<?xml version="1.0" encoding="UTF-8" standalone="no" ?>
<gpx xmlns="http://www.topografix.com/GPX/1/1" xmlns:xsi="http://www.w3.org/2001/XMLSchema-instance" xsi:schemaLocation="http://www.topografix.com/GPX/1/1 http://www.topografix.com/GPX/1/1/gpx.xsd" version="1.1" creator="VisuGPX - https://www.visugpx.com">
  <metadata>
    <name>Balade hivernale</name>
    <desc><![CDATA[Balade effectuée du 9 décembre 2022 au 7 janvier 2023.]]></desc>
  </metadata>
  <trk>
    <name><![CDATA[Plouarzel - Loperhet]]></name>
    <extensions>
      <line xmlns="http://www.topografix.com/GPX/gpx_style/0/2">
        <color>0000FF</color>
        <width>4</width>
      </line>
    </extensions>
    <trkseg>
      <trkpt lat="48.43304" lon="-4.71972">
        <ele>120.671554</ele>
        <time>2022-12-09T14:08:58.452Z</time>
      </trkpt>
      <trkpt lat="48.43298" lon="-4.71983">
        <ele>120.671554</ele>
        <time>2022-12-09T14:09:46.480Z</time>
      </trkpt>
      <trkpt lat="48.43297" lon="-4.71997">
        <ele>120.671554</ele>
        <time>2022-12-09T14:09:50.489Z</time>
      </trkpt>
      <trkpt lat="48.43289" lon="-4.72009">
        <ele>120.671554</ele>
        <time>2022-12-09T14:09:54.484Z</time>
      </trkpt>
      <trkpt lat="48.43284" lon="-4.72025">
        <ele>120.671554</ele>
        <time>2022-12-09T14:09:58.494Z</time>
      </trkpt>
      <trkpt lat="48.43286" lon="-4.72041">
        <ele>120.671554</ele>
        <time>2022-12-09T14:10:01.479Z</time>
      </trkpt>
      <trkpt lat="48.4329" lon="-4.72058">
        <ele>120.671554</ele>
        <time>2022-12-09T14:10:04.481Z</time>
      </trkpt>
      <trkpt lat="48.43295" lon="-4.72073">
        <ele>120.671554</ele>
        <time>2022-12-09T14:10:07.476Z</time>
      </trkpt>
      <trkpt lat="48.43298" lon="-4.72086">
        <ele>120.671554</ele>
        <time>2022-12-09T14:10:10.472Z</time>
      </trkpt>
      <trkpt lat="48.43303" lon="-4.72098">
        <ele>120.746523</ele>
        <time>2022-12-09T14:10:14.490Z</time>
      </trkpt>
      <trkpt lat="48.43313" lon="-4.72094">
        <ele>120.904548</ele>
        <time>2022-12-09T14:10:19.480Z</time>
      </trkpt>
      <trkpt lat="48.43323" lon="-4.72091">
        <ele>121.055562</ele>
        <time>2022-12-09T14:10:23.476Z</time>
      </trkpt>
      <trkpt lat="48.43333" lon="-4.72088">
        <ele>121.205538</ele>
        <time>2022-12-09T14:10:27.503Z</time>
      </trkpt>
      <trkpt lat="48.43342" lon="-4.72082">
        <ele>121.36376</ele>
        <time>2022-12-09T14:10:31.502Z</time>
      </trkpt>
      <trkpt lat="48.43351" lon="-4.72074">
        <ele>121.512446</ele>
        <time>2022-12-09T14:10:35.493Z</time>
      </trkpt>
      <trkpt lat="48.43354" lon="-4.72061">
        <ele>121.652165</ele>
        <time>2022-12-09T14:10:39.481Z</time>
      </trkpt>
      <trkpt lat="48.43363" lon="-4.72052">
        <ele>121.805786</ele>
        <time>2022-12-09T14:10:44.504Z</time>
      </trkpt>
      <trkpt lat="48.43367" lon="-4.72038">
        <ele>121.964665</ele>
        <time>2022-12-09T14:10:50.485Z</time>
      </trkpt>
      <trkpt lat="48.43363" lon="-4.72024">
        <ele>122.115624</ele>
        <time>2022-12-09T14:10:54.494Z</time>
      </trkpt>
      <trkpt lat="48.43359" lon="-4.7201">
        <ele>122.266699</ele>
        <time>2022-12-09T14:10:58.491Z</time>
      </trkpt>
      <trkpt lat="48.43356" lon="-4.71995">
        <ele>122.420384</ele>
        <time>2022-12-09T14:11:02.502Z</time>
      </trkpt>
      <trkpt lat="48.43353" lon="-4.71979">
        <ele>122.581981</ele>
        <time>2022-12-09T14:11:06.499Z</time>
      </trkpt>
      <trkpt lat="48.4335" lon="-4.71963">
        <ele>122.746683</ele>
        <time>2022-12-09T14:11:10.496Z</time>
      </trkpt>
      <trkpt lat="48.43349" lon="-4.71946">
        <ele>122.917468</ele>
        <time>2022-12-09T14:11:14.500Z</time>
      </trkpt>
      <trkpt lat="48.43347" lon="-4.7193">
        <ele>123.086661</ele>
        <time>2022-12-09T14:11:18.502Z</time>
      </trkpt>
      <trkpt lat="48.43347" lon="-4.71912">
        <ele>123.260346</ele>
        <time>2022-12-09T14:11:22.483Z</time>
      </trkpt>
      <trkpt lat="48.43347" lon="-4.71896">
        <ele>123.487989</ele>
        <time>2022-12-09T14:11:26.500Z</time>
      </trkpt>
      <trkpt lat="48.43346" lon="-4.7188">
        <ele>123.859882</ele>
        <time>2022-12-09T14:11:30.500Z</time>
      </trkpt>
      <trkpt lat="48.43345" lon="-4.71866">
        <ele>124.174128</ele>
        <time>2022-12-09T14:11:33.504Z</time>
      </trkpt>
      <trkpt lat="48.43344" lon="-4.71848">
        <ele>124.582329</ele>
        <time>2022-12-09T14:11:37.501Z</time>
      </trkpt>
      <trkpt lat="48.43345" lon="-4.71832">
        <ele>124.953503</ele>
        <time>2022-12-09T14:11:41.495Z</time>
      </trkpt>
      <trkpt lat="48.43345" lon="-4.71817">
        <ele>125.294829</ele>
        <time>2022-12-09T14:11:45.496Z</time>
      </trkpt>
      <trkpt lat="48.43342" lon="-4.71804">
        <ele>125.620902</ele>
        <time>2022-12-09T14:11:50.489Z</time>
      </trkpt>
      <trkpt lat="48.43336" lon="-4.71792">
        <ele>125.962465</ele>
        <time>2022-12-09T14:11:56.481Z</time>
      </trkpt>
      <trkpt lat="48.4334" lon="-4.71778">
        <ele>126.315787</ele>
        <time>2022-12-09T14:12:00.477Z</time>
      </trkpt>
      <trkpt lat="48.43343" lon="-4.71764">
        <ele>126.658163</ele>
        <time>2022-12-09T14:12:04.498Z</time>
      </trkpt>
      <trkpt lat="48.43345" lon="-4.71748">
        <ele>127.026402</ele>
        <time>2022-12-09T14:12:08.482Z</time>
      </trkpt>
      <trkpt lat="48.43347" lon="-4.71732">
        <ele>127.391309</ele>
        <time>2022-12-09T14:12:12.474Z</time>
      </trkpt>
      <trkpt lat="48.43349" lon="-4.71716">
        <ele>127.767788</ele>
        <time>2022-12-09T14:12:16.519Z</time>
      </trkpt>
      <trkpt lat="48.43351" lon="-4.71701">
        <ele>128.113712</ele>
        <time>2022-12-09T14:12:20.502Z</time>
      </trkpt>
      <trkpt lat="48.4335" lon="-4.71687">
        <ele>128.451518</ele>
        <time>2022-12-09T14:12:25.499Z</time>
      </trkpt>
      <trkpt lat="48.43341" lon="-4.71684">
        <ele>128.790835</ele>
        <time>2022-12-09T14:12:29.490Z</time>
      </trkpt>
      <trkpt lat="48.4333" lon="-4.71686">
        <ele>129.169872</ele>
        <time>2022-12-09T14:12:34.487Z</time>
      </trkpt>
      <trkpt lat="48.4332" lon="-4.71686">
        <ele>129.494359</ele>
        <time>2022-12-09T14:12:38.501Z</time>
      </trkpt>
      <trkpt lat="48.43309" lon="-4.71683">
        <ele>129.741437</ele>
        <time>2022-12-09T14:12:42.481Z</time>
      </trkpt>
      <trkpt lat="48.43299" lon="-4.71678">
        <ele>129.943395</ele>
        <time>2022-12-09T14:12:46.487Z</time>
      </trkpt>
      <trkpt lat="48.43291" lon="-4.71668">
        <ele>130.144993</ele>
        <time>2022-12-09T14:12:50.479Z</time>
      </trkpt>
      <trkpt lat="48.43282" lon="-4.7166">
        <ele>130.348573</ele>
        <time>2022-12-09T14:12:54.492Z</time>
      </trkpt>
      <trkpt lat="48.4327" lon="-4.71659">
        <ele>130.576659</ele>
        <time>2022-12-09T14:12:58.492Z</time>
      </trkpt>
      <trkpt lat="48.43261" lon="-4.7166">
        <ele>130.747783</ele>
        <time>2022-12-09T14:13:01.494Z</time>
      </trkpt>
      <trkpt lat="48.43252" lon="-4.71661">
        <ele>130.922616</ele>
        <time>2022-12-09T14:13:04.501Z</time>
      </trkpt>
      <trkpt lat="48.43241" lon="-4.71656">
        <ele>131.13988</ele>
        <time>2022-12-09T14:13:08.483Z</time>
      </trkpt>
      <trkpt lat="48.43235" lon="-4.71644">
        <ele>131.324038</ele>
        <time>2022-12-09T14:13:11.495Z</time>
      </trkpt>
      <trkpt lat="48.43229" lon="-4.71632">
        <ele>131.507602</ele>
        <time>2022-12-09T14:13:14.492Z</time>
      </trkpt>
      <trkpt lat="48.43225" lon="-4.71618">
        <ele>131.705022</ele>
        <time>2022-12-09T14:13:17.503Z</time>
      </trkpt>
      <trkpt lat="48.43222" lon="-4.71603">
        <ele>131.897062</ele>
        <time>2022-12-09T14:13:20.505Z</time>
      </trkpt>
      <trkpt lat="48.43218" lon="-4.71591">
        <ele>132.071664</ele>
        <time>2022-12-09T14:13:23.490Z</time>
      </trkpt>
      <trkpt lat="48.43215" lon="-4.71577">
        <ele>132.26235</ele>
        <time>2022-12-09T14:13:26.509Z</time>
      </trkpt>
      <trkpt lat="48.43211" lon="-4.71563">
        <ele>132.448188</ele>
        <time>2022-12-09T14:13:29.500Z</time>
      </trkpt>
      <trkpt lat="48.43208" lon="-4.71549">
        <ele>132.629209</ele>
        <time>2022-12-09T14:13:32.492Z</time>
      </trkpt>
      <trkpt lat="48.43205" lon="-4.71533">
        <ele>132.836506</ele>
        <time>2022-12-09T14:13:36.496Z</time>
      </trkpt>
      <trkpt lat="48.432" lon="-4.71521">
        <ele>133.01038</ele>
        <time>2022-12-09T14:13:40.482Z</time>
      </trkpt>
      <trkpt lat="48.43189" lon="-4.71516">
        <ele>133.144828</ele>
        <time>2022-12-09T14:13:44.478Z</time>
      </trkpt>
      <trkpt lat="48.43178" lon="-4.7151">
        <ele>133.289644</ele>
        <time>2022-12-09T14:13:48.501Z</time>
      </trkpt>
      <trkpt lat="48.43168" lon="-4.71506">
        <ele>133.403326</ele>
        <time>2022-12-09T14:13:51.487Z</time>
      </trkpt>
      <trkpt lat="48.43159" lon="-4.71501">
        <ele>133.51864</ele>
        <time>2022-12-09T14:13:54.493Z</time>
      </trkpt>
      <trkpt lat="48.43151" lon="-4.71496">
        <ele>133.628903</ele>
        <time>2022-12-09T14:13:57.496Z</time>
      </trkpt>
      <trkpt lat="48.43142" lon="-4.71491">
        <ele>133.744014</ele>
        <time>2022-12-09T14:14:00.501Z</time>
      </trkpt>
      <trkpt lat="48.43132" lon="-4.71486">
        <ele>133.865316</ele>
        <time>2022-12-09T14:14:03.488Z</time>
      </trkpt>
      <trkpt lat="48.43122" lon="-4.71481">
        <ele>133.989918</ele>
        <time>2022-12-09T14:14:06.503Z</time>
      </trkpt>
      <trkpt lat="48.43113" lon="-4.71476">
        <ele>134.113658</ele>
        <time>2022-12-09T14:14:09.495Z</time>
      </trkpt>
      <trkpt lat="48.43103" lon="-4.7147">
        <ele>134.237399</ele>
        <time>2022-12-09T14:14:12.499Z</time>
      </trkpt>
      <trkpt lat="48.43093" lon="-4.71465">
        <ele>134.362873</ele>
        <time>2022-12-09T14:14:15.506Z</time>
      </trkpt>
      <trkpt lat="48.43083" lon="-4.7146">
        <ele>134.486344</ele>
        <time>2022-12-09T14:14:18.501Z</time>
      </trkpt>
      <trkpt lat="48.43074" lon="-4.71455">
        <ele>134.610946</ele>
        <time>2022-12-09T14:14:21.490Z</time>
      </trkpt>
      <trkpt lat="48.43063" lon="-4.7145">
        <ele>134.738948</ele>
        <time>2022-12-09T14:14:24.499Z</time>
      </trkpt>
      <trkpt lat="48.43054" lon="-4.71445">
        <ele>134.863916</ele>
        <time>2022-12-09T14:14:27.502Z</time>
      </trkpt>
      <trkpt lat="48.43044" lon="-4.7144">
        <ele>134.986358</ele>
        <time>2022-12-09T14:14:30.504Z</time>
      </trkpt>
      <trkpt lat="48.43034" lon="-4.71434">
        <ele>135.113743</ele>
        <time>2022-12-09T14:14:33.499Z</time>
      </trkpt>
      <trkpt lat="48.43024" lon="-4.71429">
        <ele>135.060806</ele>
        <time>2022-12-09T14:14:36.489Z</time>
      </trkpt>
      <trkpt lat="48.43015" lon="-4.71423">
        <ele>134.935036</ele>
        <time>2022-12-09T14:14:39.473Z</time>
      </trkpt>
      <trkpt lat="48.43006" lon="-4.71415">
        <ele>134.803753</ele>
        <time>2022-12-09T14:14:42.477Z</time>
      </trkpt>
      <trkpt lat="48.42996" lon="-4.71407">
        <ele>134.665489</ele>
        <time>2022-12-09T14:14:45.494Z</time>
      </trkpt>
      <trkpt lat="48.42987" lon="-4.71397">
        <ele>134.527528</ele>
        <time>2022-12-09T14:14:48.479Z</time>
      </trkpt>
      <trkpt lat="48.42978" lon="-4.71385">
        <ele>134.386783</ele>
        <time>2022-12-09T14:14:51.495Z</time>
      </trkpt>
      <trkpt lat="48.42971" lon="-4.71372">
        <ele>134.246404</ele>
        <time>2022-12-09T14:14:54.477Z</time>
      </trkpt>
      <trkpt lat="48.42964" lon="-4.71358">
        <ele>134.101821</ele>
        <time>2022-12-09T14:14:57.486Z</time>
      </trkpt>
      <trkpt lat="48.42958" lon="-4.71342">
        <ele>133.952401</ele>
        <time>2022-12-09T14:15:00.496Z</time>
      </trkpt>
      <trkpt lat="48.42952" lon="-4.71326">
        <ele>133.801266</ele>
        <time>2022-12-09T14:15:03.499Z</time>
      </trkpt>
      <trkpt lat="48.42946" lon="-4.71309">
        <ele>133.641056</ele>
        <time>2022-12-09T14:15:06.503Z</time>
      </trkpt>
      <trkpt lat="48.42941" lon="-4.71297">
        <ele>133.524968</ele>
        <time>2022-12-09T14:15:08.501Z</time>
      </trkpt>
      <trkpt lat="48.42936" lon="-4.71284">
        <ele>133.407262</ele>
        <time>2022-12-09T14:15:10.498Z</time>
      </trkpt>
      <trkpt lat="48.42931" lon="-4.71271">
        <ele>133.287098</ele>
        <time>2022-12-09T14:15:12.502Z</time>
      </trkpt>
      <trkpt lat="48.42927" lon="-4.71258">
        <ele>133.161741</ele>
        <time>2022-12-09T14:15:14.499Z</time>
      </trkpt>
      <trkpt lat="48.42922" lon="-4.71244">
        <ele>133.034483</ele>
        <time>2022-12-09T14:15:16.499Z</time>
      </trkpt>
      <trkpt lat="48.42916" lon="-4.7123">
        <ele>132.928153</ele>
        <time>2022-12-09T14:15:18.500Z</time>
      </trkpt>
      <trkpt lat="48.42911" lon="-4.71216">
        <ele>132.910971</ele>
        <time>2022-12-09T14:15:20.500Z</time>
      </trkpt>
      <trkpt lat="48.42906" lon="-4.71203">
        <ele>132.893883</ele>
        <time>2022-12-09T14:15:22.499Z</time>
      </trkpt>
      <trkpt lat="48.42902" lon="-4.71189">
        <ele>132.877023</ele>
        <time>2022-12-09T14:15:24.501Z</time>
      </trkpt>
      <trkpt lat="48.42899" lon="-4.71174">
        <ele>132.860438</ele>
        <time>2022-12-09T14:15:26.502Z</time>
      </trkpt>
      <trkpt lat="48.42896" lon="-4.7116">
        <ele>132.844519</ele>
        <time>2022-12-09T14:15:28.500Z</time>
      </trkpt>
      <trkpt lat="48.42893" lon="-4.71141">
        <ele>132.823082</ele>
        <time>2022-12-09T14:15:31.478Z</time>
      </trkpt>
      <trkpt lat="48.42891" lon="-4.71123">
        <ele>132.802941</ele>
        <time>2022-12-09T14:15:34.500Z</time>
      </trkpt>
      <trkpt lat="48.4289" lon="-4.71105">
        <ele>132.783262</ele>
        <time>2022-12-09T14:15:37.504Z</time>
      </trkpt>
      <trkpt lat="48.42888" lon="-4.71086">
        <ele>132.762323</ele>
        <time>2022-12-09T14:15:40.499Z</time>
      </trkpt>
      <trkpt lat="48.42888" lon="-4.71066">
        <ele>132.740727</ele>
        <time>2022-12-09T14:15:43.499Z</time>
      </trkpt>
      <trkpt lat="48.42886" lon="-4.71046">
        <ele>132.719483</ele>
        <time>2022-12-09T14:15:46.492Z</time>
      </trkpt>
      <trkpt lat="48.42886" lon="-4.71033">
        <ele>132.704654</ele>
        <time>2022-12-09T14:15:48.495Z</time>
      </trkpt>
      <trkpt lat="48.42884" lon="-4.71013">
        <ele>132.683209</ele>
        <time>2022-12-09T14:15:51.503Z</time>
      </trkpt>
      <trkpt lat="48.42883" lon="-4.70994">
        <ele>132.662229</ele>
        <time>2022-12-09T14:15:54.494Z</time>
      </trkpt>
      <trkpt lat="48.42883" lon="-4.70975">
        <ele>132.642056</ele>
        <time>2022-12-09T14:15:57.501Z</time>
      </trkpt>
      <trkpt lat="48.42882" lon="-4.70957">
        <ele>133.068413</ele>
        <time>2022-12-09T14:16:00.493Z</time>
      </trkpt>
      <trkpt lat="48.4288" lon="-4.70939">
        <ele>133.620018</ele>
        <time>2022-12-09T14:16:03.501Z</time>
      </trkpt>
      <trkpt lat="48.4288" lon="-4.70922">
        <ele>134.151476</ele>
        <time>2022-12-09T14:16:06.496Z</time>
      </trkpt>
      <trkpt lat="48.42879" lon="-4.70906">
        <ele>134.636175</ele>
        <time>2022-12-09T14:16:09.501Z</time>
      </trkpt>
      <trkpt lat="48.42878" lon="-4.70891">
        <ele>135.09291</ele>
        <time>2022-12-09T14:16:12.498Z</time>
      </trkpt>
      <trkpt lat="48.42878" lon="-4.70877">
        <ele>135.534592</ele>
        <time>2022-12-09T14:16:15.490Z</time>
      </trkpt>
      <trkpt lat="48.42875" lon="-4.7086">
        <ele>136.064053</ele>
        <time>2022-12-09T14:16:19.503Z</time>
      </trkpt>
      <trkpt lat="48.42872" lon="-4.70844">
        <ele>136.591393</ele>
        <time>2022-12-09T14:16:23.485Z</time>
      </trkpt>
      <trkpt lat="48.4287" lon="-4.70827">
        <ele>137.117148</ele>
        <time>2022-12-09T14:16:27.495Z</time>
      </trkpt>
      <trkpt lat="48.42868" lon="-4.70812">
        <ele>137.600096</ele>
        <time>2022-12-09T14:16:31.490Z</time>
      </trkpt>
      <trkpt lat="48.42865" lon="-4.70798">
        <ele>138.034797</ele>
        <time>2022-12-09T14:16:35.501Z</time>
      </trkpt>
      <trkpt lat="48.42862" lon="-4.70785">
        <ele>138.47042</ele>
        <time>2022-12-09T14:16:39.501Z</time>
      </trkpt>
      <trkpt lat="48.4286" lon="-4.70769">
        <ele>138.973753</ele>
        <time>2022-12-09T14:16:44.489Z</time>
      </trkpt>
      <trkpt lat="48.42857" lon="-4.70755">
        <ele>139.406068</ele>
        <time>2022-12-09T14:16:48.479Z</time>
      </trkpt>
      <trkpt lat="48.42854" lon="-4.70742">
        <ele>139.847648</ele>
        <time>2022-12-09T14:16:52.504Z</time>
      </trkpt>
      <trkpt lat="48.42852" lon="-4.70728">
        <ele>140.271804</ele>
        <time>2022-12-09T14:16:56.499Z</time>
      </trkpt>
      <trkpt lat="48.42849" lon="-4.70715">
        <ele>140.703039</ele>
        <time>2022-12-09T14:17:00.504Z</time>
      </trkpt>
      <trkpt lat="48.42847" lon="-4.70701">
        <ele>141.119305</ele>
        <time>2022-12-09T14:17:04.497Z</time>
      </trkpt>
      <trkpt lat="48.42844" lon="-4.70687">
        <ele>141.48309</ele>
        <time>2022-12-09T14:17:08.494Z</time>
      </trkpt>
      <trkpt lat="48.42842" lon="-4.70673">
        <ele>141.850054</ele>
        <time>2022-12-09T14:17:12.501Z</time>
      </trkpt>
      <trkpt lat="48.42839" lon="-4.70659">
        <ele>142.224915</ele>
        <time>2022-12-09T14:17:16.486Z</time>
      </trkpt>
      <trkpt lat="48.42837" lon="-4.70645">
        <ele>142.594563</ele>
        <time>2022-12-09T14:17:20.492Z</time>
      </trkpt>
      <trkpt lat="48.42834" lon="-4.70632">
        <ele>142.945249</ele>
        <time>2022-12-09T14:17:24.505Z</time>
      </trkpt>
      <trkpt lat="48.42831" lon="-4.70619">
        <ele>143.293837</ele>
        <time>2022-12-09T14:17:28.503Z</time>
      </trkpt>
      <trkpt lat="48.42829" lon="-4.70605">
        <ele>143.653245</ele>
        <time>2022-12-09T14:17:32.501Z</time>
      </trkpt>
      <trkpt lat="48.42827" lon="-4.70592">
        <ele>144.005359</ele>
        <time>2022-12-09T14:17:36.500Z</time>
      </trkpt>
      <trkpt lat="48.42824" lon="-4.70578">
        <ele>144.362326</ele>
        <time>2022-12-09T14:17:40.498Z</time>
      </trkpt>
      <trkpt lat="48.42821" lon="-4.70564">
        <ele>144.725246</ele>
        <time>2022-12-09T14:17:44.496Z</time>
      </trkpt>
      <trkpt lat="48.42819" lon="-4.70551">
        <ele>145.085657</ele>
        <time>2022-12-09T14:17:48.499Z</time>
      </trkpt>
      <trkpt lat="48.42817" lon="-4.70537">
        <ele>145.446472</ele>
        <time>2022-12-09T14:17:52.499Z</time>
      </trkpt>
      <trkpt lat="48.42814" lon="-4.70524">
        <ele>145.804444</ele>
        <time>2022-12-09T14:17:56.501Z</time>
      </trkpt>
      <trkpt lat="48.42811" lon="-4.70511">
        <ele>146.151565</ele>
        <time>2022-12-09T14:18:00.497Z</time>
      </trkpt>
      <trkpt lat="48.42807" lon="-4.70498">
        <ele>146.515448</ele>
        <time>2022-12-09T14:18:04.504Z</time>
      </trkpt>
      <trkpt lat="48.42802" lon="-4.70485">
        <ele>146.890447</ele>
        <time>2022-12-09T14:18:08.475Z</time>
      </trkpt>
      <trkpt lat="48.42796" lon="-4.70473">
        <ele>147.26965</ele>
        <time>2022-12-09T14:18:12.500Z</time>
      </trkpt>
      <trkpt lat="48.42788" lon="-4.70464">
        <ele>147.648336</ele>
        <time>2022-12-09T14:18:16.502Z</time>
      </trkpt>
      <trkpt lat="48.4278" lon="-4.70453">
        <ele>147.992262</ele>
        <time>2022-12-09T14:18:20.505Z</time>
      </trkpt>
      <trkpt lat="48.42774" lon="-4.70443">
        <ele>148.253309</ele>
        <time>2022-12-09T14:18:24.501Z</time>
      </trkpt>
      <trkpt lat="48.42767" lon="-4.70431">
        <ele>148.518823</ele>
        <time>2022-12-09T14:18:28.478Z</time>
      </trkpt>
      <trkpt lat="48.42759" lon="-4.70421">
        <ele>148.786254</ele>
        <time>2022-12-09T14:18:32.494Z</time>
      </trkpt>
      <trkpt lat="48.42752" lon="-4.70411">
        <ele>149.056386</ele>
        <time>2022-12-09T14:18:36.497Z</time>
      </trkpt>
      <trkpt lat="48.42744" lon="-4.70401">
        <ele>149.324976</ele>
        <time>2022-12-09T14:18:40.487Z</time>
      </trkpt>
      <trkpt lat="48.42737" lon="-4.70391">
        <ele>149.589992</ele>
        <time>2022-12-09T14:18:44.500Z</time>
      </trkpt>
      <trkpt lat="48.4273" lon="-4.7038">
        <ele>149.859224</ele>
        <time>2022-12-09T14:18:48.502Z</time>
      </trkpt>
      <trkpt lat="48.42725" lon="-4.70367">
        <ele>150.128753</ele>
        <time>2022-12-09T14:18:52.479Z</time>
      </trkpt>
      <trkpt lat="48.42717" lon="-4.70358">
        <ele>150.384955</ele>
        <time>2022-12-09T14:18:56.487Z</time>
      </trkpt>
      <trkpt lat="48.42707" lon="-4.70354">
        <ele>150.659076</ele>
        <time>2022-12-09T14:19:00.478Z</time>
      </trkpt>
      <trkpt lat="48.427" lon="-4.70344">
        <ele>150.915851</ele>
        <time>2022-12-09T14:19:04.484Z</time>
      </trkpt>
      <trkpt lat="48.427" lon="-4.7033">
        <ele>151.177311</ele>
        <time>2022-12-09T14:19:08.484Z</time>
      </trkpt>
      <trkpt lat="48.42706" lon="-4.70318">
        <ele>151.442737</ele>
        <time>2022-12-09T14:19:12.486Z</time>
      </trkpt>
      <trkpt lat="48.42714" lon="-4.70308">
        <ele>151.705338</ele>
        <time>2022-12-09T14:19:16.483Z</time>
      </trkpt>
      <trkpt lat="48.42724" lon="-4.70304">
        <ele>151.981135</ele>
        <time>2022-12-09T14:19:20.484Z</time>
      </trkpt>
      <trkpt lat="48.42735" lon="-4.70302">
        <ele>152.275507</ele>
        <time>2022-12-09T14:19:24.499Z</time>
      </trkpt>
      <trkpt lat="48.42747" lon="-4.703">
        <ele>152.588423</ele>
        <time>2022-12-09T14:19:28.485Z</time>
      </trkpt>
      <trkpt lat="48.42757" lon="-4.70301">
        <ele>152.375741</ele>
        <time>2022-12-09T14:19:31.477Z</time>
      </trkpt>
      <trkpt lat="48.42767" lon="-4.70302">
        <ele>151.992187</ele>
        <time>2022-12-09T14:19:34.502Z</time>
      </trkpt>
      <trkpt lat="48.42777" lon="-4.70303">
        <ele>151.60775</ele>
        <time>2022-12-09T14:19:37.500Z</time>
      </trkpt>
      <trkpt lat="48.42787" lon="-4.70303">
        <ele>151.205585</ele>
        <time>2022-12-09T14:19:40.484Z</time>
      </trkpt>
      <trkpt lat="48.42798" lon="-4.70303">
        <ele>150.780166</ele>
        <time>2022-12-09T14:19:43.500Z</time>
      </trkpt>
      <trkpt lat="48.4281" lon="-4.70305">
        <ele>150.338053</ele>
        <time>2022-12-09T14:19:46.502Z</time>
      </trkpt>
      <trkpt lat="48.42822" lon="-4.70304">
        <ele>149.86639</ele>
        <time>2022-12-09T14:19:49.482Z</time>
      </trkpt>
      <trkpt lat="48.42835" lon="-4.70302">
        <ele>149.37583</ele>
        <time>2022-12-09T14:19:52.500Z</time>
      </trkpt>
      <trkpt lat="48.42847" lon="-4.70298">
        <ele>148.876634</ele>
        <time>2022-12-09T14:19:55.481Z</time>
      </trkpt>
      <trkpt lat="48.42861" lon="-4.70293">
        <ele>148.345947</ele>
        <time>2022-12-09T14:19:58.486Z</time>
      </trkpt>
      <trkpt lat="48.42871" lon="-4.70289">
        <ele>147.950944</ele>
        <time>2022-12-09T14:20:00.497Z</time>
      </trkpt>
      <trkpt lat="48.42881" lon="-4.70286">
        <ele>147.565772</ele>
        <time>2022-12-09T14:20:02.501Z</time>
      </trkpt>
      <trkpt lat="48.42891" lon="-4.70282">
        <ele>147.177552</ele>
        <time>2022-12-09T14:20:04.503Z</time>
      </trkpt>
      <trkpt lat="48.42901" lon="-4.70278">
        <ele>146.780616</ele>
        <time>2022-12-09T14:20:06.501Z</time>
      </trkpt>
      <trkpt lat="48.4291" lon="-4.70274">
        <ele>146.391739</ele>
        <time>2022-12-09T14:20:08.489Z</time>
      </trkpt>
      <trkpt lat="48.4292" lon="-4.7027">
        <ele>146.012833</ele>
        <time>2022-12-09T14:20:10.502Z</time>
      </trkpt>
      <trkpt lat="48.4293" lon="-4.70266">
        <ele>145.763011</ele>
        <time>2022-12-09T14:20:12.502Z</time>
      </trkpt>
      <trkpt lat="48.42939" lon="-4.70262">
        <ele>145.746633</ele>
        <time>2022-12-09T14:20:14.493Z</time>
      </trkpt>
      <trkpt lat="48.42948" lon="-4.70259">
        <ele>145.730951</ele>
        <time>2022-12-09T14:20:16.500Z</time>
      </trkpt>
      <trkpt lat="48.42957" lon="-4.70253">
        <ele>145.714847</ele>
        <time>2022-12-09T14:20:18.499Z</time>
      </trkpt>
      <trkpt lat="48.42966" lon="-4.70246">
        <ele>145.698402</ele>
        <time>2022-12-09T14:20:20.477Z</time>
      </trkpt>
      <trkpt lat="48.42973" lon="-4.70234">
        <ele>145.680308</ele>
        <time>2022-12-09T14:20:22.478Z</time>
      </trkpt>
      <trkpt lat="48.42978" lon="-4.70221">
        <ele>145.664718</ele>
        <time>2022-12-09T14:20:24.477Z</time>
      </trkpt>
      <trkpt lat="48.4298" lon="-4.70208">
        <ele>145.649316</ele>
        <time>2022-12-09T14:20:26.479Z</time>
      </trkpt>
      <trkpt lat="48.42981" lon="-4.70189">
        <ele>145.628826</ele>
        <time>2022-12-09T14:20:29.484Z</time>
      </trkpt>
      <trkpt lat="48.42981" lon="-4.70172">
        <ele>145.610652</ele>
        <time>2022-12-09T14:20:32.495Z</time>
      </trkpt>
      <trkpt lat="48.42981" lon="-4.70159">
        <ele>145.59557</ele>
        <time>2022-12-09T14:20:35.500Z</time>
      </trkpt>
      <trkpt lat="48.42981" lon="-4.70145">
        <ele>145.580165</ele>
        <time>2022-12-09T14:20:38.505Z</time>
      </trkpt>
      <trkpt lat="48.42982" lon="-4.70131">
        <ele>145.564527</ele>
        <time>2022-12-09T14:20:41.503Z</time>
      </trkpt>
      <trkpt lat="48.42981" lon="-4.70116">
        <ele>145.548002</ele>
        <time>2022-12-09T14:20:44.500Z</time>
      </trkpt>
      <trkpt lat="48.42981" lon="-4.70101">
        <ele>145.531594</ele>
        <time>2022-12-09T14:20:47.497Z</time>
      </trkpt>
      <trkpt lat="48.42982" lon="-4.70086">
        <ele>145.514927</ele>
        <time>2022-12-09T14:20:50.499Z</time>
      </trkpt>
      <trkpt lat="48.42982" lon="-4.7007">
        <ele>145.498052</ele>
        <time>2022-12-09T14:20:53.502Z</time>
      </trkpt>
      <trkpt lat="48.42984" lon="-4.70055">
        <ele>145.481666</ele>
        <time>2022-12-09T14:20:56.480Z</time>
      </trkpt>
      <trkpt lat="48.42984" lon="-4.70041">
        <ele>145.415816</ele>
        <time>2022-12-09T14:20:59.500Z</time>
      </trkpt>
      <trkpt lat="48.42985" lon="-4.70027">
        <ele>145.250349</ele>
        <time>2022-12-09T14:21:02.503Z</time>
      </trkpt>
      <trkpt lat="48.42987" lon="-4.70013">
        <ele>145.078902</ele>
        <time>2022-12-09T14:21:05.483Z</time>
      </trkpt>
      <trkpt lat="48.42994" lon="-4.7">
        <ele>144.866965</ele>
        <time>2022-12-09T14:21:08.484Z</time>
      </trkpt>
      <trkpt lat="48.43003" lon="-4.6999">
        <ele>144.669244</ele>
        <time>2022-12-09T14:21:10.488Z</time>
      </trkpt>
      <trkpt lat="48.43015" lon="-4.69983">
        <ele>144.447721</ele>
        <time>2022-12-09T14:21:12.477Z</time>
      </trkpt>
      <trkpt lat="48.43028" lon="-4.69974">
        <ele>144.184111</ele>
        <time>2022-12-09T14:21:14.499Z</time>
      </trkpt>
      <trkpt lat="48.43041" lon="-4.69966">
        <ele>143.927566</ele>
        <time>2022-12-09T14:21:16.501Z</time>
      </trkpt>
      <trkpt lat="48.43054" lon="-4.69957">
        <ele>143.671991</ele>
        <time>2022-12-09T14:21:18.490Z</time>
      </trkpt>
      <trkpt lat="48.43067" lon="-4.69949">
        <ele>143.42466</ele>
        <time>2022-12-09T14:21:20.491Z</time>
      </trkpt>
      <trkpt lat="48.43079" lon="-4.69942">
        <ele>143.194292</ele>
        <time>2022-12-09T14:21:22.505Z</time>
      </trkpt>
      <trkpt lat="48.4309" lon="-4.69936">
        <ele>142.984106</ele>
        <time>2022-12-09T14:21:24.501Z</time>
      </trkpt>
      <trkpt lat="48.43099" lon="-4.69931">
        <ele>142.802159</ele>
        <time>2022-12-09T14:21:26.488Z</time>
      </trkpt>
      <trkpt lat="48.4311" lon="-4.69925">
        <ele>142.602117</ele>
        <time>2022-12-09T14:21:29.501Z</time>
      </trkpt>
      <trkpt lat="48.43121" lon="-4.69919">
        <ele>142.395321</ele>
        <time>2022-12-09T14:21:33.503Z</time>
      </trkpt>
      <trkpt lat="48.4313" lon="-4.69913">
        <ele>142.247249</ele>
        <time>2022-12-09T14:21:37.500Z</time>
      </trkpt>
      <trkpt lat="48.43138" lon="-4.69902">
        <ele>142.431795</ele>
        <time>2022-12-09T14:21:42.478Z</time>
      </trkpt>
      <trkpt lat="48.4314" lon="-4.69888">
        <ele>142.593337</ele>
        <time>2022-12-09T14:21:46.484Z</time>
      </trkpt>
      <trkpt lat="48.43136" lon="-4.69873">
        <ele>142.767381</ele>
        <time>2022-12-09T14:21:50.487Z</time>
      </trkpt>
      <trkpt lat="48.4313" lon="-4.69858">
        <ele>142.951915</ele>
        <time>2022-12-09T14:21:54.497Z</time>
      </trkpt>
      <trkpt lat="48.43125" lon="-4.69842">
        <ele>143.142044</ele>
        <time>2022-12-09T14:21:58.490Z</time>
      </trkpt>
      <trkpt lat="48.43121" lon="-4.69829">
        <ele>143.299626</ele>
        <time>2022-12-09T14:22:01.479Z</time>
      </trkpt>
      <trkpt lat="48.43117" lon="-4.69816">
        <ele>143.458496</ele>
        <time>2022-12-09T14:22:04.481Z</time>
      </trkpt>
      <trkpt lat="48.43113" lon="-4.69802">
        <ele>143.61474</ele>
        <time>2022-12-09T14:22:07.514Z</time>
      </trkpt>
      <trkpt lat="48.43109" lon="-4.69789">
        <ele>143.770123</ele>
        <time>2022-12-09T14:22:10.507Z</time>
      </trkpt>
      <trkpt lat="48.43106" lon="-4.69776">
        <ele>143.927359</ele>
        <time>2022-12-09T14:22:13.500Z</time>
      </trkpt>
      <trkpt lat="48.43102" lon="-4.69763">
        <ele>144.082282</ele>
        <time>2022-12-09T14:22:16.502Z</time>
      </trkpt>
      <trkpt lat="48.43098" lon="-4.69749">
        <ele>144.240519</ele>
        <time>2022-12-09T14:22:19.498Z</time>
      </trkpt>
      <trkpt lat="48.43093" lon="-4.69736">
        <ele>144.399685</ele>
        <time>2022-12-09T14:22:22.504Z</time>
      </trkpt>
      <trkpt lat="48.43089" lon="-4.69722">
        <ele>144.567123</ele>
        <time>2022-12-09T14:22:25.497Z</time>
      </trkpt>
      <trkpt lat="48.43084" lon="-4.69709">
        <ele>144.725789</ele>
        <time>2022-12-09T14:22:28.495Z</time>
      </trkpt>
      <trkpt lat="48.4308" lon="-4.69696">
        <ele>144.880962</ele>
        <time>2022-12-09T14:22:31.504Z</time>
      </trkpt>
      <trkpt lat="48.43075" lon="-4.69683">
        <ele>145.042793</ele>
        <time>2022-12-09T14:22:34.500Z</time>
      </trkpt>
      <trkpt lat="48.43071" lon="-4.69669">
        <ele>145.224681</ele>
        <time>2022-12-09T14:22:37.480Z</time>
      </trkpt>
      <trkpt lat="48.43067" lon="-4.69656">
        <ele>145.437053</ele>
        <time>2022-12-09T14:22:40.487Z</time>
      </trkpt>
      <trkpt lat="48.43062" lon="-4.69643">
        <ele>145.65436</ele>
        <time>2022-12-09T14:22:43.499Z</time>
      </trkpt>
      <trkpt lat="48.43058" lon="-4.69631">
        <ele>145.869324</ele>
        <time>2022-12-09T14:22:46.501Z</time>
      </trkpt>
      <trkpt lat="48.43053" lon="-4.69618">
        <ele>146.084007</ele>
        <time>2022-12-09T14:22:49.503Z</time>
      </trkpt>
      <trkpt lat="48.43049" lon="-4.69605">
        <ele>146.295315</ele>
        <time>2022-12-09T14:22:52.493Z</time>
      </trkpt>
      <trkpt lat="48.43045" lon="-4.69592">
        <ele>146.515913</ele>
        <time>2022-12-09T14:22:55.502Z</time>
      </trkpt>
      <trkpt lat="48.4304" lon="-4.69579">
        <ele>146.7364</ele>
        <time>2022-12-09T14:22:58.504Z</time>
      </trkpt>
      <trkpt lat="48.43035" lon="-4.69566">
        <ele>146.956534</ele>
        <time>2022-12-09T14:23:01.499Z</time>
      </trkpt>
      <trkpt lat="48.43029" lon="-4.69552">
        <ele>147.188886</ele>
        <time>2022-12-09T14:23:04.502Z</time>
      </trkpt>
      <trkpt lat="48.43024" lon="-4.69541">
        <ele>147.406678</ele>
        <time>2022-12-09T14:23:07.500Z</time>
      </trkpt>
      <trkpt lat="48.43017" lon="-4.6953">
        <ele>147.619142</ele>
        <time>2022-12-09T14:23:10.500Z</time>
      </trkpt>
      <trkpt lat="48.4301" lon="-4.69516">
        <ele>147.880089</ele>
        <time>2022-12-09T14:23:14.490Z</time>
      </trkpt>
      <trkpt lat="48.43002" lon="-4.69503">
        <ele>148.14205</ele>
        <time>2022-12-09T14:23:18.496Z</time>
      </trkpt>
      <trkpt lat="48.42994" lon="-4.69489">
        <ele>148.409935</ele>
        <time>2022-12-09T14:23:22.491Z</time>
      </trkpt>
      <trkpt lat="48.42988" lon="-4.69476">
        <ele>148.651179</ele>
        <time>2022-12-09T14:23:26.502Z</time>
      </trkpt>
      <trkpt lat="48.42982" lon="-4.69463">
        <ele>148.884931</ele>
        <time>2022-12-09T14:23:30.503Z</time>
      </trkpt>
      <trkpt lat="48.42977" lon="-4.6945">
        <ele>149.111484</ele>
        <time>2022-12-09T14:23:34.501Z</time>
      </trkpt>
      <trkpt lat="48.42972" lon="-4.69435">
        <ele>149.517196</ele>
        <time>2022-12-09T14:23:38.502Z</time>
      </trkpt>
      <trkpt lat="48.42968" lon="-4.6942">
        <ele>149.990375</ele>
        <time>2022-12-09T14:23:42.501Z</time>
      </trkpt>
      <trkpt lat="48.42964" lon="-4.69405">
        <ele>150.461378</ele>
        <time>2022-12-09T14:23:46.492Z</time>
      </trkpt>
      <trkpt lat="48.42959" lon="-4.6939">
        <ele>150.931322</ele>
        <time>2022-12-09T14:23:50.501Z</time>
      </trkpt>
      <trkpt lat="48.42954" lon="-4.69376">
        <ele>151.402963</ele>
        <time>2022-12-09T14:23:54.488Z</time>
      </trkpt>
      <trkpt lat="48.4295" lon="-4.69361">
        <ele>151.847513</ele>
        <time>2022-12-09T14:23:58.493Z</time>
      </trkpt>
      <trkpt lat="48.42946" lon="-4.69348">
        <ele>152.275531</ele>
        <time>2022-12-09T14:24:02.499Z</time>
      </trkpt>
      <trkpt lat="48.42942" lon="-4.69335">
        <ele>152.690321</ele>
        <time>2022-12-09T14:24:06.501Z</time>
      </trkpt>
      <trkpt lat="48.42938" lon="-4.69321">
        <ele>153.125248</ele>
        <time>2022-12-09T14:24:10.499Z</time>
      </trkpt>
      <trkpt lat="48.42934" lon="-4.69307">
        <ele>153.555831</ele>
        <time>2022-12-09T14:24:14.497Z</time>
      </trkpt>
      <trkpt lat="48.42931" lon="-4.69293">
        <ele>153.981098</ele>
        <time>2022-12-09T14:24:18.502Z</time>
      </trkpt>
      <trkpt lat="48.42926" lon="-4.69279">
        <ele>154.423955</ele>
        <time>2022-12-09T14:24:22.504Z</time>
      </trkpt>
      <trkpt lat="48.42922" lon="-4.69265">
        <ele>154.877571</ele>
        <time>2022-12-09T14:24:26.499Z</time>
      </trkpt>
      <trkpt lat="48.42917" lon="-4.69251">
        <ele>155.330535</ele>
        <time>2022-12-09T14:24:30.504Z</time>
      </trkpt>
      <trkpt lat="48.42912" lon="-4.69237">
        <ele>155.765637</ele>
        <time>2022-12-09T14:24:34.501Z</time>
      </trkpt>
      <trkpt lat="48.42908" lon="-4.69225">
        <ele>156.15921</ele>
        <time>2022-12-09T14:24:38.491Z</time>
      </trkpt>
      <trkpt lat="48.42904" lon="-4.69211">
        <ele>156.619013</ele>
        <time>2022-12-09T14:24:43.501Z</time>
      </trkpt>
      <trkpt lat="48.42899" lon="-4.69196">
        <ele>157.07991</ele>
        <time>2022-12-09T14:24:48.501Z</time>
      </trkpt>
      <trkpt lat="48.42895" lon="-4.69184">
        <ele>157.492489</ele>
        <time>2022-12-09T14:24:52.500Z</time>
      </trkpt>
      <trkpt lat="48.42891" lon="-4.69169">
        <ele>157.964986</ele>
        <time>2022-12-09T14:24:57.504Z</time>
      </trkpt>
      <trkpt lat="48.42887" lon="-4.69154">
        <ele>158.435797</ele>
        <time>2022-12-09T14:25:02.502Z</time>
      </trkpt>
      <trkpt lat="48.42883" lon="-4.6914">
        <ele>158.891279</ele>
        <time>2022-12-09T14:25:07.501Z</time>
      </trkpt>
      <trkpt lat="48.42879" lon="-4.69124">
        <ele>159.391558</ele>
        <time>2022-12-09T14:25:12.501Z</time>
      </trkpt>
      <trkpt lat="48.42876" lon="-4.69111">
        <ele>159.817367</ele>
        <time>2022-12-09T14:25:16.511Z</time>
      </trkpt>
      <trkpt lat="48.42871" lon="-4.69097">
        <ele>160.289938</ele>
        <time>2022-12-09T14:25:21.488Z</time>
      </trkpt>
      <trkpt lat="48.42867" lon="-4.69084">
        <ele>160.694067</ele>
        <time>2022-12-09T14:25:25.491Z</time>
      </trkpt>
      <trkpt lat="48.42863" lon="-4.6907">
        <ele>161.133529</ele>
        <time>2022-12-09T14:25:29.500Z</time>
      </trkpt>
      <trkpt lat="48.4286" lon="-4.69057">
        <ele>161.562364</ele>
        <time>2022-12-09T14:25:33.502Z</time>
      </trkpt>
      <trkpt lat="48.42856" lon="-4.69044">
        <ele>161.979093</ele>
        <time>2022-12-09T14:25:37.477Z</time>
      </trkpt>
      <trkpt lat="48.42853" lon="-4.6903">
        <ele>162.413731</ele>
        <time>2022-12-09T14:25:41.498Z</time>
      </trkpt>
      <trkpt lat="48.42849" lon="-4.69015">
        <ele>162.893788</ele>
        <time>2022-12-09T14:25:45.505Z</time>
      </trkpt>
      <trkpt lat="48.42846" lon="-4.69">
        <ele>163.345076</ele>
        <time>2022-12-09T14:25:49.487Z</time>
      </trkpt>
      <trkpt lat="48.42841" lon="-4.68987">
        <ele>163.790668</ele>
        <time>2022-12-09T14:25:53.502Z</time>
      </trkpt>
      <trkpt lat="48.42838" lon="-4.68973">
        <ele>164.226875</ele>
        <time>2022-12-09T14:25:57.506Z</time>
      </trkpt>
      <trkpt lat="48.42834" lon="-4.68959">
        <ele>164.673486</ele>
        <time>2022-12-09T14:26:01.505Z</time>
      </trkpt>
      <trkpt lat="48.4283" lon="-4.68945">
        <ele>165.057084</ele>
        <time>2022-12-09T14:26:05.498Z</time>
      </trkpt>
      <trkpt lat="48.42826" lon="-4.68932">
        <ele>165.347689</ele>
        <time>2022-12-09T14:26:09.478Z</time>
      </trkpt>
      <trkpt lat="48.42822" lon="-4.68918">
        <ele>165.62936</ele>
        <time>2022-12-09T14:26:13.502Z</time>
      </trkpt>
      <trkpt lat="48.42818" lon="-4.68904">
        <ele>165.927006</ele>
        <time>2022-12-09T14:26:17.498Z</time>
      </trkpt>
      <trkpt lat="48.42814" lon="-4.6889">
        <ele>166.22107</ele>
        <time>2022-12-09T14:26:21.506Z</time>
      </trkpt>
      <trkpt lat="48.42809" lon="-4.68876">
        <ele>166.525446</ele>
        <time>2022-12-09T14:26:25.491Z</time>
      </trkpt>
      <trkpt lat="48.42805" lon="-4.68862">
        <ele>166.827053</ele>
        <time>2022-12-09T14:26:29.492Z</time>
      </trkpt>
      <trkpt lat="48.428" lon="-4.68847">
        <ele>167.128061</ele>
        <time>2022-12-09T14:26:33.500Z</time>
      </trkpt>
      <trkpt lat="48.42796" lon="-4.68834">
        <ele>167.424282</ele>
        <time>2022-12-09T14:26:37.506Z</time>
      </trkpt>
      <trkpt lat="48.42791" lon="-4.68818">
        <ele>167.746321</ele>
        <time>2022-12-09T14:26:41.506Z</time>
      </trkpt>
      <trkpt lat="48.42788" lon="-4.68804">
        <ele>168.048292</ele>
        <time>2022-12-09T14:26:45.503Z</time>
      </trkpt>
      <trkpt lat="48.42784" lon="-4.68788">
        <ele>168.362067</ele>
        <time>2022-12-09T14:26:49.505Z</time>
      </trkpt>
      <trkpt lat="48.42779" lon="-4.68774">
        <ele>168.660851</ele>
        <time>2022-12-09T14:26:53.500Z</time>
      </trkpt>
      <trkpt lat="48.42775" lon="-4.68759">
        <ele>168.974916</ele>
        <time>2022-12-09T14:26:57.500Z</time>
      </trkpt>
      <trkpt lat="48.42771" lon="-4.68744">
        <ele>169.287619</ele>
        <time>2022-12-09T14:27:01.496Z</time>
      </trkpt>
      <trkpt lat="48.42766" lon="-4.68729">
        <ele>169.612671</ele>
        <time>2022-12-09T14:27:05.488Z</time>
      </trkpt>
      <trkpt lat="48.42762" lon="-4.68714">
        <ele>169.925375</ele>
        <time>2022-12-09T14:27:09.487Z</time>
      </trkpt>
      <trkpt lat="48.42758" lon="-4.68698">
        <ele>170.217617</ele>
        <time>2022-12-09T14:27:13.501Z</time>
      </trkpt>
      <trkpt lat="48.42754" lon="-4.68682">
        <ele>170.421046</ele>
        <time>2022-12-09T14:27:17.502Z</time>
      </trkpt>
      <trkpt lat="48.42753" lon="-4.68666">
        <ele>170.615252</ele>
        <time>2022-12-09T14:27:21.502Z</time>
      </trkpt>
      <trkpt lat="48.42752" lon="-4.68651">
        <ele>170.800895</ele>
        <time>2022-12-09T14:27:25.498Z</time>
      </trkpt>
      <trkpt lat="48.42752" lon="-4.68635">
        <ele>170.988758</ele>
        <time>2022-12-09T14:27:29.501Z</time>
      </trkpt>
      <trkpt lat="48.42751" lon="-4.68619">
        <ele>171.182912</ele>
        <time>2022-12-09T14:27:33.489Z</time>
      </trkpt>
      <trkpt lat="48.42751" lon="-4.68604">
        <ele>171.370741</ele>
        <time>2022-12-09T14:27:37.479Z</time>
      </trkpt>
      <trkpt lat="48.42751" lon="-4.68588">
        <ele>171.556197</ele>
        <time>2022-12-09T14:27:41.503Z</time>
      </trkpt>
      <trkpt lat="48.4275" lon="-4.68573">
        <ele>171.742891</ele>
        <time>2022-12-09T14:27:45.487Z</time>
      </trkpt>
      <trkpt lat="48.42749" lon="-4.68556">
        <ele>171.946757</ele>
        <time>2022-12-09T14:27:49.503Z</time>
      </trkpt>
      <trkpt lat="48.42747" lon="-4.68542">
        <ele>172.112752</ele>
        <time>2022-12-09T14:27:52.506Z</time>
      </trkpt>
      <trkpt lat="48.42745" lon="-4.68528">
        <ele>172.291226</ele>
        <time>2022-12-09T14:27:55.513Z</time>
      </trkpt>
      <trkpt lat="48.42743" lon="-4.68512">
        <ele>172.481008</ele>
        <time>2022-12-09T14:27:58.502Z</time>
      </trkpt>
      <trkpt lat="48.42741" lon="-4.68496">
        <ele>172.675858</ele>
        <time>2022-12-09T14:28:01.496Z</time>
      </trkpt>
      <trkpt lat="48.4274" lon="-4.6848">
        <ele>172.872749</ele>
        <time>2022-12-09T14:28:04.487Z</time>
      </trkpt>
      <trkpt lat="48.42738" lon="-4.68465">
        <ele>173.065234</ele>
        <time>2022-12-09T14:28:07.493Z</time>
      </trkpt>
      <trkpt lat="48.42735" lon="-4.6845">
        <ele>173.245403</ele>
        <time>2022-12-09T14:28:10.494Z</time>
      </trkpt>
      <trkpt lat="48.42733" lon="-4.68437">
        <ele>173.411182</ele>
        <time>2022-12-09T14:28:13.503Z</time>
      </trkpt>
      <trkpt lat="48.4273" lon="-4.68423">
        <ele>173.553656</ele>
        <time>2022-12-09T14:28:16.509Z</time>
      </trkpt>
      <trkpt lat="48.42728" lon="-4.68408">
        <ele>173.70902</ele>
        <time>2022-12-09T14:28:19.500Z</time>
      </trkpt>
      <trkpt lat="48.42727" lon="-4.68392">
        <ele>173.869721</ele>
        <time>2022-12-09T14:28:22.489Z</time>
      </trkpt>
      <trkpt lat="48.42726" lon="-4.68375">
        <ele>174.042734</ele>
        <time>2022-12-09T14:28:25.506Z</time>
      </trkpt>
      <trkpt lat="48.42725" lon="-4.68358">
        <ele>174.210543</ele>
        <time>2022-12-09T14:28:28.497Z</time>
      </trkpt>
      <trkpt lat="48.42725" lon="-4.68343">
        <ele>174.362011</ele>
        <time>2022-12-09T14:28:31.502Z</time>
      </trkpt>
      <trkpt lat="48.42723" lon="-4.68326">
        <ele>174.535161</ele>
        <time>2022-12-09T14:28:35.505Z</time>
      </trkpt>
      <trkpt lat="48.42723" lon="-4.68309">
        <ele>174.703544</ele>
        <time>2022-12-09T14:28:39.499Z</time>
      </trkpt>
      <trkpt lat="48.42723" lon="-4.68295">
        <ele>174.842103</ele>
        <time>2022-12-09T14:28:42.503Z</time>
      </trkpt>
      <trkpt lat="48.42722" lon="-4.6828">
        <ele>174.989182</ele>
        <time>2022-12-09T14:28:45.501Z</time>
      </trkpt>
      <trkpt lat="48.42721" lon="-4.68265">
        <ele>175.135577</ele>
        <time>2022-12-09T14:28:48.483Z</time>
      </trkpt>
      <trkpt lat="48.4272" lon="-4.68251">
        <ele>175.284127</ele>
        <time>2022-12-09T14:28:51.501Z</time>
      </trkpt>
      <trkpt lat="48.42718" lon="-4.68237">
        <ele>175.425226</ele>
        <time>2022-12-09T14:28:54.480Z</time>
      </trkpt>
      <trkpt lat="48.42716" lon="-4.68222">
        <ele>175.570946</ele>
        <time>2022-12-09T14:28:57.492Z</time>
      </trkpt>
      <trkpt lat="48.42716" lon="-4.68207">
        <ele>175.723566</ele>
        <time>2022-12-09T14:29:00.501Z</time>
      </trkpt>
      <trkpt lat="48.42717" lon="-4.68192">
        <ele>175.876362</ele>
        <time>2022-12-09T14:29:03.479Z</time>
      </trkpt>
      <trkpt lat="48.42718" lon="-4.68177">
        <ele>176.026293</ele>
        <time>2022-12-09T14:29:06.495Z</time>
      </trkpt>
      <trkpt lat="48.4272" lon="-4.68161">
        <ele>176.1243</ele>
        <time>2022-12-09T14:29:09.507Z</time>
      </trkpt>
      <trkpt lat="48.42724" lon="-4.68147">
        <ele>176.10713</ele>
        <time>2022-12-09T14:29:12.485Z</time>
      </trkpt>
      <trkpt lat="48.4273" lon="-4.68134">
        <ele>176.090781</ele>
        <time>2022-12-09T14:29:15.491Z</time>
      </trkpt>
      <trkpt lat="48.42736" lon="-4.68122">
        <ele>176.073634</ele>
        <time>2022-12-09T14:29:18.497Z</time>
      </trkpt>
      <trkpt lat="48.42743" lon="-4.6811">
        <ele>176.056794</ele>
        <time>2022-12-09T14:29:21.501Z</time>
      </trkpt>
      <trkpt lat="48.42749" lon="-4.68099">
        <ele>176.041471</ele>
        <time>2022-12-09T14:29:24.503Z</time>
      </trkpt>
      <trkpt lat="48.42754" lon="-4.68083">
        <ele>176.02182</ele>
        <time>2022-12-09T14:29:28.483Z</time>
      </trkpt>
      <trkpt lat="48.42758" lon="-4.6807">
        <ele>176.005913</ele>
        <time>2022-12-09T14:29:31.501Z</time>
      </trkpt>
      <trkpt lat="48.42761" lon="-4.68055">
        <ele>175.988852</ele>
        <time>2022-12-09T14:29:34.480Z</time>
      </trkpt>
      <trkpt lat="48.42764" lon="-4.68041">
        <ele>175.97297</ele>
        <time>2022-12-09T14:29:37.503Z</time>
      </trkpt>
      <trkpt lat="48.42766" lon="-4.68027">
        <ele>175.957902</ele>
        <time>2022-12-09T14:29:40.502Z</time>
      </trkpt>
      <trkpt lat="48.42768" lon="-4.68011">
        <ele>175.939766</ele>
        <time>2022-12-09T14:29:44.501Z</time>
      </trkpt>
      <trkpt lat="48.4277" lon="-4.67997">
        <ele>175.924263</ele>
        <time>2022-12-09T14:29:47.487Z</time>
      </trkpt>
      <trkpt lat="48.42771" lon="-4.67981">
        <ele>175.906595</ele>
        <time>2022-12-09T14:29:50.488Z</time>
      </trkpt>
      <trkpt lat="48.42773" lon="-4.67965">
        <ele>175.888809</ele>
        <time>2022-12-09T14:29:53.507Z</time>
      </trkpt>
      <trkpt lat="48.42774" lon="-4.67949">
        <ele>175.871399</ele>
        <time>2022-12-09T14:29:56.502Z</time>
      </trkpt>
      <trkpt lat="48.42776" lon="-4.67934">
        <ele>175.855244</ele>
        <time>2022-12-09T14:29:59.506Z</time>
      </trkpt>
      <trkpt lat="48.42777" lon="-4.6792">
        <ele>175.839488</ele>
        <time>2022-12-09T14:30:02.487Z</time>
      </trkpt>
      <trkpt lat="48.42778" lon="-4.67903">
        <ele>175.550873</ele>
        <time>2022-12-09T14:30:05.504Z</time>
      </trkpt>
      <trkpt lat="48.4278" lon="-4.67887">
        <ele>175.183719</ele>
        <time>2022-12-09T14:30:08.495Z</time>
      </trkpt>
      <trkpt lat="48.42781" lon="-4.6787">
        <ele>174.816976</ele>
        <time>2022-12-09T14:30:11.493Z</time>
      </trkpt>
      <trkpt lat="48.42782" lon="-4.67855">
        <ele>174.467433</ele>
        <time>2022-12-09T14:30:14.501Z</time>
      </trkpt>
      <trkpt lat="48.42783" lon="-4.67838">
        <ele>174.095112</ele>
        <time>2022-12-09T14:30:17.497Z</time>
      </trkpt>
      <trkpt lat="48.42784" lon="-4.67821">
        <ele>173.723077</ele>
        <time>2022-12-09T14:30:20.493Z</time>
      </trkpt>
      <trkpt lat="48.42785" lon="-4.67804">
        <ele>173.337761</ele>
        <time>2022-12-09T14:30:23.501Z</time>
      </trkpt>
      <trkpt lat="48.42785" lon="-4.67786">
        <ele>172.933627</ele>
        <time>2022-12-09T14:30:26.499Z</time>
      </trkpt>
      <trkpt lat="48.42785" lon="-4.67767">
        <ele>172.507288</ele>
        <time>2022-12-09T14:30:29.496Z</time>
      </trkpt>
      <trkpt lat="48.42785" lon="-4.67748">
        <ele>172.100602</ele>
        <time>2022-12-09T14:30:32.505Z</time>
      </trkpt>
      <trkpt lat="48.42782" lon="-4.67731">
        <ele>171.698566</ele>
        <time>2022-12-09T14:30:35.482Z</time>
      </trkpt>
      <trkpt lat="48.42779" lon="-4.67714">
        <ele>171.31779</ele>
        <time>2022-12-09T14:30:38.500Z</time>
      </trkpt>
      <trkpt lat="48.42775" lon="-4.67697">
        <ele>170.900175</ele>
        <time>2022-12-09T14:30:41.498Z</time>
      </trkpt>
      <trkpt lat="48.42771" lon="-4.67679">
        <ele>170.478677</ele>
        <time>2022-12-09T14:30:44.504Z</time>
      </trkpt>
      <trkpt lat="48.42767" lon="-4.67661">
        <ele>170.066589</ele>
        <time>2022-12-09T14:30:47.506Z</time>
      </trkpt>
      <trkpt lat="48.42762" lon="-4.67644">
        <ele>169.614712</ele>
        <time>2022-12-09T14:30:50.501Z</time>
      </trkpt>
      <trkpt lat="48.42758" lon="-4.67625">
        <ele>169.058334</ele>
        <time>2022-12-09T14:30:53.504Z</time>
      </trkpt>
      <trkpt lat="48.42754" lon="-4.67613">
        <ele>168.67134</ele>
        <time>2022-12-09T14:30:55.502Z</time>
      </trkpt>
      <trkpt lat="48.4275" lon="-4.67593">
        <ele>168.095693</ele>
        <time>2022-12-09T14:30:58.501Z</time>
      </trkpt>
      <trkpt lat="48.42747" lon="-4.67581">
        <ele>167.708699</ele>
        <time>2022-12-09T14:31:00.493Z</time>
      </trkpt>
      <trkpt lat="48.42742" lon="-4.67562">
        <ele>167.140291</ele>
        <time>2022-12-09T14:31:03.497Z</time>
      </trkpt>
      <trkpt lat="48.42737" lon="-4.67543">
        <ele>166.588438</ele>
        <time>2022-12-09T14:31:06.507Z</time>
      </trkpt>
      <trkpt lat="48.42732" lon="-4.67524">
        <ele>166.015167</ele>
        <time>2022-12-09T14:31:09.498Z</time>
      </trkpt>
      <trkpt lat="48.4273" lon="-4.6751">
        <ele>165.599749</ele>
        <time>2022-12-09T14:31:11.500Z</time>
      </trkpt>
      <trkpt lat="48.42727" lon="-4.67496">
        <ele>165.186761</ele>
        <time>2022-12-09T14:31:13.483Z</time>
      </trkpt>
      <trkpt lat="48.42725" lon="-4.67482">
        <ele>164.785583</ele>
        <time>2022-12-09T14:31:15.505Z</time>
      </trkpt>
      <trkpt lat="48.4272" lon="-4.67464">
        <ele>164.235181</ele>
        <time>2022-12-09T14:31:18.482Z</time>
      </trkpt>
      <trkpt lat="48.42717" lon="-4.67445">
        <ele>163.694752</ele>
        <time>2022-12-09T14:31:21.500Z</time>
      </trkpt>
      <trkpt lat="48.42715" lon="-4.67428">
        <ele>163.195571</ele>
        <time>2022-12-09T14:31:24.502Z</time>
      </trkpt>
      <trkpt lat="48.42712" lon="-4.67413">
        <ele>162.758192</ele>
        <time>2022-12-09T14:31:27.507Z</time>
      </trkpt>
      <trkpt lat="48.42709" lon="-4.67398">
        <ele>162.319875</ele>
        <time>2022-12-09T14:31:30.504Z</time>
      </trkpt>
      <trkpt lat="48.42705" lon="-4.67384">
        <ele>161.940221</ele>
        <time>2022-12-09T14:31:33.506Z</time>
      </trkpt>
      <trkpt lat="48.42702" lon="-4.6737">
        <ele>161.604558</ele>
        <time>2022-12-09T14:31:36.507Z</time>
      </trkpt>
      <trkpt lat="48.42699" lon="-4.67357">
        <ele>161.263353</ele>
        <time>2022-12-09T14:31:39.501Z</time>
      </trkpt>
      <trkpt lat="48.42696" lon="-4.67342">
        <ele>160.910972</ele>
        <time>2022-12-09T14:31:42.488Z</time>
      </trkpt>
      <trkpt lat="48.42693" lon="-4.67329">
        <ele>160.578463</ele>
        <time>2022-12-09T14:31:45.485Z</time>
      </trkpt>
      <trkpt lat="48.42689" lon="-4.67315">
        <ele>160.21131</ele>
        <time>2022-12-09T14:31:48.501Z</time>
      </trkpt>
      <trkpt lat="48.42686" lon="-4.67301">
        <ele>159.860853</ele>
        <time>2022-12-09T14:31:51.483Z</time>
      </trkpt>
      <trkpt lat="48.42682" lon="-4.67287">
        <ele>159.508191</ele>
        <time>2022-12-09T14:31:54.501Z</time>
      </trkpt>
      <trkpt lat="48.42679" lon="-4.67273">
        <ele>159.160191</ele>
        <time>2022-12-09T14:31:57.501Z</time>
      </trkpt>
      <trkpt lat="48.42675" lon="-4.67259">
        <ele>158.805322</ele>
        <time>2022-12-09T14:32:00.499Z</time>
      </trkpt>
      <trkpt lat="48.42672" lon="-4.67244">
        <ele>158.452841</ele>
        <time>2022-12-09T14:32:03.506Z</time>
      </trkpt>
      <trkpt lat="48.4267" lon="-4.67229">
        <ele>158.078255</ele>
        <time>2022-12-09T14:32:06.500Z</time>
      </trkpt>
      <trkpt lat="48.42667" lon="-4.67214">
        <ele>157.713208</ele>
        <time>2022-12-09T14:32:09.501Z</time>
      </trkpt>
      <trkpt lat="48.42665" lon="-4.67199">
        <ele>157.352596</ele>
        <time>2022-12-09T14:32:12.498Z</time>
      </trkpt>
      <trkpt lat="48.42663" lon="-4.67183">
        <ele>156.97408</ele>
        <time>2022-12-09T14:32:15.500Z</time>
      </trkpt>
      <trkpt lat="48.42662" lon="-4.67166">
        <ele>156.56293</ele>
        <time>2022-12-09T14:32:18.499Z</time>
      </trkpt>
      <trkpt lat="48.42662" lon="-4.67147">
        <ele>156.11492</ele>
        <time>2022-12-09T14:32:21.484Z</time>
      </trkpt>
      <trkpt lat="48.42663" lon="-4.67129">
        <ele>155.718472</ele>
        <time>2022-12-09T14:32:24.502Z</time>
      </trkpt>
      <trkpt lat="48.42665" lon="-4.67112">
        <ele>155.414925</ele>
        <time>2022-12-09T14:32:27.475Z</time>
      </trkpt>
      <trkpt lat="48.42666" lon="-4.67098">
        <ele>155.167756</ele>
        <time>2022-12-09T14:32:29.484Z</time>
      </trkpt>
      <trkpt lat="48.42668" lon="-4.67084">
        <ele>154.909539</ele>
        <time>2022-12-09T14:32:31.492Z</time>
      </trkpt>
      <trkpt lat="48.4267" lon="-4.67069">
        <ele>154.640727</ele>
        <time>2022-12-09T14:32:33.487Z</time>
      </trkpt>
      <trkpt lat="48.42671" lon="-4.67053">
        <ele>154.361605</ele>
        <time>2022-12-09T14:32:35.496Z</time>
      </trkpt>
      <trkpt lat="48.42673" lon="-4.67038">
        <ele>154.097119</ele>
        <time>2022-12-09T14:32:37.499Z</time>
      </trkpt>
      <trkpt lat="48.42675" lon="-4.67024">
        <ele>153.849951</ele>
        <time>2022-12-09T14:32:39.495Z</time>
      </trkpt>
      <trkpt lat="48.42678" lon="-4.67005">
        <ele>153.499779</ele>
        <time>2022-12-09T14:32:42.504Z</time>
      </trkpt>
      <trkpt lat="48.42679" lon="-4.66984">
        <ele>153.135436</ele>
        <time>2022-12-09T14:32:45.501Z</time>
      </trkpt>
      <trkpt lat="48.4268" lon="-4.6697">
        <ele>152.890957</ele>
        <time>2022-12-09T14:32:47.506Z</time>
      </trkpt>
      <trkpt lat="48.42682" lon="-4.66952">
        <ele>152.560245</ele>
        <time>2022-12-09T14:32:50.499Z</time>
      </trkpt>
      <trkpt lat="48.42683" lon="-4.66934">
        <ele>152.257206</ele>
        <time>2022-12-09T14:32:53.503Z</time>
      </trkpt>
      <trkpt lat="48.42685" lon="-4.66919">
        <ele>151.977567</ele>
        <time>2022-12-09T14:32:56.489Z</time>
      </trkpt>
      <trkpt lat="48.42688" lon="-4.66901">
        <ele>151.652198</ele>
        <time>2022-12-09T14:33:00.504Z</time>
      </trkpt>
      <trkpt lat="48.4269" lon="-4.66886">
        <ele>151.395014</ele>
        <time>2022-12-09T14:33:03.501Z</time>
      </trkpt>
      <trkpt lat="48.42692" lon="-4.66872">
        <ele>151.132815</ele>
        <time>2022-12-09T14:33:06.492Z</time>
      </trkpt>
      <trkpt lat="48.42692" lon="-4.66855">
        <ele>150.790286</ele>
        <time>2022-12-09T14:33:09.499Z</time>
      </trkpt>
      <trkpt lat="48.42693" lon="-4.6684">
        <ele>150.443151</ele>
        <time>2022-12-09T14:33:12.500Z</time>
      </trkpt>
      <trkpt lat="48.42695" lon="-4.66826">
        <ele>150.116785</ele>
        <time>2022-12-09T14:33:15.487Z</time>
      </trkpt>
      <trkpt lat="48.42697" lon="-4.66811">
        <ele>149.781807</ele>
        <time>2022-12-09T14:33:18.504Z</time>
      </trkpt>
      <trkpt lat="48.42699" lon="-4.66796">
        <ele>149.426769</ele>
        <time>2022-12-09T14:33:21.506Z</time>
      </trkpt>
      <trkpt lat="48.42701" lon="-4.66781">
        <ele>149.063109</ele>
        <time>2022-12-09T14:33:24.497Z</time>
      </trkpt>
      <trkpt lat="48.42704" lon="-4.66766">
        <ele>148.717192</ele>
        <time>2022-12-09T14:33:27.504Z</time>
      </trkpt>
      <trkpt lat="48.42709" lon="-4.66749">
        <ele>148.310304</ele>
        <time>2022-12-09T14:33:30.481Z</time>
      </trkpt>
      <trkpt lat="48.42714" lon="-4.66733">
        <ele>147.916604</ele>
        <time>2022-12-09T14:33:33.483Z</time>
      </trkpt>
      <trkpt lat="48.42718" lon="-4.66719">
        <ele>147.548067</ele>
        <time>2022-12-09T14:33:36.481Z</time>
      </trkpt>
      <trkpt lat="48.42723" lon="-4.66704">
        <ele>147.17433</ele>
        <time>2022-12-09T14:33:39.489Z</time>
      </trkpt>
      <trkpt lat="48.42726" lon="-4.66687">
        <ele>146.788875</ele>
        <time>2022-12-09T14:33:42.494Z</time>
      </trkpt>
      <trkpt lat="48.42729" lon="-4.6667">
        <ele>146.391368</ele>
        <time>2022-12-09T14:33:45.489Z</time>
      </trkpt>
      <trkpt lat="48.42731" lon="-4.66653">
        <ele>145.994178</ele>
        <time>2022-12-09T14:33:48.483Z</time>
      </trkpt>
      <trkpt lat="48.42733" lon="-4.66636">
        <ele>145.607037</ele>
        <time>2022-12-09T14:33:51.498Z</time>
      </trkpt>
      <trkpt lat="48.42733" lon="-4.66619">
        <ele>145.208825</ele>
        <time>2022-12-09T14:33:54.491Z</time>
      </trkpt>
      <trkpt lat="48.42732" lon="-4.66602">
        <ele>144.846052</ele>
        <time>2022-12-09T14:33:57.479Z</time>
      </trkpt>
      <trkpt lat="48.4273" lon="-4.66587">
        <ele>144.593635</ele>
        <time>2022-12-09T14:34:00.501Z</time>
      </trkpt>
      <trkpt lat="48.42729" lon="-4.66571">
        <ele>144.325038</ele>
        <time>2022-12-09T14:34:03.504Z</time>
      </trkpt>
      <trkpt lat="48.42727" lon="-4.66555">
        <ele>144.050809</ele>
        <time>2022-12-09T14:34:06.481Z</time>
      </trkpt>
      <trkpt lat="48.42726" lon="-4.66539">
        <ele>143.775564</ele>
        <time>2022-12-09T14:34:09.495Z</time>
      </trkpt>
      <trkpt lat="48.42725" lon="-4.66523">
        <ele>143.518394</ele>
        <time>2022-12-09T14:34:12.488Z</time>
      </trkpt>
      <trkpt lat="48.42725" lon="-4.66508">
        <ele>143.254441</ele>
        <time>2022-12-09T14:34:15.503Z</time>
      </trkpt>
      <trkpt lat="48.42725" lon="-4.66491">
        <ele>142.968751</ele>
        <time>2022-12-09T14:34:18.499Z</time>
      </trkpt>
      <trkpt lat="48.42726" lon="-4.66472">
        <ele>142.655671</ele>
        <time>2022-12-09T14:34:21.522Z</time>
      </trkpt>
      <trkpt lat="48.42726" lon="-4.66453">
        <ele>142.338011</ele>
        <time>2022-12-09T14:34:24.507Z</time>
      </trkpt>
      <trkpt lat="48.42725" lon="-4.66434">
        <ele>142.021058</ele>
        <time>2022-12-09T14:34:27.501Z</time>
      </trkpt>
      <trkpt lat="48.42724" lon="-4.66418">
        <ele>141.743492</ele>
        <time>2022-12-09T14:34:30.482Z</time>
      </trkpt>
      <trkpt lat="48.42722" lon="-4.66401">
        <ele>141.45925</ele>
        <time>2022-12-09T14:34:33.503Z</time>
      </trkpt>
      <trkpt lat="48.42722" lon="-4.66387">
        <ele>141.227892</ele>
        <time>2022-12-09T14:34:35.501Z</time>
      </trkpt>
      <trkpt lat="48.4272" lon="-4.66374">
        <ele>140.994945</ele>
        <time>2022-12-09T14:34:37.504Z</time>
      </trkpt>
      <trkpt lat="48.42718" lon="-4.66352">
        <ele>140.632743</ele>
        <time>2022-12-09T14:34:40.500Z</time>
      </trkpt>
      <trkpt lat="48.42718" lon="-4.66334">
        <ele>140.301389</ele>
        <time>2022-12-09T14:34:43.506Z</time>
      </trkpt>
      <trkpt lat="48.42717" lon="-4.66314">
        <ele>139.85567</ele>
        <time>2022-12-09T14:34:46.493Z</time>
      </trkpt>
      <trkpt lat="48.42717" lon="-4.66295">
        <ele>139.417346</ele>
        <time>2022-12-09T14:34:49.504Z</time>
      </trkpt>
      <trkpt lat="48.42718" lon="-4.66277">
        <ele>138.987363</ele>
        <time>2022-12-09T14:34:52.502Z</time>
      </trkpt>
      <trkpt lat="48.42719" lon="-4.66259">
        <ele>138.586096</ele>
        <time>2022-12-09T14:34:55.501Z</time>
      </trkpt>
      <trkpt lat="48.42719" lon="-4.66243">
        <ele>138.200594</ele>
        <time>2022-12-09T14:34:58.498Z</time>
      </trkpt>
      <trkpt lat="48.4272" lon="-4.66226">
        <ele>137.81528</ele>
        <time>2022-12-09T14:35:01.504Z</time>
      </trkpt>
      <trkpt lat="48.42721" lon="-4.66208">
        <ele>137.409424</ele>
        <time>2022-12-09T14:35:04.502Z</time>
      </trkpt>
      <trkpt lat="48.42722" lon="-4.66191">
        <ele>137.009226</ele>
        <time>2022-12-09T14:35:07.500Z</time>
      </trkpt>
      <trkpt lat="48.42723" lon="-4.66176">
        <ele>136.655656</ele>
        <time>2022-12-09T14:35:10.502Z</time>
      </trkpt>
      <trkpt lat="48.42724" lon="-4.6616">
        <ele>136.287528</ele>
        <time>2022-12-09T14:35:13.500Z</time>
      </trkpt>
      <trkpt lat="48.42725" lon="-4.66143">
        <ele>135.886863</ele>
        <time>2022-12-09T14:35:16.501Z</time>
      </trkpt>
      <trkpt lat="48.42727" lon="-4.66127">
        <ele>135.506733</ele>
        <time>2022-12-09T14:35:19.502Z</time>
      </trkpt>
      <trkpt lat="48.4273" lon="-4.66111">
        <ele>135.135065</ele>
        <time>2022-12-09T14:35:22.502Z</time>
      </trkpt>
      <trkpt lat="48.42733" lon="-4.66096">
        <ele>134.765776</ele>
        <time>2022-12-09T14:35:25.483Z</time>
      </trkpt>
      <trkpt lat="48.42735" lon="-4.66079">
        <ele>134.384315</ele>
        <time>2022-12-09T14:35:28.500Z</time>
      </trkpt>
      <trkpt lat="48.42738" lon="-4.66063">
        <ele>133.967372</ele>
        <time>2022-12-09T14:35:31.503Z</time>
      </trkpt>
      <trkpt lat="48.42741" lon="-4.66047">
        <ele>133.450122</ele>
        <time>2022-12-09T14:35:34.502Z</time>
      </trkpt>
      <trkpt lat="48.42744" lon="-4.66029">
        <ele>132.909648</ele>
        <time>2022-12-09T14:35:37.505Z</time>
      </trkpt>
      <trkpt lat="48.42747" lon="-4.66011">
        <ele>132.359355</ele>
        <time>2022-12-09T14:35:40.505Z</time>
      </trkpt>
      <trkpt lat="48.42749" lon="-4.65993">
        <ele>131.78777</ele>
        <time>2022-12-09T14:35:43.504Z</time>
      </trkpt>
      <trkpt lat="48.42752" lon="-4.65975">
        <ele>131.247297</ele>
        <time>2022-12-09T14:35:46.504Z</time>
      </trkpt>
      <trkpt lat="48.42754" lon="-4.65958">
        <ele>130.73237</ele>
        <time>2022-12-09T14:35:49.503Z</time>
      </trkpt>
      <trkpt lat="48.42756" lon="-4.6594">
        <ele>130.187584</ele>
        <time>2022-12-09T14:35:52.501Z</time>
      </trkpt>
      <trkpt lat="48.42756" lon="-4.65926">
        <ele>129.761881</ele>
        <time>2022-12-09T14:35:54.502Z</time>
      </trkpt>
      <trkpt lat="48.42758" lon="-4.65905">
        <ele>129.121467</ele>
        <time>2022-12-09T14:35:57.508Z</time>
      </trkpt>
      <trkpt lat="48.42759" lon="-4.6589">
        <ele>128.671729</ele>
        <time>2022-12-09T14:35:59.480Z</time>
      </trkpt>
      <trkpt lat="48.4276" lon="-4.65872">
        <ele>128.141292</ele>
        <time>2022-12-09T14:36:01.501Z</time>
      </trkpt>
      <trkpt lat="48.42759" lon="-4.65856">
        <ele>127.646558</ele>
        <time>2022-12-09T14:36:03.481Z</time>
      </trkpt>
      <trkpt lat="48.42759" lon="-4.65839">
        <ele>127.130211</ele>
        <time>2022-12-09T14:36:05.502Z</time>
      </trkpt>
      <trkpt lat="48.42758" lon="-4.65823">
        <ele>126.655727</ele>
        <time>2022-12-09T14:36:07.500Z</time>
      </trkpt>
      <trkpt lat="48.42758" lon="-4.65808">
        <ele>126.205702</ele>
        <time>2022-12-09T14:36:09.496Z</time>
      </trkpt>
      <trkpt lat="48.42759" lon="-4.65793">
        <ele>125.694319</ele>
        <time>2022-12-09T14:36:11.502Z</time>
      </trkpt>
      <trkpt lat="48.42758" lon="-4.65779">
        <ele>125.080032</ele>
        <time>2022-12-09T14:36:13.504Z</time>
      </trkpt>
      <trkpt lat="48.42759" lon="-4.65761">
        <ele>124.309261</ele>
        <time>2022-12-09T14:36:16.502Z</time>
      </trkpt>
      <trkpt lat="48.4276" lon="-4.65743">
        <ele>123.561719</ele>
        <time>2022-12-09T14:36:19.508Z</time>
      </trkpt>
      <trkpt lat="48.4276" lon="-4.65725">
        <ele>122.817943</ele>
        <time>2022-12-09T14:36:22.503Z</time>
      </trkpt>
      <trkpt lat="48.42759" lon="-4.65707">
        <ele>122.068476</ele>
        <time>2022-12-09T14:36:25.499Z</time>
      </trkpt>
      <trkpt lat="48.4276" lon="-4.65689">
        <ele>121.311826</ele>
        <time>2022-12-09T14:36:28.501Z</time>
      </trkpt>
      <trkpt lat="48.42762" lon="-4.65671">
        <ele>120.52174</ele>
        <time>2022-12-09T14:36:31.492Z</time>
      </trkpt>
      <trkpt lat="48.42763" lon="-4.65653">
        <ele>119.758664</ele>
        <time>2022-12-09T14:36:34.504Z</time>
      </trkpt>
      <trkpt lat="48.42763" lon="-4.65634">
        <ele>118.952562</ele>
        <time>2022-12-09T14:36:37.482Z</time>
      </trkpt>
      <trkpt lat="48.42762" lon="-4.65615">
        <ele>118.191719</ele>
        <time>2022-12-09T14:36:40.503Z</time>
      </trkpt>
      <trkpt lat="48.4276" lon="-4.65596">
        <ele>117.377637</ele>
        <time>2022-12-09T14:36:43.484Z</time>
      </trkpt>
      <trkpt lat="48.42758" lon="-4.65577">
        <ele>116.554398</ele>
        <time>2022-12-09T14:36:46.488Z</time>
      </trkpt>
      <trkpt lat="48.42757" lon="-4.65558">
        <ele>115.775624</ele>
        <time>2022-12-09T14:36:49.484Z</time>
      </trkpt>
      <trkpt lat="48.42756" lon="-4.6554">
        <ele>115.014753</ele>
        <time>2022-12-09T14:36:52.507Z</time>
      </trkpt>
      <trkpt lat="48.42754" lon="-4.65521">
        <ele>114.029767</ele>
        <time>2022-12-09T14:36:55.503Z</time>
      </trkpt>
      <trkpt lat="48.42754" lon="-4.65503">
        <ele>112.989406</ele>
        <time>2022-12-09T14:36:58.502Z</time>
      </trkpt>
      <trkpt lat="48.42755" lon="-4.65485">
        <ele>111.899754</ele>
        <time>2022-12-09T14:37:01.505Z</time>
      </trkpt>
      <trkpt lat="48.42758" lon="-4.65466">
        <ele>110.772797</ele>
        <time>2022-12-09T14:37:04.483Z</time>
      </trkpt>
      <trkpt lat="48.4276" lon="-4.65447">
        <ele>109.589096</ele>
        <time>2022-12-09T14:37:07.496Z</time>
      </trkpt>
      <trkpt lat="48.42761" lon="-4.65427">
        <ele>108.433903</ele>
        <time>2022-12-09T14:37:10.503Z</time>
      </trkpt>
      <trkpt lat="48.42764" lon="-4.65409">
        <ele>107.347619</ele>
        <time>2022-12-09T14:37:13.502Z</time>
      </trkpt>
      <trkpt lat="48.42767" lon="-4.65392">
        <ele>106.294185</ele>
        <time>2022-12-09T14:37:16.502Z</time>
      </trkpt>
      <trkpt lat="48.42772" lon="-4.65376">
        <ele>105.227925</ele>
        <time>2022-12-09T14:37:19.502Z</time>
      </trkpt>
      <trkpt lat="48.42778" lon="-4.65359">
        <ele>104.112024</ele>
        <time>2022-12-09T14:37:22.501Z</time>
      </trkpt>
      <trkpt lat="48.42785" lon="-4.65342">
        <ele>102.922956</ele>
        <time>2022-12-09T14:37:25.506Z</time>
      </trkpt>
      <trkpt lat="48.42792" lon="-4.65324">
        <ele>101.729537</ele>
        <time>2022-12-09T14:37:28.504Z</time>
      </trkpt>
      <trkpt lat="48.42797" lon="-4.65308">
        <ele>100.648754</ele>
        <time>2022-12-09T14:37:31.500Z</time>
      </trkpt>
      <trkpt lat="48.42802" lon="-4.6529">
        <ele>99.525471</ele>
        <time>2022-12-09T14:37:34.501Z</time>
      </trkpt>
      <trkpt lat="48.42805" lon="-4.65272">
        <ele>98.421057</ele>
        <time>2022-12-09T14:37:37.480Z</time>
      </trkpt>
      <trkpt lat="48.42806" lon="-4.65254">
        <ele>97.45654</ele>
        <time>2022-12-09T14:37:40.481Z</time>
      </trkpt>
      <trkpt lat="48.42804" lon="-4.65235">
        <ele>96.460951</ele>
        <time>2022-12-09T14:37:43.491Z</time>
      </trkpt>
      <trkpt lat="48.42802" lon="-4.65219">
        <ele>95.603871</ele>
        <time>2022-12-09T14:37:46.500Z</time>
      </trkpt>
      <trkpt lat="48.42799" lon="-4.65201">
        <ele>94.642401</ele>
        <time>2022-12-09T14:37:49.511Z</time>
      </trkpt>
      <trkpt lat="48.42797" lon="-4.65181">
        <ele>93.553302</ele>
        <time>2022-12-09T14:37:52.504Z</time>
      </trkpt>
      <trkpt lat="48.42797" lon="-4.65167">
        <ele>92.827777</ele>
        <time>2022-12-09T14:37:54.489Z</time>
      </trkpt>
      <trkpt lat="48.42799" lon="-4.65151">
        <ele>91.990941</ele>
        <time>2022-12-09T14:37:56.482Z</time>
      </trkpt>
      <trkpt lat="48.428" lon="-4.65135">
        <ele>91.115571</ele>
        <time>2022-12-09T14:37:58.490Z</time>
      </trkpt>
      <trkpt lat="48.42804" lon="-4.65119">
        <ele>90.272216</ele>
        <time>2022-12-09T14:38:00.489Z</time>
      </trkpt>
      <trkpt lat="48.4281" lon="-4.65103">
        <ele>89.310097</ele>
        <time>2022-12-09T14:38:02.503Z</time>
      </trkpt>
      <trkpt lat="48.42816" lon="-4.65085">
        <ele>88.217131</ele>
        <time>2022-12-09T14:38:04.510Z</time>
      </trkpt>
      <trkpt lat="48.42823" lon="-4.65066">
        <ele>87.072253</ele>
        <time>2022-12-09T14:38:06.500Z</time>
      </trkpt>
      <trkpt lat="48.42827" lon="-4.65045">
        <ele>85.944486</ele>
        <time>2022-12-09T14:38:08.496Z</time>
      </trkpt>
      <trkpt lat="48.42836" lon="-4.65027">
        <ele>84.783841</ele>
        <time>2022-12-09T14:38:10.504Z</time>
      </trkpt>
      <trkpt lat="48.42843" lon="-4.6501">
        <ele>84.119742</ele>
        <time>2022-12-09T14:38:12.503Z</time>
      </trkpt>
      <trkpt lat="48.4285" lon="-4.64994">
        <ele>83.737197</ele>
        <time>2022-12-09T14:38:14.502Z</time>
      </trkpt>
      <trkpt lat="48.42857" lon="-4.64976">
        <ele>83.342285</ele>
        <time>2022-12-09T14:38:16.501Z</time>
      </trkpt>
      <trkpt lat="48.42862" lon="-4.64957">
        <ele>82.940022</ele>
        <time>2022-12-09T14:38:18.481Z</time>
      </trkpt>
      <trkpt lat="48.42865" lon="-4.64937">
        <ele>82.54309</ele>
        <time>2022-12-09T14:38:20.480Z</time>
      </trkpt>
      <trkpt lat="48.42867" lon="-4.64917">
        <ele>82.152829</ele>
        <time>2022-12-09T14:38:22.487Z</time>
      </trkpt>
      <trkpt lat="48.42867" lon="-4.64898">
        <ele>81.769551</ele>
        <time>2022-12-09T14:38:24.492Z</time>
      </trkpt>
      <trkpt lat="48.42867" lon="-4.64879">
        <ele>81.411551</ele>
        <time>2022-12-09T14:38:26.493Z</time>
      </trkpt>
      <trkpt lat="48.42867" lon="-4.64863">
        <ele>81.084308</ele>
        <time>2022-12-09T14:38:28.502Z</time>
      </trkpt>
      <trkpt lat="48.42868" lon="-4.64848">
        <ele>80.792019</ele>
        <time>2022-12-09T14:38:30.504Z</time>
      </trkpt>
      <trkpt lat="48.42869" lon="-4.64834">
        <ele>80.519143</ele>
        <time>2022-12-09T14:38:32.509Z</time>
      </trkpt>
      <trkpt lat="48.4287" lon="-4.64814">
        <ele>80.146482</ele>
        <time>2022-12-09T14:38:35.514Z</time>
      </trkpt>
      <trkpt lat="48.4287" lon="-4.64797">
        <ele>79.807991</ele>
        <time>2022-12-09T14:38:38.502Z</time>
      </trkpt>
      <trkpt lat="48.4287" lon="-4.6478">
        <ele>79.47138</ele>
        <time>2022-12-09T14:38:41.503Z</time>
      </trkpt>
      <trkpt lat="48.42872" lon="-4.64763">
        <ele>79.143593</ele>
        <time>2022-12-09T14:38:44.503Z</time>
      </trkpt>
      <trkpt lat="48.42874" lon="-4.64747">
        <ele>79.491362</ele>
        <time>2022-12-09T14:38:47.504Z</time>
      </trkpt>
      <trkpt lat="48.42877" lon="-4.64733">
        <ele>79.956117</ele>
        <time>2022-12-09T14:38:50.485Z</time>
      </trkpt>
      <trkpt lat="48.42881" lon="-4.64716">
        <ele>80.5006</ele>
        <time>2022-12-09T14:38:54.502Z</time>
      </trkpt>
      <trkpt lat="48.42885" lon="-4.647">
        <ele>81.021792</ele>
        <time>2022-12-09T14:38:58.494Z</time>
      </trkpt>
      <trkpt lat="48.42888" lon="-4.64685">
        <ele>81.519065</ele>
        <time>2022-12-09T14:39:02.506Z</time>
      </trkpt>
      <trkpt lat="48.42891" lon="-4.6467">
        <ele>82.003514</ele>
        <time>2022-12-09T14:39:06.501Z</time>
      </trkpt>
      <trkpt lat="48.42894" lon="-4.64656">
        <ele>82.474216</ele>
        <time>2022-12-09T14:39:10.486Z</time>
      </trkpt>
      <trkpt lat="48.42897" lon="-4.64641">
        <ele>82.948421</ele>
        <time>2022-12-09T14:39:14.503Z</time>
      </trkpt>
      <trkpt lat="48.429" lon="-4.64627">
        <ele>83.413643</ele>
        <time>2022-12-09T14:39:19.503Z</time>
      </trkpt>
      <trkpt lat="48.42902" lon="-4.64612">
        <ele>83.881857</ele>
        <time>2022-12-09T14:39:24.485Z</time>
      </trkpt>
      <trkpt lat="48.42903" lon="-4.64596">
        <ele>84.386903</ele>
        <time>2022-12-09T14:39:29.502Z</time>
      </trkpt>
      <trkpt lat="48.42905" lon="-4.64581">
        <ele>84.851683</ele>
        <time>2022-12-09T14:39:34.495Z</time>
      </trkpt>
      <trkpt lat="48.42905" lon="-4.64566">
        <ele>85.324826</ele>
        <time>2022-12-09T14:39:39.504Z</time>
      </trkpt>
      <trkpt lat="48.42905" lon="-4.64552">
        <ele>85.766523</ele>
        <time>2022-12-09T14:39:44.502Z</time>
      </trkpt>
      <trkpt lat="48.42903" lon="-4.64537">
        <ele>86.240093</ele>
        <time>2022-12-09T14:39:50.486Z</time>
      </trkpt>
      <trkpt lat="48.42902" lon="-4.64522">
        <ele>86.71965</ele>
        <time>2022-12-09T14:39:56.495Z</time>
      </trkpt>
      <trkpt lat="48.42899" lon="-4.64507">
        <ele>87.19178</ele>
        <time>2022-12-09T14:40:02.483Z</time>
      </trkpt>
      <trkpt lat="48.42896" lon="-4.64493">
        <ele>87.761027</ele>
        <time>2022-12-09T14:40:08.487Z</time>
      </trkpt>
      <trkpt lat="48.42895" lon="-4.64478">
        <ele>88.509049</ele>
        <time>2022-12-09T14:40:14.489Z</time>
      </trkpt>
      <trkpt lat="48.42892" lon="-4.64464">
        <ele>89.251286</ele>
        <time>2022-12-09T14:40:20.486Z</time>
      </trkpt>
      <trkpt lat="48.4289" lon="-4.64449">
        <ele>90.029745</ele>
        <time>2022-12-09T14:40:26.492Z</time>
      </trkpt>
      <trkpt lat="48.42888" lon="-4.64435">
        <ele>90.751981</ele>
        <time>2022-12-09T14:40:32.483Z</time>
      </trkpt>
      <trkpt lat="48.42886" lon="-4.64422">
        <ele>91.465979</ele>
        <time>2022-12-09T14:40:38.482Z</time>
      </trkpt>
      <trkpt lat="48.42884" lon="-4.64408">
        <ele>92.163736</ele>
        <time>2022-12-09T14:40:44.502Z</time>
      </trkpt>
      <trkpt lat="48.42885" lon="-4.64393">
        <ele>92.935734</ele>
        <time>2022-12-09T14:40:51.483Z</time>
      </trkpt>
      <trkpt lat="48.42882" lon="-4.64378">
        <ele>93.736772</ele>
        <time>2022-12-09T14:40:58.487Z</time>
      </trkpt>
      <trkpt lat="48.42882" lon="-4.64363">
        <ele>94.498809</ele>
        <time>2022-12-09T14:41:04.491Z</time>
      </trkpt>
      <trkpt lat="48.42882" lon="-4.64347">
        <ele>95.286224</ele>
        <time>2022-12-09T14:41:10.488Z</time>
      </trkpt>
      <trkpt lat="48.42883" lon="-4.64332">
        <ele>96.050372</ele>
        <time>2022-12-09T14:41:16.490Z</time>
      </trkpt>
      <trkpt lat="48.42884" lon="-4.64317">
        <ele>96.806606</ele>
        <time>2022-12-09T14:41:22.488Z</time>
      </trkpt>
      <trkpt lat="48.42886" lon="-4.64304">
        <ele>97.512977</ele>
        <time>2022-12-09T14:41:28.488Z</time>
      </trkpt>
      <trkpt lat="48.42887" lon="-4.64289">
        <ele>98.243124</ele>
        <time>2022-12-09T14:41:34.501Z</time>
      </trkpt>
      <trkpt lat="48.4289" lon="-4.64275">
        <ele>98.991138</ele>
        <time>2022-12-09T14:41:40.493Z</time>
      </trkpt>
      <trkpt lat="48.42892" lon="-4.6426">
        <ele>99.80441</ele>
        <time>2022-12-09T14:41:46.484Z</time>
      </trkpt>
      <trkpt lat="48.42896" lon="-4.64245">
        <ele>100.59971</ele>
        <time>2022-12-09T14:41:52.505Z</time>
      </trkpt>
      <trkpt lat="48.42898" lon="-4.64231">
        <ele>101.299281</ele>
        <time>2022-12-09T14:41:57.487Z</time>
      </trkpt>
      <trkpt lat="48.42901" lon="-4.64216">
        <ele>101.674015</ele>
        <time>2022-12-09T14:42:02.487Z</time>
      </trkpt>
      <trkpt lat="48.42903" lon="-4.64201">
        <ele>102.056667</ele>
        <time>2022-12-09T14:42:07.506Z</time>
      </trkpt>
      <trkpt lat="48.42906" lon="-4.64186">
        <ele>102.427015</ele>
        <time>2022-12-09T14:42:12.485Z</time>
      </trkpt>
      <trkpt lat="48.42909" lon="-4.64172">
        <ele>102.805099</ele>
        <time>2022-12-09T14:42:17.517Z</time>
      </trkpt>
      <trkpt lat="48.42912" lon="-4.64157">
        <ele>103.170135</ele>
        <time>2022-12-09T14:42:22.491Z</time>
      </trkpt>
      <trkpt lat="48.42914" lon="-4.64142">
        <ele>103.559053</ele>
        <time>2022-12-09T14:42:27.502Z</time>
      </trkpt>
      <trkpt lat="48.42917" lon="-4.64127">
        <ele>103.945198</ele>
        <time>2022-12-09T14:42:32.481Z</time>
      </trkpt>
      <trkpt lat="48.4292" lon="-4.64112">
        <ele>104.330349</ele>
        <time>2022-12-09T14:42:37.489Z</time>
      </trkpt>
      <trkpt lat="48.42924" lon="-4.64097">
        <ele>104.698201</ele>
        <time>2022-12-09T14:42:42.506Z</time>
      </trkpt>
      <trkpt lat="48.42927" lon="-4.64082">
        <ele>105.089359</ele>
        <time>2022-12-09T14:42:47.500Z</time>
      </trkpt>
      <trkpt lat="48.42929" lon="-4.64068">
        <ele>105.448989</ele>
        <time>2022-12-09T14:42:52.493Z</time>
      </trkpt>
      <trkpt lat="48.42934" lon="-4.64054">
        <ele>105.831434</ele>
        <time>2022-12-09T14:42:57.504Z</time>
      </trkpt>
      <trkpt lat="48.42939" lon="-4.6404">
        <ele>106.212834</ele>
        <time>2022-12-09T14:43:02.494Z</time>
      </trkpt>
      <trkpt lat="48.42944" lon="-4.64026">
        <ele>106.61627</ele>
        <time>2022-12-09T14:43:07.499Z</time>
      </trkpt>
      <trkpt lat="48.4295" lon="-4.64012">
        <ele>107.021457</ele>
        <time>2022-12-09T14:43:12.499Z</time>
      </trkpt>
      <trkpt lat="48.42956" lon="-4.63998">
        <ele>107.42533</ele>
        <time>2022-12-09T14:43:17.504Z</time>
      </trkpt>
      <trkpt lat="48.42963" lon="-4.63986">
        <ele>107.827417</ele>
        <time>2022-12-09T14:43:22.488Z</time>
      </trkpt>
      <trkpt lat="48.42969" lon="-4.63972">
        <ele>108.036511</ele>
        <time>2022-12-09T14:43:27.494Z</time>
      </trkpt>
      <trkpt lat="48.42975" lon="-4.63959">
        <ele>108.206571</ele>
        <time>2022-12-09T14:43:32.508Z</time>
      </trkpt>
      <trkpt lat="48.42981" lon="-4.63945">
        <ele>108.385601</ele>
        <time>2022-12-09T14:43:37.502Z</time>
      </trkpt>
      <trkpt lat="48.42987" lon="-4.63934">
        <ele>108.541081</ele>
        <time>2022-12-09T14:43:41.504Z</time>
      </trkpt>
      <trkpt lat="48.42993" lon="-4.63922">
        <ele>108.700916</ele>
        <time>2022-12-09T14:43:45.504Z</time>
      </trkpt>
      <trkpt lat="48.43001" lon="-4.63911">
        <ele>108.867226</ele>
        <time>2022-12-09T14:43:49.505Z</time>
      </trkpt>
      <trkpt lat="48.43007" lon="-4.639">
        <ele>109.028357</ele>
        <time>2022-12-09T14:43:53.499Z</time>
      </trkpt>
      <trkpt lat="48.43014" lon="-4.6389">
        <ele>109.181774</ele>
        <time>2022-12-09T14:43:57.502Z</time>
      </trkpt>
      <trkpt lat="48.43022" lon="-4.6388">
        <ele>109.343743</ele>
        <time>2022-12-09T14:44:01.504Z</time>
      </trkpt>
      <trkpt lat="48.43029" lon="-4.63869">
        <ele>109.506246</ele>
        <time>2022-12-09T14:44:05.515Z</time>
      </trkpt>
      <trkpt lat="48.43036" lon="-4.63859">
        <ele>109.664559</ele>
        <time>2022-12-09T14:44:09.507Z</time>
      </trkpt>
      <trkpt lat="48.43043" lon="-4.63849">
        <ele>109.821794</ele>
        <time>2022-12-09T14:44:13.503Z</time>
      </trkpt>
      <trkpt lat="48.4305" lon="-4.63839">
        <ele>109.973056</ele>
        <time>2022-12-09T14:44:17.507Z</time>
      </trkpt>
      <trkpt lat="48.43056" lon="-4.63825">
        <ele>110.153192</ele>
        <time>2022-12-09T14:44:22.508Z</time>
      </trkpt>
      <trkpt lat="48.43063" lon="-4.63811">
        <ele>110.340396</ele>
        <time>2022-12-09T14:44:26.505Z</time>
      </trkpt>
      <trkpt lat="48.4307" lon="-4.63798">
        <ele>110.518621</ele>
        <time>2022-12-09T14:44:30.487Z</time>
      </trkpt>
      <trkpt lat="48.43076" lon="-4.63783">
        <ele>110.702032</ele>
        <time>2022-12-09T14:44:34.499Z</time>
      </trkpt>
      <trkpt lat="48.43081" lon="-4.63768">
        <ele>110.720694</ele>
        <time>2022-12-09T14:44:38.498Z</time>
      </trkpt>
      <trkpt lat="48.43085" lon="-4.63756">
        <ele>110.605358</ele>
        <time>2022-12-09T14:44:41.502Z</time>
      </trkpt>
      <trkpt lat="48.4309" lon="-4.63742">
        <ele>110.476677</ele>
        <time>2022-12-09T14:44:44.504Z</time>
      </trkpt>
      <trkpt lat="48.43096" lon="-4.63726">
        <ele>110.32623</ele>
        <time>2022-12-09T14:44:47.501Z</time>
      </trkpt>
      <trkpt lat="48.43102" lon="-4.63709">
        <ele>110.171681</ele>
        <time>2022-12-09T14:44:50.522Z</time>
      </trkpt>
      <trkpt lat="48.43108" lon="-4.63696">
        <ele>110.031267</ele>
        <time>2022-12-09T14:44:53.505Z</time>
      </trkpt>
      <trkpt lat="48.43114" lon="-4.63683">
        <ele>109.906322</ele>
        <time>2022-12-09T14:44:56.507Z</time>
      </trkpt>
      <trkpt lat="48.43119" lon="-4.63671">
        <ele>109.784695</ele>
        <time>2022-12-09T14:44:59.503Z</time>
      </trkpt>
      <trkpt lat="48.43124" lon="-4.63658">
        <ele>109.660114</ele>
        <time>2022-12-09T14:45:02.508Z</time>
      </trkpt>
      <trkpt lat="48.43128" lon="-4.63644">
        <ele>109.536011</ele>
        <time>2022-12-09T14:45:05.506Z</time>
      </trkpt>
      <trkpt lat="48.43132" lon="-4.6363">
        <ele>109.40588</ele>
        <time>2022-12-09T14:45:08.500Z</time>
      </trkpt>
      <trkpt lat="48.43135" lon="-4.63613">
        <ele>109.265408</ele>
        <time>2022-12-09T14:45:11.509Z</time>
      </trkpt>
      <trkpt lat="48.43137" lon="-4.63597">
        <ele>109.124922</ele>
        <time>2022-12-09T14:45:14.503Z</time>
      </trkpt>
      <trkpt lat="48.43138" lon="-4.63578">
        <ele>108.970753</ele>
        <time>2022-12-09T14:45:17.484Z</time>
      </trkpt>
      <trkpt lat="48.43139" lon="-4.63561">
        <ele>108.829968</ele>
        <time>2022-12-09T14:45:20.504Z</time>
      </trkpt>
      <trkpt lat="48.43143" lon="-4.63545">
        <ele>108.685681</ele>
        <time>2022-12-09T14:45:23.504Z</time>
      </trkpt>
      <trkpt lat="48.43146" lon="-4.63529">
        <ele>108.5534</ele>
        <time>2022-12-09T14:45:26.501Z</time>
      </trkpt>
      <trkpt lat="48.43148" lon="-4.63516">
        <ele>108.975077</ele>
        <time>2022-12-09T14:45:29.493Z</time>
      </trkpt>
      <trkpt lat="48.43151" lon="-4.63502">
        <ele>109.459105</ele>
        <time>2022-12-09T14:45:33.486Z</time>
      </trkpt>
      <trkpt lat="48.43154" lon="-4.63487">
        <ele>109.999893</ele>
        <time>2022-12-09T14:45:38.504Z</time>
      </trkpt>
      <trkpt lat="48.43157" lon="-4.63472">
        <ele>110.512151</ele>
        <time>2022-12-09T14:45:42.506Z</time>
      </trkpt>
      <trkpt lat="48.4316" lon="-4.63459">
        <ele>110.976855</ele>
        <time>2022-12-09T14:45:46.503Z</time>
      </trkpt>
      <trkpt lat="48.43163" lon="-4.63444">
        <ele>111.49063</ele>
        <time>2022-12-09T14:45:51.506Z</time>
      </trkpt>
      <trkpt lat="48.43165" lon="-4.6343">
        <ele>111.972849</ele>
        <time>2022-12-09T14:45:55.502Z</time>
      </trkpt>
      <trkpt lat="48.43166" lon="-4.63416">
        <ele>112.449962</ele>
        <time>2022-12-09T14:45:59.520Z</time>
      </trkpt>
      <trkpt lat="48.43169" lon="-4.63401">
        <ele>112.974104</ele>
        <time>2022-12-09T14:46:04.503Z</time>
      </trkpt>
      <trkpt lat="48.4317" lon="-4.63385">
        <ele>113.505032</ele>
        <time>2022-12-09T14:46:09.500Z</time>
      </trkpt>
      <trkpt lat="48.43171" lon="-4.6337">
        <ele>114.01416</ele>
        <time>2022-12-09T14:46:14.501Z</time>
      </trkpt>
      <trkpt lat="48.43172" lon="-4.63356">
        <ele>114.492756</ele>
        <time>2022-12-09T14:46:19.504Z</time>
      </trkpt>
      <trkpt lat="48.43173" lon="-4.63342">
        <ele>114.965254</ele>
        <time>2022-12-09T14:46:24.505Z</time>
      </trkpt>
      <trkpt lat="48.43176" lon="-4.63328">
        <ele>115.466124</ele>
        <time>2022-12-09T14:46:29.504Z</time>
      </trkpt>
      <trkpt lat="48.43177" lon="-4.63313">
        <ele>115.950654</ele>
        <time>2022-12-09T14:46:34.494Z</time>
      </trkpt>
      <trkpt lat="48.43179" lon="-4.63299">
        <ele>116.44046</ele>
        <time>2022-12-09T14:46:39.487Z</time>
      </trkpt>
      <trkpt lat="48.43181" lon="-4.63285">
        <ele>116.900978</ele>
        <time>2022-12-09T14:46:44.502Z</time>
      </trkpt>
      <trkpt lat="48.43183" lon="-4.63269">
        <ele>117.45959</ele>
        <time>2022-12-09T14:46:50.502Z</time>
      </trkpt>
      <trkpt lat="48.43185" lon="-4.63254">
        <ele>117.770421</ele>
        <time>2022-12-09T14:46:55.510Z</time>
      </trkpt>
      <trkpt lat="48.43187" lon="-4.6324">
        <ele>117.966864</ele>
        <time>2022-12-09T14:47:00.500Z</time>
      </trkpt>
      <trkpt lat="48.43189" lon="-4.63225">
        <ele>118.186423</ele>
        <time>2022-12-09T14:47:05.508Z</time>
      </trkpt>
      <trkpt lat="48.43192" lon="-4.63211">
        <ele>118.387046</ele>
        <time>2022-12-09T14:47:10.502Z</time>
      </trkpt>
      <trkpt lat="48.43198" lon="-4.63199">
        <ele>118.606537</ele>
        <time>2022-12-09T14:47:16.487Z</time>
      </trkpt>
      <trkpt lat="48.43195" lon="-4.63184">
        <ele>118.815498</ele>
        <time>2022-12-09T14:47:22.487Z</time>
      </trkpt>
      <trkpt lat="48.43188" lon="-4.63174">
        <ele>119.019074</ele>
        <time>2022-12-09T14:47:27.502Z</time>
      </trkpt>
      <trkpt lat="48.43192" lon="-4.6316">
        <ele>119.225424</ele>
        <time>2022-12-09T14:47:32.507Z</time>
      </trkpt>
      <trkpt lat="48.432" lon="-4.6315">
        <ele>119.447969</ele>
        <time>2022-12-09T14:47:37.506Z</time>
      </trkpt>
      <trkpt lat="48.43207" lon="-4.6314">
        <ele>119.641253</ele>
        <time>2022-12-09T14:47:51.486Z</time>
      </trkpt>
      <trkpt lat="48.43214" lon="-4.63128">
        <ele>119.862861</ele>
        <time>2022-12-09T14:47:56.491Z</time>
      </trkpt>
      <trkpt lat="48.4322" lon="-4.63113">
        <ele>120.103966</ele>
        <time>2022-12-09T14:48:00.484Z</time>
      </trkpt>
      <trkpt lat="48.43225" lon="-4.63102">
        <ele>120.294308</ele>
        <time>2022-12-09T14:48:03.504Z</time>
      </trkpt>
      <trkpt lat="48.43229" lon="-4.6309">
        <ele>120.482443</ele>
        <time>2022-12-09T14:48:06.505Z</time>
      </trkpt>
      <trkpt lat="48.43236" lon="-4.63075">
        <ele>120.727061</ele>
        <time>2022-12-09T14:48:09.495Z</time>
      </trkpt>
      <trkpt lat="48.43242" lon="-4.6306">
        <ele>120.980868</ele>
        <time>2022-12-09T14:48:12.490Z</time>
      </trkpt>
      <trkpt lat="48.43249" lon="-4.63043">
        <ele>121.247453</ele>
        <time>2022-12-09T14:48:15.497Z</time>
      </trkpt>
      <trkpt lat="48.43254" lon="-4.63027">
        <ele>121.20963</ele>
        <time>2022-12-09T14:48:18.517Z</time>
      </trkpt>
      <trkpt lat="48.4326" lon="-4.63012">
        <ele>120.823793</ele>
        <time>2022-12-09T14:48:21.506Z</time>
      </trkpt>
      <trkpt lat="48.43266" lon="-4.62996">
        <ele>120.433053</ele>
        <time>2022-12-09T14:48:24.505Z</time>
      </trkpt>
      <trkpt lat="48.43272" lon="-4.6298">
        <ele>120.033725</ele>
        <time>2022-12-09T14:48:27.506Z</time>
      </trkpt>
      <trkpt lat="48.43277" lon="-4.62962">
        <ele>119.615138</ele>
        <time>2022-12-09T14:48:30.504Z</time>
      </trkpt>
      <trkpt lat="48.43281" lon="-4.62943">
        <ele>119.186882</ele>
        <time>2022-12-09T14:48:33.483Z</time>
      </trkpt>
      <trkpt lat="48.43282" lon="-4.62929">
        <ele>118.886789</ele>
        <time>2022-12-09T14:48:35.485Z</time>
      </trkpt>
      <trkpt lat="48.43282" lon="-4.62908">
        <ele>118.448338</ele>
        <time>2022-12-09T14:48:38.489Z</time>
      </trkpt>
      <trkpt lat="48.43282" lon="-4.62894">
        <ele>118.147445</ele>
        <time>2022-12-09T14:48:40.503Z</time>
      </trkpt>
      <trkpt lat="48.4328" lon="-4.6288">
        <ele>117.839433</ele>
        <time>2022-12-09T14:48:42.506Z</time>
      </trkpt>
      <trkpt lat="48.43279" lon="-4.62866">
        <ele>117.526683</ele>
        <time>2022-12-09T14:48:44.498Z</time>
      </trkpt>
      <trkpt lat="48.43275" lon="-4.62854">
        <ele>117.235697</ele>
        <time>2022-12-09T14:48:46.495Z</time>
      </trkpt>
      <trkpt lat="48.43271" lon="-4.6284">
        <ele>116.922523</ele>
        <time>2022-12-09T14:48:48.509Z</time>
      </trkpt>
      <trkpt lat="48.43267" lon="-4.62828">
        <ele>116.626262</ele>
        <time>2022-12-09T14:48:50.488Z</time>
      </trkpt>
      <trkpt lat="48.43263" lon="-4.62815">
        <ele>116.324185</ele>
        <time>2022-12-09T14:48:52.501Z</time>
      </trkpt>
      <trkpt lat="48.43257" lon="-4.62797">
        <ele>115.898075</ele>
        <time>2022-12-09T14:48:55.502Z</time>
      </trkpt>
      <trkpt lat="48.43254" lon="-4.62784">
        <ele>115.590168</ele>
        <time>2022-12-09T14:48:57.496Z</time>
      </trkpt>
      <trkpt lat="48.43249" lon="-4.6277">
        <ele>115.341476</ele>
        <time>2022-12-09T14:48:59.487Z</time>
      </trkpt>
      <trkpt lat="48.43245" lon="-4.62757">
        <ele>115.110669</ele>
        <time>2022-12-09T14:49:01.504Z</time>
      </trkpt>
      <trkpt lat="48.4324" lon="-4.62744">
        <ele>114.874415</ele>
        <time>2022-12-09T14:49:03.505Z</time>
      </trkpt>
      <trkpt lat="48.43236" lon="-4.62732">
        <ele>114.651048</ele>
        <time>2022-12-09T14:49:05.504Z</time>
      </trkpt>
      <trkpt lat="48.43232" lon="-4.62718">
        <ele>114.415946</ele>
        <time>2022-12-09T14:49:07.503Z</time>
      </trkpt>
      <trkpt lat="48.43228" lon="-4.62705">
        <ele>114.177991</ele>
        <time>2022-12-09T14:49:09.493Z</time>
      </trkpt>
      <trkpt lat="48.43223" lon="-4.6269">
        <ele>113.929369</ele>
        <time>2022-12-09T14:49:11.497Z</time>
      </trkpt>
      <trkpt lat="48.43219" lon="-4.62676">
        <ele>113.68707</ele>
        <time>2022-12-09T14:49:13.507Z</time>
      </trkpt>
      <trkpt lat="48.43215" lon="-4.62663">
        <ele>113.452031</ele>
        <time>2022-12-09T14:49:15.507Z</time>
      </trkpt>
      <trkpt lat="48.4321" lon="-4.62649">
        <ele>113.206524</ele>
        <time>2022-12-09T14:49:17.503Z</time>
      </trkpt>
      <trkpt lat="48.43206" lon="-4.62637">
        <ele>112.983503</ele>
        <time>2022-12-09T14:49:19.514Z</time>
      </trkpt>
      <trkpt lat="48.43201" lon="-4.62618">
        <ele>112.662874</ele>
        <time>2022-12-09T14:49:22.505Z</time>
      </trkpt>
      <trkpt lat="48.43197" lon="-4.62605">
        <ele>112.439721</ele>
        <time>2022-12-09T14:49:24.507Z</time>
      </trkpt>
      <trkpt lat="48.43192" lon="-4.62588">
        <ele>112.135394</ele>
        <time>2022-12-09T14:49:27.494Z</time>
      </trkpt>
      <trkpt lat="48.43187" lon="-4.62569">
        <ele>111.824297</ele>
        <time>2022-12-09T14:49:30.503Z</time>
      </trkpt>
      <trkpt lat="48.43184" lon="-4.62551">
        <ele>111.516249</ele>
        <time>2022-12-09T14:49:33.504Z</time>
      </trkpt>
      <trkpt lat="48.4318" lon="-4.62531">
        <ele>111.181042</ele>
        <time>2022-12-09T14:49:36.511Z</time>
      </trkpt>
      <trkpt lat="48.43177" lon="-4.62517">
        <ele>110.878309</ele>
        <time>2022-12-09T14:49:38.516Z</time>
      </trkpt>
      <trkpt lat="48.43174" lon="-4.62502">
        <ele>110.568184</ele>
        <time>2022-12-09T14:49:40.503Z</time>
      </trkpt>
      <trkpt lat="48.43171" lon="-4.62488">
        <ele>110.267676</ele>
        <time>2022-12-09T14:49:42.514Z</time>
      </trkpt>
      <trkpt lat="48.43168" lon="-4.62475">
        <ele>109.976754</ele>
        <time>2022-12-09T14:49:44.504Z</time>
      </trkpt>
      <trkpt lat="48.43165" lon="-4.62462">
        <ele>109.69244</ele>
        <time>2022-12-09T14:49:46.502Z</time>
      </trkpt>
      <trkpt lat="48.43162" lon="-4.62448">
        <ele>109.41438</ele>
        <time>2022-12-09T14:49:48.488Z</time>
      </trkpt>
      <trkpt lat="48.4316" lon="-4.62434">
        <ele>109.119115</ele>
        <time>2022-12-09T14:49:50.507Z</time>
      </trkpt>
      <trkpt lat="48.43156" lon="-4.62416">
        <ele>108.743525</ele>
        <time>2022-12-09T14:49:53.502Z</time>
      </trkpt>
      <trkpt lat="48.43152" lon="-4.62399">
        <ele>108.372737</ele>
        <time>2022-12-09T14:49:56.493Z</time>
      </trkpt>
      <trkpt lat="48.43149" lon="-4.62384">
        <ele>108.047158</ele>
        <time>2022-12-09T14:49:59.498Z</time>
      </trkpt>
      <trkpt lat="48.43145" lon="-4.62369">
        <ele>107.735839</ele>
        <time>2022-12-09T14:50:03.502Z</time>
      </trkpt>
      <trkpt lat="48.43143" lon="-4.62354">
        <ele>107.413806</ele>
        <time>2022-12-09T14:50:19.494Z</time>
      </trkpt>
      <trkpt lat="48.43139" lon="-4.62335">
        <ele>107.017239</ele>
        <time>2022-12-09T14:50:23.510Z</time>
      </trkpt>
      <trkpt lat="48.43136" lon="-4.62316">
        <ele>106.624972</ele>
        <time>2022-12-09T14:50:26.490Z</time>
      </trkpt>
      <trkpt lat="48.43132" lon="-4.62304">
        <ele>106.343712</ele>
        <time>2022-12-09T14:50:28.490Z</time>
      </trkpt>
      <trkpt lat="48.43128" lon="-4.62284">
        <ele>105.929874</ele>
        <time>2022-12-09T14:50:31.497Z</time>
      </trkpt>
      <trkpt lat="48.43126" lon="-4.62271">
        <ele>105.646045</ele>
        <time>2022-12-09T14:50:33.503Z</time>
      </trkpt>
      <trkpt lat="48.43122" lon="-4.62258">
        <ele>105.352366</ele>
        <time>2022-12-09T14:50:35.492Z</time>
      </trkpt>
      <trkpt lat="48.43117" lon="-4.62241">
        <ele>104.98177</ele>
        <time>2022-12-09T14:50:38.490Z</time>
      </trkpt>
      <trkpt lat="48.43115" lon="-4.62227">
        <ele>104.674283</ele>
        <time>2022-12-09T14:50:41.494Z</time>
      </trkpt>
      <trkpt lat="48.43112" lon="-4.62211">
        <ele>104.335623</ele>
        <time>2022-12-09T14:50:44.493Z</time>
      </trkpt>
      <trkpt lat="48.4311" lon="-4.62197">
        <ele>104.043528</ele>
        <time>2022-12-09T14:50:47.494Z</time>
      </trkpt>
      <trkpt lat="48.43105" lon="-4.62182">
        <ele>103.700991</ele>
        <time>2022-12-09T14:50:54.489Z</time>
      </trkpt>
      <trkpt lat="48.43102" lon="-4.62169">
        <ele>103.419061</ele>
        <time>2022-12-09T14:50:57.490Z</time>
      </trkpt>
      <trkpt lat="48.43098" lon="-4.62153">
        <ele>103.064686</ele>
        <time>2022-12-09T14:51:00.489Z</time>
      </trkpt>
      <trkpt lat="48.43095" lon="-4.62135">
        <ele>102.677065</ele>
        <time>2022-12-09T14:51:03.492Z</time>
      </trkpt>
      <trkpt lat="48.43091" lon="-4.62117">
        <ele>102.287503</ele>
        <time>2022-12-09T14:51:06.485Z</time>
      </trkpt>
      <trkpt lat="48.43088" lon="-4.62098">
        <ele>101.88209</ele>
        <time>2022-12-09T14:51:09.509Z</time>
      </trkpt>
      <trkpt lat="48.43086" lon="-4.62084">
        <ele>101.590367</ele>
        <time>2022-12-09T14:51:11.506Z</time>
      </trkpt>
      <trkpt lat="48.43079" lon="-4.62066">
        <ele>101.165885</ele>
        <time>2022-12-09T14:51:14.490Z</time>
      </trkpt>
      <trkpt lat="48.43071" lon="-4.62051">
        <ele>100.759475</ele>
        <time>2022-12-09T14:51:17.486Z</time>
      </trkpt>
      <trkpt lat="48.43062" lon="-4.62039">
        <ele>100.391085</ele>
        <time>2022-12-09T14:51:20.502Z</time>
      </trkpt>
      <trkpt lat="48.43054" lon="-4.62026">
        <ele>100.110534</ele>
        <time>2022-12-09T14:51:23.508Z</time>
      </trkpt>
      <trkpt lat="48.43045" lon="-4.62013">
        <ele>99.950551</ele>
        <time>2022-12-09T14:51:26.510Z</time>
      </trkpt>
      <trkpt lat="48.43039" lon="-4.61999">
        <ele>99.804878</ele>
        <time>2022-12-09T14:51:29.505Z</time>
      </trkpt>
      <trkpt lat="48.43033" lon="-4.61987">
        <ele>99.676675</ele>
        <time>2022-12-09T14:51:32.511Z</time>
      </trkpt>
      <trkpt lat="48.43026" lon="-4.61976">
        <ele>99.544131</ele>
        <time>2022-12-09T14:51:35.504Z</time>
      </trkpt>
      <trkpt lat="48.43018" lon="-4.61963">
        <ele>99.392982</ele>
        <time>2022-12-09T14:51:38.505Z</time>
      </trkpt>
      <trkpt lat="48.43009" lon="-4.6195">
        <ele>99.228626</ele>
        <time>2022-12-09T14:51:41.505Z</time>
      </trkpt>
      <trkpt lat="48.43" lon="-4.61938">
        <ele>99.072258</ele>
        <time>2022-12-09T14:51:44.499Z</time>
      </trkpt>
      <trkpt lat="48.42991" lon="-4.61928">
        <ele>98.926742</ele>
        <time>2022-12-09T14:51:47.500Z</time>
      </trkpt>
      <trkpt lat="48.42981" lon="-4.6192">
        <ele>98.778528</ele>
        <time>2022-12-09T14:51:50.499Z</time>
      </trkpt>
      <trkpt lat="48.4297" lon="-4.61913">
        <ele>98.623653</ele>
        <time>2022-12-09T14:51:53.487Z</time>
      </trkpt>
      <trkpt lat="48.42958" lon="-4.61909">
        <ele>98.46156</ele>
        <time>2022-12-09T14:51:56.485Z</time>
      </trkpt>
      <trkpt lat="48.42946" lon="-4.61905">
        <ele>98.300828</ele>
        <time>2022-12-09T14:51:59.507Z</time>
      </trkpt>
      <trkpt lat="48.42934" lon="-4.61902">
        <ele>98.142379</ele>
        <time>2022-12-09T14:52:02.509Z</time>
      </trkpt>
      <trkpt lat="48.42923" lon="-4.61898">
        <ele>97.991162</ele>
        <time>2022-12-09T14:52:05.508Z</time>
      </trkpt>
      <trkpt lat="48.42912" lon="-4.61894">
        <ele>97.843811</ele>
        <time>2022-12-09T14:52:08.505Z</time>
      </trkpt>
      <trkpt lat="48.42902" lon="-4.61886">
        <ele>97.38899</ele>
        <time>2022-12-09T14:52:11.489Z</time>
      </trkpt>
      <trkpt lat="48.42892" lon="-4.61877">
        <ele>96.88191</ele>
        <time>2022-12-09T14:52:14.504Z</time>
      </trkpt>
      <trkpt lat="48.42881" lon="-4.61867">
        <ele>96.309365</ele>
        <time>2022-12-09T14:52:17.510Z</time>
      </trkpt>
      <trkpt lat="48.42874" lon="-4.61858">
        <ele>95.906093</ele>
        <time>2022-12-09T14:52:19.509Z</time>
      </trkpt>
      <trkpt lat="48.42865" lon="-4.61844">
        <ele>95.360264</ele>
        <time>2022-12-09T14:52:22.495Z</time>
      </trkpt>
      <trkpt lat="48.42856" lon="-4.61829">
        <ele>94.763927</ele>
        <time>2022-12-09T14:52:25.503Z</time>
      </trkpt>
      <trkpt lat="48.42849" lon="-4.61819">
        <ele>94.356066</ele>
        <time>2022-12-09T14:52:27.513Z</time>
      </trkpt>
      <trkpt lat="48.42842" lon="-4.61809">
        <ele>93.957412</ele>
        <time>2022-12-09T14:52:29.504Z</time>
      </trkpt>
      <trkpt lat="48.42836" lon="-4.61799">
        <ele>93.564257</ele>
        <time>2022-12-09T14:52:31.507Z</time>
      </trkpt>
      <trkpt lat="48.42829" lon="-4.61789">
        <ele>93.130753</ele>
        <time>2022-12-09T14:52:33.499Z</time>
      </trkpt>
      <trkpt lat="48.42822" lon="-4.61777">
        <ele>92.681896</ele>
        <time>2022-12-09T14:52:35.483Z</time>
      </trkpt>
      <trkpt lat="48.42815" lon="-4.61767">
        <ele>92.255665</ele>
        <time>2022-12-09T14:52:37.506Z</time>
      </trkpt>
      <trkpt lat="48.42808" lon="-4.61757">
        <ele>91.826855</ele>
        <time>2022-12-09T14:52:39.506Z</time>
      </trkpt>
      <trkpt lat="48.42802" lon="-4.61747">
        <ele>91.430802</ele>
        <time>2022-12-09T14:52:41.509Z</time>
      </trkpt>
      <trkpt lat="48.42795" lon="-4.61736">
        <ele>90.998408</ele>
        <time>2022-12-09T14:52:43.506Z</time>
      </trkpt>
      <trkpt lat="48.42788" lon="-4.61725">
        <ele>90.565607</ele>
        <time>2022-12-09T14:52:45.504Z</time>
      </trkpt>
      <trkpt lat="48.42781" lon="-4.61714">
        <ele>90.120554</ele>
        <time>2022-12-09T14:52:47.511Z</time>
      </trkpt>
      <trkpt lat="48.42774" lon="-4.61703">
        <ele>89.762038</ele>
        <time>2022-12-09T14:52:49.519Z</time>
      </trkpt>
      <trkpt lat="48.42767" lon="-4.61694">
        <ele>89.46167</ele>
        <time>2022-12-09T14:52:51.509Z</time>
      </trkpt>
      <trkpt lat="48.4276" lon="-4.61684">
        <ele>89.160751</ele>
        <time>2022-12-09T14:52:53.494Z</time>
      </trkpt>
      <trkpt lat="48.42752" lon="-4.61672">
        <ele>88.815356</ele>
        <time>2022-12-09T14:52:56.510Z</time>
      </trkpt>
      <trkpt lat="48.42745" lon="-4.61661">
        <ele>88.468448</ele>
        <time>2022-12-09T14:52:59.514Z</time>
      </trkpt>
      <trkpt lat="48.42735" lon="-4.61646">
        <ele>88.02778</ele>
        <time>2022-12-09T14:53:02.510Z</time>
      </trkpt>
      <trkpt lat="48.42728" lon="-4.61634">
        <ele>87.690233</ele>
        <time>2022-12-09T14:53:04.509Z</time>
      </trkpt>
      <trkpt lat="48.42721" lon="-4.61623">
        <ele>87.341826</ele>
        <time>2022-12-09T14:53:06.505Z</time>
      </trkpt>
      <trkpt lat="48.42712" lon="-4.61612">
        <ele>86.986598</ele>
        <time>2022-12-09T14:53:08.496Z</time>
      </trkpt>
      <trkpt lat="48.42703" lon="-4.61602">
        <ele>86.629814</ele>
        <time>2022-12-09T14:53:10.489Z</time>
      </trkpt>
      <trkpt lat="48.42694" lon="-4.6159">
        <ele>86.255796</ele>
        <time>2022-12-09T14:53:12.503Z</time>
      </trkpt>
      <trkpt lat="48.42686" lon="-4.61579">
        <ele>85.903405</ele>
        <time>2022-12-09T14:53:14.502Z</time>
      </trkpt>
      <trkpt lat="48.42679" lon="-4.61567">
        <ele>85.55271</ele>
        <time>2022-12-09T14:53:16.506Z</time>
      </trkpt>
      <trkpt lat="48.42672" lon="-4.61558">
        <ele>85.24687</ele>
        <time>2022-12-09T14:53:18.504Z</time>
      </trkpt>
      <trkpt lat="48.42662" lon="-4.61547">
        <ele>84.85799</ele>
        <time>2022-12-09T14:53:21.502Z</time>
      </trkpt>
      <trkpt lat="48.42653" lon="-4.6154">
        <ele>84.524822</ele>
        <time>2022-12-09T14:53:24.491Z</time>
      </trkpt>
      <trkpt lat="48.42645" lon="-4.61529">
        <ele>84.232355</ele>
        <time>2022-12-09T14:53:27.490Z</time>
      </trkpt>
      <trkpt lat="48.42639" lon="-4.61514">
        <ele>84.28575</ele>
        <time>2022-12-09T14:53:30.493Z</time>
      </trkpt>
      <trkpt lat="48.42631" lon="-4.61498">
        <ele>84.341898</ele>
        <time>2022-12-09T14:53:33.489Z</time>
      </trkpt>
      <trkpt lat="48.42624" lon="-4.61484">
        <ele>84.393849</ele>
        <time>2022-12-09T14:53:36.508Z</time>
      </trkpt>
      <trkpt lat="48.42618" lon="-4.6147">
        <ele>84.444061</ele>
        <time>2022-12-09T14:53:39.507Z</time>
      </trkpt>
      <trkpt lat="48.42613" lon="-4.61454">
        <ele>84.495351</ele>
        <time>2022-12-09T14:53:42.508Z</time>
      </trkpt>
      <trkpt lat="48.42609" lon="-4.6144">
        <ele>84.541898</ele>
        <time>2022-12-09T14:53:45.508Z</time>
      </trkpt>
      <trkpt lat="48.42602" lon="-4.61431">
        <ele>84.584098</ele>
        <time>2022-12-09T14:53:48.494Z</time>
      </trkpt>
      <trkpt lat="48.42592" lon="-4.61424">
        <ele>84.628541</ele>
        <time>2022-12-09T14:53:51.485Z</time>
      </trkpt>
      <trkpt lat="48.42584" lon="-4.61419">
        <ele>84.668733</ele>
        <time>2022-12-09T14:53:54.491Z</time>
      </trkpt>
      <trkpt lat="48.42578" lon="-4.61407">
        <ele>84.715086</ele>
        <time>2022-12-09T14:53:59.504Z</time>
      </trkpt>
      <trkpt lat="48.42582" lon="-4.61395">
        <ele>84.755936</ele>
        <time>2022-12-09T14:54:05.489Z</time>
      </trkpt>
      <trkpt lat="48.42586" lon="-4.61379">
        <ele>84.803902</ele>
        <time>2022-12-09T14:54:09.495Z</time>
      </trkpt>
      <trkpt lat="48.42587" lon="-4.61364">
        <ele>84.84985</ele>
        <time>2022-12-09T14:54:12.489Z</time>
      </trkpt>
      <trkpt lat="48.42587" lon="-4.61349">
        <ele>84.893111</ele>
        <time>2022-12-09T14:54:15.496Z</time>
      </trkpt>
      <trkpt lat="48.42588" lon="-4.61334">
        <ele>84.937488</ele>
        <time>2022-12-09T14:54:18.504Z</time>
      </trkpt>
      <trkpt lat="48.42589" lon="-4.61321">
        <ele>84.978189</ele>
        <time>2022-12-09T14:54:21.494Z</time>
      </trkpt>
      <trkpt lat="48.42591" lon="-4.61303">
        <ele>85.025479</ele>
        <time>2022-12-09T14:54:25.498Z</time>
      </trkpt>
      <trkpt lat="48.42592" lon="-4.61286">
        <ele>84.993153</ele>
        <time>2022-12-09T14:54:29.490Z</time>
      </trkpt>
      <trkpt lat="48.42593" lon="-4.61269">
        <ele>84.962485</ele>
        <time>2022-12-09T14:54:33.491Z</time>
      </trkpt>
      <trkpt lat="48.42593" lon="-4.61253">
        <ele>84.931459</ele>
        <time>2022-12-09T14:54:37.495Z</time>
      </trkpt>
      <trkpt lat="48.42594" lon="-4.61236">
        <ele>84.89961</ele>
        <time>2022-12-09T14:54:41.488Z</time>
      </trkpt>
      <trkpt lat="48.42594" lon="-4.61218">
        <ele>84.866889</ele>
        <time>2022-12-09T14:54:45.503Z</time>
      </trkpt>
      <trkpt lat="48.42595" lon="-4.61202">
        <ele>84.836747</ele>
        <time>2022-12-09T14:54:49.504Z</time>
      </trkpt>
      <trkpt lat="48.42596" lon="-4.61187">
        <ele>84.808476</ele>
        <time>2022-12-09T14:54:53.504Z</time>
      </trkpt>
      <trkpt lat="48.42597" lon="-4.6117">
        <ele>84.777809</ele>
        <time>2022-12-09T14:54:57.496Z</time>
      </trkpt>
      <trkpt lat="48.42598" lon="-4.61154">
        <ele>84.747313</ele>
        <time>2022-12-09T14:55:02.503Z</time>
      </trkpt>
      <trkpt lat="48.42599" lon="-4.61138">
        <ele>84.718583</ele>
        <time>2022-12-09T14:55:08.505Z</time>
      </trkpt>
      <trkpt lat="48.426" lon="-4.61122">
        <ele>84.687055</ele>
        <time>2022-12-09T14:55:14.491Z</time>
      </trkpt>
      <trkpt lat="48.42601" lon="-4.61104">
        <ele>84.654205</ele>
        <time>2022-12-09T14:55:18.509Z</time>
      </trkpt>
      <trkpt lat="48.42602" lon="-4.61087">
        <ele>84.621753</ele>
        <time>2022-12-09T14:55:22.496Z</time>
      </trkpt>
      <trkpt lat="48.42601" lon="-4.61072">
        <ele>84.594954</ele>
        <time>2022-12-09T14:55:25.490Z</time>
      </trkpt>
      <trkpt lat="48.42596" lon="-4.61059">
        <ele>84.567401</ele>
        <time>2022-12-09T14:55:29.498Z</time>
      </trkpt>
      <trkpt lat="48.42596" lon="-4.61043">
        <ele>84.537832</ele>
        <time>2022-12-09T14:55:34.503Z</time>
      </trkpt>
      <trkpt lat="48.426" lon="-4.61029">
        <ele>84.503558</ele>
        <time>2022-12-09T14:55:39.486Z</time>
      </trkpt>
      <trkpt lat="48.42601" lon="-4.61014">
        <ele>84.464092</ele>
        <time>2022-12-09T14:55:42.493Z</time>
      </trkpt>
      <trkpt lat="48.42599" lon="-4.60999">
        <ele>84.422582</ele>
        <time>2022-12-09T14:55:45.487Z</time>
      </trkpt>
      <trkpt lat="48.42597" lon="-4.60984">
        <ele>84.384337</ele>
        <time>2022-12-09T14:55:48.496Z</time>
      </trkpt>
      <trkpt lat="48.42595" lon="-4.60955">
        <ele>84.30731</ele>
        <time>2022-12-09T14:56:24.500Z</time>
      </trkpt>
      <trkpt lat="48.42594" lon="-4.60939">
        <ele>84.265054</ele>
        <time>2022-12-09T14:56:27.516Z</time>
      </trkpt>
      <trkpt lat="48.42594" lon="-4.60923">
        <ele>84.22438</ele>
        <time>2022-12-09T14:56:30.513Z</time>
      </trkpt>
      <trkpt lat="48.42594" lon="-4.60905">
        <ele>84.178484</ele>
        <time>2022-12-09T14:56:34.504Z</time>
      </trkpt>
      <trkpt lat="48.42595" lon="-4.60892">
        <ele>84.142737</ele>
        <time>2022-12-09T14:56:37.525Z</time>
      </trkpt>
      <trkpt lat="48.42595" lon="-4.60878">
        <ele>84.10725</ele>
        <time>2022-12-09T14:56:40.506Z</time>
      </trkpt>
      <trkpt lat="48.42597" lon="-4.60863">
        <ele>84.066639</ele>
        <time>2022-12-09T14:56:43.509Z</time>
      </trkpt>
      <trkpt lat="48.42597" lon="-4.60847">
        <ele>84.025457</ele>
        <time>2022-12-09T14:56:46.510Z</time>
      </trkpt>
      <trkpt lat="48.42597" lon="-4.60832">
        <ele>83.986359</ele>
        <time>2022-12-09T14:56:49.505Z</time>
      </trkpt>
      <trkpt lat="48.42597" lon="-4.60815">
        <ele>83.941745</ele>
        <time>2022-12-09T14:56:52.504Z</time>
      </trkpt>
      <trkpt lat="48.42597" lon="-4.60797">
        <ele>83.896044</ele>
        <time>2022-12-09T14:56:55.508Z</time>
      </trkpt>
      <trkpt lat="48.42596" lon="-4.6078">
        <ele>83.850129</ele>
        <time>2022-12-09T14:56:58.487Z</time>
      </trkpt>
      <trkpt lat="48.42596" lon="-4.60765">
        <ele>83.822696</ele>
        <time>2022-12-09T14:57:01.522Z</time>
      </trkpt>
      <trkpt lat="48.42593" lon="-4.6075">
        <ele>83.854711</ele>
        <time>2022-12-09T14:57:04.519Z</time>
      </trkpt>
      <trkpt lat="48.42586" lon="-4.6074">
        <ele>83.884067</ele>
        <time>2022-12-09T14:57:07.487Z</time>
      </trkpt>
      <trkpt lat="48.42576" lon="-4.60731">
        <ele>83.91809</ele>
        <time>2022-12-09T14:57:11.488Z</time>
      </trkpt>
      <trkpt lat="48.42567" lon="-4.60724">
        <ele>83.9501</ele>
        <time>2022-12-09T14:57:15.497Z</time>
      </trkpt>
      <trkpt lat="48.42556" lon="-4.60722">
        <ele>83.98141</ele>
        <time>2022-12-09T14:57:20.495Z</time>
      </trkpt>
      <trkpt lat="48.42547" lon="-4.60718">
        <ele>84.01206</ele>
        <time>2022-12-09T14:57:25.490Z</time>
      </trkpt>
      <trkpt lat="48.42537" lon="-4.6071">
        <ele>84.046964</ele>
        <time>2022-12-09T14:57:29.498Z</time>
      </trkpt>
      <trkpt lat="48.42532" lon="-4.60694">
        <ele>84.081067</ele>
        <time>2022-12-09T14:57:33.497Z</time>
      </trkpt>
      <trkpt lat="48.42526" lon="-4.60682">
        <ele>84.112795</ele>
        <time>2022-12-09T14:57:37.506Z</time>
      </trkpt>
      <trkpt lat="48.42523" lon="-4.60666">
        <ele>84.144776</ele>
        <time>2022-12-09T14:57:42.511Z</time>
      </trkpt>
      <trkpt lat="48.42524" lon="-4.60651">
        <ele>84.175119</ele>
        <time>2022-12-09T14:57:46.511Z</time>
      </trkpt>
      <trkpt lat="48.42525" lon="-4.60635">
        <ele>84.206617</ele>
        <time>2022-12-09T14:57:50.508Z</time>
      </trkpt>
      <trkpt lat="48.42527" lon="-4.60619">
        <ele>84.239818</ele>
        <time>2022-12-09T14:57:54.505Z</time>
      </trkpt>
      <trkpt lat="48.42531" lon="-4.60607">
        <ele>84.2672</ele>
        <time>2022-12-09T14:57:58.512Z</time>
      </trkpt>
      <trkpt lat="48.42537" lon="-4.60594">
        <ele>84.299198</ele>
        <time>2022-12-09T14:58:02.493Z</time>
      </trkpt>
      <trkpt lat="48.4255" lon="-4.6058">
        <ele>84.348616</ele>
        <time>2022-12-09T14:58:43.501Z</time>
      </trkpt>
      <trkpt lat="48.42558" lon="-4.60569">
        <ele>84.343294</ele>
        <time>2022-12-09T14:58:46.495Z</time>
      </trkpt>
      <trkpt lat="48.42565" lon="-4.60556">
        <ele>84.311822</ele>
        <time>2022-12-09T14:58:49.490Z</time>
      </trkpt>
      <trkpt lat="48.4257" lon="-4.6054">
        <ele>84.278584</ele>
        <time>2022-12-09T14:58:52.494Z</time>
      </trkpt>
      <trkpt lat="48.42574" lon="-4.60523">
        <ele>84.243231</ele>
        <time>2022-12-09T14:58:55.499Z</time>
      </trkpt>
      <trkpt lat="48.42578" lon="-4.60506">
        <ele>84.206679</ele>
        <time>2022-12-09T14:58:58.520Z</time>
      </trkpt>
      <trkpt lat="48.42584" lon="-4.60488">
        <ele>84.169485</ele>
        <time>2022-12-09T14:59:01.508Z</time>
      </trkpt>
      <trkpt lat="48.42589" lon="-4.6047">
        <ele>84.130626</ele>
        <time>2022-12-09T14:59:04.506Z</time>
      </trkpt>
      <trkpt lat="48.42593" lon="-4.60457">
        <ele>84.102881</ele>
        <time>2022-12-09T14:59:06.511Z</time>
      </trkpt>
      <trkpt lat="48.42596" lon="-4.60444">
        <ele>84.076244</ele>
        <time>2022-12-09T14:59:08.524Z</time>
      </trkpt>
      <trkpt lat="48.42601" lon="-4.60426">
        <ele>84.038034</ele>
        <time>2022-12-09T14:59:11.511Z</time>
      </trkpt>
      <trkpt lat="48.42607" lon="-4.60407">
        <ele>83.999242</ele>
        <time>2022-12-09T14:59:14.508Z</time>
      </trkpt>
      <trkpt lat="48.42612" lon="-4.6039">
        <ele>83.961398</ele>
        <time>2022-12-09T14:59:17.501Z</time>
      </trkpt>
      <trkpt lat="48.42616" lon="-4.60372">
        <ele>83.924631</ele>
        <time>2022-12-09T14:59:20.520Z</time>
      </trkpt>
      <trkpt lat="48.42623" lon="-4.6036">
        <ele>83.893874</ele>
        <time>2022-12-09T14:59:24.501Z</time>
      </trkpt>
      <trkpt lat="48.42631" lon="-4.60354">
        <ele>83.86713</ele>
        <time>2022-12-09T14:59:29.490Z</time>
      </trkpt>
      <trkpt lat="48.42638" lon="-4.60341">
        <ele>83.83586</ele>
        <time>2022-12-09T14:59:33.487Z</time>
      </trkpt>
      <trkpt lat="48.42643" lon="-4.60329">
        <ele>83.810434</ele>
        <time>2022-12-09T14:59:36.495Z</time>
      </trkpt>
      <trkpt lat="48.42643" lon="-4.60315">
        <ele>83.784126</ele>
        <time>2022-12-09T14:59:39.495Z</time>
      </trkpt>
      <trkpt lat="48.4264" lon="-4.60299">
        <ele>83.753402</ele>
        <time>2022-12-09T14:59:42.498Z</time>
      </trkpt>
      <trkpt lat="48.42637" lon="-4.60283">
        <ele>83.722911</ele>
        <time>2022-12-09T14:59:45.498Z</time>
      </trkpt>
      <trkpt lat="48.42635" lon="-4.60269">
        <ele>83.697096</ele>
        <time>2022-12-09T14:59:48.508Z</time>
      </trkpt>
      <trkpt lat="48.42632" lon="-4.60254">
        <ele>83.668705</ele>
        <time>2022-12-09T14:59:51.492Z</time>
      </trkpt>
      <trkpt lat="48.42629" lon="-4.60237">
        <ele>83.636877</ele>
        <time>2022-12-09T14:59:54.510Z</time>
      </trkpt>
      <trkpt lat="48.42627" lon="-4.60222">
        <ele>83.608032</ele>
        <time>2022-12-09T14:59:57.510Z</time>
      </trkpt>
      <trkpt lat="48.42624" lon="-4.60206">
        <ele>83.578689</ele>
        <time>2022-12-09T15:00:00.500Z</time>
      </trkpt>
      <trkpt lat="48.42621" lon="-4.60191">
        <ele>83.550134</ele>
        <time>2022-12-09T15:00:03.506Z</time>
      </trkpt>
      <trkpt lat="48.42617" lon="-4.60174">
        <ele>83.516633</ele>
        <time>2022-12-09T15:00:07.517Z</time>
      </trkpt>
      <trkpt lat="48.42615" lon="-4.60159">
        <ele>83.488499</ele>
        <time>2022-12-09T15:00:10.509Z</time>
      </trkpt>
      <trkpt lat="48.42612" lon="-4.60142">
        <ele>83.457976</ele>
        <time>2022-12-09T15:00:13.521Z</time>
      </trkpt>
      <trkpt lat="48.42609" lon="-4.60126">
        <ele>83.427331</ele>
        <time>2022-12-09T15:00:16.489Z</time>
      </trkpt>
      <trkpt lat="48.42605" lon="-4.6011">
        <ele>83.396156</ele>
        <time>2022-12-09T15:00:19.507Z</time>
      </trkpt>
      <trkpt lat="48.42602" lon="-4.60095">
        <ele>83.367241</ele>
        <time>2022-12-09T15:00:22.510Z</time>
      </trkpt>
      <trkpt lat="48.426" lon="-4.60082">
        <ele>83.341948</ele>
        <time>2022-12-09T15:00:25.516Z</time>
      </trkpt>
      <trkpt lat="48.42596" lon="-4.60066">
        <ele>83.336045</ele>
        <time>2022-12-09T15:00:29.506Z</time>
      </trkpt>
      <trkpt lat="48.42593" lon="-4.60052">
        <ele>83.330777</ele>
        <time>2022-12-09T15:00:32.519Z</time>
      </trkpt>
      <trkpt lat="48.4259" lon="-4.60037">
        <ele>83.325426</ele>
        <time>2022-12-09T15:00:35.511Z</time>
      </trkpt>
      <trkpt lat="48.42588" lon="-4.60024">
        <ele>83.320555</ele>
        <time>2022-12-09T15:00:38.507Z</time>
      </trkpt>
      <trkpt lat="48.42584" lon="-4.60007">
        <ele>83.314132</ele>
        <time>2022-12-09T15:00:42.495Z</time>
      </trkpt>
      <trkpt lat="48.42581" lon="-4.59993">
        <ele>83.309063</ele>
        <time>2022-12-09T15:00:45.512Z</time>
      </trkpt>
      <trkpt lat="48.42579" lon="-4.59979">
        <ele>83.304062</ele>
        <time>2022-12-09T15:00:48.512Z</time>
      </trkpt>
      <trkpt lat="48.42576" lon="-4.59963">
        <ele>83.298187</ele>
        <time>2022-12-09T15:00:52.500Z</time>
      </trkpt>
      <trkpt lat="48.42572" lon="-4.59948">
        <ele>83.292601</ele>
        <time>2022-12-09T15:00:56.503Z</time>
      </trkpt>
      <trkpt lat="48.42569" lon="-4.59932">
        <ele>83.28661</ele>
        <time>2022-12-09T15:01:00.494Z</time>
      </trkpt>
      <trkpt lat="48.42567" lon="-4.59916">
        <ele>83.280933</ele>
        <time>2022-12-09T15:01:04.510Z</time>
      </trkpt>
      <trkpt lat="48.42564" lon="-4.59899">
        <ele>83.274538</ele>
        <time>2022-12-09T15:01:08.510Z</time>
      </trkpt>
      <trkpt lat="48.4256" lon="-4.59882">
        <ele>83.268282</ele>
        <time>2022-12-09T15:01:12.509Z</time>
      </trkpt>
      <trkpt lat="48.42557" lon="-4.59866">
        <ele>83.262512</ele>
        <time>2022-12-09T15:01:16.510Z</time>
      </trkpt>
      <trkpt lat="48.42554" lon="-4.5985">
        <ele>83.256691</ele>
        <time>2022-12-09T15:01:20.508Z</time>
      </trkpt>
      <trkpt lat="48.42552" lon="-4.59836">
        <ele>83.25141</ele>
        <time>2022-12-09T15:01:24.519Z</time>
      </trkpt>
      <trkpt lat="48.42548" lon="-4.59821">
        <ele>83.261988</ele>
        <time>2022-12-09T15:01:28.500Z</time>
      </trkpt>
      <trkpt lat="48.42545" lon="-4.59806">
        <ele>83.558648</ele>
        <time>2022-12-09T15:01:32.513Z</time>
      </trkpt>
      <trkpt lat="48.42542" lon="-4.5979">
        <ele>83.858925</ele>
        <time>2022-12-09T15:01:36.506Z</time>
      </trkpt>
      <trkpt lat="48.42539" lon="-4.59774">
        <ele>84.162538</ele>
        <time>2022-12-09T15:01:40.509Z</time>
      </trkpt>
      <trkpt lat="48.42534" lon="-4.5976">
        <ele>84.457032</ele>
        <time>2022-12-09T15:01:44.518Z</time>
      </trkpt>
      <trkpt lat="48.42531" lon="-4.59746">
        <ele>84.713667</ele>
        <time>2022-12-09T15:01:48.493Z</time>
      </trkpt>
      <trkpt lat="48.42526" lon="-4.59733">
        <ele>84.993496</ele>
        <time>2022-12-09T15:01:53.495Z</time>
      </trkpt>
      <trkpt lat="48.42521" lon="-4.59719">
        <ele>85.299903</ele>
        <time>2022-12-09T15:01:58.498Z</time>
      </trkpt>
      <trkpt lat="48.42516" lon="-4.59705">
        <ele>85.571945</ele>
        <time>2022-12-09T15:02:02.496Z</time>
      </trkpt>
      <trkpt lat="48.42512" lon="-4.59691">
        <ele>85.862561</ele>
        <time>2022-12-09T15:02:06.519Z</time>
      </trkpt>
      <trkpt lat="48.42508" lon="-4.59676">
        <ele>86.167154</ele>
        <time>2022-12-09T15:02:10.510Z</time>
      </trkpt>
      <trkpt lat="48.42502" lon="-4.59662">
        <ele>86.452981</ele>
        <time>2022-12-09T15:02:14.503Z</time>
      </trkpt>
      <trkpt lat="48.42498" lon="-4.59647">
        <ele>86.755301</ele>
        <time>2022-12-09T15:02:18.495Z</time>
      </trkpt>
      <trkpt lat="48.42492" lon="-4.59632">
        <ele>87.06521</ele>
        <time>2022-12-09T15:02:22.488Z</time>
      </trkpt>
      <trkpt lat="48.42487" lon="-4.59617">
        <ele>87.37912</ele>
        <time>2022-12-09T15:02:26.520Z</time>
      </trkpt>
      <trkpt lat="48.42482" lon="-4.59603">
        <ele>87.677056</ele>
        <time>2022-12-09T15:02:30.509Z</time>
      </trkpt>
      <trkpt lat="48.42477" lon="-4.59587">
        <ele>87.993447</ele>
        <time>2022-12-09T15:02:34.510Z</time>
      </trkpt>
      <trkpt lat="48.42472" lon="-4.59573">
        <ele>88.293475</ele>
        <time>2022-12-09T15:02:38.512Z</time>
      </trkpt>
      <trkpt lat="48.42467" lon="-4.59558">
        <ele>88.592422</ele>
        <time>2022-12-09T15:02:42.515Z</time>
      </trkpt>
      <trkpt lat="48.42462" lon="-4.59544">
        <ele>88.880964</ele>
        <time>2022-12-09T15:02:46.513Z</time>
      </trkpt>
      <trkpt lat="48.42458" lon="-4.5953">
        <ele>89.138036</ele>
        <time>2022-12-09T15:02:50.512Z</time>
      </trkpt>
      <trkpt lat="48.42454" lon="-4.59518">
        <ele>89.391342</ele>
        <time>2022-12-09T15:02:54.506Z</time>
      </trkpt>
      <trkpt lat="48.4245" lon="-4.59504">
        <ele>89.666733</ele>
        <time>2022-12-09T15:02:58.509Z</time>
      </trkpt>
      <trkpt lat="48.42444" lon="-4.59489">
        <ele>89.958113</ele>
        <time>2022-12-09T15:03:02.492Z</time>
      </trkpt>
      <trkpt lat="48.4244" lon="-4.59477">
        <ele>90.214213</ele>
        <time>2022-12-09T15:03:05.503Z</time>
      </trkpt>
      <trkpt lat="48.42434" lon="-4.59464">
        <ele>90.482267</ele>
        <time>2022-12-09T15:03:08.505Z</time>
      </trkpt>
      <trkpt lat="48.4243" lon="-4.59451">
        <ele>90.735574</ele>
        <time>2022-12-09T15:03:11.515Z</time>
      </trkpt>
      <trkpt lat="48.42427" lon="-4.59439">
        <ele>90.97991</ele>
        <time>2022-12-09T15:03:14.515Z</time>
      </trkpt>
      <trkpt lat="48.42421" lon="-4.59424">
        <ele>91.279195</ele>
        <time>2022-12-09T15:03:18.516Z</time>
      </trkpt>
      <trkpt lat="48.42417" lon="-4.59409">
        <ele>91.573264</ele>
        <time>2022-12-09T15:03:22.520Z</time>
      </trkpt>
      <trkpt lat="48.42413" lon="-4.59395">
        <ele>91.843283</ele>
        <time>2022-12-09T15:03:26.512Z</time>
      </trkpt>
      <trkpt lat="48.42408" lon="-4.5938">
        <ele>92.138543</ele>
        <time>2022-12-09T15:03:31.512Z</time>
      </trkpt>
      <trkpt lat="48.42403" lon="-4.59365">
        <ele>92.443888</ele>
        <time>2022-12-09T15:03:35.511Z</time>
      </trkpt>
      <trkpt lat="48.42399" lon="-4.59348">
        <ele>92.770063</ele>
        <time>2022-12-09T15:03:39.511Z</time>
      </trkpt>
      <trkpt lat="48.42396" lon="-4.59333">
        <ele>93.040736</ele>
        <time>2022-12-09T15:03:42.514Z</time>
      </trkpt>
      <trkpt lat="48.4239" lon="-4.59319">
        <ele>93.207729</ele>
        <time>2022-12-09T15:03:46.502Z</time>
      </trkpt>
      <trkpt lat="48.42386" lon="-4.59306">
        <ele>93.34856</ele>
        <time>2022-12-09T15:03:49.521Z</time>
      </trkpt>
      <trkpt lat="48.42383" lon="-4.59292">
        <ele>93.489655</ele>
        <time>2022-12-09T15:03:52.509Z</time>
      </trkpt>
      <trkpt lat="48.4238" lon="-4.59279">
        <ele>93.620396</ele>
        <time>2022-12-09T15:03:55.518Z</time>
      </trkpt>
      <trkpt lat="48.42378" lon="-4.59266">
        <ele>93.752861</ele>
        <time>2022-12-09T15:03:58.512Z</time>
      </trkpt>
      <trkpt lat="48.42375" lon="-4.59249">
        <ele>93.913807</ele>
        <time>2022-12-09T15:04:02.505Z</time>
      </trkpt>
      <trkpt lat="48.42372" lon="-4.59232">
        <ele>94.082671</ele>
        <time>2022-12-09T15:04:06.510Z</time>
      </trkpt>
      <trkpt lat="48.42369" lon="-4.59215">
        <ele>94.255623</ele>
        <time>2022-12-09T15:04:10.494Z</time>
      </trkpt>
      <trkpt lat="48.42368" lon="-4.59202">
        <ele>94.386607</ele>
        <time>2022-12-09T15:04:13.515Z</time>
      </trkpt>
      <trkpt lat="48.42366" lon="-4.59188">
        <ele>94.522814</ele>
        <time>2022-12-09T15:04:16.514Z</time>
      </trkpt>
      <trkpt lat="48.42364" lon="-4.59174">
        <ele>94.657766</ele>
        <time>2022-12-09T15:04:19.518Z</time>
      </trkpt>
      <trkpt lat="48.42362" lon="-4.59161">
        <ele>94.791162</ele>
        <time>2022-12-09T15:04:22.513Z</time>
      </trkpt>
      <trkpt lat="48.42359" lon="-4.59146">
        <ele>94.935523</ele>
        <time>2022-12-09T15:04:25.518Z</time>
      </trkpt>
      <trkpt lat="48.42357" lon="-4.5913">
        <ele>95.092157</ele>
        <time>2022-12-09T15:04:28.511Z</time>
      </trkpt>
      <trkpt lat="48.42355" lon="-4.59114">
        <ele>95.250009</ele>
        <time>2022-12-09T15:04:31.510Z</time>
      </trkpt>
      <trkpt lat="48.42353" lon="-4.59098">
        <ele>95.406643</ele>
        <time>2022-12-09T15:04:34.511Z</time>
      </trkpt>
      <trkpt lat="48.42351" lon="-4.59083">
        <ele>95.555068</ele>
        <time>2022-12-09T15:04:37.508Z</time>
      </trkpt>
      <trkpt lat="48.42348" lon="-4.59069">
        <ele>95.675998</ele>
        <time>2022-12-09T15:04:40.519Z</time>
      </trkpt>
      <trkpt lat="48.42346" lon="-4.59054">
        <ele>95.740263</ele>
        <time>2022-12-09T15:04:43.508Z</time>
      </trkpt>
      <trkpt lat="48.42343" lon="-4.59038">
        <ele>95.807705</ele>
        <time>2022-12-09T15:04:46.516Z</time>
      </trkpt>
      <trkpt lat="48.42341" lon="-4.59021">
        <ele>95.876632</ele>
        <time>2022-12-09T15:04:49.503Z</time>
      </trkpt>
      <trkpt lat="48.42338" lon="-4.59004">
        <ele>95.949341</ele>
        <time>2022-12-09T15:04:52.515Z</time>
      </trkpt>
      <trkpt lat="48.42335" lon="-4.58988">
        <ele>96.019335</ele>
        <time>2022-12-09T15:04:55.519Z</time>
      </trkpt>
      <trkpt lat="48.42332" lon="-4.58974">
        <ele>96.079376</ele>
        <time>2022-12-09T15:04:58.498Z</time>
      </trkpt>
      <trkpt lat="48.42327" lon="-4.58958">
        <ele>96.150831</ele>
        <time>2022-12-09T15:05:02.506Z</time>
      </trkpt>
      <trkpt lat="48.42323" lon="-4.58946">
        <ele>96.209116</ele>
        <time>2022-12-09T15:05:05.513Z</time>
      </trkpt>
      <trkpt lat="48.42318" lon="-4.58932">
        <ele>96.273379</ele>
        <time>2022-12-09T15:05:08.493Z</time>
      </trkpt>
      <trkpt lat="48.42312" lon="-4.58919">
        <ele>96.337573</ele>
        <time>2022-12-09T15:05:11.510Z</time>
      </trkpt>
      <trkpt lat="48.42306" lon="-4.58906">
        <ele>96.401764</ele>
        <time>2022-12-09T15:05:14.510Z</time>
      </trkpt>
      <trkpt lat="48.42301" lon="-4.58895">
        <ele>96.459799</ele>
        <time>2022-12-09T15:05:17.521Z</time>
      </trkpt>
      <trkpt lat="48.42296" lon="-4.58883">
        <ele>96.515756</ele>
        <time>2022-12-09T15:05:20.495Z</time>
      </trkpt>
      <trkpt lat="48.42291" lon="-4.58871">
        <ele>96.572596</ele>
        <time>2022-12-09T15:05:23.520Z</time>
      </trkpt>
      <trkpt lat="48.42286" lon="-4.58856">
        <ele>96.642028</ele>
        <time>2022-12-09T15:05:27.515Z</time>
      </trkpt>
      <trkpt lat="48.42282" lon="-4.58844">
        <ele>96.699396</ele>
        <time>2022-12-09T15:05:30.503Z</time>
      </trkpt>
      <trkpt lat="48.42276" lon="-4.58831">
        <ele>96.764014</ele>
        <time>2022-12-09T15:05:33.515Z</time>
      </trkpt>
      <trkpt lat="48.42272" lon="-4.58818">
        <ele>97.035301</ele>
        <time>2022-12-09T15:05:36.515Z</time>
      </trkpt>
      <trkpt lat="48.42267" lon="-4.58804">
        <ele>97.370623</ele>
        <time>2022-12-09T15:05:39.511Z</time>
      </trkpt>
      <trkpt lat="48.42262" lon="-4.58791">
        <ele>97.696732</ele>
        <time>2022-12-09T15:05:42.517Z</time>
      </trkpt>
      <trkpt lat="48.42257" lon="-4.58778">
        <ele>98.020381</ele>
        <time>2022-12-09T15:05:45.510Z</time>
      </trkpt>
      <trkpt lat="48.42253" lon="-4.58766">
        <ele>98.319773</ele>
        <time>2022-12-09T15:05:48.515Z</time>
      </trkpt>
      <trkpt lat="48.42248" lon="-4.58751">
        <ele>98.690805</ele>
        <time>2022-12-09T15:05:52.519Z</time>
      </trkpt>
      <trkpt lat="48.42245" lon="-4.58737">
        <ele>98.994173</ele>
        <time>2022-12-09T15:05:55.493Z</time>
      </trkpt>
      <trkpt lat="48.42242" lon="-4.58724">
        <ele>99.312082</ele>
        <time>2022-12-09T15:05:58.505Z</time>
      </trkpt>
      <trkpt lat="48.42238" lon="-4.58711">
        <ele>99.61131</ele>
        <time>2022-12-09T15:06:01.508Z</time>
      </trkpt>
      <trkpt lat="48.42236" lon="-4.58695">
        <ele>99.96559</ele>
        <time>2022-12-09T15:06:05.507Z</time>
      </trkpt>
      <trkpt lat="48.42237" lon="-4.58678">
        <ele>100.336327</ele>
        <time>2022-12-09T15:06:10.518Z</time>
      </trkpt>
      <trkpt lat="48.42235" lon="-4.58662">
        <ele>100.696762</ele>
        <time>2022-12-09T15:06:14.500Z</time>
      </trkpt>
      <trkpt lat="48.42233" lon="-4.58647">
        <ele>101.043377</ele>
        <time>2022-12-09T15:06:18.513Z</time>
      </trkpt>
      <trkpt lat="48.42231" lon="-4.58631">
        <ele>101.386752</ele>
        <time>2022-12-09T15:06:22.494Z</time>
      </trkpt>
      <trkpt lat="48.42229" lon="-4.58616">
        <ele>101.733197</ele>
        <time>2022-12-09T15:06:26.498Z</time>
      </trkpt>
      <trkpt lat="48.42228" lon="-4.586">
        <ele>102.072076</ele>
        <time>2022-12-09T15:06:31.496Z</time>
      </trkpt>
      <trkpt lat="48.42229" lon="-4.58585">
        <ele>102.407763</ele>
        <time>2022-12-09T15:06:35.517Z</time>
      </trkpt>
      <trkpt lat="48.4223" lon="-4.58568">
        <ele>102.776131</ele>
        <time>2022-12-09T15:06:40.510Z</time>
      </trkpt>
      <trkpt lat="48.4223" lon="-4.58553">
        <ele>103.128249</ele>
        <time>2022-12-09T15:06:44.515Z</time>
      </trkpt>
      <trkpt lat="48.42231" lon="-4.58537">
        <ele>103.494171</ele>
        <time>2022-12-09T15:06:48.510Z</time>
      </trkpt>
      <trkpt lat="48.42232" lon="-4.58521">
        <ele>103.87733</ele>
        <time>2022-12-09T15:06:52.518Z</time>
      </trkpt>
      <trkpt lat="48.42234" lon="-4.58506">
        <ele>104.224689</ele>
        <time>2022-12-09T15:06:56.506Z</time>
      </trkpt>
      <trkpt lat="48.42236" lon="-4.58491">
        <ele>104.60259</ele>
        <time>2022-12-09T15:07:00.499Z</time>
      </trkpt>
      <trkpt lat="48.42239" lon="-4.58475">
        <ele>104.973343</ele>
        <time>2022-12-09T15:07:04.506Z</time>
      </trkpt>
      <trkpt lat="48.42242" lon="-4.58462">
        <ele>105.306185</ele>
        <time>2022-12-09T15:07:08.503Z</time>
      </trkpt>
      <trkpt lat="48.42245" lon="-4.58448">
        <ele>105.636336</ele>
        <time>2022-12-09T15:07:12.515Z</time>
      </trkpt>
      <trkpt lat="48.42248" lon="-4.58435">
        <ele>105.972782</ele>
        <time>2022-12-09T15:07:16.505Z</time>
      </trkpt>
      <trkpt lat="48.42252" lon="-4.58422">
        <ele>106.300415</ele>
        <time>2022-12-09T15:07:20.494Z</time>
      </trkpt>
      <trkpt lat="48.42256" lon="-4.5841">
        <ele>106.621458</ele>
        <time>2022-12-09T15:07:24.491Z</time>
      </trkpt>
      <trkpt lat="48.42261" lon="-4.58397">
        <ele>106.944989</ele>
        <time>2022-12-09T15:07:27.514Z</time>
      </trkpt>
      <trkpt lat="48.42265" lon="-4.58385">
        <ele>107.265226</ele>
        <time>2022-12-09T15:07:30.520Z</time>
      </trkpt>
      <trkpt lat="48.42271" lon="-4.5837">
        <ele>107.682643</ele>
        <time>2022-12-09T15:07:34.512Z</time>
      </trkpt>
      <trkpt lat="48.42277" lon="-4.58357">
        <ele>108.047636</ele>
        <time>2022-12-09T15:07:38.510Z</time>
      </trkpt>
      <trkpt lat="48.42283" lon="-4.58344">
        <ele>108.424274</ele>
        <time>2022-12-09T15:07:42.514Z</time>
      </trkpt>
      <trkpt lat="48.42289" lon="-4.5833">
        <ele>108.804791</ele>
        <time>2022-12-09T15:07:46.519Z</time>
      </trkpt>
      <trkpt lat="48.42295" lon="-4.58318">
        <ele>109.119731</ele>
        <time>2022-12-09T15:07:50.520Z</time>
      </trkpt>
      <trkpt lat="48.42301" lon="-4.58306">
        <ele>109.348866</ele>
        <time>2022-12-09T15:07:54.490Z</time>
      </trkpt>
      <trkpt lat="48.42309" lon="-4.58293">
        <ele>109.624411</ele>
        <time>2022-12-09T15:07:58.493Z</time>
      </trkpt>
      <trkpt lat="48.42315" lon="-4.5828">
        <ele>109.880039</ele>
        <time>2022-12-09T15:08:02.495Z</time>
      </trkpt>
      <trkpt lat="48.42321" lon="-4.58267">
        <ele>110.134964</ele>
        <time>2022-12-09T15:08:06.503Z</time>
      </trkpt>
      <trkpt lat="48.42328" lon="-4.58254">
        <ele>110.394806</ele>
        <time>2022-12-09T15:08:10.507Z</time>
      </trkpt>
      <trkpt lat="48.42333" lon="-4.58242">
        <ele>110.637069</ele>
        <time>2022-12-09T15:08:14.514Z</time>
      </trkpt>
      <trkpt lat="48.42339" lon="-4.58229">
        <ele>110.889962</ele>
        <time>2022-12-09T15:08:18.520Z</time>
      </trkpt>
      <trkpt lat="48.42345" lon="-4.58215">
        <ele>111.149605</ele>
        <time>2022-12-09T15:08:22.520Z</time>
      </trkpt>
      <trkpt lat="48.4235" lon="-4.58202">
        <ele>111.39594</ele>
        <time>2022-12-09T15:08:26.519Z</time>
      </trkpt>
      <trkpt lat="48.42355" lon="-4.58189">
        <ele>111.642516</ele>
        <time>2022-12-09T15:08:30.494Z</time>
      </trkpt>
      <trkpt lat="48.42359" lon="-4.58174">
        <ele>111.88981</ele>
        <time>2022-12-09T15:08:34.494Z</time>
      </trkpt>
      <trkpt lat="48.42362" lon="-4.58159">
        <ele>112.139967</ele>
        <time>2022-12-09T15:08:38.512Z</time>
      </trkpt>
      <trkpt lat="48.42365" lon="-4.58146">
        <ele>112.370456</ele>
        <time>2022-12-09T15:08:42.520Z</time>
      </trkpt>
      <trkpt lat="48.4237" lon="-4.58131">
        <ele>112.632536</ele>
        <time>2022-12-09T15:08:46.519Z</time>
      </trkpt>
      <trkpt lat="48.42374" lon="-4.58115">
        <ele>112.900978</ele>
        <time>2022-12-09T15:08:50.496Z</time>
      </trkpt>
      <trkpt lat="48.42377" lon="-4.58101">
        <ele>113.140521</ele>
        <time>2022-12-09T15:08:54.517Z</time>
      </trkpt>
      <trkpt lat="48.42379" lon="-4.58086">
        <ele>113.365017</ele>
        <time>2022-12-09T15:08:58.513Z</time>
      </trkpt>
      <trkpt lat="48.42382" lon="-4.58071">
        <ele>113.504231</ele>
        <time>2022-12-09T15:09:02.525Z</time>
      </trkpt>
      <trkpt lat="48.42384" lon="-4.58056">
        <ele>113.654933</ele>
        <time>2022-12-09T15:09:06.520Z</time>
      </trkpt>
      <trkpt lat="48.42386" lon="-4.5804">
        <ele>113.804226</ele>
        <time>2022-12-09T15:09:10.497Z</time>
      </trkpt>
      <trkpt lat="48.42387" lon="-4.58025">
        <ele>113.94769</ele>
        <time>2022-12-09T15:09:14.515Z</time>
      </trkpt>
      <trkpt lat="48.42388" lon="-4.58009">
        <ele>114.099974</ele>
        <time>2022-12-09T15:09:18.515Z</time>
      </trkpt>
      <trkpt lat="48.4239" lon="-4.57994">
        <ele>114.250655</ele>
        <time>2022-12-09T15:09:22.493Z</time>
      </trkpt>
      <trkpt lat="48.4239" lon="-4.57979">
        <ele>114.394921</ele>
        <time>2022-12-09T15:09:26.501Z</time>
      </trkpt>
      <trkpt lat="48.42389" lon="-4.57963">
        <ele>114.543308</ele>
        <time>2022-12-09T15:09:30.498Z</time>
      </trkpt>
      <trkpt lat="48.42389" lon="-4.57947">
        <ele>114.696424</ele>
        <time>2022-12-09T15:09:34.517Z</time>
      </trkpt>
      <trkpt lat="48.42388" lon="-4.57931">
        <ele>114.851983</ele>
        <time>2022-12-09T15:09:38.517Z</time>
      </trkpt>
      <trkpt lat="48.42389" lon="-4.57915">
        <ele>115.003729</ele>
        <time>2022-12-09T15:09:42.509Z</time>
      </trkpt>
      <trkpt lat="48.42388" lon="-4.57899">
        <ele>115.155496</ele>
        <time>2022-12-09T15:09:46.516Z</time>
      </trkpt>
      <trkpt lat="48.42388" lon="-4.57882">
        <ele>115.309132</ele>
        <time>2022-12-09T15:09:50.506Z</time>
      </trkpt>
      <trkpt lat="48.42388" lon="-4.57866">
        <ele>115.460872</ele>
        <time>2022-12-09T15:09:54.504Z</time>
      </trkpt>
      <trkpt lat="48.42388" lon="-4.57851">
        <ele>115.607096</ele>
        <time>2022-12-09T15:09:58.507Z</time>
      </trkpt>
      <trkpt lat="48.42388" lon="-4.57836">
        <ele>115.75226</ele>
        <time>2022-12-09T15:10:02.517Z</time>
      </trkpt>
      <trkpt lat="48.42389" lon="-4.5782">
        <ele>115.899007</ele>
        <time>2022-12-09T15:10:06.512Z</time>
      </trkpt>
      <trkpt lat="48.42389" lon="-4.57805">
        <ele>116.201089</ele>
        <time>2022-12-09T15:10:10.500Z</time>
      </trkpt>
      <trkpt lat="48.42389" lon="-4.57789">
        <ele>116.523315</ele>
        <time>2022-12-09T15:10:14.518Z</time>
      </trkpt>
      <trkpt lat="48.42389" lon="-4.57772">
        <ele>116.868098</ele>
        <time>2022-12-09T15:10:18.515Z</time>
      </trkpt>
      <trkpt lat="48.42389" lon="-4.57758">
        <ele>117.15975</ele>
        <time>2022-12-09T15:10:22.493Z</time>
      </trkpt>
      <trkpt lat="48.4239" lon="-4.57742">
        <ele>117.48953</ele>
        <time>2022-12-09T15:10:26.498Z</time>
      </trkpt>
      <trkpt lat="48.42391" lon="-4.57725">
        <ele>117.847074</ele>
        <time>2022-12-09T15:10:30.520Z</time>
      </trkpt>
      <trkpt lat="48.42392" lon="-4.57708">
        <ele>118.19107</ele>
        <time>2022-12-09T15:10:34.509Z</time>
      </trkpt>
      <trkpt lat="48.42393" lon="-4.57691">
        <ele>118.532772</ele>
        <time>2022-12-09T15:10:38.514Z</time>
      </trkpt>
      <trkpt lat="48.42394" lon="-4.57675">
        <ele>118.860247</ele>
        <time>2022-12-09T15:10:42.517Z</time>
      </trkpt>
      <trkpt lat="48.42396" lon="-4.57659">
        <ele>119.190253</ele>
        <time>2022-12-09T15:10:48.498Z</time>
      </trkpt>
      <trkpt lat="48.42398" lon="-4.57644">
        <ele>119.503651</ele>
        <time>2022-12-09T15:10:52.494Z</time>
      </trkpt>
      <trkpt lat="48.424" lon="-4.57628">
        <ele>119.833132</ele>
        <time>2022-12-09T15:10:56.503Z</time>
      </trkpt>
      <trkpt lat="48.42402" lon="-4.57612">
        <ele>120.178486</ele>
        <time>2022-12-09T15:11:00.520Z</time>
      </trkpt>
      <trkpt lat="48.42405" lon="-4.57595">
        <ele>120.521712</ele>
        <time>2022-12-09T15:11:04.520Z</time>
      </trkpt>
      <trkpt lat="48.42407" lon="-4.57579">
        <ele>120.869549</ele>
        <time>2022-12-09T15:11:08.516Z</time>
      </trkpt>
      <trkpt lat="48.42409" lon="-4.57562">
        <ele>121.214113</ele>
        <time>2022-12-09T15:11:12.512Z</time>
      </trkpt>
      <trkpt lat="48.42411" lon="-4.57545">
        <ele>121.554038</ele>
        <time>2022-12-09T15:11:16.509Z</time>
      </trkpt>
      <trkpt lat="48.42414" lon="-4.57528">
        <ele>121.895995</ele>
        <time>2022-12-09T15:11:20.518Z</time>
      </trkpt>
      <trkpt lat="48.42417" lon="-4.57513">
        <ele>122.218899</ele>
        <time>2022-12-09T15:11:24.518Z</time>
      </trkpt>
      <trkpt lat="48.42419" lon="-4.57496">
        <ele>122.554453</ele>
        <time>2022-12-09T15:11:28.505Z</time>
      </trkpt>
      <trkpt lat="48.42421" lon="-4.57482">
        <ele>122.833775</ele>
        <time>2022-12-09T15:11:31.493Z</time>
      </trkpt>
      <trkpt lat="48.42423" lon="-4.57468">
        <ele>123.109266</ele>
        <time>2022-12-09T15:11:34.516Z</time>
      </trkpt>
      <trkpt lat="48.42426" lon="-4.57454">
        <ele>123.394544</ele>
        <time>2022-12-09T15:11:37.500Z</time>
      </trkpt>
      <trkpt lat="48.42428" lon="-4.5744">
        <ele>123.668878</ele>
        <time>2022-12-09T15:11:40.499Z</time>
      </trkpt>
      <trkpt lat="48.4243" lon="-4.57425">
        <ele>123.979336</ele>
        <time>2022-12-09T15:11:44.520Z</time>
      </trkpt>
      <trkpt lat="48.42432" lon="-4.57412">
        <ele>124.243994</ele>
        <time>2022-12-09T15:11:48.520Z</time>
      </trkpt>
      <trkpt lat="48.42434" lon="-4.57397">
        <ele>124.54618</ele>
        <time>2022-12-09T15:11:52.521Z</time>
      </trkpt>
      <trkpt lat="48.42438" lon="-4.57379">
        <ele>124.896451</ele>
        <time>2022-12-09T15:11:56.505Z</time>
      </trkpt>
      <trkpt lat="48.42441" lon="-4.57363">
        <ele>125.220381</ele>
        <time>2022-12-09T15:12:00.513Z</time>
      </trkpt>
      <trkpt lat="48.42444" lon="-4.57349">
        <ele>125.510723</ele>
        <time>2022-12-09T15:12:04.497Z</time>
      </trkpt>
      <trkpt lat="48.42448" lon="-4.57334">
        <ele>125.83688</ele>
        <time>2022-12-09T15:12:08.498Z</time>
      </trkpt>
      <trkpt lat="48.4245" lon="-4.57319">
        <ele>126.131434</ele>
        <time>2022-12-09T15:12:12.517Z</time>
      </trkpt>
      <trkpt lat="48.42453" lon="-4.57304">
        <ele>126.442459</ele>
        <time>2022-12-09T15:12:16.518Z</time>
      </trkpt>
      <trkpt lat="48.42456" lon="-4.57288">
        <ele>126.744812</ele>
        <time>2022-12-09T15:12:20.494Z</time>
      </trkpt>
      <trkpt lat="48.4246" lon="-4.57274">
        <ele>126.883143</ele>
        <time>2022-12-09T15:12:24.514Z</time>
      </trkpt>
      <trkpt lat="48.4246" lon="-4.57257">
        <ele>127.039988</ele>
        <time>2022-12-09T15:12:28.499Z</time>
      </trkpt>
      <trkpt lat="48.42461" lon="-4.57243">
        <ele>127.165257</ele>
        <time>2022-12-09T15:12:31.493Z</time>
      </trkpt>
      <trkpt lat="48.42466" lon="-4.57227">
        <ele>127.321991</ele>
        <time>2022-12-09T15:12:35.506Z</time>
      </trkpt>
      <trkpt lat="48.42471" lon="-4.57213">
        <ele>127.471188</ele>
        <time>2022-12-09T15:12:39.494Z</time>
      </trkpt>
      <trkpt lat="48.42477" lon="-4.57198">
        <ele>127.619373</ele>
        <time>2022-12-09T15:12:43.510Z</time>
      </trkpt>
      <trkpt lat="48.42482" lon="-4.57184">
        <ele>127.767918</ele>
        <time>2022-12-09T15:12:47.521Z</time>
      </trkpt>
      <trkpt lat="48.42487" lon="-4.5717">
        <ele>127.916326</ele>
        <time>2022-12-09T15:12:51.513Z</time>
      </trkpt>
      <trkpt lat="48.42492" lon="-4.57156">
        <ele>128.052528</ele>
        <time>2022-12-09T15:12:55.507Z</time>
      </trkpt>
      <trkpt lat="48.42496" lon="-4.57144">
        <ele>128.174363</ele>
        <time>2022-12-09T15:12:58.499Z</time>
      </trkpt>
      <trkpt lat="48.42501" lon="-4.57132">
        <ele>128.308227</ele>
        <time>2022-12-09T15:13:01.497Z</time>
      </trkpt>
      <trkpt lat="48.42508" lon="-4.57118">
        <ele>128.453199</ele>
        <time>2022-12-09T15:13:04.520Z</time>
      </trkpt>
      <trkpt lat="48.42513" lon="-4.57106">
        <ele>128.591447</ele>
        <time>2022-12-09T15:13:07.506Z</time>
      </trkpt>
      <trkpt lat="48.42519" lon="-4.57094">
        <ele>128.719205</ele>
        <time>2022-12-09T15:13:10.519Z</time>
      </trkpt>
      <trkpt lat="48.42527" lon="-4.57083">
        <ele>128.86548</ele>
        <time>2022-12-09T15:13:14.516Z</time>
      </trkpt>
      <trkpt lat="48.42531" lon="-4.57067">
        <ele>129.020553</ele>
        <time>2022-12-09T15:13:18.493Z</time>
      </trkpt>
      <trkpt lat="48.42527" lon="-4.5705">
        <ele>129.191271</ele>
        <time>2022-12-09T15:13:22.491Z</time>
      </trkpt>
      <trkpt lat="48.42523" lon="-4.57036">
        <ele>129.415949</ele>
        <time>2022-12-09T15:13:25.517Z</time>
      </trkpt>
      <trkpt lat="48.42524" lon="-4.57019">
        <ele>129.683488</ele>
        <time>2022-12-09T15:13:29.503Z</time>
      </trkpt>
      <trkpt lat="48.42528" lon="-4.57002">
        <ele>129.95628</ele>
        <time>2022-12-09T15:13:33.499Z</time>
      </trkpt>
      <trkpt lat="48.42526" lon="-4.56986">
        <ele>130.208495</ele>
        <time>2022-12-09T15:13:37.498Z</time>
      </trkpt>
      <trkpt lat="48.42522" lon="-4.56971">
        <ele>130.463033</ele>
        <time>2022-12-09T15:13:41.496Z</time>
      </trkpt>
      <trkpt lat="48.42519" lon="-4.56955">
        <ele>130.715161</ele>
        <time>2022-12-09T15:13:45.523Z</time>
      </trkpt>
      <trkpt lat="48.42515" lon="-4.56939">
        <ele>130.975333</ele>
        <time>2022-12-09T15:13:49.519Z</time>
      </trkpt>
      <trkpt lat="48.42511" lon="-4.56923">
        <ele>131.228193</ele>
        <time>2022-12-09T15:13:53.504Z</time>
      </trkpt>
      <trkpt lat="48.42508" lon="-4.56908">
        <ele>131.48054</ele>
        <time>2022-12-09T15:13:57.517Z</time>
      </trkpt>
      <trkpt lat="48.42505" lon="-4.56892">
        <ele>131.729119</ele>
        <time>2022-12-09T15:14:01.522Z</time>
      </trkpt>
      <trkpt lat="48.42502" lon="-4.56876">
        <ele>131.983463</ele>
        <time>2022-12-09T15:14:05.515Z</time>
      </trkpt>
      <trkpt lat="48.42499" lon="-4.56861">
        <ele>132.229531</ele>
        <time>2022-12-09T15:14:09.512Z</time>
      </trkpt>
      <trkpt lat="48.42496" lon="-4.56845">
        <ele>132.481692</ele>
        <time>2022-12-09T15:14:13.514Z</time>
      </trkpt>
      <trkpt lat="48.42492" lon="-4.56829">
        <ele>132.742636</ele>
        <time>2022-12-09T15:14:17.520Z</time>
      </trkpt>
      <trkpt lat="48.42489" lon="-4.56813">
        <ele>133.008724</ele>
        <time>2022-12-09T15:14:21.514Z</time>
      </trkpt>
      <trkpt lat="48.42486" lon="-4.568">
        <ele>133.22297</ele>
        <time>2022-12-09T15:14:24.522Z</time>
      </trkpt>
      <trkpt lat="48.42483" lon="-4.56785">
        <ele>133.300398</ele>
        <time>2022-12-09T15:14:27.510Z</time>
      </trkpt>
      <trkpt lat="48.42481" lon="-4.5677">
        <ele>133.234952</ele>
        <time>2022-12-09T15:14:30.512Z</time>
      </trkpt>
      <trkpt lat="48.42478" lon="-4.56755">
        <ele>133.169766</ele>
        <time>2022-12-09T15:14:33.520Z</time>
      </trkpt>
      <trkpt lat="48.42477" lon="-4.56739">
        <ele>133.096766</ele>
        <time>2022-12-09T15:14:36.520Z</time>
      </trkpt>
      <trkpt lat="48.42475" lon="-4.56721">
        <ele>133.022047</ele>
        <time>2022-12-09T15:14:39.522Z</time>
      </trkpt>
      <trkpt lat="48.42474" lon="-4.56704">
        <ele>132.947452</ele>
        <time>2022-12-09T15:14:42.519Z</time>
      </trkpt>
      <trkpt lat="48.42473" lon="-4.56687">
        <ele>132.87408</ele>
        <time>2022-12-09T15:14:45.511Z</time>
      </trkpt>
      <trkpt lat="48.42473" lon="-4.5667">
        <ele>132.803156</ele>
        <time>2022-12-09T15:14:48.498Z</time>
      </trkpt>
      <trkpt lat="48.42473" lon="-4.56654">
        <ele>132.732278</ele>
        <time>2022-12-09T15:14:51.503Z</time>
      </trkpt>
      <trkpt lat="48.4247" lon="-4.56637">
        <ele>132.658176</ele>
        <time>2022-12-09T15:14:54.493Z</time>
      </trkpt>
      <trkpt lat="48.42467" lon="-4.5662">
        <ele>132.582946</ele>
        <time>2022-12-09T15:14:57.494Z</time>
      </trkpt>
      <trkpt lat="48.42471" lon="-4.56604">
        <ele>132.507199</ele>
        <time>2022-12-09T15:15:00.494Z</time>
      </trkpt>
      <trkpt lat="48.42475" lon="-4.56587">
        <ele>132.430414</ele>
        <time>2022-12-09T15:15:03.510Z</time>
      </trkpt>
      <trkpt lat="48.42478" lon="-4.56568">
        <ele>132.347673</ele>
        <time>2022-12-09T15:15:06.493Z</time>
      </trkpt>
      <trkpt lat="48.42479" lon="-4.56549">
        <ele>132.263179</ele>
        <time>2022-12-09T15:15:09.512Z</time>
      </trkpt>
      <trkpt lat="48.4248" lon="-4.5653">
        <ele>132.182011</ele>
        <time>2022-12-09T15:15:12.522Z</time>
      </trkpt>
      <trkpt lat="48.42483" lon="-4.56513">
        <ele>132.441943</ele>
        <time>2022-12-09T15:15:15.515Z</time>
      </trkpt>
      <trkpt lat="48.42484" lon="-4.56495">
        <ele>132.770776</ele>
        <time>2022-12-09T15:15:18.522Z</time>
      </trkpt>
      <trkpt lat="48.42486" lon="-4.56476">
        <ele>133.123348</ele>
        <time>2022-12-09T15:15:21.493Z</time>
      </trkpt>
      <trkpt lat="48.42488" lon="-4.56458">
        <ele>133.46992</ele>
        <time>2022-12-09T15:15:24.518Z</time>
      </trkpt>
      <trkpt lat="48.4249" lon="-4.56439">
        <ele>133.828375</ele>
        <time>2022-12-09T15:15:27.522Z</time>
      </trkpt>
      <trkpt lat="48.42492" lon="-4.5642">
        <ele>134.181353</ele>
        <time>2022-12-09T15:15:30.522Z</time>
      </trkpt>
      <trkpt lat="48.42494" lon="-4.56403">
        <ele>134.506486</ele>
        <time>2022-12-09T15:15:33.511Z</time>
      </trkpt>
      <trkpt lat="48.42496" lon="-4.56386">
        <ele>134.809342</ele>
        <time>2022-12-09T15:15:36.520Z</time>
      </trkpt>
      <trkpt lat="48.42498" lon="-4.56371">
        <ele>135.104541</ele>
        <time>2022-12-09T15:15:39.519Z</time>
      </trkpt>
      <trkpt lat="48.42499" lon="-4.56355">
        <ele>135.396021</ele>
        <time>2022-12-09T15:15:42.521Z</time>
      </trkpt>
      <trkpt lat="48.42501" lon="-4.5634">
        <ele>135.671692</ele>
        <time>2022-12-09T15:15:45.518Z</time>
      </trkpt>
      <trkpt lat="48.42502" lon="-4.56325">
        <ele>135.954981</ele>
        <time>2022-12-09T15:15:48.494Z</time>
      </trkpt>
      <trkpt lat="48.42504" lon="-4.56311">
        <ele>136.214678</ele>
        <time>2022-12-09T15:15:51.505Z</time>
      </trkpt>
      <trkpt lat="48.42505" lon="-4.56294">
        <ele>136.529586</ele>
        <time>2022-12-09T15:15:55.496Z</time>
      </trkpt>
      <trkpt lat="48.42506" lon="-4.56281">
        <ele>136.7811</ele>
        <time>2022-12-09T15:15:58.515Z</time>
      </trkpt>
      <trkpt lat="48.42507" lon="-4.56267">
        <ele>137.0356</ele>
        <time>2022-12-09T15:16:01.502Z</time>
      </trkpt>
      <trkpt lat="48.42508" lon="-4.56253">
        <ele>137.298147</ele>
        <time>2022-12-09T15:16:04.516Z</time>
      </trkpt>
      <trkpt lat="48.42508" lon="-4.56236">
        <ele>137.61122</ele>
        <time>2022-12-09T15:16:08.490Z</time>
      </trkpt>
      <trkpt lat="48.42509" lon="-4.56219">
        <ele>137.925081</ele>
        <time>2022-12-09T15:16:12.500Z</time>
      </trkpt>
      <trkpt lat="48.42509" lon="-4.56201">
        <ele>138.252783</ele>
        <time>2022-12-09T15:16:16.509Z</time>
      </trkpt>
      <trkpt lat="48.42511" lon="-4.56187">
        <ele>138.512711</ele>
        <time>2022-12-09T15:16:19.511Z</time>
      </trkpt>
      <trkpt lat="48.42512" lon="-4.56169">
        <ele>138.841628</ele>
        <time>2022-12-09T15:16:23.502Z</time>
      </trkpt>
      <trkpt lat="48.42512" lon="-4.56155">
        <ele>139.09633</ele>
        <time>2022-12-09T15:16:26.492Z</time>
      </trkpt>
      <trkpt lat="48.42512" lon="-4.56141">
        <ele>139.358209</ele>
        <time>2022-12-09T15:16:29.504Z</time>
      </trkpt>
      <trkpt lat="48.42513" lon="-4.56123">
        <ele>139.68119</ele>
        <time>2022-12-09T15:16:33.524Z</time>
      </trkpt>
      <trkpt lat="48.42514" lon="-4.56108">
        <ele>139.949745</ele>
        <time>2022-12-09T15:16:37.521Z</time>
      </trkpt>
      <trkpt lat="48.42515" lon="-4.56092">
        <ele>140.243546</ele>
        <time>2022-12-09T15:16:41.491Z</time>
      </trkpt>
      <trkpt lat="48.42515" lon="-4.56076">
        <ele>140.538243</ele>
        <time>2022-12-09T15:16:45.517Z</time>
      </trkpt>
      <trkpt lat="48.42515" lon="-4.56061">
        <ele>140.816411</ele>
        <time>2022-12-09T15:16:50.511Z</time>
      </trkpt>
      <trkpt lat="48.42515" lon="-4.56047">
        <ele>141.07636</ele>
        <time>2022-12-09T15:16:54.500Z</time>
      </trkpt>
      <trkpt lat="48.42515" lon="-4.56029">
        <ele>141.402092</ele>
        <time>2022-12-09T15:16:58.517Z</time>
      </trkpt>
      <trkpt lat="48.42515" lon="-4.56015">
        <ele>141.661968</ele>
        <time>2022-12-09T15:17:01.514Z</time>
      </trkpt>
      <trkpt lat="48.42516" lon="-4.55999">
        <ele>141.945785</ele>
        <time>2022-12-09T15:17:04.520Z</time>
      </trkpt>
      <trkpt lat="48.42516" lon="-4.55986">
        <ele>142.138668</ele>
        <time>2022-12-09T15:17:07.520Z</time>
      </trkpt>
      <trkpt lat="48.42516" lon="-4.55967">
        <ele>142.161079</ele>
        <time>2022-12-09T15:17:11.512Z</time>
      </trkpt>
      <trkpt lat="48.42516" lon="-4.55953">
        <ele>142.178418</ele>
        <time>2022-12-09T15:17:14.520Z</time>
      </trkpt>
      <trkpt lat="48.42516" lon="-4.55938">
        <ele>142.196227</ele>
        <time>2022-12-09T15:17:17.521Z</time>
      </trkpt>
      <trkpt lat="48.42516" lon="-4.55922">
        <ele>142.215745</ele>
        <time>2022-12-09T15:17:21.497Z</time>
      </trkpt>
      <trkpt lat="48.42514" lon="-4.55908">
        <ele>142.232748</ele>
        <time>2022-12-09T15:17:24.498Z</time>
      </trkpt>
      <trkpt lat="48.42511" lon="-4.55896">
        <ele>142.24944</ele>
        <time>2022-12-09T15:17:27.502Z</time>
      </trkpt>
      <trkpt lat="48.42502" lon="-4.55884">
        <ele>142.270456</ele>
        <time>2022-12-09T15:17:30.498Z</time>
      </trkpt>
      <trkpt lat="48.42494" lon="-4.55874">
        <ele>142.289496</ele>
        <time>2022-12-09T15:17:33.512Z</time>
      </trkpt>
      <trkpt lat="48.42485" lon="-4.55864">
        <ele>142.309106</ele>
        <time>2022-12-09T15:17:36.516Z</time>
      </trkpt>
      <trkpt lat="48.42476" lon="-4.55855">
        <ele>142.329247</ele>
        <time>2022-12-09T15:17:39.498Z</time>
      </trkpt>
      <trkpt lat="48.42466" lon="-4.55845">
        <ele>142.350608</ele>
        <time>2022-12-09T15:17:42.514Z</time>
      </trkpt>
      <trkpt lat="48.42457" lon="-4.55835">
        <ele>142.371465</ele>
        <time>2022-12-09T15:17:45.498Z</time>
      </trkpt>
      <trkpt lat="48.42449" lon="-4.55823">
        <ele>142.392801</ele>
        <time>2022-12-09T15:17:48.520Z</time>
      </trkpt>
      <trkpt lat="48.42441" lon="-4.55809">
        <ele>142.415242</ele>
        <time>2022-12-09T15:17:51.516Z</time>
      </trkpt>
      <trkpt lat="48.42433" lon="-4.55795">
        <ele>142.436851</ele>
        <time>2022-12-09T15:17:54.512Z</time>
      </trkpt>
      <trkpt lat="48.42426" lon="-4.55784">
        <ele>142.455756</ele>
        <time>2022-12-09T15:17:57.521Z</time>
      </trkpt>
      <trkpt lat="48.42418" lon="-4.55771">
        <ele>142.425925</ele>
        <time>2022-12-09T15:18:01.490Z</time>
      </trkpt>
      <trkpt lat="48.42411" lon="-4.55761">
        <ele>142.384492</ele>
        <time>2022-12-09T15:18:04.512Z</time>
      </trkpt>
      <trkpt lat="48.42405" lon="-4.55751">
        <ele>142.34366</ele>
        <time>2022-12-09T15:18:07.511Z</time>
      </trkpt>
      <trkpt lat="48.42396" lon="-4.55742">
        <ele>142.298771</ele>
        <time>2022-12-09T15:18:10.519Z</time>
      </trkpt>
      <trkpt lat="48.42388" lon="-4.55734">
        <ele>142.253334</ele>
        <time>2022-12-09T15:18:13.514Z</time>
      </trkpt>
      <trkpt lat="48.42378" lon="-4.55724">
        <ele>142.198841</ele>
        <time>2022-12-09T15:18:16.519Z</time>
      </trkpt>
      <trkpt lat="48.42367" lon="-4.55713">
        <ele>142.140899</ele>
        <time>2022-12-09T15:18:19.523Z</time>
      </trkpt>
      <trkpt lat="48.4236" lon="-4.55704">
        <ele>142.099928</ele>
        <time>2022-12-09T15:18:21.503Z</time>
      </trkpt>
      <trkpt lat="48.42349" lon="-4.55694">
        <ele>142.042114</ele>
        <time>2022-12-09T15:18:24.520Z</time>
      </trkpt>
      <trkpt lat="48.42338" lon="-4.55682">
        <ele>141.984198</ele>
        <time>2022-12-09T15:18:27.524Z</time>
      </trkpt>
      <trkpt lat="48.42327" lon="-4.55671">
        <ele>141.923442</ele>
        <time>2022-12-09T15:18:30.521Z</time>
      </trkpt>
      <trkpt lat="48.42318" lon="-4.55665">
        <ele>141.881449</ele>
        <time>2022-12-09T15:18:32.498Z</time>
      </trkpt>
      <trkpt lat="48.42307" lon="-4.55655">
        <ele>141.82321</ele>
        <time>2022-12-09T15:18:35.510Z</time>
      </trkpt>
      <trkpt lat="48.42297" lon="-4.55644">
        <ele>141.768813</ele>
        <time>2022-12-09T15:18:38.523Z</time>
      </trkpt>
      <trkpt lat="48.42288" lon="-4.55634">
        <ele>141.718559</ele>
        <time>2022-12-09T15:18:41.518Z</time>
      </trkpt>
      <trkpt lat="48.4228" lon="-4.55627">
        <ele>141.678065</ele>
        <time>2022-12-09T15:18:44.524Z</time>
      </trkpt>
      <trkpt lat="48.42271" lon="-4.55619">
        <ele>141.542574</ele>
        <time>2022-12-09T15:18:48.514Z</time>
      </trkpt>
      <trkpt lat="48.42264" lon="-4.5561">
        <ele>141.374086</ele>
        <time>2022-12-09T15:18:51.497Z</time>
      </trkpt>
      <trkpt lat="48.42256" lon="-4.55601">
        <ele>141.196428</ele>
        <time>2022-12-09T15:18:54.512Z</time>
      </trkpt>
      <trkpt lat="48.42248" lon="-4.55592">
        <ele>141.020211</ele>
        <time>2022-12-09T15:18:57.511Z</time>
      </trkpt>
      <trkpt lat="48.42238" lon="-4.55582">
        <ele>140.811306</ele>
        <time>2022-12-09T15:19:01.520Z</time>
      </trkpt>
      <trkpt lat="48.42229" lon="-4.55575">
        <ele>140.630757</ele>
        <time>2022-12-09T15:19:04.520Z</time>
      </trkpt>
      <trkpt lat="48.4222" lon="-4.55566">
        <ele>140.437999</ele>
        <time>2022-12-09T15:19:07.519Z</time>
      </trkpt>
      <trkpt lat="48.42211" lon="-4.55557">
        <ele>140.255317</ele>
        <time>2022-12-09T15:19:10.511Z</time>
      </trkpt>
      <trkpt lat="48.42202" lon="-4.55548">
        <ele>140.062558</ele>
        <time>2022-12-09T15:19:13.513Z</time>
      </trkpt>
      <trkpt lat="48.42193" lon="-4.55539">
        <ele>139.86874</ele>
        <time>2022-12-09T15:19:16.514Z</time>
      </trkpt>
      <trkpt lat="48.42184" lon="-4.55531">
        <ele>139.689139</ele>
        <time>2022-12-09T15:19:19.503Z</time>
      </trkpt>
      <trkpt lat="48.42175" lon="-4.55523">
        <ele>139.50714</ele>
        <time>2022-12-09T15:19:22.515Z</time>
      </trkpt>
      <trkpt lat="48.42167" lon="-4.55514">
        <ele>139.319628</ele>
        <time>2022-12-09T15:19:25.526Z</time>
      </trkpt>
      <trkpt lat="48.42158" lon="-4.55504">
        <ele>139.127905</ele>
        <time>2022-12-09T15:19:28.521Z</time>
      </trkpt>
      <trkpt lat="48.4215" lon="-4.55493">
        <ele>138.932817</ele>
        <time>2022-12-09T15:19:31.521Z</time>
      </trkpt>
      <trkpt lat="48.42141" lon="-4.55482">
        <ele>138.74079</ele>
        <time>2022-12-09T15:19:34.519Z</time>
      </trkpt>
      <trkpt lat="48.42134" lon="-4.55472">
        <ele>138.56901</ele>
        <time>2022-12-09T15:19:37.523Z</time>
      </trkpt>
      <trkpt lat="48.42127" lon="-4.55462">
        <ele>138.42342</ele>
        <time>2022-12-09T15:19:40.518Z</time>
      </trkpt>
      <trkpt lat="48.42119" lon="-4.55451">
        <ele>138.295565</ele>
        <time>2022-12-09T15:19:43.516Z</time>
      </trkpt>
      <trkpt lat="48.4211" lon="-4.55439">
        <ele>138.163471</ele>
        <time>2022-12-09T15:19:46.522Z</time>
      </trkpt>
      <trkpt lat="48.42101" lon="-4.55427">
        <ele>138.022312</ele>
        <time>2022-12-09T15:19:49.524Z</time>
      </trkpt>
      <trkpt lat="48.42092" lon="-4.55416">
        <ele>137.892882</ele>
        <time>2022-12-09T15:19:52.520Z</time>
      </trkpt>
      <trkpt lat="48.42084" lon="-4.55407">
        <ele>137.775391</ele>
        <time>2022-12-09T15:19:55.521Z</time>
      </trkpt>
      <trkpt lat="48.42075" lon="-4.55394">
        <ele>137.636519</ele>
        <time>2022-12-09T15:19:59.505Z</time>
      </trkpt>
      <trkpt lat="48.42068" lon="-4.55384">
        <ele>137.521626</ele>
        <time>2022-12-09T15:20:02.521Z</time>
      </trkpt>
      <trkpt lat="48.42061" lon="-4.55373">
        <ele>137.407253</ele>
        <time>2022-12-09T15:20:05.518Z</time>
      </trkpt>
      <trkpt lat="48.42054" lon="-4.55363">
        <ele>137.299895</ele>
        <time>2022-12-09T15:20:08.494Z</time>
      </trkpt>
      <trkpt lat="48.42048" lon="-4.55347">
        <ele>137.162997</ele>
        <time>2022-12-09T15:20:12.495Z</time>
      </trkpt>
      <trkpt lat="48.42043" lon="-4.55336">
        <ele>137.052775</ele>
        <time>2022-12-09T15:20:15.499Z</time>
      </trkpt>
      <trkpt lat="48.42035" lon="-4.55326">
        <ele>136.934317</ele>
        <time>2022-12-09T15:20:18.502Z</time>
      </trkpt>
      <trkpt lat="48.42027" lon="-4.55315">
        <ele>136.814302</ele>
        <time>2022-12-09T15:20:21.519Z</time>
      </trkpt>
      <trkpt lat="48.4202" lon="-4.55304">
        <ele>136.6989</ele>
        <time>2022-12-09T15:20:24.499Z</time>
      </trkpt>
      <trkpt lat="48.42015" lon="-4.55292">
        <ele>136.587007</ele>
        <time>2022-12-09T15:20:27.501Z</time>
      </trkpt>
      <trkpt lat="48.42008" lon="-4.55279">
        <ele>136.467335</ele>
        <time>2022-12-09T15:20:30.523Z</time>
      </trkpt>
      <trkpt lat="48.42002" lon="-4.55267">
        <ele>136.465629</ele>
        <time>2022-12-09T15:20:33.502Z</time>
      </trkpt>
      <trkpt lat="48.41996" lon="-4.55255">
        <ele>136.54037</ele>
        <time>2022-12-09T15:20:36.507Z</time>
      </trkpt>
      <trkpt lat="48.41991" lon="-4.55241">
        <ele>136.617647</ele>
        <time>2022-12-09T15:20:39.519Z</time>
      </trkpt>
      <trkpt lat="48.41986" lon="-4.55229">
        <ele>136.691127</ele>
        <time>2022-12-09T15:20:42.503Z</time>
      </trkpt>
      <trkpt lat="48.4198" lon="-4.55216">
        <ele>136.765437</ele>
        <time>2022-12-09T15:20:45.521Z</time>
      </trkpt>
      <trkpt lat="48.41975" lon="-4.55203">
        <ele>136.841115</ele>
        <time>2022-12-09T15:20:48.521Z</time>
      </trkpt>
      <trkpt lat="48.4197" lon="-4.55188">
        <ele>136.920663</ele>
        <time>2022-12-09T15:20:51.510Z</time>
      </trkpt>
      <trkpt lat="48.41965" lon="-4.55175">
        <ele>136.998483</ele>
        <time>2022-12-09T15:20:54.498Z</time>
      </trkpt>
      <trkpt lat="48.4196" lon="-4.55159">
        <ele>137.084095</ele>
        <time>2022-12-09T15:20:58.515Z</time>
      </trkpt>
      <trkpt lat="48.41952" lon="-4.55147">
        <ele>137.166533</ele>
        <time>2022-12-09T15:21:02.506Z</time>
      </trkpt>
      <trkpt lat="48.41946" lon="-4.55136">
        <ele>137.237999</ele>
        <time>2022-12-09T15:21:05.516Z</time>
      </trkpt>
      <trkpt lat="48.4194" lon="-4.55125">
        <ele>137.311189</ele>
        <time>2022-12-09T15:21:08.515Z</time>
      </trkpt>
      <trkpt lat="48.41934" lon="-4.55111">
        <ele>137.388814</ele>
        <time>2022-12-09T15:21:11.517Z</time>
      </trkpt>
      <trkpt lat="48.41928" lon="-4.55098">
        <ele>137.468519</ele>
        <time>2022-12-09T15:21:14.514Z</time>
      </trkpt>
      <trkpt lat="48.41922" lon="-4.55085">
        <ele>137.545301</ele>
        <time>2022-12-09T15:21:17.522Z</time>
      </trkpt>
      <trkpt lat="48.41916" lon="-4.55072">
        <ele>137.624947</ele>
        <time>2022-12-09T15:21:20.518Z</time>
      </trkpt>
      <trkpt lat="48.4191" lon="-4.55059">
        <ele>137.699688</ele>
        <time>2022-12-09T15:21:23.517Z</time>
      </trkpt>
      <trkpt lat="48.41905" lon="-4.55048">
        <ele>137.689511</ele>
        <time>2022-12-09T15:21:26.508Z</time>
      </trkpt>
      <trkpt lat="48.41899" lon="-4.55036">
        <ele>137.379478</ele>
        <time>2022-12-09T15:21:29.515Z</time>
      </trkpt>
      <trkpt lat="48.41893" lon="-4.55023">
        <ele>137.048014</ele>
        <time>2022-12-09T15:21:32.520Z</time>
      </trkpt>
      <trkpt lat="48.41887" lon="-4.55009">
        <ele>136.697233</ele>
        <time>2022-12-09T15:21:35.509Z</time>
      </trkpt>
      <trkpt lat="48.41881" lon="-4.54994">
        <ele>136.314553</ele>
        <time>2022-12-09T15:21:38.524Z</time>
      </trkpt>
      <trkpt lat="48.41874" lon="-4.54978">
        <ele>135.901771</ele>
        <time>2022-12-09T15:21:41.523Z</time>
      </trkpt>
      <trkpt lat="48.41869" lon="-4.54966">
        <ele>135.611113</ele>
        <time>2022-12-09T15:21:43.522Z</time>
      </trkpt>
      <trkpt lat="48.41861" lon="-4.54949">
        <ele>135.164414</ele>
        <time>2022-12-09T15:21:46.516Z</time>
      </trkpt>
      <trkpt lat="48.41855" lon="-4.54938">
        <ele>134.863143</ele>
        <time>2022-12-09T15:21:48.519Z</time>
      </trkpt>
      <trkpt lat="48.4185" lon="-4.54926">
        <ele>134.556252</ele>
        <time>2022-12-09T15:21:50.515Z</time>
      </trkpt>
      <trkpt lat="48.41844" lon="-4.54914">
        <ele>134.249534</ele>
        <time>2022-12-09T15:21:52.517Z</time>
      </trkpt>
      <trkpt lat="48.41836" lon="-4.54898">
        <ele>133.827581</ele>
        <time>2022-12-09T15:21:55.524Z</time>
      </trkpt>
      <trkpt lat="48.41829" lon="-4.54881">
        <ele>133.391465</ele>
        <time>2022-12-09T15:21:58.521Z</time>
      </trkpt>
      <trkpt lat="48.41824" lon="-4.54869">
        <ele>133.086687</ele>
        <time>2022-12-09T15:22:00.521Z</time>
      </trkpt>
      <trkpt lat="48.41819" lon="-4.54856">
        <ele>132.769245</ele>
        <time>2022-12-09T15:22:02.523Z</time>
      </trkpt>
      <trkpt lat="48.41813" lon="-4.54844">
        <ele>132.452008</ele>
        <time>2022-12-09T15:22:04.522Z</time>
      </trkpt>
      <trkpt lat="48.41808" lon="-4.54831">
        <ele>132.129566</ele>
        <time>2022-12-09T15:22:06.500Z</time>
      </trkpt>
      <trkpt lat="48.41803" lon="-4.54819">
        <ele>131.908796</ele>
        <time>2022-12-09T15:22:08.496Z</time>
      </trkpt>
      <trkpt lat="48.41798" lon="-4.54807">
        <ele>131.750516</ele>
        <time>2022-12-09T15:22:10.520Z</time>
      </trkpt>
      <trkpt lat="48.4179" lon="-4.54792">
        <ele>131.528143</ele>
        <time>2022-12-09T15:22:13.495Z</time>
      </trkpt>
      <trkpt lat="48.41781" lon="-4.54776">
        <ele>131.295713</ele>
        <time>2022-12-09T15:22:16.520Z</time>
      </trkpt>
      <trkpt lat="48.41774" lon="-4.54764">
        <ele>131.128219</ele>
        <time>2022-12-09T15:22:18.508Z</time>
      </trkpt>
      <trkpt lat="48.41768" lon="-4.54752">
        <ele>130.953839</ele>
        <time>2022-12-09T15:22:20.517Z</time>
      </trkpt>
      <trkpt lat="48.41763" lon="-4.54738">
        <ele>130.779675</ele>
        <time>2022-12-09T15:22:22.518Z</time>
      </trkpt>
      <trkpt lat="48.41757" lon="-4.54725">
        <ele>130.603697</ele>
        <time>2022-12-09T15:22:24.512Z</time>
      </trkpt>
      <trkpt lat="48.41751" lon="-4.54712">
        <ele>130.426753</ele>
        <time>2022-12-09T15:22:26.501Z</time>
      </trkpt>
      <trkpt lat="48.41745" lon="-4.54699">
        <ele>130.248919</ele>
        <time>2022-12-09T15:22:28.521Z</time>
      </trkpt>
      <trkpt lat="48.41739" lon="-4.54687">
        <ele>130.080895</ele>
        <time>2022-12-09T15:22:30.548Z</time>
      </trkpt>
      <trkpt lat="48.41733" lon="-4.54675">
        <ele>129.911838</ele>
        <time>2022-12-09T15:22:32.516Z</time>
      </trkpt>
      <trkpt lat="48.41727" lon="-4.54663">
        <ele>129.741257</ele>
        <time>2022-12-09T15:22:34.513Z</time>
      </trkpt>
      <trkpt lat="48.41721" lon="-4.54651">
        <ele>129.576449</ele>
        <time>2022-12-09T15:22:36.519Z</time>
      </trkpt>
      <trkpt lat="48.41716" lon="-4.54639">
        <ele>129.410463</ele>
        <time>2022-12-09T15:22:38.511Z</time>
      </trkpt>
      <trkpt lat="48.41709" lon="-4.54627">
        <ele>129.245763</ele>
        <time>2022-12-09T15:22:40.503Z</time>
      </trkpt>
      <trkpt lat="48.41704" lon="-4.54616">
        <ele>129.085248</ele>
        <time>2022-12-09T15:22:42.516Z</time>
      </trkpt>
      <trkpt lat="48.41697" lon="-4.54605">
        <ele>128.843539</ele>
        <time>2022-12-09T15:22:44.517Z</time>
      </trkpt>
      <trkpt lat="48.41691" lon="-4.54595">
        <ele>128.392579</ele>
        <time>2022-12-09T15:22:46.520Z</time>
      </trkpt>
      <trkpt lat="48.41685" lon="-4.54585">
        <ele>127.935454</ele>
        <time>2022-12-09T15:22:48.518Z</time>
      </trkpt>
      <trkpt lat="48.41678" lon="-4.54573">
        <ele>127.439298</ele>
        <time>2022-12-09T15:22:50.519Z</time>
      </trkpt>
      <trkpt lat="48.41672" lon="-4.54562">
        <ele>126.95135</ele>
        <time>2022-12-09T15:22:52.521Z</time>
      </trkpt>
      <trkpt lat="48.41664" lon="-4.54551">
        <ele>126.424276</ele>
        <time>2022-12-09T15:22:54.521Z</time>
      </trkpt>
      <trkpt lat="48.41657" lon="-4.5454">
        <ele>125.915899</ele>
        <time>2022-12-09T15:22:56.517Z</time>
      </trkpt>
      <trkpt lat="48.41649" lon="-4.5453">
        <ele>125.419362</ele>
        <time>2022-12-09T15:22:58.520Z</time>
      </trkpt>
      <trkpt lat="48.41642" lon="-4.5452">
        <ele>124.939738</ele>
        <time>2022-12-09T15:23:00.505Z</time>
      </trkpt>
      <trkpt lat="48.41636" lon="-4.5451">
        <ele>124.463864</ele>
        <time>2022-12-09T15:23:02.503Z</time>
      </trkpt>
      <trkpt lat="48.41629" lon="-4.54499">
        <ele>124.002954</ele>
        <time>2022-12-09T15:23:04.516Z</time>
      </trkpt>
      <trkpt lat="48.41622" lon="-4.5449">
        <ele>123.513675</ele>
        <time>2022-12-09T15:23:06.511Z</time>
      </trkpt>
      <trkpt lat="48.41613" lon="-4.54483">
        <ele>123.010785</ele>
        <time>2022-12-09T15:23:08.499Z</time>
      </trkpt>
      <trkpt lat="48.41604" lon="-4.54474">
        <ele>122.508597</ele>
        <time>2022-12-09T15:23:10.520Z</time>
      </trkpt>
      <trkpt lat="48.41596" lon="-4.54466">
        <ele>122.021355</ele>
        <time>2022-12-09T15:23:12.525Z</time>
      </trkpt>
      <trkpt lat="48.41589" lon="-4.54457">
        <ele>121.543927</ele>
        <time>2022-12-09T15:23:14.521Z</time>
      </trkpt>
      <trkpt lat="48.41581" lon="-4.54447">
        <ele>121.050896</ele>
        <time>2022-12-09T15:23:16.520Z</time>
      </trkpt>
      <trkpt lat="48.41573" lon="-4.54438">
        <ele>120.534014</ele>
        <time>2022-12-09T15:23:18.506Z</time>
      </trkpt>
      <trkpt lat="48.41564" lon="-4.54428">
        <ele>119.991799</ele>
        <time>2022-12-09T15:23:20.520Z</time>
      </trkpt>
      <trkpt lat="48.41555" lon="-4.54417">
        <ele>119.400199</ele>
        <time>2022-12-09T15:23:22.519Z</time>
      </trkpt>
      <trkpt lat="48.41546" lon="-4.54407">
        <ele>118.800178</ele>
        <time>2022-12-09T15:23:24.520Z</time>
      </trkpt>
      <trkpt lat="48.41538" lon="-4.54396">
        <ele>118.205803</ele>
        <time>2022-12-09T15:23:26.519Z</time>
      </trkpt>
      <trkpt lat="48.41529" lon="-4.54386">
        <ele>117.631215</ele>
        <time>2022-12-09T15:23:28.516Z</time>
      </trkpt>
      <trkpt lat="48.4152" lon="-4.54377">
        <ele>117.05662</ele>
        <time>2022-12-09T15:23:30.522Z</time>
      </trkpt>
      <trkpt lat="48.41512" lon="-4.54367">
        <ele>116.47353</ele>
        <time>2022-12-09T15:23:32.506Z</time>
      </trkpt>
      <trkpt lat="48.41503" lon="-4.54356">
        <ele>115.894423</ele>
        <time>2022-12-09T15:23:34.516Z</time>
      </trkpt>
      <trkpt lat="48.41495" lon="-4.54347">
        <ele>115.345104</ele>
        <time>2022-12-09T15:23:36.521Z</time>
      </trkpt>
      <trkpt lat="48.41487" lon="-4.54337">
        <ele>114.789147</ele>
        <time>2022-12-09T15:23:38.521Z</time>
      </trkpt>
      <trkpt lat="48.41479" lon="-4.54326">
        <ele>114.220507</ele>
        <time>2022-12-09T15:23:40.520Z</time>
      </trkpt>
      <trkpt lat="48.4147" lon="-4.54315">
        <ele>113.613459</ele>
        <time>2022-12-09T15:23:42.516Z</time>
      </trkpt>
      <trkpt lat="48.41461" lon="-4.54305">
        <ele>113.026152</ele>
        <time>2022-12-09T15:23:44.510Z</time>
      </trkpt>
      <trkpt lat="48.41452" lon="-4.54295">
        <ele>112.421838</ele>
        <time>2022-12-09T15:23:46.514Z</time>
      </trkpt>
      <trkpt lat="48.41443" lon="-4.54284">
        <ele>111.817343</ele>
        <time>2022-12-09T15:23:48.519Z</time>
      </trkpt>
      <trkpt lat="48.41435" lon="-4.54274">
        <ele>111.22745</ele>
        <time>2022-12-09T15:23:50.518Z</time>
      </trkpt>
      <trkpt lat="48.41426" lon="-4.54263">
        <ele>110.651535</ele>
        <time>2022-12-09T15:23:52.498Z</time>
      </trkpt>
      <trkpt lat="48.41418" lon="-4.54252">
        <ele>110.142599</ele>
        <time>2022-12-09T15:23:54.515Z</time>
      </trkpt>
      <trkpt lat="48.4141" lon="-4.5424">
        <ele>109.639748</ele>
        <time>2022-12-09T15:23:56.499Z</time>
      </trkpt>
      <trkpt lat="48.41401" lon="-4.5423">
        <ele>109.133237</ele>
        <time>2022-12-09T15:23:58.503Z</time>
      </trkpt>
      <trkpt lat="48.41393" lon="-4.54218">
        <ele>108.633187</ele>
        <time>2022-12-09T15:24:00.503Z</time>
      </trkpt>
      <trkpt lat="48.41384" lon="-4.54207">
        <ele>108.12788</ele>
        <time>2022-12-09T15:24:02.506Z</time>
      </trkpt>
      <trkpt lat="48.41376" lon="-4.54195">
        <ele>107.608767</ele>
        <time>2022-12-09T15:24:04.514Z</time>
      </trkpt>
      <trkpt lat="48.41368" lon="-4.54184">
        <ele>107.12973</ele>
        <time>2022-12-09T15:24:06.498Z</time>
      </trkpt>
      <trkpt lat="48.41359" lon="-4.54173">
        <ele>106.634247</ele>
        <time>2022-12-09T15:24:08.506Z</time>
      </trkpt>
      <trkpt lat="48.41352" lon="-4.54161">
        <ele>106.158663</ele>
        <time>2022-12-09T15:24:10.502Z</time>
      </trkpt>
      <trkpt lat="48.41343" lon="-4.5415">
        <ele>105.659278</ele>
        <time>2022-12-09T15:24:12.495Z</time>
      </trkpt>
      <trkpt lat="48.41335" lon="-4.54139">
        <ele>105.178228</ele>
        <time>2022-12-09T15:24:14.522Z</time>
      </trkpt>
      <trkpt lat="48.41328" lon="-4.54127">
        <ele>104.712401</ele>
        <time>2022-12-09T15:24:16.498Z</time>
      </trkpt>
      <trkpt lat="48.41322" lon="-4.54115">
        <ele>104.258285</ele>
        <time>2022-12-09T15:24:18.523Z</time>
      </trkpt>
      <trkpt lat="48.41314" lon="-4.54105">
        <ele>103.815959</ele>
        <time>2022-12-09T15:24:20.516Z</time>
      </trkpt>
      <trkpt lat="48.41308" lon="-4.54095">
        <ele>103.396672</ele>
        <time>2022-12-09T15:24:22.520Z</time>
      </trkpt>
      <trkpt lat="48.41301" lon="-4.54085">
        <ele>102.988666</ele>
        <time>2022-12-09T15:24:24.524Z</time>
      </trkpt>
      <trkpt lat="48.41292" lon="-4.54071">
        <ele>102.370457</ele>
        <time>2022-12-09T15:24:27.529Z</time>
      </trkpt>
      <trkpt lat="48.41285" lon="-4.54061">
        <ele>101.889569</ele>
        <time>2022-12-09T15:24:29.516Z</time>
      </trkpt>
      <trkpt lat="48.41277" lon="-4.54052">
        <ele>101.395053</ele>
        <time>2022-12-09T15:24:31.519Z</time>
      </trkpt>
      <trkpt lat="48.4127" lon="-4.54041">
        <ele>100.854805</ele>
        <time>2022-12-09T15:24:33.524Z</time>
      </trkpt>
      <trkpt lat="48.41262" lon="-4.5403">
        <ele>100.31596</ele>
        <time>2022-12-09T15:24:35.499Z</time>
      </trkpt>
      <trkpt lat="48.41255" lon="-4.5402">
        <ele>99.805051</ele>
        <time>2022-12-09T15:24:37.522Z</time>
      </trkpt>
      <trkpt lat="48.41248" lon="-4.54009">
        <ele>99.273594</ele>
        <time>2022-12-09T15:24:39.523Z</time>
      </trkpt>
      <trkpt lat="48.41241" lon="-4.53998">
        <ele>98.78068</ele>
        <time>2022-12-09T15:24:41.516Z</time>
      </trkpt>
      <trkpt lat="48.41234" lon="-4.53986">
        <ele>98.227631</ele>
        <time>2022-12-09T15:24:43.527Z</time>
      </trkpt>
      <trkpt lat="48.41227" lon="-4.53974">
        <ele>97.686295</ele>
        <time>2022-12-09T15:24:45.524Z</time>
      </trkpt>
      <trkpt lat="48.41219" lon="-4.53962">
        <ele>97.125481</ele>
        <time>2022-12-09T15:24:47.523Z</time>
      </trkpt>
      <trkpt lat="48.41211" lon="-4.53951">
        <ele>96.547851</ele>
        <time>2022-12-09T15:24:49.508Z</time>
      </trkpt>
      <trkpt lat="48.41203" lon="-4.53939">
        <ele>95.970527</ele>
        <time>2022-12-09T15:24:51.508Z</time>
      </trkpt>
      <trkpt lat="48.41195" lon="-4.53928">
        <ele>95.418109</ele>
        <time>2022-12-09T15:24:53.517Z</time>
      </trkpt>
      <trkpt lat="48.41188" lon="-4.53916">
        <ele>94.866135</ele>
        <time>2022-12-09T15:24:55.515Z</time>
      </trkpt>
      <trkpt lat="48.4118" lon="-4.53904">
        <ele>94.294857</ele>
        <time>2022-12-09T15:24:57.509Z</time>
      </trkpt>
      <trkpt lat="48.41172" lon="-4.53893">
        <ele>93.7223</ele>
        <time>2022-12-09T15:24:59.512Z</time>
      </trkpt>
      <trkpt lat="48.41164" lon="-4.5388">
        <ele>93.154319</ele>
        <time>2022-12-09T15:25:01.511Z</time>
      </trkpt>
      <trkpt lat="48.41157" lon="-4.53869">
        <ele>92.645964</ele>
        <time>2022-12-09T15:25:03.522Z</time>
      </trkpt>
      <trkpt lat="48.41149" lon="-4.53858">
        <ele>92.15221</ele>
        <time>2022-12-09T15:25:05.524Z</time>
      </trkpt>
      <trkpt lat="48.41142" lon="-4.53847">
        <ele>91.660662</ele>
        <time>2022-12-09T15:25:07.498Z</time>
      </trkpt>
      <trkpt lat="48.41135" lon="-4.53836">
        <ele>91.184718</ele>
        <time>2022-12-09T15:25:09.521Z</time>
      </trkpt>
      <trkpt lat="48.41128" lon="-4.53825">
        <ele>90.718675</ele>
        <time>2022-12-09T15:25:11.521Z</time>
      </trkpt>
      <trkpt lat="48.41121" lon="-4.53814">
        <ele>90.227129</ele>
        <time>2022-12-09T15:25:13.524Z</time>
      </trkpt>
      <trkpt lat="48.41114" lon="-4.53804">
        <ele>89.750147</ele>
        <time>2022-12-09T15:25:15.521Z</time>
      </trkpt>
      <trkpt lat="48.41107" lon="-4.53793">
        <ele>89.273165</ele>
        <time>2022-12-09T15:25:17.512Z</time>
      </trkpt>
      <trkpt lat="48.411" lon="-4.53781">
        <ele>88.793882</ele>
        <time>2022-12-09T15:25:19.495Z</time>
      </trkpt>
      <trkpt lat="48.41093" lon="-4.5377">
        <ele>88.304283</ele>
        <time>2022-12-09T15:25:21.520Z</time>
      </trkpt>
      <trkpt lat="48.41086" lon="-4.53758">
        <ele>87.805352</ele>
        <time>2022-12-09T15:25:23.504Z</time>
      </trkpt>
      <trkpt lat="48.41079" lon="-4.53747">
        <ele>87.301409</ele>
        <time>2022-12-09T15:25:25.520Z</time>
      </trkpt>
      <trkpt lat="48.41072" lon="-4.53735">
        <ele>86.789094</ele>
        <time>2022-12-09T15:25:27.515Z</time>
      </trkpt>
      <trkpt lat="48.41065" lon="-4.53722">
        <ele>86.278967</ele>
        <time>2022-12-09T15:25:29.505Z</time>
      </trkpt>
      <trkpt lat="48.41058" lon="-4.5371">
        <ele>85.785548</ele>
        <time>2022-12-09T15:25:31.514Z</time>
      </trkpt>
      <trkpt lat="48.41052" lon="-4.53699">
        <ele>85.327995</ele>
        <time>2022-12-09T15:25:33.499Z</time>
      </trkpt>
      <trkpt lat="48.41047" lon="-4.53687">
        <ele>84.878567</ele>
        <time>2022-12-09T15:25:35.495Z</time>
      </trkpt>
      <trkpt lat="48.41041" lon="-4.53676">
        <ele>84.494333</ele>
        <time>2022-12-09T15:25:37.518Z</time>
      </trkpt>
      <trkpt lat="48.41037" lon="-4.53664">
        <ele>84.124248</ele>
        <time>2022-12-09T15:25:39.510Z</time>
      </trkpt>
      <trkpt lat="48.41032" lon="-4.53651">
        <ele>83.749547</ele>
        <time>2022-12-09T15:25:41.523Z</time>
      </trkpt>
      <trkpt lat="48.41028" lon="-4.53639">
        <ele>83.369799</ele>
        <time>2022-12-09T15:25:43.524Z</time>
      </trkpt>
      <trkpt lat="48.41022" lon="-4.53622">
        <ele>82.885682</ele>
        <time>2022-12-09T15:25:46.522Z</time>
      </trkpt>
      <trkpt lat="48.4102" lon="-4.53608">
        <ele>82.483748</ele>
        <time>2022-12-09T15:25:49.521Z</time>
      </trkpt>
      <trkpt lat="48.41016" lon="-4.53593">
        <ele>82.068081</ele>
        <time>2022-12-09T15:25:52.504Z</time>
      </trkpt>
      <trkpt lat="48.41015" lon="-4.53579">
        <ele>81.689083</ele>
        <time>2022-12-09T15:25:54.497Z</time>
      </trkpt>
      <trkpt lat="48.41012" lon="-4.53564">
        <ele>81.275713</ele>
        <time>2022-12-09T15:25:56.504Z</time>
      </trkpt>
      <trkpt lat="48.41009" lon="-4.53548">
        <ele>80.83945</ele>
        <time>2022-12-09T15:25:58.502Z</time>
      </trkpt>
      <trkpt lat="48.41007" lon="-4.53535">
        <ele>80.463387</ele>
        <time>2022-12-09T15:26:00.517Z</time>
      </trkpt>
      <trkpt lat="48.41005" lon="-4.53521">
        <ele>80.091084</ele>
        <time>2022-12-09T15:26:02.519Z</time>
      </trkpt>
      <trkpt lat="48.41003" lon="-4.53507">
        <ele>79.719939</ele>
        <time>2022-12-09T15:26:04.521Z</time>
      </trkpt>
      <trkpt lat="48.41002" lon="-4.53488">
        <ele>79.206433</ele>
        <time>2022-12-09T15:26:07.518Z</time>
      </trkpt>
      <trkpt lat="48.41002" lon="-4.53468">
        <ele>78.680371</ele>
        <time>2022-12-09T15:26:10.521Z</time>
      </trkpt>
      <trkpt lat="48.41001" lon="-4.53448">
        <ele>78.160104</ele>
        <time>2022-12-09T15:26:13.519Z</time>
      </trkpt>
      <trkpt lat="48.41003" lon="-4.53429">
        <ele>77.645976</ele>
        <time>2022-12-09T15:26:16.518Z</time>
      </trkpt>
      <trkpt lat="48.41004" lon="-4.53416">
        <ele>77.271184</ele>
        <time>2022-12-09T15:26:18.524Z</time>
      </trkpt>
      <trkpt lat="48.41005" lon="-4.53397">
        <ele>76.763073</ele>
        <time>2022-12-09T15:26:21.524Z</time>
      </trkpt>
      <trkpt lat="48.41008" lon="-4.5338">
        <ele>76.263399</ele>
        <time>2022-12-09T15:26:24.532Z</time>
      </trkpt>
      <trkpt lat="48.41011" lon="-4.53362">
        <ele>75.762667</ele>
        <time>2022-12-09T15:26:27.520Z</time>
      </trkpt>
      <trkpt lat="48.41014" lon="-4.53344">
        <ele>75.251239</ele>
        <time>2022-12-09T15:26:30.498Z</time>
      </trkpt>
      <trkpt lat="48.41015" lon="-4.53331">
        <ele>74.867856</ele>
        <time>2022-12-09T15:26:32.519Z</time>
      </trkpt>
      <trkpt lat="48.41018" lon="-4.53317">
        <ele>74.493243</ele>
        <time>2022-12-09T15:26:34.522Z</time>
      </trkpt>
      <trkpt lat="48.41022" lon="-4.53299">
        <ele>73.961498</ele>
        <time>2022-12-09T15:26:37.522Z</time>
      </trkpt>
      <trkpt lat="48.41028" lon="-4.53281">
        <ele>73.41015</ele>
        <time>2022-12-09T15:26:40.497Z</time>
      </trkpt>
      <trkpt lat="48.41035" lon="-4.53265">
        <ele>72.875693</ele>
        <time>2022-12-09T15:26:43.520Z</time>
      </trkpt>
      <trkpt lat="48.41041" lon="-4.53253">
        <ele>72.453707</ele>
        <time>2022-12-09T15:26:47.520Z</time>
      </trkpt>
      <trkpt lat="48.41046" lon="-4.5324">
        <ele>72.043713</ele>
        <time>2022-12-09T15:26:52.498Z</time>
      </trkpt>
      <trkpt lat="48.4105" lon="-4.53227">
        <ele>71.6338</ele>
        <time>2022-12-09T15:26:55.523Z</time>
      </trkpt>
      <trkpt lat="48.41058" lon="-4.5321">
        <ele>71.073378</ele>
        <time>2022-12-09T15:26:58.512Z</time>
      </trkpt>
      <trkpt lat="48.41064" lon="-4.53198">
        <ele>70.655161</ele>
        <time>2022-12-09T15:27:00.498Z</time>
      </trkpt>
      <trkpt lat="48.4107" lon="-4.53187">
        <ele>70.248199</ele>
        <time>2022-12-09T15:27:02.522Z</time>
      </trkpt>
      <trkpt lat="48.41076" lon="-4.53174">
        <ele>69.799735</ele>
        <time>2022-12-09T15:27:04.516Z</time>
      </trkpt>
      <trkpt lat="48.41083" lon="-4.53163">
        <ele>69.353437</ele>
        <time>2022-12-09T15:27:06.531Z</time>
      </trkpt>
      <trkpt lat="48.41089" lon="-4.5315">
        <ele>68.895257</ele>
        <time>2022-12-09T15:27:08.525Z</time>
      </trkpt>
      <trkpt lat="48.41095" lon="-4.53139">
        <ele>68.476484</ele>
        <time>2022-12-09T15:27:10.513Z</time>
      </trkpt>
      <trkpt lat="48.41101" lon="-4.53129">
        <ele>68.067811</ele>
        <time>2022-12-09T15:27:12.517Z</time>
      </trkpt>
      <trkpt lat="48.41108" lon="-4.53119">
        <ele>67.659749</ele>
        <time>2022-12-09T15:27:14.520Z</time>
      </trkpt>
      <trkpt lat="48.41114" lon="-4.53108">
        <ele>67.241381</ele>
        <time>2022-12-09T15:27:16.521Z</time>
      </trkpt>
      <trkpt lat="48.4112" lon="-4.53097">
        <ele>66.817569</ele>
        <time>2022-12-09T15:27:18.521Z</time>
      </trkpt>
      <trkpt lat="48.41127" lon="-4.53086">
        <ele>66.382747</ele>
        <time>2022-12-09T15:27:20.523Z</time>
      </trkpt>
      <trkpt lat="48.41134" lon="-4.53076">
        <ele>65.964333</ele>
        <time>2022-12-09T15:27:22.501Z</time>
      </trkpt>
      <trkpt lat="48.41141" lon="-4.53067">
        <ele>65.556378</ele>
        <time>2022-12-09T15:27:24.499Z</time>
      </trkpt>
      <trkpt lat="48.41149" lon="-4.5306">
        <ele>65.158684</ele>
        <time>2022-12-09T15:27:26.501Z</time>
      </trkpt>
      <trkpt lat="48.4116" lon="-4.53049">
        <ele>64.572459</ele>
        <time>2022-12-09T15:27:29.522Z</time>
      </trkpt>
      <trkpt lat="48.4117" lon="-4.53039">
        <ele>64.034636</ele>
        <time>2022-12-09T15:27:32.522Z</time>
      </trkpt>
      <trkpt lat="48.41178" lon="-4.53024">
        <ele>63.468064</ele>
        <time>2022-12-09T15:27:35.498Z</time>
      </trkpt>
      <trkpt lat="48.41183" lon="-4.53007">
        <ele>62.93639</ele>
        <time>2022-12-09T15:27:38.501Z</time>
      </trkpt>
      <trkpt lat="48.41185" lon="-4.52994">
        <ele>62.534653</ele>
        <time>2022-12-09T15:27:41.516Z</time>
      </trkpt>
      <trkpt lat="48.41191" lon="-4.52981">
        <ele>62.053032</ele>
        <time>2022-12-09T15:27:45.502Z</time>
      </trkpt>
      <trkpt lat="48.41199" lon="-4.52966">
        <ele>61.280762</ele>
        <time>2022-12-09T15:27:49.501Z</time>
      </trkpt>
      <trkpt lat="48.41208" lon="-4.52954">
        <ele>60.546166</ele>
        <time>2022-12-09T15:27:52.497Z</time>
      </trkpt>
      <trkpt lat="48.41217" lon="-4.52946">
        <ele>59.861235</ele>
        <time>2022-12-09T15:27:55.521Z</time>
      </trkpt>
      <trkpt lat="48.41225" lon="-4.52935">
        <ele>59.181716</ele>
        <time>2022-12-09T15:27:59.529Z</time>
      </trkpt>
      <trkpt lat="48.4122" lon="-4.52922">
        <ele>58.599111</ele>
        <time>2022-12-09T15:28:02.498Z</time>
      </trkpt>
      <trkpt lat="48.41213" lon="-4.52911">
        <ele>57.93093</ele>
        <time>2022-12-09T15:28:05.495Z</time>
      </trkpt>
      <trkpt lat="48.41204" lon="-4.52897">
        <ele>57.147757</ele>
        <time>2022-12-09T15:28:08.515Z</time>
      </trkpt>
      <trkpt lat="48.41198" lon="-4.52886">
        <ele>56.560188</ele>
        <time>2022-12-09T15:28:10.520Z</time>
      </trkpt>
      <trkpt lat="48.41191" lon="-4.52875">
        <ele>55.958248</ele>
        <time>2022-12-09T15:28:12.520Z</time>
      </trkpt>
      <trkpt lat="48.41187" lon="-4.52862">
        <ele>55.335643</ele>
        <time>2022-12-09T15:28:14.515Z</time>
      </trkpt>
      <trkpt lat="48.41185" lon="-4.52848">
        <ele>54.74176</ele>
        <time>2022-12-09T15:28:16.497Z</time>
      </trkpt>
      <trkpt lat="48.41186" lon="-4.52833">
        <ele>54.124033</ele>
        <time>2022-12-09T15:28:18.502Z</time>
      </trkpt>
      <trkpt lat="48.41188" lon="-4.52816">
        <ele>53.408485</ele>
        <time>2022-12-09T15:28:21.510Z</time>
      </trkpt>
      <trkpt lat="48.41185" lon="-4.52801">
        <ele>52.780631</ele>
        <time>2022-12-09T15:28:24.503Z</time>
      </trkpt>
      <trkpt lat="48.41178" lon="-4.52787">
        <ele>52.067138</ele>
        <time>2022-12-09T15:28:27.518Z</time>
      </trkpt>
      <trkpt lat="48.4117" lon="-4.52773">
        <ele>51.324166</ele>
        <time>2022-12-09T15:28:30.522Z</time>
      </trkpt>
      <trkpt lat="48.41163" lon="-4.5276">
        <ele>51.057257</ele>
        <time>2022-12-09T15:28:33.508Z</time>
      </trkpt>
      <trkpt lat="48.41159" lon="-4.52745">
        <ele>51.183701</ele>
        <time>2022-12-09T15:28:37.520Z</time>
      </trkpt>
      <trkpt lat="48.41156" lon="-4.52731">
        <ele>51.291904</ele>
        <time>2022-12-09T15:28:41.521Z</time>
      </trkpt>
      <trkpt lat="48.41149" lon="-4.5272">
        <ele>51.412801</ele>
        <time>2022-12-09T15:28:46.502Z</time>
      </trkpt>
      <trkpt lat="48.41143" lon="-4.52709">
        <ele>51.51738</ele>
        <time>2022-12-09T15:28:51.519Z</time>
      </trkpt>
      <trkpt lat="48.41135" lon="-4.52701">
        <ele>51.625625</ele>
        <time>2022-12-09T15:29:09.505Z</time>
      </trkpt>
      <trkpt lat="48.41125" lon="-4.52701">
        <ele>51.737089</ele>
        <time>2022-12-09T15:29:14.518Z</time>
      </trkpt>
      <trkpt lat="48.41115" lon="-4.52701">
        <ele>51.857638</ele>
        <time>2022-12-09T15:29:17.521Z</time>
      </trkpt>
      <trkpt lat="48.41105" lon="-4.527">
        <ele>51.968151</ele>
        <time>2022-12-09T15:29:19.513Z</time>
      </trkpt>
      <trkpt lat="48.41096" lon="-4.52696">
        <ele>52.076161</ele>
        <time>2022-12-09T15:29:21.518Z</time>
      </trkpt>
      <trkpt lat="48.41084" lon="-4.52687">
        <ele>52.223852</ele>
        <time>2022-12-09T15:29:24.499Z</time>
      </trkpt>
      <trkpt lat="48.41073" lon="-4.5268">
        <ele>52.362925</ele>
        <time>2022-12-09T15:29:27.518Z</time>
      </trkpt>
      <trkpt lat="48.41062" lon="-4.52674">
        <ele>52.499941</ele>
        <time>2022-12-09T15:29:30.503Z</time>
      </trkpt>
      <trkpt lat="48.4105" lon="-4.52668">
        <ele>52.638584</ele>
        <time>2022-12-09T15:29:33.512Z</time>
      </trkpt>
      <trkpt lat="48.41039" lon="-4.52661">
        <ele>52.772455</ele>
        <time>2022-12-09T15:29:36.520Z</time>
      </trkpt>
      <trkpt lat="48.41028" lon="-4.52653">
        <ele>52.907374</ele>
        <time>2022-12-09T15:29:39.505Z</time>
      </trkpt>
      <trkpt lat="48.41018" lon="-4.52648">
        <ele>53.031982</ele>
        <time>2022-12-09T15:29:42.501Z</time>
      </trkpt>
      <trkpt lat="48.41007" lon="-4.52646">
        <ele>53.028084</ele>
        <time>2022-12-09T15:29:46.512Z</time>
      </trkpt>
      <trkpt lat="48.40997" lon="-4.52642">
        <ele>53.019487</ele>
        <time>2022-12-09T15:29:50.496Z</time>
      </trkpt>
      <trkpt lat="48.40988" lon="-4.52636">
        <ele>53.01141</ele>
        <time>2022-12-09T15:29:55.509Z</time>
      </trkpt>
      <trkpt lat="48.40985" lon="-4.52624">
        <ele>53.003455</ele>
        <time>2022-12-09T15:29:59.507Z</time>
      </trkpt>
      <trkpt lat="48.40985" lon="-4.5261">
        <ele>52.995688</ele>
        <time>2022-12-09T15:30:02.505Z</time>
      </trkpt>
      <trkpt lat="48.40986" lon="-4.52596">
        <ele>52.987768</ele>
        <time>2022-12-09T15:30:05.501Z</time>
      </trkpt>
      <trkpt lat="48.4099" lon="-4.52583">
        <ele>52.979676</ele>
        <time>2022-12-09T15:30:08.498Z</time>
      </trkpt>
      <trkpt lat="48.40992" lon="-4.52569">
        <ele>52.971766</ele>
        <time>2022-12-09T15:30:11.502Z</time>
      </trkpt>
      <trkpt lat="48.40984" lon="-4.52557">
        <ele>52.96226</ele>
        <time>2022-12-09T15:30:15.517Z</time>
      </trkpt>
      <trkpt lat="48.40976" lon="-4.52545">
        <ele>52.952934</ele>
        <time>2022-12-09T15:30:19.514Z</time>
      </trkpt>
      <trkpt lat="48.40972" lon="-4.52529">
        <ele>52.943601</ele>
        <time>2022-12-09T15:30:22.499Z</time>
      </trkpt>
      <trkpt lat="48.40971" lon="-4.52512">
        <ele>52.933874</ele>
        <time>2022-12-09T15:30:25.499Z</time>
      </trkpt>
      <trkpt lat="48.40972" lon="-4.52496">
        <ele>52.924911</ele>
        <time>2022-12-09T15:30:28.503Z</time>
      </trkpt>
      <trkpt lat="48.40974" lon="-4.5248">
        <ele>52.915592</ele>
        <time>2022-12-09T15:30:31.520Z</time>
      </trkpt>
      <trkpt lat="48.40975" lon="-4.52465">
        <ele>52.907132</ele>
        <time>2022-12-09T15:30:34.523Z</time>
      </trkpt>
      <trkpt lat="48.40977" lon="-4.5245">
        <ele>52.898743</ele>
        <time>2022-12-09T15:30:37.524Z</time>
      </trkpt>
      <trkpt lat="48.40981" lon="-4.52437">
        <ele>52.890922</ele>
        <time>2022-12-09T15:30:40.521Z</time>
      </trkpt>
      <trkpt lat="48.40983" lon="-4.52424">
        <ele>52.894596</ele>
        <time>2022-12-09T15:30:43.517Z</time>
      </trkpt>
      <trkpt lat="48.40986" lon="-4.5241">
        <ele>52.9384</ele>
        <time>2022-12-09T15:30:46.519Z</time>
      </trkpt>
      <trkpt lat="48.40987" lon="-4.52394">
        <ele>52.983619</ele>
        <time>2022-12-09T15:30:49.501Z</time>
      </trkpt>
      <trkpt lat="48.40989" lon="-4.5238">
        <ele>53.027677</ele>
        <time>2022-12-09T15:30:52.505Z</time>
      </trkpt>
      <trkpt lat="48.40992" lon="-4.52364">
        <ele>53.076693</ele>
        <time>2022-12-09T15:30:55.520Z</time>
      </trkpt>
      <trkpt lat="48.40994" lon="-4.5235">
        <ele>53.116681</ele>
        <time>2022-12-09T15:30:58.510Z</time>
      </trkpt>
      <trkpt lat="48.40997" lon="-4.52334">
        <ele>53.165936</ele>
        <time>2022-12-09T15:31:02.522Z</time>
      </trkpt>
      <trkpt lat="48.40998" lon="-4.52318">
        <ele>53.213023</ele>
        <time>2022-12-09T15:31:06.519Z</time>
      </trkpt>
      <trkpt lat="48.40999" lon="-4.52302">
        <ele>53.259983</ele>
        <time>2022-12-09T15:31:09.499Z</time>
      </trkpt>
      <trkpt lat="48.41001" lon="-4.52288">
        <ele>53.303617</ele>
        <time>2022-12-09T15:31:12.498Z</time>
      </trkpt>
      <trkpt lat="48.40999" lon="-4.52272">
        <ele>53.351326</ele>
        <time>2022-12-09T15:31:16.502Z</time>
      </trkpt>
      <trkpt lat="48.4099" lon="-4.52273">
        <ele>53.393018</ele>
        <time>2022-12-09T15:31:20.505Z</time>
      </trkpt>
      <trkpt lat="48.40983" lon="-4.52283">
        <ele>53.437058</ele>
        <time>2022-12-09T15:31:24.498Z</time>
      </trkpt>
      <trkpt lat="48.40977" lon="-4.52295">
        <ele>53.48217</ele>
        <time>2022-12-09T15:31:28.497Z</time>
      </trkpt>
      <trkpt lat="48.40969" lon="-4.52305">
        <ele>53.526173</ele>
        <time>2022-12-09T15:31:33.517Z</time>
      </trkpt>
      <trkpt lat="48.40961" lon="-4.5231">
        <ele>53.566671</ele>
        <time>2022-12-09T15:31:38.496Z</time>
      </trkpt>
      <trkpt lat="48.40952" lon="-4.52319">
        <ele>53.612942</ele>
        <time>2022-12-09T15:31:42.517Z</time>
      </trkpt>
      <trkpt lat="48.40947" lon="-4.52332">
        <ele>53.657256</ele>
        <time>2022-12-09T15:31:46.500Z</time>
      </trkpt>
      <trkpt lat="48.40941" lon="-4.52347">
        <ele>53.495578</ele>
        <time>2022-12-09T15:31:50.538Z</time>
      </trkpt>
      <trkpt lat="48.40935" lon="-4.52362">
        <ele>53.138329</ele>
        <time>2022-12-09T15:31:54.516Z</time>
      </trkpt>
      <trkpt lat="48.40929" lon="-4.52375">
        <ele>52.826881</ele>
        <time>2022-12-09T15:31:57.500Z</time>
      </trkpt>
      <trkpt lat="48.40922" lon="-4.52388">
        <ele>52.485168</ele>
        <time>2022-12-09T15:32:00.527Z</time>
      </trkpt>
      <trkpt lat="48.40913" lon="-4.52398">
        <ele>52.161194</ele>
        <time>2022-12-09T15:32:03.499Z</time>
      </trkpt>
      <trkpt lat="48.40903" lon="-4.52406">
        <ele>51.801134</ele>
        <time>2022-12-09T15:32:07.506Z</time>
      </trkpt>
      <trkpt lat="48.40892" lon="-4.52411">
        <ele>51.46302</ele>
        <time>2022-12-09T15:32:10.512Z</time>
      </trkpt>
      <trkpt lat="48.40882" lon="-4.52413">
        <ele>51.16743</ele>
        <time>2022-12-09T15:32:13.498Z</time>
      </trkpt>
      <trkpt lat="48.40871" lon="-4.52415">
        <ele>50.805987</ele>
        <time>2022-12-09T15:32:17.519Z</time>
      </trkpt>
      <trkpt lat="48.40861" lon="-4.52414">
        <ele>50.509195</ele>
        <time>2022-12-09T15:32:20.520Z</time>
      </trkpt>
      <trkpt lat="48.40849" lon="-4.52415">
        <ele>50.167118</ele>
        <time>2022-12-09T15:32:23.525Z</time>
      </trkpt>
      <trkpt lat="48.40839" lon="-4.52414">
        <ele>49.845653</ele>
        <time>2022-12-09T15:32:26.516Z</time>
      </trkpt>
      <trkpt lat="48.40826" lon="-4.52412">
        <ele>49.45916</ele>
        <time>2022-12-09T15:32:29.499Z</time>
      </trkpt>
      <trkpt lat="48.40814" lon="-4.52409">
        <ele>49.097906</ele>
        <time>2022-12-09T15:32:32.521Z</time>
      </trkpt>
      <trkpt lat="48.40802" lon="-4.52405">
        <ele>48.711532</ele>
        <time>2022-12-09T15:32:35.519Z</time>
      </trkpt>
      <trkpt lat="48.4079" lon="-4.524">
        <ele>48.337055</ele>
        <time>2022-12-09T15:32:38.521Z</time>
      </trkpt>
      <trkpt lat="48.40777" lon="-4.52397">
        <ele>48.229267</ele>
        <time>2022-12-09T15:32:41.518Z</time>
      </trkpt>
      <trkpt lat="48.40766" lon="-4.52394">
        <ele>48.219261</ele>
        <time>2022-12-09T15:32:44.523Z</time>
      </trkpt>
      <trkpt lat="48.40756" lon="-4.52392">
        <ele>48.211008</ele>
        <time>2022-12-09T15:32:47.510Z</time>
      </trkpt>
      <trkpt lat="48.40744" lon="-4.52389">
        <ele>48.201422</ele>
        <time>2022-12-09T15:32:50.510Z</time>
      </trkpt>
      <trkpt lat="48.40732" lon="-4.52388">
        <ele>48.191415</ele>
        <time>2022-12-09T15:32:53.522Z</time>
      </trkpt>
      <trkpt lat="48.4072" lon="-4.52388">
        <ele>48.18093</ele>
        <time>2022-12-09T15:32:56.521Z</time>
      </trkpt>
      <trkpt lat="48.40708" lon="-4.52389">
        <ele>48.171009</ele>
        <time>2022-12-09T15:32:59.517Z</time>
      </trkpt>
      <trkpt lat="48.40699" lon="-4.5239">
        <ele>48.163255</ele>
        <time>2022-12-09T15:33:01.512Z</time>
      </trkpt>
      <trkpt lat="48.40689" lon="-4.5239">
        <ele>48.155432</ele>
        <time>2022-12-09T15:33:03.519Z</time>
      </trkpt>
      <trkpt lat="48.40679" lon="-4.5239">
        <ele>48.146861</ele>
        <time>2022-12-09T15:33:05.521Z</time>
      </trkpt>
      <trkpt lat="48.4067" lon="-4.52387">
        <ele>48.139236</ele>
        <time>2022-12-09T15:33:07.522Z</time>
      </trkpt>
      <trkpt lat="48.4066" lon="-4.52386">
        <ele>48.13122</ele>
        <time>2022-12-09T15:33:09.526Z</time>
      </trkpt>
      <trkpt lat="48.40648" lon="-4.52383">
        <ele>48.120638</ele>
        <time>2022-12-09T15:33:12.520Z</time>
      </trkpt>
      <trkpt lat="48.40638" lon="-4.52378">
        <ele>48.11244</ele>
        <time>2022-12-09T15:33:14.506Z</time>
      </trkpt>
      <trkpt lat="48.4063" lon="-4.52374">
        <ele>48.104846</ele>
        <time>2022-12-09T15:33:16.521Z</time>
      </trkpt>
      <trkpt lat="48.40621" lon="-4.52369">
        <ele>48.097174</ele>
        <time>2022-12-09T15:33:18.522Z</time>
      </trkpt>
      <trkpt lat="48.40612" lon="-4.52365">
        <ele>48.089379</ele>
        <time>2022-12-09T15:33:20.525Z</time>
      </trkpt>
      <trkpt lat="48.40603" lon="-4.52361">
        <ele>48.104781</ele>
        <time>2022-12-09T15:33:22.524Z</time>
      </trkpt>
      <trkpt lat="48.40594" lon="-4.52357">
        <ele>48.127538</ele>
        <time>2022-12-09T15:33:24.522Z</time>
      </trkpt>
      <trkpt lat="48.40585" lon="-4.52353">
        <ele>48.149661</ele>
        <time>2022-12-09T15:33:26.521Z</time>
      </trkpt>
      <trkpt lat="48.40577" lon="-4.52349">
        <ele>48.171989</ele>
        <time>2022-12-09T15:33:28.498Z</time>
      </trkpt>
      <trkpt lat="48.40564" lon="-4.52342">
        <ele>48.204475</ele>
        <time>2022-12-09T15:33:31.518Z</time>
      </trkpt>
      <trkpt lat="48.40551" lon="-4.52336">
        <ele>48.237784</ele>
        <time>2022-12-09T15:33:34.519Z</time>
      </trkpt>
      <trkpt lat="48.40542" lon="-4.52332">
        <ele>48.262113</ele>
        <time>2022-12-09T15:33:36.533Z</time>
      </trkpt>
      <trkpt lat="48.40532" lon="-4.52329">
        <ele>48.286848</ele>
        <time>2022-12-09T15:33:38.516Z</time>
      </trkpt>
      <trkpt lat="48.40523" lon="-4.5232">
        <ele>48.312192</ele>
        <time>2022-12-09T15:33:40.502Z</time>
      </trkpt>
      <trkpt lat="48.40516" lon="-4.52311">
        <ele>48.336499</ele>
        <time>2022-12-09T15:33:43.509Z</time>
      </trkpt>
      <trkpt lat="48.40507" lon="-4.52303">
        <ele>48.361255</ele>
        <time>2022-12-09T15:33:46.509Z</time>
      </trkpt>
      <trkpt lat="48.40497" lon="-4.52296">
        <ele>48.387323</ele>
        <time>2022-12-09T15:33:49.501Z</time>
      </trkpt>
      <trkpt lat="48.40487" lon="-4.52288">
        <ele>48.41531</ele>
        <time>2022-12-09T15:33:52.521Z</time>
      </trkpt>
      <trkpt lat="48.40478" lon="-4.52278">
        <ele>48.443129</ele>
        <time>2022-12-09T15:33:55.505Z</time>
      </trkpt>
      <trkpt lat="48.40468" lon="-4.52266">
        <ele>48.474578</ele>
        <time>2022-12-09T15:33:58.513Z</time>
      </trkpt>
      <trkpt lat="48.40459" lon="-4.52253">
        <ele>48.505439</ele>
        <time>2022-12-09T15:34:01.523Z</time>
      </trkpt>
      <trkpt lat="48.40451" lon="-4.52238">
        <ele>48.576284</ele>
        <time>2022-12-09T15:34:04.505Z</time>
      </trkpt>
      <trkpt lat="48.40445" lon="-4.52227">
        <ele>48.710655</ele>
        <time>2022-12-09T15:34:06.521Z</time>
      </trkpt>
      <trkpt lat="48.40438" lon="-4.52213">
        <ele>48.88912</ele>
        <time>2022-12-09T15:34:09.527Z</time>
      </trkpt>
      <trkpt lat="48.4043" lon="-4.52199">
        <ele>49.056783</ele>
        <time>2022-12-09T15:34:12.528Z</time>
      </trkpt>
      <trkpt lat="48.40423" lon="-4.52187">
        <ele>49.221006</ele>
        <time>2022-12-09T15:34:15.513Z</time>
      </trkpt>
      <trkpt lat="48.40415" lon="-4.52175">
        <ele>49.375391</ele>
        <time>2022-12-09T15:34:18.522Z</time>
      </trkpt>
      <trkpt lat="48.40407" lon="-4.52165">
        <ele>49.522075</ele>
        <time>2022-12-09T15:34:21.499Z</time>
      </trkpt>
      <trkpt lat="48.40398" lon="-4.52158">
        <ele>49.674874</ele>
        <time>2022-12-09T15:34:24.510Z</time>
      </trkpt>
      <trkpt lat="48.40387" lon="-4.52153">
        <ele>49.849128</ele>
        <time>2022-12-09T15:34:27.509Z</time>
      </trkpt>
      <trkpt lat="48.40374" lon="-4.52147">
        <ele>50.041984</ele>
        <time>2022-12-09T15:34:30.517Z</time>
      </trkpt>
      <trkpt lat="48.40362" lon="-4.52141">
        <ele>50.219696</ele>
        <time>2022-12-09T15:34:33.500Z</time>
      </trkpt>
      <trkpt lat="48.4035" lon="-4.52133">
        <ele>50.40641</ele>
        <time>2022-12-09T15:34:36.500Z</time>
      </trkpt>
      <trkpt lat="48.4034" lon="-4.52122">
        <ele>50.592279</ele>
        <time>2022-12-09T15:34:39.510Z</time>
      </trkpt>
      <trkpt lat="48.40331" lon="-4.52111">
        <ele>50.762552</ele>
        <time>2022-12-09T15:34:42.518Z</time>
      </trkpt>
      <trkpt lat="48.40321" lon="-4.52097">
        <ele>50.95154</ele>
        <time>2022-12-09T15:34:45.510Z</time>
      </trkpt>
      <trkpt lat="48.40313" lon="-4.52084">
        <ele>51.126097</ele>
        <time>2022-12-09T15:34:48.520Z</time>
      </trkpt>
      <trkpt lat="48.40307" lon="-4.52069">
        <ele>51.067239</ele>
        <time>2022-12-09T15:34:51.521Z</time>
      </trkpt>
      <trkpt lat="48.40303" lon="-4.52054">
        <ele>50.996567</ele>
        <time>2022-12-09T15:34:54.500Z</time>
      </trkpt>
      <trkpt lat="48.40301" lon="-4.52038">
        <ele>50.932013</ele>
        <time>2022-12-09T15:34:57.507Z</time>
      </trkpt>
      <trkpt lat="48.40301" lon="-4.52024">
        <ele>50.871578</ele>
        <time>2022-12-09T15:35:00.499Z</time>
      </trkpt>
      <trkpt lat="48.403" lon="-4.5201">
        <ele>50.814088</ele>
        <time>2022-12-09T15:35:03.524Z</time>
      </trkpt>
      <trkpt lat="48.40298" lon="-4.51996">
        <ele>50.753959</ele>
        <time>2022-12-09T15:35:06.521Z</time>
      </trkpt>
      <trkpt lat="48.40295" lon="-4.51981">
        <ele>50.689674</ele>
        <time>2022-12-09T15:35:09.519Z</time>
      </trkpt>
      <trkpt lat="48.40293" lon="-4.51964">
        <ele>50.616854</ele>
        <time>2022-12-09T15:35:12.521Z</time>
      </trkpt>
      <trkpt lat="48.4029" lon="-4.51951">
        <ele>50.559721</ele>
        <time>2022-12-09T15:35:14.499Z</time>
      </trkpt>
      <trkpt lat="48.40287" lon="-4.51938">
        <ele>50.499817</ele>
        <time>2022-12-09T15:35:16.523Z</time>
      </trkpt>
      <trkpt lat="48.40282" lon="-4.51924">
        <ele>50.438563</ele>
        <time>2022-12-09T15:35:18.509Z</time>
      </trkpt>
      <trkpt lat="48.40276" lon="-4.51912">
        <ele>50.373845</ele>
        <time>2022-12-09T15:35:20.509Z</time>
      </trkpt>
      <trkpt lat="48.40269" lon="-4.51901">
        <ele>50.307992</ele>
        <time>2022-12-09T15:35:22.498Z</time>
      </trkpt>
      <trkpt lat="48.40261" lon="-4.51891">
        <ele>50.243316</ele>
        <time>2022-12-09T15:35:24.497Z</time>
      </trkpt>
      <trkpt lat="48.40253" lon="-4.51882">
        <ele>50.180646</ele>
        <time>2022-12-09T15:35:26.501Z</time>
      </trkpt>
      <trkpt lat="48.40245" lon="-4.51872">
        <ele>50.116101</ele>
        <time>2022-12-09T15:35:28.514Z</time>
      </trkpt>
      <trkpt lat="48.40237" lon="-4.51864">
        <ele>50.057807</ele>
        <time>2022-12-09T15:35:30.517Z</time>
      </trkpt>
      <trkpt lat="48.4023" lon="-4.51856">
        <ele>50.012731</ele>
        <time>2022-12-09T15:35:32.523Z</time>
      </trkpt>
      <trkpt lat="48.40219" lon="-4.51846">
        <ele>50.1252</ele>
        <time>2022-12-09T15:35:35.503Z</time>
      </trkpt>
      <trkpt lat="48.40209" lon="-4.51838">
        <ele>50.225412</ele>
        <time>2022-12-09T15:35:38.508Z</time>
      </trkpt>
      <trkpt lat="48.40198" lon="-4.51831">
        <ele>50.323329</ele>
        <time>2022-12-09T15:35:41.517Z</time>
      </trkpt>
      <trkpt lat="48.40188" lon="-4.51822">
        <ele>50.423548</ele>
        <time>2022-12-09T15:35:44.522Z</time>
      </trkpt>
      <trkpt lat="48.40179" lon="-4.51813">
        <ele>50.519079</ele>
        <time>2022-12-09T15:35:47.522Z</time>
      </trkpt>
      <trkpt lat="48.40171" lon="-4.51801">
        <ele>50.616865</ele>
        <time>2022-12-09T15:35:50.499Z</time>
      </trkpt>
      <trkpt lat="48.40164" lon="-4.51785">
        <ele>50.727983</ele>
        <time>2022-12-09T15:35:53.513Z</time>
      </trkpt>
      <trkpt lat="48.40158" lon="-4.51775">
        <ele>50.808253</ele>
        <time>2022-12-09T15:35:55.499Z</time>
      </trkpt>
      <trkpt lat="48.40149" lon="-4.51761">
        <ele>50.918079</ele>
        <time>2022-12-09T15:35:58.521Z</time>
      </trkpt>
      <trkpt lat="48.40141" lon="-4.51746">
        <ele>51.027441</ele>
        <time>2022-12-09T15:36:01.520Z</time>
      </trkpt>
      <trkpt lat="48.40134" lon="-4.51732">
        <ele>51.129641</ele>
        <time>2022-12-09T15:36:04.513Z</time>
      </trkpt>
      <trkpt lat="48.40126" lon="-4.5172">
        <ele>51.230237</ele>
        <time>2022-12-09T15:36:07.502Z</time>
      </trkpt>
      <trkpt lat="48.40119" lon="-4.51709">
        <ele>51.320024</ele>
        <time>2022-12-09T15:36:10.507Z</time>
      </trkpt>
      <trkpt lat="48.40112" lon="-4.51698">
        <ele>51.405162</ele>
        <time>2022-12-09T15:36:13.514Z</time>
      </trkpt>
      <trkpt lat="48.40106" lon="-4.51685">
        <ele>51.49521</ele>
        <time>2022-12-09T15:36:17.513Z</time>
      </trkpt>
      <trkpt lat="48.40094" lon="-4.51672">
        <ele>51.641688</ele>
        <time>2022-12-09T15:38:28.500Z</time>
      </trkpt>
      <trkpt lat="48.40101" lon="-4.5168">
        <ele>51.743394</ele>
        <time>2022-12-09T15:39:05.508Z</time>
      </trkpt>
      <trkpt lat="48.40092" lon="-4.51668">
        <ele>51.880146</ele>
        <time>2022-12-09T15:40:00.501Z</time>
      </trkpt>
      <trkpt lat="48.40085" lon="-4.51656">
        <ele>52.003522</ele>
        <time>2022-12-09T15:40:04.522Z</time>
      </trkpt>
      <trkpt lat="48.40078" lon="-4.51644">
        <ele>52.122155</ele>
        <time>2022-12-09T15:40:07.515Z</time>
      </trkpt>
      <trkpt lat="48.40071" lon="-4.51633">
        <ele>52.235237</ele>
        <time>2022-12-09T15:40:10.524Z</time>
      </trkpt>
      <trkpt lat="48.40063" lon="-4.51623">
        <ele>52.361041</ele>
        <time>2022-12-09T15:40:14.512Z</time>
      </trkpt>
      <trkpt lat="48.40056" lon="-4.51612">
        <ele>52.474914</ele>
        <time>2022-12-09T15:40:20.503Z</time>
      </trkpt>
      <trkpt lat="48.40058" lon="-4.51596">
        <ele>52.5948</ele>
        <time>2022-12-09T15:40:25.504Z</time>
      </trkpt>
      <trkpt lat="48.40064" lon="-4.51586">
        <ele>52.703266</ele>
        <time>2022-12-09T15:40:28.514Z</time>
      </trkpt>
      <trkpt lat="48.40071" lon="-4.51576">
        <ele>52.805644</ele>
        <time>2022-12-09T15:40:31.499Z</time>
      </trkpt>
      <trkpt lat="48.40079" lon="-4.51562">
        <ele>52.943135</ele>
        <time>2022-12-09T15:40:35.523Z</time>
      </trkpt>
      <trkpt lat="48.40086" lon="-4.51552">
        <ele>53.052192</ele>
        <time>2022-12-09T15:40:38.511Z</time>
      </trkpt>
      <trkpt lat="48.40092" lon="-4.51542">
        <ele>53.160984</ele>
        <time>2022-12-09T15:40:41.504Z</time>
      </trkpt>
      <trkpt lat="48.40099" lon="-4.51531">
        <ele>53.270279</ele>
        <time>2022-12-09T15:40:44.512Z</time>
      </trkpt>
      <trkpt lat="48.40106" lon="-4.51518">
        <ele>53.398715</ele>
        <time>2022-12-09T15:40:48.512Z</time>
      </trkpt>
      <trkpt lat="48.40115" lon="-4.51506">
        <ele>53.534004</ele>
        <time>2022-12-09T15:40:52.514Z</time>
      </trkpt>
      <trkpt lat="48.40123" lon="-4.51494">
        <ele>53.816119</ele>
        <time>2022-12-09T15:40:56.506Z</time>
      </trkpt>
      <trkpt lat="48.40131" lon="-4.51484">
        <ele>54.281991</ele>
        <time>2022-12-09T15:41:00.524Z</time>
      </trkpt>
      <trkpt lat="48.40139" lon="-4.51471">
        <ele>54.829201</ele>
        <time>2022-12-09T15:41:04.526Z</time>
      </trkpt>
      <trkpt lat="48.40145" lon="-4.51461">
        <ele>55.242116</ele>
        <time>2022-12-09T15:41:07.519Z</time>
      </trkpt>
      <trkpt lat="48.40154" lon="-4.51448">
        <ele>55.78817</ele>
        <time>2022-12-09T15:41:11.521Z</time>
      </trkpt>
      <trkpt lat="48.4016" lon="-4.51438">
        <ele>56.227842</ele>
        <time>2022-12-09T15:41:15.520Z</time>
      </trkpt>
      <trkpt lat="48.40168" lon="-4.51425">
        <ele>56.75722</ele>
        <time>2022-12-09T15:41:19.513Z</time>
      </trkpt>
      <trkpt lat="48.40176" lon="-4.51413">
        <ele>57.260832</ele>
        <time>2022-12-09T15:41:23.521Z</time>
      </trkpt>
      <trkpt lat="48.40184" lon="-4.51401">
        <ele>57.7716</ele>
        <time>2022-12-09T15:41:27.522Z</time>
      </trkpt>
      <trkpt lat="48.40191" lon="-4.5139">
        <ele>58.240262</ele>
        <time>2022-12-09T15:41:31.516Z</time>
      </trkpt>
      <trkpt lat="48.40198" lon="-4.51378">
        <ele>58.715861</ele>
        <time>2022-12-09T15:41:35.521Z</time>
      </trkpt>
      <trkpt lat="48.40205" lon="-4.51366">
        <ele>59.198234</ele>
        <time>2022-12-09T15:41:39.513Z</time>
      </trkpt>
      <trkpt lat="48.40212" lon="-4.51356">
        <ele>59.648629</ele>
        <time>2022-12-09T15:41:43.517Z</time>
      </trkpt>
      <trkpt lat="48.40218" lon="-4.51346">
        <ele>60.081813</ele>
        <time>2022-12-09T15:41:47.520Z</time>
      </trkpt>
      <trkpt lat="48.40226" lon="-4.51334">
        <ele>60.580942</ele>
        <time>2022-12-09T15:41:51.517Z</time>
      </trkpt>
      <trkpt lat="48.40233" lon="-4.51322">
        <ele>61.0722</ele>
        <time>2022-12-09T15:41:56.522Z</time>
      </trkpt>
      <trkpt lat="48.40241" lon="-4.51311">
        <ele>61.543024</ele>
        <time>2022-12-09T15:42:01.499Z</time>
      </trkpt>
      <trkpt lat="48.40247" lon="-4.51301">
        <ele>62.023255</ele>
        <time>2022-12-09T15:42:05.510Z</time>
      </trkpt>
      <trkpt lat="48.40254" lon="-4.51291">
        <ele>62.693093</ele>
        <time>2022-12-09T15:42:10.504Z</time>
      </trkpt>
      <trkpt lat="48.40259" lon="-4.5128">
        <ele>63.343404</ele>
        <time>2022-12-09T15:42:15.504Z</time>
      </trkpt>
      <trkpt lat="48.40264" lon="-4.51268">
        <ele>64.02898</ele>
        <time>2022-12-09T15:42:20.502Z</time>
      </trkpt>
      <trkpt lat="48.40268" lon="-4.51255">
        <ele>64.674001</ele>
        <time>2022-12-09T15:42:25.500Z</time>
      </trkpt>
      <trkpt lat="48.40271" lon="-4.51241">
        <ele>65.373086</ele>
        <time>2022-12-09T15:42:30.500Z</time>
      </trkpt>
      <trkpt lat="48.40274" lon="-4.51227">
        <ele>66.080447</ele>
        <time>2022-12-09T15:42:35.520Z</time>
      </trkpt>
      <trkpt lat="48.40276" lon="-4.51212">
        <ele>66.789021</ele>
        <time>2022-12-09T15:42:40.523Z</time>
      </trkpt>
      <trkpt lat="48.40279" lon="-4.51197">
        <ele>67.535296</ele>
        <time>2022-12-09T15:42:45.502Z</time>
      </trkpt>
      <trkpt lat="48.4028" lon="-4.51181">
        <ele>68.290462</ele>
        <time>2022-12-09T15:42:50.501Z</time>
      </trkpt>
      <trkpt lat="48.40282" lon="-4.51165">
        <ele>69.026584</ele>
        <time>2022-12-09T15:42:55.524Z</time>
      </trkpt>
      <trkpt lat="48.40284" lon="-4.51151">
        <ele>69.7027</ele>
        <time>2022-12-09T15:43:00.503Z</time>
      </trkpt>
      <trkpt lat="48.40285" lon="-4.51136">
        <ele>70.431022</ele>
        <time>2022-12-09T15:43:05.512Z</time>
      </trkpt>
      <trkpt lat="48.40286" lon="-4.51122">
        <ele>71.086011</ele>
        <time>2022-12-09T15:43:10.505Z</time>
      </trkpt>
      <trkpt lat="48.40286" lon="-4.51108">
        <ele>71.750876</ele>
        <time>2022-12-09T15:43:15.527Z</time>
      </trkpt>
      <trkpt lat="48.40287" lon="-4.51093">
        <ele>72.44648</ele>
        <time>2022-12-09T15:43:20.507Z</time>
      </trkpt>
      <trkpt lat="48.40289" lon="-4.51079">
        <ele>73.100929</ele>
        <time>2022-12-09T15:43:25.509Z</time>
      </trkpt>
      <trkpt lat="48.4029" lon="-4.51063">
        <ele>73.854231</ele>
        <time>2022-12-09T15:43:31.514Z</time>
      </trkpt>
      <trkpt lat="48.40291" lon="-4.51049">
        <ele>74.523607</ele>
        <time>2022-12-09T15:43:36.503Z</time>
      </trkpt>
      <trkpt lat="48.40291" lon="-4.51035">
        <ele>74.874924</ele>
        <time>2022-12-09T15:43:41.515Z</time>
      </trkpt>
      <trkpt lat="48.40292" lon="-4.51021">
        <ele>75.192174</ele>
        <time>2022-12-09T15:43:46.515Z</time>
      </trkpt>
      <trkpt lat="48.40292" lon="-4.51007">
        <ele>75.518239</ele>
        <time>2022-12-09T15:43:51.504Z</time>
      </trkpt>
      <trkpt lat="48.40293" lon="-4.50993">
        <ele>75.835489</ele>
        <time>2022-12-09T15:43:56.502Z</time>
      </trkpt>
      <trkpt lat="48.40294" lon="-4.50979">
        <ele>76.152254</ele>
        <time>2022-12-09T15:44:01.510Z</time>
      </trkpt>
      <trkpt lat="48.40293" lon="-4.50965">
        <ele>76.485714</ele>
        <time>2022-12-09T15:44:06.517Z</time>
      </trkpt>
      <trkpt lat="48.40293" lon="-4.5095">
        <ele>76.811616</ele>
        <time>2022-12-09T15:44:12.510Z</time>
      </trkpt>
      <trkpt lat="48.40294" lon="-4.50936">
        <ele>77.146121</ele>
        <time>2022-12-09T15:44:18.526Z</time>
      </trkpt>
      <trkpt lat="48.40294" lon="-4.50921">
        <ele>77.490272</ele>
        <time>2022-12-09T15:44:23.508Z</time>
      </trkpt>
      <trkpt lat="48.4029" lon="-4.50908">
        <ele>77.809186</ele>
        <time>2022-12-09T15:44:27.514Z</time>
      </trkpt>
      <trkpt lat="48.40286" lon="-4.50895">
        <ele>78.130508</ele>
        <time>2022-12-09T15:44:32.501Z</time>
      </trkpt>
      <trkpt lat="48.40286" lon="-4.5088">
        <ele>78.479808</ele>
        <time>2022-12-09T15:44:38.508Z</time>
      </trkpt>
      <trkpt lat="48.40292" lon="-4.50867">
        <ele>78.82921</ele>
        <time>2022-12-09T15:44:43.526Z</time>
      </trkpt>
      <trkpt lat="48.40294" lon="-4.50851">
        <ele>79.197166</ele>
        <time>2022-12-09T15:44:48.525Z</time>
      </trkpt>
      <trkpt lat="48.40295" lon="-4.50835">
        <ele>79.569931</ele>
        <time>2022-12-09T15:44:53.511Z</time>
      </trkpt>
      <trkpt lat="48.40297" lon="-4.50818">
        <ele>79.950473</ele>
        <time>2022-12-09T15:44:58.510Z</time>
      </trkpt>
      <trkpt lat="48.40299" lon="-4.50804">
        <ele>80.293897</ele>
        <time>2022-12-09T15:45:03.510Z</time>
      </trkpt>
      <trkpt lat="48.40302" lon="-4.5079">
        <ele>80.620823</ele>
        <time>2022-12-09T15:45:08.504Z</time>
      </trkpt>
      <trkpt lat="48.40302" lon="-4.50775">
        <ele>81.036018</ele>
        <time>2022-12-09T15:45:13.508Z</time>
      </trkpt>
      <trkpt lat="48.40301" lon="-4.50759">
        <ele>81.504411</ele>
        <time>2022-12-09T15:45:17.525Z</time>
      </trkpt>
      <trkpt lat="48.40301" lon="-4.50743">
        <ele>81.987152</ele>
        <time>2022-12-09T15:45:21.503Z</time>
      </trkpt>
      <trkpt lat="48.40301" lon="-4.50725">
        <ele>82.502966</ele>
        <time>2022-12-09T15:45:25.523Z</time>
      </trkpt>
      <trkpt lat="48.40303" lon="-4.50709">
        <ele>83.001289</ele>
        <time>2022-12-09T15:45:29.511Z</time>
      </trkpt>
      <trkpt lat="48.40304" lon="-4.50693">
        <ele>83.464497</ele>
        <time>2022-12-09T15:45:33.528Z</time>
      </trkpt>
      <trkpt lat="48.40304" lon="-4.50678">
        <ele>83.917645</ele>
        <time>2022-12-09T15:45:37.531Z</time>
      </trkpt>
      <trkpt lat="48.40306" lon="-4.5066">
        <ele>84.439686</ele>
        <time>2022-12-09T15:45:41.524Z</time>
      </trkpt>
      <trkpt lat="48.40306" lon="-4.50643">
        <ele>84.940083</ele>
        <time>2022-12-09T15:45:45.523Z</time>
      </trkpt>
      <trkpt lat="48.40307" lon="-4.50626">
        <ele>85.467968</ele>
        <time>2022-12-09T15:45:49.513Z</time>
      </trkpt>
      <trkpt lat="48.40307" lon="-4.50609">
        <ele>85.956952</ele>
        <time>2022-12-09T15:45:53.523Z</time>
      </trkpt>
      <trkpt lat="48.40308" lon="-4.50592">
        <ele>86.458877</ele>
        <time>2022-12-09T15:45:57.511Z</time>
      </trkpt>
      <trkpt lat="48.40309" lon="-4.50575">
        <ele>86.974305</ele>
        <time>2022-12-09T15:46:01.510Z</time>
      </trkpt>
      <trkpt lat="48.40309" lon="-4.50559">
        <ele>87.448167</ele>
        <time>2022-12-09T15:46:05.505Z</time>
      </trkpt>
      <trkpt lat="48.4031" lon="-4.50544">
        <ele>87.877482</ele>
        <time>2022-12-09T15:46:09.516Z</time>
      </trkpt>
      <trkpt lat="48.40312" lon="-4.5053">
        <ele>88.306601</ele>
        <time>2022-12-09T15:46:13.513Z</time>
      </trkpt>
      <trkpt lat="48.40313" lon="-4.50515">
        <ele>88.751501</ele>
        <time>2022-12-09T15:46:17.500Z</time>
      </trkpt>
      <trkpt lat="48.40313" lon="-4.50501">
        <ele>88.899999</ele>
        <time>2022-12-09T15:46:21.527Z</time>
      </trkpt>
      <trkpt lat="48.40314" lon="-4.50486">
        <ele>89.051221</ele>
        <time>2022-12-09T15:46:25.523Z</time>
      </trkpt>
      <trkpt lat="48.40314" lon="-4.5047">
        <ele>89.206453</ele>
        <time>2022-12-09T15:46:29.503Z</time>
      </trkpt>
      <trkpt lat="48.40314" lon="-4.50454">
        <ele>89.365824</ele>
        <time>2022-12-09T15:46:33.524Z</time>
      </trkpt>
      <trkpt lat="48.40313" lon="-4.50438">
        <ele>89.521704</ele>
        <time>2022-12-09T15:46:37.523Z</time>
      </trkpt>
      <trkpt lat="48.40311" lon="-4.50422">
        <ele>89.683867</ele>
        <time>2022-12-09T15:46:41.503Z</time>
      </trkpt>
      <trkpt lat="48.40307" lon="-4.50408">
        <ele>89.83902</ele>
        <time>2022-12-09T15:46:45.504Z</time>
      </trkpt>
      <trkpt lat="48.403" lon="-4.50397">
        <ele>89.99033</ele>
        <time>2022-12-09T15:46:49.506Z</time>
      </trkpt>
      <trkpt lat="48.40292" lon="-4.50386">
        <ele>90.153612</ele>
        <time>2022-12-09T15:46:53.508Z</time>
      </trkpt>
      <trkpt lat="48.40284" lon="-4.50378">
        <ele>90.298142</ele>
        <time>2022-12-09T15:46:56.507Z</time>
      </trkpt>
      <trkpt lat="48.40277" lon="-4.50369">
        <ele>90.436176</ele>
        <time>2022-12-09T15:46:59.522Z</time>
      </trkpt>
      <trkpt lat="48.4027" lon="-4.50359">
        <ele>90.579541</ele>
        <time>2022-12-09T15:47:02.522Z</time>
      </trkpt>
      <trkpt lat="48.40263" lon="-4.50349">
        <ele>90.718286</ele>
        <time>2022-12-09T15:47:05.535Z</time>
      </trkpt>
      <trkpt lat="48.40254" lon="-4.50337">
        <ele>90.895825</ele>
        <time>2022-12-09T15:47:09.529Z</time>
      </trkpt>
      <trkpt lat="48.40247" lon="-4.50328">
        <ele>91.035252</ele>
        <time>2022-12-09T15:47:12.505Z</time>
      </trkpt>
      <trkpt lat="48.4024" lon="-4.50318">
        <ele>91.176949</ele>
        <time>2022-12-09T15:47:15.526Z</time>
      </trkpt>
      <trkpt lat="48.40232" lon="-4.50306">
        <ele>91.344679</ele>
        <time>2022-12-09T15:47:19.512Z</time>
      </trkpt>
      <trkpt lat="48.40225" lon="-4.50297">
        <ele>91.489089</ele>
        <time>2022-12-09T15:47:22.501Z</time>
      </trkpt>
      <trkpt lat="48.40218" lon="-4.50288">
        <ele>91.655353</ele>
        <time>2022-12-09T15:47:25.523Z</time>
      </trkpt>
      <trkpt lat="48.40209" lon="-4.50277">
        <ele>91.851473</ele>
        <time>2022-12-09T15:47:29.526Z</time>
      </trkpt>
      <trkpt lat="48.402" lon="-4.50266">
        <ele>92.046217</ele>
        <time>2022-12-09T15:47:33.524Z</time>
      </trkpt>
      <trkpt lat="48.4019" lon="-4.50258">
        <ele>92.245602</ele>
        <time>2022-12-09T15:47:37.521Z</time>
      </trkpt>
      <trkpt lat="48.40184" lon="-4.50246">
        <ele>92.4231</ele>
        <time>2022-12-09T15:47:41.507Z</time>
      </trkpt>
      <trkpt lat="48.40177" lon="-4.5023">
        <ele>92.641152</ele>
        <time>2022-12-09T15:47:45.524Z</time>
      </trkpt>
      <trkpt lat="48.40172" lon="-4.50215">
        <ele>92.846852</ele>
        <time>2022-12-09T15:47:49.510Z</time>
      </trkpt>
      <trkpt lat="48.40166" lon="-4.502">
        <ele>93.040517</ele>
        <time>2022-12-09T15:47:52.524Z</time>
      </trkpt>
      <trkpt lat="48.40159" lon="-4.50186">
        <ele>93.237985</ele>
        <time>2022-12-09T15:47:55.507Z</time>
      </trkpt>
      <trkpt lat="48.40152" lon="-4.50172">
        <ele>93.445615</ele>
        <time>2022-12-09T15:47:58.524Z</time>
      </trkpt>
      <trkpt lat="48.40145" lon="-4.50158">
        <ele>93.654951</ele>
        <time>2022-12-09T15:48:01.524Z</time>
      </trkpt>
      <trkpt lat="48.40139" lon="-4.50143">
        <ele>93.852402</ele>
        <time>2022-12-09T15:48:04.508Z</time>
      </trkpt>
      <trkpt lat="48.40132" lon="-4.50129">
        <ele>94.04997</ele>
        <time>2022-12-09T15:48:07.523Z</time>
      </trkpt>
      <trkpt lat="48.40125" lon="-4.50116">
        <ele>94.246804</ele>
        <time>2022-12-09T15:48:10.503Z</time>
      </trkpt>
      <trkpt lat="48.40119" lon="-4.50102">
        <ele>94.438586</ele>
        <time>2022-12-09T15:48:13.525Z</time>
      </trkpt>
      <trkpt lat="48.40112" lon="-4.50088">
        <ele>94.515859</ele>
        <time>2022-12-09T15:48:16.523Z</time>
      </trkpt>
      <trkpt lat="48.40105" lon="-4.50074">
        <ele>94.297541</ele>
        <time>2022-12-09T15:48:19.521Z</time>
      </trkpt>
      <trkpt lat="48.40099" lon="-4.50061">
        <ele>94.109156</ele>
        <time>2022-12-09T15:48:22.509Z</time>
      </trkpt>
      <trkpt lat="48.40092" lon="-4.50049">
        <ele>93.915008</ele>
        <time>2022-12-09T15:48:26.522Z</time>
      </trkpt>
      <trkpt lat="48.40083" lon="-4.50032">
        <ele>93.644609</ele>
        <time>2022-12-09T15:48:45.506Z</time>
      </trkpt>
      <trkpt lat="48.40077" lon="-4.5002">
        <ele>93.463365</ele>
        <time>2022-12-09T15:48:48.505Z</time>
      </trkpt>
      <trkpt lat="48.4007" lon="-4.50007">
        <ele>93.258867</ele>
        <time>2022-12-09T15:48:52.529Z</time>
      </trkpt>
      <trkpt lat="48.40063" lon="-4.49997">
        <ele>93.083794</ele>
        <time>2022-12-09T15:48:55.523Z</time>
      </trkpt>
      <trkpt lat="48.40055" lon="-4.49984">
        <ele>92.871899</ele>
        <time>2022-12-09T15:48:58.529Z</time>
      </trkpt>
      <trkpt lat="48.4005" lon="-4.49967">
        <ele>92.639032</ele>
        <time>2022-12-09T15:49:01.510Z</time>
      </trkpt>
      <trkpt lat="48.40047" lon="-4.49947">
        <ele>92.396503</ele>
        <time>2022-12-09T15:49:04.501Z</time>
      </trkpt>
      <trkpt lat="48.40043" lon="-4.49929">
        <ele>92.161141</ele>
        <time>2022-12-09T15:49:07.513Z</time>
      </trkpt>
      <trkpt lat="48.40038" lon="-4.49911">
        <ele>91.929179</ele>
        <time>2022-12-09T15:49:10.532Z</time>
      </trkpt>
      <trkpt lat="48.40033" lon="-4.49893">
        <ele>91.685328</ele>
        <time>2022-12-09T15:49:13.524Z</time>
      </trkpt>
      <trkpt lat="48.40027" lon="-4.49874">
        <ele>91.436317</ele>
        <time>2022-12-09T15:49:16.525Z</time>
      </trkpt>
      <trkpt lat="48.40024" lon="-4.49861">
        <ele>91.278714</ele>
        <time>2022-12-09T15:49:18.518Z</time>
      </trkpt>
      <trkpt lat="48.4002" lon="-4.49848">
        <ele>91.235049</ele>
        <time>2022-12-09T15:49:20.527Z</time>
      </trkpt>
      <trkpt lat="48.40016" lon="-4.49835">
        <ele>91.190522</ele>
        <time>2022-12-09T15:49:22.525Z</time>
      </trkpt>
      <trkpt lat="48.40013" lon="-4.49823">
        <ele>91.147618</ele>
        <time>2022-12-09T15:49:24.521Z</time>
      </trkpt>
      <trkpt lat="48.40009" lon="-4.4981">
        <ele>91.103652</ele>
        <time>2022-12-09T15:49:26.527Z</time>
      </trkpt>
      <trkpt lat="48.40004" lon="-4.49797">
        <ele>91.058951</ele>
        <time>2022-12-09T15:49:28.513Z</time>
      </trkpt>
      <trkpt lat="48.4" lon="-4.49785">
        <ele>91.016144</ele>
        <time>2022-12-09T15:49:30.518Z</time>
      </trkpt>
      <trkpt lat="48.39995" lon="-4.49766">
        <ele>90.952265</ele>
        <time>2022-12-09T15:49:33.523Z</time>
      </trkpt>
      <trkpt lat="48.39991" lon="-4.49754">
        <ele>90.90898</ele>
        <time>2022-12-09T15:49:35.524Z</time>
      </trkpt>
      <trkpt lat="48.39987" lon="-4.49741">
        <ele>90.864523</ele>
        <time>2022-12-09T15:49:37.521Z</time>
      </trkpt>
      <trkpt lat="48.39984" lon="-4.49728">
        <ele>90.820283</ele>
        <time>2022-12-09T15:49:39.524Z</time>
      </trkpt>
      <trkpt lat="48.3998" lon="-4.49714">
        <ele>90.776166</ele>
        <time>2022-12-09T15:49:41.524Z</time>
      </trkpt>
      <trkpt lat="48.39977" lon="-4.49702">
        <ele>90.733626</ele>
        <time>2022-12-09T15:49:43.515Z</time>
      </trkpt>
      <trkpt lat="48.39973" lon="-4.49689">
        <ele>90.690909</ele>
        <time>2022-12-09T15:49:45.520Z</time>
      </trkpt>
      <trkpt lat="48.39969" lon="-4.49677">
        <ele>90.647993</ele>
        <time>2022-12-09T15:49:47.524Z</time>
      </trkpt>
      <trkpt lat="48.39965" lon="-4.49661">
        <ele>90.59222</ele>
        <time>2022-12-09T15:49:50.523Z</time>
      </trkpt>
      <trkpt lat="48.3996" lon="-4.49644">
        <ele>90.534727</ele>
        <time>2022-12-09T15:49:53.501Z</time>
      </trkpt>
      <trkpt lat="48.39954" lon="-4.49626">
        <ele>90.473034</ele>
        <time>2022-12-09T15:49:56.521Z</time>
      </trkpt>
      <trkpt lat="48.39948" lon="-4.49608">
        <ele>90.632408</ele>
        <time>2022-12-09T15:49:59.527Z</time>
      </trkpt>
      <trkpt lat="48.39941" lon="-4.49591">
        <ele>91.083301</ele>
        <time>2022-12-09T15:50:02.504Z</time>
      </trkpt>
      <trkpt lat="48.39936" lon="-4.49579">
        <ele>91.392406</ele>
        <time>2022-12-09T15:50:04.507Z</time>
      </trkpt>
      <trkpt lat="48.39929" lon="-4.49563">
        <ele>91.812108</ele>
        <time>2022-12-09T15:50:07.522Z</time>
      </trkpt>
      <trkpt lat="48.39924" lon="-4.49551">
        <ele>92.134113</ele>
        <time>2022-12-09T15:50:09.523Z</time>
      </trkpt>
      <trkpt lat="48.39918" lon="-4.4954">
        <ele>92.438513</ele>
        <time>2022-12-09T15:50:11.519Z</time>
      </trkpt>
      <trkpt lat="48.39912" lon="-4.49526">
        <ele>92.833313</ele>
        <time>2022-12-09T15:50:14.526Z</time>
      </trkpt>
      <trkpt lat="48.39904" lon="-4.49511">
        <ele>93.256928</ele>
        <time>2022-12-09T15:50:17.507Z</time>
      </trkpt>
      <trkpt lat="48.39898" lon="-4.49497">
        <ele>93.6311</ele>
        <time>2022-12-09T15:50:20.509Z</time>
      </trkpt>
      <trkpt lat="48.39892" lon="-4.49484">
        <ele>93.981169</ele>
        <time>2022-12-09T15:50:23.523Z</time>
      </trkpt>
      <trkpt lat="48.39884" lon="-4.49474">
        <ele>94.318963</ele>
        <time>2022-12-09T15:50:26.510Z</time>
      </trkpt>
      <trkpt lat="48.39876" lon="-4.49466">
        <ele>94.64614</ele>
        <time>2022-12-09T15:50:29.509Z</time>
      </trkpt>
      <trkpt lat="48.39866" lon="-4.49458">
        <ele>95.025263</ele>
        <time>2022-12-09T15:50:33.510Z</time>
      </trkpt>
      <trkpt lat="48.39858" lon="-4.49447">
        <ele>95.395862</ele>
        <time>2022-12-09T15:50:37.512Z</time>
      </trkpt>
      <trkpt lat="48.39854" lon="-4.49434">
        <ele>95.730511</ele>
        <time>2022-12-09T15:50:41.505Z</time>
      </trkpt>
      <trkpt lat="48.3985" lon="-4.4942">
        <ele>96.051407</ele>
        <time>2022-12-09T15:50:45.511Z</time>
      </trkpt>
      <trkpt lat="48.39846" lon="-4.49408">
        <ele>96.357878</ele>
        <time>2022-12-09T15:50:49.524Z</time>
      </trkpt>
      <trkpt lat="48.39842" lon="-4.49394">
        <ele>96.776548</ele>
        <time>2022-12-09T15:50:53.523Z</time>
      </trkpt>
      <trkpt lat="48.39839" lon="-4.4938">
        <ele>97.261878</ele>
        <time>2022-12-09T15:50:57.505Z</time>
      </trkpt>
      <trkpt lat="48.39834" lon="-4.49366">
        <ele>97.762789</ele>
        <time>2022-12-09T15:51:01.524Z</time>
      </trkpt>
      <trkpt lat="48.3983" lon="-4.49352">
        <ele>98.24796</ele>
        <time>2022-12-09T15:51:05.505Z</time>
      </trkpt>
      <trkpt lat="48.39827" lon="-4.49337">
        <ele>98.754521</ele>
        <time>2022-12-09T15:51:09.520Z</time>
      </trkpt>
      <trkpt lat="48.39824" lon="-4.49323">
        <ele>99.230566</ele>
        <time>2022-12-09T15:51:13.522Z</time>
      </trkpt>
      <trkpt lat="48.3982" lon="-4.49307">
        <ele>99.78287</ele>
        <time>2022-12-09T15:51:17.522Z</time>
      </trkpt>
      <trkpt lat="48.39817" lon="-4.4929">
        <ele>100.329803</ele>
        <time>2022-12-09T15:51:21.509Z</time>
      </trkpt>
      <trkpt lat="48.39815" lon="-4.49273">
        <ele>100.88806</ele>
        <time>2022-12-09T15:51:25.527Z</time>
      </trkpt>
      <trkpt lat="48.39813" lon="-4.49256">
        <ele>101.459443</ele>
        <time>2022-12-09T15:51:29.523Z</time>
      </trkpt>
      <trkpt lat="48.39811" lon="-4.49239">
        <ele>102.025776</ele>
        <time>2022-12-09T15:51:33.525Z</time>
      </trkpt>
      <trkpt lat="48.39808" lon="-4.49222">
        <ele>102.579484</ele>
        <time>2022-12-09T15:51:37.519Z</time>
      </trkpt>
      <trkpt lat="48.39807" lon="-4.49205">
        <ele>103.135406</ele>
        <time>2022-12-09T15:51:41.523Z</time>
      </trkpt>
      <trkpt lat="48.39806" lon="-4.49187">
        <ele>103.70014</ele>
        <time>2022-12-09T15:51:45.526Z</time>
      </trkpt>
      <trkpt lat="48.39804" lon="-4.4917">
        <ele>104.252996</ele>
        <time>2022-12-09T15:51:49.515Z</time>
      </trkpt>
      <trkpt lat="48.39803" lon="-4.49153">
        <ele>104.817775</ele>
        <time>2022-12-09T15:51:53.507Z</time>
      </trkpt>
      <trkpt lat="48.39801" lon="-4.49136">
        <ele>105.302754</ele>
        <time>2022-12-09T15:51:57.524Z</time>
      </trkpt>
      <trkpt lat="48.398" lon="-4.49119">
        <ele>105.61332</ele>
        <time>2022-12-09T15:52:01.524Z</time>
      </trkpt>
      <trkpt lat="48.39799" lon="-4.49103">
        <ele>105.924995</ele>
        <time>2022-12-09T15:52:05.522Z</time>
      </trkpt>
      <trkpt lat="48.39798" lon="-4.49086">
        <ele>106.23855</ele>
        <time>2022-12-09T15:52:09.513Z</time>
      </trkpt>
      <trkpt lat="48.39797" lon="-4.49069">
        <ele>106.56695</ele>
        <time>2022-12-09T15:52:13.529Z</time>
      </trkpt>
      <trkpt lat="48.39795" lon="-4.49052">
        <ele>106.891604</ele>
        <time>2022-12-09T15:52:17.525Z</time>
      </trkpt>
      <trkpt lat="48.39793" lon="-4.49036">
        <ele>107.201721</ele>
        <time>2022-12-09T15:52:21.523Z</time>
      </trkpt>
      <trkpt lat="48.39791" lon="-4.49019">
        <ele>107.523491</ele>
        <time>2022-12-09T15:52:25.521Z</time>
      </trkpt>
      <trkpt lat="48.39789" lon="-4.49002">
        <ele>107.844873</ele>
        <time>2022-12-09T15:52:29.507Z</time>
      </trkpt>
      <trkpt lat="48.39788" lon="-4.48989">
        <ele>108.109282</ele>
        <time>2022-12-09T15:52:33.522Z</time>
      </trkpt>
      <trkpt lat="48.39783" lon="-4.48975">
        <ele>108.399498</ele>
        <time>2022-12-09T15:52:37.509Z</time>
      </trkpt>
      <trkpt lat="48.39774" lon="-4.48967">
        <ele>108.687477</ele>
        <time>2022-12-09T15:52:42.510Z</time>
      </trkpt>
      <trkpt lat="48.39767" lon="-4.48957">
        <ele>108.958834</ele>
        <time>2022-12-09T15:52:51.501Z</time>
      </trkpt>
      <trkpt lat="48.3976" lon="-4.48933">
        <ele>109.461607</ele>
        <time>2022-12-09T15:53:13.526Z</time>
      </trkpt>
      <trkpt lat="48.39756" lon="-4.48921">
        <ele>109.722285</ele>
        <time>2022-12-09T15:53:18.515Z</time>
      </trkpt>
      <trkpt lat="48.39754" lon="-4.48907">
        <ele>109.985071</ele>
        <time>2022-12-09T15:53:25.518Z</time>
      </trkpt>
      <trkpt lat="48.39754" lon="-4.48891">
        <ele>110.295497</ele>
        <time>2022-12-09T15:53:34.506Z</time>
      </trkpt>
      <trkpt lat="48.39752" lon="-4.48876">
        <ele>110.936752</ele>
        <time>2022-12-09T15:53:38.526Z</time>
      </trkpt>
      <trkpt lat="48.39749" lon="-4.4886">
        <ele>111.692267</ele>
        <time>2022-12-09T15:53:43.505Z</time>
      </trkpt>
      <trkpt lat="48.39745" lon="-4.48846">
        <ele>112.395599</ele>
        <time>2022-12-09T15:53:48.522Z</time>
      </trkpt>
      <trkpt lat="48.39741" lon="-4.48832">
        <ele>113.11426</ele>
        <time>2022-12-09T15:53:54.523Z</time>
      </trkpt>
      <trkpt lat="48.39737" lon="-4.48819">
        <ele>113.758368</ele>
        <time>2022-12-09T15:53:59.503Z</time>
      </trkpt>
      <trkpt lat="48.39734" lon="-4.48806">
        <ele>114.406513</ele>
        <time>2022-12-09T15:54:04.525Z</time>
      </trkpt>
      <trkpt lat="48.39731" lon="-4.4879">
        <ele>115.170812</ele>
        <time>2022-12-09T15:54:10.509Z</time>
      </trkpt>
      <trkpt lat="48.39727" lon="-4.48775">
        <ele>115.9091</ele>
        <time>2022-12-09T15:54:16.505Z</time>
      </trkpt>
      <trkpt lat="48.39723" lon="-4.48763">
        <ele>116.537746</ele>
        <time>2022-12-09T15:54:21.510Z</time>
      </trkpt>
      <trkpt lat="48.39718" lon="-4.48751">
        <ele>117.175838</ele>
        <time>2022-12-09T15:54:26.507Z</time>
      </trkpt>
      <trkpt lat="48.39715" lon="-4.48739">
        <ele>117.803357</ele>
        <time>2022-12-09T15:54:32.512Z</time>
      </trkpt>
      <trkpt lat="48.39713" lon="-4.48725">
        <ele>118.440063</ele>
        <time>2022-12-09T15:54:37.515Z</time>
      </trkpt>
      <trkpt lat="48.3971" lon="-4.48712">
        <ele>119.077185</ele>
        <time>2022-12-09T15:54:42.519Z</time>
      </trkpt>
      <trkpt lat="48.39704" lon="-4.48699">
        <ele>119.815421</ele>
        <time>2022-12-09T15:54:48.515Z</time>
      </trkpt>
      <trkpt lat="48.39699" lon="-4.48687">
        <ele>120.461479</ele>
        <time>2022-12-09T15:54:52.514Z</time>
      </trkpt>
      <trkpt lat="48.39695" lon="-4.48674">
        <ele>121.108397</ele>
        <time>2022-12-09T15:54:56.526Z</time>
      </trkpt>
      <trkpt lat="48.39691" lon="-4.4866">
        <ele>121.82563</ele>
        <time>2022-12-09T15:55:00.522Z</time>
      </trkpt>
      <trkpt lat="48.39687" lon="-4.48646">
        <ele>122.5246</ele>
        <time>2022-12-09T15:55:04.523Z</time>
      </trkpt>
      <trkpt lat="48.39683" lon="-4.48632">
        <ele>122.862565</ele>
        <time>2022-12-09T15:55:08.521Z</time>
      </trkpt>
      <trkpt lat="48.3968" lon="-4.48619">
        <ele>122.926887</ele>
        <time>2022-12-09T15:55:12.524Z</time>
      </trkpt>
      <trkpt lat="48.39677" lon="-4.48606">
        <ele>122.991078</ele>
        <time>2022-12-09T15:55:16.515Z</time>
      </trkpt>
      <trkpt lat="48.39673" lon="-4.48591">
        <ele>123.07063</ele>
        <time>2022-12-09T15:55:21.526Z</time>
      </trkpt>
      <trkpt lat="48.39668" lon="-4.48578">
        <ele>123.137123</ele>
        <time>2022-12-09T15:55:25.512Z</time>
      </trkpt>
      <trkpt lat="48.39665" lon="-4.48565">
        <ele>123.203166</ele>
        <time>2022-12-09T15:55:29.531Z</time>
      </trkpt>
      <trkpt lat="48.39661" lon="-4.48552">
        <ele>123.270404</ele>
        <time>2022-12-09T15:55:33.530Z</time>
      </trkpt>
      <trkpt lat="48.39658" lon="-4.48538">
        <ele>123.341104</ele>
        <time>2022-12-09T15:55:37.515Z</time>
      </trkpt>
      <trkpt lat="48.39655" lon="-4.48524">
        <ele>123.408524</ele>
        <time>2022-12-09T15:55:41.517Z</time>
      </trkpt>
      <trkpt lat="48.3965" lon="-4.4851">
        <ele>123.480868</ele>
        <time>2022-12-09T15:55:45.505Z</time>
      </trkpt>
      <trkpt lat="48.39646" lon="-4.48495">
        <ele>123.560953</ele>
        <time>2022-12-09T15:55:49.507Z</time>
      </trkpt>
      <trkpt lat="48.39641" lon="-4.48481">
        <ele>123.632901</ele>
        <time>2022-12-09T15:55:53.524Z</time>
      </trkpt>
      <trkpt lat="48.39636" lon="-4.48465">
        <ele>123.717164</ele>
        <time>2022-12-09T15:55:57.523Z</time>
      </trkpt>
      <trkpt lat="48.39633" lon="-4.48449">
        <ele>123.792324</ele>
        <time>2022-12-09T15:56:01.524Z</time>
      </trkpt>
      <trkpt lat="48.3963" lon="-4.48436">
        <ele>123.860593</ele>
        <time>2022-12-09T15:56:05.526Z</time>
      </trkpt>
      <trkpt lat="48.39628" lon="-4.48422">
        <ele>123.925911</ele>
        <time>2022-12-09T15:56:10.501Z</time>
      </trkpt>
      <trkpt lat="48.39624" lon="-4.4841">
        <ele>123.990916</ele>
        <time>2022-12-09T15:56:16.513Z</time>
      </trkpt>
      <trkpt lat="48.39619" lon="-4.48397">
        <ele>124.059501</ele>
        <time>2022-12-09T15:56:34.510Z</time>
      </trkpt>
      <trkpt lat="48.39617" lon="-4.48382">
        <ele>124.290843</ele>
        <time>2022-12-09T15:56:38.505Z</time>
      </trkpt>
      <trkpt lat="48.39613" lon="-4.48366">
        <ele>124.684039</ele>
        <time>2022-12-09T15:56:42.511Z</time>
      </trkpt>
      <trkpt lat="48.3961" lon="-4.48352">
        <ele>125.017226</ele>
        <time>2022-12-09T15:56:45.526Z</time>
      </trkpt>
      <trkpt lat="48.39606" lon="-4.48335">
        <ele>125.424259</ele>
        <time>2022-12-09T15:56:49.527Z</time>
      </trkpt>
      <trkpt lat="48.39602" lon="-4.48323">
        <ele>125.738062</ele>
        <time>2022-12-09T15:56:52.529Z</time>
      </trkpt>
      <trkpt lat="48.39598" lon="-4.4831">
        <ele>126.049799</ele>
        <time>2022-12-09T15:56:55.519Z</time>
      </trkpt>
      <trkpt lat="48.39591" lon="-4.48296">
        <ele>126.453934</ele>
        <time>2022-12-09T15:56:59.513Z</time>
      </trkpt>
      <trkpt lat="48.39586" lon="-4.48283">
        <ele>126.794481</ele>
        <time>2022-12-09T15:57:02.523Z</time>
      </trkpt>
      <trkpt lat="48.39582" lon="-4.48266">
        <ele>127.206675</ele>
        <time>2022-12-09T15:57:06.525Z</time>
      </trkpt>
      <trkpt lat="48.39578" lon="-4.48253">
        <ele>127.527506</ele>
        <time>2022-12-09T15:57:09.516Z</time>
      </trkpt>
      <trkpt lat="48.39584" lon="-4.48238">
        <ele>127.935873</ele>
        <time>2022-12-09T15:57:13.513Z</time>
      </trkpt>
      <trkpt lat="48.39591" lon="-4.48228">
        <ele>128.256835</ele>
        <time>2022-12-09T15:57:16.509Z</time>
      </trkpt>
      <trkpt lat="48.39597" lon="-4.48217">
        <ele>128.574203</ele>
        <time>2022-12-09T15:57:19.521Z</time>
      </trkpt>
      <trkpt lat="48.39604" lon="-4.48208">
        <ele>128.905026</ele>
        <time>2022-12-09T15:57:22.527Z</time>
      </trkpt>
      <trkpt lat="48.39611" lon="-4.48199">
        <ele>129.226547</ele>
        <time>2022-12-09T15:57:25.520Z</time>
      </trkpt>
      <trkpt lat="48.3962" lon="-4.48187">
        <ele>129.62117</ele>
        <time>2022-12-09T15:57:29.524Z</time>
      </trkpt>
      <trkpt lat="48.39628" lon="-4.48179">
        <ele>129.956925</ele>
        <time>2022-12-09T15:57:32.527Z</time>
      </trkpt>
      <trkpt lat="48.39635" lon="-4.4817">
        <ele>130.268086</ele>
        <time>2022-12-09T15:57:35.521Z</time>
      </trkpt>
      <trkpt lat="48.39641" lon="-4.48159">
        <ele>130.469474</ele>
        <time>2022-12-09T15:57:39.507Z</time>
      </trkpt>
      <trkpt lat="48.39648" lon="-4.48146">
        <ele>130.684174</ele>
        <time>2022-12-09T15:57:45.530Z</time>
      </trkpt>
      <trkpt lat="48.39656" lon="-4.48137">
        <ele>130.886562</ele>
        <time>2022-12-09T15:57:51.510Z</time>
      </trkpt>
      <trkpt lat="48.39663" lon="-4.48126">
        <ele>131.087071</ele>
        <time>2022-12-09T15:57:55.510Z</time>
      </trkpt>
      <trkpt lat="48.39671" lon="-4.48115">
        <ele>131.297042</ele>
        <time>2022-12-09T15:57:59.507Z</time>
      </trkpt>
      <trkpt lat="48.39677" lon="-4.48104">
        <ele>131.497898</ele>
        <time>2022-12-09T15:58:03.522Z</time>
      </trkpt>
      <trkpt lat="48.39686" lon="-4.48092">
        <ele>131.733199</ele>
        <time>2022-12-09T15:58:07.515Z</time>
      </trkpt>
      <trkpt lat="48.39694" lon="-4.48083">
        <ele>131.928608</ele>
        <time>2022-12-09T15:58:10.513Z</time>
      </trkpt>
      <trkpt lat="48.39703" lon="-4.48073">
        <ele>132.151685</ele>
        <time>2022-12-09T15:58:14.525Z</time>
      </trkpt>
      <trkpt lat="48.3971" lon="-4.48063">
        <ele>132.338912</ele>
        <time>2022-12-09T15:58:18.524Z</time>
      </trkpt>
      <trkpt lat="48.39719" lon="-4.48053">
        <ele>132.561966</ele>
        <time>2022-12-09T15:58:23.508Z</time>
      </trkpt>
      <trkpt lat="48.39727" lon="-4.48044">
        <ele>132.757372</ele>
        <time>2022-12-09T15:58:26.532Z</time>
      </trkpt>
      <trkpt lat="48.39734" lon="-4.48035">
        <ele>132.947353</ele>
        <time>2022-12-09T15:58:29.525Z</time>
      </trkpt>
      <trkpt lat="48.39742" lon="-4.48026">
        <ele>133.139413</ele>
        <time>2022-12-09T15:58:32.531Z</time>
      </trkpt>
      <trkpt lat="48.39749" lon="-4.48016">
        <ele>133.335485</ele>
        <time>2022-12-09T15:58:35.529Z</time>
      </trkpt>
      <trkpt lat="48.39758" lon="-4.48004">
        <ele>133.574605</ele>
        <time>2022-12-09T15:58:39.525Z</time>
      </trkpt>
      <trkpt lat="48.39766" lon="-4.47996">
        <ele>133.768636</ele>
        <time>2022-12-09T15:58:42.541Z</time>
      </trkpt>
      <trkpt lat="48.39774" lon="-4.47988">
        <ele>133.958214</ele>
        <time>2022-12-09T15:58:45.534Z</time>
      </trkpt>
      <trkpt lat="48.39783" lon="-4.47976">
        <ele>134.168709</ele>
        <time>2022-12-09T15:58:49.524Z</time>
      </trkpt>
      <trkpt lat="48.39792" lon="-4.47965">
        <ele>134.381818</ele>
        <time>2022-12-09T15:58:53.529Z</time>
      </trkpt>
      <trkpt lat="48.39799" lon="-4.47956">
        <ele>134.559415</ele>
        <time>2022-12-09T15:58:56.523Z</time>
      </trkpt>
      <trkpt lat="48.39806" lon="-4.47947">
        <ele>134.735577</ele>
        <time>2022-12-09T15:58:59.523Z</time>
      </trkpt>
      <trkpt lat="48.39814" lon="-4.47939">
        <ele>134.905612</ele>
        <time>2022-12-09T15:59:02.528Z</time>
      </trkpt>
      <trkpt lat="48.39821" lon="-4.47928">
        <ele>135.100092</ele>
        <time>2022-12-09T15:59:06.506Z</time>
      </trkpt>
      <trkpt lat="48.39828" lon="-4.47918">
        <ele>135.276611</ele>
        <time>2022-12-09T15:59:14.510Z</time>
      </trkpt>
      <trkpt lat="48.39836" lon="-4.47908">
        <ele>135.465236</ele>
        <time>2022-12-09T15:59:26.515Z</time>
      </trkpt>
      <trkpt lat="48.39843" lon="-4.47899">
        <ele>135.640403</ele>
        <time>2022-12-09T15:59:30.513Z</time>
      </trkpt>
      <trkpt lat="48.39851" lon="-4.47892">
        <ele>135.811425</ele>
        <time>2022-12-09T15:59:33.514Z</time>
      </trkpt>
      <trkpt lat="48.39858" lon="-4.47884">
        <ele>135.985222</ele>
        <time>2022-12-09T15:59:36.527Z</time>
      </trkpt>
      <trkpt lat="48.39866" lon="-4.47874">
        <ele>136.179924</ele>
        <time>2022-12-09T15:59:41.528Z</time>
      </trkpt>
      <trkpt lat="48.39876" lon="-4.47866">
        <ele>136.392066</ele>
        <time>2022-12-09T15:59:46.514Z</time>
      </trkpt>
      <trkpt lat="48.39882" lon="-4.47855">
        <ele>136.561192</ele>
        <time>2022-12-09T15:59:49.514Z</time>
      </trkpt>
      <trkpt lat="48.3989" lon="-4.47846">
        <ele>136.732915</ele>
        <time>2022-12-09T15:59:52.509Z</time>
      </trkpt>
      <trkpt lat="48.39896" lon="-4.47833">
        <ele>136.935759</ele>
        <time>2022-12-09T15:59:56.512Z</time>
      </trkpt>
      <trkpt lat="48.39903" lon="-4.47824">
        <ele>137.115107</ele>
        <time>2022-12-09T16:00:00.518Z</time>
      </trkpt>
      <trkpt lat="48.39913" lon="-4.47824">
        <ele>137.106252</ele>
        <time>2022-12-09T16:00:05.513Z</time>
      </trkpt>
      <trkpt lat="48.39922" lon="-4.47835">
        <ele>136.845623</ele>
        <time>2022-12-09T16:00:14.513Z</time>
      </trkpt>
      <trkpt lat="48.39931" lon="-4.47845">
        <ele>136.595668</ele>
        <time>2022-12-09T16:00:17.504Z</time>
      </trkpt>
      <trkpt lat="48.39941" lon="-4.47855">
        <ele>136.339945</ele>
        <time>2022-12-09T16:00:20.515Z</time>
      </trkpt>
      <trkpt lat="48.39949" lon="-4.47864">
        <ele>136.106831</ele>
        <time>2022-12-09T16:00:23.509Z</time>
      </trkpt>
      <trkpt lat="48.39958" lon="-4.47873">
        <ele>135.864427</ele>
        <time>2022-12-09T16:00:27.512Z</time>
      </trkpt>
      <trkpt lat="48.39968" lon="-4.47876">
        <ele>135.644321</ele>
        <time>2022-12-09T16:00:31.512Z</time>
      </trkpt>
      <trkpt lat="48.39976" lon="-4.47869">
        <ele>135.435152</ele>
        <time>2022-12-09T16:00:36.509Z</time>
      </trkpt>
      <trkpt lat="48.3997" lon="-4.4788">
        <ele>135.224257</ele>
        <time>2022-12-09T16:01:08.508Z</time>
      </trkpt>
      <trkpt lat="48.39961" lon="-4.47881">
        <ele>135.010598</ele>
        <time>2022-12-09T16:01:14.517Z</time>
      </trkpt>
      <trkpt lat="48.39954" lon="-4.47872">
        <ele>134.807751</ele>
        <time>2022-12-09T16:01:23.505Z</time>
      </trkpt>
      <trkpt lat="48.39947" lon="-4.47863">
        <ele>134.608299</ele>
        <time>2022-12-09T16:01:27.524Z</time>
      </trkpt>
      <trkpt lat="48.39938" lon="-4.47854">
        <ele>134.373238</ele>
        <time>2022-12-09T16:01:32.515Z</time>
      </trkpt>
      <trkpt lat="48.3993" lon="-4.47846">
        <ele>134.148662</ele>
        <time>2022-12-09T16:01:37.524Z</time>
      </trkpt>
      <trkpt lat="48.39921" lon="-4.47836">
        <ele>133.911984</ele>
        <time>2022-12-09T16:01:42.508Z</time>
      </trkpt>
      <trkpt lat="48.39916" lon="-4.47825">
        <ele>133.70304</ele>
        <time>2022-12-09T16:01:47.514Z</time>
      </trkpt>
      <trkpt lat="48.3992" lon="-4.47811">
        <ele>133.473757</ele>
        <time>2022-12-09T16:01:53.504Z</time>
      </trkpt>
      <trkpt lat="48.39928" lon="-4.47801">
        <ele>133.250041</ele>
        <time>2022-12-09T16:01:58.528Z</time>
      </trkpt>
      <trkpt lat="48.39935" lon="-4.4779">
        <ele>133.307607</ele>
        <time>2022-12-09T16:02:04.513Z</time>
      </trkpt>
      <trkpt lat="48.39931" lon="-4.47776">
        <ele>133.426743</ele>
        <time>2022-12-09T16:02:31.514Z</time>
      </trkpt>
      <trkpt lat="48.39924" lon="-4.47766">
        <ele>133.532444</ele>
        <time>2022-12-09T16:02:35.512Z</time>
      </trkpt>
      <trkpt lat="48.39918" lon="-4.47753">
        <ele>133.655621</ele>
        <time>2022-12-09T16:02:41.537Z</time>
      </trkpt>
      <trkpt lat="48.3991" lon="-4.47743">
        <ele>133.764247</ele>
        <time>2022-12-09T16:02:46.513Z</time>
      </trkpt>
      <trkpt lat="48.39903" lon="-4.47734">
        <ele>133.871425</ele>
        <time>2022-12-09T16:02:51.523Z</time>
      </trkpt>
      <trkpt lat="48.39902" lon="-4.47733">
        <ele>133.883368</ele>
        <time>2022-12-09T16:03:02.835Z</time>
      </trkpt>
      <trkpt lat="48.40031" lon="-4.47946">
        <ele>132.85929</ele>
        <time>2022-12-09T16:33:43.553Z</time>
      </trkpt>
      <trkpt lat="48.40013" lon="-4.47951">
        <ele>132.237964</ele>
        <time>2022-12-09T16:34:56.531Z</time>
      </trkpt>
      <trkpt lat="48.40004" lon="-4.4795">
        <ele>131.923944</ele>
        <time>2022-12-09T16:35:00.525Z</time>
      </trkpt>
      <trkpt lat="48.39995" lon="-4.47946">
        <ele>131.609455</ele>
        <time>2022-12-09T16:35:06.523Z</time>
      </trkpt>
      <trkpt lat="48.3999" lon="-4.47935">
        <ele>131.280617</ele>
        <time>2022-12-09T16:35:12.525Z</time>
      </trkpt>
      <trkpt lat="48.39987" lon="-4.47921">
        <ele>130.971026</ele>
        <time>2022-12-09T16:35:17.530Z</time>
      </trkpt>
      <trkpt lat="48.39985" lon="-4.47907">
        <ele>130.623541</ele>
        <time>2022-12-09T16:35:23.520Z</time>
      </trkpt>
      <trkpt lat="48.39978" lon="-4.47895">
        <ele>130.275105</ele>
        <time>2022-12-09T16:35:29.532Z</time>
      </trkpt>
      <trkpt lat="48.39971" lon="-4.47886">
        <ele>129.936194</ele>
        <time>2022-12-09T16:35:35.520Z</time>
      </trkpt>
      <trkpt lat="48.39955" lon="-4.47867">
        <ele>129.234837</ele>
        <time>2022-12-09T16:36:06.533Z</time>
      </trkpt>
      <trkpt lat="48.39947" lon="-4.4786">
        <ele>129.276665</ele>
        <time>2022-12-09T16:36:10.546Z</time>
      </trkpt>
      <trkpt lat="48.39939" lon="-4.47852">
        <ele>129.690523</ele>
        <time>2022-12-09T16:36:15.522Z</time>
      </trkpt>
      <trkpt lat="48.3993" lon="-4.47846">
        <ele>130.100548</ele>
        <time>2022-12-09T16:36:20.529Z</time>
      </trkpt>
      <trkpt lat="48.39923" lon="-4.47835">
        <ele>130.519639</ele>
        <time>2022-12-09T16:36:26.518Z</time>
      </trkpt>
      <trkpt lat="48.39913" lon="-4.47828">
        <ele>130.994407</ele>
        <time>2022-12-09T16:36:32.523Z</time>
      </trkpt>
      <trkpt lat="48.39903" lon="-4.47828">
        <ele>131.422135</ele>
        <time>2022-12-09T16:36:37.524Z</time>
      </trkpt>
      <trkpt lat="48.39894" lon="-4.47821">
        <ele>131.847346</ele>
        <time>2022-12-09T16:36:44.536Z</time>
      </trkpt>
      <trkpt lat="48.39885" lon="-4.47816">
        <ele>132.270264</ele>
        <time>2022-12-09T16:36:51.520Z</time>
      </trkpt>
      <trkpt lat="48.39876" lon="-4.47812">
        <ele>132.676398</ele>
        <time>2022-12-09T16:36:57.526Z</time>
      </trkpt>
      <trkpt lat="48.39866" lon="-4.47809">
        <ele>133.093664</ele>
        <time>2022-12-09T16:37:03.523Z</time>
      </trkpt>
      <trkpt lat="48.39857" lon="-4.47806">
        <ele>133.506137</ele>
        <time>2022-12-09T16:37:09.521Z</time>
      </trkpt>
      <trkpt lat="48.39848" lon="-4.47801">
        <ele>133.911973</ele>
        <time>2022-12-09T16:37:14.526Z</time>
      </trkpt>
      <trkpt lat="48.39839" lon="-4.47799">
        <ele>134.317758</ele>
        <time>2022-12-09T16:37:19.525Z</time>
      </trkpt>
      <trkpt lat="48.3983" lon="-4.47791">
        <ele>134.733547</ele>
        <time>2022-12-09T16:37:24.539Z</time>
      </trkpt>
      <trkpt lat="48.39823" lon="-4.47782">
        <ele>135.15704</ele>
        <time>2022-12-09T16:37:29.523Z</time>
      </trkpt>
      <trkpt lat="48.39816" lon="-4.4777">
        <ele>135.603826</ele>
        <time>2022-12-09T16:37:34.540Z</time>
      </trkpt>
      <trkpt lat="48.39809" lon="-4.47759">
        <ele>136.037853</ele>
        <time>2022-12-09T16:37:38.529Z</time>
      </trkpt>
      <trkpt lat="48.39802" lon="-4.4775">
        <ele>136.424165</ele>
        <time>2022-12-09T16:37:42.534Z</time>
      </trkpt>
      <trkpt lat="48.39796" lon="-4.47739">
        <ele>136.759029</ele>
        <time>2022-12-09T16:37:46.544Z</time>
      </trkpt>
      <trkpt lat="48.39789" lon="-4.47728">
        <ele>136.717846</ele>
        <time>2022-12-09T16:37:50.545Z</time>
      </trkpt>
      <trkpt lat="48.39782" lon="-4.47715">
        <ele>136.67118</ele>
        <time>2022-12-09T16:37:54.531Z</time>
      </trkpt>
      <trkpt lat="48.39774" lon="-4.47703">
        <ele>136.624335</ele>
        <time>2022-12-09T16:37:58.537Z</time>
      </trkpt>
      <trkpt lat="48.39766" lon="-4.47692">
        <ele>136.578562</ele>
        <time>2022-12-09T16:38:02.547Z</time>
      </trkpt>
      <trkpt lat="48.39759" lon="-4.47681">
        <ele>136.534236</ele>
        <time>2022-12-09T16:38:06.538Z</time>
      </trkpt>
      <trkpt lat="48.3975" lon="-4.47672">
        <ele>136.490265</ele>
        <time>2022-12-09T16:38:10.530Z</time>
      </trkpt>
      <trkpt lat="48.39742" lon="-4.47663">
        <ele>136.447151</ele>
        <time>2022-12-09T16:38:15.523Z</time>
      </trkpt>
      <trkpt lat="48.39733" lon="-4.47643">
        <ele>136.381165</ele>
        <time>2022-12-09T16:39:12.526Z</time>
      </trkpt>
      <trkpt lat="48.39726" lon="-4.47635">
        <ele>136.341183</ele>
        <time>2022-12-09T16:39:15.528Z</time>
      </trkpt>
      <trkpt lat="48.39717" lon="-4.47626">
        <ele>136.297873</ele>
        <time>2022-12-09T16:39:18.541Z</time>
      </trkpt>
      <trkpt lat="48.39709" lon="-4.47619">
        <ele>136.259527</ele>
        <time>2022-12-09T16:39:21.538Z</time>
      </trkpt>
      <trkpt lat="48.39702" lon="-4.47609">
        <ele>136.220344</ele>
        <time>2022-12-09T16:39:25.534Z</time>
      </trkpt>
      <trkpt lat="48.39695" lon="-4.476">
        <ele>136.180569</ele>
        <time>2022-12-09T16:39:29.541Z</time>
      </trkpt>
      <trkpt lat="48.39684" lon="-4.47579">
        <ele>136.105573</ele>
        <time>2022-12-09T16:40:10.530Z</time>
      </trkpt>
      <trkpt lat="48.39675" lon="-4.47567">
        <ele>136.055956</ele>
        <time>2022-12-09T16:40:14.547Z</time>
      </trkpt>
      <trkpt lat="48.39668" lon="-4.47555">
        <ele>136.012066</ele>
        <time>2022-12-09T16:40:17.525Z</time>
      </trkpt>
      <trkpt lat="48.39661" lon="-4.47545">
        <ele>135.943979</ele>
        <time>2022-12-09T16:40:20.544Z</time>
      </trkpt>
      <trkpt lat="48.39654" lon="-4.47536">
        <ele>135.880349</ele>
        <time>2022-12-09T16:40:24.549Z</time>
      </trkpt>
      <trkpt lat="48.39648" lon="-4.47525">
        <ele>135.81587</ele>
        <time>2022-12-09T16:40:28.522Z</time>
      </trkpt>
      <trkpt lat="48.3965" lon="-4.47509">
        <ele>135.740898</ele>
        <time>2022-12-09T16:40:32.521Z</time>
      </trkpt>
      <trkpt lat="48.39652" lon="-4.47491">
        <ele>135.656466</ele>
        <time>2022-12-09T16:40:36.535Z</time>
      </trkpt>
      <trkpt lat="48.39654" lon="-4.47477">
        <ele>135.588045</ele>
        <time>2022-12-09T16:40:39.523Z</time>
      </trkpt>
      <trkpt lat="48.39657" lon="-4.47463">
        <ele>135.521703</ele>
        <time>2022-12-09T16:40:42.535Z</time>
      </trkpt>
      <trkpt lat="48.3966" lon="-4.47449">
        <ele>135.454914</ele>
        <time>2022-12-09T16:40:45.532Z</time>
      </trkpt>
      <trkpt lat="48.39663" lon="-4.47436">
        <ele>135.390954</ele>
        <time>2022-12-09T16:40:48.543Z</time>
      </trkpt>
      <trkpt lat="48.39668" lon="-4.47419">
        <ele>135.306267</ele>
        <time>2022-12-09T16:40:52.539Z</time>
      </trkpt>
      <trkpt lat="48.3967" lon="-4.47405">
        <ele>135.240138</ele>
        <time>2022-12-09T16:40:55.543Z</time>
      </trkpt>
      <trkpt lat="48.39674" lon="-4.47391">
        <ele>135.167504</ele>
        <time>2022-12-09T16:40:58.545Z</time>
      </trkpt>
      <trkpt lat="48.39679" lon="-4.47377">
        <ele>135.098343</ele>
        <time>2022-12-09T16:41:01.547Z</time>
      </trkpt>
      <trkpt lat="48.39682" lon="-4.47364">
        <ele>135.034256</ele>
        <time>2022-12-09T16:41:04.548Z</time>
      </trkpt>
      <trkpt lat="48.39686" lon="-4.4735">
        <ele>134.965212</ele>
        <time>2022-12-09T16:41:07.548Z</time>
      </trkpt>
      <trkpt lat="48.39688" lon="-4.47335">
        <ele>134.893669</ele>
        <time>2022-12-09T16:41:10.546Z</time>
      </trkpt>
      <trkpt lat="48.3969" lon="-4.4732">
        <ele>134.823921</ele>
        <time>2022-12-09T16:41:13.539Z</time>
      </trkpt>
      <trkpt lat="48.39692" lon="-4.47305">
        <ele>134.722372</ele>
        <time>2022-12-09T16:41:16.530Z</time>
      </trkpt>
      <trkpt lat="48.39693" lon="-4.4729">
        <ele>134.419519</ele>
        <time>2022-12-09T16:41:19.542Z</time>
      </trkpt>
      <trkpt lat="48.39694" lon="-4.47274">
        <ele>134.111308</ele>
        <time>2022-12-09T16:41:22.526Z</time>
      </trkpt>
      <trkpt lat="48.39695" lon="-4.47257">
        <ele>133.772285</ele>
        <time>2022-12-09T16:41:25.547Z</time>
      </trkpt>
      <trkpt lat="48.39696" lon="-4.47239">
        <ele>133.410144</ele>
        <time>2022-12-09T16:41:28.543Z</time>
      </trkpt>
      <trkpt lat="48.39697" lon="-4.47219">
        <ele>133.031356</ele>
        <time>2022-12-09T16:41:31.522Z</time>
      </trkpt>
      <trkpt lat="48.39696" lon="-4.47203">
        <ele>132.716983</ele>
        <time>2022-12-09T16:41:34.547Z</time>
      </trkpt>
      <trkpt lat="48.39697" lon="-4.47189">
        <ele>132.437667</ele>
        <time>2022-12-09T16:41:37.548Z</time>
      </trkpt>
      <trkpt lat="48.39697" lon="-4.47174">
        <ele>132.152254</ele>
        <time>2022-12-09T16:41:40.528Z</time>
      </trkpt>
      <trkpt lat="48.39697" lon="-4.47158">
        <ele>131.834019</ele>
        <time>2022-12-09T16:41:43.543Z</time>
      </trkpt>
      <trkpt lat="48.39697" lon="-4.47141">
        <ele>131.507987</ele>
        <time>2022-12-09T16:41:46.525Z</time>
      </trkpt>
      <trkpt lat="48.39696" lon="-4.47121">
        <ele>131.118771</ele>
        <time>2022-12-09T16:41:49.525Z</time>
      </trkpt>
      <trkpt lat="48.39697" lon="-4.47103">
        <ele>130.751447</ele>
        <time>2022-12-09T16:41:52.544Z</time>
      </trkpt>
      <trkpt lat="48.39697" lon="-4.47085">
        <ele>130.401791</ele>
        <time>2022-12-09T16:41:55.547Z</time>
      </trkpt>
      <trkpt lat="48.39698" lon="-4.47066">
        <ele>130.045491</ele>
        <time>2022-12-09T16:41:58.546Z</time>
      </trkpt>
      <trkpt lat="48.39699" lon="-4.4705">
        <ele>129.715615</ele>
        <time>2022-12-09T16:42:01.541Z</time>
      </trkpt>
      <trkpt lat="48.39701" lon="-4.47031">
        <ele>129.395112</ele>
        <time>2022-12-09T16:42:04.552Z</time>
      </trkpt>
      <trkpt lat="48.39704" lon="-4.47013">
        <ele>129.164424</ele>
        <time>2022-12-09T16:42:07.545Z</time>
      </trkpt>
      <trkpt lat="48.39707" lon="-4.47001">
        <ele>128.990067</ele>
        <time>2022-12-09T16:42:09.552Z</time>
      </trkpt>
      <trkpt lat="48.39713" lon="-4.46983">
        <ele>128.73645</ele>
        <time>2022-12-09T16:42:12.533Z</time>
      </trkpt>
      <trkpt lat="48.3972" lon="-4.46966">
        <ele>128.483538</ele>
        <time>2022-12-09T16:42:15.528Z</time>
      </trkpt>
      <trkpt lat="48.39725" lon="-4.46948">
        <ele>128.226494</ele>
        <time>2022-12-09T16:42:18.537Z</time>
      </trkpt>
      <trkpt lat="48.39731" lon="-4.46931">
        <ele>127.984409</ele>
        <time>2022-12-09T16:42:21.558Z</time>
      </trkpt>
      <trkpt lat="48.39735" lon="-4.46913">
        <ele>127.743035</ele>
        <time>2022-12-09T16:42:24.537Z</time>
      </trkpt>
      <trkpt lat="48.39739" lon="-4.46895">
        <ele>127.501489</ele>
        <time>2022-12-09T16:42:27.537Z</time>
      </trkpt>
      <trkpt lat="48.39741" lon="-4.46876">
        <ele>127.25709</ele>
        <time>2022-12-09T16:42:30.538Z</time>
      </trkpt>
      <trkpt lat="48.39742" lon="-4.46858">
        <ele>127.033178</ele>
        <time>2022-12-09T16:42:33.537Z</time>
      </trkpt>
      <trkpt lat="48.39743" lon="-4.46844">
        <ele>126.848798</ele>
        <time>2022-12-09T16:42:36.538Z</time>
      </trkpt>
      <trkpt lat="48.39745" lon="-4.46826">
        <ele>126.617629</ele>
        <time>2022-12-09T16:42:40.544Z</time>
      </trkpt>
      <trkpt lat="48.39746" lon="-4.46812">
        <ele>126.434689</ele>
        <time>2022-12-09T16:42:43.547Z</time>
      </trkpt>
      <trkpt lat="48.39747" lon="-4.46798">
        <ele>126.259794</ele>
        <time>2022-12-09T16:42:46.544Z</time>
      </trkpt>
      <trkpt lat="48.39748" lon="-4.46784">
        <ele>126.079221</ele>
        <time>2022-12-09T16:42:49.544Z</time>
      </trkpt>
      <trkpt lat="48.39749" lon="-4.4677">
        <ele>125.891062</ele>
        <time>2022-12-09T16:42:52.533Z</time>
      </trkpt>
      <trkpt lat="48.39751" lon="-4.46753">
        <ele>125.663899</ele>
        <time>2022-12-09T16:42:56.533Z</time>
      </trkpt>
      <trkpt lat="48.39752" lon="-4.46739">
        <ele>125.468246</ele>
        <time>2022-12-09T16:42:59.539Z</time>
      </trkpt>
      <trkpt lat="48.39755" lon="-4.46723">
        <ele>125.253105</ele>
        <time>2022-12-09T16:43:02.547Z</time>
      </trkpt>
      <trkpt lat="48.39758" lon="-4.46708">
        <ele>125.039029</ele>
        <time>2022-12-09T16:43:05.539Z</time>
      </trkpt>
      <trkpt lat="48.39762" lon="-4.46691">
        <ele>124.794371</ele>
        <time>2022-12-09T16:43:09.541Z</time>
      </trkpt>
      <trkpt lat="48.39766" lon="-4.46678">
        <ele>124.59121</ele>
        <time>2022-12-09T16:43:12.538Z</time>
      </trkpt>
      <trkpt lat="48.39769" lon="-4.46664">
        <ele>124.398223</ele>
        <time>2022-12-09T16:43:15.533Z</time>
      </trkpt>
      <trkpt lat="48.39773" lon="-4.46651">
        <ele>124.203245</ele>
        <time>2022-12-09T16:43:18.542Z</time>
      </trkpt>
      <trkpt lat="48.39777" lon="-4.46638">
        <ele>124.019362</ele>
        <time>2022-12-09T16:43:21.542Z</time>
      </trkpt>
      <trkpt lat="48.3978" lon="-4.46625">
        <ele>123.82947</ele>
        <time>2022-12-09T16:43:24.536Z</time>
      </trkpt>
      <trkpt lat="48.39784" lon="-4.46608">
        <ele>123.581568</ele>
        <time>2022-12-09T16:43:28.545Z</time>
      </trkpt>
      <trkpt lat="48.3979" lon="-4.46594">
        <ele>123.363977</ele>
        <time>2022-12-09T16:43:31.544Z</time>
      </trkpt>
      <trkpt lat="48.39795" lon="-4.46579">
        <ele>123.133342</ele>
        <time>2022-12-09T16:43:34.541Z</time>
      </trkpt>
      <trkpt lat="48.39799" lon="-4.46562">
        <ele>122.893737</ele>
        <time>2022-12-09T16:43:37.541Z</time>
      </trkpt>
      <trkpt lat="48.39801" lon="-4.46545">
        <ele>122.666955</ele>
        <time>2022-12-09T16:43:40.531Z</time>
      </trkpt>
      <trkpt lat="48.39801" lon="-4.46532">
        <ele>122.4818</ele>
        <time>2022-12-09T16:43:43.547Z</time>
      </trkpt>
      <trkpt lat="48.39802" lon="-4.46518">
        <ele>122.530492</ele>
        <time>2022-12-09T16:43:46.546Z</time>
      </trkpt>
      <trkpt lat="48.39805" lon="-4.46501">
        <ele>122.976089</ele>
        <time>2022-12-09T16:43:50.532Z</time>
      </trkpt>
      <trkpt lat="48.39808" lon="-4.46485">
        <ele>123.403657</ele>
        <time>2022-12-09T16:43:54.539Z</time>
      </trkpt>
      <trkpt lat="48.39811" lon="-4.46471">
        <ele>123.775039</ele>
        <time>2022-12-09T16:43:58.542Z</time>
      </trkpt>
      <trkpt lat="48.39811" lon="-4.46458">
        <ele>124.127487</ele>
        <time>2022-12-09T16:44:02.545Z</time>
      </trkpt>
      <trkpt lat="48.39813" lon="-4.46444">
        <ele>124.484204</ele>
        <time>2022-12-09T16:44:06.545Z</time>
      </trkpt>
      <trkpt lat="48.39813" lon="-4.46428">
        <ele>124.902682</ele>
        <time>2022-12-09T16:44:11.536Z</time>
      </trkpt>
      <trkpt lat="48.39813" lon="-4.46412">
        <ele>125.315781</ele>
        <time>2022-12-09T16:44:16.529Z</time>
      </trkpt>
      <trkpt lat="48.39814" lon="-4.46397">
        <ele>125.711216</ele>
        <time>2022-12-09T16:44:21.522Z</time>
      </trkpt>
      <trkpt lat="48.39813" lon="-4.46382">
        <ele>126.098915</ele>
        <time>2022-12-09T16:44:26.544Z</time>
      </trkpt>
      <trkpt lat="48.39812" lon="-4.46366">
        <ele>126.495047</ele>
        <time>2022-12-09T16:44:31.542Z</time>
      </trkpt>
      <trkpt lat="48.3981" lon="-4.46352">
        <ele>126.86724</ele>
        <time>2022-12-09T16:44:36.544Z</time>
      </trkpt>
      <trkpt lat="48.39809" lon="-4.46338">
        <ele>127.239695</ele>
        <time>2022-12-09T16:44:41.523Z</time>
      </trkpt>
      <trkpt lat="48.39809" lon="-4.46323">
        <ele>127.619879</ele>
        <time>2022-12-09T16:44:46.539Z</time>
      </trkpt>
      <trkpt lat="48.39808" lon="-4.46308">
        <ele>128.017588</ele>
        <time>2022-12-09T16:44:51.532Z</time>
      </trkpt>
      <trkpt lat="48.39808" lon="-4.46294">
        <ele>128.379007</ele>
        <time>2022-12-09T16:44:56.537Z</time>
      </trkpt>
      <trkpt lat="48.39809" lon="-4.46277">
        <ele>128.813799</ele>
        <time>2022-12-09T16:45:01.525Z</time>
      </trkpt>
      <trkpt lat="48.39811" lon="-4.46263">
        <ele>129.184305</ele>
        <time>2022-12-09T16:45:05.521Z</time>
      </trkpt>
      <trkpt lat="48.39814" lon="-4.46249">
        <ele>129.31375</ele>
        <time>2022-12-09T16:45:09.545Z</time>
      </trkpt>
      <trkpt lat="48.39817" lon="-4.46233">
        <ele>129.184255</ele>
        <time>2022-12-09T16:45:13.545Z</time>
      </trkpt>
      <trkpt lat="48.3982" lon="-4.46217">
        <ele>129.049973</ele>
        <time>2022-12-09T16:45:17.543Z</time>
      </trkpt>
      <trkpt lat="48.39824" lon="-4.46201">
        <ele>128.914976</ele>
        <time>2022-12-09T16:45:21.535Z</time>
      </trkpt>
      <trkpt lat="48.39827" lon="-4.46184">
        <ele>128.776618</ele>
        <time>2022-12-09T16:45:25.526Z</time>
      </trkpt>
      <trkpt lat="48.39831" lon="-4.4617">
        <ele>128.657435</ele>
        <time>2022-12-09T16:45:29.519Z</time>
      </trkpt>
      <trkpt lat="48.39835" lon="-4.46154">
        <ele>128.524335</ele>
        <time>2022-12-09T16:45:33.542Z</time>
      </trkpt>
      <trkpt lat="48.39839" lon="-4.46141">
        <ele>128.409044</ele>
        <time>2022-12-09T16:45:36.546Z</time>
      </trkpt>
      <trkpt lat="48.39844" lon="-4.46127">
        <ele>128.288601</ele>
        <time>2022-12-09T16:45:39.524Z</time>
      </trkpt>
      <trkpt lat="48.3985" lon="-4.46113">
        <ele>128.154665</ele>
        <time>2022-12-09T16:45:42.546Z</time>
      </trkpt>
      <trkpt lat="48.39855" lon="-4.46097">
        <ele>128.018164</ele>
        <time>2022-12-09T16:45:45.532Z</time>
      </trkpt>
      <trkpt lat="48.3986" lon="-4.46082">
        <ele>127.883393</ele>
        <time>2022-12-09T16:45:48.540Z</time>
      </trkpt>
      <trkpt lat="48.39864" lon="-4.46067">
        <ele>127.755113</ele>
        <time>2022-12-09T16:45:51.536Z</time>
      </trkpt>
      <trkpt lat="48.39868" lon="-4.46052">
        <ele>127.622986</ele>
        <time>2022-12-09T16:45:54.548Z</time>
      </trkpt>
      <trkpt lat="48.39873" lon="-4.46035">
        <ele>127.484475</ele>
        <time>2022-12-09T16:45:57.526Z</time>
      </trkpt>
      <trkpt lat="48.39876" lon="-4.46021">
        <ele>127.360171</ele>
        <time>2022-12-09T16:46:00.545Z</time>
      </trkpt>
      <trkpt lat="48.39879" lon="-4.46006">
        <ele>127.23974</ele>
        <time>2022-12-09T16:46:03.525Z</time>
      </trkpt>
      <trkpt lat="48.39883" lon="-4.45993">
        <ele>126.94814</ele>
        <time>2022-12-09T16:46:06.547Z</time>
      </trkpt>
      <trkpt lat="48.39887" lon="-4.45979">
        <ele>126.610152</ele>
        <time>2022-12-09T16:46:10.541Z</time>
      </trkpt>
      <trkpt lat="48.39889" lon="-4.45965">
        <ele>126.315335</ele>
        <time>2022-12-09T16:46:13.537Z</time>
      </trkpt>
      <trkpt lat="48.39891" lon="-4.45952">
        <ele>126.016415</ele>
        <time>2022-12-09T16:46:16.543Z</time>
      </trkpt>
      <trkpt lat="48.39893" lon="-4.45937">
        <ele>125.700751</ele>
        <time>2022-12-09T16:46:19.527Z</time>
      </trkpt>
      <trkpt lat="48.39896" lon="-4.45922">
        <ele>125.379509</ele>
        <time>2022-12-09T16:46:22.524Z</time>
      </trkpt>
      <trkpt lat="48.39898" lon="-4.45907">
        <ele>125.037498</ele>
        <time>2022-12-09T16:46:25.546Z</time>
      </trkpt>
      <trkpt lat="48.399" lon="-4.4589">
        <ele>124.674479</ele>
        <time>2022-12-09T16:46:28.540Z</time>
      </trkpt>
      <trkpt lat="48.39901" lon="-4.45873">
        <ele>124.30475</ele>
        <time>2022-12-09T16:46:31.533Z</time>
      </trkpt>
      <trkpt lat="48.39902" lon="-4.45857">
        <ele>123.954111</ele>
        <time>2022-12-09T16:46:34.541Z</time>
      </trkpt>
      <trkpt lat="48.39902" lon="-4.45839">
        <ele>123.576021</ele>
        <time>2022-12-09T16:46:37.541Z</time>
      </trkpt>
      <trkpt lat="48.39902" lon="-4.4582">
        <ele>123.170221</ele>
        <time>2022-12-09T16:46:40.547Z</time>
      </trkpt>
      <trkpt lat="48.39901" lon="-4.45803">
        <ele>122.812834</ele>
        <time>2022-12-09T16:46:43.527Z</time>
      </trkpt>
      <trkpt lat="48.39899" lon="-4.45788">
        <ele>122.487509</ele>
        <time>2022-12-09T16:46:46.528Z</time>
      </trkpt>
      <trkpt lat="48.39896" lon="-4.45771">
        <ele>122.110114</ele>
        <time>2022-12-09T16:46:49.537Z</time>
      </trkpt>
      <trkpt lat="48.39891" lon="-4.45753">
        <ele>121.689047</ele>
        <time>2022-12-09T16:46:52.535Z</time>
      </trkpt>
      <trkpt lat="48.39887" lon="-4.45738">
        <ele>121.291012</ele>
        <time>2022-12-09T16:46:55.547Z</time>
      </trkpt>
      <trkpt lat="48.39882" lon="-4.45722">
        <ele>120.808212</ele>
        <time>2022-12-09T16:46:58.541Z</time>
      </trkpt>
      <trkpt lat="48.39878" lon="-4.45707">
        <ele>120.356799</ele>
        <time>2022-12-09T16:47:01.546Z</time>
      </trkpt>
      <trkpt lat="48.39874" lon="-4.45691">
        <ele>119.90979</ele>
        <time>2022-12-09T16:47:04.528Z</time>
      </trkpt>
      <trkpt lat="48.39872" lon="-4.45677">
        <ele>119.504722</ele>
        <time>2022-12-09T16:47:07.548Z</time>
      </trkpt>
      <trkpt lat="48.39868" lon="-4.45661">
        <ele>119.01158</ele>
        <time>2022-12-09T16:47:11.545Z</time>
      </trkpt>
      <trkpt lat="48.39864" lon="-4.45647">
        <ele>118.594435</ele>
        <time>2022-12-09T16:47:14.543Z</time>
      </trkpt>
      <trkpt lat="48.39861" lon="-4.45632">
        <ele>118.159318</ele>
        <time>2022-12-09T16:47:17.543Z</time>
      </trkpt>
      <trkpt lat="48.39858" lon="-4.45619">
        <ele>117.771098</ele>
        <time>2022-12-09T16:47:20.549Z</time>
      </trkpt>
      <trkpt lat="48.39855" lon="-4.45605">
        <ele>117.375548</ele>
        <time>2022-12-09T16:47:23.548Z</time>
      </trkpt>
      <trkpt lat="48.39855" lon="-4.45588">
        <ele>116.905812</ele>
        <time>2022-12-09T16:47:26.525Z</time>
      </trkpt>
      <trkpt lat="48.39855" lon="-4.4557">
        <ele>116.405663</ele>
        <time>2022-12-09T16:47:29.546Z</time>
      </trkpt>
      <trkpt lat="48.39855" lon="-4.45552">
        <ele>115.885005</ele>
        <time>2022-12-09T16:47:32.526Z</time>
      </trkpt>
      <trkpt lat="48.39856" lon="-4.45533">
        <ele>115.367779</ele>
        <time>2022-12-09T16:47:35.545Z</time>
      </trkpt>
      <trkpt lat="48.39856" lon="-4.45515">
        <ele>114.8648</ele>
        <time>2022-12-09T16:47:38.542Z</time>
      </trkpt>
      <trkpt lat="48.39855" lon="-4.45498">
        <ele>114.389012</ele>
        <time>2022-12-09T16:47:41.545Z</time>
      </trkpt>
      <trkpt lat="48.39855" lon="-4.45482">
        <ele>113.952706</ele>
        <time>2022-12-09T16:47:44.528Z</time>
      </trkpt>
      <trkpt lat="48.39853" lon="-4.45467">
        <ele>113.864618</ele>
        <time>2022-12-09T16:47:47.536Z</time>
      </trkpt>
      <trkpt lat="48.39852" lon="-4.45451">
        <ele>113.797248</ele>
        <time>2022-12-09T16:47:50.535Z</time>
      </trkpt>
      <trkpt lat="48.3985" lon="-4.45435">
        <ele>113.728868</ele>
        <time>2022-12-09T16:47:53.545Z</time>
      </trkpt>
      <trkpt lat="48.39849" lon="-4.4542">
        <ele>113.663461</ele>
        <time>2022-12-09T16:47:56.536Z</time>
      </trkpt>
      <trkpt lat="48.39848" lon="-4.45405">
        <ele>113.600608</ele>
        <time>2022-12-09T16:47:59.551Z</time>
      </trkpt>
      <trkpt lat="48.39848" lon="-4.45391">
        <ele>113.543069</ele>
        <time>2022-12-09T16:48:02.551Z</time>
      </trkpt>
      <trkpt lat="48.39847" lon="-4.45373">
        <ele>113.469303</ele>
        <time>2022-12-09T16:48:06.545Z</time>
      </trkpt>
      <trkpt lat="48.39846" lon="-4.45359">
        <ele>113.409148</ele>
        <time>2022-12-09T16:48:09.544Z</time>
      </trkpt>
      <trkpt lat="48.39847" lon="-4.45345">
        <ele>113.352099</ele>
        <time>2022-12-09T16:48:12.527Z</time>
      </trkpt>
      <trkpt lat="48.39849" lon="-4.45332">
        <ele>113.294155</ele>
        <time>2022-12-09T16:48:15.528Z</time>
      </trkpt>
      <trkpt lat="48.39851" lon="-4.45317">
        <ele>113.231944</ele>
        <time>2022-12-09T16:48:18.543Z</time>
      </trkpt>
      <trkpt lat="48.39852" lon="-4.45303">
        <ele>113.173419</ele>
        <time>2022-12-09T16:48:21.549Z</time>
      </trkpt>
      <trkpt lat="48.39855" lon="-4.45286">
        <ele>113.099989</ele>
        <time>2022-12-09T16:48:25.545Z</time>
      </trkpt>
      <trkpt lat="48.39858" lon="-4.45272">
        <ele>113.038654</ele>
        <time>2022-12-09T16:48:28.546Z</time>
      </trkpt>
      <trkpt lat="48.39861" lon="-4.45258">
        <ele>112.975936</ele>
        <time>2022-12-09T16:48:31.540Z</time>
      </trkpt>
      <trkpt lat="48.39863" lon="-4.45243">
        <ele>112.912149</ele>
        <time>2022-12-09T16:48:34.547Z</time>
      </trkpt>
      <trkpt lat="48.39866" lon="-4.45227">
        <ele>112.84349</ele>
        <time>2022-12-09T16:48:37.545Z</time>
      </trkpt>
      <trkpt lat="48.39869" lon="-4.45212">
        <ele>112.822149</ele>
        <time>2022-12-09T16:48:40.546Z</time>
      </trkpt>
      <trkpt lat="48.39871" lon="-4.45198">
        <ele>112.947584</ele>
        <time>2022-12-09T16:48:43.530Z</time>
      </trkpt>
      <trkpt lat="48.39873" lon="-4.45184">
        <ele>113.070726</ele>
        <time>2022-12-09T16:48:46.543Z</time>
      </trkpt>
      <trkpt lat="48.39876" lon="-4.4517">
        <ele>113.202965</ele>
        <time>2022-12-09T16:48:49.553Z</time>
      </trkpt>
      <trkpt lat="48.39879" lon="-4.45156">
        <ele>113.327583</ele>
        <time>2022-12-09T16:48:52.546Z</time>
      </trkpt>
      <trkpt lat="48.39884" lon="-4.45139">
        <ele>113.484684</ele>
        <time>2022-12-09T16:48:56.544Z</time>
      </trkpt>
      <trkpt lat="48.39887" lon="-4.45126">
        <ele>113.607929</ele>
        <time>2022-12-09T16:48:59.546Z</time>
      </trkpt>
      <trkpt lat="48.3989" lon="-4.45113">
        <ele>113.731872</ele>
        <time>2022-12-09T16:49:02.542Z</time>
      </trkpt>
      <trkpt lat="48.39894" lon="-4.451">
        <ele>113.85359</ele>
        <time>2022-12-09T16:49:05.542Z</time>
      </trkpt>
      <trkpt lat="48.39896" lon="-4.45086">
        <ele>113.974361</ele>
        <time>2022-12-09T16:49:08.539Z</time>
      </trkpt>
      <trkpt lat="48.39898" lon="-4.4507">
        <ele>114.113683</ele>
        <time>2022-12-09T16:49:12.547Z</time>
      </trkpt>
      <trkpt lat="48.39898" lon="-4.45053">
        <ele>114.266415</ele>
        <time>2022-12-09T16:49:16.531Z</time>
      </trkpt>
      <trkpt lat="48.39898" lon="-4.45039">
        <ele>114.389631</ele>
        <time>2022-12-09T16:49:19.536Z</time>
      </trkpt>
      <trkpt lat="48.39897" lon="-4.45025">
        <ele>114.511553</ele>
        <time>2022-12-09T16:49:22.542Z</time>
      </trkpt>
      <trkpt lat="48.39897" lon="-4.4501">
        <ele>114.640294</ele>
        <time>2022-12-09T16:49:25.538Z</time>
      </trkpt>
      <trkpt lat="48.39896" lon="-4.44994">
        <ele>114.775808</ele>
        <time>2022-12-09T16:49:28.546Z</time>
      </trkpt>
      <trkpt lat="48.39896" lon="-4.44981">
        <ele>114.893205</ele>
        <time>2022-12-09T16:49:31.546Z</time>
      </trkpt>
      <trkpt lat="48.39894" lon="-4.44965">
        <ele>115.028766</ele>
        <time>2022-12-09T16:49:35.544Z</time>
      </trkpt>
      <trkpt lat="48.39891" lon="-4.44952">
        <ele>115.141525</ele>
        <time>2022-12-09T16:49:38.531Z</time>
      </trkpt>
      <trkpt lat="48.39889" lon="-4.44938">
        <ele>115.084229</ele>
        <time>2022-12-09T16:49:41.548Z</time>
      </trkpt>
      <trkpt lat="48.39885" lon="-4.44924">
        <ele>115.026905</ele>
        <time>2022-12-09T16:49:44.526Z</time>
      </trkpt>
      <trkpt lat="48.39882" lon="-4.44911">
        <ele>114.972248</ele>
        <time>2022-12-09T16:49:47.548Z</time>
      </trkpt>
      <trkpt lat="48.39878" lon="-4.44898">
        <ele>114.914982</ele>
        <time>2022-12-09T16:49:50.545Z</time>
      </trkpt>
      <trkpt lat="48.39875" lon="-4.44883">
        <ele>114.852318</ele>
        <time>2022-12-09T16:49:53.526Z</time>
      </trkpt>
      <trkpt lat="48.39872" lon="-4.44868">
        <ele>114.789996</ele>
        <time>2022-12-09T16:49:56.545Z</time>
      </trkpt>
      <trkpt lat="48.39868" lon="-4.44853">
        <ele>114.727266</ele>
        <time>2022-12-09T16:49:59.546Z</time>
      </trkpt>
      <trkpt lat="48.39865" lon="-4.44838">
        <ele>114.665717</ele>
        <time>2022-12-09T16:50:02.533Z</time>
      </trkpt>
      <trkpt lat="48.39861" lon="-4.44822">
        <ele>114.601561</ele>
        <time>2022-12-09T16:50:05.549Z</time>
      </trkpt>
      <trkpt lat="48.39858" lon="-4.44807">
        <ele>114.539075</ele>
        <time>2022-12-09T16:50:08.547Z</time>
      </trkpt>
      <trkpt lat="48.39853" lon="-4.44793">
        <ele>114.474078</ele>
        <time>2022-12-09T16:50:11.534Z</time>
      </trkpt>
      <trkpt lat="48.39847" lon="-4.44778">
        <ele>114.405812</ele>
        <time>2022-12-09T16:50:14.525Z</time>
      </trkpt>
      <trkpt lat="48.39842" lon="-4.44762">
        <ele>114.336059</ele>
        <time>2022-12-09T16:50:17.546Z</time>
      </trkpt>
      <trkpt lat="48.39837" lon="-4.44746">
        <ele>114.266568</ele>
        <time>2022-12-09T16:50:20.546Z</time>
      </trkpt>
      <trkpt lat="48.39832" lon="-4.44731">
        <ele>114.199016</ele>
        <time>2022-12-09T16:50:23.543Z</time>
      </trkpt>
      <trkpt lat="48.39826" lon="-4.44715">
        <ele>114.128061</ele>
        <time>2022-12-09T16:50:26.544Z</time>
      </trkpt>
      <trkpt lat="48.39819" lon="-4.44699">
        <ele>113.84803</ele>
        <time>2022-12-09T16:50:29.536Z</time>
      </trkpt>
      <trkpt lat="48.39814" lon="-4.44683">
        <ele>113.23894</ele>
        <time>2022-12-09T16:50:32.544Z</time>
      </trkpt>
      <trkpt lat="48.39809" lon="-4.44668">
        <ele>112.64263</ele>
        <time>2022-12-09T16:50:35.544Z</time>
      </trkpt>
      <trkpt lat="48.39804" lon="-4.44654">
        <ele>112.067837</ele>
        <time>2022-12-09T16:50:38.553Z</time>
      </trkpt>
      <trkpt lat="48.39799" lon="-4.44637">
        <ele>111.43616</ele>
        <time>2022-12-09T16:50:41.548Z</time>
      </trkpt>
      <trkpt lat="48.39793" lon="-4.44621">
        <ele>110.775384</ele>
        <time>2022-12-09T16:50:44.546Z</time>
      </trkpt>
      <trkpt lat="48.39787" lon="-4.44605">
        <ele>110.101809</ele>
        <time>2022-12-09T16:50:47.536Z</time>
      </trkpt>
      <trkpt lat="48.39781" lon="-4.44589">
        <ele>109.450356</ele>
        <time>2022-12-09T16:50:50.549Z</time>
      </trkpt>
      <trkpt lat="48.39775" lon="-4.44573">
        <ele>108.813349</ele>
        <time>2022-12-09T16:50:53.546Z</time>
      </trkpt>
      <trkpt lat="48.39769" lon="-4.44557">
        <ele>108.173777</ele>
        <time>2022-12-09T16:50:56.548Z</time>
      </trkpt>
      <trkpt lat="48.39764" lon="-4.44541">
        <ele>107.54412</ele>
        <time>2022-12-09T16:50:59.547Z</time>
      </trkpt>
      <trkpt lat="48.39761" lon="-4.44524">
        <ele>106.90699</ele>
        <time>2022-12-09T16:51:02.533Z</time>
      </trkpt>
      <trkpt lat="48.39758" lon="-4.44506">
        <ele>106.256418</ele>
        <time>2022-12-09T16:51:05.548Z</time>
      </trkpt>
      <trkpt lat="48.39755" lon="-4.44489">
        <ele>105.622169</ele>
        <time>2022-12-09T16:51:08.542Z</time>
      </trkpt>
      <trkpt lat="48.39753" lon="-4.44472">
        <ele>105.027246</ele>
        <time>2022-12-09T16:51:11.549Z</time>
      </trkpt>
      <trkpt lat="48.3975" lon="-4.44457">
        <ele>104.43948</ele>
        <time>2022-12-09T16:51:14.551Z</time>
      </trkpt>
      <trkpt lat="48.39746" lon="-4.44441">
        <ele>103.685851</ele>
        <time>2022-12-09T16:51:17.551Z</time>
      </trkpt>
      <trkpt lat="48.39743" lon="-4.44426">
        <ele>102.938915</ele>
        <time>2022-12-09T16:51:20.546Z</time>
      </trkpt>
      <trkpt lat="48.39739" lon="-4.44409">
        <ele>102.100549</ele>
        <time>2022-12-09T16:51:23.547Z</time>
      </trkpt>
      <trkpt lat="48.39736" lon="-4.44392">
        <ele>101.259322</ele>
        <time>2022-12-09T16:51:26.550Z</time>
      </trkpt>
      <trkpt lat="48.39732" lon="-4.44374">
        <ele>100.373966</ele>
        <time>2022-12-09T16:51:29.552Z</time>
      </trkpt>
      <trkpt lat="48.39729" lon="-4.44361">
        <ele>99.724982</ele>
        <time>2022-12-09T16:51:31.548Z</time>
      </trkpt>
      <trkpt lat="48.39725" lon="-4.44342">
        <ele>98.797225</ele>
        <time>2022-12-09T16:51:34.545Z</time>
      </trkpt>
      <trkpt lat="48.39721" lon="-4.44325">
        <ele>97.947394</ele>
        <time>2022-12-09T16:51:37.544Z</time>
      </trkpt>
      <trkpt lat="48.39717" lon="-4.44309">
        <ele>97.135677</ele>
        <time>2022-12-09T16:51:40.532Z</time>
      </trkpt>
      <trkpt lat="48.39714" lon="-4.44294">
        <ele>96.406495</ele>
        <time>2022-12-09T16:51:43.527Z</time>
      </trkpt>
      <trkpt lat="48.3971" lon="-4.44279">
        <ele>95.657068</ele>
        <time>2022-12-09T16:51:46.529Z</time>
      </trkpt>
      <trkpt lat="48.39706" lon="-4.44262">
        <ele>94.771486</ele>
        <time>2022-12-09T16:51:49.544Z</time>
      </trkpt>
      <trkpt lat="48.39702" lon="-4.44243">
        <ele>93.863804</ele>
        <time>2022-12-09T16:51:52.533Z</time>
      </trkpt>
      <trkpt lat="48.39697" lon="-4.44225">
        <ele>92.941019</ele>
        <time>2022-12-09T16:51:55.546Z</time>
      </trkpt>
      <trkpt lat="48.39692" lon="-4.44207">
        <ele>92.007755</ele>
        <time>2022-12-09T16:51:58.544Z</time>
      </trkpt>
      <trkpt lat="48.39688" lon="-4.44189">
        <ele>91.050572</ele>
        <time>2022-12-09T16:52:01.545Z</time>
      </trkpt>
      <trkpt lat="48.39683" lon="-4.44172">
        <ele>90.134741</ele>
        <time>2022-12-09T16:52:04.533Z</time>
      </trkpt>
      <trkpt lat="48.39678" lon="-4.44156">
        <ele>89.222524</ele>
        <time>2022-12-09T16:52:07.547Z</time>
      </trkpt>
      <trkpt lat="48.39674" lon="-4.44139">
        <ele>88.254088</ele>
        <time>2022-12-09T16:52:10.548Z</time>
      </trkpt>
      <trkpt lat="48.39669" lon="-4.4412">
        <ele>87.261405</ele>
        <time>2022-12-09T16:52:13.545Z</time>
      </trkpt>
      <trkpt lat="48.39665" lon="-4.44104">
        <ele>86.343552</ele>
        <time>2022-12-09T16:52:16.534Z</time>
      </trkpt>
      <trkpt lat="48.39661" lon="-4.44087">
        <ele>85.455627</ele>
        <time>2022-12-09T16:52:19.553Z</time>
      </trkpt>
      <trkpt lat="48.39658" lon="-4.44071">
        <ele>84.540888</ele>
        <time>2022-12-09T16:52:22.542Z</time>
      </trkpt>
      <trkpt lat="48.39652" lon="-4.44053">
        <ele>83.564835</ele>
        <time>2022-12-09T16:52:25.524Z</time>
      </trkpt>
      <trkpt lat="48.39648" lon="-4.44037">
        <ele>82.659243</ele>
        <time>2022-12-09T16:52:28.547Z</time>
      </trkpt>
      <trkpt lat="48.39643" lon="-4.44022">
        <ele>81.819335</ele>
        <time>2022-12-09T16:52:31.548Z</time>
      </trkpt>
      <trkpt lat="48.39638" lon="-4.44008">
        <ele>80.980494</ele>
        <time>2022-12-09T16:52:34.545Z</time>
      </trkpt>
      <trkpt lat="48.39632" lon="-4.43994">
        <ele>80.10256</ele>
        <time>2022-12-09T16:52:37.547Z</time>
      </trkpt>
      <trkpt lat="48.39627" lon="-4.43978">
        <ele>79.191573</ele>
        <time>2022-12-09T16:52:40.540Z</time>
      </trkpt>
      <trkpt lat="48.39621" lon="-4.43961">
        <ele>78.226454</ele>
        <time>2022-12-09T16:52:43.549Z</time>
      </trkpt>
      <trkpt lat="48.39616" lon="-4.43944">
        <ele>77.304892</ele>
        <time>2022-12-09T16:52:46.548Z</time>
      </trkpt>
      <trkpt lat="48.39611" lon="-4.43926">
        <ele>76.390841</ele>
        <time>2022-12-09T16:52:49.543Z</time>
      </trkpt>
      <trkpt lat="48.39606" lon="-4.43908">
        <ele>75.475679</ele>
        <time>2022-12-09T16:52:52.548Z</time>
      </trkpt>
      <trkpt lat="48.39602" lon="-4.43891">
        <ele>74.622302</ele>
        <time>2022-12-09T16:52:55.545Z</time>
      </trkpt>
      <trkpt lat="48.39599" lon="-4.43874">
        <ele>73.780274</ele>
        <time>2022-12-09T16:52:58.528Z</time>
      </trkpt>
      <trkpt lat="48.39597" lon="-4.43857">
        <ele>72.938455</ele>
        <time>2022-12-09T16:53:01.537Z</time>
      </trkpt>
      <trkpt lat="48.39596" lon="-4.43839">
        <ele>72.109751</ele>
        <time>2022-12-09T16:53:04.545Z</time>
      </trkpt>
      <trkpt lat="48.39595" lon="-4.43822">
        <ele>71.296827</ele>
        <time>2022-12-09T16:53:07.545Z</time>
      </trkpt>
      <trkpt lat="48.39596" lon="-4.43805">
        <ele>70.499551</ele>
        <time>2022-12-09T16:53:10.539Z</time>
      </trkpt>
      <trkpt lat="48.39596" lon="-4.43788">
        <ele>69.682297</ele>
        <time>2022-12-09T16:53:13.543Z</time>
      </trkpt>
      <trkpt lat="48.39598" lon="-4.43769">
        <ele>68.782017</ele>
        <time>2022-12-09T16:53:16.547Z</time>
      </trkpt>
      <trkpt lat="48.396" lon="-4.4375">
        <ele>67.86562</ele>
        <time>2022-12-09T16:53:19.541Z</time>
      </trkpt>
      <trkpt lat="48.39604" lon="-4.43732">
        <ele>66.962472</ele>
        <time>2022-12-09T16:53:22.546Z</time>
      </trkpt>
      <trkpt lat="48.39608" lon="-4.43715">
        <ele>66.093255</ele>
        <time>2022-12-09T16:53:25.548Z</time>
      </trkpt>
      <trkpt lat="48.39613" lon="-4.43698">
        <ele>65.186203</ele>
        <time>2022-12-09T16:53:28.541Z</time>
      </trkpt>
      <trkpt lat="48.39619" lon="-4.43681">
        <ele>64.618916</ele>
        <time>2022-12-09T16:53:31.520Z</time>
      </trkpt>
      <trkpt lat="48.39627" lon="-4.43666">
        <ele>64.146036</ele>
        <time>2022-12-09T16:53:34.543Z</time>
      </trkpt>
      <trkpt lat="48.39634" lon="-4.4365">
        <ele>63.671135</ele>
        <time>2022-12-09T16:53:37.543Z</time>
      </trkpt>
      <trkpt lat="48.39641" lon="-4.43636">
        <ele>63.210288</ele>
        <time>2022-12-09T16:53:40.549Z</time>
      </trkpt>
      <trkpt lat="48.39649" lon="-4.4362">
        <ele>62.72412</ele>
        <time>2022-12-09T16:53:43.549Z</time>
      </trkpt>
      <trkpt lat="48.39657" lon="-4.43606">
        <ele>62.272358</ele>
        <time>2022-12-09T16:53:46.539Z</time>
      </trkpt>
      <trkpt lat="48.39665" lon="-4.43594">
        <ele>61.840432</ele>
        <time>2022-12-09T16:53:49.551Z</time>
      </trkpt>
      <trkpt lat="48.39674" lon="-4.43584">
        <ele>61.39861</ele>
        <time>2022-12-09T16:53:52.530Z</time>
      </trkpt>
      <trkpt lat="48.39683" lon="-4.43573">
        <ele>60.975706</ele>
        <time>2022-12-09T16:53:55.544Z</time>
      </trkpt>
      <trkpt lat="48.39685" lon="-4.43556">
        <ele>60.544738</ele>
        <time>2022-12-09T16:53:59.539Z</time>
      </trkpt>
      <trkpt lat="48.39686" lon="-4.43542">
        <ele>60.190074</ele>
        <time>2022-12-09T16:54:03.542Z</time>
      </trkpt>
      <trkpt lat="48.3969" lon="-4.43528">
        <ele>59.820765</ele>
        <time>2022-12-09T16:54:07.528Z</time>
      </trkpt>
      <trkpt lat="48.39693" lon="-4.43515">
        <ele>59.48159</ele>
        <time>2022-12-09T16:54:11.534Z</time>
      </trkpt>
      <trkpt lat="48.39693" lon="-4.43501">
        <ele>59.129028</ele>
        <time>2022-12-09T16:54:15.542Z</time>
      </trkpt>
      <trkpt lat="48.39693" lon="-4.43484">
        <ele>58.704073</ele>
        <time>2022-12-09T16:54:19.544Z</time>
      </trkpt>
      <trkpt lat="48.39693" lon="-4.43468">
        <ele>58.299214</ele>
        <time>2022-12-09T16:54:22.534Z</time>
      </trkpt>
      <trkpt lat="48.39693" lon="-4.4345">
        <ele>58.122718</ele>
        <time>2022-12-09T16:54:25.543Z</time>
      </trkpt>
      <trkpt lat="48.39694" lon="-4.4343">
        <ele>58.002698</ele>
        <time>2022-12-09T16:54:28.536Z</time>
      </trkpt>
      <trkpt lat="48.39696" lon="-4.43413">
        <ele>57.898072</ele>
        <time>2022-12-09T16:54:31.540Z</time>
      </trkpt>
      <trkpt lat="48.39697" lon="-4.43395">
        <ele>57.786615</ele>
        <time>2022-12-09T16:54:34.547Z</time>
      </trkpt>
      <trkpt lat="48.39697" lon="-4.43379">
        <ele>57.687726</ele>
        <time>2022-12-09T16:54:37.534Z</time>
      </trkpt>
      <trkpt lat="48.39696" lon="-4.43363">
        <ele>57.594275</ele>
        <time>2022-12-09T16:54:41.523Z</time>
      </trkpt>
      <trkpt lat="48.39697" lon="-4.43347">
        <ele>57.49584</ele>
        <time>2022-12-09T16:54:45.543Z</time>
      </trkpt>
      <trkpt lat="48.39703" lon="-4.43332">
        <ele>57.386768</ele>
        <time>2022-12-09T16:54:49.540Z</time>
      </trkpt>
      <trkpt lat="48.39708" lon="-4.43315">
        <ele>57.275416</ele>
        <time>2022-12-09T16:54:53.541Z</time>
      </trkpt>
      <trkpt lat="48.39711" lon="-4.43301">
        <ele>57.185243</ele>
        <time>2022-12-09T16:54:56.548Z</time>
      </trkpt>
      <trkpt lat="48.39714" lon="-4.43287">
        <ele>57.097723</ele>
        <time>2022-12-09T16:54:59.530Z</time>
      </trkpt>
      <trkpt lat="48.39718" lon="-4.43275">
        <ele>57.014496</ele>
        <time>2022-12-09T16:55:02.542Z</time>
      </trkpt>
      <trkpt lat="48.39722" lon="-4.43262">
        <ele>56.930641</ele>
        <time>2022-12-09T16:55:05.544Z</time>
      </trkpt>
      <trkpt lat="48.39726" lon="-4.43249">
        <ele>56.846866</ele>
        <time>2022-12-09T16:55:08.544Z</time>
      </trkpt>
      <trkpt lat="48.3973" lon="-4.43236">
        <ele>56.758302</ele>
        <time>2022-12-09T16:55:11.532Z</time>
      </trkpt>
      <trkpt lat="48.39733" lon="-4.43223">
        <ele>56.672525</ele>
        <time>2022-12-09T16:55:14.540Z</time>
      </trkpt>
      <trkpt lat="48.39735" lon="-4.43208">
        <ele>56.582829</ele>
        <time>2022-12-09T16:55:17.529Z</time>
      </trkpt>
      <trkpt lat="48.39738" lon="-4.43194">
        <ele>56.728808</ele>
        <time>2022-12-09T16:55:20.545Z</time>
      </trkpt>
      <trkpt lat="48.39741" lon="-4.43181">
        <ele>56.927113</ele>
        <time>2022-12-09T16:55:23.547Z</time>
      </trkpt>
      <trkpt lat="48.39745" lon="-4.43167">
        <ele>57.125724</ele>
        <time>2022-12-09T16:55:26.546Z</time>
      </trkpt>
      <trkpt lat="48.39747" lon="-4.43153">
        <ele>57.32312</ele>
        <time>2022-12-09T16:55:29.528Z</time>
      </trkpt>
      <trkpt lat="48.39749" lon="-4.43139">
        <ele>57.517874</ele>
        <time>2022-12-09T16:55:32.548Z</time>
      </trkpt>
      <trkpt lat="48.39752" lon="-4.43126">
        <ele>57.710355</ele>
        <time>2022-12-09T16:55:35.553Z</time>
      </trkpt>
      <trkpt lat="48.39755" lon="-4.43112">
        <ele>57.901692</ele>
        <time>2022-12-09T16:55:38.546Z</time>
      </trkpt>
      <trkpt lat="48.39758" lon="-4.43095">
        <ele>58.150278</ele>
        <time>2022-12-09T16:55:42.542Z</time>
      </trkpt>
      <trkpt lat="48.39761" lon="-4.43082">
        <ele>58.337503</ele>
        <time>2022-12-09T16:55:45.544Z</time>
      </trkpt>
      <trkpt lat="48.39764" lon="-4.43064">
        <ele>58.582925</ele>
        <time>2022-12-09T16:55:49.529Z</time>
      </trkpt>
      <trkpt lat="48.39767" lon="-4.43048">
        <ele>58.816285</ele>
        <time>2022-12-09T16:55:53.537Z</time>
      </trkpt>
      <trkpt lat="48.39769" lon="-4.43031">
        <ele>59.054892</ele>
        <time>2022-12-09T16:55:57.543Z</time>
      </trkpt>
      <trkpt lat="48.39771" lon="-4.43013">
        <ele>59.29428</ele>
        <time>2022-12-09T16:56:01.545Z</time>
      </trkpt>
      <trkpt lat="48.39772" lon="-4.43">
        <ele>59.481319</ele>
        <time>2022-12-09T16:56:04.549Z</time>
      </trkpt>
      <trkpt lat="48.39774" lon="-4.42982">
        <ele>59.722054</ele>
        <time>2022-12-09T16:56:08.544Z</time>
      </trkpt>
      <trkpt lat="48.39775" lon="-4.42969">
        <ele>59.909093</ele>
        <time>2022-12-09T16:56:11.524Z</time>
      </trkpt>
      <trkpt lat="48.39777" lon="-4.42955">
        <ele>60.095629</ele>
        <time>2022-12-09T16:56:14.544Z</time>
      </trkpt>
      <trkpt lat="48.39778" lon="-4.42942">
        <ele>60.253572</ele>
        <time>2022-12-09T16:56:17.530Z</time>
      </trkpt>
      <trkpt lat="48.39779" lon="-4.42928">
        <ele>60.126278</ele>
        <time>2022-12-09T16:56:20.540Z</time>
      </trkpt>
      <trkpt lat="48.39779" lon="-4.42913">
        <ele>59.992224</ele>
        <time>2022-12-09T16:56:23.532Z</time>
      </trkpt>
      <trkpt lat="48.39779" lon="-4.42897">
        <ele>59.842897</ele>
        <time>2022-12-09T16:56:26.543Z</time>
      </trkpt>
      <trkpt lat="48.39779" lon="-4.4288">
        <ele>59.690757</ele>
        <time>2022-12-09T16:56:29.549Z</time>
      </trkpt>
      <trkpt lat="48.39781" lon="-4.42864">
        <ele>59.54518</ele>
        <time>2022-12-09T16:56:32.547Z</time>
      </trkpt>
      <trkpt lat="48.39782" lon="-4.42848">
        <ele>59.403204</ele>
        <time>2022-12-09T16:56:35.548Z</time>
      </trkpt>
      <trkpt lat="48.39782" lon="-4.42833">
        <ele>59.268109</ele>
        <time>2022-12-09T16:56:38.548Z</time>
      </trkpt>
      <trkpt lat="48.39783" lon="-4.42819">
        <ele>59.135724</ele>
        <time>2022-12-09T16:56:41.547Z</time>
      </trkpt>
      <trkpt lat="48.39784" lon="-4.42802">
        <ele>58.988706</ele>
        <time>2022-12-09T16:56:44.547Z</time>
      </trkpt>
      <trkpt lat="48.39785" lon="-4.42785">
        <ele>58.833316</ele>
        <time>2022-12-09T16:56:47.545Z</time>
      </trkpt>
      <trkpt lat="48.39787" lon="-4.42767">
        <ele>58.667339</ele>
        <time>2022-12-09T16:56:50.549Z</time>
      </trkpt>
      <trkpt lat="48.39788" lon="-4.4275">
        <ele>58.506175</ele>
        <time>2022-12-09T16:56:53.547Z</time>
      </trkpt>
      <trkpt lat="48.39789" lon="-4.42732">
        <ele>58.344875</ele>
        <time>2022-12-09T16:56:56.540Z</time>
      </trkpt>
      <trkpt lat="48.39789" lon="-4.42715">
        <ele>58.189902</ele>
        <time>2022-12-09T16:56:59.547Z</time>
      </trkpt>
      <trkpt lat="48.3979" lon="-4.42698">
        <ele>58.040973</ele>
        <time>2022-12-09T16:57:02.547Z</time>
      </trkpt>
      <trkpt lat="48.3979" lon="-4.42682">
        <ele>57.893456</ele>
        <time>2022-12-09T16:57:05.547Z</time>
      </trkpt>
      <trkpt lat="48.39791" lon="-4.42666">
        <ele>57.650971</ele>
        <time>2022-12-09T16:57:08.546Z</time>
      </trkpt>
      <trkpt lat="48.39791" lon="-4.4265">
        <ele>57.300207</ele>
        <time>2022-12-09T16:57:11.535Z</time>
      </trkpt>
      <trkpt lat="48.39791" lon="-4.42633">
        <ele>56.906936</ele>
        <time>2022-12-09T16:57:14.550Z</time>
      </trkpt>
      <trkpt lat="48.3979" lon="-4.42613">
        <ele>56.470637</ele>
        <time>2022-12-09T16:57:17.553Z</time>
      </trkpt>
      <trkpt lat="48.3979" lon="-4.42593">
        <ele>56.032417</ele>
        <time>2022-12-09T16:57:20.545Z</time>
      </trkpt>
      <trkpt lat="48.39788" lon="-4.42574">
        <ele>55.59606</ele>
        <time>2022-12-09T16:57:23.549Z</time>
      </trkpt>
      <trkpt lat="48.39787" lon="-4.42555">
        <ele>55.166255</ele>
        <time>2022-12-09T16:57:26.548Z</time>
      </trkpt>
      <trkpt lat="48.39786" lon="-4.42537">
        <ele>54.764926</ele>
        <time>2022-12-09T16:57:29.548Z</time>
      </trkpt>
      <trkpt lat="48.39785" lon="-4.42522">
        <ele>54.433142</ele>
        <time>2022-12-09T16:57:32.547Z</time>
      </trkpt>
      <trkpt lat="48.39783" lon="-4.42506">
        <ele>54.061064</ele>
        <time>2022-12-09T16:57:35.543Z</time>
      </trkpt>
      <trkpt lat="48.3978" lon="-4.4249">
        <ele>53.678313</ele>
        <time>2022-12-09T16:57:38.534Z</time>
      </trkpt>
      <trkpt lat="48.39776" lon="-4.42473">
        <ele>53.276322</ele>
        <time>2022-12-09T16:57:41.547Z</time>
      </trkpt>
      <trkpt lat="48.39771" lon="-4.42456">
        <ele>52.877345</ele>
        <time>2022-12-09T16:57:44.550Z</time>
      </trkpt>
      <trkpt lat="48.39767" lon="-4.42439">
        <ele>52.482544</ele>
        <time>2022-12-09T16:57:47.545Z</time>
      </trkpt>
      <trkpt lat="48.39763" lon="-4.42424">
        <ele>52.104997</ele>
        <time>2022-12-09T16:57:50.548Z</time>
      </trkpt>
      <trkpt lat="48.3976" lon="-4.42408">
        <ele>51.751809</ele>
        <time>2022-12-09T16:57:53.551Z</time>
      </trkpt>
      <trkpt lat="48.39756" lon="-4.42394">
        <ele>51.534503</ele>
        <time>2022-12-09T16:57:56.549Z</time>
      </trkpt>
      <trkpt lat="48.39752" lon="-4.42377">
        <ele>51.283572</ele>
        <time>2022-12-09T16:57:59.545Z</time>
      </trkpt>
      <trkpt lat="48.39747" lon="-4.42359">
        <ele>51.014811</ele>
        <time>2022-12-09T16:58:02.554Z</time>
      </trkpt>
      <trkpt lat="48.39743" lon="-4.42343">
        <ele>50.766068</ele>
        <time>2022-12-09T16:58:05.548Z</time>
      </trkpt>
      <trkpt lat="48.39739" lon="-4.42327">
        <ele>50.52821</ele>
        <time>2022-12-09T16:58:08.549Z</time>
      </trkpt>
      <trkpt lat="48.39736" lon="-4.42311">
        <ele>50.295203</ele>
        <time>2022-12-09T16:58:11.530Z</time>
      </trkpt>
      <trkpt lat="48.39732" lon="-4.42294">
        <ele>50.053393</ele>
        <time>2022-12-09T16:58:14.543Z</time>
      </trkpt>
      <trkpt lat="48.39728" lon="-4.42278">
        <ele>49.810628</ele>
        <time>2022-12-09T16:58:17.546Z</time>
      </trkpt>
      <trkpt lat="48.39724" lon="-4.42261">
        <ele>49.554077</ele>
        <time>2022-12-09T16:58:20.544Z</time>
      </trkpt>
      <trkpt lat="48.39719" lon="-4.42244">
        <ele>49.299356</ele>
        <time>2022-12-09T16:58:23.539Z</time>
      </trkpt>
      <trkpt lat="48.39714" lon="-4.42228">
        <ele>49.045219</ele>
        <time>2022-12-09T16:58:26.553Z</time>
      </trkpt>
      <trkpt lat="48.39709" lon="-4.42211">
        <ele>48.79441</ele>
        <time>2022-12-09T16:58:29.557Z</time>
      </trkpt>
      <trkpt lat="48.39704" lon="-4.42196">
        <ele>48.552989</ele>
        <time>2022-12-09T16:58:32.546Z</time>
      </trkpt>
      <trkpt lat="48.39699" lon="-4.42181">
        <ele>48.321635</ele>
        <time>2022-12-09T16:58:35.546Z</time>
      </trkpt>
      <trkpt lat="48.39695" lon="-4.42167">
        <ele>48.101215</ele>
        <time>2022-12-09T16:58:38.548Z</time>
      </trkpt>
      <trkpt lat="48.3969" lon="-4.42154">
        <ele>48.006451</ele>
        <time>2022-12-09T16:58:41.545Z</time>
      </trkpt>
      <trkpt lat="48.39686" lon="-4.4214">
        <ele>48.114132</ele>
        <time>2022-12-09T16:58:44.548Z</time>
      </trkpt>
      <trkpt lat="48.39682" lon="-4.42125">
        <ele>48.224756</ele>
        <time>2022-12-09T16:58:47.530Z</time>
      </trkpt>
      <trkpt lat="48.39678" lon="-4.4211">
        <ele>48.336582</ele>
        <time>2022-12-09T16:58:50.545Z</time>
      </trkpt>
      <trkpt lat="48.39673" lon="-4.42096">
        <ele>48.445061</ele>
        <time>2022-12-09T16:58:53.551Z</time>
      </trkpt>
      <trkpt lat="48.3967" lon="-4.42081">
        <ele>48.551469</ele>
        <time>2022-12-09T16:58:56.544Z</time>
      </trkpt>
      <trkpt lat="48.39666" lon="-4.42068">
        <ele>48.653223</ele>
        <time>2022-12-09T16:58:59.551Z</time>
      </trkpt>
      <trkpt lat="48.39661" lon="-4.42055">
        <ele>48.751498</ele>
        <time>2022-12-09T16:59:02.538Z</time>
      </trkpt>
      <trkpt lat="48.39656" lon="-4.4204">
        <ele>48.871981</ele>
        <time>2022-12-09T16:59:06.529Z</time>
      </trkpt>
      <trkpt lat="48.39651" lon="-4.42025">
        <ele>48.986514</ele>
        <time>2022-12-09T16:59:10.548Z</time>
      </trkpt>
      <trkpt lat="48.39643" lon="-4.42012">
        <ele>49.105289</ele>
        <time>2022-12-09T16:59:14.530Z</time>
      </trkpt>
      <trkpt lat="48.39639" lon="-4.41996">
        <ele>49.223074</ele>
        <time>2022-12-09T16:59:18.536Z</time>
      </trkpt>
      <trkpt lat="48.39636" lon="-4.4198">
        <ele>49.338704</ele>
        <time>2022-12-09T16:59:22.546Z</time>
      </trkpt>
      <trkpt lat="48.39629" lon="-4.41966">
        <ele>49.453977</ele>
        <time>2022-12-09T16:59:26.534Z</time>
      </trkpt>
      <trkpt lat="48.39623" lon="-4.41953">
        <ele>49.566376</ele>
        <time>2022-12-09T16:59:30.547Z</time>
      </trkpt>
      <trkpt lat="48.39618" lon="-4.41939">
        <ele>49.67492</ele>
        <time>2022-12-09T16:59:34.540Z</time>
      </trkpt>
      <trkpt lat="48.39611" lon="-4.41925">
        <ele>49.793761</ele>
        <time>2022-12-09T16:59:38.543Z</time>
      </trkpt>
      <trkpt lat="48.39606" lon="-4.41912">
        <ele>50.21897</ele>
        <time>2022-12-09T16:59:42.550Z</time>
      </trkpt>
      <trkpt lat="48.396" lon="-4.41898">
        <ele>50.837302</ele>
        <time>2022-12-09T16:59:46.549Z</time>
      </trkpt>
      <trkpt lat="48.39595" lon="-4.41887">
        <ele>51.38542</ele>
        <time>2022-12-09T16:59:50.551Z</time>
      </trkpt>
      <trkpt lat="48.39589" lon="-4.41875">
        <ele>51.957157</ele>
        <time>2022-12-09T16:59:55.537Z</time>
      </trkpt>
      <trkpt lat="48.39584" lon="-4.41864">
        <ele>52.505199</ele>
        <time>2022-12-09T16:59:59.537Z</time>
      </trkpt>
      <trkpt lat="48.39579" lon="-4.41849">
        <ele>53.153086</ele>
        <time>2022-12-09T17:00:04.545Z</time>
      </trkpt>
      <trkpt lat="48.39575" lon="-4.41836">
        <ele>53.75206</ele>
        <time>2022-12-09T17:00:09.537Z</time>
      </trkpt>
      <trkpt lat="48.39572" lon="-4.41822">
        <ele>54.306774</ele>
        <time>2022-12-09T17:00:14.546Z</time>
      </trkpt>
      <trkpt lat="48.39568" lon="-4.41809">
        <ele>54.894196</ele>
        <time>2022-12-09T17:00:19.546Z</time>
      </trkpt>
      <trkpt lat="48.39566" lon="-4.41795">
        <ele>55.440931</ele>
        <time>2022-12-09T17:00:24.549Z</time>
      </trkpt>
      <trkpt lat="48.39563" lon="-4.41782">
        <ele>55.991913</ele>
        <time>2022-12-09T17:00:29.550Z</time>
      </trkpt>
      <trkpt lat="48.3956" lon="-4.41767">
        <ele>56.597799</ele>
        <time>2022-12-09T17:00:35.531Z</time>
      </trkpt>
      <trkpt lat="48.39558" lon="-4.41751">
        <ele>57.241269</ele>
        <time>2022-12-09T17:00:41.534Z</time>
      </trkpt>
      <trkpt lat="48.39555" lon="-4.41736">
        <ele>57.874917</ele>
        <time>2022-12-09T17:00:47.542Z</time>
      </trkpt>
      <trkpt lat="48.39553" lon="-4.41721">
        <ele>58.509427</ele>
        <time>2022-12-09T17:00:53.537Z</time>
      </trkpt>
      <trkpt lat="48.39552" lon="-4.41705">
        <ele>59.131901</ele>
        <time>2022-12-09T17:00:59.528Z</time>
      </trkpt>
      <trkpt lat="48.39551" lon="-4.4169">
        <ele>59.739082</ele>
        <time>2022-12-09T17:01:05.533Z</time>
      </trkpt>
      <trkpt lat="48.39549" lon="-4.41674">
        <ele>60.362495</ele>
        <time>2022-12-09T17:01:11.534Z</time>
      </trkpt>
      <trkpt lat="48.39548" lon="-4.41659">
        <ele>61.028146</ele>
        <time>2022-12-09T17:01:17.530Z</time>
      </trkpt>
      <trkpt lat="48.39546" lon="-4.41644">
        <ele>61.684368</ele>
        <time>2022-12-09T17:01:23.529Z</time>
      </trkpt>
      <trkpt lat="48.39545" lon="-4.41629">
        <ele>62.326418</ele>
        <time>2022-12-09T17:01:29.534Z</time>
      </trkpt>
      <trkpt lat="48.39543" lon="-4.41615">
        <ele>62.967552</ele>
        <time>2022-12-09T17:01:35.532Z</time>
      </trkpt>
      <trkpt lat="48.39542" lon="-4.41601">
        <ele>63.59132</ele>
        <time>2022-12-09T17:01:41.538Z</time>
      </trkpt>
      <trkpt lat="48.3954" lon="-4.41585">
        <ele>64.275387</ele>
        <time>2022-12-09T17:01:47.531Z</time>
      </trkpt>
      <trkpt lat="48.39539" lon="-4.4157">
        <ele>64.952801</ele>
        <time>2022-12-09T17:01:53.536Z</time>
      </trkpt>
      <trkpt lat="48.39538" lon="-4.41555">
        <ele>65.621824</ele>
        <time>2022-12-09T17:01:59.536Z</time>
      </trkpt>
      <trkpt lat="48.39536" lon="-4.4154">
        <ele>66.293657</ele>
        <time>2022-12-09T17:02:05.526Z</time>
      </trkpt>
      <trkpt lat="48.39533" lon="-4.41526">
        <ele>66.945402</ele>
        <time>2022-12-09T17:02:11.532Z</time>
      </trkpt>
      <trkpt lat="48.39532" lon="-4.4151">
        <ele>67.640439</ele>
        <time>2022-12-09T17:02:17.531Z</time>
      </trkpt>
      <trkpt lat="48.3953" lon="-4.41494">
        <ele>68.33891</ele>
        <time>2022-12-09T17:02:23.532Z</time>
      </trkpt>
      <trkpt lat="48.39528" lon="-4.41479">
        <ele>69.009219</ele>
        <time>2022-12-09T17:02:29.537Z</time>
      </trkpt>
      <trkpt lat="48.39527" lon="-4.41464">
        <ele>69.692236</ele>
        <time>2022-12-09T17:02:35.535Z</time>
      </trkpt>
      <trkpt lat="48.39524" lon="-4.41448">
        <ele>70.379629</ele>
        <time>2022-12-09T17:02:41.537Z</time>
      </trkpt>
      <trkpt lat="48.39521" lon="-4.41433">
        <ele>71.076208</ele>
        <time>2022-12-09T17:02:47.534Z</time>
      </trkpt>
      <trkpt lat="48.3952" lon="-4.41418">
        <ele>71.74863</ele>
        <time>2022-12-09T17:02:52.530Z</time>
      </trkpt>
      <trkpt lat="48.39518" lon="-4.41402">
        <ele>72.439591</ele>
        <time>2022-12-09T17:02:57.530Z</time>
      </trkpt>
      <trkpt lat="48.39519" lon="-4.41386">
        <ele>72.62229</ele>
        <time>2022-12-09T17:03:02.543Z</time>
      </trkpt>
      <trkpt lat="48.39519" lon="-4.4137">
        <ele>72.800031</ele>
        <time>2022-12-09T17:03:07.546Z</time>
      </trkpt>
      <trkpt lat="48.3952" lon="-4.41356">
        <ele>72.954862</ele>
        <time>2022-12-09T17:03:11.555Z</time>
      </trkpt>
      <trkpt lat="48.39519" lon="-4.41339">
        <ele>73.142016</ele>
        <time>2022-12-09T17:03:16.547Z</time>
      </trkpt>
      <trkpt lat="48.39521" lon="-4.41323">
        <ele>73.329098</ele>
        <time>2022-12-09T17:03:21.546Z</time>
      </trkpt>
      <trkpt lat="48.39522" lon="-4.41307">
        <ele>73.503251</ele>
        <time>2022-12-09T17:03:25.540Z</time>
      </trkpt>
      <trkpt lat="48.39523" lon="-4.41291">
        <ele>73.682102</ele>
        <time>2022-12-09T17:03:29.550Z</time>
      </trkpt>
      <trkpt lat="48.39524" lon="-4.41275">
        <ele>73.86809</ele>
        <time>2022-12-09T17:03:33.529Z</time>
      </trkpt>
      <trkpt lat="48.39525" lon="-4.41258">
        <ele>74.0478</ele>
        <time>2022-12-09T17:03:37.532Z</time>
      </trkpt>
      <trkpt lat="48.39526" lon="-4.41243">
        <ele>74.222034</ele>
        <time>2022-12-09T17:03:41.526Z</time>
      </trkpt>
      <trkpt lat="48.39526" lon="-4.41227">
        <ele>74.398218</ele>
        <time>2022-12-09T17:03:45.544Z</time>
      </trkpt>
      <trkpt lat="48.39527" lon="-4.41212">
        <ele>74.568642</ele>
        <time>2022-12-09T17:03:49.549Z</time>
      </trkpt>
      <trkpt lat="48.39526" lon="-4.41197">
        <ele>74.737952</ele>
        <time>2022-12-09T17:03:53.535Z</time>
      </trkpt>
      <trkpt lat="48.39527" lon="-4.41179">
        <ele>74.930907</ele>
        <time>2022-12-09T17:03:57.547Z</time>
      </trkpt>
      <trkpt lat="48.39526" lon="-4.41162">
        <ele>75.124328</ele>
        <time>2022-12-09T17:04:01.534Z</time>
      </trkpt>
      <trkpt lat="48.39525" lon="-4.41144">
        <ele>75.321571</ele>
        <time>2022-12-09T17:04:05.530Z</time>
      </trkpt>
      <trkpt lat="48.39523" lon="-4.41127">
        <ele>75.511446</ele>
        <time>2022-12-09T17:04:09.553Z</time>
      </trkpt>
      <trkpt lat="48.39522" lon="-4.4111">
        <ele>75.686999</ele>
        <time>2022-12-09T17:04:13.547Z</time>
      </trkpt>
      <trkpt lat="48.39519" lon="-4.41093">
        <ele>75.869965</ele>
        <time>2022-12-09T17:04:17.528Z</time>
      </trkpt>
      <trkpt lat="48.39517" lon="-4.41075">
        <ele>76.049973</ele>
        <time>2022-12-09T17:04:21.549Z</time>
      </trkpt>
      <trkpt lat="48.39515" lon="-4.41059">
        <ele>76.219248</ele>
        <time>2022-12-09T17:04:25.559Z</time>
      </trkpt>
      <trkpt lat="48.39512" lon="-4.41045">
        <ele>76.360113</ele>
        <time>2022-12-09T17:04:28.549Z</time>
      </trkpt>
      <trkpt lat="48.3951" lon="-4.41032">
        <ele>76.50288</ele>
        <time>2022-12-09T17:04:31.547Z</time>
      </trkpt>
      <trkpt lat="48.39508" lon="-4.41019">
        <ele>76.643013</ele>
        <time>2022-12-09T17:04:34.533Z</time>
      </trkpt>
      <trkpt lat="48.39505" lon="-4.41005">
        <ele>76.782894</ele>
        <time>2022-12-09T17:04:37.545Z</time>
      </trkpt>
      <trkpt lat="48.39503" lon="-4.40992">
        <ele>76.923384</ele>
        <time>2022-12-09T17:04:40.532Z</time>
      </trkpt>
      <trkpt lat="48.39501" lon="-4.40979">
        <ele>77.061296</ele>
        <time>2022-12-09T17:04:43.548Z</time>
      </trkpt>
      <trkpt lat="48.39498" lon="-4.40965">
        <ele>77.20296</ele>
        <time>2022-12-09T17:04:46.548Z</time>
      </trkpt>
      <trkpt lat="48.39495" lon="-4.4095">
        <ele>77.368628</ele>
        <time>2022-12-09T17:04:50.550Z</time>
      </trkpt>
      <trkpt lat="48.39492" lon="-4.40932">
        <ele>77.552805</ele>
        <time>2022-12-09T17:04:54.538Z</time>
      </trkpt>
      <trkpt lat="48.39489" lon="-4.4092">
        <ele>77.690456</ele>
        <time>2022-12-09T17:04:57.548Z</time>
      </trkpt>
      <trkpt lat="48.39487" lon="-4.40903">
        <ele>77.862983</ele>
        <time>2022-12-09T17:05:01.543Z</time>
      </trkpt>
      <trkpt lat="48.39486" lon="-4.40887">
        <ele>78.02047</ele>
        <time>2022-12-09T17:05:05.536Z</time>
      </trkpt>
      <trkpt lat="48.39489" lon="-4.40871">
        <ele>78.194058</ele>
        <time>2022-12-09T17:05:09.538Z</time>
      </trkpt>
      <trkpt lat="48.39487" lon="-4.40857">
        <ele>78.12561</ele>
        <time>2022-12-09T17:05:12.534Z</time>
      </trkpt>
      <trkpt lat="48.39483" lon="-4.40844">
        <ele>78.02705</ele>
        <time>2022-12-09T17:05:15.539Z</time>
      </trkpt>
      <trkpt lat="48.39477" lon="-4.4083">
        <ele>77.908264</ele>
        <time>2022-12-09T17:05:19.531Z</time>
      </trkpt>
      <trkpt lat="48.39471" lon="-4.40818">
        <ele>77.806888</ele>
        <time>2022-12-09T17:05:22.554Z</time>
      </trkpt>
      <trkpt lat="48.39468" lon="-4.40803">
        <ele>77.698299</ele>
        <time>2022-12-09T17:05:25.540Z</time>
      </trkpt>
      <trkpt lat="48.39466" lon="-4.40789">
        <ele>77.60053</ele>
        <time>2022-12-09T17:05:28.532Z</time>
      </trkpt>
      <trkpt lat="48.39463" lon="-4.40774">
        <ele>77.490314</ele>
        <time>2022-12-09T17:05:32.554Z</time>
      </trkpt>
      <trkpt lat="48.39459" lon="-4.40758">
        <ele>77.372486</ele>
        <time>2022-12-09T17:05:36.551Z</time>
      </trkpt>
      <trkpt lat="48.39455" lon="-4.40741">
        <ele>77.246359</ele>
        <time>2022-12-09T17:05:40.553Z</time>
      </trkpt>
      <trkpt lat="48.39451" lon="-4.40728">
        <ele>77.149285</ele>
        <time>2022-12-09T17:05:43.535Z</time>
      </trkpt>
      <trkpt lat="48.39447" lon="-4.40712">
        <ele>77.025251</ele>
        <time>2022-12-09T17:05:47.541Z</time>
      </trkpt>
      <trkpt lat="48.39444" lon="-4.40699">
        <ele>76.928475</ele>
        <time>2022-12-09T17:05:50.537Z</time>
      </trkpt>
      <trkpt lat="48.39439" lon="-4.40686">
        <ele>76.829347</ele>
        <time>2022-12-09T17:05:53.547Z</time>
      </trkpt>
      <trkpt lat="48.39434" lon="-4.40673">
        <ele>76.723675</ele>
        <time>2022-12-09T17:05:56.551Z</time>
      </trkpt>
      <trkpt lat="48.39429" lon="-4.40659">
        <ele>76.61468</ele>
        <time>2022-12-09T17:05:59.549Z</time>
      </trkpt>
      <trkpt lat="48.39423" lon="-4.40646">
        <ele>76.499397</ele>
        <time>2022-12-09T17:06:02.547Z</time>
      </trkpt>
      <trkpt lat="48.39418" lon="-4.40632">
        <ele>76.387941</ele>
        <time>2022-12-09T17:06:05.537Z</time>
      </trkpt>
      <trkpt lat="48.39412" lon="-4.40618">
        <ele>76.126536</ele>
        <time>2022-12-09T17:06:08.541Z</time>
      </trkpt>
      <trkpt lat="48.39407" lon="-4.40604">
        <ele>75.674981</ele>
        <time>2022-12-09T17:06:11.545Z</time>
      </trkpt>
      <trkpt lat="48.39402" lon="-4.40591">
        <ele>75.234369</ele>
        <time>2022-12-09T17:06:14.527Z</time>
      </trkpt>
      <trkpt lat="48.39396" lon="-4.40579">
        <ele>74.796092</ele>
        <time>2022-12-09T17:06:17.561Z</time>
      </trkpt>
      <trkpt lat="48.3939" lon="-4.40567">
        <ele>74.40023</ele>
        <time>2022-12-09T17:06:20.550Z</time>
      </trkpt>
      <trkpt lat="48.39384" lon="-4.40555">
        <ele>73.958533</ele>
        <time>2022-12-09T17:06:23.541Z</time>
      </trkpt>
      <trkpt lat="48.39377" lon="-4.40542">
        <ele>73.487974</ele>
        <time>2022-12-09T17:06:26.551Z</time>
      </trkpt>
      <trkpt lat="48.3937" lon="-4.40528">
        <ele>72.976945</ele>
        <time>2022-12-09T17:06:29.543Z</time>
      </trkpt>
      <trkpt lat="48.39362" lon="-4.40514">
        <ele>72.452369</ele>
        <time>2022-12-09T17:06:32.546Z</time>
      </trkpt>
      <trkpt lat="48.39353" lon="-4.40501">
        <ele>71.927345</ele>
        <time>2022-12-09T17:06:35.550Z</time>
      </trkpt>
      <trkpt lat="48.39345" lon="-4.40488">
        <ele>71.410433</ele>
        <time>2022-12-09T17:06:38.545Z</time>
      </trkpt>
      <trkpt lat="48.39336" lon="-4.40474">
        <ele>70.864474</ele>
        <time>2022-12-09T17:06:41.554Z</time>
      </trkpt>
      <trkpt lat="48.39329" lon="-4.40464">
        <ele>70.439228</ele>
        <time>2022-12-09T17:06:43.550Z</time>
      </trkpt>
      <trkpt lat="48.3932" lon="-4.40455">
        <ele>70.009415</ele>
        <time>2022-12-09T17:06:45.550Z</time>
      </trkpt>
      <trkpt lat="48.39311" lon="-4.40446">
        <ele>69.545544</ele>
        <time>2022-12-09T17:06:47.547Z</time>
      </trkpt>
      <trkpt lat="48.39303" lon="-4.40437">
        <ele>69.093962</ele>
        <time>2022-12-09T17:06:49.552Z</time>
      </trkpt>
      <trkpt lat="48.39294" lon="-4.40429">
        <ele>68.658088</ele>
        <time>2022-12-09T17:06:51.545Z</time>
      </trkpt>
      <trkpt lat="48.39286" lon="-4.40421">
        <ele>68.833993</ele>
        <time>2022-12-09T17:06:53.561Z</time>
      </trkpt>
      <trkpt lat="48.39277" lon="-4.40413">
        <ele>69.073774</ele>
        <time>2022-12-09T17:06:55.550Z</time>
      </trkpt>
      <trkpt lat="48.39269" lon="-4.40405">
        <ele>69.296194</ele>
        <time>2022-12-09T17:06:57.531Z</time>
      </trkpt>
      <trkpt lat="48.39261" lon="-4.40398">
        <ele>69.513331</ele>
        <time>2022-12-09T17:06:59.550Z</time>
      </trkpt>
      <trkpt lat="48.3925" lon="-4.4039">
        <ele>69.787074</ele>
        <time>2022-12-09T17:07:02.550Z</time>
      </trkpt>
      <trkpt lat="48.39241" lon="-4.40382">
        <ele>70.028364</ele>
        <time>2022-12-09T17:07:05.550Z</time>
      </trkpt>
      <trkpt lat="48.39232" lon="-4.40375">
        <ele>70.255836</ele>
        <time>2022-12-09T17:07:08.548Z</time>
      </trkpt>
      <trkpt lat="48.39224" lon="-4.40368">
        <ele>70.482725</ele>
        <time>2022-12-09T17:07:11.547Z</time>
      </trkpt>
      <trkpt lat="48.39214" lon="-4.40361">
        <ele>70.739156</ele>
        <time>2022-12-09T17:07:15.551Z</time>
      </trkpt>
      <trkpt lat="48.39204" lon="-4.40354">
        <ele>70.990248</ele>
        <time>2022-12-09T17:07:19.555Z</time>
      </trkpt>
      <trkpt lat="48.39195" lon="-4.40348">
        <ele>71.219206</ele>
        <time>2022-12-09T17:07:23.542Z</time>
      </trkpt>
      <trkpt lat="48.39187" lon="-4.40341">
        <ele>71.430973</ele>
        <time>2022-12-09T17:07:27.536Z</time>
      </trkpt>
      <trkpt lat="48.3918" lon="-4.40333">
        <ele>71.640102</ele>
        <time>2022-12-09T17:07:31.548Z</time>
      </trkpt>
      <trkpt lat="48.39172" lon="-4.40324">
        <ele>71.875738</ele>
        <time>2022-12-09T17:07:36.547Z</time>
      </trkpt>
      <trkpt lat="48.39163" lon="-4.40319">
        <ele>72.085519</ele>
        <time>2022-12-09T17:07:40.541Z</time>
      </trkpt>
      <trkpt lat="48.39155" lon="-4.4031">
        <ele>72.322144</ele>
        <time>2022-12-09T17:07:44.543Z</time>
      </trkpt>
      <trkpt lat="48.39145" lon="-4.40302">
        <ele>72.57501</ele>
        <time>2022-12-09T17:07:48.553Z</time>
      </trkpt>
      <trkpt lat="48.39137" lon="-4.40295">
        <ele>72.809118</ele>
        <time>2022-12-09T17:07:52.550Z</time>
      </trkpt>
      <trkpt lat="48.39127" lon="-4.4029">
        <ele>73.228034</ele>
        <time>2022-12-09T17:07:56.538Z</time>
      </trkpt>
      <trkpt lat="48.39119" lon="-4.40283">
        <ele>73.61388</ele>
        <time>2022-12-09T17:08:00.549Z</time>
      </trkpt>
      <trkpt lat="48.39111" lon="-4.40276">
        <ele>73.993543</ele>
        <time>2022-12-09T17:08:04.536Z</time>
      </trkpt>
      <trkpt lat="48.39103" lon="-4.40269">
        <ele>74.398098</ele>
        <time>2022-12-09T17:08:11.530Z</time>
      </trkpt>
      <trkpt lat="48.39097" lon="-4.40259">
        <ele>74.777957</ele>
        <time>2022-12-09T17:08:18.538Z</time>
      </trkpt>
      <trkpt lat="48.39087" lon="-4.40255">
        <ele>75.175767</ele>
        <time>2022-12-09T17:08:24.537Z</time>
      </trkpt>
      <trkpt lat="48.39078" lon="-4.40248">
        <ele>75.618631</ele>
        <time>2022-12-09T17:08:30.537Z</time>
      </trkpt>
      <trkpt lat="48.3907" lon="-4.40242">
        <ele>75.994889</ele>
        <time>2022-12-09T17:08:35.538Z</time>
      </trkpt>
      <trkpt lat="48.3906" lon="-4.40233">
        <ele>76.444927</ele>
        <time>2022-12-09T17:08:41.534Z</time>
      </trkpt>
      <trkpt lat="48.39052" lon="-4.40227">
        <ele>76.835675</ele>
        <time>2022-12-09T17:08:46.538Z</time>
      </trkpt>
      <trkpt lat="48.39043" lon="-4.40219">
        <ele>77.256083</ele>
        <time>2022-12-09T17:08:52.535Z</time>
      </trkpt>
      <trkpt lat="48.39035" lon="-4.40213">
        <ele>77.647648</ele>
        <time>2022-12-09T17:08:57.536Z</time>
      </trkpt>
      <trkpt lat="48.39026" lon="-4.40206">
        <ele>78.042429</ele>
        <time>2022-12-09T17:09:02.537Z</time>
      </trkpt>
      <trkpt lat="48.39018" lon="-4.40198">
        <ele>78.446401</ele>
        <time>2022-12-09T17:09:07.541Z</time>
      </trkpt>
      <trkpt lat="48.39009" lon="-4.40192">
        <ele>78.851915</ele>
        <time>2022-12-09T17:09:12.547Z</time>
      </trkpt>
      <trkpt lat="48.39001" lon="-4.40186">
        <ele>79.251344</ele>
        <time>2022-12-09T17:09:17.547Z</time>
      </trkpt>
      <trkpt lat="48.38993" lon="-4.40179">
        <ele>79.64251</ele>
        <time>2022-12-09T17:09:22.536Z</time>
      </trkpt>
      <trkpt lat="48.38984" lon="-4.40173">
        <ele>80.042548</ele>
        <time>2022-12-09T17:09:27.550Z</time>
      </trkpt>
      <trkpt lat="48.38975" lon="-4.40166">
        <ele>80.378335</ele>
        <time>2022-12-09T17:09:32.533Z</time>
      </trkpt>
      <trkpt lat="48.38967" lon="-4.40158">
        <ele>80.615909</ele>
        <time>2022-12-09T17:09:36.542Z</time>
      </trkpt>
      <trkpt lat="48.38959" lon="-4.40151">
        <ele>80.847355</ele>
        <time>2022-12-09T17:09:40.532Z</time>
      </trkpt>
      <trkpt lat="48.38949" lon="-4.40144">
        <ele>81.135013</ele>
        <time>2022-12-09T17:09:45.539Z</time>
      </trkpt>
      <trkpt lat="48.3894" lon="-4.40137">
        <ele>81.401269</ele>
        <time>2022-12-09T17:09:49.544Z</time>
      </trkpt>
      <trkpt lat="48.3893" lon="-4.40128">
        <ele>81.696723</ele>
        <time>2022-12-09T17:09:53.564Z</time>
      </trkpt>
      <trkpt lat="48.38919" lon="-4.4012">
        <ele>81.997463</ele>
        <time>2022-12-09T17:09:57.564Z</time>
      </trkpt>
      <trkpt lat="48.38911" lon="-4.40114">
        <ele>82.231117</ele>
        <time>2022-12-09T17:10:00.562Z</time>
      </trkpt>
      <trkpt lat="48.38903" lon="-4.40108">
        <ele>82.466186</ele>
        <time>2022-12-09T17:10:03.537Z</time>
      </trkpt>
      <trkpt lat="48.38894" lon="-4.401">
        <ele>82.739683</ele>
        <time>2022-12-09T17:10:07.563Z</time>
      </trkpt>
      <trkpt lat="48.38883" lon="-4.40091">
        <ele>83.036405</ele>
        <time>2022-12-09T17:10:11.560Z</time>
      </trkpt>
      <trkpt lat="48.38875" lon="-4.40084">
        <ele>83.288498</ele>
        <time>2022-12-09T17:10:14.561Z</time>
      </trkpt>
      <trkpt lat="48.38866" lon="-4.40076">
        <ele>83.549248</ele>
        <time>2022-12-09T17:10:17.552Z</time>
      </trkpt>
      <trkpt lat="48.38857" lon="-4.40069">
        <ele>83.81415</ele>
        <time>2022-12-09T17:10:20.551Z</time>
      </trkpt>
      <trkpt lat="48.38848" lon="-4.40062">
        <ele>84.06847</ele>
        <time>2022-12-09T17:10:23.548Z</time>
      </trkpt>
      <trkpt lat="48.38838" lon="-4.40053">
        <ele>84.362285</ele>
        <time>2022-12-09T17:10:27.561Z</time>
      </trkpt>
      <trkpt lat="48.38828" lon="-4.40045">
        <ele>84.656687</ele>
        <time>2022-12-09T17:10:31.551Z</time>
      </trkpt>
      <trkpt lat="48.3882" lon="-4.40039">
        <ele>84.82373</ele>
        <time>2022-12-09T17:10:34.546Z</time>
      </trkpt>
      <trkpt lat="48.38811" lon="-4.40033">
        <ele>84.707472</ele>
        <time>2022-12-09T17:10:37.553Z</time>
      </trkpt>
      <trkpt lat="48.38802" lon="-4.40026">
        <ele>84.589432</ele>
        <time>2022-12-09T17:10:40.537Z</time>
      </trkpt>
      <trkpt lat="48.38794" lon="-4.40019">
        <ele>84.474585</ele>
        <time>2022-12-09T17:10:43.544Z</time>
      </trkpt>
      <trkpt lat="48.38786" lon="-4.40012">
        <ele>84.363827</ele>
        <time>2022-12-09T17:10:46.549Z</time>
      </trkpt>
      <trkpt lat="48.38776" lon="-4.40004">
        <ele>84.230666</ele>
        <time>2022-12-09T17:10:50.550Z</time>
      </trkpt>
      <trkpt lat="48.38765" lon="-4.39996">
        <ele>84.08588</ele>
        <time>2022-12-09T17:10:54.530Z</time>
      </trkpt>
      <trkpt lat="48.38757" lon="-4.39988">
        <ele>83.968161</ele>
        <time>2022-12-09T17:10:57.542Z</time>
      </trkpt>
      <trkpt lat="48.38748" lon="-4.39982">
        <ele>83.857207</ele>
        <time>2022-12-09T17:11:00.540Z</time>
      </trkpt>
      <trkpt lat="48.38737" lon="-4.39974">
        <ele>83.712055</ele>
        <time>2022-12-09T17:11:04.551Z</time>
      </trkpt>
      <trkpt lat="48.38728" lon="-4.39967">
        <ele>83.590797</ele>
        <time>2022-12-09T17:11:07.567Z</time>
      </trkpt>
      <trkpt lat="48.38719" lon="-4.3996">
        <ele>83.467664</ele>
        <time>2022-12-09T17:11:10.548Z</time>
      </trkpt>
      <trkpt lat="48.38711" lon="-4.39952">
        <ele>83.342349</ele>
        <time>2022-12-09T17:11:13.565Z</time>
      </trkpt>
      <trkpt lat="48.38702" lon="-4.39944">
        <ele>83.219478</ele>
        <time>2022-12-09T17:11:16.547Z</time>
      </trkpt>
      <trkpt lat="48.38693" lon="-4.39937">
        <ele>83.097853</ele>
        <time>2022-12-09T17:11:19.542Z</time>
      </trkpt>
      <trkpt lat="48.38684" lon="-4.3993">
        <ele>82.985495</ele>
        <time>2022-12-09T17:11:22.564Z</time>
      </trkpt>
      <trkpt lat="48.38676" lon="-4.39923">
        <ele>82.868187</ele>
        <time>2022-12-09T17:11:25.562Z</time>
      </trkpt>
      <trkpt lat="48.38667" lon="-4.39915">
        <ele>82.750398</ele>
        <time>2022-12-09T17:11:28.555Z</time>
      </trkpt>
      <trkpt lat="48.38659" lon="-4.39909">
        <ele>82.677251</ele>
        <time>2022-12-09T17:11:31.550Z</time>
      </trkpt>
      <trkpt lat="48.3865" lon="-4.39901">
        <ele>82.647888</ele>
        <time>2022-12-09T17:11:34.544Z</time>
      </trkpt>
      <trkpt lat="48.3864" lon="-4.39893">
        <ele>82.617315</ele>
        <time>2022-12-09T17:11:37.553Z</time>
      </trkpt>
      <trkpt lat="48.38633" lon="-4.39886">
        <ele>82.591378</ele>
        <time>2022-12-09T17:11:40.533Z</time>
      </trkpt>
      <trkpt lat="48.38622" lon="-4.39878">
        <ele>82.558646</ele>
        <time>2022-12-09T17:11:44.541Z</time>
      </trkpt>
      <trkpt lat="48.38613" lon="-4.39872">
        <ele>82.529106</ele>
        <time>2022-12-09T17:11:48.549Z</time>
      </trkpt>
      <trkpt lat="48.38603" lon="-4.39865">
        <ele>82.499688</ele>
        <time>2022-12-09T17:11:52.532Z</time>
      </trkpt>
      <trkpt lat="48.38596" lon="-4.39858">
        <ele>82.47341</ele>
        <time>2022-12-09T17:11:55.555Z</time>
      </trkpt>
      <trkpt lat="48.38587" lon="-4.3985">
        <ele>82.445811</ele>
        <time>2022-12-09T17:11:58.545Z</time>
      </trkpt>
      <trkpt lat="48.38578" lon="-4.39843">
        <ele>82.41749</ele>
        <time>2022-12-09T17:12:01.552Z</time>
      </trkpt>
      <trkpt lat="48.3857" lon="-4.39836">
        <ele>82.388773</ele>
        <time>2022-12-09T17:12:04.557Z</time>
      </trkpt>
      <trkpt lat="48.3856" lon="-4.39828">
        <ele>82.357829</ele>
        <time>2022-12-09T17:12:07.563Z</time>
      </trkpt>
      <trkpt lat="48.38551" lon="-4.39821">
        <ele>82.327785</ele>
        <time>2022-12-09T17:12:10.555Z</time>
      </trkpt>
      <trkpt lat="48.38543" lon="-4.39815">
        <ele>82.302261</ele>
        <time>2022-12-09T17:12:13.559Z</time>
      </trkpt>
      <trkpt lat="48.38532" lon="-4.39806">
        <ele>82.268838</ele>
        <time>2022-12-09T17:12:17.550Z</time>
      </trkpt>
      <trkpt lat="48.38524" lon="-4.39799">
        <ele>82.241196</ele>
        <time>2022-12-09T17:12:20.541Z</time>
      </trkpt>
      <trkpt lat="48.38515" lon="-4.39792">
        <ele>82.21237</ele>
        <time>2022-12-09T17:12:23.553Z</time>
      </trkpt>
      <trkpt lat="48.38506" lon="-4.39786">
        <ele>82.183545</ele>
        <time>2022-12-09T17:12:26.545Z</time>
      </trkpt>
      <trkpt lat="48.38497" lon="-4.39778">
        <ele>82.262233</ele>
        <time>2022-12-09T17:12:29.556Z</time>
      </trkpt>
      <trkpt lat="48.38487" lon="-4.3977">
        <ele>82.377699</ele>
        <time>2022-12-09T17:12:33.550Z</time>
      </trkpt>
      <trkpt lat="48.38477" lon="-4.39762">
        <ele>82.484277</ele>
        <time>2022-12-09T17:12:37.560Z</time>
      </trkpt>
      <trkpt lat="48.38472" lon="-4.39751">
        <ele>82.573303</ele>
        <time>2022-12-09T17:12:41.549Z</time>
      </trkpt>
      <trkpt lat="48.38461" lon="-4.39745">
        <ele>82.683921</ele>
        <time>2022-12-09T17:12:45.535Z</time>
      </trkpt>
      <trkpt lat="48.38453" lon="-4.3974">
        <ele>82.777034</ele>
        <time>2022-12-09T17:12:48.553Z</time>
      </trkpt>
      <trkpt lat="48.38444" lon="-4.39734">
        <ele>82.871286</ele>
        <time>2022-12-09T17:12:51.560Z</time>
      </trkpt>
      <trkpt lat="48.38436" lon="-4.39727">
        <ele>82.962631</ele>
        <time>2022-12-09T17:12:54.550Z</time>
      </trkpt>
      <trkpt lat="48.38427" lon="-4.39719">
        <ele>83.067601</ele>
        <time>2022-12-09T17:12:58.543Z</time>
      </trkpt>
      <trkpt lat="48.38418" lon="-4.39711">
        <ele>83.169361</ele>
        <time>2022-12-09T17:13:02.564Z</time>
      </trkpt>
      <trkpt lat="48.38409" lon="-4.39699">
        <ele>83.282514</ele>
        <time>2022-12-09T17:13:06.548Z</time>
      </trkpt>
      <trkpt lat="48.38402" lon="-4.39687">
        <ele>83.387336</ele>
        <time>2022-12-09T17:13:10.555Z</time>
      </trkpt>
      <trkpt lat="48.38395" lon="-4.39677">
        <ele>83.484428</ele>
        <time>2022-12-09T17:13:14.551Z</time>
      </trkpt>
      <trkpt lat="48.38389" lon="-4.39663">
        <ele>83.593504</ele>
        <time>2022-12-09T17:13:19.538Z</time>
      </trkpt>
      <trkpt lat="48.38384" lon="-4.39652">
        <ele>83.684022</ele>
        <time>2022-12-09T17:13:24.564Z</time>
      </trkpt>
      <trkpt lat="48.38379" lon="-4.39639">
        <ele>83.778475</ele>
        <time>2022-12-09T17:13:30.538Z</time>
      </trkpt>
      <trkpt lat="48.38373" lon="-4.39629">
        <ele>83.868263</ele>
        <time>2022-12-09T17:13:35.537Z</time>
      </trkpt>
      <trkpt lat="48.38368" lon="-4.39616">
        <ele>84.025065</ele>
        <time>2022-12-09T17:13:40.542Z</time>
      </trkpt>
      <trkpt lat="48.38364" lon="-4.39602">
        <ele>84.44721</ele>
        <time>2022-12-09T17:13:45.539Z</time>
      </trkpt>
      <trkpt lat="48.38361" lon="-4.39587">
        <ele>84.908168</ele>
        <time>2022-12-09T17:13:51.538Z</time>
      </trkpt>
      <trkpt lat="48.38358" lon="-4.39574">
        <ele>85.327365</ele>
        <time>2022-12-09T17:13:56.539Z</time>
      </trkpt>
      <trkpt lat="48.38356" lon="-4.39561">
        <ele>85.729388</ele>
        <time>2022-12-09T17:14:01.534Z</time>
      </trkpt>
      <trkpt lat="48.38355" lon="-4.39547">
        <ele>86.126822</ele>
        <time>2022-12-09T17:14:06.534Z</time>
      </trkpt>
      <trkpt lat="48.38355" lon="-4.39533">
        <ele>86.554355</ele>
        <time>2022-12-09T17:14:12.531Z</time>
      </trkpt>
      <trkpt lat="48.38361" lon="-4.39519">
        <ele>87.008163</ele>
        <time>2022-12-09T17:14:17.536Z</time>
      </trkpt>
      <trkpt lat="48.38366" lon="-4.39507">
        <ele>87.432597</ele>
        <time>2022-12-09T17:14:23.535Z</time>
      </trkpt>
      <trkpt lat="48.38368" lon="-4.39492">
        <ele>87.88617</ele>
        <time>2022-12-09T17:14:29.538Z</time>
      </trkpt>
      <trkpt lat="48.3836" lon="-4.39484">
        <ele>88.295463</ele>
        <time>2022-12-09T17:14:35.532Z</time>
      </trkpt>
      <trkpt lat="48.38351" lon="-4.39479">
        <ele>88.731494</ele>
        <time>2022-12-09T17:14:41.536Z</time>
      </trkpt>
      <trkpt lat="48.38347" lon="-4.39465">
        <ele>89.17507</ele>
        <time>2022-12-09T17:14:47.535Z</time>
      </trkpt>
      <trkpt lat="48.38346" lon="-4.3945">
        <ele>89.610795</ele>
        <time>2022-12-09T17:14:53.554Z</time>
      </trkpt>
      <trkpt lat="48.38347" lon="-4.39434">
        <ele>90.08935</ele>
        <time>2022-12-09T17:14:59.547Z</time>
      </trkpt>
      <trkpt lat="48.38347" lon="-4.39418">
        <ele>90.548725</ele>
        <time>2022-12-09T17:15:05.537Z</time>
      </trkpt>
      <trkpt lat="48.38349" lon="-4.39403">
        <ele>91.014145</ele>
        <time>2022-12-09T17:15:11.532Z</time>
      </trkpt>
      <trkpt lat="48.3835" lon="-4.39387">
        <ele>91.478875</ele>
        <time>2022-12-09T17:15:17.539Z</time>
      </trkpt>
      <trkpt lat="48.38352" lon="-4.39371">
        <ele>91.947852</ele>
        <time>2022-12-09T17:15:23.540Z</time>
      </trkpt>
      <trkpt lat="48.38354" lon="-4.39358">
        <ele>92.327023</ele>
        <time>2022-12-09T17:15:28.539Z</time>
      </trkpt>
      <trkpt lat="48.38355" lon="-4.39342">
        <ele>92.770415</ele>
        <time>2022-12-09T17:15:34.537Z</time>
      </trkpt>
      <trkpt lat="48.38356" lon="-4.39327">
        <ele>93.169748</ele>
        <time>2022-12-09T17:15:39.551Z</time>
      </trkpt>
      <trkpt lat="48.38356" lon="-4.39314">
        <ele>93.551866</ele>
        <time>2022-12-09T17:15:44.555Z</time>
      </trkpt>
      <trkpt lat="48.38356" lon="-4.39298">
        <ele>93.994698</ele>
        <time>2022-12-09T17:15:50.540Z</time>
      </trkpt>
      <trkpt lat="48.38357" lon="-4.39282">
        <ele>94.443159</ele>
        <time>2022-12-09T17:15:56.534Z</time>
      </trkpt>
      <trkpt lat="48.38357" lon="-4.39266">
        <ele>94.886943</ele>
        <time>2022-12-09T17:16:02.535Z</time>
      </trkpt>
      <trkpt lat="48.38359" lon="-4.3925">
        <ele>95.321539</ele>
        <time>2022-12-09T17:16:08.540Z</time>
      </trkpt>
      <trkpt lat="48.38361" lon="-4.39235">
        <ele>95.750352</ele>
        <time>2022-12-09T17:16:14.536Z</time>
      </trkpt>
      <trkpt lat="48.38362" lon="-4.3922">
        <ele>96.192096</ele>
        <time>2022-12-09T17:16:20.534Z</time>
      </trkpt>
      <trkpt lat="48.38364" lon="-4.39204">
        <ele>96.622628</ele>
        <time>2022-12-09T17:16:26.538Z</time>
      </trkpt>
      <trkpt lat="48.38364" lon="-4.39191">
        <ele>97.001408</ele>
        <time>2022-12-09T17:16:32.537Z</time>
      </trkpt>
      <trkpt lat="48.38366" lon="-4.39175">
        <ele>97.447862</ele>
        <time>2022-12-09T17:16:38.531Z</time>
      </trkpt>
      <trkpt lat="48.38367" lon="-4.39162">
        <ele>97.82501</ele>
        <time>2022-12-09T17:16:43.534Z</time>
      </trkpt>
      <trkpt lat="48.38367" lon="-4.39146">
        <ele>98.262331</ele>
        <time>2022-12-09T17:16:49.533Z</time>
      </trkpt>
      <trkpt lat="48.38368" lon="-4.3913">
        <ele>98.711418</ele>
        <time>2022-12-09T17:16:55.539Z</time>
      </trkpt>
      <trkpt lat="48.38368" lon="-4.39116">
        <ele>99.098553</ele>
        <time>2022-12-09T17:17:00.537Z</time>
      </trkpt>
      <trkpt lat="48.38369" lon="-4.39102">
        <ele>99.503634</ele>
        <time>2022-12-09T17:17:05.541Z</time>
      </trkpt>
      <trkpt lat="48.38368" lon="-4.39087">
        <ele>100.004602</ele>
        <time>2022-12-09T17:17:11.544Z</time>
      </trkpt>
      <trkpt lat="48.38367" lon="-4.39073">
        <ele>100.45642</ele>
        <time>2022-12-09T17:17:16.539Z</time>
      </trkpt>
      <trkpt lat="48.38366" lon="-4.39057">
        <ele>100.981946</ele>
        <time>2022-12-09T17:17:22.532Z</time>
      </trkpt>
      <trkpt lat="48.38366" lon="-4.39043">
        <ele>101.436524</ele>
        <time>2022-12-09T17:17:27.538Z</time>
      </trkpt>
      <trkpt lat="48.38365" lon="-4.39028">
        <ele>101.961301</ele>
        <time>2022-12-09T17:17:33.539Z</time>
      </trkpt>
      <trkpt lat="48.38366" lon="-4.39012">
        <ele>102.482226</ele>
        <time>2022-12-09T17:17:39.531Z</time>
      </trkpt>
      <trkpt lat="48.38365" lon="-4.38997">
        <ele>102.985251</ele>
        <time>2022-12-09T17:17:45.531Z</time>
      </trkpt>
      <trkpt lat="48.38365" lon="-4.38981">
        <ele>103.495922</ele>
        <time>2022-12-09T17:17:51.539Z</time>
      </trkpt>
      <trkpt lat="48.38364" lon="-4.38966">
        <ele>104.007916</ele>
        <time>2022-12-09T17:17:57.536Z</time>
      </trkpt>
      <trkpt lat="48.38364" lon="-4.3895">
        <ele>104.529101</ele>
        <time>2022-12-09T17:18:03.537Z</time>
      </trkpt>
      <trkpt lat="48.38365" lon="-4.38934">
        <ele>105.064472</ele>
        <time>2022-12-09T17:18:09.540Z</time>
      </trkpt>
      <trkpt lat="48.38365" lon="-4.3892">
        <ele>105.514108</ele>
        <time>2022-12-09T17:18:14.538Z</time>
      </trkpt>
      <trkpt lat="48.38368" lon="-4.38905">
        <ele>106.03001</ele>
        <time>2022-12-09T17:18:20.541Z</time>
      </trkpt>
      <trkpt lat="48.38369" lon="-4.3889">
        <ele>106.530273</ele>
        <time>2022-12-09T17:18:26.540Z</time>
      </trkpt>
      <trkpt lat="48.3837" lon="-4.38875">
        <ele>107.026273</ele>
        <time>2022-12-09T17:18:32.537Z</time>
      </trkpt>
      <trkpt lat="48.38372" lon="-4.3886">
        <ele>107.52445</ele>
        <time>2022-12-09T17:18:38.557Z</time>
      </trkpt>
      <trkpt lat="48.38372" lon="-4.38845">
        <ele>108.022126</ele>
        <time>2022-12-09T17:18:44.542Z</time>
      </trkpt>
      <trkpt lat="48.38374" lon="-4.38829">
        <ele>108.587295</ele>
        <time>2022-12-09T17:18:50.538Z</time>
      </trkpt>
      <trkpt lat="48.38375" lon="-4.38814">
        <ele>109.234563</ele>
        <time>2022-12-09T17:18:56.535Z</time>
      </trkpt>
      <trkpt lat="48.38377" lon="-4.38799">
        <ele>109.889808</ele>
        <time>2022-12-09T17:19:02.562Z</time>
      </trkpt>
      <trkpt lat="48.38377" lon="-4.38783">
        <ele>110.539424</ele>
        <time>2022-12-09T17:19:08.537Z</time>
      </trkpt>
      <trkpt lat="48.38378" lon="-4.38767">
        <ele>111.214754</ele>
        <time>2022-12-09T17:19:14.536Z</time>
      </trkpt>
      <trkpt lat="48.38379" lon="-4.38752">
        <ele>111.841929</ele>
        <time>2022-12-09T17:19:20.535Z</time>
      </trkpt>
      <trkpt lat="48.3838" lon="-4.38736">
        <ele>112.507</ele>
        <time>2022-12-09T17:19:26.544Z</time>
      </trkpt>
      <trkpt lat="48.3838" lon="-4.38722">
        <ele>113.079182</ele>
        <time>2022-12-09T17:19:31.541Z</time>
      </trkpt>
      <trkpt lat="48.38381" lon="-4.38708">
        <ele>113.679398</ele>
        <time>2022-12-09T17:19:36.538Z</time>
      </trkpt>
      <trkpt lat="48.38382" lon="-4.38693">
        <ele>114.304532</ele>
        <time>2022-12-09T17:19:42.546Z</time>
      </trkpt>
      <trkpt lat="48.38384" lon="-4.38679">
        <ele>114.909477</ele>
        <time>2022-12-09T17:19:48.542Z</time>
      </trkpt>
      <trkpt lat="48.38383" lon="-4.38664">
        <ele>115.534894</ele>
        <time>2022-12-09T17:19:55.540Z</time>
      </trkpt>
      <trkpt lat="48.38384" lon="-4.38648">
        <ele>116.165218</ele>
        <time>2022-12-09T17:20:01.545Z</time>
      </trkpt>
      <trkpt lat="48.38384" lon="-4.38633">
        <ele>116.827445</ele>
        <time>2022-12-09T17:20:07.554Z</time>
      </trkpt>
      <trkpt lat="48.38384" lon="-4.38617">
        <ele>117.495162</ele>
        <time>2022-12-09T17:20:13.542Z</time>
      </trkpt>
      <trkpt lat="48.38385" lon="-4.38601">
        <ele>118.142103</ele>
        <time>2022-12-09T17:20:19.540Z</time>
      </trkpt>
      <trkpt lat="48.38386" lon="-4.38585">
        <ele>118.806109</ele>
        <time>2022-12-09T17:20:25.543Z</time>
      </trkpt>
      <trkpt lat="48.38386" lon="-4.38569">
        <ele>119.484989</ele>
        <time>2022-12-09T17:20:31.536Z</time>
      </trkpt>
      <trkpt lat="48.38387" lon="-4.38555">
        <ele>119.897225</ele>
        <time>2022-12-09T17:20:36.535Z</time>
      </trkpt>
      <trkpt lat="48.38386" lon="-4.38539">
        <ele>120.2985</ele>
        <time>2022-12-09T17:20:42.539Z</time>
      </trkpt>
      <trkpt lat="48.38386" lon="-4.38525">
        <ele>120.65176</ele>
        <time>2022-12-09T17:20:47.554Z</time>
      </trkpt>
      <trkpt lat="48.38386" lon="-4.3851">
        <ele>121.017637</ele>
        <time>2022-12-09T17:20:52.534Z</time>
      </trkpt>
      <trkpt lat="48.38386" lon="-4.38496">
        <ele>121.368374</ele>
        <time>2022-12-09T17:20:57.558Z</time>
      </trkpt>
      <trkpt lat="48.38386" lon="-4.38482">
        <ele>121.717333</ele>
        <time>2022-12-09T17:21:02.541Z</time>
      </trkpt>
      <trkpt lat="48.38385" lon="-4.38467">
        <ele>122.109346</ele>
        <time>2022-12-09T17:21:08.531Z</time>
      </trkpt>
      <trkpt lat="48.38384" lon="-4.38451">
        <ele>122.522393</ele>
        <time>2022-12-09T17:21:14.537Z</time>
      </trkpt>
      <trkpt lat="48.38383" lon="-4.38437">
        <ele>122.878907</ele>
        <time>2022-12-09T17:21:19.557Z</time>
      </trkpt>
      <trkpt lat="48.38383" lon="-4.38422">
        <ele>123.237395</ele>
        <time>2022-12-09T17:21:24.539Z</time>
      </trkpt>
      <trkpt lat="48.38382" lon="-4.38407">
        <ele>123.636166</ele>
        <time>2022-12-09T17:21:30.550Z</time>
      </trkpt>
      <trkpt lat="48.38379" lon="-4.38393">
        <ele>123.987375</ele>
        <time>2022-12-09T17:21:35.564Z</time>
      </trkpt>
      <trkpt lat="48.38378" lon="-4.38379">
        <ele>124.352151</ele>
        <time>2022-12-09T17:21:40.538Z</time>
      </trkpt>
      <trkpt lat="48.38376" lon="-4.38363">
        <ele>124.761211</ele>
        <time>2022-12-09T17:21:46.551Z</time>
      </trkpt>
      <trkpt lat="48.38374" lon="-4.38349">
        <ele>125.123445</ele>
        <time>2022-12-09T17:21:51.560Z</time>
      </trkpt>
      <trkpt lat="48.38372" lon="-4.38335">
        <ele>125.485045</ele>
        <time>2022-12-09T17:21:56.535Z</time>
      </trkpt>
      <trkpt lat="48.38371" lon="-4.3832">
        <ele>125.861551</ele>
        <time>2022-12-09T17:22:02.547Z</time>
      </trkpt>
      <trkpt lat="48.38369" lon="-4.38306">
        <ele>126.210753</ele>
        <time>2022-12-09T17:22:07.552Z</time>
      </trkpt>
      <trkpt lat="48.38369" lon="-4.38293">
        <ele>126.621547</ele>
        <time>2022-12-09T17:22:12.536Z</time>
      </trkpt>
      <trkpt lat="48.38367" lon="-4.38277">
        <ele>127.257315</ele>
        <time>2022-12-09T17:22:18.537Z</time>
      </trkpt>
      <trkpt lat="48.38365" lon="-4.38264">
        <ele>127.810998</ele>
        <time>2022-12-09T17:22:23.555Z</time>
      </trkpt>
      <trkpt lat="48.38364" lon="-4.38248">
        <ele>128.455213</ele>
        <time>2022-12-09T17:22:29.537Z</time>
      </trkpt>
      <trkpt lat="48.38362" lon="-4.38233">
        <ele>129.07346</ele>
        <time>2022-12-09T17:22:35.538Z</time>
      </trkpt>
      <trkpt lat="48.38362" lon="-4.38217">
        <ele>129.723922</ele>
        <time>2022-12-09T17:22:41.555Z</time>
      </trkpt>
      <trkpt lat="48.38359" lon="-4.38202">
        <ele>130.364944</ele>
        <time>2022-12-09T17:22:47.535Z</time>
      </trkpt>
      <trkpt lat="48.38358" lon="-4.38188">
        <ele>130.934701</ele>
        <time>2022-12-09T17:22:52.557Z</time>
      </trkpt>
      <trkpt lat="48.38357" lon="-4.38172">
        <ele>131.569337</ele>
        <time>2022-12-09T17:22:58.555Z</time>
      </trkpt>
      <trkpt lat="48.38356" lon="-4.38157">
        <ele>132.184182</ele>
        <time>2022-12-09T17:23:04.536Z</time>
      </trkpt>
      <trkpt lat="48.38355" lon="-4.38143">
        <ele>132.758575</ele>
        <time>2022-12-09T17:23:09.550Z</time>
      </trkpt>
      <trkpt lat="48.38354" lon="-4.38128">
        <ele>133.388679</ele>
        <time>2022-12-09T17:23:14.550Z</time>
      </trkpt>
      <trkpt lat="48.38353" lon="-4.38113">
        <ele>134.00404</ele>
        <time>2022-12-09T17:23:19.550Z</time>
      </trkpt>
      <trkpt lat="48.38353" lon="-4.38097">
        <ele>134.637705</ele>
        <time>2022-12-09T17:23:24.546Z</time>
      </trkpt>
      <trkpt lat="48.38353" lon="-4.38082">
        <ele>135.258992</ele>
        <time>2022-12-09T17:23:29.543Z</time>
      </trkpt>
      <trkpt lat="48.38352" lon="-4.38066">
        <ele>135.901728</ele>
        <time>2022-12-09T17:23:34.542Z</time>
      </trkpt>
      <trkpt lat="48.38352" lon="-4.3805">
        <ele>136.568093</ele>
        <time>2022-12-09T17:23:39.561Z</time>
      </trkpt>
      <trkpt lat="48.38351" lon="-4.38034">
        <ele>137.195584</ele>
        <time>2022-12-09T17:23:44.574Z</time>
      </trkpt>
      <trkpt lat="48.3835" lon="-4.38019">
        <ele>137.671273</ele>
        <time>2022-12-09T17:23:49.557Z</time>
      </trkpt>
      <trkpt lat="48.38348" lon="-4.38005">
        <ele>138.001427</ele>
        <time>2022-12-09T17:23:54.543Z</time>
      </trkpt>
      <trkpt lat="48.38347" lon="-4.37991">
        <ele>138.335379</ele>
        <time>2022-12-09T17:23:59.542Z</time>
      </trkpt>
      <trkpt lat="48.38346" lon="-4.37977">
        <ele>138.66206</ele>
        <time>2022-12-09T17:24:04.546Z</time>
      </trkpt>
      <trkpt lat="48.38344" lon="-4.37962">
        <ele>139.038798</ele>
        <time>2022-12-09T17:24:10.546Z</time>
      </trkpt>
      <trkpt lat="48.38346" lon="-4.37948">
        <ele>139.362201</ele>
        <time>2022-12-09T17:24:15.535Z</time>
      </trkpt>
      <trkpt lat="48.38345" lon="-4.37935">
        <ele>139.685964</ele>
        <time>2022-12-09T17:24:20.548Z</time>
      </trkpt>
      <trkpt lat="48.38344" lon="-4.37919">
        <ele>140.072657</ele>
        <time>2022-12-09T17:24:26.539Z</time>
      </trkpt>
      <trkpt lat="48.3834" lon="-4.37904">
        <ele>140.434501</ele>
        <time>2022-12-09T17:24:31.553Z</time>
      </trkpt>
      <trkpt lat="48.38335" lon="-4.37892">
        <ele>140.79661</ele>
        <time>2022-12-09T17:24:36.540Z</time>
      </trkpt>
      <trkpt lat="48.3833" lon="-4.37881">
        <ele>141.117333</ele>
        <time>2022-12-09T17:24:40.544Z</time>
      </trkpt>
      <trkpt lat="48.38323" lon="-4.37867">
        <ele>141.510084</ele>
        <time>2022-12-09T17:24:45.561Z</time>
      </trkpt>
      <trkpt lat="48.38316" lon="-4.37855">
        <ele>141.909053</ele>
        <time>2022-12-09T17:24:50.560Z</time>
      </trkpt>
      <trkpt lat="48.38308" lon="-4.37843">
        <ele>142.294421</ele>
        <time>2022-12-09T17:24:55.563Z</time>
      </trkpt>
      <trkpt lat="48.38303" lon="-4.37829">
        <ele>142.686951</ele>
        <time>2022-12-09T17:25:00.546Z</time>
      </trkpt>
      <trkpt lat="48.38298" lon="-4.37814">
        <ele>143.070215</ele>
        <time>2022-12-09T17:25:05.564Z</time>
      </trkpt>
      <trkpt lat="48.38293" lon="-4.378">
        <ele>143.451243</ele>
        <time>2022-12-09T17:25:10.552Z</time>
      </trkpt>
      <trkpt lat="48.38285" lon="-4.3779">
        <ele>143.808467</ele>
        <time>2022-12-09T17:25:15.560Z</time>
      </trkpt>
      <trkpt lat="48.38277" lon="-4.37779">
        <ele>143.893263</ele>
        <time>2022-12-09T17:25:19.559Z</time>
      </trkpt>
      <trkpt lat="48.38272" lon="-4.37766">
        <ele>143.916064</ele>
        <time>2022-12-09T17:25:23.543Z</time>
      </trkpt>
      <trkpt lat="48.38271" lon="-4.37752">
        <ele>143.938553</ele>
        <time>2022-12-09T17:25:27.543Z</time>
      </trkpt>
      <trkpt lat="48.38274" lon="-4.37738">
        <ele>143.960666</ele>
        <time>2022-12-09T17:25:31.546Z</time>
      </trkpt>
      <trkpt lat="48.38275" lon="-4.37723">
        <ele>143.982986</ele>
        <time>2022-12-09T17:25:35.545Z</time>
      </trkpt>
      <trkpt lat="48.38273" lon="-4.37708">
        <ele>144.005415</ele>
        <time>2022-12-09T17:25:39.548Z</time>
      </trkpt>
      <trkpt lat="48.3827" lon="-4.37681">
        <ele>144.046527</ele>
        <time>2022-12-09T17:31:03.574Z</time>
      </trkpt>
      <trkpt lat="48.38271" lon="-4.37667">
        <ele>144.067441</ele>
        <time>2022-12-09T17:31:07.545Z</time>
      </trkpt>
      <trkpt lat="48.3827" lon="-4.37649">
        <ele>144.094055</ele>
        <time>2022-12-09T17:31:11.567Z</time>
      </trkpt>
      <trkpt lat="48.3827" lon="-4.37632">
        <ele>144.120069</ele>
        <time>2022-12-09T17:31:14.564Z</time>
      </trkpt>
      <trkpt lat="48.38268" lon="-4.37613">
        <ele>144.14917</ele>
        <time>2022-12-09T17:31:17.566Z</time>
      </trkpt>
      <trkpt lat="48.38265" lon="-4.37594">
        <ele>144.178131</ele>
        <time>2022-12-09T17:31:20.562Z</time>
      </trkpt>
      <trkpt lat="48.38261" lon="-4.37577">
        <ele>144.206384</ele>
        <time>2022-12-09T17:31:23.567Z</time>
      </trkpt>
      <trkpt lat="48.38256" lon="-4.3756">
        <ele>144.233372</ele>
        <time>2022-12-09T17:31:26.549Z</time>
      </trkpt>
      <trkpt lat="48.38252" lon="-4.37546">
        <ele>144.257105</ele>
        <time>2022-12-09T17:31:29.569Z</time>
      </trkpt>
      <trkpt lat="48.38248" lon="-4.37533">
        <ele>144.278001</ele>
        <time>2022-12-09T17:31:32.559Z</time>
      </trkpt>
      <trkpt lat="48.38243" lon="-4.37517">
        <ele>144.576779</ele>
        <time>2022-12-09T17:31:36.548Z</time>
      </trkpt>
      <trkpt lat="48.38238" lon="-4.37501">
        <ele>144.890994</ele>
        <time>2022-12-09T17:31:40.562Z</time>
      </trkpt>
      <trkpt lat="48.38233" lon="-4.37486">
        <ele>145.178944</ele>
        <time>2022-12-09T17:31:44.544Z</time>
      </trkpt>
      <trkpt lat="48.38229" lon="-4.37474">
        <ele>145.422228</ele>
        <time>2022-12-09T17:31:47.555Z</time>
      </trkpt>
      <trkpt lat="48.38225" lon="-4.37462">
        <ele>145.667717</ele>
        <time>2022-12-09T17:31:50.540Z</time>
      </trkpt>
      <trkpt lat="48.38221" lon="-4.37445">
        <ele>145.989274</ele>
        <time>2022-12-09T17:31:54.559Z</time>
      </trkpt>
      <trkpt lat="48.38217" lon="-4.37429">
        <ele>146.289488</ele>
        <time>2022-12-09T17:31:58.562Z</time>
      </trkpt>
      <trkpt lat="48.38214" lon="-4.37415">
        <ele>146.554148</ele>
        <time>2022-12-09T17:32:02.555Z</time>
      </trkpt>
      <trkpt lat="48.38209" lon="-4.37401">
        <ele>146.830622</ele>
        <time>2022-12-09T17:32:06.541Z</time>
      </trkpt>
      <trkpt lat="48.38205" lon="-4.37387">
        <ele>147.108759</ele>
        <time>2022-12-09T17:32:10.563Z</time>
      </trkpt>
      <trkpt lat="48.38202" lon="-4.37374">
        <ele>147.353773</ele>
        <time>2022-12-09T17:32:14.560Z</time>
      </trkpt>
      <trkpt lat="48.38197" lon="-4.37359">
        <ele>147.653576</ele>
        <time>2022-12-09T17:32:19.558Z</time>
      </trkpt>
      <trkpt lat="48.38193" lon="-4.37343">
        <ele>147.953963</ele>
        <time>2022-12-09T17:32:24.546Z</time>
      </trkpt>
      <trkpt lat="48.38189" lon="-4.37331">
        <ele>148.19631</ele>
        <time>2022-12-09T17:32:28.567Z</time>
      </trkpt>
      <trkpt lat="48.38186" lon="-4.37318">
        <ele>148.445276</ele>
        <time>2022-12-09T17:32:32.560Z</time>
      </trkpt>
      <trkpt lat="48.38182" lon="-4.37305">
        <ele>148.694131</ele>
        <time>2022-12-09T17:32:36.540Z</time>
      </trkpt>
      <trkpt lat="48.38178" lon="-4.37291">
        <ele>148.958327</ele>
        <time>2022-12-09T17:32:40.549Z</time>
      </trkpt>
      <trkpt lat="48.38175" lon="-4.37277">
        <ele>149.218198</ele>
        <time>2022-12-09T17:32:44.564Z</time>
      </trkpt>
      <trkpt lat="48.38171" lon="-4.37263">
        <ele>149.490298</ele>
        <time>2022-12-09T17:32:48.544Z</time>
      </trkpt>
      <trkpt lat="48.38167" lon="-4.37249">
        <ele>149.759975</ele>
        <time>2022-12-09T17:32:52.561Z</time>
      </trkpt>
      <trkpt lat="48.38164" lon="-4.37235">
        <ele>150.010334</ele>
        <time>2022-12-09T17:32:56.562Z</time>
      </trkpt>
      <trkpt lat="48.38162" lon="-4.37221">
        <ele>150.271987</ele>
        <time>2022-12-09T17:33:00.571Z</time>
      </trkpt>
      <trkpt lat="48.38158" lon="-4.37207">
        <ele>150.532851</ele>
        <time>2022-12-09T17:33:04.562Z</time>
      </trkpt>
      <trkpt lat="48.38155" lon="-4.37194">
        <ele>150.774877</ele>
        <time>2022-12-09T17:33:08.563Z</time>
      </trkpt>
      <trkpt lat="48.38152" lon="-4.37178">
        <ele>151.05241</ele>
        <time>2022-12-09T17:33:13.540Z</time>
      </trkpt>
      <trkpt lat="48.38148" lon="-4.37163">
        <ele>151.336733</ele>
        <time>2022-12-09T17:33:18.537Z</time>
      </trkpt>
      <trkpt lat="48.38146" lon="-4.3715">
        <ele>151.576616</ele>
        <time>2022-12-09T17:33:22.554Z</time>
      </trkpt>
      <trkpt lat="48.38143" lon="-4.37134">
        <ele>151.862926</ele>
        <time>2022-12-09T17:33:27.550Z</time>
      </trkpt>
      <trkpt lat="48.38141" lon="-4.37121">
        <ele>152.1017</ele>
        <time>2022-12-09T17:33:31.548Z</time>
      </trkpt>
      <trkpt lat="48.38139" lon="-4.37106">
        <ele>152.376831</ele>
        <time>2022-12-09T17:33:36.551Z</time>
      </trkpt>
      <trkpt lat="48.38136" lon="-4.37091">
        <ele>152.64659</ele>
        <time>2022-12-09T17:33:41.566Z</time>
      </trkpt>
      <trkpt lat="48.38134" lon="-4.37075">
        <ele>152.926153</ele>
        <time>2022-12-09T17:33:46.558Z</time>
      </trkpt>
      <trkpt lat="48.38133" lon="-4.37059">
        <ele>153.201467</ele>
        <time>2022-12-09T17:33:51.536Z</time>
      </trkpt>
      <trkpt lat="48.38131" lon="-4.37044">
        <ele>153.472636</ele>
        <time>2022-12-09T17:33:56.540Z</time>
      </trkpt>
      <trkpt lat="48.38129" lon="-4.37029">
        <ele>153.7445</ele>
        <time>2022-12-09T17:34:01.565Z</time>
      </trkpt>
      <trkpt lat="48.38127" lon="-4.37013">
        <ele>154.158133</ele>
        <time>2022-12-09T17:34:06.553Z</time>
      </trkpt>
      <trkpt lat="48.38126" lon="-4.36998">
        <ele>154.621136</ele>
        <time>2022-12-09T17:34:11.547Z</time>
      </trkpt>
      <trkpt lat="48.38122" lon="-4.36986">
        <ele>155.038034</ele>
        <time>2022-12-09T17:34:16.560Z</time>
      </trkpt>
      <trkpt lat="48.38121" lon="-4.36972">
        <ele>155.448602</ele>
        <time>2022-12-09T17:34:22.547Z</time>
      </trkpt>
      <trkpt lat="48.38122" lon="-4.36957">
        <ele>155.906029</ele>
        <time>2022-12-09T17:34:43.546Z</time>
      </trkpt>
      <trkpt lat="48.38121" lon="-4.36941">
        <ele>156.400719</ele>
        <time>2022-12-09T17:34:50.549Z</time>
      </trkpt>
      <trkpt lat="48.38121" lon="-4.36924">
        <ele>156.889047</ele>
        <time>2022-12-09T17:34:55.548Z</time>
      </trkpt>
      <trkpt lat="48.38121" lon="-4.36909">
        <ele>157.353459</ele>
        <time>2022-12-09T17:35:00.561Z</time>
      </trkpt>
      <trkpt lat="48.38122" lon="-4.36895">
        <ele>157.781596</ele>
        <time>2022-12-09T17:35:05.547Z</time>
      </trkpt>
      <trkpt lat="48.38121" lon="-4.3688">
        <ele>158.219056</ele>
        <time>2022-12-09T17:35:10.562Z</time>
      </trkpt>
      <trkpt lat="48.38121" lon="-4.36865">
        <ele>158.692334</ele>
        <time>2022-12-09T17:35:15.558Z</time>
      </trkpt>
      <trkpt lat="48.38122" lon="-4.36849">
        <ele>159.171962</ele>
        <time>2022-12-09T17:35:20.551Z</time>
      </trkpt>
      <trkpt lat="48.38122" lon="-4.36835">
        <ele>159.586151</ele>
        <time>2022-12-09T17:35:24.558Z</time>
      </trkpt>
      <trkpt lat="48.38122" lon="-4.36821">
        <ele>159.999119</ele>
        <time>2022-12-09T17:35:28.564Z</time>
      </trkpt>
      <trkpt lat="48.38123" lon="-4.36807">
        <ele>160.442324</ele>
        <time>2022-12-09T17:35:32.560Z</time>
      </trkpt>
      <trkpt lat="48.38123" lon="-4.36793">
        <ele>160.86436</ele>
        <time>2022-12-09T17:35:36.570Z</time>
      </trkpt>
      <trkpt lat="48.38123" lon="-4.36778">
        <ele>161.307681</ele>
        <time>2022-12-09T17:35:40.565Z</time>
      </trkpt>
      <trkpt lat="48.38124" lon="-4.36763">
        <ele>161.747115</ele>
        <time>2022-12-09T17:35:44.561Z</time>
      </trkpt>
      <trkpt lat="48.38124" lon="-4.36749">
        <ele>162.048843</ele>
        <time>2022-12-09T17:35:48.563Z</time>
      </trkpt>
      <trkpt lat="48.38124" lon="-4.36735">
        <ele>162.168965</ele>
        <time>2022-12-09T17:35:52.567Z</time>
      </trkpt>
      <trkpt lat="48.38123" lon="-4.36721">
        <ele>162.285225</ele>
        <time>2022-12-09T17:35:56.549Z</time>
      </trkpt>
      <trkpt lat="48.38124" lon="-4.36706">
        <ele>162.408811</ele>
        <time>2022-12-09T17:36:00.565Z</time>
      </trkpt>
      <trkpt lat="48.38125" lon="-4.36689">
        <ele>162.553253</ele>
        <time>2022-12-09T17:36:04.559Z</time>
      </trkpt>
      <trkpt lat="48.38127" lon="-4.36675">
        <ele>162.675068</ele>
        <time>2022-12-09T17:36:07.568Z</time>
      </trkpt>
      <trkpt lat="48.38127" lon="-4.3666">
        <ele>162.799705</ele>
        <time>2022-12-09T17:36:10.564Z</time>
      </trkpt>
      <trkpt lat="48.38128" lon="-4.36645">
        <ele>162.93052</ele>
        <time>2022-12-09T17:36:13.569Z</time>
      </trkpt>
      <trkpt lat="48.3813" lon="-4.36629">
        <ele>163.062485</ele>
        <time>2022-12-09T17:36:16.547Z</time>
      </trkpt>
      <trkpt lat="48.38131" lon="-4.36614">
        <ele>163.193569</ele>
        <time>2022-12-09T17:36:19.562Z</time>
      </trkpt>
      <trkpt lat="48.38132" lon="-4.366">
        <ele>163.307821</ele>
        <time>2022-12-09T17:36:22.563Z</time>
      </trkpt>
      <trkpt lat="48.38131" lon="-4.36584">
        <ele>163.443226</ele>
        <time>2022-12-09T17:36:26.546Z</time>
      </trkpt>
      <trkpt lat="48.38131" lon="-4.36568">
        <ele>163.578521</ele>
        <time>2022-12-09T17:36:31.558Z</time>
      </trkpt>
      <trkpt lat="48.38133" lon="-4.36552">
        <ele>163.717417</ele>
        <time>2022-12-09T17:36:36.550Z</time>
      </trkpt>
      <trkpt lat="48.38134" lon="-4.36536">
        <ele>163.851987</ele>
        <time>2022-12-09T17:36:40.544Z</time>
      </trkpt>
      <trkpt lat="48.38136" lon="-4.36519">
        <ele>163.99289</ele>
        <time>2022-12-09T17:36:45.561Z</time>
      </trkpt>
      <trkpt lat="48.38137" lon="-4.36503">
        <ele>164.126315</ele>
        <time>2022-12-09T17:36:49.565Z</time>
      </trkpt>
      <trkpt lat="48.38139" lon="-4.36486">
        <ele>164.272871</ele>
        <time>2022-12-09T17:36:53.539Z</time>
      </trkpt>
      <trkpt lat="48.3814" lon="-4.36469">
        <ele>164.240538</ele>
        <time>2022-12-09T17:36:57.560Z</time>
      </trkpt>
      <trkpt lat="48.38142" lon="-4.36455">
        <ele>164.214454</ele>
        <time>2022-12-09T17:37:00.565Z</time>
      </trkpt>
      <trkpt lat="48.38143" lon="-4.3644">
        <ele>164.184942</ele>
        <time>2022-12-09T17:37:04.567Z</time>
      </trkpt>
      <trkpt lat="48.38144" lon="-4.36426">
        <ele>164.157493</ele>
        <time>2022-12-09T17:37:08.561Z</time>
      </trkpt>
      <trkpt lat="48.38144" lon="-4.36409">
        <ele>164.126174</ele>
        <time>2022-12-09T17:37:13.548Z</time>
      </trkpt>
      <trkpt lat="48.38148" lon="-4.36394">
        <ele>164.094283</ele>
        <time>2022-12-09T17:37:17.553Z</time>
      </trkpt>
      <trkpt lat="48.38152" lon="-4.36377">
        <ele>164.059842</ele>
        <time>2022-12-09T17:37:21.550Z</time>
      </trkpt>
      <trkpt lat="48.38154" lon="-4.36363">
        <ele>164.033421</ele>
        <time>2022-12-09T17:37:24.543Z</time>
      </trkpt>
      <trkpt lat="48.38155" lon="-4.36349">
        <ele>164.006026</ele>
        <time>2022-12-09T17:37:27.549Z</time>
      </trkpt>
      <trkpt lat="48.38156" lon="-4.36333">
        <ele>163.976236</ele>
        <time>2022-12-09T17:37:30.562Z</time>
      </trkpt>
      <trkpt lat="48.38158" lon="-4.36317">
        <ele>163.945304</ele>
        <time>2022-12-09T17:37:33.568Z</time>
      </trkpt>
      <trkpt lat="48.3816" lon="-4.363">
        <ele>163.91197</ele>
        <time>2022-12-09T17:37:36.567Z</time>
      </trkpt>
      <trkpt lat="48.38162" lon="-4.36282">
        <ele>163.876843</ele>
        <time>2022-12-09T17:37:39.563Z</time>
      </trkpt>
      <trkpt lat="48.38164" lon="-4.36264">
        <ele>163.842568</ele>
        <time>2022-12-09T17:37:42.544Z</time>
      </trkpt>
      <trkpt lat="48.38166" lon="-4.36247">
        <ele>163.808718</ele>
        <time>2022-12-09T17:37:45.549Z</time>
      </trkpt>
      <trkpt lat="48.38167" lon="-4.36229">
        <ele>163.774806</ele>
        <time>2022-12-09T17:37:48.565Z</time>
      </trkpt>
      <trkpt lat="48.38169" lon="-4.36213">
        <ele>163.729972</ele>
        <time>2022-12-09T17:37:51.570Z</time>
      </trkpt>
      <trkpt lat="48.38169" lon="-4.36197">
        <ele>163.673554</ele>
        <time>2022-12-09T17:37:54.569Z</time>
      </trkpt>
      <trkpt lat="48.3817" lon="-4.36182">
        <ele>163.618586</ele>
        <time>2022-12-09T17:37:57.542Z</time>
      </trkpt>
      <trkpt lat="48.38172" lon="-4.36165">
        <ele>163.555155</ele>
        <time>2022-12-09T17:38:00.550Z</time>
      </trkpt>
      <trkpt lat="48.38173" lon="-4.36147">
        <ele>163.489926</ele>
        <time>2022-12-09T17:38:03.540Z</time>
      </trkpt>
      <trkpt lat="48.38175" lon="-4.36129">
        <ele>163.42589</ele>
        <time>2022-12-09T17:38:06.544Z</time>
      </trkpt>
      <trkpt lat="48.38177" lon="-4.36112">
        <ele>163.362571</ele>
        <time>2022-12-09T17:38:09.567Z</time>
      </trkpt>
      <trkpt lat="48.38179" lon="-4.36094">
        <ele>163.297266</ele>
        <time>2022-12-09T17:38:12.560Z</time>
      </trkpt>
      <trkpt lat="48.3818" lon="-4.36076">
        <ele>163.228206</ele>
        <time>2022-12-09T17:38:15.565Z</time>
      </trkpt>
      <trkpt lat="48.38181" lon="-4.36057">
        <ele>163.160756</ele>
        <time>2022-12-09T17:38:18.565Z</time>
      </trkpt>
      <trkpt lat="48.38183" lon="-4.3604">
        <ele>163.096746</ele>
        <time>2022-12-09T17:38:21.563Z</time>
      </trkpt>
      <trkpt lat="48.38184" lon="-4.36023">
        <ele>163.037301</ele>
        <time>2022-12-09T17:38:24.568Z</time>
      </trkpt>
      <trkpt lat="48.38184" lon="-4.36008">
        <ele>162.981334</ele>
        <time>2022-12-09T17:38:27.565Z</time>
      </trkpt>
      <trkpt lat="48.38185" lon="-4.35994">
        <ele>162.929583</ele>
        <time>2022-12-09T17:38:30.564Z</time>
      </trkpt>
      <trkpt lat="48.38186" lon="-4.35979">
        <ele>162.876425</ele>
        <time>2022-12-09T17:38:33.546Z</time>
      </trkpt>
      <trkpt lat="48.38186" lon="-4.35963">
        <ele>162.817867</ele>
        <time>2022-12-09T17:38:36.568Z</time>
      </trkpt>
      <trkpt lat="48.38187" lon="-4.35946">
        <ele>162.754429</ele>
        <time>2022-12-09T17:38:39.560Z</time>
      </trkpt>
      <trkpt lat="48.38187" lon="-4.3593">
        <ele>162.690107</ele>
        <time>2022-12-09T17:38:42.559Z</time>
      </trkpt>
      <trkpt lat="48.38187" lon="-4.35914">
        <ele>162.62494</ele>
        <time>2022-12-09T17:38:45.554Z</time>
      </trkpt>
      <trkpt lat="48.38187" lon="-4.35897">
        <ele>162.555396</ele>
        <time>2022-12-09T17:38:48.562Z</time>
      </trkpt>
      <trkpt lat="48.38187" lon="-4.35879">
        <ele>162.48623</ele>
        <time>2022-12-09T17:38:51.554Z</time>
      </trkpt>
      <trkpt lat="48.38187" lon="-4.35863">
        <ele>162.419489</ele>
        <time>2022-12-09T17:38:54.564Z</time>
      </trkpt>
      <trkpt lat="48.38186" lon="-4.35848">
        <ele>162.359345</ele>
        <time>2022-12-09T17:38:57.564Z</time>
      </trkpt>
      <trkpt lat="48.38186" lon="-4.35834">
        <ele>162.303818</ele>
        <time>2022-12-09T17:39:00.559Z</time>
      </trkpt>
      <trkpt lat="48.38185" lon="-4.3582">
        <ele>162.245216</ele>
        <time>2022-12-09T17:39:03.565Z</time>
      </trkpt>
      <trkpt lat="48.38184" lon="-4.35804">
        <ele>162.18248</ele>
        <time>2022-12-09T17:39:06.556Z</time>
      </trkpt>
      <trkpt lat="48.38184" lon="-4.35788">
        <ele>162.119696</ele>
        <time>2022-12-09T17:39:09.571Z</time>
      </trkpt>
      <trkpt lat="48.38184" lon="-4.35773">
        <ele>162.059751</ele>
        <time>2022-12-09T17:39:12.550Z</time>
      </trkpt>
      <trkpt lat="48.38184" lon="-4.35759">
        <ele>162.002238</ele>
        <time>2022-12-09T17:39:15.565Z</time>
      </trkpt>
      <trkpt lat="48.38182" lon="-4.35744">
        <ele>161.938784</ele>
        <time>2022-12-09T17:39:19.551Z</time>
      </trkpt>
      <trkpt lat="48.38178" lon="-4.35731">
        <ele>161.883267</ele>
        <time>2022-12-09T17:39:23.551Z</time>
      </trkpt>
      <trkpt lat="48.38174" lon="-4.35719">
        <ele>161.826265</ele>
        <time>2022-12-09T17:39:27.558Z</time>
      </trkpt>
      <trkpt lat="48.38177" lon="-4.35701">
        <ele>161.75337</ele>
        <time>2022-12-09T17:39:31.543Z</time>
      </trkpt>
      <trkpt lat="48.38181" lon="-4.35686">
        <ele>161.686954</ele>
        <time>2022-12-09T17:39:34.564Z</time>
      </trkpt>
      <trkpt lat="48.38182" lon="-4.3567">
        <ele>161.423244</ele>
        <time>2022-12-09T17:39:37.548Z</time>
      </trkpt>
      <trkpt lat="48.38182" lon="-4.35652">
        <ele>161.135647</ele>
        <time>2022-12-09T17:39:40.569Z</time>
      </trkpt>
      <trkpt lat="48.38181" lon="-4.35633">
        <ele>160.835132</ele>
        <time>2022-12-09T17:39:43.568Z</time>
      </trkpt>
      <trkpt lat="48.38182" lon="-4.35614">
        <ele>160.5217</ele>
        <time>2022-12-09T17:39:46.561Z</time>
      </trkpt>
      <trkpt lat="48.38183" lon="-4.356">
        <ele>160.296346</ele>
        <time>2022-12-09T17:39:48.545Z</time>
      </trkpt>
      <trkpt lat="48.38184" lon="-4.3558">
        <ele>159.970157</ele>
        <time>2022-12-09T17:39:51.562Z</time>
      </trkpt>
      <trkpt lat="48.38185" lon="-4.35565">
        <ele>159.735336</ele>
        <time>2022-12-09T17:39:53.568Z</time>
      </trkpt>
      <trkpt lat="48.38185" lon="-4.35552">
        <ele>159.51384</ele>
        <time>2022-12-09T17:39:55.569Z</time>
      </trkpt>
      <trkpt lat="48.38185" lon="-4.35538">
        <ele>159.293959</ele>
        <time>2022-12-09T17:39:57.565Z</time>
      </trkpt>
      <trkpt lat="48.38186" lon="-4.35524">
        <ele>159.073433</ele>
        <time>2022-12-09T17:39:59.549Z</time>
      </trkpt>
      <trkpt lat="48.38187" lon="-4.3551">
        <ele>158.843753</ele>
        <time>2022-12-09T17:40:01.563Z</time>
      </trkpt>
      <trkpt lat="48.38187" lon="-4.35497">
        <ele>158.623751</ele>
        <time>2022-12-09T17:40:03.568Z</time>
      </trkpt>
      <trkpt lat="48.38188" lon="-4.35476">
        <ele>158.293167</ele>
        <time>2022-12-09T17:40:06.563Z</time>
      </trkpt>
      <trkpt lat="48.38189" lon="-4.35457">
        <ele>157.975657</ele>
        <time>2022-12-09T17:40:09.567Z</time>
      </trkpt>
      <trkpt lat="48.38191" lon="-4.35438">
        <ele>157.678122</ele>
        <time>2022-12-09T17:40:12.561Z</time>
      </trkpt>
      <trkpt lat="48.38191" lon="-4.35419">
        <ele>157.367396</ele>
        <time>2022-12-09T17:40:15.566Z</time>
      </trkpt>
      <trkpt lat="48.38192" lon="-4.354">
        <ele>157.265541</ele>
        <time>2022-12-09T17:40:18.559Z</time>
      </trkpt>
      <trkpt lat="48.38193" lon="-4.35386">
        <ele>157.226908</ele>
        <time>2022-12-09T17:40:20.559Z</time>
      </trkpt>
      <trkpt lat="48.38193" lon="-4.35372">
        <ele>157.18769</ele>
        <time>2022-12-09T17:40:22.564Z</time>
      </trkpt>
      <trkpt lat="48.38194" lon="-4.35359">
        <ele>157.149324</ele>
        <time>2022-12-09T17:40:24.564Z</time>
      </trkpt>
      <trkpt lat="48.38194" lon="-4.35339">
        <ele>157.093335</ele>
        <time>2022-12-09T17:40:27.569Z</time>
      </trkpt>
      <trkpt lat="48.38195" lon="-4.35319">
        <ele>157.036474</ele>
        <time>2022-12-09T17:40:30.565Z</time>
      </trkpt>
      <trkpt lat="48.38196" lon="-4.35299">
        <ele>156.979612</ele>
        <time>2022-12-09T17:40:33.558Z</time>
      </trkpt>
      <trkpt lat="48.38196" lon="-4.35279">
        <ele>156.922205</ele>
        <time>2022-12-09T17:40:36.566Z</time>
      </trkpt>
      <trkpt lat="48.38196" lon="-4.35258">
        <ele>156.863997</ele>
        <time>2022-12-09T17:40:39.550Z</time>
      </trkpt>
      <trkpt lat="48.38198" lon="-4.35239">
        <ele>156.807266</ele>
        <time>2022-12-09T17:40:42.561Z</time>
      </trkpt>
      <trkpt lat="48.38198" lon="-4.35218">
        <ele>156.749914</ele>
        <time>2022-12-09T17:40:45.567Z</time>
      </trkpt>
      <trkpt lat="48.38198" lon="-4.35198">
        <ele>156.693312</ele>
        <time>2022-12-09T17:40:48.549Z</time>
      </trkpt>
      <trkpt lat="48.38199" lon="-4.35179">
        <ele>156.63671</ele>
        <time>2022-12-09T17:40:51.564Z</time>
      </trkpt>
      <trkpt lat="48.382" lon="-4.35159">
        <ele>156.580455</ele>
        <time>2022-12-09T17:40:54.565Z</time>
      </trkpt>
      <trkpt lat="48.382" lon="-4.35139">
        <ele>156.531563</ele>
        <time>2022-12-09T17:40:57.567Z</time>
      </trkpt>
      <trkpt lat="48.38201" lon="-4.35119">
        <ele>156.499747</ele>
        <time>2022-12-09T17:41:00.565Z</time>
      </trkpt>
      <trkpt lat="48.382" lon="-4.35105">
        <ele>156.477289</ele>
        <time>2022-12-09T17:41:02.570Z</time>
      </trkpt>
      <trkpt lat="48.382" lon="-4.35091">
        <ele>156.454682</ele>
        <time>2022-12-09T17:41:04.564Z</time>
      </trkpt>
      <trkpt lat="48.38198" lon="-4.35078">
        <ele>156.432281</ele>
        <time>2022-12-09T17:41:06.566Z</time>
      </trkpt>
      <trkpt lat="48.38197" lon="-4.35064">
        <ele>156.410046</ele>
        <time>2022-12-09T17:41:08.566Z</time>
      </trkpt>
      <trkpt lat="48.38195" lon="-4.35045">
        <ele>156.378453</ele>
        <time>2022-12-09T17:41:11.558Z</time>
      </trkpt>
      <trkpt lat="48.38193" lon="-4.35027">
        <ele>156.349445</ele>
        <time>2022-12-09T17:41:14.575Z</time>
      </trkpt>
      <trkpt lat="48.38192" lon="-4.35011">
        <ele>156.324049</ele>
        <time>2022-12-09T17:41:17.544Z</time>
      </trkpt>
      <trkpt lat="48.38191" lon="-4.34995">
        <ele>156.29759</ele>
        <time>2022-12-09T17:41:20.552Z</time>
      </trkpt>
      <trkpt lat="48.38189" lon="-4.34978">
        <ele>156.269499</ele>
        <time>2022-12-09T17:41:23.552Z</time>
      </trkpt>
      <trkpt lat="48.38187" lon="-4.3496">
        <ele>156.241159</ele>
        <time>2022-12-09T17:41:26.567Z</time>
      </trkpt>
      <trkpt lat="48.38186" lon="-4.34945">
        <ele>156.215634</ele>
        <time>2022-12-09T17:41:29.564Z</time>
      </trkpt>
      <trkpt lat="48.38185" lon="-4.34928">
        <ele>156.188559</ele>
        <time>2022-12-09T17:41:33.571Z</time>
      </trkpt>
      <trkpt lat="48.38183" lon="-4.34911">
        <ele>156.160922</ele>
        <time>2022-12-09T17:41:37.568Z</time>
      </trkpt>
      <trkpt lat="48.38183" lon="-4.34895">
        <ele>156.134731</ele>
        <time>2022-12-09T17:41:41.555Z</time>
      </trkpt>
      <trkpt lat="48.38178" lon="-4.34883">
        <ele>156.112556</ele>
        <time>2022-12-09T17:41:44.554Z</time>
      </trkpt>
      <trkpt lat="48.38173" lon="-4.34869">
        <ele>155.879196</ele>
        <time>2022-12-09T17:41:47.544Z</time>
      </trkpt>
      <trkpt lat="48.38173" lon="-4.34853">
        <ele>155.559192</ele>
        <time>2022-12-09T17:41:50.544Z</time>
      </trkpt>
      <trkpt lat="48.38177" lon="-4.3484">
        <ele>155.263804</ele>
        <time>2022-12-09T17:41:53.544Z</time>
      </trkpt>
      <trkpt lat="48.38182" lon="-4.34827">
        <ele>154.970607</ele>
        <time>2022-12-09T17:41:56.564Z</time>
      </trkpt>
      <trkpt lat="48.38181" lon="-4.3481">
        <ele>154.646253</ele>
        <time>2022-12-09T17:41:59.548Z</time>
      </trkpt>
      <trkpt lat="48.38178" lon="-4.34792">
        <ele>154.270406</ele>
        <time>2022-12-09T17:42:02.552Z</time>
      </trkpt>
      <trkpt lat="48.38174" lon="-4.34779">
        <ele>153.988319</ele>
        <time>2022-12-09T17:42:04.542Z</time>
      </trkpt>
      <trkpt lat="48.38171" lon="-4.34766">
        <ele>153.702485</ele>
        <time>2022-12-09T17:42:06.548Z</time>
      </trkpt>
      <trkpt lat="48.38168" lon="-4.34752">
        <ele>153.416672</ele>
        <time>2022-12-09T17:42:08.556Z</time>
      </trkpt>
      <trkpt lat="48.38164" lon="-4.34733">
        <ele>153.01598</ele>
        <time>2022-12-09T17:42:11.562Z</time>
      </trkpt>
      <trkpt lat="48.38161" lon="-4.3472">
        <ele>152.741365</ele>
        <time>2022-12-09T17:42:13.563Z</time>
      </trkpt>
      <trkpt lat="48.38157" lon="-4.34706">
        <ele>152.433517</ele>
        <time>2022-12-09T17:42:15.562Z</time>
      </trkpt>
      <trkpt lat="48.38153" lon="-4.34692">
        <ele>152.115917</ele>
        <time>2022-12-09T17:42:17.563Z</time>
      </trkpt>
      <trkpt lat="48.38148" lon="-4.34676">
        <ele>151.77942</ele>
        <time>2022-12-09T17:42:19.566Z</time>
      </trkpt>
      <trkpt lat="48.38144" lon="-4.3466">
        <ele>151.432554</ele>
        <time>2022-12-09T17:42:21.564Z</time>
      </trkpt>
      <trkpt lat="48.3814" lon="-4.34647">
        <ele>151.136278</ele>
        <time>2022-12-09T17:42:23.563Z</time>
      </trkpt>
      <trkpt lat="48.38135" lon="-4.34632">
        <ele>150.821071</ele>
        <time>2022-12-09T17:42:26.566Z</time>
      </trkpt>
      <trkpt lat="48.38132" lon="-4.3462">
        <ele>150.483467</ele>
        <time>2022-12-09T17:42:30.561Z</time>
      </trkpt>
      <trkpt lat="48.3813" lon="-4.34606">
        <ele>150.081009</ele>
        <time>2022-12-09T17:42:33.565Z</time>
      </trkpt>
      <trkpt lat="48.38127" lon="-4.34589">
        <ele>149.575558</ele>
        <time>2022-12-09T17:42:36.570Z</time>
      </trkpt>
      <trkpt lat="48.38124" lon="-4.3457">
        <ele>148.985601</ele>
        <time>2022-12-09T17:42:39.553Z</time>
      </trkpt>
      <trkpt lat="48.38122" lon="-4.34556">
        <ele>148.579332</ele>
        <time>2022-12-09T17:42:41.566Z</time>
      </trkpt>
      <trkpt lat="48.3812" lon="-4.34542">
        <ele>148.172982</ele>
        <time>2022-12-09T17:42:43.559Z</time>
      </trkpt>
      <trkpt lat="48.38119" lon="-4.34528">
        <ele>147.750703</ele>
        <time>2022-12-09T17:42:45.564Z</time>
      </trkpt>
      <trkpt lat="48.38118" lon="-4.34513">
        <ele>147.324448</ele>
        <time>2022-12-09T17:42:47.576Z</time>
      </trkpt>
      <trkpt lat="48.38119" lon="-4.34498">
        <ele>146.879063</ele>
        <time>2022-12-09T17:42:49.545Z</time>
      </trkpt>
      <trkpt lat="48.38119" lon="-4.34483">
        <ele>146.436446</ele>
        <time>2022-12-09T17:42:51.546Z</time>
      </trkpt>
      <trkpt lat="48.38119" lon="-4.34469">
        <ele>146.037724</ele>
        <time>2022-12-09T17:42:53.566Z</time>
      </trkpt>
      <trkpt lat="48.38119" lon="-4.34456">
        <ele>145.641402</ele>
        <time>2022-12-09T17:42:55.564Z</time>
      </trkpt>
      <trkpt lat="48.3812" lon="-4.34442">
        <ele>145.241599</ele>
        <time>2022-12-09T17:42:57.544Z</time>
      </trkpt>
      <trkpt lat="48.38121" lon="-4.34427">
        <ele>144.812779</ele>
        <time>2022-12-09T17:42:59.566Z</time>
      </trkpt>
      <trkpt lat="48.38122" lon="-4.34412">
        <ele>144.381057</ele>
        <time>2022-12-09T17:43:01.545Z</time>
      </trkpt>
      <trkpt lat="48.38122" lon="-4.34398">
        <ele>143.966746</ele>
        <time>2022-12-09T17:43:03.562Z</time>
      </trkpt>
      <trkpt lat="48.38123" lon="-4.34379">
        <ele>143.399827</ele>
        <time>2022-12-09T17:43:06.565Z</time>
      </trkpt>
      <trkpt lat="48.38126" lon="-4.34362">
        <ele>142.892173</ele>
        <time>2022-12-09T17:43:09.566Z</time>
      </trkpt>
      <trkpt lat="48.38127" lon="-4.34342">
        <ele>142.263338</ele>
        <time>2022-12-09T17:43:12.561Z</time>
      </trkpt>
      <trkpt lat="48.38128" lon="-4.34328">
        <ele>141.792892</ele>
        <time>2022-12-09T17:43:14.560Z</time>
      </trkpt>
      <trkpt lat="48.38129" lon="-4.34314">
        <ele>141.310165</ele>
        <time>2022-12-09T17:43:16.568Z</time>
      </trkpt>
      <trkpt lat="48.3813" lon="-4.34299">
        <ele>140.832158</ele>
        <time>2022-12-09T17:43:18.566Z</time>
      </trkpt>
      <trkpt lat="48.38131" lon="-4.34284">
        <ele>140.326018</ele>
        <time>2022-12-09T17:43:20.544Z</time>
      </trkpt>
      <trkpt lat="48.38132" lon="-4.3427">
        <ele>139.856893</ele>
        <time>2022-12-09T17:43:22.550Z</time>
      </trkpt>
      <trkpt lat="48.38133" lon="-4.34255">
        <ele>139.392719</ele>
        <time>2022-12-09T17:43:24.571Z</time>
      </trkpt>
      <trkpt lat="48.38134" lon="-4.34241">
        <ele>138.922449</ele>
        <time>2022-12-09T17:43:26.570Z</time>
      </trkpt>
      <trkpt lat="48.38135" lon="-4.34226">
        <ele>138.4306</ele>
        <time>2022-12-09T17:43:28.564Z</time>
      </trkpt>
      <trkpt lat="48.38136" lon="-4.34212">
        <ele>137.961475</ele>
        <time>2022-12-09T17:43:30.564Z</time>
      </trkpt>
      <trkpt lat="48.38137" lon="-4.34197">
        <ele>137.468287</ele>
        <time>2022-12-09T17:43:32.573Z</time>
      </trkpt>
      <trkpt lat="48.38138" lon="-4.34182">
        <ele>136.958885</ele>
        <time>2022-12-09T17:43:34.563Z</time>
      </trkpt>
      <trkpt lat="48.38138" lon="-4.34166">
        <ele>136.423019</ele>
        <time>2022-12-09T17:43:36.570Z</time>
      </trkpt>
      <trkpt lat="48.38139" lon="-4.3415">
        <ele>135.905716</ele>
        <time>2022-12-09T17:43:38.547Z</time>
      </trkpt>
      <trkpt lat="48.38139" lon="-4.34134">
        <ele>135.396474</ele>
        <time>2022-12-09T17:43:40.564Z</time>
      </trkpt>
      <trkpt lat="48.38139" lon="-4.34119">
        <ele>134.883757</ele>
        <time>2022-12-09T17:43:42.565Z</time>
      </trkpt>
      <trkpt lat="48.38138" lon="-4.34104">
        <ele>134.387458</ele>
        <time>2022-12-09T17:43:44.570Z</time>
      </trkpt>
      <trkpt lat="48.38138" lon="-4.34084">
        <ele>133.767019</ele>
        <time>2022-12-09T17:43:47.572Z</time>
      </trkpt>
      <trkpt lat="48.38138" lon="-4.34065">
        <ele>133.262917</ele>
        <time>2022-12-09T17:43:50.561Z</time>
      </trkpt>
      <trkpt lat="48.38139" lon="-4.34046">
        <ele>132.733415</ele>
        <time>2022-12-09T17:43:53.561Z</time>
      </trkpt>
      <trkpt lat="48.38138" lon="-4.34032">
        <ele>132.364463</ele>
        <time>2022-12-09T17:43:55.568Z</time>
      </trkpt>
      <trkpt lat="48.38137" lon="-4.34012">
        <ele>131.825964</ele>
        <time>2022-12-09T17:43:58.551Z</time>
      </trkpt>
      <trkpt lat="48.38137" lon="-4.33993">
        <ele>131.305456</ele>
        <time>2022-12-09T17:44:01.567Z</time>
      </trkpt>
      <trkpt lat="48.38137" lon="-4.33974">
        <ele>130.779419</ele>
        <time>2022-12-09T17:44:04.568Z</time>
      </trkpt>
      <trkpt lat="48.38137" lon="-4.33954">
        <ele>130.250909</ele>
        <time>2022-12-09T17:44:07.565Z</time>
      </trkpt>
      <trkpt lat="48.38138" lon="-4.33935">
        <ele>129.715997</ele>
        <time>2022-12-09T17:44:10.560Z</time>
      </trkpt>
      <trkpt lat="48.3814" lon="-4.33915">
        <ele>129.171226</ele>
        <time>2022-12-09T17:44:13.571Z</time>
      </trkpt>
      <trkpt lat="48.38142" lon="-4.33899">
        <ele>128.7294</ele>
        <time>2022-12-09T17:44:15.565Z</time>
      </trkpt>
      <trkpt lat="48.38144" lon="-4.33885">
        <ele>128.338641</ele>
        <time>2022-12-09T17:44:17.565Z</time>
      </trkpt>
      <trkpt lat="48.38147" lon="-4.33871">
        <ele>127.952747</ele>
        <time>2022-12-09T17:44:19.546Z</time>
      </trkpt>
      <trkpt lat="48.3815" lon="-4.33858">
        <ele>127.574457</ele>
        <time>2022-12-09T17:44:21.561Z</time>
      </trkpt>
      <trkpt lat="48.38154" lon="-4.33844">
        <ele>127.177671</ele>
        <time>2022-12-09T17:44:23.554Z</time>
      </trkpt>
      <trkpt lat="48.38157" lon="-4.33831">
        <ele>126.792467</ele>
        <time>2022-12-09T17:44:25.565Z</time>
      </trkpt>
      <trkpt lat="48.38161" lon="-4.33818">
        <ele>126.354756</ele>
        <time>2022-12-09T17:44:27.561Z</time>
      </trkpt>
      <trkpt lat="48.38166" lon="-4.33805">
        <ele>125.836842</ele>
        <time>2022-12-09T17:44:29.567Z</time>
      </trkpt>
      <trkpt lat="48.38173" lon="-4.33787">
        <ele>125.148843</ele>
        <time>2022-12-09T17:44:32.570Z</time>
      </trkpt>
      <trkpt lat="48.38177" lon="-4.33775">
        <ele>124.683965</ele>
        <time>2022-12-09T17:44:34.567Z</time>
      </trkpt>
      <trkpt lat="48.38183" lon="-4.33763">
        <ele>124.19233</ele>
        <time>2022-12-09T17:44:36.566Z</time>
      </trkpt>
      <trkpt lat="48.38188" lon="-4.33751">
        <ele>123.706336</ele>
        <time>2022-12-09T17:44:38.567Z</time>
      </trkpt>
      <trkpt lat="48.38193" lon="-4.33739">
        <ele>123.226028</ele>
        <time>2022-12-09T17:44:40.563Z</time>
      </trkpt>
      <trkpt lat="48.38199" lon="-4.33728">
        <ele>122.744792</ele>
        <time>2022-12-09T17:44:42.563Z</time>
      </trkpt>
      <trkpt lat="48.38205" lon="-4.33716">
        <ele>122.224868</ele>
        <time>2022-12-09T17:44:44.560Z</time>
      </trkpt>
      <trkpt lat="48.38213" lon="-4.33703">
        <ele>121.633838</ele>
        <time>2022-12-09T17:44:46.564Z</time>
      </trkpt>
      <trkpt lat="48.38219" lon="-4.33689">
        <ele>121.048951</ele>
        <time>2022-12-09T17:44:48.548Z</time>
      </trkpt>
      <trkpt lat="48.38226" lon="-4.33674">
        <ele>120.461152</ele>
        <time>2022-12-09T17:44:50.548Z</time>
      </trkpt>
      <trkpt lat="48.38232" lon="-4.33659">
        <ele>119.853731</ele>
        <time>2022-12-09T17:44:52.564Z</time>
      </trkpt>
      <trkpt lat="48.38239" lon="-4.33644">
        <ele>119.234906</ele>
        <time>2022-12-09T17:44:54.566Z</time>
      </trkpt>
      <trkpt lat="48.38245" lon="-4.33628">
        <ele>118.620171</ele>
        <time>2022-12-09T17:44:56.566Z</time>
      </trkpt>
      <trkpt lat="48.3825" lon="-4.33611">
        <ele>117.983267</ele>
        <time>2022-12-09T17:44:58.567Z</time>
      </trkpt>
      <trkpt lat="48.38254" lon="-4.33594">
        <ele>117.372662</ele>
        <time>2022-12-09T17:45:00.569Z</time>
      </trkpt>
      <trkpt lat="48.38257" lon="-4.33577">
        <ele>117.130356</ele>
        <time>2022-12-09T17:45:02.564Z</time>
      </trkpt>
      <trkpt lat="48.38258" lon="-4.33561">
        <ele>116.896977</ele>
        <time>2022-12-09T17:45:04.562Z</time>
      </trkpt>
      <trkpt lat="48.3826" lon="-4.33545">
        <ele>116.656465</ele>
        <time>2022-12-09T17:45:06.569Z</time>
      </trkpt>
      <trkpt lat="48.3826" lon="-4.33528">
        <ele>116.411178</ele>
        <time>2022-12-09T17:45:08.561Z</time>
      </trkpt>
      <trkpt lat="48.3826" lon="-4.33511">
        <ele>116.165977</ele>
        <time>2022-12-09T17:45:10.548Z</time>
      </trkpt>
      <trkpt lat="48.38259" lon="-4.33494">
        <ele>115.916744</ele>
        <time>2022-12-09T17:45:12.557Z</time>
      </trkpt>
      <trkpt lat="48.38258" lon="-4.33477">
        <ele>115.683067</ele>
        <time>2022-12-09T17:45:14.547Z</time>
      </trkpt>
      <trkpt lat="48.38256" lon="-4.33462">
        <ele>115.454911</ele>
        <time>2022-12-09T17:45:16.548Z</time>
      </trkpt>
      <trkpt lat="48.38254" lon="-4.33448">
        <ele>115.249232</ele>
        <time>2022-12-09T17:45:18.552Z</time>
      </trkpt>
      <trkpt lat="48.38251" lon="-4.33434">
        <ele>115.034952</ele>
        <time>2022-12-09T17:45:20.544Z</time>
      </trkpt>
      <trkpt lat="48.38247" lon="-4.33421">
        <ele>114.831288</ele>
        <time>2022-12-09T17:45:22.546Z</time>
      </trkpt>
      <trkpt lat="48.38244" lon="-4.33408">
        <ele>114.634587</ele>
        <time>2022-12-09T17:45:24.563Z</time>
      </trkpt>
      <trkpt lat="48.3824" lon="-4.33395">
        <ele>114.431464</ele>
        <time>2022-12-09T17:45:26.568Z</time>
      </trkpt>
      <trkpt lat="48.38236" lon="-4.33382">
        <ele>114.225279</ele>
        <time>2022-12-09T17:45:28.567Z</time>
      </trkpt>
      <trkpt lat="48.38231" lon="-4.33364">
        <ele>113.938643</ele>
        <time>2022-12-09T17:45:31.564Z</time>
      </trkpt>
      <trkpt lat="48.38225" lon="-4.33346">
        <ele>113.65102</ele>
        <time>2022-12-09T17:45:34.567Z</time>
      </trkpt>
      <trkpt lat="48.3822" lon="-4.33329">
        <ele>113.318387</ele>
        <time>2022-12-09T17:45:37.566Z</time>
      </trkpt>
      <trkpt lat="48.38213" lon="-4.33311">
        <ele>112.85974</ele>
        <time>2022-12-09T17:45:40.563Z</time>
      </trkpt>
      <trkpt lat="48.38209" lon="-4.33298">
        <ele>112.542001</ele>
        <time>2022-12-09T17:45:42.565Z</time>
      </trkpt>
      <trkpt lat="48.38204" lon="-4.3328">
        <ele>112.093075</ele>
        <time>2022-12-09T17:45:45.566Z</time>
      </trkpt>
      <trkpt lat="48.382" lon="-4.33267">
        <ele>111.783158</ele>
        <time>2022-12-09T17:45:47.562Z</time>
      </trkpt>
      <trkpt lat="48.38196" lon="-4.33255">
        <ele>111.474508</ele>
        <time>2022-12-09T17:45:49.565Z</time>
      </trkpt>
      <trkpt lat="48.3819" lon="-4.33239">
        <ele>111.066318</ele>
        <time>2022-12-09T17:45:52.563Z</time>
      </trkpt>
      <trkpt lat="48.38185" lon="-4.33224">
        <ele>110.695775</ele>
        <time>2022-12-09T17:45:55.544Z</time>
      </trkpt>
      <trkpt lat="48.3818" lon="-4.3321">
        <ele>110.345214</ele>
        <time>2022-12-09T17:45:58.567Z</time>
      </trkpt>
      <trkpt lat="48.38176" lon="-4.33195">
        <ele>109.98143</ele>
        <time>2022-12-09T17:46:01.564Z</time>
      </trkpt>
      <trkpt lat="48.3817" lon="-4.33178">
        <ele>109.552489</ele>
        <time>2022-12-09T17:46:04.565Z</time>
      </trkpt>
      <trkpt lat="48.38165" lon="-4.33167">
        <ele>109.250566</ele>
        <time>2022-12-09T17:46:06.566Z</time>
      </trkpt>
      <trkpt lat="48.38159" lon="-4.33154">
        <ele>108.894858</ele>
        <time>2022-12-09T17:46:08.559Z</time>
      </trkpt>
      <trkpt lat="48.38154" lon="-4.33141">
        <ele>108.559754</ele>
        <time>2022-12-09T17:46:10.556Z</time>
      </trkpt>
      <trkpt lat="48.38148" lon="-4.33129">
        <ele>108.224465</ele>
        <time>2022-12-09T17:46:12.553Z</time>
      </trkpt>
      <trkpt lat="48.38141" lon="-4.33119">
        <ele>107.895955</ele>
        <time>2022-12-09T17:46:14.554Z</time>
      </trkpt>
      <trkpt lat="48.38134" lon="-4.33107">
        <ele>107.537863</ele>
        <time>2022-12-09T17:46:16.557Z</time>
      </trkpt>
      <trkpt lat="48.38126" lon="-4.33096">
        <ele>107.16217</ele>
        <time>2022-12-09T17:46:18.570Z</time>
      </trkpt>
      <trkpt lat="48.38119" lon="-4.33085">
        <ele>106.755582</ele>
        <time>2022-12-09T17:46:20.549Z</time>
      </trkpt>
      <trkpt lat="48.38111" lon="-4.33073">
        <ele>106.349894</ele>
        <time>2022-12-09T17:46:22.567Z</time>
      </trkpt>
      <trkpt lat="48.38104" lon="-4.33062">
        <ele>105.950474</ele>
        <time>2022-12-09T17:46:24.566Z</time>
      </trkpt>
      <trkpt lat="48.38097" lon="-4.33052">
        <ele>105.57397</ele>
        <time>2022-12-09T17:46:26.567Z</time>
      </trkpt>
      <trkpt lat="48.38089" lon="-4.33042">
        <ele>105.191839</ele>
        <time>2022-12-09T17:46:28.564Z</time>
      </trkpt>
      <trkpt lat="48.38082" lon="-4.33031">
        <ele>104.808367</ele>
        <time>2022-12-09T17:46:30.564Z</time>
      </trkpt>
      <trkpt lat="48.38076" lon="-4.3302">
        <ele>104.458994</ele>
        <time>2022-12-09T17:46:32.564Z</time>
      </trkpt>
      <trkpt lat="48.3807" lon="-4.3301">
        <ele>104.101611</ele>
        <time>2022-12-09T17:46:34.564Z</time>
      </trkpt>
      <trkpt lat="48.38063" lon="-4.33001">
        <ele>103.744823</ele>
        <time>2022-12-09T17:46:36.565Z</time>
      </trkpt>
      <trkpt lat="48.38055" lon="-4.32989">
        <ele>103.336493</ele>
        <time>2022-12-09T17:46:38.556Z</time>
      </trkpt>
      <trkpt lat="48.38047" lon="-4.32976">
        <ele>102.896473</ele>
        <time>2022-12-09T17:46:40.566Z</time>
      </trkpt>
      <trkpt lat="48.38038" lon="-4.32963">
        <ele>102.411095</ele>
        <time>2022-12-09T17:46:42.566Z</time>
      </trkpt>
      <trkpt lat="48.38029" lon="-4.32948">
        <ele>101.90053</ele>
        <time>2022-12-09T17:46:44.550Z</time>
      </trkpt>
      <trkpt lat="48.3802" lon="-4.32932">
        <ele>101.391579</ele>
        <time>2022-12-09T17:46:46.566Z</time>
      </trkpt>
      <trkpt lat="48.38012" lon="-4.32917">
        <ele>100.896692</ele>
        <time>2022-12-09T17:46:48.566Z</time>
      </trkpt>
      <trkpt lat="48.38004" lon="-4.32903">
        <ele>100.57123</ele>
        <time>2022-12-09T17:46:50.546Z</time>
      </trkpt>
      <trkpt lat="48.37996" lon="-4.32889">
        <ele>100.498578</ele>
        <time>2022-12-09T17:46:52.565Z</time>
      </trkpt>
      <trkpt lat="48.3799" lon="-4.32877">
        <ele>100.434104</ele>
        <time>2022-12-09T17:46:54.550Z</time>
      </trkpt>
      <trkpt lat="48.37983" lon="-4.32864">
        <ele>100.37112</ele>
        <time>2022-12-09T17:46:56.566Z</time>
      </trkpt>
      <trkpt lat="48.37978" lon="-4.32852">
        <ele>100.311903</ele>
        <time>2022-12-09T17:46:58.569Z</time>
      </trkpt>
      <trkpt lat="48.37973" lon="-4.32838">
        <ele>100.248805</ele>
        <time>2022-12-09T17:47:00.545Z</time>
      </trkpt>
      <trkpt lat="48.37967" lon="-4.32826">
        <ele>100.188948</ele>
        <time>2022-12-09T17:47:02.564Z</time>
      </trkpt>
      <trkpt lat="48.37962" lon="-4.32814">
        <ele>100.132775</ele>
        <time>2022-12-09T17:47:04.558Z</time>
      </trkpt>
      <trkpt lat="48.37954" lon="-4.32798">
        <ele>100.051832</ele>
        <time>2022-12-09T17:47:07.564Z</time>
      </trkpt>
      <trkpt lat="48.37947" lon="-4.32782">
        <ele>99.974576</ele>
        <time>2022-12-09T17:47:10.565Z</time>
      </trkpt>
      <trkpt lat="48.37942" lon="-4.3277">
        <ele>99.91996</ele>
        <time>2022-12-09T17:47:12.567Z</time>
      </trkpt>
      <trkpt lat="48.37937" lon="-4.32753">
        <ele>99.846065</ele>
        <time>2022-12-09T17:47:15.567Z</time>
      </trkpt>
      <trkpt lat="48.37934" lon="-4.32741">
        <ele>99.789663</ele>
        <time>2022-12-09T17:47:17.549Z</time>
      </trkpt>
      <trkpt lat="48.3793" lon="-4.32727">
        <ele>99.730412</ele>
        <time>2022-12-09T17:47:19.565Z</time>
      </trkpt>
      <trkpt lat="48.37927" lon="-4.32713">
        <ele>99.671741</ele>
        <time>2022-12-09T17:47:21.558Z</time>
      </trkpt>
      <trkpt lat="48.37923" lon="-4.32699">
        <ele>99.610935</ele>
        <time>2022-12-09T17:47:23.555Z</time>
      </trkpt>
      <trkpt lat="48.3792" lon="-4.32686">
        <ele>99.556569</ele>
        <time>2022-12-09T17:47:25.564Z</time>
      </trkpt>
      <trkpt lat="48.37917" lon="-4.32668">
        <ele>99.26031</ele>
        <time>2022-12-09T17:47:28.553Z</time>
      </trkpt>
      <trkpt lat="48.37916" lon="-4.32648">
        <ele>98.578592</ele>
        <time>2022-12-09T17:47:31.551Z</time>
      </trkpt>
      <trkpt lat="48.37914" lon="-4.32634">
        <ele>98.096545</ele>
        <time>2022-12-09T17:47:33.554Z</time>
      </trkpt>
      <trkpt lat="48.37912" lon="-4.32616">
        <ele>97.454343</ele>
        <time>2022-12-09T17:47:36.562Z</time>
      </trkpt>
      <trkpt lat="48.37911" lon="-4.32598">
        <ele>96.859856</ele>
        <time>2022-12-09T17:47:39.546Z</time>
      </trkpt>
      <trkpt lat="48.37911" lon="-4.32579">
        <ele>96.199484</ele>
        <time>2022-12-09T17:47:42.565Z</time>
      </trkpt>
      <trkpt lat="48.37912" lon="-4.32564">
        <ele>95.69783</ele>
        <time>2022-12-09T17:47:44.550Z</time>
      </trkpt>
      <trkpt lat="48.37912" lon="-4.32547">
        <ele>95.105468</ele>
        <time>2022-12-09T17:47:46.567Z</time>
      </trkpt>
      <trkpt lat="48.37912" lon="-4.32528">
        <ele>94.465457</ele>
        <time>2022-12-09T17:47:48.575Z</time>
      </trkpt>
      <trkpt lat="48.37912" lon="-4.32509">
        <ele>93.814328</ele>
        <time>2022-12-09T17:47:50.558Z</time>
      </trkpt>
      <trkpt lat="48.37913" lon="-4.3249">
        <ele>93.176485</ele>
        <time>2022-12-09T17:47:52.570Z</time>
      </trkpt>
      <trkpt lat="48.37913" lon="-4.32471">
        <ele>92.533072</ele>
        <time>2022-12-09T17:47:54.575Z</time>
      </trkpt>
      <trkpt lat="48.37913" lon="-4.32455">
        <ele>91.964417</ele>
        <time>2022-12-09T17:47:56.568Z</time>
      </trkpt>
      <trkpt lat="48.37913" lon="-4.32437">
        <ele>91.375458</ele>
        <time>2022-12-09T17:47:58.567Z</time>
      </trkpt>
      <trkpt lat="48.37914" lon="-4.32421">
        <ele>90.830452</ele>
        <time>2022-12-09T17:48:00.567Z</time>
      </trkpt>
      <trkpt lat="48.37914" lon="-4.32405">
        <ele>90.281439</ele>
        <time>2022-12-09T17:48:02.566Z</time>
      </trkpt>
      <trkpt lat="48.37914" lon="-4.32388">
        <ele>90.062255</ele>
        <time>2022-12-09T17:48:04.576Z</time>
      </trkpt>
      <trkpt lat="48.37914" lon="-4.32372">
        <ele>89.846786</ele>
        <time>2022-12-09T17:48:06.568Z</time>
      </trkpt>
      <trkpt lat="48.37914" lon="-4.32358">
        <ele>89.656927</ele>
        <time>2022-12-09T17:48:08.555Z</time>
      </trkpt>
      <trkpt lat="48.37915" lon="-4.32344">
        <ele>89.464598</ele>
        <time>2022-12-09T17:48:10.567Z</time>
      </trkpt>
      <trkpt lat="48.37914" lon="-4.3233">
        <ele>89.280457</ele>
        <time>2022-12-09T17:48:12.566Z</time>
      </trkpt>
      <trkpt lat="48.37914" lon="-4.32316">
        <ele>89.08494</ele>
        <time>2022-12-09T17:48:14.567Z</time>
      </trkpt>
      <trkpt lat="48.37913" lon="-4.32301">
        <ele>88.885898</ele>
        <time>2022-12-09T17:48:16.558Z</time>
      </trkpt>
      <trkpt lat="48.37912" lon="-4.32287">
        <ele>88.701091</ele>
        <time>2022-12-09T17:48:18.558Z</time>
      </trkpt>
      <trkpt lat="48.37911" lon="-4.32273">
        <ele>88.501909</ele>
        <time>2022-12-09T17:48:20.548Z</time>
      </trkpt>
      <trkpt lat="48.37908" lon="-4.32253">
        <ele>88.226737</ele>
        <time>2022-12-09T17:48:23.569Z</time>
      </trkpt>
      <trkpt lat="48.37906" lon="-4.32239">
        <ele>88.039948</ele>
        <time>2022-12-09T17:48:25.572Z</time>
      </trkpt>
      <trkpt lat="48.37903" lon="-4.32226">
        <ele>87.849776</ele>
        <time>2022-12-09T17:48:27.552Z</time>
      </trkpt>
      <trkpt lat="48.379" lon="-4.32211">
        <ele>87.642524</ele>
        <time>2022-12-09T17:48:29.571Z</time>
      </trkpt>
      <trkpt lat="48.37897" lon="-4.32197">
        <ele>87.448643</ele>
        <time>2022-12-09T17:48:31.564Z</time>
      </trkpt>
      <trkpt lat="48.37893" lon="-4.32183">
        <ele>87.248663</ele>
        <time>2022-12-09T17:48:33.568Z</time>
      </trkpt>
      <trkpt lat="48.37889" lon="-4.32169">
        <ele>87.042178</ele>
        <time>2022-12-09T17:48:35.569Z</time>
      </trkpt>
      <trkpt lat="48.37885" lon="-4.32156">
        <ele>86.840104</ele>
        <time>2022-12-09T17:48:37.551Z</time>
      </trkpt>
      <trkpt lat="48.37879" lon="-4.32141">
        <ele>86.663064</ele>
        <time>2022-12-09T17:48:39.575Z</time>
      </trkpt>
      <trkpt lat="48.37875" lon="-4.32127">
        <ele>86.702301</ele>
        <time>2022-12-09T17:48:41.572Z</time>
      </trkpt>
      <trkpt lat="48.37869" lon="-4.32114">
        <ele>86.742768</ele>
        <time>2022-12-09T17:48:43.567Z</time>
      </trkpt>
      <trkpt lat="48.37863" lon="-4.321">
        <ele>86.783456</ele>
        <time>2022-12-09T17:48:45.546Z</time>
      </trkpt>
      <trkpt lat="48.37857" lon="-4.32088">
        <ele>86.82038</ele>
        <time>2022-12-09T17:48:47.565Z</time>
      </trkpt>
      <trkpt lat="48.37852" lon="-4.32076">
        <ele>86.85651</ele>
        <time>2022-12-09T17:48:49.565Z</time>
      </trkpt>
      <trkpt lat="48.37847" lon="-4.32065">
        <ele>86.891446</ele>
        <time>2022-12-09T17:48:51.565Z</time>
      </trkpt>
      <trkpt lat="48.37841" lon="-4.32053">
        <ele>86.926305</ele>
        <time>2022-12-09T17:48:53.557Z</time>
      </trkpt>
      <trkpt lat="48.37834" lon="-4.32038">
        <ele>86.973863</ele>
        <time>2022-12-09T17:48:56.568Z</time>
      </trkpt>
      <trkpt lat="48.37829" lon="-4.32025">
        <ele>87.012245</ele>
        <time>2022-12-09T17:48:59.556Z</time>
      </trkpt>
      <trkpt lat="48.37823" lon="-4.32009">
        <ele>87.057465</ele>
        <time>2022-12-09T17:49:02.569Z</time>
      </trkpt>
      <trkpt lat="48.37819" lon="-4.31993">
        <ele>87.099544</ele>
        <time>2022-12-09T17:49:05.547Z</time>
      </trkpt>
      <trkpt lat="48.37815" lon="-4.31978">
        <ele>87.140076</ele>
        <time>2022-12-09T17:49:08.561Z</time>
      </trkpt>
      <trkpt lat="48.37811" lon="-4.31964">
        <ele>87.178009</ele>
        <time>2022-12-09T17:49:11.562Z</time>
      </trkpt>
      <trkpt lat="48.37808" lon="-4.31951">
        <ele>87.213538</ele>
        <time>2022-12-09T17:49:14.566Z</time>
      </trkpt>
      <trkpt lat="48.37806" lon="-4.31937">
        <ele>87.248833</ele>
        <time>2022-12-09T17:49:17.566Z</time>
      </trkpt>
      <trkpt lat="48.37804" lon="-4.31919">
        <ele>87.293364</ele>
        <time>2022-12-09T17:49:21.561Z</time>
      </trkpt>
      <trkpt lat="48.37801" lon="-4.31903">
        <ele>87.34904</ele>
        <time>2022-12-09T17:49:25.553Z</time>
      </trkpt>
      <trkpt lat="48.378" lon="-4.3189">
        <ele>87.80075</ele>
        <time>2022-12-09T17:49:29.555Z</time>
      </trkpt>
      <trkpt lat="48.37798" lon="-4.31876">
        <ele>88.249676</ele>
        <time>2022-12-09T17:49:34.555Z</time>
      </trkpt>
      <trkpt lat="48.37797" lon="-4.31861">
        <ele>88.718217</ele>
        <time>2022-12-09T17:49:39.555Z</time>
      </trkpt>
      <trkpt lat="48.37795" lon="-4.31846">
        <ele>89.22766</ele>
        <time>2022-12-09T17:49:44.569Z</time>
      </trkpt>
      <trkpt lat="48.37795" lon="-4.31831">
        <ele>89.692795</ele>
        <time>2022-12-09T17:49:49.555Z</time>
      </trkpt>
      <trkpt lat="48.37794" lon="-4.31816">
        <ele>90.169979</ele>
        <time>2022-12-09T17:49:54.570Z</time>
      </trkpt>
      <trkpt lat="48.37794" lon="-4.31801">
        <ele>90.673951</ele>
        <time>2022-12-09T17:50:00.553Z</time>
      </trkpt>
      <trkpt lat="48.37793" lon="-4.31786">
        <ele>91.133561</ele>
        <time>2022-12-09T17:50:05.553Z</time>
      </trkpt>
      <trkpt lat="48.37791" lon="-4.31771">
        <ele>91.643056</ele>
        <time>2022-12-09T17:50:11.553Z</time>
      </trkpt>
      <trkpt lat="48.37791" lon="-4.31756">
        <ele>92.130716</ele>
        <time>2022-12-09T17:50:17.543Z</time>
      </trkpt>
      <trkpt lat="48.37788" lon="-4.31741">
        <ele>92.627257</ele>
        <time>2022-12-09T17:50:23.549Z</time>
      </trkpt>
      <trkpt lat="48.37786" lon="-4.31728">
        <ele>93.062645</ele>
        <time>2022-12-09T17:50:28.558Z</time>
      </trkpt>
      <trkpt lat="48.37784" lon="-4.31712">
        <ele>93.572276</ele>
        <time>2022-12-09T17:50:34.556Z</time>
      </trkpt>
      <trkpt lat="48.37782" lon="-4.31696">
        <ele>94.085054</ele>
        <time>2022-12-09T17:50:40.566Z</time>
      </trkpt>
      <trkpt lat="48.37781" lon="-4.31683">
        <ele>94.523335</ele>
        <time>2022-12-09T17:50:45.553Z</time>
      </trkpt>
      <trkpt lat="48.3778" lon="-4.31669">
        <ele>94.960886</ele>
        <time>2022-12-09T17:50:50.555Z</time>
      </trkpt>
      <trkpt lat="48.37779" lon="-4.31655">
        <ele>95.420046</ele>
        <time>2022-12-09T17:50:56.556Z</time>
      </trkpt>
      <trkpt lat="48.37779" lon="-4.3164">
        <ele>95.891672</ele>
        <time>2022-12-09T17:51:02.556Z</time>
      </trkpt>
      <trkpt lat="48.37778" lon="-4.31625">
        <ele>96.40314</ele>
        <time>2022-12-09T17:51:08.554Z</time>
      </trkpt>
      <trkpt lat="48.37777" lon="-4.31611">
        <ele>96.910725</ele>
        <time>2022-12-09T17:51:14.546Z</time>
      </trkpt>
      <trkpt lat="48.37776" lon="-4.31596">
        <ele>97.418953</ele>
        <time>2022-12-09T17:51:20.553Z</time>
      </trkpt>
      <trkpt lat="48.37777" lon="-4.3158">
        <ele>97.970498</ele>
        <time>2022-12-09T17:51:26.550Z</time>
      </trkpt>
      <trkpt lat="48.37777" lon="-4.31565">
        <ele>98.484025</ele>
        <time>2022-12-09T17:51:32.559Z</time>
      </trkpt>
      <trkpt lat="48.37778" lon="-4.3155">
        <ele>98.990336</ele>
        <time>2022-12-09T17:51:38.550Z</time>
      </trkpt>
      <trkpt lat="48.3778" lon="-4.31536">
        <ele>99.4817</ele>
        <time>2022-12-09T17:51:44.548Z</time>
      </trkpt>
      <trkpt lat="48.37781" lon="-4.31521">
        <ele>100.031566</ele>
        <time>2022-12-09T17:51:51.550Z</time>
      </trkpt>
      <trkpt lat="48.37781" lon="-4.31506">
        <ele>100.539793</ele>
        <time>2022-12-09T17:51:57.565Z</time>
      </trkpt>
      <trkpt lat="48.37783" lon="-4.31492">
        <ele>101.030307</ele>
        <time>2022-12-09T17:52:03.556Z</time>
      </trkpt>
      <trkpt lat="48.37784" lon="-4.31477">
        <ele>101.561439</ele>
        <time>2022-12-09T17:52:09.549Z</time>
      </trkpt>
      <trkpt lat="48.37785" lon="-4.3146">
        <ele>102.117397</ele>
        <time>2022-12-09T17:52:15.549Z</time>
      </trkpt>
      <trkpt lat="48.37787" lon="-4.31447">
        <ele>102.585643</ele>
        <time>2022-12-09T17:52:20.555Z</time>
      </trkpt>
      <trkpt lat="48.37788" lon="-4.31432">
        <ele>103.095376</ele>
        <time>2022-12-09T17:52:26.556Z</time>
      </trkpt>
      <trkpt lat="48.3779" lon="-4.31418">
        <ele>103.61479</ele>
        <time>2022-12-09T17:52:32.552Z</time>
      </trkpt>
      <trkpt lat="48.37791" lon="-4.31403">
        <ele>104.133243</ele>
        <time>2022-12-09T17:52:38.546Z</time>
      </trkpt>
      <trkpt lat="48.37791" lon="-4.31388">
        <ele>104.639772</ele>
        <time>2022-12-09T17:52:44.556Z</time>
      </trkpt>
      <trkpt lat="48.3779" lon="-4.31374">
        <ele>105.125545</ele>
        <time>2022-12-09T17:52:50.549Z</time>
      </trkpt>
      <trkpt lat="48.37789" lon="-4.3136">
        <ele>105.592247</ele>
        <time>2022-12-09T17:52:55.545Z</time>
      </trkpt>
      <trkpt lat="48.37787" lon="-4.31346">
        <ele>106.015658</ele>
        <time>2022-12-09T17:53:00.554Z</time>
      </trkpt>
      <trkpt lat="48.37786" lon="-4.3133">
        <ele>106.534572</ele>
        <time>2022-12-09T17:53:06.555Z</time>
      </trkpt>
      <trkpt lat="48.37787" lon="-4.31316">
        <ele>106.970664</ele>
        <time>2022-12-09T17:53:10.551Z</time>
      </trkpt>
      <trkpt lat="48.37788" lon="-4.313">
        <ele>107.451075</ele>
        <time>2022-12-09T17:53:15.546Z</time>
      </trkpt>
      <trkpt lat="48.37787" lon="-4.31286">
        <ele>107.904114</ele>
        <time>2022-12-09T17:53:20.556Z</time>
      </trkpt>
      <trkpt lat="48.37787" lon="-4.31269">
        <ele>108.405929</ele>
        <time>2022-12-09T17:53:25.554Z</time>
      </trkpt>
      <trkpt lat="48.37786" lon="-4.31254">
        <ele>108.875468</ele>
        <time>2022-12-09T17:53:30.557Z</time>
      </trkpt>
      <trkpt lat="48.37785" lon="-4.31239">
        <ele>109.357348</ele>
        <time>2022-12-09T17:53:35.565Z</time>
      </trkpt>
      <trkpt lat="48.37785" lon="-4.31224">
        <ele>109.806426</ele>
        <time>2022-12-09T17:53:40.551Z</time>
      </trkpt>
      <trkpt lat="48.37784" lon="-4.31208">
        <ele>110.307688</ele>
        <time>2022-12-09T17:53:45.549Z</time>
      </trkpt>
      <trkpt lat="48.37783" lon="-4.31192">
        <ele>110.820404</ele>
        <time>2022-12-09T17:53:50.569Z</time>
      </trkpt>
      <trkpt lat="48.37782" lon="-4.31177">
        <ele>111.273755</ele>
        <time>2022-12-09T17:53:55.563Z</time>
      </trkpt>
      <trkpt lat="48.37783" lon="-4.31161">
        <ele>111.775018</ele>
        <time>2022-12-09T17:54:01.550Z</time>
      </trkpt>
      <trkpt lat="48.37781" lon="-4.31145">
        <ele>112.274059</ele>
        <time>2022-12-09T17:54:06.564Z</time>
      </trkpt>
      <trkpt lat="48.3778" lon="-4.31131">
        <ele>112.713231</ele>
        <time>2022-12-09T17:54:10.558Z</time>
      </trkpt>
      <trkpt lat="48.37779" lon="-4.31115">
        <ele>113.220656</ele>
        <time>2022-12-09T17:54:15.559Z</time>
      </trkpt>
      <trkpt lat="48.37776" lon="-4.31099">
        <ele>113.736824</ele>
        <time>2022-12-09T17:54:19.566Z</time>
      </trkpt>
      <trkpt lat="48.37773" lon="-4.31084">
        <ele>113.710664</ele>
        <time>2022-12-09T17:54:23.551Z</time>
      </trkpt>
      <trkpt lat="48.37769" lon="-4.31067">
        <ele>113.68213</ele>
        <time>2022-12-09T17:54:27.547Z</time>
      </trkpt>
      <trkpt lat="48.37765" lon="-4.31053">
        <ele>113.655692</ele>
        <time>2022-12-09T17:54:31.546Z</time>
      </trkpt>
      <trkpt lat="48.37761" lon="-4.3104">
        <ele>113.632182</ele>
        <time>2022-12-09T17:54:35.557Z</time>
      </trkpt>
      <trkpt lat="48.37757" lon="-4.31027">
        <ele>113.607944</ele>
        <time>2022-12-09T17:54:39.571Z</time>
      </trkpt>
      <trkpt lat="48.37753" lon="-4.31013">
        <ele>113.582491</ele>
        <time>2022-12-09T17:54:43.555Z</time>
      </trkpt>
      <trkpt lat="48.37747" lon="-4.30999">
        <ele>113.5555</ele>
        <time>2022-12-09T17:54:47.556Z</time>
      </trkpt>
      <trkpt lat="48.37741" lon="-4.30985">
        <ele>113.526417</ele>
        <time>2022-12-09T17:54:51.573Z</time>
      </trkpt>
      <trkpt lat="48.37735" lon="-4.30971">
        <ele>113.498016</ele>
        <time>2022-12-09T17:54:55.547Z</time>
      </trkpt>
      <trkpt lat="48.37729" lon="-4.30957">
        <ele>113.470882</ele>
        <time>2022-12-09T17:54:59.553Z</time>
      </trkpt>
      <trkpt lat="48.37723" lon="-4.30946">
        <ele>113.447138</ele>
        <time>2022-12-09T17:55:02.571Z</time>
      </trkpt>
      <trkpt lat="48.37717" lon="-4.30934">
        <ele>113.423021</ele>
        <time>2022-12-09T17:55:05.565Z</time>
      </trkpt>
      <trkpt lat="48.37712" lon="-4.30923">
        <ele>113.39934</ele>
        <time>2022-12-09T17:55:08.568Z</time>
      </trkpt>
      <trkpt lat="48.37705" lon="-4.3091">
        <ele>113.371743</ele>
        <time>2022-12-09T17:55:12.565Z</time>
      </trkpt>
      <trkpt lat="48.37699" lon="-4.30899">
        <ele>113.34781</ele>
        <time>2022-12-09T17:55:15.565Z</time>
      </trkpt>
      <trkpt lat="48.37693" lon="-4.30889">
        <ele>113.324676</ele>
        <time>2022-12-09T17:55:18.570Z</time>
      </trkpt>
      <trkpt lat="48.37687" lon="-4.30879">
        <ele>113.302123</ele>
        <time>2022-12-09T17:55:21.568Z</time>
      </trkpt>
      <trkpt lat="48.37681" lon="-4.30868">
        <ele>113.284852</ele>
        <time>2022-12-09T17:55:24.567Z</time>
      </trkpt>
      <trkpt lat="48.37674" lon="-4.30858">
        <ele>113.284852</ele>
        <time>2022-12-09T17:55:27.560Z</time>
      </trkpt>
      <trkpt lat="48.37668" lon="-4.30848">
        <ele>113.284852</ele>
        <time>2022-12-09T17:55:30.567Z</time>
      </trkpt>
      <trkpt lat="48.3766" lon="-4.30835">
        <ele>113.284852</ele>
        <time>2022-12-09T17:55:34.566Z</time>
      </trkpt>
      <trkpt lat="48.37653" lon="-4.30822">
        <ele>113.284852</ele>
        <time>2022-12-09T17:55:38.567Z</time>
      </trkpt>
      <trkpt lat="48.37645" lon="-4.3081">
        <ele>113.284852</ele>
        <time>2022-12-09T17:55:42.578Z</time>
      </trkpt>
      <trkpt lat="48.37637" lon="-4.30797">
        <ele>113.284852</ele>
        <time>2022-12-09T17:55:46.549Z</time>
      </trkpt>
      <trkpt lat="48.37634" lon="-4.30784">
        <ele>113.284852</ele>
        <time>2022-12-09T17:55:49.556Z</time>
      </trkpt>
      <trkpt lat="48.37632" lon="-4.3077">
        <ele>113.284852</ele>
        <time>2022-12-09T17:55:52.567Z</time>
      </trkpt>
      <trkpt lat="48.3763" lon="-4.30755">
        <ele>113.284852</ele>
        <time>2022-12-09T17:55:56.571Z</time>
      </trkpt>
      <trkpt lat="48.37625" lon="-4.30741">
        <ele>113.284852</ele>
        <time>2022-12-09T17:56:01.565Z</time>
      </trkpt>
      <trkpt lat="48.37621" lon="-4.30729">
        <ele>113.284852</ele>
        <time>2022-12-09T17:56:08.557Z</time>
      </trkpt>
      <trkpt lat="48.3762" lon="-4.30725">
        <ele>113.284852</ele>
        <time>2022-12-09T17:56:55.502Z</time>
      </trkpt>
    </trkseg>
  </trk>
  <trk>
    <name><![CDATA[Loperhet - Spezet]]></name>
    <extensions>
      <line xmlns="http://www.topografix.com/GPX/gpx_style/0/2">
        <color>ff0000</color>
        <width>4</width>
      </line>
    </extensions>
    <trkseg>
      <trkpt lat="48.37601" lon="-4.31478">
        <ele>121.9784</ele>
        <time>2022-12-10T09:26:09.451Z</time>
      </trkpt>
      <trkpt lat="48.37607" lon="-4.31457">
        <ele>121.9784</ele>
        <time>2022-12-10T09:27:26.124Z</time>
      </trkpt>
      <trkpt lat="48.37615" lon="-4.31445">
        <ele>121.9784</ele>
        <time>2022-12-10T09:27:30.134Z</time>
      </trkpt>
      <trkpt lat="48.37621" lon="-4.31433">
        <ele>121.9784</ele>
        <time>2022-12-10T09:27:33.129Z</time>
      </trkpt>
      <trkpt lat="48.37627" lon="-4.31418">
        <ele>121.9784</ele>
        <time>2022-12-10T09:27:37.137Z</time>
      </trkpt>
      <trkpt lat="48.37634" lon="-4.31404">
        <ele>121.9784</ele>
        <time>2022-12-10T09:27:41.118Z</time>
      </trkpt>
      <trkpt lat="48.37639" lon="-4.31392">
        <ele>121.9784</ele>
        <time>2022-12-10T09:27:44.131Z</time>
      </trkpt>
      <trkpt lat="48.37646" lon="-4.3138">
        <ele>121.9784</ele>
        <time>2022-12-10T09:27:47.133Z</time>
      </trkpt>
      <trkpt lat="48.37653" lon="-4.31367">
        <ele>121.967579</ele>
        <time>2022-12-10T09:27:50.118Z</time>
      </trkpt>
      <trkpt lat="48.3766" lon="-4.31354">
        <ele>121.83362</ele>
        <time>2022-12-10T09:27:53.142Z</time>
      </trkpt>
      <trkpt lat="48.37667" lon="-4.3134">
        <ele>121.700768</ele>
        <time>2022-12-10T09:27:56.119Z</time>
      </trkpt>
      <trkpt lat="48.37674" lon="-4.31327">
        <ele>121.563682</ele>
        <time>2022-12-10T09:27:59.130Z</time>
      </trkpt>
      <trkpt lat="48.3768" lon="-4.31312">
        <ele>121.419657</ele>
        <time>2022-12-10T09:28:02.130Z</time>
      </trkpt>
      <trkpt lat="48.37688" lon="-4.31296">
        <ele>121.264314</ele>
        <time>2022-12-10T09:28:05.141Z</time>
      </trkpt>
      <trkpt lat="48.37695" lon="-4.3128">
        <ele>121.112164</ele>
        <time>2022-12-10T09:28:08.128Z</time>
      </trkpt>
      <trkpt lat="48.37701" lon="-4.31267">
        <ele>120.984734</ele>
        <time>2022-12-10T09:28:11.134Z</time>
      </trkpt>
      <trkpt lat="48.37708" lon="-4.31255">
        <ele>120.856755</ele>
        <time>2022-12-10T09:28:14.145Z</time>
      </trkpt>
      <trkpt lat="48.37716" lon="-4.31239">
        <ele>120.70245</ele>
        <time>2022-12-10T09:28:17.133Z</time>
      </trkpt>
      <trkpt lat="48.37722" lon="-4.31229">
        <ele>120.590704</ele>
        <time>2022-12-10T09:28:19.137Z</time>
      </trkpt>
      <trkpt lat="48.37728" lon="-4.31217">
        <ele>120.467331</ele>
        <time>2022-12-10T09:28:21.130Z</time>
      </trkpt>
      <trkpt lat="48.37735" lon="-4.31205">
        <ele>120.345635</ele>
        <time>2022-12-10T09:28:23.119Z</time>
      </trkpt>
      <trkpt lat="48.37741" lon="-4.31194">
        <ele>120.228922</ele>
        <time>2022-12-10T09:28:25.130Z</time>
      </trkpt>
      <trkpt lat="48.37748" lon="-4.31184">
        <ele>120.110875</ele>
        <time>2022-12-10T09:28:27.115Z</time>
      </trkpt>
      <trkpt lat="48.37755" lon="-4.31174">
        <ele>119.994878</ele>
        <time>2022-12-10T09:28:29.135Z</time>
      </trkpt>
      <trkpt lat="48.37765" lon="-4.3116">
        <ele>119.835415</ele>
        <time>2022-12-10T09:28:32.136Z</time>
      </trkpt>
      <trkpt lat="48.37774" lon="-4.31147">
        <ele>119.774585</ele>
        <time>2022-12-10T09:28:35.131Z</time>
      </trkpt>
      <trkpt lat="48.37779" lon="-4.31135">
        <ele>119.732007</ele>
        <time>2022-12-10T09:28:38.121Z</time>
      </trkpt>
      <trkpt lat="48.37779" lon="-4.31121">
        <ele>119.693549</ele>
        <time>2022-12-10T09:28:41.118Z</time>
      </trkpt>
      <trkpt lat="48.37777" lon="-4.31105">
        <ele>119.648287</ele>
        <time>2022-12-10T09:28:45.133Z</time>
      </trkpt>
      <trkpt lat="48.37775" lon="-4.3109">
        <ele>119.604348</ele>
        <time>2022-12-10T09:28:48.136Z</time>
      </trkpt>
      <trkpt lat="48.37772" lon="-4.31075">
        <ele>119.558881</ele>
        <time>2022-12-10T09:28:51.127Z</time>
      </trkpt>
      <trkpt lat="48.37768" lon="-4.31059">
        <ele>119.510724</ele>
        <time>2022-12-10T09:28:54.142Z</time>
      </trkpt>
      <trkpt lat="48.37763" lon="-4.31044">
        <ele>119.464142</ele>
        <time>2022-12-10T09:28:57.136Z</time>
      </trkpt>
      <trkpt lat="48.37758" lon="-4.31028">
        <ele>119.413407</ele>
        <time>2022-12-10T09:29:00.131Z</time>
      </trkpt>
      <trkpt lat="48.37754" lon="-4.3101">
        <ele>119.361054</ele>
        <time>2022-12-10T09:29:03.130Z</time>
      </trkpt>
      <trkpt lat="48.37747" lon="-4.30995">
        <ele>119.309537</ele>
        <time>2022-12-10T09:29:06.141Z</time>
      </trkpt>
      <trkpt lat="48.3774" lon="-4.3098">
        <ele>119.257787</ele>
        <time>2022-12-10T09:29:09.127Z</time>
      </trkpt>
      <trkpt lat="48.37734" lon="-4.30963">
        <ele>119.204716</ele>
        <time>2022-12-10T09:29:12.134Z</time>
      </trkpt>
      <trkpt lat="48.37727" lon="-4.30948">
        <ele>119.15196</ele>
        <time>2022-12-10T09:29:15.135Z</time>
      </trkpt>
      <trkpt lat="48.37719" lon="-4.30933">
        <ele>119.097761</ele>
        <time>2022-12-10T09:29:18.135Z</time>
      </trkpt>
      <trkpt lat="48.37711" lon="-4.30918">
        <ele>119.06547</ele>
        <time>2022-12-10T09:29:21.144Z</time>
      </trkpt>
      <trkpt lat="48.37704" lon="-4.30905">
        <ele>119.102523</ele>
        <time>2022-12-10T09:29:24.132Z</time>
      </trkpt>
      <trkpt lat="48.37697" lon="-4.30893">
        <ele>119.134606</ele>
        <time>2022-12-10T09:29:27.142Z</time>
      </trkpt>
      <trkpt lat="48.3769" lon="-4.30882">
        <ele>119.168067</ele>
        <time>2022-12-10T09:29:30.158Z</time>
      </trkpt>
      <trkpt lat="48.37682" lon="-4.30869">
        <ele>119.204894</ele>
        <time>2022-12-10T09:29:33.115Z</time>
      </trkpt>
      <trkpt lat="48.37674" lon="-4.30854">
        <ele>119.243989</ele>
        <time>2022-12-10T09:29:36.115Z</time>
      </trkpt>
      <trkpt lat="48.37666" lon="-4.3084">
        <ele>119.283752</ele>
        <time>2022-12-10T09:29:39.136Z</time>
      </trkpt>
      <trkpt lat="48.37658" lon="-4.30826">
        <ele>119.321577</ele>
        <time>2022-12-10T09:29:42.142Z</time>
      </trkpt>
      <trkpt lat="48.37651" lon="-4.30812">
        <ele>119.358869</ele>
        <time>2022-12-10T09:29:45.141Z</time>
      </trkpt>
      <trkpt lat="48.37643" lon="-4.30799">
        <ele>119.395896</ele>
        <time>2022-12-10T09:29:48.140Z</time>
      </trkpt>
      <trkpt lat="48.37637" lon="-4.30785">
        <ele>119.433149</ele>
        <time>2022-12-10T09:29:51.134Z</time>
      </trkpt>
      <trkpt lat="48.37633" lon="-4.30769">
        <ele>119.469268</ele>
        <time>2022-12-10T09:29:54.119Z</time>
      </trkpt>
      <trkpt lat="48.3763" lon="-4.30755">
        <ele>119.49959</ele>
        <time>2022-12-10T09:29:57.116Z</time>
      </trkpt>
      <trkpt lat="48.37626" lon="-4.30739">
        <ele>119.535932</ele>
        <time>2022-12-10T09:30:01.121Z</time>
      </trkpt>
      <trkpt lat="48.37621" lon="-4.30723">
        <ele>119.572156</ele>
        <time>2022-12-10T09:30:05.143Z</time>
      </trkpt>
      <trkpt lat="48.37616" lon="-4.30712">
        <ele>119.60204</ele>
        <time>2022-12-10T09:30:18.119Z</time>
      </trkpt>
      <trkpt lat="48.37616" lon="-4.30708">
        <ele>119.609628</ele>
        <time>2022-12-10T09:30:31.047Z</time>
      </trkpt>
      <trkpt lat="48.37627" lon="-4.30722">
        <ele>119.438896</ele>
        <time>2022-12-10T09:35:20.141Z</time>
      </trkpt>
      <trkpt lat="48.37632" lon="-4.30735">
        <ele>119.250457</ele>
        <time>2022-12-10T09:35:24.142Z</time>
      </trkpt>
      <trkpt lat="48.37635" lon="-4.30751">
        <ele>119.037641</ele>
        <time>2022-12-10T09:35:30.123Z</time>
      </trkpt>
      <trkpt lat="48.37633" lon="-4.30765">
        <ele>118.844523</ele>
        <time>2022-12-10T09:35:38.124Z</time>
      </trkpt>
      <trkpt lat="48.37625" lon="-4.30773">
        <ele>118.653056</ele>
        <time>2022-12-10T09:35:45.128Z</time>
      </trkpt>
      <trkpt lat="48.37617" lon="-4.30762">
        <ele>118.44708</ele>
        <time>2022-12-10T09:35:51.127Z</time>
      </trkpt>
      <trkpt lat="48.37611" lon="-4.3075">
        <ele>118.248215</ele>
        <time>2022-12-10T09:35:54.122Z</time>
      </trkpt>
      <trkpt lat="48.37602" lon="-4.30736">
        <ele>117.984754</ele>
        <time>2022-12-10T09:35:57.125Z</time>
      </trkpt>
      <trkpt lat="48.37596" lon="-4.30725">
        <ele>117.795888</ele>
        <time>2022-12-10T09:35:59.132Z</time>
      </trkpt>
      <trkpt lat="48.3759" lon="-4.30713">
        <ele>117.60134</ele>
        <time>2022-12-10T09:36:01.141Z</time>
      </trkpt>
      <trkpt lat="48.37583" lon="-4.30699">
        <ele>117.383056</ele>
        <time>2022-12-10T09:36:03.131Z</time>
      </trkpt>
      <trkpt lat="48.37577" lon="-4.30685">
        <ele>117.16482</ele>
        <time>2022-12-10T09:36:05.144Z</time>
      </trkpt>
      <trkpt lat="48.37571" lon="-4.30671">
        <ele>116.948865</ele>
        <time>2022-12-10T09:36:07.140Z</time>
      </trkpt>
      <trkpt lat="48.37566" lon="-4.30658">
        <ele>116.740308</ele>
        <time>2022-12-10T09:36:09.139Z</time>
      </trkpt>
      <trkpt lat="48.37561" lon="-4.30645">
        <ele>116.54265</ele>
        <time>2022-12-10T09:36:11.137Z</time>
      </trkpt>
      <trkpt lat="48.37557" lon="-4.30632">
        <ele>116.359896</ele>
        <time>2022-12-10T09:36:13.144Z</time>
      </trkpt>
      <trkpt lat="48.37552" lon="-4.30615">
        <ele>116.109985</ele>
        <time>2022-12-10T09:36:16.146Z</time>
      </trkpt>
      <trkpt lat="48.37548" lon="-4.30599">
        <ele>116.012865</ele>
        <time>2022-12-10T09:36:19.146Z</time>
      </trkpt>
      <trkpt lat="48.37545" lon="-4.30585">
        <ele>115.940905</ele>
        <time>2022-12-10T09:36:22.152Z</time>
      </trkpt>
      <trkpt lat="48.37543" lon="-4.3057">
        <ele>115.86746</ele>
        <time>2022-12-10T09:36:25.141Z</time>
      </trkpt>
      <trkpt lat="48.3754" lon="-4.30554">
        <ele>115.787203</ele>
        <time>2022-12-10T09:36:28.138Z</time>
      </trkpt>
      <trkpt lat="48.37538" lon="-4.30537">
        <ele>115.703186</ele>
        <time>2022-12-10T09:36:31.132Z</time>
      </trkpt>
      <trkpt lat="48.37536" lon="-4.3052">
        <ele>115.619073</ele>
        <time>2022-12-10T09:36:34.145Z</time>
      </trkpt>
      <trkpt lat="48.37535" lon="-4.30503">
        <ele>115.53906</ele>
        <time>2022-12-10T09:36:37.146Z</time>
      </trkpt>
      <trkpt lat="48.37534" lon="-4.30487">
        <ele>115.46285</ele>
        <time>2022-12-10T09:36:40.125Z</time>
      </trkpt>
      <trkpt lat="48.37534" lon="-4.30471">
        <ele>115.384356</ele>
        <time>2022-12-10T09:36:43.137Z</time>
      </trkpt>
      <trkpt lat="48.37533" lon="-4.30454">
        <ele>115.302335</ele>
        <time>2022-12-10T09:36:46.151Z</time>
      </trkpt>
      <trkpt lat="48.37533" lon="-4.30437">
        <ele>115.222383</ele>
        <time>2022-12-10T09:36:49.140Z</time>
      </trkpt>
      <trkpt lat="48.37533" lon="-4.30421">
        <ele>115.142442</ele>
        <time>2022-12-10T09:36:52.152Z</time>
      </trkpt>
      <trkpt lat="48.37533" lon="-4.30403">
        <ele>115.055277</ele>
        <time>2022-12-10T09:36:55.142Z</time>
      </trkpt>
      <trkpt lat="48.37534" lon="-4.30383">
        <ele>114.961304</ele>
        <time>2022-12-10T09:36:58.147Z</time>
      </trkpt>
      <trkpt lat="48.37535" lon="-4.3037">
        <ele>114.895668</ele>
        <time>2022-12-10T09:37:00.150Z</time>
      </trkpt>
      <trkpt lat="48.37536" lon="-4.30356">
        <ele>114.828819</ele>
        <time>2022-12-10T09:37:02.133Z</time>
      </trkpt>
      <trkpt lat="48.37537" lon="-4.30342">
        <ele>114.63634</ele>
        <time>2022-12-10T09:37:04.148Z</time>
      </trkpt>
      <trkpt lat="48.37538" lon="-4.30327">
        <ele>114.077978</ele>
        <time>2022-12-10T09:37:06.145Z</time>
      </trkpt>
      <trkpt lat="48.3754" lon="-4.30312">
        <ele>113.514799</ele>
        <time>2022-12-10T09:37:08.142Z</time>
      </trkpt>
      <trkpt lat="48.37542" lon="-4.30298">
        <ele>112.962669</ele>
        <time>2022-12-10T09:37:10.123Z</time>
      </trkpt>
      <trkpt lat="48.37545" lon="-4.30283">
        <ele>112.387681</ele>
        <time>2022-12-10T09:37:12.146Z</time>
      </trkpt>
      <trkpt lat="48.37548" lon="-4.30269">
        <ele>111.82925</ele>
        <time>2022-12-10T09:37:14.137Z</time>
      </trkpt>
      <trkpt lat="48.37551" lon="-4.30255">
        <ele>111.269537</ele>
        <time>2022-12-10T09:37:16.138Z</time>
      </trkpt>
      <trkpt lat="48.37555" lon="-4.30243">
        <ele>110.746453</ele>
        <time>2022-12-10T09:37:18.149Z</time>
      </trkpt>
      <trkpt lat="48.37561" lon="-4.30225">
        <ele>109.993692</ele>
        <time>2022-12-10T09:37:21.126Z</time>
      </trkpt>
      <trkpt lat="48.37566" lon="-4.30211">
        <ele>109.408188</ele>
        <time>2022-12-10T09:37:23.121Z</time>
      </trkpt>
      <trkpt lat="48.37571" lon="-4.30198">
        <ele>108.844681</ele>
        <time>2022-12-10T09:37:25.146Z</time>
      </trkpt>
      <trkpt lat="48.37576" lon="-4.30186">
        <ele>108.299337</ele>
        <time>2022-12-10T09:37:27.148Z</time>
      </trkpt>
      <trkpt lat="48.37581" lon="-4.30173">
        <ele>107.718302</ele>
        <time>2022-12-10T09:37:29.146Z</time>
      </trkpt>
      <trkpt lat="48.37587" lon="-4.3016">
        <ele>107.133857</ele>
        <time>2022-12-10T09:37:31.145Z</time>
      </trkpt>
      <trkpt lat="48.37592" lon="-4.30146">
        <ele>106.537013</ele>
        <time>2022-12-10T09:37:33.154Z</time>
      </trkpt>
      <trkpt lat="48.37598" lon="-4.30133">
        <ele>105.943463</ele>
        <time>2022-12-10T09:37:35.153Z</time>
      </trkpt>
      <trkpt lat="48.37603" lon="-4.3012">
        <ele>105.377137</ele>
        <time>2022-12-10T09:37:37.151Z</time>
      </trkpt>
      <trkpt lat="48.37608" lon="-4.30107">
        <ele>104.80209</ele>
        <time>2022-12-10T09:37:39.133Z</time>
      </trkpt>
      <trkpt lat="48.37614" lon="-4.30094">
        <ele>104.285173</ele>
        <time>2022-12-10T09:37:41.145Z</time>
      </trkpt>
      <trkpt lat="48.37621" lon="-4.30082">
        <ele>103.832372</ele>
        <time>2022-12-10T09:37:43.137Z</time>
      </trkpt>
      <trkpt lat="48.37626" lon="-4.30068">
        <ele>103.355792</ele>
        <time>2022-12-10T09:37:45.130Z</time>
      </trkpt>
      <trkpt lat="48.37632" lon="-4.30053">
        <ele>102.868647</ele>
        <time>2022-12-10T09:37:47.134Z</time>
      </trkpt>
      <trkpt lat="48.37638" lon="-4.30039">
        <ele>102.353415</ele>
        <time>2022-12-10T09:37:49.143Z</time>
      </trkpt>
      <trkpt lat="48.37646" lon="-4.30024">
        <ele>101.830213</ele>
        <time>2022-12-10T09:37:51.140Z</time>
      </trkpt>
      <trkpt lat="48.37652" lon="-4.3001">
        <ele>101.3195</ele>
        <time>2022-12-10T09:37:53.147Z</time>
      </trkpt>
      <trkpt lat="48.37658" lon="-4.29996">
        <ele>100.835895</ele>
        <time>2022-12-10T09:37:55.148Z</time>
      </trkpt>
      <trkpt lat="48.37665" lon="-4.29981">
        <ele>100.323059</ele>
        <time>2022-12-10T09:37:57.133Z</time>
      </trkpt>
      <trkpt lat="48.37672" lon="-4.29966">
        <ele>99.781129</ele>
        <time>2022-12-10T09:37:59.152Z</time>
      </trkpt>
      <trkpt lat="48.37678" lon="-4.2995">
        <ele>99.236707</ele>
        <time>2022-12-10T09:38:01.133Z</time>
      </trkpt>
      <trkpt lat="48.37685" lon="-4.29934">
        <ele>98.687454</ele>
        <time>2022-12-10T09:38:03.149Z</time>
      </trkpt>
      <trkpt lat="48.37692" lon="-4.29919">
        <ele>98.160103</ele>
        <time>2022-12-10T09:38:05.129Z</time>
      </trkpt>
      <trkpt lat="48.37698" lon="-4.29904">
        <ele>97.646767</ele>
        <time>2022-12-10T09:38:07.146Z</time>
      </trkpt>
      <trkpt lat="48.37704" lon="-4.29889">
        <ele>97.126543</ele>
        <time>2022-12-10T09:38:09.148Z</time>
      </trkpt>
      <trkpt lat="48.37709" lon="-4.29874">
        <ele>96.642593</ele>
        <time>2022-12-10T09:38:11.146Z</time>
      </trkpt>
      <trkpt lat="48.37715" lon="-4.2986">
        <ele>96.303378</ele>
        <time>2022-12-10T09:38:13.155Z</time>
      </trkpt>
      <trkpt lat="48.3772" lon="-4.29847">
        <ele>95.976512</ele>
        <time>2022-12-10T09:38:15.123Z</time>
      </trkpt>
      <trkpt lat="48.37725" lon="-4.29833">
        <ele>95.655331</ele>
        <time>2022-12-10T09:38:17.133Z</time>
      </trkpt>
      <trkpt lat="48.3773" lon="-4.2982">
        <ele>95.346658</ele>
        <time>2022-12-10T09:38:19.122Z</time>
      </trkpt>
      <trkpt lat="48.37735" lon="-4.29808">
        <ele>95.042593</ele>
        <time>2022-12-10T09:38:21.146Z</time>
      </trkpt>
      <trkpt lat="48.3774" lon="-4.29795">
        <ele>94.736296</ele>
        <time>2022-12-10T09:38:23.151Z</time>
      </trkpt>
      <trkpt lat="48.37746" lon="-4.29782">
        <ele>94.399274</ele>
        <time>2022-12-10T09:38:25.149Z</time>
      </trkpt>
      <trkpt lat="48.37752" lon="-4.2977">
        <ele>94.081171</ele>
        <time>2022-12-10T09:38:27.147Z</time>
      </trkpt>
      <trkpt lat="48.37757" lon="-4.29756">
        <ele>93.761283</ele>
        <time>2022-12-10T09:38:29.148Z</time>
      </trkpt>
      <trkpt lat="48.37763" lon="-4.29743">
        <ele>93.424216</ele>
        <time>2022-12-10T09:38:31.142Z</time>
      </trkpt>
      <trkpt lat="48.3777" lon="-4.2973">
        <ele>93.080426</ele>
        <time>2022-12-10T09:38:33.121Z</time>
      </trkpt>
      <trkpt lat="48.37777" lon="-4.29717">
        <ele>92.729434</ele>
        <time>2022-12-10T09:38:35.151Z</time>
      </trkpt>
      <trkpt lat="48.37784" lon="-4.29705">
        <ele>92.389568</ele>
        <time>2022-12-10T09:38:37.133Z</time>
      </trkpt>
      <trkpt lat="48.37791" lon="-4.29691">
        <ele>92.037621</ele>
        <time>2022-12-10T09:38:39.137Z</time>
      </trkpt>
      <trkpt lat="48.37799" lon="-4.29678">
        <ele>91.672277</ele>
        <time>2022-12-10T09:38:41.142Z</time>
      </trkpt>
      <trkpt lat="48.37806" lon="-4.29665">
        <ele>91.319673</ele>
        <time>2022-12-10T09:38:43.149Z</time>
      </trkpt>
      <trkpt lat="48.37813" lon="-4.29653">
        <ele>91.009753</ele>
        <time>2022-12-10T09:38:45.149Z</time>
      </trkpt>
      <trkpt lat="48.37821" lon="-4.29642">
        <ele>90.906603</ele>
        <time>2022-12-10T09:38:47.147Z</time>
      </trkpt>
      <trkpt lat="48.37829" lon="-4.29629">
        <ele>90.803826</ele>
        <time>2022-12-10T09:38:49.146Z</time>
      </trkpt>
      <trkpt lat="48.37836" lon="-4.29618">
        <ele>90.705498</ele>
        <time>2022-12-10T09:38:51.121Z</time>
      </trkpt>
      <trkpt lat="48.37844" lon="-4.29606">
        <ele>90.601039</ele>
        <time>2022-12-10T09:38:53.143Z</time>
      </trkpt>
      <trkpt lat="48.37853" lon="-4.29594">
        <ele>90.491051</ele>
        <time>2022-12-10T09:38:55.138Z</time>
      </trkpt>
      <trkpt lat="48.37861" lon="-4.29581">
        <ele>90.380242</ele>
        <time>2022-12-10T09:38:57.121Z</time>
      </trkpt>
      <trkpt lat="48.3787" lon="-4.29569">
        <ele>90.267875</ele>
        <time>2022-12-10T09:38:59.138Z</time>
      </trkpt>
      <trkpt lat="48.37878" lon="-4.29555">
        <ele>90.15287</ele>
        <time>2022-12-10T09:39:01.130Z</time>
      </trkpt>
      <trkpt lat="48.37886" lon="-4.29541">
        <ele>90.039473</ele>
        <time>2022-12-10T09:39:03.149Z</time>
      </trkpt>
      <trkpt lat="48.37894" lon="-4.29528">
        <ele>89.925455</ele>
        <time>2022-12-10T09:39:05.139Z</time>
      </trkpt>
      <trkpt lat="48.37902" lon="-4.29514">
        <ele>89.817239</ele>
        <time>2022-12-10T09:39:07.150Z</time>
      </trkpt>
      <trkpt lat="48.37909" lon="-4.29502">
        <ele>89.715207</ele>
        <time>2022-12-10T09:39:09.131Z</time>
      </trkpt>
      <trkpt lat="48.37915" lon="-4.29491">
        <ele>89.628952</ele>
        <time>2022-12-10T09:39:11.150Z</time>
      </trkpt>
      <trkpt lat="48.37921" lon="-4.29475">
        <ele>89.515649</ele>
        <time>2022-12-10T09:39:14.147Z</time>
      </trkpt>
      <trkpt lat="48.37926" lon="-4.29461">
        <ele>89.417375</ele>
        <time>2022-12-10T09:39:17.119Z</time>
      </trkpt>
      <trkpt lat="48.37933" lon="-4.29449">
        <ele>89.405714</ele>
        <time>2022-12-10T09:39:20.141Z</time>
      </trkpt>
      <trkpt lat="48.37938" lon="-4.29436">
        <ele>89.612577</ele>
        <time>2022-12-10T09:39:23.130Z</time>
      </trkpt>
      <trkpt lat="48.37942" lon="-4.29422">
        <ele>89.810897</ele>
        <time>2022-12-10T09:39:26.139Z</time>
      </trkpt>
      <trkpt lat="48.37946" lon="-4.29409">
        <ele>90.010052</ele>
        <time>2022-12-10T09:39:29.150Z</time>
      </trkpt>
      <trkpt lat="48.3795" lon="-4.29394">
        <ele>90.213664</ele>
        <time>2022-12-10T09:39:32.149Z</time>
      </trkpt>
      <trkpt lat="48.37953" lon="-4.29379">
        <ele>90.422948</ele>
        <time>2022-12-10T09:39:35.152Z</time>
      </trkpt>
      <trkpt lat="48.37954" lon="-4.29363">
        <ele>90.645142</ele>
        <time>2022-12-10T09:39:38.117Z</time>
      </trkpt>
      <trkpt lat="48.37955" lon="-4.29345">
        <ele>90.884832</ele>
        <time>2022-12-10T09:39:41.124Z</time>
      </trkpt>
      <trkpt lat="48.37956" lon="-4.29326">
        <ele>91.13279</ele>
        <time>2022-12-10T09:39:44.138Z</time>
      </trkpt>
      <trkpt lat="48.37956" lon="-4.29306">
        <ele>91.394385</ele>
        <time>2022-12-10T09:39:47.122Z</time>
      </trkpt>
      <trkpt lat="48.37956" lon="-4.29292">
        <ele>91.579</ele>
        <time>2022-12-10T09:39:49.138Z</time>
      </trkpt>
      <trkpt lat="48.37954" lon="-4.29273">
        <ele>91.844645</ele>
        <time>2022-12-10T09:39:52.121Z</time>
      </trkpt>
      <trkpt lat="48.37951" lon="-4.29256">
        <ele>92.071508</ele>
        <time>2022-12-10T09:39:55.143Z</time>
      </trkpt>
      <trkpt lat="48.37949" lon="-4.29242">
        <ele>92.260433</ele>
        <time>2022-12-10T09:39:58.134Z</time>
      </trkpt>
      <trkpt lat="48.37946" lon="-4.29229">
        <ele>92.448882</ele>
        <time>2022-12-10T09:40:01.149Z</time>
      </trkpt>
      <trkpt lat="48.37944" lon="-4.29211">
        <ele>92.684033</ele>
        <time>2022-12-10T09:40:05.146Z</time>
      </trkpt>
      <trkpt lat="48.3794" lon="-4.29195">
        <ele>92.914673</ele>
        <time>2022-12-10T09:40:09.145Z</time>
      </trkpt>
      <trkpt lat="48.37937" lon="-4.29178">
        <ele>93.428334</ele>
        <time>2022-12-10T09:40:13.146Z</time>
      </trkpt>
      <trkpt lat="48.37933" lon="-4.29161">
        <ele>93.979092</ele>
        <time>2022-12-10T09:40:17.147Z</time>
      </trkpt>
      <trkpt lat="48.3793" lon="-4.29146">
        <ele>94.499869</ele>
        <time>2022-12-10T09:40:21.122Z</time>
      </trkpt>
      <trkpt lat="48.37927" lon="-4.29131">
        <ele>95.000873</ele>
        <time>2022-12-10T09:40:25.143Z</time>
      </trkpt>
      <trkpt lat="48.37923" lon="-4.29117">
        <ele>95.451934</ele>
        <time>2022-12-10T09:40:29.125Z</time>
      </trkpt>
      <trkpt lat="48.37917" lon="-4.29105">
        <ele>95.961254</ele>
        <time>2022-12-10T09:40:34.134Z</time>
      </trkpt>
      <trkpt lat="48.3791" lon="-4.29093">
        <ele>96.459871</ele>
        <time>2022-12-10T09:40:39.130Z</time>
      </trkpt>
      <trkpt lat="48.37904" lon="-4.29082">
        <ele>96.892937</ele>
        <time>2022-12-10T09:40:44.132Z</time>
      </trkpt>
      <trkpt lat="48.37896" lon="-4.29074">
        <ele>97.382095</ele>
        <time>2022-12-10T09:40:50.130Z</time>
      </trkpt>
      <trkpt lat="48.37886" lon="-4.29066">
        <ele>97.874314</ele>
        <time>2022-12-10T09:40:56.128Z</time>
      </trkpt>
      <trkpt lat="48.37877" lon="-4.29061">
        <ele>98.356478</ele>
        <time>2022-12-10T09:41:02.129Z</time>
      </trkpt>
      <trkpt lat="48.37868" lon="-4.2906">
        <ele>98.782034</ele>
        <time>2022-12-10T09:41:07.124Z</time>
      </trkpt>
      <trkpt lat="48.37858" lon="-4.29058">
        <ele>99.273948</ele>
        <time>2022-12-10T09:41:13.137Z</time>
      </trkpt>
      <trkpt lat="48.37848" lon="-4.2906">
        <ele>99.743805</ele>
        <time>2022-12-10T09:41:19.119Z</time>
      </trkpt>
      <trkpt lat="48.37838" lon="-4.29064">
        <ele>100.236351</ele>
        <time>2022-12-10T09:41:25.128Z</time>
      </trkpt>
      <trkpt lat="48.37828" lon="-4.29066">
        <ele>100.704183</ele>
        <time>2022-12-10T09:41:31.141Z</time>
      </trkpt>
      <trkpt lat="48.37818" lon="-4.29068">
        <ele>101.189865</ele>
        <time>2022-12-10T09:41:37.126Z</time>
      </trkpt>
      <trkpt lat="48.37808" lon="-4.29072">
        <ele>101.713571</ele>
        <time>2022-12-10T09:41:43.133Z</time>
      </trkpt>
      <trkpt lat="48.37799" lon="-4.29074">
        <ele>102.320684</ele>
        <time>2022-12-10T09:41:49.147Z</time>
      </trkpt>
      <trkpt lat="48.37789" lon="-4.29077">
        <ele>102.951581</ele>
        <time>2022-12-10T09:41:55.128Z</time>
      </trkpt>
      <trkpt lat="48.37779" lon="-4.2908">
        <ele>103.555023</ele>
        <time>2022-12-10T09:42:01.130Z</time>
      </trkpt>
      <trkpt lat="48.37769" lon="-4.29084">
        <ele>104.184954</ele>
        <time>2022-12-10T09:42:07.129Z</time>
      </trkpt>
      <trkpt lat="48.37759" lon="-4.29086">
        <ele>104.826944</ele>
        <time>2022-12-10T09:42:13.140Z</time>
      </trkpt>
      <trkpt lat="48.3775" lon="-4.29088">
        <ele>105.398947</ele>
        <time>2022-12-10T09:42:18.129Z</time>
      </trkpt>
      <trkpt lat="48.3774" lon="-4.29091">
        <ele>106.010046</ele>
        <time>2022-12-10T09:42:24.122Z</time>
      </trkpt>
      <trkpt lat="48.3773" lon="-4.29092">
        <ele>106.609542</ele>
        <time>2022-12-10T09:42:30.129Z</time>
      </trkpt>
      <trkpt lat="48.3772" lon="-4.29098">
        <ele>107.272349</ele>
        <time>2022-12-10T09:42:36.131Z</time>
      </trkpt>
      <trkpt lat="48.3771" lon="-4.29097">
        <ele>107.908622</ele>
        <time>2022-12-10T09:42:42.128Z</time>
      </trkpt>
      <trkpt lat="48.377" lon="-4.29093">
        <ele>108.532118</ele>
        <time>2022-12-10T09:42:48.125Z</time>
      </trkpt>
      <trkpt lat="48.37691" lon="-4.29086">
        <ele>109.175811</ele>
        <time>2022-12-10T09:42:54.126Z</time>
      </trkpt>
      <trkpt lat="48.37683" lon="-4.29077">
        <ele>109.797053</ele>
        <time>2022-12-10T09:43:00.126Z</time>
      </trkpt>
      <trkpt lat="48.37677" lon="-4.29065">
        <ele>110.38567</ele>
        <time>2022-12-10T09:43:06.134Z</time>
      </trkpt>
      <trkpt lat="48.37672" lon="-4.29053">
        <ele>110.969625</ele>
        <time>2022-12-10T09:43:12.125Z</time>
      </trkpt>
      <trkpt lat="48.37668" lon="-4.29038">
        <ele>111.633097</ele>
        <time>2022-12-10T09:43:19.116Z</time>
      </trkpt>
      <trkpt lat="48.37663" lon="-4.29025">
        <ele>112.278133</ele>
        <time>2022-12-10T09:43:25.130Z</time>
      </trkpt>
      <trkpt lat="48.37659" lon="-4.29012">
        <ele>112.853998</ele>
        <time>2022-12-10T09:43:31.130Z</time>
      </trkpt>
      <trkpt lat="48.37656" lon="-4.28997">
        <ele>113.484496</ele>
        <time>2022-12-10T09:43:37.129Z</time>
      </trkpt>
      <trkpt lat="48.37654" lon="-4.28982">
        <ele>114.127172</ele>
        <time>2022-12-10T09:43:43.125Z</time>
      </trkpt>
      <trkpt lat="48.37651" lon="-4.28969">
        <ele>114.693282</ele>
        <time>2022-12-10T09:43:48.149Z</time>
      </trkpt>
      <trkpt lat="48.37648" lon="-4.28956">
        <ele>115.257497</ele>
        <time>2022-12-10T09:43:53.126Z</time>
      </trkpt>
      <trkpt lat="48.37646" lon="-4.28942">
        <ele>115.830798</ele>
        <time>2022-12-10T09:43:58.126Z</time>
      </trkpt>
      <trkpt lat="48.37644" lon="-4.28927">
        <ele>116.487251</ele>
        <time>2022-12-10T09:44:04.125Z</time>
      </trkpt>
      <trkpt lat="48.37641" lon="-4.28912">
        <ele>117.115429</ele>
        <time>2022-12-10T09:44:10.130Z</time>
      </trkpt>
      <trkpt lat="48.37638" lon="-4.28897">
        <ele>117.734883</ele>
        <time>2022-12-10T09:44:16.126Z</time>
      </trkpt>
      <trkpt lat="48.37636" lon="-4.28882">
        <ele>118.361443</ele>
        <time>2022-12-10T09:44:22.130Z</time>
      </trkpt>
      <trkpt lat="48.37633" lon="-4.28868">
        <ele>118.988038</ele>
        <time>2022-12-10T09:44:28.128Z</time>
      </trkpt>
      <trkpt lat="48.37631" lon="-4.28855">
        <ele>119.550998</ele>
        <time>2022-12-10T09:44:33.131Z</time>
      </trkpt>
      <trkpt lat="48.37628" lon="-4.28839">
        <ele>120.210155</ele>
        <time>2022-12-10T09:44:39.142Z</time>
      </trkpt>
      <trkpt lat="48.37626" lon="-4.28824">
        <ele>120.866169</ele>
        <time>2022-12-10T09:44:45.137Z</time>
      </trkpt>
      <trkpt lat="48.37622" lon="-4.28809">
        <ele>121.525797</ele>
        <time>2022-12-10T09:44:51.123Z</time>
      </trkpt>
      <trkpt lat="48.37618" lon="-4.28794">
        <ele>122.183673</ele>
        <time>2022-12-10T09:44:57.130Z</time>
      </trkpt>
      <trkpt lat="48.37616" lon="-4.28778">
        <ele>122.827813</ele>
        <time>2022-12-10T09:45:03.130Z</time>
      </trkpt>
      <trkpt lat="48.37612" lon="-4.28766">
        <ele>123.391069</ele>
        <time>2022-12-10T09:45:08.130Z</time>
      </trkpt>
      <trkpt lat="48.37607" lon="-4.28752">
        <ele>123.976527</ele>
        <time>2022-12-10T09:45:14.127Z</time>
      </trkpt>
      <trkpt lat="48.37601" lon="-4.28739">
        <ele>124.490653</ele>
        <time>2022-12-10T09:45:20.136Z</time>
      </trkpt>
      <trkpt lat="48.37596" lon="-4.28728">
        <ele>124.929983</ele>
        <time>2022-12-10T09:45:25.131Z</time>
      </trkpt>
      <trkpt lat="48.37591" lon="-4.28717">
        <ele>125.36351</ele>
        <time>2022-12-10T09:45:30.122Z</time>
      </trkpt>
      <trkpt lat="48.37585" lon="-4.28706">
        <ele>125.803043</ele>
        <time>2022-12-10T09:45:35.123Z</time>
      </trkpt>
      <trkpt lat="48.37579" lon="-4.28694">
        <ele>126.273096</ele>
        <time>2022-12-10T09:45:40.145Z</time>
      </trkpt>
      <trkpt lat="48.37573" lon="-4.28682">
        <ele>126.765338</ele>
        <time>2022-12-10T09:45:45.128Z</time>
      </trkpt>
      <trkpt lat="48.37566" lon="-4.28671">
        <ele>127.251152</ele>
        <time>2022-12-10T09:45:50.146Z</time>
      </trkpt>
      <trkpt lat="48.3756" lon="-4.28661">
        <ele>127.702716</ele>
        <time>2022-12-10T09:45:55.147Z</time>
      </trkpt>
      <trkpt lat="48.37552" lon="-4.28653">
        <ele>128.163232</ele>
        <time>2022-12-10T09:46:00.145Z</time>
      </trkpt>
      <trkpt lat="48.37542" lon="-4.28646">
        <ele>128.690376</ele>
        <time>2022-12-10T09:46:06.131Z</time>
      </trkpt>
      <trkpt lat="48.37534" lon="-4.2864">
        <ele>129.141173</ele>
        <time>2022-12-10T09:46:11.128Z</time>
      </trkpt>
      <trkpt lat="48.37525" lon="-4.28634">
        <ele>129.591616</ele>
        <time>2022-12-10T09:46:16.144Z</time>
      </trkpt>
      <trkpt lat="48.37516" lon="-4.28628">
        <ele>130.059945</ele>
        <time>2022-12-10T09:46:21.123Z</time>
      </trkpt>
      <trkpt lat="48.37508" lon="-4.28622">
        <ele>130.513609</ele>
        <time>2022-12-10T09:46:26.131Z</time>
      </trkpt>
      <trkpt lat="48.375" lon="-4.28615">
        <ele>130.970891</ele>
        <time>2022-12-10T09:46:31.132Z</time>
      </trkpt>
      <trkpt lat="48.37492" lon="-4.28607">
        <ele>131.40793</ele>
        <time>2022-12-10T09:46:36.121Z</time>
      </trkpt>
      <trkpt lat="48.37484" lon="-4.28598">
        <ele>131.917747</ele>
        <time>2022-12-10T09:46:42.122Z</time>
      </trkpt>
      <trkpt lat="48.37476" lon="-4.28586">
        <ele>132.434115</ele>
        <time>2022-12-10T09:46:48.142Z</time>
      </trkpt>
      <trkpt lat="48.3747" lon="-4.28577">
        <ele>132.784512</ele>
        <time>2022-12-10T09:46:53.152Z</time>
      </trkpt>
      <trkpt lat="48.37463" lon="-4.28565">
        <ele>133.191895</ele>
        <time>2022-12-10T09:46:59.127Z</time>
      </trkpt>
      <trkpt lat="48.37456" lon="-4.28553">
        <ele>133.60548</ele>
        <time>2022-12-10T09:47:05.134Z</time>
      </trkpt>
      <trkpt lat="48.3745" lon="-4.28542">
        <ele>133.972447</ele>
        <time>2022-12-10T09:47:10.126Z</time>
      </trkpt>
      <trkpt lat="48.37444" lon="-4.28532">
        <ele>134.323957</ele>
        <time>2022-12-10T09:47:15.126Z</time>
      </trkpt>
      <trkpt lat="48.37437" lon="-4.28519">
        <ele>134.741089</ele>
        <time>2022-12-10T09:47:21.126Z</time>
      </trkpt>
      <trkpt lat="48.37429" lon="-4.28511">
        <ele>135.114136</ele>
        <time>2022-12-10T09:47:26.122Z</time>
      </trkpt>
      <trkpt lat="48.37422" lon="-4.28501">
        <ele>135.493575</ele>
        <time>2022-12-10T09:47:31.150Z</time>
      </trkpt>
      <trkpt lat="48.37414" lon="-4.28493">
        <ele>135.873068</ele>
        <time>2022-12-10T09:47:36.143Z</time>
      </trkpt>
      <trkpt lat="48.37405" lon="-4.28484">
        <ele>136.302463</ele>
        <time>2022-12-10T09:47:41.149Z</time>
      </trkpt>
      <trkpt lat="48.37396" lon="-4.28477">
        <ele>136.686485</ele>
        <time>2022-12-10T09:47:45.129Z</time>
      </trkpt>
      <trkpt lat="48.37386" lon="-4.28473">
        <ele>137.098611</ele>
        <time>2022-12-10T09:47:49.148Z</time>
      </trkpt>
      <trkpt lat="48.37374" lon="-4.28469">
        <ele>137.561629</ele>
        <time>2022-12-10T09:47:53.152Z</time>
      </trkpt>
      <trkpt lat="48.37364" lon="-4.28466">
        <ele>137.961204</ele>
        <time>2022-12-10T09:47:56.151Z</time>
      </trkpt>
      <trkpt lat="48.37353" lon="-4.28463">
        <ele>138.388944</ele>
        <time>2022-12-10T09:47:59.147Z</time>
      </trkpt>
      <trkpt lat="48.37343" lon="-4.28459">
        <ele>138.805332</ele>
        <time>2022-12-10T09:48:02.147Z</time>
      </trkpt>
      <trkpt lat="48.37332" lon="-4.28455">
        <ele>139.224279</ele>
        <time>2022-12-10T09:48:05.142Z</time>
      </trkpt>
      <trkpt lat="48.37322" lon="-4.2845">
        <ele>139.330611</ele>
        <time>2022-12-10T09:48:08.152Z</time>
      </trkpt>
      <trkpt lat="48.37312" lon="-4.28446">
        <ele>139.118156</ele>
        <time>2022-12-10T09:48:11.147Z</time>
      </trkpt>
      <trkpt lat="48.37302" lon="-4.28443">
        <ele>138.903259</ele>
        <time>2022-12-10T09:48:14.142Z</time>
      </trkpt>
      <trkpt lat="48.37291" lon="-4.28439">
        <ele>138.681579</ele>
        <time>2022-12-10T09:48:17.142Z</time>
      </trkpt>
      <trkpt lat="48.3728" lon="-4.28435">
        <ele>138.454272</ele>
        <time>2022-12-10T09:48:20.146Z</time>
      </trkpt>
      <trkpt lat="48.37269" lon="-4.2843">
        <ele>138.21564</ele>
        <time>2022-12-10T09:48:23.150Z</time>
      </trkpt>
      <trkpt lat="48.37257" lon="-4.28426">
        <ele>137.977688</ele>
        <time>2022-12-10T09:48:26.152Z</time>
      </trkpt>
      <trkpt lat="48.37245" lon="-4.2842">
        <ele>137.720951</ele>
        <time>2022-12-10T09:48:29.154Z</time>
      </trkpt>
      <trkpt lat="48.37233" lon="-4.28416">
        <ele>137.470472</ele>
        <time>2022-12-10T09:48:32.149Z</time>
      </trkpt>
      <trkpt lat="48.37222" lon="-4.28411">
        <ele>137.229234</ele>
        <time>2022-12-10T09:48:35.146Z</time>
      </trkpt>
      <trkpt lat="48.3721" lon="-4.28404">
        <ele>136.97792</ele>
        <time>2022-12-10T09:48:38.140Z</time>
      </trkpt>
      <trkpt lat="48.372" lon="-4.28394">
        <ele>136.728832</ele>
        <time>2022-12-10T09:48:41.127Z</time>
      </trkpt>
      <trkpt lat="48.37189" lon="-4.28385">
        <ele>136.484596</ele>
        <time>2022-12-10T09:48:44.150Z</time>
      </trkpt>
      <trkpt lat="48.37178" lon="-4.28375">
        <ele>136.232359</ele>
        <time>2022-12-10T09:48:47.153Z</time>
      </trkpt>
      <trkpt lat="48.37167" lon="-4.28366">
        <ele>135.972177</ele>
        <time>2022-12-10T09:48:50.152Z</time>
      </trkpt>
      <trkpt lat="48.37157" lon="-4.28354">
        <ele>135.665869</ele>
        <time>2022-12-10T09:48:53.151Z</time>
      </trkpt>
      <trkpt lat="48.37146" lon="-4.28342">
        <ele>135.272436</ele>
        <time>2022-12-10T09:48:56.149Z</time>
      </trkpt>
      <trkpt lat="48.37138" lon="-4.28335">
        <ele>135.001521</ele>
        <time>2022-12-10T09:48:58.134Z</time>
      </trkpt>
      <trkpt lat="48.37127" lon="-4.28323">
        <ele>134.604602</ele>
        <time>2022-12-10T09:49:01.125Z</time>
      </trkpt>
      <trkpt lat="48.37119" lon="-4.28316">
        <ele>134.341326</ele>
        <time>2022-12-10T09:49:03.151Z</time>
      </trkpt>
      <trkpt lat="48.37112" lon="-4.28307">
        <ele>134.072091</ele>
        <time>2022-12-10T09:49:05.146Z</time>
      </trkpt>
      <trkpt lat="48.37104" lon="-4.28299">
        <ele>133.798143</ele>
        <time>2022-12-10T09:49:07.139Z</time>
      </trkpt>
      <trkpt lat="48.37097" lon="-4.28289">
        <ele>133.517872</ele>
        <time>2022-12-10T09:49:09.149Z</time>
      </trkpt>
      <trkpt lat="48.37089" lon="-4.28278">
        <ele>133.211653</ele>
        <time>2022-12-10T09:49:11.127Z</time>
      </trkpt>
      <trkpt lat="48.37083" lon="-4.28265">
        <ele>132.904444</ele>
        <time>2022-12-10T09:49:13.134Z</time>
      </trkpt>
      <trkpt lat="48.37076" lon="-4.28252">
        <ele>132.576205</ele>
        <time>2022-12-10T09:49:15.128Z</time>
      </trkpt>
      <trkpt lat="48.37071" lon="-4.28237">
        <ele>132.261895</ele>
        <time>2022-12-10T09:49:17.149Z</time>
      </trkpt>
      <trkpt lat="48.37067" lon="-4.28224">
        <ele>131.972582</ele>
        <time>2022-12-10T09:49:19.140Z</time>
      </trkpt>
      <trkpt lat="48.37062" lon="-4.2821">
        <ele>131.681555</ele>
        <time>2022-12-10T09:49:21.151Z</time>
      </trkpt>
      <trkpt lat="48.37059" lon="-4.28196">
        <ele>131.394065</ele>
        <time>2022-12-10T09:49:23.146Z</time>
      </trkpt>
      <trkpt lat="48.37054" lon="-4.28178">
        <ele>131.004178</ele>
        <time>2022-12-10T09:49:26.151Z</time>
      </trkpt>
      <trkpt lat="48.37049" lon="-4.2816">
        <ele>130.642845</ele>
        <time>2022-12-10T09:49:29.148Z</time>
      </trkpt>
      <trkpt lat="48.37045" lon="-4.28146">
        <ele>130.586902</ele>
        <time>2022-12-10T09:49:32.144Z</time>
      </trkpt>
      <trkpt lat="48.3704" lon="-4.2813">
        <ele>130.603774</ele>
        <time>2022-12-10T09:49:36.150Z</time>
      </trkpt>
      <trkpt lat="48.37036" lon="-4.28115">
        <ele>130.618844</ele>
        <time>2022-12-10T09:49:39.151Z</time>
      </trkpt>
      <trkpt lat="48.37032" lon="-4.28099">
        <ele>130.635385</ele>
        <time>2022-12-10T09:49:42.149Z</time>
      </trkpt>
      <trkpt lat="48.37026" lon="-4.28083">
        <ele>130.653122</ele>
        <time>2022-12-10T09:49:45.147Z</time>
      </trkpt>
      <trkpt lat="48.3702" lon="-4.28067">
        <ele>130.670816</ele>
        <time>2022-12-10T09:49:48.139Z</time>
      </trkpt>
      <trkpt lat="48.37014" lon="-4.28052">
        <ele>130.68786</ele>
        <time>2022-12-10T09:49:51.149Z</time>
      </trkpt>
      <trkpt lat="48.37008" lon="-4.28037">
        <ele>130.704246</ele>
        <time>2022-12-10T09:49:54.156Z</time>
      </trkpt>
      <trkpt lat="48.37003" lon="-4.28023">
        <ele>130.72054</ele>
        <time>2022-12-10T09:49:57.133Z</time>
      </trkpt>
      <trkpt lat="48.36997" lon="-4.28009">
        <ele>130.736769</ele>
        <time>2022-12-10T09:50:00.134Z</time>
      </trkpt>
      <trkpt lat="48.36991" lon="-4.27994">
        <ele>130.753298</ele>
        <time>2022-12-10T09:50:03.149Z</time>
      </trkpt>
      <trkpt lat="48.36985" lon="-4.2798">
        <ele>130.769821</ele>
        <time>2022-12-10T09:50:06.155Z</time>
      </trkpt>
      <trkpt lat="48.36979" lon="-4.27965">
        <ele>130.786522</ele>
        <time>2022-12-10T09:50:09.150Z</time>
      </trkpt>
      <trkpt lat="48.36972" lon="-4.27951">
        <ele>130.803467</ele>
        <time>2022-12-10T09:50:12.151Z</time>
      </trkpt>
      <trkpt lat="48.36966" lon="-4.27937">
        <ele>130.819362</ele>
        <time>2022-12-10T09:50:15.153Z</time>
      </trkpt>
      <trkpt lat="48.3696" lon="-4.27925">
        <ele>130.833983</ele>
        <time>2022-12-10T09:50:18.133Z</time>
      </trkpt>
      <trkpt lat="48.36955" lon="-4.27913">
        <ele>130.641449</ele>
        <time>2022-12-10T09:50:21.153Z</time>
      </trkpt>
      <trkpt lat="48.3695" lon="-4.27901">
        <ele>130.400417</ele>
        <time>2022-12-10T09:50:24.152Z</time>
      </trkpt>
      <trkpt lat="48.36943" lon="-4.27888">
        <ele>130.136635</ele>
        <time>2022-12-10T09:50:27.151Z</time>
      </trkpt>
      <trkpt lat="48.36935" lon="-4.27876">
        <ele>129.85901</ele>
        <time>2022-12-10T09:50:30.148Z</time>
      </trkpt>
      <trkpt lat="48.36926" lon="-4.27865">
        <ele>129.563023</ele>
        <time>2022-12-10T09:50:33.153Z</time>
      </trkpt>
      <trkpt lat="48.36916" lon="-4.27854">
        <ele>129.264677</ele>
        <time>2022-12-10T09:50:36.148Z</time>
      </trkpt>
      <trkpt lat="48.36905" lon="-4.27844">
        <ele>128.94951</ele>
        <time>2022-12-10T09:50:39.142Z</time>
      </trkpt>
      <trkpt lat="48.36894" lon="-4.27837">
        <ele>128.642125</ele>
        <time>2022-12-10T09:50:42.153Z</time>
      </trkpt>
      <trkpt lat="48.36883" lon="-4.27832">
        <ele>128.342248</ele>
        <time>2022-12-10T09:50:45.141Z</time>
      </trkpt>
      <trkpt lat="48.36871" lon="-4.27829">
        <ele>128.046266</ele>
        <time>2022-12-10T09:50:48.152Z</time>
      </trkpt>
      <trkpt lat="48.3686" lon="-4.27826">
        <ele>127.76912</ele>
        <time>2022-12-10T09:50:51.144Z</time>
      </trkpt>
      <trkpt lat="48.36849" lon="-4.27825">
        <ele>127.504272</ele>
        <time>2022-12-10T09:50:54.152Z</time>
      </trkpt>
      <trkpt lat="48.36838" lon="-4.27823">
        <ele>127.234318</ele>
        <time>2022-12-10T09:50:57.154Z</time>
      </trkpt>
      <trkpt lat="48.36828" lon="-4.27821">
        <ele>126.967987</ele>
        <time>2022-12-10T09:51:00.126Z</time>
      </trkpt>
      <trkpt lat="48.36817" lon="-4.2782">
        <ele>126.688513</ele>
        <time>2022-12-10T09:51:03.146Z</time>
      </trkpt>
      <trkpt lat="48.36806" lon="-4.27817">
        <ele>126.423655</ele>
        <time>2022-12-10T09:51:06.151Z</time>
      </trkpt>
      <trkpt lat="48.36795" lon="-4.27815">
        <ele>125.895905</ele>
        <time>2022-12-10T09:51:09.149Z</time>
      </trkpt>
      <trkpt lat="48.36784" lon="-4.27814">
        <ele>125.285637</ele>
        <time>2022-12-10T09:51:12.151Z</time>
      </trkpt>
      <trkpt lat="48.36774" lon="-4.27812">
        <ele>124.720039</ele>
        <time>2022-12-10T09:51:15.148Z</time>
      </trkpt>
      <trkpt lat="48.36765" lon="-4.27811">
        <ele>124.198047</ele>
        <time>2022-12-10T09:51:18.135Z</time>
      </trkpt>
      <trkpt lat="48.36754" lon="-4.27809">
        <ele>123.623038</ele>
        <time>2022-12-10T09:51:21.146Z</time>
      </trkpt>
      <trkpt lat="48.36745" lon="-4.27806">
        <ele>123.109191</ele>
        <time>2022-12-10T09:51:24.154Z</time>
      </trkpt>
      <trkpt lat="48.36736" lon="-4.27803">
        <ele>122.605545</ele>
        <time>2022-12-10T09:51:27.152Z</time>
      </trkpt>
      <trkpt lat="48.36725" lon="-4.27799">
        <ele>121.97261</ele>
        <time>2022-12-10T09:51:30.144Z</time>
      </trkpt>
      <trkpt lat="48.36714" lon="-4.27795">
        <ele>121.336843</ele>
        <time>2022-12-10T09:51:33.155Z</time>
      </trkpt>
      <trkpt lat="48.36703" lon="-4.27787">
        <ele>120.673485</ele>
        <time>2022-12-10T09:51:36.153Z</time>
      </trkpt>
      <trkpt lat="48.36693" lon="-4.27778">
        <ele>120.009836</ele>
        <time>2022-12-10T09:51:39.129Z</time>
      </trkpt>
      <trkpt lat="48.36682" lon="-4.2777">
        <ele>119.34487</ele>
        <time>2022-12-10T09:51:42.151Z</time>
      </trkpt>
      <trkpt lat="48.36672" lon="-4.2776">
        <ele>118.681602</ele>
        <time>2022-12-10T09:51:45.152Z</time>
      </trkpt>
      <trkpt lat="48.36662" lon="-4.27752">
        <ele>118.040806</ele>
        <time>2022-12-10T09:51:48.154Z</time>
      </trkpt>
      <trkpt lat="48.36652" lon="-4.27742">
        <ele>117.384459</ele>
        <time>2022-12-10T09:51:51.151Z</time>
      </trkpt>
      <trkpt lat="48.36644" lon="-4.27734">
        <ele>116.86987</ele>
        <time>2022-12-10T09:51:53.151Z</time>
      </trkpt>
      <trkpt lat="48.36634" lon="-4.27726">
        <ele>116.234853</ele>
        <time>2022-12-10T09:51:56.192Z</time>
      </trkpt>
      <trkpt lat="48.36623" lon="-4.27717">
        <ele>115.59392</ele>
        <time>2022-12-10T09:51:59.152Z</time>
      </trkpt>
      <trkpt lat="48.36611" lon="-4.2771">
        <ele>114.923703</ele>
        <time>2022-12-10T09:52:02.123Z</time>
      </trkpt>
      <trkpt lat="48.36599" lon="-4.27705">
        <ele>114.282762</ele>
        <time>2022-12-10T09:52:05.152Z</time>
      </trkpt>
      <trkpt lat="48.36588" lon="-4.27701">
        <ele>113.650478</ele>
        <time>2022-12-10T09:52:08.141Z</time>
      </trkpt>
      <trkpt lat="48.36575" lon="-4.27699">
        <ele>112.989882</ele>
        <time>2022-12-10T09:52:11.147Z</time>
      </trkpt>
      <trkpt lat="48.36562" lon="-4.27698">
        <ele>112.323092</ele>
        <time>2022-12-10T09:52:14.148Z</time>
      </trkpt>
      <trkpt lat="48.3655" lon="-4.27698">
        <ele>111.656877</ele>
        <time>2022-12-10T09:52:17.143Z</time>
      </trkpt>
      <trkpt lat="48.36537" lon="-4.27698">
        <ele>110.969652</ele>
        <time>2022-12-10T09:52:20.150Z</time>
      </trkpt>
      <trkpt lat="48.36523" lon="-4.27698">
        <ele>110.282462</ele>
        <time>2022-12-10T09:52:23.126Z</time>
      </trkpt>
      <trkpt lat="48.3651" lon="-4.27699">
        <ele>109.573253</ele>
        <time>2022-12-10T09:52:26.148Z</time>
      </trkpt>
      <trkpt lat="48.365" lon="-4.277">
        <ele>109.064311</ele>
        <time>2022-12-10T09:52:28.149Z</time>
      </trkpt>
      <trkpt lat="48.36487" lon="-4.27699">
        <ele>108.361376</ele>
        <time>2022-12-10T09:52:31.148Z</time>
      </trkpt>
      <trkpt lat="48.36478" lon="-4.27701">
        <ele>107.871735</ele>
        <time>2022-12-10T09:52:33.150Z</time>
      </trkpt>
      <trkpt lat="48.36464" lon="-4.27702">
        <ele>107.178239</ele>
        <time>2022-12-10T09:52:36.149Z</time>
      </trkpt>
      <trkpt lat="48.36452" lon="-4.27702">
        <ele>106.561961</ele>
        <time>2022-12-10T09:52:39.139Z</time>
      </trkpt>
      <trkpt lat="48.3644" lon="-4.27702">
        <ele>105.933589</ele>
        <time>2022-12-10T09:52:42.146Z</time>
      </trkpt>
      <trkpt lat="48.36428" lon="-4.27701">
        <ele>105.320361</ele>
        <time>2022-12-10T09:52:45.141Z</time>
      </trkpt>
      <trkpt lat="48.36417" lon="-4.27699">
        <ele>104.727028</ele>
        <time>2022-12-10T09:52:48.131Z</time>
      </trkpt>
      <trkpt lat="48.36406" lon="-4.27696">
        <ele>104.177826</ele>
        <time>2022-12-10T09:52:51.145Z</time>
      </trkpt>
      <trkpt lat="48.36396" lon="-4.27692">
        <ele>103.604516</ele>
        <time>2022-12-10T09:52:54.152Z</time>
      </trkpt>
      <trkpt lat="48.36384" lon="-4.27688">
        <ele>102.980798</ele>
        <time>2022-12-10T09:52:57.133Z</time>
      </trkpt>
      <trkpt lat="48.36373" lon="-4.27684">
        <ele>102.392959</ele>
        <time>2022-12-10T09:53:00.145Z</time>
      </trkpt>
      <trkpt lat="48.36362" lon="-4.27679">
        <ele>101.826781</ele>
        <time>2022-12-10T09:53:03.157Z</time>
      </trkpt>
      <trkpt lat="48.36352" lon="-4.27674">
        <ele>101.282989</ele>
        <time>2022-12-10T09:53:06.143Z</time>
      </trkpt>
      <trkpt lat="48.36342" lon="-4.27669">
        <ele>100.727235</ele>
        <time>2022-12-10T09:53:09.154Z</time>
      </trkpt>
      <trkpt lat="48.36332" lon="-4.27664">
        <ele>100.176347</ele>
        <time>2022-12-10T09:53:12.124Z</time>
      </trkpt>
      <trkpt lat="48.36321" lon="-4.27658">
        <ele>99.586398</ele>
        <time>2022-12-10T09:53:15.149Z</time>
      </trkpt>
      <trkpt lat="48.36311" lon="-4.27653">
        <ele>99.046362</ele>
        <time>2022-12-10T09:53:18.146Z</time>
      </trkpt>
      <trkpt lat="48.36301" lon="-4.27647">
        <ele>98.481161</ele>
        <time>2022-12-10T09:53:21.155Z</time>
      </trkpt>
      <trkpt lat="48.3629" lon="-4.27643">
        <ele>97.909882</ele>
        <time>2022-12-10T09:53:24.144Z</time>
      </trkpt>
      <trkpt lat="48.36279" lon="-4.27638">
        <ele>97.193603</ele>
        <time>2022-12-10T09:53:27.151Z</time>
      </trkpt>
      <trkpt lat="48.36268" lon="-4.27633">
        <ele>96.445687</ele>
        <time>2022-12-10T09:53:30.129Z</time>
      </trkpt>
      <trkpt lat="48.36256" lon="-4.27628">
        <ele>95.661756</ele>
        <time>2022-12-10T09:53:33.155Z</time>
      </trkpt>
      <trkpt lat="48.36245" lon="-4.27625">
        <ele>94.887555</ele>
        <time>2022-12-10T09:53:36.151Z</time>
      </trkpt>
      <trkpt lat="48.36233" lon="-4.27623">
        <ele>94.100443</ele>
        <time>2022-12-10T09:53:39.148Z</time>
      </trkpt>
      <trkpt lat="48.3622" lon="-4.27621">
        <ele>93.247691</ele>
        <time>2022-12-10T09:53:42.148Z</time>
      </trkpt>
      <trkpt lat="48.36208" lon="-4.27618">
        <ele>92.48127</ele>
        <time>2022-12-10T09:53:45.140Z</time>
      </trkpt>
      <trkpt lat="48.36196" lon="-4.27615">
        <ele>91.697721</ele>
        <time>2022-12-10T09:53:48.134Z</time>
      </trkpt>
      <trkpt lat="48.36185" lon="-4.27611">
        <ele>90.917007</ele>
        <time>2022-12-10T09:53:51.147Z</time>
      </trkpt>
      <trkpt lat="48.36174" lon="-4.27604">
        <ele>90.176662</ele>
        <time>2022-12-10T09:53:54.128Z</time>
      </trkpt>
      <trkpt lat="48.36164" lon="-4.27593">
        <ele>89.376934</ele>
        <time>2022-12-10T09:53:57.135Z</time>
      </trkpt>
      <trkpt lat="48.36156" lon="-4.27581">
        <ele>88.62481</ele>
        <time>2022-12-10T09:54:00.143Z</time>
      </trkpt>
      <trkpt lat="48.36149" lon="-4.27569">
        <ele>87.93902</ele>
        <time>2022-12-10T09:54:03.150Z</time>
      </trkpt>
      <trkpt lat="48.36143" lon="-4.27556">
        <ele>87.229796</ele>
        <time>2022-12-10T09:54:06.150Z</time>
      </trkpt>
      <trkpt lat="48.36138" lon="-4.27542">
        <ele>86.515018</ele>
        <time>2022-12-10T09:54:09.127Z</time>
      </trkpt>
      <trkpt lat="48.36132" lon="-4.27528">
        <ele>85.809485</ele>
        <time>2022-12-10T09:54:12.150Z</time>
      </trkpt>
      <trkpt lat="48.36127" lon="-4.27512">
        <ele>84.962492</ele>
        <time>2022-12-10T09:54:15.148Z</time>
      </trkpt>
      <trkpt lat="48.36123" lon="-4.27497">
        <ele>84.133787</ele>
        <time>2022-12-10T09:54:18.153Z</time>
      </trkpt>
      <trkpt lat="48.36118" lon="-4.27481">
        <ele>83.307945</ele>
        <time>2022-12-10T09:54:21.132Z</time>
      </trkpt>
      <trkpt lat="48.36114" lon="-4.27466">
        <ele>82.5323</ele>
        <time>2022-12-10T09:54:24.152Z</time>
      </trkpt>
      <trkpt lat="48.36109" lon="-4.27452">
        <ele>81.750369</ele>
        <time>2022-12-10T09:54:27.150Z</time>
      </trkpt>
      <trkpt lat="48.36104" lon="-4.27437">
        <ele>80.937013</ele>
        <time>2022-12-10T09:54:30.150Z</time>
      </trkpt>
      <trkpt lat="48.361" lon="-4.27421">
        <ele>80.086</ele>
        <time>2022-12-10T09:54:33.136Z</time>
      </trkpt>
      <trkpt lat="48.36095" lon="-4.27406">
        <ele>79.280898</ele>
        <time>2022-12-10T09:54:36.152Z</time>
      </trkpt>
      <trkpt lat="48.36092" lon="-4.2739">
        <ele>78.506094</ele>
        <time>2022-12-10T09:54:39.124Z</time>
      </trkpt>
      <trkpt lat="48.36092" lon="-4.27374">
        <ele>77.705561</ele>
        <time>2022-12-10T09:54:42.130Z</time>
      </trkpt>
      <trkpt lat="48.36094" lon="-4.27358">
        <ele>76.946632</ele>
        <time>2022-12-10T09:54:45.141Z</time>
      </trkpt>
      <trkpt lat="48.36098" lon="-4.27343">
        <ele>76.185416</ele>
        <time>2022-12-10T09:54:48.152Z</time>
      </trkpt>
      <trkpt lat="48.36101" lon="-4.27328">
        <ele>75.419601</ele>
        <time>2022-12-10T09:54:51.128Z</time>
      </trkpt>
      <trkpt lat="48.36105" lon="-4.27314">
        <ele>74.679373</ele>
        <time>2022-12-10T09:54:54.127Z</time>
      </trkpt>
      <trkpt lat="48.36109" lon="-4.27301">
        <ele>73.952547</ele>
        <time>2022-12-10T09:54:57.149Z</time>
      </trkpt>
      <trkpt lat="48.36112" lon="-4.27287">
        <ele>73.248288</ele>
        <time>2022-12-10T09:55:00.139Z</time>
      </trkpt>
      <trkpt lat="48.36114" lon="-4.27271">
        <ele>72.715863</ele>
        <time>2022-12-10T09:55:03.126Z</time>
      </trkpt>
      <trkpt lat="48.36116" lon="-4.27256">
        <ele>72.43792</ele>
        <time>2022-12-10T09:55:06.146Z</time>
      </trkpt>
      <trkpt lat="48.36117" lon="-4.2724">
        <ele>72.139107</ele>
        <time>2022-12-10T09:55:09.153Z</time>
      </trkpt>
      <trkpt lat="48.36117" lon="-4.27221">
        <ele>71.800341</ele>
        <time>2022-12-10T09:55:12.127Z</time>
      </trkpt>
      <trkpt lat="48.36117" lon="-4.27202">
        <ele>71.468684</ele>
        <time>2022-12-10T09:55:15.146Z</time>
      </trkpt>
      <trkpt lat="48.36117" lon="-4.27184">
        <ele>71.137115</ele>
        <time>2022-12-10T09:55:18.151Z</time>
      </trkpt>
      <trkpt lat="48.36116" lon="-4.27165">
        <ele>70.784889</ele>
        <time>2022-12-10T09:55:21.148Z</time>
      </trkpt>
      <trkpt lat="48.36116" lon="-4.2715">
        <ele>70.530583</ele>
        <time>2022-12-10T09:55:23.135Z</time>
      </trkpt>
      <trkpt lat="48.36114" lon="-4.27136">
        <ele>70.26299</ele>
        <time>2022-12-10T09:55:25.150Z</time>
      </trkpt>
      <trkpt lat="48.36113" lon="-4.27121">
        <ele>69.99678</ele>
        <time>2022-12-10T09:55:27.149Z</time>
      </trkpt>
      <trkpt lat="48.36112" lon="-4.27106">
        <ele>69.729558</ele>
        <time>2022-12-10T09:55:29.138Z</time>
      </trkpt>
      <trkpt lat="48.3611" lon="-4.27092">
        <ele>69.471264</ele>
        <time>2022-12-10T09:55:31.150Z</time>
      </trkpt>
      <trkpt lat="48.36109" lon="-4.27078">
        <ele>69.212432</ele>
        <time>2022-12-10T09:55:33.153Z</time>
      </trkpt>
      <trkpt lat="48.36108" lon="-4.27058">
        <ele>68.857993</ele>
        <time>2022-12-10T09:55:36.129Z</time>
      </trkpt>
      <trkpt lat="48.36107" lon="-4.27042">
        <ele>68.557875</ele>
        <time>2022-12-10T09:55:39.141Z</time>
      </trkpt>
      <trkpt lat="48.36107" lon="-4.27027">
        <ele>68.285768</ele>
        <time>2022-12-10T09:55:42.145Z</time>
      </trkpt>
      <trkpt lat="48.36108" lon="-4.27012">
        <ele>68.020535</ele>
        <time>2022-12-10T09:55:45.151Z</time>
      </trkpt>
      <trkpt lat="48.36109" lon="-4.26998">
        <ele>68.059307</ele>
        <time>2022-12-10T09:55:48.144Z</time>
      </trkpt>
      <trkpt lat="48.36112" lon="-4.26985">
        <ele>68.157665</ele>
        <time>2022-12-10T09:55:51.138Z</time>
      </trkpt>
      <trkpt lat="48.36115" lon="-4.26969">
        <ele>68.281935</ele>
        <time>2022-12-10T09:55:55.128Z</time>
      </trkpt>
      <trkpt lat="48.36119" lon="-4.26953">
        <ele>68.402124</ele>
        <time>2022-12-10T09:55:59.130Z</time>
      </trkpt>
      <trkpt lat="48.36123" lon="-4.26937">
        <ele>68.526058</ele>
        <time>2022-12-10T09:56:03.146Z</time>
      </trkpt>
      <trkpt lat="48.36127" lon="-4.26921">
        <ele>68.648004</ele>
        <time>2022-12-10T09:56:07.153Z</time>
      </trkpt>
      <trkpt lat="48.3613" lon="-4.26905">
        <ele>68.768871</ele>
        <time>2022-12-10T09:56:11.131Z</time>
      </trkpt>
      <trkpt lat="48.36132" lon="-4.26889">
        <ele>68.88713</ele>
        <time>2022-12-10T09:56:15.154Z</time>
      </trkpt>
      <trkpt lat="48.36134" lon="-4.26873">
        <ele>69.003743</ele>
        <time>2022-12-10T09:56:19.120Z</time>
      </trkpt>
      <trkpt lat="48.36137" lon="-4.26857">
        <ele>69.122229</ele>
        <time>2022-12-10T09:56:23.124Z</time>
      </trkpt>
      <trkpt lat="48.36139" lon="-4.26841">
        <ele>69.238986</ele>
        <time>2022-12-10T09:56:27.135Z</time>
      </trkpt>
      <trkpt lat="48.36141" lon="-4.26824">
        <ele>69.361981</ele>
        <time>2022-12-10T09:56:31.132Z</time>
      </trkpt>
      <trkpt lat="48.36142" lon="-4.26806">
        <ele>69.488935</ele>
        <time>2022-12-10T09:56:35.144Z</time>
      </trkpt>
      <trkpt lat="48.36144" lon="-4.26792">
        <ele>69.591263</ele>
        <time>2022-12-10T09:56:38.151Z</time>
      </trkpt>
      <trkpt lat="48.36146" lon="-4.26778">
        <ele>69.697909</ele>
        <time>2022-12-10T09:56:41.143Z</time>
      </trkpt>
      <trkpt lat="48.36148" lon="-4.26762">
        <ele>69.814285</ele>
        <time>2022-12-10T09:56:44.148Z</time>
      </trkpt>
      <trkpt lat="48.3615" lon="-4.26745">
        <ele>69.879348</ele>
        <time>2022-12-10T09:56:47.138Z</time>
      </trkpt>
      <trkpt lat="48.36152" lon="-4.26728">
        <ele>69.462526</ele>
        <time>2022-12-10T09:56:50.130Z</time>
      </trkpt>
      <trkpt lat="48.36153" lon="-4.2671">
        <ele>69.043213</ele>
        <time>2022-12-10T09:56:53.145Z</time>
      </trkpt>
      <trkpt lat="48.36153" lon="-4.26691">
        <ele>68.584937</ele>
        <time>2022-12-10T09:56:56.131Z</time>
      </trkpt>
      <trkpt lat="48.36149" lon="-4.26672">
        <ele>68.117582</ele>
        <time>2022-12-10T09:56:59.130Z</time>
      </trkpt>
      <trkpt lat="48.36143" lon="-4.26654">
        <ele>67.649836</ele>
        <time>2022-12-10T09:57:02.127Z</time>
      </trkpt>
      <trkpt lat="48.36136" lon="-4.26644">
        <ele>67.317928</ele>
        <time>2022-12-10T09:57:04.141Z</time>
      </trkpt>
      <trkpt lat="48.36127" lon="-4.26632">
        <ele>66.860027</ele>
        <time>2022-12-10T09:57:07.139Z</time>
      </trkpt>
      <trkpt lat="48.36117" lon="-4.26622">
        <ele>66.448439</ele>
        <time>2022-12-10T09:57:10.149Z</time>
      </trkpt>
      <trkpt lat="48.36106" lon="-4.26614">
        <ele>66.021744</ele>
        <time>2022-12-10T09:57:13.131Z</time>
      </trkpt>
      <trkpt lat="48.36095" lon="-4.26604">
        <ele>65.571263</ele>
        <time>2022-12-10T09:57:16.153Z</time>
      </trkpt>
      <trkpt lat="48.36085" lon="-4.26594">
        <ele>65.140076</ele>
        <time>2022-12-10T09:57:19.150Z</time>
      </trkpt>
      <trkpt lat="48.36076" lon="-4.26584">
        <ele>64.746626</ele>
        <time>2022-12-10T09:57:22.149Z</time>
      </trkpt>
      <trkpt lat="48.36068" lon="-4.26575">
        <ele>64.369043</ele>
        <time>2022-12-10T09:57:25.149Z</time>
      </trkpt>
      <trkpt lat="48.36061" lon="-4.26564">
        <ele>64.018705</ele>
        <time>2022-12-10T09:57:28.139Z</time>
      </trkpt>
      <trkpt lat="48.36055" lon="-4.26553">
        <ele>63.691854</ele>
        <time>2022-12-10T09:57:31.138Z</time>
      </trkpt>
      <trkpt lat="48.36051" lon="-4.26538">
        <ele>63.311557</ele>
        <time>2022-12-10T09:57:35.123Z</time>
      </trkpt>
      <trkpt lat="48.36047" lon="-4.26521">
        <ele>62.909922</ele>
        <time>2022-12-10T09:57:39.141Z</time>
      </trkpt>
      <trkpt lat="48.36048" lon="-4.26508">
        <ele>62.590464</ele>
        <time>2022-12-10T09:57:42.132Z</time>
      </trkpt>
      <trkpt lat="48.3605" lon="-4.26493">
        <ele>62.234208</ele>
        <time>2022-12-10T09:57:45.128Z</time>
      </trkpt>
      <trkpt lat="48.36055" lon="-4.26478">
        <ele>61.852646</ele>
        <time>2022-12-10T09:57:48.125Z</time>
      </trkpt>
      <trkpt lat="48.3606" lon="-4.26463">
        <ele>61.460187</ele>
        <time>2022-12-10T09:57:51.149Z</time>
      </trkpt>
      <trkpt lat="48.36066" lon="-4.26447">
        <ele>61.052922</ele>
        <time>2022-12-10T09:57:54.151Z</time>
      </trkpt>
      <trkpt lat="48.3607" lon="-4.2643">
        <ele>60.635341</ele>
        <time>2022-12-10T09:57:57.129Z</time>
      </trkpt>
      <trkpt lat="48.36075" lon="-4.26414">
        <ele>60.228361</ele>
        <time>2022-12-10T09:58:00.147Z</time>
      </trkpt>
      <trkpt lat="48.36079" lon="-4.26398">
        <ele>59.836138</ele>
        <time>2022-12-10T09:58:03.150Z</time>
      </trkpt>
      <trkpt lat="48.36085" lon="-4.2638">
        <ele>59.382045</ele>
        <time>2022-12-10T09:58:06.152Z</time>
      </trkpt>
      <trkpt lat="48.3609" lon="-4.26363">
        <ele>58.946381</ele>
        <time>2022-12-10T09:58:09.139Z</time>
      </trkpt>
      <trkpt lat="48.36096" lon="-4.26349">
        <ele>58.580639</ele>
        <time>2022-12-10T09:58:12.152Z</time>
      </trkpt>
      <trkpt lat="48.36103" lon="-4.26335">
        <ele>58.177985</ele>
        <time>2022-12-10T09:58:15.131Z</time>
      </trkpt>
      <trkpt lat="48.3611" lon="-4.2632">
        <ele>57.754589</ele>
        <time>2022-12-10T09:58:18.149Z</time>
      </trkpt>
      <trkpt lat="48.36115" lon="-4.26304">
        <ele>57.340652</ele>
        <time>2022-12-10T09:58:21.136Z</time>
      </trkpt>
      <trkpt lat="48.36118" lon="-4.26287">
        <ele>57.249014</ele>
        <time>2022-12-10T09:58:24.144Z</time>
      </trkpt>
      <trkpt lat="48.36123" lon="-4.26269">
        <ele>57.174995</ele>
        <time>2022-12-10T09:58:27.151Z</time>
      </trkpt>
      <trkpt lat="48.36127" lon="-4.2625">
        <ele>57.101561</ele>
        <time>2022-12-10T09:58:30.158Z</time>
      </trkpt>
      <trkpt lat="48.36131" lon="-4.26233">
        <ele>57.031683</ele>
        <time>2022-12-10T09:58:33.149Z</time>
      </trkpt>
      <trkpt lat="48.36135" lon="-4.26216">
        <ele>56.962054</ele>
        <time>2022-12-10T09:58:36.151Z</time>
      </trkpt>
      <trkpt lat="48.36139" lon="-4.26199">
        <ele>56.892946</ele>
        <time>2022-12-10T09:58:39.154Z</time>
      </trkpt>
      <trkpt lat="48.36144" lon="-4.26184">
        <ele>56.827411</ele>
        <time>2022-12-10T09:58:42.150Z</time>
      </trkpt>
      <trkpt lat="48.36147" lon="-4.26169">
        <ele>56.767071</ele>
        <time>2022-12-10T09:58:45.135Z</time>
      </trkpt>
      <trkpt lat="48.3615" lon="-4.26155">
        <ele>56.713458</ele>
        <time>2022-12-10T09:58:48.143Z</time>
      </trkpt>
      <trkpt lat="48.36153" lon="-4.26142">
        <ele>56.661472</ele>
        <time>2022-12-10T09:58:51.130Z</time>
      </trkpt>
      <trkpt lat="48.36157" lon="-4.26128">
        <ele>56.601772</ele>
        <time>2022-12-10T09:58:54.153Z</time>
      </trkpt>
      <trkpt lat="48.3616" lon="-4.26114">
        <ele>56.544989</ele>
        <time>2022-12-10T09:58:57.154Z</time>
      </trkpt>
      <trkpt lat="48.36163" lon="-4.26098">
        <ele>56.481523</ele>
        <time>2022-12-10T09:59:01.150Z</time>
      </trkpt>
      <trkpt lat="48.36166" lon="-4.26082">
        <ele>56.416438</ele>
        <time>2022-12-10T09:59:05.134Z</time>
      </trkpt>
      <trkpt lat="48.36167" lon="-4.26065">
        <ele>56.353792</ele>
        <time>2022-12-10T09:59:09.125Z</time>
      </trkpt>
      <trkpt lat="48.36164" lon="-4.2605">
        <ele>56.292835</ele>
        <time>2022-12-10T09:59:13.155Z</time>
      </trkpt>
      <trkpt lat="48.36161" lon="-4.26034">
        <ele>56.373984</ele>
        <time>2022-12-10T09:59:17.155Z</time>
      </trkpt>
      <trkpt lat="48.36156" lon="-4.26019">
        <ele>56.512459</ele>
        <time>2022-12-10T09:59:21.128Z</time>
      </trkpt>
      <trkpt lat="48.36153" lon="-4.26004">
        <ele>56.635958</ele>
        <time>2022-12-10T09:59:25.139Z</time>
      </trkpt>
      <trkpt lat="48.36151" lon="-4.2599">
        <ele>56.753073</ele>
        <time>2022-12-10T09:59:30.148Z</time>
      </trkpt>
      <trkpt lat="48.3615" lon="-4.25976">
        <ele>56.862403</ele>
        <time>2022-12-10T09:59:43.134Z</time>
      </trkpt>
      <trkpt lat="48.36136" lon="-4.25971">
        <ele>57.037749</ele>
        <time>2022-12-10T10:00:06.133Z</time>
      </trkpt>
      <trkpt lat="48.36127" lon="-4.25971">
        <ele>57.14629</ele>
        <time>2022-12-10T10:00:09.146Z</time>
      </trkpt>
      <trkpt lat="48.36117" lon="-4.25972">
        <ele>57.265872</ele>
        <time>2022-12-10T10:00:12.148Z</time>
      </trkpt>
      <trkpt lat="48.36107" lon="-4.25974">
        <ele>57.391786</ele>
        <time>2022-12-10T10:00:15.132Z</time>
      </trkpt>
      <trkpt lat="48.36096" lon="-4.25974">
        <ele>57.520781</ele>
        <time>2022-12-10T10:00:18.134Z</time>
      </trkpt>
      <trkpt lat="48.36085" lon="-4.25975">
        <ele>57.652344</ele>
        <time>2022-12-10T10:00:21.148Z</time>
      </trkpt>
      <trkpt lat="48.36075" lon="-4.25976">
        <ele>57.780216</ele>
        <time>2022-12-10T10:00:24.154Z</time>
      </trkpt>
      <trkpt lat="48.36064" lon="-4.25977">
        <ele>57.909591</ele>
        <time>2022-12-10T10:00:27.154Z</time>
      </trkpt>
      <trkpt lat="48.36053" lon="-4.25978">
        <ele>58.04228</ele>
        <time>2022-12-10T10:00:30.154Z</time>
      </trkpt>
      <trkpt lat="48.36041" lon="-4.25979">
        <ele>58.182412</ele>
        <time>2022-12-10T10:00:33.154Z</time>
      </trkpt>
      <trkpt lat="48.3603" lon="-4.25981">
        <ele>58.320557</ele>
        <time>2022-12-10T10:00:36.145Z</time>
      </trkpt>
      <trkpt lat="48.36018" lon="-4.25982">
        <ele>58.429353</ele>
        <time>2022-12-10T10:00:39.150Z</time>
      </trkpt>
      <trkpt lat="48.36007" lon="-4.25983">
        <ele>58.346084</ele>
        <time>2022-12-10T10:00:42.136Z</time>
      </trkpt>
      <trkpt lat="48.35997" lon="-4.25983">
        <ele>58.267587</ele>
        <time>2022-12-10T10:00:45.132Z</time>
      </trkpt>
      <trkpt lat="48.35987" lon="-4.25984">
        <ele>58.184841</ele>
        <time>2022-12-10T10:00:48.155Z</time>
      </trkpt>
      <trkpt lat="48.35977" lon="-4.25984">
        <ele>58.107885</ele>
        <time>2022-12-10T10:00:51.152Z</time>
      </trkpt>
      <trkpt lat="48.35967" lon="-4.25986">
        <ele>58.028149</ele>
        <time>2022-12-10T10:00:54.150Z</time>
      </trkpt>
      <trkpt lat="48.35957" lon="-4.25987">
        <ele>57.946343</ele>
        <time>2022-12-10T10:00:57.154Z</time>
      </trkpt>
      <trkpt lat="48.35947" lon="-4.25986">
        <ele>57.865383</ele>
        <time>2022-12-10T10:01:00.148Z</time>
      </trkpt>
      <trkpt lat="48.35939" lon="-4.25979">
        <ele>57.792154</ele>
        <time>2022-12-10T10:01:03.130Z</time>
      </trkpt>
      <trkpt lat="48.35936" lon="-4.25966">
        <ele>57.718156</ele>
        <time>2022-12-10T10:01:06.138Z</time>
      </trkpt>
      <trkpt lat="48.35935" lon="-4.25949">
        <ele>57.629557</ele>
        <time>2022-12-10T10:01:09.130Z</time>
      </trkpt>
      <trkpt lat="48.35933" lon="-4.25932">
        <ele>57.537478</ele>
        <time>2022-12-10T10:01:12.127Z</time>
      </trkpt>
      <trkpt lat="48.3593" lon="-4.25916">
        <ele>57.450398</ele>
        <time>2022-12-10T10:01:15.133Z</time>
      </trkpt>
      <trkpt lat="48.35927" lon="-4.259">
        <ele>57.361288</ele>
        <time>2022-12-10T10:01:18.138Z</time>
      </trkpt>
      <trkpt lat="48.35925" lon="-4.25885">
        <ele>57.281387</ele>
        <time>2022-12-10T10:01:21.135Z</time>
      </trkpt>
      <trkpt lat="48.3592" lon="-4.25869">
        <ele>57.189056</ele>
        <time>2022-12-10T10:01:25.130Z</time>
      </trkpt>
      <trkpt lat="48.35911" lon="-4.25863">
        <ele>57.10789</ele>
        <time>2022-12-10T10:01:29.153Z</time>
      </trkpt>
      <trkpt lat="48.35899" lon="-4.25865">
        <ele>57.019385</ele>
        <time>2022-12-10T10:01:33.139Z</time>
      </trkpt>
      <trkpt lat="48.35888" lon="-4.25865">
        <ele>57.12294</ele>
        <time>2022-12-10T10:01:37.148Z</time>
      </trkpt>
      <trkpt lat="48.35879" lon="-4.25861">
        <ele>57.201884</ele>
        <time>2022-12-10T10:01:40.132Z</time>
      </trkpt>
      <trkpt lat="48.35873" lon="-4.25846">
        <ele>57.29816</ele>
        <time>2022-12-10T10:01:44.155Z</time>
      </trkpt>
      <trkpt lat="48.35869" lon="-4.25834">
        <ele>57.377584</ele>
        <time>2022-12-10T10:01:47.136Z</time>
      </trkpt>
      <trkpt lat="48.35867" lon="-4.25821">
        <ele>57.456025</ele>
        <time>2022-12-10T10:01:50.145Z</time>
      </trkpt>
      <trkpt lat="48.35864" lon="-4.25806">
        <ele>57.545534</ele>
        <time>2022-12-10T10:01:55.132Z</time>
      </trkpt>
      <trkpt lat="48.35868" lon="-4.25804">
        <ele>57.575509</ele>
        <time>2022-12-10T10:02:10.328Z</time>
      </trkpt>
      <trkpt lat="48.3588" lon="-4.25797">
        <ele>57.686892</ele>
        <time>2022-12-10T10:12:17.138Z</time>
      </trkpt>
      <trkpt lat="48.35895" lon="-4.25783">
        <ele>57.844879</ele>
        <time>2022-12-10T10:12:44.144Z</time>
      </trkpt>
      <trkpt lat="48.35904" lon="-4.2579">
        <ele>57.928049</ele>
        <time>2022-12-10T10:12:52.142Z</time>
      </trkpt>
      <trkpt lat="48.35907" lon="-4.25805">
        <ele>58.021278</ele>
        <time>2022-12-10T10:12:56.141Z</time>
      </trkpt>
      <trkpt lat="48.35911" lon="-4.2582">
        <ele>58.117793</ele>
        <time>2022-12-10T10:13:00.135Z</time>
      </trkpt>
      <trkpt lat="48.35916" lon="-4.25837">
        <ele>58.220423</ele>
        <time>2022-12-10T10:13:04.150Z</time>
      </trkpt>
      <trkpt lat="48.35919" lon="-4.25851">
        <ele>58.306546</ele>
        <time>2022-12-10T10:13:07.134Z</time>
      </trkpt>
      <trkpt lat="48.35923" lon="-4.25865">
        <ele>58.394674</ele>
        <time>2022-12-10T10:13:10.131Z</time>
      </trkpt>
      <trkpt lat="48.35926" lon="-4.25879">
        <ele>58.479702</ele>
        <time>2022-12-10T10:13:13.149Z</time>
      </trkpt>
      <trkpt lat="48.35929" lon="-4.25893">
        <ele>58.565243</ele>
        <time>2022-12-10T10:13:16.154Z</time>
      </trkpt>
      <trkpt lat="48.35931" lon="-4.25907">
        <ele>58.758114</ele>
        <time>2022-12-10T10:13:19.138Z</time>
      </trkpt>
      <trkpt lat="48.35935" lon="-4.25924">
        <ele>59.041824</ele>
        <time>2022-12-10T10:13:23.153Z</time>
      </trkpt>
      <trkpt lat="48.35938" lon="-4.2594">
        <ele>59.312617</ele>
        <time>2022-12-10T10:13:27.150Z</time>
      </trkpt>
      <trkpt lat="48.35942" lon="-4.25955">
        <ele>59.581262</ele>
        <time>2022-12-10T10:13:31.134Z</time>
      </trkpt>
      <trkpt lat="48.35941" lon="-4.25977">
        <ele>59.93148</ele>
        <time>2022-12-10T10:13:59.144Z</time>
      </trkpt>
      <trkpt lat="48.3593" lon="-4.2598">
        <ele>60.186702</ele>
        <time>2022-12-10T10:14:05.132Z</time>
      </trkpt>
      <trkpt lat="48.35921" lon="-4.25982">
        <ele>60.421735</ele>
        <time>2022-12-10T10:14:11.139Z</time>
      </trkpt>
      <trkpt lat="48.35906" lon="-4.25983">
        <ele>60.775897</ele>
        <time>2022-12-10T10:14:36.136Z</time>
      </trkpt>
      <trkpt lat="48.35897" lon="-4.25984">
        <ele>61.009067</ele>
        <time>2022-12-10T10:14:40.131Z</time>
      </trkpt>
      <trkpt lat="48.35886" lon="-4.25982">
        <ele>61.26712</ele>
        <time>2022-12-10T10:14:45.149Z</time>
      </trkpt>
      <trkpt lat="48.35875" lon="-4.2598">
        <ele>61.52997</ele>
        <time>2022-12-10T10:14:50.164Z</time>
      </trkpt>
      <trkpt lat="48.35865" lon="-4.25976">
        <ele>61.784045</ele>
        <time>2022-12-10T10:14:55.147Z</time>
      </trkpt>
      <trkpt lat="48.35855" lon="-4.25972">
        <ele>62.029878</ele>
        <time>2022-12-10T10:15:00.129Z</time>
      </trkpt>
      <trkpt lat="48.35846" lon="-4.2597">
        <ele>62.268541</ele>
        <time>2022-12-10T10:15:05.153Z</time>
      </trkpt>
      <trkpt lat="48.35836" lon="-4.25965">
        <ele>62.51888</ele>
        <time>2022-12-10T10:15:10.145Z</time>
      </trkpt>
      <trkpt lat="48.35826" lon="-4.25961">
        <ele>62.752032</ele>
        <time>2022-12-10T10:15:15.151Z</time>
      </trkpt>
      <trkpt lat="48.35816" lon="-4.25957">
        <ele>63.085992</ele>
        <time>2022-12-10T10:15:21.125Z</time>
      </trkpt>
      <trkpt lat="48.35808" lon="-4.25951">
        <ele>63.612137</ele>
        <time>2022-12-10T10:15:27.153Z</time>
      </trkpt>
      <trkpt lat="48.35798" lon="-4.25943">
        <ele>64.222581</ele>
        <time>2022-12-10T10:15:33.145Z</time>
      </trkpt>
      <trkpt lat="48.35789" lon="-4.25935">
        <ele>64.841564</ele>
        <time>2022-12-10T10:15:39.143Z</time>
      </trkpt>
      <trkpt lat="48.35779" lon="-4.25927">
        <ele>65.446292</ele>
        <time>2022-12-10T10:15:45.143Z</time>
      </trkpt>
      <trkpt lat="48.3577" lon="-4.25919">
        <ele>66.023977</ele>
        <time>2022-12-10T10:15:50.151Z</time>
      </trkpt>
      <trkpt lat="48.35762" lon="-4.2591">
        <ele>66.589212</ele>
        <time>2022-12-10T10:15:55.132Z</time>
      </trkpt>
      <trkpt lat="48.35754" lon="-4.25904">
        <ele>67.104724</ele>
        <time>2022-12-10T10:16:00.137Z</time>
      </trkpt>
      <trkpt lat="48.35746" lon="-4.25896">
        <ele>67.64703</ele>
        <time>2022-12-10T10:16:05.167Z</time>
      </trkpt>
      <trkpt lat="48.35738" lon="-4.25888">
        <ele>68.17873</ele>
        <time>2022-12-10T10:16:10.163Z</time>
      </trkpt>
      <trkpt lat="48.3573" lon="-4.25879">
        <ele>68.73752</ele>
        <time>2022-12-10T10:16:15.131Z</time>
      </trkpt>
      <trkpt lat="48.35722" lon="-4.25871">
        <ele>69.255734</ele>
        <time>2022-12-10T10:16:20.149Z</time>
      </trkpt>
      <trkpt lat="48.35714" lon="-4.25863">
        <ele>69.808228</ele>
        <time>2022-12-10T10:16:25.136Z</time>
      </trkpt>
      <trkpt lat="48.35706" lon="-4.25855">
        <ele>70.350536</ele>
        <time>2022-12-10T10:16:30.151Z</time>
      </trkpt>
      <trkpt lat="48.35697" lon="-4.25849">
        <ele>70.887642</ele>
        <time>2022-12-10T10:16:35.152Z</time>
      </trkpt>
      <trkpt lat="48.35689" lon="-4.25842">
        <ele>71.415888</ele>
        <time>2022-12-10T10:16:40.140Z</time>
      </trkpt>
      <trkpt lat="48.3568" lon="-4.25834">
        <ele>71.968653</ele>
        <time>2022-12-10T10:16:45.149Z</time>
      </trkpt>
      <trkpt lat="48.35671" lon="-4.25827">
        <ele>72.538504</ele>
        <time>2022-12-10T10:16:50.153Z</time>
      </trkpt>
      <trkpt lat="48.35662" lon="-4.2582">
        <ele>73.08839</ele>
        <time>2022-12-10T10:16:55.128Z</time>
      </trkpt>
      <trkpt lat="48.35653" lon="-4.25811">
        <ele>73.42752</ele>
        <time>2022-12-10T10:17:00.148Z</time>
      </trkpt>
      <trkpt lat="48.35645" lon="-4.25802">
        <ele>73.762996</ele>
        <time>2022-12-10T10:17:05.145Z</time>
      </trkpt>
      <trkpt lat="48.35635" lon="-4.25796">
        <ele>74.103153</ele>
        <time>2022-12-10T10:17:10.151Z</time>
      </trkpt>
      <trkpt lat="48.35626" lon="-4.25788">
        <ele>74.450838</ele>
        <time>2022-12-10T10:17:15.137Z</time>
      </trkpt>
      <trkpt lat="48.35617" lon="-4.2578">
        <ele>74.791723</ele>
        <time>2022-12-10T10:17:20.154Z</time>
      </trkpt>
      <trkpt lat="48.35609" lon="-4.25772">
        <ele>75.127546</ele>
        <time>2022-12-10T10:17:25.153Z</time>
      </trkpt>
      <trkpt lat="48.356" lon="-4.25764">
        <ele>75.475299</ele>
        <time>2022-12-10T10:17:30.153Z</time>
      </trkpt>
      <trkpt lat="48.35591" lon="-4.25755">
        <ele>75.823052</ele>
        <time>2022-12-10T10:17:35.154Z</time>
      </trkpt>
      <trkpt lat="48.35582" lon="-4.25746">
        <ele>76.182685</ele>
        <time>2022-12-10T10:17:40.141Z</time>
      </trkpt>
      <trkpt lat="48.35573" lon="-4.25739">
        <ele>76.505556</ele>
        <time>2022-12-10T10:17:45.163Z</time>
      </trkpt>
      <trkpt lat="48.35565" lon="-4.25731">
        <ele>76.835144</ele>
        <time>2022-12-10T10:17:50.160Z</time>
      </trkpt>
      <trkpt lat="48.35556" lon="-4.25723">
        <ele>77.176609</ele>
        <time>2022-12-10T10:17:55.149Z</time>
      </trkpt>
      <trkpt lat="48.35547" lon="-4.25715">
        <ele>77.522571</ele>
        <time>2022-12-10T10:18:00.142Z</time>
      </trkpt>
      <trkpt lat="48.35538" lon="-4.25706">
        <ele>77.869155</ele>
        <time>2022-12-10T10:18:05.151Z</time>
      </trkpt>
      <trkpt lat="48.35529" lon="-4.25699">
        <ele>78.214341</ele>
        <time>2022-12-10T10:18:10.166Z</time>
      </trkpt>
      <trkpt lat="48.3552" lon="-4.25691">
        <ele>78.549047</ele>
        <time>2022-12-10T10:18:15.142Z</time>
      </trkpt>
      <trkpt lat="48.35511" lon="-4.25682">
        <ele>78.893378</ele>
        <time>2022-12-10T10:18:20.155Z</time>
      </trkpt>
      <trkpt lat="48.35504" lon="-4.25674">
        <ele>79.175094</ele>
        <time>2022-12-10T10:18:25.155Z</time>
      </trkpt>
      <trkpt lat="48.35495" lon="-4.25666">
        <ele>79.460692</ele>
        <time>2022-12-10T10:18:30.155Z</time>
      </trkpt>
      <trkpt lat="48.35487" lon="-4.25657">
        <ele>79.76184</ele>
        <time>2022-12-10T10:18:35.156Z</time>
      </trkpt>
      <trkpt lat="48.35478" lon="-4.25649">
        <ele>80.060643</ele>
        <time>2022-12-10T10:18:40.151Z</time>
      </trkpt>
      <trkpt lat="48.35468" lon="-4.25641">
        <ele>80.378404</ele>
        <time>2022-12-10T10:18:45.150Z</time>
      </trkpt>
      <trkpt lat="48.35459" lon="-4.25633">
        <ele>80.680906</ele>
        <time>2022-12-10T10:18:50.153Z</time>
      </trkpt>
      <trkpt lat="48.35451" lon="-4.25624">
        <ele>80.99124</ele>
        <time>2022-12-10T10:18:55.139Z</time>
      </trkpt>
      <trkpt lat="48.35441" lon="-4.25616">
        <ele>81.305104</ele>
        <time>2022-12-10T10:19:00.131Z</time>
      </trkpt>
      <trkpt lat="48.35432" lon="-4.25608">
        <ele>81.608283</ele>
        <time>2022-12-10T10:19:05.139Z</time>
      </trkpt>
      <trkpt lat="48.35423" lon="-4.25601">
        <ele>81.900087</ele>
        <time>2022-12-10T10:19:10.160Z</time>
      </trkpt>
      <trkpt lat="48.35414" lon="-4.25594">
        <ele>82.205817</ele>
        <time>2022-12-10T10:19:15.149Z</time>
      </trkpt>
      <trkpt lat="48.35404" lon="-4.25588">
        <ele>82.514351</ele>
        <time>2022-12-10T10:19:20.149Z</time>
      </trkpt>
      <trkpt lat="48.35394" lon="-4.25582">
        <ele>82.830418</ele>
        <time>2022-12-10T10:19:25.155Z</time>
      </trkpt>
      <trkpt lat="48.35384" lon="-4.25575">
        <ele>83.141871</ele>
        <time>2022-12-10T10:19:30.150Z</time>
      </trkpt>
      <trkpt lat="48.35374" lon="-4.25569">
        <ele>83.455619</ele>
        <time>2022-12-10T10:19:35.134Z</time>
      </trkpt>
      <trkpt lat="48.35364" lon="-4.25562">
        <ele>83.757213</ele>
        <time>2022-12-10T10:19:40.163Z</time>
      </trkpt>
      <trkpt lat="48.35356" lon="-4.25556">
        <ele>84.040416</ele>
        <time>2022-12-10T10:19:44.154Z</time>
      </trkpt>
      <trkpt lat="48.35347" lon="-4.25549">
        <ele>84.362483</ele>
        <time>2022-12-10T10:19:48.152Z</time>
      </trkpt>
      <trkpt lat="48.35337" lon="-4.25542">
        <ele>84.760586</ele>
        <time>2022-12-10T10:19:53.152Z</time>
      </trkpt>
      <trkpt lat="48.35327" lon="-4.25538">
        <ele>85.161346</ele>
        <time>2022-12-10T10:19:58.150Z</time>
      </trkpt>
      <trkpt lat="48.35316" lon="-4.25539">
        <ele>85.542507</ele>
        <time>2022-12-10T10:20:03.127Z</time>
      </trkpt>
      <trkpt lat="48.35308" lon="-4.25532">
        <ele>85.87354</ele>
        <time>2022-12-10T10:20:07.143Z</time>
      </trkpt>
      <trkpt lat="48.35302" lon="-4.25521">
        <ele>86.238843</ele>
        <time>2022-12-10T10:20:12.164Z</time>
      </trkpt>
      <trkpt lat="48.35293" lon="-4.25513">
        <ele>86.627503</ele>
        <time>2022-12-10T10:20:17.143Z</time>
      </trkpt>
      <trkpt lat="48.35284" lon="-4.25509">
        <ele>86.954855</ele>
        <time>2022-12-10T10:20:21.139Z</time>
      </trkpt>
      <trkpt lat="48.35274" lon="-4.25501">
        <ele>87.358492</ele>
        <time>2022-12-10T10:20:26.156Z</time>
      </trkpt>
      <trkpt lat="48.35264" lon="-4.25495">
        <ele>87.754236</ele>
        <time>2022-12-10T10:20:31.133Z</time>
      </trkpt>
      <trkpt lat="48.35255" lon="-4.25489">
        <ele>88.112251</ele>
        <time>2022-12-10T10:20:35.153Z</time>
      </trkpt>
      <trkpt lat="48.35247" lon="-4.25483">
        <ele>88.471291</ele>
        <time>2022-12-10T10:20:39.154Z</time>
      </trkpt>
      <trkpt lat="48.35237" lon="-4.25477">
        <ele>88.860895</ele>
        <time>2022-12-10T10:20:43.135Z</time>
      </trkpt>
      <trkpt lat="48.35227" lon="-4.25472">
        <ele>89.228675</ele>
        <time>2022-12-10T10:20:47.144Z</time>
      </trkpt>
      <trkpt lat="48.35217" lon="-4.25467">
        <ele>89.61532</ele>
        <time>2022-12-10T10:20:51.154Z</time>
      </trkpt>
      <trkpt lat="48.35207" lon="-4.25464">
        <ele>90.00282</ele>
        <time>2022-12-10T10:20:55.141Z</time>
      </trkpt>
      <trkpt lat="48.35195" lon="-4.2546">
        <ele>90.442336</ele>
        <time>2022-12-10T10:20:59.156Z</time>
      </trkpt>
      <trkpt lat="48.35183" lon="-4.25457">
        <ele>90.769398</ele>
        <time>2022-12-10T10:21:03.152Z</time>
      </trkpt>
      <trkpt lat="48.35171" lon="-4.25456">
        <ele>90.9397</ele>
        <time>2022-12-10T10:21:07.142Z</time>
      </trkpt>
      <trkpt lat="48.35162" lon="-4.25455">
        <ele>91.068969</ele>
        <time>2022-12-10T10:21:10.154Z</time>
      </trkpt>
      <trkpt lat="48.35153" lon="-4.25455">
        <ele>91.198158</ele>
        <time>2022-12-10T10:21:13.131Z</time>
      </trkpt>
      <trkpt lat="48.35142" lon="-4.25454">
        <ele>91.345508</ele>
        <time>2022-12-10T10:21:17.151Z</time>
      </trkpt>
      <trkpt lat="48.35131" lon="-4.25456">
        <ele>91.511612</ele>
        <time>2022-12-10T10:21:21.154Z</time>
      </trkpt>
      <trkpt lat="48.35121" lon="-4.25457">
        <ele>91.641375</ele>
        <time>2022-12-10T10:21:24.152Z</time>
      </trkpt>
      <trkpt lat="48.3511" lon="-4.2546">
        <ele>91.800855</ele>
        <time>2022-12-10T10:21:28.151Z</time>
      </trkpt>
      <trkpt lat="48.35099" lon="-4.25464">
        <ele>91.962179</ele>
        <time>2022-12-10T10:21:32.163Z</time>
      </trkpt>
      <trkpt lat="48.3509" lon="-4.25467">
        <ele>92.094085</ele>
        <time>2022-12-10T10:21:35.149Z</time>
      </trkpt>
      <trkpt lat="48.35081" lon="-4.2547">
        <ele>92.220706</ele>
        <time>2022-12-10T10:21:38.131Z</time>
      </trkpt>
      <trkpt lat="48.3507" lon="-4.25475">
        <ele>92.387084</ele>
        <time>2022-12-10T10:21:42.158Z</time>
      </trkpt>
      <trkpt lat="48.35058" lon="-4.25482">
        <ele>92.557833</ele>
        <time>2022-12-10T10:21:46.154Z</time>
      </trkpt>
      <trkpt lat="48.3505" lon="-4.25487">
        <ele>92.686595</ele>
        <time>2022-12-10T10:21:49.151Z</time>
      </trkpt>
      <trkpt lat="48.35039" lon="-4.25493">
        <ele>92.851108</ele>
        <time>2022-12-10T10:21:53.158Z</time>
      </trkpt>
      <trkpt lat="48.35028" lon="-4.255">
        <ele>93.011371</ele>
        <time>2022-12-10T10:21:57.155Z</time>
      </trkpt>
      <trkpt lat="48.3502" lon="-4.25505">
        <ele>93.140133</ele>
        <time>2022-12-10T10:22:00.142Z</time>
      </trkpt>
      <trkpt lat="48.35009" lon="-4.25512">
        <ele>93.318645</ele>
        <time>2022-12-10T10:22:04.164Z</time>
      </trkpt>
      <trkpt lat="48.35001" lon="-4.25518">
        <ele>93.477263</ele>
        <time>2022-12-10T10:22:07.155Z</time>
      </trkpt>
      <trkpt lat="48.3499" lon="-4.25524">
        <ele>93.672638</ele>
        <time>2022-12-10T10:22:11.154Z</time>
      </trkpt>
      <trkpt lat="48.3498" lon="-4.25531">
        <ele>93.872749</ele>
        <time>2022-12-10T10:22:15.155Z</time>
      </trkpt>
      <trkpt lat="48.34969" lon="-4.25537">
        <ele>94.078326</ele>
        <time>2022-12-10T10:22:19.158Z</time>
      </trkpt>
      <trkpt lat="48.34957" lon="-4.25544">
        <ele>94.287866</ele>
        <time>2022-12-10T10:22:23.158Z</time>
      </trkpt>
      <trkpt lat="48.34949" lon="-4.25549">
        <ele>94.449404</ele>
        <time>2022-12-10T10:22:26.154Z</time>
      </trkpt>
      <trkpt lat="48.34938" lon="-4.25555">
        <ele>94.639518</ele>
        <time>2022-12-10T10:22:30.152Z</time>
      </trkpt>
      <trkpt lat="48.34928" lon="-4.25561">
        <ele>94.826486</ele>
        <time>2022-12-10T10:22:34.152Z</time>
      </trkpt>
      <trkpt lat="48.34919" lon="-4.25568">
        <ele>95.014015</ele>
        <time>2022-12-10T10:22:38.155Z</time>
      </trkpt>
      <trkpt lat="48.34909" lon="-4.25575">
        <ele>95.199386</ele>
        <time>2022-12-10T10:22:42.155Z</time>
      </trkpt>
      <trkpt lat="48.34899" lon="-4.25583">
        <ele>95.397777</ele>
        <time>2022-12-10T10:22:46.133Z</time>
      </trkpt>
      <trkpt lat="48.34889" lon="-4.25592">
        <ele>95.592101</ele>
        <time>2022-12-10T10:22:50.152Z</time>
      </trkpt>
      <trkpt lat="48.3488" lon="-4.25602">
        <ele>95.792444</ele>
        <time>2022-12-10T10:22:54.158Z</time>
      </trkpt>
      <trkpt lat="48.34871" lon="-4.25611">
        <ele>95.976266</ele>
        <time>2022-12-10T10:22:58.148Z</time>
      </trkpt>
      <trkpt lat="48.34863" lon="-4.25619">
        <ele>96.143599</ele>
        <time>2022-12-10T10:23:02.154Z</time>
      </trkpt>
      <trkpt lat="48.34856" lon="-4.25628">
        <ele>96.304581</ele>
        <time>2022-12-10T10:23:06.139Z</time>
      </trkpt>
      <trkpt lat="48.34848" lon="-4.25637">
        <ele>96.596043</ele>
        <time>2022-12-10T10:23:10.153Z</time>
      </trkpt>
      <trkpt lat="48.34841" lon="-4.25646">
        <ele>96.915685</ele>
        <time>2022-12-10T10:23:14.137Z</time>
      </trkpt>
      <trkpt lat="48.34832" lon="-4.25655">
        <ele>97.309221</ele>
        <time>2022-12-10T10:23:19.163Z</time>
      </trkpt>
      <trkpt lat="48.34824" lon="-4.25666">
        <ele>97.700004</ele>
        <time>2022-12-10T10:23:24.132Z</time>
      </trkpt>
      <trkpt lat="48.34815" lon="-4.25676">
        <ele>98.091616</ele>
        <time>2022-12-10T10:23:29.157Z</time>
      </trkpt>
      <trkpt lat="48.34807" lon="-4.25686">
        <ele>98.474726</ele>
        <time>2022-12-10T10:23:34.144Z</time>
      </trkpt>
      <trkpt lat="48.34798" lon="-4.25695">
        <ele>98.845133</ele>
        <time>2022-12-10T10:23:39.154Z</time>
      </trkpt>
      <trkpt lat="48.3479" lon="-4.25703">
        <ele>99.189974</ele>
        <time>2022-12-10T10:23:44.155Z</time>
      </trkpt>
      <trkpt lat="48.34782" lon="-4.25712">
        <ele>99.536134</ele>
        <time>2022-12-10T10:23:49.153Z</time>
      </trkpt>
      <trkpt lat="48.34774" lon="-4.2572">
        <ele>99.893901</ele>
        <time>2022-12-10T10:23:54.151Z</time>
      </trkpt>
      <trkpt lat="48.34765" lon="-4.25728">
        <ele>100.262674</ele>
        <time>2022-12-10T10:23:59.153Z</time>
      </trkpt>
      <trkpt lat="48.34755" lon="-4.25736">
        <ele>100.650061</ele>
        <time>2022-12-10T10:24:04.137Z</time>
      </trkpt>
      <trkpt lat="48.34747" lon="-4.25744">
        <ele>101.020609</ele>
        <time>2022-12-10T10:24:09.162Z</time>
      </trkpt>
      <trkpt lat="48.34737" lon="-4.25752">
        <ele>101.405777</ele>
        <time>2022-12-10T10:24:14.150Z</time>
      </trkpt>
      <trkpt lat="48.34727" lon="-4.25758">
        <ele>101.787439</ele>
        <time>2022-12-10T10:24:19.150Z</time>
      </trkpt>
      <trkpt lat="48.34717" lon="-4.25765">
        <ele>102.180052</ele>
        <time>2022-12-10T10:24:24.166Z</time>
      </trkpt>
      <trkpt lat="48.34709" lon="-4.25771">
        <ele>102.50167</ele>
        <time>2022-12-10T10:24:28.154Z</time>
      </trkpt>
      <trkpt lat="48.34699" lon="-4.25779">
        <ele>102.693842</ele>
        <time>2022-12-10T10:24:33.152Z</time>
      </trkpt>
      <trkpt lat="48.34691" lon="-4.25784">
        <ele>102.616918</ele>
        <time>2022-12-10T10:24:37.158Z</time>
      </trkpt>
      <trkpt lat="48.34681" lon="-4.25791">
        <ele>102.521357</ele>
        <time>2022-12-10T10:24:42.145Z</time>
      </trkpt>
      <trkpt lat="48.34672" lon="-4.25797">
        <ele>102.443893</ele>
        <time>2022-12-10T10:24:46.155Z</time>
      </trkpt>
      <trkpt lat="48.34664" lon="-4.25802">
        <ele>102.363085</ele>
        <time>2022-12-10T10:24:50.154Z</time>
      </trkpt>
      <trkpt lat="48.34654" lon="-4.25809">
        <ele>102.268149</ele>
        <time>2022-12-10T10:24:54.135Z</time>
      </trkpt>
      <trkpt lat="48.34644" lon="-4.25817">
        <ele>102.172972</ele>
        <time>2022-12-10T10:24:58.162Z</time>
      </trkpt>
      <trkpt lat="48.34635" lon="-4.25823">
        <ele>102.090927</ele>
        <time>2022-12-10T10:25:01.162Z</time>
      </trkpt>
      <trkpt lat="48.34626" lon="-4.25829">
        <ele>102.005383</ele>
        <time>2022-12-10T10:25:04.156Z</time>
      </trkpt>
      <trkpt lat="48.34616" lon="-4.25834">
        <ele>101.920492</ele>
        <time>2022-12-10T10:25:07.132Z</time>
      </trkpt>
      <trkpt lat="48.34607" lon="-4.2584">
        <ele>101.837767</ele>
        <time>2022-12-10T10:25:10.162Z</time>
      </trkpt>
      <trkpt lat="48.34598" lon="-4.25845">
        <ele>101.75422</ele>
        <time>2022-12-10T10:25:13.143Z</time>
      </trkpt>
      <trkpt lat="48.34589" lon="-4.25849">
        <ele>101.670215</ele>
        <time>2022-12-10T10:25:16.154Z</time>
      </trkpt>
      <trkpt lat="48.34579" lon="-4.25852">
        <ele>101.588265</ele>
        <time>2022-12-10T10:25:19.137Z</time>
      </trkpt>
      <trkpt lat="48.34568" lon="-4.25855">
        <ele>101.492598</ele>
        <time>2022-12-10T10:25:22.138Z</time>
      </trkpt>
      <trkpt lat="48.34555" lon="-4.25858">
        <ele>101.382365</ele>
        <time>2022-12-10T10:25:25.152Z</time>
      </trkpt>
      <trkpt lat="48.34546" lon="-4.2586">
        <ele>101.30497</ele>
        <time>2022-12-10T10:25:27.153Z</time>
      </trkpt>
      <trkpt lat="48.34537" lon="-4.25862">
        <ele>101.227228</ele>
        <time>2022-12-10T10:25:29.156Z</time>
      </trkpt>
      <trkpt lat="48.34528" lon="-4.25864">
        <ele>101.029861</ele>
        <time>2022-12-10T10:25:31.152Z</time>
      </trkpt>
      <trkpt lat="48.34519" lon="-4.25866">
        <ele>100.760078</ele>
        <time>2022-12-10T10:25:33.157Z</time>
      </trkpt>
      <trkpt lat="48.34509" lon="-4.25868">
        <ele>100.491278</ele>
        <time>2022-12-10T10:25:35.156Z</time>
      </trkpt>
      <trkpt lat="48.345" lon="-4.2587">
        <ele>100.224798</ele>
        <time>2022-12-10T10:25:37.154Z</time>
      </trkpt>
      <trkpt lat="48.3449" lon="-4.25872">
        <ele>99.952984</ele>
        <time>2022-12-10T10:25:39.127Z</time>
      </trkpt>
      <trkpt lat="48.34481" lon="-4.25873">
        <ele>99.689532</ele>
        <time>2022-12-10T10:25:41.152Z</time>
      </trkpt>
      <trkpt lat="48.34471" lon="-4.25875">
        <ele>99.415743</ele>
        <time>2022-12-10T10:25:43.153Z</time>
      </trkpt>
      <trkpt lat="48.34461" lon="-4.25876">
        <ele>99.133564</ele>
        <time>2022-12-10T10:25:45.155Z</time>
      </trkpt>
      <trkpt lat="48.34451" lon="-4.25878">
        <ele>98.838219</ele>
        <time>2022-12-10T10:25:47.156Z</time>
      </trkpt>
      <trkpt lat="48.3444" lon="-4.2588">
        <ele>98.547471</ele>
        <time>2022-12-10T10:25:49.135Z</time>
      </trkpt>
      <trkpt lat="48.3443" lon="-4.25882">
        <ele>98.24961</ele>
        <time>2022-12-10T10:25:51.138Z</time>
      </trkpt>
      <trkpt lat="48.34419" lon="-4.25884">
        <ele>97.937828</ele>
        <time>2022-12-10T10:25:53.172Z</time>
      </trkpt>
      <trkpt lat="48.34408" lon="-4.25887">
        <ele>97.620228</ele>
        <time>2022-12-10T10:25:55.155Z</time>
      </trkpt>
      <trkpt lat="48.34397" lon="-4.2589">
        <ele>97.303028</ele>
        <time>2022-12-10T10:25:57.136Z</time>
      </trkpt>
      <trkpt lat="48.34386" lon="-4.25892">
        <ele>96.987952</ele>
        <time>2022-12-10T10:25:59.155Z</time>
      </trkpt>
      <trkpt lat="48.34374" lon="-4.25895">
        <ele>96.672875</ele>
        <time>2022-12-10T10:26:01.152Z</time>
      </trkpt>
      <trkpt lat="48.34363" lon="-4.25896">
        <ele>96.359391</ele>
        <time>2022-12-10T10:26:03.153Z</time>
      </trkpt>
      <trkpt lat="48.34352" lon="-4.25898">
        <ele>96.07914</ele>
        <time>2022-12-10T10:26:05.157Z</time>
      </trkpt>
      <trkpt lat="48.34341" lon="-4.259">
        <ele>95.865482</ele>
        <time>2022-12-10T10:26:07.154Z</time>
      </trkpt>
      <trkpt lat="48.3433" lon="-4.25902">
        <ele>95.661272</ele>
        <time>2022-12-10T10:26:09.145Z</time>
      </trkpt>
      <trkpt lat="48.3432" lon="-4.25904">
        <ele>95.460698</ele>
        <time>2022-12-10T10:26:11.155Z</time>
      </trkpt>
      <trkpt lat="48.34308" lon="-4.25907">
        <ele>95.231216</ele>
        <time>2022-12-10T10:26:13.158Z</time>
      </trkpt>
      <trkpt lat="48.34295" lon="-4.25908">
        <ele>94.999373</ele>
        <time>2022-12-10T10:26:15.153Z</time>
      </trkpt>
      <trkpt lat="48.34282" lon="-4.2591">
        <ele>94.755402</ele>
        <time>2022-12-10T10:26:17.150Z</time>
      </trkpt>
      <trkpt lat="48.34269" lon="-4.25913">
        <ele>94.510511</ele>
        <time>2022-12-10T10:26:19.156Z</time>
      </trkpt>
      <trkpt lat="48.34256" lon="-4.25915">
        <ele>94.264087</ele>
        <time>2022-12-10T10:26:21.150Z</time>
      </trkpt>
      <trkpt lat="48.34243" lon="-4.25918">
        <ele>94.012488</ele>
        <time>2022-12-10T10:26:23.163Z</time>
      </trkpt>
      <trkpt lat="48.3423" lon="-4.25921">
        <ele>93.770102</ele>
        <time>2022-12-10T10:26:25.151Z</time>
      </trkpt>
      <trkpt lat="48.34219" lon="-4.25924">
        <ele>93.550645</ele>
        <time>2022-12-10T10:26:27.150Z</time>
      </trkpt>
      <trkpt lat="48.34208" lon="-4.25926">
        <ele>93.347751</ele>
        <time>2022-12-10T10:26:29.153Z</time>
      </trkpt>
      <trkpt lat="48.34199" lon="-4.25928">
        <ele>93.16366</ele>
        <time>2022-12-10T10:26:31.155Z</time>
      </trkpt>
      <trkpt lat="48.34189" lon="-4.2593">
        <ele>92.988303</ele>
        <time>2022-12-10T10:26:33.151Z</time>
      </trkpt>
      <trkpt lat="48.34179" lon="-4.25931">
        <ele>92.788602</ele>
        <time>2022-12-10T10:26:36.162Z</time>
      </trkpt>
      <trkpt lat="48.34168" lon="-4.25933">
        <ele>92.843431</ele>
        <time>2022-12-10T10:26:39.155Z</time>
      </trkpt>
      <trkpt lat="48.34156" lon="-4.25936">
        <ele>92.939508</ele>
        <time>2022-12-10T10:26:42.164Z</time>
      </trkpt>
      <trkpt lat="48.34144" lon="-4.25938">
        <ele>93.037859</ele>
        <time>2022-12-10T10:26:45.143Z</time>
      </trkpt>
      <trkpt lat="48.34132" lon="-4.2594">
        <ele>93.132021</ele>
        <time>2022-12-10T10:26:48.164Z</time>
      </trkpt>
      <trkpt lat="48.34121" lon="-4.25942">
        <ele>93.225843</ele>
        <time>2022-12-10T10:26:51.163Z</time>
      </trkpt>
      <trkpt lat="48.3411" lon="-4.25945">
        <ele>93.31647</ele>
        <time>2022-12-10T10:26:54.152Z</time>
      </trkpt>
      <trkpt lat="48.34098" lon="-4.25947">
        <ele>93.406804</ele>
        <time>2022-12-10T10:26:57.152Z</time>
      </trkpt>
      <trkpt lat="48.34088" lon="-4.25948">
        <ele>93.495289</ele>
        <time>2022-12-10T10:27:00.152Z</time>
      </trkpt>
      <trkpt lat="48.34077" lon="-4.2595">
        <ele>93.584577</ele>
        <time>2022-12-10T10:27:03.143Z</time>
      </trkpt>
      <trkpt lat="48.34066" lon="-4.25951">
        <ele>93.672671</ele>
        <time>2022-12-10T10:27:06.135Z</time>
      </trkpt>
      <trkpt lat="48.34055" lon="-4.25951">
        <ele>93.756708</ele>
        <time>2022-12-10T10:27:09.164Z</time>
      </trkpt>
      <trkpt lat="48.34045" lon="-4.2595">
        <ele>93.839244</ele>
        <time>2022-12-10T10:27:12.137Z</time>
      </trkpt>
      <trkpt lat="48.34035" lon="-4.25948">
        <ele>93.919174</ele>
        <time>2022-12-10T10:27:15.151Z</time>
      </trkpt>
      <trkpt lat="48.34026" lon="-4.25945">
        <ele>93.997666</ele>
        <time>2022-12-10T10:27:18.150Z</time>
      </trkpt>
      <trkpt lat="48.34016" lon="-4.25939">
        <ele>94.081201</ele>
        <time>2022-12-10T10:27:21.139Z</time>
      </trkpt>
      <trkpt lat="48.34007" lon="-4.25933">
        <ele>94.165288</ele>
        <time>2022-12-10T10:27:24.155Z</time>
      </trkpt>
      <trkpt lat="48.33997" lon="-4.25927">
        <ele>94.135231</ele>
        <time>2022-12-10T10:27:27.131Z</time>
      </trkpt>
      <trkpt lat="48.33987" lon="-4.25921">
        <ele>93.916827</ele>
        <time>2022-12-10T10:27:30.150Z</time>
      </trkpt>
      <trkpt lat="48.33978" lon="-4.25914">
        <ele>93.695281</ele>
        <time>2022-12-10T10:27:33.152Z</time>
      </trkpt>
      <trkpt lat="48.33968" lon="-4.25906">
        <ele>93.474978</ele>
        <time>2022-12-10T10:27:36.154Z</time>
      </trkpt>
      <trkpt lat="48.33959" lon="-4.25898">
        <ele>93.250889</ele>
        <time>2022-12-10T10:27:39.149Z</time>
      </trkpt>
      <trkpt lat="48.33949" lon="-4.2589">
        <ele>93.026853</ele>
        <time>2022-12-10T10:27:42.155Z</time>
      </trkpt>
      <trkpt lat="48.33939" lon="-4.25882">
        <ele>92.789648</ele>
        <time>2022-12-10T10:27:45.157Z</time>
      </trkpt>
      <trkpt lat="48.33928" lon="-4.25871">
        <ele>92.521373</ele>
        <time>2022-12-10T10:27:48.159Z</time>
      </trkpt>
      <trkpt lat="48.33917" lon="-4.25861">
        <ele>92.251357</ele>
        <time>2022-12-10T10:27:51.154Z</time>
      </trkpt>
      <trkpt lat="48.33906" lon="-4.2585">
        <ele>91.97362</ele>
        <time>2022-12-10T10:27:54.154Z</time>
      </trkpt>
      <trkpt lat="48.33898" lon="-4.25843">
        <ele>91.784114</ele>
        <time>2022-12-10T10:27:56.145Z</time>
      </trkpt>
      <trkpt lat="48.33889" lon="-4.25835">
        <ele>91.57764</ele>
        <time>2022-12-10T10:27:58.155Z</time>
      </trkpt>
      <trkpt lat="48.33881" lon="-4.25827">
        <ele>91.377516</ele>
        <time>2022-12-10T10:28:00.154Z</time>
      </trkpt>
      <trkpt lat="48.33873" lon="-4.25818">
        <ele>91.162675</ele>
        <time>2022-12-10T10:28:02.161Z</time>
      </trkpt>
      <trkpt lat="48.33865" lon="-4.25809">
        <ele>90.955908</ele>
        <time>2022-12-10T10:28:04.154Z</time>
      </trkpt>
      <trkpt lat="48.33856" lon="-4.258">
        <ele>90.738304</ele>
        <time>2022-12-10T10:28:06.164Z</time>
      </trkpt>
      <trkpt lat="48.33847" lon="-4.25792">
        <ele>90.521455</ele>
        <time>2022-12-10T10:28:08.154Z</time>
      </trkpt>
      <trkpt lat="48.33838" lon="-4.25784">
        <ele>90.447946</ele>
        <time>2022-12-10T10:28:10.155Z</time>
      </trkpt>
      <trkpt lat="48.33828" lon="-4.25775">
        <ele>90.377958</ele>
        <time>2022-12-10T10:28:12.160Z</time>
      </trkpt>
      <trkpt lat="48.33819" lon="-4.25767">
        <ele>90.310017</ele>
        <time>2022-12-10T10:28:14.145Z</time>
      </trkpt>
      <trkpt lat="48.3381" lon="-4.25758">
        <ele>90.241969</ele>
        <time>2022-12-10T10:28:16.152Z</time>
      </trkpt>
      <trkpt lat="48.338" lon="-4.2575">
        <ele>90.173591</ele>
        <time>2022-12-10T10:28:18.145Z</time>
      </trkpt>
      <trkpt lat="48.33791" lon="-4.25742">
        <ele>90.105543</ele>
        <time>2022-12-10T10:28:20.161Z</time>
      </trkpt>
      <trkpt lat="48.33782" lon="-4.25734">
        <ele>90.042989</ele>
        <time>2022-12-10T10:28:22.154Z</time>
      </trkpt>
      <trkpt lat="48.33774" lon="-4.25727">
        <ele>89.985712</ele>
        <time>2022-12-10T10:28:24.156Z</time>
      </trkpt>
      <trkpt lat="48.33763" lon="-4.25718">
        <ele>89.905686</ele>
        <time>2022-12-10T10:28:27.164Z</time>
      </trkpt>
      <trkpt lat="48.33754" lon="-4.25709">
        <ele>89.832993</ele>
        <time>2022-12-10T10:28:30.156Z</time>
      </trkpt>
      <trkpt lat="48.33744" lon="-4.25699">
        <ele>89.757361</ele>
        <time>2022-12-10T10:28:33.149Z</time>
      </trkpt>
      <trkpt lat="48.33734" lon="-4.2569">
        <ele>89.687999</ele>
        <time>2022-12-10T10:28:36.152Z</time>
      </trkpt>
      <trkpt lat="48.33725" lon="-4.25681">
        <ele>89.617473</ele>
        <time>2022-12-10T10:28:39.157Z</time>
      </trkpt>
      <trkpt lat="48.33715" lon="-4.25672">
        <ele>89.54629</ele>
        <time>2022-12-10T10:28:42.155Z</time>
      </trkpt>
      <trkpt lat="48.33705" lon="-4.25663">
        <ele>89.475108</ele>
        <time>2022-12-10T10:28:45.152Z</time>
      </trkpt>
      <trkpt lat="48.33696" lon="-4.25655">
        <ele>89.406596</ele>
        <time>2022-12-10T10:28:48.153Z</time>
      </trkpt>
      <trkpt lat="48.33687" lon="-4.25648">
        <ele>89.504776</ele>
        <time>2022-12-10T10:28:51.160Z</time>
      </trkpt>
      <trkpt lat="48.33678" lon="-4.2564">
        <ele>89.706712</ele>
        <time>2022-12-10T10:28:54.151Z</time>
      </trkpt>
      <trkpt lat="48.3367" lon="-4.25633">
        <ele>89.898637</ele>
        <time>2022-12-10T10:28:57.156Z</time>
      </trkpt>
      <trkpt lat="48.33662" lon="-4.25625">
        <ele>90.089592</ele>
        <time>2022-12-10T10:29:00.153Z</time>
      </trkpt>
      <trkpt lat="48.33653" lon="-4.25618">
        <ele>90.286088</ele>
        <time>2022-12-10T10:29:03.158Z</time>
      </trkpt>
      <trkpt lat="48.33645" lon="-4.2561">
        <ele>90.483229</ele>
        <time>2022-12-10T10:29:06.154Z</time>
      </trkpt>
      <trkpt lat="48.33636" lon="-4.25604">
        <ele>90.674828</ele>
        <time>2022-12-10T10:29:09.156Z</time>
      </trkpt>
      <trkpt lat="48.33628" lon="-4.25597">
        <ele>90.873083</ele>
        <time>2022-12-10T10:29:12.163Z</time>
      </trkpt>
      <trkpt lat="48.33619" lon="-4.25589">
        <ele>91.065307</ele>
        <time>2022-12-10T10:29:15.157Z</time>
      </trkpt>
      <trkpt lat="48.33611" lon="-4.25582">
        <ele>91.256376</ele>
        <time>2022-12-10T10:29:18.149Z</time>
      </trkpt>
      <trkpt lat="48.33603" lon="-4.25576">
        <ele>91.440429</ele>
        <time>2022-12-10T10:29:21.159Z</time>
      </trkpt>
      <trkpt lat="48.33595" lon="-4.25568">
        <ele>91.626575</ele>
        <time>2022-12-10T10:29:24.155Z</time>
      </trkpt>
      <trkpt lat="48.33586" lon="-4.25561">
        <ele>91.828988</ele>
        <time>2022-12-10T10:29:27.157Z</time>
      </trkpt>
      <trkpt lat="48.33578" lon="-4.25553">
        <ele>92.022245</ele>
        <time>2022-12-10T10:29:30.163Z</time>
      </trkpt>
      <trkpt lat="48.3357" lon="-4.25546">
        <ele>92.216575</ele>
        <time>2022-12-10T10:29:33.155Z</time>
      </trkpt>
      <trkpt lat="48.33562" lon="-4.25538">
        <ele>92.402517</ele>
        <time>2022-12-10T10:29:36.157Z</time>
      </trkpt>
      <trkpt lat="48.33554" lon="-4.2553">
        <ele>92.592339</ele>
        <time>2022-12-10T10:29:39.154Z</time>
      </trkpt>
      <trkpt lat="48.33545" lon="-4.25523">
        <ele>92.789053</ele>
        <time>2022-12-10T10:29:42.155Z</time>
      </trkpt>
      <trkpt lat="48.33537" lon="-4.25516">
        <ele>92.981399</ele>
        <time>2022-12-10T10:29:45.159Z</time>
      </trkpt>
      <trkpt lat="48.33528" lon="-4.25509">
        <ele>92.706482</ele>
        <time>2022-12-10T10:29:48.154Z</time>
      </trkpt>
      <trkpt lat="48.33519" lon="-4.25503">
        <ele>92.426156</ele>
        <time>2022-12-10T10:29:51.155Z</time>
      </trkpt>
      <trkpt lat="48.33509" lon="-4.25497">
        <ele>92.136375</ele>
        <time>2022-12-10T10:29:54.137Z</time>
      </trkpt>
      <trkpt lat="48.33499" lon="-4.25491">
        <ele>91.831101</ele>
        <time>2022-12-10T10:29:57.163Z</time>
      </trkpt>
      <trkpt lat="48.33488" lon="-4.25486">
        <ele>91.525797</ele>
        <time>2022-12-10T10:30:00.133Z</time>
      </trkpt>
      <trkpt lat="48.33476" lon="-4.25482">
        <ele>91.195858</ele>
        <time>2022-12-10T10:30:03.152Z</time>
      </trkpt>
      <trkpt lat="48.33465" lon="-4.25478">
        <ele>90.862795</ele>
        <time>2022-12-10T10:30:06.133Z</time>
      </trkpt>
      <trkpt lat="48.33453" lon="-4.25473">
        <ele>90.530182</ele>
        <time>2022-12-10T10:30:09.155Z</time>
      </trkpt>
      <trkpt lat="48.33441" lon="-4.25468">
        <ele>90.195226</ele>
        <time>2022-12-10T10:30:12.151Z</time>
      </trkpt>
      <trkpt lat="48.3343" lon="-4.25464">
        <ele>89.870633</ele>
        <time>2022-12-10T10:30:15.138Z</time>
      </trkpt>
      <trkpt lat="48.33419" lon="-4.2546">
        <ele>89.558944</ele>
        <time>2022-12-10T10:30:18.159Z</time>
      </trkpt>
      <trkpt lat="48.33408" lon="-4.25455">
        <ele>89.254163</ele>
        <time>2022-12-10T10:30:21.144Z</time>
      </trkpt>
      <trkpt lat="48.33398" lon="-4.25451">
        <ele>88.946509</ele>
        <time>2022-12-10T10:30:24.151Z</time>
      </trkpt>
      <trkpt lat="48.33386" lon="-4.25446">
        <ele>88.625322</ele>
        <time>2022-12-10T10:30:27.135Z</time>
      </trkpt>
      <trkpt lat="48.33375" lon="-4.25439">
        <ele>88.295539</ele>
        <time>2022-12-10T10:30:30.142Z</time>
      </trkpt>
      <trkpt lat="48.33364" lon="-4.25432">
        <ele>87.94129</ele>
        <time>2022-12-10T10:30:33.164Z</time>
      </trkpt>
      <trkpt lat="48.33352" lon="-4.25424">
        <ele>87.542568</ele>
        <time>2022-12-10T10:30:36.141Z</time>
      </trkpt>
      <trkpt lat="48.33342" lon="-4.25413">
        <ele>87.150093</ele>
        <time>2022-12-10T10:30:39.143Z</time>
      </trkpt>
      <trkpt lat="48.33333" lon="-4.25402">
        <ele>86.786571</ele>
        <time>2022-12-10T10:30:42.155Z</time>
      </trkpt>
      <trkpt lat="48.33324" lon="-4.2539">
        <ele>86.407359</ele>
        <time>2022-12-10T10:30:45.152Z</time>
      </trkpt>
      <trkpt lat="48.33316" lon="-4.25375">
        <ele>86.008045</ele>
        <time>2022-12-10T10:30:48.145Z</time>
      </trkpt>
      <trkpt lat="48.33309" lon="-4.25358">
        <ele>85.604815</ele>
        <time>2022-12-10T10:30:51.161Z</time>
      </trkpt>
      <trkpt lat="48.33304" lon="-4.25346">
        <ele>85.311536</ele>
        <time>2022-12-10T10:30:53.150Z</time>
      </trkpt>
      <trkpt lat="48.333" lon="-4.25333">
        <ele>85.020818</ele>
        <time>2022-12-10T10:30:55.155Z</time>
      </trkpt>
      <trkpt lat="48.33295" lon="-4.25315">
        <ele>84.60915</ele>
        <time>2022-12-10T10:30:58.154Z</time>
      </trkpt>
      <trkpt lat="48.3329" lon="-4.25297">
        <ele>84.207578</ele>
        <time>2022-12-10T10:31:01.156Z</time>
      </trkpt>
      <trkpt lat="48.33286" lon="-4.2528">
        <ele>83.81377</ele>
        <time>2022-12-10T10:31:04.154Z</time>
      </trkpt>
      <trkpt lat="48.33281" lon="-4.25263">
        <ele>83.424288</ele>
        <time>2022-12-10T10:31:07.155Z</time>
      </trkpt>
      <trkpt lat="48.33276" lon="-4.25245">
        <ele>83.031584</ele>
        <time>2022-12-10T10:31:10.156Z</time>
      </trkpt>
      <trkpt lat="48.33271" lon="-4.25227">
        <ele>82.634329</ele>
        <time>2022-12-10T10:31:13.152Z</time>
      </trkpt>
      <trkpt lat="48.33267" lon="-4.2521">
        <ele>82.17316</ele>
        <time>2022-12-10T10:31:16.152Z</time>
      </trkpt>
      <trkpt lat="48.33262" lon="-4.25192">
        <ele>81.602746</ele>
        <time>2022-12-10T10:31:19.155Z</time>
      </trkpt>
      <trkpt lat="48.33257" lon="-4.25175">
        <ele>81.042229</ele>
        <time>2022-12-10T10:31:22.154Z</time>
      </trkpt>
      <trkpt lat="48.33253" lon="-4.25159">
        <ele>80.513028</ele>
        <time>2022-12-10T10:31:25.156Z</time>
      </trkpt>
      <trkpt lat="48.33248" lon="-4.25142">
        <ele>79.976514</ele>
        <time>2022-12-10T10:31:28.155Z</time>
      </trkpt>
      <trkpt lat="48.33243" lon="-4.25125">
        <ele>79.415995</ele>
        <time>2022-12-10T10:31:31.155Z</time>
      </trkpt>
      <trkpt lat="48.33239" lon="-4.25108">
        <ele>78.858034</ele>
        <time>2022-12-10T10:31:34.151Z</time>
      </trkpt>
      <trkpt lat="48.33235" lon="-4.25091">
        <ele>78.300301</ele>
        <time>2022-12-10T10:31:37.152Z</time>
      </trkpt>
      <trkpt lat="48.3323" lon="-4.25074">
        <ele>77.747078</ele>
        <time>2022-12-10T10:31:40.164Z</time>
      </trkpt>
      <trkpt lat="48.33225" lon="-4.25057">
        <ele>77.19769</ele>
        <time>2022-12-10T10:31:43.165Z</time>
      </trkpt>
      <trkpt lat="48.3322" lon="-4.2504">
        <ele>76.65299</ele>
        <time>2022-12-10T10:31:46.157Z</time>
      </trkpt>
      <trkpt lat="48.33216" lon="-4.25026">
        <ele>76.167951</ele>
        <time>2022-12-10T10:31:49.157Z</time>
      </trkpt>
      <trkpt lat="48.33212" lon="-4.25013">
        <ele>75.755229</ele>
        <time>2022-12-10T10:31:52.161Z</time>
      </trkpt>
      <trkpt lat="48.33204" lon="-4.24981">
        <ele>74.709049</ele>
        <time>2022-12-10T10:32:17.143Z</time>
      </trkpt>
      <trkpt lat="48.332" lon="-4.24964">
        <ele>74.149997</ele>
        <time>2022-12-10T10:32:20.144Z</time>
      </trkpt>
      <trkpt lat="48.33195" lon="-4.24944">
        <ele>73.515695</ele>
        <time>2022-12-10T10:32:23.166Z</time>
      </trkpt>
      <trkpt lat="48.33191" lon="-4.24932">
        <ele>73.088833</ele>
        <time>2022-12-10T10:32:25.160Z</time>
      </trkpt>
      <trkpt lat="48.33187" lon="-4.24914">
        <ele>72.504243</ele>
        <time>2022-12-10T10:32:28.161Z</time>
      </trkpt>
      <trkpt lat="48.33182" lon="-4.24897">
        <ele>71.932207</ele>
        <time>2022-12-10T10:32:31.156Z</time>
      </trkpt>
      <trkpt lat="48.33177" lon="-4.2488">
        <ele>71.374413</ele>
        <time>2022-12-10T10:32:34.154Z</time>
      </trkpt>
      <trkpt lat="48.33173" lon="-4.24864">
        <ele>70.837835</ele>
        <time>2022-12-10T10:32:37.155Z</time>
      </trkpt>
      <trkpt lat="48.33168" lon="-4.24848">
        <ele>70.295957</ele>
        <time>2022-12-10T10:32:40.162Z</time>
      </trkpt>
      <trkpt lat="48.33163" lon="-4.24831">
        <ele>69.73528</ele>
        <time>2022-12-10T10:32:43.167Z</time>
      </trkpt>
      <trkpt lat="48.33158" lon="-4.24813">
        <ele>69.136223</ele>
        <time>2022-12-10T10:32:46.155Z</time>
      </trkpt>
      <trkpt lat="48.33153" lon="-4.24795">
        <ele>68.536786</ele>
        <time>2022-12-10T10:32:49.163Z</time>
      </trkpt>
      <trkpt lat="48.33148" lon="-4.24776">
        <ele>67.904152</ele>
        <time>2022-12-10T10:32:52.157Z</time>
      </trkpt>
      <trkpt lat="48.33145" lon="-4.24762">
        <ele>67.461282</ele>
        <time>2022-12-10T10:32:54.151Z</time>
      </trkpt>
      <trkpt lat="48.33142" lon="-4.24749">
        <ele>67.020401</ele>
        <time>2022-12-10T10:32:56.159Z</time>
      </trkpt>
      <trkpt lat="48.33137" lon="-4.2473">
        <ele>66.399237</ele>
        <time>2022-12-10T10:32:59.154Z</time>
      </trkpt>
      <trkpt lat="48.33132" lon="-4.24712">
        <ele>65.830291</ele>
        <time>2022-12-10T10:33:02.168Z</time>
      </trkpt>
      <trkpt lat="48.33127" lon="-4.24694">
        <ele>65.371605</ele>
        <time>2022-12-10T10:33:05.153Z</time>
      </trkpt>
      <trkpt lat="48.33123" lon="-4.24675">
        <ele>64.908132</ele>
        <time>2022-12-10T10:33:08.163Z</time>
      </trkpt>
      <trkpt lat="48.33118" lon="-4.24656">
        <ele>64.446835</ele>
        <time>2022-12-10T10:33:11.151Z</time>
      </trkpt>
      <trkpt lat="48.33112" lon="-4.24638">
        <ele>63.97673</ele>
        <time>2022-12-10T10:33:14.147Z</time>
      </trkpt>
      <trkpt lat="48.33109" lon="-4.24625">
        <ele>63.642655</ele>
        <time>2022-12-10T10:33:16.153Z</time>
      </trkpt>
      <trkpt lat="48.33105" lon="-4.24611">
        <ele>63.29427</ele>
        <time>2022-12-10T10:33:18.155Z</time>
      </trkpt>
      <trkpt lat="48.33101" lon="-4.24596">
        <ele>62.925109</ele>
        <time>2022-12-10T10:33:20.151Z</time>
      </trkpt>
      <trkpt lat="48.33097" lon="-4.24581">
        <ele>62.550291</ele>
        <time>2022-12-10T10:33:22.163Z</time>
      </trkpt>
      <trkpt lat="48.33093" lon="-4.24567">
        <ele>62.170539</ele>
        <time>2022-12-10T10:33:24.158Z</time>
      </trkpt>
      <trkpt lat="48.33088" lon="-4.2455">
        <ele>61.753402</ele>
        <time>2022-12-10T10:33:26.155Z</time>
      </trkpt>
      <trkpt lat="48.33084" lon="-4.24534">
        <ele>61.346602</ele>
        <time>2022-12-10T10:33:28.162Z</time>
      </trkpt>
      <trkpt lat="48.33079" lon="-4.24517">
        <ele>60.922562</ele>
        <time>2022-12-10T10:33:30.159Z</time>
      </trkpt>
      <trkpt lat="48.33075" lon="-4.24501">
        <ele>60.517106</ele>
        <time>2022-12-10T10:33:32.155Z</time>
      </trkpt>
      <trkpt lat="48.3307" lon="-4.24484">
        <ele>60.10113</ele>
        <time>2022-12-10T10:33:34.162Z</time>
      </trkpt>
      <trkpt lat="48.33065" lon="-4.24469">
        <ele>59.696507</ele>
        <time>2022-12-10T10:33:36.154Z</time>
      </trkpt>
      <trkpt lat="48.33059" lon="-4.24454">
        <ele>59.461017</ele>
        <time>2022-12-10T10:33:38.154Z</time>
      </trkpt>
      <trkpt lat="48.33053" lon="-4.2444">
        <ele>59.265884</ele>
        <time>2022-12-10T10:33:40.134Z</time>
      </trkpt>
      <trkpt lat="48.33046" lon="-4.24428">
        <ele>59.086832</ele>
        <time>2022-12-10T10:33:42.157Z</time>
      </trkpt>
      <trkpt lat="48.3304" lon="-4.24418">
        <ele>58.928614</ele>
        <time>2022-12-10T10:33:44.155Z</time>
      </trkpt>
      <trkpt lat="48.33033" lon="-4.24409">
        <ele>58.770097</ele>
        <time>2022-12-10T10:33:46.160Z</time>
      </trkpt>
      <trkpt lat="48.33025" lon="-4.244">
        <ele>58.606941</ele>
        <time>2022-12-10T10:33:48.162Z</time>
      </trkpt>
      <trkpt lat="48.33018" lon="-4.24391">
        <ele>58.44745</ele>
        <time>2022-12-10T10:33:50.167Z</time>
      </trkpt>
      <trkpt lat="48.33011" lon="-4.24382">
        <ele>58.287235</ele>
        <time>2022-12-10T10:33:52.160Z</time>
      </trkpt>
      <trkpt lat="48.33004" lon="-4.24373">
        <ele>58.12203</ele>
        <time>2022-12-10T10:33:54.164Z</time>
      </trkpt>
      <trkpt lat="48.32997" lon="-4.24364">
        <ele>57.962971</ele>
        <time>2022-12-10T10:33:56.156Z</time>
      </trkpt>
      <trkpt lat="48.32989" lon="-4.24354">
        <ele>57.795869</ele>
        <time>2022-12-10T10:33:58.161Z</time>
      </trkpt>
      <trkpt lat="48.32982" lon="-4.24345">
        <ele>57.638858</ele>
        <time>2022-12-10T10:34:00.154Z</time>
      </trkpt>
      <trkpt lat="48.32972" lon="-4.24332">
        <ele>57.410881</ele>
        <time>2022-12-10T10:34:03.139Z</time>
      </trkpt>
      <trkpt lat="48.32965" lon="-4.24324">
        <ele>57.253444</ele>
        <time>2022-12-10T10:34:05.164Z</time>
      </trkpt>
      <trkpt lat="48.32955" lon="-4.24312">
        <ele>57.034938</ele>
        <time>2022-12-10T10:34:08.158Z</time>
      </trkpt>
      <trkpt lat="48.32945" lon="-4.24299">
        <ele>56.803193</ele>
        <time>2022-12-10T10:34:11.152Z</time>
      </trkpt>
      <trkpt lat="48.32937" lon="-4.2429">
        <ele>56.642438</ele>
        <time>2022-12-10T10:34:13.156Z</time>
      </trkpt>
      <trkpt lat="48.32927" lon="-4.24278">
        <ele>56.596235</ele>
        <time>2022-12-10T10:34:16.161Z</time>
      </trkpt>
      <trkpt lat="48.32917" lon="-4.24264">
        <ele>56.720648</ele>
        <time>2022-12-10T10:34:19.160Z</time>
      </trkpt>
      <trkpt lat="48.32908" lon="-4.24252">
        <ele>56.836007</ele>
        <time>2022-12-10T10:34:22.161Z</time>
      </trkpt>
      <trkpt lat="48.329" lon="-4.24241">
        <ele>56.942322</ele>
        <time>2022-12-10T10:34:25.156Z</time>
      </trkpt>
      <trkpt lat="48.32892" lon="-4.24231">
        <ele>57.040317</ele>
        <time>2022-12-10T10:34:28.156Z</time>
      </trkpt>
      <trkpt lat="48.32885" lon="-4.24222">
        <ele>57.133461</ele>
        <time>2022-12-10T10:34:31.163Z</time>
      </trkpt>
      <trkpt lat="48.32877" lon="-4.24214">
        <ele>57.223943</ele>
        <time>2022-12-10T10:34:34.165Z</time>
      </trkpt>
      <trkpt lat="48.3287" lon="-4.24204">
        <ele>57.317675</ele>
        <time>2022-12-10T10:34:37.154Z</time>
      </trkpt>
      <trkpt lat="48.32862" lon="-4.24195">
        <ele>57.407808</ele>
        <time>2022-12-10T10:34:40.149Z</time>
      </trkpt>
      <trkpt lat="48.32856" lon="-4.24185">
        <ele>57.496124</ele>
        <time>2022-12-10T10:34:43.138Z</time>
      </trkpt>
      <trkpt lat="48.32849" lon="-4.24175">
        <ele>57.584442</ele>
        <time>2022-12-10T10:34:46.165Z</time>
      </trkpt>
      <trkpt lat="48.32842" lon="-4.24166">
        <ele>57.677617</ele>
        <time>2022-12-10T10:34:49.157Z</time>
      </trkpt>
      <trkpt lat="48.32835" lon="-4.24158">
        <ele>57.766951</ele>
        <time>2022-12-10T10:34:52.154Z</time>
      </trkpt>
      <trkpt lat="48.32827" lon="-4.24147">
        <ele>57.865075</ele>
        <time>2022-12-10T10:34:56.139Z</time>
      </trkpt>
      <trkpt lat="48.32819" lon="-4.24138">
        <ele>57.959748</ele>
        <time>2022-12-10T10:35:00.139Z</time>
      </trkpt>
      <trkpt lat="48.32812" lon="-4.24128">
        <ele>58.051413</ele>
        <time>2022-12-10T10:35:04.156Z</time>
      </trkpt>
      <trkpt lat="48.32803" lon="-4.24118">
        <ele>58.156818</ele>
        <time>2022-12-10T10:35:09.163Z</time>
      </trkpt>
      <trkpt lat="48.32795" lon="-4.24109">
        <ele>58.266183</ele>
        <time>2022-12-10T10:35:14.166Z</time>
      </trkpt>
      <trkpt lat="48.32788" lon="-4.241">
        <ele>58.62422</ele>
        <time>2022-12-10T10:35:19.151Z</time>
      </trkpt>
      <trkpt lat="48.32781" lon="-4.2409">
        <ele>58.998254</ele>
        <time>2022-12-10T10:35:24.153Z</time>
      </trkpt>
      <trkpt lat="48.32775" lon="-4.24079">
        <ele>59.362297</ele>
        <time>2022-12-10T10:35:29.153Z</time>
      </trkpt>
      <trkpt lat="48.32769" lon="-4.24067">
        <ele>59.744678</ele>
        <time>2022-12-10T10:35:34.140Z</time>
      </trkpt>
      <trkpt lat="48.32765" lon="-4.24054">
        <ele>60.106876</ele>
        <time>2022-12-10T10:35:39.152Z</time>
      </trkpt>
      <trkpt lat="48.32762" lon="-4.2404">
        <ele>60.48119</ele>
        <time>2022-12-10T10:35:44.152Z</time>
      </trkpt>
      <trkpt lat="48.32758" lon="-4.24026">
        <ele>60.856599</ele>
        <time>2022-12-10T10:35:49.154Z</time>
      </trkpt>
      <trkpt lat="48.32755" lon="-4.24013">
        <ele>61.216533</ele>
        <time>2022-12-10T10:35:54.136Z</time>
      </trkpt>
      <trkpt lat="48.32751" lon="-4.24">
        <ele>61.567867</ele>
        <time>2022-12-10T10:35:59.151Z</time>
      </trkpt>
      <trkpt lat="48.32747" lon="-4.23987">
        <ele>61.93625</ele>
        <time>2022-12-10T10:36:04.162Z</time>
      </trkpt>
      <trkpt lat="48.32745" lon="-4.23973">
        <ele>62.309409</ele>
        <time>2022-12-10T10:36:09.154Z</time>
      </trkpt>
      <trkpt lat="48.32741" lon="-4.2396">
        <ele>62.672482</ele>
        <time>2022-12-10T10:36:14.141Z</time>
      </trkpt>
      <trkpt lat="48.32738" lon="-4.23946">
        <ele>63.03965</ele>
        <time>2022-12-10T10:36:19.154Z</time>
      </trkpt>
      <trkpt lat="48.32735" lon="-4.23932">
        <ele>63.413967</ele>
        <time>2022-12-10T10:36:24.142Z</time>
      </trkpt>
      <trkpt lat="48.32733" lon="-4.23918">
        <ele>63.798602</ele>
        <time>2022-12-10T10:36:29.154Z</time>
      </trkpt>
      <trkpt lat="48.32729" lon="-4.23904">
        <ele>64.176844</ele>
        <time>2022-12-10T10:36:34.164Z</time>
      </trkpt>
      <trkpt lat="48.32726" lon="-4.23888">
        <ele>64.586171</ele>
        <time>2022-12-10T10:36:39.142Z</time>
      </trkpt>
      <trkpt lat="48.32723" lon="-4.23874">
        <ele>64.959267</ele>
        <time>2022-12-10T10:36:44.144Z</time>
      </trkpt>
      <trkpt lat="48.3272" lon="-4.23861">
        <ele>65.336287</ele>
        <time>2022-12-10T10:36:49.143Z</time>
      </trkpt>
      <trkpt lat="48.32717" lon="-4.23848">
        <ele>65.778448</ele>
        <time>2022-12-10T10:36:54.160Z</time>
      </trkpt>
      <trkpt lat="48.32714" lon="-4.23835">
        <ele>66.193257</ele>
        <time>2022-12-10T10:36:59.153Z</time>
      </trkpt>
      <trkpt lat="48.32712" lon="-4.23821">
        <ele>66.626686</ele>
        <time>2022-12-10T10:37:04.149Z</time>
      </trkpt>
      <trkpt lat="48.32711" lon="-4.23806">
        <ele>67.060378</ele>
        <time>2022-12-10T10:37:09.144Z</time>
      </trkpt>
      <trkpt lat="48.3271" lon="-4.23792">
        <ele>67.480344</ele>
        <time>2022-12-10T10:37:14.135Z</time>
      </trkpt>
      <trkpt lat="48.32711" lon="-4.23778">
        <ele>67.912329</ele>
        <time>2022-12-10T10:37:19.166Z</time>
      </trkpt>
      <trkpt lat="48.32711" lon="-4.23763">
        <ele>68.380375</ele>
        <time>2022-12-10T10:37:25.138Z</time>
      </trkpt>
      <trkpt lat="48.32712" lon="-4.23749">
        <ele>68.797018</ele>
        <time>2022-12-10T10:37:30.145Z</time>
      </trkpt>
      <trkpt lat="48.32713" lon="-4.23734">
        <ele>69.231254</ele>
        <time>2022-12-10T10:37:35.156Z</time>
      </trkpt>
      <trkpt lat="48.32715" lon="-4.2372">
        <ele>69.664425</ele>
        <time>2022-12-10T10:37:40.143Z</time>
      </trkpt>
      <trkpt lat="48.32715" lon="-4.23706">
        <ele>70.101855</ele>
        <time>2022-12-10T10:37:45.168Z</time>
      </trkpt>
      <trkpt lat="48.32715" lon="-4.23691">
        <ele>70.532768</ele>
        <time>2022-12-10T10:37:50.150Z</time>
      </trkpt>
      <trkpt lat="48.32716" lon="-4.23678">
        <ele>70.94941</ele>
        <time>2022-12-10T10:37:55.145Z</time>
      </trkpt>
      <trkpt lat="48.32717" lon="-4.23663">
        <ele>71.382154</ele>
        <time>2022-12-10T10:38:01.144Z</time>
      </trkpt>
      <trkpt lat="48.32718" lon="-4.2365">
        <ele>71.797894</ele>
        <time>2022-12-10T10:38:06.145Z</time>
      </trkpt>
      <trkpt lat="48.32719" lon="-4.23636">
        <ele>72.226751</ele>
        <time>2022-12-10T10:38:11.140Z</time>
      </trkpt>
      <trkpt lat="48.32721" lon="-4.23621">
        <ele>72.666965</ele>
        <time>2022-12-10T10:38:16.155Z</time>
      </trkpt>
      <trkpt lat="48.32722" lon="-4.23607">
        <ele>73.085181</ele>
        <time>2022-12-10T10:38:21.136Z</time>
      </trkpt>
      <trkpt lat="48.32722" lon="-4.23594">
        <ele>73.468727</ele>
        <time>2022-12-10T10:38:26.139Z</time>
      </trkpt>
      <trkpt lat="48.32722" lon="-4.23579">
        <ele>73.841701</ele>
        <time>2022-12-10T10:38:31.145Z</time>
      </trkpt>
      <trkpt lat="48.32721" lon="-4.23565">
        <ele>74.230741</ele>
        <time>2022-12-10T10:38:36.160Z</time>
      </trkpt>
      <trkpt lat="48.32719" lon="-4.23551">
        <ele>74.596405</ele>
        <time>2022-12-10T10:38:41.151Z</time>
      </trkpt>
      <trkpt lat="48.32716" lon="-4.23537">
        <ele>74.983136</ele>
        <time>2022-12-10T10:38:46.152Z</time>
      </trkpt>
      <trkpt lat="48.32711" lon="-4.23525">
        <ele>75.356768</ele>
        <time>2022-12-10T10:38:51.154Z</time>
      </trkpt>
      <trkpt lat="48.32707" lon="-4.23512">
        <ele>75.739208</ele>
        <time>2022-12-10T10:38:56.155Z</time>
      </trkpt>
      <trkpt lat="48.32701" lon="-4.23501">
        <ele>76.10241</ele>
        <time>2022-12-10T10:39:01.146Z</time>
      </trkpt>
      <trkpt lat="48.32695" lon="-4.2349">
        <ele>76.473321</ele>
        <time>2022-12-10T10:39:06.146Z</time>
      </trkpt>
      <trkpt lat="48.32688" lon="-4.23481">
        <ele>76.83978</ele>
        <time>2022-12-10T10:39:11.155Z</time>
      </trkpt>
      <trkpt lat="48.3268" lon="-4.23473">
        <ele>77.21231</ele>
        <time>2022-12-10T10:39:16.144Z</time>
      </trkpt>
      <trkpt lat="48.32672" lon="-4.23465">
        <ele>77.606842</ele>
        <time>2022-12-10T10:39:21.142Z</time>
      </trkpt>
      <trkpt lat="48.32662" lon="-4.23457">
        <ele>78.026993</ele>
        <time>2022-12-10T10:39:27.160Z</time>
      </trkpt>
      <trkpt lat="48.32653" lon="-4.2345">
        <ele>78.435462</ele>
        <time>2022-12-10T10:39:33.143Z</time>
      </trkpt>
      <trkpt lat="48.32643" lon="-4.23443">
        <ele>78.868445</ele>
        <time>2022-12-10T10:39:38.158Z</time>
      </trkpt>
      <trkpt lat="48.32635" lon="-4.23437">
        <ele>79.241768</ele>
        <time>2022-12-10T10:39:43.166Z</time>
      </trkpt>
      <trkpt lat="48.32626" lon="-4.2343">
        <ele>79.646551</ele>
        <time>2022-12-10T10:39:48.139Z</time>
      </trkpt>
      <trkpt lat="48.32617" lon="-4.23422">
        <ele>80.031058</ele>
        <time>2022-12-10T10:39:53.156Z</time>
      </trkpt>
      <trkpt lat="48.32611" lon="-4.23413">
        <ele>80.395898</ele>
        <time>2022-12-10T10:39:58.138Z</time>
      </trkpt>
      <trkpt lat="48.32604" lon="-4.23403">
        <ele>80.696366</ele>
        <time>2022-12-10T10:40:03.159Z</time>
      </trkpt>
      <trkpt lat="48.32597" lon="-4.23391">
        <ele>81.007799</ele>
        <time>2022-12-10T10:40:08.153Z</time>
      </trkpt>
      <trkpt lat="48.32592" lon="-4.23379">
        <ele>81.311003</ele>
        <time>2022-12-10T10:40:13.163Z</time>
      </trkpt>
      <trkpt lat="48.32588" lon="-4.23367">
        <ele>81.598039</ele>
        <time>2022-12-10T10:40:18.145Z</time>
      </trkpt>
      <trkpt lat="48.32584" lon="-4.23353">
        <ele>81.918148</ele>
        <time>2022-12-10T10:40:23.155Z</time>
      </trkpt>
      <trkpt lat="48.32582" lon="-4.23339">
        <ele>82.219831</ele>
        <time>2022-12-10T10:40:28.148Z</time>
      </trkpt>
      <trkpt lat="48.32579" lon="-4.23325">
        <ele>82.527753</ele>
        <time>2022-12-10T10:40:33.149Z</time>
      </trkpt>
      <trkpt lat="48.32578" lon="-4.2331">
        <ele>82.845643</ele>
        <time>2022-12-10T10:40:38.138Z</time>
      </trkpt>
      <trkpt lat="48.32576" lon="-4.23294">
        <ele>83.187481</ele>
        <time>2022-12-10T10:40:43.167Z</time>
      </trkpt>
      <trkpt lat="48.32575" lon="-4.23277">
        <ele>83.535991</ele>
        <time>2022-12-10T10:40:48.165Z</time>
      </trkpt>
      <trkpt lat="48.32574" lon="-4.23261">
        <ele>83.88198</ele>
        <time>2022-12-10T10:40:53.166Z</time>
      </trkpt>
      <trkpt lat="48.32573" lon="-4.23244">
        <ele>84.2219</ele>
        <time>2022-12-10T10:40:58.169Z</time>
      </trkpt>
      <trkpt lat="48.32572" lon="-4.2323">
        <ele>84.516566</ele>
        <time>2022-12-10T10:41:02.143Z</time>
      </trkpt>
      <trkpt lat="48.32571" lon="-4.23215">
        <ele>84.83539</ele>
        <time>2022-12-10T10:41:06.147Z</time>
      </trkpt>
      <trkpt lat="48.3257" lon="-4.232">
        <ele>85.15325</ele>
        <time>2022-12-10T10:41:10.143Z</time>
      </trkpt>
      <trkpt lat="48.32569" lon="-4.23186">
        <ele>85.461484</ele>
        <time>2022-12-10T10:41:14.164Z</time>
      </trkpt>
      <trkpt lat="48.32568" lon="-4.2317">
        <ele>85.778018</ele>
        <time>2022-12-10T10:41:18.156Z</time>
      </trkpt>
      <trkpt lat="48.32567" lon="-4.23156">
        <ele>86.068545</ele>
        <time>2022-12-10T10:41:22.139Z</time>
      </trkpt>
      <trkpt lat="48.32566" lon="-4.23141">
        <ele>86.20471</ele>
        <time>2022-12-10T10:41:26.166Z</time>
      </trkpt>
      <trkpt lat="48.32565" lon="-4.23126">
        <ele>86.347781</ele>
        <time>2022-12-10T10:41:30.168Z</time>
      </trkpt>
      <trkpt lat="48.32563" lon="-4.23111">
        <ele>86.491221</ele>
        <time>2022-12-10T10:41:34.154Z</time>
      </trkpt>
      <trkpt lat="48.32562" lon="-4.23096">
        <ele>86.634661</ele>
        <time>2022-12-10T10:41:38.164Z</time>
      </trkpt>
      <trkpt lat="48.3256" lon="-4.23082">
        <ele>86.775824</ele>
        <time>2022-12-10T10:41:42.146Z</time>
      </trkpt>
      <trkpt lat="48.32559" lon="-4.23067">
        <ele>86.914968</ele>
        <time>2022-12-10T10:41:46.144Z</time>
      </trkpt>
      <trkpt lat="48.32557" lon="-4.23052">
        <ele>87.059997</ele>
        <time>2022-12-10T10:41:50.154Z</time>
      </trkpt>
      <trkpt lat="48.32555" lon="-4.23036">
        <ele>87.215536</ele>
        <time>2022-12-10T10:41:54.169Z</time>
      </trkpt>
      <trkpt lat="48.32554" lon="-4.23019">
        <ele>87.37418</ele>
        <time>2022-12-10T10:41:58.166Z</time>
      </trkpt>
      <trkpt lat="48.32552" lon="-4.23002">
        <ele>87.53606</ele>
        <time>2022-12-10T10:42:02.163Z</time>
      </trkpt>
      <trkpt lat="48.3255" lon="-4.22985">
        <ele>87.702604</ele>
        <time>2022-12-10T10:42:06.149Z</time>
      </trkpt>
      <trkpt lat="48.32548" lon="-4.22971">
        <ele>87.841629</ele>
        <time>2022-12-10T10:42:09.155Z</time>
      </trkpt>
      <trkpt lat="48.32546" lon="-4.22957">
        <ele>87.972675</ele>
        <time>2022-12-10T10:42:12.153Z</time>
      </trkpt>
      <trkpt lat="48.32544" lon="-4.22941">
        <ele>88.129848</ele>
        <time>2022-12-10T10:42:16.153Z</time>
      </trkpt>
      <trkpt lat="48.32542" lon="-4.22924">
        <ele>88.289497</ele>
        <time>2022-12-10T10:42:20.155Z</time>
      </trkpt>
      <trkpt lat="48.3254" lon="-4.22908">
        <ele>88.447839</ele>
        <time>2022-12-10T10:42:24.167Z</time>
      </trkpt>
      <trkpt lat="48.32537" lon="-4.2289">
        <ele>88.589576</ele>
        <time>2022-12-10T10:42:28.167Z</time>
      </trkpt>
      <trkpt lat="48.32535" lon="-4.22875">
        <ele>88.211086</ele>
        <time>2022-12-10T10:42:31.165Z</time>
      </trkpt>
      <trkpt lat="48.32532" lon="-4.22859">
        <ele>87.815975</ele>
        <time>2022-12-10T10:42:34.153Z</time>
      </trkpt>
      <trkpt lat="48.32529" lon="-4.22842">
        <ele>87.387268</ele>
        <time>2022-12-10T10:42:37.167Z</time>
      </trkpt>
      <trkpt lat="48.32525" lon="-4.22824">
        <ele>86.934701</ele>
        <time>2022-12-10T10:42:40.167Z</time>
      </trkpt>
      <trkpt lat="48.32521" lon="-4.22805">
        <ele>86.466853</ele>
        <time>2022-12-10T10:42:43.170Z</time>
      </trkpt>
      <trkpt lat="48.32517" lon="-4.22792">
        <ele>86.120527</ele>
        <time>2022-12-10T10:42:45.167Z</time>
      </trkpt>
      <trkpt lat="48.32513" lon="-4.2278">
        <ele>85.78167</ele>
        <time>2022-12-10T10:42:47.157Z</time>
      </trkpt>
      <trkpt lat="48.32508" lon="-4.22766">
        <ele>85.422136</ele>
        <time>2022-12-10T10:42:49.155Z</time>
      </trkpt>
      <trkpt lat="48.32504" lon="-4.22754">
        <ele>85.089678</ele>
        <time>2022-12-10T10:42:51.165Z</time>
      </trkpt>
      <trkpt lat="48.32499" lon="-4.22743">
        <ele>84.760465</ele>
        <time>2022-12-10T10:42:53.159Z</time>
      </trkpt>
      <trkpt lat="48.32491" lon="-4.22727">
        <ele>84.290241</ele>
        <time>2022-12-10T10:42:56.162Z</time>
      </trkpt>
      <trkpt lat="48.32482" lon="-4.22713">
        <ele>83.821375</ele>
        <time>2022-12-10T10:42:59.144Z</time>
      </trkpt>
      <trkpt lat="48.32472" lon="-4.227">
        <ele>83.324561</ele>
        <time>2022-12-10T10:43:02.154Z</time>
      </trkpt>
      <trkpt lat="48.32464" lon="-4.22691">
        <ele>82.959885</ele>
        <time>2022-12-10T10:43:04.164Z</time>
      </trkpt>
      <trkpt lat="48.32455" lon="-4.22683">
        <ele>82.607653</ele>
        <time>2022-12-10T10:43:06.169Z</time>
      </trkpt>
      <trkpt lat="48.32447" lon="-4.22676">
        <ele>82.264239</ele>
        <time>2022-12-10T10:43:08.166Z</time>
      </trkpt>
      <trkpt lat="48.32439" lon="-4.22669">
        <ele>81.894086</ele>
        <time>2022-12-10T10:43:10.139Z</time>
      </trkpt>
      <trkpt lat="48.3243" lon="-4.22663">
        <ele>81.472095</ele>
        <time>2022-12-10T10:43:12.138Z</time>
      </trkpt>
      <trkpt lat="48.32421" lon="-4.22659">
        <ele>81.022351</ele>
        <time>2022-12-10T10:43:14.167Z</time>
      </trkpt>
      <trkpt lat="48.32411" lon="-4.22654">
        <ele>80.573514</ele>
        <time>2022-12-10T10:43:16.170Z</time>
      </trkpt>
      <trkpt lat="48.32401" lon="-4.22651">
        <ele>80.140445</ele>
        <time>2022-12-10T10:43:18.170Z</time>
      </trkpt>
      <trkpt lat="48.32392" lon="-4.22647">
        <ele>79.714641</ele>
        <time>2022-12-10T10:43:20.147Z</time>
      </trkpt>
      <trkpt lat="48.32383" lon="-4.22645">
        <ele>79.302888</ele>
        <time>2022-12-10T10:43:22.159Z</time>
      </trkpt>
      <trkpt lat="48.32373" lon="-4.22643">
        <ele>78.892607</ele>
        <time>2022-12-10T10:43:24.169Z</time>
      </trkpt>
      <trkpt lat="48.3236" lon="-4.2264">
        <ele>78.291998</ele>
        <time>2022-12-10T10:43:27.156Z</time>
      </trkpt>
      <trkpt lat="48.3235" lon="-4.22637">
        <ele>77.868662</ele>
        <time>2022-12-10T10:43:29.154Z</time>
      </trkpt>
      <trkpt lat="48.32337" lon="-4.22635">
        <ele>77.274661</ele>
        <time>2022-12-10T10:43:32.151Z</time>
      </trkpt>
      <trkpt lat="48.32328" lon="-4.22634">
        <ele>76.872336</ele>
        <time>2022-12-10T10:43:34.146Z</time>
      </trkpt>
      <trkpt lat="48.32319" lon="-4.22632">
        <ele>76.46373</ele>
        <time>2022-12-10T10:43:36.154Z</time>
      </trkpt>
      <trkpt lat="48.32309" lon="-4.22631">
        <ele>76.052088</ele>
        <time>2022-12-10T10:43:38.168Z</time>
      </trkpt>
      <trkpt lat="48.323" lon="-4.2263">
        <ele>75.649763</ele>
        <time>2022-12-10T10:43:40.170Z</time>
      </trkpt>
      <trkpt lat="48.32287" lon="-4.22628">
        <ele>75.080529</ele>
        <time>2022-12-10T10:43:43.166Z</time>
      </trkpt>
      <trkpt lat="48.32278" lon="-4.22627">
        <ele>74.664782</ele>
        <time>2022-12-10T10:43:45.153Z</time>
      </trkpt>
      <trkpt lat="48.32269" lon="-4.22627">
        <ele>74.246285</ele>
        <time>2022-12-10T10:43:47.166Z</time>
      </trkpt>
      <trkpt lat="48.32259" lon="-4.22628">
        <ele>73.909187</ele>
        <time>2022-12-10T10:43:49.172Z</time>
      </trkpt>
      <trkpt lat="48.32249" lon="-4.22629">
        <ele>73.593746</ele>
        <time>2022-12-10T10:43:51.164Z</time>
      </trkpt>
      <trkpt lat="48.3224" lon="-4.2263">
        <ele>73.294501</ele>
        <time>2022-12-10T10:43:53.147Z</time>
      </trkpt>
      <trkpt lat="48.3223" lon="-4.22632">
        <ele>72.983436</ele>
        <time>2022-12-10T10:43:55.138Z</time>
      </trkpt>
      <trkpt lat="48.32221" lon="-4.22634">
        <ele>72.665033</ele>
        <time>2022-12-10T10:43:57.166Z</time>
      </trkpt>
      <trkpt lat="48.32211" lon="-4.22636">
        <ele>72.353048</ele>
        <time>2022-12-10T10:43:59.157Z</time>
      </trkpt>
      <trkpt lat="48.32201" lon="-4.22638">
        <ele>72.030769</ele>
        <time>2022-12-10T10:44:01.153Z</time>
      </trkpt>
      <trkpt lat="48.32192" lon="-4.22641">
        <ele>71.721298</ele>
        <time>2022-12-10T10:44:03.157Z</time>
      </trkpt>
      <trkpt lat="48.32182" lon="-4.22644">
        <ele>71.394723</ele>
        <time>2022-12-10T10:44:05.155Z</time>
      </trkpt>
      <trkpt lat="48.32172" lon="-4.22646">
        <ele>71.059283</ele>
        <time>2022-12-10T10:44:07.165Z</time>
      </trkpt>
      <trkpt lat="48.32163" lon="-4.22649">
        <ele>70.758604</ele>
        <time>2022-12-10T10:44:09.163Z</time>
      </trkpt>
      <trkpt lat="48.32153" lon="-4.22653">
        <ele>70.419024</ele>
        <time>2022-12-10T10:44:11.167Z</time>
      </trkpt>
      <trkpt lat="48.32143" lon="-4.22657">
        <ele>70.078315</ele>
        <time>2022-12-10T10:44:13.161Z</time>
      </trkpt>
      <trkpt lat="48.32132" lon="-4.22661">
        <ele>69.728226</ele>
        <time>2022-12-10T10:44:15.155Z</time>
      </trkpt>
      <trkpt lat="48.32122" lon="-4.22665">
        <ele>69.389766</ele>
        <time>2022-12-10T10:44:17.162Z</time>
      </trkpt>
      <trkpt lat="48.32113" lon="-4.22668">
        <ele>69.077866</ele>
        <time>2022-12-10T10:44:19.169Z</time>
      </trkpt>
      <trkpt lat="48.32103" lon="-4.22671">
        <ele>68.751291</ele>
        <time>2022-12-10T10:44:21.162Z</time>
      </trkpt>
      <trkpt lat="48.32093" lon="-4.22675">
        <ele>68.410724</ele>
        <time>2022-12-10T10:44:23.162Z</time>
      </trkpt>
      <trkpt lat="48.32082" lon="-4.22678">
        <ele>68.278821</ele>
        <time>2022-12-10T10:44:25.165Z</time>
      </trkpt>
      <trkpt lat="48.32072" lon="-4.22681">
        <ele>68.200365</ele>
        <time>2022-12-10T10:44:27.163Z</time>
      </trkpt>
      <trkpt lat="48.32061" lon="-4.22685">
        <ele>68.120678</ele>
        <time>2022-12-10T10:44:29.156Z</time>
      </trkpt>
      <trkpt lat="48.32051" lon="-4.22689">
        <ele>68.041428</ele>
        <time>2022-12-10T10:44:31.157Z</time>
      </trkpt>
      <trkpt lat="48.32041" lon="-4.22694">
        <ele>67.964818</ele>
        <time>2022-12-10T10:44:33.166Z</time>
      </trkpt>
      <trkpt lat="48.3203" lon="-4.22697">
        <ele>67.887865</ele>
        <time>2022-12-10T10:44:35.164Z</time>
      </trkpt>
      <trkpt lat="48.3202" lon="-4.22702">
        <ele>67.809714</ele>
        <time>2022-12-10T10:44:37.150Z</time>
      </trkpt>
      <trkpt lat="48.3201" lon="-4.22705">
        <ele>67.73501</ele>
        <time>2022-12-10T10:44:39.169Z</time>
      </trkpt>
      <trkpt lat="48.32001" lon="-4.22708">
        <ele>67.66464</ele>
        <time>2022-12-10T10:44:41.167Z</time>
      </trkpt>
      <trkpt lat="48.31992" lon="-4.22711">
        <ele>67.598668</ele>
        <time>2022-12-10T10:44:43.158Z</time>
      </trkpt>
      <trkpt lat="48.3198" lon="-4.22715">
        <ele>67.509965</ele>
        <time>2022-12-10T10:44:46.163Z</time>
      </trkpt>
      <trkpt lat="48.31969" lon="-4.22718">
        <ele>67.429671</ele>
        <time>2022-12-10T10:44:49.165Z</time>
      </trkpt>
      <trkpt lat="48.31958" lon="-4.22722">
        <ele>67.347019</ele>
        <time>2022-12-10T10:44:52.170Z</time>
      </trkpt>
      <trkpt lat="48.31947" lon="-4.22727">
        <ele>67.256795</ele>
        <time>2022-12-10T10:44:55.163Z</time>
      </trkpt>
      <trkpt lat="48.31934" lon="-4.22731">
        <ele>67.161844</ele>
        <time>2022-12-10T10:44:58.167Z</time>
      </trkpt>
      <trkpt lat="48.31925" lon="-4.22736">
        <ele>67.09478</ele>
        <time>2022-12-10T10:45:00.157Z</time>
      </trkpt>
      <trkpt lat="48.31912" lon="-4.22742">
        <ele>67.031596</ele>
        <time>2022-12-10T10:45:03.168Z</time>
      </trkpt>
      <trkpt lat="48.31901" lon="-4.22748">
        <ele>67.061215</ele>
        <time>2022-12-10T10:45:06.161Z</time>
      </trkpt>
      <trkpt lat="48.31888" lon="-4.22755">
        <ele>67.091799</ele>
        <time>2022-12-10T10:45:09.136Z</time>
      </trkpt>
      <trkpt lat="48.31877" lon="-4.22761">
        <ele>67.121394</ele>
        <time>2022-12-10T10:45:12.140Z</time>
      </trkpt>
      <trkpt lat="48.31865" lon="-4.22767">
        <ele>67.150388</ele>
        <time>2022-12-10T10:45:15.143Z</time>
      </trkpt>
      <trkpt lat="48.31855" lon="-4.22773">
        <ele>67.176598</ele>
        <time>2022-12-10T10:45:18.169Z</time>
      </trkpt>
      <trkpt lat="48.31844" lon="-4.22778">
        <ele>67.202598</ele>
        <time>2022-12-10T10:45:21.163Z</time>
      </trkpt>
      <trkpt lat="48.31833" lon="-4.22783">
        <ele>67.229631</ele>
        <time>2022-12-10T10:45:24.165Z</time>
      </trkpt>
      <trkpt lat="48.31822" lon="-4.22786">
        <ele>67.256772</ele>
        <time>2022-12-10T10:45:27.139Z</time>
      </trkpt>
      <trkpt lat="48.3181" lon="-4.22787">
        <ele>67.284747</ele>
        <time>2022-12-10T10:45:30.159Z</time>
      </trkpt>
      <trkpt lat="48.31799" lon="-4.22787">
        <ele>67.311983</ele>
        <time>2022-12-10T10:45:33.161Z</time>
      </trkpt>
      <trkpt lat="48.31788" lon="-4.22787">
        <ele>67.338281</ele>
        <time>2022-12-10T10:45:36.142Z</time>
      </trkpt>
      <trkpt lat="48.31776" lon="-4.22785">
        <ele>67.365092</ele>
        <time>2022-12-10T10:45:39.154Z</time>
      </trkpt>
      <trkpt lat="48.31765" lon="-4.22784">
        <ele>67.392839</ele>
        <time>2022-12-10T10:45:42.159Z</time>
      </trkpt>
      <trkpt lat="48.31754" lon="-4.22784">
        <ele>67.419124</ele>
        <time>2022-12-10T10:45:45.157Z</time>
      </trkpt>
      <trkpt lat="48.31742" lon="-4.22786">
        <ele>67.445526</ele>
        <time>2022-12-10T10:45:48.152Z</time>
      </trkpt>
      <trkpt lat="48.31732" lon="-4.22788">
        <ele>67.766652</ele>
        <time>2022-12-10T10:45:51.163Z</time>
      </trkpt>
      <trkpt lat="48.31723" lon="-4.22793">
        <ele>68.115769</ele>
        <time>2022-12-10T10:45:54.149Z</time>
      </trkpt>
      <trkpt lat="48.31714" lon="-4.22798">
        <ele>68.454729</ele>
        <time>2022-12-10T10:45:57.152Z</time>
      </trkpt>
      <trkpt lat="48.31705" lon="-4.22806">
        <ele>68.823546</ele>
        <time>2022-12-10T10:46:01.165Z</time>
      </trkpt>
      <trkpt lat="48.31695" lon="-4.22813">
        <ele>69.192193</ele>
        <time>2022-12-10T10:46:05.165Z</time>
      </trkpt>
      <trkpt lat="48.31687" lon="-4.22819">
        <ele>69.534567</ele>
        <time>2022-12-10T10:46:09.150Z</time>
      </trkpt>
      <trkpt lat="48.31679" lon="-4.22826">
        <ele>69.855903</ele>
        <time>2022-12-10T10:46:13.168Z</time>
      </trkpt>
      <trkpt lat="48.3167" lon="-4.22835">
        <ele>70.242712</ele>
        <time>2022-12-10T10:46:18.148Z</time>
      </trkpt>
      <trkpt lat="48.31661" lon="-4.22844">
        <ele>70.619785</ele>
        <time>2022-12-10T10:46:23.156Z</time>
      </trkpt>
      <trkpt lat="48.31652" lon="-4.22852">
        <ele>70.986423</ele>
        <time>2022-12-10T10:46:28.139Z</time>
      </trkpt>
      <trkpt lat="48.31643" lon="-4.22861">
        <ele>71.351717</ele>
        <time>2022-12-10T10:46:33.155Z</time>
      </trkpt>
      <trkpt lat="48.31634" lon="-4.22869">
        <ele>71.732857</ele>
        <time>2022-12-10T10:46:38.142Z</time>
      </trkpt>
      <trkpt lat="48.31624" lon="-4.22876">
        <ele>72.126785</ele>
        <time>2022-12-10T10:46:43.165Z</time>
      </trkpt>
      <trkpt lat="48.31614" lon="-4.22882">
        <ele>72.477463</ele>
        <time>2022-12-10T10:46:47.169Z</time>
      </trkpt>
      <trkpt lat="48.31605" lon="-4.22886">
        <ele>72.82051</ele>
        <time>2022-12-10T10:46:51.169Z</time>
      </trkpt>
      <trkpt lat="48.31595" lon="-4.22888">
        <ele>73.167352</ele>
        <time>2022-12-10T10:46:55.167Z</time>
      </trkpt>
      <trkpt lat="48.31585" lon="-4.22891">
        <ele>73.527723</ele>
        <time>2022-12-10T10:46:59.162Z</time>
      </trkpt>
      <trkpt lat="48.31576" lon="-4.22891">
        <ele>73.828514</ele>
        <time>2022-12-10T10:47:03.161Z</time>
      </trkpt>
      <trkpt lat="48.31566" lon="-4.22891">
        <ele>74.03144</ele>
        <time>2022-12-10T10:47:07.148Z</time>
      </trkpt>
      <trkpt lat="48.31557" lon="-4.22888">
        <ele>74.233163</ele>
        <time>2022-12-10T10:47:11.172Z</time>
      </trkpt>
      <trkpt lat="48.31548" lon="-4.22884">
        <ele>74.438971</ele>
        <time>2022-12-10T10:47:15.176Z</time>
      </trkpt>
      <trkpt lat="48.31539" lon="-4.22879">
        <ele>74.641006</ele>
        <time>2022-12-10T10:47:19.159Z</time>
      </trkpt>
      <trkpt lat="48.3153" lon="-4.22873">
        <ele>74.833589</ele>
        <time>2022-12-10T10:47:23.159Z</time>
      </trkpt>
      <trkpt lat="48.31521" lon="-4.22867">
        <ele>75.041113</ele>
        <time>2022-12-10T10:47:27.163Z</time>
      </trkpt>
      <trkpt lat="48.31513" lon="-4.22859">
        <ele>75.251319</ele>
        <time>2022-12-10T10:47:31.167Z</time>
      </trkpt>
      <trkpt lat="48.31506" lon="-4.22849">
        <ele>75.451641</ele>
        <time>2022-12-10T10:47:35.150Z</time>
      </trkpt>
      <trkpt lat="48.315" lon="-4.22838">
        <ele>75.657843</ele>
        <time>2022-12-10T10:47:39.160Z</time>
      </trkpt>
      <trkpt lat="48.31493" lon="-4.22827">
        <ele>75.863106</ele>
        <time>2022-12-10T10:47:43.164Z</time>
      </trkpt>
      <trkpt lat="48.31488" lon="-4.22815">
        <ele>76.071149</ele>
        <time>2022-12-10T10:47:47.139Z</time>
      </trkpt>
      <trkpt lat="48.31483" lon="-4.22801">
        <ele>76.285054</ele>
        <time>2022-12-10T10:47:51.171Z</time>
      </trkpt>
      <trkpt lat="48.31479" lon="-4.22788">
        <ele>76.496421</ele>
        <time>2022-12-10T10:47:55.167Z</time>
      </trkpt>
      <trkpt lat="48.31475" lon="-4.22772">
        <ele>76.728479</ele>
        <time>2022-12-10T10:47:59.169Z</time>
      </trkpt>
      <trkpt lat="48.31472" lon="-4.22756">
        <ele>76.96914</ele>
        <time>2022-12-10T10:48:03.163Z</time>
      </trkpt>
      <trkpt lat="48.31469" lon="-4.22738">
        <ele>77.221749</ele>
        <time>2022-12-10T10:48:07.168Z</time>
      </trkpt>
      <trkpt lat="48.31468" lon="-4.22724">
        <ele>77.41837</ele>
        <time>2022-12-10T10:48:10.169Z</time>
      </trkpt>
      <trkpt lat="48.31465" lon="-4.22711">
        <ele>77.547908</ele>
        <time>2022-12-10T10:48:13.139Z</time>
      </trkpt>
      <trkpt lat="48.31464" lon="-4.22694">
        <ele>77.280969</ele>
        <time>2022-12-10T10:48:17.165Z</time>
      </trkpt>
      <trkpt lat="48.31463" lon="-4.2268">
        <ele>77.066118</ele>
        <time>2022-12-10T10:48:20.163Z</time>
      </trkpt>
      <trkpt lat="48.31461" lon="-4.22665">
        <ele>76.827685</ele>
        <time>2022-12-10T10:48:23.157Z</time>
      </trkpt>
      <trkpt lat="48.31459" lon="-4.22647">
        <ele>76.559685</ele>
        <time>2022-12-10T10:48:26.173Z</time>
      </trkpt>
      <trkpt lat="48.31458" lon="-4.2263">
        <ele>76.289994</ele>
        <time>2022-12-10T10:48:29.158Z</time>
      </trkpt>
      <trkpt lat="48.31457" lon="-4.22614">
        <ele>76.032116</ele>
        <time>2022-12-10T10:48:32.144Z</time>
      </trkpt>
      <trkpt lat="48.31456" lon="-4.22597">
        <ele>75.783064</ele>
        <time>2022-12-10T10:48:35.167Z</time>
      </trkpt>
      <trkpt lat="48.31456" lon="-4.22581">
        <ele>75.524243</ele>
        <time>2022-12-10T10:48:38.157Z</time>
      </trkpt>
      <trkpt lat="48.31456" lon="-4.22564">
        <ele>75.269086</ele>
        <time>2022-12-10T10:48:41.171Z</time>
      </trkpt>
      <trkpt lat="48.31456" lon="-4.22546">
        <ele>74.990827</ele>
        <time>2022-12-10T10:48:44.167Z</time>
      </trkpt>
      <trkpt lat="48.31456" lon="-4.22527">
        <ele>74.693992</ele>
        <time>2022-12-10T10:48:47.164Z</time>
      </trkpt>
      <trkpt lat="48.31456" lon="-4.22508">
        <ele>74.39252</ele>
        <time>2022-12-10T10:48:50.169Z</time>
      </trkpt>
      <trkpt lat="48.31457" lon="-4.22489">
        <ele>74.104237</ele>
        <time>2022-12-10T10:48:53.162Z</time>
      </trkpt>
      <trkpt lat="48.31457" lon="-4.22471">
        <ele>73.824433</ele>
        <time>2022-12-10T10:48:56.169Z</time>
      </trkpt>
      <trkpt lat="48.31458" lon="-4.22452">
        <ele>73.533669</ele>
        <time>2022-12-10T10:48:59.160Z</time>
      </trkpt>
      <trkpt lat="48.31458" lon="-4.22432">
        <ele>73.199514</ele>
        <time>2022-12-10T10:49:02.145Z</time>
      </trkpt>
      <trkpt lat="48.31458" lon="-4.22413">
        <ele>72.846459</ele>
        <time>2022-12-10T10:49:05.153Z</time>
      </trkpt>
      <trkpt lat="48.31459" lon="-4.22393">
        <ele>72.491345</ele>
        <time>2022-12-10T10:49:08.142Z</time>
      </trkpt>
      <trkpt lat="48.3146" lon="-4.22374">
        <ele>72.136232</ele>
        <time>2022-12-10T10:49:11.166Z</time>
      </trkpt>
      <trkpt lat="48.3146" lon="-4.22354">
        <ele>71.777918</ele>
        <time>2022-12-10T10:49:14.164Z</time>
      </trkpt>
      <trkpt lat="48.31461" lon="-4.22335">
        <ele>71.433643</ele>
        <time>2022-12-10T10:49:17.171Z</time>
      </trkpt>
      <trkpt lat="48.31461" lon="-4.22315">
        <ele>71.075381</ele>
        <time>2022-12-10T10:49:20.167Z</time>
      </trkpt>
      <trkpt lat="48.31462" lon="-4.22297">
        <ele>70.75261</ele>
        <time>2022-12-10T10:49:23.147Z</time>
      </trkpt>
      <trkpt lat="48.31462" lon="-4.22278">
        <ele>70.412209</ele>
        <time>2022-12-10T10:49:26.166Z</time>
      </trkpt>
      <trkpt lat="48.31463" lon="-4.22259">
        <ele>70.06829</ele>
        <time>2022-12-10T10:49:29.161Z</time>
      </trkpt>
      <trkpt lat="48.31463" lon="-4.2224">
        <ele>69.719105</ele>
        <time>2022-12-10T10:49:32.155Z</time>
      </trkpt>
      <trkpt lat="48.31462" lon="-4.22223">
        <ele>69.405925</ele>
        <time>2022-12-10T10:49:35.166Z</time>
      </trkpt>
      <trkpt lat="48.31463" lon="-4.22205">
        <ele>69.083153</ele>
        <time>2022-12-10T10:49:38.167Z</time>
      </trkpt>
      <trkpt lat="48.31463" lon="-4.22187">
        <ele>68.753835</ele>
        <time>2022-12-10T10:49:41.151Z</time>
      </trkpt>
      <trkpt lat="48.31463" lon="-4.22168">
        <ele>68.381603</ele>
        <time>2022-12-10T10:49:44.167Z</time>
      </trkpt>
      <trkpt lat="48.31463" lon="-4.22149">
        <ele>67.932874</ele>
        <time>2022-12-10T10:49:47.157Z</time>
      </trkpt>
      <trkpt lat="48.31464" lon="-4.22128">
        <ele>67.465219</ele>
        <time>2022-12-10T10:49:50.161Z</time>
      </trkpt>
      <trkpt lat="48.31466" lon="-4.22115">
        <ele>67.148685</ele>
        <time>2022-12-10T10:49:52.160Z</time>
      </trkpt>
      <trkpt lat="48.31464" lon="-4.22101">
        <ele>66.808957</ele>
        <time>2022-12-10T10:49:54.169Z</time>
      </trkpt>
      <trkpt lat="48.31463" lon="-4.22087">
        <ele>66.490827</ele>
        <time>2022-12-10T10:49:56.164Z</time>
      </trkpt>
      <trkpt lat="48.31462" lon="-4.22073">
        <ele>66.169549</ele>
        <time>2022-12-10T10:49:58.166Z</time>
      </trkpt>
      <trkpt lat="48.31461" lon="-4.22059">
        <ele>65.833488</ele>
        <time>2022-12-10T10:50:00.149Z</time>
      </trkpt>
      <trkpt lat="48.31459" lon="-4.22045">
        <ele>65.495107</ele>
        <time>2022-12-10T10:50:02.170Z</time>
      </trkpt>
      <trkpt lat="48.31457" lon="-4.22031">
        <ele>65.161935</ele>
        <time>2022-12-10T10:50:04.168Z</time>
      </trkpt>
      <trkpt lat="48.31455" lon="-4.22016">
        <ele>64.827445</ele>
        <time>2022-12-10T10:50:06.169Z</time>
      </trkpt>
      <trkpt lat="48.31452" lon="-4.22002">
        <ele>64.472158</ele>
        <time>2022-12-10T10:50:08.152Z</time>
      </trkpt>
      <trkpt lat="48.3145" lon="-4.21987">
        <ele>64.123337</ele>
        <time>2022-12-10T10:50:10.151Z</time>
      </trkpt>
      <trkpt lat="48.31446" lon="-4.21972">
        <ele>63.748191</ele>
        <time>2022-12-10T10:50:12.164Z</time>
      </trkpt>
      <trkpt lat="48.31443" lon="-4.21956">
        <ele>63.364861</ele>
        <time>2022-12-10T10:50:14.155Z</time>
      </trkpt>
      <trkpt lat="48.3144" lon="-4.21941">
        <ele>62.983773</ele>
        <time>2022-12-10T10:50:16.169Z</time>
      </trkpt>
      <trkpt lat="48.31437" lon="-4.21925">
        <ele>62.612013</ele>
        <time>2022-12-10T10:50:18.158Z</time>
      </trkpt>
      <trkpt lat="48.31434" lon="-4.21911">
        <ele>62.264476</ele>
        <time>2022-12-10T10:50:20.145Z</time>
      </trkpt>
      <trkpt lat="48.3143" lon="-4.21896">
        <ele>62.233926</ele>
        <time>2022-12-10T10:50:22.142Z</time>
      </trkpt>
      <trkpt lat="48.31427" lon="-4.2188">
        <ele>62.247688</ele>
        <time>2022-12-10T10:50:24.163Z</time>
      </trkpt>
      <trkpt lat="48.31423" lon="-4.21865">
        <ele>62.261241</ele>
        <time>2022-12-10T10:50:26.161Z</time>
      </trkpt>
      <trkpt lat="48.31419" lon="-4.21849">
        <ele>62.275401</ele>
        <time>2022-12-10T10:50:28.164Z</time>
      </trkpt>
      <trkpt lat="48.31416" lon="-4.21835">
        <ele>62.288565</ele>
        <time>2022-12-10T10:50:30.163Z</time>
      </trkpt>
      <trkpt lat="48.31411" lon="-4.21818">
        <ele>62.303995</ele>
        <time>2022-12-10T10:50:32.172Z</time>
      </trkpt>
      <trkpt lat="48.31408" lon="-4.21803">
        <ele>62.317164</ele>
        <time>2022-12-10T10:50:34.168Z</time>
      </trkpt>
      <trkpt lat="48.31404" lon="-4.21787">
        <ele>62.331366</ele>
        <time>2022-12-10T10:50:36.164Z</time>
      </trkpt>
      <trkpt lat="48.31401" lon="-4.21772">
        <ele>62.34433</ele>
        <time>2022-12-10T10:50:38.160Z</time>
      </trkpt>
      <trkpt lat="48.31398" lon="-4.21758">
        <ele>62.356936</ele>
        <time>2022-12-10T10:50:40.167Z</time>
      </trkpt>
      <trkpt lat="48.31395" lon="-4.21743">
        <ele>62.3697</ele>
        <time>2022-12-10T10:50:42.173Z</time>
      </trkpt>
      <trkpt lat="48.31391" lon="-4.21731">
        <ele>62.381666</ele>
        <time>2022-12-10T10:50:44.160Z</time>
      </trkpt>
      <trkpt lat="48.31387" lon="-4.21712">
        <ele>62.397594</ele>
        <time>2022-12-10T10:50:47.169Z</time>
      </trkpt>
      <trkpt lat="48.31385" lon="-4.21696">
        <ele>62.41133</ele>
        <time>2022-12-10T10:50:50.168Z</time>
      </trkpt>
      <trkpt lat="48.31381" lon="-4.21679">
        <ele>62.426408</ele>
        <time>2022-12-10T10:50:53.157Z</time>
      </trkpt>
      <trkpt lat="48.31379" lon="-4.21662">
        <ele>62.441348</ele>
        <time>2022-12-10T10:50:56.170Z</time>
      </trkpt>
      <trkpt lat="48.31375" lon="-4.21646">
        <ele>62.579125</ele>
        <time>2022-12-10T10:50:59.157Z</time>
      </trkpt>
      <trkpt lat="48.31371" lon="-4.21628">
        <ele>62.909621</ele>
        <time>2022-12-10T10:51:02.152Z</time>
      </trkpt>
      <trkpt lat="48.31368" lon="-4.21611">
        <ele>63.207781</ele>
        <time>2022-12-10T10:51:05.171Z</time>
      </trkpt>
      <trkpt lat="48.31365" lon="-4.21596">
        <ele>63.466275</ele>
        <time>2022-12-10T10:51:08.166Z</time>
      </trkpt>
      <trkpt lat="48.31361" lon="-4.21583">
        <ele>63.710461</ele>
        <time>2022-12-10T10:51:11.165Z</time>
      </trkpt>
      <trkpt lat="48.31359" lon="-4.21568">
        <ele>63.97905</ele>
        <time>2022-12-10T10:51:14.170Z</time>
      </trkpt>
      <trkpt lat="48.31356" lon="-4.21554">
        <ele>64.235037</ele>
        <time>2022-12-10T10:51:17.169Z</time>
      </trkpt>
      <trkpt lat="48.31352" lon="-4.21536">
        <ele>64.54065</ele>
        <time>2022-12-10T10:51:21.167Z</time>
      </trkpt>
      <trkpt lat="48.31351" lon="-4.21522">
        <ele>64.784032</ele>
        <time>2022-12-10T10:51:24.160Z</time>
      </trkpt>
      <trkpt lat="48.31348" lon="-4.21505">
        <ele>65.079096</ele>
        <time>2022-12-10T10:51:28.168Z</time>
      </trkpt>
      <trkpt lat="48.31346" lon="-4.21489">
        <ele>65.372605</ele>
        <time>2022-12-10T10:51:32.160Z</time>
      </trkpt>
      <trkpt lat="48.31344" lon="-4.21472">
        <ele>65.660613</ele>
        <time>2022-12-10T10:51:36.172Z</time>
      </trkpt>
      <trkpt lat="48.31342" lon="-4.21457">
        <ele>65.930069</ele>
        <time>2022-12-10T10:51:40.168Z</time>
      </trkpt>
      <trkpt lat="48.31339" lon="-4.21441">
        <ele>66.205921</ele>
        <time>2022-12-10T10:51:44.159Z</time>
      </trkpt>
      <trkpt lat="48.31336" lon="-4.21425">
        <ele>66.495629</ele>
        <time>2022-12-10T10:51:48.174Z</time>
      </trkpt>
      <trkpt lat="48.31335" lon="-4.21408">
        <ele>66.775084</ele>
        <time>2022-12-10T10:51:53.144Z</time>
      </trkpt>
      <trkpt lat="48.31333" lon="-4.21393">
        <ele>67.037427</ele>
        <time>2022-12-10T10:51:57.168Z</time>
      </trkpt>
      <trkpt lat="48.31331" lon="-4.21377">
        <ele>67.288932</ele>
        <time>2022-12-10T10:52:01.168Z</time>
      </trkpt>
      <trkpt lat="48.31328" lon="-4.21362">
        <ele>67.532809</ele>
        <time>2022-12-10T10:52:05.165Z</time>
      </trkpt>
      <trkpt lat="48.31326" lon="-4.21347">
        <ele>67.754915</ele>
        <time>2022-12-10T10:52:10.168Z</time>
      </trkpt>
      <trkpt lat="48.31324" lon="-4.21334">
        <ele>67.967611</ele>
        <time>2022-12-10T10:52:15.154Z</time>
      </trkpt>
      <trkpt lat="48.31322" lon="-4.21317">
        <ele>68.225879</ele>
        <time>2022-12-10T10:52:20.142Z</time>
      </trkpt>
      <trkpt lat="48.31318" lon="-4.21302">
        <ele>68.476271</ele>
        <time>2022-12-10T10:52:25.148Z</time>
      </trkpt>
      <trkpt lat="48.31316" lon="-4.21287">
        <ele>68.711422</ele>
        <time>2022-12-10T10:52:30.173Z</time>
      </trkpt>
      <trkpt lat="48.31314" lon="-4.21271">
        <ele>68.955299</ele>
        <time>2022-12-10T10:52:35.148Z</time>
      </trkpt>
      <trkpt lat="48.31311" lon="-4.21256">
        <ele>69.191763</ele>
        <time>2022-12-10T10:52:40.165Z</time>
      </trkpt>
      <trkpt lat="48.31309" lon="-4.2124">
        <ele>69.445715</ele>
        <time>2022-12-10T10:52:45.143Z</time>
      </trkpt>
      <trkpt lat="48.31306" lon="-4.21223">
        <ele>69.702127</ele>
        <time>2022-12-10T10:52:50.165Z</time>
      </trkpt>
      <trkpt lat="48.31304" lon="-4.2121">
        <ele>69.920586</ele>
        <time>2022-12-10T10:52:54.166Z</time>
      </trkpt>
      <trkpt lat="48.31302" lon="-4.21195">
        <ele>70.140662</ele>
        <time>2022-12-10T10:52:59.161Z</time>
      </trkpt>
      <trkpt lat="48.31299" lon="-4.21181">
        <ele>70.363999</ele>
        <time>2022-12-10T10:53:04.167Z</time>
      </trkpt>
      <trkpt lat="48.31297" lon="-4.21168">
        <ele>70.570965</ele>
        <time>2022-12-10T10:53:08.151Z</time>
      </trkpt>
      <trkpt lat="48.31296" lon="-4.21154">
        <ele>70.791829</ele>
        <time>2022-12-10T10:53:12.167Z</time>
      </trkpt>
      <trkpt lat="48.31293" lon="-4.21139">
        <ele>71.02332</ele>
        <time>2022-12-10T10:53:16.171Z</time>
      </trkpt>
      <trkpt lat="48.31292" lon="-4.21124">
        <ele>71.188793</ele>
        <time>2022-12-10T10:53:20.161Z</time>
      </trkpt>
      <trkpt lat="48.3129" lon="-4.2111">
        <ele>71.20083</ele>
        <time>2022-12-10T10:53:24.170Z</time>
      </trkpt>
      <trkpt lat="48.31288" lon="-4.21094">
        <ele>71.213364</ele>
        <time>2022-12-10T10:53:28.173Z</time>
      </trkpt>
      <trkpt lat="48.31286" lon="-4.2108">
        <ele>71.225454</ele>
        <time>2022-12-10T10:53:32.168Z</time>
      </trkpt>
      <trkpt lat="48.31283" lon="-4.21065">
        <ele>71.237794</ele>
        <time>2022-12-10T10:53:36.172Z</time>
      </trkpt>
      <trkpt lat="48.31281" lon="-4.21049">
        <ele>71.251088</ele>
        <time>2022-12-10T10:53:40.158Z</time>
      </trkpt>
      <trkpt lat="48.31278" lon="-4.21032">
        <ele>71.264811</ele>
        <time>2022-12-10T10:53:44.168Z</time>
      </trkpt>
      <trkpt lat="48.31275" lon="-4.21016">
        <ele>71.27824</ele>
        <time>2022-12-10T10:53:48.159Z</time>
      </trkpt>
      <trkpt lat="48.31273" lon="-4.21">
        <ele>71.291717</ele>
        <time>2022-12-10T10:53:52.169Z</time>
      </trkpt>
      <trkpt lat="48.3127" lon="-4.20985">
        <ele>71.304004</ele>
        <time>2022-12-10T10:53:56.143Z</time>
      </trkpt>
      <trkpt lat="48.31267" lon="-4.20971">
        <ele>71.316189</ele>
        <time>2022-12-10T10:54:00.160Z</time>
      </trkpt>
      <trkpt lat="48.31265" lon="-4.20956">
        <ele>71.32797</ele>
        <time>2022-12-10T10:54:03.172Z</time>
      </trkpt>
      <trkpt lat="48.31261" lon="-4.20942">
        <ele>71.34037</ele>
        <time>2022-12-10T10:54:06.168Z</time>
      </trkpt>
      <trkpt lat="48.31258" lon="-4.20928">
        <ele>71.352274</ele>
        <time>2022-12-10T10:54:09.172Z</time>
      </trkpt>
      <trkpt lat="48.31255" lon="-4.20914">
        <ele>71.363719</ele>
        <time>2022-12-10T10:54:12.169Z</time>
      </trkpt>
      <trkpt lat="48.31251" lon="-4.20897">
        <ele>71.378193</ele>
        <time>2022-12-10T10:54:16.157Z</time>
      </trkpt>
      <trkpt lat="48.31248" lon="-4.20884">
        <ele>71.389677</ele>
        <time>2022-12-10T10:54:19.169Z</time>
      </trkpt>
      <trkpt lat="48.31245" lon="-4.20869">
        <ele>71.401929</ele>
        <time>2022-12-10T10:54:22.169Z</time>
      </trkpt>
      <trkpt lat="48.31243" lon="-4.20855">
        <ele>71.595705</ele>
        <time>2022-12-10T10:54:25.163Z</time>
      </trkpt>
      <trkpt lat="48.31241" lon="-4.20842">
        <ele>71.797505</ele>
        <time>2022-12-10T10:54:28.172Z</time>
      </trkpt>
      <trkpt lat="48.3124" lon="-4.20825">
        <ele>72.048257</ele>
        <time>2022-12-10T10:54:32.159Z</time>
      </trkpt>
      <trkpt lat="48.31238" lon="-4.20808">
        <ele>72.305173</ele>
        <time>2022-12-10T10:54:36.167Z</time>
      </trkpt>
      <trkpt lat="48.31238" lon="-4.20794">
        <ele>72.516818</ele>
        <time>2022-12-10T10:54:39.139Z</time>
      </trkpt>
      <trkpt lat="48.31238" lon="-4.20779">
        <ele>72.731501</ele>
        <time>2022-12-10T10:54:42.167Z</time>
      </trkpt>
      <trkpt lat="48.31239" lon="-4.20766">
        <ele>72.935082</ele>
        <time>2022-12-10T10:54:45.168Z</time>
      </trkpt>
      <trkpt lat="48.31242" lon="-4.20748">
        <ele>73.198896</ele>
        <time>2022-12-10T10:54:49.167Z</time>
      </trkpt>
      <trkpt lat="48.31245" lon="-4.20735">
        <ele>73.408853</ele>
        <time>2022-12-10T10:54:53.169Z</time>
      </trkpt>
      <trkpt lat="48.31248" lon="-4.20721">
        <ele>73.624356</ele>
        <time>2022-12-10T10:54:57.146Z</time>
      </trkpt>
      <trkpt lat="48.31251" lon="-4.20708">
        <ele>73.832669</ele>
        <time>2022-12-10T10:55:01.152Z</time>
      </trkpt>
      <trkpt lat="48.31254" lon="-4.20694">
        <ele>74.04654</ele>
        <time>2022-12-10T10:55:05.152Z</time>
      </trkpt>
      <trkpt lat="48.31256" lon="-4.20677">
        <ele>74.292553</ele>
        <time>2022-12-10T10:55:10.147Z</time>
      </trkpt>
      <trkpt lat="48.31258" lon="-4.20662">
        <ele>74.52932</ele>
        <time>2022-12-10T10:55:15.144Z</time>
      </trkpt>
      <trkpt lat="48.31259" lon="-4.20645">
        <ele>74.77098</ele>
        <time>2022-12-10T10:55:20.142Z</time>
      </trkpt>
      <trkpt lat="48.3126" lon="-4.20629">
        <ele>75.010997</ele>
        <time>2022-12-10T10:55:25.172Z</time>
      </trkpt>
      <trkpt lat="48.31259" lon="-4.20613">
        <ele>75.245244</ele>
        <time>2022-12-10T10:55:30.164Z</time>
      </trkpt>
      <trkpt lat="48.31258" lon="-4.20597">
        <ele>75.620097</ele>
        <time>2022-12-10T10:55:35.166Z</time>
      </trkpt>
      <trkpt lat="48.31255" lon="-4.20583">
        <ele>76.202638</ele>
        <time>2022-12-10T10:55:40.143Z</time>
      </trkpt>
      <trkpt lat="48.31253" lon="-4.2057">
        <ele>76.738281</ele>
        <time>2022-12-10T10:55:45.148Z</time>
      </trkpt>
      <trkpt lat="48.31249" lon="-4.20556">
        <ele>77.352439</ele>
        <time>2022-12-10T10:55:51.142Z</time>
      </trkpt>
      <trkpt lat="48.31246" lon="-4.20543">
        <ele>77.889608</ele>
        <time>2022-12-10T10:55:56.156Z</time>
      </trkpt>
      <trkpt lat="48.31241" lon="-4.20531">
        <ele>78.463753</ele>
        <time>2022-12-10T10:56:02.149Z</time>
      </trkpt>
      <trkpt lat="48.31236" lon="-4.20518">
        <ele>79.056159</ele>
        <time>2022-12-10T10:56:08.140Z</time>
      </trkpt>
      <trkpt lat="48.31231" lon="-4.20506">
        <ele>79.624792</ele>
        <time>2022-12-10T10:56:14.141Z</time>
      </trkpt>
      <trkpt lat="48.31225" lon="-4.20493">
        <ele>80.243454</ele>
        <time>2022-12-10T10:56:20.149Z</time>
      </trkpt>
      <trkpt lat="48.3122" lon="-4.2048">
        <ele>80.816107</ele>
        <time>2022-12-10T10:56:26.143Z</time>
      </trkpt>
      <trkpt lat="48.31214" lon="-4.20467">
        <ele>81.437837</ele>
        <time>2022-12-10T10:56:32.152Z</time>
      </trkpt>
      <trkpt lat="48.31209" lon="-4.20456">
        <ele>81.980079</ele>
        <time>2022-12-10T10:56:37.151Z</time>
      </trkpt>
      <trkpt lat="48.31204" lon="-4.20442">
        <ele>82.615416</ele>
        <time>2022-12-10T10:56:43.151Z</time>
      </trkpt>
      <trkpt lat="48.31198" lon="-4.20429">
        <ele>83.227129</ele>
        <time>2022-12-10T10:56:49.139Z</time>
      </trkpt>
      <trkpt lat="48.31193" lon="-4.20416">
        <ele>83.848747</ele>
        <time>2022-12-10T10:56:55.143Z</time>
      </trkpt>
      <trkpt lat="48.31187" lon="-4.20404">
        <ele>84.437208</ele>
        <time>2022-12-10T10:57:01.144Z</time>
      </trkpt>
      <trkpt lat="48.31183" lon="-4.2039">
        <ele>85.05362</ele>
        <time>2022-12-10T10:57:07.150Z</time>
      </trkpt>
      <trkpt lat="48.31177" lon="-4.20377">
        <ele>85.676306</ele>
        <time>2022-12-10T10:57:13.142Z</time>
      </trkpt>
      <trkpt lat="48.31172" lon="-4.20365">
        <ele>86.201705</ele>
        <time>2022-12-10T10:57:19.142Z</time>
      </trkpt>
      <trkpt lat="48.31167" lon="-4.20353">
        <ele>86.654901</ele>
        <time>2022-12-10T10:57:25.155Z</time>
      </trkpt>
      <trkpt lat="48.31162" lon="-4.20341">
        <ele>87.085875</ele>
        <time>2022-12-10T10:57:31.151Z</time>
      </trkpt>
      <trkpt lat="48.31157" lon="-4.20329">
        <ele>87.533903</ele>
        <time>2022-12-10T10:57:37.148Z</time>
      </trkpt>
      <trkpt lat="48.31152" lon="-4.20316">
        <ele>88.011722</ele>
        <time>2022-12-10T10:57:43.143Z</time>
      </trkpt>
      <trkpt lat="48.31146" lon="-4.20302">
        <ele>88.48613</ele>
        <time>2022-12-10T10:57:49.145Z</time>
      </trkpt>
      <trkpt lat="48.31142" lon="-4.2029">
        <ele>88.931681</ele>
        <time>2022-12-10T10:57:55.147Z</time>
      </trkpt>
      <trkpt lat="48.31138" lon="-4.20275">
        <ele>89.40577</ele>
        <time>2022-12-10T10:58:01.146Z</time>
      </trkpt>
      <trkpt lat="48.31134" lon="-4.20262">
        <ele>89.863842</ele>
        <time>2022-12-10T10:58:07.154Z</time>
      </trkpt>
      <trkpt lat="48.31131" lon="-4.20248">
        <ele>90.327465</ele>
        <time>2022-12-10T10:58:13.148Z</time>
      </trkpt>
      <trkpt lat="48.31127" lon="-4.20233">
        <ele>90.812883</ele>
        <time>2022-12-10T10:58:19.143Z</time>
      </trkpt>
      <trkpt lat="48.31123" lon="-4.20218">
        <ele>91.297284</ele>
        <time>2022-12-10T10:58:25.160Z</time>
      </trkpt>
      <trkpt lat="48.3112" lon="-4.20203">
        <ele>91.78005</ele>
        <time>2022-12-10T10:58:31.163Z</time>
      </trkpt>
      <trkpt lat="48.31118" lon="-4.2019">
        <ele>92.22188</ele>
        <time>2022-12-10T10:58:36.147Z</time>
      </trkpt>
      <trkpt lat="48.31115" lon="-4.20176">
        <ele>92.6757</ele>
        <time>2022-12-10T10:58:41.144Z</time>
      </trkpt>
      <trkpt lat="48.31112" lon="-4.20162">
        <ele>93.127638</ele>
        <time>2022-12-10T10:58:46.163Z</time>
      </trkpt>
      <trkpt lat="48.31109" lon="-4.20148">
        <ele>93.583919</ele>
        <time>2022-12-10T10:58:51.169Z</time>
      </trkpt>
      <trkpt lat="48.31107" lon="-4.20133">
        <ele>94.051296</ele>
        <time>2022-12-10T10:58:56.170Z</time>
      </trkpt>
      <trkpt lat="48.31103" lon="-4.20119">
        <ele>94.527958</ele>
        <time>2022-12-10T10:59:01.161Z</time>
      </trkpt>
      <trkpt lat="48.311" lon="-4.20104">
        <ele>94.86489</ele>
        <time>2022-12-10T10:59:06.168Z</time>
      </trkpt>
      <trkpt lat="48.31096" lon="-4.2009">
        <ele>95.222166</ele>
        <time>2022-12-10T10:59:11.144Z</time>
      </trkpt>
      <trkpt lat="48.31092" lon="-4.20075">
        <ele>95.578537</ele>
        <time>2022-12-10T10:59:16.162Z</time>
      </trkpt>
      <trkpt lat="48.31089" lon="-4.20062">
        <ele>95.910433</ele>
        <time>2022-12-10T10:59:21.143Z</time>
      </trkpt>
      <trkpt lat="48.31085" lon="-4.20047">
        <ele>96.260913</ele>
        <time>2022-12-10T10:59:26.169Z</time>
      </trkpt>
      <trkpt lat="48.31081" lon="-4.20034">
        <ele>96.594554</ele>
        <time>2022-12-10T10:59:31.146Z</time>
      </trkpt>
      <trkpt lat="48.31077" lon="-4.2002">
        <ele>96.93717</ele>
        <time>2022-12-10T10:59:36.169Z</time>
      </trkpt>
      <trkpt lat="48.31074" lon="-4.20007">
        <ele>97.260253</ele>
        <time>2022-12-10T10:59:41.155Z</time>
      </trkpt>
      <trkpt lat="48.31069" lon="-4.19992">
        <ele>97.618253</ele>
        <time>2022-12-10T10:59:46.155Z</time>
      </trkpt>
      <trkpt lat="48.31065" lon="-4.19978">
        <ele>97.977511</ele>
        <time>2022-12-10T10:59:51.170Z</time>
      </trkpt>
      <trkpt lat="48.3106" lon="-4.19964">
        <ele>98.341096</ele>
        <time>2022-12-10T10:59:56.169Z</time>
      </trkpt>
      <trkpt lat="48.31056" lon="-4.1995">
        <ele>98.69242</ele>
        <time>2022-12-10T11:00:01.144Z</time>
      </trkpt>
      <trkpt lat="48.31051" lon="-4.19936">
        <ele>99.045781</ele>
        <time>2022-12-10T11:00:06.171Z</time>
      </trkpt>
      <trkpt lat="48.31047" lon="-4.19923">
        <ele>99.37324</ele>
        <time>2022-12-10T11:00:11.167Z</time>
      </trkpt>
      <trkpt lat="48.31041" lon="-4.19908">
        <ele>99.760518</ele>
        <time>2022-12-10T11:00:16.172Z</time>
      </trkpt>
      <trkpt lat="48.31037" lon="-4.19896">
        <ele>100.084891</ele>
        <time>2022-12-10T11:00:20.155Z</time>
      </trkpt>
      <trkpt lat="48.31031" lon="-4.19884">
        <ele>100.412774</ele>
        <time>2022-12-10T11:00:24.168Z</time>
      </trkpt>
      <trkpt lat="48.31027" lon="-4.19872">
        <ele>100.708891</ele>
        <time>2022-12-10T11:00:28.173Z</time>
      </trkpt>
      <trkpt lat="48.31022" lon="-4.1986">
        <ele>100.954907</ele>
        <time>2022-12-10T11:00:32.167Z</time>
      </trkpt>
      <trkpt lat="48.31017" lon="-4.19847">
        <ele>101.199071</ele>
        <time>2022-12-10T11:00:36.166Z</time>
      </trkpt>
      <trkpt lat="48.31011" lon="-4.19833">
        <ele>101.481317</ele>
        <time>2022-12-10T11:00:41.167Z</time>
      </trkpt>
      <trkpt lat="48.31006" lon="-4.19821">
        <ele>101.721415</ele>
        <time>2022-12-10T11:00:45.168Z</time>
      </trkpt>
      <trkpt lat="48.31001" lon="-4.19808">
        <ele>101.982367</ele>
        <time>2022-12-10T11:00:50.171Z</time>
      </trkpt>
      <trkpt lat="48.30995" lon="-4.19797">
        <ele>102.219181</ele>
        <time>2022-12-10T11:00:54.171Z</time>
      </trkpt>
      <trkpt lat="48.30989" lon="-4.19783">
        <ele>102.501507</ele>
        <time>2022-12-10T11:00:58.168Z</time>
      </trkpt>
      <trkpt lat="48.30982" lon="-4.1977">
        <ele>102.791677</ele>
        <time>2022-12-10T11:01:02.170Z</time>
      </trkpt>
      <trkpt lat="48.30975" lon="-4.19756">
        <ele>103.086695</ele>
        <time>2022-12-10T11:01:06.171Z</time>
      </trkpt>
      <trkpt lat="48.30969" lon="-4.19742">
        <ele>103.384806</ele>
        <time>2022-12-10T11:01:10.173Z</time>
      </trkpt>
      <trkpt lat="48.30961" lon="-4.19728">
        <ele>103.685084</ele>
        <time>2022-12-10T11:01:14.170Z</time>
      </trkpt>
      <trkpt lat="48.30954" lon="-4.19715">
        <ele>103.966316</ele>
        <time>2022-12-10T11:01:18.171Z</time>
      </trkpt>
      <trkpt lat="48.30947" lon="-4.19702">
        <ele>104.264235</ele>
        <time>2022-12-10T11:01:22.171Z</time>
      </trkpt>
      <trkpt lat="48.30941" lon="-4.19691">
        <ele>104.496675</ele>
        <time>2022-12-10T11:01:25.161Z</time>
      </trkpt>
      <trkpt lat="48.30934" lon="-4.19678">
        <ele>104.781825</ele>
        <time>2022-12-10T11:01:29.169Z</time>
      </trkpt>
      <trkpt lat="48.30926" lon="-4.19666">
        <ele>105.066489</ele>
        <time>2022-12-10T11:01:33.171Z</time>
      </trkpt>
      <trkpt lat="48.30919" lon="-4.19654">
        <ele>105.303373</ele>
        <time>2022-12-10T11:01:37.170Z</time>
      </trkpt>
      <trkpt lat="48.30911" lon="-4.19641">
        <ele>105.428726</ele>
        <time>2022-12-10T11:01:41.164Z</time>
      </trkpt>
      <trkpt lat="48.30903" lon="-4.1963">
        <ele>105.553514</ele>
        <time>2022-12-10T11:01:45.158Z</time>
      </trkpt>
      <trkpt lat="48.30895" lon="-4.19618">
        <ele>105.677845</ele>
        <time>2022-12-10T11:01:49.166Z</time>
      </trkpt>
      <trkpt lat="48.30886" lon="-4.19607">
        <ele>105.809836</ele>
        <time>2022-12-10T11:01:53.165Z</time>
      </trkpt>
      <trkpt lat="48.30878" lon="-4.19595">
        <ele>105.939682</ele>
        <time>2022-12-10T11:01:57.171Z</time>
      </trkpt>
      <trkpt lat="48.30871" lon="-4.19585">
        <ele>106.046686</ele>
        <time>2022-12-10T11:02:01.167Z</time>
      </trkpt>
      <trkpt lat="48.30862" lon="-4.19575">
        <ele>106.165875</ele>
        <time>2022-12-10T11:02:05.171Z</time>
      </trkpt>
      <trkpt lat="48.30854" lon="-4.19564">
        <ele>106.293739</ele>
        <time>2022-12-10T11:02:09.170Z</time>
      </trkpt>
      <trkpt lat="48.30845" lon="-4.19552">
        <ele>106.425379</ele>
        <time>2022-12-10T11:02:13.162Z</time>
      </trkpt>
      <trkpt lat="48.30837" lon="-4.19543">
        <ele>106.536612</ele>
        <time>2022-12-10T11:02:17.153Z</time>
      </trkpt>
      <trkpt lat="48.30829" lon="-4.19532">
        <ele>106.658551</ele>
        <time>2022-12-10T11:02:21.146Z</time>
      </trkpt>
      <trkpt lat="48.30822" lon="-4.19524">
        <ele>106.762018</ele>
        <time>2022-12-10T11:02:24.172Z</time>
      </trkpt>
      <trkpt lat="48.30813" lon="-4.19513">
        <ele>106.885695</ele>
        <time>2022-12-10T11:02:28.172Z</time>
      </trkpt>
      <trkpt lat="48.30805" lon="-4.19504">
        <ele>106.99591</ele>
        <time>2022-12-10T11:02:32.166Z</time>
      </trkpt>
      <trkpt lat="48.30797" lon="-4.19495">
        <ele>107.109293</ele>
        <time>2022-12-10T11:02:36.170Z</time>
      </trkpt>
      <trkpt lat="48.30788" lon="-4.19486">
        <ele>107.226712</ele>
        <time>2022-12-10T11:02:40.174Z</time>
      </trkpt>
      <trkpt lat="48.30779" lon="-4.19477">
        <ele>107.099608</ele>
        <time>2022-12-10T11:02:44.160Z</time>
      </trkpt>
      <trkpt lat="48.30769" lon="-4.19467">
        <ele>106.745534</ele>
        <time>2022-12-10T11:02:48.167Z</time>
      </trkpt>
      <trkpt lat="48.30761" lon="-4.19459">
        <ele>106.462053</ele>
        <time>2022-12-10T11:02:51.163Z</time>
      </trkpt>
      <trkpt lat="48.30753" lon="-4.19451">
        <ele>106.171272</ele>
        <time>2022-12-10T11:02:54.173Z</time>
      </trkpt>
      <trkpt lat="48.30745" lon="-4.19442">
        <ele>105.879894</ele>
        <time>2022-12-10T11:02:57.169Z</time>
      </trkpt>
      <trkpt lat="48.30737" lon="-4.19433">
        <ele>105.590864</ele>
        <time>2022-12-10T11:03:00.154Z</time>
      </trkpt>
      <trkpt lat="48.30729" lon="-4.19425">
        <ele>105.299249</ele>
        <time>2022-12-10T11:03:03.166Z</time>
      </trkpt>
      <trkpt lat="48.30721" lon="-4.19415">
        <ele>104.99734</ele>
        <time>2022-12-10T11:03:06.166Z</time>
      </trkpt>
      <trkpt lat="48.30712" lon="-4.19407">
        <ele>104.686157</ele>
        <time>2022-12-10T11:03:09.166Z</time>
      </trkpt>
      <trkpt lat="48.30702" lon="-4.19398">
        <ele>104.354246</ele>
        <time>2022-12-10T11:03:12.144Z</time>
      </trkpt>
      <trkpt lat="48.30693" lon="-4.19389">
        <ele>104.043063</ele>
        <time>2022-12-10T11:03:15.169Z</time>
      </trkpt>
      <trkpt lat="48.30685" lon="-4.1938">
        <ele>103.736415</ele>
        <time>2022-12-10T11:03:18.172Z</time>
      </trkpt>
      <trkpt lat="48.30675" lon="-4.19372">
        <ele>103.423276</ele>
        <time>2022-12-10T11:03:21.171Z</time>
      </trkpt>
      <trkpt lat="48.30667" lon="-4.19364">
        <ele>103.13813</ele>
        <time>2022-12-10T11:03:24.170Z</time>
      </trkpt>
      <trkpt lat="48.30659" lon="-4.19356">
        <ele>102.852579</ele>
        <time>2022-12-10T11:03:27.174Z</time>
      </trkpt>
      <trkpt lat="48.3065" lon="-4.19347">
        <ele>102.547732</ele>
        <time>2022-12-10T11:03:30.169Z</time>
      </trkpt>
      <trkpt lat="48.30641" lon="-4.19339">
        <ele>102.22496</ele>
        <time>2022-12-10T11:03:33.167Z</time>
      </trkpt>
      <trkpt lat="48.30632" lon="-4.19329">
        <ele>101.797449</ele>
        <time>2022-12-10T11:03:36.171Z</time>
      </trkpt>
      <trkpt lat="48.30623" lon="-4.1932">
        <ele>101.228193</ele>
        <time>2022-12-10T11:03:39.173Z</time>
      </trkpt>
      <trkpt lat="48.30614" lon="-4.19311">
        <ele>100.668946</ele>
        <time>2022-12-10T11:03:42.173Z</time>
      </trkpt>
      <trkpt lat="48.30605" lon="-4.19302">
        <ele>100.113065</ele>
        <time>2022-12-10T11:03:45.169Z</time>
      </trkpt>
      <trkpt lat="48.30596" lon="-4.19293">
        <ele>99.528288</ele>
        <time>2022-12-10T11:03:48.170Z</time>
      </trkpt>
      <trkpt lat="48.30587" lon="-4.19283">
        <ele>98.91196</ele>
        <time>2022-12-10T11:03:51.156Z</time>
      </trkpt>
      <trkpt lat="48.30577" lon="-4.19272">
        <ele>98.278951</ele>
        <time>2022-12-10T11:03:54.163Z</time>
      </trkpt>
      <trkpt lat="48.30567" lon="-4.19261">
        <ele>97.618259</ele>
        <time>2022-12-10T11:03:57.173Z</time>
      </trkpt>
      <trkpt lat="48.30558" lon="-4.19248">
        <ele>96.948171</ele>
        <time>2022-12-10T11:04:00.155Z</time>
      </trkpt>
      <trkpt lat="48.3055" lon="-4.19235">
        <ele>96.300039</ele>
        <time>2022-12-10T11:04:03.168Z</time>
      </trkpt>
      <trkpt lat="48.30542" lon="-4.19222">
        <ele>95.683772</ele>
        <time>2022-12-10T11:04:06.167Z</time>
      </trkpt>
      <trkpt lat="48.30535" lon="-4.19209">
        <ele>95.096814</ele>
        <time>2022-12-10T11:04:09.172Z</time>
      </trkpt>
      <trkpt lat="48.30527" lon="-4.19197">
        <ele>94.509943</ele>
        <time>2022-12-10T11:04:12.149Z</time>
      </trkpt>
      <trkpt lat="48.3052" lon="-4.19185">
        <ele>93.932995</ele>
        <time>2022-12-10T11:04:15.173Z</time>
      </trkpt>
      <trkpt lat="48.30513" lon="-4.19172">
        <ele>93.341109</ele>
        <time>2022-12-10T11:04:18.205Z</time>
      </trkpt>
      <trkpt lat="48.30504" lon="-4.1916">
        <ele>92.711724</ele>
        <time>2022-12-10T11:04:21.169Z</time>
      </trkpt>
      <trkpt lat="48.30496" lon="-4.19148">
        <ele>92.291985</ele>
        <time>2022-12-10T11:04:24.170Z</time>
      </trkpt>
      <trkpt lat="48.30488" lon="-4.19138">
        <ele>92.034961</ele>
        <time>2022-12-10T11:04:27.176Z</time>
      </trkpt>
      <trkpt lat="48.3048" lon="-4.19128">
        <ele>91.779386</ele>
        <time>2022-12-10T11:04:30.177Z</time>
      </trkpt>
      <trkpt lat="48.30471" lon="-4.19119">
        <ele>91.507035</ele>
        <time>2022-12-10T11:04:33.155Z</time>
      </trkpt>
      <trkpt lat="48.3046" lon="-4.1911">
        <ele>91.205825</ele>
        <time>2022-12-10T11:04:36.171Z</time>
      </trkpt>
      <trkpt lat="48.30449" lon="-4.19102">
        <ele>90.8999</ele>
        <time>2022-12-10T11:04:39.167Z</time>
      </trkpt>
      <trkpt lat="48.30437" lon="-4.19095">
        <ele>90.586099</ele>
        <time>2022-12-10T11:04:42.165Z</time>
      </trkpt>
      <trkpt lat="48.30426" lon="-4.1909">
        <ele>90.284937</ele>
        <time>2022-12-10T11:04:45.154Z</time>
      </trkpt>
      <trkpt lat="48.30414" lon="-4.19087">
        <ele>89.99077</ele>
        <time>2022-12-10T11:04:48.161Z</time>
      </trkpt>
      <trkpt lat="48.30403" lon="-4.19084">
        <ele>89.720868</ele>
        <time>2022-12-10T11:04:51.146Z</time>
      </trkpt>
      <trkpt lat="48.30393" lon="-4.19083">
        <ele>89.474418</ele>
        <time>2022-12-10T11:04:54.158Z</time>
      </trkpt>
      <trkpt lat="48.30384" lon="-4.19082">
        <ele>89.227808</ele>
        <time>2022-12-10T11:04:57.159Z</time>
      </trkpt>
      <trkpt lat="48.30374" lon="-4.1908">
        <ele>88.982908</ele>
        <time>2022-12-10T11:05:00.156Z</time>
      </trkpt>
      <trkpt lat="48.30364" lon="-4.19079">
        <ele>88.741934</ele>
        <time>2022-12-10T11:05:03.174Z</time>
      </trkpt>
      <trkpt lat="48.30354" lon="-4.19077">
        <ele>88.495484</ele>
        <time>2022-12-10T11:05:06.170Z</time>
      </trkpt>
      <trkpt lat="48.30344" lon="-4.19076">
        <ele>88.237388</ele>
        <time>2022-12-10T11:05:09.169Z</time>
      </trkpt>
      <trkpt lat="48.30333" lon="-4.19076">
        <ele>87.97824</ele>
        <time>2022-12-10T11:05:12.169Z</time>
      </trkpt>
      <trkpt lat="48.30323" lon="-4.19075">
        <ele>87.701132</ele>
        <time>2022-12-10T11:05:15.172Z</time>
      </trkpt>
      <trkpt lat="48.30312" lon="-4.19074">
        <ele>87.421261</ele>
        <time>2022-12-10T11:05:18.176Z</time>
      </trkpt>
      <trkpt lat="48.30302" lon="-4.19073">
        <ele>87.139019</ele>
        <time>2022-12-10T11:05:21.147Z</time>
      </trkpt>
      <trkpt lat="48.30291" lon="-4.19072">
        <ele>86.845206</ele>
        <time>2022-12-10T11:05:24.174Z</time>
      </trkpt>
      <trkpt lat="48.30279" lon="-4.19071">
        <ele>86.533251</ele>
        <time>2022-12-10T11:05:27.157Z</time>
      </trkpt>
      <trkpt lat="48.30268" lon="-4.1907">
        <ele>86.23203</ele>
        <time>2022-12-10T11:05:30.169Z</time>
      </trkpt>
      <trkpt lat="48.30257" lon="-4.19068">
        <ele>85.943516</ele>
        <time>2022-12-10T11:05:33.173Z</time>
      </trkpt>
      <trkpt lat="48.30246" lon="-4.19067">
        <ele>85.655681</ele>
        <time>2022-12-10T11:05:36.170Z</time>
      </trkpt>
      <trkpt lat="48.30235" lon="-4.19066">
        <ele>85.36519</ele>
        <time>2022-12-10T11:05:39.143Z</time>
      </trkpt>
      <trkpt lat="48.30224" lon="-4.19065">
        <ele>85.068882</ele>
        <time>2022-12-10T11:05:42.155Z</time>
      </trkpt>
      <trkpt lat="48.30213" lon="-4.19064">
        <ele>84.770525</ele>
        <time>2022-12-10T11:05:45.147Z</time>
      </trkpt>
      <trkpt lat="48.30202" lon="-4.19062">
        <ele>84.48466</ele>
        <time>2022-12-10T11:05:48.156Z</time>
      </trkpt>
      <trkpt lat="48.30192" lon="-4.19062">
        <ele>84.207958</ele>
        <time>2022-12-10T11:05:51.170Z</time>
      </trkpt>
      <trkpt lat="48.30181" lon="-4.1906">
        <ele>83.919444</ele>
        <time>2022-12-10T11:05:54.171Z</time>
      </trkpt>
      <trkpt lat="48.30171" lon="-4.19059">
        <ele>83.639328</ele>
        <time>2022-12-10T11:05:57.171Z</time>
      </trkpt>
      <trkpt lat="48.3016" lon="-4.19058">
        <ele>83.343627</ele>
        <time>2022-12-10T11:06:00.166Z</time>
      </trkpt>
      <trkpt lat="48.30148" lon="-4.19057">
        <ele>83.033818</ele>
        <time>2022-12-10T11:06:03.171Z</time>
      </trkpt>
      <trkpt lat="48.30137" lon="-4.19056">
        <ele>82.720842</ele>
        <time>2022-12-10T11:06:06.166Z</time>
      </trkpt>
      <trkpt lat="48.30126" lon="-4.19054">
        <ele>82.423681</ele>
        <time>2022-12-10T11:06:09.155Z</time>
      </trkpt>
      <trkpt lat="48.30115" lon="-4.19053">
        <ele>82.138931</ele>
        <time>2022-12-10T11:06:12.155Z</time>
      </trkpt>
      <trkpt lat="48.30106" lon="-4.19051">
        <ele>81.87653</ele>
        <time>2022-12-10T11:06:15.171Z</time>
      </trkpt>
      <trkpt lat="48.30097" lon="-4.1905">
        <ele>81.632096</ele>
        <time>2022-12-10T11:06:18.173Z</time>
      </trkpt>
      <trkpt lat="48.30085" lon="-4.19048">
        <ele>81.314528</ele>
        <time>2022-12-10T11:06:22.169Z</time>
      </trkpt>
      <trkpt lat="48.30076" lon="-4.19045">
        <ele>81.068117</ele>
        <time>2022-12-10T11:06:25.172Z</time>
      </trkpt>
      <trkpt lat="48.30067" lon="-4.19041">
        <ele>80.816796</ele>
        <time>2022-12-10T11:06:28.145Z</time>
      </trkpt>
      <trkpt lat="48.30058" lon="-4.19036">
        <ele>80.556778</ele>
        <time>2022-12-10T11:06:31.166Z</time>
      </trkpt>
      <trkpt lat="48.3005" lon="-4.19028">
        <ele>80.285888</ele>
        <time>2022-12-10T11:06:34.156Z</time>
      </trkpt>
      <trkpt lat="48.3004" lon="-4.19021">
        <ele>79.995933</ele>
        <time>2022-12-10T11:06:37.171Z</time>
      </trkpt>
      <trkpt lat="48.30031" lon="-4.19013">
        <ele>79.705832</ele>
        <time>2022-12-10T11:06:40.170Z</time>
      </trkpt>
      <trkpt lat="48.30022" lon="-4.19005">
        <ele>79.439611</ele>
        <time>2022-12-10T11:06:43.174Z</time>
      </trkpt>
      <trkpt lat="48.30015" lon="-4.18997">
        <ele>79.17959</ele>
        <time>2022-12-10T11:06:46.170Z</time>
      </trkpt>
      <trkpt lat="48.30006" lon="-4.18988">
        <ele>78.907601</ele>
        <time>2022-12-10T11:06:49.170Z</time>
      </trkpt>
      <trkpt lat="48.29997" lon="-4.18979">
        <ele>78.617924</ele>
        <time>2022-12-10T11:06:52.168Z</time>
      </trkpt>
      <trkpt lat="48.2999" lon="-4.18969">
        <ele>78.343843</ele>
        <time>2022-12-10T11:06:55.169Z</time>
      </trkpt>
      <trkpt lat="48.29983" lon="-4.18959">
        <ele>77.97968</ele>
        <time>2022-12-10T11:06:58.167Z</time>
      </trkpt>
      <trkpt lat="48.29976" lon="-4.18948">
        <ele>77.617024</ele>
        <time>2022-12-10T11:07:01.172Z</time>
      </trkpt>
      <trkpt lat="48.29969" lon="-4.18937">
        <ele>77.251075</ele>
        <time>2022-12-10T11:07:04.148Z</time>
      </trkpt>
      <trkpt lat="48.29963" lon="-4.18926">
        <ele>76.896927</ele>
        <time>2022-12-10T11:07:07.171Z</time>
      </trkpt>
      <trkpt lat="48.29958" lon="-4.18915">
        <ele>76.562438</ele>
        <time>2022-12-10T11:07:10.173Z</time>
      </trkpt>
      <trkpt lat="48.29953" lon="-4.18902">
        <ele>76.219346</ele>
        <time>2022-12-10T11:07:13.172Z</time>
      </trkpt>
      <trkpt lat="48.29949" lon="-4.1889">
        <ele>75.883971</ele>
        <time>2022-12-10T11:07:16.166Z</time>
      </trkpt>
      <trkpt lat="48.29946" lon="-4.18877">
        <ele>75.539782</ele>
        <time>2022-12-10T11:07:19.168Z</time>
      </trkpt>
      <trkpt lat="48.29944" lon="-4.18863">
        <ele>75.206072</ele>
        <time>2022-12-10T11:07:22.158Z</time>
      </trkpt>
      <trkpt lat="48.29942" lon="-4.18849">
        <ele>74.85189</ele>
        <time>2022-12-10T11:07:25.169Z</time>
      </trkpt>
      <trkpt lat="48.29942" lon="-4.18834">
        <ele>74.479099</ele>
        <time>2022-12-10T11:07:28.149Z</time>
      </trkpt>
      <trkpt lat="48.29941" lon="-4.18818">
        <ele>74.086451</ele>
        <time>2022-12-10T11:07:31.169Z</time>
      </trkpt>
      <trkpt lat="48.29939" lon="-4.18802">
        <ele>73.696343</ele>
        <time>2022-12-10T11:07:34.168Z</time>
      </trkpt>
      <trkpt lat="48.29938" lon="-4.18788">
        <ele>73.345848</ele>
        <time>2022-12-10T11:07:37.146Z</time>
      </trkpt>
      <trkpt lat="48.29937" lon="-4.18774">
        <ele>73.016009</ele>
        <time>2022-12-10T11:07:40.162Z</time>
      </trkpt>
      <trkpt lat="48.29936" lon="-4.1876">
        <ele>72.665092</ele>
        <time>2022-12-10T11:07:43.172Z</time>
      </trkpt>
      <trkpt lat="48.29935" lon="-4.18744">
        <ele>72.280066</ele>
        <time>2022-12-10T11:07:46.146Z</time>
      </trkpt>
      <trkpt lat="48.29934" lon="-4.18727">
        <ele>71.86334</ele>
        <time>2022-12-10T11:07:49.171Z</time>
      </trkpt>
      <trkpt lat="48.29933" lon="-4.18708">
        <ele>71.563037</ele>
        <time>2022-12-10T11:07:52.181Z</time>
      </trkpt>
      <trkpt lat="48.29931" lon="-4.18689">
        <ele>71.295251</ele>
        <time>2022-12-10T11:07:55.175Z</time>
      </trkpt>
      <trkpt lat="48.2993" lon="-4.18675">
        <ele>71.106598</ele>
        <time>2022-12-10T11:07:57.176Z</time>
      </trkpt>
      <trkpt lat="48.2993" lon="-4.18661">
        <ele>70.914663</ele>
        <time>2022-12-10T11:07:59.170Z</time>
      </trkpt>
      <trkpt lat="48.29928" lon="-4.18648">
        <ele>70.726523</ele>
        <time>2022-12-10T11:08:01.169Z</time>
      </trkpt>
      <trkpt lat="48.29927" lon="-4.18634">
        <ele>70.54004</ele>
        <time>2022-12-10T11:08:03.170Z</time>
      </trkpt>
      <trkpt lat="48.29925" lon="-4.1862">
        <ele>70.338754</ele>
        <time>2022-12-10T11:08:05.170Z</time>
      </trkpt>
      <trkpt lat="48.29924" lon="-4.18606">
        <ele>70.144892</ele>
        <time>2022-12-10T11:08:07.169Z</time>
      </trkpt>
      <trkpt lat="48.29922" lon="-4.18592">
        <ele>69.951297</ele>
        <time>2022-12-10T11:08:09.169Z</time>
      </trkpt>
      <trkpt lat="48.2992" lon="-4.18578">
        <ele>69.758623</ele>
        <time>2022-12-10T11:08:11.171Z</time>
      </trkpt>
      <trkpt lat="48.29918" lon="-4.18563">
        <ele>69.553968</ele>
        <time>2022-12-10T11:08:13.170Z</time>
      </trkpt>
      <trkpt lat="48.29915" lon="-4.18549">
        <ele>69.352619</ele>
        <time>2022-12-10T11:08:15.171Z</time>
      </trkpt>
      <trkpt lat="48.29912" lon="-4.18535">
        <ele>69.145623</ele>
        <time>2022-12-10T11:08:17.147Z</time>
      </trkpt>
      <trkpt lat="48.29909" lon="-4.1852">
        <ele>68.928869</ele>
        <time>2022-12-10T11:08:19.146Z</time>
      </trkpt>
      <trkpt lat="48.29905" lon="-4.18506">
        <ele>68.72546</ele>
        <time>2022-12-10T11:08:21.159Z</time>
      </trkpt>
      <trkpt lat="48.29902" lon="-4.18492">
        <ele>68.523692</ele>
        <time>2022-12-10T11:08:23.171Z</time>
      </trkpt>
      <trkpt lat="48.29898" lon="-4.18479">
        <ele>68.332463</ele>
        <time>2022-12-10T11:08:25.171Z</time>
      </trkpt>
      <trkpt lat="48.29894" lon="-4.18466">
        <ele>68.137085</ele>
        <time>2022-12-10T11:08:27.167Z</time>
      </trkpt>
      <trkpt lat="48.2989" lon="-4.18454">
        <ele>67.756691</ele>
        <time>2022-12-10T11:08:29.172Z</time>
      </trkpt>
      <trkpt lat="48.29885" lon="-4.18436">
        <ele>67.058405</ele>
        <time>2022-12-10T11:08:32.159Z</time>
      </trkpt>
      <trkpt lat="48.2988" lon="-4.18421">
        <ele>66.443375</ele>
        <time>2022-12-10T11:08:35.168Z</time>
      </trkpt>
      <trkpt lat="48.29875" lon="-4.18406">
        <ele>65.844544</ele>
        <time>2022-12-10T11:08:38.176Z</time>
      </trkpt>
      <trkpt lat="48.29871" lon="-4.1839">
        <ele>65.236169</ele>
        <time>2022-12-10T11:08:41.168Z</time>
      </trkpt>
      <trkpt lat="48.29866" lon="-4.18375">
        <ele>64.631255</ele>
        <time>2022-12-10T11:08:44.151Z</time>
      </trkpt>
      <trkpt lat="48.29861" lon="-4.18359">
        <ele>64.008736</ele>
        <time>2022-12-10T11:08:47.164Z</time>
      </trkpt>
      <trkpt lat="48.29856" lon="-4.18343">
        <ele>63.358753</ele>
        <time>2022-12-10T11:08:50.167Z</time>
      </trkpt>
      <trkpt lat="48.29852" lon="-4.18326">
        <ele>62.717597</ele>
        <time>2022-12-10T11:08:53.167Z</time>
      </trkpt>
      <trkpt lat="48.29846" lon="-4.1831">
        <ele>62.069548</ele>
        <time>2022-12-10T11:08:56.167Z</time>
      </trkpt>
      <trkpt lat="48.29841" lon="-4.18294">
        <ele>61.414274</ele>
        <time>2022-12-10T11:08:59.151Z</time>
      </trkpt>
      <trkpt lat="48.29835" lon="-4.18278">
        <ele>60.752573</ele>
        <time>2022-12-10T11:09:02.166Z</time>
      </trkpt>
      <trkpt lat="48.29829" lon="-4.18261">
        <ele>60.044063</ele>
        <time>2022-12-10T11:09:05.147Z</time>
      </trkpt>
      <trkpt lat="48.29822" lon="-4.18244">
        <ele>59.338628</ele>
        <time>2022-12-10T11:09:08.162Z</time>
      </trkpt>
      <trkpt lat="48.29814" lon="-4.18227">
        <ele>58.618685</ele>
        <time>2022-12-10T11:09:11.150Z</time>
      </trkpt>
      <trkpt lat="48.29808" lon="-4.18213">
        <ele>58.093209</ele>
        <time>2022-12-10T11:09:14.153Z</time>
      </trkpt>
      <trkpt lat="48.298" lon="-4.18202">
        <ele>57.714633</ele>
        <time>2022-12-10T11:09:17.162Z</time>
      </trkpt>
      <trkpt lat="48.29793" lon="-4.18189">
        <ele>57.296793</ele>
        <time>2022-12-10T11:09:20.147Z</time>
      </trkpt>
      <trkpt lat="48.29785" lon="-4.18176">
        <ele>56.880124</ele>
        <time>2022-12-10T11:09:23.165Z</time>
      </trkpt>
      <trkpt lat="48.29776" lon="-4.18165">
        <ele>56.44678</ele>
        <time>2022-12-10T11:09:26.169Z</time>
      </trkpt>
      <trkpt lat="48.29768" lon="-4.18153">
        <ele>56.038599</ele>
        <time>2022-12-10T11:09:29.168Z</time>
      </trkpt>
      <trkpt lat="48.29759" lon="-4.18142">
        <ele>55.620649</ele>
        <time>2022-12-10T11:09:32.171Z</time>
      </trkpt>
      <trkpt lat="48.2975" lon="-4.1813">
        <ele>55.18574</ele>
        <time>2022-12-10T11:09:35.172Z</time>
      </trkpt>
      <trkpt lat="48.29741" lon="-4.1812">
        <ele>54.783571</ele>
        <time>2022-12-10T11:09:38.170Z</time>
      </trkpt>
      <trkpt lat="48.29734" lon="-4.18112">
        <ele>54.442386</ele>
        <time>2022-12-10T11:09:41.162Z</time>
      </trkpt>
      <trkpt lat="48.29723" lon="-4.18104">
        <ele>54.020761</ele>
        <time>2022-12-10T11:09:44.170Z</time>
      </trkpt>
      <trkpt lat="48.2971" lon="-4.18099">
        <ele>53.509086</ele>
        <time>2022-12-10T11:09:47.151Z</time>
      </trkpt>
      <trkpt lat="48.297" lon="-4.18098">
        <ele>53.163685</ele>
        <time>2022-12-10T11:09:49.170Z</time>
      </trkpt>
      <trkpt lat="48.29691" lon="-4.18097">
        <ele>52.81346</ele>
        <time>2022-12-10T11:09:51.151Z</time>
      </trkpt>
      <trkpt lat="48.29679" lon="-4.18096">
        <ele>52.372172</ele>
        <time>2022-12-10T11:09:54.171Z</time>
      </trkpt>
      <trkpt lat="48.29667" lon="-4.18096">
        <ele>51.960256</ele>
        <time>2022-12-10T11:09:57.167Z</time>
      </trkpt>
      <trkpt lat="48.29657" lon="-4.18096">
        <ele>51.957045</ele>
        <time>2022-12-10T11:10:00.147Z</time>
      </trkpt>
      <trkpt lat="48.29648" lon="-4.18096">
        <ele>52.319848</ele>
        <time>2022-12-10T11:10:03.173Z</time>
      </trkpt>
      <trkpt lat="48.29638" lon="-4.18096">
        <ele>52.734604</ele>
        <time>2022-12-10T11:10:07.176Z</time>
      </trkpt>
      <trkpt lat="48.29628" lon="-4.18096">
        <ele>53.11734</ele>
        <time>2022-12-10T11:10:11.170Z</time>
      </trkpt>
      <trkpt lat="48.29618" lon="-4.18096">
        <ele>53.528008</ele>
        <time>2022-12-10T11:10:15.145Z</time>
      </trkpt>
      <trkpt lat="48.29608" lon="-4.18096">
        <ele>53.910817</ele>
        <time>2022-12-10T11:10:19.175Z</time>
      </trkpt>
      <trkpt lat="48.29597" lon="-4.18098">
        <ele>54.340061</ele>
        <time>2022-12-10T11:10:24.170Z</time>
      </trkpt>
      <trkpt lat="48.29588" lon="-4.18099">
        <ele>54.712191</ele>
        <time>2022-12-10T11:10:30.169Z</time>
      </trkpt>
      <trkpt lat="48.29589" lon="-4.181">
        <ele>54.732818</ele>
        <time>2022-12-10T11:10:45.358Z</time>
      </trkpt>
      <trkpt lat="48.29579" lon="-4.18084">
        <ele>55.297227</ele>
        <time>2022-12-10T11:18:20.158Z</time>
      </trkpt>
      <trkpt lat="48.29569" lon="-4.18076">
        <ele>55.737058</ele>
        <time>2022-12-10T11:18:25.176Z</time>
      </trkpt>
      <trkpt lat="48.29562" lon="-4.18068">
        <ele>56.097489</ele>
        <time>2022-12-10T11:18:29.174Z</time>
      </trkpt>
      <trkpt lat="48.29555" lon="-4.18057">
        <ele>56.50489</ele>
        <time>2022-12-10T11:18:34.174Z</time>
      </trkpt>
      <trkpt lat="48.29547" lon="-4.18046">
        <ele>56.924107</ele>
        <time>2022-12-10T11:18:39.169Z</time>
      </trkpt>
      <trkpt lat="48.29539" lon="-4.18036">
        <ele>57.365622</ele>
        <time>2022-12-10T11:18:44.151Z</time>
      </trkpt>
      <trkpt lat="48.2953" lon="-4.18028">
        <ele>57.751712</ele>
        <time>2022-12-10T11:18:48.163Z</time>
      </trkpt>
      <trkpt lat="48.29521" lon="-4.18021">
        <ele>58.189042</ele>
        <time>2022-12-10T11:18:53.156Z</time>
      </trkpt>
      <trkpt lat="48.29512" lon="-4.18012">
        <ele>58.615644</ele>
        <time>2022-12-10T11:18:58.154Z</time>
      </trkpt>
      <trkpt lat="48.29504" lon="-4.18001">
        <ele>58.932407</ele>
        <time>2022-12-10T11:19:03.154Z</time>
      </trkpt>
      <trkpt lat="48.29495" lon="-4.17991">
        <ele>58.921418</ele>
        <time>2022-12-10T11:19:08.157Z</time>
      </trkpt>
      <trkpt lat="48.29486" lon="-4.17984">
        <ele>58.911036</ele>
        <time>2022-12-10T11:19:13.162Z</time>
      </trkpt>
      <trkpt lat="48.29478" lon="-4.17977">
        <ele>58.90108</ele>
        <time>2022-12-10T11:19:18.168Z</time>
      </trkpt>
      <trkpt lat="48.29469" lon="-4.17972">
        <ele>58.890923</ele>
        <time>2022-12-10T11:19:23.165Z</time>
      </trkpt>
      <trkpt lat="48.2946" lon="-4.17967">
        <ele>58.881395</ele>
        <time>2022-12-10T11:19:28.160Z</time>
      </trkpt>
      <trkpt lat="48.29452" lon="-4.17959">
        <ele>58.871389</ele>
        <time>2022-12-10T11:19:33.152Z</time>
      </trkpt>
      <trkpt lat="48.29447" lon="-4.17947">
        <ele>58.861689</ele>
        <time>2022-12-10T11:19:38.150Z</time>
      </trkpt>
      <trkpt lat="48.29444" lon="-4.17933">
        <ele>58.851614</ele>
        <time>2022-12-10T11:19:43.149Z</time>
      </trkpt>
      <trkpt lat="48.29442" lon="-4.17918">
        <ele>58.841245</ele>
        <time>2022-12-10T11:19:48.173Z</time>
      </trkpt>
      <trkpt lat="48.29439" lon="-4.17902">
        <ele>58.830282</ele>
        <time>2022-12-10T11:19:53.148Z</time>
      </trkpt>
      <trkpt lat="48.29433" lon="-4.17892">
        <ele>58.820763</ele>
        <time>2022-12-10T11:19:58.169Z</time>
      </trkpt>
      <trkpt lat="48.29427" lon="-4.17878">
        <ele>58.809355</ele>
        <time>2022-12-10T11:20:03.171Z</time>
      </trkpt>
      <trkpt lat="48.29421" lon="-4.17866">
        <ele>58.799256</ele>
        <time>2022-12-10T11:20:07.150Z</time>
      </trkpt>
      <trkpt lat="48.29415" lon="-4.17854">
        <ele>58.789036</ele>
        <time>2022-12-10T11:20:11.168Z</time>
      </trkpt>
      <trkpt lat="48.29409" lon="-4.17844">
        <ele>58.779452</ele>
        <time>2022-12-10T11:20:15.171Z</time>
      </trkpt>
      <trkpt lat="48.29403" lon="-4.17832">
        <ele>58.769296</ele>
        <time>2022-12-10T11:20:19.173Z</time>
      </trkpt>
      <trkpt lat="48.29398" lon="-4.17818">
        <ele>58.758218</ele>
        <time>2022-12-10T11:20:24.170Z</time>
      </trkpt>
      <trkpt lat="48.29392" lon="-4.17806">
        <ele>58.800148</ele>
        <time>2022-12-10T11:20:30.160Z</time>
      </trkpt>
      <trkpt lat="48.29378" lon="-4.1778">
        <ele>59.500385</ele>
        <time>2022-12-10T11:20:54.161Z</time>
      </trkpt>
      <trkpt lat="48.29372" lon="-4.17768">
        <ele>59.810171</ele>
        <time>2022-12-10T11:20:58.161Z</time>
      </trkpt>
      <trkpt lat="48.29366" lon="-4.17756">
        <ele>60.101028</ele>
        <time>2022-12-10T11:21:02.170Z</time>
      </trkpt>
      <trkpt lat="48.2936" lon="-4.17745">
        <ele>60.387342</ele>
        <time>2022-12-10T11:21:06.150Z</time>
      </trkpt>
      <trkpt lat="48.29355" lon="-4.17733">
        <ele>60.678056</ele>
        <time>2022-12-10T11:21:10.173Z</time>
      </trkpt>
      <trkpt lat="48.29349" lon="-4.1772">
        <ele>61.001125</ele>
        <time>2022-12-10T11:21:14.170Z</time>
      </trkpt>
      <trkpt lat="48.29343" lon="-4.17707">
        <ele>61.324245</ele>
        <time>2022-12-10T11:21:18.174Z</time>
      </trkpt>
      <trkpt lat="48.29339" lon="-4.17693">
        <ele>61.628922</ele>
        <time>2022-12-10T11:21:22.166Z</time>
      </trkpt>
      <trkpt lat="48.29333" lon="-4.1768">
        <ele>61.965633</ele>
        <time>2022-12-10T11:21:26.172Z</time>
      </trkpt>
      <trkpt lat="48.29327" lon="-4.17667">
        <ele>62.278583</ele>
        <time>2022-12-10T11:21:30.185Z</time>
      </trkpt>
      <trkpt lat="48.2932" lon="-4.17654">
        <ele>62.615405</ele>
        <time>2022-12-10T11:21:34.173Z</time>
      </trkpt>
      <trkpt lat="48.29315" lon="-4.17642">
        <ele>62.911703</ele>
        <time>2022-12-10T11:21:38.170Z</time>
      </trkpt>
      <trkpt lat="48.29307" lon="-4.17628">
        <ele>63.274641</ele>
        <time>2022-12-10T11:21:42.165Z</time>
      </trkpt>
      <trkpt lat="48.29302" lon="-4.17617">
        <ele>63.560394</ele>
        <time>2022-12-10T11:21:45.173Z</time>
      </trkpt>
      <trkpt lat="48.29297" lon="-4.17604">
        <ele>63.858215</ele>
        <time>2022-12-10T11:21:48.166Z</time>
      </trkpt>
      <trkpt lat="48.29292" lon="-4.17593">
        <ele>64.147242</ele>
        <time>2022-12-10T11:21:51.169Z</time>
      </trkpt>
      <trkpt lat="48.29285" lon="-4.1758">
        <ele>64.317902</ele>
        <time>2022-12-10T11:21:55.172Z</time>
      </trkpt>
      <trkpt lat="48.29279" lon="-4.17569">
        <ele>64.385471</ele>
        <time>2022-12-10T11:21:58.172Z</time>
      </trkpt>
      <trkpt lat="48.29273" lon="-4.17554">
        <ele>64.46712</ele>
        <time>2022-12-10T11:22:02.173Z</time>
      </trkpt>
      <trkpt lat="48.29267" lon="-4.17543">
        <ele>64.536764</ele>
        <time>2022-12-10T11:22:05.170Z</time>
      </trkpt>
      <trkpt lat="48.29261" lon="-4.17529">
        <ele>64.615268</ele>
        <time>2022-12-10T11:22:09.172Z</time>
      </trkpt>
      <trkpt lat="48.29255" lon="-4.17515">
        <ele>64.693379</ele>
        <time>2022-12-10T11:22:13.172Z</time>
      </trkpt>
      <trkpt lat="48.29249" lon="-4.17504">
        <ele>64.759112</ele>
        <time>2022-12-10T11:22:16.177Z</time>
      </trkpt>
      <trkpt lat="48.29243" lon="-4.1749">
        <ele>64.837342</ele>
        <time>2022-12-10T11:22:20.169Z</time>
      </trkpt>
      <trkpt lat="48.29237" lon="-4.17477">
        <ele>64.910807</ele>
        <time>2022-12-10T11:22:24.153Z</time>
      </trkpt>
      <trkpt lat="48.29231" lon="-4.17462">
        <ele>64.991712</ele>
        <time>2022-12-10T11:22:28.170Z</time>
      </trkpt>
      <trkpt lat="48.29225" lon="-4.17448">
        <ele>65.072991</ele>
        <time>2022-12-10T11:22:32.148Z</time>
      </trkpt>
      <trkpt lat="48.29218" lon="-4.17434">
        <ele>65.153463</ele>
        <time>2022-12-10T11:22:36.163Z</time>
      </trkpt>
      <trkpt lat="48.29213" lon="-4.17421">
        <ele>65.224315</ele>
        <time>2022-12-10T11:22:40.178Z</time>
      </trkpt>
      <trkpt lat="48.29208" lon="-4.17407">
        <ele>65.300476</ele>
        <time>2022-12-10T11:22:44.170Z</time>
      </trkpt>
      <trkpt lat="48.29204" lon="-4.17394">
        <ele>65.369241</ele>
        <time>2022-12-10T11:22:48.176Z</time>
      </trkpt>
      <trkpt lat="48.29199" lon="-4.17381">
        <ele>65.438748</ele>
        <time>2022-12-10T11:22:52.161Z</time>
      </trkpt>
      <trkpt lat="48.29196" lon="-4.17368">
        <ele>65.504347</ele>
        <time>2022-12-10T11:22:56.170Z</time>
      </trkpt>
      <trkpt lat="48.29192" lon="-4.17355">
        <ele>65.60707</ele>
        <time>2022-12-10T11:23:00.157Z</time>
      </trkpt>
      <trkpt lat="48.29187" lon="-4.1734">
        <ele>65.810826</ele>
        <time>2022-12-10T11:23:05.183Z</time>
      </trkpt>
      <trkpt lat="48.29182" lon="-4.17326">
        <ele>66.002834</ele>
        <time>2022-12-10T11:23:10.174Z</time>
      </trkpt>
      <trkpt lat="48.29178" lon="-4.17312">
        <ele>66.189069</ele>
        <time>2022-12-10T11:23:15.171Z</time>
      </trkpt>
      <trkpt lat="48.29174" lon="-4.17298">
        <ele>66.378205</ele>
        <time>2022-12-10T11:23:20.171Z</time>
      </trkpt>
      <trkpt lat="48.2917" lon="-4.17284">
        <ele>66.560446</ele>
        <time>2022-12-10T11:23:25.169Z</time>
      </trkpt>
      <trkpt lat="48.29165" lon="-4.17271">
        <ele>66.736445</ele>
        <time>2022-12-10T11:23:30.169Z</time>
      </trkpt>
      <trkpt lat="48.2916" lon="-4.17258">
        <ele>66.925224</ele>
        <time>2022-12-10T11:23:35.151Z</time>
      </trkpt>
      <trkpt lat="48.29157" lon="-4.17244">
        <ele>67.10476</ele>
        <time>2022-12-10T11:23:40.160Z</time>
      </trkpt>
      <trkpt lat="48.29153" lon="-4.1723">
        <ele>67.290583</ele>
        <time>2022-12-10T11:23:45.172Z</time>
      </trkpt>
      <trkpt lat="48.29149" lon="-4.17216">
        <ele>67.468284</ele>
        <time>2022-12-10T11:23:50.172Z</time>
      </trkpt>
      <trkpt lat="48.29144" lon="-4.17203">
        <ele>67.65407</ele>
        <time>2022-12-10T11:23:55.172Z</time>
      </trkpt>
      <trkpt lat="48.2914" lon="-4.17189">
        <ele>67.835078</ele>
        <time>2022-12-10T11:24:00.158Z</time>
      </trkpt>
      <trkpt lat="48.29136" lon="-4.17176">
        <ele>68.016845</ele>
        <time>2022-12-10T11:24:05.170Z</time>
      </trkpt>
      <trkpt lat="48.29132" lon="-4.17163">
        <ele>68.186858</ele>
        <time>2022-12-10T11:24:10.173Z</time>
      </trkpt>
      <trkpt lat="48.29128" lon="-4.1715">
        <ele>68.356622</ele>
        <time>2022-12-10T11:24:15.169Z</time>
      </trkpt>
      <trkpt lat="48.29125" lon="-4.17137">
        <ele>68.531385</ele>
        <time>2022-12-10T11:24:20.152Z</time>
      </trkpt>
      <trkpt lat="48.29121" lon="-4.17124">
        <ele>68.701701</ele>
        <time>2022-12-10T11:24:25.175Z</time>
      </trkpt>
      <trkpt lat="48.29116" lon="-4.17112">
        <ele>68.93025</ele>
        <time>2022-12-10T11:24:30.171Z</time>
      </trkpt>
      <trkpt lat="48.29111" lon="-4.17098">
        <ele>69.340274</ele>
        <time>2022-12-10T11:24:36.153Z</time>
      </trkpt>
      <trkpt lat="48.29108" lon="-4.17084">
        <ele>69.759968</ele>
        <time>2022-12-10T11:24:42.157Z</time>
      </trkpt>
      <trkpt lat="48.29104" lon="-4.17069">
        <ele>70.183275</ele>
        <time>2022-12-10T11:24:48.152Z</time>
      </trkpt>
      <trkpt lat="48.29102" lon="-4.17053">
        <ele>70.613612</ele>
        <time>2022-12-10T11:24:54.166Z</time>
      </trkpt>
      <trkpt lat="48.29098" lon="-4.17039">
        <ele>71.006682</ele>
        <time>2022-12-10T11:24:59.173Z</time>
      </trkpt>
      <trkpt lat="48.29095" lon="-4.17024">
        <ele>71.413925</ele>
        <time>2022-12-10T11:25:04.171Z</time>
      </trkpt>
      <trkpt lat="48.29092" lon="-4.17009">
        <ele>71.853666</ele>
        <time>2022-12-10T11:25:09.181Z</time>
      </trkpt>
      <trkpt lat="48.29089" lon="-4.16992">
        <ele>72.299453</ele>
        <time>2022-12-10T11:25:14.164Z</time>
      </trkpt>
      <trkpt lat="48.29087" lon="-4.16977">
        <ele>72.726775</ele>
        <time>2022-12-10T11:25:19.184Z</time>
      </trkpt>
      <trkpt lat="48.29085" lon="-4.16961">
        <ele>73.153291</ele>
        <time>2022-12-10T11:25:24.172Z</time>
      </trkpt>
      <trkpt lat="48.29082" lon="-4.16946">
        <ele>73.578071</ele>
        <time>2022-12-10T11:25:29.151Z</time>
      </trkpt>
      <trkpt lat="48.2908" lon="-4.1693">
        <ele>73.98977</ele>
        <time>2022-12-10T11:25:34.175Z</time>
      </trkpt>
      <trkpt lat="48.29077" lon="-4.16915">
        <ele>74.42201</ele>
        <time>2022-12-10T11:25:39.161Z</time>
      </trkpt>
      <trkpt lat="48.29075" lon="-4.16899">
        <ele>74.850372</ele>
        <time>2022-12-10T11:25:44.172Z</time>
      </trkpt>
      <trkpt lat="48.29073" lon="-4.16884">
        <ele>75.268273</ele>
        <time>2022-12-10T11:25:49.173Z</time>
      </trkpt>
      <trkpt lat="48.29071" lon="-4.16868">
        <ele>75.699915</ele>
        <time>2022-12-10T11:25:54.175Z</time>
      </trkpt>
      <trkpt lat="48.29068" lon="-4.16853">
        <ele>76.106167</ele>
        <time>2022-12-10T11:25:59.172Z</time>
      </trkpt>
      <trkpt lat="48.29066" lon="-4.1684">
        <ele>76.509279</ele>
        <time>2022-12-10T11:26:04.175Z</time>
      </trkpt>
      <trkpt lat="48.29064" lon="-4.16827">
        <ele>76.91639</ele>
        <time>2022-12-10T11:26:09.160Z</time>
      </trkpt>
      <trkpt lat="48.29062" lon="-4.16814">
        <ele>77.315677</ele>
        <time>2022-12-10T11:26:14.163Z</time>
      </trkpt>
      <trkpt lat="48.2906" lon="-4.16799">
        <ele>77.769677</ele>
        <time>2022-12-10T11:26:20.153Z</time>
      </trkpt>
      <trkpt lat="48.29058" lon="-4.16784">
        <ele>78.208342</ele>
        <time>2022-12-10T11:26:26.154Z</time>
      </trkpt>
      <trkpt lat="48.29056" lon="-4.16769">
        <ele>78.660557</ele>
        <time>2022-12-10T11:26:32.162Z</time>
      </trkpt>
      <trkpt lat="48.29055" lon="-4.16755">
        <ele>79.079961</ele>
        <time>2022-12-10T11:26:38.151Z</time>
      </trkpt>
      <trkpt lat="48.29051" lon="-4.16741">
        <ele>79.539269</ele>
        <time>2022-12-10T11:26:44.156Z</time>
      </trkpt>
      <trkpt lat="48.29048" lon="-4.16726">
        <ele>79.984397</ele>
        <time>2022-12-10T11:26:50.168Z</time>
      </trkpt>
      <trkpt lat="48.29046" lon="-4.16711">
        <ele>80.447793</ele>
        <time>2022-12-10T11:26:56.149Z</time>
      </trkpt>
      <trkpt lat="48.29043" lon="-4.16696">
        <ele>80.886934</ele>
        <time>2022-12-10T11:27:02.173Z</time>
      </trkpt>
      <trkpt lat="48.29041" lon="-4.16682">
        <ele>81.333998</ele>
        <time>2022-12-10T11:27:08.158Z</time>
      </trkpt>
      <trkpt lat="48.29041" lon="-4.16666">
        <ele>81.790341</ele>
        <time>2022-12-10T11:27:14.169Z</time>
      </trkpt>
      <trkpt lat="48.29038" lon="-4.16652">
        <ele>82.212443</ele>
        <time>2022-12-10T11:27:20.167Z</time>
      </trkpt>
      <trkpt lat="48.29035" lon="-4.16638">
        <ele>82.672213</ele>
        <time>2022-12-10T11:27:26.164Z</time>
      </trkpt>
      <trkpt lat="48.29032" lon="-4.16624">
        <ele>83.105392</ele>
        <time>2022-12-10T11:27:32.162Z</time>
      </trkpt>
      <trkpt lat="48.2903" lon="-4.16609">
        <ele>83.55727</ele>
        <time>2022-12-10T11:27:38.156Z</time>
      </trkpt>
      <trkpt lat="48.29028" lon="-4.16594">
        <ele>84.005469</ele>
        <time>2022-12-10T11:27:44.159Z</time>
      </trkpt>
      <trkpt lat="48.29026" lon="-4.16579">
        <ele>84.575002</ele>
        <time>2022-12-10T11:27:51.158Z</time>
      </trkpt>
      <trkpt lat="48.29023" lon="-4.16564">
        <ele>85.133528</ele>
        <time>2022-12-10T11:27:58.164Z</time>
      </trkpt>
      <trkpt lat="48.2902" lon="-4.16549">
        <ele>85.680764</ele>
        <time>2022-12-10T11:28:04.149Z</time>
      </trkpt>
      <trkpt lat="48.29018" lon="-4.16536">
        <ele>86.185492</ele>
        <time>2022-12-10T11:28:10.151Z</time>
      </trkpt>
      <trkpt lat="48.29017" lon="-4.16521">
        <ele>86.743013</ele>
        <time>2022-12-10T11:28:17.152Z</time>
      </trkpt>
      <trkpt lat="48.29013" lon="-4.16507">
        <ele>87.306252</ele>
        <time>2022-12-10T11:28:23.162Z</time>
      </trkpt>
      <trkpt lat="48.2901" lon="-4.16492">
        <ele>87.854702</ele>
        <time>2022-12-10T11:28:29.161Z</time>
      </trkpt>
      <trkpt lat="48.29007" lon="-4.16479">
        <ele>88.375433</ele>
        <time>2022-12-10T11:28:35.173Z</time>
      </trkpt>
      <trkpt lat="48.29004" lon="-4.16465">
        <ele>88.913664</ele>
        <time>2022-12-10T11:28:41.151Z</time>
      </trkpt>
      <trkpt lat="48.29002" lon="-4.1645">
        <ele>89.449602</ele>
        <time>2022-12-10T11:28:47.155Z</time>
      </trkpt>
      <trkpt lat="48.29" lon="-4.16435">
        <ele>90.001966</ele>
        <time>2022-12-10T11:28:53.158Z</time>
      </trkpt>
      <trkpt lat="48.28998" lon="-4.16422">
        <ele>90.528649</ele>
        <time>2022-12-10T11:28:59.156Z</time>
      </trkpt>
      <trkpt lat="48.28995" lon="-4.16407">
        <ele>91.071647</ele>
        <time>2022-12-10T11:29:05.161Z</time>
      </trkpt>
      <trkpt lat="48.28993" lon="-4.16393">
        <ele>91.601306</ele>
        <time>2022-12-10T11:29:11.155Z</time>
      </trkpt>
      <trkpt lat="48.28989" lon="-4.16379">
        <ele>92.139579</ele>
        <time>2022-12-10T11:29:17.156Z</time>
      </trkpt>
      <trkpt lat="48.28986" lon="-4.16366">
        <ele>92.658794</ele>
        <time>2022-12-10T11:29:23.154Z</time>
      </trkpt>
      <trkpt lat="48.28981" lon="-4.16352">
        <ele>93.221837</ele>
        <time>2022-12-10T11:29:29.163Z</time>
      </trkpt>
      <trkpt lat="48.28976" lon="-4.1634">
        <ele>93.733554</ele>
        <time>2022-12-10T11:29:35.170Z</time>
      </trkpt>
      <trkpt lat="48.28972" lon="-4.16328">
        <ele>94.255886</ele>
        <time>2022-12-10T11:29:41.161Z</time>
      </trkpt>
      <trkpt lat="48.28967" lon="-4.16315">
        <ele>94.817005</ele>
        <time>2022-12-10T11:29:47.157Z</time>
      </trkpt>
      <trkpt lat="48.28961" lon="-4.16303">
        <ele>95.365229</ele>
        <time>2022-12-10T11:29:53.151Z</time>
      </trkpt>
      <trkpt lat="48.28956" lon="-4.1629">
        <ele>95.940916</ele>
        <time>2022-12-10T11:29:59.156Z</time>
      </trkpt>
      <trkpt lat="48.2895" lon="-4.16277">
        <ele>96.532884</ele>
        <time>2022-12-10T11:30:05.156Z</time>
      </trkpt>
      <trkpt lat="48.28944" lon="-4.16267">
        <ele>97.048626</ele>
        <time>2022-12-10T11:30:10.159Z</time>
      </trkpt>
      <trkpt lat="48.28937" lon="-4.16256">
        <ele>97.580752</ele>
        <time>2022-12-10T11:30:15.154Z</time>
      </trkpt>
      <trkpt lat="48.28931" lon="-4.16245">
        <ele>98.152886</ele>
        <time>2022-12-10T11:30:20.169Z</time>
      </trkpt>
      <trkpt lat="48.28923" lon="-4.16235">
        <ele>98.71524</ele>
        <time>2022-12-10T11:30:25.185Z</time>
      </trkpt>
      <trkpt lat="48.28915" lon="-4.16224">
        <ele>99.302616</ele>
        <time>2022-12-10T11:30:30.173Z</time>
      </trkpt>
      <trkpt lat="48.28907" lon="-4.16216">
        <ele>99.840229</ele>
        <time>2022-12-10T11:30:35.154Z</time>
      </trkpt>
      <trkpt lat="48.289" lon="-4.16207">
        <ele>100.388071</ele>
        <time>2022-12-10T11:30:40.165Z</time>
      </trkpt>
      <trkpt lat="48.28892" lon="-4.162">
        <ele>100.914873</ele>
        <time>2022-12-10T11:30:45.163Z</time>
      </trkpt>
      <trkpt lat="48.28884" lon="-4.16191">
        <ele>101.469713</ele>
        <time>2022-12-10T11:30:50.170Z</time>
      </trkpt>
      <trkpt lat="48.28876" lon="-4.16183">
        <ele>102.004322</ele>
        <time>2022-12-10T11:30:55.155Z</time>
      </trkpt>
      <trkpt lat="48.28868" lon="-4.16175">
        <ele>102.51411</ele>
        <time>2022-12-10T11:31:00.161Z</time>
      </trkpt>
      <trkpt lat="48.2886" lon="-4.16168">
        <ele>103.041918</ele>
        <time>2022-12-10T11:31:05.173Z</time>
      </trkpt>
      <trkpt lat="48.28853" lon="-4.1616">
        <ele>103.560781</ele>
        <time>2022-12-10T11:31:10.169Z</time>
      </trkpt>
      <trkpt lat="48.28845" lon="-4.16151">
        <ele>104.049026</ele>
        <time>2022-12-10T11:31:15.153Z</time>
      </trkpt>
      <trkpt lat="48.28837" lon="-4.16141">
        <ele>104.305363</ele>
        <time>2022-12-10T11:31:20.168Z</time>
      </trkpt>
      <trkpt lat="48.2883" lon="-4.1613">
        <ele>104.560941</ele>
        <time>2022-12-10T11:31:25.160Z</time>
      </trkpt>
      <trkpt lat="48.28823" lon="-4.16119">
        <ele>104.80572</ele>
        <time>2022-12-10T11:31:30.171Z</time>
      </trkpt>
      <trkpt lat="48.28816" lon="-4.16106">
        <ele>105.075953</ele>
        <time>2022-12-10T11:31:35.158Z</time>
      </trkpt>
      <trkpt lat="48.28811" lon="-4.16093">
        <ele>105.334623</ele>
        <time>2022-12-10T11:31:40.173Z</time>
      </trkpt>
      <trkpt lat="48.28805" lon="-4.1608">
        <ele>105.592007</ele>
        <time>2022-12-10T11:31:45.150Z</time>
      </trkpt>
      <trkpt lat="48.28801" lon="-4.16067">
        <ele>105.830101</ele>
        <time>2022-12-10T11:31:50.171Z</time>
      </trkpt>
      <trkpt lat="48.28796" lon="-4.16054">
        <ele>106.089532</ele>
        <time>2022-12-10T11:31:56.153Z</time>
      </trkpt>
      <trkpt lat="48.28792" lon="-4.16041">
        <ele>106.315145</ele>
        <time>2022-12-10T11:32:01.156Z</time>
      </trkpt>
      <trkpt lat="48.28788" lon="-4.16027">
        <ele>106.58002</ele>
        <time>2022-12-10T11:32:07.150Z</time>
      </trkpt>
      <trkpt lat="48.28783" lon="-4.16015">
        <ele>106.805769</ele>
        <time>2022-12-10T11:32:12.157Z</time>
      </trkpt>
      <trkpt lat="48.28778" lon="-4.16001">
        <ele>107.059743</ele>
        <time>2022-12-10T11:32:18.152Z</time>
      </trkpt>
      <trkpt lat="48.28774" lon="-4.15988">
        <ele>107.308582</ele>
        <time>2022-12-10T11:32:24.157Z</time>
      </trkpt>
      <trkpt lat="48.28769" lon="-4.15974">
        <ele>107.566253</ele>
        <time>2022-12-10T11:32:30.165Z</time>
      </trkpt>
      <trkpt lat="48.28765" lon="-4.1596">
        <ele>107.822066</ele>
        <time>2022-12-10T11:32:36.164Z</time>
      </trkpt>
      <trkpt lat="48.28761" lon="-4.15945">
        <ele>108.08548</ele>
        <time>2022-12-10T11:32:42.165Z</time>
      </trkpt>
      <trkpt lat="48.28757" lon="-4.15931">
        <ele>108.34094</ele>
        <time>2022-12-10T11:32:48.155Z</time>
      </trkpt>
      <trkpt lat="48.28752" lon="-4.15917">
        <ele>108.55548</ele>
        <time>2022-12-10T11:32:54.148Z</time>
      </trkpt>
      <trkpt lat="48.28747" lon="-4.15903">
        <ele>108.716281</ele>
        <time>2022-12-10T11:32:59.158Z</time>
      </trkpt>
      <trkpt lat="48.28742" lon="-4.15889">
        <ele>108.883997</ele>
        <time>2022-12-10T11:33:04.185Z</time>
      </trkpt>
      <trkpt lat="48.28738" lon="-4.15874">
        <ele>109.053501</ele>
        <time>2022-12-10T11:33:10.155Z</time>
      </trkpt>
      <trkpt lat="48.28732" lon="-4.15861">
        <ele>109.214923</ele>
        <time>2022-12-10T11:33:15.157Z</time>
      </trkpt>
      <trkpt lat="48.28728" lon="-4.15845">
        <ele>109.390485</ele>
        <time>2022-12-10T11:33:20.173Z</time>
      </trkpt>
      <trkpt lat="48.28725" lon="-4.15833">
        <ele>109.533052</ele>
        <time>2022-12-10T11:33:24.181Z</time>
      </trkpt>
      <trkpt lat="48.2872" lon="-4.15819">
        <ele>109.688886</ele>
        <time>2022-12-10T11:33:29.163Z</time>
      </trkpt>
      <trkpt lat="48.28717" lon="-4.15806">
        <ele>109.833543</ele>
        <time>2022-12-10T11:33:33.165Z</time>
      </trkpt>
      <trkpt lat="48.28713" lon="-4.15793">
        <ele>109.984261</ele>
        <time>2022-12-10T11:33:37.173Z</time>
      </trkpt>
      <trkpt lat="48.28708" lon="-4.15779">
        <ele>110.14325</ele>
        <time>2022-12-10T11:33:42.175Z</time>
      </trkpt>
      <trkpt lat="48.28704" lon="-4.15765">
        <ele>110.315677</ele>
        <time>2022-12-10T11:33:47.173Z</time>
      </trkpt>
      <trkpt lat="48.28699" lon="-4.15752">
        <ele>110.464474</ele>
        <time>2022-12-10T11:33:51.172Z</time>
      </trkpt>
      <trkpt lat="48.28695" lon="-4.15738">
        <ele>110.627304</ele>
        <time>2022-12-10T11:33:56.187Z</time>
      </trkpt>
      <trkpt lat="48.28691" lon="-4.15725">
        <ele>110.771045</ele>
        <time>2022-12-10T11:34:00.153Z</time>
      </trkpt>
      <trkpt lat="48.28686" lon="-4.1571">
        <ele>110.94835</ele>
        <time>2022-12-10T11:34:05.169Z</time>
      </trkpt>
      <trkpt lat="48.28682" lon="-4.15698">
        <ele>111.097148</ele>
        <time>2022-12-10T11:34:09.168Z</time>
      </trkpt>
      <trkpt lat="48.28678" lon="-4.15685">
        <ele>111.245696</ele>
        <time>2022-12-10T11:34:13.163Z</time>
      </trkpt>
      <trkpt lat="48.28673" lon="-4.15673">
        <ele>111.450213</ele>
        <time>2022-12-10T11:34:17.165Z</time>
      </trkpt>
      <trkpt lat="48.28668" lon="-4.15658">
        <ele>111.733391</ele>
        <time>2022-12-10T11:34:22.183Z</time>
      </trkpt>
      <trkpt lat="48.28663" lon="-4.15643">
        <ele>112.010366</ele>
        <time>2022-12-10T11:34:27.177Z</time>
      </trkpt>
      <trkpt lat="48.28657" lon="-4.15631">
        <ele>112.260667</ele>
        <time>2022-12-10T11:34:32.179Z</time>
      </trkpt>
      <trkpt lat="48.28652" lon="-4.15618">
        <ele>112.520462</ele>
        <time>2022-12-10T11:34:37.176Z</time>
      </trkpt>
      <trkpt lat="48.28645" lon="-4.15605">
        <ele>112.790422</ele>
        <time>2022-12-10T11:34:42.172Z</time>
      </trkpt>
      <trkpt lat="48.28639" lon="-4.15593">
        <ele>113.040044</ele>
        <time>2022-12-10T11:34:47.165Z</time>
      </trkpt>
      <trkpt lat="48.28632" lon="-4.1558">
        <ele>113.317723</ele>
        <time>2022-12-10T11:34:52.153Z</time>
      </trkpt>
      <trkpt lat="48.28626" lon="-4.15569">
        <ele>113.56604</ele>
        <time>2022-12-10T11:34:57.173Z</time>
      </trkpt>
      <trkpt lat="48.2862" lon="-4.15557">
        <ele>113.811942</ele>
        <time>2022-12-10T11:35:02.175Z</time>
      </trkpt>
      <trkpt lat="48.28615" lon="-4.15546">
        <ele>114.040891</ele>
        <time>2022-12-10T11:35:07.160Z</time>
      </trkpt>
      <trkpt lat="48.28609" lon="-4.15534">
        <ele>114.300958</ele>
        <time>2022-12-10T11:35:13.155Z</time>
      </trkpt>
      <trkpt lat="48.28603" lon="-4.15521">
        <ele>114.553777</ele>
        <time>2022-12-10T11:35:19.162Z</time>
      </trkpt>
      <trkpt lat="48.28598" lon="-4.15508">
        <ele>114.811313</ele>
        <time>2022-12-10T11:35:25.161Z</time>
      </trkpt>
      <trkpt lat="48.28592" lon="-4.15495">
        <ele>115.077077</ele>
        <time>2022-12-10T11:35:31.161Z</time>
      </trkpt>
      <trkpt lat="48.28586" lon="-4.15482">
        <ele>115.343976</ele>
        <time>2022-12-10T11:35:37.165Z</time>
      </trkpt>
      <trkpt lat="48.2858" lon="-4.15469">
        <ele>115.607963</ele>
        <time>2022-12-10T11:35:43.150Z</time>
      </trkpt>
      <trkpt lat="48.28575" lon="-4.15455">
        <ele>115.895559</ele>
        <time>2022-12-10T11:35:49.162Z</time>
      </trkpt>
      <trkpt lat="48.28569" lon="-4.15443">
        <ele>116.331744</ele>
        <time>2022-12-10T11:35:55.167Z</time>
      </trkpt>
      <trkpt lat="48.28564" lon="-4.1543">
        <ele>116.764156</ele>
        <time>2022-12-10T11:36:01.158Z</time>
      </trkpt>
      <trkpt lat="48.28561" lon="-4.15416">
        <ele>117.183118</ele>
        <time>2022-12-10T11:36:07.166Z</time>
      </trkpt>
      <trkpt lat="48.28558" lon="-4.15404">
        <ele>117.575615</ele>
        <time>2022-12-10T11:36:12.160Z</time>
      </trkpt>
      <trkpt lat="48.28554" lon="-4.1539">
        <ele>118.019671</ele>
        <time>2022-12-10T11:36:18.172Z</time>
      </trkpt>
      <trkpt lat="48.28551" lon="-4.15375">
        <ele>118.449567</ele>
        <time>2022-12-10T11:36:24.157Z</time>
      </trkpt>
      <trkpt lat="48.28548" lon="-4.1536">
        <ele>118.90603</ele>
        <time>2022-12-10T11:36:30.155Z</time>
      </trkpt>
      <trkpt lat="48.28546" lon="-4.15345">
        <ele>119.350798</ele>
        <time>2022-12-10T11:36:36.174Z</time>
      </trkpt>
      <trkpt lat="48.28544" lon="-4.1533">
        <ele>119.78405</ele>
        <time>2022-12-10T11:36:42.159Z</time>
      </trkpt>
      <trkpt lat="48.28543" lon="-4.15317">
        <ele>120.189715</ele>
        <time>2022-12-10T11:36:47.154Z</time>
      </trkpt>
      <trkpt lat="48.28543" lon="-4.15303">
        <ele>120.586815</ele>
        <time>2022-12-10T11:36:52.163Z</time>
      </trkpt>
      <trkpt lat="48.28544" lon="-4.15288">
        <ele>121.021141</ele>
        <time>2022-12-10T11:36:58.177Z</time>
      </trkpt>
      <trkpt lat="48.28544" lon="-4.15273">
        <ele>121.463953</ele>
        <time>2022-12-10T11:37:04.162Z</time>
      </trkpt>
      <trkpt lat="48.28545" lon="-4.15258">
        <ele>121.897834</ele>
        <time>2022-12-10T11:37:10.174Z</time>
      </trkpt>
      <trkpt lat="48.28547" lon="-4.15242">
        <ele>122.356066</ele>
        <time>2022-12-10T11:37:16.154Z</time>
      </trkpt>
      <trkpt lat="48.28548" lon="-4.15227">
        <ele>122.792306</ele>
        <time>2022-12-10T11:37:22.174Z</time>
      </trkpt>
      <trkpt lat="48.2855" lon="-4.15213">
        <ele>123.220023</ele>
        <time>2022-12-10T11:37:28.163Z</time>
      </trkpt>
      <trkpt lat="48.28552" lon="-4.15197">
        <ele>123.682126</ele>
        <time>2022-12-10T11:37:34.160Z</time>
      </trkpt>
      <trkpt lat="48.28555" lon="-4.15182">
        <ele>124.182245</ele>
        <time>2022-12-10T11:37:40.153Z</time>
      </trkpt>
      <trkpt lat="48.2856" lon="-4.15169">
        <ele>124.668542</ele>
        <time>2022-12-10T11:37:46.166Z</time>
      </trkpt>
      <trkpt lat="48.28565" lon="-4.15154">
        <ele>125.180683</ele>
        <time>2022-12-10T11:37:52.169Z</time>
      </trkpt>
      <trkpt lat="48.28569" lon="-4.15141">
        <ele>125.653372</ele>
        <time>2022-12-10T11:37:58.152Z</time>
      </trkpt>
      <trkpt lat="48.28572" lon="-4.15127">
        <ele>126.128904</ele>
        <time>2022-12-10T11:38:04.158Z</time>
      </trkpt>
      <trkpt lat="48.28575" lon="-4.15114">
        <ele>126.586149</ele>
        <time>2022-12-10T11:38:10.183Z</time>
      </trkpt>
      <trkpt lat="48.2858" lon="-4.15101">
        <ele>127.072084</ele>
        <time>2022-12-10T11:38:16.164Z</time>
      </trkpt>
      <trkpt lat="48.28587" lon="-4.15088">
        <ele>127.5796</ele>
        <time>2022-12-10T11:38:22.157Z</time>
      </trkpt>
      <trkpt lat="48.28589" lon="-4.15074">
        <ele>128.039087</ele>
        <time>2022-12-10T11:38:28.148Z</time>
      </trkpt>
      <trkpt lat="48.2859" lon="-4.1506">
        <ele>128.499422</ele>
        <time>2022-12-10T11:38:34.155Z</time>
      </trkpt>
      <trkpt lat="48.28592" lon="-4.15044">
        <ele>129.001684</ele>
        <time>2022-12-10T11:38:40.163Z</time>
      </trkpt>
      <trkpt lat="48.28595" lon="-4.1503">
        <ele>129.487854</ele>
        <time>2022-12-10T11:38:46.165Z</time>
      </trkpt>
      <trkpt lat="48.28596" lon="-4.15014">
        <ele>129.983025</ele>
        <time>2022-12-10T11:38:52.184Z</time>
      </trkpt>
      <trkpt lat="48.28598" lon="-4.15">
        <ele>130.46164</ele>
        <time>2022-12-10T11:38:58.154Z</time>
      </trkpt>
      <trkpt lat="48.28598" lon="-4.14984">
        <ele>130.948893</ele>
        <time>2022-12-10T11:39:04.158Z</time>
      </trkpt>
      <trkpt lat="48.28599" lon="-4.1497">
        <ele>131.418342</ele>
        <time>2022-12-10T11:39:10.149Z</time>
      </trkpt>
      <trkpt lat="48.286" lon="-4.14955">
        <ele>131.908415</ele>
        <time>2022-12-10T11:39:16.161Z</time>
      </trkpt>
      <trkpt lat="48.28599" lon="-4.14939">
        <ele>132.401593</ele>
        <time>2022-12-10T11:39:22.167Z</time>
      </trkpt>
      <trkpt lat="48.28598" lon="-4.14924">
        <ele>132.796534</ele>
        <time>2022-12-10T11:39:28.155Z</time>
      </trkpt>
      <trkpt lat="48.28597" lon="-4.14909">
        <ele>133.183917</ele>
        <time>2022-12-10T11:39:34.163Z</time>
      </trkpt>
      <trkpt lat="48.28596" lon="-4.14894">
        <ele>133.576546</ele>
        <time>2022-12-10T11:39:40.154Z</time>
      </trkpt>
      <trkpt lat="48.28592" lon="-4.14879">
        <ele>133.997726</ele>
        <time>2022-12-10T11:39:46.171Z</time>
      </trkpt>
      <trkpt lat="48.2859" lon="-4.14864">
        <ele>134.408968</ele>
        <time>2022-12-10T11:39:52.170Z</time>
      </trkpt>
      <trkpt lat="48.28586" lon="-4.14849">
        <ele>134.806502</ele>
        <time>2022-12-10T11:39:58.169Z</time>
      </trkpt>
      <trkpt lat="48.28582" lon="-4.14835">
        <ele>135.223453</ele>
        <time>2022-12-10T11:40:04.163Z</time>
      </trkpt>
      <trkpt lat="48.28577" lon="-4.14821">
        <ele>135.637707</ele>
        <time>2022-12-10T11:40:10.161Z</time>
      </trkpt>
      <trkpt lat="48.28573" lon="-4.14807">
        <ele>136.039625</ele>
        <time>2022-12-10T11:40:16.153Z</time>
      </trkpt>
      <trkpt lat="48.28568" lon="-4.14794">
        <ele>136.44583</ele>
        <time>2022-12-10T11:40:22.156Z</time>
      </trkpt>
      <trkpt lat="48.28562" lon="-4.14781">
        <ele>136.83957</ele>
        <time>2022-12-10T11:40:28.155Z</time>
      </trkpt>
      <trkpt lat="48.28557" lon="-4.14768">
        <ele>137.246287</ele>
        <time>2022-12-10T11:40:34.161Z</time>
      </trkpt>
      <trkpt lat="48.2855" lon="-4.14756">
        <ele>137.660242</ele>
        <time>2022-12-10T11:40:40.159Z</time>
      </trkpt>
      <trkpt lat="48.28544" lon="-4.14743">
        <ele>138.07001</ele>
        <time>2022-12-10T11:40:46.163Z</time>
      </trkpt>
      <trkpt lat="48.28538" lon="-4.14733">
        <ele>138.435537</ele>
        <time>2022-12-10T11:40:51.163Z</time>
      </trkpt>
      <trkpt lat="48.28531" lon="-4.14722">
        <ele>138.838045</ele>
        <time>2022-12-10T11:40:57.157Z</time>
      </trkpt>
      <trkpt lat="48.28524" lon="-4.1471">
        <ele>139.253254</ele>
        <time>2022-12-10T11:41:03.183Z</time>
      </trkpt>
      <trkpt lat="48.28517" lon="-4.14699">
        <ele>139.725009</ele>
        <time>2022-12-10T11:41:09.151Z</time>
      </trkpt>
      <trkpt lat="48.2851" lon="-4.14687">
        <ele>140.225653</ele>
        <time>2022-12-10T11:41:15.167Z</time>
      </trkpt>
      <trkpt lat="48.28503" lon="-4.14676">
        <ele>140.715018</ele>
        <time>2022-12-10T11:41:21.173Z</time>
      </trkpt>
      <trkpt lat="48.28496" lon="-4.14665">
        <ele>141.226007</ele>
        <time>2022-12-10T11:41:27.166Z</time>
      </trkpt>
      <trkpt lat="48.28488" lon="-4.14654">
        <ele>141.73583</ele>
        <time>2022-12-10T11:41:33.169Z</time>
      </trkpt>
      <trkpt lat="48.28481" lon="-4.14643">
        <ele>142.242183</ele>
        <time>2022-12-10T11:41:39.163Z</time>
      </trkpt>
      <trkpt lat="48.28474" lon="-4.14632">
        <ele>142.73939</ele>
        <time>2022-12-10T11:41:45.171Z</time>
      </trkpt>
      <trkpt lat="48.28467" lon="-4.1462">
        <ele>143.263742</ele>
        <time>2022-12-10T11:41:51.164Z</time>
      </trkpt>
      <trkpt lat="48.2846" lon="-4.14607">
        <ele>143.783836</ele>
        <time>2022-12-10T11:41:57.163Z</time>
      </trkpt>
      <trkpt lat="48.28456" lon="-4.14595">
        <ele>144.237342</ele>
        <time>2022-12-10T11:42:02.165Z</time>
      </trkpt>
      <trkpt lat="48.28452" lon="-4.14583">
        <ele>144.678702</ele>
        <time>2022-12-10T11:42:07.185Z</time>
      </trkpt>
      <trkpt lat="48.28447" lon="-4.14571">
        <ele>145.136735</ele>
        <time>2022-12-10T11:42:12.163Z</time>
      </trkpt>
      <trkpt lat="48.28444" lon="-4.14558">
        <ele>145.580823</ele>
        <time>2022-12-10T11:42:17.165Z</time>
      </trkpt>
      <trkpt lat="48.2844" lon="-4.14544">
        <ele>146.074383</ele>
        <time>2022-12-10T11:42:23.162Z</time>
      </trkpt>
      <trkpt lat="48.28438" lon="-4.14529">
        <ele>146.578391</ele>
        <time>2022-12-10T11:42:29.155Z</time>
      </trkpt>
      <trkpt lat="48.28434" lon="-4.14515">
        <ele>147.076722</ele>
        <time>2022-12-10T11:42:35.155Z</time>
      </trkpt>
      <trkpt lat="48.28431" lon="-4.14499">
        <ele>147.598948</ele>
        <time>2022-12-10T11:42:41.164Z</time>
      </trkpt>
      <trkpt lat="48.28428" lon="-4.14484">
        <ele>148.123741</ele>
        <time>2022-12-10T11:42:47.167Z</time>
      </trkpt>
      <trkpt lat="48.28425" lon="-4.14469">
        <ele>148.550564</ele>
        <time>2022-12-10T11:42:53.163Z</time>
      </trkpt>
      <trkpt lat="48.28423" lon="-4.14456">
        <ele>148.913262</ele>
        <time>2022-12-10T11:42:58.161Z</time>
      </trkpt>
      <trkpt lat="48.2842" lon="-4.14441">
        <ele>149.298079</ele>
        <time>2022-12-10T11:43:03.161Z</time>
      </trkpt>
      <trkpt lat="48.28418" lon="-4.14426">
        <ele>149.70403</ele>
        <time>2022-12-10T11:43:08.186Z</time>
      </trkpt>
      <trkpt lat="48.28415" lon="-4.14412">
        <ele>150.086934</ele>
        <time>2022-12-10T11:43:13.173Z</time>
      </trkpt>
      <trkpt lat="48.28414" lon="-4.14396">
        <ele>150.493545</ele>
        <time>2022-12-10T11:43:18.176Z</time>
      </trkpt>
      <trkpt lat="48.28412" lon="-4.14381">
        <ele>150.896646</ele>
        <time>2022-12-10T11:43:23.187Z</time>
      </trkpt>
      <trkpt lat="48.28412" lon="-4.14367">
        <ele>151.251391</ele>
        <time>2022-12-10T11:43:28.182Z</time>
      </trkpt>
      <trkpt lat="48.28412" lon="-4.14353">
        <ele>151.623599</ele>
        <time>2022-12-10T11:43:33.151Z</time>
      </trkpt>
      <trkpt lat="48.28412" lon="-4.14338">
        <ele>152.006376</ele>
        <time>2022-12-10T11:43:38.183Z</time>
      </trkpt>
      <trkpt lat="48.28412" lon="-4.14324">
        <ele>152.394672</ele>
        <time>2022-12-10T11:43:43.163Z</time>
      </trkpt>
      <trkpt lat="48.28413" lon="-4.14308">
        <ele>152.790029</ele>
        <time>2022-12-10T11:43:48.156Z</time>
      </trkpt>
      <trkpt lat="48.28414" lon="-4.14293">
        <ele>153.196169</ele>
        <time>2022-12-10T11:43:53.161Z</time>
      </trkpt>
      <trkpt lat="48.28414" lon="-4.14278">
        <ele>153.581548</ele>
        <time>2022-12-10T11:43:58.168Z</time>
      </trkpt>
      <trkpt lat="48.28416" lon="-4.14263">
        <ele>153.985937</ele>
        <time>2022-12-10T11:44:03.181Z</time>
      </trkpt>
      <trkpt lat="48.28418" lon="-4.14248">
        <ele>154.379882</ele>
        <time>2022-12-10T11:44:08.165Z</time>
      </trkpt>
      <trkpt lat="48.2842" lon="-4.14233">
        <ele>154.770514</ele>
        <time>2022-12-10T11:44:13.184Z</time>
      </trkpt>
      <trkpt lat="48.28422" lon="-4.14219">
        <ele>155.158479</ele>
        <time>2022-12-10T11:44:18.184Z</time>
      </trkpt>
      <trkpt lat="48.28426" lon="-4.14205">
        <ele>155.571958</ele>
        <time>2022-12-10T11:44:23.183Z</time>
      </trkpt>
      <trkpt lat="48.28428" lon="-4.1419">
        <ele>156.003299</ele>
        <time>2022-12-10T11:44:28.175Z</time>
      </trkpt>
      <trkpt lat="48.2843" lon="-4.14175">
        <ele>156.452447</ele>
        <time>2022-12-10T11:44:33.193Z</time>
      </trkpt>
      <trkpt lat="48.28433" lon="-4.14161">
        <ele>156.852701</ele>
        <time>2022-12-10T11:44:37.157Z</time>
      </trkpt>
      <trkpt lat="48.28436" lon="-4.14148">
        <ele>157.259239</ele>
        <time>2022-12-10T11:44:41.174Z</time>
      </trkpt>
      <trkpt lat="48.28439" lon="-4.14135">
        <ele>157.647271</ele>
        <time>2022-12-10T11:44:45.185Z</time>
      </trkpt>
      <trkpt lat="48.28442" lon="-4.14121">
        <ele>158.076361</ele>
        <time>2022-12-10T11:44:50.182Z</time>
      </trkpt>
      <trkpt lat="48.28445" lon="-4.14106">
        <ele>158.520327</ele>
        <time>2022-12-10T11:44:55.185Z</time>
      </trkpt>
      <trkpt lat="48.28448" lon="-4.14091">
        <ele>158.95974</ele>
        <time>2022-12-10T11:45:00.169Z</time>
      </trkpt>
      <trkpt lat="48.28452" lon="-4.14077">
        <ele>159.384447</ele>
        <time>2022-12-10T11:45:05.160Z</time>
      </trkpt>
      <trkpt lat="48.28454" lon="-4.14063">
        <ele>159.801406</ele>
        <time>2022-12-10T11:45:10.178Z</time>
      </trkpt>
      <trkpt lat="48.28458" lon="-4.14049">
        <ele>160.2276</ele>
        <time>2022-12-10T11:45:15.163Z</time>
      </trkpt>
      <trkpt lat="48.2846" lon="-4.14036">
        <ele>160.613229</ele>
        <time>2022-12-10T11:45:20.163Z</time>
      </trkpt>
      <trkpt lat="48.28462" lon="-4.14021">
        <ele>161.052468</ele>
        <time>2022-12-10T11:45:26.168Z</time>
      </trkpt>
      <trkpt lat="48.28463" lon="-4.14005">
        <ele>161.500502</ele>
        <time>2022-12-10T11:45:32.163Z</time>
      </trkpt>
      <trkpt lat="48.28464" lon="-4.13991">
        <ele>161.89941</ele>
        <time>2022-12-10T11:45:37.165Z</time>
      </trkpt>
      <trkpt lat="48.28465" lon="-4.13975">
        <ele>162.361249</ele>
        <time>2022-12-10T11:45:43.165Z</time>
      </trkpt>
      <trkpt lat="48.28465" lon="-4.13959">
        <ele>162.811531</ele>
        <time>2022-12-10T11:45:50.176Z</time>
      </trkpt>
      <trkpt lat="48.28464" lon="-4.13945">
        <ele>163.165698</ele>
        <time>2022-12-10T11:45:56.178Z</time>
      </trkpt>
      <trkpt lat="48.28464" lon="-4.13931">
        <ele>163.465697</ele>
        <time>2022-12-10T11:46:01.170Z</time>
      </trkpt>
      <trkpt lat="48.28463" lon="-4.13917">
        <ele>163.768151</ele>
        <time>2022-12-10T11:46:06.162Z</time>
      </trkpt>
      <trkpt lat="48.28462" lon="-4.13903">
        <ele>164.065993</ele>
        <time>2022-12-10T11:46:11.164Z</time>
      </trkpt>
      <trkpt lat="48.28461" lon="-4.13888">
        <ele>164.399639</ele>
        <time>2022-12-10T11:46:17.153Z</time>
      </trkpt>
      <trkpt lat="48.28459" lon="-4.13872">
        <ele>164.749494</ele>
        <time>2022-12-10T11:46:23.164Z</time>
      </trkpt>
      <trkpt lat="48.28457" lon="-4.13857">
        <ele>165.072083</ele>
        <time>2022-12-10T11:46:28.182Z</time>
      </trkpt>
      <trkpt lat="48.28456" lon="-4.13842">
        <ele>165.416486</ele>
        <time>2022-12-10T11:46:34.163Z</time>
      </trkpt>
      <trkpt lat="48.28455" lon="-4.13828">
        <ele>165.717894</ele>
        <time>2022-12-10T11:46:39.163Z</time>
      </trkpt>
      <trkpt lat="48.28453" lon="-4.13813">
        <ele>166.050711</ele>
        <time>2022-12-10T11:46:44.184Z</time>
      </trkpt>
      <trkpt lat="48.28451" lon="-4.13799">
        <ele>166.35803</ele>
        <time>2022-12-10T11:46:49.184Z</time>
      </trkpt>
      <trkpt lat="48.2845" lon="-4.13783">
        <ele>166.692501</ele>
        <time>2022-12-10T11:46:54.183Z</time>
      </trkpt>
      <trkpt lat="48.28448" lon="-4.13767">
        <ele>167.045888</ele>
        <time>2022-12-10T11:47:00.165Z</time>
      </trkpt>
      <trkpt lat="48.28446" lon="-4.13753">
        <ele>167.368071</ele>
        <time>2022-12-10T11:47:05.181Z</time>
      </trkpt>
      <trkpt lat="48.28444" lon="-4.13737">
        <ele>167.710059</ele>
        <time>2022-12-10T11:47:10.157Z</time>
      </trkpt>
      <trkpt lat="48.28443" lon="-4.13722">
        <ele>168.041955</ele>
        <time>2022-12-10T11:47:15.168Z</time>
      </trkpt>
      <trkpt lat="48.2844" lon="-4.13708">
        <ele>168.368938</ele>
        <time>2022-12-10T11:47:20.181Z</time>
      </trkpt>
      <trkpt lat="48.28438" lon="-4.13693">
        <ele>168.700907</ele>
        <time>2022-12-10T11:47:25.189Z</time>
      </trkpt>
      <trkpt lat="48.28435" lon="-4.13678">
        <ele>169.044357</ele>
        <time>2022-12-10T11:47:30.185Z</time>
      </trkpt>
      <trkpt lat="48.28433" lon="-4.13663">
        <ele>169.400846</ele>
        <time>2022-12-10T11:47:36.164Z</time>
      </trkpt>
      <trkpt lat="48.28432" lon="-4.13646">
        <ele>169.782679</ele>
        <time>2022-12-10T11:47:42.163Z</time>
      </trkpt>
      <trkpt lat="48.2843" lon="-4.13632">
        <ele>170.114413</ele>
        <time>2022-12-10T11:47:47.184Z</time>
      </trkpt>
      <trkpt lat="48.28429" lon="-4.13617">
        <ele>170.473148</ele>
        <time>2022-12-10T11:47:53.160Z</time>
      </trkpt>
      <trkpt lat="48.28427" lon="-4.13603">
        <ele>170.802021</ele>
        <time>2022-12-10T11:47:58.186Z</time>
      </trkpt>
      <trkpt lat="48.28425" lon="-4.13588">
        <ele>171.151728</ele>
        <time>2022-12-10T11:48:03.187Z</time>
      </trkpt>
      <trkpt lat="48.28423" lon="-4.13573">
        <ele>171.496526</ele>
        <time>2022-12-10T11:48:08.190Z</time>
      </trkpt>
      <trkpt lat="48.28422" lon="-4.13559">
        <ele>171.825481</ele>
        <time>2022-12-10T11:48:13.179Z</time>
      </trkpt>
      <trkpt lat="48.28421" lon="-4.13544">
        <ele>172.18287</ele>
        <time>2022-12-10T11:48:18.179Z</time>
      </trkpt>
      <trkpt lat="48.28419" lon="-4.13528">
        <ele>172.552201</ele>
        <time>2022-12-10T11:48:23.179Z</time>
      </trkpt>
      <trkpt lat="48.28418" lon="-4.13513">
        <ele>172.901774</ele>
        <time>2022-12-10T11:48:29.166Z</time>
      </trkpt>
      <trkpt lat="48.28417" lon="-4.13499">
        <ele>173.238081</ele>
        <time>2022-12-10T11:48:34.184Z</time>
      </trkpt>
      <trkpt lat="48.28416" lon="-4.13484">
        <ele>173.571743</ele>
        <time>2022-12-10T11:48:39.184Z</time>
      </trkpt>
      <trkpt lat="48.28416" lon="-4.1347">
        <ele>173.906828</ele>
        <time>2022-12-10T11:48:44.186Z</time>
      </trkpt>
      <trkpt lat="48.28416" lon="-4.13455">
        <ele>174.251175</ele>
        <time>2022-12-10T11:48:50.160Z</time>
      </trkpt>
      <trkpt lat="48.28417" lon="-4.13439">
        <ele>174.619204</ele>
        <time>2022-12-10T11:48:56.166Z</time>
      </trkpt>
      <trkpt lat="48.28417" lon="-4.13425">
        <ele>174.94996</ele>
        <time>2022-12-10T11:49:01.184Z</time>
      </trkpt>
      <trkpt lat="48.28418" lon="-4.13411">
        <ele>175.422079</ele>
        <time>2022-12-10T11:49:06.180Z</time>
      </trkpt>
      <trkpt lat="48.2842" lon="-4.13397">
        <ele>175.949892</ele>
        <time>2022-12-10T11:49:11.179Z</time>
      </trkpt>
      <trkpt lat="48.28421" lon="-4.13382">
        <ele>176.503884</ele>
        <time>2022-12-10T11:49:16.159Z</time>
      </trkpt>
      <trkpt lat="48.28424" lon="-4.13367">
        <ele>177.094559</ele>
        <time>2022-12-10T11:49:23.158Z</time>
      </trkpt>
      <trkpt lat="48.28426" lon="-4.13352">
        <ele>177.668185</ele>
        <time>2022-12-10T11:49:29.167Z</time>
      </trkpt>
      <trkpt lat="48.28428" lon="-4.13337">
        <ele>178.250607</ele>
        <time>2022-12-10T11:49:35.155Z</time>
      </trkpt>
      <trkpt lat="48.28431" lon="-4.13322">
        <ele>178.857007</ele>
        <time>2022-12-10T11:49:42.168Z</time>
      </trkpt>
      <trkpt lat="48.28435" lon="-4.13308">
        <ele>179.41858</ele>
        <time>2022-12-10T11:49:48.159Z</time>
      </trkpt>
      <trkpt lat="48.28438" lon="-4.13293">
        <ele>180.030543</ele>
        <time>2022-12-10T11:49:54.176Z</time>
      </trkpt>
      <trkpt lat="48.28442" lon="-4.13278">
        <ele>180.621883</ele>
        <time>2022-12-10T11:50:00.156Z</time>
      </trkpt>
      <trkpt lat="48.28447" lon="-4.13264">
        <ele>181.23937</ele>
        <time>2022-12-10T11:50:06.160Z</time>
      </trkpt>
      <trkpt lat="48.28452" lon="-4.1325">
        <ele>181.828133</ele>
        <time>2022-12-10T11:50:11.193Z</time>
      </trkpt>
      <trkpt lat="48.28455" lon="-4.13235">
        <ele>182.414791</ele>
        <time>2022-12-10T11:50:17.159Z</time>
      </trkpt>
      <trkpt lat="48.2846" lon="-4.13222">
        <ele>182.962884</ele>
        <time>2022-12-10T11:50:22.164Z</time>
      </trkpt>
      <trkpt lat="48.28464" lon="-4.13209">
        <ele>183.534658</ele>
        <time>2022-12-10T11:50:27.182Z</time>
      </trkpt>
      <trkpt lat="48.28468" lon="-4.13195">
        <ele>184.0951</ele>
        <time>2022-12-10T11:50:32.181Z</time>
      </trkpt>
      <trkpt lat="48.28471" lon="-4.13181">
        <ele>184.647652</ele>
        <time>2022-12-10T11:50:37.173Z</time>
      </trkpt>
      <trkpt lat="48.28474" lon="-4.13167">
        <ele>185.198985</ele>
        <time>2022-12-10T11:50:42.158Z</time>
      </trkpt>
      <trkpt lat="48.28478" lon="-4.13154">
        <ele>185.648126</ele>
        <time>2022-12-10T11:50:47.181Z</time>
      </trkpt>
      <trkpt lat="48.28482" lon="-4.13141">
        <ele>186.073761</ele>
        <time>2022-12-10T11:50:52.169Z</time>
      </trkpt>
      <trkpt lat="48.28486" lon="-4.13127">
        <ele>186.506795</ele>
        <time>2022-12-10T11:50:57.183Z</time>
      </trkpt>
      <trkpt lat="48.2849" lon="-4.13114">
        <ele>186.932711</ele>
        <time>2022-12-10T11:51:02.175Z</time>
      </trkpt>
      <trkpt lat="48.28495" lon="-4.13101">
        <ele>187.353591</ele>
        <time>2022-12-10T11:51:08.190Z</time>
      </trkpt>
      <trkpt lat="48.28499" lon="-4.13087">
        <ele>187.801534</ele>
        <time>2022-12-10T11:51:14.165Z</time>
      </trkpt>
      <trkpt lat="48.28502" lon="-4.13075">
        <ele>188.200806</ele>
        <time>2022-12-10T11:51:19.161Z</time>
      </trkpt>
      <trkpt lat="48.28506" lon="-4.13062">
        <ele>188.59878</ele>
        <time>2022-12-10T11:51:24.162Z</time>
      </trkpt>
      <trkpt lat="48.28509" lon="-4.1305">
        <ele>188.994974</ele>
        <time>2022-12-10T11:51:29.173Z</time>
      </trkpt>
      <trkpt lat="48.28513" lon="-4.13037">
        <ele>189.408377</ele>
        <time>2022-12-10T11:51:34.187Z</time>
      </trkpt>
      <trkpt lat="48.28516" lon="-4.13024">
        <ele>189.810035</ele>
        <time>2022-12-10T11:51:39.166Z</time>
      </trkpt>
      <trkpt lat="48.2852" lon="-4.13011">
        <ele>190.216992</ele>
        <time>2022-12-10T11:51:44.179Z</time>
      </trkpt>
      <trkpt lat="48.28524" lon="-4.12997">
        <ele>190.667615</ele>
        <time>2022-12-10T11:51:50.161Z</time>
      </trkpt>
      <trkpt lat="48.28527" lon="-4.12983">
        <ele>191.100108</ele>
        <time>2022-12-10T11:51:56.188Z</time>
      </trkpt>
      <trkpt lat="48.28532" lon="-4.12969">
        <ele>191.563352</ele>
        <time>2022-12-10T11:52:02.185Z</time>
      </trkpt>
      <trkpt lat="48.28535" lon="-4.12954">
        <ele>192.02207</ele>
        <time>2022-12-10T11:52:08.190Z</time>
      </trkpt>
      <trkpt lat="48.28539" lon="-4.1294">
        <ele>192.465314</ele>
        <time>2022-12-10T11:52:15.155Z</time>
      </trkpt>
      <trkpt lat="48.28543" lon="-4.12927">
        <ele>192.889262</ele>
        <time>2022-12-10T11:52:21.163Z</time>
      </trkpt>
      <trkpt lat="48.28545" lon="-4.12913">
        <ele>193.287527</ele>
        <time>2022-12-10T11:52:27.168Z</time>
      </trkpt>
      <trkpt lat="48.28549" lon="-4.12898">
        <ele>193.643861</ele>
        <time>2022-12-10T11:52:33.162Z</time>
      </trkpt>
      <trkpt lat="48.28552" lon="-4.12883">
        <ele>193.999125</ele>
        <time>2022-12-10T11:52:39.163Z</time>
      </trkpt>
      <trkpt lat="48.28555" lon="-4.1287">
        <ele>194.315234</ele>
        <time>2022-12-10T11:52:44.159Z</time>
      </trkpt>
      <trkpt lat="48.28558" lon="-4.12858">
        <ele>194.6271</ele>
        <time>2022-12-10T11:52:49.167Z</time>
      </trkpt>
      <trkpt lat="48.28561" lon="-4.12845">
        <ele>194.939525</ele>
        <time>2022-12-10T11:52:54.164Z</time>
      </trkpt>
      <trkpt lat="48.28564" lon="-4.12832">
        <ele>195.258105</ele>
        <time>2022-12-10T11:52:59.187Z</time>
      </trkpt>
      <trkpt lat="48.28566" lon="-4.12818">
        <ele>195.567456</ele>
        <time>2022-12-10T11:53:04.191Z</time>
      </trkpt>
      <trkpt lat="48.2857" lon="-4.12805">
        <ele>195.898334</ele>
        <time>2022-12-10T11:53:09.181Z</time>
      </trkpt>
      <trkpt lat="48.28573" lon="-4.12791">
        <ele>196.240563</ele>
        <time>2022-12-10T11:53:14.180Z</time>
      </trkpt>
      <trkpt lat="48.28576" lon="-4.12776">
        <ele>196.592617</ele>
        <time>2022-12-10T11:53:19.188Z</time>
      </trkpt>
      <trkpt lat="48.28579" lon="-4.12762">
        <ele>196.944671</ele>
        <time>2022-12-10T11:53:24.162Z</time>
      </trkpt>
      <trkpt lat="48.28583" lon="-4.12747">
        <ele>197.301492</ele>
        <time>2022-12-10T11:53:29.180Z</time>
      </trkpt>
      <trkpt lat="48.28585" lon="-4.12731">
        <ele>197.67405</ele>
        <time>2022-12-10T11:53:35.157Z</time>
      </trkpt>
      <trkpt lat="48.28589" lon="-4.12717">
        <ele>198.023901</ele>
        <time>2022-12-10T11:53:41.157Z</time>
      </trkpt>
      <trkpt lat="48.28591" lon="-4.12702">
        <ele>198.382812</ele>
        <time>2022-12-10T11:53:48.159Z</time>
      </trkpt>
      <trkpt lat="48.28595" lon="-4.12688">
        <ele>198.72956</ele>
        <time>2022-12-10T11:53:54.158Z</time>
      </trkpt>
      <trkpt lat="48.28597" lon="-4.12673">
        <ele>199.082469</ele>
        <time>2022-12-10T11:54:00.163Z</time>
      </trkpt>
      <trkpt lat="48.28601" lon="-4.12658">
        <ele>199.427409</ele>
        <time>2022-12-10T11:54:06.162Z</time>
      </trkpt>
      <trkpt lat="48.28605" lon="-4.12644">
        <ele>199.702185</ele>
        <time>2022-12-10T11:54:12.161Z</time>
      </trkpt>
      <trkpt lat="48.28607" lon="-4.12629">
        <ele>199.984568</ele>
        <time>2022-12-10T11:54:18.159Z</time>
      </trkpt>
      <trkpt lat="48.28611" lon="-4.12615">
        <ele>200.251376</ele>
        <time>2022-12-10T11:54:24.170Z</time>
      </trkpt>
      <trkpt lat="48.28614" lon="-4.12601">
        <ele>200.507322</ele>
        <time>2022-12-10T11:54:29.163Z</time>
      </trkpt>
      <trkpt lat="48.28617" lon="-4.12587">
        <ele>200.776401</ele>
        <time>2022-12-10T11:54:34.164Z</time>
      </trkpt>
      <trkpt lat="48.28618" lon="-4.12571">
        <ele>201.065691</ele>
        <time>2022-12-10T11:54:40.163Z</time>
      </trkpt>
      <trkpt lat="48.28622" lon="-4.12556">
        <ele>201.345259</ele>
        <time>2022-12-10T11:54:46.172Z</time>
      </trkpt>
      <trkpt lat="48.28625" lon="-4.12543">
        <ele>201.589011</ele>
        <time>2022-12-10T11:54:51.164Z</time>
      </trkpt>
      <trkpt lat="48.28629" lon="-4.1253">
        <ele>201.855589</ele>
        <time>2022-12-10T11:54:58.168Z</time>
      </trkpt>
      <trkpt lat="48.28633" lon="-4.12516">
        <ele>202.134247</ele>
        <time>2022-12-10T11:55:04.165Z</time>
      </trkpt>
      <trkpt lat="48.28635" lon="-4.125">
        <ele>202.412585</ele>
        <time>2022-12-10T11:55:11.169Z</time>
      </trkpt>
      <trkpt lat="48.28637" lon="-4.12487">
        <ele>202.665136</ele>
        <time>2022-12-10T11:55:17.165Z</time>
      </trkpt>
      <trkpt lat="48.28638" lon="-4.12472">
        <ele>202.923007</ele>
        <time>2022-12-10T11:55:23.172Z</time>
      </trkpt>
      <trkpt lat="48.2864" lon="-4.12458">
        <ele>203.179153</ele>
        <time>2022-12-10T11:55:29.190Z</time>
      </trkpt>
      <trkpt lat="48.28641" lon="-4.12444">
        <ele>203.441316</ele>
        <time>2022-12-10T11:55:36.154Z</time>
      </trkpt>
      <trkpt lat="48.28641" lon="-4.12429">
        <ele>203.703589</ele>
        <time>2022-12-10T11:55:42.199Z</time>
      </trkpt>
      <trkpt lat="48.28642" lon="-4.12415">
        <ele>203.969947</ele>
        <time>2022-12-10T11:55:48.167Z</time>
      </trkpt>
      <trkpt lat="48.2864" lon="-4.124">
        <ele>204.228864</ele>
        <time>2022-12-10T11:55:54.174Z</time>
      </trkpt>
      <trkpt lat="48.28639" lon="-4.12385">
        <ele>204.619908</ele>
        <time>2022-12-10T11:56:00.159Z</time>
      </trkpt>
      <trkpt lat="48.28637" lon="-4.12371">
        <ele>205.001962</ele>
        <time>2022-12-10T11:56:06.169Z</time>
      </trkpt>
      <trkpt lat="48.28635" lon="-4.12355">
        <ele>205.41203</ele>
        <time>2022-12-10T11:56:12.181Z</time>
      </trkpt>
      <trkpt lat="48.28631" lon="-4.1234">
        <ele>205.83034</ele>
        <time>2022-12-10T11:56:18.164Z</time>
      </trkpt>
      <trkpt lat="48.28628" lon="-4.12325">
        <ele>206.23268</ele>
        <time>2022-12-10T11:56:24.165Z</time>
      </trkpt>
      <trkpt lat="48.28622" lon="-4.12311">
        <ele>206.645628</ele>
        <time>2022-12-10T11:56:30.170Z</time>
      </trkpt>
      <trkpt lat="48.28617" lon="-4.12299">
        <ele>207.036324</ele>
        <time>2022-12-10T11:56:35.163Z</time>
      </trkpt>
      <trkpt lat="48.28611" lon="-4.12288">
        <ele>207.391289</ele>
        <time>2022-12-10T11:56:39.168Z</time>
      </trkpt>
      <trkpt lat="48.28604" lon="-4.12275">
        <ele>207.809056</ele>
        <time>2022-12-10T11:56:44.183Z</time>
      </trkpt>
      <trkpt lat="48.28598" lon="-4.12265">
        <ele>208.156847</ele>
        <time>2022-12-10T11:56:48.188Z</time>
      </trkpt>
      <trkpt lat="48.28592" lon="-4.12256">
        <ele>208.513517</ele>
        <time>2022-12-10T11:56:52.187Z</time>
      </trkpt>
      <trkpt lat="48.28585" lon="-4.12244">
        <ele>208.918437</ele>
        <time>2022-12-10T11:56:56.161Z</time>
      </trkpt>
      <trkpt lat="48.28578" lon="-4.12233">
        <ele>209.285479</ele>
        <time>2022-12-10T11:57:00.171Z</time>
      </trkpt>
      <trkpt lat="48.28572" lon="-4.12223">
        <ele>209.656339</ele>
        <time>2022-12-10T11:57:05.188Z</time>
      </trkpt>
      <trkpt lat="48.28565" lon="-4.12213">
        <ele>210.036123</ele>
        <time>2022-12-10T11:57:09.189Z</time>
      </trkpt>
      <trkpt lat="48.28557" lon="-4.12202">
        <ele>210.446974</ele>
        <time>2022-12-10T11:57:13.166Z</time>
      </trkpt>
      <trkpt lat="48.2855" lon="-4.12191">
        <ele>210.844705</ele>
        <time>2022-12-10T11:57:17.183Z</time>
      </trkpt>
      <trkpt lat="48.28542" lon="-4.12178">
        <ele>211.118708</ele>
        <time>2022-12-10T11:57:21.175Z</time>
      </trkpt>
      <trkpt lat="48.28535" lon="-4.12168">
        <ele>210.690345</ele>
        <time>2022-12-10T11:57:25.184Z</time>
      </trkpt>
      <trkpt lat="48.28528" lon="-4.1216">
        <ele>210.295589</ele>
        <time>2022-12-10T11:57:29.168Z</time>
      </trkpt>
      <trkpt lat="48.28519" lon="-4.12149">
        <ele>209.796945</ele>
        <time>2022-12-10T11:57:34.195Z</time>
      </trkpt>
      <trkpt lat="48.28511" lon="-4.1214">
        <ele>209.354586</ele>
        <time>2022-12-10T11:57:38.196Z</time>
      </trkpt>
      <trkpt lat="48.28504" lon="-4.12131">
        <ele>208.961561</ele>
        <time>2022-12-10T11:57:41.179Z</time>
      </trkpt>
      <trkpt lat="48.28496" lon="-4.12124">
        <ele>208.545134</ele>
        <time>2022-12-10T11:57:44.162Z</time>
      </trkpt>
      <trkpt lat="48.2849" lon="-4.12113">
        <ele>208.142075</ele>
        <time>2022-12-10T11:57:47.169Z</time>
      </trkpt>
      <trkpt lat="48.28485" lon="-4.12098">
        <ele>207.627185</ele>
        <time>2022-12-10T11:57:51.168Z</time>
      </trkpt>
      <trkpt lat="48.28479" lon="-4.12085">
        <ele>207.198739</ele>
        <time>2022-12-10T11:57:54.158Z</time>
      </trkpt>
      <trkpt lat="48.28474" lon="-4.12074">
        <ele>206.794034</ele>
        <time>2022-12-10T11:57:57.191Z</time>
      </trkpt>
      <trkpt lat="48.28468" lon="-4.12062">
        <ele>206.360463</ele>
        <time>2022-12-10T11:58:00.175Z</time>
      </trkpt>
      <trkpt lat="48.28463" lon="-4.12049">
        <ele>205.918462</ele>
        <time>2022-12-10T11:58:03.179Z</time>
      </trkpt>
      <trkpt lat="48.28459" lon="-4.12035">
        <ele>205.481712</ele>
        <time>2022-12-10T11:58:06.177Z</time>
      </trkpt>
      <trkpt lat="48.28456" lon="-4.12022">
        <ele>205.062035</ele>
        <time>2022-12-10T11:58:09.182Z</time>
      </trkpt>
      <trkpt lat="48.28452" lon="-4.12009">
        <ele>204.665999</ele>
        <time>2022-12-10T11:58:12.184Z</time>
      </trkpt>
      <trkpt lat="48.2845" lon="-4.11995">
        <ele>204.258206</ele>
        <time>2022-12-10T11:58:15.175Z</time>
      </trkpt>
      <trkpt lat="48.28448" lon="-4.1198">
        <ele>203.817297</ele>
        <time>2022-12-10T11:58:18.172Z</time>
      </trkpt>
      <trkpt lat="48.28446" lon="-4.11965">
        <ele>203.366917</ele>
        <time>2022-12-10T11:58:21.164Z</time>
      </trkpt>
      <trkpt lat="48.28444" lon="-4.11951">
        <ele>203.080727</ele>
        <time>2022-12-10T11:58:24.186Z</time>
      </trkpt>
      <trkpt lat="48.28442" lon="-4.11936">
        <ele>202.794971</ele>
        <time>2022-12-10T11:58:27.187Z</time>
      </trkpt>
      <trkpt lat="48.28441" lon="-4.11922">
        <ele>202.509894</ele>
        <time>2022-12-10T11:58:30.178Z</time>
      </trkpt>
      <trkpt lat="48.2844" lon="-4.11907">
        <ele>202.22252</ele>
        <time>2022-12-10T11:58:33.190Z</time>
      </trkpt>
      <trkpt lat="48.28438" lon="-4.1189">
        <ele>201.894554</ele>
        <time>2022-12-10T11:58:36.173Z</time>
      </trkpt>
      <trkpt lat="48.28435" lon="-4.11874">
        <ele>201.564861</ele>
        <time>2022-12-10T11:58:39.183Z</time>
      </trkpt>
      <trkpt lat="48.28433" lon="-4.11857">
        <ele>201.233622</ele>
        <time>2022-12-10T11:58:42.180Z</time>
      </trkpt>
      <trkpt lat="48.28431" lon="-4.1184">
        <ele>200.902656</ele>
        <time>2022-12-10T11:58:45.189Z</time>
      </trkpt>
      <trkpt lat="48.28429" lon="-4.11824">
        <ele>200.584272</ele>
        <time>2022-12-10T11:58:48.187Z</time>
      </trkpt>
      <trkpt lat="48.28427" lon="-4.11806">
        <ele>200.242105</ele>
        <time>2022-12-10T11:58:51.187Z</time>
      </trkpt>
      <trkpt lat="48.28424" lon="-4.11789">
        <ele>199.899705</ele>
        <time>2022-12-10T11:58:54.186Z</time>
      </trkpt>
      <trkpt lat="48.28422" lon="-4.11772">
        <ele>199.557373</ele>
        <time>2022-12-10T11:58:57.186Z</time>
      </trkpt>
      <trkpt lat="48.28419" lon="-4.11754">
        <ele>199.209473</ele>
        <time>2022-12-10T11:59:00.168Z</time>
      </trkpt>
      <trkpt lat="48.28417" lon="-4.11736">
        <ele>198.864925</ele>
        <time>2022-12-10T11:59:03.181Z</time>
      </trkpt>
      <trkpt lat="48.28416" lon="-4.1172">
        <ele>198.551788</ele>
        <time>2022-12-10T11:59:06.158Z</time>
      </trkpt>
      <trkpt lat="48.28414" lon="-4.11704">
        <ele>198.23193</ele>
        <time>2022-12-10T11:59:09.184Z</time>
      </trkpt>
      <trkpt lat="48.28412" lon="-4.11687">
        <ele>197.873604</ele>
        <time>2022-12-10T11:59:12.176Z</time>
      </trkpt>
      <trkpt lat="48.28409" lon="-4.1167">
        <ele>197.500468</ele>
        <time>2022-12-10T11:59:15.153Z</time>
      </trkpt>
      <trkpt lat="48.28406" lon="-4.11652">
        <ele>197.093106</ele>
        <time>2022-12-10T11:59:18.190Z</time>
      </trkpt>
      <trkpt lat="48.28404" lon="-4.11633">
        <ele>196.676344</ele>
        <time>2022-12-10T11:59:21.187Z</time>
      </trkpt>
      <trkpt lat="48.28402" lon="-4.11614">
        <ele>196.270142</ele>
        <time>2022-12-10T11:59:24.173Z</time>
      </trkpt>
      <trkpt lat="48.28399" lon="-4.11596">
        <ele>195.87875</ele>
        <time>2022-12-10T11:59:27.160Z</time>
      </trkpt>
      <trkpt lat="48.28397" lon="-4.11579">
        <ele>195.500662</ele>
        <time>2022-12-10T11:59:30.169Z</time>
      </trkpt>
      <trkpt lat="48.28396" lon="-4.11562">
        <ele>195.141388</ele>
        <time>2022-12-10T11:59:33.163Z</time>
      </trkpt>
      <trkpt lat="48.28393" lon="-4.11546">
        <ele>194.784891</ele>
        <time>2022-12-10T11:59:36.185Z</time>
      </trkpt>
      <trkpt lat="48.2839" lon="-4.1153">
        <ele>194.434637</ele>
        <time>2022-12-10T11:59:39.163Z</time>
      </trkpt>
      <trkpt lat="48.28389" lon="-4.11516">
        <ele>194.117441</ele>
        <time>2022-12-10T11:59:42.162Z</time>
      </trkpt>
      <trkpt lat="48.28387" lon="-4.11501">
        <ele>193.794966</ele>
        <time>2022-12-10T11:59:45.178Z</time>
      </trkpt>
      <trkpt lat="48.28385" lon="-4.11486">
        <ele>193.458069</ele>
        <time>2022-12-10T11:59:48.179Z</time>
      </trkpt>
      <trkpt lat="48.28383" lon="-4.1147">
        <ele>193.116956</ele>
        <time>2022-12-10T11:59:51.176Z</time>
      </trkpt>
      <trkpt lat="48.28382" lon="-4.11455">
        <ele>192.784398</ele>
        <time>2022-12-10T11:59:54.193Z</time>
      </trkpt>
      <trkpt lat="48.2838" lon="-4.11439">
        <ele>192.442005</ele>
        <time>2022-12-10T11:59:57.193Z</time>
      </trkpt>
      <trkpt lat="48.28378" lon="-4.11423">
        <ele>192.013212</ele>
        <time>2022-12-10T12:00:00.164Z</time>
      </trkpt>
      <trkpt lat="48.28376" lon="-4.11407">
        <ele>191.554659</ele>
        <time>2022-12-10T12:00:03.167Z</time>
      </trkpt>
      <trkpt lat="48.28374" lon="-4.11391">
        <ele>191.09538</ele>
        <time>2022-12-10T12:00:06.195Z</time>
      </trkpt>
      <trkpt lat="48.28373" lon="-4.11375">
        <ele>190.642398</ele>
        <time>2022-12-10T12:00:09.174Z</time>
      </trkpt>
      <trkpt lat="48.28371" lon="-4.11359">
        <ele>190.183119</ele>
        <time>2022-12-10T12:00:12.182Z</time>
      </trkpt>
      <trkpt lat="48.28368" lon="-4.11342">
        <ele>189.700863</ele>
        <time>2022-12-10T12:00:15.161Z</time>
      </trkpt>
      <trkpt lat="48.28365" lon="-4.11326">
        <ele>189.224476</ele>
        <time>2022-12-10T12:00:18.177Z</time>
      </trkpt>
      <trkpt lat="48.28363" lon="-4.11309">
        <ele>188.748089</ele>
        <time>2022-12-10T12:00:21.173Z</time>
      </trkpt>
      <trkpt lat="48.28361" lon="-4.11291">
        <ele>188.219804</ele>
        <time>2022-12-10T12:00:24.181Z</time>
      </trkpt>
      <trkpt lat="48.28358" lon="-4.11273">
        <ele>187.708483</ele>
        <time>2022-12-10T12:00:27.188Z</time>
      </trkpt>
      <trkpt lat="48.28356" lon="-4.11256">
        <ele>187.215561</ele>
        <time>2022-12-10T12:00:30.191Z</time>
      </trkpt>
      <trkpt lat="48.28354" lon="-4.11239">
        <ele>186.719796</ele>
        <time>2022-12-10T12:00:33.187Z</time>
      </trkpt>
      <trkpt lat="48.28351" lon="-4.11222">
        <ele>186.233172</ele>
        <time>2022-12-10T12:00:36.179Z</time>
      </trkpt>
      <trkpt lat="48.2835" lon="-4.11205">
        <ele>185.749522</ele>
        <time>2022-12-10T12:00:39.188Z</time>
      </trkpt>
      <trkpt lat="48.28347" lon="-4.11188">
        <ele>185.245577</ele>
        <time>2022-12-10T12:00:42.182Z</time>
      </trkpt>
      <trkpt lat="48.28345" lon="-4.1117">
        <ele>184.736142</ele>
        <time>2022-12-10T12:00:45.174Z</time>
      </trkpt>
      <trkpt lat="48.28343" lon="-4.11153">
        <ele>184.2</ele>
        <time>2022-12-10T12:00:48.176Z</time>
      </trkpt>
      <trkpt lat="48.28341" lon="-4.11136">
        <ele>183.685854</ele>
        <time>2022-12-10T12:00:51.183Z</time>
      </trkpt>
      <trkpt lat="48.28339" lon="-4.11118">
        <ele>183.127773</ele>
        <time>2022-12-10T12:00:54.189Z</time>
      </trkpt>
      <trkpt lat="48.28337" lon="-4.111">
        <ele>182.564523</ele>
        <time>2022-12-10T12:00:57.185Z</time>
      </trkpt>
      <trkpt lat="48.28335" lon="-4.11082">
        <ele>182.003589</ele>
        <time>2022-12-10T12:01:00.174Z</time>
      </trkpt>
      <trkpt lat="48.28334" lon="-4.11065">
        <ele>181.476714</ele>
        <time>2022-12-10T12:01:03.179Z</time>
      </trkpt>
      <trkpt lat="48.28332" lon="-4.11047">
        <ele>180.911076</ele>
        <time>2022-12-10T12:01:06.179Z</time>
      </trkpt>
      <trkpt lat="48.2833" lon="-4.11028">
        <ele>180.325364</ele>
        <time>2022-12-10T12:01:09.182Z</time>
      </trkpt>
      <trkpt lat="48.2833" lon="-4.11008">
        <ele>179.72508</ele>
        <time>2022-12-10T12:01:12.189Z</time>
      </trkpt>
      <trkpt lat="48.2833" lon="-4.10989">
        <ele>179.134262</ele>
        <time>2022-12-10T12:01:15.186Z</time>
      </trkpt>
      <trkpt lat="48.28331" lon="-4.10969">
        <ele>178.530814</ele>
        <time>2022-12-10T12:01:18.189Z</time>
      </trkpt>
      <trkpt lat="48.28331" lon="-4.10949">
        <ele>177.91855</ele>
        <time>2022-12-10T12:01:21.179Z</time>
      </trkpt>
      <trkpt lat="48.28332" lon="-4.10929">
        <ele>177.315207</ele>
        <time>2022-12-10T12:01:24.190Z</time>
      </trkpt>
      <trkpt lat="48.28332" lon="-4.1091">
        <ele>176.718249</ele>
        <time>2022-12-10T12:01:27.183Z</time>
      </trkpt>
      <trkpt lat="48.28332" lon="-4.10892">
        <ele>176.165722</ele>
        <time>2022-12-10T12:01:30.183Z</time>
      </trkpt>
      <trkpt lat="48.28332" lon="-4.10874">
        <ele>175.592632</ele>
        <time>2022-12-10T12:01:33.189Z</time>
      </trkpt>
      <trkpt lat="48.28331" lon="-4.10856">
        <ele>175.003966</ele>
        <time>2022-12-10T12:01:36.187Z</time>
      </trkpt>
      <trkpt lat="48.28332" lon="-4.10839">
        <ele>174.460188</ele>
        <time>2022-12-10T12:01:39.180Z</time>
      </trkpt>
      <trkpt lat="48.28332" lon="-4.10823">
        <ele>173.964356</ele>
        <time>2022-12-10T12:01:42.168Z</time>
      </trkpt>
      <trkpt lat="48.28332" lon="-4.10807">
        <ele>173.455738</ele>
        <time>2022-12-10T12:01:45.178Z</time>
      </trkpt>
      <trkpt lat="48.28333" lon="-4.10791">
        <ele>172.933981</ele>
        <time>2022-12-10T12:01:48.164Z</time>
      </trkpt>
      <trkpt lat="48.28333" lon="-4.10775">
        <ele>172.402642</ele>
        <time>2022-12-10T12:01:51.161Z</time>
      </trkpt>
      <trkpt lat="48.28333" lon="-4.10758">
        <ele>171.862168</ele>
        <time>2022-12-10T12:01:54.189Z</time>
      </trkpt>
      <trkpt lat="48.28332" lon="-4.10741">
        <ele>171.341938</ele>
        <time>2022-12-10T12:01:57.163Z</time>
      </trkpt>
      <trkpt lat="48.28332" lon="-4.10727">
        <ele>170.877893</ele>
        <time>2022-12-10T12:02:00.186Z</time>
      </trkpt>
      <trkpt lat="48.28331" lon="-4.10713">
        <ele>170.446195</ele>
        <time>2022-12-10T12:02:03.190Z</time>
      </trkpt>
      <trkpt lat="48.28331" lon="-4.107">
        <ele>170.00718</ele>
        <time>2022-12-10T12:02:06.164Z</time>
      </trkpt>
      <trkpt lat="48.28331" lon="-4.10685">
        <ele>169.543434</ele>
        <time>2022-12-10T12:02:09.184Z</time>
      </trkpt>
      <trkpt lat="48.28332" lon="-4.1067">
        <ele>169.067251</ele>
        <time>2022-12-10T12:02:12.169Z</time>
      </trkpt>
      <trkpt lat="48.28334" lon="-4.10655">
        <ele>168.556999</ele>
        <time>2022-12-10T12:02:15.163Z</time>
      </trkpt>
      <trkpt lat="48.28336" lon="-4.10639">
        <ele>168.038669</ele>
        <time>2022-12-10T12:02:18.195Z</time>
      </trkpt>
      <trkpt lat="48.28339" lon="-4.10623">
        <ele>167.43134</ele>
        <time>2022-12-10T12:02:21.170Z</time>
      </trkpt>
      <trkpt lat="48.28343" lon="-4.10608">
        <ele>166.764348</ele>
        <time>2022-12-10T12:02:24.162Z</time>
      </trkpt>
      <trkpt lat="48.28348" lon="-4.10593">
        <ele>166.095047</ele>
        <time>2022-12-10T12:02:27.162Z</time>
      </trkpt>
      <trkpt lat="48.28353" lon="-4.10578">
        <ele>165.399195</ele>
        <time>2022-12-10T12:02:30.189Z</time>
      </trkpt>
      <trkpt lat="48.28358" lon="-4.10563">
        <ele>164.718252</ele>
        <time>2022-12-10T12:02:33.179Z</time>
      </trkpt>
      <trkpt lat="48.28364" lon="-4.1055">
        <ele>164.085562</ele>
        <time>2022-12-10T12:02:36.184Z</time>
      </trkpt>
      <trkpt lat="48.28368" lon="-4.10537">
        <ele>163.475427</ele>
        <time>2022-12-10T12:02:39.184Z</time>
      </trkpt>
      <trkpt lat="48.28372" lon="-4.10523">
        <ele>162.850158</ele>
        <time>2022-12-10T12:02:42.173Z</time>
      </trkpt>
      <trkpt lat="48.28376" lon="-4.10508">
        <ele>162.176297</ele>
        <time>2022-12-10T12:02:45.167Z</time>
      </trkpt>
      <trkpt lat="48.28377" lon="-4.1049">
        <ele>161.46268</ele>
        <time>2022-12-10T12:02:48.166Z</time>
      </trkpt>
      <trkpt lat="48.28378" lon="-4.10473">
        <ele>160.76868</ele>
        <time>2022-12-10T12:02:51.170Z</time>
      </trkpt>
      <trkpt lat="48.28376" lon="-4.10457">
        <ele>160.107177</ele>
        <time>2022-12-10T12:02:54.164Z</time>
      </trkpt>
      <trkpt lat="48.28374" lon="-4.10442">
        <ele>159.471049</ele>
        <time>2022-12-10T12:02:57.167Z</time>
      </trkpt>
      <trkpt lat="48.2837" lon="-4.10427">
        <ele>158.791387</ele>
        <time>2022-12-10T12:03:00.168Z</time>
      </trkpt>
      <trkpt lat="48.28366" lon="-4.10411">
        <ele>158.080899</ele>
        <time>2022-12-10T12:03:03.189Z</time>
      </trkpt>
      <trkpt lat="48.28361" lon="-4.10395">
        <ele>157.358066</ele>
        <time>2022-12-10T12:03:06.183Z</time>
      </trkpt>
      <trkpt lat="48.28355" lon="-4.10381">
        <ele>156.681003</ele>
        <time>2022-12-10T12:03:09.170Z</time>
      </trkpt>
      <trkpt lat="48.28349" lon="-4.10366">
        <ele>156.093856</ele>
        <time>2022-12-10T12:03:12.191Z</time>
      </trkpt>
      <trkpt lat="48.28344" lon="-4.10352">
        <ele>155.524348</ele>
        <time>2022-12-10T12:03:15.182Z</time>
      </trkpt>
      <trkpt lat="48.28339" lon="-4.10338">
        <ele>154.984815</ele>
        <time>2022-12-10T12:03:18.168Z</time>
      </trkpt>
      <trkpt lat="48.28334" lon="-4.10323">
        <ele>154.444684</ele>
        <time>2022-12-10T12:03:21.184Z</time>
      </trkpt>
      <trkpt lat="48.2833" lon="-4.10309">
        <ele>153.906201</ele>
        <time>2022-12-10T12:03:24.188Z</time>
      </trkpt>
      <trkpt lat="48.28325" lon="-4.10296">
        <ele>153.383556</ele>
        <time>2022-12-10T12:03:27.188Z</time>
      </trkpt>
      <trkpt lat="48.28321" lon="-4.10282">
        <ele>152.869191</ele>
        <time>2022-12-10T12:03:30.176Z</time>
      </trkpt>
      <trkpt lat="48.28318" lon="-4.10266">
        <ele>152.316541</ele>
        <time>2022-12-10T12:03:33.164Z</time>
      </trkpt>
      <trkpt lat="48.28315" lon="-4.10251">
        <ele>151.771899</ele>
        <time>2022-12-10T12:03:36.187Z</time>
      </trkpt>
      <trkpt lat="48.28313" lon="-4.10236">
        <ele>151.23613</ele>
        <time>2022-12-10T12:03:39.188Z</time>
      </trkpt>
      <trkpt lat="48.28311" lon="-4.1022">
        <ele>150.684902</ele>
        <time>2022-12-10T12:03:42.162Z</time>
      </trkpt>
      <trkpt lat="48.28308" lon="-4.10203">
        <ele>150.083743</ele>
        <time>2022-12-10T12:03:45.175Z</time>
      </trkpt>
      <trkpt lat="48.28306" lon="-4.10186">
        <ele>149.503412</ele>
        <time>2022-12-10T12:03:48.189Z</time>
      </trkpt>
      <trkpt lat="48.28304" lon="-4.10169">
        <ele>148.910388</ele>
        <time>2022-12-10T12:03:51.181Z</time>
      </trkpt>
      <trkpt lat="48.28303" lon="-4.10151">
        <ele>148.303372</ele>
        <time>2022-12-10T12:03:54.179Z</time>
      </trkpt>
      <trkpt lat="48.28303" lon="-4.10134">
        <ele>147.712556</ele>
        <time>2022-12-10T12:03:57.183Z</time>
      </trkpt>
      <trkpt lat="48.28304" lon="-4.10117">
        <ele>147.083246</ele>
        <time>2022-12-10T12:04:00.166Z</time>
      </trkpt>
      <trkpt lat="48.28304" lon="-4.10099">
        <ele>146.40224</ele>
        <time>2022-12-10T12:04:03.176Z</time>
      </trkpt>
      <trkpt lat="48.28306" lon="-4.10082">
        <ele>145.740813</ele>
        <time>2022-12-10T12:04:06.167Z</time>
      </trkpt>
      <trkpt lat="48.28307" lon="-4.10066">
        <ele>145.083984</ele>
        <time>2022-12-10T12:04:09.186Z</time>
      </trkpt>
      <trkpt lat="48.28309" lon="-4.10049">
        <ele>144.446125</ele>
        <time>2022-12-10T12:04:12.189Z</time>
      </trkpt>
      <trkpt lat="48.28312" lon="-4.10033">
        <ele>143.780624</ele>
        <time>2022-12-10T12:04:15.185Z</time>
      </trkpt>
      <trkpt lat="48.28315" lon="-4.10016">
        <ele>143.106561</ele>
        <time>2022-12-10T12:04:18.180Z</time>
      </trkpt>
      <trkpt lat="48.28318" lon="-4.09998">
        <ele>142.400559</ele>
        <time>2022-12-10T12:04:21.192Z</time>
      </trkpt>
      <trkpt lat="48.2832" lon="-4.0998">
        <ele>141.684312</ele>
        <time>2022-12-10T12:04:24.166Z</time>
      </trkpt>
      <trkpt lat="48.2832" lon="-4.09963">
        <ele>141.014961</ele>
        <time>2022-12-10T12:04:27.169Z</time>
      </trkpt>
      <trkpt lat="48.2832" lon="-4.09946">
        <ele>140.372798</ele>
        <time>2022-12-10T12:04:30.186Z</time>
      </trkpt>
      <trkpt lat="48.28318" lon="-4.0993">
        <ele>139.733818</ele>
        <time>2022-12-10T12:04:33.191Z</time>
      </trkpt>
      <trkpt lat="48.28316" lon="-4.09914">
        <ele>139.084768</ele>
        <time>2022-12-10T12:04:36.186Z</time>
      </trkpt>
      <trkpt lat="48.28313" lon="-4.09898">
        <ele>138.462263</ele>
        <time>2022-12-10T12:04:39.184Z</time>
      </trkpt>
      <trkpt lat="48.2831" lon="-4.09884">
        <ele>137.869371</ele>
        <time>2022-12-10T12:04:42.166Z</time>
      </trkpt>
      <trkpt lat="48.28306" lon="-4.09871">
        <ele>137.310056</ele>
        <time>2022-12-10T12:04:45.189Z</time>
      </trkpt>
      <trkpt lat="48.28301" lon="-4.09858">
        <ele>136.829042</ele>
        <time>2022-12-10T12:04:48.186Z</time>
      </trkpt>
      <trkpt lat="48.28294" lon="-4.09844">
        <ele>136.417028</ele>
        <time>2022-12-10T12:04:52.189Z</time>
      </trkpt>
      <trkpt lat="48.28287" lon="-4.09833">
        <ele>136.044202</ele>
        <time>2022-12-10T12:04:56.172Z</time>
      </trkpt>
      <trkpt lat="48.28276" lon="-4.09824">
        <ele>135.621495</ele>
        <time>2022-12-10T12:05:00.174Z</time>
      </trkpt>
      <trkpt lat="48.28267" lon="-4.09819">
        <ele>135.27235</ele>
        <time>2022-12-10T12:05:03.163Z</time>
      </trkpt>
      <trkpt lat="48.28256" lon="-4.09816">
        <ele>134.909604</ele>
        <time>2022-12-10T12:05:06.186Z</time>
      </trkpt>
      <trkpt lat="48.28246" lon="-4.09814">
        <ele>134.550088</ele>
        <time>2022-12-10T12:05:09.189Z</time>
      </trkpt>
      <trkpt lat="48.28236" lon="-4.09811">
        <ele>134.207581</ele>
        <time>2022-12-10T12:05:12.191Z</time>
      </trkpt>
      <trkpt lat="48.28226" lon="-4.09806">
        <ele>133.825161</ele>
        <time>2022-12-10T12:05:15.171Z</time>
      </trkpt>
      <trkpt lat="48.28217" lon="-4.09799">
        <ele>133.460873</ele>
        <time>2022-12-10T12:05:18.164Z</time>
      </trkpt>
      <trkpt lat="48.28208" lon="-4.09789">
        <ele>133.084182</ele>
        <time>2022-12-10T12:05:21.171Z</time>
      </trkpt>
      <trkpt lat="48.282" lon="-4.09779">
        <ele>132.71211</ele>
        <time>2022-12-10T12:05:24.187Z</time>
      </trkpt>
      <trkpt lat="48.28193" lon="-4.09766">
        <ele>132.335908</ele>
        <time>2022-12-10T12:05:27.168Z</time>
      </trkpt>
      <trkpt lat="48.28186" lon="-4.09754">
        <ele>131.960673</ele>
        <time>2022-12-10T12:05:30.189Z</time>
      </trkpt>
      <trkpt lat="48.28179" lon="-4.0974">
        <ele>131.558769</ele>
        <time>2022-12-10T12:05:33.181Z</time>
      </trkpt>
      <trkpt lat="48.28171" lon="-4.09726">
        <ele>131.153915</ele>
        <time>2022-12-10T12:05:36.168Z</time>
      </trkpt>
      <trkpt lat="48.28164" lon="-4.09713">
        <ele>130.75419</ele>
        <time>2022-12-10T12:05:39.168Z</time>
      </trkpt>
      <trkpt lat="48.28157" lon="-4.097">
        <ele>130.47872</ele>
        <time>2022-12-10T12:05:42.183Z</time>
      </trkpt>
      <trkpt lat="48.2815" lon="-4.09685">
        <ele>130.222712</ele>
        <time>2022-12-10T12:05:45.185Z</time>
      </trkpt>
      <trkpt lat="48.28143" lon="-4.09672">
        <ele>129.9734</ele>
        <time>2022-12-10T12:05:48.168Z</time>
      </trkpt>
      <trkpt lat="48.28136" lon="-4.0966">
        <ele>129.739032</ele>
        <time>2022-12-10T12:05:51.191Z</time>
      </trkpt>
      <trkpt lat="48.2813" lon="-4.09646">
        <ele>129.493924</ele>
        <time>2022-12-10T12:05:54.187Z</time>
      </trkpt>
      <trkpt lat="48.28124" lon="-4.09632">
        <ele>129.250184</ele>
        <time>2022-12-10T12:05:57.172Z</time>
      </trkpt>
      <trkpt lat="48.28118" lon="-4.09618">
        <ele>129.00519</ele>
        <time>2022-12-10T12:06:00.163Z</time>
      </trkpt>
      <trkpt lat="48.28113" lon="-4.09604">
        <ele>128.776461</ele>
        <time>2022-12-10T12:06:03.186Z</time>
      </trkpt>
      <trkpt lat="48.28108" lon="-4.09593">
        <ele>128.569286</ele>
        <time>2022-12-10T12:06:06.197Z</time>
      </trkpt>
      <trkpt lat="48.28102" lon="-4.09579">
        <ele>128.338819</ele>
        <time>2022-12-10T12:06:09.189Z</time>
      </trkpt>
      <trkpt lat="48.28097" lon="-4.09564">
        <ele>128.094211</ele>
        <time>2022-12-10T12:06:12.179Z</time>
      </trkpt>
      <trkpt lat="48.28093" lon="-4.0955">
        <ele>127.864337</ele>
        <time>2022-12-10T12:06:15.168Z</time>
      </trkpt>
      <trkpt lat="48.28089" lon="-4.09536">
        <ele>127.641649</ele>
        <time>2022-12-10T12:06:18.168Z</time>
      </trkpt>
      <trkpt lat="48.28086" lon="-4.09522">
        <ele>127.43451</ele>
        <time>2022-12-10T12:06:21.180Z</time>
      </trkpt>
      <trkpt lat="48.28083" lon="-4.09509">
        <ele>127.226105</ele>
        <time>2022-12-10T12:06:24.185Z</time>
      </trkpt>
      <trkpt lat="48.2808" lon="-4.09495">
        <ele>127.009406</ele>
        <time>2022-12-10T12:06:27.165Z</time>
      </trkpt>
      <trkpt lat="48.28077" lon="-4.09481">
        <ele>126.788491</ele>
        <time>2022-12-10T12:06:30.170Z</time>
      </trkpt>
      <trkpt lat="48.28073" lon="-4.09467">
        <ele>126.301633</ele>
        <time>2022-12-10T12:06:33.174Z</time>
      </trkpt>
      <trkpt lat="48.2807" lon="-4.09452">
        <ele>125.718411</ele>
        <time>2022-12-10T12:06:36.173Z</time>
      </trkpt>
      <trkpt lat="48.28067" lon="-4.09436">
        <ele>125.094978</ele>
        <time>2022-12-10T12:06:39.166Z</time>
      </trkpt>
      <trkpt lat="48.28064" lon="-4.0942">
        <ele>124.479956</ele>
        <time>2022-12-10T12:06:42.188Z</time>
      </trkpt>
      <trkpt lat="48.28061" lon="-4.09405">
        <ele>123.883629</ele>
        <time>2022-12-10T12:06:45.192Z</time>
      </trkpt>
      <trkpt lat="48.28058" lon="-4.0939">
        <ele>123.270142</ele>
        <time>2022-12-10T12:06:48.188Z</time>
      </trkpt>
      <trkpt lat="48.28055" lon="-4.09374">
        <ele>122.658269</ele>
        <time>2022-12-10T12:06:51.174Z</time>
      </trkpt>
      <trkpt lat="48.28053" lon="-4.09359">
        <ele>122.048688</ele>
        <time>2022-12-10T12:06:54.188Z</time>
      </trkpt>
      <trkpt lat="48.28049" lon="-4.09344">
        <ele>121.451393</ele>
        <time>2022-12-10T12:06:57.190Z</time>
      </trkpt>
      <trkpt lat="48.28046" lon="-4.09329">
        <ele>120.864951</ele>
        <time>2022-12-10T12:07:00.169Z</time>
      </trkpt>
      <trkpt lat="48.28044" lon="-4.09314">
        <ele>120.291222</ele>
        <time>2022-12-10T12:07:03.187Z</time>
      </trkpt>
      <trkpt lat="48.28041" lon="-4.09299">
        <ele>119.697523</ele>
        <time>2022-12-10T12:07:06.189Z</time>
      </trkpt>
      <trkpt lat="48.28038" lon="-4.09285">
        <ele>119.11108</ele>
        <time>2022-12-10T12:07:09.192Z</time>
      </trkpt>
      <trkpt lat="48.28034" lon="-4.0927">
        <ele>118.541002</ele>
        <time>2022-12-10T12:07:12.190Z</time>
      </trkpt>
      <trkpt lat="48.28031" lon="-4.09256">
        <ele>117.95943</ele>
        <time>2022-12-10T12:07:15.180Z</time>
      </trkpt>
      <trkpt lat="48.28026" lon="-4.09242">
        <ele>117.368071</ele>
        <time>2022-12-10T12:07:18.187Z</time>
      </trkpt>
      <trkpt lat="48.28022" lon="-4.09228">
        <ele>116.774331</ele>
        <time>2022-12-10T12:07:21.182Z</time>
      </trkpt>
      <trkpt lat="48.28017" lon="-4.09214">
        <ele>116.256609</ele>
        <time>2022-12-10T12:07:24.182Z</time>
      </trkpt>
      <trkpt lat="48.28012" lon="-4.09202">
        <ele>115.797322</ele>
        <time>2022-12-10T12:07:27.185Z</time>
      </trkpt>
      <trkpt lat="48.28006" lon="-4.09188">
        <ele>115.286197</ele>
        <time>2022-12-10T12:07:30.185Z</time>
      </trkpt>
      <trkpt lat="48.27999" lon="-4.09175">
        <ele>114.761355</ele>
        <time>2022-12-10T12:07:33.189Z</time>
      </trkpt>
      <trkpt lat="48.27993" lon="-4.09163">
        <ele>114.286561</ele>
        <time>2022-12-10T12:07:36.180Z</time>
      </trkpt>
      <trkpt lat="48.27985" lon="-4.09152">
        <ele>113.769291</ele>
        <time>2022-12-10T12:07:39.184Z</time>
      </trkpt>
      <trkpt lat="48.27978" lon="-4.09141">
        <ele>113.293896</ele>
        <time>2022-12-10T12:07:42.187Z</time>
      </trkpt>
      <trkpt lat="48.2797" lon="-4.0913">
        <ele>112.813851</ele>
        <time>2022-12-10T12:07:45.195Z</time>
      </trkpt>
      <trkpt lat="48.27962" lon="-4.0912">
        <ele>112.315783</ele>
        <time>2022-12-10T12:07:48.186Z</time>
      </trkpt>
      <trkpt lat="48.27954" lon="-4.09109">
        <ele>111.813922</ele>
        <time>2022-12-10T12:07:51.189Z</time>
      </trkpt>
      <trkpt lat="48.27946" lon="-4.09097">
        <ele>111.297604</ele>
        <time>2022-12-10T12:07:54.189Z</time>
      </trkpt>
      <trkpt lat="48.27938" lon="-4.09085">
        <ele>110.743823</ele>
        <time>2022-12-10T12:07:57.186Z</time>
      </trkpt>
      <trkpt lat="48.27929" lon="-4.09073">
        <ele>110.180276</ele>
        <time>2022-12-10T12:08:00.170Z</time>
      </trkpt>
      <trkpt lat="48.27921" lon="-4.0906">
        <ele>109.643196</ele>
        <time>2022-12-10T12:08:03.192Z</time>
      </trkpt>
      <trkpt lat="48.27913" lon="-4.09048">
        <ele>109.101635</ele>
        <time>2022-12-10T12:08:06.187Z</time>
      </trkpt>
      <trkpt lat="48.27904" lon="-4.09036">
        <ele>108.536085</ele>
        <time>2022-12-10T12:08:09.191Z</time>
      </trkpt>
      <trkpt lat="48.27895" lon="-4.09024">
        <ele>107.924778</ele>
        <time>2022-12-10T12:08:12.194Z</time>
      </trkpt>
      <trkpt lat="48.27886" lon="-4.0901">
        <ele>107.140736</ele>
        <time>2022-12-10T12:08:15.183Z</time>
      </trkpt>
      <trkpt lat="48.27877" lon="-4.08998">
        <ele>106.381733</ele>
        <time>2022-12-10T12:08:18.186Z</time>
      </trkpt>
      <trkpt lat="48.27868" lon="-4.08985">
        <ele>105.583662</ele>
        <time>2022-12-10T12:08:21.186Z</time>
      </trkpt>
      <trkpt lat="48.2786" lon="-4.08972">
        <ele>104.839706</ele>
        <time>2022-12-10T12:08:24.188Z</time>
      </trkpt>
      <trkpt lat="48.27851" lon="-4.0896">
        <ele>104.098725</ele>
        <time>2022-12-10T12:08:27.193Z</time>
      </trkpt>
      <trkpt lat="48.27843" lon="-4.08948">
        <ele>103.364384</ele>
        <time>2022-12-10T12:08:30.190Z</time>
      </trkpt>
      <trkpt lat="48.27835" lon="-4.08936">
        <ele>102.655921</ele>
        <time>2022-12-10T12:08:33.180Z</time>
      </trkpt>
      <trkpt lat="48.27827" lon="-4.08925">
        <ele>101.961833</ele>
        <time>2022-12-10T12:08:36.189Z</time>
      </trkpt>
      <trkpt lat="48.27818" lon="-4.08912">
        <ele>101.20409</ele>
        <time>2022-12-10T12:08:39.160Z</time>
      </trkpt>
      <trkpt lat="48.27809" lon="-4.089">
        <ele>100.434142</ele>
        <time>2022-12-10T12:08:42.187Z</time>
      </trkpt>
      <trkpt lat="48.278" lon="-4.08887">
        <ele>99.649222</ele>
        <time>2022-12-10T12:08:45.189Z</time>
      </trkpt>
      <trkpt lat="48.27791" lon="-4.08874">
        <ele>98.850017</ele>
        <time>2022-12-10T12:08:48.194Z</time>
      </trkpt>
      <trkpt lat="48.27781" lon="-4.08861">
        <ele>98.04073</ele>
        <time>2022-12-10T12:08:51.183Z</time>
      </trkpt>
      <trkpt lat="48.27772" lon="-4.08848">
        <ele>97.263905</ele>
        <time>2022-12-10T12:08:54.189Z</time>
      </trkpt>
      <trkpt lat="48.27763" lon="-4.08836">
        <ele>96.641935</ele>
        <time>2022-12-10T12:08:57.172Z</time>
      </trkpt>
      <trkpt lat="48.27754" lon="-4.08822">
        <ele>96.364673</ele>
        <time>2022-12-10T12:09:00.172Z</time>
      </trkpt>
      <trkpt lat="48.27747" lon="-4.08813">
        <ele>96.172063</ele>
        <time>2022-12-10T12:09:02.191Z</time>
      </trkpt>
      <trkpt lat="48.27741" lon="-4.08802">
        <ele>95.971375</ele>
        <time>2022-12-10T12:09:04.190Z</time>
      </trkpt>
      <trkpt lat="48.27734" lon="-4.08793">
        <ele>95.775757</ele>
        <time>2022-12-10T12:09:06.187Z</time>
      </trkpt>
      <trkpt lat="48.27726" lon="-4.08779">
        <ele>95.506722</ele>
        <time>2022-12-10T12:09:09.188Z</time>
      </trkpt>
      <trkpt lat="48.27715" lon="-4.08766">
        <ele>95.220888</ele>
        <time>2022-12-10T12:09:12.195Z</time>
      </trkpt>
      <trkpt lat="48.27706" lon="-4.08753">
        <ele>94.947767</ele>
        <time>2022-12-10T12:09:15.187Z</time>
      </trkpt>
      <trkpt lat="48.27696" lon="-4.08742">
        <ele>94.680589</ele>
        <time>2022-12-10T12:09:18.195Z</time>
      </trkpt>
      <trkpt lat="48.27686" lon="-4.08732">
        <ele>94.428218</ele>
        <time>2022-12-10T12:09:21.164Z</time>
      </trkpt>
      <trkpt lat="48.27676" lon="-4.08723">
        <ele>94.168327</ele>
        <time>2022-12-10T12:09:24.184Z</time>
      </trkpt>
      <trkpt lat="48.27664" lon="-4.08715">
        <ele>93.88914</ele>
        <time>2022-12-10T12:09:27.169Z</time>
      </trkpt>
      <trkpt lat="48.27651" lon="-4.08709">
        <ele>93.609175</ele>
        <time>2022-12-10T12:09:30.193Z</time>
      </trkpt>
      <trkpt lat="48.27639" lon="-4.08704">
        <ele>93.345076</ele>
        <time>2022-12-10T12:09:33.167Z</time>
      </trkpt>
      <trkpt lat="48.27628" lon="-4.08701">
        <ele>93.101088</ele>
        <time>2022-12-10T12:09:36.166Z</time>
      </trkpt>
      <trkpt lat="48.27618" lon="-4.08699">
        <ele>92.877949</ele>
        <time>2022-12-10T12:09:39.191Z</time>
      </trkpt>
      <trkpt lat="48.27608" lon="-4.08698">
        <ele>92.689313</ele>
        <time>2022-12-10T12:09:42.187Z</time>
      </trkpt>
      <trkpt lat="48.27599" lon="-4.08697">
        <ele>92.511963</ele>
        <time>2022-12-10T12:09:45.184Z</time>
      </trkpt>
      <trkpt lat="48.27587" lon="-4.08696">
        <ele>92.296436</ele>
        <time>2022-12-10T12:09:49.189Z</time>
      </trkpt>
      <trkpt lat="48.27577" lon="-4.08696">
        <ele>92.094453</ele>
        <time>2022-12-10T12:09:53.169Z</time>
      </trkpt>
      <trkpt lat="48.27566" lon="-4.08695">
        <ele>91.894391</ele>
        <time>2022-12-10T12:09:57.189Z</time>
      </trkpt>
      <trkpt lat="48.27555" lon="-4.08695">
        <ele>91.680912</ele>
        <time>2022-12-10T12:10:01.188Z</time>
      </trkpt>
      <trkpt lat="48.27546" lon="-4.08696">
        <ele>91.491963</ele>
        <time>2022-12-10T12:10:04.189Z</time>
      </trkpt>
      <trkpt lat="48.27535" lon="-4.08696">
        <ele>91.292004</ele>
        <time>2022-12-10T12:10:07.192Z</time>
      </trkpt>
      <trkpt lat="48.27525" lon="-4.08697">
        <ele>91.101551</ele>
        <time>2022-12-10T12:10:10.191Z</time>
      </trkpt>
      <trkpt lat="48.27514" lon="-4.08697">
        <ele>90.889958</ele>
        <time>2022-12-10T12:10:14.185Z</time>
      </trkpt>
      <trkpt lat="48.27504" lon="-4.08698">
        <ele>90.701426</ele>
        <time>2022-12-10T12:10:17.191Z</time>
      </trkpt>
      <trkpt lat="48.27494" lon="-4.08698">
        <ele>90.507231</ele>
        <time>2022-12-10T12:10:20.189Z</time>
      </trkpt>
      <trkpt lat="48.27484" lon="-4.08698">
        <ele>90.314856</ele>
        <time>2022-12-10T12:10:23.189Z</time>
      </trkpt>
      <trkpt lat="48.27474" lon="-4.08697">
        <ele>90.122315</ele>
        <time>2022-12-10T12:10:26.189Z</time>
      </trkpt>
      <trkpt lat="48.27464" lon="-4.08697">
        <ele>89.914649</ele>
        <time>2022-12-10T12:10:29.190Z</time>
      </trkpt>
      <trkpt lat="48.27453" lon="-4.08698">
        <ele>89.7107</ele>
        <time>2022-12-10T12:10:32.189Z</time>
      </trkpt>
      <trkpt lat="48.27443" lon="-4.08698">
        <ele>89.514519</ele>
        <time>2022-12-10T12:10:35.187Z</time>
      </trkpt>
      <trkpt lat="48.27432" lon="-4.08699">
        <ele>89.402805</ele>
        <time>2022-12-10T12:10:38.192Z</time>
      </trkpt>
      <trkpt lat="48.27422" lon="-4.08699">
        <ele>89.360495</ele>
        <time>2022-12-10T12:10:41.190Z</time>
      </trkpt>
      <trkpt lat="48.27411" lon="-4.08699">
        <ele>89.317378</ele>
        <time>2022-12-10T12:10:44.192Z</time>
      </trkpt>
      <trkpt lat="48.274" lon="-4.08698">
        <ele>89.275457</ele>
        <time>2022-12-10T12:10:47.188Z</time>
      </trkpt>
      <trkpt lat="48.2739" lon="-4.08699">
        <ele>89.235832</ele>
        <time>2022-12-10T12:10:50.163Z</time>
      </trkpt>
      <trkpt lat="48.27381" lon="-4.087">
        <ele>89.199503</ele>
        <time>2022-12-10T12:10:53.183Z</time>
      </trkpt>
      <trkpt lat="48.27371" lon="-4.087">
        <ele>89.157582</ele>
        <time>2022-12-10T12:10:57.183Z</time>
      </trkpt>
      <trkpt lat="48.2736" lon="-4.08698">
        <ele>89.113011</ele>
        <time>2022-12-10T12:11:01.187Z</time>
      </trkpt>
      <trkpt lat="48.2735" lon="-4.08697">
        <ele>89.074873</ele>
        <time>2022-12-10T12:11:04.189Z</time>
      </trkpt>
      <trkpt lat="48.2734" lon="-4.08694">
        <ele>89.03246</ele>
        <time>2022-12-10T12:11:07.183Z</time>
      </trkpt>
      <trkpt lat="48.2733" lon="-4.08691">
        <ele>88.990597</ele>
        <time>2022-12-10T12:11:10.188Z</time>
      </trkpt>
      <trkpt lat="48.2732" lon="-4.08686">
        <ele>88.949555</ele>
        <time>2022-12-10T12:11:13.195Z</time>
      </trkpt>
      <trkpt lat="48.2731" lon="-4.0868">
        <ele>88.908645</ele>
        <time>2022-12-10T12:11:16.185Z</time>
      </trkpt>
      <trkpt lat="48.27301" lon="-4.08674">
        <ele>88.869405</ele>
        <time>2022-12-10T12:11:19.187Z</time>
      </trkpt>
      <trkpt lat="48.27293" lon="-4.08667">
        <ele>88.831587</ele>
        <time>2022-12-10T12:11:22.195Z</time>
      </trkpt>
      <trkpt lat="48.27285" lon="-4.0866">
        <ele>88.795263</ele>
        <time>2022-12-10T12:11:25.190Z</time>
      </trkpt>
      <trkpt lat="48.27276" lon="-4.08648">
        <ele>88.746957</ele>
        <time>2022-12-10T12:11:29.191Z</time>
      </trkpt>
      <trkpt lat="48.27269" lon="-4.08638">
        <ele>88.708448</ele>
        <time>2022-12-10T12:11:32.188Z</time>
      </trkpt>
      <trkpt lat="48.27263" lon="-4.08627">
        <ele>88.648384</ele>
        <time>2022-12-10T12:11:35.164Z</time>
      </trkpt>
      <trkpt lat="48.27256" lon="-4.08616">
        <ele>88.588207</ele>
        <time>2022-12-10T12:11:38.162Z</time>
      </trkpt>
      <trkpt lat="48.2725" lon="-4.08604">
        <ele>88.524451</ele>
        <time>2022-12-10T12:11:41.189Z</time>
      </trkpt>
      <trkpt lat="48.27243" lon="-4.08593">
        <ele>88.462824</ele>
        <time>2022-12-10T12:11:44.190Z</time>
      </trkpt>
      <trkpt lat="48.27236" lon="-4.08582">
        <ele>88.398887</ele>
        <time>2022-12-10T12:11:47.192Z</time>
      </trkpt>
      <trkpt lat="48.27229" lon="-4.0857">
        <ele>88.334093</ele>
        <time>2022-12-10T12:11:50.194Z</time>
      </trkpt>
      <trkpt lat="48.27222" lon="-4.08558">
        <ele>88.267959</ele>
        <time>2022-12-10T12:11:53.193Z</time>
      </trkpt>
      <trkpt lat="48.27215" lon="-4.08545">
        <ele>88.201431</ele>
        <time>2022-12-10T12:11:56.166Z</time>
      </trkpt>
      <trkpt lat="48.27209" lon="-4.08532">
        <ele>88.133754</ele>
        <time>2022-12-10T12:11:59.190Z</time>
      </trkpt>
      <trkpt lat="48.27203" lon="-4.08519">
        <ele>88.065319</ele>
        <time>2022-12-10T12:12:02.188Z</time>
      </trkpt>
      <trkpt lat="48.27196" lon="-4.08505">
        <ele>87.99684</ele>
        <time>2022-12-10T12:12:05.174Z</time>
      </trkpt>
      <trkpt lat="48.27189" lon="-4.08492">
        <ele>87.925407</ele>
        <time>2022-12-10T12:12:08.188Z</time>
      </trkpt>
      <trkpt lat="48.27181" lon="-4.08479">
        <ele>87.855397</ele>
        <time>2022-12-10T12:12:11.189Z</time>
      </trkpt>
      <trkpt lat="48.27174" lon="-4.08465">
        <ele>87.785451</ele>
        <time>2022-12-10T12:12:14.176Z</time>
      </trkpt>
      <trkpt lat="48.27168" lon="-4.08452">
        <ele>87.715235</ele>
        <time>2022-12-10T12:12:17.192Z</time>
      </trkpt>
      <trkpt lat="48.27161" lon="-4.08439">
        <ele>87.646704</ele>
        <time>2022-12-10T12:12:20.187Z</time>
      </trkpt>
      <trkpt lat="48.27154" lon="-4.08426">
        <ele>87.547576</ele>
        <time>2022-12-10T12:12:23.195Z</time>
      </trkpt>
      <trkpt lat="48.27147" lon="-4.08414">
        <ele>87.350212</ele>
        <time>2022-12-10T12:12:26.180Z</time>
      </trkpt>
      <trkpt lat="48.2714" lon="-4.08401">
        <ele>87.139348</ele>
        <time>2022-12-10T12:12:29.188Z</time>
      </trkpt>
      <trkpt lat="48.27134" lon="-4.08388">
        <ele>86.936261</ele>
        <time>2022-12-10T12:12:32.173Z</time>
      </trkpt>
      <trkpt lat="48.27127" lon="-4.08376">
        <ele>86.734981</ele>
        <time>2022-12-10T12:12:35.180Z</time>
      </trkpt>
      <trkpt lat="48.2712" lon="-4.08364">
        <ele>86.534017</ele>
        <time>2022-12-10T12:12:38.186Z</time>
      </trkpt>
      <trkpt lat="48.27113" lon="-4.08353">
        <ele>86.33618</ele>
        <time>2022-12-10T12:12:41.168Z</time>
      </trkpt>
      <trkpt lat="48.27107" lon="-4.0834">
        <ele>86.139011</ele>
        <time>2022-12-10T12:12:44.169Z</time>
      </trkpt>
      <trkpt lat="48.27101" lon="-4.08328">
        <ele>85.948623</ele>
        <time>2022-12-10T12:12:47.169Z</time>
      </trkpt>
      <trkpt lat="48.27094" lon="-4.08317">
        <ele>85.757139</ele>
        <time>2022-12-10T12:12:50.190Z</time>
      </trkpt>
      <trkpt lat="48.27088" lon="-4.08305">
        <ele>85.556379</ele>
        <time>2022-12-10T12:12:53.189Z</time>
      </trkpt>
      <trkpt lat="48.2708" lon="-4.08293">
        <ele>85.349091</ele>
        <time>2022-12-10T12:12:56.189Z</time>
      </trkpt>
      <trkpt lat="48.27072" lon="-4.0828">
        <ele>85.127522</ele>
        <time>2022-12-10T12:12:59.190Z</time>
      </trkpt>
      <trkpt lat="48.27064" lon="-4.08267">
        <ele>84.900188</ele>
        <time>2022-12-10T12:13:02.191Z</time>
      </trkpt>
      <trkpt lat="48.27055" lon="-4.08255">
        <ele>84.671841</ele>
        <time>2022-12-10T12:13:05.190Z</time>
      </trkpt>
      <trkpt lat="48.27046" lon="-4.08243">
        <ele>84.4428</ele>
        <time>2022-12-10T12:13:08.190Z</time>
      </trkpt>
      <trkpt lat="48.27037" lon="-4.08231">
        <ele>84.20546</ele>
        <time>2022-12-10T12:13:11.188Z</time>
      </trkpt>
      <trkpt lat="48.27026" lon="-4.08221">
        <ele>83.980587</ele>
        <time>2022-12-10T12:13:14.175Z</time>
      </trkpt>
      <trkpt lat="48.27016" lon="-4.08211">
        <ele>83.757519</ele>
        <time>2022-12-10T12:13:17.163Z</time>
      </trkpt>
      <trkpt lat="48.27005" lon="-4.08202">
        <ele>83.5289</ele>
        <time>2022-12-10T12:13:20.184Z</time>
      </trkpt>
      <trkpt lat="48.26994" lon="-4.08193">
        <ele>83.30112</ele>
        <time>2022-12-10T12:13:23.181Z</time>
      </trkpt>
      <trkpt lat="48.26983" lon="-4.08185">
        <ele>83.083386</ele>
        <time>2022-12-10T12:13:26.192Z</time>
      </trkpt>
      <trkpt lat="48.26972" lon="-4.08178">
        <ele>82.87207</ele>
        <time>2022-12-10T12:13:29.182Z</time>
      </trkpt>
      <trkpt lat="48.26961" lon="-4.08173">
        <ele>82.666057</ele>
        <time>2022-12-10T12:13:32.191Z</time>
      </trkpt>
      <trkpt lat="48.2695" lon="-4.08168">
        <ele>82.452554</ele>
        <time>2022-12-10T12:13:35.190Z</time>
      </trkpt>
      <trkpt lat="48.26939" lon="-4.08163">
        <ele>82.246597</ele>
        <time>2022-12-10T12:13:38.187Z</time>
      </trkpt>
      <trkpt lat="48.26928" lon="-4.0816">
        <ele>82.050786</ele>
        <time>2022-12-10T12:13:41.189Z</time>
      </trkpt>
      <trkpt lat="48.26919" lon="-4.08157">
        <ele>81.876339</ele>
        <time>2022-12-10T12:13:44.189Z</time>
      </trkpt>
      <trkpt lat="48.2691" lon="-4.08155">
        <ele>81.7118</ele>
        <time>2022-12-10T12:13:47.193Z</time>
      </trkpt>
      <trkpt lat="48.269" lon="-4.08152">
        <ele>81.520709</ele>
        <time>2022-12-10T12:13:50.191Z</time>
      </trkpt>
      <trkpt lat="48.26889" lon="-4.08148">
        <ele>81.320918</ele>
        <time>2022-12-10T12:13:53.164Z</time>
      </trkpt>
      <trkpt lat="48.26878" lon="-4.08143">
        <ele>81.120809</ele>
        <time>2022-12-10T12:13:56.181Z</time>
      </trkpt>
      <trkpt lat="48.26867" lon="-4.08137">
        <ele>80.913532</ele>
        <time>2022-12-10T12:13:59.190Z</time>
      </trkpt>
      <trkpt lat="48.26857" lon="-4.0813">
        <ele>80.810461</ele>
        <time>2022-12-10T12:14:02.193Z</time>
      </trkpt>
      <trkpt lat="48.26848" lon="-4.08122">
        <ele>80.709075</ele>
        <time>2022-12-10T12:14:05.169Z</time>
      </trkpt>
      <trkpt lat="48.26838" lon="-4.08113">
        <ele>80.605018</ele>
        <time>2022-12-10T12:14:08.188Z</time>
      </trkpt>
      <trkpt lat="48.26829" lon="-4.08102">
        <ele>80.495984</ele>
        <time>2022-12-10T12:14:11.166Z</time>
      </trkpt>
      <trkpt lat="48.2682" lon="-4.08092">
        <ele>80.3968</ele>
        <time>2022-12-10T12:14:14.192Z</time>
      </trkpt>
      <trkpt lat="48.26812" lon="-4.08081">
        <ele>80.295708</ele>
        <time>2022-12-10T12:14:17.191Z</time>
      </trkpt>
      <trkpt lat="48.26805" lon="-4.08069">
        <ele>80.19711</ele>
        <time>2022-12-10T12:14:20.186Z</time>
      </trkpt>
      <trkpt lat="48.26799" lon="-4.08054">
        <ele>80.093815</ele>
        <time>2022-12-10T12:14:23.168Z</time>
      </trkpt>
      <trkpt lat="48.26792" lon="-4.08039">
        <ele>79.982882</ele>
        <time>2022-12-10T12:14:26.170Z</time>
      </trkpt>
      <trkpt lat="48.26786" lon="-4.08022">
        <ele>79.866342</ele>
        <time>2022-12-10T12:14:29.189Z</time>
      </trkpt>
      <trkpt lat="48.26781" lon="-4.08005">
        <ele>79.746386</ele>
        <time>2022-12-10T12:14:32.188Z</time>
      </trkpt>
      <trkpt lat="48.26776" lon="-4.07986">
        <ele>79.622802</ele>
        <time>2022-12-10T12:14:35.189Z</time>
      </trkpt>
      <trkpt lat="48.26773" lon="-4.07972">
        <ele>79.537534</ele>
        <time>2022-12-10T12:14:37.189Z</time>
      </trkpt>
      <trkpt lat="48.2677" lon="-4.07959">
        <ele>79.453726</ele>
        <time>2022-12-10T12:14:39.188Z</time>
      </trkpt>
      <trkpt lat="48.26768" lon="-4.07946">
        <ele>79.367233</ele>
        <time>2022-12-10T12:14:41.194Z</time>
      </trkpt>
      <trkpt lat="48.26765" lon="-4.07931">
        <ele>79.275532</ele>
        <time>2022-12-10T12:14:43.180Z</time>
      </trkpt>
      <trkpt lat="48.26762" lon="-4.07917">
        <ele>80.083468</ele>
        <time>2022-12-10T12:14:45.191Z</time>
      </trkpt>
      <trkpt lat="48.2676" lon="-4.07904">
        <ele>80.968289</ele>
        <time>2022-12-10T12:14:47.191Z</time>
      </trkpt>
      <trkpt lat="48.26757" lon="-4.07891">
        <ele>81.856607</ele>
        <time>2022-12-10T12:14:49.191Z</time>
      </trkpt>
      <trkpt lat="48.26753" lon="-4.07873">
        <ele>83.131092</ele>
        <time>2022-12-10T12:14:52.191Z</time>
      </trkpt>
      <trkpt lat="48.26749" lon="-4.07854">
        <ele>84.39283</ele>
        <time>2022-12-10T12:14:55.189Z</time>
      </trkpt>
      <trkpt lat="48.26745" lon="-4.07837">
        <ele>85.567961</ele>
        <time>2022-12-10T12:14:58.197Z</time>
      </trkpt>
      <trkpt lat="48.26742" lon="-4.0782">
        <ele>86.704361</ele>
        <time>2022-12-10T12:15:01.187Z</time>
      </trkpt>
      <trkpt lat="48.26739" lon="-4.07804">
        <ele>87.787902</ele>
        <time>2022-12-10T12:15:04.190Z</time>
      </trkpt>
      <trkpt lat="48.26736" lon="-4.07789">
        <ele>88.815098</ele>
        <time>2022-12-10T12:15:07.190Z</time>
      </trkpt>
      <trkpt lat="48.26733" lon="-4.07774">
        <ele>89.827017</ele>
        <time>2022-12-10T12:15:10.183Z</time>
      </trkpt>
      <trkpt lat="48.26731" lon="-4.0776">
        <ele>90.816013</ele>
        <time>2022-12-10T12:15:13.185Z</time>
      </trkpt>
      <trkpt lat="48.26729" lon="-4.07745">
        <ele>91.764207</ele>
        <time>2022-12-10T12:15:16.185Z</time>
      </trkpt>
      <trkpt lat="48.26727" lon="-4.07732">
        <ele>92.668075</ele>
        <time>2022-12-10T12:15:19.162Z</time>
      </trkpt>
      <trkpt lat="48.26723" lon="-4.07716">
        <ele>93.76283</ele>
        <time>2022-12-10T12:15:23.179Z</time>
      </trkpt>
      <trkpt lat="48.2672" lon="-4.07703">
        <ele>94.68638</ele>
        <time>2022-12-10T12:15:26.190Z</time>
      </trkpt>
      <trkpt lat="48.26716" lon="-4.07688">
        <ele>95.717903</ele>
        <time>2022-12-10T12:15:29.179Z</time>
      </trkpt>
      <trkpt lat="48.26712" lon="-4.07673">
        <ele>96.788008</ele>
        <time>2022-12-10T12:15:32.194Z</time>
      </trkpt>
      <trkpt lat="48.26708" lon="-4.07658">
        <ele>95.618378</ele>
        <time>2022-12-10T12:15:35.191Z</time>
      </trkpt>
      <trkpt lat="48.26704" lon="-4.07644">
        <ele>94.239863</ele>
        <time>2022-12-10T12:15:38.193Z</time>
      </trkpt>
      <trkpt lat="48.26698" lon="-4.0763">
        <ele>92.87434</ele>
        <time>2022-12-10T12:15:41.168Z</time>
      </trkpt>
      <trkpt lat="48.26692" lon="-4.07618">
        <ele>91.537223</ele>
        <time>2022-12-10T12:15:44.190Z</time>
      </trkpt>
      <trkpt lat="48.26685" lon="-4.07607">
        <ele>90.183164</ele>
        <time>2022-12-10T12:15:47.165Z</time>
      </trkpt>
      <trkpt lat="48.26678" lon="-4.07598">
        <ele>88.92968</ele>
        <time>2022-12-10T12:15:50.165Z</time>
      </trkpt>
      <trkpt lat="48.2667" lon="-4.0759">
        <ele>87.699325</ele>
        <time>2022-12-10T12:15:53.192Z</time>
      </trkpt>
      <trkpt lat="48.26659" lon="-4.07582">
        <ele>86.133902</ele>
        <time>2022-12-10T12:15:57.170Z</time>
      </trkpt>
      <trkpt lat="48.2665" lon="-4.07577">
        <ele>84.910883</ele>
        <time>2022-12-10T12:16:00.162Z</time>
      </trkpt>
      <trkpt lat="48.26641" lon="-4.07572">
        <ele>83.596459</ele>
        <time>2022-12-10T12:16:03.164Z</time>
      </trkpt>
      <trkpt lat="48.26631" lon="-4.0757">
        <ele>82.268854</ele>
        <time>2022-12-10T12:16:06.179Z</time>
      </trkpt>
      <trkpt lat="48.26621" lon="-4.07568">
        <ele>81.001888</ele>
        <time>2022-12-10T12:16:09.190Z</time>
      </trkpt>
      <trkpt lat="48.26611" lon="-4.07569">
        <ele>79.651991</ele>
        <time>2022-12-10T12:16:12.166Z</time>
      </trkpt>
      <trkpt lat="48.266" lon="-4.07571">
        <ele>78.174918</ele>
        <time>2022-12-10T12:16:15.167Z</time>
      </trkpt>
      <trkpt lat="48.26588" lon="-4.07575">
        <ele>76.646172</ele>
        <time>2022-12-10T12:16:18.172Z</time>
      </trkpt>
      <trkpt lat="48.26578" lon="-4.07581">
        <ele>75.223971</ele>
        <time>2022-12-10T12:16:21.166Z</time>
      </trkpt>
      <trkpt lat="48.26568" lon="-4.07587">
        <ele>73.813782</ele>
        <time>2022-12-10T12:16:24.191Z</time>
      </trkpt>
      <trkpt lat="48.26558" lon="-4.07593">
        <ele>73.34305</ele>
        <time>2022-12-10T12:16:27.186Z</time>
      </trkpt>
      <trkpt lat="48.26546" lon="-4.076">
        <ele>73.377526</ele>
        <time>2022-12-10T12:16:30.189Z</time>
      </trkpt>
      <trkpt lat="48.26535" lon="-4.07608">
        <ele>73.413886</ele>
        <time>2022-12-10T12:16:33.180Z</time>
      </trkpt>
      <trkpt lat="48.26523" lon="-4.07617">
        <ele>73.451</ele>
        <time>2022-12-10T12:16:36.188Z</time>
      </trkpt>
      <trkpt lat="48.26511" lon="-4.07625">
        <ele>73.487457</ele>
        <time>2022-12-10T12:16:39.179Z</time>
      </trkpt>
      <trkpt lat="48.26501" lon="-4.07633">
        <ele>73.52056</ele>
        <time>2022-12-10T12:16:42.175Z</time>
      </trkpt>
      <trkpt lat="48.2649" lon="-4.0764">
        <ele>73.554135</ele>
        <time>2022-12-10T12:16:45.189Z</time>
      </trkpt>
      <trkpt lat="48.26479" lon="-4.07648">
        <ele>73.589057</ele>
        <time>2022-12-10T12:16:48.187Z</time>
      </trkpt>
      <trkpt lat="48.26468" lon="-4.07655">
        <ele>73.623981</ele>
        <time>2022-12-10T12:16:51.189Z</time>
      </trkpt>
      <trkpt lat="48.26457" lon="-4.07663">
        <ele>73.65791</ele>
        <time>2022-12-10T12:16:54.169Z</time>
      </trkpt>
      <trkpt lat="48.26445" lon="-4.07671">
        <ele>73.69427</ele>
        <time>2022-12-10T12:16:57.185Z</time>
      </trkpt>
      <trkpt lat="48.26434" lon="-4.07679">
        <ele>73.72949</ele>
        <time>2022-12-10T12:17:00.174Z</time>
      </trkpt>
      <trkpt lat="48.26423" lon="-4.07685">
        <ele>73.762738</ele>
        <time>2022-12-10T12:17:03.190Z</time>
      </trkpt>
      <trkpt lat="48.26413" lon="-4.07689">
        <ele>73.791738</ele>
        <time>2022-12-10T12:17:06.192Z</time>
      </trkpt>
      <trkpt lat="48.26402" lon="-4.07692">
        <ele>73.821544</ele>
        <time>2022-12-10T12:17:09.165Z</time>
      </trkpt>
      <trkpt lat="48.26392" lon="-4.07692">
        <ele>73.293827</ele>
        <time>2022-12-10T12:17:12.173Z</time>
      </trkpt>
      <trkpt lat="48.2638" lon="-4.07688">
        <ele>72.468127</ele>
        <time>2022-12-10T12:17:15.169Z</time>
      </trkpt>
      <trkpt lat="48.26369" lon="-4.07681">
        <ele>71.597874</ele>
        <time>2022-12-10T12:17:18.172Z</time>
      </trkpt>
      <trkpt lat="48.26359" lon="-4.0767">
        <ele>70.726668</ele>
        <time>2022-12-10T12:17:21.169Z</time>
      </trkpt>
      <trkpt lat="48.2635" lon="-4.07657">
        <ele>69.893827</ele>
        <time>2022-12-10T12:17:24.187Z</time>
      </trkpt>
      <trkpt lat="48.26343" lon="-4.07643">
        <ele>69.055327</ele>
        <time>2022-12-10T12:17:27.181Z</time>
      </trkpt>
      <trkpt lat="48.26337" lon="-4.07628">
        <ele>68.213193</ele>
        <time>2022-12-10T12:17:30.185Z</time>
      </trkpt>
      <trkpt lat="48.26331" lon="-4.07612">
        <ele>67.371058</ele>
        <time>2022-12-10T12:17:33.177Z</time>
      </trkpt>
      <trkpt lat="48.26325" lon="-4.07597">
        <ele>66.524482</ele>
        <time>2022-12-10T12:17:36.182Z</time>
      </trkpt>
      <trkpt lat="48.26319" lon="-4.07581">
        <ele>65.695891</ele>
        <time>2022-12-10T12:17:39.186Z</time>
      </trkpt>
      <trkpt lat="48.26314" lon="-4.07566">
        <ele>64.920139</ele>
        <time>2022-12-10T12:17:42.165Z</time>
      </trkpt>
      <trkpt lat="48.26308" lon="-4.07554">
        <ele>64.214138</ele>
        <time>2022-12-10T12:17:45.169Z</time>
      </trkpt>
      <trkpt lat="48.26301" lon="-4.07543">
        <ele>63.445918</ele>
        <time>2022-12-10T12:17:48.169Z</time>
      </trkpt>
      <trkpt lat="48.26292" lon="-4.07532">
        <ele>62.636235</ele>
        <time>2022-12-10T12:17:51.166Z</time>
      </trkpt>
      <trkpt lat="48.26282" lon="-4.07524">
        <ele>61.872987</ele>
        <time>2022-12-10T12:17:54.165Z</time>
      </trkpt>
      <trkpt lat="48.26273" lon="-4.0752">
        <ele>61.199776</ele>
        <time>2022-12-10T12:17:57.205Z</time>
      </trkpt>
      <trkpt lat="48.26264" lon="-4.07521">
        <ele>61.690764</ele>
        <time>2022-12-10T12:18:00.165Z</time>
      </trkpt>
      <trkpt lat="48.26252" lon="-4.07522">
        <ele>62.315634</ele>
        <time>2022-12-10T12:18:04.187Z</time>
      </trkpt>
      <trkpt lat="48.26242" lon="-4.07525">
        <ele>62.896641</ele>
        <time>2022-12-10T12:18:08.193Z</time>
      </trkpt>
      <trkpt lat="48.26232" lon="-4.07531">
        <ele>63.456502</ele>
        <time>2022-12-10T12:18:12.194Z</time>
      </trkpt>
      <trkpt lat="48.26223" lon="-4.07537">
        <ele>63.997531</ele>
        <time>2022-12-10T12:18:16.201Z</time>
      </trkpt>
      <trkpt lat="48.26215" lon="-4.07543">
        <ele>64.528632</ele>
        <time>2022-12-10T12:18:20.189Z</time>
      </trkpt>
      <trkpt lat="48.26207" lon="-4.0755">
        <ele>65.02705</ele>
        <time>2022-12-10T12:18:24.189Z</time>
      </trkpt>
      <trkpt lat="48.26198" lon="-4.07558">
        <ele>65.5767</ele>
        <time>2022-12-10T12:18:28.190Z</time>
      </trkpt>
      <trkpt lat="48.2619" lon="-4.07565">
        <ele>66.097164</ele>
        <time>2022-12-10T12:18:32.190Z</time>
      </trkpt>
      <trkpt lat="48.26182" lon="-4.07572">
        <ele>66.597867</ele>
        <time>2022-12-10T12:18:36.193Z</time>
      </trkpt>
      <trkpt lat="48.26173" lon="-4.07581">
        <ele>67.194452</ele>
        <time>2022-12-10T12:18:41.182Z</time>
      </trkpt>
      <trkpt lat="48.26164" lon="-4.0759">
        <ele>67.789001</ele>
        <time>2022-12-10T12:18:46.191Z</time>
      </trkpt>
      <trkpt lat="48.26156" lon="-4.07601">
        <ele>68.398458</ele>
        <time>2022-12-10T12:18:51.174Z</time>
      </trkpt>
      <trkpt lat="48.26148" lon="-4.07613">
        <ele>69.018945</ele>
        <time>2022-12-10T12:18:56.193Z</time>
      </trkpt>
      <trkpt lat="48.26141" lon="-4.07623">
        <ele>69.53705</ele>
        <time>2022-12-10T12:19:00.171Z</time>
      </trkpt>
      <trkpt lat="48.26135" lon="-4.07634">
        <ele>70.078587</ele>
        <time>2022-12-10T12:19:05.186Z</time>
      </trkpt>
      <trkpt lat="48.26128" lon="-4.07645">
        <ele>70.617482</ele>
        <time>2022-12-10T12:19:10.187Z</time>
      </trkpt>
      <trkpt lat="48.26122" lon="-4.07657">
        <ele>71.13669</ele>
        <time>2022-12-10T12:19:15.181Z</time>
      </trkpt>
      <trkpt lat="48.26116" lon="-4.07669">
        <ele>71.508612</ele>
        <time>2022-12-10T12:19:20.190Z</time>
      </trkpt>
      <trkpt lat="48.26111" lon="-4.07681">
        <ele>71.884131</ele>
        <time>2022-12-10T12:19:26.164Z</time>
      </trkpt>
      <trkpt lat="48.26107" lon="-4.07694">
        <ele>72.23582</ele>
        <time>2022-12-10T12:19:32.173Z</time>
      </trkpt>
      <trkpt lat="48.26103" lon="-4.07707">
        <ele>72.610119</ele>
        <time>2022-12-10T12:19:38.170Z</time>
      </trkpt>
      <trkpt lat="48.26099" lon="-4.0772">
        <ele>72.953365</ele>
        <time>2022-12-10T12:19:43.164Z</time>
      </trkpt>
      <trkpt lat="48.26095" lon="-4.07734">
        <ele>73.33883</ele>
        <time>2022-12-10T12:19:48.175Z</time>
      </trkpt>
      <trkpt lat="48.2609" lon="-4.07747">
        <ele>73.720548</ele>
        <time>2022-12-10T12:19:53.189Z</time>
      </trkpt>
      <trkpt lat="48.26086" lon="-4.07761">
        <ele>74.110088</ele>
        <time>2022-12-10T12:19:58.191Z</time>
      </trkpt>
      <trkpt lat="48.26082" lon="-4.07775">
        <ele>74.491123</ele>
        <time>2022-12-10T12:20:03.165Z</time>
      </trkpt>
      <trkpt lat="48.26077" lon="-4.07789">
        <ele>74.88752</ele>
        <time>2022-12-10T12:20:08.193Z</time>
      </trkpt>
      <trkpt lat="48.26071" lon="-4.07802">
        <ele>75.273537</ele>
        <time>2022-12-10T12:20:13.168Z</time>
      </trkpt>
      <trkpt lat="48.26067" lon="-4.07816">
        <ele>75.68133</ele>
        <time>2022-12-10T12:20:18.189Z</time>
      </trkpt>
      <trkpt lat="48.26063" lon="-4.0783">
        <ele>76.060778</ele>
        <time>2022-12-10T12:20:23.194Z</time>
      </trkpt>
      <trkpt lat="48.26058" lon="-4.07843">
        <ele>76.429593</ele>
        <time>2022-12-10T12:20:29.168Z</time>
      </trkpt>
      <trkpt lat="48.26054" lon="-4.07855">
        <ele>76.787737</ele>
        <time>2022-12-10T12:20:34.174Z</time>
      </trkpt>
      <trkpt lat="48.26049" lon="-4.07867">
        <ele>77.133006</ele>
        <time>2022-12-10T12:20:39.184Z</time>
      </trkpt>
      <trkpt lat="48.26044" lon="-4.0788">
        <ele>77.508962</ele>
        <time>2022-12-10T12:20:44.165Z</time>
      </trkpt>
      <trkpt lat="48.26039" lon="-4.07894">
        <ele>77.893792</ele>
        <time>2022-12-10T12:20:50.177Z</time>
      </trkpt>
      <trkpt lat="48.26035" lon="-4.07906">
        <ele>78.086419</ele>
        <time>2022-12-10T12:20:56.175Z</time>
      </trkpt>
      <trkpt lat="48.2603" lon="-4.07919">
        <ele>78.300926</ele>
        <time>2022-12-10T12:21:01.174Z</time>
      </trkpt>
      <trkpt lat="48.26023" lon="-4.07931">
        <ele>78.522388</ele>
        <time>2022-12-10T12:21:06.167Z</time>
      </trkpt>
      <trkpt lat="48.26017" lon="-4.07943">
        <ele>78.742269</ele>
        <time>2022-12-10T12:21:11.171Z</time>
      </trkpt>
      <trkpt lat="48.26011" lon="-4.07955">
        <ele>78.957317</ele>
        <time>2022-12-10T12:21:16.184Z</time>
      </trkpt>
      <trkpt lat="48.26004" lon="-4.07967">
        <ele>79.173417</ele>
        <time>2022-12-10T12:21:21.182Z</time>
      </trkpt>
      <trkpt lat="48.25996" lon="-4.07977">
        <ele>79.386972</ele>
        <time>2022-12-10T12:21:26.184Z</time>
      </trkpt>
      <trkpt lat="48.2599" lon="-4.07988">
        <ele>79.590596</ele>
        <time>2022-12-10T12:21:31.170Z</time>
      </trkpt>
      <trkpt lat="48.25983" lon="-4.07999">
        <ele>79.796725</ele>
        <time>2022-12-10T12:21:36.189Z</time>
      </trkpt>
      <trkpt lat="48.25976" lon="-4.08009">
        <ele>80.008437</ele>
        <time>2022-12-10T12:21:41.178Z</time>
      </trkpt>
      <trkpt lat="48.25968" lon="-4.08019">
        <ele>80.226104</ele>
        <time>2022-12-10T12:21:46.183Z</time>
      </trkpt>
      <trkpt lat="48.25961" lon="-4.08029">
        <ele>80.436264</ele>
        <time>2022-12-10T12:21:51.179Z</time>
      </trkpt>
      <trkpt lat="48.25954" lon="-4.08039">
        <ele>80.640452</ele>
        <time>2022-12-10T12:21:56.191Z</time>
      </trkpt>
      <trkpt lat="48.25948" lon="-4.08051">
        <ele>80.847856</ele>
        <time>2022-12-10T12:22:01.166Z</time>
      </trkpt>
      <trkpt lat="48.25941" lon="-4.08061">
        <ele>81.054466</ele>
        <time>2022-12-10T12:22:06.183Z</time>
      </trkpt>
      <trkpt lat="48.25934" lon="-4.08072">
        <ele>81.258295</ele>
        <time>2022-12-10T12:22:11.190Z</time>
      </trkpt>
      <trkpt lat="48.25927" lon="-4.08082">
        <ele>81.462105</ele>
        <time>2022-12-10T12:22:16.191Z</time>
      </trkpt>
      <trkpt lat="48.2592" lon="-4.08092">
        <ele>81.672841</ele>
        <time>2022-12-10T12:22:21.170Z</time>
      </trkpt>
      <trkpt lat="48.25914" lon="-4.08103">
        <ele>82.281254</ele>
        <time>2022-12-10T12:22:26.174Z</time>
      </trkpt>
      <trkpt lat="48.25906" lon="-4.0811">
        <ele>82.902499</ele>
        <time>2022-12-10T12:22:31.167Z</time>
      </trkpt>
      <trkpt lat="48.25898" lon="-4.0812">
        <ele>83.629136</ele>
        <time>2022-12-10T12:22:37.179Z</time>
      </trkpt>
      <trkpt lat="48.25889" lon="-4.08126">
        <ele>84.287</ele>
        <time>2022-12-10T12:22:42.191Z</time>
      </trkpt>
      <trkpt lat="48.25881" lon="-4.08132">
        <ele>84.938699</ele>
        <time>2022-12-10T12:22:47.172Z</time>
      </trkpt>
      <trkpt lat="48.25872" lon="-4.08139">
        <ele>85.594968</ele>
        <time>2022-12-10T12:22:52.191Z</time>
      </trkpt>
      <trkpt lat="48.25863" lon="-4.08145">
        <ele>86.245242</ele>
        <time>2022-12-10T12:22:57.168Z</time>
      </trkpt>
      <trkpt lat="48.25855" lon="-4.0815">
        <ele>86.896012</ele>
        <time>2022-12-10T12:23:02.184Z</time>
      </trkpt>
      <trkpt lat="48.25845" lon="-4.08153">
        <ele>87.544</ele>
        <time>2022-12-10T12:23:07.187Z</time>
      </trkpt>
      <trkpt lat="48.25836" lon="-4.08158">
        <ele>88.225905</ele>
        <time>2022-12-10T12:23:12.190Z</time>
      </trkpt>
      <trkpt lat="48.25826" lon="-4.0816">
        <ele>88.906584</ele>
        <time>2022-12-10T12:23:17.174Z</time>
      </trkpt>
      <trkpt lat="48.25816" lon="-4.08164">
        <ele>89.607041</ele>
        <time>2022-12-10T12:23:22.184Z</time>
      </trkpt>
      <trkpt lat="48.25807" lon="-4.08167">
        <ele>90.267581</ele>
        <time>2022-12-10T12:23:27.186Z</time>
      </trkpt>
      <trkpt lat="48.25797" lon="-4.0817">
        <ele>90.939943</ele>
        <time>2022-12-10T12:23:32.193Z</time>
      </trkpt>
      <trkpt lat="48.25788" lon="-4.08173">
        <ele>91.570759</ele>
        <time>2022-12-10T12:23:37.168Z</time>
      </trkpt>
      <trkpt lat="48.25779" lon="-4.08178">
        <ele>92.21045</ele>
        <time>2022-12-10T12:23:42.175Z</time>
      </trkpt>
      <trkpt lat="48.2577" lon="-4.08185">
        <ele>92.902811</ele>
        <time>2022-12-10T12:23:47.173Z</time>
      </trkpt>
      <trkpt lat="48.25761" lon="-4.08192">
        <ele>93.622322</ele>
        <time>2022-12-10T12:23:53.172Z</time>
      </trkpt>
      <trkpt lat="48.25753" lon="-4.08203">
        <ele>94.260505</ele>
        <time>2022-12-10T12:23:59.166Z</time>
      </trkpt>
      <trkpt lat="48.25745" lon="-4.08214">
        <ele>94.817276</ele>
        <time>2022-12-10T12:24:05.169Z</time>
      </trkpt>
      <trkpt lat="48.25738" lon="-4.08226">
        <ele>95.378324</ele>
        <time>2022-12-10T12:24:11.168Z</time>
      </trkpt>
      <trkpt lat="48.25732" lon="-4.08238">
        <ele>95.908308</ele>
        <time>2022-12-10T12:24:16.168Z</time>
      </trkpt>
      <trkpt lat="48.25725" lon="-4.08249">
        <ele>96.44071</ele>
        <time>2022-12-10T12:24:21.181Z</time>
      </trkpt>
      <trkpt lat="48.25718" lon="-4.0826">
        <ele>96.95683</ele>
        <time>2022-12-10T12:24:26.171Z</time>
      </trkpt>
      <trkpt lat="48.25712" lon="-4.08271">
        <ele>97.471815</ele>
        <time>2022-12-10T12:24:31.194Z</time>
      </trkpt>
      <trkpt lat="48.25705" lon="-4.08282">
        <ele>97.990465</ele>
        <time>2022-12-10T12:24:36.192Z</time>
      </trkpt>
      <trkpt lat="48.25699" lon="-4.08293">
        <ele>98.502053</ele>
        <time>2022-12-10T12:24:41.168Z</time>
      </trkpt>
      <trkpt lat="48.25692" lon="-4.08303">
        <ele>99.018355</ele>
        <time>2022-12-10T12:24:46.195Z</time>
      </trkpt>
      <trkpt lat="48.25685" lon="-4.08315">
        <ele>99.540683</ele>
        <time>2022-12-10T12:24:51.188Z</time>
      </trkpt>
      <trkpt lat="48.25678" lon="-4.08325">
        <ele>100.078736</ele>
        <time>2022-12-10T12:24:56.189Z</time>
      </trkpt>
      <trkpt lat="48.25669" lon="-4.08335">
        <ele>100.642365</ele>
        <time>2022-12-10T12:25:02.187Z</time>
      </trkpt>
      <trkpt lat="48.25662" lon="-4.08342">
        <ele>101.117026</ele>
        <time>2022-12-10T12:25:07.166Z</time>
      </trkpt>
      <trkpt lat="48.25654" lon="-4.08351">
        <ele>101.630403</ele>
        <time>2022-12-10T12:25:13.173Z</time>
      </trkpt>
      <trkpt lat="48.25645" lon="-4.0836">
        <ele>102.182522</ele>
        <time>2022-12-10T12:25:19.170Z</time>
      </trkpt>
      <trkpt lat="48.25637" lon="-4.08367">
        <ele>102.662958</ele>
        <time>2022-12-10T12:25:24.183Z</time>
      </trkpt>
      <trkpt lat="48.25629" lon="-4.08375">
        <ele>103.175084</ele>
        <time>2022-12-10T12:25:29.189Z</time>
      </trkpt>
      <trkpt lat="48.2562" lon="-4.08384">
        <ele>103.733342</ele>
        <time>2022-12-10T12:25:35.178Z</time>
      </trkpt>
      <trkpt lat="48.25612" lon="-4.08394">
        <ele>104.281729</ele>
        <time>2022-12-10T12:25:41.165Z</time>
      </trkpt>
      <trkpt lat="48.25604" lon="-4.08406">
        <ele>104.848629</ele>
        <time>2022-12-10T12:25:47.171Z</time>
      </trkpt>
      <trkpt lat="48.256" lon="-4.08418">
        <ele>105.319993</ele>
        <time>2022-12-10T12:25:52.172Z</time>
      </trkpt>
      <trkpt lat="48.25597" lon="-4.08431">
        <ele>105.809515</ele>
        <time>2022-12-10T12:25:57.174Z</time>
      </trkpt>
      <trkpt lat="48.25595" lon="-4.08446">
        <ele>106.35984</ele>
        <time>2022-12-10T12:26:03.167Z</time>
      </trkpt>
      <trkpt lat="48.25594" lon="-4.08462">
        <ele>106.887969</ele>
        <time>2022-12-10T12:26:09.172Z</time>
      </trkpt>
      <trkpt lat="48.25594" lon="-4.08477">
        <ele>107.4298</ele>
        <time>2022-12-10T12:26:15.168Z</time>
      </trkpt>
      <trkpt lat="48.25594" lon="-4.08491">
        <ele>107.905469</ele>
        <time>2022-12-10T12:26:20.183Z</time>
      </trkpt>
      <trkpt lat="48.25592" lon="-4.08506">
        <ele>108.457963</ele>
        <time>2022-12-10T12:26:26.174Z</time>
      </trkpt>
      <trkpt lat="48.25588" lon="-4.08519">
        <ele>108.944804</ele>
        <time>2022-12-10T12:26:31.186Z</time>
      </trkpt>
      <trkpt lat="48.25584" lon="-4.08534">
        <ele>109.486399</ele>
        <time>2022-12-10T12:26:37.178Z</time>
      </trkpt>
      <trkpt lat="48.25579" lon="-4.08548">
        <ele>110.034912</ele>
        <time>2022-12-10T12:26:43.172Z</time>
      </trkpt>
      <trkpt lat="48.25573" lon="-4.08558">
        <ele>110.50858</ele>
        <time>2022-12-10T12:26:48.173Z</time>
      </trkpt>
      <trkpt lat="48.25568" lon="-4.0857">
        <ele>110.982755</ele>
        <time>2022-12-10T12:26:53.190Z</time>
      </trkpt>
      <trkpt lat="48.25563" lon="-4.08581">
        <ele>111.471181</ele>
        <time>2022-12-10T12:26:58.189Z</time>
      </trkpt>
      <trkpt lat="48.25558" lon="-4.08593">
        <ele>111.968429</ele>
        <time>2022-12-10T12:27:03.175Z</time>
      </trkpt>
      <trkpt lat="48.25552" lon="-4.08607">
        <ele>112.514954</ele>
        <time>2022-12-10T12:27:09.175Z</time>
      </trkpt>
      <trkpt lat="48.25546" lon="-4.08617">
        <ele>112.9964</ele>
        <time>2022-12-10T12:27:14.176Z</time>
      </trkpt>
      <trkpt lat="48.25538" lon="-4.0863">
        <ele>113.506116</ele>
        <time>2022-12-10T12:27:21.169Z</time>
      </trkpt>
      <trkpt lat="48.25531" lon="-4.08642">
        <ele>114.018967</ele>
        <time>2022-12-10T12:27:26.192Z</time>
      </trkpt>
      <trkpt lat="48.25522" lon="-4.08649">
        <ele>114.49492</ele>
        <time>2022-12-10T12:27:31.172Z</time>
      </trkpt>
      <trkpt lat="48.25513" lon="-4.08653">
        <ele>114.926174</ele>
        <time>2022-12-10T12:27:36.187Z</time>
      </trkpt>
      <trkpt lat="48.25503" lon="-4.08652">
        <ele>115.358118</ele>
        <time>2022-12-10T12:27:41.171Z</time>
      </trkpt>
      <trkpt lat="48.25493" lon="-4.0865">
        <ele>115.854084</ele>
        <time>2022-12-10T12:27:47.165Z</time>
      </trkpt>
      <trkpt lat="48.25483" lon="-4.08644">
        <ele>116.325488</ele>
        <time>2022-12-10T12:27:53.181Z</time>
      </trkpt>
      <trkpt lat="48.25474" lon="-4.08636">
        <ele>116.818099</ele>
        <time>2022-12-10T12:27:59.164Z</time>
      </trkpt>
      <trkpt lat="48.25468" lon="-4.08624">
        <ele>117.312496</ele>
        <time>2022-12-10T12:28:07.170Z</time>
      </trkpt>
      <trkpt lat="48.25462" lon="-4.0861">
        <ele>117.80187</ele>
        <time>2022-12-10T12:28:13.189Z</time>
      </trkpt>
      <trkpt lat="48.25459" lon="-4.08596">
        <ele>118.24894</ele>
        <time>2022-12-10T12:28:18.165Z</time>
      </trkpt>
      <trkpt lat="48.25455" lon="-4.08584">
        <ele>118.678095</ele>
        <time>2022-12-10T12:28:23.197Z</time>
      </trkpt>
      <trkpt lat="48.25449" lon="-4.08575">
        <ele>119.056487</ele>
        <time>2022-12-10T12:29:01.930Z</time>
      </trkpt>
      <trkpt lat="48.25446" lon="-4.08561">
        <ele>119.529794</ele>
        <time>2022-12-10T12:42:42.174Z</time>
      </trkpt>
      <trkpt lat="48.25443" lon="-4.08548">
        <ele>119.965278</ele>
        <time>2022-12-10T12:42:47.172Z</time>
      </trkpt>
      <trkpt lat="48.2544" lon="-4.08534">
        <ele>120.409523</ele>
        <time>2022-12-10T12:42:52.184Z</time>
      </trkpt>
      <trkpt lat="48.25437" lon="-4.0852">
        <ele>120.865636</ele>
        <time>2022-12-10T12:42:57.181Z</time>
      </trkpt>
      <trkpt lat="48.25433" lon="-4.08507">
        <ele>121.315318</ele>
        <time>2022-12-10T12:43:02.190Z</time>
      </trkpt>
      <trkpt lat="48.25428" lon="-4.08495">
        <ele>121.782745</ele>
        <time>2022-12-10T12:43:07.185Z</time>
      </trkpt>
      <trkpt lat="48.25422" lon="-4.08484">
        <ele>122.246468</ele>
        <time>2022-12-10T12:43:12.178Z</time>
      </trkpt>
      <trkpt lat="48.25415" lon="-4.08474">
        <ele>122.683644</ele>
        <time>2022-12-10T12:43:17.179Z</time>
      </trkpt>
      <trkpt lat="48.25407" lon="-4.08467">
        <ele>123.151288</ele>
        <time>2022-12-10T12:43:22.179Z</time>
      </trkpt>
      <trkpt lat="48.25397" lon="-4.08463">
        <ele>123.649502</ele>
        <time>2022-12-10T12:43:27.183Z</time>
      </trkpt>
      <trkpt lat="48.25386" lon="-4.08462">
        <ele>124.188919</ele>
        <time>2022-12-10T12:43:32.184Z</time>
      </trkpt>
      <trkpt lat="48.25376" lon="-4.08464">
        <ele>124.672465</ele>
        <time>2022-12-10T12:43:37.171Z</time>
      </trkpt>
      <trkpt lat="48.25366" lon="-4.08468">
        <ele>125.153179</ele>
        <time>2022-12-10T12:43:42.205Z</time>
      </trkpt>
      <trkpt lat="48.25358" lon="-4.08475">
        <ele>125.638437</ele>
        <time>2022-12-10T12:43:47.182Z</time>
      </trkpt>
      <trkpt lat="48.25349" lon="-4.08484">
        <ele>126.132798</ele>
        <time>2022-12-10T12:43:52.176Z</time>
      </trkpt>
      <trkpt lat="48.25341" lon="-4.08493">
        <ele>126.621793</ele>
        <time>2022-12-10T12:43:57.177Z</time>
      </trkpt>
      <trkpt lat="48.25335" lon="-4.08504">
        <ele>127.070607</ele>
        <time>2022-12-10T12:44:02.172Z</time>
      </trkpt>
      <trkpt lat="48.2533" lon="-4.08517">
        <ele>127.58697</ele>
        <time>2022-12-10T12:44:08.186Z</time>
      </trkpt>
      <trkpt lat="48.25326" lon="-4.0853">
        <ele>128.031533</ele>
        <time>2022-12-10T12:44:13.183Z</time>
      </trkpt>
      <trkpt lat="48.25322" lon="-4.08545">
        <ele>128.546762</ele>
        <time>2022-12-10T12:44:19.175Z</time>
      </trkpt>
      <trkpt lat="48.25318" lon="-4.08558">
        <ele>129.01068</ele>
        <time>2022-12-10T12:44:24.180Z</time>
      </trkpt>
      <trkpt lat="48.25314" lon="-4.08571">
        <ele>129.473178</ele>
        <time>2022-12-10T12:44:29.179Z</time>
      </trkpt>
      <trkpt lat="48.25309" lon="-4.08583">
        <ele>129.940209</ele>
        <time>2022-12-10T12:44:34.188Z</time>
      </trkpt>
      <trkpt lat="48.25305" lon="-4.08596">
        <ele>130.3948</ele>
        <time>2022-12-10T12:44:39.191Z</time>
      </trkpt>
      <trkpt lat="48.253" lon="-4.08608">
        <ele>130.86049</ele>
        <time>2022-12-10T12:44:44.196Z</time>
      </trkpt>
      <trkpt lat="48.25294" lon="-4.08622">
        <ele>131.38775</ele>
        <time>2022-12-10T12:44:50.191Z</time>
      </trkpt>
      <trkpt lat="48.25289" lon="-4.08634">
        <ele>131.83368</ele>
        <time>2022-12-10T12:44:55.183Z</time>
      </trkpt>
      <trkpt lat="48.25283" lon="-4.08645">
        <ele>132.292287</ele>
        <time>2022-12-10T12:45:00.188Z</time>
      </trkpt>
      <trkpt lat="48.25277" lon="-4.08656">
        <ele>132.771766</ele>
        <time>2022-12-10T12:45:05.183Z</time>
      </trkpt>
      <trkpt lat="48.25272" lon="-4.08667">
        <ele>133.212609</ele>
        <time>2022-12-10T12:45:10.194Z</time>
      </trkpt>
      <trkpt lat="48.25267" lon="-4.08679">
        <ele>133.653484</ele>
        <time>2022-12-10T12:45:15.167Z</time>
      </trkpt>
      <trkpt lat="48.25262" lon="-4.08692">
        <ele>134.158936</ele>
        <time>2022-12-10T12:45:21.170Z</time>
      </trkpt>
      <trkpt lat="48.25257" lon="-4.08704">
        <ele>134.624422</ele>
        <time>2022-12-10T12:45:26.180Z</time>
      </trkpt>
      <trkpt lat="48.25254" lon="-4.08717">
        <ele>135.069562</ele>
        <time>2022-12-10T12:45:31.176Z</time>
      </trkpt>
      <trkpt lat="48.25251" lon="-4.08731">
        <ele>135.52395</ele>
        <time>2022-12-10T12:45:36.182Z</time>
      </trkpt>
      <trkpt lat="48.25248" lon="-4.08745">
        <ele>136.012268</ele>
        <time>2022-12-10T12:45:41.199Z</time>
      </trkpt>
      <trkpt lat="48.25246" lon="-4.08758">
        <ele>136.458418</ele>
        <time>2022-12-10T12:45:46.182Z</time>
      </trkpt>
      <trkpt lat="48.25242" lon="-4.08772">
        <ele>136.938455</ele>
        <time>2022-12-10T12:45:52.184Z</time>
      </trkpt>
      <trkpt lat="48.25235" lon="-4.08784">
        <ele>137.439339</ele>
        <time>2022-12-10T12:45:58.182Z</time>
      </trkpt>
      <trkpt lat="48.25229" lon="-4.08796">
        <ele>137.943571</ele>
        <time>2022-12-10T12:46:04.174Z</time>
      </trkpt>
      <trkpt lat="48.25221" lon="-4.08806">
        <ele>138.427182</ele>
        <time>2022-12-10T12:46:10.178Z</time>
      </trkpt>
      <trkpt lat="48.25214" lon="-4.08813">
        <ele>138.876746</ele>
        <time>2022-12-10T12:46:15.190Z</time>
      </trkpt>
      <trkpt lat="48.25206" lon="-4.0882">
        <ele>139.34053</ele>
        <time>2022-12-10T12:46:20.186Z</time>
      </trkpt>
      <trkpt lat="48.25197" lon="-4.08825">
        <ele>139.818154</ele>
        <time>2022-12-10T12:46:25.178Z</time>
      </trkpt>
      <trkpt lat="48.25188" lon="-4.08828">
        <ele>140.289786</ele>
        <time>2022-12-10T12:46:30.174Z</time>
      </trkpt>
      <trkpt lat="48.25179" lon="-4.08829">
        <ele>140.749785</ele>
        <time>2022-12-10T12:46:35.174Z</time>
      </trkpt>
      <trkpt lat="48.25169" lon="-4.08828">
        <ele>141.239379</ele>
        <time>2022-12-10T12:46:41.178Z</time>
      </trkpt>
      <trkpt lat="48.2516" lon="-4.08824">
        <ele>141.703346</ele>
        <time>2022-12-10T12:46:46.175Z</time>
      </trkpt>
      <trkpt lat="48.2515" lon="-4.08819">
        <ele>142.236139</ele>
        <time>2022-12-10T12:46:52.175Z</time>
      </trkpt>
      <trkpt lat="48.25141" lon="-4.08812">
        <ele>142.758111</ele>
        <time>2022-12-10T12:46:58.175Z</time>
      </trkpt>
      <trkpt lat="48.25133" lon="-4.08805">
        <ele>143.223655</ele>
        <time>2022-12-10T12:47:03.181Z</time>
      </trkpt>
      <trkpt lat="48.25125" lon="-4.08796">
        <ele>143.709906</ele>
        <time>2022-12-10T12:47:08.191Z</time>
      </trkpt>
      <trkpt lat="48.25119" lon="-4.08787">
        <ele>144.180868</ele>
        <time>2022-12-10T12:47:13.191Z</time>
      </trkpt>
      <trkpt lat="48.25112" lon="-4.08776">
        <ele>144.645891</ele>
        <time>2022-12-10T12:47:18.180Z</time>
      </trkpt>
      <trkpt lat="48.25105" lon="-4.08766">
        <ele>145.183547</ele>
        <time>2022-12-10T12:47:24.182Z</time>
      </trkpt>
      <trkpt lat="48.25097" lon="-4.08757">
        <ele>145.662094</ele>
        <time>2022-12-10T12:47:29.180Z</time>
      </trkpt>
      <trkpt lat="48.25089" lon="-4.08749">
        <ele>146.1544</ele>
        <time>2022-12-10T12:47:34.201Z</time>
      </trkpt>
      <trkpt lat="48.25081" lon="-4.08739">
        <ele>146.646997</ele>
        <time>2022-12-10T12:47:39.174Z</time>
      </trkpt>
      <trkpt lat="48.25073" lon="-4.08731">
        <ele>147.135459</ele>
        <time>2022-12-10T12:47:44.193Z</time>
      </trkpt>
      <trkpt lat="48.25065" lon="-4.08722">
        <ele>147.637989</ele>
        <time>2022-12-10T12:47:49.191Z</time>
      </trkpt>
      <trkpt lat="48.25058" lon="-4.08712">
        <ele>147.690713</ele>
        <time>2022-12-10T12:47:54.192Z</time>
      </trkpt>
      <trkpt lat="48.2505" lon="-4.08705">
        <ele>147.694914</ele>
        <time>2022-12-10T12:47:59.178Z</time>
      </trkpt>
      <trkpt lat="48.25042" lon="-4.08696">
        <ele>147.699013</ele>
        <time>2022-12-10T12:48:04.181Z</time>
      </trkpt>
      <trkpt lat="48.25035" lon="-4.08687">
        <ele>147.703042</ele>
        <time>2022-12-10T12:48:09.189Z</time>
      </trkpt>
      <trkpt lat="48.25025" lon="-4.0868">
        <ele>147.707484</ele>
        <time>2022-12-10T12:48:14.188Z</time>
      </trkpt>
      <trkpt lat="48.25017" lon="-4.08671">
        <ele>147.711895</ele>
        <time>2022-12-10T12:48:19.201Z</time>
      </trkpt>
      <trkpt lat="48.25008" lon="-4.08662">
        <ele>147.716249</ele>
        <time>2022-12-10T12:48:24.195Z</time>
      </trkpt>
      <trkpt lat="48.25" lon="-4.08656">
        <ele>147.720157</ele>
        <time>2022-12-10T12:48:29.194Z</time>
      </trkpt>
      <trkpt lat="48.24993" lon="-4.08646">
        <ele>147.724251</ele>
        <time>2022-12-10T12:48:35.183Z</time>
      </trkpt>
      <trkpt lat="48.24987" lon="-4.08635">
        <ele>147.728568</ele>
        <time>2022-12-10T12:48:40.172Z</time>
      </trkpt>
      <trkpt lat="48.24979" lon="-4.08625">
        <ele>147.733021</ele>
        <time>2022-12-10T12:48:44.179Z</time>
      </trkpt>
      <trkpt lat="48.24972" lon="-4.08615">
        <ele>147.737157</ele>
        <time>2022-12-10T12:48:48.174Z</time>
      </trkpt>
      <trkpt lat="48.24965" lon="-4.08605">
        <ele>147.741115</ele>
        <time>2022-12-10T12:48:52.182Z</time>
      </trkpt>
      <trkpt lat="48.24956" lon="-4.08594">
        <ele>147.745841</ele>
        <time>2022-12-10T12:48:56.191Z</time>
      </trkpt>
      <trkpt lat="48.24949" lon="-4.08585">
        <ele>147.749826</ele>
        <time>2022-12-10T12:48:59.195Z</time>
      </trkpt>
      <trkpt lat="48.2494" lon="-4.08574">
        <ele>147.754814</ele>
        <time>2022-12-10T12:49:03.196Z</time>
      </trkpt>
      <trkpt lat="48.24931" lon="-4.08564">
        <ele>147.75968</ele>
        <time>2022-12-10T12:49:07.193Z</time>
      </trkpt>
      <trkpt lat="48.24923" lon="-4.08555">
        <ele>147.749029</ele>
        <time>2022-12-10T12:49:11.189Z</time>
      </trkpt>
      <trkpt lat="48.24913" lon="-4.08545">
        <ele>147.537574</ele>
        <time>2022-12-10T12:49:15.195Z</time>
      </trkpt>
      <trkpt lat="48.24906" lon="-4.08537">
        <ele>147.374448</ele>
        <time>2022-12-10T12:49:18.201Z</time>
      </trkpt>
      <trkpt lat="48.24897" lon="-4.08527">
        <ele>147.174356</ele>
        <time>2022-12-10T12:49:22.186Z</time>
      </trkpt>
      <trkpt lat="48.24886" lon="-4.08519">
        <ele>146.971601</ele>
        <time>2022-12-10T12:49:26.172Z</time>
      </trkpt>
      <trkpt lat="48.24877" lon="-4.08513">
        <ele>146.778725</ele>
        <time>2022-12-10T12:49:30.200Z</time>
      </trkpt>
      <trkpt lat="48.24868" lon="-4.08505">
        <ele>146.606846</ele>
        <time>2022-12-10T12:49:34.194Z</time>
      </trkpt>
      <trkpt lat="48.24853" lon="-4.08484">
        <ele>146.242168</ele>
        <time>2022-12-10T12:50:55.189Z</time>
      </trkpt>
      <trkpt lat="48.24846" lon="-4.08477">
        <ele>146.078918</ele>
        <time>2022-12-10T12:50:58.176Z</time>
      </trkpt>
      <trkpt lat="48.24838" lon="-4.08469">
        <ele>145.910354</ele>
        <time>2022-12-10T12:51:01.174Z</time>
      </trkpt>
      <trkpt lat="48.24828" lon="-4.08459">
        <ele>145.698033</ele>
        <time>2022-12-10T12:51:05.193Z</time>
      </trkpt>
      <trkpt lat="48.24817" lon="-4.08451">
        <ele>145.482539</ele>
        <time>2022-12-10T12:51:09.175Z</time>
      </trkpt>
      <trkpt lat="48.24808" lon="-4.08444">
        <ele>145.30346</ele>
        <time>2022-12-10T12:51:12.193Z</time>
      </trkpt>
      <trkpt lat="48.24798" lon="-4.08438">
        <ele>145.104053</ele>
        <time>2022-12-10T12:51:15.202Z</time>
      </trkpt>
      <trkpt lat="48.24787" lon="-4.08432">
        <ele>144.898136</ele>
        <time>2022-12-10T12:51:18.176Z</time>
      </trkpt>
      <trkpt lat="48.24776" lon="-4.08427">
        <ele>144.690076</ele>
        <time>2022-12-10T12:51:21.193Z</time>
      </trkpt>
      <trkpt lat="48.24764" lon="-4.08423">
        <ele>144.528849</ele>
        <time>2022-12-10T12:51:24.174Z</time>
      </trkpt>
      <trkpt lat="48.24751" lon="-4.08418">
        <ele>144.446773</ele>
        <time>2022-12-10T12:51:27.203Z</time>
      </trkpt>
      <trkpt lat="48.24739" lon="-4.08413">
        <ele>144.361177</ele>
        <time>2022-12-10T12:51:30.195Z</time>
      </trkpt>
      <trkpt lat="48.24729" lon="-4.0841">
        <ele>144.300715</ele>
        <time>2022-12-10T12:51:32.183Z</time>
      </trkpt>
      <trkpt lat="48.24716" lon="-4.08408">
        <ele>144.213031</ele>
        <time>2022-12-10T12:51:35.203Z</time>
      </trkpt>
      <trkpt lat="48.24706" lon="-4.08407">
        <ele>144.149409</ele>
        <time>2022-12-10T12:51:37.175Z</time>
      </trkpt>
      <trkpt lat="48.24696" lon="-4.08406">
        <ele>144.08527</ele>
        <time>2022-12-10T12:51:39.198Z</time>
      </trkpt>
      <trkpt lat="48.24686" lon="-4.08407">
        <ele>144.021196</ele>
        <time>2022-12-10T12:51:41.189Z</time>
      </trkpt>
      <trkpt lat="48.24677" lon="-4.08407">
        <ele>143.957785</ele>
        <time>2022-12-10T12:51:43.196Z</time>
      </trkpt>
      <trkpt lat="48.24667" lon="-4.08408">
        <ele>143.893555</ele>
        <time>2022-12-10T12:51:45.196Z</time>
      </trkpt>
      <trkpt lat="48.24656" lon="-4.0841">
        <ele>143.826067</ele>
        <time>2022-12-10T12:51:47.188Z</time>
      </trkpt>
      <trkpt lat="48.24646" lon="-4.08412">
        <ele>143.760998</ele>
        <time>2022-12-10T12:51:49.197Z</time>
      </trkpt>
      <trkpt lat="48.24636" lon="-4.08415">
        <ele>143.696279</ele>
        <time>2022-12-10T12:51:51.196Z</time>
      </trkpt>
      <trkpt lat="48.24627" lon="-4.08417">
        <ele>143.632954</ele>
        <time>2022-12-10T12:51:53.195Z</time>
      </trkpt>
      <trkpt lat="48.24617" lon="-4.08421">
        <ele>143.566247</ele>
        <time>2022-12-10T12:51:55.197Z</time>
      </trkpt>
      <trkpt lat="48.24608" lon="-4.08424">
        <ele>143.507443</ele>
        <time>2022-12-10T12:51:57.192Z</time>
      </trkpt>
      <trkpt lat="48.24596" lon="-4.08428">
        <ele>143.428676</ele>
        <time>2022-12-10T12:52:00.205Z</time>
      </trkpt>
      <trkpt lat="48.24585" lon="-4.08432">
        <ele>143.540748</ele>
        <time>2022-12-10T12:52:03.199Z</time>
      </trkpt>
      <trkpt lat="48.24575" lon="-4.08438">
        <ele>143.779876</ele>
        <time>2022-12-10T12:52:06.204Z</time>
      </trkpt>
      <trkpt lat="48.24567" lon="-4.08444">
        <ele>143.985381</ele>
        <time>2022-12-10T12:52:09.174Z</time>
      </trkpt>
      <trkpt lat="48.24558" lon="-4.08449">
        <ele>144.208393</ele>
        <time>2022-12-10T12:52:15.192Z</time>
      </trkpt>
      <trkpt lat="48.24548" lon="-4.08452">
        <ele>144.443333</ele>
        <time>2022-12-10T12:52:21.174Z</time>
      </trkpt>
      <trkpt lat="48.24538" lon="-4.08455">
        <ele>144.660247</ele>
        <time>2022-12-10T12:52:25.193Z</time>
      </trkpt>
      <trkpt lat="48.24529" lon="-4.08455">
        <ele>144.872771</ele>
        <time>2022-12-10T12:52:29.192Z</time>
      </trkpt>
      <trkpt lat="48.24519" lon="-4.08455">
        <ele>145.089768</ele>
        <time>2022-12-10T12:52:33.190Z</time>
      </trkpt>
      <trkpt lat="48.2451" lon="-4.08458">
        <ele>145.310538</ele>
        <time>2022-12-10T12:52:37.172Z</time>
      </trkpt>
      <trkpt lat="48.245" lon="-4.08461">
        <ele>145.525549</ele>
        <time>2022-12-10T12:52:41.186Z</time>
      </trkpt>
      <trkpt lat="48.2449" lon="-4.08464">
        <ele>145.756982</ele>
        <time>2022-12-10T12:52:45.178Z</time>
      </trkpt>
      <trkpt lat="48.2448" lon="-4.08465">
        <ele>145.983266</ele>
        <time>2022-12-10T12:52:49.183Z</time>
      </trkpt>
      <trkpt lat="48.2447" lon="-4.08465">
        <ele>146.216105</ele>
        <time>2022-12-10T12:52:54.175Z</time>
      </trkpt>
      <trkpt lat="48.24459" lon="-4.08465">
        <ele>146.4603</ele>
        <time>2022-12-10T12:52:59.191Z</time>
      </trkpt>
      <trkpt lat="48.24449" lon="-4.08467">
        <ele>146.703846</ele>
        <time>2022-12-10T12:53:04.186Z</time>
      </trkpt>
      <trkpt lat="48.24438" lon="-4.08469">
        <ele>146.948876</ele>
        <time>2022-12-10T12:53:09.193Z</time>
      </trkpt>
      <trkpt lat="48.24427" lon="-4.08471">
        <ele>147.18895</ele>
        <time>2022-12-10T12:53:14.176Z</time>
      </trkpt>
      <trkpt lat="48.24417" lon="-4.08472">
        <ele>147.426977</ele>
        <time>2022-12-10T12:53:19.172Z</time>
      </trkpt>
      <trkpt lat="48.24407" lon="-4.08475">
        <ele>147.675039</ele>
        <time>2022-12-10T12:53:24.176Z</time>
      </trkpt>
      <trkpt lat="48.24396" lon="-4.08477">
        <ele>147.93587</ele>
        <time>2022-12-10T12:53:29.179Z</time>
      </trkpt>
      <trkpt lat="48.24385" lon="-4.08478">
        <ele>148.193109</ele>
        <time>2022-12-10T12:53:34.175Z</time>
      </trkpt>
      <trkpt lat="48.24375" lon="-4.08479">
        <ele>148.453415</ele>
        <time>2022-12-10T12:53:39.192Z</time>
      </trkpt>
      <trkpt lat="48.24364" lon="-4.08481">
        <ele>148.712595</ele>
        <time>2022-12-10T12:53:44.174Z</time>
      </trkpt>
      <trkpt lat="48.24354" lon="-4.08483">
        <ele>148.964161</ele>
        <time>2022-12-10T12:53:49.194Z</time>
      </trkpt>
      <trkpt lat="48.24344" lon="-4.08485">
        <ele>149.216121</ele>
        <time>2022-12-10T12:53:54.207Z</time>
      </trkpt>
      <trkpt lat="48.24333" lon="-4.08487">
        <ele>149.469507</ele>
        <time>2022-12-10T12:53:59.198Z</time>
      </trkpt>
      <trkpt lat="48.24323" lon="-4.0849">
        <ele>149.73197</ele>
        <time>2022-12-10T12:54:04.178Z</time>
      </trkpt>
      <trkpt lat="48.24312" lon="-4.08493">
        <ele>149.991579</ele>
        <time>2022-12-10T12:54:09.181Z</time>
      </trkpt>
      <trkpt lat="48.24303" lon="-4.08495">
        <ele>150.21447</ele>
        <time>2022-12-10T12:54:13.196Z</time>
      </trkpt>
      <trkpt lat="48.24293" lon="-4.08495">
        <ele>150.445219</ele>
        <time>2022-12-10T12:54:17.200Z</time>
      </trkpt>
      <trkpt lat="48.24282" lon="-4.08497">
        <ele>150.71366</ele>
        <time>2022-12-10T12:54:22.179Z</time>
      </trkpt>
      <trkpt lat="48.24271" lon="-4.085">
        <ele>150.983324</ele>
        <time>2022-12-10T12:54:27.191Z</time>
      </trkpt>
      <trkpt lat="48.24261" lon="-4.08502">
        <ele>151.242927</ele>
        <time>2022-12-10T12:54:32.204Z</time>
      </trkpt>
      <trkpt lat="48.24252" lon="-4.08504">
        <ele>151.466286</ele>
        <time>2022-12-10T12:54:36.175Z</time>
      </trkpt>
      <trkpt lat="48.24241" lon="-4.08506">
        <ele>151.730918</ele>
        <time>2022-12-10T12:54:41.194Z</time>
      </trkpt>
      <trkpt lat="48.2423" lon="-4.08509">
        <ele>151.783494</ele>
        <time>2022-12-10T12:54:46.175Z</time>
      </trkpt>
      <trkpt lat="48.24221" lon="-4.08509">
        <ele>151.72807</ele>
        <time>2022-12-10T12:54:50.208Z</time>
      </trkpt>
      <trkpt lat="48.24212" lon="-4.08508">
        <ele>151.671222</ele>
        <time>2022-12-10T12:54:54.177Z</time>
      </trkpt>
      <trkpt lat="48.24201" lon="-4.08509">
        <ele>151.607663</ele>
        <time>2022-12-10T12:54:58.180Z</time>
      </trkpt>
      <trkpt lat="48.24191" lon="-4.08511">
        <ele>151.54589</ele>
        <time>2022-12-10T12:55:02.177Z</time>
      </trkpt>
      <trkpt lat="48.24182" lon="-4.0851">
        <ele>151.488589</ele>
        <time>2022-12-10T12:55:06.182Z</time>
      </trkpt>
      <trkpt lat="48.24171" lon="-4.08512">
        <ele>151.420174</ele>
        <time>2022-12-10T12:55:10.190Z</time>
      </trkpt>
      <trkpt lat="48.24161" lon="-4.08514">
        <ele>151.36217</ele>
        <time>2022-12-10T12:55:13.201Z</time>
      </trkpt>
      <trkpt lat="48.24151" lon="-4.08516">
        <ele>151.299291</ele>
        <time>2022-12-10T12:55:16.196Z</time>
      </trkpt>
      <trkpt lat="48.24141" lon="-4.08519">
        <ele>151.234715</ele>
        <time>2022-12-10T12:55:19.188Z</time>
      </trkpt>
      <trkpt lat="48.2413" lon="-4.08521">
        <ele>151.167787</ele>
        <time>2022-12-10T12:55:22.194Z</time>
      </trkpt>
      <trkpt lat="48.24118" lon="-4.08524">
        <ele>151.094813</ele>
        <time>2022-12-10T12:55:25.175Z</time>
      </trkpt>
      <trkpt lat="48.24105" lon="-4.08524">
        <ele>151.018683</ele>
        <time>2022-12-10T12:55:28.194Z</time>
      </trkpt>
      <trkpt lat="48.24093" lon="-4.08524">
        <ele>150.946198</ele>
        <time>2022-12-10T12:55:31.180Z</time>
      </trkpt>
      <trkpt lat="48.24081" lon="-4.08523">
        <ele>150.869392</ele>
        <time>2022-12-10T12:55:34.175Z</time>
      </trkpt>
      <trkpt lat="48.24071" lon="-4.08521">
        <ele>150.811075</ele>
        <time>2022-12-10T12:55:36.192Z</time>
      </trkpt>
      <trkpt lat="48.24062" lon="-4.0852">
        <ele>150.752406</ele>
        <time>2022-12-10T12:55:38.182Z</time>
      </trkpt>
      <trkpt lat="48.24052" lon="-4.08519">
        <ele>150.382799</ele>
        <time>2022-12-10T12:55:40.184Z</time>
      </trkpt>
      <trkpt lat="48.24042" lon="-4.08517">
        <ele>149.815394</ele>
        <time>2022-12-10T12:55:42.194Z</time>
      </trkpt>
      <trkpt lat="48.24032" lon="-4.08516">
        <ele>149.235912</ele>
        <time>2022-12-10T12:55:44.181Z</time>
      </trkpt>
      <trkpt lat="48.24022" lon="-4.08515">
        <ele>148.662478</ele>
        <time>2022-12-10T12:55:46.196Z</time>
      </trkpt>
      <trkpt lat="48.24012" lon="-4.08513">
        <ele>148.055247</ele>
        <time>2022-12-10T12:55:48.194Z</time>
      </trkpt>
      <trkpt lat="48.24002" lon="-4.08511">
        <ele>147.48587</ele>
        <time>2022-12-10T12:55:50.177Z</time>
      </trkpt>
      <trkpt lat="48.23991" lon="-4.0851">
        <ele>146.882026</ele>
        <time>2022-12-10T12:55:52.192Z</time>
      </trkpt>
      <trkpt lat="48.2398" lon="-4.08507">
        <ele>146.259743</ele>
        <time>2022-12-10T12:55:54.195Z</time>
      </trkpt>
      <trkpt lat="48.2397" lon="-4.08508">
        <ele>145.665898</ele>
        <time>2022-12-10T12:55:56.202Z</time>
      </trkpt>
      <trkpt lat="48.23959" lon="-4.08506">
        <ele>145.045884</ele>
        <time>2022-12-10T12:55:58.197Z</time>
      </trkpt>
      <trkpt lat="48.23949" lon="-4.08502">
        <ele>144.422763</ele>
        <time>2022-12-10T12:56:00.186Z</time>
      </trkpt>
      <trkpt lat="48.23938" lon="-4.08498">
        <ele>143.789424</ele>
        <time>2022-12-10T12:56:02.197Z</time>
      </trkpt>
      <trkpt lat="48.23926" lon="-4.08494">
        <ele>143.118307</ele>
        <time>2022-12-10T12:56:04.194Z</time>
      </trkpt>
      <trkpt lat="48.23915" lon="-4.08489">
        <ele>142.465304</ele>
        <time>2022-12-10T12:56:06.187Z</time>
      </trkpt>
      <trkpt lat="48.23904" lon="-4.08483">
        <ele>141.801408</ele>
        <time>2022-12-10T12:56:08.204Z</time>
      </trkpt>
      <trkpt lat="48.23893" lon="-4.08477">
        <ele>141.126528</ele>
        <time>2022-12-10T12:56:10.200Z</time>
      </trkpt>
      <trkpt lat="48.23882" lon="-4.08471">
        <ele>140.44903</ele>
        <time>2022-12-10T12:56:12.176Z</time>
      </trkpt>
      <trkpt lat="48.23871" lon="-4.08464">
        <ele>139.872136</ele>
        <time>2022-12-10T12:56:14.190Z</time>
      </trkpt>
      <trkpt lat="48.2386" lon="-4.08457">
        <ele>139.315039</ele>
        <time>2022-12-10T12:56:16.202Z</time>
      </trkpt>
      <trkpt lat="48.23849" lon="-4.0845">
        <ele>138.748645</ele>
        <time>2022-12-10T12:56:18.177Z</time>
      </trkpt>
      <trkpt lat="48.23838" lon="-4.08443">
        <ele>138.192759</ele>
        <time>2022-12-10T12:56:20.192Z</time>
      </trkpt>
      <trkpt lat="48.23827" lon="-4.08437">
        <ele>137.63165</ele>
        <time>2022-12-10T12:56:22.175Z</time>
      </trkpt>
      <trkpt lat="48.23816" lon="-4.0843">
        <ele>137.091218</ele>
        <time>2022-12-10T12:56:24.197Z</time>
      </trkpt>
      <trkpt lat="48.23806" lon="-4.08424">
        <ele>136.548786</ele>
        <time>2022-12-10T12:56:26.184Z</time>
      </trkpt>
      <trkpt lat="48.23795" lon="-4.08417">
        <ele>135.996024</ele>
        <time>2022-12-10T12:56:28.203Z</time>
      </trkpt>
      <trkpt lat="48.23784" lon="-4.0841">
        <ele>135.444484</ele>
        <time>2022-12-10T12:56:30.190Z</time>
      </trkpt>
      <trkpt lat="48.23773" lon="-4.08403">
        <ele>134.896513</ele>
        <time>2022-12-10T12:56:32.196Z</time>
      </trkpt>
      <trkpt lat="48.23762" lon="-4.08396">
        <ele>134.322732</ele>
        <time>2022-12-10T12:56:34.183Z</time>
      </trkpt>
      <trkpt lat="48.2375" lon="-4.0839">
        <ele>133.742919</ele>
        <time>2022-12-10T12:56:36.188Z</time>
      </trkpt>
      <trkpt lat="48.23739" lon="-4.08383">
        <ele>133.147668</ele>
        <time>2022-12-10T12:56:38.202Z</time>
      </trkpt>
      <trkpt lat="48.23726" lon="-4.08375">
        <ele>132.503801</ele>
        <time>2022-12-10T12:56:40.196Z</time>
      </trkpt>
      <trkpt lat="48.23713" lon="-4.08367">
        <ele>131.933159</ele>
        <time>2022-12-10T12:56:42.200Z</time>
      </trkpt>
      <trkpt lat="48.23699" lon="-4.08358">
        <ele>131.685061</ele>
        <time>2022-12-10T12:56:44.204Z</time>
      </trkpt>
      <trkpt lat="48.23684" lon="-4.08348">
        <ele>131.414402</ele>
        <time>2022-12-10T12:56:46.180Z</time>
      </trkpt>
      <trkpt lat="48.23669" lon="-4.08339">
        <ele>131.143742</ele>
        <time>2022-12-10T12:56:48.189Z</time>
      </trkpt>
      <trkpt lat="48.23653" lon="-4.08329">
        <ele>130.856935</ele>
        <time>2022-12-10T12:56:50.196Z</time>
      </trkpt>
      <trkpt lat="48.23637" lon="-4.08319">
        <ele>130.567348</ele>
        <time>2022-12-10T12:56:52.192Z</time>
      </trkpt>
      <trkpt lat="48.23622" lon="-4.0831">
        <ele>130.293355</ele>
        <time>2022-12-10T12:56:54.204Z</time>
      </trkpt>
      <trkpt lat="48.23608" lon="-4.08301">
        <ele>130.030581</ele>
        <time>2022-12-10T12:56:56.187Z</time>
      </trkpt>
      <trkpt lat="48.23594" lon="-4.08293">
        <ele>129.779726</ele>
        <time>2022-12-10T12:56:58.198Z</time>
      </trkpt>
      <trkpt lat="48.23581" lon="-4.08285">
        <ele>129.545196</ele>
        <time>2022-12-10T12:57:00.199Z</time>
      </trkpt>
      <trkpt lat="48.23569" lon="-4.08276">
        <ele>129.332197</ele>
        <time>2022-12-10T12:57:02.196Z</time>
      </trkpt>
      <trkpt lat="48.23558" lon="-4.08269">
        <ele>129.137986</ele>
        <time>2022-12-10T12:57:04.194Z</time>
      </trkpt>
      <trkpt lat="48.23548" lon="-4.08263">
        <ele>128.998069</ele>
        <time>2022-12-10T12:57:06.190Z</time>
      </trkpt>
      <trkpt lat="48.23539" lon="-4.08257">
        <ele>129.040571</ele>
        <time>2022-12-10T12:57:08.195Z</time>
      </trkpt>
      <trkpt lat="48.23529" lon="-4.08251">
        <ele>129.092045</ele>
        <time>2022-12-10T12:57:11.202Z</time>
      </trkpt>
      <trkpt lat="48.23517" lon="-4.08245">
        <ele>129.145489</ele>
        <time>2022-12-10T12:57:14.195Z</time>
      </trkpt>
      <trkpt lat="48.23506" lon="-4.08239">
        <ele>129.199389</ele>
        <time>2022-12-10T12:57:17.203Z</time>
      </trkpt>
      <trkpt lat="48.23494" lon="-4.08235">
        <ele>129.252875</ele>
        <time>2022-12-10T12:57:20.198Z</time>
      </trkpt>
      <trkpt lat="48.23482" lon="-4.08232">
        <ele>129.304856</ele>
        <time>2022-12-10T12:57:23.176Z</time>
      </trkpt>
      <trkpt lat="48.23471" lon="-4.08229">
        <ele>129.354513</ele>
        <time>2022-12-10T12:57:26.202Z</time>
      </trkpt>
      <trkpt lat="48.23461" lon="-4.08227">
        <ele>129.40146</ele>
        <time>2022-12-10T12:57:29.181Z</time>
      </trkpt>
      <trkpt lat="48.2345" lon="-4.08225">
        <ele>129.447627</ele>
        <time>2022-12-10T12:57:32.192Z</time>
      </trkpt>
      <trkpt lat="48.2344" lon="-4.08223">
        <ele>129.49357</ele>
        <time>2022-12-10T12:57:35.195Z</time>
      </trkpt>
      <trkpt lat="48.2343" lon="-4.08221">
        <ele>129.536808</ele>
        <time>2022-12-10T12:57:38.205Z</time>
      </trkpt>
      <trkpt lat="48.23421" lon="-4.0822">
        <ele>129.579401</ele>
        <time>2022-12-10T12:57:41.184Z</time>
      </trkpt>
      <trkpt lat="48.23411" lon="-4.08218">
        <ele>129.622494</ele>
        <time>2022-12-10T12:57:44.202Z</time>
      </trkpt>
      <trkpt lat="48.23401" lon="-4.08216">
        <ele>129.667409</ele>
        <time>2022-12-10T12:57:47.198Z</time>
      </trkpt>
      <trkpt lat="48.2339" lon="-4.08214">
        <ele>129.715185</ele>
        <time>2022-12-10T12:57:50.190Z</time>
      </trkpt>
      <trkpt lat="48.23379" lon="-4.08212">
        <ele>129.76587</ele>
        <time>2022-12-10T12:57:53.196Z</time>
      </trkpt>
      <trkpt lat="48.23367" lon="-4.08209">
        <ele>129.868838</ele>
        <time>2022-12-10T12:57:56.197Z</time>
      </trkpt>
      <trkpt lat="48.23355" lon="-4.08208">
        <ele>129.995917</ele>
        <time>2022-12-10T12:57:59.197Z</time>
      </trkpt>
      <trkpt lat="48.23344" lon="-4.08206">
        <ele>130.117744</ele>
        <time>2022-12-10T12:58:02.198Z</time>
      </trkpt>
      <trkpt lat="48.23332" lon="-4.08204">
        <ele>130.239572</ele>
        <time>2022-12-10T12:58:05.173Z</time>
      </trkpt>
      <trkpt lat="48.23321" lon="-4.08202">
        <ele>130.361482</ele>
        <time>2022-12-10T12:58:08.191Z</time>
      </trkpt>
      <trkpt lat="48.2331" lon="-4.08201">
        <ele>130.480668</ele>
        <time>2022-12-10T12:58:11.201Z</time>
      </trkpt>
      <trkpt lat="48.23299" lon="-4.08199">
        <ele>130.600288</ele>
        <time>2022-12-10T12:58:14.189Z</time>
      </trkpt>
      <trkpt lat="48.23288" lon="-4.08197">
        <ele>130.723346</ele>
        <time>2022-12-10T12:58:17.195Z</time>
      </trkpt>
      <trkpt lat="48.23276" lon="-4.08195">
        <ele>130.84632</ele>
        <time>2022-12-10T12:58:20.179Z</time>
      </trkpt>
      <trkpt lat="48.23265" lon="-4.08193">
        <ele>130.968315</ele>
        <time>2022-12-10T12:58:23.201Z</time>
      </trkpt>
      <trkpt lat="48.23253" lon="-4.08191">
        <ele>131.092272</ele>
        <time>2022-12-10T12:58:26.206Z</time>
      </trkpt>
      <trkpt lat="48.23242" lon="-4.08189">
        <ele>131.21631</ele>
        <time>2022-12-10T12:58:29.204Z</time>
      </trkpt>
      <trkpt lat="48.2323" lon="-4.08186">
        <ele>131.340708</ele>
        <time>2022-12-10T12:58:32.202Z</time>
      </trkpt>
      <trkpt lat="48.23218" lon="-4.08184">
        <ele>131.469353</ele>
        <time>2022-12-10T12:58:35.205Z</time>
      </trkpt>
      <trkpt lat="48.23206" lon="-4.08182">
        <ele>131.59906</ele>
        <time>2022-12-10T12:58:38.206Z</time>
      </trkpt>
      <trkpt lat="48.23195" lon="-4.0818">
        <ele>131.726147</ele>
        <time>2022-12-10T12:58:41.189Z</time>
      </trkpt>
      <trkpt lat="48.23182" lon="-4.08178">
        <ele>131.849306</ele>
        <time>2022-12-10T12:58:44.192Z</time>
      </trkpt>
      <trkpt lat="48.2317" lon="-4.08175">
        <ele>131.973425</ele>
        <time>2022-12-10T12:58:47.198Z</time>
      </trkpt>
      <trkpt lat="48.23158" lon="-4.08173">
        <ele>132.096456</ele>
        <time>2022-12-10T12:58:50.208Z</time>
      </trkpt>
      <trkpt lat="48.23145" lon="-4.08171">
        <ele>132.218695</ele>
        <time>2022-12-10T12:58:53.199Z</time>
      </trkpt>
      <trkpt lat="48.23133" lon="-4.08169">
        <ele>132.342155</ele>
        <time>2022-12-10T12:58:56.194Z</time>
      </trkpt>
      <trkpt lat="48.23121" lon="-4.08166">
        <ele>132.46203</ele>
        <time>2022-12-10T12:58:59.197Z</time>
      </trkpt>
      <trkpt lat="48.23109" lon="-4.08163">
        <ele>132.581021</ele>
        <time>2022-12-10T12:59:02.205Z</time>
      </trkpt>
      <trkpt lat="48.23098" lon="-4.08161">
        <ele>132.700218</ele>
        <time>2022-12-10T12:59:05.185Z</time>
      </trkpt>
      <trkpt lat="48.23086" lon="-4.08159">
        <ele>132.820477</ele>
        <time>2022-12-10T12:59:08.199Z</time>
      </trkpt>
      <trkpt lat="48.23074" lon="-4.08157">
        <ele>132.939746</ele>
        <time>2022-12-10T12:59:11.198Z</time>
      </trkpt>
      <trkpt lat="48.23062" lon="-4.08156">
        <ele>133.058811</ele>
        <time>2022-12-10T12:59:14.196Z</time>
      </trkpt>
      <trkpt lat="48.2305" lon="-4.08153">
        <ele>133.175269</ele>
        <time>2022-12-10T12:59:17.186Z</time>
      </trkpt>
      <trkpt lat="48.23039" lon="-4.0815">
        <ele>133.292014</ele>
        <time>2022-12-10T12:59:20.196Z</time>
      </trkpt>
      <trkpt lat="48.23028" lon="-4.08147">
        <ele>133.403492</ele>
        <time>2022-12-10T12:59:23.185Z</time>
      </trkpt>
      <trkpt lat="48.23018" lon="-4.08144">
        <ele>133.488143</ele>
        <time>2022-12-10T12:59:26.200Z</time>
      </trkpt>
      <trkpt lat="48.23007" lon="-4.08141">
        <ele>133.061405</ele>
        <time>2022-12-10T12:59:29.207Z</time>
      </trkpt>
      <trkpt lat="48.22996" lon="-4.08137">
        <ele>132.612894</ele>
        <time>2022-12-10T12:59:32.195Z</time>
      </trkpt>
      <trkpt lat="48.22985" lon="-4.08133">
        <ele>132.153324</ele>
        <time>2022-12-10T12:59:35.198Z</time>
      </trkpt>
      <trkpt lat="48.22974" lon="-4.08128">
        <ele>131.687764</ele>
        <time>2022-12-10T12:59:38.186Z</time>
      </trkpt>
      <trkpt lat="48.22963" lon="-4.08122">
        <ele>131.211276</ele>
        <time>2022-12-10T12:59:41.174Z</time>
      </trkpt>
      <trkpt lat="48.22951" lon="-4.08114">
        <ele>130.704308</ele>
        <time>2022-12-10T12:59:44.186Z</time>
      </trkpt>
      <trkpt lat="48.22939" lon="-4.08106">
        <ele>130.19152</ele>
        <time>2022-12-10T12:59:47.202Z</time>
      </trkpt>
      <trkpt lat="48.22928" lon="-4.08097">
        <ele>129.667125</ele>
        <time>2022-12-10T12:59:50.201Z</time>
      </trkpt>
      <trkpt lat="48.2292" lon="-4.0809">
        <ele>129.294293</ele>
        <time>2022-12-10T12:59:52.201Z</time>
      </trkpt>
      <trkpt lat="48.22912" lon="-4.08083">
        <ele>128.92146</ele>
        <time>2022-12-10T12:59:54.189Z</time>
      </trkpt>
      <trkpt lat="48.22903" lon="-4.08074">
        <ele>128.508743</ele>
        <time>2022-12-10T12:59:56.189Z</time>
      </trkpt>
      <trkpt lat="48.22895" lon="-4.08065">
        <ele>128.09273</ele>
        <time>2022-12-10T12:59:58.195Z</time>
      </trkpt>
      <trkpt lat="48.22886" lon="-4.08055">
        <ele>127.662289</ele>
        <time>2022-12-10T13:00:00.184Z</time>
      </trkpt>
      <trkpt lat="48.22878" lon="-4.08044">
        <ele>127.214416</ele>
        <time>2022-12-10T13:00:02.177Z</time>
      </trkpt>
      <trkpt lat="48.2287" lon="-4.08033">
        <ele>126.782979</ele>
        <time>2022-12-10T13:00:04.203Z</time>
      </trkpt>
      <trkpt lat="48.22863" lon="-4.08022">
        <ele>126.369373</ele>
        <time>2022-12-10T13:00:06.194Z</time>
      </trkpt>
      <trkpt lat="48.22856" lon="-4.0801">
        <ele>125.85412</ele>
        <time>2022-12-10T13:00:08.196Z</time>
      </trkpt>
      <trkpt lat="48.22849" lon="-4.07999">
        <ele>125.30926</ele>
        <time>2022-12-10T13:00:10.175Z</time>
      </trkpt>
      <trkpt lat="48.22842" lon="-4.07986">
        <ele>124.754941</ele>
        <time>2022-12-10T13:00:12.194Z</time>
      </trkpt>
      <trkpt lat="48.22835" lon="-4.07974">
        <ele>124.209947</ele>
        <time>2022-12-10T13:00:14.192Z</time>
      </trkpt>
      <trkpt lat="48.22828" lon="-4.07962">
        <ele>123.650391</ele>
        <time>2022-12-10T13:00:16.197Z</time>
      </trkpt>
      <trkpt lat="48.22821" lon="-4.07949">
        <ele>123.094163</ele>
        <time>2022-12-10T13:00:18.201Z</time>
      </trkpt>
      <trkpt lat="48.22814" lon="-4.07936">
        <ele>122.509489</ele>
        <time>2022-12-10T13:00:20.186Z</time>
      </trkpt>
      <trkpt lat="48.22807" lon="-4.07923">
        <ele>121.92914</ele>
        <time>2022-12-10T13:00:22.191Z</time>
      </trkpt>
      <trkpt lat="48.228" lon="-4.07909">
        <ele>121.334734</ele>
        <time>2022-12-10T13:00:24.201Z</time>
      </trkpt>
      <trkpt lat="48.22793" lon="-4.07896">
        <ele>120.737592</ele>
        <time>2022-12-10T13:00:26.208Z</time>
      </trkpt>
      <trkpt lat="48.22786" lon="-4.07883">
        <ele>120.164166</ele>
        <time>2022-12-10T13:00:28.194Z</time>
      </trkpt>
      <trkpt lat="48.22778" lon="-4.07871">
        <ele>119.585585</ele>
        <time>2022-12-10T13:00:30.208Z</time>
      </trkpt>
      <trkpt lat="48.22771" lon="-4.07858">
        <ele>118.996898</ele>
        <time>2022-12-10T13:00:32.198Z</time>
      </trkpt>
      <trkpt lat="48.22763" lon="-4.07845">
        <ele>118.422841</ele>
        <time>2022-12-10T13:00:34.182Z</time>
      </trkpt>
      <trkpt lat="48.22756" lon="-4.07833">
        <ele>117.854176</ele>
        <time>2022-12-10T13:00:36.182Z</time>
      </trkpt>
      <trkpt lat="48.22748" lon="-4.07822">
        <ele>117.285469</ele>
        <time>2022-12-10T13:00:38.191Z</time>
      </trkpt>
      <trkpt lat="48.2274" lon="-4.07811">
        <ele>116.933077</ele>
        <time>2022-12-10T13:00:40.194Z</time>
      </trkpt>
      <trkpt lat="48.22731" lon="-4.07802">
        <ele>116.762965</ele>
        <time>2022-12-10T13:00:42.178Z</time>
      </trkpt>
      <trkpt lat="48.22722" lon="-4.07793">
        <ele>116.603117</ele>
        <time>2022-12-10T13:00:44.187Z</time>
      </trkpt>
      <trkpt lat="48.22713" lon="-4.07785">
        <ele>116.439181</ele>
        <time>2022-12-10T13:00:46.202Z</time>
      </trkpt>
      <trkpt lat="48.22704" lon="-4.07777">
        <ele>116.277384</ele>
        <time>2022-12-10T13:00:48.197Z</time>
      </trkpt>
      <trkpt lat="48.22696" lon="-4.07769">
        <ele>116.129096</ele>
        <time>2022-12-10T13:00:50.206Z</time>
      </trkpt>
      <trkpt lat="48.22687" lon="-4.07763">
        <ele>115.97276</ele>
        <time>2022-12-10T13:00:52.200Z</time>
      </trkpt>
      <trkpt lat="48.22678" lon="-4.07756">
        <ele>115.81731</ele>
        <time>2022-12-10T13:00:54.198Z</time>
      </trkpt>
      <trkpt lat="48.22669" lon="-4.0775">
        <ele>115.662553</ele>
        <time>2022-12-10T13:00:56.186Z</time>
      </trkpt>
      <trkpt lat="48.2266" lon="-4.07745">
        <ele>115.515555</ele>
        <time>2022-12-10T13:00:58.208Z</time>
      </trkpt>
      <trkpt lat="48.22647" lon="-4.0774">
        <ele>115.316117</ele>
        <time>2022-12-10T13:01:01.186Z</time>
      </trkpt>
      <trkpt lat="48.22634" lon="-4.07735">
        <ele>115.108268</ele>
        <time>2022-12-10T13:01:04.186Z</time>
      </trkpt>
      <trkpt lat="48.22622" lon="-4.0773">
        <ele>114.905429</ele>
        <time>2022-12-10T13:01:07.176Z</time>
      </trkpt>
      <trkpt lat="48.22609" lon="-4.07726">
        <ele>114.711095</ele>
        <time>2022-12-10T13:01:10.198Z</time>
      </trkpt>
      <trkpt lat="48.22598" lon="-4.07721">
        <ele>114.521758</ele>
        <time>2022-12-10T13:01:13.199Z</time>
      </trkpt>
      <trkpt lat="48.22586" lon="-4.07717">
        <ele>114.335627</ele>
        <time>2022-12-10T13:01:16.195Z</time>
      </trkpt>
      <trkpt lat="48.22575" lon="-4.07712">
        <ele>114.143127</ele>
        <time>2022-12-10T13:01:19.188Z</time>
      </trkpt>
      <trkpt lat="48.22564" lon="-4.07708">
        <ele>113.944704</ele>
        <time>2022-12-10T13:01:22.190Z</time>
      </trkpt>
      <trkpt lat="48.22553" lon="-4.07704">
        <ele>113.756299</ele>
        <time>2022-12-10T13:01:25.199Z</time>
      </trkpt>
      <trkpt lat="48.22542" lon="-4.077">
        <ele>113.560214</ele>
        <time>2022-12-10T13:01:28.194Z</time>
      </trkpt>
      <trkpt lat="48.22531" lon="-4.07695">
        <ele>113.34471</ele>
        <time>2022-12-10T13:01:31.179Z</time>
      </trkpt>
      <trkpt lat="48.22519" lon="-4.0769">
        <ele>113.129866</ele>
        <time>2022-12-10T13:01:34.175Z</time>
      </trkpt>
      <trkpt lat="48.22508" lon="-4.07683">
        <ele>112.924274</ele>
        <time>2022-12-10T13:01:37.181Z</time>
      </trkpt>
      <trkpt lat="48.22498" lon="-4.07676">
        <ele>112.724345</ele>
        <time>2022-12-10T13:01:40.202Z</time>
      </trkpt>
      <trkpt lat="48.22488" lon="-4.07668">
        <ele>112.529643</ele>
        <time>2022-12-10T13:01:43.199Z</time>
      </trkpt>
      <trkpt lat="48.22479" lon="-4.07659">
        <ele>112.341547</ele>
        <time>2022-12-10T13:01:46.199Z</time>
      </trkpt>
      <trkpt lat="48.22471" lon="-4.07649">
        <ele>112.148675</ele>
        <time>2022-12-10T13:01:49.181Z</time>
      </trkpt>
      <trkpt lat="48.22462" lon="-4.07638">
        <ele>111.946931</ele>
        <time>2022-12-10T13:01:52.215Z</time>
      </trkpt>
      <trkpt lat="48.22453" lon="-4.07626">
        <ele>111.732396</ele>
        <time>2022-12-10T13:01:55.177Z</time>
      </trkpt>
      <trkpt lat="48.22444" lon="-4.07613">
        <ele>111.512165</ele>
        <time>2022-12-10T13:01:58.202Z</time>
      </trkpt>
      <trkpt lat="48.22434" lon="-4.07599">
        <ele>111.280614</ele>
        <time>2022-12-10T13:02:01.197Z</time>
      </trkpt>
      <trkpt lat="48.22427" lon="-4.07589">
        <ele>111.11305</ele>
        <time>2022-12-10T13:02:03.195Z</time>
      </trkpt>
      <trkpt lat="48.22418" lon="-4.07574">
        <ele>110.660555</ele>
        <time>2022-12-10T13:02:06.186Z</time>
      </trkpt>
      <trkpt lat="48.22412" lon="-4.07565">
        <ele>110.318225</ele>
        <time>2022-12-10T13:02:08.188Z</time>
      </trkpt>
      <trkpt lat="48.22406" lon="-4.07555">
        <ele>109.970508</ele>
        <time>2022-12-10T13:02:10.172Z</time>
      </trkpt>
      <trkpt lat="48.22399" lon="-4.07545">
        <ele>109.607616</ele>
        <time>2022-12-10T13:02:12.176Z</time>
      </trkpt>
      <trkpt lat="48.22392" lon="-4.07535">
        <ele>109.256263</ele>
        <time>2022-12-10T13:02:14.199Z</time>
      </trkpt>
      <trkpt lat="48.22386" lon="-4.07525">
        <ele>108.904066</ele>
        <time>2022-12-10T13:02:16.198Z</time>
      </trkpt>
      <trkpt lat="48.22379" lon="-4.07515">
        <ele>108.550115</ele>
        <time>2022-12-10T13:02:18.202Z</time>
      </trkpt>
      <trkpt lat="48.22372" lon="-4.07505">
        <ele>108.173004</ele>
        <time>2022-12-10T13:02:20.194Z</time>
      </trkpt>
      <trkpt lat="48.22364" lon="-4.07494">
        <ele>107.776264</ele>
        <time>2022-12-10T13:02:22.209Z</time>
      </trkpt>
      <trkpt lat="48.22356" lon="-4.07482">
        <ele>107.349191</ele>
        <time>2022-12-10T13:02:24.209Z</time>
      </trkpt>
      <trkpt lat="48.22348" lon="-4.0747">
        <ele>106.927349</ele>
        <time>2022-12-10T13:02:26.194Z</time>
      </trkpt>
      <trkpt lat="48.2234" lon="-4.07459">
        <ele>106.505071</ele>
        <time>2022-12-10T13:02:28.189Z</time>
      </trkpt>
      <trkpt lat="48.22331" lon="-4.07449">
        <ele>106.085835</ele>
        <time>2022-12-10T13:02:30.207Z</time>
      </trkpt>
      <trkpt lat="48.22323" lon="-4.07438">
        <ele>105.687105</ele>
        <time>2022-12-10T13:02:32.180Z</time>
      </trkpt>
      <trkpt lat="48.22315" lon="-4.07428">
        <ele>105.287072</ele>
        <time>2022-12-10T13:02:34.198Z</time>
      </trkpt>
      <trkpt lat="48.22307" lon="-4.07418">
        <ele>104.896381</ele>
        <time>2022-12-10T13:02:36.187Z</time>
      </trkpt>
      <trkpt lat="48.22299" lon="-4.07408">
        <ele>104.478774</ele>
        <time>2022-12-10T13:02:38.202Z</time>
      </trkpt>
      <trkpt lat="48.2229" lon="-4.07397">
        <ele>104.029338</ele>
        <time>2022-12-10T13:02:40.183Z</time>
      </trkpt>
      <trkpt lat="48.22281" lon="-4.07386">
        <ele>103.571563</ele>
        <time>2022-12-10T13:02:42.195Z</time>
      </trkpt>
      <trkpt lat="48.22271" lon="-4.07376">
        <ele>103.108816</ele>
        <time>2022-12-10T13:02:44.198Z</time>
      </trkpt>
      <trkpt lat="48.22262" lon="-4.07365">
        <ele>102.649169</ele>
        <time>2022-12-10T13:02:46.195Z</time>
      </trkpt>
      <trkpt lat="48.22253" lon="-4.07353">
        <ele>102.181093</ele>
        <time>2022-12-10T13:02:48.196Z</time>
      </trkpt>
      <trkpt lat="48.22244" lon="-4.07342">
        <ele>101.711932</ele>
        <time>2022-12-10T13:02:50.205Z</time>
      </trkpt>
      <trkpt lat="48.22236" lon="-4.07331">
        <ele>101.270997</ele>
        <time>2022-12-10T13:02:52.176Z</time>
      </trkpt>
      <trkpt lat="48.22227" lon="-4.0732">
        <ele>100.79602</ele>
        <time>2022-12-10T13:02:54.203Z</time>
      </trkpt>
      <trkpt lat="48.22218" lon="-4.07308">
        <ele>100.331341</ele>
        <time>2022-12-10T13:02:56.202Z</time>
      </trkpt>
      <trkpt lat="48.22209" lon="-4.07297">
        <ele>99.869715</ele>
        <time>2022-12-10T13:02:58.192Z</time>
      </trkpt>
      <trkpt lat="48.222" lon="-4.07285">
        <ele>99.382342</ele>
        <time>2022-12-10T13:03:00.191Z</time>
      </trkpt>
      <trkpt lat="48.22191" lon="-4.07273">
        <ele>98.90676</ele>
        <time>2022-12-10T13:03:02.176Z</time>
      </trkpt>
      <trkpt lat="48.22181" lon="-4.07261">
        <ele>98.399005</ele>
        <time>2022-12-10T13:03:04.196Z</time>
      </trkpt>
      <trkpt lat="48.22171" lon="-4.0725">
        <ele>97.913911</ele>
        <time>2022-12-10T13:03:06.180Z</time>
      </trkpt>
      <trkpt lat="48.22162" lon="-4.07238">
        <ele>97.42854</ele>
        <time>2022-12-10T13:03:08.186Z</time>
      </trkpt>
      <trkpt lat="48.22153" lon="-4.07227">
        <ele>96.891074</ele>
        <time>2022-12-10T13:03:10.209Z</time>
      </trkpt>
      <trkpt lat="48.22145" lon="-4.07217">
        <ele>96.206467</ele>
        <time>2022-12-10T13:03:12.179Z</time>
      </trkpt>
      <trkpt lat="48.22137" lon="-4.07206">
        <ele>95.526695</ele>
        <time>2022-12-10T13:03:14.192Z</time>
      </trkpt>
      <trkpt lat="48.2213" lon="-4.07195">
        <ele>94.860109</ele>
        <time>2022-12-10T13:03:16.185Z</time>
      </trkpt>
      <trkpt lat="48.22122" lon="-4.07185">
        <ele>94.173436</ele>
        <time>2022-12-10T13:03:18.198Z</time>
      </trkpt>
      <trkpt lat="48.22113" lon="-4.07175">
        <ele>93.474688</ele>
        <time>2022-12-10T13:03:20.188Z</time>
      </trkpt>
      <trkpt lat="48.22104" lon="-4.07164">
        <ele>92.73</ele>
        <time>2022-12-10T13:03:22.195Z</time>
      </trkpt>
      <trkpt lat="48.22095" lon="-4.07154">
        <ele>91.985456</ele>
        <time>2022-12-10T13:03:24.186Z</time>
      </trkpt>
      <trkpt lat="48.22086" lon="-4.07143">
        <ele>91.243406</ele>
        <time>2022-12-10T13:03:26.185Z</time>
      </trkpt>
      <trkpt lat="48.22076" lon="-4.07133">
        <ele>90.491121</ele>
        <time>2022-12-10T13:03:28.189Z</time>
      </trkpt>
      <trkpt lat="48.22067" lon="-4.07122">
        <ele>89.733417</ele>
        <time>2022-12-10T13:03:30.204Z</time>
      </trkpt>
      <trkpt lat="48.22057" lon="-4.07113">
        <ele>88.99502</ele>
        <time>2022-12-10T13:03:32.202Z</time>
      </trkpt>
      <trkpt lat="48.22047" lon="-4.07104">
        <ele>88.22167</ele>
        <time>2022-12-10T13:03:34.198Z</time>
      </trkpt>
      <trkpt lat="48.22036" lon="-4.07096">
        <ele>87.466522</ele>
        <time>2022-12-10T13:03:36.189Z</time>
      </trkpt>
      <trkpt lat="48.22027" lon="-4.07087">
        <ele>86.733912</ele>
        <time>2022-12-10T13:03:38.196Z</time>
      </trkpt>
      <trkpt lat="48.22016" lon="-4.07079">
        <ele>85.986473</ele>
        <time>2022-12-10T13:03:40.190Z</time>
      </trkpt>
      <trkpt lat="48.22006" lon="-4.0707">
        <ele>85.303789</ele>
        <time>2022-12-10T13:03:42.205Z</time>
      </trkpt>
      <trkpt lat="48.21996" lon="-4.07061">
        <ele>84.713409</ele>
        <time>2022-12-10T13:03:44.197Z</time>
      </trkpt>
      <trkpt lat="48.21986" lon="-4.07052">
        <ele>84.135364</ele>
        <time>2022-12-10T13:03:46.206Z</time>
      </trkpt>
      <trkpt lat="48.21975" lon="-4.07044">
        <ele>83.537823</ele>
        <time>2022-12-10T13:03:48.175Z</time>
      </trkpt>
      <trkpt lat="48.21965" lon="-4.07035">
        <ele>82.942584</ele>
        <time>2022-12-10T13:03:50.197Z</time>
      </trkpt>
      <trkpt lat="48.21954" lon="-4.07026">
        <ele>82.332106</ele>
        <time>2022-12-10T13:03:52.202Z</time>
      </trkpt>
      <trkpt lat="48.21944" lon="-4.07016">
        <ele>81.72849</ele>
        <time>2022-12-10T13:03:54.191Z</time>
      </trkpt>
      <trkpt lat="48.21933" lon="-4.07007">
        <ele>81.09913</ele>
        <time>2022-12-10T13:03:56.205Z</time>
      </trkpt>
      <trkpt lat="48.21922" lon="-4.06998">
        <ele>80.478391</ele>
        <time>2022-12-10T13:03:58.211Z</time>
      </trkpt>
      <trkpt lat="48.21911" lon="-4.06988">
        <ele>79.853888</ele>
        <time>2022-12-10T13:04:00.193Z</time>
      </trkpt>
      <trkpt lat="48.219" lon="-4.0698">
        <ele>79.244451</ele>
        <time>2022-12-10T13:04:02.187Z</time>
      </trkpt>
      <trkpt lat="48.2189" lon="-4.06971">
        <ele>78.637289</ele>
        <time>2022-12-10T13:04:04.200Z</time>
      </trkpt>
      <trkpt lat="48.21879" lon="-4.06962">
        <ele>78.027432</ele>
        <time>2022-12-10T13:04:06.183Z</time>
      </trkpt>
      <trkpt lat="48.21868" lon="-4.06954">
        <ele>77.427139</ele>
        <time>2022-12-10T13:04:08.196Z</time>
      </trkpt>
      <trkpt lat="48.21858" lon="-4.06945">
        <ele>76.835725</ele>
        <time>2022-12-10T13:04:10.190Z</time>
      </trkpt>
      <trkpt lat="48.21847" lon="-4.06937">
        <ele>76.334745</ele>
        <time>2022-12-10T13:04:12.184Z</time>
      </trkpt>
      <trkpt lat="48.21836" lon="-4.06929">
        <ele>75.927476</ele>
        <time>2022-12-10T13:04:14.205Z</time>
      </trkpt>
      <trkpt lat="48.21825" lon="-4.06922">
        <ele>75.512628</ele>
        <time>2022-12-10T13:04:16.198Z</time>
      </trkpt>
      <trkpt lat="48.21814" lon="-4.06915">
        <ele>75.127761</ele>
        <time>2022-12-10T13:04:18.200Z</time>
      </trkpt>
      <trkpt lat="48.21804" lon="-4.06909">
        <ele>74.747384</ele>
        <time>2022-12-10T13:04:20.197Z</time>
      </trkpt>
      <trkpt lat="48.21793" lon="-4.06903">
        <ele>74.336072</ele>
        <time>2022-12-10T13:04:22.201Z</time>
      </trkpt>
      <trkpt lat="48.21782" lon="-4.06897">
        <ele>73.93503</ele>
        <time>2022-12-10T13:04:24.197Z</time>
      </trkpt>
      <trkpt lat="48.21771" lon="-4.06891">
        <ele>73.531693</ele>
        <time>2022-12-10T13:04:26.202Z</time>
      </trkpt>
      <trkpt lat="48.2176" lon="-4.06885">
        <ele>73.140741</ele>
        <time>2022-12-10T13:04:28.184Z</time>
      </trkpt>
      <trkpt lat="48.21748" lon="-4.06879">
        <ele>72.729429</ele>
        <time>2022-12-10T13:04:30.182Z</time>
      </trkpt>
      <trkpt lat="48.21737" lon="-4.06873">
        <ele>72.334824</ele>
        <time>2022-12-10T13:04:32.177Z</time>
      </trkpt>
      <trkpt lat="48.21726" lon="-4.06868">
        <ele>71.924101</ele>
        <time>2022-12-10T13:04:34.195Z</time>
      </trkpt>
      <trkpt lat="48.21715" lon="-4.06861">
        <ele>71.523966</ele>
        <time>2022-12-10T13:04:36.177Z</time>
      </trkpt>
      <trkpt lat="48.21705" lon="-4.06856">
        <ele>71.141407</ele>
        <time>2022-12-10T13:04:38.185Z</time>
      </trkpt>
      <trkpt lat="48.21695" lon="-4.06851">
        <ele>70.810751</ele>
        <time>2022-12-10T13:04:40.196Z</time>
      </trkpt>
      <trkpt lat="48.21683" lon="-4.06844">
        <ele>70.402715</ele>
        <time>2022-12-10T13:04:43.202Z</time>
      </trkpt>
      <trkpt lat="48.21672" lon="-4.06841">
        <ele>70.149791</ele>
        <time>2022-12-10T13:04:46.194Z</time>
      </trkpt>
      <trkpt lat="48.21662" lon="-4.06838">
        <ele>69.927753</ele>
        <time>2022-12-10T13:04:49.183Z</time>
      </trkpt>
      <trkpt lat="48.21652" lon="-4.06843">
        <ele>69.686783</ele>
        <time>2022-12-10T13:04:54.177Z</time>
      </trkpt>
      <trkpt lat="48.2165" lon="-4.06844">
        <ele>69.634717</ele>
        <time>2022-12-10T13:05:03.934Z</time>
      </trkpt>
      <trkpt lat="48.21637" lon="-4.06853">
        <ele>69.308638</ele>
        <time>2022-12-10T13:07:28.183Z</time>
      </trkpt>
      <trkpt lat="48.2163" lon="-4.06866">
        <ele>69.070329</ele>
        <time>2022-12-10T13:07:31.184Z</time>
      </trkpt>
      <trkpt lat="48.21625" lon="-4.06882">
        <ele>68.811835</ele>
        <time>2022-12-10T13:07:34.184Z</time>
      </trkpt>
      <trkpt lat="48.21621" lon="-4.069">
        <ele>68.5285</ele>
        <time>2022-12-10T13:07:37.194Z</time>
      </trkpt>
      <trkpt lat="48.21618" lon="-4.06914">
        <ele>68.321547</ele>
        <time>2022-12-10T13:07:39.176Z</time>
      </trkpt>
      <trkpt lat="48.21616" lon="-4.06928">
        <ele>68.104588</ele>
        <time>2022-12-10T13:07:41.175Z</time>
      </trkpt>
      <trkpt lat="48.21613" lon="-4.06942">
        <ele>67.885786</ele>
        <time>2022-12-10T13:07:43.195Z</time>
      </trkpt>
      <trkpt lat="48.2161" lon="-4.06956">
        <ele>67.672357</ele>
        <time>2022-12-10T13:07:45.206Z</time>
      </trkpt>
      <trkpt lat="48.21607" lon="-4.06969">
        <ele>67.460515</ele>
        <time>2022-12-10T13:07:47.199Z</time>
      </trkpt>
      <trkpt lat="48.21604" lon="-4.06989">
        <ele>67.162809</ele>
        <time>2022-12-10T13:07:50.187Z</time>
      </trkpt>
      <trkpt lat="48.216" lon="-4.07008">
        <ele>66.859851</ele>
        <time>2022-12-10T13:07:53.194Z</time>
      </trkpt>
      <trkpt lat="48.21596" lon="-4.07022">
        <ele>66.638924</ele>
        <time>2022-12-10T13:07:55.180Z</time>
      </trkpt>
      <trkpt lat="48.21594" lon="-4.07037">
        <ele>66.315534</ele>
        <time>2022-12-10T13:07:57.191Z</time>
      </trkpt>
      <trkpt lat="48.21591" lon="-4.07051">
        <ele>65.69671</ele>
        <time>2022-12-10T13:07:59.194Z</time>
      </trkpt>
      <trkpt lat="48.21588" lon="-4.07065">
        <ele>65.061453</ele>
        <time>2022-12-10T13:08:01.188Z</time>
      </trkpt>
      <trkpt lat="48.21585" lon="-4.07079">
        <ele>64.444731</ele>
        <time>2022-12-10T13:08:03.197Z</time>
      </trkpt>
      <trkpt lat="48.21581" lon="-4.07097">
        <ele>63.629901</ele>
        <time>2022-12-10T13:08:06.187Z</time>
      </trkpt>
      <trkpt lat="48.21577" lon="-4.07115">
        <ele>62.827197</ele>
        <time>2022-12-10T13:08:09.179Z</time>
      </trkpt>
      <trkpt lat="48.21573" lon="-4.07132">
        <ele>62.03689</ele>
        <time>2022-12-10T13:08:12.193Z</time>
      </trkpt>
      <trkpt lat="48.21569" lon="-4.07151">
        <ele>61.178771</ele>
        <time>2022-12-10T13:08:15.184Z</time>
      </trkpt>
      <trkpt lat="48.21567" lon="-4.07164">
        <ele>60.58974</ele>
        <time>2022-12-10T13:08:17.182Z</time>
      </trkpt>
      <trkpt lat="48.21563" lon="-4.07183">
        <ele>59.749968</ele>
        <time>2022-12-10T13:08:20.201Z</time>
      </trkpt>
      <trkpt lat="48.2156" lon="-4.072">
        <ele>58.977616</ele>
        <time>2022-12-10T13:08:23.198Z</time>
      </trkpt>
      <trkpt lat="48.21556" lon="-4.07219">
        <ele>58.137843</ele>
        <time>2022-12-10T13:08:26.197Z</time>
      </trkpt>
      <trkpt lat="48.21554" lon="-4.07233">
        <ele>57.524605</ele>
        <time>2022-12-10T13:08:28.196Z</time>
      </trkpt>
      <trkpt lat="48.2155" lon="-4.07252">
        <ele>56.655211</ele>
        <time>2022-12-10T13:08:31.178Z</time>
      </trkpt>
      <trkpt lat="48.21547" lon="-4.07265">
        <ele>56.060804</ele>
        <time>2022-12-10T13:08:33.194Z</time>
      </trkpt>
      <trkpt lat="48.21544" lon="-4.0728">
        <ele>55.378665</ele>
        <time>2022-12-10T13:08:35.193Z</time>
      </trkpt>
      <trkpt lat="48.21541" lon="-4.07295">
        <ele>54.82537</ele>
        <time>2022-12-10T13:08:37.193Z</time>
      </trkpt>
      <trkpt lat="48.21538" lon="-4.0731">
        <ele>54.766742</ele>
        <time>2022-12-10T13:08:39.180Z</time>
      </trkpt>
      <trkpt lat="48.21535" lon="-4.07324">
        <ele>54.709212</ele>
        <time>2022-12-10T13:08:41.185Z</time>
      </trkpt>
      <trkpt lat="48.21531" lon="-4.07337">
        <ele>54.654367</ele>
        <time>2022-12-10T13:08:43.178Z</time>
      </trkpt>
      <trkpt lat="48.21525" lon="-4.07347">
        <ele>54.601579</ele>
        <time>2022-12-10T13:08:45.187Z</time>
      </trkpt>
      <trkpt lat="48.21516" lon="-4.07353">
        <ele>54.548004</ele>
        <time>2022-12-10T13:08:47.183Z</time>
      </trkpt>
      <trkpt lat="48.21507" lon="-4.07355">
        <ele>54.496059</ele>
        <time>2022-12-10T13:08:49.179Z</time>
      </trkpt>
      <trkpt lat="48.21494" lon="-4.07355">
        <ele>54.420006</ele>
        <time>2022-12-10T13:08:52.184Z</time>
      </trkpt>
      <trkpt lat="48.21484" lon="-4.07354">
        <ele>54.364699</ele>
        <time>2022-12-10T13:08:54.193Z</time>
      </trkpt>
      <trkpt lat="48.21471" lon="-4.07354">
        <ele>54.285801</ele>
        <time>2022-12-10T13:08:57.193Z</time>
      </trkpt>
      <trkpt lat="48.21462" lon="-4.07355">
        <ele>54.232751</ele>
        <time>2022-12-10T13:08:59.191Z</time>
      </trkpt>
      <trkpt lat="48.21452" lon="-4.07356">
        <ele>54.176758</ele>
        <time>2022-12-10T13:09:01.190Z</time>
      </trkpt>
      <trkpt lat="48.21442" lon="-4.07357">
        <ele>54.117866</ele>
        <time>2022-12-10T13:09:03.186Z</time>
      </trkpt>
      <trkpt lat="48.21432" lon="-4.07357">
        <ele>54.060852</ele>
        <time>2022-12-10T13:09:05.202Z</time>
      </trkpt>
      <trkpt lat="48.21422" lon="-4.07358">
        <ele>54.005519</ele>
        <time>2022-12-10T13:09:07.194Z</time>
      </trkpt>
      <trkpt lat="48.21412" lon="-4.07359">
        <ele>53.945959</ele>
        <time>2022-12-10T13:09:09.190Z</time>
      </trkpt>
      <trkpt lat="48.21402" lon="-4.0736">
        <ele>53.889438</ele>
        <time>2022-12-10T13:09:11.204Z</time>
      </trkpt>
      <trkpt lat="48.21392" lon="-4.07361">
        <ele>53.831562</ele>
        <time>2022-12-10T13:09:13.203Z</time>
      </trkpt>
      <trkpt lat="48.21382" lon="-4.07363">
        <ele>53.907414</ele>
        <time>2022-12-10T13:09:15.203Z</time>
      </trkpt>
      <trkpt lat="48.21373" lon="-4.07365">
        <ele>54.133031</ele>
        <time>2022-12-10T13:09:17.202Z</time>
      </trkpt>
      <trkpt lat="48.21363" lon="-4.07366">
        <ele>54.360506</ele>
        <time>2022-12-10T13:09:19.186Z</time>
      </trkpt>
      <trkpt lat="48.21354" lon="-4.07368">
        <ele>54.574903</ele>
        <time>2022-12-10T13:09:21.179Z</time>
      </trkpt>
      <trkpt lat="48.21344" lon="-4.0737">
        <ele>54.803606</ele>
        <time>2022-12-10T13:09:23.195Z</time>
      </trkpt>
      <trkpt lat="48.21335" lon="-4.07373">
        <ele>55.0291</ele>
        <time>2022-12-10T13:09:25.194Z</time>
      </trkpt>
      <trkpt lat="48.21325" lon="-4.07378">
        <ele>55.261794</ele>
        <time>2022-12-10T13:09:27.179Z</time>
      </trkpt>
      <trkpt lat="48.21316" lon="-4.07383">
        <ele>55.490347</ele>
        <time>2022-12-10T13:09:29.202Z</time>
      </trkpt>
      <trkpt lat="48.21307" lon="-4.07389">
        <ele>55.728684</ele>
        <time>2022-12-10T13:09:31.189Z</time>
      </trkpt>
      <trkpt lat="48.21298" lon="-4.07395">
        <ele>55.957471</ele>
        <time>2022-12-10T13:09:33.198Z</time>
      </trkpt>
      <trkpt lat="48.21289" lon="-4.074">
        <ele>56.171879</ele>
        <time>2022-12-10T13:09:35.179Z</time>
      </trkpt>
      <trkpt lat="48.2128" lon="-4.07405">
        <ele>56.398282</ele>
        <time>2022-12-10T13:09:37.200Z</time>
      </trkpt>
      <trkpt lat="48.21272" lon="-4.07411">
        <ele>56.621285</ele>
        <time>2022-12-10T13:09:39.193Z</time>
      </trkpt>
      <trkpt lat="48.21263" lon="-4.07418">
        <ele>56.842039</ele>
        <time>2022-12-10T13:09:41.195Z</time>
      </trkpt>
      <trkpt lat="48.21254" lon="-4.07424">
        <ele>57.067005</ele>
        <time>2022-12-10T13:09:43.192Z</time>
      </trkpt>
      <trkpt lat="48.21246" lon="-4.0743">
        <ele>57.293426</ele>
        <time>2022-12-10T13:09:45.202Z</time>
      </trkpt>
      <trkpt lat="48.21237" lon="-4.07435">
        <ele>57.517083</ele>
        <time>2022-12-10T13:09:47.203Z</time>
      </trkpt>
      <trkpt lat="48.21228" lon="-4.07441">
        <ele>57.734549</ele>
        <time>2022-12-10T13:09:49.178Z</time>
      </trkpt>
      <trkpt lat="48.21219" lon="-4.07446">
        <ele>57.956037</ele>
        <time>2022-12-10T13:09:51.195Z</time>
      </trkpt>
      <trkpt lat="48.2121" lon="-4.07452">
        <ele>58.001457</ele>
        <time>2022-12-10T13:09:53.205Z</time>
      </trkpt>
      <trkpt lat="48.21202" lon="-4.07458">
        <ele>58.000506</ele>
        <time>2022-12-10T13:09:55.203Z</time>
      </trkpt>
      <trkpt lat="48.21193" lon="-4.07464">
        <ele>57.999497</ele>
        <time>2022-12-10T13:09:57.199Z</time>
      </trkpt>
      <trkpt lat="48.21184" lon="-4.07469">
        <ele>57.998554</ele>
        <time>2022-12-10T13:09:59.201Z</time>
      </trkpt>
      <trkpt lat="48.21175" lon="-4.07475">
        <ele>57.997599</ele>
        <time>2022-12-10T13:10:01.198Z</time>
      </trkpt>
      <trkpt lat="48.21166" lon="-4.0748">
        <ele>57.996643</ele>
        <time>2022-12-10T13:10:03.207Z</time>
      </trkpt>
      <trkpt lat="48.21158" lon="-4.07486">
        <ele>57.995694</ele>
        <time>2022-12-10T13:10:05.195Z</time>
      </trkpt>
      <trkpt lat="48.21149" lon="-4.07491">
        <ele>57.994756</ele>
        <time>2022-12-10T13:10:07.204Z</time>
      </trkpt>
      <trkpt lat="48.21141" lon="-4.07496">
        <ele>57.993847</ele>
        <time>2022-12-10T13:10:09.197Z</time>
      </trkpt>
      <trkpt lat="48.21132" lon="-4.07502">
        <ele>57.992868</ele>
        <time>2022-12-10T13:10:11.199Z</time>
      </trkpt>
      <trkpt lat="48.21123" lon="-4.07507">
        <ele>57.991909</ele>
        <time>2022-12-10T13:10:13.183Z</time>
      </trkpt>
      <trkpt lat="48.21114" lon="-4.07513">
        <ele>57.990919</ele>
        <time>2022-12-10T13:10:15.176Z</time>
      </trkpt>
      <trkpt lat="48.21105" lon="-4.07519">
        <ele>57.989906</ele>
        <time>2022-12-10T13:10:17.174Z</time>
      </trkpt>
      <trkpt lat="48.21096" lon="-4.07524">
        <ele>57.9889</ele>
        <time>2022-12-10T13:10:19.180Z</time>
      </trkpt>
      <trkpt lat="48.21087" lon="-4.0753">
        <ele>57.987951</ele>
        <time>2022-12-10T13:10:21.177Z</time>
      </trkpt>
      <trkpt lat="48.21079" lon="-4.07536">
        <ele>57.987028</ele>
        <time>2022-12-10T13:10:23.193Z</time>
      </trkpt>
      <trkpt lat="48.2107" lon="-4.07542">
        <ele>57.986079</ele>
        <time>2022-12-10T13:10:25.184Z</time>
      </trkpt>
      <trkpt lat="48.21058" lon="-4.0755">
        <ele>57.984722</ele>
        <time>2022-12-10T13:10:28.186Z</time>
      </trkpt>
      <trkpt lat="48.21049" lon="-4.07556">
        <ele>57.938452</ele>
        <time>2022-12-10T13:10:30.189Z</time>
      </trkpt>
      <trkpt lat="48.21041" lon="-4.07561">
        <ele>57.813671</ele>
        <time>2022-12-10T13:10:32.196Z</time>
      </trkpt>
      <trkpt lat="48.21028" lon="-4.07569">
        <ele>57.627415</ele>
        <time>2022-12-10T13:10:35.182Z</time>
      </trkpt>
      <trkpt lat="48.21016" lon="-4.07577">
        <ele>57.440076</ele>
        <time>2022-12-10T13:10:38.185Z</time>
      </trkpt>
      <trkpt lat="48.21007" lon="-4.07582">
        <ele>57.313091</ele>
        <time>2022-12-10T13:10:40.177Z</time>
      </trkpt>
      <trkpt lat="48.20999" lon="-4.07587">
        <ele>57.185422</ele>
        <time>2022-12-10T13:10:42.183Z</time>
      </trkpt>
      <trkpt lat="48.2099" lon="-4.07593">
        <ele>57.055208</ele>
        <time>2022-12-10T13:10:44.186Z</time>
      </trkpt>
      <trkpt lat="48.20981" lon="-4.07598">
        <ele>56.921761</ele>
        <time>2022-12-10T13:10:46.175Z</time>
      </trkpt>
      <trkpt lat="48.20972" lon="-4.07604">
        <ele>56.79014</ele>
        <time>2022-12-10T13:10:48.177Z</time>
      </trkpt>
      <trkpt lat="48.20963" lon="-4.07609">
        <ele>56.65865</ele>
        <time>2022-12-10T13:10:50.182Z</time>
      </trkpt>
      <trkpt lat="48.20955" lon="-4.07614">
        <ele>56.534556</ele>
        <time>2022-12-10T13:10:52.182Z</time>
      </trkpt>
      <trkpt lat="48.20946" lon="-4.0762">
        <ele>56.406536</ele>
        <time>2022-12-10T13:10:54.180Z</time>
      </trkpt>
      <trkpt lat="48.20938" lon="-4.07625">
        <ele>56.278866</ele>
        <time>2022-12-10T13:10:56.173Z</time>
      </trkpt>
      <trkpt lat="48.20929" lon="-4.0763">
        <ele>56.151752</ele>
        <time>2022-12-10T13:10:58.178Z</time>
      </trkpt>
      <trkpt lat="48.20921" lon="-4.07637">
        <ele>56.024023</ele>
        <time>2022-12-10T13:11:00.176Z</time>
      </trkpt>
      <trkpt lat="48.20912" lon="-4.07643">
        <ele>55.894546</ele>
        <time>2022-12-10T13:11:02.203Z</time>
      </trkpt>
      <trkpt lat="48.20903" lon="-4.07648">
        <ele>55.762924</ele>
        <time>2022-12-10T13:11:04.177Z</time>
      </trkpt>
      <trkpt lat="48.20895" lon="-4.07654">
        <ele>55.636701</ele>
        <time>2022-12-10T13:11:06.182Z</time>
      </trkpt>
      <trkpt lat="48.20886" lon="-4.07659">
        <ele>55.51436</ele>
        <time>2022-12-10T13:11:08.186Z</time>
      </trkpt>
      <trkpt lat="48.20877" lon="-4.07665">
        <ele>55.517545</ele>
        <time>2022-12-10T13:11:10.173Z</time>
      </trkpt>
      <trkpt lat="48.20869" lon="-4.0767">
        <ele>55.520668</ele>
        <time>2022-12-10T13:11:12.187Z</time>
      </trkpt>
      <trkpt lat="48.20861" lon="-4.07676">
        <ele>55.523843</ele>
        <time>2022-12-10T13:11:14.177Z</time>
      </trkpt>
      <trkpt lat="48.20852" lon="-4.07682">
        <ele>55.527022</ele>
        <time>2022-12-10T13:11:16.175Z</time>
      </trkpt>
      <trkpt lat="48.20843" lon="-4.07687">
        <ele>55.530215</ele>
        <time>2022-12-10T13:11:18.178Z</time>
      </trkpt>
      <trkpt lat="48.20835" lon="-4.07693">
        <ele>55.533381</ele>
        <time>2022-12-10T13:11:20.184Z</time>
      </trkpt>
      <trkpt lat="48.20826" lon="-4.07699">
        <ele>55.536554</ele>
        <time>2022-12-10T13:11:22.171Z</time>
      </trkpt>
      <trkpt lat="48.20818" lon="-4.07705">
        <ele>55.539728</ele>
        <time>2022-12-10T13:11:24.181Z</time>
      </trkpt>
      <trkpt lat="48.2081" lon="-4.07711">
        <ele>55.542841</ele>
        <time>2022-12-10T13:11:26.386Z</time>
      </trkpt>
      <trkpt lat="48.20801" lon="-4.07717">
        <ele>55.546035</ele>
        <time>2022-12-10T13:11:28.186Z</time>
      </trkpt>
      <trkpt lat="48.20793" lon="-4.07725">
        <ele>55.549395</ele>
        <time>2022-12-10T13:11:30.173Z</time>
      </trkpt>
      <trkpt lat="48.20784" lon="-4.07731">
        <ele>55.55262</ele>
        <time>2022-12-10T13:11:32.176Z</time>
      </trkpt>
      <trkpt lat="48.20776" lon="-4.07738">
        <ele>55.555793</ele>
        <time>2022-12-10T13:11:34.182Z</time>
      </trkpt>
      <trkpt lat="48.20765" lon="-4.07747">
        <ele>55.560179</ele>
        <time>2022-12-10T13:11:37.183Z</time>
      </trkpt>
      <trkpt lat="48.20757" lon="-4.07754">
        <ele>55.563265</ele>
        <time>2022-12-10T13:11:39.177Z</time>
      </trkpt>
      <trkpt lat="48.20745" lon="-4.07764">
        <ele>55.567792</ele>
        <time>2022-12-10T13:11:42.177Z</time>
      </trkpt>
      <trkpt lat="48.20734" lon="-4.07774">
        <ele>55.572213</ele>
        <time>2022-12-10T13:11:45.183Z</time>
      </trkpt>
      <trkpt lat="48.20723" lon="-4.07786">
        <ele>55.597314</ele>
        <time>2022-12-10T13:11:48.196Z</time>
      </trkpt>
      <trkpt lat="48.20715" lon="-4.07794">
        <ele>55.642948</ele>
        <time>2022-12-10T13:11:50.200Z</time>
      </trkpt>
      <trkpt lat="48.20707" lon="-4.07802">
        <ele>55.687766</ele>
        <time>2022-12-10T13:11:52.198Z</time>
      </trkpt>
      <trkpt lat="48.207" lon="-4.0781">
        <ele>55.731532</ele>
        <time>2022-12-10T13:11:54.190Z</time>
      </trkpt>
      <trkpt lat="48.20692" lon="-4.07818">
        <ele>55.774121</ele>
        <time>2022-12-10T13:11:56.197Z</time>
      </trkpt>
      <trkpt lat="48.20685" lon="-4.07826">
        <ele>55.816848</ele>
        <time>2022-12-10T13:11:58.188Z</time>
      </trkpt>
      <trkpt lat="48.20678" lon="-4.07835">
        <ele>55.859622</ele>
        <time>2022-12-10T13:12:00.175Z</time>
      </trkpt>
      <trkpt lat="48.20671" lon="-4.07844">
        <ele>55.9025</ele>
        <time>2022-12-10T13:12:02.183Z</time>
      </trkpt>
      <trkpt lat="48.20664" lon="-4.07854">
        <ele>55.949507</ele>
        <time>2022-12-10T13:12:04.195Z</time>
      </trkpt>
      <trkpt lat="48.20656" lon="-4.07863">
        <ele>55.993449</ele>
        <time>2022-12-10T13:12:06.194Z</time>
      </trkpt>
      <trkpt lat="48.20649" lon="-4.07872">
        <ele>56.037595</ele>
        <time>2022-12-10T13:12:08.195Z</time>
      </trkpt>
      <trkpt lat="48.20642" lon="-4.07881">
        <ele>56.08266</ele>
        <time>2022-12-10T13:12:10.198Z</time>
      </trkpt>
      <trkpt lat="48.20635" lon="-4.0789">
        <ele>56.127657</ele>
        <time>2022-12-10T13:12:12.175Z</time>
      </trkpt>
      <trkpt lat="48.20628" lon="-4.079">
        <ele>56.17271</ele>
        <time>2022-12-10T13:12:14.192Z</time>
      </trkpt>
      <trkpt lat="48.2062" lon="-4.0791">
        <ele>56.218456</ele>
        <time>2022-12-10T13:12:16.192Z</time>
      </trkpt>
      <trkpt lat="48.20614" lon="-4.0792">
        <ele>56.262373</ele>
        <time>2022-12-10T13:12:18.194Z</time>
      </trkpt>
      <trkpt lat="48.20607" lon="-4.0793">
        <ele>56.308743</ele>
        <time>2022-12-10T13:12:20.201Z</time>
      </trkpt>
      <trkpt lat="48.206" lon="-4.0794">
        <ele>56.355259</ele>
        <time>2022-12-10T13:12:22.198Z</time>
      </trkpt>
      <trkpt lat="48.20593" lon="-4.0795">
        <ele>56.400526</ele>
        <time>2022-12-10T13:12:24.206Z</time>
      </trkpt>
      <trkpt lat="48.20585" lon="-4.0796">
        <ele>56.379542</ele>
        <time>2022-12-10T13:12:26.202Z</time>
      </trkpt>
      <trkpt lat="48.20578" lon="-4.0797">
        <ele>56.3039</ele>
        <time>2022-12-10T13:12:28.202Z</time>
      </trkpt>
      <trkpt lat="48.20571" lon="-4.0798">
        <ele>56.225997</ele>
        <time>2022-12-10T13:12:30.206Z</time>
      </trkpt>
      <trkpt lat="48.20564" lon="-4.07989">
        <ele>56.150198</ele>
        <time>2022-12-10T13:12:32.192Z</time>
      </trkpt>
      <trkpt lat="48.20557" lon="-4.08">
        <ele>56.070071</ele>
        <time>2022-12-10T13:12:34.175Z</time>
      </trkpt>
      <trkpt lat="48.2055" lon="-4.0801">
        <ele>55.992766</ele>
        <time>2022-12-10T13:12:36.192Z</time>
      </trkpt>
      <trkpt lat="48.20543" lon="-4.08019">
        <ele>55.917717</ele>
        <time>2022-12-10T13:12:38.174Z</time>
      </trkpt>
      <trkpt lat="48.20536" lon="-4.08027">
        <ele>55.845404</ele>
        <time>2022-12-10T13:12:40.172Z</time>
      </trkpt>
      <trkpt lat="48.20527" lon="-4.0804">
        <ele>55.742458</ele>
        <time>2022-12-10T13:12:43.190Z</time>
      </trkpt>
      <trkpt lat="48.20517" lon="-4.08054">
        <ele>55.635887</ele>
        <time>2022-12-10T13:12:46.195Z</time>
      </trkpt>
      <trkpt lat="48.20507" lon="-4.08068">
        <ele>55.526835</ele>
        <time>2022-12-10T13:12:49.191Z</time>
      </trkpt>
      <trkpt lat="48.20498" lon="-4.08082">
        <ele>55.422185</ele>
        <time>2022-12-10T13:12:52.194Z</time>
      </trkpt>
      <trkpt lat="48.20488" lon="-4.08095">
        <ele>55.31824</ele>
        <time>2022-12-10T13:12:55.177Z</time>
      </trkpt>
      <trkpt lat="48.20479" lon="-4.08109">
        <ele>55.214169</ele>
        <time>2022-12-10T13:12:58.199Z</time>
      </trkpt>
      <trkpt lat="48.2047" lon="-4.08123">
        <ele>55.112721</ele>
        <time>2022-12-10T13:13:01.174Z</time>
      </trkpt>
      <trkpt lat="48.20461" lon="-4.08136">
        <ele>55.010307</ele>
        <time>2022-12-10T13:13:04.194Z</time>
      </trkpt>
      <trkpt lat="48.20452" lon="-4.08149">
        <ele>54.878292</ele>
        <time>2022-12-10T13:13:07.194Z</time>
      </trkpt>
      <trkpt lat="48.20442" lon="-4.08163">
        <ele>54.72986</ele>
        <time>2022-12-10T13:13:10.192Z</time>
      </trkpt>
      <trkpt lat="48.20433" lon="-4.08177">
        <ele>54.580889</ele>
        <time>2022-12-10T13:13:13.177Z</time>
      </trkpt>
      <trkpt lat="48.20423" lon="-4.08191">
        <ele>54.436094</ele>
        <time>2022-12-10T13:13:16.205Z</time>
      </trkpt>
      <trkpt lat="48.20413" lon="-4.08205">
        <ele>54.288363</ele>
        <time>2022-12-10T13:13:19.192Z</time>
      </trkpt>
      <trkpt lat="48.20404" lon="-4.08219">
        <ele>54.136761</ele>
        <time>2022-12-10T13:13:22.176Z</time>
      </trkpt>
      <trkpt lat="48.20397" lon="-4.08228">
        <ele>54.036349</ele>
        <time>2022-12-10T13:13:24.192Z</time>
      </trkpt>
      <trkpt lat="48.2039" lon="-4.08236">
        <ele>53.933942</ele>
        <time>2022-12-10T13:13:26.193Z</time>
      </trkpt>
      <trkpt lat="48.20379" lon="-4.08249">
        <ele>53.785249</ele>
        <time>2022-12-10T13:13:29.196Z</time>
      </trkpt>
      <trkpt lat="48.20369" lon="-4.0826">
        <ele>53.641891</ele>
        <time>2022-12-10T13:13:32.199Z</time>
      </trkpt>
      <trkpt lat="48.20361" lon="-4.08267">
        <ele>53.541595</ele>
        <time>2022-12-10T13:13:34.179Z</time>
      </trkpt>
      <trkpt lat="48.20353" lon="-4.08275">
        <ele>53.439034</ele>
        <time>2022-12-10T13:13:36.195Z</time>
      </trkpt>
      <trkpt lat="48.20346" lon="-4.08283">
        <ele>53.336635</ele>
        <time>2022-12-10T13:13:38.194Z</time>
      </trkpt>
      <trkpt lat="48.20338" lon="-4.0829">
        <ele>53.235114</ele>
        <time>2022-12-10T13:13:40.195Z</time>
      </trkpt>
      <trkpt lat="48.20327" lon="-4.08299">
        <ele>53.089108</ele>
        <time>2022-12-10T13:13:43.202Z</time>
      </trkpt>
      <trkpt lat="48.20315" lon="-4.08308">
        <ele>52.967245</ele>
        <time>2022-12-10T13:13:46.193Z</time>
      </trkpt>
      <trkpt lat="48.20304" lon="-4.08316">
        <ele>52.911372</ele>
        <time>2022-12-10T13:13:49.191Z</time>
      </trkpt>
      <trkpt lat="48.20294" lon="-4.08323">
        <ele>52.861046</ele>
        <time>2022-12-10T13:13:52.188Z</time>
      </trkpt>
      <trkpt lat="48.20284" lon="-4.08331">
        <ele>52.809484</ele>
        <time>2022-12-10T13:13:55.202Z</time>
      </trkpt>
      <trkpt lat="48.20273" lon="-4.08339">
        <ele>52.754948</ele>
        <time>2022-12-10T13:13:58.202Z</time>
      </trkpt>
      <trkpt lat="48.20262" lon="-4.08346">
        <ele>52.70149</ele>
        <time>2022-12-10T13:14:01.175Z</time>
      </trkpt>
      <trkpt lat="48.20251" lon="-4.08354">
        <ele>52.646287</ele>
        <time>2022-12-10T13:14:04.191Z</time>
      </trkpt>
      <trkpt lat="48.20241" lon="-4.08362">
        <ele>52.591772</ele>
        <time>2022-12-10T13:14:07.202Z</time>
      </trkpt>
      <trkpt lat="48.20229" lon="-4.0837">
        <ele>52.535359</ele>
        <time>2022-12-10T13:14:10.207Z</time>
      </trkpt>
      <trkpt lat="48.20218" lon="-4.08378">
        <ele>52.478406</ele>
        <time>2022-12-10T13:14:13.201Z</time>
      </trkpt>
      <trkpt lat="48.20207" lon="-4.08386">
        <ele>52.423458</ele>
        <time>2022-12-10T13:14:16.195Z</time>
      </trkpt>
      <trkpt lat="48.20196" lon="-4.08394">
        <ele>52.368134</ele>
        <time>2022-12-10T13:14:19.195Z</time>
      </trkpt>
      <trkpt lat="48.20185" lon="-4.08402">
        <ele>52.311727</ele>
        <time>2022-12-10T13:14:22.194Z</time>
      </trkpt>
      <trkpt lat="48.20174" lon="-4.0841">
        <ele>52.257211</ele>
        <time>2022-12-10T13:14:25.206Z</time>
      </trkpt>
      <trkpt lat="48.20164" lon="-4.08419">
        <ele>52.201735</ele>
        <time>2022-12-10T13:14:28.200Z</time>
      </trkpt>
      <trkpt lat="48.20152" lon="-4.08428">
        <ele>52.184572</ele>
        <time>2022-12-10T13:14:31.202Z</time>
      </trkpt>
      <trkpt lat="48.20141" lon="-4.08436">
        <ele>52.238841</ele>
        <time>2022-12-10T13:14:34.203Z</time>
      </trkpt>
      <trkpt lat="48.2013" lon="-4.08444">
        <ele>52.292737</ele>
        <time>2022-12-10T13:14:37.194Z</time>
      </trkpt>
      <trkpt lat="48.20119" lon="-4.08453">
        <ele>52.348331</ele>
        <time>2022-12-10T13:14:40.193Z</time>
      </trkpt>
      <trkpt lat="48.20107" lon="-4.08461">
        <ele>52.402864</ele>
        <time>2022-12-10T13:14:43.198Z</time>
      </trkpt>
      <trkpt lat="48.20099" lon="-4.08467">
        <ele>52.441702</ele>
        <time>2022-12-10T13:14:45.196Z</time>
      </trkpt>
      <trkpt lat="48.20091" lon="-4.08473">
        <ele>52.481182</ele>
        <time>2022-12-10T13:14:47.207Z</time>
      </trkpt>
      <trkpt lat="48.20083" lon="-4.08481">
        <ele>52.521275</ele>
        <time>2022-12-10T13:14:49.193Z</time>
      </trkpt>
      <trkpt lat="48.20071" lon="-4.0849">
        <ele>52.580071</ele>
        <time>2022-12-10T13:14:52.181Z</time>
      </trkpt>
      <trkpt lat="48.20062" lon="-4.08497">
        <ele>52.620579</ele>
        <time>2022-12-10T13:14:54.208Z</time>
      </trkpt>
      <trkpt lat="48.20055" lon="-4.08505">
        <ele>52.66164</ele>
        <time>2022-12-10T13:14:56.175Z</time>
      </trkpt>
      <trkpt lat="48.20047" lon="-4.08512">
        <ele>52.700552</ele>
        <time>2022-12-10T13:14:58.191Z</time>
      </trkpt>
      <trkpt lat="48.20039" lon="-4.08519">
        <ele>52.74257</ele>
        <time>2022-12-10T13:15:00.206Z</time>
      </trkpt>
      <trkpt lat="48.20027" lon="-4.08528">
        <ele>52.800824</ele>
        <time>2022-12-10T13:15:03.199Z</time>
      </trkpt>
      <trkpt lat="48.20018" lon="-4.08533">
        <ele>52.840312</ele>
        <time>2022-12-10T13:15:05.178Z</time>
      </trkpt>
      <trkpt lat="48.20007" lon="-4.08543">
        <ele>52.896393</ele>
        <time>2022-12-10T13:15:08.191Z</time>
      </trkpt>
      <trkpt lat="48.19996" lon="-4.0855">
        <ele>52.943422</ele>
        <time>2022-12-10T13:15:11.196Z</time>
      </trkpt>
      <trkpt lat="48.19986" lon="-4.08558">
        <ele>52.964369</ele>
        <time>2022-12-10T13:15:14.193Z</time>
      </trkpt>
      <trkpt lat="48.19975" lon="-4.08565">
        <ele>52.98613</ele>
        <time>2022-12-10T13:15:17.211Z</time>
      </trkpt>
      <trkpt lat="48.19964" lon="-4.08574">
        <ele>53.007842</ele>
        <time>2022-12-10T13:15:20.199Z</time>
      </trkpt>
      <trkpt lat="48.19953" lon="-4.08581">
        <ele>53.028751</ele>
        <time>2022-12-10T13:15:23.198Z</time>
      </trkpt>
      <trkpt lat="48.19943" lon="-4.08588">
        <ele>53.049617</ele>
        <time>2022-12-10T13:15:26.202Z</time>
      </trkpt>
      <trkpt lat="48.19931" lon="-4.08593">
        <ele>53.070891</ele>
        <time>2022-12-10T13:15:29.180Z</time>
      </trkpt>
      <trkpt lat="48.19921" lon="-4.08601">
        <ele>53.092159</ele>
        <time>2022-12-10T13:15:32.180Z</time>
      </trkpt>
      <trkpt lat="48.1991" lon="-4.0861">
        <ele>53.113615</ele>
        <time>2022-12-10T13:15:35.201Z</time>
      </trkpt>
      <trkpt lat="48.19899" lon="-4.08618">
        <ele>53.136493</ele>
        <time>2022-12-10T13:15:38.206Z</time>
      </trkpt>
      <trkpt lat="48.19891" lon="-4.08624">
        <ele>53.152835</ele>
        <time>2022-12-10T13:15:40.199Z</time>
      </trkpt>
      <trkpt lat="48.19883" lon="-4.08631">
        <ele>53.169476</ele>
        <time>2022-12-10T13:15:42.179Z</time>
      </trkpt>
      <trkpt lat="48.19875" lon="-4.08638">
        <ele>53.186334</ele>
        <time>2022-12-10T13:15:44.192Z</time>
      </trkpt>
      <trkpt lat="48.19867" lon="-4.08648">
        <ele>53.203406</ele>
        <time>2022-12-10T13:15:46.196Z</time>
      </trkpt>
      <trkpt lat="48.19861" lon="-4.08658">
        <ele>53.220305</ele>
        <time>2022-12-10T13:15:48.197Z</time>
      </trkpt>
      <trkpt lat="48.19854" lon="-4.08668">
        <ele>53.237083</ele>
        <time>2022-12-10T13:15:50.186Z</time>
      </trkpt>
      <trkpt lat="48.19849" lon="-4.08678">
        <ele>53.253509</ele>
        <time>2022-12-10T13:15:52.202Z</time>
      </trkpt>
      <trkpt lat="48.19843" lon="-4.08689">
        <ele>53.279123</ele>
        <time>2022-12-10T13:15:54.176Z</time>
      </trkpt>
      <trkpt lat="48.19837" lon="-4.08706">
        <ele>53.340331</ele>
        <time>2022-12-10T13:15:57.194Z</time>
      </trkpt>
      <trkpt lat="48.19831" lon="-4.0872">
        <ele>53.396165</ele>
        <time>2022-12-10T13:16:00.192Z</time>
      </trkpt>
      <trkpt lat="48.19825" lon="-4.08734">
        <ele>53.450927</ele>
        <time>2022-12-10T13:16:03.196Z</time>
      </trkpt>
      <trkpt lat="48.19819" lon="-4.08749">
        <ele>53.509568</ele>
        <time>2022-12-10T13:16:06.195Z</time>
      </trkpt>
      <trkpt lat="48.19813" lon="-4.08765">
        <ele>53.568606</ele>
        <time>2022-12-10T13:16:09.195Z</time>
      </trkpt>
      <trkpt lat="48.19807" lon="-4.08781">
        <ele>53.630847</ele>
        <time>2022-12-10T13:16:12.196Z</time>
      </trkpt>
      <trkpt lat="48.19801" lon="-4.08798">
        <ele>53.695476</ele>
        <time>2022-12-10T13:16:15.198Z</time>
      </trkpt>
      <trkpt lat="48.19794" lon="-4.08815">
        <ele>53.761644</ele>
        <time>2022-12-10T13:16:18.196Z</time>
      </trkpt>
      <trkpt lat="48.19788" lon="-4.08833">
        <ele>53.826954</ele>
        <time>2022-12-10T13:16:21.183Z</time>
      </trkpt>
      <trkpt lat="48.19781" lon="-4.0885">
        <ele>53.89153</ele>
        <time>2022-12-10T13:16:24.196Z</time>
      </trkpt>
      <trkpt lat="48.19775" lon="-4.08866">
        <ele>53.955928</ele>
        <time>2022-12-10T13:16:27.212Z</time>
      </trkpt>
      <trkpt lat="48.19768" lon="-4.08883">
        <ele>54.020027</ele>
        <time>2022-12-10T13:16:30.192Z</time>
      </trkpt>
      <trkpt lat="48.19761" lon="-4.08899">
        <ele>54.08551</ele>
        <time>2022-12-10T13:16:33.202Z</time>
      </trkpt>
      <trkpt lat="48.19754" lon="-4.08916">
        <ele>54.148005</ele>
        <time>2022-12-10T13:16:36.198Z</time>
      </trkpt>
      <trkpt lat="48.19749" lon="-4.08931">
        <ele>54.152296</ele>
        <time>2022-12-10T13:16:39.179Z</time>
      </trkpt>
      <trkpt lat="48.19744" lon="-4.08944">
        <ele>54.14805</ele>
        <time>2022-12-10T13:16:42.194Z</time>
      </trkpt>
      <trkpt lat="48.19739" lon="-4.08957">
        <ele>54.144121</ele>
        <time>2022-12-10T13:16:45.186Z</time>
      </trkpt>
      <trkpt lat="48.19733" lon="-4.0897">
        <ele>54.140041</ele>
        <time>2022-12-10T13:16:48.192Z</time>
      </trkpt>
      <trkpt lat="48.19729" lon="-4.08984">
        <ele>54.135776</ele>
        <time>2022-12-10T13:16:51.197Z</time>
      </trkpt>
      <trkpt lat="48.19723" lon="-4.08999">
        <ele>54.131346</ele>
        <time>2022-12-10T13:16:54.203Z</time>
      </trkpt>
      <trkpt lat="48.19718" lon="-4.09013">
        <ele>54.126836</ele>
        <time>2022-12-10T13:16:57.202Z</time>
      </trkpt>
      <trkpt lat="48.19713" lon="-4.09027">
        <ele>54.122624</ele>
        <time>2022-12-10T13:17:00.192Z</time>
      </trkpt>
      <trkpt lat="48.19708" lon="-4.09041">
        <ele>54.118412</ele>
        <time>2022-12-10T13:17:03.188Z</time>
      </trkpt>
      <trkpt lat="48.19703" lon="-4.09055">
        <ele>54.114061</ele>
        <time>2022-12-10T13:17:06.197Z</time>
      </trkpt>
      <trkpt lat="48.19697" lon="-4.09068">
        <ele>54.109804</ele>
        <time>2022-12-10T13:17:09.208Z</time>
      </trkpt>
      <trkpt lat="48.19692" lon="-4.09081">
        <ele>54.105788</ele>
        <time>2022-12-10T13:17:12.177Z</time>
      </trkpt>
      <trkpt lat="48.19686" lon="-4.09096">
        <ele>54.101187</ele>
        <time>2022-12-10T13:17:16.191Z</time>
      </trkpt>
      <trkpt lat="48.19682" lon="-4.09108">
        <ele>54.097546</ele>
        <time>2022-12-10T13:17:19.198Z</time>
      </trkpt>
      <trkpt lat="48.19677" lon="-4.09122">
        <ele>54.093399</ele>
        <time>2022-12-10T13:17:22.193Z</time>
      </trkpt>
      <trkpt lat="48.19671" lon="-4.09136">
        <ele>54.089053</ele>
        <time>2022-12-10T13:17:25.200Z</time>
      </trkpt>
      <trkpt lat="48.19666" lon="-4.09151">
        <ele>54.084518</ele>
        <time>2022-12-10T13:17:28.194Z</time>
      </trkpt>
      <trkpt lat="48.1966" lon="-4.09165">
        <ele>54.195419</ele>
        <time>2022-12-10T13:17:31.197Z</time>
      </trkpt>
      <trkpt lat="48.19655" lon="-4.0918">
        <ele>54.321449</ele>
        <time>2022-12-10T13:17:34.178Z</time>
      </trkpt>
      <trkpt lat="48.19649" lon="-4.09195">
        <ele>54.44965</ele>
        <time>2022-12-10T13:17:37.209Z</time>
      </trkpt>
      <trkpt lat="48.19643" lon="-4.0921">
        <ele>54.580308</ele>
        <time>2022-12-10T13:17:40.197Z</time>
      </trkpt>
      <trkpt lat="48.19637" lon="-4.09224">
        <ele>54.709305</ele>
        <time>2022-12-10T13:17:43.190Z</time>
      </trkpt>
      <trkpt lat="48.19631" lon="-4.0924">
        <ele>54.844341</ele>
        <time>2022-12-10T13:17:46.192Z</time>
      </trkpt>
      <trkpt lat="48.19625" lon="-4.09255">
        <ele>54.972781</ele>
        <time>2022-12-10T13:17:49.203Z</time>
      </trkpt>
      <trkpt lat="48.1962" lon="-4.09269">
        <ele>55.093586</ele>
        <time>2022-12-10T13:17:52.204Z</time>
      </trkpt>
      <trkpt lat="48.19615" lon="-4.0928">
        <ele>55.195767</ele>
        <time>2022-12-10T13:17:55.185Z</time>
      </trkpt>
      <trkpt lat="48.19613" lon="-4.09295">
        <ele>55.309147</ele>
        <time>2022-12-10T13:18:00.176Z</time>
      </trkpt>
      <trkpt lat="48.19605" lon="-4.09308">
        <ele>55.437716</ele>
        <time>2022-12-10T13:18:05.189Z</time>
      </trkpt>
      <trkpt lat="48.19599" lon="-4.0932">
        <ele>55.55429</ele>
        <time>2022-12-10T13:18:08.176Z</time>
      </trkpt>
      <trkpt lat="48.19593" lon="-4.09334">
        <ele>55.678259</ele>
        <time>2022-12-10T13:18:11.193Z</time>
      </trkpt>
      <trkpt lat="48.19588" lon="-4.09348">
        <ele>55.794882</ele>
        <time>2022-12-10T13:18:14.204Z</time>
      </trkpt>
      <trkpt lat="48.19583" lon="-4.0936">
        <ele>55.90673</ele>
        <time>2022-12-10T13:18:17.204Z</time>
      </trkpt>
      <trkpt lat="48.19577" lon="-4.09376">
        <ele>56.038454</ele>
        <time>2022-12-10T13:18:21.202Z</time>
      </trkpt>
      <trkpt lat="48.19572" lon="-4.0939">
        <ele>56.094284</ele>
        <time>2022-12-10T13:18:25.193Z</time>
      </trkpt>
      <trkpt lat="48.19568" lon="-4.09406">
        <ele>56.057607</ele>
        <time>2022-12-10T13:18:29.201Z</time>
      </trkpt>
      <trkpt lat="48.19559" lon="-4.09409">
        <ele>56.026684</ele>
        <time>2022-12-10T13:18:33.191Z</time>
      </trkpt>
      <trkpt lat="48.1955" lon="-4.09402">
        <ele>55.993573</ele>
        <time>2022-12-10T13:18:37.182Z</time>
      </trkpt>
      <trkpt lat="48.19541" lon="-4.09394">
        <ele>55.959527</ele>
        <time>2022-12-10T13:18:41.185Z</time>
      </trkpt>
      <trkpt lat="48.19531" lon="-4.09392">
        <ele>55.927566</ele>
        <time>2022-12-10T13:18:49.193Z</time>
      </trkpt>
      <trkpt lat="48.19526" lon="-4.09407">
        <ele>55.891001</ele>
        <time>2022-12-10T13:18:53.180Z</time>
      </trkpt>
      <trkpt lat="48.1952" lon="-4.09419">
        <ele>55.856616</ele>
        <time>2022-12-10T13:18:56.193Z</time>
      </trkpt>
      <trkpt lat="48.19513" lon="-4.09432">
        <ele>55.819237</ele>
        <time>2022-12-10T13:18:59.182Z</time>
      </trkpt>
      <trkpt lat="48.19506" lon="-4.09445">
        <ele>55.783666</ele>
        <time>2022-12-10T13:19:02.181Z</time>
      </trkpt>
      <trkpt lat="48.195" lon="-4.09459">
        <ele>55.747265</ele>
        <time>2022-12-10T13:19:05.173Z</time>
      </trkpt>
      <trkpt lat="48.19495" lon="-4.09473">
        <ele>55.711404</ele>
        <time>2022-12-10T13:19:08.203Z</time>
      </trkpt>
      <trkpt lat="48.1949" lon="-4.09486">
        <ele>55.677761</ele>
        <time>2022-12-10T13:19:11.193Z</time>
      </trkpt>
      <trkpt lat="48.19491" lon="-4.09501">
        <ele>55.644647</ele>
        <time>2022-12-10T13:19:15.177Z</time>
      </trkpt>
      <trkpt lat="48.19501" lon="-4.09508">
        <ele>55.609167</ele>
        <time>2022-12-10T13:19:19.182Z</time>
      </trkpt>
      <trkpt lat="48.19509" lon="-4.09516">
        <ele>55.578003</ele>
        <time>2022-12-10T13:19:22.194Z</time>
      </trkpt>
      <trkpt lat="48.19515" lon="-4.09529">
        <ele>55.541794</ele>
        <time>2022-12-10T13:19:26.175Z</time>
      </trkpt>
      <trkpt lat="48.19513" lon="-4.09543">
        <ele>55.510245</ele>
        <time>2022-12-10T13:19:29.173Z</time>
      </trkpt>
      <trkpt lat="48.19508" lon="-4.09556">
        <ele>55.4593</ele>
        <time>2022-12-10T13:19:32.182Z</time>
      </trkpt>
      <trkpt lat="48.19503" lon="-4.09569">
        <ele>55.408057</ele>
        <time>2022-12-10T13:19:35.208Z</time>
      </trkpt>
      <trkpt lat="48.19498" lon="-4.09582">
        <ele>55.359728</ele>
        <time>2022-12-10T13:19:38.178Z</time>
      </trkpt>
      <trkpt lat="48.19493" lon="-4.09594">
        <ele>55.308135</ele>
        <time>2022-12-10T13:19:41.199Z</time>
      </trkpt>
      <trkpt lat="48.19486" lon="-4.09606">
        <ele>55.255522</ele>
        <time>2022-12-10T13:19:44.184Z</time>
      </trkpt>
      <trkpt lat="48.19478" lon="-4.09615">
        <ele>55.204668</ele>
        <time>2022-12-10T13:19:47.176Z</time>
      </trkpt>
      <trkpt lat="48.19469" lon="-4.09621">
        <ele>55.155713</ele>
        <time>2022-12-10T13:19:50.178Z</time>
      </trkpt>
      <trkpt lat="48.1946" lon="-4.09623">
        <ele>55.1077</ele>
        <time>2022-12-10T13:19:53.176Z</time>
      </trkpt>
      <trkpt lat="48.1945" lon="-4.09621">
        <ele>55.059947</ele>
        <time>2022-12-10T13:19:56.183Z</time>
      </trkpt>
      <trkpt lat="48.19441" lon="-4.09617">
        <ele>55.009974</ele>
        <time>2022-12-10T13:19:59.189Z</time>
      </trkpt>
      <trkpt lat="48.19431" lon="-4.09613">
        <ele>54.955648</ele>
        <time>2022-12-10T13:20:02.203Z</time>
      </trkpt>
      <trkpt lat="48.19421" lon="-4.09609">
        <ele>54.904238</ele>
        <time>2022-12-10T13:20:05.194Z</time>
      </trkpt>
      <trkpt lat="48.19411" lon="-4.09602">
        <ele>54.850101</ele>
        <time>2022-12-10T13:20:09.200Z</time>
      </trkpt>
      <trkpt lat="48.19401" lon="-4.09602">
        <ele>54.799782</ele>
        <time>2022-12-10T13:20:28.186Z</time>
      </trkpt>
      <trkpt lat="48.19392" lon="-4.096">
        <ele>54.753197</ele>
        <time>2022-12-10T13:20:33.180Z</time>
      </trkpt>
      <trkpt lat="48.19381" lon="-4.09595">
        <ele>54.695735</ele>
        <time>2022-12-10T13:20:38.181Z</time>
      </trkpt>
      <trkpt lat="48.19372" lon="-4.0959">
        <ele>54.645398</ele>
        <time>2022-12-10T13:20:42.205Z</time>
      </trkpt>
      <trkpt lat="48.19363" lon="-4.09584">
        <ele>54.596031</ele>
        <time>2022-12-10T13:20:45.180Z</time>
      </trkpt>
      <trkpt lat="48.19355" lon="-4.09578">
        <ele>54.535326</ele>
        <time>2022-12-10T13:20:48.190Z</time>
      </trkpt>
      <trkpt lat="48.19346" lon="-4.09572">
        <ele>54.473521</ele>
        <time>2022-12-10T13:20:51.194Z</time>
      </trkpt>
      <trkpt lat="48.19337" lon="-4.09566">
        <ele>54.410746</ele>
        <time>2022-12-10T13:20:54.196Z</time>
      </trkpt>
      <trkpt lat="48.19329" lon="-4.09559">
        <ele>54.34797</ele>
        <time>2022-12-10T13:20:57.201Z</time>
      </trkpt>
      <trkpt lat="48.1932" lon="-4.09552">
        <ele>54.283274</ele>
        <time>2022-12-10T13:21:00.196Z</time>
      </trkpt>
      <trkpt lat="48.19311" lon="-4.09544">
        <ele>54.216914</ele>
        <time>2022-12-10T13:21:03.195Z</time>
      </trkpt>
      <trkpt lat="48.19302" lon="-4.09537">
        <ele>54.149225</ele>
        <time>2022-12-10T13:21:06.198Z</time>
      </trkpt>
      <trkpt lat="48.19293" lon="-4.09527">
        <ele>54.08017</ele>
        <time>2022-12-10T13:21:09.192Z</time>
      </trkpt>
      <trkpt lat="48.19285" lon="-4.09518">
        <ele>54.013711</ele>
        <time>2022-12-10T13:21:12.174Z</time>
      </trkpt>
      <trkpt lat="48.19277" lon="-4.09507">
        <ele>53.945663</ele>
        <time>2022-12-10T13:21:15.202Z</time>
      </trkpt>
      <trkpt lat="48.19269" lon="-4.09497">
        <ele>53.879435</ele>
        <time>2022-12-10T13:21:18.198Z</time>
      </trkpt>
      <trkpt lat="48.19262" lon="-4.09485">
        <ele>53.812792</ele>
        <time>2022-12-10T13:21:21.205Z</time>
      </trkpt>
      <trkpt lat="48.19255" lon="-4.09474">
        <ele>53.745957</ele>
        <time>2022-12-10T13:21:24.174Z</time>
      </trkpt>
      <trkpt lat="48.19248" lon="-4.09462">
        <ele>53.676986</ele>
        <time>2022-12-10T13:21:27.193Z</time>
      </trkpt>
      <trkpt lat="48.19241" lon="-4.09451">
        <ele>53.612403</ele>
        <time>2022-12-10T13:21:30.198Z</time>
      </trkpt>
      <trkpt lat="48.19235" lon="-4.09439">
        <ele>53.545304</ele>
        <time>2022-12-10T13:21:33.177Z</time>
      </trkpt>
      <trkpt lat="48.19228" lon="-4.09426">
        <ele>53.477941</ele>
        <time>2022-12-10T13:21:36.194Z</time>
      </trkpt>
      <trkpt lat="48.19221" lon="-4.09415">
        <ele>53.477397</ele>
        <time>2022-12-10T13:21:39.196Z</time>
      </trkpt>
      <trkpt lat="48.19214" lon="-4.09401">
        <ele>53.555491</ele>
        <time>2022-12-10T13:21:42.184Z</time>
      </trkpt>
      <trkpt lat="48.19207" lon="-4.09388">
        <ele>53.633598</ele>
        <time>2022-12-10T13:21:45.179Z</time>
      </trkpt>
      <trkpt lat="48.19199" lon="-4.09375">
        <ele>53.712951</ele>
        <time>2022-12-10T13:21:48.206Z</time>
      </trkpt>
      <trkpt lat="48.19191" lon="-4.09363">
        <ele>53.793062</ele>
        <time>2022-12-10T13:21:51.192Z</time>
      </trkpt>
      <trkpt lat="48.19184" lon="-4.09351">
        <ele>53.867088</ele>
        <time>2022-12-10T13:21:54.198Z</time>
      </trkpt>
      <trkpt lat="48.19177" lon="-4.09339">
        <ele>53.940766</ele>
        <time>2022-12-10T13:21:57.208Z</time>
      </trkpt>
      <trkpt lat="48.1917" lon="-4.09327">
        <ele>54.017092</ele>
        <time>2022-12-10T13:22:00.184Z</time>
      </trkpt>
      <trkpt lat="48.19162" lon="-4.09316">
        <ele>54.09115</ele>
        <time>2022-12-10T13:22:03.199Z</time>
      </trkpt>
      <trkpt lat="48.19155" lon="-4.09304">
        <ele>54.165838</ele>
        <time>2022-12-10T13:22:06.206Z</time>
      </trkpt>
      <trkpt lat="48.19148" lon="-4.09292">
        <ele>54.241727</ele>
        <time>2022-12-10T13:22:09.195Z</time>
      </trkpt>
      <trkpt lat="48.1914" lon="-4.0928">
        <ele>54.317754</ele>
        <time>2022-12-10T13:22:12.196Z</time>
      </trkpt>
      <trkpt lat="48.19132" lon="-4.09269">
        <ele>54.394244</ele>
        <time>2022-12-10T13:22:15.208Z</time>
      </trkpt>
      <trkpt lat="48.19124" lon="-4.09257">
        <ele>54.472102</ele>
        <time>2022-12-10T13:22:18.199Z</time>
      </trkpt>
      <trkpt lat="48.19115" lon="-4.09247">
        <ele>54.550377</ele>
        <time>2022-12-10T13:22:21.201Z</time>
      </trkpt>
      <trkpt lat="48.19106" lon="-4.09237">
        <ele>54.627598</ele>
        <time>2022-12-10T13:22:24.204Z</time>
      </trkpt>
      <trkpt lat="48.19098" lon="-4.09226">
        <ele>54.687477</ele>
        <time>2022-12-10T13:22:27.199Z</time>
      </trkpt>
      <trkpt lat="48.19089" lon="-4.09217">
        <ele>54.637992</ele>
        <time>2022-12-10T13:22:30.207Z</time>
      </trkpt>
      <trkpt lat="48.1908" lon="-4.09207">
        <ele>54.588836</ele>
        <time>2022-12-10T13:22:33.200Z</time>
      </trkpt>
      <trkpt lat="48.19071" lon="-4.09197">
        <ele>54.538082</ele>
        <time>2022-12-10T13:22:36.193Z</time>
      </trkpt>
      <trkpt lat="48.19062" lon="-4.09187">
        <ele>54.486054</ele>
        <time>2022-12-10T13:22:39.181Z</time>
      </trkpt>
      <trkpt lat="48.19053" lon="-4.09178">
        <ele>54.434408</ele>
        <time>2022-12-10T13:22:42.184Z</time>
      </trkpt>
      <trkpt lat="48.19043" lon="-4.09169">
        <ele>54.3834</ele>
        <time>2022-12-10T13:22:45.200Z</time>
      </trkpt>
      <trkpt lat="48.19034" lon="-4.0916">
        <ele>54.332258</ele>
        <time>2022-12-10T13:22:48.199Z</time>
      </trkpt>
      <trkpt lat="48.19023" lon="-4.09151">
        <ele>54.278648</ele>
        <time>2022-12-10T13:22:51.180Z</time>
      </trkpt>
      <trkpt lat="48.19013" lon="-4.09143">
        <ele>54.224127</ele>
        <time>2022-12-10T13:22:54.202Z</time>
      </trkpt>
      <trkpt lat="48.19002" lon="-4.09134">
        <ele>54.168671</ele>
        <time>2022-12-10T13:22:57.200Z</time>
      </trkpt>
      <trkpt lat="48.18993" lon="-4.09125">
        <ele>54.118047</ele>
        <time>2022-12-10T13:23:00.188Z</time>
      </trkpt>
      <trkpt lat="48.18983" lon="-4.09118">
        <ele>54.069365</ele>
        <time>2022-12-10T13:23:04.182Z</time>
      </trkpt>
      <trkpt lat="48.18975" lon="-4.0911">
        <ele>54.027713</ele>
        <time>2022-12-10T13:23:07.183Z</time>
      </trkpt>
      <trkpt lat="48.18967" lon="-4.09104">
        <ele>53.982694</ele>
        <time>2022-12-10T13:23:10.188Z</time>
      </trkpt>
      <trkpt lat="48.18957" lon="-4.09097">
        <ele>53.934558</ele>
        <time>2022-12-10T13:23:13.192Z</time>
      </trkpt>
      <trkpt lat="48.18948" lon="-4.09088">
        <ele>53.886028</ele>
        <time>2022-12-10T13:23:16.196Z</time>
      </trkpt>
      <trkpt lat="48.1894" lon="-4.09079">
        <ele>53.797067</ele>
        <time>2022-12-10T13:23:19.196Z</time>
      </trkpt>
      <trkpt lat="48.18931" lon="-4.09071">
        <ele>53.697639</ele>
        <time>2022-12-10T13:23:22.199Z</time>
      </trkpt>
      <trkpt lat="48.18923" lon="-4.09062">
        <ele>53.599677</ele>
        <time>2022-12-10T13:23:25.200Z</time>
      </trkpt>
      <trkpt lat="48.18915" lon="-4.09052">
        <ele>53.495738</ele>
        <time>2022-12-10T13:23:28.201Z</time>
      </trkpt>
      <trkpt lat="48.18908" lon="-4.09041">
        <ele>53.398436</ele>
        <time>2022-12-10T13:23:31.179Z</time>
      </trkpt>
      <trkpt lat="48.18901" lon="-4.09031">
        <ele>53.305976</ele>
        <time>2022-12-10T13:23:34.198Z</time>
      </trkpt>
      <trkpt lat="48.18894" lon="-4.0902">
        <ele>53.2063</ele>
        <time>2022-12-10T13:23:37.203Z</time>
      </trkpt>
      <trkpt lat="48.18888" lon="-4.09007">
        <ele>53.102668</ele>
        <time>2022-12-10T13:23:40.193Z</time>
      </trkpt>
      <trkpt lat="48.18881" lon="-4.08994">
        <ele>52.992231</ele>
        <time>2022-12-10T13:23:43.211Z</time>
      </trkpt>
      <trkpt lat="48.18873" lon="-4.08981">
        <ele>52.88017</ele>
        <time>2022-12-10T13:23:46.205Z</time>
      </trkpt>
      <trkpt lat="48.18866" lon="-4.08967">
        <ele>52.76477</ele>
        <time>2022-12-10T13:23:49.198Z</time>
      </trkpt>
      <trkpt lat="48.18859" lon="-4.08952">
        <ele>52.646578</ele>
        <time>2022-12-10T13:23:52.209Z</time>
      </trkpt>
      <trkpt lat="48.18852" lon="-4.08937">
        <ele>52.524193</ele>
        <time>2022-12-10T13:23:55.210Z</time>
      </trkpt>
      <trkpt lat="48.18844" lon="-4.08921">
        <ele>52.401841</ele>
        <time>2022-12-10T13:23:58.205Z</time>
      </trkpt>
      <trkpt lat="48.18839" lon="-4.08905">
        <ele>52.282904</ele>
        <time>2022-12-10T13:24:01.198Z</time>
      </trkpt>
      <trkpt lat="48.18833" lon="-4.08889">
        <ele>52.163923</ele>
        <time>2022-12-10T13:24:04.177Z</time>
      </trkpt>
      <trkpt lat="48.18829" lon="-4.08872">
        <ele>52.180682</ele>
        <time>2022-12-10T13:24:07.198Z</time>
      </trkpt>
      <trkpt lat="48.18826" lon="-4.08855">
        <ele>52.272467</ele>
        <time>2022-12-10T13:24:10.188Z</time>
      </trkpt>
      <trkpt lat="48.18824" lon="-4.08839">
        <ele>52.361845</ele>
        <time>2022-12-10T13:24:13.203Z</time>
      </trkpt>
      <trkpt lat="48.18822" lon="-4.08822">
        <ele>52.450557</ele>
        <time>2022-12-10T13:24:16.192Z</time>
      </trkpt>
      <trkpt lat="48.1882" lon="-4.08805">
        <ele>52.53826</ele>
        <time>2022-12-10T13:24:19.176Z</time>
      </trkpt>
      <trkpt lat="48.18818" lon="-4.08789">
        <ele>52.626103</ele>
        <time>2022-12-10T13:24:22.199Z</time>
      </trkpt>
      <trkpt lat="48.18816" lon="-4.08772">
        <ele>52.713869</ele>
        <time>2022-12-10T13:24:25.192Z</time>
      </trkpt>
      <trkpt lat="48.18814" lon="-4.08756">
        <ele>52.802803</ele>
        <time>2022-12-10T13:24:28.199Z</time>
      </trkpt>
      <trkpt lat="48.18813" lon="-4.0874">
        <ele>52.887949</ele>
        <time>2022-12-10T13:24:31.188Z</time>
      </trkpt>
      <trkpt lat="48.18813" lon="-4.08723">
        <ele>52.975571</ele>
        <time>2022-12-10T13:24:34.201Z</time>
      </trkpt>
      <trkpt lat="48.18812" lon="-4.08706">
        <ele>53.065326</ele>
        <time>2022-12-10T13:24:37.204Z</time>
      </trkpt>
      <trkpt lat="48.18812" lon="-4.08689">
        <ele>53.154987</ele>
        <time>2022-12-10T13:24:40.202Z</time>
      </trkpt>
      <trkpt lat="48.18812" lon="-4.08672">
        <ele>53.244093</ele>
        <time>2022-12-10T13:24:43.198Z</time>
      </trkpt>
      <trkpt lat="48.18812" lon="-4.08655">
        <ele>53.329065</ele>
        <time>2022-12-10T13:24:46.203Z</time>
      </trkpt>
      <trkpt lat="48.18813" lon="-4.08639">
        <ele>53.415256</ele>
        <time>2022-12-10T13:24:49.201Z</time>
      </trkpt>
      <trkpt lat="48.18814" lon="-4.08622">
        <ele>53.504061</ele>
        <time>2022-12-10T13:24:52.200Z</time>
      </trkpt>
      <trkpt lat="48.18815" lon="-4.08605">
        <ele>53.597479</ele>
        <time>2022-12-10T13:24:55.203Z</time>
      </trkpt>
      <trkpt lat="48.18816" lon="-4.08587">
        <ele>53.694291</ele>
        <time>2022-12-10T13:24:58.208Z</time>
      </trkpt>
      <trkpt lat="48.18818" lon="-4.0857">
        <ele>53.791327</ele>
        <time>2022-12-10T13:25:01.197Z</time>
      </trkpt>
      <trkpt lat="48.1882" lon="-4.08553">
        <ele>53.886949</ele>
        <time>2022-12-10T13:25:04.201Z</time>
      </trkpt>
      <trkpt lat="48.18821" lon="-4.08535">
        <ele>53.984413</ele>
        <time>2022-12-10T13:25:07.194Z</time>
      </trkpt>
      <trkpt lat="48.18823" lon="-4.08518">
        <ele>54.079972</ele>
        <time>2022-12-10T13:25:10.197Z</time>
      </trkpt>
      <trkpt lat="48.18826" lon="-4.08501">
        <ele>54.176928</ele>
        <time>2022-12-10T13:25:13.198Z</time>
      </trkpt>
      <trkpt lat="48.18829" lon="-4.08484">
        <ele>54.269934</ele>
        <time>2022-12-10T13:25:16.179Z</time>
      </trkpt>
      <trkpt lat="48.18832" lon="-4.08468">
        <ele>54.366559</ele>
        <time>2022-12-10T13:25:19.197Z</time>
      </trkpt>
      <trkpt lat="48.18836" lon="-4.08451">
        <ele>54.461825</ele>
        <time>2022-12-10T13:25:22.201Z</time>
      </trkpt>
      <trkpt lat="48.18841" lon="-4.08435">
        <ele>54.556757</ele>
        <time>2022-12-10T13:25:25.179Z</time>
      </trkpt>
      <trkpt lat="48.18846" lon="-4.08419">
        <ele>54.655044</ele>
        <time>2022-12-10T13:25:28.194Z</time>
      </trkpt>
      <trkpt lat="48.18852" lon="-4.08404">
        <ele>54.751234</ele>
        <time>2022-12-10T13:25:31.203Z</time>
      </trkpt>
      <trkpt lat="48.18857" lon="-4.08389">
        <ele>54.845905</ele>
        <time>2022-12-10T13:25:34.184Z</time>
      </trkpt>
      <trkpt lat="48.18864" lon="-4.08375">
        <ele>54.941359</ele>
        <time>2022-12-10T13:25:37.207Z</time>
      </trkpt>
      <trkpt lat="48.18871" lon="-4.0836">
        <ele>55.04036</ele>
        <time>2022-12-10T13:25:40.203Z</time>
      </trkpt>
      <trkpt lat="48.18878" lon="-4.08345">
        <ele>55.136847</ele>
        <time>2022-12-10T13:25:43.208Z</time>
      </trkpt>
      <trkpt lat="48.18884" lon="-4.08331">
        <ele>55.228454</ele>
        <time>2022-12-10T13:25:46.195Z</time>
      </trkpt>
      <trkpt lat="48.18891" lon="-4.08317">
        <ele>55.321112</ele>
        <time>2022-12-10T13:25:49.209Z</time>
      </trkpt>
      <trkpt lat="48.18898" lon="-4.08304">
        <ele>55.411512</ele>
        <time>2022-12-10T13:25:52.195Z</time>
      </trkpt>
      <trkpt lat="48.18905" lon="-4.08292">
        <ele>55.495436</ele>
        <time>2022-12-10T13:25:55.205Z</time>
      </trkpt>
      <trkpt lat="48.18912" lon="-4.08279">
        <ele>55.583798</ele>
        <time>2022-12-10T13:25:58.209Z</time>
      </trkpt>
      <trkpt lat="48.18919" lon="-4.08267">
        <ele>55.673674</ele>
        <time>2022-12-10T13:26:01.196Z</time>
      </trkpt>
      <trkpt lat="48.18927" lon="-4.08254">
        <ele>55.764097</ele>
        <time>2022-12-10T13:26:04.212Z</time>
      </trkpt>
      <trkpt lat="48.18933" lon="-4.08241">
        <ele>55.853645</ele>
        <time>2022-12-10T13:26:07.199Z</time>
      </trkpt>
      <trkpt lat="48.18941" lon="-4.08228">
        <ele>55.94285</ele>
        <time>2022-12-10T13:26:10.213Z</time>
      </trkpt>
      <trkpt lat="48.18948" lon="-4.08216">
        <ele>56.032587</ele>
        <time>2022-12-10T13:26:13.194Z</time>
      </trkpt>
      <trkpt lat="48.18956" lon="-4.08203">
        <ele>56.124598</ele>
        <time>2022-12-10T13:26:16.193Z</time>
      </trkpt>
      <trkpt lat="48.18963" lon="-4.0819">
        <ele>56.216061</ele>
        <time>2022-12-10T13:26:19.176Z</time>
      </trkpt>
      <trkpt lat="48.18969" lon="-4.08176">
        <ele>56.304946</ele>
        <time>2022-12-10T13:26:22.202Z</time>
      </trkpt>
      <trkpt lat="48.18975" lon="-4.08162">
        <ele>56.39351</ele>
        <time>2022-12-10T13:26:25.187Z</time>
      </trkpt>
      <trkpt lat="48.1898" lon="-4.08147">
        <ele>56.487652</ele>
        <time>2022-12-10T13:26:28.197Z</time>
      </trkpt>
      <trkpt lat="48.18986" lon="-4.08132">
        <ele>56.604343</ele>
        <time>2022-12-10T13:26:31.193Z</time>
      </trkpt>
      <trkpt lat="48.18992" lon="-4.08117">
        <ele>56.721461</ele>
        <time>2022-12-10T13:26:34.203Z</time>
      </trkpt>
      <trkpt lat="48.18997" lon="-4.08102">
        <ele>56.837171</ele>
        <time>2022-12-10T13:26:37.197Z</time>
      </trkpt>
      <trkpt lat="48.19002" lon="-4.08088">
        <ele>56.943338</ele>
        <time>2022-12-10T13:26:40.206Z</time>
      </trkpt>
      <trkpt lat="48.19007" lon="-4.08075">
        <ele>57.044837</ele>
        <time>2022-12-10T13:26:43.204Z</time>
      </trkpt>
      <trkpt lat="48.19011" lon="-4.08061">
        <ele>57.145949</ele>
        <time>2022-12-10T13:26:46.206Z</time>
      </trkpt>
      <trkpt lat="48.19017" lon="-4.08047">
        <ele>57.256792</ele>
        <time>2022-12-10T13:26:49.202Z</time>
      </trkpt>
      <trkpt lat="48.19023" lon="-4.08033">
        <ele>57.370505</ele>
        <time>2022-12-10T13:26:52.204Z</time>
      </trkpt>
      <trkpt lat="48.19028" lon="-4.08019">
        <ele>57.479563</ele>
        <time>2022-12-10T13:26:55.208Z</time>
      </trkpt>
      <trkpt lat="48.19033" lon="-4.08004">
        <ele>57.587684</ele>
        <time>2022-12-10T13:26:58.187Z</time>
      </trkpt>
      <trkpt lat="48.19038" lon="-4.07992">
        <ele>57.68311</ele>
        <time>2022-12-10T13:27:01.210Z</time>
      </trkpt>
      <trkpt lat="48.19043" lon="-4.0798">
        <ele>57.781053</ele>
        <time>2022-12-10T13:27:04.208Z</time>
      </trkpt>
      <trkpt lat="48.19048" lon="-4.07965">
        <ele>57.893918</ele>
        <time>2022-12-10T13:27:07.198Z</time>
      </trkpt>
      <trkpt lat="48.19054" lon="-4.07951">
        <ele>58.007516</ele>
        <time>2022-12-10T13:27:10.205Z</time>
      </trkpt>
      <trkpt lat="48.1906" lon="-4.07936">
        <ele>58.12049</ele>
        <time>2022-12-10T13:27:13.205Z</time>
      </trkpt>
      <trkpt lat="48.19065" lon="-4.07921">
        <ele>58.235357</ele>
        <time>2022-12-10T13:27:16.195Z</time>
      </trkpt>
      <trkpt lat="48.19071" lon="-4.07906">
        <ele>58.251741</ele>
        <time>2022-12-10T13:27:19.204Z</time>
      </trkpt>
      <trkpt lat="48.19076" lon="-4.07892">
        <ele>58.210418</ele>
        <time>2022-12-10T13:27:22.189Z</time>
      </trkpt>
      <trkpt lat="48.19082" lon="-4.07877">
        <ele>58.168797</ele>
        <time>2022-12-10T13:27:25.195Z</time>
      </trkpt>
      <trkpt lat="48.19088" lon="-4.07863">
        <ele>58.125047</ele>
        <time>2022-12-10T13:27:28.209Z</time>
      </trkpt>
      <trkpt lat="48.19093" lon="-4.07848">
        <ele>58.081853</ele>
        <time>2022-12-10T13:27:31.195Z</time>
      </trkpt>
      <trkpt lat="48.19099" lon="-4.07832">
        <ele>58.037746</ele>
        <time>2022-12-10T13:27:34.201Z</time>
      </trkpt>
      <trkpt lat="48.19104" lon="-4.07817">
        <ele>57.994169</ele>
        <time>2022-12-10T13:27:37.199Z</time>
      </trkpt>
      <trkpt lat="48.19111" lon="-4.07801">
        <ele>57.948094</ele>
        <time>2022-12-10T13:27:40.201Z</time>
      </trkpt>
      <trkpt lat="48.19116" lon="-4.07785">
        <ele>57.902302</ele>
        <time>2022-12-10T13:27:43.204Z</time>
      </trkpt>
      <trkpt lat="48.19122" lon="-4.07769">
        <ele>57.85574</ele>
        <time>2022-12-10T13:27:46.201Z</time>
      </trkpt>
      <trkpt lat="48.19129" lon="-4.07753">
        <ele>57.808583</ele>
        <time>2022-12-10T13:27:49.191Z</time>
      </trkpt>
      <trkpt lat="48.19135" lon="-4.07737">
        <ele>57.761687</ele>
        <time>2022-12-10T13:27:52.204Z</time>
      </trkpt>
      <trkpt lat="48.19141" lon="-4.07722">
        <ele>57.718349</ele>
        <time>2022-12-10T13:27:55.202Z</time>
      </trkpt>
      <trkpt lat="48.19148" lon="-4.07709">
        <ele>57.676568</ele>
        <time>2022-12-10T13:27:58.207Z</time>
      </trkpt>
      <trkpt lat="48.19156" lon="-4.07696">
        <ele>57.631512</ele>
        <time>2022-12-10T13:28:01.199Z</time>
      </trkpt>
      <trkpt lat="48.19164" lon="-4.07682">
        <ele>57.56954</ele>
        <time>2022-12-10T13:28:04.175Z</time>
      </trkpt>
      <trkpt lat="48.19171" lon="-4.07667">
        <ele>57.461509</ele>
        <time>2022-12-10T13:28:07.186Z</time>
      </trkpt>
      <trkpt lat="48.1918" lon="-4.07653">
        <ele>57.355082</ele>
        <time>2022-12-10T13:28:10.178Z</time>
      </trkpt>
      <trkpt lat="48.19188" lon="-4.07641">
        <ele>57.255476</ele>
        <time>2022-12-10T13:28:13.188Z</time>
      </trkpt>
      <trkpt lat="48.19196" lon="-4.07629">
        <ele>57.157691</ele>
        <time>2022-12-10T13:28:16.195Z</time>
      </trkpt>
      <trkpt lat="48.19205" lon="-4.07618">
        <ele>57.055557</ele>
        <time>2022-12-10T13:28:19.177Z</time>
      </trkpt>
      <trkpt lat="48.19214" lon="-4.07607">
        <ele>56.956595</ele>
        <time>2022-12-10T13:28:22.191Z</time>
      </trkpt>
      <trkpt lat="48.19223" lon="-4.07596">
        <ele>56.855897</ele>
        <time>2022-12-10T13:28:25.199Z</time>
      </trkpt>
      <trkpt lat="48.19233" lon="-4.07586">
        <ele>56.752454</ele>
        <time>2022-12-10T13:28:28.195Z</time>
      </trkpt>
      <trkpt lat="48.19243" lon="-4.07576">
        <ele>56.649751</ele>
        <time>2022-12-10T13:28:31.204Z</time>
      </trkpt>
      <trkpt lat="48.19254" lon="-4.07567">
        <ele>56.545592</ele>
        <time>2022-12-10T13:28:34.197Z</time>
      </trkpt>
      <trkpt lat="48.19263" lon="-4.07556">
        <ele>56.442521</ele>
        <time>2022-12-10T13:28:37.183Z</time>
      </trkpt>
      <trkpt lat="48.19274" lon="-4.07547">
        <ele>56.33926</ele>
        <time>2022-12-10T13:28:40.207Z</time>
      </trkpt>
      <trkpt lat="48.19285" lon="-4.07537">
        <ele>56.224907</ele>
        <time>2022-12-10T13:28:43.203Z</time>
      </trkpt>
      <trkpt lat="48.19293" lon="-4.07531">
        <ele>56.147299</ele>
        <time>2022-12-10T13:28:45.184Z</time>
      </trkpt>
      <trkpt lat="48.19305" lon="-4.07522">
        <ele>56.058089</ele>
        <time>2022-12-10T13:28:48.197Z</time>
      </trkpt>
      <trkpt lat="48.19316" lon="-4.07512">
        <ele>56.074762</ele>
        <time>2022-12-10T13:28:51.197Z</time>
      </trkpt>
      <trkpt lat="48.19328" lon="-4.07504">
        <ele>56.091648</ele>
        <time>2022-12-10T13:28:54.179Z</time>
      </trkpt>
      <trkpt lat="48.1934" lon="-4.07496">
        <ele>56.107962</ele>
        <time>2022-12-10T13:28:57.198Z</time>
      </trkpt>
      <trkpt lat="48.19352" lon="-4.07489">
        <ele>56.124255</ele>
        <time>2022-12-10T13:29:00.199Z</time>
      </trkpt>
      <trkpt lat="48.19363" lon="-4.0748">
        <ele>56.140598</ele>
        <time>2022-12-10T13:29:03.210Z</time>
      </trkpt>
      <trkpt lat="48.19374" lon="-4.07472">
        <ele>56.156595</ele>
        <time>2022-12-10T13:29:06.178Z</time>
      </trkpt>
      <trkpt lat="48.19386" lon="-4.07463">
        <ele>56.172939</ele>
        <time>2022-12-10T13:29:09.194Z</time>
      </trkpt>
      <trkpt lat="48.19396" lon="-4.07455">
        <ele>56.18871</ele>
        <time>2022-12-10T13:29:12.206Z</time>
      </trkpt>
      <trkpt lat="48.19406" lon="-4.07446">
        <ele>56.202437</ele>
        <time>2022-12-10T13:29:15.194Z</time>
      </trkpt>
      <trkpt lat="48.19414" lon="-4.07437">
        <ele>56.21581</ele>
        <time>2022-12-10T13:29:18.198Z</time>
      </trkpt>
      <trkpt lat="48.19424" lon="-4.07429">
        <ele>56.230333</ele>
        <time>2022-12-10T13:29:21.179Z</time>
      </trkpt>
      <trkpt lat="48.19435" lon="-4.0742">
        <ele>56.245645</ele>
        <time>2022-12-10T13:29:24.202Z</time>
      </trkpt>
      <trkpt lat="48.19445" lon="-4.07412">
        <ele>56.261417</ele>
        <time>2022-12-10T13:29:27.202Z</time>
      </trkpt>
      <trkpt lat="48.19456" lon="-4.07403">
        <ele>56.276808</ele>
        <time>2022-12-10T13:29:30.205Z</time>
      </trkpt>
      <trkpt lat="48.19467" lon="-4.07395">
        <ele>56.302996</ele>
        <time>2022-12-10T13:29:33.197Z</time>
      </trkpt>
      <trkpt lat="48.19479" lon="-4.07388">
        <ele>56.34225</ele>
        <time>2022-12-10T13:29:36.209Z</time>
      </trkpt>
      <trkpt lat="48.19491" lon="-4.07381">
        <ele>56.382232</ele>
        <time>2022-12-10T13:29:39.208Z</time>
      </trkpt>
      <trkpt lat="48.19503" lon="-4.07375">
        <ele>56.422091</ele>
        <time>2022-12-10T13:29:42.205Z</time>
      </trkpt>
      <trkpt lat="48.19515" lon="-4.07369">
        <ele>56.460415</ele>
        <time>2022-12-10T13:29:45.196Z</time>
      </trkpt>
      <trkpt lat="48.19526" lon="-4.07363">
        <ele>56.496985</ele>
        <time>2022-12-10T13:29:48.198Z</time>
      </trkpt>
      <trkpt lat="48.19538" lon="-4.07358">
        <ele>56.53451</ele>
        <time>2022-12-10T13:29:51.200Z</time>
      </trkpt>
      <trkpt lat="48.1955" lon="-4.07354">
        <ele>56.572308</ele>
        <time>2022-12-10T13:29:54.197Z</time>
      </trkpt>
      <trkpt lat="48.1956" lon="-4.0735">
        <ele>56.607138</ele>
        <time>2022-12-10T13:29:57.191Z</time>
      </trkpt>
      <trkpt lat="48.19571" lon="-4.07344">
        <ele>56.642783</ele>
        <time>2022-12-10T13:30:00.197Z</time>
      </trkpt>
      <trkpt lat="48.19581" lon="-4.07338">
        <ele>56.676607</ele>
        <time>2022-12-10T13:30:03.197Z</time>
      </trkpt>
      <trkpt lat="48.19592" lon="-4.07332">
        <ele>56.7118</ele>
        <time>2022-12-10T13:30:06.200Z</time>
      </trkpt>
      <trkpt lat="48.19603" lon="-4.07329">
        <ele>56.746741</ele>
        <time>2022-12-10T13:30:09.194Z</time>
      </trkpt>
      <trkpt lat="48.19615" lon="-4.07325">
        <ele>56.784632</ele>
        <time>2022-12-10T13:30:12.201Z</time>
      </trkpt>
      <trkpt lat="48.19627" lon="-4.0732">
        <ele>56.822527</ele>
        <time>2022-12-10T13:30:15.203Z</time>
      </trkpt>
      <trkpt lat="48.19639" lon="-4.07314">
        <ele>56.806089</ele>
        <time>2022-12-10T13:30:18.177Z</time>
      </trkpt>
      <trkpt lat="48.1965" lon="-4.07307">
        <ele>56.72907</ele>
        <time>2022-12-10T13:30:21.182Z</time>
      </trkpt>
      <trkpt lat="48.19661" lon="-4.07299">
        <ele>56.649721</ele>
        <time>2022-12-10T13:30:24.200Z</time>
      </trkpt>
      <trkpt lat="48.19672" lon="-4.07291">
        <ele>56.575636</ele>
        <time>2022-12-10T13:30:27.193Z</time>
      </trkpt>
      <trkpt lat="48.19682" lon="-4.07284">
        <ele>56.507537</ele>
        <time>2022-12-10T13:30:30.204Z</time>
      </trkpt>
      <trkpt lat="48.19692" lon="-4.07276">
        <ele>56.434187</ele>
        <time>2022-12-10T13:30:33.207Z</time>
      </trkpt>
      <trkpt lat="48.19703" lon="-4.07269">
        <ele>56.359323</ele>
        <time>2022-12-10T13:30:36.188Z</time>
      </trkpt>
      <trkpt lat="48.19714" lon="-4.0726">
        <ele>56.283716</ele>
        <time>2022-12-10T13:30:39.184Z</time>
      </trkpt>
      <trkpt lat="48.19724" lon="-4.07251">
        <ele>56.206891</ele>
        <time>2022-12-10T13:30:42.205Z</time>
      </trkpt>
      <trkpt lat="48.19734" lon="-4.07241">
        <ele>56.13039</ele>
        <time>2022-12-10T13:30:45.192Z</time>
      </trkpt>
      <trkpt lat="48.19745" lon="-4.07233">
        <ele>56.055827</ele>
        <time>2022-12-10T13:30:48.195Z</time>
      </trkpt>
      <trkpt lat="48.19756" lon="-4.07224">
        <ele>55.978715</ele>
        <time>2022-12-10T13:30:51.201Z</time>
      </trkpt>
      <trkpt lat="48.19766" lon="-4.07215">
        <ele>55.902303</ele>
        <time>2022-12-10T13:30:54.203Z</time>
      </trkpt>
      <trkpt lat="48.19777" lon="-4.07205">
        <ele>55.824823</ele>
        <time>2022-12-10T13:30:57.176Z</time>
      </trkpt>
      <trkpt lat="48.19785" lon="-4.07194">
        <ele>55.751749</ele>
        <time>2022-12-10T13:31:00.180Z</time>
      </trkpt>
      <trkpt lat="48.19794" lon="-4.07183">
        <ele>55.718672</ele>
        <time>2022-12-10T13:31:03.196Z</time>
      </trkpt>
      <trkpt lat="48.19802" lon="-4.07172">
        <ele>55.736112</ele>
        <time>2022-12-10T13:31:06.206Z</time>
      </trkpt>
      <trkpt lat="48.19811" lon="-4.0716">
        <ele>55.75537</ele>
        <time>2022-12-10T13:31:09.203Z</time>
      </trkpt>
      <trkpt lat="48.1982" lon="-4.07147">
        <ele>55.774577</ele>
        <time>2022-12-10T13:31:12.205Z</time>
      </trkpt>
      <trkpt lat="48.19828" lon="-4.07134">
        <ele>55.79425</ele>
        <time>2022-12-10T13:31:15.219Z</time>
      </trkpt>
      <trkpt lat="48.19836" lon="-4.0712">
        <ele>55.813475</ele>
        <time>2022-12-10T13:31:18.192Z</time>
      </trkpt>
      <trkpt lat="48.19845" lon="-4.07107">
        <ele>55.833283</ele>
        <time>2022-12-10T13:31:21.203Z</time>
      </trkpt>
      <trkpt lat="48.19854" lon="-4.07095">
        <ele>55.852444</ele>
        <time>2022-12-10T13:31:24.185Z</time>
      </trkpt>
      <trkpt lat="48.19861" lon="-4.07084">
        <ele>55.869036</ele>
        <time>2022-12-10T13:31:27.182Z</time>
      </trkpt>
      <trkpt lat="48.19869" lon="-4.07074">
        <ele>55.885183</ele>
        <time>2022-12-10T13:31:30.203Z</time>
      </trkpt>
      <trkpt lat="48.19878" lon="-4.07062">
        <ele>55.904224</ele>
        <time>2022-12-10T13:31:33.189Z</time>
      </trkpt>
      <trkpt lat="48.19888" lon="-4.07051">
        <ele>55.922997</ele>
        <time>2022-12-10T13:31:36.198Z</time>
      </trkpt>
      <trkpt lat="48.19898" lon="-4.0704">
        <ele>55.942467</ele>
        <time>2022-12-10T13:31:39.196Z</time>
      </trkpt>
      <trkpt lat="48.19907" lon="-4.07029">
        <ele>55.961872</ele>
        <time>2022-12-10T13:31:42.204Z</time>
      </trkpt>
      <trkpt lat="48.19917" lon="-4.07019">
        <ele>55.981355</ele>
        <time>2022-12-10T13:31:45.182Z</time>
      </trkpt>
      <trkpt lat="48.19927" lon="-4.07009">
        <ele>56.0004</ele>
        <time>2022-12-10T13:31:48.205Z</time>
      </trkpt>
      <trkpt lat="48.19936" lon="-4.06999">
        <ele>56.021633</ele>
        <time>2022-12-10T13:31:51.205Z</time>
      </trkpt>
      <trkpt lat="48.19946" lon="-4.06989">
        <ele>56.043631</ele>
        <time>2022-12-10T13:31:54.197Z</time>
      </trkpt>
      <trkpt lat="48.19956" lon="-4.06979">
        <ele>56.065408</ele>
        <time>2022-12-10T13:31:57.190Z</time>
      </trkpt>
      <trkpt lat="48.19966" lon="-4.06969">
        <ele>56.087032</ele>
        <time>2022-12-10T13:32:00.200Z</time>
      </trkpt>
      <trkpt lat="48.19976" lon="-4.06959">
        <ele>56.109004</ele>
        <time>2022-12-10T13:32:03.195Z</time>
      </trkpt>
      <trkpt lat="48.19986" lon="-4.06949">
        <ele>56.131273</ele>
        <time>2022-12-10T13:32:06.205Z</time>
      </trkpt>
      <trkpt lat="48.19996" lon="-4.06938">
        <ele>56.154213</ele>
        <time>2022-12-10T13:32:09.203Z</time>
      </trkpt>
      <trkpt lat="48.20005" lon="-4.06928">
        <ele>56.175596</ele>
        <time>2022-12-10T13:32:12.211Z</time>
      </trkpt>
      <trkpt lat="48.20014" lon="-4.06918">
        <ele>56.195945</ele>
        <time>2022-12-10T13:32:15.203Z</time>
      </trkpt>
      <trkpt lat="48.20024" lon="-4.06908">
        <ele>56.217363</ele>
        <time>2022-12-10T13:32:18.199Z</time>
      </trkpt>
      <trkpt lat="48.20034" lon="-4.06898">
        <ele>56.239977</ele>
        <time>2022-12-10T13:32:21.203Z</time>
      </trkpt>
      <trkpt lat="48.20044" lon="-4.06887">
        <ele>56.262909</ele>
        <time>2022-12-10T13:32:24.209Z</time>
      </trkpt>
      <trkpt lat="48.20053" lon="-4.06878">
        <ele>56.282599</ele>
        <time>2022-12-10T13:32:27.192Z</time>
      </trkpt>
      <trkpt lat="48.20062" lon="-4.06869">
        <ele>56.303864</ele>
        <time>2022-12-10T13:32:30.204Z</time>
      </trkpt>
      <trkpt lat="48.20072" lon="-4.06859">
        <ele>56.325557</ele>
        <time>2022-12-10T13:32:33.202Z</time>
      </trkpt>
      <trkpt lat="48.20082" lon="-4.0685">
        <ele>56.370703</ele>
        <time>2022-12-10T13:32:36.205Z</time>
      </trkpt>
      <trkpt lat="48.20091" lon="-4.0684">
        <ele>56.419038</ele>
        <time>2022-12-10T13:32:39.203Z</time>
      </trkpt>
      <trkpt lat="48.20101" lon="-4.0683">
        <ele>56.471033</ele>
        <time>2022-12-10T13:32:42.206Z</time>
      </trkpt>
      <trkpt lat="48.20111" lon="-4.06819">
        <ele>56.522959</ele>
        <time>2022-12-10T13:32:45.206Z</time>
      </trkpt>
      <trkpt lat="48.2012" lon="-4.06809">
        <ele>56.571459</ele>
        <time>2022-12-10T13:32:48.200Z</time>
      </trkpt>
      <trkpt lat="48.20128" lon="-4.06801">
        <ele>56.615518</ele>
        <time>2022-12-10T13:32:51.194Z</time>
      </trkpt>
      <trkpt lat="48.20136" lon="-4.06791">
        <ele>56.661096</ele>
        <time>2022-12-10T13:32:54.205Z</time>
      </trkpt>
      <trkpt lat="48.20145" lon="-4.06781">
        <ele>56.707689</ele>
        <time>2022-12-10T13:32:57.188Z</time>
      </trkpt>
      <trkpt lat="48.20154" lon="-4.06773">
        <ele>56.754904</ele>
        <time>2022-12-10T13:33:00.195Z</time>
      </trkpt>
      <trkpt lat="48.20163" lon="-4.06762">
        <ele>56.802946</ele>
        <time>2022-12-10T13:33:03.185Z</time>
      </trkpt>
      <trkpt lat="48.2017" lon="-4.06752">
        <ele>56.843533</ele>
        <time>2022-12-10T13:33:06.201Z</time>
      </trkpt>
      <trkpt lat="48.2018" lon="-4.06743">
        <ele>56.894128</ele>
        <time>2022-12-10T13:33:10.187Z</time>
      </trkpt>
      <trkpt lat="48.20187" lon="-4.06735">
        <ele>56.933326</ele>
        <time>2022-12-10T13:33:13.204Z</time>
      </trkpt>
      <trkpt lat="48.20195" lon="-4.06727">
        <ele>56.973184</ele>
        <time>2022-12-10T13:33:16.191Z</time>
      </trkpt>
      <trkpt lat="48.20203" lon="-4.06718">
        <ele>57.015794</ele>
        <time>2022-12-10T13:33:19.197Z</time>
      </trkpt>
      <trkpt lat="48.20211" lon="-4.06709">
        <ele>57.060833</ele>
        <time>2022-12-10T13:33:22.202Z</time>
      </trkpt>
      <trkpt lat="48.2022" lon="-4.067">
        <ele>57.103886</ele>
        <time>2022-12-10T13:33:25.192Z</time>
      </trkpt>
      <trkpt lat="48.20229" lon="-4.06692">
        <ele>57.102257</ele>
        <time>2022-12-10T13:33:28.199Z</time>
      </trkpt>
      <trkpt lat="48.20238" lon="-4.06683">
        <ele>57.100558</ele>
        <time>2022-12-10T13:33:31.202Z</time>
      </trkpt>
      <trkpt lat="48.20248" lon="-4.06674">
        <ele>57.098718</ele>
        <time>2022-12-10T13:33:34.204Z</time>
      </trkpt>
      <trkpt lat="48.20257" lon="-4.06664">
        <ele>57.097044</ele>
        <time>2022-12-10T13:33:37.189Z</time>
      </trkpt>
      <trkpt lat="48.20266" lon="-4.06654">
        <ele>57.095314</ele>
        <time>2022-12-10T13:33:40.194Z</time>
      </trkpt>
      <trkpt lat="48.20275" lon="-4.06646">
        <ele>57.093615</ele>
        <time>2022-12-10T13:33:43.197Z</time>
      </trkpt>
      <trkpt lat="48.20285" lon="-4.06636">
        <ele>57.09189</ele>
        <time>2022-12-10T13:33:46.196Z</time>
      </trkpt>
      <trkpt lat="48.20293" lon="-4.06628">
        <ele>57.090314</ele>
        <time>2022-12-10T13:33:49.204Z</time>
      </trkpt>
      <trkpt lat="48.20302" lon="-4.06619">
        <ele>57.08858</ele>
        <time>2022-12-10T13:33:52.199Z</time>
      </trkpt>
      <trkpt lat="48.20311" lon="-4.06609">
        <ele>57.086899</ele>
        <time>2022-12-10T13:33:55.184Z</time>
      </trkpt>
      <trkpt lat="48.2032" lon="-4.06599">
        <ele>57.08512</ele>
        <time>2022-12-10T13:33:58.201Z</time>
      </trkpt>
      <trkpt lat="48.20329" lon="-4.0659">
        <ele>57.083481</ele>
        <time>2022-12-10T13:34:01.181Z</time>
      </trkpt>
      <trkpt lat="48.20339" lon="-4.0658">
        <ele>57.081587</ele>
        <time>2022-12-10T13:34:04.206Z</time>
      </trkpt>
      <trkpt lat="48.20349" lon="-4.0657">
        <ele>57.079707</ele>
        <time>2022-12-10T13:34:07.181Z</time>
      </trkpt>
      <trkpt lat="48.20359" lon="-4.06559">
        <ele>57.07784</ele>
        <time>2022-12-10T13:34:10.196Z</time>
      </trkpt>
      <trkpt lat="48.20369" lon="-4.06549">
        <ele>57.073893</ele>
        <time>2022-12-10T13:34:13.185Z</time>
      </trkpt>
      <trkpt lat="48.20379" lon="-4.06538">
        <ele>57.041897</ele>
        <time>2022-12-10T13:34:16.180Z</time>
      </trkpt>
      <trkpt lat="48.20388" lon="-4.06528">
        <ele>57.012828</ele>
        <time>2022-12-10T13:34:19.207Z</time>
      </trkpt>
      <trkpt lat="48.20397" lon="-4.06519">
        <ele>56.985414</ele>
        <time>2022-12-10T13:34:22.215Z</time>
      </trkpt>
      <trkpt lat="48.20405" lon="-4.06509">
        <ele>56.957996</ele>
        <time>2022-12-10T13:34:25.185Z</time>
      </trkpt>
      <trkpt lat="48.20413" lon="-4.06499">
        <ele>56.930535</ele>
        <time>2022-12-10T13:34:28.198Z</time>
      </trkpt>
      <trkpt lat="48.20422" lon="-4.06489">
        <ele>56.90177</ele>
        <time>2022-12-10T13:34:31.181Z</time>
      </trkpt>
      <trkpt lat="48.2043" lon="-4.06478">
        <ele>56.872415</ele>
        <time>2022-12-10T13:34:34.200Z</time>
      </trkpt>
      <trkpt lat="48.20439" lon="-4.06467">
        <ele>56.842394</ele>
        <time>2022-12-10T13:34:37.197Z</time>
      </trkpt>
      <trkpt lat="48.20449" lon="-4.06457">
        <ele>56.81197</ele>
        <time>2022-12-10T13:34:40.191Z</time>
      </trkpt>
      <trkpt lat="48.20458" lon="-4.06446">
        <ele>56.780291</ele>
        <time>2022-12-10T13:34:43.197Z</time>
      </trkpt>
      <trkpt lat="48.20468" lon="-4.06434">
        <ele>56.748536</ele>
        <time>2022-12-10T13:34:46.193Z</time>
      </trkpt>
      <trkpt lat="48.20476" lon="-4.06421">
        <ele>56.717277</ele>
        <time>2022-12-10T13:34:49.181Z</time>
      </trkpt>
      <trkpt lat="48.20486" lon="-4.06409">
        <ele>56.684441</ele>
        <time>2022-12-10T13:34:52.197Z</time>
      </trkpt>
      <trkpt lat="48.20495" lon="-4.06396">
        <ele>56.65164</ele>
        <time>2022-12-10T13:34:55.194Z</time>
      </trkpt>
      <trkpt lat="48.20503" lon="-4.06383">
        <ele>56.620407</ele>
        <time>2022-12-10T13:34:58.180Z</time>
      </trkpt>
      <trkpt lat="48.2051" lon="-4.0637">
        <ele>56.645752</ele>
        <time>2022-12-10T13:35:01.197Z</time>
      </trkpt>
      <trkpt lat="48.20518" lon="-4.06358">
        <ele>56.714259</ele>
        <time>2022-12-10T13:35:04.183Z</time>
      </trkpt>
      <trkpt lat="48.20525" lon="-4.06342">
        <ele>56.789881</ele>
        <time>2022-12-10T13:35:07.186Z</time>
      </trkpt>
      <trkpt lat="48.20533" lon="-4.06329">
        <ele>56.865261</ele>
        <time>2022-12-10T13:35:10.197Z</time>
      </trkpt>
      <trkpt lat="48.20541" lon="-4.06313">
        <ele>56.942891</ele>
        <time>2022-12-10T13:35:13.201Z</time>
      </trkpt>
      <trkpt lat="48.20548" lon="-4.06298">
        <ele>57.018512</ele>
        <time>2022-12-10T13:35:16.205Z</time>
      </trkpt>
      <trkpt lat="48.20555" lon="-4.06283">
        <ele>57.09246</ele>
        <time>2022-12-10T13:35:19.185Z</time>
      </trkpt>
      <trkpt lat="48.20561" lon="-4.06268">
        <ele>57.161827</ele>
        <time>2022-12-10T13:35:22.253Z</time>
      </trkpt>
      <trkpt lat="48.20566" lon="-4.06252">
        <ele>57.232833</ele>
        <time>2022-12-10T13:35:25.185Z</time>
      </trkpt>
      <trkpt lat="48.20572" lon="-4.06236">
        <ele>57.307198</ele>
        <time>2022-12-10T13:35:28.189Z</time>
      </trkpt>
      <trkpt lat="48.20577" lon="-4.06221">
        <ele>57.376565</ele>
        <time>2022-12-10T13:35:31.198Z</time>
      </trkpt>
      <trkpt lat="48.20583" lon="-4.06204">
        <ele>57.454293</ele>
        <time>2022-12-10T13:35:34.194Z</time>
      </trkpt>
      <trkpt lat="48.20588" lon="-4.06187">
        <ele>57.530262</ele>
        <time>2022-12-10T13:35:37.205Z</time>
      </trkpt>
      <trkpt lat="48.20594" lon="-4.0617">
        <ele>57.607554</ele>
        <time>2022-12-10T13:35:40.192Z</time>
      </trkpt>
      <trkpt lat="48.20599" lon="-4.06153">
        <ele>57.68545</ele>
        <time>2022-12-10T13:35:43.198Z</time>
      </trkpt>
      <trkpt lat="48.20604" lon="-4.06137">
        <ele>57.555336</ele>
        <time>2022-12-10T13:35:46.181Z</time>
      </trkpt>
      <trkpt lat="48.20607" lon="-4.06122">
        <ele>57.361192</ele>
        <time>2022-12-10T13:35:49.207Z</time>
      </trkpt>
      <trkpt lat="48.20611" lon="-4.06104">
        <ele>57.148212</ele>
        <time>2022-12-10T13:35:52.188Z</time>
      </trkpt>
      <trkpt lat="48.20614" lon="-4.06087">
        <ele>56.937982</ele>
        <time>2022-12-10T13:35:55.180Z</time>
      </trkpt>
      <trkpt lat="48.20618" lon="-4.0607">
        <ele>56.730605</ele>
        <time>2022-12-10T13:35:58.199Z</time>
      </trkpt>
      <trkpt lat="48.20621" lon="-4.06053">
        <ele>56.519868</ele>
        <time>2022-12-10T13:36:01.207Z</time>
      </trkpt>
      <trkpt lat="48.20625" lon="-4.06035">
        <ele>56.298018</ele>
        <time>2022-12-10T13:36:04.204Z</time>
      </trkpt>
      <trkpt lat="48.20629" lon="-4.06018">
        <ele>56.09176</ele>
        <time>2022-12-10T13:36:07.205Z</time>
      </trkpt>
      <trkpt lat="48.20633" lon="-4.06001">
        <ele>55.870669</ele>
        <time>2022-12-10T13:36:10.203Z</time>
      </trkpt>
      <trkpt lat="48.20636" lon="-4.05985">
        <ele>55.684591</ele>
        <time>2022-12-10T13:36:13.178Z</time>
      </trkpt>
      <trkpt lat="48.20638" lon="-4.0597">
        <ele>55.498669</ele>
        <time>2022-12-10T13:36:16.202Z</time>
      </trkpt>
      <trkpt lat="48.20642" lon="-4.05953">
        <ele>55.29188</ele>
        <time>2022-12-10T13:36:19.207Z</time>
      </trkpt>
      <trkpt lat="48.20644" lon="-4.05936">
        <ele>55.088128</ele>
        <time>2022-12-10T13:36:22.206Z</time>
      </trkpt>
      <trkpt lat="48.20645" lon="-4.05918">
        <ele>54.875969</ele>
        <time>2022-12-10T13:36:25.203Z</time>
      </trkpt>
      <trkpt lat="48.20646" lon="-4.05901">
        <ele>54.676382</ele>
        <time>2022-12-10T13:36:28.201Z</time>
      </trkpt>
      <trkpt lat="48.20647" lon="-4.05882">
        <ele>54.568403</ele>
        <time>2022-12-10T13:36:31.193Z</time>
      </trkpt>
      <trkpt lat="48.20648" lon="-4.05863">
        <ele>54.64527</ele>
        <time>2022-12-10T13:36:34.188Z</time>
      </trkpt>
      <trkpt lat="48.20649" lon="-4.05845">
        <ele>54.715468</ele>
        <time>2022-12-10T13:36:37.200Z</time>
      </trkpt>
      <trkpt lat="48.20649" lon="-4.05827">
        <ele>54.789012</ele>
        <time>2022-12-10T13:36:40.208Z</time>
      </trkpt>
      <trkpt lat="48.20649" lon="-4.0581">
        <ele>54.857313</ele>
        <time>2022-12-10T13:36:43.204Z</time>
      </trkpt>
      <trkpt lat="48.20649" lon="-4.05792">
        <ele>54.929201</ele>
        <time>2022-12-10T13:36:46.201Z</time>
      </trkpt>
      <trkpt lat="48.20649" lon="-4.05774">
        <ele>55.000709</ele>
        <time>2022-12-10T13:36:49.208Z</time>
      </trkpt>
      <trkpt lat="48.2065" lon="-4.05751">
        <ele>55.094835</ele>
        <time>2022-12-10T13:36:53.210Z</time>
      </trkpt>
      <trkpt lat="48.20651" lon="-4.05732">
        <ele>55.167979</ele>
        <time>2022-12-10T13:36:56.190Z</time>
      </trkpt>
      <trkpt lat="48.20651" lon="-4.05714">
        <ele>55.239468</ele>
        <time>2022-12-10T13:36:59.208Z</time>
      </trkpt>
      <trkpt lat="48.20649" lon="-4.05696">
        <ele>55.313894</ele>
        <time>2022-12-10T13:37:02.210Z</time>
      </trkpt>
      <trkpt lat="48.20648" lon="-4.05677">
        <ele>55.389188</ele>
        <time>2022-12-10T13:37:05.203Z</time>
      </trkpt>
      <trkpt lat="48.20645" lon="-4.05658">
        <ele>55.46581</ele>
        <time>2022-12-10T13:37:08.210Z</time>
      </trkpt>
      <trkpt lat="48.20644" lon="-4.05641">
        <ele>55.535557</ele>
        <time>2022-12-10T13:37:11.202Z</time>
      </trkpt>
      <trkpt lat="48.20643" lon="-4.05623">
        <ele>55.606184</ele>
        <time>2022-12-10T13:37:14.194Z</time>
      </trkpt>
      <trkpt lat="48.2064" lon="-4.05608">
        <ele>55.784555</ele>
        <time>2022-12-10T13:37:17.198Z</time>
      </trkpt>
      <trkpt lat="48.20637" lon="-4.05592">
        <ele>55.979876</ele>
        <time>2022-12-10T13:37:20.201Z</time>
      </trkpt>
      <trkpt lat="48.20635" lon="-4.05577">
        <ele>56.172013</ele>
        <time>2022-12-10T13:37:23.202Z</time>
      </trkpt>
      <trkpt lat="48.20631" lon="-4.0556">
        <ele>56.390609</ele>
        <time>2022-12-10T13:37:26.210Z</time>
      </trkpt>
      <trkpt lat="48.20625" lon="-4.05544">
        <ele>56.618799</ele>
        <time>2022-12-10T13:37:29.209Z</time>
      </trkpt>
      <trkpt lat="48.20621" lon="-4.05526">
        <ele>56.848161</ele>
        <time>2022-12-10T13:37:32.196Z</time>
      </trkpt>
      <trkpt lat="48.20615" lon="-4.0551">
        <ele>57.069858</ele>
        <time>2022-12-10T13:37:35.211Z</time>
      </trkpt>
      <trkpt lat="48.20611" lon="-4.05494">
        <ele>57.279411</ele>
        <time>2022-12-10T13:37:38.216Z</time>
      </trkpt>
      <trkpt lat="48.20606" lon="-4.05479">
        <ele>57.493957</ele>
        <time>2022-12-10T13:37:41.205Z</time>
      </trkpt>
      <trkpt lat="48.20598" lon="-4.05462">
        <ele>57.741719</ele>
        <time>2022-12-10T13:37:44.197Z</time>
      </trkpt>
      <trkpt lat="48.2059" lon="-4.05447">
        <ele>57.984176</ele>
        <time>2022-12-10T13:37:47.182Z</time>
      </trkpt>
      <trkpt lat="48.20582" lon="-4.05432">
        <ele>58.222599</ele>
        <time>2022-12-10T13:37:50.210Z</time>
      </trkpt>
      <trkpt lat="48.20575" lon="-4.05417">
        <ele>58.447573</ele>
        <time>2022-12-10T13:37:53.211Z</time>
      </trkpt>
      <trkpt lat="48.20567" lon="-4.05403">
        <ele>58.673511</ele>
        <time>2022-12-10T13:37:56.198Z</time>
      </trkpt>
      <trkpt lat="48.20559" lon="-4.05388">
        <ele>58.900251</ele>
        <time>2022-12-10T13:37:59.197Z</time>
      </trkpt>
      <trkpt lat="48.20552" lon="-4.05374">
        <ele>59.07892</ele>
        <time>2022-12-10T13:38:02.204Z</time>
      </trkpt>
      <trkpt lat="48.20546" lon="-4.05361">
        <ele>59.238865</ele>
        <time>2022-12-10T13:38:05.204Z</time>
      </trkpt>
      <trkpt lat="48.2054" lon="-4.05346">
        <ele>59.410048</ele>
        <time>2022-12-10T13:38:08.182Z</time>
      </trkpt>
      <trkpt lat="48.20532" lon="-4.05333">
        <ele>59.582875</ele>
        <time>2022-12-10T13:38:11.192Z</time>
      </trkpt>
      <trkpt lat="48.20526" lon="-4.0532">
        <ele>59.74426</ele>
        <time>2022-12-10T13:38:14.209Z</time>
      </trkpt>
      <trkpt lat="48.20519" lon="-4.05306">
        <ele>59.91298</ele>
        <time>2022-12-10T13:38:17.205Z</time>
      </trkpt>
      <trkpt lat="48.20511" lon="-4.05293">
        <ele>60.08747</ele>
        <time>2022-12-10T13:38:20.186Z</time>
      </trkpt>
      <trkpt lat="48.20504" lon="-4.05278">
        <ele>60.26265</ele>
        <time>2022-12-10T13:38:23.210Z</time>
      </trkpt>
      <trkpt lat="48.20496" lon="-4.05264">
        <ele>60.440483</ele>
        <time>2022-12-10T13:38:26.204Z</time>
      </trkpt>
      <trkpt lat="48.20489" lon="-4.0525">
        <ele>60.612026</ele>
        <time>2022-12-10T13:38:29.211Z</time>
      </trkpt>
      <trkpt lat="48.20481" lon="-4.05237">
        <ele>60.788698</ele>
        <time>2022-12-10T13:38:32.198Z</time>
      </trkpt>
      <trkpt lat="48.20473" lon="-4.05224">
        <ele>60.953025</ele>
        <time>2022-12-10T13:38:35.207Z</time>
      </trkpt>
      <trkpt lat="48.20466" lon="-4.05214">
        <ele>61.101417</ele>
        <time>2022-12-10T13:38:38.207Z</time>
      </trkpt>
      <trkpt lat="48.20459" lon="-4.05202">
        <ele>61.256893</ele>
        <time>2022-12-10T13:38:41.205Z</time>
      </trkpt>
      <trkpt lat="48.20453" lon="-4.0519">
        <ele>61.407622</ele>
        <time>2022-12-10T13:38:44.208Z</time>
      </trkpt>
      <trkpt lat="48.20445" lon="-4.05178">
        <ele>61.569824</ele>
        <time>2022-12-10T13:38:47.182Z</time>
      </trkpt>
      <trkpt lat="48.20437" lon="-4.05165">
        <ele>61.762991</ele>
        <time>2022-12-10T13:38:50.209Z</time>
      </trkpt>
      <trkpt lat="48.20429" lon="-4.05152">
        <ele>61.97176</ele>
        <time>2022-12-10T13:38:53.176Z</time>
      </trkpt>
      <trkpt lat="48.20421" lon="-4.05141">
        <ele>62.156189</ele>
        <time>2022-12-10T13:38:56.209Z</time>
      </trkpt>
      <trkpt lat="48.20414" lon="-4.05128">
        <ele>62.343872</ele>
        <time>2022-12-10T13:38:59.219Z</time>
      </trkpt>
      <trkpt lat="48.20406" lon="-4.05117">
        <ele>62.534594</ele>
        <time>2022-12-10T13:39:02.186Z</time>
      </trkpt>
      <trkpt lat="48.20398" lon="-4.05105">
        <ele>62.724264</ele>
        <time>2022-12-10T13:39:05.180Z</time>
      </trkpt>
      <trkpt lat="48.20391" lon="-4.05094">
        <ele>62.907473</ele>
        <time>2022-12-10T13:39:08.208Z</time>
      </trkpt>
      <trkpt lat="48.20383" lon="-4.05082">
        <ele>63.094723</ele>
        <time>2022-12-10T13:39:11.203Z</time>
      </trkpt>
      <trkpt lat="48.20376" lon="-4.0507">
        <ele>63.284978</ele>
        <time>2022-12-10T13:39:14.207Z</time>
      </trkpt>
      <trkpt lat="48.20368" lon="-4.05059">
        <ele>63.470784</ele>
        <time>2022-12-10T13:39:17.201Z</time>
      </trkpt>
      <trkpt lat="48.20359" lon="-4.05048">
        <ele>63.665456</ele>
        <time>2022-12-10T13:39:20.204Z</time>
      </trkpt>
      <trkpt lat="48.20351" lon="-4.05036">
        <ele>63.86241</ele>
        <time>2022-12-10T13:39:23.182Z</time>
      </trkpt>
      <trkpt lat="48.20342" lon="-4.05026">
        <ele>64.055553</ele>
        <time>2022-12-10T13:39:26.179Z</time>
      </trkpt>
      <trkpt lat="48.20333" lon="-4.05015">
        <ele>64.247455</ele>
        <time>2022-12-10T13:39:29.195Z</time>
      </trkpt>
      <trkpt lat="48.20324" lon="-4.05007">
        <ele>64.42629</ele>
        <time>2022-12-10T13:39:32.189Z</time>
      </trkpt>
      <trkpt lat="48.20317" lon="-4.04998">
        <ele>64.581934</ele>
        <time>2022-12-10T13:39:35.201Z</time>
      </trkpt>
      <trkpt lat="48.20309" lon="-4.04991">
        <ele>64.634008</ele>
        <time>2022-12-10T13:39:38.190Z</time>
      </trkpt>
      <trkpt lat="48.20301" lon="-4.04983">
        <ele>64.59465</ele>
        <time>2022-12-10T13:39:41.210Z</time>
      </trkpt>
      <trkpt lat="48.20292" lon="-4.04974">
        <ele>64.549493</ele>
        <time>2022-12-10T13:39:44.182Z</time>
      </trkpt>
      <trkpt lat="48.20282" lon="-4.04965">
        <ele>64.502062</ele>
        <time>2022-12-10T13:39:47.205Z</time>
      </trkpt>
      <trkpt lat="48.20273" lon="-4.04956">
        <ele>64.454611</ele>
        <time>2022-12-10T13:39:50.207Z</time>
      </trkpt>
      <trkpt lat="48.20263" lon="-4.04948">
        <ele>64.405934</ele>
        <time>2022-12-10T13:39:53.206Z</time>
      </trkpt>
      <trkpt lat="48.20253" lon="-4.04938">
        <ele>64.356827</ele>
        <time>2022-12-10T13:39:56.202Z</time>
      </trkpt>
      <trkpt lat="48.20243" lon="-4.04931">
        <ele>64.309632</ele>
        <time>2022-12-10T13:39:59.190Z</time>
      </trkpt>
      <trkpt lat="48.20234" lon="-4.04924">
        <ele>64.267811</ele>
        <time>2022-12-10T13:40:02.206Z</time>
      </trkpt>
      <trkpt lat="48.20225" lon="-4.04916">
        <ele>64.223108</ele>
        <time>2022-12-10T13:40:05.194Z</time>
      </trkpt>
      <trkpt lat="48.20215" lon="-4.04909">
        <ele>64.175914</ele>
        <time>2022-12-10T13:40:08.210Z</time>
      </trkpt>
      <trkpt lat="48.20204" lon="-4.049">
        <ele>64.125918</ele>
        <time>2022-12-10T13:40:11.194Z</time>
      </trkpt>
      <trkpt lat="48.20193" lon="-4.04892">
        <ele>64.073454</ele>
        <time>2022-12-10T13:40:14.208Z</time>
      </trkpt>
      <trkpt lat="48.20181" lon="-4.04885">
        <ele>64.02124</ele>
        <time>2022-12-10T13:40:17.209Z</time>
      </trkpt>
      <trkpt lat="48.2017" lon="-4.04878">
        <ele>63.968948</ele>
        <time>2022-12-10T13:40:20.209Z</time>
      </trkpt>
      <trkpt lat="48.20159" lon="-4.0487">
        <ele>63.917999</ele>
        <time>2022-12-10T13:40:23.210Z</time>
      </trkpt>
      <trkpt lat="48.20148" lon="-4.04863">
        <ele>63.74292</ele>
        <time>2022-12-10T13:40:26.212Z</time>
      </trkpt>
      <trkpt lat="48.20138" lon="-4.04857">
        <ele>63.515478</ele>
        <time>2022-12-10T13:40:29.185Z</time>
      </trkpt>
      <trkpt lat="48.20128" lon="-4.04852">
        <ele>63.274138</ele>
        <time>2022-12-10T13:40:32.186Z</time>
      </trkpt>
      <trkpt lat="48.20116" lon="-4.04848">
        <ele>63.016756</ele>
        <time>2022-12-10T13:40:35.201Z</time>
      </trkpt>
      <trkpt lat="48.20104" lon="-4.04844">
        <ele>62.758975</ele>
        <time>2022-12-10T13:40:38.191Z</time>
      </trkpt>
      <trkpt lat="48.20092" lon="-4.0484">
        <ele>62.502639</ele>
        <time>2022-12-10T13:40:41.197Z</time>
      </trkpt>
      <trkpt lat="48.2008" lon="-4.04837">
        <ele>62.240933</ele>
        <time>2022-12-10T13:40:44.188Z</time>
      </trkpt>
      <trkpt lat="48.20068" lon="-4.04833">
        <ele>61.977866</ele>
        <time>2022-12-10T13:40:47.208Z</time>
      </trkpt>
      <trkpt lat="48.20056" lon="-4.0483">
        <ele>61.717334</ele>
        <time>2022-12-10T13:40:50.204Z</time>
      </trkpt>
      <trkpt lat="48.20044" lon="-4.04829">
        <ele>61.461657</ele>
        <time>2022-12-10T13:40:53.206Z</time>
      </trkpt>
      <trkpt lat="48.20032" lon="-4.0483">
        <ele>61.208029</ele>
        <time>2022-12-10T13:40:56.185Z</time>
      </trkpt>
      <trkpt lat="48.20021" lon="-4.04831">
        <ele>60.96686</ele>
        <time>2022-12-10T13:40:59.184Z</time>
      </trkpt>
      <trkpt lat="48.2001" lon="-4.04833">
        <ele>60.727007</ele>
        <time>2022-12-10T13:41:02.211Z</time>
      </trkpt>
      <trkpt lat="48.19997" lon="-4.04835">
        <ele>60.468522</ele>
        <time>2022-12-10T13:41:05.199Z</time>
      </trkpt>
      <trkpt lat="48.19985" lon="-4.04838">
        <ele>60.208382</ele>
        <time>2022-12-10T13:41:08.206Z</time>
      </trkpt>
      <trkpt lat="48.19974" lon="-4.04843">
        <ele>60.062483</ele>
        <time>2022-12-10T13:41:11.208Z</time>
      </trkpt>
      <trkpt lat="48.19962" lon="-4.04849">
        <ele>60.040519</ele>
        <time>2022-12-10T13:41:14.183Z</time>
      </trkpt>
      <trkpt lat="48.19952" lon="-4.04855">
        <ele>60.020255</ele>
        <time>2022-12-10T13:41:17.209Z</time>
      </trkpt>
      <trkpt lat="48.19943" lon="-4.04861">
        <ele>60.002644</ele>
        <time>2022-12-10T13:41:20.195Z</time>
      </trkpt>
      <trkpt lat="48.19934" lon="-4.04867">
        <ele>59.985347</ele>
        <time>2022-12-10T13:41:23.194Z</time>
      </trkpt>
      <trkpt lat="48.19924" lon="-4.04871">
        <ele>59.966601</ele>
        <time>2022-12-10T13:41:26.204Z</time>
      </trkpt>
      <trkpt lat="48.19915" lon="-4.04877">
        <ele>59.948262</ele>
        <time>2022-12-10T13:41:29.215Z</time>
      </trkpt>
      <trkpt lat="48.19906" lon="-4.04881">
        <ele>59.930594</ele>
        <time>2022-12-10T13:41:32.200Z</time>
      </trkpt>
      <trkpt lat="48.19895" lon="-4.04886">
        <ele>59.910732</ele>
        <time>2022-12-10T13:41:35.210Z</time>
      </trkpt>
      <trkpt lat="48.19884" lon="-4.04891">
        <ele>59.888579</ele>
        <time>2022-12-10T13:41:38.202Z</time>
      </trkpt>
      <trkpt lat="48.19871" lon="-4.04895">
        <ele>59.865423</ele>
        <time>2022-12-10T13:41:41.206Z</time>
      </trkpt>
      <trkpt lat="48.19859" lon="-4.049">
        <ele>59.841619</ele>
        <time>2022-12-10T13:41:44.190Z</time>
      </trkpt>
      <trkpt lat="48.19846" lon="-4.04906">
        <ele>59.818091</ele>
        <time>2022-12-10T13:41:47.194Z</time>
      </trkpt>
      <trkpt lat="48.19834" lon="-4.04911">
        <ele>59.794665</ele>
        <time>2022-12-10T13:41:50.205Z</time>
      </trkpt>
      <trkpt lat="48.19821" lon="-4.04915">
        <ele>59.770561</ele>
        <time>2022-12-10T13:41:53.198Z</time>
      </trkpt>
      <trkpt lat="48.1981" lon="-4.04919">
        <ele>59.74936</ele>
        <time>2022-12-10T13:41:56.201Z</time>
      </trkpt>
      <trkpt lat="48.19799" lon="-4.04922">
        <ele>59.728167</ele>
        <time>2022-12-10T13:41:59.211Z</time>
      </trkpt>
      <trkpt lat="48.1979" lon="-4.04926">
        <ele>59.708599</ele>
        <time>2022-12-10T13:42:02.191Z</time>
      </trkpt>
      <trkpt lat="48.1978" lon="-4.04929">
        <ele>59.686882</ele>
        <time>2022-12-10T13:42:05.210Z</time>
      </trkpt>
      <trkpt lat="48.19768" lon="-4.04933">
        <ele>59.663134</ele>
        <time>2022-12-10T13:42:08.181Z</time>
      </trkpt>
      <trkpt lat="48.19757" lon="-4.04937">
        <ele>59.639692</ele>
        <time>2022-12-10T13:42:11.203Z</time>
      </trkpt>
      <trkpt lat="48.19746" lon="-4.0494">
        <ele>59.616654</ele>
        <time>2022-12-10T13:42:14.185Z</time>
      </trkpt>
      <trkpt lat="48.19735" lon="-4.04942">
        <ele>59.594339</ele>
        <time>2022-12-10T13:42:17.181Z</time>
      </trkpt>
      <trkpt lat="48.19724" lon="-4.04944">
        <ele>59.570802</ele>
        <time>2022-12-10T13:42:20.205Z</time>
      </trkpt>
      <trkpt lat="48.19712" lon="-4.04946">
        <ele>59.546808</ele>
        <time>2022-12-10T13:42:23.193Z</time>
      </trkpt>
      <trkpt lat="48.19701" lon="-4.04949">
        <ele>59.523546</ele>
        <time>2022-12-10T13:42:26.213Z</time>
      </trkpt>
      <trkpt lat="48.1969" lon="-4.04951">
        <ele>59.500807</ele>
        <time>2022-12-10T13:42:29.203Z</time>
      </trkpt>
      <trkpt lat="48.19679" lon="-4.04953">
        <ele>59.4773</ele>
        <time>2022-12-10T13:42:32.204Z</time>
      </trkpt>
      <trkpt lat="48.19667" lon="-4.04955">
        <ele>59.45356</ele>
        <time>2022-12-10T13:42:35.205Z</time>
      </trkpt>
      <trkpt lat="48.19656" lon="-4.04957">
        <ele>59.429285</ele>
        <time>2022-12-10T13:42:38.209Z</time>
      </trkpt>
      <trkpt lat="48.19644" lon="-4.04961">
        <ele>59.405098</ele>
        <time>2022-12-10T13:42:41.207Z</time>
      </trkpt>
      <trkpt lat="48.19632" lon="-4.04964">
        <ele>59.380458</ele>
        <time>2022-12-10T13:42:44.210Z</time>
      </trkpt>
      <trkpt lat="48.1962" lon="-4.04967">
        <ele>59.389044</ele>
        <time>2022-12-10T13:42:47.192Z</time>
      </trkpt>
      <trkpt lat="48.19608" lon="-4.04971">
        <ele>59.403532</ele>
        <time>2022-12-10T13:42:50.199Z</time>
      </trkpt>
      <trkpt lat="48.19597" lon="-4.04975">
        <ele>59.41759</ele>
        <time>2022-12-10T13:42:53.204Z</time>
      </trkpt>
      <trkpt lat="48.19585" lon="-4.04979">
        <ele>59.431731</ele>
        <time>2022-12-10T13:42:56.205Z</time>
      </trkpt>
      <trkpt lat="48.19573" lon="-4.04982">
        <ele>59.446187</ele>
        <time>2022-12-10T13:42:59.204Z</time>
      </trkpt>
      <trkpt lat="48.1956" lon="-4.04986">
        <ele>59.460874</ele>
        <time>2022-12-10T13:43:02.186Z</time>
      </trkpt>
      <trkpt lat="48.19548" lon="-4.0499">
        <ele>59.4759</ele>
        <time>2022-12-10T13:43:05.195Z</time>
      </trkpt>
      <trkpt lat="48.19535" lon="-4.04994">
        <ele>59.490811</ele>
        <time>2022-12-10T13:43:08.211Z</time>
      </trkpt>
      <trkpt lat="48.19524" lon="-4.04999">
        <ele>59.504986</ele>
        <time>2022-12-10T13:43:11.207Z</time>
      </trkpt>
      <trkpt lat="48.19512" lon="-4.05004">
        <ele>59.519203</ele>
        <time>2022-12-10T13:43:14.204Z</time>
      </trkpt>
      <trkpt lat="48.195" lon="-4.0501">
        <ele>59.533849</ele>
        <time>2022-12-10T13:43:17.208Z</time>
      </trkpt>
      <trkpt lat="48.19488" lon="-4.05016">
        <ele>59.548878</ele>
        <time>2022-12-10T13:43:20.196Z</time>
      </trkpt>
      <trkpt lat="48.19477" lon="-4.05021">
        <ele>59.562557</ele>
        <time>2022-12-10T13:43:23.207Z</time>
      </trkpt>
      <trkpt lat="48.19467" lon="-4.05027">
        <ele>59.57556</ele>
        <time>2022-12-10T13:43:26.189Z</time>
      </trkpt>
      <trkpt lat="48.19456" lon="-4.05032">
        <ele>59.598056</ele>
        <time>2022-12-10T13:43:29.207Z</time>
      </trkpt>
      <trkpt lat="48.19444" lon="-4.05038">
        <ele>59.734643</ele>
        <time>2022-12-10T13:43:32.208Z</time>
      </trkpt>
      <trkpt lat="48.19433" lon="-4.05043">
        <ele>59.872909</ele>
        <time>2022-12-10T13:43:35.197Z</time>
      </trkpt>
      <trkpt lat="48.19421" lon="-4.05048">
        <ele>60.005001</ele>
        <time>2022-12-10T13:43:38.203Z</time>
      </trkpt>
      <trkpt lat="48.1941" lon="-4.05052">
        <ele>60.142048</ele>
        <time>2022-12-10T13:43:41.210Z</time>
      </trkpt>
      <trkpt lat="48.19399" lon="-4.05055">
        <ele>60.269043</ele>
        <time>2022-12-10T13:43:44.210Z</time>
      </trkpt>
      <trkpt lat="48.19388" lon="-4.05059">
        <ele>60.393062</ele>
        <time>2022-12-10T13:43:47.204Z</time>
      </trkpt>
      <trkpt lat="48.19379" lon="-4.05064">
        <ele>60.508121</ele>
        <time>2022-12-10T13:43:50.195Z</time>
      </trkpt>
      <trkpt lat="48.19369" lon="-4.05069">
        <ele>60.61947</ele>
        <time>2022-12-10T13:43:53.214Z</time>
      </trkpt>
      <trkpt lat="48.1936" lon="-4.05073">
        <ele>60.728154</ele>
        <time>2022-12-10T13:43:56.210Z</time>
      </trkpt>
      <trkpt lat="48.1935" lon="-4.05076">
        <ele>60.841953</ele>
        <time>2022-12-10T13:43:59.191Z</time>
      </trkpt>
      <trkpt lat="48.1934" lon="-4.05077">
        <ele>60.959234</ele>
        <time>2022-12-10T13:44:02.183Z</time>
      </trkpt>
      <trkpt lat="48.19331" lon="-4.05081">
        <ele>61.063138</ele>
        <time>2022-12-10T13:44:05.200Z</time>
      </trkpt>
      <trkpt lat="48.1932" lon="-4.05085">
        <ele>61.197433</ele>
        <time>2022-12-10T13:44:09.219Z</time>
      </trkpt>
      <trkpt lat="48.1931" lon="-4.05089">
        <ele>61.314719</ele>
        <time>2022-12-10T13:44:12.184Z</time>
      </trkpt>
      <trkpt lat="48.19299" lon="-4.05093">
        <ele>61.438926</ele>
        <time>2022-12-10T13:44:15.203Z</time>
      </trkpt>
      <trkpt lat="48.1929" lon="-4.05096">
        <ele>61.548819</ele>
        <time>2022-12-10T13:44:18.178Z</time>
      </trkpt>
      <trkpt lat="48.19279" lon="-4.05101">
        <ele>61.656143</ele>
        <time>2022-12-10T13:44:21.200Z</time>
      </trkpt>
      <trkpt lat="48.19267" lon="-4.05104">
        <ele>61.728923</ele>
        <time>2022-12-10T13:44:24.187Z</time>
      </trkpt>
      <trkpt lat="48.19256" lon="-4.05107">
        <ele>61.80212</ele>
        <time>2022-12-10T13:44:27.184Z</time>
      </trkpt>
      <trkpt lat="48.19245" lon="-4.05112">
        <ele>61.877343</ele>
        <time>2022-12-10T13:44:30.214Z</time>
      </trkpt>
      <trkpt lat="48.19233" lon="-4.05117">
        <ele>61.953624</ele>
        <time>2022-12-10T13:44:33.191Z</time>
      </trkpt>
      <trkpt lat="48.19222" lon="-4.05121">
        <ele>62.027818</ele>
        <time>2022-12-10T13:44:36.211Z</time>
      </trkpt>
      <trkpt lat="48.19212" lon="-4.05124">
        <ele>62.095838</ele>
        <time>2022-12-10T13:44:39.195Z</time>
      </trkpt>
      <trkpt lat="48.19201" lon="-4.05128">
        <ele>62.163422</ele>
        <time>2022-12-10T13:44:42.197Z</time>
      </trkpt>
      <trkpt lat="48.19191" lon="-4.05131">
        <ele>62.23102</ele>
        <time>2022-12-10T13:44:45.213Z</time>
      </trkpt>
      <trkpt lat="48.1918" lon="-4.05134">
        <ele>62.302968</ele>
        <time>2022-12-10T13:44:48.209Z</time>
      </trkpt>
      <trkpt lat="48.19168" lon="-4.05138">
        <ele>62.377954</ele>
        <time>2022-12-10T13:44:51.202Z</time>
      </trkpt>
      <trkpt lat="48.19157" lon="-4.05142">
        <ele>62.453393</ele>
        <time>2022-12-10T13:44:54.205Z</time>
      </trkpt>
      <trkpt lat="48.19145" lon="-4.05146">
        <ele>62.528832</ele>
        <time>2022-12-10T13:44:57.182Z</time>
      </trkpt>
      <trkpt lat="48.19134" lon="-4.0515">
        <ele>62.604176</ele>
        <time>2022-12-10T13:45:00.180Z</time>
      </trkpt>
      <trkpt lat="48.19122" lon="-4.05154">
        <ele>62.681258</ele>
        <time>2022-12-10T13:45:03.211Z</time>
      </trkpt>
      <trkpt lat="48.19111" lon="-4.05158">
        <ele>62.756956</ele>
        <time>2022-12-10T13:45:06.197Z</time>
      </trkpt>
      <trkpt lat="48.19099" lon="-4.05161">
        <ele>62.762764</ele>
        <time>2022-12-10T13:45:09.206Z</time>
      </trkpt>
      <trkpt lat="48.19087" lon="-4.05164">
        <ele>62.739661</ele>
        <time>2022-12-10T13:45:12.184Z</time>
      </trkpt>
      <trkpt lat="48.19075" lon="-4.05166">
        <ele>62.71696</ele>
        <time>2022-12-10T13:45:15.180Z</time>
      </trkpt>
      <trkpt lat="48.19063" lon="-4.05168">
        <ele>62.694721</ele>
        <time>2022-12-10T13:45:18.204Z</time>
      </trkpt>
      <trkpt lat="48.19052" lon="-4.05172">
        <ele>62.672843</ele>
        <time>2022-12-10T13:45:21.197Z</time>
      </trkpt>
      <trkpt lat="48.19041" lon="-4.05176">
        <ele>62.651106</ele>
        <time>2022-12-10T13:45:24.198Z</time>
      </trkpt>
      <trkpt lat="48.19029" lon="-4.0518">
        <ele>62.627938</ele>
        <time>2022-12-10T13:45:27.192Z</time>
      </trkpt>
      <trkpt lat="48.19017" lon="-4.05185">
        <ele>62.605355</ele>
        <time>2022-12-10T13:45:30.181Z</time>
      </trkpt>
      <trkpt lat="48.19006" lon="-4.0519">
        <ele>62.582808</ele>
        <time>2022-12-10T13:45:33.206Z</time>
      </trkpt>
      <trkpt lat="48.18995" lon="-4.05195">
        <ele>62.562026</ele>
        <time>2022-12-10T13:45:36.211Z</time>
      </trkpt>
      <trkpt lat="48.18984" lon="-4.052">
        <ele>62.540521</ele>
        <time>2022-12-10T13:45:39.181Z</time>
      </trkpt>
      <trkpt lat="48.18974" lon="-4.05205">
        <ele>62.519255</ele>
        <time>2022-12-10T13:45:42.203Z</time>
      </trkpt>
      <trkpt lat="48.18962" lon="-4.0521">
        <ele>62.497284</ele>
        <time>2022-12-10T13:45:45.187Z</time>
      </trkpt>
      <trkpt lat="48.18951" lon="-4.05215">
        <ele>62.475313</ele>
        <time>2022-12-10T13:45:48.189Z</time>
      </trkpt>
      <trkpt lat="48.1894" lon="-4.05222">
        <ele>62.453291</ele>
        <time>2022-12-10T13:45:51.208Z</time>
      </trkpt>
      <trkpt lat="48.18929" lon="-4.0523">
        <ele>62.424834</ele>
        <time>2022-12-10T13:45:54.187Z</time>
      </trkpt>
      <trkpt lat="48.18918" lon="-4.05237">
        <ele>62.390889</ele>
        <time>2022-12-10T13:45:57.211Z</time>
      </trkpt>
      <trkpt lat="48.18907" lon="-4.05245">
        <ele>62.355697</ele>
        <time>2022-12-10T13:46:00.186Z</time>
      </trkpt>
      <trkpt lat="48.18897" lon="-4.05253">
        <ele>62.322953</ele>
        <time>2022-12-10T13:46:03.186Z</time>
      </trkpt>
      <trkpt lat="48.18888" lon="-4.05261">
        <ele>62.292048</ele>
        <time>2022-12-10T13:46:06.217Z</time>
      </trkpt>
      <trkpt lat="48.18879" lon="-4.0527">
        <ele>62.260637</ele>
        <time>2022-12-10T13:46:09.183Z</time>
      </trkpt>
      <trkpt lat="48.1887" lon="-4.05279">
        <ele>62.229122</ele>
        <time>2022-12-10T13:46:12.200Z</time>
      </trkpt>
      <trkpt lat="48.18861" lon="-4.05289">
        <ele>62.197865</ele>
        <time>2022-12-10T13:46:15.209Z</time>
      </trkpt>
      <trkpt lat="48.18852" lon="-4.05301">
        <ele>62.162944</ele>
        <time>2022-12-10T13:46:18.211Z</time>
      </trkpt>
      <trkpt lat="48.18845" lon="-4.05314">
        <ele>62.12976</ele>
        <time>2022-12-10T13:46:21.181Z</time>
      </trkpt>
      <trkpt lat="48.18838" lon="-4.05325">
        <ele>62.100296</ele>
        <time>2022-12-10T13:46:24.185Z</time>
      </trkpt>
      <trkpt lat="48.18831" lon="-4.05335">
        <ele>62.073545</ele>
        <time>2022-12-10T13:46:27.188Z</time>
      </trkpt>
      <trkpt lat="48.18821" lon="-4.05343">
        <ele>62.042337</ele>
        <time>2022-12-10T13:46:30.181Z</time>
      </trkpt>
      <trkpt lat="48.18811" lon="-4.05347">
        <ele>62.009987</ele>
        <time>2022-12-10T13:46:33.190Z</time>
      </trkpt>
      <trkpt lat="48.188" lon="-4.0535">
        <ele>61.97886</ele>
        <time>2022-12-10T13:46:36.181Z</time>
      </trkpt>
      <trkpt lat="48.18789" lon="-4.05352">
        <ele>61.945899</ele>
        <time>2022-12-10T13:46:39.183Z</time>
      </trkpt>
      <trkpt lat="48.18776" lon="-4.05352">
        <ele>61.897344</ele>
        <time>2022-12-10T13:46:42.185Z</time>
      </trkpt>
      <trkpt lat="48.18766" lon="-4.05353">
        <ele>61.830241</ele>
        <time>2022-12-10T13:46:45.201Z</time>
      </trkpt>
      <trkpt lat="48.18755" lon="-4.05352">
        <ele>61.75867</ele>
        <time>2022-12-10T13:46:48.211Z</time>
      </trkpt>
      <trkpt lat="48.18743" lon="-4.05352">
        <ele>61.683854</ele>
        <time>2022-12-10T13:46:51.186Z</time>
      </trkpt>
      <trkpt lat="48.18732" lon="-4.05349">
        <ele>61.610012</ele>
        <time>2022-12-10T13:46:54.187Z</time>
      </trkpt>
      <trkpt lat="48.18721" lon="-4.05348">
        <ele>61.542946</ele>
        <time>2022-12-10T13:46:57.183Z</time>
      </trkpt>
      <trkpt lat="48.1871" lon="-4.05348">
        <ele>61.472616</ele>
        <time>2022-12-10T13:47:00.201Z</time>
      </trkpt>
      <trkpt lat="48.18699" lon="-4.05345">
        <ele>61.400365</ele>
        <time>2022-12-10T13:47:03.193Z</time>
      </trkpt>
      <trkpt lat="48.18688" lon="-4.05342">
        <ele>61.32739</ele>
        <time>2022-12-10T13:47:06.187Z</time>
      </trkpt>
      <trkpt lat="48.18678" lon="-4.05338">
        <ele>61.261714</ele>
        <time>2022-12-10T13:47:09.215Z</time>
      </trkpt>
      <trkpt lat="48.18668" lon="-4.05336">
        <ele>61.201451</ele>
        <time>2022-12-10T13:47:12.208Z</time>
      </trkpt>
      <trkpt lat="48.18658" lon="-4.05332">
        <ele>61.131851</ele>
        <time>2022-12-10T13:47:15.212Z</time>
      </trkpt>
      <trkpt lat="48.18647" lon="-4.05328">
        <ele>61.06091</ele>
        <time>2022-12-10T13:47:18.184Z</time>
      </trkpt>
      <trkpt lat="48.18636" lon="-4.05323">
        <ele>60.987868</ele>
        <time>2022-12-10T13:47:21.202Z</time>
      </trkpt>
      <trkpt lat="48.18625" lon="-4.05318">
        <ele>60.916377</ele>
        <time>2022-12-10T13:47:24.207Z</time>
      </trkpt>
      <trkpt lat="48.18615" lon="-4.05312">
        <ele>60.84581</ele>
        <time>2022-12-10T13:47:27.205Z</time>
      </trkpt>
      <trkpt lat="48.18604" lon="-4.05307">
        <ele>60.774583</ele>
        <time>2022-12-10T13:47:30.209Z</time>
      </trkpt>
      <trkpt lat="48.18593" lon="-4.053">
        <ele>60.80487</ele>
        <time>2022-12-10T13:47:33.207Z</time>
      </trkpt>
      <trkpt lat="48.18582" lon="-4.05293">
        <ele>60.834847</ele>
        <time>2022-12-10T13:47:36.206Z</time>
      </trkpt>
      <trkpt lat="48.18571" lon="-4.05286">
        <ele>60.86527</ele>
        <time>2022-12-10T13:47:39.187Z</time>
      </trkpt>
      <trkpt lat="48.1856" lon="-4.05278">
        <ele>60.89524</ele>
        <time>2022-12-10T13:47:42.197Z</time>
      </trkpt>
      <trkpt lat="48.1855" lon="-4.0527">
        <ele>60.925437</ele>
        <time>2022-12-10T13:47:45.198Z</time>
      </trkpt>
      <trkpt lat="48.18539" lon="-4.05262">
        <ele>60.956173</ele>
        <time>2022-12-10T13:47:48.205Z</time>
      </trkpt>
      <trkpt lat="48.18528" lon="-4.05254">
        <ele>60.986021</ele>
        <time>2022-12-10T13:47:51.206Z</time>
      </trkpt>
      <trkpt lat="48.18518" lon="-4.05245">
        <ele>61.015626</ele>
        <time>2022-12-10T13:47:54.210Z</time>
      </trkpt>
      <trkpt lat="48.18508" lon="-4.05237">
        <ele>61.046221</ele>
        <time>2022-12-10T13:47:57.210Z</time>
      </trkpt>
      <trkpt lat="48.18497" lon="-4.05228">
        <ele>61.076623</ele>
        <time>2022-12-10T13:48:00.205Z</time>
      </trkpt>
      <trkpt lat="48.18486" lon="-4.05218">
        <ele>61.107935</ele>
        <time>2022-12-10T13:48:03.211Z</time>
      </trkpt>
      <trkpt lat="48.18477" lon="-4.05211">
        <ele>61.135645</ele>
        <time>2022-12-10T13:48:06.181Z</time>
      </trkpt>
      <trkpt lat="48.18467" lon="-4.05202">
        <ele>61.16322</ele>
        <time>2022-12-10T13:48:09.208Z</time>
      </trkpt>
      <trkpt lat="48.18457" lon="-4.05193">
        <ele>61.193496</ele>
        <time>2022-12-10T13:48:12.210Z</time>
      </trkpt>
      <trkpt lat="48.18447" lon="-4.05182">
        <ele>61.225543</ele>
        <time>2022-12-10T13:48:15.211Z</time>
      </trkpt>
      <trkpt lat="48.18436" lon="-4.05172">
        <ele>61.255093</ele>
        <time>2022-12-10T13:48:18.184Z</time>
      </trkpt>
      <trkpt lat="48.18425" lon="-4.05163">
        <ele>61.285461</ele>
        <time>2022-12-10T13:48:21.211Z</time>
      </trkpt>
      <trkpt lat="48.18413" lon="-4.05153">
        <ele>61.315678</ele>
        <time>2022-12-10T13:48:24.209Z</time>
      </trkpt>
      <trkpt lat="48.18403" lon="-4.05143">
        <ele>61.344087</ele>
        <time>2022-12-10T13:48:27.187Z</time>
      </trkpt>
      <trkpt lat="48.18394" lon="-4.05133">
        <ele>61.370138</ele>
        <time>2022-12-10T13:48:30.212Z</time>
      </trkpt>
      <trkpt lat="48.18384" lon="-4.05123">
        <ele>61.397496</ele>
        <time>2022-12-10T13:48:33.183Z</time>
      </trkpt>
      <trkpt lat="48.18374" lon="-4.05114">
        <ele>61.425373</ele>
        <time>2022-12-10T13:48:36.206Z</time>
      </trkpt>
      <trkpt lat="48.18364" lon="-4.05103">
        <ele>61.453569</ele>
        <time>2022-12-10T13:48:39.206Z</time>
      </trkpt>
      <trkpt lat="48.18354" lon="-4.05093">
        <ele>61.482115</ele>
        <time>2022-12-10T13:48:42.208Z</time>
      </trkpt>
      <trkpt lat="48.18345" lon="-4.05081">
        <ele>61.51029</ele>
        <time>2022-12-10T13:48:45.187Z</time>
      </trkpt>
      <trkpt lat="48.18335" lon="-4.0507">
        <ele>61.538933</ele>
        <time>2022-12-10T13:48:48.209Z</time>
      </trkpt>
      <trkpt lat="48.18325" lon="-4.05058">
        <ele>61.568659</ele>
        <time>2022-12-10T13:48:51.212Z</time>
      </trkpt>
      <trkpt lat="48.18316" lon="-4.05045">
        <ele>61.598342</ele>
        <time>2022-12-10T13:48:54.211Z</time>
      </trkpt>
      <trkpt lat="48.18306" lon="-4.05032">
        <ele>61.628198</ele>
        <time>2022-12-10T13:48:57.205Z</time>
      </trkpt>
      <trkpt lat="48.18297" lon="-4.05019">
        <ele>61.676112</ele>
        <time>2022-12-10T13:49:00.205Z</time>
      </trkpt>
      <trkpt lat="48.18288" lon="-4.05005">
        <ele>61.757884</ele>
        <time>2022-12-10T13:49:03.209Z</time>
      </trkpt>
      <trkpt lat="48.18279" lon="-4.04989">
        <ele>61.842156</ele>
        <time>2022-12-10T13:49:06.199Z</time>
      </trkpt>
      <trkpt lat="48.18274" lon="-4.04979">
        <ele>61.898564</ele>
        <time>2022-12-10T13:49:08.207Z</time>
      </trkpt>
      <trkpt lat="48.18265" lon="-4.04963">
        <ele>61.980847</ele>
        <time>2022-12-10T13:49:11.211Z</time>
      </trkpt>
      <trkpt lat="48.18257" lon="-4.04948">
        <ele>62.062354</ele>
        <time>2022-12-10T13:49:14.213Z</time>
      </trkpt>
      <trkpt lat="48.18251" lon="-4.04932">
        <ele>62.140869</ele>
        <time>2022-12-10T13:49:17.212Z</time>
      </trkpt>
      <trkpt lat="48.18245" lon="-4.04916">
        <ele>62.21606</ele>
        <time>2022-12-10T13:49:20.203Z</time>
      </trkpt>
      <trkpt lat="48.18238" lon="-4.04901">
        <ele>62.293246</ele>
        <time>2022-12-10T13:49:23.211Z</time>
      </trkpt>
      <trkpt lat="48.18232" lon="-4.04885">
        <ele>62.370383</ele>
        <time>2022-12-10T13:49:26.207Z</time>
      </trkpt>
      <trkpt lat="48.18225" lon="-4.04869">
        <ele>62.449001</ele>
        <time>2022-12-10T13:49:29.210Z</time>
      </trkpt>
      <trkpt lat="48.18219" lon="-4.04852">
        <ele>62.529604</ele>
        <time>2022-12-10T13:49:32.208Z</time>
      </trkpt>
      <trkpt lat="48.18212" lon="-4.04834">
        <ele>62.613184</ele>
        <time>2022-12-10T13:49:35.210Z</time>
      </trkpt>
      <trkpt lat="48.18206" lon="-4.04817">
        <ele>62.696884</ele>
        <time>2022-12-10T13:49:38.210Z</time>
      </trkpt>
      <trkpt lat="48.182" lon="-4.04799">
        <ele>62.776755</ele>
        <time>2022-12-10T13:49:41.209Z</time>
      </trkpt>
      <trkpt lat="48.18195" lon="-4.04782">
        <ele>62.813061</ele>
        <time>2022-12-10T13:49:44.187Z</time>
      </trkpt>
      <trkpt lat="48.18191" lon="-4.04766">
        <ele>62.846513</ele>
        <time>2022-12-10T13:49:47.197Z</time>
      </trkpt>
      <trkpt lat="48.18187" lon="-4.04749">
        <ele>62.88138</ele>
        <time>2022-12-10T13:49:50.202Z</time>
      </trkpt>
      <trkpt lat="48.18185" lon="-4.04732">
        <ele>62.916562</ele>
        <time>2022-12-10T13:49:53.208Z</time>
      </trkpt>
      <trkpt lat="48.18182" lon="-4.04715">
        <ele>62.950791</ele>
        <time>2022-12-10T13:49:56.209Z</time>
      </trkpt>
      <trkpt lat="48.18179" lon="-4.04698">
        <ele>62.984329</ele>
        <time>2022-12-10T13:49:59.217Z</time>
      </trkpt>
      <trkpt lat="48.18176" lon="-4.04682">
        <ele>63.017107</ele>
        <time>2022-12-10T13:50:02.191Z</time>
      </trkpt>
      <trkpt lat="48.18174" lon="-4.04666">
        <ele>63.05015</ele>
        <time>2022-12-10T13:50:05.193Z</time>
      </trkpt>
      <trkpt lat="48.18171" lon="-4.0465">
        <ele>63.082704</ele>
        <time>2022-12-10T13:50:08.208Z</time>
      </trkpt>
      <trkpt lat="48.18168" lon="-4.04634">
        <ele>63.11507</ele>
        <time>2022-12-10T13:50:11.179Z</time>
      </trkpt>
      <trkpt lat="48.18165" lon="-4.04618">
        <ele>63.146945</ele>
        <time>2022-12-10T13:50:14.194Z</time>
      </trkpt>
      <trkpt lat="48.18163" lon="-4.04604">
        <ele>63.174736</ele>
        <time>2022-12-10T13:50:17.197Z</time>
      </trkpt>
      <trkpt lat="48.18161" lon="-4.04589">
        <ele>63.204949</ele>
        <time>2022-12-10T13:50:20.209Z</time>
      </trkpt>
      <trkpt lat="48.1816" lon="-4.04574">
        <ele>63.234865</ele>
        <time>2022-12-10T13:50:23.198Z</time>
      </trkpt>
      <trkpt lat="48.18158" lon="-4.04558">
        <ele>63.266124</ele>
        <time>2022-12-10T13:50:27.201Z</time>
      </trkpt>
      <trkpt lat="48.18156" lon="-4.04545">
        <ele>63.293154</ele>
        <time>2022-12-10T13:50:40.195Z</time>
      </trkpt>
      <trkpt lat="48.18145" lon="-4.04528">
        <ele>63.41332</ele>
        <time>2022-12-10T13:51:14.184Z</time>
      </trkpt>
      <trkpt lat="48.1814" lon="-4.04516">
        <ele>63.4963</ele>
        <time>2022-12-10T13:51:17.208Z</time>
      </trkpt>
      <trkpt lat="48.18136" lon="-4.04501">
        <ele>63.59178</ele>
        <time>2022-12-10T13:51:20.184Z</time>
      </trkpt>
      <trkpt lat="48.18132" lon="-4.04486">
        <ele>63.685385</ele>
        <time>2022-12-10T13:51:23.216Z</time>
      </trkpt>
      <trkpt lat="48.18128" lon="-4.0447">
        <ele>63.781083</ele>
        <time>2022-12-10T13:51:26.214Z</time>
      </trkpt>
      <trkpt lat="48.18127" lon="-4.04454">
        <ele>63.876984</ele>
        <time>2022-12-10T13:51:29.181Z</time>
      </trkpt>
      <trkpt lat="48.18126" lon="-4.04438">
        <ele>63.969976</ele>
        <time>2022-12-10T13:51:32.214Z</time>
      </trkpt>
      <trkpt lat="48.18125" lon="-4.04421">
        <ele>64.071913</ele>
        <time>2022-12-10T13:51:35.213Z</time>
      </trkpt>
      <trkpt lat="48.18124" lon="-4.04404">
        <ele>64.169965</ele>
        <time>2022-12-10T13:51:38.208Z</time>
      </trkpt>
      <trkpt lat="48.18123" lon="-4.04387">
        <ele>64.268525</ele>
        <time>2022-12-10T13:51:41.202Z</time>
      </trkpt>
      <trkpt lat="48.18122" lon="-4.04371">
        <ele>64.365741</ele>
        <time>2022-12-10T13:51:44.196Z</time>
      </trkpt>
      <trkpt lat="48.18122" lon="-4.04355">
        <ele>64.458788</ele>
        <time>2022-12-10T13:51:47.186Z</time>
      </trkpt>
      <trkpt lat="48.18122" lon="-4.04339">
        <ele>64.552357</ele>
        <time>2022-12-10T13:51:50.211Z</time>
      </trkpt>
      <trkpt lat="48.18122" lon="-4.04322">
        <ele>64.650663</ele>
        <time>2022-12-10T13:51:53.208Z</time>
      </trkpt>
      <trkpt lat="48.18124" lon="-4.04305">
        <ele>64.750831</ele>
        <time>2022-12-10T13:51:56.183Z</time>
      </trkpt>
      <trkpt lat="48.18127" lon="-4.04289">
        <ele>64.850616</ele>
        <time>2022-12-10T13:51:59.179Z</time>
      </trkpt>
      <trkpt lat="48.1813" lon="-4.04273">
        <ele>64.798685</ele>
        <time>2022-12-10T13:52:02.211Z</time>
      </trkpt>
      <trkpt lat="48.18135" lon="-4.04259">
        <ele>64.685209</ele>
        <time>2022-12-10T13:52:05.189Z</time>
      </trkpt>
      <trkpt lat="48.18141" lon="-4.04245">
        <ele>64.575168</ele>
        <time>2022-12-10T13:52:08.207Z</time>
      </trkpt>
      <trkpt lat="48.18146" lon="-4.04232">
        <ele>64.462375</ele>
        <time>2022-12-10T13:52:11.186Z</time>
      </trkpt>
      <trkpt lat="48.18152" lon="-4.0422">
        <ele>64.356924</ele>
        <time>2022-12-10T13:52:14.191Z</time>
      </trkpt>
      <trkpt lat="48.18161" lon="-4.04207">
        <ele>64.234839</ele>
        <time>2022-12-10T13:52:17.186Z</time>
      </trkpt>
      <trkpt lat="48.18168" lon="-4.04196">
        <ele>64.119683</ele>
        <time>2022-12-10T13:52:20.215Z</time>
      </trkpt>
      <trkpt lat="48.18176" lon="-4.04183">
        <ele>63.998093</ele>
        <time>2022-12-10T13:52:23.208Z</time>
      </trkpt>
      <trkpt lat="48.18186" lon="-4.04172">
        <ele>63.868392</ele>
        <time>2022-12-10T13:52:26.209Z</time>
      </trkpt>
      <trkpt lat="48.18195" lon="-4.04162">
        <ele>63.749135</ele>
        <time>2022-12-10T13:52:29.210Z</time>
      </trkpt>
      <trkpt lat="48.18205" lon="-4.04153">
        <ele>63.629584</ele>
        <time>2022-12-10T13:52:32.204Z</time>
      </trkpt>
      <trkpt lat="48.18214" lon="-4.04143">
        <ele>63.509276</ele>
        <time>2022-12-10T13:52:35.192Z</time>
      </trkpt>
      <trkpt lat="48.18224" lon="-4.04134">
        <ele>63.389204</ele>
        <time>2022-12-10T13:52:38.211Z</time>
      </trkpt>
      <trkpt lat="48.18234" lon="-4.04125">
        <ele>63.267868</ele>
        <time>2022-12-10T13:52:41.207Z</time>
      </trkpt>
      <trkpt lat="48.18243" lon="-4.04116">
        <ele>63.147052</ele>
        <time>2022-12-10T13:52:44.191Z</time>
      </trkpt>
      <trkpt lat="48.18253" lon="-4.04108">
        <ele>63.028228</ele>
        <time>2022-12-10T13:52:47.207Z</time>
      </trkpt>
      <trkpt lat="48.18264" lon="-4.04099">
        <ele>62.864941</ele>
        <time>2022-12-10T13:52:50.212Z</time>
      </trkpt>
      <trkpt lat="48.18274" lon="-4.04089">
        <ele>62.688065</ele>
        <time>2022-12-10T13:52:53.210Z</time>
      </trkpt>
      <trkpt lat="48.18284" lon="-4.04081">
        <ele>62.512065</ele>
        <time>2022-12-10T13:52:56.209Z</time>
      </trkpt>
      <trkpt lat="48.18294" lon="-4.04072">
        <ele>62.330308</ele>
        <time>2022-12-10T13:52:59.209Z</time>
      </trkpt>
      <trkpt lat="48.18305" lon="-4.04063">
        <ele>62.14887</ele>
        <time>2022-12-10T13:53:02.205Z</time>
      </trkpt>
      <trkpt lat="48.18315" lon="-4.04054">
        <ele>61.972366</ele>
        <time>2022-12-10T13:53:05.198Z</time>
      </trkpt>
      <trkpt lat="48.18324" lon="-4.04047">
        <ele>61.80657</ele>
        <time>2022-12-10T13:53:08.214Z</time>
      </trkpt>
      <trkpt lat="48.18333" lon="-4.04036">
        <ele>61.636715</ele>
        <time>2022-12-10T13:53:11.188Z</time>
      </trkpt>
      <trkpt lat="48.18344" lon="-4.04029">
        <ele>61.45893</ele>
        <time>2022-12-10T13:53:14.188Z</time>
      </trkpt>
      <trkpt lat="48.18355" lon="-4.04021">
        <ele>61.271015</ele>
        <time>2022-12-10T13:53:17.210Z</time>
      </trkpt>
      <trkpt lat="48.18366" lon="-4.04012">
        <ele>61.083594</ele>
        <time>2022-12-10T13:53:20.204Z</time>
      </trkpt>
      <trkpt lat="48.18377" lon="-4.04004">
        <ele>60.898821</ele>
        <time>2022-12-10T13:53:23.191Z</time>
      </trkpt>
      <trkpt lat="48.18388" lon="-4.03996">
        <ele>60.715003</ele>
        <time>2022-12-10T13:53:26.201Z</time>
      </trkpt>
      <trkpt lat="48.184" lon="-4.03987">
        <ele>60.522154</ele>
        <time>2022-12-10T13:53:29.208Z</time>
      </trkpt>
      <trkpt lat="48.1841" lon="-4.03979">
        <ele>60.340045</ele>
        <time>2022-12-10T13:53:32.210Z</time>
      </trkpt>
      <trkpt lat="48.18421" lon="-4.03971">
        <ele>60.282256</ele>
        <time>2022-12-10T13:53:35.213Z</time>
      </trkpt>
      <trkpt lat="48.18431" lon="-4.03963">
        <ele>60.307156</ele>
        <time>2022-12-10T13:53:38.209Z</time>
      </trkpt>
      <trkpt lat="48.18442" lon="-4.03954">
        <ele>60.331693</ele>
        <time>2022-12-10T13:53:41.187Z</time>
      </trkpt>
      <trkpt lat="48.18453" lon="-4.03946">
        <ele>60.357086</ele>
        <time>2022-12-10T13:53:44.209Z</time>
      </trkpt>
      <trkpt lat="48.18464" lon="-4.03937">
        <ele>60.383838</ele>
        <time>2022-12-10T13:53:47.198Z</time>
      </trkpt>
      <trkpt lat="48.18476" lon="-4.03929">
        <ele>60.409483</ele>
        <time>2022-12-10T13:53:50.215Z</time>
      </trkpt>
      <trkpt lat="48.18487" lon="-4.03922">
        <ele>60.434952</ele>
        <time>2022-12-10T13:53:53.214Z</time>
      </trkpt>
      <trkpt lat="48.18499" lon="-4.03914">
        <ele>60.461914</ele>
        <time>2022-12-10T13:53:56.210Z</time>
      </trkpt>
      <trkpt lat="48.1851" lon="-4.03907">
        <ele>60.487893</ele>
        <time>2022-12-10T13:53:59.210Z</time>
      </trkpt>
      <trkpt lat="48.18522" lon="-4.039">
        <ele>60.51322</ele>
        <time>2022-12-10T13:54:02.188Z</time>
      </trkpt>
      <trkpt lat="48.18532" lon="-4.03893">
        <ele>60.536932</ele>
        <time>2022-12-10T13:54:05.214Z</time>
      </trkpt>
      <trkpt lat="48.18544" lon="-4.03887">
        <ele>60.56273</ele>
        <time>2022-12-10T13:54:08.205Z</time>
      </trkpt>
      <trkpt lat="48.18555" lon="-4.0388">
        <ele>60.587798</ele>
        <time>2022-12-10T13:54:11.186Z</time>
      </trkpt>
      <trkpt lat="48.18565" lon="-4.03874">
        <ele>60.610464</ele>
        <time>2022-12-10T13:54:14.208Z</time>
      </trkpt>
      <trkpt lat="48.18577" lon="-4.03867">
        <ele>60.635547</ele>
        <time>2022-12-10T13:54:17.206Z</time>
      </trkpt>
      <trkpt lat="48.18588" lon="-4.0386">
        <ele>60.683693</ele>
        <time>2022-12-10T13:54:20.201Z</time>
      </trkpt>
      <trkpt lat="48.18598" lon="-4.03854">
        <ele>60.733023</ele>
        <time>2022-12-10T13:54:23.208Z</time>
      </trkpt>
      <trkpt lat="48.18609" lon="-4.03846">
        <ele>60.785679</ele>
        <time>2022-12-10T13:54:26.206Z</time>
      </trkpt>
      <trkpt lat="48.18621" lon="-4.03837">
        <ele>60.842132</ele>
        <time>2022-12-10T13:54:29.212Z</time>
      </trkpt>
      <trkpt lat="48.18628" lon="-4.0383">
        <ele>60.881428</ele>
        <time>2022-12-10T13:54:31.209Z</time>
      </trkpt>
      <trkpt lat="48.18638" lon="-4.03819">
        <ele>60.935149</ele>
        <time>2022-12-10T13:54:34.189Z</time>
      </trkpt>
      <trkpt lat="48.18648" lon="-4.03809">
        <ele>60.987128</ele>
        <time>2022-12-10T13:54:37.210Z</time>
      </trkpt>
      <trkpt lat="48.18659" lon="-4.03799">
        <ele>61.042086</ele>
        <time>2022-12-10T13:54:40.209Z</time>
      </trkpt>
      <trkpt lat="48.18669" lon="-4.03789">
        <ele>61.096528</ele>
        <time>2022-12-10T13:54:43.211Z</time>
      </trkpt>
      <trkpt lat="48.1868" lon="-4.0378">
        <ele>61.150538</ele>
        <time>2022-12-10T13:54:46.185Z</time>
      </trkpt>
      <trkpt lat="48.18691" lon="-4.0377">
        <ele>61.2079</ele>
        <time>2022-12-10T13:54:49.210Z</time>
      </trkpt>
      <trkpt lat="48.18703" lon="-4.03761">
        <ele>61.264147</ele>
        <time>2022-12-10T13:54:52.203Z</time>
      </trkpt>
      <trkpt lat="48.18714" lon="-4.03752">
        <ele>61.31954</ele>
        <time>2022-12-10T13:54:55.209Z</time>
      </trkpt>
      <trkpt lat="48.18725" lon="-4.03744">
        <ele>61.373109</ele>
        <time>2022-12-10T13:54:58.211Z</time>
      </trkpt>
      <trkpt lat="48.18736" lon="-4.03735">
        <ele>61.42963</ele>
        <time>2022-12-10T13:55:01.203Z</time>
      </trkpt>
      <trkpt lat="48.18747" lon="-4.03727">
        <ele>61.584479</ele>
        <time>2022-12-10T13:55:04.210Z</time>
      </trkpt>
      <trkpt lat="48.18758" lon="-4.03718">
        <ele>61.746095</ele>
        <time>2022-12-10T13:55:07.213Z</time>
      </trkpt>
      <trkpt lat="48.18769" lon="-4.0371">
        <ele>61.904365</ele>
        <time>2022-12-10T13:55:10.210Z</time>
      </trkpt>
      <trkpt lat="48.1878" lon="-4.03702">
        <ele>62.052471</ele>
        <time>2022-12-10T13:55:13.187Z</time>
      </trkpt>
      <trkpt lat="48.1879" lon="-4.03695">
        <ele>62.194224</ele>
        <time>2022-12-10T13:55:16.210Z</time>
      </trkpt>
      <trkpt lat="48.188" lon="-4.03688">
        <ele>62.329646</ele>
        <time>2022-12-10T13:55:19.211Z</time>
      </trkpt>
      <trkpt lat="48.18811" lon="-4.03683">
        <ele>62.475991</ele>
        <time>2022-12-10T13:55:22.198Z</time>
      </trkpt>
      <trkpt lat="48.18822" lon="-4.0368">
        <ele>62.614767</ele>
        <time>2022-12-10T13:55:25.212Z</time>
      </trkpt>
      <trkpt lat="48.18833" lon="-4.03677">
        <ele>62.754622</ele>
        <time>2022-12-10T13:55:28.194Z</time>
      </trkpt>
      <trkpt lat="48.18843" lon="-4.03674">
        <ele>62.889691</ele>
        <time>2022-12-10T13:55:31.206Z</time>
      </trkpt>
      <trkpt lat="48.18854" lon="-4.03671">
        <ele>63.030202</ele>
        <time>2022-12-10T13:55:34.178Z</time>
      </trkpt>
      <trkpt lat="48.18865" lon="-4.03668">
        <ele>63.168979</ele>
        <time>2022-12-10T13:55:37.205Z</time>
      </trkpt>
      <trkpt lat="48.18876" lon="-4.03666">
        <ele>63.302302</ele>
        <time>2022-12-10T13:55:40.208Z</time>
      </trkpt>
      <trkpt lat="48.18885" lon="-4.03664">
        <ele>63.427345</ele>
        <time>2022-12-10T13:55:43.205Z</time>
      </trkpt>
      <trkpt lat="48.18895" lon="-4.0366">
        <ele>63.547203</ele>
        <time>2022-12-10T13:55:46.208Z</time>
      </trkpt>
      <trkpt lat="48.18904" lon="-4.03656">
        <ele>63.668189</ele>
        <time>2022-12-10T13:55:49.207Z</time>
      </trkpt>
      <trkpt lat="48.18913" lon="-4.0365">
        <ele>63.673618</ele>
        <time>2022-12-10T13:55:52.209Z</time>
      </trkpt>
      <trkpt lat="48.18922" lon="-4.03648">
        <ele>63.650577</ele>
        <time>2022-12-10T13:55:55.202Z</time>
      </trkpt>
      <trkpt lat="48.18933" lon="-4.03644">
        <ele>63.619782</ele>
        <time>2022-12-10T13:55:59.184Z</time>
      </trkpt>
      <trkpt lat="48.18944" lon="-4.03641">
        <ele>63.592347</ele>
        <time>2022-12-10T13:56:02.185Z</time>
      </trkpt>
      <trkpt lat="48.18954" lon="-4.03638">
        <ele>63.565731</ele>
        <time>2022-12-10T13:56:05.201Z</time>
      </trkpt>
      <trkpt lat="48.18965" lon="-4.03635">
        <ele>63.538427</ele>
        <time>2022-12-10T13:56:08.213Z</time>
      </trkpt>
      <trkpt lat="48.18976" lon="-4.03632">
        <ele>63.509455</ele>
        <time>2022-12-10T13:56:11.212Z</time>
      </trkpt>
      <trkpt lat="48.18987" lon="-4.03628">
        <ele>63.479513</ele>
        <time>2022-12-10T13:56:14.192Z</time>
      </trkpt>
      <trkpt lat="48.18998" lon="-4.03623">
        <ele>63.450733</ele>
        <time>2022-12-10T13:56:17.221Z</time>
      </trkpt>
      <trkpt lat="48.19008" lon="-4.0362">
        <ele>63.425369</ele>
        <time>2022-12-10T13:56:20.213Z</time>
      </trkpt>
      <trkpt lat="48.19019" lon="-4.03618">
        <ele>63.394843</ele>
        <time>2022-12-10T13:56:24.195Z</time>
      </trkpt>
      <trkpt lat="48.19029" lon="-4.03614">
        <ele>63.370818</ele>
        <time>2022-12-10T13:56:27.190Z</time>
      </trkpt>
      <trkpt lat="48.19038" lon="-4.03611">
        <ele>63.345631</ele>
        <time>2022-12-10T13:56:30.185Z</time>
      </trkpt>
      <trkpt lat="48.19049" lon="-4.03607">
        <ele>63.318373</ele>
        <time>2022-12-10T13:56:33.202Z</time>
      </trkpt>
      <trkpt lat="48.1906" lon="-4.03603">
        <ele>63.289302</ele>
        <time>2022-12-10T13:56:36.214Z</time>
      </trkpt>
      <trkpt lat="48.19075" lon="-4.03598">
        <ele>63.250078</ele>
        <time>2022-12-10T13:56:40.182Z</time>
      </trkpt>
      <trkpt lat="48.19086" lon="-4.03595">
        <ele>63.239022</ele>
        <time>2022-12-10T13:56:43.184Z</time>
      </trkpt>
      <trkpt lat="48.19097" lon="-4.03591">
        <ele>63.252578</ele>
        <time>2022-12-10T13:56:46.202Z</time>
      </trkpt>
      <trkpt lat="48.19108" lon="-4.03588">
        <ele>63.26607</ele>
        <time>2022-12-10T13:56:49.202Z</time>
      </trkpt>
      <trkpt lat="48.1912" lon="-4.03584">
        <ele>63.279839</ele>
        <time>2022-12-10T13:56:52.209Z</time>
      </trkpt>
      <trkpt lat="48.19132" lon="-4.0358">
        <ele>63.294084</ele>
        <time>2022-12-10T13:56:55.209Z</time>
      </trkpt>
      <trkpt lat="48.19143" lon="-4.03576">
        <ele>63.307844</ele>
        <time>2022-12-10T13:56:58.202Z</time>
      </trkpt>
      <trkpt lat="48.19154" lon="-4.03572">
        <ele>63.321483</ele>
        <time>2022-12-10T13:57:01.187Z</time>
      </trkpt>
      <trkpt lat="48.19166" lon="-4.03569">
        <ele>63.335645</ele>
        <time>2022-12-10T13:57:04.215Z</time>
      </trkpt>
      <trkpt lat="48.19178" lon="-4.03565">
        <ele>63.349676</ele>
        <time>2022-12-10T13:57:07.192Z</time>
      </trkpt>
      <trkpt lat="48.1919" lon="-4.03564">
        <ele>63.363896</ele>
        <time>2022-12-10T13:57:10.182Z</time>
      </trkpt>
      <trkpt lat="48.19202" lon="-4.03563">
        <ele>63.378116</ele>
        <time>2022-12-10T13:57:13.204Z</time>
      </trkpt>
      <trkpt lat="48.19215" lon="-4.03562">
        <ele>63.392937</ele>
        <time>2022-12-10T13:57:16.204Z</time>
      </trkpt>
      <trkpt lat="48.19227" lon="-4.03561">
        <ele>63.407841</ele>
        <time>2022-12-10T13:57:19.211Z</time>
      </trkpt>
      <trkpt lat="48.19241" lon="-4.0356">
        <ele>63.423815</ele>
        <time>2022-12-10T13:57:22.211Z</time>
      </trkpt>
      <trkpt lat="48.19254" lon="-4.03559">
        <ele>63.439563</ele>
        <time>2022-12-10T13:57:25.209Z</time>
      </trkpt>
      <trkpt lat="48.19267" lon="-4.03558">
        <ele>63.450286</ele>
        <time>2022-12-10T13:57:28.211Z</time>
      </trkpt>
      <trkpt lat="48.1928" lon="-4.03558">
        <ele>63.458813</ele>
        <time>2022-12-10T13:57:31.210Z</time>
      </trkpt>
      <trkpt lat="48.19293" lon="-4.03557">
        <ele>63.467686</ele>
        <time>2022-12-10T13:57:34.206Z</time>
      </trkpt>
      <trkpt lat="48.19306" lon="-4.03556">
        <ele>63.476089</ele>
        <time>2022-12-10T13:57:37.207Z</time>
      </trkpt>
      <trkpt lat="48.19319" lon="-4.03555">
        <ele>63.484635</ele>
        <time>2022-12-10T13:57:40.212Z</time>
      </trkpt>
      <trkpt lat="48.19331" lon="-4.03555">
        <ele>63.493163</ele>
        <time>2022-12-10T13:57:43.204Z</time>
      </trkpt>
      <trkpt lat="48.19344" lon="-4.03556">
        <ele>63.501497</ele>
        <time>2022-12-10T13:57:46.211Z</time>
      </trkpt>
      <trkpt lat="48.19356" lon="-4.03557">
        <ele>63.509497</ele>
        <time>2022-12-10T13:57:49.210Z</time>
      </trkpt>
      <trkpt lat="48.19367" lon="-4.03557">
        <ele>63.516769</ele>
        <time>2022-12-10T13:57:52.212Z</time>
      </trkpt>
      <trkpt lat="48.19377" lon="-4.03558">
        <ele>63.523573</ele>
        <time>2022-12-10T13:57:55.210Z</time>
      </trkpt>
      <trkpt lat="48.19389" lon="-4.0356">
        <ele>63.531275</ele>
        <time>2022-12-10T13:57:58.205Z</time>
      </trkpt>
      <trkpt lat="48.194" lon="-4.03563">
        <ele>63.539043</ele>
        <time>2022-12-10T13:58:01.213Z</time>
      </trkpt>
      <trkpt lat="48.19411" lon="-4.03565">
        <ele>63.546405</ele>
        <time>2022-12-10T13:58:04.196Z</time>
      </trkpt>
      <trkpt lat="48.19422" lon="-4.0357">
        <ele>63.554062</ele>
        <time>2022-12-10T13:58:07.201Z</time>
      </trkpt>
      <trkpt lat="48.19434" lon="-4.03573">
        <ele>63.562166</ele>
        <time>2022-12-10T13:58:10.209Z</time>
      </trkpt>
      <trkpt lat="48.19446" lon="-4.03578">
        <ele>63.652983</ele>
        <time>2022-12-10T13:58:13.209Z</time>
      </trkpt>
      <trkpt lat="48.19456" lon="-4.03581">
        <ele>63.760995</ele>
        <time>2022-12-10T13:58:16.213Z</time>
      </trkpt>
      <trkpt lat="48.19468" lon="-4.03585">
        <ele>63.880298</ele>
        <time>2022-12-10T13:58:19.214Z</time>
      </trkpt>
      <trkpt lat="48.19479" lon="-4.0359">
        <ele>63.997384</ele>
        <time>2022-12-10T13:58:22.214Z</time>
      </trkpt>
      <trkpt lat="48.19491" lon="-4.03593">
        <ele>64.115841</ele>
        <time>2022-12-10T13:58:25.207Z</time>
      </trkpt>
      <trkpt lat="48.19502" lon="-4.03598">
        <ele>64.233466</ele>
        <time>2022-12-10T13:58:28.194Z</time>
      </trkpt>
      <trkpt lat="48.19514" lon="-4.03602">
        <ele>64.354016</ele>
        <time>2022-12-10T13:58:31.212Z</time>
      </trkpt>
      <trkpt lat="48.19527" lon="-4.03606">
        <ele>64.483923</ele>
        <time>2022-12-10T13:58:34.212Z</time>
      </trkpt>
      <trkpt lat="48.19538" lon="-4.03611">
        <ele>64.604617</ele>
        <time>2022-12-10T13:58:37.204Z</time>
      </trkpt>
      <trkpt lat="48.19549" lon="-4.03616">
        <ele>64.71534</ele>
        <time>2022-12-10T13:58:40.202Z</time>
      </trkpt>
      <trkpt lat="48.19559" lon="-4.03621">
        <ele>64.82325</ele>
        <time>2022-12-10T13:58:43.199Z</time>
      </trkpt>
      <trkpt lat="48.1957" lon="-4.03627">
        <ele>64.944364</ele>
        <time>2022-12-10T13:58:46.190Z</time>
      </trkpt>
      <trkpt lat="48.19582" lon="-4.03634">
        <ele>65.070417</ele>
        <time>2022-12-10T13:58:49.209Z</time>
      </trkpt>
      <trkpt lat="48.19591" lon="-4.0364">
        <ele>65.172312</ele>
        <time>2022-12-10T13:58:52.210Z</time>
      </trkpt>
      <trkpt lat="48.19601" lon="-4.03646">
        <ele>65.272968</ele>
        <time>2022-12-10T13:58:55.205Z</time>
      </trkpt>
      <trkpt lat="48.19611" lon="-4.0365">
        <ele>65.374276</ele>
        <time>2022-12-10T13:58:58.229Z</time>
      </trkpt>
      <trkpt lat="48.19621" lon="-4.03656">
        <ele>65.4606</ele>
        <time>2022-12-10T13:59:01.209Z</time>
      </trkpt>
      <trkpt lat="48.1963" lon="-4.03661">
        <ele>65.546737</ele>
        <time>2022-12-10T13:59:04.184Z</time>
      </trkpt>
      <trkpt lat="48.1964" lon="-4.03667">
        <ele>65.629516</ele>
        <time>2022-12-10T13:59:07.185Z</time>
      </trkpt>
      <trkpt lat="48.1965" lon="-4.03674">
        <ele>65.723033</ele>
        <time>2022-12-10T13:59:10.209Z</time>
      </trkpt>
      <trkpt lat="48.19661" lon="-4.03682">
        <ele>65.822257</ele>
        <time>2022-12-10T13:59:13.207Z</time>
      </trkpt>
      <trkpt lat="48.19673" lon="-4.03689">
        <ele>65.928712</ele>
        <time>2022-12-10T13:59:16.187Z</time>
      </trkpt>
      <trkpt lat="48.19686" lon="-4.03694">
        <ele>66.032722</ele>
        <time>2022-12-10T13:59:19.187Z</time>
      </trkpt>
      <trkpt lat="48.19697" lon="-4.037">
        <ele>66.134541</ele>
        <time>2022-12-10T13:59:22.227Z</time>
      </trkpt>
      <trkpt lat="48.19709" lon="-4.03705">
        <ele>66.233082</ele>
        <time>2022-12-10T13:59:25.210Z</time>
      </trkpt>
      <trkpt lat="48.19719" lon="-4.0371">
        <ele>66.316727</ele>
        <time>2022-12-10T13:59:28.209Z</time>
      </trkpt>
      <trkpt lat="48.19739" lon="-4.03718">
        <ele>66.48849</ele>
        <time>2022-12-10T14:00:00.188Z</time>
      </trkpt>
      <trkpt lat="48.19748" lon="-4.03722">
        <ele>66.566099</ele>
        <time>2022-12-10T14:00:03.209Z</time>
      </trkpt>
      <trkpt lat="48.19757" lon="-4.03727">
        <ele>66.645343</ele>
        <time>2022-12-10T14:00:06.192Z</time>
      </trkpt>
      <trkpt lat="48.19768" lon="-4.03731">
        <ele>66.739742</ele>
        <time>2022-12-10T14:00:10.213Z</time>
      </trkpt>
      <trkpt lat="48.19778" lon="-4.03735">
        <ele>66.821213</ele>
        <time>2022-12-10T14:00:13.183Z</time>
      </trkpt>
      <trkpt lat="48.19788" lon="-4.03738">
        <ele>66.824818</ele>
        <time>2022-12-10T14:00:16.218Z</time>
      </trkpt>
      <trkpt lat="48.19799" lon="-4.03741">
        <ele>66.814049</ele>
        <time>2022-12-10T14:00:19.208Z</time>
      </trkpt>
      <trkpt lat="48.19809" lon="-4.03743">
        <ele>66.803419</ele>
        <time>2022-12-10T14:00:22.210Z</time>
      </trkpt>
      <trkpt lat="48.1982" lon="-4.03743">
        <ele>66.792849</ele>
        <time>2022-12-10T14:00:25.209Z</time>
      </trkpt>
      <trkpt lat="48.1983" lon="-4.03743">
        <ele>66.782578</ele>
        <time>2022-12-10T14:00:28.209Z</time>
      </trkpt>
      <trkpt lat="48.19841" lon="-4.03744">
        <ele>66.771763</ele>
        <time>2022-12-10T14:00:31.209Z</time>
      </trkpt>
      <trkpt lat="48.19853" lon="-4.03747">
        <ele>66.760176</ele>
        <time>2022-12-10T14:00:34.192Z</time>
      </trkpt>
      <trkpt lat="48.19863" lon="-4.03751">
        <ele>66.748944</ele>
        <time>2022-12-10T14:00:37.204Z</time>
      </trkpt>
      <trkpt lat="48.19873" lon="-4.03757">
        <ele>66.738393</ele>
        <time>2022-12-10T14:00:40.209Z</time>
      </trkpt>
      <trkpt lat="48.19884" lon="-4.03763">
        <ele>66.727251</ele>
        <time>2022-12-10T14:00:43.209Z</time>
      </trkpt>
      <trkpt lat="48.19895" lon="-4.03769">
        <ele>66.715389</ele>
        <time>2022-12-10T14:00:46.212Z</time>
      </trkpt>
      <trkpt lat="48.19907" lon="-4.03773">
        <ele>66.703554</ele>
        <time>2022-12-10T14:00:49.206Z</time>
      </trkpt>
      <trkpt lat="48.19918" lon="-4.03777">
        <ele>66.692139</ele>
        <time>2022-12-10T14:00:52.209Z</time>
      </trkpt>
      <trkpt lat="48.1993" lon="-4.03781">
        <ele>66.679867</ele>
        <time>2022-12-10T14:00:55.209Z</time>
      </trkpt>
      <trkpt lat="48.19942" lon="-4.03785">
        <ele>66.667721</ele>
        <time>2022-12-10T14:00:58.187Z</time>
      </trkpt>
      <trkpt lat="48.19954" lon="-4.03791">
        <ele>66.655065</ele>
        <time>2022-12-10T14:01:01.197Z</time>
      </trkpt>
      <trkpt lat="48.19964" lon="-4.038">
        <ele>66.607512</ele>
        <time>2022-12-10T14:01:04.200Z</time>
      </trkpt>
      <trkpt lat="48.19975" lon="-4.03807">
        <ele>66.555552</ele>
        <time>2022-12-10T14:01:07.195Z</time>
      </trkpt>
      <trkpt lat="48.19986" lon="-4.03814">
        <ele>66.502393</ele>
        <time>2022-12-10T14:01:10.184Z</time>
      </trkpt>
      <trkpt lat="48.19997" lon="-4.0382">
        <ele>66.449876</ele>
        <time>2022-12-10T14:01:13.190Z</time>
      </trkpt>
      <trkpt lat="48.20009" lon="-4.03824">
        <ele>66.397097</ele>
        <time>2022-12-10T14:01:16.211Z</time>
      </trkpt>
      <trkpt lat="48.20021" lon="-4.03827">
        <ele>66.344077</ele>
        <time>2022-12-10T14:01:19.192Z</time>
      </trkpt>
      <trkpt lat="48.20032" lon="-4.03831">
        <ele>66.295447</ele>
        <time>2022-12-10T14:01:22.209Z</time>
      </trkpt>
      <trkpt lat="48.20042" lon="-4.03835">
        <ele>66.2504</ele>
        <time>2022-12-10T14:01:25.188Z</time>
      </trkpt>
      <trkpt lat="48.20053" lon="-4.03841">
        <ele>66.198572</ele>
        <time>2022-12-10T14:01:28.200Z</time>
      </trkpt>
      <trkpt lat="48.20065" lon="-4.03846">
        <ele>66.143659</ele>
        <time>2022-12-10T14:01:31.195Z</time>
      </trkpt>
      <trkpt lat="48.20077" lon="-4.03851">
        <ele>66.089745</ele>
        <time>2022-12-10T14:01:34.202Z</time>
      </trkpt>
      <trkpt lat="48.20089" lon="-4.03856">
        <ele>66.035831</ele>
        <time>2022-12-10T14:01:37.186Z</time>
      </trkpt>
      <trkpt lat="48.201" lon="-4.03859">
        <ele>65.987535</ele>
        <time>2022-12-10T14:01:40.209Z</time>
      </trkpt>
      <trkpt lat="48.20111" lon="-4.03862">
        <ele>65.937138</ele>
        <time>2022-12-10T14:01:43.187Z</time>
      </trkpt>
      <trkpt lat="48.20123" lon="-4.03864">
        <ele>65.884089</ele>
        <time>2022-12-10T14:01:46.221Z</time>
      </trkpt>
      <trkpt lat="48.20136" lon="-4.03866">
        <ele>65.891753</ele>
        <time>2022-12-10T14:01:49.184Z</time>
      </trkpt>
      <trkpt lat="48.20148" lon="-4.03867">
        <ele>65.920861</ele>
        <time>2022-12-10T14:01:52.213Z</time>
      </trkpt>
      <trkpt lat="48.2016" lon="-4.0387">
        <ele>65.949863</ele>
        <time>2022-12-10T14:01:55.213Z</time>
      </trkpt>
      <trkpt lat="48.20172" lon="-4.03872">
        <ele>65.980011</ele>
        <time>2022-12-10T14:01:58.193Z</time>
      </trkpt>
      <trkpt lat="48.20183" lon="-4.03876">
        <ele>66.006428</ele>
        <time>2022-12-10T14:02:01.209Z</time>
      </trkpt>
      <trkpt lat="48.20193" lon="-4.03878">
        <ele>66.030883</ele>
        <time>2022-12-10T14:02:04.199Z</time>
      </trkpt>
      <trkpt lat="48.20205" lon="-4.03879">
        <ele>66.058264</ele>
        <time>2022-12-10T14:02:07.209Z</time>
      </trkpt>
      <trkpt lat="48.20216" lon="-4.03883">
        <ele>66.086589</ele>
        <time>2022-12-10T14:02:10.204Z</time>
      </trkpt>
      <trkpt lat="48.20228" lon="-4.03885">
        <ele>66.114406</ele>
        <time>2022-12-10T14:02:13.208Z</time>
      </trkpt>
      <trkpt lat="48.20239" lon="-4.03887">
        <ele>66.142633</ele>
        <time>2022-12-10T14:02:16.201Z</time>
      </trkpt>
      <trkpt lat="48.20255" lon="-4.0389">
        <ele>66.181082</ele>
        <time>2022-12-10T14:02:20.204Z</time>
      </trkpt>
      <trkpt lat="48.20267" lon="-4.0389">
        <ele>66.207656</ele>
        <time>2022-12-10T14:02:23.187Z</time>
      </trkpt>
      <trkpt lat="48.20282" lon="-4.03888">
        <ele>66.243872</ele>
        <time>2022-12-10T14:02:27.211Z</time>
      </trkpt>
      <trkpt lat="48.20294" lon="-4.03887">
        <ele>66.272634</ele>
        <time>2022-12-10T14:02:30.210Z</time>
      </trkpt>
      <trkpt lat="48.20305" lon="-4.03889">
        <ele>66.302858</ele>
        <time>2022-12-10T14:02:33.205Z</time>
      </trkpt>
      <trkpt lat="48.20317" lon="-4.03889">
        <ele>66.450072</ele>
        <time>2022-12-10T14:02:36.197Z</time>
      </trkpt>
      <trkpt lat="48.20328" lon="-4.03889">
        <ele>66.579964</ele>
        <time>2022-12-10T14:02:39.206Z</time>
      </trkpt>
      <trkpt lat="48.20339" lon="-4.03885">
        <ele>66.728597</ele>
        <time>2022-12-10T14:02:43.192Z</time>
      </trkpt>
      <trkpt lat="48.20351" lon="-4.0388">
        <ele>66.876713</ele>
        <time>2022-12-10T14:02:46.203Z</time>
      </trkpt>
      <trkpt lat="48.20362" lon="-4.03874">
        <ele>67.019635</ele>
        <time>2022-12-10T14:02:49.193Z</time>
      </trkpt>
      <trkpt lat="48.20374" lon="-4.03869">
        <ele>67.172009</ele>
        <time>2022-12-10T14:02:52.202Z</time>
      </trkpt>
      <trkpt lat="48.20386" lon="-4.03863">
        <ele>67.334343</ele>
        <time>2022-12-10T14:02:55.179Z</time>
      </trkpt>
      <trkpt lat="48.20399" lon="-4.03859">
        <ele>67.494195</ele>
        <time>2022-12-10T14:02:58.203Z</time>
      </trkpt>
      <trkpt lat="48.2041" lon="-4.03856">
        <ele>67.635236</ele>
        <time>2022-12-10T14:03:01.210Z</time>
      </trkpt>
      <trkpt lat="48.20422" lon="-4.03852">
        <ele>67.790424</ele>
        <time>2022-12-10T14:03:04.205Z</time>
      </trkpt>
      <trkpt lat="48.20434" lon="-4.0385">
        <ele>67.929157</ele>
        <time>2022-12-10T14:03:07.212Z</time>
      </trkpt>
      <trkpt lat="48.20445" lon="-4.03849">
        <ele>68.075169</ele>
        <time>2022-12-10T14:03:10.204Z</time>
      </trkpt>
      <trkpt lat="48.20457" lon="-4.03848">
        <ele>68.219201</ele>
        <time>2022-12-10T14:03:13.216Z</time>
      </trkpt>
      <trkpt lat="48.20468" lon="-4.03846">
        <ele>68.357407</ele>
        <time>2022-12-10T14:03:16.205Z</time>
      </trkpt>
      <trkpt lat="48.20479" lon="-4.03845">
        <ele>68.49261</ele>
        <time>2022-12-10T14:03:19.209Z</time>
      </trkpt>
      <trkpt lat="48.20489" lon="-4.03844">
        <ele>68.721882</ele>
        <time>2022-12-10T14:03:22.205Z</time>
      </trkpt>
      <trkpt lat="48.20499" lon="-4.03843">
        <ele>68.98674</ele>
        <time>2022-12-10T14:03:25.213Z</time>
      </trkpt>
      <trkpt lat="48.20509" lon="-4.03842">
        <ele>69.240764</ele>
        <time>2022-12-10T14:03:28.207Z</time>
      </trkpt>
      <trkpt lat="48.20522" lon="-4.03842">
        <ele>69.570058</ele>
        <time>2022-12-10T14:03:32.193Z</time>
      </trkpt>
      <trkpt lat="48.20532" lon="-4.03842">
        <ele>69.82917</ele>
        <time>2022-12-10T14:03:35.207Z</time>
      </trkpt>
      <trkpt lat="48.20542" lon="-4.03841">
        <ele>70.098669</ele>
        <time>2022-12-10T14:03:38.207Z</time>
      </trkpt>
      <trkpt lat="48.20551" lon="-4.03842">
        <ele>70.337452</ele>
        <time>2022-12-10T14:03:41.210Z</time>
      </trkpt>
      <trkpt lat="48.20563" lon="-4.03842">
        <ele>70.627739</ele>
        <time>2022-12-10T14:03:45.197Z</time>
      </trkpt>
      <trkpt lat="48.20575" lon="-4.03843">
        <ele>70.939483</ele>
        <time>2022-12-10T14:03:49.216Z</time>
      </trkpt>
      <trkpt lat="48.20587" lon="-4.03845">
        <ele>71.249389</ele>
        <time>2022-12-10T14:03:53.209Z</time>
      </trkpt>
      <trkpt lat="48.20596" lon="-4.03845">
        <ele>71.490388</ele>
        <time>2022-12-10T14:03:56.206Z</time>
      </trkpt>
      <trkpt lat="48.20605" lon="-4.03846">
        <ele>71.739232</ele>
        <time>2022-12-10T14:03:59.208Z</time>
      </trkpt>
      <trkpt lat="48.20615" lon="-4.03846">
        <ele>71.988464</ele>
        <time>2022-12-10T14:04:02.212Z</time>
      </trkpt>
      <trkpt lat="48.20624" lon="-4.03847">
        <ele>72.226904</ele>
        <time>2022-12-10T14:04:05.209Z</time>
      </trkpt>
      <trkpt lat="48.20634" lon="-4.03848">
        <ele>72.470964</ele>
        <time>2022-12-10T14:04:08.194Z</time>
      </trkpt>
      <trkpt lat="48.20644" lon="-4.03848">
        <ele>72.735309</ele>
        <time>2022-12-10T14:04:11.209Z</time>
      </trkpt>
      <trkpt lat="48.20654" lon="-4.03848">
        <ele>73.004808</ele>
        <time>2022-12-10T14:04:14.204Z</time>
      </trkpt>
      <trkpt lat="48.20664" lon="-4.03847">
        <ele>73.256704</ele>
        <time>2022-12-10T14:04:17.212Z</time>
      </trkpt>
      <trkpt lat="48.20675" lon="-4.03846">
        <ele>73.489113</ele>
        <time>2022-12-10T14:04:20.215Z</time>
      </trkpt>
      <trkpt lat="48.20687" lon="-4.03846">
        <ele>73.741143</ele>
        <time>2022-12-10T14:04:23.217Z</time>
      </trkpt>
      <trkpt lat="48.20698" lon="-4.03846">
        <ele>73.988934</ele>
        <time>2022-12-10T14:04:26.191Z</time>
      </trkpt>
      <trkpt lat="48.20709" lon="-4.03847">
        <ele>74.230013</ele>
        <time>2022-12-10T14:04:29.210Z</time>
      </trkpt>
      <trkpt lat="48.2072" lon="-4.03848">
        <ele>74.471462</ele>
        <time>2022-12-10T14:04:32.209Z</time>
      </trkpt>
      <trkpt lat="48.20731" lon="-4.03847">
        <ele>74.719254</ele>
        <time>2022-12-10T14:04:35.202Z</time>
      </trkpt>
      <trkpt lat="48.20742" lon="-4.03847">
        <ele>74.962457</ele>
        <time>2022-12-10T14:04:38.213Z</time>
      </trkpt>
      <trkpt lat="48.20757" lon="-4.03849">
        <ele>75.289647</ele>
        <time>2022-12-10T14:04:42.215Z</time>
      </trkpt>
      <trkpt lat="48.20767" lon="-4.0385">
        <ele>75.506951</ele>
        <time>2022-12-10T14:04:45.213Z</time>
      </trkpt>
      <trkpt lat="48.20778" lon="-4.0385">
        <ele>75.73942</ele>
        <time>2022-12-10T14:04:48.194Z</time>
      </trkpt>
      <trkpt lat="48.20789" lon="-4.03851">
        <ele>75.987108</ele>
        <time>2022-12-10T14:04:51.209Z</time>
      </trkpt>
      <trkpt lat="48.208" lon="-4.03852">
        <ele>76.239341</ele>
        <time>2022-12-10T14:04:54.222Z</time>
      </trkpt>
      <trkpt lat="48.20811" lon="-4.03852">
        <ele>76.480366</ele>
        <time>2022-12-10T14:04:57.188Z</time>
      </trkpt>
      <trkpt lat="48.20823" lon="-4.03852">
        <ele>76.727986</ele>
        <time>2022-12-10T14:05:00.209Z</time>
      </trkpt>
      <trkpt lat="48.20833" lon="-4.03852">
        <ele>76.962584</ele>
        <time>2022-12-10T14:05:03.201Z</time>
      </trkpt>
      <trkpt lat="48.20844" lon="-4.03853">
        <ele>77.140373</ele>
        <time>2022-12-10T14:05:06.205Z</time>
      </trkpt>
      <trkpt lat="48.20855" lon="-4.03854">
        <ele>77.184595</ele>
        <time>2022-12-10T14:05:09.191Z</time>
      </trkpt>
      <trkpt lat="48.20867" lon="-4.03854">
        <ele>77.229615</ele>
        <time>2022-12-10T14:05:12.215Z</time>
      </trkpt>
      <trkpt lat="48.20878" lon="-4.03854">
        <ele>77.274632</ele>
        <time>2022-12-10T14:05:15.212Z</time>
      </trkpt>
      <trkpt lat="48.20889" lon="-4.03857">
        <ele>77.321333</ele>
        <time>2022-12-10T14:05:18.191Z</time>
      </trkpt>
      <trkpt lat="48.20901" lon="-4.03858">
        <ele>77.369267</ele>
        <time>2022-12-10T14:05:21.205Z</time>
      </trkpt>
      <trkpt lat="48.20912" lon="-4.03858">
        <ele>77.413075</ele>
        <time>2022-12-10T14:05:24.215Z</time>
      </trkpt>
      <trkpt lat="48.20923" lon="-4.03857">
        <ele>77.457725</ele>
        <time>2022-12-10T14:05:27.193Z</time>
      </trkpt>
      <trkpt lat="48.20934" lon="-4.03857">
        <ele>77.50235</ele>
        <time>2022-12-10T14:05:30.202Z</time>
      </trkpt>
      <trkpt lat="48.20944" lon="-4.03856">
        <ele>77.543449</ele>
        <time>2022-12-10T14:05:33.211Z</time>
      </trkpt>
      <trkpt lat="48.20956" lon="-4.03856">
        <ele>77.588061</ele>
        <time>2022-12-10T14:05:36.212Z</time>
      </trkpt>
      <trkpt lat="48.20966" lon="-4.03855">
        <ele>77.631072</ele>
        <time>2022-12-10T14:05:39.209Z</time>
      </trkpt>
      <trkpt lat="48.20977" lon="-4.03855">
        <ele>77.67449</ele>
        <time>2022-12-10T14:05:42.212Z</time>
      </trkpt>
      <trkpt lat="48.20988" lon="-4.03855">
        <ele>77.7171</ele>
        <time>2022-12-10T14:05:45.212Z</time>
      </trkpt>
      <trkpt lat="48.20999" lon="-4.03854">
        <ele>77.762177</ele>
        <time>2022-12-10T14:05:48.208Z</time>
      </trkpt>
      <trkpt lat="48.2101" lon="-4.03853">
        <ele>77.808928</ele>
        <time>2022-12-10T14:05:51.190Z</time>
      </trkpt>
      <trkpt lat="48.21023" lon="-4.03851">
        <ele>77.876506</ele>
        <time>2022-12-10T14:05:54.196Z</time>
      </trkpt>
      <trkpt lat="48.21033" lon="-4.03849">
        <ele>78.019847</ele>
        <time>2022-12-10T14:05:57.203Z</time>
      </trkpt>
      <trkpt lat="48.21045" lon="-4.03847">
        <ele>78.170067</ele>
        <time>2022-12-10T14:06:00.183Z</time>
      </trkpt>
      <trkpt lat="48.21056" lon="-4.03843">
        <ele>78.32328</ele>
        <time>2022-12-10T14:06:03.214Z</time>
      </trkpt>
      <trkpt lat="48.21067" lon="-4.03841">
        <ele>78.470211</ele>
        <time>2022-12-10T14:06:06.201Z</time>
      </trkpt>
      <trkpt lat="48.21078" lon="-4.03837">
        <ele>78.623969</ele>
        <time>2022-12-10T14:06:09.204Z</time>
      </trkpt>
      <trkpt lat="48.21089" lon="-4.03832">
        <ele>78.770353</ele>
        <time>2022-12-10T14:06:12.209Z</time>
      </trkpt>
      <trkpt lat="48.211" lon="-4.03828">
        <ele>78.914963</ele>
        <time>2022-12-10T14:06:15.201Z</time>
      </trkpt>
      <trkpt lat="48.2111" lon="-4.03824">
        <ele>79.053396</ele>
        <time>2022-12-10T14:06:18.192Z</time>
      </trkpt>
      <trkpt lat="48.2112" lon="-4.0382">
        <ele>79.188701</ele>
        <time>2022-12-10T14:06:21.216Z</time>
      </trkpt>
      <trkpt lat="48.21129" lon="-4.03814">
        <ele>79.324947</ele>
        <time>2022-12-10T14:06:24.188Z</time>
      </trkpt>
      <trkpt lat="48.2114" lon="-4.03809">
        <ele>79.473591</ele>
        <time>2022-12-10T14:06:27.213Z</time>
      </trkpt>
      <trkpt lat="48.21151" lon="-4.03805">
        <ele>79.621379</ele>
        <time>2022-12-10T14:06:30.211Z</time>
      </trkpt>
      <trkpt lat="48.21163" lon="-4.03802">
        <ele>79.776932</ele>
        <time>2022-12-10T14:06:33.209Z</time>
      </trkpt>
      <trkpt lat="48.21179" lon="-4.03799">
        <ele>79.987801</ele>
        <time>2022-12-10T14:06:37.193Z</time>
      </trkpt>
      <trkpt lat="48.2119" lon="-4.03796">
        <ele>80.142761</ele>
        <time>2022-12-10T14:06:40.217Z</time>
      </trkpt>
      <trkpt lat="48.212" lon="-4.03792">
        <ele>80.062593</ele>
        <time>2022-12-10T14:06:43.218Z</time>
      </trkpt>
      <trkpt lat="48.21208" lon="-4.03785">
        <ele>79.77085</ele>
        <time>2022-12-10T14:06:46.211Z</time>
      </trkpt>
      <trkpt lat="48.21218" lon="-4.03781">
        <ele>79.450496</ele>
        <time>2022-12-10T14:06:49.197Z</time>
      </trkpt>
      <trkpt lat="48.21229" lon="-4.03776">
        <ele>79.079425</ele>
        <time>2022-12-10T14:06:52.204Z</time>
      </trkpt>
      <trkpt lat="48.2124" lon="-4.0377">
        <ele>78.728716</ele>
        <time>2022-12-10T14:06:55.209Z</time>
      </trkpt>
      <trkpt lat="48.21251" lon="-4.03764">
        <ele>78.349917</ele>
        <time>2022-12-10T14:06:58.191Z</time>
      </trkpt>
      <trkpt lat="48.21262" lon="-4.03758">
        <ele>77.985174</ele>
        <time>2022-12-10T14:07:01.208Z</time>
      </trkpt>
      <trkpt lat="48.21272" lon="-4.03751">
        <ele>77.63353</ele>
        <time>2022-12-10T14:07:04.196Z</time>
      </trkpt>
      <trkpt lat="48.21282" lon="-4.03745">
        <ele>77.286049</ele>
        <time>2022-12-10T14:07:07.187Z</time>
      </trkpt>
      <trkpt lat="48.21293" lon="-4.03738">
        <ele>76.918163</ele>
        <time>2022-12-10T14:07:10.207Z</time>
      </trkpt>
      <trkpt lat="48.21303" lon="-4.03731">
        <ele>76.559483</ele>
        <time>2022-12-10T14:07:13.209Z</time>
      </trkpt>
      <trkpt lat="48.21314" lon="-4.03724">
        <ele>76.203306</ele>
        <time>2022-12-10T14:07:16.214Z</time>
      </trkpt>
      <trkpt lat="48.21323" lon="-4.03716">
        <ele>75.85618</ele>
        <time>2022-12-10T14:07:19.203Z</time>
      </trkpt>
      <trkpt lat="48.21334" lon="-4.03707">
        <ele>75.465088</ele>
        <time>2022-12-10T14:07:22.208Z</time>
      </trkpt>
      <trkpt lat="48.21344" lon="-4.03697">
        <ele>75.086297</ele>
        <time>2022-12-10T14:07:25.193Z</time>
      </trkpt>
      <trkpt lat="48.21354" lon="-4.03687">
        <ele>74.705772</ele>
        <time>2022-12-10T14:07:28.209Z</time>
      </trkpt>
      <trkpt lat="48.21363" lon="-4.03678">
        <ele>74.326149</ele>
        <time>2022-12-10T14:07:31.214Z</time>
      </trkpt>
      <trkpt lat="48.21373" lon="-4.03668">
        <ele>73.79299</ele>
        <time>2022-12-10T14:07:34.202Z</time>
      </trkpt>
      <trkpt lat="48.2138" lon="-4.03657">
        <ele>73.330833</ele>
        <time>2022-12-10T14:07:37.191Z</time>
      </trkpt>
      <trkpt lat="48.2139" lon="-4.03645">
        <ele>72.785737</ele>
        <time>2022-12-10T14:07:40.211Z</time>
      </trkpt>
      <trkpt lat="48.21397" lon="-4.03634">
        <ele>72.330977</ele>
        <time>2022-12-10T14:07:43.213Z</time>
      </trkpt>
      <trkpt lat="48.21404" lon="-4.03624">
        <ele>71.920364</ele>
        <time>2022-12-10T14:07:46.202Z</time>
      </trkpt>
      <trkpt lat="48.21412" lon="-4.03609">
        <ele>71.371488</ele>
        <time>2022-12-10T14:07:49.225Z</time>
      </trkpt>
      <trkpt lat="48.21419" lon="-4.03593">
        <ele>70.802197</ele>
        <time>2022-12-10T14:07:52.206Z</time>
      </trkpt>
      <trkpt lat="48.21427" lon="-4.03578">
        <ele>70.236387</ele>
        <time>2022-12-10T14:07:55.201Z</time>
      </trkpt>
      <trkpt lat="48.21434" lon="-4.03564">
        <ele>69.720532</ele>
        <time>2022-12-10T14:07:58.204Z</time>
      </trkpt>
      <trkpt lat="48.21442" lon="-4.03549">
        <ele>69.190646</ele>
        <time>2022-12-10T14:08:01.215Z</time>
      </trkpt>
      <trkpt lat="48.2145" lon="-4.03536">
        <ele>68.654104</ele>
        <time>2022-12-10T14:08:04.203Z</time>
      </trkpt>
      <trkpt lat="48.21457" lon="-4.03522">
        <ele>68.13729</ele>
        <time>2022-12-10T14:08:07.201Z</time>
      </trkpt>
      <trkpt lat="48.21465" lon="-4.03508">
        <ele>67.609671</ele>
        <time>2022-12-10T14:08:10.212Z</time>
      </trkpt>
      <trkpt lat="48.21471" lon="-4.03495">
        <ele>67.142013</ele>
        <time>2022-12-10T14:08:13.206Z</time>
      </trkpt>
      <trkpt lat="48.21476" lon="-4.03483">
        <ele>66.744954</ele>
        <time>2022-12-10T14:08:16.211Z</time>
      </trkpt>
      <trkpt lat="48.21482" lon="-4.03471">
        <ele>66.611731</ele>
        <time>2022-12-10T14:08:19.203Z</time>
      </trkpt>
      <trkpt lat="48.21489" lon="-4.03458">
        <ele>66.516454</ele>
        <time>2022-12-10T14:08:22.202Z</time>
      </trkpt>
      <trkpt lat="48.21495" lon="-4.03443">
        <ele>66.414426</ele>
        <time>2022-12-10T14:08:25.202Z</time>
      </trkpt>
      <trkpt lat="48.21502" lon="-4.0343">
        <ele>66.316231</ele>
        <time>2022-12-10T14:08:28.211Z</time>
      </trkpt>
      <trkpt lat="48.21508" lon="-4.03416">
        <ele>66.218074</ele>
        <time>2022-12-10T14:08:31.210Z</time>
      </trkpt>
      <trkpt lat="48.21515" lon="-4.03402">
        <ele>66.118933</ele>
        <time>2022-12-10T14:08:34.212Z</time>
      </trkpt>
      <trkpt lat="48.21522" lon="-4.03388">
        <ele>66.015888</ele>
        <time>2022-12-10T14:08:37.214Z</time>
      </trkpt>
      <trkpt lat="48.21528" lon="-4.03374">
        <ele>65.914378</ele>
        <time>2022-12-10T14:08:40.216Z</time>
      </trkpt>
      <trkpt lat="48.21535" lon="-4.03359">
        <ele>65.81086</ele>
        <time>2022-12-10T14:08:43.213Z</time>
      </trkpt>
      <trkpt lat="48.21542" lon="-4.03345">
        <ele>65.711156</ele>
        <time>2022-12-10T14:08:46.215Z</time>
      </trkpt>
      <trkpt lat="48.21548" lon="-4.03331">
        <ele>65.607702</ele>
        <time>2022-12-10T14:08:49.214Z</time>
      </trkpt>
      <trkpt lat="48.21554" lon="-4.03317">
        <ele>65.512019</ele>
        <time>2022-12-10T14:08:52.206Z</time>
      </trkpt>
      <trkpt lat="48.2156" lon="-4.03302">
        <ele>65.410297</ele>
        <time>2022-12-10T14:08:55.207Z</time>
      </trkpt>
      <trkpt lat="48.21566" lon="-4.03288">
        <ele>65.314873</ele>
        <time>2022-12-10T14:08:58.196Z</time>
      </trkpt>
      <trkpt lat="48.2157" lon="-4.03274">
        <ele>65.228209</ele>
        <time>2022-12-10T14:09:01.190Z</time>
      </trkpt>
      <trkpt lat="48.21574" lon="-4.03259">
        <ele>65.132022</ele>
        <time>2022-12-10T14:09:05.208Z</time>
      </trkpt>
      <trkpt lat="48.21581" lon="-4.03243">
        <ele>65.049188</ele>
        <time>2022-12-10T14:09:09.191Z</time>
      </trkpt>
      <trkpt lat="48.21585" lon="-4.03229">
        <ele>64.98155</ele>
        <time>2022-12-10T14:09:12.214Z</time>
      </trkpt>
      <trkpt lat="48.2159" lon="-4.03215">
        <ele>64.911824</ele>
        <time>2022-12-10T14:09:15.213Z</time>
      </trkpt>
      <trkpt lat="48.21593" lon="-4.03201">
        <ele>64.849894</ele>
        <time>2022-12-10T14:09:18.214Z</time>
      </trkpt>
      <trkpt lat="48.21596" lon="-4.03183">
        <ele>64.772312</ele>
        <time>2022-12-10T14:09:21.203Z</time>
      </trkpt>
      <trkpt lat="48.21598" lon="-4.03167">
        <ele>64.701829</ele>
        <time>2022-12-10T14:09:24.225Z</time>
      </trkpt>
      <trkpt lat="48.21601" lon="-4.03151">
        <ele>64.633604</ele>
        <time>2022-12-10T14:09:27.211Z</time>
      </trkpt>
      <trkpt lat="48.21601" lon="-4.03134">
        <ele>64.559584</ele>
        <time>2022-12-10T14:09:30.208Z</time>
      </trkpt>
      <trkpt lat="48.21602" lon="-4.03116">
        <ele>64.483925</ele>
        <time>2022-12-10T14:09:33.208Z</time>
      </trkpt>
      <trkpt lat="48.21599" lon="-4.03129">
        <ele>64.422719</ele>
        <time>2022-12-10T14:09:59.189Z</time>
      </trkpt>
      <trkpt lat="48.216" lon="-4.03115">
        <ele>64.359159</ele>
        <time>2022-12-10T14:11:36.182Z</time>
      </trkpt>
      <trkpt lat="48.21602" lon="-4.03093">
        <ele>64.266315</ele>
        <time>2022-12-10T14:11:41.210Z</time>
      </trkpt>
      <trkpt lat="48.21602" lon="-4.03079">
        <ele>64.20545</ele>
        <time>2022-12-10T14:11:44.183Z</time>
      </trkpt>
      <trkpt lat="48.21602" lon="-4.03065">
        <ele>64.145403</ele>
        <time>2022-12-10T14:11:47.204Z</time>
      </trkpt>
      <trkpt lat="48.21602" lon="-4.0305">
        <ele>64.081161</ele>
        <time>2022-12-10T14:11:50.187Z</time>
      </trkpt>
      <trkpt lat="48.21603" lon="-4.03035">
        <ele>64.01821</ele>
        <time>2022-12-10T14:11:53.194Z</time>
      </trkpt>
      <trkpt lat="48.21603" lon="-4.0302">
        <ele>63.977622</ele>
        <time>2022-12-10T14:11:56.212Z</time>
      </trkpt>
      <trkpt lat="48.21603" lon="-4.03004">
        <ele>64.074646</ele>
        <time>2022-12-10T14:11:59.213Z</time>
      </trkpt>
      <trkpt lat="48.21603" lon="-4.02988">
        <ele>64.171564</ele>
        <time>2022-12-10T14:12:02.214Z</time>
      </trkpt>
      <trkpt lat="48.21603" lon="-4.02972">
        <ele>64.269289</ele>
        <time>2022-12-10T14:12:05.191Z</time>
      </trkpt>
      <trkpt lat="48.21602" lon="-4.02955">
        <ele>64.367561</ele>
        <time>2022-12-10T14:12:08.210Z</time>
      </trkpt>
      <trkpt lat="48.21601" lon="-4.02939">
        <ele>64.466549</ele>
        <time>2022-12-10T14:12:11.211Z</time>
      </trkpt>
      <trkpt lat="48.21601" lon="-4.02922">
        <ele>64.567718</ele>
        <time>2022-12-10T14:12:14.201Z</time>
      </trkpt>
      <trkpt lat="48.216" lon="-4.02906">
        <ele>64.666855</ele>
        <time>2022-12-10T14:12:17.222Z</time>
      </trkpt>
      <trkpt lat="48.21599" lon="-4.0289">
        <ele>64.762914</ele>
        <time>2022-12-10T14:12:20.206Z</time>
      </trkpt>
      <trkpt lat="48.21599" lon="-4.02875">
        <ele>64.852048</ele>
        <time>2022-12-10T14:12:23.209Z</time>
      </trkpt>
      <trkpt lat="48.21598" lon="-4.02858">
        <ele>64.952838</ele>
        <time>2022-12-10T14:12:26.212Z</time>
      </trkpt>
      <trkpt lat="48.21597" lon="-4.02842">
        <ele>65.053173</ele>
        <time>2022-12-10T14:12:29.190Z</time>
      </trkpt>
      <trkpt lat="48.21596" lon="-4.02826">
        <ele>65.148633</ele>
        <time>2022-12-10T14:12:32.189Z</time>
      </trkpt>
      <trkpt lat="48.21595" lon="-4.02809">
        <ele>65.249963</ele>
        <time>2022-12-10T14:12:35.189Z</time>
      </trkpt>
      <trkpt lat="48.21594" lon="-4.02794">
        <ele>65.344994</ele>
        <time>2022-12-10T14:12:38.211Z</time>
      </trkpt>
      <trkpt lat="48.21594" lon="-4.02778">
        <ele>65.441463</ele>
        <time>2022-12-10T14:12:41.211Z</time>
      </trkpt>
      <trkpt lat="48.21593" lon="-4.0276">
        <ele>65.545668</ele>
        <time>2022-12-10T14:12:44.211Z</time>
      </trkpt>
      <trkpt lat="48.21592" lon="-4.02743">
        <ele>65.599048</ele>
        <time>2022-12-10T14:12:47.192Z</time>
      </trkpt>
      <trkpt lat="48.21591" lon="-4.02725">
        <ele>65.614406</ele>
        <time>2022-12-10T14:12:50.209Z</time>
      </trkpt>
      <trkpt lat="48.2159" lon="-4.02708">
        <ele>65.629429</ele>
        <time>2022-12-10T14:12:53.207Z</time>
      </trkpt>
      <trkpt lat="48.21589" lon="-4.02691">
        <ele>65.644377</ele>
        <time>2022-12-10T14:12:56.195Z</time>
      </trkpt>
      <trkpt lat="48.21587" lon="-4.02674">
        <ele>65.659561</ele>
        <time>2022-12-10T14:12:59.208Z</time>
      </trkpt>
      <trkpt lat="48.21586" lon="-4.02658">
        <ele>65.674409</ele>
        <time>2022-12-10T14:13:02.213Z</time>
      </trkpt>
      <trkpt lat="48.21585" lon="-4.02641">
        <ele>65.689169</ele>
        <time>2022-12-10T14:13:05.192Z</time>
      </trkpt>
      <trkpt lat="48.21584" lon="-4.02625">
        <ele>65.703579</ele>
        <time>2022-12-10T14:13:08.214Z</time>
      </trkpt>
      <trkpt lat="48.21584" lon="-4.02608">
        <ele>65.71829</ele>
        <time>2022-12-10T14:13:11.208Z</time>
      </trkpt>
      <trkpt lat="48.21582" lon="-4.02591">
        <ele>65.732932</ele>
        <time>2022-12-10T14:13:14.210Z</time>
      </trkpt>
      <trkpt lat="48.21581" lon="-4.02575">
        <ele>65.747051</ele>
        <time>2022-12-10T14:13:17.209Z</time>
      </trkpt>
      <trkpt lat="48.21578" lon="-4.0256">
        <ele>65.761347</ele>
        <time>2022-12-10T14:13:20.213Z</time>
      </trkpt>
      <trkpt lat="48.21577" lon="-4.02543">
        <ele>65.776065</ele>
        <time>2022-12-10T14:13:23.216Z</time>
      </trkpt>
      <trkpt lat="48.21574" lon="-4.02527">
        <ele>65.790952</ele>
        <time>2022-12-10T14:13:26.205Z</time>
      </trkpt>
      <trkpt lat="48.21572" lon="-4.0251">
        <ele>65.805606</ele>
        <time>2022-12-10T14:13:29.207Z</time>
      </trkpt>
      <trkpt lat="48.21569" lon="-4.02494">
        <ele>65.820492</ele>
        <time>2022-12-10T14:13:32.213Z</time>
      </trkpt>
      <trkpt lat="48.21565" lon="-4.02478">
        <ele>65.897079</ele>
        <time>2022-12-10T14:13:35.211Z</time>
      </trkpt>
      <trkpt lat="48.21559" lon="-4.02459">
        <ele>66.078528</ele>
        <time>2022-12-10T14:13:39.222Z</time>
      </trkpt>
      <trkpt lat="48.21554" lon="-4.02444">
        <ele>66.222885</ele>
        <time>2022-12-10T14:13:42.209Z</time>
      </trkpt>
      <trkpt lat="48.21547" lon="-4.02428">
        <ele>66.371128</ele>
        <time>2022-12-10T14:13:45.199Z</time>
      </trkpt>
      <trkpt lat="48.21542" lon="-4.02412">
        <ele>66.521994</ele>
        <time>2022-12-10T14:13:48.213Z</time>
      </trkpt>
      <trkpt lat="48.21537" lon="-4.02397">
        <ele>66.661502</ele>
        <time>2022-12-10T14:13:51.207Z</time>
      </trkpt>
      <trkpt lat="48.21531" lon="-4.02382">
        <ele>66.805678</ele>
        <time>2022-12-10T14:13:54.210Z</time>
      </trkpt>
      <trkpt lat="48.21526" lon="-4.02367">
        <ele>66.946325</ele>
        <time>2022-12-10T14:13:57.213Z</time>
      </trkpt>
      <trkpt lat="48.2152" lon="-4.02352">
        <ele>67.095278</ele>
        <time>2022-12-10T14:14:00.212Z</time>
      </trkpt>
      <trkpt lat="48.21514" lon="-4.02338">
        <ele>67.231182</ele>
        <time>2022-12-10T14:14:03.208Z</time>
      </trkpt>
      <trkpt lat="48.21508" lon="-4.02324">
        <ele>67.370356</ele>
        <time>2022-12-10T14:14:06.205Z</time>
      </trkpt>
      <trkpt lat="48.21501" lon="-4.02311">
        <ele>67.508296</ele>
        <time>2022-12-10T14:14:09.215Z</time>
      </trkpt>
      <trkpt lat="48.21495" lon="-4.02299">
        <ele>67.635373</ele>
        <time>2022-12-10T14:14:12.208Z</time>
      </trkpt>
      <trkpt lat="48.21489" lon="-4.02288">
        <ele>67.75026</ele>
        <time>2022-12-10T14:14:15.204Z</time>
      </trkpt>
      <trkpt lat="48.21482" lon="-4.02277">
        <ele>67.873254</ele>
        <time>2022-12-10T14:14:18.207Z</time>
      </trkpt>
      <trkpt lat="48.21475" lon="-4.02268">
        <ele>67.994037</ele>
        <time>2022-12-10T14:14:21.212Z</time>
      </trkpt>
      <trkpt lat="48.21467" lon="-4.02257">
        <ele>67.995034</ele>
        <time>2022-12-10T14:14:24.204Z</time>
      </trkpt>
      <trkpt lat="48.21458" lon="-4.02249">
        <ele>67.804328</ele>
        <time>2022-12-10T14:14:27.209Z</time>
      </trkpt>
      <trkpt lat="48.21449" lon="-4.0224">
        <ele>67.617541</ele>
        <time>2022-12-10T14:14:30.203Z</time>
      </trkpt>
      <trkpt lat="48.2144" lon="-4.02232">
        <ele>67.426787</ele>
        <time>2022-12-10T14:14:33.212Z</time>
      </trkpt>
      <trkpt lat="48.21432" lon="-4.02222">
        <ele>67.231272</ele>
        <time>2022-12-10T14:14:36.212Z</time>
      </trkpt>
      <trkpt lat="48.21422" lon="-4.02213">
        <ele>67.027608</ele>
        <time>2022-12-10T14:14:39.203Z</time>
      </trkpt>
      <trkpt lat="48.21413" lon="-4.02204">
        <ele>66.828087</ele>
        <time>2022-12-10T14:14:42.214Z</time>
      </trkpt>
      <trkpt lat="48.21403" lon="-4.02198">
        <ele>66.631524</ele>
        <time>2022-12-10T14:14:45.213Z</time>
      </trkpt>
      <trkpt lat="48.21391" lon="-4.02194">
        <ele>66.414468</ele>
        <time>2022-12-10T14:14:48.207Z</time>
      </trkpt>
      <trkpt lat="48.21381" lon="-4.02198">
        <ele>66.235456</ele>
        <time>2022-12-10T14:14:50.219Z</time>
      </trkpt>
      <trkpt lat="48.21372" lon="-4.02199">
        <ele>66.068049</ele>
        <time>2022-12-10T14:14:52.212Z</time>
      </trkpt>
      <trkpt lat="48.21363" lon="-4.02201">
        <ele>65.902869</ele>
        <time>2022-12-10T14:14:54.214Z</time>
      </trkpt>
      <trkpt lat="48.21351" lon="-4.02203">
        <ele>65.693987</ele>
        <time>2022-12-10T14:14:57.198Z</time>
      </trkpt>
      <trkpt lat="48.2134" lon="-4.02206">
        <ele>65.488145</ele>
        <time>2022-12-10T14:15:00.207Z</time>
      </trkpt>
      <trkpt lat="48.21329" lon="-4.0221">
        <ele>65.289325</ele>
        <time>2022-12-10T14:15:03.208Z</time>
      </trkpt>
      <trkpt lat="48.21318" lon="-4.02216">
        <ele>65.070126</ele>
        <time>2022-12-10T14:15:06.183Z</time>
      </trkpt>
      <trkpt lat="48.21307" lon="-4.02219">
        <ele>64.871812</ele>
        <time>2022-12-10T14:15:09.186Z</time>
      </trkpt>
      <trkpt lat="48.21296" lon="-4.02223">
        <ele>64.6292</ele>
        <time>2022-12-10T14:15:12.200Z</time>
      </trkpt>
      <trkpt lat="48.21285" lon="-4.02229">
        <ele>64.377898</ele>
        <time>2022-12-10T14:15:15.211Z</time>
      </trkpt>
      <trkpt lat="48.21276" lon="-4.02234">
        <ele>64.147804</ele>
        <time>2022-12-10T14:15:18.193Z</time>
      </trkpt>
      <trkpt lat="48.21266" lon="-4.02241">
        <ele>63.90942</ele>
        <time>2022-12-10T14:15:21.192Z</time>
      </trkpt>
      <trkpt lat="48.21256" lon="-4.02248">
        <ele>63.666573</ele>
        <time>2022-12-10T14:15:24.191Z</time>
      </trkpt>
      <trkpt lat="48.21247" lon="-4.02256">
        <ele>63.436042</ele>
        <time>2022-12-10T14:15:27.204Z</time>
      </trkpt>
      <trkpt lat="48.21237" lon="-4.02264">
        <ele>63.188137</ele>
        <time>2022-12-10T14:15:30.209Z</time>
      </trkpt>
      <trkpt lat="48.21227" lon="-4.02273">
        <ele>62.935886</ele>
        <time>2022-12-10T14:15:33.188Z</time>
      </trkpt>
      <trkpt lat="48.21217" lon="-4.02282">
        <ele>62.676618</ele>
        <time>2022-12-10T14:15:36.211Z</time>
      </trkpt>
      <trkpt lat="48.21207" lon="-4.02291">
        <ele>62.416599</ele>
        <time>2022-12-10T14:15:39.213Z</time>
      </trkpt>
      <trkpt lat="48.21198" lon="-4.023">
        <ele>62.168178</ele>
        <time>2022-12-10T14:15:42.192Z</time>
      </trkpt>
      <trkpt lat="48.21188" lon="-4.02309">
        <ele>61.917312</ele>
        <time>2022-12-10T14:15:45.214Z</time>
      </trkpt>
      <trkpt lat="48.21179" lon="-4.0232">
        <ele>61.656144</ele>
        <time>2022-12-10T14:15:48.212Z</time>
      </trkpt>
      <trkpt lat="48.21169" lon="-4.02329">
        <ele>61.403206</ele>
        <time>2022-12-10T14:15:51.191Z</time>
      </trkpt>
      <trkpt lat="48.2116" lon="-4.02338">
        <ele>61.151855</ele>
        <time>2022-12-10T14:15:54.202Z</time>
      </trkpt>
      <trkpt lat="48.21151" lon="-4.02348">
        <ele>60.908367</ele>
        <time>2022-12-10T14:15:57.216Z</time>
      </trkpt>
      <trkpt lat="48.21142" lon="-4.02358">
        <ele>61.03592</ele>
        <time>2022-12-10T14:16:00.207Z</time>
      </trkpt>
      <trkpt lat="48.21134" lon="-4.02367">
        <ele>61.251015</ele>
        <time>2022-12-10T14:16:03.211Z</time>
      </trkpt>
      <trkpt lat="48.21126" lon="-4.02376">
        <ele>61.476609</ele>
        <time>2022-12-10T14:16:06.203Z</time>
      </trkpt>
      <trkpt lat="48.21117" lon="-4.02385">
        <ele>61.705758</ele>
        <time>2022-12-10T14:16:09.210Z</time>
      </trkpt>
      <trkpt lat="48.21108" lon="-4.02394">
        <ele>61.934618</ele>
        <time>2022-12-10T14:16:12.194Z</time>
      </trkpt>
      <trkpt lat="48.21099" lon="-4.02404">
        <ele>62.170289</ele>
        <time>2022-12-10T14:16:15.197Z</time>
      </trkpt>
      <trkpt lat="48.21091" lon="-4.02414">
        <ele>62.405153</ele>
        <time>2022-12-10T14:16:18.206Z</time>
      </trkpt>
      <trkpt lat="48.21083" lon="-4.02425">
        <ele>62.62871</ele>
        <time>2022-12-10T14:16:21.204Z</time>
      </trkpt>
      <trkpt lat="48.21075" lon="-4.02434">
        <ele>62.855875</ele>
        <time>2022-12-10T14:16:24.207Z</time>
      </trkpt>
      <trkpt lat="48.21066" lon="-4.02445">
        <ele>63.096361</ele>
        <time>2022-12-10T14:16:27.211Z</time>
      </trkpt>
      <trkpt lat="48.21058" lon="-4.02456">
        <ele>63.335717</ele>
        <time>2022-12-10T14:16:30.211Z</time>
      </trkpt>
      <trkpt lat="48.21049" lon="-4.02468">
        <ele>63.579338</ele>
        <time>2022-12-10T14:16:33.213Z</time>
      </trkpt>
      <trkpt lat="48.21041" lon="-4.02479">
        <ele>63.817269</ele>
        <time>2022-12-10T14:16:36.212Z</time>
      </trkpt>
      <trkpt lat="48.21033" lon="-4.0249">
        <ele>64.052925</ele>
        <time>2022-12-10T14:16:39.204Z</time>
      </trkpt>
      <trkpt lat="48.21024" lon="-4.02501">
        <ele>64.291794</ele>
        <time>2022-12-10T14:16:42.207Z</time>
      </trkpt>
      <trkpt lat="48.21016" lon="-4.02512">
        <ele>64.529052</ele>
        <time>2022-12-10T14:16:45.200Z</time>
      </trkpt>
      <trkpt lat="48.21008" lon="-4.02522">
        <ele>64.691286</ele>
        <time>2022-12-10T14:16:48.214Z</time>
      </trkpt>
      <trkpt lat="48.21" lon="-4.02534">
        <ele>64.555976</ele>
        <time>2022-12-10T14:16:51.218Z</time>
      </trkpt>
      <trkpt lat="48.20991" lon="-4.02544">
        <ele>64.415664</ele>
        <time>2022-12-10T14:16:54.208Z</time>
      </trkpt>
      <trkpt lat="48.20982" lon="-4.02555">
        <ele>64.271523</ele>
        <time>2022-12-10T14:16:57.212Z</time>
      </trkpt>
      <trkpt lat="48.20973" lon="-4.02565">
        <ele>64.131279</ele>
        <time>2022-12-10T14:17:00.216Z</time>
      </trkpt>
      <trkpt lat="48.20965" lon="-4.02577">
        <ele>63.993395</ele>
        <time>2022-12-10T14:17:03.210Z</time>
      </trkpt>
      <trkpt lat="48.20953" lon="-4.02592">
        <ele>63.802524</ele>
        <time>2022-12-10T14:17:07.209Z</time>
      </trkpt>
      <trkpt lat="48.20944" lon="-4.02603">
        <ele>63.665962</ele>
        <time>2022-12-10T14:17:10.213Z</time>
      </trkpt>
      <trkpt lat="48.20936" lon="-4.02614">
        <ele>63.536524</ele>
        <time>2022-12-10T14:17:13.195Z</time>
      </trkpt>
      <trkpt lat="48.20927" lon="-4.02625">
        <ele>63.389923</ele>
        <time>2022-12-10T14:17:16.208Z</time>
      </trkpt>
      <trkpt lat="48.20918" lon="-4.02636">
        <ele>63.246173</ele>
        <time>2022-12-10T14:17:19.195Z</time>
      </trkpt>
      <trkpt lat="48.20909" lon="-4.02647">
        <ele>63.106462</ele>
        <time>2022-12-10T14:17:22.209Z</time>
      </trkpt>
      <trkpt lat="48.209" lon="-4.02657">
        <ele>62.964755</ele>
        <time>2022-12-10T14:17:25.199Z</time>
      </trkpt>
      <trkpt lat="48.2089" lon="-4.02668">
        <ele>62.823047</ele>
        <time>2022-12-10T14:17:28.213Z</time>
      </trkpt>
      <trkpt lat="48.20881" lon="-4.02677">
        <ele>62.685528</ele>
        <time>2022-12-10T14:17:31.214Z</time>
      </trkpt>
      <trkpt lat="48.20872" lon="-4.02687">
        <ele>62.545727</ele>
        <time>2022-12-10T14:17:34.213Z</time>
      </trkpt>
      <trkpt lat="48.20862" lon="-4.02696">
        <ele>62.567375</ele>
        <time>2022-12-10T14:17:37.209Z</time>
      </trkpt>
      <trkpt lat="48.20852" lon="-4.02704">
        <ele>62.635267</ele>
        <time>2022-12-10T14:17:41.210Z</time>
      </trkpt>
      <trkpt lat="48.20841" lon="-4.02711">
        <ele>62.703662</ele>
        <time>2022-12-10T14:17:45.207Z</time>
      </trkpt>
      <trkpt lat="48.20833" lon="-4.02715">
        <ele>62.75738</ele>
        <time>2022-12-10T14:17:48.199Z</time>
      </trkpt>
      <trkpt lat="48.20821" lon="-4.02719">
        <ele>62.830506</ele>
        <time>2022-12-10T14:17:52.211Z</time>
      </trkpt>
      <trkpt lat="48.20812" lon="-4.02723">
        <ele>62.884329</ele>
        <time>2022-12-10T14:17:55.211Z</time>
      </trkpt>
      <trkpt lat="48.208" lon="-4.02724">
        <ele>62.954869</ele>
        <time>2022-12-10T14:17:59.189Z</time>
      </trkpt>
      <trkpt lat="48.20791" lon="-4.02725">
        <ele>63.009311</ele>
        <time>2022-12-10T14:18:02.200Z</time>
      </trkpt>
      <trkpt lat="48.20781" lon="-4.02726">
        <ele>63.066768</ele>
        <time>2022-12-10T14:18:05.224Z</time>
      </trkpt>
      <trkpt lat="48.20771" lon="-4.02727">
        <ele>63.125404</ele>
        <time>2022-12-10T14:18:08.207Z</time>
      </trkpt>
      <trkpt lat="48.20761" lon="-4.02728">
        <ele>63.188281</ele>
        <time>2022-12-10T14:18:11.188Z</time>
      </trkpt>
      <trkpt lat="48.2075" lon="-4.02727">
        <ele>63.251618</ele>
        <time>2022-12-10T14:18:14.211Z</time>
      </trkpt>
      <trkpt lat="48.2074" lon="-4.02726">
        <ele>63.310823</ele>
        <time>2022-12-10T14:18:17.192Z</time>
      </trkpt>
      <trkpt lat="48.20726" lon="-4.02727">
        <ele>63.390093</ele>
        <time>2022-12-10T14:18:21.214Z</time>
      </trkpt>
      <trkpt lat="48.20716" lon="-4.02728">
        <ele>63.45164</ele>
        <time>2022-12-10T14:18:24.195Z</time>
      </trkpt>
      <trkpt lat="48.20706" lon="-4.02728">
        <ele>63.511963</ele>
        <time>2022-12-10T14:18:27.195Z</time>
      </trkpt>
      <trkpt lat="48.20697" lon="-4.02729">
        <ele>63.567184</ele>
        <time>2022-12-10T14:18:30.218Z</time>
      </trkpt>
      <trkpt lat="48.20685" lon="-4.02729">
        <ele>63.599674</ele>
        <time>2022-12-10T14:18:34.214Z</time>
      </trkpt>
      <trkpt lat="48.20676" lon="-4.02731">
        <ele>63.619827</ele>
        <time>2022-12-10T14:18:37.215Z</time>
      </trkpt>
      <trkpt lat="48.20666" lon="-4.02731">
        <ele>63.640559</ele>
        <time>2022-12-10T14:18:40.210Z</time>
      </trkpt>
      <trkpt lat="48.20656" lon="-4.02733">
        <ele>63.661964</ele>
        <time>2022-12-10T14:18:43.216Z</time>
      </trkpt>
      <trkpt lat="48.20646" lon="-4.02733">
        <ele>63.683343</ele>
        <time>2022-12-10T14:18:46.205Z</time>
      </trkpt>
      <trkpt lat="48.20633" lon="-4.02735">
        <ele>63.710102</ele>
        <time>2022-12-10T14:18:50.213Z</time>
      </trkpt>
      <trkpt lat="48.20623" lon="-4.02735">
        <ele>63.732743</ele>
        <time>2022-12-10T14:18:53.210Z</time>
      </trkpt>
      <trkpt lat="48.20612" lon="-4.02737">
        <ele>63.756097</ele>
        <time>2022-12-10T14:18:56.210Z</time>
      </trkpt>
      <trkpt lat="48.20601" lon="-4.02737">
        <ele>63.779796</ele>
        <time>2022-12-10T14:18:59.213Z</time>
      </trkpt>
      <trkpt lat="48.2059" lon="-4.02738">
        <ele>63.803086</ele>
        <time>2022-12-10T14:19:02.211Z</time>
      </trkpt>
      <trkpt lat="48.20579" lon="-4.02738">
        <ele>63.826571</ele>
        <time>2022-12-10T14:19:05.208Z</time>
      </trkpt>
      <trkpt lat="48.20568" lon="-4.02739">
        <ele>63.84968</ele>
        <time>2022-12-10T14:19:08.203Z</time>
      </trkpt>
      <trkpt lat="48.20557" lon="-4.02741">
        <ele>63.872912</ele>
        <time>2022-12-10T14:19:11.201Z</time>
      </trkpt>
      <trkpt lat="48.20546" lon="-4.02743">
        <ele>63.896944</ele>
        <time>2022-12-10T14:19:14.192Z</time>
      </trkpt>
      <trkpt lat="48.20535" lon="-4.02744">
        <ele>63.920736</ele>
        <time>2022-12-10T14:19:17.206Z</time>
      </trkpt>
      <trkpt lat="48.20524" lon="-4.02745">
        <ele>63.945155</ele>
        <time>2022-12-10T14:19:20.217Z</time>
      </trkpt>
      <trkpt lat="48.20512" lon="-4.02746">
        <ele>63.979846</ele>
        <time>2022-12-10T14:19:23.208Z</time>
      </trkpt>
      <trkpt lat="48.20502" lon="-4.02747">
        <ele>64.043281</ele>
        <time>2022-12-10T14:19:26.213Z</time>
      </trkpt>
      <trkpt lat="48.2049" lon="-4.02748">
        <ele>64.115708</ele>
        <time>2022-12-10T14:19:30.214Z</time>
      </trkpt>
      <trkpt lat="48.2048" lon="-4.02749">
        <ele>64.178479</ele>
        <time>2022-12-10T14:19:33.218Z</time>
      </trkpt>
      <trkpt lat="48.20469" lon="-4.02751">
        <ele>64.243916</ele>
        <time>2022-12-10T14:19:36.203Z</time>
      </trkpt>
      <trkpt lat="48.20458" lon="-4.02751">
        <ele>64.309034</ele>
        <time>2022-12-10T14:19:39.191Z</time>
      </trkpt>
      <trkpt lat="48.20447" lon="-4.02751">
        <ele>64.375937</ele>
        <time>2022-12-10T14:19:42.212Z</time>
      </trkpt>
      <trkpt lat="48.20436" lon="-4.02751">
        <ele>64.444056</ele>
        <time>2022-12-10T14:19:45.191Z</time>
      </trkpt>
      <trkpt lat="48.20425" lon="-4.02751">
        <ele>64.511561</ele>
        <time>2022-12-10T14:19:48.228Z</time>
      </trkpt>
      <trkpt lat="48.20414" lon="-4.02752">
        <ele>64.580988</ele>
        <time>2022-12-10T14:19:51.203Z</time>
      </trkpt>
      <trkpt lat="48.20399" lon="-4.02754">
        <ele>64.673142</ele>
        <time>2022-12-10T14:19:55.209Z</time>
      </trkpt>
      <trkpt lat="48.20387" lon="-4.02754">
        <ele>64.742483</ele>
        <time>2022-12-10T14:19:58.211Z</time>
      </trkpt>
      <trkpt lat="48.20375" lon="-4.02755">
        <ele>64.813711</ele>
        <time>2022-12-10T14:20:01.191Z</time>
      </trkpt>
      <trkpt lat="48.20364" lon="-4.02755">
        <ele>64.885516</ele>
        <time>2022-12-10T14:20:04.196Z</time>
      </trkpt>
      <trkpt lat="48.20352" lon="-4.02755">
        <ele>64.957897</ele>
        <time>2022-12-10T14:20:07.194Z</time>
      </trkpt>
      <trkpt lat="48.20341" lon="-4.02756">
        <ele>65.025524</ele>
        <time>2022-12-10T14:20:10.216Z</time>
      </trkpt>
      <trkpt lat="48.20329" lon="-4.02757">
        <ele>65.029498</ele>
        <time>2022-12-10T14:20:13.201Z</time>
      </trkpt>
      <trkpt lat="48.20313" lon="-4.02757">
        <ele>64.957436</ele>
        <time>2022-12-10T14:20:17.212Z</time>
      </trkpt>
      <trkpt lat="48.20301" lon="-4.02757">
        <ele>64.904936</ele>
        <time>2022-12-10T14:20:20.217Z</time>
      </trkpt>
      <trkpt lat="48.2029" lon="-4.02759">
        <ele>64.852522</ele>
        <time>2022-12-10T14:20:23.216Z</time>
      </trkpt>
      <trkpt lat="48.20277" lon="-4.02761">
        <ele>64.797162</ele>
        <time>2022-12-10T14:20:26.213Z</time>
      </trkpt>
      <trkpt lat="48.20265" lon="-4.02762">
        <ele>64.74318</ele>
        <time>2022-12-10T14:20:29.207Z</time>
      </trkpt>
      <trkpt lat="48.20254" lon="-4.02763">
        <ele>64.694219</ele>
        <time>2022-12-10T14:20:32.216Z</time>
      </trkpt>
      <trkpt lat="48.20244" lon="-4.02764">
        <ele>64.647882</ele>
        <time>2022-12-10T14:20:35.194Z</time>
      </trkpt>
      <trkpt lat="48.20233" lon="-4.02765">
        <ele>64.598358</ele>
        <time>2022-12-10T14:20:38.211Z</time>
      </trkpt>
      <trkpt lat="48.20222" lon="-4.02765">
        <ele>64.549428</ele>
        <time>2022-12-10T14:20:41.211Z</time>
      </trkpt>
      <trkpt lat="48.20212" lon="-4.02766">
        <ele>64.504884</ele>
        <time>2022-12-10T14:20:44.208Z</time>
      </trkpt>
      <trkpt lat="48.20201" lon="-4.02767">
        <ele>64.459324</ele>
        <time>2022-12-10T14:20:47.209Z</time>
      </trkpt>
      <trkpt lat="48.20191" lon="-4.02768">
        <ele>64.413836</ele>
        <time>2022-12-10T14:20:50.215Z</time>
      </trkpt>
      <trkpt lat="48.2018" lon="-4.0277">
        <ele>64.365592</ele>
        <time>2022-12-10T14:20:53.210Z</time>
      </trkpt>
      <trkpt lat="48.2017" lon="-4.02773">
        <ele>64.31684</ele>
        <time>2022-12-10T14:20:56.207Z</time>
      </trkpt>
      <trkpt lat="48.20159" lon="-4.02775">
        <ele>64.27008</ele>
        <time>2022-12-10T14:20:59.214Z</time>
      </trkpt>
      <trkpt lat="48.20148" lon="-4.02777">
        <ele>64.324162</ele>
        <time>2022-12-10T14:21:02.217Z</time>
      </trkpt>
      <trkpt lat="48.20137" lon="-4.02782">
        <ele>64.422615</ele>
        <time>2022-12-10T14:21:05.201Z</time>
      </trkpt>
      <trkpt lat="48.20125" lon="-4.02786">
        <ele>64.521074</ele>
        <time>2022-12-10T14:21:08.201Z</time>
      </trkpt>
      <trkpt lat="48.20114" lon="-4.02791">
        <ele>64.618577</ele>
        <time>2022-12-10T14:21:11.210Z</time>
      </trkpt>
      <trkpt lat="48.20103" lon="-4.02794">
        <ele>64.709159</ele>
        <time>2022-12-10T14:21:14.213Z</time>
      </trkpt>
      <trkpt lat="48.20089" lon="-4.02801">
        <ele>64.835122</ele>
        <time>2022-12-10T14:21:18.226Z</time>
      </trkpt>
      <trkpt lat="48.20078" lon="-4.02806">
        <ele>64.927373</ele>
        <time>2022-12-10T14:21:21.194Z</time>
      </trkpt>
      <trkpt lat="48.20068" lon="-4.0281">
        <ele>65.01596</ele>
        <time>2022-12-10T14:21:24.214Z</time>
      </trkpt>
      <trkpt lat="48.20058" lon="-4.02814">
        <ele>65.09803</ele>
        <time>2022-12-10T14:21:27.211Z</time>
      </trkpt>
      <trkpt lat="48.20048" lon="-4.02818">
        <ele>65.184616</ele>
        <time>2022-12-10T14:21:30.208Z</time>
      </trkpt>
      <trkpt lat="48.20038" lon="-4.02823">
        <ele>65.277496</ele>
        <time>2022-12-10T14:21:33.213Z</time>
      </trkpt>
      <trkpt lat="48.20028" lon="-4.02828">
        <ele>65.360114</ele>
        <time>2022-12-10T14:21:36.213Z</time>
      </trkpt>
      <trkpt lat="48.20019" lon="-4.02834">
        <ele>65.442542</ele>
        <time>2022-12-10T14:21:39.201Z</time>
      </trkpt>
      <trkpt lat="48.2001" lon="-4.02839">
        <ele>65.521359</ele>
        <time>2022-12-10T14:21:42.220Z</time>
      </trkpt>
      <trkpt lat="48.20001" lon="-4.02846">
        <ele>65.60701</ele>
        <time>2022-12-10T14:21:45.217Z</time>
      </trkpt>
      <trkpt lat="48.19993" lon="-4.02853">
        <ele>65.685459</ele>
        <time>2022-12-10T14:21:48.205Z</time>
      </trkpt>
      <trkpt lat="48.19984" lon="-4.02862">
        <ele>65.768501</ele>
        <time>2022-12-10T14:21:51.201Z</time>
      </trkpt>
      <trkpt lat="48.19974" lon="-4.0287">
        <ele>65.83652</ele>
        <time>2022-12-10T14:21:54.209Z</time>
      </trkpt>
      <trkpt lat="48.19964" lon="-4.02877">
        <ele>65.907077</ele>
        <time>2022-12-10T14:21:57.208Z</time>
      </trkpt>
      <trkpt lat="48.19953" lon="-4.02882">
        <ele>65.97399</ele>
        <time>2022-12-10T14:22:00.209Z</time>
      </trkpt>
      <trkpt lat="48.19942" lon="-4.02886">
        <ele>66.045151</ele>
        <time>2022-12-10T14:22:04.223Z</time>
      </trkpt>
      <trkpt lat="48.19926" lon="-4.0288">
        <ele>66.145344</ele>
        <time>2022-12-10T14:27:24.206Z</time>
      </trkpt>
      <trkpt lat="48.19917" lon="-4.02875">
        <ele>66.207735</ele>
        <time>2022-12-10T14:27:28.219Z</time>
      </trkpt>
      <trkpt lat="48.19906" lon="-4.02867">
        <ele>66.279554</ele>
        <time>2022-12-10T14:27:32.217Z</time>
      </trkpt>
      <trkpt lat="48.19893" lon="-4.02857">
        <ele>66.368782</ele>
        <time>2022-12-10T14:27:37.217Z</time>
      </trkpt>
      <trkpt lat="48.19883" lon="-4.02848">
        <ele>66.442341</ele>
        <time>2022-12-10T14:27:41.212Z</time>
      </trkpt>
      <trkpt lat="48.19875" lon="-4.0284">
        <ele>66.501882</ele>
        <time>2022-12-10T14:27:44.223Z</time>
      </trkpt>
      <trkpt lat="48.19866" lon="-4.02833">
        <ele>66.562373</ele>
        <time>2022-12-10T14:27:47.214Z</time>
      </trkpt>
      <trkpt lat="48.19858" lon="-4.02823">
        <ele>66.626277</ele>
        <time>2022-12-10T14:27:50.221Z</time>
      </trkpt>
      <trkpt lat="48.1985" lon="-4.02813">
        <ele>66.691692</ele>
        <time>2022-12-10T14:27:53.213Z</time>
      </trkpt>
      <trkpt lat="48.19842" lon="-4.02803">
        <ele>66.756888</ele>
        <time>2022-12-10T14:27:56.223Z</time>
      </trkpt>
      <trkpt lat="48.19833" lon="-4.02795">
        <ele>66.818922</ele>
        <time>2022-12-10T14:27:59.224Z</time>
      </trkpt>
      <trkpt lat="48.19826" lon="-4.02784">
        <ele>66.806914</ele>
        <time>2022-12-10T14:28:02.213Z</time>
      </trkpt>
      <trkpt lat="48.19818" lon="-4.02774">
        <ele>66.683172</ele>
        <time>2022-12-10T14:28:05.193Z</time>
      </trkpt>
      <trkpt lat="48.1981" lon="-4.02763">
        <ele>66.560929</ele>
        <time>2022-12-10T14:28:08.213Z</time>
      </trkpt>
      <trkpt lat="48.19802" lon="-4.02751">
        <ele>66.430677</ele>
        <time>2022-12-10T14:28:11.213Z</time>
      </trkpt>
      <trkpt lat="48.19794" lon="-4.02739">
        <ele>66.299088</ele>
        <time>2022-12-10T14:28:14.219Z</time>
      </trkpt>
      <trkpt lat="48.19786" lon="-4.02728">
        <ele>66.172672</ele>
        <time>2022-12-10T14:28:17.219Z</time>
      </trkpt>
      <trkpt lat="48.19779" lon="-4.02715">
        <ele>66.047026</ele>
        <time>2022-12-10T14:28:20.214Z</time>
      </trkpt>
      <trkpt lat="48.19772" lon="-4.02703">
        <ele>65.921234</ele>
        <time>2022-12-10T14:28:23.216Z</time>
      </trkpt>
      <trkpt lat="48.19765" lon="-4.0269">
        <ele>65.794138</ele>
        <time>2022-12-10T14:28:26.207Z</time>
      </trkpt>
      <trkpt lat="48.19758" lon="-4.02678">
        <ele>65.666698</ele>
        <time>2022-12-10T14:28:29.226Z</time>
      </trkpt>
      <trkpt lat="48.1975" lon="-4.02664">
        <ele>65.532302</ele>
        <time>2022-12-10T14:28:32.217Z</time>
      </trkpt>
      <trkpt lat="48.19743" lon="-4.02651">
        <ele>65.395703</ele>
        <time>2022-12-10T14:28:35.224Z</time>
      </trkpt>
      <trkpt lat="48.19735" lon="-4.02637">
        <ele>65.259457</ele>
        <time>2022-12-10T14:28:38.200Z</time>
      </trkpt>
      <trkpt lat="48.19728" lon="-4.02623">
        <ele>65.123711</ele>
        <time>2022-12-10T14:28:41.213Z</time>
      </trkpt>
      <trkpt lat="48.1972" lon="-4.02609">
        <ele>64.984299</ele>
        <time>2022-12-10T14:28:44.205Z</time>
      </trkpt>
      <trkpt lat="48.19713" lon="-4.02595">
        <ele>64.845599</ele>
        <time>2022-12-10T14:28:47.214Z</time>
      </trkpt>
      <trkpt lat="48.19706" lon="-4.02581">
        <ele>64.81967</ele>
        <time>2022-12-10T14:28:50.219Z</time>
      </trkpt>
      <trkpt lat="48.19699" lon="-4.02567">
        <ele>64.907426</ele>
        <time>2022-12-10T14:28:53.215Z</time>
      </trkpt>
      <trkpt lat="48.19692" lon="-4.02547">
        <ele>65.023259</ele>
        <time>2022-12-10T14:28:57.217Z</time>
      </trkpt>
      <trkpt lat="48.19688" lon="-4.02534">
        <ele>65.097319</ele>
        <time>2022-12-10T14:29:00.211Z</time>
      </trkpt>
      <trkpt lat="48.19686" lon="-4.02518">
        <ele>65.180852</ele>
        <time>2022-12-10T14:29:03.225Z</time>
      </trkpt>
      <trkpt lat="48.19683" lon="-4.02501">
        <ele>65.270724</ele>
        <time>2022-12-10T14:29:06.216Z</time>
      </trkpt>
      <trkpt lat="48.1968" lon="-4.02484">
        <ele>65.358746</ele>
        <time>2022-12-10T14:29:09.215Z</time>
      </trkpt>
      <trkpt lat="48.19678" lon="-4.02463">
        <ele>65.468708</ele>
        <time>2022-12-10T14:29:13.218Z</time>
      </trkpt>
      <trkpt lat="48.19678" lon="-4.02441">
        <ele>65.579236</ele>
        <time>2022-12-10T14:29:17.211Z</time>
      </trkpt>
      <trkpt lat="48.19677" lon="-4.02425">
        <ele>65.662036</ele>
        <time>2022-12-10T14:29:20.198Z</time>
      </trkpt>
      <trkpt lat="48.19678" lon="-4.02404">
        <ele>65.765063</ele>
        <time>2022-12-10T14:29:24.218Z</time>
      </trkpt>
      <trkpt lat="48.1968" lon="-4.02388">
        <ele>65.850851</ele>
        <time>2022-12-10T14:29:27.217Z</time>
      </trkpt>
      <trkpt lat="48.19682" lon="-4.02373">
        <ele>65.931466</ele>
        <time>2022-12-10T14:29:30.217Z</time>
      </trkpt>
      <trkpt lat="48.19686" lon="-4.02357">
        <ele>66.015314</ele>
        <time>2022-12-10T14:29:33.217Z</time>
      </trkpt>
      <trkpt lat="48.1969" lon="-4.02341">
        <ele>66.102087</ele>
        <time>2022-12-10T14:29:36.219Z</time>
      </trkpt>
      <trkpt lat="48.19695" lon="-4.02326">
        <ele>66.177168</ele>
        <time>2022-12-10T14:29:39.224Z</time>
      </trkpt>
      <trkpt lat="48.19702" lon="-4.0231">
        <ele>66.239824</ele>
        <time>2022-12-10T14:29:42.215Z</time>
      </trkpt>
      <trkpt lat="48.1971" lon="-4.02296">
        <ele>66.304484</ele>
        <time>2022-12-10T14:29:45.222Z</time>
      </trkpt>
      <trkpt lat="48.19719" lon="-4.02283">
        <ele>66.367979</ele>
        <time>2022-12-10T14:29:48.214Z</time>
      </trkpt>
      <trkpt lat="48.19731" lon="-4.02267">
        <ele>66.449817</ele>
        <time>2022-12-10T14:29:52.208Z</time>
      </trkpt>
      <trkpt lat="48.1974" lon="-4.02258">
        <ele>66.506972</ele>
        <time>2022-12-10T14:29:55.215Z</time>
      </trkpt>
      <trkpt lat="48.19752" lon="-4.02249">
        <ele>66.575717</ele>
        <time>2022-12-10T14:29:59.226Z</time>
      </trkpt>
      <trkpt lat="48.19762" lon="-4.02244">
        <ele>66.626364</ele>
        <time>2022-12-10T14:30:02.210Z</time>
      </trkpt>
      <trkpt lat="48.19774" lon="-4.02236">
        <ele>66.693889</ele>
        <time>2022-12-10T14:30:06.213Z</time>
      </trkpt>
      <trkpt lat="48.19787" lon="-4.02229">
        <ele>66.764363</ele>
        <time>2022-12-10T14:30:10.214Z</time>
      </trkpt>
      <trkpt lat="48.198" lon="-4.02222">
        <ele>66.837471</ele>
        <time>2022-12-10T14:30:14.229Z</time>
      </trkpt>
      <trkpt lat="48.1981" lon="-4.02216">
        <ele>66.891447</ele>
        <time>2022-12-10T14:30:17.215Z</time>
      </trkpt>
      <trkpt lat="48.19824" lon="-4.02209">
        <ele>66.964204</ele>
        <time>2022-12-10T14:30:21.209Z</time>
      </trkpt>
      <trkpt lat="48.19834" lon="-4.02205">
        <ele>67.020916</ele>
        <time>2022-12-10T14:30:24.220Z</time>
      </trkpt>
      <trkpt lat="48.19845" lon="-4.02201">
        <ele>67.060064</ele>
        <time>2022-12-10T14:30:27.214Z</time>
      </trkpt>
      <trkpt lat="48.19858" lon="-4.02197">
        <ele>66.926071</ele>
        <time>2022-12-10T14:30:31.215Z</time>
      </trkpt>
      <trkpt lat="48.19869" lon="-4.02194">
        <ele>66.817568</ele>
        <time>2022-12-10T14:30:34.225Z</time>
      </trkpt>
      <trkpt lat="48.19883" lon="-4.02191">
        <ele>66.684308</ele>
        <time>2022-12-10T14:30:38.226Z</time>
      </trkpt>
      <trkpt lat="48.19897" lon="-4.02187">
        <ele>66.546497</ele>
        <time>2022-12-10T14:30:42.210Z</time>
      </trkpt>
      <trkpt lat="48.19908" lon="-4.02185">
        <ele>66.441615</ele>
        <time>2022-12-10T14:30:45.205Z</time>
      </trkpt>
      <trkpt lat="48.19921" lon="-4.02182">
        <ele>66.305655</ele>
        <time>2022-12-10T14:30:49.224Z</time>
      </trkpt>
      <trkpt lat="48.19932" lon="-4.02181">
        <ele>66.201586</ele>
        <time>2022-12-10T14:30:52.216Z</time>
      </trkpt>
      <trkpt lat="48.19943" lon="-4.02179">
        <ele>66.095475</ele>
        <time>2022-12-10T14:30:55.206Z</time>
      </trkpt>
      <trkpt lat="48.19954" lon="-4.02178">
        <ele>65.987589</ele>
        <time>2022-12-10T14:30:58.225Z</time>
      </trkpt>
      <trkpt lat="48.1997" lon="-4.02175">
        <ele>65.836163</ele>
        <time>2022-12-10T14:31:02.199Z</time>
      </trkpt>
      <trkpt lat="48.19981" lon="-4.02173">
        <ele>65.725613</ele>
        <time>2022-12-10T14:31:05.208Z</time>
      </trkpt>
      <trkpt lat="48.19997" lon="-4.0217">
        <ele>65.572558</ele>
        <time>2022-12-10T14:31:09.225Z</time>
      </trkpt>
      <trkpt lat="48.20008" lon="-4.02169">
        <ele>65.466763</ele>
        <time>2022-12-10T14:31:12.218Z</time>
      </trkpt>
      <trkpt lat="48.20022" lon="-4.02168">
        <ele>65.326375</ele>
        <time>2022-12-10T14:31:16.206Z</time>
      </trkpt>
      <trkpt lat="48.20034" lon="-4.02168">
        <ele>65.316283</ele>
        <time>2022-12-10T14:31:19.213Z</time>
      </trkpt>
      <trkpt lat="48.20044" lon="-4.02168">
        <ele>65.307901</ele>
        <time>2022-12-10T14:31:22.203Z</time>
      </trkpt>
      <trkpt lat="48.20054" lon="-4.0217">
        <ele>65.298966</ele>
        <time>2022-12-10T14:31:25.215Z</time>
      </trkpt>
      <trkpt lat="48.20066" lon="-4.0217">
        <ele>65.28896</ele>
        <time>2022-12-10T14:31:28.217Z</time>
      </trkpt>
      <trkpt lat="48.20077" lon="-4.0217">
        <ele>65.279205</ele>
        <time>2022-12-10T14:31:31.213Z</time>
      </trkpt>
      <trkpt lat="48.20088" lon="-4.0217">
        <ele>65.270054</ele>
        <time>2022-12-10T14:31:34.221Z</time>
      </trkpt>
      <trkpt lat="48.201" lon="-4.02171">
        <ele>65.260216</ele>
        <time>2022-12-10T14:31:37.215Z</time>
      </trkpt>
      <trkpt lat="48.20114" lon="-4.0217">
        <ele>65.24764</ele>
        <time>2022-12-10T14:31:41.194Z</time>
      </trkpt>
      <trkpt lat="48.20125" lon="-4.0217">
        <ele>65.238315</ele>
        <time>2022-12-10T14:31:44.205Z</time>
      </trkpt>
      <trkpt lat="48.20137" lon="-4.02169">
        <ele>65.22848</ele>
        <time>2022-12-10T14:31:47.205Z</time>
      </trkpt>
      <trkpt lat="48.20148" lon="-4.02168">
        <ele>65.218454</ele>
        <time>2022-12-10T14:31:50.207Z</time>
      </trkpt>
      <trkpt lat="48.2016" lon="-4.02167">
        <ele>65.208071</ele>
        <time>2022-12-10T14:31:53.213Z</time>
      </trkpt>
      <trkpt lat="48.20172" lon="-4.02165">
        <ele>65.198369</ele>
        <time>2022-12-10T14:31:56.213Z</time>
      </trkpt>
      <trkpt lat="48.20187" lon="-4.02164">
        <ele>65.184903</ele>
        <time>2022-12-10T14:32:00.225Z</time>
      </trkpt>
      <trkpt lat="48.20199" lon="-4.02161">
        <ele>65.174981</ele>
        <time>2022-12-10T14:32:03.214Z</time>
      </trkpt>
      <trkpt lat="48.20215" lon="-4.02159">
        <ele>65.433503</ele>
        <time>2022-12-10T14:32:07.219Z</time>
      </trkpt>
      <trkpt lat="48.20227" lon="-4.02158">
        <ele>65.671736</ele>
        <time>2022-12-10T14:32:10.217Z</time>
      </trkpt>
      <trkpt lat="48.20239" lon="-4.02158">
        <ele>65.911939</ele>
        <time>2022-12-10T14:32:13.212Z</time>
      </trkpt>
      <trkpt lat="48.2025" lon="-4.02158">
        <ele>66.146247</ele>
        <time>2022-12-10T14:32:16.217Z</time>
      </trkpt>
      <trkpt lat="48.20266" lon="-4.02159">
        <ele>66.454084</ele>
        <time>2022-12-10T14:32:20.219Z</time>
      </trkpt>
      <trkpt lat="48.20277" lon="-4.02161">
        <ele>66.679667</ele>
        <time>2022-12-10T14:32:23.217Z</time>
      </trkpt>
      <trkpt lat="48.20288" lon="-4.02163">
        <ele>66.903734</ele>
        <time>2022-12-10T14:32:26.217Z</time>
      </trkpt>
      <trkpt lat="48.20298" lon="-4.02165">
        <ele>67.102218</ele>
        <time>2022-12-10T14:32:29.215Z</time>
      </trkpt>
      <trkpt lat="48.2031" lon="-4.02167">
        <ele>67.33039</ele>
        <time>2022-12-10T14:32:33.209Z</time>
      </trkpt>
      <trkpt lat="48.20319" lon="-4.02168">
        <ele>67.51333</ele>
        <time>2022-12-10T14:32:36.198Z</time>
      </trkpt>
      <trkpt lat="48.20328" lon="-4.02169">
        <ele>67.691434</ele>
        <time>2022-12-10T14:32:39.224Z</time>
      </trkpt>
      <trkpt lat="48.20338" lon="-4.02171">
        <ele>67.887275</ele>
        <time>2022-12-10T14:32:42.218Z</time>
      </trkpt>
      <trkpt lat="48.20348" lon="-4.02172">
        <ele>68.089972</ele>
        <time>2022-12-10T14:32:45.219Z</time>
      </trkpt>
      <trkpt lat="48.20358" lon="-4.02173">
        <ele>68.289477</ele>
        <time>2022-12-10T14:32:48.217Z</time>
      </trkpt>
      <trkpt lat="48.20368" lon="-4.02176">
        <ele>68.487275</ele>
        <time>2022-12-10T14:32:51.223Z</time>
      </trkpt>
      <trkpt lat="48.2038" lon="-4.02181">
        <ele>68.74146</ele>
        <time>2022-12-10T14:32:55.210Z</time>
      </trkpt>
      <trkpt lat="48.2039" lon="-4.02183">
        <ele>68.618824</ele>
        <time>2022-12-10T14:32:58.213Z</time>
      </trkpt>
      <trkpt lat="48.20399" lon="-4.02187">
        <ele>68.494355</ele>
        <time>2022-12-10T14:33:01.211Z</time>
      </trkpt>
      <trkpt lat="48.20409" lon="-4.02189">
        <ele>68.366408</ele>
        <time>2022-12-10T14:33:04.197Z</time>
      </trkpt>
      <trkpt lat="48.2042" lon="-4.02191">
        <ele>68.224803</ele>
        <time>2022-12-10T14:33:07.215Z</time>
      </trkpt>
      <trkpt lat="48.2043" lon="-4.02194">
        <ele>68.094287</ele>
        <time>2022-12-10T14:33:10.215Z</time>
      </trkpt>
      <trkpt lat="48.20444" lon="-4.02198">
        <ele>67.913278</ele>
        <time>2022-12-10T14:33:14.204Z</time>
      </trkpt>
      <trkpt lat="48.20455" lon="-4.02201">
        <ele>67.771097</ele>
        <time>2022-12-10T14:33:17.192Z</time>
      </trkpt>
      <trkpt lat="48.20464" lon="-4.02205">
        <ele>67.644954</ele>
        <time>2022-12-10T14:33:20.214Z</time>
      </trkpt>
      <trkpt lat="48.20475" lon="-4.02209">
        <ele>67.508206</ele>
        <time>2022-12-10T14:33:23.213Z</time>
      </trkpt>
      <trkpt lat="48.20489" lon="-4.02213">
        <ele>67.315111</ele>
        <time>2022-12-10T14:33:27.227Z</time>
      </trkpt>
      <trkpt lat="48.20501" lon="-4.02217">
        <ele>67.159013</ele>
        <time>2022-12-10T14:33:30.227Z</time>
      </trkpt>
      <trkpt lat="48.20513" lon="-4.02221">
        <ele>67.002168</ele>
        <time>2022-12-10T14:33:33.214Z</time>
      </trkpt>
      <trkpt lat="48.20528" lon="-4.02226">
        <ele>66.812139</ele>
        <time>2022-12-10T14:33:37.209Z</time>
      </trkpt>
      <trkpt lat="48.20538" lon="-4.0223">
        <ele>66.670452</ele>
        <time>2022-12-10T14:33:40.222Z</time>
      </trkpt>
      <trkpt lat="48.20549" lon="-4.02234">
        <ele>66.525434</ele>
        <time>2022-12-10T14:33:43.214Z</time>
      </trkpt>
      <trkpt lat="48.2056" lon="-4.02238">
        <ele>66.48887</ele>
        <time>2022-12-10T14:33:46.219Z</time>
      </trkpt>
      <trkpt lat="48.20571" lon="-4.02242">
        <ele>66.628834</ele>
        <time>2022-12-10T14:33:49.216Z</time>
      </trkpt>
      <trkpt lat="48.20585" lon="-4.02246">
        <ele>66.808468</ele>
        <time>2022-12-10T14:33:53.223Z</time>
      </trkpt>
      <trkpt lat="48.206" lon="-4.02251">
        <ele>66.998467</ele>
        <time>2022-12-10T14:33:57.202Z</time>
      </trkpt>
      <trkpt lat="48.20614" lon="-4.02253">
        <ele>67.180762</ele>
        <time>2022-12-10T14:34:01.226Z</time>
      </trkpt>
      <trkpt lat="48.20626" lon="-4.02254">
        <ele>67.331935</ele>
        <time>2022-12-10T14:34:04.224Z</time>
      </trkpt>
      <trkpt lat="48.20639" lon="-4.02253">
        <ele>67.488177</ele>
        <time>2022-12-10T14:34:07.223Z</time>
      </trkpt>
      <trkpt lat="48.2065" lon="-4.02252">
        <ele>67.635447</ele>
        <time>2022-12-10T14:34:10.201Z</time>
      </trkpt>
      <trkpt lat="48.20662" lon="-4.02252">
        <ele>67.78285</ele>
        <time>2022-12-10T14:34:13.218Z</time>
      </trkpt>
      <trkpt lat="48.20673" lon="-4.02249">
        <ele>67.921716</ele>
        <time>2022-12-10T14:34:16.210Z</time>
      </trkpt>
      <trkpt lat="48.20684" lon="-4.02244">
        <ele>68.063201</ele>
        <time>2022-12-10T14:34:19.199Z</time>
      </trkpt>
      <trkpt lat="48.20698" lon="-4.02237">
        <ele>68.257095</ele>
        <time>2022-12-10T14:34:23.216Z</time>
      </trkpt>
      <trkpt lat="48.20709" lon="-4.0223">
        <ele>68.403504</ele>
        <time>2022-12-10T14:34:26.212Z</time>
      </trkpt>
      <trkpt lat="48.2072" lon="-4.02224">
        <ele>68.550483</ele>
        <time>2022-12-10T14:34:29.214Z</time>
      </trkpt>
      <trkpt lat="48.2073" lon="-4.02217">
        <ele>68.694592</ele>
        <time>2022-12-10T14:34:32.216Z</time>
      </trkpt>
      <trkpt lat="48.20741" lon="-4.0221">
        <ele>68.639184</ele>
        <time>2022-12-10T14:34:35.192Z</time>
      </trkpt>
      <trkpt lat="48.20752" lon="-4.02203">
        <ele>68.578633</ele>
        <time>2022-12-10T14:34:38.188Z</time>
      </trkpt>
      <trkpt lat="48.20763" lon="-4.02195">
        <ele>68.51631</ele>
        <time>2022-12-10T14:34:41.215Z</time>
      </trkpt>
      <trkpt lat="48.20773" lon="-4.02188">
        <ele>68.453554</ele>
        <time>2022-12-10T14:34:44.200Z</time>
      </trkpt>
      <trkpt lat="48.20784" lon="-4.02179">
        <ele>68.391497</ele>
        <time>2022-12-10T14:34:47.223Z</time>
      </trkpt>
      <trkpt lat="48.20794" lon="-4.0217">
        <ele>68.32728</ele>
        <time>2022-12-10T14:34:50.197Z</time>
      </trkpt>
      <trkpt lat="48.20805" lon="-4.02161">
        <ele>68.263279</ele>
        <time>2022-12-10T14:34:53.214Z</time>
      </trkpt>
      <trkpt lat="48.20816" lon="-4.02151">
        <ele>68.196838</ele>
        <time>2022-12-10T14:34:56.214Z</time>
      </trkpt>
      <trkpt lat="48.20826" lon="-4.02141">
        <ele>68.133031</ele>
        <time>2022-12-10T14:34:59.225Z</time>
      </trkpt>
      <trkpt lat="48.20836" lon="-4.0213">
        <ele>68.069339</ele>
        <time>2022-12-10T14:35:02.215Z</time>
      </trkpt>
      <trkpt lat="48.20846" lon="-4.02119">
        <ele>68.00314</ele>
        <time>2022-12-10T14:35:05.216Z</time>
      </trkpt>
      <trkpt lat="48.20858" lon="-4.02105">
        <ele>67.924165</ele>
        <time>2022-12-10T14:35:09.198Z</time>
      </trkpt>
      <trkpt lat="48.20867" lon="-4.02095">
        <ele>67.865273</ele>
        <time>2022-12-10T14:35:12.205Z</time>
      </trkpt>
      <trkpt lat="48.20877" lon="-4.02084">
        <ele>67.802208</ele>
        <time>2022-12-10T14:35:15.216Z</time>
      </trkpt>
      <trkpt lat="48.20887" lon="-4.02073">
        <ele>67.762237</ele>
        <time>2022-12-10T14:35:18.221Z</time>
      </trkpt>
      <trkpt lat="48.20897" lon="-4.02061">
        <ele>67.769989</ele>
        <time>2022-12-10T14:35:21.209Z</time>
      </trkpt>
      <trkpt lat="48.20909" lon="-4.02044">
        <ele>67.780258</ele>
        <time>2022-12-10T14:35:25.223Z</time>
      </trkpt>
      <trkpt lat="48.20919" lon="-4.0203">
        <ele>67.788263</ele>
        <time>2022-12-10T14:35:28.212Z</time>
      </trkpt>
      <trkpt lat="48.20928" lon="-4.02018">
        <ele>67.795714</ele>
        <time>2022-12-10T14:35:31.214Z</time>
      </trkpt>
      <trkpt lat="48.20938" lon="-4.02008">
        <ele>67.802932</ele>
        <time>2022-12-10T14:35:34.205Z</time>
      </trkpt>
      <trkpt lat="48.20948" lon="-4.01998">
        <ele>67.810319</ele>
        <time>2022-12-10T14:35:37.202Z</time>
      </trkpt>
      <trkpt lat="48.20959" lon="-4.01989">
        <ele>67.817679</ele>
        <time>2022-12-10T14:35:40.221Z</time>
      </trkpt>
      <trkpt lat="48.2097" lon="-4.01981">
        <ele>67.825213</ele>
        <time>2022-12-10T14:35:43.216Z</time>
      </trkpt>
      <trkpt lat="48.20981" lon="-4.01973">
        <ele>67.83288</ele>
        <time>2022-12-10T14:35:46.222Z</time>
      </trkpt>
      <trkpt lat="48.20997" lon="-4.01962">
        <ele>67.843152</ele>
        <time>2022-12-10T14:35:50.214Z</time>
      </trkpt>
      <trkpt lat="48.21009" lon="-4.01955">
        <ele>67.850931</ele>
        <time>2022-12-10T14:35:53.221Z</time>
      </trkpt>
      <trkpt lat="48.2102" lon="-4.01948">
        <ele>67.858676</ele>
        <time>2022-12-10T14:35:56.205Z</time>
      </trkpt>
      <trkpt lat="48.21035" lon="-4.01937">
        <ele>67.868674</ele>
        <time>2022-12-10T14:36:00.217Z</time>
      </trkpt>
      <trkpt lat="48.21045" lon="-4.01932">
        <ele>67.974087</ele>
        <time>2022-12-10T14:36:03.221Z</time>
      </trkpt>
      <trkpt lat="48.21053" lon="-4.01925">
        <ele>68.076807</ele>
        <time>2022-12-10T14:36:06.215Z</time>
      </trkpt>
      <trkpt lat="48.21065" lon="-4.01917">
        <ele>68.21763</ele>
        <time>2022-12-10T14:36:10.199Z</time>
      </trkpt>
      <trkpt lat="48.21073" lon="-4.01907">
        <ele>68.331581</ele>
        <time>2022-12-10T14:36:13.207Z</time>
      </trkpt>
      <trkpt lat="48.21081" lon="-4.01899">
        <ele>68.440142</ele>
        <time>2022-12-10T14:36:16.202Z</time>
      </trkpt>
      <trkpt lat="48.21091" lon="-4.0189">
        <ele>68.560418</ele>
        <time>2022-12-10T14:36:19.213Z</time>
      </trkpt>
      <trkpt lat="48.21103" lon="-4.01878">
        <ele>68.722477</ele>
        <time>2022-12-10T14:36:23.215Z</time>
      </trkpt>
      <trkpt lat="48.21116" lon="-4.01865">
        <ele>68.890654</ele>
        <time>2022-12-10T14:36:27.219Z</time>
      </trkpt>
      <trkpt lat="48.21127" lon="-4.01856">
        <ele>69.020329</ele>
        <time>2022-12-10T14:36:30.223Z</time>
      </trkpt>
      <trkpt lat="48.21136" lon="-4.01846">
        <ele>69.144677</ele>
        <time>2022-12-10T14:36:33.214Z</time>
      </trkpt>
      <trkpt lat="48.21149" lon="-4.01832">
        <ele>69.318724</ele>
        <time>2022-12-10T14:36:37.239Z</time>
      </trkpt>
      <trkpt lat="48.21158" lon="-4.01822">
        <ele>69.442642</ele>
        <time>2022-12-10T14:36:40.219Z</time>
      </trkpt>
      <trkpt lat="48.21169" lon="-4.01811">
        <ele>69.583042</ele>
        <time>2022-12-10T14:36:43.216Z</time>
      </trkpt>
      <trkpt lat="48.21181" lon="-4.01796">
        <ele>69.754643</ele>
        <time>2022-12-10T14:36:47.206Z</time>
      </trkpt>
      <trkpt lat="48.21193" lon="-4.0178">
        <ele>69.717897</ele>
        <time>2022-12-10T14:36:51.244Z</time>
      </trkpt>
      <trkpt lat="48.21204" lon="-4.01765">
        <ele>69.569211</ele>
        <time>2022-12-10T14:36:55.202Z</time>
      </trkpt>
      <trkpt lat="48.2121" lon="-4.01751">
        <ele>69.455314</ele>
        <time>2022-12-10T14:36:58.227Z</time>
      </trkpt>
      <trkpt lat="48.21217" lon="-4.01737">
        <ele>69.344193</ele>
        <time>2022-12-10T14:37:01.195Z</time>
      </trkpt>
      <trkpt lat="48.21222" lon="-4.01722">
        <ele>69.233679</ele>
        <time>2022-12-10T14:37:04.206Z</time>
      </trkpt>
      <trkpt lat="48.21226" lon="-4.01701">
        <ele>69.089618</ele>
        <time>2022-12-10T14:37:08.214Z</time>
      </trkpt>
      <trkpt lat="48.21228" lon="-4.01685">
        <ele>68.977422</ele>
        <time>2022-12-10T14:37:11.223Z</time>
      </trkpt>
      <trkpt lat="48.21232" lon="-4.01662">
        <ele>68.817622</ele>
        <time>2022-12-10T14:37:15.221Z</time>
      </trkpt>
      <trkpt lat="48.21235" lon="-4.01643">
        <ele>68.692919</ele>
        <time>2022-12-10T14:37:18.209Z</time>
      </trkpt>
      <trkpt lat="48.21239" lon="-4.01621">
        <ele>68.538761</ele>
        <time>2022-12-10T14:37:22.218Z</time>
      </trkpt>
      <trkpt lat="48.21242" lon="-4.01603">
        <ele>68.413999</ele>
        <time>2022-12-10T14:37:25.224Z</time>
      </trkpt>
      <trkpt lat="48.21244" lon="-4.01584">
        <ele>68.290836</ele>
        <time>2022-12-10T14:37:28.212Z</time>
      </trkpt>
      <trkpt lat="48.21246" lon="-4.01567">
        <ele>68.175698</ele>
        <time>2022-12-10T14:37:31.238Z</time>
      </trkpt>
      <trkpt lat="48.21248" lon="-4.0155">
        <ele>68.061528</ele>
        <time>2022-12-10T14:37:34.216Z</time>
      </trkpt>
      <trkpt lat="48.2125" lon="-4.01533">
        <ele>67.88485</ele>
        <time>2022-12-10T14:37:37.192Z</time>
      </trkpt>
      <trkpt lat="48.21253" lon="-4.01512">
        <ele>67.632316</ele>
        <time>2022-12-10T14:37:41.218Z</time>
      </trkpt>
      <trkpt lat="48.21255" lon="-4.01496">
        <ele>67.433321</ele>
        <time>2022-12-10T14:37:44.212Z</time>
      </trkpt>
      <trkpt lat="48.21256" lon="-4.01479">
        <ele>67.236155</ele>
        <time>2022-12-10T14:37:47.214Z</time>
      </trkpt>
      <trkpt lat="48.21255" lon="-4.01462">
        <ele>67.026472</ele>
        <time>2022-12-10T14:37:50.217Z</time>
      </trkpt>
      <trkpt lat="48.21254" lon="-4.01443">
        <ele>66.808496</ele>
        <time>2022-12-10T14:37:53.219Z</time>
      </trkpt>
      <trkpt lat="48.21253" lon="-4.01419">
        <ele>66.518762</ele>
        <time>2022-12-10T14:37:57.196Z</time>
      </trkpt>
      <trkpt lat="48.21251" lon="-4.01395">
        <ele>66.235791</ele>
        <time>2022-12-10T14:38:01.215Z</time>
      </trkpt>
      <trkpt lat="48.2125" lon="-4.01377">
        <ele>66.013631</ele>
        <time>2022-12-10T14:38:04.215Z</time>
      </trkpt>
      <trkpt lat="48.21247" lon="-4.01359">
        <ele>65.793906</ele>
        <time>2022-12-10T14:38:07.205Z</time>
      </trkpt>
      <trkpt lat="48.21245" lon="-4.01342">
        <ele>65.588644</ele>
        <time>2022-12-10T14:38:10.219Z</time>
      </trkpt>
      <trkpt lat="48.21241" lon="-4.01325">
        <ele>65.378186</ele>
        <time>2022-12-10T14:38:13.223Z</time>
      </trkpt>
      <trkpt lat="48.21239" lon="-4.01308">
        <ele>65.166235</ele>
        <time>2022-12-10T14:38:16.215Z</time>
      </trkpt>
      <trkpt lat="48.21238" lon="-4.01289">
        <ele>64.942495</ele>
        <time>2022-12-10T14:38:19.215Z</time>
      </trkpt>
      <trkpt lat="48.21235" lon="-4.01264">
        <ele>64.733122</ele>
        <time>2022-12-10T14:38:23.203Z</time>
      </trkpt>
      <trkpt lat="48.2123" lon="-4.01244">
        <ele>64.601613</ele>
        <time>2022-12-10T14:38:27.215Z</time>
      </trkpt>
      <trkpt lat="48.21225" lon="-4.01229">
        <ele>64.503329</ele>
        <time>2022-12-10T14:38:30.225Z</time>
      </trkpt>
      <trkpt lat="48.21219" lon="-4.01215">
        <ele>64.404052</ele>
        <time>2022-12-10T14:38:33.214Z</time>
      </trkpt>
      <trkpt lat="48.21212" lon="-4.012">
        <ele>64.299421</ele>
        <time>2022-12-10T14:38:36.229Z</time>
      </trkpt>
      <trkpt lat="48.21205" lon="-4.01186">
        <ele>64.192225</ele>
        <time>2022-12-10T14:38:39.218Z</time>
      </trkpt>
      <trkpt lat="48.21196" lon="-4.01174">
        <ele>64.088829</ele>
        <time>2022-12-10T14:38:42.216Z</time>
      </trkpt>
      <trkpt lat="48.21188" lon="-4.01163">
        <ele>63.989326</ele>
        <time>2022-12-10T14:38:45.222Z</time>
      </trkpt>
      <trkpt lat="48.21175" lon="-4.0115">
        <ele>63.847</ele>
        <time>2022-12-10T14:38:49.201Z</time>
      </trkpt>
      <trkpt lat="48.21165" lon="-4.01141">
        <ele>63.745057</ele>
        <time>2022-12-10T14:38:52.217Z</time>
      </trkpt>
      <trkpt lat="48.21155" lon="-4.01131">
        <ele>63.641475</ele>
        <time>2022-12-10T14:38:55.192Z</time>
      </trkpt>
      <trkpt lat="48.21146" lon="-4.01119">
        <ele>63.532526</ele>
        <time>2022-12-10T14:38:58.202Z</time>
      </trkpt>
      <trkpt lat="48.21136" lon="-4.01109">
        <ele>63.424182</ele>
        <time>2022-12-10T14:39:01.226Z</time>
      </trkpt>
      <trkpt lat="48.21125" lon="-4.01099">
        <ele>63.316075</ele>
        <time>2022-12-10T14:39:04.202Z</time>
      </trkpt>
      <trkpt lat="48.21113" lon="-4.01086">
        <ele>63.272976</ele>
        <time>2022-12-10T14:39:08.212Z</time>
      </trkpt>
      <trkpt lat="48.21103" lon="-4.01076">
        <ele>63.417371</ele>
        <time>2022-12-10T14:39:11.220Z</time>
      </trkpt>
      <trkpt lat="48.21093" lon="-4.01067">
        <ele>63.562673</ele>
        <time>2022-12-10T14:39:14.216Z</time>
      </trkpt>
      <trkpt lat="48.21083" lon="-4.01057">
        <ele>63.709829</ele>
        <time>2022-12-10T14:39:17.228Z</time>
      </trkpt>
      <trkpt lat="48.2107" lon="-4.01043">
        <ele>63.905598</ele>
        <time>2022-12-10T14:39:21.229Z</time>
      </trkpt>
      <trkpt lat="48.21057" lon="-4.0103">
        <ele>64.101771</ele>
        <time>2022-12-10T14:39:25.208Z</time>
      </trkpt>
      <trkpt lat="48.21047" lon="-4.0102">
        <ele>64.253507</ele>
        <time>2022-12-10T14:39:28.214Z</time>
      </trkpt>
      <trkpt lat="48.21037" lon="-4.01009">
        <ele>64.405244</ele>
        <time>2022-12-10T14:39:31.226Z</time>
      </trkpt>
      <trkpt lat="48.21024" lon="-4.00996">
        <ele>64.604613</ele>
        <time>2022-12-10T14:39:35.207Z</time>
      </trkpt>
      <trkpt lat="48.21015" lon="-4.00987">
        <ele>64.734418</ele>
        <time>2022-12-10T14:39:38.221Z</time>
      </trkpt>
      <trkpt lat="48.21006" lon="-4.00979">
        <ele>64.863361</ele>
        <time>2022-12-10T14:39:41.200Z</time>
      </trkpt>
      <trkpt lat="48.20997" lon="-4.00971">
        <ele>64.996564</ele>
        <time>2022-12-10T14:39:44.214Z</time>
      </trkpt>
      <trkpt lat="48.20988" lon="-4.00961">
        <ele>65.125876</ele>
        <time>2022-12-10T14:39:47.214Z</time>
      </trkpt>
      <trkpt lat="48.20979" lon="-4.00952">
        <ele>65.269815</ele>
        <time>2022-12-10T14:39:50.213Z</time>
      </trkpt>
      <trkpt lat="48.20969" lon="-4.00943">
        <ele>65.412143</ele>
        <time>2022-12-10T14:39:53.216Z</time>
      </trkpt>
      <trkpt lat="48.20959" lon="-4.00933">
        <ele>65.45516</ele>
        <time>2022-12-10T14:39:56.218Z</time>
      </trkpt>
      <trkpt lat="48.2095" lon="-4.00923">
        <ele>65.466899</ele>
        <time>2022-12-10T14:39:59.214Z</time>
      </trkpt>
      <trkpt lat="48.20941" lon="-4.00914">
        <ele>65.478724</ele>
        <time>2022-12-10T14:40:02.212Z</time>
      </trkpt>
      <trkpt lat="48.20932" lon="-4.00904">
        <ele>65.490725</ele>
        <time>2022-12-10T14:40:05.226Z</time>
      </trkpt>
      <trkpt lat="48.20923" lon="-4.00895">
        <ele>65.502656</ele>
        <time>2022-12-10T14:40:08.220Z</time>
      </trkpt>
      <trkpt lat="48.20913" lon="-4.00885">
        <ele>65.514815</ele>
        <time>2022-12-10T14:40:11.225Z</time>
      </trkpt>
      <trkpt lat="48.20905" lon="-4.00877">
        <ele>65.525345</ele>
        <time>2022-12-10T14:40:14.216Z</time>
      </trkpt>
      <trkpt lat="48.20896" lon="-4.0087">
        <ele>65.535576</ele>
        <time>2022-12-10T14:40:17.215Z</time>
      </trkpt>
      <trkpt lat="48.20887" lon="-4.00862">
        <ele>65.546416</ele>
        <time>2022-12-10T14:40:20.227Z</time>
      </trkpt>
      <trkpt lat="48.20878" lon="-4.00855">
        <ele>65.557858</ele>
        <time>2022-12-10T14:40:23.208Z</time>
      </trkpt>
      <trkpt lat="48.20868" lon="-4.00848">
        <ele>65.569294</ele>
        <time>2022-12-10T14:40:26.213Z</time>
      </trkpt>
      <trkpt lat="48.20858" lon="-4.0084">
        <ele>65.580862</ele>
        <time>2022-12-10T14:40:29.216Z</time>
      </trkpt>
      <trkpt lat="48.20848" lon="-4.00834">
        <ele>65.59247</ele>
        <time>2022-12-10T14:40:32.216Z</time>
      </trkpt>
      <trkpt lat="48.20838" lon="-4.0083">
        <ele>65.603736</ele>
        <time>2022-12-10T14:40:35.213Z</time>
      </trkpt>
      <trkpt lat="48.20827" lon="-4.00827">
        <ele>65.615505</ele>
        <time>2022-12-10T14:40:38.214Z</time>
      </trkpt>
      <trkpt lat="48.20812" lon="-4.00823">
        <ele>65.631741</ele>
        <time>2022-12-10T14:40:42.216Z</time>
      </trkpt>
      <trkpt lat="48.20801" lon="-4.0082">
        <ele>65.652655</ele>
        <time>2022-12-10T14:40:45.218Z</time>
      </trkpt>
      <trkpt lat="48.20789" lon="-4.00819">
        <ele>65.679648</ele>
        <time>2022-12-10T14:40:48.225Z</time>
      </trkpt>
      <trkpt lat="48.20776" lon="-4.0082">
        <ele>65.710864</ele>
        <time>2022-12-10T14:40:52.227Z</time>
      </trkpt>
      <trkpt lat="48.20765" lon="-4.00821">
        <ele>65.736</ele>
        <time>2022-12-10T14:40:55.217Z</time>
      </trkpt>
      <trkpt lat="48.20755" lon="-4.00823">
        <ele>65.761107</ele>
        <time>2022-12-10T14:40:58.219Z</time>
      </trkpt>
      <trkpt lat="48.20744" lon="-4.00826">
        <ele>65.786706</ele>
        <time>2022-12-10T14:41:01.214Z</time>
      </trkpt>
      <trkpt lat="48.20733" lon="-4.0083">
        <ele>65.812123</ele>
        <time>2022-12-10T14:41:04.221Z</time>
      </trkpt>
      <trkpt lat="48.20723" lon="-4.00835">
        <ele>65.837746</ele>
        <time>2022-12-10T14:41:07.218Z</time>
      </trkpt>
      <trkpt lat="48.20713" lon="-4.0084">
        <ele>65.862781</ele>
        <time>2022-12-10T14:41:10.227Z</time>
      </trkpt>
      <trkpt lat="48.20699" lon="-4.00847">
        <ele>65.897482</ele>
        <time>2022-12-10T14:41:14.231Z</time>
      </trkpt>
      <trkpt lat="48.20688" lon="-4.00853">
        <ele>65.923625</ele>
        <time>2022-12-10T14:41:17.231Z</time>
      </trkpt>
      <trkpt lat="48.20679" lon="-4.00861">
        <ele>65.949902</ele>
        <time>2022-12-10T14:41:20.221Z</time>
      </trkpt>
      <trkpt lat="48.20669" lon="-4.0087">
        <ele>65.976097</ele>
        <time>2022-12-10T14:41:23.205Z</time>
      </trkpt>
      <trkpt lat="48.2066" lon="-4.00879">
        <ele>66.002048</ele>
        <time>2022-12-10T14:41:26.224Z</time>
      </trkpt>
      <trkpt lat="48.20651" lon="-4.00889">
        <ele>66.028442</ele>
        <time>2022-12-10T14:41:29.214Z</time>
      </trkpt>
      <trkpt lat="48.20643" lon="-4.00901">
        <ele>66.055889</ele>
        <time>2022-12-10T14:41:32.222Z</time>
      </trkpt>
      <trkpt lat="48.20634" lon="-4.00913">
        <ele>66.102767</ele>
        <time>2022-12-10T14:41:35.220Z</time>
      </trkpt>
      <trkpt lat="48.20625" lon="-4.00926">
        <ele>66.15212</ele>
        <time>2022-12-10T14:41:38.216Z</time>
      </trkpt>
      <trkpt lat="48.20614" lon="-4.00943">
        <ele>66.219687</ele>
        <time>2022-12-10T14:41:42.210Z</time>
      </trkpt>
      <trkpt lat="48.20605" lon="-4.00957">
        <ele>66.270038</ele>
        <time>2022-12-10T14:41:45.215Z</time>
      </trkpt>
      <trkpt lat="48.20597" lon="-4.0097">
        <ele>66.320752</ele>
        <time>2022-12-10T14:41:48.216Z</time>
      </trkpt>
      <trkpt lat="48.20589" lon="-4.00982">
        <ele>66.368252</ele>
        <time>2022-12-10T14:41:51.217Z</time>
      </trkpt>
      <trkpt lat="48.20581" lon="-4.00994">
        <ele>66.413425</ele>
        <time>2022-12-10T14:41:54.225Z</time>
      </trkpt>
      <trkpt lat="48.20573" lon="-4.01005">
        <ele>66.4587</ele>
        <time>2022-12-10T14:41:57.214Z</time>
      </trkpt>
      <trkpt lat="48.20566" lon="-4.01017">
        <ele>66.502761</ele>
        <time>2022-12-10T14:42:00.205Z</time>
      </trkpt>
      <trkpt lat="48.20558" lon="-4.01028">
        <ele>66.54563</ele>
        <time>2022-12-10T14:42:03.232Z</time>
      </trkpt>
      <trkpt lat="48.20551" lon="-4.01038">
        <ele>66.584603</ele>
        <time>2022-12-10T14:42:06.218Z</time>
      </trkpt>
      <trkpt lat="48.20544" lon="-4.01049">
        <ele>66.628634</ele>
        <time>2022-12-10T14:42:09.216Z</time>
      </trkpt>
      <trkpt lat="48.20532" lon="-4.01064">
        <ele>66.69169</ele>
        <time>2022-12-10T14:42:13.213Z</time>
      </trkpt>
      <trkpt lat="48.20523" lon="-4.01075">
        <ele>66.737551</ele>
        <time>2022-12-10T14:42:16.198Z</time>
      </trkpt>
      <trkpt lat="48.20514" lon="-4.01085">
        <ele>66.783785</ele>
        <time>2022-12-10T14:42:19.227Z</time>
      </trkpt>
      <trkpt lat="48.20506" lon="-4.01094">
        <ele>66.851103</ele>
        <time>2022-12-10T14:42:22.211Z</time>
      </trkpt>
      <trkpt lat="48.20496" lon="-4.01106">
        <ele>66.957908</ele>
        <time>2022-12-10T14:42:26.204Z</time>
      </trkpt>
      <trkpt lat="48.20489" lon="-4.01116">
        <ele>67.036892</ele>
        <time>2022-12-10T14:42:29.206Z</time>
      </trkpt>
      <trkpt lat="48.20483" lon="-4.01125">
        <ele>67.112163</ele>
        <time>2022-12-10T14:42:32.214Z</time>
      </trkpt>
      <trkpt lat="48.20475" lon="-4.01135">
        <ele>67.195778</ele>
        <time>2022-12-10T14:42:35.218Z</time>
      </trkpt>
      <trkpt lat="48.20466" lon="-4.01145">
        <ele>67.28382</ele>
        <time>2022-12-10T14:42:38.215Z</time>
      </trkpt>
      <trkpt lat="48.20459" lon="-4.01155">
        <ele>67.367289</ele>
        <time>2022-12-10T14:42:41.194Z</time>
      </trkpt>
      <trkpt lat="48.20452" lon="-4.01164">
        <ele>67.44418</ele>
        <time>2022-12-10T14:42:44.216Z</time>
      </trkpt>
      <trkpt lat="48.20443" lon="-4.01174">
        <ele>67.531532</ele>
        <time>2022-12-10T14:42:48.228Z</time>
      </trkpt>
      <trkpt lat="48.20434" lon="-4.01184">
        <ele>67.627177</ele>
        <time>2022-12-10T14:42:52.217Z</time>
      </trkpt>
      <trkpt lat="48.20426" lon="-4.01193">
        <ele>67.703383</ele>
        <time>2022-12-10T14:42:55.209Z</time>
      </trkpt>
      <trkpt lat="48.20419" lon="-4.01202">
        <ele>67.782578</ele>
        <time>2022-12-10T14:42:58.220Z</time>
      </trkpt>
      <trkpt lat="48.20412" lon="-4.01211">
        <ele>67.85971</ele>
        <time>2022-12-10T14:43:01.221Z</time>
      </trkpt>
      <trkpt lat="48.20402" lon="-4.01224">
        <ele>67.965412</ele>
        <time>2022-12-10T14:43:05.214Z</time>
      </trkpt>
      <trkpt lat="48.20395" lon="-4.01233">
        <ele>68.045376</ele>
        <time>2022-12-10T14:43:08.217Z</time>
      </trkpt>
      <trkpt lat="48.20387" lon="-4.01243">
        <ele>68.12544</ele>
        <time>2022-12-10T14:43:11.214Z</time>
      </trkpt>
      <trkpt lat="48.2038" lon="-4.01252">
        <ele>68.205404</ele>
        <time>2022-12-10T14:43:14.223Z</time>
      </trkpt>
      <trkpt lat="48.20373" lon="-4.01262">
        <ele>68.265055</ele>
        <time>2022-12-10T14:43:17.215Z</time>
      </trkpt>
      <trkpt lat="48.20364" lon="-4.01272">
        <ele>68.185924</ele>
        <time>2022-12-10T14:43:20.221Z</time>
      </trkpt>
      <trkpt lat="48.20355" lon="-4.01281">
        <ele>68.10822</ele>
        <time>2022-12-10T14:43:23.214Z</time>
      </trkpt>
      <trkpt lat="48.20343" lon="-4.01294">
        <ele>68.000857</ele>
        <time>2022-12-10T14:43:27.222Z</time>
      </trkpt>
      <trkpt lat="48.20333" lon="-4.01303">
        <ele>67.918011</ele>
        <time>2022-12-10T14:43:30.214Z</time>
      </trkpt>
      <trkpt lat="48.20323" lon="-4.01312">
        <ele>67.832329</ele>
        <time>2022-12-10T14:43:33.223Z</time>
      </trkpt>
      <trkpt lat="48.20312" lon="-4.0132">
        <ele>67.744945</ele>
        <time>2022-12-10T14:43:36.228Z</time>
      </trkpt>
      <trkpt lat="48.20302" lon="-4.01328">
        <ele>67.658866</ele>
        <time>2022-12-10T14:43:39.225Z</time>
      </trkpt>
      <trkpt lat="48.20291" lon="-4.01335">
        <ele>67.569266</ele>
        <time>2022-12-10T14:43:42.227Z</time>
      </trkpt>
      <trkpt lat="48.20279" lon="-4.01344">
        <ele>67.477733</ele>
        <time>2022-12-10T14:43:45.203Z</time>
      </trkpt>
      <trkpt lat="48.20268" lon="-4.01351">
        <ele>67.387292</ele>
        <time>2022-12-10T14:43:48.225Z</time>
      </trkpt>
      <trkpt lat="48.20258" lon="-4.01359">
        <ele>67.30661</ele>
        <time>2022-12-10T14:43:51.226Z</time>
      </trkpt>
      <trkpt lat="48.20248" lon="-4.01366">
        <ele>67.222956</ele>
        <time>2022-12-10T14:43:54.224Z</time>
      </trkpt>
      <trkpt lat="48.20237" lon="-4.01374">
        <ele>67.136441</ele>
        <time>2022-12-10T14:43:57.229Z</time>
      </trkpt>
      <trkpt lat="48.20226" lon="-4.01383">
        <ele>67.048568</ele>
        <time>2022-12-10T14:44:00.214Z</time>
      </trkpt>
      <trkpt lat="48.20212" lon="-4.01394">
        <ele>66.982045</ele>
        <time>2022-12-10T14:44:04.214Z</time>
      </trkpt>
      <trkpt lat="48.20202" lon="-4.01401">
        <ele>67.021768</ele>
        <time>2022-12-10T14:44:07.215Z</time>
      </trkpt>
      <trkpt lat="48.20191" lon="-4.0141">
        <ele>67.061387</ele>
        <time>2022-12-10T14:44:10.217Z</time>
      </trkpt>
      <trkpt lat="48.20181" lon="-4.01417">
        <ele>67.098641</ele>
        <time>2022-12-10T14:44:13.213Z</time>
      </trkpt>
      <trkpt lat="48.20172" lon="-4.01424">
        <ele>67.131585</ele>
        <time>2022-12-10T14:44:16.221Z</time>
      </trkpt>
      <trkpt lat="48.20163" lon="-4.0143">
        <ele>67.163229</ele>
        <time>2022-12-10T14:44:19.214Z</time>
      </trkpt>
      <trkpt lat="48.20154" lon="-4.01437">
        <ele>67.197814</ele>
        <time>2022-12-10T14:44:22.222Z</time>
      </trkpt>
      <trkpt lat="48.20144" lon="-4.01445">
        <ele>67.234961</ele>
        <time>2022-12-10T14:44:25.215Z</time>
      </trkpt>
      <trkpt lat="48.2013" lon="-4.01455">
        <ele>67.285813</ele>
        <time>2022-12-10T14:44:29.235Z</time>
      </trkpt>
      <trkpt lat="48.2012" lon="-4.01462">
        <ele>67.323219</ele>
        <time>2022-12-10T14:44:32.231Z</time>
      </trkpt>
      <trkpt lat="48.20108" lon="-4.01467">
        <ele>67.362413</ele>
        <time>2022-12-10T14:44:35.227Z</time>
      </trkpt>
      <trkpt lat="48.20098" lon="-4.01472">
        <ele>67.399516</ele>
        <time>2022-12-10T14:44:38.217Z</time>
      </trkpt>
      <trkpt lat="48.20089" lon="-4.01475">
        <ele>67.429494</ele>
        <time>2022-12-10T14:44:41.226Z</time>
      </trkpt>
      <trkpt lat="48.20074" lon="-4.0148">
        <ele>67.478342</ele>
        <time>2022-12-10T14:44:46.211Z</time>
      </trkpt>
      <trkpt lat="48.20064" lon="-4.01481">
        <ele>67.511809</ele>
        <time>2022-12-10T14:44:49.225Z</time>
      </trkpt>
      <trkpt lat="48.20054" lon="-4.01481">
        <ele>67.545201</ele>
        <time>2022-12-10T14:44:52.218Z</time>
      </trkpt>
      <trkpt lat="48.2004" lon="-4.01481">
        <ele>67.52255</ele>
        <time>2022-12-10T14:44:56.224Z</time>
      </trkpt>
      <trkpt lat="48.2003" lon="-4.0148">
        <ele>67.479685</ele>
        <time>2022-12-10T14:44:59.218Z</time>
      </trkpt>
      <trkpt lat="48.2002" lon="-4.01479">
        <ele>67.438097</ele>
        <time>2022-12-10T14:45:02.216Z</time>
      </trkpt>
      <trkpt lat="48.2001" lon="-4.01476">
        <ele>67.394631</ele>
        <time>2022-12-10T14:45:05.212Z</time>
      </trkpt>
      <trkpt lat="48.20001" lon="-4.01473">
        <ele>67.351171</ele>
        <time>2022-12-10T14:45:08.222Z</time>
      </trkpt>
      <trkpt lat="48.19991" lon="-4.0147">
        <ele>67.308125</ele>
        <time>2022-12-10T14:45:11.222Z</time>
      </trkpt>
      <trkpt lat="48.19981" lon="-4.01467">
        <ele>67.266643</ele>
        <time>2022-12-10T14:45:14.216Z</time>
      </trkpt>
      <trkpt lat="48.1997" lon="-4.01465">
        <ele>67.22057</ele>
        <time>2022-12-10T14:45:17.229Z</time>
      </trkpt>
      <trkpt lat="48.19957" lon="-4.0146">
        <ele>67.161915</ele>
        <time>2022-12-10T14:45:21.214Z</time>
      </trkpt>
      <trkpt lat="48.19947" lon="-4.01457">
        <ele>67.117707</ele>
        <time>2022-12-10T14:45:24.218Z</time>
      </trkpt>
      <trkpt lat="48.19933" lon="-4.01453">
        <ele>67.056339</ele>
        <time>2022-12-10T14:45:28.221Z</time>
      </trkpt>
      <trkpt lat="48.19921" lon="-4.0145">
        <ele>67.003369</ele>
        <time>2022-12-10T14:45:31.225Z</time>
      </trkpt>
      <trkpt lat="48.19904" lon="-4.01445">
        <ele>66.929508</ele>
        <time>2022-12-10T14:45:35.224Z</time>
      </trkpt>
      <trkpt lat="48.19892" lon="-4.0144">
        <ele>66.878015</ele>
        <time>2022-12-10T14:45:38.222Z</time>
      </trkpt>
      <trkpt lat="48.1988" lon="-4.01436">
        <ele>66.82613</ele>
        <time>2022-12-10T14:45:41.219Z</time>
      </trkpt>
      <trkpt lat="48.1987" lon="-4.01432">
        <ele>66.79728</ele>
        <time>2022-12-10T14:45:44.231Z</time>
      </trkpt>
      <trkpt lat="48.19861" lon="-4.01427">
        <ele>66.810096</ele>
        <time>2022-12-10T14:45:47.215Z</time>
      </trkpt>
      <trkpt lat="48.19851" lon="-4.01422">
        <ele>66.823817</ele>
        <time>2022-12-10T14:45:50.221Z</time>
      </trkpt>
      <trkpt lat="48.19841" lon="-4.01416">
        <ele>66.838267</ele>
        <time>2022-12-10T14:45:53.232Z</time>
      </trkpt>
      <trkpt lat="48.19831" lon="-4.0141">
        <ele>66.853274</ele>
        <time>2022-12-10T14:45:56.213Z</time>
      </trkpt>
      <trkpt lat="48.19821" lon="-4.01403">
        <ele>66.868417</ele>
        <time>2022-12-10T14:45:59.217Z</time>
      </trkpt>
      <trkpt lat="48.19812" lon="-4.01396">
        <ele>66.88319</ele>
        <time>2022-12-10T14:46:02.223Z</time>
      </trkpt>
      <trkpt lat="48.19802" lon="-4.01389">
        <ele>66.897435</ele>
        <time>2022-12-10T14:46:05.228Z</time>
      </trkpt>
      <trkpt lat="48.19793" lon="-4.01381">
        <ele>66.912318</ele>
        <time>2022-12-10T14:46:08.213Z</time>
      </trkpt>
      <trkpt lat="48.19784" lon="-4.01371">
        <ele>66.927617</ele>
        <time>2022-12-10T14:46:11.223Z</time>
      </trkpt>
      <trkpt lat="48.19772" lon="-4.01356">
        <ele>66.948845</ele>
        <time>2022-12-10T14:46:15.219Z</time>
      </trkpt>
      <trkpt lat="48.19763" lon="-4.01344">
        <ele>66.965104</ele>
        <time>2022-12-10T14:46:18.224Z</time>
      </trkpt>
      <trkpt lat="48.19756" lon="-4.01329">
        <ele>66.981885</ele>
        <time>2022-12-10T14:46:21.226Z</time>
      </trkpt>
      <trkpt lat="48.1975" lon="-4.01313">
        <ele>66.998605</ele>
        <time>2022-12-10T14:46:24.220Z</time>
      </trkpt>
      <trkpt lat="48.19744" lon="-4.01292">
        <ele>67.019199</ele>
        <time>2022-12-10T14:46:28.224Z</time>
      </trkpt>
      <trkpt lat="48.1974" lon="-4.01275">
        <ele>67.036169</ele>
        <time>2022-12-10T14:46:31.218Z</time>
      </trkpt>
      <trkpt lat="48.19736" lon="-4.01249">
        <ele>67.128646</ele>
        <time>2022-12-10T14:46:35.194Z</time>
      </trkpt>
      <trkpt lat="48.19735" lon="-4.0123">
        <ele>67.199785</ele>
        <time>2022-12-10T14:46:38.222Z</time>
      </trkpt>
      <trkpt lat="48.19735" lon="-4.01213">
        <ele>67.263658</ele>
        <time>2022-12-10T14:46:41.199Z</time>
      </trkpt>
      <trkpt lat="48.19735" lon="-4.01196">
        <ele>67.329085</ele>
        <time>2022-12-10T14:46:44.217Z</time>
      </trkpt>
      <trkpt lat="48.19735" lon="-4.01178">
        <ele>67.397478</ele>
        <time>2022-12-10T14:46:47.197Z</time>
      </trkpt>
      <trkpt lat="48.19735" lon="-4.01161">
        <ele>67.465498</ele>
        <time>2022-12-10T14:46:50.228Z</time>
      </trkpt>
      <trkpt lat="48.19736" lon="-4.01143">
        <ele>67.534131</ele>
        <time>2022-12-10T14:46:53.226Z</time>
      </trkpt>
      <trkpt lat="48.19737" lon="-4.01125">
        <ele>67.600772</ele>
        <time>2022-12-10T14:46:56.231Z</time>
      </trkpt>
      <trkpt lat="48.19737" lon="-4.01108">
        <ele>67.666882</ele>
        <time>2022-12-10T14:46:59.223Z</time>
      </trkpt>
      <trkpt lat="48.1974" lon="-4.01093">
        <ele>67.725692</ele>
        <time>2022-12-10T14:47:02.224Z</time>
      </trkpt>
      <trkpt lat="48.1974" lon="-4.01078">
        <ele>67.783412</ele>
        <time>2022-12-10T14:47:05.218Z</time>
      </trkpt>
      <trkpt lat="48.19741" lon="-4.01057">
        <ele>67.86443</ele>
        <time>2022-12-10T14:47:09.227Z</time>
      </trkpt>
      <trkpt lat="48.19741" lon="-4.01039">
        <ele>67.932062</ele>
        <time>2022-12-10T14:47:12.230Z</time>
      </trkpt>
      <trkpt lat="48.19744" lon="-4.01016">
        <ele>68.022058</ele>
        <time>2022-12-10T14:47:16.194Z</time>
      </trkpt>
      <trkpt lat="48.19748" lon="-4.00999">
        <ele>68.062748</ele>
        <time>2022-12-10T14:47:19.203Z</time>
      </trkpt>
      <trkpt lat="48.19754" lon="-4.00982">
        <ele>68.035757</ele>
        <time>2022-12-10T14:47:22.222Z</time>
      </trkpt>
      <trkpt lat="48.19761" lon="-4.00968">
        <ele>68.012051</ele>
        <time>2022-12-10T14:47:25.207Z</time>
      </trkpt>
      <trkpt lat="48.19765" lon="-4.00955">
        <ele>67.990693</ele>
        <time>2022-12-10T14:47:28.229Z</time>
      </trkpt>
      <trkpt lat="48.1977" lon="-4.00941">
        <ele>67.968502</ele>
        <time>2022-12-10T14:47:31.228Z</time>
      </trkpt>
      <trkpt lat="48.19776" lon="-4.00925">
        <ele>67.944046</ele>
        <time>2022-12-10T14:47:34.227Z</time>
      </trkpt>
      <trkpt lat="48.19783" lon="-4.0091">
        <ele>67.91907</ele>
        <time>2022-12-10T14:47:37.222Z</time>
      </trkpt>
      <trkpt lat="48.19789" lon="-4.00894">
        <ele>67.893925</ele>
        <time>2022-12-10T14:47:40.217Z</time>
      </trkpt>
      <trkpt lat="48.19797" lon="-4.00877">
        <ele>67.864211</ele>
        <time>2022-12-10T14:47:44.218Z</time>
      </trkpt>
      <trkpt lat="48.19802" lon="-4.00865">
        <ele>67.844776</ele>
        <time>2022-12-10T14:47:47.220Z</time>
      </trkpt>
      <trkpt lat="48.19807" lon="-4.00851">
        <ele>67.821864</ele>
        <time>2022-12-10T14:47:50.219Z</time>
      </trkpt>
      <trkpt lat="48.19814" lon="-4.00837">
        <ele>67.798366</ele>
        <time>2022-12-10T14:47:53.223Z</time>
      </trkpt>
      <trkpt lat="48.1982" lon="-4.00822">
        <ele>67.77407</ele>
        <time>2022-12-10T14:47:56.225Z</time>
      </trkpt>
      <trkpt lat="48.19826" lon="-4.00808">
        <ele>67.751265</ele>
        <time>2022-12-10T14:47:59.226Z</time>
      </trkpt>
      <trkpt lat="48.19833" lon="-4.00794">
        <ele>67.726111</ele>
        <time>2022-12-10T14:48:02.216Z</time>
      </trkpt>
      <trkpt lat="48.19839" lon="-4.00779">
        <ele>67.701595</ele>
        <time>2022-12-10T14:48:05.213Z</time>
      </trkpt>
      <trkpt lat="48.19845" lon="-4.00766">
        <ele>67.790523</ele>
        <time>2022-12-10T14:48:08.229Z</time>
      </trkpt>
      <trkpt lat="48.1985" lon="-4.00749">
        <ele>67.958817</ele>
        <time>2022-12-10T14:48:11.227Z</time>
      </trkpt>
      <trkpt lat="48.19854" lon="-4.00734">
        <ele>68.111237</ele>
        <time>2022-12-10T14:48:14.218Z</time>
      </trkpt>
      <trkpt lat="48.19856" lon="-4.00721">
        <ele>68.235375</ele>
        <time>2022-12-10T14:48:16.218Z</time>
      </trkpt>
      <trkpt lat="48.1986" lon="-4.00708">
        <ele>68.364942</ele>
        <time>2022-12-10T14:48:18.219Z</time>
      </trkpt>
      <trkpt lat="48.19864" lon="-4.00691">
        <ele>68.525916</ele>
        <time>2022-12-10T14:48:21.231Z</time>
      </trkpt>
      <trkpt lat="48.19867" lon="-4.00674">
        <ele>68.686248</ele>
        <time>2022-12-10T14:48:24.213Z</time>
      </trkpt>
      <trkpt lat="48.19871" lon="-4.00651">
        <ele>68.907392</ele>
        <time>2022-12-10T14:48:28.227Z</time>
      </trkpt>
      <trkpt lat="48.19873" lon="-4.00633">
        <ele>69.073408</ele>
        <time>2022-12-10T14:48:31.228Z</time>
      </trkpt>
      <trkpt lat="48.19876" lon="-4.00614">
        <ele>69.249035</ele>
        <time>2022-12-10T14:48:34.224Z</time>
      </trkpt>
      <trkpt lat="48.19877" lon="-4.00596">
        <ele>69.421156</ele>
        <time>2022-12-10T14:48:37.221Z</time>
      </trkpt>
      <trkpt lat="48.19881" lon="-4.00577">
        <ele>69.598638</ele>
        <time>2022-12-10T14:48:40.221Z</time>
      </trkpt>
      <trkpt lat="48.19884" lon="-4.00558">
        <ele>69.779605</ele>
        <time>2022-12-10T14:48:43.218Z</time>
      </trkpt>
      <trkpt lat="48.19888" lon="-4.00537">
        <ele>69.97623</ele>
        <time>2022-12-10T14:48:47.210Z</time>
      </trkpt>
      <trkpt lat="48.19891" lon="-4.00522">
        <ele>70.121542</ele>
        <time>2022-12-10T14:48:50.226Z</time>
      </trkpt>
      <trkpt lat="48.19894" lon="-4.00503">
        <ele>70.084276</ele>
        <time>2022-12-10T14:48:53.228Z</time>
      </trkpt>
      <trkpt lat="48.19896" lon="-4.00486">
        <ele>69.989813</ele>
        <time>2022-12-10T14:48:56.229Z</time>
      </trkpt>
      <trkpt lat="48.19899" lon="-4.0047">
        <ele>69.893871</ele>
        <time>2022-12-10T14:48:59.227Z</time>
      </trkpt>
      <trkpt lat="48.19901" lon="-4.00451">
        <ele>69.788862</ele>
        <time>2022-12-10T14:49:02.223Z</time>
      </trkpt>
      <trkpt lat="48.19903" lon="-4.00433">
        <ele>69.692</ele>
        <time>2022-12-10T14:49:05.224Z</time>
      </trkpt>
      <trkpt lat="48.19907" lon="-4.00415">
        <ele>69.586802</ele>
        <time>2022-12-10T14:49:08.222Z</time>
      </trkpt>
      <trkpt lat="48.19911" lon="-4.00397">
        <ele>69.482655</ele>
        <time>2022-12-10T14:49:11.230Z</time>
      </trkpt>
      <trkpt lat="48.19914" lon="-4.0038">
        <ele>69.386498</ele>
        <time>2022-12-10T14:49:14.216Z</time>
      </trkpt>
      <trkpt lat="48.19917" lon="-4.00364">
        <ele>69.292761</ele>
        <time>2022-12-10T14:49:17.221Z</time>
      </trkpt>
      <trkpt lat="48.19922" lon="-4.00346">
        <ele>69.188838</ele>
        <time>2022-12-10T14:49:20.229Z</time>
      </trkpt>
      <trkpt lat="48.19925" lon="-4.0033">
        <ele>69.095143</ele>
        <time>2022-12-10T14:49:23.225Z</time>
      </trkpt>
      <trkpt lat="48.19928" lon="-4.00313">
        <ele>69.000154</ele>
        <time>2022-12-10T14:49:26.214Z</time>
      </trkpt>
      <trkpt lat="48.19933" lon="-4.00296">
        <ele>68.897837</ele>
        <time>2022-12-10T14:49:29.225Z</time>
      </trkpt>
      <trkpt lat="48.19935" lon="-4.00282">
        <ele>68.818857</ele>
        <time>2022-12-10T14:49:32.213Z</time>
      </trkpt>
      <trkpt lat="48.19939" lon="-4.00266">
        <ele>68.725161</ele>
        <time>2022-12-10T14:49:35.224Z</time>
      </trkpt>
      <trkpt lat="48.1994" lon="-4.00248">
        <ele>68.708156</ele>
        <time>2022-12-10T14:49:38.208Z</time>
      </trkpt>
      <trkpt lat="48.19941" lon="-4.00232">
        <ele>68.750244</ele>
        <time>2022-12-10T14:49:41.204Z</time>
      </trkpt>
      <trkpt lat="48.1994" lon="-4.00212">
        <ele>68.800719</ele>
        <time>2022-12-10T14:49:44.216Z</time>
      </trkpt>
      <trkpt lat="48.1994" lon="-4.00194">
        <ele>68.848402</ele>
        <time>2022-12-10T14:49:47.224Z</time>
      </trkpt>
      <trkpt lat="48.19938" lon="-4.0018">
        <ele>68.883061</ele>
        <time>2022-12-10T14:49:49.214Z</time>
      </trkpt>
      <trkpt lat="48.19934" lon="-4.00156">
        <ele>68.945791</ele>
        <time>2022-12-10T14:49:53.221Z</time>
      </trkpt>
      <trkpt lat="48.1993" lon="-4.00141">
        <ele>68.987737</ele>
        <time>2022-12-10T14:49:56.225Z</time>
      </trkpt>
      <trkpt lat="48.19924" lon="-4.00128">
        <ele>69.02929</ele>
        <time>2022-12-10T14:49:59.213Z</time>
      </trkpt>
      <trkpt lat="48.19918" lon="-4.00112">
        <ele>69.077051</ele>
        <time>2022-12-10T14:50:02.220Z</time>
      </trkpt>
      <trkpt lat="48.19911" lon="-4.00095">
        <ele>69.126907</ele>
        <time>2022-12-10T14:50:05.223Z</time>
      </trkpt>
      <trkpt lat="48.19902" lon="-4.0008">
        <ele>69.17769</ele>
        <time>2022-12-10T14:50:08.218Z</time>
      </trkpt>
      <trkpt lat="48.19894" lon="-4.00066">
        <ele>69.22713</ele>
        <time>2022-12-10T14:50:11.217Z</time>
      </trkpt>
      <trkpt lat="48.19886" lon="-4.00051">
        <ele>69.275825</ele>
        <time>2022-12-10T14:50:14.228Z</time>
      </trkpt>
      <trkpt lat="48.19879" lon="-4.00035">
        <ele>69.323106</ele>
        <time>2022-12-10T14:50:17.227Z</time>
      </trkpt>
      <trkpt lat="48.19872" lon="-4.0002">
        <ele>69.370606</ele>
        <time>2022-12-10T14:50:20.217Z</time>
      </trkpt>
      <trkpt lat="48.19867" lon="-4.00006">
        <ele>69.378705</ele>
        <time>2022-12-10T14:50:23.226Z</time>
      </trkpt>
      <trkpt lat="48.1986" lon="-3.99986">
        <ele>69.385794</ele>
        <time>2022-12-10T14:50:27.205Z</time>
      </trkpt>
      <trkpt lat="48.19855" lon="-3.99972">
        <ele>69.39095</ele>
        <time>2022-12-10T14:50:30.228Z</time>
      </trkpt>
      <trkpt lat="48.19852" lon="-3.99956">
        <ele>69.396485</ele>
        <time>2022-12-10T14:50:33.220Z</time>
      </trkpt>
      <trkpt lat="48.19852" lon="-3.99938">
        <ele>69.402255</ele>
        <time>2022-12-10T14:50:36.216Z</time>
      </trkpt>
      <trkpt lat="48.19854" lon="-3.9992">
        <ele>69.408223</ele>
        <time>2022-12-10T14:50:39.222Z</time>
      </trkpt>
      <trkpt lat="48.19856" lon="-3.99902">
        <ele>69.414175</ele>
        <time>2022-12-10T14:50:42.217Z</time>
      </trkpt>
      <trkpt lat="48.19858" lon="-3.99879">
        <ele>69.421621</ele>
        <time>2022-12-10T14:50:46.199Z</time>
      </trkpt>
      <trkpt lat="48.19862" lon="-3.99855">
        <ele>69.429599</ele>
        <time>2022-12-10T14:50:50.234Z</time>
      </trkpt>
      <trkpt lat="48.19862" lon="-3.99836">
        <ele>69.435629</ele>
        <time>2022-12-10T14:50:53.215Z</time>
      </trkpt>
      <trkpt lat="48.19861" lon="-3.99819">
        <ele>69.441267</ele>
        <time>2022-12-10T14:50:56.226Z</time>
      </trkpt>
      <trkpt lat="48.19861" lon="-3.99804">
        <ele>69.44597</ele>
        <time>2022-12-10T14:50:59.225Z</time>
      </trkpt>
      <trkpt lat="48.1986" lon="-3.99791">
        <ele>69.450446</ele>
        <time>2022-12-10T14:51:02.221Z</time>
      </trkpt>
      <trkpt lat="48.19859" lon="-3.99777">
        <ele>69.45496</ele>
        <time>2022-12-10T14:51:05.215Z</time>
      </trkpt>
      <trkpt lat="48.19856" lon="-3.99762">
        <ele>69.459831</ele>
        <time>2022-12-10T14:51:08.213Z</time>
      </trkpt>
      <trkpt lat="48.19854" lon="-3.99747">
        <ele>69.395246</ele>
        <time>2022-12-10T14:51:11.214Z</time>
      </trkpt>
      <trkpt lat="48.19849" lon="-3.99732">
        <ele>69.303276</ele>
        <time>2022-12-10T14:51:14.223Z</time>
      </trkpt>
      <trkpt lat="48.19846" lon="-3.99717">
        <ele>69.214093</ele>
        <time>2022-12-10T14:51:17.226Z</time>
      </trkpt>
      <trkpt lat="48.19842" lon="-3.99702">
        <ele>69.122838</ele>
        <time>2022-12-10T14:51:20.228Z</time>
      </trkpt>
      <trkpt lat="48.19837" lon="-3.99686">
        <ele>69.028186</ele>
        <time>2022-12-10T14:51:23.232Z</time>
      </trkpt>
      <trkpt lat="48.19832" lon="-3.99672">
        <ele>68.938622</ele>
        <time>2022-12-10T14:51:26.217Z</time>
      </trkpt>
      <trkpt lat="48.19828" lon="-3.99659">
        <ele>68.858044</ele>
        <time>2022-12-10T14:51:29.223Z</time>
      </trkpt>
      <trkpt lat="48.19823" lon="-3.99646">
        <ele>68.773115</ele>
        <time>2022-12-10T14:51:32.218Z</time>
      </trkpt>
      <trkpt lat="48.19818" lon="-3.99632">
        <ele>68.682931</ele>
        <time>2022-12-10T14:51:35.228Z</time>
      </trkpt>
      <trkpt lat="48.19812" lon="-3.99618">
        <ele>68.589576</ele>
        <time>2022-12-10T14:51:38.217Z</time>
      </trkpt>
      <trkpt lat="48.19805" lon="-3.99604">
        <ele>68.494367</ele>
        <time>2022-12-10T14:51:41.229Z</time>
      </trkpt>
      <trkpt lat="48.19799" lon="-3.99591">
        <ele>68.400915</ele>
        <time>2022-12-10T14:51:44.224Z</time>
      </trkpt>
      <trkpt lat="48.19789" lon="-3.99573">
        <ele>68.274578</ele>
        <time>2022-12-10T14:51:48.207Z</time>
      </trkpt>
      <trkpt lat="48.19782" lon="-3.9956">
        <ele>68.178143</ele>
        <time>2022-12-10T14:51:51.221Z</time>
      </trkpt>
      <trkpt lat="48.19774" lon="-3.99546">
        <ele>68.077936</ele>
        <time>2022-12-10T14:51:54.224Z</time>
      </trkpt>
      <trkpt lat="48.19765" lon="-3.99533">
        <ele>67.972807</ele>
        <time>2022-12-10T14:51:57.229Z</time>
      </trkpt>
      <trkpt lat="48.19756" lon="-3.99521">
        <ele>67.92607</ele>
        <time>2022-12-10T14:52:00.226Z</time>
      </trkpt>
      <trkpt lat="48.19746" lon="-3.99508">
        <ele>67.897701</ele>
        <time>2022-12-10T14:52:03.216Z</time>
      </trkpt>
      <trkpt lat="48.19736" lon="-3.99495">
        <ele>67.868731</ele>
        <time>2022-12-10T14:52:06.229Z</time>
      </trkpt>
      <trkpt lat="48.19726" lon="-3.99483">
        <ele>67.840122</ele>
        <time>2022-12-10T14:52:09.227Z</time>
      </trkpt>
      <trkpt lat="48.19716" lon="-3.9947">
        <ele>67.811078</ele>
        <time>2022-12-10T14:52:12.228Z</time>
      </trkpt>
      <trkpt lat="48.19706" lon="-3.99459">
        <ele>67.782698</ele>
        <time>2022-12-10T14:52:15.229Z</time>
      </trkpt>
      <trkpt lat="48.19695" lon="-3.99448">
        <ele>67.753481</ele>
        <time>2022-12-10T14:52:18.216Z</time>
      </trkpt>
      <trkpt lat="48.19684" lon="-3.99437">
        <ele>67.723195</ele>
        <time>2022-12-10T14:52:21.227Z</time>
      </trkpt>
      <trkpt lat="48.19676" lon="-3.99431">
        <ele>67.703084</ele>
        <time>2022-12-10T14:52:23.221Z</time>
      </trkpt>
      <trkpt lat="48.19665" lon="-3.99422">
        <ele>67.674896</ele>
        <time>2022-12-10T14:52:26.220Z</time>
      </trkpt>
      <trkpt lat="48.19654" lon="-3.99414">
        <ele>67.648365</ele>
        <time>2022-12-10T14:52:29.217Z</time>
      </trkpt>
      <trkpt lat="48.19642" lon="-3.99407">
        <ele>67.620388</ele>
        <time>2022-12-10T14:52:32.216Z</time>
      </trkpt>
      <trkpt lat="48.19626" lon="-3.99397">
        <ele>67.5821</ele>
        <time>2022-12-10T14:52:36.220Z</time>
      </trkpt>
      <trkpt lat="48.19614" lon="-3.99391">
        <ele>67.553146</ele>
        <time>2022-12-10T14:52:39.220Z</time>
      </trkpt>
      <trkpt lat="48.19602" lon="-3.99383">
        <ele>67.599911</ele>
        <time>2022-12-10T14:52:42.227Z</time>
      </trkpt>
      <trkpt lat="48.1959" lon="-3.99376">
        <ele>67.662362</ele>
        <time>2022-12-10T14:52:45.227Z</time>
      </trkpt>
      <trkpt lat="48.19578" lon="-3.99369">
        <ele>67.72401</ele>
        <time>2022-12-10T14:52:48.229Z</time>
      </trkpt>
      <trkpt lat="48.19566" lon="-3.99362">
        <ele>67.786462</ele>
        <time>2022-12-10T14:52:51.232Z</time>
      </trkpt>
      <trkpt lat="48.19554" lon="-3.99357">
        <ele>67.846999</ele>
        <time>2022-12-10T14:52:54.222Z</time>
      </trkpt>
      <trkpt lat="48.19543" lon="-3.99351">
        <ele>67.902649</ele>
        <time>2022-12-10T14:52:57.207Z</time>
      </trkpt>
      <trkpt lat="48.19533" lon="-3.99347">
        <ele>67.954024</ele>
        <time>2022-12-10T14:53:00.226Z</time>
      </trkpt>
      <trkpt lat="48.19522" lon="-3.99342">
        <ele>68.008567</ele>
        <time>2022-12-10T14:53:03.217Z</time>
      </trkpt>
      <trkpt lat="48.1951" lon="-3.99337">
        <ele>68.065587</ele>
        <time>2022-12-10T14:53:06.229Z</time>
      </trkpt>
      <trkpt lat="48.19499" lon="-3.99332">
        <ele>68.121319</ele>
        <time>2022-12-10T14:53:09.232Z</time>
      </trkpt>
      <trkpt lat="48.19489" lon="-3.99328">
        <ele>68.171246</ele>
        <time>2022-12-10T14:53:12.231Z</time>
      </trkpt>
      <trkpt lat="48.1948" lon="-3.99324">
        <ele>68.217809</ele>
        <time>2022-12-10T14:53:15.225Z</time>
      </trkpt>
      <trkpt lat="48.1947" lon="-3.9932">
        <ele>68.267352</ele>
        <time>2022-12-10T14:53:18.208Z</time>
      </trkpt>
      <trkpt lat="48.1946" lon="-3.99316">
        <ele>68.319101</ele>
        <time>2022-12-10T14:53:21.214Z</time>
      </trkpt>
      <trkpt lat="48.19449" lon="-3.99312">
        <ele>68.372778</ele>
        <time>2022-12-10T14:53:24.228Z</time>
      </trkpt>
      <trkpt lat="48.19438" lon="-3.99308">
        <ele>68.419744</ele>
        <time>2022-12-10T14:53:27.236Z</time>
      </trkpt>
      <trkpt lat="48.19427" lon="-3.99305">
        <ele>68.437161</ele>
        <time>2022-12-10T14:53:30.229Z</time>
      </trkpt>
      <trkpt lat="48.19415" lon="-3.99301">
        <ele>68.455284</ele>
        <time>2022-12-10T14:53:33.223Z</time>
      </trkpt>
      <trkpt lat="48.19404" lon="-3.99297">
        <ele>68.472972</ele>
        <time>2022-12-10T14:53:36.220Z</time>
      </trkpt>
      <trkpt lat="48.19392" lon="-3.99294">
        <ele>68.490669</ele>
        <time>2022-12-10T14:53:39.231Z</time>
      </trkpt>
      <trkpt lat="48.19382" lon="-3.99291">
        <ele>68.507287</ele>
        <time>2022-12-10T14:53:42.228Z</time>
      </trkpt>
      <trkpt lat="48.1937" lon="-3.99287">
        <ele>68.525508</ele>
        <time>2022-12-10T14:53:46.229Z</time>
      </trkpt>
      <trkpt lat="48.19361" lon="-3.99282">
        <ele>68.539899</ele>
        <time>2022-12-10T14:53:50.229Z</time>
      </trkpt>
      <trkpt lat="48.19349" lon="-3.99277">
        <ele>68.557918</ele>
        <time>2022-12-10T14:53:54.229Z</time>
      </trkpt>
      <trkpt lat="48.19339" lon="-3.99276">
        <ele>68.57313</ele>
        <time>2022-12-10T14:53:57.212Z</time>
      </trkpt>
      <trkpt lat="48.19329" lon="-3.99274">
        <ele>68.588547</ele>
        <time>2022-12-10T14:54:00.216Z</time>
      </trkpt>
      <trkpt lat="48.19319" lon="-3.99271">
        <ele>68.604069</ele>
        <time>2022-12-10T14:54:03.215Z</time>
      </trkpt>
      <trkpt lat="48.19309" lon="-3.9927">
        <ele>68.619914</ele>
        <time>2022-12-10T14:54:06.207Z</time>
      </trkpt>
      <trkpt lat="48.19294" lon="-3.99273">
        <ele>68.642112</ele>
        <time>2022-12-10T14:54:10.211Z</time>
      </trkpt>
      <trkpt lat="48.1928" lon="-3.99281">
        <ele>68.665938</ele>
        <time>2022-12-10T14:54:14.211Z</time>
      </trkpt>
      <trkpt lat="48.19269" lon="-3.99288">
        <ele>68.682646</ele>
        <time>2022-12-10T14:54:17.224Z</time>
      </trkpt>
      <trkpt lat="48.19259" lon="-3.99294">
        <ele>68.71752</ele>
        <time>2022-12-10T14:54:20.224Z</time>
      </trkpt>
      <trkpt lat="48.19249" lon="-3.993">
        <ele>68.764437</ele>
        <time>2022-12-10T14:54:23.225Z</time>
      </trkpt>
      <trkpt lat="48.19239" lon="-3.99307">
        <ele>68.811076</ele>
        <time>2022-12-10T14:54:26.225Z</time>
      </trkpt>
      <trkpt lat="48.19227" lon="-3.99311">
        <ele>68.861251</ele>
        <time>2022-12-10T14:54:29.227Z</time>
      </trkpt>
      <trkpt lat="48.19215" lon="-3.99312">
        <ele>68.913011</ele>
        <time>2022-12-10T14:54:32.217Z</time>
      </trkpt>
      <trkpt lat="48.19202" lon="-3.9931">
        <ele>68.969723</ele>
        <time>2022-12-10T14:54:35.232Z</time>
      </trkpt>
      <trkpt lat="48.19189" lon="-3.99305">
        <ele>69.025607</ele>
        <time>2022-12-10T14:54:38.224Z</time>
      </trkpt>
      <trkpt lat="48.19178" lon="-3.99298">
        <ele>69.077545</ele>
        <time>2022-12-10T14:54:41.230Z</time>
      </trkpt>
      <trkpt lat="48.19167" lon="-3.9929">
        <ele>69.128918</ele>
        <time>2022-12-10T14:54:44.233Z</time>
      </trkpt>
      <trkpt lat="48.19157" lon="-3.99282">
        <ele>69.175274</ele>
        <time>2022-12-10T14:54:47.217Z</time>
      </trkpt>
      <trkpt lat="48.19149" lon="-3.99274">
        <ele>69.217615</ele>
        <time>2022-12-10T14:54:50.225Z</time>
      </trkpt>
      <trkpt lat="48.19139" lon="-3.99264">
        <ele>69.268256</ele>
        <time>2022-12-10T14:54:54.230Z</time>
      </trkpt>
      <trkpt lat="48.19131" lon="-3.99254">
        <ele>69.312018</ele>
        <time>2022-12-10T14:54:58.228Z</time>
      </trkpt>
      <trkpt lat="48.19124" lon="-3.99242">
        <ele>69.355548</ele>
        <time>2022-12-10T14:55:02.230Z</time>
      </trkpt>
      <trkpt lat="48.19118" lon="-3.99231">
        <ele>69.396147</ele>
        <time>2022-12-10T14:55:05.224Z</time>
      </trkpt>
      <trkpt lat="48.19111" lon="-3.99219">
        <ele>69.441552</ele>
        <time>2022-12-10T14:55:08.229Z</time>
      </trkpt>
      <trkpt lat="48.19104" lon="-3.99206">
        <ele>69.485922</ele>
        <time>2022-12-10T14:55:11.214Z</time>
      </trkpt>
      <trkpt lat="48.19096" lon="-3.99192">
        <ele>69.530982</ele>
        <time>2022-12-10T14:55:14.231Z</time>
      </trkpt>
      <trkpt lat="48.19087" lon="-3.99172">
        <ele>69.590478</ele>
        <time>2022-12-10T14:55:18.215Z</time>
      </trkpt>
      <trkpt lat="48.19081" lon="-3.99156">
        <ele>69.63723</ele>
        <time>2022-12-10T14:55:21.229Z</time>
      </trkpt>
      <trkpt lat="48.19073" lon="-3.99135">
        <ele>69.695248</ele>
        <time>2022-12-10T14:55:25.210Z</time>
      </trkpt>
      <trkpt lat="48.1907" lon="-3.99122">
        <ele>69.730947</ele>
        <time>2022-12-10T14:55:28.227Z</time>
      </trkpt>
      <trkpt lat="48.19065" lon="-3.99101">
        <ele>69.785124</ele>
        <time>2022-12-10T14:55:32.216Z</time>
      </trkpt>
      <trkpt lat="48.19063" lon="-3.99084">
        <ele>69.828587</ele>
        <time>2022-12-10T14:55:35.215Z</time>
      </trkpt>
      <trkpt lat="48.19061" lon="-3.99066">
        <ele>69.87323</ele>
        <time>2022-12-10T14:55:38.225Z</time>
      </trkpt>
      <trkpt lat="48.19062" lon="-3.9904">
        <ele>69.936876</ele>
        <time>2022-12-10T14:55:42.219Z</time>
      </trkpt>
      <trkpt lat="48.19065" lon="-3.99021">
        <ele>69.987397</ele>
        <time>2022-12-10T14:55:45.233Z</time>
      </trkpt>
      <trkpt lat="48.19069" lon="-3.99004">
        <ele>70.030972</ele>
        <time>2022-12-10T14:55:48.227Z</time>
      </trkpt>
      <trkpt lat="48.19073" lon="-3.98989">
        <ele>70.069717</ele>
        <time>2022-12-10T14:55:51.222Z</time>
      </trkpt>
      <trkpt lat="48.19078" lon="-3.98969">
        <ele>70.126931</ele>
        <time>2022-12-10T14:55:55.199Z</time>
      </trkpt>
      <trkpt lat="48.19082" lon="-3.98954">
        <ele>70.243217</ele>
        <time>2022-12-10T14:55:58.229Z</time>
      </trkpt>
      <trkpt lat="48.19086" lon="-3.98939">
        <ele>70.356738</ele>
        <time>2022-12-10T14:56:01.230Z</time>
      </trkpt>
      <trkpt lat="48.19091" lon="-3.98924">
        <ele>70.47643</ele>
        <time>2022-12-10T14:56:04.229Z</time>
      </trkpt>
      <trkpt lat="48.19096" lon="-3.98909">
        <ele>70.598331</ele>
        <time>2022-12-10T14:56:07.227Z</time>
      </trkpt>
      <trkpt lat="48.19101" lon="-3.98893">
        <ele>70.71943</ele>
        <time>2022-12-10T14:56:10.218Z</time>
      </trkpt>
      <trkpt lat="48.19107" lon="-3.98878">
        <ele>70.84135</ele>
        <time>2022-12-10T14:56:13.215Z</time>
      </trkpt>
      <trkpt lat="48.19111" lon="-3.98862">
        <ele>70.96363</ele>
        <time>2022-12-10T14:56:16.230Z</time>
      </trkpt>
      <trkpt lat="48.19117" lon="-3.98841">
        <ele>71.124119</ele>
        <time>2022-12-10T14:56:20.219Z</time>
      </trkpt>
      <trkpt lat="48.1912" lon="-3.98825">
        <ele>71.241461</ele>
        <time>2022-12-10T14:56:23.226Z</time>
      </trkpt>
      <trkpt lat="48.19121" lon="-3.98802">
        <ele>71.40308</ele>
        <time>2022-12-10T14:56:27.233Z</time>
      </trkpt>
      <trkpt lat="48.19121" lon="-3.98786">
        <ele>71.518047</ele>
        <time>2022-12-10T14:56:30.238Z</time>
      </trkpt>
      <trkpt lat="48.19121" lon="-3.98771">
        <ele>71.625097</ele>
        <time>2022-12-10T14:56:33.225Z</time>
      </trkpt>
      <trkpt lat="48.1912" lon="-3.98755">
        <ele>71.73429</ele>
        <time>2022-12-10T14:56:36.230Z</time>
      </trkpt>
      <trkpt lat="48.19118" lon="-3.98736">
        <ele>71.872654</ele>
        <time>2022-12-10T14:56:40.230Z</time>
      </trkpt>
      <trkpt lat="48.19116" lon="-3.98722">
        <ele>71.970101</ele>
        <time>2022-12-10T14:56:43.228Z</time>
      </trkpt>
      <trkpt lat="48.19114" lon="-3.98705">
        <ele>71.944646</ele>
        <time>2022-12-10T14:56:47.212Z</time>
      </trkpt>
      <trkpt lat="48.19112" lon="-3.9869">
        <ele>71.841224</ele>
        <time>2022-12-10T14:56:50.236Z</time>
      </trkpt>
      <trkpt lat="48.19111" lon="-3.98675">
        <ele>71.735565</ele>
        <time>2022-12-10T14:56:53.226Z</time>
      </trkpt>
      <trkpt lat="48.1911" lon="-3.9866">
        <ele>71.629084</ele>
        <time>2022-12-10T14:56:56.230Z</time>
      </trkpt>
      <trkpt lat="48.19109" lon="-3.9864">
        <ele>71.484499</ele>
        <time>2022-12-10T14:57:00.218Z</time>
      </trkpt>
      <trkpt lat="48.19109" lon="-3.98621">
        <ele>71.351888</ele>
        <time>2022-12-10T14:57:05.215Z</time>
      </trkpt>
      <trkpt lat="48.19106" lon="-3.98607">
        <ele>71.252997</ele>
        <time>2022-12-10T14:57:23.205Z</time>
      </trkpt>
      <trkpt lat="48.19105" lon="-3.98588">
        <ele>71.11234</ele>
        <time>2022-12-10T14:57:30.199Z</time>
      </trkpt>
      <trkpt lat="48.19104" lon="-3.98571">
        <ele>70.993009</ele>
        <time>2022-12-10T14:57:33.229Z</time>
      </trkpt>
      <trkpt lat="48.19104" lon="-3.98555">
        <ele>70.878707</ele>
        <time>2022-12-10T14:57:36.221Z</time>
      </trkpt>
      <trkpt lat="48.19104" lon="-3.98537">
        <ele>70.756608</ele>
        <time>2022-12-10T14:57:39.233Z</time>
      </trkpt>
      <trkpt lat="48.19107" lon="-3.98518">
        <ele>70.61693</ele>
        <time>2022-12-10T14:57:42.237Z</time>
      </trkpt>
      <trkpt lat="48.1911" lon="-3.98505">
        <ele>70.516907</ele>
        <time>2022-12-10T14:57:44.234Z</time>
      </trkpt>
      <trkpt lat="48.19116" lon="-3.98488">
        <ele>70.383545</ele>
        <time>2022-12-10T14:57:47.218Z</time>
      </trkpt>
      <trkpt lat="48.19122" lon="-3.98472">
        <ele>70.260716</ele>
        <time>2022-12-10T14:57:50.222Z</time>
      </trkpt>
      <trkpt lat="48.19127" lon="-3.98461">
        <ele>70.156817</ele>
        <time>2022-12-10T14:57:53.226Z</time>
      </trkpt>
      <trkpt lat="48.19135" lon="-3.98447">
        <ele>70.177244</ele>
        <time>2022-12-10T14:57:57.229Z</time>
      </trkpt>
      <trkpt lat="48.19143" lon="-3.98436">
        <ele>70.26254</ele>
        <time>2022-12-10T14:58:01.225Z</time>
      </trkpt>
      <trkpt lat="48.1915" lon="-3.98426">
        <ele>70.334481</ele>
        <time>2022-12-10T14:58:04.221Z</time>
      </trkpt>
      <trkpt lat="48.19158" lon="-3.98417">
        <ele>70.411791</ele>
        <time>2022-12-10T14:58:07.234Z</time>
      </trkpt>
      <trkpt lat="48.19167" lon="-3.98407">
        <ele>70.494869</ele>
        <time>2022-12-10T14:58:10.235Z</time>
      </trkpt>
      <trkpt lat="48.19176" lon="-3.98398">
        <ele>70.576877</ele>
        <time>2022-12-10T14:58:13.226Z</time>
      </trkpt>
      <trkpt lat="48.19185" lon="-3.98389">
        <ele>70.658105</ele>
        <time>2022-12-10T14:58:16.208Z</time>
      </trkpt>
      <trkpt lat="48.19193" lon="-3.98379">
        <ele>70.740846</ele>
        <time>2022-12-10T14:58:19.229Z</time>
      </trkpt>
      <trkpt lat="48.19201" lon="-3.98368">
        <ele>70.821425</ele>
        <time>2022-12-10T14:58:22.230Z</time>
      </trkpt>
      <trkpt lat="48.19212" lon="-3.98357">
        <ele>70.916874</ele>
        <time>2022-12-10T14:58:26.209Z</time>
      </trkpt>
      <trkpt lat="48.19221" lon="-3.98348">
        <ele>71.003882</ele>
        <time>2022-12-10T14:58:30.232Z</time>
      </trkpt>
      <trkpt lat="48.1923" lon="-3.98338">
        <ele>71.084507</ele>
        <time>2022-12-10T14:58:35.217Z</time>
      </trkpt>
      <trkpt lat="48.19236" lon="-3.98326">
        <ele>71.157401</ele>
        <time>2022-12-10T14:58:39.232Z</time>
      </trkpt>
      <trkpt lat="48.19241" lon="-3.98316">
        <ele>71.224983</ele>
        <time>2022-12-10T14:58:42.231Z</time>
      </trkpt>
      <trkpt lat="48.19251" lon="-3.98302">
        <ele>71.327471</ele>
        <time>2022-12-10T14:58:46.227Z</time>
      </trkpt>
      <trkpt lat="48.19259" lon="-3.98291">
        <ele>71.406707</ele>
        <time>2022-12-10T14:58:49.225Z</time>
      </trkpt>
      <trkpt lat="48.19266" lon="-3.9828">
        <ele>71.48557</ele>
        <time>2022-12-10T14:58:52.232Z</time>
      </trkpt>
      <trkpt lat="48.19274" lon="-3.9827">
        <ele>71.555422</ele>
        <time>2022-12-10T14:58:55.229Z</time>
      </trkpt>
      <trkpt lat="48.1928" lon="-3.98261">
        <ele>71.618929</ele>
        <time>2022-12-10T14:58:58.228Z</time>
      </trkpt>
      <trkpt lat="48.19288" lon="-3.98251">
        <ele>71.687947</ele>
        <time>2022-12-10T14:59:01.226Z</time>
      </trkpt>
      <trkpt lat="48.19295" lon="-3.98239">
        <ele>71.762529</ele>
        <time>2022-12-10T14:59:04.228Z</time>
      </trkpt>
      <trkpt lat="48.19301" lon="-3.98227">
        <ele>71.834955</ele>
        <time>2022-12-10T14:59:07.229Z</time>
      </trkpt>
      <trkpt lat="48.19306" lon="-3.98213">
        <ele>71.908527</ele>
        <time>2022-12-10T14:59:10.225Z</time>
      </trkpt>
      <trkpt lat="48.19312" lon="-3.98201">
        <ele>71.978953</ele>
        <time>2022-12-10T14:59:13.214Z</time>
      </trkpt>
      <trkpt lat="48.19317" lon="-3.98186">
        <ele>72.056895</ele>
        <time>2022-12-10T14:59:17.231Z</time>
      </trkpt>
      <trkpt lat="48.19323" lon="-3.98172">
        <ele>72.134618</ele>
        <time>2022-12-10T14:59:22.213Z</time>
      </trkpt>
      <trkpt lat="48.19325" lon="-3.98158">
        <ele>72.201858</ele>
        <time>2022-12-10T14:59:26.229Z</time>
      </trkpt>
      <trkpt lat="48.19327" lon="-3.98143">
        <ele>72.274752</ele>
        <time>2022-12-10T14:59:30.237Z</time>
      </trkpt>
      <trkpt lat="48.19331" lon="-3.98131">
        <ele>72.337896</ele>
        <time>2022-12-10T14:59:36.208Z</time>
      </trkpt>
      <trkpt lat="48.19331" lon="-3.98129">
        <ele>72.346583</ele>
        <time>2022-12-10T14:59:47.684Z</time>
      </trkpt>
      <trkpt lat="48.19328" lon="-3.98132">
        <ele>72.375241</ele>
        <time>2022-12-10T15:27:42.275Z</time>
      </trkpt>
      <trkpt lat="48.19332" lon="-3.98119">
        <ele>72.444892</ele>
        <time>2022-12-10T15:29:22.218Z</time>
      </trkpt>
      <trkpt lat="48.19335" lon="-3.98103">
        <ele>72.52055</ele>
        <time>2022-12-10T15:29:27.219Z</time>
      </trkpt>
      <trkpt lat="48.19339" lon="-3.98088">
        <ele>72.5982</ele>
        <time>2022-12-10T15:29:32.218Z</time>
      </trkpt>
      <trkpt lat="48.19344" lon="-3.98075">
        <ele>72.666281</ele>
        <time>2022-12-10T15:29:36.218Z</time>
      </trkpt>
      <trkpt lat="48.19349" lon="-3.98065">
        <ele>72.72945</ele>
        <time>2022-12-10T15:29:39.226Z</time>
      </trkpt>
      <trkpt lat="48.19356" lon="-3.98051">
        <ele>72.904242</ele>
        <time>2022-12-10T15:29:43.231Z</time>
      </trkpt>
      <trkpt lat="48.19361" lon="-3.98038">
        <ele>73.074504</ele>
        <time>2022-12-10T15:29:47.220Z</time>
      </trkpt>
      <trkpt lat="48.19368" lon="-3.98023">
        <ele>73.282173</ele>
        <time>2022-12-10T15:29:51.217Z</time>
      </trkpt>
      <trkpt lat="48.19376" lon="-3.98011">
        <ele>73.476155</ele>
        <time>2022-12-10T15:29:54.223Z</time>
      </trkpt>
      <trkpt lat="48.19382" lon="-3.97999">
        <ele>73.635355</ele>
        <time>2022-12-10T15:29:58.218Z</time>
      </trkpt>
      <trkpt lat="48.1939" lon="-3.97985">
        <ele>73.845232</ele>
        <time>2022-12-10T15:30:02.216Z</time>
      </trkpt>
      <trkpt lat="48.19397" lon="-3.97974">
        <ele>74.015859</ele>
        <time>2022-12-10T15:30:05.222Z</time>
      </trkpt>
      <trkpt lat="48.19405" lon="-3.97961">
        <ele>74.211481</ele>
        <time>2022-12-10T15:30:08.228Z</time>
      </trkpt>
      <trkpt lat="48.19412" lon="-3.97948">
        <ele>74.410631</ele>
        <time>2022-12-10T15:30:11.214Z</time>
      </trkpt>
      <trkpt lat="48.1942" lon="-3.97937">
        <ele>74.589381</ele>
        <time>2022-12-10T15:30:14.235Z</time>
      </trkpt>
      <trkpt lat="48.19428" lon="-3.97924">
        <ele>74.787688</ele>
        <time>2022-12-10T15:30:18.221Z</time>
      </trkpt>
      <trkpt lat="48.19434" lon="-3.97914">
        <ele>74.940361</ele>
        <time>2022-12-10T15:30:21.224Z</time>
      </trkpt>
      <trkpt lat="48.19442" lon="-3.97902">
        <ele>75.124823</ele>
        <time>2022-12-10T15:30:25.227Z</time>
      </trkpt>
      <trkpt lat="48.19448" lon="-3.97891">
        <ele>75.296526</ele>
        <time>2022-12-10T15:30:30.227Z</time>
      </trkpt>
      <trkpt lat="48.19455" lon="-3.97881">
        <ele>75.453559</ele>
        <time>2022-12-10T15:30:34.218Z</time>
      </trkpt>
      <trkpt lat="48.19461" lon="-3.97868">
        <ele>75.630527</ele>
        <time>2022-12-10T15:30:38.235Z</time>
      </trkpt>
      <trkpt lat="48.19468" lon="-3.97856">
        <ele>75.781224</ele>
        <time>2022-12-10T15:30:43.219Z</time>
      </trkpt>
      <trkpt lat="48.19475" lon="-3.97846">
        <ele>75.817495</ele>
        <time>2022-12-10T15:30:47.215Z</time>
      </trkpt>
      <trkpt lat="48.19483" lon="-3.97833">
        <ele>75.861976</ele>
        <time>2022-12-10T15:30:51.219Z</time>
      </trkpt>
      <trkpt lat="48.1949" lon="-3.97823">
        <ele>75.898621</ele>
        <time>2022-12-10T15:30:55.221Z</time>
      </trkpt>
      <trkpt lat="48.19497" lon="-3.97811">
        <ele>75.939052</ele>
        <time>2022-12-10T15:31:00.215Z</time>
      </trkpt>
      <trkpt lat="48.19505" lon="-3.97799">
        <ele>75.981897</ele>
        <time>2022-12-10T15:31:04.215Z</time>
      </trkpt>
      <trkpt lat="48.1951" lon="-3.97787">
        <ele>76.018715</ele>
        <time>2022-12-10T15:31:08.232Z</time>
      </trkpt>
      <trkpt lat="48.19517" lon="-3.97777">
        <ele>76.054716</ele>
        <time>2022-12-10T15:31:12.236Z</time>
      </trkpt>
      <trkpt lat="48.19525" lon="-3.97763">
        <ele>76.100904</ele>
        <time>2022-12-10T15:31:16.217Z</time>
      </trkpt>
      <trkpt lat="48.19532" lon="-3.97753">
        <ele>76.139238</ele>
        <time>2022-12-10T15:31:19.223Z</time>
      </trkpt>
      <trkpt lat="48.19539" lon="-3.97742">
        <ele>76.17759</ele>
        <time>2022-12-10T15:31:22.218Z</time>
      </trkpt>
      <trkpt lat="48.19546" lon="-3.9773">
        <ele>76.216314</ele>
        <time>2022-12-10T15:31:25.226Z</time>
      </trkpt>
      <trkpt lat="48.19553" lon="-3.97719">
        <ele>76.255483</ele>
        <time>2022-12-10T15:31:28.220Z</time>
      </trkpt>
      <trkpt lat="48.19559" lon="-3.97707">
        <ele>76.294325</ele>
        <time>2022-12-10T15:31:31.226Z</time>
      </trkpt>
      <trkpt lat="48.19567" lon="-3.97695">
        <ele>76.335447</ele>
        <time>2022-12-10T15:31:34.224Z</time>
      </trkpt>
      <trkpt lat="48.19574" lon="-3.97683">
        <ele>76.375953</ele>
        <time>2022-12-10T15:31:37.222Z</time>
      </trkpt>
      <trkpt lat="48.19581" lon="-3.97672">
        <ele>76.416126</ele>
        <time>2022-12-10T15:31:40.219Z</time>
      </trkpt>
      <trkpt lat="48.19588" lon="-3.9766">
        <ele>76.456521</ele>
        <time>2022-12-10T15:31:43.218Z</time>
      </trkpt>
      <trkpt lat="48.19595" lon="-3.97648">
        <ele>76.39493</ele>
        <time>2022-12-10T15:31:46.222Z</time>
      </trkpt>
      <trkpt lat="48.19602" lon="-3.97637">
        <ele>76.333985</ele>
        <time>2022-12-10T15:31:49.227Z</time>
      </trkpt>
      <trkpt lat="48.19609" lon="-3.97626">
        <ele>76.272627</ele>
        <time>2022-12-10T15:31:52.220Z</time>
      </trkpt>
      <trkpt lat="48.19616" lon="-3.97615">
        <ele>76.213516</ele>
        <time>2022-12-10T15:31:55.233Z</time>
      </trkpt>
      <trkpt lat="48.19623" lon="-3.97606">
        <ele>76.157149</ele>
        <time>2022-12-10T15:31:58.230Z</time>
      </trkpt>
      <trkpt lat="48.19631" lon="-3.97598">
        <ele>76.101084</ele>
        <time>2022-12-10T15:32:01.217Z</time>
      </trkpt>
      <trkpt lat="48.19639" lon="-3.97591">
        <ele>76.045528</ele>
        <time>2022-12-10T15:32:04.235Z</time>
      </trkpt>
      <trkpt lat="48.19648" lon="-3.97584">
        <ele>75.986996</ele>
        <time>2022-12-10T15:32:07.241Z</time>
      </trkpt>
      <trkpt lat="48.19657" lon="-3.97577">
        <ele>75.92356</ele>
        <time>2022-12-10T15:32:10.230Z</time>
      </trkpt>
      <trkpt lat="48.19667" lon="-3.97569">
        <ele>75.860162</ele>
        <time>2022-12-10T15:32:13.234Z</time>
      </trkpt>
      <trkpt lat="48.19676" lon="-3.97561">
        <ele>75.795087</ele>
        <time>2022-12-10T15:32:16.228Z</time>
      </trkpt>
      <trkpt lat="48.19686" lon="-3.97553">
        <ele>75.730571</ele>
        <time>2022-12-10T15:32:19.227Z</time>
      </trkpt>
      <trkpt lat="48.19693" lon="-3.97545">
        <ele>75.673925</ele>
        <time>2022-12-10T15:32:22.226Z</time>
      </trkpt>
      <trkpt lat="48.19702" lon="-3.97537">
        <ele>75.615116</ele>
        <time>2022-12-10T15:32:25.227Z</time>
      </trkpt>
      <trkpt lat="48.19711" lon="-3.9753">
        <ele>75.556467</ele>
        <time>2022-12-10T15:32:28.219Z</time>
      </trkpt>
      <trkpt lat="48.19721" lon="-3.97523">
        <ele>75.490902</ele>
        <time>2022-12-10T15:32:31.238Z</time>
      </trkpt>
      <trkpt lat="48.1973" lon="-3.97515">
        <ele>75.429907</ele>
        <time>2022-12-10T15:32:34.226Z</time>
      </trkpt>
      <trkpt lat="48.19739" lon="-3.97508">
        <ele>75.36813</ele>
        <time>2022-12-10T15:32:37.229Z</time>
      </trkpt>
      <trkpt lat="48.19747" lon="-3.97501">
        <ele>75.315121</ele>
        <time>2022-12-10T15:32:40.225Z</time>
      </trkpt>
      <trkpt lat="48.19756" lon="-3.97495">
        <ele>75.261277</ele>
        <time>2022-12-10T15:32:43.222Z</time>
      </trkpt>
      <trkpt lat="48.19763" lon="-3.97488">
        <ele>75.213506</ele>
        <time>2022-12-10T15:33:11.586Z</time>
      </trkpt>
      <trkpt lat="48.19763" lon="-3.97488">
        <ele>75.212939</ele>
        <time>2022-12-10T15:33:38.798Z</time>
      </trkpt>
      <trkpt lat="48.19774" lon="-3.97482">
        <ele>75.145724</ele>
        <time>2022-12-10T15:34:06.231Z</time>
      </trkpt>
      <trkpt lat="48.19783" lon="-3.97474">
        <ele>75.089781</ele>
        <time>2022-12-10T15:34:10.223Z</time>
      </trkpt>
      <trkpt lat="48.19793" lon="-3.97466">
        <ele>75.023351</ele>
        <time>2022-12-10T15:34:14.218Z</time>
      </trkpt>
      <trkpt lat="48.19801" lon="-3.97459">
        <ele>74.970342</ele>
        <time>2022-12-10T15:34:17.262Z</time>
      </trkpt>
      <trkpt lat="48.19811" lon="-3.97452">
        <ele>74.910585</ele>
        <time>2022-12-10T15:34:20.227Z</time>
      </trkpt>
      <trkpt lat="48.1982" lon="-3.97444">
        <ele>74.849089</ele>
        <time>2022-12-10T15:34:23.221Z</time>
      </trkpt>
      <trkpt lat="48.19831" lon="-3.97436">
        <ele>74.780862</ele>
        <time>2022-12-10T15:34:26.215Z</time>
      </trkpt>
      <trkpt lat="48.19842" lon="-3.97427">
        <ele>74.711151</ele>
        <time>2022-12-10T15:34:29.221Z</time>
      </trkpt>
      <trkpt lat="48.19853" lon="-3.97419">
        <ele>74.641431</ele>
        <time>2022-12-10T15:34:32.235Z</time>
      </trkpt>
      <trkpt lat="48.19864" lon="-3.97411">
        <ele>74.571045</ele>
        <time>2022-12-10T15:34:35.222Z</time>
      </trkpt>
      <trkpt lat="48.19875" lon="-3.97402">
        <ele>74.499983</ele>
        <time>2022-12-10T15:34:38.222Z</time>
      </trkpt>
      <trkpt lat="48.19886" lon="-3.97394">
        <ele>74.4279</ele>
        <time>2022-12-10T15:34:41.223Z</time>
      </trkpt>
      <trkpt lat="48.19897" lon="-3.97384">
        <ele>74.362737</ele>
        <time>2022-12-10T15:34:44.222Z</time>
      </trkpt>
      <trkpt lat="48.19907" lon="-3.97373">
        <ele>74.325701</ele>
        <time>2022-12-10T15:34:47.234Z</time>
      </trkpt>
      <trkpt lat="48.19917" lon="-3.97361">
        <ele>74.288526</ele>
        <time>2022-12-10T15:34:50.222Z</time>
      </trkpt>
      <trkpt lat="48.19926" lon="-3.9735">
        <ele>74.25356</ele>
        <time>2022-12-10T15:34:53.222Z</time>
      </trkpt>
      <trkpt lat="48.19935" lon="-3.97338">
        <ele>74.217593</ele>
        <time>2022-12-10T15:34:56.233Z</time>
      </trkpt>
      <trkpt lat="48.19945" lon="-3.97326">
        <ele>74.18004</ele>
        <time>2022-12-10T15:34:59.232Z</time>
      </trkpt>
      <trkpt lat="48.19954" lon="-3.97314">
        <ele>74.142958</ele>
        <time>2022-12-10T15:35:02.217Z</time>
      </trkpt>
      <trkpt lat="48.19963" lon="-3.973">
        <ele>74.105841</ele>
        <time>2022-12-10T15:35:05.214Z</time>
      </trkpt>
      <trkpt lat="48.19971" lon="-3.97287">
        <ele>74.069358</ele>
        <time>2022-12-10T15:35:08.221Z</time>
      </trkpt>
      <trkpt lat="48.1998" lon="-3.97274">
        <ele>74.032798</ele>
        <time>2022-12-10T15:35:11.216Z</time>
      </trkpt>
      <trkpt lat="48.19988" lon="-3.9726">
        <ele>73.995967</ele>
        <time>2022-12-10T15:35:14.241Z</time>
      </trkpt>
      <trkpt lat="48.19996" lon="-3.97246">
        <ele>73.960141</ele>
        <time>2022-12-10T15:35:17.224Z</time>
      </trkpt>
      <trkpt lat="48.20003" lon="-3.97231">
        <ele>73.922954</ele>
        <time>2022-12-10T15:35:20.220Z</time>
      </trkpt>
      <trkpt lat="48.2001" lon="-3.97215">
        <ele>73.885467</ele>
        <time>2022-12-10T15:35:23.222Z</time>
      </trkpt>
      <trkpt lat="48.20017" lon="-3.97201">
        <ele>73.850629</ele>
        <time>2022-12-10T15:35:26.217Z</time>
      </trkpt>
      <trkpt lat="48.20023" lon="-3.97184">
        <ele>73.905805</ele>
        <time>2022-12-10T15:35:29.234Z</time>
      </trkpt>
      <trkpt lat="48.2003" lon="-3.97168">
        <ele>74.036716</ele>
        <time>2022-12-10T15:35:32.223Z</time>
      </trkpt>
      <trkpt lat="48.20037" lon="-3.97152">
        <ele>74.166522</ele>
        <time>2022-12-10T15:35:35.216Z</time>
      </trkpt>
      <trkpt lat="48.20044" lon="-3.97136">
        <ele>74.297995</ele>
        <time>2022-12-10T15:35:38.218Z</time>
      </trkpt>
      <trkpt lat="48.20051" lon="-3.97122">
        <ele>74.415969</ele>
        <time>2022-12-10T15:35:41.225Z</time>
      </trkpt>
      <trkpt lat="48.20057" lon="-3.97109">
        <ele>74.523641</ele>
        <time>2022-12-10T15:35:44.224Z</time>
      </trkpt>
      <trkpt lat="48.20064" lon="-3.97096">
        <ele>74.635753</ele>
        <time>2022-12-10T15:35:47.222Z</time>
      </trkpt>
      <trkpt lat="48.20071" lon="-3.97084">
        <ele>74.752365</ele>
        <time>2022-12-10T15:35:50.221Z</time>
      </trkpt>
      <trkpt lat="48.2008" lon="-3.9707">
        <ele>74.87575</ele>
        <time>2022-12-10T15:35:53.222Z</time>
      </trkpt>
      <trkpt lat="48.20088" lon="-3.97056">
        <ele>75.004886</ele>
        <time>2022-12-10T15:35:56.227Z</time>
      </trkpt>
      <trkpt lat="48.20096" lon="-3.97043">
        <ele>75.125891</ele>
        <time>2022-12-10T15:35:59.238Z</time>
      </trkpt>
      <trkpt lat="48.20103" lon="-3.9703">
        <ele>75.243316</ele>
        <time>2022-12-10T15:36:02.220Z</time>
      </trkpt>
      <trkpt lat="48.20111" lon="-3.97016">
        <ele>75.365659</ele>
        <time>2022-12-10T15:36:05.222Z</time>
      </trkpt>
      <trkpt lat="48.20119" lon="-3.97003">
        <ele>75.485633</ele>
        <time>2022-12-10T15:36:08.236Z</time>
      </trkpt>
      <trkpt lat="48.20126" lon="-3.96989">
        <ele>75.60552</ele>
        <time>2022-12-10T15:36:11.217Z</time>
      </trkpt>
      <trkpt lat="48.20134" lon="-3.96975">
        <ele>75.70019</ele>
        <time>2022-12-10T15:36:14.217Z</time>
      </trkpt>
      <trkpt lat="48.20142" lon="-3.96961">
        <ele>75.75798</ele>
        <time>2022-12-10T15:36:17.228Z</time>
      </trkpt>
      <trkpt lat="48.20149" lon="-3.96947">
        <ele>75.813556</ele>
        <time>2022-12-10T15:36:20.233Z</time>
      </trkpt>
      <trkpt lat="48.20156" lon="-3.96933">
        <ele>75.868979</ele>
        <time>2022-12-10T15:36:23.224Z</time>
      </trkpt>
      <trkpt lat="48.20162" lon="-3.96919">
        <ele>75.924078</ele>
        <time>2022-12-10T15:36:26.221Z</time>
      </trkpt>
      <trkpt lat="48.20168" lon="-3.96905">
        <ele>75.977337</ele>
        <time>2022-12-10T15:36:29.222Z</time>
      </trkpt>
      <trkpt lat="48.20175" lon="-3.96892">
        <ele>76.030708</ele>
        <time>2022-12-10T15:36:32.227Z</time>
      </trkpt>
      <trkpt lat="48.2018" lon="-3.96876">
        <ele>76.088588</ele>
        <time>2022-12-10T15:36:35.219Z</time>
      </trkpt>
      <trkpt lat="48.20185" lon="-3.96861">
        <ele>76.143159</ele>
        <time>2022-12-10T15:36:38.217Z</time>
      </trkpt>
      <trkpt lat="48.20191" lon="-3.96845">
        <ele>76.201935</ele>
        <time>2022-12-10T15:36:41.222Z</time>
      </trkpt>
      <trkpt lat="48.20195" lon="-3.96828">
        <ele>76.260254</ele>
        <time>2022-12-10T15:36:44.224Z</time>
      </trkpt>
      <trkpt lat="48.20198" lon="-3.96811">
        <ele>76.315849</ele>
        <time>2022-12-10T15:36:47.225Z</time>
      </trkpt>
      <trkpt lat="48.202" lon="-3.96794">
        <ele>76.370252</ele>
        <time>2022-12-10T15:36:50.217Z</time>
      </trkpt>
      <trkpt lat="48.20203" lon="-3.96776">
        <ele>76.429664</ele>
        <time>2022-12-10T15:36:53.226Z</time>
      </trkpt>
      <trkpt lat="48.20206" lon="-3.96758">
        <ele>76.490751</ele>
        <time>2022-12-10T15:36:56.222Z</time>
      </trkpt>
      <trkpt lat="48.20209" lon="-3.96739">
        <ele>76.419483</ele>
        <time>2022-12-10T15:36:59.224Z</time>
      </trkpt>
      <trkpt lat="48.20213" lon="-3.96722">
        <ele>75.906958</ele>
        <time>2022-12-10T15:37:02.220Z</time>
      </trkpt>
      <trkpt lat="48.20215" lon="-3.96704">
        <ele>75.374238</ele>
        <time>2022-12-10T15:37:05.226Z</time>
      </trkpt>
      <trkpt lat="48.20214" lon="-3.96689">
        <ele>74.969043</ele>
        <time>2022-12-10T15:37:07.224Z</time>
      </trkpt>
      <trkpt lat="48.20214" lon="-3.96676">
        <ele>74.585097</ele>
        <time>2022-12-10T15:37:09.223Z</time>
      </trkpt>
      <trkpt lat="48.20213" lon="-3.96662">
        <ele>74.195348</ele>
        <time>2022-12-10T15:37:11.220Z</time>
      </trkpt>
      <trkpt lat="48.20213" lon="-3.96642">
        <ele>73.619979</ele>
        <time>2022-12-10T15:37:14.222Z</time>
      </trkpt>
      <trkpt lat="48.20211" lon="-3.96623">
        <ele>73.062319</ele>
        <time>2022-12-10T15:37:17.211Z</time>
      </trkpt>
      <trkpt lat="48.20209" lon="-3.96605">
        <ele>72.540489</ele>
        <time>2022-12-10T15:37:20.214Z</time>
      </trkpt>
      <trkpt lat="48.20205" lon="-3.96586">
        <ele>71.988784</ele>
        <time>2022-12-10T15:37:23.221Z</time>
      </trkpt>
      <trkpt lat="48.20198" lon="-3.96569">
        <ele>71.426585</ele>
        <time>2022-12-10T15:37:26.217Z</time>
      </trkpt>
      <trkpt lat="48.20193" lon="-3.96558">
        <ele>71.036194</ele>
        <time>2022-12-10T15:37:28.215Z</time>
      </trkpt>
      <trkpt lat="48.20188" lon="-3.96546">
        <ele>70.645451</ele>
        <time>2022-12-10T15:37:30.226Z</time>
      </trkpt>
      <trkpt lat="48.20183" lon="-3.96534">
        <ele>70.249373</ele>
        <time>2022-12-10T15:37:32.219Z</time>
      </trkpt>
      <trkpt lat="48.20177" lon="-3.96517">
        <ele>69.688837</ele>
        <time>2022-12-10T15:37:35.209Z</time>
      </trkpt>
      <trkpt lat="48.2017" lon="-3.96499">
        <ele>69.1208</ele>
        <time>2022-12-10T15:37:38.213Z</time>
      </trkpt>
      <trkpt lat="48.20164" lon="-3.96482">
        <ele>68.951636</ele>
        <time>2022-12-10T15:37:41.215Z</time>
      </trkpt>
      <trkpt lat="48.20158" lon="-3.96465">
        <ele>69.105475</ele>
        <time>2022-12-10T15:37:44.224Z</time>
      </trkpt>
      <trkpt lat="48.20153" lon="-3.96449">
        <ele>69.241873</ele>
        <time>2022-12-10T15:37:47.221Z</time>
      </trkpt>
      <trkpt lat="48.2015" lon="-3.96435">
        <ele>69.360091</ele>
        <time>2022-12-10T15:37:50.226Z</time>
      </trkpt>
      <trkpt lat="48.20146" lon="-3.9642">
        <ele>69.494451</ele>
        <time>2022-12-10T15:37:53.218Z</time>
      </trkpt>
      <trkpt lat="48.20142" lon="-3.96404">
        <ele>69.631005</ele>
        <time>2022-12-10T15:37:56.227Z</time>
      </trkpt>
      <trkpt lat="48.20137" lon="-3.96388">
        <ele>69.763721</ele>
        <time>2022-12-10T15:37:59.211Z</time>
      </trkpt>
      <trkpt lat="48.20134" lon="-3.96372">
        <ele>69.898084</ele>
        <time>2022-12-10T15:38:02.223Z</time>
      </trkpt>
      <trkpt lat="48.2013" lon="-3.96354">
        <ele>70.044827</ele>
        <time>2022-12-10T15:38:05.213Z</time>
      </trkpt>
      <trkpt lat="48.20126" lon="-3.96338">
        <ele>70.1803</ele>
        <time>2022-12-10T15:38:08.230Z</time>
      </trkpt>
      <trkpt lat="48.20123" lon="-3.96324">
        <ele>70.302207</ele>
        <time>2022-12-10T15:38:11.226Z</time>
      </trkpt>
      <trkpt lat="48.20121" lon="-3.96307">
        <ele>70.434362</ele>
        <time>2022-12-10T15:38:15.231Z</time>
      </trkpt>
      <trkpt lat="48.20116" lon="-3.96293">
        <ele>70.56357</ele>
        <time>2022-12-10T15:38:18.220Z</time>
      </trkpt>
      <trkpt lat="48.20109" lon="-3.96279">
        <ele>70.699634</ele>
        <time>2022-12-10T15:38:21.219Z</time>
      </trkpt>
      <trkpt lat="48.20103" lon="-3.96266">
        <ele>70.829703</ele>
        <time>2022-12-10T15:38:24.218Z</time>
      </trkpt>
      <trkpt lat="48.20097" lon="-3.96254">
        <ele>70.947344</ele>
        <time>2022-12-10T15:38:27.220Z</time>
      </trkpt>
      <trkpt lat="48.20089" lon="-3.96242">
        <ele>71.090534</ele>
        <time>2022-12-10T15:38:30.217Z</time>
      </trkpt>
      <trkpt lat="48.2008" lon="-3.9623">
        <ele>71.260917</ele>
        <time>2022-12-10T15:38:33.224Z</time>
      </trkpt>
      <trkpt lat="48.2007" lon="-3.96218">
        <ele>71.432479</ele>
        <time>2022-12-10T15:38:36.224Z</time>
      </trkpt>
      <trkpt lat="48.2006" lon="-3.96208">
        <ele>71.599488</ele>
        <time>2022-12-10T15:38:39.215Z</time>
      </trkpt>
      <trkpt lat="48.20049" lon="-3.96198">
        <ele>71.779451</ele>
        <time>2022-12-10T15:38:42.223Z</time>
      </trkpt>
      <trkpt lat="48.20039" lon="-3.96189">
        <ele>71.943765</ele>
        <time>2022-12-10T15:38:45.235Z</time>
      </trkpt>
      <trkpt lat="48.20029" lon="-3.96181">
        <ele>72.101433</ele>
        <time>2022-12-10T15:38:48.232Z</time>
      </trkpt>
      <trkpt lat="48.20019" lon="-3.96172">
        <ele>72.262615</ele>
        <time>2022-12-10T15:38:51.222Z</time>
      </trkpt>
      <trkpt lat="48.20008" lon="-3.96163">
        <ele>72.430831</ele>
        <time>2022-12-10T15:38:54.220Z</time>
      </trkpt>
      <trkpt lat="48.19997" lon="-3.96157">
        <ele>72.60185</ele>
        <time>2022-12-10T15:38:57.226Z</time>
      </trkpt>
      <trkpt lat="48.19985" lon="-3.9615">
        <ele>72.780648</ele>
        <time>2022-12-10T15:39:00.216Z</time>
      </trkpt>
      <trkpt lat="48.19973" lon="-3.96144">
        <ele>72.957022</ele>
        <time>2022-12-10T15:39:03.217Z</time>
      </trkpt>
      <trkpt lat="48.19961" lon="-3.96139">
        <ele>73.12068</ele>
        <time>2022-12-10T15:39:06.244Z</time>
      </trkpt>
      <trkpt lat="48.19949" lon="-3.96133">
        <ele>73.293296</ele>
        <time>2022-12-10T15:39:09.221Z</time>
      </trkpt>
      <trkpt lat="48.19938" lon="-3.96127">
        <ele>73.459438</ele>
        <time>2022-12-10T15:39:12.226Z</time>
      </trkpt>
      <trkpt lat="48.19926" lon="-3.96121">
        <ele>73.559817</ele>
        <time>2022-12-10T15:39:15.221Z</time>
      </trkpt>
      <trkpt lat="48.19914" lon="-3.96115">
        <ele>73.638274</ele>
        <time>2022-12-10T15:39:18.231Z</time>
      </trkpt>
      <trkpt lat="48.19902" lon="-3.96109">
        <ele>73.719044</ele>
        <time>2022-12-10T15:39:21.234Z</time>
      </trkpt>
      <trkpt lat="48.1989" lon="-3.96104">
        <ele>73.798922</ele>
        <time>2022-12-10T15:39:24.221Z</time>
      </trkpt>
      <trkpt lat="48.19878" lon="-3.96098">
        <ele>73.877977</ele>
        <time>2022-12-10T15:39:27.221Z</time>
      </trkpt>
      <trkpt lat="48.19865" lon="-3.96092">
        <ele>73.961593</ele>
        <time>2022-12-10T15:39:30.219Z</time>
      </trkpt>
      <trkpt lat="48.19854" lon="-3.96085">
        <ele>74.04027</ele>
        <time>2022-12-10T15:39:33.219Z</time>
      </trkpt>
      <trkpt lat="48.19842" lon="-3.96079">
        <ele>74.120582</ele>
        <time>2022-12-10T15:39:36.222Z</time>
      </trkpt>
      <trkpt lat="48.1983" lon="-3.96072">
        <ele>74.19544</ele>
        <time>2022-12-10T15:39:39.221Z</time>
      </trkpt>
      <trkpt lat="48.19819" lon="-3.96066">
        <ele>74.274118</ele>
        <time>2022-12-10T15:39:42.228Z</time>
      </trkpt>
      <trkpt lat="48.19806" lon="-3.9606">
        <ele>74.358332</ele>
        <time>2022-12-10T15:39:45.219Z</time>
      </trkpt>
      <trkpt lat="48.19793" lon="-3.96053">
        <ele>74.441262</ele>
        <time>2022-12-10T15:39:48.242Z</time>
      </trkpt>
      <trkpt lat="48.19781" lon="-3.96047">
        <ele>74.520913</ele>
        <time>2022-12-10T15:39:51.224Z</time>
      </trkpt>
      <trkpt lat="48.19769" lon="-3.9604">
        <ele>74.600176</ele>
        <time>2022-12-10T15:39:54.221Z</time>
      </trkpt>
      <trkpt lat="48.19757" lon="-3.96034">
        <ele>74.649342</ele>
        <time>2022-12-10T15:39:57.226Z</time>
      </trkpt>
      <trkpt lat="48.19745" lon="-3.96027">
        <ele>74.682975</ele>
        <time>2022-12-10T15:40:00.221Z</time>
      </trkpt>
      <trkpt lat="48.19732" lon="-3.9602">
        <ele>74.71649</ele>
        <time>2022-12-10T15:40:03.235Z</time>
      </trkpt>
      <trkpt lat="48.1972" lon="-3.96014">
        <ele>74.748413</ele>
        <time>2022-12-10T15:40:06.245Z</time>
      </trkpt>
      <trkpt lat="48.19708" lon="-3.9601">
        <ele>74.779564</ele>
        <time>2022-12-10T15:40:09.222Z</time>
      </trkpt>
      <trkpt lat="48.19696" lon="-3.96006">
        <ele>74.811486</ele>
        <time>2022-12-10T15:40:12.219Z</time>
      </trkpt>
      <trkpt lat="48.19683" lon="-3.96003">
        <ele>74.844472</ele>
        <time>2022-12-10T15:40:15.232Z</time>
      </trkpt>
      <trkpt lat="48.1967" lon="-3.96002">
        <ele>74.878387</ele>
        <time>2022-12-10T15:40:18.221Z</time>
      </trkpt>
      <trkpt lat="48.19656" lon="-3.96002">
        <ele>74.911718</ele>
        <time>2022-12-10T15:40:21.222Z</time>
      </trkpt>
      <trkpt lat="48.19647" lon="-3.96002">
        <ele>74.935461</ele>
        <time>2022-12-10T15:40:23.221Z</time>
      </trkpt>
      <trkpt lat="48.19637" lon="-3.96001">
        <ele>74.959721</ele>
        <time>2022-12-10T15:40:25.218Z</time>
      </trkpt>
      <trkpt lat="48.19624" lon="-3.96">
        <ele>74.994371</ele>
        <time>2022-12-10T15:40:28.228Z</time>
      </trkpt>
      <trkpt lat="48.19614" lon="-3.95999">
        <ele>75.018126</ele>
        <time>2022-12-10T15:40:30.229Z</time>
      </trkpt>
      <trkpt lat="48.19605" lon="-3.95999">
        <ele>75.041863</ele>
        <time>2022-12-10T15:40:32.224Z</time>
      </trkpt>
      <trkpt lat="48.19595" lon="-3.95998">
        <ele>75.065635</ele>
        <time>2022-12-10T15:40:34.233Z</time>
      </trkpt>
      <trkpt lat="48.19586" lon="-3.95998">
        <ele>75.102624</ele>
        <time>2022-12-10T15:40:36.217Z</time>
      </trkpt>
      <trkpt lat="48.19577" lon="-3.95997">
        <ele>75.172648</ele>
        <time>2022-12-10T15:40:38.226Z</time>
      </trkpt>
      <trkpt lat="48.19564" lon="-3.95996">
        <ele>75.273723</ele>
        <time>2022-12-10T15:40:41.226Z</time>
      </trkpt>
      <trkpt lat="48.19552" lon="-3.95996">
        <ele>75.371659</ele>
        <time>2022-12-10T15:40:44.220Z</time>
      </trkpt>
      <trkpt lat="48.19539" lon="-3.95995">
        <ele>75.469583</ele>
        <time>2022-12-10T15:40:47.226Z</time>
      </trkpt>
      <trkpt lat="48.19527" lon="-3.95996">
        <ele>75.56516</ele>
        <time>2022-12-10T15:40:50.243Z</time>
      </trkpt>
      <trkpt lat="48.19514" lon="-3.95996">
        <ele>75.66229</ele>
        <time>2022-12-10T15:40:53.221Z</time>
      </trkpt>
      <trkpt lat="48.19502" lon="-3.95995">
        <ele>75.756343</ele>
        <time>2022-12-10T15:40:56.226Z</time>
      </trkpt>
      <trkpt lat="48.19491" lon="-3.95996">
        <ele>75.846499</ele>
        <time>2022-12-10T15:40:59.223Z</time>
      </trkpt>
      <trkpt lat="48.19479" lon="-3.95995">
        <ele>75.934325</ele>
        <time>2022-12-10T15:41:02.239Z</time>
      </trkpt>
      <trkpt lat="48.19468" lon="-3.95994">
        <ele>76.022249</ele>
        <time>2022-12-10T15:41:05.218Z</time>
      </trkpt>
      <trkpt lat="48.19457" lon="-3.95994">
        <ele>76.111618</ele>
        <time>2022-12-10T15:41:08.226Z</time>
      </trkpt>
      <trkpt lat="48.19445" lon="-3.95993">
        <ele>76.198718</ele>
        <time>2022-12-10T15:41:11.229Z</time>
      </trkpt>
      <trkpt lat="48.19435" lon="-3.95993">
        <ele>76.282712</ele>
        <time>2022-12-10T15:41:14.218Z</time>
      </trkpt>
      <trkpt lat="48.19423" lon="-3.95992">
        <ele>76.368984</ele>
        <time>2022-12-10T15:41:17.234Z</time>
      </trkpt>
      <trkpt lat="48.19411" lon="-3.95992">
        <ele>76.462225</ele>
        <time>2022-12-10T15:41:20.222Z</time>
      </trkpt>
      <trkpt lat="48.194" lon="-3.95992">
        <ele>76.468863</ele>
        <time>2022-12-10T15:41:23.227Z</time>
      </trkpt>
      <trkpt lat="48.19388" lon="-3.95992">
        <ele>76.455803</ele>
        <time>2022-12-10T15:41:26.227Z</time>
      </trkpt>
      <trkpt lat="48.19377" lon="-3.95992">
        <ele>76.443177</ele>
        <time>2022-12-10T15:41:29.221Z</time>
      </trkpt>
      <trkpt lat="48.19365" lon="-3.95991">
        <ele>76.430226</ele>
        <time>2022-12-10T15:41:32.220Z</time>
      </trkpt>
      <trkpt lat="48.19353" lon="-3.9599">
        <ele>76.416608</ele>
        <time>2022-12-10T15:41:35.237Z</time>
      </trkpt>
      <trkpt lat="48.19341" lon="-3.9599">
        <ele>76.402988</ele>
        <time>2022-12-10T15:41:38.243Z</time>
      </trkpt>
      <trkpt lat="48.19329" lon="-3.95989">
        <ele>76.389365</ele>
        <time>2022-12-10T15:41:41.220Z</time>
      </trkpt>
      <trkpt lat="48.19316" lon="-3.95989">
        <ele>76.375641</ele>
        <time>2022-12-10T15:41:44.224Z</time>
      </trkpt>
      <trkpt lat="48.19304" lon="-3.95989">
        <ele>76.36214</ele>
        <time>2022-12-10T15:41:47.223Z</time>
      </trkpt>
      <trkpt lat="48.19292" lon="-3.95989">
        <ele>76.349085</ele>
        <time>2022-12-10T15:41:50.221Z</time>
      </trkpt>
      <trkpt lat="48.19282" lon="-3.95989">
        <ele>76.337815</ele>
        <time>2022-12-10T15:41:53.217Z</time>
      </trkpt>
      <trkpt lat="48.19273" lon="-3.95988">
        <ele>76.327425</ele>
        <time>2022-12-10T15:41:56.232Z</time>
      </trkpt>
      <trkpt lat="48.19263" lon="-3.95988">
        <ele>76.316701</ele>
        <time>2022-12-10T15:41:59.234Z</time>
      </trkpt>
      <trkpt lat="48.19253" lon="-3.95988">
        <ele>76.304762</ele>
        <time>2022-12-10T15:42:02.227Z</time>
      </trkpt>
      <trkpt lat="48.19241" lon="-3.95987">
        <ele>76.29159</ele>
        <time>2022-12-10T15:42:05.220Z</time>
      </trkpt>
      <trkpt lat="48.19229" lon="-3.95986">
        <ele>76.277932</ele>
        <time>2022-12-10T15:42:08.222Z</time>
      </trkpt>
      <trkpt lat="48.19217" lon="-3.95986">
        <ele>76.259147</ele>
        <time>2022-12-10T15:42:11.215Z</time>
      </trkpt>
      <trkpt lat="48.19206" lon="-3.95986">
        <ele>76.241495</ele>
        <time>2022-12-10T15:42:14.218Z</time>
      </trkpt>
      <trkpt lat="48.19196" lon="-3.95985">
        <ele>76.224974</ele>
        <time>2022-12-10T15:42:17.223Z</time>
      </trkpt>
      <trkpt lat="48.19185" lon="-3.95985">
        <ele>76.206507</ele>
        <time>2022-12-10T15:42:20.228Z</time>
      </trkpt>
      <trkpt lat="48.19173" lon="-3.95984">
        <ele>76.187538</ele>
        <time>2022-12-10T15:42:23.228Z</time>
      </trkpt>
      <trkpt lat="48.19161" lon="-3.95984">
        <ele>76.168593</ele>
        <time>2022-12-10T15:42:26.223Z</time>
      </trkpt>
      <trkpt lat="48.19149" lon="-3.95982">
        <ele>76.148915</ele>
        <time>2022-12-10T15:42:29.225Z</time>
      </trkpt>
      <trkpt lat="48.19136" lon="-3.95981">
        <ele>76.12801</ele>
        <time>2022-12-10T15:42:32.215Z</time>
      </trkpt>
      <trkpt lat="48.19127" lon="-3.95981">
        <ele>76.113438</ele>
        <time>2022-12-10T15:42:34.220Z</time>
      </trkpt>
      <trkpt lat="48.19115" lon="-3.95981">
        <ele>76.093517</ele>
        <time>2022-12-10T15:42:37.226Z</time>
      </trkpt>
      <trkpt lat="48.19102" lon="-3.9598">
        <ele>76.072949</ele>
        <time>2022-12-10T15:42:40.221Z</time>
      </trkpt>
      <trkpt lat="48.1909" lon="-3.9598">
        <ele>76.05221</ele>
        <time>2022-12-10T15:42:43.234Z</time>
      </trkpt>
      <trkpt lat="48.19077" lon="-3.95979">
        <ele>76.031309</ele>
        <time>2022-12-10T15:42:46.228Z</time>
      </trkpt>
      <trkpt lat="48.19064" lon="-3.95978">
        <ele>76.010238</ele>
        <time>2022-12-10T15:42:49.222Z</time>
      </trkpt>
      <trkpt lat="48.19051" lon="-3.95977">
        <ele>75.989656</ele>
        <time>2022-12-10T15:42:52.215Z</time>
      </trkpt>
      <trkpt lat="48.19039" lon="-3.95977">
        <ele>76.142874</ele>
        <time>2022-12-10T15:42:55.228Z</time>
      </trkpt>
      <trkpt lat="48.19026" lon="-3.95977">
        <ele>76.320889</ele>
        <time>2022-12-10T15:42:58.219Z</time>
      </trkpt>
      <trkpt lat="48.19013" lon="-3.95978">
        <ele>76.5019</ele>
        <time>2022-12-10T15:43:01.223Z</time>
      </trkpt>
      <trkpt lat="48.19" lon="-3.9598">
        <ele>76.680891</ele>
        <time>2022-12-10T15:43:04.223Z</time>
      </trkpt>
      <trkpt lat="48.18988" lon="-3.95982">
        <ele>76.858392</ele>
        <time>2022-12-10T15:43:07.224Z</time>
      </trkpt>
      <trkpt lat="48.18977" lon="-3.95983">
        <ele>77.008606</ele>
        <time>2022-12-10T15:43:10.225Z</time>
      </trkpt>
      <trkpt lat="48.18967" lon="-3.95986">
        <ele>77.153951</ele>
        <time>2022-12-10T15:43:13.219Z</time>
      </trkpt>
      <trkpt lat="48.18956" lon="-3.95988">
        <ele>77.306481</ele>
        <time>2022-12-10T15:43:16.219Z</time>
      </trkpt>
      <trkpt lat="48.18945" lon="-3.95989">
        <ele>77.467806</ele>
        <time>2022-12-10T15:43:19.221Z</time>
      </trkpt>
      <trkpt lat="48.18933" lon="-3.95989">
        <ele>77.636134</ele>
        <time>2022-12-10T15:43:22.227Z</time>
      </trkpt>
      <trkpt lat="48.18921" lon="-3.95992">
        <ele>77.799147</ele>
        <time>2022-12-10T15:43:25.240Z</time>
      </trkpt>
      <trkpt lat="48.1891" lon="-3.95993">
        <ele>77.960796</ele>
        <time>2022-12-10T15:43:28.228Z</time>
      </trkpt>
      <trkpt lat="48.18898" lon="-3.95993">
        <ele>78.126204</ele>
        <time>2022-12-10T15:43:31.223Z</time>
      </trkpt>
      <trkpt lat="48.18886" lon="-3.95993">
        <ele>78.293045</ele>
        <time>2022-12-10T15:43:34.223Z</time>
      </trkpt>
      <trkpt lat="48.18874" lon="-3.95992">
        <ele>78.453057</ele>
        <time>2022-12-10T15:43:37.224Z</time>
      </trkpt>
      <trkpt lat="48.18863" lon="-3.9599">
        <ele>78.610629</ele>
        <time>2022-12-10T15:43:40.226Z</time>
      </trkpt>
      <trkpt lat="48.18851" lon="-3.95989">
        <ele>78.759399</ele>
        <time>2022-12-10T15:43:43.226Z</time>
      </trkpt>
      <trkpt lat="48.18839" lon="-3.95986">
        <ele>78.90972</ele>
        <time>2022-12-10T15:43:46.222Z</time>
      </trkpt>
      <trkpt lat="48.18829" lon="-3.95982">
        <ele>79.047568</ele>
        <time>2022-12-10T15:43:49.223Z</time>
      </trkpt>
      <trkpt lat="48.1882" lon="-3.95976">
        <ele>79.171358</ele>
        <time>2022-12-10T15:43:52.228Z</time>
      </trkpt>
      <trkpt lat="48.18811" lon="-3.9597">
        <ele>79.296118</ele>
        <time>2022-12-10T15:43:55.232Z</time>
      </trkpt>
      <trkpt lat="48.18802" lon="-3.95963">
        <ele>79.422876</ele>
        <time>2022-12-10T15:43:58.225Z</time>
      </trkpt>
      <trkpt lat="48.18794" lon="-3.95953">
        <ele>79.560694</ele>
        <time>2022-12-10T15:44:01.218Z</time>
      </trkpt>
      <trkpt lat="48.18785" lon="-3.95942">
        <ele>79.705986</ele>
        <time>2022-12-10T15:44:04.225Z</time>
      </trkpt>
      <trkpt lat="48.18777" lon="-3.95929">
        <ele>79.858459</ele>
        <time>2022-12-10T15:44:07.225Z</time>
      </trkpt>
      <trkpt lat="48.18769" lon="-3.95914">
        <ele>80.020051</ele>
        <time>2022-12-10T15:44:10.226Z</time>
      </trkpt>
      <trkpt lat="48.18763" lon="-3.95898">
        <ele>80.182974</ele>
        <time>2022-12-10T15:44:13.225Z</time>
      </trkpt>
      <trkpt lat="48.18757" lon="-3.95881">
        <ele>80.342721</ele>
        <time>2022-12-10T15:44:16.231Z</time>
      </trkpt>
      <trkpt lat="48.18752" lon="-3.95865">
        <ele>80.490393</ele>
        <time>2022-12-10T15:44:19.227Z</time>
      </trkpt>
      <trkpt lat="48.18748" lon="-3.95848">
        <ele>80.642916</ele>
        <time>2022-12-10T15:44:22.231Z</time>
      </trkpt>
      <trkpt lat="48.18744" lon="-3.95831">
        <ele>80.797431</ele>
        <time>2022-12-10T15:44:25.231Z</time>
      </trkpt>
      <trkpt lat="48.18739" lon="-3.95813">
        <ele>80.52449</ele>
        <time>2022-12-10T15:44:28.219Z</time>
      </trkpt>
      <trkpt lat="48.18736" lon="-3.95796">
        <ele>80.244723</ele>
        <time>2022-12-10T15:44:31.225Z</time>
      </trkpt>
      <trkpt lat="48.18734" lon="-3.95779">
        <ele>79.981916</ele>
        <time>2022-12-10T15:44:34.238Z</time>
      </trkpt>
      <trkpt lat="48.18731" lon="-3.95761">
        <ele>79.698702</ele>
        <time>2022-12-10T15:44:37.228Z</time>
      </trkpt>
      <trkpt lat="48.18727" lon="-3.95743">
        <ele>79.404461</ele>
        <time>2022-12-10T15:44:40.225Z</time>
      </trkpt>
      <trkpt lat="48.18724" lon="-3.95723">
        <ele>79.101879</ele>
        <time>2022-12-10T15:44:43.216Z</time>
      </trkpt>
      <trkpt lat="48.18722" lon="-3.95705">
        <ele>78.827002</ele>
        <time>2022-12-10T15:44:46.225Z</time>
      </trkpt>
      <trkpt lat="48.18722" lon="-3.95688">
        <ele>78.561183</ele>
        <time>2022-12-10T15:44:49.229Z</time>
      </trkpt>
      <trkpt lat="48.18721" lon="-3.95669">
        <ele>78.271884</ele>
        <time>2022-12-10T15:44:52.234Z</time>
      </trkpt>
      <trkpt lat="48.18721" lon="-3.95651">
        <ele>78.002818</ele>
        <time>2022-12-10T15:44:55.237Z</time>
      </trkpt>
      <trkpt lat="48.1872" lon="-3.95634">
        <ele>77.7402</ele>
        <time>2022-12-10T15:44:58.225Z</time>
      </trkpt>
      <trkpt lat="48.1872" lon="-3.95616">
        <ele>77.45618</ele>
        <time>2022-12-10T15:45:01.225Z</time>
      </trkpt>
      <trkpt lat="48.18721" lon="-3.95596">
        <ele>77.15685</ele>
        <time>2022-12-10T15:45:04.224Z</time>
      </trkpt>
      <trkpt lat="48.18721" lon="-3.95577">
        <ele>76.86186</ele>
        <time>2022-12-10T15:45:07.217Z</time>
      </trkpt>
      <trkpt lat="48.18722" lon="-3.95558">
        <ele>76.668678</ele>
        <time>2022-12-10T15:45:10.242Z</time>
      </trkpt>
      <trkpt lat="48.18723" lon="-3.9554">
        <ele>76.628704</ele>
        <time>2022-12-10T15:45:13.232Z</time>
      </trkpt>
      <trkpt lat="48.18726" lon="-3.95522">
        <ele>76.588839</ele>
        <time>2022-12-10T15:45:16.244Z</time>
      </trkpt>
      <trkpt lat="48.18729" lon="-3.95503">
        <ele>76.547142</ele>
        <time>2022-12-10T15:45:19.230Z</time>
      </trkpt>
      <trkpt lat="48.18731" lon="-3.95487">
        <ele>76.509756</ele>
        <time>2022-12-10T15:45:22.221Z</time>
      </trkpt>
      <trkpt lat="48.18733" lon="-3.95469">
        <ele>76.472041</ele>
        <time>2022-12-10T15:45:25.262Z</time>
      </trkpt>
      <trkpt lat="48.18737" lon="-3.95452">
        <ele>76.433332</ele>
        <time>2022-12-10T15:45:28.221Z</time>
      </trkpt>
      <trkpt lat="48.18741" lon="-3.95436">
        <ele>76.396175</ele>
        <time>2022-12-10T15:45:31.237Z</time>
      </trkpt>
      <trkpt lat="48.18744" lon="-3.9542">
        <ele>76.358461</ele>
        <time>2022-12-10T15:45:34.216Z</time>
      </trkpt>
      <trkpt lat="48.18747" lon="-3.954">
        <ele>76.314771</ele>
        <time>2022-12-10T15:45:37.216Z</time>
      </trkpt>
      <trkpt lat="48.18752" lon="-3.95382">
        <ele>76.271611</ele>
        <time>2022-12-10T15:45:40.223Z</time>
      </trkpt>
      <trkpt lat="48.18756" lon="-3.95365">
        <ele>76.23322</ele>
        <time>2022-12-10T15:45:43.227Z</time>
      </trkpt>
      <trkpt lat="48.1876" lon="-3.95348">
        <ele>76.193305</ele>
        <time>2022-12-10T15:45:46.223Z</time>
      </trkpt>
      <trkpt lat="48.18766" lon="-3.95331">
        <ele>76.152279</ele>
        <time>2022-12-10T15:45:49.221Z</time>
      </trkpt>
      <trkpt lat="48.18771" lon="-3.95315">
        <ele>76.113308</ele>
        <time>2022-12-10T15:45:52.225Z</time>
      </trkpt>
      <trkpt lat="48.18776" lon="-3.95299">
        <ele>76.015828</ele>
        <time>2022-12-10T15:45:55.219Z</time>
      </trkpt>
      <trkpt lat="48.18783" lon="-3.95284">
        <ele>75.881802</ele>
        <time>2022-12-10T15:45:58.221Z</time>
      </trkpt>
      <trkpt lat="48.1879" lon="-3.95268">
        <ele>75.730629</ele>
        <time>2022-12-10T15:46:01.222Z</time>
      </trkpt>
      <trkpt lat="48.18798" lon="-3.9525">
        <ele>75.569905</ele>
        <time>2022-12-10T15:46:04.221Z</time>
      </trkpt>
      <trkpt lat="48.18806" lon="-3.95234">
        <ele>75.41723</ele>
        <time>2022-12-10T15:46:07.226Z</time>
      </trkpt>
      <trkpt lat="48.18811" lon="-3.95223">
        <ele>75.313061</ele>
        <time>2022-12-10T15:46:09.226Z</time>
      </trkpt>
      <trkpt lat="48.18817" lon="-3.95212">
        <ele>75.204964</ele>
        <time>2022-12-10T15:46:11.223Z</time>
      </trkpt>
      <trkpt lat="48.18822" lon="-3.952">
        <ele>75.101426</ele>
        <time>2022-12-10T15:46:13.221Z</time>
      </trkpt>
      <trkpt lat="48.18827" lon="-3.95189">
        <ele>74.995981</ele>
        <time>2022-12-10T15:46:15.244Z</time>
      </trkpt>
      <trkpt lat="48.18835" lon="-3.95174">
        <ele>74.847648</ele>
        <time>2022-12-10T15:46:18.224Z</time>
      </trkpt>
      <trkpt lat="48.18841" lon="-3.95161">
        <ele>74.731409</ele>
        <time>2022-12-10T15:46:20.222Z</time>
      </trkpt>
      <trkpt lat="48.18847" lon="-3.95144">
        <ele>74.582029</ele>
        <time>2022-12-10T15:46:23.218Z</time>
      </trkpt>
      <trkpt lat="48.18854" lon="-3.95127">
        <ele>74.431855</ele>
        <time>2022-12-10T15:46:26.224Z</time>
      </trkpt>
      <trkpt lat="48.18861" lon="-3.9511">
        <ele>74.283576</ele>
        <time>2022-12-10T15:46:29.218Z</time>
      </trkpt>
      <trkpt lat="48.18866" lon="-3.95095">
        <ele>74.147651</ele>
        <time>2022-12-10T15:46:32.223Z</time>
      </trkpt>
      <trkpt lat="48.18872" lon="-3.95078">
        <ele>74.011539</ele>
        <time>2022-12-10T15:46:35.215Z</time>
      </trkpt>
      <trkpt lat="48.18878" lon="-3.95062">
        <ele>73.896708</ele>
        <time>2022-12-10T15:46:38.225Z</time>
      </trkpt>
      <trkpt lat="48.18883" lon="-3.95049">
        <ele>73.806952</ele>
        <time>2022-12-10T15:46:41.229Z</time>
      </trkpt>
      <trkpt lat="48.18888" lon="-3.95036">
        <ele>73.713475</ele>
        <time>2022-12-10T15:46:44.217Z</time>
      </trkpt>
      <trkpt lat="48.18894" lon="-3.9502">
        <ele>73.601888</ele>
        <time>2022-12-10T15:46:48.221Z</time>
      </trkpt>
      <trkpt lat="48.18899" lon="-3.95004">
        <ele>73.496061</ele>
        <time>2022-12-10T15:46:51.231Z</time>
      </trkpt>
      <trkpt lat="48.18903" lon="-3.94988">
        <ele>73.39079</ele>
        <time>2022-12-10T15:46:54.226Z</time>
      </trkpt>
      <trkpt lat="48.18908" lon="-3.94972">
        <ele>73.282171</ele>
        <time>2022-12-10T15:46:57.217Z</time>
      </trkpt>
      <trkpt lat="48.18913" lon="-3.94956">
        <ele>73.17336</ele>
        <time>2022-12-10T15:47:00.222Z</time>
      </trkpt>
      <trkpt lat="48.18917" lon="-3.9494">
        <ele>73.065614</ele>
        <time>2022-12-10T15:47:03.225Z</time>
      </trkpt>
      <trkpt lat="48.18921" lon="-3.94923">
        <ele>72.952976</ele>
        <time>2022-12-10T15:47:06.249Z</time>
      </trkpt>
      <trkpt lat="48.18925" lon="-3.94905">
        <ele>72.837293</ele>
        <time>2022-12-10T15:47:09.218Z</time>
      </trkpt>
      <trkpt lat="48.1893" lon="-3.94887">
        <ele>72.719182</ele>
        <time>2022-12-10T15:47:12.219Z</time>
      </trkpt>
      <trkpt lat="48.18934" lon="-3.94869">
        <ele>72.602786</ele>
        <time>2022-12-10T15:47:15.228Z</time>
      </trkpt>
      <trkpt lat="48.18939" lon="-3.94851">
        <ele>72.482744</ele>
        <time>2022-12-10T15:47:18.221Z</time>
      </trkpt>
      <trkpt lat="48.18945" lon="-3.94834">
        <ele>72.337685</ele>
        <time>2022-12-10T15:47:21.230Z</time>
      </trkpt>
      <trkpt lat="48.18948" lon="-3.94817">
        <ele>71.996155</ele>
        <time>2022-12-10T15:47:24.223Z</time>
      </trkpt>
      <trkpt lat="48.18952" lon="-3.94799">
        <ele>71.622634</ele>
        <time>2022-12-10T15:47:27.229Z</time>
      </trkpt>
      <trkpt lat="48.18956" lon="-3.9478">
        <ele>71.235329</ele>
        <time>2022-12-10T15:47:30.223Z</time>
      </trkpt>
      <trkpt lat="48.1896" lon="-3.94768">
        <ele>70.972389</ele>
        <time>2022-12-10T15:47:32.222Z</time>
      </trkpt>
      <trkpt lat="48.18964" lon="-3.94755">
        <ele>70.704745</ele>
        <time>2022-12-10T15:47:34.226Z</time>
      </trkpt>
      <trkpt lat="48.1897" lon="-3.94739">
        <ele>70.358813</ele>
        <time>2022-12-10T15:47:37.220Z</time>
      </trkpt>
      <trkpt lat="48.18974" lon="-3.94725">
        <ele>70.045073</ele>
        <time>2022-12-10T15:47:40.226Z</time>
      </trkpt>
      <trkpt lat="48.18978" lon="-3.94711">
        <ele>69.760589</ele>
        <time>2022-12-10T15:47:43.227Z</time>
      </trkpt>
      <trkpt lat="48.18982" lon="-3.94698">
        <ele>69.46697</ele>
        <time>2022-12-10T15:47:46.228Z</time>
      </trkpt>
      <trkpt lat="48.18987" lon="-3.94683">
        <ele>69.147963</ele>
        <time>2022-12-10T15:47:49.224Z</time>
      </trkpt>
      <trkpt lat="48.18993" lon="-3.94669">
        <ele>68.830352</ele>
        <time>2022-12-10T15:47:52.224Z</time>
      </trkpt>
      <trkpt lat="48.18999" lon="-3.94653">
        <ele>68.463657</ele>
        <time>2022-12-10T15:47:55.226Z</time>
      </trkpt>
      <trkpt lat="48.19005" lon="-3.94638">
        <ele>68.11983</ele>
        <time>2022-12-10T15:47:58.237Z</time>
      </trkpt>
      <trkpt lat="48.19013" lon="-3.94624">
        <ele>67.78454</ele>
        <time>2022-12-10T15:48:01.231Z</time>
      </trkpt>
      <trkpt lat="48.19016" lon="-3.94608">
        <ele>67.454267</ele>
        <time>2022-12-10T15:48:04.226Z</time>
      </trkpt>
      <trkpt lat="48.19023" lon="-3.9459">
        <ele>67.241707</ele>
        <time>2022-12-10T15:48:07.229Z</time>
      </trkpt>
      <trkpt lat="48.19028" lon="-3.94573">
        <ele>67.593937</ele>
        <time>2022-12-10T15:48:10.226Z</time>
      </trkpt>
      <trkpt lat="48.19033" lon="-3.94557">
        <ele>67.929314</ele>
        <time>2022-12-10T15:48:13.234Z</time>
      </trkpt>
      <trkpt lat="48.19039" lon="-3.94545">
        <ele>68.204413</ele>
        <time>2022-12-10T15:48:16.225Z</time>
      </trkpt>
      <trkpt lat="48.19044" lon="-3.94531">
        <ele>68.504612</ele>
        <time>2022-12-10T15:48:19.223Z</time>
      </trkpt>
      <trkpt lat="48.1905" lon="-3.94516">
        <ele>68.832614</ele>
        <time>2022-12-10T15:48:22.232Z</time>
      </trkpt>
      <trkpt lat="48.19057" lon="-3.945">
        <ele>69.19143</ele>
        <time>2022-12-10T15:48:25.216Z</time>
      </trkpt>
      <trkpt lat="48.19061" lon="-3.94484">
        <ele>69.519071</ele>
        <time>2022-12-10T15:48:28.226Z</time>
      </trkpt>
      <trkpt lat="48.19067" lon="-3.94468">
        <ele>69.855708</ele>
        <time>2022-12-10T15:48:31.225Z</time>
      </trkpt>
      <trkpt lat="48.19072" lon="-3.94453">
        <ele>70.170766</ele>
        <time>2022-12-10T15:48:34.224Z</time>
      </trkpt>
      <trkpt lat="48.19079" lon="-3.94438">
        <ele>70.515958</ele>
        <time>2022-12-10T15:48:37.225Z</time>
      </trkpt>
      <trkpt lat="48.19086" lon="-3.94421">
        <ele>70.8815</ele>
        <time>2022-12-10T15:48:40.225Z</time>
      </trkpt>
      <trkpt lat="48.19092" lon="-3.94406">
        <ele>71.214087</ele>
        <time>2022-12-10T15:48:43.224Z</time>
      </trkpt>
      <trkpt lat="48.19097" lon="-3.94391">
        <ele>71.524224</ele>
        <time>2022-12-10T15:48:46.230Z</time>
      </trkpt>
      <trkpt lat="48.19103" lon="-3.94377">
        <ele>71.845976</ele>
        <time>2022-12-10T15:48:49.220Z</time>
      </trkpt>
      <trkpt lat="48.19109" lon="-3.94363">
        <ele>72.146347</ele>
        <time>2022-12-10T15:48:52.225Z</time>
      </trkpt>
      <trkpt lat="48.19114" lon="-3.94349">
        <ele>72.427439</ele>
        <time>2022-12-10T15:48:55.239Z</time>
      </trkpt>
      <trkpt lat="48.19118" lon="-3.94335">
        <ele>72.688108</ele>
        <time>2022-12-10T15:48:58.234Z</time>
      </trkpt>
      <trkpt lat="48.19123" lon="-3.94323">
        <ele>72.92411</ele>
        <time>2022-12-10T15:49:01.223Z</time>
      </trkpt>
      <trkpt lat="48.19127" lon="-3.94307">
        <ele>73.214769</ele>
        <time>2022-12-10T15:49:04.252Z</time>
      </trkpt>
      <trkpt lat="48.1913" lon="-3.9429">
        <ele>73.512184</ele>
        <time>2022-12-10T15:49:07.229Z</time>
      </trkpt>
      <trkpt lat="48.19132" lon="-3.94273">
        <ele>73.811509</ele>
        <time>2022-12-10T15:49:10.255Z</time>
      </trkpt>
      <trkpt lat="48.19134" lon="-3.94255">
        <ele>74.119307</ele>
        <time>2022-12-10T15:49:13.229Z</time>
      </trkpt>
      <trkpt lat="48.19134" lon="-3.94236">
        <ele>74.445448</ele>
        <time>2022-12-10T15:49:16.216Z</time>
      </trkpt>
      <trkpt lat="48.19133" lon="-3.94218">
        <ele>74.744516</ele>
        <time>2022-12-10T15:49:19.240Z</time>
      </trkpt>
      <trkpt lat="48.19131" lon="-3.942">
        <ele>75.051308</ele>
        <time>2022-12-10T15:49:22.231Z</time>
      </trkpt>
      <trkpt lat="48.1913" lon="-3.94182">
        <ele>75.35978</ele>
        <time>2022-12-10T15:49:25.235Z</time>
      </trkpt>
      <trkpt lat="48.19126" lon="-3.94165">
        <ele>75.664074</ele>
        <time>2022-12-10T15:49:28.227Z</time>
      </trkpt>
      <trkpt lat="48.19123" lon="-3.94149">
        <ele>75.950099</ele>
        <time>2022-12-10T15:49:31.236Z</time>
      </trkpt>
      <trkpt lat="48.19121" lon="-3.94135">
        <ele>76.193043</ele>
        <time>2022-12-10T15:49:34.225Z</time>
      </trkpt>
      <trkpt lat="48.19118" lon="-3.9412">
        <ele>76.454085</ele>
        <time>2022-12-10T15:49:37.238Z</time>
      </trkpt>
      <trkpt lat="48.19116" lon="-3.94105">
        <ele>76.725616</ele>
        <time>2022-12-10T15:49:40.223Z</time>
      </trkpt>
      <trkpt lat="48.19112" lon="-3.94088">
        <ele>76.759579</ele>
        <time>2022-12-10T15:49:43.250Z</time>
      </trkpt>
      <trkpt lat="48.1911" lon="-3.94071">
        <ele>76.712708</ele>
        <time>2022-12-10T15:49:46.218Z</time>
      </trkpt>
      <trkpt lat="48.19107" lon="-3.94053">
        <ele>76.66547</ele>
        <time>2022-12-10T15:49:49.236Z</time>
      </trkpt>
      <trkpt lat="48.19106" lon="-3.94035">
        <ele>76.617926</ele>
        <time>2022-12-10T15:49:52.234Z</time>
      </trkpt>
      <trkpt lat="48.19105" lon="-3.94017">
        <ele>76.569283</ele>
        <time>2022-12-10T15:49:55.244Z</time>
      </trkpt>
      <trkpt lat="48.19104" lon="-3.93998">
        <ele>76.519761</ele>
        <time>2022-12-10T15:49:58.226Z</time>
      </trkpt>
      <trkpt lat="48.19102" lon="-3.9398">
        <ele>76.471333</ele>
        <time>2022-12-10T15:50:01.219Z</time>
      </trkpt>
      <trkpt lat="48.19101" lon="-3.93962">
        <ele>76.423429</ele>
        <time>2022-12-10T15:50:04.226Z</time>
      </trkpt>
      <trkpt lat="48.191" lon="-3.93944">
        <ele>76.375405</ele>
        <time>2022-12-10T15:50:07.225Z</time>
      </trkpt>
      <trkpt lat="48.19097" lon="-3.93925">
        <ele>76.325899</ele>
        <time>2022-12-10T15:50:10.232Z</time>
      </trkpt>
      <trkpt lat="48.19095" lon="-3.93906">
        <ele>76.275217</ele>
        <time>2022-12-10T15:50:13.238Z</time>
      </trkpt>
      <trkpt lat="48.19093" lon="-3.93888">
        <ele>76.227141</ele>
        <time>2022-12-10T15:50:16.221Z</time>
      </trkpt>
      <trkpt lat="48.19091" lon="-3.9387">
        <ele>76.177007</ele>
        <time>2022-12-10T15:50:19.225Z</time>
      </trkpt>
      <trkpt lat="48.19089" lon="-3.93853">
        <ele>76.131342</ele>
        <time>2022-12-10T15:50:22.243Z</time>
      </trkpt>
      <trkpt lat="48.19087" lon="-3.93839">
        <ele>76.094001</ele>
        <time>2022-12-10T15:50:25.231Z</time>
      </trkpt>
      <trkpt lat="48.19085" lon="-3.93826">
        <ele>76.115013</ele>
        <time>2022-12-10T15:50:28.239Z</time>
      </trkpt>
      <trkpt lat="48.19083" lon="-3.93808">
        <ele>76.174408</ele>
        <time>2022-12-10T15:50:31.234Z</time>
      </trkpt>
      <trkpt lat="48.1908" lon="-3.9379">
        <ele>76.237835</ele>
        <time>2022-12-10T15:50:34.226Z</time>
      </trkpt>
      <trkpt lat="48.19077" lon="-3.93772">
        <ele>76.299914</ele>
        <time>2022-12-10T15:50:37.248Z</time>
      </trkpt>
      <trkpt lat="48.19074" lon="-3.93753">
        <ele>76.36762</ele>
        <time>2022-12-10T15:50:40.232Z</time>
      </trkpt>
      <trkpt lat="48.19072" lon="-3.93733">
        <ele>76.434692</ele>
        <time>2022-12-10T15:50:43.228Z</time>
      </trkpt>
      <trkpt lat="48.19069" lon="-3.93714">
        <ele>76.501408</ele>
        <time>2022-12-10T15:50:46.228Z</time>
      </trkpt>
      <trkpt lat="48.19066" lon="-3.93695">
        <ele>76.567584</ele>
        <time>2022-12-10T15:50:49.223Z</time>
      </trkpt>
      <trkpt lat="48.19064" lon="-3.93676">
        <ele>76.631115</ele>
        <time>2022-12-10T15:50:52.218Z</time>
      </trkpt>
      <trkpt lat="48.19061" lon="-3.93658">
        <ele>76.694976</ele>
        <time>2022-12-10T15:50:55.233Z</time>
      </trkpt>
      <trkpt lat="48.19059" lon="-3.93639">
        <ele>76.75803</ele>
        <time>2022-12-10T15:50:58.257Z</time>
      </trkpt>
      <trkpt lat="48.19059" lon="-3.93621">
        <ele>76.82154</ele>
        <time>2022-12-10T15:51:01.223Z</time>
      </trkpt>
      <trkpt lat="48.19057" lon="-3.93602">
        <ele>76.886361</ele>
        <time>2022-12-10T15:51:04.251Z</time>
      </trkpt>
      <trkpt lat="48.19055" lon="-3.93584">
        <ele>76.945092</ele>
        <time>2022-12-10T15:51:07.224Z</time>
      </trkpt>
      <trkpt lat="48.19054" lon="-3.93571">
        <ele>76.991254</ele>
        <time>2022-12-10T15:51:10.224Z</time>
      </trkpt>
      <trkpt lat="48.19052" lon="-3.93555">
        <ele>76.993611</ele>
        <time>2022-12-10T15:51:13.228Z</time>
      </trkpt>
      <trkpt lat="48.1905" lon="-3.93538">
        <ele>76.992777</ele>
        <time>2022-12-10T15:51:16.236Z</time>
      </trkpt>
      <trkpt lat="48.19048" lon="-3.93522">
        <ele>76.991978</ele>
        <time>2022-12-10T15:51:19.220Z</time>
      </trkpt>
      <trkpt lat="48.19046" lon="-3.93505">
        <ele>76.991103</ele>
        <time>2022-12-10T15:51:22.240Z</time>
      </trkpt>
      <trkpt lat="48.19042" lon="-3.93487">
        <ele>76.990198</ele>
        <time>2022-12-10T15:51:25.227Z</time>
      </trkpt>
      <trkpt lat="48.19038" lon="-3.93469">
        <ele>76.989251</ele>
        <time>2022-12-10T15:51:28.228Z</time>
      </trkpt>
      <trkpt lat="48.19033" lon="-3.93453">
        <ele>76.988416</ele>
        <time>2022-12-10T15:51:31.225Z</time>
      </trkpt>
      <trkpt lat="48.19027" lon="-3.93439">
        <ele>76.987604</ele>
        <time>2022-12-10T15:51:34.241Z</time>
      </trkpt>
      <trkpt lat="48.19022" lon="-3.93423">
        <ele>76.986757</ele>
        <time>2022-12-10T15:51:37.253Z</time>
      </trkpt>
      <trkpt lat="48.19016" lon="-3.93408">
        <ele>76.985872</ele>
        <time>2022-12-10T15:51:40.243Z</time>
      </trkpt>
      <trkpt lat="48.19008" lon="-3.93392">
        <ele>76.98491</ele>
        <time>2022-12-10T15:51:43.235Z</time>
      </trkpt>
      <trkpt lat="48.19003" lon="-3.93379">
        <ele>76.984157</ele>
        <time>2022-12-10T15:51:46.236Z</time>
      </trkpt>
      <trkpt lat="48.18998" lon="-3.93366">
        <ele>76.983441</ele>
        <time>2022-12-10T15:52:00.225Z</time>
      </trkpt>
      <trkpt lat="48.18993" lon="-3.93353">
        <ele>76.982712</ele>
        <time>2022-12-10T15:52:17.226Z</time>
      </trkpt>
      <trkpt lat="48.18986" lon="-3.93342">
        <ele>76.981958</ele>
        <time>2022-12-10T15:52:21.223Z</time>
      </trkpt>
      <trkpt lat="48.18979" lon="-3.93332">
        <ele>76.981274</ele>
        <time>2022-12-10T15:52:24.226Z</time>
      </trkpt>
      <trkpt lat="48.18971" lon="-3.93322">
        <ele>76.853079</ele>
        <time>2022-12-10T15:52:27.226Z</time>
      </trkpt>
      <trkpt lat="48.1896" lon="-3.93309">
        <ele>76.667605</ele>
        <time>2022-12-10T15:52:30.233Z</time>
      </trkpt>
      <trkpt lat="48.18953" lon="-3.93299">
        <ele>76.537664</ele>
        <time>2022-12-10T15:52:32.228Z</time>
      </trkpt>
      <trkpt lat="48.18945" lon="-3.9329">
        <ele>76.404429</ele>
        <time>2022-12-10T15:52:34.238Z</time>
      </trkpt>
      <trkpt lat="48.18937" lon="-3.93282">
        <ele>76.27663</ele>
        <time>2022-12-10T15:52:36.229Z</time>
      </trkpt>
      <trkpt lat="48.1893" lon="-3.93274">
        <ele>76.147774</ele>
        <time>2022-12-10T15:52:38.226Z</time>
      </trkpt>
      <trkpt lat="48.18922" lon="-3.93266">
        <ele>76.025161</ele>
        <time>2022-12-10T15:52:40.249Z</time>
      </trkpt>
      <trkpt lat="48.18914" lon="-3.9326">
        <ele>75.901796</ele>
        <time>2022-12-10T15:52:42.235Z</time>
      </trkpt>
      <trkpt lat="48.18906" lon="-3.93252">
        <ele>75.773326</ele>
        <time>2022-12-10T15:52:44.218Z</time>
      </trkpt>
      <trkpt lat="48.18898" lon="-3.93245">
        <ele>75.646648</ele>
        <time>2022-12-10T15:52:46.226Z</time>
      </trkpt>
      <trkpt lat="48.1889" lon="-3.93237">
        <ele>75.51997</ele>
        <time>2022-12-10T15:52:48.234Z</time>
      </trkpt>
      <trkpt lat="48.18882" lon="-3.9323">
        <ele>75.39908</ele>
        <time>2022-12-10T15:52:50.232Z</time>
      </trkpt>
      <trkpt lat="48.1887" lon="-3.93221">
        <ele>75.216539</ele>
        <time>2022-12-10T15:52:53.226Z</time>
      </trkpt>
      <trkpt lat="48.18862" lon="-3.93215">
        <ele>75.091526</ele>
        <time>2022-12-10T15:52:55.231Z</time>
      </trkpt>
      <trkpt lat="48.18854" lon="-3.93208">
        <ele>74.969745</ele>
        <time>2022-12-10T15:52:57.244Z</time>
      </trkpt>
      <trkpt lat="48.18846" lon="-3.93202">
        <ele>74.845978</ele>
        <time>2022-12-10T15:52:59.253Z</time>
      </trkpt>
      <trkpt lat="48.18834" lon="-3.93194">
        <ele>74.672366</ele>
        <time>2022-12-10T15:53:02.246Z</time>
      </trkpt>
      <trkpt lat="48.18826" lon="-3.93188">
        <ele>74.561274</ele>
        <time>2022-12-10T15:53:04.222Z</time>
      </trkpt>
      <trkpt lat="48.18817" lon="-3.93183">
        <ele>74.622782</ele>
        <time>2022-12-10T15:53:06.227Z</time>
      </trkpt>
      <trkpt lat="48.18809" lon="-3.93177">
        <ele>74.682161</ele>
        <time>2022-12-10T15:53:08.221Z</time>
      </trkpt>
      <trkpt lat="48.18798" lon="-3.93168">
        <ele>74.762261</ele>
        <time>2022-12-10T15:53:11.220Z</time>
      </trkpt>
      <trkpt lat="48.1879" lon="-3.93164">
        <ele>74.824536</ele>
        <time>2022-12-10T15:53:13.226Z</time>
      </trkpt>
      <trkpt lat="48.18778" lon="-3.93157">
        <ele>74.909398</ele>
        <time>2022-12-10T15:53:16.224Z</time>
      </trkpt>
      <trkpt lat="48.18765" lon="-3.93152">
        <ele>74.996473</ele>
        <time>2022-12-10T15:53:19.228Z</time>
      </trkpt>
      <trkpt lat="48.18756" lon="-3.93149">
        <ele>75.056632</ele>
        <time>2022-12-10T15:53:21.239Z</time>
      </trkpt>
      <trkpt lat="48.18747" lon="-3.93146">
        <ele>75.116432</ele>
        <time>2022-12-10T15:53:23.243Z</time>
      </trkpt>
      <trkpt lat="48.18734" lon="-3.93143">
        <ele>75.204099</ele>
        <time>2022-12-10T15:53:26.223Z</time>
      </trkpt>
      <trkpt lat="48.18721" lon="-3.93141">
        <ele>75.292948</ele>
        <time>2022-12-10T15:53:29.236Z</time>
      </trkpt>
      <trkpt lat="48.18708" lon="-3.93139">
        <ele>75.378742</ele>
        <time>2022-12-10T15:53:32.225Z</time>
      </trkpt>
      <trkpt lat="48.18695" lon="-3.93136">
        <ele>75.464026</ele>
        <time>2022-12-10T15:53:35.224Z</time>
      </trkpt>
      <trkpt lat="48.18682" lon="-3.93135">
        <ele>75.546949</ele>
        <time>2022-12-10T15:53:38.223Z</time>
      </trkpt>
      <trkpt lat="48.1867" lon="-3.93132">
        <ele>75.627223</ele>
        <time>2022-12-10T15:53:41.229Z</time>
      </trkpt>
      <trkpt lat="48.18659" lon="-3.93129">
        <ele>75.705095</ele>
        <time>2022-12-10T15:53:44.225Z</time>
      </trkpt>
      <trkpt lat="48.18647" lon="-3.93126">
        <ele>75.76885</ele>
        <time>2022-12-10T15:53:47.229Z</time>
      </trkpt>
      <trkpt lat="48.18635" lon="-3.93124">
        <ele>75.81515</ele>
        <time>2022-12-10T15:53:50.225Z</time>
      </trkpt>
      <trkpt lat="48.18624" lon="-3.93121">
        <ele>75.860889</ele>
        <time>2022-12-10T15:53:53.232Z</time>
      </trkpt>
      <trkpt lat="48.18612" lon="-3.93119">
        <ele>75.906095</ele>
        <time>2022-12-10T15:53:56.222Z</time>
      </trkpt>
      <trkpt lat="48.186" lon="-3.93116">
        <ele>75.952219</ele>
        <time>2022-12-10T15:53:59.252Z</time>
      </trkpt>
      <trkpt lat="48.18589" lon="-3.93114">
        <ele>75.997111</ele>
        <time>2022-12-10T15:54:02.230Z</time>
      </trkpt>
      <trkpt lat="48.18578" lon="-3.93111">
        <ele>76.042002</ele>
        <time>2022-12-10T15:54:05.224Z</time>
      </trkpt>
      <trkpt lat="48.18566" lon="-3.93106">
        <ele>76.088655</ele>
        <time>2022-12-10T15:54:08.223Z</time>
      </trkpt>
      <trkpt lat="48.18554" lon="-3.93103">
        <ele>76.135681</ele>
        <time>2022-12-10T15:54:11.229Z</time>
      </trkpt>
      <trkpt lat="48.18542" lon="-3.93101">
        <ele>76.182368</ele>
        <time>2022-12-10T15:54:14.222Z</time>
      </trkpt>
      <trkpt lat="48.18531" lon="-3.93099">
        <ele>76.228046</ele>
        <time>2022-12-10T15:54:17.220Z</time>
      </trkpt>
      <trkpt lat="48.18519" lon="-3.93099">
        <ele>76.274459</ele>
        <time>2022-12-10T15:54:20.226Z</time>
      </trkpt>
      <trkpt lat="48.18507" lon="-3.93096">
        <ele>76.322204</ele>
        <time>2022-12-10T15:54:23.230Z</time>
      </trkpt>
      <trkpt lat="48.18495" lon="-3.93093">
        <ele>76.367023</ele>
        <time>2022-12-10T15:54:26.247Z</time>
      </trkpt>
      <trkpt lat="48.18484" lon="-3.93091">
        <ele>76.410721</ele>
        <time>2022-12-10T15:54:29.228Z</time>
      </trkpt>
      <trkpt lat="48.18473" lon="-3.93088">
        <ele>76.457013</ele>
        <time>2022-12-10T15:54:32.224Z</time>
      </trkpt>
      <trkpt lat="48.18461" lon="-3.93086">
        <ele>76.520655</ele>
        <time>2022-12-10T15:54:35.227Z</time>
      </trkpt>
      <trkpt lat="48.18449" lon="-3.93082">
        <ele>76.585365</ele>
        <time>2022-12-10T15:54:38.219Z</time>
      </trkpt>
      <trkpt lat="48.18437" lon="-3.93079">
        <ele>76.651516</ele>
        <time>2022-12-10T15:54:41.229Z</time>
      </trkpt>
      <trkpt lat="48.18425" lon="-3.93075">
        <ele>76.719436</ele>
        <time>2022-12-10T15:54:44.231Z</time>
      </trkpt>
      <trkpt lat="48.18413" lon="-3.93072">
        <ele>76.784012</ele>
        <time>2022-12-10T15:54:47.222Z</time>
      </trkpt>
      <trkpt lat="48.18401" lon="-3.93068">
        <ele>76.849246</ele>
        <time>2022-12-10T15:54:50.230Z</time>
      </trkpt>
      <trkpt lat="48.18391" lon="-3.93065">
        <ele>76.905042</ele>
        <time>2022-12-10T15:54:53.220Z</time>
      </trkpt>
      <trkpt lat="48.18381" lon="-3.93062">
        <ele>76.958801</ele>
        <time>2022-12-10T15:54:56.220Z</time>
      </trkpt>
      <trkpt lat="48.1837" lon="-3.9306">
        <ele>77.017588</ele>
        <time>2022-12-10T15:54:59.224Z</time>
      </trkpt>
      <trkpt lat="48.18358" lon="-3.93057">
        <ele>77.082392</ele>
        <time>2022-12-10T15:55:02.236Z</time>
      </trkpt>
      <trkpt lat="48.18345" lon="-3.93055">
        <ele>77.150611</ele>
        <time>2022-12-10T15:55:05.243Z</time>
      </trkpt>
      <trkpt lat="48.18333" lon="-3.93053">
        <ele>77.216557</ele>
        <time>2022-12-10T15:55:08.225Z</time>
      </trkpt>
      <trkpt lat="48.18321" lon="-3.93051">
        <ele>77.279435</ele>
        <time>2022-12-10T15:55:11.226Z</time>
      </trkpt>
      <trkpt lat="48.18311" lon="-3.93049">
        <ele>77.336444</ele>
        <time>2022-12-10T15:55:14.223Z</time>
      </trkpt>
      <trkpt lat="48.18301" lon="-3.93048">
        <ele>77.38901</ele>
        <time>2022-12-10T15:55:17.237Z</time>
      </trkpt>
      <trkpt lat="48.1829" lon="-3.93046">
        <ele>77.383746</ele>
        <time>2022-12-10T15:55:20.224Z</time>
      </trkpt>
      <trkpt lat="48.18279" lon="-3.93045">
        <ele>77.345169</ele>
        <time>2022-12-10T15:55:23.244Z</time>
      </trkpt>
      <trkpt lat="48.18268" lon="-3.93043">
        <ele>77.30621</ele>
        <time>2022-12-10T15:55:26.234Z</time>
      </trkpt>
      <trkpt lat="48.18256" lon="-3.93041">
        <ele>77.265071</ele>
        <time>2022-12-10T15:55:29.230Z</time>
      </trkpt>
      <trkpt lat="48.18243" lon="-3.93038">
        <ele>77.223197</ele>
        <time>2022-12-10T15:55:32.229Z</time>
      </trkpt>
      <trkpt lat="48.18232" lon="-3.93036">
        <ele>77.185459</ele>
        <time>2022-12-10T15:55:35.232Z</time>
      </trkpt>
      <trkpt lat="48.18221" lon="-3.93034">
        <ele>77.146343</ele>
        <time>2022-12-10T15:55:38.229Z</time>
      </trkpt>
      <trkpt lat="48.1821" lon="-3.93031">
        <ele>77.107947</ele>
        <time>2022-12-10T15:55:41.223Z</time>
      </trkpt>
      <trkpt lat="48.18198" lon="-3.93027">
        <ele>77.067189</ele>
        <time>2022-12-10T15:55:44.226Z</time>
      </trkpt>
      <trkpt lat="48.18186" lon="-3.93023">
        <ele>77.025717</ele>
        <time>2022-12-10T15:55:47.246Z</time>
      </trkpt>
      <trkpt lat="48.18174" lon="-3.93018">
        <ele>76.98363</ele>
        <time>2022-12-10T15:55:50.223Z</time>
      </trkpt>
      <trkpt lat="48.18163" lon="-3.93013">
        <ele>76.942132</ele>
        <time>2022-12-10T15:55:53.236Z</time>
      </trkpt>
      <trkpt lat="48.18152" lon="-3.93009">
        <ele>76.903032</ele>
        <time>2022-12-10T15:55:56.233Z</time>
      </trkpt>
      <trkpt lat="48.18141" lon="-3.93004">
        <ele>76.864914</ele>
        <time>2022-12-10T15:55:59.220Z</time>
      </trkpt>
      <trkpt lat="48.1813" lon="-3.93001">
        <ele>76.826245</ele>
        <time>2022-12-10T15:56:02.246Z</time>
      </trkpt>
      <trkpt lat="48.18118" lon="-3.92998">
        <ele>76.834474</ele>
        <time>2022-12-10T15:56:05.230Z</time>
      </trkpt>
      <trkpt lat="48.18109" lon="-3.92996">
        <ele>76.989441</ele>
        <time>2022-12-10T15:56:08.232Z</time>
      </trkpt>
      <trkpt lat="48.18099" lon="-3.92995">
        <ele>77.145641</ele>
        <time>2022-12-10T15:56:11.231Z</time>
      </trkpt>
      <trkpt lat="48.18088" lon="-3.92994">
        <ele>77.318967</ele>
        <time>2022-12-10T15:56:14.226Z</time>
      </trkpt>
      <trkpt lat="48.18076" lon="-3.92993">
        <ele>77.50123</ele>
        <time>2022-12-10T15:56:17.224Z</time>
      </trkpt>
      <trkpt lat="48.18064" lon="-3.92994">
        <ele>77.683808</ele>
        <time>2022-12-10T15:56:20.226Z</time>
      </trkpt>
      <trkpt lat="48.18053" lon="-3.92996">
        <ele>77.863252</ele>
        <time>2022-12-10T15:56:23.236Z</time>
      </trkpt>
      <trkpt lat="48.18043" lon="-3.92996">
        <ele>78.021918</ele>
        <time>2022-12-10T15:56:26.232Z</time>
      </trkpt>
      <trkpt lat="48.18033" lon="-3.92996">
        <ele>78.179003</ele>
        <time>2022-12-10T15:56:29.229Z</time>
      </trkpt>
      <trkpt lat="48.18023" lon="-3.92994">
        <ele>78.338432</ele>
        <time>2022-12-10T15:56:32.228Z</time>
      </trkpt>
      <trkpt lat="48.18012" lon="-3.92991">
        <ele>78.509617</ele>
        <time>2022-12-10T15:56:35.225Z</time>
      </trkpt>
      <trkpt lat="48.18001" lon="-3.92986">
        <ele>78.691081</ele>
        <time>2022-12-10T15:56:38.227Z</time>
      </trkpt>
      <trkpt lat="48.17991" lon="-3.92979">
        <ele>78.869718</ele>
        <time>2022-12-10T15:56:41.226Z</time>
      </trkpt>
      <trkpt lat="48.17981" lon="-3.92972">
        <ele>79.037097</ele>
        <time>2022-12-10T15:56:44.232Z</time>
      </trkpt>
      <trkpt lat="48.17972" lon="-3.92965">
        <ele>79.19588</ele>
        <time>2022-12-10T15:56:47.228Z</time>
      </trkpt>
      <trkpt lat="48.17964" lon="-3.92959">
        <ele>79.346299</ele>
        <time>2022-12-10T15:56:50.231Z</time>
      </trkpt>
      <trkpt lat="48.17954" lon="-3.92951">
        <ele>79.517726</ele>
        <time>2022-12-10T15:56:53.225Z</time>
      </trkpt>
      <trkpt lat="48.17944" lon="-3.92944">
        <ele>79.608794</ele>
        <time>2022-12-10T15:56:56.229Z</time>
      </trkpt>
      <trkpt lat="48.17934" lon="-3.92936">
        <ele>79.581108</ele>
        <time>2022-12-10T15:56:59.231Z</time>
      </trkpt>
      <trkpt lat="48.17924" lon="-3.92928">
        <ele>79.553422</ele>
        <time>2022-12-10T15:57:02.253Z</time>
      </trkpt>
      <trkpt lat="48.17915" lon="-3.92921">
        <ele>79.526267</ele>
        <time>2022-12-10T15:57:05.220Z</time>
      </trkpt>
      <trkpt lat="48.17905" lon="-3.92914">
        <ele>79.498363</ele>
        <time>2022-12-10T15:57:08.224Z</time>
      </trkpt>
      <trkpt lat="48.17894" lon="-3.92907">
        <ele>79.46994</ele>
        <time>2022-12-10T15:57:11.227Z</time>
      </trkpt>
      <trkpt lat="48.17884" lon="-3.92901">
        <ele>79.44277</ele>
        <time>2022-12-10T15:57:14.232Z</time>
      </trkpt>
      <trkpt lat="48.17874" lon="-3.92896">
        <ele>79.414657</ele>
        <time>2022-12-10T15:57:17.232Z</time>
      </trkpt>
      <trkpt lat="48.17863" lon="-3.92891">
        <ele>79.387207</ele>
        <time>2022-12-10T15:57:20.232Z</time>
      </trkpt>
      <trkpt lat="48.17853" lon="-3.92885">
        <ele>79.359682</ele>
        <time>2022-12-10T15:57:23.230Z</time>
      </trkpt>
      <trkpt lat="48.17843" lon="-3.9288">
        <ele>79.332809</ele>
        <time>2022-12-10T15:57:26.233Z</time>
      </trkpt>
      <trkpt lat="48.17832" lon="-3.92875">
        <ele>79.303181</ele>
        <time>2022-12-10T15:57:29.241Z</time>
      </trkpt>
      <trkpt lat="48.17821" lon="-3.9287">
        <ele>79.274328</ele>
        <time>2022-12-10T15:57:32.244Z</time>
      </trkpt>
      <trkpt lat="48.1781" lon="-3.92865">
        <ele>79.24567</ele>
        <time>2022-12-10T15:57:35.225Z</time>
      </trkpt>
      <trkpt lat="48.17799" lon="-3.92862">
        <ele>79.217585</ele>
        <time>2022-12-10T15:57:38.226Z</time>
      </trkpt>
      <trkpt lat="48.17788" lon="-3.92858">
        <ele>79.188012</ele>
        <time>2022-12-10T15:57:41.225Z</time>
      </trkpt>
      <trkpt lat="48.17777" lon="-3.92855">
        <ele>79.146829</ele>
        <time>2022-12-10T15:57:44.233Z</time>
      </trkpt>
      <trkpt lat="48.17767" lon="-3.92851">
        <ele>79.075346</ele>
        <time>2022-12-10T15:57:48.244Z</time>
      </trkpt>
      <trkpt lat="48.17757" lon="-3.92848">
        <ele>79.006332</ele>
        <time>2022-12-10T15:57:52.238Z</time>
      </trkpt>
      <trkpt lat="48.17747" lon="-3.92844">
        <ele>78.932545</ele>
        <time>2022-12-10T15:57:56.225Z</time>
      </trkpt>
      <trkpt lat="48.17737" lon="-3.9284">
        <ele>78.858525</ele>
        <time>2022-12-10T15:58:00.225Z</time>
      </trkpt>
      <trkpt lat="48.17726" lon="-3.92837">
        <ele>78.780375</ele>
        <time>2022-12-10T15:58:04.225Z</time>
      </trkpt>
      <trkpt lat="48.17716" lon="-3.92834">
        <ele>78.709658</ele>
        <time>2022-12-10T15:58:07.231Z</time>
      </trkpt>
      <trkpt lat="48.17706" lon="-3.92832">
        <ele>78.639322</ele>
        <time>2022-12-10T15:58:10.228Z</time>
      </trkpt>
      <trkpt lat="48.17696" lon="-3.92829">
        <ele>78.565755</ele>
        <time>2022-12-10T15:58:13.251Z</time>
      </trkpt>
      <trkpt lat="48.17686" lon="-3.92828">
        <ele>78.495725</ele>
        <time>2022-12-10T15:58:16.236Z</time>
      </trkpt>
      <trkpt lat="48.17672" lon="-3.92827">
        <ele>78.39935</ele>
        <time>2022-12-10T15:59:06.256Z</time>
      </trkpt>
      <trkpt lat="48.17662" lon="-3.92825">
        <ele>78.324325</ele>
        <time>2022-12-10T16:07:58.286Z</time>
      </trkpt>
      <trkpt lat="48.17652" lon="-3.92824">
        <ele>78.257323</ele>
        <time>2022-12-10T16:08:05.235Z</time>
      </trkpt>
      <trkpt lat="48.17641" lon="-3.92824">
        <ele>78.179313</ele>
        <time>2022-12-10T16:08:36.229Z</time>
      </trkpt>
      <trkpt lat="48.17631" lon="-3.92822">
        <ele>78.107831</ele>
        <time>2022-12-10T16:08:45.232Z</time>
      </trkpt>
      <trkpt lat="48.17621" lon="-3.9282">
        <ele>78.037425</ele>
        <time>2022-12-10T16:08:53.225Z</time>
      </trkpt>
      <trkpt lat="48.17612" lon="-3.92818">
        <ele>77.971689</ele>
        <time>2022-12-10T16:09:00.223Z</time>
      </trkpt>
      <trkpt lat="48.17603" lon="-3.92814">
        <ele>77.905446</ele>
        <time>2022-12-10T16:09:07.225Z</time>
      </trkpt>
      <trkpt lat="48.17594" lon="-3.9281">
        <ele>77.599924</ele>
        <time>2022-12-10T16:09:14.228Z</time>
      </trkpt>
      <trkpt lat="48.17584" lon="-3.92805">
        <ele>77.253427</ele>
        <time>2022-12-10T16:09:22.243Z</time>
      </trkpt>
      <trkpt lat="48.17575" lon="-3.92802">
        <ele>76.930299</ele>
        <time>2022-12-10T16:09:30.232Z</time>
      </trkpt>
      <trkpt lat="48.17566" lon="-3.92797">
        <ele>76.606696</ele>
        <time>2022-12-10T16:09:39.235Z</time>
      </trkpt>
      <trkpt lat="48.17565" lon="-3.92793">
        <ele>76.511488</ele>
        <time>2022-12-10T16:10:08.615Z</time>
      </trkpt>
      <trkpt lat="48.17553" lon="-3.9279">
        <ele>76.120443</ele>
        <time>2022-12-10T16:19:11.233Z</time>
      </trkpt>
      <trkpt lat="48.17544" lon="-3.92785">
        <ele>75.789735</ele>
        <time>2022-12-10T16:19:30.232Z</time>
      </trkpt>
      <trkpt lat="48.17535" lon="-3.92782">
        <ele>75.484438</ele>
        <time>2022-12-10T16:19:34.257Z</time>
      </trkpt>
      <trkpt lat="48.17526" lon="-3.9278">
        <ele>75.165471</ele>
        <time>2022-12-10T16:19:37.233Z</time>
      </trkpt>
      <trkpt lat="48.17515" lon="-3.92776">
        <ele>74.776757</ele>
        <time>2022-12-10T16:19:41.229Z</time>
      </trkpt>
      <trkpt lat="48.17504" lon="-3.92772">
        <ele>74.4108</ele>
        <time>2022-12-10T16:19:45.230Z</time>
      </trkpt>
      <trkpt lat="48.17494" lon="-3.92769">
        <ele>74.053287</ele>
        <time>2022-12-10T16:19:49.232Z</time>
      </trkpt>
      <trkpt lat="48.17482" lon="-3.92766">
        <ele>73.664697</ele>
        <time>2022-12-10T16:19:53.232Z</time>
      </trkpt>
      <trkpt lat="48.17473" lon="-3.92764">
        <ele>73.349324</ele>
        <time>2022-12-10T16:19:56.234Z</time>
      </trkpt>
      <trkpt lat="48.17464" lon="-3.92763">
        <ele>73.034955</ele>
        <time>2022-12-10T16:19:59.235Z</time>
      </trkpt>
      <trkpt lat="48.17454" lon="-3.92763">
        <ele>72.70441</ele>
        <time>2022-12-10T16:20:03.244Z</time>
      </trkpt>
      <trkpt lat="48.17444" lon="-3.92764">
        <ele>72.379609</ele>
        <time>2022-12-10T16:20:06.236Z</time>
      </trkpt>
      <trkpt lat="48.17432" lon="-3.92765">
        <ele>71.974111</ele>
        <time>2022-12-10T16:20:10.233Z</time>
      </trkpt>
      <trkpt lat="48.17421" lon="-3.92766">
        <ele>71.840374</ele>
        <time>2022-12-10T16:20:14.237Z</time>
      </trkpt>
      <trkpt lat="48.17411" lon="-3.92766">
        <ele>71.842171</ele>
        <time>2022-12-10T16:20:17.240Z</time>
      </trkpt>
      <trkpt lat="48.17402" lon="-3.92766">
        <ele>71.844023</ele>
        <time>2022-12-10T16:20:20.238Z</time>
      </trkpt>
      <trkpt lat="48.17391" lon="-3.92765">
        <ele>71.84603</ele>
        <time>2022-12-10T16:20:23.236Z</time>
      </trkpt>
      <trkpt lat="48.17381" lon="-3.92763">
        <ele>71.847944</ele>
        <time>2022-12-10T16:20:26.264Z</time>
      </trkpt>
      <trkpt lat="48.17372" lon="-3.92759">
        <ele>71.84973</ele>
        <time>2022-12-10T16:20:29.247Z</time>
      </trkpt>
      <trkpt lat="48.17362" lon="-3.92754">
        <ele>71.851823</ele>
        <time>2022-12-10T16:20:32.234Z</time>
      </trkpt>
      <trkpt lat="48.17354" lon="-3.92747">
        <ele>71.853618</ele>
        <time>2022-12-10T16:20:35.239Z</time>
      </trkpt>
      <trkpt lat="48.17344" lon="-3.92739">
        <ele>71.85577</ele>
        <time>2022-12-10T16:20:38.239Z</time>
      </trkpt>
      <trkpt lat="48.17334" lon="-3.92732">
        <ele>71.857842</ele>
        <time>2022-12-10T16:20:41.238Z</time>
      </trkpt>
      <trkpt lat="48.17325" lon="-3.92722">
        <ele>71.859927</ele>
        <time>2022-12-10T16:20:44.247Z</time>
      </trkpt>
      <trkpt lat="48.17317" lon="-3.92712">
        <ele>71.862043</ele>
        <time>2022-12-10T16:20:47.234Z</time>
      </trkpt>
      <trkpt lat="48.17308" lon="-3.92701">
        <ele>71.864198</ele>
        <time>2022-12-10T16:20:50.227Z</time>
      </trkpt>
      <trkpt lat="48.17301" lon="-3.92689">
        <ele>71.866201</ele>
        <time>2022-12-10T16:20:53.244Z</time>
      </trkpt>
      <trkpt lat="48.17294" lon="-3.92677">
        <ele>71.86824</ele>
        <time>2022-12-10T16:20:56.234Z</time>
      </trkpt>
      <trkpt lat="48.17286" lon="-3.92665">
        <ele>71.870455</ele>
        <time>2022-12-10T16:20:59.234Z</time>
      </trkpt>
      <trkpt lat="48.17277" lon="-3.92652">
        <ele>71.87271</ele>
        <time>2022-12-10T16:21:02.228Z</time>
      </trkpt>
      <trkpt lat="48.1727" lon="-3.92642">
        <ele>71.905077</ele>
        <time>2022-12-10T16:21:05.237Z</time>
      </trkpt>
      <trkpt lat="48.17263" lon="-3.9263">
        <ele>71.950991</ele>
        <time>2022-12-10T16:21:08.249Z</time>
      </trkpt>
      <trkpt lat="48.17256" lon="-3.92619">
        <ele>71.997443</ele>
        <time>2022-12-10T16:21:11.240Z</time>
      </trkpt>
      <trkpt lat="48.17248" lon="-3.92607">
        <ele>72.047115</ele>
        <time>2022-12-10T16:21:14.240Z</time>
      </trkpt>
      <trkpt lat="48.17241" lon="-3.92595">
        <ele>72.091785</ele>
        <time>2022-12-10T16:21:17.236Z</time>
      </trkpt>
      <trkpt lat="48.17234" lon="-3.9258">
        <ele>72.146087</ele>
        <time>2022-12-10T16:21:21.237Z</time>
      </trkpt>
      <trkpt lat="48.17228" lon="-3.92568">
        <ele>72.191384</ele>
        <time>2022-12-10T16:21:24.244Z</time>
      </trkpt>
      <trkpt lat="48.17222" lon="-3.92557">
        <ele>72.2323</ele>
        <time>2022-12-10T16:21:27.240Z</time>
      </trkpt>
      <trkpt lat="48.17216" lon="-3.92545">
        <ele>72.276051</ele>
        <time>2022-12-10T16:21:30.248Z</time>
      </trkpt>
      <trkpt lat="48.1721" lon="-3.92533">
        <ele>72.321221</ele>
        <time>2022-12-10T16:21:33.245Z</time>
      </trkpt>
      <trkpt lat="48.17205" lon="-3.92522">
        <ele>72.361353</ele>
        <time>2022-12-10T16:21:36.239Z</time>
      </trkpt>
      <trkpt lat="48.17201" lon="-3.92509">
        <ele>72.402723</ele>
        <time>2022-12-10T16:21:39.249Z</time>
      </trkpt>
      <trkpt lat="48.17198" lon="-3.92495">
        <ele>72.446511</ele>
        <time>2022-12-10T16:21:42.240Z</time>
      </trkpt>
      <trkpt lat="48.17195" lon="-3.9248">
        <ele>72.490255</ele>
        <time>2022-12-10T16:21:45.250Z</time>
      </trkpt>
      <trkpt lat="48.17194" lon="-3.92465">
        <ele>72.535927</ele>
        <time>2022-12-10T16:21:48.235Z</time>
      </trkpt>
      <trkpt lat="48.17192" lon="-3.92449">
        <ele>72.583716</ele>
        <time>2022-12-10T16:21:51.237Z</time>
      </trkpt>
      <trkpt lat="48.17192" lon="-3.92432">
        <ele>72.632842</ele>
        <time>2022-12-10T16:21:54.233Z</time>
      </trkpt>
      <trkpt lat="48.17192" lon="-3.92416">
        <ele>72.716853</ele>
        <time>2022-12-10T16:21:57.234Z</time>
      </trkpt>
      <trkpt lat="48.17193" lon="-3.924">
        <ele>72.871825</ele>
        <time>2022-12-10T16:22:00.235Z</time>
      </trkpt>
      <trkpt lat="48.17195" lon="-3.92386">
        <ele>73.021757</ele>
        <time>2022-12-10T16:22:03.237Z</time>
      </trkpt>
      <trkpt lat="48.17197" lon="-3.92372">
        <ele>73.160794</ele>
        <time>2022-12-10T16:22:06.245Z</time>
      </trkpt>
      <trkpt lat="48.17202" lon="-3.92358">
        <ele>73.319907</ele>
        <time>2022-12-10T16:22:10.236Z</time>
      </trkpt>
      <trkpt lat="48.17206" lon="-3.92345">
        <ele>73.466786</ele>
        <time>2022-12-10T16:22:13.237Z</time>
      </trkpt>
      <trkpt lat="48.17209" lon="-3.9233">
        <ele>73.620234</ele>
        <time>2022-12-10T16:22:16.238Z</time>
      </trkpt>
      <trkpt lat="48.17213" lon="-3.92316">
        <ele>73.772246</ele>
        <time>2022-12-10T16:22:19.243Z</time>
      </trkpt>
      <trkpt lat="48.17215" lon="-3.92299">
        <ele>73.941509</ele>
        <time>2022-12-10T16:22:22.233Z</time>
      </trkpt>
      <trkpt lat="48.17217" lon="-3.92283">
        <ele>74.105781</ele>
        <time>2022-12-10T16:22:25.235Z</time>
      </trkpt>
      <trkpt lat="48.17217" lon="-3.92267">
        <ele>74.267624</ele>
        <time>2022-12-10T16:22:28.247Z</time>
      </trkpt>
      <trkpt lat="48.17217" lon="-3.9225">
        <ele>74.438367</ele>
        <time>2022-12-10T16:22:31.253Z</time>
      </trkpt>
      <trkpt lat="48.17217" lon="-3.92233">
        <ele>74.601159</ele>
        <time>2022-12-10T16:22:34.237Z</time>
      </trkpt>
      <trkpt lat="48.17216" lon="-3.92219">
        <ele>74.748533</ele>
        <time>2022-12-10T16:22:37.241Z</time>
      </trkpt>
      <trkpt lat="48.17214" lon="-3.92205">
        <ele>74.886671</ele>
        <time>2022-12-10T16:22:40.242Z</time>
      </trkpt>
      <trkpt lat="48.17211" lon="-3.92191">
        <ele>75.034429</ele>
        <time>2022-12-10T16:22:43.237Z</time>
      </trkpt>
      <trkpt lat="48.17206" lon="-3.92179">
        <ele>75.179873</ele>
        <time>2022-12-10T16:22:46.234Z</time>
      </trkpt>
      <trkpt lat="48.17199" lon="-3.92169">
        <ele>75.323921</ele>
        <time>2022-12-10T16:22:49.231Z</time>
      </trkpt>
      <trkpt lat="48.17192" lon="-3.92159">
        <ele>75.406901</ele>
        <time>2022-12-10T16:22:52.232Z</time>
      </trkpt>
      <trkpt lat="48.17185" lon="-3.92148">
        <ele>75.476508</ele>
        <time>2022-12-10T16:22:55.245Z</time>
      </trkpt>
      <trkpt lat="48.1718" lon="-3.92132">
        <ele>75.556389</ele>
        <time>2022-12-10T16:22:58.233Z</time>
      </trkpt>
      <trkpt lat="48.17177" lon="-3.92114">
        <ele>75.638503</ele>
        <time>2022-12-10T16:23:01.236Z</time>
      </trkpt>
      <trkpt lat="48.17178" lon="-3.92098">
        <ele>75.710578</ele>
        <time>2022-12-10T16:23:04.230Z</time>
      </trkpt>
      <trkpt lat="48.17178" lon="-3.92082">
        <ele>75.781007</ele>
        <time>2022-12-10T16:23:07.231Z</time>
      </trkpt>
      <trkpt lat="48.1718" lon="-3.92068">
        <ele>75.84555</ele>
        <time>2022-12-10T16:23:10.255Z</time>
      </trkpt>
      <trkpt lat="48.17182" lon="-3.92054">
        <ele>75.9104</ele>
        <time>2022-12-10T16:23:13.236Z</time>
      </trkpt>
      <trkpt lat="48.17185" lon="-3.92037">
        <ele>75.987836</ele>
        <time>2022-12-10T16:23:16.237Z</time>
      </trkpt>
      <trkpt lat="48.17187" lon="-3.9202">
        <ele>76.066878</ele>
        <time>2022-12-10T16:23:19.231Z</time>
      </trkpt>
      <trkpt lat="48.1719" lon="-3.92004">
        <ele>76.141487</ele>
        <time>2022-12-10T16:23:22.234Z</time>
      </trkpt>
      <trkpt lat="48.17193" lon="-3.91989">
        <ele>76.21487</ele>
        <time>2022-12-10T16:23:25.241Z</time>
      </trkpt>
      <trkpt lat="48.17196" lon="-3.91973">
        <ele>76.286085</ele>
        <time>2022-12-10T16:23:28.246Z</time>
      </trkpt>
      <trkpt lat="48.17199" lon="-3.91957">
        <ele>76.360704</ele>
        <time>2022-12-10T16:23:31.241Z</time>
      </trkpt>
      <trkpt lat="48.17202" lon="-3.91941">
        <ele>76.436776</ele>
        <time>2022-12-10T16:23:34.234Z</time>
      </trkpt>
      <trkpt lat="48.17206" lon="-3.91925">
        <ele>76.512412</ele>
        <time>2022-12-10T16:23:37.238Z</time>
      </trkpt>
      <trkpt lat="48.1721" lon="-3.9191">
        <ele>76.604611</ele>
        <time>2022-12-10T16:23:40.247Z</time>
      </trkpt>
      <trkpt lat="48.17213" lon="-3.91894">
        <ele>76.768388</ele>
        <time>2022-12-10T16:23:43.248Z</time>
      </trkpt>
      <trkpt lat="48.17217" lon="-3.91878">
        <ele>76.934004</ele>
        <time>2022-12-10T16:23:46.240Z</time>
      </trkpt>
      <trkpt lat="48.1722" lon="-3.91861">
        <ele>77.102904</ele>
        <time>2022-12-10T16:23:49.238Z</time>
      </trkpt>
      <trkpt lat="48.17224" lon="-3.91845">
        <ele>77.272771</ele>
        <time>2022-12-10T16:23:52.235Z</time>
      </trkpt>
      <trkpt lat="48.17228" lon="-3.91829">
        <ele>77.443298</ele>
        <time>2022-12-10T16:23:55.238Z</time>
      </trkpt>
      <trkpt lat="48.17234" lon="-3.91813">
        <ele>77.61627</ele>
        <time>2022-12-10T16:23:58.242Z</time>
      </trkpt>
      <trkpt lat="48.17239" lon="-3.91798">
        <ele>77.787123</ele>
        <time>2022-12-10T16:24:01.249Z</time>
      </trkpt>
      <trkpt lat="48.17245" lon="-3.91783">
        <ele>77.950749</ele>
        <time>2022-12-10T16:24:04.239Z</time>
      </trkpt>
      <trkpt lat="48.1725" lon="-3.91771">
        <ele>78.090034</ele>
        <time>2022-12-10T16:24:07.241Z</time>
      </trkpt>
      <trkpt lat="48.17256" lon="-3.9176">
        <ele>78.234381</ele>
        <time>2022-12-10T16:24:10.235Z</time>
      </trkpt>
      <trkpt lat="48.17263" lon="-3.91748">
        <ele>78.385577</ele>
        <time>2022-12-10T16:24:13.245Z</time>
      </trkpt>
      <trkpt lat="48.1727" lon="-3.91736">
        <ele>78.54247</ele>
        <time>2022-12-10T16:24:16.240Z</time>
      </trkpt>
      <trkpt lat="48.17277" lon="-3.91725">
        <ele>78.689762</ele>
        <time>2022-12-10T16:24:19.244Z</time>
      </trkpt>
      <trkpt lat="48.17284" lon="-3.91715">
        <ele>78.836944</ele>
        <time>2022-12-10T16:24:22.232Z</time>
      </trkpt>
      <trkpt lat="48.17292" lon="-3.91705">
        <ele>78.984311</ele>
        <time>2022-12-10T16:24:25.245Z</time>
      </trkpt>
      <trkpt lat="48.173" lon="-3.91695">
        <ele>79.13818</ele>
        <time>2022-12-10T16:24:28.234Z</time>
      </trkpt>
      <trkpt lat="48.17309" lon="-3.91686">
        <ele>79.214669</ele>
        <time>2022-12-10T16:24:31.242Z</time>
      </trkpt>
      <trkpt lat="48.17318" lon="-3.91677">
        <ele>79.220362</ele>
        <time>2022-12-10T16:24:34.234Z</time>
      </trkpt>
      <trkpt lat="48.17327" lon="-3.91669">
        <ele>79.225896</ele>
        <time>2022-12-10T16:24:37.250Z</time>
      </trkpt>
      <trkpt lat="48.17336" lon="-3.91663">
        <ele>79.231441</ele>
        <time>2022-12-10T16:24:40.229Z</time>
      </trkpt>
      <trkpt lat="48.17345" lon="-3.91657">
        <ele>79.23667</ele>
        <time>2022-12-10T16:24:43.236Z</time>
      </trkpt>
      <trkpt lat="48.17356" lon="-3.91652">
        <ele>79.242721</ele>
        <time>2022-12-10T16:24:46.258Z</time>
      </trkpt>
      <trkpt lat="48.17366" lon="-3.91647">
        <ele>79.248173</ele>
        <time>2022-12-10T16:24:49.236Z</time>
      </trkpt>
      <trkpt lat="48.17376" lon="-3.91643">
        <ele>79.254161</ele>
        <time>2022-12-10T16:24:52.268Z</time>
      </trkpt>
      <trkpt lat="48.17387" lon="-3.91636">
        <ele>79.26035</ele>
        <time>2022-12-10T16:24:55.242Z</time>
      </trkpt>
      <trkpt lat="48.17396" lon="-3.91629">
        <ele>79.266045</ele>
        <time>2022-12-10T16:24:58.237Z</time>
      </trkpt>
      <trkpt lat="48.17405" lon="-3.91622">
        <ele>79.271533</ele>
        <time>2022-12-10T16:25:01.225Z</time>
      </trkpt>
      <trkpt lat="48.17414" lon="-3.91615">
        <ele>79.277035</ele>
        <time>2022-12-10T16:25:04.243Z</time>
      </trkpt>
      <trkpt lat="48.17424" lon="-3.91607">
        <ele>79.282656</ele>
        <time>2022-12-10T16:25:07.233Z</time>
      </trkpt>
      <trkpt lat="48.17433" lon="-3.91599">
        <ele>79.288612</ele>
        <time>2022-12-10T16:25:10.239Z</time>
      </trkpt>
      <trkpt lat="48.17443" lon="-3.91591">
        <ele>79.294556</ele>
        <time>2022-12-10T16:25:13.233Z</time>
      </trkpt>
      <trkpt lat="48.17452" lon="-3.91583">
        <ele>79.300259</ele>
        <time>2022-12-10T16:25:16.240Z</time>
      </trkpt>
      <trkpt lat="48.17461" lon="-3.91575">
        <ele>79.305971</ele>
        <time>2022-12-10T16:25:19.235Z</time>
      </trkpt>
      <trkpt lat="48.17469" lon="-3.91568">
        <ele>79.273341</ele>
        <time>2022-12-10T16:25:22.234Z</time>
      </trkpt>
      <trkpt lat="48.17478" lon="-3.9156">
        <ele>79.209567</ele>
        <time>2022-12-10T16:25:25.243Z</time>
      </trkpt>
      <trkpt lat="48.17487" lon="-3.91551">
        <ele>79.141267</ele>
        <time>2022-12-10T16:25:28.236Z</time>
      </trkpt>
      <trkpt lat="48.17495" lon="-3.9154">
        <ele>79.076585</ele>
        <time>2022-12-10T16:25:31.236Z</time>
      </trkpt>
      <trkpt lat="48.17502" lon="-3.91529">
        <ele>79.013571</ele>
        <time>2022-12-10T16:25:34.227Z</time>
      </trkpt>
      <trkpt lat="48.17509" lon="-3.91517">
        <ele>78.94789</ele>
        <time>2022-12-10T16:25:37.256Z</time>
      </trkpt>
      <trkpt lat="48.17516" lon="-3.91506">
        <ele>78.883237</ele>
        <time>2022-12-10T16:25:40.235Z</time>
      </trkpt>
      <trkpt lat="48.17522" lon="-3.91495">
        <ele>78.826617</ele>
        <time>2022-12-10T16:25:43.233Z</time>
      </trkpt>
      <trkpt lat="48.17529" lon="-3.91482">
        <ele>78.756597</ele>
        <time>2022-12-10T16:25:47.247Z</time>
      </trkpt>
      <trkpt lat="48.17537" lon="-3.91469">
        <ele>78.684098</ele>
        <time>2022-12-10T16:25:51.230Z</time>
      </trkpt>
      <trkpt lat="48.17544" lon="-3.91458">
        <ele>78.622836</ele>
        <time>2022-12-10T16:25:54.231Z</time>
      </trkpt>
      <trkpt lat="48.17551" lon="-3.91447">
        <ele>78.558698</ele>
        <time>2022-12-10T16:25:57.242Z</time>
      </trkpt>
      <trkpt lat="48.17558" lon="-3.91435">
        <ele>78.49538</ele>
        <time>2022-12-10T16:26:00.238Z</time>
      </trkpt>
      <trkpt lat="48.17565" lon="-3.91423">
        <ele>78.429493</ele>
        <time>2022-12-10T16:26:03.240Z</time>
      </trkpt>
      <trkpt lat="48.17572" lon="-3.91411">
        <ele>78.361137</ele>
        <time>2022-12-10T16:26:06.237Z</time>
      </trkpt>
      <trkpt lat="48.17579" lon="-3.91398">
        <ele>78.291533</ele>
        <time>2022-12-10T16:26:09.228Z</time>
      </trkpt>
      <trkpt lat="48.17586" lon="-3.91386">
        <ele>78.224935</ele>
        <time>2022-12-10T16:26:12.234Z</time>
      </trkpt>
      <trkpt lat="48.17592" lon="-3.91373">
        <ele>78.16055</ele>
        <time>2022-12-10T16:26:15.238Z</time>
      </trkpt>
      <trkpt lat="48.17598" lon="-3.91361">
        <ele>78.094488</ele>
        <time>2022-12-10T16:26:18.232Z</time>
      </trkpt>
      <trkpt lat="48.17604" lon="-3.91348">
        <ele>78.027746</ele>
        <time>2022-12-10T16:26:21.242Z</time>
      </trkpt>
      <trkpt lat="48.1761" lon="-3.91336">
        <ele>77.960916</ele>
        <time>2022-12-10T16:26:24.242Z</time>
      </trkpt>
      <trkpt lat="48.17617" lon="-3.91324">
        <ele>77.890441</ele>
        <time>2022-12-10T16:26:27.234Z</time>
      </trkpt>
      <trkpt lat="48.17624" lon="-3.91311">
        <ele>77.820138</ele>
        <time>2022-12-10T16:26:30.246Z</time>
      </trkpt>
      <trkpt lat="48.17631" lon="-3.91299">
        <ele>77.751065</ele>
        <time>2022-12-10T16:26:33.237Z</time>
      </trkpt>
      <trkpt lat="48.17638" lon="-3.91287">
        <ele>77.684985</ele>
        <time>2022-12-10T16:26:36.239Z</time>
      </trkpt>
      <trkpt lat="48.17644" lon="-3.91275">
        <ele>77.621341</ele>
        <time>2022-12-10T16:26:39.250Z</time>
      </trkpt>
      <trkpt lat="48.1765" lon="-3.91263">
        <ele>77.553386</ele>
        <time>2022-12-10T16:26:42.230Z</time>
      </trkpt>
      <trkpt lat="48.17657" lon="-3.91249">
        <ele>77.479808</ele>
        <time>2022-12-10T16:26:45.247Z</time>
      </trkpt>
      <trkpt lat="48.17664" lon="-3.91235">
        <ele>77.40401</ele>
        <time>2022-12-10T16:26:48.239Z</time>
      </trkpt>
      <trkpt lat="48.17671" lon="-3.91221">
        <ele>77.328977</ele>
        <time>2022-12-10T16:26:51.237Z</time>
      </trkpt>
      <trkpt lat="48.17677" lon="-3.91207">
        <ele>77.256491</ele>
        <time>2022-12-10T16:26:54.234Z</time>
      </trkpt>
      <trkpt lat="48.17683" lon="-3.91193">
        <ele>77.187969</ele>
        <time>2022-12-10T16:26:57.236Z</time>
      </trkpt>
      <trkpt lat="48.17688" lon="-3.9118">
        <ele>77.12069</ele>
        <time>2022-12-10T16:27:00.238Z</time>
      </trkpt>
      <trkpt lat="48.17693" lon="-3.91167">
        <ele>77.055979</ele>
        <time>2022-12-10T16:27:03.248Z</time>
      </trkpt>
      <trkpt lat="48.17697" lon="-3.91152">
        <ele>77.031352</ele>
        <time>2022-12-10T16:27:06.239Z</time>
      </trkpt>
      <trkpt lat="48.17703" lon="-3.91136">
        <ele>77.032954</ele>
        <time>2022-12-10T16:27:09.242Z</time>
      </trkpt>
      <trkpt lat="48.17709" lon="-3.91121">
        <ele>77.034454</ele>
        <time>2022-12-10T16:27:12.251Z</time>
      </trkpt>
      <trkpt lat="48.17714" lon="-3.91106">
        <ele>77.035947</ele>
        <time>2022-12-10T16:27:15.241Z</time>
      </trkpt>
      <trkpt lat="48.1772" lon="-3.91091">
        <ele>77.037442</ele>
        <time>2022-12-10T16:27:18.242Z</time>
      </trkpt>
      <trkpt lat="48.17726" lon="-3.91076">
        <ele>77.038997</ele>
        <time>2022-12-10T16:27:21.236Z</time>
      </trkpt>
      <trkpt lat="48.17732" lon="-3.9106">
        <ele>77.040595</ele>
        <time>2022-12-10T16:27:24.240Z</time>
      </trkpt>
      <trkpt lat="48.17739" lon="-3.91045">
        <ele>77.042163</ele>
        <time>2022-12-10T16:27:27.236Z</time>
      </trkpt>
      <trkpt lat="48.17745" lon="-3.91031">
        <ele>77.043694</ele>
        <time>2022-12-10T16:27:30.235Z</time>
      </trkpt>
      <trkpt lat="48.17753" lon="-3.91017">
        <ele>77.04523</ele>
        <time>2022-12-10T16:27:33.244Z</time>
      </trkpt>
      <trkpt lat="48.1776" lon="-3.91004">
        <ele>77.046748</ele>
        <time>2022-12-10T16:27:36.237Z</time>
      </trkpt>
      <trkpt lat="48.17768" lon="-3.90991">
        <ele>77.048231</ele>
        <time>2022-12-10T16:27:39.235Z</time>
      </trkpt>
      <trkpt lat="48.17775" lon="-3.90979">
        <ele>77.049712</ele>
        <time>2022-12-10T16:27:42.238Z</time>
      </trkpt>
      <trkpt lat="48.17783" lon="-3.90968">
        <ele>77.051151</ele>
        <time>2022-12-10T16:27:45.237Z</time>
      </trkpt>
      <trkpt lat="48.17791" lon="-3.90957">
        <ele>77.052548</ele>
        <time>2022-12-10T16:27:48.234Z</time>
      </trkpt>
      <trkpt lat="48.178" lon="-3.90947">
        <ele>77.054031</ele>
        <time>2022-12-10T16:27:51.234Z</time>
      </trkpt>
      <trkpt lat="48.17809" lon="-3.90937">
        <ele>77.117711</ele>
        <time>2022-12-10T16:27:54.239Z</time>
      </trkpt>
      <trkpt lat="48.17818" lon="-3.90927">
        <ele>77.183746</ele>
        <time>2022-12-10T16:27:57.239Z</time>
      </trkpt>
      <trkpt lat="48.17827" lon="-3.90916">
        <ele>77.252157</ele>
        <time>2022-12-10T16:28:00.240Z</time>
      </trkpt>
      <trkpt lat="48.17837" lon="-3.90907">
        <ele>77.320893</ele>
        <time>2022-12-10T16:28:03.242Z</time>
      </trkpt>
      <trkpt lat="48.17846" lon="-3.90897">
        <ele>77.387488</ele>
        <time>2022-12-10T16:28:06.255Z</time>
      </trkpt>
      <trkpt lat="48.17856" lon="-3.90887">
        <ele>77.457159</ele>
        <time>2022-12-10T16:28:09.239Z</time>
      </trkpt>
      <trkpt lat="48.17866" lon="-3.90877">
        <ele>77.529685</ele>
        <time>2022-12-10T16:28:12.237Z</time>
      </trkpt>
      <trkpt lat="48.17876" lon="-3.90869">
        <ele>77.600206</ele>
        <time>2022-12-10T16:28:15.235Z</time>
      </trkpt>
      <trkpt lat="48.17886" lon="-3.90861">
        <ele>77.664481</ele>
        <time>2022-12-10T16:28:18.233Z</time>
      </trkpt>
      <trkpt lat="48.17895" lon="-3.90854">
        <ele>77.729108</ele>
        <time>2022-12-10T16:28:21.242Z</time>
      </trkpt>
      <trkpt lat="48.17905" lon="-3.90846">
        <ele>77.796975</ele>
        <time>2022-12-10T16:28:24.239Z</time>
      </trkpt>
      <trkpt lat="48.17915" lon="-3.90836">
        <ele>77.864283</ele>
        <time>2022-12-10T16:28:27.240Z</time>
      </trkpt>
      <trkpt lat="48.17924" lon="-3.90827">
        <ele>77.928516</ele>
        <time>2022-12-10T16:28:30.228Z</time>
      </trkpt>
      <trkpt lat="48.17932" lon="-3.90817">
        <ele>77.992234</ele>
        <time>2022-12-10T16:28:33.246Z</time>
      </trkpt>
      <trkpt lat="48.17941" lon="-3.90805">
        <ele>78.062154</ele>
        <time>2022-12-10T16:28:36.236Z</time>
      </trkpt>
      <trkpt lat="48.17949" lon="-3.90794">
        <ele>78.1214</ele>
        <time>2022-12-10T16:28:39.240Z</time>
      </trkpt>
      <trkpt lat="48.17958" lon="-3.90784">
        <ele>78.114676</ele>
        <time>2022-12-10T16:28:42.255Z</time>
      </trkpt>
      <trkpt lat="48.17966" lon="-3.90776">
        <ele>78.108523</ele>
        <time>2022-12-10T16:28:45.238Z</time>
      </trkpt>
      <trkpt lat="48.17974" lon="-3.90768">
        <ele>78.102478</ele>
        <time>2022-12-10T16:28:48.237Z</time>
      </trkpt>
      <trkpt lat="48.17983" lon="-3.90759">
        <ele>78.096164</ele>
        <time>2022-12-10T16:28:52.232Z</time>
      </trkpt>
      <trkpt lat="48.17993" lon="-3.90752">
        <ele>78.089378</ele>
        <time>2022-12-10T16:29:19.249Z</time>
      </trkpt>
      <trkpt lat="48.18001" lon="-3.90742">
        <ele>78.0829</ele>
        <time>2022-12-10T16:29:25.241Z</time>
      </trkpt>
      <trkpt lat="48.18008" lon="-3.90735">
        <ele>78.077206</ele>
        <time>2022-12-10T16:29:29.235Z</time>
      </trkpt>
      <trkpt lat="48.18017" lon="-3.90727">
        <ele>78.071227</ele>
        <time>2022-12-10T16:29:32.243Z</time>
      </trkpt>
      <trkpt lat="48.18025" lon="-3.90719">
        <ele>78.064845</ele>
        <time>2022-12-10T16:29:35.235Z</time>
      </trkpt>
      <trkpt lat="48.18034" lon="-3.9071">
        <ele>78.058187</ele>
        <time>2022-12-10T16:29:38.234Z</time>
      </trkpt>
      <trkpt lat="48.18043" lon="-3.90701">
        <ele>78.051836</ele>
        <time>2022-12-10T16:29:41.240Z</time>
      </trkpt>
      <trkpt lat="48.18051" lon="-3.90692">
        <ele>78.045555</ele>
        <time>2022-12-10T16:29:44.239Z</time>
      </trkpt>
      <trkpt lat="48.18059" lon="-3.90683">
        <ele>78.038955</ele>
        <time>2022-12-10T16:29:47.231Z</time>
      </trkpt>
      <trkpt lat="48.18067" lon="-3.90674">
        <ele>78.033068</ele>
        <time>2022-12-10T16:29:50.247Z</time>
      </trkpt>
      <trkpt lat="48.18075" lon="-3.90664">
        <ele>78.026787</ele>
        <time>2022-12-10T16:29:53.242Z</time>
      </trkpt>
      <trkpt lat="48.18083" lon="-3.90654">
        <ele>78.020184</ele>
        <time>2022-12-10T16:29:56.244Z</time>
      </trkpt>
      <trkpt lat="48.18091" lon="-3.90644">
        <ele>78.013554</ele>
        <time>2022-12-10T16:29:59.235Z</time>
      </trkpt>
      <trkpt lat="48.18099" lon="-3.90631">
        <ele>77.987754</ele>
        <time>2022-12-10T16:30:02.248Z</time>
      </trkpt>
      <trkpt lat="48.18106" lon="-3.90617">
        <ele>77.948381</ele>
        <time>2022-12-10T16:30:05.246Z</time>
      </trkpt>
      <trkpt lat="48.18112" lon="-3.90604">
        <ele>77.91179</ele>
        <time>2022-12-10T16:30:08.238Z</time>
      </trkpt>
      <trkpt lat="48.18118" lon="-3.9059">
        <ele>77.874875</ele>
        <time>2022-12-10T16:30:11.256Z</time>
      </trkpt>
      <trkpt lat="48.18124" lon="-3.90577">
        <ele>77.840933</ele>
        <time>2022-12-10T16:30:14.238Z</time>
      </trkpt>
      <trkpt lat="48.18129" lon="-3.90565">
        <ele>77.808866</ele>
        <time>2022-12-10T16:30:17.256Z</time>
      </trkpt>
      <trkpt lat="48.18134" lon="-3.90553">
        <ele>77.777486</ele>
        <time>2022-12-10T16:30:20.233Z</time>
      </trkpt>
      <trkpt lat="48.18138" lon="-3.90538">
        <ele>77.740202</ele>
        <time>2022-12-10T16:30:23.241Z</time>
      </trkpt>
      <trkpt lat="48.1814" lon="-3.9052">
        <ele>77.699311</ele>
        <time>2022-12-10T16:30:26.241Z</time>
      </trkpt>
      <trkpt lat="48.18141" lon="-3.90502">
        <ele>77.659373</ele>
        <time>2022-12-10T16:30:29.238Z</time>
      </trkpt>
      <trkpt lat="48.18139" lon="-3.90487">
        <ele>77.625742</ele>
        <time>2022-12-10T16:30:32.238Z</time>
      </trkpt>
      <trkpt lat="48.18139" lon="-3.90473">
        <ele>77.594702</ele>
        <time>2022-12-10T16:30:35.231Z</time>
      </trkpt>
      <trkpt lat="48.18137" lon="-3.90458">
        <ele>77.56014</ele>
        <time>2022-12-10T16:30:38.239Z</time>
      </trkpt>
      <trkpt lat="48.18135" lon="-3.90444">
        <ele>77.528917</ele>
        <time>2022-12-10T16:30:41.246Z</time>
      </trkpt>
      <trkpt lat="48.18131" lon="-3.9043">
        <ele>77.494545</ele>
        <time>2022-12-10T16:30:44.234Z</time>
      </trkpt>
      <trkpt lat="48.18127" lon="-3.90415">
        <ele>77.458013</ele>
        <time>2022-12-10T16:30:47.242Z</time>
      </trkpt>
      <trkpt lat="48.18122" lon="-3.904">
        <ele>77.421016</ele>
        <time>2022-12-10T16:30:50.253Z</time>
      </trkpt>
      <trkpt lat="48.18117" lon="-3.90384">
        <ele>77.731673</ele>
        <time>2022-12-10T16:30:53.253Z</time>
      </trkpt>
      <trkpt lat="48.18111" lon="-3.90368">
        <ele>78.265171</ele>
        <time>2022-12-10T16:30:56.243Z</time>
      </trkpt>
      <trkpt lat="48.18106" lon="-3.90354">
        <ele>78.727152</ele>
        <time>2022-12-10T16:30:59.248Z</time>
      </trkpt>
      <trkpt lat="48.18101" lon="-3.90341">
        <ele>79.160418</ele>
        <time>2022-12-10T16:31:02.244Z</time>
      </trkpt>
      <trkpt lat="48.18096" lon="-3.90326">
        <ele>79.641976</ele>
        <time>2022-12-10T16:31:05.246Z</time>
      </trkpt>
      <trkpt lat="48.18091" lon="-3.90313">
        <ele>80.091086</ele>
        <time>2022-12-10T16:31:08.235Z</time>
      </trkpt>
      <trkpt lat="48.18087" lon="-3.903">
        <ele>80.513174</ele>
        <time>2022-12-10T16:31:11.229Z</time>
      </trkpt>
      <trkpt lat="48.18082" lon="-3.90286">
        <ele>80.965871</ele>
        <time>2022-12-10T16:31:14.233Z</time>
      </trkpt>
      <trkpt lat="48.18076" lon="-3.90271">
        <ele>81.465684</ele>
        <time>2022-12-10T16:31:17.258Z</time>
      </trkpt>
      <trkpt lat="48.1807" lon="-3.90258">
        <ele>81.938571</ele>
        <time>2022-12-10T16:31:20.241Z</time>
      </trkpt>
      <trkpt lat="48.1806" lon="-3.90245">
        <ele>82.504076</ele>
        <time>2022-12-10T16:31:23.242Z</time>
      </trkpt>
      <trkpt lat="48.18054" lon="-3.90228">
        <ele>83.064575</ele>
        <time>2022-12-10T16:31:26.238Z</time>
      </trkpt>
      <trkpt lat="48.18047" lon="-3.90213">
        <ele>83.58106</ele>
        <time>2022-12-10T16:31:29.254Z</time>
      </trkpt>
      <trkpt lat="48.18042" lon="-3.90199">
        <ele>84.053897</ele>
        <time>2022-12-10T16:31:32.239Z</time>
      </trkpt>
      <trkpt lat="48.18036" lon="-3.90185">
        <ele>84.533201</ele>
        <time>2022-12-10T16:31:35.241Z</time>
      </trkpt>
      <trkpt lat="48.1803" lon="-3.9017">
        <ele>85.039718</ele>
        <time>2022-12-10T16:31:38.236Z</time>
      </trkpt>
      <trkpt lat="48.18025" lon="-3.90154">
        <ele>84.890038</ele>
        <time>2022-12-10T16:31:41.239Z</time>
      </trkpt>
      <trkpt lat="48.18022" lon="-3.90138">
        <ele>84.41404</ele>
        <time>2022-12-10T16:31:44.243Z</time>
      </trkpt>
      <trkpt lat="48.18018" lon="-3.90122">
        <ele>83.904069</ele>
        <time>2022-12-10T16:31:47.242Z</time>
      </trkpt>
      <trkpt lat="48.18013" lon="-3.90105">
        <ele>83.383055</ele>
        <time>2022-12-10T16:31:50.254Z</time>
      </trkpt>
      <trkpt lat="48.18009" lon="-3.9009">
        <ele>82.887592</ele>
        <time>2022-12-10T16:31:53.244Z</time>
      </trkpt>
      <trkpt lat="48.18004" lon="-3.90075">
        <ele>82.401359</ele>
        <time>2022-12-10T16:31:56.234Z</time>
      </trkpt>
      <trkpt lat="48.18" lon="-3.90059">
        <ele>81.906115</ele>
        <time>2022-12-10T16:31:59.246Z</time>
      </trkpt>
      <trkpt lat="48.17995" lon="-3.90044">
        <ele>81.403844</ele>
        <time>2022-12-10T16:32:02.241Z</time>
      </trkpt>
      <trkpt lat="48.1799" lon="-3.90028">
        <ele>80.905128</ele>
        <time>2022-12-10T16:32:05.243Z</time>
      </trkpt>
      <trkpt lat="48.17986" lon="-3.90013">
        <ele>80.409983</ele>
        <time>2022-12-10T16:32:08.235Z</time>
      </trkpt>
      <trkpt lat="48.17981" lon="-3.89998">
        <ele>79.918126</ele>
        <time>2022-12-10T16:32:11.243Z</time>
      </trkpt>
      <trkpt lat="48.17976" lon="-3.89983">
        <ele>79.442522</ele>
        <time>2022-12-10T16:32:14.237Z</time>
      </trkpt>
      <trkpt lat="48.17972" lon="-3.89968">
        <ele>78.972073</ele>
        <time>2022-12-10T16:32:17.237Z</time>
      </trkpt>
      <trkpt lat="48.17968" lon="-3.89953">
        <ele>78.503663</ele>
        <time>2022-12-10T16:32:20.249Z</time>
      </trkpt>
      <trkpt lat="48.17964" lon="-3.89939">
        <ele>78.035224</ele>
        <time>2022-12-10T16:32:23.242Z</time>
      </trkpt>
      <trkpt lat="48.17959" lon="-3.89924">
        <ele>77.559696</ele>
        <time>2022-12-10T16:32:26.255Z</time>
      </trkpt>
      <trkpt lat="48.17955" lon="-3.89909">
        <ele>77.34107</ele>
        <time>2022-12-10T16:32:29.240Z</time>
      </trkpt>
      <trkpt lat="48.17951" lon="-3.89894">
        <ele>77.373401</ele>
        <time>2022-12-10T16:32:32.244Z</time>
      </trkpt>
      <trkpt lat="48.17946" lon="-3.89879">
        <ele>77.40668</ele>
        <time>2022-12-10T16:32:35.233Z</time>
      </trkpt>
      <trkpt lat="48.17941" lon="-3.89865">
        <ele>77.439379</ele>
        <time>2022-12-10T16:32:38.242Z</time>
      </trkpt>
      <trkpt lat="48.17937" lon="-3.89851">
        <ele>77.469377</ele>
        <time>2022-12-10T16:32:41.259Z</time>
      </trkpt>
      <trkpt lat="48.17932" lon="-3.89836">
        <ele>77.502881</ele>
        <time>2022-12-10T16:32:44.237Z</time>
      </trkpt>
      <trkpt lat="48.17928" lon="-3.89822">
        <ele>77.533499</ele>
        <time>2022-12-10T16:32:47.247Z</time>
      </trkpt>
      <trkpt lat="48.17924" lon="-3.89807">
        <ele>77.565903</ele>
        <time>2022-12-10T16:32:50.239Z</time>
      </trkpt>
      <trkpt lat="48.1792" lon="-3.89793">
        <ele>77.595683</ele>
        <time>2022-12-10T16:32:53.240Z</time>
      </trkpt>
      <trkpt lat="48.17916" lon="-3.89779">
        <ele>77.627698</ele>
        <time>2022-12-10T16:32:57.238Z</time>
      </trkpt>
      <trkpt lat="48.17912" lon="-3.89766">
        <ele>77.656415</ele>
        <time>2022-12-10T16:33:01.233Z</time>
      </trkpt>
      <trkpt lat="48.17907" lon="-3.8975">
        <ele>77.690752</ele>
        <time>2022-12-10T16:33:05.241Z</time>
      </trkpt>
      <trkpt lat="48.17903" lon="-3.89735">
        <ele>77.722351</ele>
        <time>2022-12-10T16:33:08.252Z</time>
      </trkpt>
      <trkpt lat="48.17899" lon="-3.8972">
        <ele>77.754755</ele>
        <time>2022-12-10T16:33:11.241Z</time>
      </trkpt>
      <trkpt lat="48.17895" lon="-3.89705">
        <ele>77.788915</ele>
        <time>2022-12-10T16:33:14.238Z</time>
      </trkpt>
      <trkpt lat="48.1789" lon="-3.89688">
        <ele>77.825212</ele>
        <time>2022-12-10T16:33:17.254Z</time>
      </trkpt>
      <trkpt lat="48.17884" lon="-3.89673">
        <ele>77.859842</ele>
        <time>2022-12-10T16:33:20.248Z</time>
      </trkpt>
      <trkpt lat="48.17878" lon="-3.89659">
        <ele>77.856795</ele>
        <time>2022-12-10T16:33:23.237Z</time>
      </trkpt>
      <trkpt lat="48.17874" lon="-3.89646">
        <ele>77.847411</ele>
        <time>2022-12-10T16:33:26.241Z</time>
      </trkpt>
      <trkpt lat="48.17868" lon="-3.89632">
        <ele>77.837248</ele>
        <time>2022-12-10T16:33:29.242Z</time>
      </trkpt>
      <trkpt lat="48.17862" lon="-3.89619">
        <ele>77.827086</ele>
        <time>2022-12-10T16:33:32.235Z</time>
      </trkpt>
      <trkpt lat="48.17856" lon="-3.89606">
        <ele>77.817493</ele>
        <time>2022-12-10T16:33:35.234Z</time>
      </trkpt>
      <trkpt lat="48.17852" lon="-3.89594">
        <ele>77.808995</ele>
        <time>2022-12-10T16:33:38.239Z</time>
      </trkpt>
      <trkpt lat="48.17846" lon="-3.89583">
        <ele>77.800448</ele>
        <time>2022-12-10T16:33:41.245Z</time>
      </trkpt>
      <trkpt lat="48.17839" lon="-3.89569">
        <ele>77.789308</ele>
        <time>2022-12-10T16:33:44.244Z</time>
      </trkpt>
      <trkpt lat="48.17833" lon="-3.89557">
        <ele>77.779527</ele>
        <time>2022-12-10T16:33:47.239Z</time>
      </trkpt>
      <trkpt lat="48.17826" lon="-3.89544">
        <ele>77.76952</ele>
        <time>2022-12-10T16:33:50.258Z</time>
      </trkpt>
      <trkpt lat="48.1782" lon="-3.89531">
        <ele>77.758965</ele>
        <time>2022-12-10T16:33:53.244Z</time>
      </trkpt>
      <trkpt lat="48.17813" lon="-3.89518">
        <ele>77.748802</ele>
        <time>2022-12-10T16:33:56.241Z</time>
      </trkpt>
      <trkpt lat="48.17806" lon="-3.89506">
        <ele>77.739094</ele>
        <time>2022-12-10T16:33:59.240Z</time>
      </trkpt>
      <trkpt lat="48.178" lon="-3.89494">
        <ele>77.729783</ele>
        <time>2022-12-10T16:34:02.241Z</time>
      </trkpt>
      <trkpt lat="48.17794" lon="-3.89482">
        <ele>77.720159</ele>
        <time>2022-12-10T16:34:05.257Z</time>
      </trkpt>
      <trkpt lat="48.17787" lon="-3.8947">
        <ele>77.709908</ele>
        <time>2022-12-10T16:34:08.240Z</time>
      </trkpt>
      <trkpt lat="48.1778" lon="-3.89458">
        <ele>77.699813</ele>
        <time>2022-12-10T16:34:11.241Z</time>
      </trkpt>
      <trkpt lat="48.17772" lon="-3.89445">
        <ele>77.656989</ele>
        <time>2022-12-10T16:34:14.249Z</time>
      </trkpt>
      <trkpt lat="48.17765" lon="-3.89433">
        <ele>77.600707</ele>
        <time>2022-12-10T16:34:17.249Z</time>
      </trkpt>
      <trkpt lat="48.17759" lon="-3.89423">
        <ele>77.552371</ele>
        <time>2022-12-10T16:34:20.242Z</time>
      </trkpt>
      <trkpt lat="48.17751" lon="-3.89409">
        <ele>77.490479</ele>
        <time>2022-12-10T16:34:24.248Z</time>
      </trkpt>
      <trkpt lat="48.17744" lon="-3.89398">
        <ele>77.440069</ele>
        <time>2022-12-10T16:34:27.232Z</time>
      </trkpt>
      <trkpt lat="48.17736" lon="-3.89385">
        <ele>77.377835</ele>
        <time>2022-12-10T16:34:31.252Z</time>
      </trkpt>
      <trkpt lat="48.1773" lon="-3.89374">
        <ele>77.328031</ele>
        <time>2022-12-10T16:34:34.235Z</time>
      </trkpt>
      <trkpt lat="48.17723" lon="-3.89363">
        <ele>77.274775</ele>
        <time>2022-12-10T16:34:37.244Z</time>
      </trkpt>
      <trkpt lat="48.17716" lon="-3.89352">
        <ele>77.222292</ele>
        <time>2022-12-10T16:34:40.238Z</time>
      </trkpt>
      <trkpt lat="48.1771" lon="-3.89341">
        <ele>77.17118</ele>
        <time>2022-12-10T16:34:43.250Z</time>
      </trkpt>
      <trkpt lat="48.17703" lon="-3.8933">
        <ele>77.117635</ele>
        <time>2022-12-10T16:34:46.238Z</time>
      </trkpt>
      <trkpt lat="48.17696" lon="-3.89318">
        <ele>77.062565</ele>
        <time>2022-12-10T16:34:49.241Z</time>
      </trkpt>
      <trkpt lat="48.17689" lon="-3.89307">
        <ele>77.00973</ele>
        <time>2022-12-10T16:34:52.257Z</time>
      </trkpt>
      <trkpt lat="48.17681" lon="-3.89295">
        <ele>76.953246</ele>
        <time>2022-12-10T16:34:55.245Z</time>
      </trkpt>
      <trkpt lat="48.17675" lon="-3.89282">
        <ele>76.897499</ele>
        <time>2022-12-10T16:34:58.238Z</time>
      </trkpt>
      <trkpt lat="48.1767" lon="-3.8927">
        <ele>76.848332</ele>
        <time>2022-12-10T16:35:01.238Z</time>
      </trkpt>
      <trkpt lat="48.17665" lon="-3.89257">
        <ele>76.79775</ele>
        <time>2022-12-10T16:35:04.237Z</time>
      </trkpt>
      <trkpt lat="48.17661" lon="-3.89244">
        <ele>76.775164</ele>
        <time>2022-12-10T16:35:07.249Z</time>
      </trkpt>
      <trkpt lat="48.17657" lon="-3.89231">
        <ele>76.816309</ele>
        <time>2022-12-10T16:35:10.238Z</time>
      </trkpt>
      <trkpt lat="48.17653" lon="-3.89217">
        <ele>76.863847</ele>
        <time>2022-12-10T16:35:14.255Z</time>
      </trkpt>
      <trkpt lat="48.17649" lon="-3.89201">
        <ele>76.915262</ele>
        <time>2022-12-10T16:35:18.241Z</time>
      </trkpt>
      <trkpt lat="48.17645" lon="-3.89189">
        <ele>76.956897</ele>
        <time>2022-12-10T16:35:21.243Z</time>
      </trkpt>
      <trkpt lat="48.17643" lon="-3.89175">
        <ele>77.000285</ele>
        <time>2022-12-10T16:35:24.242Z</time>
      </trkpt>
      <trkpt lat="48.17639" lon="-3.8916">
        <ele>77.048134</ele>
        <time>2022-12-10T16:35:27.244Z</time>
      </trkpt>
      <trkpt lat="48.17636" lon="-3.89146">
        <ele>77.093906</ele>
        <time>2022-12-10T16:35:30.239Z</time>
      </trkpt>
      <trkpt lat="48.17632" lon="-3.89132">
        <ele>77.139964</ele>
        <time>2022-12-10T16:35:33.235Z</time>
      </trkpt>
      <trkpt lat="48.17628" lon="-3.89117">
        <ele>77.190411</ele>
        <time>2022-12-10T16:35:37.248Z</time>
      </trkpt>
      <trkpt lat="48.17623" lon="-3.89104">
        <ele>77.233682</ele>
        <time>2022-12-10T16:35:40.240Z</time>
      </trkpt>
      <trkpt lat="48.17617" lon="-3.89092">
        <ele>77.281713</ele>
        <time>2022-12-10T16:35:43.236Z</time>
      </trkpt>
      <trkpt lat="48.17608" lon="-3.89083">
        <ele>77.327347</ele>
        <time>2022-12-10T16:35:46.237Z</time>
      </trkpt>
      <trkpt lat="48.17601" lon="-3.89074">
        <ele>77.370078</ele>
        <time>2022-12-10T16:35:49.240Z</time>
      </trkpt>
      <trkpt lat="48.17594" lon="-3.89064">
        <ele>77.414733</ele>
        <time>2022-12-10T16:35:52.241Z</time>
      </trkpt>
      <trkpt lat="48.17587" lon="-3.89053">
        <ele>77.461002</ele>
        <time>2022-12-10T16:35:55.247Z</time>
      </trkpt>
      <trkpt lat="48.17581" lon="-3.89042">
        <ele>77.504237</ele>
        <time>2022-12-10T16:35:58.241Z</time>
      </trkpt>
      <trkpt lat="48.17575" lon="-3.8903">
        <ele>77.548813</ele>
        <time>2022-12-10T16:36:01.238Z</time>
      </trkpt>
      <trkpt lat="48.17569" lon="-3.89018">
        <ele>77.64361</ele>
        <time>2022-12-10T16:36:04.244Z</time>
      </trkpt>
      <trkpt lat="48.17564" lon="-3.89006">
        <ele>77.859314</ele>
        <time>2022-12-10T16:36:07.252Z</time>
      </trkpt>
      <trkpt lat="48.17559" lon="-3.88989">
        <ele>78.129075</ele>
        <time>2022-12-10T16:36:11.246Z</time>
      </trkpt>
      <trkpt lat="48.17552" lon="-3.88977">
        <ele>78.354819</ele>
        <time>2022-12-10T16:36:14.238Z</time>
      </trkpt>
      <trkpt lat="48.17547" lon="-3.88964">
        <ele>78.579284</ele>
        <time>2022-12-10T16:36:17.249Z</time>
      </trkpt>
      <trkpt lat="48.17542" lon="-3.88951">
        <ele>78.801122</ele>
        <time>2022-12-10T16:36:20.239Z</time>
      </trkpt>
      <trkpt lat="48.17537" lon="-3.88939">
        <ele>79.007408</ele>
        <time>2022-12-10T16:36:23.243Z</time>
      </trkpt>
      <trkpt lat="48.17532" lon="-3.88926">
        <ele>79.227932</ele>
        <time>2022-12-10T16:36:26.241Z</time>
      </trkpt>
      <trkpt lat="48.17527" lon="-3.88913">
        <ele>79.444986</ele>
        <time>2022-12-10T16:36:29.237Z</time>
      </trkpt>
      <trkpt lat="48.17521" lon="-3.88899">
        <ele>79.679416</ele>
        <time>2022-12-10T16:36:33.238Z</time>
      </trkpt>
      <trkpt lat="48.17515" lon="-3.88884">
        <ele>79.941817</ele>
        <time>2022-12-10T16:36:37.244Z</time>
      </trkpt>
      <trkpt lat="48.1751" lon="-3.88872">
        <ele>80.14534</ele>
        <time>2022-12-10T16:36:40.248Z</time>
      </trkpt>
      <trkpt lat="48.17506" lon="-3.88859">
        <ele>80.360163</ele>
        <time>2022-12-10T16:36:43.256Z</time>
      </trkpt>
      <trkpt lat="48.17502" lon="-3.88846">
        <ele>80.564419</ele>
        <time>2022-12-10T16:36:46.269Z</time>
      </trkpt>
      <trkpt lat="48.17497" lon="-3.88833">
        <ele>80.790743</ele>
        <time>2022-12-10T16:36:49.239Z</time>
      </trkpt>
      <trkpt lat="48.17494" lon="-3.88819">
        <ele>81.006768</ele>
        <time>2022-12-10T16:36:52.242Z</time>
      </trkpt>
      <trkpt lat="48.1749" lon="-3.88805">
        <ele>81.235161</ele>
        <time>2022-12-10T16:36:55.261Z</time>
      </trkpt>
      <trkpt lat="48.17486" lon="-3.8879">
        <ele>81.463555</ele>
        <time>2022-12-10T16:36:58.236Z</time>
      </trkpt>
      <trkpt lat="48.17482" lon="-3.88776">
        <ele>81.700837</ele>
        <time>2022-12-10T16:37:01.245Z</time>
      </trkpt>
      <trkpt lat="48.17477" lon="-3.8876">
        <ele>81.973854</ele>
        <time>2022-12-10T16:37:05.241Z</time>
      </trkpt>
      <trkpt lat="48.17473" lon="-3.88745">
        <ele>82.233194</ele>
        <time>2022-12-10T16:37:09.236Z</time>
      </trkpt>
      <trkpt lat="48.1747" lon="-3.88728">
        <ele>82.50005</ele>
        <time>2022-12-10T16:37:13.234Z</time>
      </trkpt>
      <trkpt lat="48.17467" lon="-3.88713">
        <ele>82.757588</ele>
        <time>2022-12-10T16:37:16.252Z</time>
      </trkpt>
      <trkpt lat="48.17465" lon="-3.88698">
        <ele>82.984405</ele>
        <time>2022-12-10T16:37:19.243Z</time>
      </trkpt>
      <trkpt lat="48.17461" lon="-3.88684">
        <ele>83.234731</ele>
        <time>2022-12-10T16:37:24.237Z</time>
      </trkpt>
      <trkpt lat="48.17458" lon="-3.88671">
        <ele>83.449901</ele>
        <time>2022-12-10T16:37:28.240Z</time>
      </trkpt>
      <trkpt lat="48.17454" lon="-3.88654">
        <ele>83.721603</ele>
        <time>2022-12-10T16:37:32.238Z</time>
      </trkpt>
      <trkpt lat="48.17452" lon="-3.88638">
        <ele>83.982695</ele>
        <time>2022-12-10T16:37:36.249Z</time>
      </trkpt>
      <trkpt lat="48.17449" lon="-3.88625">
        <ele>84.200183</ele>
        <time>2022-12-10T16:37:39.244Z</time>
      </trkpt>
      <trkpt lat="48.17446" lon="-3.88612">
        <ele>84.416165</ele>
        <time>2022-12-10T16:37:42.239Z</time>
      </trkpt>
      <trkpt lat="48.17443" lon="-3.88598">
        <ele>84.647553</ele>
        <time>2022-12-10T16:37:45.240Z</time>
      </trkpt>
      <trkpt lat="48.17437" lon="-3.88582">
        <ele>84.938584</ele>
        <time>2022-12-10T16:37:49.243Z</time>
      </trkpt>
      <trkpt lat="48.17433" lon="-3.88569">
        <ele>85.15479</ele>
        <time>2022-12-10T16:37:53.240Z</time>
      </trkpt>
      <trkpt lat="48.17425" lon="-3.88554">
        <ele>85.457418</ele>
        <time>2022-12-10T16:38:44.247Z</time>
      </trkpt>
      <trkpt lat="48.1742" lon="-3.8854">
        <ele>85.704449</ele>
        <time>2022-12-10T16:38:48.237Z</time>
      </trkpt>
      <trkpt lat="48.17416" lon="-3.88527">
        <ele>85.56877</ele>
        <time>2022-12-10T16:38:51.241Z</time>
      </trkpt>
      <trkpt lat="48.17413" lon="-3.88514">
        <ele>85.29909</ele>
        <time>2022-12-10T16:38:54.237Z</time>
      </trkpt>
      <trkpt lat="48.17408" lon="-3.88502">
        <ele>85.020273</ele>
        <time>2022-12-10T16:38:57.238Z</time>
      </trkpt>
      <trkpt lat="48.17403" lon="-3.8849">
        <ele>84.753554</ele>
        <time>2022-12-10T16:39:00.237Z</time>
      </trkpt>
      <trkpt lat="48.17396" lon="-3.88475">
        <ele>84.396765</ele>
        <time>2022-12-10T16:39:04.234Z</time>
      </trkpt>
      <trkpt lat="48.1739" lon="-3.88463">
        <ele>84.101186</ele>
        <time>2022-12-10T16:39:07.236Z</time>
      </trkpt>
      <trkpt lat="48.17384" lon="-3.88451">
        <ele>83.805314</ele>
        <time>2022-12-10T16:39:10.232Z</time>
      </trkpt>
      <trkpt lat="48.17378" lon="-3.88438">
        <ele>83.499628</ele>
        <time>2022-12-10T16:39:13.240Z</time>
      </trkpt>
      <trkpt lat="48.1737" lon="-3.88425">
        <ele>83.17327</ele>
        <time>2022-12-10T16:39:16.233Z</time>
      </trkpt>
      <trkpt lat="48.17364" lon="-3.88413">
        <ele>82.868727</ele>
        <time>2022-12-10T16:39:19.237Z</time>
      </trkpt>
      <trkpt lat="48.17356" lon="-3.88402">
        <ele>82.56748</ele>
        <time>2022-12-10T16:39:22.232Z</time>
      </trkpt>
      <trkpt lat="48.17349" lon="-3.88391">
        <ele>82.26635</ele>
        <time>2022-12-10T16:39:25.239Z</time>
      </trkpt>
      <trkpt lat="48.17342" lon="-3.8838">
        <ele>81.971425</ele>
        <time>2022-12-10T16:39:28.240Z</time>
      </trkpt>
      <trkpt lat="48.17334" lon="-3.8837">
        <ele>81.671709</ele>
        <time>2022-12-10T16:39:31.240Z</time>
      </trkpt>
      <trkpt lat="48.17327" lon="-3.88359">
        <ele>81.381429</ele>
        <time>2022-12-10T16:39:34.236Z</time>
      </trkpt>
      <trkpt lat="48.17319" lon="-3.88349">
        <ele>81.07826</ele>
        <time>2022-12-10T16:39:37.237Z</time>
      </trkpt>
      <trkpt lat="48.17311" lon="-3.88339">
        <ele>80.787979</ele>
        <time>2022-12-10T16:39:40.243Z</time>
      </trkpt>
      <trkpt lat="48.17303" lon="-3.88328">
        <ele>80.51932</ele>
        <time>2022-12-10T16:39:43.236Z</time>
      </trkpt>
      <trkpt lat="48.17295" lon="-3.88317">
        <ele>80.393425</ele>
        <time>2022-12-10T16:39:46.241Z</time>
      </trkpt>
      <trkpt lat="48.17287" lon="-3.88306">
        <ele>80.263346</ele>
        <time>2022-12-10T16:39:49.241Z</time>
      </trkpt>
      <trkpt lat="48.1728" lon="-3.88293">
        <ele>80.13596</ele>
        <time>2022-12-10T16:39:52.244Z</time>
      </trkpt>
      <trkpt lat="48.17273" lon="-3.88281">
        <ele>80.008574</ele>
        <time>2022-12-10T16:39:55.255Z</time>
      </trkpt>
      <trkpt lat="48.17267" lon="-3.88267">
        <ele>79.879283</ele>
        <time>2022-12-10T16:39:58.241Z</time>
      </trkpt>
      <trkpt lat="48.17261" lon="-3.88254">
        <ele>79.750757</ele>
        <time>2022-12-10T16:40:01.249Z</time>
      </trkpt>
      <trkpt lat="48.17256" lon="-3.88239">
        <ele>79.621196</ele>
        <time>2022-12-10T16:40:04.246Z</time>
      </trkpt>
      <trkpt lat="48.17251" lon="-3.88224">
        <ele>79.488818</ele>
        <time>2022-12-10T16:40:07.239Z</time>
      </trkpt>
      <trkpt lat="48.17246" lon="-3.88208">
        <ele>79.354357</ele>
        <time>2022-12-10T16:40:10.239Z</time>
      </trkpt>
      <trkpt lat="48.17241" lon="-3.88193">
        <ele>79.220847</ele>
        <time>2022-12-10T16:40:13.245Z</time>
      </trkpt>
      <trkpt lat="48.17238" lon="-3.88178">
        <ele>79.099971</ele>
        <time>2022-12-10T16:40:16.244Z</time>
      </trkpt>
      <trkpt lat="48.17236" lon="-3.88164">
        <ele>78.985868</ele>
        <time>2022-12-10T16:40:19.239Z</time>
      </trkpt>
      <trkpt lat="48.17233" lon="-3.88148">
        <ele>78.859495</ele>
        <time>2022-12-10T16:40:22.270Z</time>
      </trkpt>
      <trkpt lat="48.17231" lon="-3.88134">
        <ele>78.739575</ele>
        <time>2022-12-10T16:40:25.237Z</time>
      </trkpt>
      <trkpt lat="48.17226" lon="-3.88112">
        <ele>78.560232</ele>
        <time>2022-12-10T16:41:04.243Z</time>
      </trkpt>
      <trkpt lat="48.17224" lon="-3.88098">
        <ele>78.445959</ele>
        <time>2022-12-10T16:41:08.239Z</time>
      </trkpt>
      <trkpt lat="48.1722" lon="-3.88082">
        <ele>78.287564</ele>
        <time>2022-12-10T16:41:12.244Z</time>
      </trkpt>
      <trkpt lat="48.17217" lon="-3.88067">
        <ele>78.150579</ele>
        <time>2022-12-10T16:41:15.241Z</time>
      </trkpt>
      <trkpt lat="48.17215" lon="-3.88053">
        <ele>78.014126</ele>
        <time>2022-12-10T16:41:18.239Z</time>
      </trkpt>
      <trkpt lat="48.17213" lon="-3.88039">
        <ele>77.874945</ele>
        <time>2022-12-10T16:41:21.256Z</time>
      </trkpt>
      <trkpt lat="48.17212" lon="-3.88024">
        <ele>77.741103</ele>
        <time>2022-12-10T16:41:24.240Z</time>
      </trkpt>
      <trkpt lat="48.1721" lon="-3.8801">
        <ele>77.603377</ele>
        <time>2022-12-10T16:41:27.236Z</time>
      </trkpt>
      <trkpt lat="48.17209" lon="-3.87995">
        <ele>77.461681</ele>
        <time>2022-12-10T16:41:30.238Z</time>
      </trkpt>
      <trkpt lat="48.17207" lon="-3.87979">
        <ele>77.308215</ele>
        <time>2022-12-10T16:41:33.239Z</time>
      </trkpt>
      <trkpt lat="48.17206" lon="-3.87963">
        <ele>77.158153</ele>
        <time>2022-12-10T16:41:36.234Z</time>
      </trkpt>
      <trkpt lat="48.17205" lon="-3.87948">
        <ele>77.017225</ele>
        <time>2022-12-10T16:41:39.254Z</time>
      </trkpt>
      <trkpt lat="48.17203" lon="-3.87933">
        <ele>76.87713</ele>
        <time>2022-12-10T16:41:42.240Z</time>
      </trkpt>
      <trkpt lat="48.172" lon="-3.87918">
        <ele>76.733086</ele>
        <time>2022-12-10T16:41:45.251Z</time>
      </trkpt>
      <trkpt lat="48.17197" lon="-3.87902">
        <ele>76.58096</ele>
        <time>2022-12-10T16:41:48.239Z</time>
      </trkpt>
      <trkpt lat="48.17194" lon="-3.87888">
        <ele>76.44183</ele>
        <time>2022-12-10T16:41:51.236Z</time>
      </trkpt>
      <trkpt lat="48.17191" lon="-3.87872">
        <ele>76.288038</ele>
        <time>2022-12-10T16:41:54.251Z</time>
      </trkpt>
      <trkpt lat="48.17188" lon="-3.87857">
        <ele>76.133736</ele>
        <time>2022-12-10T16:41:57.240Z</time>
      </trkpt>
      <trkpt lat="48.17185" lon="-3.87841">
        <ele>75.9818</ele>
        <time>2022-12-10T16:42:00.243Z</time>
      </trkpt>
      <trkpt lat="48.17182" lon="-3.87825">
        <ele>76.002455</ele>
        <time>2022-12-10T16:42:03.249Z</time>
      </trkpt>
      <trkpt lat="48.17178" lon="-3.87809">
        <ele>76.144182</ele>
        <time>2022-12-10T16:42:06.241Z</time>
      </trkpt>
      <trkpt lat="48.17175" lon="-3.87793">
        <ele>76.274421</ele>
        <time>2022-12-10T16:42:09.238Z</time>
      </trkpt>
      <trkpt lat="48.17172" lon="-3.87777">
        <ele>76.40854</ele>
        <time>2022-12-10T16:42:12.239Z</time>
      </trkpt>
      <trkpt lat="48.17169" lon="-3.87763">
        <ele>76.531987</ele>
        <time>2022-12-10T16:42:15.240Z</time>
      </trkpt>
      <trkpt lat="48.17166" lon="-3.87746">
        <ele>76.671399</ele>
        <time>2022-12-10T16:42:18.241Z</time>
      </trkpt>
      <trkpt lat="48.17162" lon="-3.87731">
        <ele>76.803697</ele>
        <time>2022-12-10T16:42:21.240Z</time>
      </trkpt>
      <trkpt lat="48.17157" lon="-3.87716">
        <ele>76.938102</ele>
        <time>2022-12-10T16:42:24.231Z</time>
      </trkpt>
      <trkpt lat="48.17153" lon="-3.87701">
        <ele>77.07155</ele>
        <time>2022-12-10T16:42:27.245Z</time>
      </trkpt>
      <trkpt lat="48.17148" lon="-3.87686">
        <ele>77.20077</ele>
        <time>2022-12-10T16:42:30.238Z</time>
      </trkpt>
      <trkpt lat="48.17144" lon="-3.87671">
        <ele>77.335022</ele>
        <time>2022-12-10T16:42:33.242Z</time>
      </trkpt>
      <trkpt lat="48.17139" lon="-3.87657">
        <ele>77.467029</ele>
        <time>2022-12-10T16:42:36.239Z</time>
      </trkpt>
      <trkpt lat="48.17134" lon="-3.87642">
        <ele>77.602086</ele>
        <time>2022-12-10T16:42:39.250Z</time>
      </trkpt>
      <trkpt lat="48.17128" lon="-3.87629">
        <ele>77.730767</ele>
        <time>2022-12-10T16:42:42.243Z</time>
      </trkpt>
      <trkpt lat="48.17122" lon="-3.87615">
        <ele>77.861503</ele>
        <time>2022-12-10T16:42:45.243Z</time>
      </trkpt>
      <trkpt lat="48.17116" lon="-3.87601">
        <ele>77.993539</ele>
        <time>2022-12-10T16:42:48.241Z</time>
      </trkpt>
      <trkpt lat="48.1711" lon="-3.87588">
        <ele>78.110304</ele>
        <time>2022-12-10T16:42:51.239Z</time>
      </trkpt>
      <trkpt lat="48.17104" lon="-3.87575">
        <ele>78.140486</ele>
        <time>2022-12-10T16:42:54.242Z</time>
      </trkpt>
      <trkpt lat="48.17097" lon="-3.87562">
        <ele>78.172468</ele>
        <time>2022-12-10T16:42:57.243Z</time>
      </trkpt>
      <trkpt lat="48.17089" lon="-3.8755">
        <ele>78.203494</ele>
        <time>2022-12-10T16:43:00.237Z</time>
      </trkpt>
      <trkpt lat="48.17082" lon="-3.87538">
        <ele>78.234975</ele>
        <time>2022-12-10T16:43:03.239Z</time>
      </trkpt>
      <trkpt lat="48.17073" lon="-3.87527">
        <ele>78.267392</ele>
        <time>2022-12-10T16:43:06.239Z</time>
      </trkpt>
      <trkpt lat="48.17065" lon="-3.87517">
        <ele>78.296736</ele>
        <time>2022-12-10T16:43:09.244Z</time>
      </trkpt>
      <trkpt lat="48.17058" lon="-3.87509">
        <ele>78.323732</ele>
        <time>2022-12-10T16:43:12.241Z</time>
      </trkpt>
      <trkpt lat="48.17049" lon="-3.87501">
        <ele>78.351361</ele>
        <time>2022-12-10T16:43:15.233Z</time>
      </trkpt>
      <trkpt lat="48.1704" lon="-3.87492">
        <ele>78.382322</ele>
        <time>2022-12-10T16:43:18.257Z</time>
      </trkpt>
      <trkpt lat="48.17031" lon="-3.87484">
        <ele>78.412494</ele>
        <time>2022-12-10T16:43:21.238Z</time>
      </trkpt>
      <trkpt lat="48.17024" lon="-3.87475">
        <ele>78.440067</ele>
        <time>2022-12-10T16:43:24.259Z</time>
      </trkpt>
      <trkpt lat="48.17014" lon="-3.87464">
        <ele>78.475073</ele>
        <time>2022-12-10T16:43:28.238Z</time>
      </trkpt>
      <trkpt lat="48.17006" lon="-3.87456">
        <ele>78.50184</ele>
        <time>2022-12-10T16:43:31.239Z</time>
      </trkpt>
      <trkpt lat="48.16999" lon="-3.87445">
        <ele>78.532197</ele>
        <time>2022-12-10T16:43:34.238Z</time>
      </trkpt>
      <trkpt lat="48.16991" lon="-3.87435">
        <ele>78.562347</ele>
        <time>2022-12-10T16:43:37.242Z</time>
      </trkpt>
      <trkpt lat="48.16984" lon="-3.87424">
        <ele>78.590794</ele>
        <time>2022-12-10T16:43:40.242Z</time>
      </trkpt>
      <trkpt lat="48.16976" lon="-3.87413">
        <ele>78.619953</ele>
        <time>2022-12-10T16:43:43.238Z</time>
      </trkpt>
      <trkpt lat="48.16969" lon="-3.87401">
        <ele>78.669403</ele>
        <time>2022-12-10T16:43:46.252Z</time>
      </trkpt>
      <trkpt lat="48.16961" lon="-3.8739">
        <ele>78.71672</ele>
        <time>2022-12-10T16:43:49.241Z</time>
      </trkpt>
      <trkpt lat="48.16954" lon="-3.87379">
        <ele>78.763842</ele>
        <time>2022-12-10T16:43:52.244Z</time>
      </trkpt>
      <trkpt lat="48.16947" lon="-3.87367">
        <ele>78.812147</ele>
        <time>2022-12-10T16:43:55.239Z</time>
      </trkpt>
      <trkpt lat="48.1694" lon="-3.87355">
        <ele>78.860905</ele>
        <time>2022-12-10T16:43:58.248Z</time>
      </trkpt>
      <trkpt lat="48.16932" lon="-3.87343">
        <ele>78.910264</ele>
        <time>2022-12-10T16:44:01.242Z</time>
      </trkpt>
      <trkpt lat="48.16926" lon="-3.8733">
        <ele>78.958445</ele>
        <time>2022-12-10T16:44:04.243Z</time>
      </trkpt>
      <trkpt lat="48.16919" lon="-3.87318">
        <ele>79.004719</ele>
        <time>2022-12-10T16:44:07.245Z</time>
      </trkpt>
      <trkpt lat="48.16914" lon="-3.87306">
        <ele>79.048667</ele>
        <time>2022-12-10T16:44:10.257Z</time>
      </trkpt>
      <trkpt lat="48.16908" lon="-3.87294">
        <ele>79.093389</ele>
        <time>2022-12-10T16:44:13.241Z</time>
      </trkpt>
      <trkpt lat="48.16903" lon="-3.87282">
        <ele>79.136591</ele>
        <time>2022-12-10T16:44:16.243Z</time>
      </trkpt>
      <trkpt lat="48.16898" lon="-3.87269">
        <ele>79.182065</ele>
        <time>2022-12-10T16:44:19.241Z</time>
      </trkpt>
      <trkpt lat="48.16893" lon="-3.87256">
        <ele>79.227626</ele>
        <time>2022-12-10T16:44:22.233Z</time>
      </trkpt>
      <trkpt lat="48.16888" lon="-3.87242">
        <ele>79.274284</ele>
        <time>2022-12-10T16:44:25.245Z</time>
      </trkpt>
      <trkpt lat="48.16883" lon="-3.87228">
        <ele>79.321419</ele>
        <time>2022-12-10T16:44:28.250Z</time>
      </trkpt>
      <trkpt lat="48.16877" lon="-3.87215">
        <ele>79.367114</ele>
        <time>2022-12-10T16:44:31.244Z</time>
      </trkpt>
      <trkpt lat="48.16872" lon="-3.87202">
        <ele>79.413507</ele>
        <time>2022-12-10T16:44:34.244Z</time>
      </trkpt>
      <trkpt lat="48.16867" lon="-3.87189">
        <ele>79.397862</ele>
        <time>2022-12-10T16:44:37.236Z</time>
      </trkpt>
      <trkpt lat="48.16862" lon="-3.87176">
        <ele>79.354421</ele>
        <time>2022-12-10T16:44:40.243Z</time>
      </trkpt>
      <trkpt lat="48.16856" lon="-3.87162">
        <ele>79.298408</ele>
        <time>2022-12-10T16:44:44.247Z</time>
      </trkpt>
      <trkpt lat="48.16849" lon="-3.87147">
        <ele>79.244711</ele>
        <time>2022-12-10T16:44:48.241Z</time>
      </trkpt>
      <trkpt lat="48.16845" lon="-3.87131">
        <ele>79.190282</ele>
        <time>2022-12-10T16:44:52.236Z</time>
      </trkpt>
      <trkpt lat="48.1684" lon="-3.87114">
        <ele>79.135034</ele>
        <time>2022-12-10T16:44:56.248Z</time>
      </trkpt>
      <trkpt lat="48.16837" lon="-3.87102">
        <ele>79.092115</ele>
        <time>2022-12-10T16:44:59.240Z</time>
      </trkpt>
      <trkpt lat="48.16833" lon="-3.87088">
        <ele>79.047408</ele>
        <time>2022-12-10T16:45:02.242Z</time>
      </trkpt>
      <trkpt lat="48.16829" lon="-3.87075">
        <ele>79.002013</ele>
        <time>2022-12-10T16:45:05.243Z</time>
      </trkpt>
      <trkpt lat="48.16826" lon="-3.87061">
        <ele>78.958455</ele>
        <time>2022-12-10T16:45:08.247Z</time>
      </trkpt>
      <trkpt lat="48.16823" lon="-3.87044">
        <ele>78.903653</ele>
        <time>2022-12-10T16:45:12.243Z</time>
      </trkpt>
      <trkpt lat="48.16819" lon="-3.87028">
        <ele>78.847991</ele>
        <time>2022-12-10T16:45:16.247Z</time>
      </trkpt>
      <trkpt lat="48.16816" lon="-3.87015">
        <ele>78.80611</ele>
        <time>2022-12-10T16:45:19.242Z</time>
      </trkpt>
      <trkpt lat="48.16812" lon="-3.87002">
        <ele>78.762643</ele>
        <time>2022-12-10T16:45:22.238Z</time>
      </trkpt>
      <trkpt lat="48.16808" lon="-3.86989">
        <ele>78.717754</ele>
        <time>2022-12-10T16:45:25.252Z</time>
      </trkpt>
      <trkpt lat="48.16803" lon="-3.86973">
        <ele>78.663041</ele>
        <time>2022-12-10T16:45:29.245Z</time>
      </trkpt>
      <trkpt lat="48.16799" lon="-3.8696">
        <ele>78.617387</ele>
        <time>2022-12-10T16:45:32.245Z</time>
      </trkpt>
      <trkpt lat="48.16796" lon="-3.86946">
        <ele>78.587545</ele>
        <time>2022-12-10T16:45:35.239Z</time>
      </trkpt>
      <trkpt lat="48.16792" lon="-3.8693">
        <ele>78.573624</ele>
        <time>2022-12-10T16:45:39.244Z</time>
      </trkpt>
      <trkpt lat="48.16788" lon="-3.86913">
        <ele>78.559339</ele>
        <time>2022-12-10T16:45:43.241Z</time>
      </trkpt>
      <trkpt lat="48.16786" lon="-3.86898">
        <ele>78.547126</ele>
        <time>2022-12-10T16:45:47.238Z</time>
      </trkpt>
      <trkpt lat="48.16783" lon="-3.86885">
        <ele>78.536011</ele>
        <time>2022-12-10T16:45:50.233Z</time>
      </trkpt>
      <trkpt lat="48.16778" lon="-3.8687">
        <ele>78.521968</ele>
        <time>2022-12-10T16:45:54.241Z</time>
      </trkpt>
      <trkpt lat="48.16776" lon="-3.86856">
        <ele>78.510531</ele>
        <time>2022-12-10T16:45:57.233Z</time>
      </trkpt>
      <trkpt lat="48.16771" lon="-3.86841">
        <ele>78.497409</ele>
        <time>2022-12-10T16:46:00.242Z</time>
      </trkpt>
      <trkpt lat="48.16766" lon="-3.86827">
        <ele>78.484056</ele>
        <time>2022-12-10T16:46:03.240Z</time>
      </trkpt>
      <trkpt lat="48.16759" lon="-3.86814">
        <ele>78.471174</ele>
        <time>2022-12-10T16:46:06.257Z</time>
      </trkpt>
      <trkpt lat="48.16751" lon="-3.86802">
        <ele>78.457424</ele>
        <time>2022-12-10T16:46:09.237Z</time>
      </trkpt>
      <trkpt lat="48.16744" lon="-3.8679">
        <ele>78.444063</ele>
        <time>2022-12-10T16:46:12.237Z</time>
      </trkpt>
      <trkpt lat="48.16736" lon="-3.8678">
        <ele>78.432143</ele>
        <time>2022-12-10T16:46:15.235Z</time>
      </trkpt>
      <trkpt lat="48.16729" lon="-3.86771">
        <ele>78.420211</ele>
        <time>2022-12-10T16:46:18.239Z</time>
      </trkpt>
      <trkpt lat="48.16721" lon="-3.86762">
        <ele>78.408135</ele>
        <time>2022-12-10T16:46:21.245Z</time>
      </trkpt>
      <trkpt lat="48.16713" lon="-3.86753">
        <ele>78.396396</ele>
        <time>2022-12-10T16:46:24.260Z</time>
      </trkpt>
      <trkpt lat="48.16703" lon="-3.86742">
        <ele>78.382144</ele>
        <time>2022-12-10T16:46:28.242Z</time>
      </trkpt>
      <trkpt lat="48.16696" lon="-3.86735">
        <ele>78.364466</ele>
        <time>2022-12-10T16:46:31.246Z</time>
      </trkpt>
      <trkpt lat="48.16687" lon="-3.86727">
        <ele>78.333947</ele>
        <time>2022-12-10T16:46:34.242Z</time>
      </trkpt>
      <trkpt lat="48.16679" lon="-3.86718">
        <ele>78.304181</ele>
        <time>2022-12-10T16:46:37.247Z</time>
      </trkpt>
      <trkpt lat="48.16671" lon="-3.8671">
        <ele>78.273814</ele>
        <time>2022-12-10T16:46:40.241Z</time>
      </trkpt>
      <trkpt lat="48.16663" lon="-3.867">
        <ele>78.242106</ele>
        <time>2022-12-10T16:46:43.241Z</time>
      </trkpt>
      <trkpt lat="48.16655" lon="-3.8669">
        <ele>78.210039</ele>
        <time>2022-12-10T16:46:46.243Z</time>
      </trkpt>
      <trkpt lat="48.16647" lon="-3.86681">
        <ele>78.179024</ele>
        <time>2022-12-10T16:46:49.243Z</time>
      </trkpt>
      <trkpt lat="48.16639" lon="-3.86671">
        <ele>78.148373</ele>
        <time>2022-12-10T16:46:52.243Z</time>
      </trkpt>
      <trkpt lat="48.16632" lon="-3.8666">
        <ele>78.118448</ele>
        <time>2022-12-10T16:46:55.241Z</time>
      </trkpt>
      <trkpt lat="48.16626" lon="-3.86648">
        <ele>78.087689</ele>
        <time>2022-12-10T16:46:58.243Z</time>
      </trkpt>
      <trkpt lat="48.16619" lon="-3.86636">
        <ele>78.056229</ele>
        <time>2022-12-10T16:47:01.240Z</time>
      </trkpt>
      <trkpt lat="48.16613" lon="-3.86625">
        <ele>78.025978</ele>
        <time>2022-12-10T16:47:04.237Z</time>
      </trkpt>
      <trkpt lat="48.16607" lon="-3.86613">
        <ele>77.996001</ele>
        <time>2022-12-10T16:47:07.243Z</time>
      </trkpt>
      <trkpt lat="48.16601" lon="-3.86601">
        <ele>77.964927</ele>
        <time>2022-12-10T16:47:10.247Z</time>
      </trkpt>
      <trkpt lat="48.16595" lon="-3.86589">
        <ele>77.933443</ele>
        <time>2022-12-10T16:47:13.255Z</time>
      </trkpt>
      <trkpt lat="48.16588" lon="-3.86574">
        <ele>77.896914</ele>
        <time>2022-12-10T16:47:17.240Z</time>
      </trkpt>
      <trkpt lat="48.16583" lon="-3.86561">
        <ele>77.866206</ele>
        <time>2022-12-10T16:47:20.243Z</time>
      </trkpt>
      <trkpt lat="48.16579" lon="-3.86547">
        <ele>77.836795</ele>
        <time>2022-12-10T16:47:23.239Z</time>
      </trkpt>
      <trkpt lat="48.16575" lon="-3.86532">
        <ele>77.852019</ele>
        <time>2022-12-10T16:47:26.241Z</time>
      </trkpt>
      <trkpt lat="48.1657" lon="-3.86518">
        <ele>77.885527</ele>
        <time>2022-12-10T16:47:29.235Z</time>
      </trkpt>
      <trkpt lat="48.16568" lon="-3.865">
        <ele>77.92222</ele>
        <time>2022-12-10T16:47:33.250Z</time>
      </trkpt>
      <trkpt lat="48.16566" lon="-3.86484">
        <ele>77.956527</ele>
        <time>2022-12-10T16:47:38.240Z</time>
      </trkpt>
      <trkpt lat="48.16564" lon="-3.86468">
        <ele>77.990607</ele>
        <time>2022-12-10T16:47:42.239Z</time>
      </trkpt>
      <trkpt lat="48.16563" lon="-3.8645">
        <ele>78.028559</ele>
        <time>2022-12-10T16:47:46.236Z</time>
      </trkpt>
      <trkpt lat="48.16561" lon="-3.86436">
        <ele>78.056864</ele>
        <time>2022-12-10T16:47:49.244Z</time>
      </trkpt>
      <trkpt lat="48.1656" lon="-3.86422">
        <ele>78.087263</ele>
        <time>2022-12-10T16:47:52.251Z</time>
      </trkpt>
      <trkpt lat="48.16559" lon="-3.86408">
        <ele>78.115862</ele>
        <time>2022-12-10T16:47:55.246Z</time>
      </trkpt>
      <trkpt lat="48.16558" lon="-3.86392">
        <ele>78.149447</ele>
        <time>2022-12-10T16:47:59.245Z</time>
      </trkpt>
      <trkpt lat="48.16557" lon="-3.86378">
        <ele>78.177633</ele>
        <time>2022-12-10T16:48:02.260Z</time>
      </trkpt>
      <trkpt lat="48.16556" lon="-3.86364">
        <ele>78.20747</ele>
        <time>2022-12-10T16:48:05.250Z</time>
      </trkpt>
      <trkpt lat="48.16555" lon="-3.86346">
        <ele>78.2441</ele>
        <time>2022-12-10T16:48:09.242Z</time>
      </trkpt>
      <trkpt lat="48.16553" lon="-3.86329">
        <ele>78.280224</ele>
        <time>2022-12-10T16:48:13.253Z</time>
      </trkpt>
      <trkpt lat="48.16551" lon="-3.86315">
        <ele>78.310341</ele>
        <time>2022-12-10T16:48:16.240Z</time>
      </trkpt>
      <trkpt lat="48.16549" lon="-3.863">
        <ele>78.341864</ele>
        <time>2022-12-10T16:48:19.242Z</time>
      </trkpt>
      <trkpt lat="48.16549" lon="-3.86285">
        <ele>78.373859</ele>
        <time>2022-12-10T16:48:22.242Z</time>
      </trkpt>
      <trkpt lat="48.16548" lon="-3.86271">
        <ele>78.459474</ele>
        <time>2022-12-10T16:48:25.245Z</time>
      </trkpt>
      <trkpt lat="48.16546" lon="-3.86254">
        <ele>78.608135</ele>
        <time>2022-12-10T16:48:29.243Z</time>
      </trkpt>
      <trkpt lat="48.16544" lon="-3.86239">
        <ele>78.750023</ele>
        <time>2022-12-10T16:48:33.242Z</time>
      </trkpt>
      <trkpt lat="48.16541" lon="-3.86222">
        <ele>78.907288</ele>
        <time>2022-12-10T16:48:37.241Z</time>
      </trkpt>
      <trkpt lat="48.16539" lon="-3.86207">
        <ele>79.053622</ele>
        <time>2022-12-10T16:48:41.251Z</time>
      </trkpt>
      <trkpt lat="48.16537" lon="-3.86192">
        <ele>79.185155</ele>
        <time>2022-12-10T16:48:46.246Z</time>
      </trkpt>
      <trkpt lat="48.16533" lon="-3.86179">
        <ele>79.323742</ele>
        <time>2022-12-10T16:48:52.242Z</time>
      </trkpt>
      <trkpt lat="48.16527" lon="-3.86167">
        <ele>79.461688</ele>
        <time>2022-12-10T16:48:57.243Z</time>
      </trkpt>
      <trkpt lat="48.16522" lon="-3.86155">
        <ele>79.591157</ele>
        <time>2022-12-10T16:49:01.238Z</time>
      </trkpt>
      <trkpt lat="48.16518" lon="-3.86141">
        <ele>79.729232</ele>
        <time>2022-12-10T16:49:08.242Z</time>
      </trkpt>
      <trkpt lat="48.16513" lon="-3.8614">
        <ele>79.797944</ele>
        <time>2022-12-10T16:51:13.539Z</time>
      </trkpt>
      <trkpt lat="48.16515" lon="-3.86136">
        <ele>79.848869</ele>
        <time>2022-12-10T17:06:43.372Z</time>
      </trkpt>
      <trkpt lat="48.16516" lon="-3.86121">
        <ele>79.98453</ele>
        <time>2022-12-10T17:07:57.255Z</time>
      </trkpt>
      <trkpt lat="48.16518" lon="-3.86105">
        <ele>80.139709</ele>
        <time>2022-12-10T17:08:01.249Z</time>
      </trkpt>
      <trkpt lat="48.16522" lon="-3.86088">
        <ele>80.303315</ele>
        <time>2022-12-10T17:08:04.246Z</time>
      </trkpt>
      <trkpt lat="48.16526" lon="-3.86075">
        <ele>80.431954</ele>
        <time>2022-12-10T17:08:07.253Z</time>
      </trkpt>
      <trkpt lat="48.16531" lon="-3.86063">
        <ele>80.558412</ele>
        <time>2022-12-10T17:08:10.247Z</time>
      </trkpt>
      <trkpt lat="48.16537" lon="-3.86049">
        <ele>80.713629</ele>
        <time>2022-12-10T17:08:14.264Z</time>
      </trkpt>
      <trkpt lat="48.16544" lon="-3.86035">
        <ele>80.82713</ele>
        <time>2022-12-10T17:08:18.241Z</time>
      </trkpt>
      <trkpt lat="48.16549" lon="-3.86023">
        <ele>80.775249</ele>
        <time>2022-12-10T17:08:22.253Z</time>
      </trkpt>
      <trkpt lat="48.16553" lon="-3.86009">
        <ele>80.719138</ele>
        <time>2022-12-10T17:08:28.266Z</time>
      </trkpt>
      <trkpt lat="48.16558" lon="-3.85996">
        <ele>80.663836</ele>
        <time>2022-12-10T17:08:34.248Z</time>
      </trkpt>
      <trkpt lat="48.16563" lon="-3.85983">
        <ele>80.6083</ele>
        <time>2022-12-10T17:08:51.249Z</time>
      </trkpt>
      <trkpt lat="48.16565" lon="-3.8597">
        <ele>80.55666</ele>
        <time>2022-12-10T17:08:57.253Z</time>
      </trkpt>
      <trkpt lat="48.16568" lon="-3.85954">
        <ele>80.497564</ele>
        <time>2022-12-10T17:09:02.250Z</time>
      </trkpt>
      <trkpt lat="48.16571" lon="-3.85938">
        <ele>80.43606</ele>
        <time>2022-12-10T17:09:07.267Z</time>
      </trkpt>
      <trkpt lat="48.16572" lon="-3.85924">
        <ele>80.381886</ele>
        <time>2022-12-10T17:09:11.245Z</time>
      </trkpt>
      <trkpt lat="48.16573" lon="-3.85908">
        <ele>80.323967</ele>
        <time>2022-12-10T17:09:15.246Z</time>
      </trkpt>
      <trkpt lat="48.16574" lon="-3.85893">
        <ele>80.26782</ele>
        <time>2022-12-10T17:09:19.245Z</time>
      </trkpt>
      <trkpt lat="48.16574" lon="-3.85878">
        <ele>80.209637</ele>
        <time>2022-12-10T17:09:23.270Z</time>
      </trkpt>
      <trkpt lat="48.16575" lon="-3.85862">
        <ele>80.151382</ele>
        <time>2022-12-10T17:09:27.252Z</time>
      </trkpt>
      <trkpt lat="48.16574" lon="-3.85848">
        <ele>80.100279</ele>
        <time>2022-12-10T17:09:30.258Z</time>
      </trkpt>
      <trkpt lat="48.16574" lon="-3.85831">
        <ele>80.033461</ele>
        <time>2022-12-10T17:09:34.275Z</time>
      </trkpt>
      <trkpt lat="48.16573" lon="-3.85813">
        <ele>79.966123</ele>
        <time>2022-12-10T17:09:38.253Z</time>
      </trkpt>
      <trkpt lat="48.16571" lon="-3.85798">
        <ele>79.911398</ele>
        <time>2022-12-10T17:09:41.258Z</time>
      </trkpt>
      <trkpt lat="48.16568" lon="-3.85784">
        <ele>79.858086</ele>
        <time>2022-12-10T17:09:44.249Z</time>
      </trkpt>
      <trkpt lat="48.16565" lon="-3.85771">
        <ele>79.82461</ele>
        <time>2022-12-10T17:09:47.268Z</time>
      </trkpt>
      <trkpt lat="48.1656" lon="-3.85758">
        <ele>79.805764</ele>
        <time>2022-12-10T17:09:50.255Z</time>
      </trkpt>
      <trkpt lat="48.16556" lon="-3.85745">
        <ele>79.786366</ele>
        <time>2022-12-10T17:09:53.252Z</time>
      </trkpt>
      <trkpt lat="48.16551" lon="-3.8573">
        <ele>79.765764</ele>
        <time>2022-12-10T17:09:56.246Z</time>
      </trkpt>
      <trkpt lat="48.16547" lon="-3.85717">
        <ele>79.745814</ele>
        <time>2022-12-10T17:09:59.252Z</time>
      </trkpt>
      <trkpt lat="48.16543" lon="-3.85702">
        <ele>79.725568</ele>
        <time>2022-12-10T17:10:02.281Z</time>
      </trkpt>
      <trkpt lat="48.1654" lon="-3.85687">
        <ele>79.705084</ele>
        <time>2022-12-10T17:10:05.250Z</time>
      </trkpt>
      <trkpt lat="48.16536" lon="-3.85673">
        <ele>79.684769</ele>
        <time>2022-12-10T17:10:08.259Z</time>
      </trkpt>
      <trkpt lat="48.16533" lon="-3.85657">
        <ele>79.66373</ele>
        <time>2022-12-10T17:10:11.252Z</time>
      </trkpt>
      <trkpt lat="48.16529" lon="-3.85641">
        <ele>79.642013</ele>
        <time>2022-12-10T17:10:14.249Z</time>
      </trkpt>
      <trkpt lat="48.16526" lon="-3.85627">
        <ele>79.62153</ele>
        <time>2022-12-10T17:10:17.258Z</time>
      </trkpt>
      <trkpt lat="48.16522" lon="-3.85612">
        <ele>79.6017</ele>
        <time>2022-12-10T17:10:20.268Z</time>
      </trkpt>
      <trkpt lat="48.16518" lon="-3.85598">
        <ele>79.582253</ele>
        <time>2022-12-10T17:10:23.248Z</time>
      </trkpt>
      <trkpt lat="48.16516" lon="-3.85585">
        <ele>79.563797</ele>
        <time>2022-12-10T17:10:26.259Z</time>
      </trkpt>
      <trkpt lat="48.16512" lon="-3.85568">
        <ele>79.540968</ele>
        <time>2022-12-10T17:10:30.254Z</time>
      </trkpt>
      <trkpt lat="48.16509" lon="-3.85555">
        <ele>79.522389</ele>
        <time>2022-12-10T17:10:33.259Z</time>
      </trkpt>
      <trkpt lat="48.16505" lon="-3.85541">
        <ele>79.503912</ele>
        <time>2022-12-10T17:10:36.257Z</time>
      </trkpt>
      <trkpt lat="48.16502" lon="-3.85528">
        <ele>79.485451</ele>
        <time>2022-12-10T17:10:39.253Z</time>
      </trkpt>
      <trkpt lat="48.16497" lon="-3.85515">
        <ele>79.507057</ele>
        <time>2022-12-10T17:10:42.254Z</time>
      </trkpt>
      <trkpt lat="48.16493" lon="-3.85501">
        <ele>79.529269</ele>
        <time>2022-12-10T17:10:45.247Z</time>
      </trkpt>
      <trkpt lat="48.16489" lon="-3.85489">
        <ele>79.551476</ele>
        <time>2022-12-10T17:10:48.252Z</time>
      </trkpt>
      <trkpt lat="48.16484" lon="-3.85475">
        <ele>79.574195</ele>
        <time>2022-12-10T17:10:51.263Z</time>
      </trkpt>
      <trkpt lat="48.16479" lon="-3.85463">
        <ele>79.596217</ele>
        <time>2022-12-10T17:10:54.254Z</time>
      </trkpt>
      <trkpt lat="48.16475" lon="-3.8545">
        <ele>79.617537</ele>
        <time>2022-12-10T17:10:57.246Z</time>
      </trkpt>
      <trkpt lat="48.16471" lon="-3.85438">
        <ele>79.639197</ele>
        <time>2022-12-10T17:11:00.253Z</time>
      </trkpt>
      <trkpt lat="48.16467" lon="-3.85425">
        <ele>79.661133</ele>
        <time>2022-12-10T17:11:03.254Z</time>
      </trkpt>
      <trkpt lat="48.16463" lon="-3.85411">
        <ele>79.683116</ele>
        <time>2022-12-10T17:11:06.246Z</time>
      </trkpt>
      <trkpt lat="48.16459" lon="-3.85397">
        <ele>79.706173</ele>
        <time>2022-12-10T17:11:09.259Z</time>
      </trkpt>
      <trkpt lat="48.16456" lon="-3.85383">
        <ele>79.729513</ele>
        <time>2022-12-10T17:11:12.249Z</time>
      </trkpt>
      <trkpt lat="48.16451" lon="-3.85366">
        <ele>79.756802</ele>
        <time>2022-12-10T17:11:16.277Z</time>
      </trkpt>
      <trkpt lat="48.16448" lon="-3.85353">
        <ele>79.779208</ele>
        <time>2022-12-10T17:11:19.274Z</time>
      </trkpt>
      <trkpt lat="48.16444" lon="-3.8534">
        <ele>79.800821</ele>
        <time>2022-12-10T17:11:22.275Z</time>
      </trkpt>
      <trkpt lat="48.1644" lon="-3.85326">
        <ele>79.822844</ele>
        <time>2022-12-10T17:11:25.260Z</time>
      </trkpt>
      <trkpt lat="48.16437" lon="-3.85313">
        <ele>79.844176</ele>
        <time>2022-12-10T17:11:28.263Z</time>
      </trkpt>
      <trkpt lat="48.16433" lon="-3.853">
        <ele>79.866015</ele>
        <time>2022-12-10T17:11:31.259Z</time>
      </trkpt>
      <trkpt lat="48.16428" lon="-3.85287">
        <ele>79.889174</ele>
        <time>2022-12-10T17:11:34.246Z</time>
      </trkpt>
      <trkpt lat="48.16424" lon="-3.85273">
        <ele>79.878965</ele>
        <time>2022-12-10T17:11:37.257Z</time>
      </trkpt>
      <trkpt lat="48.1642" lon="-3.85259">
        <ele>79.855486</ele>
        <time>2022-12-10T17:11:40.259Z</time>
      </trkpt>
      <trkpt lat="48.16416" lon="-3.85246">
        <ele>79.834057</ele>
        <time>2022-12-10T17:11:43.252Z</time>
      </trkpt>
      <trkpt lat="48.16413" lon="-3.85233">
        <ele>79.812035</ele>
        <time>2022-12-10T17:11:46.269Z</time>
      </trkpt>
      <trkpt lat="48.16408" lon="-3.85219">
        <ele>79.788791</ele>
        <time>2022-12-10T17:11:49.253Z</time>
      </trkpt>
      <trkpt lat="48.16404" lon="-3.85205">
        <ele>79.765407</ele>
        <time>2022-12-10T17:11:52.258Z</time>
      </trkpt>
      <trkpt lat="48.164" lon="-3.85191">
        <ele>79.741601</ele>
        <time>2022-12-10T17:11:55.259Z</time>
      </trkpt>
      <trkpt lat="48.16395" lon="-3.85177">
        <ele>79.716984</ele>
        <time>2022-12-10T17:11:58.258Z</time>
      </trkpt>
      <trkpt lat="48.16389" lon="-3.85163">
        <ele>79.691435</ele>
        <time>2022-12-10T17:12:01.253Z</time>
      </trkpt>
      <trkpt lat="48.16384" lon="-3.85148">
        <ele>79.666408</ele>
        <time>2022-12-10T17:12:04.257Z</time>
      </trkpt>
      <trkpt lat="48.16379" lon="-3.85134">
        <ele>79.640977</ele>
        <time>2022-12-10T17:12:07.275Z</time>
      </trkpt>
      <trkpt lat="48.16373" lon="-3.8512">
        <ele>79.615055</ele>
        <time>2022-12-10T17:12:10.265Z</time>
      </trkpt>
      <trkpt lat="48.16366" lon="-3.85107">
        <ele>79.589201</ele>
        <time>2022-12-10T17:12:13.256Z</time>
      </trkpt>
      <trkpt lat="48.16358" lon="-3.85095">
        <ele>79.563014</ele>
        <time>2022-12-10T17:12:16.254Z</time>
      </trkpt>
      <trkpt lat="48.1635" lon="-3.85083">
        <ele>79.537075</ele>
        <time>2022-12-10T17:12:19.261Z</time>
      </trkpt>
      <trkpt lat="48.16342" lon="-3.85073">
        <ele>79.513694</ele>
        <time>2022-12-10T17:12:22.273Z</time>
      </trkpt>
      <trkpt lat="48.16334" lon="-3.85063">
        <ele>79.49037</ele>
        <time>2022-12-10T17:12:25.248Z</time>
      </trkpt>
      <trkpt lat="48.16327" lon="-3.85053">
        <ele>79.50192</ele>
        <time>2022-12-10T17:12:28.263Z</time>
      </trkpt>
      <trkpt lat="48.16319" lon="-3.85045">
        <ele>79.537771</ele>
        <time>2022-12-10T17:12:31.257Z</time>
      </trkpt>
      <trkpt lat="48.16311" lon="-3.85034">
        <ele>79.576858</ele>
        <time>2022-12-10T17:12:34.246Z</time>
      </trkpt>
      <trkpt lat="48.16304" lon="-3.85024">
        <ele>79.615611</ele>
        <time>2022-12-10T17:12:37.250Z</time>
      </trkpt>
      <trkpt lat="48.16296" lon="-3.85013">
        <ele>79.654365</ele>
        <time>2022-12-10T17:12:40.257Z</time>
      </trkpt>
      <trkpt lat="48.16289" lon="-3.85002">
        <ele>79.692747</ele>
        <time>2022-12-10T17:12:43.254Z</time>
      </trkpt>
      <trkpt lat="48.16281" lon="-3.84991">
        <ele>79.731918</ele>
        <time>2022-12-10T17:12:46.270Z</time>
      </trkpt>
      <trkpt lat="48.16274" lon="-3.8498">
        <ele>79.770119</ele>
        <time>2022-12-10T17:12:49.253Z</time>
      </trkpt>
      <trkpt lat="48.16267" lon="-3.84969">
        <ele>79.808706</ele>
        <time>2022-12-10T17:12:52.252Z</time>
      </trkpt>
      <trkpt lat="48.1626" lon="-3.84957">
        <ele>79.84922</ele>
        <time>2022-12-10T17:12:55.249Z</time>
      </trkpt>
      <trkpt lat="48.16252" lon="-3.84946">
        <ele>79.889711</ele>
        <time>2022-12-10T17:12:58.251Z</time>
      </trkpt>
      <trkpt lat="48.16245" lon="-3.84933">
        <ele>79.931892</ele>
        <time>2022-12-10T17:13:01.261Z</time>
      </trkpt>
      <trkpt lat="48.16238" lon="-3.84919">
        <ele>79.973173</ele>
        <time>2022-12-10T17:13:04.262Z</time>
      </trkpt>
      <trkpt lat="48.16232" lon="-3.84906">
        <ele>80.01358</ele>
        <time>2022-12-10T17:13:07.249Z</time>
      </trkpt>
      <trkpt lat="48.16226" lon="-3.84894">
        <ele>80.051917</ele>
        <time>2022-12-10T17:13:10.254Z</time>
      </trkpt>
      <trkpt lat="48.1622" lon="-3.84882">
        <ele>80.089406</ele>
        <time>2022-12-10T17:13:13.247Z</time>
      </trkpt>
      <trkpt lat="48.16214" lon="-3.84869">
        <ele>80.128362</ele>
        <time>2022-12-10T17:13:16.255Z</time>
      </trkpt>
      <trkpt lat="48.16208" lon="-3.84856">
        <ele>80.135649</ele>
        <time>2022-12-10T17:13:19.259Z</time>
      </trkpt>
      <trkpt lat="48.16203" lon="-3.84843">
        <ele>80.095129</ele>
        <time>2022-12-10T17:13:22.262Z</time>
      </trkpt>
      <trkpt lat="48.16197" lon="-3.84829">
        <ele>80.053263</ele>
        <time>2022-12-10T17:13:25.267Z</time>
      </trkpt>
      <trkpt lat="48.16192" lon="-3.84817">
        <ele>80.013189</ele>
        <time>2022-12-10T17:13:28.255Z</time>
      </trkpt>
      <trkpt lat="48.16185" lon="-3.84804">
        <ele>79.971484</ele>
        <time>2022-12-10T17:13:32.249Z</time>
      </trkpt>
      <trkpt lat="48.1618" lon="-3.84791">
        <ele>79.929767</ele>
        <time>2022-12-10T17:13:36.260Z</time>
      </trkpt>
      <trkpt lat="48.16175" lon="-3.84776">
        <ele>79.887454</ele>
        <time>2022-12-10T17:13:40.254Z</time>
      </trkpt>
      <trkpt lat="48.1617" lon="-3.84762">
        <ele>79.845045</ele>
        <time>2022-12-10T17:13:43.250Z</time>
      </trkpt>
      <trkpt lat="48.16166" lon="-3.8475">
        <ele>79.809226</ele>
        <time>2022-12-10T17:13:46.265Z</time>
      </trkpt>
      <trkpt lat="48.16161" lon="-3.84738">
        <ele>79.770881</ele>
        <time>2022-12-10T17:13:49.260Z</time>
      </trkpt>
      <trkpt lat="48.16157" lon="-3.84725">
        <ele>79.732353</ele>
        <time>2022-12-10T17:13:52.249Z</time>
      </trkpt>
      <trkpt lat="48.16153" lon="-3.84708">
        <ele>79.685904</ele>
        <time>2022-12-10T17:13:56.257Z</time>
      </trkpt>
      <trkpt lat="48.16149" lon="-3.84693">
        <ele>79.641919</ele>
        <time>2022-12-10T17:14:00.250Z</time>
      </trkpt>
      <trkpt lat="48.16146" lon="-3.84677">
        <ele>79.599458</ele>
        <time>2022-12-10T17:14:04.282Z</time>
      </trkpt>
      <trkpt lat="48.16142" lon="-3.8466">
        <ele>79.551002</ele>
        <time>2022-12-10T17:14:08.257Z</time>
      </trkpt>
      <trkpt lat="48.16139" lon="-3.84647">
        <ele>79.514713</ele>
        <time>2022-12-10T17:14:11.259Z</time>
      </trkpt>
      <trkpt lat="48.16136" lon="-3.84631">
        <ele>79.471651</ele>
        <time>2022-12-10T17:14:15.257Z</time>
      </trkpt>
      <trkpt lat="48.1613" lon="-3.84615">
        <ele>79.435824</ele>
        <time>2022-12-10T17:14:19.262Z</time>
      </trkpt>
      <trkpt lat="48.16127" lon="-3.84602">
        <ele>79.429187</ele>
        <time>2022-12-10T17:14:22.252Z</time>
      </trkpt>
      <trkpt lat="48.16123" lon="-3.84587">
        <ele>79.421863</ele>
        <time>2022-12-10T17:14:26.273Z</time>
      </trkpt>
      <trkpt lat="48.16118" lon="-3.84572">
        <ele>79.414744</ele>
        <time>2022-12-10T17:14:29.260Z</time>
      </trkpt>
      <trkpt lat="48.16114" lon="-3.84557">
        <ele>79.407254</ele>
        <time>2022-12-10T17:14:32.249Z</time>
      </trkpt>
      <trkpt lat="48.16109" lon="-3.84543">
        <ele>79.400132</ele>
        <time>2022-12-10T17:14:35.265Z</time>
      </trkpt>
      <trkpt lat="48.16105" lon="-3.84527">
        <ele>79.392567</ele>
        <time>2022-12-10T17:14:38.255Z</time>
      </trkpt>
      <trkpt lat="48.16103" lon="-3.84513">
        <ele>79.385992</ele>
        <time>2022-12-10T17:14:41.262Z</time>
      </trkpt>
      <trkpt lat="48.16098" lon="-3.84497">
        <ele>79.378035</ele>
        <time>2022-12-10T17:14:45.269Z</time>
      </trkpt>
      <trkpt lat="48.16094" lon="-3.84484">
        <ele>79.371274</ele>
        <time>2022-12-10T17:14:48.273Z</time>
      </trkpt>
      <trkpt lat="48.1609" lon="-3.84468">
        <ele>79.36395</ele>
        <time>2022-12-10T17:14:52.254Z</time>
      </trkpt>
      <trkpt lat="48.16085" lon="-3.84454">
        <ele>79.356857</ele>
        <time>2022-12-10T17:14:55.251Z</time>
      </trkpt>
      <trkpt lat="48.1608" lon="-3.84439">
        <ele>79.349362</ele>
        <time>2022-12-10T17:14:58.252Z</time>
      </trkpt>
      <trkpt lat="48.16075" lon="-3.84425">
        <ele>79.342138</ele>
        <time>2022-12-10T17:15:01.279Z</time>
      </trkpt>
      <trkpt lat="48.16071" lon="-3.84413">
        <ele>79.335854</ele>
        <time>2022-12-10T17:15:04.258Z</time>
      </trkpt>
      <trkpt lat="48.16067" lon="-3.844">
        <ele>79.329357</ele>
        <time>2022-12-10T17:15:07.257Z</time>
      </trkpt>
      <trkpt lat="48.16061" lon="-3.84387">
        <ele>79.322402</ele>
        <time>2022-12-10T17:15:10.256Z</time>
      </trkpt>
      <trkpt lat="48.16056" lon="-3.84374">
        <ele>79.334393</ele>
        <time>2022-12-10T17:15:13.252Z</time>
      </trkpt>
      <trkpt lat="48.1605" lon="-3.8436">
        <ele>79.44517</ele>
        <time>2022-12-10T17:15:16.257Z</time>
      </trkpt>
      <trkpt lat="48.16043" lon="-3.84348">
        <ele>79.556328</ele>
        <time>2022-12-10T17:15:19.258Z</time>
      </trkpt>
      <trkpt lat="48.16037" lon="-3.84335">
        <ele>79.667177</ele>
        <time>2022-12-10T17:15:22.255Z</time>
      </trkpt>
      <trkpt lat="48.16031" lon="-3.84322">
        <ele>79.775664</ele>
        <time>2022-12-10T17:15:25.255Z</time>
      </trkpt>
      <trkpt lat="48.16025" lon="-3.8431">
        <ele>79.880292</ele>
        <time>2022-12-10T17:15:28.266Z</time>
      </trkpt>
      <trkpt lat="48.16019" lon="-3.84297">
        <ele>79.987611</ele>
        <time>2022-12-10T17:15:31.272Z</time>
      </trkpt>
      <trkpt lat="48.16013" lon="-3.84284">
        <ele>80.093207</ele>
        <time>2022-12-10T17:15:34.251Z</time>
      </trkpt>
      <trkpt lat="48.16007" lon="-3.84271">
        <ele>80.202388</ele>
        <time>2022-12-10T17:15:37.268Z</time>
      </trkpt>
      <trkpt lat="48.16001" lon="-3.84259">
        <ele>80.311513</ele>
        <time>2022-12-10T17:15:40.268Z</time>
      </trkpt>
      <trkpt lat="48.15995" lon="-3.84245">
        <ele>80.419978</ele>
        <time>2022-12-10T17:15:43.251Z</time>
      </trkpt>
      <trkpt lat="48.15989" lon="-3.84232">
        <ele>80.528453</ele>
        <time>2022-12-10T17:15:46.259Z</time>
      </trkpt>
      <trkpt lat="48.15984" lon="-3.84219">
        <ele>80.633379</ele>
        <time>2022-12-10T17:15:49.267Z</time>
      </trkpt>
      <trkpt lat="48.1598" lon="-3.84206">
        <ele>80.735786</ele>
        <time>2022-12-10T17:15:52.258Z</time>
      </trkpt>
      <trkpt lat="48.15974" lon="-3.84193">
        <ele>80.838585</ele>
        <time>2022-12-10T17:15:55.251Z</time>
      </trkpt>
      <trkpt lat="48.15968" lon="-3.8418">
        <ele>80.949924</ele>
        <time>2022-12-10T17:15:58.273Z</time>
      </trkpt>
      <trkpt lat="48.15963" lon="-3.84165">
        <ele>81.062777</ele>
        <time>2022-12-10T17:16:01.259Z</time>
      </trkpt>
      <trkpt lat="48.15958" lon="-3.84152">
        <ele>81.171861</ele>
        <time>2022-12-10T17:16:04.256Z</time>
      </trkpt>
      <trkpt lat="48.15952" lon="-3.84138">
        <ele>81.253097</ele>
        <time>2022-12-10T17:16:07.259Z</time>
      </trkpt>
      <trkpt lat="48.15948" lon="-3.84125">
        <ele>81.329914</ele>
        <time>2022-12-10T17:16:10.257Z</time>
      </trkpt>
      <trkpt lat="48.15943" lon="-3.8411">
        <ele>81.410095</ele>
        <time>2022-12-10T17:16:13.268Z</time>
      </trkpt>
      <trkpt lat="48.15937" lon="-3.84097">
        <ele>81.487754</ele>
        <time>2022-12-10T17:16:16.251Z</time>
      </trkpt>
      <trkpt lat="48.15932" lon="-3.84083">
        <ele>81.569981</ele>
        <time>2022-12-10T17:16:19.263Z</time>
      </trkpt>
      <trkpt lat="48.15926" lon="-3.84069">
        <ele>81.652987</ele>
        <time>2022-12-10T17:16:22.256Z</time>
      </trkpt>
      <trkpt lat="48.15922" lon="-3.84055">
        <ele>81.728604</ele>
        <time>2022-12-10T17:16:25.254Z</time>
      </trkpt>
      <trkpt lat="48.15918" lon="-3.8404">
        <ele>81.809545</ele>
        <time>2022-12-10T17:16:28.298Z</time>
      </trkpt>
      <trkpt lat="48.15915" lon="-3.84024">
        <ele>81.892358</ele>
        <time>2022-12-10T17:16:31.252Z</time>
      </trkpt>
      <trkpt lat="48.15912" lon="-3.84008">
        <ele>81.975143</ele>
        <time>2022-12-10T17:16:34.259Z</time>
      </trkpt>
      <trkpt lat="48.15909" lon="-3.83991">
        <ele>82.06506</ele>
        <time>2022-12-10T17:16:38.266Z</time>
      </trkpt>
      <trkpt lat="48.15905" lon="-3.83973">
        <ele>82.158311</ele>
        <time>2022-12-10T17:16:42.271Z</time>
      </trkpt>
      <trkpt lat="48.15902" lon="-3.83958">
        <ele>82.238027</ele>
        <time>2022-12-10T17:16:45.265Z</time>
      </trkpt>
      <trkpt lat="48.159" lon="-3.83943">
        <ele>82.315053</ele>
        <time>2022-12-10T17:16:48.257Z</time>
      </trkpt>
      <trkpt lat="48.15898" lon="-3.83929">
        <ele>82.385231</ele>
        <time>2022-12-10T17:16:51.252Z</time>
      </trkpt>
      <trkpt lat="48.15895" lon="-3.83916">
        <ele>82.455656</ele>
        <time>2022-12-10T17:16:54.259Z</time>
      </trkpt>
      <trkpt lat="48.15893" lon="-3.83902">
        <ele>82.525502</ele>
        <time>2022-12-10T17:16:57.269Z</time>
      </trkpt>
      <trkpt lat="48.1589" lon="-3.83887">
        <ele>82.560977</ele>
        <time>2022-12-10T17:17:00.265Z</time>
      </trkpt>
      <trkpt lat="48.15888" lon="-3.83873">
        <ele>82.593737</ele>
        <time>2022-12-10T17:17:03.258Z</time>
      </trkpt>
      <trkpt lat="48.15885" lon="-3.83859">
        <ele>82.62494</ele>
        <time>2022-12-10T17:17:06.251Z</time>
      </trkpt>
      <trkpt lat="48.15882" lon="-3.83845">
        <ele>82.654756</ele>
        <time>2022-12-10T17:17:09.262Z</time>
      </trkpt>
      <trkpt lat="48.15879" lon="-3.8383">
        <ele>82.688222</ele>
        <time>2022-12-10T17:17:12.251Z</time>
      </trkpt>
      <trkpt lat="48.15876" lon="-3.83816">
        <ele>82.721187</ele>
        <time>2022-12-10T17:17:15.250Z</time>
      </trkpt>
      <trkpt lat="48.15874" lon="-3.83801">
        <ele>82.752535</ele>
        <time>2022-12-10T17:17:18.249Z</time>
      </trkpt>
      <trkpt lat="48.15871" lon="-3.83785">
        <ele>82.788109</ele>
        <time>2022-12-10T17:17:21.265Z</time>
      </trkpt>
      <trkpt lat="48.15869" lon="-3.83772">
        <ele>82.817759</ele>
        <time>2022-12-10T17:17:24.299Z</time>
      </trkpt>
      <trkpt lat="48.15866" lon="-3.83758">
        <ele>82.849357</ele>
        <time>2022-12-10T17:17:29.271Z</time>
      </trkpt>
      <trkpt lat="48.15864" lon="-3.83742">
        <ele>82.882977</ele>
        <time>2022-12-10T17:17:33.272Z</time>
      </trkpt>
      <trkpt lat="48.15863" lon="-3.83729">
        <ele>82.911848</ele>
        <time>2022-12-10T17:17:36.256Z</time>
      </trkpt>
      <trkpt lat="48.15862" lon="-3.83712">
        <ele>82.948605</ele>
        <time>2022-12-10T17:17:40.260Z</time>
      </trkpt>
      <trkpt lat="48.15861" lon="-3.83698">
        <ele>82.979384</ele>
        <time>2022-12-10T17:17:43.293Z</time>
      </trkpt>
      <trkpt lat="48.1586" lon="-3.83683">
        <ele>83.011416</ele>
        <time>2022-12-10T17:17:46.278Z</time>
      </trkpt>
      <trkpt lat="48.15859" lon="-3.83668">
        <ele>83.043448</ele>
        <time>2022-12-10T17:17:49.280Z</time>
      </trkpt>
      <trkpt lat="48.15859" lon="-3.83653">
        <ele>83.075164</ele>
        <time>2022-12-10T17:17:52.286Z</time>
      </trkpt>
      <trkpt lat="48.15859" lon="-3.83639">
        <ele>83.105809</ele>
        <time>2022-12-10T17:17:55.290Z</time>
      </trkpt>
      <trkpt lat="48.1586" lon="-3.83623">
        <ele>83.024653</ele>
        <time>2022-12-10T17:17:58.280Z</time>
      </trkpt>
      <trkpt lat="48.1586" lon="-3.83607">
        <ele>82.933549</ele>
        <time>2022-12-10T17:18:01.256Z</time>
      </trkpt>
      <trkpt lat="48.15861" lon="-3.8359">
        <ele>82.842164</ele>
        <time>2022-12-10T17:18:04.273Z</time>
      </trkpt>
      <trkpt lat="48.15862" lon="-3.83576">
        <ele>82.762938</ele>
        <time>2022-12-10T17:18:07.302Z</time>
      </trkpt>
      <trkpt lat="48.15863" lon="-3.83561">
        <ele>82.677418</ele>
        <time>2022-12-10T17:18:10.267Z</time>
      </trkpt>
      <trkpt lat="48.15864" lon="-3.83547">
        <ele>82.599115</ele>
        <time>2022-12-10T17:18:13.254Z</time>
      </trkpt>
      <trkpt lat="48.15865" lon="-3.83532">
        <ele>82.518242</ele>
        <time>2022-12-10T17:18:16.288Z</time>
      </trkpt>
      <trkpt lat="48.15866" lon="-3.83517">
        <ele>82.435555</ele>
        <time>2022-12-10T17:18:19.253Z</time>
      </trkpt>
      <trkpt lat="48.15869" lon="-3.83502">
        <ele>82.352458</ele>
        <time>2022-12-10T17:18:22.255Z</time>
      </trkpt>
      <trkpt lat="48.15871" lon="-3.83488">
        <ele>82.269725</ele>
        <time>2022-12-10T17:18:25.260Z</time>
      </trkpt>
      <trkpt lat="48.15873" lon="-3.83473">
        <ele>82.184973</ele>
        <time>2022-12-10T17:18:28.294Z</time>
      </trkpt>
      <trkpt lat="48.15875" lon="-3.83458">
        <ele>82.102925</ele>
        <time>2022-12-10T17:18:31.293Z</time>
      </trkpt>
      <trkpt lat="48.15877" lon="-3.83443">
        <ele>82.019634</ele>
        <time>2022-12-10T17:18:34.286Z</time>
      </trkpt>
      <trkpt lat="48.15879" lon="-3.83428">
        <ele>81.932588</ele>
        <time>2022-12-10T17:18:37.289Z</time>
      </trkpt>
      <trkpt lat="48.15881" lon="-3.83412">
        <ele>81.844857</ele>
        <time>2022-12-10T17:18:40.258Z</time>
      </trkpt>
      <trkpt lat="48.15883" lon="-3.83396">
        <ele>81.7529</ele>
        <time>2022-12-10T17:18:43.260Z</time>
      </trkpt>
      <trkpt lat="48.15885" lon="-3.83379">
        <ele>81.658503</ele>
        <time>2022-12-10T17:18:46.271Z</time>
      </trkpt>
      <trkpt lat="48.15886" lon="-3.83365">
        <ele>81.612698</ele>
        <time>2022-12-10T17:18:49.261Z</time>
      </trkpt>
      <trkpt lat="48.15886" lon="-3.83349">
        <ele>81.598168</ele>
        <time>2022-12-10T17:18:54.304Z</time>
      </trkpt>
      <trkpt lat="48.15887" lon="-3.83331">
        <ele>81.581679</ele>
        <time>2022-12-10T17:18:58.268Z</time>
      </trkpt>
      <trkpt lat="48.15888" lon="-3.83313">
        <ele>81.565045</ele>
        <time>2022-12-10T17:19:02.265Z</time>
      </trkpt>
      <trkpt lat="48.15889" lon="-3.83299">
        <ele>81.552203</ele>
        <time>2022-12-10T17:19:05.244Z</time>
      </trkpt>
      <trkpt lat="48.1589" lon="-3.83284">
        <ele>81.537869</ele>
        <time>2022-12-10T17:19:08.249Z</time>
      </trkpt>
      <trkpt lat="48.15892" lon="-3.83269">
        <ele>81.523968</ele>
        <time>2022-12-10T17:19:11.285Z</time>
      </trkpt>
      <trkpt lat="48.15894" lon="-3.83253">
        <ele>81.508946</ele>
        <time>2022-12-10T17:19:14.267Z</time>
      </trkpt>
      <trkpt lat="48.15896" lon="-3.83237">
        <ele>81.494371</ele>
        <time>2022-12-10T17:19:17.256Z</time>
      </trkpt>
      <trkpt lat="48.15899" lon="-3.83224">
        <ele>81.481199</ele>
        <time>2022-12-10T17:19:20.291Z</time>
      </trkpt>
      <trkpt lat="48.15903" lon="-3.83211">
        <ele>81.468543</ele>
        <time>2022-12-10T17:19:23.265Z</time>
      </trkpt>
      <trkpt lat="48.15906" lon="-3.83194">
        <ele>81.452621</ele>
        <time>2022-12-10T17:19:27.293Z</time>
      </trkpt>
      <trkpt lat="48.15908" lon="-3.83179">
        <ele>81.438581</ele>
        <time>2022-12-10T17:19:32.252Z</time>
      </trkpt>
      <trkpt lat="48.1591" lon="-3.83165">
        <ele>81.425412</ele>
        <time>2022-12-10T17:19:36.272Z</time>
      </trkpt>
      <trkpt lat="48.15913" lon="-3.83151">
        <ele>81.411756</ele>
        <time>2022-12-10T17:19:40.282Z</time>
      </trkpt>
      <trkpt lat="48.15918" lon="-3.83136">
        <ele>81.396827</ele>
        <time>2022-12-10T17:19:44.280Z</time>
      </trkpt>
      <trkpt lat="48.15922" lon="-3.83119">
        <ele>81.37958</ele>
        <time>2022-12-10T17:19:48.244Z</time>
      </trkpt>
      <trkpt lat="48.15925" lon="-3.83106">
        <ele>81.334724</ele>
        <time>2022-12-10T17:19:51.272Z</time>
      </trkpt>
      <trkpt lat="48.15927" lon="-3.83092">
        <ele>81.230864</ele>
        <time>2022-12-10T17:19:54.297Z</time>
      </trkpt>
      <trkpt lat="48.15931" lon="-3.83077">
        <ele>81.109819</ele>
        <time>2022-12-10T17:19:58.283Z</time>
      </trkpt>
      <trkpt lat="48.15936" lon="-3.8306">
        <ele>80.976429</ele>
        <time>2022-12-10T17:20:02.250Z</time>
      </trkpt>
      <trkpt lat="48.15939" lon="-3.83046">
        <ele>80.866807</ele>
        <time>2022-12-10T17:20:05.285Z</time>
      </trkpt>
      <trkpt lat="48.15942" lon="-3.83032">
        <ele>80.755451</ele>
        <time>2022-12-10T17:20:08.257Z</time>
      </trkpt>
      <trkpt lat="48.15945" lon="-3.83015">
        <ele>80.626665</ele>
        <time>2022-12-10T17:20:12.259Z</time>
      </trkpt>
      <trkpt lat="48.15946" lon="-3.83001">
        <ele>80.523563</ele>
        <time>2022-12-10T17:20:15.255Z</time>
      </trkpt>
      <trkpt lat="48.15947" lon="-3.82986">
        <ele>80.413739</ele>
        <time>2022-12-10T17:20:18.267Z</time>
      </trkpt>
      <trkpt lat="48.15948" lon="-3.82972">
        <ele>80.311865</ele>
        <time>2022-12-10T17:20:21.272Z</time>
      </trkpt>
      <trkpt lat="48.15948" lon="-3.82958">
        <ele>80.20255</ele>
        <time>2022-12-10T17:20:24.270Z</time>
      </trkpt>
      <trkpt lat="48.15948" lon="-3.8294">
        <ele>80.07481</ele>
        <time>2022-12-10T17:20:28.279Z</time>
      </trkpt>
      <trkpt lat="48.15949" lon="-3.82924">
        <ele>79.952272</ele>
        <time>2022-12-10T17:20:32.260Z</time>
      </trkpt>
      <trkpt lat="48.1595" lon="-3.8291">
        <ele>79.8478</ele>
        <time>2022-12-10T17:20:35.253Z</time>
      </trkpt>
      <trkpt lat="48.15951" lon="-3.82892">
        <ele>79.717394</ele>
        <time>2022-12-10T17:20:39.252Z</time>
      </trkpt>
      <trkpt lat="48.15952" lon="-3.82878">
        <ele>79.613746</ele>
        <time>2022-12-10T17:20:42.252Z</time>
      </trkpt>
      <trkpt lat="48.15954" lon="-3.82864">
        <ele>79.506875</ele>
        <time>2022-12-10T17:20:45.257Z</time>
      </trkpt>
      <trkpt lat="48.15955" lon="-3.82849">
        <ele>79.395055</ele>
        <time>2022-12-10T17:20:48.256Z</time>
      </trkpt>
      <trkpt lat="48.15956" lon="-3.82835">
        <ele>79.487975</ele>
        <time>2022-12-10T17:20:51.274Z</time>
      </trkpt>
      <trkpt lat="48.15957" lon="-3.82819">
        <ele>79.624581</ele>
        <time>2022-12-10T17:20:55.265Z</time>
      </trkpt>
      <trkpt lat="48.15958" lon="-3.82805">
        <ele>79.742298</ele>
        <time>2022-12-10T17:20:58.335Z</time>
      </trkpt>
      <trkpt lat="48.15958" lon="-3.8279">
        <ele>79.872506</ele>
        <time>2022-12-10T17:21:01.279Z</time>
      </trkpt>
      <trkpt lat="48.15958" lon="-3.82771">
        <ele>80.030861</ele>
        <time>2022-12-10T17:21:05.260Z</time>
      </trkpt>
      <trkpt lat="48.15957" lon="-3.82756">
        <ele>80.161373</ele>
        <time>2022-12-10T17:21:08.269Z</time>
      </trkpt>
      <trkpt lat="48.15957" lon="-3.82742">
        <ele>80.284206</ele>
        <time>2022-12-10T17:21:11.258Z</time>
      </trkpt>
      <trkpt lat="48.15955" lon="-3.82728">
        <ele>80.405198</ele>
        <time>2022-12-10T17:21:14.316Z</time>
      </trkpt>
      <trkpt lat="48.15954" lon="-3.82714">
        <ele>80.525719</ele>
        <time>2022-12-10T17:21:17.261Z</time>
      </trkpt>
      <trkpt lat="48.15953" lon="-3.82699">
        <ele>80.658282</ele>
        <time>2022-12-10T17:21:20.269Z</time>
      </trkpt>
      <trkpt lat="48.15952" lon="-3.82683">
        <ele>80.794133</ele>
        <time>2022-12-10T17:21:23.271Z</time>
      </trkpt>
      <trkpt lat="48.15951" lon="-3.82667">
        <ele>80.933653</ele>
        <time>2022-12-10T17:21:26.252Z</time>
      </trkpt>
      <trkpt lat="48.1595" lon="-3.82652">
        <ele>81.058789</ele>
        <time>2022-12-10T17:21:29.275Z</time>
      </trkpt>
      <trkpt lat="48.15949" lon="-3.82638">
        <ele>81.183173</ele>
        <time>2022-12-10T17:21:32.264Z</time>
      </trkpt>
      <trkpt lat="48.15945" lon="-3.82623">
        <ele>81.321449</ele>
        <time>2022-12-10T17:21:35.309Z</time>
      </trkpt>
      <trkpt lat="48.15941" lon="-3.82606">
        <ele>81.467257</ele>
        <time>2022-12-10T17:21:38.264Z</time>
      </trkpt>
      <trkpt lat="48.15938" lon="-3.82591">
        <ele>81.608553</ele>
        <time>2022-12-10T17:21:41.251Z</time>
      </trkpt>
      <trkpt lat="48.15934" lon="-3.82576">
        <ele>81.737019</ele>
        <time>2022-12-10T17:21:44.272Z</time>
      </trkpt>
      <trkpt lat="48.1593" lon="-3.8256">
        <ele>81.863418</ele>
        <time>2022-12-10T17:21:47.265Z</time>
      </trkpt>
      <trkpt lat="48.15927" lon="-3.82545">
        <ele>81.981051</ele>
        <time>2022-12-10T17:21:50.257Z</time>
      </trkpt>
      <trkpt lat="48.15924" lon="-3.82532">
        <ele>82.084571</ele>
        <time>2022-12-10T17:21:53.257Z</time>
      </trkpt>
      <trkpt lat="48.15921" lon="-3.82519">
        <ele>82.188823</ele>
        <time>2022-12-10T17:21:56.316Z</time>
      </trkpt>
      <trkpt lat="48.15918" lon="-3.82506">
        <ele>82.289515</ele>
        <time>2022-12-10T17:21:59.284Z</time>
      </trkpt>
      <trkpt lat="48.15916" lon="-3.82491">
        <ele>82.403941</ele>
        <time>2022-12-10T17:22:03.274Z</time>
      </trkpt>
      <trkpt lat="48.15912" lon="-3.82475">
        <ele>82.526876</ele>
        <time>2022-12-10T17:22:07.316Z</time>
      </trkpt>
      <trkpt lat="48.15908" lon="-3.82459">
        <ele>82.654769</ele>
        <time>2022-12-10T17:22:11.266Z</time>
      </trkpt>
      <trkpt lat="48.15905" lon="-3.82442">
        <ele>82.783384</ele>
        <time>2022-12-10T17:22:15.253Z</time>
      </trkpt>
      <trkpt lat="48.15902" lon="-3.82429">
        <ele>82.889062</ele>
        <time>2022-12-10T17:22:18.292Z</time>
      </trkpt>
      <trkpt lat="48.159" lon="-3.82416">
        <ele>82.990466</ele>
        <time>2022-12-10T17:22:21.283Z</time>
      </trkpt>
      <trkpt lat="48.15896" lon="-3.824">
        <ele>83.113265</ele>
        <time>2022-12-10T17:22:25.258Z</time>
      </trkpt>
      <trkpt lat="48.15892" lon="-3.82384">
        <ele>83.245029</ele>
        <time>2022-12-10T17:22:29.244Z</time>
      </trkpt>
      <trkpt lat="48.15889" lon="-3.8237">
        <ele>83.347856</ele>
        <time>2022-12-10T17:22:32.253Z</time>
      </trkpt>
      <trkpt lat="48.15887" lon="-3.82356">
        <ele>83.457233</ele>
        <time>2022-12-10T17:22:35.274Z</time>
      </trkpt>
      <trkpt lat="48.15884" lon="-3.82341">
        <ele>83.572944</ele>
        <time>2022-12-10T17:22:38.262Z</time>
      </trkpt>
      <trkpt lat="48.15882" lon="-3.82326">
        <ele>83.689751</ele>
        <time>2022-12-10T17:22:41.273Z</time>
      </trkpt>
      <trkpt lat="48.15879" lon="-3.8231">
        <ele>83.710869</ele>
        <time>2022-12-10T17:22:44.258Z</time>
      </trkpt>
      <trkpt lat="48.15878" lon="-3.82295">
        <ele>83.72543</ele>
        <time>2022-12-10T17:22:47.273Z</time>
      </trkpt>
      <trkpt lat="48.15875" lon="-3.82279">
        <ele>83.740318</ele>
        <time>2022-12-10T17:22:50.265Z</time>
      </trkpt>
      <trkpt lat="48.15874" lon="-3.82262">
        <ele>83.755424</ele>
        <time>2022-12-10T17:22:53.285Z</time>
      </trkpt>
      <trkpt lat="48.15873" lon="-3.82247">
        <ele>83.769597</ele>
        <time>2022-12-10T17:22:56.325Z</time>
      </trkpt>
      <trkpt lat="48.15873" lon="-3.82232">
        <ele>83.783717</ele>
        <time>2022-12-10T17:22:59.263Z</time>
      </trkpt>
      <trkpt lat="48.15874" lon="-3.82217">
        <ele>83.797676</ele>
        <time>2022-12-10T17:23:02.279Z</time>
      </trkpt>
      <trkpt lat="48.15877" lon="-3.82202">
        <ele>83.811252</ele>
        <time>2022-12-10T17:23:05.252Z</time>
      </trkpt>
      <trkpt lat="48.15881" lon="-3.82188">
        <ele>83.825607</ele>
        <time>2022-12-10T17:23:08.284Z</time>
      </trkpt>
      <trkpt lat="48.15886" lon="-3.82174">
        <ele>83.839976</ele>
        <time>2022-12-10T17:23:11.270Z</time>
      </trkpt>
      <trkpt lat="48.15899" lon="-3.82151">
        <ele>83.867334</ele>
        <time>2022-12-10T17:24:23.271Z</time>
      </trkpt>
      <trkpt lat="48.15906" lon="-3.82139">
        <ele>83.882476</ele>
        <time>2022-12-10T17:24:27.270Z</time>
      </trkpt>
      <trkpt lat="48.15912" lon="-3.82128">
        <ele>83.895241</ele>
        <time>2022-12-10T17:24:30.261Z</time>
      </trkpt>
      <trkpt lat="48.15919" lon="-3.82119">
        <ele>83.907933</ele>
        <time>2022-12-10T17:24:33.264Z</time>
      </trkpt>
      <trkpt lat="48.15928" lon="-3.82108">
        <ele>83.92388</ele>
        <time>2022-12-10T17:24:37.262Z</time>
      </trkpt>
      <trkpt lat="48.15935" lon="-3.821">
        <ele>83.936425</ele>
        <time>2022-12-10T17:24:40.253Z</time>
      </trkpt>
      <trkpt lat="48.15944" lon="-3.82091">
        <ele>83.907003</ele>
        <time>2022-12-10T17:24:43.255Z</time>
      </trkpt>
      <trkpt lat="48.15953" lon="-3.8208">
        <ele>83.812062</ele>
        <time>2022-12-10T17:24:46.271Z</time>
      </trkpt>
      <trkpt lat="48.15962" lon="-3.82071">
        <ele>83.727653</ele>
        <time>2022-12-10T17:24:49.256Z</time>
      </trkpt>
      <trkpt lat="48.15972" lon="-3.82063">
        <ele>83.641799</ele>
        <time>2022-12-10T17:24:52.257Z</time>
      </trkpt>
      <trkpt lat="48.15981" lon="-3.82053">
        <ele>83.555359</ele>
        <time>2022-12-10T17:24:55.262Z</time>
      </trkpt>
      <trkpt lat="48.1599" lon="-3.82043">
        <ele>83.467248</ele>
        <time>2022-12-10T17:24:58.255Z</time>
      </trkpt>
      <trkpt lat="48.15999" lon="-3.82033">
        <ele>83.380777</ele>
        <time>2022-12-10T17:25:01.257Z</time>
      </trkpt>
      <trkpt lat="48.16007" lon="-3.82024">
        <ele>83.301558</ele>
        <time>2022-12-10T17:25:04.261Z</time>
      </trkpt>
      <trkpt lat="48.16015" lon="-3.82014">
        <ele>83.218375</ele>
        <time>2022-12-10T17:25:07.254Z</time>
      </trkpt>
      <trkpt lat="48.16022" lon="-3.82002">
        <ele>83.134268</ele>
        <time>2022-12-10T17:25:10.255Z</time>
      </trkpt>
      <trkpt lat="48.16029" lon="-3.81989">
        <ele>83.048715</ele>
        <time>2022-12-10T17:25:13.254Z</time>
      </trkpt>
      <trkpt lat="48.16035" lon="-3.81977">
        <ele>82.968401</ele>
        <time>2022-12-10T17:25:16.256Z</time>
      </trkpt>
      <trkpt lat="48.16041" lon="-3.81965">
        <ele>82.889302</ele>
        <time>2022-12-10T17:25:19.257Z</time>
      </trkpt>
      <trkpt lat="48.16048" lon="-3.81953">
        <ele>82.804375</ele>
        <time>2022-12-10T17:25:22.261Z</time>
      </trkpt>
      <trkpt lat="48.16055" lon="-3.8194">
        <ele>82.718865</ele>
        <time>2022-12-10T17:25:25.250Z</time>
      </trkpt>
      <trkpt lat="48.16061" lon="-3.81927">
        <ele>82.63546</ele>
        <time>2022-12-10T17:25:28.260Z</time>
      </trkpt>
      <trkpt lat="48.16067" lon="-3.81914">
        <ele>82.551164</ele>
        <time>2022-12-10T17:25:31.260Z</time>
      </trkpt>
      <trkpt lat="48.16074" lon="-3.81903">
        <ele>82.580985</ele>
        <time>2022-12-10T17:25:34.251Z</time>
      </trkpt>
      <trkpt lat="48.16081" lon="-3.81893">
        <ele>82.642514</ele>
        <time>2022-12-10T17:25:37.255Z</time>
      </trkpt>
      <trkpt lat="48.1609" lon="-3.81881">
        <ele>82.72157</ele>
        <time>2022-12-10T17:25:41.252Z</time>
      </trkpt>
      <trkpt lat="48.16098" lon="-3.81872">
        <ele>82.787979</ele>
        <time>2022-12-10T17:25:44.266Z</time>
      </trkpt>
      <trkpt lat="48.16108" lon="-3.81864">
        <ele>82.859812</ele>
        <time>2022-12-10T17:25:47.253Z</time>
      </trkpt>
      <trkpt lat="48.16117" lon="-3.81857">
        <ele>82.9282</ele>
        <time>2022-12-10T17:25:50.272Z</time>
      </trkpt>
      <trkpt lat="48.16126" lon="-3.8185">
        <ele>82.994047</ele>
        <time>2022-12-10T17:25:53.262Z</time>
      </trkpt>
      <trkpt lat="48.16136" lon="-3.81847">
        <ele>83.060601</ele>
        <time>2022-12-10T17:25:56.250Z</time>
      </trkpt>
      <trkpt lat="48.16145" lon="-3.81845">
        <ele>83.124379</ele>
        <time>2022-12-10T17:25:59.245Z</time>
      </trkpt>
      <trkpt lat="48.16155" lon="-3.81846">
        <ele>83.184723</ele>
        <time>2022-12-10T17:26:02.251Z</time>
      </trkpt>
      <trkpt lat="48.16163" lon="-3.81849">
        <ele>83.24332</ele>
        <time>2022-12-10T17:26:05.257Z</time>
      </trkpt>
      <trkpt lat="48.16172" lon="-3.81853">
        <ele>83.304332</ele>
        <time>2022-12-10T17:26:08.258Z</time>
      </trkpt>
      <trkpt lat="48.16182" lon="-3.81858">
        <ele>83.370999</ele>
        <time>2022-12-10T17:26:11.249Z</time>
      </trkpt>
      <trkpt lat="48.16191" lon="-3.81863">
        <ele>83.437575</ele>
        <time>2022-12-10T17:26:14.265Z</time>
      </trkpt>
      <trkpt lat="48.162" lon="-3.81868">
        <ele>83.499089</ele>
        <time>2022-12-10T17:26:17.263Z</time>
      </trkpt>
      <trkpt lat="48.16211" lon="-3.81874">
        <ele>83.576262</ele>
        <time>2022-12-10T17:26:21.259Z</time>
      </trkpt>
      <trkpt lat="48.1622" lon="-3.81879">
        <ele>83.638543</ele>
        <time>2022-12-10T17:26:24.257Z</time>
      </trkpt>
      <trkpt lat="48.16229" lon="-3.81883">
        <ele>83.698675</ele>
        <time>2022-12-10T17:26:27.249Z</time>
      </trkpt>
      <trkpt lat="48.16238" lon="-3.81887">
        <ele>83.639472</ele>
        <time>2022-12-10T17:26:30.252Z</time>
      </trkpt>
      <trkpt lat="48.16249" lon="-3.81893">
        <ele>83.531048</ele>
        <time>2022-12-10T17:26:34.258Z</time>
      </trkpt>
      <trkpt lat="48.1626" lon="-3.81897">
        <ele>83.427391</ele>
        <time>2022-12-10T17:26:38.268Z</time>
      </trkpt>
      <trkpt lat="48.16271" lon="-3.81902">
        <ele>83.32125</ele>
        <time>2022-12-10T17:26:42.254Z</time>
      </trkpt>
      <trkpt lat="48.1628" lon="-3.81907">
        <ele>83.230815</ele>
        <time>2022-12-10T17:26:45.255Z</time>
      </trkpt>
      <trkpt lat="48.16289" lon="-3.81912">
        <ele>83.143616</ele>
        <time>2022-12-10T17:26:48.256Z</time>
      </trkpt>
      <trkpt lat="48.16298" lon="-3.81916">
        <ele>83.050757</ele>
        <time>2022-12-10T17:26:51.256Z</time>
      </trkpt>
      <trkpt lat="48.16307" lon="-3.81921">
        <ele>82.963447</ele>
        <time>2022-12-10T17:26:54.276Z</time>
      </trkpt>
      <trkpt lat="48.16318" lon="-3.81926">
        <ele>82.857495</ele>
        <time>2022-12-10T17:26:58.256Z</time>
      </trkpt>
      <trkpt lat="48.16327" lon="-3.8193">
        <ele>82.774272</ele>
        <time>2022-12-10T17:27:01.270Z</time>
      </trkpt>
      <trkpt lat="48.16338" lon="-3.81936">
        <ele>82.6678</ele>
        <time>2022-12-10T17:27:05.261Z</time>
      </trkpt>
      <trkpt lat="48.16347" lon="-3.8194">
        <ele>82.574447</ele>
        <time>2022-12-10T17:27:08.258Z</time>
      </trkpt>
      <trkpt lat="48.16357" lon="-3.81945">
        <ele>82.479635</ele>
        <time>2022-12-10T17:27:11.257Z</time>
      </trkpt>
      <trkpt lat="48.16367" lon="-3.81949">
        <ele>82.385225</ele>
        <time>2022-12-10T17:27:14.259Z</time>
      </trkpt>
      <trkpt lat="48.16376" lon="-3.81953">
        <ele>82.298617</ele>
        <time>2022-12-10T17:27:17.268Z</time>
      </trkpt>
      <trkpt lat="48.16385" lon="-3.81957">
        <ele>82.212901</ele>
        <time>2022-12-10T17:27:20.270Z</time>
      </trkpt>
      <trkpt lat="48.16393" lon="-3.8196">
        <ele>82.130071</ele>
        <time>2022-12-10T17:27:23.262Z</time>
      </trkpt>
      <trkpt lat="48.16403" lon="-3.81964">
        <ele>82.044912</ele>
        <time>2022-12-10T17:27:26.252Z</time>
      </trkpt>
      <trkpt lat="48.16412" lon="-3.81969">
        <ele>82.09653</ele>
        <time>2022-12-10T17:27:29.263Z</time>
      </trkpt>
      <trkpt lat="48.16421" lon="-3.81972">
        <ele>82.144919</ele>
        <time>2022-12-10T17:27:32.250Z</time>
      </trkpt>
      <trkpt lat="48.1643" lon="-3.81977">
        <ele>82.193418</ele>
        <time>2022-12-10T17:27:35.263Z</time>
      </trkpt>
      <trkpt lat="48.16439" lon="-3.81979">
        <ele>82.243334</ele>
        <time>2022-12-10T17:27:38.249Z</time>
      </trkpt>
      <trkpt lat="48.16449" lon="-3.81982">
        <ele>82.293135</ele>
        <time>2022-12-10T17:27:41.255Z</time>
      </trkpt>
      <trkpt lat="48.16459" lon="-3.81983">
        <ele>82.346329</ele>
        <time>2022-12-10T17:27:44.249Z</time>
      </trkpt>
      <trkpt lat="48.16469" lon="-3.81984">
        <ele>82.398654</ele>
        <time>2022-12-10T17:27:47.252Z</time>
      </trkpt>
      <trkpt lat="48.16479" lon="-3.81985">
        <ele>82.448355</ele>
        <time>2022-12-10T17:27:50.270Z</time>
      </trkpt>
      <trkpt lat="48.16488" lon="-3.81985">
        <ele>82.497003</ele>
        <time>2022-12-10T17:27:53.251Z</time>
      </trkpt>
      <trkpt lat="48.16498" lon="-3.81985">
        <ele>82.546168</ele>
        <time>2022-12-10T17:27:56.270Z</time>
      </trkpt>
      <trkpt lat="48.16508" lon="-3.81985">
        <ele>82.597922</ele>
        <time>2022-12-10T17:27:59.254Z</time>
      </trkpt>
      <trkpt lat="48.16518" lon="-3.81984">
        <ele>82.651298</ele>
        <time>2022-12-10T17:28:02.270Z</time>
      </trkpt>
      <trkpt lat="48.16528" lon="-3.81983">
        <ele>82.703275</ele>
        <time>2022-12-10T17:28:05.258Z</time>
      </trkpt>
      <trkpt lat="48.16538" lon="-3.8198">
        <ele>82.756094</ele>
        <time>2022-12-10T17:28:08.256Z</time>
      </trkpt>
      <trkpt lat="48.16548" lon="-3.81979">
        <ele>82.808692</ele>
        <time>2022-12-10T17:28:11.254Z</time>
      </trkpt>
      <trkpt lat="48.16557" lon="-3.81977">
        <ele>82.855682</ele>
        <time>2022-12-10T17:28:14.258Z</time>
      </trkpt>
      <trkpt lat="48.16567" lon="-3.81976">
        <ele>82.907599</ele>
        <time>2022-12-10T17:28:17.264Z</time>
      </trkpt>
      <trkpt lat="48.16577" lon="-3.81974">
        <ele>82.957807</ele>
        <time>2022-12-10T17:28:20.265Z</time>
      </trkpt>
      <trkpt lat="48.16587" lon="-3.81971">
        <ele>83.004418</ele>
        <time>2022-12-10T17:28:23.257Z</time>
      </trkpt>
      <trkpt lat="48.16597" lon="-3.81969">
        <ele>83.0484</ele>
        <time>2022-12-10T17:28:26.265Z</time>
      </trkpt>
      <trkpt lat="48.16606" lon="-3.81967">
        <ele>83.088735</ele>
        <time>2022-12-10T17:28:29.253Z</time>
      </trkpt>
      <trkpt lat="48.16615" lon="-3.81965">
        <ele>83.130291</ele>
        <time>2022-12-10T17:28:32.251Z</time>
      </trkpt>
      <trkpt lat="48.16625" lon="-3.81963">
        <ele>83.172467</ele>
        <time>2022-12-10T17:28:35.256Z</time>
      </trkpt>
      <trkpt lat="48.16634" lon="-3.8196">
        <ele>83.214023</ele>
        <time>2022-12-10T17:28:38.255Z</time>
      </trkpt>
      <trkpt lat="48.16644" lon="-3.81958">
        <ele>83.25749</ele>
        <time>2022-12-10T17:28:41.255Z</time>
      </trkpt>
      <trkpt lat="48.16654" lon="-3.81954">
        <ele>83.301355</ele>
        <time>2022-12-10T17:28:44.245Z</time>
      </trkpt>
      <trkpt lat="48.16664" lon="-3.81952">
        <ele>83.344434</ele>
        <time>2022-12-10T17:28:47.264Z</time>
      </trkpt>
      <trkpt lat="48.16673" lon="-3.81949">
        <ele>83.387066</ele>
        <time>2022-12-10T17:28:50.256Z</time>
      </trkpt>
      <trkpt lat="48.16683" lon="-3.81946">
        <ele>83.429698</ele>
        <time>2022-12-10T17:28:53.257Z</time>
      </trkpt>
      <trkpt lat="48.16693" lon="-3.81943">
        <ele>83.472756</ele>
        <time>2022-12-10T17:28:56.263Z</time>
      </trkpt>
      <trkpt lat="48.16702" lon="-3.81939">
        <ele>83.516649</ele>
        <time>2022-12-10T17:28:59.255Z</time>
      </trkpt>
      <trkpt lat="48.16712" lon="-3.81935">
        <ele>83.56104</ele>
        <time>2022-12-10T17:29:02.262Z</time>
      </trkpt>
      <trkpt lat="48.16722" lon="-3.8193">
        <ele>83.606847</ele>
        <time>2022-12-10T17:29:05.262Z</time>
      </trkpt>
      <trkpt lat="48.16732" lon="-3.81925">
        <ele>83.652451</ele>
        <time>2022-12-10T17:29:08.255Z</time>
      </trkpt>
      <trkpt lat="48.16742" lon="-3.8192">
        <ele>83.699104</ele>
        <time>2022-12-10T17:29:11.248Z</time>
      </trkpt>
      <trkpt lat="48.16753" lon="-3.81915">
        <ele>83.74491</ele>
        <time>2022-12-10T17:29:14.253Z</time>
      </trkpt>
      <trkpt lat="48.16763" lon="-3.81911">
        <ele>83.72442</ele>
        <time>2022-12-10T17:29:17.257Z</time>
      </trkpt>
      <trkpt lat="48.16773" lon="-3.81906">
        <ele>83.680267</ele>
        <time>2022-12-10T17:29:20.256Z</time>
      </trkpt>
      <trkpt lat="48.16784" lon="-3.81905">
        <ele>83.63705</ele>
        <time>2022-12-10T17:29:23.249Z</time>
      </trkpt>
      <trkpt lat="48.16794" lon="-3.81903">
        <ele>83.596812</ele>
        <time>2022-12-10T17:29:26.256Z</time>
      </trkpt>
      <trkpt lat="48.16803" lon="-3.81901">
        <ele>83.55921</ele>
        <time>2022-12-10T17:29:29.268Z</time>
      </trkpt>
      <trkpt lat="48.16813" lon="-3.81899">
        <ele>83.519492</ele>
        <time>2022-12-10T17:29:32.250Z</time>
      </trkpt>
      <trkpt lat="48.16822" lon="-3.81898">
        <ele>83.481602</ele>
        <time>2022-12-10T17:29:35.270Z</time>
      </trkpt>
      <trkpt lat="48.16831" lon="-3.81895">
        <ele>83.44305</ele>
        <time>2022-12-10T17:29:38.261Z</time>
      </trkpt>
      <trkpt lat="48.16841" lon="-3.81894">
        <ele>83.401356</ele>
        <time>2022-12-10T17:29:41.257Z</time>
      </trkpt>
      <trkpt lat="48.16852" lon="-3.81892">
        <ele>83.359694</ele>
        <time>2022-12-10T17:29:44.269Z</time>
      </trkpt>
      <trkpt lat="48.16862" lon="-3.8189">
        <ele>83.318032</ele>
        <time>2022-12-10T17:29:47.257Z</time>
      </trkpt>
      <trkpt lat="48.16871" lon="-3.81889">
        <ele>83.280546</ele>
        <time>2022-12-10T17:29:50.269Z</time>
      </trkpt>
      <trkpt lat="48.16882" lon="-3.81887">
        <ele>83.234932</ele>
        <time>2022-12-10T17:29:54.255Z</time>
      </trkpt>
      <trkpt lat="48.16894" lon="-3.81887">
        <ele>83.188276</ele>
        <time>2022-12-10T17:29:58.269Z</time>
      </trkpt>
      <trkpt lat="48.16906" lon="-3.81888">
        <ele>83.13956</ele>
        <time>2022-12-10T17:30:02.252Z</time>
      </trkpt>
      <trkpt lat="48.16916" lon="-3.8189">
        <ele>83.098415</ele>
        <time>2022-12-10T17:30:06.261Z</time>
      </trkpt>
      <trkpt lat="48.16927" lon="-3.81888">
        <ele>83.051969</ele>
        <time>2022-12-10T17:30:10.253Z</time>
      </trkpt>
      <trkpt lat="48.16938" lon="-3.81887">
        <ele>83.040453</ele>
        <time>2022-12-10T17:30:14.261Z</time>
      </trkpt>
      <trkpt lat="48.16948" lon="-3.81888">
        <ele>83.07418</ele>
        <time>2022-12-10T17:30:18.266Z</time>
      </trkpt>
      <trkpt lat="48.16957" lon="-3.81889">
        <ele>83.10237</ele>
        <time>2022-12-10T17:30:21.254Z</time>
      </trkpt>
      <trkpt lat="48.16967" lon="-3.81889">
        <ele>83.132012</ele>
        <time>2022-12-10T17:30:24.263Z</time>
      </trkpt>
      <trkpt lat="48.16976" lon="-3.81888">
        <ele>83.161064</ele>
        <time>2022-12-10T17:30:27.259Z</time>
      </trkpt>
      <trkpt lat="48.16985" lon="-3.81888">
        <ele>83.189468</ele>
        <time>2022-12-10T17:30:30.249Z</time>
      </trkpt>
      <trkpt lat="48.16997" lon="-3.81889">
        <ele>83.226031</ele>
        <time>2022-12-10T17:30:34.253Z</time>
      </trkpt>
      <trkpt lat="48.17007" lon="-3.81889">
        <ele>83.255994</ele>
        <time>2022-12-10T17:30:37.257Z</time>
      </trkpt>
      <trkpt lat="48.17017" lon="-3.81889">
        <ele>83.286882</ele>
        <time>2022-12-10T17:30:40.254Z</time>
      </trkpt>
      <trkpt lat="48.17026" lon="-3.81889">
        <ele>83.31621</ele>
        <time>2022-12-10T17:30:43.269Z</time>
      </trkpt>
      <trkpt lat="48.17036" lon="-3.81889">
        <ele>83.346786</ele>
        <time>2022-12-10T17:30:46.268Z</time>
      </trkpt>
      <trkpt lat="48.17046" lon="-3.81889">
        <ele>83.378921</ele>
        <time>2022-12-10T17:30:49.259Z</time>
      </trkpt>
      <trkpt lat="48.17056" lon="-3.81888">
        <ele>83.410843</ele>
        <time>2022-12-10T17:30:52.257Z</time>
      </trkpt>
      <trkpt lat="48.17067" lon="-3.81887">
        <ele>83.444319</ele>
        <time>2022-12-10T17:30:55.254Z</time>
      </trkpt>
      <trkpt lat="48.17078" lon="-3.81885">
        <ele>83.477848</ele>
        <time>2022-12-10T17:30:58.271Z</time>
      </trkpt>
      <trkpt lat="48.17088" lon="-3.81883">
        <ele>83.510561</ele>
        <time>2022-12-10T17:31:01.254Z</time>
      </trkpt>
      <trkpt lat="48.17098" lon="-3.81881">
        <ele>83.542095</ele>
        <time>2022-12-10T17:31:04.252Z</time>
      </trkpt>
      <trkpt lat="48.17108" lon="-3.8188">
        <ele>83.573722</ele>
        <time>2022-12-10T17:31:07.256Z</time>
      </trkpt>
      <trkpt lat="48.17118" lon="-3.81879">
        <ele>83.60963</ele>
        <time>2022-12-10T17:31:10.253Z</time>
      </trkpt>
      <trkpt lat="48.17128" lon="-3.81877">
        <ele>83.645341</ele>
        <time>2022-12-10T17:31:13.263Z</time>
      </trkpt>
      <trkpt lat="48.17138" lon="-3.81875">
        <ele>83.684712</ele>
        <time>2022-12-10T17:31:16.255Z</time>
      </trkpt>
      <trkpt lat="48.17148" lon="-3.81873">
        <ele>83.722992</ele>
        <time>2022-12-10T17:31:19.256Z</time>
      </trkpt>
      <trkpt lat="48.17158" lon="-3.81872">
        <ele>83.763444</ele>
        <time>2022-12-10T17:31:23.272Z</time>
      </trkpt>
      <trkpt lat="48.17169" lon="-3.81871">
        <ele>83.805517</ele>
        <time>2022-12-10T17:31:27.254Z</time>
      </trkpt>
      <trkpt lat="48.17178" lon="-3.8187">
        <ele>83.840882</ele>
        <time>2022-12-10T17:31:30.263Z</time>
      </trkpt>
      <trkpt lat="48.17188" lon="-3.81871">
        <ele>83.878216</ele>
        <time>2022-12-10T17:31:34.255Z</time>
      </trkpt>
      <trkpt lat="48.17199" lon="-3.81869">
        <ele>83.921818</ele>
        <time>2022-12-10T17:31:38.275Z</time>
      </trkpt>
      <trkpt lat="48.17209" lon="-3.81868">
        <ele>83.958488</ele>
        <time>2022-12-10T17:31:41.254Z</time>
      </trkpt>
      <trkpt lat="48.17219" lon="-3.81867">
        <ele>83.997812</ele>
        <time>2022-12-10T17:31:44.259Z</time>
      </trkpt>
      <trkpt lat="48.17228" lon="-3.81866">
        <ele>84.033287</ele>
        <time>2022-12-10T17:31:47.247Z</time>
      </trkpt>
      <trkpt lat="48.17238" lon="-3.81865">
        <ele>84.071733</ele>
        <time>2022-12-10T17:31:50.256Z</time>
      </trkpt>
      <trkpt lat="48.17249" lon="-3.81863">
        <ele>84.113423</ele>
        <time>2022-12-10T17:31:53.256Z</time>
      </trkpt>
      <trkpt lat="48.17259" lon="-3.81863">
        <ele>84.15266</ele>
        <time>2022-12-10T17:31:56.255Z</time>
      </trkpt>
      <trkpt lat="48.17268" lon="-3.81862">
        <ele>84.188478</ele>
        <time>2022-12-10T17:31:59.253Z</time>
      </trkpt>
      <trkpt lat="48.1728" lon="-3.81861">
        <ele>84.231195</ele>
        <time>2022-12-10T17:32:03.262Z</time>
      </trkpt>
      <trkpt lat="48.17289" lon="-3.81859">
        <ele>84.266288</ele>
        <time>2022-12-10T17:32:06.256Z</time>
      </trkpt>
      <trkpt lat="48.17301" lon="-3.81858">
        <ele>84.258816</ele>
        <time>2022-12-10T17:32:10.255Z</time>
      </trkpt>
      <trkpt lat="48.1731" lon="-3.81857">
        <ele>84.236972</ele>
        <time>2022-12-10T17:32:13.266Z</time>
      </trkpt>
      <trkpt lat="48.17319" lon="-3.81857">
        <ele>84.215147</ele>
        <time>2022-12-10T17:32:16.256Z</time>
      </trkpt>
      <trkpt lat="48.17328" lon="-3.81858">
        <ele>84.193548</ele>
        <time>2022-12-10T17:32:19.261Z</time>
      </trkpt>
      <trkpt lat="48.1734" lon="-3.81858">
        <ele>84.16509</ele>
        <time>2022-12-10T17:32:23.258Z</time>
      </trkpt>
      <trkpt lat="48.17349" lon="-3.81858">
        <ele>84.14301</ele>
        <time>2022-12-10T17:32:26.254Z</time>
      </trkpt>
      <trkpt lat="48.17359" lon="-3.81859">
        <ele>84.119758</ele>
        <time>2022-12-10T17:32:29.256Z</time>
      </trkpt>
      <trkpt lat="48.17369" lon="-3.8186">
        <ele>84.096026</ele>
        <time>2022-12-10T17:32:32.258Z</time>
      </trkpt>
      <trkpt lat="48.17379" lon="-3.81859">
        <ele>84.072774</ele>
        <time>2022-12-10T17:32:35.261Z</time>
      </trkpt>
      <trkpt lat="48.17389" lon="-3.81859">
        <ele>84.050001</ele>
        <time>2022-12-10T17:32:38.247Z</time>
      </trkpt>
      <trkpt lat="48.17398" lon="-3.81859">
        <ele>84.026973</ele>
        <time>2022-12-10T17:32:41.255Z</time>
      </trkpt>
      <trkpt lat="48.17408" lon="-3.8186">
        <ele>84.004418</ele>
        <time>2022-12-10T17:32:44.254Z</time>
      </trkpt>
      <trkpt lat="48.17418" lon="-3.8186">
        <ele>83.98046</ele>
        <time>2022-12-10T17:32:47.260Z</time>
      </trkpt>
      <trkpt lat="48.17428" lon="-3.81861">
        <ele>83.956003</ele>
        <time>2022-12-10T17:32:50.265Z</time>
      </trkpt>
      <trkpt lat="48.17439" lon="-3.81862">
        <ele>83.929613</ele>
        <time>2022-12-10T17:32:53.254Z</time>
      </trkpt>
      <trkpt lat="48.17449" lon="-3.81864">
        <ele>83.905546</ele>
        <time>2022-12-10T17:32:56.262Z</time>
      </trkpt>
      <trkpt lat="48.1746" lon="-3.81865">
        <ele>83.88106</ele>
        <time>2022-12-10T17:32:59.257Z</time>
      </trkpt>
      <trkpt lat="48.1747" lon="-3.81866">
        <ele>83.856129</ele>
        <time>2022-12-10T17:33:02.253Z</time>
      </trkpt>
      <trkpt lat="48.1748" lon="-3.81867">
        <ele>83.817408</ele>
        <time>2022-12-10T17:33:05.262Z</time>
      </trkpt>
      <trkpt lat="48.1749" lon="-3.81869">
        <ele>83.773094</ele>
        <time>2022-12-10T17:33:09.266Z</time>
      </trkpt>
      <trkpt lat="48.17502" lon="-3.81869">
        <ele>83.726432</ele>
        <time>2022-12-10T17:33:13.265Z</time>
      </trkpt>
      <trkpt lat="48.17513" lon="-3.8187">
        <ele>83.67879</ele>
        <time>2022-12-10T17:33:17.271Z</time>
      </trkpt>
      <trkpt lat="48.17524" lon="-3.81871">
        <ele>83.629975</ele>
        <time>2022-12-10T17:33:21.259Z</time>
      </trkpt>
      <trkpt lat="48.17536" lon="-3.81872">
        <ele>83.580657</ele>
        <time>2022-12-10T17:33:25.255Z</time>
      </trkpt>
      <trkpt lat="48.17548" lon="-3.81872">
        <ele>83.530631</ele>
        <time>2022-12-10T17:33:29.259Z</time>
      </trkpt>
      <trkpt lat="48.17557" lon="-3.81873">
        <ele>83.490996</ele>
        <time>2022-12-10T17:33:32.256Z</time>
      </trkpt>
      <trkpt lat="48.17567" lon="-3.81873">
        <ele>83.45022</ele>
        <time>2022-12-10T17:33:35.264Z</time>
      </trkpt>
      <trkpt lat="48.17576" lon="-3.81874">
        <ele>83.41148</ele>
        <time>2022-12-10T17:33:38.262Z</time>
      </trkpt>
      <trkpt lat="48.17586" lon="-3.81874">
        <ele>83.372805</ele>
        <time>2022-12-10T17:33:41.252Z</time>
      </trkpt>
      <trkpt lat="48.17595" lon="-3.81874">
        <ele>83.334954</ele>
        <time>2022-12-10T17:33:44.273Z</time>
      </trkpt>
      <trkpt lat="48.17604" lon="-3.81873">
        <ele>83.295003</ele>
        <time>2022-12-10T17:33:47.274Z</time>
      </trkpt>
      <trkpt lat="48.17614" lon="-3.81873">
        <ele>83.25292</ele>
        <time>2022-12-10T17:33:50.291Z</time>
      </trkpt>
      <trkpt lat="48.17624" lon="-3.81872">
        <ele>83.211257</ele>
        <time>2022-12-10T17:33:53.293Z</time>
      </trkpt>
      <trkpt lat="48.17635" lon="-3.81872">
        <ele>83.165012</ele>
        <time>2022-12-10T17:33:57.275Z</time>
      </trkpt>
      <trkpt lat="48.17644" lon="-3.81871">
        <ele>83.124958</ele>
        <time>2022-12-10T17:34:00.276Z</time>
      </trkpt>
      <trkpt lat="48.17654" lon="-3.8187">
        <ele>83.126885</ele>
        <time>2022-12-10T17:34:03.280Z</time>
      </trkpt>
      <trkpt lat="48.17663" lon="-3.81869">
        <ele>83.228167</ele>
        <time>2022-12-10T17:34:06.279Z</time>
      </trkpt>
      <trkpt lat="48.17673" lon="-3.81866">
        <ele>83.33978</ele>
        <time>2022-12-10T17:34:09.278Z</time>
      </trkpt>
      <trkpt lat="48.17684" lon="-3.81864">
        <ele>83.456533</ele>
        <time>2022-12-10T17:34:12.260Z</time>
      </trkpt>
      <trkpt lat="48.17694" lon="-3.81863">
        <ele>83.573966</ele>
        <time>2022-12-10T17:34:15.263Z</time>
      </trkpt>
      <trkpt lat="48.17706" lon="-3.81861">
        <ele>83.699584</ele>
        <time>2022-12-10T17:34:19.262Z</time>
      </trkpt>
      <trkpt lat="48.17718" lon="-3.81858">
        <ele>83.830223</ele>
        <time>2022-12-10T17:34:23.282Z</time>
      </trkpt>
      <trkpt lat="48.1773" lon="-3.81857">
        <ele>83.96071</ele>
        <time>2022-12-10T17:34:27.263Z</time>
      </trkpt>
      <trkpt lat="48.17741" lon="-3.81854">
        <ele>84.091137</ele>
        <time>2022-12-10T17:34:31.288Z</time>
      </trkpt>
      <trkpt lat="48.1775" lon="-3.81854">
        <ele>84.190862</ele>
        <time>2022-12-10T17:34:34.275Z</time>
      </trkpt>
      <trkpt lat="48.17762" lon="-3.81852">
        <ele>84.318496</ele>
        <time>2022-12-10T17:34:38.253Z</time>
      </trkpt>
      <trkpt lat="48.17771" lon="-3.81851">
        <ele>84.418307</ele>
        <time>2022-12-10T17:34:41.291Z</time>
      </trkpt>
      <trkpt lat="48.17783" lon="-3.81849">
        <ele>84.549282</ele>
        <time>2022-12-10T17:34:45.259Z</time>
      </trkpt>
      <trkpt lat="48.17792" lon="-3.81848">
        <ele>84.652532</ele>
        <time>2022-12-10T17:34:48.279Z</time>
      </trkpt>
      <trkpt lat="48.17804" lon="-3.81846">
        <ele>84.777063</ele>
        <time>2022-12-10T17:34:52.253Z</time>
      </trkpt>
      <trkpt lat="48.17814" lon="-3.81844">
        <ele>84.888296</ele>
        <time>2022-12-10T17:34:56.268Z</time>
      </trkpt>
      <trkpt lat="48.17824" lon="-3.81843">
        <ele>84.996892</ele>
        <time>2022-12-10T17:35:00.254Z</time>
      </trkpt>
      <trkpt lat="48.17834" lon="-3.8184">
        <ele>85.039025</ele>
        <time>2022-12-10T17:35:04.278Z</time>
      </trkpt>
      <trkpt lat="48.17843" lon="-3.81837">
        <ele>84.982245</ele>
        <time>2022-12-10T17:35:08.262Z</time>
      </trkpt>
      <trkpt lat="48.17854" lon="-3.81836">
        <ele>84.913544</ele>
        <time>2022-12-10T17:35:12.258Z</time>
      </trkpt>
      <trkpt lat="48.17863" lon="-3.81835">
        <ele>84.857463</ele>
        <time>2022-12-10T17:35:15.271Z</time>
      </trkpt>
      <trkpt lat="48.17875" lon="-3.81834">
        <ele>84.789476</ele>
        <time>2022-12-10T17:35:19.293Z</time>
      </trkpt>
      <trkpt lat="48.17884" lon="-3.81832">
        <ele>84.731473</ele>
        <time>2022-12-10T17:35:22.281Z</time>
      </trkpt>
      <trkpt lat="48.17894" lon="-3.81832">
        <ele>84.669038</ele>
        <time>2022-12-10T17:35:25.261Z</time>
      </trkpt>
      <trkpt lat="48.17904" lon="-3.81832">
        <ele>84.610265</ele>
        <time>2022-12-10T17:35:28.279Z</time>
      </trkpt>
      <trkpt lat="48.17913" lon="-3.81834">
        <ele>84.552403</ele>
        <time>2022-12-10T17:35:31.259Z</time>
      </trkpt>
      <trkpt lat="48.17925" lon="-3.81835">
        <ele>84.481937</ele>
        <time>2022-12-10T17:35:35.279Z</time>
      </trkpt>
      <trkpt lat="48.17936" lon="-3.81838">
        <ele>84.410419</ele>
        <time>2022-12-10T17:35:39.268Z</time>
      </trkpt>
      <trkpt lat="48.17947" lon="-3.81841">
        <ele>84.341504</ele>
        <time>2022-12-10T17:35:43.281Z</time>
      </trkpt>
      <trkpt lat="48.17958" lon="-3.81844">
        <ele>84.271589</ele>
        <time>2022-12-10T17:35:47.328Z</time>
      </trkpt>
      <trkpt lat="48.17968" lon="-3.81846">
        <ele>84.212871</ele>
        <time>2022-12-10T17:35:50.277Z</time>
      </trkpt>
      <trkpt lat="48.17977" lon="-3.8185">
        <ele>84.155414</ele>
        <time>2022-12-10T17:35:53.273Z</time>
      </trkpt>
      <trkpt lat="48.17986" lon="-3.81853">
        <ele>84.098799</ele>
        <time>2022-12-10T17:35:56.303Z</time>
      </trkpt>
      <trkpt lat="48.17995" lon="-3.81856">
        <ele>84.043376</ele>
        <time>2022-12-10T17:35:59.292Z</time>
      </trkpt>
      <trkpt lat="48.18004" lon="-3.81859">
        <ele>83.986665</ele>
        <time>2022-12-10T17:36:02.265Z</time>
      </trkpt>
      <trkpt lat="48.18013" lon="-3.81862">
        <ele>83.907187</ele>
        <time>2022-12-10T17:36:05.284Z</time>
      </trkpt>
      <trkpt lat="48.18024" lon="-3.81866">
        <ele>83.779593</ele>
        <time>2022-12-10T17:36:09.320Z</time>
      </trkpt>
      <trkpt lat="48.18034" lon="-3.81869">
        <ele>83.673924</ele>
        <time>2022-12-10T17:36:12.274Z</time>
      </trkpt>
      <trkpt lat="48.18044" lon="-3.81872">
        <ele>83.567587</ele>
        <time>2022-12-10T17:36:15.289Z</time>
      </trkpt>
      <trkpt lat="48.18054" lon="-3.81874">
        <ele>83.464827</ele>
        <time>2022-12-10T17:36:18.297Z</time>
      </trkpt>
      <trkpt lat="48.18064" lon="-3.81875">
        <ele>83.356675</ele>
        <time>2022-12-10T17:36:21.281Z</time>
      </trkpt>
      <trkpt lat="48.18074" lon="-3.81875">
        <ele>83.246461</ele>
        <time>2022-12-10T17:36:24.294Z</time>
      </trkpt>
      <trkpt lat="48.18083" lon="-3.81875">
        <ele>83.149004</ele>
        <time>2022-12-10T17:36:27.296Z</time>
      </trkpt>
      <trkpt lat="48.18094" lon="-3.81874">
        <ele>83.034575</ele>
        <time>2022-12-10T17:36:30.270Z</time>
      </trkpt>
      <trkpt lat="48.18105" lon="-3.81874">
        <ele>82.9211</ele>
        <time>2022-12-10T17:36:33.271Z</time>
      </trkpt>
      <trkpt lat="48.18115" lon="-3.81872">
        <ele>82.813727</ele>
        <time>2022-12-10T17:36:36.296Z</time>
      </trkpt>
      <trkpt lat="48.18124" lon="-3.81871">
        <ele>82.716073</ele>
        <time>2022-12-10T17:36:39.276Z</time>
      </trkpt>
      <trkpt lat="48.18136" lon="-3.81868">
        <ele>82.585932</ele>
        <time>2022-12-10T17:36:43.274Z</time>
      </trkpt>
      <trkpt lat="48.18146" lon="-3.81865">
        <ele>82.478809</ele>
        <time>2022-12-10T17:36:46.269Z</time>
      </trkpt>
      <trkpt lat="48.18155" lon="-3.81864">
        <ele>82.384023</ele>
        <time>2022-12-10T17:36:49.267Z</time>
      </trkpt>
      <trkpt lat="48.18166" lon="-3.81861">
        <ele>82.27246</ele>
        <time>2022-12-10T17:36:52.263Z</time>
      </trkpt>
      <trkpt lat="48.18176" lon="-3.81858">
        <ele>82.155274</ele>
        <time>2022-12-10T17:36:55.282Z</time>
      </trkpt>
      <trkpt lat="48.18187" lon="-3.81856">
        <ele>82.05706</ele>
        <time>2022-12-10T17:36:58.279Z</time>
      </trkpt>
      <trkpt lat="48.18198" lon="-3.81852">
        <ele>82.0424</ele>
        <time>2022-12-10T17:37:01.282Z</time>
      </trkpt>
      <trkpt lat="48.18208" lon="-3.81847">
        <ele>82.027925</ele>
        <time>2022-12-10T17:37:04.289Z</time>
      </trkpt>
      <trkpt lat="48.18219" lon="-3.81843">
        <ele>82.013587</ele>
        <time>2022-12-10T17:37:07.264Z</time>
      </trkpt>
      <trkpt lat="48.1823" lon="-3.8184">
        <ele>81.99921</ele>
        <time>2022-12-10T17:37:10.273Z</time>
      </trkpt>
      <trkpt lat="48.1824" lon="-3.81836">
        <ele>81.984932</ele>
        <time>2022-12-10T17:37:13.295Z</time>
      </trkpt>
      <trkpt lat="48.18252" lon="-3.8183">
        <ele>81.969208</ele>
        <time>2022-12-10T17:37:17.290Z</time>
      </trkpt>
      <trkpt lat="48.1826" lon="-3.81824">
        <ele>81.956809</ele>
        <time>2022-12-10T17:37:20.289Z</time>
      </trkpt>
      <trkpt lat="48.18269" lon="-3.81817">
        <ele>81.94402</ele>
        <time>2022-12-10T17:37:23.279Z</time>
      </trkpt>
      <trkpt lat="48.18277" lon="-3.81809">
        <ele>81.930809</ele>
        <time>2022-12-10T17:37:26.271Z</time>
      </trkpt>
      <trkpt lat="48.18285" lon="-3.81802">
        <ele>81.918655</ele>
        <time>2022-12-10T17:37:29.281Z</time>
      </trkpt>
      <trkpt lat="48.18293" lon="-3.81793">
        <ele>81.906324</ele>
        <time>2022-12-10T17:37:32.268Z</time>
      </trkpt>
      <trkpt lat="48.183" lon="-3.81785">
        <ele>81.893928</ele>
        <time>2022-12-10T17:37:35.254Z</time>
      </trkpt>
      <trkpt lat="48.1831" lon="-3.81774">
        <ele>81.87833</ele>
        <time>2022-12-10T17:37:39.309Z</time>
      </trkpt>
      <trkpt lat="48.18317" lon="-3.81766">
        <ele>81.86626</ele>
        <time>2022-12-10T17:37:42.268Z</time>
      </trkpt>
      <trkpt lat="48.18325" lon="-3.81755">
        <ele>81.852685</ele>
        <time>2022-12-10T17:37:45.266Z</time>
      </trkpt>
      <trkpt lat="48.18331" lon="-3.81746">
        <ele>81.840779</ele>
        <time>2022-12-10T17:37:48.292Z</time>
      </trkpt>
      <trkpt lat="48.18338" lon="-3.81735">
        <ele>81.82726</ele>
        <time>2022-12-10T17:37:52.272Z</time>
      </trkpt>
      <trkpt lat="48.18344" lon="-3.81724">
        <ele>81.739406</ele>
        <time>2022-12-10T17:37:55.275Z</time>
      </trkpt>
      <trkpt lat="48.18351" lon="-3.81714">
        <ele>81.602735</ele>
        <time>2022-12-10T17:37:58.278Z</time>
      </trkpt>
      <trkpt lat="48.18359" lon="-3.81703">
        <ele>81.459864</ele>
        <time>2022-12-10T17:38:01.269Z</time>
      </trkpt>
      <trkpt lat="48.18365" lon="-3.81692">
        <ele>81.318316</ele>
        <time>2022-12-10T17:38:04.286Z</time>
      </trkpt>
      <trkpt lat="48.18372" lon="-3.81681">
        <ele>81.185517</ele>
        <time>2022-12-10T17:38:07.282Z</time>
      </trkpt>
      <trkpt lat="48.18378" lon="-3.81667">
        <ele>81.035104</ele>
        <time>2022-12-10T17:38:10.287Z</time>
      </trkpt>
      <trkpt lat="48.18384" lon="-3.81655">
        <ele>80.891346</ele>
        <time>2022-12-10T17:38:13.285Z</time>
      </trkpt>
      <trkpt lat="48.1839" lon="-3.81645">
        <ele>80.762892</ele>
        <time>2022-12-10T17:38:16.277Z</time>
      </trkpt>
      <trkpt lat="48.18397" lon="-3.81634">
        <ele>80.621552</ele>
        <time>2022-12-10T17:38:20.273Z</time>
      </trkpt>
      <trkpt lat="48.18403" lon="-3.81623">
        <ele>80.492539</ele>
        <time>2022-12-10T17:38:23.276Z</time>
      </trkpt>
      <trkpt lat="48.18408" lon="-3.81611">
        <ele>80.359855</ele>
        <time>2022-12-10T17:38:26.284Z</time>
      </trkpt>
      <trkpt lat="48.18413" lon="-3.81597">
        <ele>80.2187</ele>
        <time>2022-12-10T17:38:29.286Z</time>
      </trkpt>
      <trkpt lat="48.18418" lon="-3.81584">
        <ele>80.076896</ele>
        <time>2022-12-10T17:38:32.281Z</time>
      </trkpt>
      <trkpt lat="48.18422" lon="-3.81569">
        <ele>79.927464</ele>
        <time>2022-12-10T17:38:35.257Z</time>
      </trkpt>
      <trkpt lat="48.18426" lon="-3.81555">
        <ele>79.780632</ele>
        <time>2022-12-10T17:38:38.263Z</time>
      </trkpt>
      <trkpt lat="48.18431" lon="-3.8154">
        <ele>79.633546</ele>
        <time>2022-12-10T17:38:41.260Z</time>
      </trkpt>
      <trkpt lat="48.18434" lon="-3.81526">
        <ele>79.495449</ele>
        <time>2022-12-10T17:38:44.269Z</time>
      </trkpt>
      <trkpt lat="48.18439" lon="-3.81509">
        <ele>79.324701</ele>
        <time>2022-12-10T17:38:48.275Z</time>
      </trkpt>
      <trkpt lat="48.18442" lon="-3.81495">
        <ele>79.327367</ele>
        <time>2022-12-10T17:38:51.272Z</time>
      </trkpt>
      <trkpt lat="48.18445" lon="-3.81481">
        <ele>79.332027</ele>
        <time>2022-12-10T17:38:54.307Z</time>
      </trkpt>
      <trkpt lat="48.18449" lon="-3.81468">
        <ele>79.336466</ele>
        <time>2022-12-10T17:38:57.291Z</time>
      </trkpt>
      <trkpt lat="48.18453" lon="-3.81455">
        <ele>79.340988</ele>
        <time>2022-12-10T17:39:00.277Z</time>
      </trkpt>
      <trkpt lat="48.18455" lon="-3.8144">
        <ele>79.345803</ele>
        <time>2022-12-10T17:39:03.281Z</time>
      </trkpt>
      <trkpt lat="48.1846" lon="-3.81426">
        <ele>79.350591</ele>
        <time>2022-12-10T17:39:06.267Z</time>
      </trkpt>
      <trkpt lat="48.18463" lon="-3.8141">
        <ele>79.355681</ele>
        <time>2022-12-10T17:39:10.274Z</time>
      </trkpt>
      <trkpt lat="48.18466" lon="-3.81395">
        <ele>79.360682</ele>
        <time>2022-12-10T17:39:14.297Z</time>
      </trkpt>
      <trkpt lat="48.18468" lon="-3.81379">
        <ele>79.365707</ele>
        <time>2022-12-10T17:39:18.283Z</time>
      </trkpt>
      <trkpt lat="48.1847" lon="-3.81365">
        <ele>79.370153</ele>
        <time>2022-12-10T17:39:21.254Z</time>
      </trkpt>
      <trkpt lat="48.1847" lon="-3.81349">
        <ele>79.375112</ele>
        <time>2022-12-10T17:39:24.302Z</time>
      </trkpt>
      <trkpt lat="48.18471" lon="-3.81334">
        <ele>79.379796</ele>
        <time>2022-12-10T17:39:27.277Z</time>
      </trkpt>
      <trkpt lat="48.18473" lon="-3.81321">
        <ele>79.384095</ele>
        <time>2022-12-10T17:39:30.306Z</time>
      </trkpt>
      <trkpt lat="48.18473" lon="-3.81305">
        <ele>79.388934</ele>
        <time>2022-12-10T17:39:33.283Z</time>
      </trkpt>
      <trkpt lat="48.18474" lon="-3.81291">
        <ele>79.393527</ele>
        <time>2022-12-10T17:39:36.285Z</time>
      </trkpt>
      <trkpt lat="48.18474" lon="-3.81275">
        <ele>79.398271</ele>
        <time>2022-12-10T17:39:39.254Z</time>
      </trkpt>
      <trkpt lat="48.18474" lon="-3.81261">
        <ele>79.4027</ele>
        <time>2022-12-10T17:39:42.269Z</time>
      </trkpt>
      <trkpt lat="48.18474" lon="-3.81245">
        <ele>79.484046</ele>
        <time>2022-12-10T17:39:45.263Z</time>
      </trkpt>
      <trkpt lat="48.18473" lon="-3.81229">
        <ele>79.975804</ele>
        <time>2022-12-10T17:39:48.294Z</time>
      </trkpt>
      <trkpt lat="48.18474" lon="-3.81215">
        <ele>80.398196</ele>
        <time>2022-12-10T17:39:51.264Z</time>
      </trkpt>
      <trkpt lat="48.18474" lon="-3.81196">
        <ele>80.962662</ele>
        <time>2022-12-10T17:39:55.264Z</time>
      </trkpt>
      <trkpt lat="48.18473" lon="-3.81181">
        <ele>81.428013</ele>
        <time>2022-12-10T17:39:58.301Z</time>
      </trkpt>
      <trkpt lat="48.18473" lon="-3.81167">
        <ele>81.858918</ele>
        <time>2022-12-10T17:40:01.277Z</time>
      </trkpt>
      <trkpt lat="48.18473" lon="-3.81151">
        <ele>82.332281</ele>
        <time>2022-12-10T17:40:04.291Z</time>
      </trkpt>
      <trkpt lat="48.18473" lon="-3.81135">
        <ele>82.832952</ele>
        <time>2022-12-10T17:40:07.264Z</time>
      </trkpt>
      <trkpt lat="48.18474" lon="-3.8112">
        <ele>83.28544</ele>
        <time>2022-12-10T17:40:10.276Z</time>
      </trkpt>
      <trkpt lat="48.18474" lon="-3.81106">
        <ele>83.719571</ele>
        <time>2022-12-10T17:40:13.266Z</time>
      </trkpt>
      <trkpt lat="48.18473" lon="-3.8109">
        <ele>84.205838</ele>
        <time>2022-12-10T17:40:17.271Z</time>
      </trkpt>
      <trkpt lat="48.18473" lon="-3.81076">
        <ele>84.627616</ele>
        <time>2022-12-10T17:40:21.268Z</time>
      </trkpt>
      <trkpt lat="48.18472" lon="-3.81059">
        <ele>85.141414</ele>
        <time>2022-12-10T17:40:26.297Z</time>
      </trkpt>
      <trkpt lat="48.18473" lon="-3.81043">
        <ele>85.631662</ele>
        <time>2022-12-10T17:40:32.252Z</time>
      </trkpt>
      <trkpt lat="48.18472" lon="-3.81028">
        <ele>86.081046</ele>
        <time>2022-12-10T17:40:37.274Z</time>
      </trkpt>
      <trkpt lat="48.18471" lon="-3.81011">
        <ele>86.586804</ele>
        <time>2022-12-10T17:40:42.293Z</time>
      </trkpt>
      <trkpt lat="48.1847" lon="-3.80997">
        <ele>87.036721</ele>
        <time>2022-12-10T17:40:47.267Z</time>
      </trkpt>
      <trkpt lat="48.1847" lon="-3.80982">
        <ele>87.473695</ele>
        <time>2022-12-10T17:40:52.263Z</time>
      </trkpt>
      <trkpt lat="48.1847" lon="-3.80971">
        <ele>88.037736</ele>
        <time>2022-12-10T17:41:16.065Z</time>
      </trkpt>
      <trkpt lat="48.18481" lon="-3.80996">
        <ele>89.769028</ele>
        <time>2022-12-10T17:51:19.266Z</time>
      </trkpt>
      <trkpt lat="48.18481" lon="-3.8101">
        <ele>90.57807</ele>
        <time>2022-12-10T17:51:34.263Z</time>
      </trkpt>
      <trkpt lat="48.18483" lon="-3.81023">
        <ele>91.369711</ele>
        <time>2022-12-10T17:51:44.269Z</time>
      </trkpt>
      <trkpt lat="48.1849" lon="-3.81016">
        <ele>92.145726</ele>
        <time>2022-12-10T17:51:56.266Z</time>
      </trkpt>
      <trkpt lat="48.18491" lon="-3.81001">
        <ele>93.012895</ele>
        <time>2022-12-10T17:52:03.269Z</time>
      </trkpt>
      <trkpt lat="48.1849" lon="-3.80987">
        <ele>93.822075</ele>
        <time>2022-12-10T17:52:10.272Z</time>
      </trkpt>
      <trkpt lat="48.1849" lon="-3.80972">
        <ele>94.702504</ele>
        <time>2022-12-10T17:52:18.260Z</time>
      </trkpt>
      <trkpt lat="48.18489" lon="-3.80958">
        <ele>95.497193</ele>
        <time>2022-12-10T17:52:26.273Z</time>
      </trkpt>
      <trkpt lat="48.18487" lon="-3.80945">
        <ele>96.286674</ele>
        <time>2022-12-10T17:52:34.269Z</time>
      </trkpt>
      <trkpt lat="48.18486" lon="-3.80931">
        <ele>97.110573</ele>
        <time>2022-12-10T17:52:42.266Z</time>
      </trkpt>
      <trkpt lat="48.18484" lon="-3.80917">
        <ele>97.920987</ele>
        <time>2022-12-10T17:52:50.267Z</time>
      </trkpt>
      <trkpt lat="48.18482" lon="-3.80904">
        <ele>98.705168</ele>
        <time>2022-12-10T17:52:58.267Z</time>
      </trkpt>
      <trkpt lat="48.18479" lon="-3.8089">
        <ele>99.515937</ele>
        <time>2022-12-10T17:53:07.272Z</time>
      </trkpt>
      <trkpt lat="48.18477" lon="-3.80876">
        <ele>100.36772</ele>
        <time>2022-12-10T17:53:17.263Z</time>
      </trkpt>
      <trkpt lat="48.18477" lon="-3.80862">
        <ele>101.177875</ele>
        <time>2022-12-10T17:53:27.271Z</time>
      </trkpt>
      <trkpt lat="48.18476" lon="-3.80848">
        <ele>101.964187</ele>
        <time>2022-12-10T17:53:37.266Z</time>
      </trkpt>
      <trkpt lat="48.18474" lon="-3.80836">
        <ele>102.742634</ele>
        <time>2022-12-10T17:53:46.271Z</time>
      </trkpt>
      <trkpt lat="48.18471" lon="-3.80822">
        <ele>103.531877</ele>
        <time>2022-12-10T17:53:56.272Z</time>
      </trkpt>
      <trkpt lat="48.18469" lon="-3.80808">
        <ele>104.237996</ele>
        <time>2022-12-10T17:54:06.266Z</time>
      </trkpt>
      <trkpt lat="48.18467" lon="-3.80794">
        <ele>104.990129</ele>
        <time>2022-12-10T17:54:16.269Z</time>
      </trkpt>
      <trkpt lat="48.18466" lon="-3.8078">
        <ele>105.71453</ele>
        <time>2022-12-10T17:54:26.270Z</time>
      </trkpt>
      <trkpt lat="48.18466" lon="-3.80766">
        <ele>106.422597</ele>
        <time>2022-12-10T17:54:35.276Z</time>
      </trkpt>
      <trkpt lat="48.18467" lon="-3.80752">
        <ele>107.183335</ele>
        <time>2022-12-10T17:54:44.265Z</time>
      </trkpt>
      <trkpt lat="48.1847" lon="-3.80738">
        <ele>107.932938</ele>
        <time>2022-12-10T17:54:54.268Z</time>
      </trkpt>
      <trkpt lat="48.18477" lon="-3.80729">
        <ele>108.654418</ele>
        <time>2022-12-10T17:55:04.282Z</time>
      </trkpt>
      <trkpt lat="48.18485" lon="-3.80722">
        <ele>109.36055</ele>
        <time>2022-12-10T17:55:13.268Z</time>
      </trkpt>
      <trkpt lat="48.18494" lon="-3.80716">
        <ele>110.11786</ele>
        <time>2022-12-10T17:55:23.269Z</time>
      </trkpt>
      <trkpt lat="48.18503" lon="-3.80712">
        <ele>110.838078</ele>
        <time>2022-12-10T17:55:32.273Z</time>
      </trkpt>
      <trkpt lat="48.18513" lon="-3.8071">
        <ele>111.606216</ele>
        <time>2022-12-10T17:55:43.278Z</time>
      </trkpt>
      <trkpt lat="48.18522" lon="-3.80714">
        <ele>112.368376</ele>
        <time>2022-12-10T17:55:52.265Z</time>
      </trkpt>
      <trkpt lat="48.1853" lon="-3.80723">
        <ele>113.11757</ele>
        <time>2022-12-10T17:56:01.260Z</time>
      </trkpt>
      <trkpt lat="48.18534" lon="-3.80736">
        <ele>113.863099</ele>
        <time>2022-12-10T17:56:10.264Z</time>
      </trkpt>
      <trkpt lat="48.18538" lon="-3.8075">
        <ele>114.641434</ele>
        <time>2022-12-10T17:56:19.282Z</time>
      </trkpt>
      <trkpt lat="48.18541" lon="-3.80763">
        <ele>115.357641</ele>
        <time>2022-12-10T17:56:28.266Z</time>
      </trkpt>
      <trkpt lat="48.18543" lon="-3.80776">
        <ele>116.079134</ele>
        <time>2022-12-10T17:56:37.268Z</time>
      </trkpt>
      <trkpt lat="48.18547" lon="-3.8079">
        <ele>116.807732</ele>
        <time>2022-12-10T17:56:46.267Z</time>
      </trkpt>
      <trkpt lat="48.18549" lon="-3.80803">
        <ele>117.541208</ele>
        <time>2022-12-10T17:56:55.278Z</time>
      </trkpt>
      <trkpt lat="48.18553" lon="-3.80816">
        <ele>118.249841</ele>
        <time>2022-12-10T17:57:03.284Z</time>
      </trkpt>
      <trkpt lat="48.18556" lon="-3.8083">
        <ele>119.017561</ele>
        <time>2022-12-10T17:57:12.276Z</time>
      </trkpt>
      <trkpt lat="48.18559" lon="-3.80844">
        <ele>119.768399</ele>
        <time>2022-12-10T17:57:21.262Z</time>
      </trkpt>
      <trkpt lat="48.18563" lon="-3.80857">
        <ele>120.504735</ele>
        <time>2022-12-10T17:57:30.277Z</time>
      </trkpt>
      <trkpt lat="48.18566" lon="-3.80871">
        <ele>121.264911</ele>
        <time>2022-12-10T17:57:40.272Z</time>
      </trkpt>
      <trkpt lat="48.18569" lon="-3.80884">
        <ele>121.999251</ele>
        <time>2022-12-10T17:57:49.282Z</time>
      </trkpt>
      <trkpt lat="48.18572" lon="-3.80898">
        <ele>122.749876</ele>
        <time>2022-12-10T17:57:59.266Z</time>
      </trkpt>
      <trkpt lat="48.18575" lon="-3.80912">
        <ele>123.495408</ele>
        <time>2022-12-10T17:58:08.267Z</time>
      </trkpt>
      <trkpt lat="48.18579" lon="-3.80924">
        <ele>124.212473</ele>
        <time>2022-12-10T17:58:17.266Z</time>
      </trkpt>
      <trkpt lat="48.18582" lon="-3.80938">
        <ele>124.984296</ele>
        <time>2022-12-10T17:58:27.268Z</time>
      </trkpt>
      <trkpt lat="48.18586" lon="-3.80951">
        <ele>125.70136</ele>
        <time>2022-12-10T17:58:36.266Z</time>
      </trkpt>
      <trkpt lat="48.18589" lon="-3.80964">
        <ele>126.409989</ele>
        <time>2022-12-10T17:58:45.266Z</time>
      </trkpt>
      <trkpt lat="48.18593" lon="-3.80978">
        <ele>127.172569</ele>
        <time>2022-12-10T17:58:54.272Z</time>
      </trkpt>
      <trkpt lat="48.18595" lon="-3.80992">
        <ele>127.918244</ele>
        <time>2022-12-10T17:59:03.269Z</time>
      </trkpt>
      <trkpt lat="48.18598" lon="-3.81005">
        <ele>128.648553</ele>
        <time>2022-12-10T17:59:12.270Z</time>
      </trkpt>
      <trkpt lat="48.18599" lon="-3.81019">
        <ele>129.368916</ele>
        <time>2022-12-10T17:59:21.268Z</time>
      </trkpt>
      <trkpt lat="48.18601" lon="-3.81033">
        <ele>130.108837</ele>
        <time>2022-12-10T17:59:31.272Z</time>
      </trkpt>
      <trkpt lat="48.186" lon="-3.81047">
        <ele>130.817081</ele>
        <time>2022-12-10T17:59:41.272Z</time>
      </trkpt>
      <trkpt lat="48.18599" lon="-3.81061">
        <ele>131.281948</ele>
        <time>2022-12-10T17:59:50.278Z</time>
      </trkpt>
      <trkpt lat="48.18598" lon="-3.81075">
        <ele>131.602807</ele>
        <time>2022-12-10T17:59:59.273Z</time>
      </trkpt>
      <trkpt lat="48.18595" lon="-3.81088">
        <ele>131.92735</ele>
        <time>2022-12-10T18:00:08.283Z</time>
      </trkpt>
      <trkpt lat="48.18595" lon="-3.81102">
        <ele>132.251501</ele>
        <time>2022-12-10T18:00:17.281Z</time>
      </trkpt>
      <trkpt lat="48.18593" lon="-3.81116">
        <ele>132.583727</ele>
        <time>2022-12-10T18:00:26.281Z</time>
      </trkpt>
      <trkpt lat="48.18597" lon="-3.8113">
        <ele>132.913581</ele>
        <time>2022-12-10T18:00:36.265Z</time>
      </trkpt>
      <trkpt lat="48.18606" lon="-3.81133">
        <ele>133.264997</ele>
        <time>2022-12-10T18:00:46.278Z</time>
      </trkpt>
      <trkpt lat="48.18616" lon="-3.81133">
        <ele>133.604213</ele>
        <time>2022-12-10T18:00:54.264Z</time>
      </trkpt>
      <trkpt lat="48.18625" lon="-3.81133">
        <ele>133.919497</ele>
        <time>2022-12-10T18:01:02.281Z</time>
      </trkpt>
      <trkpt lat="48.18635" lon="-3.81134">
        <ele>134.265884</ele>
        <time>2022-12-10T18:01:11.273Z</time>
      </trkpt>
      <trkpt lat="48.18645" lon="-3.81135">
        <ele>134.612172</ele>
        <time>2022-12-10T18:01:20.278Z</time>
      </trkpt>
      <trkpt lat="48.18654" lon="-3.81135">
        <ele>134.92705</ele>
        <time>2022-12-10T18:01:29.294Z</time>
      </trkpt>
      <trkpt lat="48.18664" lon="-3.81135">
        <ele>135.245589</ele>
        <time>2022-12-10T18:01:47.305Z</time>
      </trkpt>
      <trkpt lat="48.18673" lon="-3.81138">
        <ele>135.558476</ele>
        <time>2022-12-10T18:01:57.297Z</time>
      </trkpt>
      <trkpt lat="48.18682" lon="-3.81141">
        <ele>135.893049</ele>
        <time>2022-12-10T18:02:05.269Z</time>
      </trkpt>
      <trkpt lat="48.18691" lon="-3.81142">
        <ele>136.216234</ele>
        <time>2022-12-10T18:02:16.278Z</time>
      </trkpt>
      <trkpt lat="48.187" lon="-3.81146">
        <ele>136.535185</ele>
        <time>2022-12-10T18:02:28.299Z</time>
      </trkpt>
      <trkpt lat="48.1871" lon="-3.81148">
        <ele>136.88524</ele>
        <time>2022-12-10T18:02:40.283Z</time>
      </trkpt>
      <trkpt lat="48.1872" lon="-3.8115">
        <ele>137.219717</ele>
        <time>2022-12-10T18:02:50.296Z</time>
      </trkpt>
      <trkpt lat="48.18729" lon="-3.81152">
        <ele>137.205258</ele>
        <time>2022-12-10T18:03:01.296Z</time>
      </trkpt>
      <trkpt lat="48.18736" lon="-3.81145">
        <ele>137.091858</ele>
        <time>2022-12-10T18:03:17.295Z</time>
      </trkpt>
      <trkpt lat="48.1874" lon="-3.81132">
        <ele>136.97828</ele>
        <time>2022-12-10T18:04:11.301Z</time>
      </trkpt>
      <trkpt lat="48.1874" lon="-3.81111">
        <ele>136.797781</ele>
        <time>2022-12-10T18:04:57.268Z</time>
      </trkpt>
      <trkpt lat="48.18739" lon="-3.81096">
        <ele>136.669139</ele>
        <time>2022-12-10T18:05:02.273Z</time>
      </trkpt>
      <trkpt lat="48.18737" lon="-3.81081">
        <ele>136.547467</ele>
        <time>2022-12-10T18:05:06.286Z</time>
      </trkpt>
      <trkpt lat="48.18738" lon="-3.81064">
        <ele>136.404672</ele>
        <time>2022-12-10T18:05:10.275Z</time>
      </trkpt>
      <trkpt lat="48.18739" lon="-3.8105">
        <ele>136.282425</ele>
        <time>2022-12-10T18:05:13.274Z</time>
      </trkpt>
      <trkpt lat="48.18738" lon="-3.81035">
        <ele>136.157957</ele>
        <time>2022-12-10T18:05:16.281Z</time>
      </trkpt>
      <trkpt lat="48.1874" lon="-3.8102">
        <ele>136.024927</ele>
        <time>2022-12-10T18:05:19.282Z</time>
      </trkpt>
      <trkpt lat="48.18743" lon="-3.81005">
        <ele>135.89659</ele>
        <time>2022-12-10T18:05:22.276Z</time>
      </trkpt>
      <trkpt lat="48.18747" lon="-3.8099">
        <ele>135.765637</ele>
        <time>2022-12-10T18:05:25.282Z</time>
      </trkpt>
      <trkpt lat="48.18753" lon="-3.80977">
        <ele>135.634969</ele>
        <time>2022-12-10T18:05:28.281Z</time>
      </trkpt>
      <trkpt lat="48.1876" lon="-3.80964">
        <ele>135.491507</ele>
        <time>2022-12-10T18:05:31.268Z</time>
      </trkpt>
      <trkpt lat="48.18768" lon="-3.8095">
        <ele>135.332681</ele>
        <time>2022-12-10T18:05:34.271Z</time>
      </trkpt>
      <trkpt lat="48.18778" lon="-3.80937">
        <ele>135.171692</ele>
        <time>2022-12-10T18:05:37.274Z</time>
      </trkpt>
      <trkpt lat="48.18784" lon="-3.80927">
        <ele>135.058015</ele>
        <time>2022-12-10T18:05:39.266Z</time>
      </trkpt>
      <trkpt lat="48.18793" lon="-3.80913">
        <ele>134.728571</ele>
        <time>2022-12-10T18:05:42.268Z</time>
      </trkpt>
      <trkpt lat="48.188" lon="-3.80903">
        <ele>134.482184</ele>
        <time>2022-12-10T18:05:44.272Z</time>
      </trkpt>
      <trkpt lat="48.18806" lon="-3.80893">
        <ele>134.241426</ele>
        <time>2022-12-10T18:05:46.264Z</time>
      </trkpt>
      <trkpt lat="48.18814" lon="-3.80878">
        <ele>133.903959</ele>
        <time>2022-12-10T18:05:49.271Z</time>
      </trkpt>
      <trkpt lat="48.18822" lon="-3.80863">
        <ele>133.560331</ele>
        <time>2022-12-10T18:05:52.278Z</time>
      </trkpt>
      <trkpt lat="48.18828" lon="-3.80846">
        <ele>133.218402</ele>
        <time>2022-12-10T18:05:55.270Z</time>
      </trkpt>
      <trkpt lat="48.18834" lon="-3.80828">
        <ele>132.865759</ele>
        <time>2022-12-10T18:05:58.298Z</time>
      </trkpt>
      <trkpt lat="48.18838" lon="-3.8081">
        <ele>132.514007</ele>
        <time>2022-12-10T18:06:01.273Z</time>
      </trkpt>
      <trkpt lat="48.18842" lon="-3.8079">
        <ele>132.158085</ele>
        <time>2022-12-10T18:06:04.276Z</time>
      </trkpt>
      <trkpt lat="48.18847" lon="-3.80773">
        <ele>131.820731</ele>
        <time>2022-12-10T18:06:07.265Z</time>
      </trkpt>
      <trkpt lat="48.18853" lon="-3.80758">
        <ele>131.519959</ele>
        <time>2022-12-10T18:06:10.273Z</time>
      </trkpt>
      <trkpt lat="48.18859" lon="-3.80746">
        <ele>131.23553</ele>
        <time>2022-12-10T18:06:13.277Z</time>
      </trkpt>
      <trkpt lat="48.18867" lon="-3.80735">
        <ele>130.951708</ele>
        <time>2022-12-10T18:06:16.283Z</time>
      </trkpt>
      <trkpt lat="48.18875" lon="-3.80725">
        <ele>130.670117</ele>
        <time>2022-12-10T18:06:19.278Z</time>
      </trkpt>
      <trkpt lat="48.18885" lon="-3.80719">
        <ele>130.39895</ele>
        <time>2022-12-10T18:06:22.280Z</time>
      </trkpt>
      <trkpt lat="48.18894" lon="-3.80713">
        <ele>130.106763</ele>
        <time>2022-12-10T18:06:25.268Z</time>
      </trkpt>
      <trkpt lat="48.18903" lon="-3.80709">
        <ele>129.777731</ele>
        <time>2022-12-10T18:06:28.274Z</time>
      </trkpt>
      <trkpt lat="48.18913" lon="-3.80707">
        <ele>129.438205</ele>
        <time>2022-12-10T18:06:31.272Z</time>
      </trkpt>
      <trkpt lat="48.18923" lon="-3.80707">
        <ele>129.097279</ele>
        <time>2022-12-10T18:06:34.280Z</time>
      </trkpt>
      <trkpt lat="48.18933" lon="-3.80709">
        <ele>128.763614</ele>
        <time>2022-12-10T18:06:37.290Z</time>
      </trkpt>
      <trkpt lat="48.18944" lon="-3.8071">
        <ele>128.403461</ele>
        <time>2022-12-10T18:06:40.273Z</time>
      </trkpt>
      <trkpt lat="48.18955" lon="-3.80712">
        <ele>128.019593</ele>
        <time>2022-12-10T18:06:43.274Z</time>
      </trkpt>
      <trkpt lat="48.18967" lon="-3.80714">
        <ele>127.613699</ele>
        <time>2022-12-10T18:06:46.268Z</time>
      </trkpt>
      <trkpt lat="48.1898" lon="-3.80712">
        <ele>127.166539</ele>
        <time>2022-12-10T18:06:49.285Z</time>
      </trkpt>
      <trkpt lat="48.18992" lon="-3.80704">
        <ele>126.736747</ele>
        <time>2022-12-10T18:06:52.290Z</time>
      </trkpt>
      <trkpt lat="48.19" lon="-3.80692">
        <ele>126.345054</ele>
        <time>2022-12-10T18:06:55.297Z</time>
      </trkpt>
      <trkpt lat="48.19005" lon="-3.80678">
        <ele>125.992231</ele>
        <time>2022-12-10T18:06:58.274Z</time>
      </trkpt>
      <trkpt lat="48.19007" lon="-3.80665">
        <ele>125.678845</ele>
        <time>2022-12-10T18:07:01.288Z</time>
      </trkpt>
      <trkpt lat="48.19005" lon="-3.80648">
        <ele>125.30546</ele>
        <time>2022-12-10T18:07:05.269Z</time>
      </trkpt>
      <trkpt lat="48.19001" lon="-3.80636">
        <ele>124.997662</ele>
        <time>2022-12-10T18:07:08.274Z</time>
      </trkpt>
      <trkpt lat="48.18995" lon="-3.80625">
        <ele>124.672755</ele>
        <time>2022-12-10T18:07:11.265Z</time>
      </trkpt>
      <trkpt lat="48.18988" lon="-3.80613">
        <ele>124.327561</ele>
        <time>2022-12-10T18:07:14.279Z</time>
      </trkpt>
      <trkpt lat="48.1898" lon="-3.80602">
        <ele>124.009722</ele>
        <time>2022-12-10T18:07:17.281Z</time>
      </trkpt>
      <trkpt lat="48.18972" lon="-3.80592">
        <ele>123.743995</ele>
        <time>2022-12-10T18:07:20.278Z</time>
      </trkpt>
      <trkpt lat="48.18965" lon="-3.80583">
        <ele>123.505526</ele>
        <time>2022-12-10T18:07:23.268Z</time>
      </trkpt>
      <trkpt lat="48.1896" lon="-3.80572">
        <ele>123.267579</ele>
        <time>2022-12-10T18:07:26.274Z</time>
      </trkpt>
      <trkpt lat="48.18955" lon="-3.80558">
        <ele>123.009234</ele>
        <time>2022-12-10T18:07:29.286Z</time>
      </trkpt>
      <trkpt lat="48.18954" lon="-3.80543">
        <ele>122.740322</ele>
        <time>2022-12-10T18:07:32.284Z</time>
      </trkpt>
      <trkpt lat="48.18956" lon="-3.80525">
        <ele>122.432933</ele>
        <time>2022-12-10T18:07:35.275Z</time>
      </trkpt>
      <trkpt lat="48.18961" lon="-3.80508">
        <ele>122.1093</ele>
        <time>2022-12-10T18:07:38.283Z</time>
      </trkpt>
      <trkpt lat="48.18967" lon="-3.80493">
        <ele>121.810305</ele>
        <time>2022-12-10T18:07:41.271Z</time>
      </trkpt>
      <trkpt lat="48.18974" lon="-3.8048">
        <ele>121.518982</ele>
        <time>2022-12-10T18:07:44.274Z</time>
      </trkpt>
      <trkpt lat="48.18982" lon="-3.80469">
        <ele>121.233237</ele>
        <time>2022-12-10T18:07:47.271Z</time>
      </trkpt>
      <trkpt lat="48.18991" lon="-3.80458">
        <ele>120.949548</ele>
        <time>2022-12-10T18:07:50.266Z</time>
      </trkpt>
      <trkpt lat="48.18997" lon="-3.80446">
        <ele>120.687365</ele>
        <time>2022-12-10T18:07:53.277Z</time>
      </trkpt>
      <trkpt lat="48.19004" lon="-3.80434">
        <ele>120.412959</ele>
        <time>2022-12-10T18:07:56.275Z</time>
      </trkpt>
      <trkpt lat="48.1901" lon="-3.80422">
        <ele>120.155066</ele>
        <time>2022-12-10T18:07:59.269Z</time>
      </trkpt>
      <trkpt lat="48.19017" lon="-3.80408">
        <ele>119.868939</ele>
        <time>2022-12-10T18:08:02.276Z</time>
      </trkpt>
      <trkpt lat="48.19023" lon="-3.80394">
        <ele>119.568537</ele>
        <time>2022-12-10T18:08:05.268Z</time>
      </trkpt>
      <trkpt lat="48.19029" lon="-3.80379">
        <ele>119.326355</ele>
        <time>2022-12-10T18:08:08.268Z</time>
      </trkpt>
      <trkpt lat="48.19033" lon="-3.80366">
        <ele>119.112222</ele>
        <time>2022-12-10T18:08:11.287Z</time>
      </trkpt>
      <trkpt lat="48.19038" lon="-3.80354">
        <ele>118.915806</ele>
        <time>2022-12-10T18:08:14.283Z</time>
      </trkpt>
      <trkpt lat="48.19042" lon="-3.80338">
        <ele>118.679978</ele>
        <time>2022-12-10T18:08:17.266Z</time>
      </trkpt>
      <trkpt lat="48.19045" lon="-3.80322">
        <ele>118.436958</ele>
        <time>2022-12-10T18:08:20.289Z</time>
      </trkpt>
      <trkpt lat="48.19048" lon="-3.80305">
        <ele>118.18498</ele>
        <time>2022-12-10T18:08:23.285Z</time>
      </trkpt>
      <trkpt lat="48.19048" lon="-3.80287">
        <ele>117.940284</ele>
        <time>2022-12-10T18:08:27.274Z</time>
      </trkpt>
      <trkpt lat="48.19048" lon="-3.80271">
        <ele>117.705179</ele>
        <time>2022-12-10T18:08:31.284Z</time>
      </trkpt>
      <trkpt lat="48.19048" lon="-3.80253">
        <ele>117.456196</ele>
        <time>2022-12-10T18:08:35.278Z</time>
      </trkpt>
      <trkpt lat="48.19045" lon="-3.80235">
        <ele>117.19243</ele>
        <time>2022-12-10T18:08:39.278Z</time>
      </trkpt>
      <trkpt lat="48.19042" lon="-3.80218">
        <ele>116.947146</ele>
        <time>2022-12-10T18:08:42.280Z</time>
      </trkpt>
      <trkpt lat="48.1904" lon="-3.80198">
        <ele>116.661138</ele>
        <time>2022-12-10T18:08:45.281Z</time>
      </trkpt>
      <trkpt lat="48.19038" lon="-3.80181">
        <ele>116.411064</ele>
        <time>2022-12-10T18:08:48.275Z</time>
      </trkpt>
      <trkpt lat="48.19035" lon="-3.80162">
        <ele>116.14505</ele>
        <time>2022-12-10T18:08:51.296Z</time>
      </trkpt>
      <trkpt lat="48.19031" lon="-3.80146">
        <ele>115.903388</ele>
        <time>2022-12-10T18:08:54.283Z</time>
      </trkpt>
      <trkpt lat="48.19027" lon="-3.8013">
        <ele>115.704079</ele>
        <time>2022-12-10T18:08:57.272Z</time>
      </trkpt>
      <trkpt lat="48.19021" lon="-3.80113">
        <ele>115.670982</ele>
        <time>2022-12-10T18:09:00.275Z</time>
      </trkpt>
      <trkpt lat="48.19016" lon="-3.80097">
        <ele>115.640279</ele>
        <time>2022-12-10T18:09:03.282Z</time>
      </trkpt>
      <trkpt lat="48.19011" lon="-3.80081">
        <ele>115.610762</ele>
        <time>2022-12-10T18:09:06.284Z</time>
      </trkpt>
      <trkpt lat="48.19007" lon="-3.80069">
        <ele>115.587347</ele>
        <time>2022-12-10T18:09:09.284Z</time>
      </trkpt>
      <trkpt lat="48.19002" lon="-3.80054">
        <ele>115.558948</ele>
        <time>2022-12-10T18:09:12.272Z</time>
      </trkpt>
      <trkpt lat="48.18996" lon="-3.8004">
        <ele>115.529759</ele>
        <time>2022-12-10T18:09:15.270Z</time>
      </trkpt>
      <trkpt lat="48.18991" lon="-3.80025">
        <ele>115.501782</ele>
        <time>2022-12-10T18:09:18.272Z</time>
      </trkpt>
      <trkpt lat="48.18987" lon="-3.80011">
        <ele>115.474946</ele>
        <time>2022-12-10T18:09:21.274Z</time>
      </trkpt>
      <trkpt lat="48.18983" lon="-3.79998">
        <ele>115.450564</ele>
        <time>2022-12-10T18:09:24.271Z</time>
      </trkpt>
      <trkpt lat="48.1898" lon="-3.79984">
        <ele>115.426082</ele>
        <time>2022-12-10T18:09:27.284Z</time>
      </trkpt>
      <trkpt lat="48.18976" lon="-3.79968">
        <ele>115.396655</ele>
        <time>2022-12-10T18:09:30.279Z</time>
      </trkpt>
      <trkpt lat="48.18974" lon="-3.7995">
        <ele>115.365413</ele>
        <time>2022-12-10T18:09:33.292Z</time>
      </trkpt>
      <trkpt lat="48.18974" lon="-3.79932">
        <ele>115.334907</ele>
        <time>2022-12-10T18:09:36.289Z</time>
      </trkpt>
      <trkpt lat="48.18976" lon="-3.79915">
        <ele>115.304478</ele>
        <time>2022-12-10T18:09:39.286Z</time>
      </trkpt>
      <trkpt lat="48.18979" lon="-3.79898">
        <ele>115.274634</ele>
        <time>2022-12-10T18:09:42.276Z</time>
      </trkpt>
      <trkpt lat="48.18984" lon="-3.79884">
        <ele>115.26626</ele>
        <time>2022-12-10T18:09:45.265Z</time>
      </trkpt>
      <trkpt lat="48.1899" lon="-3.79869">
        <ele>115.583099</ele>
        <time>2022-12-10T18:09:48.283Z</time>
      </trkpt>
      <trkpt lat="48.18997" lon="-3.79855">
        <ele>115.891284</ele>
        <time>2022-12-10T18:09:51.280Z</time>
      </trkpt>
      <trkpt lat="48.19003" lon="-3.79842">
        <ele>116.170539</ele>
        <time>2022-12-10T18:09:54.279Z</time>
      </trkpt>
      <trkpt lat="48.19009" lon="-3.79831">
        <ele>116.436881</ele>
        <time>2022-12-10T18:09:57.280Z</time>
      </trkpt>
      <trkpt lat="48.19015" lon="-3.79818">
        <ele>116.719624</ele>
        <time>2022-12-10T18:10:00.277Z</time>
      </trkpt>
      <trkpt lat="48.19021" lon="-3.79806">
        <ele>116.995868</ele>
        <time>2022-12-10T18:10:03.278Z</time>
      </trkpt>
      <trkpt lat="48.19027" lon="-3.79793">
        <ele>117.264674</ele>
        <time>2022-12-10T18:10:06.273Z</time>
      </trkpt>
      <trkpt lat="48.1903" lon="-3.79781">
        <ele>117.516967</ele>
        <time>2022-12-10T18:10:09.272Z</time>
      </trkpt>
      <trkpt lat="48.19037" lon="-3.79766">
        <ele>117.841252</ele>
        <time>2022-12-10T18:10:13.296Z</time>
      </trkpt>
      <trkpt lat="48.19042" lon="-3.79754">
        <ele>118.089034</ele>
        <time>2022-12-10T18:10:16.287Z</time>
      </trkpt>
      <trkpt lat="48.19048" lon="-3.7974">
        <ele>118.393803</ele>
        <time>2022-12-10T18:10:20.275Z</time>
      </trkpt>
      <trkpt lat="48.19056" lon="-3.7973">
        <ele>118.677459</ele>
        <time>2022-12-10T18:10:25.273Z</time>
      </trkpt>
      <trkpt lat="48.19065" lon="-3.79722">
        <ele>118.946387</ele>
        <time>2022-12-10T18:10:31.286Z</time>
      </trkpt>
      <trkpt lat="48.19074" lon="-3.79715">
        <ele>119.221799</ele>
        <time>2022-12-10T18:10:37.276Z</time>
      </trkpt>
      <trkpt lat="48.19087" lon="-3.79705">
        <ele>119.621275</ele>
        <time>2022-12-10T18:11:04.277Z</time>
      </trkpt>
      <trkpt lat="48.19096" lon="-3.79697">
        <ele>119.918505</ele>
        <time>2022-12-10T18:11:09.293Z</time>
      </trkpt>
      <trkpt lat="48.19105" lon="-3.79689">
        <ele>120.141558</ele>
        <time>2022-12-10T18:11:14.274Z</time>
      </trkpt>
      <trkpt lat="48.19115" lon="-3.7968">
        <ele>120.224438</ele>
        <time>2022-12-10T18:11:19.272Z</time>
      </trkpt>
      <trkpt lat="48.19122" lon="-3.79671">
        <ele>120.293803</ele>
        <time>2022-12-10T18:11:23.274Z</time>
      </trkpt>
      <trkpt lat="48.19129" lon="-3.79661">
        <ele>120.368006</ele>
        <time>2022-12-10T18:11:27.272Z</time>
      </trkpt>
      <trkpt lat="48.19134" lon="-3.7965">
        <ele>120.43823</ele>
        <time>2022-12-10T18:11:31.290Z</time>
      </trkpt>
      <trkpt lat="48.1914" lon="-3.79638">
        <ele>120.509767</ele>
        <time>2022-12-10T18:11:35.267Z</time>
      </trkpt>
      <trkpt lat="48.19145" lon="-3.79624">
        <ele>120.591188</ele>
        <time>2022-12-10T18:11:40.275Z</time>
      </trkpt>
      <trkpt lat="48.19149" lon="-3.7961">
        <ele>120.668683</ele>
        <time>2022-12-10T18:11:45.291Z</time>
      </trkpt>
      <trkpt lat="48.19153" lon="-3.79596">
        <ele>120.746014</ele>
        <time>2022-12-10T18:11:51.271Z</time>
      </trkpt>
      <trkpt lat="48.19154" lon="-3.79582">
        <ele>120.81651</ele>
        <time>2022-12-10T18:11:56.269Z</time>
      </trkpt>
      <trkpt lat="48.19156" lon="-3.79569">
        <ele>120.886301</ele>
        <time>2022-12-10T18:12:01.270Z</time>
      </trkpt>
      <trkpt lat="48.19157" lon="-3.79553">
        <ele>120.964623</ele>
        <time>2022-12-10T18:12:06.273Z</time>
      </trkpt>
      <trkpt lat="48.1916" lon="-3.79539">
        <ele>121.036872</ele>
        <time>2022-12-10T18:12:11.280Z</time>
      </trkpt>
      <trkpt lat="48.19159" lon="-3.79525">
        <ele>121.109948</ele>
        <time>2022-12-10T18:12:16.280Z</time>
      </trkpt>
      <trkpt lat="48.19158" lon="-3.79509">
        <ele>121.18928</ele>
        <time>2022-12-10T18:12:22.271Z</time>
      </trkpt>
      <trkpt lat="48.19159" lon="-3.79496">
        <ele>121.258061</ele>
        <time>2022-12-10T18:12:28.280Z</time>
      </trkpt>
      <trkpt lat="48.19159" lon="-3.79481">
        <ele>121.332911</ele>
        <time>2022-12-10T18:12:34.268Z</time>
      </trkpt>
      <trkpt lat="48.19158" lon="-3.79466">
        <ele>121.409076</ele>
        <time>2022-12-10T18:12:40.276Z</time>
      </trkpt>
      <trkpt lat="48.19155" lon="-3.79453">
        <ele>121.477781</ele>
        <time>2022-12-10T18:12:45.271Z</time>
      </trkpt>
      <trkpt lat="48.19153" lon="-3.79439">
        <ele>121.804124</ele>
        <time>2022-12-10T18:12:51.277Z</time>
      </trkpt>
      <trkpt lat="48.19152" lon="-3.79423">
        <ele>122.163141</ele>
        <time>2022-12-10T18:12:57.268Z</time>
      </trkpt>
      <trkpt lat="48.19152" lon="-3.79408">
        <ele>122.49439</ele>
        <time>2022-12-10T18:13:03.276Z</time>
      </trkpt>
      <trkpt lat="48.1915" lon="-3.79393">
        <ele>122.840282</ele>
        <time>2022-12-10T18:13:08.271Z</time>
      </trkpt>
      <trkpt lat="48.19148" lon="-3.79377">
        <ele>123.215461</ele>
        <time>2022-12-10T18:13:14.278Z</time>
      </trkpt>
      <trkpt lat="48.19148" lon="-3.79361">
        <ele>123.590395</ele>
        <time>2022-12-10T18:13:19.275Z</time>
      </trkpt>
      <trkpt lat="48.19146" lon="-3.79345">
        <ele>123.950714</ele>
        <time>2022-12-10T18:13:24.273Z</time>
      </trkpt>
      <trkpt lat="48.19146" lon="-3.79329">
        <ele>124.311114</ele>
        <time>2022-12-10T18:13:29.270Z</time>
      </trkpt>
      <trkpt lat="48.19147" lon="-3.79315">
        <ele>124.642363</ele>
        <time>2022-12-10T18:13:34.287Z</time>
      </trkpt>
      <trkpt lat="48.19147" lon="-3.79298">
        <ele>125.017297</ele>
        <time>2022-12-10T18:13:39.282Z</time>
      </trkpt>
      <trkpt lat="48.19147" lon="-3.79281">
        <ele>125.407207</ele>
        <time>2022-12-10T18:13:44.280Z</time>
      </trkpt>
      <trkpt lat="48.19148" lon="-3.79267">
        <ele>125.724213</ele>
        <time>2022-12-10T18:13:48.272Z</time>
      </trkpt>
      <trkpt lat="48.19148" lon="-3.79252">
        <ele>126.067319</ele>
        <time>2022-12-10T18:13:52.288Z</time>
      </trkpt>
      <trkpt lat="48.19148" lon="-3.79236">
        <ele>126.434429</ele>
        <time>2022-12-10T18:13:57.274Z</time>
      </trkpt>
      <trkpt lat="48.19147" lon="-3.79221">
        <ele>126.782686</ele>
        <time>2022-12-10T18:14:02.275Z</time>
      </trkpt>
      <trkpt lat="48.19147" lon="-3.79206">
        <ele>127.131556</ele>
        <time>2022-12-10T18:14:07.290Z</time>
      </trkpt>
      <trkpt lat="48.19147" lon="-3.79192">
        <ele>127.439539</ele>
        <time>2022-12-10T18:14:12.273Z</time>
      </trkpt>
      <trkpt lat="48.19146" lon="-3.79178">
        <ele>127.840867</ele>
        <time>2022-12-10T18:14:17.278Z</time>
      </trkpt>
      <trkpt lat="48.19146" lon="-3.79163">
        <ele>128.336542</ele>
        <time>2022-12-10T18:14:22.277Z</time>
      </trkpt>
      <trkpt lat="48.19145" lon="-3.79149">
        <ele>128.815675</ele>
        <time>2022-12-10T18:14:27.283Z</time>
      </trkpt>
      <trkpt lat="48.19145" lon="-3.79135">
        <ele>129.314796</ele>
        <time>2022-12-10T18:14:32.268Z</time>
      </trkpt>
      <trkpt lat="48.19145" lon="-3.7912">
        <ele>129.824559</ele>
        <time>2022-12-10T18:14:37.266Z</time>
      </trkpt>
      <trkpt lat="48.19144" lon="-3.79105">
        <ele>130.328085</ele>
        <time>2022-12-10T18:14:42.303Z</time>
      </trkpt>
      <trkpt lat="48.19144" lon="-3.79091">
        <ele>130.810087</ele>
        <time>2022-12-10T18:14:47.331Z</time>
      </trkpt>
      <trkpt lat="48.19144" lon="-3.79077">
        <ele>131.292771</ele>
        <time>2022-12-10T18:14:52.297Z</time>
      </trkpt>
      <trkpt lat="48.19143" lon="-3.79063">
        <ele>131.790142</ele>
        <time>2022-12-10T18:14:57.280Z</time>
      </trkpt>
      <trkpt lat="48.19142" lon="-3.79047">
        <ele>132.31818</ele>
        <time>2022-12-10T18:15:02.282Z</time>
      </trkpt>
      <trkpt lat="48.19142" lon="-3.79033">
        <ele>132.786761</ele>
        <time>2022-12-10T18:15:07.280Z</time>
      </trkpt>
      <trkpt lat="48.19142" lon="-3.7902">
        <ele>133.258536</ele>
        <time>2022-12-10T18:15:12.301Z</time>
      </trkpt>
      <trkpt lat="48.19142" lon="-3.79006">
        <ele>133.730283</ele>
        <time>2022-12-10T18:15:17.294Z</time>
      </trkpt>
      <trkpt lat="48.19142" lon="-3.78992">
        <ele>134.199621</ele>
        <time>2022-12-10T18:15:22.293Z</time>
      </trkpt>
      <trkpt lat="48.19142" lon="-3.78978">
        <ele>134.689427</ele>
        <time>2022-12-10T18:15:27.280Z</time>
      </trkpt>
      <trkpt lat="48.19143" lon="-3.78962">
        <ele>135.24899</ele>
        <time>2022-12-10T18:15:33.300Z</time>
      </trkpt>
      <trkpt lat="48.19144" lon="-3.78947">
        <ele>135.745091</ele>
        <time>2022-12-10T18:15:38.289Z</time>
      </trkpt>
      <trkpt lat="48.19145" lon="-3.78933">
        <ele>136.240012</ele>
        <time>2022-12-10T18:15:43.314Z</time>
      </trkpt>
      <trkpt lat="48.19145" lon="-3.78917">
        <ele>136.766678</ele>
        <time>2022-12-10T18:15:49.292Z</time>
      </trkpt>
      <trkpt lat="48.19146" lon="-3.78903">
        <ele>137.12915</ele>
        <time>2022-12-10T18:15:54.296Z</time>
      </trkpt>
      <trkpt lat="48.19147" lon="-3.78888">
        <ele>137.462729</ele>
        <time>2022-12-10T18:15:59.336Z</time>
      </trkpt>
      <trkpt lat="48.19148" lon="-3.78874">
        <ele>137.7891</ele>
        <time>2022-12-10T18:16:04.287Z</time>
      </trkpt>
      <trkpt lat="48.1915" lon="-3.7886">
        <ele>138.110571</ele>
        <time>2022-12-10T18:16:09.314Z</time>
      </trkpt>
      <trkpt lat="48.19152" lon="-3.78846">
        <ele>138.453072</ele>
        <time>2022-12-10T18:16:14.281Z</time>
      </trkpt>
      <trkpt lat="48.19154" lon="-3.78832">
        <ele>138.779233</ele>
        <time>2022-12-10T18:16:19.297Z</time>
      </trkpt>
      <trkpt lat="48.19156" lon="-3.78818">
        <ele>139.093404</ele>
        <time>2022-12-10T18:16:24.294Z</time>
      </trkpt>
      <trkpt lat="48.19157" lon="-3.78804">
        <ele>139.414345</ele>
        <time>2022-12-10T18:16:29.306Z</time>
      </trkpt>
      <trkpt lat="48.19158" lon="-3.7879">
        <ele>139.746814</ele>
        <time>2022-12-10T18:16:34.283Z</time>
      </trkpt>
      <trkpt lat="48.1916" lon="-3.78775">
        <ele>140.086317</ele>
        <time>2022-12-10T18:16:40.281Z</time>
      </trkpt>
      <trkpt lat="48.19161" lon="-3.78761">
        <ele>140.416211</ele>
        <time>2022-12-10T18:16:45.269Z</time>
      </trkpt>
      <trkpt lat="48.19161" lon="-3.78746">
        <ele>140.747319</ele>
        <time>2022-12-10T18:16:50.281Z</time>
      </trkpt>
      <trkpt lat="48.19164" lon="-3.78732">
        <ele>141.087581</ele>
        <time>2022-12-10T18:16:55.281Z</time>
      </trkpt>
      <trkpt lat="48.19163" lon="-3.78718">
        <ele>141.405216</ele>
        <time>2022-12-10T18:17:01.321Z</time>
      </trkpt>
      <trkpt lat="48.19158" lon="-3.78695">
        <ele>141.971845</ele>
        <time>2022-12-10T18:18:45.270Z</time>
      </trkpt>
      <trkpt lat="48.19155" lon="-3.78681">
        <ele>142.284694</ele>
        <time>2022-12-10T18:18:49.269Z</time>
      </trkpt>
      <trkpt lat="48.19152" lon="-3.78667">
        <ele>142.628017</ele>
        <time>2022-12-10T18:18:54.291Z</time>
      </trkpt>
      <trkpt lat="48.19148" lon="-3.78654">
        <ele>142.967539</ele>
        <time>2022-12-10T18:18:59.310Z</time>
      </trkpt>
      <trkpt lat="48.19143" lon="-3.78641">
        <ele>143.482784</ele>
        <time>2022-12-10T18:19:04.286Z</time>
      </trkpt>
      <trkpt lat="48.19135" lon="-3.7863">
        <ele>144.084432</ele>
        <time>2022-12-10T18:19:10.268Z</time>
      </trkpt>
      <trkpt lat="48.19129" lon="-3.78619">
        <ele>144.596509</ele>
        <time>2022-12-10T18:19:15.274Z</time>
      </trkpt>
      <trkpt lat="48.19124" lon="-3.78607">
        <ele>145.154238</ele>
        <time>2022-12-10T18:19:21.282Z</time>
      </trkpt>
      <trkpt lat="48.19117" lon="-3.78598">
        <ele>145.674804</ele>
        <time>2022-12-10T18:19:27.270Z</time>
      </trkpt>
      <trkpt lat="48.19109" lon="-3.78588">
        <ele>146.236378</ele>
        <time>2022-12-10T18:19:33.276Z</time>
      </trkpt>
      <trkpt lat="48.19101" lon="-3.78578">
        <ele>146.811859</ele>
        <time>2022-12-10T18:19:39.274Z</time>
      </trkpt>
      <trkpt lat="48.19093" lon="-3.78569">
        <ele>147.352673</ele>
        <time>2022-12-10T18:19:45.274Z</time>
      </trkpt>
      <trkpt lat="48.19085" lon="-3.78562">
        <ele>147.911242</ele>
        <time>2022-12-10T18:19:51.291Z</time>
      </trkpt>
      <trkpt lat="48.19077" lon="-3.78552">
        <ele>148.459258</ele>
        <time>2022-12-10T18:19:57.277Z</time>
      </trkpt>
      <trkpt lat="48.19069" lon="-3.78543">
        <ele>149.019991</ele>
        <time>2022-12-10T18:20:03.273Z</time>
      </trkpt>
      <trkpt lat="48.19062" lon="-3.78535">
        <ele>149.543545</ele>
        <time>2022-12-10T18:20:08.275Z</time>
      </trkpt>
      <trkpt lat="48.19052" lon="-3.7853">
        <ele>150.098053</ele>
        <time>2022-12-10T18:20:14.274Z</time>
      </trkpt>
      <trkpt lat="48.19043" lon="-3.78525">
        <ele>150.670887</ele>
        <time>2022-12-10T18:20:20.276Z</time>
      </trkpt>
      <trkpt lat="48.19034" lon="-3.78518">
        <ele>151.227155</ele>
        <time>2022-12-10T18:20:26.269Z</time>
      </trkpt>
      <trkpt lat="48.19025" lon="-3.78511">
        <ele>151.789964</ele>
        <time>2022-12-10T18:20:32.289Z</time>
      </trkpt>
      <trkpt lat="48.19016" lon="-3.78504">
        <ele>152.362834</ele>
        <time>2022-12-10T18:20:38.277Z</time>
      </trkpt>
      <trkpt lat="48.19007" lon="-3.78497">
        <ele>152.920297</ele>
        <time>2022-12-10T18:20:44.281Z</time>
      </trkpt>
      <trkpt lat="48.18999" lon="-3.78487">
        <ele>153.425718</ele>
        <time>2022-12-10T18:20:50.277Z</time>
      </trkpt>
      <trkpt lat="48.18991" lon="-3.78478">
        <ele>153.917632</ele>
        <time>2022-12-10T18:20:57.274Z</time>
      </trkpt>
      <trkpt lat="48.18984" lon="-3.78469">
        <ele>154.368826</ele>
        <time>2022-12-10T18:21:03.295Z</time>
      </trkpt>
      <trkpt lat="48.18977" lon="-3.78457">
        <ele>154.87691</ele>
        <time>2022-12-10T18:21:09.271Z</time>
      </trkpt>
      <trkpt lat="48.18972" lon="-3.78446">
        <ele>155.313023</ele>
        <time>2022-12-10T18:21:15.282Z</time>
      </trkpt>
      <trkpt lat="48.18967" lon="-3.78434">
        <ele>155.763152</ele>
        <time>2022-12-10T18:21:21.274Z</time>
      </trkpt>
      <trkpt lat="48.18963" lon="-3.78419">
        <ele>156.262747</ele>
        <time>2022-12-10T18:21:28.272Z</time>
      </trkpt>
      <trkpt lat="48.18961" lon="-3.78406">
        <ele>156.705203</ele>
        <time>2022-12-10T18:21:34.274Z</time>
      </trkpt>
      <trkpt lat="48.18957" lon="-3.78392">
        <ele>157.176225</ele>
        <time>2022-12-10T18:21:40.286Z</time>
      </trkpt>
      <trkpt lat="48.18955" lon="-3.78379">
        <ele>157.620394</ele>
        <time>2022-12-10T18:21:46.277Z</time>
      </trkpt>
      <trkpt lat="48.18953" lon="-3.78365">
        <ele>158.072997</ele>
        <time>2022-12-10T18:21:52.274Z</time>
      </trkpt>
      <trkpt lat="48.1895" lon="-3.78351">
        <ele>158.565658</ele>
        <time>2022-12-10T18:21:58.278Z</time>
      </trkpt>
      <trkpt lat="48.18945" lon="-3.78337">
        <ele>159.072369</ele>
        <time>2022-12-10T18:22:04.284Z</time>
      </trkpt>
      <trkpt lat="48.18944" lon="-3.78323">
        <ele>159.513985</ele>
        <time>2022-12-10T18:22:10.288Z</time>
      </trkpt>
      <trkpt lat="48.18938" lon="-3.78298">
        <ele>160.370855</ele>
        <time>2022-12-10T18:23:00.289Z</time>
      </trkpt>
      <trkpt lat="48.18936" lon="-3.78285">
        <ele>160.808523</ele>
        <time>2022-12-10T18:23:11.275Z</time>
      </trkpt>
      <trkpt lat="48.18933" lon="-3.78271">
        <ele>161.267722</ele>
        <time>2022-12-10T18:23:23.274Z</time>
      </trkpt>
      <trkpt lat="48.1893" lon="-3.78257">
        <ele>161.726921</ele>
        <time>2022-12-10T18:23:33.277Z</time>
      </trkpt>
      <trkpt lat="48.18927" lon="-3.78244">
        <ele>161.749882</ele>
        <time>2022-12-10T18:23:43.276Z</time>
      </trkpt>
      <trkpt lat="48.18925" lon="-3.78229">
        <ele>161.767568</ele>
        <time>2022-12-10T18:23:55.272Z</time>
      </trkpt>
      <trkpt lat="48.18921" lon="-3.78215">
        <ele>161.7856</ele>
        <time>2022-12-10T18:24:04.287Z</time>
      </trkpt>
      <trkpt lat="48.18921" lon="-3.782">
        <ele>161.802661</ele>
        <time>2022-12-10T18:24:17.285Z</time>
      </trkpt>
      <trkpt lat="48.18918" lon="-3.78187">
        <ele>161.81946</ele>
        <time>2022-12-10T18:24:22.269Z</time>
      </trkpt>
      <trkpt lat="48.18916" lon="-3.78171">
        <ele>161.838775</ele>
        <time>2022-12-10T18:24:26.278Z</time>
      </trkpt>
      <trkpt lat="48.18917" lon="-3.78153">
        <ele>161.859849</ele>
        <time>2022-12-10T18:24:30.294Z</time>
      </trkpt>
      <trkpt lat="48.18916" lon="-3.78136">
        <ele>161.879625</ele>
        <time>2022-12-10T18:24:34.278Z</time>
      </trkpt>
      <trkpt lat="48.18916" lon="-3.7812">
        <ele>161.898586</ele>
        <time>2022-12-10T18:24:38.278Z</time>
      </trkpt>
      <trkpt lat="48.18916" lon="-3.78106">
        <ele>161.915522</ele>
        <time>2022-12-10T18:24:41.284Z</time>
      </trkpt>
      <trkpt lat="48.18914" lon="-3.78091">
        <ele>161.932936</ele>
        <time>2022-12-10T18:24:44.286Z</time>
      </trkpt>
      <trkpt lat="48.18914" lon="-3.78078">
        <ele>161.94939</ele>
        <time>2022-12-10T18:24:47.274Z</time>
      </trkpt>
      <trkpt lat="48.18915" lon="-3.78063">
        <ele>161.966326</ele>
        <time>2022-12-10T18:24:50.279Z</time>
      </trkpt>
      <trkpt lat="48.18913" lon="-3.78049">
        <ele>161.983152</ele>
        <time>2022-12-10T18:24:53.277Z</time>
      </trkpt>
      <trkpt lat="48.18913" lon="-3.78036">
        <ele>161.999299</ele>
        <time>2022-12-10T18:24:56.279Z</time>
      </trkpt>
      <trkpt lat="48.18913" lon="-3.78021">
        <ele>162.017056</ele>
        <time>2022-12-10T18:24:59.283Z</time>
      </trkpt>
      <trkpt lat="48.18915" lon="-3.78007">
        <ele>162.033658</ele>
        <time>2022-12-10T18:25:02.282Z</time>
      </trkpt>
      <trkpt lat="48.18914" lon="-3.77993">
        <ele>162.050159</ele>
        <time>2022-12-10T18:25:05.289Z</time>
      </trkpt>
      <trkpt lat="48.18913" lon="-3.77975">
        <ele>162.187959</ele>
        <time>2022-12-10T18:25:09.281Z</time>
      </trkpt>
      <trkpt lat="48.18912" lon="-3.77958">
        <ele>162.338261</ele>
        <time>2022-12-10T18:25:13.307Z</time>
      </trkpt>
      <trkpt lat="48.18911" lon="-3.77943">
        <ele>162.4635</ele>
        <time>2022-12-10T18:25:16.276Z</time>
      </trkpt>
      <trkpt lat="48.1891" lon="-3.77926">
        <ele>162.611122</ele>
        <time>2022-12-10T18:25:20.281Z</time>
      </trkpt>
      <trkpt lat="48.1891" lon="-3.7791">
        <ele>162.752497</ele>
        <time>2022-12-10T18:25:24.296Z</time>
      </trkpt>
      <trkpt lat="48.1891" lon="-3.77896">
        <ele>162.869973</ele>
        <time>2022-12-10T18:25:27.277Z</time>
      </trkpt>
      <trkpt lat="48.1891" lon="-3.77878">
        <ele>163.024196</ele>
        <time>2022-12-10T18:25:31.310Z</time>
      </trkpt>
      <trkpt lat="48.18909" lon="-3.77864">
        <ele>163.140958</ele>
        <time>2022-12-10T18:25:34.283Z</time>
      </trkpt>
      <trkpt lat="48.18909" lon="-3.77851">
        <ele>163.257642</ele>
        <time>2022-12-10T18:25:37.279Z</time>
      </trkpt>
      <trkpt lat="48.18909" lon="-3.77837">
        <ele>163.378604</ele>
        <time>2022-12-10T18:25:40.279Z</time>
      </trkpt>
      <trkpt lat="48.18907" lon="-3.7782">
        <ele>163.519984</ele>
        <time>2022-12-10T18:25:44.292Z</time>
      </trkpt>
      <trkpt lat="48.18906" lon="-3.77805">
        <ele>163.650112</ele>
        <time>2022-12-10T18:25:48.293Z</time>
      </trkpt>
      <trkpt lat="48.18905" lon="-3.77789">
        <ele>163.791609</ele>
        <time>2022-12-10T18:25:52.275Z</time>
      </trkpt>
      <trkpt lat="48.18904" lon="-3.77774">
        <ele>163.923018</ele>
        <time>2022-12-10T18:25:56.281Z</time>
      </trkpt>
      <trkpt lat="48.18901" lon="-3.77759">
        <ele>164.055709</ele>
        <time>2022-12-10T18:26:00.278Z</time>
      </trkpt>
      <trkpt lat="48.18901" lon="-3.77743">
        <ele>164.189406</ele>
        <time>2022-12-10T18:26:04.282Z</time>
      </trkpt>
      <trkpt lat="48.18899" lon="-3.77728">
        <ele>164.321262</ele>
        <time>2022-12-10T18:26:08.280Z</time>
      </trkpt>
      <trkpt lat="48.18898" lon="-3.77714">
        <ele>164.394734</ele>
        <time>2022-12-10T18:26:12.282Z</time>
      </trkpt>
      <trkpt lat="48.18897" lon="-3.77699">
        <ele>164.443204</ele>
        <time>2022-12-10T18:26:16.275Z</time>
      </trkpt>
      <trkpt lat="48.18896" lon="-3.77685">
        <ele>164.490325</ele>
        <time>2022-12-10T18:26:20.275Z</time>
      </trkpt>
      <trkpt lat="48.18894" lon="-3.77669">
        <ele>164.542807</ele>
        <time>2022-12-10T18:26:24.287Z</time>
      </trkpt>
      <trkpt lat="48.18892" lon="-3.77654">
        <ele>164.595277</ele>
        <time>2022-12-10T18:26:28.280Z</time>
      </trkpt>
      <trkpt lat="48.18892" lon="-3.77639">
        <ele>164.6457</ele>
        <time>2022-12-10T18:26:32.281Z</time>
      </trkpt>
      <trkpt lat="48.18891" lon="-3.77623">
        <ele>164.69774</ele>
        <time>2022-12-10T18:26:36.272Z</time>
      </trkpt>
      <trkpt lat="48.18888" lon="-3.77607">
        <ele>164.751527</ele>
        <time>2022-12-10T18:26:40.281Z</time>
      </trkpt>
      <trkpt lat="48.18887" lon="-3.77591">
        <ele>164.805876</ele>
        <time>2022-12-10T18:26:44.275Z</time>
      </trkpt>
      <trkpt lat="48.18885" lon="-3.77575">
        <ele>164.859704</ele>
        <time>2022-12-10T18:26:48.278Z</time>
      </trkpt>
      <trkpt lat="48.18883" lon="-3.77558">
        <ele>164.918129</ele>
        <time>2022-12-10T18:26:52.280Z</time>
      </trkpt>
      <trkpt lat="48.18882" lon="-3.77545">
        <ele>164.962962</ele>
        <time>2022-12-10T18:26:55.277Z</time>
      </trkpt>
      <trkpt lat="48.18879" lon="-3.77528">
        <ele>165.019094</ele>
        <time>2022-12-10T18:26:59.280Z</time>
      </trkpt>
      <trkpt lat="48.18878" lon="-3.77511">
        <ele>165.077363</ele>
        <time>2022-12-10T18:27:03.282Z</time>
      </trkpt>
      <trkpt lat="48.18875" lon="-3.77493">
        <ele>165.13751</ele>
        <time>2022-12-10T18:27:07.296Z</time>
      </trkpt>
      <trkpt lat="48.18873" lon="-3.77479">
        <ele>165.185143</ele>
        <time>2022-12-10T18:27:10.281Z</time>
      </trkpt>
      <trkpt lat="48.18871" lon="-3.77462">
        <ele>165.240455</ele>
        <time>2022-12-10T18:27:14.283Z</time>
      </trkpt>
      <trkpt lat="48.18869" lon="-3.77448">
        <ele>164.918578</ele>
        <time>2022-12-10T18:27:17.273Z</time>
      </trkpt>
      <trkpt lat="48.18866" lon="-3.77433">
        <ele>164.371297</ele>
        <time>2022-12-10T18:27:20.279Z</time>
      </trkpt>
      <trkpt lat="48.18863" lon="-3.77419">
        <ele>163.846675</ele>
        <time>2022-12-10T18:27:23.293Z</time>
      </trkpt>
      <trkpt lat="48.18861" lon="-3.77403">
        <ele>163.235675</ele>
        <time>2022-12-10T18:27:26.283Z</time>
      </trkpt>
      <trkpt lat="48.18857" lon="-3.77384">
        <ele>162.522284</ele>
        <time>2022-12-10T18:27:29.274Z</time>
      </trkpt>
      <trkpt lat="48.18854" lon="-3.7737">
        <ele>162.004532</ele>
        <time>2022-12-10T18:27:31.281Z</time>
      </trkpt>
      <trkpt lat="48.18852" lon="-3.77354">
        <ele>161.435725</ele>
        <time>2022-12-10T18:27:33.281Z</time>
      </trkpt>
      <trkpt lat="48.18849" lon="-3.7734">
        <ele>160.911221</ele>
        <time>2022-12-10T18:27:35.280Z</time>
      </trkpt>
      <trkpt lat="48.18847" lon="-3.77326">
        <ele>160.366699</ele>
        <time>2022-12-10T18:27:37.293Z</time>
      </trkpt>
      <trkpt lat="48.18844" lon="-3.7731">
        <ele>159.78733</ele>
        <time>2022-12-10T18:27:39.292Z</time>
      </trkpt>
      <trkpt lat="48.18841" lon="-3.77294">
        <ele>159.20802</ele>
        <time>2022-12-10T18:27:41.299Z</time>
      </trkpt>
      <trkpt lat="48.18838" lon="-3.77279">
        <ele>158.606944</ele>
        <time>2022-12-10T18:27:43.285Z</time>
      </trkpt>
      <trkpt lat="48.18834" lon="-3.77262">
        <ele>157.997431</ele>
        <time>2022-12-10T18:27:45.296Z</time>
      </trkpt>
      <trkpt lat="48.1883" lon="-3.77245">
        <ele>157.350463</ele>
        <time>2022-12-10T18:27:47.292Z</time>
      </trkpt>
      <trkpt lat="48.18827" lon="-3.77228">
        <ele>156.710187</ele>
        <time>2022-12-10T18:27:49.282Z</time>
      </trkpt>
      <trkpt lat="48.18824" lon="-3.77212">
        <ele>156.109045</ele>
        <time>2022-12-10T18:27:51.283Z</time>
      </trkpt>
      <trkpt lat="48.1882" lon="-3.77197">
        <ele>155.543414</ele>
        <time>2022-12-10T18:27:53.281Z</time>
      </trkpt>
      <trkpt lat="48.18816" lon="-3.77182">
        <ele>155.198534</ele>
        <time>2022-12-10T18:27:55.283Z</time>
      </trkpt>
      <trkpt lat="48.18812" lon="-3.77168">
        <ele>154.889935</ele>
        <time>2022-12-10T18:27:57.291Z</time>
      </trkpt>
      <trkpt lat="48.18809" lon="-3.77152">
        <ele>154.546684</ele>
        <time>2022-12-10T18:27:59.286Z</time>
      </trkpt>
      <trkpt lat="48.18806" lon="-3.77137">
        <ele>154.206443</ele>
        <time>2022-12-10T18:28:01.284Z</time>
      </trkpt>
      <trkpt lat="48.18802" lon="-3.77123">
        <ele>153.895759</ele>
        <time>2022-12-10T18:28:03.288Z</time>
      </trkpt>
      <trkpt lat="48.18799" lon="-3.77109">
        <ele>153.59508</ele>
        <time>2022-12-10T18:28:05.283Z</time>
      </trkpt>
      <trkpt lat="48.18796" lon="-3.77095">
        <ele>153.289965</ele>
        <time>2022-12-10T18:28:07.296Z</time>
      </trkpt>
      <trkpt lat="48.18791" lon="-3.77082">
        <ele>152.976633</ele>
        <time>2022-12-10T18:28:09.282Z</time>
      </trkpt>
      <trkpt lat="48.18787" lon="-3.77068">
        <ele>152.660951</ele>
        <time>2022-12-10T18:28:11.288Z</time>
      </trkpt>
      <trkpt lat="48.18784" lon="-3.77053">
        <ele>152.334408</ele>
        <time>2022-12-10T18:28:13.282Z</time>
      </trkpt>
      <trkpt lat="48.1878" lon="-3.77039">
        <ele>152.021873</ele>
        <time>2022-12-10T18:28:15.281Z</time>
      </trkpt>
      <trkpt lat="48.18776" lon="-3.77026">
        <ele>151.711923</ele>
        <time>2022-12-10T18:28:17.290Z</time>
      </trkpt>
      <trkpt lat="48.18772" lon="-3.77012">
        <ele>151.392406</ele>
        <time>2022-12-10T18:28:19.294Z</time>
      </trkpt>
      <trkpt lat="48.18768" lon="-3.76997">
        <ele>151.072561</ele>
        <time>2022-12-10T18:28:21.282Z</time>
      </trkpt>
      <trkpt lat="48.18764" lon="-3.76982">
        <ele>150.735152</ele>
        <time>2022-12-10T18:28:23.281Z</time>
      </trkpt>
      <trkpt lat="48.1876" lon="-3.76968">
        <ele>150.40106</ele>
        <time>2022-12-10T18:28:25.279Z</time>
      </trkpt>
      <trkpt lat="48.18755" lon="-3.76953">
        <ele>150.060665</ele>
        <time>2022-12-10T18:28:27.282Z</time>
      </trkpt>
      <trkpt lat="48.18751" lon="-3.76939">
        <ele>149.831228</ele>
        <time>2022-12-10T18:28:29.282Z</time>
      </trkpt>
      <trkpt lat="48.18745" lon="-3.76925">
        <ele>149.643569</ele>
        <time>2022-12-10T18:28:31.282Z</time>
      </trkpt>
      <trkpt lat="48.1874" lon="-3.7691">
        <ele>149.452692</ele>
        <time>2022-12-10T18:28:33.286Z</time>
      </trkpt>
      <trkpt lat="48.18736" lon="-3.76896">
        <ele>149.279526</ele>
        <time>2022-12-10T18:28:35.286Z</time>
      </trkpt>
      <trkpt lat="48.18732" lon="-3.76883">
        <ele>149.104447</ele>
        <time>2022-12-10T18:28:37.296Z</time>
      </trkpt>
      <trkpt lat="48.18727" lon="-3.76869">
        <ele>148.928052</ele>
        <time>2022-12-10T18:28:39.283Z</time>
      </trkpt>
      <trkpt lat="48.18723" lon="-3.76855">
        <ele>148.752696</ele>
        <time>2022-12-10T18:28:41.283Z</time>
      </trkpt>
      <trkpt lat="48.18719" lon="-3.76841">
        <ele>148.577765</ele>
        <time>2022-12-10T18:28:43.295Z</time>
      </trkpt>
      <trkpt lat="48.18714" lon="-3.76827">
        <ele>148.394675</ele>
        <time>2022-12-10T18:28:45.285Z</time>
      </trkpt>
      <trkpt lat="48.1871" lon="-3.76813">
        <ele>148.216926</ele>
        <time>2022-12-10T18:28:47.284Z</time>
      </trkpt>
      <trkpt lat="48.18705" lon="-3.768">
        <ele>148.043542</ele>
        <time>2022-12-10T18:28:49.298Z</time>
      </trkpt>
      <trkpt lat="48.187" lon="-3.76787">
        <ele>147.875033</ele>
        <time>2022-12-10T18:28:51.310Z</time>
      </trkpt>
      <trkpt lat="48.18697" lon="-3.76774">
        <ele>147.711641</ele>
        <time>2022-12-10T18:28:53.300Z</time>
      </trkpt>
      <trkpt lat="48.18692" lon="-3.76761">
        <ele>147.543521</ele>
        <time>2022-12-10T18:28:55.285Z</time>
      </trkpt>
      <trkpt lat="48.18688" lon="-3.76748">
        <ele>147.378238</ele>
        <time>2022-12-10T18:28:57.284Z</time>
      </trkpt>
      <trkpt lat="48.18684" lon="-3.76735">
        <ele>147.213134</ele>
        <time>2022-12-10T18:28:59.301Z</time>
      </trkpt>
      <trkpt lat="48.18681" lon="-3.76722">
        <ele>147.054414</ele>
        <time>2022-12-10T18:29:01.283Z</time>
      </trkpt>
      <trkpt lat="48.18678" lon="-3.76709">
        <ele>146.896867</ele>
        <time>2022-12-10T18:29:03.288Z</time>
      </trkpt>
      <trkpt lat="48.18673" lon="-3.7669">
        <ele>146.461476</ele>
        <time>2022-12-10T18:29:06.288Z</time>
      </trkpt>
      <trkpt lat="48.1867" lon="-3.76677">
        <ele>146.119261</ele>
        <time>2022-12-10T18:29:08.296Z</time>
      </trkpt>
      <trkpt lat="48.18668" lon="-3.76664">
        <ele>145.775888</ele>
        <time>2022-12-10T18:29:10.294Z</time>
      </trkpt>
      <trkpt lat="48.18665" lon="-3.76644">
        <ele>145.274585</ele>
        <time>2022-12-10T18:29:13.281Z</time>
      </trkpt>
      <trkpt lat="48.18662" lon="-3.76625">
        <ele>144.775899</ele>
        <time>2022-12-10T18:29:16.292Z</time>
      </trkpt>
      <trkpt lat="48.18658" lon="-3.76607">
        <ele>144.307441</ele>
        <time>2022-12-10T18:29:19.283Z</time>
      </trkpt>
      <trkpt lat="48.18656" lon="-3.76591">
        <ele>143.905916</ele>
        <time>2022-12-10T18:29:22.281Z</time>
      </trkpt>
      <trkpt lat="48.18654" lon="-3.76574">
        <ele>143.467799</ele>
        <time>2022-12-10T18:29:26.283Z</time>
      </trkpt>
      <trkpt lat="48.1865" lon="-3.76557">
        <ele>143.033555</ele>
        <time>2022-12-10T18:29:30.280Z</time>
      </trkpt>
      <trkpt lat="48.18648" lon="-3.76544">
        <ele>142.696676</ele>
        <time>2022-12-10T18:29:33.291Z</time>
      </trkpt>
      <trkpt lat="48.18645" lon="-3.76531">
        <ele>142.347399</ele>
        <time>2022-12-10T18:29:36.286Z</time>
      </trkpt>
      <trkpt lat="48.18642" lon="-3.76516">
        <ele>141.960353</ele>
        <time>2022-12-10T18:29:39.296Z</time>
      </trkpt>
      <trkpt lat="48.18639" lon="-3.765">
        <ele>141.542603</ele>
        <time>2022-12-10T18:29:42.303Z</time>
      </trkpt>
      <trkpt lat="48.18634" lon="-3.76483">
        <ele>141.101901</ele>
        <time>2022-12-10T18:29:45.301Z</time>
      </trkpt>
      <trkpt lat="48.1863" lon="-3.76467">
        <ele>140.652889</ele>
        <time>2022-12-10T18:29:48.279Z</time>
      </trkpt>
      <trkpt lat="48.18625" lon="-3.76449">
        <ele>140.190472</ele>
        <time>2022-12-10T18:29:51.284Z</time>
      </trkpt>
      <trkpt lat="48.18621" lon="-3.7643">
        <ele>139.59562</ele>
        <time>2022-12-10T18:29:54.281Z</time>
      </trkpt>
      <trkpt lat="48.18617" lon="-3.76418">
        <ele>139.191627</ele>
        <time>2022-12-10T18:29:56.280Z</time>
      </trkpt>
      <trkpt lat="48.18613" lon="-3.76406">
        <ele>138.778665</ele>
        <time>2022-12-10T18:29:58.290Z</time>
      </trkpt>
      <trkpt lat="48.18607" lon="-3.76388">
        <ele>138.181789</ele>
        <time>2022-12-10T18:30:01.288Z</time>
      </trkpt>
      <trkpt lat="48.18601" lon="-3.76371">
        <ele>137.587589</ele>
        <time>2022-12-10T18:30:04.285Z</time>
      </trkpt>
      <trkpt lat="48.18595" lon="-3.76354">
        <ele>137.023486</ele>
        <time>2022-12-10T18:30:07.275Z</time>
      </trkpt>
      <trkpt lat="48.18589" lon="-3.76338">
        <ele>136.462787</ele>
        <time>2022-12-10T18:30:10.301Z</time>
      </trkpt>
      <trkpt lat="48.18583" lon="-3.76322">
        <ele>135.910538</ele>
        <time>2022-12-10T18:30:13.279Z</time>
      </trkpt>
      <trkpt lat="48.18578" lon="-3.76306">
        <ele>135.390961</ele>
        <time>2022-12-10T18:30:16.286Z</time>
      </trkpt>
      <trkpt lat="48.18574" lon="-3.76291">
        <ele>134.901915</ele>
        <time>2022-12-10T18:30:19.271Z</time>
      </trkpt>
      <trkpt lat="48.18568" lon="-3.76277">
        <ele>134.409127</ele>
        <time>2022-12-10T18:30:22.276Z</time>
      </trkpt>
      <trkpt lat="48.18562" lon="-3.76263">
        <ele>133.905042</ele>
        <time>2022-12-10T18:30:25.283Z</time>
      </trkpt>
      <trkpt lat="48.18556" lon="-3.76247">
        <ele>133.366276</ele>
        <time>2022-12-10T18:30:28.293Z</time>
      </trkpt>
      <trkpt lat="48.1855" lon="-3.76231">
        <ele>132.809624</ele>
        <time>2022-12-10T18:30:31.283Z</time>
      </trkpt>
      <trkpt lat="48.18544" lon="-3.76216">
        <ele>132.259023</ele>
        <time>2022-12-10T18:30:34.278Z</time>
      </trkpt>
      <trkpt lat="48.18538" lon="-3.762">
        <ele>131.752688</ele>
        <time>2022-12-10T18:30:37.303Z</time>
      </trkpt>
      <trkpt lat="48.18532" lon="-3.76184">
        <ele>131.250247</ele>
        <time>2022-12-10T18:30:40.286Z</time>
      </trkpt>
      <trkpt lat="48.18526" lon="-3.76167">
        <ele>130.728888</ele>
        <time>2022-12-10T18:30:43.288Z</time>
      </trkpt>
      <trkpt lat="48.1852" lon="-3.76151">
        <ele>130.237072</ele>
        <time>2022-12-10T18:30:46.283Z</time>
      </trkpt>
      <trkpt lat="48.18515" lon="-3.76136">
        <ele>129.761624</ele>
        <time>2022-12-10T18:30:49.300Z</time>
      </trkpt>
      <trkpt lat="48.1851" lon="-3.7612">
        <ele>129.27756</ele>
        <time>2022-12-10T18:30:52.277Z</time>
      </trkpt>
      <trkpt lat="48.18505" lon="-3.76104">
        <ele>128.795087</ele>
        <time>2022-12-10T18:30:55.292Z</time>
      </trkpt>
      <trkpt lat="48.185" lon="-3.76087">
        <ele>128.270105</ele>
        <time>2022-12-10T18:30:58.283Z</time>
      </trkpt>
      <trkpt lat="48.18496" lon="-3.76068">
        <ele>127.742212</ele>
        <time>2022-12-10T18:31:01.276Z</time>
      </trkpt>
      <trkpt lat="48.18492" lon="-3.7605">
        <ele>127.203615</ele>
        <time>2022-12-10T18:31:04.284Z</time>
      </trkpt>
      <trkpt lat="48.18489" lon="-3.76036">
        <ele>126.825285</ele>
        <time>2022-12-10T18:31:06.293Z</time>
      </trkpt>
      <trkpt lat="48.18487" lon="-3.76022">
        <ele>126.43649</ele>
        <time>2022-12-10T18:31:08.289Z</time>
      </trkpt>
      <trkpt lat="48.18486" lon="-3.76009">
        <ele>126.065421</ele>
        <time>2022-12-10T18:31:10.303Z</time>
      </trkpt>
      <trkpt lat="48.18484" lon="-3.75995">
        <ele>125.681134</ele>
        <time>2022-12-10T18:31:12.301Z</time>
      </trkpt>
      <trkpt lat="48.18482" lon="-3.75982">
        <ele>125.292339</ele>
        <time>2022-12-10T18:31:14.294Z</time>
      </trkpt>
      <trkpt lat="48.18479" lon="-3.75963">
        <ele>124.781292</ele>
        <time>2022-12-10T18:31:17.279Z</time>
      </trkpt>
      <trkpt lat="48.18477" lon="-3.75945">
        <ele>124.161552</ele>
        <time>2022-12-10T18:31:20.282Z</time>
      </trkpt>
      <trkpt lat="48.18476" lon="-3.75927">
        <ele>123.489926</ele>
        <time>2022-12-10T18:31:23.281Z</time>
      </trkpt>
      <trkpt lat="48.18474" lon="-3.75908">
        <ele>122.807394</ele>
        <time>2022-12-10T18:31:26.279Z</time>
      </trkpt>
      <trkpt lat="48.18472" lon="-3.75891">
        <ele>122.138832</ele>
        <time>2022-12-10T18:31:29.281Z</time>
      </trkpt>
      <trkpt lat="48.18468" lon="-3.75872">
        <ele>121.436997</ele>
        <time>2022-12-10T18:31:32.287Z</time>
      </trkpt>
      <trkpt lat="48.18464" lon="-3.75855">
        <ele>120.780333</ele>
        <time>2022-12-10T18:31:35.299Z</time>
      </trkpt>
      <trkpt lat="48.18459" lon="-3.7584">
        <ele>120.167888</ele>
        <time>2022-12-10T18:31:38.313Z</time>
      </trkpt>
      <trkpt lat="48.18455" lon="-3.75825">
        <ele>119.56653</ele>
        <time>2022-12-10T18:31:41.283Z</time>
      </trkpt>
      <trkpt lat="48.1845" lon="-3.75811">
        <ele>118.991314</ele>
        <time>2022-12-10T18:31:44.299Z</time>
      </trkpt>
      <trkpt lat="48.18444" lon="-3.75798">
        <ele>118.399961</ele>
        <time>2022-12-10T18:31:47.283Z</time>
      </trkpt>
      <trkpt lat="48.18436" lon="-3.75784">
        <ele>117.724949</ele>
        <time>2022-12-10T18:31:50.286Z</time>
      </trkpt>
      <trkpt lat="48.18429" lon="-3.75768">
        <ele>117.029117</ele>
        <time>2022-12-10T18:31:53.298Z</time>
      </trkpt>
      <trkpt lat="48.1842" lon="-3.75754">
        <ele>116.302847</ele>
        <time>2022-12-10T18:31:56.285Z</time>
      </trkpt>
      <trkpt lat="48.18411" lon="-3.75739">
        <ele>115.576207</ele>
        <time>2022-12-10T18:31:59.277Z</time>
      </trkpt>
      <trkpt lat="48.18401" lon="-3.75726">
        <ele>114.868868</ele>
        <time>2022-12-10T18:32:02.287Z</time>
      </trkpt>
      <trkpt lat="48.18392" lon="-3.75715">
        <ele>114.10818</ele>
        <time>2022-12-10T18:32:05.277Z</time>
      </trkpt>
      <trkpt lat="48.18382" lon="-3.75705">
        <ele>113.350669</ele>
        <time>2022-12-10T18:32:08.299Z</time>
      </trkpt>
      <trkpt lat="48.18373" lon="-3.75696">
        <ele>112.680143</ele>
        <time>2022-12-10T18:32:11.281Z</time>
      </trkpt>
      <trkpt lat="48.18364" lon="-3.75689">
        <ele>112.069491</ele>
        <time>2022-12-10T18:32:14.279Z</time>
      </trkpt>
      <trkpt lat="48.18356" lon="-3.75682">
        <ele>111.45263</ele>
        <time>2022-12-10T18:32:17.285Z</time>
      </trkpt>
      <trkpt lat="48.18347" lon="-3.75676">
        <ele>110.848871</ele>
        <time>2022-12-10T18:32:20.294Z</time>
      </trkpt>
      <trkpt lat="48.18339" lon="-3.7567">
        <ele>110.235767</ele>
        <time>2022-12-10T18:32:23.300Z</time>
      </trkpt>
      <trkpt lat="48.1833" lon="-3.75664">
        <ele>109.626264</ele>
        <time>2022-12-10T18:32:26.296Z</time>
      </trkpt>
      <trkpt lat="48.18321" lon="-3.75657">
        <ele>108.994082</ele>
        <time>2022-12-10T18:32:29.296Z</time>
      </trkpt>
      <trkpt lat="48.18311" lon="-3.75651">
        <ele>108.337241</ele>
        <time>2022-12-10T18:32:32.290Z</time>
      </trkpt>
      <trkpt lat="48.18302" lon="-3.75645">
        <ele>107.692156</ele>
        <time>2022-12-10T18:32:35.281Z</time>
      </trkpt>
      <trkpt lat="48.18293" lon="-3.75638">
        <ele>107.039189</ele>
        <time>2022-12-10T18:32:38.284Z</time>
      </trkpt>
      <trkpt lat="48.18284" lon="-3.75632">
        <ele>106.422184</ele>
        <time>2022-12-10T18:32:41.282Z</time>
      </trkpt>
      <trkpt lat="48.18274" lon="-3.75624">
        <ele>105.682317</ele>
        <time>2022-12-10T18:32:45.285Z</time>
      </trkpt>
      <trkpt lat="48.18266" lon="-3.75616">
        <ele>105.069113</ele>
        <time>2022-12-10T18:32:48.290Z</time>
      </trkpt>
      <trkpt lat="48.18256" lon="-3.75607">
        <ele>104.372007</ele>
        <time>2022-12-10T18:32:51.290Z</time>
      </trkpt>
      <trkpt lat="48.18245" lon="-3.75596">
        <ele>103.533753</ele>
        <time>2022-12-10T18:32:54.279Z</time>
      </trkpt>
      <trkpt lat="48.18233" lon="-3.75586">
        <ele>103.112188</ele>
        <time>2022-12-10T18:32:57.292Z</time>
      </trkpt>
      <trkpt lat="48.18225" lon="-3.75577">
        <ele>102.907022</ele>
        <time>2022-12-10T18:32:59.285Z</time>
      </trkpt>
      <trkpt lat="48.18217" lon="-3.75569">
        <ele>102.720508</ele>
        <time>2022-12-10T18:33:01.282Z</time>
      </trkpt>
      <trkpt lat="48.18209" lon="-3.75559">
        <ele>102.51599</ele>
        <time>2022-12-10T18:33:03.298Z</time>
      </trkpt>
      <trkpt lat="48.182" lon="-3.75549">
        <ele>102.299659</ele>
        <time>2022-12-10T18:33:05.284Z</time>
      </trkpt>
      <trkpt lat="48.18192" lon="-3.7554">
        <ele>102.088066</ele>
        <time>2022-12-10T18:33:07.283Z</time>
      </trkpt>
      <trkpt lat="48.18182" lon="-3.75532">
        <ele>101.869101</ele>
        <time>2022-12-10T18:33:09.285Z</time>
      </trkpt>
      <trkpt lat="48.18174" lon="-3.75522">
        <ele>101.659193</ele>
        <time>2022-12-10T18:33:11.290Z</time>
      </trkpt>
      <trkpt lat="48.18165" lon="-3.75513">
        <ele>101.4476</ele>
        <time>2022-12-10T18:33:13.301Z</time>
      </trkpt>
      <trkpt lat="48.18157" lon="-3.75503">
        <ele>101.233657</ele>
        <time>2022-12-10T18:33:15.290Z</time>
      </trkpt>
      <trkpt lat="48.18148" lon="-3.75494">
        <ele>101.028369</ele>
        <time>2022-12-10T18:33:17.313Z</time>
      </trkpt>
      <trkpt lat="48.18137" lon="-3.75484">
        <ele>100.765953</ele>
        <time>2022-12-10T18:33:20.303Z</time>
      </trkpt>
      <trkpt lat="48.18129" lon="-3.75476">
        <ele>100.582242</ele>
        <time>2022-12-10T18:33:24.282Z</time>
      </trkpt>
      <trkpt lat="48.18121" lon="-3.75467">
        <ele>100.377156</ele>
        <time>2022-12-10T18:33:30.279Z</time>
      </trkpt>
      <trkpt lat="48.18114" lon="-3.75458">
        <ele>100.195095</ele>
        <time>2022-12-10T18:33:35.275Z</time>
      </trkpt>
      <trkpt lat="48.18105" lon="-3.7545">
        <ele>99.984329</ele>
        <time>2022-12-10T18:33:41.294Z</time>
      </trkpt>
      <trkpt lat="48.18097" lon="-3.75442">
        <ele>99.787242</ele>
        <time>2022-12-10T18:33:46.283Z</time>
      </trkpt>
      <trkpt lat="48.18088" lon="-3.75435">
        <ele>100.073279</ele>
        <time>2022-12-10T18:33:51.277Z</time>
      </trkpt>
      <trkpt lat="48.1808" lon="-3.75427">
        <ele>100.482905</ele>
        <time>2022-12-10T18:33:56.284Z</time>
      </trkpt>
      <trkpt lat="48.18071" lon="-3.75418">
        <ele>100.938537</ele>
        <time>2022-12-10T18:34:01.279Z</time>
      </trkpt>
      <trkpt lat="48.18063" lon="-3.7541">
        <ele>101.35072</ele>
        <time>2022-12-10T18:34:06.283Z</time>
      </trkpt>
      <trkpt lat="48.18055" lon="-3.75401">
        <ele>101.781072</ele>
        <time>2022-12-10T18:34:11.275Z</time>
      </trkpt>
      <trkpt lat="48.18048" lon="-3.75391">
        <ele>102.181426</ele>
        <time>2022-12-10T18:34:16.275Z</time>
      </trkpt>
      <trkpt lat="48.1804" lon="-3.75381">
        <ele>102.620936</ele>
        <time>2022-12-10T18:34:22.288Z</time>
      </trkpt>
      <trkpt lat="48.18033" lon="-3.75369">
        <ele>103.056364</ele>
        <time>2022-12-10T18:34:28.277Z</time>
      </trkpt>
      <trkpt lat="48.1803" lon="-3.75355">
        <ele>103.493162</ele>
        <time>2022-12-10T18:34:34.273Z</time>
      </trkpt>
      <trkpt lat="48.18027" lon="-3.7534">
        <ele>103.925897</ele>
        <time>2022-12-10T18:34:40.288Z</time>
      </trkpt>
      <trkpt lat="48.18025" lon="-3.75327">
        <ele>104.310005</ele>
        <time>2022-12-10T18:34:46.271Z</time>
      </trkpt>
      <trkpt lat="48.18025" lon="-3.75313">
        <ele>104.691494</ele>
        <time>2022-12-10T18:35:14.304Z</time>
      </trkpt>
      <trkpt lat="48.18027" lon="-3.75299">
        <ele>105.094794</ele>
        <time>2022-12-10T18:36:19.311Z</time>
      </trkpt>
      <trkpt lat="48.18028" lon="-3.75284">
        <ele>105.543979</ele>
        <time>2022-12-10T18:36:25.288Z</time>
      </trkpt>
      <trkpt lat="48.18031" lon="-3.75269">
        <ele>105.986077</ele>
        <time>2022-12-10T18:36:31.287Z</time>
      </trkpt>
      <trkpt lat="48.18033" lon="-3.75253">
        <ele>106.425302</ele>
        <time>2022-12-10T18:36:37.304Z</time>
      </trkpt>
      <trkpt lat="48.18036" lon="-3.75239">
        <ele>106.835573</ele>
        <time>2022-12-10T18:36:43.302Z</time>
      </trkpt>
      <trkpt lat="48.18039" lon="-3.75227">
        <ele>107.221488</ele>
        <time>2022-12-10T18:36:49.309Z</time>
      </trkpt>
      <trkpt lat="48.1804" lon="-3.75213">
        <ele>107.782516</ele>
        <time>2022-12-10T18:36:57.288Z</time>
      </trkpt>
      <trkpt lat="48.18043" lon="-3.75198">
        <ele>108.539244</ele>
        <time>2022-12-10T18:37:33.315Z</time>
      </trkpt>
      <trkpt lat="48.18045" lon="-3.75184">
        <ele>109.216632</ele>
        <time>2022-12-10T18:37:43.301Z</time>
      </trkpt>
      <trkpt lat="48.18046" lon="-3.7517">
        <ele>109.923669</ele>
        <time>2022-12-10T18:37:53.286Z</time>
      </trkpt>
      <trkpt lat="48.18048" lon="-3.75155">
        <ele>110.633256</ele>
        <time>2022-12-10T18:38:03.318Z</time>
      </trkpt>
      <trkpt lat="48.18049" lon="-3.7514">
        <ele>111.343402</ele>
        <time>2022-12-10T18:38:13.296Z</time>
      </trkpt>
      <trkpt lat="48.1805" lon="-3.75126">
        <ele>112.062399</ele>
        <time>2022-12-10T18:38:23.326Z</time>
      </trkpt>
      <trkpt lat="48.18052" lon="-3.75111">
        <ele>112.771934</ele>
        <time>2022-12-10T18:38:33.342Z</time>
      </trkpt>
      <trkpt lat="48.18053" lon="-3.75096">
        <ele>113.476662</ele>
        <time>2022-12-10T18:38:42.301Z</time>
      </trkpt>
      <trkpt lat="48.18054" lon="-3.75083">
        <ele>114.139663</ele>
        <time>2022-12-10T18:38:51.296Z</time>
      </trkpt>
      <trkpt lat="48.18055" lon="-3.75068">
        <ele>114.83424</ele>
        <time>2022-12-10T18:39:01.362Z</time>
      </trkpt>
      <trkpt lat="48.18056" lon="-3.75054">
        <ele>115.53551</ele>
        <time>2022-12-10T18:39:10.313Z</time>
      </trkpt>
      <trkpt lat="48.18056" lon="-3.7504">
        <ele>116.186394</ele>
        <time>2022-12-10T18:39:19.296Z</time>
      </trkpt>
      <trkpt lat="48.18059" lon="-3.75027">
        <ele>116.875722</ele>
        <time>2022-12-10T18:39:29.354Z</time>
      </trkpt>
      <trkpt lat="48.1806" lon="-3.75013">
        <ele>117.546311</ele>
        <time>2022-12-10T18:39:38.302Z</time>
      </trkpt>
      <trkpt lat="48.18062" lon="-3.74998">
        <ele>118.265916</ele>
        <time>2022-12-10T18:39:48.305Z</time>
      </trkpt>
      <trkpt lat="48.18065" lon="-3.74985">
        <ele>118.947346</ele>
        <time>2022-12-10T18:39:57.320Z</time>
      </trkpt>
      <trkpt lat="48.18068" lon="-3.74972">
        <ele>119.602244</ele>
        <time>2022-12-10T18:40:06.298Z</time>
      </trkpt>
      <trkpt lat="48.18072" lon="-3.74958">
        <ele>120.320799</ele>
        <time>2022-12-10T18:40:15.287Z</time>
      </trkpt>
      <trkpt lat="48.18075" lon="-3.74945">
        <ele>120.705404</ele>
        <time>2022-12-10T18:40:24.304Z</time>
      </trkpt>
      <trkpt lat="48.18079" lon="-3.74931">
        <ele>121.110324</ele>
        <time>2022-12-10T18:40:33.301Z</time>
      </trkpt>
      <trkpt lat="48.18082" lon="-3.74918">
        <ele>121.468483</ele>
        <time>2022-12-10T18:40:41.296Z</time>
      </trkpt>
      <trkpt lat="48.18085" lon="-3.74903">
        <ele>121.859012</ele>
        <time>2022-12-10T18:40:50.292Z</time>
      </trkpt>
      <trkpt lat="48.18087" lon="-3.7489">
        <ele>122.221441</ele>
        <time>2022-12-10T18:40:58.298Z</time>
      </trkpt>
      <trkpt lat="48.1809" lon="-3.74876">
        <ele>122.599531</ele>
        <time>2022-12-10T18:41:06.318Z</time>
      </trkpt>
      <trkpt lat="48.18093" lon="-3.74862">
        <ele>123.001392</ele>
        <time>2022-12-10T18:41:14.315Z</time>
      </trkpt>
      <trkpt lat="48.18095" lon="-3.74847">
        <ele>123.390096</ele>
        <time>2022-12-10T18:41:22.301Z</time>
      </trkpt>
      <trkpt lat="48.18096" lon="-3.74833">
        <ele>123.778051</ele>
        <time>2022-12-10T18:41:30.309Z</time>
      </trkpt>
      <trkpt lat="48.18097" lon="-3.74819">
        <ele>124.149692</ele>
        <time>2022-12-10T18:41:37.296Z</time>
      </trkpt>
      <trkpt lat="48.18099" lon="-3.74795">
        <ele>124.782269</ele>
        <time>2022-12-10T18:42:08.315Z</time>
      </trkpt>
      <trkpt lat="48.18099" lon="-3.74781">
        <ele>125.155869</ele>
        <time>2022-12-10T18:42:12.286Z</time>
      </trkpt>
      <trkpt lat="48.181" lon="-3.74766">
        <ele>125.531898</ele>
        <time>2022-12-10T18:42:16.292Z</time>
      </trkpt>
      <trkpt lat="48.18098" lon="-3.74752">
        <ele>125.912672</ele>
        <time>2022-12-10T18:42:20.313Z</time>
      </trkpt>
      <trkpt lat="48.18097" lon="-3.74738">
        <ele>126.292852</ele>
        <time>2022-12-10T18:42:24.305Z</time>
      </trkpt>
      <trkpt lat="48.18097" lon="-3.74724">
        <ele>126.650587</ele>
        <time>2022-12-10T18:42:28.311Z</time>
      </trkpt>
      <trkpt lat="48.18097" lon="-3.7471">
        <ele>127.024438</ele>
        <time>2022-12-10T18:42:33.299Z</time>
      </trkpt>
      <trkpt lat="48.18096" lon="-3.74696">
        <ele>127.397417</ele>
        <time>2022-12-10T18:42:38.296Z</time>
      </trkpt>
      <trkpt lat="48.18094" lon="-3.74682">
        <ele>127.676891</ele>
        <time>2022-12-10T18:42:43.301Z</time>
      </trkpt>
      <trkpt lat="48.18092" lon="-3.74666">
        <ele>127.961685</ele>
        <time>2022-12-10T18:42:48.294Z</time>
      </trkpt>
      <trkpt lat="48.18091" lon="-3.74652">
        <ele>128.228819</ele>
        <time>2022-12-10T18:42:53.334Z</time>
      </trkpt>
      <trkpt lat="48.1809" lon="-3.74637">
        <ele>128.517192</ele>
        <time>2022-12-10T18:42:59.345Z</time>
      </trkpt>
      <trkpt lat="48.18089" lon="-3.74622">
        <ele>128.792642</ele>
        <time>2022-12-10T18:43:05.313Z</time>
      </trkpt>
      <trkpt lat="48.1809" lon="-3.74608">
        <ele>129.047537</ele>
        <time>2022-12-10T18:43:17.318Z</time>
      </trkpt>
      <trkpt lat="48.18092" lon="-3.74593">
        <ele>129.332877</ele>
        <time>2022-12-10T18:43:55.302Z</time>
      </trkpt>
      <trkpt lat="48.18094" lon="-3.74579">
        <ele>129.593625</ele>
        <time>2022-12-10T18:44:03.302Z</time>
      </trkpt>
      <trkpt lat="48.18097" lon="-3.74565">
        <ele>129.861402</ele>
        <time>2022-12-10T18:44:11.299Z</time>
      </trkpt>
      <trkpt lat="48.181" lon="-3.74552">
        <ele>130.118885</ele>
        <time>2022-12-10T18:44:19.307Z</time>
      </trkpt>
      <trkpt lat="48.18105" lon="-3.74539">
        <ele>130.393298</ele>
        <time>2022-12-10T18:44:28.308Z</time>
      </trkpt>
      <trkpt lat="48.18109" lon="-3.74527">
        <ele>130.664134</ele>
        <time>2022-12-10T18:44:37.315Z</time>
      </trkpt>
      <trkpt lat="48.18114" lon="-3.74511">
        <ele>130.986493</ele>
        <time>2022-12-10T18:47:00.292Z</time>
      </trkpt>
      <trkpt lat="48.18118" lon="-3.74497">
        <ele>131.26212</ele>
        <time>2022-12-10T18:47:09.280Z</time>
      </trkpt>
      <trkpt lat="48.18121" lon="-3.74484">
        <ele>131.52853</ele>
        <time>2022-12-10T18:47:17.290Z</time>
      </trkpt>
      <trkpt lat="48.18125" lon="-3.74471">
        <ele>131.785999</ele>
        <time>2022-12-10T18:47:25.287Z</time>
      </trkpt>
      <trkpt lat="48.18129" lon="-3.74458">
        <ele>132.04007</ele>
        <time>2022-12-10T18:47:33.282Z</time>
      </trkpt>
      <trkpt lat="48.18133" lon="-3.74445">
        <ele>132.315017</ele>
        <time>2022-12-10T18:47:41.280Z</time>
      </trkpt>
      <trkpt lat="48.18138" lon="-3.74432">
        <ele>132.649675</ele>
        <time>2022-12-10T18:47:50.285Z</time>
      </trkpt>
      <trkpt lat="48.18144" lon="-3.7442">
        <ele>133.043014</ele>
        <time>2022-12-10T18:47:59.288Z</time>
      </trkpt>
      <trkpt lat="48.18148" lon="-3.74408">
        <ele>133.40452</ele>
        <time>2022-12-10T18:48:07.288Z</time>
      </trkpt>
      <trkpt lat="48.18153" lon="-3.74394">
        <ele>133.793225</ele>
        <time>2022-12-10T18:48:15.282Z</time>
      </trkpt>
      <trkpt lat="48.18158" lon="-3.74381">
        <ele>134.180109</ele>
        <time>2022-12-10T18:48:23.284Z</time>
      </trkpt>
      <trkpt lat="48.18163" lon="-3.74369">
        <ele>134.556163</ele>
        <time>2022-12-10T18:48:31.281Z</time>
      </trkpt>
      <trkpt lat="48.18168" lon="-3.74358">
        <ele>134.921404</ele>
        <time>2022-12-10T18:48:39.282Z</time>
      </trkpt>
      <trkpt lat="48.18174" lon="-3.74346">
        <ele>135.278319</ele>
        <time>2022-12-10T18:48:47.289Z</time>
      </trkpt>
      <trkpt lat="48.18179" lon="-3.74334">
        <ele>135.671909</ele>
        <time>2022-12-10T18:48:55.285Z</time>
      </trkpt>
      <trkpt lat="48.18184" lon="-3.74321">
        <ele>136.050354</ele>
        <time>2022-12-10T18:49:03.291Z</time>
      </trkpt>
      <trkpt lat="48.18189" lon="-3.74308">
        <ele>136.443802</ele>
        <time>2022-12-10T18:49:11.299Z</time>
      </trkpt>
      <trkpt lat="48.18194" lon="-3.74297">
        <ele>136.804895</ele>
        <time>2022-12-10T18:49:19.277Z</time>
      </trkpt>
      <trkpt lat="48.18199" lon="-3.74284">
        <ele>137.179088</ele>
        <time>2022-12-10T18:49:27.293Z</time>
      </trkpt>
      <trkpt lat="48.1821" lon="-3.7426">
        <ele>137.939983</ele>
        <time>2022-12-10T18:50:34.284Z</time>
      </trkpt>
      <trkpt lat="48.18216" lon="-3.74248">
        <ele>138.308346</ele>
        <time>2022-12-10T18:50:39.293Z</time>
      </trkpt>
      <trkpt lat="48.18221" lon="-3.74234">
        <ele>138.725017</ele>
        <time>2022-12-10T18:50:44.293Z</time>
      </trkpt>
      <trkpt lat="48.18225" lon="-3.74221">
        <ele>139.104007</ele>
        <time>2022-12-10T18:50:48.287Z</time>
      </trkpt>
      <trkpt lat="48.18229" lon="-3.74208">
        <ele>139.461999</ele>
        <time>2022-12-10T18:50:52.289Z</time>
      </trkpt>
      <trkpt lat="48.18234" lon="-3.74194">
        <ele>139.636052</ele>
        <time>2022-12-10T18:50:56.295Z</time>
      </trkpt>
      <trkpt lat="48.18239" lon="-3.74181">
        <ele>139.803999</ele>
        <time>2022-12-10T18:51:00.280Z</time>
      </trkpt>
      <trkpt lat="48.18244" lon="-3.7417">
        <ele>139.958412</ele>
        <time>2022-12-10T18:51:04.282Z</time>
      </trkpt>
      <trkpt lat="48.18249" lon="-3.74157">
        <ele>140.118375</ele>
        <time>2022-12-10T18:51:08.286Z</time>
      </trkpt>
      <trkpt lat="48.18254" lon="-3.74145">
        <ele>140.272871</ele>
        <time>2022-12-10T18:51:12.289Z</time>
      </trkpt>
      <trkpt lat="48.18258" lon="-3.74133">
        <ele>140.429817</ele>
        <time>2022-12-10T18:51:16.293Z</time>
      </trkpt>
      <trkpt lat="48.18261" lon="-3.74119">
        <ele>140.59425</ele>
        <time>2022-12-10T18:51:20.287Z</time>
      </trkpt>
      <trkpt lat="48.18266" lon="-3.74106">
        <ele>140.763536</ele>
        <time>2022-12-10T18:51:24.295Z</time>
      </trkpt>
      <trkpt lat="48.18271" lon="-3.74092">
        <ele>140.935292</ele>
        <time>2022-12-10T18:51:28.318Z</time>
      </trkpt>
      <trkpt lat="48.18276" lon="-3.7408">
        <ele>141.10226</ele>
        <time>2022-12-10T18:51:32.291Z</time>
      </trkpt>
      <trkpt lat="48.1828" lon="-3.74067">
        <ele>141.265464</ele>
        <time>2022-12-10T18:51:36.305Z</time>
      </trkpt>
      <trkpt lat="48.18284" lon="-3.74054">
        <ele>141.424237</ele>
        <time>2022-12-10T18:51:40.283Z</time>
      </trkpt>
      <trkpt lat="48.18289" lon="-3.7404">
        <ele>141.5983</ele>
        <time>2022-12-10T18:51:44.283Z</time>
      </trkpt>
      <trkpt lat="48.18294" lon="-3.74028">
        <ele>141.762344</ele>
        <time>2022-12-10T18:51:48.292Z</time>
      </trkpt>
      <trkpt lat="48.18298" lon="-3.74015">
        <ele>141.925302</ele>
        <time>2022-12-10T18:51:52.287Z</time>
      </trkpt>
      <trkpt lat="48.18303" lon="-3.74003">
        <ele>142.084515</ele>
        <time>2022-12-10T18:51:56.296Z</time>
      </trkpt>
      <trkpt lat="48.18308" lon="-3.7399">
        <ele>142.250029</ele>
        <time>2022-12-10T18:52:00.294Z</time>
      </trkpt>
      <trkpt lat="48.18311" lon="-3.73975">
        <ele>142.422535</ele>
        <time>2022-12-10T18:52:05.286Z</time>
      </trkpt>
      <trkpt lat="48.18316" lon="-3.73963">
        <ele>142.701543</ele>
        <time>2022-12-10T18:52:10.285Z</time>
      </trkpt>
      <trkpt lat="48.18322" lon="-3.73951">
        <ele>143.043512</ele>
        <time>2022-12-10T18:52:15.289Z</time>
      </trkpt>
      <trkpt lat="48.18326" lon="-3.73938">
        <ele>143.380481</ele>
        <time>2022-12-10T18:52:20.284Z</time>
      </trkpt>
      <trkpt lat="48.18332" lon="-3.73925">
        <ele>143.734737</ele>
        <time>2022-12-10T18:52:25.287Z</time>
      </trkpt>
      <trkpt lat="48.18336" lon="-3.73912">
        <ele>144.074982</ele>
        <time>2022-12-10T18:52:30.304Z</time>
      </trkpt>
      <trkpt lat="48.1834" lon="-3.73899">
        <ele>144.405728</ele>
        <time>2022-12-10T18:52:35.295Z</time>
      </trkpt>
      <trkpt lat="48.18344" lon="-3.73885">
        <ele>144.775657</ele>
        <time>2022-12-10T18:52:42.282Z</time>
      </trkpt>
      <trkpt lat="48.18349" lon="-3.73871">
        <ele>145.132951</ele>
        <time>2022-12-10T18:52:48.293Z</time>
      </trkpt>
      <trkpt lat="48.18354" lon="-3.73857">
        <ele>145.495271</ele>
        <time>2022-12-10T18:52:54.298Z</time>
      </trkpt>
      <trkpt lat="48.18357" lon="-3.73845">
        <ele>145.809317</ele>
        <time>2022-12-10T18:52:59.294Z</time>
      </trkpt>
      <trkpt lat="48.18363" lon="-3.73831">
        <ele>146.1818</ele>
        <time>2022-12-10T18:53:05.296Z</time>
      </trkpt>
      <trkpt lat="48.18368" lon="-3.73817">
        <ele>146.550885</ele>
        <time>2022-12-10T18:53:11.287Z</time>
      </trkpt>
      <trkpt lat="48.18374" lon="-3.73804">
        <ele>146.916384</ele>
        <time>2022-12-10T18:53:17.287Z</time>
      </trkpt>
      <trkpt lat="48.18381" lon="-3.73792">
        <ele>147.286619</ele>
        <time>2022-12-10T18:53:23.285Z</time>
      </trkpt>
      <trkpt lat="48.18389" lon="-3.73781">
        <ele>147.656962</ele>
        <time>2022-12-10T18:53:29.287Z</time>
      </trkpt>
      <trkpt lat="48.18396" lon="-3.73773">
        <ele>147.974642</ele>
        <time>2022-12-10T18:53:34.288Z</time>
      </trkpt>
      <trkpt lat="48.18405" lon="-3.73763">
        <ele>148.348139</ele>
        <time>2022-12-10T18:53:40.282Z</time>
      </trkpt>
      <trkpt lat="48.18413" lon="-3.73755">
        <ele>148.699951</ele>
        <time>2022-12-10T18:53:45.287Z</time>
      </trkpt>
      <trkpt lat="48.18423" lon="-3.73749">
        <ele>148.947681</ele>
        <time>2022-12-10T18:53:50.282Z</time>
      </trkpt>
      <trkpt lat="48.18432" lon="-3.7374">
        <ele>149.18591</ele>
        <time>2022-12-10T18:53:55.296Z</time>
      </trkpt>
      <trkpt lat="48.18441" lon="-3.73733">
        <ele>149.432195</ele>
        <time>2022-12-10T18:54:00.290Z</time>
      </trkpt>
      <trkpt lat="48.18449" lon="-3.73725">
        <ele>149.646822</ele>
        <time>2022-12-10T18:54:04.304Z</time>
      </trkpt>
      <trkpt lat="48.18459" lon="-3.73716">
        <ele>149.894361</ele>
        <time>2022-12-10T18:54:09.289Z</time>
      </trkpt>
      <trkpt lat="48.18467" lon="-3.73709">
        <ele>150.115203</ele>
        <time>2022-12-10T18:54:13.290Z</time>
      </trkpt>
      <trkpt lat="48.18475" lon="-3.73701">
        <ele>150.332154</ele>
        <time>2022-12-10T18:54:17.298Z</time>
      </trkpt>
      <trkpt lat="48.18484" lon="-3.73693">
        <ele>150.56461</ele>
        <time>2022-12-10T18:54:22.299Z</time>
      </trkpt>
      <trkpt lat="48.18492" lon="-3.73686">
        <ele>150.770422</ele>
        <time>2022-12-10T18:54:26.284Z</time>
      </trkpt>
      <trkpt lat="48.185" lon="-3.73677">
        <ele>150.999878</ele>
        <time>2022-12-10T18:54:30.297Z</time>
      </trkpt>
      <trkpt lat="48.18508" lon="-3.73668">
        <ele>151.225212</ele>
        <time>2022-12-10T18:54:34.296Z</time>
      </trkpt>
      <trkpt lat="48.18517" lon="-3.73659">
        <ele>151.46889</ele>
        <time>2022-12-10T18:54:39.291Z</time>
      </trkpt>
      <trkpt lat="48.18525" lon="-3.73652">
        <ele>151.684752</ele>
        <time>2022-12-10T18:54:43.298Z</time>
      </trkpt>
      <trkpt lat="48.18534" lon="-3.73644">
        <ele>151.912899</ele>
        <time>2022-12-10T18:54:47.290Z</time>
      </trkpt>
      <trkpt lat="48.18542" lon="-3.73635">
        <ele>152.141117</ele>
        <time>2022-12-10T18:54:51.291Z</time>
      </trkpt>
      <trkpt lat="48.1855" lon="-3.73627">
        <ele>152.360523</ele>
        <time>2022-12-10T18:54:55.299Z</time>
      </trkpt>
      <trkpt lat="48.18558" lon="-3.73618">
        <ele>152.591363</ele>
        <time>2022-12-10T18:54:59.287Z</time>
      </trkpt>
      <trkpt lat="48.18566" lon="-3.73607">
        <ele>152.814224</ele>
        <time>2022-12-10T18:55:03.289Z</time>
      </trkpt>
      <trkpt lat="48.18573" lon="-3.73595">
        <ele>152.906331</ele>
        <time>2022-12-10T18:55:07.312Z</time>
      </trkpt>
      <trkpt lat="48.1858" lon="-3.73584">
        <ele>152.995334</ele>
        <time>2022-12-10T18:55:11.304Z</time>
      </trkpt>
      <trkpt lat="48.18587" lon="-3.73574">
        <ele>153.082101</ele>
        <time>2022-12-10T18:55:15.289Z</time>
      </trkpt>
      <trkpt lat="48.18594" lon="-3.7356">
        <ele>153.181304</ele>
        <time>2022-12-10T18:55:20.289Z</time>
      </trkpt>
      <trkpt lat="48.186" lon="-3.73549">
        <ele>153.264745</ele>
        <time>2022-12-10T18:55:24.286Z</time>
      </trkpt>
      <trkpt lat="48.18606" lon="-3.73539">
        <ele>153.34311</ele>
        <time>2022-12-10T18:55:39.290Z</time>
      </trkpt>
      <trkpt lat="48.18616" lon="-3.73533">
        <ele>153.430861</ele>
        <time>2022-12-10T18:55:48.284Z</time>
      </trkpt>
      <trkpt lat="48.18623" lon="-3.7352">
        <ele>153.529151</ele>
        <time>2022-12-10T18:55:53.291Z</time>
      </trkpt>
      <trkpt lat="48.18628" lon="-3.73508">
        <ele>153.609297</ele>
        <time>2022-12-10T18:55:57.310Z</time>
      </trkpt>
      <trkpt lat="48.18633" lon="-3.73496">
        <ele>153.695784</ele>
        <time>2022-12-10T18:56:01.298Z</time>
      </trkpt>
      <trkpt lat="48.18639" lon="-3.73485">
        <ele>153.779578</ele>
        <time>2022-12-10T18:56:05.316Z</time>
      </trkpt>
      <trkpt lat="48.18645" lon="-3.73473">
        <ele>153.863093</ele>
        <time>2022-12-10T18:56:09.291Z</time>
      </trkpt>
      <trkpt lat="48.18652" lon="-3.73458">
        <ele>153.96895</ele>
        <time>2022-12-10T18:56:13.314Z</time>
      </trkpt>
      <trkpt lat="48.18658" lon="-3.73446">
        <ele>154.058805</ele>
        <time>2022-12-10T18:56:16.327Z</time>
      </trkpt>
      <trkpt lat="48.18666" lon="-3.73433">
        <ele>154.158732</ele>
        <time>2022-12-10T18:56:19.321Z</time>
      </trkpt>
      <trkpt lat="48.1867" lon="-3.73421">
        <ele>154.238522</ele>
        <time>2022-12-10T18:56:22.297Z</time>
      </trkpt>
      <trkpt lat="48.18677" lon="-3.7341">
        <ele>154.32003</ele>
        <time>2022-12-10T18:56:25.301Z</time>
      </trkpt>
      <trkpt lat="48.18683" lon="-3.734">
        <ele>154.224387</ele>
        <time>2022-12-10T18:56:28.327Z</time>
      </trkpt>
      <trkpt lat="48.18692" lon="-3.73389">
        <ele>153.828684</ele>
        <time>2022-12-10T18:56:31.322Z</time>
      </trkpt>
      <trkpt lat="48.18703" lon="-3.73378">
        <ele>153.392161</ele>
        <time>2022-12-10T18:56:34.283Z</time>
      </trkpt>
      <trkpt lat="48.18713" lon="-3.73367">
        <ele>152.94254</ele>
        <time>2022-12-10T18:56:37.317Z</time>
      </trkpt>
      <trkpt lat="48.18724" lon="-3.73356">
        <ele>152.49351</ele>
        <time>2022-12-10T18:56:40.291Z</time>
      </trkpt>
      <trkpt lat="48.18735" lon="-3.73347">
        <ele>152.054309</ele>
        <time>2022-12-10T18:56:43.307Z</time>
      </trkpt>
      <trkpt lat="48.18746" lon="-3.73338">
        <ele>151.620407</ele>
        <time>2022-12-10T18:56:46.319Z</time>
      </trkpt>
      <trkpt lat="48.18758" lon="-3.73329">
        <ele>151.164258</ele>
        <time>2022-12-10T18:56:49.322Z</time>
      </trkpt>
      <trkpt lat="48.18766" lon="-3.7332">
        <ele>150.805679</ele>
        <time>2022-12-10T18:56:51.295Z</time>
      </trkpt>
      <trkpt lat="48.18775" lon="-3.73312">
        <ele>150.451069</ele>
        <time>2022-12-10T18:56:53.284Z</time>
      </trkpt>
      <trkpt lat="48.18784" lon="-3.73305">
        <ele>150.085577</ele>
        <time>2022-12-10T18:56:55.323Z</time>
      </trkpt>
      <trkpt lat="48.18793" lon="-3.73297">
        <ele>149.711326</ele>
        <time>2022-12-10T18:56:57.311Z</time>
      </trkpt>
      <trkpt lat="48.18803" lon="-3.73289">
        <ele>149.329505</ele>
        <time>2022-12-10T18:56:59.288Z</time>
      </trkpt>
      <trkpt lat="48.18812" lon="-3.73281">
        <ele>148.962881</ele>
        <time>2022-12-10T18:57:01.298Z</time>
      </trkpt>
      <trkpt lat="48.18821" lon="-3.73272">
        <ele>148.601716</ele>
        <time>2022-12-10T18:57:03.306Z</time>
      </trkpt>
      <trkpt lat="48.18829" lon="-3.73264">
        <ele>148.263148</ele>
        <time>2022-12-10T18:57:05.334Z</time>
      </trkpt>
      <trkpt lat="48.18837" lon="-3.73258">
        <ele>148.027169</ele>
        <time>2022-12-10T18:57:07.342Z</time>
      </trkpt>
      <trkpt lat="48.18849" lon="-3.73249">
        <ele>147.777865</ele>
        <time>2022-12-10T18:57:10.290Z</time>
      </trkpt>
      <trkpt lat="48.18859" lon="-3.7324">
        <ele>147.542436</ele>
        <time>2022-12-10T18:57:13.305Z</time>
      </trkpt>
      <trkpt lat="48.1887" lon="-3.73232">
        <ele>147.31453</ele>
        <time>2022-12-10T18:57:16.299Z</time>
      </trkpt>
      <trkpt lat="48.1888" lon="-3.73225">
        <ele>147.097587</ele>
        <time>2022-12-10T18:57:19.288Z</time>
      </trkpt>
      <trkpt lat="48.18889" lon="-3.73217">
        <ele>146.901079</ele>
        <time>2022-12-10T18:57:22.306Z</time>
      </trkpt>
      <trkpt lat="48.18897" lon="-3.73211">
        <ele>146.713542</ele>
        <time>2022-12-10T18:57:25.317Z</time>
      </trkpt>
      <trkpt lat="48.18907" lon="-3.73203">
        <ele>146.500045</ele>
        <time>2022-12-10T18:57:29.325Z</time>
      </trkpt>
      <trkpt lat="48.18916" lon="-3.73194">
        <ele>146.29479</ele>
        <time>2022-12-10T18:57:33.308Z</time>
      </trkpt>
      <trkpt lat="48.18926" lon="-3.73186">
        <ele>146.072081</ele>
        <time>2022-12-10T18:57:37.318Z</time>
      </trkpt>
      <trkpt lat="48.18936" lon="-3.73178">
        <ele>145.849372</ele>
        <time>2022-12-10T18:57:41.294Z</time>
      </trkpt>
      <trkpt lat="48.18944" lon="-3.7317">
        <ele>145.663456</ele>
        <time>2022-12-10T18:57:45.323Z</time>
      </trkpt>
      <trkpt lat="48.18955" lon="-3.73161">
        <ele>145.427481</ele>
        <time>2022-12-10T18:57:49.338Z</time>
      </trkpt>
      <trkpt lat="48.18964" lon="-3.73155">
        <ele>145.235281</ele>
        <time>2022-12-10T18:57:52.302Z</time>
      </trkpt>
      <trkpt lat="48.18974" lon="-3.73148">
        <ele>145.019971</ele>
        <time>2022-12-10T18:57:55.293Z</time>
      </trkpt>
      <trkpt lat="48.18982" lon="-3.73139">
        <ele>144.829545</ele>
        <time>2022-12-10T18:57:58.320Z</time>
      </trkpt>
      <trkpt lat="48.18991" lon="-3.7313">
        <ele>144.560739</ele>
        <time>2022-12-10T18:58:01.310Z</time>
      </trkpt>
      <trkpt lat="48.19002" lon="-3.73121">
        <ele>143.912913</ele>
        <time>2022-12-10T18:58:04.338Z</time>
      </trkpt>
      <trkpt lat="48.19013" lon="-3.7311">
        <ele>143.265855</ele>
        <time>2022-12-10T18:58:07.303Z</time>
      </trkpt>
      <trkpt lat="48.19023" lon="-3.731">
        <ele>142.663452</ele>
        <time>2022-12-10T18:58:10.301Z</time>
      </trkpt>
      <trkpt lat="48.19032" lon="-3.73089">
        <ele>142.044646</ele>
        <time>2022-12-10T18:58:13.299Z</time>
      </trkpt>
      <trkpt lat="48.19042" lon="-3.73076">
        <ele>141.380758</ele>
        <time>2022-12-10T18:58:16.302Z</time>
      </trkpt>
      <trkpt lat="48.19051" lon="-3.73061">
        <ele>140.705649</ele>
        <time>2022-12-10T18:58:19.297Z</time>
      </trkpt>
      <trkpt lat="48.19059" lon="-3.73047">
        <ele>140.043553</ele>
        <time>2022-12-10T18:58:22.317Z</time>
      </trkpt>
      <trkpt lat="48.19067" lon="-3.73032">
        <ele>139.425643</ele>
        <time>2022-12-10T18:58:25.315Z</time>
      </trkpt>
      <trkpt lat="48.19073" lon="-3.73019">
        <ele>138.875057</ele>
        <time>2022-12-10T18:58:28.294Z</time>
      </trkpt>
      <trkpt lat="48.19079" lon="-3.73006">
        <ele>138.325829</ele>
        <time>2022-12-10T18:58:31.331Z</time>
      </trkpt>
      <trkpt lat="48.19085" lon="-3.72992">
        <ele>137.766639</ele>
        <time>2022-12-10T18:58:34.313Z</time>
      </trkpt>
      <trkpt lat="48.19089" lon="-3.72976">
        <ele>137.213791</ele>
        <time>2022-12-10T18:58:37.317Z</time>
      </trkpt>
      <trkpt lat="48.19093" lon="-3.7296">
        <ele>136.606813</ele>
        <time>2022-12-10T18:58:40.291Z</time>
      </trkpt>
      <trkpt lat="48.19098" lon="-3.72941">
        <ele>135.923693</ele>
        <time>2022-12-10T18:58:43.320Z</time>
      </trkpt>
      <trkpt lat="48.19101" lon="-3.72928">
        <ele>135.459495</ele>
        <time>2022-12-10T18:58:45.339Z</time>
      </trkpt>
      <trkpt lat="48.19103" lon="-3.72915">
        <ele>134.960795</ele>
        <time>2022-12-10T18:58:47.290Z</time>
      </trkpt>
      <trkpt lat="48.19105" lon="-3.72901">
        <ele>134.468978</ele>
        <time>2022-12-10T18:58:49.303Z</time>
      </trkpt>
      <trkpt lat="48.19108" lon="-3.72883">
        <ele>133.780822</ele>
        <time>2022-12-10T18:58:52.296Z</time>
      </trkpt>
      <trkpt lat="48.1911" lon="-3.72865">
        <ele>133.127085</ele>
        <time>2022-12-10T18:58:55.295Z</time>
      </trkpt>
      <trkpt lat="48.19111" lon="-3.72846">
        <ele>132.450693</ele>
        <time>2022-12-10T18:58:58.325Z</time>
      </trkpt>
      <trkpt lat="48.19112" lon="-3.72826">
        <ele>131.746923</ele>
        <time>2022-12-10T18:59:01.307Z</time>
      </trkpt>
      <trkpt lat="48.19111" lon="-3.7281">
        <ele>131.179957</ele>
        <time>2022-12-10T18:59:03.326Z</time>
      </trkpt>
      <trkpt lat="48.1911" lon="-3.72795">
        <ele>130.645956</ele>
        <time>2022-12-10T18:59:05.298Z</time>
      </trkpt>
      <trkpt lat="48.19109" lon="-3.72781">
        <ele>130.13843</ele>
        <time>2022-12-10T18:59:07.288Z</time>
      </trkpt>
      <trkpt lat="48.19109" lon="-3.72761">
        <ele>129.431108</ele>
        <time>2022-12-10T18:59:10.302Z</time>
      </trkpt>
      <trkpt lat="48.19108" lon="-3.72741">
        <ele>128.703078</ele>
        <time>2022-12-10T18:59:13.316Z</time>
      </trkpt>
      <trkpt lat="48.19108" lon="-3.72722">
        <ele>128.026866</ele>
        <time>2022-12-10T18:59:16.292Z</time>
      </trkpt>
      <trkpt lat="48.19107" lon="-3.72703">
        <ele>127.356693</ele>
        <time>2022-12-10T18:59:19.326Z</time>
      </trkpt>
      <trkpt lat="48.19107" lon="-3.72689">
        <ele>126.83156</ele>
        <time>2022-12-10T18:59:21.314Z</time>
      </trkpt>
      <trkpt lat="48.19106" lon="-3.72675">
        <ele>126.352387</ele>
        <time>2022-12-10T18:59:23.317Z</time>
      </trkpt>
      <trkpt lat="48.19106" lon="-3.72661">
        <ele>125.837943</ele>
        <time>2022-12-10T18:59:25.315Z</time>
      </trkpt>
      <trkpt lat="48.19105" lon="-3.72646">
        <ele>126.09996</ele>
        <time>2022-12-10T18:59:27.320Z</time>
      </trkpt>
      <trkpt lat="48.19104" lon="-3.72631">
        <ele>126.373133</ele>
        <time>2022-12-10T18:59:29.325Z</time>
      </trkpt>
      <trkpt lat="48.19105" lon="-3.72616">
        <ele>126.631369</ele>
        <time>2022-12-10T18:59:31.308Z</time>
      </trkpt>
      <trkpt lat="48.19104" lon="-3.72602">
        <ele>126.877058</ele>
        <time>2022-12-10T18:59:33.315Z</time>
      </trkpt>
      <trkpt lat="48.19103" lon="-3.72586">
        <ele>127.176149</ele>
        <time>2022-12-10T18:59:36.305Z</time>
      </trkpt>
      <trkpt lat="48.19102" lon="-3.7257">
        <ele>127.466607</ele>
        <time>2022-12-10T18:59:40.290Z</time>
      </trkpt>
      <trkpt lat="48.191" lon="-3.72554">
        <ele>127.747405</ele>
        <time>2022-12-10T18:59:44.301Z</time>
      </trkpt>
      <trkpt lat="48.19099" lon="-3.72541">
        <ele>127.994503</ele>
        <time>2022-12-10T18:59:49.301Z</time>
      </trkpt>
      <trkpt lat="48.19096" lon="-3.72526">
        <ele>128.271341</ele>
        <time>2022-12-10T18:59:56.298Z</time>
      </trkpt>
      <trkpt lat="48.19095" lon="-3.7251">
        <ele>128.558289</ele>
        <time>2022-12-10T19:00:01.298Z</time>
      </trkpt>
      <trkpt lat="48.19092" lon="-3.72496">
        <ele>128.816004</ele>
        <time>2022-12-10T19:00:06.324Z</time>
      </trkpt>
      <trkpt lat="48.19089" lon="-3.72483">
        <ele>129.061846</ele>
        <time>2022-12-10T19:00:11.306Z</time>
      </trkpt>
      <trkpt lat="48.19086" lon="-3.72468">
        <ele>129.340415</ele>
        <time>2022-12-10T19:00:17.298Z</time>
      </trkpt>
      <trkpt lat="48.1908" lon="-3.72455">
        <ele>129.628722</ele>
        <time>2022-12-10T19:00:24.314Z</time>
      </trkpt>
      <trkpt lat="48.19076" lon="-3.72443">
        <ele>129.87942</ele>
        <time>2022-12-10T19:00:30.304Z</time>
      </trkpt>
      <trkpt lat="48.19073" lon="-3.7243">
        <ele>130.123807</ele>
        <time>2022-12-10T19:00:36.285Z</time>
      </trkpt>
      <trkpt lat="48.19064" lon="-3.72406">
        <ele>130.611763</ele>
        <time>2022-12-10T19:01:33.287Z</time>
      </trkpt>
      <trkpt lat="48.19059" lon="-3.72394">
        <ele>131.096245</ele>
        <time>2022-12-10T19:01:42.287Z</time>
      </trkpt>
      <trkpt lat="48.19054" lon="-3.72382">
        <ele>131.665476</ele>
        <time>2022-12-10T19:01:51.302Z</time>
      </trkpt>
      <trkpt lat="48.19049" lon="-3.72369">
        <ele>132.230035</ele>
        <time>2022-12-10T19:02:00.318Z</time>
      </trkpt>
      <trkpt lat="48.19044" lon="-3.72357">
        <ele>132.819107</ele>
        <time>2022-12-10T19:02:08.332Z</time>
      </trkpt>
      <trkpt lat="48.1904" lon="-3.72345">
        <ele>133.363617</ele>
        <time>2022-12-10T19:02:16.310Z</time>
      </trkpt>
      <trkpt lat="48.19035" lon="-3.72332">
        <ele>133.9217</ele>
        <time>2022-12-10T19:02:25.316Z</time>
      </trkpt>
      <trkpt lat="48.19031" lon="-3.72318">
        <ele>134.500057</ele>
        <time>2022-12-10T19:02:34.306Z</time>
      </trkpt>
      <trkpt lat="48.19027" lon="-3.72306">
        <ele>135.053137</ele>
        <time>2022-12-10T19:02:43.305Z</time>
      </trkpt>
      <trkpt lat="48.19023" lon="-3.72294">
        <ele>135.585772</ele>
        <time>2022-12-10T19:02:52.288Z</time>
      </trkpt>
      <trkpt lat="48.19019" lon="-3.7228">
        <ele>136.18442</ele>
        <time>2022-12-10T19:03:01.321Z</time>
      </trkpt>
      <trkpt lat="48.19015" lon="-3.72266">
        <ele>136.772027</ele>
        <time>2022-12-10T19:03:11.295Z</time>
      </trkpt>
      <trkpt lat="48.19012" lon="-3.72253">
        <ele>137.32392</ele>
        <time>2022-12-10T19:03:20.310Z</time>
      </trkpt>
      <trkpt lat="48.19009" lon="-3.72239">
        <ele>137.886893</ele>
        <time>2022-12-10T19:03:29.304Z</time>
      </trkpt>
      <trkpt lat="48.19005" lon="-3.72226">
        <ele>138.45689</ele>
        <time>2022-12-10T19:03:37.285Z</time>
      </trkpt>
      <trkpt lat="48.19003" lon="-3.72212">
        <ele>139.012104</ele>
        <time>2022-12-10T19:03:45.288Z</time>
      </trkpt>
      <trkpt lat="48.19" lon="-3.72199">
        <ele>139.562246</ele>
        <time>2022-12-10T19:03:53.281Z</time>
      </trkpt>
      <trkpt lat="48.18999" lon="-3.72186">
        <ele>140.090519</ele>
        <time>2022-12-10T19:04:01.291Z</time>
      </trkpt>
      <trkpt lat="48.18997" lon="-3.72171">
        <ele>140.674023</ele>
        <time>2022-12-10T19:04:09.303Z</time>
      </trkpt>
      <trkpt lat="48.18995" lon="-3.72156">
        <ele>141.274275</ele>
        <time>2022-12-10T19:04:17.300Z</time>
      </trkpt>
      <trkpt lat="48.18994" lon="-3.72141">
        <ele>141.509347</ele>
        <time>2022-12-10T19:04:25.300Z</time>
      </trkpt>
      <trkpt lat="48.18994" lon="-3.72127">
        <ele>141.723714</ele>
        <time>2022-12-10T19:04:33.293Z</time>
      </trkpt>
      <trkpt lat="48.18995" lon="-3.72112">
        <ele>141.958786</ele>
        <time>2022-12-10T19:04:41.288Z</time>
      </trkpt>
      <trkpt lat="48.18996" lon="-3.72088">
        <ele>142.336237</ele>
        <time>2022-12-10T19:05:30.301Z</time>
      </trkpt>
      <trkpt lat="48.18996" lon="-3.72073">
        <ele>142.560066</ele>
        <time>2022-12-10T19:05:35.321Z</time>
      </trkpt>
      <trkpt lat="48.18994" lon="-3.72059">
        <ele>142.789483</ele>
        <time>2022-12-10T19:05:40.312Z</time>
      </trkpt>
      <trkpt lat="48.18998" lon="-3.72045">
        <ele>143.025674</ele>
        <time>2022-12-10T19:05:45.287Z</time>
      </trkpt>
      <trkpt lat="48.18998" lon="-3.72031">
        <ele>143.236936</ele>
        <time>2022-12-10T19:05:49.300Z</time>
      </trkpt>
      <trkpt lat="48.18998" lon="-3.72017">
        <ele>143.449712</ele>
        <time>2022-12-10T19:05:53.289Z</time>
      </trkpt>
      <trkpt lat="48.19" lon="-3.72002">
        <ele>143.69109</ele>
        <time>2022-12-10T19:05:58.306Z</time>
      </trkpt>
      <trkpt lat="48.19001" lon="-3.71987">
        <ele>143.930073</ele>
        <time>2022-12-10T19:06:03.299Z</time>
      </trkpt>
      <trkpt lat="48.19003" lon="-3.71973">
        <ele>144.140386</ele>
        <time>2022-12-10T19:06:07.286Z</time>
      </trkpt>
      <trkpt lat="48.19005" lon="-3.7196">
        <ele>144.358766</ele>
        <time>2022-12-10T19:06:11.298Z</time>
      </trkpt>
      <trkpt lat="48.19008" lon="-3.71946">
        <ele>144.577561</ele>
        <time>2022-12-10T19:06:15.306Z</time>
      </trkpt>
      <trkpt lat="48.19011" lon="-3.71932">
        <ele>144.800791</ele>
        <time>2022-12-10T19:06:19.299Z</time>
      </trkpt>
      <trkpt lat="48.19015" lon="-3.7192">
        <ele>145.012651</ele>
        <time>2022-12-10T19:06:23.300Z</time>
      </trkpt>
      <trkpt lat="48.19019" lon="-3.71907">
        <ele>145.242592</ele>
        <time>2022-12-10T19:06:28.296Z</time>
      </trkpt>
      <trkpt lat="48.19025" lon="-3.71895">
        <ele>145.473882</ele>
        <time>2022-12-10T19:06:33.300Z</time>
      </trkpt>
      <trkpt lat="48.1903" lon="-3.71881">
        <ele>145.712316</ele>
        <time>2022-12-10T19:06:38.293Z</time>
      </trkpt>
      <trkpt lat="48.19035" lon="-3.71868">
        <ele>145.947021</ele>
        <time>2022-12-10T19:06:43.303Z</time>
      </trkpt>
      <trkpt lat="48.19041" lon="-3.71857">
        <ele>146.181521</ele>
        <time>2022-12-10T19:06:48.299Z</time>
      </trkpt>
      <trkpt lat="48.19049" lon="-3.71848">
        <ele>146.399092</ele>
        <time>2022-12-10T19:06:53.290Z</time>
      </trkpt>
      <trkpt lat="48.19055" lon="-3.71836">
        <ele>146.630122</ele>
        <time>2022-12-10T19:06:58.321Z</time>
      </trkpt>
      <trkpt lat="48.19061" lon="-3.71826">
        <ele>146.850368</ele>
        <time>2022-12-10T19:07:03.329Z</time>
      </trkpt>
      <trkpt lat="48.19068" lon="-3.71815">
        <ele>147.08376</ele>
        <time>2022-12-10T19:07:08.302Z</time>
      </trkpt>
      <trkpt lat="48.19075" lon="-3.71804">
        <ele>147.310768</ele>
        <time>2022-12-10T19:07:13.299Z</time>
      </trkpt>
      <trkpt lat="48.19081" lon="-3.71793">
        <ele>147.544072</ele>
        <time>2022-12-10T19:07:18.295Z</time>
      </trkpt>
      <trkpt lat="48.19089" lon="-3.71782">
        <ele>147.790143</ele>
        <time>2022-12-10T19:07:23.298Z</time>
      </trkpt>
      <trkpt lat="48.19096" lon="-3.71771">
        <ele>148.02192</ele>
        <time>2022-12-10T19:07:28.296Z</time>
      </trkpt>
      <trkpt lat="48.19103" lon="-3.7176">
        <ele>148.264115</ele>
        <time>2022-12-10T19:07:34.301Z</time>
      </trkpt>
      <trkpt lat="48.1911" lon="-3.7175">
        <ele>148.480517</ele>
        <time>2022-12-10T19:07:40.302Z</time>
      </trkpt>
      <trkpt lat="48.19117" lon="-3.71741">
        <ele>148.704718</ele>
        <time>2022-12-10T19:07:46.299Z</time>
      </trkpt>
      <trkpt lat="48.19124" lon="-3.71731">
        <ele>148.930682</ele>
        <time>2022-12-10T19:07:52.301Z</time>
      </trkpt>
      <trkpt lat="48.19131" lon="-3.71719">
        <ele>149.174265</ele>
        <time>2022-12-10T19:07:58.301Z</time>
      </trkpt>
      <trkpt lat="48.19138" lon="-3.7171">
        <ele>149.394363</ele>
        <time>2022-12-10T19:08:03.312Z</time>
      </trkpt>
      <trkpt lat="48.19145" lon="-3.717">
        <ele>149.613761</ele>
        <time>2022-12-10T19:08:09.336Z</time>
      </trkpt>
      <trkpt lat="48.19152" lon="-3.71691">
        <ele>149.640801</ele>
        <time>2022-12-10T19:08:15.317Z</time>
      </trkpt>
      <trkpt lat="48.1916" lon="-3.7168">
        <ele>149.640801</ele>
        <time>2022-12-10T19:08:21.319Z</time>
      </trkpt>
      <trkpt lat="48.19166" lon="-3.71669">
        <ele>149.640801</ele>
        <time>2022-12-10T19:08:27.314Z</time>
      </trkpt>
      <trkpt lat="48.19174" lon="-3.71658">
        <ele>149.640801</ele>
        <time>2022-12-10T19:08:33.303Z</time>
      </trkpt>
      <trkpt lat="48.19182" lon="-3.71648">
        <ele>149.640801</ele>
        <time>2022-12-10T19:08:39.288Z</time>
      </trkpt>
      <trkpt lat="48.19189" lon="-3.71638">
        <ele>149.640801</ele>
        <time>2022-12-10T19:08:45.323Z</time>
      </trkpt>
      <trkpt lat="48.19196" lon="-3.71628">
        <ele>149.640801</ele>
        <time>2022-12-10T19:08:50.332Z</time>
      </trkpt>
      <trkpt lat="48.19204" lon="-3.7162">
        <ele>149.640801</ele>
        <time>2022-12-10T19:08:56.313Z</time>
      </trkpt>
      <trkpt lat="48.19211" lon="-3.71612">
        <ele>149.640801</ele>
        <time>2022-12-10T19:09:01.299Z</time>
      </trkpt>
      <trkpt lat="48.19218" lon="-3.71603">
        <ele>149.640801</ele>
        <time>2022-12-10T19:09:07.288Z</time>
      </trkpt>
      <trkpt lat="48.19225" lon="-3.71593">
        <ele>149.640801</ele>
        <time>2022-12-10T19:09:12.286Z</time>
      </trkpt>
      <trkpt lat="48.19233" lon="-3.71583">
        <ele>149.640801</ele>
        <time>2022-12-10T19:09:18.317Z</time>
      </trkpt>
      <trkpt lat="48.19241" lon="-3.71579">
        <ele>149.640801</ele>
        <time>2022-12-10T19:09:46.306Z</time>
      </trkpt>
      <trkpt lat="48.19249" lon="-3.71588">
        <ele>149.640801</ele>
        <time>2022-12-10T19:10:17.334Z</time>
      </trkpt>
      <trkpt lat="48.19249" lon="-3.71587">
        <ele>149.640801</ele>
        <time>2022-12-10T19:11:15.600Z</time>
        <extensions>
          <visugpx:TrkExtension xmlns:visugpx="https://www.visugpx.com/editgpx/">
            <visugpx:node>1</visugpx:node>
            </visugpx:TrkExtension>
        </extensions>
      </trkpt>
    </trkseg>
  </trk>
  <trk>
    <name><![CDATA[Spezet - Rostrenen]]></name>
    <extensions>
      <line xmlns="http://www.topografix.com/GPX/gpx_style/0/2">
        <color>0000ff</color>
        <width>4</width>
      </line>
    </extensions>
    <trkseg>
      <trkpt lat="48.19235" lon="-3.71617">
        <ele>157.86541</ele>
        <time>2022-12-11T12:17:25.335Z</time>
      </trkpt>
      <trkpt lat="48.19221" lon="-3.71601">
        <ele>157.86541</ele>
        <time>2022-12-11T12:21:10.448Z</time>
      </trkpt>
      <trkpt lat="48.19224" lon="-3.71587">
        <ele>157.86541</ele>
        <time>2022-12-11T12:21:16.437Z</time>
      </trkpt>
      <trkpt lat="48.19231" lon="-3.71579">
        <ele>157.86541</ele>
        <time>2022-12-11T12:21:21.432Z</time>
      </trkpt>
      <trkpt lat="48.19238" lon="-3.71566">
        <ele>157.86541</ele>
        <time>2022-12-11T12:21:26.450Z</time>
      </trkpt>
      <trkpt lat="48.19242" lon="-3.71553">
        <ele>157.86541</ele>
        <time>2022-12-11T12:21:31.441Z</time>
      </trkpt>
      <trkpt lat="48.19244" lon="-3.71538">
        <ele>157.86541</ele>
        <time>2022-12-11T12:21:36.453Z</time>
      </trkpt>
      <trkpt lat="48.19246" lon="-3.71524">
        <ele>157.86541</ele>
        <time>2022-12-11T12:21:41.447Z</time>
      </trkpt>
      <trkpt lat="48.19249" lon="-3.71508">
        <ele>157.86541</ele>
        <time>2022-12-11T12:21:46.435Z</time>
      </trkpt>
      <trkpt lat="48.1925" lon="-3.71491">
        <ele>157.859593</ele>
        <time>2022-12-11T12:21:51.431Z</time>
      </trkpt>
      <trkpt lat="48.19252" lon="-3.71478">
        <ele>157.853476</ele>
        <time>2022-12-11T12:21:55.442Z</time>
      </trkpt>
      <trkpt lat="48.19254" lon="-3.71462">
        <ele>157.84632</ele>
        <time>2022-12-11T12:21:59.452Z</time>
      </trkpt>
      <trkpt lat="48.19256" lon="-3.71446">
        <ele>157.8389</ele>
        <time>2022-12-11T12:22:03.450Z</time>
      </trkpt>
      <trkpt lat="48.19258" lon="-3.71429">
        <ele>157.831148</ele>
        <time>2022-12-11T12:22:07.427Z</time>
      </trkpt>
      <trkpt lat="48.19261" lon="-3.71412">
        <ele>157.823716</ele>
        <time>2022-12-11T12:22:11.451Z</time>
      </trkpt>
      <trkpt lat="48.19263" lon="-3.71399">
        <ele>157.81767</ele>
        <time>2022-12-11T12:22:14.454Z</time>
      </trkpt>
      <trkpt lat="48.19264" lon="-3.71385">
        <ele>157.811354</ele>
        <time>2022-12-11T12:22:17.449Z</time>
      </trkpt>
      <trkpt lat="48.19265" lon="-3.7137">
        <ele>157.804712</ele>
        <time>2022-12-11T12:22:20.448Z</time>
      </trkpt>
      <trkpt lat="48.19267" lon="-3.71355">
        <ele>157.797918</ele>
        <time>2022-12-11T12:22:23.447Z</time>
      </trkpt>
      <trkpt lat="48.1927" lon="-3.71341">
        <ele>157.791246</ele>
        <time>2022-12-11T12:22:26.455Z</time>
      </trkpt>
      <trkpt lat="48.19272" lon="-3.71327">
        <ele>157.785072</ele>
        <time>2022-12-11T12:22:29.449Z</time>
      </trkpt>
      <trkpt lat="48.19273" lon="-3.71313">
        <ele>157.778562</ele>
        <time>2022-12-11T12:22:32.451Z</time>
      </trkpt>
      <trkpt lat="48.19275" lon="-3.71298">
        <ele>157.771877</ele>
        <time>2022-12-11T12:22:35.451Z</time>
      </trkpt>
      <trkpt lat="48.19276" lon="-3.71283">
        <ele>157.765288</ele>
        <time>2022-12-11T12:22:38.454Z</time>
      </trkpt>
      <trkpt lat="48.19275" lon="-3.71268">
        <ele>157.758425</ele>
        <time>2022-12-11T12:22:41.433Z</time>
      </trkpt>
      <trkpt lat="48.19274" lon="-3.71252">
        <ele>157.751491</ele>
        <time>2022-12-11T12:22:44.452Z</time>
      </trkpt>
      <trkpt lat="48.19271" lon="-3.71238">
        <ele>157.717174</ele>
        <time>2022-12-11T12:22:47.445Z</time>
      </trkpt>
      <trkpt lat="48.1927" lon="-3.71222">
        <ele>157.288725</ele>
        <time>2022-12-11T12:22:51.447Z</time>
      </trkpt>
      <trkpt lat="48.19267" lon="-3.71214">
        <ele>157.036774</ele>
        <time>2022-12-11T12:23:10.239Z</time>
      </trkpt>
      <trkpt lat="48.19272" lon="-3.71199">
        <ele>156.601816</ele>
        <time>2022-12-11T12:39:32.443Z</time>
      </trkpt>
      <trkpt lat="48.19276" lon="-3.71183">
        <ele>156.152608</ele>
        <time>2022-12-11T12:39:36.482Z</time>
      </trkpt>
      <trkpt lat="48.19278" lon="-3.71169">
        <ele>155.768964</ele>
        <time>2022-12-11T12:39:39.446Z</time>
      </trkpt>
      <trkpt lat="48.19281" lon="-3.71155">
        <ele>155.37054</ele>
        <time>2022-12-11T12:39:42.436Z</time>
      </trkpt>
      <trkpt lat="48.19285" lon="-3.71139">
        <ele>154.921333</ele>
        <time>2022-12-11T12:39:45.439Z</time>
      </trkpt>
      <trkpt lat="48.19289" lon="-3.71125">
        <ele>154.507771</ele>
        <time>2022-12-11T12:39:48.439Z</time>
      </trkpt>
      <trkpt lat="48.19292" lon="-3.71111">
        <ele>154.085818</ele>
        <time>2022-12-11T12:39:52.454Z</time>
      </trkpt>
      <trkpt lat="48.19297" lon="-3.71094">
        <ele>153.610546</ele>
        <time>2022-12-11T12:39:56.514Z</time>
      </trkpt>
      <trkpt lat="48.193" lon="-3.7108">
        <ele>153.20691</ele>
        <time>2022-12-11T12:39:59.459Z</time>
      </trkpt>
      <trkpt lat="48.19305" lon="-3.71065">
        <ele>152.77951</ele>
        <time>2022-12-11T12:40:02.442Z</time>
      </trkpt>
      <trkpt lat="48.1931" lon="-3.71051">
        <ele>152.324941</ele>
        <time>2022-12-11T12:40:05.442Z</time>
      </trkpt>
      <trkpt lat="48.19315" lon="-3.71036">
        <ele>151.885813</ele>
        <time>2022-12-11T12:40:08.452Z</time>
      </trkpt>
      <trkpt lat="48.1932" lon="-3.71019">
        <ele>151.401061</ele>
        <time>2022-12-11T12:40:12.438Z</time>
      </trkpt>
      <trkpt lat="48.19324" lon="-3.71007">
        <ele>151.019469</ele>
        <time>2022-12-11T12:40:15.444Z</time>
      </trkpt>
      <trkpt lat="48.19328" lon="-3.70992">
        <ele>150.611906</ele>
        <time>2022-12-11T12:40:18.437Z</time>
      </trkpt>
      <trkpt lat="48.19331" lon="-3.70979">
        <ele>150.192911</ele>
        <time>2022-12-11T12:40:21.456Z</time>
      </trkpt>
      <trkpt lat="48.19336" lon="-3.70966">
        <ele>149.721733</ele>
        <time>2022-12-11T12:40:24.436Z</time>
      </trkpt>
      <trkpt lat="48.19342" lon="-3.70952">
        <ele>149.192448</ele>
        <time>2022-12-11T12:40:27.457Z</time>
      </trkpt>
      <trkpt lat="48.19346" lon="-3.70937">
        <ele>148.693662</ele>
        <time>2022-12-11T12:40:30.449Z</time>
      </trkpt>
      <trkpt lat="48.19352" lon="-3.70922">
        <ele>148.144554</ele>
        <time>2022-12-11T12:40:33.437Z</time>
      </trkpt>
      <trkpt lat="48.19356" lon="-3.7091">
        <ele>147.721916</ele>
        <time>2022-12-11T12:40:35.442Z</time>
      </trkpt>
      <trkpt lat="48.1936" lon="-3.70898">
        <ele>147.292351</ele>
        <time>2022-12-11T12:40:37.456Z</time>
      </trkpt>
      <trkpt lat="48.19364" lon="-3.70884">
        <ele>146.834634</ele>
        <time>2022-12-11T12:40:39.449Z</time>
      </trkpt>
      <trkpt lat="48.19369" lon="-3.70871">
        <ele>146.365238</ele>
        <time>2022-12-11T12:40:41.446Z</time>
      </trkpt>
      <trkpt lat="48.19374" lon="-3.70854">
        <ele>145.780984</ele>
        <time>2022-12-11T12:40:44.460Z</time>
      </trkpt>
      <trkpt lat="48.1938" lon="-3.70837">
        <ele>145.176153</ele>
        <time>2022-12-11T12:40:47.442Z</time>
      </trkpt>
      <trkpt lat="48.19387" lon="-3.70821">
        <ele>144.578281</ele>
        <time>2022-12-11T12:40:50.464Z</time>
      </trkpt>
      <trkpt lat="48.19394" lon="-3.70805">
        <ele>143.964847</ele>
        <time>2022-12-11T12:40:53.443Z</time>
      </trkpt>
      <trkpt lat="48.194" lon="-3.70792">
        <ele>143.489212</ele>
        <time>2022-12-11T12:40:55.456Z</time>
      </trkpt>
      <trkpt lat="48.19406" lon="-3.70781">
        <ele>143.063809</ele>
        <time>2022-12-11T12:40:57.446Z</time>
      </trkpt>
      <trkpt lat="48.19412" lon="-3.7077">
        <ele>142.625225</ele>
        <time>2022-12-11T12:40:59.458Z</time>
      </trkpt>
      <trkpt lat="48.19417" lon="-3.7076">
        <ele>142.197387</ele>
        <time>2022-12-11T12:41:01.447Z</time>
      </trkpt>
      <trkpt lat="48.19424" lon="-3.70749">
        <ele>141.87384</ele>
        <time>2022-12-11T12:41:03.463Z</time>
      </trkpt>
      <trkpt lat="48.19431" lon="-3.70739">
        <ele>141.595502</ele>
        <time>2022-12-11T12:41:05.444Z</time>
      </trkpt>
      <trkpt lat="48.19438" lon="-3.70726">
        <ele>141.280858</ele>
        <time>2022-12-11T12:41:08.450Z</time>
      </trkpt>
      <trkpt lat="48.19445" lon="-3.70716">
        <ele>141.019804</ele>
        <time>2022-12-11T12:41:11.446Z</time>
      </trkpt>
      <trkpt lat="48.19454" lon="-3.70701">
        <ele>140.648965</ele>
        <time>2022-12-11T12:41:14.451Z</time>
      </trkpt>
      <trkpt lat="48.19461" lon="-3.70689">
        <ele>140.341441</ele>
        <time>2022-12-11T12:41:16.447Z</time>
      </trkpt>
      <trkpt lat="48.19469" lon="-3.70674">
        <ele>139.983773</ele>
        <time>2022-12-11T12:41:18.451Z</time>
      </trkpt>
      <trkpt lat="48.19477" lon="-3.70659">
        <ele>139.615498</ele>
        <time>2022-12-11T12:41:20.443Z</time>
      </trkpt>
      <trkpt lat="48.19485" lon="-3.70641">
        <ele>139.212158</ele>
        <time>2022-12-11T12:41:22.435Z</time>
      </trkpt>
      <trkpt lat="48.19493" lon="-3.70623">
        <ele>138.805602</ele>
        <time>2022-12-11T12:41:24.458Z</time>
      </trkpt>
      <trkpt lat="48.19501" lon="-3.70605">
        <ele>138.399174</ele>
        <time>2022-12-11T12:41:26.467Z</time>
      </trkpt>
      <trkpt lat="48.19509" lon="-3.70587">
        <ele>138.003475</ele>
        <time>2022-12-11T12:41:28.461Z</time>
      </trkpt>
      <trkpt lat="48.19516" lon="-3.70572">
        <ele>137.643919</ele>
        <time>2022-12-11T12:41:30.446Z</time>
      </trkpt>
      <trkpt lat="48.19523" lon="-3.70556">
        <ele>137.30158</ele>
        <time>2022-12-11T12:41:32.449Z</time>
      </trkpt>
      <trkpt lat="48.19528" lon="-3.70543">
        <ele>137.03986</ele>
        <time>2022-12-11T12:41:34.445Z</time>
      </trkpt>
      <trkpt lat="48.19534" lon="-3.70531">
        <ele>137.490043</ele>
        <time>2022-12-11T12:41:36.454Z</time>
      </trkpt>
      <trkpt lat="48.19541" lon="-3.70516">
        <ele>138.044523</ele>
        <time>2022-12-11T12:41:39.436Z</time>
      </trkpt>
      <trkpt lat="48.19546" lon="-3.70502">
        <ele>138.56071</ele>
        <time>2022-12-11T12:41:43.455Z</time>
      </trkpt>
      <trkpt lat="48.19552" lon="-3.7049">
        <ele>139.005782</ele>
        <time>2022-12-11T12:41:47.441Z</time>
      </trkpt>
      <trkpt lat="48.19558" lon="-3.70476">
        <ele>139.533905</ele>
        <time>2022-12-11T12:41:52.439Z</time>
      </trkpt>
      <trkpt lat="48.19565" lon="-3.70464">
        <ele>140.051945</ele>
        <time>2022-12-11T12:41:57.439Z</time>
      </trkpt>
      <trkpt lat="48.19573" lon="-3.70453">
        <ele>140.533951</ele>
        <time>2022-12-11T12:42:02.444Z</time>
      </trkpt>
      <trkpt lat="48.19579" lon="-3.70442">
        <ele>140.978341</ele>
        <time>2022-12-11T12:42:07.447Z</time>
      </trkpt>
      <trkpt lat="48.19586" lon="-3.70432">
        <ele>141.464312</ele>
        <time>2022-12-11T12:42:12.453Z</time>
      </trkpt>
      <trkpt lat="48.19594" lon="-3.70421">
        <ele>141.959362</ele>
        <time>2022-12-11T12:42:17.450Z</time>
      </trkpt>
      <trkpt lat="48.19601" lon="-3.70411">
        <ele>142.387294</ele>
        <time>2022-12-11T12:42:21.438Z</time>
      </trkpt>
      <trkpt lat="48.19607" lon="-3.70401">
        <ele>142.81807</ele>
        <time>2022-12-11T12:42:25.440Z</time>
      </trkpt>
      <trkpt lat="48.19614" lon="-3.70391">
        <ele>143.275468</ele>
        <time>2022-12-11T12:42:30.440Z</time>
      </trkpt>
      <trkpt lat="48.19622" lon="-3.7038">
        <ele>143.797002</ele>
        <time>2022-12-11T12:42:35.458Z</time>
      </trkpt>
      <trkpt lat="48.1963" lon="-3.70369">
        <ele>144.288995</ele>
        <time>2022-12-11T12:42:40.444Z</time>
      </trkpt>
      <trkpt lat="48.19638" lon="-3.70359">
        <ele>144.795545</ele>
        <time>2022-12-11T12:42:45.441Z</time>
      </trkpt>
      <trkpt lat="48.19646" lon="-3.7035">
        <ele>145.257253</ele>
        <time>2022-12-11T12:42:49.438Z</time>
      </trkpt>
      <trkpt lat="48.19654" lon="-3.70339">
        <ele>145.420449</ele>
        <time>2022-12-11T12:42:54.446Z</time>
      </trkpt>
      <trkpt lat="48.19662" lon="-3.7033">
        <ele>145.380873</ele>
        <time>2022-12-11T12:42:58.445Z</time>
      </trkpt>
      <trkpt lat="48.19671" lon="-3.70321">
        <ele>145.337731</ele>
        <time>2022-12-11T12:43:02.433Z</time>
      </trkpt>
      <trkpt lat="48.1968" lon="-3.70312">
        <ele>145.294564</ele>
        <time>2022-12-11T12:43:06.452Z</time>
      </trkpt>
      <trkpt lat="48.1969" lon="-3.70303">
        <ele>145.249376</ele>
        <time>2022-12-11T12:43:10.448Z</time>
      </trkpt>
      <trkpt lat="48.19701" lon="-3.70295">
        <ele>145.201684</ele>
        <time>2022-12-11T12:43:14.460Z</time>
      </trkpt>
      <trkpt lat="48.19709" lon="-3.70287">
        <ele>145.163337</ele>
        <time>2022-12-11T12:43:17.440Z</time>
      </trkpt>
      <trkpt lat="48.19717" lon="-3.7028">
        <ele>145.12588</ele>
        <time>2022-12-11T12:43:20.447Z</time>
      </trkpt>
      <trkpt lat="48.19726" lon="-3.70271">
        <ele>145.08532</ele>
        <time>2022-12-11T12:43:23.460Z</time>
      </trkpt>
      <trkpt lat="48.19734" lon="-3.70263">
        <ele>145.046685</ele>
        <time>2022-12-11T12:43:26.460Z</time>
      </trkpt>
      <trkpt lat="48.19744" lon="-3.70253">
        <ele>145.000416</ele>
        <time>2022-12-11T12:43:30.442Z</time>
      </trkpt>
      <trkpt lat="48.19752" lon="-3.70244">
        <ele>144.959796</ele>
        <time>2022-12-11T12:43:33.448Z</time>
      </trkpt>
      <trkpt lat="48.1976" lon="-3.70234">
        <ele>144.922119</ele>
        <time>2022-12-11T12:43:36.453Z</time>
      </trkpt>
      <trkpt lat="48.19766" lon="-3.70225">
        <ele>144.885797</ele>
        <time>2022-12-11T12:43:39.438Z</time>
      </trkpt>
      <trkpt lat="48.19773" lon="-3.70214">
        <ele>144.847452</ele>
        <time>2022-12-11T12:43:42.466Z</time>
      </trkpt>
      <trkpt lat="48.19781" lon="-3.70202">
        <ele>144.804998</ele>
        <time>2022-12-11T12:43:45.437Z</time>
      </trkpt>
      <trkpt lat="48.19788" lon="-3.70189">
        <ele>144.758369</ele>
        <time>2022-12-11T12:43:48.450Z</time>
      </trkpt>
      <trkpt lat="48.19797" lon="-3.70175">
        <ele>144.637129</ele>
        <time>2022-12-11T12:43:51.457Z</time>
      </trkpt>
      <trkpt lat="48.19804" lon="-3.70158">
        <ele>144.471162</ele>
        <time>2022-12-11T12:43:54.446Z</time>
      </trkpt>
      <trkpt lat="48.19809" lon="-3.70146">
        <ele>144.347308</ele>
        <time>2022-12-11T12:43:56.450Z</time>
      </trkpt>
      <trkpt lat="48.19814" lon="-3.70133">
        <ele>144.223517</ele>
        <time>2022-12-11T12:43:58.446Z</time>
      </trkpt>
      <trkpt lat="48.19818" lon="-3.70119">
        <ele>144.089534</ele>
        <time>2022-12-11T12:44:00.465Z</time>
      </trkpt>
      <trkpt lat="48.19823" lon="-3.70105">
        <ele>143.954564</ele>
        <time>2022-12-11T12:44:02.439Z</time>
      </trkpt>
      <trkpt lat="48.19828" lon="-3.7009">
        <ele>143.817932</ele>
        <time>2022-12-11T12:44:04.463Z</time>
      </trkpt>
      <trkpt lat="48.19833" lon="-3.70075">
        <ele>143.676338</ele>
        <time>2022-12-11T12:44:06.486Z</time>
      </trkpt>
      <trkpt lat="48.19837" lon="-3.70059">
        <ele>143.532718</ele>
        <time>2022-12-11T12:44:08.459Z</time>
      </trkpt>
      <trkpt lat="48.1984" lon="-3.70043">
        <ele>143.388001</ele>
        <time>2022-12-11T12:44:10.442Z</time>
      </trkpt>
      <trkpt lat="48.19844" lon="-3.70027">
        <ele>143.245656</ele>
        <time>2022-12-11T12:44:12.442Z</time>
      </trkpt>
      <trkpt lat="48.19847" lon="-3.70012">
        <ele>143.110493</ele>
        <time>2022-12-11T12:44:14.442Z</time>
      </trkpt>
      <trkpt lat="48.1985" lon="-3.69998">
        <ele>142.989762</ele>
        <time>2022-12-11T12:44:16.465Z</time>
      </trkpt>
      <trkpt lat="48.19854" lon="-3.69979">
        <ele>142.824107</ele>
        <time>2022-12-11T12:44:19.455Z</time>
      </trkpt>
      <trkpt lat="48.19858" lon="-3.69963">
        <ele>142.675177</ele>
        <time>2022-12-11T12:44:22.460Z</time>
      </trkpt>
      <trkpt lat="48.19866" lon="-3.69954">
        <ele>142.55093</ele>
        <time>2022-12-11T12:44:25.446Z</time>
      </trkpt>
      <trkpt lat="48.19875" lon="-3.69957">
        <ele>142.303934</ele>
        <time>2022-12-11T12:44:28.437Z</time>
      </trkpt>
      <trkpt lat="48.19883" lon="-3.69969">
        <ele>141.692131</ele>
        <time>2022-12-11T12:44:31.442Z</time>
      </trkpt>
      <trkpt lat="48.1989" lon="-3.69983">
        <ele>141.023628</ele>
        <time>2022-12-11T12:44:34.459Z</time>
      </trkpt>
      <trkpt lat="48.19898" lon="-3.69999">
        <ele>140.268086</ele>
        <time>2022-12-11T12:44:37.443Z</time>
      </trkpt>
      <trkpt lat="48.19904" lon="-3.7001">
        <ele>139.73741</ele>
        <time>2022-12-11T12:44:39.454Z</time>
      </trkpt>
      <trkpt lat="48.1991" lon="-3.70022">
        <ele>139.170784</ele>
        <time>2022-12-11T12:44:41.451Z</time>
      </trkpt>
      <trkpt lat="48.19916" lon="-3.70034">
        <ele>138.604608</ele>
        <time>2022-12-11T12:44:43.445Z</time>
      </trkpt>
      <trkpt lat="48.19922" lon="-3.70045">
        <ele>138.058728</ele>
        <time>2022-12-11T12:44:45.456Z</time>
      </trkpt>
      <trkpt lat="48.19929" lon="-3.70056">
        <ele>137.465952</ele>
        <time>2022-12-11T12:44:47.446Z</time>
      </trkpt>
      <trkpt lat="48.19937" lon="-3.70068">
        <ele>136.821141</ele>
        <time>2022-12-11T12:44:49.452Z</time>
      </trkpt>
      <trkpt lat="48.19945" lon="-3.7008">
        <ele>136.175734</ele>
        <time>2022-12-11T12:44:51.460Z</time>
      </trkpt>
      <trkpt lat="48.19953" lon="-3.70091">
        <ele>135.566341</ele>
        <time>2022-12-11T12:44:53.450Z</time>
      </trkpt>
      <trkpt lat="48.19963" lon="-3.701">
        <ele>134.9247</ele>
        <time>2022-12-11T12:44:55.441Z</time>
      </trkpt>
      <trkpt lat="48.19973" lon="-3.70108">
        <ele>134.277232</ele>
        <time>2022-12-11T12:44:57.443Z</time>
      </trkpt>
      <trkpt lat="48.19983" lon="-3.70117">
        <ele>133.596222</ele>
        <time>2022-12-11T12:44:59.446Z</time>
      </trkpt>
      <trkpt lat="48.19993" lon="-3.70126">
        <ele>132.936097</ele>
        <time>2022-12-11T12:45:01.450Z</time>
      </trkpt>
      <trkpt lat="48.20003" lon="-3.70135">
        <ele>132.294689</ele>
        <time>2022-12-11T12:45:03.466Z</time>
      </trkpt>
      <trkpt lat="48.20013" lon="-3.70143">
        <ele>131.797252</ele>
        <time>2022-12-11T12:45:05.451Z</time>
      </trkpt>
      <trkpt lat="48.20024" lon="-3.7015">
        <ele>131.282328</ele>
        <time>2022-12-11T12:45:07.445Z</time>
      </trkpt>
      <trkpt lat="48.20034" lon="-3.70158">
        <ele>130.817476</ele>
        <time>2022-12-11T12:45:09.463Z</time>
      </trkpt>
      <trkpt lat="48.20046" lon="-3.70166">
        <ele>130.307532</ele>
        <time>2022-12-11T12:45:11.443Z</time>
      </trkpt>
      <trkpt lat="48.20057" lon="-3.70175">
        <ele>129.779197</ele>
        <time>2022-12-11T12:45:13.473Z</time>
      </trkpt>
      <trkpt lat="48.20067" lon="-3.70184">
        <ele>129.291024</ele>
        <time>2022-12-11T12:45:15.444Z</time>
      </trkpt>
      <trkpt lat="48.20078" lon="-3.70193">
        <ele>128.773115</ele>
        <time>2022-12-11T12:45:17.431Z</time>
      </trkpt>
      <trkpt lat="48.2009" lon="-3.70201">
        <ele>128.238546</ele>
        <time>2022-12-11T12:45:19.430Z</time>
      </trkpt>
      <trkpt lat="48.20101" lon="-3.7021">
        <ele>127.717397</ele>
        <time>2022-12-11T12:45:21.452Z</time>
      </trkpt>
      <trkpt lat="48.20112" lon="-3.7022">
        <ele>127.197238</ele>
        <time>2022-12-11T12:45:23.459Z</time>
      </trkpt>
      <trkpt lat="48.20124" lon="-3.7023">
        <ele>126.654896</ele>
        <time>2022-12-11T12:45:25.458Z</time>
      </trkpt>
      <trkpt lat="48.20134" lon="-3.70242">
        <ele>126.119987</ele>
        <time>2022-12-11T12:45:27.457Z</time>
      </trkpt>
      <trkpt lat="48.20145" lon="-3.70255">
        <ele>125.529317</ele>
        <time>2022-12-11T12:45:29.440Z</time>
      </trkpt>
      <trkpt lat="48.20157" lon="-3.70269">
        <ele>124.936815</ele>
        <time>2022-12-11T12:45:31.457Z</time>
      </trkpt>
      <trkpt lat="48.20169" lon="-3.70283">
        <ele>125.036789</ele>
        <time>2022-12-11T12:45:33.442Z</time>
      </trkpt>
      <trkpt lat="48.2018" lon="-3.70296">
        <ele>125.253477</ele>
        <time>2022-12-11T12:45:35.459Z</time>
      </trkpt>
      <trkpt lat="48.20191" lon="-3.7031">
        <ele>125.468457</ele>
        <time>2022-12-11T12:45:37.447Z</time>
      </trkpt>
      <trkpt lat="48.20201" lon="-3.70322">
        <ele>125.665393</ele>
        <time>2022-12-11T12:45:39.458Z</time>
      </trkpt>
      <trkpt lat="48.20211" lon="-3.70334">
        <ele>125.853794</ele>
        <time>2022-12-11T12:45:41.442Z</time>
      </trkpt>
      <trkpt lat="48.2022" lon="-3.70345">
        <ele>126.024342</ele>
        <time>2022-12-11T12:45:43.466Z</time>
      </trkpt>
      <trkpt lat="48.20228" lon="-3.70355">
        <ele>126.188875</ele>
        <time>2022-12-11T12:45:45.459Z</time>
      </trkpt>
      <trkpt lat="48.20236" lon="-3.70363">
        <ele>126.329274</ele>
        <time>2022-12-11T12:45:47.445Z</time>
      </trkpt>
      <trkpt lat="48.20244" lon="-3.7037">
        <ele>126.465406</ele>
        <time>2022-12-11T12:45:49.442Z</time>
      </trkpt>
      <trkpt lat="48.20254" lon="-3.7038">
        <ele>126.646385</ele>
        <time>2022-12-11T12:45:52.458Z</time>
      </trkpt>
      <trkpt lat="48.20262" lon="-3.70387">
        <ele>126.790043</ele>
        <time>2022-12-11T12:45:55.438Z</time>
      </trkpt>
      <trkpt lat="48.20273" lon="-3.70393">
        <ele>126.964911</ele>
        <time>2022-12-11T12:45:59.441Z</time>
      </trkpt>
      <trkpt lat="48.20282" lon="-3.70398">
        <ele>127.11136</ele>
        <time>2022-12-11T12:46:03.449Z</time>
      </trkpt>
      <trkpt lat="48.20292" lon="-3.704">
        <ele>127.251112</ele>
        <time>2022-12-11T12:46:07.473Z</time>
      </trkpt>
      <trkpt lat="48.20301" lon="-3.70402">
        <ele>127.388804</ele>
        <time>2022-12-11T12:46:11.442Z</time>
      </trkpt>
      <trkpt lat="48.20312" lon="-3.70403">
        <ele>127.570953</ele>
        <time>2022-12-11T12:46:16.437Z</time>
      </trkpt>
      <trkpt lat="48.20321" lon="-3.70403">
        <ele>127.86855</ele>
        <time>2022-12-11T12:46:20.470Z</time>
      </trkpt>
      <trkpt lat="48.20331" lon="-3.70404">
        <ele>128.201746</ele>
        <time>2022-12-11T12:46:25.463Z</time>
      </trkpt>
      <trkpt lat="48.20342" lon="-3.70403">
        <ele>128.554676</ele>
        <time>2022-12-11T12:46:30.444Z</time>
      </trkpt>
      <trkpt lat="48.20352" lon="-3.70402">
        <ele>128.878087</ele>
        <time>2022-12-11T12:46:35.453Z</time>
      </trkpt>
      <trkpt lat="48.20362" lon="-3.70404">
        <ele>129.205766</ele>
        <time>2022-12-11T12:46:40.449Z</time>
      </trkpt>
      <trkpt lat="48.20373" lon="-3.70405">
        <ele>129.552945</ele>
        <time>2022-12-11T12:46:45.467Z</time>
      </trkpt>
      <trkpt lat="48.20382" lon="-3.70407">
        <ele>129.852149</ele>
        <time>2022-12-11T12:46:49.457Z</time>
      </trkpt>
      <trkpt lat="48.20391" lon="-3.70408">
        <ele>130.151354</ele>
        <time>2022-12-11T12:46:53.458Z</time>
      </trkpt>
      <trkpt lat="48.20401" lon="-3.70411">
        <ele>130.464125</ele>
        <time>2022-12-11T12:46:57.442Z</time>
      </trkpt>
      <trkpt lat="48.20411" lon="-3.70412">
        <ele>130.794215</ele>
        <time>2022-12-11T12:47:01.464Z</time>
      </trkpt>
      <trkpt lat="48.2042" lon="-3.70415">
        <ele>131.096656</ele>
        <time>2022-12-11T12:47:05.438Z</time>
      </trkpt>
      <trkpt lat="48.2043" lon="-3.70416">
        <ele>131.421118</ele>
        <time>2022-12-11T12:47:09.456Z</time>
      </trkpt>
      <trkpt lat="48.2044" lon="-3.70419">
        <ele>131.741905</ele>
        <time>2022-12-11T12:47:13.446Z</time>
      </trkpt>
      <trkpt lat="48.2045" lon="-3.7042">
        <ele>132.076906</ele>
        <time>2022-12-11T12:47:17.457Z</time>
      </trkpt>
      <trkpt lat="48.20461" lon="-3.70421">
        <ele>132.409719</ele>
        <time>2022-12-11T12:47:21.455Z</time>
      </trkpt>
      <trkpt lat="48.2047" lon="-3.70423">
        <ele>132.725746</ele>
        <time>2022-12-11T12:47:25.443Z</time>
      </trkpt>
      <trkpt lat="48.2048" lon="-3.70424">
        <ele>133.044453</ele>
        <time>2022-12-11T12:47:29.456Z</time>
      </trkpt>
      <trkpt lat="48.20491" lon="-3.70427">
        <ele>133.39935</ele>
        <time>2022-12-11T12:47:33.441Z</time>
      </trkpt>
      <trkpt lat="48.20501" lon="-3.7043">
        <ele>133.881128</ele>
        <time>2022-12-11T12:47:37.442Z</time>
      </trkpt>
      <trkpt lat="48.2051" lon="-3.70431">
        <ele>134.325474</ele>
        <time>2022-12-11T12:47:41.454Z</time>
      </trkpt>
      <trkpt lat="48.20519" lon="-3.70434">
        <ele>134.77611</ele>
        <time>2022-12-11T12:47:45.441Z</time>
      </trkpt>
      <trkpt lat="48.20528" lon="-3.70437">
        <ele>135.216867</ele>
        <time>2022-12-11T12:47:49.440Z</time>
      </trkpt>
      <trkpt lat="48.20538" lon="-3.70439">
        <ele>135.667291</ele>
        <time>2022-12-11T12:47:53.457Z</time>
      </trkpt>
      <trkpt lat="48.20547" lon="-3.70442">
        <ele>136.145981</ele>
        <time>2022-12-11T12:47:58.462Z</time>
      </trkpt>
      <trkpt lat="48.20556" lon="-3.70444">
        <ele>136.582613</ele>
        <time>2022-12-11T12:48:03.444Z</time>
      </trkpt>
      <trkpt lat="48.20568" lon="-3.70447">
        <ele>137.115686</ele>
        <time>2022-12-11T12:48:08.444Z</time>
      </trkpt>
      <trkpt lat="48.20577" lon="-3.70449">
        <ele>137.591797</ele>
        <time>2022-12-11T12:48:13.440Z</time>
      </trkpt>
      <trkpt lat="48.20588" lon="-3.70451">
        <ele>138.082973</ele>
        <time>2022-12-11T12:48:18.447Z</time>
      </trkpt>
      <trkpt lat="48.20598" lon="-3.70453">
        <ele>138.577062</ele>
        <time>2022-12-11T12:48:23.445Z</time>
      </trkpt>
      <trkpt lat="48.20607" lon="-3.70455">
        <ele>139.014597</ele>
        <time>2022-12-11T12:48:28.451Z</time>
      </trkpt>
      <trkpt lat="48.20616" lon="-3.70459">
        <ele>139.448416</ele>
        <time>2022-12-11T12:48:33.448Z</time>
      </trkpt>
      <trkpt lat="48.20625" lon="-3.70464">
        <ele>139.931428</ele>
        <time>2022-12-11T12:48:39.442Z</time>
      </trkpt>
      <trkpt lat="48.20635" lon="-3.70467">
        <ele>140.407892</ele>
        <time>2022-12-11T12:48:45.448Z</time>
      </trkpt>
      <trkpt lat="48.20645" lon="-3.70472">
        <ele>140.910352</ele>
        <time>2022-12-11T12:48:51.448Z</time>
      </trkpt>
      <trkpt lat="48.20655" lon="-3.70476">
        <ele>141.38892</ele>
        <time>2022-12-11T12:48:57.447Z</time>
      </trkpt>
      <trkpt lat="48.20664" lon="-3.7048">
        <ele>141.819985</ele>
        <time>2022-12-11T12:49:02.442Z</time>
      </trkpt>
      <trkpt lat="48.20673" lon="-3.70484">
        <ele>142.225702</ele>
        <time>2022-12-11T12:49:08.441Z</time>
      </trkpt>
      <trkpt lat="48.20683" lon="-3.70489">
        <ele>142.603341</ele>
        <time>2022-12-11T12:49:14.444Z</time>
      </trkpt>
      <trkpt lat="48.20691" lon="-3.70495">
        <ele>142.963385</ele>
        <time>2022-12-11T12:49:20.449Z</time>
      </trkpt>
      <trkpt lat="48.207" lon="-3.70499">
        <ele>143.324333</ele>
        <time>2022-12-11T12:49:26.447Z</time>
      </trkpt>
      <trkpt lat="48.20709" lon="-3.70506">
        <ele>143.687395</ele>
        <time>2022-12-11T12:49:32.446Z</time>
      </trkpt>
      <trkpt lat="48.20718" lon="-3.70512">
        <ele>144.075073</ele>
        <time>2022-12-11T12:49:38.456Z</time>
      </trkpt>
      <trkpt lat="48.20727" lon="-3.70516">
        <ele>144.458956</ele>
        <time>2022-12-11T12:49:44.437Z</time>
      </trkpt>
      <trkpt lat="48.20737" lon="-3.70521">
        <ele>144.854544</ele>
        <time>2022-12-11T12:49:50.439Z</time>
      </trkpt>
      <trkpt lat="48.20747" lon="-3.70526">
        <ele>145.239707</ele>
        <time>2022-12-11T12:49:56.443Z</time>
      </trkpt>
      <trkpt lat="48.20757" lon="-3.70529">
        <ele>145.634506</ele>
        <time>2022-12-11T12:50:02.435Z</time>
      </trkpt>
      <trkpt lat="48.20767" lon="-3.70534">
        <ele>146.036582</ele>
        <time>2022-12-11T12:50:08.444Z</time>
      </trkpt>
      <trkpt lat="48.20776" lon="-3.70536">
        <ele>146.403101</ele>
        <time>2022-12-11T12:50:13.439Z</time>
      </trkpt>
      <trkpt lat="48.20786" lon="-3.70541">
        <ele>146.78605</ele>
        <time>2022-12-11T12:50:18.471Z</time>
      </trkpt>
      <trkpt lat="48.20796" lon="-3.70543">
        <ele>147.169315</ele>
        <time>2022-12-11T12:50:23.440Z</time>
      </trkpt>
      <trkpt lat="48.20806" lon="-3.70547">
        <ele>147.577407</ele>
        <time>2022-12-11T12:50:28.465Z</time>
      </trkpt>
      <trkpt lat="48.20817" lon="-3.70549">
        <ele>147.987567</ele>
        <time>2022-12-11T12:50:33.441Z</time>
      </trkpt>
      <trkpt lat="48.20826" lon="-3.70552">
        <ele>148.339052</ele>
        <time>2022-12-11T12:50:36.460Z</time>
      </trkpt>
      <trkpt lat="48.20836" lon="-3.70554">
        <ele>148.754157</ele>
        <time>2022-12-11T12:50:39.451Z</time>
      </trkpt>
      <trkpt lat="48.20848" lon="-3.70556">
        <ele>148.414643</ele>
        <time>2022-12-11T12:50:42.456Z</time>
      </trkpt>
      <trkpt lat="48.2086" lon="-3.70558">
        <ele>147.939361</ele>
        <time>2022-12-11T12:50:45.456Z</time>
      </trkpt>
      <trkpt lat="48.20869" lon="-3.70557">
        <ele>147.580309</ele>
        <time>2022-12-11T12:50:47.467Z</time>
      </trkpt>
      <trkpt lat="48.20879" lon="-3.70558">
        <ele>147.194473</ele>
        <time>2022-12-11T12:50:49.460Z</time>
      </trkpt>
      <trkpt lat="48.2089" lon="-3.70558">
        <ele>146.797314</ele>
        <time>2022-12-11T12:50:51.468Z</time>
      </trkpt>
      <trkpt lat="48.20901" lon="-3.70558">
        <ele>146.373355</ele>
        <time>2022-12-11T12:50:53.459Z</time>
      </trkpt>
      <trkpt lat="48.20912" lon="-3.70559">
        <ele>145.949274</ele>
        <time>2022-12-11T12:50:55.464Z</time>
      </trkpt>
      <trkpt lat="48.20923" lon="-3.70559">
        <ele>145.533021</ele>
        <time>2022-12-11T12:50:57.443Z</time>
      </trkpt>
      <trkpt lat="48.20934" lon="-3.70559">
        <ele>145.101493</ele>
        <time>2022-12-11T12:50:59.447Z</time>
      </trkpt>
      <trkpt lat="48.20945" lon="-3.70559">
        <ele>144.673776</ele>
        <time>2022-12-11T12:51:01.451Z</time>
      </trkpt>
      <trkpt lat="48.20958" lon="-3.70557">
        <ele>144.210514</ele>
        <time>2022-12-11T12:51:03.462Z</time>
      </trkpt>
      <trkpt lat="48.20969" lon="-3.70556">
        <ele>143.765422</ele>
        <time>2022-12-11T12:51:05.451Z</time>
      </trkpt>
      <trkpt lat="48.20982" lon="-3.70553">
        <ele>143.284796</ele>
        <time>2022-12-11T12:51:07.444Z</time>
      </trkpt>
      <trkpt lat="48.20994" lon="-3.70551">
        <ele>142.798742</ele>
        <time>2022-12-11T12:51:09.445Z</time>
      </trkpt>
      <trkpt lat="48.21007" lon="-3.70548">
        <ele>142.317167</ele>
        <time>2022-12-11T12:51:11.447Z</time>
      </trkpt>
      <trkpt lat="48.21019" lon="-3.70545">
        <ele>141.745588</ele>
        <time>2022-12-11T12:51:13.447Z</time>
      </trkpt>
      <trkpt lat="48.21032" lon="-3.70541">
        <ele>140.593626</ele>
        <time>2022-12-11T12:51:15.462Z</time>
      </trkpt>
      <trkpt lat="48.21045" lon="-3.70536">
        <ele>139.435468</ele>
        <time>2022-12-11T12:51:17.467Z</time>
      </trkpt>
      <trkpt lat="48.21059" lon="-3.70532">
        <ele>138.229413</ele>
        <time>2022-12-11T12:51:19.436Z</time>
      </trkpt>
      <trkpt lat="48.21073" lon="-3.70527">
        <ele>136.996228</ele>
        <time>2022-12-11T12:51:21.461Z</time>
      </trkpt>
      <trkpt lat="48.21085" lon="-3.70523">
        <ele>135.885704</ele>
        <time>2022-12-11T12:51:23.448Z</time>
      </trkpt>
      <trkpt lat="48.21099" lon="-3.7052">
        <ele>134.657251</ele>
        <time>2022-12-11T12:51:25.454Z</time>
      </trkpt>
      <trkpt lat="48.21113" lon="-3.70517">
        <ele>133.457706</ele>
        <time>2022-12-11T12:51:27.444Z</time>
      </trkpt>
      <trkpt lat="48.21127" lon="-3.70515">
        <ele>132.256696</ele>
        <time>2022-12-11T12:51:29.468Z</time>
      </trkpt>
      <trkpt lat="48.21141" lon="-3.70514">
        <ele>131.023083</ele>
        <time>2022-12-11T12:51:31.443Z</time>
      </trkpt>
      <trkpt lat="48.21156" lon="-3.70513">
        <ele>129.765202</ele>
        <time>2022-12-11T12:51:33.464Z</time>
      </trkpt>
      <trkpt lat="48.21171" lon="-3.70512">
        <ele>128.473629</ele>
        <time>2022-12-11T12:51:35.449Z</time>
      </trkpt>
      <trkpt lat="48.21185" lon="-3.70512">
        <ele>127.276393</ele>
        <time>2022-12-11T12:51:37.454Z</time>
      </trkpt>
      <trkpt lat="48.21199" lon="-3.70512">
        <ele>126.219664</ele>
        <time>2022-12-11T12:51:39.445Z</time>
      </trkpt>
      <trkpt lat="48.21213" lon="-3.70513">
        <ele>125.535202</ele>
        <time>2022-12-11T12:51:41.443Z</time>
      </trkpt>
      <trkpt lat="48.21227" lon="-3.70514">
        <ele>124.819986</ele>
        <time>2022-12-11T12:51:43.452Z</time>
      </trkpt>
      <trkpt lat="48.21241" lon="-3.70515">
        <ele>124.078344</ele>
        <time>2022-12-11T12:51:45.467Z</time>
      </trkpt>
      <trkpt lat="48.21256" lon="-3.70518">
        <ele>123.329329</ele>
        <time>2022-12-11T12:51:47.444Z</time>
      </trkpt>
      <trkpt lat="48.21269" lon="-3.7052">
        <ele>122.639977</ele>
        <time>2022-12-11T12:51:49.461Z</time>
      </trkpt>
      <trkpt lat="48.21283" lon="-3.70522">
        <ele>121.953119</ele>
        <time>2022-12-11T12:51:51.447Z</time>
      </trkpt>
      <trkpt lat="48.21296" lon="-3.70523">
        <ele>121.27807</ele>
        <time>2022-12-11T12:51:53.444Z</time>
      </trkpt>
      <trkpt lat="48.21308" lon="-3.70525">
        <ele>120.667819</ele>
        <time>2022-12-11T12:51:55.462Z</time>
      </trkpt>
      <trkpt lat="48.2132" lon="-3.70527">
        <ele>120.054298</ele>
        <time>2022-12-11T12:51:57.447Z</time>
      </trkpt>
      <trkpt lat="48.21331" lon="-3.70528">
        <ele>119.510261</ele>
        <time>2022-12-11T12:51:59.472Z</time>
      </trkpt>
      <trkpt lat="48.21342" lon="-3.70531">
        <ele>118.953634</ele>
        <time>2022-12-11T12:52:01.444Z</time>
      </trkpt>
      <trkpt lat="48.21353" lon="-3.70532">
        <ele>118.360539</ele>
        <time>2022-12-11T12:52:03.456Z</time>
      </trkpt>
      <trkpt lat="48.21365" lon="-3.70534">
        <ele>117.746089</ele>
        <time>2022-12-11T12:52:05.474Z</time>
      </trkpt>
      <trkpt lat="48.21378" lon="-3.70536">
        <ele>117.152311</ele>
        <time>2022-12-11T12:52:07.447Z</time>
      </trkpt>
      <trkpt lat="48.2139" lon="-3.70537">
        <ele>116.643468</ele>
        <time>2022-12-11T12:52:09.464Z</time>
      </trkpt>
      <trkpt lat="48.21402" lon="-3.70537">
        <ele>116.09777</ele>
        <time>2022-12-11T12:52:11.471Z</time>
      </trkpt>
      <trkpt lat="48.21415" lon="-3.70535">
        <ele>115.531045</ele>
        <time>2022-12-11T12:52:13.441Z</time>
      </trkpt>
      <trkpt lat="48.21428" lon="-3.7053">
        <ele>114.968</ele>
        <time>2022-12-11T12:52:15.451Z</time>
      </trkpt>
      <trkpt lat="48.2144" lon="-3.70524">
        <ele>114.410758</ele>
        <time>2022-12-11T12:52:17.445Z</time>
      </trkpt>
      <trkpt lat="48.21454" lon="-3.70517">
        <ele>113.786086</ele>
        <time>2022-12-11T12:52:19.445Z</time>
      </trkpt>
      <trkpt lat="48.21467" lon="-3.70509">
        <ele>113.206766</ele>
        <time>2022-12-11T12:52:21.461Z</time>
      </trkpt>
      <trkpt lat="48.21479" lon="-3.70502">
        <ele>112.612075</ele>
        <time>2022-12-11T12:52:23.468Z</time>
      </trkpt>
      <trkpt lat="48.21493" lon="-3.70494">
        <ele>111.99851</ele>
        <time>2022-12-11T12:52:25.442Z</time>
      </trkpt>
      <trkpt lat="48.21507" lon="-3.70486">
        <ele>111.350719</ele>
        <time>2022-12-11T12:52:27.463Z</time>
      </trkpt>
      <trkpt lat="48.21521" lon="-3.70479">
        <ele>110.728144</ele>
        <time>2022-12-11T12:52:29.445Z</time>
      </trkpt>
      <trkpt lat="48.21534" lon="-3.70471">
        <ele>110.103429</ele>
        <time>2022-12-11T12:52:31.451Z</time>
      </trkpt>
      <trkpt lat="48.21547" lon="-3.70464">
        <ele>109.571875</ele>
        <time>2022-12-11T12:52:33.448Z</time>
      </trkpt>
      <trkpt lat="48.2156" lon="-3.70458">
        <ele>109.400697</ele>
        <time>2022-12-11T12:52:35.439Z</time>
      </trkpt>
      <trkpt lat="48.21574" lon="-3.70452">
        <ele>109.211556</ele>
        <time>2022-12-11T12:52:37.444Z</time>
      </trkpt>
      <trkpt lat="48.21589" lon="-3.70444">
        <ele>109.016646</ele>
        <time>2022-12-11T12:52:39.459Z</time>
      </trkpt>
      <trkpt lat="48.21603" lon="-3.70437">
        <ele>108.826196</ele>
        <time>2022-12-11T12:52:41.459Z</time>
      </trkpt>
      <trkpt lat="48.21616" lon="-3.70431">
        <ele>108.647127</ele>
        <time>2022-12-11T12:52:43.473Z</time>
      </trkpt>
      <trkpt lat="48.21629" lon="-3.70425">
        <ele>108.478809</ele>
        <time>2022-12-11T12:52:45.453Z</time>
      </trkpt>
      <trkpt lat="48.2164" lon="-3.70419">
        <ele>108.319919</ele>
        <time>2022-12-11T12:52:47.444Z</time>
      </trkpt>
      <trkpt lat="48.21651" lon="-3.70414">
        <ele>108.175922</ele>
        <time>2022-12-11T12:52:49.443Z</time>
      </trkpt>
      <trkpt lat="48.21661" lon="-3.70408">
        <ele>108.038942</ele>
        <time>2022-12-11T12:52:51.472Z</time>
      </trkpt>
      <trkpt lat="48.21671" lon="-3.70403">
        <ele>107.907609</ele>
        <time>2022-12-11T12:52:53.458Z</time>
      </trkpt>
      <trkpt lat="48.21679" lon="-3.70397">
        <ele>107.786958</ele>
        <time>2022-12-11T12:52:55.453Z</time>
      </trkpt>
      <trkpt lat="48.21689" lon="-3.70388">
        <ele>107.635606</ele>
        <time>2022-12-11T12:52:58.448Z</time>
      </trkpt>
      <trkpt lat="48.217" lon="-3.70377">
        <ele>107.474266</ele>
        <time>2022-12-11T12:53:01.465Z</time>
      </trkpt>
      <trkpt lat="48.21711" lon="-3.70365">
        <ele>107.298648</ele>
        <time>2022-12-11T12:53:04.443Z</time>
      </trkpt>
      <trkpt lat="48.21721" lon="-3.70355">
        <ele>107.305129</ele>
        <time>2022-12-11T12:53:07.436Z</time>
      </trkpt>
      <trkpt lat="48.21729" lon="-3.70345">
        <ele>107.311446</ele>
        <time>2022-12-11T12:53:10.455Z</time>
      </trkpt>
      <trkpt lat="48.21739" lon="-3.70336">
        <ele>107.317718</ele>
        <time>2022-12-11T12:53:13.456Z</time>
      </trkpt>
      <trkpt lat="48.2175" lon="-3.70326">
        <ele>107.325272</ele>
        <time>2022-12-11T12:53:16.507Z</time>
      </trkpt>
      <trkpt lat="48.21758" lon="-3.70316">
        <ele>107.331334</ele>
        <time>2022-12-11T12:53:19.438Z</time>
      </trkpt>
      <trkpt lat="48.21768" lon="-3.70306">
        <ele>107.338066</ele>
        <time>2022-12-11T12:53:22.440Z</time>
      </trkpt>
      <trkpt lat="48.21778" lon="-3.70297">
        <ele>107.344861</ele>
        <time>2022-12-11T12:53:25.440Z</time>
      </trkpt>
      <trkpt lat="48.21788" lon="-3.70287">
        <ele>107.351829</ele>
        <time>2022-12-11T12:53:28.462Z</time>
      </trkpt>
      <trkpt lat="48.21797" lon="-3.70277">
        <ele>107.358354</ele>
        <time>2022-12-11T12:53:31.455Z</time>
      </trkpt>
      <trkpt lat="48.21807" lon="-3.70268">
        <ele>107.364931</ele>
        <time>2022-12-11T12:53:34.443Z</time>
      </trkpt>
      <trkpt lat="48.21816" lon="-3.70262">
        <ele>107.370743</ele>
        <time>2022-12-11T12:53:37.462Z</time>
      </trkpt>
      <trkpt lat="48.21826" lon="-3.70257">
        <ele>107.376778</ele>
        <time>2022-12-11T12:53:40.443Z</time>
      </trkpt>
      <trkpt lat="48.21836" lon="-3.70255">
        <ele>107.382271</ele>
        <time>2022-12-11T12:53:43.445Z</time>
      </trkpt>
      <trkpt lat="48.21845" lon="-3.70255">
        <ele>107.387728</ele>
        <time>2022-12-11T12:53:46.457Z</time>
      </trkpt>
      <trkpt lat="48.21855" lon="-3.70257">
        <ele>107.393515</ele>
        <time>2022-12-11T12:53:50.471Z</time>
      </trkpt>
      <trkpt lat="48.21865" lon="-3.70261">
        <ele>107.399252</ele>
        <time>2022-12-11T12:53:55.444Z</time>
      </trkpt>
      <trkpt lat="48.21872" lon="-3.70271">
        <ele>107.273042</ele>
        <time>2022-12-11T12:54:19.444Z</time>
      </trkpt>
      <trkpt lat="48.21882" lon="-3.70277">
        <ele>106.996546</ele>
        <time>2022-12-11T12:54:25.450Z</time>
      </trkpt>
      <trkpt lat="48.21891" lon="-3.70288">
        <ele>106.714023</ele>
        <time>2022-12-11T12:54:29.445Z</time>
      </trkpt>
      <trkpt lat="48.21898" lon="-3.70302">
        <ele>106.435097</ele>
        <time>2022-12-11T12:54:33.449Z</time>
      </trkpt>
      <trkpt lat="48.21904" lon="-3.70313">
        <ele>106.205509</ele>
        <time>2022-12-11T12:54:36.447Z</time>
      </trkpt>
      <trkpt lat="48.21912" lon="-3.70323">
        <ele>105.946411</ele>
        <time>2022-12-11T12:54:40.450Z</time>
      </trkpt>
      <trkpt lat="48.21922" lon="-3.70323">
        <ele>105.698893</ele>
        <time>2022-12-11T12:54:44.442Z</time>
      </trkpt>
      <trkpt lat="48.21931" lon="-3.70313">
        <ele>105.423494</ele>
        <time>2022-12-11T12:54:48.444Z</time>
      </trkpt>
      <trkpt lat="48.21939" lon="-3.70305">
        <ele>105.19788</ele>
        <time>2022-12-11T12:54:51.446Z</time>
      </trkpt>
      <trkpt lat="48.21947" lon="-3.70295">
        <ele>104.933226</ele>
        <time>2022-12-11T12:54:54.444Z</time>
      </trkpt>
      <trkpt lat="48.21955" lon="-3.70283">
        <ele>104.66932</ele>
        <time>2022-12-11T12:54:57.458Z</time>
      </trkpt>
      <trkpt lat="48.2196" lon="-3.7027">
        <ele>104.418777</ele>
        <time>2022-12-11T12:55:01.455Z</time>
      </trkpt>
      <trkpt lat="48.21967" lon="-3.7026">
        <ele>104.176264</ele>
        <time>2022-12-11T12:55:10.446Z</time>
      </trkpt>
      <trkpt lat="48.21974" lon="-3.70252">
        <ele>103.954512</ele>
        <time>2022-12-11T12:55:14.445Z</time>
      </trkpt>
      <trkpt lat="48.21984" lon="-3.70241">
        <ele>103.659392</ele>
        <time>2022-12-11T12:55:18.463Z</time>
      </trkpt>
      <trkpt lat="48.21991" lon="-3.70232">
        <ele>103.437719</ele>
        <time>2022-12-11T12:55:21.447Z</time>
      </trkpt>
      <trkpt lat="48.21999" lon="-3.7022">
        <ele>103.147799</ele>
        <time>2022-12-11T12:55:25.443Z</time>
      </trkpt>
      <trkpt lat="48.22007" lon="-3.7021">
        <ele>103.022049</ele>
        <time>2022-12-11T12:55:28.445Z</time>
      </trkpt>
      <trkpt lat="48.22014" lon="-3.70199">
        <ele>103.110261</ele>
        <time>2022-12-11T12:55:31.437Z</time>
      </trkpt>
      <trkpt lat="48.22022" lon="-3.70184">
        <ele>103.210543</ele>
        <time>2022-12-11T12:55:34.444Z</time>
      </trkpt>
      <trkpt lat="48.22029" lon="-3.70171">
        <ele>103.302162</ele>
        <time>2022-12-11T12:55:37.464Z</time>
      </trkpt>
      <trkpt lat="48.22035" lon="-3.70159">
        <ele>103.3817</ele>
        <time>2022-12-11T12:55:40.458Z</time>
      </trkpt>
      <trkpt lat="48.22041" lon="-3.70148">
        <ele>103.458568</ele>
        <time>2022-12-11T12:55:43.470Z</time>
      </trkpt>
      <trkpt lat="48.22048" lon="-3.70137">
        <ele>103.539982</ele>
        <time>2022-12-11T12:55:48.450Z</time>
      </trkpt>
      <trkpt lat="48.22052" lon="-3.70124">
        <ele>103.617598</ele>
        <time>2022-12-11T12:55:52.435Z</time>
      </trkpt>
      <trkpt lat="48.22056" lon="-3.70109">
        <ele>103.704744</ele>
        <time>2022-12-11T12:55:56.445Z</time>
      </trkpt>
      <trkpt lat="48.22061" lon="-3.70095">
        <ele>103.787274</ele>
        <time>2022-12-11T12:56:00.443Z</time>
      </trkpt>
      <trkpt lat="48.22066" lon="-3.70084">
        <ele>103.86103</ele>
        <time>2022-12-11T12:56:04.452Z</time>
      </trkpt>
      <trkpt lat="48.22072" lon="-3.70069">
        <ele>103.95345</ele>
        <time>2022-12-11T12:56:08.445Z</time>
      </trkpt>
      <trkpt lat="48.22077" lon="-3.70057">
        <ele>104.028564</ele>
        <time>2022-12-11T12:56:11.446Z</time>
      </trkpt>
      <trkpt lat="48.22083" lon="-3.70043">
        <ele>104.119263</ele>
        <time>2022-12-11T12:56:15.472Z</time>
      </trkpt>
      <trkpt lat="48.22088" lon="-3.70028">
        <ele>104.210146</ele>
        <time>2022-12-11T12:56:19.464Z</time>
      </trkpt>
      <trkpt lat="48.22094" lon="-3.70014">
        <ele>104.299439</ele>
        <time>2022-12-11T12:56:23.442Z</time>
      </trkpt>
      <trkpt lat="48.221" lon="-3.70001">
        <ele>104.378014</ele>
        <time>2022-12-11T12:56:27.441Z</time>
      </trkpt>
      <trkpt lat="48.22105" lon="-3.69987">
        <ele>104.468732</ele>
        <time>2022-12-11T12:56:31.455Z</time>
      </trkpt>
      <trkpt lat="48.2211" lon="-3.69975">
        <ele>104.550013</ele>
        <time>2022-12-11T12:56:34.454Z</time>
      </trkpt>
      <trkpt lat="48.22116" lon="-3.69961">
        <ele>104.647966</ele>
        <time>2022-12-11T12:56:38.454Z</time>
      </trkpt>
      <trkpt lat="48.22121" lon="-3.69949">
        <ele>104.727294</ele>
        <time>2022-12-11T12:56:42.445Z</time>
      </trkpt>
      <trkpt lat="48.22126" lon="-3.69936">
        <ele>104.812905</ele>
        <time>2022-12-11T12:56:46.466Z</time>
      </trkpt>
      <trkpt lat="48.22132" lon="-3.69921">
        <ele>104.914763</ele>
        <time>2022-12-11T12:56:50.449Z</time>
      </trkpt>
      <trkpt lat="48.22138" lon="-3.69906">
        <ele>105.013273</ele>
        <time>2022-12-11T12:56:54.447Z</time>
      </trkpt>
      <trkpt lat="48.22143" lon="-3.69895">
        <ele>105.090695</ele>
        <time>2022-12-11T12:56:57.454Z</time>
      </trkpt>
      <trkpt lat="48.2215" lon="-3.69885">
        <ele>105.170534</ele>
        <time>2022-12-11T12:57:00.442Z</time>
      </trkpt>
      <trkpt lat="48.22158" lon="-3.69878">
        <ele>105.252725</ele>
        <time>2022-12-11T12:57:03.443Z</time>
      </trkpt>
      <trkpt lat="48.22167" lon="-3.69873">
        <ele>105.335219</ele>
        <time>2022-12-11T12:57:06.484Z</time>
      </trkpt>
      <trkpt lat="48.22178" lon="-3.69868">
        <ele>105.438042</ele>
        <time>2022-12-11T12:57:10.441Z</time>
      </trkpt>
      <trkpt lat="48.22188" lon="-3.69863">
        <ele>105.52059</ele>
        <time>2022-12-11T12:57:13.452Z</time>
      </trkpt>
      <trkpt lat="48.22197" lon="-3.69861">
        <ele>105.601247</ele>
        <time>2022-12-11T12:57:16.456Z</time>
      </trkpt>
      <trkpt lat="48.22206" lon="-3.69858">
        <ele>105.682361</ele>
        <time>2022-12-11T12:57:19.447Z</time>
      </trkpt>
      <trkpt lat="48.22215" lon="-3.69855">
        <ele>105.766001</ele>
        <time>2022-12-11T12:57:22.440Z</time>
      </trkpt>
      <trkpt lat="48.22226" lon="-3.69852">
        <ele>105.861278</ele>
        <time>2022-12-11T12:57:25.445Z</time>
      </trkpt>
      <trkpt lat="48.22236" lon="-3.6985">
        <ele>105.947679</ele>
        <time>2022-12-11T12:57:28.442Z</time>
      </trkpt>
      <trkpt lat="48.22248" lon="-3.69848">
        <ele>105.949779</ele>
        <time>2022-12-11T12:57:32.446Z</time>
      </trkpt>
      <trkpt lat="48.22258" lon="-3.69848">
        <ele>105.886598</ele>
        <time>2022-12-11T12:57:36.450Z</time>
      </trkpt>
      <trkpt lat="48.22267" lon="-3.69847">
        <ele>105.828972</ele>
        <time>2022-12-11T12:57:39.450Z</time>
      </trkpt>
      <trkpt lat="48.22278" lon="-3.69844">
        <ele>105.753611</ele>
        <time>2022-12-11T12:57:43.442Z</time>
      </trkpt>
      <trkpt lat="48.22288" lon="-3.69843">
        <ele>105.689284</ele>
        <time>2022-12-11T12:57:46.461Z</time>
      </trkpt>
      <trkpt lat="48.22298" lon="-3.69842">
        <ele>105.627235</ele>
        <time>2022-12-11T12:57:49.470Z</time>
      </trkpt>
      <trkpt lat="48.22307" lon="-3.69839">
        <ele>105.569372</ele>
        <time>2022-12-11T12:57:52.447Z</time>
      </trkpt>
      <trkpt lat="48.22317" lon="-3.69837">
        <ele>105.504357</ele>
        <time>2022-12-11T12:57:56.466Z</time>
      </trkpt>
      <trkpt lat="48.22328" lon="-3.69834">
        <ele>105.436607</ele>
        <time>2022-12-11T12:58:00.445Z</time>
      </trkpt>
      <trkpt lat="48.22337" lon="-3.6983">
        <ele>105.372117</ele>
        <time>2022-12-11T12:58:03.448Z</time>
      </trkpt>
      <trkpt lat="48.22348" lon="-3.69827">
        <ele>105.305616</ele>
        <time>2022-12-11T12:58:06.467Z</time>
      </trkpt>
      <trkpt lat="48.22357" lon="-3.69823">
        <ele>105.240188</ele>
        <time>2022-12-11T12:58:09.449Z</time>
      </trkpt>
      <trkpt lat="48.22367" lon="-3.6982">
        <ele>105.176049</ele>
        <time>2022-12-11T12:58:12.468Z</time>
      </trkpt>
      <trkpt lat="48.22377" lon="-3.69818">
        <ele>105.111352</ele>
        <time>2022-12-11T12:58:15.473Z</time>
      </trkpt>
      <trkpt lat="48.22387" lon="-3.69815">
        <ele>105.049172</ele>
        <time>2022-12-11T12:58:18.446Z</time>
      </trkpt>
      <trkpt lat="48.22396" lon="-3.69811">
        <ele>104.988163</ele>
        <time>2022-12-11T12:58:22.455Z</time>
      </trkpt>
      <trkpt lat="48.22407" lon="-3.69806">
        <ele>104.912482</ele>
        <time>2022-12-11T12:58:26.459Z</time>
      </trkpt>
      <trkpt lat="48.22418" lon="-3.69801">
        <ele>104.845</ele>
        <time>2022-12-11T12:58:29.460Z</time>
      </trkpt>
      <trkpt lat="48.22426" lon="-3.69795">
        <ele>104.706189</ele>
        <time>2022-12-11T12:58:32.451Z</time>
      </trkpt>
      <trkpt lat="48.22435" lon="-3.69789">
        <ele>104.565802</ele>
        <time>2022-12-11T12:58:35.454Z</time>
      </trkpt>
      <trkpt lat="48.22443" lon="-3.69782">
        <ele>104.43439</ele>
        <time>2022-12-11T12:58:38.463Z</time>
      </trkpt>
      <trkpt lat="48.22452" lon="-3.69771">
        <ele>104.271911</ele>
        <time>2022-12-11T12:58:42.468Z</time>
      </trkpt>
      <trkpt lat="48.2246" lon="-3.6976">
        <ele>104.109311</ele>
        <time>2022-12-11T12:58:46.468Z</time>
      </trkpt>
      <trkpt lat="48.22467" lon="-3.69751">
        <ele>103.97655</ele>
        <time>2022-12-11T12:58:49.467Z</time>
      </trkpt>
      <trkpt lat="48.22473" lon="-3.6974">
        <ele>103.843393</ele>
        <time>2022-12-11T12:58:52.444Z</time>
      </trkpt>
      <trkpt lat="48.22482" lon="-3.69728">
        <ele>103.669114</ele>
        <time>2022-12-11T12:58:56.504Z</time>
      </trkpt>
      <trkpt lat="48.2249" lon="-3.69714">
        <ele>103.495229</ele>
        <time>2022-12-11T12:59:00.448Z</time>
      </trkpt>
      <trkpt lat="48.22496" lon="-3.69701">
        <ele>103.334851</ele>
        <time>2022-12-11T12:59:03.440Z</time>
      </trkpt>
      <trkpt lat="48.22502" lon="-3.69688">
        <ele>103.181822</ele>
        <time>2022-12-11T12:59:06.451Z</time>
      </trkpt>
      <trkpt lat="48.22508" lon="-3.69676">
        <ele>103.044797</ele>
        <time>2022-12-11T12:59:09.474Z</time>
      </trkpt>
      <trkpt lat="48.22515" lon="-3.69665">
        <ele>102.890232</ele>
        <time>2022-12-11T12:59:13.458Z</time>
      </trkpt>
      <trkpt lat="48.2252" lon="-3.69652">
        <ele>102.755024</ele>
        <time>2022-12-11T12:59:16.451Z</time>
      </trkpt>
      <trkpt lat="48.22524" lon="-3.69638">
        <ele>102.60092</ele>
        <time>2022-12-11T12:59:20.443Z</time>
      </trkpt>
      <trkpt lat="48.22526" lon="-3.69621">
        <ele>102.436398</ele>
        <time>2022-12-11T12:59:23.449Z</time>
      </trkpt>
      <trkpt lat="48.22524" lon="-3.69605">
        <ele>102.278409</ele>
        <time>2022-12-11T12:59:26.454Z</time>
      </trkpt>
      <trkpt lat="48.22523" lon="-3.69589">
        <ele>102.372904</ele>
        <time>2022-12-11T12:59:29.442Z</time>
      </trkpt>
      <trkpt lat="48.22518" lon="-3.69574">
        <ele>102.54771</ele>
        <time>2022-12-11T12:59:32.439Z</time>
      </trkpt>
      <trkpt lat="48.22513" lon="-3.69559">
        <ele>102.720322</ele>
        <time>2022-12-11T12:59:35.434Z</time>
      </trkpt>
      <trkpt lat="48.22508" lon="-3.69545">
        <ele>102.898741</ele>
        <time>2022-12-11T12:59:38.462Z</time>
      </trkpt>
      <trkpt lat="48.22501" lon="-3.69528">
        <ele>103.09866</ele>
        <time>2022-12-11T12:59:41.448Z</time>
      </trkpt>
      <trkpt lat="48.22495" lon="-3.69514">
        <ele>103.286168</ele>
        <time>2022-12-11T12:59:44.444Z</time>
      </trkpt>
      <trkpt lat="48.22488" lon="-3.69498">
        <ele>103.473744</ele>
        <time>2022-12-11T12:59:47.443Z</time>
      </trkpt>
      <trkpt lat="48.22483" lon="-3.69486">
        <ele>103.627093</ele>
        <time>2022-12-11T12:59:50.441Z</time>
      </trkpt>
      <trkpt lat="48.22476" lon="-3.69472">
        <ele>103.813917</ele>
        <time>2022-12-11T12:59:54.449Z</time>
      </trkpt>
      <trkpt lat="48.22469" lon="-3.69462">
        <ele>103.963618</ele>
        <time>2022-12-11T12:59:57.461Z</time>
      </trkpt>
      <trkpt lat="48.22462" lon="-3.6945">
        <ele>104.131896</ele>
        <time>2022-12-11T13:00:00.458Z</time>
      </trkpt>
      <trkpt lat="48.22456" lon="-3.69438">
        <ele>104.293907</ele>
        <time>2022-12-11T13:00:03.442Z</time>
      </trkpt>
      <trkpt lat="48.22449" lon="-3.69426">
        <ele>104.464992</ele>
        <time>2022-12-11T13:00:06.448Z</time>
      </trkpt>
      <trkpt lat="48.22442" lon="-3.69414">
        <ele>104.620123</ele>
        <time>2022-12-11T13:00:09.468Z</time>
      </trkpt>
      <trkpt lat="48.22434" lon="-3.69402">
        <ele>104.804068</ele>
        <time>2022-12-11T13:00:13.445Z</time>
      </trkpt>
      <trkpt lat="48.22428" lon="-3.69391">
        <ele>104.948482</ele>
        <time>2022-12-11T13:00:17.461Z</time>
      </trkpt>
      <trkpt lat="48.22422" lon="-3.69377">
        <ele>105.071408</ele>
        <time>2022-12-11T13:00:21.473Z</time>
      </trkpt>
      <trkpt lat="48.22417" lon="-3.69365">
        <ele>105.009252</ele>
        <time>2022-12-11T13:00:24.455Z</time>
      </trkpt>
      <trkpt lat="48.2241" lon="-3.69354">
        <ele>104.945712</ele>
        <time>2022-12-11T13:00:27.455Z</time>
      </trkpt>
      <trkpt lat="48.22403" lon="-3.6934">
        <ele>104.868937</ele>
        <time>2022-12-11T13:00:31.442Z</time>
      </trkpt>
      <trkpt lat="48.22397" lon="-3.6933">
        <ele>104.810929</ele>
        <time>2022-12-11T13:00:34.455Z</time>
      </trkpt>
      <trkpt lat="48.22391" lon="-3.69317">
        <ele>104.745524</ele>
        <time>2022-12-11T13:00:37.465Z</time>
      </trkpt>
      <trkpt lat="48.22386" lon="-3.69304">
        <ele>104.679976</ele>
        <time>2022-12-11T13:00:40.461Z</time>
      </trkpt>
      <trkpt lat="48.22382" lon="-3.6929">
        <ele>104.613642</ele>
        <time>2022-12-11T13:00:43.448Z</time>
      </trkpt>
      <trkpt lat="48.22377" lon="-3.69277">
        <ele>104.548641</ele>
        <time>2022-12-11T13:00:47.459Z</time>
      </trkpt>
      <trkpt lat="48.22372" lon="-3.69261">
        <ele>104.473714</ele>
        <time>2022-12-11T13:00:51.454Z</time>
      </trkpt>
      <trkpt lat="48.22368" lon="-3.69245">
        <ele>104.400697</ele>
        <time>2022-12-11T13:00:55.443Z</time>
      </trkpt>
      <trkpt lat="48.22365" lon="-3.69229">
        <ele>104.327985</ele>
        <time>2022-12-11T13:00:59.444Z</time>
      </trkpt>
      <trkpt lat="48.22361" lon="-3.69213">
        <ele>104.253601</ele>
        <time>2022-12-11T13:01:03.451Z</time>
      </trkpt>
      <trkpt lat="48.22358" lon="-3.69198">
        <ele>104.188021</ele>
        <time>2022-12-11T13:01:06.447Z</time>
      </trkpt>
      <trkpt lat="48.22353" lon="-3.69182">
        <ele>104.113967</ele>
        <time>2022-12-11T13:01:10.447Z</time>
      </trkpt>
      <trkpt lat="48.2235" lon="-3.69168">
        <ele>104.049319</ele>
        <time>2022-12-11T13:01:13.464Z</time>
      </trkpt>
      <trkpt lat="48.22345" lon="-3.69154">
        <ele>103.980491</ele>
        <time>2022-12-11T13:01:17.444Z</time>
      </trkpt>
      <trkpt lat="48.22342" lon="-3.69139">
        <ele>103.950731</ele>
        <time>2022-12-11T13:01:20.470Z</time>
      </trkpt>
      <trkpt lat="48.22339" lon="-3.69121">
        <ele>104.063563</ele>
        <time>2022-12-11T13:01:23.474Z</time>
      </trkpt>
      <trkpt lat="48.22335" lon="-3.69106">
        <ele>104.163155</ele>
        <time>2022-12-11T13:01:26.464Z</time>
      </trkpt>
      <trkpt lat="48.22333" lon="-3.69093">
        <ele>104.247211</ele>
        <time>2022-12-11T13:01:29.440Z</time>
      </trkpt>
      <trkpt lat="48.22329" lon="-3.69077">
        <ele>104.350913</ele>
        <time>2022-12-11T13:01:33.448Z</time>
      </trkpt>
      <trkpt lat="48.22326" lon="-3.69063">
        <ele>104.440623</ele>
        <time>2022-12-11T13:01:36.452Z</time>
      </trkpt>
      <trkpt lat="48.22321" lon="-3.6905">
        <ele>104.531618</ele>
        <time>2022-12-11T13:01:39.467Z</time>
      </trkpt>
      <trkpt lat="48.22317" lon="-3.69038">
        <ele>104.622504</ele>
        <time>2022-12-11T13:01:42.459Z</time>
      </trkpt>
      <trkpt lat="48.22312" lon="-3.69025">
        <ele>104.712795</ele>
        <time>2022-12-11T13:01:45.444Z</time>
      </trkpt>
      <trkpt lat="48.22305" lon="-3.69013">
        <ele>104.808958</ele>
        <time>2022-12-11T13:01:48.463Z</time>
      </trkpt>
      <trkpt lat="48.22298" lon="-3.69">
        <ele>104.90928</ele>
        <time>2022-12-11T13:01:52.451Z</time>
      </trkpt>
      <trkpt lat="48.22292" lon="-3.68987">
        <ele>105.011555</ele>
        <time>2022-12-11T13:01:56.452Z</time>
      </trkpt>
      <trkpt lat="48.22284" lon="-3.68975">
        <ele>105.115732</ele>
        <time>2022-12-11T13:02:00.456Z</time>
      </trkpt>
      <trkpt lat="48.22276" lon="-3.68961">
        <ele>105.231035</ele>
        <time>2022-12-11T13:02:03.461Z</time>
      </trkpt>
      <trkpt lat="48.22268" lon="-3.6895">
        <ele>105.32872</ele>
        <time>2022-12-11T13:02:06.453Z</time>
      </trkpt>
      <trkpt lat="48.2226" lon="-3.68942">
        <ele>105.419095</ele>
        <time>2022-12-11T13:02:09.474Z</time>
      </trkpt>
      <trkpt lat="48.22252" lon="-3.68934">
        <ele>105.509226</ele>
        <time>2022-12-11T13:02:12.462Z</time>
      </trkpt>
      <trkpt lat="48.22243" lon="-3.68925">
        <ele>105.605678</ele>
        <time>2022-12-11T13:02:15.444Z</time>
      </trkpt>
      <trkpt lat="48.22234" lon="-3.68916">
        <ele>105.647699</ele>
        <time>2022-12-11T13:02:18.449Z</time>
      </trkpt>
      <trkpt lat="48.22226" lon="-3.68907">
        <ele>105.690999</ele>
        <time>2022-12-11T13:02:21.456Z</time>
      </trkpt>
      <trkpt lat="48.22218" lon="-3.68898">
        <ele>105.730075</ele>
        <time>2022-12-11T13:02:24.441Z</time>
      </trkpt>
      <trkpt lat="48.22209" lon="-3.68891">
        <ele>105.77379</ele>
        <time>2022-12-11T13:02:28.442Z</time>
      </trkpt>
      <trkpt lat="48.22199" lon="-3.68884">
        <ele>105.817744</ele>
        <time>2022-12-11T13:02:31.449Z</time>
      </trkpt>
      <trkpt lat="48.2219" lon="-3.68877">
        <ele>105.859146</ele>
        <time>2022-12-11T13:02:34.452Z</time>
      </trkpt>
      <trkpt lat="48.22181" lon="-3.68871">
        <ele>105.900973</ele>
        <time>2022-12-11T13:02:37.445Z</time>
      </trkpt>
      <trkpt lat="48.22171" lon="-3.68865">
        <ele>105.941729</ele>
        <time>2022-12-11T13:02:40.445Z</time>
      </trkpt>
      <trkpt lat="48.2216" lon="-3.6886">
        <ele>105.989062</ele>
        <time>2022-12-11T13:02:44.444Z</time>
      </trkpt>
      <trkpt lat="48.2215" lon="-3.68855">
        <ele>106.031943</ele>
        <time>2022-12-11T13:02:48.465Z</time>
      </trkpt>
      <trkpt lat="48.22142" lon="-3.6885">
        <ele>106.069374</ele>
        <time>2022-12-11T13:02:51.448Z</time>
      </trkpt>
      <trkpt lat="48.22133" lon="-3.68844">
        <ele>106.108204</ele>
        <time>2022-12-11T13:02:54.443Z</time>
      </trkpt>
      <trkpt lat="48.22124" lon="-3.6884">
        <ele>106.146072</ele>
        <time>2022-12-11T13:02:57.445Z</time>
      </trkpt>
      <trkpt lat="48.22115" lon="-3.68836">
        <ele>106.186927</ele>
        <time>2022-12-11T13:03:00.468Z</time>
      </trkpt>
      <trkpt lat="48.22105" lon="-3.68832">
        <ele>106.226618</ele>
        <time>2022-12-11T13:03:03.443Z</time>
      </trkpt>
      <trkpt lat="48.22097" lon="-3.68827">
        <ele>106.263816</ele>
        <time>2022-12-11T13:03:06.451Z</time>
      </trkpt>
      <trkpt lat="48.22087" lon="-3.68823">
        <ele>106.303896</ele>
        <time>2022-12-11T13:03:09.452Z</time>
      </trkpt>
      <trkpt lat="48.22076" lon="-3.68816">
        <ele>106.306022</ele>
        <time>2022-12-11T13:03:13.445Z</time>
      </trkpt>
      <trkpt lat="48.22066" lon="-3.6881">
        <ele>106.229212</ele>
        <time>2022-12-11T13:03:17.446Z</time>
      </trkpt>
      <trkpt lat="48.22056" lon="-3.68803">
        <ele>106.151259</ele>
        <time>2022-12-11T13:03:21.455Z</time>
      </trkpt>
      <trkpt lat="48.22047" lon="-3.68795">
        <ele>106.074135</ele>
        <time>2022-12-11T13:03:25.460Z</time>
      </trkpt>
      <trkpt lat="48.22035" lon="-3.68788">
        <ele>105.989632</ele>
        <time>2022-12-11T13:03:29.461Z</time>
      </trkpt>
      <trkpt lat="48.22027" lon="-3.68783">
        <ele>105.925784</ele>
        <time>2022-12-11T13:03:32.447Z</time>
      </trkpt>
      <trkpt lat="48.22019" lon="-3.68778">
        <ele>105.862092</ele>
        <time>2022-12-11T13:03:35.447Z</time>
      </trkpt>
      <trkpt lat="48.2201" lon="-3.68773">
        <ele>105.795083</ele>
        <time>2022-12-11T13:03:38.447Z</time>
      </trkpt>
      <trkpt lat="48.21999" lon="-3.68767">
        <ele>105.715233</ele>
        <time>2022-12-11T13:03:42.445Z</time>
      </trkpt>
      <trkpt lat="48.2199" lon="-3.6876">
        <ele>105.644214</ele>
        <time>2022-12-11T13:03:46.452Z</time>
      </trkpt>
      <trkpt lat="48.21981" lon="-3.68754">
        <ele>105.576532</ele>
        <time>2022-12-11T13:03:50.459Z</time>
      </trkpt>
      <trkpt lat="48.21972" lon="-3.68749">
        <ele>105.502621</ele>
        <time>2022-12-11T13:03:53.449Z</time>
      </trkpt>
      <trkpt lat="48.21963" lon="-3.68743">
        <ele>105.432937</ele>
        <time>2022-12-11T13:03:56.473Z</time>
      </trkpt>
      <trkpt lat="48.21952" lon="-3.68738">
        <ele>105.357676</ele>
        <time>2022-12-11T13:04:00.457Z</time>
      </trkpt>
      <trkpt lat="48.21943" lon="-3.68731">
        <ele>105.282898</ele>
        <time>2022-12-11T13:04:05.466Z</time>
      </trkpt>
      <trkpt lat="48.21933" lon="-3.68726">
        <ele>105.210139</ele>
        <time>2022-12-11T13:04:10.462Z</time>
      </trkpt>
      <trkpt lat="48.21925" lon="-3.68719">
        <ele>105.145567</ele>
        <time>2022-12-11T13:04:14.465Z</time>
      </trkpt>
      <trkpt lat="48.21915" lon="-3.68713">
        <ele>105.069452</ele>
        <time>2022-12-11T13:04:18.452Z</time>
      </trkpt>
      <trkpt lat="48.21906" lon="-3.68706">
        <ele>105.135863</ele>
        <time>2022-12-11T13:04:21.459Z</time>
      </trkpt>
      <trkpt lat="48.21897" lon="-3.68697">
        <ele>105.20917</ele>
        <time>2022-12-11T13:04:25.446Z</time>
      </trkpt>
      <trkpt lat="48.21889" lon="-3.6869">
        <ele>105.270412</ele>
        <time>2022-12-11T13:04:29.472Z</time>
      </trkpt>
      <trkpt lat="48.2188" lon="-3.68685">
        <ele>105.331706</ele>
        <time>2022-12-11T13:04:33.448Z</time>
      </trkpt>
      <trkpt lat="48.21871" lon="-3.68676">
        <ele>105.410293</ele>
        <time>2022-12-11T13:04:37.468Z</time>
      </trkpt>
      <trkpt lat="48.21861" lon="-3.68667">
        <ele>105.483683</ele>
        <time>2022-12-11T13:04:40.458Z</time>
      </trkpt>
      <trkpt lat="48.21852" lon="-3.68659">
        <ele>105.559948</ele>
        <time>2022-12-11T13:04:43.449Z</time>
      </trkpt>
      <trkpt lat="48.21843" lon="-3.68651">
        <ele>105.626496</ele>
        <time>2022-12-11T13:04:46.452Z</time>
      </trkpt>
      <trkpt lat="48.21834" lon="-3.68643">
        <ele>105.699647</ele>
        <time>2022-12-11T13:04:50.462Z</time>
      </trkpt>
      <trkpt lat="48.21826" lon="-3.68636">
        <ele>105.76273</ele>
        <time>2022-12-11T13:04:54.462Z</time>
      </trkpt>
      <trkpt lat="48.21817" lon="-3.68628">
        <ele>105.831358</ele>
        <time>2022-12-11T13:04:58.449Z</time>
      </trkpt>
      <trkpt lat="48.21808" lon="-3.6862">
        <ele>105.905467</ele>
        <time>2022-12-11T13:05:02.466Z</time>
      </trkpt>
      <trkpt lat="48.218" lon="-3.68611">
        <ele>105.967277</ele>
        <time>2022-12-11T13:05:05.447Z</time>
      </trkpt>
      <trkpt lat="48.21795" lon="-3.68599">
        <ele>106.035047</ele>
        <time>2022-12-11T13:05:09.451Z</time>
      </trkpt>
      <trkpt lat="48.21797" lon="-3.68582">
        <ele>106.112313</ele>
        <time>2022-12-11T13:05:13.462Z</time>
      </trkpt>
      <trkpt lat="48.21803" lon="-3.68568">
        <ele>106.185448</ele>
        <time>2022-12-11T13:05:17.447Z</time>
      </trkpt>
      <trkpt lat="48.21808" lon="-3.68554">
        <ele>106.257416</ele>
        <time>2022-12-11T13:05:21.463Z</time>
      </trkpt>
      <trkpt lat="48.21816" lon="-3.6854">
        <ele>106.203346</ele>
        <time>2022-12-11T13:05:25.463Z</time>
      </trkpt>
      <trkpt lat="48.21822" lon="-3.68527">
        <ele>106.105224</ele>
        <time>2022-12-11T13:05:28.445Z</time>
      </trkpt>
      <trkpt lat="48.21828" lon="-3.68513">
        <ele>106.005074</ele>
        <time>2022-12-11T13:05:32.444Z</time>
      </trkpt>
      <trkpt lat="48.21834" lon="-3.68499">
        <ele>105.898768</ele>
        <time>2022-12-11T13:05:36.455Z</time>
      </trkpt>
      <trkpt lat="48.2184" lon="-3.68485">
        <ele>105.795535</ele>
        <time>2022-12-11T13:05:40.442Z</time>
      </trkpt>
      <trkpt lat="48.21846" lon="-3.68473">
        <ele>105.706685</ele>
        <time>2022-12-11T13:05:43.445Z</time>
      </trkpt>
      <trkpt lat="48.21851" lon="-3.68459">
        <ele>105.604523</ele>
        <time>2022-12-11T13:05:48.444Z</time>
      </trkpt>
      <trkpt lat="48.21857" lon="-3.68447">
        <ele>105.513412</ele>
        <time>2022-12-11T13:05:52.452Z</time>
      </trkpt>
      <trkpt lat="48.21864" lon="-3.68432">
        <ele>105.402483</ele>
        <time>2022-12-11T13:05:56.452Z</time>
      </trkpt>
      <trkpt lat="48.2187" lon="-3.6842">
        <ele>105.308205</ele>
        <time>2022-12-11T13:05:59.447Z</time>
      </trkpt>
      <trkpt lat="48.21876" lon="-3.68408">
        <ele>105.21633</ele>
        <time>2022-12-11T13:06:02.451Z</time>
      </trkpt>
      <trkpt lat="48.21884" lon="-3.68396">
        <ele>105.108925</ele>
        <time>2022-12-11T13:06:06.460Z</time>
      </trkpt>
      <trkpt lat="48.21892" lon="-3.68383">
        <ele>105.005275</ele>
        <time>2022-12-11T13:06:10.448Z</time>
      </trkpt>
      <trkpt lat="48.21898" lon="-3.68373">
        <ele>104.920234</ele>
        <time>2022-12-11T13:06:13.472Z</time>
      </trkpt>
      <trkpt lat="48.21905" lon="-3.68361">
        <ele>104.821347</ele>
        <time>2022-12-11T13:06:17.451Z</time>
      </trkpt>
      <trkpt lat="48.21912" lon="-3.68349">
        <ele>104.720774</ele>
        <time>2022-12-11T13:06:21.447Z</time>
      </trkpt>
      <trkpt lat="48.21919" lon="-3.68336">
        <ele>104.617587</ele>
        <time>2022-12-11T13:06:25.464Z</time>
      </trkpt>
      <trkpt lat="48.21926" lon="-3.68324">
        <ele>104.556694</ele>
        <time>2022-12-11T13:06:29.456Z</time>
      </trkpt>
      <trkpt lat="48.21934" lon="-3.68314">
        <ele>104.495735</ele>
        <time>2022-12-11T13:06:33.467Z</time>
      </trkpt>
      <trkpt lat="48.21941" lon="-3.68305">
        <ele>104.440465</ele>
        <time>2022-12-11T13:06:36.477Z</time>
      </trkpt>
      <trkpt lat="48.21949" lon="-3.68293">
        <ele>104.378423</ele>
        <time>2022-12-11T13:06:39.477Z</time>
      </trkpt>
      <trkpt lat="48.21955" lon="-3.68282">
        <ele>104.322233</ele>
        <time>2022-12-11T13:06:42.475Z</time>
      </trkpt>
      <trkpt lat="48.21962" lon="-3.68272">
        <ele>104.265814</ele>
        <time>2022-12-11T13:06:45.478Z</time>
      </trkpt>
      <trkpt lat="48.21969" lon="-3.6826">
        <ele>104.204401</ele>
        <time>2022-12-11T13:06:48.449Z</time>
      </trkpt>
      <trkpt lat="48.21976" lon="-3.68249">
        <ele>104.145991</ele>
        <time>2022-12-11T13:06:51.468Z</time>
      </trkpt>
      <trkpt lat="48.21982" lon="-3.68237">
        <ele>104.087979</ele>
        <time>2022-12-11T13:06:54.467Z</time>
      </trkpt>
      <trkpt lat="48.21989" lon="-3.68224">
        <ele>104.018799</ele>
        <time>2022-12-11T13:06:58.451Z</time>
      </trkpt>
      <trkpt lat="48.21997" lon="-3.68211">
        <ele>103.951485</ele>
        <time>2022-12-11T13:07:02.462Z</time>
      </trkpt>
      <trkpt lat="48.22003" lon="-3.68195">
        <ele>103.881761</ele>
        <time>2022-12-11T13:07:06.454Z</time>
      </trkpt>
      <trkpt lat="48.22007" lon="-3.68183">
        <ele>103.828472</ele>
        <time>2022-12-11T13:07:09.474Z</time>
      </trkpt>
      <trkpt lat="48.22012" lon="-3.68171">
        <ele>103.77449</ele>
        <time>2022-12-11T13:07:12.474Z</time>
      </trkpt>
      <trkpt lat="48.22016" lon="-3.68158">
        <ele>103.717984</ele>
        <time>2022-12-11T13:07:15.450Z</time>
      </trkpt>
      <trkpt lat="48.22021" lon="-3.68142">
        <ele>103.651073</ele>
        <time>2022-12-11T13:07:18.449Z</time>
      </trkpt>
      <trkpt lat="48.22025" lon="-3.68128">
        <ele>103.589703</ele>
        <time>2022-12-11T13:07:21.471Z</time>
      </trkpt>
      <trkpt lat="48.22029" lon="-3.68114">
        <ele>103.585154</ele>
        <time>2022-12-11T13:07:24.447Z</time>
      </trkpt>
      <trkpt lat="48.22032" lon="-3.68101">
        <ele>103.608219</ele>
        <time>2022-12-11T13:07:27.464Z</time>
      </trkpt>
      <trkpt lat="48.22035" lon="-3.68088">
        <ele>103.631844</ele>
        <time>2022-12-11T13:07:30.448Z</time>
      </trkpt>
      <trkpt lat="48.22038" lon="-3.68073">
        <ele>103.658099</ele>
        <time>2022-12-11T13:07:33.450Z</time>
      </trkpt>
      <trkpt lat="48.22041" lon="-3.6806">
        <ele>103.681974</ele>
        <time>2022-12-11T13:07:36.479Z</time>
      </trkpt>
      <trkpt lat="48.22044" lon="-3.68043">
        <ele>103.711776</ele>
        <time>2022-12-11T13:07:40.459Z</time>
      </trkpt>
      <trkpt lat="48.22048" lon="-3.68028">
        <ele>103.739333</ele>
        <time>2022-12-11T13:07:44.460Z</time>
      </trkpt>
      <trkpt lat="48.22051" lon="-3.68011">
        <ele>103.769638</ele>
        <time>2022-12-11T13:07:48.473Z</time>
      </trkpt>
      <trkpt lat="48.22053" lon="-3.67998">
        <ele>103.793946</ele>
        <time>2022-12-11T13:07:51.452Z</time>
      </trkpt>
      <trkpt lat="48.22056" lon="-3.67984">
        <ele>103.818061</ele>
        <time>2022-12-11T13:07:54.461Z</time>
      </trkpt>
      <trkpt lat="48.2206" lon="-3.6797">
        <ele>103.844955</ele>
        <time>2022-12-11T13:07:58.458Z</time>
      </trkpt>
      <trkpt lat="48.22064" lon="-3.67953">
        <ele>103.875412</ele>
        <time>2022-12-11T13:08:02.470Z</time>
      </trkpt>
      <trkpt lat="48.22068" lon="-3.6794">
        <ele>103.899623</ele>
        <time>2022-12-11T13:08:05.449Z</time>
      </trkpt>
      <trkpt lat="48.2207" lon="-3.67926">
        <ele>103.924779</ele>
        <time>2022-12-11T13:08:08.447Z</time>
      </trkpt>
      <trkpt lat="48.22071" lon="-3.67911">
        <ele>103.950429</ele>
        <time>2022-12-11T13:08:11.438Z</time>
      </trkpt>
      <trkpt lat="48.22071" lon="-3.67896">
        <ele>103.97622</ele>
        <time>2022-12-11T13:08:14.475Z</time>
      </trkpt>
      <trkpt lat="48.22071" lon="-3.67882">
        <ele>103.999967</ele>
        <time>2022-12-11T13:08:17.446Z</time>
      </trkpt>
      <trkpt lat="48.2207" lon="-3.67864">
        <ele>104.031155</ele>
        <time>2022-12-11T13:08:21.445Z</time>
      </trkpt>
      <trkpt lat="48.22068" lon="-3.6785">
        <ele>103.985732</ele>
        <time>2022-12-11T13:08:24.460Z</time>
      </trkpt>
      <trkpt lat="48.22067" lon="-3.67836">
        <ele>103.938431</ele>
        <time>2022-12-11T13:08:27.441Z</time>
      </trkpt>
      <trkpt lat="48.22066" lon="-3.67818">
        <ele>103.880757</ele>
        <time>2022-12-11T13:08:31.470Z</time>
      </trkpt>
      <trkpt lat="48.22065" lon="-3.678">
        <ele>103.822806</ele>
        <time>2022-12-11T13:08:35.449Z</time>
      </trkpt>
      <trkpt lat="48.22065" lon="-3.67785">
        <ele>103.772142</ele>
        <time>2022-12-11T13:08:38.450Z</time>
      </trkpt>
      <trkpt lat="48.22065" lon="-3.67771">
        <ele>103.725746</ele>
        <time>2022-12-11T13:08:41.475Z</time>
      </trkpt>
      <trkpt lat="48.22065" lon="-3.67757">
        <ele>103.678364</ele>
        <time>2022-12-11T13:08:45.450Z</time>
      </trkpt>
      <trkpt lat="48.22064" lon="-3.67739">
        <ele>103.622075</ele>
        <time>2022-12-11T13:08:49.476Z</time>
      </trkpt>
      <trkpt lat="48.22064" lon="-3.67723">
        <ele>103.566667</ele>
        <time>2022-12-11T13:08:53.474Z</time>
      </trkpt>
      <trkpt lat="48.22063" lon="-3.67708">
        <ele>103.518298</ele>
        <time>2022-12-11T13:08:56.514Z</time>
      </trkpt>
      <trkpt lat="48.22062" lon="-3.67691">
        <ele>103.461621</ele>
        <time>2022-12-11T13:09:00.471Z</time>
      </trkpt>
      <trkpt lat="48.22062" lon="-3.67674">
        <ele>103.406334</ele>
        <time>2022-12-11T13:09:04.464Z</time>
      </trkpt>
      <trkpt lat="48.22062" lon="-3.67659">
        <ele>103.357523</ele>
        <time>2022-12-11T13:09:07.460Z</time>
      </trkpt>
      <trkpt lat="48.22063" lon="-3.67644">
        <ele>103.306775</ele>
        <time>2022-12-11T13:09:10.474Z</time>
      </trkpt>
      <trkpt lat="48.22063" lon="-3.67629">
        <ele>103.257407</ele>
        <time>2022-12-11T13:09:13.449Z</time>
      </trkpt>
      <trkpt lat="48.22064" lon="-3.67614">
        <ele>103.207247</ele>
        <time>2022-12-11T13:09:16.452Z</time>
      </trkpt>
      <trkpt lat="48.22066" lon="-3.676">
        <ele>103.161786</ele>
        <time>2022-12-11T13:09:19.442Z</time>
      </trkpt>
      <trkpt lat="48.2207" lon="-3.67585">
        <ele>103.171836</ele>
        <time>2022-12-11T13:09:24.448Z</time>
      </trkpt>
      <trkpt lat="48.22075" lon="-3.67569">
        <ele>103.219631</ele>
        <time>2022-12-11T13:09:28.449Z</time>
      </trkpt>
      <trkpt lat="48.22081" lon="-3.67553">
        <ele>103.266321</ele>
        <time>2022-12-11T13:09:32.457Z</time>
      </trkpt>
      <trkpt lat="48.22086" lon="-3.6754">
        <ele>103.306233</ele>
        <time>2022-12-11T13:09:35.463Z</time>
      </trkpt>
      <trkpt lat="48.22091" lon="-3.67525">
        <ele>103.350871</ele>
        <time>2022-12-11T13:09:38.442Z</time>
      </trkpt>
      <trkpt lat="48.22095" lon="-3.67512">
        <ele>103.388073</ele>
        <time>2022-12-11T13:09:41.455Z</time>
      </trkpt>
      <trkpt lat="48.22099" lon="-3.67498">
        <ele>103.429367</ele>
        <time>2022-12-11T13:09:44.455Z</time>
      </trkpt>
      <trkpt lat="48.22103" lon="-3.67485">
        <ele>103.465555</ele>
        <time>2022-12-11T13:09:47.460Z</time>
      </trkpt>
      <trkpt lat="48.22106" lon="-3.67471">
        <ele>103.503305</ele>
        <time>2022-12-11T13:09:50.445Z</time>
      </trkpt>
      <trkpt lat="48.22109" lon="-3.67457">
        <ele>103.54237</ele>
        <time>2022-12-11T13:09:53.449Z</time>
      </trkpt>
      <trkpt lat="48.22113" lon="-3.67445">
        <ele>103.577811</ele>
        <time>2022-12-11T13:09:56.458Z</time>
      </trkpt>
      <trkpt lat="48.22116" lon="-3.67429">
        <ele>103.621178</ele>
        <time>2022-12-11T13:09:59.450Z</time>
      </trkpt>
      <trkpt lat="48.2212" lon="-3.67415">
        <ele>103.660832</ele>
        <time>2022-12-11T13:10:02.476Z</time>
      </trkpt>
      <trkpt lat="48.22124" lon="-3.674">
        <ele>103.703555</ele>
        <time>2022-12-11T13:10:06.448Z</time>
      </trkpt>
      <trkpt lat="48.22129" lon="-3.67388">
        <ele>103.740176</ele>
        <time>2022-12-11T13:10:09.448Z</time>
      </trkpt>
      <trkpt lat="48.22133" lon="-3.67375">
        <ele>103.778291</ele>
        <time>2022-12-11T13:10:12.474Z</time>
      </trkpt>
      <trkpt lat="48.22137" lon="-3.67363">
        <ele>103.815468</ele>
        <time>2022-12-11T13:10:15.455Z</time>
      </trkpt>
      <trkpt lat="48.22142" lon="-3.6735">
        <ele>103.850758</ele>
        <time>2022-12-11T13:10:18.466Z</time>
      </trkpt>
      <trkpt lat="48.22147" lon="-3.67337">
        <ele>103.72073</ele>
        <time>2022-12-11T13:10:21.472Z</time>
      </trkpt>
      <trkpt lat="48.22151" lon="-3.67325">
        <ele>103.598914</ele>
        <time>2022-12-11T13:10:24.467Z</time>
      </trkpt>
      <trkpt lat="48.22157" lon="-3.67309">
        <ele>103.441257</ele>
        <time>2022-12-11T13:10:28.449Z</time>
      </trkpt>
      <trkpt lat="48.22163" lon="-3.67295">
        <ele>103.297742</ele>
        <time>2022-12-11T13:10:31.469Z</time>
      </trkpt>
      <trkpt lat="48.22168" lon="-3.6728">
        <ele>103.153559</ele>
        <time>2022-12-11T13:10:34.472Z</time>
      </trkpt>
      <trkpt lat="48.22173" lon="-3.67267">
        <ele>103.022004</ele>
        <time>2022-12-11T13:10:37.457Z</time>
      </trkpt>
      <trkpt lat="48.22177" lon="-3.67254">
        <ele>102.899251</ele>
        <time>2022-12-11T13:10:40.464Z</time>
      </trkpt>
      <trkpt lat="48.22181" lon="-3.67239">
        <ele>102.758542</ele>
        <time>2022-12-11T13:10:43.475Z</time>
      </trkpt>
      <trkpt lat="48.22184" lon="-3.67225">
        <ele>102.627705</ele>
        <time>2022-12-11T13:10:46.486Z</time>
      </trkpt>
      <trkpt lat="48.22187" lon="-3.67212">
        <ele>102.506713</ele>
        <time>2022-12-11T13:10:49.452Z</time>
      </trkpt>
      <trkpt lat="48.2219" lon="-3.67195">
        <ele>102.359545</ele>
        <time>2022-12-11T13:10:53.475Z</time>
      </trkpt>
      <trkpt lat="48.22193" lon="-3.6718">
        <ele>102.221124</ele>
        <time>2022-12-11T13:10:57.475Z</time>
      </trkpt>
      <trkpt lat="48.22196" lon="-3.67167">
        <ele>102.100776</ele>
        <time>2022-12-11T13:11:00.444Z</time>
      </trkpt>
      <trkpt lat="48.22198" lon="-3.67151">
        <ele>101.960048</ele>
        <time>2022-12-11T13:11:03.467Z</time>
      </trkpt>
      <trkpt lat="48.22199" lon="-3.67135">
        <ele>101.823614</ele>
        <time>2022-12-11T13:11:06.451Z</time>
      </trkpt>
      <trkpt lat="48.222" lon="-3.6712">
        <ele>101.691762</ele>
        <time>2022-12-11T13:11:09.446Z</time>
      </trkpt>
      <trkpt lat="48.22201" lon="-3.67105">
        <ele>101.558177</ele>
        <time>2022-12-11T13:11:12.448Z</time>
      </trkpt>
      <trkpt lat="48.22201" lon="-3.67089">
        <ele>101.516714</ele>
        <time>2022-12-11T13:11:15.460Z</time>
      </trkpt>
      <trkpt lat="48.22202" lon="-3.67074">
        <ele>101.534907</ele>
        <time>2022-12-11T13:11:18.451Z</time>
      </trkpt>
      <trkpt lat="48.22204" lon="-3.6706">
        <ele>101.552354</ele>
        <time>2022-12-11T13:11:21.445Z</time>
      </trkpt>
      <trkpt lat="48.22204" lon="-3.67044">
        <ele>101.570974</ele>
        <time>2022-12-11T13:11:24.457Z</time>
      </trkpt>
      <trkpt lat="48.22205" lon="-3.6703">
        <ele>101.588717</ele>
        <time>2022-12-11T13:11:27.465Z</time>
      </trkpt>
      <trkpt lat="48.22207" lon="-3.67016">
        <ele>101.605156</ele>
        <time>2022-12-11T13:11:30.462Z</time>
      </trkpt>
      <trkpt lat="48.22208" lon="-3.66999">
        <ele>101.626067</ele>
        <time>2022-12-11T13:11:34.454Z</time>
      </trkpt>
      <trkpt lat="48.22209" lon="-3.66985">
        <ele>101.642841</ele>
        <time>2022-12-11T13:11:37.453Z</time>
      </trkpt>
      <trkpt lat="48.22211" lon="-3.66968">
        <ele>101.663478</ele>
        <time>2022-12-11T13:11:41.449Z</time>
      </trkpt>
      <trkpt lat="48.22213" lon="-3.66955">
        <ele>101.679744</ele>
        <time>2022-12-11T13:11:44.454Z</time>
      </trkpt>
      <trkpt lat="48.22214" lon="-3.66941">
        <ele>101.696278</ele>
        <time>2022-12-11T13:11:47.458Z</time>
      </trkpt>
      <trkpt lat="48.22214" lon="-3.66924">
        <ele>101.717064</ele>
        <time>2022-12-11T13:11:51.443Z</time>
      </trkpt>
      <trkpt lat="48.22215" lon="-3.66906">
        <ele>101.738103</ele>
        <time>2022-12-11T13:11:55.470Z</time>
      </trkpt>
      <trkpt lat="48.22212" lon="-3.66892">
        <ele>101.755709</ele>
        <time>2022-12-11T13:11:58.442Z</time>
      </trkpt>
      <trkpt lat="48.22208" lon="-3.66879">
        <ele>101.773278</ele>
        <time>2022-12-11T13:12:01.446Z</time>
      </trkpt>
      <trkpt lat="48.22202" lon="-3.66867">
        <ele>101.791776</ele>
        <time>2022-12-11T13:12:04.459Z</time>
      </trkpt>
      <trkpt lat="48.22194" lon="-3.66852">
        <ele>101.813919</ele>
        <time>2022-12-11T13:12:07.446Z</time>
      </trkpt>
      <trkpt lat="48.22186" lon="-3.6684">
        <ele>101.931211</ele>
        <time>2022-12-11T13:12:09.459Z</time>
      </trkpt>
      <trkpt lat="48.22181" lon="-3.66827">
        <ele>102.272394</ele>
        <time>2022-12-11T13:12:11.444Z</time>
      </trkpt>
      <trkpt lat="48.22173" lon="-3.66813">
        <ele>102.691787</ele>
        <time>2022-12-11T13:12:13.465Z</time>
      </trkpt>
      <trkpt lat="48.22167" lon="-3.66801">
        <ele>103.036986</ele>
        <time>2022-12-11T13:12:15.465Z</time>
      </trkpt>
      <trkpt lat="48.2216" lon="-3.66788">
        <ele>103.418171</ele>
        <time>2022-12-11T13:12:18.461Z</time>
      </trkpt>
      <trkpt lat="48.22153" lon="-3.66777">
        <ele>103.759925</ele>
        <time>2022-12-11T13:12:22.449Z</time>
      </trkpt>
      <trkpt lat="48.22147" lon="-3.66766">
        <ele>104.094233</ele>
        <time>2022-12-11T13:12:26.473Z</time>
      </trkpt>
      <trkpt lat="48.2214" lon="-3.66753">
        <ele>104.468384</ele>
        <time>2022-12-11T13:12:30.477Z</time>
      </trkpt>
      <trkpt lat="48.22133" lon="-3.66739">
        <ele>104.851259</ele>
        <time>2022-12-11T13:12:33.462Z</time>
      </trkpt>
      <trkpt lat="48.22128" lon="-3.66726">
        <ele>105.199852</ele>
        <time>2022-12-11T13:12:36.475Z</time>
      </trkpt>
      <trkpt lat="48.2212" lon="-3.66712">
        <ele>105.614497</ele>
        <time>2022-12-11T13:12:40.458Z</time>
      </trkpt>
      <trkpt lat="48.22115" lon="-3.66699">
        <ele>105.96906</ele>
        <time>2022-12-11T13:12:43.477Z</time>
      </trkpt>
      <trkpt lat="48.2211" lon="-3.66687">
        <ele>106.298762</ele>
        <time>2022-12-11T13:12:46.495Z</time>
      </trkpt>
      <trkpt lat="48.22103" lon="-3.66673">
        <ele>106.683355</ele>
        <time>2022-12-11T13:12:50.472Z</time>
      </trkpt>
      <trkpt lat="48.22097" lon="-3.6666">
        <ele>107.05571</ele>
        <time>2022-12-11T13:12:53.455Z</time>
      </trkpt>
      <trkpt lat="48.22087" lon="-3.66647">
        <ele>107.494968</ele>
        <time>2022-12-11T13:12:56.472Z</time>
      </trkpt>
      <trkpt lat="48.22078" lon="-3.66635">
        <ele>107.916305</ele>
        <time>2022-12-11T13:12:59.447Z</time>
      </trkpt>
      <trkpt lat="48.22069" lon="-3.66626">
        <ele>107.856146</ele>
        <time>2022-12-11T13:13:02.444Z</time>
      </trkpt>
      <trkpt lat="48.22063" lon="-3.66617">
        <ele>107.729032</ele>
        <time>2022-12-11T13:13:05.450Z</time>
      </trkpt>
      <trkpt lat="48.22054" lon="-3.66607">
        <ele>107.577366</ele>
        <time>2022-12-11T13:13:09.447Z</time>
      </trkpt>
      <trkpt lat="48.22048" lon="-3.66597">
        <ele>107.449482</ele>
        <time>2022-12-11T13:13:12.474Z</time>
      </trkpt>
      <trkpt lat="48.22039" lon="-3.66588">
        <ele>107.291754</ele>
        <time>2022-12-11T13:13:15.438Z</time>
      </trkpt>
      <trkpt lat="48.22031" lon="-3.66579">
        <ele>107.156025</ele>
        <time>2022-12-11T13:13:18.450Z</time>
      </trkpt>
      <trkpt lat="48.22022" lon="-3.66567">
        <ele>106.990259</ele>
        <time>2022-12-11T13:13:22.445Z</time>
      </trkpt>
      <trkpt lat="48.22016" lon="-3.66555">
        <ele>106.848636</ele>
        <time>2022-12-11T13:13:26.453Z</time>
      </trkpt>
      <trkpt lat="48.2201" lon="-3.6654">
        <ele>106.683805</ele>
        <time>2022-12-11T13:13:30.443Z</time>
      </trkpt>
      <trkpt lat="48.22004" lon="-3.66523">
        <ele>106.509012</ele>
        <time>2022-12-11T13:13:34.465Z</time>
      </trkpt>
      <trkpt lat="48.22" lon="-3.6651">
        <ele>106.374655</ele>
        <time>2022-12-11T13:13:37.454Z</time>
      </trkpt>
      <trkpt lat="48.21997" lon="-3.66494">
        <ele>106.211267</ele>
        <time>2022-12-11T13:13:40.473Z</time>
      </trkpt>
      <trkpt lat="48.21993" lon="-3.66477">
        <ele>106.045513</ele>
        <time>2022-12-11T13:13:43.448Z</time>
      </trkpt>
      <trkpt lat="48.21991" lon="-3.66463">
        <ele>105.906795</ele>
        <time>2022-12-11T13:13:46.473Z</time>
      </trkpt>
      <trkpt lat="48.21988" lon="-3.66448">
        <ele>105.763024</ele>
        <time>2022-12-11T13:13:50.451Z</time>
      </trkpt>
      <trkpt lat="48.21984" lon="-3.66434">
        <ele>105.621841</ele>
        <time>2022-12-11T13:13:54.451Z</time>
      </trkpt>
      <trkpt lat="48.2198" lon="-3.6642">
        <ele>105.474632</ele>
        <time>2022-12-11T13:13:58.445Z</time>
      </trkpt>
      <trkpt lat="48.21976" lon="-3.66405">
        <ele>105.509753</ele>
        <time>2022-12-11T13:14:02.464Z</time>
      </trkpt>
      <trkpt lat="48.21972" lon="-3.6639">
        <ele>105.594574</ele>
        <time>2022-12-11T13:14:06.455Z</time>
      </trkpt>
      <trkpt lat="48.21964" lon="-3.66379">
        <ele>105.676633</ele>
        <time>2022-12-11T13:14:10.447Z</time>
      </trkpt>
      <trkpt lat="48.21956" lon="-3.66368">
        <ele>105.769424</ele>
        <time>2022-12-11T13:14:15.445Z</time>
      </trkpt>
      <trkpt lat="48.21948" lon="-3.66356">
        <ele>105.855249</ele>
        <time>2022-12-11T13:14:19.450Z</time>
      </trkpt>
      <trkpt lat="48.21941" lon="-3.66343">
        <ele>105.947765</ele>
        <time>2022-12-11T13:14:23.452Z</time>
      </trkpt>
      <trkpt lat="48.21934" lon="-3.66333">
        <ele>106.02436</ele>
        <time>2022-12-11T13:14:26.470Z</time>
      </trkpt>
      <trkpt lat="48.21927" lon="-3.66323">
        <ele>106.097924</ele>
        <time>2022-12-11T13:14:29.450Z</time>
      </trkpt>
      <trkpt lat="48.2192" lon="-3.66314">
        <ele>106.174057</ele>
        <time>2022-12-11T13:14:32.458Z</time>
      </trkpt>
      <trkpt lat="48.21912" lon="-3.66301">
        <ele>106.266171</ele>
        <time>2022-12-11T13:14:36.468Z</time>
      </trkpt>
      <trkpt lat="48.21904" lon="-3.66288">
        <ele>106.365569</ele>
        <time>2022-12-11T13:14:40.471Z</time>
      </trkpt>
      <trkpt lat="48.21896" lon="-3.66277">
        <ele>106.448933</ele>
        <time>2022-12-11T13:14:43.451Z</time>
      </trkpt>
      <trkpt lat="48.21889" lon="-3.66267">
        <ele>106.524829</ele>
        <time>2022-12-11T13:14:46.465Z</time>
      </trkpt>
      <trkpt lat="48.21881" lon="-3.66255">
        <ele>106.616704</ele>
        <time>2022-12-11T13:14:50.459Z</time>
      </trkpt>
      <trkpt lat="48.21874" lon="-3.66246">
        <ele>106.689625</ele>
        <time>2022-12-11T13:14:54.472Z</time>
      </trkpt>
      <trkpt lat="48.21866" lon="-3.66236">
        <ele>106.778318</ele>
        <time>2022-12-11T13:14:58.446Z</time>
      </trkpt>
      <trkpt lat="48.21857" lon="-3.66225">
        <ele>106.867655</ele>
        <time>2022-12-11T13:15:02.456Z</time>
      </trkpt>
      <trkpt lat="48.21851" lon="-3.66215">
        <ele>106.876571</ele>
        <time>2022-12-11T13:15:05.473Z</time>
      </trkpt>
      <trkpt lat="48.21844" lon="-3.66205">
        <ele>106.870474</ele>
        <time>2022-12-11T13:15:08.460Z</time>
      </trkpt>
      <trkpt lat="48.21835" lon="-3.66195">
        <ele>106.863694</ele>
        <time>2022-12-11T13:15:12.443Z</time>
      </trkpt>
      <trkpt lat="48.21826" lon="-3.66183">
        <ele>106.855857</ele>
        <time>2022-12-11T13:15:16.449Z</time>
      </trkpt>
      <trkpt lat="48.21818" lon="-3.66172">
        <ele>106.848971</ele>
        <time>2022-12-11T13:15:19.445Z</time>
      </trkpt>
      <trkpt lat="48.21811" lon="-3.66162">
        <ele>106.842828</ele>
        <time>2022-12-11T13:15:22.460Z</time>
      </trkpt>
      <trkpt lat="48.21803" lon="-3.6615">
        <ele>106.835304</ele>
        <time>2022-12-11T13:15:26.476Z</time>
      </trkpt>
      <trkpt lat="48.21796" lon="-3.66137">
        <ele>106.828565</ele>
        <time>2022-12-11T13:15:29.449Z</time>
      </trkpt>
      <trkpt lat="48.21791" lon="-3.66126">
        <ele>106.822766</ele>
        <time>2022-12-11T13:15:32.450Z</time>
      </trkpt>
      <trkpt lat="48.21786" lon="-3.66112">
        <ele>106.815983</ele>
        <time>2022-12-11T13:15:36.454Z</time>
      </trkpt>
      <trkpt lat="48.21782" lon="-3.66095">
        <ele>106.808363</ele>
        <time>2022-12-11T13:15:40.445Z</time>
      </trkpt>
      <trkpt lat="48.21781" lon="-3.66079">
        <ele>106.801442</ele>
        <time>2022-12-11T13:15:43.448Z</time>
      </trkpt>
      <trkpt lat="48.2178" lon="-3.66064">
        <ele>106.794944</ele>
        <time>2022-12-11T13:15:46.451Z</time>
      </trkpt>
      <trkpt lat="48.21782" lon="-3.66049">
        <ele>106.788486</ele>
        <time>2022-12-11T13:15:49.463Z</time>
      </trkpt>
      <trkpt lat="48.21782" lon="-3.66033">
        <ele>106.781631</ele>
        <time>2022-12-11T13:15:52.472Z</time>
      </trkpt>
      <trkpt lat="48.21784" lon="-3.66016">
        <ele>106.774508</ele>
        <time>2022-12-11T13:15:55.469Z</time>
      </trkpt>
      <trkpt lat="48.21786" lon="-3.66001">
        <ele>106.767916</ele>
        <time>2022-12-11T13:15:58.457Z</time>
      </trkpt>
      <trkpt lat="48.21788" lon="-3.65986">
        <ele>107.040278</ele>
        <time>2022-12-11T13:16:02.454Z</time>
      </trkpt>
      <trkpt lat="48.21789" lon="-3.65971">
        <ele>107.389015</ele>
        <time>2022-12-11T13:16:07.447Z</time>
      </trkpt>
      <trkpt lat="48.21792" lon="-3.65957">
        <ele>107.728432</ele>
        <time>2022-12-11T13:16:10.452Z</time>
      </trkpt>
      <trkpt lat="48.21796" lon="-3.65942">
        <ele>108.087428</ele>
        <time>2022-12-11T13:16:13.460Z</time>
      </trkpt>
      <trkpt lat="48.21801" lon="-3.65929">
        <ele>108.448065</ele>
        <time>2022-12-11T13:16:16.468Z</time>
      </trkpt>
      <trkpt lat="48.21806" lon="-3.65914">
        <ele>108.830165</ele>
        <time>2022-12-11T13:16:20.448Z</time>
      </trkpt>
      <trkpt lat="48.21812" lon="-3.65898">
        <ele>109.251139</ele>
        <time>2022-12-11T13:16:24.460Z</time>
      </trkpt>
      <trkpt lat="48.21817" lon="-3.65885">
        <ele>109.607426</ele>
        <time>2022-12-11T13:16:27.479Z</time>
      </trkpt>
      <trkpt lat="48.21823" lon="-3.65868">
        <ele>110.034124</ele>
        <time>2022-12-11T13:16:31.451Z</time>
      </trkpt>
      <trkpt lat="48.21827" lon="-3.65855">
        <ele>110.368009</ele>
        <time>2022-12-11T13:16:34.446Z</time>
      </trkpt>
      <trkpt lat="48.21832" lon="-3.65842">
        <ele>110.724986</ele>
        <time>2022-12-11T13:16:38.451Z</time>
      </trkpt>
      <trkpt lat="48.21837" lon="-3.6583">
        <ele>111.044351</ele>
        <time>2022-12-11T13:16:41.452Z</time>
      </trkpt>
      <trkpt lat="48.21843" lon="-3.65818">
        <ele>111.382689</ele>
        <time>2022-12-11T13:16:44.449Z</time>
      </trkpt>
      <trkpt lat="48.2185" lon="-3.65807">
        <ele>111.732647</ele>
        <time>2022-12-11T13:16:47.452Z</time>
      </trkpt>
      <trkpt lat="48.21858" lon="-3.65796">
        <ele>112.112662</ele>
        <time>2022-12-11T13:16:50.460Z</time>
      </trkpt>
      <trkpt lat="48.21865" lon="-3.65786">
        <ele>112.446589</ele>
        <time>2022-12-11T13:16:53.451Z</time>
      </trkpt>
      <trkpt lat="48.21872" lon="-3.65777">
        <ele>112.757945</ele>
        <time>2022-12-11T13:16:56.478Z</time>
      </trkpt>
      <trkpt lat="48.21879" lon="-3.65768">
        <ele>112.910444</ele>
        <time>2022-12-11T13:16:59.476Z</time>
      </trkpt>
      <trkpt lat="48.21887" lon="-3.65759">
        <ele>112.760372</ele>
        <time>2022-12-11T13:17:02.443Z</time>
      </trkpt>
      <trkpt lat="48.21894" lon="-3.65752">
        <ele>112.618187</ele>
        <time>2022-12-11T13:17:05.448Z</time>
      </trkpt>
      <trkpt lat="48.21903" lon="-3.65746">
        <ele>112.466661</ele>
        <time>2022-12-11T13:17:09.454Z</time>
      </trkpt>
      <trkpt lat="48.21914" lon="-3.65743">
        <ele>112.288815</ele>
        <time>2022-12-11T13:17:13.447Z</time>
      </trkpt>
      <trkpt lat="48.21924" lon="-3.65743">
        <ele>112.143433</ele>
        <time>2022-12-11T13:17:16.451Z</time>
      </trkpt>
      <trkpt lat="48.21933" lon="-3.65743">
        <ele>111.99792</ele>
        <time>2022-12-11T13:17:19.474Z</time>
      </trkpt>
      <trkpt lat="48.21944" lon="-3.65742">
        <ele>111.819031</ele>
        <time>2022-12-11T13:17:23.447Z</time>
      </trkpt>
      <trkpt lat="48.21954" lon="-3.65739">
        <ele>111.670149</ele>
        <time>2022-12-11T13:17:26.467Z</time>
      </trkpt>
      <trkpt lat="48.21964" lon="-3.65736">
        <ele>111.510094</ele>
        <time>2022-12-11T13:17:29.455Z</time>
      </trkpt>
      <trkpt lat="48.21973" lon="-3.65731">
        <ele>111.354197</ele>
        <time>2022-12-11T13:17:32.446Z</time>
      </trkpt>
      <trkpt lat="48.21983" lon="-3.65724">
        <ele>111.191078</ele>
        <time>2022-12-11T13:17:35.461Z</time>
      </trkpt>
      <trkpt lat="48.21991" lon="-3.65717">
        <ele>111.037755</ele>
        <time>2022-12-11T13:17:38.452Z</time>
      </trkpt>
      <trkpt lat="48.21999" lon="-3.65709">
        <ele>110.889752</ele>
        <time>2022-12-11T13:17:41.453Z</time>
      </trkpt>
      <trkpt lat="48.22006" lon="-3.65699">
        <ele>110.740113</ele>
        <time>2022-12-11T13:17:44.449Z</time>
      </trkpt>
      <trkpt lat="48.22012" lon="-3.65689">
        <ele>110.598057</ele>
        <time>2022-12-11T13:17:47.445Z</time>
      </trkpt>
      <trkpt lat="48.22019" lon="-3.65676">
        <ele>110.4239</ele>
        <time>2022-12-11T13:17:51.458Z</time>
      </trkpt>
      <trkpt lat="48.22026" lon="-3.65666">
        <ele>110.274138</ele>
        <time>2022-12-11T13:17:55.470Z</time>
      </trkpt>
      <trkpt lat="48.22032" lon="-3.65656">
        <ele>110.145277</ele>
        <time>2022-12-11T13:17:59.479Z</time>
      </trkpt>
      <trkpt lat="48.22041" lon="-3.65646">
        <ele>110.088532</ele>
        <time>2022-12-11T13:18:03.462Z</time>
      </trkpt>
      <trkpt lat="48.22051" lon="-3.65637">
        <ele>110.023755</ele>
        <time>2022-12-11T13:18:07.446Z</time>
      </trkpt>
      <trkpt lat="48.2206" lon="-3.6563">
        <ele>109.970673</ele>
        <time>2022-12-11T13:18:10.453Z</time>
      </trkpt>
      <trkpt lat="48.22069" lon="-3.65623">
        <ele>109.91745</ele>
        <time>2022-12-11T13:18:13.477Z</time>
      </trkpt>
      <trkpt lat="48.22078" lon="-3.65617">
        <ele>109.864703</ele>
        <time>2022-12-11T13:18:16.480Z</time>
      </trkpt>
      <trkpt lat="48.22088" lon="-3.65611">
        <ele>109.807484</ele>
        <time>2022-12-11T13:18:20.452Z</time>
      </trkpt>
      <trkpt lat="48.22097" lon="-3.65606">
        <ele>109.755997</ele>
        <time>2022-12-11T13:18:24.452Z</time>
      </trkpt>
      <trkpt lat="48.22106" lon="-3.65602">
        <ele>109.707548</ele>
        <time>2022-12-11T13:18:28.473Z</time>
      </trkpt>
      <trkpt lat="48.22116" lon="-3.65601">
        <ele>109.654606</ele>
        <time>2022-12-11T13:18:32.465Z</time>
      </trkpt>
      <trkpt lat="48.22127" lon="-3.65598">
        <ele>109.593755</ele>
        <time>2022-12-11T13:18:36.469Z</time>
      </trkpt>
      <trkpt lat="48.22136" lon="-3.65597">
        <ele>109.544241</ele>
        <time>2022-12-11T13:18:39.445Z</time>
      </trkpt>
      <trkpt lat="48.22146" lon="-3.65595">
        <ele>109.49174</ele>
        <time>2022-12-11T13:18:42.457Z</time>
      </trkpt>
      <trkpt lat="48.22156" lon="-3.65593">
        <ele>109.439507</ele>
        <time>2022-12-11T13:18:45.456Z</time>
      </trkpt>
      <trkpt lat="48.22167" lon="-3.6559">
        <ele>109.382126</ele>
        <time>2022-12-11T13:18:48.459Z</time>
      </trkpt>
      <trkpt lat="48.22176" lon="-3.65588">
        <ele>109.328728</ele>
        <time>2022-12-11T13:18:51.479Z</time>
      </trkpt>
      <trkpt lat="48.22186" lon="-3.65586">
        <ele>109.279231</ele>
        <time>2022-12-11T13:18:54.476Z</time>
      </trkpt>
      <trkpt lat="48.22195" lon="-3.65585">
        <ele>109.228656</ele>
        <time>2022-12-11T13:18:57.478Z</time>
      </trkpt>
      <trkpt lat="48.22207" lon="-3.65584">
        <ele>109.238339</ele>
        <time>2022-12-11T13:19:01.456Z</time>
      </trkpt>
      <trkpt lat="48.22217" lon="-3.65586">
        <ele>109.311965</ele>
        <time>2022-12-11T13:19:04.468Z</time>
      </trkpt>
      <trkpt lat="48.22227" lon="-3.65589">
        <ele>109.385657</ele>
        <time>2022-12-11T13:19:07.452Z</time>
      </trkpt>
      <trkpt lat="48.22237" lon="-3.65589">
        <ele>109.4601</ele>
        <time>2022-12-11T13:19:10.450Z</time>
      </trkpt>
      <trkpt lat="48.22247" lon="-3.65587">
        <ele>109.533726</ele>
        <time>2022-12-11T13:19:13.451Z</time>
      </trkpt>
      <trkpt lat="48.22256" lon="-3.65583">
        <ele>109.603087</ele>
        <time>2022-12-11T13:19:16.485Z</time>
      </trkpt>
      <trkpt lat="48.22265" lon="-3.65578">
        <ele>109.677512</ele>
        <time>2022-12-11T13:19:19.450Z</time>
      </trkpt>
      <trkpt lat="48.22274" lon="-3.65573">
        <ele>109.748244</ele>
        <time>2022-12-11T13:19:22.475Z</time>
      </trkpt>
      <trkpt lat="48.22285" lon="-3.65567">
        <ele>109.833123</ele>
        <time>2022-12-11T13:19:26.450Z</time>
      </trkpt>
      <trkpt lat="48.22296" lon="-3.65561">
        <ele>109.920254</ele>
        <time>2022-12-11T13:19:30.455Z</time>
      </trkpt>
      <trkpt lat="48.22305" lon="-3.65555">
        <ele>109.988284</ele>
        <time>2022-12-11T13:19:33.462Z</time>
      </trkpt>
      <trkpt lat="48.22313" lon="-3.65551">
        <ele>110.057502</ele>
        <time>2022-12-11T13:19:36.486Z</time>
      </trkpt>
      <trkpt lat="48.22323" lon="-3.65547">
        <ele>110.132228</ele>
        <time>2022-12-11T13:19:39.467Z</time>
      </trkpt>
      <trkpt lat="48.22333" lon="-3.65544">
        <ele>110.207589</ele>
        <time>2022-12-11T13:19:42.474Z</time>
      </trkpt>
      <trkpt lat="48.22342" lon="-3.65539">
        <ele>110.274877</ele>
        <time>2022-12-11T13:19:45.448Z</time>
      </trkpt>
      <trkpt lat="48.22351" lon="-3.65533">
        <ele>110.349925</ele>
        <time>2022-12-11T13:19:49.457Z</time>
      </trkpt>
      <trkpt lat="48.2236" lon="-3.65528">
        <ele>110.41826</ele>
        <time>2022-12-11T13:19:53.459Z</time>
      </trkpt>
      <trkpt lat="48.2237" lon="-3.65527">
        <ele>110.492284</ele>
        <time>2022-12-11T13:19:57.454Z</time>
      </trkpt>
      <trkpt lat="48.22379" lon="-3.65531">
        <ele>110.492124</ele>
        <time>2022-12-11T13:20:02.451Z</time>
      </trkpt>
      <trkpt lat="48.22389" lon="-3.65534">
        <ele>110.430234</ele>
        <time>2022-12-11T13:20:07.450Z</time>
      </trkpt>
      <trkpt lat="48.22399" lon="-3.6553">
        <ele>110.37012</ele>
        <time>2022-12-11T13:20:11.448Z</time>
      </trkpt>
      <trkpt lat="48.2241" lon="-3.65529">
        <ele>110.304076</ele>
        <time>2022-12-11T13:20:15.457Z</time>
      </trkpt>
      <trkpt lat="48.22419" lon="-3.65528">
        <ele>110.248993</ele>
        <time>2022-12-11T13:20:18.454Z</time>
      </trkpt>
      <trkpt lat="48.22431" lon="-3.65529">
        <ele>110.177924</ele>
        <time>2022-12-11T13:20:22.466Z</time>
      </trkpt>
      <trkpt lat="48.22441" lon="-3.65529">
        <ele>110.118135</ele>
        <time>2022-12-11T13:20:25.473Z</time>
      </trkpt>
      <trkpt lat="48.22451" lon="-3.65528">
        <ele>110.062427</ele>
        <time>2022-12-11T13:20:28.478Z</time>
      </trkpt>
      <trkpt lat="48.22462" lon="-3.65528">
        <ele>109.997306</ele>
        <time>2022-12-11T13:20:31.461Z</time>
      </trkpt>
      <trkpt lat="48.22472" lon="-3.65527">
        <ele>109.937439</ele>
        <time>2022-12-11T13:20:34.463Z</time>
      </trkpt>
      <trkpt lat="48.22483" lon="-3.65527">
        <ele>109.872877</ele>
        <time>2022-12-11T13:20:37.465Z</time>
      </trkpt>
      <trkpt lat="48.22493" lon="-3.65525">
        <ele>109.813895</ele>
        <time>2022-12-11T13:20:40.455Z</time>
      </trkpt>
      <trkpt lat="48.22504" lon="-3.65521">
        <ele>109.742113</ele>
        <time>2022-12-11T13:20:44.464Z</time>
      </trkpt>
      <trkpt lat="48.22514" lon="-3.65517">
        <ele>109.681427</ele>
        <time>2022-12-11T13:20:47.451Z</time>
      </trkpt>
      <trkpt lat="48.22524" lon="-3.65511">
        <ele>109.621015</ele>
        <time>2022-12-11T13:20:50.454Z</time>
      </trkpt>
      <trkpt lat="48.22533" lon="-3.65505">
        <ele>109.561322</ele>
        <time>2022-12-11T13:20:53.450Z</time>
      </trkpt>
      <trkpt lat="48.22541" lon="-3.65497">
        <ele>109.502226</ele>
        <time>2022-12-11T13:20:56.479Z</time>
      </trkpt>
      <trkpt lat="48.2255" lon="-3.65488">
        <ele>109.40158</ele>
        <time>2022-12-11T13:20:59.446Z</time>
      </trkpt>
      <trkpt lat="48.22558" lon="-3.65478">
        <ele>109.179143</ele>
        <time>2022-12-11T13:21:02.459Z</time>
      </trkpt>
      <trkpt lat="48.22566" lon="-3.65469">
        <ele>108.972763</ele>
        <time>2022-12-11T13:21:05.477Z</time>
      </trkpt>
      <trkpt lat="48.22575" lon="-3.6546">
        <ele>108.746253</ele>
        <time>2022-12-11T13:21:08.452Z</time>
      </trkpt>
      <trkpt lat="48.22584" lon="-3.65451">
        <ele>108.508336</ele>
        <time>2022-12-11T13:21:12.456Z</time>
      </trkpt>
      <trkpt lat="48.22591" lon="-3.65442">
        <ele>108.313641</ele>
        <time>2022-12-11T13:21:15.457Z</time>
      </trkpt>
      <trkpt lat="48.22599" lon="-3.65434">
        <ele>108.108949</ele>
        <time>2022-12-11T13:21:18.456Z</time>
      </trkpt>
      <trkpt lat="48.22608" lon="-3.65424">
        <ele>107.886564</ele>
        <time>2022-12-11T13:21:21.449Z</time>
      </trkpt>
      <trkpt lat="48.22616" lon="-3.65414">
        <ele>107.66615</ele>
        <time>2022-12-11T13:21:24.453Z</time>
      </trkpt>
      <trkpt lat="48.22623" lon="-3.654">
        <ele>107.426987</ele>
        <time>2022-12-11T13:21:28.479Z</time>
      </trkpt>
      <trkpt lat="48.22629" lon="-3.65389">
        <ele>107.220476</ele>
        <time>2022-12-11T13:21:31.469Z</time>
      </trkpt>
      <trkpt lat="48.22636" lon="-3.65378">
        <ele>107.002506</ele>
        <time>2022-12-11T13:21:34.459Z</time>
      </trkpt>
      <trkpt lat="48.22643" lon="-3.65365">
        <ele>106.771996</ele>
        <time>2022-12-11T13:21:37.458Z</time>
      </trkpt>
      <trkpt lat="48.22649" lon="-3.65353">
        <ele>106.553516</ele>
        <time>2022-12-11T13:21:40.451Z</time>
      </trkpt>
      <trkpt lat="48.22654" lon="-3.6534">
        <ele>106.344225</ele>
        <time>2022-12-11T13:21:43.462Z</time>
      </trkpt>
      <trkpt lat="48.22658" lon="-3.65323">
        <ele>106.098213</ele>
        <time>2022-12-11T13:21:46.491Z</time>
      </trkpt>
      <trkpt lat="48.22663" lon="-3.65306">
        <ele>105.82974</ele>
        <time>2022-12-11T13:21:50.448Z</time>
      </trkpt>
      <trkpt lat="48.22665" lon="-3.65286">
        <ele>105.403639</ele>
        <time>2022-12-11T13:21:53.474Z</time>
      </trkpt>
      <trkpt lat="48.22666" lon="-3.65269">
        <ele>104.826248</ele>
        <time>2022-12-11T13:21:56.475Z</time>
      </trkpt>
      <trkpt lat="48.22666" lon="-3.65253">
        <ele>104.303196</ele>
        <time>2022-12-11T13:21:59.463Z</time>
      </trkpt>
      <trkpt lat="48.22664" lon="-3.65236">
        <ele>103.699159</ele>
        <time>2022-12-11T13:22:02.470Z</time>
      </trkpt>
      <trkpt lat="48.22661" lon="-3.65218">
        <ele>103.098592</ele>
        <time>2022-12-11T13:22:05.448Z</time>
      </trkpt>
      <trkpt lat="48.22659" lon="-3.65202">
        <ele>102.539218</ele>
        <time>2022-12-11T13:22:08.458Z</time>
      </trkpt>
      <trkpt lat="48.22657" lon="-3.65185">
        <ele>101.965565</ele>
        <time>2022-12-11T13:22:11.477Z</time>
      </trkpt>
      <trkpt lat="48.22655" lon="-3.6517">
        <ele>101.472771</ele>
        <time>2022-12-11T13:22:14.464Z</time>
      </trkpt>
      <trkpt lat="48.22656" lon="-3.65157">
        <ele>101.022034</ele>
        <time>2022-12-11T13:22:17.457Z</time>
      </trkpt>
      <trkpt lat="48.22658" lon="-3.65141">
        <ele>100.498363</ele>
        <time>2022-12-11T13:22:20.450Z</time>
      </trkpt>
      <trkpt lat="48.2266" lon="-3.65125">
        <ele>99.963889</ele>
        <time>2022-12-11T13:22:23.460Z</time>
      </trkpt>
      <trkpt lat="48.22664" lon="-3.65111">
        <ele>99.443839</ele>
        <time>2022-12-11T13:22:26.452Z</time>
      </trkpt>
      <trkpt lat="48.22664" lon="-3.65093">
        <ele>98.847332</ele>
        <time>2022-12-11T13:22:30.451Z</time>
      </trkpt>
      <trkpt lat="48.22666" lon="-3.65077">
        <ele>98.29916</ele>
        <time>2022-12-11T13:22:33.465Z</time>
      </trkpt>
      <trkpt lat="48.22666" lon="-3.65061">
        <ele>97.785518</ele>
        <time>2022-12-11T13:22:37.454Z</time>
      </trkpt>
      <trkpt lat="48.22669" lon="-3.65046">
        <ele>97.256103</ele>
        <time>2022-12-11T13:22:40.466Z</time>
      </trkpt>
      <trkpt lat="48.22672" lon="-3.65028">
        <ele>96.725346</ele>
        <time>2022-12-11T13:22:43.454Z</time>
      </trkpt>
      <trkpt lat="48.22673" lon="-3.6501">
        <ele>97.326112</ele>
        <time>2022-12-11T13:22:46.475Z</time>
      </trkpt>
      <trkpt lat="48.22674" lon="-3.6499">
        <ele>98.002591</ele>
        <time>2022-12-11T13:22:49.470Z</time>
      </trkpt>
      <trkpt lat="48.22673" lon="-3.64974">
        <ele>98.531746</ele>
        <time>2022-12-11T13:22:52.462Z</time>
      </trkpt>
      <trkpt lat="48.22672" lon="-3.6496">
        <ele>99.018588</ele>
        <time>2022-12-11T13:22:55.449Z</time>
      </trkpt>
      <trkpt lat="48.22669" lon="-3.64942">
        <ele>99.632998</ele>
        <time>2022-12-11T13:22:58.462Z</time>
      </trkpt>
      <trkpt lat="48.22665" lon="-3.64925">
        <ele>100.269934</ele>
        <time>2022-12-11T13:23:01.457Z</time>
      </trkpt>
      <trkpt lat="48.22661" lon="-3.64906">
        <ele>100.934376</ele>
        <time>2022-12-11T13:23:04.485Z</time>
      </trkpt>
      <trkpt lat="48.22659" lon="-3.64891">
        <ele>101.439679</ele>
        <time>2022-12-11T13:23:06.453Z</time>
      </trkpt>
      <trkpt lat="48.22656" lon="-3.64873">
        <ele>102.071732</ele>
        <time>2022-12-11T13:23:09.454Z</time>
      </trkpt>
      <trkpt lat="48.22653" lon="-3.64855">
        <ele>102.715677</ele>
        <time>2022-12-11T13:23:12.463Z</time>
      </trkpt>
      <trkpt lat="48.2265" lon="-3.64839">
        <ele>103.268194</ele>
        <time>2022-12-11T13:23:15.479Z</time>
      </trkpt>
      <trkpt lat="48.22647" lon="-3.64822">
        <ele>103.842817</ele>
        <time>2022-12-11T13:23:19.476Z</time>
      </trkpt>
      <trkpt lat="48.22646" lon="-3.64806">
        <ele>104.401611</ele>
        <time>2022-12-11T13:23:22.471Z</time>
      </trkpt>
      <trkpt lat="48.22644" lon="-3.64789">
        <ele>104.983773</ele>
        <time>2022-12-11T13:23:25.446Z</time>
      </trkpt>
      <trkpt lat="48.22642" lon="-3.64771">
        <ele>105.587217</ele>
        <time>2022-12-11T13:23:28.479Z</time>
      </trkpt>
      <trkpt lat="48.2264" lon="-3.64754">
        <ele>106.025226</ele>
        <time>2022-12-11T13:23:31.467Z</time>
      </trkpt>
      <trkpt lat="48.22637" lon="-3.64738">
        <ele>106.363703</ele>
        <time>2022-12-11T13:23:34.474Z</time>
      </trkpt>
      <trkpt lat="48.22634" lon="-3.64721">
        <ele>106.710842</ele>
        <time>2022-12-11T13:23:37.448Z</time>
      </trkpt>
      <trkpt lat="48.22633" lon="-3.64705">
        <ele>107.040442</ele>
        <time>2022-12-11T13:23:40.448Z</time>
      </trkpt>
      <trkpt lat="48.22629" lon="-3.64689">
        <ele>107.383858</ele>
        <time>2022-12-11T13:23:43.452Z</time>
      </trkpt>
      <trkpt lat="48.22626" lon="-3.64672">
        <ele>107.740543</ele>
        <time>2022-12-11T13:23:46.451Z</time>
      </trkpt>
      <trkpt lat="48.22622" lon="-3.64657">
        <ele>108.066644</ele>
        <time>2022-12-11T13:23:49.450Z</time>
      </trkpt>
      <trkpt lat="48.2262" lon="-3.64641">
        <ele>108.392027</ele>
        <time>2022-12-11T13:23:52.464Z</time>
      </trkpt>
      <trkpt lat="48.22618" lon="-3.64625">
        <ele>108.728536</ele>
        <time>2022-12-11T13:23:55.455Z</time>
      </trkpt>
      <trkpt lat="48.22616" lon="-3.64608">
        <ele>109.072633</ele>
        <time>2022-12-11T13:23:58.465Z</time>
      </trkpt>
      <trkpt lat="48.22615" lon="-3.64589">
        <ele>109.444149</ele>
        <time>2022-12-11T13:24:01.460Z</time>
      </trkpt>
      <trkpt lat="48.22615" lon="-3.64572">
        <ele>109.789334</ele>
        <time>2022-12-11T13:24:04.452Z</time>
      </trkpt>
      <trkpt lat="48.22613" lon="-3.64558">
        <ele>110.081634</ele>
        <time>2022-12-11T13:24:07.451Z</time>
      </trkpt>
      <trkpt lat="48.22611" lon="-3.64543">
        <ele>110.378421</ele>
        <time>2022-12-11T13:24:10.470Z</time>
      </trkpt>
      <trkpt lat="48.2261" lon="-3.64526">
        <ele>110.730478</ele>
        <time>2022-12-11T13:24:14.459Z</time>
      </trkpt>
      <trkpt lat="48.22609" lon="-3.6451">
        <ele>111.048708</ele>
        <time>2022-12-11T13:24:17.457Z</time>
      </trkpt>
      <trkpt lat="48.22607" lon="-3.64493">
        <ele>111.254096</ele>
        <time>2022-12-11T13:24:20.461Z</time>
      </trkpt>
      <trkpt lat="48.22606" lon="-3.64476">
        <ele>111.266614</ele>
        <time>2022-12-11T13:24:23.476Z</time>
      </trkpt>
      <trkpt lat="48.22603" lon="-3.6446">
        <ele>111.27897</ele>
        <time>2022-12-11T13:24:26.467Z</time>
      </trkpt>
      <trkpt lat="48.22601" lon="-3.64445">
        <ele>111.290966</ele>
        <time>2022-12-11T13:24:29.479Z</time>
      </trkpt>
      <trkpt lat="48.22598" lon="-3.64428">
        <ele>111.303984</ele>
        <time>2022-12-11T13:24:33.469Z</time>
      </trkpt>
      <trkpt lat="48.22596" lon="-3.64414">
        <ele>111.314277</ele>
        <time>2022-12-11T13:24:36.476Z</time>
      </trkpt>
      <trkpt lat="48.22593" lon="-3.644">
        <ele>111.32488</ele>
        <time>2022-12-11T13:24:39.469Z</time>
      </trkpt>
      <trkpt lat="48.22592" lon="-3.64386">
        <ele>111.33552</ele>
        <time>2022-12-11T13:24:42.478Z</time>
      </trkpt>
      <trkpt lat="48.22591" lon="-3.64369">
        <ele>111.348642</ele>
        <time>2022-12-11T13:24:46.470Z</time>
      </trkpt>
      <trkpt lat="48.2259" lon="-3.64354">
        <ele>111.359458</ele>
        <time>2022-12-11T13:24:49.452Z</time>
      </trkpt>
      <trkpt lat="48.22588" lon="-3.64337">
        <ele>111.372605</ele>
        <time>2022-12-11T13:24:53.458Z</time>
      </trkpt>
      <trkpt lat="48.22586" lon="-3.64319">
        <ele>111.38586</ele>
        <time>2022-12-11T13:24:57.453Z</time>
      </trkpt>
      <trkpt lat="48.22585" lon="-3.64306">
        <ele>111.39616</ele>
        <time>2022-12-11T13:25:00.458Z</time>
      </trkpt>
      <trkpt lat="48.22584" lon="-3.64292">
        <ele>111.406544</ele>
        <time>2022-12-11T13:25:03.469Z</time>
      </trkpt>
      <trkpt lat="48.22583" lon="-3.64278">
        <ele>111.416938</ele>
        <time>2022-12-11T13:25:06.463Z</time>
      </trkpt>
      <trkpt lat="48.22582" lon="-3.64264">
        <ele>111.427051</ele>
        <time>2022-12-11T13:25:09.460Z</time>
      </trkpt>
      <trkpt lat="48.2258" lon="-3.64249">
        <ele>111.438847</ele>
        <time>2022-12-11T13:25:13.457Z</time>
      </trkpt>
      <trkpt lat="48.22578" lon="-3.64235">
        <ele>111.44914</ele>
        <time>2022-12-11T13:25:16.471Z</time>
      </trkpt>
      <trkpt lat="48.22576" lon="-3.64222">
        <ele>111.521321</ele>
        <time>2022-12-11T13:25:19.464Z</time>
      </trkpt>
      <trkpt lat="48.22575" lon="-3.64206">
        <ele>111.602539</ele>
        <time>2022-12-11T13:25:22.475Z</time>
      </trkpt>
      <trkpt lat="48.22573" lon="-3.64191">
        <ele>111.683645</ele>
        <time>2022-12-11T13:25:25.476Z</time>
      </trkpt>
      <trkpt lat="48.22571" lon="-3.64176">
        <ele>111.767478</ele>
        <time>2022-12-11T13:25:28.451Z</time>
      </trkpt>
      <trkpt lat="48.22569" lon="-3.6416">
        <ele>111.851577</ele>
        <time>2022-12-11T13:25:31.450Z</time>
      </trkpt>
      <trkpt lat="48.22567" lon="-3.64145">
        <ele>111.93463</ele>
        <time>2022-12-11T13:25:34.476Z</time>
      </trkpt>
      <trkpt lat="48.22565" lon="-3.64131">
        <ele>112.009822</ele>
        <time>2022-12-11T13:25:37.456Z</time>
      </trkpt>
      <trkpt lat="48.22562" lon="-3.64117">
        <ele>112.09096</ele>
        <time>2022-12-11T13:25:41.471Z</time>
      </trkpt>
      <trkpt lat="48.2256" lon="-3.64098">
        <ele>112.189467</ele>
        <time>2022-12-11T13:25:45.451Z</time>
      </trkpt>
      <trkpt lat="48.22556" lon="-3.64082">
        <ele>112.28321</ele>
        <time>2022-12-11T13:25:49.450Z</time>
      </trkpt>
      <trkpt lat="48.22554" lon="-3.64068">
        <ele>112.358802</ele>
        <time>2022-12-11T13:25:52.475Z</time>
      </trkpt>
      <trkpt lat="48.22553" lon="-3.64052">
        <ele>112.444422</ele>
        <time>2022-12-11T13:25:56.468Z</time>
      </trkpt>
      <trkpt lat="48.22551" lon="-3.64037">
        <ele>112.524067</ele>
        <time>2022-12-11T13:25:59.457Z</time>
      </trkpt>
      <trkpt lat="48.2255" lon="-3.64021">
        <ele>112.608632</ele>
        <time>2022-12-11T13:26:02.456Z</time>
      </trkpt>
      <trkpt lat="48.2255" lon="-3.64005">
        <ele>112.691636</ele>
        <time>2022-12-11T13:26:05.471Z</time>
      </trkpt>
      <trkpt lat="48.2255" lon="-3.63988">
        <ele>112.78197</ele>
        <time>2022-12-11T13:26:08.480Z</time>
      </trkpt>
      <trkpt lat="48.22551" lon="-3.63974">
        <ele>112.857076</ele>
        <time>2022-12-11T13:26:11.464Z</time>
      </trkpt>
      <trkpt lat="48.22552" lon="-3.63961">
        <ele>113.079287</ele>
        <time>2022-12-11T13:26:14.466Z</time>
      </trkpt>
      <trkpt lat="48.22554" lon="-3.63945">
        <ele>113.445463</ele>
        <time>2022-12-11T13:26:17.462Z</time>
      </trkpt>
      <trkpt lat="48.22556" lon="-3.63928">
        <ele>113.815528</ele>
        <time>2022-12-11T13:26:20.453Z</time>
      </trkpt>
      <trkpt lat="48.22557" lon="-3.63912">
        <ele>114.183377</ele>
        <time>2022-12-11T13:26:23.465Z</time>
      </trkpt>
      <trkpt lat="48.22559" lon="-3.63896">
        <ele>114.553561</ele>
        <time>2022-12-11T13:26:26.466Z</time>
      </trkpt>
      <trkpt lat="48.22562" lon="-3.6388">
        <ele>114.918609</ele>
        <time>2022-12-11T13:26:29.475Z</time>
      </trkpt>
      <trkpt lat="48.22566" lon="-3.63866">
        <ele>115.268757</ele>
        <time>2022-12-11T13:26:32.470Z</time>
      </trkpt>
      <trkpt lat="48.22569" lon="-3.6385">
        <ele>115.630599</ele>
        <time>2022-12-11T13:26:35.466Z</time>
      </trkpt>
      <trkpt lat="48.22573" lon="-3.63834">
        <ele>116.01425</ele>
        <time>2022-12-11T13:26:38.453Z</time>
      </trkpt>
      <trkpt lat="48.22578" lon="-3.63819">
        <ele>116.408623</ele>
        <time>2022-12-11T13:26:41.450Z</time>
      </trkpt>
      <trkpt lat="48.22583" lon="-3.63804">
        <ele>116.769452</ele>
        <time>2022-12-11T13:26:44.466Z</time>
      </trkpt>
      <trkpt lat="48.22587" lon="-3.63789">
        <ele>117.137073</ele>
        <time>2022-12-11T13:26:47.470Z</time>
      </trkpt>
      <trkpt lat="48.22592" lon="-3.63775">
        <ele>117.480306</ele>
        <time>2022-12-11T13:26:50.453Z</time>
      </trkpt>
      <trkpt lat="48.22598" lon="-3.63762">
        <ele>117.846493</ele>
        <time>2022-12-11T13:26:53.461Z</time>
      </trkpt>
      <trkpt lat="48.22607" lon="-3.6375">
        <ele>118.261803</ele>
        <time>2022-12-11T13:26:56.457Z</time>
      </trkpt>
      <trkpt lat="48.22618" lon="-3.6374">
        <ele>118.668826</ele>
        <time>2022-12-11T13:26:59.453Z</time>
      </trkpt>
      <trkpt lat="48.22629" lon="-3.63735">
        <ele>118.792291</ele>
        <time>2022-12-11T13:27:02.457Z</time>
      </trkpt>
      <trkpt lat="48.22641" lon="-3.63729">
        <ele>118.286154</ele>
        <time>2022-12-11T13:27:05.466Z</time>
      </trkpt>
      <trkpt lat="48.22653" lon="-3.63723">
        <ele>117.794776</ele>
        <time>2022-12-11T13:27:08.464Z</time>
      </trkpt>
      <trkpt lat="48.22662" lon="-3.63716">
        <ele>117.393842</ele>
        <time>2022-12-11T13:27:11.447Z</time>
      </trkpt>
      <trkpt lat="48.22671" lon="-3.6371">
        <ele>116.99013</ele>
        <time>2022-12-11T13:27:14.453Z</time>
      </trkpt>
      <trkpt lat="48.2268" lon="-3.63704">
        <ele>116.591443</ele>
        <time>2022-12-11T13:27:17.453Z</time>
      </trkpt>
      <trkpt lat="48.22689" lon="-3.63695">
        <ele>116.170471</ele>
        <time>2022-12-11T13:27:20.456Z</time>
      </trkpt>
      <trkpt lat="48.22697" lon="-3.63687">
        <ele>115.793873</ele>
        <time>2022-12-11T13:27:23.476Z</time>
      </trkpt>
      <trkpt lat="48.22705" lon="-3.63679">
        <ele>115.404765</ele>
        <time>2022-12-11T13:27:26.462Z</time>
      </trkpt>
      <trkpt lat="48.22715" lon="-3.63671">
        <ele>114.964696</ele>
        <time>2022-12-11T13:27:29.466Z</time>
      </trkpt>
      <trkpt lat="48.22725" lon="-3.63663">
        <ele>114.497406</ele>
        <time>2022-12-11T13:27:32.455Z</time>
      </trkpt>
      <trkpt lat="48.22735" lon="-3.63654">
        <ele>114.036012</ele>
        <time>2022-12-11T13:27:35.470Z</time>
      </trkpt>
      <trkpt lat="48.22745" lon="-3.63645">
        <ele>113.593684</ele>
        <time>2022-12-11T13:27:38.447Z</time>
      </trkpt>
      <trkpt lat="48.22753" lon="-3.63636">
        <ele>113.186625</ele>
        <time>2022-12-11T13:27:41.459Z</time>
      </trkpt>
      <trkpt lat="48.22762" lon="-3.63626">
        <ele>112.742394</ele>
        <time>2022-12-11T13:27:44.453Z</time>
      </trkpt>
      <trkpt lat="48.22771" lon="-3.63616">
        <ele>112.286914</ele>
        <time>2022-12-11T13:27:47.444Z</time>
      </trkpt>
      <trkpt lat="48.2278" lon="-3.63604">
        <ele>111.830899</ele>
        <time>2022-12-11T13:27:50.452Z</time>
      </trkpt>
      <trkpt lat="48.22787" lon="-3.63593">
        <ele>111.749885</ele>
        <time>2022-12-11T13:27:53.476Z</time>
      </trkpt>
      <trkpt lat="48.22797" lon="-3.63581">
        <ele>111.6788</ele>
        <time>2022-12-11T13:27:57.475Z</time>
      </trkpt>
      <trkpt lat="48.22804" lon="-3.63568">
        <ele>111.614758</ele>
        <time>2022-12-11T13:28:00.458Z</time>
      </trkpt>
      <trkpt lat="48.22813" lon="-3.63555">
        <ele>111.546325</ele>
        <time>2022-12-11T13:28:03.470Z</time>
      </trkpt>
      <trkpt lat="48.22821" lon="-3.63543">
        <ele>111.47696</ele>
        <time>2022-12-11T13:28:06.483Z</time>
      </trkpt>
      <trkpt lat="48.22831" lon="-3.6353">
        <ele>111.407554</ele>
        <time>2022-12-11T13:28:09.447Z</time>
      </trkpt>
      <trkpt lat="48.2284" lon="-3.63522">
        <ele>111.346434</ele>
        <time>2022-12-11T13:28:12.452Z</time>
      </trkpt>
      <trkpt lat="48.22848" lon="-3.63515">
        <ele>111.293725</ele>
        <time>2022-12-11T13:28:15.454Z</time>
      </trkpt>
      <trkpt lat="48.22858" lon="-3.63509">
        <ele>111.232605</ele>
        <time>2022-12-11T13:28:18.452Z</time>
      </trkpt>
      <trkpt lat="48.22869" lon="-3.63503">
        <ele>111.169233</ele>
        <time>2022-12-11T13:28:21.482Z</time>
      </trkpt>
      <trkpt lat="48.2288" lon="-3.63499">
        <ele>111.101391</ele>
        <time>2022-12-11T13:28:24.461Z</time>
      </trkpt>
      <trkpt lat="48.22892" lon="-3.63497">
        <ele>111.03469</ele>
        <time>2022-12-11T13:28:27.452Z</time>
      </trkpt>
      <trkpt lat="48.22905" lon="-3.63495">
        <ele>110.962254</ele>
        <time>2022-12-11T13:28:30.472Z</time>
      </trkpt>
      <trkpt lat="48.22916" lon="-3.63492">
        <ele>110.896984</ele>
        <time>2022-12-11T13:28:33.456Z</time>
      </trkpt>
      <trkpt lat="48.22927" lon="-3.63489">
        <ele>110.837509</ele>
        <time>2022-12-11T13:28:36.497Z</time>
      </trkpt>
      <trkpt lat="48.22938" lon="-3.63484">
        <ele>110.798305</ele>
        <time>2022-12-11T13:28:39.453Z</time>
      </trkpt>
      <trkpt lat="48.2295" lon="-3.63479">
        <ele>110.83531</ele>
        <time>2022-12-11T13:28:42.475Z</time>
      </trkpt>
      <trkpt lat="48.22961" lon="-3.63473">
        <ele>110.87226</ele>
        <time>2022-12-11T13:28:45.476Z</time>
      </trkpt>
      <trkpt lat="48.22973" lon="-3.63468">
        <ele>110.908565</ele>
        <time>2022-12-11T13:28:48.473Z</time>
      </trkpt>
      <trkpt lat="48.22984" lon="-3.63463">
        <ele>110.943435</ele>
        <time>2022-12-11T13:28:51.473Z</time>
      </trkpt>
      <trkpt lat="48.22994" lon="-3.63459">
        <ele>110.974918</ele>
        <time>2022-12-11T13:28:54.464Z</time>
      </trkpt>
      <trkpt lat="48.23004" lon="-3.63456">
        <ele>111.005024</ele>
        <time>2022-12-11T13:28:57.459Z</time>
      </trkpt>
      <trkpt lat="48.23015" lon="-3.63453">
        <ele>111.038482</ele>
        <time>2022-12-11T13:29:00.457Z</time>
      </trkpt>
      <trkpt lat="48.23026" lon="-3.63451">
        <ele>111.072383</ele>
        <time>2022-12-11T13:29:03.458Z</time>
      </trkpt>
      <trkpt lat="48.23038" lon="-3.63449">
        <ele>111.108742</ele>
        <time>2022-12-11T13:29:06.468Z</time>
      </trkpt>
      <trkpt lat="48.2305" lon="-3.63446">
        <ele>111.143745</ele>
        <time>2022-12-11T13:29:09.476Z</time>
      </trkpt>
      <trkpt lat="48.23061" lon="-3.63443">
        <ele>111.176999</ele>
        <time>2022-12-11T13:29:12.479Z</time>
      </trkpt>
      <trkpt lat="48.23071" lon="-3.63441">
        <ele>111.20882</ele>
        <time>2022-12-11T13:29:15.458Z</time>
      </trkpt>
      <trkpt lat="48.23082" lon="-3.63439">
        <ele>111.242003</ele>
        <time>2022-12-11T13:29:18.453Z</time>
      </trkpt>
      <trkpt lat="48.23094" lon="-3.63438">
        <ele>111.275742</ele>
        <time>2022-12-11T13:29:21.454Z</time>
      </trkpt>
      <trkpt lat="48.23105" lon="-3.63437">
        <ele>111.310575</ele>
        <time>2022-12-11T13:29:24.458Z</time>
      </trkpt>
      <trkpt lat="48.23117" lon="-3.63435">
        <ele>111.298264</ele>
        <time>2022-12-11T13:29:27.453Z</time>
      </trkpt>
      <trkpt lat="48.23129" lon="-3.63433">
        <ele>111.24116</ele>
        <time>2022-12-11T13:29:30.479Z</time>
      </trkpt>
      <trkpt lat="48.2314" lon="-3.63431">
        <ele>111.19051</ele>
        <time>2022-12-11T13:29:33.457Z</time>
      </trkpt>
      <trkpt lat="48.23151" lon="-3.63429">
        <ele>111.13539</ele>
        <time>2022-12-11T13:29:36.488Z</time>
      </trkpt>
      <trkpt lat="48.23162" lon="-3.63427">
        <ele>111.08412</ele>
        <time>2022-12-11T13:29:39.466Z</time>
      </trkpt>
      <trkpt lat="48.23173" lon="-3.63425">
        <ele>111.030905</ele>
        <time>2022-12-11T13:29:42.451Z</time>
      </trkpt>
      <trkpt lat="48.23184" lon="-3.63423">
        <ele>110.975416</ele>
        <time>2022-12-11T13:29:45.470Z</time>
      </trkpt>
      <trkpt lat="48.23194" lon="-3.6342">
        <ele>110.927069</ele>
        <time>2022-12-11T13:29:48.459Z</time>
      </trkpt>
      <trkpt lat="48.23204" lon="-3.63417">
        <ele>110.879341</ele>
        <time>2022-12-11T13:29:51.452Z</time>
      </trkpt>
      <trkpt lat="48.23215" lon="-3.63411">
        <ele>110.822233</ele>
        <time>2022-12-11T13:29:54.464Z</time>
      </trkpt>
      <trkpt lat="48.23226" lon="-3.63403">
        <ele>110.765126</ele>
        <time>2022-12-11T13:29:57.457Z</time>
      </trkpt>
      <trkpt lat="48.23236" lon="-3.63396">
        <ele>110.711191</ele>
        <time>2022-12-11T13:30:00.454Z</time>
      </trkpt>
      <trkpt lat="48.23246" lon="-3.63389">
        <ele>110.659206</ele>
        <time>2022-12-11T13:30:03.460Z</time>
      </trkpt>
      <trkpt lat="48.23256" lon="-3.63383">
        <ele>110.607404</ele>
        <time>2022-12-11T13:30:06.469Z</time>
      </trkpt>
      <trkpt lat="48.23265" lon="-3.63378">
        <ele>110.559043</ele>
        <time>2022-12-11T13:30:09.452Z</time>
      </trkpt>
      <trkpt lat="48.23276" lon="-3.63371">
        <ele>110.504815</ele>
        <time>2022-12-11T13:30:12.453Z</time>
      </trkpt>
      <trkpt lat="48.23285" lon="-3.63363">
        <ele>110.423078</ele>
        <time>2022-12-11T13:30:15.474Z</time>
      </trkpt>
      <trkpt lat="48.23294" lon="-3.63353">
        <ele>110.22024</ele>
        <time>2022-12-11T13:30:18.475Z</time>
      </trkpt>
      <trkpt lat="48.23302" lon="-3.63342">
        <ele>110.008158</ele>
        <time>2022-12-11T13:30:21.455Z</time>
      </trkpt>
      <trkpt lat="48.2331" lon="-3.63331">
        <ele>109.814745</ele>
        <time>2022-12-11T13:30:24.457Z</time>
      </trkpt>
      <trkpt lat="48.23316" lon="-3.6332">
        <ele>109.64562</ele>
        <time>2022-12-11T13:30:27.452Z</time>
      </trkpt>
      <trkpt lat="48.23321" lon="-3.63305">
        <ele>109.444685</ele>
        <time>2022-12-11T13:30:31.457Z</time>
      </trkpt>
      <trkpt lat="48.23324" lon="-3.63291">
        <ele>109.259683</ele>
        <time>2022-12-11T13:30:34.447Z</time>
      </trkpt>
      <trkpt lat="48.23328" lon="-3.63274">
        <ele>109.04773</ele>
        <time>2022-12-11T13:30:37.452Z</time>
      </trkpt>
      <trkpt lat="48.23333" lon="-3.63258">
        <ele>108.830796</ele>
        <time>2022-12-11T13:30:41.464Z</time>
      </trkpt>
      <trkpt lat="48.23339" lon="-3.63242">
        <ele>108.610416</ele>
        <time>2022-12-11T13:30:44.458Z</time>
      </trkpt>
      <trkpt lat="48.23345" lon="-3.63226">
        <ele>108.385586</ele>
        <time>2022-12-11T13:30:47.453Z</time>
      </trkpt>
      <trkpt lat="48.23353" lon="-3.63212">
        <ele>108.164077</ele>
        <time>2022-12-11T13:30:50.476Z</time>
      </trkpt>
      <trkpt lat="48.23361" lon="-3.63196">
        <ele>107.917016</ele>
        <time>2022-12-11T13:30:53.470Z</time>
      </trkpt>
      <trkpt lat="48.23367" lon="-3.63185">
        <ele>107.74998</ele>
        <time>2022-12-11T13:30:55.474Z</time>
      </trkpt>
      <trkpt lat="48.23374" lon="-3.63171">
        <ele>107.540914</ele>
        <time>2022-12-11T13:30:58.474Z</time>
      </trkpt>
      <trkpt lat="48.23378" lon="-3.6316">
        <ele>107.377173</ele>
        <time>2022-12-11T13:31:01.450Z</time>
      </trkpt>
      <trkpt lat="48.23383" lon="-3.63144">
        <ele>107.219421</ele>
        <time>2022-12-11T13:31:05.451Z</time>
      </trkpt>
      <trkpt lat="48.23388" lon="-3.6313">
        <ele>107.408019</ele>
        <time>2022-12-11T13:31:08.469Z</time>
      </trkpt>
      <trkpt lat="48.23393" lon="-3.63118">
        <ele>107.576334</ele>
        <time>2022-12-11T13:31:11.472Z</time>
      </trkpt>
      <trkpt lat="48.23397" lon="-3.63105">
        <ele>107.745074</ele>
        <time>2022-12-11T13:31:14.452Z</time>
      </trkpt>
      <trkpt lat="48.23402" lon="-3.63089">
        <ele>107.956418</ele>
        <time>2022-12-11T13:31:17.455Z</time>
      </trkpt>
      <trkpt lat="48.23404" lon="-3.63075">
        <ele>108.122435</ele>
        <time>2022-12-11T13:31:20.461Z</time>
      </trkpt>
      <trkpt lat="48.23406" lon="-3.6306">
        <ele>108.304654</ele>
        <time>2022-12-11T13:31:23.473Z</time>
      </trkpt>
      <trkpt lat="48.23409" lon="-3.63043">
        <ele>108.515056</ele>
        <time>2022-12-11T13:31:26.453Z</time>
      </trkpt>
      <trkpt lat="48.23412" lon="-3.63026">
        <ele>108.727142</ele>
        <time>2022-12-11T13:31:29.475Z</time>
      </trkpt>
      <trkpt lat="48.23416" lon="-3.63009">
        <ele>108.939227</ele>
        <time>2022-12-11T13:31:33.454Z</time>
      </trkpt>
      <trkpt lat="48.23421" lon="-3.62992">
        <ele>109.157801</ele>
        <time>2022-12-11T13:31:36.488Z</time>
      </trkpt>
      <trkpt lat="48.23426" lon="-3.62977">
        <ele>109.356986</ele>
        <time>2022-12-11T13:31:40.458Z</time>
      </trkpt>
      <trkpt lat="48.2343" lon="-3.62964">
        <ele>109.530722</ele>
        <time>2022-12-11T13:31:43.457Z</time>
      </trkpt>
      <trkpt lat="48.23436" lon="-3.62946">
        <ele>109.766001</ele>
        <time>2022-12-11T13:31:46.467Z</time>
      </trkpt>
      <trkpt lat="48.23442" lon="-3.62931">
        <ele>109.974924</ele>
        <time>2022-12-11T13:31:48.453Z</time>
      </trkpt>
      <trkpt lat="48.23447" lon="-3.62919">
        <ele>110.141945</ele>
        <time>2022-12-11T13:31:50.448Z</time>
      </trkpt>
      <trkpt lat="48.23452" lon="-3.62907">
        <ele>110.310259</ele>
        <time>2022-12-11T13:31:52.454Z</time>
      </trkpt>
      <trkpt lat="48.23458" lon="-3.62892">
        <ele>110.51757</ele>
        <time>2022-12-11T13:31:55.445Z</time>
      </trkpt>
      <trkpt lat="48.23462" lon="-3.6288">
        <ele>110.687561</ele>
        <time>2022-12-11T13:32:00.455Z</time>
      </trkpt>
      <trkpt lat="48.23467" lon="-3.62868">
        <ele>110.86933</ele>
        <time>2022-12-11T13:32:03.455Z</time>
      </trkpt>
      <trkpt lat="48.23472" lon="-3.62851">
        <ele>111.10325</ele>
        <time>2022-12-11T13:32:06.473Z</time>
      </trkpt>
      <trkpt lat="48.23476" lon="-3.62834">
        <ele>111.327771</ele>
        <time>2022-12-11T13:32:09.468Z</time>
      </trkpt>
      <trkpt lat="48.23479" lon="-3.62819">
        <ele>111.521602</ele>
        <time>2022-12-11T13:32:12.483Z</time>
      </trkpt>
      <trkpt lat="48.23482" lon="-3.62801">
        <ele>111.760781</ele>
        <time>2022-12-11T13:32:15.471Z</time>
      </trkpt>
      <trkpt lat="48.23487" lon="-3.62784">
        <ele>111.992042</ele>
        <time>2022-12-11T13:32:18.455Z</time>
      </trkpt>
      <trkpt lat="48.23491" lon="-3.62768">
        <ele>112.207988</ele>
        <time>2022-12-11T13:32:21.456Z</time>
      </trkpt>
      <trkpt lat="48.23492" lon="-3.62754">
        <ele>112.381509</ele>
        <time>2022-12-11T13:32:24.478Z</time>
      </trkpt>
      <trkpt lat="48.23495" lon="-3.62737">
        <ele>112.593753</ele>
        <time>2022-12-11T13:32:28.452Z</time>
      </trkpt>
      <trkpt lat="48.23496" lon="-3.62723">
        <ele>112.775122</ele>
        <time>2022-12-11T13:32:32.478Z</time>
      </trkpt>
      <trkpt lat="48.23499" lon="-3.62706">
        <ele>113.00199</ele>
        <time>2022-12-11T13:32:36.484Z</time>
      </trkpt>
      <trkpt lat="48.23502" lon="-3.62691">
        <ele>113.189972</ele>
        <time>2022-12-11T13:32:39.450Z</time>
      </trkpt>
      <trkpt lat="48.23506" lon="-3.62677">
        <ele>113.388662</ele>
        <time>2022-12-11T13:32:42.454Z</time>
      </trkpt>
      <trkpt lat="48.23511" lon="-3.62662">
        <ele>113.594602</ele>
        <time>2022-12-11T13:32:45.479Z</time>
      </trkpt>
      <trkpt lat="48.23515" lon="-3.62647">
        <ele>113.809453</ele>
        <time>2022-12-11T13:32:48.468Z</time>
      </trkpt>
      <trkpt lat="48.23518" lon="-3.62633">
        <ele>114.04067</ele>
        <time>2022-12-11T13:32:51.477Z</time>
      </trkpt>
      <trkpt lat="48.23521" lon="-3.62618">
        <ele>114.290617</ele>
        <time>2022-12-11T13:32:54.455Z</time>
      </trkpt>
      <trkpt lat="48.23526" lon="-3.62603">
        <ele>114.560326</ele>
        <time>2022-12-11T13:32:57.475Z</time>
      </trkpt>
      <trkpt lat="48.23532" lon="-3.62586">
        <ele>114.86816</ele>
        <time>2022-12-11T13:33:00.449Z</time>
      </trkpt>
      <trkpt lat="48.23536" lon="-3.62572">
        <ele>115.117487</ele>
        <time>2022-12-11T13:33:03.468Z</time>
      </trkpt>
      <trkpt lat="48.23541" lon="-3.62557">
        <ele>115.38611</ele>
        <time>2022-12-11T13:33:07.472Z</time>
      </trkpt>
      <trkpt lat="48.23545" lon="-3.62539">
        <ele>115.676371</ele>
        <time>2022-12-11T13:33:11.455Z</time>
      </trkpt>
      <trkpt lat="48.23549" lon="-3.62524">
        <ele>115.935478</ele>
        <time>2022-12-11T13:33:14.466Z</time>
      </trkpt>
      <trkpt lat="48.23553" lon="-3.62511">
        <ele>116.170746</ele>
        <time>2022-12-11T13:33:18.470Z</time>
      </trkpt>
      <trkpt lat="48.23557" lon="-3.62494">
        <ele>116.457764</ele>
        <time>2022-12-11T13:33:22.477Z</time>
      </trkpt>
      <trkpt lat="48.23562" lon="-3.62482">
        <ele>116.684857</ele>
        <time>2022-12-11T13:33:25.459Z</time>
      </trkpt>
      <trkpt lat="48.23566" lon="-3.6247">
        <ele>116.905904</ele>
        <time>2022-12-11T13:33:29.470Z</time>
      </trkpt>
      <trkpt lat="48.23572" lon="-3.62456">
        <ele>117.169866</ele>
        <time>2022-12-11T13:33:32.448Z</time>
      </trkpt>
      <trkpt lat="48.23578" lon="-3.62441">
        <ele>117.443652</ele>
        <time>2022-12-11T13:33:35.467Z</time>
      </trkpt>
      <trkpt lat="48.23582" lon="-3.62428">
        <ele>117.680039</ele>
        <time>2022-12-11T13:33:38.467Z</time>
      </trkpt>
      <trkpt lat="48.23588" lon="-3.62415">
        <ele>117.924133</ele>
        <time>2022-12-11T13:33:41.457Z</time>
      </trkpt>
      <trkpt lat="48.23593" lon="-3.624">
        <ele>118.089737</ele>
        <time>2022-12-11T13:33:45.470Z</time>
      </trkpt>
      <trkpt lat="48.23597" lon="-3.62385">
        <ele>118.026272</ele>
        <time>2022-12-11T13:33:49.459Z</time>
      </trkpt>
      <trkpt lat="48.23602" lon="-3.62372">
        <ele>117.971385</ele>
        <time>2022-12-11T13:33:52.450Z</time>
      </trkpt>
      <trkpt lat="48.23605" lon="-3.62358">
        <ele>117.915257</ele>
        <time>2022-12-11T13:33:55.459Z</time>
      </trkpt>
      <trkpt lat="48.23608" lon="-3.62344">
        <ele>117.859733</ele>
        <time>2022-12-11T13:33:58.451Z</time>
      </trkpt>
      <trkpt lat="48.23612" lon="-3.6233">
        <ele>117.802831</ele>
        <time>2022-12-11T13:34:02.468Z</time>
      </trkpt>
      <trkpt lat="48.23617" lon="-3.62315">
        <ele>117.737949</ele>
        <time>2022-12-11T13:34:07.456Z</time>
      </trkpt>
      <trkpt lat="48.23622" lon="-3.623">
        <ele>117.675916</ele>
        <time>2022-12-11T13:34:11.468Z</time>
      </trkpt>
      <trkpt lat="48.23626" lon="-3.62288">
        <ele>117.624341</ele>
        <time>2022-12-11T13:34:14.449Z</time>
      </trkpt>
      <trkpt lat="48.23629" lon="-3.62275">
        <ele>117.572506</ele>
        <time>2022-12-11T13:34:17.476Z</time>
      </trkpt>
      <trkpt lat="48.23633" lon="-3.62261">
        <ele>117.515465</ele>
        <time>2022-12-11T13:34:21.455Z</time>
      </trkpt>
      <trkpt lat="48.23637" lon="-3.62244">
        <ele>117.445688</ele>
        <time>2022-12-11T13:34:25.451Z</time>
      </trkpt>
      <trkpt lat="48.2364" lon="-3.62228">
        <ele>117.381794</ele>
        <time>2022-12-11T13:34:29.473Z</time>
      </trkpt>
      <trkpt lat="48.23643" lon="-3.62213">
        <ele>117.323829</ele>
        <time>2022-12-11T13:34:33.445Z</time>
      </trkpt>
      <trkpt lat="48.23646" lon="-3.62196">
        <ele>117.258747</ele>
        <time>2022-12-11T13:34:37.455Z</time>
      </trkpt>
      <trkpt lat="48.2365" lon="-3.62182">
        <ele>117.198721</ele>
        <time>2022-12-11T13:34:40.474Z</time>
      </trkpt>
      <trkpt lat="48.23652" lon="-3.62165">
        <ele>117.135559</ele>
        <time>2022-12-11T13:34:45.466Z</time>
      </trkpt>
      <trkpt lat="48.23656" lon="-3.62148">
        <ele>117.085185</ele>
        <time>2022-12-11T13:34:49.480Z</time>
      </trkpt>
      <trkpt lat="48.23661" lon="-3.62134">
        <ele>117.081686</ele>
        <time>2022-12-11T13:34:52.467Z</time>
      </trkpt>
      <trkpt lat="48.23665" lon="-3.62121">
        <ele>117.0786</ele>
        <time>2022-12-11T13:34:55.453Z</time>
      </trkpt>
      <trkpt lat="48.23671" lon="-3.62107">
        <ele>117.07507</ele>
        <time>2022-12-11T13:34:59.455Z</time>
      </trkpt>
      <trkpt lat="48.23675" lon="-3.62095">
        <ele>117.072123</ele>
        <time>2022-12-11T13:35:02.452Z</time>
      </trkpt>
      <trkpt lat="48.2368" lon="-3.62083">
        <ele>117.069068</ele>
        <time>2022-12-11T13:35:05.464Z</time>
      </trkpt>
      <trkpt lat="48.23686" lon="-3.62071">
        <ele>117.065996</ele>
        <time>2022-12-11T13:35:08.458Z</time>
      </trkpt>
      <trkpt lat="48.23692" lon="-3.62058">
        <ele>117.062618</ele>
        <time>2022-12-11T13:35:11.459Z</time>
      </trkpt>
      <trkpt lat="48.23697" lon="-3.62044">
        <ele>117.059175</ele>
        <time>2022-12-11T13:35:15.475Z</time>
      </trkpt>
      <trkpt lat="48.23703" lon="-3.62033">
        <ele>117.056078</ele>
        <time>2022-12-11T13:35:18.475Z</time>
      </trkpt>
      <trkpt lat="48.23709" lon="-3.62021">
        <ele>117.052963</ele>
        <time>2022-12-11T13:35:21.461Z</time>
      </trkpt>
      <trkpt lat="48.23715" lon="-3.62009">
        <ele>117.049624</ele>
        <time>2022-12-11T13:35:24.479Z</time>
      </trkpt>
      <trkpt lat="48.23721" lon="-3.61997">
        <ele>117.046446</ele>
        <time>2022-12-11T13:35:27.460Z</time>
      </trkpt>
      <trkpt lat="48.23727" lon="-3.61985">
        <ele>117.043301</ele>
        <time>2022-12-11T13:35:30.462Z</time>
      </trkpt>
      <trkpt lat="48.23733" lon="-3.61974">
        <ele>117.040039</ele>
        <time>2022-12-11T13:35:33.472Z</time>
      </trkpt>
      <trkpt lat="48.23739" lon="-3.61962">
        <ele>117.036935</ele>
        <time>2022-12-11T13:35:36.502Z</time>
      </trkpt>
      <trkpt lat="48.23745" lon="-3.61951">
        <ele>117.033732</ele>
        <time>2022-12-11T13:35:39.496Z</time>
      </trkpt>
      <trkpt lat="48.23751" lon="-3.6194">
        <ele>117.03078</ele>
        <time>2022-12-11T13:35:42.476Z</time>
      </trkpt>
      <trkpt lat="48.23761" lon="-3.61929">
        <ele>116.972616</ele>
        <time>2022-12-11T13:35:46.464Z</time>
      </trkpt>
      <trkpt lat="48.23769" lon="-3.61922">
        <ele>116.848782</ele>
        <time>2022-12-11T13:35:49.465Z</time>
      </trkpt>
      <trkpt lat="48.23777" lon="-3.61917">
        <ele>116.723796</ele>
        <time>2022-12-11T13:35:52.473Z</time>
      </trkpt>
      <trkpt lat="48.23787" lon="-3.61913">
        <ele>116.599754</ele>
        <time>2022-12-11T13:35:55.464Z</time>
      </trkpt>
      <trkpt lat="48.23796" lon="-3.61911">
        <ele>116.470341</ele>
        <time>2022-12-11T13:35:58.481Z</time>
      </trkpt>
      <trkpt lat="48.23807" lon="-3.61907">
        <ele>116.321354</ele>
        <time>2022-12-11T13:36:02.469Z</time>
      </trkpt>
      <trkpt lat="48.23816" lon="-3.61904">
        <ele>116.201045</ele>
        <time>2022-12-11T13:36:06.453Z</time>
      </trkpt>
      <trkpt lat="48.23826" lon="-3.61902">
        <ele>116.071062</ele>
        <time>2022-12-11T13:36:10.461Z</time>
      </trkpt>
      <trkpt lat="48.23838" lon="-3.61899">
        <ele>115.910153</ele>
        <time>2022-12-11T13:36:14.475Z</time>
      </trkpt>
      <trkpt lat="48.23848" lon="-3.61896">
        <ele>115.768012</ele>
        <time>2022-12-11T13:36:18.460Z</time>
      </trkpt>
      <trkpt lat="48.23859" lon="-3.61895">
        <ele>115.624738</ele>
        <time>2022-12-11T13:36:22.459Z</time>
      </trkpt>
      <trkpt lat="48.2387" lon="-3.61896">
        <ele>115.474753</ele>
        <time>2022-12-11T13:36:26.461Z</time>
      </trkpt>
      <trkpt lat="48.2388" lon="-3.619">
        <ele>115.344261</ele>
        <time>2022-12-11T13:36:29.456Z</time>
      </trkpt>
      <trkpt lat="48.23889" lon="-3.61903">
        <ele>115.218509</ele>
        <time>2022-12-11T13:36:32.485Z</time>
      </trkpt>
      <trkpt lat="48.23899" lon="-3.61906">
        <ele>115.085187</ele>
        <time>2022-12-11T13:36:35.460Z</time>
      </trkpt>
      <trkpt lat="48.23909" lon="-3.61908">
        <ele>114.946026</ele>
        <time>2022-12-11T13:36:39.455Z</time>
      </trkpt>
      <trkpt lat="48.23919" lon="-3.61913">
        <ele>114.814838</ele>
        <time>2022-12-11T13:36:43.459Z</time>
      </trkpt>
      <trkpt lat="48.23929" lon="-3.61917">
        <ele>114.680276</ele>
        <time>2022-12-11T13:36:46.465Z</time>
      </trkpt>
      <trkpt lat="48.2394" lon="-3.61919">
        <ele>114.652908</ele>
        <time>2022-12-11T13:36:49.464Z</time>
      </trkpt>
      <trkpt lat="48.23951" lon="-3.61923">
        <ele>114.662344</ele>
        <time>2022-12-11T13:36:52.466Z</time>
      </trkpt>
      <trkpt lat="48.23961" lon="-3.61925">
        <ele>114.670199</ele>
        <time>2022-12-11T13:36:55.474Z</time>
      </trkpt>
      <trkpt lat="48.2397" lon="-3.61928">
        <ele>114.677912</ele>
        <time>2022-12-11T13:36:58.472Z</time>
      </trkpt>
      <trkpt lat="48.23979" lon="-3.61931">
        <ele>114.685603</ele>
        <time>2022-12-11T13:37:01.478Z</time>
      </trkpt>
      <trkpt lat="48.23988" lon="-3.61935">
        <ele>114.694026</ele>
        <time>2022-12-11T13:37:04.474Z</time>
      </trkpt>
      <trkpt lat="48.23999" lon="-3.61938">
        <ele>114.703306</ele>
        <time>2022-12-11T13:37:07.478Z</time>
      </trkpt>
      <trkpt lat="48.2401" lon="-3.61939">
        <ele>114.712038</ele>
        <time>2022-12-11T13:37:10.477Z</time>
      </trkpt>
      <trkpt lat="48.24021" lon="-3.61938">
        <ele>114.721941</ele>
        <time>2022-12-11T13:37:14.448Z</time>
      </trkpt>
      <trkpt lat="48.24032" lon="-3.61938">
        <ele>114.730923</ele>
        <time>2022-12-11T13:37:18.483Z</time>
      </trkpt>
      <trkpt lat="48.24041" lon="-3.61938">
        <ele>114.73856</ele>
        <time>2022-12-11T13:37:21.476Z</time>
      </trkpt>
      <trkpt lat="48.24051" lon="-3.61937">
        <ele>114.746869</ele>
        <time>2022-12-11T13:37:24.458Z</time>
      </trkpt>
      <trkpt lat="48.24063" lon="-3.61935">
        <ele>114.756667</ele>
        <time>2022-12-11T13:37:27.460Z</time>
      </trkpt>
      <trkpt lat="48.24073" lon="-3.61933">
        <ele>114.765157</ele>
        <time>2022-12-11T13:37:30.458Z</time>
      </trkpt>
      <trkpt lat="48.24084" lon="-3.61932">
        <ele>114.774312</ele>
        <time>2022-12-11T13:37:33.468Z</time>
      </trkpt>
      <trkpt lat="48.24094" lon="-3.61932">
        <ele>114.783298</ele>
        <time>2022-12-11T13:37:36.475Z</time>
      </trkpt>
      <trkpt lat="48.24106" lon="-3.61931">
        <ele>114.793139</ele>
        <time>2022-12-11T13:37:39.470Z</time>
      </trkpt>
      <trkpt lat="48.24119" lon="-3.61929">
        <ele>114.875545</ele>
        <time>2022-12-11T13:37:42.468Z</time>
      </trkpt>
      <trkpt lat="48.24129" lon="-3.61928">
        <ele>114.963051</ele>
        <time>2022-12-11T13:37:45.482Z</time>
      </trkpt>
      <trkpt lat="48.2414" lon="-3.61928">
        <ele>115.060603</ele>
        <time>2022-12-11T13:37:48.457Z</time>
      </trkpt>
      <trkpt lat="48.24149" lon="-3.61929">
        <ele>115.142643</ele>
        <time>2022-12-11T13:37:51.478Z</time>
      </trkpt>
      <trkpt lat="48.24161" lon="-3.6193">
        <ele>115.244778</ele>
        <time>2022-12-11T13:37:55.457Z</time>
      </trkpt>
      <trkpt lat="48.24171" lon="-3.61932">
        <ele>115.332646</ele>
        <time>2022-12-11T13:37:58.464Z</time>
      </trkpt>
      <trkpt lat="48.24181" lon="-3.61935">
        <ele>115.42103</ele>
        <time>2022-12-11T13:38:01.475Z</time>
      </trkpt>
      <trkpt lat="48.24192" lon="-3.6194">
        <ele>115.518257</ele>
        <time>2022-12-11T13:38:04.457Z</time>
      </trkpt>
      <trkpt lat="48.24202" lon="-3.61946">
        <ele>115.613034</ele>
        <time>2022-12-11T13:38:07.456Z</time>
      </trkpt>
      <trkpt lat="48.24213" lon="-3.61953">
        <ele>115.70948</ele>
        <time>2022-12-11T13:38:11.473Z</time>
      </trkpt>
      <trkpt lat="48.24222" lon="-3.61958">
        <ele>115.797428</ele>
        <time>2022-12-11T13:38:16.463Z</time>
      </trkpt>
      <trkpt lat="48.24233" lon="-3.61962">
        <ele>115.897438</ele>
        <time>2022-12-11T13:38:21.465Z</time>
      </trkpt>
      <trkpt lat="48.24243" lon="-3.61964">
        <ele>115.980329</ele>
        <time>2022-12-11T13:38:24.457Z</time>
      </trkpt>
      <trkpt lat="48.24253" lon="-3.61965">
        <ele>116.071116</ele>
        <time>2022-12-11T13:38:27.463Z</time>
      </trkpt>
      <trkpt lat="48.24264" lon="-3.61967">
        <ele>116.165052</ele>
        <time>2022-12-11T13:38:30.471Z</time>
      </trkpt>
      <trkpt lat="48.24275" lon="-3.61967">
        <ele>116.258345</ele>
        <time>2022-12-11T13:38:33.471Z</time>
      </trkpt>
      <trkpt lat="48.24285" lon="-3.61966">
        <ele>116.343928</ele>
        <time>2022-12-11T13:38:36.455Z</time>
      </trkpt>
      <trkpt lat="48.24294" lon="-3.61965">
        <ele>116.132497</ele>
        <time>2022-12-11T13:38:39.454Z</time>
      </trkpt>
      <trkpt lat="48.24304" lon="-3.61964">
        <ele>115.883483</ele>
        <time>2022-12-11T13:38:42.468Z</time>
      </trkpt>
      <trkpt lat="48.24315" lon="-3.61965">
        <ele>115.602479</ele>
        <time>2022-12-11T13:38:45.466Z</time>
      </trkpt>
      <trkpt lat="48.24326" lon="-3.61966">
        <ele>115.328763</ele>
        <time>2022-12-11T13:38:48.473Z</time>
      </trkpt>
      <trkpt lat="48.24336" lon="-3.61967">
        <ele>115.089544</ele>
        <time>2022-12-11T13:38:51.454Z</time>
      </trkpt>
      <trkpt lat="48.24347" lon="-3.61968">
        <ele>114.812318</ele>
        <time>2022-12-11T13:38:55.475Z</time>
      </trkpt>
      <trkpt lat="48.24356" lon="-3.6197">
        <ele>114.584472</ele>
        <time>2022-12-11T13:38:58.473Z</time>
      </trkpt>
      <trkpt lat="48.24366" lon="-3.61971">
        <ele>114.340522</ele>
        <time>2022-12-11T13:39:01.478Z</time>
      </trkpt>
      <trkpt lat="48.24376" lon="-3.61973">
        <ele>114.093122</ele>
        <time>2022-12-11T13:39:06.465Z</time>
      </trkpt>
      <trkpt lat="48.24378" lon="-3.61971">
        <ele>114.041438</ele>
        <time>2022-12-11T13:40:25.050Z</time>
      </trkpt>
      <trkpt lat="48.24394" lon="-3.61962">
        <ele>113.608017</ele>
        <time>2022-12-11T13:59:37.470Z</time>
      </trkpt>
      <trkpt lat="48.24405" lon="-3.61963">
        <ele>113.331978</ele>
        <time>2022-12-11T13:59:42.483Z</time>
      </trkpt>
      <trkpt lat="48.24416" lon="-3.61967">
        <ele>113.069219</ele>
        <time>2022-12-11T13:59:46.493Z</time>
      </trkpt>
      <trkpt lat="48.24427" lon="-3.61966">
        <ele>112.793379</ele>
        <time>2022-12-11T13:59:50.459Z</time>
      </trkpt>
      <trkpt lat="48.24437" lon="-3.61967">
        <ele>112.529752</ele>
        <time>2022-12-11T13:59:53.463Z</time>
      </trkpt>
      <trkpt lat="48.24447" lon="-3.61965">
        <ele>112.284442</ele>
        <time>2022-12-11T13:59:56.478Z</time>
      </trkpt>
      <trkpt lat="48.24457" lon="-3.61963">
        <ele>112.046317</ele>
        <time>2022-12-11T13:59:59.460Z</time>
      </trkpt>
      <trkpt lat="48.24467" lon="-3.61961">
        <ele>111.955973</ele>
        <time>2022-12-11T14:00:02.481Z</time>
      </trkpt>
      <trkpt lat="48.24477" lon="-3.61958">
        <ele>112.15055</ele>
        <time>2022-12-11T14:00:05.473Z</time>
      </trkpt>
      <trkpt lat="48.24486" lon="-3.61955">
        <ele>112.33147</ele>
        <time>2022-12-11T14:00:08.472Z</time>
      </trkpt>
      <trkpt lat="48.24495" lon="-3.61952">
        <ele>112.518485</ele>
        <time>2022-12-11T14:00:11.462Z</time>
      </trkpt>
      <trkpt lat="48.24505" lon="-3.61946">
        <ele>112.736251</ele>
        <time>2022-12-11T14:00:14.470Z</time>
      </trkpt>
      <trkpt lat="48.24515" lon="-3.61938">
        <ele>112.960724</ele>
        <time>2022-12-11T14:00:17.458Z</time>
      </trkpt>
      <trkpt lat="48.24525" lon="-3.61927">
        <ele>113.213037</ele>
        <time>2022-12-11T14:00:20.479Z</time>
      </trkpt>
      <trkpt lat="48.24535" lon="-3.61917">
        <ele>113.444026</ele>
        <time>2022-12-11T14:00:23.460Z</time>
      </trkpt>
      <trkpt lat="48.24544" lon="-3.61908">
        <ele>113.658971</ele>
        <time>2022-12-11T14:00:26.485Z</time>
      </trkpt>
      <trkpt lat="48.24553" lon="-3.61899">
        <ele>113.883904</ele>
        <time>2022-12-11T14:00:29.456Z</time>
      </trkpt>
      <trkpt lat="48.24563" lon="-3.61889">
        <ele>114.113407</ele>
        <time>2022-12-11T14:00:32.461Z</time>
      </trkpt>
      <trkpt lat="48.24572" lon="-3.61879">
        <ele>114.339631</ele>
        <time>2022-12-11T14:00:35.475Z</time>
      </trkpt>
      <trkpt lat="48.24581" lon="-3.61869">
        <ele>114.55618</ele>
        <time>2022-12-11T14:00:38.531Z</time>
      </trkpt>
      <trkpt lat="48.24589" lon="-3.6186">
        <ele>114.75924</ele>
        <time>2022-12-11T14:00:41.459Z</time>
      </trkpt>
      <trkpt lat="48.24598" lon="-3.61852">
        <ele>114.962388</ele>
        <time>2022-12-11T14:00:44.463Z</time>
      </trkpt>
      <trkpt lat="48.24606" lon="-3.61842">
        <ele>115.176527</ele>
        <time>2022-12-11T14:00:47.480Z</time>
      </trkpt>
      <trkpt lat="48.24614" lon="-3.61832">
        <ele>115.381676</ele>
        <time>2022-12-11T14:00:50.481Z</time>
      </trkpt>
      <trkpt lat="48.24622" lon="-3.61822">
        <ele>115.531</ele>
        <time>2022-12-11T14:00:53.482Z</time>
      </trkpt>
      <trkpt lat="48.24629" lon="-3.61811">
        <ele>115.658023</ele>
        <time>2022-12-11T14:00:56.469Z</time>
      </trkpt>
      <trkpt lat="48.24636" lon="-3.618">
        <ele>115.783271</ele>
        <time>2022-12-11T14:00:59.483Z</time>
      </trkpt>
      <trkpt lat="48.24644" lon="-3.61788">
        <ele>115.930133</ele>
        <time>2022-12-11T14:01:03.460Z</time>
      </trkpt>
      <trkpt lat="48.24652" lon="-3.61776">
        <ele>116.069006</ele>
        <time>2022-12-11T14:01:07.472Z</time>
      </trkpt>
      <trkpt lat="48.24655" lon="-3.61762">
        <ele>116.191355</ele>
        <time>2022-12-11T14:01:11.463Z</time>
      </trkpt>
      <trkpt lat="48.24648" lon="-3.61752">
        <ele>116.307428</ele>
        <time>2022-12-11T14:01:16.462Z</time>
      </trkpt>
      <trkpt lat="48.24637" lon="-3.61736">
        <ele>116.506104</ele>
        <time>2022-12-11T14:02:08.459Z</time>
      </trkpt>
      <trkpt lat="48.24644" lon="-3.61719">
        <ele>116.667038</ele>
        <time>2022-12-11T14:02:12.458Z</time>
      </trkpt>
      <trkpt lat="48.24652" lon="-3.61708">
        <ele>116.810121</ele>
        <time>2022-12-11T14:02:15.473Z</time>
      </trkpt>
      <trkpt lat="48.24661" lon="-3.61698">
        <ele>116.946877</ele>
        <time>2022-12-11T14:02:18.456Z</time>
      </trkpt>
      <trkpt lat="48.24668" lon="-3.61688">
        <ele>117.065465</ele>
        <time>2022-12-11T14:02:21.463Z</time>
      </trkpt>
      <trkpt lat="48.24676" lon="-3.61678">
        <ele>117.193725</ele>
        <time>2022-12-11T14:02:25.462Z</time>
      </trkpt>
      <trkpt lat="48.24682" lon="-3.61668">
        <ele>117.313072</ele>
        <time>2022-12-11T14:02:30.469Z</time>
      </trkpt>
      <trkpt lat="48.24689" lon="-3.61658">
        <ele>117.433153</ele>
        <time>2022-12-11T14:03:29.457Z</time>
      </trkpt>
      <trkpt lat="48.24694" lon="-3.61645">
        <ele>117.5608</ele>
        <time>2022-12-11T14:03:43.460Z</time>
      </trkpt>
      <trkpt lat="48.24699" lon="-3.6163">
        <ele>117.694168</ele>
        <time>2022-12-11T14:03:48.465Z</time>
      </trkpt>
      <trkpt lat="48.24702" lon="-3.61615">
        <ele>117.629865</ele>
        <time>2022-12-11T14:03:52.475Z</time>
      </trkpt>
      <trkpt lat="48.2471" lon="-3.61602">
        <ele>117.533434</ele>
        <time>2022-12-11T14:03:56.461Z</time>
      </trkpt>
      <trkpt lat="48.24718" lon="-3.6159">
        <ele>117.440838</ele>
        <time>2022-12-11T14:04:00.464Z</time>
      </trkpt>
      <trkpt lat="48.24723" lon="-3.61578">
        <ele>117.360926</ele>
        <time>2022-12-11T14:04:03.469Z</time>
      </trkpt>
      <trkpt lat="48.2473" lon="-3.61564">
        <ele>117.268677</ele>
        <time>2022-12-11T14:04:07.520Z</time>
      </trkpt>
      <trkpt lat="48.24736" lon="-3.61549">
        <ele>117.172968</ele>
        <time>2022-12-11T14:04:11.470Z</time>
      </trkpt>
      <trkpt lat="48.24741" lon="-3.61537">
        <ele>117.096295</ele>
        <time>2022-12-11T14:04:14.457Z</time>
      </trkpt>
      <trkpt lat="48.24746" lon="-3.61523">
        <ele>117.01125</ele>
        <time>2022-12-11T14:04:18.469Z</time>
      </trkpt>
      <trkpt lat="48.24748" lon="-3.61507">
        <ele>116.922758</ele>
        <time>2022-12-11T14:04:22.478Z</time>
      </trkpt>
      <trkpt lat="48.24748" lon="-3.6149">
        <ele>116.829039</ele>
        <time>2022-12-11T14:04:26.456Z</time>
      </trkpt>
      <trkpt lat="48.24747" lon="-3.61476">
        <ele>116.751031</ele>
        <time>2022-12-11T14:04:29.478Z</time>
      </trkpt>
      <trkpt lat="48.24743" lon="-3.61459">
        <ele>116.65851</ele>
        <time>2022-12-11T14:04:33.480Z</time>
      </trkpt>
      <trkpt lat="48.2474" lon="-3.61447">
        <ele>116.583947</ele>
        <time>2022-12-11T14:04:36.465Z</time>
      </trkpt>
      <trkpt lat="48.24736" lon="-3.61431">
        <ele>116.492391</ele>
        <time>2022-12-11T14:04:40.462Z</time>
      </trkpt>
      <trkpt lat="48.24732" lon="-3.61418">
        <ele>116.417034</ele>
        <time>2022-12-11T14:04:43.464Z</time>
      </trkpt>
      <trkpt lat="48.24729" lon="-3.61404">
        <ele>116.338631</ele>
        <time>2022-12-11T14:04:46.458Z</time>
      </trkpt>
      <trkpt lat="48.24725" lon="-3.61389">
        <ele>116.252116</ele>
        <time>2022-12-11T14:04:50.468Z</time>
      </trkpt>
      <trkpt lat="48.24721" lon="-3.61375">
        <ele>116.283402</ele>
        <time>2022-12-11T14:04:54.459Z</time>
      </trkpt>
      <trkpt lat="48.24718" lon="-3.61362">
        <ele>116.320551</ele>
        <time>2022-12-11T14:04:57.454Z</time>
      </trkpt>
      <trkpt lat="48.24714" lon="-3.61346">
        <ele>116.364981</ele>
        <time>2022-12-11T14:05:01.459Z</time>
      </trkpt>
      <trkpt lat="48.2471" lon="-3.61331">
        <ele>116.409253</ele>
        <time>2022-12-11T14:05:05.461Z</time>
      </trkpt>
      <trkpt lat="48.24704" lon="-3.61316">
        <ele>116.45761</ele>
        <time>2022-12-11T14:05:09.468Z</time>
      </trkpt>
      <trkpt lat="48.247" lon="-3.61302">
        <ele>116.49927</ele>
        <time>2022-12-11T14:05:12.470Z</time>
      </trkpt>
      <trkpt lat="48.24695" lon="-3.61286">
        <ele>116.544302</ele>
        <time>2022-12-11T14:05:17.461Z</time>
      </trkpt>
      <trkpt lat="48.2469" lon="-3.61275">
        <ele>116.581932</ele>
        <time>2022-12-11T14:05:21.460Z</time>
      </trkpt>
      <trkpt lat="48.24683" lon="-3.61261">
        <ele>116.627091</ele>
        <time>2022-12-11T14:05:25.462Z</time>
      </trkpt>
      <trkpt lat="48.24677" lon="-3.61248">
        <ele>116.671969</ele>
        <time>2022-12-11T14:05:29.457Z</time>
      </trkpt>
      <trkpt lat="48.24671" lon="-3.61236">
        <ele>116.710962</ele>
        <time>2022-12-11T14:05:33.465Z</time>
      </trkpt>
      <trkpt lat="48.24666" lon="-3.61221">
        <ele>116.756376</ele>
        <time>2022-12-11T14:05:37.474Z</time>
      </trkpt>
      <trkpt lat="48.2466" lon="-3.6121">
        <ele>116.794933</ele>
        <time>2022-12-11T14:05:40.468Z</time>
      </trkpt>
      <trkpt lat="48.24654" lon="-3.61198">
        <ele>116.835038</ele>
        <time>2022-12-11T14:05:43.476Z</time>
      </trkpt>
      <trkpt lat="48.24649" lon="-3.61185">
        <ele>116.874916</ele>
        <time>2022-12-11T14:05:46.464Z</time>
      </trkpt>
      <trkpt lat="48.24642" lon="-3.61173">
        <ele>116.918144</ele>
        <time>2022-12-11T14:05:50.471Z</time>
      </trkpt>
      <trkpt lat="48.24637" lon="-3.61161">
        <ele>116.95781</ele>
        <time>2022-12-11T14:05:54.468Z</time>
      </trkpt>
      <trkpt lat="48.24631" lon="-3.61148">
        <ele>116.934118</ele>
        <time>2022-12-11T14:05:58.458Z</time>
      </trkpt>
      <trkpt lat="48.24625" lon="-3.61136">
        <ele>116.883771</ele>
        <time>2022-12-11T14:06:01.464Z</time>
      </trkpt>
      <trkpt lat="48.24619" lon="-3.61124">
        <ele>116.828376</ele>
        <time>2022-12-11T14:06:05.456Z</time>
      </trkpt>
      <trkpt lat="48.24613" lon="-3.61109">
        <ele>116.766785</ele>
        <time>2022-12-11T14:06:09.461Z</time>
      </trkpt>
      <trkpt lat="48.24608" lon="-3.61096">
        <ele>116.714048</ele>
        <time>2022-12-11T14:06:12.490Z</time>
      </trkpt>
      <trkpt lat="48.24602" lon="-3.61084">
        <ele>116.660771</ele>
        <time>2022-12-11T14:06:15.461Z</time>
      </trkpt>
      <trkpt lat="48.24595" lon="-3.61071">
        <ele>116.602077</ele>
        <time>2022-12-11T14:06:19.470Z</time>
      </trkpt>
      <trkpt lat="48.2459" lon="-3.61056">
        <ele>116.540917</ele>
        <time>2022-12-11T14:06:23.463Z</time>
      </trkpt>
      <trkpt lat="48.24585" lon="-3.61042">
        <ele>116.486674</ele>
        <time>2022-12-11T14:06:27.465Z</time>
      </trkpt>
      <trkpt lat="48.2458" lon="-3.61028">
        <ele>116.428042</ele>
        <time>2022-12-11T14:06:33.462Z</time>
      </trkpt>
      <trkpt lat="48.24572" lon="-3.61014">
        <ele>116.36308</ele>
        <time>2022-12-11T14:06:37.469Z</time>
      </trkpt>
      <trkpt lat="48.24567" lon="-3.61001">
        <ele>116.3095</ele>
        <time>2022-12-11T14:06:41.475Z</time>
      </trkpt>
      <trkpt lat="48.24561" lon="-3.6099">
        <ele>116.259475</ele>
        <time>2022-12-11T14:06:44.477Z</time>
      </trkpt>
      <trkpt lat="48.24555" lon="-3.60977">
        <ele>116.203213</ele>
        <time>2022-12-11T14:06:47.472Z</time>
      </trkpt>
      <trkpt lat="48.24549" lon="-3.60965">
        <ele>116.151087</ele>
        <time>2022-12-11T14:06:50.477Z</time>
      </trkpt>
      <trkpt lat="48.24543" lon="-3.60951">
        <ele>116.088891</ele>
        <time>2022-12-11T14:06:54.479Z</time>
      </trkpt>
      <trkpt lat="48.24537" lon="-3.6094">
        <ele>116.039607</ele>
        <time>2022-12-11T14:06:57.460Z</time>
      </trkpt>
      <trkpt lat="48.24531" lon="-3.60928">
        <ele>116.08865</ele>
        <time>2022-12-11T14:07:00.472Z</time>
      </trkpt>
      <trkpt lat="48.24525" lon="-3.60916">
        <ele>116.264145</ele>
        <time>2022-12-11T14:07:03.457Z</time>
      </trkpt>
      <trkpt lat="48.2452" lon="-3.60906">
        <ele>116.425915</ele>
        <time>2022-12-11T14:07:06.458Z</time>
      </trkpt>
      <trkpt lat="48.24512" lon="-3.60892">
        <ele>116.638659</ele>
        <time>2022-12-11T14:07:10.459Z</time>
      </trkpt>
      <trkpt lat="48.24507" lon="-3.6088">
        <ele>116.806141</ele>
        <time>2022-12-11T14:07:13.479Z</time>
      </trkpt>
      <trkpt lat="48.245" lon="-3.60867">
        <ele>117.000337</ele>
        <time>2022-12-11T14:07:17.465Z</time>
      </trkpt>
      <trkpt lat="48.24494" lon="-3.60852">
        <ele>117.207719</ele>
        <time>2022-12-11T14:07:21.457Z</time>
      </trkpt>
      <trkpt lat="48.24489" lon="-3.60839">
        <ele>117.390851</ele>
        <time>2022-12-11T14:07:24.460Z</time>
      </trkpt>
      <trkpt lat="48.24483" lon="-3.60826">
        <ele>117.568075</ele>
        <time>2022-12-11T14:07:27.477Z</time>
      </trkpt>
      <trkpt lat="48.24477" lon="-3.60813">
        <ele>117.764046</ele>
        <time>2022-12-11T14:07:31.461Z</time>
      </trkpt>
      <trkpt lat="48.24471" lon="-3.60799">
        <ele>117.959009</ele>
        <time>2022-12-11T14:07:35.457Z</time>
      </trkpt>
      <trkpt lat="48.24463" lon="-3.60785">
        <ele>118.168253</ele>
        <time>2022-12-11T14:07:39.461Z</time>
      </trkpt>
      <trkpt lat="48.24458" lon="-3.60774">
        <ele>118.332867</ele>
        <time>2022-12-11T14:07:42.465Z</time>
      </trkpt>
      <trkpt lat="48.24452" lon="-3.60759">
        <ele>118.537829</ele>
        <time>2022-12-11T14:07:46.480Z</time>
      </trkpt>
      <trkpt lat="48.24447" lon="-3.60748">
        <ele>118.700291</ele>
        <time>2022-12-11T14:07:49.465Z</time>
      </trkpt>
      <trkpt lat="48.24441" lon="-3.60735">
        <ele>118.878747</ele>
        <time>2022-12-11T14:07:52.465Z</time>
      </trkpt>
      <trkpt lat="48.24435" lon="-3.60721">
        <ele>119.079633</ele>
        <time>2022-12-11T14:07:55.461Z</time>
      </trkpt>
      <trkpt lat="48.24429" lon="-3.60707">
        <ele>119.211777</ele>
        <time>2022-12-11T14:07:58.465Z</time>
      </trkpt>
      <trkpt lat="48.24423" lon="-3.60696">
        <ele>119.226796</ele>
        <time>2022-12-11T14:08:01.461Z</time>
      </trkpt>
      <trkpt lat="48.24417" lon="-3.60684">
        <ele>119.242187</ele>
        <time>2022-12-11T14:08:04.487Z</time>
      </trkpt>
      <trkpt lat="48.24412" lon="-3.60671">
        <ele>119.257923</ele>
        <time>2022-12-11T14:08:07.456Z</time>
      </trkpt>
      <trkpt lat="48.24406" lon="-3.60658">
        <ele>119.273824</ele>
        <time>2022-12-11T14:08:10.481Z</time>
      </trkpt>
      <trkpt lat="48.244" lon="-3.60646">
        <ele>119.289342</ele>
        <time>2022-12-11T14:08:13.464Z</time>
      </trkpt>
      <trkpt lat="48.24394" lon="-3.60633">
        <ele>119.305681</ele>
        <time>2022-12-11T14:08:16.460Z</time>
      </trkpt>
      <trkpt lat="48.24388" lon="-3.6062">
        <ele>119.322285</ele>
        <time>2022-12-11T14:08:19.457Z</time>
      </trkpt>
      <trkpt lat="48.24381" lon="-3.60607">
        <ele>119.338619</ele>
        <time>2022-12-11T14:08:22.459Z</time>
      </trkpt>
      <trkpt lat="48.24375" lon="-3.60594">
        <ele>119.354719</ele>
        <time>2022-12-11T14:08:25.456Z</time>
      </trkpt>
      <trkpt lat="48.24369" lon="-3.60583">
        <ele>119.369876</ele>
        <time>2022-12-11T14:08:28.467Z</time>
      </trkpt>
      <trkpt lat="48.24363" lon="-3.60572">
        <ele>119.384508</ele>
        <time>2022-12-11T14:08:32.472Z</time>
      </trkpt>
      <trkpt lat="48.24358" lon="-3.60559">
        <ele>119.399639</ele>
        <time>2022-12-11T14:08:36.464Z</time>
      </trkpt>
      <trkpt lat="48.24352" lon="-3.60548">
        <ele>119.414785</ele>
        <time>2022-12-11T14:08:40.457Z</time>
      </trkpt>
      <trkpt lat="48.24346" lon="-3.60534">
        <ele>119.431626</ele>
        <time>2022-12-11T14:08:44.459Z</time>
      </trkpt>
      <trkpt lat="48.24334" lon="-3.60511">
        <ele>119.461445</ele>
        <time>2022-12-11T14:09:49.475Z</time>
      </trkpt>
      <trkpt lat="48.24326" lon="-3.60502">
        <ele>119.477048</ele>
        <time>2022-12-11T14:09:53.460Z</time>
      </trkpt>
      <trkpt lat="48.24319" lon="-3.60493">
        <ele>119.372943</ele>
        <time>2022-12-11T14:09:57.459Z</time>
      </trkpt>
      <trkpt lat="48.24314" lon="-3.60478">
        <ele>119.134535</ele>
        <time>2022-12-11T14:10:01.457Z</time>
      </trkpt>
      <trkpt lat="48.24309" lon="-3.60461">
        <ele>118.871787</ele>
        <time>2022-12-11T14:10:04.460Z</time>
      </trkpt>
      <trkpt lat="48.24304" lon="-3.60448">
        <ele>118.636839</ele>
        <time>2022-12-11T14:10:07.462Z</time>
      </trkpt>
      <trkpt lat="48.24298" lon="-3.60435">
        <ele>118.42144</ele>
        <time>2022-12-11T14:10:10.464Z</time>
      </trkpt>
      <trkpt lat="48.24291" lon="-3.60421">
        <ele>118.166046</ele>
        <time>2022-12-11T14:10:14.471Z</time>
      </trkpt>
      <trkpt lat="48.24286" lon="-3.60409">
        <ele>117.946929</ele>
        <time>2022-12-11T14:10:17.456Z</time>
      </trkpt>
      <trkpt lat="48.2428" lon="-3.60395">
        <ele>117.712167</ele>
        <time>2022-12-11T14:10:20.458Z</time>
      </trkpt>
      <trkpt lat="48.24274" lon="-3.60383">
        <ele>117.491911</ele>
        <time>2022-12-11T14:10:23.460Z</time>
      </trkpt>
      <trkpt lat="48.24268" lon="-3.60371">
        <ele>117.284785</ele>
        <time>2022-12-11T14:10:26.461Z</time>
      </trkpt>
      <trkpt lat="48.24263" lon="-3.60359">
        <ele>117.073008</ele>
        <time>2022-12-11T14:10:29.463Z</time>
      </trkpt>
      <trkpt lat="48.24257" lon="-3.60347">
        <ele>116.856383</ele>
        <time>2022-12-11T14:10:32.464Z</time>
      </trkpt>
      <trkpt lat="48.24252" lon="-3.60335">
        <ele>116.639632</ele>
        <time>2022-12-11T14:10:35.487Z</time>
      </trkpt>
      <trkpt lat="48.24246" lon="-3.60323">
        <ele>116.429069</ele>
        <time>2022-12-11T14:10:38.457Z</time>
      </trkpt>
      <trkpt lat="48.2424" lon="-3.60309">
        <ele>116.183412</ele>
        <time>2022-12-11T14:10:42.458Z</time>
      </trkpt>
      <trkpt lat="48.24234" lon="-3.60297">
        <ele>115.971619</ele>
        <time>2022-12-11T14:10:46.460Z</time>
      </trkpt>
      <trkpt lat="48.24229" lon="-3.60284">
        <ele>115.745297</ele>
        <time>2022-12-11T14:10:50.462Z</time>
      </trkpt>
      <trkpt lat="48.24222" lon="-3.6027">
        <ele>115.616202</ele>
        <time>2022-12-11T14:10:54.466Z</time>
      </trkpt>
      <trkpt lat="48.24216" lon="-3.60259">
        <ele>115.810763</ele>
        <time>2022-12-11T14:10:57.460Z</time>
      </trkpt>
      <trkpt lat="48.2421" lon="-3.60246">
        <ele>116.038533</ele>
        <time>2022-12-11T14:11:00.460Z</time>
      </trkpt>
      <trkpt lat="48.24206" lon="-3.60234">
        <ele>116.244161</ele>
        <time>2022-12-11T14:11:03.487Z</time>
      </trkpt>
      <trkpt lat="48.24204" lon="-3.6022">
        <ele>116.44022</ele>
        <time>2022-12-11T14:11:17.463Z</time>
      </trkpt>
      <trkpt lat="48.2421" lon="-3.60209">
        <ele>116.657802</ele>
        <time>2022-12-11T14:11:27.453Z</time>
      </trkpt>
      <trkpt lat="48.24218" lon="-3.60201">
        <ele>116.862553</ele>
        <time>2022-12-11T14:11:31.473Z</time>
      </trkpt>
      <trkpt lat="48.24218" lon="-3.60185">
        <ele>117.096171</ele>
        <time>2022-12-11T14:11:37.454Z</time>
      </trkpt>
      <trkpt lat="48.24211" lon="-3.60172">
        <ele>117.32267</ele>
        <time>2022-12-11T14:11:39.465Z</time>
      </trkpt>
      <trkpt lat="48.24205" lon="-3.60159">
        <ele>117.557907</ele>
        <time>2022-12-11T14:11:41.463Z</time>
      </trkpt>
      <trkpt lat="48.24199" lon="-3.60147">
        <ele>117.758041</ele>
        <time>2022-12-11T14:11:43.459Z</time>
      </trkpt>
      <trkpt lat="48.24192" lon="-3.60133">
        <ele>118.015885</ele>
        <time>2022-12-11T14:11:46.456Z</time>
      </trkpt>
      <trkpt lat="48.24186" lon="-3.60118">
        <ele>118.264101</ele>
        <time>2022-12-11T14:11:50.455Z</time>
      </trkpt>
      <trkpt lat="48.24182" lon="-3.60106">
        <ele>118.465797</ele>
        <time>2022-12-11T14:11:54.462Z</time>
      </trkpt>
      <trkpt lat="48.24179" lon="-3.60093">
        <ele>118.661322</ele>
        <time>2022-12-11T14:11:58.463Z</time>
      </trkpt>
      <trkpt lat="48.24177" lon="-3.60079">
        <ele>118.866776</ele>
        <time>2022-12-11T14:12:03.473Z</time>
      </trkpt>
      <trkpt lat="48.24179" lon="-3.60063">
        <ele>119.097579</ele>
        <time>2022-12-11T14:12:09.466Z</time>
      </trkpt>
      <trkpt lat="48.2418" lon="-3.60046">
        <ele>119.345907</ele>
        <time>2022-12-11T14:12:15.470Z</time>
      </trkpt>
      <trkpt lat="48.24184" lon="-3.60026">
        <ele>119.355495</ele>
        <time>2022-12-11T14:12:18.468Z</time>
      </trkpt>
      <trkpt lat="48.24187" lon="-3.6001">
        <ele>119.282342</ele>
        <time>2022-12-11T14:12:21.465Z</time>
      </trkpt>
      <trkpt lat="48.24191" lon="-3.59995">
        <ele>119.213063</ele>
        <time>2022-12-11T14:12:24.466Z</time>
      </trkpt>
      <trkpt lat="48.24197" lon="-3.59984">
        <ele>119.148474</ele>
        <time>2022-12-11T14:12:27.493Z</time>
      </trkpt>
      <trkpt lat="48.24204" lon="-3.5997">
        <ele>119.076315</ele>
        <time>2022-12-11T14:12:30.455Z</time>
      </trkpt>
      <trkpt lat="48.24212" lon="-3.59955">
        <ele>118.991551</ele>
        <time>2022-12-11T14:12:33.471Z</time>
      </trkpt>
      <trkpt lat="48.2422" lon="-3.5994">
        <ele>118.906684</ele>
        <time>2022-12-11T14:12:36.462Z</time>
      </trkpt>
      <trkpt lat="48.24228" lon="-3.59925">
        <ele>118.824688</ele>
        <time>2022-12-11T14:12:39.469Z</time>
      </trkpt>
      <trkpt lat="48.24234" lon="-3.59911">
        <ele>118.752529</ele>
        <time>2022-12-11T14:12:42.460Z</time>
      </trkpt>
      <trkpt lat="48.2424" lon="-3.599">
        <ele>118.687941</ele>
        <time>2022-12-11T14:12:45.489Z</time>
      </trkpt>
      <trkpt lat="48.24246" lon="-3.59887">
        <ele>118.623462</ele>
        <time>2022-12-11T14:12:48.466Z</time>
      </trkpt>
      <trkpt lat="48.24253" lon="-3.59874">
        <ele>118.55086</ele>
        <time>2022-12-11T14:12:52.474Z</time>
      </trkpt>
      <trkpt lat="48.24259" lon="-3.59864">
        <ele>118.491654</ele>
        <time>2022-12-11T14:12:55.469Z</time>
      </trkpt>
      <trkpt lat="48.24265" lon="-3.59852">
        <ele>118.426412</ele>
        <time>2022-12-11T14:12:58.461Z</time>
      </trkpt>
      <trkpt lat="48.24271" lon="-3.59839">
        <ele>118.358213</ele>
        <time>2022-12-11T14:13:01.450Z</time>
      </trkpt>
      <trkpt lat="48.24277" lon="-3.59827">
        <ele>118.289561</ele>
        <time>2022-12-11T14:13:04.492Z</time>
      </trkpt>
      <trkpt lat="48.24285" lon="-3.59813">
        <ele>118.31042</ele>
        <time>2022-12-11T14:13:07.468Z</time>
      </trkpt>
      <trkpt lat="48.24292" lon="-3.59799">
        <ele>118.462856</ele>
        <time>2022-12-11T14:13:10.464Z</time>
      </trkpt>
      <trkpt lat="48.24299" lon="-3.59786">
        <ele>118.600911</ele>
        <time>2022-12-11T14:13:13.467Z</time>
      </trkpt>
      <trkpt lat="48.24305" lon="-3.59773">
        <ele>118.734861</ele>
        <time>2022-12-11T14:13:16.465Z</time>
      </trkpt>
      <trkpt lat="48.2431" lon="-3.59761">
        <ele>118.857562</ele>
        <time>2022-12-11T14:13:19.479Z</time>
      </trkpt>
      <trkpt lat="48.24317" lon="-3.59746">
        <ele>119.014601</ele>
        <time>2022-12-11T14:13:23.472Z</time>
      </trkpt>
      <trkpt lat="48.24322" lon="-3.59733">
        <ele>119.133855</ele>
        <time>2022-12-11T14:13:26.458Z</time>
      </trkpt>
      <trkpt lat="48.24326" lon="-3.59721">
        <ele>119.250272</ele>
        <time>2022-12-11T14:13:29.461Z</time>
      </trkpt>
      <trkpt lat="48.24329" lon="-3.59707">
        <ele>119.374803</ele>
        <time>2022-12-11T14:13:32.464Z</time>
      </trkpt>
      <trkpt lat="48.24331" lon="-3.59692">
        <ele>119.507209</ele>
        <time>2022-12-11T14:13:35.462Z</time>
      </trkpt>
      <trkpt lat="48.24332" lon="-3.59676">
        <ele>119.639215</ele>
        <time>2022-12-11T14:13:38.460Z</time>
      </trkpt>
      <trkpt lat="48.24332" lon="-3.59661">
        <ele>119.763137</ele>
        <time>2022-12-11T14:13:41.469Z</time>
      </trkpt>
      <trkpt lat="48.24333" lon="-3.59648">
        <ele>119.880463</ele>
        <time>2022-12-11T14:13:44.466Z</time>
      </trkpt>
      <trkpt lat="48.24334" lon="-3.59634">
        <ele>119.996948</ele>
        <time>2022-12-11T14:13:47.462Z</time>
      </trkpt>
      <trkpt lat="48.24334" lon="-3.59619">
        <ele>120.12118</ele>
        <time>2022-12-11T14:13:50.486Z</time>
      </trkpt>
      <trkpt lat="48.24333" lon="-3.59605">
        <ele>120.238575</ele>
        <time>2022-12-11T14:13:53.463Z</time>
      </trkpt>
      <trkpt lat="48.24333" lon="-3.59592">
        <ele>120.354143</ele>
        <time>2022-12-11T14:13:56.459Z</time>
      </trkpt>
      <trkpt lat="48.24334" lon="-3.59577">
        <ele>120.477904</ele>
        <time>2022-12-11T14:13:59.469Z</time>
      </trkpt>
      <trkpt lat="48.24335" lon="-3.59562">
        <ele>120.530992</ele>
        <time>2022-12-11T14:14:02.468Z</time>
      </trkpt>
      <trkpt lat="48.24337" lon="-3.59545">
        <ele>120.545851</ele>
        <time>2022-12-11T14:14:05.458Z</time>
      </trkpt>
      <trkpt lat="48.24338" lon="-3.5953">
        <ele>120.560225</ele>
        <time>2022-12-11T14:14:08.460Z</time>
      </trkpt>
      <trkpt lat="48.24339" lon="-3.59512">
        <ele>120.575991</ele>
        <time>2022-12-11T14:14:12.463Z</time>
      </trkpt>
      <trkpt lat="48.2434" lon="-3.59498">
        <ele>120.5889</ele>
        <time>2022-12-11T14:14:16.466Z</time>
      </trkpt>
      <trkpt lat="48.24341" lon="-3.59483">
        <ele>120.602596</ele>
        <time>2022-12-11T14:14:20.464Z</time>
      </trkpt>
      <trkpt lat="48.24342" lon="-3.59465">
        <ele>120.618235</ele>
        <time>2022-12-11T14:14:24.474Z</time>
      </trkpt>
      <trkpt lat="48.24344" lon="-3.59452">
        <ele>120.630431</ele>
        <time>2022-12-11T14:14:27.481Z</time>
      </trkpt>
      <trkpt lat="48.24345" lon="-3.59438">
        <ele>120.643381</ele>
        <time>2022-12-11T14:14:30.460Z</time>
      </trkpt>
      <trkpt lat="48.24345" lon="-3.5942">
        <ele>120.659246</ele>
        <time>2022-12-11T14:14:34.462Z</time>
      </trkpt>
      <trkpt lat="48.24346" lon="-3.59405">
        <ele>120.673169</ele>
        <time>2022-12-11T14:14:38.476Z</time>
      </trkpt>
      <trkpt lat="48.24347" lon="-3.59391">
        <ele>120.685507</ele>
        <time>2022-12-11T14:14:41.461Z</time>
      </trkpt>
      <trkpt lat="48.24348" lon="-3.59376">
        <ele>120.69878</ele>
        <time>2022-12-11T14:14:44.459Z</time>
      </trkpt>
      <trkpt lat="48.24347" lon="-3.5936">
        <ele>120.713213</ele>
        <time>2022-12-11T14:14:48.464Z</time>
      </trkpt>
      <trkpt lat="48.24347" lon="-3.59345">
        <ele>120.727183</ele>
        <time>2022-12-11T14:14:52.466Z</time>
      </trkpt>
      <trkpt lat="48.24347" lon="-3.59331">
        <ele>120.73963</ele>
        <time>2022-12-11T14:14:55.461Z</time>
      </trkpt>
      <trkpt lat="48.24348" lon="-3.59316">
        <ele>120.753344</ele>
        <time>2022-12-11T14:14:58.464Z</time>
      </trkpt>
      <trkpt lat="48.2435" lon="-3.59301">
        <ele>120.757386</ele>
        <time>2022-12-11T14:15:01.459Z</time>
      </trkpt>
      <trkpt lat="48.24352" lon="-3.59284">
        <ele>120.696594</ele>
        <time>2022-12-11T14:15:05.459Z</time>
      </trkpt>
      <trkpt lat="48.24353" lon="-3.59267">
        <ele>120.63788</ele>
        <time>2022-12-11T14:15:09.466Z</time>
      </trkpt>
      <trkpt lat="48.24354" lon="-3.59253">
        <ele>120.590988</ele>
        <time>2022-12-11T14:15:12.477Z</time>
      </trkpt>
      <trkpt lat="48.24356" lon="-3.59239">
        <ele>120.541459</ele>
        <time>2022-12-11T14:15:15.461Z</time>
      </trkpt>
      <trkpt lat="48.24358" lon="-3.59225">
        <ele>120.490018</ele>
        <time>2022-12-11T14:15:18.460Z</time>
      </trkpt>
      <trkpt lat="48.24359" lon="-3.59208">
        <ele>120.433557</ele>
        <time>2022-12-11T14:15:21.478Z</time>
      </trkpt>
      <trkpt lat="48.24362" lon="-3.59195">
        <ele>120.386581</ele>
        <time>2022-12-11T14:15:24.477Z</time>
      </trkpt>
      <trkpt lat="48.24366" lon="-3.59182">
        <ele>120.33537</ele>
        <time>2022-12-11T14:15:28.463Z</time>
      </trkpt>
      <trkpt lat="48.24373" lon="-3.59169">
        <ele>120.277698</ele>
        <time>2022-12-11T14:15:32.462Z</time>
      </trkpt>
      <trkpt lat="48.24381" lon="-3.59159">
        <ele>120.222768</ele>
        <time>2022-12-11T14:15:36.458Z</time>
      </trkpt>
      <trkpt lat="48.2439" lon="-3.59151">
        <ele>120.170286</ele>
        <time>2022-12-11T14:15:41.468Z</time>
      </trkpt>
      <trkpt lat="48.24401" lon="-3.59144">
        <ele>120.11178</ele>
        <time>2022-12-11T14:15:45.459Z</time>
      </trkpt>
      <trkpt lat="48.2441" lon="-3.59136">
        <ele>120.054567</ele>
        <time>2022-12-11T14:15:49.461Z</time>
      </trkpt>
      <trkpt lat="48.2442" lon="-3.59133">
        <ele>120.001907</ele>
        <time>2022-12-11T14:15:53.460Z</time>
      </trkpt>
      <trkpt lat="48.24429" lon="-3.59127">
        <ele>119.949161</ele>
        <time>2022-12-11T14:15:59.469Z</time>
      </trkpt>
      <trkpt lat="48.24441" lon="-3.59123">
        <ele>119.887276</ele>
        <time>2022-12-11T14:16:02.461Z</time>
      </trkpt>
      <trkpt lat="48.2445" lon="-3.59123">
        <ele>119.840226</ele>
        <time>2022-12-11T14:16:05.459Z</time>
      </trkpt>
      <trkpt lat="48.2446" lon="-3.59125">
        <ele>119.975058</ele>
        <time>2022-12-11T14:16:09.467Z</time>
      </trkpt>
      <trkpt lat="48.2447" lon="-3.59125">
        <ele>120.133962</ele>
        <time>2022-12-11T14:16:28.459Z</time>
      </trkpt>
      <trkpt lat="48.24479" lon="-3.59124">
        <ele>120.277569</ele>
        <time>2022-12-11T14:16:32.458Z</time>
      </trkpt>
      <trkpt lat="48.24488" lon="-3.59126">
        <ele>120.420532</ele>
        <time>2022-12-11T14:16:35.461Z</time>
      </trkpt>
      <trkpt lat="48.24498" lon="-3.59129">
        <ele>120.582284</ele>
        <time>2022-12-11T14:16:38.469Z</time>
      </trkpt>
      <trkpt lat="48.24509" lon="-3.59131">
        <ele>120.749971</ele>
        <time>2022-12-11T14:16:41.460Z</time>
      </trkpt>
      <trkpt lat="48.24519" lon="-3.59131">
        <ele>120.905699</ele>
        <time>2022-12-11T14:16:45.465Z</time>
      </trkpt>
      <trkpt lat="48.24531" lon="-3.5913">
        <ele>121.093179</ele>
        <time>2022-12-11T14:16:49.485Z</time>
      </trkpt>
      <trkpt lat="48.24542" lon="-3.5913">
        <ele>121.270978</ele>
        <time>2022-12-11T14:16:52.465Z</time>
      </trkpt>
      <trkpt lat="48.24553" lon="-3.59132">
        <ele>121.439602</ele>
        <time>2022-12-11T14:16:55.466Z</time>
      </trkpt>
      <trkpt lat="48.24562" lon="-3.59136">
        <ele>121.586662</ele>
        <time>2022-12-11T14:16:58.459Z</time>
      </trkpt>
      <trkpt lat="48.24571" lon="-3.59134">
        <ele>121.742234</ele>
        <time>2022-12-11T14:17:02.464Z</time>
      </trkpt>
      <trkpt lat="48.24582" lon="-3.59131">
        <ele>121.912309</ele>
        <time>2022-12-11T14:17:06.460Z</time>
      </trkpt>
      <trkpt lat="48.24592" lon="-3.59129">
        <ele>122.070392</ele>
        <time>2022-12-11T14:17:09.484Z</time>
      </trkpt>
      <trkpt lat="48.24601" lon="-3.59127">
        <ele>122.215912</ele>
        <time>2022-12-11T14:17:12.457Z</time>
      </trkpt>
      <trkpt lat="48.24611" lon="-3.59121">
        <ele>122.385269</ele>
        <time>2022-12-11T14:17:16.462Z</time>
      </trkpt>
      <trkpt lat="48.2462" lon="-3.59114">
        <ele>122.537412</ele>
        <time>2022-12-11T14:17:19.465Z</time>
      </trkpt>
      <trkpt lat="48.24627" lon="-3.59107">
        <ele>122.651621</ele>
        <time>2022-12-11T14:17:22.468Z</time>
      </trkpt>
      <trkpt lat="48.24636" lon="-3.59096">
        <ele>122.516289</ele>
        <time>2022-12-11T14:17:26.459Z</time>
      </trkpt>
      <trkpt lat="48.24643" lon="-3.59084">
        <ele>122.392334</ele>
        <time>2022-12-11T14:17:29.455Z</time>
      </trkpt>
      <trkpt lat="48.24649" lon="-3.59074">
        <ele>122.284059</ele>
        <time>2022-12-11T14:17:32.464Z</time>
      </trkpt>
      <trkpt lat="48.24655" lon="-3.5906">
        <ele>122.151296</ele>
        <time>2022-12-11T14:17:36.466Z</time>
      </trkpt>
      <trkpt lat="48.24661" lon="-3.59049">
        <ele>122.039106</ele>
        <time>2022-12-11T14:17:39.459Z</time>
      </trkpt>
      <trkpt lat="48.24664" lon="-3.59034">
        <ele>121.915664</ele>
        <time>2022-12-11T14:17:42.459Z</time>
      </trkpt>
      <trkpt lat="48.24668" lon="-3.59021">
        <ele>121.804653</ele>
        <time>2022-12-11T14:17:45.463Z</time>
      </trkpt>
      <trkpt lat="48.24672" lon="-3.59006">
        <ele>121.669815</ele>
        <time>2022-12-11T14:17:49.462Z</time>
      </trkpt>
      <trkpt lat="48.24672" lon="-3.58991">
        <ele>121.549453</ele>
        <time>2022-12-11T14:17:52.458Z</time>
      </trkpt>
      <trkpt lat="48.24673" lon="-3.58973">
        <ele>121.407552</ele>
        <time>2022-12-11T14:17:56.457Z</time>
      </trkpt>
      <trkpt lat="48.24672" lon="-3.58959">
        <ele>121.29747</ele>
        <time>2022-12-11T14:17:59.458Z</time>
      </trkpt>
      <trkpt lat="48.24672" lon="-3.58944">
        <ele>121.178629</ele>
        <time>2022-12-11T14:18:02.462Z</time>
      </trkpt>
      <trkpt lat="48.24669" lon="-3.58931">
        <ele>121.068175</ele>
        <time>2022-12-11T14:18:05.459Z</time>
      </trkpt>
      <trkpt lat="48.24665" lon="-3.58917">
        <ele>120.948138</ele>
        <time>2022-12-11T14:18:09.463Z</time>
      </trkpt>
      <trkpt lat="48.24661" lon="-3.58904">
        <ele>120.831334</ele>
        <time>2022-12-11T14:18:12.473Z</time>
      </trkpt>
      <trkpt lat="48.24655" lon="-3.5889">
        <ele>120.705301</ele>
        <time>2022-12-11T14:18:15.475Z</time>
      </trkpt>
      <trkpt lat="48.24647" lon="-3.58878">
        <ele>120.564894</ele>
        <time>2022-12-11T14:18:18.463Z</time>
      </trkpt>
      <trkpt lat="48.2464" lon="-3.58867">
        <ele>120.584156</ele>
        <time>2022-12-11T14:18:21.459Z</time>
      </trkpt>
      <trkpt lat="48.24633" lon="-3.58856">
        <ele>120.725098</ele>
        <time>2022-12-11T14:18:24.466Z</time>
      </trkpt>
      <trkpt lat="48.24625" lon="-3.58844">
        <ele>120.868091</ele>
        <time>2022-12-11T14:18:27.470Z</time>
      </trkpt>
      <trkpt lat="48.24618" lon="-3.58833">
        <ele>121.003069</ele>
        <time>2022-12-11T14:18:30.462Z</time>
      </trkpt>
      <trkpt lat="48.2461" lon="-3.58821">
        <ele>121.152595</ele>
        <time>2022-12-11T14:18:33.471Z</time>
      </trkpt>
      <trkpt lat="48.24603" lon="-3.58808">
        <ele>121.293408</ele>
        <time>2022-12-11T14:18:36.460Z</time>
      </trkpt>
      <trkpt lat="48.24597" lon="-3.58799">
        <ele>121.415279</ele>
        <time>2022-12-11T14:18:39.462Z</time>
      </trkpt>
      <trkpt lat="48.24589" lon="-3.58787">
        <ele>121.557639</ele>
        <time>2022-12-11T14:18:43.467Z</time>
      </trkpt>
      <trkpt lat="48.24581" lon="-3.58776">
        <ele>121.705348</ele>
        <time>2022-12-11T14:18:47.461Z</time>
      </trkpt>
      <trkpt lat="48.24573" lon="-3.58762">
        <ele>121.859157</ele>
        <time>2022-12-11T14:18:51.481Z</time>
      </trkpt>
      <trkpt lat="48.24567" lon="-3.58752">
        <ele>121.98506</ele>
        <time>2022-12-11T14:18:54.467Z</time>
      </trkpt>
      <trkpt lat="48.24558" lon="-3.58739">
        <ele>122.144479</ele>
        <time>2022-12-11T14:18:58.467Z</time>
      </trkpt>
      <trkpt lat="48.24552" lon="-3.58728">
        <ele>122.272332</ele>
        <time>2022-12-11T14:19:01.467Z</time>
      </trkpt>
      <trkpt lat="48.24545" lon="-3.58717">
        <ele>122.405441</ele>
        <time>2022-12-11T14:19:04.485Z</time>
      </trkpt>
      <trkpt lat="48.24538" lon="-3.58707">
        <ele>122.528686</ele>
        <time>2022-12-11T14:19:07.492Z</time>
      </trkpt>
      <trkpt lat="48.2453" lon="-3.58697">
        <ele>122.672935</ele>
        <time>2022-12-11T14:19:11.463Z</time>
      </trkpt>
      <trkpt lat="48.2452" lon="-3.58691">
        <ele>122.807152</ele>
        <time>2022-12-11T14:19:15.469Z</time>
      </trkpt>
      <trkpt lat="48.2451" lon="-3.58685">
        <ele>122.81325</ele>
        <time>2022-12-11T14:19:20.459Z</time>
      </trkpt>
      <trkpt lat="48.24502" lon="-3.58672">
        <ele>122.665827</ele>
        <time>2022-12-11T14:19:24.486Z</time>
      </trkpt>
      <trkpt lat="48.24497" lon="-3.58659">
        <ele>122.54129</ele>
        <time>2022-12-11T14:19:27.464Z</time>
      </trkpt>
      <trkpt lat="48.24493" lon="-3.58642">
        <ele>122.391118</ele>
        <time>2022-12-11T14:19:31.461Z</time>
      </trkpt>
      <trkpt lat="48.2449" lon="-3.58629">
        <ele>122.27071</ele>
        <time>2022-12-11T14:19:34.463Z</time>
      </trkpt>
      <trkpt lat="48.24486" lon="-3.58615">
        <ele>122.143269</ele>
        <time>2022-12-11T14:19:37.461Z</time>
      </trkpt>
      <trkpt lat="48.24482" lon="-3.586">
        <ele>122.009788</ele>
        <time>2022-12-11T14:19:40.473Z</time>
      </trkpt>
      <trkpt lat="48.24481" lon="-3.58584">
        <ele>121.876161</ele>
        <time>2022-12-11T14:19:43.466Z</time>
      </trkpt>
      <trkpt lat="48.2448" lon="-3.58567">
        <ele>121.732358</ele>
        <time>2022-12-11T14:19:46.461Z</time>
      </trkpt>
      <trkpt lat="48.24481" lon="-3.58551">
        <ele>121.598184</ele>
        <time>2022-12-11T14:19:49.458Z</time>
      </trkpt>
      <trkpt lat="48.24483" lon="-3.58536">
        <ele>121.472341</ele>
        <time>2022-12-11T14:19:52.476Z</time>
      </trkpt>
      <trkpt lat="48.24487" lon="-3.58522">
        <ele>121.346263</ele>
        <time>2022-12-11T14:19:55.462Z</time>
      </trkpt>
      <trkpt lat="48.24492" lon="-3.58506">
        <ele>121.204158</ele>
        <time>2022-12-11T14:19:58.465Z</time>
      </trkpt>
      <trkpt lat="48.24498" lon="-3.58492">
        <ele>121.057519</ele>
        <time>2022-12-11T14:20:01.471Z</time>
      </trkpt>
      <trkpt lat="48.24507" lon="-3.58479">
        <ele>120.909229</ele>
        <time>2022-12-11T14:20:04.470Z</time>
      </trkpt>
      <trkpt lat="48.24516" lon="-3.58468">
        <ele>120.755832</ele>
        <time>2022-12-11T14:20:07.463Z</time>
      </trkpt>
      <trkpt lat="48.24526" lon="-3.58459">
        <ele>120.614776</ele>
        <time>2022-12-11T14:20:10.480Z</time>
      </trkpt>
      <trkpt lat="48.24535" lon="-3.5845">
        <ele>120.491777</ele>
        <time>2022-12-11T14:20:13.460Z</time>
      </trkpt>
      <trkpt lat="48.24543" lon="-3.58441">
        <ele>120.378344</ele>
        <time>2022-12-11T14:20:16.473Z</time>
      </trkpt>
      <trkpt lat="48.24554" lon="-3.58432">
        <ele>120.239077</ele>
        <time>2022-12-11T14:20:19.462Z</time>
      </trkpt>
      <trkpt lat="48.24562" lon="-3.58424">
        <ele>120.124798</ele>
        <time>2022-12-11T14:20:22.463Z</time>
      </trkpt>
      <trkpt lat="48.24572" lon="-3.58416">
        <ele>119.999004</ele>
        <time>2022-12-11T14:20:25.470Z</time>
      </trkpt>
      <trkpt lat="48.24583" lon="-3.58408">
        <ele>119.8549</ele>
        <time>2022-12-11T14:20:28.463Z</time>
      </trkpt>
      <trkpt lat="48.24594" lon="-3.584">
        <ele>119.718515</ele>
        <time>2022-12-11T14:20:31.473Z</time>
      </trkpt>
      <trkpt lat="48.24603" lon="-3.58393">
        <ele>119.599498</ele>
        <time>2022-12-11T14:20:34.458Z</time>
      </trkpt>
      <trkpt lat="48.24611" lon="-3.58385">
        <ele>119.49668</ele>
        <time>2022-12-11T14:20:37.463Z</time>
      </trkpt>
      <trkpt lat="48.24619" lon="-3.58375">
        <ele>119.374318</ele>
        <time>2022-12-11T14:20:41.462Z</time>
      </trkpt>
      <trkpt lat="48.24628" lon="-3.58368">
        <ele>119.259591</ele>
        <time>2022-12-11T14:20:44.462Z</time>
      </trkpt>
      <trkpt lat="48.24638" lon="-3.58363">
        <ele>119.141484</ele>
        <time>2022-12-11T14:20:47.471Z</time>
      </trkpt>
      <trkpt lat="48.24648" lon="-3.58355">
        <ele>119.008517</ele>
        <time>2022-12-11T14:20:51.477Z</time>
      </trkpt>
      <trkpt lat="48.24657" lon="-3.58348">
        <ele>118.896882</ele>
        <time>2022-12-11T14:20:54.466Z</time>
      </trkpt>
      <trkpt lat="48.24666" lon="-3.5834">
        <ele>118.777805</ele>
        <time>2022-12-11T14:20:57.479Z</time>
      </trkpt>
      <trkpt lat="48.24675" lon="-3.58333">
        <ele>118.661567</ele>
        <time>2022-12-11T14:21:00.459Z</time>
      </trkpt>
      <trkpt lat="48.24683" lon="-3.58326">
        <ele>118.647208</ele>
        <time>2022-12-11T14:21:03.477Z</time>
      </trkpt>
      <trkpt lat="48.24693" lon="-3.58317">
        <ele>119.050774</ele>
        <time>2022-12-11T14:21:07.464Z</time>
      </trkpt>
      <trkpt lat="48.24703" lon="-3.58307">
        <ele>119.445933</ele>
        <time>2022-12-11T14:21:11.476Z</time>
      </trkpt>
      <trkpt lat="48.24712" lon="-3.58298">
        <ele>119.815331</ele>
        <time>2022-12-11T14:21:15.476Z</time>
      </trkpt>
      <trkpt lat="48.24721" lon="-3.58289">
        <ele>120.198229</ele>
        <time>2022-12-11T14:21:19.479Z</time>
      </trkpt>
      <trkpt lat="48.24731" lon="-3.5828">
        <ele>120.583712</ele>
        <time>2022-12-11T14:21:23.470Z</time>
      </trkpt>
      <trkpt lat="48.2474" lon="-3.58275">
        <ele>120.901413</ele>
        <time>2022-12-11T14:21:26.472Z</time>
      </trkpt>
      <trkpt lat="48.24749" lon="-3.58269">
        <ele>121.232962</ele>
        <time>2022-12-11T14:21:29.478Z</time>
      </trkpt>
      <trkpt lat="48.24758" lon="-3.58259">
        <ele>121.613024</ele>
        <time>2022-12-11T14:21:33.469Z</time>
      </trkpt>
      <trkpt lat="48.24768" lon="-3.5825">
        <ele>122.021291</ele>
        <time>2022-12-11T14:21:37.464Z</time>
      </trkpt>
      <trkpt lat="48.24776" lon="-3.58241">
        <ele>122.343625</ele>
        <time>2022-12-11T14:21:40.459Z</time>
      </trkpt>
      <trkpt lat="48.24783" lon="-3.58232">
        <ele>122.667614</ele>
        <time>2022-12-11T14:21:43.458Z</time>
      </trkpt>
      <trkpt lat="48.2479" lon="-3.58218">
        <ele>123.047722</ele>
        <time>2022-12-11T14:21:47.464Z</time>
      </trkpt>
      <trkpt lat="48.24795" lon="-3.58205">
        <ele>123.394777</ele>
        <time>2022-12-11T14:21:51.504Z</time>
      </trkpt>
      <trkpt lat="48.248" lon="-3.58193">
        <ele>123.714031</ele>
        <time>2022-12-11T14:21:54.462Z</time>
      </trkpt>
      <trkpt lat="48.24804" lon="-3.5818">
        <ele>124.04875</ele>
        <time>2022-12-11T14:21:57.460Z</time>
      </trkpt>
      <trkpt lat="48.24808" lon="-3.58166">
        <ele>124.389417</ele>
        <time>2022-12-11T14:22:00.473Z</time>
      </trkpt>
      <trkpt lat="48.24811" lon="-3.58153">
        <ele>124.693869</ele>
        <time>2022-12-11T14:22:03.463Z</time>
      </trkpt>
      <trkpt lat="48.24813" lon="-3.58137">
        <ele>124.371663</ele>
        <time>2022-12-11T14:22:08.462Z</time>
      </trkpt>
      <trkpt lat="48.24815" lon="-3.58122">
        <ele>124.080091</ele>
        <time>2022-12-11T14:22:12.461Z</time>
      </trkpt>
      <trkpt lat="48.24815" lon="-3.58108">
        <ele>123.793651</ele>
        <time>2022-12-11T14:22:17.475Z</time>
      </trkpt>
      <trkpt lat="48.24816" lon="-3.58093">
        <ele>123.501336</ele>
        <time>2022-12-11T14:22:22.463Z</time>
      </trkpt>
      <trkpt lat="48.24818" lon="-3.58078">
        <ele>123.217464</ele>
        <time>2022-12-11T14:22:27.461Z</time>
      </trkpt>
      <trkpt lat="48.2482" lon="-3.58064">
        <ele>122.926359</ele>
        <time>2022-12-11T14:22:32.468Z</time>
      </trkpt>
      <trkpt lat="48.24822" lon="-3.5805">
        <ele>122.648082</ele>
        <time>2022-12-11T14:22:37.463Z</time>
      </trkpt>
      <trkpt lat="48.24823" lon="-3.58035">
        <ele>122.36421</ele>
        <time>2022-12-11T14:22:43.466Z</time>
      </trkpt>
      <trkpt lat="48.24824" lon="-3.58019">
        <ele>122.048027</ele>
        <time>2022-12-11T14:22:49.464Z</time>
      </trkpt>
      <trkpt lat="48.24825" lon="-3.58004">
        <ele>121.748305</ele>
        <time>2022-12-11T14:22:52.471Z</time>
      </trkpt>
      <trkpt lat="48.24827" lon="-3.57988">
        <ele>121.429334</ele>
        <time>2022-12-11T14:22:54.475Z</time>
      </trkpt>
      <trkpt lat="48.24827" lon="-3.57972">
        <ele>121.126939</ele>
        <time>2022-12-11T14:22:56.465Z</time>
      </trkpt>
      <trkpt lat="48.24828" lon="-3.57955">
        <ele>120.796736</ele>
        <time>2022-12-11T14:22:59.469Z</time>
      </trkpt>
      <trkpt lat="48.2483" lon="-3.57931">
        <ele>120.317923</ele>
        <time>2022-12-11T14:23:01.473Z</time>
      </trkpt>
      <trkpt lat="48.2483" lon="-3.57914">
        <ele>119.988654</ele>
        <time>2022-12-11T14:23:04.465Z</time>
      </trkpt>
      <trkpt lat="48.24832" lon="-3.57898">
        <ele>119.680144</ele>
        <time>2022-12-11T14:23:07.464Z</time>
      </trkpt>
      <trkpt lat="48.24833" lon="-3.57881">
        <ele>119.432577</ele>
        <time>2022-12-11T14:23:11.461Z</time>
      </trkpt>
      <trkpt lat="48.24835" lon="-3.57865">
        <ele>119.42138</ele>
        <time>2022-12-11T14:23:15.462Z</time>
      </trkpt>
      <trkpt lat="48.24836" lon="-3.57851">
        <ele>119.411704</ele>
        <time>2022-12-11T14:23:18.467Z</time>
      </trkpt>
      <trkpt lat="48.24837" lon="-3.57836">
        <ele>119.401243</ele>
        <time>2022-12-11T14:23:21.478Z</time>
      </trkpt>
      <trkpt lat="48.24838" lon="-3.5782">
        <ele>119.390039</ele>
        <time>2022-12-11T14:23:24.468Z</time>
      </trkpt>
      <trkpt lat="48.24839" lon="-3.57805">
        <ele>119.379396</ele>
        <time>2022-12-11T14:23:27.463Z</time>
      </trkpt>
      <trkpt lat="48.2484" lon="-3.57787">
        <ele>119.366737</ele>
        <time>2022-12-11T14:23:31.461Z</time>
      </trkpt>
      <trkpt lat="48.24841" lon="-3.57772">
        <ele>119.356056</ele>
        <time>2022-12-11T14:23:34.463Z</time>
      </trkpt>
      <trkpt lat="48.24843" lon="-3.57756">
        <ele>119.344669</ele>
        <time>2022-12-11T14:23:37.461Z</time>
      </trkpt>
      <trkpt lat="48.24844" lon="-3.57741">
        <ele>119.333866</ele>
        <time>2022-12-11T14:23:40.467Z</time>
      </trkpt>
      <trkpt lat="48.24846" lon="-3.57726">
        <ele>119.323562</ele>
        <time>2022-12-11T14:23:43.472Z</time>
      </trkpt>
      <trkpt lat="48.24847" lon="-3.57708">
        <ele>119.31096</ele>
        <time>2022-12-11T14:23:47.465Z</time>
      </trkpt>
      <trkpt lat="48.24849" lon="-3.57693">
        <ele>119.300033</ele>
        <time>2022-12-11T14:23:50.464Z</time>
      </trkpt>
      <trkpt lat="48.2485" lon="-3.57678">
        <ele>119.289335</ele>
        <time>2022-12-11T14:23:53.465Z</time>
      </trkpt>
      <trkpt lat="48.24852" lon="-3.57663">
        <ele>119.279377</ele>
        <time>2022-12-11T14:23:56.470Z</time>
      </trkpt>
      <trkpt lat="48.24853" lon="-3.57646">
        <ele>119.267052</ele>
        <time>2022-12-11T14:24:00.465Z</time>
      </trkpt>
      <trkpt lat="48.24854" lon="-3.57631">
        <ele>119.256788</ele>
        <time>2022-12-11T14:24:03.472Z</time>
      </trkpt>
      <trkpt lat="48.24856" lon="-3.57616">
        <ele>119.272973</ele>
        <time>2022-12-11T14:24:06.461Z</time>
      </trkpt>
      <trkpt lat="48.24858" lon="-3.57602">
        <ele>119.499208</ele>
        <time>2022-12-11T14:24:09.460Z</time>
      </trkpt>
      <trkpt lat="48.24859" lon="-3.57588">
        <ele>119.711661</ele>
        <time>2022-12-11T14:24:12.467Z</time>
      </trkpt>
      <trkpt lat="48.2486" lon="-3.5757">
        <ele>119.986722</ele>
        <time>2022-12-11T14:24:16.469Z</time>
      </trkpt>
      <trkpt lat="48.24862" lon="-3.57555">
        <ele>120.210242</ele>
        <time>2022-12-11T14:24:19.466Z</time>
      </trkpt>
      <trkpt lat="48.24863" lon="-3.57541">
        <ele>120.433833</ele>
        <time>2022-12-11T14:24:22.470Z</time>
      </trkpt>
      <trkpt lat="48.24865" lon="-3.57523">
        <ele>120.700457</ele>
        <time>2022-12-11T14:24:26.459Z</time>
      </trkpt>
      <trkpt lat="48.24865" lon="-3.57506">
        <ele>120.957641</ele>
        <time>2022-12-11T14:24:30.469Z</time>
      </trkpt>
      <trkpt lat="48.24866" lon="-3.57493">
        <ele>121.164278</ele>
        <time>2022-12-11T14:24:33.459Z</time>
      </trkpt>
      <trkpt lat="48.24867" lon="-3.57479">
        <ele>121.385343</ele>
        <time>2022-12-11T14:24:36.463Z</time>
      </trkpt>
      <trkpt lat="48.24869" lon="-3.57462">
        <ele>121.639337</ele>
        <time>2022-12-11T14:24:40.462Z</time>
      </trkpt>
      <trkpt lat="48.2487" lon="-3.57446">
        <ele>121.887847</ele>
        <time>2022-12-11T14:24:44.465Z</time>
      </trkpt>
      <trkpt lat="48.24872" lon="-3.5743">
        <ele>122.134849</ele>
        <time>2022-12-11T14:24:48.462Z</time>
      </trkpt>
      <trkpt lat="48.24873" lon="-3.57414">
        <ele>122.382157</ele>
        <time>2022-12-11T14:24:52.465Z</time>
      </trkpt>
      <trkpt lat="48.24875" lon="-3.57397">
        <ele>122.640328</ele>
        <time>2022-12-11T14:24:56.464Z</time>
      </trkpt>
      <trkpt lat="48.24876" lon="-3.57379">
        <ele>122.907538</ele>
        <time>2022-12-11T14:25:00.462Z</time>
      </trkpt>
      <trkpt lat="48.24877" lon="-3.57366">
        <ele>123.11746</ele>
        <time>2022-12-11T14:25:03.459Z</time>
      </trkpt>
      <trkpt lat="48.24879" lon="-3.57351">
        <ele>123.345515</ele>
        <time>2022-12-11T14:25:06.460Z</time>
      </trkpt>
      <trkpt lat="48.24879" lon="-3.57336">
        <ele>123.337196</ele>
        <time>2022-12-11T14:25:09.463Z</time>
      </trkpt>
      <trkpt lat="48.2488" lon="-3.57322">
        <ele>123.318547</ele>
        <time>2022-12-11T14:25:12.465Z</time>
      </trkpt>
      <trkpt lat="48.24882" lon="-3.57304">
        <ele>123.295287</ele>
        <time>2022-12-11T14:25:16.465Z</time>
      </trkpt>
      <trkpt lat="48.24884" lon="-3.5729">
        <ele>123.275923</ele>
        <time>2022-12-11T14:25:19.467Z</time>
      </trkpt>
      <trkpt lat="48.24885" lon="-3.57276">
        <ele>123.257358</ele>
        <time>2022-12-11T14:25:22.471Z</time>
      </trkpt>
      <trkpt lat="48.24885" lon="-3.57261">
        <ele>123.238393</ele>
        <time>2022-12-11T14:25:25.462Z</time>
      </trkpt>
      <trkpt lat="48.24887" lon="-3.57248">
        <ele>123.220415</ele>
        <time>2022-12-11T14:25:28.461Z</time>
      </trkpt>
      <trkpt lat="48.24889" lon="-3.57234">
        <ele>123.202136</ele>
        <time>2022-12-11T14:25:31.466Z</time>
      </trkpt>
      <trkpt lat="48.2489" lon="-3.5722">
        <ele>123.182805</ele>
        <time>2022-12-11T14:25:34.469Z</time>
      </trkpt>
      <trkpt lat="48.24891" lon="-3.57205">
        <ele>123.163041</ele>
        <time>2022-12-11T14:25:38.466Z</time>
      </trkpt>
      <trkpt lat="48.24893" lon="-3.57188">
        <ele>123.140818</ele>
        <time>2022-12-11T14:25:42.466Z</time>
      </trkpt>
      <trkpt lat="48.24895" lon="-3.57173">
        <ele>123.120865</ele>
        <time>2022-12-11T14:25:45.467Z</time>
      </trkpt>
      <trkpt lat="48.24896" lon="-3.57158">
        <ele>123.100865</ele>
        <time>2022-12-11T14:25:48.470Z</time>
      </trkpt>
      <trkpt lat="48.24897" lon="-3.57143">
        <ele>123.080122</ele>
        <time>2022-12-11T14:25:51.461Z</time>
      </trkpt>
      <trkpt lat="48.24899" lon="-3.57128">
        <ele>123.061009</ele>
        <time>2022-12-11T14:25:54.462Z</time>
      </trkpt>
      <trkpt lat="48.24901" lon="-3.5711">
        <ele>123.037363</ele>
        <time>2022-12-11T14:25:58.459Z</time>
      </trkpt>
      <trkpt lat="48.24902" lon="-3.57096">
        <ele>123.018292</ele>
        <time>2022-12-11T14:26:01.477Z</time>
      </trkpt>
      <trkpt lat="48.24905" lon="-3.57082">
        <ele>122.999997</ele>
        <time>2022-12-11T14:26:04.464Z</time>
      </trkpt>
      <trkpt lat="48.2491" lon="-3.57069">
        <ele>122.991661</ele>
        <time>2022-12-11T14:26:07.484Z</time>
      </trkpt>
      <trkpt lat="48.24915" lon="-3.57056">
        <ele>122.982998</ele>
        <time>2022-12-11T14:26:10.463Z</time>
      </trkpt>
      <trkpt lat="48.24922" lon="-3.57045">
        <ele>122.974822</ele>
        <time>2022-12-11T14:26:13.466Z</time>
      </trkpt>
      <trkpt lat="48.24928" lon="-3.57035">
        <ele>122.966871</ele>
        <time>2022-12-11T14:26:16.464Z</time>
      </trkpt>
      <trkpt lat="48.24936" lon="-3.57025">
        <ele>122.95827</ele>
        <time>2022-12-11T14:26:19.475Z</time>
      </trkpt>
      <trkpt lat="48.24944" lon="-3.57016">
        <ele>122.949576</ele>
        <time>2022-12-11T14:26:22.494Z</time>
      </trkpt>
      <trkpt lat="48.24952" lon="-3.57007">
        <ele>122.940914</ele>
        <time>2022-12-11T14:26:25.464Z</time>
      </trkpt>
      <trkpt lat="48.24961" lon="-3.56998">
        <ele>122.932221</ele>
        <time>2022-12-11T14:26:28.467Z</time>
      </trkpt>
      <trkpt lat="48.24967" lon="-3.56988">
        <ele>122.924552</ele>
        <time>2022-12-11T14:26:31.459Z</time>
      </trkpt>
      <trkpt lat="48.24976" lon="-3.56979">
        <ele>122.91489</ele>
        <time>2022-12-11T14:26:35.465Z</time>
      </trkpt>
      <trkpt lat="48.24983" lon="-3.5697">
        <ele>122.907244</ele>
        <time>2022-12-11T14:26:38.460Z</time>
      </trkpt>
      <trkpt lat="48.24991" lon="-3.56961">
        <ele>122.898959</ele>
        <time>2022-12-11T14:26:41.479Z</time>
      </trkpt>
      <trkpt lat="48.25" lon="-3.56955">
        <ele>122.890958</ele>
        <time>2022-12-11T14:26:44.462Z</time>
      </trkpt>
      <trkpt lat="48.25008" lon="-3.56944">
        <ele>122.881721</ele>
        <time>2022-12-11T14:26:48.479Z</time>
      </trkpt>
      <trkpt lat="48.25015" lon="-3.56936">
        <ele>122.873605</ele>
        <time>2022-12-11T14:26:51.463Z</time>
      </trkpt>
      <trkpt lat="48.25026" lon="-3.56928">
        <ele>122.863403</ele>
        <time>2022-12-11T14:26:55.458Z</time>
      </trkpt>
      <trkpt lat="48.25036" lon="-3.56918">
        <ele>122.853371</ele>
        <time>2022-12-11T14:26:59.466Z</time>
      </trkpt>
      <trkpt lat="48.25044" lon="-3.56911">
        <ele>122.882922</ele>
        <time>2022-12-11T14:27:02.470Z</time>
      </trkpt>
      <trkpt lat="48.25053" lon="-3.56905">
        <ele>122.972147</ele>
        <time>2022-12-11T14:27:05.459Z</time>
      </trkpt>
      <trkpt lat="48.25062" lon="-3.56895">
        <ele>123.074504</ele>
        <time>2022-12-11T14:27:09.469Z</time>
      </trkpt>
      <trkpt lat="48.2507" lon="-3.56885">
        <ele>123.179127</ele>
        <time>2022-12-11T14:27:13.465Z</time>
      </trkpt>
      <trkpt lat="48.25077" lon="-3.56873">
        <ele>123.273662</ele>
        <time>2022-12-11T14:27:16.458Z</time>
      </trkpt>
      <trkpt lat="48.25086" lon="-3.56867">
        <ele>123.366461</ele>
        <time>2022-12-11T14:27:20.475Z</time>
      </trkpt>
      <trkpt lat="48.25093" lon="-3.56856">
        <ele>123.465566</ele>
        <time>2022-12-11T14:27:24.466Z</time>
      </trkpt>
      <trkpt lat="48.251" lon="-3.56845">
        <ele>123.563676</ele>
        <time>2022-12-11T14:27:28.464Z</time>
      </trkpt>
      <trkpt lat="48.25106" lon="-3.5683">
        <ele>123.671995</ele>
        <time>2022-12-11T14:27:32.466Z</time>
      </trkpt>
      <trkpt lat="48.25111" lon="-3.56818">
        <ele>123.758119</ele>
        <time>2022-12-11T14:27:35.462Z</time>
      </trkpt>
      <trkpt lat="48.25114" lon="-3.56805">
        <ele>123.845537</ele>
        <time>2022-12-11T14:27:38.461Z</time>
      </trkpt>
      <trkpt lat="48.25115" lon="-3.5679">
        <ele>123.935956</ele>
        <time>2022-12-11T14:27:41.461Z</time>
      </trkpt>
      <trkpt lat="48.25117" lon="-3.56776">
        <ele>124.0298</ele>
        <time>2022-12-11T14:27:44.469Z</time>
      </trkpt>
      <trkpt lat="48.25117" lon="-3.5676">
        <ele>124.128197</ele>
        <time>2022-12-11T14:27:47.463Z</time>
      </trkpt>
      <trkpt lat="48.25118" lon="-3.56746">
        <ele>124.214809</ele>
        <time>2022-12-11T14:27:50.458Z</time>
      </trkpt>
      <trkpt lat="48.25118" lon="-3.56731">
        <ele>124.310086</ele>
        <time>2022-12-11T14:27:53.463Z</time>
      </trkpt>
      <trkpt lat="48.25118" lon="-3.56716">
        <ele>124.404723</ele>
        <time>2022-12-11T14:27:56.460Z</time>
      </trkpt>
      <trkpt lat="48.25118" lon="-3.56699">
        <ele>124.510786</ele>
        <time>2022-12-11T14:28:00.475Z</time>
      </trkpt>
      <trkpt lat="48.25117" lon="-3.56681">
        <ele>124.722476</ele>
        <time>2022-12-11T14:28:04.464Z</time>
      </trkpt>
      <trkpt lat="48.25116" lon="-3.56664">
        <ele>124.94983</ele>
        <time>2022-12-11T14:28:08.462Z</time>
      </trkpt>
      <trkpt lat="48.25115" lon="-3.5665">
        <ele>125.149225</ele>
        <time>2022-12-11T14:28:12.467Z</time>
      </trkpt>
      <trkpt lat="48.25114" lon="-3.56636">
        <ele>125.347668</ele>
        <time>2022-12-11T14:28:16.458Z</time>
      </trkpt>
      <trkpt lat="48.25114" lon="-3.56619">
        <ele>125.579838</ele>
        <time>2022-12-11T14:28:20.463Z</time>
      </trkpt>
      <trkpt lat="48.25114" lon="-3.56604">
        <ele>125.774847</ele>
        <time>2022-12-11T14:28:23.466Z</time>
      </trkpt>
      <trkpt lat="48.25113" lon="-3.56589">
        <ele>125.981676</ele>
        <time>2022-12-11T14:28:26.466Z</time>
      </trkpt>
      <trkpt lat="48.25112" lon="-3.56574">
        <ele>126.193978</ele>
        <time>2022-12-11T14:28:29.464Z</time>
      </trkpt>
      <trkpt lat="48.25112" lon="-3.56559">
        <ele>126.406929</ele>
        <time>2022-12-11T14:28:32.463Z</time>
      </trkpt>
      <trkpt lat="48.25112" lon="-3.56542">
        <ele>126.633533</ele>
        <time>2022-12-11T14:28:36.463Z</time>
      </trkpt>
      <trkpt lat="48.25111" lon="-3.56527">
        <ele>126.845514</ele>
        <time>2022-12-11T14:28:39.465Z</time>
      </trkpt>
      <trkpt lat="48.25111" lon="-3.5651">
        <ele>127.072568</ele>
        <time>2022-12-11T14:28:42.464Z</time>
      </trkpt>
      <trkpt lat="48.2511" lon="-3.56493">
        <ele>127.306766</ele>
        <time>2022-12-11T14:28:45.468Z</time>
      </trkpt>
      <trkpt lat="48.25109" lon="-3.56476">
        <ele>127.543298</ele>
        <time>2022-12-11T14:28:48.460Z</time>
      </trkpt>
      <trkpt lat="48.25109" lon="-3.56461">
        <ele>127.745215</ele>
        <time>2022-12-11T14:28:51.471Z</time>
      </trkpt>
      <trkpt lat="48.25109" lon="-3.56444">
        <ele>127.976078</ele>
        <time>2022-12-11T14:28:54.473Z</time>
      </trkpt>
      <trkpt lat="48.25108" lon="-3.56431">
        <ele>128.167367</ele>
        <time>2022-12-11T14:28:57.463Z</time>
      </trkpt>
      <trkpt lat="48.25108" lon="-3.56415">
        <ele>128.242097</ele>
        <time>2022-12-11T14:29:00.470Z</time>
      </trkpt>
      <trkpt lat="48.25107" lon="-3.56399">
        <ele>128.227139</ele>
        <time>2022-12-11T14:29:03.465Z</time>
      </trkpt>
      <trkpt lat="48.25107" lon="-3.56383">
        <ele>128.212142</ele>
        <time>2022-12-11T14:29:06.468Z</time>
      </trkpt>
      <trkpt lat="48.25106" lon="-3.56367">
        <ele>128.19695</ele>
        <time>2022-12-11T14:29:09.465Z</time>
      </trkpt>
      <trkpt lat="48.25107" lon="-3.56349">
        <ele>128.181114</ele>
        <time>2022-12-11T14:29:12.476Z</time>
      </trkpt>
      <trkpt lat="48.25108" lon="-3.56332">
        <ele>128.165143</ele>
        <time>2022-12-11T14:29:15.466Z</time>
      </trkpt>
      <trkpt lat="48.25111" lon="-3.56318">
        <ele>128.151616</ele>
        <time>2022-12-11T14:29:18.467Z</time>
      </trkpt>
      <trkpt lat="48.25113" lon="-3.56305">
        <ele>128.13839</ele>
        <time>2022-12-11T14:29:21.470Z</time>
      </trkpt>
      <trkpt lat="48.25117" lon="-3.56291">
        <ele>128.124344</ele>
        <time>2022-12-11T14:29:24.466Z</time>
      </trkpt>
      <trkpt lat="48.25123" lon="-3.56277">
        <ele>128.109471</ele>
        <time>2022-12-11T14:29:27.469Z</time>
      </trkpt>
      <trkpt lat="48.25129" lon="-3.56264">
        <ele>128.094442</ele>
        <time>2022-12-11T14:29:30.461Z</time>
      </trkpt>
      <trkpt lat="48.25135" lon="-3.5625">
        <ele>128.079026</ele>
        <time>2022-12-11T14:29:33.468Z</time>
      </trkpt>
      <trkpt lat="48.25141" lon="-3.56236">
        <ele>128.064145</ele>
        <time>2022-12-11T14:29:36.461Z</time>
      </trkpt>
      <trkpt lat="48.25147" lon="-3.56222">
        <ele>128.048425</ele>
        <time>2022-12-11T14:29:39.464Z</time>
      </trkpt>
      <trkpt lat="48.25153" lon="-3.56208">
        <ele>128.032784</ele>
        <time>2022-12-11T14:29:42.492Z</time>
      </trkpt>
      <trkpt lat="48.25159" lon="-3.56195">
        <ele>128.018296</ele>
        <time>2022-12-11T14:29:45.465Z</time>
      </trkpt>
      <trkpt lat="48.25165" lon="-3.56184">
        <ele>128.005625</ele>
        <time>2022-12-11T14:29:48.461Z</time>
      </trkpt>
      <trkpt lat="48.25171" lon="-3.56173">
        <ele>128.16471</ele>
        <time>2022-12-11T14:29:51.469Z</time>
      </trkpt>
      <trkpt lat="48.25177" lon="-3.5616">
        <ele>128.436713</ele>
        <time>2022-12-11T14:29:54.467Z</time>
      </trkpt>
      <trkpt lat="48.25182" lon="-3.56147">
        <ele>128.704292</ele>
        <time>2022-12-11T14:29:57.466Z</time>
      </trkpt>
      <trkpt lat="48.25188" lon="-3.56135">
        <ele>128.973342</ele>
        <time>2022-12-11T14:30:00.466Z</time>
      </trkpt>
      <trkpt lat="48.25194" lon="-3.56121">
        <ele>129.257123</ele>
        <time>2022-12-11T14:30:03.470Z</time>
      </trkpt>
      <trkpt lat="48.25199" lon="-3.56108">
        <ele>129.538177</ele>
        <time>2022-12-11T14:30:06.465Z</time>
      </trkpt>
      <trkpt lat="48.25205" lon="-3.56095">
        <ele>129.814669</ele>
        <time>2022-12-11T14:30:09.463Z</time>
      </trkpt>
      <trkpt lat="48.25211" lon="-3.56081">
        <ele>130.111717</ele>
        <time>2022-12-11T14:30:12.462Z</time>
      </trkpt>
      <trkpt lat="48.25217" lon="-3.56067">
        <ele>130.391402</ele>
        <time>2022-12-11T14:30:15.478Z</time>
      </trkpt>
      <trkpt lat="48.25221" lon="-3.56055">
        <ele>130.633124</ele>
        <time>2022-12-11T14:30:18.464Z</time>
      </trkpt>
      <trkpt lat="48.25226" lon="-3.56042">
        <ele>130.891919</ele>
        <time>2022-12-11T14:30:21.468Z</time>
      </trkpt>
      <trkpt lat="48.25231" lon="-3.5603">
        <ele>131.158033</ele>
        <time>2022-12-11T14:30:24.467Z</time>
      </trkpt>
      <trkpt lat="48.25237" lon="-3.56017">
        <ele>131.428594</ele>
        <time>2022-12-11T14:30:27.469Z</time>
      </trkpt>
      <trkpt lat="48.25243" lon="-3.56004">
        <ele>131.710873</ele>
        <time>2022-12-11T14:30:30.465Z</time>
      </trkpt>
      <trkpt lat="48.25248" lon="-3.55991">
        <ele>131.982861</ele>
        <time>2022-12-11T14:30:33.466Z</time>
      </trkpt>
      <trkpt lat="48.25253" lon="-3.55979">
        <ele>132.230499</ele>
        <time>2022-12-11T14:30:36.468Z</time>
      </trkpt>
      <trkpt lat="48.25259" lon="-3.55964">
        <ele>132.541091</ele>
        <time>2022-12-11T14:30:40.490Z</time>
      </trkpt>
      <trkpt lat="48.25264" lon="-3.55952">
        <ele>132.77192</ele>
        <time>2022-12-11T14:30:44.471Z</time>
      </trkpt>
      <trkpt lat="48.25269" lon="-3.55941">
        <ele>132.771571</ele>
        <time>2022-12-11T14:30:48.461Z</time>
      </trkpt>
      <trkpt lat="48.25275" lon="-3.55929">
        <ele>132.771198</ele>
        <time>2022-12-11T14:30:52.470Z</time>
      </trkpt>
      <trkpt lat="48.2528" lon="-3.55912">
        <ele>132.770747</ele>
        <time>2022-12-11T14:33:01.488Z</time>
      </trkpt>
      <trkpt lat="48.25286" lon="-3.55898">
        <ele>132.770352</ele>
        <time>2022-12-11T14:33:04.480Z</time>
      </trkpt>
      <trkpt lat="48.25293" lon="-3.55884">
        <ele>132.769895</ele>
        <time>2022-12-11T14:33:07.465Z</time>
      </trkpt>
      <trkpt lat="48.253" lon="-3.55869">
        <ele>132.769467</ele>
        <time>2022-12-11T14:33:10.466Z</time>
      </trkpt>
      <trkpt lat="48.25304" lon="-3.55856">
        <ele>132.769089</ele>
        <time>2022-12-11T14:33:13.488Z</time>
      </trkpt>
      <trkpt lat="48.2531" lon="-3.55841">
        <ele>132.768681</ele>
        <time>2022-12-11T14:33:16.459Z</time>
      </trkpt>
      <trkpt lat="48.25315" lon="-3.55829">
        <ele>132.768311</ele>
        <time>2022-12-11T14:33:19.496Z</time>
      </trkpt>
      <trkpt lat="48.25321" lon="-3.55817">
        <ele>132.76794</ele>
        <time>2022-12-11T14:33:23.467Z</time>
      </trkpt>
      <trkpt lat="48.25327" lon="-3.55806">
        <ele>132.767587</ele>
        <time>2022-12-11T14:33:27.467Z</time>
      </trkpt>
      <trkpt lat="48.25332" lon="-3.55791">
        <ele>132.767188</ele>
        <time>2022-12-11T14:33:31.468Z</time>
      </trkpt>
      <trkpt lat="48.25337" lon="-3.55777">
        <ele>132.766774</ele>
        <time>2022-12-11T14:33:35.471Z</time>
      </trkpt>
      <trkpt lat="48.25344" lon="-3.55763">
        <ele>132.766346</ele>
        <time>2022-12-11T14:33:39.469Z</time>
      </trkpt>
      <trkpt lat="48.2535" lon="-3.55749">
        <ele>132.765945</ele>
        <time>2022-12-11T14:33:43.465Z</time>
      </trkpt>
      <trkpt lat="48.25355" lon="-3.55735">
        <ele>132.765546</ele>
        <time>2022-12-11T14:33:47.463Z</time>
      </trkpt>
      <trkpt lat="48.25361" lon="-3.55721">
        <ele>132.772313</ele>
        <time>2022-12-11T14:33:51.489Z</time>
      </trkpt>
      <trkpt lat="48.25367" lon="-3.55709">
        <ele>132.799332</ele>
        <time>2022-12-11T14:33:55.475Z</time>
      </trkpt>
      <trkpt lat="48.25373" lon="-3.55696">
        <ele>132.828629</ele>
        <time>2022-12-11T14:33:59.477Z</time>
      </trkpt>
      <trkpt lat="48.25379" lon="-3.55681">
        <ele>132.860774</ele>
        <time>2022-12-11T14:34:03.467Z</time>
      </trkpt>
      <trkpt lat="48.25385" lon="-3.5567">
        <ele>132.886279</ele>
        <time>2022-12-11T14:34:06.460Z</time>
      </trkpt>
      <trkpt lat="48.2539" lon="-3.55657">
        <ele>132.913895</ele>
        <time>2022-12-11T14:34:09.469Z</time>
      </trkpt>
      <trkpt lat="48.25396" lon="-3.55645">
        <ele>132.940503</ele>
        <time>2022-12-11T14:34:12.467Z</time>
      </trkpt>
      <trkpt lat="48.25402" lon="-3.55633">
        <ele>132.968118</ele>
        <time>2022-12-11T14:34:15.468Z</time>
      </trkpt>
      <trkpt lat="48.25407" lon="-3.55621">
        <ele>132.993927</ele>
        <time>2022-12-11T14:34:18.467Z</time>
      </trkpt>
      <trkpt lat="48.25412" lon="-3.55608">
        <ele>133.020341</ele>
        <time>2022-12-11T14:34:21.492Z</time>
      </trkpt>
      <trkpt lat="48.25419" lon="-3.55595">
        <ele>133.051144</ele>
        <time>2022-12-11T14:34:25.462Z</time>
      </trkpt>
      <trkpt lat="48.25425" lon="-3.55584">
        <ele>133.077355</ele>
        <time>2022-12-11T14:34:28.473Z</time>
      </trkpt>
      <trkpt lat="48.25431" lon="-3.55571">
        <ele>133.10633</ele>
        <time>2022-12-11T14:34:31.482Z</time>
      </trkpt>
      <trkpt lat="48.25436" lon="-3.55556">
        <ele>133.135383</ele>
        <time>2022-12-11T14:34:34.473Z</time>
      </trkpt>
      <trkpt lat="48.25442" lon="-3.55544">
        <ele>133.161991</ele>
        <time>2022-12-11T14:34:37.472Z</time>
      </trkpt>
      <trkpt lat="48.25446" lon="-3.55531">
        <ele>133.189416</ele>
        <time>2022-12-11T14:34:40.471Z</time>
      </trkpt>
      <trkpt lat="48.25452" lon="-3.55518">
        <ele>133.217065</ele>
        <time>2022-12-11T14:34:43.468Z</time>
      </trkpt>
      <trkpt lat="48.25456" lon="-3.55505">
        <ele>133.244202</ele>
        <time>2022-12-11T14:34:46.458Z</time>
      </trkpt>
      <trkpt lat="48.25461" lon="-3.55491">
        <ele>133.197794</ele>
        <time>2022-12-11T14:34:49.464Z</time>
      </trkpt>
      <trkpt lat="48.25464" lon="-3.55475">
        <ele>133.097083</ele>
        <time>2022-12-11T14:34:52.481Z</time>
      </trkpt>
      <trkpt lat="48.25465" lon="-3.55459">
        <ele>132.99737</ele>
        <time>2022-12-11T14:34:55.468Z</time>
      </trkpt>
      <trkpt lat="48.25469" lon="-3.55446">
        <ele>132.906175</ele>
        <time>2022-12-11T14:34:59.485Z</time>
      </trkpt>
      <trkpt lat="48.2547" lon="-3.55428">
        <ele>132.796732</ele>
        <time>2022-12-11T14:35:03.486Z</time>
      </trkpt>
      <trkpt lat="48.2547" lon="-3.5541">
        <ele>132.687848</ele>
        <time>2022-12-11T14:35:07.468Z</time>
      </trkpt>
      <trkpt lat="48.25467" lon="-3.55396">
        <ele>132.599617</ele>
        <time>2022-12-11T14:35:10.474Z</time>
      </trkpt>
      <trkpt lat="48.25464" lon="-3.5538">
        <ele>132.495638</ele>
        <time>2022-12-11T14:35:14.476Z</time>
      </trkpt>
      <trkpt lat="48.25461" lon="-3.55365">
        <ele>132.397806</ele>
        <time>2022-12-11T14:35:17.463Z</time>
      </trkpt>
      <trkpt lat="48.25458" lon="-3.5535">
        <ele>132.301412</ele>
        <time>2022-12-11T14:35:20.465Z</time>
      </trkpt>
      <trkpt lat="48.25454" lon="-3.55335">
        <ele>132.208297</ele>
        <time>2022-12-11T14:35:23.469Z</time>
      </trkpt>
      <trkpt lat="48.25451" lon="-3.55318">
        <ele>132.097426</ele>
        <time>2022-12-11T14:35:27.464Z</time>
      </trkpt>
      <trkpt lat="48.25447" lon="-3.55303">
        <ele>131.995695</ele>
        <time>2022-12-11T14:35:30.473Z</time>
      </trkpt>
      <trkpt lat="48.25443" lon="-3.55288">
        <ele>131.898152</ele>
        <time>2022-12-11T14:35:33.461Z</time>
      </trkpt>
      <trkpt lat="48.25439" lon="-3.55272">
        <ele>131.794938</ele>
        <time>2022-12-11T14:35:36.464Z</time>
      </trkpt>
      <trkpt lat="48.25436" lon="-3.55258">
        <ele>131.702974</ele>
        <time>2022-12-11T14:35:39.468Z</time>
      </trkpt>
      <trkpt lat="48.25432" lon="-3.55245">
        <ele>131.614395</ele>
        <time>2022-12-11T14:35:42.470Z</time>
      </trkpt>
      <trkpt lat="48.25428" lon="-3.55229">
        <ele>131.541554</ele>
        <time>2022-12-11T14:35:45.464Z</time>
      </trkpt>
      <trkpt lat="48.25425" lon="-3.55213">
        <ele>131.472732</ele>
        <time>2022-12-11T14:35:48.467Z</time>
      </trkpt>
      <trkpt lat="48.25422" lon="-3.55199">
        <ele>131.413532</ele>
        <time>2022-12-11T14:35:51.462Z</time>
      </trkpt>
      <trkpt lat="48.25418" lon="-3.55184">
        <ele>131.349696</ele>
        <time>2022-12-11T14:35:54.474Z</time>
      </trkpt>
      <trkpt lat="48.25414" lon="-3.55169">
        <ele>131.284153</ele>
        <time>2022-12-11T14:35:57.469Z</time>
      </trkpt>
      <trkpt lat="48.25411" lon="-3.55155">
        <ele>131.222807</ele>
        <time>2022-12-11T14:36:00.468Z</time>
      </trkpt>
      <trkpt lat="48.25406" lon="-3.55138">
        <ele>131.149066</ele>
        <time>2022-12-11T14:36:04.490Z</time>
      </trkpt>
      <trkpt lat="48.25403" lon="-3.55124">
        <ele>131.087665</ele>
        <time>2022-12-11T14:36:07.464Z</time>
      </trkpt>
      <trkpt lat="48.25399" lon="-3.5511">
        <ele>131.025509</ele>
        <time>2022-12-11T14:36:10.471Z</time>
      </trkpt>
      <trkpt lat="48.25396" lon="-3.55095">
        <ele>130.964193</ele>
        <time>2022-12-11T14:36:13.496Z</time>
      </trkpt>
      <trkpt lat="48.25394" lon="-3.55082">
        <ele>130.909347</ele>
        <time>2022-12-11T14:36:16.477Z</time>
      </trkpt>
      <trkpt lat="48.25391" lon="-3.55067">
        <ele>130.845663</ele>
        <time>2022-12-11T14:36:19.489Z</time>
      </trkpt>
      <trkpt lat="48.25387" lon="-3.55053">
        <ele>130.782956</ele>
        <time>2022-12-11T14:36:22.489Z</time>
      </trkpt>
      <trkpt lat="48.25383" lon="-3.55035">
        <ele>130.709151</ele>
        <time>2022-12-11T14:36:26.465Z</time>
      </trkpt>
      <trkpt lat="48.2538" lon="-3.5502">
        <ele>130.645519</ele>
        <time>2022-12-11T14:36:29.469Z</time>
      </trkpt>
      <trkpt lat="48.25377" lon="-3.55005">
        <ele>130.581849</ele>
        <time>2022-12-11T14:36:32.463Z</time>
      </trkpt>
      <trkpt lat="48.25374" lon="-3.5499">
        <ele>130.517618</ele>
        <time>2022-12-11T14:36:35.467Z</time>
      </trkpt>
      <trkpt lat="48.25372" lon="-3.54977">
        <ele>130.512966</ele>
        <time>2022-12-11T14:36:38.476Z</time>
      </trkpt>
      <trkpt lat="48.25369" lon="-3.54961">
        <ele>130.526807</ele>
        <time>2022-12-11T14:36:41.472Z</time>
      </trkpt>
      <trkpt lat="48.25368" lon="-3.54945">
        <ele>130.541345</ele>
        <time>2022-12-11T14:36:44.464Z</time>
      </trkpt>
      <trkpt lat="48.25369" lon="-3.54928">
        <ele>130.556303</ele>
        <time>2022-12-11T14:36:47.473Z</time>
      </trkpt>
      <trkpt lat="48.25369" lon="-3.54914">
        <ele>130.569026</ele>
        <time>2022-12-11T14:36:50.474Z</time>
      </trkpt>
      <trkpt lat="48.25369" lon="-3.54897">
        <ele>130.583797</ele>
        <time>2022-12-11T14:36:54.464Z</time>
      </trkpt>
      <trkpt lat="48.25368" lon="-3.54882">
        <ele>130.598013</ele>
        <time>2022-12-11T14:36:58.476Z</time>
      </trkpt>
      <trkpt lat="48.25367" lon="-3.54865">
        <ele>130.612705</ele>
        <time>2022-12-11T14:37:02.462Z</time>
      </trkpt>
      <trkpt lat="48.25367" lon="-3.54848">
        <ele>130.628388</ele>
        <time>2022-12-11T14:37:06.471Z</time>
      </trkpt>
      <trkpt lat="48.25366" lon="-3.54831">
        <ele>130.643281</ele>
        <time>2022-12-11T14:37:10.469Z</time>
      </trkpt>
      <trkpt lat="48.25365" lon="-3.54817">
        <ele>130.655703</ele>
        <time>2022-12-11T14:37:14.467Z</time>
      </trkpt>
      <trkpt lat="48.25364" lon="-3.548">
        <ele>130.670748</ele>
        <time>2022-12-11T14:37:18.467Z</time>
      </trkpt>
      <trkpt lat="48.25363" lon="-3.54784">
        <ele>130.685173</ele>
        <time>2022-12-11T14:37:22.471Z</time>
      </trkpt>
      <trkpt lat="48.25363" lon="-3.54766">
        <ele>130.700748</ele>
        <time>2022-12-11T14:37:26.461Z</time>
      </trkpt>
      <trkpt lat="48.25362" lon="-3.54749">
        <ele>130.71652</ele>
        <time>2022-12-11T14:37:30.473Z</time>
      </trkpt>
      <trkpt lat="48.25361" lon="-3.54734">
        <ele>130.729621</ele>
        <time>2022-12-11T14:37:33.468Z</time>
      </trkpt>
      <trkpt lat="48.25361" lon="-3.5472">
        <ele>130.742529</ele>
        <time>2022-12-11T14:37:36.469Z</time>
      </trkpt>
      <trkpt lat="48.2536" lon="-3.54705">
        <ele>130.867221</ele>
        <time>2022-12-11T14:37:39.475Z</time>
      </trkpt>
      <trkpt lat="48.2536" lon="-3.54687">
        <ele>131.030784</ele>
        <time>2022-12-11T14:37:43.470Z</time>
      </trkpt>
      <trkpt lat="48.25359" lon="-3.54673">
        <ele>131.160935</ele>
        <time>2022-12-11T14:37:46.466Z</time>
      </trkpt>
      <trkpt lat="48.25359" lon="-3.54659">
        <ele>131.292162</ele>
        <time>2022-12-11T14:37:49.477Z</time>
      </trkpt>
      <trkpt lat="48.25358" lon="-3.54642">
        <ele>131.454754</ele>
        <time>2022-12-11T14:37:53.465Z</time>
      </trkpt>
      <trkpt lat="48.25358" lon="-3.54624">
        <ele>131.622918</ele>
        <time>2022-12-11T14:37:57.485Z</time>
      </trkpt>
      <trkpt lat="48.25357" lon="-3.54608">
        <ele>131.768139</ele>
        <time>2022-12-11T14:38:00.473Z</time>
      </trkpt>
      <trkpt lat="48.25357" lon="-3.54592">
        <ele>131.914385</ele>
        <time>2022-12-11T14:38:03.469Z</time>
      </trkpt>
      <trkpt lat="48.25356" lon="-3.54577">
        <ele>132.053767</ele>
        <time>2022-12-11T14:38:06.463Z</time>
      </trkpt>
      <trkpt lat="48.25355" lon="-3.54561">
        <ele>132.205321</ele>
        <time>2022-12-11T14:38:09.462Z</time>
      </trkpt>
      <trkpt lat="48.25355" lon="-3.54545">
        <ele>132.355889</ele>
        <time>2022-12-11T14:38:12.467Z</time>
      </trkpt>
      <trkpt lat="48.25353" lon="-3.54528">
        <ele>132.512222</ele>
        <time>2022-12-11T14:38:15.473Z</time>
      </trkpt>
      <trkpt lat="48.25351" lon="-3.54513">
        <ele>132.655614</ele>
        <time>2022-12-11T14:38:18.463Z</time>
      </trkpt>
      <trkpt lat="48.25351" lon="-3.54495">
        <ele>132.819106</ele>
        <time>2022-12-11T14:38:21.464Z</time>
      </trkpt>
      <trkpt lat="48.25351" lon="-3.54477">
        <ele>132.98727</ele>
        <time>2022-12-11T14:38:24.463Z</time>
      </trkpt>
      <trkpt lat="48.2535" lon="-3.54459">
        <ele>133.156403</ele>
        <time>2022-12-11T14:38:27.484Z</time>
      </trkpt>
      <trkpt lat="48.25349" lon="-3.54442">
        <ele>133.206449</ele>
        <time>2022-12-11T14:38:30.468Z</time>
      </trkpt>
      <trkpt lat="48.25349" lon="-3.54427">
        <ele>133.098731</ele>
        <time>2022-12-11T14:38:33.472Z</time>
      </trkpt>
      <trkpt lat="48.25349" lon="-3.54411">
        <ele>132.990495</ele>
        <time>2022-12-11T14:38:36.467Z</time>
      </trkpt>
      <trkpt lat="48.25348" lon="-3.54394">
        <ele>132.875284</ele>
        <time>2022-12-11T14:38:39.495Z</time>
      </trkpt>
      <trkpt lat="48.25347" lon="-3.54377">
        <ele>132.753425</ele>
        <time>2022-12-11T14:38:42.473Z</time>
      </trkpt>
      <trkpt lat="48.25347" lon="-3.54361">
        <ele>132.645707</ele>
        <time>2022-12-11T14:38:45.461Z</time>
      </trkpt>
      <trkpt lat="48.25346" lon="-3.54346">
        <ele>132.540816</ele>
        <time>2022-12-11T14:38:48.461Z</time>
      </trkpt>
      <trkpt lat="48.25346" lon="-3.54331">
        <ele>132.437185</ele>
        <time>2022-12-11T14:38:51.477Z</time>
      </trkpt>
      <trkpt lat="48.25345" lon="-3.54315">
        <ele>132.321941</ele>
        <time>2022-12-11T14:38:54.469Z</time>
      </trkpt>
      <trkpt lat="48.25344" lon="-3.54298">
        <ele>132.202751</ele>
        <time>2022-12-11T14:38:57.466Z</time>
      </trkpt>
      <trkpt lat="48.25343" lon="-3.54282">
        <ele>132.094967</ele>
        <time>2022-12-11T14:39:00.477Z</time>
      </trkpt>
      <trkpt lat="48.25343" lon="-3.54265">
        <ele>131.975268</ele>
        <time>2022-12-11T14:39:03.471Z</time>
      </trkpt>
      <trkpt lat="48.25342" lon="-3.5425">
        <ele>131.870501</ele>
        <time>2022-12-11T14:39:06.483Z</time>
      </trkpt>
      <trkpt lat="48.25341" lon="-3.54232">
        <ele>131.742996</ele>
        <time>2022-12-11T14:39:10.464Z</time>
      </trkpt>
      <trkpt lat="48.2534" lon="-3.54216">
        <ele>131.633946</ele>
        <time>2022-12-11T14:39:13.476Z</time>
      </trkpt>
      <trkpt lat="48.25339" lon="-3.54198">
        <ele>131.508713</ele>
        <time>2022-12-11T14:39:16.462Z</time>
      </trkpt>
      <trkpt lat="48.25339" lon="-3.54183">
        <ele>131.403211</ele>
        <time>2022-12-11T14:39:19.466Z</time>
      </trkpt>
      <trkpt lat="48.25338" lon="-3.54169">
        <ele>131.380045</ele>
        <time>2022-12-11T14:39:22.472Z</time>
      </trkpt>
      <trkpt lat="48.2534" lon="-3.54154">
        <ele>131.382132</ele>
        <time>2022-12-11T14:39:26.461Z</time>
      </trkpt>
      <trkpt lat="48.25338" lon="-3.54137">
        <ele>131.384485</ele>
        <time>2022-12-11T14:39:29.485Z</time>
      </trkpt>
      <trkpt lat="48.25336" lon="-3.54119">
        <ele>131.386889</ele>
        <time>2022-12-11T14:39:32.466Z</time>
      </trkpt>
      <trkpt lat="48.25336" lon="-3.54104">
        <ele>131.388887</ele>
        <time>2022-12-11T14:39:36.475Z</time>
      </trkpt>
      <trkpt lat="48.25336" lon="-3.54087">
        <ele>131.391249</ele>
        <time>2022-12-11T14:39:41.472Z</time>
      </trkpt>
      <trkpt lat="48.25336" lon="-3.54072">
        <ele>131.393247</ele>
        <time>2022-12-11T14:39:44.464Z</time>
      </trkpt>
      <trkpt lat="48.25337" lon="-3.54058">
        <ele>131.395109</ele>
        <time>2022-12-11T14:39:47.462Z</time>
      </trkpt>
      <trkpt lat="48.25338" lon="-3.54044">
        <ele>131.396988</ele>
        <time>2022-12-11T14:39:50.474Z</time>
      </trkpt>
      <trkpt lat="48.2534" lon="-3.5403">
        <ele>131.398934</ele>
        <time>2022-12-11T14:39:53.470Z</time>
      </trkpt>
      <trkpt lat="48.25344" lon="-3.54013">
        <ele>131.401373</ele>
        <time>2022-12-11T14:39:57.464Z</time>
      </trkpt>
      <trkpt lat="48.2535" lon="-3.53998">
        <ele>131.403744</ele>
        <time>2022-12-11T14:40:01.464Z</time>
      </trkpt>
      <trkpt lat="48.25355" lon="-3.53987">
        <ele>131.405655</ele>
        <time>2022-12-11T14:40:04.471Z</time>
      </trkpt>
      <trkpt lat="48.25363" lon="-3.53973">
        <ele>131.40802</ele>
        <time>2022-12-11T14:40:08.472Z</time>
      </trkpt>
      <trkpt lat="48.25371" lon="-3.53962">
        <ele>131.410322</ele>
        <time>2022-12-11T14:40:12.469Z</time>
      </trkpt>
      <trkpt lat="48.25378" lon="-3.53952">
        <ele>131.412208</ele>
        <time>2022-12-11T14:40:15.474Z</time>
      </trkpt>
      <trkpt lat="48.25386" lon="-3.5394">
        <ele>131.414457</ele>
        <time>2022-12-11T14:40:19.459Z</time>
      </trkpt>
      <trkpt lat="48.25393" lon="-3.5393">
        <ele>131.543099</ele>
        <time>2022-12-11T14:40:23.471Z</time>
      </trkpt>
      <trkpt lat="48.254" lon="-3.53919">
        <ele>131.748957</ele>
        <time>2022-12-11T14:40:27.469Z</time>
      </trkpt>
      <trkpt lat="48.25408" lon="-3.53909">
        <ele>131.956496</ele>
        <time>2022-12-11T14:40:31.468Z</time>
      </trkpt>
      <trkpt lat="48.25415" lon="-3.53899">
        <ele>132.162235</ele>
        <time>2022-12-11T14:40:35.491Z</time>
      </trkpt>
      <trkpt lat="48.25423" lon="-3.53889">
        <ele>132.366195</ele>
        <time>2022-12-11T14:40:39.468Z</time>
      </trkpt>
      <trkpt lat="48.25429" lon="-3.53878">
        <ele>132.552445</ele>
        <time>2022-12-11T14:40:42.463Z</time>
      </trkpt>
      <trkpt lat="48.25435" lon="-3.53868">
        <ele>132.748963</ele>
        <time>2022-12-11T14:40:45.461Z</time>
      </trkpt>
      <trkpt lat="48.25442" lon="-3.53857">
        <ele>132.942903</ele>
        <time>2022-12-11T14:40:48.466Z</time>
      </trkpt>
      <trkpt lat="48.25448" lon="-3.53847">
        <ele>133.13297</ele>
        <time>2022-12-11T14:40:51.465Z</time>
      </trkpt>
      <trkpt lat="48.25456" lon="-3.53838">
        <ele>133.336567</ele>
        <time>2022-12-11T14:40:54.460Z</time>
      </trkpt>
      <trkpt lat="48.25464" lon="-3.53828">
        <ele>133.537896</ele>
        <time>2022-12-11T14:40:57.476Z</time>
      </trkpt>
      <trkpt lat="48.25471" lon="-3.53818">
        <ele>133.733757</ele>
        <time>2022-12-11T14:41:00.476Z</time>
      </trkpt>
      <trkpt lat="48.25477" lon="-3.53808">
        <ele>133.925751</ele>
        <time>2022-12-11T14:41:03.469Z</time>
      </trkpt>
      <trkpt lat="48.25485" lon="-3.53799">
        <ele>134.113846</ele>
        <time>2022-12-11T14:41:06.463Z</time>
      </trkpt>
      <trkpt lat="48.25492" lon="-3.5379">
        <ele>134.305496</ele>
        <time>2022-12-11T14:41:09.466Z</time>
      </trkpt>
      <trkpt lat="48.25499" lon="-3.5378">
        <ele>134.504314</ele>
        <time>2022-12-11T14:41:12.481Z</time>
      </trkpt>
      <trkpt lat="48.25507" lon="-3.53773">
        <ele>134.699664</ele>
        <time>2022-12-11T14:41:15.469Z</time>
      </trkpt>
      <trkpt lat="48.25514" lon="-3.53763">
        <ele>134.896377</ele>
        <time>2022-12-11T14:41:18.478Z</time>
      </trkpt>
      <trkpt lat="48.25522" lon="-3.53753">
        <ele>135.081443</ele>
        <time>2022-12-11T14:41:21.467Z</time>
      </trkpt>
      <trkpt lat="48.25529" lon="-3.53743">
        <ele>135.175188</ele>
        <time>2022-12-11T14:41:24.468Z</time>
      </trkpt>
      <trkpt lat="48.25536" lon="-3.53732">
        <ele>135.27452</ele>
        <time>2022-12-11T14:41:28.467Z</time>
      </trkpt>
      <trkpt lat="48.25542" lon="-3.53721">
        <ele>135.367522</ele>
        <time>2022-12-11T14:41:32.460Z</time>
      </trkpt>
      <trkpt lat="48.25551" lon="-3.53711">
        <ele>135.474201</ele>
        <time>2022-12-11T14:41:37.494Z</time>
      </trkpt>
      <trkpt lat="48.25558" lon="-3.53702">
        <ele>135.571046</ele>
        <time>2022-12-11T14:41:42.469Z</time>
      </trkpt>
      <trkpt lat="48.25566" lon="-3.53692">
        <ele>135.666685</ele>
        <time>2022-12-11T14:41:47.468Z</time>
      </trkpt>
      <trkpt lat="48.25573" lon="-3.53681">
        <ele>135.771712</ele>
        <time>2022-12-11T14:41:51.467Z</time>
      </trkpt>
      <trkpt lat="48.25576" lon="-3.53664">
        <ele>135.886444</ele>
        <time>2022-12-11T14:41:54.466Z</time>
      </trkpt>
      <trkpt lat="48.25588" lon="-3.53631">
        <ele>136.12951</ele>
        <time>2022-12-11T14:41:55.463Z</time>
      </trkpt>
      <trkpt lat="48.2559" lon="-3.53613">
        <ele>136.250214</ele>
        <time>2022-12-11T14:41:58.478Z</time>
      </trkpt>
      <trkpt lat="48.25591" lon="-3.53599">
        <ele>136.342717</ele>
        <time>2022-12-11T14:42:00.464Z</time>
      </trkpt>
      <trkpt lat="48.25593" lon="-3.53582">
        <ele>136.457575</ele>
        <time>2022-12-11T14:42:03.475Z</time>
      </trkpt>
      <trkpt lat="48.25594" lon="-3.53568">
        <ele>136.552028</ele>
        <time>2022-12-11T14:42:05.483Z</time>
      </trkpt>
      <trkpt lat="48.25594" lon="-3.5355">
        <ele>136.670004</ele>
        <time>2022-12-11T14:42:08.466Z</time>
      </trkpt>
      <trkpt lat="48.25596" lon="-3.53536">
        <ele>136.760429</ele>
        <time>2022-12-11T14:42:11.487Z</time>
      </trkpt>
      <trkpt lat="48.25597" lon="-3.53521">
        <ele>136.853193</ele>
        <time>2022-12-11T14:42:15.482Z</time>
      </trkpt>
      <trkpt lat="48.25599" lon="-3.53507">
        <ele>136.913563</ele>
        <time>2022-12-11T14:42:18.475Z</time>
      </trkpt>
      <trkpt lat="48.256" lon="-3.53492">
        <ele>136.983275</ele>
        <time>2022-12-11T14:42:21.466Z</time>
      </trkpt>
      <trkpt lat="48.25603" lon="-3.53475">
        <ele>137.059563</ele>
        <time>2022-12-11T14:42:24.472Z</time>
      </trkpt>
      <trkpt lat="48.25605" lon="-3.53459">
        <ele>137.131977</ele>
        <time>2022-12-11T14:42:27.482Z</time>
      </trkpt>
      <trkpt lat="48.25606" lon="-3.53443">
        <ele>137.202528</ele>
        <time>2022-12-11T14:42:30.473Z</time>
      </trkpt>
      <trkpt lat="48.25609" lon="-3.53429">
        <ele>137.271153</ele>
        <time>2022-12-11T14:42:34.463Z</time>
      </trkpt>
      <trkpt lat="48.25611" lon="-3.53414">
        <ele>137.337304</ele>
        <time>2022-12-11T14:42:38.474Z</time>
      </trkpt>
      <trkpt lat="48.25612" lon="-3.53399">
        <ele>137.405246</ele>
        <time>2022-12-11T14:42:42.469Z</time>
      </trkpt>
      <trkpt lat="48.25612" lon="-3.53383">
        <ele>137.477305</ele>
        <time>2022-12-11T14:42:45.476Z</time>
      </trkpt>
      <trkpt lat="48.25613" lon="-3.53368">
        <ele>137.542724</ele>
        <time>2022-12-11T14:42:48.468Z</time>
      </trkpt>
      <trkpt lat="48.25613" lon="-3.53353">
        <ele>137.60833</ele>
        <time>2022-12-11T14:42:52.468Z</time>
      </trkpt>
      <trkpt lat="48.25615" lon="-3.53337">
        <ele>137.679762</ele>
        <time>2022-12-11T14:42:56.477Z</time>
      </trkpt>
      <trkpt lat="48.25615" lon="-3.53324">
        <ele>137.740389</ele>
        <time>2022-12-11T14:42:59.473Z</time>
      </trkpt>
      <trkpt lat="48.25617" lon="-3.53306">
        <ele>137.820198</ele>
        <time>2022-12-11T14:43:03.466Z</time>
      </trkpt>
      <trkpt lat="48.25619" lon="-3.53292">
        <ele>137.884182</ele>
        <time>2022-12-11T14:43:06.463Z</time>
      </trkpt>
      <trkpt lat="48.2562" lon="-3.53278">
        <ele>137.945929</ele>
        <time>2022-12-11T14:43:09.473Z</time>
      </trkpt>
      <trkpt lat="48.25621" lon="-3.5326">
        <ele>138.025581</ele>
        <time>2022-12-11T14:43:13.485Z</time>
      </trkpt>
      <trkpt lat="48.25621" lon="-3.53245">
        <ele>138.120901</ele>
        <time>2022-12-11T14:43:16.466Z</time>
      </trkpt>
      <trkpt lat="48.25619" lon="-3.5323">
        <ele>138.221507</ele>
        <time>2022-12-11T14:43:19.468Z</time>
      </trkpt>
      <trkpt lat="48.25618" lon="-3.53216">
        <ele>138.318547</ele>
        <time>2022-12-11T14:43:22.469Z</time>
      </trkpt>
      <trkpt lat="48.25615" lon="-3.532">
        <ele>138.427044</ele>
        <time>2022-12-11T14:43:26.461Z</time>
      </trkpt>
      <trkpt lat="48.25611" lon="-3.53184">
        <ele>138.536889</ele>
        <time>2022-12-11T14:43:30.490Z</time>
      </trkpt>
      <trkpt lat="48.25606" lon="-3.53171">
        <ele>138.634634</ele>
        <time>2022-12-11T14:43:33.486Z</time>
      </trkpt>
      <trkpt lat="48.256" lon="-3.53159">
        <ele>138.730168</ele>
        <time>2022-12-11T14:43:36.470Z</time>
      </trkpt>
      <trkpt lat="48.25594" lon="-3.53147">
        <ele>138.830493</ele>
        <time>2022-12-11T14:43:39.466Z</time>
      </trkpt>
      <trkpt lat="48.25586" lon="-3.53136">
        <ele>138.938059</ele>
        <time>2022-12-11T14:43:43.466Z</time>
      </trkpt>
      <trkpt lat="48.25578" lon="-3.53127">
        <ele>139.03573</ele>
        <time>2022-12-11T14:43:46.462Z</time>
      </trkpt>
      <trkpt lat="48.25569" lon="-3.53119">
        <ele>139.134888</ele>
        <time>2022-12-11T14:43:49.467Z</time>
      </trkpt>
      <trkpt lat="48.25561" lon="-3.53113">
        <ele>139.231804</ele>
        <time>2022-12-11T14:43:52.470Z</time>
      </trkpt>
      <trkpt lat="48.25552" lon="-3.53105">
        <ele>139.328949</ele>
        <time>2022-12-11T14:43:55.486Z</time>
      </trkpt>
      <trkpt lat="48.25542" lon="-3.53099">
        <ele>139.433443</ele>
        <time>2022-12-11T14:43:59.468Z</time>
      </trkpt>
      <trkpt lat="48.25532" lon="-3.53091">
        <ele>139.549754</ele>
        <time>2022-12-11T14:44:03.469Z</time>
      </trkpt>
      <trkpt lat="48.25523" lon="-3.53085">
        <ele>139.646119</ele>
        <time>2022-12-11T14:44:06.466Z</time>
      </trkpt>
      <trkpt lat="48.25514" lon="-3.53079">
        <ele>139.736646</ele>
        <time>2022-12-11T14:44:09.474Z</time>
      </trkpt>
      <trkpt lat="48.25505" lon="-3.53075">
        <ele>139.896624</ele>
        <time>2022-12-11T14:44:12.465Z</time>
      </trkpt>
      <trkpt lat="48.25496" lon="-3.53069">
        <ele>140.22546</ele>
        <time>2022-12-11T14:44:15.471Z</time>
      </trkpt>
      <trkpt lat="48.25486" lon="-3.53063">
        <ele>140.558839</ele>
        <time>2022-12-11T14:44:18.469Z</time>
      </trkpt>
      <trkpt lat="48.25477" lon="-3.53058">
        <ele>140.856374</ele>
        <time>2022-12-11T14:44:21.486Z</time>
      </trkpt>
      <trkpt lat="48.25468" lon="-3.53053">
        <ele>141.159445</ele>
        <time>2022-12-11T14:44:24.468Z</time>
      </trkpt>
      <trkpt lat="48.25458" lon="-3.53049">
        <ele>141.475852</ele>
        <time>2022-12-11T14:44:27.464Z</time>
      </trkpt>
      <trkpt lat="48.25449" lon="-3.53045">
        <ele>141.798362</ele>
        <time>2022-12-11T14:44:30.464Z</time>
      </trkpt>
      <trkpt lat="48.2544" lon="-3.53039">
        <ele>142.105621</ele>
        <time>2022-12-11T14:44:33.475Z</time>
      </trkpt>
      <trkpt lat="48.2543" lon="-3.53034">
        <ele>142.447105</ele>
        <time>2022-12-11T14:44:36.466Z</time>
      </trkpt>
      <trkpt lat="48.25421" lon="-3.53028">
        <ele>142.755255</ele>
        <time>2022-12-11T14:44:39.475Z</time>
      </trkpt>
      <trkpt lat="48.25411" lon="-3.53021">
        <ele>143.106521</ele>
        <time>2022-12-11T14:44:43.468Z</time>
      </trkpt>
      <trkpt lat="48.25399" lon="-3.53015">
        <ele>143.488642</ele>
        <time>2022-12-11T14:44:47.477Z</time>
      </trkpt>
      <trkpt lat="48.2539" lon="-3.53008">
        <ele>143.798609</ele>
        <time>2022-12-11T14:44:50.478Z</time>
      </trkpt>
      <trkpt lat="48.2538" lon="-3.53002">
        <ele>144.165911</ele>
        <time>2022-12-11T14:44:54.477Z</time>
      </trkpt>
      <trkpt lat="48.25369" lon="-3.52996">
        <ele>144.527264</ele>
        <time>2022-12-11T14:44:58.485Z</time>
      </trkpt>
      <trkpt lat="48.25359" lon="-3.52992">
        <ele>144.85735</ele>
        <time>2022-12-11T14:45:02.475Z</time>
      </trkpt>
      <trkpt lat="48.2535" lon="-3.52987">
        <ele>145.164596</ele>
        <time>2022-12-11T14:45:06.469Z</time>
      </trkpt>
      <trkpt lat="48.2534" lon="-3.52982">
        <ele>145.483724</ele>
        <time>2022-12-11T14:45:10.466Z</time>
      </trkpt>
      <trkpt lat="48.2533" lon="-3.52976">
        <ele>145.481531</ele>
        <time>2022-12-11T14:45:14.475Z</time>
      </trkpt>
      <trkpt lat="48.25319" lon="-3.52971">
        <ele>145.450772</ele>
        <time>2022-12-11T14:45:18.467Z</time>
      </trkpt>
      <trkpt lat="48.25309" lon="-3.52965">
        <ele>145.422005</ele>
        <time>2022-12-11T14:45:22.466Z</time>
      </trkpt>
      <trkpt lat="48.25298" lon="-3.52958">
        <ele>145.390303</ele>
        <time>2022-12-11T14:45:26.467Z</time>
      </trkpt>
      <trkpt lat="48.2529" lon="-3.52951">
        <ele>145.366247</ele>
        <time>2022-12-11T14:45:29.471Z</time>
      </trkpt>
      <trkpt lat="48.25282" lon="-3.52943">
        <ele>145.341421</ele>
        <time>2022-12-11T14:45:32.467Z</time>
      </trkpt>
      <trkpt lat="48.25275" lon="-3.52934">
        <ele>145.315961</ele>
        <time>2022-12-11T14:45:35.467Z</time>
      </trkpt>
      <trkpt lat="48.25267" lon="-3.52923">
        <ele>145.28864</ele>
        <time>2022-12-11T14:45:38.492Z</time>
      </trkpt>
      <trkpt lat="48.2526" lon="-3.5291">
        <ele>145.259283</ele>
        <time>2022-12-11T14:45:42.474Z</time>
      </trkpt>
      <trkpt lat="48.25255" lon="-3.52899">
        <ele>145.235717</ele>
        <time>2022-12-11T14:45:45.475Z</time>
      </trkpt>
      <trkpt lat="48.25251" lon="-3.52885">
        <ele>145.209932</ele>
        <time>2022-12-11T14:45:48.471Z</time>
      </trkpt>
      <trkpt lat="48.25249" lon="-3.52871">
        <ele>145.184078</ele>
        <time>2022-12-11T14:45:51.484Z</time>
      </trkpt>
      <trkpt lat="48.25247" lon="-3.52853">
        <ele>145.153714</ele>
        <time>2022-12-11T14:45:55.480Z</time>
      </trkpt>
      <trkpt lat="48.25247" lon="-3.52838">
        <ele>145.127202</ele>
        <time>2022-12-11T14:45:58.472Z</time>
      </trkpt>
      <trkpt lat="48.25249" lon="-3.52822">
        <ele>145.099366</ele>
        <time>2022-12-11T14:46:01.466Z</time>
      </trkpt>
      <trkpt lat="48.25251" lon="-3.52809">
        <ele>145.074724</ele>
        <time>2022-12-11T14:46:04.476Z</time>
      </trkpt>
      <trkpt lat="48.25255" lon="-3.52795">
        <ele>145.049262</ele>
        <time>2022-12-11T14:46:07.467Z</time>
      </trkpt>
      <trkpt lat="48.2526" lon="-3.52781">
        <ele>145.009207</ele>
        <time>2022-12-11T14:46:10.477Z</time>
      </trkpt>
      <trkpt lat="48.25267" lon="-3.52768">
        <ele>144.95537</ele>
        <time>2022-12-11T14:46:14.487Z</time>
      </trkpt>
      <trkpt lat="48.25273" lon="-3.52758">
        <ele>144.910853</ele>
        <time>2022-12-11T14:46:17.476Z</time>
      </trkpt>
      <trkpt lat="48.2528" lon="-3.52749">
        <ele>144.865596</ele>
        <time>2022-12-11T14:46:20.476Z</time>
      </trkpt>
      <trkpt lat="48.25288" lon="-3.52739">
        <ele>144.817566</ele>
        <time>2022-12-11T14:46:23.477Z</time>
      </trkpt>
      <trkpt lat="48.25294" lon="-3.5273">
        <ele>144.773865</ele>
        <time>2022-12-11T14:46:26.476Z</time>
      </trkpt>
      <trkpt lat="48.25305" lon="-3.52725">
        <ele>144.721927</ele>
        <time>2022-12-11T14:46:29.466Z</time>
      </trkpt>
      <trkpt lat="48.25315" lon="-3.52718">
        <ele>144.669024</ele>
        <time>2022-12-11T14:46:32.470Z</time>
      </trkpt>
      <trkpt lat="48.25325" lon="-3.52713">
        <ele>144.617544</ele>
        <time>2022-12-11T14:46:35.473Z</time>
      </trkpt>
      <trkpt lat="48.25333" lon="-3.52708">
        <ele>144.574217</ele>
        <time>2022-12-11T14:46:38.473Z</time>
      </trkpt>
      <trkpt lat="48.25343" lon="-3.52703">
        <ele>144.52563</ele>
        <time>2022-12-11T14:46:41.473Z</time>
      </trkpt>
      <trkpt lat="48.25353" lon="-3.52699">
        <ele>144.475083</ele>
        <time>2022-12-11T14:46:44.464Z</time>
      </trkpt>
      <trkpt lat="48.25362" lon="-3.52693">
        <ele>144.424277</ele>
        <time>2022-12-11T14:46:47.484Z</time>
      </trkpt>
      <trkpt lat="48.25372" lon="-3.52687">
        <ele>144.372369</ele>
        <time>2022-12-11T14:46:50.468Z</time>
      </trkpt>
      <trkpt lat="48.25382" lon="-3.52681">
        <ele>144.322326</ele>
        <time>2022-12-11T14:46:53.465Z</time>
      </trkpt>
      <trkpt lat="48.25391" lon="-3.52675">
        <ele>144.276207</ele>
        <time>2022-12-11T14:46:56.464Z</time>
      </trkpt>
      <trkpt lat="48.254" lon="-3.52668">
        <ele>144.225055</ele>
        <time>2022-12-11T14:46:59.467Z</time>
      </trkpt>
      <trkpt lat="48.2541" lon="-3.52663">
        <ele>144.173874</ele>
        <time>2022-12-11T14:47:02.470Z</time>
      </trkpt>
      <trkpt lat="48.2542" lon="-3.52656">
        <ele>144.049433</ele>
        <time>2022-12-11T14:47:05.460Z</time>
      </trkpt>
      <trkpt lat="48.2543" lon="-3.5265">
        <ele>143.914565</ele>
        <time>2022-12-11T14:47:08.483Z</time>
      </trkpt>
      <trkpt lat="48.25441" lon="-3.52643">
        <ele>143.777749</ele>
        <time>2022-12-11T14:47:11.487Z</time>
      </trkpt>
      <trkpt lat="48.25451" lon="-3.52638">
        <ele>143.637538</ele>
        <time>2022-12-11T14:47:14.477Z</time>
      </trkpt>
      <trkpt lat="48.25461" lon="-3.52632">
        <ele>143.51732</ele>
        <time>2022-12-11T14:47:17.468Z</time>
      </trkpt>
      <trkpt lat="48.2547" lon="-3.52627">
        <ele>143.395076</ele>
        <time>2022-12-11T14:47:20.472Z</time>
      </trkpt>
      <trkpt lat="48.2548" lon="-3.52621">
        <ele>143.268525</ele>
        <time>2022-12-11T14:47:23.485Z</time>
      </trkpt>
      <trkpt lat="48.25489" lon="-3.52614">
        <ele>143.138469</ele>
        <time>2022-12-11T14:47:26.469Z</time>
      </trkpt>
      <trkpt lat="48.25498" lon="-3.52608">
        <ele>143.020982</ele>
        <time>2022-12-11T14:47:29.468Z</time>
      </trkpt>
      <trkpt lat="48.25509" lon="-3.52604">
        <ele>142.876965</ele>
        <time>2022-12-11T14:47:33.472Z</time>
      </trkpt>
      <trkpt lat="48.25519" lon="-3.52598">
        <ele>142.750414</ele>
        <time>2022-12-11T14:47:36.465Z</time>
      </trkpt>
      <trkpt lat="48.25529" lon="-3.52592">
        <ele>142.623864</ele>
        <time>2022-12-11T14:47:39.478Z</time>
      </trkpt>
      <trkpt lat="48.25537" lon="-3.52587">
        <ele>142.511864</ele>
        <time>2022-12-11T14:47:42.484Z</time>
      </trkpt>
      <trkpt lat="48.25547" lon="-3.52581">
        <ele>142.380042</ele>
        <time>2022-12-11T14:47:46.468Z</time>
      </trkpt>
      <trkpt lat="48.25557" lon="-3.52576">
        <ele>142.253504</ele>
        <time>2022-12-11T14:47:49.471Z</time>
      </trkpt>
      <trkpt lat="48.25568" lon="-3.52574">
        <ele>142.114588</ele>
        <time>2022-12-11T14:47:52.488Z</time>
      </trkpt>
      <trkpt lat="48.25579" lon="-3.52568">
        <ele>141.980094</ele>
        <time>2022-12-11T14:47:55.467Z</time>
      </trkpt>
      <trkpt lat="48.25587" lon="-3.52562">
        <ele>142.019854</ele>
        <time>2022-12-11T14:47:58.475Z</time>
      </trkpt>
      <trkpt lat="48.25598" lon="-3.52556">
        <ele>142.08255</ele>
        <time>2022-12-11T14:48:02.467Z</time>
      </trkpt>
      <trkpt lat="48.25607" lon="-3.5255">
        <ele>142.133829</ele>
        <time>2022-12-11T14:48:05.481Z</time>
      </trkpt>
      <trkpt lat="48.25616" lon="-3.52546">
        <ele>142.186129</ele>
        <time>2022-12-11T14:48:08.472Z</time>
      </trkpt>
      <trkpt lat="48.25624" lon="-3.52539">
        <ele>142.236922</ele>
        <time>2022-12-11T14:48:11.471Z</time>
      </trkpt>
      <trkpt lat="48.25635" lon="-3.52533">
        <ele>142.303332</ele>
        <time>2022-12-11T14:48:15.473Z</time>
      </trkpt>
      <trkpt lat="48.25644" lon="-3.52529">
        <ele>142.351855</ele>
        <time>2022-12-11T14:48:18.481Z</time>
      </trkpt>
      <trkpt lat="48.25655" lon="-3.52524">
        <ele>142.413245</ele>
        <time>2022-12-11T14:48:22.474Z</time>
      </trkpt>
      <trkpt lat="48.25664" lon="-3.52517">
        <ele>142.466752</ele>
        <time>2022-12-11T14:48:26.464Z</time>
      </trkpt>
      <trkpt lat="48.25674" lon="-3.52513">
        <ele>142.522776</ele>
        <time>2022-12-11T14:48:30.460Z</time>
      </trkpt>
      <trkpt lat="48.25684" lon="-3.52506">
        <ele>142.584846</ele>
        <time>2022-12-11T14:48:34.468Z</time>
      </trkpt>
      <trkpt lat="48.25692" lon="-3.52499">
        <ele>142.636245</ele>
        <time>2022-12-11T14:48:37.471Z</time>
      </trkpt>
      <trkpt lat="48.25701" lon="-3.52495">
        <ele>142.685064</ele>
        <time>2022-12-11T14:48:40.470Z</time>
      </trkpt>
      <trkpt lat="48.25709" lon="-3.52489">
        <ele>142.735976</ele>
        <time>2022-12-11T14:48:44.467Z</time>
      </trkpt>
      <trkpt lat="48.25717" lon="-3.52479">
        <ele>142.792774</ele>
        <time>2022-12-11T14:48:48.479Z</time>
      </trkpt>
      <trkpt lat="48.25723" lon="-3.52463">
        <ele>142.856823</ele>
        <time>2022-12-11T14:48:52.479Z</time>
      </trkpt>
      <trkpt lat="48.25725" lon="-3.5245">
        <ele>142.905829</ele>
        <time>2022-12-11T14:48:55.471Z</time>
      </trkpt>
      <trkpt lat="48.25724" lon="-3.52432">
        <ele>143.0452</ele>
        <time>2022-12-11T14:48:59.470Z</time>
      </trkpt>
      <trkpt lat="48.2572" lon="-3.5242">
        <ele>143.261238</ele>
        <time>2022-12-11T14:49:02.468Z</time>
      </trkpt>
      <trkpt lat="48.25712" lon="-3.52408">
        <ele>143.516477</ele>
        <time>2022-12-11T14:49:05.468Z</time>
      </trkpt>
      <trkpt lat="48.25704" lon="-3.52399">
        <ele>143.766238</ele>
        <time>2022-12-11T14:49:08.470Z</time>
      </trkpt>
      <trkpt lat="48.25694" lon="-3.5239">
        <ele>144.033551</ele>
        <time>2022-12-11T14:49:12.479Z</time>
      </trkpt>
      <trkpt lat="48.25686" lon="-3.52383">
        <ele>144.251384</ele>
        <time>2022-12-11T14:49:15.469Z</time>
      </trkpt>
      <trkpt lat="48.25677" lon="-3.52375">
        <ele>144.494055</ele>
        <time>2022-12-11T14:49:18.474Z</time>
      </trkpt>
      <trkpt lat="48.25668" lon="-3.52368">
        <ele>144.731903</ele>
        <time>2022-12-11T14:49:21.482Z</time>
      </trkpt>
      <trkpt lat="48.2566" lon="-3.52361">
        <ele>144.946208</ele>
        <time>2022-12-11T14:49:24.482Z</time>
      </trkpt>
      <trkpt lat="48.2565" lon="-3.52352">
        <ele>145.213785</ele>
        <time>2022-12-11T14:49:28.472Z</time>
      </trkpt>
      <trkpt lat="48.25642" lon="-3.52345">
        <ele>145.435256</ele>
        <time>2022-12-11T14:49:31.473Z</time>
      </trkpt>
      <trkpt lat="48.25634" lon="-3.52338">
        <ele>145.649561</ele>
        <time>2022-12-11T14:49:34.473Z</time>
      </trkpt>
      <trkpt lat="48.25626" lon="-3.52331">
        <ele>145.869058</ele>
        <time>2022-12-11T14:49:37.469Z</time>
      </trkpt>
      <trkpt lat="48.25618" lon="-3.52324">
        <ele>146.090262</ele>
        <time>2022-12-11T14:49:40.495Z</time>
      </trkpt>
      <trkpt lat="48.25609" lon="-3.52317">
        <ele>146.320621</ele>
        <time>2022-12-11T14:49:43.486Z</time>
      </trkpt>
      <trkpt lat="48.25601" lon="-3.52312">
        <ele>146.530896</ele>
        <time>2022-12-11T14:49:46.474Z</time>
      </trkpt>
      <trkpt lat="48.25592" lon="-3.52306">
        <ele>146.760433</ele>
        <time>2022-12-11T14:49:50.485Z</time>
      </trkpt>
      <trkpt lat="48.25583" lon="-3.52297">
        <ele>147.021247</ele>
        <time>2022-12-11T14:49:54.480Z</time>
      </trkpt>
      <trkpt lat="48.25575" lon="-3.52289">
        <ele>147.127865</ele>
        <time>2022-12-11T14:49:58.472Z</time>
      </trkpt>
      <trkpt lat="48.25567" lon="-3.5228">
        <ele>147.047544</ele>
        <time>2022-12-11T14:50:02.474Z</time>
      </trkpt>
      <trkpt lat="48.25559" lon="-3.52273">
        <ele>146.972368</ele>
        <time>2022-12-11T14:50:05.473Z</time>
      </trkpt>
      <trkpt lat="48.25552" lon="-3.52265">
        <ele>146.897881</ele>
        <time>2022-12-11T14:50:08.475Z</time>
      </trkpt>
      <trkpt lat="48.25543" lon="-3.52254">
        <ele>146.800969</ele>
        <time>2022-12-11T14:50:12.481Z</time>
      </trkpt>
      <trkpt lat="48.25538" lon="-3.52242">
        <ele>146.718437</ele>
        <time>2022-12-11T14:50:16.466Z</time>
      </trkpt>
      <trkpt lat="48.25536" lon="-3.52226">
        <ele>146.631796</ele>
        <time>2022-12-11T14:50:21.481Z</time>
      </trkpt>
      <trkpt lat="48.25535" lon="-3.52212">
        <ele>146.553832</ele>
        <time>2022-12-11T14:50:26.474Z</time>
      </trkpt>
      <trkpt lat="48.25532" lon="-3.52198">
        <ele>146.473276</ele>
        <time>2022-12-11T14:50:32.474Z</time>
      </trkpt>
      <trkpt lat="48.25528" lon="-3.52168">
        <ele>146.305413</ele>
        <time>2022-12-11T14:50:55.472Z</time>
      </trkpt>
      <trkpt lat="48.2553" lon="-3.52152">
        <ele>146.215415</ele>
        <time>2022-12-11T14:50:58.469Z</time>
      </trkpt>
      <trkpt lat="48.25532" lon="-3.52135">
        <ele>146.116733</ele>
        <time>2022-12-11T14:51:01.468Z</time>
      </trkpt>
      <trkpt lat="48.25536" lon="-3.52121">
        <ele>146.034342</ele>
        <time>2022-12-11T14:51:04.474Z</time>
      </trkpt>
      <trkpt lat="48.25541" lon="-3.52108">
        <ele>145.948973</ele>
        <time>2022-12-11T14:51:07.464Z</time>
      </trkpt>
      <trkpt lat="48.25546" lon="-3.52094">
        <ele>145.865122</ele>
        <time>2022-12-11T14:51:10.472Z</time>
      </trkpt>
      <trkpt lat="48.25551" lon="-3.52079">
        <ele>145.771312</ele>
        <time>2022-12-11T14:51:13.470Z</time>
      </trkpt>
      <trkpt lat="48.25555" lon="-3.52064">
        <ele>145.682514</ele>
        <time>2022-12-11T14:51:16.472Z</time>
      </trkpt>
      <trkpt lat="48.25558" lon="-3.52051">
        <ele>145.541736</ele>
        <time>2022-12-11T14:51:19.470Z</time>
      </trkpt>
      <trkpt lat="48.25561" lon="-3.52036">
        <ele>145.373121</ele>
        <time>2022-12-11T14:51:22.471Z</time>
      </trkpt>
      <trkpt lat="48.25563" lon="-3.5202">
        <ele>145.200982</ele>
        <time>2022-12-11T14:51:25.471Z</time>
      </trkpt>
      <trkpt lat="48.25568" lon="-3.52005">
        <ele>145.020617</ele>
        <time>2022-12-11T14:51:28.474Z</time>
      </trkpt>
      <trkpt lat="48.25574" lon="-3.51991">
        <ele>144.845234</ele>
        <time>2022-12-11T14:51:31.492Z</time>
      </trkpt>
      <trkpt lat="48.25577" lon="-3.51978">
        <ele>144.686638</ele>
        <time>2022-12-11T14:51:34.473Z</time>
      </trkpt>
      <trkpt lat="48.25581" lon="-3.51963">
        <ele>144.520428</ele>
        <time>2022-12-11T14:51:37.477Z</time>
      </trkpt>
      <trkpt lat="48.25585" lon="-3.51951">
        <ele>144.37408</ele>
        <time>2022-12-11T14:51:40.490Z</time>
      </trkpt>
      <trkpt lat="48.2559" lon="-3.51933">
        <ele>144.168544</ele>
        <time>2022-12-11T14:51:44.474Z</time>
      </trkpt>
      <trkpt lat="48.25591" lon="-3.51917">
        <ele>143.985772</ele>
        <time>2022-12-11T14:51:47.475Z</time>
      </trkpt>
      <trkpt lat="48.2559" lon="-3.51901">
        <ele>143.816592</ele>
        <time>2022-12-11T14:51:49.475Z</time>
      </trkpt>
      <trkpt lat="48.25596" lon="-3.51886">
        <ele>143.631368</ele>
        <time>2022-12-11T14:51:52.473Z</time>
      </trkpt>
      <trkpt lat="48.256" lon="-3.5187">
        <ele>143.447811</ele>
        <time>2022-12-11T14:51:55.476Z</time>
      </trkpt>
      <trkpt lat="48.25604" lon="-3.51855">
        <ele>143.266345</ele>
        <time>2022-12-11T14:51:58.516Z</time>
      </trkpt>
      <trkpt lat="48.25608" lon="-3.5184">
        <ele>143.101947</ele>
        <time>2022-12-11T14:52:01.481Z</time>
      </trkpt>
      <trkpt lat="48.25609" lon="-3.51823">
        <ele>142.915307</ele>
        <time>2022-12-11T14:52:04.469Z</time>
      </trkpt>
      <trkpt lat="48.25614" lon="-3.51808">
        <ele>142.770827</ele>
        <time>2022-12-11T14:52:07.466Z</time>
      </trkpt>
      <trkpt lat="48.25618" lon="-3.51794">
        <ele>143.004682</ele>
        <time>2022-12-11T14:52:10.474Z</time>
      </trkpt>
      <trkpt lat="48.25622" lon="-3.51776">
        <ele>143.284227</ele>
        <time>2022-12-11T14:52:13.473Z</time>
      </trkpt>
      <trkpt lat="48.25626" lon="-3.51761">
        <ele>143.526396</ele>
        <time>2022-12-11T14:52:16.465Z</time>
      </trkpt>
      <trkpt lat="48.25631" lon="-3.51747">
        <ele>143.764923</ele>
        <time>2022-12-11T14:52:19.489Z</time>
      </trkpt>
      <trkpt lat="48.25636" lon="-3.51732">
        <ele>144.005402</ele>
        <time>2022-12-11T14:52:22.478Z</time>
      </trkpt>
      <trkpt lat="48.25641" lon="-3.51718">
        <ele>144.253915</ele>
        <time>2022-12-11T14:52:25.483Z</time>
      </trkpt>
      <trkpt lat="48.25646" lon="-3.51702">
        <ele>144.506845</ele>
        <time>2022-12-11T14:52:28.472Z</time>
      </trkpt>
      <trkpt lat="48.25651" lon="-3.51687">
        <ele>144.762041</ele>
        <time>2022-12-11T14:52:31.468Z</time>
      </trkpt>
      <trkpt lat="48.25655" lon="-3.51671">
        <ele>145.02437</ele>
        <time>2022-12-11T14:52:34.467Z</time>
      </trkpt>
      <trkpt lat="48.25659" lon="-3.51655">
        <ele>145.263903</ele>
        <time>2022-12-11T14:52:37.474Z</time>
      </trkpt>
      <trkpt lat="48.25663" lon="-3.51643">
        <ele>145.473159</ele>
        <time>2022-12-11T14:52:40.474Z</time>
      </trkpt>
      <trkpt lat="48.25667" lon="-3.51627">
        <ele>145.722523</ele>
        <time>2022-12-11T14:52:44.468Z</time>
      </trkpt>
      <trkpt lat="48.25672" lon="-3.5161">
        <ele>145.996408</ele>
        <time>2022-12-11T14:52:48.475Z</time>
      </trkpt>
      <trkpt lat="48.25676" lon="-3.51594">
        <ele>146.25285</ele>
        <time>2022-12-11T14:52:52.469Z</time>
      </trkpt>
      <trkpt lat="48.25678" lon="-3.51578">
        <ele>146.489655</ele>
        <time>2022-12-11T14:52:56.480Z</time>
      </trkpt>
      <trkpt lat="48.25682" lon="-3.51564">
        <ele>146.718628</ele>
        <time>2022-12-11T14:53:00.479Z</time>
      </trkpt>
      <trkpt lat="48.25686" lon="-3.5155">
        <ele>146.891364</ele>
        <time>2022-12-11T14:53:04.482Z</time>
      </trkpt>
      <trkpt lat="48.25687" lon="-3.51534">
        <ele>147.057804</ele>
        <time>2022-12-11T14:53:08.487Z</time>
      </trkpt>
      <trkpt lat="48.25692" lon="-3.51519">
        <ele>147.225243</ele>
        <time>2022-12-11T14:53:12.491Z</time>
      </trkpt>
      <trkpt lat="48.25695" lon="-3.51503">
        <ele>147.392927</ele>
        <time>2022-12-11T14:53:16.473Z</time>
      </trkpt>
      <trkpt lat="48.25699" lon="-3.51487">
        <ele>147.573842</ele>
        <time>2022-12-11T14:53:20.478Z</time>
      </trkpt>
      <trkpt lat="48.25702" lon="-3.51473">
        <ele>147.721516</ele>
        <time>2022-12-11T14:53:23.485Z</time>
      </trkpt>
      <trkpt lat="48.25704" lon="-3.51458">
        <ele>147.880638</ele>
        <time>2022-12-11T14:53:26.490Z</time>
      </trkpt>
      <trkpt lat="48.25707" lon="-3.51442">
        <ele>148.04778</ele>
        <time>2022-12-11T14:53:30.478Z</time>
      </trkpt>
      <trkpt lat="48.25709" lon="-3.51426">
        <ele>148.219266</ele>
        <time>2022-12-11T14:53:34.479Z</time>
      </trkpt>
      <trkpt lat="48.2571" lon="-3.51411">
        <ele>148.368504</ele>
        <time>2022-12-11T14:53:37.474Z</time>
      </trkpt>
      <trkpt lat="48.25708" lon="-3.51397">
        <ele>148.522945</ele>
        <time>2022-12-11T14:53:40.473Z</time>
      </trkpt>
      <trkpt lat="48.25707" lon="-3.51382">
        <ele>148.673311</ele>
        <time>2022-12-11T14:53:45.476Z</time>
      </trkpt>
      <trkpt lat="48.25705" lon="-3.51368">
        <ele>148.817722</ele>
        <time>2022-12-11T14:53:48.469Z</time>
      </trkpt>
      <trkpt lat="48.25703" lon="-3.51355">
        <ele>148.959535</ele>
        <time>2022-12-11T14:53:51.466Z</time>
      </trkpt>
      <trkpt lat="48.25699" lon="-3.51341">
        <ele>149.114506</ele>
        <time>2022-12-11T14:53:54.466Z</time>
      </trkpt>
      <trkpt lat="48.25696" lon="-3.51325">
        <ele>149.279247</ele>
        <time>2022-12-11T14:53:57.474Z</time>
      </trkpt>
      <trkpt lat="48.25692" lon="-3.51311">
        <ele>149.440477</ele>
        <time>2022-12-11T14:54:00.477Z</time>
      </trkpt>
      <trkpt lat="48.25689" lon="-3.51297">
        <ele>149.568213</ele>
        <time>2022-12-11T14:54:03.469Z</time>
      </trkpt>
      <trkpt lat="48.25685" lon="-3.51282">
        <ele>149.6687</ele>
        <time>2022-12-11T14:54:06.472Z</time>
      </trkpt>
      <trkpt lat="48.2568" lon="-3.51265">
        <ele>149.775345</ele>
        <time>2022-12-11T14:54:09.491Z</time>
      </trkpt>
      <trkpt lat="48.25676" lon="-3.51249">
        <ele>149.874109</ele>
        <time>2022-12-11T14:54:12.475Z</time>
      </trkpt>
      <trkpt lat="48.25673" lon="-3.51234">
        <ele>149.971834</ele>
        <time>2022-12-11T14:54:15.495Z</time>
      </trkpt>
      <trkpt lat="48.2567" lon="-3.51221">
        <ele>150.055123</ele>
        <time>2022-12-11T14:54:18.470Z</time>
      </trkpt>
      <trkpt lat="48.25665" lon="-3.51206">
        <ele>150.14802</ele>
        <time>2022-12-11T14:54:21.468Z</time>
      </trkpt>
      <trkpt lat="48.2566" lon="-3.5119">
        <ele>150.255721</ele>
        <time>2022-12-11T14:54:24.470Z</time>
      </trkpt>
      <trkpt lat="48.25656" lon="-3.51175">
        <ele>150.355124</ele>
        <time>2022-12-11T14:54:27.471Z</time>
      </trkpt>
      <trkpt lat="48.25652" lon="-3.51159">
        <ele>150.454764</ele>
        <time>2022-12-11T14:54:30.475Z</time>
      </trkpt>
      <trkpt lat="48.25648" lon="-3.51143">
        <ele>150.554665</ele>
        <time>2022-12-11T14:54:33.474Z</time>
      </trkpt>
      <trkpt lat="48.25645" lon="-3.51126">
        <ele>150.659379</ele>
        <time>2022-12-11T14:54:36.476Z</time>
      </trkpt>
      <trkpt lat="48.25641" lon="-3.51109">
        <ele>150.763495</ele>
        <time>2022-12-11T14:54:39.477Z</time>
      </trkpt>
      <trkpt lat="48.25637" lon="-3.51094">
        <ele>150.860601</ele>
        <time>2022-12-11T14:54:42.480Z</time>
      </trkpt>
      <trkpt lat="48.25633" lon="-3.51078">
        <ele>150.959942</ele>
        <time>2022-12-11T14:54:45.467Z</time>
      </trkpt>
      <trkpt lat="48.25629" lon="-3.51063">
        <ele>151.058541</ele>
        <time>2022-12-11T14:54:48.475Z</time>
      </trkpt>
      <trkpt lat="48.25626" lon="-3.51048">
        <ele>151.140155</ele>
        <time>2022-12-11T14:54:51.488Z</time>
      </trkpt>
      <trkpt lat="48.25624" lon="-3.51031">
        <ele>151.100269</ele>
        <time>2022-12-11T14:54:55.475Z</time>
      </trkpt>
      <trkpt lat="48.2562" lon="-3.51018">
        <ele>151.069523</ele>
        <time>2022-12-11T14:54:58.470Z</time>
      </trkpt>
      <trkpt lat="48.25618" lon="-3.51003">
        <ele>151.036619</ele>
        <time>2022-12-11T14:55:02.470Z</time>
      </trkpt>
      <trkpt lat="48.25614" lon="-3.50987">
        <ele>150.998329</ele>
        <time>2022-12-11T14:55:06.482Z</time>
      </trkpt>
      <trkpt lat="48.2561" lon="-3.50972">
        <ele>150.962191</ele>
        <time>2022-12-11T14:55:10.473Z</time>
      </trkpt>
      <trkpt lat="48.25606" lon="-3.50959">
        <ele>150.93091</ele>
        <time>2022-12-11T14:55:14.470Z</time>
      </trkpt>
      <trkpt lat="48.25602" lon="-3.50943">
        <ele>150.89336</ele>
        <time>2022-12-11T14:55:18.470Z</time>
      </trkpt>
      <trkpt lat="48.25598" lon="-3.50929">
        <ele>150.858578</ele>
        <time>2022-12-11T14:55:22.468Z</time>
      </trkpt>
      <trkpt lat="48.25596" lon="-3.50914">
        <ele>150.824055</ele>
        <time>2022-12-11T14:55:26.473Z</time>
      </trkpt>
      <trkpt lat="48.25591" lon="-3.50897">
        <ele>150.783754</ele>
        <time>2022-12-11T14:55:30.472Z</time>
      </trkpt>
      <trkpt lat="48.25587" lon="-3.50883">
        <ele>150.749657</ele>
        <time>2022-12-11T14:55:33.484Z</time>
      </trkpt>
      <trkpt lat="48.25583" lon="-3.50869">
        <ele>150.717788</ele>
        <time>2022-12-11T14:55:36.466Z</time>
      </trkpt>
      <trkpt lat="48.25579" lon="-3.50855">
        <ele>150.683747</ele>
        <time>2022-12-11T14:55:39.480Z</time>
      </trkpt>
      <trkpt lat="48.25575" lon="-3.50842">
        <ele>150.652069</ele>
        <time>2022-12-11T14:55:42.468Z</time>
      </trkpt>
      <trkpt lat="48.25571" lon="-3.50829">
        <ele>150.618783</ele>
        <time>2022-12-11T14:55:45.474Z</time>
      </trkpt>
      <trkpt lat="48.25568" lon="-3.50815">
        <ele>150.58577</ele>
        <time>2022-12-11T14:55:48.469Z</time>
      </trkpt>
      <trkpt lat="48.25566" lon="-3.50799">
        <ele>150.551177</ele>
        <time>2022-12-11T14:55:52.475Z</time>
      </trkpt>
      <trkpt lat="48.25564" lon="-3.50782">
        <ele>150.465726</ele>
        <time>2022-12-11T14:55:56.480Z</time>
      </trkpt>
      <trkpt lat="48.25565" lon="-3.50768">
        <ele>150.389943</ele>
        <time>2022-12-11T14:55:59.479Z</time>
      </trkpt>
      <trkpt lat="48.25567" lon="-3.50753">
        <ele>150.310865</ele>
        <time>2022-12-11T14:56:02.474Z</time>
      </trkpt>
      <trkpt lat="48.25571" lon="-3.50738">
        <ele>150.225735</ele>
        <time>2022-12-11T14:56:05.471Z</time>
      </trkpt>
      <trkpt lat="48.25575" lon="-3.50723">
        <ele>150.135774</ele>
        <time>2022-12-11T14:56:08.484Z</time>
      </trkpt>
      <trkpt lat="48.25581" lon="-3.50709">
        <ele>150.044118</ele>
        <time>2022-12-11T14:56:11.476Z</time>
      </trkpt>
      <trkpt lat="48.25588" lon="-3.50694">
        <ele>149.950369</ele>
        <time>2022-12-11T14:56:14.474Z</time>
      </trkpt>
      <trkpt lat="48.25595" lon="-3.50681">
        <ele>149.857156</ele>
        <time>2022-12-11T14:56:17.469Z</time>
      </trkpt>
      <trkpt lat="48.25603" lon="-3.50668">
        <ele>149.76387</ele>
        <time>2022-12-11T14:56:20.469Z</time>
      </trkpt>
      <trkpt lat="48.2561" lon="-3.50655">
        <ele>149.67347</ele>
        <time>2022-12-11T14:56:23.472Z</time>
      </trkpt>
      <trkpt lat="48.25617" lon="-3.50643">
        <ele>149.584532</ele>
        <time>2022-12-11T14:56:26.472Z</time>
      </trkpt>
      <trkpt lat="48.25624" lon="-3.5063">
        <ele>149.497633</ele>
        <time>2022-12-11T14:56:29.475Z</time>
      </trkpt>
      <trkpt lat="48.25631" lon="-3.50618">
        <ele>149.408171</ele>
        <time>2022-12-11T14:56:32.494Z</time>
      </trkpt>
      <trkpt lat="48.25638" lon="-3.50604">
        <ele>149.31349</ele>
        <time>2022-12-11T14:56:35.471Z</time>
      </trkpt>
      <trkpt lat="48.25646" lon="-3.50589">
        <ele>149.213138</ele>
        <time>2022-12-11T14:56:38.484Z</time>
      </trkpt>
      <trkpt lat="48.25653" lon="-3.50576">
        <ele>149.120362</ele>
        <time>2022-12-11T14:56:41.473Z</time>
      </trkpt>
      <trkpt lat="48.2566" lon="-3.50562">
        <ele>149.154434</ele>
        <time>2022-12-11T14:56:44.478Z</time>
      </trkpt>
      <trkpt lat="48.25667" lon="-3.50548">
        <ele>149.258992</ele>
        <time>2022-12-11T14:56:47.471Z</time>
      </trkpt>
      <trkpt lat="48.25674" lon="-3.50534">
        <ele>149.362543</ele>
        <time>2022-12-11T14:56:50.473Z</time>
      </trkpt>
      <trkpt lat="48.25682" lon="-3.50521">
        <ele>149.461334</ele>
        <time>2022-12-11T14:56:53.465Z</time>
      </trkpt>
      <trkpt lat="48.25689" lon="-3.50508">
        <ele>149.560199</ele>
        <time>2022-12-11T14:56:56.478Z</time>
      </trkpt>
      <trkpt lat="48.25696" lon="-3.50495">
        <ele>149.661548</ele>
        <time>2022-12-11T14:56:59.471Z</time>
      </trkpt>
      <trkpt lat="48.25702" lon="-3.50482">
        <ele>149.753606</ele>
        <time>2022-12-11T14:57:02.491Z</time>
      </trkpt>
      <trkpt lat="48.25707" lon="-3.50469">
        <ele>149.841703</ele>
        <time>2022-12-11T14:57:05.472Z</time>
      </trkpt>
      <trkpt lat="48.25712" lon="-3.50455">
        <ele>149.933771</ele>
        <time>2022-12-11T14:57:08.475Z</time>
      </trkpt>
      <trkpt lat="48.25716" lon="-3.5044">
        <ele>150.031199</ele>
        <time>2022-12-11T14:57:11.473Z</time>
      </trkpt>
      <trkpt lat="48.25717" lon="-3.50422">
        <ele>150.135723</ele>
        <time>2022-12-11T14:57:14.476Z</time>
      </trkpt>
      <trkpt lat="48.25719" lon="-3.50406">
        <ele>150.230705</ele>
        <time>2022-12-11T14:57:17.480Z</time>
      </trkpt>
      <trkpt lat="48.2572" lon="-3.50391">
        <ele>150.31977</ele>
        <time>2022-12-11T14:57:20.472Z</time>
      </trkpt>
      <trkpt lat="48.2572" lon="-3.50374">
        <ele>150.420906</ele>
        <time>2022-12-11T14:57:24.471Z</time>
      </trkpt>
      <trkpt lat="48.25717" lon="-3.50358">
        <ele>150.518887</ele>
        <time>2022-12-11T14:57:28.471Z</time>
      </trkpt>
      <trkpt lat="48.25715" lon="-3.50341">
        <ele>150.620678</ele>
        <time>2022-12-11T14:57:32.469Z</time>
      </trkpt>
      <trkpt lat="48.2571" lon="-3.50328">
        <ele>150.764837</ele>
        <time>2022-12-11T14:57:36.482Z</time>
      </trkpt>
      <trkpt lat="48.25707" lon="-3.50311">
        <ele>151.092322</ele>
        <time>2022-12-11T14:57:40.486Z</time>
      </trkpt>
      <trkpt lat="48.25703" lon="-3.50296">
        <ele>151.405498</ele>
        <time>2022-12-11T14:57:44.476Z</time>
      </trkpt>
      <trkpt lat="48.25698" lon="-3.50281">
        <ele>151.705559</ele>
        <time>2022-12-11T14:57:48.480Z</time>
      </trkpt>
      <trkpt lat="48.25695" lon="-3.50266">
        <ele>151.996656</ele>
        <time>2022-12-11T14:57:52.476Z</time>
      </trkpt>
      <trkpt lat="48.25691" lon="-3.50251">
        <ele>152.288655</ele>
        <time>2022-12-11T14:57:57.487Z</time>
      </trkpt>
      <trkpt lat="48.25686" lon="-3.50237">
        <ele>152.587402</ele>
        <time>2022-12-11T14:58:02.475Z</time>
      </trkpt>
      <trkpt lat="48.25682" lon="-3.50224">
        <ele>152.853338</ele>
        <time>2022-12-11T14:58:06.498Z</time>
      </trkpt>
      <trkpt lat="48.25678" lon="-3.50211">
        <ele>153.129565</ele>
        <time>2022-12-11T14:58:10.467Z</time>
      </trkpt>
      <trkpt lat="48.25673" lon="-3.50196">
        <ele>153.436603</ele>
        <time>2022-12-11T14:58:14.473Z</time>
      </trkpt>
      <trkpt lat="48.25669" lon="-3.50183">
        <ele>153.719446</ele>
        <time>2022-12-11T14:58:17.474Z</time>
      </trkpt>
      <trkpt lat="48.25665" lon="-3.5017">
        <ele>153.975221</ele>
        <time>2022-12-11T14:58:20.474Z</time>
      </trkpt>
      <trkpt lat="48.2566" lon="-3.50158">
        <ele>154.240253</ele>
        <time>2022-12-11T14:58:23.501Z</time>
      </trkpt>
      <trkpt lat="48.25655" lon="-3.50142">
        <ele>154.569834</ele>
        <time>2022-12-11T14:58:27.469Z</time>
      </trkpt>
      <trkpt lat="48.25651" lon="-3.50128">
        <ele>154.85399</ele>
        <time>2022-12-11T14:58:30.467Z</time>
      </trkpt>
      <trkpt lat="48.25647" lon="-3.50115">
        <ele>155.127344</ele>
        <time>2022-12-11T14:58:33.475Z</time>
      </trkpt>
      <trkpt lat="48.25643" lon="-3.501">
        <ele>155.431936</ele>
        <time>2022-12-11T14:58:36.475Z</time>
      </trkpt>
      <trkpt lat="48.25639" lon="-3.50084">
        <ele>155.726489</ele>
        <time>2022-12-11T14:58:39.479Z</time>
      </trkpt>
      <trkpt lat="48.25634" lon="-3.50071">
        <ele>155.866491</ele>
        <time>2022-12-11T14:58:42.481Z</time>
      </trkpt>
      <trkpt lat="48.2563" lon="-3.50058">
        <ele>155.994134</ele>
        <time>2022-12-11T14:58:45.486Z</time>
      </trkpt>
      <trkpt lat="48.25624" lon="-3.50046">
        <ele>156.124199</ele>
        <time>2022-12-11T14:58:48.478Z</time>
      </trkpt>
      <trkpt lat="48.25618" lon="-3.50034">
        <ele>156.266294</ele>
        <time>2022-12-11T14:58:51.466Z</time>
      </trkpt>
      <trkpt lat="48.2561" lon="-3.50023">
        <ele>156.409045</ele>
        <time>2022-12-11T14:58:54.473Z</time>
      </trkpt>
      <trkpt lat="48.25602" lon="-3.50014">
        <ele>156.550342</ele>
        <time>2022-12-11T14:58:57.489Z</time>
      </trkpt>
      <trkpt lat="48.25592" lon="-3.50004">
        <ele>156.707199</ele>
        <time>2022-12-11T14:59:01.475Z</time>
      </trkpt>
      <trkpt lat="48.25582" lon="-3.49996">
        <ele>156.872779</ele>
        <time>2022-12-11T14:59:05.488Z</time>
      </trkpt>
      <trkpt lat="48.25573" lon="-3.49989">
        <ele>157.00658</ele>
        <time>2022-12-11T14:59:08.469Z</time>
      </trkpt>
      <trkpt lat="48.25563" lon="-3.49983">
        <ele>157.150059</ele>
        <time>2022-12-11T14:59:11.467Z</time>
      </trkpt>
      <trkpt lat="48.25552" lon="-3.49979">
        <ele>157.304695</ele>
        <time>2022-12-11T14:59:14.483Z</time>
      </trkpt>
      <trkpt lat="48.25542" lon="-3.49973">
        <ele>157.453185</ele>
        <time>2022-12-11T14:59:17.471Z</time>
      </trkpt>
      <trkpt lat="48.25533" lon="-3.49967">
        <ele>157.58915</ele>
        <time>2022-12-11T14:59:20.471Z</time>
      </trkpt>
      <trkpt lat="48.25524" lon="-3.49959">
        <ele>157.728333</ele>
        <time>2022-12-11T14:59:23.469Z</time>
      </trkpt>
      <trkpt lat="48.25516" lon="-3.49951">
        <ele>157.864042</ele>
        <time>2022-12-11T14:59:26.473Z</time>
      </trkpt>
      <trkpt lat="48.25507" lon="-3.49944">
        <ele>157.997189</ele>
        <time>2022-12-11T14:59:29.487Z</time>
      </trkpt>
      <trkpt lat="48.25496" lon="-3.49938">
        <ele>158.160367</ele>
        <time>2022-12-11T14:59:32.473Z</time>
      </trkpt>
      <trkpt lat="48.25486" lon="-3.4993">
        <ele>157.534176</ele>
        <time>2022-12-11T14:59:35.480Z</time>
      </trkpt>
      <trkpt lat="48.25476" lon="-3.49924">
        <ele>156.903203</ele>
        <time>2022-12-11T14:59:38.474Z</time>
      </trkpt>
      <trkpt lat="48.25467" lon="-3.49918">
        <ele>156.342584</ele>
        <time>2022-12-11T14:59:41.471Z</time>
      </trkpt>
      <trkpt lat="48.25458" lon="-3.49912">
        <ele>155.729107</ele>
        <time>2022-12-11T14:59:44.472Z</time>
      </trkpt>
      <trkpt lat="48.25447" lon="-3.49905">
        <ele>155.065506</ele>
        <time>2022-12-11T14:59:47.476Z</time>
      </trkpt>
      <trkpt lat="48.25437" lon="-3.49899">
        <ele>154.429807</ele>
        <time>2022-12-11T14:59:50.469Z</time>
      </trkpt>
      <trkpt lat="48.25428" lon="-3.49891">
        <ele>153.821689</ele>
        <time>2022-12-11T14:59:53.472Z</time>
      </trkpt>
      <trkpt lat="48.2542" lon="-3.49886">
        <ele>153.264205</ele>
        <time>2022-12-11T14:59:56.475Z</time>
      </trkpt>
      <trkpt lat="48.25411" lon="-3.49879">
        <ele>152.688014</ele>
        <time>2022-12-11T14:59:59.471Z</time>
      </trkpt>
      <trkpt lat="48.25402" lon="-3.49874">
        <ele>152.136521</ele>
        <time>2022-12-11T15:00:02.484Z</time>
      </trkpt>
      <trkpt lat="48.25391" lon="-3.49867">
        <ele>151.432395</ele>
        <time>2022-12-11T15:00:06.466Z</time>
      </trkpt>
      <trkpt lat="48.25381" lon="-3.49859">
        <ele>150.731881</ele>
        <time>2022-12-11T15:00:10.483Z</time>
      </trkpt>
      <trkpt lat="48.25371" lon="-3.49851">
        <ele>150.085685</ele>
        <time>2022-12-11T15:00:14.471Z</time>
      </trkpt>
      <trkpt lat="48.25363" lon="-3.49844">
        <ele>149.543449</ele>
        <time>2022-12-11T15:00:17.470Z</time>
      </trkpt>
      <trkpt lat="48.25357" lon="-3.49833">
        <ele>148.978331</ele>
        <time>2022-12-11T15:00:20.474Z</time>
      </trkpt>
      <trkpt lat="48.2535" lon="-3.49819">
        <ele>148.305385</ele>
        <time>2022-12-11T15:00:24.475Z</time>
      </trkpt>
      <trkpt lat="48.25345" lon="-3.49807">
        <ele>147.768156</ele>
        <time>2022-12-11T15:00:27.474Z</time>
      </trkpt>
      <trkpt lat="48.25341" lon="-3.49793">
        <ele>147.898515</ele>
        <time>2022-12-11T15:00:30.474Z</time>
      </trkpt>
      <trkpt lat="48.25338" lon="-3.49779">
        <ele>148.360649</ele>
        <time>2022-12-11T15:00:33.470Z</time>
      </trkpt>
      <trkpt lat="48.25337" lon="-3.49764">
        <ele>148.814702</ele>
        <time>2022-12-11T15:00:36.474Z</time>
      </trkpt>
      <trkpt lat="48.25336" lon="-3.49749">
        <ele>149.266323</ele>
        <time>2022-12-11T15:00:39.465Z</time>
      </trkpt>
      <trkpt lat="48.25338" lon="-3.49734">
        <ele>149.72765</ele>
        <time>2022-12-11T15:00:43.469Z</time>
      </trkpt>
      <trkpt lat="48.25339" lon="-3.49717">
        <ele>150.252285</ele>
        <time>2022-12-11T15:00:47.479Z</time>
      </trkpt>
      <trkpt lat="48.25345" lon="-3.49704">
        <ele>150.73829</ele>
        <time>2022-12-11T15:00:52.473Z</time>
      </trkpt>
      <trkpt lat="48.25346" lon="-3.49687">
        <ele>151.244818</ele>
        <time>2022-12-11T15:00:56.468Z</time>
      </trkpt>
      <trkpt lat="48.25347" lon="-3.49671">
        <ele>151.739629</ele>
        <time>2022-12-11T15:01:01.476Z</time>
      </trkpt>
      <trkpt lat="48.2535" lon="-3.49655">
        <ele>152.223453</ele>
        <time>2022-12-11T15:01:05.472Z</time>
      </trkpt>
      <trkpt lat="48.25351" lon="-3.4964">
        <ele>152.682096</ele>
        <time>2022-12-11T15:01:09.474Z</time>
      </trkpt>
      <trkpt lat="48.25351" lon="-3.49625">
        <ele>153.151036</ele>
        <time>2022-12-11T15:01:13.477Z</time>
      </trkpt>
      <trkpt lat="48.25356" lon="-3.49611">
        <ele>153.604574</ele>
        <time>2022-12-11T15:01:18.492Z</time>
      </trkpt>
      <trkpt lat="48.25356" lon="-3.49596">
        <ele>154.062203</ele>
        <time>2022-12-11T15:01:22.470Z</time>
      </trkpt>
      <trkpt lat="48.25355" lon="-3.49581">
        <ele>154.533316</ele>
        <time>2022-12-11T15:01:25.489Z</time>
      </trkpt>
      <trkpt lat="48.25354" lon="-3.49564">
        <ele>155.039843</ele>
        <time>2022-12-11T15:01:29.474Z</time>
      </trkpt>
      <trkpt lat="48.25352" lon="-3.49547">
        <ele>155.553995</ele>
        <time>2022-12-11T15:01:33.467Z</time>
      </trkpt>
      <trkpt lat="48.25354" lon="-3.49532">
        <ele>155.749315</ele>
        <time>2022-12-11T15:01:37.475Z</time>
      </trkpt>
      <trkpt lat="48.25356" lon="-3.49515">
        <ele>155.751678</ele>
        <time>2022-12-11T15:01:41.474Z</time>
      </trkpt>
      <trkpt lat="48.25355" lon="-3.49499">
        <ele>155.753722</ele>
        <time>2022-12-11T15:01:44.475Z</time>
      </trkpt>
      <trkpt lat="48.25358" lon="-3.49486">
        <ele>155.755589</ele>
        <time>2022-12-11T15:01:49.468Z</time>
      </trkpt>
      <trkpt lat="48.25359" lon="-3.49472">
        <ele>155.757499</ele>
        <time>2022-12-11T15:01:53.490Z</time>
      </trkpt>
      <trkpt lat="48.25361" lon="-3.49455">
        <ele>155.759839</ele>
        <time>2022-12-11T15:01:57.469Z</time>
      </trkpt>
      <trkpt lat="48.25364" lon="-3.49438">
        <ele>155.762146</ele>
        <time>2022-12-11T15:02:02.482Z</time>
      </trkpt>
      <trkpt lat="48.25365" lon="-3.49422">
        <ele>155.764328</ele>
        <time>2022-12-11T15:02:06.473Z</time>
      </trkpt>
      <trkpt lat="48.25367" lon="-3.49407">
        <ele>155.766349</ele>
        <time>2022-12-11T15:02:09.472Z</time>
      </trkpt>
      <trkpt lat="48.25368" lon="-3.49394">
        <ele>155.768212</ele>
        <time>2022-12-11T15:02:12.495Z</time>
      </trkpt>
      <trkpt lat="48.25369" lon="-3.49378">
        <ele>155.770338</ele>
        <time>2022-12-11T15:02:15.492Z</time>
      </trkpt>
      <trkpt lat="48.25371" lon="-3.49364">
        <ele>155.772251</ele>
        <time>2022-12-11T15:02:18.488Z</time>
      </trkpt>
      <trkpt lat="48.25374" lon="-3.49349">
        <ele>155.774303</ele>
        <time>2022-12-11T15:02:21.476Z</time>
      </trkpt>
      <trkpt lat="48.25377" lon="-3.49334">
        <ele>155.776347</ele>
        <time>2022-12-11T15:02:24.473Z</time>
      </trkpt>
      <trkpt lat="48.25375" lon="-3.49318">
        <ele>155.778601</ele>
        <time>2022-12-11T15:02:27.475Z</time>
      </trkpt>
      <trkpt lat="48.25373" lon="-3.49303">
        <ele>155.780601</ele>
        <time>2022-12-11T15:02:30.479Z</time>
      </trkpt>
      <trkpt lat="48.25371" lon="-3.49288">
        <ele>155.782742</ele>
        <time>2022-12-11T15:02:33.468Z</time>
      </trkpt>
      <trkpt lat="48.2537" lon="-3.49273">
        <ele>155.795328</ele>
        <time>2022-12-11T15:02:36.466Z</time>
      </trkpt>
      <trkpt lat="48.25368" lon="-3.49255">
        <ele>155.863514</ele>
        <time>2022-12-11T15:02:39.483Z</time>
      </trkpt>
      <trkpt lat="48.25366" lon="-3.49238">
        <ele>155.929837</ele>
        <time>2022-12-11T15:02:42.514Z</time>
      </trkpt>
      <trkpt lat="48.25364" lon="-3.49224">
        <ele>155.982653</ele>
        <time>2022-12-11T15:02:45.476Z</time>
      </trkpt>
      <trkpt lat="48.25363" lon="-3.49207">
        <ele>156.045289</ele>
        <time>2022-12-11T15:02:49.491Z</time>
      </trkpt>
      <trkpt lat="48.25361" lon="-3.49193">
        <ele>156.09885</ele>
        <time>2022-12-11T15:02:52.466Z</time>
      </trkpt>
      <trkpt lat="48.2536" lon="-3.49179">
        <ele>156.153189</ele>
        <time>2022-12-11T15:02:55.475Z</time>
      </trkpt>
      <trkpt lat="48.25358" lon="-3.49165">
        <ele>156.20796</ele>
        <time>2022-12-11T15:02:58.497Z</time>
      </trkpt>
      <trkpt lat="48.25356" lon="-3.4915">
        <ele>156.265433</ele>
        <time>2022-12-11T15:03:01.486Z</time>
      </trkpt>
      <trkpt lat="48.25355" lon="-3.49135">
        <ele>156.322059</ele>
        <time>2022-12-11T15:03:05.469Z</time>
      </trkpt>
      <trkpt lat="48.25354" lon="-3.49121">
        <ele>156.377323</ele>
        <time>2022-12-11T15:03:09.474Z</time>
      </trkpt>
      <trkpt lat="48.25353" lon="-3.49104">
        <ele>156.439707</ele>
        <time>2022-12-11T15:03:13.477Z</time>
      </trkpt>
      <trkpt lat="48.25352" lon="-3.4909">
        <ele>156.492287</ele>
        <time>2022-12-11T15:03:16.467Z</time>
      </trkpt>
      <trkpt lat="48.25351" lon="-3.49077">
        <ele>156.543521</ele>
        <time>2022-12-11T15:03:19.470Z</time>
      </trkpt>
      <trkpt lat="48.25349" lon="-3.49063">
        <ele>156.59613</ele>
        <time>2022-12-11T15:03:22.474Z</time>
      </trkpt>
      <trkpt lat="48.25347" lon="-3.49049">
        <ele>156.651472</ele>
        <time>2022-12-11T15:03:25.471Z</time>
      </trkpt>
      <trkpt lat="48.25345" lon="-3.49035">
        <ele>156.705439</ele>
        <time>2022-12-11T15:03:28.472Z</time>
      </trkpt>
      <trkpt lat="48.25343" lon="-3.4902">
        <ele>156.764445</ele>
        <time>2022-12-11T15:03:31.470Z</time>
      </trkpt>
      <trkpt lat="48.25342" lon="-3.49006">
        <ele>156.799093</ele>
        <time>2022-12-11T15:03:34.471Z</time>
      </trkpt>
      <trkpt lat="48.2534" lon="-3.4899">
        <ele>156.769582</ele>
        <time>2022-12-11T15:03:38.475Z</time>
      </trkpt>
      <trkpt lat="48.25339" lon="-3.48974">
        <ele>156.74171</ele>
        <time>2022-12-11T15:03:42.479Z</time>
      </trkpt>
      <trkpt lat="48.25336" lon="-3.4896">
        <ele>156.714047</ele>
        <time>2022-12-11T15:03:46.470Z</time>
      </trkpt>
      <trkpt lat="48.25334" lon="-3.48944">
        <ele>156.68538</ele>
        <time>2022-12-11T15:03:50.475Z</time>
      </trkpt>
      <trkpt lat="48.25332" lon="-3.48929">
        <ele>156.658057</ele>
        <time>2022-12-11T15:03:54.468Z</time>
      </trkpt>
      <trkpt lat="48.25331" lon="-3.48913">
        <ele>156.628601</ele>
        <time>2022-12-11T15:03:59.484Z</time>
      </trkpt>
      <trkpt lat="48.2533" lon="-3.48896">
        <ele>156.598142</ele>
        <time>2022-12-11T15:04:03.472Z</time>
      </trkpt>
      <trkpt lat="48.25328" lon="-3.48879">
        <ele>156.565653</ele>
        <time>2022-12-11T15:04:07.477Z</time>
      </trkpt>
      <trkpt lat="48.25325" lon="-3.48864">
        <ele>156.538138</ele>
        <time>2022-12-11T15:04:10.484Z</time>
      </trkpt>
      <trkpt lat="48.25323" lon="-3.48848">
        <ele>156.509013</ele>
        <time>2022-12-11T15:04:14.471Z</time>
      </trkpt>
      <trkpt lat="48.25321" lon="-3.48831">
        <ele>156.477508</ele>
        <time>2022-12-11T15:04:18.479Z</time>
      </trkpt>
      <trkpt lat="48.2532" lon="-3.48813">
        <ele>156.444563</ele>
        <time>2022-12-11T15:04:22.470Z</time>
      </trkpt>
      <trkpt lat="48.25319" lon="-3.48795">
        <ele>156.413073</ele>
        <time>2022-12-11T15:04:26.466Z</time>
      </trkpt>
      <trkpt lat="48.25317" lon="-3.48778">
        <ele>156.381449</ele>
        <time>2022-12-11T15:04:30.475Z</time>
      </trkpt>
      <trkpt lat="48.25318" lon="-3.48762">
        <ele>156.352748</ele>
        <time>2022-12-11T15:04:33.469Z</time>
      </trkpt>
      <trkpt lat="48.25319" lon="-3.48747">
        <ele>156.325954</ele>
        <time>2022-12-11T15:04:36.471Z</time>
      </trkpt>
      <trkpt lat="48.25322" lon="-3.48732">
        <ele>156.352979</ele>
        <time>2022-12-11T15:04:39.477Z</time>
      </trkpt>
      <trkpt lat="48.25326" lon="-3.4872">
        <ele>156.398052</ele>
        <time>2022-12-11T15:04:42.476Z</time>
      </trkpt>
      <trkpt lat="48.25332" lon="-3.48706">
        <ele>156.451612</ele>
        <time>2022-12-11T15:04:46.469Z</time>
      </trkpt>
      <trkpt lat="48.25339" lon="-3.48695">
        <ele>156.500616</ele>
        <time>2022-12-11T15:04:49.497Z</time>
      </trkpt>
      <trkpt lat="48.25346" lon="-3.48684">
        <ele>156.551795</ele>
        <time>2022-12-11T15:04:52.478Z</time>
      </trkpt>
      <trkpt lat="48.25353" lon="-3.48675">
        <ele>156.598902</ele>
        <time>2022-12-11T15:04:55.474Z</time>
      </trkpt>
      <trkpt lat="48.25362" lon="-3.48666">
        <ele>156.650303</ele>
        <time>2022-12-11T15:04:59.487Z</time>
      </trkpt>
      <trkpt lat="48.2537" lon="-3.48658">
        <ele>156.696402</ele>
        <time>2022-12-11T15:05:02.474Z</time>
      </trkpt>
      <trkpt lat="48.25377" lon="-3.48649">
        <ele>156.741337</ele>
        <time>2022-12-11T15:05:05.471Z</time>
      </trkpt>
      <trkpt lat="48.25386" lon="-3.4864">
        <ele>156.79649</ele>
        <time>2022-12-11T15:05:09.490Z</time>
      </trkpt>
      <trkpt lat="48.25395" lon="-3.48631">
        <ele>156.848698</ele>
        <time>2022-12-11T15:05:12.488Z</time>
      </trkpt>
      <trkpt lat="48.25405" lon="-3.48621">
        <ele>156.906965</ele>
        <time>2022-12-11T15:05:16.473Z</time>
      </trkpt>
      <trkpt lat="48.25412" lon="-3.48612">
        <ele>156.952646</ele>
        <time>2022-12-11T15:05:19.478Z</time>
      </trkpt>
      <trkpt lat="48.2542" lon="-3.48602">
        <ele>157.002306</ele>
        <time>2022-12-11T15:05:22.477Z</time>
      </trkpt>
      <trkpt lat="48.25428" lon="-3.48593">
        <ele>157.052303</ele>
        <time>2022-12-11T15:05:25.466Z</time>
      </trkpt>
      <trkpt lat="48.25437" lon="-3.48583">
        <ele>157.105436</ele>
        <time>2022-12-11T15:05:28.468Z</time>
      </trkpt>
      <trkpt lat="48.25445" lon="-3.48573">
        <ele>157.158182</ele>
        <time>2022-12-11T15:05:32.470Z</time>
      </trkpt>
      <trkpt lat="48.25453" lon="-3.48559">
        <ele>157.281684</ele>
        <time>2022-12-11T15:05:36.471Z</time>
      </trkpt>
      <trkpt lat="48.25461" lon="-3.48551">
        <ele>157.475424</ele>
        <time>2022-12-11T15:05:39.476Z</time>
      </trkpt>
      <trkpt lat="48.25469" lon="-3.48543">
        <ele>157.692416</ele>
        <time>2022-12-11T15:05:44.480Z</time>
      </trkpt>
      <trkpt lat="48.25477" lon="-3.48534">
        <ele>157.880269</ele>
        <time>2022-12-11T15:05:48.486Z</time>
      </trkpt>
      <trkpt lat="48.25482" lon="-3.48523">
        <ele>158.075358</ele>
        <time>2022-12-11T15:05:51.473Z</time>
      </trkpt>
      <trkpt lat="48.2549" lon="-3.48515">
        <ele>158.268242</ele>
        <time>2022-12-11T15:05:54.472Z</time>
      </trkpt>
      <trkpt lat="48.25497" lon="-3.48504">
        <ele>158.477959</ele>
        <time>2022-12-11T15:05:57.469Z</time>
      </trkpt>
      <trkpt lat="48.25504" lon="-3.48492">
        <ele>158.707697</ele>
        <time>2022-12-11T15:06:01.472Z</time>
      </trkpt>
      <trkpt lat="48.25512" lon="-3.48484">
        <ele>158.898908</ele>
        <time>2022-12-11T15:06:04.478Z</time>
      </trkpt>
      <trkpt lat="48.25519" lon="-3.48476">
        <ele>159.095949</ele>
        <time>2022-12-11T15:06:07.487Z</time>
      </trkpt>
      <trkpt lat="48.25528" lon="-3.48468">
        <ele>159.299306</ele>
        <time>2022-12-11T15:06:10.469Z</time>
      </trkpt>
      <trkpt lat="48.25534" lon="-3.48458">
        <ele>159.496521</ele>
        <time>2022-12-11T15:06:13.482Z</time>
      </trkpt>
      <trkpt lat="48.25539" lon="-3.48446">
        <ele>159.690953</ele>
        <time>2022-12-11T15:06:16.476Z</time>
      </trkpt>
      <trkpt lat="48.25544" lon="-3.48432">
        <ele>159.90153</ele>
        <time>2022-12-11T15:06:19.488Z</time>
      </trkpt>
      <trkpt lat="48.25547" lon="-3.48418">
        <ele>160.109961</ele>
        <time>2022-12-11T15:06:22.468Z</time>
      </trkpt>
      <trkpt lat="48.2555" lon="-3.48404">
        <ele>160.311797</ele>
        <time>2022-12-11T15:06:25.472Z</time>
      </trkpt>
      <trkpt lat="48.25553" lon="-3.4839">
        <ele>160.513876</ele>
        <time>2022-12-11T15:06:28.468Z</time>
      </trkpt>
      <trkpt lat="48.25554" lon="-3.48373">
        <ele>160.753679</ele>
        <time>2022-12-11T15:06:32.470Z</time>
      </trkpt>
      <trkpt lat="48.25555" lon="-3.48358">
        <ele>160.956832</ele>
        <time>2022-12-11T15:06:36.471Z</time>
      </trkpt>
      <trkpt lat="48.25554" lon="-3.48344">
        <ele>160.97762</ele>
        <time>2022-12-11T15:06:39.471Z</time>
      </trkpt>
      <trkpt lat="48.25552" lon="-3.48326">
        <ele>161.003363</ele>
        <time>2022-12-11T15:06:43.473Z</time>
      </trkpt>
      <trkpt lat="48.25548" lon="-3.48311">
        <ele>161.026406</ele>
        <time>2022-12-11T15:06:46.469Z</time>
      </trkpt>
      <trkpt lat="48.25545" lon="-3.48298">
        <ele>161.046688</ele>
        <time>2022-12-11T15:06:49.476Z</time>
      </trkpt>
      <trkpt lat="48.2554" lon="-3.48282">
        <ele>161.07239</ele>
        <time>2022-12-11T15:06:53.475Z</time>
      </trkpt>
      <trkpt lat="48.25537" lon="-3.48265">
        <ele>161.098331</ele>
        <time>2022-12-11T15:06:57.478Z</time>
      </trkpt>
      <trkpt lat="48.25534" lon="-3.48252">
        <ele>161.118857</ele>
        <time>2022-12-11T15:07:00.476Z</time>
      </trkpt>
      <trkpt lat="48.2553" lon="-3.48236">
        <ele>161.142923</ele>
        <time>2022-12-11T15:07:04.473Z</time>
      </trkpt>
      <trkpt lat="48.25525" lon="-3.48221">
        <ele>161.167425</ele>
        <time>2022-12-11T15:07:08.470Z</time>
      </trkpt>
      <trkpt lat="48.2552" lon="-3.48208">
        <ele>161.189424</ele>
        <time>2022-12-11T15:07:11.466Z</time>
      </trkpt>
      <trkpt lat="48.25516" lon="-3.48191">
        <ele>161.215159</ele>
        <time>2022-12-11T15:07:15.482Z</time>
      </trkpt>
      <trkpt lat="48.25513" lon="-3.48179">
        <ele>161.234713</ele>
        <time>2022-12-11T15:07:18.471Z</time>
      </trkpt>
      <trkpt lat="48.25509" lon="-3.48164">
        <ele>161.257102</ele>
        <time>2022-12-11T15:07:21.497Z</time>
      </trkpt>
      <trkpt lat="48.25506" lon="-3.48151">
        <ele>161.278214</ele>
        <time>2022-12-11T15:07:24.470Z</time>
      </trkpt>
      <trkpt lat="48.25502" lon="-3.48137">
        <ele>161.300199</ele>
        <time>2022-12-11T15:07:27.476Z</time>
      </trkpt>
      <trkpt lat="48.25499" lon="-3.48123">
        <ele>161.321968</ele>
        <time>2022-12-11T15:07:30.485Z</time>
      </trkpt>
      <trkpt lat="48.25494" lon="-3.48106">
        <ele>161.347931</ele>
        <time>2022-12-11T15:07:34.473Z</time>
      </trkpt>
      <trkpt lat="48.25489" lon="-3.4809">
        <ele>161.214254</ele>
        <time>2022-12-11T15:07:37.478Z</time>
      </trkpt>
      <trkpt lat="48.25486" lon="-3.48074">
        <ele>161.086465</ele>
        <time>2022-12-11T15:07:40.473Z</time>
      </trkpt>
      <trkpt lat="48.25482" lon="-3.4806">
        <ele>160.965617</ele>
        <time>2022-12-11T15:07:43.484Z</time>
      </trkpt>
      <trkpt lat="48.2548" lon="-3.48046">
        <ele>160.860422</ele>
        <time>2022-12-11T15:07:46.492Z</time>
      </trkpt>
      <trkpt lat="48.25477" lon="-3.48032">
        <ele>160.739065</ele>
        <time>2022-12-11T15:07:49.472Z</time>
      </trkpt>
      <trkpt lat="48.25474" lon="-3.48018">
        <ele>160.631225</ele>
        <time>2022-12-11T15:07:52.486Z</time>
      </trkpt>
      <trkpt lat="48.25473" lon="-3.48002">
        <ele>160.503826</ele>
        <time>2022-12-11T15:07:56.476Z</time>
      </trkpt>
      <trkpt lat="48.25473" lon="-3.47986">
        <ele>160.385874</ele>
        <time>2022-12-11T15:08:00.493Z</time>
      </trkpt>
      <trkpt lat="48.25473" lon="-3.47972">
        <ele>160.276585</ele>
        <time>2022-12-11T15:08:03.473Z</time>
      </trkpt>
      <trkpt lat="48.25474" lon="-3.47957">
        <ele>160.158474</ele>
        <time>2022-12-11T15:08:06.477Z</time>
      </trkpt>
      <trkpt lat="48.25478" lon="-3.47945">
        <ele>160.054601</ele>
        <time>2022-12-11T15:08:09.468Z</time>
      </trkpt>
      <trkpt lat="48.25483" lon="-3.47932">
        <ele>159.943136</ele>
        <time>2022-12-11T15:08:13.469Z</time>
      </trkpt>
      <trkpt lat="48.25489" lon="-3.47919">
        <ele>159.8246</ele>
        <time>2022-12-11T15:08:17.474Z</time>
      </trkpt>
      <trkpt lat="48.25492" lon="-3.47903">
        <ele>159.691337</ele>
        <time>2022-12-11T15:08:21.497Z</time>
      </trkpt>
      <trkpt lat="48.25493" lon="-3.47886">
        <ele>159.559997</ele>
        <time>2022-12-11T15:08:24.481Z</time>
      </trkpt>
      <trkpt lat="48.25498" lon="-3.47872">
        <ele>159.439333</ele>
        <time>2022-12-11T15:08:27.474Z</time>
      </trkpt>
      <trkpt lat="48.25503" lon="-3.47857">
        <ele>159.3081</ele>
        <time>2022-12-11T15:08:31.488Z</time>
      </trkpt>
      <trkpt lat="48.2551" lon="-3.47845">
        <ele>159.421635</ele>
        <time>2022-12-11T15:08:35.475Z</time>
      </trkpt>
      <trkpt lat="48.25515" lon="-3.4783">
        <ele>159.66412</ele>
        <time>2022-12-11T15:08:39.477Z</time>
      </trkpt>
      <trkpt lat="48.25519" lon="-3.47818">
        <ele>159.874157</ele>
        <time>2022-12-11T15:08:42.474Z</time>
      </trkpt>
      <trkpt lat="48.25523" lon="-3.47805">
        <ele>160.07645</ele>
        <time>2022-12-11T15:08:45.476Z</time>
      </trkpt>
      <trkpt lat="48.25527" lon="-3.47792">
        <ele>160.289683</ele>
        <time>2022-12-11T15:08:48.474Z</time>
      </trkpt>
      <trkpt lat="48.25531" lon="-3.47778">
        <ele>160.503867</ele>
        <time>2022-12-11T15:08:51.472Z</time>
      </trkpt>
      <trkpt lat="48.25536" lon="-3.47765">
        <ele>160.733155</ele>
        <time>2022-12-11T15:08:54.473Z</time>
      </trkpt>
      <trkpt lat="48.25541" lon="-3.4775">
        <ele>160.968735</ele>
        <time>2022-12-11T15:08:57.485Z</time>
      </trkpt>
      <trkpt lat="48.25546" lon="-3.47738">
        <ele>161.183951</ele>
        <time>2022-12-11T15:09:00.476Z</time>
      </trkpt>
      <trkpt lat="48.25552" lon="-3.47725">
        <ele>161.417535</ele>
        <time>2022-12-11T15:09:04.473Z</time>
      </trkpt>
      <trkpt lat="48.25557" lon="-3.4771">
        <ele>161.672952</ele>
        <time>2022-12-11T15:09:08.484Z</time>
      </trkpt>
      <trkpt lat="48.25562" lon="-3.47697">
        <ele>161.888751</ele>
        <time>2022-12-11T15:09:11.473Z</time>
      </trkpt>
      <trkpt lat="48.25567" lon="-3.47683">
        <ele>162.115905</ele>
        <time>2022-12-11T15:09:14.475Z</time>
      </trkpt>
      <trkpt lat="48.25572" lon="-3.4767">
        <ele>162.347557</ele>
        <time>2022-12-11T15:09:17.467Z</time>
      </trkpt>
      <trkpt lat="48.25578" lon="-3.47656">
        <ele>162.587471</ele>
        <time>2022-12-11T15:09:20.484Z</time>
      </trkpt>
      <trkpt lat="48.25583" lon="-3.47639">
        <ele>162.853938</ele>
        <time>2022-12-11T15:09:23.486Z</time>
      </trkpt>
      <trkpt lat="48.25588" lon="-3.47627">
        <ele>163.065268</ele>
        <time>2022-12-11T15:09:26.475Z</time>
      </trkpt>
      <trkpt lat="48.25592" lon="-3.47611">
        <ele>163.227347</ele>
        <time>2022-12-11T15:09:30.476Z</time>
      </trkpt>
      <trkpt lat="48.25596" lon="-3.47597">
        <ele>163.200921</ele>
        <time>2022-12-11T15:09:33.478Z</time>
      </trkpt>
      <trkpt lat="48.25601" lon="-3.47581">
        <ele>163.171342</ele>
        <time>2022-12-11T15:09:36.473Z</time>
      </trkpt>
      <trkpt lat="48.25605" lon="-3.47566">
        <ele>163.14172</ele>
        <time>2022-12-11T15:09:39.471Z</time>
      </trkpt>
      <trkpt lat="48.25611" lon="-3.47551">
        <ele>163.111438</ele>
        <time>2022-12-11T15:09:42.475Z</time>
      </trkpt>
      <trkpt lat="48.25615" lon="-3.47535">
        <ele>163.08053</ele>
        <time>2022-12-11T15:09:45.472Z</time>
      </trkpt>
      <trkpt lat="48.2562" lon="-3.47519">
        <ele>163.049998</ele>
        <time>2022-12-11T15:09:48.476Z</time>
      </trkpt>
      <trkpt lat="48.25625" lon="-3.47504">
        <ele>163.020253</ele>
        <time>2022-12-11T15:09:51.482Z</time>
      </trkpt>
      <trkpt lat="48.25631" lon="-3.47492">
        <ele>162.993861</ele>
        <time>2022-12-11T15:09:54.487Z</time>
      </trkpt>
      <trkpt lat="48.25637" lon="-3.47478">
        <ele>162.964254</ele>
        <time>2022-12-11T15:09:58.479Z</time>
      </trkpt>
      <trkpt lat="48.25641" lon="-3.47465">
        <ele>162.938856</ele>
        <time>2022-12-11T15:10:01.483Z</time>
      </trkpt>
      <trkpt lat="48.25644" lon="-3.47451">
        <ele>162.912234</ele>
        <time>2022-12-11T15:10:04.492Z</time>
      </trkpt>
      <trkpt lat="48.25649" lon="-3.47436">
        <ele>162.883962</ele>
        <time>2022-12-11T15:10:08.477Z</time>
      </trkpt>
      <trkpt lat="48.25652" lon="-3.47424">
        <ele>162.859714</ele>
        <time>2022-12-11T15:10:12.476Z</time>
      </trkpt>
      <trkpt lat="48.25656" lon="-3.47408">
        <ele>162.830373</ele>
        <time>2022-12-11T15:10:17.477Z</time>
      </trkpt>
      <trkpt lat="48.25661" lon="-3.47392">
        <ele>162.800244</ele>
        <time>2022-12-11T15:10:21.477Z</time>
      </trkpt>
      <trkpt lat="48.25667" lon="-3.4738">
        <ele>162.7738</ele>
        <time>2022-12-11T15:10:24.480Z</time>
      </trkpt>
      <trkpt lat="48.25671" lon="-3.47368">
        <ele>162.816954</ele>
        <time>2022-12-11T15:10:27.484Z</time>
      </trkpt>
      <trkpt lat="48.25675" lon="-3.47352">
        <ele>162.958058</ele>
        <time>2022-12-11T15:10:31.474Z</time>
      </trkpt>
      <trkpt lat="48.25679" lon="-3.47336">
        <ele>163.098708</ele>
        <time>2022-12-11T15:10:35.476Z</time>
      </trkpt>
      <trkpt lat="48.25677" lon="-3.47322">
        <ele>163.215138</ele>
        <time>2022-12-11T15:10:38.487Z</time>
      </trkpt>
      <trkpt lat="48.25675" lon="-3.47307">
        <ele>163.340057</ele>
        <time>2022-12-11T15:10:41.476Z</time>
      </trkpt>
      <trkpt lat="48.25674" lon="-3.4729">
        <ele>163.475988</ele>
        <time>2022-12-11T15:10:45.497Z</time>
      </trkpt>
      <trkpt lat="48.25673" lon="-3.47274">
        <ele>163.606977</ele>
        <time>2022-12-11T15:10:49.490Z</time>
      </trkpt>
      <trkpt lat="48.2567" lon="-3.47261">
        <ele>163.71862</ele>
        <time>2022-12-11T15:10:52.476Z</time>
      </trkpt>
      <trkpt lat="48.25668" lon="-3.47248">
        <ele>163.830256</ele>
        <time>2022-12-11T15:10:55.474Z</time>
      </trkpt>
      <trkpt lat="48.25665" lon="-3.47231">
        <ele>163.973284</ele>
        <time>2022-12-11T15:10:59.469Z</time>
      </trkpt>
      <trkpt lat="48.25663" lon="-3.47217">
        <ele>164.09189</ele>
        <time>2022-12-11T15:11:02.471Z</time>
      </trkpt>
      <trkpt lat="48.2566" lon="-3.47203">
        <ele>164.214411</ele>
        <time>2022-12-11T15:11:05.479Z</time>
      </trkpt>
      <trkpt lat="48.25656" lon="-3.4719">
        <ele>164.327895</ele>
        <time>2022-12-11T15:11:08.469Z</time>
      </trkpt>
      <trkpt lat="48.25653" lon="-3.47175">
        <ele>164.456539</ele>
        <time>2022-12-11T15:11:12.487Z</time>
      </trkpt>
      <trkpt lat="48.25649" lon="-3.47161">
        <ele>164.580972</ele>
        <time>2022-12-11T15:11:18.482Z</time>
      </trkpt>
      <trkpt lat="48.25647" lon="-3.47146">
        <ele>164.70538</ele>
        <time>2022-12-11T15:11:23.471Z</time>
      </trkpt>
      <trkpt lat="48.25643" lon="-3.47131">
        <ele>164.836793</ele>
        <time>2022-12-11T15:11:27.493Z</time>
      </trkpt>
      <trkpt lat="48.25641" lon="-3.47117">
        <ele>164.95002</ele>
        <time>2022-12-11T15:11:30.479Z</time>
      </trkpt>
      <trkpt lat="48.25638" lon="-3.47104">
        <ele>164.920368</ele>
        <time>2022-12-11T15:11:33.474Z</time>
      </trkpt>
      <trkpt lat="48.25636" lon="-3.47088">
        <ele>164.849558</ele>
        <time>2022-12-11T15:11:37.474Z</time>
      </trkpt>
      <trkpt lat="48.25633" lon="-3.47071">
        <ele>164.777312</ele>
        <time>2022-12-11T15:11:41.476Z</time>
      </trkpt>
      <trkpt lat="48.25631" lon="-3.47054">
        <ele>164.702096</ele>
        <time>2022-12-11T15:11:45.487Z</time>
      </trkpt>
      <trkpt lat="48.25628" lon="-3.47041">
        <ele>164.644681</ele>
        <time>2022-12-11T15:11:48.490Z</time>
      </trkpt>
      <trkpt lat="48.25625" lon="-3.47027">
        <ele>164.585898</ele>
        <time>2022-12-11T15:11:51.477Z</time>
      </trkpt>
      <trkpt lat="48.25623" lon="-3.47013">
        <ele>164.524041</ele>
        <time>2022-12-11T15:11:54.486Z</time>
      </trkpt>
      <trkpt lat="48.25621" lon="-3.46999">
        <ele>164.465169</ele>
        <time>2022-12-11T15:11:57.470Z</time>
      </trkpt>
      <trkpt lat="48.2562" lon="-3.46984">
        <ele>164.399082</ele>
        <time>2022-12-11T15:12:00.499Z</time>
      </trkpt>
      <trkpt lat="48.25616" lon="-3.46968">
        <ele>164.32894</ele>
        <time>2022-12-11T15:12:03.480Z</time>
      </trkpt>
      <trkpt lat="48.25614" lon="-3.46952">
        <ele>164.259435</ele>
        <time>2022-12-11T15:12:06.470Z</time>
      </trkpt>
      <trkpt lat="48.25611" lon="-3.46936">
        <ele>164.191273</ele>
        <time>2022-12-11T15:12:09.479Z</time>
      </trkpt>
      <trkpt lat="48.25608" lon="-3.46922">
        <ele>164.130052</ele>
        <time>2022-12-11T15:12:12.477Z</time>
      </trkpt>
      <trkpt lat="48.25605" lon="-3.46908">
        <ele>164.067277</ele>
        <time>2022-12-11T15:12:15.475Z</time>
      </trkpt>
      <trkpt lat="48.25603" lon="-3.46894">
        <ele>164.00604</ele>
        <time>2022-12-11T15:12:18.474Z</time>
      </trkpt>
      <trkpt lat="48.25599" lon="-3.46877">
        <ele>163.930623</ele>
        <time>2022-12-11T15:12:21.483Z</time>
      </trkpt>
      <trkpt lat="48.25597" lon="-3.46862">
        <ele>163.867304</ele>
        <time>2022-12-11T15:12:24.479Z</time>
      </trkpt>
      <trkpt lat="48.25595" lon="-3.46847">
        <ele>163.879686</ele>
        <time>2022-12-11T15:12:28.474Z</time>
      </trkpt>
      <trkpt lat="48.25592" lon="-3.46831">
        <ele>163.980938</ele>
        <time>2022-12-11T15:12:31.471Z</time>
      </trkpt>
      <trkpt lat="48.2559" lon="-3.46814">
        <ele>164.089546</ele>
        <time>2022-12-11T15:12:34.474Z</time>
      </trkpt>
      <trkpt lat="48.25587" lon="-3.46796">
        <ele>164.197736</ele>
        <time>2022-12-11T15:12:37.470Z</time>
      </trkpt>
      <trkpt lat="48.25585" lon="-3.46783">
        <ele>164.284884</ele>
        <time>2022-12-11T15:12:40.472Z</time>
      </trkpt>
      <trkpt lat="48.25585" lon="-3.46769">
        <ele>164.368738</ele>
        <time>2022-12-11T15:12:43.491Z</time>
      </trkpt>
      <trkpt lat="48.25584" lon="-3.46753">
        <ele>164.467925</ele>
        <time>2022-12-11T15:12:46.468Z</time>
      </trkpt>
      <trkpt lat="48.25587" lon="-3.4674">
        <ele>164.55267</ele>
        <time>2022-12-11T15:12:49.469Z</time>
      </trkpt>
      <trkpt lat="48.25592" lon="-3.46725">
        <ele>164.655277</ele>
        <time>2022-12-11T15:12:53.510Z</time>
      </trkpt>
      <trkpt lat="48.25596" lon="-3.46713">
        <ele>164.741378</ele>
        <time>2022-12-11T15:12:56.473Z</time>
      </trkpt>
      <trkpt lat="48.25601" lon="-3.46697">
        <ele>164.843051</ele>
        <time>2022-12-11T15:12:59.477Z</time>
      </trkpt>
      <trkpt lat="48.25605" lon="-3.46683">
        <ele>164.940982</ele>
        <time>2022-12-11T15:13:02.478Z</time>
      </trkpt>
      <trkpt lat="48.25609" lon="-3.46669">
        <ele>165.037766</ele>
        <time>2022-12-11T15:13:05.479Z</time>
      </trkpt>
      <trkpt lat="48.25614" lon="-3.46653">
        <ele>165.14136</ele>
        <time>2022-12-11T15:13:08.487Z</time>
      </trkpt>
      <trkpt lat="48.25619" lon="-3.4664">
        <ele>165.23432</ele>
        <time>2022-12-11T15:13:11.492Z</time>
      </trkpt>
      <trkpt lat="48.25624" lon="-3.46623">
        <ele>165.347918</ele>
        <time>2022-12-11T15:13:15.473Z</time>
      </trkpt>
      <trkpt lat="48.25628" lon="-3.4661">
        <ele>165.436876</ele>
        <time>2022-12-11T15:13:18.485Z</time>
      </trkpt>
      <trkpt lat="48.25631" lon="-3.46598">
        <ele>165.531427</ele>
        <time>2022-12-11T15:13:21.477Z</time>
      </trkpt>
      <trkpt lat="48.25635" lon="-3.46583">
        <ele>165.668716</ele>
        <time>2022-12-11T15:13:24.472Z</time>
      </trkpt>
      <trkpt lat="48.25639" lon="-3.46571">
        <ele>165.789539</ele>
        <time>2022-12-11T15:13:27.491Z</time>
      </trkpt>
      <trkpt lat="48.25645" lon="-3.46557">
        <ele>165.931868</ele>
        <time>2022-12-11T15:13:30.479Z</time>
      </trkpt>
      <trkpt lat="48.25649" lon="-3.46543">
        <ele>166.067048</ele>
        <time>2022-12-11T15:13:33.489Z</time>
      </trkpt>
      <trkpt lat="48.25653" lon="-3.46529">
        <ele>166.206957</ele>
        <time>2022-12-11T15:13:37.478Z</time>
      </trkpt>
      <trkpt lat="48.25658" lon="-3.46515">
        <ele>166.340755</ele>
        <time>2022-12-11T15:13:40.480Z</time>
      </trkpt>
      <trkpt lat="48.25663" lon="-3.46501">
        <ele>166.48462</ele>
        <time>2022-12-11T15:13:44.473Z</time>
      </trkpt>
      <trkpt lat="48.25669" lon="-3.46486">
        <ele>166.63503</ele>
        <time>2022-12-11T15:13:47.477Z</time>
      </trkpt>
      <trkpt lat="48.25673" lon="-3.4647">
        <ele>166.786359</ele>
        <time>2022-12-11T15:13:50.483Z</time>
      </trkpt>
      <trkpt lat="48.25675" lon="-3.46455">
        <ele>166.919101</ele>
        <time>2022-12-11T15:13:53.503Z</time>
      </trkpt>
      <trkpt lat="48.25674" lon="-3.46436">
        <ele>167.090637</ele>
        <time>2022-12-11T15:13:57.484Z</time>
      </trkpt>
      <trkpt lat="48.25673" lon="-3.46421">
        <ele>167.22345</ele>
        <time>2022-12-11T15:14:00.473Z</time>
      </trkpt>
      <trkpt lat="48.25672" lon="-3.46406">
        <ele>167.354097</ele>
        <time>2022-12-11T15:14:03.487Z</time>
      </trkpt>
      <trkpt lat="48.25669" lon="-3.4639">
        <ele>167.496875</ele>
        <time>2022-12-11T15:14:06.468Z</time>
      </trkpt>
      <trkpt lat="48.25666" lon="-3.46376">
        <ele>167.631566</ele>
        <time>2022-12-11T15:14:09.487Z</time>
      </trkpt>
      <trkpt lat="48.25662" lon="-3.46364">
        <ele>167.752087</ele>
        <time>2022-12-11T15:14:12.477Z</time>
      </trkpt>
      <trkpt lat="48.25658" lon="-3.46348">
        <ele>167.859938</ele>
        <time>2022-12-11T15:14:16.474Z</time>
      </trkpt>
      <trkpt lat="48.25652" lon="-3.46335">
        <ele>167.770897</ele>
        <time>2022-12-11T15:14:19.485Z</time>
      </trkpt>
      <trkpt lat="48.25646" lon="-3.46325">
        <ele>167.69288</ele>
        <time>2022-12-11T15:14:22.490Z</time>
      </trkpt>
      <trkpt lat="48.25639" lon="-3.46316">
        <ele>167.612886</ele>
        <time>2022-12-11T15:14:25.490Z</time>
      </trkpt>
      <trkpt lat="48.25631" lon="-3.46308">
        <ele>167.527669</ele>
        <time>2022-12-11T15:14:28.500Z</time>
      </trkpt>
      <trkpt lat="48.25622" lon="-3.46301">
        <ele>167.443227</ele>
        <time>2022-12-11T15:14:31.467Z</time>
      </trkpt>
      <trkpt lat="48.25613" lon="-3.46295">
        <ele>167.360804</ele>
        <time>2022-12-11T15:14:34.476Z</time>
      </trkpt>
      <trkpt lat="48.25605" lon="-3.4629">
        <ele>167.278822</ele>
        <time>2022-12-11T15:14:37.498Z</time>
      </trkpt>
      <trkpt lat="48.25594" lon="-3.46283">
        <ele>167.17805</ele>
        <time>2022-12-11T15:14:41.501Z</time>
      </trkpt>
      <trkpt lat="48.25583" lon="-3.46278">
        <ele>167.079262</ele>
        <time>2022-12-11T15:14:45.502Z</time>
      </trkpt>
      <trkpt lat="48.25574" lon="-3.46273">
        <ele>166.99488</ele>
        <time>2022-12-11T15:14:48.480Z</time>
      </trkpt>
      <trkpt lat="48.25565" lon="-3.46265">
        <ele>166.909687</ele>
        <time>2022-12-11T15:14:51.494Z</time>
      </trkpt>
      <trkpt lat="48.25555" lon="-3.46257">
        <ele>166.809089</ele>
        <time>2022-12-11T15:14:55.482Z</time>
      </trkpt>
      <trkpt lat="48.25547" lon="-3.46251">
        <ele>166.729144</ele>
        <time>2022-12-11T15:14:58.497Z</time>
      </trkpt>
      <trkpt lat="48.25539" lon="-3.46243">
        <ele>166.64885</ele>
        <time>2022-12-11T15:15:01.475Z</time>
      </trkpt>
      <trkpt lat="48.25528" lon="-3.46236">
        <ele>166.547018</ele>
        <time>2022-12-11T15:15:05.499Z</time>
      </trkpt>
      <trkpt lat="48.25519" lon="-3.46228">
        <ele>166.455222</ele>
        <time>2022-12-11T15:15:08.498Z</time>
      </trkpt>
      <trkpt lat="48.2551" lon="-3.46221">
        <ele>166.369344</ele>
        <time>2022-12-11T15:15:11.476Z</time>
      </trkpt>
      <trkpt lat="48.25499" lon="-3.46214">
        <ele>166.556557</ele>
        <time>2022-12-11T15:15:15.476Z</time>
      </trkpt>
      <trkpt lat="48.25489" lon="-3.46207">
        <ele>166.938315</ele>
        <time>2022-12-11T15:15:18.482Z</time>
      </trkpt>
      <trkpt lat="48.2548" lon="-3.46201">
        <ele>167.293321</ele>
        <time>2022-12-11T15:15:21.493Z</time>
      </trkpt>
      <trkpt lat="48.2547" lon="-3.46191">
        <ele>167.69756</ele>
        <time>2022-12-11T15:15:24.475Z</time>
      </trkpt>
      <trkpt lat="48.25459" lon="-3.46182">
        <ele>168.122417</ele>
        <time>2022-12-11T15:15:27.483Z</time>
      </trkpt>
      <trkpt lat="48.25449" lon="-3.46174">
        <ele>168.518624</ele>
        <time>2022-12-11T15:15:30.497Z</time>
      </trkpt>
      <trkpt lat="48.25438" lon="-3.46167">
        <ele>168.940009</ele>
        <time>2022-12-11T15:15:33.471Z</time>
      </trkpt>
      <trkpt lat="48.25428" lon="-3.46163">
        <ele>169.276535</ele>
        <time>2022-12-11T15:15:36.474Z</time>
      </trkpt>
      <trkpt lat="48.2542" lon="-3.46157">
        <ele>169.590576</ele>
        <time>2022-12-11T15:15:39.508Z</time>
      </trkpt>
      <trkpt lat="48.25411" lon="-3.46146">
        <ele>169.985482</ele>
        <time>2022-12-11T15:15:43.488Z</time>
      </trkpt>
      <trkpt lat="48.25403" lon="-3.46138">
        <ele>170.327844</ele>
        <time>2022-12-11T15:15:48.476Z</time>
      </trkpt>
      <trkpt lat="48.25394" lon="-3.46136">
        <ele>170.643335</ele>
        <time>2022-12-11T15:15:54.496Z</time>
      </trkpt>
      <trkpt lat="48.25394" lon="-3.46133">
        <ele>170.73532</ele>
        <time>2022-12-11T15:17:10.206Z</time>
      </trkpt>
      <trkpt lat="48.25384" lon="-3.46129">
        <ele>171.12002</ele>
        <time>2022-12-11T15:21:44.573Z</time>
      </trkpt>
      <trkpt lat="48.25374" lon="-3.46122">
        <ele>171.49044</ele>
        <time>2022-12-11T15:21:49.494Z</time>
      </trkpt>
      <trkpt lat="48.25367" lon="-3.46111">
        <ele>171.844913</ele>
        <time>2022-12-11T15:22:19.489Z</time>
      </trkpt>
      <trkpt lat="48.25357" lon="-3.46104">
        <ele>172.227893</ele>
        <time>2022-12-11T15:22:25.478Z</time>
      </trkpt>
      <trkpt lat="48.25346" lon="-3.46098">
        <ele>172.544653</ele>
        <time>2022-12-11T15:22:29.473Z</time>
      </trkpt>
      <trkpt lat="48.25336" lon="-3.46092">
        <ele>172.585105</ele>
        <time>2022-12-11T15:22:32.478Z</time>
      </trkpt>
      <trkpt lat="48.25328" lon="-3.46085">
        <ele>172.623647</ele>
        <time>2022-12-11T15:22:35.482Z</time>
      </trkpt>
      <trkpt lat="48.25318" lon="-3.46077">
        <ele>172.666985</ele>
        <time>2022-12-11T15:22:38.469Z</time>
      </trkpt>
      <trkpt lat="48.25308" lon="-3.46068">
        <ele>172.711164</ele>
        <time>2022-12-11T15:22:41.472Z</time>
      </trkpt>
      <trkpt lat="48.25299" lon="-3.46059">
        <ele>172.756228</ele>
        <time>2022-12-11T15:22:44.485Z</time>
      </trkpt>
      <trkpt lat="48.25289" lon="-3.4605">
        <ele>172.800397</ele>
        <time>2022-12-11T15:22:47.497Z</time>
      </trkpt>
      <trkpt lat="48.2528" lon="-3.46039">
        <ele>172.845613</ele>
        <time>2022-12-11T15:22:50.496Z</time>
      </trkpt>
      <trkpt lat="48.25272" lon="-3.46029">
        <ele>172.888483</ele>
        <time>2022-12-11T15:22:53.484Z</time>
      </trkpt>
      <trkpt lat="48.25264" lon="-3.4602">
        <ele>172.927724</ele>
        <time>2022-12-11T15:22:56.485Z</time>
      </trkpt>
      <trkpt lat="48.25257" lon="-3.46009">
        <ele>172.967916</ele>
        <time>2022-12-11T15:22:59.483Z</time>
      </trkpt>
      <trkpt lat="48.2525" lon="-3.45999">
        <ele>173.00588</ele>
        <time>2022-12-11T15:23:02.482Z</time>
      </trkpt>
      <trkpt lat="48.25241" lon="-3.45988">
        <ele>173.050198</ele>
        <time>2022-12-11T15:23:05.484Z</time>
      </trkpt>
      <trkpt lat="48.25233" lon="-3.45975">
        <ele>173.09664</ele>
        <time>2022-12-11T15:23:08.480Z</time>
      </trkpt>
      <trkpt lat="48.25226" lon="-3.45961">
        <ele>173.143475</ele>
        <time>2022-12-11T15:23:11.477Z</time>
      </trkpt>
      <trkpt lat="48.25219" lon="-3.45948">
        <ele>173.187135</ele>
        <time>2022-12-11T15:23:14.495Z</time>
      </trkpt>
      <trkpt lat="48.25212" lon="-3.45934">
        <ele>173.23127</ele>
        <time>2022-12-11T15:23:17.482Z</time>
      </trkpt>
      <trkpt lat="48.25205" lon="-3.45919">
        <ele>173.146795</ele>
        <time>2022-12-11T15:23:20.481Z</time>
      </trkpt>
      <trkpt lat="48.25201" lon="-3.45905">
        <ele>173.044014</ele>
        <time>2022-12-11T15:23:23.491Z</time>
      </trkpt>
      <trkpt lat="48.25196" lon="-3.45891">
        <ele>172.938533</ele>
        <time>2022-12-11T15:23:26.479Z</time>
      </trkpt>
      <trkpt lat="48.25191" lon="-3.45879">
        <ele>172.842589</ele>
        <time>2022-12-11T15:23:29.479Z</time>
      </trkpt>
      <trkpt lat="48.25185" lon="-3.45862">
        <ele>172.713553</ele>
        <time>2022-12-11T15:23:32.481Z</time>
      </trkpt>
      <trkpt lat="48.2518" lon="-3.45844">
        <ele>172.582258</ele>
        <time>2022-12-11T15:23:35.478Z</time>
      </trkpt>
      <trkpt lat="48.25175" lon="-3.45827">
        <ele>172.457906</ele>
        <time>2022-12-11T15:23:38.480Z</time>
      </trkpt>
      <trkpt lat="48.25171" lon="-3.4581">
        <ele>172.337949</ele>
        <time>2022-12-11T15:23:41.491Z</time>
      </trkpt>
      <trkpt lat="48.25167" lon="-3.45794">
        <ele>172.226897</ele>
        <time>2022-12-11T15:23:44.483Z</time>
      </trkpt>
      <trkpt lat="48.25164" lon="-3.45779">
        <ele>172.121166</ele>
        <time>2022-12-11T15:23:47.483Z</time>
      </trkpt>
      <trkpt lat="48.25161" lon="-3.45765">
        <ele>172.021472</ele>
        <time>2022-12-11T15:23:50.479Z</time>
      </trkpt>
      <trkpt lat="48.25159" lon="-3.4575">
        <ele>171.921413</ele>
        <time>2022-12-11T15:23:53.528Z</time>
      </trkpt>
      <trkpt lat="48.25157" lon="-3.45736">
        <ele>171.82351</ele>
        <time>2022-12-11T15:23:56.486Z</time>
      </trkpt>
      <trkpt lat="48.25155" lon="-3.45721">
        <ele>171.727461</ele>
        <time>2022-12-11T15:23:59.470Z</time>
      </trkpt>
      <trkpt lat="48.25154" lon="-3.45707">
        <ele>171.629746</ele>
        <time>2022-12-11T15:24:02.481Z</time>
      </trkpt>
      <trkpt lat="48.25153" lon="-3.45693">
        <ele>171.534945</ele>
        <time>2022-12-11T15:24:05.488Z</time>
      </trkpt>
      <trkpt lat="48.25151" lon="-3.45678">
        <ele>171.447285</ele>
        <time>2022-12-11T15:24:08.484Z</time>
      </trkpt>
      <trkpt lat="48.25151" lon="-3.45663">
        <ele>171.621129</ele>
        <time>2022-12-11T15:24:11.474Z</time>
      </trkpt>
      <trkpt lat="48.2515" lon="-3.45648">
        <ele>171.795737</ele>
        <time>2022-12-11T15:24:14.486Z</time>
      </trkpt>
      <trkpt lat="48.2515" lon="-3.45633">
        <ele>171.970734</ele>
        <time>2022-12-11T15:24:17.486Z</time>
      </trkpt>
      <trkpt lat="48.2515" lon="-3.45617">
        <ele>172.151122</ele>
        <time>2022-12-11T15:24:20.497Z</time>
      </trkpt>
      <trkpt lat="48.25151" lon="-3.45602">
        <ele>172.327892</ele>
        <time>2022-12-11T15:24:23.497Z</time>
      </trkpt>
      <trkpt lat="48.25151" lon="-3.45585">
        <ele>172.532525</ele>
        <time>2022-12-11T15:24:27.479Z</time>
      </trkpt>
      <trkpt lat="48.25151" lon="-3.4557">
        <ele>172.696704</ele>
        <time>2022-12-11T15:24:30.485Z</time>
      </trkpt>
      <trkpt lat="48.25151" lon="-3.45555">
        <ele>172.874746</ele>
        <time>2022-12-11T15:24:33.480Z</time>
      </trkpt>
      <trkpt lat="48.25151" lon="-3.45541">
        <ele>173.041236</ele>
        <time>2022-12-11T15:24:36.499Z</time>
      </trkpt>
      <trkpt lat="48.25151" lon="-3.45523">
        <ele>173.245899</ele>
        <time>2022-12-11T15:24:40.481Z</time>
      </trkpt>
      <trkpt lat="48.25151" lon="-3.45509">
        <ele>173.408921</ele>
        <time>2022-12-11T15:24:43.479Z</time>
      </trkpt>
      <trkpt lat="48.25151" lon="-3.45494">
        <ele>173.576594</ele>
        <time>2022-12-11T15:24:46.489Z</time>
      </trkpt>
      <trkpt lat="48.25151" lon="-3.4548">
        <ele>173.74553</ele>
        <time>2022-12-11T15:24:49.481Z</time>
      </trkpt>
      <trkpt lat="48.25152" lon="-3.45465">
        <ele>173.911438</ele>
        <time>2022-12-11T15:24:52.484Z</time>
      </trkpt>
      <trkpt lat="48.25152" lon="-3.45451">
        <ele>174.080267</ele>
        <time>2022-12-11T15:24:55.489Z</time>
      </trkpt>
      <trkpt lat="48.25152" lon="-3.45436">
        <ele>174.249096</ele>
        <time>2022-12-11T15:24:58.478Z</time>
      </trkpt>
      <trkpt lat="48.25153" lon="-3.45421">
        <ele>174.420211</ele>
        <time>2022-12-11T15:25:01.496Z</time>
      </trkpt>
      <trkpt lat="48.25153" lon="-3.45405">
        <ele>174.59801</ele>
        <time>2022-12-11T15:25:04.498Z</time>
      </trkpt>
      <trkpt lat="48.25153" lon="-3.45389">
        <ele>174.761559</ele>
        <time>2022-12-11T15:25:07.486Z</time>
      </trkpt>
      <trkpt lat="48.25154" lon="-3.45373">
        <ele>174.921175</ele>
        <time>2022-12-11T15:25:10.476Z</time>
      </trkpt>
      <trkpt lat="48.25154" lon="-3.45356">
        <ele>175.085779</ele>
        <time>2022-12-11T15:25:13.476Z</time>
      </trkpt>
      <trkpt lat="48.25155" lon="-3.45339">
        <ele>175.254315</ele>
        <time>2022-12-11T15:25:16.491Z</time>
      </trkpt>
      <trkpt lat="48.25155" lon="-3.45322">
        <ele>175.41983</ele>
        <time>2022-12-11T15:25:19.479Z</time>
      </trkpt>
      <trkpt lat="48.25157" lon="-3.45306">
        <ele>175.581406</ele>
        <time>2022-12-11T15:25:22.489Z</time>
      </trkpt>
      <trkpt lat="48.25157" lon="-3.4529">
        <ele>175.741022</ele>
        <time>2022-12-11T15:25:25.482Z</time>
      </trkpt>
      <trkpt lat="48.25157" lon="-3.45276">
        <ele>175.879098</ele>
        <time>2022-12-11T15:25:28.479Z</time>
      </trkpt>
      <trkpt lat="48.25156" lon="-3.4526">
        <ele>176.031129</ele>
        <time>2022-12-11T15:25:31.480Z</time>
      </trkpt>
      <trkpt lat="48.25157" lon="-3.45245">
        <ele>176.18569</ele>
        <time>2022-12-11T15:25:35.476Z</time>
      </trkpt>
      <trkpt lat="48.25158" lon="-3.4523">
        <ele>176.325832</ele>
        <time>2022-12-11T15:25:38.485Z</time>
      </trkpt>
      <trkpt lat="48.25161" lon="-3.45216">
        <ele>176.479485</ele>
        <time>2022-12-11T15:25:41.492Z</time>
      </trkpt>
      <trkpt lat="48.25166" lon="-3.45202">
        <ele>176.63249</ele>
        <time>2022-12-11T15:25:44.493Z</time>
      </trkpt>
      <trkpt lat="48.2517" lon="-3.45188">
        <ele>176.782763</ele>
        <time>2022-12-11T15:25:47.480Z</time>
      </trkpt>
      <trkpt lat="48.25174" lon="-3.45175">
        <ele>176.922469</ele>
        <time>2022-12-11T15:25:50.482Z</time>
      </trkpt>
      <trkpt lat="48.25182" lon="-3.45162">
        <ele>177.092518</ele>
        <time>2022-12-11T15:25:54.482Z</time>
      </trkpt>
      <trkpt lat="48.25191" lon="-3.45152">
        <ele>177.213784</ele>
        <time>2022-12-11T15:25:58.477Z</time>
      </trkpt>
      <trkpt lat="48.252" lon="-3.45143">
        <ele>177.179422</ele>
        <time>2022-12-11T15:26:02.480Z</time>
      </trkpt>
      <trkpt lat="48.25208" lon="-3.45134">
        <ele>177.145871</ele>
        <time>2022-12-11T15:26:06.486Z</time>
      </trkpt>
      <trkpt lat="48.25217" lon="-3.45124">
        <ele>177.108706</ele>
        <time>2022-12-11T15:26:10.495Z</time>
      </trkpt>
      <trkpt lat="48.25225" lon="-3.45115">
        <ele>177.077856</ele>
        <time>2022-12-11T15:26:13.485Z</time>
      </trkpt>
      <trkpt lat="48.25234" lon="-3.45106">
        <ele>177.043372</ele>
        <time>2022-12-11T15:26:16.488Z</time>
      </trkpt>
      <trkpt lat="48.25243" lon="-3.45097">
        <ele>177.007833</ele>
        <time>2022-12-11T15:26:19.482Z</time>
      </trkpt>
      <trkpt lat="48.25252" lon="-3.45091">
        <ele>176.975602</ele>
        <time>2022-12-11T15:26:22.476Z</time>
      </trkpt>
      <trkpt lat="48.25262" lon="-3.45084">
        <ele>176.940434</ele>
        <time>2022-12-11T15:26:25.484Z</time>
      </trkpt>
      <trkpt lat="48.25273" lon="-3.45076">
        <ele>176.902237</ele>
        <time>2022-12-11T15:26:28.479Z</time>
      </trkpt>
      <trkpt lat="48.25282" lon="-3.45068">
        <ele>176.867211</ele>
        <time>2022-12-11T15:26:31.486Z</time>
      </trkpt>
      <trkpt lat="48.25292" lon="-3.45059">
        <ele>176.828975</ele>
        <time>2022-12-11T15:26:34.495Z</time>
      </trkpt>
      <trkpt lat="48.25302" lon="-3.4505">
        <ele>176.791608</ele>
        <time>2022-12-11T15:26:37.489Z</time>
      </trkpt>
      <trkpt lat="48.2531" lon="-3.45043">
        <ele>176.761009</ele>
        <time>2022-12-11T15:26:40.480Z</time>
      </trkpt>
      <trkpt lat="48.25318" lon="-3.45034">
        <ele>176.72978</ele>
        <time>2022-12-11T15:26:43.476Z</time>
      </trkpt>
      <trkpt lat="48.25328" lon="-3.45025">
        <ele>176.693592</ele>
        <time>2022-12-11T15:26:46.483Z</time>
      </trkpt>
      <trkpt lat="48.25338" lon="-3.45017">
        <ele>176.65588</ele>
        <time>2022-12-11T15:26:49.494Z</time>
      </trkpt>
      <trkpt lat="48.25348" lon="-3.4501">
        <ele>176.698826</ele>
        <time>2022-12-11T15:26:52.492Z</time>
      </trkpt>
      <trkpt lat="48.25357" lon="-3.45003">
        <ele>176.780619</ele>
        <time>2022-12-11T15:26:55.480Z</time>
      </trkpt>
      <trkpt lat="48.25368" lon="-3.44996">
        <ele>176.878072</ele>
        <time>2022-12-11T15:26:58.491Z</time>
      </trkpt>
      <trkpt lat="48.25379" lon="-3.44987">
        <ele>176.97629</ele>
        <time>2022-12-11T15:27:01.477Z</time>
      </trkpt>
      <trkpt lat="48.25388" lon="-3.44978">
        <ele>177.067592</ele>
        <time>2022-12-11T15:27:04.476Z</time>
      </trkpt>
      <trkpt lat="48.25398" lon="-3.44969">
        <ele>177.162092</ele>
        <time>2022-12-11T15:27:07.486Z</time>
      </trkpt>
      <trkpt lat="48.25409" lon="-3.4496">
        <ele>177.261823</ele>
        <time>2022-12-11T15:27:10.482Z</time>
      </trkpt>
      <trkpt lat="48.25419" lon="-3.44952">
        <ele>177.35926</ele>
        <time>2022-12-11T15:27:13.504Z</time>
      </trkpt>
      <trkpt lat="48.25428" lon="-3.44943">
        <ele>177.447727</ele>
        <time>2022-12-11T15:27:16.481Z</time>
      </trkpt>
      <trkpt lat="48.25437" lon="-3.44936">
        <ele>177.52976</ele>
        <time>2022-12-11T15:27:19.483Z</time>
      </trkpt>
      <trkpt lat="48.25447" lon="-3.44928">
        <ele>177.62216</ele>
        <time>2022-12-11T15:27:23.484Z</time>
      </trkpt>
      <trkpt lat="48.25456" lon="-3.4492">
        <ele>177.709669</ele>
        <time>2022-12-11T15:27:27.483Z</time>
      </trkpt>
      <trkpt lat="48.25464" lon="-3.44913">
        <ele>177.786335</ele>
        <time>2022-12-11T15:27:31.492Z</time>
      </trkpt>
      <trkpt lat="48.25473" lon="-3.44907">
        <ele>177.863968</ele>
        <time>2022-12-11T15:27:35.493Z</time>
      </trkpt>
      <trkpt lat="48.25483" lon="-3.44898">
        <ele>177.957237</ele>
        <time>2022-12-11T15:27:39.495Z</time>
      </trkpt>
      <trkpt lat="48.25492" lon="-3.4489">
        <ele>178.041479</ele>
        <time>2022-12-11T15:27:43.483Z</time>
      </trkpt>
      <trkpt lat="48.255" lon="-3.44883">
        <ele>178.118882</ele>
        <time>2022-12-11T15:27:46.479Z</time>
      </trkpt>
      <trkpt lat="48.2551" lon="-3.44875">
        <ele>178.258736</ele>
        <time>2022-12-11T15:27:50.480Z</time>
      </trkpt>
      <trkpt lat="48.2552" lon="-3.44867">
        <ele>178.394916</ele>
        <time>2022-12-11T15:27:54.476Z</time>
      </trkpt>
      <trkpt lat="48.2553" lon="-3.44859">
        <ele>178.523241</ele>
        <time>2022-12-11T15:27:57.478Z</time>
      </trkpt>
      <trkpt lat="48.2554" lon="-3.44851">
        <ele>178.651929</ele>
        <time>2022-12-11T15:28:00.480Z</time>
      </trkpt>
      <trkpt lat="48.2555" lon="-3.44842">
        <ele>178.787873</ele>
        <time>2022-12-11T15:28:04.481Z</time>
      </trkpt>
      <trkpt lat="48.25559" lon="-3.44835">
        <ele>178.910001</ele>
        <time>2022-12-11T15:28:08.478Z</time>
      </trkpt>
      <trkpt lat="48.25567" lon="-3.44828">
        <ele>179.018994</ele>
        <time>2022-12-11T15:28:11.476Z</time>
      </trkpt>
      <trkpt lat="48.25575" lon="-3.44819">
        <ele>179.133485</ele>
        <time>2022-12-11T15:28:14.498Z</time>
      </trkpt>
      <trkpt lat="48.25585" lon="-3.44809">
        <ele>179.273729</ele>
        <time>2022-12-11T15:28:18.482Z</time>
      </trkpt>
      <trkpt lat="48.25593" lon="-3.44799">
        <ele>179.397211</ele>
        <time>2022-12-11T15:28:21.486Z</time>
      </trkpt>
      <trkpt lat="48.25601" lon="-3.44787">
        <ele>179.529827</ele>
        <time>2022-12-11T15:28:24.494Z</time>
      </trkpt>
      <trkpt lat="48.25606" lon="-3.44773">
        <ele>179.654706</ele>
        <time>2022-12-11T15:28:27.484Z</time>
      </trkpt>
      <trkpt lat="48.25612" lon="-3.44759">
        <ele>179.783674</ele>
        <time>2022-12-11T15:28:30.495Z</time>
      </trkpt>
      <trkpt lat="48.25616" lon="-3.44745">
        <ele>179.905594</ele>
        <time>2022-12-11T15:28:33.484Z</time>
      </trkpt>
      <trkpt lat="48.2562" lon="-3.44731">
        <ele>180.019713</ele>
        <time>2022-12-11T15:28:36.482Z</time>
      </trkpt>
      <trkpt lat="48.25621" lon="-3.44717">
        <ele>180.129173</ele>
        <time>2022-12-11T15:28:39.481Z</time>
      </trkpt>
      <trkpt lat="48.25622" lon="-3.44701">
        <ele>180.263836</ele>
        <time>2022-12-11T15:28:42.511Z</time>
      </trkpt>
      <trkpt lat="48.25622" lon="-3.44687">
        <ele>180.401717</ele>
        <time>2022-12-11T15:28:45.484Z</time>
      </trkpt>
      <trkpt lat="48.25624" lon="-3.44672">
        <ele>180.550296</ele>
        <time>2022-12-11T15:28:49.489Z</time>
      </trkpt>
      <trkpt lat="48.25622" lon="-3.44658">
        <ele>180.694961</ele>
        <time>2022-12-11T15:28:55.488Z</time>
      </trkpt>
      <trkpt lat="48.25621" lon="-3.44643">
        <ele>180.839559</ele>
        <time>2022-12-11T15:29:01.484Z</time>
      </trkpt>
      <trkpt lat="48.25621" lon="-3.44626">
        <ele>181.006772</ele>
        <time>2022-12-11T15:29:05.507Z</time>
      </trkpt>
      <trkpt lat="48.2562" lon="-3.44612">
        <ele>181.145788</ele>
        <time>2022-12-11T15:29:14.482Z</time>
      </trkpt>
      <trkpt lat="48.25619" lon="-3.44597">
        <ele>181.293668</ele>
        <time>2022-12-11T15:29:27.487Z</time>
      </trkpt>
      <trkpt lat="48.25617" lon="-3.44581">
        <ele>181.455304</ele>
        <time>2022-12-11T15:29:31.481Z</time>
      </trkpt>
      <trkpt lat="48.25618" lon="-3.44566">
        <ele>181.605669</ele>
        <time>2022-12-11T15:29:34.478Z</time>
      </trkpt>
      <trkpt lat="48.25618" lon="-3.4455">
        <ele>181.756253</ele>
        <time>2022-12-11T15:29:37.480Z</time>
      </trkpt>
      <trkpt lat="48.25617" lon="-3.44534">
        <ele>181.915743</ele>
        <time>2022-12-11T15:29:40.484Z</time>
      </trkpt>
      <trkpt lat="48.25617" lon="-3.44519">
        <ele>182.066241</ele>
        <time>2022-12-11T15:29:43.482Z</time>
      </trkpt>
      <trkpt lat="48.25618" lon="-3.44503">
        <ele>182.223621</ele>
        <time>2022-12-11T15:29:46.477Z</time>
      </trkpt>
      <trkpt lat="48.25617" lon="-3.44486">
        <ele>182.392439</ele>
        <time>2022-12-11T15:29:49.501Z</time>
      </trkpt>
      <trkpt lat="48.25616" lon="-3.44469">
        <ele>182.555138</ele>
        <time>2022-12-11T15:29:52.483Z</time>
      </trkpt>
      <trkpt lat="48.25615" lon="-3.44453">
        <ele>182.713914</ele>
        <time>2022-12-11T15:29:55.478Z</time>
      </trkpt>
      <trkpt lat="48.25615" lon="-3.44437">
        <ele>182.871267</ele>
        <time>2022-12-11T15:29:58.485Z</time>
      </trkpt>
      <trkpt lat="48.25614" lon="-3.44421">
        <ele>182.793287</ele>
        <time>2022-12-11T15:30:01.495Z</time>
      </trkpt>
      <trkpt lat="48.25614" lon="-3.44404">
        <ele>182.696822</ele>
        <time>2022-12-11T15:30:05.484Z</time>
      </trkpt>
      <trkpt lat="48.25614" lon="-3.44389">
        <ele>182.616632</ele>
        <time>2022-12-11T15:30:08.488Z</time>
      </trkpt>
      <trkpt lat="48.25612" lon="-3.44371">
        <ele>182.514783</ele>
        <time>2022-12-11T15:30:12.516Z</time>
      </trkpt>
      <trkpt lat="48.25612" lon="-3.44353">
        <ele>182.411498</ele>
        <time>2022-12-11T15:30:15.483Z</time>
      </trkpt>
      <trkpt lat="48.25612" lon="-3.44337">
        <ele>182.317871</ele>
        <time>2022-12-11T15:30:18.513Z</time>
      </trkpt>
      <trkpt lat="48.2561" lon="-3.44321">
        <ele>182.227985</ele>
        <time>2022-12-11T15:30:21.503Z</time>
      </trkpt>
      <trkpt lat="48.2561" lon="-3.44302">
        <ele>182.124616</ele>
        <time>2022-12-11T15:30:24.481Z</time>
      </trkpt>
      <trkpt lat="48.25608" lon="-3.44283">
        <ele>182.014181</ele>
        <time>2022-12-11T15:30:27.482Z</time>
      </trkpt>
      <trkpt lat="48.25607" lon="-3.44264">
        <ele>181.908978</ele>
        <time>2022-12-11T15:30:30.496Z</time>
      </trkpt>
      <trkpt lat="48.25604" lon="-3.44247">
        <ele>181.809467</ele>
        <time>2022-12-11T15:30:33.482Z</time>
      </trkpt>
      <trkpt lat="48.256" lon="-3.44229">
        <ele>181.701375</ele>
        <time>2022-12-11T15:30:36.483Z</time>
      </trkpt>
      <trkpt lat="48.25596" lon="-3.44214">
        <ele>181.6088</ele>
        <time>2022-12-11T15:30:39.495Z</time>
      </trkpt>
      <trkpt lat="48.25591" lon="-3.44199">
        <ele>181.516976</ele>
        <time>2022-12-11T15:30:44.496Z</time>
      </trkpt>
      <trkpt lat="48.25585" lon="-3.44186">
        <ele>181.426302</ele>
        <time>2022-12-11T15:30:47.487Z</time>
      </trkpt>
      <trkpt lat="48.25579" lon="-3.44174">
        <ele>181.395315</ele>
        <time>2022-12-11T15:30:49.480Z</time>
      </trkpt>
      <trkpt lat="48.25574" lon="-3.44164">
        <ele>181.612055</ele>
        <time>2022-12-11T15:30:51.492Z</time>
      </trkpt>
      <trkpt lat="48.25568" lon="-3.44153">
        <ele>181.834201</ele>
        <time>2022-12-11T15:30:53.479Z</time>
      </trkpt>
      <trkpt lat="48.25561" lon="-3.44136">
        <ele>182.134127</ele>
        <time>2022-12-11T15:30:56.477Z</time>
      </trkpt>
      <trkpt lat="48.25554" lon="-3.44121">
        <ele>182.430004</ele>
        <time>2022-12-11T15:30:59.520Z</time>
      </trkpt>
      <trkpt lat="48.25547" lon="-3.44109">
        <ele>182.675501</ele>
        <time>2022-12-11T15:31:01.494Z</time>
      </trkpt>
      <trkpt lat="48.25541" lon="-3.44099">
        <ele>182.896626</ele>
        <time>2022-12-11T15:31:03.478Z</time>
      </trkpt>
      <trkpt lat="48.25536" lon="-3.44084">
        <ele>183.15376</ele>
        <time>2022-12-11T15:31:06.485Z</time>
      </trkpt>
      <trkpt lat="48.25532" lon="-3.44072">
        <ele>183.374318</ele>
        <time>2022-12-11T15:31:11.486Z</time>
      </trkpt>
      <trkpt lat="48.25525" lon="-3.44058">
        <ele>183.644878</ele>
        <time>2022-12-11T15:31:15.504Z</time>
      </trkpt>
      <trkpt lat="48.25519" lon="-3.44044">
        <ele>183.914625</ele>
        <time>2022-12-11T15:31:19.484Z</time>
      </trkpt>
      <trkpt lat="48.25512" lon="-3.44028">
        <ele>184.20132</ele>
        <time>2022-12-11T15:31:23.508Z</time>
      </trkpt>
      <trkpt lat="48.25505" lon="-3.44015">
        <ele>184.468802</ele>
        <time>2022-12-11T15:31:27.487Z</time>
      </trkpt>
      <trkpt lat="48.25499" lon="-3.44003">
        <ele>184.694275</ele>
        <time>2022-12-11T15:31:30.479Z</time>
      </trkpt>
      <trkpt lat="48.25493" lon="-3.43988">
        <ele>184.968269</ele>
        <time>2022-12-11T15:31:34.482Z</time>
      </trkpt>
      <trkpt lat="48.25487" lon="-3.43976">
        <ele>185.217708</ele>
        <time>2022-12-11T15:31:37.494Z</time>
      </trkpt>
      <trkpt lat="48.25481" lon="-3.43963">
        <ele>185.470581</ele>
        <time>2022-12-11T15:31:40.487Z</time>
      </trkpt>
      <trkpt lat="48.25474" lon="-3.43949">
        <ele>185.557737</ele>
        <time>2022-12-11T15:31:43.490Z</time>
      </trkpt>
      <trkpt lat="48.25468" lon="-3.43937">
        <ele>185.465809</ele>
        <time>2022-12-11T15:31:46.483Z</time>
      </trkpt>
      <trkpt lat="48.25462" lon="-3.43924">
        <ele>185.369995</ele>
        <time>2022-12-11T15:31:49.481Z</time>
      </trkpt>
      <trkpt lat="48.25456" lon="-3.43911">
        <ele>185.271164</ele>
        <time>2022-12-11T15:31:52.483Z</time>
      </trkpt>
      <trkpt lat="48.2545" lon="-3.43896">
        <ele>185.165192</ele>
        <time>2022-12-11T15:31:55.490Z</time>
      </trkpt>
      <trkpt lat="48.25443" lon="-3.43881">
        <ele>185.053176</ele>
        <time>2022-12-11T15:31:58.482Z</time>
      </trkpt>
      <trkpt lat="48.25435" lon="-3.43867">
        <ele>184.940965</ele>
        <time>2022-12-11T15:32:01.500Z</time>
      </trkpt>
      <trkpt lat="48.25428" lon="-3.43852">
        <ele>184.829345</ele>
        <time>2022-12-11T15:32:04.483Z</time>
      </trkpt>
      <trkpt lat="48.2542" lon="-3.43838">
        <ele>184.71554</ele>
        <time>2022-12-11T15:32:07.486Z</time>
      </trkpt>
      <trkpt lat="48.25413" lon="-3.43824">
        <ele>184.611353</ele>
        <time>2022-12-11T15:32:10.502Z</time>
      </trkpt>
      <trkpt lat="48.25406" lon="-3.43809">
        <ele>184.502363</ele>
        <time>2022-12-11T15:32:13.487Z</time>
      </trkpt>
      <trkpt lat="48.254" lon="-3.43794">
        <ele>184.394299</ele>
        <time>2022-12-11T15:32:16.517Z</time>
      </trkpt>
      <trkpt lat="48.25394" lon="-3.43781">
        <ele>184.292857</ele>
        <time>2022-12-11T15:32:19.488Z</time>
      </trkpt>
      <trkpt lat="48.25386" lon="-3.43767">
        <ele>184.182635</ele>
        <time>2022-12-11T15:32:23.483Z</time>
      </trkpt>
      <trkpt lat="48.25379" lon="-3.43757">
        <ele>184.09603</ele>
        <time>2022-12-11T15:32:26.481Z</time>
      </trkpt>
      <trkpt lat="48.25373" lon="-3.43745">
        <ele>184.006662</ele>
        <time>2022-12-11T15:32:29.483Z</time>
      </trkpt>
      <trkpt lat="48.25368" lon="-3.43732">
        <ele>184.144315</ele>
        <time>2022-12-11T15:32:32.485Z</time>
      </trkpt>
      <trkpt lat="48.25363" lon="-3.43721">
        <ele>184.491891</ele>
        <time>2022-12-11T15:32:35.485Z</time>
      </trkpt>
      <trkpt lat="48.25359" lon="-3.43708">
        <ele>184.845415</ele>
        <time>2022-12-11T15:32:39.498Z</time>
      </trkpt>
      <trkpt lat="48.25355" lon="-3.43695">
        <ele>185.210497</ele>
        <time>2022-12-11T15:32:45.485Z</time>
      </trkpt>
      <trkpt lat="48.25349" lon="-3.43683">
        <ele>185.579677</ele>
        <time>2022-12-11T15:32:49.483Z</time>
      </trkpt>
      <trkpt lat="48.25341" lon="-3.4367">
        <ele>186.010089</ele>
        <time>2022-12-11T15:32:53.489Z</time>
      </trkpt>
      <trkpt lat="48.25334" lon="-3.43657">
        <ele>186.428186</ele>
        <time>2022-12-11T15:32:57.484Z</time>
      </trkpt>
      <trkpt lat="48.25327" lon="-3.43642">
        <ele>186.87422</ele>
        <time>2022-12-11T15:33:01.487Z</time>
      </trkpt>
      <trkpt lat="48.25322" lon="-3.43631">
        <ele>187.221828</ele>
        <time>2022-12-11T15:33:04.487Z</time>
      </trkpt>
      <trkpt lat="48.25316" lon="-3.4362">
        <ele>187.56654</ele>
        <time>2022-12-11T15:33:07.493Z</time>
      </trkpt>
      <trkpt lat="48.25308" lon="-3.43606">
        <ele>188.008727</ele>
        <time>2022-12-11T15:33:11.481Z</time>
      </trkpt>
      <trkpt lat="48.25303" lon="-3.43594">
        <ele>188.383076</ele>
        <time>2022-12-11T15:33:14.483Z</time>
      </trkpt>
      <trkpt lat="48.25296" lon="-3.43581">
        <ele>188.783684</ele>
        <time>2022-12-11T15:33:17.492Z</time>
      </trkpt>
      <trkpt lat="48.2529" lon="-3.43568">
        <ele>189.172535</ele>
        <time>2022-12-11T15:33:20.493Z</time>
      </trkpt>
      <trkpt lat="48.25283" lon="-3.43554">
        <ele>189.619848</ele>
        <time>2022-12-11T15:33:23.486Z</time>
      </trkpt>
      <trkpt lat="48.25277" lon="-3.4354">
        <ele>190.046097</ele>
        <time>2022-12-11T15:33:26.483Z</time>
      </trkpt>
      <trkpt lat="48.2527" lon="-3.43524">
        <ele>190.5011</ele>
        <time>2022-12-11T15:33:29.487Z</time>
      </trkpt>
      <trkpt lat="48.25263" lon="-3.43511">
        <ele>190.622696</ele>
        <time>2022-12-11T15:33:32.483Z</time>
      </trkpt>
      <trkpt lat="48.25257" lon="-3.43501">
        <ele>190.549164</ele>
        <time>2022-12-11T15:33:35.490Z</time>
      </trkpt>
      <trkpt lat="48.25251" lon="-3.43486">
        <ele>190.458705</ele>
        <time>2022-12-11T15:33:39.479Z</time>
      </trkpt>
      <trkpt lat="48.25245" lon="-3.43473">
        <ele>190.376889</ele>
        <time>2022-12-11T15:33:43.483Z</time>
      </trkpt>
      <trkpt lat="48.25241" lon="-3.43461">
        <ele>190.305916</ele>
        <time>2022-12-11T15:33:46.505Z</time>
      </trkpt>
      <trkpt lat="48.25235" lon="-3.4345">
        <ele>190.234243</ele>
        <time>2022-12-11T15:33:50.481Z</time>
      </trkpt>
      <trkpt lat="48.2523" lon="-3.43437">
        <ele>190.152926</ele>
        <time>2022-12-11T15:33:53.477Z</time>
      </trkpt>
      <trkpt lat="48.25222" lon="-3.43422">
        <ele>190.0543</ele>
        <time>2022-12-11T15:33:56.497Z</time>
      </trkpt>
      <trkpt lat="48.25216" lon="-3.43406">
        <ele>189.95732</ele>
        <time>2022-12-11T15:33:59.481Z</time>
      </trkpt>
      <trkpt lat="48.25209" lon="-3.43393">
        <ele>189.874976</ele>
        <time>2022-12-11T15:34:02.488Z</time>
      </trkpt>
      <trkpt lat="48.25204" lon="-3.43382">
        <ele>189.804433</ele>
        <time>2022-12-11T15:34:05.492Z</time>
      </trkpt>
      <trkpt lat="48.25201" lon="-3.43369">
        <ele>189.730358</ele>
        <time>2022-12-11T15:34:10.498Z</time>
      </trkpt>
      <trkpt lat="48.25195" lon="-3.43355">
        <ele>189.644663</ele>
        <time>2022-12-11T15:34:14.490Z</time>
      </trkpt>
      <trkpt lat="48.25189" lon="-3.43341">
        <ele>189.559372</ele>
        <time>2022-12-11T15:34:18.488Z</time>
      </trkpt>
      <trkpt lat="48.25182" lon="-3.4333">
        <ele>189.481473</ele>
        <time>2022-12-11T15:34:21.504Z</time>
      </trkpt>
      <trkpt lat="48.25176" lon="-3.43318">
        <ele>189.402744</ele>
        <time>2022-12-11T15:34:25.513Z</time>
      </trkpt>
      <trkpt lat="48.25171" lon="-3.43304">
        <ele>189.319069</ele>
        <time>2022-12-11T15:34:29.479Z</time>
      </trkpt>
      <trkpt lat="48.25164" lon="-3.43292">
        <ele>189.151162</ele>
        <time>2022-12-11T15:34:34.486Z</time>
      </trkpt>
      <trkpt lat="48.25159" lon="-3.43276">
        <ele>188.787939</ele>
        <time>2022-12-11T15:34:39.474Z</time>
      </trkpt>
      <trkpt lat="48.25153" lon="-3.43264">
        <ele>188.474713</ele>
        <time>2022-12-11T15:34:42.485Z</time>
      </trkpt>
      <trkpt lat="48.25147" lon="-3.43253">
        <ele>188.189526</ele>
        <time>2022-12-11T15:34:45.486Z</time>
      </trkpt>
      <trkpt lat="48.25139" lon="-3.4324">
        <ele>187.845431</ele>
        <time>2022-12-11T15:34:49.481Z</time>
      </trkpt>
      <trkpt lat="48.25132" lon="-3.43231">
        <ele>187.549833</ele>
        <time>2022-12-11T15:34:52.480Z</time>
      </trkpt>
      <trkpt lat="48.25123" lon="-3.43219">
        <ele>187.173242</ele>
        <time>2022-12-11T15:34:55.490Z</time>
      </trkpt>
      <trkpt lat="48.25113" lon="-3.43209">
        <ele>186.817768</ele>
        <time>2022-12-11T15:34:58.485Z</time>
      </trkpt>
      <trkpt lat="48.25103" lon="-3.43201">
        <ele>186.476572</ele>
        <time>2022-12-11T15:35:01.485Z</time>
      </trkpt>
      <trkpt lat="48.25092" lon="-3.43195">
        <ele>186.109868</ele>
        <time>2022-12-11T15:35:04.485Z</time>
      </trkpt>
      <trkpt lat="48.25081" lon="-3.43186">
        <ele>185.731151</ele>
        <time>2022-12-11T15:35:07.483Z</time>
      </trkpt>
      <trkpt lat="48.25071" lon="-3.43178">
        <ele>185.395405</ele>
        <time>2022-12-11T15:35:10.484Z</time>
      </trkpt>
      <trkpt lat="48.25061" lon="-3.43171">
        <ele>185.065123</ele>
        <time>2022-12-11T15:35:13.482Z</time>
      </trkpt>
      <trkpt lat="48.25053" lon="-3.43166">
        <ele>184.777196</ele>
        <time>2022-12-11T15:35:16.483Z</time>
      </trkpt>
      <trkpt lat="48.25044" lon="-3.4316">
        <ele>184.488265</ele>
        <time>2022-12-11T15:35:19.476Z</time>
      </trkpt>
      <trkpt lat="48.25035" lon="-3.43153">
        <ele>184.174364</ele>
        <time>2022-12-11T15:35:22.486Z</time>
      </trkpt>
      <trkpt lat="48.25026" lon="-3.43149">
        <ele>183.891444</ele>
        <time>2022-12-11T15:35:25.473Z</time>
      </trkpt>
      <trkpt lat="48.25015" lon="-3.43142">
        <ele>183.998182</ele>
        <time>2022-12-11T15:35:28.498Z</time>
      </trkpt>
      <trkpt lat="48.25005" lon="-3.43134">
        <ele>184.330157</ele>
        <time>2022-12-11T15:35:31.495Z</time>
      </trkpt>
      <trkpt lat="48.24993" lon="-3.43127">
        <ele>184.672786</ele>
        <time>2022-12-11T15:35:34.486Z</time>
      </trkpt>
      <trkpt lat="48.24982" lon="-3.43119">
        <ele>185.014327</ele>
        <time>2022-12-11T15:35:37.492Z</time>
      </trkpt>
      <trkpt lat="48.24973" lon="-3.43112">
        <ele>185.313022</ele>
        <time>2022-12-11T15:35:40.500Z</time>
      </trkpt>
      <trkpt lat="48.24963" lon="-3.43107">
        <ele>185.58546</ele>
        <time>2022-12-11T15:35:43.500Z</time>
      </trkpt>
      <trkpt lat="48.24953" lon="-3.43101">
        <ele>185.886736</ele>
        <time>2022-12-11T15:35:46.496Z</time>
      </trkpt>
      <trkpt lat="48.24944" lon="-3.43092">
        <ele>186.202626</ele>
        <time>2022-12-11T15:35:49.501Z</time>
      </trkpt>
      <trkpt lat="48.24935" lon="-3.43087">
        <ele>186.46097</ele>
        <time>2022-12-11T15:35:52.506Z</time>
      </trkpt>
      <trkpt lat="48.24925" lon="-3.43079">
        <ele>186.775657</ele>
        <time>2022-12-11T15:35:56.484Z</time>
      </trkpt>
      <trkpt lat="48.24915" lon="-3.43071">
        <ele>187.081835</ele>
        <time>2022-12-11T15:36:00.491Z</time>
      </trkpt>
      <trkpt lat="48.24907" lon="-3.43065">
        <ele>187.343996</ele>
        <time>2022-12-11T15:36:03.501Z</time>
      </trkpt>
      <trkpt lat="48.24897" lon="-3.43059">
        <ele>187.631663</ele>
        <time>2022-12-11T15:36:07.497Z</time>
      </trkpt>
      <trkpt lat="48.24888" lon="-3.43053">
        <ele>187.927937</ele>
        <time>2022-12-11T15:36:12.501Z</time>
      </trkpt>
      <trkpt lat="48.24878" lon="-3.43046">
        <ele>188.219172</ele>
        <time>2022-12-11T15:36:16.477Z</time>
      </trkpt>
      <trkpt lat="48.24869" lon="-3.43039">
        <ele>188.516199</ele>
        <time>2022-12-11T15:36:20.497Z</time>
      </trkpt>
      <trkpt lat="48.24859" lon="-3.43032">
        <ele>188.803445</ele>
        <time>2022-12-11T15:36:24.506Z</time>
      </trkpt>
      <trkpt lat="48.24849" lon="-3.43026">
        <ele>189.039904</ele>
        <time>2022-12-11T15:36:28.501Z</time>
      </trkpt>
      <trkpt lat="48.2484" lon="-3.4302">
        <ele>189.246585</ele>
        <time>2022-12-11T15:36:31.493Z</time>
      </trkpt>
      <trkpt lat="48.24831" lon="-3.43015">
        <ele>189.440218</ele>
        <time>2022-12-11T15:36:34.510Z</time>
      </trkpt>
      <trkpt lat="48.24822" lon="-3.4301">
        <ele>189.644481</ele>
        <time>2022-12-11T15:36:37.498Z</time>
      </trkpt>
      <trkpt lat="48.24812" lon="-3.43003">
        <ele>189.860361</ele>
        <time>2022-12-11T15:36:40.500Z</time>
      </trkpt>
      <trkpt lat="48.24802" lon="-3.42995">
        <ele>190.100041</ele>
        <time>2022-12-11T15:36:44.506Z</time>
      </trkpt>
      <trkpt lat="48.24795" lon="-3.42985">
        <ele>190.30047</ele>
        <time>2022-12-11T15:36:47.501Z</time>
      </trkpt>
      <trkpt lat="48.24787" lon="-3.42974">
        <ele>190.520251</ele>
        <time>2022-12-11T15:36:50.496Z</time>
      </trkpt>
      <trkpt lat="48.24782" lon="-3.42961">
        <ele>190.717444</ele>
        <time>2022-12-11T15:36:53.514Z</time>
      </trkpt>
      <trkpt lat="48.24776" lon="-3.42949">
        <ele>190.934416</ele>
        <time>2022-12-11T15:36:56.494Z</time>
      </trkpt>
      <trkpt lat="48.2477" lon="-3.42936">
        <ele>191.156799</ele>
        <time>2022-12-11T15:37:00.493Z</time>
      </trkpt>
      <trkpt lat="48.24765" lon="-3.42923">
        <ele>191.36662</ele>
        <time>2022-12-11T15:37:03.502Z</time>
      </trkpt>
      <trkpt lat="48.24758" lon="-3.42907">
        <ele>191.623362</ele>
        <time>2022-12-11T15:37:06.510Z</time>
      </trkpt>
      <trkpt lat="48.24753" lon="-3.42895">
        <ele>191.810613</ele>
        <time>2022-12-11T15:37:08.492Z</time>
      </trkpt>
      <trkpt lat="48.24749" lon="-3.42883">
        <ele>192.002663</ele>
        <time>2022-12-11T15:37:10.483Z</time>
      </trkpt>
      <trkpt lat="48.24744" lon="-3.42871">
        <ele>192.193719</ele>
        <time>2022-12-11T15:37:13.508Z</time>
      </trkpt>
      <trkpt lat="48.24739" lon="-3.42857">
        <ele>192.416403</ele>
        <time>2022-12-11T15:37:17.496Z</time>
      </trkpt>
      <trkpt lat="48.24734" lon="-3.4284">
        <ele>192.590007</ele>
        <time>2022-12-11T15:37:20.510Z</time>
      </trkpt>
      <trkpt lat="48.2473" lon="-3.42825">
        <ele>192.696526</ele>
        <time>2022-12-11T15:37:23.485Z</time>
      </trkpt>
      <trkpt lat="48.24726" lon="-3.42812">
        <ele>192.79597</ele>
        <time>2022-12-11T15:37:26.512Z</time>
      </trkpt>
      <trkpt lat="48.2472" lon="-3.42797">
        <ele>192.905303</ele>
        <time>2022-12-11T15:37:29.486Z</time>
      </trkpt>
      <trkpt lat="48.24716" lon="-3.42782">
        <ele>193.015659</ele>
        <time>2022-12-11T15:37:33.509Z</time>
      </trkpt>
      <trkpt lat="48.2471" lon="-3.42767">
        <ele>193.13473</ele>
        <time>2022-12-11T15:37:36.526Z</time>
      </trkpt>
      <trkpt lat="48.24704" lon="-3.42752">
        <ele>193.245953</ele>
        <time>2022-12-11T15:37:39.502Z</time>
      </trkpt>
      <trkpt lat="48.24698" lon="-3.42738">
        <ele>193.35944</ele>
        <time>2022-12-11T15:37:42.485Z</time>
      </trkpt>
      <trkpt lat="48.24691" lon="-3.42723">
        <ele>193.483975</ele>
        <time>2022-12-11T15:37:45.492Z</time>
      </trkpt>
      <trkpt lat="48.24686" lon="-3.42708">
        <ele>193.591487</ele>
        <time>2022-12-11T15:37:48.478Z</time>
      </trkpt>
      <trkpt lat="48.24682" lon="-3.42695">
        <ele>193.688103</ele>
        <time>2022-12-11T15:37:52.487Z</time>
      </trkpt>
      <trkpt lat="48.24677" lon="-3.42683">
        <ele>193.781078</ele>
        <time>2022-12-11T15:37:55.498Z</time>
      </trkpt>
      <trkpt lat="48.24673" lon="-3.42671">
        <ele>193.87204</ele>
        <time>2022-12-11T15:37:58.480Z</time>
      </trkpt>
      <trkpt lat="48.24668" lon="-3.42659">
        <ele>193.963325</ele>
        <time>2022-12-11T15:38:01.489Z</time>
      </trkpt>
      <trkpt lat="48.24663" lon="-3.42647">
        <ele>194.061239</ele>
        <time>2022-12-11T15:38:04.477Z</time>
      </trkpt>
      <trkpt lat="48.24658" lon="-3.42634">
        <ele>194.163027</ele>
        <time>2022-12-11T15:38:07.478Z</time>
      </trkpt>
      <trkpt lat="48.24652" lon="-3.42618">
        <ele>194.280212</ele>
        <time>2022-12-11T15:38:11.495Z</time>
      </trkpt>
      <trkpt lat="48.24646" lon="-3.42604">
        <ele>194.389355</ele>
        <time>2022-12-11T15:38:14.499Z</time>
      </trkpt>
      <trkpt lat="48.2464" lon="-3.4259">
        <ele>194.500012</ele>
        <time>2022-12-11T15:38:17.479Z</time>
      </trkpt>
      <trkpt lat="48.24634" lon="-3.42575">
        <ele>194.610803</ele>
        <time>2022-12-11T15:38:20.496Z</time>
      </trkpt>
      <trkpt lat="48.24629" lon="-3.42562">
        <ele>194.715613</ele>
        <time>2022-12-11T15:38:23.493Z</time>
      </trkpt>
      <trkpt lat="48.24624" lon="-3.42549">
        <ele>194.81183</ele>
        <time>2022-12-11T15:38:26.505Z</time>
      </trkpt>
      <trkpt lat="48.24619" lon="-3.42537">
        <ele>194.900803</ele>
        <time>2022-12-11T15:38:29.491Z</time>
      </trkpt>
      <trkpt lat="48.24614" lon="-3.42526">
        <ele>194.992473</ele>
        <time>2022-12-11T15:38:32.481Z</time>
      </trkpt>
      <trkpt lat="48.24607" lon="-3.42512">
        <ele>195.102602</ele>
        <time>2022-12-11T15:38:35.487Z</time>
      </trkpt>
      <trkpt lat="48.24601" lon="-3.425">
        <ele>195.201505</ele>
        <time>2022-12-11T15:38:38.493Z</time>
      </trkpt>
      <trkpt lat="48.24595" lon="-3.42489">
        <ele>195.29254</ele>
        <time>2022-12-11T15:38:41.496Z</time>
      </trkpt>
      <trkpt lat="48.24589" lon="-3.42477">
        <ele>195.387846</ele>
        <time>2022-12-11T15:38:44.488Z</time>
      </trkpt>
      <trkpt lat="48.24581" lon="-3.42467">
        <ele>195.491523</ele>
        <time>2022-12-11T15:38:47.490Z</time>
      </trkpt>
      <trkpt lat="48.24572" lon="-3.42458">
        <ele>195.59405</ele>
        <time>2022-12-11T15:38:50.478Z</time>
      </trkpt>
      <trkpt lat="48.24562" lon="-3.4245">
        <ele>195.705866</ele>
        <time>2022-12-11T15:38:53.500Z</time>
      </trkpt>
      <trkpt lat="48.24552" lon="-3.42444">
        <ele>195.814049</ele>
        <time>2022-12-11T15:38:56.523Z</time>
      </trkpt>
      <trkpt lat="48.24541" lon="-3.4244">
        <ele>195.926417</ele>
        <time>2022-12-11T15:38:59.505Z</time>
      </trkpt>
      <trkpt lat="48.24531" lon="-3.42438">
        <ele>196.023486</ele>
        <time>2022-12-11T15:39:02.480Z</time>
      </trkpt>
      <trkpt lat="48.24522" lon="-3.42438">
        <ele>196.096611</ele>
        <time>2022-12-11T15:39:06.499Z</time>
      </trkpt>
      <trkpt lat="48.24511" lon="-3.42438">
        <ele>196.159611</ele>
        <time>2022-12-11T15:39:11.485Z</time>
      </trkpt>
      <trkpt lat="48.24502" lon="-3.42439">
        <ele>196.213302</ele>
        <time>2022-12-11T15:39:15.487Z</time>
      </trkpt>
      <trkpt lat="48.2449" lon="-3.42441">
        <ele>196.285401</ele>
        <time>2022-12-11T15:39:19.489Z</time>
      </trkpt>
      <trkpt lat="48.2448" lon="-3.42443">
        <ele>196.345022</ele>
        <time>2022-12-11T15:39:22.502Z</time>
      </trkpt>
      <trkpt lat="48.24471" lon="-3.42445">
        <ele>196.401738</ele>
        <time>2022-12-11T15:39:25.483Z</time>
      </trkpt>
      <trkpt lat="48.24459" lon="-3.42448">
        <ele>196.468927</ele>
        <time>2022-12-11T15:39:29.482Z</time>
      </trkpt>
      <trkpt lat="48.24449" lon="-3.4245">
        <ele>196.530233</ele>
        <time>2022-12-11T15:39:33.479Z</time>
      </trkpt>
      <trkpt lat="48.2444" lon="-3.42451">
        <ele>196.583291</ele>
        <time>2022-12-11T15:39:37.502Z</time>
      </trkpt>
      <trkpt lat="48.24428" lon="-3.42452">
        <ele>196.651746</ele>
        <time>2022-12-11T15:39:41.491Z</time>
      </trkpt>
      <trkpt lat="48.24419" lon="-3.42454">
        <ele>196.705368</ele>
        <time>2022-12-11T15:39:44.500Z</time>
      </trkpt>
      <trkpt lat="48.2441" lon="-3.42456">
        <ele>196.758535</ele>
        <time>2022-12-11T15:39:47.477Z</time>
      </trkpt>
      <trkpt lat="48.24401" lon="-3.42458">
        <ele>196.812523</ele>
        <time>2022-12-11T15:39:50.488Z</time>
      </trkpt>
      <trkpt lat="48.24392" lon="-3.4246">
        <ele>196.869176</ele>
        <time>2022-12-11T15:39:53.479Z</time>
      </trkpt>
      <trkpt lat="48.24381" lon="-3.42463">
        <ele>196.932706</ele>
        <time>2022-12-11T15:39:57.511Z</time>
      </trkpt>
      <trkpt lat="48.2437" lon="-3.42465">
        <ele>196.99794</ele>
        <time>2022-12-11T15:40:02.490Z</time>
      </trkpt>
      <trkpt lat="48.24359" lon="-3.42467">
        <ele>197.066682</ele>
        <time>2022-12-11T15:40:06.517Z</time>
      </trkpt>
      <trkpt lat="48.24348" lon="-3.42468">
        <ele>197.128272</ele>
        <time>2022-12-11T15:40:09.485Z</time>
      </trkpt>
      <trkpt lat="48.24337" lon="-3.4247">
        <ele>197.252989</ele>
        <time>2022-12-11T15:40:13.490Z</time>
      </trkpt>
      <trkpt lat="48.24327" lon="-3.42473">
        <ele>197.373091</ele>
        <time>2022-12-11T15:40:17.487Z</time>
      </trkpt>
      <trkpt lat="48.24317" lon="-3.42474">
        <ele>197.49122</ele>
        <time>2022-12-11T15:40:21.516Z</time>
      </trkpt>
      <trkpt lat="48.24307" lon="-3.42476">
        <ele>197.613098</ele>
        <time>2022-12-11T15:40:25.503Z</time>
      </trkpt>
      <trkpt lat="48.24297" lon="-3.42478">
        <ele>197.723047</ele>
        <time>2022-12-11T15:40:29.490Z</time>
      </trkpt>
      <trkpt lat="48.24287" lon="-3.42481">
        <ele>197.841711</ele>
        <time>2022-12-11T15:40:33.491Z</time>
      </trkpt>
      <trkpt lat="48.24277" lon="-3.42483">
        <ele>197.962532</ele>
        <time>2022-12-11T15:40:37.473Z</time>
      </trkpt>
      <trkpt lat="48.24266" lon="-3.42485">
        <ele>198.090629</ele>
        <time>2022-12-11T15:40:41.497Z</time>
      </trkpt>
      <trkpt lat="48.24254" lon="-3.42488">
        <ele>198.229537</ele>
        <time>2022-12-11T15:40:45.484Z</time>
      </trkpt>
      <trkpt lat="48.24244" lon="-3.4249">
        <ele>198.35552</ele>
        <time>2022-12-11T15:40:49.492Z</time>
      </trkpt>
      <trkpt lat="48.24235" lon="-3.42491">
        <ele>198.460921</ele>
        <time>2022-12-11T15:40:52.488Z</time>
      </trkpt>
      <trkpt lat="48.24224" lon="-3.42493">
        <ele>198.582875</ele>
        <time>2022-12-11T15:40:55.498Z</time>
      </trkpt>
      <trkpt lat="48.24213" lon="-3.42494">
        <ele>198.717208</ele>
        <time>2022-12-11T15:40:59.496Z</time>
      </trkpt>
      <trkpt lat="48.24203" lon="-3.42493">
        <ele>198.830386</ele>
        <time>2022-12-11T15:41:02.493Z</time>
      </trkpt>
      <trkpt lat="48.24193" lon="-3.42492">
        <ele>198.946539</ele>
        <time>2022-12-11T15:41:05.495Z</time>
      </trkpt>
      <trkpt lat="48.24183" lon="-3.42489">
        <ele>199.068095</ele>
        <time>2022-12-11T15:41:08.500Z</time>
      </trkpt>
      <trkpt lat="48.24174" lon="-3.42483">
        <ele>199.175957</ele>
        <time>2022-12-11T15:41:11.506Z</time>
      </trkpt>
      <trkpt lat="48.24165" lon="-3.42474">
        <ele>199.323439</ele>
        <time>2022-12-11T15:41:15.491Z</time>
      </trkpt>
      <trkpt lat="48.24156" lon="-3.42468">
        <ele>199.463166</ele>
        <time>2022-12-11T15:41:19.490Z</time>
      </trkpt>
      <trkpt lat="48.24145" lon="-3.42462">
        <ele>199.617477</ele>
        <time>2022-12-11T15:41:23.485Z</time>
      </trkpt>
      <trkpt lat="48.24136" lon="-3.42455">
        <ele>199.762012</ele>
        <time>2022-12-11T15:41:27.480Z</time>
      </trkpt>
      <trkpt lat="48.24127" lon="-3.42447">
        <ele>199.90986</ele>
        <time>2022-12-11T15:41:31.507Z</time>
      </trkpt>
      <trkpt lat="48.24117" lon="-3.42441">
        <ele>200.061255</ele>
        <time>2022-12-11T15:41:35.488Z</time>
      </trkpt>
      <trkpt lat="48.24106" lon="-3.42434">
        <ele>200.217764</ele>
        <time>2022-12-11T15:41:39.487Z</time>
      </trkpt>
      <trkpt lat="48.24097" lon="-3.42428">
        <ele>200.362428</ele>
        <time>2022-12-11T15:41:43.491Z</time>
      </trkpt>
      <trkpt lat="48.24087" lon="-3.42422">
        <ele>200.512665</ele>
        <time>2022-12-11T15:41:48.497Z</time>
      </trkpt>
      <trkpt lat="48.24078" lon="-3.42417">
        <ele>200.643458</ele>
        <time>2022-12-11T15:41:52.498Z</time>
      </trkpt>
      <trkpt lat="48.24069" lon="-3.42411">
        <ele>200.776088</ele>
        <time>2022-12-11T15:41:56.475Z</time>
      </trkpt>
      <trkpt lat="48.2406" lon="-3.42405">
        <ele>200.910365</ele>
        <time>2022-12-11T15:42:00.495Z</time>
      </trkpt>
      <trkpt lat="48.24052" lon="-3.42399">
        <ele>201.040601</ele>
        <time>2022-12-11T15:42:03.502Z</time>
      </trkpt>
      <trkpt lat="48.24043" lon="-3.42394">
        <ele>201.173391</ele>
        <time>2022-12-11T15:42:06.477Z</time>
      </trkpt>
      <trkpt lat="48.24032" lon="-3.42387">
        <ele>201.334819</ele>
        <time>2022-12-11T15:42:10.503Z</time>
      </trkpt>
      <trkpt lat="48.24022" lon="-3.42381">
        <ele>201.489339</ele>
        <time>2022-12-11T15:42:14.484Z</time>
      </trkpt>
      <trkpt lat="48.24012" lon="-3.42374">
        <ele>201.646437</ele>
        <time>2022-12-11T15:42:18.487Z</time>
      </trkpt>
      <trkpt lat="48.24002" lon="-3.42369">
        <ele>201.819983</ele>
        <time>2022-12-11T15:42:21.497Z</time>
      </trkpt>
      <trkpt lat="48.23993" lon="-3.42364">
        <ele>202.05439</ele>
        <time>2022-12-11T15:42:24.499Z</time>
      </trkpt>
      <trkpt lat="48.23982" lon="-3.42358">
        <ele>202.312373</ele>
        <time>2022-12-11T15:42:27.497Z</time>
      </trkpt>
      <trkpt lat="48.23972" lon="-3.42352">
        <ele>202.56014</ele>
        <time>2022-12-11T15:42:30.487Z</time>
      </trkpt>
      <trkpt lat="48.23963" lon="-3.42347">
        <ele>202.771448</ele>
        <time>2022-12-11T15:42:33.477Z</time>
      </trkpt>
      <trkpt lat="48.23953" lon="-3.42341">
        <ele>203.027448</ele>
        <time>2022-12-11T15:42:37.487Z</time>
      </trkpt>
      <trkpt lat="48.23942" lon="-3.42333">
        <ele>203.298202</ele>
        <time>2022-12-11T15:42:41.499Z</time>
      </trkpt>
      <trkpt lat="48.23933" lon="-3.42327">
        <ele>203.524455</ele>
        <time>2022-12-11T15:42:44.484Z</time>
      </trkpt>
      <trkpt lat="48.23925" lon="-3.42321">
        <ele>203.745769</ele>
        <time>2022-12-11T15:42:47.485Z</time>
      </trkpt>
      <trkpt lat="48.23916" lon="-3.42315">
        <ele>203.952177</ele>
        <time>2022-12-11T15:42:50.490Z</time>
      </trkpt>
      <trkpt lat="48.23906" lon="-3.42308">
        <ele>204.212698</ele>
        <time>2022-12-11T15:42:54.484Z</time>
      </trkpt>
      <trkpt lat="48.23897" lon="-3.42303">
        <ele>204.430429</ele>
        <time>2022-12-11T15:42:58.504Z</time>
      </trkpt>
      <trkpt lat="48.23889" lon="-3.42298">
        <ele>204.640163</ele>
        <time>2022-12-11T15:43:02.506Z</time>
      </trkpt>
      <trkpt lat="48.23879" lon="-3.42292">
        <ele>204.880008</ele>
        <time>2022-12-11T15:43:06.489Z</time>
      </trkpt>
      <trkpt lat="48.23869" lon="-3.42286">
        <ele>205.127903</ele>
        <time>2022-12-11T15:43:10.483Z</time>
      </trkpt>
      <trkpt lat="48.23859" lon="-3.4228">
        <ele>205.384783</ele>
        <time>2022-12-11T15:43:14.491Z</time>
      </trkpt>
      <trkpt lat="48.23848" lon="-3.42272">
        <ele>205.656</ele>
        <time>2022-12-11T15:43:18.491Z</time>
      </trkpt>
      <trkpt lat="48.23839" lon="-3.42267">
        <ele>205.865506</ele>
        <time>2022-12-11T15:43:21.489Z</time>
      </trkpt>
      <trkpt lat="48.23829" lon="-3.4226">
        <ele>205.996953</ele>
        <time>2022-12-11T15:43:24.502Z</time>
      </trkpt>
      <trkpt lat="48.2382" lon="-3.42253">
        <ele>206.122589</ele>
        <time>2022-12-11T15:43:27.479Z</time>
      </trkpt>
      <trkpt lat="48.2381" lon="-3.42246">
        <ele>206.249764</ele>
        <time>2022-12-11T15:43:30.488Z</time>
      </trkpt>
      <trkpt lat="48.23802" lon="-3.42236">
        <ele>206.376752</ele>
        <time>2022-12-11T15:43:33.506Z</time>
      </trkpt>
      <trkpt lat="48.23795" lon="-3.42224">
        <ele>206.503827</ele>
        <time>2022-12-11T15:43:36.475Z</time>
      </trkpt>
      <trkpt lat="48.23789" lon="-3.42213">
        <ele>206.61698</ele>
        <time>2022-12-11T15:43:39.487Z</time>
      </trkpt>
      <trkpt lat="48.23785" lon="-3.42201">
        <ele>206.728136</ele>
        <time>2022-12-11T15:43:42.503Z</time>
      </trkpt>
      <trkpt lat="48.23782" lon="-3.42188">
        <ele>206.838836</ele>
        <time>2022-12-11T15:43:45.499Z</time>
      </trkpt>
      <trkpt lat="48.2378" lon="-3.42174">
        <ele>206.952486</ele>
        <time>2022-12-11T15:43:48.524Z</time>
      </trkpt>
      <trkpt lat="48.23777" lon="-3.42159">
        <ele>207.077626</ele>
        <time>2022-12-11T15:43:52.484Z</time>
      </trkpt>
      <trkpt lat="48.23775" lon="-3.42144">
        <ele>207.199841</ele>
        <time>2022-12-11T15:43:57.487Z</time>
      </trkpt>
      <trkpt lat="48.23772" lon="-3.42131">
        <ele>207.310856</ele>
        <time>2022-12-11T15:44:02.499Z</time>
      </trkpt>
      <trkpt lat="48.23769" lon="-3.42115">
        <ele>207.44437</ele>
        <time>2022-12-11T15:44:07.476Z</time>
      </trkpt>
      <trkpt lat="48.23768" lon="-3.421">
        <ele>207.568125</ele>
        <time>2022-12-11T15:44:12.501Z</time>
      </trkpt>
      <trkpt lat="48.23767" lon="-3.42084">
        <ele>207.696151</ele>
        <time>2022-12-11T15:44:16.496Z</time>
      </trkpt>
      <trkpt lat="48.23764" lon="-3.42068">
        <ele>207.829966</ele>
        <time>2022-12-11T15:44:20.494Z</time>
      </trkpt>
      <trkpt lat="48.23761" lon="-3.42053">
        <ele>207.9548</ele>
        <time>2022-12-11T15:44:24.497Z</time>
      </trkpt>
      <trkpt lat="48.23757" lon="-3.42038">
        <ele>208.077547</ele>
        <time>2022-12-11T15:44:28.491Z</time>
      </trkpt>
      <trkpt lat="48.23754" lon="-3.42024">
        <ele>208.183801</ele>
        <time>2022-12-11T15:44:32.492Z</time>
      </trkpt>
      <trkpt lat="48.23755" lon="-3.4201">
        <ele>208.288705</ele>
        <time>2022-12-11T15:44:36.478Z</time>
      </trkpt>
      <trkpt lat="48.23751" lon="-3.41993">
        <ele>208.420042</ele>
        <time>2022-12-11T15:44:40.493Z</time>
      </trkpt>
      <trkpt lat="48.23748" lon="-3.41977">
        <ele>208.539345</ele>
        <time>2022-12-11T15:44:45.487Z</time>
      </trkpt>
      <trkpt lat="48.23746" lon="-3.41963">
        <ele>208.647114</ele>
        <time>2022-12-11T15:44:51.493Z</time>
      </trkpt>
      <trkpt lat="48.23744" lon="-3.41949">
        <ele>208.750874</ele>
        <time>2022-12-11T15:44:57.496Z</time>
      </trkpt>
      <trkpt lat="48.23743" lon="-3.41934">
        <ele>208.859053</ele>
        <time>2022-12-11T15:45:02.499Z</time>
      </trkpt>
      <trkpt lat="48.2374" lon="-3.4192">
        <ele>208.961517</ele>
        <time>2022-12-11T15:45:07.493Z</time>
      </trkpt>
      <trkpt lat="48.23738" lon="-3.41906">
        <ele>209.066714</ele>
        <time>2022-12-11T15:45:11.494Z</time>
      </trkpt>
      <trkpt lat="48.23735" lon="-3.41893">
        <ele>209.167439</ele>
        <time>2022-12-11T15:45:15.509Z</time>
      </trkpt>
      <trkpt lat="48.23731" lon="-3.41878">
        <ele>209.285028</ele>
        <time>2022-12-11T15:45:20.504Z</time>
      </trkpt>
      <trkpt lat="48.2373" lon="-3.41864">
        <ele>209.385881</ele>
        <time>2022-12-11T15:45:24.497Z</time>
      </trkpt>
      <trkpt lat="48.23727" lon="-3.4185">
        <ele>209.495548</ele>
        <time>2022-12-11T15:45:28.480Z</time>
      </trkpt>
      <trkpt lat="48.23724" lon="-3.41836">
        <ele>209.599715</ele>
        <time>2022-12-11T15:45:32.495Z</time>
      </trkpt>
      <trkpt lat="48.23721" lon="-3.41821">
        <ele>209.713209</ele>
        <time>2022-12-11T15:45:37.489Z</time>
      </trkpt>
      <trkpt lat="48.23717" lon="-3.41807">
        <ele>209.822253</ele>
        <time>2022-12-11T15:45:42.493Z</time>
      </trkpt>
      <trkpt lat="48.23716" lon="-3.41792">
        <ele>209.933054</ele>
        <time>2022-12-11T15:45:46.479Z</time>
      </trkpt>
      <trkpt lat="48.23712" lon="-3.41776">
        <ele>210.131983</ele>
        <time>2022-12-11T15:45:50.493Z</time>
      </trkpt>
      <trkpt lat="48.2371" lon="-3.4176">
        <ele>210.387562</ele>
        <time>2022-12-11T15:45:54.482Z</time>
      </trkpt>
      <trkpt lat="48.23707" lon="-3.41747">
        <ele>210.598011</ele>
        <time>2022-12-11T15:45:57.484Z</time>
      </trkpt>
      <trkpt lat="48.23704" lon="-3.41733">
        <ele>210.815846</ele>
        <time>2022-12-11T15:46:00.512Z</time>
      </trkpt>
      <trkpt lat="48.237" lon="-3.41719">
        <ele>211.045397</ele>
        <time>2022-12-11T15:46:03.505Z</time>
      </trkpt>
      <trkpt lat="48.23695" lon="-3.41706">
        <ele>211.276534</ele>
        <time>2022-12-11T15:46:06.480Z</time>
      </trkpt>
      <trkpt lat="48.23689" lon="-3.41693">
        <ele>211.509378</ele>
        <time>2022-12-11T15:46:09.491Z</time>
      </trkpt>
      <trkpt lat="48.23683" lon="-3.41682">
        <ele>211.736554</ele>
        <time>2022-12-11T15:46:12.505Z</time>
      </trkpt>
      <trkpt lat="48.23674" lon="-3.4167">
        <ele>211.99651</ele>
        <time>2022-12-11T15:46:16.479Z</time>
      </trkpt>
      <trkpt lat="48.23664" lon="-3.41662">
        <ele>212.266059</ele>
        <time>2022-12-11T15:46:20.510Z</time>
      </trkpt>
      <trkpt lat="48.23654" lon="-3.41653">
        <ele>212.532401</ele>
        <time>2022-12-11T15:46:24.495Z</time>
      </trkpt>
      <trkpt lat="48.23646" lon="-3.41644">
        <ele>212.750381</ele>
        <time>2022-12-11T15:46:28.506Z</time>
      </trkpt>
      <trkpt lat="48.23638" lon="-3.41637">
        <ele>212.964696</ele>
        <time>2022-12-11T15:46:32.502Z</time>
      </trkpt>
      <trkpt lat="48.23629" lon="-3.41629">
        <ele>213.204197</ele>
        <time>2022-12-11T15:46:38.500Z</time>
      </trkpt>
      <trkpt lat="48.2362" lon="-3.41621">
        <ele>213.445598</ele>
        <time>2022-12-11T15:46:43.504Z</time>
      </trkpt>
      <trkpt lat="48.23612" lon="-3.4161">
        <ele>213.697363</ele>
        <time>2022-12-11T15:46:48.497Z</time>
      </trkpt>
      <trkpt lat="48.23602" lon="-3.41602">
        <ele>213.941007</ele>
        <time>2022-12-11T15:46:53.513Z</time>
      </trkpt>
      <trkpt lat="48.23593" lon="-3.41595">
        <ele>214.192866</ele>
        <time>2022-12-11T15:46:57.488Z</time>
      </trkpt>
      <trkpt lat="48.23583" lon="-3.41587">
        <ele>214.47832</ele>
        <time>2022-12-11T15:47:01.497Z</time>
      </trkpt>
      <trkpt lat="48.23574" lon="-3.41579">
        <ele>214.733614</ele>
        <time>2022-12-11T15:47:05.510Z</time>
      </trkpt>
      <trkpt lat="48.23565" lon="-3.41572">
        <ele>214.978001</ele>
        <time>2022-12-11T15:47:09.496Z</time>
      </trkpt>
      <trkpt lat="48.23555" lon="-3.41564">
        <ele>215.271462</ele>
        <time>2022-12-11T15:47:13.507Z</time>
      </trkpt>
      <trkpt lat="48.23546" lon="-3.41556">
        <ele>215.525914</ele>
        <time>2022-12-11T15:47:17.500Z</time>
      </trkpt>
      <trkpt lat="48.23537" lon="-3.41548">
        <ele>215.785916</ele>
        <time>2022-12-11T15:47:22.485Z</time>
      </trkpt>
      <trkpt lat="48.23529" lon="-3.41542">
        <ele>216.025705</ele>
        <time>2022-12-11T15:47:27.501Z</time>
      </trkpt>
      <trkpt lat="48.2352" lon="-3.41535">
        <ele>216.268524</ele>
        <time>2022-12-11T15:47:31.485Z</time>
      </trkpt>
      <trkpt lat="48.23512" lon="-3.41528">
        <ele>216.503162</ele>
        <time>2022-12-11T15:47:35.510Z</time>
      </trkpt>
      <trkpt lat="48.23503" lon="-3.4152">
        <ele>216.764939</ele>
        <time>2022-12-11T15:47:39.509Z</time>
      </trkpt>
      <trkpt lat="48.23493" lon="-3.41511">
        <ele>217.051788</ele>
        <time>2022-12-11T15:47:43.496Z</time>
      </trkpt>
      <trkpt lat="48.23483" lon="-3.41501">
        <ele>217.343916</ele>
        <time>2022-12-11T15:47:47.509Z</time>
      </trkpt>
      <trkpt lat="48.23474" lon="-3.41492">
        <ele>217.62966</ele>
        <time>2022-12-11T15:47:51.494Z</time>
      </trkpt>
      <trkpt lat="48.23465" lon="-3.41483">
        <ele>217.907508</ele>
        <time>2022-12-11T15:47:55.499Z</time>
      </trkpt>
      <trkpt lat="48.23455" lon="-3.41476">
        <ele>218.173362</ele>
        <time>2022-12-11T15:47:59.473Z</time>
      </trkpt>
      <trkpt lat="48.23447" lon="-3.41466">
        <ele>218.429097</ele>
        <time>2022-12-11T15:48:03.501Z</time>
      </trkpt>
      <trkpt lat="48.23438" lon="-3.41458">
        <ele>218.68434</ele>
        <time>2022-12-11T15:48:07.504Z</time>
      </trkpt>
      <trkpt lat="48.2343" lon="-3.41452">
        <ele>218.93353</ele>
        <time>2022-12-11T15:48:12.496Z</time>
      </trkpt>
      <trkpt lat="48.2342" lon="-3.41445">
        <ele>219.203272</ele>
        <time>2022-12-11T15:48:16.482Z</time>
      </trkpt>
      <trkpt lat="48.23412" lon="-3.41438">
        <ele>219.458585</ele>
        <time>2022-12-11T15:48:20.508Z</time>
      </trkpt>
      <trkpt lat="48.23403" lon="-3.4143">
        <ele>219.721814</ele>
        <time>2022-12-11T15:48:25.499Z</time>
      </trkpt>
      <trkpt lat="48.23394" lon="-3.41423">
        <ele>219.979395</ele>
        <time>2022-12-11T15:48:29.503Z</time>
      </trkpt>
      <trkpt lat="48.23386" lon="-3.41415">
        <ele>220.227441</ele>
        <time>2022-12-11T15:48:33.502Z</time>
      </trkpt>
      <trkpt lat="48.23377" lon="-3.41406">
        <ele>220.510941</ele>
        <time>2022-12-11T15:48:39.497Z</time>
      </trkpt>
      <trkpt lat="48.23369" lon="-3.41397">
        <ele>220.780538</ele>
        <time>2022-12-11T15:48:44.509Z</time>
      </trkpt>
      <trkpt lat="48.23361" lon="-3.4139">
        <ele>221.015797</ele>
        <time>2022-12-11T15:48:49.487Z</time>
      </trkpt>
      <trkpt lat="48.23353" lon="-3.41383">
        <ele>221.268324</ele>
        <time>2022-12-11T15:48:54.477Z</time>
      </trkpt>
      <trkpt lat="48.23344" lon="-3.41374">
        <ele>221.53272</ele>
        <time>2022-12-11T15:48:59.502Z</time>
      </trkpt>
      <trkpt lat="48.23335" lon="-3.41366">
        <ele>221.79651</ele>
        <time>2022-12-11T15:49:05.494Z</time>
      </trkpt>
      <trkpt lat="48.23326" lon="-3.4136">
        <ele>222.052545</ele>
        <time>2022-12-11T15:49:12.507Z</time>
      </trkpt>
      <trkpt lat="48.23315" lon="-3.41344">
        <ele>222.46193</ele>
        <time>2022-12-11T15:52:07.490Z</time>
      </trkpt>
      <trkpt lat="48.23307" lon="-3.41335">
        <ele>222.726531</ele>
        <time>2022-12-11T15:52:12.482Z</time>
      </trkpt>
      <trkpt lat="48.23298" lon="-3.41327">
        <ele>223.000834</ele>
        <time>2022-12-11T15:52:16.479Z</time>
      </trkpt>
      <trkpt lat="48.23289" lon="-3.4132">
        <ele>223.240418</ele>
        <time>2022-12-11T15:52:19.493Z</time>
      </trkpt>
      <trkpt lat="48.23279" lon="-3.41312">
        <ele>223.42169</ele>
        <time>2022-12-11T15:52:23.503Z</time>
      </trkpt>
      <trkpt lat="48.23271" lon="-3.41304">
        <ele>223.573664</ele>
        <time>2022-12-11T15:52:26.479Z</time>
      </trkpt>
      <trkpt lat="48.23263" lon="-3.41295">
        <ele>223.724865</ele>
        <time>2022-12-11T15:52:29.491Z</time>
      </trkpt>
      <trkpt lat="48.23256" lon="-3.41283">
        <ele>223.888841</ele>
        <time>2022-12-11T15:52:33.482Z</time>
      </trkpt>
      <trkpt lat="48.23249" lon="-3.41268">
        <ele>224.065404</ele>
        <time>2022-12-11T15:52:37.485Z</time>
      </trkpt>
      <trkpt lat="48.23243" lon="-3.41254">
        <ele>224.238848</ele>
        <time>2022-12-11T15:52:41.509Z</time>
      </trkpt>
      <trkpt lat="48.23238" lon="-3.41242">
        <ele>224.384819</ele>
        <time>2022-12-11T15:52:45.485Z</time>
      </trkpt>
      <trkpt lat="48.23232" lon="-3.41229">
        <ele>224.552306</ele>
        <time>2022-12-11T15:52:49.491Z</time>
      </trkpt>
      <trkpt lat="48.23227" lon="-3.41217">
        <ele>224.695775</ele>
        <time>2022-12-11T15:52:53.495Z</time>
      </trkpt>
      <trkpt lat="48.2322" lon="-3.41204">
        <ele>224.860176</ele>
        <time>2022-12-11T15:52:58.483Z</time>
      </trkpt>
      <trkpt lat="48.23214" lon="-3.41191">
        <ele>225.023162</ele>
        <time>2022-12-11T15:53:02.479Z</time>
      </trkpt>
      <trkpt lat="48.23209" lon="-3.41178">
        <ele>225.17282</ele>
        <time>2022-12-11T15:53:06.485Z</time>
      </trkpt>
      <trkpt lat="48.23204" lon="-3.41165">
        <ele>225.330958</ele>
        <time>2022-12-11T15:53:10.490Z</time>
      </trkpt>
      <trkpt lat="48.23198" lon="-3.41151">
        <ele>225.502554</ele>
        <time>2022-12-11T15:53:14.483Z</time>
      </trkpt>
      <trkpt lat="48.23192" lon="-3.41138">
        <ele>225.654476</ele>
        <time>2022-12-11T15:53:17.486Z</time>
      </trkpt>
      <trkpt lat="48.23186" lon="-3.41126">
        <ele>225.810846</ele>
        <time>2022-12-11T15:53:21.486Z</time>
      </trkpt>
      <trkpt lat="48.23184" lon="-3.41112">
        <ele>225.955126</ele>
        <time>2022-12-11T15:53:27.492Z</time>
      </trkpt>
      <trkpt lat="48.23177" lon="-3.411">
        <ele>226.130823</ele>
        <time>2022-12-11T15:53:33.506Z</time>
      </trkpt>
      <trkpt lat="48.23173" lon="-3.41088">
        <ele>226.300399</ele>
        <time>2022-12-11T15:53:38.483Z</time>
      </trkpt>
      <trkpt lat="48.23166" lon="-3.41077">
        <ele>226.471681</ele>
        <time>2022-12-11T15:53:43.482Z</time>
      </trkpt>
      <trkpt lat="48.23161" lon="-3.41066">
        <ele>226.632202</ele>
        <time>2022-12-11T15:53:48.487Z</time>
      </trkpt>
      <trkpt lat="48.23156" lon="-3.41054">
        <ele>226.798843</ele>
        <time>2022-12-11T15:53:53.489Z</time>
      </trkpt>
      <trkpt lat="48.2315" lon="-3.41041">
        <ele>226.987278</ele>
        <time>2022-12-11T15:53:59.479Z</time>
      </trkpt>
      <trkpt lat="48.23144" lon="-3.41028">
        <ele>227.175241</ele>
        <time>2022-12-11T15:54:04.482Z</time>
      </trkpt>
      <trkpt lat="48.23138" lon="-3.41015">
        <ele>227.361239</ele>
        <time>2022-12-11T15:54:09.488Z</time>
      </trkpt>
      <trkpt lat="48.23134" lon="-3.41001">
        <ele>227.539991</ele>
        <time>2022-12-11T15:54:14.492Z</time>
      </trkpt>
      <trkpt lat="48.23129" lon="-3.40989">
        <ele>227.703346</ele>
        <time>2022-12-11T15:54:19.501Z</time>
      </trkpt>
      <trkpt lat="48.23123" lon="-3.40977">
        <ele>227.891946</ele>
        <time>2022-12-11T15:54:25.495Z</time>
      </trkpt>
      <trkpt lat="48.23118" lon="-3.40965">
        <ele>228.056544</ele>
        <time>2022-12-11T15:54:30.516Z</time>
      </trkpt>
      <trkpt lat="48.23114" lon="-3.40952">
        <ele>228.230017</ele>
        <time>2022-12-11T15:54:35.485Z</time>
      </trkpt>
      <trkpt lat="48.23108" lon="-3.4094">
        <ele>228.399338</ele>
        <time>2022-12-11T15:54:39.479Z</time>
      </trkpt>
      <trkpt lat="48.23102" lon="-3.40926">
        <ele>228.596296</ele>
        <time>2022-12-11T15:54:43.481Z</time>
      </trkpt>
      <trkpt lat="48.23095" lon="-3.40913">
        <ele>228.784385</ele>
        <time>2022-12-11T15:54:47.479Z</time>
      </trkpt>
      <trkpt lat="48.23089" lon="-3.40899">
        <ele>228.98027</ele>
        <time>2022-12-11T15:54:51.481Z</time>
      </trkpt>
      <trkpt lat="48.23084" lon="-3.40888">
        <ele>229.150524</ele>
        <time>2022-12-11T15:54:54.497Z</time>
      </trkpt>
      <trkpt lat="48.23078" lon="-3.40877">
        <ele>229.132806</ele>
        <time>2022-12-11T15:54:57.485Z</time>
      </trkpt>
      <trkpt lat="48.23072" lon="-3.40866">
        <ele>229.06575</ele>
        <time>2022-12-11T15:55:00.514Z</time>
      </trkpt>
      <trkpt lat="48.23067" lon="-3.40853">
        <ele>228.995914</ele>
        <time>2022-12-11T15:55:03.480Z</time>
      </trkpt>
      <trkpt lat="48.2306" lon="-3.40841">
        <ele>228.923665</ele>
        <time>2022-12-11T15:55:06.482Z</time>
      </trkpt>
      <trkpt lat="48.23055" lon="-3.4083">
        <ele>228.859614</ele>
        <time>2022-12-11T15:55:09.484Z</time>
      </trkpt>
      <trkpt lat="48.23051" lon="-3.40816">
        <ele>228.789041</ele>
        <time>2022-12-11T15:55:13.483Z</time>
      </trkpt>
      <trkpt lat="48.23049" lon="-3.40798">
        <ele>228.705496</ele>
        <time>2022-12-11T15:55:17.483Z</time>
      </trkpt>
      <trkpt lat="48.23052" lon="-3.40783">
        <ele>228.629832</ele>
        <time>2022-12-11T15:55:21.492Z</time>
      </trkpt>
      <trkpt lat="48.23052" lon="-3.40769">
        <ele>228.563136</ele>
        <time>2022-12-11T15:55:25.482Z</time>
      </trkpt>
      <trkpt lat="48.23055" lon="-3.40752">
        <ele>228.485039</ele>
        <time>2022-12-11T15:55:30.488Z</time>
      </trkpt>
      <trkpt lat="48.23058" lon="-3.40738">
        <ele>228.414688</ele>
        <time>2022-12-11T15:55:35.487Z</time>
      </trkpt>
      <trkpt lat="48.23066" lon="-3.40728">
        <ele>228.343373</ele>
        <time>2022-12-11T15:55:38.490Z</time>
      </trkpt>
      <trkpt lat="48.23074" lon="-3.40716">
        <ele>228.26409</ele>
        <time>2022-12-11T15:55:41.497Z</time>
      </trkpt>
      <trkpt lat="48.23084" lon="-3.40704">
        <ele>228.176457</ele>
        <time>2022-12-11T15:55:44.483Z</time>
      </trkpt>
      <trkpt lat="48.23092" lon="-3.40693">
        <ele>228.098911</ele>
        <time>2022-12-11T15:55:47.480Z</time>
      </trkpt>
      <trkpt lat="48.23098" lon="-3.40682">
        <ele>228.031573</ele>
        <time>2022-12-11T15:55:50.487Z</time>
      </trkpt>
      <trkpt lat="48.23105" lon="-3.40671">
        <ele>227.960483</ele>
        <time>2022-12-11T15:55:53.479Z</time>
      </trkpt>
      <trkpt lat="48.23112" lon="-3.4066">
        <ele>227.928381</ele>
        <time>2022-12-11T15:55:56.486Z</time>
      </trkpt>
      <trkpt lat="48.2312" lon="-3.40649">
        <ele>227.934194</ele>
        <time>2022-12-11T15:55:59.486Z</time>
      </trkpt>
      <trkpt lat="48.23126" lon="-3.40636">
        <ele>227.940052</ele>
        <time>2022-12-11T15:56:03.511Z</time>
      </trkpt>
      <trkpt lat="48.23133" lon="-3.40621">
        <ele>227.946617</ele>
        <time>2022-12-11T15:56:07.489Z</time>
      </trkpt>
      <trkpt lat="48.2314" lon="-3.40612">
        <ele>227.951774</ele>
        <time>2022-12-11T15:56:11.507Z</time>
      </trkpt>
      <trkpt lat="48.23149" lon="-3.40603">
        <ele>227.957677</ele>
        <time>2022-12-11T15:56:15.483Z</time>
      </trkpt>
      <trkpt lat="48.23155" lon="-3.40592">
        <ele>227.962783</ele>
        <time>2022-12-11T15:56:18.524Z</time>
      </trkpt>
      <trkpt lat="48.23164" lon="-3.40579">
        <ele>227.96955</ele>
        <time>2022-12-11T15:56:22.489Z</time>
      </trkpt>
      <trkpt lat="48.23172" lon="-3.4057">
        <ele>227.975165</ele>
        <time>2022-12-11T15:56:26.484Z</time>
      </trkpt>
      <trkpt lat="48.23179" lon="-3.40559">
        <ele>227.980577</ele>
        <time>2022-12-11T15:56:30.489Z</time>
      </trkpt>
      <trkpt lat="48.23187" lon="-3.40547">
        <ele>227.986828</ele>
        <time>2022-12-11T15:56:34.488Z</time>
      </trkpt>
      <trkpt lat="48.23195" lon="-3.40535">
        <ele>227.993415</ele>
        <time>2022-12-11T15:56:38.485Z</time>
      </trkpt>
      <trkpt lat="48.23202" lon="-3.40524">
        <ele>227.99842</ele>
        <time>2022-12-11T15:56:41.485Z</time>
      </trkpt>
      <trkpt lat="48.23209" lon="-3.40514">
        <ele>228.003819</ele>
        <time>2022-12-11T15:56:44.484Z</time>
      </trkpt>
      <trkpt lat="48.23215" lon="-3.40502">
        <ele>228.009434</ele>
        <time>2022-12-11T15:56:47.484Z</time>
      </trkpt>
      <trkpt lat="48.23222" lon="-3.40491">
        <ele>228.014913</ele>
        <time>2022-12-11T15:56:50.485Z</time>
      </trkpt>
      <trkpt lat="48.23229" lon="-3.4048">
        <ele>228.020437</ele>
        <time>2022-12-11T15:56:53.478Z</time>
      </trkpt>
      <trkpt lat="48.23236" lon="-3.40469">
        <ele>228.069056</ele>
        <time>2022-12-11T15:56:56.489Z</time>
      </trkpt>
      <trkpt lat="48.23243" lon="-3.40455">
        <ele>228.199417</ele>
        <time>2022-12-11T15:57:00.488Z</time>
      </trkpt>
      <trkpt lat="48.23248" lon="-3.40442">
        <ele>228.317784</ele>
        <time>2022-12-11T15:57:04.489Z</time>
      </trkpt>
      <trkpt lat="48.23254" lon="-3.40432">
        <ele>228.423804</ele>
        <time>2022-12-11T15:57:07.491Z</time>
      </trkpt>
      <trkpt lat="48.23261" lon="-3.40422">
        <ele>228.535002</ele>
        <time>2022-12-11T15:57:11.488Z</time>
      </trkpt>
      <trkpt lat="48.23268" lon="-3.40412">
        <ele>228.64542</ele>
        <time>2022-12-11T15:57:14.488Z</time>
      </trkpt>
      <trkpt lat="48.23275" lon="-3.40401">
        <ele>228.762962</ele>
        <time>2022-12-11T15:57:17.489Z</time>
      </trkpt>
      <trkpt lat="48.23282" lon="-3.4039">
        <ele>228.881885</ele>
        <time>2022-12-11T15:57:20.489Z</time>
      </trkpt>
      <trkpt lat="48.23289" lon="-3.40378">
        <ele>229.005796</ele>
        <time>2022-12-11T15:57:23.488Z</time>
      </trkpt>
      <trkpt lat="48.23295" lon="-3.40366">
        <ele>229.121981</ele>
        <time>2022-12-11T15:57:26.484Z</time>
      </trkpt>
      <trkpt lat="48.23301" lon="-3.40356">
        <ele>229.228</ele>
        <time>2022-12-11T15:57:29.485Z</time>
      </trkpt>
      <trkpt lat="48.23308" lon="-3.40344">
        <ele>229.344196</ele>
        <time>2022-12-11T15:57:32.486Z</time>
      </trkpt>
      <trkpt lat="48.23314" lon="-3.40333">
        <ele>229.458894</ele>
        <time>2022-12-11T15:57:35.494Z</time>
      </trkpt>
      <trkpt lat="48.23321" lon="-3.40322">
        <ele>229.58215</ele>
        <time>2022-12-11T15:57:38.495Z</time>
      </trkpt>
      <trkpt lat="48.23329" lon="-3.40308">
        <ele>229.721294</ele>
        <time>2022-12-11T15:57:42.485Z</time>
      </trkpt>
      <trkpt lat="48.23336" lon="-3.40295">
        <ele>229.851467</ele>
        <time>2022-12-11T15:57:46.482Z</time>
      </trkpt>
      <trkpt lat="48.23344" lon="-3.40286">
        <ele>229.966835</ele>
        <time>2022-12-11T15:57:50.485Z</time>
      </trkpt>
      <trkpt lat="48.23352" lon="-3.40275">
        <ele>230.088106</ele>
        <time>2022-12-11T15:57:54.487Z</time>
      </trkpt>
      <trkpt lat="48.23358" lon="-3.40265">
        <ele>230.230433</ele>
        <time>2022-12-11T15:57:59.482Z</time>
      </trkpt>
      <trkpt lat="48.23365" lon="-3.40251">
        <ele>230.417076</ele>
        <time>2022-12-11T15:58:03.486Z</time>
      </trkpt>
      <trkpt lat="48.23372" lon="-3.40243">
        <ele>230.567862</ele>
        <time>2022-12-11T15:58:06.479Z</time>
      </trkpt>
      <trkpt lat="48.23379" lon="-3.40233">
        <ele>230.720065</ele>
        <time>2022-12-11T15:58:09.487Z</time>
      </trkpt>
      <trkpt lat="48.23385" lon="-3.4022">
        <ele>230.90465</ele>
        <time>2022-12-11T15:58:12.488Z</time>
      </trkpt>
      <trkpt lat="48.23392" lon="-3.40205">
        <ele>231.098923</ele>
        <time>2022-12-11T15:58:16.479Z</time>
      </trkpt>
      <trkpt lat="48.23397" lon="-3.40193">
        <ele>231.25948</ele>
        <time>2022-12-11T15:58:19.489Z</time>
      </trkpt>
      <trkpt lat="48.23403" lon="-3.4018">
        <ele>231.430081</ele>
        <time>2022-12-11T15:58:23.481Z</time>
      </trkpt>
      <trkpt lat="48.23412" lon="-3.40174">
        <ele>231.593221</ele>
        <time>2022-12-11T15:58:26.489Z</time>
      </trkpt>
      <trkpt lat="48.23416" lon="-3.40162">
        <ele>231.741583</ele>
        <time>2022-12-11T15:58:30.488Z</time>
      </trkpt>
      <trkpt lat="48.23423" lon="-3.40149">
        <ele>231.934418</ele>
        <time>2022-12-11T15:58:35.483Z</time>
      </trkpt>
      <trkpt lat="48.23429" lon="-3.40133">
        <ele>232.124539</ele>
        <time>2022-12-11T15:58:39.488Z</time>
      </trkpt>
      <trkpt lat="48.23434" lon="-3.40123">
        <ele>232.274233</ele>
        <time>2022-12-11T15:58:42.491Z</time>
      </trkpt>
      <trkpt lat="48.23442" lon="-3.40108">
        <ele>232.476188</ele>
        <time>2022-12-11T15:58:46.486Z</time>
      </trkpt>
      <trkpt lat="48.2345" lon="-3.40095">
        <ele>232.675525</ele>
        <time>2022-12-11T15:58:50.485Z</time>
      </trkpt>
      <trkpt lat="48.23454" lon="-3.40082">
        <ele>232.824678</ele>
        <time>2022-12-11T15:58:53.488Z</time>
      </trkpt>
      <trkpt lat="48.2346" lon="-3.40071">
        <ele>232.98108</ele>
        <time>2022-12-11T15:58:56.484Z</time>
      </trkpt>
      <trkpt lat="48.23467" lon="-3.4006">
        <ele>233.1977</ele>
        <time>2022-12-11T15:59:00.481Z</time>
      </trkpt>
      <trkpt lat="48.23474" lon="-3.40048">
        <ele>233.498736</ele>
        <time>2022-12-11T15:59:04.482Z</time>
      </trkpt>
      <trkpt lat="48.23481" lon="-3.40035">
        <ele>233.793157</ele>
        <time>2022-12-11T15:59:08.485Z</time>
      </trkpt>
      <trkpt lat="48.2348" lon="-3.4002">
        <ele>234.073492</ele>
        <time>2022-12-11T15:59:13.490Z</time>
      </trkpt>
      <trkpt lat="48.23486" lon="-3.40008">
        <ele>234.342273</ele>
        <time>2022-12-11T15:59:23.482Z</time>
      </trkpt>
      <trkpt lat="48.23491" lon="-3.39997">
        <ele>234.595609</ele>
        <time>2022-12-11T15:59:34.485Z</time>
      </trkpt>
      <trkpt lat="48.23493" lon="-3.39984">
        <ele>234.845329</ele>
        <time>2022-12-11T16:00:12.487Z</time>
      </trkpt>
      <trkpt lat="48.23484" lon="-3.3998">
        <ele>235.099338</ele>
        <time>2022-12-11T16:00:25.484Z</time>
      </trkpt>
      <trkpt lat="48.23501" lon="-3.3997">
        <ele>235.58799</ele>
        <time>2022-12-11T16:01:44.490Z</time>
      </trkpt>
      <trkpt lat="48.23507" lon="-3.39955">
        <ele>235.912389</ele>
        <time>2022-12-11T16:01:48.488Z</time>
      </trkpt>
      <trkpt lat="48.23509" lon="-3.39941">
        <ele>236.182163</ele>
        <time>2022-12-11T16:01:51.487Z</time>
      </trkpt>
      <trkpt lat="48.23515" lon="-3.39927">
        <ele>236.480132</ele>
        <time>2022-12-11T16:01:54.497Z</time>
      </trkpt>
      <trkpt lat="48.23522" lon="-3.39916">
        <ele>236.770391</ele>
        <time>2022-12-11T16:01:57.483Z</time>
      </trkpt>
      <trkpt lat="48.23529" lon="-3.39904">
        <ele>237.062243</ele>
        <time>2022-12-11T16:02:01.495Z</time>
      </trkpt>
      <trkpt lat="48.23536" lon="-3.39894">
        <ele>237.324687</ele>
        <time>2022-12-11T16:02:04.486Z</time>
      </trkpt>
      <trkpt lat="48.23541" lon="-3.39883">
        <ele>237.575608</ele>
        <time>2022-12-11T16:02:07.486Z</time>
      </trkpt>
      <trkpt lat="48.23546" lon="-3.39871">
        <ele>237.829311</ele>
        <time>2022-12-11T16:02:10.484Z</time>
      </trkpt>
      <trkpt lat="48.23554" lon="-3.39857">
        <ele>238.12158</ele>
        <time>2022-12-11T16:02:14.491Z</time>
      </trkpt>
      <trkpt lat="48.23561" lon="-3.39846">
        <ele>238.270951</ele>
        <time>2022-12-11T16:02:17.491Z</time>
      </trkpt>
      <trkpt lat="48.23567" lon="-3.39834">
        <ele>238.42046</ele>
        <time>2022-12-11T16:02:20.483Z</time>
      </trkpt>
      <trkpt lat="48.23575" lon="-3.3982">
        <ele>238.592997</ele>
        <time>2022-12-11T16:02:23.489Z</time>
      </trkpt>
      <trkpt lat="48.23583" lon="-3.39807">
        <ele>238.762125</ele>
        <time>2022-12-11T16:02:26.484Z</time>
      </trkpt>
      <trkpt lat="48.23589" lon="-3.39794">
        <ele>238.915006</ele>
        <time>2022-12-11T16:02:29.480Z</time>
      </trkpt>
      <trkpt lat="48.23597" lon="-3.39782">
        <ele>239.077411</ele>
        <time>2022-12-11T16:02:32.499Z</time>
      </trkpt>
      <trkpt lat="48.23602" lon="-3.39768">
        <ele>239.237289</ele>
        <time>2022-12-11T16:02:35.491Z</time>
      </trkpt>
      <trkpt lat="48.23608" lon="-3.39754">
        <ele>239.389506</ele>
        <time>2022-12-11T16:02:38.486Z</time>
      </trkpt>
      <trkpt lat="48.23613" lon="-3.39741">
        <ele>239.535449</ele>
        <time>2022-12-11T16:02:41.487Z</time>
      </trkpt>
      <trkpt lat="48.23618" lon="-3.39728">
        <ele>239.679497</ele>
        <time>2022-12-11T16:02:44.488Z</time>
      </trkpt>
      <trkpt lat="48.23623" lon="-3.39717">
        <ele>239.813849</ele>
        <time>2022-12-11T16:02:47.488Z</time>
      </trkpt>
      <trkpt lat="48.23628" lon="-3.39703">
        <ele>239.963309</ele>
        <time>2022-12-11T16:02:50.492Z</time>
      </trkpt>
      <trkpt lat="48.23633" lon="-3.39691">
        <ele>240.10508</ele>
        <time>2022-12-11T16:02:53.486Z</time>
      </trkpt>
      <trkpt lat="48.23639" lon="-3.3968">
        <ele>240.24722</ele>
        <time>2022-12-11T16:02:56.496Z</time>
      </trkpt>
      <trkpt lat="48.23646" lon="-3.39666">
        <ele>240.412473</ele>
        <time>2022-12-11T16:03:00.487Z</time>
      </trkpt>
      <trkpt lat="48.23653" lon="-3.39653">
        <ele>240.565538</ele>
        <time>2022-12-11T16:03:05.490Z</time>
      </trkpt>
      <trkpt lat="48.23658" lon="-3.3964">
        <ele>240.69379</ele>
        <time>2022-12-11T16:03:09.483Z</time>
      </trkpt>
      <trkpt lat="48.23666" lon="-3.39628">
        <ele>240.771986</ele>
        <time>2022-12-11T16:03:13.498Z</time>
      </trkpt>
      <trkpt lat="48.23672" lon="-3.39613">
        <ele>240.849218</ele>
        <time>2022-12-11T16:03:17.483Z</time>
      </trkpt>
      <trkpt lat="48.23676" lon="-3.39601">
        <ele>240.910546</ele>
        <time>2022-12-11T16:03:20.489Z</time>
      </trkpt>
      <trkpt lat="48.23683" lon="-3.3959">
        <ele>240.978772</ele>
        <time>2022-12-11T16:03:23.497Z</time>
      </trkpt>
      <trkpt lat="48.23689" lon="-3.39577">
        <ele>241.047339</ele>
        <time>2022-12-11T16:03:26.493Z</time>
      </trkpt>
      <trkpt lat="48.23694" lon="-3.39564">
        <ele>241.116428</ele>
        <time>2022-12-11T16:03:29.489Z</time>
      </trkpt>
      <trkpt lat="48.23699" lon="-3.3955">
        <ele>241.190297</ele>
        <time>2022-12-11T16:03:33.485Z</time>
      </trkpt>
      <trkpt lat="48.23705" lon="-3.39536">
        <ele>241.264551</ele>
        <time>2022-12-11T16:03:37.487Z</time>
      </trkpt>
      <trkpt lat="48.23712" lon="-3.3952">
        <ele>241.349634</ele>
        <time>2022-12-11T16:03:41.486Z</time>
      </trkpt>
      <trkpt lat="48.23718" lon="-3.39506">
        <ele>241.423475</ele>
        <time>2022-12-11T16:03:45.487Z</time>
      </trkpt>
      <trkpt lat="48.23724" lon="-3.39492">
        <ele>241.500303</ele>
        <time>2022-12-11T16:03:49.484Z</time>
      </trkpt>
      <trkpt lat="48.23731" lon="-3.39479">
        <ele>241.574862</ele>
        <time>2022-12-11T16:03:53.480Z</time>
      </trkpt>
      <trkpt lat="48.23738" lon="-3.39465">
        <ele>241.654134</ele>
        <time>2022-12-11T16:03:57.496Z</time>
      </trkpt>
      <trkpt lat="48.23744" lon="-3.39455">
        <ele>241.715465</ele>
        <time>2022-12-11T16:04:00.488Z</time>
      </trkpt>
      <trkpt lat="48.23749" lon="-3.39442">
        <ele>241.782319</ele>
        <time>2022-12-11T16:04:04.488Z</time>
      </trkpt>
      <trkpt lat="48.23755" lon="-3.39428">
        <ele>241.85616</ele>
        <time>2022-12-11T16:04:08.482Z</time>
      </trkpt>
      <trkpt lat="48.23762" lon="-3.39415">
        <ele>242.039105</ele>
        <time>2022-12-11T16:04:11.477Z</time>
      </trkpt>
      <trkpt lat="48.23766" lon="-3.39403">
        <ele>242.273934</ele>
        <time>2022-12-11T16:04:14.483Z</time>
      </trkpt>
      <trkpt lat="48.23771" lon="-3.3939">
        <ele>242.521403</ele>
        <time>2022-12-11T16:04:17.489Z</time>
      </trkpt>
      <trkpt lat="48.23776" lon="-3.39376">
        <ele>242.793899</ele>
        <time>2022-12-11T16:04:21.484Z</time>
      </trkpt>
      <trkpt lat="48.23781" lon="-3.39362">
        <ele>243.071198</ele>
        <time>2022-12-11T16:04:25.487Z</time>
      </trkpt>
      <trkpt lat="48.23786" lon="-3.39346">
        <ele>243.376646</ele>
        <time>2022-12-11T16:04:29.483Z</time>
      </trkpt>
      <trkpt lat="48.23793" lon="-3.39334">
        <ele>243.640181</ele>
        <time>2022-12-11T16:04:32.491Z</time>
      </trkpt>
      <trkpt lat="48.23801" lon="-3.39325">
        <ele>243.886573</ele>
        <time>2022-12-11T16:04:35.490Z</time>
      </trkpt>
      <trkpt lat="48.23807" lon="-3.39311">
        <ele>244.171451</ele>
        <time>2022-12-11T16:04:40.486Z</time>
      </trkpt>
      <trkpt lat="48.23816" lon="-3.39299">
        <ele>244.465568</ele>
        <time>2022-12-11T16:04:44.509Z</time>
      </trkpt>
      <trkpt lat="48.23821" lon="-3.39287">
        <ele>244.716802</ele>
        <time>2022-12-11T16:04:47.514Z</time>
      </trkpt>
      <trkpt lat="48.23828" lon="-3.39275">
        <ele>244.986046</ele>
        <time>2022-12-11T16:04:50.496Z</time>
      </trkpt>
      <trkpt lat="48.23833" lon="-3.39258">
        <ele>245.293209</ele>
        <time>2022-12-11T16:04:54.487Z</time>
      </trkpt>
      <trkpt lat="48.23837" lon="-3.39242">
        <ele>245.583042</ele>
        <time>2022-12-11T16:04:58.486Z</time>
      </trkpt>
      <trkpt lat="48.23841" lon="-3.3923">
        <ele>245.81914</ele>
        <time>2022-12-11T16:05:01.492Z</time>
      </trkpt>
      <trkpt lat="48.2385" lon="-3.39215">
        <ele>246.160022</ele>
        <time>2022-12-11T16:05:04.488Z</time>
      </trkpt>
      <trkpt lat="48.23858" lon="-3.39203">
        <ele>246.442929</ele>
        <time>2022-12-11T16:05:07.486Z</time>
      </trkpt>
      <trkpt lat="48.23862" lon="-3.3919">
        <ele>246.237482</ele>
        <time>2022-12-11T16:05:11.481Z</time>
      </trkpt>
      <trkpt lat="48.23868" lon="-3.39175">
        <ele>245.932208</ele>
        <time>2022-12-11T16:05:15.481Z</time>
      </trkpt>
      <trkpt lat="48.23873" lon="-3.39163">
        <ele>245.687663</ele>
        <time>2022-12-11T16:05:18.482Z</time>
      </trkpt>
      <trkpt lat="48.2388" lon="-3.39149">
        <ele>245.370822</ele>
        <time>2022-12-11T16:05:22.487Z</time>
      </trkpt>
      <trkpt lat="48.23887" lon="-3.39138">
        <ele>245.090309</ele>
        <time>2022-12-11T16:05:25.489Z</time>
      </trkpt>
      <trkpt lat="48.23895" lon="-3.39125">
        <ele>244.796077</ele>
        <time>2022-12-11T16:05:28.490Z</time>
      </trkpt>
      <trkpt lat="48.239" lon="-3.39114">
        <ele>244.554445</ele>
        <time>2022-12-11T16:05:31.490Z</time>
      </trkpt>
      <trkpt lat="48.23906" lon="-3.39102">
        <ele>244.283431</ele>
        <time>2022-12-11T16:05:34.487Z</time>
      </trkpt>
      <trkpt lat="48.23914" lon="-3.39089">
        <ele>243.977339</ele>
        <time>2022-12-11T16:05:37.488Z</time>
      </trkpt>
      <trkpt lat="48.2392" lon="-3.39075">
        <ele>243.687148</ele>
        <time>2022-12-11T16:05:40.496Z</time>
      </trkpt>
      <trkpt lat="48.23925" lon="-3.39062">
        <ele>243.414486</ele>
        <time>2022-12-11T16:05:43.489Z</time>
      </trkpt>
      <trkpt lat="48.2393" lon="-3.3905">
        <ele>243.155149</ele>
        <time>2022-12-11T16:05:46.481Z</time>
      </trkpt>
      <trkpt lat="48.23936" lon="-3.39038">
        <ele>242.888164</ele>
        <time>2022-12-11T16:05:49.483Z</time>
      </trkpt>
      <trkpt lat="48.23943" lon="-3.39023">
        <ele>242.574305</ele>
        <time>2022-12-11T16:05:53.478Z</time>
      </trkpt>
      <trkpt lat="48.23949" lon="-3.3901">
        <ele>242.28677</ele>
        <time>2022-12-11T16:05:57.480Z</time>
      </trkpt>
      <trkpt lat="48.23955" lon="-3.38995">
        <ele>241.987128</ele>
        <time>2022-12-11T16:06:02.488Z</time>
      </trkpt>
      <trkpt lat="48.23958" lon="-3.38982">
        <ele>241.7435</ele>
        <time>2022-12-11T16:06:06.493Z</time>
      </trkpt>
      <trkpt lat="48.23962" lon="-3.38965">
        <ele>241.803343</ele>
        <time>2022-12-11T16:06:10.482Z</time>
      </trkpt>
      <trkpt lat="48.23966" lon="-3.38952">
        <ele>241.912712</ele>
        <time>2022-12-11T16:06:13.486Z</time>
      </trkpt>
      <trkpt lat="48.2397" lon="-3.38939">
        <ele>242.022564</ele>
        <time>2022-12-11T16:06:16.485Z</time>
      </trkpt>
      <trkpt lat="48.23972" lon="-3.38923">
        <ele>242.153862</ele>
        <time>2022-12-11T16:06:20.499Z</time>
      </trkpt>
      <trkpt lat="48.23974" lon="-3.3891">
        <ele>242.26343</ele>
        <time>2022-12-11T16:06:23.485Z</time>
      </trkpt>
      <trkpt lat="48.23973" lon="-3.38895">
        <ele>242.382056</ele>
        <time>2022-12-11T16:06:27.481Z</time>
      </trkpt>
      <trkpt lat="48.23972" lon="-3.38877">
        <ele>242.516679</ele>
        <time>2022-12-11T16:06:32.490Z</time>
      </trkpt>
      <trkpt lat="48.23972" lon="-3.38863">
        <ele>242.630849</ele>
        <time>2022-12-11T16:06:35.486Z</time>
      </trkpt>
      <trkpt lat="48.23973" lon="-3.38849">
        <ele>242.739058</ele>
        <time>2022-12-11T16:06:38.486Z</time>
      </trkpt>
      <trkpt lat="48.23974" lon="-3.38832">
        <ele>242.874416</ele>
        <time>2022-12-11T16:06:42.488Z</time>
      </trkpt>
      <trkpt lat="48.23976" lon="-3.38814">
        <ele>243.015198</ele>
        <time>2022-12-11T16:06:46.482Z</time>
      </trkpt>
      <trkpt lat="48.23978" lon="-3.388">
        <ele>243.126916</ele>
        <time>2022-12-11T16:06:49.488Z</time>
      </trkpt>
      <trkpt lat="48.23979" lon="-3.38784">
        <ele>243.256369</ele>
        <time>2022-12-11T16:06:53.488Z</time>
      </trkpt>
      <trkpt lat="48.2398" lon="-3.3877">
        <ele>243.364794</ele>
        <time>2022-12-11T16:06:56.486Z</time>
      </trkpt>
      <trkpt lat="48.23982" lon="-3.38754">
        <ele>243.490136</ele>
        <time>2022-12-11T16:07:00.497Z</time>
      </trkpt>
      <trkpt lat="48.2398" lon="-3.38739">
        <ele>243.607196</ele>
        <time>2022-12-11T16:07:04.506Z</time>
      </trkpt>
      <trkpt lat="48.23976" lon="-3.38726">
        <ele>243.726128</ele>
        <time>2022-12-11T16:07:08.491Z</time>
      </trkpt>
      <trkpt lat="48.23975" lon="-3.38709">
        <ele>243.844446</ele>
        <time>2022-12-11T16:07:12.488Z</time>
      </trkpt>
      <trkpt lat="48.23976" lon="-3.38692">
        <ele>243.947904</ele>
        <time>2022-12-11T16:07:16.482Z</time>
      </trkpt>
      <trkpt lat="48.23979" lon="-3.38677">
        <ele>244.037769</ele>
        <time>2022-12-11T16:07:19.496Z</time>
      </trkpt>
      <trkpt lat="48.23979" lon="-3.38661">
        <ele>244.138105</ele>
        <time>2022-12-11T16:07:23.506Z</time>
      </trkpt>
      <trkpt lat="48.23976" lon="-3.38648">
        <ele>244.220549</ele>
        <time>2022-12-11T16:07:26.487Z</time>
      </trkpt>
      <trkpt lat="48.23977" lon="-3.38633">
        <ele>244.307783</ele>
        <time>2022-12-11T16:07:29.487Z</time>
      </trkpt>
      <trkpt lat="48.23976" lon="-3.38617">
        <ele>244.40147</ele>
        <time>2022-12-11T16:07:32.489Z</time>
      </trkpt>
      <trkpt lat="48.23976" lon="-3.38601">
        <ele>244.500075</ele>
        <time>2022-12-11T16:07:35.488Z</time>
      </trkpt>
      <trkpt lat="48.23976" lon="-3.38584">
        <ele>244.599277</ele>
        <time>2022-12-11T16:07:39.482Z</time>
      </trkpt>
      <trkpt lat="48.23978" lon="-3.3857">
        <ele>244.686948</ele>
        <time>2022-12-11T16:07:42.486Z</time>
      </trkpt>
      <trkpt lat="48.23981" lon="-3.38556">
        <ele>244.770301</ele>
        <time>2022-12-11T16:07:45.497Z</time>
      </trkpt>
      <trkpt lat="48.23984" lon="-3.3854">
        <ele>244.870254</ele>
        <time>2022-12-11T16:07:48.489Z</time>
      </trkpt>
      <trkpt lat="48.23985" lon="-3.38525">
        <ele>244.961909</ele>
        <time>2022-12-11T16:07:51.483Z</time>
      </trkpt>
      <trkpt lat="48.23992" lon="-3.3851">
        <ele>245.076584</ele>
        <time>2022-12-11T16:07:54.483Z</time>
      </trkpt>
      <trkpt lat="48.23998" lon="-3.38496">
        <ele>245.173886</ele>
        <time>2022-12-11T16:07:57.487Z</time>
      </trkpt>
      <trkpt lat="48.23999" lon="-3.38479">
        <ele>245.272418</ele>
        <time>2022-12-11T16:08:00.507Z</time>
      </trkpt>
      <trkpt lat="48.24" lon="-3.38462">
        <ele>245.373149</ele>
        <time>2022-12-11T16:08:04.504Z</time>
      </trkpt>
      <trkpt lat="48.24" lon="-3.38447">
        <ele>245.232409</ele>
        <time>2022-12-11T16:08:08.514Z</time>
      </trkpt>
      <trkpt lat="48.24002" lon="-3.38434">
        <ele>244.945662</ele>
        <time>2022-12-11T16:08:11.509Z</time>
      </trkpt>
      <trkpt lat="48.23999" lon="-3.38421">
        <ele>244.653066</ele>
        <time>2022-12-11T16:08:15.509Z</time>
      </trkpt>
      <trkpt lat="48.23999" lon="-3.38403">
        <ele>244.281566</ele>
        <time>2022-12-11T16:08:19.504Z</time>
      </trkpt>
      <trkpt lat="48.24" lon="-3.38388">
        <ele>243.973145</ele>
        <time>2022-12-11T16:08:23.489Z</time>
      </trkpt>
      <trkpt lat="48.23999" lon="-3.38371">
        <ele>243.610195</ele>
        <time>2022-12-11T16:08:27.495Z</time>
      </trkpt>
      <trkpt lat="48.23999" lon="-3.38354">
        <ele>243.257774</ele>
        <time>2022-12-11T16:08:31.503Z</time>
      </trkpt>
      <trkpt lat="48.24002" lon="-3.38339">
        <ele>242.92805</ele>
        <time>2022-12-11T16:08:35.504Z</time>
      </trkpt>
      <trkpt lat="48.24005" lon="-3.38323">
        <ele>242.580217</ele>
        <time>2022-12-11T16:08:39.489Z</time>
      </trkpt>
      <trkpt lat="48.24008" lon="-3.38307">
        <ele>242.236716</ele>
        <time>2022-12-11T16:08:42.495Z</time>
      </trkpt>
      <trkpt lat="48.2401" lon="-3.38294">
        <ele>241.940347</ele>
        <time>2022-12-11T16:08:45.496Z</time>
      </trkpt>
      <trkpt lat="48.24009" lon="-3.3828">
        <ele>241.653661</ele>
        <time>2022-12-11T16:08:48.484Z</time>
      </trkpt>
      <trkpt lat="48.24012" lon="-3.38267">
        <ele>241.361066</ele>
        <time>2022-12-11T16:08:51.506Z</time>
      </trkpt>
      <trkpt lat="48.24012" lon="-3.38251">
        <ele>241.042206</ele>
        <time>2022-12-11T16:08:54.490Z</time>
      </trkpt>
      <trkpt lat="48.24012" lon="-3.38237">
        <ele>240.733786</ele>
        <time>2022-12-11T16:08:57.507Z</time>
      </trkpt>
      <trkpt lat="48.24016" lon="-3.38221">
        <ele>240.372614</ele>
        <time>2022-12-11T16:09:00.508Z</time>
      </trkpt>
      <trkpt lat="48.24019" lon="-3.38205">
        <ele>240.031959</ele>
        <time>2022-12-11T16:09:03.490Z</time>
      </trkpt>
      <trkpt lat="48.24022" lon="-3.38188">
        <ele>239.671319</ele>
        <time>2022-12-11T16:09:07.484Z</time>
      </trkpt>
      <trkpt lat="48.24022" lon="-3.3817">
        <ele>239.329216</ele>
        <time>2022-12-11T16:09:11.504Z</time>
      </trkpt>
      <trkpt lat="48.24023" lon="-3.38152">
        <ele>239.001067</ele>
        <time>2022-12-11T16:09:14.516Z</time>
      </trkpt>
      <trkpt lat="48.24026" lon="-3.38139">
        <ele>238.74881</ele>
        <time>2022-12-11T16:09:16.488Z</time>
      </trkpt>
      <trkpt lat="48.24029" lon="-3.38124">
        <ele>238.448743</ele>
        <time>2022-12-11T16:09:19.488Z</time>
      </trkpt>
      <trkpt lat="48.2403" lon="-3.3811">
        <ele>238.193327</ele>
        <time>2022-12-11T16:09:22.513Z</time>
      </trkpt>
      <trkpt lat="48.2403" lon="-3.38092">
        <ele>237.858136</ele>
        <time>2022-12-11T16:09:26.489Z</time>
      </trkpt>
      <trkpt lat="48.24029" lon="-3.38078">
        <ele>237.599357</ele>
        <time>2022-12-11T16:09:29.490Z</time>
      </trkpt>
      <trkpt lat="48.24031" lon="-3.38065">
        <ele>237.34031</ele>
        <time>2022-12-11T16:09:32.493Z</time>
      </trkpt>
      <trkpt lat="48.24034" lon="-3.38051">
        <ele>237.073699</ele>
        <time>2022-12-11T16:09:35.507Z</time>
      </trkpt>
      <trkpt lat="48.2404" lon="-3.38037">
        <ele>236.750312</ele>
        <time>2022-12-11T16:09:38.495Z</time>
      </trkpt>
      <trkpt lat="48.24043" lon="-3.38023">
        <ele>236.479768</ele>
        <time>2022-12-11T16:09:41.515Z</time>
      </trkpt>
      <trkpt lat="48.24043" lon="-3.38007">
        <ele>236.182314</ele>
        <time>2022-12-11T16:09:45.503Z</time>
      </trkpt>
      <trkpt lat="48.24038" lon="-3.37991">
        <ele>235.868825</ele>
        <time>2022-12-11T16:09:49.490Z</time>
      </trkpt>
      <trkpt lat="48.24033" lon="-3.3798">
        <ele>235.607338</ele>
        <time>2022-12-11T16:09:52.484Z</time>
      </trkpt>
      <trkpt lat="48.24027" lon="-3.37968">
        <ele>235.34382</ele>
        <time>2022-12-11T16:09:55.501Z</time>
      </trkpt>
      <trkpt lat="48.24022" lon="-3.37956">
        <ele>235.062048</ele>
        <time>2022-12-11T16:09:58.514Z</time>
      </trkpt>
      <trkpt lat="48.24015" lon="-3.37943">
        <ele>234.755918</ele>
        <time>2022-12-11T16:10:01.535Z</time>
      </trkpt>
      <trkpt lat="48.24009" lon="-3.3793">
        <ele>234.798837</ele>
        <time>2022-12-11T16:10:04.516Z</time>
      </trkpt>
      <trkpt lat="48.24002" lon="-3.37919">
        <ele>234.883793</ele>
        <time>2022-12-11T16:10:07.499Z</time>
      </trkpt>
      <trkpt lat="48.23994" lon="-3.37908">
        <ele>234.967004</ele>
        <time>2022-12-11T16:10:10.508Z</time>
      </trkpt>
      <trkpt lat="48.23985" lon="-3.37899">
        <ele>235.058341</ele>
        <time>2022-12-11T16:10:13.506Z</time>
      </trkpt>
      <trkpt lat="48.23975" lon="-3.37889">
        <ele>235.148659</ele>
        <time>2022-12-11T16:10:16.487Z</time>
      </trkpt>
      <trkpt lat="48.23966" lon="-3.37879">
        <ele>235.240298</ele>
        <time>2022-12-11T16:10:19.517Z</time>
      </trkpt>
      <trkpt lat="48.23959" lon="-3.37869">
        <ele>235.31969</ele>
        <time>2022-12-11T16:10:22.512Z</time>
      </trkpt>
      <trkpt lat="48.23951" lon="-3.37859">
        <ele>235.401233</ele>
        <time>2022-12-11T16:10:25.511Z</time>
      </trkpt>
      <trkpt lat="48.23944" lon="-3.37849">
        <ele>235.478837</ele>
        <time>2022-12-11T16:10:28.518Z</time>
      </trkpt>
      <trkpt lat="48.23938" lon="-3.37837">
        <ele>235.558103</ele>
        <time>2022-12-11T16:10:31.500Z</time>
      </trkpt>
      <trkpt lat="48.23924" lon="-3.37829">
        <ele>235.681649</ele>
        <time>2022-12-11T16:10:34.497Z</time>
      </trkpt>
      <trkpt lat="48.23913" lon="-3.3782">
        <ele>235.781148</ele>
        <time>2022-12-11T16:10:37.492Z</time>
      </trkpt>
      <trkpt lat="48.23905" lon="-3.3781">
        <ele>235.865079</ele>
        <time>2022-12-11T16:10:40.516Z</time>
      </trkpt>
      <trkpt lat="48.23896" lon="-3.378">
        <ele>235.952784</ele>
        <time>2022-12-11T16:10:43.502Z</time>
      </trkpt>
      <trkpt lat="48.23888" lon="-3.37791">
        <ele>236.036348</ele>
        <time>2022-12-11T16:10:46.498Z</time>
      </trkpt>
      <trkpt lat="48.23877" lon="-3.3778">
        <ele>236.13779</ele>
        <time>2022-12-11T16:10:49.512Z</time>
      </trkpt>
      <trkpt lat="48.23871" lon="-3.37769">
        <ele>236.071298</ele>
        <time>2022-12-11T16:10:52.486Z</time>
      </trkpt>
      <trkpt lat="48.23866" lon="-3.37755">
        <ele>235.88898</ele>
        <time>2022-12-11T16:10:55.514Z</time>
      </trkpt>
      <trkpt lat="48.23861" lon="-3.37739">
        <ele>235.685243</ele>
        <time>2022-12-11T16:10:58.515Z</time>
      </trkpt>
      <trkpt lat="48.23856" lon="-3.37723">
        <ele>235.478598</ele>
        <time>2022-12-11T16:11:01.484Z</time>
      </trkpt>
      <trkpt lat="48.23851" lon="-3.37705">
        <ele>235.261618</ele>
        <time>2022-12-11T16:11:04.515Z</time>
      </trkpt>
      <trkpt lat="48.23847" lon="-3.37692">
        <ele>235.103404</ele>
        <time>2022-12-11T16:11:07.485Z</time>
      </trkpt>
      <trkpt lat="48.23843" lon="-3.37678">
        <ele>234.925516</ele>
        <time>2022-12-11T16:11:10.504Z</time>
      </trkpt>
      <trkpt lat="48.23838" lon="-3.37663">
        <ele>234.728605</ele>
        <time>2022-12-11T16:11:13.508Z</time>
      </trkpt>
      <trkpt lat="48.23833" lon="-3.37645">
        <ele>234.509903</ele>
        <time>2022-12-11T16:11:16.502Z</time>
      </trkpt>
      <trkpt lat="48.23829" lon="-3.37629">
        <ele>234.311487</ele>
        <time>2022-12-11T16:11:19.493Z</time>
      </trkpt>
      <trkpt lat="48.23827" lon="-3.37615">
        <ele>234.145682</ele>
        <time>2022-12-11T16:11:22.510Z</time>
      </trkpt>
      <trkpt lat="48.23822" lon="-3.376">
        <ele>233.952049</ele>
        <time>2022-12-11T16:11:26.489Z</time>
      </trkpt>
      <trkpt lat="48.2382" lon="-3.37583">
        <ele>233.759489</ele>
        <time>2022-12-11T16:11:30.518Z</time>
      </trkpt>
      <trkpt lat="48.23816" lon="-3.37567">
        <ele>233.562142</ele>
        <time>2022-12-11T16:11:34.500Z</time>
      </trkpt>
      <trkpt lat="48.23817" lon="-3.37552">
        <ele>233.384621</ele>
        <time>2022-12-11T16:11:38.509Z</time>
      </trkpt>
      <trkpt lat="48.23815" lon="-3.37538">
        <ele>233.22772</ele>
        <time>2022-12-11T16:11:43.505Z</time>
      </trkpt>
      <trkpt lat="48.23816" lon="-3.37524">
        <ele>233.068158</ele>
        <time>2022-12-11T16:11:47.483Z</time>
      </trkpt>
      <trkpt lat="48.2382" lon="-3.37512">
        <ele>232.933702</ele>
        <time>2022-12-11T16:11:59.507Z</time>
      </trkpt>
      <trkpt lat="48.23821" lon="-3.37498">
        <ele>232.799182</ele>
        <time>2022-12-11T16:12:12.491Z</time>
      </trkpt>
      <trkpt lat="48.23817" lon="-3.37484">
        <ele>232.663621</ele>
        <time>2022-12-11T16:12:23.500Z</time>
      </trkpt>
      <trkpt lat="48.23816" lon="-3.37469">
        <ele>232.513713</ele>
        <time>2022-12-11T16:12:26.488Z</time>
      </trkpt>
      <trkpt lat="48.23812" lon="-3.37454">
        <ele>232.360448</ele>
        <time>2022-12-11T16:12:28.492Z</time>
      </trkpt>
      <trkpt lat="48.2381" lon="-3.37438">
        <ele>232.207488</ele>
        <time>2022-12-11T16:12:30.514Z</time>
      </trkpt>
      <trkpt lat="48.23809" lon="-3.37423">
        <ele>232.06149</ele>
        <time>2022-12-11T16:12:32.513Z</time>
      </trkpt>
      <trkpt lat="48.23805" lon="-3.37408">
        <ele>231.906019</ele>
        <time>2022-12-11T16:12:34.518Z</time>
      </trkpt>
      <trkpt lat="48.23804" lon="-3.37391">
        <ele>231.746943</ele>
        <time>2022-12-11T16:12:36.487Z</time>
      </trkpt>
      <trkpt lat="48.23803" lon="-3.37377">
        <ele>231.607358</ele>
        <time>2022-12-11T16:12:38.512Z</time>
      </trkpt>
      <trkpt lat="48.23801" lon="-3.37363">
        <ele>231.475257</ele>
        <time>2022-12-11T16:12:40.512Z</time>
      </trkpt>
      <trkpt lat="48.23799" lon="-3.37344">
        <ele>231.295528</ele>
        <time>2022-12-11T16:12:43.495Z</time>
      </trkpt>
      <trkpt lat="48.23796" lon="-3.37331">
        <ele>231.158135</ele>
        <time>2022-12-11T16:12:46.490Z</time>
      </trkpt>
      <trkpt lat="48.23791" lon="-3.37315">
        <ele>230.99234</ele>
        <time>2022-12-11T16:12:50.514Z</time>
      </trkpt>
      <trkpt lat="48.23786" lon="-3.373">
        <ele>230.836585</ele>
        <time>2022-12-11T16:12:54.520Z</time>
      </trkpt>
      <trkpt lat="48.23781" lon="-3.37284">
        <ele>230.671241</ele>
        <time>2022-12-11T16:12:58.513Z</time>
      </trkpt>
      <trkpt lat="48.23776" lon="-3.37272">
        <ele>230.526085</ele>
        <time>2022-12-11T16:13:01.485Z</time>
      </trkpt>
      <trkpt lat="48.23771" lon="-3.37258">
        <ele>230.507381</ele>
        <time>2022-12-11T16:13:04.513Z</time>
      </trkpt>
      <trkpt lat="48.23765" lon="-3.37244">
        <ele>230.508209</ele>
        <time>2022-12-11T16:13:07.503Z</time>
      </trkpt>
      <trkpt lat="48.2376" lon="-3.37233">
        <ele>230.508898</ele>
        <time>2022-12-11T16:13:10.497Z</time>
      </trkpt>
      <trkpt lat="48.23755" lon="-3.37219">
        <ele>230.509707</ele>
        <time>2022-12-11T16:13:14.510Z</time>
      </trkpt>
      <trkpt lat="48.23745" lon="-3.37213">
        <ele>230.510485</ele>
        <time>2022-12-11T16:13:17.510Z</time>
      </trkpt>
      <trkpt lat="48.23734" lon="-3.37211">
        <ele>230.511344</ele>
        <time>2022-12-11T16:13:20.505Z</time>
      </trkpt>
      <trkpt lat="48.23724" lon="-3.3721">
        <ele>230.51213</ele>
        <time>2022-12-11T16:13:23.493Z</time>
      </trkpt>
      <trkpt lat="48.23713" lon="-3.37209">
        <ele>230.512939</ele>
        <time>2022-12-11T16:13:26.491Z</time>
      </trkpt>
      <trkpt lat="48.23701" lon="-3.37207">
        <ele>230.513844</ele>
        <time>2022-12-11T16:13:29.518Z</time>
      </trkpt>
      <trkpt lat="48.2369" lon="-3.37205">
        <ele>230.514754</ele>
        <time>2022-12-11T16:13:32.518Z</time>
      </trkpt>
      <trkpt lat="48.23678" lon="-3.37204">
        <ele>230.515608</ele>
        <time>2022-12-11T16:13:35.487Z</time>
      </trkpt>
      <trkpt lat="48.23667" lon="-3.37204">
        <ele>230.516478</ele>
        <time>2022-12-11T16:13:38.500Z</time>
      </trkpt>
      <trkpt lat="48.23654" lon="-3.37204">
        <ele>230.517439</ele>
        <time>2022-12-11T16:13:41.533Z</time>
      </trkpt>
      <trkpt lat="48.23641" lon="-3.37201">
        <ele>230.518434</ele>
        <time>2022-12-11T16:13:44.494Z</time>
      </trkpt>
      <trkpt lat="48.23629" lon="-3.37198">
        <ele>230.519362</ele>
        <time>2022-12-11T16:13:47.490Z</time>
      </trkpt>
      <trkpt lat="48.23617" lon="-3.372">
        <ele>230.520282</ele>
        <time>2022-12-11T16:13:50.490Z</time>
      </trkpt>
      <trkpt lat="48.23605" lon="-3.37199">
        <ele>230.601903</ele>
        <time>2022-12-11T16:13:53.504Z</time>
      </trkpt>
      <trkpt lat="48.23593" lon="-3.37199">
        <ele>230.68643</ele>
        <time>2022-12-11T16:13:56.485Z</time>
      </trkpt>
      <trkpt lat="48.23581" lon="-3.37201">
        <ele>230.773762</ele>
        <time>2022-12-11T16:13:59.486Z</time>
      </trkpt>
      <trkpt lat="48.23569" lon="-3.37201">
        <ele>230.858256</ele>
        <time>2022-12-11T16:14:02.519Z</time>
      </trkpt>
      <trkpt lat="48.23558" lon="-3.37203">
        <ele>230.938771</ele>
        <time>2022-12-11T16:14:05.485Z</time>
      </trkpt>
      <trkpt lat="48.23546" lon="-3.37207">
        <ele>231.022709</ele>
        <time>2022-12-11T16:14:08.497Z</time>
      </trkpt>
      <trkpt lat="48.23537" lon="-3.37213">
        <ele>231.096163</ele>
        <time>2022-12-11T16:14:11.494Z</time>
      </trkpt>
      <trkpt lat="48.23529" lon="-3.37221">
        <ele>231.164811</ele>
        <time>2022-12-11T16:14:14.493Z</time>
      </trkpt>
      <trkpt lat="48.23519" lon="-3.37229">
        <ele>231.245947</ele>
        <time>2022-12-11T16:14:18.486Z</time>
      </trkpt>
      <trkpt lat="48.2351" lon="-3.37237">
        <ele>231.318504</ele>
        <time>2022-12-11T16:14:21.515Z</time>
      </trkpt>
      <trkpt lat="48.235" lon="-3.37243">
        <ele>231.398112</ele>
        <time>2022-12-11T16:14:25.515Z</time>
      </trkpt>
      <trkpt lat="48.23492" lon="-3.37255">
        <ele>231.481134</ele>
        <time>2022-12-11T16:14:28.510Z</time>
      </trkpt>
      <trkpt lat="48.23483" lon="-3.37259">
        <ele>231.548281</ele>
        <time>2022-12-11T16:14:32.512Z</time>
      </trkpt>
      <trkpt lat="48.23472" lon="-3.37261">
        <ele>231.624129</ele>
        <time>2022-12-11T16:14:35.516Z</time>
      </trkpt>
      <trkpt lat="48.2346" lon="-3.37263">
        <ele>231.71338</ele>
        <time>2022-12-11T16:14:38.516Z</time>
      </trkpt>
      <trkpt lat="48.23448" lon="-3.37265">
        <ele>231.797811</ele>
        <time>2022-12-11T16:14:41.504Z</time>
      </trkpt>
      <trkpt lat="48.23436" lon="-3.37272">
        <ele>231.707779</ele>
        <time>2022-12-11T16:14:44.517Z</time>
      </trkpt>
      <trkpt lat="48.23424" lon="-3.37278">
        <ele>231.603805</ele>
        <time>2022-12-11T16:14:47.491Z</time>
      </trkpt>
      <trkpt lat="48.23412" lon="-3.37282">
        <ele>231.499857</ele>
        <time>2022-12-11T16:14:50.489Z</time>
      </trkpt>
      <trkpt lat="48.234" lon="-3.37287">
        <ele>231.395527</ele>
        <time>2022-12-11T16:14:53.515Z</time>
      </trkpt>
      <trkpt lat="48.23389" lon="-3.37288">
        <ele>231.302027</ele>
        <time>2022-12-11T16:14:56.498Z</time>
      </trkpt>
      <trkpt lat="48.23379" lon="-3.37291">
        <ele>231.219456</ele>
        <time>2022-12-11T16:14:59.498Z</time>
      </trkpt>
      <trkpt lat="48.23368" lon="-3.37294">
        <ele>231.125562</ele>
        <time>2022-12-11T16:15:02.486Z</time>
      </trkpt>
      <trkpt lat="48.23358" lon="-3.37295">
        <ele>231.039904</ele>
        <time>2022-12-11T16:15:05.510Z</time>
      </trkpt>
      <trkpt lat="48.23347" lon="-3.37296">
        <ele>230.953502</ele>
        <time>2022-12-11T16:15:08.514Z</time>
      </trkpt>
      <trkpt lat="48.23337" lon="-3.37296">
        <ele>230.865511</ele>
        <time>2022-12-11T16:15:11.493Z</time>
      </trkpt>
      <trkpt lat="48.23327" lon="-3.37292">
        <ele>230.77988</ele>
        <time>2022-12-11T16:15:14.494Z</time>
      </trkpt>
      <trkpt lat="48.23317" lon="-3.37287">
        <ele>230.695602</ele>
        <time>2022-12-11T16:15:17.512Z</time>
      </trkpt>
      <trkpt lat="48.2331" lon="-3.37277">
        <ele>230.612865</ele>
        <time>2022-12-11T16:15:21.521Z</time>
      </trkpt>
      <trkpt lat="48.233" lon="-3.37268">
        <ele>230.516011</ele>
        <time>2022-12-11T16:15:24.510Z</time>
      </trkpt>
      <trkpt lat="48.23292" lon="-3.3726">
        <ele>230.433194</ele>
        <time>2022-12-11T16:15:27.515Z</time>
      </trkpt>
      <trkpt lat="48.23282" lon="-3.37254">
        <ele>230.343728</ele>
        <time>2022-12-11T16:15:30.518Z</time>
      </trkpt>
      <trkpt lat="48.23272" lon="-3.37247">
        <ele>230.23646</ele>
        <time>2022-12-11T16:15:33.496Z</time>
      </trkpt>
      <trkpt lat="48.23262" lon="-3.37241">
        <ele>230.113013</ele>
        <time>2022-12-11T16:15:36.488Z</time>
      </trkpt>
      <trkpt lat="48.2325" lon="-3.37237">
        <ele>229.984663</ele>
        <time>2022-12-11T16:15:39.494Z</time>
      </trkpt>
      <trkpt lat="48.2324" lon="-3.37234">
        <ele>229.873785</ele>
        <time>2022-12-11T16:15:42.499Z</time>
      </trkpt>
      <trkpt lat="48.2323" lon="-3.37231">
        <ele>229.767011</ele>
        <time>2022-12-11T16:15:45.488Z</time>
      </trkpt>
      <trkpt lat="48.23221" lon="-3.37228">
        <ele>229.660089</ele>
        <time>2022-12-11T16:15:48.488Z</time>
      </trkpt>
      <trkpt lat="48.23211" lon="-3.37223">
        <ele>229.548875</ele>
        <time>2022-12-11T16:15:51.486Z</time>
      </trkpt>
      <trkpt lat="48.23202" lon="-3.37218">
        <ele>229.445504</ele>
        <time>2022-12-11T16:15:54.494Z</time>
      </trkpt>
      <trkpt lat="48.23192" lon="-3.37209">
        <ele>229.314398</ele>
        <time>2022-12-11T16:15:58.489Z</time>
      </trkpt>
      <trkpt lat="48.23183" lon="-3.37201">
        <ele>229.203235</ele>
        <time>2022-12-11T16:16:01.485Z</time>
      </trkpt>
      <trkpt lat="48.23175" lon="-3.37193">
        <ele>229.094918</ele>
        <time>2022-12-11T16:16:04.496Z</time>
      </trkpt>
      <trkpt lat="48.23167" lon="-3.37184">
        <ele>228.986221</ele>
        <time>2022-12-11T16:16:07.497Z</time>
      </trkpt>
      <trkpt lat="48.23159" lon="-3.37174">
        <ele>228.879407</ele>
        <time>2022-12-11T16:16:10.501Z</time>
      </trkpt>
      <trkpt lat="48.23153" lon="-3.37164">
        <ele>228.775433</ele>
        <time>2022-12-11T16:16:13.502Z</time>
      </trkpt>
      <trkpt lat="48.23147" lon="-3.37151">
        <ele>228.66452</ele>
        <time>2022-12-11T16:16:16.494Z</time>
      </trkpt>
      <trkpt lat="48.23142" lon="-3.37137">
        <ele>228.54819</ele>
        <time>2022-12-11T16:16:19.504Z</time>
      </trkpt>
      <trkpt lat="48.23137" lon="-3.37122">
        <ele>228.422385</ele>
        <time>2022-12-11T16:16:22.481Z</time>
      </trkpt>
      <trkpt lat="48.23132" lon="-3.37108">
        <ele>228.324941</ele>
        <time>2022-12-11T16:16:25.511Z</time>
      </trkpt>
      <trkpt lat="48.2313" lon="-3.37094">
        <ele>228.245911</ele>
        <time>2022-12-11T16:16:28.509Z</time>
      </trkpt>
      <trkpt lat="48.23129" lon="-3.3708">
        <ele>228.174735</ele>
        <time>2022-12-11T16:16:31.504Z</time>
      </trkpt>
      <trkpt lat="48.23124" lon="-3.37067">
        <ele>228.095461</ele>
        <time>2022-12-11T16:16:34.528Z</time>
      </trkpt>
      <trkpt lat="48.23119" lon="-3.37054">
        <ele>228.015867</ele>
        <time>2022-12-11T16:16:37.508Z</time>
      </trkpt>
      <trkpt lat="48.23112" lon="-3.37043">
        <ele>227.937382</ele>
        <time>2022-12-11T16:16:41.490Z</time>
      </trkpt>
      <trkpt lat="48.23106" lon="-3.37032">
        <ele>227.864587</ele>
        <time>2022-12-11T16:16:45.509Z</time>
      </trkpt>
      <trkpt lat="48.23099" lon="-3.37018">
        <ele>227.770408</ele>
        <time>2022-12-11T16:16:49.515Z</time>
      </trkpt>
      <trkpt lat="48.23097" lon="-3.37004">
        <ele>227.69615</ele>
        <time>2022-12-11T16:16:52.489Z</time>
      </trkpt>
      <trkpt lat="48.231" lon="-3.36988">
        <ele>227.610653</ele>
        <time>2022-12-11T16:16:55.507Z</time>
      </trkpt>
      <trkpt lat="48.23104" lon="-3.36975">
        <ele>227.531184</ele>
        <time>2022-12-11T16:16:58.482Z</time>
      </trkpt>
      <trkpt lat="48.23108" lon="-3.3696">
        <ele>227.447599</ele>
        <time>2022-12-11T16:17:01.526Z</time>
      </trkpt>
      <trkpt lat="48.23113" lon="-3.36943">
        <ele>227.353992</ele>
        <time>2022-12-11T16:17:04.517Z</time>
      </trkpt>
      <trkpt lat="48.23118" lon="-3.36927">
        <ele>227.258174</ele>
        <time>2022-12-11T16:17:07.508Z</time>
      </trkpt>
      <trkpt lat="48.23124" lon="-3.36912">
        <ele>227.168425</ele>
        <time>2022-12-11T16:17:09.487Z</time>
      </trkpt>
      <trkpt lat="48.23131" lon="-3.36899">
        <ele>227.081027</ele>
        <time>2022-12-11T16:17:11.495Z</time>
      </trkpt>
      <trkpt lat="48.23138" lon="-3.36886">
        <ele>226.993752</ele>
        <time>2022-12-11T16:17:13.511Z</time>
      </trkpt>
      <trkpt lat="48.23145" lon="-3.36876">
        <ele>226.887244</ele>
        <time>2022-12-11T16:17:15.504Z</time>
      </trkpt>
      <trkpt lat="48.23151" lon="-3.36865">
        <ele>226.613865</ele>
        <time>2022-12-11T16:17:17.511Z</time>
      </trkpt>
      <trkpt lat="48.23159" lon="-3.36851">
        <ele>226.277617</ele>
        <time>2022-12-11T16:17:20.508Z</time>
      </trkpt>
      <trkpt lat="48.23166" lon="-3.36842">
        <ele>226.027918</ele>
        <time>2022-12-11T16:17:22.489Z</time>
      </trkpt>
      <trkpt lat="48.23175" lon="-3.36829">
        <ele>225.673482</ele>
        <time>2022-12-11T16:17:25.511Z</time>
      </trkpt>
      <trkpt lat="48.23183" lon="-3.36816">
        <ele>225.348078</ele>
        <time>2022-12-11T16:17:28.517Z</time>
      </trkpt>
      <trkpt lat="48.2319" lon="-3.36804">
        <ele>225.060064</ele>
        <time>2022-12-11T16:17:31.499Z</time>
      </trkpt>
      <trkpt lat="48.23194" lon="-3.36789">
        <ele>224.760556</ele>
        <time>2022-12-11T16:17:34.506Z</time>
      </trkpt>
      <trkpt lat="48.23194" lon="-3.36772">
        <ele>224.446631</ele>
        <time>2022-12-11T16:17:37.503Z</time>
      </trkpt>
      <trkpt lat="48.23189" lon="-3.36754">
        <ele>224.083777</ele>
        <time>2022-12-11T16:17:40.486Z</time>
      </trkpt>
      <trkpt lat="48.23185" lon="-3.36736">
        <ele>223.749302</ele>
        <time>2022-12-11T16:17:43.493Z</time>
      </trkpt>
      <trkpt lat="48.23182" lon="-3.36721">
        <ele>223.441526</ele>
        <time>2022-12-11T16:17:46.498Z</time>
      </trkpt>
      <trkpt lat="48.2318" lon="-3.36703">
        <ele>223.11427</ele>
        <time>2022-12-11T16:17:49.493Z</time>
      </trkpt>
      <trkpt lat="48.23178" lon="-3.36686">
        <ele>222.787903</ele>
        <time>2022-12-11T16:17:52.510Z</time>
      </trkpt>
      <trkpt lat="48.23175" lon="-3.36668">
        <ele>222.455025</ele>
        <time>2022-12-11T16:17:55.511Z</time>
      </trkpt>
      <trkpt lat="48.23174" lon="-3.36655">
        <ele>222.204585</ele>
        <time>2022-12-11T16:17:57.496Z</time>
      </trkpt>
      <trkpt lat="48.23171" lon="-3.36641">
        <ele>221.979586</ele>
        <time>2022-12-11T16:17:59.502Z</time>
      </trkpt>
      <trkpt lat="48.23171" lon="-3.36625">
        <ele>222.400758</ele>
        <time>2022-12-11T16:18:01.508Z</time>
      </trkpt>
      <trkpt lat="48.2317" lon="-3.36606">
        <ele>222.911273</ele>
        <time>2022-12-11T16:18:04.501Z</time>
      </trkpt>
      <trkpt lat="48.23165" lon="-3.36589">
        <ele>223.411022</ele>
        <time>2022-12-11T16:18:07.498Z</time>
      </trkpt>
      <trkpt lat="48.23163" lon="-3.36573">
        <ele>223.851917</ele>
        <time>2022-12-11T16:18:09.506Z</time>
      </trkpt>
      <trkpt lat="48.2316" lon="-3.36553">
        <ele>224.408957</ele>
        <time>2022-12-11T16:18:12.518Z</time>
      </trkpt>
      <trkpt lat="48.23157" lon="-3.36533">
        <ele>224.94993</ele>
        <time>2022-12-11T16:18:15.516Z</time>
      </trkpt>
      <trkpt lat="48.23152" lon="-3.36515">
        <ele>225.471074</ele>
        <time>2022-12-11T16:18:18.505Z</time>
      </trkpt>
      <trkpt lat="48.23151" lon="-3.36497">
        <ele>225.964953</ele>
        <time>2022-12-11T16:18:20.512Z</time>
      </trkpt>
      <trkpt lat="48.23149" lon="-3.36482">
        <ele>226.367597</ele>
        <time>2022-12-11T16:18:22.527Z</time>
      </trkpt>
      <trkpt lat="48.23149" lon="-3.36469">
        <ele>226.73732</ele>
        <time>2022-12-11T16:18:24.489Z</time>
      </trkpt>
      <trkpt lat="48.23147" lon="-3.36455">
        <ele>227.127233</ele>
        <time>2022-12-11T16:18:26.508Z</time>
      </trkpt>
      <trkpt lat="48.23141" lon="-3.36443">
        <ele>227.527347</ele>
        <time>2022-12-11T16:18:28.494Z</time>
      </trkpt>
      <trkpt lat="48.23136" lon="-3.36429">
        <ele>227.943796</ele>
        <time>2022-12-11T16:18:30.503Z</time>
      </trkpt>
      <trkpt lat="48.23129" lon="-3.36411">
        <ele>228.503193</ele>
        <time>2022-12-11T16:18:33.501Z</time>
      </trkpt>
      <trkpt lat="48.23124" lon="-3.36396">
        <ele>228.955855</ele>
        <time>2022-12-11T16:18:36.499Z</time>
      </trkpt>
      <trkpt lat="48.23118" lon="-3.36385">
        <ele>229.118223</ele>
        <time>2022-12-11T16:18:38.530Z</time>
      </trkpt>
      <trkpt lat="48.23111" lon="-3.36375">
        <ele>228.681156</ele>
        <time>2022-12-11T16:18:40.513Z</time>
      </trkpt>
      <trkpt lat="48.23105" lon="-3.36366">
        <ele>228.263252</ele>
        <time>2022-12-11T16:18:42.508Z</time>
      </trkpt>
      <trkpt lat="48.23098" lon="-3.36356">
        <ele>227.837987</ele>
        <time>2022-12-11T16:18:44.513Z</time>
      </trkpt>
      <trkpt lat="48.2309" lon="-3.36341">
        <ele>227.233591</ele>
        <time>2022-12-11T16:18:47.495Z</time>
      </trkpt>
      <trkpt lat="48.2308" lon="-3.36331">
        <ele>226.686255</ele>
        <time>2022-12-11T16:18:49.504Z</time>
      </trkpt>
      <trkpt lat="48.23072" lon="-3.36322">
        <ele>226.193684</ele>
        <time>2022-12-11T16:18:51.513Z</time>
      </trkpt>
      <trkpt lat="48.23064" lon="-3.36308">
        <ele>225.622557</ele>
        <time>2022-12-11T16:18:54.507Z</time>
      </trkpt>
      <trkpt lat="48.23054" lon="-3.36295">
        <ele>225.021604</ele>
        <time>2022-12-11T16:18:57.517Z</time>
      </trkpt>
      <trkpt lat="48.23044" lon="-3.36282">
        <ele>224.421846</ele>
        <time>2022-12-11T16:19:00.500Z</time>
      </trkpt>
      <trkpt lat="48.23035" lon="-3.3627">
        <ele>223.858841</ele>
        <time>2022-12-11T16:19:03.504Z</time>
      </trkpt>
      <trkpt lat="48.23028" lon="-3.36262">
        <ele>223.431183</ele>
        <time>2022-12-11T16:19:05.517Z</time>
      </trkpt>
      <trkpt lat="48.2302" lon="-3.36248">
        <ele>222.864243</ele>
        <time>2022-12-11T16:19:08.508Z</time>
      </trkpt>
      <trkpt lat="48.23012" lon="-3.36235">
        <ele>222.30538</ele>
        <time>2022-12-11T16:19:11.497Z</time>
      </trkpt>
      <trkpt lat="48.23002" lon="-3.36224">
        <ele>221.757041</ele>
        <time>2022-12-11T16:19:14.488Z</time>
      </trkpt>
      <trkpt lat="48.22996" lon="-3.36214">
        <ele>221.326522</ele>
        <time>2022-12-11T16:19:16.492Z</time>
      </trkpt>
      <trkpt lat="48.22989" lon="-3.36204">
        <ele>220.876991</ele>
        <time>2022-12-11T16:19:18.516Z</time>
      </trkpt>
      <trkpt lat="48.22982" lon="-3.36193">
        <ele>220.727859</ele>
        <time>2022-12-11T16:19:20.504Z</time>
      </trkpt>
      <trkpt lat="48.22975" lon="-3.36181">
        <ele>220.562412</ele>
        <time>2022-12-11T16:19:22.516Z</time>
      </trkpt>
      <trkpt lat="48.22966" lon="-3.36171">
        <ele>220.392201</ele>
        <time>2022-12-11T16:19:24.517Z</time>
      </trkpt>
      <trkpt lat="48.22957" lon="-3.36162">
        <ele>220.23148</ele>
        <time>2022-12-11T16:19:26.494Z</time>
      </trkpt>
      <trkpt lat="48.22951" lon="-3.36151">
        <ele>220.094331</ele>
        <time>2022-12-11T16:19:28.506Z</time>
      </trkpt>
      <trkpt lat="48.22943" lon="-3.36136">
        <ele>219.899814</ele>
        <time>2022-12-11T16:19:31.496Z</time>
      </trkpt>
      <trkpt lat="48.22934" lon="-3.36122">
        <ele>219.704191</ele>
        <time>2022-12-11T16:19:34.513Z</time>
      </trkpt>
      <trkpt lat="48.22927" lon="-3.36113">
        <ele>219.561697</ele>
        <time>2022-12-11T16:19:36.492Z</time>
      </trkpt>
      <trkpt lat="48.22918" lon="-3.36099">
        <ele>219.363891</ele>
        <time>2022-12-11T16:19:39.501Z</time>
      </trkpt>
      <trkpt lat="48.22909" lon="-3.36084">
        <ele>219.164619</ele>
        <time>2022-12-11T16:19:42.486Z</time>
      </trkpt>
      <trkpt lat="48.22899" lon="-3.3607">
        <ele>218.957802</ele>
        <time>2022-12-11T16:19:45.502Z</time>
      </trkpt>
      <trkpt lat="48.22892" lon="-3.3606">
        <ele>218.819813</ele>
        <time>2022-12-11T16:19:47.493Z</time>
      </trkpt>
      <trkpt lat="48.22883" lon="-3.36046">
        <ele>218.617009</ele>
        <time>2022-12-11T16:19:50.517Z</time>
      </trkpt>
      <trkpt lat="48.22876" lon="-3.36037">
        <ele>218.478548</ele>
        <time>2022-12-11T16:19:52.496Z</time>
      </trkpt>
      <trkpt lat="48.22866" lon="-3.36023">
        <ele>218.279578</ele>
        <time>2022-12-11T16:19:55.513Z</time>
      </trkpt>
      <trkpt lat="48.22857" lon="-3.3601">
        <ele>218.308274</ele>
        <time>2022-12-11T16:19:58.512Z</time>
      </trkpt>
      <trkpt lat="48.22847" lon="-3.35997">
        <ele>218.626772</ele>
        <time>2022-12-11T16:20:01.513Z</time>
      </trkpt>
      <trkpt lat="48.22837" lon="-3.35986">
        <ele>218.923706</ele>
        <time>2022-12-11T16:20:04.495Z</time>
      </trkpt>
      <trkpt lat="48.22827" lon="-3.3598">
        <ele>219.179938</ele>
        <time>2022-12-11T16:20:07.496Z</time>
      </trkpt>
      <trkpt lat="48.22817" lon="-3.35975">
        <ele>219.443252</ele>
        <time>2022-12-11T16:20:10.490Z</time>
      </trkpt>
      <trkpt lat="48.22806" lon="-3.35975">
        <ele>219.692985</ele>
        <time>2022-12-11T16:20:13.516Z</time>
      </trkpt>
      <trkpt lat="48.22796" lon="-3.35978">
        <ele>219.951031</ele>
        <time>2022-12-11T16:20:16.494Z</time>
      </trkpt>
      <trkpt lat="48.22786" lon="-3.35984">
        <ele>220.211675</ele>
        <time>2022-12-11T16:20:19.512Z</time>
      </trkpt>
      <trkpt lat="48.22776" lon="-3.3599">
        <ele>220.477271</ele>
        <time>2022-12-11T16:20:22.508Z</time>
      </trkpt>
      <trkpt lat="48.22765" lon="-3.35994">
        <ele>220.743373</ele>
        <time>2022-12-11T16:20:25.493Z</time>
      </trkpt>
      <trkpt lat="48.22756" lon="-3.35998">
        <ele>220.977415</ele>
        <time>2022-12-11T16:20:28.512Z</time>
      </trkpt>
      <trkpt lat="48.22744" lon="-3.36004">
        <ele>221.27306</ele>
        <time>2022-12-11T16:20:32.510Z</time>
      </trkpt>
      <trkpt lat="48.22735" lon="-3.36009">
        <ele>221.505163</ele>
        <time>2022-12-11T16:20:35.503Z</time>
      </trkpt>
      <trkpt lat="48.22725" lon="-3.36014">
        <ele>221.758917</ele>
        <time>2022-12-11T16:20:38.499Z</time>
      </trkpt>
      <trkpt lat="48.22714" lon="-3.36019">
        <ele>222.052884</ele>
        <time>2022-12-11T16:20:41.499Z</time>
      </trkpt>
      <trkpt lat="48.22702" lon="-3.36027">
        <ele>222.367403</ele>
        <time>2022-12-11T16:20:44.510Z</time>
      </trkpt>
      <trkpt lat="48.22693" lon="-3.36032">
        <ele>222.467321</ele>
        <time>2022-12-11T16:20:46.505Z</time>
      </trkpt>
      <trkpt lat="48.22684" lon="-3.36038">
        <ele>222.252103</ele>
        <time>2022-12-11T16:20:48.512Z</time>
      </trkpt>
      <trkpt lat="48.22671" lon="-3.36041">
        <ele>221.963437</ele>
        <time>2022-12-11T16:20:51.495Z</time>
      </trkpt>
      <trkpt lat="48.22663" lon="-3.36049">
        <ele>221.743575</ele>
        <time>2022-12-11T16:20:53.507Z</time>
      </trkpt>
      <trkpt lat="48.2265" lon="-3.36053">
        <ele>221.463953</ele>
        <time>2022-12-11T16:20:56.481Z</time>
      </trkpt>
      <trkpt lat="48.22642" lon="-3.36058">
        <ele>221.264073</ele>
        <time>2022-12-11T16:20:58.511Z</time>
      </trkpt>
      <trkpt lat="48.22631" lon="-3.3606">
        <ele>221.013077</ele>
        <time>2022-12-11T16:21:01.504Z</time>
      </trkpt>
      <trkpt lat="48.22619" lon="-3.36067">
        <ele>220.747171</ele>
        <time>2022-12-11T16:21:04.498Z</time>
      </trkpt>
      <trkpt lat="48.22606" lon="-3.36074">
        <ele>220.438341</ele>
        <time>2022-12-11T16:21:07.493Z</time>
      </trkpt>
      <trkpt lat="48.22598" lon="-3.3608">
        <ele>220.231224</ele>
        <time>2022-12-11T16:21:09.495Z</time>
      </trkpt>
      <trkpt lat="48.22589" lon="-3.36088">
        <ele>220.01549</ele>
        <time>2022-12-11T16:21:11.500Z</time>
      </trkpt>
      <trkpt lat="48.22581" lon="-3.36091">
        <ele>219.816095</ele>
        <time>2022-12-11T16:21:13.485Z</time>
      </trkpt>
      <trkpt lat="48.22568" lon="-3.36095">
        <ele>219.530716</ele>
        <time>2022-12-11T16:21:16.492Z</time>
      </trkpt>
      <trkpt lat="48.22557" lon="-3.36098">
        <ele>219.274608</ele>
        <time>2022-12-11T16:21:19.492Z</time>
      </trkpt>
      <trkpt lat="48.22544" lon="-3.36099">
        <ele>218.987654</ele>
        <time>2022-12-11T16:21:22.497Z</time>
      </trkpt>
      <trkpt lat="48.22534" lon="-3.36103">
        <ele>218.760708</ele>
        <time>2022-12-11T16:21:24.489Z</time>
      </trkpt>
      <trkpt lat="48.22521" lon="-3.36099">
        <ele>218.516138</ele>
        <time>2022-12-11T16:21:27.511Z</time>
      </trkpt>
      <trkpt lat="48.22508" lon="-3.36095">
        <ele>218.361174</ele>
        <time>2022-12-11T16:21:30.493Z</time>
      </trkpt>
      <trkpt lat="48.225" lon="-3.36088">
        <ele>218.254883</ele>
        <time>2022-12-11T16:21:32.516Z</time>
      </trkpt>
      <trkpt lat="48.22491" lon="-3.36084">
        <ele>218.145828</ele>
        <time>2022-12-11T16:21:34.512Z</time>
      </trkpt>
      <trkpt lat="48.22481" lon="-3.36074">
        <ele>217.999442</ele>
        <time>2022-12-11T16:21:37.491Z</time>
      </trkpt>
      <trkpt lat="48.22471" lon="-3.36062">
        <ele>217.845791</ele>
        <time>2022-12-11T16:21:40.512Z</time>
      </trkpt>
      <trkpt lat="48.22464" lon="-3.36051">
        <ele>217.733361</ele>
        <time>2022-12-11T16:21:42.503Z</time>
      </trkpt>
      <trkpt lat="48.22459" lon="-3.36039">
        <ele>217.618403</ele>
        <time>2022-12-11T16:21:45.503Z</time>
      </trkpt>
      <trkpt lat="48.22452" lon="-3.36026">
        <ele>217.486005</ele>
        <time>2022-12-11T16:21:48.503Z</time>
      </trkpt>
      <trkpt lat="48.22445" lon="-3.36012">
        <ele>217.355382</ele>
        <time>2022-12-11T16:21:51.494Z</time>
      </trkpt>
      <trkpt lat="48.22441" lon="-3.35999">
        <ele>217.238849</ele>
        <time>2022-12-11T16:21:54.517Z</time>
      </trkpt>
      <trkpt lat="48.22437" lon="-3.35984">
        <ele>217.113307</ele>
        <time>2022-12-11T16:21:57.510Z</time>
      </trkpt>
      <trkpt lat="48.22434" lon="-3.35964">
        <ele>216.954193</ele>
        <time>2022-12-11T16:22:00.494Z</time>
      </trkpt>
      <trkpt lat="48.22429" lon="-3.35947">
        <ele>216.81259</ele>
        <time>2022-12-11T16:22:03.515Z</time>
      </trkpt>
      <trkpt lat="48.22426" lon="-3.35934">
        <ele>216.70486</ele>
        <time>2022-12-11T16:22:05.545Z</time>
      </trkpt>
      <trkpt lat="48.22422" lon="-3.35916">
        <ele>216.558616</ele>
        <time>2022-12-11T16:22:08.516Z</time>
      </trkpt>
      <trkpt lat="48.22419" lon="-3.35899">
        <ele>216.474983</ele>
        <time>2022-12-11T16:22:11.496Z</time>
      </trkpt>
      <trkpt lat="48.22415" lon="-3.35883">
        <ele>216.563698</ele>
        <time>2022-12-11T16:22:14.513Z</time>
      </trkpt>
      <trkpt lat="48.2241" lon="-3.35866">
        <ele>216.658545</ele>
        <time>2022-12-11T16:22:17.490Z</time>
      </trkpt>
      <trkpt lat="48.22407" lon="-3.35848">
        <ele>216.751728</ele>
        <time>2022-12-11T16:22:20.510Z</time>
      </trkpt>
      <trkpt lat="48.22402" lon="-3.3583">
        <ele>216.846216</ele>
        <time>2022-12-11T16:22:23.509Z</time>
      </trkpt>
      <trkpt lat="48.22398" lon="-3.35812">
        <ele>216.944293</ele>
        <time>2022-12-11T16:22:26.503Z</time>
      </trkpt>
      <trkpt lat="48.22392" lon="-3.35794">
        <ele>217.044829</ele>
        <time>2022-12-11T16:22:29.505Z</time>
      </trkpt>
      <trkpt lat="48.22386" lon="-3.35781">
        <ele>217.12435</ele>
        <time>2022-12-11T16:22:32.512Z</time>
      </trkpt>
      <trkpt lat="48.22379" lon="-3.35769">
        <ele>217.205971</ele>
        <time>2022-12-11T16:22:35.512Z</time>
      </trkpt>
      <trkpt lat="48.22372" lon="-3.35757">
        <ele>217.288988</ele>
        <time>2022-12-11T16:22:38.519Z</time>
      </trkpt>
      <trkpt lat="48.22364" lon="-3.35746">
        <ele>217.369284</ele>
        <time>2022-12-11T16:22:41.489Z</time>
      </trkpt>
      <trkpt lat="48.22356" lon="-3.35737">
        <ele>217.44665</ele>
        <time>2022-12-11T16:22:44.495Z</time>
      </trkpt>
      <trkpt lat="48.22348" lon="-3.35726">
        <ele>217.525913</ele>
        <time>2022-12-11T16:22:47.526Z</time>
      </trkpt>
      <trkpt lat="48.22339" lon="-3.35715">
        <ele>217.61183</ele>
        <time>2022-12-11T16:22:50.522Z</time>
      </trkpt>
      <trkpt lat="48.22331" lon="-3.35706">
        <ele>217.6929</ele>
        <time>2022-12-11T16:22:53.507Z</time>
      </trkpt>
      <trkpt lat="48.22321" lon="-3.35698">
        <ele>217.77759</ele>
        <time>2022-12-11T16:22:56.491Z</time>
      </trkpt>
      <trkpt lat="48.22312" lon="-3.35687">
        <ele>217.801502</ele>
        <time>2022-12-11T16:23:00.503Z</time>
      </trkpt>
      <trkpt lat="48.22305" lon="-3.35673">
        <ele>217.769388</ele>
        <time>2022-12-11T16:23:04.498Z</time>
      </trkpt>
      <trkpt lat="48.22298" lon="-3.35659">
        <ele>217.737593</ele>
        <time>2022-12-11T16:23:07.485Z</time>
      </trkpt>
      <trkpt lat="48.22288" lon="-3.3565">
        <ele>217.705901</ele>
        <time>2022-12-11T16:23:10.486Z</time>
      </trkpt>
      <trkpt lat="48.22279" lon="-3.35636">
        <ele>217.66968</ele>
        <time>2022-12-11T16:23:13.518Z</time>
      </trkpt>
      <trkpt lat="48.2227" lon="-3.35625">
        <ele>217.636523</ele>
        <time>2022-12-11T16:23:16.498Z</time>
      </trkpt>
      <trkpt lat="48.22263" lon="-3.35616">
        <ele>217.611638</ele>
        <time>2022-12-11T16:23:18.512Z</time>
      </trkpt>
      <trkpt lat="48.22253" lon="-3.35604">
        <ele>217.576402</ele>
        <time>2022-12-11T16:23:21.511Z</time>
      </trkpt>
      <trkpt lat="48.22247" lon="-3.35588">
        <ele>217.542864</ele>
        <time>2022-12-11T16:23:24.503Z</time>
      </trkpt>
      <trkpt lat="48.22242" lon="-3.35571">
        <ele>217.509662</ele>
        <time>2022-12-11T16:23:27.514Z</time>
      </trkpt>
      <trkpt lat="48.22237" lon="-3.3556">
        <ele>217.484702</ele>
        <time>2022-12-11T16:23:29.482Z</time>
      </trkpt>
      <trkpt lat="48.22231" lon="-3.35543">
        <ele>217.450586</ele>
        <time>2022-12-11T16:23:32.495Z</time>
      </trkpt>
      <trkpt lat="48.22228" lon="-3.35526">
        <ele>217.416998</ele>
        <time>2022-12-11T16:23:35.497Z</time>
      </trkpt>
      <trkpt lat="48.22223" lon="-3.35508">
        <ele>217.382353</ele>
        <time>2022-12-11T16:23:38.518Z</time>
      </trkpt>
      <trkpt lat="48.22219" lon="-3.35492">
        <ele>217.351044</ele>
        <time>2022-12-11T16:23:41.517Z</time>
      </trkpt>
      <trkpt lat="48.22215" lon="-3.35474">
        <ele>217.332772</ele>
        <time>2022-12-11T16:23:44.502Z</time>
      </trkpt>
      <trkpt lat="48.22215" lon="-3.35457">
        <ele>217.368178</ele>
        <time>2022-12-11T16:23:47.489Z</time>
      </trkpt>
      <trkpt lat="48.22211" lon="-3.35439">
        <ele>217.408312</ele>
        <time>2022-12-11T16:23:50.498Z</time>
      </trkpt>
      <trkpt lat="48.22206" lon="-3.35421">
        <ele>217.447195</ele>
        <time>2022-12-11T16:23:53.519Z</time>
      </trkpt>
      <trkpt lat="48.22203" lon="-3.35408">
        <ele>217.47622</ele>
        <time>2022-12-11T16:23:56.491Z</time>
      </trkpt>
      <trkpt lat="48.22201" lon="-3.35392">
        <ele>217.509285</ele>
        <time>2022-12-11T16:23:59.509Z</time>
      </trkpt>
      <trkpt lat="48.22199" lon="-3.35373">
        <ele>217.548882</ele>
        <time>2022-12-11T16:24:03.503Z</time>
      </trkpt>
      <trkpt lat="48.22196" lon="-3.35355">
        <ele>217.588538</ele>
        <time>2022-12-11T16:24:06.490Z</time>
      </trkpt>
      <trkpt lat="48.22197" lon="-3.35336">
        <ele>217.627301</ele>
        <time>2022-12-11T16:24:09.503Z</time>
      </trkpt>
      <trkpt lat="48.222" lon="-3.35316">
        <ele>217.668673</ele>
        <time>2022-12-11T16:24:12.493Z</time>
      </trkpt>
      <trkpt lat="48.22206" lon="-3.35301">
        <ele>217.70607</ele>
        <time>2022-12-11T16:24:15.521Z</time>
      </trkpt>
      <trkpt lat="48.22213" lon="-3.35286">
        <ele>217.74275</ele>
        <time>2022-12-11T16:24:18.490Z</time>
      </trkpt>
      <trkpt lat="48.22222" lon="-3.35273">
        <ele>217.783227</ele>
        <time>2022-12-11T16:24:21.529Z</time>
      </trkpt>
      <trkpt lat="48.2223" lon="-3.35261">
        <ele>217.818271</ele>
        <time>2022-12-11T16:24:24.513Z</time>
      </trkpt>
      <trkpt lat="48.22238" lon="-3.35251">
        <ele>217.851051</ele>
        <time>2022-12-11T16:24:27.499Z</time>
      </trkpt>
      <trkpt lat="48.22249" lon="-3.35244">
        <ele>217.851972</ele>
        <time>2022-12-11T16:24:30.499Z</time>
      </trkpt>
      <trkpt lat="48.2226" lon="-3.35238">
        <ele>217.524694</ele>
        <time>2022-12-11T16:24:33.505Z</time>
      </trkpt>
      <trkpt lat="48.22271" lon="-3.3523">
        <ele>217.203982</ele>
        <time>2022-12-11T16:24:36.497Z</time>
      </trkpt>
      <trkpt lat="48.22281" lon="-3.35224">
        <ele>216.900088</ele>
        <time>2022-12-11T16:24:39.510Z</time>
      </trkpt>
      <trkpt lat="48.22292" lon="-3.35219">
        <ele>216.603786</ele>
        <time>2022-12-11T16:24:42.513Z</time>
      </trkpt>
      <trkpt lat="48.22304" lon="-3.35214">
        <ele>216.271204</ele>
        <time>2022-12-11T16:24:45.489Z</time>
      </trkpt>
      <trkpt lat="48.22313" lon="-3.35207">
        <ele>215.986249</ele>
        <time>2022-12-11T16:24:48.502Z</time>
      </trkpt>
      <trkpt lat="48.22321" lon="-3.35196">
        <ele>215.693267</ele>
        <time>2022-12-11T16:24:51.500Z</time>
      </trkpt>
      <trkpt lat="48.2233" lon="-3.35187">
        <ele>215.399639</ele>
        <time>2022-12-11T16:24:54.504Z</time>
      </trkpt>
      <trkpt lat="48.22338" lon="-3.35174">
        <ele>215.088184</ele>
        <time>2022-12-11T16:24:57.504Z</time>
      </trkpt>
      <trkpt lat="48.22344" lon="-3.35159">
        <ele>214.766277</ele>
        <time>2022-12-11T16:25:00.516Z</time>
      </trkpt>
      <trkpt lat="48.2235" lon="-3.35143">
        <ele>214.444103</ele>
        <time>2022-12-11T16:25:03.509Z</time>
      </trkpt>
      <trkpt lat="48.22355" lon="-3.35129">
        <ele>214.156875</ele>
        <time>2022-12-11T16:25:06.504Z</time>
      </trkpt>
      <trkpt lat="48.22361" lon="-3.35114">
        <ele>213.835628</ele>
        <time>2022-12-11T16:25:09.491Z</time>
      </trkpt>
      <trkpt lat="48.22366" lon="-3.35101">
        <ele>213.562791</ele>
        <time>2022-12-11T16:25:12.489Z</time>
      </trkpt>
      <trkpt lat="48.22373" lon="-3.35085">
        <ele>213.227519</ele>
        <time>2022-12-11T16:25:15.494Z</time>
      </trkpt>
      <trkpt lat="48.22378" lon="-3.35074">
        <ele>213.037607</ele>
        <time>2022-12-11T16:25:17.520Z</time>
      </trkpt>
      <trkpt lat="48.22383" lon="-3.35062">
        <ele>213.092915</ele>
        <time>2022-12-11T16:25:19.486Z</time>
      </trkpt>
      <trkpt lat="48.22388" lon="-3.35051">
        <ele>213.146962</ele>
        <time>2022-12-11T16:25:21.490Z</time>
      </trkpt>
      <trkpt lat="48.22394" lon="-3.35037">
        <ele>213.213852</ele>
        <time>2022-12-11T16:25:24.493Z</time>
      </trkpt>
      <trkpt lat="48.224" lon="-3.35023">
        <ele>213.278219</ele>
        <time>2022-12-11T16:25:27.489Z</time>
      </trkpt>
      <trkpt lat="48.22407" lon="-3.35007">
        <ele>213.352729</ele>
        <time>2022-12-11T16:25:30.490Z</time>
      </trkpt>
      <trkpt lat="48.22413" lon="-3.34991">
        <ele>213.427587</ele>
        <time>2022-12-11T16:25:33.489Z</time>
      </trkpt>
      <trkpt lat="48.2242" lon="-3.34977">
        <ele>213.498119</ele>
        <time>2022-12-11T16:25:36.502Z</time>
      </trkpt>
      <trkpt lat="48.22425" lon="-3.34963">
        <ele>213.560856</ele>
        <time>2022-12-11T16:25:39.511Z</time>
      </trkpt>
      <trkpt lat="48.2243" lon="-3.34948">
        <ele>213.626729</ele>
        <time>2022-12-11T16:25:42.518Z</time>
      </trkpt>
      <trkpt lat="48.22435" lon="-3.34933">
        <ele>213.694716</ele>
        <time>2022-12-11T16:25:45.514Z</time>
      </trkpt>
      <trkpt lat="48.2244" lon="-3.34917">
        <ele>213.765869</ele>
        <time>2022-12-11T16:25:48.497Z</time>
      </trkpt>
      <trkpt lat="48.22444" lon="-3.349">
        <ele>213.83533</ele>
        <time>2022-12-11T16:25:51.490Z</time>
      </trkpt>
      <trkpt lat="48.22446" lon="-3.34886">
        <ele>213.89295</ele>
        <time>2022-12-11T16:25:54.491Z</time>
      </trkpt>
      <trkpt lat="48.22447" lon="-3.34871">
        <ele>213.953458</ele>
        <time>2022-12-11T16:25:57.488Z</time>
      </trkpt>
      <trkpt lat="48.22446" lon="-3.34855">
        <ele>214.018192</ele>
        <time>2022-12-11T16:26:00.489Z</time>
      </trkpt>
      <trkpt lat="48.22444" lon="-3.34839">
        <ele>214.084494</ele>
        <time>2022-12-11T16:26:03.499Z</time>
      </trkpt>
      <trkpt lat="48.22441" lon="-3.34821">
        <ele>213.930372</ele>
        <time>2022-12-11T16:26:06.532Z</time>
      </trkpt>
      <trkpt lat="48.22438" lon="-3.34806">
        <ele>213.719934</ele>
        <time>2022-12-11T16:26:09.489Z</time>
      </trkpt>
      <trkpt lat="48.22435" lon="-3.3479">
        <ele>213.508122</ele>
        <time>2022-12-11T16:26:12.491Z</time>
      </trkpt>
      <trkpt lat="48.22431" lon="-3.34775">
        <ele>213.291876</ele>
        <time>2022-12-11T16:26:15.505Z</time>
      </trkpt>
      <trkpt lat="48.22428" lon="-3.34757">
        <ele>213.053245</ele>
        <time>2022-12-11T16:26:18.486Z</time>
      </trkpt>
      <trkpt lat="48.22425" lon="-3.34741">
        <ele>212.839612</ele>
        <time>2022-12-11T16:26:21.491Z</time>
      </trkpt>
      <trkpt lat="48.22421" lon="-3.34726">
        <ele>212.630289</ele>
        <time>2022-12-11T16:26:24.503Z</time>
      </trkpt>
      <trkpt lat="48.22419" lon="-3.34712">
        <ele>212.446132</ele>
        <time>2022-12-11T16:26:27.493Z</time>
      </trkpt>
      <trkpt lat="48.22416" lon="-3.34697">
        <ele>212.249081</ele>
        <time>2022-12-11T16:26:30.506Z</time>
      </trkpt>
      <trkpt lat="48.22412" lon="-3.34681">
        <ele>212.022487</ele>
        <time>2022-12-11T16:26:34.500Z</time>
      </trkpt>
      <trkpt lat="48.22408" lon="-3.34661">
        <ele>211.75286</ele>
        <time>2022-12-11T16:26:37.497Z</time>
      </trkpt>
      <trkpt lat="48.22405" lon="-3.34648">
        <ele>211.57308</ele>
        <time>2022-12-11T16:26:39.515Z</time>
      </trkpt>
      <trkpt lat="48.22401" lon="-3.34633">
        <ele>211.359945</ele>
        <time>2022-12-11T16:26:41.494Z</time>
      </trkpt>
      <trkpt lat="48.22398" lon="-3.34618">
        <ele>211.160136</ele>
        <time>2022-12-11T16:26:43.494Z</time>
      </trkpt>
      <trkpt lat="48.22393" lon="-3.34607">
        <ele>210.980702</ele>
        <time>2022-12-11T16:26:45.498Z</time>
      </trkpt>
      <trkpt lat="48.22388" lon="-3.34594">
        <ele>210.795698</ele>
        <time>2022-12-11T16:26:47.502Z</time>
      </trkpt>
      <trkpt lat="48.22382" lon="-3.34584">
        <ele>210.618082</ele>
        <time>2022-12-11T16:26:49.503Z</time>
      </trkpt>
      <trkpt lat="48.22374" lon="-3.34571">
        <ele>210.446166</ele>
        <time>2022-12-11T16:26:52.500Z</time>
      </trkpt>
      <trkpt lat="48.22363" lon="-3.3456">
        <ele>210.262697</ele>
        <time>2022-12-11T16:26:55.496Z</time>
      </trkpt>
      <trkpt lat="48.22353" lon="-3.34553">
        <ele>210.100674</ele>
        <time>2022-12-11T16:26:58.502Z</time>
      </trkpt>
      <trkpt lat="48.22341" lon="-3.34547">
        <ele>209.932442</ele>
        <time>2022-12-11T16:27:01.487Z</time>
      </trkpt>
      <trkpt lat="48.22329" lon="-3.34539">
        <ele>209.75093</ele>
        <time>2022-12-11T16:27:04.489Z</time>
      </trkpt>
      <trkpt lat="48.22318" lon="-3.34533">
        <ele>209.572213</ele>
        <time>2022-12-11T16:27:07.506Z</time>
      </trkpt>
      <trkpt lat="48.22307" lon="-3.34525">
        <ele>209.403588</ele>
        <time>2022-12-11T16:27:10.498Z</time>
      </trkpt>
      <trkpt lat="48.22296" lon="-3.34517">
        <ele>209.231566</ele>
        <time>2022-12-11T16:27:13.515Z</time>
      </trkpt>
      <trkpt lat="48.22285" lon="-3.3451">
        <ele>209.066454</ele>
        <time>2022-12-11T16:27:16.493Z</time>
      </trkpt>
      <trkpt lat="48.22275" lon="-3.34504">
        <ele>208.921429</ele>
        <time>2022-12-11T16:27:19.489Z</time>
      </trkpt>
      <trkpt lat="48.22265" lon="-3.34499">
        <ele>208.773193</ele>
        <time>2022-12-11T16:27:22.502Z</time>
      </trkpt>
      <trkpt lat="48.22254" lon="-3.34493">
        <ele>208.607604</ele>
        <time>2022-12-11T16:27:25.526Z</time>
      </trkpt>
      <trkpt lat="48.22243" lon="-3.34486">
        <ele>208.438254</ele>
        <time>2022-12-11T16:27:28.503Z</time>
      </trkpt>
      <trkpt lat="48.22233" lon="-3.34478">
        <ele>208.277112</ele>
        <time>2022-12-11T16:27:31.495Z</time>
      </trkpt>
      <trkpt lat="48.22222" lon="-3.34471">
        <ele>208.109782</ele>
        <time>2022-12-11T16:27:34.515Z</time>
      </trkpt>
      <trkpt lat="48.2221" lon="-3.34464">
        <ele>208.264305</ele>
        <time>2022-12-11T16:27:37.520Z</time>
      </trkpt>
      <trkpt lat="48.22199" lon="-3.34457">
        <ele>208.500959</ele>
        <time>2022-12-11T16:27:40.516Z</time>
      </trkpt>
      <trkpt lat="48.22187" lon="-3.3445">
        <ele>208.739317</ele>
        <time>2022-12-11T16:27:43.490Z</time>
      </trkpt>
      <trkpt lat="48.22176" lon="-3.34445">
        <ele>208.959606</ele>
        <time>2022-12-11T16:27:46.494Z</time>
      </trkpt>
      <trkpt lat="48.22166" lon="-3.34439">
        <ele>209.167223</ele>
        <time>2022-12-11T16:27:49.515Z</time>
      </trkpt>
      <trkpt lat="48.22155" lon="-3.34431">
        <ele>209.399169</ele>
        <time>2022-12-11T16:27:52.493Z</time>
      </trkpt>
      <trkpt lat="48.22145" lon="-3.34423">
        <ele>209.61959</ele>
        <time>2022-12-11T16:27:55.498Z</time>
      </trkpt>
      <trkpt lat="48.22134" lon="-3.34418">
        <ele>209.834752</ele>
        <time>2022-12-11T16:27:58.521Z</time>
      </trkpt>
      <trkpt lat="48.22124" lon="-3.34413">
        <ele>210.040804</ele>
        <time>2022-12-11T16:28:01.536Z</time>
      </trkpt>
      <trkpt lat="48.22113" lon="-3.34407">
        <ele>210.251085</ele>
        <time>2022-12-11T16:28:04.491Z</time>
      </trkpt>
      <trkpt lat="48.22103" lon="-3.34401">
        <ele>210.462715</ele>
        <time>2022-12-11T16:28:07.510Z</time>
      </trkpt>
      <trkpt lat="48.22094" lon="-3.34394">
        <ele>210.653241</ele>
        <time>2022-12-11T16:28:10.518Z</time>
      </trkpt>
      <trkpt lat="48.22085" lon="-3.34388">
        <ele>210.840356</ele>
        <time>2022-12-11T16:28:13.522Z</time>
      </trkpt>
      <trkpt lat="48.22077" lon="-3.34379">
        <ele>211.031856</ele>
        <time>2022-12-11T16:28:16.495Z</time>
      </trkpt>
      <trkpt lat="48.22069" lon="-3.34369">
        <ele>211.225697</ele>
        <time>2022-12-11T16:28:19.510Z</time>
      </trkpt>
      <trkpt lat="48.22062" lon="-3.34359">
        <ele>211.421649</ele>
        <time>2022-12-11T16:28:22.511Z</time>
      </trkpt>
      <trkpt lat="48.22056" lon="-3.34348">
        <ele>211.599895</ele>
        <time>2022-12-11T16:28:25.492Z</time>
      </trkpt>
      <trkpt lat="48.2205" lon="-3.34335">
        <ele>211.787545</ele>
        <time>2022-12-11T16:28:28.489Z</time>
      </trkpt>
      <trkpt lat="48.22046" lon="-3.34321">
        <ele>211.975007</ele>
        <time>2022-12-11T16:28:31.507Z</time>
      </trkpt>
      <trkpt lat="48.22041" lon="-3.34309">
        <ele>212.146144</ele>
        <time>2022-12-11T16:28:34.505Z</time>
      </trkpt>
      <trkpt lat="48.22036" lon="-3.34294">
        <ele>212.34287</ele>
        <time>2022-12-11T16:28:37.516Z</time>
      </trkpt>
      <trkpt lat="48.22031" lon="-3.34281">
        <ele>212.531022</ele>
        <time>2022-12-11T16:28:40.516Z</time>
      </trkpt>
      <trkpt lat="48.22026" lon="-3.34266">
        <ele>212.735337</ele>
        <time>2022-12-11T16:28:43.518Z</time>
      </trkpt>
      <trkpt lat="48.22022" lon="-3.3425">
        <ele>212.939812</ele>
        <time>2022-12-11T16:28:46.508Z</time>
      </trkpt>
      <trkpt lat="48.22018" lon="-3.34236">
        <ele>213.123963</ele>
        <time>2022-12-11T16:28:50.500Z</time>
      </trkpt>
      <trkpt lat="48.22016" lon="-3.34234">
        <ele>213.178108</ele>
        <time>2022-12-11T16:29:28.759Z</time>
      </trkpt>
      <trkpt lat="48.22009" lon="-3.34215">
        <ele>213.437826</ele>
        <time>2022-12-11T16:35:33.492Z</time>
      </trkpt>
      <trkpt lat="48.22004" lon="-3.34202">
        <ele>213.625676</ele>
        <time>2022-12-11T16:35:37.493Z</time>
      </trkpt>
      <trkpt lat="48.21999" lon="-3.34187">
        <ele>213.821115</ele>
        <time>2022-12-11T16:35:41.496Z</time>
      </trkpt>
      <trkpt lat="48.21995" lon="-3.34173">
        <ele>214.010373</ele>
        <time>2022-12-11T16:35:46.496Z</time>
      </trkpt>
      <trkpt lat="48.2199" lon="-3.34161">
        <ele>214.189147</ele>
        <time>2022-12-11T16:35:50.501Z</time>
      </trkpt>
      <trkpt lat="48.21984" lon="-3.34145">
        <ele>214.406813</ele>
        <time>2022-12-11T16:35:54.498Z</time>
      </trkpt>
      <trkpt lat="48.2198" lon="-3.34131">
        <ele>214.588058</ele>
        <time>2022-12-11T16:35:57.515Z</time>
      </trkpt>
      <trkpt lat="48.21975" lon="-3.34118">
        <ele>214.77533</ele>
        <time>2022-12-11T16:36:00.499Z</time>
      </trkpt>
      <trkpt lat="48.2197" lon="-3.34103">
        <ele>214.767045</ele>
        <time>2022-12-11T16:36:03.497Z</time>
      </trkpt>
      <trkpt lat="48.21966" lon="-3.34089">
        <ele>214.740394</ele>
        <time>2022-12-11T16:36:06.491Z</time>
      </trkpt>
      <trkpt lat="48.21961" lon="-3.34075">
        <ele>214.712131</ele>
        <time>2022-12-11T16:36:09.514Z</time>
      </trkpt>
      <trkpt lat="48.21955" lon="-3.3406">
        <ele>214.681874</ele>
        <time>2022-12-11T16:36:12.518Z</time>
      </trkpt>
      <trkpt lat="48.2195" lon="-3.34046">
        <ele>214.654151</ele>
        <time>2022-12-11T16:36:15.503Z</time>
      </trkpt>
      <trkpt lat="48.21945" lon="-3.34031">
        <ele>214.626388</ele>
        <time>2022-12-11T16:36:18.502Z</time>
      </trkpt>
      <trkpt lat="48.21939" lon="-3.34016">
        <ele>214.596694</ele>
        <time>2022-12-11T16:36:21.512Z</time>
      </trkpt>
      <trkpt lat="48.21934" lon="-3.34003">
        <ele>214.570621</ele>
        <time>2022-12-11T16:36:24.524Z</time>
      </trkpt>
      <trkpt lat="48.21929" lon="-3.33987">
        <ele>214.540239</ele>
        <time>2022-12-11T16:36:28.490Z</time>
      </trkpt>
      <trkpt lat="48.21924" lon="-3.33972">
        <ele>214.511784</ele>
        <time>2022-12-11T16:36:31.498Z</time>
      </trkpt>
      <trkpt lat="48.2192" lon="-3.33961">
        <ele>214.488115</ele>
        <time>2022-12-11T16:36:34.505Z</time>
      </trkpt>
      <trkpt lat="48.21915" lon="-3.33946">
        <ele>214.460929</ele>
        <time>2022-12-11T16:36:37.498Z</time>
      </trkpt>
      <trkpt lat="48.21911" lon="-3.33931">
        <ele>214.432855</ele>
        <time>2022-12-11T16:36:40.500Z</time>
      </trkpt>
      <trkpt lat="48.21905" lon="-3.33915">
        <ele>214.400583</ele>
        <time>2022-12-11T16:36:43.491Z</time>
      </trkpt>
      <trkpt lat="48.219" lon="-3.33899">
        <ele>214.370195</ele>
        <time>2022-12-11T16:36:46.499Z</time>
      </trkpt>
      <trkpt lat="48.21895" lon="-3.33883">
        <ele>214.340666</ele>
        <time>2022-12-11T16:36:49.508Z</time>
      </trkpt>
      <trkpt lat="48.2189" lon="-3.33867">
        <ele>214.206757</ele>
        <time>2022-12-11T16:36:52.502Z</time>
      </trkpt>
      <trkpt lat="48.21884" lon="-3.3385">
        <ele>214.002678</ele>
        <time>2022-12-11T16:36:55.521Z</time>
      </trkpt>
      <trkpt lat="48.21879" lon="-3.33837">
        <ele>213.832101</ele>
        <time>2022-12-11T16:36:58.530Z</time>
      </trkpt>
      <trkpt lat="48.21875" lon="-3.33824">
        <ele>213.676397</ele>
        <time>2022-12-11T16:37:01.508Z</time>
      </trkpt>
      <trkpt lat="48.21871" lon="-3.3381">
        <ele>213.512479</ele>
        <time>2022-12-11T16:37:04.503Z</time>
      </trkpt>
      <trkpt lat="48.21867" lon="-3.33797">
        <ele>213.354428</ele>
        <time>2022-12-11T16:37:07.510Z</time>
      </trkpt>
      <trkpt lat="48.21862" lon="-3.33783">
        <ele>213.180013</ele>
        <time>2022-12-11T16:37:10.508Z</time>
      </trkpt>
      <trkpt lat="48.21857" lon="-3.33768">
        <ele>213.001733</ele>
        <time>2022-12-11T16:37:13.503Z</time>
      </trkpt>
      <trkpt lat="48.21852" lon="-3.33753">
        <ele>212.81414</ele>
        <time>2022-12-11T16:37:16.501Z</time>
      </trkpt>
      <trkpt lat="48.21846" lon="-3.33739">
        <ele>212.625691</ele>
        <time>2022-12-11T16:37:19.502Z</time>
      </trkpt>
      <trkpt lat="48.21839" lon="-3.33726">
        <ele>212.453524</ele>
        <time>2022-12-11T16:37:22.504Z</time>
      </trkpt>
      <trkpt lat="48.21833" lon="-3.33714">
        <ele>212.284989</ele>
        <time>2022-12-11T16:37:25.498Z</time>
      </trkpt>
      <trkpt lat="48.21825" lon="-3.33703">
        <ele>212.107482</ele>
        <time>2022-12-11T16:37:28.504Z</time>
      </trkpt>
      <trkpt lat="48.21819" lon="-3.33694">
        <ele>211.95272</ele>
        <time>2022-12-11T16:37:31.506Z</time>
      </trkpt>
      <trkpt lat="48.21811" lon="-3.33684">
        <ele>211.79223</ele>
        <time>2022-12-11T16:37:34.493Z</time>
      </trkpt>
      <trkpt lat="48.21802" lon="-3.33676">
        <ele>211.611442</ele>
        <time>2022-12-11T16:37:37.510Z</time>
      </trkpt>
      <trkpt lat="48.21791" lon="-3.33669">
        <ele>211.419611</ele>
        <time>2022-12-11T16:37:40.497Z</time>
      </trkpt>
      <trkpt lat="48.2178" lon="-3.33662">
        <ele>211.523347</ele>
        <time>2022-12-11T16:37:43.496Z</time>
      </trkpt>
      <trkpt lat="48.2177" lon="-3.33656">
        <ele>211.735241</ele>
        <time>2022-12-11T16:37:46.494Z</time>
      </trkpt>
      <trkpt lat="48.2176" lon="-3.33649">
        <ele>211.961935</ele>
        <time>2022-12-11T16:37:49.518Z</time>
      </trkpt>
      <trkpt lat="48.2175" lon="-3.33642">
        <ele>212.188995</ele>
        <time>2022-12-11T16:37:52.492Z</time>
      </trkpt>
      <trkpt lat="48.21739" lon="-3.33636">
        <ele>212.414968</ele>
        <time>2022-12-11T16:37:55.498Z</time>
      </trkpt>
      <trkpt lat="48.21729" lon="-3.33629">
        <ele>212.641942</ele>
        <time>2022-12-11T16:37:58.499Z</time>
      </trkpt>
      <trkpt lat="48.21719" lon="-3.33623">
        <ele>212.856593</ele>
        <time>2022-12-11T16:38:01.504Z</time>
      </trkpt>
      <trkpt lat="48.21709" lon="-3.33617">
        <ele>213.072808</ele>
        <time>2022-12-11T16:38:04.504Z</time>
      </trkpt>
      <trkpt lat="48.21698" lon="-3.3361">
        <ele>213.300579</ele>
        <time>2022-12-11T16:38:07.498Z</time>
      </trkpt>
      <trkpt lat="48.21689" lon="-3.33604">
        <ele>213.510609</ele>
        <time>2022-12-11T16:38:10.516Z</time>
      </trkpt>
      <trkpt lat="48.2168" lon="-3.33598">
        <ele>213.697672</ele>
        <time>2022-12-11T16:38:13.498Z</time>
      </trkpt>
      <trkpt lat="48.2167" lon="-3.33592">
        <ele>213.908186</ele>
        <time>2022-12-11T16:38:16.496Z</time>
      </trkpt>
      <trkpt lat="48.2166" lon="-3.33586">
        <ele>214.130453</ele>
        <time>2022-12-11T16:38:19.496Z</time>
      </trkpt>
      <trkpt lat="48.2165" lon="-3.33579">
        <ele>214.348225</ele>
        <time>2022-12-11T16:38:22.510Z</time>
      </trkpt>
      <trkpt lat="48.2164" lon="-3.33572">
        <ele>214.565111</ele>
        <time>2022-12-11T16:38:25.497Z</time>
      </trkpt>
      <trkpt lat="48.2163" lon="-3.33565">
        <ele>214.785781</ele>
        <time>2022-12-11T16:38:28.496Z</time>
      </trkpt>
      <trkpt lat="48.2162" lon="-3.33559">
        <ele>214.909534</ele>
        <time>2022-12-11T16:38:31.512Z</time>
      </trkpt>
      <trkpt lat="48.2161" lon="-3.33552">
        <ele>214.709734</ele>
        <time>2022-12-11T16:38:34.519Z</time>
      </trkpt>
      <trkpt lat="48.216" lon="-3.33547">
        <ele>214.523338</ele>
        <time>2022-12-11T16:38:37.499Z</time>
      </trkpt>
      <trkpt lat="48.2159" lon="-3.33541">
        <ele>214.332684</ele>
        <time>2022-12-11T16:38:40.505Z</time>
      </trkpt>
      <trkpt lat="48.21581" lon="-3.33537">
        <ele>214.163419</ele>
        <time>2022-12-11T16:38:43.492Z</time>
      </trkpt>
      <trkpt lat="48.21571" lon="-3.33529">
        <ele>213.966352</ele>
        <time>2022-12-11T16:38:47.508Z</time>
      </trkpt>
      <trkpt lat="48.2156" lon="-3.33523">
        <ele>213.757022</ele>
        <time>2022-12-11T16:38:50.507Z</time>
      </trkpt>
      <trkpt lat="48.2155" lon="-3.33517">
        <ele>213.561849</ele>
        <time>2022-12-11T16:38:53.501Z</time>
      </trkpt>
      <trkpt lat="48.21542" lon="-3.3351">
        <ele>213.394511</ele>
        <time>2022-12-11T16:38:56.501Z</time>
      </trkpt>
      <trkpt lat="48.21533" lon="-3.33502">
        <ele>213.207208</ele>
        <time>2022-12-11T16:38:59.501Z</time>
      </trkpt>
      <trkpt lat="48.21524" lon="-3.33492">
        <ele>213.010564</ele>
        <time>2022-12-11T16:39:02.503Z</time>
      </trkpt>
      <trkpt lat="48.21516" lon="-3.33481">
        <ele>212.815808</ele>
        <time>2022-12-11T16:39:05.498Z</time>
      </trkpt>
      <trkpt lat="48.21507" lon="-3.33472">
        <ele>212.630565</ele>
        <time>2022-12-11T16:39:08.495Z</time>
      </trkpt>
      <trkpt lat="48.21499" lon="-3.3346">
        <ele>212.432834</ele>
        <time>2022-12-11T16:39:12.511Z</time>
      </trkpt>
      <trkpt lat="48.21492" lon="-3.33449">
        <ele>212.246443</ele>
        <time>2022-12-11T16:39:16.497Z</time>
      </trkpt>
      <trkpt lat="48.21483" lon="-3.33437">
        <ele>212.034876</ele>
        <time>2022-12-11T16:39:20.516Z</time>
      </trkpt>
      <trkpt lat="48.21476" lon="-3.33428">
        <ele>211.866204</ele>
        <time>2022-12-11T16:39:23.499Z</time>
      </trkpt>
      <trkpt lat="48.21469" lon="-3.33419">
        <ele>211.811487</ele>
        <time>2022-12-11T16:39:26.494Z</time>
      </trkpt>
      <trkpt lat="48.21462" lon="-3.33409">
        <ele>212.036631</ele>
        <time>2022-12-11T16:39:30.499Z</time>
      </trkpt>
      <trkpt lat="48.21455" lon="-3.33398">
        <ele>212.249892</ele>
        <time>2022-12-11T16:39:40.508Z</time>
      </trkpt>
      <trkpt lat="48.21448" lon="-3.3339">
        <ele>212.46528</ele>
        <time>2022-12-11T16:39:51.502Z</time>
      </trkpt>
      <trkpt lat="48.21446" lon="-3.33379">
        <ele>212.625107</ele>
        <time>2022-12-11T16:40:15.777Z</time>
      </trkpt>
      <trkpt lat="48.21435" lon="-3.33376">
        <ele>212.891508</ele>
        <time>2022-12-11T16:50:19.505Z</time>
      </trkpt>
      <trkpt lat="48.21437" lon="-3.33361">
        <ele>213.11531</ele>
        <time>2022-12-11T16:50:23.498Z</time>
      </trkpt>
      <trkpt lat="48.21438" lon="-3.33346">
        <ele>213.34773</ele>
        <time>2022-12-11T16:50:27.495Z</time>
      </trkpt>
      <trkpt lat="48.21439" lon="-3.33331">
        <ele>213.575371</ele>
        <time>2022-12-11T16:50:32.498Z</time>
      </trkpt>
      <trkpt lat="48.21439" lon="-3.33317">
        <ele>213.797354</ele>
        <time>2022-12-11T16:50:37.492Z</time>
      </trkpt>
      <trkpt lat="48.21438" lon="-3.33302">
        <ele>214.019463</ele>
        <time>2022-12-11T16:50:42.498Z</time>
      </trkpt>
      <trkpt lat="48.21437" lon="-3.33288">
        <ele>214.231752</ele>
        <time>2022-12-11T16:50:47.496Z</time>
      </trkpt>
      <trkpt lat="48.21435" lon="-3.33272">
        <ele>214.483292</ele>
        <time>2022-12-11T16:50:53.498Z</time>
      </trkpt>
      <trkpt lat="48.21432" lon="-3.33257">
        <ele>214.719252</ele>
        <time>2022-12-11T16:50:58.500Z</time>
      </trkpt>
      <trkpt lat="48.21429" lon="-3.33242">
        <ele>214.959375</ele>
        <time>2022-12-11T16:51:03.495Z</time>
      </trkpt>
      <trkpt lat="48.21425" lon="-3.33227">
        <ele>215.200474</ele>
        <time>2022-12-11T16:51:08.496Z</time>
      </trkpt>
      <trkpt lat="48.2142" lon="-3.33213">
        <ele>215.44626</ele>
        <time>2022-12-11T16:51:14.499Z</time>
      </trkpt>
      <trkpt lat="48.21415" lon="-3.33201">
        <ele>215.653723</ele>
        <time>2022-12-11T16:51:19.498Z</time>
      </trkpt>
      <trkpt lat="48.2141" lon="-3.33189">
        <ele>215.896163</ele>
        <time>2022-12-11T16:51:24.496Z</time>
      </trkpt>
      <trkpt lat="48.21404" lon="-3.33176">
        <ele>216.218745</ele>
        <time>2022-12-11T16:51:29.496Z</time>
      </trkpt>
      <trkpt lat="48.21397" lon="-3.33163">
        <ele>216.564685</ele>
        <time>2022-12-11T16:51:34.501Z</time>
      </trkpt>
      <trkpt lat="48.21391" lon="-3.33149">
        <ele>216.920712</ele>
        <time>2022-12-11T16:51:39.497Z</time>
      </trkpt>
      <trkpt lat="48.21384" lon="-3.33136">
        <ele>217.278484</ele>
        <time>2022-12-11T16:51:44.504Z</time>
      </trkpt>
      <trkpt lat="48.21378" lon="-3.33123">
        <ele>217.636355</ele>
        <time>2022-12-11T16:51:49.496Z</time>
      </trkpt>
      <trkpt lat="48.21371" lon="-3.33112">
        <ele>217.937703</ele>
        <time>2022-12-11T16:51:53.495Z</time>
      </trkpt>
      <trkpt lat="48.21366" lon="-3.33099">
        <ele>218.249555</ele>
        <time>2022-12-11T16:51:58.507Z</time>
      </trkpt>
      <trkpt lat="48.2136" lon="-3.33089">
        <ele>218.54817</ele>
        <time>2022-12-11T16:52:03.500Z</time>
      </trkpt>
      <trkpt lat="48.21353" lon="-3.33076">
        <ele>218.901928</ele>
        <time>2022-12-11T16:52:08.495Z</time>
      </trkpt>
      <trkpt lat="48.21347" lon="-3.33064">
        <ele>219.206997</ele>
        <time>2022-12-11T16:52:12.497Z</time>
      </trkpt>
      <trkpt lat="48.21341" lon="-3.33053">
        <ele>219.518972</ele>
        <time>2022-12-11T16:52:16.495Z</time>
      </trkpt>
      <trkpt lat="48.21335" lon="-3.33039">
        <ele>219.882171</ele>
        <time>2022-12-11T16:52:21.510Z</time>
      </trkpt>
      <trkpt lat="48.2133" lon="-3.33025">
        <ele>220.226486</ele>
        <time>2022-12-11T16:52:25.502Z</time>
      </trkpt>
      <trkpt lat="48.21325" lon="-3.3301">
        <ele>220.588721</ele>
        <time>2022-12-11T16:52:29.503Z</time>
      </trkpt>
      <trkpt lat="48.2132" lon="-3.32995">
        <ele>220.922036</ele>
        <time>2022-12-11T16:52:33.499Z</time>
      </trkpt>
      <trkpt lat="48.21317" lon="-3.32979">
        <ele>221.291616</ele>
        <time>2022-12-11T16:52:37.499Z</time>
      </trkpt>
      <trkpt lat="48.21313" lon="-3.32963">
        <ele>221.580308</ele>
        <time>2022-12-11T16:52:40.506Z</time>
      </trkpt>
      <trkpt lat="48.21312" lon="-3.32946">
        <ele>221.425737</ele>
        <time>2022-12-11T16:52:43.509Z</time>
      </trkpt>
      <trkpt lat="48.21311" lon="-3.32929">
        <ele>221.273719</ele>
        <time>2022-12-11T16:52:46.505Z</time>
      </trkpt>
      <trkpt lat="48.2131" lon="-3.32911">
        <ele>221.113424</ele>
        <time>2022-12-11T16:52:49.515Z</time>
      </trkpt>
      <trkpt lat="48.2131" lon="-3.32891">
        <ele>220.932742</ele>
        <time>2022-12-11T16:52:52.500Z</time>
      </trkpt>
      <trkpt lat="48.2131" lon="-3.32876">
        <ele>220.802789</ele>
        <time>2022-12-11T16:52:54.515Z</time>
      </trkpt>
      <trkpt lat="48.2131" lon="-3.32862">
        <ele>220.675486</ele>
        <time>2022-12-11T16:52:56.496Z</time>
      </trkpt>
      <trkpt lat="48.2131" lon="-3.32846">
        <ele>220.534803</ele>
        <time>2022-12-11T16:52:58.496Z</time>
      </trkpt>
      <trkpt lat="48.21311" lon="-3.32829">
        <ele>220.388783</ele>
        <time>2022-12-11T16:53:00.502Z</time>
      </trkpt>
      <trkpt lat="48.21311" lon="-3.32812">
        <ele>220.232136</ele>
        <time>2022-12-11T16:53:02.495Z</time>
      </trkpt>
      <trkpt lat="48.21311" lon="-3.32795">
        <ele>220.07816</ele>
        <time>2022-12-11T16:53:04.504Z</time>
      </trkpt>
      <trkpt lat="48.21311" lon="-3.32777">
        <ele>219.917948</ele>
        <time>2022-12-11T16:53:06.495Z</time>
      </trkpt>
      <trkpt lat="48.2131" lon="-3.32758">
        <ele>219.756763</ele>
        <time>2022-12-11T16:53:08.503Z</time>
      </trkpt>
      <trkpt lat="48.2131" lon="-3.32741">
        <ele>219.598331</ele>
        <time>2022-12-11T16:53:10.505Z</time>
      </trkpt>
      <trkpt lat="48.2131" lon="-3.32722">
        <ele>219.430029</ele>
        <time>2022-12-11T16:53:12.495Z</time>
      </trkpt>
      <trkpt lat="48.2131" lon="-3.32703">
        <ele>219.266257</ele>
        <time>2022-12-11T16:53:14.514Z</time>
      </trkpt>
      <trkpt lat="48.2131" lon="-3.32686">
        <ele>219.192986</ele>
        <time>2022-12-11T16:53:16.498Z</time>
      </trkpt>
      <trkpt lat="48.21309" lon="-3.32668">
        <ele>219.186737</ele>
        <time>2022-12-11T16:53:18.531Z</time>
      </trkpt>
      <trkpt lat="48.21309" lon="-3.3265">
        <ele>219.180392</ele>
        <time>2022-12-11T16:53:20.501Z</time>
      </trkpt>
      <trkpt lat="48.21309" lon="-3.32632">
        <ele>219.174328</ele>
        <time>2022-12-11T16:53:22.525Z</time>
      </trkpt>
      <trkpt lat="48.21309" lon="-3.32615">
        <ele>219.168334</ele>
        <time>2022-12-11T16:53:24.505Z</time>
      </trkpt>
      <trkpt lat="48.21309" lon="-3.32598">
        <ele>219.16234</ele>
        <time>2022-12-11T16:53:26.496Z</time>
      </trkpt>
      <trkpt lat="48.21309" lon="-3.32582">
        <ele>219.156591</ele>
        <time>2022-12-11T16:53:28.504Z</time>
      </trkpt>
      <trkpt lat="48.21309" lon="-3.32567">
        <ele>219.151369</ele>
        <time>2022-12-11T16:53:30.507Z</time>
      </trkpt>
      <trkpt lat="48.21309" lon="-3.32552">
        <ele>219.146076</ele>
        <time>2022-12-11T16:53:32.499Z</time>
      </trkpt>
      <trkpt lat="48.21309" lon="-3.32538">
        <ele>219.141098</ele>
        <time>2022-12-11T16:53:34.500Z</time>
      </trkpt>
      <trkpt lat="48.21309" lon="-3.32524">
        <ele>219.136365</ele>
        <time>2022-12-11T16:53:36.499Z</time>
      </trkpt>
      <trkpt lat="48.21309" lon="-3.32506">
        <ele>219.129982</ele>
        <time>2022-12-11T16:53:39.497Z</time>
      </trkpt>
      <trkpt lat="48.21309" lon="-3.32489">
        <ele>219.123919</ele>
        <time>2022-12-11T16:53:42.504Z</time>
      </trkpt>
      <trkpt lat="48.21309" lon="-3.32472">
        <ele>219.117993</ele>
        <time>2022-12-11T16:53:45.497Z</time>
      </trkpt>
      <trkpt lat="48.21309" lon="-3.32455">
        <ele>219.112</ele>
        <time>2022-12-11T16:53:48.507Z</time>
      </trkpt>
      <trkpt lat="48.21308" lon="-3.32438">
        <ele>219.106179</ele>
        <time>2022-12-11T16:53:51.496Z</time>
      </trkpt>
      <trkpt lat="48.21309" lon="-3.32422">
        <ele>219.08192</ele>
        <time>2022-12-11T16:53:54.512Z</time>
      </trkpt>
      <trkpt lat="48.2131" lon="-3.32407">
        <ele>218.993084</ele>
        <time>2022-12-11T16:53:57.499Z</time>
      </trkpt>
      <trkpt lat="48.21313" lon="-3.32391">
        <ele>218.899866</ele>
        <time>2022-12-11T16:54:00.503Z</time>
      </trkpt>
      <trkpt lat="48.21317" lon="-3.32376">
        <ele>218.802115</ele>
        <time>2022-12-11T16:54:03.514Z</time>
      </trkpt>
      <trkpt lat="48.21322" lon="-3.32361">
        <ele>218.702358</ele>
        <time>2022-12-11T16:54:06.499Z</time>
      </trkpt>
      <trkpt lat="48.21329" lon="-3.32346">
        <ele>218.596675</ele>
        <time>2022-12-11T16:54:09.498Z</time>
      </trkpt>
      <trkpt lat="48.21339" lon="-3.32332">
        <ele>218.486171</ele>
        <time>2022-12-11T16:54:12.504Z</time>
      </trkpt>
      <trkpt lat="48.21349" lon="-3.32321">
        <ele>218.373727</ele>
        <time>2022-12-11T16:54:15.500Z</time>
      </trkpt>
      <trkpt lat="48.2136" lon="-3.32311">
        <ele>218.263329</ele>
        <time>2022-12-11T16:54:18.500Z</time>
      </trkpt>
      <trkpt lat="48.21371" lon="-3.32302">
        <ele>218.156337</ele>
        <time>2022-12-11T16:54:21.501Z</time>
      </trkpt>
      <trkpt lat="48.21383" lon="-3.32296">
        <ele>218.038967</ele>
        <time>2022-12-11T16:54:24.499Z</time>
      </trkpt>
      <trkpt lat="48.21393" lon="-3.32295">
        <ele>217.956077</ele>
        <time>2022-12-11T16:54:26.501Z</time>
      </trkpt>
      <trkpt lat="48.21407" lon="-3.32294">
        <ele>217.837561</ele>
        <time>2022-12-11T16:54:29.500Z</time>
      </trkpt>
      <trkpt lat="48.2142" lon="-3.32291">
        <ele>217.719365</ele>
        <time>2022-12-11T16:54:32.498Z</time>
      </trkpt>
      <trkpt lat="48.21429" lon="-3.3229">
        <ele>217.639196</ele>
        <time>2022-12-11T16:54:34.499Z</time>
      </trkpt>
      <trkpt lat="48.21439" lon="-3.32289">
        <ele>217.556096</ele>
        <time>2022-12-11T16:54:36.500Z</time>
      </trkpt>
      <trkpt lat="48.21449" lon="-3.32288">
        <ele>217.46028</ele>
        <time>2022-12-11T16:54:38.500Z</time>
      </trkpt>
      <trkpt lat="48.21459" lon="-3.32287">
        <ele>217.360259</ele>
        <time>2022-12-11T16:54:40.504Z</time>
      </trkpt>
      <trkpt lat="48.21469" lon="-3.32286">
        <ele>217.263278</ele>
        <time>2022-12-11T16:54:42.499Z</time>
      </trkpt>
      <trkpt lat="48.21479" lon="-3.32285">
        <ele>217.165331</ele>
        <time>2022-12-11T16:54:44.504Z</time>
      </trkpt>
      <trkpt lat="48.2149" lon="-3.32284">
        <ele>217.064444</ele>
        <time>2022-12-11T16:54:46.499Z</time>
      </trkpt>
      <trkpt lat="48.21501" lon="-3.32283">
        <ele>216.957843</ele>
        <time>2022-12-11T16:54:48.500Z</time>
      </trkpt>
      <trkpt lat="48.21512" lon="-3.32282">
        <ele>216.848343</ele>
        <time>2022-12-11T16:54:50.496Z</time>
      </trkpt>
      <trkpt lat="48.21522" lon="-3.32281">
        <ele>216.747409</ele>
        <time>2022-12-11T16:54:52.502Z</time>
      </trkpt>
      <trkpt lat="48.21533" lon="-3.32279">
        <ele>216.641297</ele>
        <time>2022-12-11T16:54:54.504Z</time>
      </trkpt>
      <trkpt lat="48.21543" lon="-3.32278">
        <ele>216.544271</ele>
        <time>2022-12-11T16:54:56.498Z</time>
      </trkpt>
      <trkpt lat="48.21552" lon="-3.32277">
        <ele>216.455208</ele>
        <time>2022-12-11T16:54:58.494Z</time>
      </trkpt>
      <trkpt lat="48.21562" lon="-3.32277">
        <ele>216.366181</ele>
        <time>2022-12-11T16:55:00.495Z</time>
      </trkpt>
      <trkpt lat="48.21571" lon="-3.32276">
        <ele>216.273014</ele>
        <time>2022-12-11T16:55:02.509Z</time>
      </trkpt>
      <trkpt lat="48.21581" lon="-3.32275">
        <ele>216.179681</ele>
        <time>2022-12-11T16:55:04.494Z</time>
      </trkpt>
      <trkpt lat="48.2159" lon="-3.32274">
        <ele>216.08954</ele>
        <time>2022-12-11T16:55:06.502Z</time>
      </trkpt>
      <trkpt lat="48.216" lon="-3.32273">
        <ele>215.994602</ele>
        <time>2022-12-11T16:55:08.514Z</time>
      </trkpt>
      <trkpt lat="48.2161" lon="-3.32272">
        <ele>215.897415</ele>
        <time>2022-12-11T16:55:10.499Z</time>
      </trkpt>
      <trkpt lat="48.2162" lon="-3.3227">
        <ele>215.800991</ele>
        <time>2022-12-11T16:55:12.510Z</time>
      </trkpt>
      <trkpt lat="48.2163" lon="-3.32269">
        <ele>215.709971</ele>
        <time>2022-12-11T16:55:14.521Z</time>
      </trkpt>
      <trkpt lat="48.2164" lon="-3.32268">
        <ele>215.617474</ele>
        <time>2022-12-11T16:55:16.519Z</time>
      </trkpt>
      <trkpt lat="48.21651" lon="-3.32268">
        <ele>215.526783</ele>
        <time>2022-12-11T16:55:18.500Z</time>
      </trkpt>
      <trkpt lat="48.21661" lon="-3.32266">
        <ele>215.435938</ele>
        <time>2022-12-11T16:55:20.497Z</time>
      </trkpt>
      <trkpt lat="48.2167" lon="-3.32265">
        <ele>215.351287</ele>
        <time>2022-12-11T16:55:22.504Z</time>
      </trkpt>
      <trkpt lat="48.2168" lon="-3.32264">
        <ele>215.26757</ele>
        <time>2022-12-11T16:55:24.501Z</time>
      </trkpt>
      <trkpt lat="48.21693" lon="-3.32264">
        <ele>215.147677</ele>
        <time>2022-12-11T16:55:27.506Z</time>
      </trkpt>
      <trkpt lat="48.21702" lon="-3.32262">
        <ele>215.065628</ele>
        <time>2022-12-11T16:55:29.506Z</time>
      </trkpt>
      <trkpt lat="48.21713" lon="-3.32262">
        <ele>214.974018</ele>
        <time>2022-12-11T16:55:31.501Z</time>
      </trkpt>
      <trkpt lat="48.21723" lon="-3.3226">
        <ele>214.883016</ele>
        <time>2022-12-11T16:55:33.500Z</time>
      </trkpt>
      <trkpt lat="48.21734" lon="-3.32259">
        <ele>214.78863</ele>
        <time>2022-12-11T16:55:35.497Z</time>
      </trkpt>
      <trkpt lat="48.21744" lon="-3.32257">
        <ele>214.694977</ele>
        <time>2022-12-11T16:55:37.499Z</time>
      </trkpt>
      <trkpt lat="48.21755" lon="-3.32256">
        <ele>214.599786</ele>
        <time>2022-12-11T16:55:39.494Z</time>
      </trkpt>
      <trkpt lat="48.21765" lon="-3.32255">
        <ele>214.510711</ele>
        <time>2022-12-11T16:55:41.500Z</time>
      </trkpt>
      <trkpt lat="48.21774" lon="-3.32254">
        <ele>214.426151</ele>
        <time>2022-12-11T16:55:43.512Z</time>
      </trkpt>
      <trkpt lat="48.21784" lon="-3.32253">
        <ele>214.341549</ele>
        <time>2022-12-11T16:55:45.503Z</time>
      </trkpt>
      <trkpt lat="48.21793" lon="-3.32252">
        <ele>214.261372</ele>
        <time>2022-12-11T16:55:47.498Z</time>
      </trkpt>
      <trkpt lat="48.21806" lon="-3.3225">
        <ele>214.226411</ele>
        <time>2022-12-11T16:55:50.498Z</time>
      </trkpt>
      <trkpt lat="48.21819" lon="-3.32248">
        <ele>214.284879</ele>
        <time>2022-12-11T16:55:53.498Z</time>
      </trkpt>
      <trkpt lat="48.21832" lon="-3.32247">
        <ele>214.342573</ele>
        <time>2022-12-11T16:55:56.500Z</time>
      </trkpt>
      <trkpt lat="48.21846" lon="-3.32246">
        <ele>214.402378</ele>
        <time>2022-12-11T16:55:59.506Z</time>
      </trkpt>
      <trkpt lat="48.21855" lon="-3.32245">
        <ele>214.445666</ele>
        <time>2022-12-11T16:56:01.497Z</time>
      </trkpt>
      <trkpt lat="48.21865" lon="-3.32244">
        <ele>214.48842</ele>
        <time>2022-12-11T16:56:03.500Z</time>
      </trkpt>
      <trkpt lat="48.21875" lon="-3.32243">
        <ele>214.53244</ele>
        <time>2022-12-11T16:56:05.497Z</time>
      </trkpt>
      <trkpt lat="48.21885" lon="-3.32242">
        <ele>214.573899</ele>
        <time>2022-12-11T16:56:07.501Z</time>
      </trkpt>
      <trkpt lat="48.21895" lon="-3.32241">
        <ele>214.618558</ele>
        <time>2022-12-11T16:56:09.497Z</time>
      </trkpt>
      <trkpt lat="48.21905" lon="-3.3224">
        <ele>214.663087</ele>
        <time>2022-12-11T16:56:11.495Z</time>
      </trkpt>
      <trkpt lat="48.21915" lon="-3.32238">
        <ele>214.708493</ele>
        <time>2022-12-11T16:56:13.507Z</time>
      </trkpt>
      <trkpt lat="48.21925" lon="-3.32237">
        <ele>214.751268</ele>
        <time>2022-12-11T16:56:15.507Z</time>
      </trkpt>
      <trkpt lat="48.21934" lon="-3.32237">
        <ele>214.793043</ele>
        <time>2022-12-11T16:56:17.498Z</time>
      </trkpt>
      <trkpt lat="48.21944" lon="-3.32236">
        <ele>214.834502</ele>
        <time>2022-12-11T16:56:19.502Z</time>
      </trkpt>
      <trkpt lat="48.21953" lon="-3.32236">
        <ele>214.876717</ele>
        <time>2022-12-11T16:56:21.506Z</time>
      </trkpt>
      <trkpt lat="48.21963" lon="-3.32235">
        <ele>214.918995</ele>
        <time>2022-12-11T16:56:23.504Z</time>
      </trkpt>
      <trkpt lat="48.21973" lon="-3.32236">
        <ele>214.96165</ele>
        <time>2022-12-11T16:56:25.498Z</time>
      </trkpt>
      <trkpt lat="48.21983" lon="-3.32236">
        <ele>214.958643</ele>
        <time>2022-12-11T16:56:27.500Z</time>
      </trkpt>
      <trkpt lat="48.21993" lon="-3.32237">
        <ele>214.866968</ele>
        <time>2022-12-11T16:56:29.500Z</time>
      </trkpt>
      <trkpt lat="48.22003" lon="-3.32237">
        <ele>214.779717</ele>
        <time>2022-12-11T16:56:31.502Z</time>
      </trkpt>
      <trkpt lat="48.22012" lon="-3.32239">
        <ele>214.694008</ele>
        <time>2022-12-11T16:56:33.496Z</time>
      </trkpt>
      <trkpt lat="48.22022" lon="-3.3224">
        <ele>214.608445</ele>
        <time>2022-12-11T16:56:35.503Z</time>
      </trkpt>
      <trkpt lat="48.22031" lon="-3.32241">
        <ele>214.52063</ele>
        <time>2022-12-11T16:56:37.496Z</time>
      </trkpt>
      <trkpt lat="48.22041" lon="-3.32243">
        <ele>214.433077</ele>
        <time>2022-12-11T16:56:39.498Z</time>
      </trkpt>
      <trkpt lat="48.2205" lon="-3.32246">
        <ele>214.3456</ele>
        <time>2022-12-11T16:56:41.504Z</time>
      </trkpt>
      <trkpt lat="48.2206" lon="-3.32248">
        <ele>214.255928</ele>
        <time>2022-12-11T16:56:43.497Z</time>
      </trkpt>
      <trkpt lat="48.2207" lon="-3.3225">
        <ele>214.165364</ele>
        <time>2022-12-11T16:56:45.501Z</time>
      </trkpt>
      <trkpt lat="48.2208" lon="-3.32254">
        <ele>214.072226</ele>
        <time>2022-12-11T16:56:47.507Z</time>
      </trkpt>
      <trkpt lat="48.22089" lon="-3.32257">
        <ele>213.98941</ele>
        <time>2022-12-11T16:56:49.509Z</time>
      </trkpt>
      <trkpt lat="48.22098" lon="-3.32261">
        <ele>213.905435</ele>
        <time>2022-12-11T16:56:51.504Z</time>
      </trkpt>
      <trkpt lat="48.22108" lon="-3.32264">
        <ele>213.817688</ele>
        <time>2022-12-11T16:56:53.507Z</time>
      </trkpt>
      <trkpt lat="48.22117" lon="-3.32267">
        <ele>213.735342</ele>
        <time>2022-12-11T16:56:55.502Z</time>
      </trkpt>
      <trkpt lat="48.22129" lon="-3.32272">
        <ele>213.617965</ele>
        <time>2022-12-11T16:56:58.511Z</time>
      </trkpt>
      <trkpt lat="48.22139" lon="-3.32277">
        <ele>213.528815</ele>
        <time>2022-12-11T16:57:00.501Z</time>
      </trkpt>
      <trkpt lat="48.22151" lon="-3.32282">
        <ele>213.411718</ele>
        <time>2022-12-11T16:57:03.506Z</time>
      </trkpt>
      <trkpt lat="48.22161" lon="-3.32287">
        <ele>213.428232</ele>
        <time>2022-12-11T16:57:05.499Z</time>
      </trkpt>
      <trkpt lat="48.22171" lon="-3.32292">
        <ele>213.516834</ele>
        <time>2022-12-11T16:57:07.508Z</time>
      </trkpt>
      <trkpt lat="48.22181" lon="-3.32296">
        <ele>213.59925</ele>
        <time>2022-12-11T16:57:09.503Z</time>
      </trkpt>
      <trkpt lat="48.2219" lon="-3.323">
        <ele>213.681909</ele>
        <time>2022-12-11T16:57:11.500Z</time>
      </trkpt>
      <trkpt lat="48.222" lon="-3.32304">
        <ele>213.768294</ele>
        <time>2022-12-11T16:57:13.512Z</time>
      </trkpt>
      <trkpt lat="48.22213" lon="-3.32309">
        <ele>213.878454</ele>
        <time>2022-12-11T16:57:16.505Z</time>
      </trkpt>
      <trkpt lat="48.22225" lon="-3.32314">
        <ele>213.987799</ele>
        <time>2022-12-11T16:57:19.506Z</time>
      </trkpt>
      <trkpt lat="48.22237" lon="-3.32319">
        <ele>214.088864</ele>
        <time>2022-12-11T16:57:22.503Z</time>
      </trkpt>
      <trkpt lat="48.22248" lon="-3.32322">
        <ele>214.185328</ele>
        <time>2022-12-11T16:57:25.496Z</time>
      </trkpt>
      <trkpt lat="48.2226" lon="-3.32325">
        <ele>214.282236</ele>
        <time>2022-12-11T16:57:28.496Z</time>
      </trkpt>
      <trkpt lat="48.22271" lon="-3.32327">
        <ele>214.37788</ele>
        <time>2022-12-11T16:57:31.500Z</time>
      </trkpt>
      <trkpt lat="48.22282" lon="-3.32328">
        <ele>214.471625</ele>
        <time>2022-12-11T16:57:34.508Z</time>
      </trkpt>
      <trkpt lat="48.22293" lon="-3.32329">
        <ele>214.56678</ele>
        <time>2022-12-11T16:57:38.502Z</time>
      </trkpt>
      <trkpt lat="48.22304" lon="-3.3233">
        <ele>214.654288</ele>
        <time>2022-12-11T16:57:42.503Z</time>
      </trkpt>
      <trkpt lat="48.22315" lon="-3.32331">
        <ele>214.74622</ele>
        <time>2022-12-11T16:57:46.498Z</time>
      </trkpt>
      <trkpt lat="48.22325" lon="-3.32332">
        <ele>214.832134</ele>
        <time>2022-12-11T16:57:50.503Z</time>
      </trkpt>
      <trkpt lat="48.22335" lon="-3.3233">
        <ele>215.087576</ele>
        <time>2022-12-11T16:57:55.494Z</time>
      </trkpt>
      <trkpt lat="48.22343" lon="-3.32329">
        <ele>215.640225</ele>
        <time>2022-12-11T16:58:00.500Z</time>
      </trkpt>
      <trkpt lat="48.22353" lon="-3.32327">
        <ele>216.257661</ele>
        <time>2022-12-11T16:58:05.497Z</time>
      </trkpt>
      <trkpt lat="48.22363" lon="-3.32327">
        <ele>216.872552</ele>
        <time>2022-12-11T16:58:10.504Z</time>
      </trkpt>
      <trkpt lat="48.22374" lon="-3.32325">
        <ele>217.51526</ele>
        <time>2022-12-11T16:58:16.504Z</time>
      </trkpt>
      <trkpt lat="48.22383" lon="-3.32324">
        <ele>218.095589</ele>
        <time>2022-12-11T16:58:21.494Z</time>
      </trkpt>
      <trkpt lat="48.22393" lon="-3.32322">
        <ele>218.685918</ele>
        <time>2022-12-11T16:58:26.495Z</time>
      </trkpt>
      <trkpt lat="48.22402" lon="-3.32318">
        <ele>219.250504</ele>
        <time>2022-12-11T16:58:31.499Z</time>
      </trkpt>
      <trkpt lat="48.22412" lon="-3.32318">
        <ele>219.859469</ele>
        <time>2022-12-11T16:58:37.499Z</time>
      </trkpt>
      <trkpt lat="48.22421" lon="-3.32319">
        <ele>220.469204</ele>
        <time>2022-12-11T16:58:42.500Z</time>
      </trkpt>
      <trkpt lat="48.22431" lon="-3.32318">
        <ele>221.067228</ele>
        <time>2022-12-11T16:58:47.499Z</time>
      </trkpt>
      <trkpt lat="48.22441" lon="-3.32316">
        <ele>221.648813</ele>
        <time>2022-12-11T16:58:52.499Z</time>
      </trkpt>
      <trkpt lat="48.2245" lon="-3.32315">
        <ele>222.25441</ele>
        <time>2022-12-11T16:58:57.500Z</time>
      </trkpt>
      <trkpt lat="48.2246" lon="-3.32313">
        <ele>222.835548</ele>
        <time>2022-12-11T16:59:02.513Z</time>
      </trkpt>
      <trkpt lat="48.2247" lon="-3.32311">
        <ele>223.466465</ele>
        <time>2022-12-11T16:59:08.504Z</time>
      </trkpt>
      <trkpt lat="48.2248" lon="-3.3231">
        <ele>224.110541</ele>
        <time>2022-12-11T16:59:14.499Z</time>
      </trkpt>
      <trkpt lat="48.2249" lon="-3.32309">
        <ele>224.725527</ele>
        <time>2022-12-11T16:59:20.501Z</time>
      </trkpt>
      <trkpt lat="48.225" lon="-3.32309">
        <ele>225.309686</ele>
        <time>2022-12-11T16:59:26.509Z</time>
      </trkpt>
      <trkpt lat="48.22509" lon="-3.32308">
        <ele>225.876472</ele>
        <time>2022-12-11T16:59:31.508Z</time>
      </trkpt>
      <trkpt lat="48.2252" lon="-3.32305">
        <ele>226.462137</ele>
        <time>2022-12-11T16:59:36.509Z</time>
      </trkpt>
      <trkpt lat="48.2253" lon="-3.32303">
        <ele>227.025358</ele>
        <time>2022-12-11T16:59:41.499Z</time>
      </trkpt>
      <trkpt lat="48.2254" lon="-3.32301">
        <ele>227.586212</ele>
        <time>2022-12-11T16:59:47.508Z</time>
      </trkpt>
      <trkpt lat="48.2255" lon="-3.323">
        <ele>228.100841</ele>
        <time>2022-12-11T16:59:53.497Z</time>
      </trkpt>
      <trkpt lat="48.2256" lon="-3.32299">
        <ele>228.63804</ele>
        <time>2022-12-11T16:59:59.510Z</time>
      </trkpt>
      <trkpt lat="48.2257" lon="-3.32298">
        <ele>229.18063</ele>
        <time>2022-12-11T17:00:05.499Z</time>
      </trkpt>
      <trkpt lat="48.22579" lon="-3.32296">
        <ele>229.688271</ele>
        <time>2022-12-11T17:00:10.501Z</time>
      </trkpt>
      <trkpt lat="48.22588" lon="-3.32294">
        <ele>230.189195</ele>
        <time>2022-12-11T17:00:15.528Z</time>
      </trkpt>
      <trkpt lat="48.22597" lon="-3.32292">
        <ele>230.686629</ele>
        <time>2022-12-11T17:00:21.502Z</time>
      </trkpt>
      <trkpt lat="48.22608" lon="-3.3229">
        <ele>231.261637</ele>
        <time>2022-12-11T17:00:27.501Z</time>
      </trkpt>
      <trkpt lat="48.22618" lon="-3.32289">
        <ele>231.829647</ele>
        <time>2022-12-11T17:00:33.497Z</time>
      </trkpt>
      <trkpt lat="48.22628" lon="-3.32289">
        <ele>232.381905</ele>
        <time>2022-12-11T17:00:39.499Z</time>
      </trkpt>
      <trkpt lat="48.22639" lon="-3.32287">
        <ele>232.946995</ele>
        <time>2022-12-11T17:00:45.495Z</time>
      </trkpt>
      <trkpt lat="48.22648" lon="-3.32286">
        <ele>233.436021</ele>
        <time>2022-12-11T17:00:50.494Z</time>
      </trkpt>
      <trkpt lat="48.22657" lon="-3.32285">
        <ele>233.929801</ele>
        <time>2022-12-11T17:00:55.497Z</time>
      </trkpt>
      <trkpt lat="48.22667" lon="-3.32285">
        <ele>234.465305</ele>
        <time>2022-12-11T17:01:01.504Z</time>
      </trkpt>
      <trkpt lat="48.22676" lon="-3.32282">
        <ele>234.998242</ele>
        <time>2022-12-11T17:01:07.501Z</time>
      </trkpt>
      <trkpt lat="48.22686" lon="-3.3228">
        <ele>235.498604</ele>
        <time>2022-12-11T17:01:12.497Z</time>
      </trkpt>
      <trkpt lat="48.22696" lon="-3.32278">
        <ele>236.178041</ele>
        <time>2022-12-11T17:01:18.505Z</time>
      </trkpt>
      <trkpt lat="48.22706" lon="-3.32275">
        <ele>236.936346</ele>
        <time>2022-12-11T17:01:24.501Z</time>
      </trkpt>
      <trkpt lat="48.22716" lon="-3.32274">
        <ele>237.710909</ele>
        <time>2022-12-11T17:01:30.506Z</time>
      </trkpt>
      <trkpt lat="48.22727" lon="-3.32272">
        <ele>238.49492</ele>
        <time>2022-12-11T17:01:36.504Z</time>
      </trkpt>
      <trkpt lat="48.22738" lon="-3.3227">
        <ele>239.279457</ele>
        <time>2022-12-11T17:01:42.498Z</time>
      </trkpt>
      <trkpt lat="48.22748" lon="-3.3227">
        <ele>239.9936</ele>
        <time>2022-12-11T17:01:47.509Z</time>
      </trkpt>
      <trkpt lat="48.22757" lon="-3.32269">
        <ele>240.69514</ele>
        <time>2022-12-11T17:01:53.502Z</time>
      </trkpt>
      <trkpt lat="48.2277" lon="-3.32266">
        <ele>241.669421</ele>
        <time>2022-12-11T17:02:49.552Z</time>
      </trkpt>
      <trkpt lat="48.22779" lon="-3.32264">
        <ele>242.330378</ele>
        <time>2022-12-11T17:02:56.495Z</time>
      </trkpt>
      <trkpt lat="48.2279" lon="-3.32262">
        <ele>243.080559</ele>
        <time>2022-12-11T17:03:04.515Z</time>
      </trkpt>
      <trkpt lat="48.228" lon="-3.3226">
        <ele>243.819628</ele>
        <time>2022-12-11T17:03:12.513Z</time>
      </trkpt>
      <trkpt lat="48.2281" lon="-3.32259">
        <ele>244.567969</ele>
        <time>2022-12-11T17:03:20.512Z</time>
      </trkpt>
      <trkpt lat="48.2282" lon="-3.32257">
        <ele>245.308518</ele>
        <time>2022-12-11T17:03:28.504Z</time>
      </trkpt>
      <trkpt lat="48.22829" lon="-3.32255">
        <ele>245.96498</ele>
        <time>2022-12-11T17:03:35.508Z</time>
      </trkpt>
      <trkpt lat="48.22839" lon="-3.32253">
        <ele>246.68381</ele>
        <time>2022-12-11T17:03:43.501Z</time>
      </trkpt>
      <trkpt lat="48.22848" lon="-3.32252">
        <ele>247.348656</ele>
        <time>2022-12-11T17:03:50.505Z</time>
      </trkpt>
      <trkpt lat="48.22857" lon="-3.32251">
        <ele>248.029233</ele>
        <time>2022-12-11T17:03:57.500Z</time>
      </trkpt>
      <trkpt lat="48.22866" lon="-3.32249">
        <ele>248.684958</ele>
        <time>2022-12-11T17:04:04.505Z</time>
      </trkpt>
      <trkpt lat="48.22875" lon="-3.32248">
        <ele>249.130314</ele>
        <time>2022-12-11T17:04:11.514Z</time>
      </trkpt>
      <trkpt lat="48.22885" lon="-3.32246">
        <ele>249.573491</ele>
        <time>2022-12-11T17:04:19.508Z</time>
      </trkpt>
      <trkpt lat="48.22895" lon="-3.32244">
        <ele>250.028988</ele>
        <time>2022-12-11T17:04:27.504Z</time>
      </trkpt>
      <trkpt lat="48.22905" lon="-3.32243">
        <ele>250.471792</ele>
        <time>2022-12-11T17:04:35.502Z</time>
      </trkpt>
      <trkpt lat="48.22914" lon="-3.32241">
        <ele>250.885963</ele>
        <time>2022-12-11T17:04:42.496Z</time>
      </trkpt>
      <trkpt lat="48.22924" lon="-3.3224">
        <ele>251.322735</ele>
        <time>2022-12-11T17:04:50.515Z</time>
      </trkpt>
      <trkpt lat="48.22933" lon="-3.32239">
        <ele>251.754544</ele>
        <time>2022-12-11T17:04:58.503Z</time>
      </trkpt>
      <trkpt lat="48.22943" lon="-3.32237">
        <ele>252.208274</ele>
        <time>2022-12-11T17:05:14.504Z</time>
      </trkpt>
      <trkpt lat="48.22952" lon="-3.32234">
        <ele>252.613672</ele>
        <time>2022-12-11T17:05:21.503Z</time>
      </trkpt>
      <trkpt lat="48.22961" lon="-3.32231">
        <ele>253.022128</ele>
        <time>2022-12-11T17:05:28.539Z</time>
      </trkpt>
      <trkpt lat="48.22971" lon="-3.32227">
        <ele>253.485513</ele>
        <time>2022-12-11T17:05:36.521Z</time>
      </trkpt>
      <trkpt lat="48.2298" lon="-3.32224">
        <ele>253.892744</ele>
        <time>2022-12-11T17:05:43.508Z</time>
      </trkpt>
      <trkpt lat="48.22989" lon="-3.3222">
        <ele>254.328582</ele>
        <time>2022-12-11T17:05:51.507Z</time>
      </trkpt>
      <trkpt lat="48.22999" lon="-3.32217">
        <ele>254.754986</ele>
        <time>2022-12-11T17:05:58.509Z</time>
      </trkpt>
      <trkpt lat="48.23007" lon="-3.32212">
        <ele>255.163452</ele>
        <time>2022-12-11T17:06:05.502Z</time>
      </trkpt>
      <trkpt lat="48.23016" lon="-3.32208">
        <ele>255.584647</ele>
        <time>2022-12-11T17:06:12.504Z</time>
      </trkpt>
      <trkpt lat="48.23025" lon="-3.32204">
        <ele>256.008275</ele>
        <time>2022-12-11T17:06:19.505Z</time>
      </trkpt>
      <trkpt lat="48.23033" lon="-3.32196">
        <ele>256.438925</ele>
        <time>2022-12-11T17:06:29.508Z</time>
      </trkpt>
      <trkpt lat="48.23043" lon="-3.32194">
        <ele>256.830082</ele>
        <time>2022-12-11T17:06:37.500Z</time>
      </trkpt>
      <trkpt lat="48.23053" lon="-3.3219">
        <ele>256.651585</ele>
        <time>2022-12-11T17:06:45.519Z</time>
      </trkpt>
      <trkpt lat="48.23062" lon="-3.32187">
        <ele>256.487403</ele>
        <time>2022-12-11T17:06:52.497Z</time>
      </trkpt>
      <trkpt lat="48.23071" lon="-3.32186">
        <ele>256.320198</ele>
        <time>2022-12-11T17:06:59.509Z</time>
      </trkpt>
      <trkpt lat="48.2308" lon="-3.32185">
        <ele>256.152056</ele>
        <time>2022-12-11T17:07:07.512Z</time>
      </trkpt>
      <trkpt lat="48.23089" lon="-3.32188">
        <ele>255.984661</ele>
        <time>2022-12-11T17:07:24.501Z</time>
      </trkpt>
      <trkpt lat="48.231" lon="-3.32186">
        <ele>255.792381</ele>
        <time>2022-12-11T17:07:29.499Z</time>
      </trkpt>
      <trkpt lat="48.23111" lon="-3.32182">
        <ele>255.585921</ele>
        <time>2022-12-11T17:07:33.498Z</time>
      </trkpt>
      <trkpt lat="48.23122" lon="-3.32181">
        <ele>255.382401</ele>
        <time>2022-12-11T17:07:37.506Z</time>
      </trkpt>
      <trkpt lat="48.23133" lon="-3.32176">
        <ele>255.176716</ele>
        <time>2022-12-11T17:07:41.503Z</time>
      </trkpt>
      <trkpt lat="48.23142" lon="-3.32173">
        <ele>255.013976</ele>
        <time>2022-12-11T17:07:44.504Z</time>
      </trkpt>
      <trkpt lat="48.23153" lon="-3.32168">
        <ele>254.807332</ele>
        <time>2022-12-11T17:07:48.511Z</time>
      </trkpt>
      <trkpt lat="48.23161" lon="-3.32164">
        <ele>254.642213</ele>
        <time>2022-12-11T17:07:51.516Z</time>
      </trkpt>
      <trkpt lat="48.23171" lon="-3.32159">
        <ele>254.455198</ele>
        <time>2022-12-11T17:07:54.509Z</time>
      </trkpt>
      <trkpt lat="48.23181" lon="-3.32154">
        <ele>254.268943</ele>
        <time>2022-12-11T17:07:57.529Z</time>
      </trkpt>
      <trkpt lat="48.2319" lon="-3.32149">
        <ele>254.092451</ele>
        <time>2022-12-11T17:08:00.504Z</time>
      </trkpt>
      <trkpt lat="48.232" lon="-3.32142">
        <ele>253.897885</ele>
        <time>2022-12-11T17:08:03.508Z</time>
      </trkpt>
      <trkpt lat="48.2321" lon="-3.32133">
        <ele>253.680018</ele>
        <time>2022-12-11T17:08:06.500Z</time>
      </trkpt>
      <trkpt lat="48.23221" lon="-3.32123">
        <ele>253.395249</ele>
        <time>2022-12-11T17:08:09.505Z</time>
      </trkpt>
      <trkpt lat="48.23231" lon="-3.32111">
        <ele>253.064107</ele>
        <time>2022-12-11T17:08:12.506Z</time>
      </trkpt>
      <trkpt lat="48.23239" lon="-3.32102">
        <ele>252.809124</ele>
        <time>2022-12-11T17:08:14.505Z</time>
      </trkpt>
      <trkpt lat="48.23247" lon="-3.3209">
        <ele>252.532461</ele>
        <time>2022-12-11T17:08:16.498Z</time>
      </trkpt>
      <trkpt lat="48.23255" lon="-3.32076">
        <ele>252.211505</ele>
        <time>2022-12-11T17:08:18.505Z</time>
      </trkpt>
      <trkpt lat="48.23263" lon="-3.32062">
        <ele>251.901997</ele>
        <time>2022-12-11T17:08:20.506Z</time>
      </trkpt>
      <trkpt lat="48.23271" lon="-3.32048">
        <ele>251.58238</ele>
        <time>2022-12-11T17:08:22.523Z</time>
      </trkpt>
      <trkpt lat="48.2328" lon="-3.32034">
        <ele>251.264803</ele>
        <time>2022-12-11T17:08:24.567Z</time>
      </trkpt>
      <trkpt lat="48.23288" lon="-3.32018">
        <ele>250.93359</ele>
        <time>2022-12-11T17:08:26.510Z</time>
      </trkpt>
      <trkpt lat="48.23296" lon="-3.32004">
        <ele>250.615357</ele>
        <time>2022-12-11T17:08:28.508Z</time>
      </trkpt>
      <trkpt lat="48.23302" lon="-3.31991">
        <ele>250.338999</ele>
        <time>2022-12-11T17:08:30.518Z</time>
      </trkpt>
      <trkpt lat="48.23308" lon="-3.3198">
        <ele>250.103589</ele>
        <time>2022-12-11T17:08:32.500Z</time>
      </trkpt>
      <trkpt lat="48.23315" lon="-3.31967">
        <ele>249.830549</ele>
        <time>2022-12-11T17:08:35.544Z</time>
      </trkpt>
      <trkpt lat="48.23322" lon="-3.31956">
        <ele>249.562189</ele>
        <time>2022-12-11T17:08:39.502Z</time>
      </trkpt>
      <trkpt lat="48.23333" lon="-3.31955">
        <ele>249.299513</ele>
        <time>2022-12-11T17:08:43.501Z</time>
      </trkpt>
      <trkpt lat="48.23343" lon="-3.31947">
        <ele>249.056644</ele>
        <time>2022-12-11T17:08:47.506Z</time>
      </trkpt>
      <trkpt lat="48.23352" lon="-3.31943">
        <ele>249.340422</ele>
        <time>2022-12-11T17:08:50.495Z</time>
      </trkpt>
      <trkpt lat="48.23361" lon="-3.31938">
        <ele>249.627077</ele>
        <time>2022-12-11T17:08:53.506Z</time>
      </trkpt>
      <trkpt lat="48.2337" lon="-3.31934">
        <ele>249.921143</ele>
        <time>2022-12-11T17:08:56.515Z</time>
      </trkpt>
      <trkpt lat="48.2338" lon="-3.31932">
        <ele>250.220211</ele>
        <time>2022-12-11T17:08:59.505Z</time>
      </trkpt>
      <trkpt lat="48.2339" lon="-3.31932">
        <ele>250.521714</ele>
        <time>2022-12-11T17:09:02.568Z</time>
      </trkpt>
      <trkpt lat="48.234" lon="-3.31934">
        <ele>250.821713</ele>
        <time>2022-12-11T17:09:05.505Z</time>
      </trkpt>
      <trkpt lat="48.23409" lon="-3.31937">
        <ele>251.126717</ele>
        <time>2022-12-11T17:09:08.503Z</time>
      </trkpt>
      <trkpt lat="48.23419" lon="-3.3194">
        <ele>251.442855</ele>
        <time>2022-12-11T17:09:11.512Z</time>
      </trkpt>
      <trkpt lat="48.23429" lon="-3.31945">
        <ele>251.734634</ele>
        <time>2022-12-11T17:09:14.511Z</time>
      </trkpt>
      <trkpt lat="48.23437" lon="-3.3195">
        <ele>252.022911</ele>
        <time>2022-12-11T17:09:18.523Z</time>
      </trkpt>
      <trkpt lat="48.23447" lon="-3.31957">
        <ele>252.346179</ele>
        <time>2022-12-11T17:09:22.510Z</time>
      </trkpt>
      <trkpt lat="48.23457" lon="-3.31963">
        <ele>252.692627</ele>
        <time>2022-12-11T17:09:26.506Z</time>
      </trkpt>
      <trkpt lat="48.23467" lon="-3.31971">
        <ele>253.013778</ele>
        <time>2022-12-11T17:09:30.513Z</time>
      </trkpt>
      <trkpt lat="48.23476" lon="-3.31979">
        <ele>253.345135</ele>
        <time>2022-12-11T17:09:34.526Z</time>
      </trkpt>
      <trkpt lat="48.23486" lon="-3.31983">
        <ele>253.657892</ele>
        <time>2022-12-11T17:09:38.504Z</time>
      </trkpt>
      <trkpt lat="48.23497" lon="-3.31985">
        <ele>253.999717</ele>
        <time>2022-12-11T17:09:42.500Z</time>
      </trkpt>
      <trkpt lat="48.23508" lon="-3.31985">
        <ele>254.325577</ele>
        <time>2022-12-11T17:09:46.506Z</time>
      </trkpt>
      <trkpt lat="48.23518" lon="-3.31984">
        <ele>254.505266</ele>
        <time>2022-12-11T17:09:50.505Z</time>
      </trkpt>
      <trkpt lat="48.23527" lon="-3.31978">
        <ele>254.505266</ele>
        <time>2022-12-11T17:09:54.514Z</time>
      </trkpt>
      <trkpt lat="48.23537" lon="-3.31974">
        <ele>254.505266</ele>
        <time>2022-12-11T17:09:58.519Z</time>
      </trkpt>
      <trkpt lat="48.23545" lon="-3.31969">
        <ele>254.505266</ele>
        <time>2022-12-11T17:10:02.502Z</time>
      </trkpt>
      <trkpt lat="48.23554" lon="-3.31965">
        <ele>254.505266</ele>
        <time>2022-12-11T17:10:06.499Z</time>
      </trkpt>
      <trkpt lat="48.23563" lon="-3.31959">
        <ele>254.505266</ele>
        <time>2022-12-11T17:10:10.526Z</time>
      </trkpt>
      <trkpt lat="48.23571" lon="-3.31954">
        <ele>254.505266</ele>
        <time>2022-12-11T17:10:15.512Z</time>
      </trkpt>
      <trkpt lat="48.23579" lon="-3.31941">
        <ele>254.505266</ele>
        <time>2022-12-11T17:10:21.502Z</time>
      </trkpt>
      <trkpt lat="48.23581" lon="-3.31928">
        <ele>254.505266</ele>
        <time>2022-12-11T17:10:25.508Z</time>
      </trkpt>
      <trkpt lat="48.23584" lon="-3.31915">
        <ele>254.505266</ele>
        <time>2022-12-11T17:11:00.506Z</time>
      </trkpt>
      <trkpt lat="48.23592" lon="-3.31917">
        <ele>254.505266</ele>
        <time>2022-12-11T17:11:51.739Z</time>
        <extensions>
          <visugpx:TrkExtension xmlns:visugpx="https://www.visugpx.com/editgpx/">
            <visugpx:node>1</visugpx:node>
            </visugpx:TrkExtension>
        </extensions>
      </trkpt>
    </trkseg>
  </trk>
  <trk>
    <name><![CDATA[Rostrenen - Pontivy]]></name>
    <extensions>
      <line xmlns="http://www.topografix.com/GPX/gpx_style/0/2">
        <color>ff0000</color>
        <width>4</width>
      </line>
    </extensions>
    <trkseg>
      <trkpt lat="48.23285" lon="-3.3167">
        <ele>268.65934</ele>
        <time>2022-12-12T11:08:17.764Z</time>
      </trkpt>
      <trkpt lat="48.23295" lon="-3.31663">
        <ele>268.65934</ele>
        <time>2022-12-12T11:09:46.751Z</time>
      </trkpt>
      <trkpt lat="48.23305" lon="-3.31665">
        <ele>268.65934</ele>
        <time>2022-12-12T11:09:49.753Z</time>
      </trkpt>
      <trkpt lat="48.23316" lon="-3.31664">
        <ele>268.65934</ele>
        <time>2022-12-12T11:09:52.765Z</time>
      </trkpt>
      <trkpt lat="48.23328" lon="-3.31662">
        <ele>268.65934</ele>
        <time>2022-12-12T11:09:55.751Z</time>
      </trkpt>
      <trkpt lat="48.23339" lon="-3.31656">
        <ele>268.65934</ele>
        <time>2022-12-12T11:09:58.746Z</time>
      </trkpt>
      <trkpt lat="48.23348" lon="-3.31648">
        <ele>268.65934</ele>
        <time>2022-12-12T11:10:01.747Z</time>
      </trkpt>
      <trkpt lat="48.23358" lon="-3.31642">
        <ele>268.65934</ele>
        <time>2022-12-12T11:10:04.765Z</time>
      </trkpt>
      <trkpt lat="48.23367" lon="-3.31637">
        <ele>268.65934</ele>
        <time>2022-12-12T11:10:07.754Z</time>
      </trkpt>
      <trkpt lat="48.23379" lon="-3.31632">
        <ele>268.472169</ele>
        <time>2022-12-12T11:10:10.764Z</time>
      </trkpt>
      <trkpt lat="48.23388" lon="-3.31632">
        <ele>268.251227</ele>
        <time>2022-12-12T11:10:12.743Z</time>
      </trkpt>
      <trkpt lat="48.23398" lon="-3.31635">
        <ele>268.033245</ele>
        <time>2022-12-12T11:10:14.749Z</time>
      </trkpt>
      <trkpt lat="48.23408" lon="-3.31639">
        <ele>267.794122</ele>
        <time>2022-12-12T11:10:16.754Z</time>
      </trkpt>
      <trkpt lat="48.23419" lon="-3.31643">
        <ele>267.546573</ele>
        <time>2022-12-12T11:10:18.754Z</time>
      </trkpt>
      <trkpt lat="48.23428" lon="-3.31648">
        <ele>267.324946</ele>
        <time>2022-12-12T11:10:20.763Z</time>
      </trkpt>
      <trkpt lat="48.23437" lon="-3.31654">
        <ele>267.11228</ele>
        <time>2022-12-12T11:10:22.762Z</time>
      </trkpt>
      <trkpt lat="48.23446" lon="-3.31656">
        <ele>266.898726</ele>
        <time>2022-12-12T11:10:24.761Z</time>
      </trkpt>
      <trkpt lat="48.23455" lon="-3.31658">
        <ele>266.694574</ele>
        <time>2022-12-12T11:10:26.764Z</time>
      </trkpt>
      <trkpt lat="48.23468" lon="-3.31662">
        <ele>266.406739</ele>
        <time>2022-12-12T11:10:29.760Z</time>
      </trkpt>
      <trkpt lat="48.2348" lon="-3.31667">
        <ele>266.119449</ele>
        <time>2022-12-12T11:10:32.748Z</time>
      </trkpt>
      <trkpt lat="48.23491" lon="-3.31671">
        <ele>265.853649</ele>
        <time>2022-12-12T11:10:35.745Z</time>
      </trkpt>
      <trkpt lat="48.23501" lon="-3.31675">
        <ele>265.620007</ele>
        <time>2022-12-12T11:10:38.764Z</time>
      </trkpt>
      <trkpt lat="48.23511" lon="-3.31681">
        <ele>265.380416</ele>
        <time>2022-12-12T11:10:43.757Z</time>
      </trkpt>
      <trkpt lat="48.23521" lon="-3.31684">
        <ele>265.168166</ele>
        <time>2022-12-12T11:10:48.754Z</time>
      </trkpt>
      <trkpt lat="48.2353" lon="-3.31689">
        <ele>264.941208</ele>
        <time>2022-12-12T11:10:53.763Z</time>
      </trkpt>
      <trkpt lat="48.2354" lon="-3.31692">
        <ele>264.706281</ele>
        <time>2022-12-12T11:10:58.747Z</time>
      </trkpt>
      <trkpt lat="48.2355" lon="-3.31696">
        <ele>264.600138</ele>
        <time>2022-12-12T11:11:03.753Z</time>
      </trkpt>
      <trkpt lat="48.2356" lon="-3.31702">
        <ele>264.591868</ele>
        <time>2022-12-12T11:11:08.754Z</time>
      </trkpt>
      <trkpt lat="48.23569" lon="-3.31707">
        <ele>264.584748</ele>
        <time>2022-12-12T11:11:12.762Z</time>
      </trkpt>
      <trkpt lat="48.23576" lon="-3.31717">
        <ele>264.577894</ele>
        <time>2022-12-12T11:11:19.752Z</time>
      </trkpt>
      <trkpt lat="48.23582" lon="-3.31728">
        <ele>264.570831</ele>
        <time>2022-12-12T11:11:25.748Z</time>
      </trkpt>
      <trkpt lat="48.23589" lon="-3.31736">
        <ele>264.564078</ele>
        <time>2022-12-12T11:11:29.750Z</time>
      </trkpt>
      <trkpt lat="48.23598" lon="-3.31746">
        <ele>264.556019</ele>
        <time>2022-12-12T11:11:34.748Z</time>
      </trkpt>
      <trkpt lat="48.236" lon="-3.31761">
        <ele>264.548587</ele>
        <time>2022-12-12T11:11:41.746Z</time>
      </trkpt>
      <trkpt lat="48.23596" lon="-3.31773">
        <ele>264.54164</ele>
        <time>2022-12-12T11:11:45.745Z</time>
      </trkpt>
      <trkpt lat="48.23596" lon="-3.31788">
        <ele>264.534427</ele>
        <time>2022-12-12T11:11:49.753Z</time>
      </trkpt>
      <trkpt lat="48.23598" lon="-3.31803">
        <ele>264.526743</ele>
        <time>2022-12-12T11:11:52.763Z</time>
      </trkpt>
      <trkpt lat="48.236" lon="-3.31821">
        <ele>264.517806</ele>
        <time>2022-12-12T11:11:56.765Z</time>
      </trkpt>
      <trkpt lat="48.23597" lon="-3.31838">
        <ele>264.509101</ele>
        <time>2022-12-12T11:11:59.748Z</time>
      </trkpt>
      <trkpt lat="48.23594" lon="-3.31854">
        <ele>264.500782</ele>
        <time>2022-12-12T11:12:02.762Z</time>
      </trkpt>
      <trkpt lat="48.23592" lon="-3.31869">
        <ele>264.493476</ele>
        <time>2022-12-12T11:12:05.763Z</time>
      </trkpt>
      <trkpt lat="48.2359" lon="-3.31882">
        <ele>264.486496</ele>
        <time>2022-12-12T11:12:08.765Z</time>
      </trkpt>
      <trkpt lat="48.23589" lon="-3.31901">
        <ele>264.477239</ele>
        <time>2022-12-12T11:12:12.764Z</time>
      </trkpt>
      <trkpt lat="48.23587" lon="-3.3192">
        <ele>264.34346</ele>
        <time>2022-12-12T11:12:15.763Z</time>
      </trkpt>
      <trkpt lat="48.23583" lon="-3.31937">
        <ele>263.929798</ele>
        <time>2022-12-12T11:12:18.763Z</time>
      </trkpt>
      <trkpt lat="48.23578" lon="-3.31951">
        <ele>263.553257</ele>
        <time>2022-12-12T11:12:21.747Z</time>
      </trkpt>
      <trkpt lat="48.23572" lon="-3.31961">
        <ele>263.22415</ele>
        <time>2022-12-12T11:12:24.750Z</time>
      </trkpt>
      <trkpt lat="48.23564" lon="-3.31968">
        <ele>262.910277</ele>
        <time>2022-12-12T11:12:27.751Z</time>
      </trkpt>
      <trkpt lat="48.23554" lon="-3.31974">
        <ele>262.544073</ele>
        <time>2022-12-12T11:12:30.749Z</time>
      </trkpt>
      <trkpt lat="48.23544" lon="-3.31978">
        <ele>262.152379</ele>
        <time>2022-12-12T11:12:33.749Z</time>
      </trkpt>
      <trkpt lat="48.23533" lon="-3.31984">
        <ele>261.764641</ele>
        <time>2022-12-12T11:12:36.751Z</time>
      </trkpt>
      <trkpt lat="48.23522" lon="-3.31989">
        <ele>261.336691</ele>
        <time>2022-12-12T11:12:39.767Z</time>
      </trkpt>
      <trkpt lat="48.23509" lon="-3.31992">
        <ele>260.897065</ele>
        <time>2022-12-12T11:12:42.750Z</time>
      </trkpt>
      <trkpt lat="48.23497" lon="-3.31992">
        <ele>260.459439</ele>
        <time>2022-12-12T11:12:45.746Z</time>
      </trkpt>
      <trkpt lat="48.23485" lon="-3.31988">
        <ele>260.028674</ele>
        <time>2022-12-12T11:12:48.754Z</time>
      </trkpt>
      <trkpt lat="48.23473" lon="-3.31981">
        <ele>259.582841</ele>
        <time>2022-12-12T11:12:51.745Z</time>
      </trkpt>
      <trkpt lat="48.23461" lon="-3.31973">
        <ele>259.129655</ele>
        <time>2022-12-12T11:12:54.762Z</time>
      </trkpt>
      <trkpt lat="48.2345" lon="-3.31963">
        <ele>258.667953</ele>
        <time>2022-12-12T11:12:57.765Z</time>
      </trkpt>
      <trkpt lat="48.23439" lon="-3.31955">
        <ele>258.248268</ele>
        <time>2022-12-12T11:13:00.765Z</time>
      </trkpt>
      <trkpt lat="48.23427" lon="-3.31949">
        <ele>258.0541</ele>
        <time>2022-12-12T11:13:03.747Z</time>
      </trkpt>
      <trkpt lat="48.23415" lon="-3.31943">
        <ele>257.897959</ele>
        <time>2022-12-12T11:13:06.763Z</time>
      </trkpt>
      <trkpt lat="48.23403" lon="-3.31939">
        <ele>257.748749</ele>
        <time>2022-12-12T11:13:09.751Z</time>
      </trkpt>
      <trkpt lat="48.23391" lon="-3.31938">
        <ele>257.605627</ele>
        <time>2022-12-12T11:13:12.765Z</time>
      </trkpt>
      <trkpt lat="48.23379" lon="-3.31939">
        <ele>257.459194</ele>
        <time>2022-12-12T11:13:15.753Z</time>
      </trkpt>
      <trkpt lat="48.23366" lon="-3.31941">
        <ele>257.307072</ele>
        <time>2022-12-12T11:13:18.759Z</time>
      </trkpt>
      <trkpt lat="48.23354" lon="-3.31948">
        <ele>257.152506</ele>
        <time>2022-12-12T11:13:21.767Z</time>
      </trkpt>
      <trkpt lat="48.23342" lon="-3.31956">
        <ele>256.992398</ele>
        <time>2022-12-12T11:13:24.748Z</time>
      </trkpt>
      <trkpt lat="48.2333" lon="-3.31966">
        <ele>256.834158</ele>
        <time>2022-12-12T11:13:27.746Z</time>
      </trkpt>
      <trkpt lat="48.2332" lon="-3.31977">
        <ele>256.681756</ele>
        <time>2022-12-12T11:13:30.754Z</time>
      </trkpt>
      <trkpt lat="48.23312" lon="-3.31989">
        <ele>256.54711</ele>
        <time>2022-12-12T11:13:33.755Z</time>
      </trkpt>
      <trkpt lat="48.23305" lon="-3.31999">
        <ele>256.430691</ele>
        <time>2022-12-12T11:13:36.747Z</time>
      </trkpt>
      <trkpt lat="48.23299" lon="-3.32011">
        <ele>256.311313</ele>
        <time>2022-12-12T11:13:39.766Z</time>
      </trkpt>
      <trkpt lat="48.23292" lon="-3.32022">
        <ele>256.190733</ele>
        <time>2022-12-12T11:13:42.765Z</time>
      </trkpt>
      <trkpt lat="48.23285" lon="-3.32034">
        <ele>256.069108</ele>
        <time>2022-12-12T11:13:45.764Z</time>
      </trkpt>
      <trkpt lat="48.23279" lon="-3.32044">
        <ele>256.161832</ele>
        <time>2022-12-12T11:13:48.764Z</time>
      </trkpt>
      <trkpt lat="48.23272" lon="-3.32058">
        <ele>256.507093</ele>
        <time>2022-12-12T11:13:52.763Z</time>
      </trkpt>
      <trkpt lat="48.23265" lon="-3.32071">
        <ele>256.841538</ele>
        <time>2022-12-12T11:13:56.766Z</time>
      </trkpt>
      <trkpt lat="48.23257" lon="-3.32084">
        <ele>257.16044</ele>
        <time>2022-12-12T11:14:00.759Z</time>
      </trkpt>
      <trkpt lat="48.2325" lon="-3.32096">
        <ele>257.479525</ele>
        <time>2022-12-12T11:14:04.748Z</time>
      </trkpt>
      <trkpt lat="48.23242" lon="-3.32107">
        <ele>257.790458</ele>
        <time>2022-12-12T11:14:08.763Z</time>
      </trkpt>
      <trkpt lat="48.23234" lon="-3.32118">
        <ele>258.103867</ele>
        <time>2022-12-12T11:14:12.765Z</time>
      </trkpt>
      <trkpt lat="48.23225" lon="-3.32127">
        <ele>258.427386</ele>
        <time>2022-12-12T11:14:16.765Z</time>
      </trkpt>
      <trkpt lat="48.23216" lon="-3.32136">
        <ele>258.738317</ele>
        <time>2022-12-12T11:14:20.761Z</time>
      </trkpt>
      <trkpt lat="48.23206" lon="-3.32144">
        <ele>259.045696</ele>
        <time>2022-12-12T11:14:24.766Z</time>
      </trkpt>
      <trkpt lat="48.23196" lon="-3.32151">
        <ele>259.376659</ele>
        <time>2022-12-12T11:14:28.765Z</time>
      </trkpt>
      <trkpt lat="48.23187" lon="-3.32157">
        <ele>259.656539</ele>
        <time>2022-12-12T11:14:31.773Z</time>
      </trkpt>
      <trkpt lat="48.23178" lon="-3.32162">
        <ele>259.941078</ele>
        <time>2022-12-12T11:14:34.762Z</time>
      </trkpt>
      <trkpt lat="48.23166" lon="-3.32168">
        <ele>260.28782</ele>
        <time>2022-12-12T11:14:38.765Z</time>
      </trkpt>
      <trkpt lat="48.23157" lon="-3.32172">
        <ele>260.557263</ele>
        <time>2022-12-12T11:14:41.765Z</time>
      </trkpt>
      <trkpt lat="48.23148" lon="-3.32176">
        <ele>260.841577</ele>
        <time>2022-12-12T11:14:44.767Z</time>
      </trkpt>
      <trkpt lat="48.23138" lon="-3.3218">
        <ele>261.128748</ele>
        <time>2022-12-12T11:14:47.768Z</time>
      </trkpt>
      <trkpt lat="48.23127" lon="-3.32185">
        <ele>260.95645</ele>
        <time>2022-12-12T11:14:51.761Z</time>
      </trkpt>
      <trkpt lat="48.23118" lon="-3.32187">
        <ele>260.682848</ele>
        <time>2022-12-12T11:14:54.755Z</time>
      </trkpt>
      <trkpt lat="48.23108" lon="-3.32189">
        <ele>260.404106</ele>
        <time>2022-12-12T11:14:57.755Z</time>
      </trkpt>
      <trkpt lat="48.23099" lon="-3.32192">
        <ele>260.118733</ele>
        <time>2022-12-12T11:15:00.767Z</time>
      </trkpt>
      <trkpt lat="48.23089" lon="-3.32194">
        <ele>259.828763</ele>
        <time>2022-12-12T11:15:03.761Z</time>
      </trkpt>
      <trkpt lat="48.23079" lon="-3.32196">
        <ele>259.55317</ele>
        <time>2022-12-12T11:15:06.763Z</time>
      </trkpt>
      <trkpt lat="48.2307" lon="-3.32198">
        <ele>259.28177</ele>
        <time>2022-12-12T11:15:09.762Z</time>
      </trkpt>
      <trkpt lat="48.2306" lon="-3.32201">
        <ele>258.997001</ele>
        <time>2022-12-12T11:15:12.763Z</time>
      </trkpt>
      <trkpt lat="48.2305" lon="-3.32203">
        <ele>258.687765</ele>
        <time>2022-12-12T11:15:15.749Z</time>
      </trkpt>
      <trkpt lat="48.23038" lon="-3.32206">
        <ele>258.345398</ele>
        <time>2022-12-12T11:15:18.774Z</time>
      </trkpt>
      <trkpt lat="48.23027" lon="-3.32211">
        <ele>257.993818</ele>
        <time>2022-12-12T11:15:21.749Z</time>
      </trkpt>
      <trkpt lat="48.23015" lon="-3.32217">
        <ele>257.630165</ele>
        <time>2022-12-12T11:15:24.767Z</time>
      </trkpt>
      <trkpt lat="48.23003" lon="-3.32223">
        <ele>257.260495</ele>
        <time>2022-12-12T11:15:27.773Z</time>
      </trkpt>
      <trkpt lat="48.2299" lon="-3.3223">
        <ele>256.883396</ele>
        <time>2022-12-12T11:15:30.765Z</time>
      </trkpt>
      <trkpt lat="48.22982" lon="-3.32233">
        <ele>256.621431</ele>
        <time>2022-12-12T11:15:32.764Z</time>
      </trkpt>
      <trkpt lat="48.22973" lon="-3.32237">
        <ele>256.342852</ele>
        <time>2022-12-12T11:15:34.778Z</time>
      </trkpt>
      <trkpt lat="48.2296" lon="-3.32241">
        <ele>255.941086</ele>
        <time>2022-12-12T11:15:37.770Z</time>
      </trkpt>
      <trkpt lat="48.22946" lon="-3.32245">
        <ele>255.361195</ele>
        <time>2022-12-12T11:15:40.784Z</time>
      </trkpt>
      <trkpt lat="48.22937" lon="-3.32247">
        <ele>254.969458</ele>
        <time>2022-12-12T11:15:42.750Z</time>
      </trkpt>
      <trkpt lat="48.22924" lon="-3.32249">
        <ele>254.387215</ele>
        <time>2022-12-12T11:15:45.766Z</time>
      </trkpt>
      <trkpt lat="48.22914" lon="-3.32251">
        <ele>253.962484</ele>
        <time>2022-12-12T11:15:47.768Z</time>
      </trkpt>
      <trkpt lat="48.22905" lon="-3.32253">
        <ele>253.557914</ele>
        <time>2022-12-12T11:15:49.766Z</time>
      </trkpt>
      <trkpt lat="48.22896" lon="-3.32253">
        <ele>253.155832</ele>
        <time>2022-12-12T11:15:51.772Z</time>
      </trkpt>
      <trkpt lat="48.22886" lon="-3.32255">
        <ele>252.752571</ele>
        <time>2022-12-12T11:15:53.749Z</time>
      </trkpt>
      <trkpt lat="48.22877" lon="-3.32257">
        <ele>252.33516</ele>
        <time>2022-12-12T11:15:55.756Z</time>
      </trkpt>
      <trkpt lat="48.22867" lon="-3.32258">
        <ele>251.919535</ele>
        <time>2022-12-12T11:15:57.752Z</time>
      </trkpt>
      <trkpt lat="48.22857" lon="-3.32259">
        <ele>251.48731</ele>
        <time>2022-12-12T11:15:59.769Z</time>
      </trkpt>
      <trkpt lat="48.22846" lon="-3.3226">
        <ele>251.028206</ele>
        <time>2022-12-12T11:16:01.766Z</time>
      </trkpt>
      <trkpt lat="48.22836" lon="-3.32262">
        <ele>250.575457</ele>
        <time>2022-12-12T11:16:03.767Z</time>
      </trkpt>
      <trkpt lat="48.22826" lon="-3.32264">
        <ele>250.127361</ele>
        <time>2022-12-12T11:16:05.763Z</time>
      </trkpt>
      <trkpt lat="48.22815" lon="-3.32266">
        <ele>249.659405</ele>
        <time>2022-12-12T11:16:07.768Z</time>
      </trkpt>
      <trkpt lat="48.22804" lon="-3.32267">
        <ele>249.191175</ele>
        <time>2022-12-12T11:16:09.762Z</time>
      </trkpt>
      <trkpt lat="48.22793" lon="-3.32269">
        <ele>248.700587</ele>
        <time>2022-12-12T11:16:11.765Z</time>
      </trkpt>
      <trkpt lat="48.22782" lon="-3.32271">
        <ele>248.198201</ele>
        <time>2022-12-12T11:16:13.769Z</time>
      </trkpt>
      <trkpt lat="48.2277" lon="-3.32273">
        <ele>247.409054</ele>
        <time>2022-12-12T11:16:15.759Z</time>
      </trkpt>
      <trkpt lat="48.22759" lon="-3.32275">
        <ele>246.611822</ele>
        <time>2022-12-12T11:16:17.748Z</time>
      </trkpt>
      <trkpt lat="48.22748" lon="-3.32276">
        <ele>245.84322</ele>
        <time>2022-12-12T11:16:19.761Z</time>
      </trkpt>
      <trkpt lat="48.22737" lon="-3.32278">
        <ele>245.063655</ele>
        <time>2022-12-12T11:16:21.763Z</time>
      </trkpt>
      <trkpt lat="48.22727" lon="-3.32279">
        <ele>244.317669</ele>
        <time>2022-12-12T11:16:23.771Z</time>
      </trkpt>
      <trkpt lat="48.22717" lon="-3.32281">
        <ele>243.584716</ele>
        <time>2022-12-12T11:16:25.764Z</time>
      </trkpt>
      <trkpt lat="48.22707" lon="-3.32283">
        <ele>242.863339</ele>
        <time>2022-12-12T11:16:27.764Z</time>
      </trkpt>
      <trkpt lat="48.22696" lon="-3.32285">
        <ele>242.094737</ele>
        <time>2022-12-12T11:16:29.763Z</time>
      </trkpt>
      <trkpt lat="48.22685" lon="-3.32286">
        <ele>241.323587</ele>
        <time>2022-12-12T11:16:31.770Z</time>
      </trkpt>
      <trkpt lat="48.22674" lon="-3.32288">
        <ele>240.554985</ele>
        <time>2022-12-12T11:16:33.760Z</time>
      </trkpt>
      <trkpt lat="48.22663" lon="-3.32289">
        <ele>239.759757</ele>
        <time>2022-12-12T11:16:35.762Z</time>
      </trkpt>
      <trkpt lat="48.22652" lon="-3.32291">
        <ele>238.97061</ele>
        <time>2022-12-12T11:16:37.765Z</time>
      </trkpt>
      <trkpt lat="48.22641" lon="-3.32292">
        <ele>238.183643</ele>
        <time>2022-12-12T11:16:39.772Z</time>
      </trkpt>
      <trkpt lat="48.2263" lon="-3.32295">
        <ele>237.406264</ele>
        <time>2022-12-12T11:16:41.747Z</time>
      </trkpt>
      <trkpt lat="48.22619" lon="-3.32296">
        <ele>236.62596</ele>
        <time>2022-12-12T11:16:43.764Z</time>
      </trkpt>
      <trkpt lat="48.22607" lon="-3.32298">
        <ele>235.822756</ele>
        <time>2022-12-12T11:16:45.748Z</time>
      </trkpt>
      <trkpt lat="48.22597" lon="-3.32299">
        <ele>235.216469</ele>
        <time>2022-12-12T11:16:47.762Z</time>
      </trkpt>
      <trkpt lat="48.22585" lon="-3.32301">
        <ele>234.670664</ele>
        <time>2022-12-12T11:16:49.759Z</time>
      </trkpt>
      <trkpt lat="48.22573" lon="-3.32303">
        <ele>234.096695</ele>
        <time>2022-12-12T11:16:51.764Z</time>
      </trkpt>
      <trkpt lat="48.22562" lon="-3.32304">
        <ele>233.560681</ele>
        <time>2022-12-12T11:16:53.765Z</time>
      </trkpt>
      <trkpt lat="48.22551" lon="-3.32306">
        <ele>233.013852</ele>
        <time>2022-12-12T11:16:55.765Z</time>
      </trkpt>
      <trkpt lat="48.2254" lon="-3.32308">
        <ele>232.487619</ele>
        <time>2022-12-12T11:16:57.765Z</time>
      </trkpt>
      <trkpt lat="48.22529" lon="-3.32309">
        <ele>231.951605</ele>
        <time>2022-12-12T11:16:59.765Z</time>
      </trkpt>
      <trkpt lat="48.22518" lon="-3.32312">
        <ele>231.42057</ele>
        <time>2022-12-12T11:17:01.764Z</time>
      </trkpt>
      <trkpt lat="48.22507" lon="-3.32313">
        <ele>230.919673</ele>
        <time>2022-12-12T11:17:03.763Z</time>
      </trkpt>
      <trkpt lat="48.22496" lon="-3.32314">
        <ele>230.399394</ele>
        <time>2022-12-12T11:17:05.764Z</time>
      </trkpt>
      <trkpt lat="48.22485" lon="-3.32315">
        <ele>229.860269</ele>
        <time>2022-12-12T11:17:07.762Z</time>
      </trkpt>
      <trkpt lat="48.22472" lon="-3.32317">
        <ele>229.261356</ele>
        <time>2022-12-12T11:17:09.769Z</time>
      </trkpt>
      <trkpt lat="48.2246" lon="-3.32318">
        <ele>228.663917</ele>
        <time>2022-12-12T11:17:11.765Z</time>
      </trkpt>
      <trkpt lat="48.22448" lon="-3.32321">
        <ele>228.091437</ele>
        <time>2022-12-12T11:17:13.764Z</time>
      </trkpt>
      <trkpt lat="48.22435" lon="-3.32323">
        <ele>227.472138</ele>
        <time>2022-12-12T11:17:15.767Z</time>
      </trkpt>
      <trkpt lat="48.22422" lon="-3.32325">
        <ele>226.889053</ele>
        <time>2022-12-12T11:17:17.767Z</time>
      </trkpt>
      <trkpt lat="48.22409" lon="-3.32327">
        <ele>226.441554</ele>
        <time>2022-12-12T11:17:19.764Z</time>
      </trkpt>
      <trkpt lat="48.22396" lon="-3.32329">
        <ele>226.002092</ele>
        <time>2022-12-12T11:17:21.748Z</time>
      </trkpt>
      <trkpt lat="48.22384" lon="-3.32331">
        <ele>225.594755</ele>
        <time>2022-12-12T11:17:23.761Z</time>
      </trkpt>
      <trkpt lat="48.22372" lon="-3.32332">
        <ele>225.192322</ele>
        <time>2022-12-12T11:17:25.765Z</time>
      </trkpt>
      <trkpt lat="48.22359" lon="-3.32333">
        <ele>224.769001</ele>
        <time>2022-12-12T11:17:27.766Z</time>
      </trkpt>
      <trkpt lat="48.22347" lon="-3.32335">
        <ele>224.366247</ele>
        <time>2022-12-12T11:17:29.779Z</time>
      </trkpt>
      <trkpt lat="48.22335" lon="-3.32335">
        <ele>223.947919</ele>
        <time>2022-12-12T11:17:31.767Z</time>
      </trkpt>
      <trkpt lat="48.22322" lon="-3.32335">
        <ele>223.522952</ele>
        <time>2022-12-12T11:17:33.769Z</time>
      </trkpt>
      <trkpt lat="48.2231" lon="-3.32335">
        <ele>223.111346</ele>
        <time>2022-12-12T11:17:35.771Z</time>
      </trkpt>
      <trkpt lat="48.22297" lon="-3.32334">
        <ele>222.696268</ele>
        <time>2022-12-12T11:17:37.778Z</time>
      </trkpt>
      <trkpt lat="48.22285" lon="-3.32332">
        <ele>222.278708</ele>
        <time>2022-12-12T11:17:39.748Z</time>
      </trkpt>
      <trkpt lat="48.22272" lon="-3.3233">
        <ele>221.844517</ele>
        <time>2022-12-12T11:17:41.763Z</time>
      </trkpt>
      <trkpt lat="48.22261" lon="-3.32328">
        <ele>221.45738</ele>
        <time>2022-12-12T11:17:43.766Z</time>
      </trkpt>
      <trkpt lat="48.2225" lon="-3.32326">
        <ele>221.093937</ele>
        <time>2022-12-12T11:17:45.769Z</time>
      </trkpt>
      <trkpt lat="48.2224" lon="-3.32321">
        <ele>220.853884</ele>
        <time>2022-12-12T11:17:47.767Z</time>
      </trkpt>
      <trkpt lat="48.22229" lon="-3.32317">
        <ele>220.701144</ele>
        <time>2022-12-12T11:17:49.767Z</time>
      </trkpt>
      <trkpt lat="48.22218" lon="-3.32314">
        <ele>220.549382</ele>
        <time>2022-12-12T11:17:51.773Z</time>
      </trkpt>
      <trkpt lat="48.22206" lon="-3.32309">
        <ele>220.391499</ele>
        <time>2022-12-12T11:17:53.781Z</time>
      </trkpt>
      <trkpt lat="48.22195" lon="-3.32305">
        <ele>220.241145</ele>
        <time>2022-12-12T11:17:55.774Z</time>
      </trkpt>
      <trkpt lat="48.22184" lon="-3.32299">
        <ele>220.086704</ele>
        <time>2022-12-12T11:17:57.769Z</time>
      </trkpt>
      <trkpt lat="48.22174" lon="-3.32295">
        <ele>219.941757</ele>
        <time>2022-12-12T11:17:59.754Z</time>
      </trkpt>
      <trkpt lat="48.22163" lon="-3.3229">
        <ele>219.790497</ele>
        <time>2022-12-12T11:18:01.766Z</time>
      </trkpt>
      <trkpt lat="48.22154" lon="-3.32287">
        <ele>219.662834</ele>
        <time>2022-12-12T11:18:03.765Z</time>
      </trkpt>
      <trkpt lat="48.22145" lon="-3.32283">
        <ele>219.541263</ele>
        <time>2022-12-12T11:18:05.768Z</time>
      </trkpt>
      <trkpt lat="48.22134" lon="-3.32278">
        <ele>219.38876</ele>
        <time>2022-12-12T11:18:08.762Z</time>
      </trkpt>
      <trkpt lat="48.22123" lon="-3.32274">
        <ele>219.228203</ele>
        <time>2022-12-12T11:18:11.748Z</time>
      </trkpt>
      <trkpt lat="48.2211" lon="-3.32269">
        <ele>219.056635</ele>
        <time>2022-12-12T11:18:14.763Z</time>
      </trkpt>
      <trkpt lat="48.22097" lon="-3.32264">
        <ele>218.880528</ele>
        <time>2022-12-12T11:18:17.763Z</time>
      </trkpt>
      <trkpt lat="48.22084" lon="-3.3226">
        <ele>218.702602</ele>
        <time>2022-12-12T11:18:20.760Z</time>
      </trkpt>
      <trkpt lat="48.22071" lon="-3.32255">
        <ele>218.52374</ele>
        <time>2022-12-12T11:18:23.760Z</time>
      </trkpt>
      <trkpt lat="48.22058" lon="-3.32251">
        <ele>218.561556</ele>
        <time>2022-12-12T11:18:26.749Z</time>
      </trkpt>
      <trkpt lat="48.22045" lon="-3.32248">
        <ele>218.599121</ele>
        <time>2022-12-12T11:18:29.751Z</time>
      </trkpt>
      <trkpt lat="48.22032" lon="-3.32245">
        <ele>218.636214</ele>
        <time>2022-12-12T11:18:32.755Z</time>
      </trkpt>
      <trkpt lat="48.22019" lon="-3.32243">
        <ele>218.673588</ele>
        <time>2022-12-12T11:18:35.766Z</time>
      </trkpt>
      <trkpt lat="48.2201" lon="-3.32242">
        <ele>218.699448</ele>
        <time>2022-12-12T11:18:37.763Z</time>
      </trkpt>
      <trkpt lat="48.21997" lon="-3.32241">
        <ele>218.736423</ele>
        <time>2022-12-12T11:18:40.766Z</time>
      </trkpt>
      <trkpt lat="48.21984" lon="-3.3224">
        <ele>218.773077</ele>
        <time>2022-12-12T11:18:43.769Z</time>
      </trkpt>
      <trkpt lat="48.21971" lon="-3.3224">
        <ele>218.809675</ele>
        <time>2022-12-12T11:18:46.775Z</time>
      </trkpt>
      <trkpt lat="48.21958" lon="-3.32241">
        <ele>218.846887</ele>
        <time>2022-12-12T11:18:49.767Z</time>
      </trkpt>
      <trkpt lat="48.21945" lon="-3.32242">
        <ele>218.88389</ele>
        <time>2022-12-12T11:18:52.768Z</time>
      </trkpt>
      <trkpt lat="48.21936" lon="-3.32243">
        <ele>218.90975</ele>
        <time>2022-12-12T11:18:54.775Z</time>
      </trkpt>
      <trkpt lat="48.21923" lon="-3.32245">
        <ele>218.946753</ele>
        <time>2022-12-12T11:18:57.766Z</time>
      </trkpt>
      <trkpt lat="48.2191" lon="-3.32247">
        <ele>218.984654</ele>
        <time>2022-12-12T11:19:00.766Z</time>
      </trkpt>
      <trkpt lat="48.21901" lon="-3.32248">
        <ele>219.010539</ele>
        <time>2022-12-12T11:19:02.773Z</time>
      </trkpt>
      <trkpt lat="48.21888" lon="-3.32249">
        <ele>219.042944</ele>
        <time>2022-12-12T11:19:05.765Z</time>
      </trkpt>
      <trkpt lat="48.21876" lon="-3.3225">
        <ele>219.066853</ele>
        <time>2022-12-12T11:19:08.765Z</time>
      </trkpt>
      <trkpt lat="48.21864" lon="-3.32252">
        <ele>219.092201</ele>
        <time>2022-12-12T11:19:11.763Z</time>
      </trkpt>
      <trkpt lat="48.21851" lon="-3.32253">
        <ele>219.118377</ele>
        <time>2022-12-12T11:19:14.769Z</time>
      </trkpt>
      <trkpt lat="48.21839" lon="-3.32254">
        <ele>219.144949</ele>
        <time>2022-12-12T11:19:17.749Z</time>
      </trkpt>
      <trkpt lat="48.21825" lon="-3.32255">
        <ele>219.172145</ele>
        <time>2022-12-12T11:19:20.774Z</time>
      </trkpt>
      <trkpt lat="48.21812" lon="-3.32256">
        <ele>219.200178</ele>
        <time>2022-12-12T11:19:23.764Z</time>
      </trkpt>
      <trkpt lat="48.21803" lon="-3.32257">
        <ele>219.219174</ele>
        <time>2022-12-12T11:19:25.764Z</time>
      </trkpt>
      <trkpt lat="48.21793" lon="-3.32258">
        <ele>219.237896</ele>
        <time>2022-12-12T11:19:27.764Z</time>
      </trkpt>
      <trkpt lat="48.21784" lon="-3.32258">
        <ele>219.256656</ele>
        <time>2022-12-12T11:19:29.764Z</time>
      </trkpt>
      <trkpt lat="48.21775" lon="-3.3226">
        <ele>219.276256</ele>
        <time>2022-12-12T11:19:31.769Z</time>
      </trkpt>
      <trkpt lat="48.21762" lon="-3.32261">
        <ele>219.303683</ele>
        <time>2022-12-12T11:19:34.767Z</time>
      </trkpt>
      <trkpt lat="48.21749" lon="-3.32262">
        <ele>219.328803</ele>
        <time>2022-12-12T11:19:37.765Z</time>
      </trkpt>
      <trkpt lat="48.21737" lon="-3.32263">
        <ele>219.353513</ele>
        <time>2022-12-12T11:19:40.758Z</time>
      </trkpt>
      <trkpt lat="48.21725" lon="-3.32264">
        <ele>219.378526</ele>
        <time>2022-12-12T11:19:43.766Z</time>
      </trkpt>
      <trkpt lat="48.21713" lon="-3.32265">
        <ele>219.403667</ele>
        <time>2022-12-12T11:19:46.773Z</time>
      </trkpt>
      <trkpt lat="48.21701" lon="-3.32266">
        <ele>219.469007</ele>
        <time>2022-12-12T11:19:49.769Z</time>
      </trkpt>
      <trkpt lat="48.21689" lon="-3.32268">
        <ele>219.532542</ele>
        <time>2022-12-12T11:19:52.780Z</time>
      </trkpt>
      <trkpt lat="48.21677" lon="-3.32269">
        <ele>219.596981</ele>
        <time>2022-12-12T11:19:55.766Z</time>
      </trkpt>
      <trkpt lat="48.21664" lon="-3.3227">
        <ele>219.663228</ele>
        <time>2022-12-12T11:19:58.765Z</time>
      </trkpt>
      <trkpt lat="48.21652" lon="-3.32272">
        <ele>219.730073</ele>
        <time>2022-12-12T11:20:01.774Z</time>
      </trkpt>
      <trkpt lat="48.21639" lon="-3.32274">
        <ele>219.796883</ele>
        <time>2022-12-12T11:20:04.765Z</time>
      </trkpt>
      <trkpt lat="48.21628" lon="-3.32274">
        <ele>219.855949</ele>
        <time>2022-12-12T11:20:07.779Z</time>
      </trkpt>
      <trkpt lat="48.21617" lon="-3.32276">
        <ele>219.914096</ele>
        <time>2022-12-12T11:20:10.767Z</time>
      </trkpt>
      <trkpt lat="48.21606" lon="-3.32277">
        <ele>219.977102</ele>
        <time>2022-12-12T11:20:13.777Z</time>
      </trkpt>
      <trkpt lat="48.21593" lon="-3.32279">
        <ele>220.041727</ele>
        <time>2022-12-12T11:20:16.772Z</time>
      </trkpt>
      <trkpt lat="48.21581" lon="-3.3228">
        <ele>220.109903</ele>
        <time>2022-12-12T11:20:19.766Z</time>
      </trkpt>
      <trkpt lat="48.21569" lon="-3.3228">
        <ele>220.173795</ele>
        <time>2022-12-12T11:20:22.781Z</time>
      </trkpt>
      <trkpt lat="48.21558" lon="-3.32282">
        <ele>220.231999</ele>
        <time>2022-12-12T11:20:25.774Z</time>
      </trkpt>
      <trkpt lat="48.21546" lon="-3.32283">
        <ele>220.294418</ele>
        <time>2022-12-12T11:20:28.772Z</time>
      </trkpt>
      <trkpt lat="48.21534" lon="-3.32284">
        <ele>220.360528</ele>
        <time>2022-12-12T11:20:31.771Z</time>
      </trkpt>
      <trkpt lat="48.21521" lon="-3.32285">
        <ele>220.422261</ele>
        <time>2022-12-12T11:20:34.770Z</time>
      </trkpt>
      <trkpt lat="48.21508" lon="-3.32287">
        <ele>220.486487</ele>
        <time>2022-12-12T11:20:37.760Z</time>
      </trkpt>
      <trkpt lat="48.21495" lon="-3.32289">
        <ele>220.549803</ele>
        <time>2022-12-12T11:20:40.766Z</time>
      </trkpt>
      <trkpt lat="48.21483" lon="-3.3229">
        <ele>220.606638</ele>
        <time>2022-12-12T11:20:43.767Z</time>
      </trkpt>
      <trkpt lat="48.21472" lon="-3.32292">
        <ele>220.658412</ele>
        <time>2022-12-12T11:20:46.771Z</time>
      </trkpt>
      <trkpt lat="48.21461" lon="-3.32294">
        <ele>220.713076</ele>
        <time>2022-12-12T11:20:49.768Z</time>
      </trkpt>
      <trkpt lat="48.21449" lon="-3.32295">
        <ele>220.772047</ele>
        <time>2022-12-12T11:20:52.768Z</time>
      </trkpt>
      <trkpt lat="48.21437" lon="-3.32297">
        <ele>220.831896</ele>
        <time>2022-12-12T11:20:55.771Z</time>
      </trkpt>
      <trkpt lat="48.21424" lon="-3.32299">
        <ele>220.89431</ele>
        <time>2022-12-12T11:20:58.769Z</time>
      </trkpt>
      <trkpt lat="48.21411" lon="-3.323">
        <ele>220.956093</ele>
        <time>2022-12-12T11:21:01.766Z</time>
      </trkpt>
      <trkpt lat="48.214" lon="-3.32301">
        <ele>221.011942</ele>
        <time>2022-12-12T11:21:04.771Z</time>
      </trkpt>
      <trkpt lat="48.21389" lon="-3.32305">
        <ele>221.065807</ele>
        <time>2022-12-12T11:21:07.772Z</time>
      </trkpt>
      <trkpt lat="48.21378" lon="-3.32309">
        <ele>221.122661</ele>
        <time>2022-12-12T11:21:10.765Z</time>
      </trkpt>
      <trkpt lat="48.21366" lon="-3.32315">
        <ele>221.181468</ele>
        <time>2022-12-12T11:21:13.749Z</time>
      </trkpt>
      <trkpt lat="48.21355" lon="-3.32323">
        <ele>221.227056</ele>
        <time>2022-12-12T11:21:16.765Z</time>
      </trkpt>
      <trkpt lat="48.21345" lon="-3.32334">
        <ele>221.179996</ele>
        <time>2022-12-12T11:21:19.753Z</time>
      </trkpt>
      <trkpt lat="48.21335" lon="-3.32347">
        <ele>221.131883</ele>
        <time>2022-12-12T11:21:22.754Z</time>
      </trkpt>
      <trkpt lat="48.21328" lon="-3.32362">
        <ele>221.086002</ele>
        <time>2022-12-12T11:21:25.754Z</time>
      </trkpt>
      <trkpt lat="48.21322" lon="-3.32378">
        <ele>221.041161</ele>
        <time>2022-12-12T11:21:28.747Z</time>
      </trkpt>
      <trkpt lat="48.21318" lon="-3.32397">
        <ele>220.992278</ele>
        <time>2022-12-12T11:21:31.776Z</time>
      </trkpt>
      <trkpt lat="48.21315" lon="-3.3241">
        <ele>220.95784</ele>
        <time>2022-12-12T11:21:33.763Z</time>
      </trkpt>
      <trkpt lat="48.21313" lon="-3.32424">
        <ele>220.924049</ele>
        <time>2022-12-12T11:21:35.757Z</time>
      </trkpt>
      <trkpt lat="48.21312" lon="-3.32437">
        <ele>220.890305</ele>
        <time>2022-12-12T11:21:37.753Z</time>
      </trkpt>
      <trkpt lat="48.21313" lon="-3.32451">
        <ele>220.856231</ele>
        <time>2022-12-12T11:21:39.756Z</time>
      </trkpt>
      <trkpt lat="48.21312" lon="-3.32466">
        <ele>220.819189</ele>
        <time>2022-12-12T11:21:41.752Z</time>
      </trkpt>
      <trkpt lat="48.21312" lon="-3.32481">
        <ele>220.781411</ele>
        <time>2022-12-12T11:21:43.770Z</time>
      </trkpt>
      <trkpt lat="48.21312" lon="-3.32497">
        <ele>220.742641</ele>
        <time>2022-12-12T11:21:45.756Z</time>
      </trkpt>
      <trkpt lat="48.21312" lon="-3.32513">
        <ele>220.702389</ele>
        <time>2022-12-12T11:21:47.770Z</time>
      </trkpt>
      <trkpt lat="48.21312" lon="-3.3253">
        <ele>220.661157</ele>
        <time>2022-12-12T11:21:49.767Z</time>
      </trkpt>
      <trkpt lat="48.21312" lon="-3.32545">
        <ele>220.623381</ele>
        <time>2022-12-12T11:21:51.776Z</time>
      </trkpt>
      <trkpt lat="48.21312" lon="-3.3256">
        <ele>220.586317</ele>
        <time>2022-12-12T11:21:53.765Z</time>
      </trkpt>
      <trkpt lat="48.21313" lon="-3.32575">
        <ele>220.632709</ele>
        <time>2022-12-12T11:21:55.772Z</time>
      </trkpt>
      <trkpt lat="48.21313" lon="-3.3259">
        <ele>220.791409</ele>
        <time>2022-12-12T11:21:57.766Z</time>
      </trkpt>
      <trkpt lat="48.21314" lon="-3.32605">
        <ele>220.942115</ele>
        <time>2022-12-12T11:21:59.769Z</time>
      </trkpt>
      <trkpt lat="48.21314" lon="-3.32619">
        <ele>221.091357</ele>
        <time>2022-12-12T11:22:01.765Z</time>
      </trkpt>
      <trkpt lat="48.21313" lon="-3.32634">
        <ele>221.246976</ele>
        <time>2022-12-12T11:22:03.767Z</time>
      </trkpt>
      <trkpt lat="48.21313" lon="-3.32648">
        <ele>221.387951</ele>
        <time>2022-12-12T11:22:05.750Z</time>
      </trkpt>
      <trkpt lat="48.21313" lon="-3.32662">
        <ele>221.534108</ele>
        <time>2022-12-12T11:22:07.769Z</time>
      </trkpt>
      <trkpt lat="48.21313" lon="-3.32677">
        <ele>221.686373</ele>
        <time>2022-12-12T11:22:09.769Z</time>
      </trkpt>
      <trkpt lat="48.21313" lon="-3.32692">
        <ele>221.837609</ele>
        <time>2022-12-12T11:22:11.767Z</time>
      </trkpt>
      <trkpt lat="48.21312" lon="-3.32706">
        <ele>221.989474</ele>
        <time>2022-12-12T11:22:13.766Z</time>
      </trkpt>
      <trkpt lat="48.21312" lon="-3.3272">
        <ele>222.133501</ele>
        <time>2022-12-12T11:22:15.752Z</time>
      </trkpt>
      <trkpt lat="48.21313" lon="-3.32735">
        <ele>222.280106</ele>
        <time>2022-12-12T11:22:17.772Z</time>
      </trkpt>
      <trkpt lat="48.21313" lon="-3.32749">
        <ele>222.424166</ele>
        <time>2022-12-12T11:22:19.773Z</time>
      </trkpt>
      <trkpt lat="48.21313" lon="-3.32769">
        <ele>222.632068</ele>
        <time>2022-12-12T11:22:22.786Z</time>
      </trkpt>
      <trkpt lat="48.21313" lon="-3.32783">
        <ele>222.774246</ele>
        <time>2022-12-12T11:22:24.780Z</time>
      </trkpt>
      <trkpt lat="48.21314" lon="-3.32797">
        <ele>222.923449</ele>
        <time>2022-12-12T11:22:26.763Z</time>
      </trkpt>
      <trkpt lat="48.21314" lon="-3.32816">
        <ele>223.11701</ele>
        <time>2022-12-12T11:22:29.766Z</time>
      </trkpt>
      <trkpt lat="48.21314" lon="-3.32833">
        <ele>223.290933</ele>
        <time>2022-12-12T11:22:32.747Z</time>
      </trkpt>
      <trkpt lat="48.21315" lon="-3.3285">
        <ele>223.286996</ele>
        <time>2022-12-12T11:22:35.775Z</time>
      </trkpt>
      <trkpt lat="48.21314" lon="-3.32867">
        <ele>223.202764</ele>
        <time>2022-12-12T11:22:38.767Z</time>
      </trkpt>
      <trkpt lat="48.21314" lon="-3.32885">
        <ele>223.11561</ele>
        <time>2022-12-12T11:22:41.780Z</time>
      </trkpt>
      <trkpt lat="48.21314" lon="-3.32903">
        <ele>223.026023</ele>
        <time>2022-12-12T11:22:44.754Z</time>
      </trkpt>
      <trkpt lat="48.21315" lon="-3.3292">
        <ele>222.941537</ele>
        <time>2022-12-12T11:22:47.771Z</time>
      </trkpt>
      <trkpt lat="48.21316" lon="-3.32936">
        <ele>222.864677</ele>
        <time>2022-12-12T11:22:50.770Z</time>
      </trkpt>
      <trkpt lat="48.21318" lon="-3.32953">
        <ele>222.784177</ele>
        <time>2022-12-12T11:22:53.774Z</time>
      </trkpt>
      <trkpt lat="48.2132" lon="-3.3297">
        <ele>222.698906</ele>
        <time>2022-12-12T11:22:56.763Z</time>
      </trkpt>
      <trkpt lat="48.21323" lon="-3.32987">
        <ele>222.612813</ele>
        <time>2022-12-12T11:22:59.775Z</time>
      </trkpt>
      <trkpt lat="48.21328" lon="-3.33004">
        <ele>222.524551</ele>
        <time>2022-12-12T11:23:02.756Z</time>
      </trkpt>
      <trkpt lat="48.21333" lon="-3.33019">
        <ele>222.439075</ele>
        <time>2022-12-12T11:23:05.769Z</time>
      </trkpt>
      <trkpt lat="48.21338" lon="-3.33033">
        <ele>222.362036</ele>
        <time>2022-12-12T11:23:08.765Z</time>
      </trkpt>
      <trkpt lat="48.21345" lon="-3.33047">
        <ele>222.280177</ele>
        <time>2022-12-12T11:23:11.773Z</time>
      </trkpt>
      <trkpt lat="48.21352" lon="-3.33061">
        <ele>222.192339</ele>
        <time>2022-12-12T11:23:14.765Z</time>
      </trkpt>
      <trkpt lat="48.2136" lon="-3.33076">
        <ele>222.099177</ele>
        <time>2022-12-12T11:23:17.771Z</time>
      </trkpt>
      <trkpt lat="48.21366" lon="-3.33086">
        <ele>222.033828</ele>
        <time>2022-12-12T11:23:19.751Z</time>
      </trkpt>
      <trkpt lat="48.21372" lon="-3.33097">
        <ele>221.720479</ele>
        <time>2022-12-12T11:23:21.772Z</time>
      </trkpt>
      <trkpt lat="48.21377" lon="-3.33108">
        <ele>221.392893</ele>
        <time>2022-12-12T11:23:23.772Z</time>
      </trkpt>
      <trkpt lat="48.21383" lon="-3.33119">
        <ele>221.067189</ele>
        <time>2022-12-12T11:23:25.773Z</time>
      </trkpt>
      <trkpt lat="48.21388" lon="-3.33131">
        <ele>220.718503</ele>
        <time>2022-12-12T11:23:27.774Z</time>
      </trkpt>
      <trkpt lat="48.21394" lon="-3.33142">
        <ele>220.380899</ele>
        <time>2022-12-12T11:23:29.766Z</time>
      </trkpt>
      <trkpt lat="48.214" lon="-3.33153">
        <ele>220.054853</ele>
        <time>2022-12-12T11:23:31.776Z</time>
      </trkpt>
      <trkpt lat="48.21405" lon="-3.33164">
        <ele>219.714063</ele>
        <time>2022-12-12T11:23:33.771Z</time>
      </trkpt>
      <trkpt lat="48.21412" lon="-3.33176">
        <ele>219.363834</ele>
        <time>2022-12-12T11:23:35.761Z</time>
      </trkpt>
      <trkpt lat="48.21417" lon="-3.33188">
        <ele>219.009277</ele>
        <time>2022-12-12T11:23:37.779Z</time>
      </trkpt>
      <trkpt lat="48.21422" lon="-3.33202">
        <ele>218.636085</ele>
        <time>2022-12-12T11:23:39.769Z</time>
      </trkpt>
      <trkpt lat="48.21427" lon="-3.33216">
        <ele>218.24327</ele>
        <time>2022-12-12T11:23:41.755Z</time>
      </trkpt>
      <trkpt lat="48.21432" lon="-3.33232">
        <ele>217.840611</ele>
        <time>2022-12-12T11:23:43.771Z</time>
      </trkpt>
      <trkpt lat="48.21435" lon="-3.33248">
        <ele>217.448792</ele>
        <time>2022-12-12T11:23:45.745Z</time>
      </trkpt>
      <trkpt lat="48.21438" lon="-3.33264">
        <ele>217.046724</ele>
        <time>2022-12-12T11:23:47.763Z</time>
      </trkpt>
      <trkpt lat="48.2144" lon="-3.3328">
        <ele>216.650949</ele>
        <time>2022-12-12T11:23:49.766Z</time>
      </trkpt>
      <trkpt lat="48.21442" lon="-3.33296">
        <ele>216.264447</ele>
        <time>2022-12-12T11:23:51.773Z</time>
      </trkpt>
      <trkpt lat="48.21443" lon="-3.33312">
        <ele>215.884941</ele>
        <time>2022-12-12T11:23:53.749Z</time>
      </trkpt>
      <trkpt lat="48.21443" lon="-3.33327">
        <ele>215.539309</ele>
        <time>2022-12-12T11:23:55.767Z</time>
      </trkpt>
      <trkpt lat="48.21442" lon="-3.33341">
        <ele>215.260877</ele>
        <time>2022-12-12T11:23:57.774Z</time>
      </trkpt>
      <trkpt lat="48.2144" lon="-3.33357">
        <ele>214.943171</ele>
        <time>2022-12-12T11:24:00.752Z</time>
      </trkpt>
      <trkpt lat="48.2143" lon="-3.3336">
        <ele>214.658673</ele>
        <time>2022-12-12T11:24:06.756Z</time>
      </trkpt>
      <trkpt lat="48.21423" lon="-3.33351">
        <ele>214.377534</ele>
        <time>2022-12-12T11:24:09.761Z</time>
      </trkpt>
      <trkpt lat="48.21416" lon="-3.33342">
        <ele>214.10574</ele>
        <time>2022-12-12T11:24:12.774Z</time>
      </trkpt>
      <trkpt lat="48.21409" lon="-3.33333">
        <ele>213.825851</ele>
        <time>2022-12-12T11:24:25.767Z</time>
      </trkpt>
      <trkpt lat="48.21401" lon="-3.33322">
        <ele>213.516318</ele>
        <time>2022-12-12T11:24:32.755Z</time>
      </trkpt>
      <trkpt lat="48.21394" lon="-3.3331">
        <ele>213.192733</ele>
        <time>2022-12-12T11:24:36.753Z</time>
      </trkpt>
      <trkpt lat="48.21387" lon="-3.33301">
        <ele>212.919381</ele>
        <time>2022-12-12T11:24:39.779Z</time>
      </trkpt>
      <trkpt lat="48.2138" lon="-3.3329">
        <ele>212.629338</ele>
        <time>2022-12-12T11:24:42.796Z</time>
      </trkpt>
      <trkpt lat="48.21372" lon="-3.33279">
        <ele>212.317042</ele>
        <time>2022-12-12T11:24:45.762Z</time>
      </trkpt>
      <trkpt lat="48.21365" lon="-3.33268">
        <ele>212.009458</ele>
        <time>2022-12-12T11:24:48.773Z</time>
      </trkpt>
      <trkpt lat="48.21358" lon="-3.33258">
        <ele>211.723585</ele>
        <time>2022-12-12T11:24:51.770Z</time>
      </trkpt>
      <trkpt lat="48.21351" lon="-3.33249">
        <ele>211.439952</ele>
        <time>2022-12-12T11:24:54.769Z</time>
      </trkpt>
      <trkpt lat="48.21342" lon="-3.33238">
        <ele>211.124029</ele>
        <time>2022-12-12T11:24:57.767Z</time>
      </trkpt>
      <trkpt lat="48.21335" lon="-3.33226">
        <ele>210.794321</ele>
        <time>2022-12-12T11:25:00.764Z</time>
      </trkpt>
      <trkpt lat="48.21326" lon="-3.33215">
        <ele>210.452551</ele>
        <time>2022-12-12T11:25:03.780Z</time>
      </trkpt>
      <trkpt lat="48.21318" lon="-3.33204">
        <ele>210.306677</ele>
        <time>2022-12-12T11:25:07.750Z</time>
      </trkpt>
      <trkpt lat="48.21309" lon="-3.33192">
        <ele>210.328505</ele>
        <time>2022-12-12T11:25:11.759Z</time>
      </trkpt>
      <trkpt lat="48.21301" lon="-3.33181">
        <ele>210.3502</ele>
        <time>2022-12-12T11:25:15.761Z</time>
      </trkpt>
      <trkpt lat="48.21292" lon="-3.33168">
        <ele>210.371964</ele>
        <time>2022-12-12T11:25:18.775Z</time>
      </trkpt>
      <trkpt lat="48.21283" lon="-3.33157">
        <ele>210.394128</ele>
        <time>2022-12-12T11:25:21.755Z</time>
      </trkpt>
      <trkpt lat="48.21274" lon="-3.33144">
        <ele>210.417306</ele>
        <time>2022-12-12T11:25:24.770Z</time>
      </trkpt>
      <trkpt lat="48.21266" lon="-3.3313">
        <ele>210.440362</ele>
        <time>2022-12-12T11:25:27.772Z</time>
      </trkpt>
      <trkpt lat="48.21258" lon="-3.33119">
        <ele>210.460888</ele>
        <time>2022-12-12T11:25:30.769Z</time>
      </trkpt>
      <trkpt lat="48.21251" lon="-3.33107">
        <ele>210.480842</ele>
        <time>2022-12-12T11:25:33.771Z</time>
      </trkpt>
      <trkpt lat="48.21243" lon="-3.33097">
        <ele>210.500024</ele>
        <time>2022-12-12T11:25:36.763Z</time>
      </trkpt>
      <trkpt lat="48.21235" lon="-3.33087">
        <ele>210.519608</ele>
        <time>2022-12-12T11:25:39.765Z</time>
      </trkpt>
      <trkpt lat="48.21227" lon="-3.33075">
        <ele>210.541415</ele>
        <time>2022-12-12T11:25:43.781Z</time>
      </trkpt>
      <trkpt lat="48.2122" lon="-3.33064">
        <ele>210.559615</ele>
        <time>2022-12-12T11:25:46.772Z</time>
      </trkpt>
      <trkpt lat="48.21213" lon="-3.33052">
        <ele>210.57966</ele>
        <time>2022-12-12T11:25:49.762Z</time>
      </trkpt>
      <trkpt lat="48.21204" lon="-3.3304">
        <ele>210.602396</ele>
        <time>2022-12-12T11:25:52.751Z</time>
      </trkpt>
      <trkpt lat="48.21198" lon="-3.3303">
        <ele>210.619392</ele>
        <time>2022-12-12T11:25:54.772Z</time>
      </trkpt>
      <trkpt lat="48.21191" lon="-3.33021">
        <ele>210.582584</ele>
        <time>2022-12-12T11:25:56.764Z</time>
      </trkpt>
      <trkpt lat="48.21181" lon="-3.33008">
        <ele>210.298404</ele>
        <time>2022-12-12T11:25:59.776Z</time>
      </trkpt>
      <trkpt lat="48.21174" lon="-3.32997">
        <ele>210.062524</ele>
        <time>2022-12-12T11:26:02.771Z</time>
      </trkpt>
      <trkpt lat="48.21166" lon="-3.32987">
        <ele>209.829153</ele>
        <time>2022-12-12T11:26:05.773Z</time>
      </trkpt>
      <trkpt lat="48.21159" lon="-3.32977">
        <ele>209.616456</ele>
        <time>2022-12-12T11:26:08.780Z</time>
      </trkpt>
      <trkpt lat="48.21152" lon="-3.32968">
        <ele>209.408149</ele>
        <time>2022-12-12T11:26:11.771Z</time>
      </trkpt>
      <trkpt lat="48.21144" lon="-3.32958">
        <ele>209.171433</ele>
        <time>2022-12-12T11:26:14.763Z</time>
      </trkpt>
      <trkpt lat="48.21136" lon="-3.32948">
        <ele>208.946657</ele>
        <time>2022-12-12T11:26:17.774Z</time>
      </trkpt>
      <trkpt lat="48.21131" lon="-3.32937">
        <ele>208.73824</ele>
        <time>2022-12-12T11:26:20.769Z</time>
      </trkpt>
      <trkpt lat="48.21126" lon="-3.32922">
        <ele>208.497909</ele>
        <time>2022-12-12T11:26:23.754Z</time>
      </trkpt>
      <trkpt lat="48.21122" lon="-3.32907">
        <ele>208.246772</ele>
        <time>2022-12-12T11:26:26.751Z</time>
      </trkpt>
      <trkpt lat="48.21119" lon="-3.32891">
        <ele>207.998584</ele>
        <time>2022-12-12T11:26:30.781Z</time>
      </trkpt>
      <trkpt lat="48.21115" lon="-3.32877">
        <ele>207.773665</ele>
        <time>2022-12-12T11:26:33.777Z</time>
      </trkpt>
      <trkpt lat="48.21111" lon="-3.32858">
        <ele>207.482724</ele>
        <time>2022-12-12T11:26:37.769Z</time>
      </trkpt>
      <trkpt lat="48.21108" lon="-3.32843">
        <ele>207.240264</ele>
        <time>2022-12-12T11:26:40.759Z</time>
      </trkpt>
      <trkpt lat="48.21104" lon="-3.32826">
        <ele>206.965518</ele>
        <time>2022-12-12T11:26:43.769Z</time>
      </trkpt>
      <trkpt lat="48.21099" lon="-3.32808">
        <ele>206.68455</ele>
        <time>2022-12-12T11:26:46.769Z</time>
      </trkpt>
      <trkpt lat="48.21095" lon="-3.32792">
        <ele>206.681867</ele>
        <time>2022-12-12T11:26:49.782Z</time>
      </trkpt>
      <trkpt lat="48.21092" lon="-3.32778">
        <ele>206.817543</ele>
        <time>2022-12-12T11:26:52.777Z</time>
      </trkpt>
      <trkpt lat="48.21088" lon="-3.32763">
        <ele>206.96734</ele>
        <time>2022-12-12T11:26:55.781Z</time>
      </trkpt>
      <trkpt lat="48.21084" lon="-3.32747">
        <ele>207.121925</ele>
        <time>2022-12-12T11:26:58.781Z</time>
      </trkpt>
      <trkpt lat="48.21081" lon="-3.3273">
        <ele>207.278635</ele>
        <time>2022-12-12T11:27:02.769Z</time>
      </trkpt>
      <trkpt lat="48.21078" lon="-3.32716">
        <ele>207.41687</ele>
        <time>2022-12-12T11:27:05.772Z</time>
      </trkpt>
      <trkpt lat="48.21074" lon="-3.327">
        <ele>207.57363</ele>
        <time>2022-12-12T11:27:08.761Z</time>
      </trkpt>
      <trkpt lat="48.21071" lon="-3.32683">
        <ele>207.728156</ele>
        <time>2022-12-12T11:27:11.778Z</time>
      </trkpt>
      <trkpt lat="48.21066" lon="-3.32667">
        <ele>207.888068</ele>
        <time>2022-12-12T11:27:14.773Z</time>
      </trkpt>
      <trkpt lat="48.21063" lon="-3.32651">
        <ele>208.039581</ele>
        <time>2022-12-12T11:27:17.769Z</time>
      </trkpt>
      <trkpt lat="48.21059" lon="-3.32634">
        <ele>208.205797</ele>
        <time>2022-12-12T11:27:20.772Z</time>
      </trkpt>
      <trkpt lat="48.21054" lon="-3.32617">
        <ele>208.367284</ele>
        <time>2022-12-12T11:27:23.772Z</time>
      </trkpt>
      <trkpt lat="48.21052" lon="-3.32604">
        <ele>208.496916</ele>
        <time>2022-12-12T11:27:26.759Z</time>
      </trkpt>
      <trkpt lat="48.21048" lon="-3.32588">
        <ele>208.647158</ele>
        <time>2022-12-12T11:27:30.756Z</time>
      </trkpt>
      <trkpt lat="48.21046" lon="-3.32572">
        <ele>208.793017</ele>
        <time>2022-12-12T11:27:33.776Z</time>
      </trkpt>
      <trkpt lat="48.21045" lon="-3.32557">
        <ele>208.9292</ele>
        <time>2022-12-12T11:27:36.753Z</time>
      </trkpt>
      <trkpt lat="48.21048" lon="-3.3254">
        <ele>209.014007</ele>
        <time>2022-12-12T11:27:40.760Z</time>
      </trkpt>
      <trkpt lat="48.21049" lon="-3.32525">
        <ele>208.956544</ele>
        <time>2022-12-12T11:27:43.758Z</time>
      </trkpt>
      <trkpt lat="48.21049" lon="-3.32508">
        <ele>208.892047</ele>
        <time>2022-12-12T11:27:46.763Z</time>
      </trkpt>
      <trkpt lat="48.21049" lon="-3.32494">
        <ele>208.835979</ele>
        <time>2022-12-12T11:27:49.750Z</time>
      </trkpt>
      <trkpt lat="48.2105" lon="-3.32476">
        <ele>208.767687</ele>
        <time>2022-12-12T11:27:52.759Z</time>
      </trkpt>
      <trkpt lat="48.21052" lon="-3.32462">
        <ele>208.712093</ele>
        <time>2022-12-12T11:27:55.770Z</time>
      </trkpt>
      <trkpt lat="48.21054" lon="-3.32445">
        <ele>208.647157</ele>
        <time>2022-12-12T11:27:58.771Z</time>
      </trkpt>
      <trkpt lat="48.21056" lon="-3.32429">
        <ele>208.583358</ele>
        <time>2022-12-12T11:28:01.755Z</time>
      </trkpt>
      <trkpt lat="48.21057" lon="-3.3241">
        <ele>208.512828</ele>
        <time>2022-12-12T11:28:04.759Z</time>
      </trkpt>
      <trkpt lat="48.21058" lon="-3.32394">
        <ele>208.449177</ele>
        <time>2022-12-12T11:28:07.782Z</time>
      </trkpt>
      <trkpt lat="48.2106" lon="-3.32378">
        <ele>208.385936</ele>
        <time>2022-12-12T11:28:10.755Z</time>
      </trkpt>
      <trkpt lat="48.21062" lon="-3.32363">
        <ele>208.326726</ele>
        <time>2022-12-12T11:28:13.776Z</time>
      </trkpt>
      <trkpt lat="48.21065" lon="-3.32347">
        <ele>208.264033</ele>
        <time>2022-12-12T11:28:17.769Z</time>
      </trkpt>
      <trkpt lat="48.21067" lon="-3.32334">
        <ele>208.211941</ele>
        <time>2022-12-12T11:28:20.779Z</time>
      </trkpt>
      <trkpt lat="48.21068" lon="-3.32317">
        <ele>208.145759</ele>
        <time>2022-12-12T11:28:23.778Z</time>
      </trkpt>
      <trkpt lat="48.21069" lon="-3.323">
        <ele>208.080634</ele>
        <time>2022-12-12T11:28:26.780Z</time>
      </trkpt>
      <trkpt lat="48.21072" lon="-3.32284">
        <ele>208.019138</ele>
        <time>2022-12-12T11:28:30.767Z</time>
      </trkpt>
      <trkpt lat="48.21073" lon="-3.32268">
        <ele>208.142952</ele>
        <time>2022-12-12T11:28:34.758Z</time>
      </trkpt>
      <trkpt lat="48.21076" lon="-3.32251">
        <ele>208.376768</ele>
        <time>2022-12-12T11:28:38.761Z</time>
      </trkpt>
      <trkpt lat="48.21077" lon="-3.32235">
        <ele>208.582067</ele>
        <time>2022-12-12T11:28:41.752Z</time>
      </trkpt>
      <trkpt lat="48.21079" lon="-3.32217">
        <ele>208.812592</ele>
        <time>2022-12-12T11:28:45.771Z</time>
      </trkpt>
      <trkpt lat="48.2108" lon="-3.32203">
        <ele>208.996383</ele>
        <time>2022-12-12T11:28:48.773Z</time>
      </trkpt>
      <trkpt lat="48.21083" lon="-3.32187">
        <ele>209.21086</ele>
        <time>2022-12-12T11:28:52.773Z</time>
      </trkpt>
      <trkpt lat="48.21084" lon="-3.32174">
        <ele>209.386772</ele>
        <time>2022-12-12T11:28:55.771Z</time>
      </trkpt>
      <trkpt lat="48.21087" lon="-3.32158">
        <ele>209.594883</ele>
        <time>2022-12-12T11:28:59.771Z</time>
      </trkpt>
      <trkpt lat="48.21089" lon="-3.32141">
        <ele>209.821532</ele>
        <time>2022-12-12T11:29:03.777Z</time>
      </trkpt>
      <trkpt lat="48.21091" lon="-3.32126">
        <ele>210.025587</ele>
        <time>2022-12-12T11:29:06.772Z</time>
      </trkpt>
      <trkpt lat="48.21093" lon="-3.3211">
        <ele>210.233497</ele>
        <time>2022-12-12T11:29:09.775Z</time>
      </trkpt>
      <trkpt lat="48.21095" lon="-3.32093">
        <ele>210.46209</ele>
        <time>2022-12-12T11:29:12.779Z</time>
      </trkpt>
      <trkpt lat="48.21097" lon="-3.32076">
        <ele>210.683661</ele>
        <time>2022-12-12T11:29:15.775Z</time>
      </trkpt>
      <trkpt lat="48.21099" lon="-3.32059">
        <ele>210.905231</ele>
        <time>2022-12-12T11:29:18.782Z</time>
      </trkpt>
      <trkpt lat="48.21101" lon="-3.32041">
        <ele>211.13654</ele>
        <time>2022-12-12T11:29:21.777Z</time>
      </trkpt>
      <trkpt lat="48.21103" lon="-3.32024">
        <ele>211.365133</ele>
        <time>2022-12-12T11:29:24.781Z</time>
      </trkpt>
      <trkpt lat="48.21105" lon="-3.32007">
        <ele>211.377268</ele>
        <time>2022-12-12T11:29:27.777Z</time>
      </trkpt>
      <trkpt lat="48.21106" lon="-3.31993">
        <ele>211.121111</ele>
        <time>2022-12-12T11:29:30.749Z</time>
      </trkpt>
      <trkpt lat="48.21111" lon="-3.31978">
        <ele>210.841341</ele>
        <time>2022-12-12T11:29:34.756Z</time>
      </trkpt>
      <trkpt lat="48.2112" lon="-3.31973">
        <ele>210.592722</ele>
        <time>2022-12-12T11:29:38.769Z</time>
      </trkpt>
      <trkpt lat="48.21121" lon="-3.31958">
        <ele>210.343769</ele>
        <time>2022-12-12T11:29:44.753Z</time>
      </trkpt>
      <trkpt lat="48.21114" lon="-3.31949">
        <ele>210.103662</ele>
        <time>2022-12-12T11:29:47.758Z</time>
      </trkpt>
      <trkpt lat="48.21113" lon="-3.31932">
        <ele>209.802678</ele>
        <time>2022-12-12T11:29:51.748Z</time>
      </trkpt>
      <trkpt lat="48.21113" lon="-3.31915">
        <ele>209.51126</ele>
        <time>2022-12-12T11:29:55.770Z</time>
      </trkpt>
      <trkpt lat="48.21114" lon="-3.31901">
        <ele>209.276793</ele>
        <time>2022-12-12T11:29:59.773Z</time>
      </trkpt>
      <trkpt lat="48.21113" lon="-3.31888">
        <ele>209.04494</ele>
        <time>2022-12-12T11:30:02.761Z</time>
      </trkpt>
      <trkpt lat="48.21113" lon="-3.31873">
        <ele>208.80265</ele>
        <time>2022-12-12T11:30:05.770Z</time>
      </trkpt>
      <trkpt lat="48.21109" lon="-3.31857">
        <ele>208.505947</ele>
        <time>2022-12-12T11:30:09.776Z</time>
      </trkpt>
      <trkpt lat="48.21106" lon="-3.31841">
        <ele>208.215745</ele>
        <time>2022-12-12T11:30:12.780Z</time>
      </trkpt>
      <trkpt lat="48.211" lon="-3.31826">
        <ele>207.922605</ele>
        <time>2022-12-12T11:30:15.776Z</time>
      </trkpt>
      <trkpt lat="48.21094" lon="-3.31813">
        <ele>207.647355</ele>
        <time>2022-12-12T11:30:18.778Z</time>
      </trkpt>
      <trkpt lat="48.21088" lon="-3.318">
        <ele>207.383543</ele>
        <time>2022-12-12T11:30:21.760Z</time>
      </trkpt>
      <trkpt lat="48.21083" lon="-3.31787">
        <ele>207.111174</ele>
        <time>2022-12-12T11:30:24.778Z</time>
      </trkpt>
      <trkpt lat="48.21076" lon="-3.31773">
        <ele>206.865956</ele>
        <time>2022-12-12T11:30:27.771Z</time>
      </trkpt>
      <trkpt lat="48.21068" lon="-3.31759">
        <ele>206.844488</ele>
        <time>2022-12-12T11:30:31.769Z</time>
      </trkpt>
      <trkpt lat="48.21062" lon="-3.31745">
        <ele>206.822902</ele>
        <time>2022-12-12T11:30:35.751Z</time>
      </trkpt>
      <trkpt lat="48.21056" lon="-3.31733">
        <ele>206.803942</ele>
        <time>2022-12-12T11:30:38.758Z</time>
      </trkpt>
      <trkpt lat="48.21048" lon="-3.3172">
        <ele>206.783601</ele>
        <time>2022-12-12T11:30:41.773Z</time>
      </trkpt>
      <trkpt lat="48.21041" lon="-3.31707">
        <ele>206.762982</ele>
        <time>2022-12-12T11:30:44.764Z</time>
      </trkpt>
      <trkpt lat="48.21035" lon="-3.31694">
        <ele>206.743542</ele>
        <time>2022-12-12T11:30:47.752Z</time>
      </trkpt>
      <trkpt lat="48.21028" lon="-3.3168">
        <ele>206.721718</ele>
        <time>2022-12-12T11:30:50.788Z</time>
      </trkpt>
      <trkpt lat="48.2102" lon="-3.31664">
        <ele>206.696917</ele>
        <time>2022-12-12T11:30:53.768Z</time>
      </trkpt>
      <trkpt lat="48.21014" lon="-3.31652">
        <ele>206.678277</ele>
        <time>2022-12-12T11:30:55.784Z</time>
      </trkpt>
      <trkpt lat="48.21008" lon="-3.31639">
        <ele>206.659745</ele>
        <time>2022-12-12T11:30:57.771Z</time>
      </trkpt>
      <trkpt lat="48.21002" lon="-3.31628">
        <ele>206.641903</ele>
        <time>2022-12-12T11:30:59.769Z</time>
      </trkpt>
      <trkpt lat="48.20997" lon="-3.31617">
        <ele>206.624577</ele>
        <time>2022-12-12T11:31:01.770Z</time>
      </trkpt>
      <trkpt lat="48.2099" lon="-3.31603">
        <ele>206.603279</ele>
        <time>2022-12-12T11:31:04.772Z</time>
      </trkpt>
      <trkpt lat="48.20984" lon="-3.31591">
        <ele>206.585143</ele>
        <time>2022-12-12T11:31:07.772Z</time>
      </trkpt>
      <trkpt lat="48.20977" lon="-3.31577">
        <ele>206.563597</ele>
        <time>2022-12-12T11:31:10.761Z</time>
      </trkpt>
      <trkpt lat="48.2097" lon="-3.31564">
        <ele>206.542792</ele>
        <time>2022-12-12T11:31:13.762Z</time>
      </trkpt>
      <trkpt lat="48.20964" lon="-3.31553">
        <ele>206.448756</ele>
        <time>2022-12-12T11:31:16.775Z</time>
      </trkpt>
      <trkpt lat="48.20957" lon="-3.3154">
        <ele>206.307318</ele>
        <time>2022-12-12T11:31:19.778Z</time>
      </trkpt>
      <trkpt lat="48.2095" lon="-3.31525">
        <ele>206.145859</ele>
        <time>2022-12-12T11:31:22.763Z</time>
      </trkpt>
      <trkpt lat="48.20944" lon="-3.31512">
        <ele>206.003472</ele>
        <time>2022-12-12T11:31:25.776Z</time>
      </trkpt>
      <trkpt lat="48.20937" lon="-3.31498">
        <ele>205.845919</ele>
        <time>2022-12-12T11:31:28.778Z</time>
      </trkpt>
      <trkpt lat="48.20931" lon="-3.31485">
        <ele>205.703579</ele>
        <time>2022-12-12T11:31:31.753Z</time>
      </trkpt>
      <trkpt lat="48.20924" lon="-3.31471">
        <ele>205.556784</ele>
        <time>2022-12-12T11:31:34.773Z</time>
      </trkpt>
      <trkpt lat="48.20916" lon="-3.31456">
        <ele>205.391106</ele>
        <time>2022-12-12T11:31:37.780Z</time>
      </trkpt>
      <trkpt lat="48.20909" lon="-3.31442">
        <ele>205.229269</ele>
        <time>2022-12-12T11:31:40.769Z</time>
      </trkpt>
      <trkpt lat="48.20902" lon="-3.31428">
        <ele>205.075551</ele>
        <time>2022-12-12T11:31:43.749Z</time>
      </trkpt>
      <trkpt lat="48.20895" lon="-3.31416">
        <ele>204.935136</ele>
        <time>2022-12-12T11:31:46.778Z</time>
      </trkpt>
      <trkpt lat="48.20889" lon="-3.31404">
        <ele>204.803195</ele>
        <time>2022-12-12T11:31:49.775Z</time>
      </trkpt>
      <trkpt lat="48.20883" lon="-3.31393">
        <ele>204.676735</ele>
        <time>2022-12-12T11:31:52.776Z</time>
      </trkpt>
      <trkpt lat="48.20876" lon="-3.31379">
        <ele>204.523365</ele>
        <time>2022-12-12T11:31:56.767Z</time>
      </trkpt>
      <trkpt lat="48.20869" lon="-3.31364">
        <ele>204.360829</ele>
        <time>2022-12-12T11:32:00.780Z</time>
      </trkpt>
      <trkpt lat="48.20862" lon="-3.31351">
        <ele>204.218828</ele>
        <time>2022-12-12T11:32:03.778Z</time>
      </trkpt>
      <trkpt lat="48.20855" lon="-3.31338">
        <ele>204.115974</ele>
        <time>2022-12-12T11:32:06.772Z</time>
      </trkpt>
      <trkpt lat="48.20849" lon="-3.31326">
        <ele>204.052792</ele>
        <time>2022-12-12T11:32:09.775Z</time>
      </trkpt>
      <trkpt lat="48.20841" lon="-3.31311">
        <ele>203.973054</ele>
        <time>2022-12-12T11:32:12.773Z</time>
      </trkpt>
      <trkpt lat="48.20835" lon="-3.31298">
        <ele>203.904355</ele>
        <time>2022-12-12T11:32:15.781Z</time>
      </trkpt>
      <trkpt lat="48.20828" lon="-3.31285">
        <ele>203.832037</ele>
        <time>2022-12-12T11:32:18.776Z</time>
      </trkpt>
      <trkpt lat="48.2082" lon="-3.31269">
        <ele>203.74898</ele>
        <time>2022-12-12T11:32:21.777Z</time>
      </trkpt>
      <trkpt lat="48.20813" lon="-3.31253">
        <ele>203.669386</ele>
        <time>2022-12-12T11:32:24.773Z</time>
      </trkpt>
      <trkpt lat="48.20805" lon="-3.3124">
        <ele>203.59668</ele>
        <time>2022-12-12T11:32:27.776Z</time>
      </trkpt>
      <trkpt lat="48.20798" lon="-3.31227">
        <ele>203.526269</ele>
        <time>2022-12-12T11:32:30.782Z</time>
      </trkpt>
      <trkpt lat="48.20791" lon="-3.31215">
        <ele>203.459567</ele>
        <time>2022-12-12T11:32:33.779Z</time>
      </trkpt>
      <trkpt lat="48.20786" lon="-3.31203">
        <ele>203.396863</ele>
        <time>2022-12-12T11:32:36.782Z</time>
      </trkpt>
      <trkpt lat="48.20781" lon="-3.3119">
        <ele>203.335181</ele>
        <time>2022-12-12T11:32:39.776Z</time>
      </trkpt>
      <trkpt lat="48.20773" lon="-3.31176">
        <ele>203.260309</ele>
        <time>2022-12-12T11:32:42.776Z</time>
      </trkpt>
      <trkpt lat="48.20767" lon="-3.31163">
        <ele>203.189132</ele>
        <time>2022-12-12T11:32:45.770Z</time>
      </trkpt>
      <trkpt lat="48.2076" lon="-3.31149">
        <ele>203.119065</ele>
        <time>2022-12-12T11:32:48.780Z</time>
      </trkpt>
      <trkpt lat="48.20753" lon="-3.31139">
        <ele>203.057153</ele>
        <time>2022-12-12T11:32:51.774Z</time>
      </trkpt>
      <trkpt lat="48.20748" lon="-3.31127">
        <ele>203.02568</ele>
        <time>2022-12-12T11:32:54.756Z</time>
      </trkpt>
      <trkpt lat="48.20742" lon="-3.31115">
        <ele>203.033527</ele>
        <time>2022-12-12T11:32:57.762Z</time>
      </trkpt>
      <trkpt lat="48.20736" lon="-3.311">
        <ele>203.043064</ele>
        <time>2022-12-12T11:33:00.778Z</time>
      </trkpt>
      <trkpt lat="48.20727" lon="-3.31087">
        <ele>203.053271</ele>
        <time>2022-12-12T11:33:03.756Z</time>
      </trkpt>
      <trkpt lat="48.2072" lon="-3.31072">
        <ele>203.06318</ele>
        <time>2022-12-12T11:33:06.780Z</time>
      </trkpt>
      <trkpt lat="48.20714" lon="-3.3106">
        <ele>203.071779</ele>
        <time>2022-12-12T11:33:09.771Z</time>
      </trkpt>
      <trkpt lat="48.20706" lon="-3.31045">
        <ele>203.081713</ele>
        <time>2022-12-12T11:33:12.780Z</time>
      </trkpt>
      <trkpt lat="48.207" lon="-3.31033">
        <ele>203.09056</ele>
        <time>2022-12-12T11:33:15.782Z</time>
      </trkpt>
      <trkpt lat="48.20693" lon="-3.31019">
        <ele>203.099823</ele>
        <time>2022-12-12T11:33:18.772Z</time>
      </trkpt>
      <trkpt lat="48.20687" lon="-3.31006">
        <ele>203.108499</ele>
        <time>2022-12-12T11:33:21.778Z</time>
      </trkpt>
      <trkpt lat="48.20681" lon="-3.30993">
        <ele>203.117304</ele>
        <time>2022-12-12T11:33:24.756Z</time>
      </trkpt>
      <trkpt lat="48.20673" lon="-3.30978">
        <ele>203.127787</ele>
        <time>2022-12-12T11:33:27.779Z</time>
      </trkpt>
      <trkpt lat="48.20665" lon="-3.30963">
        <ele>203.138038</ele>
        <time>2022-12-12T11:33:30.783Z</time>
      </trkpt>
      <trkpt lat="48.20659" lon="-3.3095">
        <ele>203.147169</ele>
        <time>2022-12-12T11:33:33.779Z</time>
      </trkpt>
      <trkpt lat="48.20653" lon="-3.30937">
        <ele>203.155682</ele>
        <time>2022-12-12T11:33:36.771Z</time>
      </trkpt>
      <trkpt lat="48.20647" lon="-3.30923">
        <ele>203.165086</ele>
        <time>2022-12-12T11:33:39.773Z</time>
      </trkpt>
      <trkpt lat="48.20639" lon="-3.3091">
        <ele>203.124827</ele>
        <time>2022-12-12T11:33:42.760Z</time>
      </trkpt>
      <trkpt lat="48.20631" lon="-3.30895">
        <ele>203.019194</ele>
        <time>2022-12-12T11:33:45.768Z</time>
      </trkpt>
      <trkpt lat="48.20623" lon="-3.30882">
        <ele>202.923936</ele>
        <time>2022-12-12T11:33:48.781Z</time>
      </trkpt>
      <trkpt lat="48.20617" lon="-3.3087">
        <ele>202.839068</ele>
        <time>2022-12-12T11:33:51.765Z</time>
      </trkpt>
      <trkpt lat="48.2061" lon="-3.30856">
        <ele>202.740939</ele>
        <time>2022-12-12T11:33:54.780Z</time>
      </trkpt>
      <trkpt lat="48.20603" lon="-3.30843">
        <ele>202.650901</ele>
        <time>2022-12-12T11:33:57.780Z</time>
      </trkpt>
      <trkpt lat="48.20596" lon="-3.3083">
        <ele>202.56285</ele>
        <time>2022-12-12T11:34:00.755Z</time>
      </trkpt>
      <trkpt lat="48.2059" lon="-3.30817">
        <ele>202.475173</ele>
        <time>2022-12-12T11:34:03.752Z</time>
      </trkpt>
      <trkpt lat="48.20583" lon="-3.30805">
        <ele>202.381688</ele>
        <time>2022-12-12T11:34:06.763Z</time>
      </trkpt>
      <trkpt lat="48.20577" lon="-3.30792">
        <ele>202.299058</ele>
        <time>2022-12-12T11:34:09.778Z</time>
      </trkpt>
      <trkpt lat="48.20571" lon="-3.3078">
        <ele>202.215372</ele>
        <time>2022-12-12T11:34:12.767Z</time>
      </trkpt>
      <trkpt lat="48.20564" lon="-3.30767">
        <ele>202.124651</ele>
        <time>2022-12-12T11:34:15.783Z</time>
      </trkpt>
      <trkpt lat="48.20557" lon="-3.30751">
        <ele>202.016239</ele>
        <time>2022-12-12T11:34:18.780Z</time>
      </trkpt>
      <trkpt lat="48.20552" lon="-3.3074">
        <ele>201.939584</ele>
        <time>2022-12-12T11:34:20.780Z</time>
      </trkpt>
      <trkpt lat="48.20544" lon="-3.30724">
        <ele>201.829347</ele>
        <time>2022-12-12T11:34:23.781Z</time>
      </trkpt>
      <trkpt lat="48.20536" lon="-3.3071">
        <ele>201.730494</ele>
        <time>2022-12-12T11:34:26.773Z</time>
      </trkpt>
      <trkpt lat="48.20529" lon="-3.30696">
        <ele>201.823038</ele>
        <time>2022-12-12T11:34:29.773Z</time>
      </trkpt>
      <trkpt lat="48.20524" lon="-3.30682">
        <ele>202.107786</ele>
        <time>2022-12-12T11:34:32.769Z</time>
      </trkpt>
      <trkpt lat="48.2052" lon="-3.30667">
        <ele>202.404962</ele>
        <time>2022-12-12T11:34:35.757Z</time>
      </trkpt>
      <trkpt lat="48.20515" lon="-3.30651">
        <ele>202.705813</ele>
        <time>2022-12-12T11:34:38.765Z</time>
      </trkpt>
      <trkpt lat="48.20513" lon="-3.30635">
        <ele>202.994112</ele>
        <time>2022-12-12T11:34:41.756Z</time>
      </trkpt>
      <trkpt lat="48.20513" lon="-3.3062">
        <ele>203.254658</ele>
        <time>2022-12-12T11:34:44.756Z</time>
      </trkpt>
      <trkpt lat="48.20513" lon="-3.30603">
        <ele>203.549065</ele>
        <time>2022-12-12T11:34:47.775Z</time>
      </trkpt>
      <trkpt lat="48.20513" lon="-3.30587">
        <ele>203.839524</ele>
        <time>2022-12-12T11:34:50.774Z</time>
      </trkpt>
      <trkpt lat="48.20513" lon="-3.3057">
        <ele>204.132328</ele>
        <time>2022-12-12T11:34:53.754Z</time>
      </trkpt>
      <trkpt lat="48.20513" lon="-3.30553">
        <ele>204.435398</ele>
        <time>2022-12-12T11:34:56.754Z</time>
      </trkpt>
      <trkpt lat="48.20513" lon="-3.30537">
        <ele>204.724688</ele>
        <time>2022-12-12T11:34:59.783Z</time>
      </trkpt>
      <trkpt lat="48.20514" lon="-3.30521">
        <ele>205.009915</ele>
        <time>2022-12-12T11:35:02.780Z</time>
      </trkpt>
      <trkpt lat="48.20514" lon="-3.30507">
        <ele>205.25638</ele>
        <time>2022-12-12T11:35:05.766Z</time>
      </trkpt>
      <trkpt lat="48.20513" lon="-3.30492">
        <ele>205.517127</ele>
        <time>2022-12-12T11:35:09.771Z</time>
      </trkpt>
      <trkpt lat="48.20514" lon="-3.30475">
        <ele>205.814815</ele>
        <time>2022-12-12T11:35:14.754Z</time>
      </trkpt>
      <trkpt lat="48.20513" lon="-3.30461">
        <ele>206.059861</ele>
        <time>2022-12-12T11:35:17.758Z</time>
      </trkpt>
      <trkpt lat="48.20512" lon="-3.30446">
        <ele>206.318227</ele>
        <time>2022-12-12T11:35:20.760Z</time>
      </trkpt>
      <trkpt lat="48.20511" lon="-3.30432">
        <ele>206.355111</ele>
        <time>2022-12-12T11:35:22.771Z</time>
      </trkpt>
      <trkpt lat="48.20512" lon="-3.30414">
        <ele>206.185628</ele>
        <time>2022-12-12T11:35:25.772Z</time>
      </trkpt>
      <trkpt lat="48.20513" lon="-3.30396">
        <ele>206.011244</ele>
        <time>2022-12-12T11:35:28.769Z</time>
      </trkpt>
      <trkpt lat="48.20512" lon="-3.3038">
        <ele>205.859671</ele>
        <time>2022-12-12T11:35:31.754Z</time>
      </trkpt>
      <trkpt lat="48.20512" lon="-3.30364">
        <ele>205.704002</ele>
        <time>2022-12-12T11:35:34.781Z</time>
      </trkpt>
      <trkpt lat="48.20511" lon="-3.30347">
        <ele>205.545031</ele>
        <time>2022-12-12T11:35:37.777Z</time>
      </trkpt>
      <trkpt lat="48.20512" lon="-3.30329">
        <ele>205.373689</ele>
        <time>2022-12-12T11:35:40.761Z</time>
      </trkpt>
      <trkpt lat="48.20511" lon="-3.30311">
        <ele>205.200444</ele>
        <time>2022-12-12T11:35:43.776Z</time>
      </trkpt>
      <trkpt lat="48.20511" lon="-3.30296">
        <ele>205.06142</ele>
        <time>2022-12-12T11:35:46.779Z</time>
      </trkpt>
      <trkpt lat="48.2051" lon="-3.3028">
        <ele>204.903853</ele>
        <time>2022-12-12T11:35:49.771Z</time>
      </trkpt>
      <trkpt lat="48.2051" lon="-3.30265">
        <ele>204.76186</ele>
        <time>2022-12-12T11:35:52.779Z</time>
      </trkpt>
      <trkpt lat="48.20509" lon="-3.30251">
        <ele>204.631398</ele>
        <time>2022-12-12T11:35:55.772Z</time>
      </trkpt>
      <trkpt lat="48.20509" lon="-3.30237">
        <ele>204.500054</ele>
        <time>2022-12-12T11:35:58.774Z</time>
      </trkpt>
      <trkpt lat="48.20507" lon="-3.3022">
        <ele>204.334297</ele>
        <time>2022-12-12T11:36:01.756Z</time>
      </trkpt>
      <trkpt lat="48.20505" lon="-3.30204">
        <ele>204.181302</ele>
        <time>2022-12-12T11:36:04.780Z</time>
      </trkpt>
      <trkpt lat="48.20503" lon="-3.30186">
        <ele>204.00865</ele>
        <time>2022-12-12T11:36:07.781Z</time>
      </trkpt>
      <trkpt lat="48.20503" lon="-3.30169">
        <ele>203.879403</ele>
        <time>2022-12-12T11:36:10.766Z</time>
      </trkpt>
      <trkpt lat="48.20502" lon="-3.30151">
        <ele>203.986395</ele>
        <time>2022-12-12T11:36:13.779Z</time>
      </trkpt>
      <trkpt lat="48.205" lon="-3.30136">
        <ele>204.079955</ele>
        <time>2022-12-12T11:36:16.778Z</time>
      </trkpt>
      <trkpt lat="48.205" lon="-3.3012">
        <ele>204.174738</ele>
        <time>2022-12-12T11:36:19.779Z</time>
      </trkpt>
      <trkpt lat="48.20499" lon="-3.30105">
        <ele>204.265861</ele>
        <time>2022-12-12T11:36:22.778Z</time>
      </trkpt>
      <trkpt lat="48.20498" lon="-3.3009">
        <ele>204.354322</ele>
        <time>2022-12-12T11:36:25.777Z</time>
      </trkpt>
      <trkpt lat="48.20497" lon="-3.30075">
        <ele>204.445181</ele>
        <time>2022-12-12T11:36:28.776Z</time>
      </trkpt>
      <trkpt lat="48.20496" lon="-3.3006">
        <ele>204.53867</ele>
        <time>2022-12-12T11:36:31.776Z</time>
      </trkpt>
      <trkpt lat="48.20494" lon="-3.30044">
        <ele>204.635115</ele>
        <time>2022-12-12T11:36:34.774Z</time>
      </trkpt>
      <trkpt lat="48.20494" lon="-3.30026">
        <ele>204.741333</ele>
        <time>2022-12-12T11:36:37.751Z</time>
      </trkpt>
      <trkpt lat="48.20494" lon="-3.3001">
        <ele>204.841991</ele>
        <time>2022-12-12T11:36:40.757Z</time>
      </trkpt>
      <trkpt lat="48.20494" lon="-3.29995">
        <ele>204.93244</ele>
        <time>2022-12-12T11:36:43.776Z</time>
      </trkpt>
      <trkpt lat="48.20493" lon="-3.29981">
        <ele>205.017544</ele>
        <time>2022-12-12T11:36:46.778Z</time>
      </trkpt>
      <trkpt lat="48.20493" lon="-3.29964">
        <ele>205.11462</ele>
        <time>2022-12-12T11:36:49.760Z</time>
      </trkpt>
      <trkpt lat="48.20491" lon="-3.29945">
        <ele>205.231135</ele>
        <time>2022-12-12T11:36:52.761Z</time>
      </trkpt>
      <trkpt lat="48.2049" lon="-3.2993">
        <ele>205.32649</ele>
        <time>2022-12-12T11:36:55.759Z</time>
      </trkpt>
      <trkpt lat="48.20488" lon="-3.29913">
        <ele>205.426073</ele>
        <time>2022-12-12T11:36:58.778Z</time>
      </trkpt>
      <trkpt lat="48.20487" lon="-3.29897">
        <ele>205.46815</ele>
        <time>2022-12-12T11:37:01.776Z</time>
      </trkpt>
      <trkpt lat="48.20485" lon="-3.29881">
        <ele>205.407292</ele>
        <time>2022-12-12T11:37:04.758Z</time>
      </trkpt>
      <trkpt lat="48.20484" lon="-3.29863">
        <ele>205.339618</ele>
        <time>2022-12-12T11:37:07.761Z</time>
      </trkpt>
      <trkpt lat="48.20482" lon="-3.29844">
        <ele>205.265091</ele>
        <time>2022-12-12T11:37:10.780Z</time>
      </trkpt>
      <trkpt lat="48.2048" lon="-3.29826">
        <ele>205.197256</ele>
        <time>2022-12-12T11:37:13.780Z</time>
      </trkpt>
      <trkpt lat="48.20479" lon="-3.29808">
        <ele>205.129177</ele>
        <time>2022-12-12T11:37:16.755Z</time>
      </trkpt>
      <trkpt lat="48.20478" lon="-3.29791">
        <ele>205.062865</ele>
        <time>2022-12-12T11:37:19.783Z</time>
      </trkpt>
      <trkpt lat="48.20477" lon="-3.29774">
        <ele>204.997261</ele>
        <time>2022-12-12T11:37:22.779Z</time>
      </trkpt>
      <trkpt lat="48.20475" lon="-3.29756">
        <ele>204.930467</ele>
        <time>2022-12-12T11:37:25.763Z</time>
      </trkpt>
      <trkpt lat="48.20476" lon="-3.29741">
        <ele>204.870436</ele>
        <time>2022-12-12T11:37:28.774Z</time>
      </trkpt>
      <trkpt lat="48.20475" lon="-3.29726">
        <ele>204.815736</ele>
        <time>2022-12-12T11:37:31.777Z</time>
      </trkpt>
      <trkpt lat="48.20474" lon="-3.29712">
        <ele>204.76094</ele>
        <time>2022-12-12T11:37:34.781Z</time>
      </trkpt>
      <trkpt lat="48.20473" lon="-3.29698">
        <ele>204.708101</ele>
        <time>2022-12-12T11:37:37.780Z</time>
      </trkpt>
      <trkpt lat="48.20472" lon="-3.29685">
        <ele>204.65669</ele>
        <time>2022-12-12T11:37:40.778Z</time>
      </trkpt>
      <trkpt lat="48.20471" lon="-3.29669">
        <ele>204.595798</ele>
        <time>2022-12-12T11:37:43.773Z</time>
      </trkpt>
      <trkpt lat="48.20471" lon="-3.29654">
        <ele>204.540354</ele>
        <time>2022-12-12T11:37:46.751Z</time>
      </trkpt>
      <trkpt lat="48.20468" lon="-3.29637">
        <ele>204.471784</ele>
        <time>2022-12-12T11:37:49.758Z</time>
      </trkpt>
      <trkpt lat="48.20469" lon="-3.29622">
        <ele>204.481432</ele>
        <time>2022-12-12T11:37:52.762Z</time>
      </trkpt>
      <trkpt lat="48.20467" lon="-3.29605">
        <ele>204.500727</ele>
        <time>2022-12-12T11:37:55.754Z</time>
      </trkpt>
      <trkpt lat="48.20465" lon="-3.2959">
        <ele>204.518885</ele>
        <time>2022-12-12T11:37:58.770Z</time>
      </trkpt>
      <trkpt lat="48.20461" lon="-3.29576">
        <ele>204.53713</ele>
        <time>2022-12-12T11:38:01.750Z</time>
      </trkpt>
      <trkpt lat="48.20458" lon="-3.29559">
        <ele>204.557293</ele>
        <time>2022-12-12T11:38:04.767Z</time>
      </trkpt>
      <trkpt lat="48.20455" lon="-3.29546">
        <ele>204.573262</ele>
        <time>2022-12-12T11:38:07.780Z</time>
      </trkpt>
      <trkpt lat="48.2045" lon="-3.2953">
        <ele>204.594411</ele>
        <time>2022-12-12T11:38:11.773Z</time>
      </trkpt>
      <trkpt lat="48.20445" lon="-3.29517">
        <ele>204.611806</ele>
        <time>2022-12-12T11:38:14.760Z</time>
      </trkpt>
      <trkpt lat="48.20439" lon="-3.29503">
        <ele>204.63188</ele>
        <time>2022-12-12T11:38:17.771Z</time>
      </trkpt>
      <trkpt lat="48.20431" lon="-3.29489">
        <ele>204.65288</ele>
        <time>2022-12-12T11:38:20.781Z</time>
      </trkpt>
      <trkpt lat="48.20424" lon="-3.29474">
        <ele>204.674622</ele>
        <time>2022-12-12T11:38:23.775Z</time>
      </trkpt>
      <trkpt lat="48.20417" lon="-3.29459">
        <ele>204.696598</ele>
        <time>2022-12-12T11:38:26.771Z</time>
      </trkpt>
      <trkpt lat="48.20408" lon="-3.29445">
        <ele>204.718637</ele>
        <time>2022-12-12T11:38:29.778Z</time>
      </trkpt>
      <trkpt lat="48.20401" lon="-3.29434">
        <ele>204.737354</ele>
        <time>2022-12-12T11:38:32.778Z</time>
      </trkpt>
      <trkpt lat="48.20394" lon="-3.29422">
        <ele>204.756316</ele>
        <time>2022-12-12T11:38:35.769Z</time>
      </trkpt>
      <trkpt lat="48.20385" lon="-3.2941">
        <ele>204.777283</ele>
        <time>2022-12-12T11:38:38.774Z</time>
      </trkpt>
      <trkpt lat="48.20379" lon="-3.29399">
        <ele>204.862717</ele>
        <time>2022-12-12T11:38:41.771Z</time>
      </trkpt>
      <trkpt lat="48.20371" lon="-3.29387">
        <ele>204.998239</ele>
        <time>2022-12-12T11:38:45.775Z</time>
      </trkpt>
      <trkpt lat="48.20365" lon="-3.29375">
        <ele>205.122724</ele>
        <time>2022-12-12T11:38:48.761Z</time>
      </trkpt>
      <trkpt lat="48.20357" lon="-3.29362">
        <ele>205.274202</ele>
        <time>2022-12-12T11:38:51.758Z</time>
      </trkpt>
      <trkpt lat="48.20349" lon="-3.2935">
        <ele>205.416786</ele>
        <time>2022-12-12T11:38:54.783Z</time>
      </trkpt>
      <trkpt lat="48.20341" lon="-3.29337">
        <ele>205.557252</ele>
        <time>2022-12-12T11:38:57.781Z</time>
      </trkpt>
      <trkpt lat="48.20334" lon="-3.29323">
        <ele>205.700576</ele>
        <time>2022-12-12T11:39:00.780Z</time>
      </trkpt>
      <trkpt lat="48.20326" lon="-3.2931">
        <ele>205.852546</ele>
        <time>2022-12-12T11:39:03.778Z</time>
      </trkpt>
      <trkpt lat="48.20319" lon="-3.29297">
        <ele>205.995372</ele>
        <time>2022-12-12T11:39:06.775Z</time>
      </trkpt>
      <trkpt lat="48.20312" lon="-3.29285">
        <ele>206.126362</ele>
        <time>2022-12-12T11:39:09.775Z</time>
      </trkpt>
      <trkpt lat="48.20305" lon="-3.29275">
        <ele>206.244161</ele>
        <time>2022-12-12T11:39:12.780Z</time>
      </trkpt>
      <trkpt lat="48.20299" lon="-3.29265">
        <ele>206.359113</ele>
        <time>2022-12-12T11:39:15.783Z</time>
      </trkpt>
      <trkpt lat="48.20292" lon="-3.29253">
        <ele>206.487386</ele>
        <time>2022-12-12T11:39:18.768Z</time>
      </trkpt>
      <trkpt lat="48.20286" lon="-3.29242">
        <ele>206.607102</ele>
        <time>2022-12-12T11:39:21.771Z</time>
      </trkpt>
      <trkpt lat="48.20278" lon="-3.29231">
        <ele>206.74963</ele>
        <time>2022-12-12T11:39:25.757Z</time>
      </trkpt>
      <trkpt lat="48.20271" lon="-3.29219">
        <ele>206.876021</ele>
        <time>2022-12-12T11:39:28.756Z</time>
      </trkpt>
      <trkpt lat="48.20263" lon="-3.29207">
        <ele>207.020676</ele>
        <time>2022-12-12T11:39:31.783Z</time>
      </trkpt>
      <trkpt lat="48.20255" lon="-3.29194">
        <ele>206.727581</ele>
        <time>2022-12-12T11:39:34.773Z</time>
      </trkpt>
      <trkpt lat="48.20249" lon="-3.29181">
        <ele>206.431874</ele>
        <time>2022-12-12T11:39:37.780Z</time>
      </trkpt>
      <trkpt lat="48.20242" lon="-3.29168">
        <ele>206.11323</ele>
        <time>2022-12-12T11:39:40.773Z</time>
      </trkpt>
      <trkpt lat="48.20234" lon="-3.29153">
        <ele>205.744183</ele>
        <time>2022-12-12T11:39:43.750Z</time>
      </trkpt>
      <trkpt lat="48.20224" lon="-3.29137">
        <ele>205.348322</ele>
        <time>2022-12-12T11:39:46.780Z</time>
      </trkpt>
      <trkpt lat="48.20217" lon="-3.29126">
        <ele>205.049744</ele>
        <time>2022-12-12T11:39:48.779Z</time>
      </trkpt>
      <trkpt lat="48.2021" lon="-3.29115">
        <ele>204.768256</ele>
        <time>2022-12-12T11:39:50.780Z</time>
      </trkpt>
      <trkpt lat="48.20204" lon="-3.29105">
        <ele>204.505002</ele>
        <time>2022-12-12T11:39:52.778Z</time>
      </trkpt>
      <trkpt lat="48.20196" lon="-3.29092">
        <ele>204.164675</ele>
        <time>2022-12-12T11:39:55.780Z</time>
      </trkpt>
      <trkpt lat="48.20188" lon="-3.2908">
        <ele>203.836697</ele>
        <time>2022-12-12T11:39:58.779Z</time>
      </trkpt>
      <trkpt lat="48.20181" lon="-3.29067">
        <ele>203.533004</ele>
        <time>2022-12-12T11:40:01.779Z</time>
      </trkpt>
      <trkpt lat="48.20174" lon="-3.29054">
        <ele>203.209636</ele>
        <time>2022-12-12T11:40:04.775Z</time>
      </trkpt>
      <trkpt lat="48.20165" lon="-3.2904">
        <ele>202.853291</ele>
        <time>2022-12-12T11:40:07.780Z</time>
      </trkpt>
      <trkpt lat="48.20157" lon="-3.29025">
        <ele>202.4832</ele>
        <time>2022-12-12T11:40:10.780Z</time>
      </trkpt>
      <trkpt lat="48.20152" lon="-3.29014">
        <ele>202.226798</ele>
        <time>2022-12-12T11:40:12.751Z</time>
      </trkpt>
      <trkpt lat="48.20145" lon="-3.28996">
        <ele>201.964534</ele>
        <time>2022-12-12T11:40:15.762Z</time>
      </trkpt>
      <trkpt lat="48.2014" lon="-3.28985">
        <ele>202.06464</ele>
        <time>2022-12-12T11:40:17.756Z</time>
      </trkpt>
      <trkpt lat="48.20134" lon="-3.28968">
        <ele>202.210771</ele>
        <time>2022-12-12T11:40:20.760Z</time>
      </trkpt>
      <trkpt lat="48.2013" lon="-3.28952">
        <ele>202.335055</ele>
        <time>2022-12-12T11:40:23.776Z</time>
      </trkpt>
      <trkpt lat="48.20129" lon="-3.28937">
        <ele>202.446101</ele>
        <time>2022-12-12T11:40:26.759Z</time>
      </trkpt>
      <trkpt lat="48.20127" lon="-3.2892">
        <ele>202.569324</ele>
        <time>2022-12-12T11:40:29.775Z</time>
      </trkpt>
      <trkpt lat="48.20127" lon="-3.28902">
        <ele>202.703269</ele>
        <time>2022-12-12T11:40:32.776Z</time>
      </trkpt>
      <trkpt lat="48.20125" lon="-3.28884">
        <ele>202.834458</ele>
        <time>2022-12-12T11:40:35.774Z</time>
      </trkpt>
      <trkpt lat="48.20125" lon="-3.28866">
        <ele>202.96746</ele>
        <time>2022-12-12T11:40:38.766Z</time>
      </trkpt>
      <trkpt lat="48.20124" lon="-3.28849">
        <ele>203.098251</ele>
        <time>2022-12-12T11:40:41.759Z</time>
      </trkpt>
      <trkpt lat="48.20124" lon="-3.28831">
        <ele>203.229653</ele>
        <time>2022-12-12T11:40:44.769Z</time>
      </trkpt>
      <trkpt lat="48.20124" lon="-3.28812">
        <ele>203.366197</ele>
        <time>2022-12-12T11:40:47.778Z</time>
      </trkpt>
      <trkpt lat="48.20125" lon="-3.28795">
        <ele>203.492354</ele>
        <time>2022-12-12T11:40:51.760Z</time>
      </trkpt>
      <trkpt lat="48.20126" lon="-3.2878">
        <ele>203.609981</ele>
        <time>2022-12-12T11:40:54.776Z</time>
      </trkpt>
      <trkpt lat="48.20126" lon="-3.28761">
        <ele>203.749463</ele>
        <time>2022-12-12T11:40:57.755Z</time>
      </trkpt>
      <trkpt lat="48.20126" lon="-3.28741">
        <ele>203.895788</ele>
        <time>2022-12-12T11:41:00.773Z</time>
      </trkpt>
      <trkpt lat="48.20126" lon="-3.28722">
        <ele>204.034668</ele>
        <time>2022-12-12T11:41:03.774Z</time>
      </trkpt>
      <trkpt lat="48.20128" lon="-3.28705">
        <ele>204.170726</ele>
        <time>2022-12-12T11:41:06.775Z</time>
      </trkpt>
      <trkpt lat="48.20132" lon="-3.28685">
        <ele>204.325563</ele>
        <time>2022-12-12T11:41:09.780Z</time>
      </trkpt>
      <trkpt lat="48.20137" lon="-3.28667">
        <ele>204.469873</ele>
        <time>2022-12-12T11:41:12.758Z</time>
      </trkpt>
      <trkpt lat="48.20142" lon="-3.28653">
        <ele>204.591588</ele>
        <time>2022-12-12T11:41:15.753Z</time>
      </trkpt>
      <trkpt lat="48.20149" lon="-3.2864">
        <ele>204.720445</ele>
        <time>2022-12-12T11:41:18.762Z</time>
      </trkpt>
      <trkpt lat="48.20159" lon="-3.2863">
        <ele>204.85619</ele>
        <time>2022-12-12T11:41:21.767Z</time>
      </trkpt>
      <trkpt lat="48.2017" lon="-3.28622">
        <ele>204.990391</ele>
        <time>2022-12-12T11:41:24.755Z</time>
      </trkpt>
      <trkpt lat="48.20181" lon="-3.28615">
        <ele>205.131309</ele>
        <time>2022-12-12T11:41:27.755Z</time>
      </trkpt>
      <trkpt lat="48.20194" lon="-3.28609">
        <ele>205.282108</ele>
        <time>2022-12-12T11:41:30.775Z</time>
      </trkpt>
      <trkpt lat="48.20206" lon="-3.28603">
        <ele>205.427688</ele>
        <time>2022-12-12T11:41:33.777Z</time>
      </trkpt>
      <trkpt lat="48.20219" lon="-3.28597">
        <ele>205.574186</ele>
        <time>2022-12-12T11:41:36.782Z</time>
      </trkpt>
      <trkpt lat="48.2023" lon="-3.28592">
        <ele>205.705032</ele>
        <time>2022-12-12T11:41:39.759Z</time>
      </trkpt>
      <trkpt lat="48.20241" lon="-3.28587">
        <ele>205.84002</ele>
        <time>2022-12-12T11:41:42.778Z</time>
      </trkpt>
      <trkpt lat="48.20252" lon="-3.28582">
        <ele>205.955918</ele>
        <time>2022-12-12T11:41:45.778Z</time>
      </trkpt>
      <trkpt lat="48.20263" lon="-3.28576">
        <ele>205.935337</ele>
        <time>2022-12-12T11:41:48.776Z</time>
      </trkpt>
      <trkpt lat="48.20272" lon="-3.28572">
        <ele>205.919109</ele>
        <time>2022-12-12T11:41:50.777Z</time>
      </trkpt>
      <trkpt lat="48.20284" lon="-3.28565">
        <ele>205.896237</ele>
        <time>2022-12-12T11:41:53.778Z</time>
      </trkpt>
      <trkpt lat="48.20296" lon="-3.2856">
        <ele>205.874052</ele>
        <time>2022-12-12T11:41:56.777Z</time>
      </trkpt>
      <trkpt lat="48.20305" lon="-3.28556">
        <ele>205.858095</ele>
        <time>2022-12-12T11:41:58.779Z</time>
      </trkpt>
      <trkpt lat="48.20317" lon="-3.28549">
        <ele>205.835799</ele>
        <time>2022-12-12T11:42:01.780Z</time>
      </trkpt>
      <trkpt lat="48.20328" lon="-3.28544">
        <ele>205.815589</ele>
        <time>2022-12-12T11:42:04.774Z</time>
      </trkpt>
      <trkpt lat="48.20339" lon="-3.28539">
        <ele>205.794818</ele>
        <time>2022-12-12T11:42:07.772Z</time>
      </trkpt>
      <trkpt lat="48.20351" lon="-3.28533">
        <ele>205.773737</ele>
        <time>2022-12-12T11:42:10.776Z</time>
      </trkpt>
      <trkpt lat="48.20362" lon="-3.28527">
        <ele>205.753157</ele>
        <time>2022-12-12T11:42:13.778Z</time>
      </trkpt>
      <trkpt lat="48.20373" lon="-3.28522">
        <ele>205.731706</ele>
        <time>2022-12-12T11:42:16.759Z</time>
      </trkpt>
      <trkpt lat="48.20385" lon="-3.28516">
        <ele>205.710194</ele>
        <time>2022-12-12T11:42:19.757Z</time>
      </trkpt>
      <trkpt lat="48.20397" lon="-3.2851">
        <ele>205.687557</ele>
        <time>2022-12-12T11:42:22.780Z</time>
      </trkpt>
      <trkpt lat="48.20409" lon="-3.28504">
        <ele>205.665341</ele>
        <time>2022-12-12T11:42:25.780Z</time>
      </trkpt>
      <trkpt lat="48.20421" lon="-3.28497">
        <ele>205.643703</ele>
        <time>2022-12-12T11:42:28.775Z</time>
      </trkpt>
      <trkpt lat="48.20432" lon="-3.28491">
        <ele>205.472178</ele>
        <time>2022-12-12T11:42:31.778Z</time>
      </trkpt>
      <trkpt lat="48.20443" lon="-3.28484">
        <ele>205.27694</ele>
        <time>2022-12-12T11:42:34.766Z</time>
      </trkpt>
      <trkpt lat="48.20454" lon="-3.28479">
        <ele>205.091222</ele>
        <time>2022-12-12T11:42:37.782Z</time>
      </trkpt>
      <trkpt lat="48.20466" lon="-3.28473">
        <ele>204.888085</ele>
        <time>2022-12-12T11:42:40.764Z</time>
      </trkpt>
      <trkpt lat="48.20478" lon="-3.28467">
        <ele>204.694649</ele>
        <time>2022-12-12T11:42:43.776Z</time>
      </trkpt>
      <trkpt lat="48.20488" lon="-3.28461">
        <ele>204.514658</ele>
        <time>2022-12-12T11:42:46.769Z</time>
      </trkpt>
      <trkpt lat="48.20498" lon="-3.28453">
        <ele>204.342212</ele>
        <time>2022-12-12T11:42:49.764Z</time>
      </trkpt>
      <trkpt lat="48.20507" lon="-3.28444">
        <ele>204.161418</ele>
        <time>2022-12-12T11:42:52.774Z</time>
      </trkpt>
      <trkpt lat="48.20517" lon="-3.28433">
        <ele>203.97905</ele>
        <time>2022-12-12T11:42:55.760Z</time>
      </trkpt>
      <trkpt lat="48.20525" lon="-3.28422">
        <ele>203.80028</ele>
        <time>2022-12-12T11:42:58.776Z</time>
      </trkpt>
      <trkpt lat="48.20532" lon="-3.28408">
        <ele>203.61941</ele>
        <time>2022-12-12T11:43:01.775Z</time>
      </trkpt>
      <trkpt lat="48.20538" lon="-3.28394">
        <ele>203.438693</ele>
        <time>2022-12-12T11:43:04.759Z</time>
      </trkpt>
      <trkpt lat="48.20542" lon="-3.28378">
        <ele>203.25516</ele>
        <time>2022-12-12T11:43:07.762Z</time>
      </trkpt>
      <trkpt lat="48.20546" lon="-3.28361">
        <ele>203.0643</ele>
        <time>2022-12-12T11:43:10.765Z</time>
      </trkpt>
      <trkpt lat="48.20549" lon="-3.28343">
        <ele>202.87201</ele>
        <time>2022-12-12T11:43:13.756Z</time>
      </trkpt>
      <trkpt lat="48.20551" lon="-3.28324">
        <ele>202.723963</ele>
        <time>2022-12-12T11:43:16.760Z</time>
      </trkpt>
      <trkpt lat="48.20553" lon="-3.28306">
        <ele>202.614737</ele>
        <time>2022-12-12T11:43:19.782Z</time>
      </trkpt>
      <trkpt lat="48.20554" lon="-3.2829">
        <ele>202.51801</ele>
        <time>2022-12-12T11:43:22.772Z</time>
      </trkpt>
      <trkpt lat="48.20555" lon="-3.2827">
        <ele>202.405896</ele>
        <time>2022-12-12T11:43:25.782Z</time>
      </trkpt>
      <trkpt lat="48.20556" lon="-3.28252">
        <ele>202.300815</ele>
        <time>2022-12-12T11:43:28.775Z</time>
      </trkpt>
      <trkpt lat="48.20557" lon="-3.28234">
        <ele>202.191978</ele>
        <time>2022-12-12T11:43:31.781Z</time>
      </trkpt>
      <trkpt lat="48.20559" lon="-3.28215">
        <ele>202.081631</ele>
        <time>2022-12-12T11:43:34.770Z</time>
      </trkpt>
      <trkpt lat="48.2056" lon="-3.28196">
        <ele>201.968</ele>
        <time>2022-12-12T11:43:37.777Z</time>
      </trkpt>
      <trkpt lat="48.20562" lon="-3.28176">
        <ele>201.854948</ele>
        <time>2022-12-12T11:43:40.769Z</time>
      </trkpt>
      <trkpt lat="48.20563" lon="-3.2816">
        <ele>201.757508</ele>
        <time>2022-12-12T11:43:43.783Z</time>
      </trkpt>
      <trkpt lat="48.20565" lon="-3.28145">
        <ele>201.669831</ele>
        <time>2022-12-12T11:43:46.777Z</time>
      </trkpt>
      <trkpt lat="48.20567" lon="-3.28128">
        <ele>201.567341</ele>
        <time>2022-12-12T11:43:49.784Z</time>
      </trkpt>
      <trkpt lat="48.20567" lon="-3.28109">
        <ele>201.461184</ele>
        <time>2022-12-12T11:43:52.770Z</time>
      </trkpt>
      <trkpt lat="48.20568" lon="-3.28091">
        <ele>201.353918</ele>
        <time>2022-12-12T11:43:55.765Z</time>
      </trkpt>
      <trkpt lat="48.20567" lon="-3.28074">
        <ele>201.256451</ele>
        <time>2022-12-12T11:43:58.777Z</time>
      </trkpt>
      <trkpt lat="48.20565" lon="-3.28058">
        <ele>201.244611</ele>
        <time>2022-12-12T11:44:01.774Z</time>
      </trkpt>
      <trkpt lat="48.20562" lon="-3.28042">
        <ele>201.307709</ele>
        <time>2022-12-12T11:44:04.775Z</time>
      </trkpt>
      <trkpt lat="48.20558" lon="-3.28026">
        <ele>201.370526</ele>
        <time>2022-12-12T11:44:07.782Z</time>
      </trkpt>
      <trkpt lat="48.20553" lon="-3.28011">
        <ele>201.433169</ele>
        <time>2022-12-12T11:44:10.757Z</time>
      </trkpt>
      <trkpt lat="48.20547" lon="-3.27999">
        <ele>201.493591</ele>
        <time>2022-12-12T11:44:14.761Z</time>
      </trkpt>
      <trkpt lat="48.20539" lon="-3.27987">
        <ele>201.554131</ele>
        <time>2022-12-12T11:44:18.776Z</time>
      </trkpt>
      <trkpt lat="48.20531" lon="-3.27976">
        <ele>201.618145</ele>
        <time>2022-12-12T11:44:22.788Z</time>
      </trkpt>
      <trkpt lat="48.20523" lon="-3.27967">
        <ele>201.673359</ele>
        <time>2022-12-12T11:44:25.758Z</time>
      </trkpt>
      <trkpt lat="48.20514" lon="-3.2796">
        <ele>201.731211</ele>
        <time>2022-12-12T11:44:28.774Z</time>
      </trkpt>
      <trkpt lat="48.20505" lon="-3.27954">
        <ele>201.790434</ele>
        <time>2022-12-12T11:44:31.780Z</time>
      </trkpt>
      <trkpt lat="48.20495" lon="-3.27948">
        <ele>201.850455</ele>
        <time>2022-12-12T11:44:34.775Z</time>
      </trkpt>
      <trkpt lat="48.20485" lon="-3.27944">
        <ele>201.907909</ele>
        <time>2022-12-12T11:44:37.758Z</time>
      </trkpt>
      <trkpt lat="48.20475" lon="-3.27939">
        <ele>201.966654</ele>
        <time>2022-12-12T11:44:40.775Z</time>
      </trkpt>
      <trkpt lat="48.20465" lon="-3.27936">
        <ele>202.025469</ele>
        <time>2022-12-12T11:44:43.779Z</time>
      </trkpt>
      <trkpt lat="48.20454" lon="-3.27932">
        <ele>202.086081</ele>
        <time>2022-12-12T11:44:46.777Z</time>
      </trkpt>
      <trkpt lat="48.20444" lon="-3.27929">
        <ele>202.145359</ele>
        <time>2022-12-12T11:44:49.781Z</time>
      </trkpt>
      <trkpt lat="48.20433" lon="-3.27925">
        <ele>202.210077</ele>
        <time>2022-12-12T11:44:52.780Z</time>
      </trkpt>
      <trkpt lat="48.20423" lon="-3.27923">
        <ele>202.181982</ele>
        <time>2022-12-12T11:44:55.780Z</time>
      </trkpt>
      <trkpt lat="48.20412" lon="-3.27919">
        <ele>202.096103</ele>
        <time>2022-12-12T11:44:59.783Z</time>
      </trkpt>
      <trkpt lat="48.20403" lon="-3.27916">
        <ele>202.026435</ele>
        <time>2022-12-12T11:45:03.784Z</time>
      </trkpt>
      <trkpt lat="48.20404" lon="-3.27915">
        <ele>202.016697</ele>
        <time>2022-12-12T11:45:30.035Z</time>
      </trkpt>
      <trkpt lat="48.20391" lon="-3.2791">
        <ele>201.915855</ele>
        <time>2022-12-12T11:56:23.770Z</time>
      </trkpt>
      <trkpt lat="48.20382" lon="-3.27906">
        <ele>201.845804</ele>
        <time>2022-12-12T11:56:26.774Z</time>
      </trkpt>
      <trkpt lat="48.20372" lon="-3.27902">
        <ele>201.769771</ele>
        <time>2022-12-12T11:56:29.781Z</time>
      </trkpt>
      <trkpt lat="48.20361" lon="-3.27898">
        <ele>201.687227</ele>
        <time>2022-12-12T11:56:32.782Z</time>
      </trkpt>
      <trkpt lat="48.20352" lon="-3.27893">
        <ele>201.610463</ele>
        <time>2022-12-12T11:56:35.788Z</time>
      </trkpt>
      <trkpt lat="48.20342" lon="-3.27888">
        <ele>201.535168</ele>
        <time>2022-12-12T11:56:38.771Z</time>
      </trkpt>
      <trkpt lat="48.20333" lon="-3.27883">
        <ele>201.466253</ele>
        <time>2022-12-12T11:56:41.776Z</time>
      </trkpt>
      <trkpt lat="48.20324" lon="-3.27879">
        <ele>201.397338</ele>
        <time>2022-12-12T11:56:44.788Z</time>
      </trkpt>
      <trkpt lat="48.20315" lon="-3.27875">
        <ele>201.328134</ele>
        <time>2022-12-12T11:56:47.783Z</time>
      </trkpt>
      <trkpt lat="48.20305" lon="-3.27871">
        <ele>201.245033</ele>
        <time>2022-12-12T11:56:50.791Z</time>
      </trkpt>
      <trkpt lat="48.20294" lon="-3.27867">
        <ele>201.166593</ele>
        <time>2022-12-12T11:56:53.782Z</time>
      </trkpt>
      <trkpt lat="48.20283" lon="-3.27862">
        <ele>201.080858</ele>
        <time>2022-12-12T11:56:56.781Z</time>
      </trkpt>
      <trkpt lat="48.20271" lon="-3.27858">
        <ele>200.990567</ele>
        <time>2022-12-12T11:56:59.786Z</time>
      </trkpt>
      <trkpt lat="48.2026" lon="-3.27853">
        <ele>200.90476</ele>
        <time>2022-12-12T11:57:02.781Z</time>
      </trkpt>
      <trkpt lat="48.20251" lon="-3.27849">
        <ele>200.847653</ele>
        <time>2022-12-12T11:57:05.778Z</time>
      </trkpt>
      <trkpt lat="48.20241" lon="-3.27842">
        <ele>200.78144</ele>
        <time>2022-12-12T11:57:09.770Z</time>
      </trkpt>
      <trkpt lat="48.2023" lon="-3.27832">
        <ele>200.708211</ele>
        <time>2022-12-12T11:57:13.765Z</time>
      </trkpt>
      <trkpt lat="48.20224" lon="-3.27823">
        <ele>200.652871</ele>
        <time>2022-12-12T11:57:16.779Z</time>
      </trkpt>
      <trkpt lat="48.20218" lon="-3.27811">
        <ele>200.593857</ele>
        <time>2022-12-12T11:57:20.768Z</time>
      </trkpt>
      <trkpt lat="48.20211" lon="-3.27796">
        <ele>200.526144</ele>
        <time>2022-12-12T11:57:25.774Z</time>
      </trkpt>
      <trkpt lat="48.20208" lon="-3.27783">
        <ele>200.469078</ele>
        <time>2022-12-12T11:57:29.759Z</time>
      </trkpt>
      <trkpt lat="48.20206" lon="-3.27766">
        <ele>200.403197</ele>
        <time>2022-12-12T11:57:33.781Z</time>
      </trkpt>
      <trkpt lat="48.20204" lon="-3.27752">
        <ele>200.345421</ele>
        <time>2022-12-12T11:57:36.780Z</time>
      </trkpt>
      <trkpt lat="48.20203" lon="-3.27734">
        <ele>200.276656</ele>
        <time>2022-12-12T11:57:40.767Z</time>
      </trkpt>
      <trkpt lat="48.202" lon="-3.2772">
        <ele>200.217852</ele>
        <time>2022-12-12T11:57:43.781Z</time>
      </trkpt>
      <trkpt lat="48.20198" lon="-3.27706">
        <ele>200.161314</ele>
        <time>2022-12-12T11:57:46.770Z</time>
      </trkpt>
      <trkpt lat="48.20196" lon="-3.27691">
        <ele>200.102774</ele>
        <time>2022-12-12T11:57:49.783Z</time>
      </trkpt>
      <trkpt lat="48.20194" lon="-3.27674">
        <ele>200.03331</ele>
        <time>2022-12-12T11:57:52.773Z</time>
      </trkpt>
      <trkpt lat="48.20192" lon="-3.27657">
        <ele>199.965449</ele>
        <time>2022-12-12T11:57:55.765Z</time>
      </trkpt>
      <trkpt lat="48.20191" lon="-3.2764">
        <ele>199.897333</ele>
        <time>2022-12-12T11:57:58.778Z</time>
      </trkpt>
      <trkpt lat="48.20188" lon="-3.27622">
        <ele>199.777994</ele>
        <time>2022-12-12T11:58:01.774Z</time>
      </trkpt>
      <trkpt lat="48.20186" lon="-3.27607">
        <ele>199.401652</ele>
        <time>2022-12-12T11:58:04.776Z</time>
      </trkpt>
      <trkpt lat="48.20186" lon="-3.27593">
        <ele>199.061633</ele>
        <time>2022-12-12T11:58:08.769Z</time>
      </trkpt>
      <trkpt lat="48.20185" lon="-3.27575">
        <ele>198.648966</ele>
        <time>2022-12-12T11:58:12.787Z</time>
      </trkpt>
      <trkpt lat="48.20183" lon="-3.27558">
        <ele>198.226822</ele>
        <time>2022-12-12T11:58:16.767Z</time>
      </trkpt>
      <trkpt lat="48.20182" lon="-3.27543">
        <ele>197.869309</ele>
        <time>2022-12-12T11:58:19.768Z</time>
      </trkpt>
      <trkpt lat="48.20181" lon="-3.27529">
        <ele>197.510771</ele>
        <time>2022-12-12T11:58:22.780Z</time>
      </trkpt>
      <trkpt lat="48.20179" lon="-3.27511">
        <ele>197.06818</ele>
        <time>2022-12-12T11:58:26.771Z</time>
      </trkpt>
      <trkpt lat="48.20178" lon="-3.27494">
        <ele>196.671469</ele>
        <time>2022-12-12T11:58:29.780Z</time>
      </trkpt>
      <trkpt lat="48.20176" lon="-3.27477">
        <ele>196.246372</ele>
        <time>2022-12-12T11:58:32.782Z</time>
      </trkpt>
      <trkpt lat="48.20174" lon="-3.27461">
        <ele>195.849156</ele>
        <time>2022-12-12T11:58:35.782Z</time>
      </trkpt>
      <trkpt lat="48.20172" lon="-3.27447">
        <ele>195.5016</ele>
        <time>2022-12-12T11:58:38.786Z</time>
      </trkpt>
      <trkpt lat="48.20172" lon="-3.27429">
        <ele>195.086918</ele>
        <time>2022-12-12T11:58:42.781Z</time>
      </trkpt>
      <trkpt lat="48.2017" lon="-3.27415">
        <ele>194.740839</ele>
        <time>2022-12-12T11:58:45.782Z</time>
      </trkpt>
      <trkpt lat="48.20168" lon="-3.27401">
        <ele>194.393283</ele>
        <time>2022-12-12T11:58:48.778Z</time>
      </trkpt>
      <trkpt lat="48.20167" lon="-3.27384">
        <ele>193.976335</ele>
        <time>2022-12-12T11:58:52.762Z</time>
      </trkpt>
      <trkpt lat="48.20165" lon="-3.2737">
        <ele>193.622238</ele>
        <time>2022-12-12T11:58:55.763Z</time>
      </trkpt>
      <trkpt lat="48.20161" lon="-3.27355">
        <ele>193.364354</ele>
        <time>2022-12-12T11:58:58.763Z</time>
      </trkpt>
      <trkpt lat="48.20158" lon="-3.2734">
        <ele>193.532927</ele>
        <time>2022-12-12T11:59:02.777Z</time>
      </trkpt>
      <trkpt lat="48.20153" lon="-3.27326">
        <ele>193.696078</ele>
        <time>2022-12-12T11:59:05.762Z</time>
      </trkpt>
      <trkpt lat="48.20149" lon="-3.27313">
        <ele>193.848186</ele>
        <time>2022-12-12T11:59:08.782Z</time>
      </trkpt>
      <trkpt lat="48.20144" lon="-3.27299">
        <ele>194.01583</ele>
        <time>2022-12-12T11:59:11.786Z</time>
      </trkpt>
      <trkpt lat="48.20139" lon="-3.27285">
        <ele>194.189132</ele>
        <time>2022-12-12T11:59:14.784Z</time>
      </trkpt>
      <trkpt lat="48.20134" lon="-3.27271">
        <ele>194.354902</ele>
        <time>2022-12-12T11:59:17.785Z</time>
      </trkpt>
      <trkpt lat="48.20129" lon="-3.27255">
        <ele>194.535819</ele>
        <time>2022-12-12T11:59:20.782Z</time>
      </trkpt>
      <trkpt lat="48.20124" lon="-3.27241">
        <ele>194.70852</ele>
        <time>2022-12-12T11:59:23.781Z</time>
      </trkpt>
      <trkpt lat="48.20119" lon="-3.27226">
        <ele>194.891327</ele>
        <time>2022-12-12T11:59:26.784Z</time>
      </trkpt>
      <trkpt lat="48.20114" lon="-3.27211">
        <ele>195.063467</ele>
        <time>2022-12-12T11:59:29.765Z</time>
      </trkpt>
      <trkpt lat="48.20109" lon="-3.27197">
        <ele>195.239163</ele>
        <time>2022-12-12T11:59:32.779Z</time>
      </trkpt>
      <trkpt lat="48.20104" lon="-3.27183">
        <ele>195.399188</ele>
        <time>2022-12-12T11:59:35.780Z</time>
      </trkpt>
      <trkpt lat="48.201" lon="-3.2717">
        <ele>195.554207</ele>
        <time>2022-12-12T11:59:38.787Z</time>
      </trkpt>
      <trkpt lat="48.20095" lon="-3.27157">
        <ele>195.715172</ele>
        <time>2022-12-12T11:59:41.785Z</time>
      </trkpt>
      <trkpt lat="48.2009" lon="-3.27143">
        <ele>195.885868</ele>
        <time>2022-12-12T11:59:44.773Z</time>
      </trkpt>
      <trkpt lat="48.20085" lon="-3.27128">
        <ele>196.060906</ele>
        <time>2022-12-12T11:59:47.780Z</time>
      </trkpt>
      <trkpt lat="48.20078" lon="-3.27116">
        <ele>196.23033</ele>
        <time>2022-12-12T11:59:50.782Z</time>
      </trkpt>
      <trkpt lat="48.20072" lon="-3.27106">
        <ele>196.402975</ele>
        <time>2022-12-12T11:59:53.778Z</time>
      </trkpt>
      <trkpt lat="48.20064" lon="-3.27096">
        <ele>196.577197</ele>
        <time>2022-12-12T11:59:56.781Z</time>
      </trkpt>
      <trkpt lat="48.20054" lon="-3.27085">
        <ele>196.806528</ele>
        <time>2022-12-12T12:00:00.770Z</time>
      </trkpt>
      <trkpt lat="48.20046" lon="-3.27076">
        <ele>196.996984</ele>
        <time>2022-12-12T12:00:03.773Z</time>
      </trkpt>
      <trkpt lat="48.20036" lon="-3.27068">
        <ele>197.192092</ele>
        <time>2022-12-12T12:00:06.777Z</time>
      </trkpt>
      <trkpt lat="48.20027" lon="-3.27061">
        <ele>197.386778</ele>
        <time>2022-12-12T12:00:09.779Z</time>
      </trkpt>
      <trkpt lat="48.20017" lon="-3.27057">
        <ele>197.568414</ele>
        <time>2022-12-12T12:00:12.768Z</time>
      </trkpt>
      <trkpt lat="48.20006" lon="-3.27049">
        <ele>197.780389</ele>
        <time>2022-12-12T12:00:15.781Z</time>
      </trkpt>
      <trkpt lat="48.19995" lon="-3.27044">
        <ele>197.986198</ele>
        <time>2022-12-12T12:00:18.765Z</time>
      </trkpt>
      <trkpt lat="48.19985" lon="-3.27041">
        <ele>198.187322</ele>
        <time>2022-12-12T12:00:21.782Z</time>
      </trkpt>
      <trkpt lat="48.19974" lon="-3.27038">
        <ele>198.381995</ele>
        <time>2022-12-12T12:00:24.782Z</time>
      </trkpt>
      <trkpt lat="48.19963" lon="-3.27036">
        <ele>198.588417</ele>
        <time>2022-12-12T12:00:27.781Z</time>
      </trkpt>
      <trkpt lat="48.19953" lon="-3.27033">
        <ele>198.773109</ele>
        <time>2022-12-12T12:00:30.778Z</time>
      </trkpt>
      <trkpt lat="48.19943" lon="-3.27031">
        <ele>198.956935</ele>
        <time>2022-12-12T12:00:33.761Z</time>
      </trkpt>
      <trkpt lat="48.19933" lon="-3.27027">
        <ele>199.143818</ele>
        <time>2022-12-12T12:00:36.763Z</time>
      </trkpt>
      <trkpt lat="48.19924" lon="-3.27025">
        <ele>199.308206</ele>
        <time>2022-12-12T12:00:39.782Z</time>
      </trkpt>
      <trkpt lat="48.19913" lon="-3.27024">
        <ele>199.447725</ele>
        <time>2022-12-12T12:00:42.786Z</time>
      </trkpt>
      <trkpt lat="48.19902" lon="-3.27025">
        <ele>199.469964</ele>
        <time>2022-12-12T12:00:45.780Z</time>
      </trkpt>
      <trkpt lat="48.19892" lon="-3.27026">
        <ele>199.490133</ele>
        <time>2022-12-12T12:00:48.778Z</time>
      </trkpt>
      <trkpt lat="48.19881" lon="-3.27031">
        <ele>199.512282</ele>
        <time>2022-12-12T12:00:51.781Z</time>
      </trkpt>
      <trkpt lat="48.1987" lon="-3.27035">
        <ele>199.534121</ele>
        <time>2022-12-12T12:00:54.782Z</time>
      </trkpt>
      <trkpt lat="48.19861" lon="-3.27042">
        <ele>199.554407</ele>
        <time>2022-12-12T12:00:57.764Z</time>
      </trkpt>
      <trkpt lat="48.19852" lon="-3.27047">
        <ele>199.572705</ele>
        <time>2022-12-12T12:01:00.779Z</time>
      </trkpt>
      <trkpt lat="48.19844" lon="-3.27055">
        <ele>199.592188</ele>
        <time>2022-12-12T12:01:03.765Z</time>
      </trkpt>
      <trkpt lat="48.19836" lon="-3.27065">
        <ele>199.612403</ele>
        <time>2022-12-12T12:01:06.786Z</time>
      </trkpt>
      <trkpt lat="48.19829" lon="-3.27074">
        <ele>199.630267</ele>
        <time>2022-12-12T12:01:09.782Z</time>
      </trkpt>
      <trkpt lat="48.19822" lon="-3.27084">
        <ele>199.649496</ele>
        <time>2022-12-12T12:01:12.791Z</time>
      </trkpt>
      <trkpt lat="48.19815" lon="-3.27096">
        <ele>199.669929</ele>
        <time>2022-12-12T12:01:15.761Z</time>
      </trkpt>
      <trkpt lat="48.1981" lon="-3.27107">
        <ele>199.689011</ele>
        <time>2022-12-12T12:01:18.774Z</time>
      </trkpt>
      <trkpt lat="48.19803" lon="-3.27122">
        <ele>199.711577</ele>
        <time>2022-12-12T12:01:21.787Z</time>
      </trkpt>
      <trkpt lat="48.19798" lon="-3.27135">
        <ele>199.731483</ele>
        <time>2022-12-12T12:01:24.788Z</time>
      </trkpt>
      <trkpt lat="48.19793" lon="-3.27148">
        <ele>199.75187</ele>
        <time>2022-12-12T12:01:27.781Z</time>
      </trkpt>
      <trkpt lat="48.19787" lon="-3.27163">
        <ele>199.774134</ele>
        <time>2022-12-12T12:01:30.779Z</time>
      </trkpt>
      <trkpt lat="48.19782" lon="-3.27178">
        <ele>199.793225</ele>
        <time>2022-12-12T12:01:33.785Z</time>
      </trkpt>
      <trkpt lat="48.19776" lon="-3.27192">
        <ele>199.65225</ele>
        <time>2022-12-12T12:01:36.787Z</time>
      </trkpt>
      <trkpt lat="48.19771" lon="-3.27205">
        <ele>199.520142</ele>
        <time>2022-12-12T12:01:39.786Z</time>
      </trkpt>
      <trkpt lat="48.19765" lon="-3.27218">
        <ele>199.385228</ele>
        <time>2022-12-12T12:01:43.780Z</time>
      </trkpt>
      <trkpt lat="48.1976" lon="-3.27233">
        <ele>199.236392</ele>
        <time>2022-12-12T12:01:47.782Z</time>
      </trkpt>
      <trkpt lat="48.19754" lon="-3.27244">
        <ele>199.111374</ele>
        <time>2022-12-12T12:01:50.786Z</time>
      </trkpt>
      <trkpt lat="48.19744" lon="-3.27255">
        <ele>198.957368</ele>
        <time>2022-12-12T12:01:54.773Z</time>
      </trkpt>
      <trkpt lat="48.19734" lon="-3.2726">
        <ele>198.818544</ele>
        <time>2022-12-12T12:01:58.771Z</time>
      </trkpt>
      <trkpt lat="48.19725" lon="-3.27264">
        <ele>198.687936</ele>
        <time>2022-12-12T12:02:01.773Z</time>
      </trkpt>
      <trkpt lat="48.19714" lon="-3.27266">
        <ele>198.555753</ele>
        <time>2022-12-12T12:02:04.761Z</time>
      </trkpt>
      <trkpt lat="48.19703" lon="-3.27266">
        <ele>198.408764</ele>
        <time>2022-12-12T12:02:07.782Z</time>
      </trkpt>
      <trkpt lat="48.19693" lon="-3.27263">
        <ele>198.277575</ele>
        <time>2022-12-12T12:02:10.768Z</time>
      </trkpt>
      <trkpt lat="48.19684" lon="-3.27259">
        <ele>198.154</ele>
        <time>2022-12-12T12:02:13.782Z</time>
      </trkpt>
      <trkpt lat="48.19676" lon="-3.27252">
        <ele>198.029028</ele>
        <time>2022-12-12T12:02:16.764Z</time>
      </trkpt>
      <trkpt lat="48.19668" lon="-3.27241">
        <ele>197.889251</ele>
        <time>2022-12-12T12:02:20.761Z</time>
      </trkpt>
      <trkpt lat="48.19663" lon="-3.27226">
        <ele>197.742653</ele>
        <time>2022-12-12T12:02:24.764Z</time>
      </trkpt>
      <trkpt lat="48.19661" lon="-3.27211">
        <ele>197.61281</ele>
        <time>2022-12-12T12:02:27.774Z</time>
      </trkpt>
      <trkpt lat="48.1966" lon="-3.27195">
        <ele>197.472364</ele>
        <time>2022-12-12T12:02:30.763Z</time>
      </trkpt>
      <trkpt lat="48.1966" lon="-3.27179">
        <ele>197.167487</ele>
        <time>2022-12-12T12:02:33.786Z</time>
      </trkpt>
      <trkpt lat="48.19664" lon="-3.27167">
        <ele>196.88659</ele>
        <time>2022-12-12T12:02:36.763Z</time>
      </trkpt>
      <trkpt lat="48.19667" lon="-3.27152">
        <ele>196.57052</ele>
        <time>2022-12-12T12:02:39.786Z</time>
      </trkpt>
      <trkpt lat="48.1967" lon="-3.27136">
        <ele>196.231848</ele>
        <time>2022-12-12T12:02:42.780Z</time>
      </trkpt>
      <trkpt lat="48.19674" lon="-3.27121">
        <ele>195.886386</ele>
        <time>2022-12-12T12:02:45.767Z</time>
      </trkpt>
      <trkpt lat="48.19678" lon="-3.27102">
        <ele>195.486846</ele>
        <time>2022-12-12T12:02:48.785Z</time>
      </trkpt>
      <trkpt lat="48.19681" lon="-3.27083">
        <ele>195.093491</ele>
        <time>2022-12-12T12:02:51.785Z</time>
      </trkpt>
      <trkpt lat="48.19684" lon="-3.2707">
        <ele>194.795039</ele>
        <time>2022-12-12T12:02:54.778Z</time>
      </trkpt>
      <trkpt lat="48.19687" lon="-3.27056">
        <ele>194.486768</ele>
        <time>2022-12-12T12:02:57.772Z</time>
      </trkpt>
      <trkpt lat="48.1969" lon="-3.27041">
        <ele>194.179481</ele>
        <time>2022-12-12T12:03:00.788Z</time>
      </trkpt>
      <trkpt lat="48.19693" lon="-3.27027">
        <ele>193.874871</ele>
        <time>2022-12-12T12:03:03.783Z</time>
      </trkpt>
      <trkpt lat="48.19695" lon="-3.27012">
        <ele>193.546386</ele>
        <time>2022-12-12T12:03:06.764Z</time>
      </trkpt>
      <trkpt lat="48.197" lon="-3.26998">
        <ele>193.218368</ele>
        <time>2022-12-12T12:03:10.781Z</time>
      </trkpt>
      <trkpt lat="48.19704" lon="-3.26982">
        <ele>192.877685</ele>
        <time>2022-12-12T12:03:14.777Z</time>
      </trkpt>
      <trkpt lat="48.19706" lon="-3.26964">
        <ele>192.501637</ele>
        <time>2022-12-12T12:03:19.785Z</time>
      </trkpt>
      <trkpt lat="48.19705" lon="-3.26948">
        <ele>192.162844</ele>
        <time>2022-12-12T12:03:22.776Z</time>
      </trkpt>
      <trkpt lat="48.19702" lon="-3.26933">
        <ele>191.938315</ele>
        <time>2022-12-12T12:03:25.782Z</time>
      </trkpt>
      <trkpt lat="48.19698" lon="-3.26916">
        <ele>192.289323</ele>
        <time>2022-12-12T12:03:28.784Z</time>
      </trkpt>
      <trkpt lat="48.19693" lon="-3.26898">
        <ele>192.667318</ele>
        <time>2022-12-12T12:03:31.760Z</time>
      </trkpt>
      <trkpt lat="48.19688" lon="-3.26881">
        <ele>193.048773</ele>
        <time>2022-12-12T12:03:34.783Z</time>
      </trkpt>
      <trkpt lat="48.19683" lon="-3.26863">
        <ele>193.409618</ele>
        <time>2022-12-12T12:03:37.778Z</time>
      </trkpt>
      <trkpt lat="48.19679" lon="-3.26849">
        <ele>193.711777</ele>
        <time>2022-12-12T12:03:40.774Z</time>
      </trkpt>
      <trkpt lat="48.19677" lon="-3.26836">
        <ele>193.989284</ele>
        <time>2022-12-12T12:03:43.765Z</time>
      </trkpt>
      <trkpt lat="48.19674" lon="-3.26822">
        <ele>194.258976</ele>
        <time>2022-12-12T12:03:46.774Z</time>
      </trkpt>
      <trkpt lat="48.1967" lon="-3.26807">
        <ele>194.576827</ele>
        <time>2022-12-12T12:03:50.772Z</time>
      </trkpt>
      <trkpt lat="48.19666" lon="-3.2679">
        <ele>194.936366</ele>
        <time>2022-12-12T12:03:54.771Z</time>
      </trkpt>
      <trkpt lat="48.19661" lon="-3.26772">
        <ele>195.317994</ele>
        <time>2022-12-12T12:03:57.784Z</time>
      </trkpt>
      <trkpt lat="48.19657" lon="-3.26758">
        <ele>195.621734</ele>
        <time>2022-12-12T12:03:59.782Z</time>
      </trkpt>
      <trkpt lat="48.19654" lon="-3.26745">
        <ele>195.895581</ele>
        <time>2022-12-12T12:04:01.763Z</time>
      </trkpt>
      <trkpt lat="48.19649" lon="-3.26727">
        <ele>196.268467</ele>
        <time>2022-12-12T12:04:04.781Z</time>
      </trkpt>
      <trkpt lat="48.19645" lon="-3.2671">
        <ele>196.618028</ele>
        <time>2022-12-12T12:04:07.773Z</time>
      </trkpt>
      <trkpt lat="48.19641" lon="-3.26695">
        <ele>196.949566</ele>
        <time>2022-12-12T12:04:10.768Z</time>
      </trkpt>
      <trkpt lat="48.19637" lon="-3.26677">
        <ele>197.148209</ele>
        <time>2022-12-12T12:04:13.765Z</time>
      </trkpt>
      <trkpt lat="48.19633" lon="-3.26659">
        <ele>197.028748</ele>
        <time>2022-12-12T12:04:16.772Z</time>
      </trkpt>
      <trkpt lat="48.19629" lon="-3.2664">
        <ele>196.908042</ele>
        <time>2022-12-12T12:04:19.766Z</time>
      </trkpt>
      <trkpt lat="48.19624" lon="-3.26622">
        <ele>196.786562</ele>
        <time>2022-12-12T12:04:22.781Z</time>
      </trkpt>
      <trkpt lat="48.1962" lon="-3.2661">
        <ele>196.701992</ele>
        <time>2022-12-12T12:04:24.778Z</time>
      </trkpt>
      <trkpt lat="48.19615" lon="-3.26591">
        <ele>196.578086</ele>
        <time>2022-12-12T12:04:27.780Z</time>
      </trkpt>
      <trkpt lat="48.19611" lon="-3.26572">
        <ele>196.457682</ele>
        <time>2022-12-12T12:04:30.763Z</time>
      </trkpt>
      <trkpt lat="48.19608" lon="-3.26558">
        <ele>196.366185</ele>
        <time>2022-12-12T12:04:33.780Z</time>
      </trkpt>
      <trkpt lat="48.19606" lon="-3.26543">
        <ele>196.274037</ele>
        <time>2022-12-12T12:04:36.786Z</time>
      </trkpt>
      <trkpt lat="48.19604" lon="-3.26529">
        <ele>196.187837</ele>
        <time>2022-12-12T12:04:39.778Z</time>
      </trkpt>
      <trkpt lat="48.19604" lon="-3.26514">
        <ele>196.095087</ele>
        <time>2022-12-12T12:04:42.774Z</time>
      </trkpt>
      <trkpt lat="48.19603" lon="-3.26497">
        <ele>195.987199</ele>
        <time>2022-12-12T12:04:45.779Z</time>
      </trkpt>
      <trkpt lat="48.19601" lon="-3.26477">
        <ele>195.86693</ele>
        <time>2022-12-12T12:04:48.778Z</time>
      </trkpt>
      <trkpt lat="48.19598" lon="-3.26458">
        <ele>195.747545</ele>
        <time>2022-12-12T12:04:51.787Z</time>
      </trkpt>
      <trkpt lat="48.19596" lon="-3.2644">
        <ele>195.633785</ele>
        <time>2022-12-12T12:04:54.781Z</time>
      </trkpt>
      <trkpt lat="48.19595" lon="-3.26423">
        <ele>195.530183</ele>
        <time>2022-12-12T12:04:58.773Z</time>
      </trkpt>
      <trkpt lat="48.19595" lon="-3.2641">
        <ele>195.833203</ele>
        <time>2022-12-12T12:05:01.764Z</time>
      </trkpt>
      <trkpt lat="48.19594" lon="-3.26395">
        <ele>196.159957</ele>
        <time>2022-12-12T12:05:04.777Z</time>
      </trkpt>
      <trkpt lat="48.19594" lon="-3.2638">
        <ele>196.501844</ele>
        <time>2022-12-12T12:05:07.780Z</time>
      </trkpt>
      <trkpt lat="48.1959" lon="-3.26362">
        <ele>196.93898</ele>
        <time>2022-12-12T12:05:10.767Z</time>
      </trkpt>
      <trkpt lat="48.19587" lon="-3.26347">
        <ele>197.277653</ele>
        <time>2022-12-12T12:05:13.785Z</time>
      </trkpt>
      <trkpt lat="48.19586" lon="-3.26328">
        <ele>197.712144</ele>
        <time>2022-12-12T12:05:17.780Z</time>
      </trkpt>
      <trkpt lat="48.19581" lon="-3.26312">
        <ele>198.130761</ele>
        <time>2022-12-12T12:05:20.761Z</time>
      </trkpt>
      <trkpt lat="48.19577" lon="-3.26299">
        <ele>198.443233</ele>
        <time>2022-12-12T12:05:23.772Z</time>
      </trkpt>
      <trkpt lat="48.19569" lon="-3.26284">
        <ele>198.865549</ele>
        <time>2022-12-12T12:05:26.761Z</time>
      </trkpt>
      <trkpt lat="48.19563" lon="-3.26272">
        <ele>199.202178</ele>
        <time>2022-12-12T12:05:28.780Z</time>
      </trkpt>
      <trkpt lat="48.19557" lon="-3.26261">
        <ele>199.532529</ele>
        <time>2022-12-12T12:05:30.784Z</time>
      </trkpt>
      <trkpt lat="48.19552" lon="-3.2625">
        <ele>199.846187</ele>
        <time>2022-12-12T12:05:32.779Z</time>
      </trkpt>
      <trkpt lat="48.19543" lon="-3.26237">
        <ele>200.275274</ele>
        <time>2022-12-12T12:05:35.764Z</time>
      </trkpt>
      <trkpt lat="48.19534" lon="-3.26225">
        <ele>200.664039</ele>
        <time>2022-12-12T12:05:38.784Z</time>
      </trkpt>
      <trkpt lat="48.19526" lon="-3.26216">
        <ele>201.021335</ele>
        <time>2022-12-12T12:05:41.774Z</time>
      </trkpt>
      <trkpt lat="48.19517" lon="-3.26207">
        <ele>201.369321</ele>
        <time>2022-12-12T12:05:44.787Z</time>
      </trkpt>
      <trkpt lat="48.19509" lon="-3.26198">
        <ele>201.592157</ele>
        <time>2022-12-12T12:05:47.784Z</time>
      </trkpt>
      <trkpt lat="48.195" lon="-3.26189">
        <ele>201.385826</ele>
        <time>2022-12-12T12:05:50.794Z</time>
      </trkpt>
      <trkpt lat="48.1949" lon="-3.26177">
        <ele>201.15286</ele>
        <time>2022-12-12T12:05:53.781Z</time>
      </trkpt>
      <trkpt lat="48.19479" lon="-3.26167">
        <ele>200.908599</ele>
        <time>2022-12-12T12:05:56.764Z</time>
      </trkpt>
      <trkpt lat="48.19469" lon="-3.26155">
        <ele>200.666562</ele>
        <time>2022-12-12T12:05:59.784Z</time>
      </trkpt>
      <trkpt lat="48.19458" lon="-3.26142">
        <ele>200.417544</ele>
        <time>2022-12-12T12:06:02.785Z</time>
      </trkpt>
      <trkpt lat="48.19452" lon="-3.26133">
        <ele>200.246595</ele>
        <time>2022-12-12T12:06:04.787Z</time>
      </trkpt>
      <trkpt lat="48.19443" lon="-3.2612">
        <ele>200.011847</ele>
        <time>2022-12-12T12:06:07.781Z</time>
      </trkpt>
      <trkpt lat="48.19439" lon="-3.26102">
        <ele>199.772456</ele>
        <time>2022-12-12T12:06:10.766Z</time>
      </trkpt>
      <trkpt lat="48.1944" lon="-3.26082">
        <ele>199.524157</ele>
        <time>2022-12-12T12:06:13.775Z</time>
      </trkpt>
      <trkpt lat="48.19443" lon="-3.26063">
        <ele>199.279641</ele>
        <time>2022-12-12T12:06:16.787Z</time>
      </trkpt>
      <trkpt lat="48.19447" lon="-3.26046">
        <ele>199.049883</ele>
        <time>2022-12-12T12:06:19.761Z</time>
      </trkpt>
      <trkpt lat="48.19454" lon="-3.26035">
        <ele>198.867863</ele>
        <time>2022-12-12T12:06:22.774Z</time>
      </trkpt>
      <trkpt lat="48.19462" lon="-3.26026">
        <ele>198.664979</ele>
        <time>2022-12-12T12:06:25.785Z</time>
      </trkpt>
      <trkpt lat="48.19472" lon="-3.26016">
        <ele>198.441465</ele>
        <time>2022-12-12T12:06:28.780Z</time>
      </trkpt>
      <trkpt lat="48.19481" lon="-3.26006">
        <ele>198.221922</ele>
        <time>2022-12-12T12:06:31.764Z</time>
      </trkpt>
      <trkpt lat="48.19491" lon="-3.25997">
        <ele>197.878543</ele>
        <time>2022-12-12T12:06:34.764Z</time>
      </trkpt>
      <trkpt lat="48.19501" lon="-3.25987">
        <ele>197.525892</ele>
        <time>2022-12-12T12:06:37.784Z</time>
      </trkpt>
      <trkpt lat="48.1951" lon="-3.25977">
        <ele>197.20641</ele>
        <time>2022-12-12T12:06:40.780Z</time>
      </trkpt>
      <trkpt lat="48.1952" lon="-3.2597">
        <ele>196.879728</ele>
        <time>2022-12-12T12:06:43.761Z</time>
      </trkpt>
      <trkpt lat="48.19528" lon="-3.25962">
        <ele>196.577085</ele>
        <time>2022-12-12T12:06:46.788Z</time>
      </trkpt>
      <trkpt lat="48.19538" lon="-3.25951">
        <ele>196.229512</ele>
        <time>2022-12-12T12:06:49.780Z</time>
      </trkpt>
      <trkpt lat="48.19547" lon="-3.25941">
        <ele>195.907867</ele>
        <time>2022-12-12T12:06:52.781Z</time>
      </trkpt>
      <trkpt lat="48.19555" lon="-3.25933">
        <ele>195.608314</ele>
        <time>2022-12-12T12:06:55.769Z</time>
      </trkpt>
      <trkpt lat="48.19564" lon="-3.25923">
        <ele>195.277206</ele>
        <time>2022-12-12T12:06:58.780Z</time>
      </trkpt>
      <trkpt lat="48.19575" lon="-3.25912">
        <ele>194.884269</ele>
        <time>2022-12-12T12:07:01.782Z</time>
      </trkpt>
      <trkpt lat="48.19583" lon="-3.25905">
        <ele>194.614013</ele>
        <time>2022-12-12T12:07:03.774Z</time>
      </trkpt>
      <trkpt lat="48.19592" lon="-3.25897">
        <ele>194.321987</ele>
        <time>2022-12-12T12:07:05.772Z</time>
      </trkpt>
      <trkpt lat="48.196" lon="-3.25888">
        <ele>194.015806</ele>
        <time>2022-12-12T12:07:07.783Z</time>
      </trkpt>
      <trkpt lat="48.1961" lon="-3.25878">
        <ele>193.669128</ele>
        <time>2022-12-12T12:07:09.783Z</time>
      </trkpt>
      <trkpt lat="48.19618" lon="-3.25869">
        <ele>193.36278</ele>
        <time>2022-12-12T12:07:11.780Z</time>
      </trkpt>
      <trkpt lat="48.19625" lon="-3.2586">
        <ele>193.088242</ele>
        <time>2022-12-12T12:07:13.764Z</time>
      </trkpt>
      <trkpt lat="48.19632" lon="-3.25845">
        <ele>192.836871</ele>
        <time>2022-12-12T12:07:16.766Z</time>
      </trkpt>
      <trkpt lat="48.19635" lon="-3.25832">
        <ele>192.677978</ele>
        <time>2022-12-12T12:07:19.766Z</time>
      </trkpt>
      <trkpt lat="48.19636" lon="-3.25817">
        <ele>192.510389</ele>
        <time>2022-12-12T12:07:22.771Z</time>
      </trkpt>
      <trkpt lat="48.19634" lon="-3.25799">
        <ele>192.303288</ele>
        <time>2022-12-12T12:07:25.773Z</time>
      </trkpt>
      <trkpt lat="48.19631" lon="-3.25781">
        <ele>192.091829</ele>
        <time>2022-12-12T12:07:28.786Z</time>
      </trkpt>
      <trkpt lat="48.19626" lon="-3.25763">
        <ele>191.87576</ele>
        <time>2022-12-12T12:07:31.778Z</time>
      </trkpt>
      <trkpt lat="48.19623" lon="-3.25745">
        <ele>191.666724</ele>
        <time>2022-12-12T12:07:34.786Z</time>
      </trkpt>
      <trkpt lat="48.1962" lon="-3.25732">
        <ele>191.51285</ele>
        <time>2022-12-12T12:07:36.790Z</time>
      </trkpt>
      <trkpt lat="48.19617" lon="-3.25713">
        <ele>191.290678</ele>
        <time>2022-12-12T12:07:39.782Z</time>
      </trkpt>
      <trkpt lat="48.19614" lon="-3.25696">
        <ele>191.08929</ele>
        <time>2022-12-12T12:07:42.767Z</time>
      </trkpt>
      <trkpt lat="48.19611" lon="-3.25678">
        <ele>190.87697</ele>
        <time>2022-12-12T12:07:45.777Z</time>
      </trkpt>
      <trkpt lat="48.19607" lon="-3.25664">
        <ele>190.703591</ele>
        <time>2022-12-12T12:07:47.780Z</time>
      </trkpt>
      <trkpt lat="48.19604" lon="-3.25647">
        <ele>190.510917</ele>
        <time>2022-12-12T12:07:49.770Z</time>
      </trkpt>
      <trkpt lat="48.196" lon="-3.25631">
        <ele>190.313553</ele>
        <time>2022-12-12T12:07:51.782Z</time>
      </trkpt>
      <trkpt lat="48.19597" lon="-3.25614">
        <ele>190.116066</ele>
        <time>2022-12-12T12:07:53.781Z</time>
      </trkpt>
      <trkpt lat="48.19595" lon="-3.25599">
        <ele>189.945004</ele>
        <time>2022-12-12T12:07:55.781Z</time>
      </trkpt>
      <trkpt lat="48.19592" lon="-3.25586">
        <ele>189.885543</ele>
        <time>2022-12-12T12:07:57.792Z</time>
      </trkpt>
      <trkpt lat="48.1959" lon="-3.25571">
        <ele>189.848588</ele>
        <time>2022-12-12T12:08:00.764Z</time>
      </trkpt>
      <trkpt lat="48.19587" lon="-3.25556">
        <ele>189.807456</ele>
        <time>2022-12-12T12:08:03.785Z</time>
      </trkpt>
      <trkpt lat="48.19585" lon="-3.25542">
        <ele>189.772685</ele>
        <time>2022-12-12T12:08:06.787Z</time>
      </trkpt>
      <trkpt lat="48.19582" lon="-3.25525">
        <ele>189.730385</ele>
        <time>2022-12-12T12:08:09.784Z</time>
      </trkpt>
      <trkpt lat="48.19579" lon="-3.25508">
        <ele>189.687457</ele>
        <time>2022-12-12T12:08:12.786Z</time>
      </trkpt>
      <trkpt lat="48.19577" lon="-3.25494">
        <ele>189.650995</ele>
        <time>2022-12-12T12:08:15.764Z</time>
      </trkpt>
      <trkpt lat="48.19575" lon="-3.25479">
        <ele>189.614621</ele>
        <time>2022-12-12T12:08:17.787Z</time>
      </trkpt>
      <trkpt lat="48.19571" lon="-3.25464">
        <ele>189.575465</ele>
        <time>2022-12-12T12:08:19.776Z</time>
      </trkpt>
      <trkpt lat="48.19569" lon="-3.25445">
        <ele>189.527744</ele>
        <time>2022-12-12T12:08:22.766Z</time>
      </trkpt>
      <trkpt lat="48.19564" lon="-3.25427">
        <ele>189.479616</ele>
        <time>2022-12-12T12:08:25.761Z</time>
      </trkpt>
      <trkpt lat="48.19561" lon="-3.25409">
        <ele>189.432996</ele>
        <time>2022-12-12T12:08:28.771Z</time>
      </trkpt>
      <trkpt lat="48.19557" lon="-3.25389">
        <ele>189.383326</ele>
        <time>2022-12-12T12:08:31.785Z</time>
      </trkpt>
      <trkpt lat="48.19554" lon="-3.25371">
        <ele>189.336958</ele>
        <time>2022-12-12T12:08:34.794Z</time>
      </trkpt>
      <trkpt lat="48.1955" lon="-3.25352">
        <ele>189.28823</ele>
        <time>2022-12-12T12:08:37.785Z</time>
      </trkpt>
      <trkpt lat="48.19547" lon="-3.25332">
        <ele>189.240662</ele>
        <time>2022-12-12T12:08:40.796Z</time>
      </trkpt>
      <trkpt lat="48.19544" lon="-3.25313">
        <ele>189.203008</ele>
        <time>2022-12-12T12:08:43.786Z</time>
      </trkpt>
      <trkpt lat="48.19541" lon="-3.25299">
        <ele>189.175337</ele>
        <time>2022-12-12T12:08:45.784Z</time>
      </trkpt>
      <trkpt lat="48.19538" lon="-3.2528">
        <ele>189.13829</ele>
        <time>2022-12-12T12:08:48.783Z</time>
      </trkpt>
      <trkpt lat="48.19535" lon="-3.25261">
        <ele>189.10253</ele>
        <time>2022-12-12T12:08:51.789Z</time>
      </trkpt>
      <trkpt lat="48.19532" lon="-3.25244">
        <ele>189.067941</ele>
        <time>2022-12-12T12:08:54.795Z</time>
      </trkpt>
      <trkpt lat="48.19528" lon="-3.25225">
        <ele>189.031459</ele>
        <time>2022-12-12T12:08:57.776Z</time>
      </trkpt>
      <trkpt lat="48.19524" lon="-3.25207">
        <ele>188.995432</ele>
        <time>2022-12-12T12:09:00.789Z</time>
      </trkpt>
      <trkpt lat="48.1952" lon="-3.25189">
        <ele>188.959296</ele>
        <time>2022-12-12T12:09:03.783Z</time>
      </trkpt>
      <trkpt lat="48.19517" lon="-3.2517">
        <ele>188.922316</ele>
        <time>2022-12-12T12:09:06.789Z</time>
      </trkpt>
      <trkpt lat="48.19515" lon="-3.25156">
        <ele>188.896124</ele>
        <time>2022-12-12T12:09:08.764Z</time>
      </trkpt>
      <trkpt lat="48.19513" lon="-3.25137">
        <ele>188.858329</ele>
        <time>2022-12-12T12:09:11.786Z</time>
      </trkpt>
      <trkpt lat="48.1951" lon="-3.25123">
        <ele>188.831019</ele>
        <time>2022-12-12T12:09:13.777Z</time>
      </trkpt>
      <trkpt lat="48.19505" lon="-3.25106">
        <ele>188.7962</ele>
        <time>2022-12-12T12:09:16.785Z</time>
      </trkpt>
      <trkpt lat="48.19502" lon="-3.25089">
        <ele>188.763226</ele>
        <time>2022-12-12T12:09:19.789Z</time>
      </trkpt>
      <trkpt lat="48.19499" lon="-3.25073">
        <ele>188.746766</ele>
        <time>2022-12-12T12:09:22.789Z</time>
      </trkpt>
      <trkpt lat="48.19496" lon="-3.25056">
        <ele>188.800726</ele>
        <time>2022-12-12T12:09:25.788Z</time>
      </trkpt>
      <trkpt lat="48.19493" lon="-3.25037">
        <ele>188.855918</ele>
        <time>2022-12-12T12:09:28.785Z</time>
      </trkpt>
      <trkpt lat="48.1949" lon="-3.25019">
        <ele>188.910538</ele>
        <time>2022-12-12T12:09:31.788Z</time>
      </trkpt>
      <trkpt lat="48.19487" lon="-3.25001">
        <ele>188.964501</ele>
        <time>2022-12-12T12:09:34.764Z</time>
      </trkpt>
      <trkpt lat="48.19486" lon="-3.24984">
        <ele>189.016425</ele>
        <time>2022-12-12T12:09:37.787Z</time>
      </trkpt>
      <trkpt lat="48.19485" lon="-3.24966">
        <ele>189.066843</ele>
        <time>2022-12-12T12:09:40.781Z</time>
      </trkpt>
      <trkpt lat="48.19483" lon="-3.24949">
        <ele>189.11994</ele>
        <time>2022-12-12T12:09:43.785Z</time>
      </trkpt>
      <trkpt lat="48.19481" lon="-3.2493">
        <ele>189.174129</ele>
        <time>2022-12-12T12:09:46.785Z</time>
      </trkpt>
      <trkpt lat="48.19479" lon="-3.24911">
        <ele>189.230522</ele>
        <time>2022-12-12T12:09:49.786Z</time>
      </trkpt>
      <trkpt lat="48.19478" lon="-3.24892">
        <ele>189.287013</ele>
        <time>2022-12-12T12:09:52.786Z</time>
      </trkpt>
      <trkpt lat="48.19476" lon="-3.24872">
        <ele>189.345391</ele>
        <time>2022-12-12T12:09:55.765Z</time>
      </trkpt>
      <trkpt lat="48.19474" lon="-3.24853">
        <ele>189.402897</ele>
        <time>2022-12-12T12:09:58.762Z</time>
      </trkpt>
      <trkpt lat="48.19472" lon="-3.24834">
        <ele>189.458765</ele>
        <time>2022-12-12T12:10:01.767Z</time>
      </trkpt>
      <trkpt lat="48.1947" lon="-3.24816">
        <ele>189.513473</ele>
        <time>2022-12-12T12:10:04.799Z</time>
      </trkpt>
      <trkpt lat="48.19468" lon="-3.24796">
        <ele>189.455996</ele>
        <time>2022-12-12T12:10:07.767Z</time>
      </trkpt>
      <trkpt lat="48.19466" lon="-3.24778">
        <ele>189.363597</ele>
        <time>2022-12-12T12:10:10.783Z</time>
      </trkpt>
      <trkpt lat="48.19464" lon="-3.24759">
        <ele>189.270947</ele>
        <time>2022-12-12T12:10:13.780Z</time>
      </trkpt>
      <trkpt lat="48.19462" lon="-3.24741">
        <ele>189.176938</ele>
        <time>2022-12-12T12:10:16.775Z</time>
      </trkpt>
      <trkpt lat="48.1946" lon="-3.24722">
        <ele>189.083789</ele>
        <time>2022-12-12T12:10:19.789Z</time>
      </trkpt>
      <trkpt lat="48.19457" lon="-3.24705">
        <ele>188.996654</ele>
        <time>2022-12-12T12:10:22.787Z</time>
      </trkpt>
      <trkpt lat="48.19455" lon="-3.24686">
        <ele>188.902532</ele>
        <time>2022-12-12T12:10:25.785Z</time>
      </trkpt>
      <trkpt lat="48.19453" lon="-3.24667">
        <ele>188.807567</ele>
        <time>2022-12-12T12:10:28.786Z</time>
      </trkpt>
      <trkpt lat="48.19452" lon="-3.24651">
        <ele>188.72746</ele>
        <time>2022-12-12T12:10:31.783Z</time>
      </trkpt>
      <trkpt lat="48.1945" lon="-3.24634">
        <ele>188.642581</ele>
        <time>2022-12-12T12:10:35.771Z</time>
      </trkpt>
      <trkpt lat="48.19449" lon="-3.24617">
        <ele>188.556813</ele>
        <time>2022-12-12T12:10:38.778Z</time>
      </trkpt>
      <trkpt lat="48.19448" lon="-3.246">
        <ele>188.470555</ele>
        <time>2022-12-12T12:10:41.782Z</time>
      </trkpt>
      <trkpt lat="48.19447" lon="-3.24583">
        <ele>188.387811</ele>
        <time>2022-12-12T12:10:44.786Z</time>
      </trkpt>
      <trkpt lat="48.19445" lon="-3.24566">
        <ele>188.303812</ele>
        <time>2022-12-12T12:10:47.785Z</time>
      </trkpt>
      <trkpt lat="48.19444" lon="-3.24549">
        <ele>188.215988</ele>
        <time>2022-12-12T12:10:50.787Z</time>
      </trkpt>
      <trkpt lat="48.19443" lon="-3.24532">
        <ele>187.906646</ele>
        <time>2022-12-12T12:10:53.790Z</time>
      </trkpt>
      <trkpt lat="48.19441" lon="-3.24516">
        <ele>187.522944</ele>
        <time>2022-12-12T12:10:56.784Z</time>
      </trkpt>
      <trkpt lat="48.1944" lon="-3.245">
        <ele>187.139659</ele>
        <time>2022-12-12T12:10:59.788Z</time>
      </trkpt>
      <trkpt lat="48.19438" lon="-3.24483">
        <ele>186.745746</ele>
        <time>2022-12-12T12:11:02.785Z</time>
      </trkpt>
      <trkpt lat="48.19437" lon="-3.24468">
        <ele>186.371952</ele>
        <time>2022-12-12T12:11:05.783Z</time>
      </trkpt>
      <trkpt lat="48.19438" lon="-3.2445">
        <ele>185.95259</ele>
        <time>2022-12-12T12:11:09.770Z</time>
      </trkpt>
      <trkpt lat="48.1944" lon="-3.24435">
        <ele>185.597281</ele>
        <time>2022-12-12T12:11:12.782Z</time>
      </trkpt>
      <trkpt lat="48.19442" lon="-3.24421">
        <ele>185.246601</ele>
        <time>2022-12-12T12:11:15.795Z</time>
      </trkpt>
      <trkpt lat="48.19447" lon="-3.24407">
        <ele>184.870758</ele>
        <time>2022-12-12T12:11:18.784Z</time>
      </trkpt>
      <trkpt lat="48.19451" lon="-3.24393">
        <ele>184.530245</ele>
        <time>2022-12-12T12:11:21.765Z</time>
      </trkpt>
      <trkpt lat="48.19456" lon="-3.24379">
        <ele>184.133978</ele>
        <time>2022-12-12T12:11:24.765Z</time>
      </trkpt>
      <trkpt lat="48.19463" lon="-3.24366">
        <ele>183.734517</ele>
        <time>2022-12-12T12:11:27.781Z</time>
      </trkpt>
      <trkpt lat="48.1947" lon="-3.24353">
        <ele>183.337258</ele>
        <time>2022-12-12T12:11:30.786Z</time>
      </trkpt>
      <trkpt lat="48.19476" lon="-3.2434">
        <ele>182.974613</ele>
        <time>2022-12-12T12:11:33.770Z</time>
      </trkpt>
      <trkpt lat="48.19481" lon="-3.24327">
        <ele>182.625308</ele>
        <time>2022-12-12T12:11:37.776Z</time>
      </trkpt>
      <trkpt lat="48.19487" lon="-3.24316">
        <ele>182.27911</ele>
        <time>2022-12-12T12:11:40.775Z</time>
      </trkpt>
      <trkpt lat="48.19495" lon="-3.24304">
        <ele>181.892228</ele>
        <time>2022-12-12T12:11:43.764Z</time>
      </trkpt>
      <trkpt lat="48.19501" lon="-3.24294">
        <ele>181.937359</ele>
        <time>2022-12-12T12:11:46.772Z</time>
      </trkpt>
      <trkpt lat="48.1951" lon="-3.24284">
        <ele>182.152013</ele>
        <time>2022-12-12T12:11:49.766Z</time>
      </trkpt>
      <trkpt lat="48.1952" lon="-3.24275">
        <ele>182.367402</ele>
        <time>2022-12-12T12:11:52.772Z</time>
      </trkpt>
      <trkpt lat="48.19529" lon="-3.2427">
        <ele>182.565334</ele>
        <time>2022-12-12T12:11:55.785Z</time>
      </trkpt>
      <trkpt lat="48.19539" lon="-3.24264">
        <ele>182.760991</ele>
        <time>2022-12-12T12:11:58.774Z</time>
      </trkpt>
      <trkpt lat="48.19549" lon="-3.24259">
        <ele>182.964102</ele>
        <time>2022-12-12T12:12:01.794Z</time>
      </trkpt>
      <trkpt lat="48.19558" lon="-3.24255">
        <ele>183.164979</ele>
        <time>2022-12-12T12:12:04.787Z</time>
      </trkpt>
      <trkpt lat="48.19568" lon="-3.24251">
        <ele>183.360161</ele>
        <time>2022-12-12T12:12:07.771Z</time>
      </trkpt>
      <trkpt lat="48.19578" lon="-3.24246">
        <ele>183.551838</ele>
        <time>2022-12-12T12:12:10.785Z</time>
      </trkpt>
      <trkpt lat="48.19588" lon="-3.24242">
        <ele>183.75233</ele>
        <time>2022-12-12T12:12:13.774Z</time>
      </trkpt>
      <trkpt lat="48.19598" lon="-3.24238">
        <ele>183.967529</ele>
        <time>2022-12-12T12:12:16.766Z</time>
      </trkpt>
      <trkpt lat="48.1961" lon="-3.24233">
        <ele>184.191175</ele>
        <time>2022-12-12T12:12:19.772Z</time>
      </trkpt>
      <trkpt lat="48.1962" lon="-3.24231">
        <ele>184.390907</ele>
        <time>2022-12-12T12:12:22.776Z</time>
      </trkpt>
      <trkpt lat="48.19629" lon="-3.24229">
        <ele>184.568643</ele>
        <time>2022-12-12T12:12:25.767Z</time>
      </trkpt>
      <trkpt lat="48.19639" lon="-3.24224">
        <ele>184.772966</ele>
        <time>2022-12-12T12:12:29.768Z</time>
      </trkpt>
      <trkpt lat="48.19648" lon="-3.24218">
        <ele>184.96017</ele>
        <time>2022-12-12T12:12:33.779Z</time>
      </trkpt>
      <trkpt lat="48.19657" lon="-3.24216">
        <ele>185.144627</ele>
        <time>2022-12-12T12:12:37.785Z</time>
      </trkpt>
      <trkpt lat="48.19667" lon="-3.24212">
        <ele>185.25821</ele>
        <time>2022-12-12T12:12:43.765Z</time>
      </trkpt>
      <trkpt lat="48.19677" lon="-3.24207">
        <ele>185.180742</ele>
        <time>2022-12-12T12:12:47.771Z</time>
      </trkpt>
      <trkpt lat="48.19687" lon="-3.24204">
        <ele>185.112091</ele>
        <time>2022-12-12T12:12:49.771Z</time>
      </trkpt>
      <trkpt lat="48.19696" lon="-3.242">
        <ele>185.039335</ele>
        <time>2022-12-12T12:12:51.762Z</time>
      </trkpt>
      <trkpt lat="48.19708" lon="-3.24197">
        <ele>184.952609</ele>
        <time>2022-12-12T12:12:53.763Z</time>
      </trkpt>
      <trkpt lat="48.1972" lon="-3.24193">
        <ele>184.863631</ele>
        <time>2022-12-12T12:12:55.781Z</time>
      </trkpt>
      <trkpt lat="48.19731" lon="-3.24189">
        <ele>184.777108</ele>
        <time>2022-12-12T12:12:57.784Z</time>
      </trkpt>
      <trkpt lat="48.19743" lon="-3.24184">
        <ele>184.69013</ele>
        <time>2022-12-12T12:12:59.784Z</time>
      </trkpt>
      <trkpt lat="48.19754" lon="-3.2418">
        <ele>184.609916</ele>
        <time>2022-12-12T12:13:01.791Z</time>
      </trkpt>
      <trkpt lat="48.19763" lon="-3.24175">
        <ele>184.535817</ele>
        <time>2022-12-12T12:13:03.791Z</time>
      </trkpt>
      <trkpt lat="48.19776" lon="-3.24168">
        <ele>184.440493</ele>
        <time>2022-12-12T12:13:06.785Z</time>
      </trkpt>
      <trkpt lat="48.19788" lon="-3.24162">
        <ele>184.347913</ele>
        <time>2022-12-12T12:13:09.774Z</time>
      </trkpt>
      <trkpt lat="48.19798" lon="-3.24157">
        <ele>184.269601</ele>
        <time>2022-12-12T12:13:12.779Z</time>
      </trkpt>
      <trkpt lat="48.19806" lon="-3.2415">
        <ele>184.202184</ele>
        <time>2022-12-12T12:13:15.767Z</time>
      </trkpt>
      <trkpt lat="48.19814" lon="-3.24142">
        <ele>184.130547</ele>
        <time>2022-12-12T12:13:18.766Z</time>
      </trkpt>
      <trkpt lat="48.19824" lon="-3.24133">
        <ele>184.048695</ele>
        <time>2022-12-12T12:13:21.787Z</time>
      </trkpt>
      <trkpt lat="48.19834" lon="-3.24123">
        <ele>183.948241</ele>
        <time>2022-12-12T12:13:24.776Z</time>
      </trkpt>
      <trkpt lat="48.19842" lon="-3.24116">
        <ele>183.827505</ele>
        <time>2022-12-12T12:13:26.786Z</time>
      </trkpt>
      <trkpt lat="48.19852" lon="-3.24105">
        <ele>183.667962</ele>
        <time>2022-12-12T12:13:29.785Z</time>
      </trkpt>
      <trkpt lat="48.19861" lon="-3.24095">
        <ele>183.510528</ele>
        <time>2022-12-12T12:13:32.794Z</time>
      </trkpt>
      <trkpt lat="48.1987" lon="-3.24085">
        <ele>183.3651</ele>
        <time>2022-12-12T12:13:35.782Z</time>
      </trkpt>
      <trkpt lat="48.19879" lon="-3.24077">
        <ele>183.223691</ele>
        <time>2022-12-12T12:13:38.778Z</time>
      </trkpt>
      <trkpt lat="48.19889" lon="-3.24067">
        <ele>183.07409</ele>
        <time>2022-12-12T12:13:41.782Z</time>
      </trkpt>
      <trkpt lat="48.19897" lon="-3.24058">
        <ele>182.937266</ele>
        <time>2022-12-12T12:13:44.783Z</time>
      </trkpt>
      <trkpt lat="48.19906" lon="-3.24049">
        <ele>182.793206</ele>
        <time>2022-12-12T12:13:47.786Z</time>
      </trkpt>
      <trkpt lat="48.19914" lon="-3.24041">
        <ele>182.66589</ele>
        <time>2022-12-12T12:13:50.788Z</time>
      </trkpt>
      <trkpt lat="48.19922" lon="-3.24031">
        <ele>182.527423</ele>
        <time>2022-12-12T12:13:53.780Z</time>
      </trkpt>
      <trkpt lat="48.19932" lon="-3.2402">
        <ele>182.36354</ele>
        <time>2022-12-12T12:13:56.791Z</time>
      </trkpt>
      <trkpt lat="48.19943" lon="-3.2401">
        <ele>182.193865</ele>
        <time>2022-12-12T12:13:59.793Z</time>
      </trkpt>
      <trkpt lat="48.19953" lon="-3.24">
        <ele>182.043296</ele>
        <time>2022-12-12T12:14:02.783Z</time>
      </trkpt>
      <trkpt lat="48.19962" lon="-3.23989">
        <ele>181.885867</ele>
        <time>2022-12-12T12:14:05.786Z</time>
      </trkpt>
      <trkpt lat="48.19972" lon="-3.23979">
        <ele>181.720398</ele>
        <time>2022-12-12T12:14:08.788Z</time>
      </trkpt>
      <trkpt lat="48.19982" lon="-3.2397">
        <ele>181.561517</ele>
        <time>2022-12-12T12:14:11.780Z</time>
      </trkpt>
      <trkpt lat="48.19991" lon="-3.2396">
        <ele>181.342552</ele>
        <time>2022-12-12T12:14:14.783Z</time>
      </trkpt>
      <trkpt lat="48.20001" lon="-3.2395">
        <ele>181.11243</ele>
        <time>2022-12-12T12:14:17.794Z</time>
      </trkpt>
      <trkpt lat="48.20011" lon="-3.23941">
        <ele>180.884687</ele>
        <time>2022-12-12T12:14:20.776Z</time>
      </trkpt>
      <trkpt lat="48.20021" lon="-3.23931">
        <ele>180.656712</ele>
        <time>2022-12-12T12:14:23.786Z</time>
      </trkpt>
      <trkpt lat="48.20031" lon="-3.23921">
        <ele>180.438103</ele>
        <time>2022-12-12T12:14:26.785Z</time>
      </trkpt>
      <trkpt lat="48.20041" lon="-3.23912">
        <ele>180.206428</ele>
        <time>2022-12-12T12:14:29.787Z</time>
      </trkpt>
      <trkpt lat="48.2005" lon="-3.23901">
        <ele>179.986471</ele>
        <time>2022-12-12T12:14:32.792Z</time>
      </trkpt>
      <trkpt lat="48.2006" lon="-3.23891">
        <ele>179.748717</ele>
        <time>2022-12-12T12:14:35.779Z</time>
      </trkpt>
      <trkpt lat="48.20071" lon="-3.2388">
        <ele>179.508661</ele>
        <time>2022-12-12T12:14:38.757Z</time>
      </trkpt>
      <trkpt lat="48.2008" lon="-3.23869">
        <ele>179.275664</ele>
        <time>2022-12-12T12:14:41.784Z</time>
      </trkpt>
      <trkpt lat="48.20091" lon="-3.23859">
        <ele>179.036116</ele>
        <time>2022-12-12T12:14:44.789Z</time>
      </trkpt>
      <trkpt lat="48.20101" lon="-3.23849">
        <ele>178.815314</ele>
        <time>2022-12-12T12:14:47.787Z</time>
      </trkpt>
      <trkpt lat="48.20108" lon="-3.23841">
        <ele>178.630612</ele>
        <time>2022-12-12T12:14:50.788Z</time>
      </trkpt>
      <trkpt lat="48.20116" lon="-3.23832">
        <ele>178.445877</ele>
        <time>2022-12-12T12:14:53.788Z</time>
      </trkpt>
      <trkpt lat="48.20125" lon="-3.23822">
        <ele>178.23354</ele>
        <time>2022-12-12T12:14:56.790Z</time>
      </trkpt>
      <trkpt lat="48.20134" lon="-3.23811">
        <ele>178.295888</ele>
        <time>2022-12-12T12:14:59.767Z</time>
      </trkpt>
      <trkpt lat="48.20144" lon="-3.238">
        <ele>178.546462</ele>
        <time>2022-12-12T12:15:02.768Z</time>
      </trkpt>
      <trkpt lat="48.20155" lon="-3.23789">
        <ele>178.803669</ele>
        <time>2022-12-12T12:15:05.784Z</time>
      </trkpt>
      <trkpt lat="48.20167" lon="-3.23778">
        <ele>179.063454</ele>
        <time>2022-12-12T12:15:08.778Z</time>
      </trkpt>
      <trkpt lat="48.20178" lon="-3.23769">
        <ele>179.314026</ele>
        <time>2022-12-12T12:15:11.776Z</time>
      </trkpt>
      <trkpt lat="48.20189" lon="-3.23759">
        <ele>179.558427</ele>
        <time>2022-12-12T12:15:14.787Z</time>
      </trkpt>
      <trkpt lat="48.20198" lon="-3.23748">
        <ele>179.797378</ele>
        <time>2022-12-12T12:15:17.780Z</time>
      </trkpt>
      <trkpt lat="48.20208" lon="-3.23737">
        <ele>180.026926</ele>
        <time>2022-12-12T12:15:20.770Z</time>
      </trkpt>
      <trkpt lat="48.20218" lon="-3.23727">
        <ele>180.269638</ele>
        <time>2022-12-12T12:15:23.785Z</time>
      </trkpt>
      <trkpt lat="48.20226" lon="-3.2372">
        <ele>180.447009</ele>
        <time>2022-12-12T12:15:25.764Z</time>
      </trkpt>
      <trkpt lat="48.20235" lon="-3.23711">
        <ele>180.648851</ele>
        <time>2022-12-12T12:15:27.784Z</time>
      </trkpt>
      <trkpt lat="48.20243" lon="-3.23702">
        <ele>180.852617</ele>
        <time>2022-12-12T12:15:29.776Z</time>
      </trkpt>
      <trkpt lat="48.20253" lon="-3.23693">
        <ele>181.071666</ele>
        <time>2022-12-12T12:15:31.784Z</time>
      </trkpt>
      <trkpt lat="48.20263" lon="-3.23686">
        <ele>181.293656</ele>
        <time>2022-12-12T12:15:33.787Z</time>
      </trkpt>
      <trkpt lat="48.20274" lon="-3.2368">
        <ele>181.509452</ele>
        <time>2022-12-12T12:15:35.770Z</time>
      </trkpt>
      <trkpt lat="48.20284" lon="-3.23676">
        <ele>181.644311</ele>
        <time>2022-12-12T12:15:37.780Z</time>
      </trkpt>
      <trkpt lat="48.20296" lon="-3.23673">
        <ele>181.626826</ele>
        <time>2022-12-12T12:15:40.771Z</time>
      </trkpt>
      <trkpt lat="48.20308" lon="-3.23674">
        <ele>181.608894</ele>
        <time>2022-12-12T12:15:43.788Z</time>
      </trkpt>
      <trkpt lat="48.2032" lon="-3.23676">
        <ele>181.592746</ele>
        <time>2022-12-12T12:15:46.766Z</time>
      </trkpt>
      <trkpt lat="48.2033" lon="-3.23679">
        <ele>181.576892</ele>
        <time>2022-12-12T12:15:49.774Z</time>
      </trkpt>
      <trkpt lat="48.20341" lon="-3.23682">
        <ele>181.561868</ele>
        <time>2022-12-12T12:15:52.786Z</time>
      </trkpt>
      <trkpt lat="48.20351" lon="-3.23685">
        <ele>181.54707</ele>
        <time>2022-12-12T12:15:55.787Z</time>
      </trkpt>
      <trkpt lat="48.20361" lon="-3.23688">
        <ele>181.53201</ele>
        <time>2022-12-12T12:15:58.783Z</time>
      </trkpt>
      <trkpt lat="48.2037" lon="-3.2369">
        <ele>181.519152</ele>
        <time>2022-12-12T12:16:01.769Z</time>
      </trkpt>
      <trkpt lat="48.20379" lon="-3.23693">
        <ele>181.505816</ele>
        <time>2022-12-12T12:16:04.788Z</time>
      </trkpt>
      <trkpt lat="48.20388" lon="-3.23697">
        <ele>181.492093</ele>
        <time>2022-12-12T12:16:07.783Z</time>
      </trkpt>
      <trkpt lat="48.204" lon="-3.237">
        <ele>181.475766</ele>
        <time>2022-12-12T12:16:10.792Z</time>
      </trkpt>
      <trkpt lat="48.20413" lon="-3.23706">
        <ele>181.455773</ele>
        <time>2022-12-12T12:16:13.780Z</time>
      </trkpt>
      <trkpt lat="48.20425" lon="-3.23708">
        <ele>181.438157</ele>
        <time>2022-12-12T12:16:16.778Z</time>
      </trkpt>
      <trkpt lat="48.20437" lon="-3.23711">
        <ele>181.42095</ele>
        <time>2022-12-12T12:16:19.784Z</time>
      </trkpt>
      <trkpt lat="48.20449" lon="-3.23713">
        <ele>181.40318</ele>
        <time>2022-12-12T12:16:22.791Z</time>
      </trkpt>
      <trkpt lat="48.20461" lon="-3.23717">
        <ele>181.333015</ele>
        <time>2022-12-12T12:16:25.775Z</time>
      </trkpt>
      <trkpt lat="48.20473" lon="-3.2372">
        <ele>181.17158</ele>
        <time>2022-12-12T12:16:28.776Z</time>
      </trkpt>
      <trkpt lat="48.20485" lon="-3.23723">
        <ele>181.002132</ele>
        <time>2022-12-12T12:16:31.786Z</time>
      </trkpt>
      <trkpt lat="48.20496" lon="-3.23726">
        <ele>180.8463</ele>
        <time>2022-12-12T12:16:34.775Z</time>
      </trkpt>
      <trkpt lat="48.20508" lon="-3.23731">
        <ele>180.678305</ele>
        <time>2022-12-12T12:16:37.788Z</time>
      </trkpt>
      <trkpt lat="48.20519" lon="-3.23732">
        <ele>180.530181</ele>
        <time>2022-12-12T12:16:40.779Z</time>
      </trkpt>
      <trkpt lat="48.20528" lon="-3.23731">
        <ele>180.404113</ele>
        <time>2022-12-12T12:16:43.775Z</time>
      </trkpt>
      <trkpt lat="48.20538" lon="-3.23729">
        <ele>180.261219</ele>
        <time>2022-12-12T12:16:46.784Z</time>
      </trkpt>
      <trkpt lat="48.2055" lon="-3.23726">
        <ele>180.095028</ele>
        <time>2022-12-12T12:16:49.777Z</time>
      </trkpt>
      <trkpt lat="48.2056" lon="-3.23721">
        <ele>179.946282</ele>
        <time>2022-12-12T12:16:52.775Z</time>
      </trkpt>
      <trkpt lat="48.20572" lon="-3.23715">
        <ele>179.770627</ele>
        <time>2022-12-12T12:16:55.779Z</time>
      </trkpt>
      <trkpt lat="48.20583" lon="-3.23705">
        <ele>179.593148</ele>
        <time>2022-12-12T12:16:58.775Z</time>
      </trkpt>
      <trkpt lat="48.20592" lon="-3.23696">
        <ele>179.44496</ele>
        <time>2022-12-12T12:17:01.788Z</time>
      </trkpt>
      <trkpt lat="48.20601" lon="-3.23685">
        <ele>179.290189</ele>
        <time>2022-12-12T12:17:04.766Z</time>
      </trkpt>
      <trkpt lat="48.20611" lon="-3.23676">
        <ele>179.122192</ele>
        <time>2022-12-12T12:17:07.782Z</time>
      </trkpt>
      <trkpt lat="48.20621" lon="-3.23667">
        <ele>178.966277</ele>
        <time>2022-12-12T12:17:10.783Z</time>
      </trkpt>
      <trkpt lat="48.20631" lon="-3.23658">
        <ele>179.059354</ele>
        <time>2022-12-12T12:17:13.774Z</time>
      </trkpt>
      <trkpt lat="48.2064" lon="-3.23649">
        <ele>179.28013</ele>
        <time>2022-12-12T12:17:16.788Z</time>
      </trkpt>
      <trkpt lat="48.20649" lon="-3.2364">
        <ele>179.510369</ele>
        <time>2022-12-12T12:17:19.786Z</time>
      </trkpt>
      <trkpt lat="48.20659" lon="-3.23632">
        <ele>179.731466</ele>
        <time>2022-12-12T12:17:22.790Z</time>
      </trkpt>
      <trkpt lat="48.20668" lon="-3.23623">
        <ele>179.951344</ele>
        <time>2022-12-12T12:17:25.763Z</time>
      </trkpt>
      <trkpt lat="48.20676" lon="-3.23613">
        <ele>180.164593</ele>
        <time>2022-12-12T12:17:28.777Z</time>
      </trkpt>
      <trkpt lat="48.20686" lon="-3.23606">
        <ele>180.393603</ele>
        <time>2022-12-12T12:17:31.779Z</time>
      </trkpt>
      <trkpt lat="48.20695" lon="-3.23597">
        <ele>180.611335</ele>
        <time>2022-12-12T12:17:34.786Z</time>
      </trkpt>
      <trkpt lat="48.20704" lon="-3.23589">
        <ele>180.833481</ele>
        <time>2022-12-12T12:17:37.786Z</time>
      </trkpt>
      <trkpt lat="48.20712" lon="-3.23579">
        <ele>181.044336</ele>
        <time>2022-12-12T12:17:40.775Z</time>
      </trkpt>
      <trkpt lat="48.20722" lon="-3.2357">
        <ele>181.279789</ele>
        <time>2022-12-12T12:17:43.788Z</time>
      </trkpt>
      <trkpt lat="48.20732" lon="-3.23561">
        <ele>181.523035</ele>
        <time>2022-12-12T12:17:46.782Z</time>
      </trkpt>
      <trkpt lat="48.20741" lon="-3.23551">
        <ele>181.750165</ele>
        <time>2022-12-12T12:17:49.774Z</time>
      </trkpt>
      <trkpt lat="48.20749" lon="-3.23541">
        <ele>181.956895</ele>
        <time>2022-12-12T12:17:52.787Z</time>
      </trkpt>
      <trkpt lat="48.20758" lon="-3.23532">
        <ele>182.174317</ele>
        <time>2022-12-12T12:17:55.784Z</time>
      </trkpt>
      <trkpt lat="48.20766" lon="-3.23523">
        <ele>182.379537</ele>
        <time>2022-12-12T12:17:58.787Z</time>
      </trkpt>
      <trkpt lat="48.20774" lon="-3.23509">
        <ele>182.559526</ele>
        <time>2022-12-12T12:18:01.787Z</time>
      </trkpt>
      <trkpt lat="48.2078" lon="-3.23495">
        <ele>182.461889</ele>
        <time>2022-12-12T12:18:04.788Z</time>
      </trkpt>
      <trkpt lat="48.20785" lon="-3.23483">
        <ele>182.381769</ele>
        <time>2022-12-12T12:18:07.784Z</time>
      </trkpt>
      <trkpt lat="48.2079" lon="-3.23471">
        <ele>182.301025</ele>
        <time>2022-12-12T12:18:10.784Z</time>
      </trkpt>
      <trkpt lat="48.20795" lon="-3.23459">
        <ele>182.215464</ele>
        <time>2022-12-12T12:18:13.777Z</time>
      </trkpt>
      <trkpt lat="48.20801" lon="-3.23443">
        <ele>182.110355</ele>
        <time>2022-12-12T12:18:17.772Z</time>
      </trkpt>
      <trkpt lat="48.20804" lon="-3.23429">
        <ele>182.026304</ele>
        <time>2022-12-12T12:18:20.774Z</time>
      </trkpt>
      <trkpt lat="48.20803" lon="-3.2341">
        <ele>181.914779</ele>
        <time>2022-12-12T12:18:24.774Z</time>
      </trkpt>
      <trkpt lat="48.20802" lon="-3.23391">
        <ele>181.808221</ele>
        <time>2022-12-12T12:18:27.787Z</time>
      </trkpt>
      <trkpt lat="48.20802" lon="-3.23374">
        <ele>181.707054</ele>
        <time>2022-12-12T12:18:30.778Z</time>
      </trkpt>
      <trkpt lat="48.20802" lon="-3.23359">
        <ele>181.620957</ele>
        <time>2022-12-12T12:18:33.768Z</time>
      </trkpt>
      <trkpt lat="48.20801" lon="-3.23344">
        <ele>181.537911</ele>
        <time>2022-12-12T12:18:36.765Z</time>
      </trkpt>
      <trkpt lat="48.20799" lon="-3.23327">
        <ele>181.436916</ele>
        <time>2022-12-12T12:18:39.781Z</time>
      </trkpt>
      <trkpt lat="48.20798" lon="-3.23312">
        <ele>181.348853</ele>
        <time>2022-12-12T12:18:42.786Z</time>
      </trkpt>
      <trkpt lat="48.20799" lon="-3.23296">
        <ele>181.255461</ele>
        <time>2022-12-12T12:18:45.771Z</time>
      </trkpt>
      <trkpt lat="48.20799" lon="-3.23278">
        <ele>181.153794</ele>
        <time>2022-12-12T12:18:49.783Z</time>
      </trkpt>
      <trkpt lat="48.20798" lon="-3.2326">
        <ele>181.049396</ele>
        <time>2022-12-12T12:18:52.770Z</time>
      </trkpt>
      <trkpt lat="48.20797" lon="-3.23242">
        <ele>180.892048</ele>
        <time>2022-12-12T12:18:55.786Z</time>
      </trkpt>
      <trkpt lat="48.20797" lon="-3.23226">
        <ele>180.738061</ele>
        <time>2022-12-12T12:18:58.779Z</time>
      </trkpt>
      <trkpt lat="48.20796" lon="-3.2321">
        <ele>180.585494</ele>
        <time>2022-12-12T12:19:01.779Z</time>
      </trkpt>
      <trkpt lat="48.20794" lon="-3.23191">
        <ele>180.407066</ele>
        <time>2022-12-12T12:19:04.767Z</time>
      </trkpt>
      <trkpt lat="48.20792" lon="-3.23173">
        <ele>180.234121</ele>
        <time>2022-12-12T12:19:07.778Z</time>
      </trkpt>
      <trkpt lat="48.20791" lon="-3.23157">
        <ele>180.078715</ele>
        <time>2022-12-12T12:19:10.785Z</time>
      </trkpt>
      <trkpt lat="48.2079" lon="-3.2314">
        <ele>179.918572</ele>
        <time>2022-12-12T12:19:13.789Z</time>
      </trkpt>
      <trkpt lat="48.20788" lon="-3.23122">
        <ele>179.739245</ele>
        <time>2022-12-12T12:19:16.788Z</time>
      </trkpt>
      <trkpt lat="48.20788" lon="-3.23106">
        <ele>179.594756</ele>
        <time>2022-12-12T12:19:19.771Z</time>
      </trkpt>
      <trkpt lat="48.20787" lon="-3.23092">
        <ele>179.460026</ele>
        <time>2022-12-12T12:19:22.786Z</time>
      </trkpt>
      <trkpt lat="48.20785" lon="-3.23076">
        <ele>179.302324</ele>
        <time>2022-12-12T12:19:25.787Z</time>
      </trkpt>
      <trkpt lat="48.20784" lon="-3.23062">
        <ele>179.168077</ele>
        <time>2022-12-12T12:19:28.778Z</time>
      </trkpt>
      <trkpt lat="48.20784" lon="-3.23046">
        <ele>179.020773</ele>
        <time>2022-12-12T12:19:32.776Z</time>
      </trkpt>
      <trkpt lat="48.20782" lon="-3.23028">
        <ele>178.83988</ele>
        <time>2022-12-12T12:19:36.775Z</time>
      </trkpt>
      <trkpt lat="48.20779" lon="-3.23015">
        <ele>178.709835</ele>
        <time>2022-12-12T12:19:38.767Z</time>
      </trkpt>
      <trkpt lat="48.20776" lon="-3.23">
        <ele>178.557468</ele>
        <time>2022-12-12T12:19:41.784Z</time>
      </trkpt>
      <trkpt lat="48.20773" lon="-3.22984">
        <ele>178.494827</ele>
        <time>2022-12-12T12:19:44.786Z</time>
      </trkpt>
      <trkpt lat="48.20769" lon="-3.22966">
        <ele>178.632572</ele>
        <time>2022-12-12T12:19:48.772Z</time>
      </trkpt>
      <trkpt lat="48.20764" lon="-3.2295">
        <ele>178.763754</ele>
        <time>2022-12-12T12:19:51.775Z</time>
      </trkpt>
      <trkpt lat="48.2076" lon="-3.22935">
        <ele>178.881451</ele>
        <time>2022-12-12T12:19:54.783Z</time>
      </trkpt>
      <trkpt lat="48.20757" lon="-3.2292">
        <ele>178.997512</ele>
        <time>2022-12-12T12:19:57.776Z</time>
      </trkpt>
      <trkpt lat="48.20753" lon="-3.22906">
        <ele>179.107925</ele>
        <time>2022-12-12T12:20:00.786Z</time>
      </trkpt>
      <trkpt lat="48.20747" lon="-3.22891">
        <ele>179.227983</ele>
        <time>2022-12-12T12:20:03.786Z</time>
      </trkpt>
      <trkpt lat="48.20742" lon="-3.22873">
        <ele>179.370223</ele>
        <time>2022-12-12T12:20:06.788Z</time>
      </trkpt>
      <trkpt lat="48.20737" lon="-3.22856">
        <ele>179.507782</ele>
        <time>2022-12-12T12:20:09.785Z</time>
      </trkpt>
      <trkpt lat="48.20732" lon="-3.22839">
        <ele>179.642016</ele>
        <time>2022-12-12T12:20:12.773Z</time>
      </trkpt>
      <trkpt lat="48.20728" lon="-3.22823">
        <ele>179.764571</ele>
        <time>2022-12-12T12:20:15.776Z</time>
      </trkpt>
      <trkpt lat="48.20723" lon="-3.22806">
        <ele>179.900799</ele>
        <time>2022-12-12T12:20:18.774Z</time>
      </trkpt>
      <trkpt lat="48.20719" lon="-3.22792">
        <ele>180.010955</ele>
        <time>2022-12-12T12:20:21.776Z</time>
      </trkpt>
      <trkpt lat="48.20715" lon="-3.22777">
        <ele>180.130269</ele>
        <time>2022-12-12T12:20:24.787Z</time>
      </trkpt>
      <trkpt lat="48.2071" lon="-3.2276">
        <ele>180.266636</ele>
        <time>2022-12-12T12:20:27.787Z</time>
      </trkpt>
      <trkpt lat="48.20705" lon="-3.22745">
        <ele>180.387827</ele>
        <time>2022-12-12T12:20:30.787Z</time>
      </trkpt>
      <trkpt lat="48.20701" lon="-3.2273">
        <ele>180.344075</ele>
        <time>2022-12-12T12:20:33.785Z</time>
      </trkpt>
      <trkpt lat="48.20697" lon="-3.22715">
        <ele>180.24477</ele>
        <time>2022-12-12T12:20:36.785Z</time>
      </trkpt>
      <trkpt lat="48.20693" lon="-3.227">
        <ele>180.145257</ele>
        <time>2022-12-12T12:20:39.780Z</time>
      </trkpt>
      <trkpt lat="48.20688" lon="-3.22684">
        <ele>180.039098</ele>
        <time>2022-12-12T12:20:42.777Z</time>
      </trkpt>
      <trkpt lat="48.20683" lon="-3.22669">
        <ele>179.938371</ele>
        <time>2022-12-12T12:20:45.785Z</time>
      </trkpt>
      <trkpt lat="48.20678" lon="-3.22652">
        <ele>179.824207</ele>
        <time>2022-12-12T12:20:48.787Z</time>
      </trkpt>
      <trkpt lat="48.20674" lon="-3.22637">
        <ele>179.726592</ele>
        <time>2022-12-12T12:20:51.787Z</time>
      </trkpt>
      <trkpt lat="48.20671" lon="-3.22623">
        <ele>179.634761</ele>
        <time>2022-12-12T12:20:54.787Z</time>
      </trkpt>
      <trkpt lat="48.20667" lon="-3.2261">
        <ele>179.547488</ele>
        <time>2022-12-12T12:20:57.776Z</time>
      </trkpt>
      <trkpt lat="48.20663" lon="-3.22595">
        <ele>179.452836</ele>
        <time>2022-12-12T12:21:00.770Z</time>
      </trkpt>
      <trkpt lat="48.2066" lon="-3.22581">
        <ele>179.36035</ele>
        <time>2022-12-12T12:21:03.791Z</time>
      </trkpt>
      <trkpt lat="48.20656" lon="-3.22566">
        <ele>179.258089</ele>
        <time>2022-12-12T12:21:06.788Z</time>
      </trkpt>
      <trkpt lat="48.20652" lon="-3.22552">
        <ele>179.170248</ele>
        <time>2022-12-12T12:21:09.786Z</time>
      </trkpt>
      <trkpt lat="48.20648" lon="-3.22538">
        <ele>179.079117</ele>
        <time>2022-12-12T12:21:12.786Z</time>
      </trkpt>
      <trkpt lat="48.20644" lon="-3.22522">
        <ele>178.971082</ele>
        <time>2022-12-12T12:21:15.766Z</time>
      </trkpt>
      <trkpt lat="48.20639" lon="-3.22506">
        <ele>178.861732</ele>
        <time>2022-12-12T12:21:18.760Z</time>
      </trkpt>
      <trkpt lat="48.20635" lon="-3.22491">
        <ele>178.766523</ele>
        <time>2022-12-12T12:21:21.776Z</time>
      </trkpt>
      <trkpt lat="48.2063" lon="-3.22477">
        <ele>178.725286</ele>
        <time>2022-12-12T12:21:24.782Z</time>
      </trkpt>
      <trkpt lat="48.20626" lon="-3.22461">
        <ele>178.67961</ele>
        <time>2022-12-12T12:21:27.774Z</time>
      </trkpt>
      <trkpt lat="48.20622" lon="-3.22447">
        <ele>178.63618</ele>
        <time>2022-12-12T12:21:30.785Z</time>
      </trkpt>
      <trkpt lat="48.20618" lon="-3.2243">
        <ele>178.588776</ele>
        <time>2022-12-12T12:21:33.786Z</time>
      </trkpt>
      <trkpt lat="48.20613" lon="-3.22413">
        <ele>178.539016</ele>
        <time>2022-12-12T12:21:36.789Z</time>
      </trkpt>
      <trkpt lat="48.20609" lon="-3.224">
        <ele>178.498961</ele>
        <time>2022-12-12T12:21:39.787Z</time>
      </trkpt>
      <trkpt lat="48.20604" lon="-3.22385">
        <ele>178.454302</ele>
        <time>2022-12-12T12:21:42.785Z</time>
      </trkpt>
      <trkpt lat="48.206" lon="-3.2237">
        <ele>178.410381</ele>
        <time>2022-12-12T12:21:45.785Z</time>
      </trkpt>
      <trkpt lat="48.20595" lon="-3.22355">
        <ele>178.364858</ele>
        <time>2022-12-12T12:21:48.774Z</time>
      </trkpt>
      <trkpt lat="48.2059" lon="-3.22338">
        <ele>178.314603</ele>
        <time>2022-12-12T12:21:52.788Z</time>
      </trkpt>
      <trkpt lat="48.20587" lon="-3.22323">
        <ele>178.274</ele>
        <time>2022-12-12T12:21:56.769Z</time>
      </trkpt>
      <trkpt lat="48.20583" lon="-3.22308">
        <ele>178.229943</ele>
        <time>2022-12-12T12:22:00.777Z</time>
      </trkpt>
      <trkpt lat="48.20578" lon="-3.22292">
        <ele>178.182646</ele>
        <time>2022-12-12T12:22:03.783Z</time>
      </trkpt>
      <trkpt lat="48.20574" lon="-3.22278">
        <ele>178.141931</ele>
        <time>2022-12-12T12:22:06.785Z</time>
      </trkpt>
      <trkpt lat="48.20571" lon="-3.22264">
        <ele>178.100051</ele>
        <time>2022-12-12T12:22:09.786Z</time>
      </trkpt>
      <trkpt lat="48.20567" lon="-3.22246">
        <ele>178.051253</ele>
        <time>2022-12-12T12:22:12.785Z</time>
      </trkpt>
      <trkpt lat="48.20565" lon="-3.22229">
        <ele>178.329272</ele>
        <time>2022-12-12T12:22:15.786Z</time>
      </trkpt>
      <trkpt lat="48.20563" lon="-3.22215">
        <ele>178.630005</ele>
        <time>2022-12-12T12:22:18.786Z</time>
      </trkpt>
      <trkpt lat="48.20562" lon="-3.22201">
        <ele>178.944984</ele>
        <time>2022-12-12T12:22:21.786Z</time>
      </trkpt>
      <trkpt lat="48.20563" lon="-3.22183">
        <ele>179.317245</ele>
        <time>2022-12-12T12:22:24.776Z</time>
      </trkpt>
      <trkpt lat="48.20563" lon="-3.22165">
        <ele>179.703309</ele>
        <time>2022-12-12T12:22:27.767Z</time>
      </trkpt>
      <trkpt lat="48.20566" lon="-3.22145">
        <ele>180.13137</ele>
        <time>2022-12-12T12:22:30.770Z</time>
      </trkpt>
      <trkpt lat="48.20569" lon="-3.22127">
        <ele>180.527511</ele>
        <time>2022-12-12T12:22:33.768Z</time>
      </trkpt>
      <trkpt lat="48.20572" lon="-3.22112">
        <ele>180.855796</ele>
        <time>2022-12-12T12:22:36.789Z</time>
      </trkpt>
      <trkpt lat="48.20576" lon="-3.22095">
        <ele>181.236395</ele>
        <time>2022-12-12T12:22:39.786Z</time>
      </trkpt>
      <trkpt lat="48.20581" lon="-3.2208">
        <ele>181.60276</ele>
        <time>2022-12-12T12:22:42.785Z</time>
      </trkpt>
      <trkpt lat="48.20584" lon="-3.22063">
        <ele>181.971043</ele>
        <time>2022-12-12T12:22:45.780Z</time>
      </trkpt>
      <trkpt lat="48.20589" lon="-3.22048">
        <ele>182.31197</ele>
        <time>2022-12-12T12:22:48.785Z</time>
      </trkpt>
      <trkpt lat="48.20594" lon="-3.22033">
        <ele>182.668863</ele>
        <time>2022-12-12T12:22:51.786Z</time>
      </trkpt>
      <trkpt lat="48.20597" lon="-3.22016">
        <ele>183.060164</ele>
        <time>2022-12-12T12:22:54.797Z</time>
      </trkpt>
      <trkpt lat="48.20601" lon="-3.22001">
        <ele>183.39195</ele>
        <time>2022-12-12T12:22:57.783Z</time>
      </trkpt>
      <trkpt lat="48.20604" lon="-3.21985">
        <ele>183.748948</ele>
        <time>2022-12-12T12:23:00.788Z</time>
      </trkpt>
      <trkpt lat="48.20607" lon="-3.2197">
        <ele>183.681906</ele>
        <time>2022-12-12T12:23:03.787Z</time>
      </trkpt>
      <trkpt lat="48.2061" lon="-3.21956">
        <ele>183.612338</ele>
        <time>2022-12-12T12:23:06.775Z</time>
      </trkpt>
      <trkpt lat="48.20613" lon="-3.21939">
        <ele>183.522236</ele>
        <time>2022-12-12T12:23:09.767Z</time>
      </trkpt>
      <trkpt lat="48.2062" lon="-3.21923">
        <ele>183.428261</ele>
        <time>2022-12-12T12:23:12.775Z</time>
      </trkpt>
      <trkpt lat="48.20625" lon="-3.21908">
        <ele>183.338213</ele>
        <time>2022-12-12T12:23:15.787Z</time>
      </trkpt>
      <trkpt lat="48.2063" lon="-3.21892">
        <ele>183.248651</ele>
        <time>2022-12-12T12:23:18.798Z</time>
      </trkpt>
      <trkpt lat="48.20637" lon="-3.21879">
        <ele>183.165212</ele>
        <time>2022-12-12T12:23:21.788Z</time>
      </trkpt>
      <trkpt lat="48.20647" lon="-3.21867">
        <ele>183.070082</ele>
        <time>2022-12-12T12:23:24.788Z</time>
      </trkpt>
      <trkpt lat="48.20657" lon="-3.21855">
        <ele>182.97624</ele>
        <time>2022-12-12T12:23:27.787Z</time>
      </trkpt>
      <trkpt lat="48.20666" lon="-3.21843">
        <ele>182.88234</ele>
        <time>2022-12-12T12:23:30.784Z</time>
      </trkpt>
      <trkpt lat="48.20675" lon="-3.21834">
        <ele>182.799172</ele>
        <time>2022-12-12T12:23:33.782Z</time>
      </trkpt>
      <trkpt lat="48.20684" lon="-3.21825">
        <ele>182.719762</ele>
        <time>2022-12-12T12:23:36.791Z</time>
      </trkpt>
      <trkpt lat="48.20691" lon="-3.21816">
        <ele>182.647522</ele>
        <time>2022-12-12T12:23:39.784Z</time>
      </trkpt>
      <trkpt lat="48.20699" lon="-3.21807">
        <ele>182.569747</ele>
        <time>2022-12-12T12:23:42.779Z</time>
      </trkpt>
      <trkpt lat="48.20708" lon="-3.21797">
        <ele>182.490838</ele>
        <time>2022-12-12T12:23:45.786Z</time>
      </trkpt>
      <trkpt lat="48.20716" lon="-3.21789">
        <ele>182.414016</ele>
        <time>2022-12-12T12:23:48.794Z</time>
      </trkpt>
      <trkpt lat="48.20724" lon="-3.2178">
        <ele>182.367034</ele>
        <time>2022-12-12T12:23:51.796Z</time>
      </trkpt>
      <trkpt lat="48.20732" lon="-3.21771">
        <ele>182.325963</ele>
        <time>2022-12-12T12:23:54.792Z</time>
      </trkpt>
      <trkpt lat="48.20741" lon="-3.21761">
        <ele>182.282846</ele>
        <time>2022-12-12T12:23:57.785Z</time>
      </trkpt>
      <trkpt lat="48.20749" lon="-3.21752">
        <ele>182.243973</ele>
        <time>2022-12-12T12:24:00.790Z</time>
      </trkpt>
      <trkpt lat="48.20757" lon="-3.21742">
        <ele>182.202111</ele>
        <time>2022-12-12T12:24:04.785Z</time>
      </trkpt>
      <trkpt lat="48.20765" lon="-3.21733">
        <ele>182.162605</ele>
        <time>2022-12-12T12:24:08.780Z</time>
      </trkpt>
      <trkpt lat="48.20773" lon="-3.21724">
        <ele>182.123551</ele>
        <time>2022-12-12T12:24:11.771Z</time>
      </trkpt>
      <trkpt lat="48.20781" lon="-3.21715">
        <ele>182.085622</ele>
        <time>2022-12-12T12:24:14.789Z</time>
      </trkpt>
      <trkpt lat="48.20788" lon="-3.21705">
        <ele>182.044915</ele>
        <time>2022-12-12T12:24:17.798Z</time>
      </trkpt>
      <trkpt lat="48.20797" lon="-3.21696">
        <ele>182.003986</ele>
        <time>2022-12-12T12:24:20.789Z</time>
      </trkpt>
      <trkpt lat="48.20804" lon="-3.21687">
        <ele>181.966056</ele>
        <time>2022-12-12T12:24:23.786Z</time>
      </trkpt>
      <trkpt lat="48.20814" lon="-3.21677">
        <ele>181.919455</ele>
        <time>2022-12-12T12:24:27.769Z</time>
      </trkpt>
      <trkpt lat="48.20822" lon="-3.21668">
        <ele>181.882</ele>
        <time>2022-12-12T12:24:30.785Z</time>
      </trkpt>
      <trkpt lat="48.2083" lon="-3.2166">
        <ele>181.841812</ele>
        <time>2022-12-12T12:24:33.793Z</time>
      </trkpt>
      <trkpt lat="48.20839" lon="-3.2165">
        <ele>181.799292</ele>
        <time>2022-12-12T12:24:36.792Z</time>
      </trkpt>
      <trkpt lat="48.20848" lon="-3.21639">
        <ele>181.75423</ele>
        <time>2022-12-12T12:24:39.786Z</time>
      </trkpt>
      <trkpt lat="48.20857" lon="-3.21631">
        <ele>181.713475</ele>
        <time>2022-12-12T12:24:42.785Z</time>
      </trkpt>
      <trkpt lat="48.20864" lon="-3.21623">
        <ele>181.730925</ele>
        <time>2022-12-12T12:24:45.788Z</time>
      </trkpt>
      <trkpt lat="48.20872" lon="-3.21613">
        <ele>181.867681</ele>
        <time>2022-12-12T12:24:48.793Z</time>
      </trkpt>
      <trkpt lat="48.2088" lon="-3.21604">
        <ele>182.018333</ele>
        <time>2022-12-12T12:24:51.791Z</time>
      </trkpt>
      <trkpt lat="48.20889" lon="-3.21595">
        <ele>182.174678</ele>
        <time>2022-12-12T12:24:54.776Z</time>
      </trkpt>
      <trkpt lat="48.20897" lon="-3.21585">
        <ele>182.319787</ele>
        <time>2022-12-12T12:24:57.769Z</time>
      </trkpt>
      <trkpt lat="48.20906" lon="-3.21575">
        <ele>182.47382</ele>
        <time>2022-12-12T12:25:00.784Z</time>
      </trkpt>
      <trkpt lat="48.20913" lon="-3.21566">
        <ele>182.609621</ele>
        <time>2022-12-12T12:25:03.770Z</time>
      </trkpt>
      <trkpt lat="48.20921" lon="-3.21557">
        <ele>182.754623</ele>
        <time>2022-12-12T12:25:06.784Z</time>
      </trkpt>
      <trkpt lat="48.20931" lon="-3.21545">
        <ele>182.935468</ele>
        <time>2022-12-12T12:25:10.787Z</time>
      </trkpt>
      <trkpt lat="48.2094" lon="-3.21535">
        <ele>183.091211</ele>
        <time>2022-12-12T12:25:13.784Z</time>
      </trkpt>
      <trkpt lat="48.20949" lon="-3.21526">
        <ele>183.247081</ele>
        <time>2022-12-12T12:25:16.780Z</time>
      </trkpt>
      <trkpt lat="48.20957" lon="-3.21516">
        <ele>183.401682</ele>
        <time>2022-12-12T12:25:19.786Z</time>
      </trkpt>
      <trkpt lat="48.20965" lon="-3.21507">
        <ele>183.543786</ele>
        <time>2022-12-12T12:25:22.783Z</time>
      </trkpt>
      <trkpt lat="48.20975" lon="-3.21498">
        <ele>183.708893</ele>
        <time>2022-12-12T12:25:26.787Z</time>
      </trkpt>
      <trkpt lat="48.20983" lon="-3.2149">
        <ele>183.843123</ele>
        <time>2022-12-12T12:25:29.775Z</time>
      </trkpt>
      <trkpt lat="48.20992" lon="-3.21481">
        <ele>184.000078</ele>
        <time>2022-12-12T12:25:32.787Z</time>
      </trkpt>
      <trkpt lat="48.21" lon="-3.21471">
        <ele>184.143482</ele>
        <time>2022-12-12T12:25:35.782Z</time>
      </trkpt>
      <trkpt lat="48.21008" lon="-3.21461">
        <ele>184.182547</ele>
        <time>2022-12-12T12:25:39.786Z</time>
      </trkpt>
      <trkpt lat="48.21015" lon="-3.21451">
        <ele>183.960829</ele>
        <time>2022-12-12T12:25:43.785Z</time>
      </trkpt>
      <trkpt lat="48.21014" lon="-3.21437">
        <ele>183.743521</ele>
        <time>2022-12-12T12:25:47.786Z</time>
      </trkpt>
      <trkpt lat="48.21007" lon="-3.21424">
        <ele>183.487861</ele>
        <time>2022-12-12T12:25:51.778Z</time>
      </trkpt>
      <trkpt lat="48.21011" lon="-3.21411">
        <ele>183.266592</ele>
        <time>2022-12-12T12:25:57.775Z</time>
      </trkpt>
      <trkpt lat="48.21027" lon="-3.21396">
        <ele>182.829133</ele>
        <time>2022-12-12T12:28:51.776Z</time>
      </trkpt>
      <trkpt lat="48.21037" lon="-3.21384">
        <ele>182.532627</ele>
        <time>2022-12-12T12:28:54.796Z</time>
      </trkpt>
      <trkpt lat="48.21045" lon="-3.21376">
        <ele>182.31795</ele>
        <time>2022-12-12T12:28:56.793Z</time>
      </trkpt>
      <trkpt lat="48.21053" lon="-3.21367">
        <ele>182.089324</ele>
        <time>2022-12-12T12:28:58.786Z</time>
      </trkpt>
      <trkpt lat="48.21062" lon="-3.21355">
        <ele>181.795468</ele>
        <time>2022-12-12T12:29:01.777Z</time>
      </trkpt>
      <trkpt lat="48.21072" lon="-3.21344">
        <ele>181.509122</ele>
        <time>2022-12-12T12:29:04.789Z</time>
      </trkpt>
      <trkpt lat="48.21081" lon="-3.21333">
        <ele>181.237741</ele>
        <time>2022-12-12T12:29:07.784Z</time>
      </trkpt>
      <trkpt lat="48.2109" lon="-3.21325">
        <ele>181.001023</ele>
        <time>2022-12-12T12:29:10.791Z</time>
      </trkpt>
      <trkpt lat="48.21098" lon="-3.21317">
        <ele>180.776158</ele>
        <time>2022-12-12T12:29:13.773Z</time>
      </trkpt>
      <trkpt lat="48.21106" lon="-3.21309">
        <ele>180.551865</ele>
        <time>2022-12-12T12:29:16.787Z</time>
      </trkpt>
      <trkpt lat="48.21116" lon="-3.21301">
        <ele>180.28797</ele>
        <time>2022-12-12T12:29:19.791Z</time>
      </trkpt>
      <trkpt lat="48.21127" lon="-3.21293">
        <ele>180.136012</ele>
        <time>2022-12-12T12:29:22.794Z</time>
      </trkpt>
      <trkpt lat="48.21138" lon="-3.21285">
        <ele>180.378315</ele>
        <time>2022-12-12T12:29:25.784Z</time>
      </trkpt>
      <trkpt lat="48.21149" lon="-3.21277">
        <ele>180.624867</ele>
        <time>2022-12-12T12:29:28.791Z</time>
      </trkpt>
      <trkpt lat="48.21161" lon="-3.21269">
        <ele>180.880834</ele>
        <time>2022-12-12T12:29:31.785Z</time>
      </trkpt>
      <trkpt lat="48.21172" lon="-3.21261">
        <ele>181.125497</ele>
        <time>2022-12-12T12:29:34.799Z</time>
      </trkpt>
      <trkpt lat="48.21184" lon="-3.21252">
        <ele>181.377242</ele>
        <time>2022-12-12T12:29:37.793Z</time>
      </trkpt>
      <trkpt lat="48.21195" lon="-3.21244">
        <ele>181.625473</ele>
        <time>2022-12-12T12:29:40.787Z</time>
      </trkpt>
      <trkpt lat="48.21205" lon="-3.21235">
        <ele>181.860852</ele>
        <time>2022-12-12T12:29:43.791Z</time>
      </trkpt>
      <trkpt lat="48.21216" lon="-3.21226">
        <ele>182.105575</ele>
        <time>2022-12-12T12:29:46.787Z</time>
      </trkpt>
      <trkpt lat="48.21227" lon="-3.21217">
        <ele>182.35741</ele>
        <time>2022-12-12T12:29:49.800Z</time>
      </trkpt>
      <trkpt lat="48.21238" lon="-3.21208">
        <ele>182.610706</ele>
        <time>2022-12-12T12:29:52.801Z</time>
      </trkpt>
      <trkpt lat="48.2125" lon="-3.21199">
        <ele>182.864823</ele>
        <time>2022-12-12T12:29:55.788Z</time>
      </trkpt>
      <trkpt lat="48.21261" lon="-3.2119">
        <ele>183.125432</ele>
        <time>2022-12-12T12:29:58.800Z</time>
      </trkpt>
      <trkpt lat="48.2127" lon="-3.21184">
        <ele>183.309274</ele>
        <time>2022-12-12T12:30:00.787Z</time>
      </trkpt>
      <trkpt lat="48.21281" lon="-3.21177">
        <ele>183.559646</ele>
        <time>2022-12-12T12:30:03.800Z</time>
      </trkpt>
      <trkpt lat="48.21291" lon="-3.21169">
        <ele>183.671876</ele>
        <time>2022-12-12T12:30:06.788Z</time>
      </trkpt>
      <trkpt lat="48.21301" lon="-3.21161">
        <ele>183.723667</ele>
        <time>2022-12-12T12:30:09.789Z</time>
      </trkpt>
      <trkpt lat="48.21312" lon="-3.21153">
        <ele>183.778483</ele>
        <time>2022-12-12T12:30:12.788Z</time>
      </trkpt>
      <trkpt lat="48.21323" lon="-3.21143">
        <ele>183.835238</ele>
        <time>2022-12-12T12:30:15.784Z</time>
      </trkpt>
      <trkpt lat="48.21334" lon="-3.21134">
        <ele>183.892636</ele>
        <time>2022-12-12T12:30:18.789Z</time>
      </trkpt>
      <trkpt lat="48.21345" lon="-3.21125">
        <ele>183.952968</ele>
        <time>2022-12-12T12:30:21.788Z</time>
      </trkpt>
      <trkpt lat="48.21353" lon="-3.21119">
        <ele>183.99429</ele>
        <time>2022-12-12T12:30:23.797Z</time>
      </trkpt>
      <trkpt lat="48.21365" lon="-3.21109">
        <ele>184.053432</ele>
        <time>2022-12-12T12:30:26.784Z</time>
      </trkpt>
      <trkpt lat="48.21376" lon="-3.21101">
        <ele>184.109143</ele>
        <time>2022-12-12T12:30:29.793Z</time>
      </trkpt>
      <trkpt lat="48.21386" lon="-3.21094">
        <ele>184.159025</ele>
        <time>2022-12-12T12:30:32.792Z</time>
      </trkpt>
      <trkpt lat="48.21396" lon="-3.21086">
        <ele>184.215014</ele>
        <time>2022-12-12T12:30:35.803Z</time>
      </trkpt>
      <trkpt lat="48.21407" lon="-3.21077">
        <ele>184.267944</ele>
        <time>2022-12-12T12:30:38.800Z</time>
      </trkpt>
      <trkpt lat="48.21417" lon="-3.21068">
        <ele>184.323059</ele>
        <time>2022-12-12T12:30:41.789Z</time>
      </trkpt>
      <trkpt lat="48.21428" lon="-3.21058">
        <ele>184.379905</ele>
        <time>2022-12-12T12:30:44.793Z</time>
      </trkpt>
      <trkpt lat="48.21438" lon="-3.21047">
        <ele>184.436238</ele>
        <time>2022-12-12T12:30:47.797Z</time>
      </trkpt>
      <trkpt lat="48.21446" lon="-3.21036">
        <ele>184.368287</ele>
        <time>2022-12-12T12:30:50.785Z</time>
      </trkpt>
      <trkpt lat="48.21456" lon="-3.21025">
        <ele>184.183782</ele>
        <time>2022-12-12T12:30:53.788Z</time>
      </trkpt>
      <trkpt lat="48.21466" lon="-3.21014">
        <ele>183.981835</ele>
        <time>2022-12-12T12:30:56.794Z</time>
      </trkpt>
      <trkpt lat="48.21476" lon="-3.21001">
        <ele>183.775441</ele>
        <time>2022-12-12T12:30:59.787Z</time>
      </trkpt>
      <trkpt lat="48.21487" lon="-3.2099">
        <ele>183.572288</ele>
        <time>2022-12-12T12:31:02.791Z</time>
      </trkpt>
      <trkpt lat="48.21498" lon="-3.20978">
        <ele>183.369779</ele>
        <time>2022-12-12T12:31:05.792Z</time>
      </trkpt>
      <trkpt lat="48.21507" lon="-3.20968">
        <ele>183.181546</ele>
        <time>2022-12-12T12:31:08.786Z</time>
      </trkpt>
      <trkpt lat="48.21515" lon="-3.2096">
        <ele>183.041151</ele>
        <time>2022-12-12T12:31:10.789Z</time>
      </trkpt>
      <trkpt lat="48.21525" lon="-3.20948">
        <ele>182.836162</ele>
        <time>2022-12-12T12:31:13.786Z</time>
      </trkpt>
      <trkpt lat="48.21534" lon="-3.20937">
        <ele>182.656642</ele>
        <time>2022-12-12T12:31:16.786Z</time>
      </trkpt>
      <trkpt lat="48.21543" lon="-3.20928">
        <ele>182.49576</ele>
        <time>2022-12-12T12:31:19.795Z</time>
      </trkpt>
      <trkpt lat="48.2155" lon="-3.2092">
        <ele>182.349114</ele>
        <time>2022-12-12T12:31:22.788Z</time>
      </trkpt>
      <trkpt lat="48.21558" lon="-3.2091">
        <ele>182.194825</ele>
        <time>2022-12-12T12:31:25.784Z</time>
      </trkpt>
      <trkpt lat="48.21565" lon="-3.209">
        <ele>182.037776</ele>
        <time>2022-12-12T12:31:28.787Z</time>
      </trkpt>
      <trkpt lat="48.21574" lon="-3.20889">
        <ele>181.864374</ele>
        <time>2022-12-12T12:31:31.786Z</time>
      </trkpt>
      <trkpt lat="48.21583" lon="-3.20877">
        <ele>181.675754</ele>
        <time>2022-12-12T12:31:34.794Z</time>
      </trkpt>
      <trkpt lat="48.21591" lon="-3.20863">
        <ele>181.772096</ele>
        <time>2022-12-12T12:31:37.781Z</time>
      </trkpt>
      <trkpt lat="48.21599" lon="-3.2085">
        <ele>181.877642</ele>
        <time>2022-12-12T12:31:40.787Z</time>
      </trkpt>
      <trkpt lat="48.21606" lon="-3.20836">
        <ele>181.982947</ele>
        <time>2022-12-12T12:31:43.779Z</time>
      </trkpt>
      <trkpt lat="48.21614" lon="-3.20822">
        <ele>182.086292</ele>
        <time>2022-12-12T12:31:46.773Z</time>
      </trkpt>
      <trkpt lat="48.21622" lon="-3.20811">
        <ele>182.189496</ele>
        <time>2022-12-12T12:31:49.790Z</time>
      </trkpt>
      <trkpt lat="48.21631" lon="-3.20801">
        <ele>182.289733</ele>
        <time>2022-12-12T12:31:52.785Z</time>
      </trkpt>
      <trkpt lat="48.2164" lon="-3.20792">
        <ele>182.388895</ele>
        <time>2022-12-12T12:31:55.788Z</time>
      </trkpt>
      <trkpt lat="48.21649" lon="-3.20782">
        <ele>182.484553</ele>
        <time>2022-12-12T12:31:58.786Z</time>
      </trkpt>
      <trkpt lat="48.21658" lon="-3.20773">
        <ele>182.58086</ele>
        <time>2022-12-12T12:32:01.791Z</time>
      </trkpt>
      <trkpt lat="48.21666" lon="-3.20763">
        <ele>182.676097</ele>
        <time>2022-12-12T12:32:04.795Z</time>
      </trkpt>
      <trkpt lat="48.21676" lon="-3.20753">
        <ele>182.783249</ele>
        <time>2022-12-12T12:32:07.781Z</time>
      </trkpt>
      <trkpt lat="48.21685" lon="-3.20743">
        <ele>182.88493</ele>
        <time>2022-12-12T12:32:10.776Z</time>
      </trkpt>
      <trkpt lat="48.21693" lon="-3.20735">
        <ele>182.970755</ele>
        <time>2022-12-12T12:32:13.793Z</time>
      </trkpt>
      <trkpt lat="48.21701" lon="-3.20728">
        <ele>183.052835</ele>
        <time>2022-12-12T12:32:16.769Z</time>
      </trkpt>
      <trkpt lat="48.2171" lon="-3.20719">
        <ele>183.145869</ele>
        <time>2022-12-12T12:32:19.782Z</time>
      </trkpt>
      <trkpt lat="48.21718" lon="-3.20708">
        <ele>183.243556</ele>
        <time>2022-12-12T12:32:22.775Z</time>
      </trkpt>
      <trkpt lat="48.21725" lon="-3.20694">
        <ele>183.268102</ele>
        <time>2022-12-12T12:32:25.787Z</time>
      </trkpt>
      <trkpt lat="48.21732" lon="-3.20678">
        <ele>183.254891</ele>
        <time>2022-12-12T12:32:28.789Z</time>
      </trkpt>
      <trkpt lat="48.21737" lon="-3.20661">
        <ele>183.241861</ele>
        <time>2022-12-12T12:32:31.778Z</time>
      </trkpt>
      <trkpt lat="48.21743" lon="-3.20645">
        <ele>183.229346</ele>
        <time>2022-12-12T12:32:34.789Z</time>
      </trkpt>
      <trkpt lat="48.21746" lon="-3.20632">
        <ele>183.219365</ele>
        <time>2022-12-12T12:32:37.800Z</time>
      </trkpt>
      <trkpt lat="48.21751" lon="-3.20617">
        <ele>183.207723</ele>
        <time>2022-12-12T12:32:40.800Z</time>
      </trkpt>
      <trkpt lat="48.21756" lon="-3.206">
        <ele>183.194719</ele>
        <time>2022-12-12T12:32:43.785Z</time>
      </trkpt>
      <trkpt lat="48.21761" lon="-3.20584">
        <ele>183.182643</ele>
        <time>2022-12-12T12:32:46.795Z</time>
      </trkpt>
      <trkpt lat="48.21768" lon="-3.20569">
        <ele>183.169672</ele>
        <time>2022-12-12T12:32:49.776Z</time>
      </trkpt>
      <trkpt lat="48.21775" lon="-3.20554">
        <ele>183.157166</ele>
        <time>2022-12-12T12:32:52.789Z</time>
      </trkpt>
      <trkpt lat="48.2178" lon="-3.20538">
        <ele>183.14443</ele>
        <time>2022-12-12T12:32:55.786Z</time>
      </trkpt>
      <trkpt lat="48.21785" lon="-3.20523">
        <ele>183.133215</ele>
        <time>2022-12-12T12:32:58.776Z</time>
      </trkpt>
      <trkpt lat="48.21788" lon="-3.2051">
        <ele>183.12329</ele>
        <time>2022-12-12T12:33:01.801Z</time>
      </trkpt>
      <trkpt lat="48.21791" lon="-3.20497">
        <ele>183.113581</ele>
        <time>2022-12-12T12:33:04.790Z</time>
      </trkpt>
      <trkpt lat="48.21795" lon="-3.20483">
        <ele>183.102957</ele>
        <time>2022-12-12T12:33:07.789Z</time>
      </trkpt>
      <trkpt lat="48.21801" lon="-3.20469">
        <ele>183.091829</ele>
        <time>2022-12-12T12:33:10.802Z</time>
      </trkpt>
      <trkpt lat="48.21805" lon="-3.20455">
        <ele>182.998686</ele>
        <time>2022-12-12T12:33:13.788Z</time>
      </trkpt>
      <trkpt lat="48.21809" lon="-3.2044">
        <ele>182.865203</ele>
        <time>2022-12-12T12:33:16.801Z</time>
      </trkpt>
      <trkpt lat="48.21815" lon="-3.20426">
        <ele>182.724744</ele>
        <time>2022-12-12T12:33:19.783Z</time>
      </trkpt>
      <trkpt lat="48.2182" lon="-3.20409">
        <ele>182.566658</ele>
        <time>2022-12-12T12:33:22.801Z</time>
      </trkpt>
      <trkpt lat="48.21825" lon="-3.20396">
        <ele>182.441197</ele>
        <time>2022-12-12T12:33:24.783Z</time>
      </trkpt>
      <trkpt lat="48.21831" lon="-3.20383">
        <ele>182.307329</ele>
        <time>2022-12-12T12:33:26.771Z</time>
      </trkpt>
      <trkpt lat="48.21837" lon="-3.20369">
        <ele>182.164428</ele>
        <time>2022-12-12T12:33:28.799Z</time>
      </trkpt>
      <trkpt lat="48.21843" lon="-3.20355">
        <ele>182.027855</ele>
        <time>2022-12-12T12:33:30.800Z</time>
      </trkpt>
      <trkpt lat="48.21849" lon="-3.20343">
        <ele>181.898377</ele>
        <time>2022-12-12T12:33:32.788Z</time>
      </trkpt>
      <trkpt lat="48.21854" lon="-3.20331">
        <ele>181.779416</ele>
        <time>2022-12-12T12:33:34.790Z</time>
      </trkpt>
      <trkpt lat="48.21859" lon="-3.2032">
        <ele>181.664717</ele>
        <time>2022-12-12T12:33:36.791Z</time>
      </trkpt>
      <trkpt lat="48.21867" lon="-3.20305">
        <ele>181.506607</ele>
        <time>2022-12-12T12:33:39.796Z</time>
      </trkpt>
      <trkpt lat="48.21874" lon="-3.2029">
        <ele>181.347048</ele>
        <time>2022-12-12T12:33:42.785Z</time>
      </trkpt>
      <trkpt lat="48.21882" lon="-3.20275">
        <ele>181.189353</ele>
        <time>2022-12-12T12:33:45.794Z</time>
      </trkpt>
      <trkpt lat="48.21889" lon="-3.20259">
        <ele>181.024628</ele>
        <time>2022-12-12T12:33:48.794Z</time>
      </trkpt>
      <trkpt lat="48.21895" lon="-3.20248">
        <ele>180.909688</ele>
        <time>2022-12-12T12:33:50.780Z</time>
      </trkpt>
      <trkpt lat="48.21901" lon="-3.20238">
        <ele>180.8147</ele>
        <time>2022-12-12T12:33:52.793Z</time>
      </trkpt>
      <trkpt lat="48.21906" lon="-3.20227">
        <ele>180.886646</ele>
        <time>2022-12-12T12:33:54.805Z</time>
      </trkpt>
      <trkpt lat="48.21911" lon="-3.20215">
        <ele>180.961737</ele>
        <time>2022-12-12T12:33:56.779Z</time>
      </trkpt>
      <trkpt lat="48.21916" lon="-3.20203">
        <ele>181.033681</ele>
        <time>2022-12-12T12:33:58.790Z</time>
      </trkpt>
      <trkpt lat="48.21922" lon="-3.20193">
        <ele>181.106999</ele>
        <time>2022-12-12T12:34:00.775Z</time>
      </trkpt>
      <trkpt lat="48.21927" lon="-3.20181">
        <ele>181.180269</ele>
        <time>2022-12-12T12:34:02.793Z</time>
      </trkpt>
      <trkpt lat="48.21934" lon="-3.20164">
        <ele>181.286101</ele>
        <time>2022-12-12T12:34:05.778Z</time>
      </trkpt>
      <trkpt lat="48.21942" lon="-3.20147">
        <ele>181.390999</ele>
        <time>2022-12-12T12:34:08.789Z</time>
      </trkpt>
      <trkpt lat="48.2195" lon="-3.20131">
        <ele>181.496869</ele>
        <time>2022-12-12T12:34:11.791Z</time>
      </trkpt>
      <trkpt lat="48.21955" lon="-3.20121">
        <ele>181.568046</ele>
        <time>2022-12-12T12:34:13.796Z</time>
      </trkpt>
      <trkpt lat="48.21963" lon="-3.20104">
        <ele>181.676869</ele>
        <time>2022-12-12T12:34:16.786Z</time>
      </trkpt>
      <trkpt lat="48.21971" lon="-3.20087">
        <ele>181.782655</ele>
        <time>2022-12-12T12:34:19.785Z</time>
      </trkpt>
      <trkpt lat="48.21976" lon="-3.20076">
        <ele>181.85473</ele>
        <time>2022-12-12T12:34:21.791Z</time>
      </trkpt>
      <trkpt lat="48.21984" lon="-3.2006">
        <ele>181.959149</ele>
        <time>2022-12-12T12:34:24.805Z</time>
      </trkpt>
      <trkpt lat="48.21991" lon="-3.20044">
        <ele>182.062336</ele>
        <time>2022-12-12T12:34:27.794Z</time>
      </trkpt>
      <trkpt lat="48.21997" lon="-3.20033">
        <ele>182.135638</ele>
        <time>2022-12-12T12:34:29.799Z</time>
      </trkpt>
      <trkpt lat="48.22002" lon="-3.20022">
        <ele>182.2089</ele>
        <time>2022-12-12T12:34:31.789Z</time>
      </trkpt>
      <trkpt lat="48.22007" lon="-3.2001">
        <ele>182.183592</ele>
        <time>2022-12-12T12:34:33.796Z</time>
      </trkpt>
      <trkpt lat="48.22012" lon="-3.19999">
        <ele>182.120244</ele>
        <time>2022-12-12T12:34:35.784Z</time>
      </trkpt>
      <trkpt lat="48.22019" lon="-3.19981">
        <ele>182.029932</ele>
        <time>2022-12-12T12:34:38.788Z</time>
      </trkpt>
      <trkpt lat="48.22026" lon="-3.19965">
        <ele>181.939438</ele>
        <time>2022-12-12T12:34:41.793Z</time>
      </trkpt>
      <trkpt lat="48.22031" lon="-3.19953">
        <ele>181.878358</ele>
        <time>2022-12-12T12:34:43.792Z</time>
      </trkpt>
      <trkpt lat="48.22036" lon="-3.19941">
        <ele>181.815369</ele>
        <time>2022-12-12T12:34:45.780Z</time>
      </trkpt>
      <trkpt lat="48.22043" lon="-3.19926">
        <ele>181.730914</ele>
        <time>2022-12-12T12:34:48.789Z</time>
      </trkpt>
      <trkpt lat="48.2205" lon="-3.19911">
        <ele>181.646459</ele>
        <time>2022-12-12T12:34:51.801Z</time>
      </trkpt>
      <trkpt lat="48.22057" lon="-3.19894">
        <ele>181.558235</ele>
        <time>2022-12-12T12:34:54.790Z</time>
      </trkpt>
      <trkpt lat="48.22064" lon="-3.19878">
        <ele>181.470366</ele>
        <time>2022-12-12T12:34:57.791Z</time>
      </trkpt>
      <trkpt lat="48.22073" lon="-3.19864">
        <ele>181.382511</ele>
        <time>2022-12-12T12:35:00.799Z</time>
      </trkpt>
      <trkpt lat="48.22082" lon="-3.19852">
        <ele>181.297273</ele>
        <time>2022-12-12T12:35:03.771Z</time>
      </trkpt>
      <trkpt lat="48.22092" lon="-3.19839">
        <ele>181.210262</ele>
        <time>2022-12-12T12:35:06.785Z</time>
      </trkpt>
      <trkpt lat="48.22101" lon="-3.19827">
        <ele>181.125836</ele>
        <time>2022-12-12T12:35:09.801Z</time>
      </trkpt>
      <trkpt lat="48.22111" lon="-3.19815">
        <ele>181.040076</ele>
        <time>2022-12-12T12:35:12.788Z</time>
      </trkpt>
      <trkpt lat="48.22121" lon="-3.19803">
        <ele>180.970514</ele>
        <time>2022-12-12T12:35:15.771Z</time>
      </trkpt>
      <trkpt lat="48.22131" lon="-3.1979">
        <ele>180.91247</ele>
        <time>2022-12-12T12:35:18.783Z</time>
      </trkpt>
      <trkpt lat="48.22141" lon="-3.19777">
        <ele>180.853514</ele>
        <time>2022-12-12T12:35:21.786Z</time>
      </trkpt>
      <trkpt lat="48.22149" lon="-3.19768">
        <ele>180.811328</ele>
        <time>2022-12-12T12:35:23.784Z</time>
      </trkpt>
      <trkpt lat="48.22156" lon="-3.1976">
        <ele>180.770255</ele>
        <time>2022-12-12T12:35:25.794Z</time>
      </trkpt>
      <trkpt lat="48.22163" lon="-3.19751">
        <ele>180.729896</ele>
        <time>2022-12-12T12:35:27.796Z</time>
      </trkpt>
      <trkpt lat="48.22172" lon="-3.1974">
        <ele>180.677768</ele>
        <time>2022-12-12T12:35:30.799Z</time>
      </trkpt>
      <trkpt lat="48.22182" lon="-3.19728">
        <ele>180.623363</ele>
        <time>2022-12-12T12:35:33.778Z</time>
      </trkpt>
      <trkpt lat="48.22191" lon="-3.19716">
        <ele>180.566761</ele>
        <time>2022-12-12T12:35:36.797Z</time>
      </trkpt>
      <trkpt lat="48.22201" lon="-3.19704">
        <ele>180.510119</ele>
        <time>2022-12-12T12:35:39.782Z</time>
      </trkpt>
      <trkpt lat="48.22209" lon="-3.19689">
        <ele>180.454074</ele>
        <time>2022-12-12T12:35:42.789Z</time>
      </trkpt>
      <trkpt lat="48.22216" lon="-3.19674">
        <ele>180.397866</ele>
        <time>2022-12-12T12:35:45.779Z</time>
      </trkpt>
      <trkpt lat="48.22222" lon="-3.19657">
        <ele>180.342352</ele>
        <time>2022-12-12T12:35:48.788Z</time>
      </trkpt>
      <trkpt lat="48.22226" lon="-3.19639">
        <ele>180.286144</ele>
        <time>2022-12-12T12:35:51.772Z</time>
      </trkpt>
      <trkpt lat="48.22231" lon="-3.19622">
        <ele>180.23163</ele>
        <time>2022-12-12T12:35:54.775Z</time>
      </trkpt>
      <trkpt lat="48.22236" lon="-3.19608">
        <ele>180.209835</ele>
        <time>2022-12-12T12:35:57.777Z</time>
      </trkpt>
      <trkpt lat="48.22243" lon="-3.19596">
        <ele>180.217801</ele>
        <time>2022-12-12T12:36:00.790Z</time>
      </trkpt>
      <trkpt lat="48.2225" lon="-3.19584">
        <ele>180.226085</ele>
        <time>2022-12-12T12:36:03.793Z</time>
      </trkpt>
      <trkpt lat="48.22257" lon="-3.19572">
        <ele>180.234781</ele>
        <time>2022-12-12T12:36:06.784Z</time>
      </trkpt>
      <trkpt lat="48.22264" lon="-3.19557">
        <ele>180.243673</ele>
        <time>2022-12-12T12:36:09.794Z</time>
      </trkpt>
      <trkpt lat="48.2227" lon="-3.19542">
        <ele>180.252828</ele>
        <time>2022-12-12T12:36:12.775Z</time>
      </trkpt>
      <trkpt lat="48.22275" lon="-3.19526">
        <ele>180.262029</ele>
        <time>2022-12-12T12:36:15.787Z</time>
      </trkpt>
      <trkpt lat="48.2228" lon="-3.1951">
        <ele>180.271118</ele>
        <time>2022-12-12T12:36:18.788Z</time>
      </trkpt>
      <trkpt lat="48.22284" lon="-3.19495">
        <ele>180.279691</ele>
        <time>2022-12-12T12:36:21.791Z</time>
      </trkpt>
      <trkpt lat="48.22287" lon="-3.19482">
        <ele>180.286844</ele>
        <time>2022-12-12T12:36:24.784Z</time>
      </trkpt>
      <trkpt lat="48.2229" lon="-3.19469">
        <ele>180.2941</ele>
        <time>2022-12-12T12:36:27.798Z</time>
      </trkpt>
      <trkpt lat="48.22294" lon="-3.19455">
        <ele>180.301712</ele>
        <time>2022-12-12T12:36:30.789Z</time>
      </trkpt>
      <trkpt lat="48.22298" lon="-3.19441">
        <ele>180.309735</ele>
        <time>2022-12-12T12:36:33.789Z</time>
      </trkpt>
      <trkpt lat="48.22302" lon="-3.19426">
        <ele>180.317865</ele>
        <time>2022-12-12T12:36:36.792Z</time>
      </trkpt>
      <trkpt lat="48.22308" lon="-3.19413">
        <ele>180.326155</ele>
        <time>2022-12-12T12:36:39.789Z</time>
      </trkpt>
      <trkpt lat="48.22316" lon="-3.194">
        <ele>180.334761</ele>
        <time>2022-12-12T12:36:42.790Z</time>
      </trkpt>
      <trkpt lat="48.22324" lon="-3.19388">
        <ele>180.343597</ele>
        <time>2022-12-12T12:36:45.792Z</time>
      </trkpt>
      <trkpt lat="48.22332" lon="-3.19376">
        <ele>180.267119</ele>
        <time>2022-12-12T12:36:48.783Z</time>
      </trkpt>
      <trkpt lat="48.22341" lon="-3.19364">
        <ele>180.171082</ele>
        <time>2022-12-12T12:36:51.804Z</time>
      </trkpt>
      <trkpt lat="48.22349" lon="-3.19351">
        <ele>180.074692</ele>
        <time>2022-12-12T12:36:54.792Z</time>
      </trkpt>
      <trkpt lat="48.22358" lon="-3.19339">
        <ele>179.97811</ele>
        <time>2022-12-12T12:36:57.771Z</time>
      </trkpt>
      <trkpt lat="48.22367" lon="-3.19325">
        <ele>179.876174</ele>
        <time>2022-12-12T12:37:00.790Z</time>
      </trkpt>
      <trkpt lat="48.22376" lon="-3.19312">
        <ele>179.773653</ele>
        <time>2022-12-12T12:37:03.802Z</time>
      </trkpt>
      <trkpt lat="48.22385" lon="-3.19299">
        <ele>179.671546</ele>
        <time>2022-12-12T12:37:06.785Z</time>
      </trkpt>
      <trkpt lat="48.22395" lon="-3.19286">
        <ele>179.569535</ele>
        <time>2022-12-12T12:37:09.793Z</time>
      </trkpt>
      <trkpt lat="48.22403" lon="-3.19273">
        <ele>179.46876</ele>
        <time>2022-12-12T12:37:12.783Z</time>
      </trkpt>
      <trkpt lat="48.22412" lon="-3.1926">
        <ele>179.367032</ele>
        <time>2022-12-12T12:37:15.796Z</time>
      </trkpt>
      <trkpt lat="48.22422" lon="-3.19246">
        <ele>179.261638</ele>
        <time>2022-12-12T12:37:18.774Z</time>
      </trkpt>
      <trkpt lat="48.22431" lon="-3.19232">
        <ele>179.150768</ele>
        <time>2022-12-12T12:37:21.795Z</time>
      </trkpt>
      <trkpt lat="48.2244" lon="-3.19219">
        <ele>179.050902</ele>
        <time>2022-12-12T12:37:24.795Z</time>
      </trkpt>
      <trkpt lat="48.22448" lon="-3.19206">
        <ele>178.958262</ele>
        <time>2022-12-12T12:37:27.794Z</time>
      </trkpt>
      <trkpt lat="48.22455" lon="-3.19193">
        <ele>178.881735</ele>
        <time>2022-12-12T12:37:30.788Z</time>
      </trkpt>
      <trkpt lat="48.22463" lon="-3.19178">
        <ele>178.845566</ele>
        <time>2022-12-12T12:37:33.798Z</time>
      </trkpt>
      <trkpt lat="48.22469" lon="-3.19162">
        <ele>178.808927</ele>
        <time>2022-12-12T12:37:36.790Z</time>
      </trkpt>
      <trkpt lat="48.22476" lon="-3.19146">
        <ele>178.771228</ele>
        <time>2022-12-12T12:37:39.793Z</time>
      </trkpt>
      <trkpt lat="48.22483" lon="-3.19128">
        <ele>178.731883</ele>
        <time>2022-12-12T12:37:42.801Z</time>
      </trkpt>
      <trkpt lat="48.22488" lon="-3.19117">
        <ele>178.705078</ele>
        <time>2022-12-12T12:37:44.797Z</time>
      </trkpt>
      <trkpt lat="48.22494" lon="-3.19102">
        <ele>178.670619</ele>
        <time>2022-12-12T12:37:47.791Z</time>
      </trkpt>
      <trkpt lat="48.225" lon="-3.19088">
        <ele>178.638556</ele>
        <time>2022-12-12T12:37:50.793Z</time>
      </trkpt>
      <trkpt lat="48.22504" lon="-3.19071">
        <ele>178.603933</ele>
        <time>2022-12-12T12:37:53.785Z</time>
      </trkpt>
      <trkpt lat="48.22507" lon="-3.19053">
        <ele>178.56783</ele>
        <time>2022-12-12T12:37:56.772Z</time>
      </trkpt>
      <trkpt lat="48.2251" lon="-3.19034">
        <ele>178.529833</ele>
        <time>2022-12-12T12:37:59.773Z</time>
      </trkpt>
      <trkpt lat="48.22512" lon="-3.19016">
        <ele>178.492862</ele>
        <time>2022-12-12T12:38:02.793Z</time>
      </trkpt>
      <trkpt lat="48.22513" lon="-3.19">
        <ele>178.461432</ele>
        <time>2022-12-12T12:38:05.794Z</time>
      </trkpt>
      <trkpt lat="48.22516" lon="-3.18982">
        <ele>178.427003</ele>
        <time>2022-12-12T12:38:09.798Z</time>
      </trkpt>
      <trkpt lat="48.22521" lon="-3.18967">
        <ele>178.394262</ele>
        <time>2022-12-12T12:38:13.777Z</time>
      </trkpt>
      <trkpt lat="48.22526" lon="-3.18954">
        <ele>178.364906</ele>
        <time>2022-12-12T12:38:16.808Z</time>
      </trkpt>
      <trkpt lat="48.22531" lon="-3.18943">
        <ele>178.31356</ele>
        <time>2022-12-12T12:38:19.776Z</time>
      </trkpt>
      <trkpt lat="48.22536" lon="-3.1893">
        <ele>178.258719</ele>
        <time>2022-12-12T12:38:22.791Z</time>
      </trkpt>
      <trkpt lat="48.22543" lon="-3.1892">
        <ele>178.204164</ele>
        <time>2022-12-12T12:38:25.776Z</time>
      </trkpt>
      <trkpt lat="48.22551" lon="-3.1891">
        <ele>178.144317</ele>
        <time>2022-12-12T12:38:28.773Z</time>
      </trkpt>
      <trkpt lat="48.22559" lon="-3.18898">
        <ele>178.082212</ele>
        <time>2022-12-12T12:38:31.783Z</time>
      </trkpt>
      <trkpt lat="48.22569" lon="-3.18885">
        <ele>178.008171</ele>
        <time>2022-12-12T12:38:34.801Z</time>
      </trkpt>
      <trkpt lat="48.22579" lon="-3.18873">
        <ele>177.935838</ele>
        <time>2022-12-12T12:38:37.803Z</time>
      </trkpt>
      <trkpt lat="48.22588" lon="-3.18861">
        <ele>177.86819</ele>
        <time>2022-12-12T12:38:40.802Z</time>
      </trkpt>
      <trkpt lat="48.22596" lon="-3.18851">
        <ele>177.807036</ele>
        <time>2022-12-12T12:38:43.791Z</time>
      </trkpt>
      <trkpt lat="48.22605" lon="-3.18838">
        <ele>177.736382</ele>
        <time>2022-12-12T12:38:46.799Z</time>
      </trkpt>
      <trkpt lat="48.22614" lon="-3.18825">
        <ele>177.666334</ele>
        <time>2022-12-12T12:38:49.803Z</time>
      </trkpt>
      <trkpt lat="48.22621" lon="-3.1881">
        <ele>177.599598</ele>
        <time>2022-12-12T12:38:52.793Z</time>
      </trkpt>
      <trkpt lat="48.22626" lon="-3.18796">
        <ele>177.541307</ele>
        <time>2022-12-12T12:38:55.777Z</time>
      </trkpt>
      <trkpt lat="48.22629" lon="-3.18781">
        <ele>177.481544</ele>
        <time>2022-12-12T12:38:58.772Z</time>
      </trkpt>
      <trkpt lat="48.22631" lon="-3.18765">
        <ele>177.422334</ele>
        <time>2022-12-12T12:39:01.788Z</time>
      </trkpt>
      <trkpt lat="48.22632" lon="-3.1875">
        <ele>177.3628</ele>
        <time>2022-12-12T12:39:04.773Z</time>
      </trkpt>
      <trkpt lat="48.22632" lon="-3.18733">
        <ele>177.243071</ele>
        <time>2022-12-12T12:39:07.790Z</time>
      </trkpt>
      <trkpt lat="48.22631" lon="-3.18716">
        <ele>177.112358</ele>
        <time>2022-12-12T12:39:10.775Z</time>
      </trkpt>
      <trkpt lat="48.22629" lon="-3.18701">
        <ele>176.984986</ele>
        <time>2022-12-12T12:39:13.794Z</time>
      </trkpt>
      <trkpt lat="48.22625" lon="-3.18686">
        <ele>176.860088</ele>
        <time>2022-12-12T12:39:16.793Z</time>
      </trkpt>
      <trkpt lat="48.22621" lon="-3.18671">
        <ele>176.735333</ele>
        <time>2022-12-12T12:39:19.792Z</time>
      </trkpt>
      <trkpt lat="48.22616" lon="-3.18656">
        <ele>176.604028</ele>
        <time>2022-12-12T12:39:22.803Z</time>
      </trkpt>
      <trkpt lat="48.22612" lon="-3.18641">
        <ele>176.475054</ele>
        <time>2022-12-12T12:39:25.805Z</time>
      </trkpt>
      <trkpt lat="48.22608" lon="-3.18625">
        <ele>176.340427</ele>
        <time>2022-12-12T12:39:28.794Z</time>
      </trkpt>
      <trkpt lat="48.22604" lon="-3.18611">
        <ele>176.221655</ele>
        <time>2022-12-12T12:39:31.789Z</time>
      </trkpt>
      <trkpt lat="48.22599" lon="-3.18596">
        <ele>176.097634</ele>
        <time>2022-12-12T12:39:34.792Z</time>
      </trkpt>
      <trkpt lat="48.22596" lon="-3.18583">
        <ele>175.987574</ele>
        <time>2022-12-12T12:39:37.796Z</time>
      </trkpt>
      <trkpt lat="48.22593" lon="-3.1857">
        <ele>175.880611</ele>
        <time>2022-12-12T12:39:40.782Z</time>
      </trkpt>
      <trkpt lat="48.2259" lon="-3.18557">
        <ele>175.769911</ele>
        <time>2022-12-12T12:39:43.801Z</time>
      </trkpt>
      <trkpt lat="48.22586" lon="-3.18541">
        <ele>175.633095</ele>
        <time>2022-12-12T12:39:47.789Z</time>
      </trkpt>
      <trkpt lat="48.22582" lon="-3.18527">
        <ele>175.519337</ele>
        <time>2022-12-12T12:39:50.793Z</time>
      </trkpt>
      <trkpt lat="48.22578" lon="-3.18513">
        <ele>175.398813</ele>
        <time>2022-12-12T12:39:53.800Z</time>
      </trkpt>
      <trkpt lat="48.22574" lon="-3.18499">
        <ele>175.281916</ele>
        <time>2022-12-12T12:39:56.802Z</time>
      </trkpt>
      <trkpt lat="48.2257" lon="-3.18487">
        <ele>175.257159</ele>
        <time>2022-12-12T12:39:59.774Z</time>
      </trkpt>
      <trkpt lat="48.22565" lon="-3.18472">
        <ele>175.287031</ele>
        <time>2022-12-12T12:40:02.789Z</time>
      </trkpt>
      <trkpt lat="48.22561" lon="-3.18457">
        <ele>175.317959</ele>
        <time>2022-12-12T12:40:05.795Z</time>
      </trkpt>
      <trkpt lat="48.22558" lon="-3.18443">
        <ele>175.347504</ele>
        <time>2022-12-12T12:40:08.792Z</time>
      </trkpt>
      <trkpt lat="48.22554" lon="-3.18428">
        <ele>175.378276</ele>
        <time>2022-12-12T12:40:11.798Z</time>
      </trkpt>
      <trkpt lat="48.2255" lon="-3.18413">
        <ele>175.409028</ele>
        <time>2022-12-12T12:40:14.771Z</time>
      </trkpt>
      <trkpt lat="48.22546" lon="-3.18397">
        <ele>175.441124</ele>
        <time>2022-12-12T12:40:17.775Z</time>
      </trkpt>
      <trkpt lat="48.22542" lon="-3.18382">
        <ele>175.471</ele>
        <time>2022-12-12T12:40:20.806Z</time>
      </trkpt>
      <trkpt lat="48.22538" lon="-3.18369">
        <ele>175.498388</ele>
        <time>2022-12-12T12:40:23.766Z</time>
      </trkpt>
      <trkpt lat="48.22534" lon="-3.18355">
        <ele>175.527511</ele>
        <time>2022-12-12T12:40:26.801Z</time>
      </trkpt>
      <trkpt lat="48.2253" lon="-3.1834">
        <ele>175.558104</ele>
        <time>2022-12-12T12:40:29.797Z</time>
      </trkpt>
      <trkpt lat="48.22527" lon="-3.18325">
        <ele>175.588795</ele>
        <time>2022-12-12T12:40:32.798Z</time>
      </trkpt>
      <trkpt lat="48.22523" lon="-3.18309">
        <ele>175.620937</ele>
        <time>2022-12-12T12:40:35.790Z</time>
      </trkpt>
      <trkpt lat="48.22519" lon="-3.18293">
        <ele>175.654631</ele>
        <time>2022-12-12T12:40:38.776Z</time>
      </trkpt>
      <trkpt lat="48.22514" lon="-3.18276">
        <ele>175.69049</ele>
        <time>2022-12-12T12:40:41.774Z</time>
      </trkpt>
      <trkpt lat="48.22509" lon="-3.18258">
        <ele>175.725562</ele>
        <time>2022-12-12T12:40:44.794Z</time>
      </trkpt>
      <trkpt lat="48.22506" lon="-3.18243">
        <ele>175.754327</ele>
        <time>2022-12-12T12:40:47.802Z</time>
      </trkpt>
      <trkpt lat="48.22502" lon="-3.18229">
        <ele>175.746763</ele>
        <time>2022-12-12T12:40:50.796Z</time>
      </trkpt>
      <trkpt lat="48.22498" lon="-3.18215">
        <ele>175.738862</ele>
        <time>2022-12-12T12:40:53.795Z</time>
      </trkpt>
      <trkpt lat="48.22494" lon="-3.18199">
        <ele>175.730446</ele>
        <time>2022-12-12T12:40:56.804Z</time>
      </trkpt>
      <trkpt lat="48.2249" lon="-3.18183">
        <ele>175.721601</ele>
        <time>2022-12-12T12:40:59.794Z</time>
      </trkpt>
      <trkpt lat="48.22485" lon="-3.18166">
        <ele>175.712628</ele>
        <time>2022-12-12T12:41:02.804Z</time>
      </trkpt>
      <trkpt lat="48.2248" lon="-3.1815">
        <ele>175.703763</ele>
        <time>2022-12-12T12:41:05.787Z</time>
      </trkpt>
      <trkpt lat="48.22476" lon="-3.18135">
        <ele>175.695664</ele>
        <time>2022-12-12T12:41:08.793Z</time>
      </trkpt>
      <trkpt lat="48.22472" lon="-3.18118">
        <ele>175.686587</ele>
        <time>2022-12-12T12:41:12.800Z</time>
      </trkpt>
      <trkpt lat="48.22469" lon="-3.18104">
        <ele>175.679249</ele>
        <time>2022-12-12T12:41:15.794Z</time>
      </trkpt>
      <trkpt lat="48.22466" lon="-3.18089">
        <ele>175.671026</ele>
        <time>2022-12-12T12:41:18.802Z</time>
      </trkpt>
      <trkpt lat="48.22463" lon="-3.18073">
        <ele>175.662755</ele>
        <time>2022-12-12T12:41:21.807Z</time>
      </trkpt>
      <trkpt lat="48.2246" lon="-3.18056">
        <ele>175.654172</ele>
        <time>2022-12-12T12:41:24.794Z</time>
      </trkpt>
      <trkpt lat="48.22457" lon="-3.1804">
        <ele>175.645687</ele>
        <time>2022-12-12T12:41:27.774Z</time>
      </trkpt>
      <trkpt lat="48.22454" lon="-3.18025">
        <ele>175.637754</ele>
        <time>2022-12-12T12:41:30.798Z</time>
      </trkpt>
      <trkpt lat="48.22451" lon="-3.1801">
        <ele>175.629676</ele>
        <time>2022-12-12T12:41:33.793Z</time>
      </trkpt>
      <trkpt lat="48.22448" lon="-3.17996">
        <ele>175.622241</ele>
        <time>2022-12-12T12:41:36.800Z</time>
      </trkpt>
      <trkpt lat="48.22447" lon="-3.1798">
        <ele>175.694944</ele>
        <time>2022-12-12T12:41:39.797Z</time>
      </trkpt>
      <trkpt lat="48.22445" lon="-3.17964">
        <ele>175.826876</ele>
        <time>2022-12-12T12:41:42.786Z</time>
      </trkpt>
      <trkpt lat="48.22444" lon="-3.17948">
        <ele>175.960571</ele>
        <time>2022-12-12T12:41:45.803Z</time>
      </trkpt>
      <trkpt lat="48.22443" lon="-3.17933">
        <ele>176.08726</ele>
        <time>2022-12-12T12:41:48.801Z</time>
      </trkpt>
      <trkpt lat="48.22443" lon="-3.17919">
        <ele>176.20753</ele>
        <time>2022-12-12T12:41:51.794Z</time>
      </trkpt>
      <trkpt lat="48.22444" lon="-3.17902">
        <ele>176.345072</ele>
        <time>2022-12-12T12:41:55.789Z</time>
      </trkpt>
      <trkpt lat="48.22444" lon="-3.17888">
        <ele>176.462853</ele>
        <time>2022-12-12T12:41:59.780Z</time>
      </trkpt>
      <trkpt lat="48.22444" lon="-3.17871">
        <ele>176.60554</ele>
        <time>2022-12-12T12:42:03.773Z</time>
      </trkpt>
      <trkpt lat="48.22444" lon="-3.17854">
        <ele>176.740003</ele>
        <time>2022-12-12T12:42:07.786Z</time>
      </trkpt>
      <trkpt lat="48.22443" lon="-3.1784">
        <ele>176.862919</ele>
        <time>2022-12-12T12:42:12.773Z</time>
      </trkpt>
      <trkpt lat="48.22443" lon="-3.17824">
        <ele>176.994024</ele>
        <time>2022-12-12T12:42:19.782Z</time>
      </trkpt>
      <trkpt lat="48.22443" lon="-3.17809">
        <ele>177.120936</ele>
        <time>2022-12-12T12:42:23.779Z</time>
      </trkpt>
      <trkpt lat="48.22444" lon="-3.17795">
        <ele>177.232939</ele>
        <time>2022-12-12T12:42:26.794Z</time>
      </trkpt>
      <trkpt lat="48.22444" lon="-3.1778">
        <ele>177.359997</ele>
        <time>2022-12-12T12:42:29.794Z</time>
      </trkpt>
      <trkpt lat="48.22445" lon="-3.17765">
        <ele>177.486171</ele>
        <time>2022-12-12T12:42:32.791Z</time>
      </trkpt>
      <trkpt lat="48.22445" lon="-3.17751">
        <ele>177.599914</ele>
        <time>2022-12-12T12:42:35.802Z</time>
      </trkpt>
      <trkpt lat="48.22446" lon="-3.17735">
        <ele>177.728695</ele>
        <time>2022-12-12T12:42:39.783Z</time>
      </trkpt>
      <trkpt lat="48.22446" lon="-3.1772">
        <ele>177.855268</ele>
        <time>2022-12-12T12:42:43.803Z</time>
      </trkpt>
      <trkpt lat="48.22448" lon="-3.17706">
        <ele>177.821533</ele>
        <time>2022-12-12T12:42:46.802Z</time>
      </trkpt>
      <trkpt lat="48.2245" lon="-3.1769">
        <ele>177.778809</ele>
        <time>2022-12-12T12:42:49.778Z</time>
      </trkpt>
      <trkpt lat="48.22453" lon="-3.17672">
        <ele>177.730659</ele>
        <time>2022-12-12T12:42:52.799Z</time>
      </trkpt>
      <trkpt lat="48.22458" lon="-3.17654">
        <ele>177.679495</ele>
        <time>2022-12-12T12:42:55.796Z</time>
      </trkpt>
      <trkpt lat="48.22462" lon="-3.17637">
        <ele>177.633459</ele>
        <time>2022-12-12T12:42:58.791Z</time>
      </trkpt>
      <trkpt lat="48.22466" lon="-3.17622">
        <ele>177.590773</ele>
        <time>2022-12-12T12:43:01.794Z</time>
      </trkpt>
      <trkpt lat="48.22471" lon="-3.17606">
        <ele>177.544912</ele>
        <time>2022-12-12T12:43:04.773Z</time>
      </trkpt>
      <trkpt lat="48.22476" lon="-3.17589">
        <ele>177.49535</ele>
        <time>2022-12-12T12:43:07.787Z</time>
      </trkpt>
      <trkpt lat="48.22478" lon="-3.1757">
        <ele>177.44588</ele>
        <time>2022-12-12T12:43:10.772Z</time>
      </trkpt>
      <trkpt lat="48.22478" lon="-3.1755">
        <ele>177.394987</ele>
        <time>2022-12-12T12:43:13.791Z</time>
      </trkpt>
      <trkpt lat="48.22478" lon="-3.17531">
        <ele>177.344899</ele>
        <time>2022-12-12T12:43:16.791Z</time>
      </trkpt>
      <trkpt lat="48.22479" lon="-3.17513">
        <ele>177.298227</ele>
        <time>2022-12-12T12:43:19.796Z</time>
      </trkpt>
      <trkpt lat="48.2248" lon="-3.17494">
        <ele>177.248043</ele>
        <time>2022-12-12T12:43:22.793Z</time>
      </trkpt>
      <trkpt lat="48.22482" lon="-3.17477">
        <ele>177.202367</ele>
        <time>2022-12-12T12:43:25.784Z</time>
      </trkpt>
      <trkpt lat="48.22483" lon="-3.17459">
        <ele>177.154737</ele>
        <time>2022-12-12T12:43:28.794Z</time>
      </trkpt>
      <trkpt lat="48.22486" lon="-3.1744">
        <ele>177.177541</ele>
        <time>2022-12-12T12:43:31.776Z</time>
      </trkpt>
      <trkpt lat="48.22489" lon="-3.17421">
        <ele>177.202111</ele>
        <time>2022-12-12T12:43:34.793Z</time>
      </trkpt>
      <trkpt lat="48.22493" lon="-3.17402">
        <ele>177.227806</ele>
        <time>2022-12-12T12:43:37.804Z</time>
      </trkpt>
      <trkpt lat="48.22493" lon="-3.17383">
        <ele>177.2518</ele>
        <time>2022-12-12T12:43:40.786Z</time>
      </trkpt>
      <trkpt lat="48.22494" lon="-3.17364">
        <ele>177.275103</ele>
        <time>2022-12-12T12:43:43.774Z</time>
      </trkpt>
      <trkpt lat="48.22492" lon="-3.17348">
        <ele>177.296181</ele>
        <time>2022-12-12T12:43:46.784Z</time>
      </trkpt>
      <trkpt lat="48.22489" lon="-3.17334">
        <ele>177.315056</ele>
        <time>2022-12-12T12:43:49.791Z</time>
      </trkpt>
      <trkpt lat="48.22486" lon="-3.17319">
        <ele>177.334505</ele>
        <time>2022-12-12T12:43:52.790Z</time>
      </trkpt>
      <trkpt lat="48.22479" lon="-3.17306">
        <ele>177.355066</ele>
        <time>2022-12-12T12:43:55.781Z</time>
      </trkpt>
      <trkpt lat="48.22471" lon="-3.17295">
        <ele>177.376171</ele>
        <time>2022-12-12T12:43:58.774Z</time>
      </trkpt>
      <trkpt lat="48.22464" lon="-3.17287">
        <ele>177.393514</ele>
        <time>2022-12-12T12:44:00.789Z</time>
      </trkpt>
      <trkpt lat="48.22456" lon="-3.17275">
        <ele>177.414295</ele>
        <time>2022-12-12T12:44:02.794Z</time>
      </trkpt>
      <trkpt lat="48.22446" lon="-3.17265">
        <ele>177.437119</ele>
        <time>2022-12-12T12:44:05.792Z</time>
      </trkpt>
      <trkpt lat="48.22439" lon="-3.17256">
        <ele>177.455064</ele>
        <time>2022-12-12T12:44:09.794Z</time>
      </trkpt>
      <trkpt lat="48.22432" lon="-3.17246">
        <ele>177.472957</ele>
        <time>2022-12-12T12:44:13.800Z</time>
      </trkpt>
      <trkpt lat="48.22425" lon="-3.17237">
        <ele>177.491276</ele>
        <time>2022-12-12T12:44:16.806Z</time>
      </trkpt>
      <trkpt lat="48.22416" lon="-3.17228">
        <ele>177.762073</ele>
        <time>2022-12-12T12:44:19.790Z</time>
      </trkpt>
      <trkpt lat="48.22408" lon="-3.17217">
        <ele>178.099951</ele>
        <time>2022-12-12T12:44:22.806Z</time>
      </trkpt>
      <trkpt lat="48.22398" lon="-3.17208">
        <ele>178.461393</ele>
        <time>2022-12-12T12:44:25.780Z</time>
      </trkpt>
      <trkpt lat="48.22387" lon="-3.17199">
        <ele>178.860694</ele>
        <time>2022-12-12T12:44:28.778Z</time>
      </trkpt>
      <trkpt lat="48.22375" lon="-3.17193">
        <ele>179.263223</ele>
        <time>2022-12-12T12:44:31.778Z</time>
      </trkpt>
      <trkpt lat="48.22362" lon="-3.17188">
        <ele>179.681176</ele>
        <time>2022-12-12T12:44:34.795Z</time>
      </trkpt>
      <trkpt lat="48.2235" lon="-3.17185">
        <ele>180.080296</ele>
        <time>2022-12-12T12:44:37.802Z</time>
      </trkpt>
      <trkpt lat="48.22337" lon="-3.17181">
        <ele>180.481446</ele>
        <time>2022-12-12T12:44:40.799Z</time>
      </trkpt>
      <trkpt lat="48.22325" lon="-3.17176">
        <ele>180.877724</ele>
        <time>2022-12-12T12:44:43.795Z</time>
      </trkpt>
      <trkpt lat="48.22313" lon="-3.17172">
        <ele>181.267875</ele>
        <time>2022-12-12T12:44:46.795Z</time>
      </trkpt>
      <trkpt lat="48.223" lon="-3.17168">
        <ele>181.684533</ele>
        <time>2022-12-12T12:44:49.804Z</time>
      </trkpt>
      <trkpt lat="48.22289" lon="-3.17166">
        <ele>182.060302</ele>
        <time>2022-12-12T12:44:52.799Z</time>
      </trkpt>
      <trkpt lat="48.22275" lon="-3.17165">
        <ele>182.481849</ele>
        <time>2022-12-12T12:44:55.799Z</time>
      </trkpt>
      <trkpt lat="48.22262" lon="-3.17164">
        <ele>182.903861</ele>
        <time>2022-12-12T12:44:58.801Z</time>
      </trkpt>
      <trkpt lat="48.22251" lon="-3.17164">
        <ele>183.089114</ele>
        <time>2022-12-12T12:45:01.794Z</time>
      </trkpt>
      <trkpt lat="48.22241" lon="-3.17162">
        <ele>182.677967</ele>
        <time>2022-12-12T12:45:04.802Z</time>
      </trkpt>
      <trkpt lat="48.22229" lon="-3.17161">
        <ele>182.188175</ele>
        <time>2022-12-12T12:45:07.801Z</time>
      </trkpt>
      <trkpt lat="48.22217" lon="-3.1716">
        <ele>181.693583</ele>
        <time>2022-12-12T12:45:10.800Z</time>
      </trkpt>
      <trkpt lat="48.22205" lon="-3.17158">
        <ele>181.170452</ele>
        <time>2022-12-12T12:45:13.788Z</time>
      </trkpt>
      <trkpt lat="48.22196" lon="-3.17157">
        <ele>180.796406</ele>
        <time>2022-12-12T12:45:15.796Z</time>
      </trkpt>
      <trkpt lat="48.22183" lon="-3.17155">
        <ele>180.256022</ele>
        <time>2022-12-12T12:45:18.787Z</time>
      </trkpt>
      <trkpt lat="48.22171" lon="-3.17155">
        <ele>179.746419</ele>
        <time>2022-12-12T12:45:21.798Z</time>
      </trkpt>
      <trkpt lat="48.22158" lon="-3.17155">
        <ele>179.215937</ele>
        <time>2022-12-12T12:45:24.793Z</time>
      </trkpt>
      <trkpt lat="48.22145" lon="-3.17155">
        <ele>178.656277</ele>
        <time>2022-12-12T12:45:27.791Z</time>
      </trkpt>
      <trkpt lat="48.22131" lon="-3.17156">
        <ele>178.10069</ele>
        <time>2022-12-12T12:45:30.795Z</time>
      </trkpt>
      <trkpt lat="48.22118" lon="-3.17155">
        <ele>177.55339</ele>
        <time>2022-12-12T12:45:33.820Z</time>
      </trkpt>
      <trkpt lat="48.22106" lon="-3.17152">
        <ele>177.045304</ele>
        <time>2022-12-12T12:45:36.793Z</time>
      </trkpt>
      <trkpt lat="48.22096" lon="-3.17149">
        <ele>176.625213</ele>
        <time>2022-12-12T12:45:40.781Z</time>
      </trkpt>
      <trkpt lat="48.22087" lon="-3.17142">
        <ele>176.191788</ele>
        <time>2022-12-12T12:45:44.783Z</time>
      </trkpt>
      <trkpt lat="48.22078" lon="-3.17135">
        <ele>175.764129</ele>
        <time>2022-12-12T12:45:47.781Z</time>
      </trkpt>
      <trkpt lat="48.22068" lon="-3.17129">
        <ele>175.545159</ele>
        <time>2022-12-12T12:45:50.791Z</time>
      </trkpt>
      <trkpt lat="48.22059" lon="-3.17122">
        <ele>175.395592</ele>
        <time>2022-12-12T12:45:53.803Z</time>
      </trkpt>
      <trkpt lat="48.2205" lon="-3.17115">
        <ele>175.233774</ele>
        <time>2022-12-12T12:45:56.796Z</time>
      </trkpt>
      <trkpt lat="48.22041" lon="-3.17108">
        <ele>175.081036</ele>
        <time>2022-12-12T12:45:59.803Z</time>
      </trkpt>
      <trkpt lat="48.22031" lon="-3.17103">
        <ele>174.925113</ele>
        <time>2022-12-12T12:46:02.789Z</time>
      </trkpt>
      <trkpt lat="48.2202" lon="-3.17096">
        <ele>174.747396</ele>
        <time>2022-12-12T12:46:05.799Z</time>
      </trkpt>
      <trkpt lat="48.2201" lon="-3.17089">
        <ele>174.576859</ele>
        <time>2022-12-12T12:46:08.784Z</time>
      </trkpt>
      <trkpt lat="48.22001" lon="-3.17082">
        <ele>174.427424</ele>
        <time>2022-12-12T12:46:11.798Z</time>
      </trkpt>
      <trkpt lat="48.21993" lon="-3.17073">
        <ele>174.272747</ele>
        <time>2022-12-12T12:46:14.782Z</time>
      </trkpt>
      <trkpt lat="48.21984" lon="-3.17064">
        <ele>174.107145</ele>
        <time>2022-12-12T12:46:17.802Z</time>
      </trkpt>
      <trkpt lat="48.21975" lon="-3.17055">
        <ele>173.948143</ele>
        <time>2022-12-12T12:46:20.776Z</time>
      </trkpt>
      <trkpt lat="48.21968" lon="-3.17047">
        <ele>173.805053</ele>
        <time>2022-12-12T12:46:23.801Z</time>
      </trkpt>
      <trkpt lat="48.21959" lon="-3.17037">
        <ele>173.648059</ele>
        <time>2022-12-12T12:46:26.791Z</time>
      </trkpt>
      <trkpt lat="48.21952" lon="-3.17029">
        <ele>173.501972</ele>
        <time>2022-12-12T12:46:29.796Z</time>
      </trkpt>
      <trkpt lat="48.21943" lon="-3.1702">
        <ele>173.344318</ele>
        <time>2022-12-12T12:46:32.781Z</time>
      </trkpt>
      <trkpt lat="48.21935" lon="-3.17012">
        <ele>173.193543</ele>
        <time>2022-12-12T12:46:35.776Z</time>
      </trkpt>
      <trkpt lat="48.21926" lon="-3.17002">
        <ele>173.031487</ele>
        <time>2022-12-12T12:46:38.780Z</time>
      </trkpt>
      <trkpt lat="48.21919" lon="-3.16992">
        <ele>173.052633</ele>
        <time>2022-12-12T12:46:41.796Z</time>
      </trkpt>
      <trkpt lat="48.21912" lon="-3.1698">
        <ele>173.280105</ele>
        <time>2022-12-12T12:46:44.802Z</time>
      </trkpt>
      <trkpt lat="48.21905" lon="-3.16965">
        <ele>173.537181</ele>
        <time>2022-12-12T12:46:48.803Z</time>
      </trkpt>
      <trkpt lat="48.219" lon="-3.16952">
        <ele>173.748482</ele>
        <time>2022-12-12T12:46:51.777Z</time>
      </trkpt>
      <trkpt lat="48.21896" lon="-3.16938">
        <ele>173.966705</ele>
        <time>2022-12-12T12:46:54.794Z</time>
      </trkpt>
      <trkpt lat="48.21893" lon="-3.16922">
        <ele>174.204964</ele>
        <time>2022-12-12T12:46:57.780Z</time>
      </trkpt>
      <trkpt lat="48.2189" lon="-3.16905">
        <ele>174.44865</ele>
        <time>2022-12-12T12:47:00.800Z</time>
      </trkpt>
      <trkpt lat="48.21888" lon="-3.16887">
        <ele>174.711645</ele>
        <time>2022-12-12T12:47:03.775Z</time>
      </trkpt>
      <trkpt lat="48.21886" lon="-3.1687">
        <ele>174.950945</ele>
        <time>2022-12-12T12:47:06.805Z</time>
      </trkpt>
      <trkpt lat="48.21884" lon="-3.16851">
        <ele>175.219867</ele>
        <time>2022-12-12T12:47:09.804Z</time>
      </trkpt>
      <trkpt lat="48.21883" lon="-3.16837">
        <ele>175.411126</ele>
        <time>2022-12-12T12:47:11.795Z</time>
      </trkpt>
      <trkpt lat="48.21883" lon="-3.16821">
        <ele>175.642417</ele>
        <time>2022-12-12T12:47:14.794Z</time>
      </trkpt>
      <trkpt lat="48.21882" lon="-3.16803">
        <ele>175.89631</ele>
        <time>2022-12-12T12:47:17.800Z</time>
      </trkpt>
      <trkpt lat="48.21882" lon="-3.16786">
        <ele>176.136032</ele>
        <time>2022-12-12T12:47:20.796Z</time>
      </trkpt>
      <trkpt lat="48.21882" lon="-3.16769">
        <ele>176.380012</ele>
        <time>2022-12-12T12:47:23.802Z</time>
      </trkpt>
      <trkpt lat="48.21884" lon="-3.16753">
        <ele>176.605895</ele>
        <time>2022-12-12T12:47:26.786Z</time>
      </trkpt>
      <trkpt lat="48.21886" lon="-3.16736">
        <ele>176.667981</ele>
        <time>2022-12-12T12:47:29.786Z</time>
      </trkpt>
      <trkpt lat="48.21888" lon="-3.16718">
        <ele>176.410879</ele>
        <time>2022-12-12T12:47:32.804Z</time>
      </trkpt>
      <trkpt lat="48.2189" lon="-3.167">
        <ele>176.160654</ele>
        <time>2022-12-12T12:47:35.793Z</time>
      </trkpt>
      <trkpt lat="48.21892" lon="-3.16682">
        <ele>175.911744</ele>
        <time>2022-12-12T12:47:38.801Z</time>
      </trkpt>
      <trkpt lat="48.21896" lon="-3.16665">
        <ele>175.654897</ele>
        <time>2022-12-12T12:47:41.798Z</time>
      </trkpt>
      <trkpt lat="48.21898" lon="-3.16647">
        <ele>175.406004</ele>
        <time>2022-12-12T12:47:44.802Z</time>
      </trkpt>
      <trkpt lat="48.21901" lon="-3.16631">
        <ele>175.17525</ele>
        <time>2022-12-12T12:47:47.778Z</time>
      </trkpt>
      <trkpt lat="48.21903" lon="-3.16616">
        <ele>174.954206</ele>
        <time>2022-12-12T12:47:50.791Z</time>
      </trkpt>
      <trkpt lat="48.21907" lon="-3.16601">
        <ele>174.734786</ele>
        <time>2022-12-12T12:47:53.796Z</time>
      </trkpt>
      <trkpt lat="48.21908" lon="-3.16585">
        <ele>174.514629</ele>
        <time>2022-12-12T12:47:56.778Z</time>
      </trkpt>
      <trkpt lat="48.21908" lon="-3.16569">
        <ele>174.291689</ele>
        <time>2022-12-12T12:47:59.800Z</time>
      </trkpt>
      <trkpt lat="48.21911" lon="-3.16552">
        <ele>174.049152</ele>
        <time>2022-12-12T12:48:02.779Z</time>
      </trkpt>
      <trkpt lat="48.21917" lon="-3.16539">
        <ele>173.822859</ele>
        <time>2022-12-12T12:48:05.780Z</time>
      </trkpt>
      <trkpt lat="48.21922" lon="-3.16525">
        <ele>173.602414</ele>
        <time>2022-12-12T12:48:08.795Z</time>
      </trkpt>
      <trkpt lat="48.21927" lon="-3.16511">
        <ele>173.382772</ele>
        <time>2022-12-12T12:48:11.794Z</time>
      </trkpt>
      <trkpt lat="48.21933" lon="-3.16496">
        <ele>173.145469</ele>
        <time>2022-12-12T12:48:14.795Z</time>
      </trkpt>
      <trkpt lat="48.21939" lon="-3.16481">
        <ele>173.070914</ele>
        <time>2022-12-12T12:48:17.805Z</time>
      </trkpt>
      <trkpt lat="48.21944" lon="-3.16467">
        <ele>173.229337</ele>
        <time>2022-12-12T12:48:20.803Z</time>
      </trkpt>
      <trkpt lat="48.21949" lon="-3.16455">
        <ele>173.366549</ele>
        <time>2022-12-12T12:48:23.797Z</time>
      </trkpt>
      <trkpt lat="48.21957" lon="-3.16448">
        <ele>173.501681</ele>
        <time>2022-12-12T12:48:25.801Z</time>
      </trkpt>
      <trkpt lat="48.21966" lon="-3.16435">
        <ele>173.685692</ele>
        <time>2022-12-12T12:48:28.800Z</time>
      </trkpt>
      <trkpt lat="48.21973" lon="-3.16422">
        <ele>173.853776</ele>
        <time>2022-12-12T12:48:31.801Z</time>
      </trkpt>
      <trkpt lat="48.21979" lon="-3.16406">
        <ele>174.026023</ele>
        <time>2022-12-12T12:48:34.776Z</time>
      </trkpt>
      <trkpt lat="48.21984" lon="-3.16388">
        <ele>174.212911</ele>
        <time>2022-12-12T12:48:37.782Z</time>
      </trkpt>
      <trkpt lat="48.2199" lon="-3.1637">
        <ele>174.411432</ele>
        <time>2022-12-12T12:48:40.805Z</time>
      </trkpt>
      <trkpt lat="48.21995" lon="-3.16354">
        <ele>174.586286</ele>
        <time>2022-12-12T12:48:43.798Z</time>
      </trkpt>
      <trkpt lat="48.21998" lon="-3.16339">
        <ele>174.745889</ele>
        <time>2022-12-12T12:48:46.778Z</time>
      </trkpt>
      <trkpt lat="48.22002" lon="-3.16323">
        <ele>174.906964</ele>
        <time>2022-12-12T12:48:49.789Z</time>
      </trkpt>
      <trkpt lat="48.22006" lon="-3.16307">
        <ele>175.078555</ele>
        <time>2022-12-12T12:48:52.807Z</time>
      </trkpt>
      <trkpt lat="48.2201" lon="-3.16291">
        <ele>175.240047</ele>
        <time>2022-12-12T12:48:55.796Z</time>
      </trkpt>
      <trkpt lat="48.22013" lon="-3.16274">
        <ele>175.415385</ele>
        <time>2022-12-12T12:48:58.798Z</time>
      </trkpt>
      <trkpt lat="48.22015" lon="-3.16257">
        <ele>175.589538</ele>
        <time>2022-12-12T12:49:01.802Z</time>
      </trkpt>
      <trkpt lat="48.22016" lon="-3.16242">
        <ele>175.595695</ele>
        <time>2022-12-12T12:49:04.803Z</time>
      </trkpt>
      <trkpt lat="48.22016" lon="-3.16226">
        <ele>175.502861</ele>
        <time>2022-12-12T12:49:07.788Z</time>
      </trkpt>
      <trkpt lat="48.22016" lon="-3.1621">
        <ele>175.412195</ele>
        <time>2022-12-12T12:49:10.815Z</time>
      </trkpt>
      <trkpt lat="48.22015" lon="-3.16195">
        <ele>175.325054</ele>
        <time>2022-12-12T12:49:13.803Z</time>
      </trkpt>
      <trkpt lat="48.22011" lon="-3.1618">
        <ele>175.235122</ele>
        <time>2022-12-12T12:49:16.786Z</time>
      </trkpt>
      <trkpt lat="48.22007" lon="-3.16167">
        <ele>175.154018</ele>
        <time>2022-12-12T12:49:19.800Z</time>
      </trkpt>
      <trkpt lat="48.22001" lon="-3.16151">
        <ele>175.053636</ele>
        <time>2022-12-12T12:49:22.799Z</time>
      </trkpt>
      <trkpt lat="48.21996" lon="-3.16139">
        <ele>174.965036</ele>
        <time>2022-12-12T12:49:25.777Z</time>
      </trkpt>
      <trkpt lat="48.21989" lon="-3.16127">
        <ele>174.875653</ele>
        <time>2022-12-12T12:49:28.777Z</time>
      </trkpt>
      <trkpt lat="48.21981" lon="-3.16118">
        <ele>174.793979</ele>
        <time>2022-12-12T12:49:31.785Z</time>
      </trkpt>
      <trkpt lat="48.21972" lon="-3.16109">
        <ele>174.704067</ele>
        <time>2022-12-12T12:49:34.784Z</time>
      </trkpt>
      <trkpt lat="48.21963" lon="-3.161">
        <ele>174.608486</ele>
        <time>2022-12-12T12:49:37.796Z</time>
      </trkpt>
      <trkpt lat="48.21952" lon="-3.1609">
        <ele>174.501378</ele>
        <time>2022-12-12T12:49:40.804Z</time>
      </trkpt>
      <trkpt lat="48.21943" lon="-3.1608">
        <ele>174.404668</ele>
        <time>2022-12-12T12:49:43.800Z</time>
      </trkpt>
      <trkpt lat="48.21934" lon="-3.16072">
        <ele>174.312355</ele>
        <time>2022-12-12T12:49:46.805Z</time>
      </trkpt>
      <trkpt lat="48.21924" lon="-3.16061">
        <ele>174.21188</ele>
        <time>2022-12-12T12:49:49.799Z</time>
      </trkpt>
      <trkpt lat="48.21916" lon="-3.16051">
        <ele>174.117559</ele>
        <time>2022-12-12T12:49:52.803Z</time>
      </trkpt>
      <trkpt lat="48.21907" lon="-3.16043">
        <ele>174.237118</ele>
        <time>2022-12-12T12:49:55.802Z</time>
      </trkpt>
      <trkpt lat="48.21898" lon="-3.16035">
        <ele>174.383506</ele>
        <time>2022-12-12T12:49:58.828Z</time>
      </trkpt>
      <trkpt lat="48.21888" lon="-3.1603">
        <ele>174.51976</ele>
        <time>2022-12-12T12:50:01.781Z</time>
      </trkpt>
      <trkpt lat="48.21878" lon="-3.16026">
        <ele>174.661114</ele>
        <time>2022-12-12T12:50:04.781Z</time>
      </trkpt>
      <trkpt lat="48.21867" lon="-3.16023">
        <ele>174.823442</ele>
        <time>2022-12-12T12:50:07.778Z</time>
      </trkpt>
      <trkpt lat="48.21854" lon="-3.16023">
        <ele>174.992315</ele>
        <time>2022-12-12T12:50:10.783Z</time>
      </trkpt>
      <trkpt lat="48.21843" lon="-3.16025">
        <ele>175.152276</ele>
        <time>2022-12-12T12:50:13.776Z</time>
      </trkpt>
      <trkpt lat="48.21831" lon="-3.16026">
        <ele>175.320614</ele>
        <time>2022-12-12T12:50:16.777Z</time>
      </trkpt>
      <trkpt lat="48.21818" lon="-3.1603">
        <ele>175.492433</ele>
        <time>2022-12-12T12:50:19.798Z</time>
      </trkpt>
      <trkpt lat="48.21807" lon="-3.16034">
        <ele>175.652906</ele>
        <time>2022-12-12T12:50:22.804Z</time>
      </trkpt>
      <trkpt lat="48.21796" lon="-3.16039">
        <ele>175.805401</ele>
        <time>2022-12-12T12:50:25.786Z</time>
      </trkpt>
      <trkpt lat="48.21785" lon="-3.16045">
        <ele>175.967323</ele>
        <time>2022-12-12T12:50:28.790Z</time>
      </trkpt>
      <trkpt lat="48.21774" lon="-3.16051">
        <ele>176.134843</ele>
        <time>2022-12-12T12:50:31.807Z</time>
      </trkpt>
      <trkpt lat="48.21762" lon="-3.16057">
        <ele>176.31092</ele>
        <time>2022-12-12T12:50:34.803Z</time>
      </trkpt>
      <trkpt lat="48.21753" lon="-3.1606">
        <ele>176.435361</ele>
        <time>2022-12-12T12:50:36.805Z</time>
      </trkpt>
      <trkpt lat="48.21744" lon="-3.16063">
        <ele>176.562735</ele>
        <time>2022-12-12T12:50:38.787Z</time>
      </trkpt>
      <trkpt lat="48.21731" lon="-3.16068">
        <ele>176.963552</ele>
        <time>2022-12-12T12:50:41.796Z</time>
      </trkpt>
      <trkpt lat="48.21719" lon="-3.16073">
        <ele>177.390557</ele>
        <time>2022-12-12T12:50:44.794Z</time>
      </trkpt>
      <trkpt lat="48.21705" lon="-3.16078">
        <ele>177.841337</ele>
        <time>2022-12-12T12:50:47.777Z</time>
      </trkpt>
      <trkpt lat="48.21696" lon="-3.16082">
        <ele>178.144988</ele>
        <time>2022-12-12T12:50:49.791Z</time>
      </trkpt>
      <trkpt lat="48.21687" lon="-3.16087">
        <ele>178.473313</ele>
        <time>2022-12-12T12:50:51.790Z</time>
      </trkpt>
      <trkpt lat="48.21678" lon="-3.16091">
        <ele>178.783851</ele>
        <time>2022-12-12T12:50:53.800Z</time>
      </trkpt>
      <trkpt lat="48.21665" lon="-3.16094">
        <ele>179.19624</ele>
        <time>2022-12-12T12:50:56.790Z</time>
      </trkpt>
      <trkpt lat="48.21655" lon="-3.16099">
        <ele>179.554562</ele>
        <time>2022-12-12T12:50:59.799Z</time>
      </trkpt>
      <trkpt lat="48.21645" lon="-3.16101">
        <ele>179.872302</ele>
        <time>2022-12-12T12:51:02.793Z</time>
      </trkpt>
      <trkpt lat="48.21635" lon="-3.16102">
        <ele>180.203444</ele>
        <time>2022-12-12T12:51:05.786Z</time>
      </trkpt>
      <trkpt lat="48.21624" lon="-3.16103">
        <ele>180.563918</ele>
        <time>2022-12-12T12:51:08.795Z</time>
      </trkpt>
      <trkpt lat="48.21612" lon="-3.16104">
        <ele>180.946378</ele>
        <time>2022-12-12T12:51:11.802Z</time>
      </trkpt>
      <trkpt lat="48.21601" lon="-3.16101">
        <ele>181.332951</ele>
        <time>2022-12-12T12:51:14.805Z</time>
      </trkpt>
      <trkpt lat="48.21588" lon="-3.16098">
        <ele>181.740595</ele>
        <time>2022-12-12T12:51:17.802Z</time>
      </trkpt>
      <trkpt lat="48.21577" lon="-3.16094">
        <ele>182.129127</ele>
        <time>2022-12-12T12:51:20.783Z</time>
      </trkpt>
      <trkpt lat="48.21566" lon="-3.16088">
        <ele>182.422445</ele>
        <time>2022-12-12T12:51:23.803Z</time>
      </trkpt>
      <trkpt lat="48.21555" lon="-3.16081">
        <ele>182.094193</ele>
        <time>2022-12-12T12:51:26.778Z</time>
      </trkpt>
      <trkpt lat="48.21546" lon="-3.16075">
        <ele>181.835356</ele>
        <time>2022-12-12T12:51:29.802Z</time>
      </trkpt>
      <trkpt lat="48.21537" lon="-3.1607">
        <ele>181.588229</ele>
        <time>2022-12-12T12:51:32.780Z</time>
      </trkpt>
      <trkpt lat="48.21528" lon="-3.16065">
        <ele>181.315353</ele>
        <time>2022-12-12T12:51:35.790Z</time>
      </trkpt>
      <trkpt lat="48.21517" lon="-3.16059">
        <ele>181.005237</ele>
        <time>2022-12-12T12:51:38.803Z</time>
      </trkpt>
      <trkpt lat="48.21507" lon="-3.16051">
        <ele>180.700747</ele>
        <time>2022-12-12T12:51:41.808Z</time>
      </trkpt>
      <trkpt lat="48.21496" lon="-3.16043">
        <ele>180.385122</ele>
        <time>2022-12-12T12:51:44.786Z</time>
      </trkpt>
      <trkpt lat="48.21486" lon="-3.16032">
        <ele>180.044034</ele>
        <time>2022-12-12T12:51:47.778Z</time>
      </trkpt>
      <trkpt lat="48.21475" lon="-3.16021">
        <ele>179.703951</ele>
        <time>2022-12-12T12:51:50.807Z</time>
      </trkpt>
      <trkpt lat="48.21466" lon="-3.16011">
        <ele>179.397393</ele>
        <time>2022-12-12T12:51:53.803Z</time>
      </trkpt>
      <trkpt lat="48.21458" lon="-3.16002">
        <ele>179.121933</ele>
        <time>2022-12-12T12:51:56.805Z</time>
      </trkpt>
      <trkpt lat="48.21448" lon="-3.15991">
        <ele>178.792847</ele>
        <time>2022-12-12T12:51:59.803Z</time>
      </trkpt>
      <trkpt lat="48.21438" lon="-3.1598">
        <ele>178.467072</ele>
        <time>2022-12-12T12:52:02.793Z</time>
      </trkpt>
      <trkpt lat="48.21429" lon="-3.15969">
        <ele>178.158403</ele>
        <time>2022-12-12T12:52:05.798Z</time>
      </trkpt>
      <trkpt lat="48.21422" lon="-3.15961">
        <ele>177.911922</ele>
        <time>2022-12-12T12:52:07.786Z</time>
      </trkpt>
      <trkpt lat="48.21412" lon="-3.15949">
        <ele>177.610915</ele>
        <time>2022-12-12T12:52:10.797Z</time>
      </trkpt>
      <trkpt lat="48.21402" lon="-3.15937">
        <ele>177.487443</ele>
        <time>2022-12-12T12:52:13.793Z</time>
      </trkpt>
      <trkpt lat="48.21392" lon="-3.15925">
        <ele>177.367366</ele>
        <time>2022-12-12T12:52:16.790Z</time>
      </trkpt>
      <trkpt lat="48.21383" lon="-3.15915">
        <ele>177.261338</ele>
        <time>2022-12-12T12:52:19.804Z</time>
      </trkpt>
      <trkpt lat="48.21376" lon="-3.15906">
        <ele>177.169565</ele>
        <time>2022-12-12T12:52:22.804Z</time>
      </trkpt>
      <trkpt lat="48.21367" lon="-3.15895">
        <ele>177.059473</ele>
        <time>2022-12-12T12:52:25.802Z</time>
      </trkpt>
      <trkpt lat="48.21356" lon="-3.15885">
        <ele>176.941979</ele>
        <time>2022-12-12T12:52:28.802Z</time>
      </trkpt>
      <trkpt lat="48.21347" lon="-3.15876">
        <ele>176.831843</ele>
        <time>2022-12-12T12:52:31.807Z</time>
      </trkpt>
      <trkpt lat="48.21335" lon="-3.15868">
        <ele>176.709837</ele>
        <time>2022-12-12T12:52:34.802Z</time>
      </trkpt>
      <trkpt lat="48.21324" lon="-3.1586">
        <ele>176.590256</ele>
        <time>2022-12-12T12:52:37.802Z</time>
      </trkpt>
      <trkpt lat="48.21313" lon="-3.15851">
        <ele>176.473548</ele>
        <time>2022-12-12T12:52:40.802Z</time>
      </trkpt>
      <trkpt lat="48.21301" lon="-3.15842">
        <ele>176.348093</ele>
        <time>2022-12-12T12:52:43.806Z</time>
      </trkpt>
      <trkpt lat="48.2129" lon="-3.15833">
        <ele>176.223585</ele>
        <time>2022-12-12T12:52:46.806Z</time>
      </trkpt>
      <trkpt lat="48.21279" lon="-3.15823">
        <ele>176.103946</ele>
        <time>2022-12-12T12:52:49.791Z</time>
      </trkpt>
      <trkpt lat="48.2127" lon="-3.15813">
        <ele>175.999215</ele>
        <time>2022-12-12T12:52:52.802Z</time>
      </trkpt>
      <trkpt lat="48.21262" lon="-3.15802">
        <ele>175.9015</ele>
        <time>2022-12-12T12:52:55.801Z</time>
      </trkpt>
      <trkpt lat="48.21255" lon="-3.15789">
        <ele>175.828295</ele>
        <time>2022-12-12T12:52:58.801Z</time>
      </trkpt>
      <trkpt lat="48.21247" lon="-3.15776">
        <ele>175.752762</ele>
        <time>2022-12-12T12:53:01.796Z</time>
      </trkpt>
      <trkpt lat="48.2124" lon="-3.15765">
        <ele>175.686927</ele>
        <time>2022-12-12T12:53:04.794Z</time>
      </trkpt>
      <trkpt lat="48.21233" lon="-3.1575">
        <ele>175.610909</ele>
        <time>2022-12-12T12:53:07.793Z</time>
      </trkpt>
      <trkpt lat="48.21229" lon="-3.15737">
        <ele>175.549293</ele>
        <time>2022-12-12T12:53:10.781Z</time>
      </trkpt>
      <trkpt lat="48.21225" lon="-3.15724">
        <ele>175.487231</ele>
        <time>2022-12-12T12:53:14.804Z</time>
      </trkpt>
      <trkpt lat="48.21221" lon="-3.1571">
        <ele>175.424073</ele>
        <time>2022-12-12T12:53:18.794Z</time>
      </trkpt>
      <trkpt lat="48.21218" lon="-3.15697">
        <ele>175.361313</ele>
        <time>2022-12-12T12:53:21.807Z</time>
      </trkpt>
      <trkpt lat="48.21214" lon="-3.15682">
        <ele>175.292551</ele>
        <time>2022-12-12T12:53:24.805Z</time>
      </trkpt>
      <trkpt lat="48.21212" lon="-3.15665">
        <ele>175.220929</ele>
        <time>2022-12-12T12:53:27.778Z</time>
      </trkpt>
      <trkpt lat="48.21211" lon="-3.15649">
        <ele>175.151019</ele>
        <time>2022-12-12T12:53:30.800Z</time>
      </trkpt>
      <trkpt lat="48.21209" lon="-3.15633">
        <ele>175.08011</ele>
        <time>2022-12-12T12:53:33.796Z</time>
      </trkpt>
      <trkpt lat="48.21208" lon="-3.15616">
        <ele>175.00702</ele>
        <time>2022-12-12T12:53:36.794Z</time>
      </trkpt>
      <trkpt lat="48.21208" lon="-3.15602">
        <ele>174.947822</ele>
        <time>2022-12-12T12:53:39.791Z</time>
      </trkpt>
      <trkpt lat="48.21207" lon="-3.15586">
        <ele>174.88013</ele>
        <time>2022-12-12T12:53:42.780Z</time>
      </trkpt>
      <trkpt lat="48.21206" lon="-3.15571">
        <ele>174.813884</ele>
        <time>2022-12-12T12:53:47.799Z</time>
      </trkpt>
      <trkpt lat="48.21203" lon="-3.15558">
        <ele>174.761095</ele>
        <time>2022-12-12T12:53:50.803Z</time>
      </trkpt>
      <trkpt lat="48.21202" lon="-3.15544">
        <ele>174.764412</ele>
        <time>2022-12-12T12:53:53.787Z</time>
      </trkpt>
      <trkpt lat="48.212" lon="-3.1553">
        <ele>174.767984</ele>
        <time>2022-12-12T12:53:56.776Z</time>
      </trkpt>
      <trkpt lat="48.21198" lon="-3.15515">
        <ele>174.771547</ele>
        <time>2022-12-12T12:53:59.801Z</time>
      </trkpt>
      <trkpt lat="48.21198" lon="-3.155">
        <ele>174.775403</ele>
        <time>2022-12-12T12:54:02.789Z</time>
      </trkpt>
      <trkpt lat="48.21197" lon="-3.15485">
        <ele>174.779024</ele>
        <time>2022-12-12T12:54:05.794Z</time>
      </trkpt>
      <trkpt lat="48.21198" lon="-3.15467">
        <ele>174.78339</ele>
        <time>2022-12-12T12:54:08.780Z</time>
      </trkpt>
      <trkpt lat="48.21198" lon="-3.15449">
        <ele>174.787829</ele>
        <time>2022-12-12T12:54:11.796Z</time>
      </trkpt>
      <trkpt lat="48.21197" lon="-3.15429">
        <ele>174.79255</ele>
        <time>2022-12-12T12:54:14.794Z</time>
      </trkpt>
      <trkpt lat="48.21197" lon="-3.1541">
        <ele>174.797256</ele>
        <time>2022-12-12T12:54:17.799Z</time>
      </trkpt>
      <trkpt lat="48.21197" lon="-3.15393">
        <ele>174.801426</ele>
        <time>2022-12-12T12:54:20.806Z</time>
      </trkpt>
      <trkpt lat="48.21197" lon="-3.15378">
        <ele>174.805011</ele>
        <time>2022-12-12T12:54:23.802Z</time>
      </trkpt>
      <trkpt lat="48.21198" lon="-3.1536">
        <ele>174.809437</ele>
        <time>2022-12-12T12:54:27.775Z</time>
      </trkpt>
      <trkpt lat="48.212" lon="-3.15345">
        <ele>174.813111</ele>
        <time>2022-12-12T12:54:30.804Z</time>
      </trkpt>
      <trkpt lat="48.21202" lon="-3.1533">
        <ele>174.816889</ele>
        <time>2022-12-12T12:54:33.787Z</time>
      </trkpt>
      <trkpt lat="48.21206" lon="-3.15315">
        <ele>174.82095</ele>
        <time>2022-12-12T12:54:36.807Z</time>
      </trkpt>
      <trkpt lat="48.2121" lon="-3.15299">
        <ele>174.824944</ele>
        <time>2022-12-12T12:54:39.804Z</time>
      </trkpt>
      <trkpt lat="48.21215" lon="-3.15287">
        <ele>174.865505</ele>
        <time>2022-12-12T12:54:42.792Z</time>
      </trkpt>
      <trkpt lat="48.21221" lon="-3.15273">
        <ele>174.940184</ele>
        <time>2022-12-12T12:54:45.803Z</time>
      </trkpt>
      <trkpt lat="48.21227" lon="-3.1526">
        <ele>175.017608</ele>
        <time>2022-12-12T12:54:48.798Z</time>
      </trkpt>
      <trkpt lat="48.21234" lon="-3.15246">
        <ele>175.098697</ele>
        <time>2022-12-12T12:54:51.807Z</time>
      </trkpt>
      <trkpt lat="48.21241" lon="-3.15233">
        <ele>175.179393</ele>
        <time>2022-12-12T12:54:54.782Z</time>
      </trkpt>
      <trkpt lat="48.21247" lon="-3.1522">
        <ele>175.254892</ele>
        <time>2022-12-12T12:54:57.808Z</time>
      </trkpt>
      <trkpt lat="48.21255" lon="-3.15206">
        <ele>175.340023</ele>
        <time>2022-12-12T12:55:00.794Z</time>
      </trkpt>
      <trkpt lat="48.21263" lon="-3.1519">
        <ele>175.435085</ele>
        <time>2022-12-12T12:55:03.795Z</time>
      </trkpt>
      <trkpt lat="48.21269" lon="-3.15179">
        <ele>175.503472</ele>
        <time>2022-12-12T12:55:05.803Z</time>
      </trkpt>
      <trkpt lat="48.21275" lon="-3.15168">
        <ele>175.572311</ele>
        <time>2022-12-12T12:55:07.804Z</time>
      </trkpt>
      <trkpt lat="48.2128" lon="-3.15157">
        <ele>175.638398</ele>
        <time>2022-12-12T12:55:09.786Z</time>
      </trkpt>
      <trkpt lat="48.21286" lon="-3.15146">
        <ele>175.703593</ele>
        <time>2022-12-12T12:55:11.799Z</time>
      </trkpt>
      <trkpt lat="48.21294" lon="-3.15131">
        <ele>175.796281</ele>
        <time>2022-12-12T12:55:14.795Z</time>
      </trkpt>
      <trkpt lat="48.21301" lon="-3.15116">
        <ele>175.879627</ele>
        <time>2022-12-12T12:55:17.797Z</time>
      </trkpt>
      <trkpt lat="48.21307" lon="-3.151">
        <ele>175.965949</ele>
        <time>2022-12-12T12:55:20.785Z</time>
      </trkpt>
      <trkpt lat="48.21313" lon="-3.15084">
        <ele>176.056764</ele>
        <time>2022-12-12T12:55:23.807Z</time>
      </trkpt>
      <trkpt lat="48.21318" lon="-3.15065">
        <ele>176.090916</ele>
        <time>2022-12-12T12:55:26.783Z</time>
      </trkpt>
      <trkpt lat="48.21321" lon="-3.15052">
        <ele>176.065881</ele>
        <time>2022-12-12T12:55:28.777Z</time>
      </trkpt>
      <trkpt lat="48.21322" lon="-3.15032">
        <ele>176.028777</ele>
        <time>2022-12-12T12:55:31.797Z</time>
      </trkpt>
      <trkpt lat="48.21324" lon="-3.15018">
        <ele>176.003336</ele>
        <time>2022-12-12T12:55:33.793Z</time>
      </trkpt>
      <trkpt lat="48.21325" lon="-3.15005">
        <ele>175.977567</ele>
        <time>2022-12-12T12:55:35.799Z</time>
      </trkpt>
      <trkpt lat="48.21326" lon="-3.14991">
        <ele>175.952671</ele>
        <time>2022-12-12T12:55:37.808Z</time>
      </trkpt>
      <trkpt lat="48.21327" lon="-3.14977">
        <ele>175.927362</ele>
        <time>2022-12-12T12:55:39.790Z</time>
      </trkpt>
      <trkpt lat="48.21328" lon="-3.14964">
        <ele>175.902207</ele>
        <time>2022-12-12T12:55:41.792Z</time>
      </trkpt>
      <trkpt lat="48.21331" lon="-3.14945">
        <ele>175.866473</ele>
        <time>2022-12-12T12:55:44.781Z</time>
      </trkpt>
      <trkpt lat="48.21335" lon="-3.14926">
        <ele>175.8294</ele>
        <time>2022-12-12T12:55:47.784Z</time>
      </trkpt>
      <trkpt lat="48.21339" lon="-3.14913">
        <ele>175.804254</ele>
        <time>2022-12-12T12:55:49.797Z</time>
      </trkpt>
      <trkpt lat="48.21342" lon="-3.149">
        <ele>175.779119</ele>
        <time>2022-12-12T12:55:51.778Z</time>
      </trkpt>
      <trkpt lat="48.21346" lon="-3.14888">
        <ele>175.752929</ele>
        <time>2022-12-12T12:55:53.804Z</time>
      </trkpt>
      <trkpt lat="48.2135" lon="-3.14875">
        <ele>175.727254</ele>
        <time>2022-12-12T12:55:55.797Z</time>
      </trkpt>
      <trkpt lat="48.21353" lon="-3.14862">
        <ele>175.70205</ele>
        <time>2022-12-12T12:55:57.794Z</time>
      </trkpt>
      <trkpt lat="48.21356" lon="-3.14849">
        <ele>175.676675</ele>
        <time>2022-12-12T12:55:59.776Z</time>
      </trkpt>
      <trkpt lat="48.21361" lon="-3.14837">
        <ele>175.651242</ele>
        <time>2022-12-12T12:56:01.798Z</time>
      </trkpt>
      <trkpt lat="48.21366" lon="-3.14824">
        <ele>175.623943</ele>
        <time>2022-12-12T12:56:03.805Z</time>
      </trkpt>
      <trkpt lat="48.2137" lon="-3.14811">
        <ele>175.625685</ele>
        <time>2022-12-12T12:56:05.801Z</time>
      </trkpt>
      <trkpt lat="48.21374" lon="-3.14798">
        <ele>175.650877</ele>
        <time>2022-12-12T12:56:07.786Z</time>
      </trkpt>
      <trkpt lat="48.21377" lon="-3.14785">
        <ele>175.676051</ele>
        <time>2022-12-12T12:56:09.784Z</time>
      </trkpt>
      <trkpt lat="48.21382" lon="-3.14767">
        <ele>175.712126</ele>
        <time>2022-12-12T12:56:12.782Z</time>
      </trkpt>
      <trkpt lat="48.21385" lon="-3.14754">
        <ele>175.73683</ele>
        <time>2022-12-12T12:56:14.785Z</time>
      </trkpt>
      <trkpt lat="48.21388" lon="-3.14741">
        <ele>175.761492</ele>
        <time>2022-12-12T12:56:16.805Z</time>
      </trkpt>
      <trkpt lat="48.21391" lon="-3.14728">
        <ele>175.78607</ele>
        <time>2022-12-12T12:56:18.787Z</time>
      </trkpt>
      <trkpt lat="48.21395" lon="-3.1471">
        <ele>175.819979</ele>
        <time>2022-12-12T12:56:21.788Z</time>
      </trkpt>
      <trkpt lat="48.21398" lon="-3.14693">
        <ele>175.851171</ele>
        <time>2022-12-12T12:56:24.804Z</time>
      </trkpt>
      <trkpt lat="48.21401" lon="-3.14675">
        <ele>175.885146</ele>
        <time>2022-12-12T12:56:27.801Z</time>
      </trkpt>
      <trkpt lat="48.21404" lon="-3.14656">
        <ele>175.920333</ele>
        <time>2022-12-12T12:56:30.804Z</time>
      </trkpt>
      <trkpt lat="48.21405" lon="-3.14638">
        <ele>175.954258</ele>
        <time>2022-12-12T12:56:33.801Z</time>
      </trkpt>
      <trkpt lat="48.21407" lon="-3.14619">
        <ele>175.988937</ele>
        <time>2022-12-12T12:56:36.804Z</time>
      </trkpt>
      <trkpt lat="48.2141" lon="-3.14601">
        <ele>176.021772</ele>
        <time>2022-12-12T12:56:39.781Z</time>
      </trkpt>
      <trkpt lat="48.21412" lon="-3.14584">
        <ele>176.052931</ele>
        <time>2022-12-12T12:56:42.803Z</time>
      </trkpt>
      <trkpt lat="48.21416" lon="-3.14567">
        <ele>176.085996</ele>
        <time>2022-12-12T12:56:45.784Z</time>
      </trkpt>
      <trkpt lat="48.2142" lon="-3.14549">
        <ele>176.065449</ele>
        <time>2022-12-12T12:56:48.806Z</time>
      </trkpt>
      <trkpt lat="48.21424" lon="-3.14531">
        <ele>176.01109</ele>
        <time>2022-12-12T12:56:51.794Z</time>
      </trkpt>
      <trkpt lat="48.21428" lon="-3.14512">
        <ele>175.955106</ele>
        <time>2022-12-12T12:56:54.795Z</time>
      </trkpt>
      <trkpt lat="48.2143" lon="-3.14499">
        <ele>175.914907</ele>
        <time>2022-12-12T12:56:56.809Z</time>
      </trkpt>
      <trkpt lat="48.21432" lon="-3.14485">
        <ele>175.875752</ele>
        <time>2022-12-12T12:56:58.798Z</time>
      </trkpt>
      <trkpt lat="48.21434" lon="-3.14472">
        <ele>175.835838</ele>
        <time>2022-12-12T12:57:00.803Z</time>
      </trkpt>
      <trkpt lat="48.21436" lon="-3.14458">
        <ele>175.796034</ele>
        <time>2022-12-12T12:57:02.805Z</time>
      </trkpt>
      <trkpt lat="48.21438" lon="-3.1444">
        <ele>175.743557</ele>
        <time>2022-12-12T12:57:05.804Z</time>
      </trkpt>
      <trkpt lat="48.21441" lon="-3.14423">
        <ele>175.694333</ele>
        <time>2022-12-12T12:57:08.803Z</time>
      </trkpt>
      <trkpt lat="48.21444" lon="-3.14406">
        <ele>175.642352</ele>
        <time>2022-12-12T12:57:11.806Z</time>
      </trkpt>
      <trkpt lat="48.21447" lon="-3.14387">
        <ele>175.586978</ele>
        <time>2022-12-12T12:57:14.804Z</time>
      </trkpt>
      <trkpt lat="48.2145" lon="-3.14368">
        <ele>175.530111</ele>
        <time>2022-12-12T12:57:17.804Z</time>
      </trkpt>
      <trkpt lat="48.21453" lon="-3.1435">
        <ele>175.476702</ele>
        <time>2022-12-12T12:57:20.787Z</time>
      </trkpt>
      <trkpt lat="48.21455" lon="-3.14334">
        <ele>175.430552</ele>
        <time>2022-12-12T12:57:23.792Z</time>
      </trkpt>
      <trkpt lat="48.21457" lon="-3.14317">
        <ele>175.383075</ele>
        <time>2022-12-12T12:57:26.783Z</time>
      </trkpt>
      <trkpt lat="48.21457" lon="-3.143">
        <ele>175.33352</ele>
        <time>2022-12-12T12:57:29.797Z</time>
      </trkpt>
      <trkpt lat="48.21455" lon="-3.14283">
        <ele>175.331818</ele>
        <time>2022-12-12T12:57:32.787Z</time>
      </trkpt>
      <trkpt lat="48.21451" lon="-3.14265">
        <ele>175.339345</ele>
        <time>2022-12-12T12:57:35.795Z</time>
      </trkpt>
      <trkpt lat="48.21447" lon="-3.14248">
        <ele>175.347005</ele>
        <time>2022-12-12T12:57:38.797Z</time>
      </trkpt>
      <trkpt lat="48.21443" lon="-3.14231">
        <ele>175.354563</ele>
        <time>2022-12-12T12:57:41.801Z</time>
      </trkpt>
      <trkpt lat="48.2144" lon="-3.14214">
        <ele>175.361856</ele>
        <time>2022-12-12T12:57:44.804Z</time>
      </trkpt>
      <trkpt lat="48.21439" lon="-3.14195">
        <ele>175.36976</ele>
        <time>2022-12-12T12:57:47.798Z</time>
      </trkpt>
      <trkpt lat="48.2144" lon="-3.14175">
        <ele>175.377892</ele>
        <time>2022-12-12T12:57:50.782Z</time>
      </trkpt>
      <trkpt lat="48.21442" lon="-3.14158">
        <ele>175.38529</ele>
        <time>2022-12-12T12:57:53.802Z</time>
      </trkpt>
      <trkpt lat="48.21445" lon="-3.14143">
        <ele>175.391875</ele>
        <time>2022-12-12T12:57:56.780Z</time>
      </trkpt>
      <trkpt lat="48.21447" lon="-3.14128">
        <ele>175.398089</ele>
        <time>2022-12-12T12:57:59.797Z</time>
      </trkpt>
      <trkpt lat="48.21449" lon="-3.14112">
        <ele>175.404943</ele>
        <time>2022-12-12T12:58:02.806Z</time>
      </trkpt>
      <trkpt lat="48.21449" lon="-3.14095">
        <ele>175.411978</ele>
        <time>2022-12-12T12:58:05.780Z</time>
      </trkpt>
      <trkpt lat="48.21448" lon="-3.14078">
        <ele>175.419239</ele>
        <time>2022-12-12T12:58:08.799Z</time>
      </trkpt>
      <trkpt lat="48.21447" lon="-3.14059">
        <ele>175.426869</ele>
        <time>2022-12-12T12:58:11.790Z</time>
      </trkpt>
      <trkpt lat="48.21446" lon="-3.14042">
        <ele>175.434217</ele>
        <time>2022-12-12T12:58:14.797Z</time>
      </trkpt>
      <trkpt lat="48.21445" lon="-3.14024">
        <ele>175.452336</ele>
        <time>2022-12-12T12:58:17.806Z</time>
      </trkpt>
      <trkpt lat="48.21444" lon="-3.14008">
        <ele>175.477342</ele>
        <time>2022-12-12T12:58:20.780Z</time>
      </trkpt>
      <trkpt lat="48.21443" lon="-3.13993">
        <ele>175.500841</ele>
        <time>2022-12-12T12:58:23.806Z</time>
      </trkpt>
      <trkpt lat="48.21442" lon="-3.13978">
        <ele>175.524099</ele>
        <time>2022-12-12T12:58:26.807Z</time>
      </trkpt>
      <trkpt lat="48.2144" lon="-3.13962">
        <ele>175.548213</ele>
        <time>2022-12-12T12:58:29.779Z</time>
      </trkpt>
      <trkpt lat="48.2144" lon="-3.13946">
        <ele>175.572891</ele>
        <time>2022-12-12T12:58:32.798Z</time>
      </trkpt>
      <trkpt lat="48.21439" lon="-3.13929">
        <ele>175.599486</ele>
        <time>2022-12-12T12:58:35.805Z</time>
      </trkpt>
      <trkpt lat="48.21439" lon="-3.13913">
        <ele>175.625552</ele>
        <time>2022-12-12T12:58:38.793Z</time>
      </trkpt>
      <trkpt lat="48.21439" lon="-3.13895">
        <ele>175.653169</ele>
        <time>2022-12-12T12:58:41.801Z</time>
      </trkpt>
      <trkpt lat="48.21439" lon="-3.13876">
        <ele>175.681724</ele>
        <time>2022-12-12T12:58:44.789Z</time>
      </trkpt>
      <trkpt lat="48.21439" lon="-3.13858">
        <ele>175.710117</ele>
        <time>2022-12-12T12:58:47.803Z</time>
      </trkpt>
      <trkpt lat="48.21439" lon="-3.13841">
        <ele>175.736374</ele>
        <time>2022-12-12T12:58:50.796Z</time>
      </trkpt>
      <trkpt lat="48.21438" lon="-3.13824">
        <ele>175.76292</ele>
        <time>2022-12-12T12:58:53.795Z</time>
      </trkpt>
      <trkpt lat="48.21437" lon="-3.13806">
        <ele>175.79048</ele>
        <time>2022-12-12T12:58:56.802Z</time>
      </trkpt>
      <trkpt lat="48.21435" lon="-3.13789">
        <ele>175.818525</ele>
        <time>2022-12-12T12:58:59.802Z</time>
      </trkpt>
      <trkpt lat="48.21432" lon="-3.13771">
        <ele>175.846503</ele>
        <time>2022-12-12T12:59:02.794Z</time>
      </trkpt>
      <trkpt lat="48.21429" lon="-3.13755">
        <ele>175.80999</ele>
        <time>2022-12-12T12:59:05.798Z</time>
      </trkpt>
      <trkpt lat="48.21426" lon="-3.13742">
        <ele>175.742748</ele>
        <time>2022-12-12T12:59:08.798Z</time>
      </trkpt>
      <trkpt lat="48.21421" lon="-3.13728">
        <ele>175.672647</ele>
        <time>2022-12-12T12:59:11.798Z</time>
      </trkpt>
      <trkpt lat="48.21417" lon="-3.13714">
        <ele>175.598159</ele>
        <time>2022-12-12T12:59:14.804Z</time>
      </trkpt>
      <trkpt lat="48.21412" lon="-3.137">
        <ele>175.521782</ele>
        <time>2022-12-12T12:59:17.793Z</time>
      </trkpt>
      <trkpt lat="48.21408" lon="-3.13684">
        <ele>175.444318</ele>
        <time>2022-12-12T12:59:20.796Z</time>
      </trkpt>
      <trkpt lat="48.21405" lon="-3.13668">
        <ele>175.365272</ele>
        <time>2022-12-12T12:59:23.785Z</time>
      </trkpt>
      <trkpt lat="48.21402" lon="-3.13651">
        <ele>175.282764</ele>
        <time>2022-12-12T12:59:26.797Z</time>
      </trkpt>
      <trkpt lat="48.214" lon="-3.13633">
        <ele>175.198642</ele>
        <time>2022-12-12T12:59:29.804Z</time>
      </trkpt>
      <trkpt lat="48.21399" lon="-3.13615">
        <ele>175.112799</ele>
        <time>2022-12-12T12:59:32.805Z</time>
      </trkpt>
      <trkpt lat="48.21399" lon="-3.13597">
        <ele>175.032225</ele>
        <time>2022-12-12T12:59:35.804Z</time>
      </trkpt>
      <trkpt lat="48.21398" lon="-3.13582">
        <ele>174.958564</ele>
        <time>2022-12-12T12:59:38.802Z</time>
      </trkpt>
      <trkpt lat="48.21396" lon="-3.13568">
        <ele>174.891563</ele>
        <time>2022-12-12T12:59:41.806Z</time>
      </trkpt>
      <trkpt lat="48.21394" lon="-3.13552">
        <ele>174.817365</ele>
        <time>2022-12-12T12:59:44.802Z</time>
      </trkpt>
      <trkpt lat="48.21393" lon="-3.13536">
        <ele>174.739325</ele>
        <time>2022-12-12T12:59:47.806Z</time>
      </trkpt>
      <trkpt lat="48.21392" lon="-3.13519">
        <ele>174.659191</ele>
        <time>2022-12-12T12:59:50.784Z</time>
      </trkpt>
      <trkpt lat="48.2139" lon="-3.13502">
        <ele>174.571518</ele>
        <time>2022-12-12T12:59:53.792Z</time>
      </trkpt>
      <trkpt lat="48.2139" lon="-3.13485">
        <ele>174.436507</ele>
        <time>2022-12-12T12:59:56.809Z</time>
      </trkpt>
      <trkpt lat="48.21388" lon="-3.13468">
        <ele>174.299099</ele>
        <time>2022-12-12T12:59:59.781Z</time>
      </trkpt>
      <trkpt lat="48.21385" lon="-3.13452">
        <ele>174.163661</ele>
        <time>2022-12-12T13:00:02.801Z</time>
      </trkpt>
      <trkpt lat="48.21382" lon="-3.13436">
        <ele>174.028397</ele>
        <time>2022-12-12T13:00:05.805Z</time>
      </trkpt>
      <trkpt lat="48.2138" lon="-3.13419">
        <ele>173.891425</ele>
        <time>2022-12-12T13:00:08.804Z</time>
      </trkpt>
      <trkpt lat="48.21377" lon="-3.13402">
        <ele>173.749468</ele>
        <time>2022-12-12T13:00:11.805Z</time>
      </trkpt>
      <trkpt lat="48.21376" lon="-3.13384">
        <ele>173.599462</ele>
        <time>2022-12-12T13:00:14.778Z</time>
      </trkpt>
      <trkpt lat="48.21376" lon="-3.13365">
        <ele>173.452682</ele>
        <time>2022-12-12T13:00:17.781Z</time>
      </trkpt>
      <trkpt lat="48.21375" lon="-3.13348">
        <ele>173.311484</ele>
        <time>2022-12-12T13:00:20.805Z</time>
      </trkpt>
      <trkpt lat="48.21376" lon="-3.13332">
        <ele>173.179689</ele>
        <time>2022-12-12T13:00:23.781Z</time>
      </trkpt>
      <trkpt lat="48.21376" lon="-3.13314">
        <ele>173.037721</ele>
        <time>2022-12-12T13:00:26.801Z</time>
      </trkpt>
      <trkpt lat="48.21376" lon="-3.13296">
        <ele>172.895794</ele>
        <time>2022-12-12T13:00:29.806Z</time>
      </trkpt>
      <trkpt lat="48.21376" lon="-3.13278">
        <ele>172.749015</ele>
        <time>2022-12-12T13:00:32.803Z</time>
      </trkpt>
      <trkpt lat="48.21376" lon="-3.1326">
        <ele>172.60225</ele>
        <time>2022-12-12T13:00:35.797Z</time>
      </trkpt>
      <trkpt lat="48.21375" lon="-3.13242">
        <ele>172.456772</ele>
        <time>2022-12-12T13:00:38.793Z</time>
      </trkpt>
      <trkpt lat="48.21373" lon="-3.13226">
        <ele>172.445485</ele>
        <time>2022-12-12T13:00:41.798Z</time>
      </trkpt>
      <trkpt lat="48.21369" lon="-3.13211">
        <ele>172.484404</ele>
        <time>2022-12-12T13:00:44.787Z</time>
      </trkpt>
      <trkpt lat="48.21363" lon="-3.13196">
        <ele>172.525226</ele>
        <time>2022-12-12T13:00:47.793Z</time>
      </trkpt>
      <trkpt lat="48.21356" lon="-3.13182">
        <ele>172.566686</ele>
        <time>2022-12-12T13:00:50.789Z</time>
      </trkpt>
      <trkpt lat="48.21349" lon="-3.13169">
        <ele>172.60722</ele>
        <time>2022-12-12T13:00:53.787Z</time>
      </trkpt>
      <trkpt lat="48.2134" lon="-3.13157">
        <ele>172.650278</ele>
        <time>2022-12-12T13:00:56.790Z</time>
      </trkpt>
      <trkpt lat="48.21331" lon="-3.13146">
        <ele>172.692554</ele>
        <time>2022-12-12T13:00:59.801Z</time>
      </trkpt>
      <trkpt lat="48.21322" lon="-3.13134">
        <ele>172.735454</ele>
        <time>2022-12-12T13:01:02.804Z</time>
      </trkpt>
      <trkpt lat="48.21314" lon="-3.13126">
        <ele>172.770176</ele>
        <time>2022-12-12T13:01:05.792Z</time>
      </trkpt>
      <trkpt lat="48.21305" lon="-3.13118">
        <ele>172.807725</ele>
        <time>2022-12-12T13:01:09.801Z</time>
      </trkpt>
      <trkpt lat="48.21295" lon="-3.13108">
        <ele>172.849866</ele>
        <time>2022-12-12T13:01:13.800Z</time>
      </trkpt>
      <trkpt lat="48.21285" lon="-3.131">
        <ele>172.892219</ele>
        <time>2022-12-12T13:01:17.788Z</time>
      </trkpt>
      <trkpt lat="48.21276" lon="-3.1309">
        <ele>172.93099</ele>
        <time>2022-12-12T13:01:21.791Z</time>
      </trkpt>
      <trkpt lat="48.21269" lon="-3.1308">
        <ele>172.965943</ele>
        <time>2022-12-12T13:01:25.779Z</time>
      </trkpt>
      <trkpt lat="48.21255" lon="-3.13059">
        <ele>173.0368</ele>
        <time>2022-12-12T13:02:16.798Z</time>
      </trkpt>
      <trkpt lat="48.21246" lon="-3.13048">
        <ele>173.044584</ele>
        <time>2022-12-12T13:02:20.799Z</time>
      </trkpt>
      <trkpt lat="48.21239" lon="-3.13038">
        <ele>172.995573</ele>
        <time>2022-12-12T13:02:24.801Z</time>
      </trkpt>
      <trkpt lat="48.21231" lon="-3.1303">
        <ele>172.950805</ele>
        <time>2022-12-12T13:02:28.779Z</time>
      </trkpt>
      <trkpt lat="48.21223" lon="-3.13022">
        <ele>172.904375</ele>
        <time>2022-12-12T13:02:32.802Z</time>
      </trkpt>
      <trkpt lat="48.21216" lon="-3.1301">
        <ele>172.85516</ele>
        <time>2022-12-12T13:02:36.809Z</time>
      </trkpt>
      <trkpt lat="48.21207" lon="-3.13003">
        <ele>172.805945</ele>
        <time>2022-12-12T13:02:41.789Z</time>
      </trkpt>
      <trkpt lat="48.21199" lon="-3.13013">
        <ele>172.756413</ele>
        <time>2022-12-12T13:02:47.806Z</time>
      </trkpt>
      <trkpt lat="48.21191" lon="-3.13021">
        <ele>172.710627</ele>
        <time>2022-12-12T13:03:18.780Z</time>
      </trkpt>
      <trkpt lat="48.21185" lon="-3.13016">
        <ele>172.679628</ele>
        <time>2022-12-12T13:03:36.537Z</time>
      </trkpt>
      <trkpt lat="48.21185" lon="-3.13014">
        <ele>172.671886</ele>
        <time>2022-12-12T13:25:28.707Z</time>
      </trkpt>
      <trkpt lat="48.21197" lon="-3.13006">
        <ele>172.612235</ele>
        <time>2022-12-12T13:28:35.789Z</time>
      </trkpt>
      <trkpt lat="48.21206" lon="-3.13002">
        <ele>172.56555</ele>
        <time>2022-12-12T13:28:40.788Z</time>
      </trkpt>
      <trkpt lat="48.21213" lon="-3.12989">
        <ele>172.514513</ele>
        <time>2022-12-12T13:28:45.792Z</time>
      </trkpt>
      <trkpt lat="48.2122" lon="-3.12976">
        <ele>172.461329</ele>
        <time>2022-12-12T13:28:50.805Z</time>
      </trkpt>
      <trkpt lat="48.21227" lon="-3.12967">
        <ele>172.418339</ele>
        <time>2022-12-12T13:28:54.789Z</time>
      </trkpt>
      <trkpt lat="48.21234" lon="-3.12957">
        <ele>172.372823</ele>
        <time>2022-12-12T13:28:58.786Z</time>
      </trkpt>
      <trkpt lat="48.21238" lon="-3.12945">
        <ele>172.329071</ele>
        <time>2022-12-12T13:29:23.788Z</time>
      </trkpt>
      <trkpt lat="48.21237" lon="-3.12944">
        <ele>172.325148</ele>
        <time>2022-12-12T13:29:42.425Z</time>
      </trkpt>
      <trkpt lat="48.21185" lon="-3.1301">
        <ele>172.178978</ele>
        <time>2022-12-12T13:33:30.790Z</time>
      </trkpt>
      <trkpt lat="48.21196" lon="-3.13006">
        <ele>172.171665</ele>
        <time>2022-12-12T13:33:43.794Z</time>
      </trkpt>
      <trkpt lat="48.21205" lon="-3.12999">
        <ele>172.165163</ele>
        <time>2022-12-12T13:33:46.799Z</time>
      </trkpt>
      <trkpt lat="48.21213" lon="-3.12989">
        <ele>172.158074</ele>
        <time>2022-12-12T13:33:50.803Z</time>
      </trkpt>
      <trkpt lat="48.2122" lon="-3.12979">
        <ele>172.15186</ele>
        <time>2022-12-12T13:33:54.796Z</time>
      </trkpt>
      <trkpt lat="48.21227" lon="-3.12966">
        <ele>172.144283</ele>
        <time>2022-12-12T13:33:58.804Z</time>
      </trkpt>
      <trkpt lat="48.21233" lon="-3.12954">
        <ele>172.137853</ele>
        <time>2022-12-12T13:34:01.791Z</time>
      </trkpt>
      <trkpt lat="48.21241" lon="-3.12943">
        <ele>172.13117</ele>
        <time>2022-12-12T13:34:04.797Z</time>
      </trkpt>
      <trkpt lat="48.21247" lon="-3.12932">
        <ele>172.124724</ele>
        <time>2022-12-12T13:34:07.806Z</time>
      </trkpt>
      <trkpt lat="48.21254" lon="-3.1292">
        <ele>172.117757</ele>
        <time>2022-12-12T13:34:10.803Z</time>
      </trkpt>
      <trkpt lat="48.21261" lon="-3.12907">
        <ele>172.110622</ele>
        <time>2022-12-12T13:34:13.803Z</time>
      </trkpt>
      <trkpt lat="48.21267" lon="-3.12894">
        <ele>172.103473</ele>
        <time>2022-12-12T13:34:16.804Z</time>
      </trkpt>
      <trkpt lat="48.21274" lon="-3.12883">
        <ele>172.096633</ele>
        <time>2022-12-12T13:34:19.804Z</time>
      </trkpt>
      <trkpt lat="48.21281" lon="-3.12872">
        <ele>172.089983</ele>
        <time>2022-12-12T13:34:22.806Z</time>
      </trkpt>
      <trkpt lat="48.2129" lon="-3.12863">
        <ele>172.22225</ele>
        <time>2022-12-12T13:34:25.789Z</time>
      </trkpt>
      <trkpt lat="48.21297" lon="-3.12853">
        <ele>172.36702</ele>
        <time>2022-12-12T13:34:28.806Z</time>
      </trkpt>
      <trkpt lat="48.21304" lon="-3.12842">
        <ele>172.513962</ele>
        <time>2022-12-12T13:34:31.807Z</time>
      </trkpt>
      <trkpt lat="48.21313" lon="-3.12833">
        <ele>172.669888</ele>
        <time>2022-12-12T13:34:34.789Z</time>
      </trkpt>
      <trkpt lat="48.21321" lon="-3.12823">
        <ele>172.818279</ele>
        <time>2022-12-12T13:34:37.806Z</time>
      </trkpt>
      <trkpt lat="48.2133" lon="-3.12813">
        <ele>172.977499</ele>
        <time>2022-12-12T13:34:40.808Z</time>
      </trkpt>
      <trkpt lat="48.21337" lon="-3.12804">
        <ele>173.111416</ele>
        <time>2022-12-12T13:34:43.808Z</time>
      </trkpt>
      <trkpt lat="48.21344" lon="-3.12795">
        <ele>173.254158</ele>
        <time>2022-12-12T13:34:46.809Z</time>
      </trkpt>
      <trkpt lat="48.21353" lon="-3.12785">
        <ele>173.403128</ele>
        <time>2022-12-12T13:34:49.801Z</time>
      </trkpt>
      <trkpt lat="48.21361" lon="-3.12776">
        <ele>173.556201</ele>
        <time>2022-12-12T13:34:52.796Z</time>
      </trkpt>
      <trkpt lat="48.2137" lon="-3.12766">
        <ele>173.709819</ele>
        <time>2022-12-12T13:34:55.788Z</time>
      </trkpt>
      <trkpt lat="48.21378" lon="-3.12757">
        <ele>173.86175</ele>
        <time>2022-12-12T13:34:58.805Z</time>
      </trkpt>
      <trkpt lat="48.21387" lon="-3.12748">
        <ele>174.016642</ele>
        <time>2022-12-12T13:35:02.802Z</time>
      </trkpt>
      <trkpt lat="48.21394" lon="-3.12739">
        <ele>174.158098</ele>
        <time>2022-12-12T13:35:06.788Z</time>
      </trkpt>
      <trkpt lat="48.21403" lon="-3.12729">
        <ele>174.311764</ele>
        <time>2022-12-12T13:35:10.803Z</time>
      </trkpt>
      <trkpt lat="48.21411" lon="-3.12718">
        <ele>174.472897</ele>
        <time>2022-12-12T13:35:14.805Z</time>
      </trkpt>
      <trkpt lat="48.2142" lon="-3.12707">
        <ele>174.635791</ele>
        <time>2022-12-12T13:35:18.805Z</time>
      </trkpt>
      <trkpt lat="48.21427" lon="-3.12699">
        <ele>174.755471</ele>
        <time>2022-12-12T13:35:22.788Z</time>
      </trkpt>
      <trkpt lat="48.21435" lon="-3.1269">
        <ele>174.871543</ele>
        <time>2022-12-12T13:35:26.796Z</time>
      </trkpt>
      <trkpt lat="48.21443" lon="-3.12681">
        <ele>174.988883</ele>
        <time>2022-12-12T13:35:30.790Z</time>
      </trkpt>
      <trkpt lat="48.2145" lon="-3.12672">
        <ele>175.10629</ele>
        <time>2022-12-12T13:35:34.807Z</time>
      </trkpt>
      <trkpt lat="48.21458" lon="-3.12662">
        <ele>175.220943</ele>
        <time>2022-12-12T13:35:38.807Z</time>
      </trkpt>
      <trkpt lat="48.21465" lon="-3.12653">
        <ele>175.335719</ele>
        <time>2022-12-12T13:35:42.795Z</time>
      </trkpt>
      <trkpt lat="48.21472" lon="-3.12642">
        <ele>175.452683</ele>
        <time>2022-12-12T13:35:46.791Z</time>
      </trkpt>
      <trkpt lat="48.21474" lon="-3.12627">
        <ele>175.569564</ele>
        <time>2022-12-12T13:35:50.793Z</time>
      </trkpt>
      <trkpt lat="48.21473" lon="-3.12613">
        <ele>175.681447</ele>
        <time>2022-12-12T13:35:54.796Z</time>
      </trkpt>
      <trkpt lat="48.21471" lon="-3.12598">
        <ele>175.806762</ele>
        <time>2022-12-12T13:35:58.787Z</time>
      </trkpt>
      <trkpt lat="48.21469" lon="-3.12581">
        <ele>175.942505</ele>
        <time>2022-12-12T13:36:02.810Z</time>
      </trkpt>
      <trkpt lat="48.21467" lon="-3.12564">
        <ele>176.076669</ele>
        <time>2022-12-12T13:36:06.789Z</time>
      </trkpt>
      <trkpt lat="48.21465" lon="-3.12549">
        <ele>176.201633</ele>
        <time>2022-12-12T13:36:10.804Z</time>
      </trkpt>
      <trkpt lat="48.21463" lon="-3.12532">
        <ele>176.339263</ele>
        <time>2022-12-12T13:36:14.806Z</time>
      </trkpt>
      <trkpt lat="48.21462" lon="-3.12515">
        <ele>176.47156</ele>
        <time>2022-12-12T13:36:18.795Z</time>
      </trkpt>
      <trkpt lat="48.2146" lon="-3.125">
        <ele>176.595706</ele>
        <time>2022-12-12T13:36:22.805Z</time>
      </trkpt>
      <trkpt lat="48.21458" lon="-3.12484">
        <ele>176.721918</ele>
        <time>2022-12-12T13:36:26.807Z</time>
      </trkpt>
      <trkpt lat="48.21457" lon="-3.12469">
        <ele>176.852103</ele>
        <time>2022-12-12T13:36:30.801Z</time>
      </trkpt>
      <trkpt lat="48.21454" lon="-3.12453">
        <ele>177.186294</ele>
        <time>2022-12-12T13:36:34.808Z</time>
      </trkpt>
      <trkpt lat="48.21452" lon="-3.12438">
        <ele>177.497415</ele>
        <time>2022-12-12T13:36:38.796Z</time>
      </trkpt>
      <trkpt lat="48.2145" lon="-3.12424">
        <ele>177.799627</ele>
        <time>2022-12-12T13:36:42.807Z</time>
      </trkpt>
      <trkpt lat="48.21448" lon="-3.12407">
        <ele>178.134176</ele>
        <time>2022-12-12T13:36:47.803Z</time>
      </trkpt>
      <trkpt lat="48.21446" lon="-3.12393">
        <ele>178.427519</ele>
        <time>2022-12-12T13:36:51.805Z</time>
      </trkpt>
      <trkpt lat="48.21444" lon="-3.12379">
        <ele>178.730076</ele>
        <time>2022-12-12T13:36:55.801Z</time>
      </trkpt>
      <trkpt lat="48.21442" lon="-3.12364">
        <ele>179.021311</ele>
        <time>2022-12-12T13:36:59.805Z</time>
      </trkpt>
      <trkpt lat="48.21441" lon="-3.12349">
        <ele>179.3306</ele>
        <time>2022-12-12T13:37:03.805Z</time>
      </trkpt>
      <trkpt lat="48.21438" lon="-3.12335">
        <ele>179.631177</ele>
        <time>2022-12-12T13:37:07.806Z</time>
      </trkpt>
      <trkpt lat="48.21437" lon="-3.1232">
        <ele>179.93156</ele>
        <time>2022-12-12T13:37:11.806Z</time>
      </trkpt>
      <trkpt lat="48.21435" lon="-3.12306">
        <ele>180.229548</ele>
        <time>2022-12-12T13:37:15.803Z</time>
      </trkpt>
      <trkpt lat="48.21433" lon="-3.12292">
        <ele>180.518782</ele>
        <time>2022-12-12T13:37:19.805Z</time>
      </trkpt>
      <trkpt lat="48.21432" lon="-3.12278">
        <ele>180.811584</ele>
        <time>2022-12-12T13:37:23.803Z</time>
      </trkpt>
      <trkpt lat="48.21429" lon="-3.12263">
        <ele>181.110848</ele>
        <time>2022-12-12T13:37:27.802Z</time>
      </trkpt>
      <trkpt lat="48.21427" lon="-3.12248">
        <ele>181.425928</ele>
        <time>2022-12-12T13:37:31.800Z</time>
      </trkpt>
      <trkpt lat="48.21426" lon="-3.12234">
        <ele>181.718281</ele>
        <time>2022-12-12T13:37:35.809Z</time>
      </trkpt>
      <trkpt lat="48.21424" lon="-3.12218">
        <ele>182.045579</ele>
        <time>2022-12-12T13:37:40.790Z</time>
      </trkpt>
      <trkpt lat="48.21422" lon="-3.12204">
        <ele>182.369988</ele>
        <time>2022-12-12T13:37:44.789Z</time>
      </trkpt>
      <trkpt lat="48.21421" lon="-3.12187">
        <ele>182.95294</ele>
        <time>2022-12-12T13:37:48.803Z</time>
      </trkpt>
      <trkpt lat="48.2142" lon="-3.12172">
        <ele>183.503122</ele>
        <time>2022-12-12T13:37:52.792Z</time>
      </trkpt>
      <trkpt lat="48.21417" lon="-3.12157">
        <ele>184.080424</ele>
        <time>2022-12-12T13:37:57.798Z</time>
      </trkpt>
      <trkpt lat="48.21416" lon="-3.12143">
        <ele>184.576968</ele>
        <time>2022-12-12T13:38:01.788Z</time>
      </trkpt>
      <trkpt lat="48.21415" lon="-3.12127">
        <ele>185.155598</ele>
        <time>2022-12-12T13:38:06.795Z</time>
      </trkpt>
      <trkpt lat="48.21413" lon="-3.12111">
        <ele>185.731814</ele>
        <time>2022-12-12T13:38:11.798Z</time>
      </trkpt>
      <trkpt lat="48.2141" lon="-3.12097">
        <ele>186.262246</ele>
        <time>2022-12-12T13:38:16.802Z</time>
      </trkpt>
      <trkpt lat="48.2141" lon="-3.12082">
        <ele>186.807771</ele>
        <time>2022-12-12T13:38:22.801Z</time>
      </trkpt>
      <trkpt lat="48.21407" lon="-3.12066">
        <ele>187.382696</ele>
        <time>2022-12-12T13:38:28.788Z</time>
      </trkpt>
      <trkpt lat="48.21405" lon="-3.12052">
        <ele>187.90034</ele>
        <time>2022-12-12T13:38:33.787Z</time>
      </trkpt>
      <trkpt lat="48.21404" lon="-3.12038">
        <ele>188.412411</ele>
        <time>2022-12-12T13:38:38.804Z</time>
      </trkpt>
      <trkpt lat="48.21401" lon="-3.12024">
        <ele>188.945257</ele>
        <time>2022-12-12T13:38:43.807Z</time>
      </trkpt>
      <trkpt lat="48.214" lon="-3.1201">
        <ele>189.451259</ele>
        <time>2022-12-12T13:38:48.801Z</time>
      </trkpt>
      <trkpt lat="48.21398" lon="-3.11994">
        <ele>190.026438</ele>
        <time>2022-12-12T13:38:54.790Z</time>
      </trkpt>
      <trkpt lat="48.21395" lon="-3.11979">
        <ele>190.607293</ele>
        <time>2022-12-12T13:39:00.786Z</time>
      </trkpt>
      <trkpt lat="48.21392" lon="-3.11964">
        <ele>191.16051</ele>
        <time>2022-12-12T13:39:06.808Z</time>
      </trkpt>
      <trkpt lat="48.21389" lon="-3.11949">
        <ele>191.724514</ele>
        <time>2022-12-12T13:39:12.798Z</time>
      </trkpt>
      <trkpt lat="48.21386" lon="-3.11934">
        <ele>192.193859</ele>
        <time>2022-12-12T13:39:17.789Z</time>
      </trkpt>
      <trkpt lat="48.21382" lon="-3.11919">
        <ele>192.553799</ele>
        <time>2022-12-12T13:39:22.806Z</time>
      </trkpt>
      <trkpt lat="48.21378" lon="-3.11904">
        <ele>192.91403</ele>
        <time>2022-12-12T13:39:27.787Z</time>
      </trkpt>
      <trkpt lat="48.21374" lon="-3.11889">
        <ele>193.279934</ele>
        <time>2022-12-12T13:39:32.810Z</time>
      </trkpt>
      <trkpt lat="48.21372" lon="-3.11874">
        <ele>193.632926</ele>
        <time>2022-12-12T13:39:37.788Z</time>
      </trkpt>
      <trkpt lat="48.21368" lon="-3.11861">
        <ele>193.95205</ele>
        <time>2022-12-12T13:39:42.800Z</time>
      </trkpt>
      <trkpt lat="48.21367" lon="-3.11848">
        <ele>194.263067</ele>
        <time>2022-12-12T13:39:47.805Z</time>
      </trkpt>
      <trkpt lat="48.21365" lon="-3.11835">
        <ele>194.570288</ele>
        <time>2022-12-12T13:39:52.805Z</time>
      </trkpt>
      <trkpt lat="48.21363" lon="-3.11821">
        <ele>194.89161</ele>
        <time>2022-12-12T13:39:57.794Z</time>
      </trkpt>
      <trkpt lat="48.21361" lon="-3.11807">
        <ele>195.224775</ele>
        <time>2022-12-12T13:40:02.802Z</time>
      </trkpt>
      <trkpt lat="48.21359" lon="-3.11792">
        <ele>195.558229</ele>
        <time>2022-12-12T13:40:07.809Z</time>
      </trkpt>
      <trkpt lat="48.21358" lon="-3.11778">
        <ele>195.889717</ele>
        <time>2022-12-12T13:40:12.813Z</time>
      </trkpt>
      <trkpt lat="48.21356" lon="-3.11763">
        <ele>196.222134</ele>
        <time>2022-12-12T13:40:17.795Z</time>
      </trkpt>
      <trkpt lat="48.21355" lon="-3.11749">
        <ele>196.565731</ele>
        <time>2022-12-12T13:40:22.807Z</time>
      </trkpt>
      <trkpt lat="48.21354" lon="-3.11734">
        <ele>196.903419</ele>
        <time>2022-12-12T13:40:27.795Z</time>
      </trkpt>
      <trkpt lat="48.21352" lon="-3.11719">
        <ele>197.248105</ele>
        <time>2022-12-12T13:40:32.803Z</time>
      </trkpt>
      <trkpt lat="48.21351" lon="-3.11704">
        <ele>197.579858</ele>
        <time>2022-12-12T13:40:37.787Z</time>
      </trkpt>
      <trkpt lat="48.21349" lon="-3.1169">
        <ele>197.925614</ele>
        <time>2022-12-12T13:40:42.795Z</time>
      </trkpt>
      <trkpt lat="48.21348" lon="-3.11676">
        <ele>198.259278</ele>
        <time>2022-12-12T13:40:47.801Z</time>
      </trkpt>
      <trkpt lat="48.21346" lon="-3.1166">
        <ele>198.662585</ele>
        <time>2022-12-12T13:40:52.804Z</time>
      </trkpt>
      <trkpt lat="48.21344" lon="-3.11646">
        <ele>199.029274</ele>
        <time>2022-12-12T13:40:57.796Z</time>
      </trkpt>
      <trkpt lat="48.21342" lon="-3.11632">
        <ele>199.420779</ele>
        <time>2022-12-12T13:41:02.803Z</time>
      </trkpt>
      <trkpt lat="48.21341" lon="-3.11617">
        <ele>199.817007</ele>
        <time>2022-12-12T13:41:07.789Z</time>
      </trkpt>
      <trkpt lat="48.21339" lon="-3.11603">
        <ele>200.192714</ele>
        <time>2022-12-12T13:41:12.814Z</time>
      </trkpt>
      <trkpt lat="48.21337" lon="-3.11588">
        <ele>200.580593</ele>
        <time>2022-12-12T13:41:17.796Z</time>
      </trkpt>
      <trkpt lat="48.21335" lon="-3.11574">
        <ele>200.961098</ele>
        <time>2022-12-12T13:41:22.805Z</time>
      </trkpt>
      <trkpt lat="48.21334" lon="-3.1156">
        <ele>201.324776</ele>
        <time>2022-12-12T13:41:27.810Z</time>
      </trkpt>
      <trkpt lat="48.21333" lon="-3.11545">
        <ele>201.709573</ele>
        <time>2022-12-12T13:41:32.813Z</time>
      </trkpt>
      <trkpt lat="48.21332" lon="-3.11531">
        <ele>202.066334</ele>
        <time>2022-12-12T13:41:37.789Z</time>
      </trkpt>
      <trkpt lat="48.21331" lon="-3.11518">
        <ele>202.429969</ele>
        <time>2022-12-12T13:41:42.811Z</time>
      </trkpt>
      <trkpt lat="48.21329" lon="-3.11503">
        <ele>202.822387</ele>
        <time>2022-12-12T13:41:47.792Z</time>
      </trkpt>
      <trkpt lat="48.21327" lon="-3.11488">
        <ele>203.218197</ele>
        <time>2022-12-12T13:41:52.809Z</time>
      </trkpt>
      <trkpt lat="48.21326" lon="-3.11474">
        <ele>203.594585</ele>
        <time>2022-12-12T13:41:57.808Z</time>
      </trkpt>
      <trkpt lat="48.21324" lon="-3.11459">
        <ele>203.985681</ele>
        <time>2022-12-12T13:42:02.805Z</time>
      </trkpt>
      <trkpt lat="48.21322" lon="-3.11443">
        <ele>204.394137</ele>
        <time>2022-12-12T13:42:07.807Z</time>
      </trkpt>
      <trkpt lat="48.21321" lon="-3.11428">
        <ele>204.791706</ele>
        <time>2022-12-12T13:42:12.806Z</time>
      </trkpt>
      <trkpt lat="48.2132" lon="-3.11413">
        <ele>205.188229</ele>
        <time>2022-12-12T13:42:17.788Z</time>
      </trkpt>
      <trkpt lat="48.21319" lon="-3.11397">
        <ele>205.574573</ele>
        <time>2022-12-12T13:42:22.800Z</time>
      </trkpt>
      <trkpt lat="48.21318" lon="-3.11382">
        <ele>205.948301</ele>
        <time>2022-12-12T13:42:27.797Z</time>
      </trkpt>
      <trkpt lat="48.21317" lon="-3.11367">
        <ele>206.314203</ele>
        <time>2022-12-12T13:42:32.810Z</time>
      </trkpt>
      <trkpt lat="48.21316" lon="-3.11352">
        <ele>206.701634</ele>
        <time>2022-12-12T13:42:37.791Z</time>
      </trkpt>
      <trkpt lat="48.21316" lon="-3.11336">
        <ele>207.088909</ele>
        <time>2022-12-12T13:42:42.808Z</time>
      </trkpt>
      <trkpt lat="48.21316" lon="-3.1132">
        <ele>207.481706</ele>
        <time>2022-12-12T13:42:47.824Z</time>
      </trkpt>
      <trkpt lat="48.21316" lon="-3.11304">
        <ele>207.866547</ele>
        <time>2022-12-12T13:42:52.807Z</time>
      </trkpt>
      <trkpt lat="48.21316" lon="-3.11288">
        <ele>208.261192</ele>
        <time>2022-12-12T13:42:57.794Z</time>
      </trkpt>
      <trkpt lat="48.21316" lon="-3.11272">
        <ele>208.643583</ele>
        <time>2022-12-12T13:43:02.809Z</time>
      </trkpt>
      <trkpt lat="48.21317" lon="-3.11256">
        <ele>209.043722</ele>
        <time>2022-12-12T13:43:07.811Z</time>
      </trkpt>
      <trkpt lat="48.21317" lon="-3.1124">
        <ele>209.429178</ele>
        <time>2022-12-12T13:43:12.811Z</time>
      </trkpt>
      <trkpt lat="48.21318" lon="-3.11225">
        <ele>209.814633</ele>
        <time>2022-12-12T13:43:17.794Z</time>
      </trkpt>
      <trkpt lat="48.21319" lon="-3.1121">
        <ele>210.187373</ele>
        <time>2022-12-12T13:43:22.811Z</time>
      </trkpt>
      <trkpt lat="48.21319" lon="-3.11195">
        <ele>210.538189</ele>
        <time>2022-12-12T13:43:27.815Z</time>
      </trkpt>
      <trkpt lat="48.21321" lon="-3.11181">
        <ele>210.901195</ele>
        <time>2022-12-12T13:43:32.806Z</time>
      </trkpt>
      <trkpt lat="48.2132" lon="-3.11165">
        <ele>211.281134</ele>
        <time>2022-12-12T13:43:37.792Z</time>
      </trkpt>
      <trkpt lat="48.21322" lon="-3.11149">
        <ele>211.669387</ele>
        <time>2022-12-12T13:43:42.823Z</time>
      </trkpt>
      <trkpt lat="48.21323" lon="-3.11134">
        <ele>212.04196</ele>
        <time>2022-12-12T13:43:47.811Z</time>
      </trkpt>
      <trkpt lat="48.21325" lon="-3.11119">
        <ele>212.403153</ele>
        <time>2022-12-12T13:43:52.803Z</time>
      </trkpt>
      <trkpt lat="48.21326" lon="-3.11104">
        <ele>212.766692</ele>
        <time>2022-12-12T13:43:57.811Z</time>
      </trkpt>
      <trkpt lat="48.21328" lon="-3.11089">
        <ele>213.121536</ele>
        <time>2022-12-12T13:44:02.810Z</time>
      </trkpt>
      <trkpt lat="48.2133" lon="-3.11074">
        <ele>213.487293</ele>
        <time>2022-12-12T13:44:07.792Z</time>
      </trkpt>
      <trkpt lat="48.21332" lon="-3.11059">
        <ele>213.850429</ele>
        <time>2022-12-12T13:44:12.801Z</time>
      </trkpt>
      <trkpt lat="48.21334" lon="-3.11043">
        <ele>214.224373</ele>
        <time>2022-12-12T13:44:17.814Z</time>
      </trkpt>
      <trkpt lat="48.21336" lon="-3.11028">
        <ele>214.58844</ele>
        <time>2022-12-12T13:44:22.809Z</time>
      </trkpt>
      <trkpt lat="48.21339" lon="-3.11013">
        <ele>214.953923</ele>
        <time>2022-12-12T13:44:27.797Z</time>
      </trkpt>
      <trkpt lat="48.21341" lon="-3.10998">
        <ele>215.32475</ele>
        <time>2022-12-12T13:44:32.809Z</time>
      </trkpt>
      <trkpt lat="48.21343" lon="-3.10983">
        <ele>215.688175</ele>
        <time>2022-12-12T13:44:37.811Z</time>
      </trkpt>
      <trkpt lat="48.21346" lon="-3.10967">
        <ele>216.081538</ele>
        <time>2022-12-12T13:44:42.818Z</time>
      </trkpt>
      <trkpt lat="48.21349" lon="-3.10951">
        <ele>216.472092</ele>
        <time>2022-12-12T13:44:47.807Z</time>
      </trkpt>
      <trkpt lat="48.21351" lon="-3.10938">
        <ele>216.794456</ele>
        <time>2022-12-12T13:44:51.815Z</time>
      </trkpt>
      <trkpt lat="48.21355" lon="-3.10923">
        <ele>217.18352</ele>
        <time>2022-12-12T13:44:56.806Z</time>
      </trkpt>
      <trkpt lat="48.21358" lon="-3.10907">
        <ele>217.579588</ele>
        <time>2022-12-12T13:45:01.792Z</time>
      </trkpt>
      <trkpt lat="48.21362" lon="-3.10891">
        <ele>217.977551</ele>
        <time>2022-12-12T13:45:06.805Z</time>
      </trkpt>
      <trkpt lat="48.21365" lon="-3.10875">
        <ele>218.380117</ele>
        <time>2022-12-12T13:45:11.804Z</time>
      </trkpt>
      <trkpt lat="48.21368" lon="-3.10862">
        <ele>218.719847</ele>
        <time>2022-12-12T13:45:15.806Z</time>
      </trkpt>
      <trkpt lat="48.21372" lon="-3.10848">
        <ele>219.084088</ele>
        <time>2022-12-12T13:45:19.806Z</time>
      </trkpt>
      <trkpt lat="48.21375" lon="-3.10835">
        <ele>219.414367</ele>
        <time>2022-12-12T13:45:23.790Z</time>
      </trkpt>
      <trkpt lat="48.21379" lon="-3.10822">
        <ele>219.758168</ele>
        <time>2022-12-12T13:45:27.809Z</time>
      </trkpt>
      <trkpt lat="48.21382" lon="-3.10809">
        <ele>220.108445</ele>
        <time>2022-12-12T13:45:31.816Z</time>
      </trkpt>
      <trkpt lat="48.21386" lon="-3.10795">
        <ele>220.480956</ele>
        <time>2022-12-12T13:45:36.791Z</time>
      </trkpt>
      <trkpt lat="48.21391" lon="-3.1078">
        <ele>220.88951</ele>
        <time>2022-12-12T13:45:41.804Z</time>
      </trkpt>
      <trkpt lat="48.21395" lon="-3.10767">
        <ele>221.242061</ele>
        <time>2022-12-12T13:45:45.794Z</time>
      </trkpt>
      <trkpt lat="48.214" lon="-3.10754">
        <ele>221.593987</ele>
        <time>2022-12-12T13:45:49.808Z</time>
      </trkpt>
      <trkpt lat="48.21404" lon="-3.10741">
        <ele>221.945729</ele>
        <time>2022-12-12T13:45:54.812Z</time>
      </trkpt>
      <trkpt lat="48.21409" lon="-3.10728">
        <ele>222.29826</ele>
        <time>2022-12-12T13:45:59.798Z</time>
      </trkpt>
      <trkpt lat="48.21413" lon="-3.10716">
        <ele>222.632301</ele>
        <time>2022-12-12T13:46:03.815Z</time>
      </trkpt>
      <trkpt lat="48.21419" lon="-3.10702">
        <ele>223.036927</ele>
        <time>2022-12-12T13:46:08.806Z</time>
      </trkpt>
      <trkpt lat="48.21423" lon="-3.10689">
        <ele>223.392296</ele>
        <time>2022-12-12T13:46:12.809Z</time>
      </trkpt>
      <trkpt lat="48.21428" lon="-3.10675">
        <ele>223.759993</ele>
        <time>2022-12-12T13:46:16.816Z</time>
      </trkpt>
      <trkpt lat="48.21433" lon="-3.10663">
        <ele>224.113533</ele>
        <time>2022-12-12T13:46:20.809Z</time>
      </trkpt>
      <trkpt lat="48.21438" lon="-3.1065">
        <ele>224.475233</ele>
        <time>2022-12-12T13:46:24.810Z</time>
      </trkpt>
      <trkpt lat="48.21443" lon="-3.10638">
        <ele>224.814242</ele>
        <time>2022-12-12T13:46:28.807Z</time>
      </trkpt>
      <trkpt lat="48.21449" lon="-3.10627">
        <ele>225.021366</ele>
        <time>2022-12-12T13:46:32.811Z</time>
      </trkpt>
      <trkpt lat="48.21454" lon="-3.10615">
        <ele>225.237034</ele>
        <time>2022-12-12T13:46:36.811Z</time>
      </trkpt>
      <trkpt lat="48.2146" lon="-3.10602">
        <ele>225.456317</ele>
        <time>2022-12-12T13:46:40.803Z</time>
      </trkpt>
      <trkpt lat="48.21465" lon="-3.1059">
        <ele>225.678076</ele>
        <time>2022-12-12T13:46:44.813Z</time>
      </trkpt>
      <trkpt lat="48.21472" lon="-3.10577">
        <ele>225.923515</ele>
        <time>2022-12-12T13:46:48.810Z</time>
      </trkpt>
      <trkpt lat="48.21478" lon="-3.10564">
        <ele>226.16936</ele>
        <time>2022-12-12T13:46:52.807Z</time>
      </trkpt>
      <trkpt lat="48.21485" lon="-3.10552">
        <ele>226.396773</ele>
        <time>2022-12-12T13:46:56.805Z</time>
      </trkpt>
      <trkpt lat="48.21491" lon="-3.10541">
        <ele>226.608819</ele>
        <time>2022-12-12T13:47:00.806Z</time>
      </trkpt>
      <trkpt lat="48.21496" lon="-3.10527">
        <ele>226.844208</ele>
        <time>2022-12-12T13:47:04.793Z</time>
      </trkpt>
      <trkpt lat="48.21502" lon="-3.10515">
        <ele>227.075974</ele>
        <time>2022-12-12T13:47:08.805Z</time>
      </trkpt>
      <trkpt lat="48.21509" lon="-3.10501">
        <ele>227.320203</ele>
        <time>2022-12-12T13:47:12.814Z</time>
      </trkpt>
      <trkpt lat="48.21515" lon="-3.10487">
        <ele>227.570454</ele>
        <time>2022-12-12T13:47:16.807Z</time>
      </trkpt>
      <trkpt lat="48.21522" lon="-3.10473">
        <ele>227.82948</ele>
        <time>2022-12-12T13:47:20.812Z</time>
      </trkpt>
      <trkpt lat="48.21529" lon="-3.10459">
        <ele>228.089913</ele>
        <time>2022-12-12T13:47:24.811Z</time>
      </trkpt>
      <trkpt lat="48.21535" lon="-3.10446">
        <ele>228.337863</ele>
        <time>2022-12-12T13:47:28.798Z</time>
      </trkpt>
      <trkpt lat="48.21542" lon="-3.10432">
        <ele>228.588164</ele>
        <time>2022-12-12T13:47:33.814Z</time>
      </trkpt>
      <trkpt lat="48.21548" lon="-3.10419">
        <ele>228.800405</ele>
        <time>2022-12-12T13:47:37.810Z</time>
      </trkpt>
      <trkpt lat="48.21554" lon="-3.10406">
        <ele>228.783446</ele>
        <time>2022-12-12T13:47:41.818Z</time>
      </trkpt>
      <trkpt lat="48.21561" lon="-3.10392">
        <ele>228.766083</ele>
        <time>2022-12-12T13:47:45.807Z</time>
      </trkpt>
      <trkpt lat="48.21567" lon="-3.10379">
        <ele>228.750072</ele>
        <time>2022-12-12T13:47:49.810Z</time>
      </trkpt>
      <trkpt lat="48.21572" lon="-3.10366">
        <ele>228.734064</ele>
        <time>2022-12-12T13:47:54.796Z</time>
      </trkpt>
      <trkpt lat="48.21573" lon="-3.10352">
        <ele>228.720148</ele>
        <time>2022-12-12T13:48:01.791Z</time>
      </trkpt>
      <trkpt lat="48.21566" lon="-3.10342">
        <ele>228.705469</ele>
        <time>2022-12-12T13:48:07.798Z</time>
      </trkpt>
      <trkpt lat="48.21561" lon="-3.10329">
        <ele>228.690813</ele>
        <time>2022-12-12T13:48:12.800Z</time>
      </trkpt>
      <trkpt lat="48.21566" lon="-3.10315">
        <ele>228.674574</ele>
        <time>2022-12-12T13:48:16.793Z</time>
      </trkpt>
      <trkpt lat="48.21572" lon="-3.10301">
        <ele>228.657123</ele>
        <time>2022-12-12T13:48:20.816Z</time>
      </trkpt>
      <trkpt lat="48.21577" lon="-3.10284">
        <ele>228.638649</ele>
        <time>2022-12-12T13:48:24.793Z</time>
      </trkpt>
      <trkpt lat="48.21581" lon="-3.1027">
        <ele>228.622819</ele>
        <time>2022-12-12T13:48:27.814Z</time>
      </trkpt>
      <trkpt lat="48.21586" lon="-3.10257">
        <ele>228.607885</ele>
        <time>2022-12-12T13:48:30.823Z</time>
      </trkpt>
      <trkpt lat="48.2159" lon="-3.10244">
        <ele>228.593268</ele>
        <time>2022-12-12T13:48:33.816Z</time>
      </trkpt>
      <trkpt lat="48.21594" lon="-3.10231">
        <ele>228.578309</ele>
        <time>2022-12-12T13:48:36.813Z</time>
      </trkpt>
      <trkpt lat="48.21598" lon="-3.10219">
        <ele>228.564351</ele>
        <time>2022-12-12T13:48:39.789Z</time>
      </trkpt>
      <trkpt lat="48.21602" lon="-3.10206">
        <ele>228.55042</ele>
        <time>2022-12-12T13:48:43.807Z</time>
      </trkpt>
      <trkpt lat="48.21606" lon="-3.10194">
        <ele>228.535963</ele>
        <time>2022-12-12T13:48:47.805Z</time>
      </trkpt>
      <trkpt lat="48.21611" lon="-3.10179">
        <ele>228.616965</ele>
        <time>2022-12-12T13:48:52.815Z</time>
      </trkpt>
      <trkpt lat="48.21616" lon="-3.10164">
        <ele>228.840331</ele>
        <time>2022-12-12T13:48:56.799Z</time>
      </trkpt>
      <trkpt lat="48.21619" lon="-3.10151">
        <ele>229.025315</ele>
        <time>2022-12-12T13:48:59.823Z</time>
      </trkpt>
      <trkpt lat="48.21625" lon="-3.10136">
        <ele>229.258211</ele>
        <time>2022-12-12T13:49:03.815Z</time>
      </trkpt>
      <trkpt lat="48.2163" lon="-3.10122">
        <ele>229.484587</ele>
        <time>2022-12-12T13:49:08.800Z</time>
      </trkpt>
      <trkpt lat="48.21634" lon="-3.10106">
        <ele>229.710032</ele>
        <time>2022-12-12T13:49:12.793Z</time>
      </trkpt>
      <trkpt lat="48.21638" lon="-3.10093">
        <ele>229.907215</ele>
        <time>2022-12-12T13:49:15.798Z</time>
      </trkpt>
      <trkpt lat="48.21643" lon="-3.10079">
        <ele>230.117151</ele>
        <time>2022-12-12T13:49:18.815Z</time>
      </trkpt>
      <trkpt lat="48.21647" lon="-3.10066">
        <ele>230.322517</ele>
        <time>2022-12-12T13:49:21.808Z</time>
      </trkpt>
      <trkpt lat="48.21652" lon="-3.10053">
        <ele>230.526955</ele>
        <time>2022-12-12T13:49:24.798Z</time>
      </trkpt>
      <trkpt lat="48.21656" lon="-3.10038">
        <ele>230.742785</ele>
        <time>2022-12-12T13:49:27.807Z</time>
      </trkpt>
      <trkpt lat="48.2166" lon="-3.10024">
        <ele>230.960693</ele>
        <time>2022-12-12T13:49:30.811Z</time>
      </trkpt>
      <trkpt lat="48.21665" lon="-3.10011">
        <ele>231.152637</ele>
        <time>2022-12-12T13:49:33.796Z</time>
      </trkpt>
      <trkpt lat="48.21669" lon="-3.09996">
        <ele>231.368966</ele>
        <time>2022-12-12T13:49:37.807Z</time>
      </trkpt>
      <trkpt lat="48.21673" lon="-3.09984">
        <ele>231.561834</ele>
        <time>2022-12-12T13:49:40.814Z</time>
      </trkpt>
      <trkpt lat="48.21678" lon="-3.09971">
        <ele>231.75721</ele>
        <time>2022-12-12T13:49:43.815Z</time>
      </trkpt>
      <trkpt lat="48.21682" lon="-3.09958">
        <ele>231.960194</ele>
        <time>2022-12-12T13:49:46.793Z</time>
      </trkpt>
      <trkpt lat="48.21686" lon="-3.09945">
        <ele>232.15642</ele>
        <time>2022-12-12T13:49:49.808Z</time>
      </trkpt>
      <trkpt lat="48.21691" lon="-3.09932">
        <ele>232.322297</ele>
        <time>2022-12-12T13:49:52.790Z</time>
      </trkpt>
      <trkpt lat="48.21695" lon="-3.09919">
        <ele>232.469624</ele>
        <time>2022-12-12T13:49:55.798Z</time>
      </trkpt>
      <trkpt lat="48.21699" lon="-3.09903">
        <ele>232.640762</ele>
        <time>2022-12-12T13:49:59.809Z</time>
      </trkpt>
      <trkpt lat="48.21703" lon="-3.0989">
        <ele>232.79227</ele>
        <time>2022-12-12T13:50:02.804Z</time>
      </trkpt>
      <trkpt lat="48.21707" lon="-3.09877">
        <ele>232.944768</ele>
        <time>2022-12-12T13:50:05.811Z</time>
      </trkpt>
      <trkpt lat="48.21712" lon="-3.09863">
        <ele>233.101388</ele>
        <time>2022-12-12T13:50:08.818Z</time>
      </trkpt>
      <trkpt lat="48.21716" lon="-3.0985">
        <ele>233.254532</ele>
        <time>2022-12-12T13:50:11.811Z</time>
      </trkpt>
      <trkpt lat="48.21721" lon="-3.09836">
        <ele>233.413192</ele>
        <time>2022-12-12T13:50:14.816Z</time>
      </trkpt>
      <trkpt lat="48.21725" lon="-3.09823">
        <ele>233.567691</ele>
        <time>2022-12-12T13:50:17.806Z</time>
      </trkpt>
      <trkpt lat="48.2173" lon="-3.09809">
        <ele>233.734913</ele>
        <time>2022-12-12T13:50:21.814Z</time>
      </trkpt>
      <trkpt lat="48.21735" lon="-3.09793">
        <ele>233.91262</ele>
        <time>2022-12-12T13:50:25.796Z</time>
      </trkpt>
      <trkpt lat="48.2174" lon="-3.09777">
        <ele>234.091879</ele>
        <time>2022-12-12T13:50:29.814Z</time>
      </trkpt>
      <trkpt lat="48.21745" lon="-3.09763">
        <ele>234.263828</ele>
        <time>2022-12-12T13:50:33.816Z</time>
      </trkpt>
      <trkpt lat="48.2175" lon="-3.09747">
        <ele>234.437424</ele>
        <time>2022-12-12T13:50:37.811Z</time>
      </trkpt>
      <trkpt lat="48.21754" lon="-3.09732">
        <ele>234.61182</ele>
        <time>2022-12-12T13:50:41.811Z</time>
      </trkpt>
      <trkpt lat="48.21759" lon="-3.09717">
        <ele>234.783433</ele>
        <time>2022-12-12T13:50:45.796Z</time>
      </trkpt>
      <trkpt lat="48.21764" lon="-3.09702">
        <ele>234.955045</ele>
        <time>2022-12-12T13:50:49.818Z</time>
      </trkpt>
      <trkpt lat="48.21768" lon="-3.09687">
        <ele>235.054108</ele>
        <time>2022-12-12T13:50:53.821Z</time>
      </trkpt>
      <trkpt lat="48.21773" lon="-3.09672">
        <ele>235.134158</ele>
        <time>2022-12-12T13:50:57.810Z</time>
      </trkpt>
      <trkpt lat="48.21777" lon="-3.09657">
        <ele>235.208541</ele>
        <time>2022-12-12T13:51:01.811Z</time>
      </trkpt>
      <trkpt lat="48.2178" lon="-3.09644">
        <ele>235.277163</ele>
        <time>2022-12-12T13:51:05.790Z</time>
      </trkpt>
      <trkpt lat="48.21784" lon="-3.09629">
        <ele>235.351637</ele>
        <time>2022-12-12T13:51:09.791Z</time>
      </trkpt>
      <trkpt lat="48.21787" lon="-3.09613">
        <ele>235.43238</ele>
        <time>2022-12-12T13:51:13.804Z</time>
      </trkpt>
      <trkpt lat="48.21791" lon="-3.09597">
        <ele>235.51448</ele>
        <time>2022-12-12T13:51:17.823Z</time>
      </trkpt>
      <trkpt lat="48.21794" lon="-3.09582">
        <ele>235.589573</ele>
        <time>2022-12-12T13:51:21.795Z</time>
      </trkpt>
      <trkpt lat="48.21797" lon="-3.09565">
        <ele>235.671676</ele>
        <time>2022-12-12T13:51:27.798Z</time>
      </trkpt>
      <trkpt lat="48.21799" lon="-3.09548">
        <ele>235.756658</ele>
        <time>2022-12-12T13:51:31.798Z</time>
      </trkpt>
      <trkpt lat="48.218" lon="-3.09531">
        <ele>235.838417</ele>
        <time>2022-12-12T13:51:35.809Z</time>
      </trkpt>
      <trkpt lat="48.21802" lon="-3.09517">
        <ele>235.904611</ele>
        <time>2022-12-12T13:51:38.813Z</time>
      </trkpt>
      <trkpt lat="48.21803" lon="-3.09503">
        <ele>235.970924</ele>
        <time>2022-12-12T13:51:41.816Z</time>
      </trkpt>
      <trkpt lat="48.21805" lon="-3.09489">
        <ele>236.039978</ele>
        <time>2022-12-12T13:51:44.809Z</time>
      </trkpt>
      <trkpt lat="48.21807" lon="-3.09471">
        <ele>236.125993</ele>
        <time>2022-12-12T13:51:48.792Z</time>
      </trkpt>
      <trkpt lat="48.21808" lon="-3.09454">
        <ele>236.205935</ele>
        <time>2022-12-12T13:51:52.811Z</time>
      </trkpt>
      <trkpt lat="48.21809" lon="-3.09438">
        <ele>236.288969</ele>
        <time>2022-12-12T13:51:57.795Z</time>
      </trkpt>
      <trkpt lat="48.21809" lon="-3.09422">
        <ele>236.463255</ele>
        <time>2022-12-12T13:52:01.811Z</time>
      </trkpt>
      <trkpt lat="48.21808" lon="-3.09405">
        <ele>236.643353</ele>
        <time>2022-12-12T13:52:05.809Z</time>
      </trkpt>
      <trkpt lat="48.21807" lon="-3.09388">
        <ele>236.827353</ele>
        <time>2022-12-12T13:52:09.823Z</time>
      </trkpt>
      <trkpt lat="48.21807" lon="-3.09374">
        <ele>236.974727</ele>
        <time>2022-12-12T13:52:12.823Z</time>
      </trkpt>
      <trkpt lat="48.21806" lon="-3.09359">
        <ele>237.140258</ele>
        <time>2022-12-12T13:52:16.798Z</time>
      </trkpt>
      <trkpt lat="48.21806" lon="-3.09341">
        <ele>237.32982</ele>
        <time>2022-12-12T13:52:20.819Z</time>
      </trkpt>
      <trkpt lat="48.21805" lon="-3.09328">
        <ele>237.475473</ele>
        <time>2022-12-12T13:52:23.815Z</time>
      </trkpt>
      <trkpt lat="48.21803" lon="-3.09311">
        <ele>237.654601</ele>
        <time>2022-12-12T13:52:27.814Z</time>
      </trkpt>
      <trkpt lat="48.21802" lon="-3.09298">
        <ele>237.801638</ele>
        <time>2022-12-12T13:52:31.811Z</time>
      </trkpt>
      <trkpt lat="48.21799" lon="-3.09284">
        <ele>237.952972</ele>
        <time>2022-12-12T13:52:35.809Z</time>
      </trkpt>
      <trkpt lat="48.21797" lon="-3.09267">
        <ele>238.146358</ele>
        <time>2022-12-12T13:52:39.803Z</time>
      </trkpt>
      <trkpt lat="48.21795" lon="-3.09252">
        <ele>238.31196</ele>
        <time>2022-12-12T13:52:42.818Z</time>
      </trkpt>
      <trkpt lat="48.21793" lon="-3.09238">
        <ele>238.462483</ele>
        <time>2022-12-12T13:52:45.809Z</time>
      </trkpt>
      <trkpt lat="48.21791" lon="-3.09223">
        <ele>238.622096</ele>
        <time>2022-12-12T13:52:48.813Z</time>
      </trkpt>
      <trkpt lat="48.21788" lon="-3.0921">
        <ele>238.771651</ele>
        <time>2022-12-12T13:52:51.790Z</time>
      </trkpt>
      <trkpt lat="48.21785" lon="-3.09197">
        <ele>238.92423</ele>
        <time>2022-12-12T13:52:54.793Z</time>
      </trkpt>
      <trkpt lat="48.21783" lon="-3.09183">
        <ele>239.074356</ele>
        <time>2022-12-12T13:52:57.811Z</time>
      </trkpt>
      <trkpt lat="48.21781" lon="-3.09169">
        <ele>239.224281</ele>
        <time>2022-12-12T13:53:00.807Z</time>
      </trkpt>
      <trkpt lat="48.21778" lon="-3.09154">
        <ele>239.38655</ele>
        <time>2022-12-12T13:53:04.810Z</time>
      </trkpt>
      <trkpt lat="48.21775" lon="-3.09136">
        <ele>239.570224</ele>
        <time>2022-12-12T13:53:08.812Z</time>
      </trkpt>
      <trkpt lat="48.21772" lon="-3.09121">
        <ele>239.725683</ele>
        <time>2022-12-12T13:53:11.812Z</time>
      </trkpt>
      <trkpt lat="48.21769" lon="-3.09107">
        <ele>239.882598</ele>
        <time>2022-12-12T13:53:14.812Z</time>
      </trkpt>
      <trkpt lat="48.21766" lon="-3.09092">
        <ele>240.03629</ele>
        <time>2022-12-12T13:53:17.810Z</time>
      </trkpt>
      <trkpt lat="48.21763" lon="-3.09078">
        <ele>240.184328</ele>
        <time>2022-12-12T13:53:20.799Z</time>
      </trkpt>
      <trkpt lat="48.21761" lon="-3.09064">
        <ele>240.328262</ele>
        <time>2022-12-12T13:53:23.812Z</time>
      </trkpt>
      <trkpt lat="48.21758" lon="-3.09047">
        <ele>240.504877</ele>
        <time>2022-12-12T13:53:27.809Z</time>
      </trkpt>
      <trkpt lat="48.21756" lon="-3.0903">
        <ele>240.671769</ele>
        <time>2022-12-12T13:53:31.809Z</time>
      </trkpt>
      <trkpt lat="48.21754" lon="-3.09014">
        <ele>240.843883</ele>
        <time>2022-12-12T13:53:35.794Z</time>
      </trkpt>
      <trkpt lat="48.21752" lon="-3.08997">
        <ele>241.015441</ele>
        <time>2022-12-12T13:53:39.797Z</time>
      </trkpt>
      <trkpt lat="48.2175" lon="-3.08983">
        <ele>241.152566</ele>
        <time>2022-12-12T13:53:42.808Z</time>
      </trkpt>
      <trkpt lat="48.21748" lon="-3.08968">
        <ele>241.310996</ele>
        <time>2022-12-12T13:53:46.815Z</time>
      </trkpt>
      <trkpt lat="48.21747" lon="-3.08953">
        <ele>241.463694</ele>
        <time>2022-12-12T13:53:49.802Z</time>
      </trkpt>
      <trkpt lat="48.21745" lon="-3.08936">
        <ele>241.632095</ele>
        <time>2022-12-12T13:53:52.822Z</time>
      </trkpt>
      <trkpt lat="48.21744" lon="-3.08922">
        <ele>241.775632</ele>
        <time>2022-12-12T13:53:55.820Z</time>
      </trkpt>
      <trkpt lat="48.21743" lon="-3.08908">
        <ele>241.900841</ele>
        <time>2022-12-12T13:53:58.819Z</time>
      </trkpt>
      <trkpt lat="48.21742" lon="-3.08893">
        <ele>241.916703</ele>
        <time>2022-12-12T13:54:01.814Z</time>
      </trkpt>
      <trkpt lat="48.21742" lon="-3.08878">
        <ele>241.93194</ele>
        <time>2022-12-12T13:54:04.794Z</time>
      </trkpt>
      <trkpt lat="48.21742" lon="-3.08863">
        <ele>241.947396</ele>
        <time>2022-12-12T13:54:07.812Z</time>
      </trkpt>
      <trkpt lat="48.21742" lon="-3.08847">
        <ele>241.963548</ele>
        <time>2022-12-12T13:54:10.789Z</time>
      </trkpt>
      <trkpt lat="48.21743" lon="-3.08833">
        <ele>241.978004</ele>
        <time>2022-12-12T13:54:13.795Z</time>
      </trkpt>
      <trkpt lat="48.21745" lon="-3.08817">
        <ele>241.993568</ele>
        <time>2022-12-12T13:54:17.814Z</time>
      </trkpt>
      <trkpt lat="48.21746" lon="-3.088">
        <ele>242.011287</ele>
        <time>2022-12-12T13:54:21.809Z</time>
      </trkpt>
      <trkpt lat="48.21748" lon="-3.08786">
        <ele>242.025564</ele>
        <time>2022-12-12T13:54:24.815Z</time>
      </trkpt>
      <trkpt lat="48.21749" lon="-3.08771">
        <ele>242.040872</ele>
        <time>2022-12-12T13:54:27.805Z</time>
      </trkpt>
      <trkpt lat="48.21752" lon="-3.08757">
        <ele>242.056378</ele>
        <time>2022-12-12T13:54:30.807Z</time>
      </trkpt>
      <trkpt lat="48.21754" lon="-3.08743">
        <ele>242.070523</ele>
        <time>2022-12-12T13:54:33.815Z</time>
      </trkpt>
      <trkpt lat="48.21758" lon="-3.0873">
        <ele>242.084447</ele>
        <time>2022-12-12T13:54:37.816Z</time>
      </trkpt>
      <trkpt lat="48.2176" lon="-3.08715">
        <ele>242.100309</ele>
        <time>2022-12-12T13:54:41.825Z</time>
      </trkpt>
      <trkpt lat="48.21764" lon="-3.08699">
        <ele>242.117462</ele>
        <time>2022-12-12T13:54:45.814Z</time>
      </trkpt>
      <trkpt lat="48.21767" lon="-3.08686">
        <ele>242.131702</ele>
        <time>2022-12-12T13:54:48.813Z</time>
      </trkpt>
      <trkpt lat="48.21771" lon="-3.08673">
        <ele>242.146245</ele>
        <time>2022-12-12T13:54:51.820Z</time>
      </trkpt>
      <trkpt lat="48.21775" lon="-3.08659">
        <ele>242.162184</ele>
        <time>2022-12-12T13:54:54.815Z</time>
      </trkpt>
      <trkpt lat="48.21779" lon="-3.08646">
        <ele>242.177841</ele>
        <time>2022-12-12T13:54:57.807Z</time>
      </trkpt>
      <trkpt lat="48.21781" lon="-3.08633">
        <ele>242.200262</ele>
        <time>2022-12-12T13:55:01.810Z</time>
      </trkpt>
      <trkpt lat="48.21786" lon="-3.0862">
        <ele>242.224513</ele>
        <time>2022-12-12T13:55:06.819Z</time>
      </trkpt>
      <trkpt lat="48.2179" lon="-3.08607">
        <ele>242.248272</ele>
        <time>2022-12-12T13:55:11.792Z</time>
      </trkpt>
      <trkpt lat="48.21796" lon="-3.08594">
        <ele>242.272992</ele>
        <time>2022-12-12T13:55:15.810Z</time>
      </trkpt>
      <trkpt lat="48.21801" lon="-3.08581">
        <ele>242.297101</ele>
        <time>2022-12-12T13:55:19.809Z</time>
      </trkpt>
      <trkpt lat="48.21805" lon="-3.08565">
        <ele>242.325732</ele>
        <time>2022-12-12T13:55:23.817Z</time>
      </trkpt>
      <trkpt lat="48.21809" lon="-3.08553">
        <ele>242.347752</ele>
        <time>2022-12-12T13:55:26.813Z</time>
      </trkpt>
      <trkpt lat="48.21814" lon="-3.08536">
        <ele>242.376979</ele>
        <time>2022-12-12T13:55:30.815Z</time>
      </trkpt>
      <trkpt lat="48.21818" lon="-3.08524">
        <ele>242.399788</ele>
        <time>2022-12-12T13:55:33.810Z</time>
      </trkpt>
      <trkpt lat="48.21822" lon="-3.08511">
        <ele>242.422923</ele>
        <time>2022-12-12T13:55:36.814Z</time>
      </trkpt>
      <trkpt lat="48.21828" lon="-3.08496">
        <ele>242.451626</ele>
        <time>2022-12-12T13:55:40.824Z</time>
      </trkpt>
      <trkpt lat="48.21833" lon="-3.08482">
        <ele>242.476883</ele>
        <time>2022-12-12T13:55:44.822Z</time>
      </trkpt>
      <trkpt lat="48.21838" lon="-3.08467">
        <ele>242.504396</ele>
        <time>2022-12-12T13:55:48.812Z</time>
      </trkpt>
      <trkpt lat="48.21842" lon="-3.08453">
        <ele>242.529539</ele>
        <time>2022-12-12T13:55:51.819Z</time>
      </trkpt>
      <trkpt lat="48.21848" lon="-3.0844">
        <ele>242.554842</ele>
        <time>2022-12-12T13:55:54.809Z</time>
      </trkpt>
      <trkpt lat="48.21852" lon="-3.08426">
        <ele>242.579363</ele>
        <time>2022-12-12T13:55:57.809Z</time>
      </trkpt>
      <trkpt lat="48.21855" lon="-3.08413">
        <ele>242.60337</ele>
        <time>2022-12-12T13:56:00.809Z</time>
      </trkpt>
      <trkpt lat="48.21861" lon="-3.08398">
        <ele>242.761562</ele>
        <time>2022-12-12T13:56:04.797Z</time>
      </trkpt>
      <trkpt lat="48.21865" lon="-3.08385">
        <ele>242.961756</ele>
        <time>2022-12-12T13:56:07.823Z</time>
      </trkpt>
      <trkpt lat="48.21869" lon="-3.08372">
        <ele>243.178057</ele>
        <time>2022-12-12T13:56:10.813Z</time>
      </trkpt>
      <trkpt lat="48.21873" lon="-3.08357">
        <ele>243.404796</ele>
        <time>2022-12-12T13:56:13.811Z</time>
      </trkpt>
      <trkpt lat="48.21877" lon="-3.08342">
        <ele>243.636725</ele>
        <time>2022-12-12T13:56:16.806Z</time>
      </trkpt>
      <trkpt lat="48.21882" lon="-3.08327">
        <ele>243.877417</ele>
        <time>2022-12-12T13:56:20.795Z</time>
      </trkpt>
      <trkpt lat="48.21885" lon="-3.08314">
        <ele>244.075096</ele>
        <time>2022-12-12T13:56:23.815Z</time>
      </trkpt>
      <trkpt lat="48.21888" lon="-3.08301">
        <ele>244.277556</ele>
        <time>2022-12-12T13:56:26.792Z</time>
      </trkpt>
      <trkpt lat="48.21892" lon="-3.08286">
        <ele>244.500443</ele>
        <time>2022-12-12T13:56:31.810Z</time>
      </trkpt>
      <trkpt lat="48.21896" lon="-3.08271">
        <ele>244.742529</ele>
        <time>2022-12-12T13:56:36.799Z</time>
      </trkpt>
      <trkpt lat="48.21899" lon="-3.08256">
        <ele>244.968829</ele>
        <time>2022-12-12T13:56:39.812Z</time>
      </trkpt>
      <trkpt lat="48.21902" lon="-3.08242">
        <ele>245.175703</ele>
        <time>2022-12-12T13:56:42.822Z</time>
      </trkpt>
      <trkpt lat="48.21905" lon="-3.08226">
        <ele>245.416504</ele>
        <time>2022-12-12T13:56:46.811Z</time>
      </trkpt>
      <trkpt lat="48.21908" lon="-3.08209">
        <ele>245.673363</ele>
        <time>2022-12-12T13:56:50.820Z</time>
      </trkpt>
      <trkpt lat="48.21909" lon="-3.08192">
        <ele>245.919234</ele>
        <time>2022-12-12T13:56:54.809Z</time>
      </trkpt>
      <trkpt lat="48.2191" lon="-3.08177">
        <ele>246.136312</ele>
        <time>2022-12-12T13:56:57.812Z</time>
      </trkpt>
      <trkpt lat="48.21912" lon="-3.08162">
        <ele>246.353143</ele>
        <time>2022-12-12T13:57:00.811Z</time>
      </trkpt>
      <trkpt lat="48.21912" lon="-3.08147">
        <ele>246.508319</ele>
        <time>2022-12-12T13:57:03.792Z</time>
      </trkpt>
      <trkpt lat="48.21913" lon="-3.08133">
        <ele>246.557583</ele>
        <time>2022-12-12T13:57:06.802Z</time>
      </trkpt>
      <trkpt lat="48.21913" lon="-3.08115">
        <ele>246.617561</ele>
        <time>2022-12-12T13:57:10.814Z</time>
      </trkpt>
      <trkpt lat="48.21914" lon="-3.081">
        <ele>246.669789</ele>
        <time>2022-12-12T13:57:13.810Z</time>
      </trkpt>
      <trkpt lat="48.21915" lon="-3.08082">
        <ele>246.729197</ele>
        <time>2022-12-12T13:57:17.817Z</time>
      </trkpt>
      <trkpt lat="48.21915" lon="-3.08068">
        <ele>246.77969</ele>
        <time>2022-12-12T13:57:20.796Z</time>
      </trkpt>
      <trkpt lat="48.21914" lon="-3.08052">
        <ele>246.83406</ele>
        <time>2022-12-12T13:57:23.792Z</time>
      </trkpt>
      <trkpt lat="48.21913" lon="-3.08036">
        <ele>246.888057</ele>
        <time>2022-12-12T13:57:26.822Z</time>
      </trkpt>
      <trkpt lat="48.21913" lon="-3.0802">
        <ele>246.94062</ele>
        <time>2022-12-12T13:57:29.811Z</time>
      </trkpt>
      <trkpt lat="48.21913" lon="-3.08006">
        <ele>246.988468</ele>
        <time>2022-12-12T13:57:32.810Z</time>
      </trkpt>
      <trkpt lat="48.21912" lon="-3.07989">
        <ele>247.044905</ele>
        <time>2022-12-12T13:57:36.809Z</time>
      </trkpt>
      <trkpt lat="48.2191" lon="-3.07973">
        <ele>247.099992</ele>
        <time>2022-12-12T13:57:40.793Z</time>
      </trkpt>
      <trkpt lat="48.2191" lon="-3.07958">
        <ele>247.153204</ele>
        <time>2022-12-12T13:57:44.797Z</time>
      </trkpt>
      <trkpt lat="48.21908" lon="-3.07943">
        <ele>247.203677</ele>
        <time>2022-12-12T13:57:47.812Z</time>
      </trkpt>
      <trkpt lat="48.21906" lon="-3.07928">
        <ele>247.254845</ele>
        <time>2022-12-12T13:57:50.807Z</time>
      </trkpt>
      <trkpt lat="48.21904" lon="-3.07914">
        <ele>247.305144</ele>
        <time>2022-12-12T13:57:53.796Z</time>
      </trkpt>
      <trkpt lat="48.21901" lon="-3.07901">
        <ele>247.35241</ele>
        <time>2022-12-12T13:57:56.815Z</time>
      </trkpt>
      <trkpt lat="48.21898" lon="-3.07886">
        <ele>247.402916</ele>
        <time>2022-12-12T13:57:59.823Z</time>
      </trkpt>
      <trkpt lat="48.21895" lon="-3.07872">
        <ele>247.505984</ele>
        <time>2022-12-12T13:58:02.815Z</time>
      </trkpt>
      <trkpt lat="48.21892" lon="-3.07857">
        <ele>247.613539</ele>
        <time>2022-12-12T13:58:05.810Z</time>
      </trkpt>
      <trkpt lat="48.2189" lon="-3.07842">
        <ele>247.721964</ele>
        <time>2022-12-12T13:58:08.815Z</time>
      </trkpt>
      <trkpt lat="48.21886" lon="-3.07827">
        <ele>247.836323</ele>
        <time>2022-12-12T13:58:11.793Z</time>
      </trkpt>
      <trkpt lat="48.21884" lon="-3.07811">
        <ele>247.948548</ele>
        <time>2022-12-12T13:58:14.812Z</time>
      </trkpt>
      <trkpt lat="48.21881" lon="-3.07795">
        <ele>248.069226</ele>
        <time>2022-12-12T13:58:17.824Z</time>
      </trkpt>
      <trkpt lat="48.21878" lon="-3.0778">
        <ele>248.174569</ele>
        <time>2022-12-12T13:58:20.802Z</time>
      </trkpt>
      <trkpt lat="48.21874" lon="-3.07763">
        <ele>248.300938</ele>
        <time>2022-12-12T13:58:24.810Z</time>
      </trkpt>
      <trkpt lat="48.21871" lon="-3.07748">
        <ele>248.4126</ele>
        <time>2022-12-12T13:58:27.823Z</time>
      </trkpt>
      <trkpt lat="48.21868" lon="-3.07732">
        <ele>248.531498</ele>
        <time>2022-12-12T13:58:30.829Z</time>
      </trkpt>
      <trkpt lat="48.21865" lon="-3.07716">
        <ele>248.646452</ele>
        <time>2022-12-12T13:58:33.816Z</time>
      </trkpt>
      <trkpt lat="48.21862" lon="-3.07698">
        <ele>248.778984</ele>
        <time>2022-12-12T13:58:36.799Z</time>
      </trkpt>
      <trkpt lat="48.21858" lon="-3.07681">
        <ele>248.905422</ele>
        <time>2022-12-12T13:58:39.813Z</time>
      </trkpt>
      <trkpt lat="48.21856" lon="-3.07666">
        <ele>249.01026</ele>
        <time>2022-12-12T13:58:42.821Z</time>
      </trkpt>
      <trkpt lat="48.21854" lon="-3.07652">
        <ele>249.116278</ele>
        <time>2022-12-12T13:58:45.805Z</time>
      </trkpt>
      <trkpt lat="48.21851" lon="-3.07638">
        <ele>249.221422</ele>
        <time>2022-12-12T13:58:48.797Z</time>
      </trkpt>
      <trkpt lat="48.21849" lon="-3.07622">
        <ele>249.303743</ele>
        <time>2022-12-12T13:58:51.802Z</time>
      </trkpt>
      <trkpt lat="48.21847" lon="-3.07606">
        <ele>249.273442</ele>
        <time>2022-12-12T13:58:54.812Z</time>
      </trkpt>
      <trkpt lat="48.21846" lon="-3.07589">
        <ele>249.239599</ele>
        <time>2022-12-12T13:58:57.813Z</time>
      </trkpt>
      <trkpt lat="48.21845" lon="-3.07572">
        <ele>249.206571</ele>
        <time>2022-12-12T13:59:00.813Z</time>
      </trkpt>
      <trkpt lat="48.21844" lon="-3.07555">
        <ele>249.174788</ele>
        <time>2022-12-12T13:59:03.815Z</time>
      </trkpt>
      <trkpt lat="48.21843" lon="-3.07537">
        <ele>249.140401</ele>
        <time>2022-12-12T13:59:07.824Z</time>
      </trkpt>
      <trkpt lat="48.21842" lon="-3.07521">
        <ele>249.109937</ele>
        <time>2022-12-12T13:59:10.811Z</time>
      </trkpt>
      <trkpt lat="48.21843" lon="-3.07505">
        <ele>249.07831</ele>
        <time>2022-12-12T13:59:13.813Z</time>
      </trkpt>
      <trkpt lat="48.21843" lon="-3.07488">
        <ele>249.046161</ele>
        <time>2022-12-12T13:59:16.809Z</time>
      </trkpt>
      <trkpt lat="48.21843" lon="-3.07471">
        <ele>249.012871</ele>
        <time>2022-12-12T13:59:19.819Z</time>
      </trkpt>
      <trkpt lat="48.21844" lon="-3.07455">
        <ele>248.982941</ele>
        <time>2022-12-12T13:59:22.814Z</time>
      </trkpt>
      <trkpt lat="48.21845" lon="-3.07439">
        <ele>248.952932</ele>
        <time>2022-12-12T13:59:25.822Z</time>
      </trkpt>
      <trkpt lat="48.21846" lon="-3.07423">
        <ele>248.922001</ele>
        <time>2022-12-12T13:59:28.824Z</time>
      </trkpt>
      <trkpt lat="48.21847" lon="-3.07406">
        <ele>248.888854</ele>
        <time>2022-12-12T13:59:31.811Z</time>
      </trkpt>
      <trkpt lat="48.21848" lon="-3.07388">
        <ele>248.853581</ele>
        <time>2022-12-12T13:59:34.801Z</time>
      </trkpt>
      <trkpt lat="48.21849" lon="-3.0737">
        <ele>248.818881</ele>
        <time>2022-12-12T13:59:37.820Z</time>
      </trkpt>
      <trkpt lat="48.2185" lon="-3.07353">
        <ele>248.799788</ele>
        <time>2022-12-12T13:59:40.812Z</time>
      </trkpt>
      <trkpt lat="48.21851" lon="-3.07338">
        <ele>248.82325</ele>
        <time>2022-12-12T13:59:43.825Z</time>
      </trkpt>
      <trkpt lat="48.21852" lon="-3.07322">
        <ele>248.848744</ele>
        <time>2022-12-12T13:59:46.818Z</time>
      </trkpt>
      <trkpt lat="48.21853" lon="-3.07304">
        <ele>248.878235</ele>
        <time>2022-12-12T13:59:49.825Z</time>
      </trkpt>
      <trkpt lat="48.21854" lon="-3.07288">
        <ele>248.903916</ele>
        <time>2022-12-12T13:59:52.821Z</time>
      </trkpt>
      <trkpt lat="48.21855" lon="-3.07272">
        <ele>248.930511</ele>
        <time>2022-12-12T13:59:55.812Z</time>
      </trkpt>
      <trkpt lat="48.21856" lon="-3.07256">
        <ele>248.955745</ele>
        <time>2022-12-12T13:59:58.815Z</time>
      </trkpt>
      <trkpt lat="48.21857" lon="-3.07242">
        <ele>248.979906</ele>
        <time>2022-12-12T14:00:01.818Z</time>
      </trkpt>
      <trkpt lat="48.21858" lon="-3.07225">
        <ele>249.006823</ele>
        <time>2022-12-12T14:00:04.800Z</time>
      </trkpt>
      <trkpt lat="48.21858" lon="-3.07209">
        <ele>249.033056</ele>
        <time>2022-12-12T14:00:07.816Z</time>
      </trkpt>
      <trkpt lat="48.21859" lon="-3.07193">
        <ele>249.058254</ele>
        <time>2022-12-12T14:00:10.822Z</time>
      </trkpt>
      <trkpt lat="48.21857" lon="-3.07177">
        <ele>249.084027</ele>
        <time>2022-12-12T14:00:13.795Z</time>
      </trkpt>
      <trkpt lat="48.21857" lon="-3.07161">
        <ele>249.111013</ele>
        <time>2022-12-12T14:00:16.799Z</time>
      </trkpt>
      <trkpt lat="48.21858" lon="-3.07143">
        <ele>249.139117</ele>
        <time>2022-12-12T14:00:19.811Z</time>
      </trkpt>
      <trkpt lat="48.21856" lon="-3.07128">
        <ele>249.163457</ele>
        <time>2022-12-12T14:00:22.806Z</time>
      </trkpt>
      <trkpt lat="48.21853" lon="-3.07112">
        <ele>249.191327</ele>
        <time>2022-12-12T14:00:26.814Z</time>
      </trkpt>
      <trkpt lat="48.21851" lon="-3.07094">
        <ele>249.220142</ele>
        <time>2022-12-12T14:00:29.795Z</time>
      </trkpt>
      <trkpt lat="48.2185" lon="-3.07076">
        <ele>249.116138</ele>
        <time>2022-12-12T14:00:32.805Z</time>
      </trkpt>
      <trkpt lat="48.21849" lon="-3.07061">
        <ele>248.972414</ele>
        <time>2022-12-12T14:00:35.804Z</time>
      </trkpt>
      <trkpt lat="48.21847" lon="-3.07044">
        <ele>248.809222</ele>
        <time>2022-12-12T14:00:39.815Z</time>
      </trkpt>
      <trkpt lat="48.21844" lon="-3.0703">
        <ele>248.666212</ele>
        <time>2022-12-12T14:00:42.794Z</time>
      </trkpt>
      <trkpt lat="48.2184" lon="-3.07014">
        <ele>248.506096</ele>
        <time>2022-12-12T14:00:45.806Z</time>
      </trkpt>
      <trkpt lat="48.21836" lon="-3.06998">
        <ele>248.34358</ele>
        <time>2022-12-12T14:00:48.824Z</time>
      </trkpt>
      <trkpt lat="48.21832" lon="-3.06982">
        <ele>248.176072</ele>
        <time>2022-12-12T14:00:51.810Z</time>
      </trkpt>
      <trkpt lat="48.21827" lon="-3.06966">
        <ele>248.014625</ele>
        <time>2022-12-12T14:00:54.821Z</time>
      </trkpt>
      <trkpt lat="48.21823" lon="-3.06953">
        <ele>247.878304</ele>
        <time>2022-12-12T14:00:57.817Z</time>
      </trkpt>
      <trkpt lat="48.21819" lon="-3.06941">
        <ele>247.7498</ele>
        <time>2022-12-12T14:01:00.821Z</time>
      </trkpt>
      <trkpt lat="48.21814" lon="-3.06928">
        <ele>247.608067</ele>
        <time>2022-12-12T14:01:03.810Z</time>
      </trkpt>
      <trkpt lat="48.21809" lon="-3.06915">
        <ele>247.459603</ele>
        <time>2022-12-12T14:01:06.815Z</time>
      </trkpt>
      <trkpt lat="48.21803" lon="-3.06901">
        <ele>247.307283</ele>
        <time>2022-12-12T14:01:09.815Z</time>
      </trkpt>
      <trkpt lat="48.21797" lon="-3.06887">
        <ele>247.150188</ele>
        <time>2022-12-12T14:01:12.811Z</time>
      </trkpt>
      <trkpt lat="48.21791" lon="-3.06873">
        <ele>246.993899</ele>
        <time>2022-12-12T14:01:15.817Z</time>
      </trkpt>
      <trkpt lat="48.21786" lon="-3.06861">
        <ele>246.854121</ele>
        <time>2022-12-12T14:01:18.807Z</time>
      </trkpt>
      <trkpt lat="48.21778" lon="-3.06848">
        <ele>246.692525</ele>
        <time>2022-12-12T14:01:22.801Z</time>
      </trkpt>
      <trkpt lat="48.21772" lon="-3.06838">
        <ele>246.755202</ele>
        <time>2022-12-12T14:01:25.794Z</time>
      </trkpt>
      <trkpt lat="48.21765" lon="-3.06827">
        <ele>246.863826</ele>
        <time>2022-12-12T14:01:28.824Z</time>
      </trkpt>
      <trkpt lat="48.21758" lon="-3.06815">
        <ele>246.98333</ele>
        <time>2022-12-12T14:01:31.810Z</time>
      </trkpt>
      <trkpt lat="48.2175" lon="-3.06804">
        <ele>247.105331</ele>
        <time>2022-12-12T14:01:34.807Z</time>
      </trkpt>
      <trkpt lat="48.21744" lon="-3.06794">
        <ele>247.210263</ele>
        <time>2022-12-12T14:01:37.817Z</time>
      </trkpt>
      <trkpt lat="48.21736" lon="-3.06785">
        <ele>247.315149</ele>
        <time>2022-12-12T14:01:40.800Z</time>
      </trkpt>
      <trkpt lat="48.21729" lon="-3.06774">
        <ele>247.434575</ele>
        <time>2022-12-12T14:01:43.820Z</time>
      </trkpt>
      <trkpt lat="48.21721" lon="-3.06763">
        <ele>247.554312</ele>
        <time>2022-12-12T14:01:46.811Z</time>
      </trkpt>
      <trkpt lat="48.21713" lon="-3.06752">
        <ele>247.675207</ele>
        <time>2022-12-12T14:01:49.823Z</time>
      </trkpt>
      <trkpt lat="48.21705" lon="-3.06742">
        <ele>247.789803</ele>
        <time>2022-12-12T14:01:52.824Z</time>
      </trkpt>
      <trkpt lat="48.21697" lon="-3.06732">
        <ele>247.905887</ele>
        <time>2022-12-12T14:01:55.811Z</time>
      </trkpt>
      <trkpt lat="48.21689" lon="-3.06721">
        <ele>248.030531</ele>
        <time>2022-12-12T14:01:58.824Z</time>
      </trkpt>
      <trkpt lat="48.21681" lon="-3.0671">
        <ele>248.150444</ele>
        <time>2022-12-12T14:02:01.816Z</time>
      </trkpt>
      <trkpt lat="48.21674" lon="-3.06701">
        <ele>248.252809</ele>
        <time>2022-12-12T14:02:04.822Z</time>
      </trkpt>
      <trkpt lat="48.21665" lon="-3.06689">
        <ele>248.384851</ele>
        <time>2022-12-12T14:02:08.815Z</time>
      </trkpt>
      <trkpt lat="48.21658" lon="-3.06679">
        <ele>248.489496</ele>
        <time>2022-12-12T14:02:11.825Z</time>
      </trkpt>
      <trkpt lat="48.2165" lon="-3.06669">
        <ele>248.607591</ele>
        <time>2022-12-12T14:02:14.808Z</time>
      </trkpt>
      <trkpt lat="48.21642" lon="-3.06657">
        <ele>248.676733</ele>
        <time>2022-12-12T14:02:17.815Z</time>
      </trkpt>
      <trkpt lat="48.21635" lon="-3.06646">
        <ele>248.675599</ele>
        <time>2022-12-12T14:02:20.818Z</time>
      </trkpt>
      <trkpt lat="48.21626" lon="-3.06635">
        <ele>248.674415</ele>
        <time>2022-12-12T14:02:23.825Z</time>
      </trkpt>
      <trkpt lat="48.21618" lon="-3.06624">
        <ele>248.673201</ele>
        <time>2022-12-12T14:02:26.824Z</time>
      </trkpt>
      <trkpt lat="48.2161" lon="-3.06614">
        <ele>248.67207</ele>
        <time>2022-12-12T14:02:29.823Z</time>
      </trkpt>
      <trkpt lat="48.21601" lon="-3.06602">
        <ele>248.670801</ele>
        <time>2022-12-12T14:02:33.823Z</time>
      </trkpt>
      <trkpt lat="48.21594" lon="-3.06593">
        <ele>248.669804</ele>
        <time>2022-12-12T14:02:36.818Z</time>
      </trkpt>
      <trkpt lat="48.21586" lon="-3.06581">
        <ele>248.668658</ele>
        <time>2022-12-12T14:02:39.799Z</time>
      </trkpt>
      <trkpt lat="48.2158" lon="-3.06568">
        <ele>248.667508</ele>
        <time>2022-12-12T14:02:42.816Z</time>
      </trkpt>
      <trkpt lat="48.21572" lon="-3.06556">
        <ele>248.666322</ele>
        <time>2022-12-12T14:02:45.823Z</time>
      </trkpt>
      <trkpt lat="48.21565" lon="-3.06545">
        <ele>248.665216</ele>
        <time>2022-12-12T14:02:48.814Z</time>
      </trkpt>
      <trkpt lat="48.21559" lon="-3.06534">
        <ele>248.664228</ele>
        <time>2022-12-12T14:02:51.823Z</time>
      </trkpt>
      <trkpt lat="48.21553" lon="-3.06521">
        <ele>248.663045</ele>
        <time>2022-12-12T14:02:55.825Z</time>
      </trkpt>
      <trkpt lat="48.21547" lon="-3.06507">
        <ele>248.661927</ele>
        <time>2022-12-12T14:02:59.817Z</time>
      </trkpt>
      <trkpt lat="48.21542" lon="-3.06494">
        <ele>248.660856</ele>
        <time>2022-12-12T14:03:03.805Z</time>
      </trkpt>
      <trkpt lat="48.21537" lon="-3.06477">
        <ele>248.659554</ele>
        <time>2022-12-12T14:03:07.816Z</time>
      </trkpt>
      <trkpt lat="48.21534" lon="-3.06462">
        <ele>248.658414</ele>
        <time>2022-12-12T14:03:10.825Z</time>
      </trkpt>
      <trkpt lat="48.21529" lon="-3.06448">
        <ele>248.584554</ele>
        <time>2022-12-12T14:03:13.816Z</time>
      </trkpt>
      <trkpt lat="48.21525" lon="-3.06432">
        <ele>248.474631</ele>
        <time>2022-12-12T14:03:16.810Z</time>
      </trkpt>
      <trkpt lat="48.21522" lon="-3.06417">
        <ele>248.365534</ele>
        <time>2022-12-12T14:03:19.813Z</time>
      </trkpt>
      <trkpt lat="48.2152" lon="-3.064">
        <ele>248.251212</ele>
        <time>2022-12-12T14:03:22.804Z</time>
      </trkpt>
      <trkpt lat="48.21517" lon="-3.06383">
        <ele>248.134729</ele>
        <time>2022-12-12T14:03:25.810Z</time>
      </trkpt>
      <trkpt lat="48.21515" lon="-3.06368">
        <ele>248.030603</ele>
        <time>2022-12-12T14:03:28.824Z</time>
      </trkpt>
      <trkpt lat="48.21514" lon="-3.06353">
        <ele>247.934262</ele>
        <time>2022-12-12T14:03:31.813Z</time>
      </trkpt>
      <trkpt lat="48.21512" lon="-3.06338">
        <ele>247.829587</ele>
        <time>2022-12-12T14:03:34.824Z</time>
      </trkpt>
      <trkpt lat="48.21512" lon="-3.06321">
        <ele>247.716201</ele>
        <time>2022-12-12T14:03:37.823Z</time>
      </trkpt>
      <trkpt lat="48.21512" lon="-3.06304">
        <ele>247.602179</ele>
        <time>2022-12-12T14:03:40.820Z</time>
      </trkpt>
      <trkpt lat="48.21511" lon="-3.06288">
        <ele>247.499353</ele>
        <time>2022-12-12T14:03:43.818Z</time>
      </trkpt>
      <trkpt lat="48.21512" lon="-3.06271">
        <ele>247.386419</ele>
        <time>2022-12-12T14:03:46.823Z</time>
      </trkpt>
      <trkpt lat="48.21513" lon="-3.06253">
        <ele>247.263364</ele>
        <time>2022-12-12T14:03:49.815Z</time>
      </trkpt>
      <trkpt lat="48.21515" lon="-3.06237">
        <ele>247.153814</ele>
        <time>2022-12-12T14:03:52.798Z</time>
      </trkpt>
      <trkpt lat="48.21517" lon="-3.06222">
        <ele>247.050567</ele>
        <time>2022-12-12T14:03:55.822Z</time>
      </trkpt>
      <trkpt lat="48.21519" lon="-3.06204">
        <ele>246.932958</ele>
        <time>2022-12-12T14:03:58.813Z</time>
      </trkpt>
      <trkpt lat="48.21522" lon="-3.06187">
        <ele>246.878228</ele>
        <time>2022-12-12T14:04:01.796Z</time>
      </trkpt>
      <trkpt lat="48.21526" lon="-3.06168">
        <ele>246.935484</ele>
        <time>2022-12-12T14:04:04.815Z</time>
      </trkpt>
      <trkpt lat="48.21527" lon="-3.06155">
        <ele>246.97608</ele>
        <time>2022-12-12T14:04:07.795Z</time>
      </trkpt>
      <trkpt lat="48.21532" lon="-3.06139">
        <ele>247.024793</ele>
        <time>2022-12-12T14:04:10.814Z</time>
      </trkpt>
      <trkpt lat="48.21537" lon="-3.06124">
        <ele>247.075173</ele>
        <time>2022-12-12T14:04:13.815Z</time>
      </trkpt>
      <trkpt lat="48.21543" lon="-3.06108">
        <ele>247.128792</ele>
        <time>2022-12-12T14:04:16.802Z</time>
      </trkpt>
      <trkpt lat="48.21549" lon="-3.06093">
        <ele>247.179382</ele>
        <time>2022-12-12T14:04:19.797Z</time>
      </trkpt>
      <trkpt lat="48.21553" lon="-3.06078">
        <ele>247.22785</ele>
        <time>2022-12-12T14:04:23.817Z</time>
      </trkpt>
      <trkpt lat="48.21558" lon="-3.06064">
        <ele>247.27058</ele>
        <time>2022-12-12T14:04:26.816Z</time>
      </trkpt>
      <trkpt lat="48.21566" lon="-3.0605">
        <ele>247.325753</ele>
        <time>2022-12-12T14:04:29.798Z</time>
      </trkpt>
      <trkpt lat="48.21575" lon="-3.06036">
        <ele>247.382155</ele>
        <time>2022-12-12T14:04:32.800Z</time>
      </trkpt>
      <trkpt lat="48.21581" lon="-3.06025">
        <ele>247.424288</ele>
        <time>2022-12-12T14:04:35.799Z</time>
      </trkpt>
      <trkpt lat="48.21588" lon="-3.06012">
        <ele>247.47154</ele>
        <time>2022-12-12T14:04:38.819Z</time>
      </trkpt>
      <trkpt lat="48.21595" lon="-3.05996">
        <ele>247.528568</ele>
        <time>2022-12-12T14:04:41.802Z</time>
      </trkpt>
      <trkpt lat="48.21601" lon="-3.05981">
        <ele>247.581167</ele>
        <time>2022-12-12T14:04:44.797Z</time>
      </trkpt>
      <trkpt lat="48.21608" lon="-3.05967">
        <ele>247.627956</ele>
        <time>2022-12-12T14:04:47.817Z</time>
      </trkpt>
      <trkpt lat="48.21616" lon="-3.05955">
        <ele>247.424099</ele>
        <time>2022-12-12T14:04:50.803Z</time>
      </trkpt>
      <trkpt lat="48.21621" lon="-3.05942">
        <ele>247.136266</ele>
        <time>2022-12-12T14:04:53.796Z</time>
      </trkpt>
      <trkpt lat="48.21627" lon="-3.05929">
        <ele>246.840499</ele>
        <time>2022-12-12T14:04:56.822Z</time>
      </trkpt>
      <trkpt lat="48.21633" lon="-3.05915">
        <ele>246.518304</ele>
        <time>2022-12-12T14:05:00.790Z</time>
      </trkpt>
      <trkpt lat="48.21638" lon="-3.05901">
        <ele>246.232933</ele>
        <time>2022-12-12T14:05:03.797Z</time>
      </trkpt>
      <trkpt lat="48.21645" lon="-3.05887">
        <ele>245.901219</ele>
        <time>2022-12-12T14:05:06.826Z</time>
      </trkpt>
      <trkpt lat="48.21652" lon="-3.05875">
        <ele>245.599389</ele>
        <time>2022-12-12T14:05:09.821Z</time>
      </trkpt>
      <trkpt lat="48.21658" lon="-3.05863">
        <ele>245.331519</ele>
        <time>2022-12-12T14:05:12.823Z</time>
      </trkpt>
      <trkpt lat="48.21663" lon="-3.0585">
        <ele>245.046149</ele>
        <time>2022-12-12T14:05:15.797Z</time>
      </trkpt>
      <trkpt lat="48.21668" lon="-3.05836">
        <ele>244.739079</ele>
        <time>2022-12-12T14:05:18.812Z</time>
      </trkpt>
      <trkpt lat="48.21672" lon="-3.05822">
        <ele>244.458442</ele>
        <time>2022-12-12T14:05:21.799Z</time>
      </trkpt>
      <trkpt lat="48.21676" lon="-3.05807">
        <ele>244.158798</ele>
        <time>2022-12-12T14:05:24.813Z</time>
      </trkpt>
      <trkpt lat="48.21679" lon="-3.05792">
        <ele>243.858186</ele>
        <time>2022-12-12T14:05:27.804Z</time>
      </trkpt>
      <trkpt lat="48.21684" lon="-3.05778">
        <ele>243.564477</ele>
        <time>2022-12-12T14:05:30.813Z</time>
      </trkpt>
      <trkpt lat="48.21687" lon="-3.05762">
        <ele>243.255836</ele>
        <time>2022-12-12T14:05:33.812Z</time>
      </trkpt>
      <trkpt lat="48.2169" lon="-3.05747">
        <ele>242.951269</ele>
        <time>2022-12-12T14:05:37.824Z</time>
      </trkpt>
      <trkpt lat="48.21692" lon="-3.05733">
        <ele>242.684306</ele>
        <time>2022-12-12T14:05:40.820Z</time>
      </trkpt>
      <trkpt lat="48.21696" lon="-3.05718">
        <ele>242.376338</ele>
        <time>2022-12-12T14:05:43.822Z</time>
      </trkpt>
      <trkpt lat="48.217" lon="-3.05703">
        <ele>242.053054</ele>
        <time>2022-12-12T14:05:46.821Z</time>
      </trkpt>
      <trkpt lat="48.21703" lon="-3.05688">
        <ele>241.740398</ele>
        <time>2022-12-12T14:05:49.825Z</time>
      </trkpt>
      <trkpt lat="48.21705" lon="-3.05675">
        <ele>241.465037</ele>
        <time>2022-12-12T14:05:53.816Z</time>
      </trkpt>
      <trkpt lat="48.21708" lon="-3.05661">
        <ele>241.162847</ele>
        <time>2022-12-12T14:05:56.824Z</time>
      </trkpt>
      <trkpt lat="48.21708" lon="-3.05646">
        <ele>240.865442</ele>
        <time>2022-12-12T14:05:59.808Z</time>
      </trkpt>
      <trkpt lat="48.21708" lon="-3.05631">
        <ele>240.564019</ele>
        <time>2022-12-12T14:06:02.814Z</time>
      </trkpt>
      <trkpt lat="48.21709" lon="-3.05616">
        <ele>240.2685</ele>
        <time>2022-12-12T14:06:05.815Z</time>
      </trkpt>
      <trkpt lat="48.21712" lon="-3.05602">
        <ele>239.961496</ele>
        <time>2022-12-12T14:06:08.817Z</time>
      </trkpt>
      <trkpt lat="48.21713" lon="-3.05587">
        <ele>239.674241</ele>
        <time>2022-12-12T14:06:11.816Z</time>
      </trkpt>
      <trkpt lat="48.21714" lon="-3.05573">
        <ele>239.386623</ele>
        <time>2022-12-12T14:06:14.825Z</time>
      </trkpt>
      <trkpt lat="48.21716" lon="-3.05558">
        <ele>239.08432</ele>
        <time>2022-12-12T14:06:17.817Z</time>
      </trkpt>
      <trkpt lat="48.21718" lon="-3.05542">
        <ele>238.739015</ele>
        <time>2022-12-12T14:06:20.815Z</time>
      </trkpt>
      <trkpt lat="48.2172" lon="-3.05526">
        <ele>238.425103</ele>
        <time>2022-12-12T14:06:23.817Z</time>
      </trkpt>
      <trkpt lat="48.21721" lon="-3.05512">
        <ele>238.128188</ele>
        <time>2022-12-12T14:06:26.818Z</time>
      </trkpt>
      <trkpt lat="48.21722" lon="-3.05497">
        <ele>237.840175</ele>
        <time>2022-12-12T14:06:29.813Z</time>
      </trkpt>
      <trkpt lat="48.21724" lon="-3.05482">
        <ele>237.520422</ele>
        <time>2022-12-12T14:06:32.822Z</time>
      </trkpt>
      <trkpt lat="48.21728" lon="-3.05467">
        <ele>237.207752</ele>
        <time>2022-12-12T14:06:35.798Z</time>
      </trkpt>
      <trkpt lat="48.21729" lon="-3.05453">
        <ele>236.834931</ele>
        <time>2022-12-12T14:06:38.815Z</time>
      </trkpt>
      <trkpt lat="48.21731" lon="-3.05438">
        <ele>236.405341</ele>
        <time>2022-12-12T14:06:42.810Z</time>
      </trkpt>
      <trkpt lat="48.21731" lon="-3.0542">
        <ele>235.904484</ele>
        <time>2022-12-12T14:06:46.798Z</time>
      </trkpt>
      <trkpt lat="48.2173" lon="-3.05403">
        <ele>235.436251</ele>
        <time>2022-12-12T14:06:50.819Z</time>
      </trkpt>
      <trkpt lat="48.2173" lon="-3.05389">
        <ele>235.060633</ele>
        <time>2022-12-12T14:06:54.823Z</time>
      </trkpt>
      <trkpt lat="48.21728" lon="-3.05375">
        <ele>234.658517</ele>
        <time>2022-12-12T14:06:58.824Z</time>
      </trkpt>
      <trkpt lat="48.21724" lon="-3.05361">
        <ele>234.245433</ele>
        <time>2022-12-12T14:07:02.809Z</time>
      </trkpt>
      <trkpt lat="48.21722" lon="-3.05346">
        <ele>233.805164</ele>
        <time>2022-12-12T14:07:05.814Z</time>
      </trkpt>
      <trkpt lat="48.21719" lon="-3.05332">
        <ele>233.412164</ele>
        <time>2022-12-12T14:07:08.817Z</time>
      </trkpt>
      <trkpt lat="48.21715" lon="-3.05317">
        <ele>232.957568</ele>
        <time>2022-12-12T14:07:12.826Z</time>
      </trkpt>
      <trkpt lat="48.2171" lon="-3.05301">
        <ele>232.453047</ele>
        <time>2022-12-12T14:07:16.814Z</time>
      </trkpt>
      <trkpt lat="48.21706" lon="-3.05287">
        <ele>232.036081</ele>
        <time>2022-12-12T14:07:19.823Z</time>
      </trkpt>
      <trkpt lat="48.21701" lon="-3.05272">
        <ele>231.581851</ele>
        <time>2022-12-12T14:07:22.822Z</time>
      </trkpt>
      <trkpt lat="48.21698" lon="-3.05259">
        <ele>231.164877</ele>
        <time>2022-12-12T14:07:25.818Z</time>
      </trkpt>
      <trkpt lat="48.21695" lon="-3.05242">
        <ele>230.689653</ele>
        <time>2022-12-12T14:07:28.817Z</time>
      </trkpt>
      <trkpt lat="48.21691" lon="-3.05226">
        <ele>230.207892</ele>
        <time>2022-12-12T14:07:31.799Z</time>
      </trkpt>
      <trkpt lat="48.21687" lon="-3.05211">
        <ele>229.771183</ele>
        <time>2022-12-12T14:07:34.815Z</time>
      </trkpt>
      <trkpt lat="48.21683" lon="-3.05199">
        <ele>229.627602</ele>
        <time>2022-12-12T14:07:37.814Z</time>
      </trkpt>
      <trkpt lat="48.21678" lon="-3.05184">
        <ele>229.608213</ele>
        <time>2022-12-12T14:07:40.819Z</time>
      </trkpt>
      <trkpt lat="48.21674" lon="-3.05168">
        <ele>229.588317</ele>
        <time>2022-12-12T14:07:43.801Z</time>
      </trkpt>
      <trkpt lat="48.21669" lon="-3.05153">
        <ele>229.5678</ele>
        <time>2022-12-12T14:07:46.822Z</time>
      </trkpt>
      <trkpt lat="48.21665" lon="-3.0514">
        <ele>229.551237</ele>
        <time>2022-12-12T14:07:48.826Z</time>
      </trkpt>
      <trkpt lat="48.2166" lon="-3.05122">
        <ele>229.527644</ele>
        <time>2022-12-12T14:07:51.815Z</time>
      </trkpt>
      <trkpt lat="48.21654" lon="-3.05105">
        <ele>229.505668</ele>
        <time>2022-12-12T14:07:54.821Z</time>
      </trkpt>
      <trkpt lat="48.21649" lon="-3.05089">
        <ele>229.484197</ele>
        <time>2022-12-12T14:07:57.821Z</time>
      </trkpt>
      <trkpt lat="48.21644" lon="-3.05073">
        <ele>229.462996</ele>
        <time>2022-12-12T14:08:00.820Z</time>
      </trkpt>
      <trkpt lat="48.21639" lon="-3.05056">
        <ele>229.441282</ele>
        <time>2022-12-12T14:08:03.812Z</time>
      </trkpt>
      <trkpt lat="48.21634" lon="-3.0504">
        <ele>229.420332</ele>
        <time>2022-12-12T14:08:06.826Z</time>
      </trkpt>
      <trkpt lat="48.21629" lon="-3.05025">
        <ele>229.39963</ele>
        <time>2022-12-12T14:08:09.806Z</time>
      </trkpt>
      <trkpt lat="48.21625" lon="-3.05008">
        <ele>229.377665</ele>
        <time>2022-12-12T14:08:12.816Z</time>
      </trkpt>
      <trkpt lat="48.21619" lon="-3.0499">
        <ele>229.355152</ele>
        <time>2022-12-12T14:08:15.822Z</time>
      </trkpt>
      <trkpt lat="48.21614" lon="-3.04973">
        <ele>229.333187</ele>
        <time>2022-12-12T14:08:18.821Z</time>
      </trkpt>
      <trkpt lat="48.21609" lon="-3.04955">
        <ele>229.190596</ele>
        <time>2022-12-12T14:08:21.805Z</time>
      </trkpt>
      <trkpt lat="48.21604" lon="-3.04938">
        <ele>228.822537</ele>
        <time>2022-12-12T14:08:24.820Z</time>
      </trkpt>
      <trkpt lat="48.21599" lon="-3.04921">
        <ele>228.458465</ele>
        <time>2022-12-12T14:08:27.822Z</time>
      </trkpt>
      <trkpt lat="48.21594" lon="-3.04904">
        <ele>228.099878</ele>
        <time>2022-12-12T14:08:30.815Z</time>
      </trkpt>
      <trkpt lat="48.21588" lon="-3.04887">
        <ele>227.718771</ele>
        <time>2022-12-12T14:08:33.810Z</time>
      </trkpt>
      <trkpt lat="48.21583" lon="-3.0487">
        <ele>227.370224</ele>
        <time>2022-12-12T14:08:36.821Z</time>
      </trkpt>
      <trkpt lat="48.21578" lon="-3.04854">
        <ele>227.01918</ele>
        <time>2022-12-12T14:08:39.812Z</time>
      </trkpt>
      <trkpt lat="48.21573" lon="-3.04837">
        <ele>226.655846</ele>
        <time>2022-12-12T14:08:42.823Z</time>
      </trkpt>
      <trkpt lat="48.21568" lon="-3.04821">
        <ele>226.309698</ele>
        <time>2022-12-12T14:08:45.826Z</time>
      </trkpt>
      <trkpt lat="48.21563" lon="-3.04808">
        <ele>226.025149</ele>
        <time>2022-12-12T14:08:48.825Z</time>
      </trkpt>
      <trkpt lat="48.21558" lon="-3.04794">
        <ele>225.720331</ele>
        <time>2022-12-12T14:08:52.804Z</time>
      </trkpt>
      <trkpt lat="48.21555" lon="-3.04781">
        <ele>225.448302</ele>
        <time>2022-12-12T14:08:55.813Z</time>
      </trkpt>
      <trkpt lat="48.21552" lon="-3.04768">
        <ele>225.169983</ele>
        <time>2022-12-12T14:08:58.816Z</time>
      </trkpt>
      <trkpt lat="48.21548" lon="-3.04755">
        <ele>224.898719</ele>
        <time>2022-12-12T14:09:01.823Z</time>
      </trkpt>
      <trkpt lat="48.21544" lon="-3.04742">
        <ele>224.634614</ele>
        <time>2022-12-12T14:09:04.820Z</time>
      </trkpt>
      <trkpt lat="48.2154" lon="-3.0473">
        <ele>224.361736</ele>
        <time>2022-12-12T14:09:07.820Z</time>
      </trkpt>
      <trkpt lat="48.21536" lon="-3.04717">
        <ele>224.079361</ele>
        <time>2022-12-12T14:09:10.826Z</time>
      </trkpt>
      <trkpt lat="48.21532" lon="-3.04702">
        <ele>224.065113</ele>
        <time>2022-12-12T14:09:13.795Z</time>
      </trkpt>
      <trkpt lat="48.21527" lon="-3.04686">
        <ele>224.054566</ele>
        <time>2022-12-12T14:09:16.818Z</time>
      </trkpt>
      <trkpt lat="48.21521" lon="-3.04666">
        <ele>224.041537</ele>
        <time>2022-12-12T14:09:19.824Z</time>
      </trkpt>
      <trkpt lat="48.21515" lon="-3.04648">
        <ele>224.030004</ele>
        <time>2022-12-12T14:09:22.821Z</time>
      </trkpt>
      <trkpt lat="48.2151" lon="-3.04631">
        <ele>224.019295</ele>
        <time>2022-12-12T14:09:25.813Z</time>
      </trkpt>
      <trkpt lat="48.21505" lon="-3.04615">
        <ele>224.008389</ele>
        <time>2022-12-12T14:09:28.810Z</time>
      </trkpt>
      <trkpt lat="48.215" lon="-3.04597">
        <ele>223.996728</ele>
        <time>2022-12-12T14:09:31.823Z</time>
      </trkpt>
      <trkpt lat="48.21496" lon="-3.04584">
        <ele>223.988683</ele>
        <time>2022-12-12T14:09:33.825Z</time>
      </trkpt>
      <trkpt lat="48.21492" lon="-3.04569">
        <ele>223.978821</ele>
        <time>2022-12-12T14:09:36.823Z</time>
      </trkpt>
      <trkpt lat="48.21488" lon="-3.04556">
        <ele>223.970614</ele>
        <time>2022-12-12T14:09:39.807Z</time>
      </trkpt>
      <trkpt lat="48.21485" lon="-3.04542">
        <ele>223.961886</ele>
        <time>2022-12-12T14:09:42.804Z</time>
      </trkpt>
      <trkpt lat="48.21483" lon="-3.04525">
        <ele>223.951673</ele>
        <time>2022-12-12T14:09:46.827Z</time>
      </trkpt>
      <trkpt lat="48.21481" lon="-3.0451">
        <ele>223.942357</ele>
        <time>2022-12-12T14:09:50.806Z</time>
      </trkpt>
      <trkpt lat="48.21478" lon="-3.04493">
        <ele>223.932051</ele>
        <time>2022-12-12T14:09:54.822Z</time>
      </trkpt>
      <trkpt lat="48.21477" lon="-3.04478">
        <ele>223.923408</ele>
        <time>2022-12-12T14:09:57.810Z</time>
      </trkpt>
      <trkpt lat="48.21476" lon="-3.04463">
        <ele>223.910189</ele>
        <time>2022-12-12T14:10:00.820Z</time>
      </trkpt>
      <trkpt lat="48.21476" lon="-3.04445">
        <ele>223.81032</ele>
        <time>2022-12-12T14:10:04.821Z</time>
      </trkpt>
      <trkpt lat="48.21477" lon="-3.04429">
        <ele>223.723858</ele>
        <time>2022-12-12T14:10:07.811Z</time>
      </trkpt>
      <trkpt lat="48.21478" lon="-3.04412">
        <ele>223.632876</ele>
        <time>2022-12-12T14:10:10.817Z</time>
      </trkpt>
      <trkpt lat="48.21481" lon="-3.04395">
        <ele>223.53291</ele>
        <time>2022-12-12T14:10:13.819Z</time>
      </trkpt>
      <trkpt lat="48.21484" lon="-3.04377">
        <ele>223.432582</ele>
        <time>2022-12-12T14:10:16.809Z</time>
      </trkpt>
      <trkpt lat="48.21486" lon="-3.04358">
        <ele>223.329776</ele>
        <time>2022-12-12T14:10:19.815Z</time>
      </trkpt>
      <trkpt lat="48.21491" lon="-3.04339">
        <ele>223.220019</ele>
        <time>2022-12-12T14:10:22.800Z</time>
      </trkpt>
      <trkpt lat="48.21495" lon="-3.04321">
        <ele>223.114137</ele>
        <time>2022-12-12T14:10:25.808Z</time>
      </trkpt>
      <trkpt lat="48.215" lon="-3.04305">
        <ele>223.014809</ele>
        <time>2022-12-12T14:10:28.813Z</time>
      </trkpt>
      <trkpt lat="48.21506" lon="-3.04289">
        <ele>222.921091</ele>
        <time>2022-12-12T14:10:31.802Z</time>
      </trkpt>
      <trkpt lat="48.2151" lon="-3.04273">
        <ele>222.826328</ele>
        <time>2022-12-12T14:10:34.823Z</time>
      </trkpt>
      <trkpt lat="48.21515" lon="-3.04257">
        <ele>222.729057</ele>
        <time>2022-12-12T14:10:37.820Z</time>
      </trkpt>
      <trkpt lat="48.21521" lon="-3.04241">
        <ele>222.630819</ele>
        <time>2022-12-12T14:10:40.814Z</time>
      </trkpt>
      <trkpt lat="48.21526" lon="-3.04224">
        <ele>222.528319</ele>
        <time>2022-12-12T14:10:43.829Z</time>
      </trkpt>
      <trkpt lat="48.21532" lon="-3.04207">
        <ele>222.436361</ele>
        <time>2022-12-12T14:10:46.811Z</time>
      </trkpt>
      <trkpt lat="48.21537" lon="-3.0419">
        <ele>222.405475</ele>
        <time>2022-12-12T14:10:49.813Z</time>
      </trkpt>
      <trkpt lat="48.21541" lon="-3.04175">
        <ele>222.378248</ele>
        <time>2022-12-12T14:10:52.823Z</time>
      </trkpt>
      <trkpt lat="48.21546" lon="-3.04161">
        <ele>222.351786</ele>
        <time>2022-12-12T14:10:55.808Z</time>
      </trkpt>
      <trkpt lat="48.21552" lon="-3.04145">
        <ele>222.321754</ele>
        <time>2022-12-12T14:10:58.812Z</time>
      </trkpt>
      <trkpt lat="48.21557" lon="-3.04128">
        <ele>222.29011</ele>
        <time>2022-12-12T14:11:01.823Z</time>
      </trkpt>
      <trkpt lat="48.2156" lon="-3.0411">
        <ele>222.259509</ele>
        <time>2022-12-12T14:11:04.816Z</time>
      </trkpt>
      <trkpt lat="48.21562" lon="-3.04094">
        <ele>222.231547</ele>
        <time>2022-12-12T14:11:07.816Z</time>
      </trkpt>
      <trkpt lat="48.21563" lon="-3.04078">
        <ele>222.204697</ele>
        <time>2022-12-12T14:11:10.823Z</time>
      </trkpt>
      <trkpt lat="48.21565" lon="-3.04062">
        <ele>222.178506</ele>
        <time>2022-12-12T14:11:13.804Z</time>
      </trkpt>
      <trkpt lat="48.21566" lon="-3.04045">
        <ele>222.150122</ele>
        <time>2022-12-12T14:11:16.823Z</time>
      </trkpt>
      <trkpt lat="48.21566" lon="-3.04027">
        <ele>222.12026</ele>
        <time>2022-12-12T14:11:19.824Z</time>
      </trkpt>
      <trkpt lat="48.21566" lon="-3.04011">
        <ele>222.093739</ele>
        <time>2022-12-12T14:11:22.821Z</time>
      </trkpt>
      <trkpt lat="48.21565" lon="-3.03994">
        <ele>222.06462</ele>
        <time>2022-12-12T14:11:26.822Z</time>
      </trkpt>
      <trkpt lat="48.21563" lon="-3.03979">
        <ele>222.039879</ele>
        <time>2022-12-12T14:11:30.809Z</time>
      </trkpt>
      <trkpt lat="48.21555" lon="-3.0397">
        <ele>222.016432</ele>
        <time>2022-12-12T14:11:37.795Z</time>
      </trkpt>
      <trkpt lat="48.21551" lon="-3.03969">
        <ele>222.004335</ele>
        <time>2022-12-12T14:12:05.958Z</time>
      </trkpt>
      <trkpt lat="48.2173" lon="-3.02612">
        <ele>211.522421</ele>
        <time>2022-12-12T14:23:37.822Z</time>
      </trkpt>
      <trkpt lat="48.21732" lon="-3.02594">
        <ele>210.850487</ele>
        <time>2022-12-12T14:23:41.802Z</time>
      </trkpt>
      <trkpt lat="48.21736" lon="-3.02579">
        <ele>210.25185</ele>
        <time>2022-12-12T14:23:44.828Z</time>
      </trkpt>
      <trkpt lat="48.2174" lon="-3.02563">
        <ele>209.576321</ele>
        <time>2022-12-12T14:23:47.824Z</time>
      </trkpt>
      <trkpt lat="48.2174" lon="-3.02546">
        <ele>208.954595</ele>
        <time>2022-12-12T14:23:50.810Z</time>
      </trkpt>
      <trkpt lat="48.21738" lon="-3.02528">
        <ele>208.273554</ele>
        <time>2022-12-12T14:23:53.817Z</time>
      </trkpt>
      <trkpt lat="48.21737" lon="-3.0251">
        <ele>207.588963</ele>
        <time>2022-12-12T14:23:56.826Z</time>
      </trkpt>
      <trkpt lat="48.21736" lon="-3.02493">
        <ele>206.944432</ele>
        <time>2022-12-12T14:23:59.808Z</time>
      </trkpt>
      <trkpt lat="48.21733" lon="-3.02476">
        <ele>206.294728</ele>
        <time>2022-12-12T14:24:02.823Z</time>
      </trkpt>
      <trkpt lat="48.21731" lon="-3.02461">
        <ele>205.691278</ele>
        <time>2022-12-12T14:24:05.824Z</time>
      </trkpt>
      <trkpt lat="48.21728" lon="-3.02444">
        <ele>205.057954</ele>
        <time>2022-12-12T14:24:09.819Z</time>
      </trkpt>
      <trkpt lat="48.21724" lon="-3.02431">
        <ele>204.498253</ele>
        <time>2022-12-12T14:24:12.824Z</time>
      </trkpt>
      <trkpt lat="48.21719" lon="-3.02416">
        <ele>203.885191</ele>
        <time>2022-12-12T14:24:15.821Z</time>
      </trkpt>
      <trkpt lat="48.21712" lon="-3.02401">
        <ele>203.211219</ele>
        <time>2022-12-12T14:24:19.820Z</time>
      </trkpt>
      <trkpt lat="48.21705" lon="-3.02384">
        <ele>202.440113</ele>
        <time>2022-12-12T14:24:22.835Z</time>
      </trkpt>
      <trkpt lat="48.21696" lon="-3.02369">
        <ele>202.08041</ele>
        <time>2022-12-12T14:24:25.808Z</time>
      </trkpt>
      <trkpt lat="48.21688" lon="-3.02356">
        <ele>201.810293</ele>
        <time>2022-12-12T14:24:28.824Z</time>
      </trkpt>
      <trkpt lat="48.21679" lon="-3.02341">
        <ele>201.516486</ele>
        <time>2022-12-12T14:24:31.826Z</time>
      </trkpt>
      <trkpt lat="48.21671" lon="-3.02328">
        <ele>201.230168</ele>
        <time>2022-12-12T14:24:34.833Z</time>
      </trkpt>
      <trkpt lat="48.21663" lon="-3.02315">
        <ele>200.975814</ele>
        <time>2022-12-12T14:24:37.829Z</time>
      </trkpt>
      <trkpt lat="48.21655" lon="-3.02302">
        <ele>200.700137</ele>
        <time>2022-12-12T14:24:40.816Z</time>
      </trkpt>
      <trkpt lat="48.21645" lon="-3.02288">
        <ele>200.405857</ele>
        <time>2022-12-12T14:24:43.818Z</time>
      </trkpt>
      <trkpt lat="48.21639" lon="-3.02278">
        <ele>200.202638</ele>
        <time>2022-12-12T14:24:45.822Z</time>
      </trkpt>
      <trkpt lat="48.21631" lon="-3.02265">
        <ele>199.921744</ele>
        <time>2022-12-12T14:24:48.826Z</time>
      </trkpt>
      <trkpt lat="48.21622" lon="-3.02253">
        <ele>199.657792</ele>
        <time>2022-12-12T14:24:51.833Z</time>
      </trkpt>
      <trkpt lat="48.21614" lon="-3.02241">
        <ele>199.40062</ele>
        <time>2022-12-12T14:24:54.827Z</time>
      </trkpt>
      <trkpt lat="48.21606" lon="-3.02229">
        <ele>199.144475</ele>
        <time>2022-12-12T14:24:57.818Z</time>
      </trkpt>
      <trkpt lat="48.21597" lon="-3.02213">
        <ele>198.833129</ele>
        <time>2022-12-12T14:25:00.824Z</time>
      </trkpt>
      <trkpt lat="48.21589" lon="-3.02199">
        <ele>198.544688</ele>
        <time>2022-12-12T14:25:03.827Z</time>
      </trkpt>
      <trkpt lat="48.21581" lon="-3.02187">
        <ele>198.303743</ele>
        <time>2022-12-12T14:25:06.825Z</time>
      </trkpt>
      <trkpt lat="48.21575" lon="-3.02176">
        <ele>198.259001</ele>
        <time>2022-12-12T14:25:18.809Z</time>
      </trkpt>
      <trkpt lat="48.21569" lon="-3.02164">
        <ele>198.241173</ele>
        <time>2022-12-12T14:25:22.810Z</time>
      </trkpt>
      <trkpt lat="48.21564" lon="-3.02151">
        <ele>198.222509</ele>
        <time>2022-12-12T14:25:25.825Z</time>
      </trkpt>
      <trkpt lat="48.21557" lon="-3.02134">
        <ele>198.19908</ele>
        <time>2022-12-12T14:25:28.825Z</time>
      </trkpt>
      <trkpt lat="48.21554" lon="-3.02119">
        <ele>198.180017</ele>
        <time>2022-12-12T14:25:30.820Z</time>
      </trkpt>
      <trkpt lat="48.21549" lon="-3.02102">
        <ele>198.157678</ele>
        <time>2022-12-12T14:25:33.830Z</time>
      </trkpt>
      <trkpt lat="48.21545" lon="-3.02088">
        <ele>198.13993</ele>
        <time>2022-12-12T14:25:36.823Z</time>
      </trkpt>
      <trkpt lat="48.21541" lon="-3.02071">
        <ele>198.118868</ele>
        <time>2022-12-12T14:25:39.805Z</time>
      </trkpt>
      <trkpt lat="48.21538" lon="-3.02053">
        <ele>198.096677</ele>
        <time>2022-12-12T14:25:42.805Z</time>
      </trkpt>
      <trkpt lat="48.21535" lon="-3.02035">
        <ele>198.073558</ele>
        <time>2022-12-12T14:25:45.813Z</time>
      </trkpt>
      <trkpt lat="48.21531" lon="-3.02017">
        <ele>198.051247</ele>
        <time>2022-12-12T14:25:48.822Z</time>
      </trkpt>
      <trkpt lat="48.21529" lon="-3.02001">
        <ele>198.032155</ele>
        <time>2022-12-12T14:25:51.825Z</time>
      </trkpt>
      <trkpt lat="48.21526" lon="-3.01985">
        <ele>198.012147</ele>
        <time>2022-12-12T14:25:54.825Z</time>
      </trkpt>
      <trkpt lat="48.21525" lon="-3.01968">
        <ele>197.99223</ele>
        <time>2022-12-12T14:25:57.825Z</time>
      </trkpt>
      <trkpt lat="48.21522" lon="-3.01952">
        <ele>197.972373</ele>
        <time>2022-12-12T14:26:00.801Z</time>
      </trkpt>
      <trkpt lat="48.21519" lon="-3.01935">
        <ele>197.95023</ele>
        <time>2022-12-12T14:26:03.814Z</time>
      </trkpt>
      <trkpt lat="48.21516" lon="-3.01917">
        <ele>197.800621</ele>
        <time>2022-12-12T14:26:06.833Z</time>
      </trkpt>
      <trkpt lat="48.21514" lon="-3.019">
        <ele>197.650907</ele>
        <time>2022-12-12T14:26:09.824Z</time>
      </trkpt>
      <trkpt lat="48.21511" lon="-3.01882">
        <ele>197.500632</ele>
        <time>2022-12-12T14:26:12.824Z</time>
      </trkpt>
      <trkpt lat="48.21508" lon="-3.01864">
        <ele>197.350886</ele>
        <time>2022-12-12T14:26:15.830Z</time>
      </trkpt>
      <trkpt lat="48.21506" lon="-3.01846">
        <ele>197.203826</ele>
        <time>2022-12-12T14:26:18.806Z</time>
      </trkpt>
      <trkpt lat="48.21503" lon="-3.01829">
        <ele>197.05942</ele>
        <time>2022-12-12T14:26:21.824Z</time>
      </trkpt>
      <trkpt lat="48.215" lon="-3.01812">
        <ele>196.916063</ele>
        <time>2022-12-12T14:26:24.825Z</time>
      </trkpt>
      <trkpt lat="48.21498" lon="-3.01797">
        <ele>196.791274</ele>
        <time>2022-12-12T14:26:27.810Z</time>
      </trkpt>
      <trkpt lat="48.21496" lon="-3.0178">
        <ele>196.650804</ele>
        <time>2022-12-12T14:26:30.814Z</time>
      </trkpt>
      <trkpt lat="48.21494" lon="-3.01764">
        <ele>196.517813</ele>
        <time>2022-12-12T14:26:33.820Z</time>
      </trkpt>
      <trkpt lat="48.21492" lon="-3.01747">
        <ele>196.378199</ele>
        <time>2022-12-12T14:26:36.829Z</time>
      </trkpt>
      <trkpt lat="48.2149" lon="-3.01729">
        <ele>196.229252</ele>
        <time>2022-12-12T14:26:39.802Z</time>
      </trkpt>
      <trkpt lat="48.21487" lon="-3.01709">
        <ele>196.06646</ele>
        <time>2022-12-12T14:26:42.828Z</time>
      </trkpt>
      <trkpt lat="48.21485" lon="-3.01695">
        <ele>195.94831</ele>
        <time>2022-12-12T14:26:44.823Z</time>
      </trkpt>
      <trkpt lat="48.21484" lon="-3.01681">
        <ele>195.83142</ele>
        <time>2022-12-12T14:26:46.824Z</time>
      </trkpt>
      <trkpt lat="48.21483" lon="-3.01667">
        <ele>195.694762</ele>
        <time>2022-12-12T14:26:48.803Z</time>
      </trkpt>
      <trkpt lat="48.21482" lon="-3.01647">
        <ele>195.428654</ele>
        <time>2022-12-12T14:26:51.824Z</time>
      </trkpt>
      <trkpt lat="48.21481" lon="-3.01628">
        <ele>195.178151</ele>
        <time>2022-12-12T14:26:54.825Z</time>
      </trkpt>
      <trkpt lat="48.21482" lon="-3.01611">
        <ele>194.940681</ele>
        <time>2022-12-12T14:26:57.825Z</time>
      </trkpt>
      <trkpt lat="48.21483" lon="-3.01594">
        <ele>194.722682</ele>
        <time>2022-12-12T14:27:00.825Z</time>
      </trkpt>
      <trkpt lat="48.21484" lon="-3.01579">
        <ele>194.522284</ele>
        <time>2022-12-12T14:27:03.835Z</time>
      </trkpt>
      <trkpt lat="48.21486" lon="-3.01565">
        <ele>194.334754</ele>
        <time>2022-12-12T14:27:06.812Z</time>
      </trkpt>
      <trkpt lat="48.21488" lon="-3.0155">
        <ele>194.123271</ele>
        <time>2022-12-12T14:27:10.812Z</time>
      </trkpt>
      <trkpt lat="48.2149" lon="-3.01536">
        <ele>193.92946</ele>
        <time>2022-12-12T14:27:15.808Z</time>
      </trkpt>
      <trkpt lat="48.21494" lon="-3.01523">
        <ele>193.747183</ele>
        <time>2022-12-12T14:27:18.806Z</time>
      </trkpt>
      <trkpt lat="48.21498" lon="-3.01507">
        <ele>193.520841</ele>
        <time>2022-12-12T14:27:22.804Z</time>
      </trkpt>
      <trkpt lat="48.21503" lon="-3.01493">
        <ele>193.306098</ele>
        <time>2022-12-12T14:27:26.828Z</time>
      </trkpt>
      <trkpt lat="48.21508" lon="-3.01481">
        <ele>193.118785</ele>
        <time>2022-12-12T14:27:30.814Z</time>
      </trkpt>
      <trkpt lat="48.2151" lon="-3.01475">
        <ele>193.022363</ele>
        <time>2022-12-12T14:27:37.570Z</time>
      </trkpt>
      <trkpt lat="48.21524" lon="-3.01447">
        <ele>192.554145</ele>
        <time>2022-12-12T14:32:57.807Z</time>
      </trkpt>
      <trkpt lat="48.21529" lon="-3.01435">
        <ele>192.365738</ele>
        <time>2022-12-12T14:33:00.804Z</time>
      </trkpt>
      <trkpt lat="48.21534" lon="-3.0142">
        <ele>192.154299</ele>
        <time>2022-12-12T14:33:04.817Z</time>
      </trkpt>
      <trkpt lat="48.2154" lon="-3.01404">
        <ele>192.147795</ele>
        <time>2022-12-12T14:33:08.808Z</time>
      </trkpt>
      <trkpt lat="48.21545" lon="-3.0139">
        <ele>192.141723</ele>
        <time>2022-12-12T14:33:12.823Z</time>
      </trkpt>
      <trkpt lat="48.21549" lon="-3.01375">
        <ele>192.135675</ele>
        <time>2022-12-12T14:33:16.808Z</time>
      </trkpt>
      <trkpt lat="48.21554" lon="-3.01362">
        <ele>192.130148</ele>
        <time>2022-12-12T14:33:19.813Z</time>
      </trkpt>
      <trkpt lat="48.2156" lon="-3.01347">
        <ele>192.123997</ele>
        <time>2022-12-12T14:33:22.811Z</time>
      </trkpt>
      <trkpt lat="48.21564" lon="-3.01334">
        <ele>192.118297</ele>
        <time>2022-12-12T14:33:25.828Z</time>
      </trkpt>
      <trkpt lat="48.21568" lon="-3.01317">
        <ele>192.111744</ele>
        <time>2022-12-12T14:33:28.811Z</time>
      </trkpt>
      <trkpt lat="48.21572" lon="-3.01301">
        <ele>192.105346</ele>
        <time>2022-12-12T14:33:31.811Z</time>
      </trkpt>
      <trkpt lat="48.21575" lon="-3.01284">
        <ele>192.099091</ele>
        <time>2022-12-12T14:33:34.804Z</time>
      </trkpt>
      <trkpt lat="48.21578" lon="-3.01269">
        <ele>192.09322</ele>
        <time>2022-12-12T14:33:37.827Z</time>
      </trkpt>
      <trkpt lat="48.2158" lon="-3.01255">
        <ele>192.088063</ele>
        <time>2022-12-12T14:33:40.825Z</time>
      </trkpt>
      <trkpt lat="48.21582" lon="-3.01241">
        <ele>192.08247</ele>
        <time>2022-12-12T14:33:43.831Z</time>
      </trkpt>
      <trkpt lat="48.21583" lon="-3.01224">
        <ele>192.07642</ele>
        <time>2022-12-12T14:33:46.829Z</time>
      </trkpt>
      <trkpt lat="48.21584" lon="-3.01207">
        <ele>192.070153</ele>
        <time>2022-12-12T14:33:49.817Z</time>
      </trkpt>
      <trkpt lat="48.21583" lon="-3.0119">
        <ele>192.063703</ele>
        <time>2022-12-12T14:33:52.827Z</time>
      </trkpt>
      <trkpt lat="48.21582" lon="-3.01172">
        <ele>192.056911</ele>
        <time>2022-12-12T14:33:55.828Z</time>
      </trkpt>
      <trkpt lat="48.2158" lon="-3.01154">
        <ele>191.905667</ele>
        <time>2022-12-12T14:33:58.823Z</time>
      </trkpt>
      <trkpt lat="48.21577" lon="-3.01139">
        <ele>191.725692</ele>
        <time>2022-12-12T14:34:01.818Z</time>
      </trkpt>
      <trkpt lat="48.21575" lon="-3.01122">
        <ele>191.519389</ele>
        <time>2022-12-12T14:34:05.827Z</time>
      </trkpt>
      <trkpt lat="48.21571" lon="-3.01105">
        <ele>191.303998</ele>
        <time>2022-12-12T14:34:09.805Z</time>
      </trkpt>
      <trkpt lat="48.21566" lon="-3.0109">
        <ele>191.103765</ele>
        <time>2022-12-12T14:34:12.824Z</time>
      </trkpt>
      <trkpt lat="48.21561" lon="-3.01075">
        <ele>190.899517</ele>
        <time>2022-12-12T14:34:15.818Z</time>
      </trkpt>
      <trkpt lat="48.21555" lon="-3.01059">
        <ele>190.67524</ele>
        <time>2022-12-12T14:34:18.805Z</time>
      </trkpt>
      <trkpt lat="48.21547" lon="-3.01044">
        <ele>190.449835</ele>
        <time>2022-12-12T14:34:21.824Z</time>
      </trkpt>
      <trkpt lat="48.21542" lon="-3.01033">
        <ele>190.286196</ele>
        <time>2022-12-12T14:34:23.811Z</time>
      </trkpt>
      <trkpt lat="48.21535" lon="-3.01018">
        <ele>190.065985</ele>
        <time>2022-12-12T14:34:26.827Z</time>
      </trkpt>
      <trkpt lat="48.21528" lon="-3.01006">
        <ele>189.882025</ele>
        <time>2022-12-12T14:34:29.814Z</time>
      </trkpt>
      <trkpt lat="48.21523" lon="-3.00994">
        <ele>189.709524</ele>
        <time>2022-12-12T14:34:32.825Z</time>
      </trkpt>
      <trkpt lat="48.21516" lon="-3.00984">
        <ele>189.535892</ele>
        <time>2022-12-12T14:34:35.808Z</time>
      </trkpt>
      <trkpt lat="48.21509" lon="-3.00971">
        <ele>189.337708</ele>
        <time>2022-12-12T14:34:38.817Z</time>
      </trkpt>
      <trkpt lat="48.21501" lon="-3.00958">
        <ele>189.131621</ele>
        <time>2022-12-12T14:34:41.806Z</time>
      </trkpt>
      <trkpt lat="48.21492" lon="-3.00944">
        <ele>188.895431</ele>
        <time>2022-12-12T14:34:44.830Z</time>
      </trkpt>
      <trkpt lat="48.21484" lon="-3.00932">
        <ele>188.997694</ele>
        <time>2022-12-12T14:34:47.823Z</time>
      </trkpt>
      <trkpt lat="48.21477" lon="-3.00921">
        <ele>189.246929</ele>
        <time>2022-12-12T14:34:50.822Z</time>
      </trkpt>
      <trkpt lat="48.2147" lon="-3.00911">
        <ele>189.485063</ele>
        <time>2022-12-12T14:34:53.807Z</time>
      </trkpt>
      <trkpt lat="48.21463" lon="-3.00901">
        <ele>189.716759</ele>
        <time>2022-12-12T14:34:56.818Z</time>
      </trkpt>
      <trkpt lat="48.21454" lon="-3.0089">
        <ele>190.002846</ele>
        <time>2022-12-12T14:34:59.824Z</time>
      </trkpt>
      <trkpt lat="48.21444" lon="-3.00878">
        <ele>190.306271</ele>
        <time>2022-12-12T14:35:02.824Z</time>
      </trkpt>
      <trkpt lat="48.21434" lon="-3.00865">
        <ele>190.613625</ele>
        <time>2022-12-12T14:35:05.826Z</time>
      </trkpt>
      <trkpt lat="48.21426" lon="-3.00855">
        <ele>190.871185</ele>
        <time>2022-12-12T14:35:08.817Z</time>
      </trkpt>
      <trkpt lat="48.21416" lon="-3.00842">
        <ele>191.197959</ele>
        <time>2022-12-12T14:35:11.822Z</time>
      </trkpt>
      <trkpt lat="48.21407" lon="-3.0083">
        <ele>191.49226</ele>
        <time>2022-12-12T14:35:14.817Z</time>
      </trkpt>
      <trkpt lat="48.21398" lon="-3.0082">
        <ele>191.757492</ele>
        <time>2022-12-12T14:35:17.824Z</time>
      </trkpt>
      <trkpt lat="48.21389" lon="-3.0081">
        <ele>192.036263</ele>
        <time>2022-12-12T14:35:20.818Z</time>
      </trkpt>
      <trkpt lat="48.21379" lon="-3.008">
        <ele>192.323773</ele>
        <time>2022-12-12T14:35:23.822Z</time>
      </trkpt>
      <trkpt lat="48.2137" lon="-3.00789">
        <ele>192.598673</ele>
        <time>2022-12-12T14:35:26.825Z</time>
      </trkpt>
      <trkpt lat="48.21361" lon="-3.0078">
        <ele>192.857196</ele>
        <time>2022-12-12T14:35:29.827Z</time>
      </trkpt>
      <trkpt lat="48.21353" lon="-3.00771">
        <ele>193.091453</ele>
        <time>2022-12-12T14:35:32.818Z</time>
      </trkpt>
      <trkpt lat="48.21344" lon="-3.00762">
        <ele>193.268683</ele>
        <time>2022-12-12T14:35:36.829Z</time>
      </trkpt>
      <trkpt lat="48.21335" lon="-3.0075">
        <ele>193.406769</ele>
        <time>2022-12-12T14:35:40.819Z</time>
      </trkpt>
      <trkpt lat="48.21327" lon="-3.00742">
        <ele>193.513448</ele>
        <time>2022-12-12T14:35:43.826Z</time>
      </trkpt>
      <trkpt lat="48.21319" lon="-3.00734">
        <ele>193.623293</ele>
        <time>2022-12-12T14:35:46.822Z</time>
      </trkpt>
      <trkpt lat="48.21312" lon="-3.00725">
        <ele>193.730591</ele>
        <time>2022-12-12T14:35:49.813Z</time>
      </trkpt>
      <trkpt lat="48.21305" lon="-3.00716">
        <ele>193.834924</ele>
        <time>2022-12-12T14:35:52.823Z</time>
      </trkpt>
      <trkpt lat="48.21296" lon="-3.00705">
        <ele>193.966048</ele>
        <time>2022-12-12T14:35:56.823Z</time>
      </trkpt>
      <trkpt lat="48.21288" lon="-3.00694">
        <ele>194.093299</ele>
        <time>2022-12-12T14:36:00.827Z</time>
      </trkpt>
      <trkpt lat="48.2128" lon="-3.00685">
        <ele>194.215568</ele>
        <time>2022-12-12T14:36:04.824Z</time>
      </trkpt>
      <trkpt lat="48.21272" lon="-3.00675">
        <ele>194.334727</ele>
        <time>2022-12-12T14:36:08.817Z</time>
      </trkpt>
      <trkpt lat="48.21263" lon="-3.00665">
        <ele>194.461581</ele>
        <time>2022-12-12T14:36:12.828Z</time>
      </trkpt>
      <trkpt lat="48.21255" lon="-3.00655">
        <ele>194.580117</ele>
        <time>2022-12-12T14:36:16.809Z</time>
      </trkpt>
      <trkpt lat="48.21247" lon="-3.00645">
        <ele>194.702368</ele>
        <time>2022-12-12T14:36:21.807Z</time>
      </trkpt>
      <trkpt lat="48.21238" lon="-3.00637">
        <ele>194.814763</ele>
        <time>2022-12-12T14:36:25.824Z</time>
      </trkpt>
      <trkpt lat="48.2123" lon="-3.00626">
        <ele>194.940139</ele>
        <time>2022-12-12T14:36:29.804Z</time>
      </trkpt>
      <trkpt lat="48.21221" lon="-3.00615">
        <ele>195.07038</ele>
        <time>2022-12-12T14:36:33.822Z</time>
      </trkpt>
      <trkpt lat="48.21214" lon="-3.00607">
        <ele>195.174299</ele>
        <time>2022-12-12T14:36:36.813Z</time>
      </trkpt>
      <trkpt lat="48.21206" lon="-3.00599">
        <ele>195.21887</ele>
        <time>2022-12-12T14:36:39.828Z</time>
      </trkpt>
      <trkpt lat="48.21199" lon="-3.00591">
        <ele>195.148779</ele>
        <time>2022-12-12T14:36:42.837Z</time>
      </trkpt>
      <trkpt lat="48.21192" lon="-3.00581">
        <ele>195.072355</ele>
        <time>2022-12-12T14:36:45.825Z</time>
      </trkpt>
      <trkpt lat="48.21184" lon="-3.00573">
        <ele>195.002892</ele>
        <time>2022-12-12T14:36:48.823Z</time>
      </trkpt>
      <trkpt lat="48.21177" lon="-3.00566">
        <ele>194.933745</ele>
        <time>2022-12-12T14:36:51.812Z</time>
      </trkpt>
      <trkpt lat="48.2117" lon="-3.00556">
        <ele>194.862886</ele>
        <time>2022-12-12T14:36:54.808Z</time>
      </trkpt>
      <trkpt lat="48.21162" lon="-3.00548">
        <ele>194.789967</ele>
        <time>2022-12-12T14:36:57.814Z</time>
      </trkpt>
      <trkpt lat="48.21154" lon="-3.0054">
        <ele>194.713084</ele>
        <time>2022-12-12T14:37:00.827Z</time>
      </trkpt>
      <trkpt lat="48.21146" lon="-3.00532">
        <ele>194.640248</ele>
        <time>2022-12-12T14:37:03.815Z</time>
      </trkpt>
      <trkpt lat="48.21137" lon="-3.00521">
        <ele>194.55412</ele>
        <time>2022-12-12T14:37:07.814Z</time>
      </trkpt>
      <trkpt lat="48.21128" lon="-3.0051">
        <ele>194.462312</ele>
        <time>2022-12-12T14:37:11.807Z</time>
      </trkpt>
      <trkpt lat="48.2112" lon="-3.00501">
        <ele>194.387636</ele>
        <time>2022-12-12T14:37:14.832Z</time>
      </trkpt>
      <trkpt lat="48.21112" lon="-3.00492">
        <ele>194.311424</ele>
        <time>2022-12-12T14:37:17.829Z</time>
      </trkpt>
      <trkpt lat="48.21104" lon="-3.00482">
        <ele>194.230933</ele>
        <time>2022-12-12T14:37:20.818Z</time>
      </trkpt>
      <trkpt lat="48.21095" lon="-3.00472">
        <ele>194.144641</ele>
        <time>2022-12-12T14:37:23.823Z</time>
      </trkpt>
      <trkpt lat="48.21086" lon="-3.00462">
        <ele>194.062603</ele>
        <time>2022-12-12T14:37:26.827Z</time>
      </trkpt>
      <trkpt lat="48.21077" lon="-3.00451">
        <ele>193.972918</ele>
        <time>2022-12-12T14:37:29.822Z</time>
      </trkpt>
      <trkpt lat="48.21068" lon="-3.0044">
        <ele>193.883461</ele>
        <time>2022-12-12T14:37:32.828Z</time>
      </trkpt>
      <trkpt lat="48.21058" lon="-3.0043">
        <ele>193.823455</ele>
        <time>2022-12-12T14:37:35.828Z</time>
      </trkpt>
      <trkpt lat="48.21049" lon="-3.00419">
        <ele>193.772202</ele>
        <time>2022-12-12T14:37:38.813Z</time>
      </trkpt>
      <trkpt lat="48.21039" lon="-3.00408">
        <ele>193.717353</ele>
        <time>2022-12-12T14:37:41.823Z</time>
      </trkpt>
      <trkpt lat="48.21029" lon="-3.00397">
        <ele>193.661804</ele>
        <time>2022-12-12T14:37:44.830Z</time>
      </trkpt>
      <trkpt lat="48.2102" lon="-3.00385">
        <ele>193.60607</ele>
        <time>2022-12-12T14:37:47.813Z</time>
      </trkpt>
      <trkpt lat="48.2101" lon="-3.00374">
        <ele>193.550882</ele>
        <time>2022-12-12T14:37:50.827Z</time>
      </trkpt>
      <trkpt lat="48.21" lon="-3.00363">
        <ele>193.497838</ele>
        <time>2022-12-12T14:37:53.812Z</time>
      </trkpt>
      <trkpt lat="48.20991" lon="-3.00352">
        <ele>193.446655</ele>
        <time>2022-12-12T14:37:56.832Z</time>
      </trkpt>
      <trkpt lat="48.20982" lon="-3.00341">
        <ele>193.394478</ele>
        <time>2022-12-12T14:37:59.828Z</time>
      </trkpt>
      <trkpt lat="48.20973" lon="-3.00331">
        <ele>193.340537</ele>
        <time>2022-12-12T14:38:02.824Z</time>
      </trkpt>
      <trkpt lat="48.20964" lon="-3.00321">
        <ele>193.292141</ele>
        <time>2022-12-12T14:38:05.818Z</time>
      </trkpt>
      <trkpt lat="48.20955" lon="-3.00311">
        <ele>193.243515</ele>
        <time>2022-12-12T14:38:08.816Z</time>
      </trkpt>
      <trkpt lat="48.20946" lon="-3.00299">
        <ele>193.188131</ele>
        <time>2022-12-12T14:38:11.814Z</time>
      </trkpt>
      <trkpt lat="48.20936" lon="-3.00288">
        <ele>193.132413</ele>
        <time>2022-12-12T14:38:14.824Z</time>
      </trkpt>
      <trkpt lat="48.20926" lon="-3.00276">
        <ele>193.075441</ele>
        <time>2022-12-12T14:38:17.825Z</time>
      </trkpt>
      <trkpt lat="48.20916" lon="-3.00265">
        <ele>193.131909</ele>
        <time>2022-12-12T14:38:20.835Z</time>
      </trkpt>
      <trkpt lat="48.20908" lon="-3.00257">
        <ele>193.191995</ele>
        <time>2022-12-12T14:38:22.831Z</time>
      </trkpt>
      <trkpt lat="48.20898" lon="-3.00245">
        <ele>193.27937</ele>
        <time>2022-12-12T14:38:25.839Z</time>
      </trkpt>
      <trkpt lat="48.20887" lon="-3.00233">
        <ele>193.363351</ele>
        <time>2022-12-12T14:38:28.840Z</time>
      </trkpt>
      <trkpt lat="48.20877" lon="-3.00221">
        <ele>193.449168</ele>
        <time>2022-12-12T14:38:31.840Z</time>
      </trkpt>
      <trkpt lat="48.20867" lon="-3.00209">
        <ele>193.533444</ele>
        <time>2022-12-12T14:38:34.836Z</time>
      </trkpt>
      <trkpt lat="48.20857" lon="-3.00198">
        <ele>193.616621</ele>
        <time>2022-12-12T14:38:37.827Z</time>
      </trkpt>
      <trkpt lat="48.20847" lon="-3.00188">
        <ele>193.693539</ele>
        <time>2022-12-12T14:38:40.830Z</time>
      </trkpt>
      <trkpt lat="48.20839" lon="-3.00178">
        <ele>193.760844</ele>
        <time>2022-12-12T14:38:43.823Z</time>
      </trkpt>
      <trkpt lat="48.20831" lon="-3.00168">
        <ele>193.826717</ele>
        <time>2022-12-12T14:38:46.816Z</time>
      </trkpt>
      <trkpt lat="48.20823" lon="-3.0016">
        <ele>193.891814</ele>
        <time>2022-12-12T14:38:49.828Z</time>
      </trkpt>
      <trkpt lat="48.20815" lon="-3.0015">
        <ele>193.958505</ele>
        <time>2022-12-12T14:38:52.833Z</time>
      </trkpt>
      <trkpt lat="48.20808" lon="-3.00141">
        <ele>194.022537</ele>
        <time>2022-12-12T14:38:55.830Z</time>
      </trkpt>
      <trkpt lat="48.20798" lon="-3.00131">
        <ele>194.101791</ele>
        <time>2022-12-12T14:38:59.840Z</time>
      </trkpt>
      <trkpt lat="48.2079" lon="-3.00122">
        <ele>194.164246</ele>
        <time>2022-12-12T14:39:02.830Z</time>
      </trkpt>
      <trkpt lat="48.20782" lon="-3.00115">
        <ele>194.223648</ele>
        <time>2022-12-12T14:39:05.808Z</time>
      </trkpt>
      <trkpt lat="48.20774" lon="-3.00107">
        <ele>194.351859</ele>
        <time>2022-12-12T14:39:08.820Z</time>
      </trkpt>
      <trkpt lat="48.20765" lon="-3.00099">
        <ele>194.505484</ele>
        <time>2022-12-12T14:39:11.826Z</time>
      </trkpt>
      <trkpt lat="48.20757" lon="-3.00092">
        <ele>194.6484</ele>
        <time>2022-12-12T14:39:15.823Z</time>
      </trkpt>
      <trkpt lat="48.20749" lon="-3.00086">
        <ele>194.786951</ele>
        <time>2022-12-12T14:39:19.807Z</time>
      </trkpt>
      <trkpt lat="48.20739" lon="-3.00079">
        <ele>194.957461</ele>
        <time>2022-12-12T14:39:24.822Z</time>
      </trkpt>
      <trkpt lat="48.2073" lon="-3.00071">
        <ele>195.113866</ele>
        <time>2022-12-12T14:39:28.824Z</time>
      </trkpt>
      <trkpt lat="48.2072" lon="-3.00066">
        <ele>195.279222</ele>
        <time>2022-12-12T14:39:32.818Z</time>
      </trkpt>
      <trkpt lat="48.20711" lon="-3.00062">
        <ele>195.427995</ele>
        <time>2022-12-12T14:39:35.822Z</time>
      </trkpt>
      <trkpt lat="48.20701" lon="-3.00057">
        <ele>195.589136</ele>
        <time>2022-12-12T14:39:38.827Z</time>
      </trkpt>
      <trkpt lat="48.20691" lon="-3.00052">
        <ele>195.746422</ele>
        <time>2022-12-12T14:39:41.827Z</time>
      </trkpt>
      <trkpt lat="48.20681" lon="-3.00048">
        <ele>195.906648</ele>
        <time>2022-12-12T14:39:44.814Z</time>
      </trkpt>
      <trkpt lat="48.20672" lon="-3.00042">
        <ele>196.048779</ele>
        <time>2022-12-12T14:39:47.827Z</time>
      </trkpt>
      <trkpt lat="48.20663" lon="-3.00039">
        <ele>196.187206</ele>
        <time>2022-12-12T14:39:50.818Z</time>
      </trkpt>
      <trkpt lat="48.20652" lon="-3.00036">
        <ele>196.366988</ele>
        <time>2022-12-12T14:39:54.805Z</time>
      </trkpt>
      <trkpt lat="48.20642" lon="-3.00035">
        <ele>196.51325</ele>
        <time>2022-12-12T14:39:57.817Z</time>
      </trkpt>
      <trkpt lat="48.20633" lon="-3.00033">
        <ele>196.655951</ele>
        <time>2022-12-12T14:40:00.802Z</time>
      </trkpt>
      <trkpt lat="48.20623" lon="-3.00032">
        <ele>196.806269</ele>
        <time>2022-12-12T14:40:03.803Z</time>
      </trkpt>
      <trkpt lat="48.20614" lon="-3.00031">
        <ele>196.944704</ele>
        <time>2022-12-12T14:40:06.812Z</time>
      </trkpt>
      <trkpt lat="48.20604" lon="-3.00029">
        <ele>197.191148</ele>
        <time>2022-12-12T14:40:10.817Z</time>
      </trkpt>
      <trkpt lat="48.20593" lon="-3.00029">
        <ele>197.539059</ele>
        <time>2022-12-12T14:40:14.824Z</time>
      </trkpt>
      <trkpt lat="48.20583" lon="-3.00028">
        <ele>197.846921</ele>
        <time>2022-12-12T14:40:17.809Z</time>
      </trkpt>
      <trkpt lat="48.20571" lon="-3.0003">
        <ele>198.218494</ele>
        <time>2022-12-12T14:40:21.806Z</time>
      </trkpt>
      <trkpt lat="48.20561" lon="-3.00032">
        <ele>198.54257</ele>
        <time>2022-12-12T14:40:24.811Z</time>
      </trkpt>
      <trkpt lat="48.20551" lon="-3.00033">
        <ele>198.832903</ele>
        <time>2022-12-12T14:40:27.821Z</time>
      </trkpt>
      <trkpt lat="48.2054" lon="-3.00034">
        <ele>199.178195</ele>
        <time>2022-12-12T14:40:31.830Z</time>
      </trkpt>
      <trkpt lat="48.20528" lon="-3.00037">
        <ele>199.543836</ele>
        <time>2022-12-12T14:40:35.822Z</time>
      </trkpt>
      <trkpt lat="48.20519" lon="-3.00039">
        <ele>199.836312</ele>
        <time>2022-12-12T14:40:38.824Z</time>
      </trkpt>
      <trkpt lat="48.20508" lon="-3.00043">
        <ele>200.180239</ele>
        <time>2022-12-12T14:40:41.817Z</time>
      </trkpt>
      <trkpt lat="48.20498" lon="-3.00046">
        <ele>200.508708</ele>
        <time>2022-12-12T14:40:44.826Z</time>
      </trkpt>
      <trkpt lat="48.20488" lon="-3.0005">
        <ele>200.821265</ele>
        <time>2022-12-12T14:40:47.824Z</time>
      </trkpt>
      <trkpt lat="48.20478" lon="-3.00054">
        <ele>201.135249</ele>
        <time>2022-12-12T14:40:50.828Z</time>
      </trkpt>
      <trkpt lat="48.20468" lon="-3.00059">
        <ele>201.461298</ele>
        <time>2022-12-12T14:40:54.801Z</time>
      </trkpt>
      <trkpt lat="48.20458" lon="-3.00063">
        <ele>201.786733</ele>
        <time>2022-12-12T14:40:59.807Z</time>
      </trkpt>
      <trkpt lat="48.20447" lon="-3.00068">
        <ele>202.124134</ele>
        <time>2022-12-12T14:41:03.811Z</time>
      </trkpt>
      <trkpt lat="48.20438" lon="-3.00072">
        <ele>202.410057</ele>
        <time>2022-12-12T14:41:06.824Z</time>
      </trkpt>
      <trkpt lat="48.20429" lon="-3.00076">
        <ele>202.603857</ele>
        <time>2022-12-12T14:41:09.831Z</time>
      </trkpt>
      <trkpt lat="48.20419" lon="-3.00081">
        <ele>202.757406</ele>
        <time>2022-12-12T14:41:13.816Z</time>
      </trkpt>
      <trkpt lat="48.20409" lon="-3.00086">
        <ele>202.89812</ele>
        <time>2022-12-12T14:41:17.813Z</time>
      </trkpt>
      <trkpt lat="48.20399" lon="-3.0009">
        <ele>203.045421</ele>
        <time>2022-12-12T14:41:21.824Z</time>
      </trkpt>
      <trkpt lat="48.2039" lon="-3.00095">
        <ele>203.17477</ele>
        <time>2022-12-12T14:41:24.826Z</time>
      </trkpt>
      <trkpt lat="48.20381" lon="-3.001">
        <ele>203.306029</ele>
        <time>2022-12-12T14:41:27.827Z</time>
      </trkpt>
      <trkpt lat="48.20371" lon="-3.00105">
        <ele>203.440812</ele>
        <time>2022-12-12T14:41:30.826Z</time>
      </trkpt>
      <trkpt lat="48.20362" lon="-3.0011">
        <ele>203.569994</ele>
        <time>2022-12-12T14:41:33.829Z</time>
      </trkpt>
      <trkpt lat="48.20354" lon="-3.00114">
        <ele>203.694866</ele>
        <time>2022-12-12T14:41:36.825Z</time>
      </trkpt>
      <trkpt lat="48.20344" lon="-3.00118">
        <ele>203.828499</ele>
        <time>2022-12-12T14:41:39.825Z</time>
      </trkpt>
      <trkpt lat="48.20335" lon="-3.00121">
        <ele>203.962998</ele>
        <time>2022-12-12T14:41:42.829Z</time>
      </trkpt>
      <trkpt lat="48.20325" lon="-3.00126">
        <ele>204.103707</ele>
        <time>2022-12-12T14:41:45.827Z</time>
      </trkpt>
      <trkpt lat="48.20315" lon="-3.00129">
        <ele>204.243697</ele>
        <time>2022-12-12T14:41:48.812Z</time>
      </trkpt>
      <trkpt lat="48.20306" lon="-3.00133">
        <ele>204.375288</ele>
        <time>2022-12-12T14:41:51.829Z</time>
      </trkpt>
      <trkpt lat="48.20296" lon="-3.00138">
        <ele>204.516505</ele>
        <time>2022-12-12T14:41:54.811Z</time>
      </trkpt>
      <trkpt lat="48.20286" lon="-3.00141">
        <ele>204.660365</ele>
        <time>2022-12-12T14:41:57.810Z</time>
      </trkpt>
      <trkpt lat="48.20275" lon="-3.00143">
        <ele>204.80637</ele>
        <time>2022-12-12T14:42:00.823Z</time>
      </trkpt>
      <trkpt lat="48.20264" lon="-3.00144">
        <ele>204.95363</ele>
        <time>2022-12-12T14:42:03.828Z</time>
      </trkpt>
      <trkpt lat="48.20253" lon="-3.00145">
        <ele>204.697647</ele>
        <time>2022-12-12T14:42:06.828Z</time>
      </trkpt>
      <trkpt lat="48.20242" lon="-3.00146">
        <ele>204.324927</ele>
        <time>2022-12-12T14:42:09.808Z</time>
      </trkpt>
      <trkpt lat="48.20232" lon="-3.00146">
        <ele>203.973038</ele>
        <time>2022-12-12T14:42:12.826Z</time>
      </trkpt>
      <trkpt lat="48.20222" lon="-3.00146">
        <ele>203.634546</ele>
        <time>2022-12-12T14:42:15.828Z</time>
      </trkpt>
      <trkpt lat="48.20211" lon="-3.00145">
        <ele>203.275572</ele>
        <time>2022-12-12T14:42:18.827Z</time>
      </trkpt>
      <trkpt lat="48.20201" lon="-3.00144">
        <ele>202.913184</ele>
        <time>2022-12-12T14:42:21.812Z</time>
      </trkpt>
      <trkpt lat="48.20191" lon="-3.00142">
        <ele>202.564518</ele>
        <time>2022-12-12T14:42:24.813Z</time>
      </trkpt>
      <trkpt lat="48.20181" lon="-3.00141">
        <ele>202.23138</ele>
        <time>2022-12-12T14:42:27.816Z</time>
      </trkpt>
      <trkpt lat="48.20171" lon="-3.00139">
        <ele>201.895467</ele>
        <time>2022-12-12T14:42:30.827Z</time>
      </trkpt>
      <trkpt lat="48.20162" lon="-3.00136">
        <ele>201.573336</ele>
        <time>2022-12-12T14:42:33.826Z</time>
      </trkpt>
      <trkpt lat="48.20153" lon="-3.00133">
        <ele>201.244046</ele>
        <time>2022-12-12T14:42:36.819Z</time>
      </trkpt>
      <trkpt lat="48.20142" lon="-3.00129">
        <ele>200.874202</ele>
        <time>2022-12-12T14:42:39.825Z</time>
      </trkpt>
      <trkpt lat="48.20131" lon="-3.00124">
        <ele>200.472302</ele>
        <time>2022-12-12T14:42:42.811Z</time>
      </trkpt>
      <trkpt lat="48.2012" lon="-3.00119">
        <ele>200.091306</ele>
        <time>2022-12-12T14:42:45.825Z</time>
      </trkpt>
      <trkpt lat="48.20111" lon="-3.00115">
        <ele>199.775797</ele>
        <time>2022-12-12T14:42:48.829Z</time>
      </trkpt>
      <trkpt lat="48.20101" lon="-3.0011">
        <ele>199.397326</ele>
        <time>2022-12-12T14:42:52.829Z</time>
      </trkpt>
      <trkpt lat="48.20092" lon="-3.00105">
        <ele>199.070238</ele>
        <time>2022-12-12T14:42:55.826Z</time>
      </trkpt>
      <trkpt lat="48.20083" lon="-3.00099">
        <ele>198.798081</ele>
        <time>2022-12-12T14:42:58.827Z</time>
      </trkpt>
      <trkpt lat="48.20073" lon="-3.00091">
        <ele>198.624704</ele>
        <time>2022-12-12T14:43:02.823Z</time>
      </trkpt>
      <trkpt lat="48.20063" lon="-3.00085">
        <ele>198.475656</ele>
        <time>2022-12-12T14:43:05.824Z</time>
      </trkpt>
      <trkpt lat="48.20055" lon="-3.00078">
        <ele>198.336415</ele>
        <time>2022-12-12T14:43:08.829Z</time>
      </trkpt>
      <trkpt lat="48.20046" lon="-3.0007">
        <ele>198.174977</ele>
        <time>2022-12-12T14:43:11.809Z</time>
      </trkpt>
      <trkpt lat="48.20036" lon="-3.00061">
        <ele>198.004491</ele>
        <time>2022-12-12T14:43:14.825Z</time>
      </trkpt>
      <trkpt lat="48.20026" lon="-3.00051">
        <ele>197.825197</ele>
        <time>2022-12-12T14:43:17.825Z</time>
      </trkpt>
      <trkpt lat="48.20017" lon="-3.00042">
        <ele>197.658537</ele>
        <time>2022-12-12T14:43:20.810Z</time>
      </trkpt>
      <trkpt lat="48.20007" lon="-3.0003">
        <ele>197.476758</ele>
        <time>2022-12-12T14:43:23.827Z</time>
      </trkpt>
      <trkpt lat="48.2" lon="-3.00021">
        <ele>197.34283</ele>
        <time>2022-12-12T14:43:25.824Z</time>
      </trkpt>
      <trkpt lat="48.19992" lon="-3.00008">
        <ele>197.156712</ele>
        <time>2022-12-12T14:43:28.811Z</time>
      </trkpt>
      <trkpt lat="48.19984" lon="-2.99997">
        <ele>196.995328</ele>
        <time>2022-12-12T14:43:31.815Z</time>
      </trkpt>
      <trkpt lat="48.19976" lon="-2.99986">
        <ele>196.840755</ele>
        <time>2022-12-12T14:43:34.830Z</time>
      </trkpt>
      <trkpt lat="48.19968" lon="-2.99972">
        <ele>196.656232</ele>
        <time>2022-12-12T14:43:37.828Z</time>
      </trkpt>
      <trkpt lat="48.19959" lon="-2.99959">
        <ele>196.477828</ele>
        <time>2022-12-12T14:43:40.823Z</time>
      </trkpt>
      <trkpt lat="48.19952" lon="-2.99946">
        <ele>196.301476</ele>
        <time>2022-12-12T14:43:43.823Z</time>
      </trkpt>
      <trkpt lat="48.19945" lon="-2.99933">
        <ele>196.21733</ele>
        <time>2022-12-12T14:43:46.814Z</time>
      </trkpt>
      <trkpt lat="48.19938" lon="-2.9992">
        <ele>196.438986</ele>
        <time>2022-12-12T14:43:49.810Z</time>
      </trkpt>
      <trkpt lat="48.19932" lon="-2.99907">
        <ele>196.655245</ele>
        <time>2022-12-12T14:43:52.823Z</time>
      </trkpt>
      <trkpt lat="48.19927" lon="-2.99894">
        <ele>196.857189</ele>
        <time>2022-12-12T14:43:55.831Z</time>
      </trkpt>
      <trkpt lat="48.1992" lon="-2.9988">
        <ele>197.077814</ele>
        <time>2022-12-12T14:43:58.813Z</time>
      </trkpt>
      <trkpt lat="48.19915" lon="-2.99867">
        <ele>197.285555</ele>
        <time>2022-12-12T14:44:01.825Z</time>
      </trkpt>
      <trkpt lat="48.1991" lon="-2.99851">
        <ele>197.515579</ele>
        <time>2022-12-12T14:44:05.827Z</time>
      </trkpt>
      <trkpt lat="48.19905" lon="-2.99838">
        <ele>197.717852</ele>
        <time>2022-12-12T14:44:09.806Z</time>
      </trkpt>
      <trkpt lat="48.19899" lon="-2.99828">
        <ele>197.908167</ele>
        <time>2022-12-12T14:44:14.809Z</time>
      </trkpt>
      <trkpt lat="48.19893" lon="-2.99839">
        <ele>198.098833</ele>
        <time>2022-12-12T14:44:21.815Z</time>
      </trkpt>
      <trkpt lat="48.1989" lon="-2.99854">
        <ele>198.307924</ele>
        <time>2022-12-12T14:44:27.814Z</time>
      </trkpt>
      <trkpt lat="48.19888" lon="-2.9987">
        <ele>198.521196</ele>
        <time>2022-12-12T14:44:32.822Z</time>
      </trkpt>
      <trkpt lat="48.19885" lon="-2.99884">
        <ele>198.719336</ele>
        <time>2022-12-12T14:44:36.808Z</time>
      </trkpt>
      <trkpt lat="48.19881" lon="-2.99899">
        <ele>198.934681</ele>
        <time>2022-12-12T14:44:40.811Z</time>
      </trkpt>
      <trkpt lat="48.19875" lon="-2.9991">
        <ele>199.123331</ele>
        <time>2022-12-12T14:44:43.818Z</time>
      </trkpt>
      <trkpt lat="48.19868" lon="-2.99923">
        <ele>199.345518</ele>
        <time>2022-12-12T14:44:47.827Z</time>
      </trkpt>
      <trkpt lat="48.1986" lon="-2.99933">
        <ele>199.549567</ele>
        <time>2022-12-12T14:44:51.825Z</time>
      </trkpt>
      <trkpt lat="48.19853" lon="-2.99941">
        <ele>199.733625</ele>
        <time>2022-12-12T14:44:55.823Z</time>
      </trkpt>
      <trkpt lat="48.19845" lon="-2.99949">
        <ele>199.5657</ele>
        <time>2022-12-12T14:44:59.826Z</time>
      </trkpt>
      <trkpt lat="48.19834" lon="-2.99957">
        <ele>199.230405</ele>
        <time>2022-12-12T14:45:03.812Z</time>
      </trkpt>
      <trkpt lat="48.19826" lon="-2.99967">
        <ele>198.932373</ele>
        <time>2022-12-12T14:45:07.816Z</time>
      </trkpt>
      <trkpt lat="48.19817" lon="-2.99974">
        <ele>198.627444</ele>
        <time>2022-12-12T14:45:13.810Z</time>
      </trkpt>
      <trkpt lat="48.19807" lon="-2.99984">
        <ele>198.27816</ele>
        <time>2022-12-12T14:45:17.819Z</time>
      </trkpt>
      <trkpt lat="48.19798" lon="-2.99991">
        <ele>197.985186</ele>
        <time>2022-12-12T14:45:20.824Z</time>
      </trkpt>
      <trkpt lat="48.1979" lon="-3.00001">
        <ele>197.676917</ele>
        <time>2022-12-12T14:45:23.833Z</time>
      </trkpt>
      <trkpt lat="48.19782" lon="-3.00011">
        <ele>197.371467</ele>
        <time>2022-12-12T14:45:26.811Z</time>
      </trkpt>
      <trkpt lat="48.19775" lon="-3.00022">
        <ele>197.086554</ele>
        <time>2022-12-12T14:45:29.826Z</time>
      </trkpt>
      <trkpt lat="48.19769" lon="-3.00036">
        <ele>196.777931</ele>
        <time>2022-12-12T14:45:33.813Z</time>
      </trkpt>
      <trkpt lat="48.19763" lon="-3.0005">
        <ele>196.448018</ele>
        <time>2022-12-12T14:45:37.817Z</time>
      </trkpt>
      <trkpt lat="48.19759" lon="-3.00063">
        <ele>196.182681</ele>
        <time>2022-12-12T14:45:40.816Z</time>
      </trkpt>
      <trkpt lat="48.19755" lon="-3.00077">
        <ele>195.874925</ele>
        <time>2022-12-12T14:45:44.829Z</time>
      </trkpt>
      <trkpt lat="48.19753" lon="-3.00091">
        <ele>195.600022</ele>
        <time>2022-12-12T14:45:47.825Z</time>
      </trkpt>
      <trkpt lat="48.19751" lon="-3.00105">
        <ele>195.327086</ele>
        <time>2022-12-12T14:45:50.827Z</time>
      </trkpt>
      <trkpt lat="48.19748" lon="-3.00121">
        <ele>195.007139</ele>
        <time>2022-12-12T14:45:53.814Z</time>
      </trkpt>
      <trkpt lat="48.19745" lon="-3.00136">
        <ele>194.705454</ele>
        <time>2022-12-12T14:45:56.825Z</time>
      </trkpt>
      <trkpt lat="48.19744" lon="-3.00151">
        <ele>194.582312</ele>
        <time>2022-12-12T14:45:59.814Z</time>
      </trkpt>
      <trkpt lat="48.19743" lon="-3.00168">
        <ele>194.6064</ele>
        <time>2022-12-12T14:46:03.831Z</time>
      </trkpt>
      <trkpt lat="48.19742" lon="-3.00182">
        <ele>194.625679</ele>
        <time>2022-12-12T14:46:06.830Z</time>
      </trkpt>
      <trkpt lat="48.19741" lon="-3.00196">
        <ele>194.645762</ele>
        <time>2022-12-12T14:46:09.817Z</time>
      </trkpt>
      <trkpt lat="48.19741" lon="-3.0021">
        <ele>194.665084</ele>
        <time>2022-12-12T14:46:12.823Z</time>
      </trkpt>
      <trkpt lat="48.19739" lon="-3.00226">
        <ele>194.687764</ele>
        <time>2022-12-12T14:46:16.807Z</time>
      </trkpt>
      <trkpt lat="48.19738" lon="-3.00241">
        <ele>194.708334</ele>
        <time>2022-12-12T14:46:19.817Z</time>
      </trkpt>
      <trkpt lat="48.19735" lon="-3.00256">
        <ele>194.73009</ele>
        <time>2022-12-12T14:46:22.823Z</time>
      </trkpt>
      <trkpt lat="48.19733" lon="-3.00273">
        <ele>194.753591</ele>
        <time>2022-12-12T14:46:25.809Z</time>
      </trkpt>
      <trkpt lat="48.19732" lon="-3.0029">
        <ele>194.777436</ele>
        <time>2022-12-12T14:46:28.828Z</time>
      </trkpt>
      <trkpt lat="48.1973" lon="-3.00306">
        <ele>194.79933</ele>
        <time>2022-12-12T14:46:31.830Z</time>
      </trkpt>
      <trkpt lat="48.19728" lon="-3.0032">
        <ele>194.819034</ele>
        <time>2022-12-12T14:46:34.828Z</time>
      </trkpt>
      <trkpt lat="48.19727" lon="-3.00336">
        <ele>194.841668</ele>
        <time>2022-12-12T14:46:38.830Z</time>
      </trkpt>
      <trkpt lat="48.19725" lon="-3.00352">
        <ele>194.864039</ele>
        <time>2022-12-12T14:46:43.807Z</time>
      </trkpt>
      <trkpt lat="48.19724" lon="-3.00367">
        <ele>194.885934</ele>
        <time>2022-12-12T14:46:48.809Z</time>
      </trkpt>
      <trkpt lat="48.19718" lon="-3.00381">
        <ele>194.908096</ele>
        <time>2022-12-12T14:46:53.810Z</time>
      </trkpt>
      <trkpt lat="48.19713" lon="-3.00392">
        <ele>194.927373</ele>
        <time>2022-12-12T14:46:56.825Z</time>
      </trkpt>
      <trkpt lat="48.19705" lon="-3.00407">
        <ele>194.969742</ele>
        <time>2022-12-12T14:46:59.816Z</time>
      </trkpt>
      <trkpt lat="48.19698" lon="-3.00418">
        <ele>195.027462</ele>
        <time>2022-12-12T14:47:01.826Z</time>
      </trkpt>
      <trkpt lat="48.19691" lon="-3.00429">
        <ele>195.086121</ele>
        <time>2022-12-12T14:47:03.815Z</time>
      </trkpt>
      <trkpt lat="48.19684" lon="-3.0044">
        <ele>195.144876</ele>
        <time>2022-12-12T14:47:05.819Z</time>
      </trkpt>
      <trkpt lat="48.19678" lon="-3.00453">
        <ele>195.207661</ele>
        <time>2022-12-12T14:47:07.825Z</time>
      </trkpt>
      <trkpt lat="48.19671" lon="-3.00467">
        <ele>195.273374</ele>
        <time>2022-12-12T14:47:09.827Z</time>
      </trkpt>
      <trkpt lat="48.19664" lon="-3.00481">
        <ele>195.342991</ele>
        <time>2022-12-12T14:47:11.828Z</time>
      </trkpt>
      <trkpt lat="48.19657" lon="-3.00494">
        <ele>195.411388</ele>
        <time>2022-12-12T14:47:13.826Z</time>
      </trkpt>
      <trkpt lat="48.19648" lon="-3.00509">
        <ele>195.486778</ele>
        <time>2022-12-12T14:47:15.814Z</time>
      </trkpt>
      <trkpt lat="48.19641" lon="-3.00523">
        <ele>195.557685</ele>
        <time>2022-12-12T14:47:17.824Z</time>
      </trkpt>
      <trkpt lat="48.19634" lon="-3.00536">
        <ele>195.622203</ele>
        <time>2022-12-12T14:47:19.814Z</time>
      </trkpt>
      <trkpt lat="48.19628" lon="-3.00548">
        <ele>195.680197</ele>
        <time>2022-12-12T14:47:21.826Z</time>
      </trkpt>
      <trkpt lat="48.19619" lon="-3.00562">
        <ele>195.755576</ele>
        <time>2022-12-12T14:47:24.844Z</time>
      </trkpt>
      <trkpt lat="48.19613" lon="-3.00572">
        <ele>195.80983</ele>
        <time>2022-12-12T14:47:27.828Z</time>
      </trkpt>
      <trkpt lat="48.19606" lon="-3.00582">
        <ele>195.863552</ele>
        <time>2022-12-12T14:47:30.827Z</time>
      </trkpt>
      <trkpt lat="48.19601" lon="-3.00595">
        <ele>195.924993</ele>
        <time>2022-12-12T14:47:34.825Z</time>
      </trkpt>
      <trkpt lat="48.19602" lon="-3.00611">
        <ele>195.986838</ele>
        <time>2022-12-12T14:47:39.816Z</time>
      </trkpt>
      <trkpt lat="48.19606" lon="-3.00625">
        <ele>196.438162</ele>
        <time>2022-12-12T14:47:44.828Z</time>
      </trkpt>
      <trkpt lat="48.19609" lon="-3.00638">
        <ele>196.943214</ele>
        <time>2022-12-12T14:47:49.818Z</time>
      </trkpt>
      <trkpt lat="48.19614" lon="-3.00651">
        <ele>197.503101</ele>
        <time>2022-12-12T14:47:55.815Z</time>
      </trkpt>
      <trkpt lat="48.19618" lon="-3.00665">
        <ele>198.05337</ele>
        <time>2022-12-12T14:48:01.814Z</time>
      </trkpt>
      <trkpt lat="48.19621" lon="-3.00678">
        <ele>198.568088</ele>
        <time>2022-12-12T14:48:09.807Z</time>
      </trkpt>
      <trkpt lat="48.19622" lon="-3.00693">
        <ele>199.116458</ele>
        <time>2022-12-12T14:48:16.818Z</time>
      </trkpt>
      <trkpt lat="48.19619" lon="-3.00706">
        <ele>199.616255</ele>
        <time>2022-12-12T14:48:23.810Z</time>
      </trkpt>
      <trkpt lat="48.19618" lon="-3.0072">
        <ele>200.13519</ele>
        <time>2022-12-12T14:48:30.816Z</time>
      </trkpt>
      <trkpt lat="48.19615" lon="-3.00735">
        <ele>200.696462</ele>
        <time>2022-12-12T14:48:37.813Z</time>
      </trkpt>
      <trkpt lat="48.19612" lon="-3.00748">
        <ele>201.237091</ele>
        <time>2022-12-12T14:48:44.820Z</time>
      </trkpt>
      <trkpt lat="48.19607" lon="-3.00763">
        <ele>201.813022</ele>
        <time>2022-12-12T14:48:51.815Z</time>
      </trkpt>
      <trkpt lat="48.19603" lon="-3.00775">
        <ele>202.313068</ele>
        <time>2022-12-12T14:48:57.816Z</time>
      </trkpt>
      <trkpt lat="48.196" lon="-3.00788">
        <ele>202.811513</ele>
        <time>2022-12-12T14:49:03.809Z</time>
      </trkpt>
      <trkpt lat="48.19595" lon="-3.00801">
        <ele>203.374418</ele>
        <time>2022-12-12T14:49:09.808Z</time>
      </trkpt>
      <trkpt lat="48.1959" lon="-3.00813">
        <ele>203.907208</ele>
        <time>2022-12-12T14:49:15.813Z</time>
      </trkpt>
      <trkpt lat="48.19585" lon="-3.00827">
        <ele>204.491521</ele>
        <time>2022-12-12T14:49:21.808Z</time>
      </trkpt>
      <trkpt lat="48.1958" lon="-3.00841">
        <ele>205.055527</ele>
        <time>2022-12-12T14:49:27.804Z</time>
      </trkpt>
      <trkpt lat="48.19577" lon="-3.00856">
        <ele>205.631948</ele>
        <time>2022-12-12T14:49:33.815Z</time>
      </trkpt>
      <trkpt lat="48.19571" lon="-3.00867">
        <ele>205.794791</ele>
        <time>2022-12-12T14:49:39.818Z</time>
      </trkpt>
      <trkpt lat="48.19562" lon="-3.0087">
        <ele>205.558872</ele>
        <time>2022-12-12T14:49:44.814Z</time>
      </trkpt>
      <trkpt lat="48.19552" lon="-3.00872">
        <ele>205.32644</ele>
        <time>2022-12-12T14:49:49.829Z</time>
      </trkpt>
      <trkpt lat="48.19542" lon="-3.00878">
        <ele>205.071445</ele>
        <time>2022-12-12T14:49:54.815Z</time>
      </trkpt>
      <trkpt lat="48.19532" lon="-3.00882">
        <ele>204.821876</ele>
        <time>2022-12-12T14:49:58.823Z</time>
      </trkpt>
      <trkpt lat="48.19523" lon="-3.00886">
        <ele>204.592733</ele>
        <time>2022-12-12T14:50:02.828Z</time>
      </trkpt>
      <trkpt lat="48.19514" lon="-3.00888">
        <ele>204.356237</ele>
        <time>2022-12-12T14:50:06.824Z</time>
      </trkpt>
      <trkpt lat="48.19504" lon="-3.00892">
        <ele>204.112146</ele>
        <time>2022-12-12T14:50:10.828Z</time>
      </trkpt>
      <trkpt lat="48.19494" lon="-3.00894">
        <ele>203.87017</ele>
        <time>2022-12-12T14:50:14.831Z</time>
      </trkpt>
      <trkpt lat="48.19483" lon="-3.00897">
        <ele>203.592336</ele>
        <time>2022-12-12T14:50:18.838Z</time>
      </trkpt>
      <trkpt lat="48.19473" lon="-3.00898">
        <ele>203.3568</ele>
        <time>2022-12-12T14:50:21.830Z</time>
      </trkpt>
      <trkpt lat="48.19463" lon="-3.00897">
        <ele>203.124469</ele>
        <time>2022-12-12T14:50:24.827Z</time>
      </trkpt>
      <trkpt lat="48.19453" lon="-3.00898">
        <ele>202.87285</ele>
        <time>2022-12-12T14:50:27.809Z</time>
      </trkpt>
      <trkpt lat="48.19441" lon="-3.00899">
        <ele>202.59491</ele>
        <time>2022-12-12T14:50:30.827Z</time>
      </trkpt>
      <trkpt lat="48.1943" lon="-3.00899">
        <ele>202.312267</ele>
        <time>2022-12-12T14:50:33.844Z</time>
      </trkpt>
      <trkpt lat="48.19418" lon="-3.00899">
        <ele>202.022401</ele>
        <time>2022-12-12T14:50:36.828Z</time>
      </trkpt>
      <trkpt lat="48.19407" lon="-3.009">
        <ele>201.756117</ele>
        <time>2022-12-12T14:50:39.827Z</time>
      </trkpt>
      <trkpt lat="48.19396" lon="-3.009">
        <ele>201.423466</ele>
        <time>2022-12-12T14:50:42.826Z</time>
      </trkpt>
      <trkpt lat="48.19385" lon="-3.009">
        <ele>200.897308</ele>
        <time>2022-12-12T14:50:45.827Z</time>
      </trkpt>
      <trkpt lat="48.19374" lon="-3.00899">
        <ele>200.371269</ele>
        <time>2022-12-12T14:50:48.821Z</time>
      </trkpt>
      <trkpt lat="48.19363" lon="-3.00898">
        <ele>199.820144</ele>
        <time>2022-12-12T14:50:51.819Z</time>
      </trkpt>
      <trkpt lat="48.19351" lon="-3.00898">
        <ele>199.225393</ele>
        <time>2022-12-12T14:50:54.842Z</time>
      </trkpt>
      <trkpt lat="48.19339" lon="-3.00898">
        <ele>198.674804</ele>
        <time>2022-12-12T14:50:57.820Z</time>
      </trkpt>
      <trkpt lat="48.19329" lon="-3.00899">
        <ele>198.171647</ele>
        <time>2022-12-12T14:51:00.830Z</time>
      </trkpt>
      <trkpt lat="48.19317" lon="-3.00899">
        <ele>197.591929</ele>
        <time>2022-12-12T14:51:04.842Z</time>
      </trkpt>
      <trkpt lat="48.19307" lon="-3.00899">
        <ele>197.109666</ele>
        <time>2022-12-12T14:51:07.816Z</time>
      </trkpt>
      <trkpt lat="48.19296" lon="-3.00901">
        <ele>196.552588</ele>
        <time>2022-12-12T14:51:10.827Z</time>
      </trkpt>
      <trkpt lat="48.19284" lon="-3.00902">
        <ele>195.971481</ele>
        <time>2022-12-12T14:51:13.829Z</time>
      </trkpt>
      <trkpt lat="48.19273" lon="-3.00904">
        <ele>195.441082</ele>
        <time>2022-12-12T14:51:16.828Z</time>
      </trkpt>
      <trkpt lat="48.19262" lon="-3.00908">
        <ele>194.873014</ele>
        <time>2022-12-12T14:51:19.829Z</time>
      </trkpt>
      <trkpt lat="48.1925" lon="-3.00912">
        <ele>194.28633</ele>
        <time>2022-12-12T14:51:22.823Z</time>
      </trkpt>
      <trkpt lat="48.19239" lon="-3.00916">
        <ele>193.727164</ele>
        <time>2022-12-12T14:51:25.815Z</time>
      </trkpt>
      <trkpt lat="48.19228" lon="-3.00919">
        <ele>193.173057</ele>
        <time>2022-12-12T14:51:28.832Z</time>
      </trkpt>
      <trkpt lat="48.19217" lon="-3.00922">
        <ele>192.554288</ele>
        <time>2022-12-12T14:51:31.827Z</time>
      </trkpt>
      <trkpt lat="48.19205" lon="-3.00925">
        <ele>191.808651</ele>
        <time>2022-12-12T14:51:34.829Z</time>
      </trkpt>
      <trkpt lat="48.19194" lon="-3.00928">
        <ele>191.034919</ele>
        <time>2022-12-12T14:51:37.834Z</time>
      </trkpt>
      <trkpt lat="48.19183" lon="-3.00931">
        <ele>190.289605</ele>
        <time>2022-12-12T14:51:40.836Z</time>
      </trkpt>
      <trkpt lat="48.19172" lon="-3.00936">
        <ele>189.523281</ele>
        <time>2022-12-12T14:51:43.829Z</time>
      </trkpt>
      <trkpt lat="48.19161" lon="-3.00941">
        <ele>188.801012</ele>
        <time>2022-12-12T14:51:46.829Z</time>
      </trkpt>
      <trkpt lat="48.19151" lon="-3.00946">
        <ele>188.092659</ele>
        <time>2022-12-12T14:51:49.839Z</time>
      </trkpt>
      <trkpt lat="48.19141" lon="-3.00952">
        <ele>187.353691</ele>
        <time>2022-12-12T14:51:52.825Z</time>
      </trkpt>
      <trkpt lat="48.1913" lon="-3.00957">
        <ele>186.630042</ele>
        <time>2022-12-12T14:51:55.830Z</time>
      </trkpt>
      <trkpt lat="48.19121" lon="-3.00962">
        <ele>185.983625</ele>
        <time>2022-12-12T14:51:58.828Z</time>
      </trkpt>
      <trkpt lat="48.19112" lon="-3.00967">
        <ele>185.339235</ele>
        <time>2022-12-12T14:52:01.808Z</time>
      </trkpt>
      <trkpt lat="48.19102" lon="-3.00972">
        <ele>184.682331</ele>
        <time>2022-12-12T14:52:04.838Z</time>
      </trkpt>
      <trkpt lat="48.19092" lon="-3.00977">
        <ele>183.992773</ele>
        <time>2022-12-12T14:52:08.844Z</time>
      </trkpt>
      <trkpt lat="48.19084" lon="-3.00983">
        <ele>183.370853</ele>
        <time>2022-12-12T14:52:12.816Z</time>
      </trkpt>
      <trkpt lat="48.19075" lon="-3.0099">
        <ele>182.713519</ele>
        <time>2022-12-12T14:52:16.831Z</time>
      </trkpt>
      <trkpt lat="48.19068" lon="-3.00999">
        <ele>182.07434</ele>
        <time>2022-12-12T14:52:19.816Z</time>
      </trkpt>
      <trkpt lat="48.19062" lon="-3.01011">
        <ele>181.440504</ele>
        <time>2022-12-12T14:52:22.819Z</time>
      </trkpt>
      <trkpt lat="48.19056" lon="-3.01022">
        <ele>180.773323</ele>
        <time>2022-12-12T14:52:25.825Z</time>
      </trkpt>
      <trkpt lat="48.19049" lon="-3.01034">
        <ele>179.962514</ele>
        <time>2022-12-12T14:52:28.829Z</time>
      </trkpt>
      <trkpt lat="48.19043" lon="-3.01046">
        <ele>179.160714</ele>
        <time>2022-12-12T14:52:31.818Z</time>
      </trkpt>
      <trkpt lat="48.19037" lon="-3.01058">
        <ele>178.384549</ele>
        <time>2022-12-12T14:52:34.817Z</time>
      </trkpt>
      <trkpt lat="48.19029" lon="-3.01071">
        <ele>177.470734</ele>
        <time>2022-12-12T14:52:38.827Z</time>
      </trkpt>
      <trkpt lat="48.19024" lon="-3.01082">
        <ele>176.749602</ele>
        <time>2022-12-12T14:52:41.837Z</time>
      </trkpt>
      <trkpt lat="48.19018" lon="-3.01094">
        <ele>175.998342</ele>
        <time>2022-12-12T14:52:44.829Z</time>
      </trkpt>
      <trkpt lat="48.19011" lon="-3.01106">
        <ele>175.155333</ele>
        <time>2022-12-12T14:52:47.833Z</time>
      </trkpt>
      <trkpt lat="48.19004" lon="-3.01116">
        <ele>174.401785</ele>
        <time>2022-12-12T14:52:50.842Z</time>
      </trkpt>
      <trkpt lat="48.18997" lon="-3.01129">
        <ele>173.529987</ele>
        <time>2022-12-12T14:52:54.814Z</time>
      </trkpt>
      <trkpt lat="48.18989" lon="-3.01142">
        <ele>172.623417</ele>
        <time>2022-12-12T14:52:58.819Z</time>
      </trkpt>
      <trkpt lat="48.18982" lon="-3.01152">
        <ele>171.832924</ele>
        <time>2022-12-12T14:53:01.811Z</time>
      </trkpt>
      <trkpt lat="48.18975" lon="-3.01163">
        <ele>171.11439</ele>
        <time>2022-12-12T14:53:04.831Z</time>
      </trkpt>
      <trkpt lat="48.18968" lon="-3.01171">
        <ele>170.395723</ele>
        <time>2022-12-12T14:53:07.827Z</time>
      </trkpt>
      <trkpt lat="48.1896" lon="-3.01178">
        <ele>169.69268</ele>
        <time>2022-12-12T14:53:10.810Z</time>
      </trkpt>
      <trkpt lat="48.18953" lon="-3.01187">
        <ele>168.946173</ele>
        <time>2022-12-12T14:53:13.841Z</time>
      </trkpt>
      <trkpt lat="48.18943" lon="-3.01198">
        <ele>168.01204</ele>
        <time>2022-12-12T14:53:17.829Z</time>
      </trkpt>
      <trkpt lat="48.18934" lon="-3.01208">
        <ele>167.131254</ele>
        <time>2022-12-12T14:53:21.817Z</time>
      </trkpt>
      <trkpt lat="48.18927" lon="-3.01217">
        <ele>166.142814</ele>
        <time>2022-12-12T14:53:24.828Z</time>
      </trkpt>
      <trkpt lat="48.18919" lon="-3.01227">
        <ele>164.897411</ele>
        <time>2022-12-12T14:53:27.840Z</time>
      </trkpt>
      <trkpt lat="48.18911" lon="-3.01237">
        <ele>163.593079</ele>
        <time>2022-12-12T14:53:30.811Z</time>
      </trkpt>
      <trkpt lat="48.18902" lon="-3.01248">
        <ele>162.256058</ele>
        <time>2022-12-12T14:53:33.830Z</time>
      </trkpt>
      <trkpt lat="48.18894" lon="-3.01259">
        <ele>160.940133</ele>
        <time>2022-12-12T14:53:36.826Z</time>
      </trkpt>
      <trkpt lat="48.18887" lon="-3.01269">
        <ele>159.826723</ele>
        <time>2022-12-12T14:53:39.830Z</time>
      </trkpt>
      <trkpt lat="48.18879" lon="-3.01281">
        <ele>158.423709</ele>
        <time>2022-12-12T14:53:43.835Z</time>
      </trkpt>
      <trkpt lat="48.18871" lon="-3.0129">
        <ele>157.315822</ele>
        <time>2022-12-12T14:53:46.810Z</time>
      </trkpt>
      <trkpt lat="48.18863" lon="-3.01301">
        <ele>155.959501</ele>
        <time>2022-12-12T14:53:50.822Z</time>
      </trkpt>
      <trkpt lat="48.18855" lon="-3.0131">
        <ele>154.815634</ele>
        <time>2022-12-12T14:53:54.825Z</time>
      </trkpt>
      <trkpt lat="48.18848" lon="-3.0132">
        <ele>153.627506</ele>
        <time>2022-12-12T14:53:59.816Z</time>
      </trkpt>
      <trkpt lat="48.18848" lon="-3.01335">
        <ele>152.433117</ele>
        <time>2022-12-12T14:54:05.816Z</time>
      </trkpt>
      <trkpt lat="48.18855" lon="-3.01347">
        <ele>151.18079</ele>
        <time>2022-12-12T14:54:09.812Z</time>
      </trkpt>
      <trkpt lat="48.18864" lon="-3.01356">
        <ele>149.868021</ele>
        <time>2022-12-12T14:54:13.828Z</time>
      </trkpt>
      <trkpt lat="48.18872" lon="-3.01364">
        <ele>148.677347</ele>
        <time>2022-12-12T14:54:16.815Z</time>
      </trkpt>
      <trkpt lat="48.18882" lon="-3.01373">
        <ele>147.267795</ele>
        <time>2022-12-12T14:54:19.809Z</time>
      </trkpt>
      <trkpt lat="48.18891" lon="-3.01382">
        <ele>146.04559</ele>
        <time>2022-12-12T14:54:21.830Z</time>
      </trkpt>
      <trkpt lat="48.18898" lon="-3.01391">
        <ele>145.187337</ele>
        <time>2022-12-12T14:54:23.831Z</time>
      </trkpt>
      <trkpt lat="48.18907" lon="-3.01401">
        <ele>144.61461</ele>
        <time>2022-12-12T14:54:25.810Z</time>
      </trkpt>
      <trkpt lat="48.18916" lon="-3.01414">
        <ele>143.999826</ele>
        <time>2022-12-12T14:54:27.826Z</time>
      </trkpt>
      <trkpt lat="48.18923" lon="-3.01426">
        <ele>143.428768</ele>
        <time>2022-12-12T14:54:29.819Z</time>
      </trkpt>
      <trkpt lat="48.18931" lon="-3.01439">
        <ele>142.838437</ele>
        <time>2022-12-12T14:54:31.826Z</time>
      </trkpt>
      <trkpt lat="48.18938" lon="-3.01452">
        <ele>142.274638</ele>
        <time>2022-12-12T14:54:33.834Z</time>
      </trkpt>
      <trkpt lat="48.18944" lon="-3.01464">
        <ele>141.756543</ele>
        <time>2022-12-12T14:54:35.836Z</time>
      </trkpt>
      <trkpt lat="48.1895" lon="-3.01475">
        <ele>141.237517</ele>
        <time>2022-12-12T14:54:37.825Z</time>
      </trkpt>
      <trkpt lat="48.18956" lon="-3.01487">
        <ele>140.740454</ele>
        <time>2022-12-12T14:54:39.820Z</time>
      </trkpt>
      <trkpt lat="48.18961" lon="-3.015">
        <ele>140.245851</ele>
        <time>2022-12-12T14:54:41.814Z</time>
      </trkpt>
      <trkpt lat="48.18966" lon="-3.01513">
        <ele>139.699067</ele>
        <time>2022-12-12T14:54:43.819Z</time>
      </trkpt>
      <trkpt lat="48.18971" lon="-3.01527">
        <ele>139.157351</ele>
        <time>2022-12-12T14:54:45.830Z</time>
      </trkpt>
      <trkpt lat="48.18976" lon="-3.01541">
        <ele>138.631423</ele>
        <time>2022-12-12T14:54:47.842Z</time>
      </trkpt>
      <trkpt lat="48.18981" lon="-3.01554">
        <ele>138.105328</ele>
        <time>2022-12-12T14:54:49.829Z</time>
      </trkpt>
      <trkpt lat="48.18985" lon="-3.01568">
        <ele>137.578695</ele>
        <time>2022-12-12T14:54:51.814Z</time>
      </trkpt>
      <trkpt lat="48.18989" lon="-3.01586">
        <ele>136.915475</ele>
        <time>2022-12-12T14:54:54.831Z</time>
      </trkpt>
      <trkpt lat="48.18993" lon="-3.01605">
        <ele>136.234439</ele>
        <time>2022-12-12T14:54:57.828Z</time>
      </trkpt>
      <trkpt lat="48.18996" lon="-3.01619">
        <ele>135.804031</ele>
        <time>2022-12-12T14:54:59.824Z</time>
      </trkpt>
      <trkpt lat="48.18999" lon="-3.01637">
        <ele>135.253793</ele>
        <time>2022-12-12T14:55:02.830Z</time>
      </trkpt>
      <trkpt lat="48.19" lon="-3.0165">
        <ele>134.848628</ele>
        <time>2022-12-12T14:55:04.830Z</time>
      </trkpt>
      <trkpt lat="48.19003" lon="-3.01667">
        <ele>134.325685</ele>
        <time>2022-12-12T14:55:07.817Z</time>
      </trkpt>
      <trkpt lat="48.19005" lon="-3.01683">
        <ele>133.829769</ele>
        <time>2022-12-12T14:55:10.826Z</time>
      </trkpt>
      <trkpt lat="48.19007" lon="-3.017">
        <ele>133.332984</ele>
        <time>2022-12-12T14:55:14.844Z</time>
      </trkpt>
      <trkpt lat="48.1901" lon="-3.01715">
        <ele>132.855543</ele>
        <time>2022-12-12T14:55:18.826Z</time>
      </trkpt>
      <trkpt lat="48.19001" lon="-3.01708">
        <ele>132.41667</ele>
        <time>2022-12-12T14:56:03.815Z</time>
      </trkpt>
      <trkpt lat="48.18995" lon="-3.01696">
        <ele>131.942688</ele>
        <time>2022-12-12T14:56:07.826Z</time>
      </trkpt>
      <trkpt lat="48.18988" lon="-3.01668">
        <ele>131.064187</ele>
        <time>2022-12-12T14:56:44.812Z</time>
      </trkpt>
      <trkpt lat="48.1898" lon="-3.01656">
        <ele>130.54878</ele>
        <time>2022-12-12T14:56:47.812Z</time>
      </trkpt>
      <trkpt lat="48.18973" lon="-3.01643">
        <ele>130.076041</ele>
        <time>2022-12-12T14:56:50.810Z</time>
      </trkpt>
      <trkpt lat="48.18967" lon="-3.01632">
        <ele>129.64451</ele>
        <time>2022-12-12T14:56:53.831Z</time>
      </trkpt>
      <trkpt lat="48.18961" lon="-3.01622">
        <ele>129.228474</ele>
        <time>2022-12-12T14:56:56.839Z</time>
      </trkpt>
      <trkpt lat="48.18955" lon="-3.0161">
        <ele>128.760903</ele>
        <time>2022-12-12T14:57:00.837Z</time>
      </trkpt>
      <trkpt lat="48.18946" lon="-3.01597">
        <ele>128.206354</ele>
        <time>2022-12-12T14:57:04.836Z</time>
      </trkpt>
      <trkpt lat="48.18939" lon="-3.01586">
        <ele>128.077859</ele>
        <time>2022-12-12T14:57:07.839Z</time>
      </trkpt>
      <trkpt lat="48.18932" lon="-3.01577">
        <ele>128.044445</ele>
        <time>2022-12-12T14:57:10.830Z</time>
      </trkpt>
      <trkpt lat="48.18924" lon="-3.01566">
        <ele>128.004532</ele>
        <time>2022-12-12T14:57:14.830Z</time>
      </trkpt>
      <trkpt lat="48.18917" lon="-3.01557">
        <ele>127.971884</ele>
        <time>2022-12-12T14:57:18.831Z</time>
      </trkpt>
      <trkpt lat="48.1891" lon="-3.01547">
        <ele>127.936404</ele>
        <time>2022-12-12T14:57:24.816Z</time>
      </trkpt>
      <trkpt lat="48.18901" lon="-3.01534">
        <ele>127.888601</ele>
        <time>2022-12-12T14:57:51.815Z</time>
      </trkpt>
      <trkpt lat="48.18892" lon="-3.01522">
        <ele>127.847221</ele>
        <time>2022-12-12T14:57:55.817Z</time>
      </trkpt>
      <trkpt lat="48.18885" lon="-3.01512">
        <ele>127.81192</ele>
        <time>2022-12-12T14:57:58.833Z</time>
      </trkpt>
      <trkpt lat="48.18879" lon="-3.01502">
        <ele>127.777871</ele>
        <time>2022-12-12T14:58:01.842Z</time>
      </trkpt>
      <trkpt lat="48.1887" lon="-3.01492">
        <ele>127.738282</ele>
        <time>2022-12-12T14:58:05.843Z</time>
      </trkpt>
      <trkpt lat="48.18863" lon="-3.01481">
        <ele>127.701505</ele>
        <time>2022-12-12T14:58:09.814Z</time>
      </trkpt>
      <trkpt lat="48.18856" lon="-3.01471">
        <ele>127.667321</ele>
        <time>2022-12-12T14:58:13.829Z</time>
      </trkpt>
      <trkpt lat="48.18848" lon="-3.0146">
        <ele>127.626913</ele>
        <time>2022-12-12T14:58:18.828Z</time>
      </trkpt>
      <trkpt lat="48.18841" lon="-3.01449">
        <ele>127.589103</ele>
        <time>2022-12-12T14:58:23.831Z</time>
      </trkpt>
      <trkpt lat="48.18833" lon="-3.01439">
        <ele>127.551194</ele>
        <time>2022-12-12T14:58:30.821Z</time>
      </trkpt>
      <trkpt lat="48.18827" lon="-3.01428">
        <ele>127.516848</ele>
        <time>2022-12-12T14:58:35.816Z</time>
      </trkpt>
      <trkpt lat="48.1882" lon="-3.01416">
        <ele>127.477843</ele>
        <time>2022-12-12T14:58:39.819Z</time>
      </trkpt>
      <trkpt lat="48.18813" lon="-3.01407">
        <ele>127.441467</ele>
        <time>2022-12-12T14:58:42.816Z</time>
      </trkpt>
      <trkpt lat="48.18806" lon="-3.01398">
        <ele>127.387793</ele>
        <time>2022-12-12T14:58:45.814Z</time>
      </trkpt>
      <trkpt lat="48.18799" lon="-3.01389">
        <ele>127.333427</ele>
        <time>2022-12-12T14:58:48.833Z</time>
      </trkpt>
      <trkpt lat="48.18792" lon="-3.01378">
        <ele>127.276145</ele>
        <time>2022-12-12T14:58:51.825Z</time>
      </trkpt>
      <trkpt lat="48.18786" lon="-3.01367">
        <ele>127.218589</ele>
        <time>2022-12-12T14:58:54.838Z</time>
      </trkpt>
      <trkpt lat="48.18778" lon="-3.01356">
        <ele>127.159248</ele>
        <time>2022-12-12T14:58:57.815Z</time>
      </trkpt>
      <trkpt lat="48.18772" lon="-3.01346">
        <ele>127.104153</ele>
        <time>2022-12-12T14:59:00.835Z</time>
      </trkpt>
      <trkpt lat="48.18765" lon="-3.01337">
        <ele>127.050399</ele>
        <time>2022-12-12T14:59:03.809Z</time>
      </trkpt>
      <trkpt lat="48.18757" lon="-3.01327">
        <ele>126.991437</ele>
        <time>2022-12-12T14:59:06.841Z</time>
      </trkpt>
      <trkpt lat="48.1875" lon="-3.01316">
        <ele>126.930725</ele>
        <time>2022-12-12T14:59:09.813Z</time>
      </trkpt>
      <trkpt lat="48.18742" lon="-3.01305">
        <ele>126.867366</ele>
        <time>2022-12-12T14:59:12.832Z</time>
      </trkpt>
      <trkpt lat="48.18733" lon="-3.01294">
        <ele>126.801073</ele>
        <time>2022-12-12T14:59:15.825Z</time>
      </trkpt>
      <trkpt lat="48.18724" lon="-3.01283">
        <ele>126.734324</ele>
        <time>2022-12-12T14:59:18.846Z</time>
      </trkpt>
      <trkpt lat="48.18716" lon="-3.01275">
        <ele>126.676681</ele>
        <time>2022-12-12T14:59:21.829Z</time>
      </trkpt>
      <trkpt lat="48.18707" lon="-3.01269">
        <ele>126.620344</ele>
        <time>2022-12-12T14:59:24.816Z</time>
      </trkpt>
      <trkpt lat="48.18697" lon="-3.01261">
        <ele>126.555609</ele>
        <time>2022-12-12T14:59:28.829Z</time>
      </trkpt>
      <trkpt lat="48.18688" lon="-3.01253">
        <ele>126.497144</ele>
        <time>2022-12-12T14:59:31.832Z</time>
      </trkpt>
      <trkpt lat="48.18679" lon="-3.01247">
        <ele>126.436992</ele>
        <time>2022-12-12T14:59:34.829Z</time>
      </trkpt>
      <trkpt lat="48.18669" lon="-3.01239">
        <ele>126.465931</ele>
        <time>2022-12-12T14:59:37.832Z</time>
      </trkpt>
      <trkpt lat="48.18659" lon="-3.01232">
        <ele>126.610938</ele>
        <time>2022-12-12T14:59:40.831Z</time>
      </trkpt>
      <trkpt lat="48.18648" lon="-3.01226">
        <ele>126.761699</ele>
        <time>2022-12-12T14:59:43.834Z</time>
      </trkpt>
      <trkpt lat="48.18636" lon="-3.0122">
        <ele>126.912531</ele>
        <time>2022-12-12T14:59:46.831Z</time>
      </trkpt>
      <trkpt lat="48.18625" lon="-3.01214">
        <ele>127.066005</ele>
        <time>2022-12-12T14:59:49.839Z</time>
      </trkpt>
      <trkpt lat="48.18613" lon="-3.01209">
        <ele>127.222744</ele>
        <time>2022-12-12T14:59:52.841Z</time>
      </trkpt>
      <trkpt lat="48.18602" lon="-3.01203">
        <ele>127.371745</ele>
        <time>2022-12-12T14:59:55.837Z</time>
      </trkpt>
      <trkpt lat="48.18591" lon="-3.01196">
        <ele>127.519984</ele>
        <time>2022-12-12T14:59:58.836Z</time>
      </trkpt>
      <trkpt lat="48.18579" lon="-3.0119">
        <ele>127.670461</ele>
        <time>2022-12-12T15:00:01.830Z</time>
      </trkpt>
      <trkpt lat="48.1857" lon="-3.01185">
        <ele>127.790427</ele>
        <time>2022-12-12T15:00:04.821Z</time>
      </trkpt>
      <trkpt lat="48.1856" lon="-3.01179">
        <ele>127.93034</ele>
        <time>2022-12-12T15:00:08.830Z</time>
      </trkpt>
      <trkpt lat="48.18549" lon="-3.01173">
        <ele>128.075254</ele>
        <time>2022-12-12T15:00:12.828Z</time>
      </trkpt>
      <trkpt lat="48.1854" lon="-3.01168">
        <ele>128.19346</ele>
        <time>2022-12-12T15:00:15.840Z</time>
      </trkpt>
      <trkpt lat="48.18531" lon="-3.01162">
        <ele>128.321666</ele>
        <time>2022-12-12T15:00:18.814Z</time>
      </trkpt>
      <trkpt lat="48.1852" lon="-3.01156">
        <ele>128.465399</ele>
        <time>2022-12-12T15:00:21.816Z</time>
      </trkpt>
      <trkpt lat="48.18509" lon="-3.01149">
        <ele>128.611333</ele>
        <time>2022-12-12T15:00:24.833Z</time>
      </trkpt>
      <trkpt lat="48.18499" lon="-3.01143">
        <ele>128.707579</ele>
        <time>2022-12-12T15:00:27.830Z</time>
      </trkpt>
      <trkpt lat="48.18488" lon="-3.01136">
        <ele>128.784061</ele>
        <time>2022-12-12T15:00:30.825Z</time>
      </trkpt>
      <trkpt lat="48.18477" lon="-3.01129">
        <ele>128.86306</ele>
        <time>2022-12-12T15:00:33.841Z</time>
      </trkpt>
      <trkpt lat="48.18465" lon="-3.01123">
        <ele>128.944553</ele>
        <time>2022-12-12T15:00:36.844Z</time>
      </trkpt>
      <trkpt lat="48.18454" lon="-3.01115">
        <ele>129.026466</ele>
        <time>2022-12-12T15:00:39.829Z</time>
      </trkpt>
      <trkpt lat="48.18442" lon="-3.01107">
        <ele>129.11071</ele>
        <time>2022-12-12T15:00:42.826Z</time>
      </trkpt>
      <trkpt lat="48.18431" lon="-3.01099">
        <ele>129.19317</ele>
        <time>2022-12-12T15:00:45.823Z</time>
      </trkpt>
      <trkpt lat="48.18419" lon="-3.01092">
        <ele>129.272061</ele>
        <time>2022-12-12T15:00:48.846Z</time>
      </trkpt>
      <trkpt lat="48.18409" lon="-3.01087">
        <ele>129.344456</ele>
        <time>2022-12-12T15:00:51.834Z</time>
      </trkpt>
      <trkpt lat="48.184" lon="-3.0108">
        <ele>129.410306</ele>
        <time>2022-12-12T15:00:54.818Z</time>
      </trkpt>
      <trkpt lat="48.18391" lon="-3.01074">
        <ele>129.475789</ele>
        <time>2022-12-12T15:00:57.817Z</time>
      </trkpt>
      <trkpt lat="48.18379" lon="-3.01068">
        <ele>129.557234</ele>
        <time>2022-12-12T15:01:00.833Z</time>
      </trkpt>
      <trkpt lat="48.1837" lon="-3.01064">
        <ele>129.616363</ele>
        <time>2022-12-12T15:01:02.839Z</time>
      </trkpt>
      <trkpt lat="48.18358" lon="-3.01061">
        <ele>129.699111</ele>
        <time>2022-12-12T15:01:05.837Z</time>
      </trkpt>
      <trkpt lat="48.18347" lon="-3.0106">
        <ele>129.77137</ele>
        <time>2022-12-12T15:01:08.844Z</time>
      </trkpt>
      <trkpt lat="48.18336" lon="-3.01059">
        <ele>129.845898</ele>
        <time>2022-12-12T15:01:11.842Z</time>
      </trkpt>
      <trkpt lat="48.18324" lon="-3.01058">
        <ele>129.924113</ele>
        <time>2022-12-12T15:01:14.835Z</time>
      </trkpt>
      <trkpt lat="48.18312" lon="-3.01058">
        <ele>130.009797</ele>
        <time>2022-12-12T15:01:17.824Z</time>
      </trkpt>
      <trkpt lat="48.183" lon="-3.01058">
        <ele>130.092101</ele>
        <time>2022-12-12T15:01:20.815Z</time>
      </trkpt>
      <trkpt lat="48.18288" lon="-3.01056">
        <ele>130.170007</ele>
        <time>2022-12-12T15:01:23.816Z</time>
      </trkpt>
      <trkpt lat="48.18276" lon="-3.01055">
        <ele>130.253774</ele>
        <time>2022-12-12T15:01:26.831Z</time>
      </trkpt>
      <trkpt lat="48.18264" lon="-3.01056">
        <ele>130.334709</ele>
        <time>2022-12-12T15:01:29.833Z</time>
      </trkpt>
      <trkpt lat="48.18251" lon="-3.01056">
        <ele>130.420393</ele>
        <time>2022-12-12T15:01:32.836Z</time>
      </trkpt>
      <trkpt lat="48.18238" lon="-3.01055">
        <ele>130.509592</ele>
        <time>2022-12-12T15:01:35.831Z</time>
      </trkpt>
      <trkpt lat="48.18225" lon="-3.01053">
        <ele>130.602943</ele>
        <time>2022-12-12T15:01:38.842Z</time>
      </trkpt>
      <trkpt lat="48.18213" lon="-3.01054">
        <ele>130.67914</ele>
        <time>2022-12-12T15:01:41.821Z</time>
      </trkpt>
      <trkpt lat="48.18204" lon="-3.01054">
        <ele>130.744429</ele>
        <time>2022-12-12T15:01:44.821Z</time>
      </trkpt>
      <trkpt lat="48.18194" lon="-3.01054">
        <ele>130.811086</ele>
        <time>2022-12-12T15:01:47.825Z</time>
      </trkpt>
      <trkpt lat="48.18183" lon="-3.01053">
        <ele>130.888674</ele>
        <time>2022-12-12T15:01:50.831Z</time>
      </trkpt>
      <trkpt lat="48.1817" lon="-3.01052">
        <ele>130.971109</ele>
        <time>2022-12-12T15:01:53.827Z</time>
      </trkpt>
      <trkpt lat="48.18158" lon="-3.0105">
        <ele>131.05312</ele>
        <time>2022-12-12T15:01:56.814Z</time>
      </trkpt>
      <trkpt lat="48.18147" lon="-3.01048">
        <ele>130.967824</ele>
        <time>2022-12-12T15:01:59.823Z</time>
      </trkpt>
      <trkpt lat="48.18136" lon="-3.01046">
        <ele>130.875881</ele>
        <time>2022-12-12T15:02:02.837Z</time>
      </trkpt>
      <trkpt lat="48.18126" lon="-3.01043">
        <ele>130.789632</ele>
        <time>2022-12-12T15:02:05.839Z</time>
      </trkpt>
      <trkpt lat="48.18114" lon="-3.01038">
        <ele>130.693129</ele>
        <time>2022-12-12T15:02:08.841Z</time>
      </trkpt>
      <trkpt lat="48.18102" lon="-3.01034">
        <ele>130.589265</ele>
        <time>2022-12-12T15:02:11.813Z</time>
      </trkpt>
      <trkpt lat="48.18091" lon="-3.0103">
        <ele>130.491859</ele>
        <time>2022-12-12T15:02:14.834Z</time>
      </trkpt>
      <trkpt lat="48.18079" lon="-3.01026">
        <ele>130.388894</ele>
        <time>2022-12-12T15:02:17.835Z</time>
      </trkpt>
      <trkpt lat="48.18066" lon="-3.01023">
        <ele>130.283877</ele>
        <time>2022-12-12T15:02:20.831Z</time>
      </trkpt>
      <trkpt lat="48.18054" lon="-3.0102">
        <ele>130.183495</ele>
        <time>2022-12-12T15:02:23.831Z</time>
      </trkpt>
      <trkpt lat="48.18044" lon="-3.0102">
        <ele>130.097135</ele>
        <time>2022-12-12T15:02:26.835Z</time>
      </trkpt>
      <trkpt lat="48.18033" lon="-3.0102">
        <ele>130.008266</ele>
        <time>2022-12-12T15:02:29.825Z</time>
      </trkpt>
      <trkpt lat="48.18022" lon="-3.0102">
        <ele>129.914501</ele>
        <time>2022-12-12T15:02:32.815Z</time>
      </trkpt>
      <trkpt lat="48.18011" lon="-3.01021">
        <ele>129.822381</ele>
        <time>2022-12-12T15:02:35.828Z</time>
      </trkpt>
      <trkpt lat="48.17999" lon="-3.0102">
        <ele>129.726103</ele>
        <time>2022-12-12T15:02:38.837Z</time>
      </trkpt>
      <trkpt lat="48.17989" lon="-3.0102">
        <ele>129.64228</ele>
        <time>2022-12-12T15:02:41.828Z</time>
      </trkpt>
      <trkpt lat="48.1798" lon="-3.0102">
        <ele>129.564203</ele>
        <time>2022-12-12T15:02:44.820Z</time>
      </trkpt>
      <trkpt lat="48.1797" lon="-3.01019">
        <ele>129.507795</ele>
        <time>2022-12-12T15:02:47.825Z</time>
      </trkpt>
      <trkpt lat="48.1796" lon="-3.01019">
        <ele>129.450269</ele>
        <time>2022-12-12T15:02:50.829Z</time>
      </trkpt>
      <trkpt lat="48.17948" lon="-3.0102">
        <ele>129.385342</ele>
        <time>2022-12-12T15:02:53.839Z</time>
      </trkpt>
      <trkpt lat="48.17936" lon="-3.0102">
        <ele>129.315859</ele>
        <time>2022-12-12T15:02:56.831Z</time>
      </trkpt>
      <trkpt lat="48.17923" lon="-3.0102">
        <ele>129.24126</ele>
        <time>2022-12-12T15:02:59.838Z</time>
      </trkpt>
      <trkpt lat="48.1791" lon="-3.0102">
        <ele>129.170079</ele>
        <time>2022-12-12T15:03:02.833Z</time>
      </trkpt>
      <trkpt lat="48.17897" lon="-3.01019">
        <ele>129.094876</ele>
        <time>2022-12-12T15:03:05.833Z</time>
      </trkpt>
      <trkpt lat="48.17884" lon="-3.01017">
        <ele>129.020985</ele>
        <time>2022-12-12T15:03:08.818Z</time>
      </trkpt>
      <trkpt lat="48.17871" lon="-3.01016">
        <ele>128.945602</ele>
        <time>2022-12-12T15:03:11.822Z</time>
      </trkpt>
      <trkpt lat="48.17862" lon="-3.01013">
        <ele>128.891927</ele>
        <time>2022-12-12T15:03:13.833Z</time>
      </trkpt>
      <trkpt lat="48.17853" lon="-3.01012">
        <ele>128.839043</ele>
        <time>2022-12-12T15:03:15.829Z</time>
      </trkpt>
      <trkpt lat="48.17844" lon="-3.01009">
        <ele>128.787615</ele>
        <time>2022-12-12T15:03:17.816Z</time>
      </trkpt>
      <trkpt lat="48.17833" lon="-3.01006">
        <ele>128.723878</ele>
        <time>2022-12-12T15:03:20.828Z</time>
      </trkpt>
      <trkpt lat="48.17821" lon="-3.01003">
        <ele>128.656084</ele>
        <time>2022-12-12T15:03:23.829Z</time>
      </trkpt>
      <trkpt lat="48.17808" lon="-3.01">
        <ele>128.583374</ele>
        <time>2022-12-12T15:03:26.843Z</time>
      </trkpt>
      <trkpt lat="48.17796" lon="-3.00997">
        <ele>128.541119</ele>
        <time>2022-12-12T15:03:29.838Z</time>
      </trkpt>
      <trkpt lat="48.17783" lon="-3.00994">
        <ele>128.539795</ele>
        <time>2022-12-12T15:03:32.837Z</time>
      </trkpt>
      <trkpt lat="48.17773" lon="-3.00992">
        <ele>128.538869</ele>
        <time>2022-12-12T15:03:34.826Z</time>
      </trkpt>
      <trkpt lat="48.17764" lon="-3.0099">
        <ele>128.537955</ele>
        <time>2022-12-12T15:03:36.831Z</time>
      </trkpt>
      <trkpt lat="48.17752" lon="-3.00987">
        <ele>128.536737</ele>
        <time>2022-12-12T15:03:39.834Z</time>
      </trkpt>
      <trkpt lat="48.1774" lon="-3.00984">
        <ele>128.535484</ele>
        <time>2022-12-12T15:03:42.830Z</time>
      </trkpt>
      <trkpt lat="48.17728" lon="-3.00981">
        <ele>128.534292</ele>
        <time>2022-12-12T15:03:45.827Z</time>
      </trkpt>
      <trkpt lat="48.17716" lon="-3.00976">
        <ele>128.533007</ele>
        <time>2022-12-12T15:03:48.841Z</time>
      </trkpt>
      <trkpt lat="48.17704" lon="-3.00971">
        <ele>128.531716</ele>
        <time>2022-12-12T15:03:51.824Z</time>
      </trkpt>
      <trkpt lat="48.17695" lon="-3.00966">
        <ele>128.530768</ele>
        <time>2022-12-12T15:03:53.834Z</time>
      </trkpt>
      <trkpt lat="48.17686" lon="-3.00961">
        <ele>128.52986</ele>
        <time>2022-12-12T15:03:55.838Z</time>
      </trkpt>
      <trkpt lat="48.17675" lon="-3.00953">
        <ele>128.528572</ele>
        <time>2022-12-12T15:03:58.831Z</time>
      </trkpt>
      <trkpt lat="48.17665" lon="-3.00946">
        <ele>128.527482</ele>
        <time>2022-12-12T15:04:01.830Z</time>
      </trkpt>
      <trkpt lat="48.17656" lon="-3.00939">
        <ele>128.526525</ele>
        <time>2022-12-12T15:04:04.836Z</time>
      </trkpt>
      <trkpt lat="48.17647" lon="-3.0093">
        <ele>128.525403</ele>
        <time>2022-12-12T15:04:07.842Z</time>
      </trkpt>
      <trkpt lat="48.17638" lon="-3.00922">
        <ele>128.524338</ele>
        <time>2022-12-12T15:04:10.843Z</time>
      </trkpt>
      <trkpt lat="48.1763" lon="-3.00915">
        <ele>128.49511</ele>
        <time>2022-12-12T15:04:13.834Z</time>
      </trkpt>
      <trkpt lat="48.17621" lon="-3.00909">
        <ele>128.394445</ele>
        <time>2022-12-12T15:04:16.840Z</time>
      </trkpt>
      <trkpt lat="48.17613" lon="-3.009">
        <ele>128.281631</ele>
        <time>2022-12-12T15:04:20.843Z</time>
      </trkpt>
      <trkpt lat="48.17603" lon="-3.00892">
        <ele>128.164699</ele>
        <time>2022-12-12T15:04:25.825Z</time>
      </trkpt>
      <trkpt lat="48.17595" lon="-3.00886">
        <ele>128.060675</ele>
        <time>2022-12-12T15:04:34.820Z</time>
      </trkpt>
      <trkpt lat="48.17586" lon="-3.00876">
        <ele>127.939423</ele>
        <time>2022-12-12T15:04:39.820Z</time>
      </trkpt>
      <trkpt lat="48.17578" lon="-3.00869">
        <ele>127.831809</ele>
        <time>2022-12-12T15:04:43.817Z</time>
      </trkpt>
      <trkpt lat="48.17569" lon="-3.00862">
        <ele>127.725284</ele>
        <time>2022-12-12T15:04:49.820Z</time>
      </trkpt>
      <trkpt lat="48.17562" lon="-3.00854">
        <ele>127.626925</ele>
        <time>2022-12-12T15:05:08.817Z</time>
      </trkpt>
      <trkpt lat="48.17547" lon="-3.00845">
        <ele>127.452706</ele>
        <time>2022-12-12T15:05:45.820Z</time>
      </trkpt>
      <trkpt lat="48.17538" lon="-3.00837">
        <ele>127.338024</ele>
        <time>2022-12-12T15:05:48.817Z</time>
      </trkpt>
      <trkpt lat="48.17529" lon="-3.00829">
        <ele>127.228146</ele>
        <time>2022-12-12T15:05:51.822Z</time>
      </trkpt>
      <trkpt lat="48.1752" lon="-3.00822">
        <ele>127.119649</ele>
        <time>2022-12-12T15:05:54.835Z</time>
      </trkpt>
      <trkpt lat="48.17512" lon="-3.00816">
        <ele>127.016314</ele>
        <time>2022-12-12T15:05:57.826Z</time>
      </trkpt>
      <trkpt lat="48.17503" lon="-3.00808">
        <ele>126.9012</ele>
        <time>2022-12-12T15:06:01.845Z</time>
      </trkpt>
      <trkpt lat="48.17493" lon="-3.008">
        <ele>126.782251</ele>
        <time>2022-12-12T15:06:05.813Z</time>
      </trkpt>
      <trkpt lat="48.17485" lon="-3.00793">
        <ele>126.675809</ele>
        <time>2022-12-12T15:06:08.825Z</time>
      </trkpt>
      <trkpt lat="48.17476" lon="-3.00786">
        <ele>126.569923</ele>
        <time>2022-12-12T15:06:11.833Z</time>
      </trkpt>
      <trkpt lat="48.17467" lon="-3.00778">
        <ele>126.459115</ele>
        <time>2022-12-12T15:06:14.833Z</time>
      </trkpt>
      <trkpt lat="48.17457" lon="-3.00769">
        <ele>126.332245</ele>
        <time>2022-12-12T15:06:17.831Z</time>
      </trkpt>
      <trkpt lat="48.17446" lon="-3.0076">
        <ele>126.208018</ele>
        <time>2022-12-12T15:06:20.824Z</time>
      </trkpt>
      <trkpt lat="48.17437" lon="-3.00753">
        <ele>126.095595</ele>
        <time>2022-12-12T15:06:23.836Z</time>
      </trkpt>
      <trkpt lat="48.17426" lon="-3.00744">
        <ele>125.972809</ele>
        <time>2022-12-12T15:06:27.829Z</time>
      </trkpt>
      <trkpt lat="48.17416" lon="-3.00737">
        <ele>125.852616</ele>
        <time>2022-12-12T15:06:31.837Z</time>
      </trkpt>
      <trkpt lat="48.17407" lon="-3.0073">
        <ele>125.749119</ele>
        <time>2022-12-12T15:06:34.834Z</time>
      </trkpt>
      <trkpt lat="48.17397" lon="-3.00719">
        <ele>125.624872</ele>
        <time>2022-12-12T15:06:37.837Z</time>
      </trkpt>
      <trkpt lat="48.17389" lon="-3.00708">
        <ele>125.50362</ele>
        <time>2022-12-12T15:06:40.833Z</time>
      </trkpt>
      <trkpt lat="48.17381" lon="-3.00695">
        <ele>125.382063</ele>
        <time>2022-12-12T15:06:43.836Z</time>
      </trkpt>
      <trkpt lat="48.17374" lon="-3.00682">
        <ele>125.264475</ele>
        <time>2022-12-12T15:06:46.812Z</time>
      </trkpt>
      <trkpt lat="48.17366" lon="-3.00665">
        <ele>125.122312</ele>
        <time>2022-12-12T15:06:49.835Z</time>
      </trkpt>
      <trkpt lat="48.17361" lon="-3.00648">
        <ele>124.994088</ele>
        <time>2022-12-12T15:06:52.815Z</time>
      </trkpt>
      <trkpt lat="48.17357" lon="-3.00632">
        <ele>124.873364</ele>
        <time>2022-12-12T15:06:55.833Z</time>
      </trkpt>
      <trkpt lat="48.17353" lon="-3.00617">
        <ele>124.763212</ele>
        <time>2022-12-12T15:06:58.831Z</time>
      </trkpt>
      <trkpt lat="48.1735" lon="-3.00601">
        <ele>124.618819</ele>
        <time>2022-12-12T15:07:01.823Z</time>
      </trkpt>
      <trkpt lat="48.17348" lon="-3.00586">
        <ele>124.42389</ele>
        <time>2022-12-12T15:07:04.841Z</time>
      </trkpt>
      <trkpt lat="48.17346" lon="-3.00572">
        <ele>124.224157</ele>
        <time>2022-12-12T15:07:08.833Z</time>
      </trkpt>
      <trkpt lat="48.17344" lon="-3.00557">
        <ele>124.034035</ele>
        <time>2022-12-12T15:07:12.823Z</time>
      </trkpt>
      <trkpt lat="48.17342" lon="-3.00542">
        <ele>123.829433</ele>
        <time>2022-12-12T15:07:17.818Z</time>
      </trkpt>
      <trkpt lat="48.17338" lon="-3.00529">
        <ele>123.644031</ele>
        <time>2022-12-12T15:07:22.823Z</time>
      </trkpt>
      <trkpt lat="48.17335" lon="-3.00514">
        <ele>123.446966</ele>
        <time>2022-12-12T15:07:27.816Z</time>
      </trkpt>
      <trkpt lat="48.17331" lon="-3.00495">
        <ele>123.186475</ele>
        <time>2022-12-12T15:07:30.833Z</time>
      </trkpt>
      <trkpt lat="48.1733" lon="-3.00479">
        <ele>122.978464</ele>
        <time>2022-12-12T15:07:32.812Z</time>
      </trkpt>
      <trkpt lat="48.17326" lon="-3.00464">
        <ele>122.779025</ele>
        <time>2022-12-12T15:07:34.833Z</time>
      </trkpt>
      <trkpt lat="48.17324" lon="-3.0045">
        <ele>122.590442</ele>
        <time>2022-12-12T15:07:36.832Z</time>
      </trkpt>
      <trkpt lat="48.17322" lon="-3.00437">
        <ele>122.413955</ele>
        <time>2022-12-12T15:07:38.845Z</time>
      </trkpt>
      <trkpt lat="48.17319" lon="-3.0042">
        <ele>122.190426</ele>
        <time>2022-12-12T15:07:41.836Z</time>
      </trkpt>
      <trkpt lat="48.17315" lon="-3.00404">
        <ele>121.964378</ele>
        <time>2022-12-12T15:07:45.833Z</time>
      </trkpt>
      <trkpt lat="48.17312" lon="-3.0039">
        <ele>121.779573</ele>
        <time>2022-12-12T15:07:49.825Z</time>
      </trkpt>
      <trkpt lat="48.1731" lon="-3.00375">
        <ele>121.580026</ele>
        <time>2022-12-12T15:07:53.821Z</time>
      </trkpt>
      <trkpt lat="48.17307" lon="-3.00362">
        <ele>121.403305</ele>
        <time>2022-12-12T15:07:56.830Z</time>
      </trkpt>
      <trkpt lat="48.17304" lon="-3.00348">
        <ele>121.216708</ele>
        <time>2022-12-12T15:07:59.841Z</time>
      </trkpt>
      <trkpt lat="48.17302" lon="-3.00333">
        <ele>121.133942</ele>
        <time>2022-12-12T15:08:02.832Z</time>
      </trkpt>
      <trkpt lat="48.17299" lon="-3.00317">
        <ele>121.061864</ele>
        <time>2022-12-12T15:08:05.834Z</time>
      </trkpt>
      <trkpt lat="48.17296" lon="-3.00302">
        <ele>120.992328</ele>
        <time>2022-12-12T15:08:08.832Z</time>
      </trkpt>
      <trkpt lat="48.17293" lon="-3.00285">
        <ele>120.916331</ele>
        <time>2022-12-12T15:08:11.817Z</time>
      </trkpt>
      <trkpt lat="48.1729" lon="-3.00269">
        <ele>120.842085</ele>
        <time>2022-12-12T15:08:14.844Z</time>
      </trkpt>
      <trkpt lat="48.17287" lon="-3.00253">
        <ele>120.770245</ele>
        <time>2022-12-12T15:08:17.839Z</time>
      </trkpt>
      <trkpt lat="48.17284" lon="-3.00236">
        <ele>120.690647</ele>
        <time>2022-12-12T15:08:20.845Z</time>
      </trkpt>
      <trkpt lat="48.17281" lon="-3.0022">
        <ele>120.61772</ele>
        <time>2022-12-12T15:08:23.837Z</time>
      </trkpt>
      <trkpt lat="48.17279" lon="-3.00205">
        <ele>120.549074</ele>
        <time>2022-12-12T15:08:26.835Z</time>
      </trkpt>
      <trkpt lat="48.17276" lon="-3.00188">
        <ele>120.46984</ele>
        <time>2022-12-12T15:08:29.833Z</time>
      </trkpt>
      <trkpt lat="48.17272" lon="-3.0017">
        <ele>120.390781</ele>
        <time>2022-12-12T15:08:32.842Z</time>
      </trkpt>
      <trkpt lat="48.17269" lon="-3.00153">
        <ele>120.311547</ele>
        <time>2022-12-12T15:08:35.834Z</time>
      </trkpt>
      <trkpt lat="48.17266" lon="-3.00136">
        <ele>120.234531</ele>
        <time>2022-12-12T15:08:38.834Z</time>
      </trkpt>
      <trkpt lat="48.17265" lon="-3.00122">
        <ele>120.170102</ele>
        <time>2022-12-12T15:08:41.833Z</time>
      </trkpt>
      <trkpt lat="48.17263" lon="-3.00106">
        <ele>120.098867</ele>
        <time>2022-12-12T15:08:44.831Z</time>
      </trkpt>
      <trkpt lat="48.1726" lon="-3.0009">
        <ele>120.023814</ele>
        <time>2022-12-12T15:08:47.830Z</time>
      </trkpt>
      <trkpt lat="48.17256" lon="-3.00075">
        <ele>120.041269</ele>
        <time>2022-12-12T15:08:50.833Z</time>
      </trkpt>
      <trkpt lat="48.17255" lon="-3.00058">
        <ele>120.090702</ele>
        <time>2022-12-12T15:08:53.819Z</time>
      </trkpt>
      <trkpt lat="48.17252" lon="-3.00042">
        <ele>120.140955</ele>
        <time>2022-12-12T15:08:56.815Z</time>
      </trkpt>
      <trkpt lat="48.17248" lon="-3.00024">
        <ele>120.194884</ele>
        <time>2022-12-12T15:08:59.827Z</time>
      </trkpt>
      <trkpt lat="48.17244" lon="-3.00007">
        <ele>120.249531</ele>
        <time>2022-12-12T15:09:02.823Z</time>
      </trkpt>
      <trkpt lat="48.17241" lon="-2.99992">
        <ele>120.297414</ele>
        <time>2022-12-12T15:09:05.840Z</time>
      </trkpt>
      <trkpt lat="48.17239" lon="-2.99977">
        <ele>120.341949</ele>
        <time>2022-12-12T15:09:07.835Z</time>
      </trkpt>
      <trkpt lat="48.17236" lon="-2.99959">
        <ele>120.395986</ele>
        <time>2022-12-12T15:09:10.822Z</time>
      </trkpt>
      <trkpt lat="48.17233" lon="-2.99942">
        <ele>120.449912</ele>
        <time>2022-12-12T15:09:13.835Z</time>
      </trkpt>
      <trkpt lat="48.17229" lon="-2.99926">
        <ele>120.499942</ele>
        <time>2022-12-12T15:09:16.825Z</time>
      </trkpt>
      <trkpt lat="48.17226" lon="-2.99909">
        <ele>120.551898</ele>
        <time>2022-12-12T15:09:19.838Z</time>
      </trkpt>
      <trkpt lat="48.17223" lon="-2.99891">
        <ele>120.60651</ele>
        <time>2022-12-12T15:09:22.839Z</time>
      </trkpt>
      <trkpt lat="48.1722" lon="-2.99876">
        <ele>120.652428</ele>
        <time>2022-12-12T15:09:25.835Z</time>
      </trkpt>
      <trkpt lat="48.17217" lon="-2.99862">
        <ele>120.697001</ele>
        <time>2022-12-12T15:09:28.846Z</time>
      </trkpt>
      <trkpt lat="48.17214" lon="-2.99847">
        <ele>120.742777</ele>
        <time>2022-12-12T15:09:31.842Z</time>
      </trkpt>
      <trkpt lat="48.17211" lon="-2.99832">
        <ele>120.789045</ele>
        <time>2022-12-12T15:09:34.817Z</time>
      </trkpt>
      <trkpt lat="48.17209" lon="-2.99814">
        <ele>120.927789</ele>
        <time>2022-12-12T15:09:37.828Z</time>
      </trkpt>
      <trkpt lat="48.17205" lon="-2.99797">
        <ele>121.108339</ele>
        <time>2022-12-12T15:09:40.829Z</time>
      </trkpt>
      <trkpt lat="48.17203" lon="-2.9978">
        <ele>121.280137</ele>
        <time>2022-12-12T15:09:43.835Z</time>
      </trkpt>
      <trkpt lat="48.17199" lon="-2.99764">
        <ele>121.443646</ele>
        <time>2022-12-12T15:09:46.845Z</time>
      </trkpt>
      <trkpt lat="48.17197" lon="-2.99748">
        <ele>121.606092</ele>
        <time>2022-12-12T15:09:49.821Z</time>
      </trkpt>
      <trkpt lat="48.17195" lon="-2.99733">
        <ele>121.760822</ele>
        <time>2022-12-12T15:09:52.826Z</time>
      </trkpt>
      <trkpt lat="48.17192" lon="-2.99718">
        <ele>121.917475</ele>
        <time>2022-12-12T15:09:55.821Z</time>
      </trkpt>
      <trkpt lat="48.1719" lon="-2.99702">
        <ele>122.078455</ele>
        <time>2022-12-12T15:09:58.815Z</time>
      </trkpt>
      <trkpt lat="48.17187" lon="-2.99684">
        <ele>122.259815</ele>
        <time>2022-12-12T15:10:01.823Z</time>
      </trkpt>
      <trkpt lat="48.17183" lon="-2.99667">
        <ele>122.433834</ele>
        <time>2022-12-12T15:10:04.846Z</time>
      </trkpt>
      <trkpt lat="48.1718" lon="-2.9965">
        <ele>122.616288</ele>
        <time>2022-12-12T15:10:07.835Z</time>
      </trkpt>
      <trkpt lat="48.17176" lon="-2.99631">
        <ele>122.809911</ele>
        <time>2022-12-12T15:10:10.815Z</time>
      </trkpt>
      <trkpt lat="48.17171" lon="-2.99612">
        <ele>123.006305</ele>
        <time>2022-12-12T15:10:13.824Z</time>
      </trkpt>
      <trkpt lat="48.17169" lon="-2.99595">
        <ele>123.18204</ele>
        <time>2022-12-12T15:10:16.846Z</time>
      </trkpt>
      <trkpt lat="48.17166" lon="-2.99577">
        <ele>123.365759</ele>
        <time>2022-12-12T15:10:19.837Z</time>
      </trkpt>
      <trkpt lat="48.17163" lon="-2.9956">
        <ele>123.523661</ele>
        <time>2022-12-12T15:10:22.824Z</time>
      </trkpt>
      <trkpt lat="48.17159" lon="-2.99544">
        <ele>123.663399</ele>
        <time>2022-12-12T15:10:25.827Z</time>
      </trkpt>
      <trkpt lat="48.17153" lon="-2.99528">
        <ele>123.797431</ele>
        <time>2022-12-12T15:10:28.817Z</time>
      </trkpt>
      <trkpt lat="48.17145" lon="-2.99514">
        <ele>123.942684</ele>
        <time>2022-12-12T15:10:32.817Z</time>
      </trkpt>
      <trkpt lat="48.17138" lon="-2.99503">
        <ele>124.066012</ele>
        <time>2022-12-12T15:10:35.823Z</time>
      </trkpt>
      <trkpt lat="48.17129" lon="-2.99494">
        <ele>124.191643</ele>
        <time>2022-12-12T15:10:38.835Z</time>
      </trkpt>
      <trkpt lat="48.17118" lon="-2.99484">
        <ele>124.331848</ele>
        <time>2022-12-12T15:10:41.816Z</time>
      </trkpt>
      <trkpt lat="48.17107" lon="-2.99474">
        <ele>124.479934</ele>
        <time>2022-12-12T15:10:44.832Z</time>
      </trkpt>
      <trkpt lat="48.17097" lon="-2.99466">
        <ele>124.619692</ele>
        <time>2022-12-12T15:10:47.818Z</time>
      </trkpt>
      <trkpt lat="48.17087" lon="-2.9946">
        <ele>124.737552</ele>
        <time>2022-12-12T15:10:50.820Z</time>
      </trkpt>
      <trkpt lat="48.17077" lon="-2.99457">
        <ele>124.859192</ele>
        <time>2022-12-12T15:10:53.818Z</time>
      </trkpt>
      <trkpt lat="48.17066" lon="-2.99453">
        <ele>124.992893</ele>
        <time>2022-12-12T15:10:56.816Z</time>
      </trkpt>
      <trkpt lat="48.17054" lon="-2.9945">
        <ele>125.13116</ele>
        <time>2022-12-12T15:10:59.835Z</time>
      </trkpt>
      <trkpt lat="48.17042" lon="-2.99449">
        <ele>125.269438</ele>
        <time>2022-12-12T15:11:02.837Z</time>
      </trkpt>
      <trkpt lat="48.1703" lon="-2.9945">
        <ele>125.40396</ele>
        <time>2022-12-12T15:11:05.837Z</time>
      </trkpt>
      <trkpt lat="48.17018" lon="-2.99452">
        <ele>125.542228</ele>
        <time>2022-12-12T15:11:08.837Z</time>
      </trkpt>
      <trkpt lat="48.17008" lon="-2.99455">
        <ele>125.438062</ele>
        <time>2022-12-12T15:11:11.818Z</time>
      </trkpt>
      <trkpt lat="48.16998" lon="-2.99457">
        <ele>125.312046</ele>
        <time>2022-12-12T15:11:14.836Z</time>
      </trkpt>
      <trkpt lat="48.16987" lon="-2.99459">
        <ele>125.159309</ele>
        <time>2022-12-12T15:11:18.835Z</time>
      </trkpt>
      <trkpt lat="48.16977" lon="-2.99462">
        <ele>125.023419</ele>
        <time>2022-12-12T15:11:21.843Z</time>
      </trkpt>
      <trkpt lat="48.16966" lon="-2.99465">
        <ele>124.880853</ele>
        <time>2022-12-12T15:11:24.841Z</time>
      </trkpt>
      <trkpt lat="48.16956" lon="-2.99467">
        <ele>124.740765</ele>
        <time>2022-12-12T15:11:27.820Z</time>
      </trkpt>
      <trkpt lat="48.16946" lon="-2.99469">
        <ele>124.604875</ele>
        <time>2022-12-12T15:11:30.819Z</time>
      </trkpt>
      <trkpt lat="48.16935" lon="-2.99473">
        <ele>124.456286</ele>
        <time>2022-12-12T15:11:33.838Z</time>
      </trkpt>
      <trkpt lat="48.16924" lon="-2.99475">
        <ele>124.306668</ele>
        <time>2022-12-12T15:11:36.842Z</time>
      </trkpt>
      <trkpt lat="48.16912" lon="-2.99478">
        <ele>124.157272</ele>
        <time>2022-12-12T15:11:39.845Z</time>
      </trkpt>
      <trkpt lat="48.16901" lon="-2.99481">
        <ele>124.002505</ele>
        <time>2022-12-12T15:11:42.824Z</time>
      </trkpt>
      <trkpt lat="48.1689" lon="-2.99484">
        <ele>123.851959</ele>
        <time>2022-12-12T15:11:45.827Z</time>
      </trkpt>
      <trkpt lat="48.16878" lon="-2.99486">
        <ele>123.69542</ele>
        <time>2022-12-12T15:11:48.823Z</time>
      </trkpt>
      <trkpt lat="48.16866" lon="-2.9949">
        <ele>123.537889</ele>
        <time>2022-12-12T15:11:51.819Z</time>
      </trkpt>
      <trkpt lat="48.16855" lon="-2.99493">
        <ele>123.384495</ele>
        <time>2022-12-12T15:11:54.848Z</time>
      </trkpt>
      <trkpt lat="48.16843" lon="-2.99497">
        <ele>123.221594</ele>
        <time>2022-12-12T15:11:57.827Z</time>
      </trkpt>
      <trkpt lat="48.1683" lon="-2.995">
        <ele>123.136572</ele>
        <time>2022-12-12T15:12:00.843Z</time>
      </trkpt>
      <trkpt lat="48.16817" lon="-2.99503">
        <ele>123.084226</ele>
        <time>2022-12-12T15:12:03.833Z</time>
      </trkpt>
      <trkpt lat="48.16807" lon="-2.99506">
        <ele>123.041016</ele>
        <time>2022-12-12T15:12:06.835Z</time>
      </trkpt>
      <trkpt lat="48.16797" lon="-2.9951">
        <ele>122.998097</ele>
        <time>2022-12-12T15:12:09.825Z</time>
      </trkpt>
      <trkpt lat="48.16787" lon="-2.99514">
        <ele>122.954208</ele>
        <time>2022-12-12T15:12:12.846Z</time>
      </trkpt>
      <trkpt lat="48.16775" lon="-2.99521">
        <ele>122.903075</ele>
        <time>2022-12-12T15:12:15.834Z</time>
      </trkpt>
      <trkpt lat="48.16764" lon="-2.99527">
        <ele>122.852826</ele>
        <time>2022-12-12T15:12:18.835Z</time>
      </trkpt>
      <trkpt lat="48.16753" lon="-2.99534">
        <ele>122.80317</ele>
        <time>2022-12-12T15:12:21.829Z</time>
      </trkpt>
      <trkpt lat="48.16742" lon="-2.99541">
        <ele>122.754817</ele>
        <time>2022-12-12T15:12:24.834Z</time>
      </trkpt>
      <trkpt lat="48.16731" lon="-2.99548">
        <ele>122.705526</ele>
        <time>2022-12-12T15:12:27.833Z</time>
      </trkpt>
      <trkpt lat="48.16719" lon="-2.99555">
        <ele>122.653527</ele>
        <time>2022-12-12T15:12:30.845Z</time>
      </trkpt>
      <trkpt lat="48.16708" lon="-2.99561">
        <ele>122.602213</ele>
        <time>2022-12-12T15:12:33.836Z</time>
      </trkpt>
      <trkpt lat="48.16696" lon="-2.99568">
        <ele>122.550128</ele>
        <time>2022-12-12T15:12:36.841Z</time>
      </trkpt>
      <trkpt lat="48.16684" lon="-2.99574">
        <ele>122.498717</ele>
        <time>2022-12-12T15:12:39.846Z</time>
      </trkpt>
      <trkpt lat="48.16673" lon="-2.99581">
        <ele>122.447586</ele>
        <time>2022-12-12T15:12:42.834Z</time>
      </trkpt>
      <trkpt lat="48.1666" lon="-2.99589">
        <ele>122.411551</ele>
        <time>2022-12-12T15:12:45.818Z</time>
      </trkpt>
      <trkpt lat="48.16652" lon="-2.99595">
        <ele>122.390593</ele>
        <time>2022-12-12T15:12:47.822Z</time>
      </trkpt>
      <trkpt lat="48.16643" lon="-2.99601">
        <ele>122.368622</ele>
        <time>2022-12-12T15:12:49.824Z</time>
      </trkpt>
      <trkpt lat="48.16634" lon="-2.99606">
        <ele>122.347359</ele>
        <time>2022-12-12T15:12:51.843Z</time>
      </trkpt>
      <trkpt lat="48.16622" lon="-2.99613">
        <ele>122.31765</ele>
        <time>2022-12-12T15:12:54.843Z</time>
      </trkpt>
      <trkpt lat="48.16611" lon="-2.9962">
        <ele>122.29034</ele>
        <time>2022-12-12T15:12:57.836Z</time>
      </trkpt>
      <trkpt lat="48.16601" lon="-2.99626">
        <ele>122.266365</ele>
        <time>2022-12-12T15:13:00.823Z</time>
      </trkpt>
      <trkpt lat="48.16592" lon="-2.99631">
        <ele>122.243724</ele>
        <time>2022-12-12T15:13:03.834Z</time>
      </trkpt>
      <trkpt lat="48.16581" lon="-2.99638">
        <ele>122.218049</ele>
        <time>2022-12-12T15:13:06.820Z</time>
      </trkpt>
      <trkpt lat="48.1657" lon="-2.99644">
        <ele>122.19057</ele>
        <time>2022-12-12T15:13:09.835Z</time>
      </trkpt>
      <trkpt lat="48.1656" lon="-2.99649">
        <ele>122.165697</ele>
        <time>2022-12-12T15:13:12.850Z</time>
      </trkpt>
      <trkpt lat="48.16551" lon="-2.99655">
        <ele>122.143517</ele>
        <time>2022-12-12T15:13:15.832Z</time>
      </trkpt>
      <trkpt lat="48.16542" lon="-2.9966">
        <ele>122.122896</ele>
        <time>2022-12-12T15:13:18.833Z</time>
      </trkpt>
      <trkpt lat="48.16533" lon="-2.99665">
        <ele>122.099777</ele>
        <time>2022-12-12T15:13:22.820Z</time>
      </trkpt>
      <trkpt lat="48.16525" lon="-2.99672">
        <ele>122.079131</ele>
        <time>2022-12-12T15:13:28.826Z</time>
      </trkpt>
      <trkpt lat="48.16516" lon="-2.99678">
        <ele>122.056452</ele>
        <time>2022-12-12T15:13:45.826Z</time>
      </trkpt>
      <trkpt lat="48.16506" lon="-2.99681">
        <ele>122.034887</ele>
        <time>2022-12-12T15:13:56.820Z</time>
      </trkpt>
      <trkpt lat="48.16497" lon="-2.99689">
        <ele>121.964666</ele>
        <time>2022-12-12T15:14:15.821Z</time>
      </trkpt>
      <trkpt lat="48.16487" lon="-2.99695">
        <ele>121.863432</ele>
        <time>2022-12-12T15:14:18.818Z</time>
      </trkpt>
      <trkpt lat="48.16478" lon="-2.997">
        <ele>121.77812</ele>
        <time>2022-12-12T15:14:20.837Z</time>
      </trkpt>
      <trkpt lat="48.16469" lon="-2.99705">
        <ele>121.69154</ele>
        <time>2022-12-12T15:14:22.847Z</time>
      </trkpt>
      <trkpt lat="48.16457" lon="-2.99712">
        <ele>121.572822</ele>
        <time>2022-12-12T15:14:25.824Z</time>
      </trkpt>
      <trkpt lat="48.16446" lon="-2.99719">
        <ele>121.462429</ele>
        <time>2022-12-12T15:14:28.841Z</time>
      </trkpt>
      <trkpt lat="48.16437" lon="-2.99725">
        <ele>121.374656</ele>
        <time>2022-12-12T15:14:31.843Z</time>
      </trkpt>
      <trkpt lat="48.16428" lon="-2.9973">
        <ele>121.287879</ele>
        <time>2022-12-12T15:14:34.830Z</time>
      </trkpt>
      <trkpt lat="48.16419" lon="-2.99736">
        <ele>121.196975</ele>
        <time>2022-12-12T15:14:37.833Z</time>
      </trkpt>
      <trkpt lat="48.16408" lon="-2.99742">
        <ele>121.094465</ele>
        <time>2022-12-12T15:14:41.831Z</time>
      </trkpt>
      <trkpt lat="48.16398" lon="-2.99748">
        <ele>120.991317</ele>
        <time>2022-12-12T15:14:45.842Z</time>
      </trkpt>
      <trkpt lat="48.16387" lon="-2.99753">
        <ele>120.891233</ele>
        <time>2022-12-12T15:14:49.820Z</time>
      </trkpt>
      <trkpt lat="48.16376" lon="-2.9976">
        <ele>120.781453</ele>
        <time>2022-12-12T15:14:53.816Z</time>
      </trkpt>
      <trkpt lat="48.16367" lon="-2.99765">
        <ele>120.697234</ele>
        <time>2022-12-12T15:14:56.819Z</time>
      </trkpt>
      <trkpt lat="48.16358" lon="-2.99771">
        <ele>120.606567</ele>
        <time>2022-12-12T15:14:59.833Z</time>
      </trkpt>
      <trkpt lat="48.16349" lon="-2.99777">
        <ele>120.511446</ele>
        <time>2022-12-12T15:15:02.835Z</time>
      </trkpt>
      <trkpt lat="48.16338" lon="-2.99784">
        <ele>120.409545</ele>
        <time>2022-12-12T15:15:05.838Z</time>
      </trkpt>
      <trkpt lat="48.16328" lon="-2.9979">
        <ele>120.451163</ele>
        <time>2022-12-12T15:15:08.844Z</time>
      </trkpt>
      <trkpt lat="48.16319" lon="-2.99796">
        <ele>120.516155</ele>
        <time>2022-12-12T15:15:11.840Z</time>
      </trkpt>
      <trkpt lat="48.1631" lon="-2.99802">
        <ele>120.578889</ele>
        <time>2022-12-12T15:15:14.843Z</time>
      </trkpt>
      <trkpt lat="48.16299" lon="-2.99809">
        <ele>120.652013</ele>
        <time>2022-12-12T15:15:17.842Z</time>
      </trkpt>
      <trkpt lat="48.16289" lon="-2.99815">
        <ele>120.717729</ele>
        <time>2022-12-12T15:15:20.840Z</time>
      </trkpt>
      <trkpt lat="48.16279" lon="-2.99821">
        <ele>120.786527</ele>
        <time>2022-12-12T15:15:23.826Z</time>
      </trkpt>
      <trkpt lat="48.16268" lon="-2.99828">
        <ele>120.861416</ele>
        <time>2022-12-12T15:15:26.833Z</time>
      </trkpt>
      <trkpt lat="48.16259" lon="-2.99834">
        <ele>120.926874</ele>
        <time>2022-12-12T15:15:29.838Z</time>
      </trkpt>
      <trkpt lat="48.16249" lon="-2.9984">
        <ele>120.991257</ele>
        <time>2022-12-12T15:15:32.836Z</time>
      </trkpt>
      <trkpt lat="48.1624" lon="-2.99847">
        <ele>121.060951</ele>
        <time>2022-12-12T15:15:35.840Z</time>
      </trkpt>
      <trkpt lat="48.16229" lon="-2.99854">
        <ele>121.131898</ele>
        <time>2022-12-12T15:15:38.844Z</time>
      </trkpt>
      <trkpt lat="48.1622" lon="-2.99859">
        <ele>121.197298</ele>
        <time>2022-12-12T15:15:41.839Z</time>
      </trkpt>
      <trkpt lat="48.16208" lon="-2.99864">
        <ele>121.273804</ele>
        <time>2022-12-12T15:15:45.821Z</time>
      </trkpt>
      <trkpt lat="48.16198" lon="-2.9987">
        <ele>121.342259</ele>
        <time>2022-12-12T15:15:48.831Z</time>
      </trkpt>
      <trkpt lat="48.16186" lon="-2.99877">
        <ele>121.422951</ele>
        <time>2022-12-12T15:15:51.843Z</time>
      </trkpt>
      <trkpt lat="48.16175" lon="-2.99884">
        <ele>121.499647</ele>
        <time>2022-12-12T15:15:54.820Z</time>
      </trkpt>
      <trkpt lat="48.16165" lon="-2.9989">
        <ele>121.551539</ele>
        <time>2022-12-12T15:15:57.841Z</time>
      </trkpt>
      <trkpt lat="48.16155" lon="-2.99896">
        <ele>121.586823</ele>
        <time>2022-12-12T15:16:00.849Z</time>
      </trkpt>
      <trkpt lat="48.16145" lon="-2.99902">
        <ele>121.623575</ele>
        <time>2022-12-12T15:16:03.845Z</time>
      </trkpt>
      <trkpt lat="48.16135" lon="-2.99908">
        <ele>121.658143</ele>
        <time>2022-12-12T15:16:06.845Z</time>
      </trkpt>
      <trkpt lat="48.16126" lon="-2.99913">
        <ele>121.690427</ele>
        <time>2022-12-12T15:16:09.828Z</time>
      </trkpt>
      <trkpt lat="48.16115" lon="-2.9992">
        <ele>121.733407</ele>
        <time>2022-12-12T15:16:12.835Z</time>
      </trkpt>
      <trkpt lat="48.16104" lon="-2.99927">
        <ele>121.772552</ele>
        <time>2022-12-12T15:16:15.833Z</time>
      </trkpt>
      <trkpt lat="48.16093" lon="-2.99934">
        <ele>121.811296</ele>
        <time>2022-12-12T15:16:18.849Z</time>
      </trkpt>
      <trkpt lat="48.16083" lon="-2.99941">
        <ele>121.849593</ele>
        <time>2022-12-12T15:16:22.852Z</time>
      </trkpt>
      <trkpt lat="48.16074" lon="-2.99947">
        <ele>121.88251</ele>
        <time>2022-12-12T15:16:25.841Z</time>
      </trkpt>
      <trkpt lat="48.16064" lon="-2.99951">
        <ele>121.917828</ele>
        <time>2022-12-12T15:16:28.821Z</time>
      </trkpt>
      <trkpt lat="48.16053" lon="-2.99957">
        <ele>121.95815</ele>
        <time>2022-12-12T15:16:31.842Z</time>
      </trkpt>
      <trkpt lat="48.16042" lon="-2.99963">
        <ele>121.996738</ele>
        <time>2022-12-12T15:16:34.825Z</time>
      </trkpt>
      <trkpt lat="48.1603" lon="-2.99969">
        <ele>122.038438</ele>
        <time>2022-12-12T15:16:37.837Z</time>
      </trkpt>
      <trkpt lat="48.16018" lon="-2.99974">
        <ele>122.08084</ele>
        <time>2022-12-12T15:16:40.844Z</time>
      </trkpt>
      <trkpt lat="48.16005" lon="-2.99978">
        <ele>122.123612</ele>
        <time>2022-12-12T15:16:43.841Z</time>
      </trkpt>
      <trkpt lat="48.15992" lon="-2.99981">
        <ele>121.936369</ele>
        <time>2022-12-12T15:16:46.833Z</time>
      </trkpt>
      <trkpt lat="48.15981" lon="-2.99984">
        <ele>121.683925</ele>
        <time>2022-12-12T15:16:49.842Z</time>
      </trkpt>
      <trkpt lat="48.15969" lon="-2.99986">
        <ele>121.427894</ele>
        <time>2022-12-12T15:16:52.816Z</time>
      </trkpt>
      <trkpt lat="48.15958" lon="-2.99989">
        <ele>121.190767</ele>
        <time>2022-12-12T15:16:55.847Z</time>
      </trkpt>
      <trkpt lat="48.15949" lon="-2.9999">
        <ele>120.980922</ele>
        <time>2022-12-12T15:16:58.847Z</time>
      </trkpt>
      <trkpt lat="48.15938" lon="-2.99992">
        <ele>120.75596</ele>
        <time>2022-12-12T15:17:01.841Z</time>
      </trkpt>
      <trkpt lat="48.15927" lon="-2.99996">
        <ele>120.499649</ele>
        <time>2022-12-12T15:17:04.817Z</time>
      </trkpt>
      <trkpt lat="48.15915" lon="-3.00001">
        <ele>120.242314</ele>
        <time>2022-12-12T15:17:07.844Z</time>
      </trkpt>
      <trkpt lat="48.15905" lon="-3.00009">
        <ele>119.991411</ele>
        <time>2022-12-12T15:17:10.847Z</time>
      </trkpt>
      <trkpt lat="48.15895" lon="-3.00017">
        <ele>119.748804</ele>
        <time>2022-12-12T15:17:13.816Z</time>
      </trkpt>
      <trkpt lat="48.15886" lon="-3.00028">
        <ele>119.496867</ele>
        <time>2022-12-12T15:17:16.839Z</time>
      </trkpt>
      <trkpt lat="48.15878" lon="-3.0004">
        <ele>119.252331</ele>
        <time>2022-12-12T15:17:19.818Z</time>
      </trkpt>
      <trkpt lat="48.1587" lon="-3.00053">
        <ele>119.004621</ele>
        <time>2022-12-12T15:17:22.831Z</time>
      </trkpt>
      <trkpt lat="48.15863" lon="-3.00066">
        <ele>118.767933</ele>
        <time>2022-12-12T15:17:25.840Z</time>
      </trkpt>
      <trkpt lat="48.15856" lon="-3.00081">
        <ele>118.500769</ele>
        <time>2022-12-12T15:17:28.838Z</time>
      </trkpt>
      <trkpt lat="48.15851" lon="-3.00095">
        <ele>118.264232</ele>
        <time>2022-12-12T15:17:31.818Z</time>
      </trkpt>
      <trkpt lat="48.15848" lon="-3.00111">
        <ele>118.529676</ele>
        <time>2022-12-12T15:17:34.817Z</time>
      </trkpt>
      <trkpt lat="48.15845" lon="-3.00127">
        <ele>118.819045</ele>
        <time>2022-12-12T15:17:37.844Z</time>
      </trkpt>
      <trkpt lat="48.15842" lon="-3.00142">
        <ele>119.082133</ele>
        <time>2022-12-12T15:17:40.837Z</time>
      </trkpt>
      <trkpt lat="48.15843" lon="-3.0016">
        <ele>119.386785</ele>
        <time>2022-12-12T15:17:43.827Z</time>
      </trkpt>
      <trkpt lat="48.15841" lon="-3.00178">
        <ele>119.695026</ele>
        <time>2022-12-12T15:17:46.817Z</time>
      </trkpt>
      <trkpt lat="48.1584" lon="-3.00196">
        <ele>120.017851</ele>
        <time>2022-12-12T15:17:49.845Z</time>
      </trkpt>
      <trkpt lat="48.15838" lon="-3.00214">
        <ele>120.315438</ele>
        <time>2022-12-12T15:17:52.820Z</time>
      </trkpt>
      <trkpt lat="48.15837" lon="-3.0023">
        <ele>120.591621</ele>
        <time>2022-12-12T15:17:55.822Z</time>
      </trkpt>
      <trkpt lat="48.15836" lon="-3.00246">
        <ele>120.873769</ele>
        <time>2022-12-12T15:17:58.838Z</time>
      </trkpt>
      <trkpt lat="48.15837" lon="-3.00263">
        <ele>121.164911</ele>
        <time>2022-12-12T15:18:01.841Z</time>
      </trkpt>
      <trkpt lat="48.15839" lon="-3.00279">
        <ele>121.432277</ele>
        <time>2022-12-12T15:18:04.843Z</time>
      </trkpt>
      <trkpt lat="48.1584" lon="-3.00294">
        <ele>121.69494</ele>
        <time>2022-12-12T15:18:07.833Z</time>
      </trkpt>
      <trkpt lat="48.15843" lon="-3.00308">
        <ele>121.94523</ele>
        <time>2022-12-12T15:18:10.823Z</time>
      </trkpt>
      <trkpt lat="48.15844" lon="-3.00322">
        <ele>122.182744</ele>
        <time>2022-12-12T15:18:13.842Z</time>
      </trkpt>
      <trkpt lat="48.15847" lon="-3.00336">
        <ele>122.425277</ele>
        <time>2022-12-12T15:18:16.822Z</time>
      </trkpt>
      <trkpt lat="48.15849" lon="-3.00351">
        <ele>122.700172</ele>
        <time>2022-12-12T15:18:19.842Z</time>
      </trkpt>
      <trkpt lat="48.15852" lon="-3.00367">
        <ele>122.868392</ele>
        <time>2022-12-12T15:18:22.837Z</time>
      </trkpt>
      <trkpt lat="48.15855" lon="-3.00384">
        <ele>122.870059</ele>
        <time>2022-12-12T15:18:25.839Z</time>
      </trkpt>
      <trkpt lat="48.1586" lon="-3.00399">
        <ele>122.871677</ele>
        <time>2022-12-12T15:18:28.817Z</time>
      </trkpt>
      <trkpt lat="48.15865" lon="-3.00416">
        <ele>122.873512</ele>
        <time>2022-12-12T15:18:31.819Z</time>
      </trkpt>
      <trkpt lat="48.15869" lon="-3.00429">
        <ele>122.874811</ele>
        <time>2022-12-12T15:18:33.831Z</time>
      </trkpt>
      <trkpt lat="48.15875" lon="-3.00445">
        <ele>122.876616</ele>
        <time>2022-12-12T15:18:36.848Z</time>
      </trkpt>
      <trkpt lat="48.15878" lon="-3.00461">
        <ele>122.878233</ele>
        <time>2022-12-12T15:18:39.824Z</time>
      </trkpt>
      <trkpt lat="48.15882" lon="-3.00476">
        <ele>122.879804</ele>
        <time>2022-12-12T15:18:42.836Z</time>
      </trkpt>
      <trkpt lat="48.15886" lon="-3.00491">
        <ele>122.881297</ele>
        <time>2022-12-12T15:18:45.834Z</time>
      </trkpt>
      <trkpt lat="48.15889" lon="-3.00505">
        <ele>122.882751</ele>
        <time>2022-12-12T15:18:48.843Z</time>
      </trkpt>
      <trkpt lat="48.15895" lon="-3.00521">
        <ele>122.884482</ele>
        <time>2022-12-12T15:18:51.842Z</time>
      </trkpt>
      <trkpt lat="48.159" lon="-3.00537">
        <ele>122.886185</ele>
        <time>2022-12-12T15:18:54.837Z</time>
      </trkpt>
      <trkpt lat="48.15905" lon="-3.00552">
        <ele>122.88779</ele>
        <time>2022-12-12T15:18:57.844Z</time>
      </trkpt>
      <trkpt lat="48.1591" lon="-3.00568">
        <ele>122.889469</ele>
        <time>2022-12-12T15:19:00.834Z</time>
      </trkpt>
      <trkpt lat="48.15915" lon="-3.00585">
        <ele>122.891301</ele>
        <time>2022-12-12T15:19:03.844Z</time>
      </trkpt>
      <trkpt lat="48.15921" lon="-3.00603">
        <ele>122.893206</ele>
        <time>2022-12-12T15:19:06.845Z</time>
      </trkpt>
      <trkpt lat="48.15924" lon="-3.00616">
        <ele>122.810375</ele>
        <time>2022-12-12T15:19:08.819Z</time>
      </trkpt>
      <trkpt lat="48.15927" lon="-3.00634">
        <ele>122.642401</ele>
        <time>2022-12-12T15:19:11.829Z</time>
      </trkpt>
      <trkpt lat="48.15929" lon="-3.0065">
        <ele>122.488131</ele>
        <time>2022-12-12T15:19:14.817Z</time>
      </trkpt>
      <trkpt lat="48.15928" lon="-3.00668">
        <ele>122.324858</ele>
        <time>2022-12-12T15:19:17.840Z</time>
      </trkpt>
      <trkpt lat="48.15929" lon="-3.00688">
        <ele>122.143137</ele>
        <time>2022-12-12T15:19:20.843Z</time>
      </trkpt>
      <trkpt lat="48.1593" lon="-3.00705">
        <ele>121.979195</ele>
        <time>2022-12-12T15:19:23.840Z</time>
      </trkpt>
      <trkpt lat="48.15931" lon="-3.00724">
        <ele>121.806843</ele>
        <time>2022-12-12T15:19:26.819Z</time>
      </trkpt>
      <trkpt lat="48.15931" lon="-3.00738">
        <ele>121.677147</ele>
        <time>2022-12-12T15:19:28.835Z</time>
      </trkpt>
      <trkpt lat="48.15931" lon="-3.00752">
        <ele>121.551016</ele>
        <time>2022-12-12T15:19:30.831Z</time>
      </trkpt>
      <trkpt lat="48.15931" lon="-3.00766">
        <ele>121.417648</ele>
        <time>2022-12-12T15:19:32.832Z</time>
      </trkpt>
      <trkpt lat="48.15931" lon="-3.00781">
        <ele>121.282377</ele>
        <time>2022-12-12T15:19:34.843Z</time>
      </trkpt>
      <trkpt lat="48.15932" lon="-3.008">
        <ele>121.103599</ele>
        <time>2022-12-12T15:19:37.841Z</time>
      </trkpt>
      <trkpt lat="48.15932" lon="-3.0082">
        <ele>120.927872</ele>
        <time>2022-12-12T15:19:40.839Z</time>
      </trkpt>
      <trkpt lat="48.15931" lon="-3.00837">
        <ele>120.76318</ele>
        <time>2022-12-12T15:19:43.837Z</time>
      </trkpt>
      <trkpt lat="48.1593" lon="-3.00856">
        <ele>120.594296</ele>
        <time>2022-12-12T15:19:46.843Z</time>
      </trkpt>
      <trkpt lat="48.1593" lon="-3.00874">
        <ele>120.42597</ele>
        <time>2022-12-12T15:19:49.822Z</time>
      </trkpt>
      <trkpt lat="48.1593" lon="-3.00892">
        <ele>120.335667</ele>
        <time>2022-12-12T15:19:52.819Z</time>
      </trkpt>
      <trkpt lat="48.15929" lon="-3.00906">
        <ele>120.272648</ele>
        <time>2022-12-12T15:19:54.827Z</time>
      </trkpt>
      <trkpt lat="48.15928" lon="-3.00926">
        <ele>120.177912</ele>
        <time>2022-12-12T15:19:57.836Z</time>
      </trkpt>
      <trkpt lat="48.15928" lon="-3.00946">
        <ele>120.087334</ele>
        <time>2022-12-12T15:20:00.818Z</time>
      </trkpt>
      <trkpt lat="48.15927" lon="-3.00964">
        <ele>120.000998</ele>
        <time>2022-12-12T15:20:03.840Z</time>
      </trkpt>
      <trkpt lat="48.15925" lon="-3.00982">
        <ele>119.918392</ele>
        <time>2022-12-12T15:20:06.844Z</time>
      </trkpt>
      <trkpt lat="48.15922" lon="-3.01">
        <ele>119.832673</ele>
        <time>2022-12-12T15:20:09.820Z</time>
      </trkpt>
      <trkpt lat="48.15916" lon="-3.01015">
        <ele>119.753022</ele>
        <time>2022-12-12T15:20:12.821Z</time>
      </trkpt>
      <trkpt lat="48.15909" lon="-3.01029">
        <ele>119.674812</ele>
        <time>2022-12-12T15:20:15.820Z</time>
      </trkpt>
      <trkpt lat="48.15902" lon="-3.01038">
        <ele>119.609932</ele>
        <time>2022-12-12T15:20:18.821Z</time>
      </trkpt>
      <trkpt lat="48.15893" lon="-3.01045">
        <ele>119.54032</ele>
        <time>2022-12-12T15:20:21.817Z</time>
      </trkpt>
      <trkpt lat="48.15884" lon="-3.0105">
        <ele>119.471244</ele>
        <time>2022-12-12T15:20:24.842Z</time>
      </trkpt>
      <trkpt lat="48.15873" lon="-3.01056">
        <ele>119.388062</ele>
        <time>2022-12-12T15:20:28.846Z</time>
      </trkpt>
      <trkpt lat="48.15862" lon="-3.01061">
        <ele>119.313216</ele>
        <time>2022-12-12T15:20:31.821Z</time>
      </trkpt>
      <trkpt lat="48.15852" lon="-3.01065">
        <ele>119.239162</ele>
        <time>2022-12-12T15:20:34.844Z</time>
      </trkpt>
      <trkpt lat="48.15841" lon="-3.01069">
        <ele>119.162039</ele>
        <time>2022-12-12T15:20:37.839Z</time>
      </trkpt>
      <trkpt lat="48.1583" lon="-3.01071">
        <ele>119.111973</ele>
        <time>2022-12-12T15:20:40.849Z</time>
      </trkpt>
      <trkpt lat="48.1582" lon="-3.01075">
        <ele>119.062172</ele>
        <time>2022-12-12T15:20:43.845Z</time>
      </trkpt>
      <trkpt lat="48.15808" lon="-3.01078">
        <ele>119.007083</ele>
        <time>2022-12-12T15:20:46.843Z</time>
      </trkpt>
      <trkpt lat="48.15796" lon="-3.0108">
        <ele>118.950781</ele>
        <time>2022-12-12T15:20:49.846Z</time>
      </trkpt>
      <trkpt lat="48.15784" lon="-3.01082">
        <ele>118.89564</ele>
        <time>2022-12-12T15:20:52.843Z</time>
      </trkpt>
      <trkpt lat="48.15774" lon="-3.01086">
        <ele>118.84388</ele>
        <time>2022-12-12T15:20:55.841Z</time>
      </trkpt>
      <trkpt lat="48.15763" lon="-3.01088">
        <ele>118.792251</ele>
        <time>2022-12-12T15:20:58.847Z</time>
      </trkpt>
      <trkpt lat="48.15751" lon="-3.0109">
        <ele>118.736307</ele>
        <time>2022-12-12T15:21:01.824Z</time>
      </trkpt>
      <trkpt lat="48.15741" lon="-3.01091">
        <ele>118.689035</ele>
        <time>2022-12-12T15:21:04.847Z</time>
      </trkpt>
      <trkpt lat="48.15729" lon="-3.01092">
        <ele>118.636702</ele>
        <time>2022-12-12T15:21:07.840Z</time>
      </trkpt>
      <trkpt lat="48.15717" lon="-3.01093">
        <ele>118.58016</ele>
        <time>2022-12-12T15:21:10.847Z</time>
      </trkpt>
      <trkpt lat="48.15706" lon="-3.01094">
        <ele>118.529279</ele>
        <time>2022-12-12T15:21:13.849Z</time>
      </trkpt>
      <trkpt lat="48.15695" lon="-3.01094">
        <ele>118.476066</ele>
        <time>2022-12-12T15:21:16.845Z</time>
      </trkpt>
      <trkpt lat="48.15683" lon="-3.01095">
        <ele>118.420512</ele>
        <time>2022-12-12T15:21:19.839Z</time>
      </trkpt>
      <trkpt lat="48.15671" lon="-3.01096">
        <ele>118.364014</ele>
        <time>2022-12-12T15:21:22.845Z</time>
      </trkpt>
      <trkpt lat="48.15659" lon="-3.01096">
        <ele>118.27912</ele>
        <time>2022-12-12T15:21:25.840Z</time>
      </trkpt>
      <trkpt lat="48.15647" lon="-3.01095">
        <ele>118.148153</ele>
        <time>2022-12-12T15:21:28.835Z</time>
      </trkpt>
      <trkpt lat="48.15634" lon="-3.01094">
        <ele>118.008161</ele>
        <time>2022-12-12T15:21:31.829Z</time>
      </trkpt>
      <trkpt lat="48.1562" lon="-3.01094">
        <ele>117.860045</ele>
        <time>2022-12-12T15:21:34.814Z</time>
      </trkpt>
      <trkpt lat="48.15607" lon="-3.01093">
        <ele>117.72011</ele>
        <time>2022-12-12T15:21:37.833Z</time>
      </trkpt>
      <trkpt lat="48.15598" lon="-3.01092">
        <ele>117.62235</ele>
        <time>2022-12-12T15:21:39.826Z</time>
      </trkpt>
      <trkpt lat="48.15588" lon="-3.01092">
        <ele>117.521424</ele>
        <time>2022-12-12T15:21:41.823Z</time>
      </trkpt>
      <trkpt lat="48.15575" lon="-3.01091">
        <ele>117.381811</ele>
        <time>2022-12-12T15:21:44.821Z</time>
      </trkpt>
      <trkpt lat="48.15563" lon="-3.01092">
        <ele>117.247561</ele>
        <time>2022-12-12T15:21:47.819Z</time>
      </trkpt>
      <trkpt lat="48.15553" lon="-3.01092">
        <ele>117.144527</ele>
        <time>2022-12-12T15:21:50.821Z</time>
      </trkpt>
      <trkpt lat="48.15543" lon="-3.01092">
        <ele>117.0372</ele>
        <time>2022-12-12T15:21:53.845Z</time>
      </trkpt>
      <trkpt lat="48.15533" lon="-3.01091">
        <ele>116.929758</ele>
        <time>2022-12-12T15:21:56.844Z</time>
      </trkpt>
      <trkpt lat="48.15523" lon="-3.01092">
        <ele>116.817553</ele>
        <time>2022-12-12T15:21:59.818Z</time>
      </trkpt>
      <trkpt lat="48.1551" lon="-3.01094">
        <ele>116.675299</ele>
        <time>2022-12-12T15:22:02.845Z</time>
      </trkpt>
      <trkpt lat="48.15501" lon="-3.01094">
        <ele>116.57761</ele>
        <time>2022-12-12T15:22:04.837Z</time>
      </trkpt>
      <trkpt lat="48.15491" lon="-3.01095">
        <ele>116.473384</ele>
        <time>2022-12-12T15:22:06.846Z</time>
      </trkpt>
      <trkpt lat="48.15481" lon="-3.01097">
        <ele>116.377772</ele>
        <time>2022-12-12T15:22:08.821Z</time>
      </trkpt>
      <trkpt lat="48.15468" lon="-3.01101">
        <ele>116.287561</ele>
        <time>2022-12-12T15:22:11.816Z</time>
      </trkpt>
      <trkpt lat="48.15457" lon="-3.01108">
        <ele>116.203948</ele>
        <time>2022-12-12T15:22:14.832Z</time>
      </trkpt>
      <trkpt lat="48.15445" lon="-3.01118">
        <ele>116.114316</ele>
        <time>2022-12-12T15:22:17.846Z</time>
      </trkpt>
      <trkpt lat="48.15435" lon="-3.01128">
        <ele>116.029318</ele>
        <time>2022-12-12T15:22:20.818Z</time>
      </trkpt>
      <trkpt lat="48.15426" lon="-3.01139">
        <ele>115.954095</ele>
        <time>2022-12-12T15:22:23.846Z</time>
      </trkpt>
      <trkpt lat="48.15419" lon="-3.01148">
        <ele>115.889949</ele>
        <time>2022-12-12T15:22:26.826Z</time>
      </trkpt>
      <trkpt lat="48.15408" lon="-3.01159">
        <ele>115.80024</ele>
        <time>2022-12-12T15:22:29.818Z</time>
      </trkpt>
      <trkpt lat="48.15397" lon="-3.01169">
        <ele>115.711551</ele>
        <time>2022-12-12T15:22:32.843Z</time>
      </trkpt>
      <trkpt lat="48.15385" lon="-3.01177">
        <ele>115.622386</ele>
        <time>2022-12-12T15:22:35.839Z</time>
      </trkpt>
      <trkpt lat="48.15373" lon="-3.01182">
        <ele>115.540395</ele>
        <time>2022-12-12T15:22:38.835Z</time>
      </trkpt>
      <trkpt lat="48.15362" lon="-3.01186">
        <ele>115.459314</ele>
        <time>2022-12-12T15:22:41.834Z</time>
      </trkpt>
      <trkpt lat="48.15351" lon="-3.01189">
        <ele>115.386594</ele>
        <time>2022-12-12T15:22:44.835Z</time>
      </trkpt>
      <trkpt lat="48.15339" lon="-3.0119">
        <ele>115.305605</ele>
        <time>2022-12-12T15:22:47.830Z</time>
      </trkpt>
      <trkpt lat="48.15327" lon="-3.0119">
        <ele>115.222586</ele>
        <time>2022-12-12T15:22:50.832Z</time>
      </trkpt>
      <trkpt lat="48.15318" lon="-3.0119">
        <ele>115.179819</ele>
        <time>2022-12-12T15:22:52.823Z</time>
      </trkpt>
      <trkpt lat="48.15308" lon="-3.01187">
        <ele>115.201707</ele>
        <time>2022-12-12T15:22:54.824Z</time>
      </trkpt>
      <trkpt lat="48.15299" lon="-3.01183">
        <ele>115.221149</ele>
        <time>2022-12-12T15:22:56.827Z</time>
      </trkpt>
      <trkpt lat="48.15287" lon="-3.01178">
        <ele>115.247526</ele>
        <time>2022-12-12T15:22:59.839Z</time>
      </trkpt>
      <trkpt lat="48.15277" lon="-3.01172">
        <ele>115.271064</ele>
        <time>2022-12-12T15:23:03.819Z</time>
      </trkpt>
      <trkpt lat="48.15266" lon="-3.01164">
        <ele>115.29857</ele>
        <time>2022-12-12T15:23:06.841Z</time>
      </trkpt>
      <trkpt lat="48.15254" lon="-3.01154">
        <ele>115.327863</ele>
        <time>2022-12-12T15:23:09.839Z</time>
      </trkpt>
      <trkpt lat="48.15245" lon="-3.01149">
        <ele>115.347457</ele>
        <time>2022-12-12T15:23:11.833Z</time>
      </trkpt>
      <trkpt lat="48.15232" lon="-3.01141">
        <ele>115.378371</ele>
        <time>2022-12-12T15:23:14.830Z</time>
      </trkpt>
      <trkpt lat="48.15221" lon="-3.01133">
        <ele>115.404324</ele>
        <time>2022-12-12T15:23:17.820Z</time>
      </trkpt>
      <trkpt lat="48.15212" lon="-3.01126">
        <ele>115.427076</ele>
        <time>2022-12-12T15:23:19.827Z</time>
      </trkpt>
      <trkpt lat="48.15203" lon="-3.0112">
        <ele>115.44688</ele>
        <time>2022-12-12T15:23:21.819Z</time>
      </trkpt>
      <trkpt lat="48.15195" lon="-3.01114">
        <ele>115.466537</ele>
        <time>2022-12-12T15:23:23.839Z</time>
      </trkpt>
      <trkpt lat="48.15184" lon="-3.01107">
        <ele>115.492105</ele>
        <time>2022-12-12T15:23:26.845Z</time>
      </trkpt>
      <trkpt lat="48.15176" lon="-3.011">
        <ele>115.513176</ele>
        <time>2022-12-12T15:23:29.845Z</time>
      </trkpt>
      <trkpt lat="48.15168" lon="-3.01092">
        <ele>115.534135</ele>
        <time>2022-12-12T15:23:33.827Z</time>
      </trkpt>
      <trkpt lat="48.15158" lon="-3.01082">
        <ele>115.559156</ele>
        <time>2022-12-12T15:23:37.849Z</time>
      </trkpt>
      <trkpt lat="48.15148" lon="-3.01072">
        <ele>115.503818</ele>
        <time>2022-12-12T15:23:40.845Z</time>
      </trkpt>
      <trkpt lat="48.15139" lon="-3.01059">
        <ele>115.440086</ele>
        <time>2022-12-12T15:23:43.820Z</time>
      </trkpt>
      <trkpt lat="48.15133" lon="-3.01044">
        <ele>115.379705</ele>
        <time>2022-12-12T15:23:46.826Z</time>
      </trkpt>
      <trkpt lat="48.15127" lon="-3.0103">
        <ele>115.321387</ele>
        <time>2022-12-12T15:23:49.840Z</time>
      </trkpt>
      <trkpt lat="48.15121" lon="-3.01017">
        <ele>115.267129</ele>
        <time>2022-12-12T15:23:52.843Z</time>
      </trkpt>
      <trkpt lat="48.15116" lon="-3.01005">
        <ele>115.216169</ele>
        <time>2022-12-12T15:23:55.844Z</time>
      </trkpt>
      <trkpt lat="48.15113" lon="-3.00991">
        <ele>115.164532</ele>
        <time>2022-12-12T15:23:58.844Z</time>
      </trkpt>
      <trkpt lat="48.15108" lon="-3.00976">
        <ele>115.107268</ele>
        <time>2022-12-12T15:24:01.843Z</time>
      </trkpt>
      <trkpt lat="48.15103" lon="-3.00959">
        <ele>115.04332</ele>
        <time>2022-12-12T15:24:04.834Z</time>
      </trkpt>
      <trkpt lat="48.15098" lon="-3.00943">
        <ele>114.981915</ele>
        <time>2022-12-12T15:24:07.835Z</time>
      </trkpt>
      <trkpt lat="48.15093" lon="-3.00927">
        <ele>114.918811</ele>
        <time>2022-12-12T15:24:10.842Z</time>
      </trkpt>
      <trkpt lat="48.15089" lon="-3.00912">
        <ele>114.863115</ele>
        <time>2022-12-12T15:24:13.830Z</time>
      </trkpt>
      <trkpt lat="48.15084" lon="-3.00896">
        <ele>114.802343</ele>
        <time>2022-12-12T15:24:16.842Z</time>
      </trkpt>
      <trkpt lat="48.15078" lon="-3.00879">
        <ele>114.73471</ele>
        <time>2022-12-12T15:24:19.844Z</time>
      </trkpt>
      <trkpt lat="48.15073" lon="-3.00862">
        <ele>114.669261</ele>
        <time>2022-12-12T15:24:22.834Z</time>
      </trkpt>
      <trkpt lat="48.15067" lon="-3.00846">
        <ele>114.656366</ele>
        <time>2022-12-12T15:24:25.816Z</time>
      </trkpt>
      <trkpt lat="48.15061" lon="-3.00829">
        <ele>114.802843</ele>
        <time>2022-12-12T15:24:28.837Z</time>
      </trkpt>
      <trkpt lat="48.15054" lon="-3.00814">
        <ele>114.944219</ele>
        <time>2022-12-12T15:24:31.844Z</time>
      </trkpt>
      <trkpt lat="48.15048" lon="-3.00803">
        <ele>115.05762</ele>
        <time>2022-12-12T15:24:33.847Z</time>
      </trkpt>
      <trkpt lat="48.15042" lon="-3.00788">
        <ele>115.184578</ele>
        <time>2022-12-12T15:24:36.844Z</time>
      </trkpt>
      <trkpt lat="48.15035" lon="-3.00775">
        <ele>115.315763</ele>
        <time>2022-12-12T15:24:39.841Z</time>
      </trkpt>
      <trkpt lat="48.15027" lon="-3.00763">
        <ele>115.441921</ele>
        <time>2022-12-12T15:24:42.834Z</time>
      </trkpt>
      <trkpt lat="48.15022" lon="-3.0075">
        <ele>115.557151</ele>
        <time>2022-12-12T15:24:45.818Z</time>
      </trkpt>
      <trkpt lat="48.15015" lon="-3.00737">
        <ele>115.687903</ele>
        <time>2022-12-12T15:24:48.840Z</time>
      </trkpt>
      <trkpt lat="48.15008" lon="-3.00724">
        <ele>115.812818</ele>
        <time>2022-12-12T15:24:51.834Z</time>
      </trkpt>
      <trkpt lat="48.15" lon="-3.0071">
        <ele>115.953906</ele>
        <time>2022-12-12T15:24:54.842Z</time>
      </trkpt>
      <trkpt lat="48.14994" lon="-3.00699">
        <ele>116.063292</ele>
        <time>2022-12-12T15:24:56.833Z</time>
      </trkpt>
      <trkpt lat="48.14986" lon="-3.00684">
        <ele>116.213581</ele>
        <time>2022-12-12T15:24:59.840Z</time>
      </trkpt>
      <trkpt lat="48.14978" lon="-3.00671">
        <ele>116.34834</ele>
        <time>2022-12-12T15:25:02.845Z</time>
      </trkpt>
      <trkpt lat="48.14972" lon="-3.00659">
        <ele>116.460753</ele>
        <time>2022-12-12T15:25:05.839Z</time>
      </trkpt>
      <trkpt lat="48.14965" lon="-3.00647">
        <ele>116.580932</ele>
        <time>2022-12-12T15:25:08.844Z</time>
      </trkpt>
      <trkpt lat="48.14957" lon="-3.00633">
        <ele>116.647745</ele>
        <time>2022-12-12T15:25:11.844Z</time>
      </trkpt>
      <trkpt lat="48.1495" lon="-3.00618">
        <ele>116.499671</ele>
        <time>2022-12-12T15:25:14.848Z</time>
      </trkpt>
      <trkpt lat="48.14941" lon="-3.00604">
        <ele>116.353603</ele>
        <time>2022-12-12T15:25:17.824Z</time>
      </trkpt>
      <trkpt lat="48.14934" lon="-3.00591">
        <ele>116.219204</ele>
        <time>2022-12-12T15:25:20.844Z</time>
      </trkpt>
      <trkpt lat="48.14929" lon="-3.00578">
        <ele>116.104085</ele>
        <time>2022-12-12T15:25:23.840Z</time>
      </trkpt>
      <trkpt lat="48.14923" lon="-3.00566">
        <ele>115.988863</ele>
        <time>2022-12-12T15:25:26.842Z</time>
      </trkpt>
      <trkpt lat="48.14917" lon="-3.00556">
        <ele>115.878229</ele>
        <time>2022-12-12T15:25:29.848Z</time>
      </trkpt>
      <trkpt lat="48.14909" lon="-3.00543">
        <ele>115.747156</ele>
        <time>2022-12-12T15:25:32.821Z</time>
      </trkpt>
      <trkpt lat="48.14901" lon="-3.0053">
        <ele>115.59928</ele>
        <time>2022-12-12T15:25:35.842Z</time>
      </trkpt>
      <trkpt lat="48.14892" lon="-3.00516">
        <ele>115.453093</ele>
        <time>2022-12-12T15:25:38.848Z</time>
      </trkpt>
      <trkpt lat="48.14883" lon="-3.00504">
        <ele>115.309936</ele>
        <time>2022-12-12T15:25:41.843Z</time>
      </trkpt>
      <trkpt lat="48.14876" lon="-3.00494">
        <ele>115.200775</ele>
        <time>2022-12-12T15:25:44.848Z</time>
      </trkpt>
      <trkpt lat="48.14869" lon="-3.0048">
        <ele>115.060377</ele>
        <time>2022-12-12T15:25:48.823Z</time>
      </trkpt>
      <trkpt lat="48.1486" lon="-3.00468">
        <ele>114.920002</ele>
        <time>2022-12-12T15:25:52.843Z</time>
      </trkpt>
      <trkpt lat="48.14853" lon="-3.00457">
        <ele>114.800349</ele>
        <time>2022-12-12T15:25:55.824Z</time>
      </trkpt>
      <trkpt lat="48.14846" lon="-3.00447">
        <ele>114.687057</ele>
        <time>2022-12-12T15:25:58.833Z</time>
      </trkpt>
      <trkpt lat="48.14837" lon="-3.00434">
        <ele>114.587337</ele>
        <time>2022-12-12T15:26:01.828Z</time>
      </trkpt>
      <trkpt lat="48.14829" lon="-3.00422">
        <ele>114.631912</ele>
        <time>2022-12-12T15:26:04.829Z</time>
      </trkpt>
      <trkpt lat="48.1482" lon="-3.00411">
        <ele>114.67771</ele>
        <time>2022-12-12T15:26:07.832Z</time>
      </trkpt>
      <trkpt lat="48.14811" lon="-3.00401">
        <ele>114.720401</ele>
        <time>2022-12-12T15:26:10.841Z</time>
      </trkpt>
      <trkpt lat="48.14802" lon="-3.00392">
        <ele>114.76205</ele>
        <time>2022-12-12T15:26:13.834Z</time>
      </trkpt>
      <trkpt lat="48.14792" lon="-3.00383">
        <ele>114.807257</ele>
        <time>2022-12-12T15:26:16.821Z</time>
      </trkpt>
      <trkpt lat="48.14782" lon="-3.00375">
        <ele>114.850956</ele>
        <time>2022-12-12T15:26:19.830Z</time>
      </trkpt>
      <trkpt lat="48.1477" lon="-3.00368">
        <ele>114.900015</ele>
        <time>2022-12-12T15:26:22.823Z</time>
      </trkpt>
      <trkpt lat="48.1476" lon="-3.00361">
        <ele>114.943491</ele>
        <time>2022-12-12T15:26:25.840Z</time>
      </trkpt>
      <trkpt lat="48.14749" lon="-3.00356">
        <ele>114.985955</ele>
        <time>2022-12-12T15:26:28.824Z</time>
      </trkpt>
      <trkpt lat="48.14738" lon="-3.00351">
        <ele>115.030916</ele>
        <time>2022-12-12T15:26:31.831Z</time>
      </trkpt>
      <trkpt lat="48.14727" lon="-3.00346">
        <ele>115.076093</ele>
        <time>2022-12-12T15:26:34.848Z</time>
      </trkpt>
      <trkpt lat="48.14717" lon="-3.00343">
        <ele>115.115414</ele>
        <time>2022-12-12T15:26:37.843Z</time>
      </trkpt>
      <trkpt lat="48.14708" lon="-3.00339">
        <ele>115.152735</ele>
        <time>2022-12-12T15:26:40.833Z</time>
      </trkpt>
      <trkpt lat="48.14697" lon="-3.00336">
        <ele>115.195073</ele>
        <time>2022-12-12T15:26:43.825Z</time>
      </trkpt>
      <trkpt lat="48.14686" lon="-3.00332">
        <ele>115.238078</ele>
        <time>2022-12-12T15:26:46.820Z</time>
      </trkpt>
      <trkpt lat="48.14675" lon="-3.00329">
        <ele>115.251394</ele>
        <time>2022-12-12T15:26:49.823Z</time>
      </trkpt>
      <trkpt lat="48.14666" lon="-3.00326">
        <ele>115.182353</ele>
        <time>2022-12-12T15:26:52.834Z</time>
      </trkpt>
      <trkpt lat="48.14657" lon="-3.00323">
        <ele>115.111724</ele>
        <time>2022-12-12T15:26:55.829Z</time>
      </trkpt>
      <trkpt lat="48.14647" lon="-3.0032">
        <ele>115.036023</ele>
        <time>2022-12-12T15:26:58.846Z</time>
      </trkpt>
      <trkpt lat="48.14635" lon="-3.00316">
        <ele>114.945417</ele>
        <time>2022-12-12T15:27:01.850Z</time>
      </trkpt>
      <trkpt lat="48.14625" lon="-3.00311">
        <ele>114.861898</ele>
        <time>2022-12-12T15:27:04.832Z</time>
      </trkpt>
      <trkpt lat="48.14614" lon="-3.00308">
        <ele>114.778051</ele>
        <time>2022-12-12T15:27:07.843Z</time>
      </trkpt>
      <trkpt lat="48.14603" lon="-3.00303">
        <ele>114.692794</ele>
        <time>2022-12-12T15:27:10.841Z</time>
      </trkpt>
      <trkpt lat="48.14594" lon="-3.00298">
        <ele>114.617955</ele>
        <time>2022-12-12T15:27:13.843Z</time>
      </trkpt>
      <trkpt lat="48.14583" lon="-3.00294">
        <ele>114.535227</ele>
        <time>2022-12-12T15:27:16.844Z</time>
      </trkpt>
      <trkpt lat="48.14572" lon="-3.0029">
        <ele>114.447598</ele>
        <time>2022-12-12T15:27:19.843Z</time>
      </trkpt>
      <trkpt lat="48.14561" lon="-3.00285">
        <ele>114.359006</ele>
        <time>2022-12-12T15:27:22.841Z</time>
      </trkpt>
      <trkpt lat="48.1455" lon="-3.00278">
        <ele>114.274108</ele>
        <time>2022-12-12T15:27:25.830Z</time>
      </trkpt>
      <trkpt lat="48.1454" lon="-3.00271">
        <ele>114.185545</ele>
        <time>2022-12-12T15:27:28.846Z</time>
      </trkpt>
      <trkpt lat="48.14529" lon="-3.00264">
        <ele>114.094402</ele>
        <time>2022-12-12T15:27:31.846Z</time>
      </trkpt>
      <trkpt lat="48.14517" lon="-3.00258">
        <ele>114.002268</ele>
        <time>2022-12-12T15:27:34.849Z</time>
      </trkpt>
      <trkpt lat="48.14506" lon="-3.00251">
        <ele>113.915449</ele>
        <time>2022-12-12T15:27:37.842Z</time>
      </trkpt>
      <trkpt lat="48.14494" lon="-3.00246">
        <ele>114.03156</ele>
        <time>2022-12-12T15:27:40.843Z</time>
      </trkpt>
      <trkpt lat="48.14484" lon="-3.00241">
        <ele>114.141599</ele>
        <time>2022-12-12T15:27:43.842Z</time>
      </trkpt>
      <trkpt lat="48.14475" lon="-3.00237">
        <ele>114.232575</ele>
        <time>2022-12-12T15:27:46.827Z</time>
      </trkpt>
      <trkpt lat="48.14465" lon="-3.00238">
        <ele>114.324394</ele>
        <time>2022-12-12T15:27:49.832Z</time>
      </trkpt>
      <trkpt lat="48.14455" lon="-3.0024">
        <ele>114.424557</ele>
        <time>2022-12-12T15:27:52.821Z</time>
      </trkpt>
      <trkpt lat="48.14445" lon="-3.00247">
        <ele>114.533761</ele>
        <time>2022-12-12T15:27:55.825Z</time>
      </trkpt>
      <trkpt lat="48.14436" lon="-3.00257">
        <ele>114.646309</ele>
        <time>2022-12-12T15:27:58.819Z</time>
      </trkpt>
      <trkpt lat="48.14427" lon="-3.00268">
        <ele>114.75964</ele>
        <time>2022-12-12T15:28:01.827Z</time>
      </trkpt>
      <trkpt lat="48.14418" lon="-3.00279">
        <ele>114.87669</ele>
        <time>2022-12-12T15:28:04.834Z</time>
      </trkpt>
      <trkpt lat="48.14409" lon="-3.0029">
        <ele>114.99172</ele>
        <time>2022-12-12T15:28:07.819Z</time>
      </trkpt>
      <trkpt lat="48.14399" lon="-3.00303">
        <ele>115.120143</ele>
        <time>2022-12-12T15:28:10.829Z</time>
      </trkpt>
      <trkpt lat="48.14391" lon="-3.00317">
        <ele>115.243816</ele>
        <time>2022-12-12T15:28:13.820Z</time>
      </trkpt>
      <trkpt lat="48.14382" lon="-3.00329">
        <ele>115.360424</ele>
        <time>2022-12-12T15:28:16.843Z</time>
      </trkpt>
      <trkpt lat="48.14375" lon="-3.00342">
        <ele>115.470309</ele>
        <time>2022-12-12T15:28:19.835Z</time>
      </trkpt>
      <trkpt lat="48.14368" lon="-3.00355">
        <ele>115.580194</ele>
        <time>2022-12-12T15:28:22.838Z</time>
      </trkpt>
      <trkpt lat="48.1436" lon="-3.00369">
        <ele>115.679673</ele>
        <time>2022-12-12T15:28:25.827Z</time>
      </trkpt>
      <trkpt lat="48.14354" lon="-3.00382">
        <ele>115.635416</ele>
        <time>2022-12-12T15:28:28.843Z</time>
      </trkpt>
      <trkpt lat="48.14348" lon="-3.00394">
        <ele>115.595461</ele>
        <time>2022-12-12T15:28:31.839Z</time>
      </trkpt>
      <trkpt lat="48.14342" lon="-3.00405">
        <ele>115.55507</ele>
        <time>2022-12-12T15:28:34.824Z</time>
      </trkpt>
      <trkpt lat="48.14336" lon="-3.00418">
        <ele>115.513821</ele>
        <time>2022-12-12T15:28:37.838Z</time>
      </trkpt>
      <trkpt lat="48.14331" lon="-3.00431">
        <ele>115.471192</ele>
        <time>2022-12-12T15:28:40.844Z</time>
      </trkpt>
      <trkpt lat="48.14326" lon="-3.00445">
        <ele>115.429871</ele>
        <time>2022-12-12T15:28:43.831Z</time>
      </trkpt>
      <trkpt lat="48.14321" lon="-3.00456">
        <ele>115.392805</ele>
        <time>2022-12-12T15:28:46.833Z</time>
      </trkpt>
      <trkpt lat="48.14316" lon="-3.00472">
        <ele>115.344987</ele>
        <time>2022-12-12T15:28:50.844Z</time>
      </trkpt>
      <trkpt lat="48.14312" lon="-3.00485">
        <ele>115.305881</ele>
        <time>2022-12-12T15:28:55.822Z</time>
      </trkpt>
      <trkpt lat="48.14307" lon="-3.00498">
        <ele>115.264527</ele>
        <time>2022-12-12T15:29:11.832Z</time>
      </trkpt>
      <trkpt lat="48.14303" lon="-3.00511">
        <ele>115.226505</ele>
        <time>2022-12-12T15:29:16.835Z</time>
      </trkpt>
      <trkpt lat="48.14298" lon="-3.00525">
        <ele>115.18459</ele>
        <time>2022-12-12T15:29:20.841Z</time>
      </trkpt>
      <trkpt lat="48.14294" lon="-3.00539">
        <ele>115.14144</ele>
        <time>2022-12-12T15:29:23.846Z</time>
      </trkpt>
      <trkpt lat="48.14289" lon="-3.00554">
        <ele>115.095693</ele>
        <time>2022-12-12T15:29:26.841Z</time>
      </trkpt>
      <trkpt lat="48.14284" lon="-3.0057">
        <ele>115.048</ele>
        <time>2022-12-12T15:29:29.840Z</time>
      </trkpt>
      <trkpt lat="48.14278" lon="-3.00586">
        <ele>114.99805</ele>
        <time>2022-12-12T15:29:32.842Z</time>
      </trkpt>
      <trkpt lat="48.14272" lon="-3.00603">
        <ele>114.920447</ele>
        <time>2022-12-12T15:29:35.843Z</time>
      </trkpt>
      <trkpt lat="48.14265" lon="-3.0062">
        <ele>114.65434</ele>
        <time>2022-12-12T15:29:38.826Z</time>
      </trkpt>
      <trkpt lat="48.1426" lon="-3.00637">
        <ele>114.394962</ele>
        <time>2022-12-12T15:29:41.840Z</time>
      </trkpt>
      <trkpt lat="48.14253" lon="-3.00653">
        <ele>114.136083</ele>
        <time>2022-12-12T15:29:44.845Z</time>
      </trkpt>
      <trkpt lat="48.14247" lon="-3.00669">
        <ele>113.889422</ele>
        <time>2022-12-12T15:29:47.824Z</time>
      </trkpt>
      <trkpt lat="48.14241" lon="-3.00684">
        <ele>113.650129</ele>
        <time>2022-12-12T15:29:50.821Z</time>
      </trkpt>
      <trkpt lat="48.14232" lon="-3.00698">
        <ele>113.388688</ele>
        <time>2022-12-12T15:29:53.820Z</time>
      </trkpt>
      <trkpt lat="48.14224" lon="-3.00712">
        <ele>113.131646</ele>
        <time>2022-12-12T15:29:56.841Z</time>
      </trkpt>
      <trkpt lat="48.14216" lon="-3.00723">
        <ele>112.910503</ele>
        <time>2022-12-12T15:29:59.839Z</time>
      </trkpt>
      <trkpt lat="48.14206" lon="-3.00735">
        <ele>112.660136</ele>
        <time>2022-12-12T15:30:02.821Z</time>
      </trkpt>
      <trkpt lat="48.14196" lon="-3.00746">
        <ele>112.405843</ele>
        <time>2022-12-12T15:30:05.836Z</time>
      </trkpt>
      <trkpt lat="48.14186" lon="-3.00754">
        <ele>112.162019</ele>
        <time>2022-12-12T15:30:08.841Z</time>
      </trkpt>
      <trkpt lat="48.14176" lon="-3.00761">
        <ele>111.933507</ele>
        <time>2022-12-12T15:30:11.838Z</time>
      </trkpt>
      <trkpt lat="48.14164" lon="-3.00768">
        <ele>111.685721</ele>
        <time>2022-12-12T15:30:14.847Z</time>
      </trkpt>
      <trkpt lat="48.14153" lon="-3.00775">
        <ele>111.444497</ele>
        <time>2022-12-12T15:30:17.842Z</time>
      </trkpt>
      <trkpt lat="48.14143" lon="-3.0078">
        <ele>111.255532</ele>
        <time>2022-12-12T15:30:20.844Z</time>
      </trkpt>
      <trkpt lat="48.14133" lon="-3.00789">
        <ele>111.176829</ele>
        <time>2022-12-12T15:30:23.826Z</time>
      </trkpt>
      <trkpt lat="48.14124" lon="-3.008">
        <ele>111.093262</ele>
        <time>2022-12-12T15:30:26.825Z</time>
      </trkpt>
      <trkpt lat="48.14115" lon="-3.00814">
        <ele>111.008521</ele>
        <time>2022-12-12T15:30:29.823Z</time>
      </trkpt>
      <trkpt lat="48.14108" lon="-3.00827">
        <ele>110.928163</ele>
        <time>2022-12-12T15:30:32.834Z</time>
      </trkpt>
      <trkpt lat="48.14099" lon="-3.00841">
        <ele>110.840526</ele>
        <time>2022-12-12T15:30:35.840Z</time>
      </trkpt>
      <trkpt lat="48.14092" lon="-3.00853">
        <ele>110.765875</ele>
        <time>2022-12-12T15:30:38.846Z</time>
      </trkpt>
      <trkpt lat="48.14083" lon="-3.00867">
        <ele>110.679373</ele>
        <time>2022-12-12T15:30:41.819Z</time>
      </trkpt>
      <trkpt lat="48.14075" lon="-3.00879">
        <ele>110.60193</ele>
        <time>2022-12-12T15:30:44.835Z</time>
      </trkpt>
      <trkpt lat="48.14068" lon="-3.0089">
        <ele>110.529688</ele>
        <time>2022-12-12T15:30:47.822Z</time>
      </trkpt>
      <trkpt lat="48.14059" lon="-3.00899">
        <ele>110.457935</ele>
        <time>2022-12-12T15:30:50.828Z</time>
      </trkpt>
      <trkpt lat="48.14051" lon="-3.00908">
        <ele>110.386739</ele>
        <time>2022-12-12T15:30:53.825Z</time>
      </trkpt>
      <trkpt lat="48.14041" lon="-3.00921">
        <ele>110.300803</ele>
        <time>2022-12-12T15:30:56.844Z</time>
      </trkpt>
      <trkpt lat="48.14031" lon="-3.00929">
        <ele>110.217185</ele>
        <time>2022-12-12T15:30:59.817Z</time>
      </trkpt>
      <trkpt lat="48.1402" lon="-3.0094">
        <ele>110.132385</ele>
        <time>2022-12-12T15:31:02.843Z</time>
      </trkpt>
      <trkpt lat="48.1401" lon="-3.00949">
        <ele>110.050061</ele>
        <time>2022-12-12T15:31:05.829Z</time>
      </trkpt>
      <trkpt lat="48.14" lon="-3.00961">
        <ele>110.074503</ele>
        <time>2022-12-12T15:31:08.848Z</time>
      </trkpt>
      <trkpt lat="48.13989" lon="-3.00971">
        <ele>110.110761</ele>
        <time>2022-12-12T15:31:11.844Z</time>
      </trkpt>
      <trkpt lat="48.1398" lon="-3.0098">
        <ele>110.144148</ele>
        <time>2022-12-12T15:31:14.843Z</time>
      </trkpt>
      <trkpt lat="48.1397" lon="-3.00989">
        <ele>110.17762</ele>
        <time>2022-12-12T15:31:17.840Z</time>
      </trkpt>
      <trkpt lat="48.13959" lon="-3.00998">
        <ele>110.211939</ele>
        <time>2022-12-12T15:31:20.840Z</time>
      </trkpt>
      <trkpt lat="48.13948" lon="-3.01008">
        <ele>110.249292</ele>
        <time>2022-12-12T15:31:23.841Z</time>
      </trkpt>
      <trkpt lat="48.13938" lon="-3.01018">
        <ele>110.286202</ele>
        <time>2022-12-12T15:31:26.839Z</time>
      </trkpt>
      <trkpt lat="48.13927" lon="-3.01028">
        <ele>110.322028</ele>
        <time>2022-12-12T15:31:29.845Z</time>
      </trkpt>
      <trkpt lat="48.13919" lon="-3.01036">
        <ele>110.351792</ele>
        <time>2022-12-12T15:31:32.841Z</time>
      </trkpt>
      <trkpt lat="48.1391" lon="-3.01045">
        <ele>110.380913</ele>
        <time>2022-12-12T15:31:35.831Z</time>
      </trkpt>
      <trkpt lat="48.13901" lon="-3.01054">
        <ele>110.413306</ele>
        <time>2022-12-12T15:31:38.823Z</time>
      </trkpt>
      <trkpt lat="48.13891" lon="-3.01065">
        <ele>110.449557</ele>
        <time>2022-12-12T15:31:41.846Z</time>
      </trkpt>
      <trkpt lat="48.13881" lon="-3.01074">
        <ele>110.483641</ele>
        <time>2022-12-12T15:31:44.842Z</time>
      </trkpt>
      <trkpt lat="48.13871" lon="-3.01083">
        <ele>110.517067</ele>
        <time>2022-12-12T15:31:47.838Z</time>
      </trkpt>
      <trkpt lat="48.13862" lon="-3.0109">
        <ele>110.547346</ele>
        <time>2022-12-12T15:31:50.823Z</time>
      </trkpt>
      <trkpt lat="48.13853" lon="-3.01092">
        <ele>110.551893</ele>
        <time>2022-12-12T15:31:53.827Z</time>
      </trkpt>
      <trkpt lat="48.13842" lon="-3.01092">
        <ele>110.521999</ele>
        <time>2022-12-12T15:31:57.831Z</time>
      </trkpt>
      <trkpt lat="48.13831" lon="-3.01091">
        <ele>110.491768</ele>
        <time>2022-12-12T15:32:00.826Z</time>
      </trkpt>
      <trkpt lat="48.13821" lon="-3.01091">
        <ele>110.462448</ele>
        <time>2022-12-12T15:32:03.841Z</time>
      </trkpt>
      <trkpt lat="48.13811" lon="-3.0109">
        <ele>110.43324</ele>
        <time>2022-12-12T15:32:06.842Z</time>
      </trkpt>
      <trkpt lat="48.138" lon="-3.01087">
        <ele>110.403798</ele>
        <time>2022-12-12T15:32:09.832Z</time>
      </trkpt>
      <trkpt lat="48.13791" lon="-3.01084">
        <ele>110.376996</ele>
        <time>2022-12-12T15:32:12.816Z</time>
      </trkpt>
      <trkpt lat="48.13779" lon="-3.0108">
        <ele>110.34264</ele>
        <time>2022-12-12T15:32:16.821Z</time>
      </trkpt>
      <trkpt lat="48.13768" lon="-3.01076">
        <ele>110.310869</ele>
        <time>2022-12-12T15:32:19.821Z</time>
      </trkpt>
      <trkpt lat="48.13758" lon="-3.0107">
        <ele>110.278796</ele>
        <time>2022-12-12T15:32:22.844Z</time>
      </trkpt>
      <trkpt lat="48.13746" lon="-3.01065">
        <ele>110.245722</ele>
        <time>2022-12-12T15:32:25.844Z</time>
      </trkpt>
      <trkpt lat="48.13735" lon="-3.01057">
        <ele>110.211962</ele>
        <time>2022-12-12T15:32:28.845Z</time>
      </trkpt>
      <trkpt lat="48.13725" lon="-3.0105">
        <ele>110.179175</ele>
        <time>2022-12-12T15:32:31.844Z</time>
      </trkpt>
      <trkpt lat="48.13715" lon="-3.01044">
        <ele>110.148525</ele>
        <time>2022-12-12T15:32:34.842Z</time>
      </trkpt>
      <trkpt lat="48.13705" lon="-3.01036">
        <ele>110.117844</ele>
        <time>2022-12-12T15:32:37.845Z</time>
      </trkpt>
      <trkpt lat="48.13695" lon="-3.01028">
        <ele>110.084946</ele>
        <time>2022-12-12T15:32:40.845Z</time>
      </trkpt>
      <trkpt lat="48.13685" lon="-3.01017">
        <ele>110.059131</ele>
        <time>2022-12-12T15:32:43.830Z</time>
      </trkpt>
      <trkpt lat="48.13677" lon="-3.01007">
        <ele>110.087149</ele>
        <time>2022-12-12T15:32:46.844Z</time>
      </trkpt>
      <trkpt lat="48.13668" lon="-3.00997">
        <ele>110.113477</ele>
        <time>2022-12-12T15:32:49.825Z</time>
      </trkpt>
      <trkpt lat="48.1366" lon="-3.00985">
        <ele>110.141512</ele>
        <time>2022-12-12T15:32:52.830Z</time>
      </trkpt>
      <trkpt lat="48.13654" lon="-3.00972">
        <ele>110.1675</ele>
        <time>2022-12-12T15:32:55.847Z</time>
      </trkpt>
      <trkpt lat="48.13648" lon="-3.00957">
        <ele>110.196099</ele>
        <time>2022-12-12T15:32:58.841Z</time>
      </trkpt>
      <trkpt lat="48.13645" lon="-3.00942">
        <ele>110.222897</ele>
        <time>2022-12-12T15:33:01.827Z</time>
      </trkpt>
      <trkpt lat="48.13642" lon="-3.00923">
        <ele>110.254266</ele>
        <time>2022-12-12T15:33:04.839Z</time>
      </trkpt>
      <trkpt lat="48.1364" lon="-3.00906">
        <ele>110.28301</ele>
        <time>2022-12-12T15:33:07.840Z</time>
      </trkpt>
      <trkpt lat="48.1364" lon="-3.0089">
        <ele>110.309934</ele>
        <time>2022-12-12T15:33:10.835Z</time>
      </trkpt>
      <trkpt lat="48.13641" lon="-3.00876">
        <ele>110.332851</ele>
        <time>2022-12-12T15:33:13.824Z</time>
      </trkpt>
      <trkpt lat="48.13642" lon="-3.0086">
        <ele>110.358942</ele>
        <time>2022-12-12T15:33:16.844Z</time>
      </trkpt>
      <trkpt lat="48.13643" lon="-3.00844">
        <ele>110.386955</ele>
        <time>2022-12-12T15:33:19.847Z</time>
      </trkpt>
      <trkpt lat="48.13645" lon="-3.00829">
        <ele>110.411744</ele>
        <time>2022-12-12T15:33:22.846Z</time>
      </trkpt>
      <trkpt lat="48.13648" lon="-3.00812">
        <ele>110.440268</ele>
        <time>2022-12-12T15:33:25.843Z</time>
      </trkpt>
      <trkpt lat="48.1365" lon="-3.00797">
        <ele>110.465595</ele>
        <time>2022-12-12T15:33:28.844Z</time>
      </trkpt>
      <trkpt lat="48.13652" lon="-3.00781">
        <ele>110.492952</ele>
        <time>2022-12-12T15:33:31.822Z</time>
      </trkpt>
      <trkpt lat="48.13653" lon="-3.00763">
        <ele>110.650949</ele>
        <time>2022-12-12T15:33:34.838Z</time>
      </trkpt>
      <trkpt lat="48.13655" lon="-3.00744">
        <ele>110.856201</ele>
        <time>2022-12-12T15:33:37.844Z</time>
      </trkpt>
      <trkpt lat="48.13655" lon="-3.00726">
        <ele>111.064591</ele>
        <time>2022-12-12T15:33:40.822Z</time>
      </trkpt>
      <trkpt lat="48.13653" lon="-3.00709">
        <ele>111.254434</ele>
        <time>2022-12-12T15:33:43.845Z</time>
      </trkpt>
      <trkpt lat="48.13652" lon="-3.00689">
        <ele>111.469096</ele>
        <time>2022-12-12T15:33:46.839Z</time>
      </trkpt>
      <trkpt lat="48.13649" lon="-3.00671">
        <ele>111.673803</ele>
        <time>2022-12-12T15:33:49.845Z</time>
      </trkpt>
      <trkpt lat="48.13647" lon="-3.00655">
        <ele>111.85847</ele>
        <time>2022-12-12T15:33:52.844Z</time>
      </trkpt>
      <trkpt lat="48.13646" lon="-3.0064">
        <ele>112.026492</ele>
        <time>2022-12-12T15:33:55.846Z</time>
      </trkpt>
      <trkpt lat="48.13645" lon="-3.00624">
        <ele>112.197375</ele>
        <time>2022-12-12T15:33:58.844Z</time>
      </trkpt>
      <trkpt lat="48.13643" lon="-3.00607">
        <ele>112.393916</ele>
        <time>2022-12-12T15:34:01.844Z</time>
      </trkpt>
      <trkpt lat="48.1364" lon="-3.0059">
        <ele>112.590307</ele>
        <time>2022-12-12T15:34:04.844Z</time>
      </trkpt>
      <trkpt lat="48.13636" lon="-3.00572">
        <ele>112.801174</ele>
        <time>2022-12-12T15:34:07.847Z</time>
      </trkpt>
      <trkpt lat="48.13633" lon="-3.00554">
        <ele>113.002118</ele>
        <time>2022-12-12T15:34:10.827Z</time>
      </trkpt>
      <trkpt lat="48.13628" lon="-3.00536">
        <ele>113.2166</ele>
        <time>2022-12-12T15:34:13.845Z</time>
      </trkpt>
      <trkpt lat="48.13623" lon="-3.00518">
        <ele>113.438366</ele>
        <time>2022-12-12T15:34:16.848Z</time>
      </trkpt>
      <trkpt lat="48.13618" lon="-3.00503">
        <ele>113.463673</ele>
        <time>2022-12-12T15:34:19.825Z</time>
      </trkpt>
      <trkpt lat="48.13613" lon="-3.0049">
        <ele>113.434132</ele>
        <time>2022-12-12T15:34:22.830Z</time>
      </trkpt>
      <trkpt lat="48.13607" lon="-3.00475">
        <ele>113.40136</ele>
        <time>2022-12-12T15:34:25.826Z</time>
      </trkpt>
      <trkpt lat="48.13601" lon="-3.00462">
        <ele>113.370675</ele>
        <time>2022-12-12T15:34:28.844Z</time>
      </trkpt>
      <trkpt lat="48.13593" lon="-3.00449">
        <ele>113.3369</ele>
        <time>2022-12-12T15:34:31.847Z</time>
      </trkpt>
      <trkpt lat="48.13585" lon="-3.00435">
        <ele>113.30097</ele>
        <time>2022-12-12T15:34:34.820Z</time>
      </trkpt>
      <trkpt lat="48.13575" lon="-3.00422">
        <ele>113.262707</ele>
        <time>2022-12-12T15:34:37.840Z</time>
      </trkpt>
      <trkpt lat="48.13566" lon="-3.00411">
        <ele>113.228851</ele>
        <time>2022-12-12T15:34:40.846Z</time>
      </trkpt>
      <trkpt lat="48.13556" lon="-3.00399">
        <ele>113.192672</ele>
        <time>2022-12-12T15:34:43.840Z</time>
      </trkpt>
      <trkpt lat="48.13548" lon="-3.00388">
        <ele>113.159699</ele>
        <time>2022-12-12T15:34:46.844Z</time>
      </trkpt>
      <trkpt lat="48.1354" lon="-3.00378">
        <ele>113.130142</ele>
        <time>2022-12-12T15:34:49.848Z</time>
      </trkpt>
      <trkpt lat="48.13531" lon="-3.00365">
        <ele>113.094717</ele>
        <time>2022-12-12T15:34:53.843Z</time>
      </trkpt>
      <trkpt lat="48.13522" lon="-3.00353">
        <ele>113.059599</ele>
        <time>2022-12-12T15:34:56.840Z</time>
      </trkpt>
      <trkpt lat="48.13512" lon="-3.00341">
        <ele>113.022728</ele>
        <time>2022-12-12T15:34:59.844Z</time>
      </trkpt>
      <trkpt lat="48.13502" lon="-3.00329">
        <ele>112.98612</ele>
        <time>2022-12-12T15:35:02.844Z</time>
      </trkpt>
      <trkpt lat="48.13493" lon="-3.00317">
        <ele>112.935923</ele>
        <time>2022-12-12T15:35:05.841Z</time>
      </trkpt>
      <trkpt lat="48.13484" lon="-3.00306">
        <ele>112.872342</ele>
        <time>2022-12-12T15:35:08.830Z</time>
      </trkpt>
      <trkpt lat="48.13475" lon="-3.00296">
        <ele>112.808362</ele>
        <time>2022-12-12T15:35:11.837Z</time>
      </trkpt>
      <trkpt lat="48.13465" lon="-3.00284">
        <ele>112.740444</ele>
        <time>2022-12-12T15:35:14.841Z</time>
      </trkpt>
      <trkpt lat="48.13455" lon="-3.00272">
        <ele>112.673967</ele>
        <time>2022-12-12T15:35:17.821Z</time>
      </trkpt>
      <trkpt lat="48.13446" lon="-3.0026">
        <ele>112.607605</ele>
        <time>2022-12-12T15:35:20.837Z</time>
      </trkpt>
      <trkpt lat="48.13437" lon="-3.0025">
        <ele>112.544055</ele>
        <time>2022-12-12T15:35:23.843Z</time>
      </trkpt>
      <trkpt lat="48.1343" lon="-3.0024">
        <ele>112.488033</ele>
        <time>2022-12-12T15:35:26.842Z</time>
      </trkpt>
      <trkpt lat="48.13421" lon="-3.0023">
        <ele>112.427342</ele>
        <time>2022-12-12T15:35:29.838Z</time>
      </trkpt>
      <trkpt lat="48.13412" lon="-3.0022">
        <ele>112.369729</ele>
        <time>2022-12-12T15:35:32.846Z</time>
      </trkpt>
      <trkpt lat="48.13403" lon="-3.00212">
        <ele>112.309903</ele>
        <time>2022-12-12T15:35:35.842Z</time>
      </trkpt>
      <trkpt lat="48.13394" lon="-3.00206">
        <ele>112.258351</ele>
        <time>2022-12-12T15:35:38.826Z</time>
      </trkpt>
      <trkpt lat="48.13382" lon="-3.00204">
        <ele>112.189808</ele>
        <time>2022-12-12T15:35:41.827Z</time>
      </trkpt>
      <trkpt lat="48.1337" lon="-3.00205">
        <ele>112.125144</ele>
        <time>2022-12-12T15:35:44.830Z</time>
      </trkpt>
      <trkpt lat="48.13358" lon="-3.00207">
        <ele>112.060935</ele>
        <time>2022-12-12T15:35:47.824Z</time>
      </trkpt>
      <trkpt lat="48.13346" lon="-3.0021">
        <ele>111.993194</ele>
        <time>2022-12-12T15:35:50.838Z</time>
      </trkpt>
      <trkpt lat="48.13335" lon="-3.00213">
        <ele>111.860105</ele>
        <time>2022-12-12T15:35:53.847Z</time>
      </trkpt>
      <trkpt lat="48.1332" lon="-3.0022">
        <ele>111.648157</ele>
        <time>2022-12-12T15:35:56.825Z</time>
      </trkpt>
      <trkpt lat="48.1331" lon="-3.00222">
        <ele>111.521176</ele>
        <time>2022-12-12T15:35:59.836Z</time>
      </trkpt>
      <trkpt lat="48.133" lon="-3.00227">
        <ele>111.381317</ele>
        <time>2022-12-12T15:36:02.831Z</time>
      </trkpt>
      <trkpt lat="48.13289" lon="-3.00231">
        <ele>111.22171</ele>
        <time>2022-12-12T15:36:05.836Z</time>
      </trkpt>
      <trkpt lat="48.13278" lon="-3.00238">
        <ele>111.069628</ele>
        <time>2022-12-12T15:36:08.832Z</time>
      </trkpt>
      <trkpt lat="48.13269" lon="-3.00244">
        <ele>110.934103</ele>
        <time>2022-12-12T15:36:11.834Z</time>
      </trkpt>
      <trkpt lat="48.13259" lon="-3.0025">
        <ele>110.80008</ele>
        <time>2022-12-12T15:36:14.843Z</time>
      </trkpt>
      <trkpt lat="48.1325" lon="-3.00256">
        <ele>110.665219</ele>
        <time>2022-12-12T15:36:17.843Z</time>
      </trkpt>
      <trkpt lat="48.1324" lon="-3.00263">
        <ele>110.516595</ele>
        <time>2022-12-12T15:36:20.837Z</time>
      </trkpt>
      <trkpt lat="48.13231" lon="-3.0027">
        <ele>110.380153</ele>
        <time>2022-12-12T15:36:23.843Z</time>
      </trkpt>
      <trkpt lat="48.13221" lon="-3.00276">
        <ele>110.238516</ele>
        <time>2022-12-12T15:36:26.844Z</time>
      </trkpt>
      <trkpt lat="48.13211" lon="-3.00285">
        <ele>110.094406</ele>
        <time>2022-12-12T15:36:29.832Z</time>
      </trkpt>
      <trkpt lat="48.13203" lon="-3.00292">
        <ele>109.960708</ele>
        <time>2022-12-12T15:36:32.840Z</time>
      </trkpt>
      <trkpt lat="48.13193" lon="-3.00302">
        <ele>109.802616</ele>
        <time>2022-12-12T15:36:35.835Z</time>
      </trkpt>
      <trkpt lat="48.13184" lon="-3.00311">
        <ele>109.659257</ele>
        <time>2022-12-12T15:36:38.843Z</time>
      </trkpt>
      <trkpt lat="48.13177" lon="-3.00322">
        <ele>109.648564</ele>
        <time>2022-12-12T15:36:42.821Z</time>
      </trkpt>
      <trkpt lat="48.13169" lon="-3.0033">
        <ele>109.730161</ele>
        <time>2022-12-12T15:36:45.843Z</time>
      </trkpt>
      <trkpt lat="48.13162" lon="-3.0034">
        <ele>109.818112</ele>
        <time>2022-12-12T15:36:48.846Z</time>
      </trkpt>
      <trkpt lat="48.13155" lon="-3.00349">
        <ele>109.902264</ele>
        <time>2022-12-12T15:36:51.839Z</time>
      </trkpt>
      <trkpt lat="48.13147" lon="-3.00361">
        <ele>109.995325</ele>
        <time>2022-12-12T15:36:54.846Z</time>
      </trkpt>
      <trkpt lat="48.13139" lon="-3.00373">
        <ele>110.101484</ele>
        <time>2022-12-12T15:36:57.842Z</time>
      </trkpt>
      <trkpt lat="48.13132" lon="-3.00386">
        <ele>110.198962</ele>
        <time>2022-12-12T15:37:00.839Z</time>
      </trkpt>
      <trkpt lat="48.13124" lon="-3.00396">
        <ele>110.288803</ele>
        <time>2022-12-12T15:37:03.825Z</time>
      </trkpt>
      <trkpt lat="48.13116" lon="-3.00408">
        <ele>110.391836</ele>
        <time>2022-12-12T15:37:06.841Z</time>
      </trkpt>
      <trkpt lat="48.13108" lon="-3.0042">
        <ele>110.489684</ele>
        <time>2022-12-12T15:37:09.847Z</time>
      </trkpt>
      <trkpt lat="48.13102" lon="-3.00431">
        <ele>110.573823</ele>
        <time>2022-12-12T15:37:12.843Z</time>
      </trkpt>
      <trkpt lat="48.13096" lon="-3.00442">
        <ele>110.653919</ele>
        <time>2022-12-12T15:37:15.848Z</time>
      </trkpt>
      <trkpt lat="48.13093" lon="-3.00456">
        <ele>110.74138</ele>
        <time>2022-12-12T15:37:18.828Z</time>
      </trkpt>
      <trkpt lat="48.1309" lon="-3.00471">
        <ele>110.835742</ele>
        <time>2022-12-12T15:37:21.824Z</time>
      </trkpt>
      <trkpt lat="48.13089" lon="-3.00488">
        <ele>110.937922</ele>
        <time>2022-12-12T15:37:24.820Z</time>
      </trkpt>
      <trkpt lat="48.13085" lon="-3.00507">
        <ele>111.05028</ele>
        <time>2022-12-12T15:37:27.840Z</time>
      </trkpt>
      <trkpt lat="48.13083" lon="-3.00523">
        <ele>111.147326</ele>
        <time>2022-12-12T15:37:30.842Z</time>
      </trkpt>
      <trkpt lat="48.13082" lon="-3.00539">
        <ele>111.158354</ele>
        <time>2022-12-12T15:37:33.847Z</time>
      </trkpt>
      <trkpt lat="48.13079" lon="-3.00556">
        <ele>111.104741</ele>
        <time>2022-12-12T15:37:36.842Z</time>
      </trkpt>
      <trkpt lat="48.13076" lon="-3.00573">
        <ele>111.049813</ele>
        <time>2022-12-12T15:37:39.849Z</time>
      </trkpt>
      <trkpt lat="48.13075" lon="-3.00588">
        <ele>111.000961</ele>
        <time>2022-12-12T15:37:42.840Z</time>
      </trkpt>
      <trkpt lat="48.13073" lon="-3.00605">
        <ele>110.949458</ele>
        <time>2022-12-12T15:37:45.840Z</time>
      </trkpt>
      <trkpt lat="48.13071" lon="-3.0062">
        <ele>110.900007</ele>
        <time>2022-12-12T15:37:48.846Z</time>
      </trkpt>
      <trkpt lat="48.1307" lon="-3.00635">
        <ele>110.852828</ele>
        <time>2022-12-12T15:37:51.840Z</time>
      </trkpt>
      <trkpt lat="48.13069" lon="-3.00651">
        <ele>110.803279</ele>
        <time>2022-12-12T15:37:54.839Z</time>
      </trkpt>
      <trkpt lat="48.13068" lon="-3.00669">
        <ele>110.747155</ele>
        <time>2022-12-12T15:37:57.844Z</time>
      </trkpt>
      <trkpt lat="48.13067" lon="-3.00685">
        <ele>110.697868</ele>
        <time>2022-12-12T15:38:00.843Z</time>
      </trkpt>
      <trkpt lat="48.13067" lon="-3.00699">
        <ele>110.655361</ele>
        <time>2022-12-12T15:38:03.833Z</time>
      </trkpt>
      <trkpt lat="48.13064" lon="-3.00717">
        <ele>110.598514</ele>
        <time>2022-12-12T15:38:06.845Z</time>
      </trkpt>
      <trkpt lat="48.13061" lon="-3.00736">
        <ele>110.538035</ele>
        <time>2022-12-12T15:38:09.825Z</time>
      </trkpt>
      <trkpt lat="48.13061" lon="-3.00755">
        <ele>110.478091</ele>
        <time>2022-12-12T15:38:12.828Z</time>
      </trkpt>
      <trkpt lat="48.13059" lon="-3.00772">
        <ele>110.423769</ele>
        <time>2022-12-12T15:38:15.841Z</time>
      </trkpt>
      <trkpt lat="48.13056" lon="-3.00789">
        <ele>110.37165</ele>
        <time>2022-12-12T15:38:18.844Z</time>
      </trkpt>
      <trkpt lat="48.13056" lon="-3.00806">
        <ele>110.409941</ele>
        <time>2022-12-12T15:38:21.825Z</time>
      </trkpt>
      <trkpt lat="48.13054" lon="-3.00821">
        <ele>110.500064</ele>
        <time>2022-12-12T15:38:24.843Z</time>
      </trkpt>
      <trkpt lat="48.13053" lon="-3.00838">
        <ele>110.597119</ele>
        <time>2022-12-12T15:38:27.846Z</time>
      </trkpt>
      <trkpt lat="48.13051" lon="-3.00857">
        <ele>110.706688</ele>
        <time>2022-12-12T15:38:30.848Z</time>
      </trkpt>
      <trkpt lat="48.13049" lon="-3.00875">
        <ele>110.810958</ele>
        <time>2022-12-12T15:38:33.844Z</time>
      </trkpt>
      <trkpt lat="48.13048" lon="-3.00891">
        <ele>110.904685</ele>
        <time>2022-12-12T15:38:36.849Z</time>
      </trkpt>
      <trkpt lat="48.13045" lon="-3.00909">
        <ele>111.008209</ele>
        <time>2022-12-12T15:38:39.845Z</time>
      </trkpt>
      <trkpt lat="48.1304" lon="-3.00926">
        <ele>111.117561</ele>
        <time>2022-12-12T15:38:42.833Z</time>
      </trkpt>
      <trkpt lat="48.13036" lon="-3.00946">
        <ele>111.232577</ele>
        <time>2022-12-12T15:38:45.842Z</time>
      </trkpt>
      <trkpt lat="48.13031" lon="-3.00958">
        <ele>111.316043</ele>
        <time>2022-12-12T15:38:47.834Z</time>
      </trkpt>
      <trkpt lat="48.13027" lon="-3.00974">
        <ele>111.415986</ele>
        <time>2022-12-12T15:38:50.827Z</time>
      </trkpt>
      <trkpt lat="48.13021" lon="-3.0099">
        <ele>111.518442</ele>
        <time>2022-12-12T15:38:53.823Z</time>
      </trkpt>
      <trkpt lat="48.13014" lon="-3.01006">
        <ele>111.628149</ele>
        <time>2022-12-12T15:38:56.835Z</time>
      </trkpt>
      <trkpt lat="48.13009" lon="-3.01021">
        <ele>111.727177</ele>
        <time>2022-12-12T15:38:59.825Z</time>
      </trkpt>
      <trkpt lat="48.13002" lon="-3.01034">
        <ele>111.820514</ele>
        <time>2022-12-12T15:39:02.821Z</time>
      </trkpt>
      <trkpt lat="48.12996" lon="-3.01048">
        <ele>111.908643</ele>
        <time>2022-12-12T15:39:05.844Z</time>
      </trkpt>
      <trkpt lat="48.1299" lon="-3.01064">
        <ele>111.978422</ele>
        <time>2022-12-12T15:39:08.843Z</time>
      </trkpt>
      <trkpt lat="48.12986" lon="-3.01078">
        <ele>112.03596</ele>
        <time>2022-12-12T15:39:11.844Z</time>
      </trkpt>
      <trkpt lat="48.12979" lon="-3.01091">
        <ele>112.097941</ele>
        <time>2022-12-12T15:39:15.828Z</time>
      </trkpt>
      <trkpt lat="48.12973" lon="-3.01102">
        <ele>112.152612</ele>
        <time>2022-12-12T15:39:18.838Z</time>
      </trkpt>
      <trkpt lat="48.12966" lon="-3.01115">
        <ele>112.215002</ele>
        <time>2022-12-12T15:39:21.847Z</time>
      </trkpt>
      <trkpt lat="48.12958" lon="-3.01127">
        <ele>112.275971</ele>
        <time>2022-12-12T15:39:24.838Z</time>
      </trkpt>
      <trkpt lat="48.12951" lon="-3.01138">
        <ele>112.335078</ele>
        <time>2022-12-12T15:39:27.843Z</time>
      </trkpt>
      <trkpt lat="48.12943" lon="-3.0115">
        <ele>112.397869</ele>
        <time>2022-12-12T15:39:30.842Z</time>
      </trkpt>
      <trkpt lat="48.12935" lon="-3.01164">
        <ele>112.468607</ele>
        <time>2022-12-12T15:39:33.845Z</time>
      </trkpt>
      <trkpt lat="48.12926" lon="-3.01176">
        <ele>112.534837</ele>
        <time>2022-12-12T15:39:36.848Z</time>
      </trkpt>
      <trkpt lat="48.12919" lon="-3.01189">
        <ele>112.598405</ele>
        <time>2022-12-12T15:39:39.847Z</time>
      </trkpt>
      <trkpt lat="48.1291" lon="-3.01202">
        <ele>112.66677</ele>
        <time>2022-12-12T15:39:42.838Z</time>
      </trkpt>
      <trkpt lat="48.12902" lon="-3.01212">
        <ele>112.724076</ele>
        <time>2022-12-12T15:39:46.164Z</time>
      </trkpt>
      <trkpt lat="48.12895" lon="-3.01224">
        <ele>112.784883</ele>
        <time>2022-12-12T15:39:48.833Z</time>
      </trkpt>
      <trkpt lat="48.1289" lon="-3.01239">
        <ele>112.847359</ele>
        <time>2022-12-12T15:39:51.830Z</time>
      </trkpt>
      <trkpt lat="48.12884" lon="-3.01255">
        <ele>112.89969</ele>
        <time>2022-12-12T15:39:54.842Z</time>
      </trkpt>
      <trkpt lat="48.1288" lon="-3.01272">
        <ele>112.857191</ele>
        <time>2022-12-12T15:39:57.821Z</time>
      </trkpt>
      <trkpt lat="48.12873" lon="-3.0129">
        <ele>112.812711</ele>
        <time>2022-12-12T15:40:00.826Z</time>
      </trkpt>
      <trkpt lat="48.12868" lon="-3.01307">
        <ele>112.76895</ele>
        <time>2022-12-12T15:40:03.845Z</time>
      </trkpt>
      <trkpt lat="48.12863" lon="-3.01323">
        <ele>112.729445</ele>
        <time>2022-12-12T15:40:06.846Z</time>
      </trkpt>
      <trkpt lat="48.12859" lon="-3.01338">
        <ele>112.691794</ele>
        <time>2022-12-12T15:40:09.824Z</time>
      </trkpt>
      <trkpt lat="48.12855" lon="-3.01351">
        <ele>112.658465</ele>
        <time>2022-12-12T15:40:12.834Z</time>
      </trkpt>
      <trkpt lat="48.12851" lon="-3.01366">
        <ele>112.621552</ele>
        <time>2022-12-12T15:40:15.845Z</time>
      </trkpt>
      <trkpt lat="48.12846" lon="-3.01379">
        <ele>112.588716</ele>
        <time>2022-12-12T15:40:18.824Z</time>
      </trkpt>
      <trkpt lat="48.12838" lon="-3.01391">
        <ele>112.548268</ele>
        <time>2022-12-12T15:40:21.824Z</time>
      </trkpt>
      <trkpt lat="48.12829" lon="-3.01401">
        <ele>112.509234</ele>
        <time>2022-12-12T15:40:24.828Z</time>
      </trkpt>
      <trkpt lat="48.12821" lon="-3.01409">
        <ele>112.477934</ele>
        <time>2022-12-12T15:40:27.843Z</time>
      </trkpt>
      <trkpt lat="48.12811" lon="-3.01418">
        <ele>112.437831</ele>
        <time>2022-12-12T15:40:31.854Z</time>
      </trkpt>
      <trkpt lat="48.12802" lon="-3.01424">
        <ele>112.404532</ele>
        <time>2022-12-12T15:40:34.844Z</time>
      </trkpt>
      <trkpt lat="48.12792" lon="-3.01431">
        <ele>112.366778</ele>
        <time>2022-12-12T15:40:37.845Z</time>
      </trkpt>
      <trkpt lat="48.12781" lon="-3.01439">
        <ele>112.326145</ele>
        <time>2022-12-12T15:40:40.840Z</time>
      </trkpt>
      <trkpt lat="48.12771" lon="-3.01446">
        <ele>112.284286</ele>
        <time>2022-12-12T15:40:43.830Z</time>
      </trkpt>
      <trkpt lat="48.1276" lon="-3.01452">
        <ele>112.227064</ele>
        <time>2022-12-12T15:40:46.840Z</time>
      </trkpt>
      <trkpt lat="48.12749" lon="-3.01459">
        <ele>112.167505</ele>
        <time>2022-12-12T15:40:49.845Z</time>
      </trkpt>
      <trkpt lat="48.12737" lon="-3.01465">
        <ele>112.104809</ele>
        <time>2022-12-12T15:40:52.823Z</time>
      </trkpt>
      <trkpt lat="48.12725" lon="-3.01471">
        <ele>112.042519</ele>
        <time>2022-12-12T15:40:55.845Z</time>
      </trkpt>
      <trkpt lat="48.12712" lon="-3.01476">
        <ele>111.977093</ele>
        <time>2022-12-12T15:40:58.845Z</time>
      </trkpt>
      <trkpt lat="48.12704" lon="-3.01479">
        <ele>111.932696</ele>
        <time>2022-12-12T15:41:00.846Z</time>
      </trkpt>
      <trkpt lat="48.12695" lon="-3.01483">
        <ele>111.887215</ele>
        <time>2022-12-12T15:41:02.845Z</time>
      </trkpt>
      <trkpt lat="48.12683" lon="-3.0149">
        <ele>111.82373</ele>
        <time>2022-12-12T15:41:05.847Z</time>
      </trkpt>
      <trkpt lat="48.12674" lon="-3.01493">
        <ele>111.777955</ele>
        <time>2022-12-12T15:41:07.842Z</time>
      </trkpt>
      <trkpt lat="48.12662" lon="-3.01498">
        <ele>111.718401</ele>
        <time>2022-12-12T15:41:10.827Z</time>
      </trkpt>
      <trkpt lat="48.12651" lon="-3.01503">
        <ele>111.66228</ele>
        <time>2022-12-12T15:41:13.840Z</time>
      </trkpt>
      <trkpt lat="48.12642" lon="-3.01507">
        <ele>111.614896</ele>
        <time>2022-12-12T15:41:16.847Z</time>
      </trkpt>
      <trkpt lat="48.12632" lon="-3.01511">
        <ele>111.562767</ele>
        <time>2022-12-12T15:41:19.843Z</time>
      </trkpt>
      <trkpt lat="48.12621" lon="-3.01516">
        <ele>111.506078</ele>
        <time>2022-12-12T15:41:22.845Z</time>
      </trkpt>
      <trkpt lat="48.12609" lon="-3.0152">
        <ele>111.44723</ele>
        <time>2022-12-12T15:41:25.839Z</time>
      </trkpt>
      <trkpt lat="48.12597" lon="-3.01523">
        <ele>111.327875</ele>
        <time>2022-12-12T15:41:28.847Z</time>
      </trkpt>
      <trkpt lat="48.12588" lon="-3.01526">
        <ele>111.083442</ele>
        <time>2022-12-12T15:41:30.840Z</time>
      </trkpt>
      <trkpt lat="48.12576" lon="-3.01526">
        <ele>110.784643</ele>
        <time>2022-12-12T15:41:33.833Z</time>
      </trkpt>
      <trkpt lat="48.12563" lon="-3.01526">
        <ele>110.45518</ele>
        <time>2022-12-12T15:41:36.841Z</time>
      </trkpt>
      <trkpt lat="48.12553" lon="-3.01526">
        <ele>110.207405</ele>
        <time>2022-12-12T15:41:38.841Z</time>
      </trkpt>
      <trkpt lat="48.12543" lon="-3.01525">
        <ele>109.94126</ele>
        <time>2022-12-12T15:41:40.831Z</time>
      </trkpt>
      <trkpt lat="48.12533" lon="-3.01525">
        <ele>109.693532</ele>
        <time>2022-12-12T15:41:42.831Z</time>
      </trkpt>
      <trkpt lat="48.12524" lon="-3.01524">
        <ele>109.45553</ele>
        <time>2022-12-12T15:41:44.845Z</time>
      </trkpt>
      <trkpt lat="48.12511" lon="-3.01522">
        <ele>109.130047</ele>
        <time>2022-12-12T15:41:47.824Z</time>
      </trkpt>
      <trkpt lat="48.125" lon="-3.01522">
        <ele>108.828695</ele>
        <time>2022-12-12T15:41:50.828Z</time>
      </trkpt>
      <trkpt lat="48.1249" lon="-3.01521">
        <ele>108.577717</ele>
        <time>2022-12-12T15:41:53.846Z</time>
      </trkpt>
      <trkpt lat="48.12478" lon="-3.01518">
        <ele>108.280182</ele>
        <time>2022-12-12T15:41:56.823Z</time>
      </trkpt>
      <trkpt lat="48.12467" lon="-3.01514">
        <ele>107.988672</ele>
        <time>2022-12-12T15:41:59.841Z</time>
      </trkpt>
      <trkpt lat="48.12455" lon="-3.01511">
        <ele>107.677974</ele>
        <time>2022-12-12T15:42:02.844Z</time>
      </trkpt>
      <trkpt lat="48.12444" lon="-3.01508">
        <ele>107.380786</ele>
        <time>2022-12-12T15:42:05.836Z</time>
      </trkpt>
      <trkpt lat="48.12433" lon="-3.01504">
        <ele>107.091099</ele>
        <time>2022-12-12T15:42:08.844Z</time>
      </trkpt>
      <trkpt lat="48.12423" lon="-3.015">
        <ele>106.826768</ele>
        <time>2022-12-12T15:42:11.843Z</time>
      </trkpt>
      <trkpt lat="48.12411" lon="-3.01496">
        <ele>106.936495</ele>
        <time>2022-12-12T15:42:14.837Z</time>
      </trkpt>
      <trkpt lat="48.124" lon="-3.01489">
        <ele>107.081091</ele>
        <time>2022-12-12T15:42:17.844Z</time>
      </trkpt>
      <trkpt lat="48.12388" lon="-3.01483">
        <ele>107.229016</ele>
        <time>2022-12-12T15:42:20.838Z</time>
      </trkpt>
      <trkpt lat="48.12377" lon="-3.01476">
        <ele>107.370007</ele>
        <time>2022-12-12T15:42:23.843Z</time>
      </trkpt>
      <trkpt lat="48.12366" lon="-3.0147">
        <ele>107.512468</ele>
        <time>2022-12-12T15:42:26.840Z</time>
      </trkpt>
      <trkpt lat="48.12355" lon="-3.01464">
        <ele>107.644296</ele>
        <time>2022-12-12T15:42:29.844Z</time>
      </trkpt>
      <trkpt lat="48.12345" lon="-3.01456">
        <ele>107.784</ele>
        <time>2022-12-12T15:42:32.844Z</time>
      </trkpt>
      <trkpt lat="48.12334" lon="-3.01448">
        <ele>107.922933</ele>
        <time>2022-12-12T15:42:35.841Z</time>
      </trkpt>
      <trkpt lat="48.12324" lon="-3.01443">
        <ele>108.052557</ele>
        <time>2022-12-12T15:42:38.844Z</time>
      </trkpt>
      <trkpt lat="48.12314" lon="-3.01436">
        <ele>108.183739</ele>
        <time>2022-12-12T15:42:41.822Z</time>
      </trkpt>
      <trkpt lat="48.12305" lon="-3.01429">
        <ele>108.302875</ele>
        <time>2022-12-12T15:42:44.836Z</time>
      </trkpt>
      <trkpt lat="48.12295" lon="-3.0142">
        <ele>108.442589</ele>
        <time>2022-12-12T15:42:47.823Z</time>
      </trkpt>
      <trkpt lat="48.12284" lon="-3.01409">
        <ele>108.596355</ele>
        <time>2022-12-12T15:42:50.841Z</time>
      </trkpt>
      <trkpt lat="48.12275" lon="-3.01397">
        <ele>108.735682</ele>
        <time>2022-12-12T15:42:53.826Z</time>
      </trkpt>
      <trkpt lat="48.12265" lon="-3.01384">
        <ele>108.891223</ele>
        <time>2022-12-12T15:42:56.843Z</time>
      </trkpt>
      <trkpt lat="48.12255" lon="-3.01373">
        <ele>109.12233</ele>
        <time>2022-12-12T15:42:59.836Z</time>
      </trkpt>
      <trkpt lat="48.12246" lon="-3.0136">
        <ele>109.381314</ele>
        <time>2022-12-12T15:43:02.844Z</time>
      </trkpt>
      <trkpt lat="48.12237" lon="-3.01347">
        <ele>109.644253</ele>
        <time>2022-12-12T15:43:05.851Z</time>
      </trkpt>
      <trkpt lat="48.12229" lon="-3.01334">
        <ele>109.89027</ele>
        <time>2022-12-12T15:43:08.838Z</time>
      </trkpt>
      <trkpt lat="48.1222" lon="-3.01322">
        <ele>110.148959</ele>
        <time>2022-12-12T15:43:11.843Z</time>
      </trkpt>
      <trkpt lat="48.12213" lon="-3.01309">
        <ele>110.377276</ele>
        <time>2022-12-12T15:43:14.844Z</time>
      </trkpt>
      <trkpt lat="48.12206" lon="-3.01297">
        <ele>110.594801</ele>
        <time>2022-12-12T15:43:17.844Z</time>
      </trkpt>
      <trkpt lat="48.12201" lon="-3.01286">
        <ele>110.785375</ele>
        <time>2022-12-12T15:43:19.856Z</time>
      </trkpt>
      <trkpt lat="48.12194" lon="-3.0127">
        <ele>111.054299</ele>
        <time>2022-12-12T15:43:22.843Z</time>
      </trkpt>
      <trkpt lat="48.12188" lon="-3.01254">
        <ele>111.30659</ele>
        <time>2022-12-12T15:43:25.838Z</time>
      </trkpt>
      <trkpt lat="48.12182" lon="-3.0124">
        <ele>111.542643</ele>
        <time>2022-12-12T15:43:28.849Z</time>
      </trkpt>
      <trkpt lat="48.12176" lon="-3.01224">
        <ele>111.791483</ele>
        <time>2022-12-12T15:43:31.844Z</time>
      </trkpt>
      <trkpt lat="48.12171" lon="-3.01208">
        <ele>112.051104</ele>
        <time>2022-12-12T15:43:34.845Z</time>
      </trkpt>
      <trkpt lat="48.12166" lon="-3.0119">
        <ele>112.312539</ele>
        <time>2022-12-12T15:43:37.840Z</time>
      </trkpt>
      <trkpt lat="48.12162" lon="-3.01171">
        <ele>112.591502</ele>
        <time>2022-12-12T15:43:40.822Z</time>
      </trkpt>
      <trkpt lat="48.12159" lon="-3.01155">
        <ele>112.715374</ele>
        <time>2022-12-12T15:43:43.824Z</time>
      </trkpt>
      <trkpt lat="48.12156" lon="-3.01141">
        <ele>112.751713</ele>
        <time>2022-12-12T15:43:46.833Z</time>
      </trkpt>
      <trkpt lat="48.12155" lon="-3.01123">
        <ele>112.794912</ele>
        <time>2022-12-12T15:43:50.826Z</time>
      </trkpt>
      <trkpt lat="48.12156" lon="-3.01105">
        <ele>112.839427</ele>
        <time>2022-12-12T15:43:54.847Z</time>
      </trkpt>
      <trkpt lat="48.12157" lon="-3.01091">
        <ele>112.873085</ele>
        <time>2022-12-12T15:43:57.841Z</time>
      </trkpt>
      <trkpt lat="48.12157" lon="-3.01075">
        <ele>112.914066</ele>
        <time>2022-12-12T15:44:00.842Z</time>
      </trkpt>
      <trkpt lat="48.12161" lon="-3.01058">
        <ele>112.956347</ele>
        <time>2022-12-12T15:44:03.822Z</time>
      </trkpt>
      <trkpt lat="48.12164" lon="-3.0104">
        <ele>113.002585</ele>
        <time>2022-12-12T15:44:06.842Z</time>
      </trkpt>
      <trkpt lat="48.12166" lon="-3.01022">
        <ele>113.046257</ele>
        <time>2022-12-12T15:44:09.823Z</time>
      </trkpt>
      <trkpt lat="48.12167" lon="-3.01008">
        <ele>113.080358</ele>
        <time>2022-12-12T15:44:11.829Z</time>
      </trkpt>
      <trkpt lat="48.12168" lon="-3.0099">
        <ele>113.124691</ele>
        <time>2022-12-12T15:44:14.842Z</time>
      </trkpt>
      <trkpt lat="48.12169" lon="-3.00973">
        <ele>113.166429</ele>
        <time>2022-12-12T15:44:17.840Z</time>
      </trkpt>
      <trkpt lat="48.12168" lon="-3.00955">
        <ele>113.211319</ele>
        <time>2022-12-12T15:44:20.839Z</time>
      </trkpt>
      <trkpt lat="48.12168" lon="-3.00941">
        <ele>113.245719</ele>
        <time>2022-12-12T15:44:22.843Z</time>
      </trkpt>
      <trkpt lat="48.12169" lon="-3.00926">
        <ele>113.281406</ele>
        <time>2022-12-12T15:44:24.845Z</time>
      </trkpt>
      <trkpt lat="48.1217" lon="-3.00912">
        <ele>113.316073</ele>
        <time>2022-12-12T15:44:26.844Z</time>
      </trkpt>
      <trkpt lat="48.12171" lon="-3.00895">
        <ele>113.28324</ele>
        <time>2022-12-12T15:44:28.845Z</time>
      </trkpt>
      <trkpt lat="48.12172" lon="-3.0088">
        <ele>112.990015</ele>
        <time>2022-12-12T15:44:30.836Z</time>
      </trkpt>
      <trkpt lat="48.12173" lon="-3.00859">
        <ele>112.581266</ele>
        <time>2022-12-12T15:44:33.842Z</time>
      </trkpt>
      <trkpt lat="48.12174" lon="-3.00843">
        <ele>112.258541</ele>
        <time>2022-12-12T15:44:36.844Z</time>
      </trkpt>
      <trkpt lat="48.12173" lon="-3.00827">
        <ele>111.933144</ele>
        <time>2022-12-12T15:44:39.846Z</time>
      </trkpt>
      <trkpt lat="48.12171" lon="-3.00811">
        <ele>111.606937</ele>
        <time>2022-12-12T15:44:42.844Z</time>
      </trkpt>
      <trkpt lat="48.12168" lon="-3.00793">
        <ele>111.243327</ele>
        <time>2022-12-12T15:44:45.826Z</time>
      </trkpt>
      <trkpt lat="48.12165" lon="-3.00774">
        <ele>110.852889</ele>
        <time>2022-12-12T15:44:48.844Z</time>
      </trkpt>
      <trkpt lat="48.12163" lon="-3.00758">
        <ele>110.537844</ele>
        <time>2022-12-12T15:44:51.841Z</time>
      </trkpt>
      <trkpt lat="48.1216" lon="-3.00743">
        <ele>110.219486</ele>
        <time>2022-12-12T15:44:54.843Z</time>
      </trkpt>
      <trkpt lat="48.12157" lon="-3.00726">
        <ele>109.888151</ele>
        <time>2022-12-12T15:44:57.844Z</time>
      </trkpt>
      <trkpt lat="48.12154" lon="-3.0071">
        <ele>109.548405</ele>
        <time>2022-12-12T15:45:00.825Z</time>
      </trkpt>
      <trkpt lat="48.12149" lon="-3.00693">
        <ele>109.181771</ele>
        <time>2022-12-12T15:45:03.844Z</time>
      </trkpt>
      <trkpt lat="48.12143" lon="-3.00676">
        <ele>108.806264</ele>
        <time>2022-12-12T15:45:06.843Z</time>
      </trkpt>
      <trkpt lat="48.12138" lon="-3.00659">
        <ele>108.437811</ele>
        <time>2022-12-12T15:45:09.853Z</time>
      </trkpt>
      <trkpt lat="48.12132" lon="-3.00642">
        <ele>108.048427</ele>
        <time>2022-12-12T15:45:12.826Z</time>
      </trkpt>
      <trkpt lat="48.12127" lon="-3.00624">
        <ele>107.978831</ele>
        <time>2022-12-12T15:45:15.842Z</time>
      </trkpt>
      <trkpt lat="48.12124" lon="-3.00605">
        <ele>107.937256</ele>
        <time>2022-12-12T15:45:18.841Z</time>
      </trkpt>
      <trkpt lat="48.12123" lon="-3.00591">
        <ele>107.908687</ele>
        <time>2022-12-12T15:45:20.825Z</time>
      </trkpt>
      <trkpt lat="48.12125" lon="-3.00574">
        <ele>107.872234</ele>
        <time>2022-12-12T15:45:23.826Z</time>
      </trkpt>
      <trkpt lat="48.12127" lon="-3.00555">
        <ele>107.833066</ele>
        <time>2022-12-12T15:45:26.843Z</time>
      </trkpt>
      <trkpt lat="48.12129" lon="-3.00537">
        <ele>107.796176</ele>
        <time>2022-12-12T15:45:29.831Z</time>
      </trkpt>
      <trkpt lat="48.12131" lon="-3.0052">
        <ele>107.759671</ele>
        <time>2022-12-12T15:45:32.840Z</time>
      </trkpt>
      <trkpt lat="48.12132" lon="-3.00503">
        <ele>107.724667</ele>
        <time>2022-12-12T15:45:35.845Z</time>
      </trkpt>
      <trkpt lat="48.12135" lon="-3.00486">
        <ele>107.688741</ele>
        <time>2022-12-12T15:45:38.844Z</time>
      </trkpt>
      <trkpt lat="48.12137" lon="-3.00468">
        <ele>107.651335</ele>
        <time>2022-12-12T15:45:41.844Z</time>
      </trkpt>
      <trkpt lat="48.12139" lon="-3.00452">
        <ele>107.616513</ele>
        <time>2022-12-12T15:45:44.841Z</time>
      </trkpt>
      <trkpt lat="48.12142" lon="-3.00438">
        <ele>107.585986</ele>
        <time>2022-12-12T15:45:47.852Z</time>
      </trkpt>
      <trkpt lat="48.12145" lon="-3.00423">
        <ele>107.555195</ele>
        <time>2022-12-12T15:45:50.835Z</time>
      </trkpt>
      <trkpt lat="48.12149" lon="-3.00409">
        <ele>107.523486</ele>
        <time>2022-12-12T15:45:53.843Z</time>
      </trkpt>
      <trkpt lat="48.12152" lon="-3.00393">
        <ele>107.489437</ele>
        <time>2022-12-12T15:45:56.839Z</time>
      </trkpt>
      <trkpt lat="48.12155" lon="-3.00376">
        <ele>107.494648</ele>
        <time>2022-12-12T15:45:59.844Z</time>
      </trkpt>
      <trkpt lat="48.12159" lon="-3.0036">
        <ele>107.730062</ele>
        <time>2022-12-12T15:46:02.843Z</time>
      </trkpt>
      <trkpt lat="48.12163" lon="-3.00346">
        <ele>107.943628</ele>
        <time>2022-12-12T15:46:05.842Z</time>
      </trkpt>
      <trkpt lat="48.12169" lon="-3.00331">
        <ele>108.174416</ele>
        <time>2022-12-12T15:46:08.846Z</time>
      </trkpt>
      <trkpt lat="48.12176" lon="-3.00322">
        <ele>108.363153</ele>
        <time>2022-12-12T15:46:10.825Z</time>
      </trkpt>
      <trkpt lat="48.12184" lon="-3.00307">
        <ele>108.629204</ele>
        <time>2022-12-12T15:46:13.835Z</time>
      </trkpt>
      <trkpt lat="48.12191" lon="-3.00294">
        <ele>108.868116</ele>
        <time>2022-12-12T15:46:16.851Z</time>
      </trkpt>
      <trkpt lat="48.12199" lon="-3.00282">
        <ele>109.092294</ele>
        <time>2022-12-12T15:46:19.840Z</time>
      </trkpt>
      <trkpt lat="48.12208" lon="-3.00268">
        <ele>109.35703</ele>
        <time>2022-12-12T15:46:22.844Z</time>
      </trkpt>
      <trkpt lat="48.12216" lon="-3.00255">
        <ele>109.606871</ele>
        <time>2022-12-12T15:46:25.845Z</time>
      </trkpt>
      <trkpt lat="48.12225" lon="-3.00241">
        <ele>109.870181</ele>
        <time>2022-12-12T15:46:28.847Z</time>
      </trkpt>
      <trkpt lat="48.12235" lon="-3.00225">
        <ele>110.177615</ele>
        <time>2022-12-12T15:46:31.844Z</time>
      </trkpt>
      <trkpt lat="48.12242" lon="-3.00212">
        <ele>110.401902</ele>
        <time>2022-12-12T15:46:34.842Z</time>
      </trkpt>
      <trkpt lat="48.12249" lon="-3.00198">
        <ele>110.645359</ele>
        <time>2022-12-12T15:46:37.824Z</time>
      </trkpt>
      <trkpt lat="48.12256" lon="-3.00185">
        <ele>110.877978</ele>
        <time>2022-12-12T15:46:40.849Z</time>
      </trkpt>
      <trkpt lat="48.12265" lon="-3.00172">
        <ele>111.13543</ele>
        <time>2022-12-12T15:46:43.843Z</time>
      </trkpt>
      <trkpt lat="48.12274" lon="-3.00158">
        <ele>110.713922</ele>
        <time>2022-12-12T15:46:46.842Z</time>
      </trkpt>
      <trkpt lat="48.12283" lon="-3.00144">
        <ele>110.190912</ele>
        <time>2022-12-12T15:46:49.844Z</time>
      </trkpt>
      <trkpt lat="48.12291" lon="-3.00134">
        <ele>109.806603</ele>
        <time>2022-12-12T15:46:51.844Z</time>
      </trkpt>
      <trkpt lat="48.12299" lon="-3.00121">
        <ele>109.351473</ele>
        <time>2022-12-12T15:46:54.833Z</time>
      </trkpt>
      <trkpt lat="48.12308" lon="-3.00108">
        <ele>108.889165</ele>
        <time>2022-12-12T15:46:57.827Z</time>
      </trkpt>
      <trkpt lat="48.12315" lon="-3.00097">
        <ele>108.468655</ele>
        <time>2022-12-12T15:47:00.841Z</time>
      </trkpt>
      <trkpt lat="48.12323" lon="-3.00084">
        <ele>108.034553</ele>
        <time>2022-12-12T15:47:03.833Z</time>
      </trkpt>
      <trkpt lat="48.1233" lon="-3.00071">
        <ele>107.592879</ele>
        <time>2022-12-12T15:47:06.838Z</time>
      </trkpt>
      <trkpt lat="48.12336" lon="-3.00056">
        <ele>107.15032</ele>
        <time>2022-12-12T15:47:09.838Z</time>
      </trkpt>
      <trkpt lat="48.12343" lon="-3.0004">
        <ele>106.656356</ele>
        <time>2022-12-12T15:47:12.826Z</time>
      </trkpt>
      <trkpt lat="48.12348" lon="-3.00025">
        <ele>106.206521</ele>
        <time>2022-12-12T15:47:15.836Z</time>
      </trkpt>
      <trkpt lat="48.12353" lon="-3.00009">
        <ele>105.777633</ele>
        <time>2022-12-12T15:47:18.844Z</time>
      </trkpt>
      <trkpt lat="48.12358" lon="-2.99995">
        <ele>105.353083</ele>
        <time>2022-12-12T15:47:21.844Z</time>
      </trkpt>
      <trkpt lat="48.12364" lon="-2.99979">
        <ele>104.890401</ele>
        <time>2022-12-12T15:47:24.843Z</time>
      </trkpt>
      <trkpt lat="48.12368" lon="-2.99964">
        <ele>104.487691</ele>
        <time>2022-12-12T15:47:27.826Z</time>
      </trkpt>
      <trkpt lat="48.12371" lon="-2.99949">
        <ele>104.236068</ele>
        <time>2022-12-12T15:47:30.845Z</time>
      </trkpt>
      <trkpt lat="48.12374" lon="-2.99934">
        <ele>104.250631</ele>
        <time>2022-12-12T15:47:33.844Z</time>
      </trkpt>
      <trkpt lat="48.12376" lon="-2.99917">
        <ele>104.266729</ele>
        <time>2022-12-12T15:47:36.844Z</time>
      </trkpt>
      <trkpt lat="48.12378" lon="-2.99899">
        <ele>104.283554</ele>
        <time>2022-12-12T15:47:39.844Z</time>
      </trkpt>
      <trkpt lat="48.12379" lon="-2.99886">
        <ele>104.296072</ele>
        <time>2022-12-12T15:47:41.853Z</time>
      </trkpt>
      <trkpt lat="48.12382" lon="-2.99871">
        <ele>104.310812</ele>
        <time>2022-12-12T15:47:43.845Z</time>
      </trkpt>
      <trkpt lat="48.12384" lon="-2.99857">
        <ele>104.323693</ele>
        <time>2022-12-12T15:47:45.840Z</time>
      </trkpt>
      <trkpt lat="48.12384" lon="-2.99836">
        <ele>104.343108</ele>
        <time>2022-12-12T15:47:48.844Z</time>
      </trkpt>
      <trkpt lat="48.12384" lon="-2.99822">
        <ele>104.356327</ele>
        <time>2022-12-12T15:47:50.831Z</time>
      </trkpt>
      <trkpt lat="48.12382" lon="-2.99803">
        <ele>104.373765</ele>
        <time>2022-12-12T15:47:53.843Z</time>
      </trkpt>
      <trkpt lat="48.1238" lon="-2.99785">
        <ele>104.390862</ele>
        <time>2022-12-12T15:47:56.835Z</time>
      </trkpt>
      <trkpt lat="48.12377" lon="-2.99765">
        <ele>104.40933</ele>
        <time>2022-12-12T15:47:59.841Z</time>
      </trkpt>
      <trkpt lat="48.12374" lon="-2.99748">
        <ele>104.426032</ele>
        <time>2022-12-12T15:48:02.844Z</time>
      </trkpt>
      <trkpt lat="48.12371" lon="-2.9973">
        <ele>104.443216</ele>
        <time>2022-12-12T15:48:05.844Z</time>
      </trkpt>
      <trkpt lat="48.12369" lon="-2.99712">
        <ele>104.459858</ele>
        <time>2022-12-12T15:48:08.845Z</time>
      </trkpt>
      <trkpt lat="48.12366" lon="-2.99693">
        <ele>104.478177</ele>
        <time>2022-12-12T15:48:11.845Z</time>
      </trkpt>
      <trkpt lat="48.12363" lon="-2.99674">
        <ele>104.827368</ele>
        <time>2022-12-12T15:48:14.842Z</time>
      </trkpt>
      <trkpt lat="48.1236" lon="-2.99656">
        <ele>105.204266</ele>
        <time>2022-12-12T15:48:17.854Z</time>
      </trkpt>
      <trkpt lat="48.12356" lon="-2.99638">
        <ele>105.58967</ele>
        <time>2022-12-12T15:48:20.844Z</time>
      </trkpt>
      <trkpt lat="48.12351" lon="-2.99621">
        <ele>105.957091</ele>
        <time>2022-12-12T15:48:23.830Z</time>
      </trkpt>
      <trkpt lat="48.12346" lon="-2.99605">
        <ele>106.33176</ele>
        <time>2022-12-12T15:48:26.846Z</time>
      </trkpt>
      <trkpt lat="48.1234" lon="-2.9959">
        <ele>106.688961</ele>
        <time>2022-12-12T15:48:29.825Z</time>
      </trkpt>
      <trkpt lat="48.12334" lon="-2.99576">
        <ele>107.025212</ele>
        <time>2022-12-12T15:48:32.845Z</time>
      </trkpt>
      <trkpt lat="48.12327" lon="-2.99563">
        <ele>107.3554</ele>
        <time>2022-12-12T15:48:35.842Z</time>
      </trkpt>
      <trkpt lat="48.12321" lon="-2.99551">
        <ele>107.659678</ele>
        <time>2022-12-12T15:48:38.845Z</time>
      </trkpt>
      <trkpt lat="48.12315" lon="-2.99539">
        <ele>107.966642</ele>
        <time>2022-12-12T15:48:41.847Z</time>
      </trkpt>
      <trkpt lat="48.12307" lon="-2.99527">
        <ele>108.31487</ele>
        <time>2022-12-12T15:48:44.848Z</time>
      </trkpt>
      <trkpt lat="48.12299" lon="-2.99516">
        <ele>108.647817</ele>
        <time>2022-12-12T15:48:47.846Z</time>
      </trkpt>
      <trkpt lat="48.12289" lon="-2.99508">
        <ele>108.98845</ele>
        <time>2022-12-12T15:48:50.825Z</time>
      </trkpt>
      <trkpt lat="48.12279" lon="-2.995">
        <ele>109.337364</ele>
        <time>2022-12-12T15:48:53.845Z</time>
      </trkpt>
      <trkpt lat="48.12268" lon="-2.99493">
        <ele>109.687251</ele>
        <time>2022-12-12T15:48:56.839Z</time>
      </trkpt>
      <trkpt lat="48.12258" lon="-2.9949">
        <ele>109.894635</ele>
        <time>2022-12-12T15:48:59.824Z</time>
      </trkpt>
      <trkpt lat="48.12248" lon="-2.99489">
        <ele>109.617618</ele>
        <time>2022-12-12T15:49:02.844Z</time>
      </trkpt>
      <trkpt lat="48.12239" lon="-2.99487">
        <ele>109.351511</ele>
        <time>2022-12-12T15:49:05.848Z</time>
      </trkpt>
      <trkpt lat="48.12228" lon="-2.99484">
        <ele>109.031841</ele>
        <time>2022-12-12T15:49:09.848Z</time>
      </trkpt>
      <trkpt lat="48.12216" lon="-2.99483">
        <ele>108.704003</ele>
        <time>2022-12-12T15:49:13.857Z</time>
      </trkpt>
      <trkpt lat="48.12206" lon="-2.9948">
        <ele>108.395848</ele>
        <time>2022-12-12T15:49:17.824Z</time>
      </trkpt>
      <trkpt lat="48.12196" lon="-2.99478">
        <ele>108.129518</ele>
        <time>2022-12-12T15:49:21.845Z</time>
      </trkpt>
      <trkpt lat="48.12194" lon="-2.99477">
        <ele>108.055961</ele>
        <time>2022-12-12T15:50:02.774Z</time>
      </trkpt>
      <trkpt lat="48.12167" lon="-2.9947">
        <ele>107.290117</ele>
        <time>2022-12-12T16:02:42.833Z</time>
      </trkpt>
      <trkpt lat="48.12158" lon="-2.9947">
        <ele>107.02815</ele>
        <time>2022-12-12T16:02:55.838Z</time>
      </trkpt>
      <trkpt lat="48.12147" lon="-2.99469">
        <ele>106.723959</ele>
        <time>2022-12-12T16:02:59.844Z</time>
      </trkpt>
      <trkpt lat="48.12138" lon="-2.99467">
        <ele>106.457089</ele>
        <time>2022-12-12T16:03:02.838Z</time>
      </trkpt>
      <trkpt lat="48.12129" lon="-2.99465">
        <ele>106.196844</ele>
        <time>2022-12-12T16:03:05.837Z</time>
      </trkpt>
      <trkpt lat="48.1212" lon="-2.99463">
        <ele>105.92695</ele>
        <time>2022-12-12T16:03:08.848Z</time>
      </trkpt>
      <trkpt lat="48.1211" lon="-2.9946">
        <ele>105.66008</ele>
        <time>2022-12-12T16:03:11.852Z</time>
      </trkpt>
      <trkpt lat="48.12101" lon="-2.99459">
        <ele>105.397564</ele>
        <time>2022-12-12T16:03:14.863Z</time>
      </trkpt>
      <trkpt lat="48.12092" lon="-2.99457">
        <ele>105.133816</ele>
        <time>2022-12-12T16:03:17.839Z</time>
      </trkpt>
      <trkpt lat="48.12082" lon="-2.99454">
        <ele>104.839469</ele>
        <time>2022-12-12T16:03:20.861Z</time>
      </trkpt>
      <trkpt lat="48.12071" lon="-2.99451">
        <ele>104.757619</ele>
        <time>2022-12-12T16:03:23.850Z</time>
      </trkpt>
      <trkpt lat="48.12062" lon="-2.99446">
        <ele>104.675622</ele>
        <time>2022-12-12T16:03:26.857Z</time>
      </trkpt>
      <trkpt lat="48.12051" lon="-2.99442">
        <ele>104.588685</ele>
        <time>2022-12-12T16:03:29.840Z</time>
      </trkpt>
      <trkpt lat="48.12041" lon="-2.99436">
        <ele>104.508776</ele>
        <time>2022-12-12T16:03:32.850Z</time>
      </trkpt>
      <trkpt lat="48.12031" lon="-2.99428">
        <ele>104.417489</ele>
        <time>2022-12-12T16:03:35.834Z</time>
      </trkpt>
      <trkpt lat="48.12021" lon="-2.99419">
        <ele>104.322235</ele>
        <time>2022-12-12T16:03:38.846Z</time>
      </trkpt>
      <trkpt lat="48.12011" lon="-2.99409">
        <ele>104.225707</ele>
        <time>2022-12-12T16:03:41.855Z</time>
      </trkpt>
      <trkpt lat="48.12001" lon="-2.99401">
        <ele>104.139861</ele>
        <time>2022-12-12T16:03:44.838Z</time>
      </trkpt>
      <trkpt lat="48.11993" lon="-2.99394">
        <ele>104.067531</ele>
        <time>2022-12-12T16:03:47.849Z</time>
      </trkpt>
      <trkpt lat="48.11984" lon="-2.99385">
        <ele>103.982063</ele>
        <time>2022-12-12T16:03:50.852Z</time>
      </trkpt>
      <trkpt lat="48.11974" lon="-2.99377">
        <ele>103.8936</ele>
        <time>2022-12-12T16:03:53.846Z</time>
      </trkpt>
      <trkpt lat="48.11963" lon="-2.99369">
        <ele>103.79908</ele>
        <time>2022-12-12T16:03:56.849Z</time>
      </trkpt>
      <trkpt lat="48.11955" lon="-2.99364">
        <ele>103.728376</ele>
        <time>2022-12-12T16:03:59.837Z</time>
      </trkpt>
      <trkpt lat="48.11944" lon="-2.99359">
        <ele>103.637177</ele>
        <time>2022-12-12T16:04:02.845Z</time>
      </trkpt>
      <trkpt lat="48.11934" lon="-2.99351">
        <ele>103.548523</ele>
        <time>2022-12-12T16:04:05.850Z</time>
      </trkpt>
      <trkpt lat="48.11923" lon="-2.99342">
        <ele>103.4497</ele>
        <time>2022-12-12T16:04:08.848Z</time>
      </trkpt>
      <trkpt lat="48.11914" lon="-2.99335">
        <ele>103.361936</ele>
        <time>2022-12-12T16:04:10.850Z</time>
      </trkpt>
      <trkpt lat="48.11902" lon="-2.99329">
        <ele>103.251329</ele>
        <time>2022-12-12T16:04:13.847Z</time>
      </trkpt>
      <trkpt lat="48.1189" lon="-2.99322">
        <ele>103.140301</ele>
        <time>2022-12-12T16:04:16.856Z</time>
      </trkpt>
      <trkpt lat="48.11881" lon="-2.9932">
        <ele>103.058301</ele>
        <time>2022-12-12T16:04:18.848Z</time>
      </trkpt>
      <trkpt lat="48.11869" lon="-2.99316">
        <ele>102.944433</ele>
        <time>2022-12-12T16:04:21.846Z</time>
      </trkpt>
      <trkpt lat="48.11857" lon="-2.99313">
        <ele>102.833385</ele>
        <time>2022-12-12T16:04:24.860Z</time>
      </trkpt>
      <trkpt lat="48.11845" lon="-2.9931">
        <ele>102.72577</ele>
        <time>2022-12-12T16:04:27.850Z</time>
      </trkpt>
      <trkpt lat="48.11833" lon="-2.99306">
        <ele>102.621017</ele>
        <time>2022-12-12T16:04:30.848Z</time>
      </trkpt>
      <trkpt lat="48.11822" lon="-2.99302">
        <ele>102.512038</ele>
        <time>2022-12-12T16:04:33.846Z</time>
      </trkpt>
      <trkpt lat="48.1181" lon="-2.99298">
        <ele>102.405703</ele>
        <time>2022-12-12T16:04:36.840Z</time>
      </trkpt>
      <trkpt lat="48.11798" lon="-2.99294">
        <ele>102.293467</ele>
        <time>2022-12-12T16:04:39.847Z</time>
      </trkpt>
      <trkpt lat="48.11785" lon="-2.9929">
        <ele>102.180865</ele>
        <time>2022-12-12T16:04:42.849Z</time>
      </trkpt>
      <trkpt lat="48.11776" lon="-2.99288">
        <ele>102.098201</ele>
        <time>2022-12-12T16:04:44.847Z</time>
      </trkpt>
      <trkpt lat="48.11764" lon="-2.99283">
        <ele>101.983916</ele>
        <time>2022-12-12T16:04:47.850Z</time>
      </trkpt>
      <trkpt lat="48.11751" lon="-2.9928">
        <ele>101.867388</ele>
        <time>2022-12-12T16:04:50.851Z</time>
      </trkpt>
      <trkpt lat="48.11742" lon="-2.99278">
        <ele>101.8322</ele>
        <time>2022-12-12T16:04:52.859Z</time>
      </trkpt>
      <trkpt lat="48.1173" lon="-2.99276">
        <ele>101.88823</ele>
        <time>2022-12-12T16:04:55.849Z</time>
      </trkpt>
      <trkpt lat="48.11718" lon="-2.99274">
        <ele>101.939869</ele>
        <time>2022-12-12T16:04:58.833Z</time>
      </trkpt>
      <trkpt lat="48.11706" lon="-2.99275">
        <ele>101.991239</ele>
        <time>2022-12-12T16:05:01.834Z</time>
      </trkpt>
      <trkpt lat="48.11696" lon="-2.99279">
        <ele>102.038654</ele>
        <time>2022-12-12T16:05:04.833Z</time>
      </trkpt>
      <trkpt lat="48.11687" lon="-2.99285">
        <ele>102.083524</ele>
        <time>2022-12-12T16:05:07.823Z</time>
      </trkpt>
      <trkpt lat="48.11677" lon="-2.99292">
        <ele>102.132688</ele>
        <time>2022-12-12T16:05:10.833Z</time>
      </trkpt>
      <trkpt lat="48.11667" lon="-2.993">
        <ele>102.182125</ele>
        <time>2022-12-12T16:05:13.833Z</time>
      </trkpt>
      <trkpt lat="48.11657" lon="-2.99307">
        <ele>102.231816</ele>
        <time>2022-12-12T16:05:16.844Z</time>
      </trkpt>
      <trkpt lat="48.11646" lon="-2.99315">
        <ele>102.284802</ele>
        <time>2022-12-12T16:05:19.838Z</time>
      </trkpt>
      <trkpt lat="48.11635" lon="-2.99324">
        <ele>102.338609</ele>
        <time>2022-12-12T16:05:22.828Z</time>
      </trkpt>
      <trkpt lat="48.11625" lon="-2.99334">
        <ele>102.3936</ele>
        <time>2022-12-12T16:05:25.840Z</time>
      </trkpt>
      <trkpt lat="48.11614" lon="-2.99344">
        <ele>102.449812</ele>
        <time>2022-12-12T16:05:28.848Z</time>
      </trkpt>
      <trkpt lat="48.11604" lon="-2.99354">
        <ele>102.501491</ele>
        <time>2022-12-12T16:05:31.832Z</time>
      </trkpt>
      <trkpt lat="48.11594" lon="-2.99365">
        <ele>102.557452</ele>
        <time>2022-12-12T16:05:34.831Z</time>
      </trkpt>
      <trkpt lat="48.11583" lon="-2.99376">
        <ele>102.614257</ele>
        <time>2022-12-12T16:05:37.850Z</time>
      </trkpt>
      <trkpt lat="48.11574" lon="-2.99385">
        <ele>102.730714</ele>
        <time>2022-12-12T16:05:40.838Z</time>
      </trkpt>
      <trkpt lat="48.11564" lon="-2.99395">
        <ele>102.849532</ele>
        <time>2022-12-12T16:05:43.835Z</time>
      </trkpt>
      <trkpt lat="48.11554" lon="-2.99405">
        <ele>102.975993</ele>
        <time>2022-12-12T16:05:46.850Z</time>
      </trkpt>
      <trkpt lat="48.11544" lon="-2.99415">
        <ele>103.102936</ele>
        <time>2022-12-12T16:05:49.834Z</time>
      </trkpt>
      <trkpt lat="48.11533" lon="-2.99425">
        <ele>103.231388</ele>
        <time>2022-12-12T16:05:52.829Z</time>
      </trkpt>
      <trkpt lat="48.11523" lon="-2.99434">
        <ele>103.356407</ele>
        <time>2022-12-12T16:05:55.849Z</time>
      </trkpt>
      <trkpt lat="48.11512" lon="-2.99445">
        <ele>103.485331</ele>
        <time>2022-12-12T16:05:58.844Z</time>
      </trkpt>
      <trkpt lat="48.11502" lon="-2.99454">
        <ele>103.609384</ele>
        <time>2022-12-12T16:06:01.850Z</time>
      </trkpt>
      <trkpt lat="48.1149" lon="-2.99465">
        <ele>103.747678</ele>
        <time>2022-12-12T16:06:04.826Z</time>
      </trkpt>
      <trkpt lat="48.11482" lon="-2.99472">
        <ele>103.843977</ele>
        <time>2022-12-12T16:06:06.845Z</time>
      </trkpt>
      <trkpt lat="48.11471" lon="-2.99482">
        <ele>103.979978</ele>
        <time>2022-12-12T16:06:09.868Z</time>
      </trkpt>
      <trkpt lat="48.1146" lon="-2.99492">
        <ele>104.110712</ele>
        <time>2022-12-12T16:06:12.838Z</time>
      </trkpt>
      <trkpt lat="48.11449" lon="-2.99502">
        <ele>104.242498</ele>
        <time>2022-12-12T16:06:15.834Z</time>
      </trkpt>
      <trkpt lat="48.11438" lon="-2.99512">
        <ele>104.369815</ele>
        <time>2022-12-12T16:06:18.849Z</time>
      </trkpt>
      <trkpt lat="48.11429" lon="-2.99522">
        <ele>104.393476</ele>
        <time>2022-12-12T16:06:21.834Z</time>
      </trkpt>
      <trkpt lat="48.11421" lon="-2.99531">
        <ele>104.202485</ele>
        <time>2022-12-12T16:06:24.841Z</time>
      </trkpt>
      <trkpt lat="48.11414" lon="-2.9954">
        <ele>104.033253</ele>
        <time>2022-12-12T16:06:27.850Z</time>
      </trkpt>
      <trkpt lat="48.11407" lon="-2.99552">
        <ele>103.83585</ele>
        <time>2022-12-12T16:06:31.858Z</time>
      </trkpt>
      <trkpt lat="48.114" lon="-2.99562">
        <ele>103.667851</ele>
        <time>2022-12-12T16:06:34.849Z</time>
      </trkpt>
      <trkpt lat="48.11395" lon="-2.99576">
        <ele>103.470602</ele>
        <time>2022-12-12T16:06:37.849Z</time>
      </trkpt>
      <trkpt lat="48.11389" lon="-2.99592">
        <ele>103.241146</ele>
        <time>2022-12-12T16:06:40.847Z</time>
      </trkpt>
      <trkpt lat="48.11385" lon="-2.99609">
        <ele>103.015772</ele>
        <time>2022-12-12T16:06:43.849Z</time>
      </trkpt>
      <trkpt lat="48.1138" lon="-2.99626">
        <ele>102.794245</ele>
        <time>2022-12-12T16:06:46.859Z</time>
      </trkpt>
      <trkpt lat="48.11377" lon="-2.99643">
        <ele>102.572325</ele>
        <time>2022-12-12T16:06:49.845Z</time>
      </trkpt>
      <trkpt lat="48.11374" lon="-2.99661">
        <ele>102.338436</ele>
        <time>2022-12-12T16:06:52.831Z</time>
      </trkpt>
      <trkpt lat="48.1137" lon="-2.9968">
        <ele>102.095702</ele>
        <time>2022-12-12T16:06:55.848Z</time>
      </trkpt>
      <trkpt lat="48.11368" lon="-2.997">
        <ele>101.853012</ele>
        <time>2022-12-12T16:06:58.849Z</time>
      </trkpt>
      <trkpt lat="48.11365" lon="-2.99719">
        <ele>101.606595</ele>
        <time>2022-12-12T16:07:01.843Z</time>
      </trkpt>
      <trkpt lat="48.11363" lon="-2.99733">
        <ele>101.431745</ele>
        <time>2022-12-12T16:07:03.846Z</time>
      </trkpt>
      <trkpt lat="48.1136" lon="-2.99752">
        <ele>101.191844</ele>
        <time>2022-12-12T16:07:06.847Z</time>
      </trkpt>
      <trkpt lat="48.11358" lon="-2.9977">
        <ele>101.146465</ele>
        <time>2022-12-12T16:07:09.848Z</time>
      </trkpt>
      <trkpt lat="48.11355" lon="-2.9979">
        <ele>101.174264</ele>
        <time>2022-12-12T16:07:12.861Z</time>
      </trkpt>
      <trkpt lat="48.11353" lon="-2.99803">
        <ele>101.193861</ele>
        <time>2022-12-12T16:07:14.858Z</time>
      </trkpt>
      <trkpt lat="48.11351" lon="-2.99816">
        <ele>101.21291</ele>
        <time>2022-12-12T16:07:16.850Z</time>
      </trkpt>
      <trkpt lat="48.11349" lon="-2.99835">
        <ele>101.240055</ele>
        <time>2022-12-12T16:07:19.857Z</time>
      </trkpt>
      <trkpt lat="48.11346" lon="-2.99853">
        <ele>101.265743</ele>
        <time>2022-12-12T16:07:22.841Z</time>
      </trkpt>
      <trkpt lat="48.11343" lon="-2.9987">
        <ele>101.290679</ele>
        <time>2022-12-12T16:07:25.854Z</time>
      </trkpt>
      <trkpt lat="48.11341" lon="-2.99887">
        <ele>101.315089</ele>
        <time>2022-12-12T16:07:28.853Z</time>
      </trkpt>
      <trkpt lat="48.11339" lon="-2.99906">
        <ele>101.341848</ele>
        <time>2022-12-12T16:07:31.840Z</time>
      </trkpt>
      <trkpt lat="48.11336" lon="-2.99925">
        <ele>101.368369</ele>
        <time>2022-12-12T16:07:34.849Z</time>
      </trkpt>
      <trkpt lat="48.11334" lon="-2.99943">
        <ele>101.394675</ele>
        <time>2022-12-12T16:07:37.843Z</time>
      </trkpt>
      <trkpt lat="48.11332" lon="-2.99961">
        <ele>101.420824</ele>
        <time>2022-12-12T16:07:40.848Z</time>
      </trkpt>
      <trkpt lat="48.11329" lon="-2.9998">
        <ele>101.447999</ele>
        <time>2022-12-12T16:07:43.846Z</time>
      </trkpt>
      <trkpt lat="48.11327" lon="-2.99999">
        <ele>101.474962</ele>
        <time>2022-12-12T16:07:46.851Z</time>
      </trkpt>
      <trkpt lat="48.11326" lon="-3.00013">
        <ele>101.494711</ele>
        <time>2022-12-12T16:07:48.837Z</time>
      </trkpt>
      <trkpt lat="48.11324" lon="-3.00026">
        <ele>101.462813</ele>
        <time>2022-12-12T16:07:50.845Z</time>
      </trkpt>
      <trkpt lat="48.11321" lon="-3.00045">
        <ele>101.30225</ele>
        <time>2022-12-12T16:07:53.839Z</time>
      </trkpt>
      <trkpt lat="48.11319" lon="-3.00062">
        <ele>101.149932</ele>
        <time>2022-12-12T16:07:56.860Z</time>
      </trkpt>
      <trkpt lat="48.11316" lon="-3.00079">
        <ele>100.999289</ele>
        <time>2022-12-12T16:07:59.843Z</time>
      </trkpt>
      <trkpt lat="48.11313" lon="-3.00098">
        <ele>100.828159</ele>
        <time>2022-12-12T16:08:02.852Z</time>
      </trkpt>
      <trkpt lat="48.11311" lon="-3.00112">
        <ele>100.702339</ele>
        <time>2022-12-12T16:08:04.853Z</time>
      </trkpt>
      <trkpt lat="48.11308" lon="-3.00126">
        <ele>100.583274</ele>
        <time>2022-12-12T16:08:06.842Z</time>
      </trkpt>
      <trkpt lat="48.11306" lon="-3.00144">
        <ele>100.422296</ele>
        <time>2022-12-12T16:08:09.847Z</time>
      </trkpt>
      <trkpt lat="48.11304" lon="-3.00163">
        <ele>100.263787</ele>
        <time>2022-12-12T16:08:12.857Z</time>
      </trkpt>
      <trkpt lat="48.11299" lon="-3.00181">
        <ele>100.090277</ele>
        <time>2022-12-12T16:08:15.848Z</time>
      </trkpt>
      <trkpt lat="48.11294" lon="-3.00194">
        <ele>99.96224</ele>
        <time>2022-12-12T16:08:17.855Z</time>
      </trkpt>
      <trkpt lat="48.11287" lon="-3.00205">
        <ele>99.83347</ele>
        <time>2022-12-12T16:08:19.846Z</time>
      </trkpt>
      <trkpt lat="48.11281" lon="-3.00218">
        <ele>99.696449</ele>
        <time>2022-12-12T16:08:21.826Z</time>
      </trkpt>
      <trkpt lat="48.11274" lon="-3.00229">
        <ele>99.567773</ele>
        <time>2022-12-12T16:08:23.841Z</time>
      </trkpt>
      <trkpt lat="48.11264" lon="-3.00242">
        <ele>99.400474</ele>
        <time>2022-12-12T16:08:26.839Z</time>
      </trkpt>
      <trkpt lat="48.11256" lon="-3.00255">
        <ele>99.243277</ele>
        <time>2022-12-12T16:08:29.829Z</time>
      </trkpt>
      <trkpt lat="48.11248" lon="-3.00264">
        <ele>99.135716</ele>
        <time>2022-12-12T16:08:31.829Z</time>
      </trkpt>
      <trkpt lat="48.1124" lon="-3.00274">
        <ele>99.043741</ele>
        <time>2022-12-12T16:08:33.836Z</time>
      </trkpt>
      <trkpt lat="48.11233" lon="-3.00282">
        <ele>98.958778</ele>
        <time>2022-12-12T16:08:35.842Z</time>
      </trkpt>
      <trkpt lat="48.11223" lon="-3.00294">
        <ele>98.842123</ele>
        <time>2022-12-12T16:08:38.860Z</time>
      </trkpt>
      <trkpt lat="48.11214" lon="-3.00305">
        <ele>98.734353</ele>
        <time>2022-12-12T16:08:41.839Z</time>
      </trkpt>
      <trkpt lat="48.11207" lon="-3.00315">
        <ele>98.645619</ele>
        <time>2022-12-12T16:08:43.831Z</time>
      </trkpt>
      <trkpt lat="48.11199" lon="-3.00323">
        <ele>98.556123</ele>
        <time>2022-12-12T16:08:45.853Z</time>
      </trkpt>
      <trkpt lat="48.11192" lon="-3.00331">
        <ele>98.466307</ele>
        <time>2022-12-12T16:08:47.851Z</time>
      </trkpt>
      <trkpt lat="48.11181" lon="-3.0034">
        <ele>98.354353</ele>
        <time>2022-12-12T16:08:50.851Z</time>
      </trkpt>
      <trkpt lat="48.11172" lon="-3.00347">
        <ele>98.264033</ele>
        <time>2022-12-12T16:08:53.849Z</time>
      </trkpt>
      <trkpt lat="48.11162" lon="-3.00352">
        <ele>98.164407</ele>
        <time>2022-12-12T16:08:56.853Z</time>
      </trkpt>
      <trkpt lat="48.11153" lon="-3.00357">
        <ele>98.0686</ele>
        <time>2022-12-12T16:08:59.850Z</time>
      </trkpt>
      <trkpt lat="48.11143" lon="-3.00362">
        <ele>97.974841</ele>
        <time>2022-12-12T16:09:02.853Z</time>
      </trkpt>
      <trkpt lat="48.11132" lon="-3.00368">
        <ele>97.863001</ele>
        <time>2022-12-12T16:09:05.853Z</time>
      </trkpt>
      <trkpt lat="48.1112" lon="-3.00374">
        <ele>97.745401</ele>
        <time>2022-12-12T16:09:08.850Z</time>
      </trkpt>
      <trkpt lat="48.11108" lon="-3.00378">
        <ele>97.628981</ele>
        <time>2022-12-12T16:09:11.846Z</time>
      </trkpt>
      <trkpt lat="48.11095" lon="-3.00385">
        <ele>97.538757</ele>
        <time>2022-12-12T16:09:14.849Z</time>
      </trkpt>
      <trkpt lat="48.11086" lon="-3.00388">
        <ele>97.648755</ele>
        <time>2022-12-12T16:09:16.849Z</time>
      </trkpt>
      <trkpt lat="48.11073" lon="-3.00393">
        <ele>97.798497</ele>
        <time>2022-12-12T16:09:19.837Z</time>
      </trkpt>
      <trkpt lat="48.11062" lon="-3.00397">
        <ele>97.935719</ele>
        <time>2022-12-12T16:09:22.859Z</time>
      </trkpt>
      <trkpt lat="48.1105" lon="-3.00401">
        <ele>98.077582</ele>
        <time>2022-12-12T16:09:25.854Z</time>
      </trkpt>
      <trkpt lat="48.1104" lon="-3.00406">
        <ele>98.209218</ele>
        <time>2022-12-12T16:09:28.855Z</time>
      </trkpt>
      <trkpt lat="48.11028" lon="-3.00411">
        <ele>98.356787</ele>
        <time>2022-12-12T16:09:31.854Z</time>
      </trkpt>
      <trkpt lat="48.11019" lon="-3.00415">
        <ele>98.467175</ele>
        <time>2022-12-12T16:09:33.846Z</time>
      </trkpt>
      <trkpt lat="48.11009" lon="-3.0042">
        <ele>98.59214</ele>
        <time>2022-12-12T16:09:35.856Z</time>
      </trkpt>
      <trkpt lat="48.10999" lon="-3.00423">
        <ele>98.704393</ele>
        <time>2022-12-12T16:09:37.860Z</time>
      </trkpt>
      <trkpt lat="48.1099" lon="-3.00427">
        <ele>98.819333</ele>
        <time>2022-12-12T16:09:39.833Z</time>
      </trkpt>
      <trkpt lat="48.10979" lon="-3.00429">
        <ele>98.955832</ele>
        <time>2022-12-12T16:09:42.834Z</time>
      </trkpt>
      <trkpt lat="48.10967" lon="-3.0043">
        <ele>99.094063</ele>
        <time>2022-12-12T16:09:45.841Z</time>
      </trkpt>
      <trkpt lat="48.10954" lon="-3.00428">
        <ele>99.245763</ele>
        <time>2022-12-12T16:09:48.847Z</time>
      </trkpt>
      <trkpt lat="48.10942" lon="-3.00424">
        <ele>99.395672</ele>
        <time>2022-12-12T16:09:51.840Z</time>
      </trkpt>
      <trkpt lat="48.10929" lon="-3.00421">
        <ele>99.54733</ele>
        <time>2022-12-12T16:09:54.846Z</time>
      </trkpt>
      <trkpt lat="48.10916" lon="-3.00417">
        <ele>99.576427</ele>
        <time>2022-12-12T16:09:57.841Z</time>
      </trkpt>
      <trkpt lat="48.10907" lon="-3.00414">
        <ele>99.461008</ele>
        <time>2022-12-12T16:09:59.857Z</time>
      </trkpt>
      <trkpt lat="48.10897" lon="-3.00411">
        <ele>99.342092</ele>
        <time>2022-12-12T16:10:01.851Z</time>
      </trkpt>
      <trkpt lat="48.10888" lon="-3.00407">
        <ele>99.219868</ele>
        <time>2022-12-12T16:10:03.830Z</time>
      </trkpt>
      <trkpt lat="48.10878" lon="-3.00404">
        <ele>99.094452</ele>
        <time>2022-12-12T16:10:05.838Z</time>
      </trkpt>
      <trkpt lat="48.10866" lon="-3.00399">
        <ele>98.947689</ele>
        <time>2022-12-12T16:10:08.855Z</time>
      </trkpt>
      <trkpt lat="48.10854" lon="-3.00396">
        <ele>98.803656</ele>
        <time>2022-12-12T16:10:11.829Z</time>
      </trkpt>
      <trkpt lat="48.10846" lon="-3.00393">
        <ele>98.691899</ele>
        <time>2022-12-12T16:10:13.840Z</time>
      </trkpt>
      <trkpt lat="48.10834" lon="-3.00386">
        <ele>98.544992</ele>
        <time>2022-12-12T16:10:16.836Z</time>
      </trkpt>
      <trkpt lat="48.10823" lon="-3.00379">
        <ele>98.392081</ele>
        <time>2022-12-12T16:10:19.840Z</time>
      </trkpt>
      <trkpt lat="48.10812" lon="-3.0037">
        <ele>98.240997</ele>
        <time>2022-12-12T16:10:22.850Z</time>
      </trkpt>
      <trkpt lat="48.10801" lon="-3.00361">
        <ele>98.091969</ele>
        <time>2022-12-12T16:10:25.841Z</time>
      </trkpt>
      <trkpt lat="48.10793" lon="-3.00351">
        <ele>97.957823</ele>
        <time>2022-12-12T16:10:28.840Z</time>
      </trkpt>
      <trkpt lat="48.10783" lon="-3.00342">
        <ele>97.816186</ele>
        <time>2022-12-12T16:10:31.852Z</time>
      </trkpt>
      <trkpt lat="48.10775" lon="-3.00335">
        <ele>97.703503</ele>
        <time>2022-12-12T16:10:33.841Z</time>
      </trkpt>
      <trkpt lat="48.10766" lon="-3.00325">
        <ele>97.561952</ele>
        <time>2022-12-12T16:10:36.848Z</time>
      </trkpt>
      <trkpt lat="48.10755" lon="-3.00313">
        <ele>97.446685</ele>
        <time>2022-12-12T16:10:39.843Z</time>
      </trkpt>
      <trkpt lat="48.10744" lon="-3.00303">
        <ele>97.470573</ele>
        <time>2022-12-12T16:10:42.840Z</time>
      </trkpt>
      <trkpt lat="48.10733" lon="-3.00293">
        <ele>97.493117</ele>
        <time>2022-12-12T16:10:45.843Z</time>
      </trkpt>
      <trkpt lat="48.10723" lon="-3.00283">
        <ele>97.514817</ele>
        <time>2022-12-12T16:10:48.844Z</time>
      </trkpt>
      <trkpt lat="48.10716" lon="-3.00275">
        <ele>97.531092</ele>
        <time>2022-12-12T16:10:50.850Z</time>
      </trkpt>
      <trkpt lat="48.10707" lon="-3.00266">
        <ele>97.551009</ele>
        <time>2022-12-12T16:10:52.839Z</time>
      </trkpt>
      <trkpt lat="48.10697" lon="-3.00254">
        <ele>97.574438</ele>
        <time>2022-12-12T16:10:55.844Z</time>
      </trkpt>
      <trkpt lat="48.10685" lon="-3.00241">
        <ele>97.600732</ele>
        <time>2022-12-12T16:10:58.848Z</time>
      </trkpt>
      <trkpt lat="48.10674" lon="-3.00229">
        <ele>97.624567</ele>
        <time>2022-12-12T16:11:01.836Z</time>
      </trkpt>
      <trkpt lat="48.10663" lon="-3.0022">
        <ele>97.64751</ele>
        <time>2022-12-12T16:11:04.846Z</time>
      </trkpt>
      <trkpt lat="48.10654" lon="-3.0021">
        <ele>97.668477</ele>
        <time>2022-12-12T16:11:07.833Z</time>
      </trkpt>
      <trkpt lat="48.10645" lon="-3.002">
        <ele>97.688485</ele>
        <time>2022-12-12T16:11:09.839Z</time>
      </trkpt>
      <trkpt lat="48.10635" lon="-3.00187">
        <ele>97.711794</ele>
        <time>2022-12-12T16:11:12.845Z</time>
      </trkpt>
      <trkpt lat="48.10628" lon="-3.00179">
        <ele>97.728768</ele>
        <time>2022-12-12T16:11:14.837Z</time>
      </trkpt>
      <trkpt lat="48.10618" lon="-3.00168">
        <ele>97.749859</ele>
        <time>2022-12-12T16:11:17.832Z</time>
      </trkpt>
      <trkpt lat="48.10611" lon="-3.0016">
        <ele>97.773652</ele>
        <time>2022-12-12T16:11:19.838Z</time>
      </trkpt>
      <trkpt lat="48.10603" lon="-3.00153">
        <ele>97.991944</ele>
        <time>2022-12-12T16:11:21.831Z</time>
      </trkpt>
      <trkpt lat="48.10593" lon="-3.00144">
        <ele>98.268189</ele>
        <time>2022-12-12T16:11:24.856Z</time>
      </trkpt>
      <trkpt lat="48.10585" lon="-3.00136">
        <ele>98.490712</ele>
        <time>2022-12-12T16:11:26.833Z</time>
      </trkpt>
      <trkpt lat="48.10577" lon="-3.00129">
        <ele>98.710979</ele>
        <time>2022-12-12T16:11:28.848Z</time>
      </trkpt>
      <trkpt lat="48.10568" lon="-3.00121">
        <ele>98.938872</ele>
        <time>2022-12-12T16:11:30.848Z</time>
      </trkpt>
      <trkpt lat="48.1056" lon="-3.00113">
        <ele>99.176194</ele>
        <time>2022-12-12T16:11:32.851Z</time>
      </trkpt>
      <trkpt lat="48.10552" lon="-3.00104">
        <ele>99.396537</ele>
        <time>2022-12-12T16:11:34.852Z</time>
      </trkpt>
      <trkpt lat="48.10542" lon="-3.00092">
        <ele>99.708745</ele>
        <time>2022-12-12T16:11:37.846Z</time>
      </trkpt>
      <trkpt lat="48.10531" lon="-3.00079">
        <ele>100.0353</ele>
        <time>2022-12-12T16:11:40.838Z</time>
      </trkpt>
      <trkpt lat="48.10524" lon="-3.0007">
        <ele>100.254863</ele>
        <time>2022-12-12T16:11:42.848Z</time>
      </trkpt>
      <trkpt lat="48.10517" lon="-3.00059">
        <ele>100.491967</ele>
        <time>2022-12-12T16:11:44.846Z</time>
      </trkpt>
      <trkpt lat="48.1051" lon="-3.00049">
        <ele>100.713017</ele>
        <time>2022-12-12T16:11:46.846Z</time>
      </trkpt>
      <trkpt lat="48.10501" lon="-3.00034">
        <ele>101.037809</ele>
        <time>2022-12-12T16:11:49.843Z</time>
      </trkpt>
      <trkpt lat="48.10495" lon="-3.00022">
        <ele>101.270228</ele>
        <time>2022-12-12T16:11:51.840Z</time>
      </trkpt>
      <trkpt lat="48.10489" lon="-3.0001">
        <ele>101.506137</ele>
        <time>2022-12-12T16:11:53.856Z</time>
      </trkpt>
      <trkpt lat="48.10482" lon="-2.99998">
        <ele>101.752961</ele>
        <time>2022-12-12T16:11:56.837Z</time>
      </trkpt>
      <trkpt lat="48.10475" lon="-2.99988">
        <ele>101.975132</ele>
        <time>2022-12-12T16:11:58.835Z</time>
      </trkpt>
      <trkpt lat="48.10468" lon="-2.99976">
        <ele>102.035014</ele>
        <time>2022-12-12T16:12:01.832Z</time>
      </trkpt>
      <trkpt lat="48.10458" lon="-2.99964">
        <ele>102.100797</ele>
        <time>2022-12-12T16:12:04.846Z</time>
      </trkpt>
      <trkpt lat="48.10447" lon="-2.99951">
        <ele>102.16839</ele>
        <time>2022-12-12T16:12:07.849Z</time>
      </trkpt>
      <trkpt lat="48.10438" lon="-2.99939">
        <ele>102.232945</ele>
        <time>2022-12-12T16:12:10.841Z</time>
      </trkpt>
      <trkpt lat="48.10428" lon="-2.99926">
        <ele>102.298595</ele>
        <time>2022-12-12T16:12:13.835Z</time>
      </trkpt>
      <trkpt lat="48.10419" lon="-2.99916">
        <ele>102.357124</ele>
        <time>2022-12-12T16:12:16.851Z</time>
      </trkpt>
      <trkpt lat="48.10409" lon="-2.99905">
        <ele>102.421608</ele>
        <time>2022-12-12T16:12:19.852Z</time>
      </trkpt>
      <trkpt lat="48.10399" lon="-2.99895">
        <ele>102.482187</ele>
        <time>2022-12-12T16:12:22.849Z</time>
      </trkpt>
      <trkpt lat="48.10388" lon="-2.99885">
        <ele>102.548585</ele>
        <time>2022-12-12T16:12:25.831Z</time>
      </trkpt>
      <trkpt lat="48.10378" lon="-2.99873">
        <ele>102.612453</ele>
        <time>2022-12-12T16:12:28.836Z</time>
      </trkpt>
      <trkpt lat="48.10367" lon="-2.99862">
        <ele>102.681902</ele>
        <time>2022-12-12T16:12:31.841Z</time>
      </trkpt>
      <trkpt lat="48.10357" lon="-2.9985">
        <ele>102.746594</ele>
        <time>2022-12-12T16:12:34.854Z</time>
      </trkpt>
      <trkpt lat="48.10348" lon="-2.99839">
        <ele>102.805983</ele>
        <time>2022-12-12T16:12:37.832Z</time>
      </trkpt>
      <trkpt lat="48.10338" lon="-2.99827">
        <ele>102.874983</ele>
        <time>2022-12-12T16:12:40.848Z</time>
      </trkpt>
      <trkpt lat="48.1033" lon="-2.99819">
        <ele>102.829385</ele>
        <time>2022-12-12T16:12:42.843Z</time>
      </trkpt>
      <trkpt lat="48.10322" lon="-2.99811">
        <ele>102.67135</ele>
        <time>2022-12-12T16:12:44.840Z</time>
      </trkpt>
      <trkpt lat="48.10314" lon="-2.99802">
        <ele>102.511966</ele>
        <time>2022-12-12T16:12:46.854Z</time>
      </trkpt>
      <trkpt lat="48.10306" lon="-2.99795">
        <ele>102.35781</ele>
        <time>2022-12-12T16:12:48.857Z</time>
      </trkpt>
      <trkpt lat="48.10299" lon="-2.99786">
        <ele>102.203129</ele>
        <time>2022-12-12T16:12:50.834Z</time>
      </trkpt>
      <trkpt lat="48.10288" lon="-2.99776">
        <ele>101.990463</ele>
        <time>2022-12-12T16:12:53.834Z</time>
      </trkpt>
      <trkpt lat="48.10281" lon="-2.99767">
        <ele>101.839721</ele>
        <time>2022-12-12T16:12:55.858Z</time>
      </trkpt>
      <trkpt lat="48.1027" lon="-2.99757">
        <ele>101.622291</ele>
        <time>2022-12-12T16:12:58.851Z</time>
      </trkpt>
      <trkpt lat="48.10262" lon="-2.99749">
        <ele>101.470211</ele>
        <time>2022-12-12T16:13:00.855Z</time>
      </trkpt>
      <trkpt lat="48.1025" lon="-2.99738">
        <ele>101.240882</ele>
        <time>2022-12-12T16:13:03.833Z</time>
      </trkpt>
      <trkpt lat="48.10239" lon="-2.99729">
        <ele>101.03798</ele>
        <time>2022-12-12T16:13:06.845Z</time>
      </trkpt>
      <trkpt lat="48.10227" lon="-2.9972">
        <ele>100.81433</ele>
        <time>2022-12-12T16:13:09.856Z</time>
      </trkpt>
      <trkpt lat="48.10215" lon="-2.99712">
        <ele>100.594135</ele>
        <time>2022-12-12T16:13:12.836Z</time>
      </trkpt>
      <trkpt lat="48.10207" lon="-2.99706">
        <ele>100.439403</ele>
        <time>2022-12-12T16:13:14.849Z</time>
      </trkpt>
      <trkpt lat="48.10198" lon="-2.99699">
        <ele>100.285125</ele>
        <time>2022-12-12T16:13:16.856Z</time>
      </trkpt>
      <trkpt lat="48.1019" lon="-2.99694">
        <ele>100.135665</ele>
        <time>2022-12-12T16:13:18.862Z</time>
      </trkpt>
      <trkpt lat="48.10181" lon="-2.99688">
        <ele>99.979266</ele>
        <time>2022-12-12T16:13:20.859Z</time>
      </trkpt>
      <trkpt lat="48.10173" lon="-2.99682">
        <ele>99.934143</ele>
        <time>2022-12-12T16:13:22.856Z</time>
      </trkpt>
      <trkpt lat="48.10161" lon="-2.99674">
        <ele>99.939727</ele>
        <time>2022-12-12T16:13:25.857Z</time>
      </trkpt>
      <trkpt lat="48.10149" lon="-2.99665">
        <ele>99.94536</ele>
        <time>2022-12-12T16:13:28.855Z</time>
      </trkpt>
      <trkpt lat="48.1014" lon="-2.99659">
        <ele>99.949402</ele>
        <time>2022-12-12T16:13:30.834Z</time>
      </trkpt>
      <trkpt lat="48.10132" lon="-2.99653">
        <ele>99.953404</ele>
        <time>2022-12-12T16:13:32.850Z</time>
      </trkpt>
      <trkpt lat="48.10121" lon="-2.99645">
        <ele>99.958511</ele>
        <time>2022-12-12T16:13:35.853Z</time>
      </trkpt>
      <trkpt lat="48.1011" lon="-2.99638">
        <ele>99.963392</ele>
        <time>2022-12-12T16:13:38.859Z</time>
      </trkpt>
      <trkpt lat="48.10102" lon="-2.99632">
        <ele>99.967196</ele>
        <time>2022-12-12T16:13:40.850Z</time>
      </trkpt>
      <trkpt lat="48.10091" lon="-2.99625">
        <ele>99.97213</ele>
        <time>2022-12-12T16:13:43.859Z</time>
      </trkpt>
      <trkpt lat="48.1008" lon="-2.99617">
        <ele>99.977451</ele>
        <time>2022-12-12T16:13:46.850Z</time>
      </trkpt>
      <trkpt lat="48.10068" lon="-2.99609">
        <ele>99.982997</ele>
        <time>2022-12-12T16:13:49.855Z</time>
      </trkpt>
      <trkpt lat="48.10059" lon="-2.99603">
        <ele>99.986815</ele>
        <time>2022-12-12T16:13:51.848Z</time>
      </trkpt>
      <trkpt lat="48.10048" lon="-2.99593">
        <ele>99.992253</ele>
        <time>2022-12-12T16:13:54.859Z</time>
      </trkpt>
      <trkpt lat="48.1004" lon="-2.99588">
        <ele>99.996111</ele>
        <time>2022-12-12T16:13:56.864Z</time>
      </trkpt>
      <trkpt lat="48.10031" lon="-2.99582">
        <ele>99.999991</ele>
        <time>2022-12-12T16:13:58.859Z</time>
      </trkpt>
      <trkpt lat="48.10023" lon="-2.99576">
        <ele>100.003797</ele>
        <time>2022-12-12T16:14:00.858Z</time>
      </trkpt>
      <trkpt lat="48.10011" lon="-2.99567">
        <ele>100.127119</ele>
        <time>2022-12-12T16:14:03.848Z</time>
      </trkpt>
      <trkpt lat="48.09999" lon="-2.99559">
        <ele>100.405074</ele>
        <time>2022-12-12T16:14:06.836Z</time>
      </trkpt>
      <trkpt lat="48.0999" lon="-2.99553">
        <ele>100.592715</ele>
        <time>2022-12-12T16:14:08.852Z</time>
      </trkpt>
      <trkpt lat="48.09981" lon="-2.99548">
        <ele>100.78935</ele>
        <time>2022-12-12T16:14:10.857Z</time>
      </trkpt>
      <trkpt lat="48.0997" lon="-2.99539">
        <ele>101.045223</ele>
        <time>2022-12-12T16:14:13.858Z</time>
      </trkpt>
      <trkpt lat="48.09959" lon="-2.9953">
        <ele>101.303212</ele>
        <time>2022-12-12T16:14:16.853Z</time>
      </trkpt>
      <trkpt lat="48.09949" lon="-2.99521">
        <ele>101.540502</ele>
        <time>2022-12-12T16:14:19.857Z</time>
      </trkpt>
      <trkpt lat="48.09939" lon="-2.99512">
        <ele>101.779842</ele>
        <time>2022-12-12T16:14:22.854Z</time>
      </trkpt>
      <trkpt lat="48.09929" lon="-2.99503">
        <ele>102.023395</ele>
        <time>2022-12-12T16:14:25.859Z</time>
      </trkpt>
      <trkpt lat="48.0992" lon="-2.99494">
        <ele>102.233551</ele>
        <time>2022-12-12T16:14:28.857Z</time>
      </trkpt>
      <trkpt lat="48.09912" lon="-2.99486">
        <ele>102.437388</ele>
        <time>2022-12-12T16:14:30.859Z</time>
      </trkpt>
      <trkpt lat="48.09903" lon="-2.99473">
        <ele>102.694448</ele>
        <time>2022-12-12T16:14:33.852Z</time>
      </trkpt>
      <trkpt lat="48.09895" lon="-2.99461">
        <ele>102.932564</ele>
        <time>2022-12-12T16:14:36.853Z</time>
      </trkpt>
      <trkpt lat="48.09887" lon="-2.99448">
        <ele>103.17646</ele>
        <time>2022-12-12T16:14:39.851Z</time>
      </trkpt>
      <trkpt lat="48.09879" lon="-2.99437">
        <ele>103.380773</ele>
        <time>2022-12-12T16:14:41.856Z</time>
      </trkpt>
      <trkpt lat="48.09872" lon="-2.99428">
        <ele>103.580522</ele>
        <time>2022-12-12T16:14:43.856Z</time>
      </trkpt>
      <trkpt lat="48.09865" lon="-2.99418">
        <ele>103.630045</ele>
        <time>2022-12-12T16:14:45.828Z</time>
      </trkpt>
      <trkpt lat="48.09857" lon="-2.99404">
        <ele>103.477959</ele>
        <time>2022-12-12T16:14:48.859Z</time>
      </trkpt>
      <trkpt lat="48.09849" lon="-2.99394">
        <ele>103.356999</ele>
        <time>2022-12-12T16:14:50.858Z</time>
      </trkpt>
      <trkpt lat="48.09843" lon="-2.99384">
        <ele>103.250102</ele>
        <time>2022-12-12T16:14:52.854Z</time>
      </trkpt>
      <trkpt lat="48.09834" lon="-2.9937">
        <ele>103.100777</ele>
        <time>2022-12-12T16:14:55.851Z</time>
      </trkpt>
      <trkpt lat="48.09825" lon="-2.99357">
        <ele>102.951564</ele>
        <time>2022-12-12T16:14:58.852Z</time>
      </trkpt>
      <trkpt lat="48.09819" lon="-2.99347">
        <ele>102.843226</ele>
        <time>2022-12-12T16:15:00.854Z</time>
      </trkpt>
      <trkpt lat="48.0981" lon="-2.99335">
        <ele>102.702244</ele>
        <time>2022-12-12T16:15:03.857Z</time>
      </trkpt>
      <trkpt lat="48.09801" lon="-2.99321">
        <ele>102.551305</ele>
        <time>2022-12-12T16:15:06.845Z</time>
      </trkpt>
      <trkpt lat="48.09792" lon="-2.99307">
        <ele>102.396973</ele>
        <time>2022-12-12T16:15:09.857Z</time>
      </trkpt>
      <trkpt lat="48.09782" lon="-2.99293">
        <ele>102.237142</ele>
        <time>2022-12-12T16:15:12.858Z</time>
      </trkpt>
      <trkpt lat="48.09773" lon="-2.99279">
        <ele>102.085279</ele>
        <time>2022-12-12T16:15:15.849Z</time>
      </trkpt>
      <trkpt lat="48.09766" lon="-2.9927">
        <ele>101.975851</ele>
        <time>2022-12-12T16:15:17.851Z</time>
      </trkpt>
      <trkpt lat="48.09757" lon="-2.99255">
        <ele>101.819114</ele>
        <time>2022-12-12T16:15:20.859Z</time>
      </trkpt>
      <trkpt lat="48.09751" lon="-2.99246">
        <ele>101.709706</ele>
        <time>2022-12-12T16:15:22.859Z</time>
      </trkpt>
      <trkpt lat="48.09742" lon="-2.99232">
        <ele>101.564632</ele>
        <time>2022-12-12T16:15:25.850Z</time>
      </trkpt>
      <trkpt lat="48.09733" lon="-2.9922">
        <ele>101.391898</ele>
        <time>2022-12-12T16:15:28.851Z</time>
      </trkpt>
      <trkpt lat="48.09725" lon="-2.99207">
        <ele>101.214509</ele>
        <time>2022-12-12T16:15:31.859Z</time>
      </trkpt>
      <trkpt lat="48.09716" lon="-2.99195">
        <ele>101.041241</ele>
        <time>2022-12-12T16:15:34.855Z</time>
      </trkpt>
      <trkpt lat="48.09707" lon="-2.99183">
        <ele>100.862463</ele>
        <time>2022-12-12T16:15:37.860Z</time>
      </trkpt>
      <trkpt lat="48.09697" lon="-2.9917">
        <ele>100.669065</ele>
        <time>2022-12-12T16:15:40.858Z</time>
      </trkpt>
      <trkpt lat="48.09686" lon="-2.99159">
        <ele>100.475239</ele>
        <time>2022-12-12T16:15:43.837Z</time>
      </trkpt>
      <trkpt lat="48.09676" lon="-2.99148">
        <ele>100.29903</ele>
        <time>2022-12-12T16:15:46.832Z</time>
      </trkpt>
      <trkpt lat="48.09667" lon="-2.99139">
        <ele>100.138439</ele>
        <time>2022-12-12T16:15:49.835Z</time>
      </trkpt>
      <trkpt lat="48.09657" lon="-2.9913">
        <ele>99.962525</ele>
        <time>2022-12-12T16:15:52.847Z</time>
      </trkpt>
      <trkpt lat="48.09646" lon="-2.99121">
        <ele>99.783621</ele>
        <time>2022-12-12T16:15:55.843Z</time>
      </trkpt>
      <trkpt lat="48.09638" lon="-2.99115">
        <ele>99.645337</ele>
        <time>2022-12-12T16:15:57.852Z</time>
      </trkpt>
      <trkpt lat="48.09626" lon="-2.99107">
        <ele>99.453614</ele>
        <time>2022-12-12T16:16:00.849Z</time>
      </trkpt>
      <trkpt lat="48.09614" lon="-2.99098">
        <ele>99.265958</ele>
        <time>2022-12-12T16:16:03.857Z</time>
      </trkpt>
      <trkpt lat="48.09602" lon="-2.9909">
        <ele>99.077123</ele>
        <time>2022-12-12T16:16:06.858Z</time>
      </trkpt>
      <trkpt lat="48.09594" lon="-2.99086">
        <ele>98.94218</ele>
        <time>2022-12-12T16:16:08.857Z</time>
      </trkpt>
      <trkpt lat="48.09585" lon="-2.99081">
        <ele>98.973967</ele>
        <time>2022-12-12T16:16:10.862Z</time>
      </trkpt>
      <trkpt lat="48.09576" lon="-2.99076">
        <ele>99.025122</ele>
        <time>2022-12-12T16:16:12.849Z</time>
      </trkpt>
      <trkpt lat="48.09564" lon="-2.99069">
        <ele>99.091459</ele>
        <time>2022-12-12T16:16:15.843Z</time>
      </trkpt>
      <trkpt lat="48.09552" lon="-2.99064">
        <ele>99.158864</ele>
        <time>2022-12-12T16:16:18.860Z</time>
      </trkpt>
      <trkpt lat="48.09539" lon="-2.99058">
        <ele>99.229363</ele>
        <time>2022-12-12T16:16:21.858Z</time>
      </trkpt>
      <trkpt lat="48.09527" lon="-2.99054">
        <ele>99.299764</ele>
        <time>2022-12-12T16:16:24.853Z</time>
      </trkpt>
      <trkpt lat="48.09514" lon="-2.99049">
        <ele>99.371208</ele>
        <time>2022-12-12T16:16:27.851Z</time>
      </trkpt>
      <trkpt lat="48.09505" lon="-2.99046">
        <ele>99.420479</ele>
        <time>2022-12-12T16:16:29.855Z</time>
      </trkpt>
      <trkpt lat="48.09496" lon="-2.99044">
        <ele>99.469428</ele>
        <time>2022-12-12T16:16:31.854Z</time>
      </trkpt>
      <trkpt lat="48.09487" lon="-2.9904">
        <ele>99.518699</ele>
        <time>2022-12-12T16:16:33.859Z</time>
      </trkpt>
      <trkpt lat="48.09478" lon="-2.99036">
        <ele>99.569615</ele>
        <time>2022-12-12T16:16:35.852Z</time>
      </trkpt>
      <trkpt lat="48.09469" lon="-2.99034">
        <ele>99.618694</ele>
        <time>2022-12-12T16:16:37.857Z</time>
      </trkpt>
      <trkpt lat="48.09459" lon="-2.99031">
        <ele>99.668511</ele>
        <time>2022-12-12T16:16:39.858Z</time>
      </trkpt>
      <trkpt lat="48.0945" lon="-2.99027">
        <ele>99.719857</ele>
        <time>2022-12-12T16:16:41.859Z</time>
      </trkpt>
      <trkpt lat="48.09441" lon="-2.99025">
        <ele>99.768104</ele>
        <time>2022-12-12T16:16:43.838Z</time>
      </trkpt>
      <trkpt lat="48.09432" lon="-2.99021">
        <ele>99.818595</ele>
        <time>2022-12-12T16:16:45.839Z</time>
      </trkpt>
      <trkpt lat="48.09419" lon="-2.99016">
        <ele>99.890518</ele>
        <time>2022-12-12T16:16:48.854Z</time>
      </trkpt>
      <trkpt lat="48.09408" lon="-2.99013">
        <ele>99.936207</ele>
        <time>2022-12-12T16:16:51.855Z</time>
      </trkpt>
      <trkpt lat="48.09397" lon="-2.9901">
        <ele>99.976086</ele>
        <time>2022-12-12T16:16:54.854Z</time>
      </trkpt>
      <trkpt lat="48.09386" lon="-2.99007">
        <ele>100.019144</ele>
        <time>2022-12-12T16:16:57.859Z</time>
      </trkpt>
      <trkpt lat="48.09375" lon="-2.99005">
        <ele>100.064343</ele>
        <time>2022-12-12T16:17:00.860Z</time>
      </trkpt>
      <trkpt lat="48.09366" lon="-2.99005">
        <ele>100.099112</ele>
        <time>2022-12-12T16:17:02.857Z</time>
      </trkpt>
      <trkpt lat="48.09353" lon="-2.99005">
        <ele>100.150498</ele>
        <time>2022-12-12T16:17:05.854Z</time>
      </trkpt>
      <trkpt lat="48.09339" lon="-2.99005">
        <ele>100.204577</ele>
        <time>2022-12-12T16:17:08.860Z</time>
      </trkpt>
      <trkpt lat="48.09326" lon="-2.99007">
        <ele>100.254215</ele>
        <time>2022-12-12T16:17:11.845Z</time>
      </trkpt>
      <trkpt lat="48.09313" lon="-2.99009">
        <ele>100.30503</ele>
        <time>2022-12-12T16:17:14.857Z</time>
      </trkpt>
      <trkpt lat="48.09304" lon="-2.99011">
        <ele>100.340256</ele>
        <time>2022-12-12T16:17:16.859Z</time>
      </trkpt>
      <trkpt lat="48.09291" lon="-2.99013">
        <ele>100.390438</ele>
        <time>2022-12-12T16:17:19.860Z</time>
      </trkpt>
      <trkpt lat="48.09277" lon="-2.99016">
        <ele>100.442895</ele>
        <time>2022-12-12T16:17:22.847Z</time>
      </trkpt>
      <trkpt lat="48.09264" lon="-2.99018">
        <ele>100.494479</ele>
        <time>2022-12-12T16:17:25.853Z</time>
      </trkpt>
      <trkpt lat="48.09251" lon="-2.99015">
        <ele>100.544104</ele>
        <time>2022-12-12T16:17:28.860Z</time>
      </trkpt>
      <trkpt lat="48.09241" lon="-2.9901">
        <ele>100.585919</ele>
        <time>2022-12-12T16:17:31.838Z</time>
      </trkpt>
      <trkpt lat="48.0923" lon="-2.99003">
        <ele>100.598164</ele>
        <time>2022-12-12T16:17:34.852Z</time>
      </trkpt>
      <trkpt lat="48.09219" lon="-2.98996">
        <ele>100.611009</ele>
        <time>2022-12-12T16:17:37.857Z</time>
      </trkpt>
      <trkpt lat="48.09208" lon="-2.98989">
        <ele>100.623238</ele>
        <time>2022-12-12T16:17:40.860Z</time>
      </trkpt>
      <trkpt lat="48.09197" lon="-2.98982">
        <ele>100.635293</ele>
        <time>2022-12-12T16:17:43.861Z</time>
      </trkpt>
      <trkpt lat="48.09186" lon="-2.98973">
        <ele>100.648025</ele>
        <time>2022-12-12T16:17:46.843Z</time>
      </trkpt>
      <trkpt lat="48.09178" lon="-2.98968">
        <ele>100.657521</ele>
        <time>2022-12-12T16:17:48.857Z</time>
      </trkpt>
      <trkpt lat="48.09166" lon="-2.98959">
        <ele>100.671508</ele>
        <time>2022-12-12T16:17:51.859Z</time>
      </trkpt>
      <trkpt lat="48.09158" lon="-2.98953">
        <ele>100.680879</ele>
        <time>2022-12-12T16:17:53.858Z</time>
      </trkpt>
      <trkpt lat="48.0915" lon="-2.98947">
        <ele>100.690656</ele>
        <time>2022-12-12T16:17:55.852Z</time>
      </trkpt>
      <trkpt lat="48.09138" lon="-2.98938">
        <ele>100.704453</ele>
        <time>2022-12-12T16:17:58.857Z</time>
      </trkpt>
      <trkpt lat="48.09129" lon="-2.98931">
        <ele>100.714591</ele>
        <time>2022-12-12T16:18:00.858Z</time>
      </trkpt>
      <trkpt lat="48.0912" lon="-2.98924">
        <ele>100.725242</ele>
        <time>2022-12-12T16:18:02.858Z</time>
      </trkpt>
      <trkpt lat="48.09112" lon="-2.98915">
        <ele>100.736075</ele>
        <time>2022-12-12T16:18:04.858Z</time>
      </trkpt>
      <trkpt lat="48.09103" lon="-2.98906">
        <ele>100.747189</ele>
        <time>2022-12-12T16:18:06.855Z</time>
      </trkpt>
      <trkpt lat="48.09095" lon="-2.98896">
        <ele>100.758386</ele>
        <time>2022-12-12T16:18:08.855Z</time>
      </trkpt>
      <trkpt lat="48.09086" lon="-2.98885">
        <ele>100.769707</ele>
        <time>2022-12-12T16:18:10.841Z</time>
      </trkpt>
      <trkpt lat="48.09078" lon="-2.98875">
        <ele>100.768485</ele>
        <time>2022-12-12T16:18:12.858Z</time>
      </trkpt>
      <trkpt lat="48.09072" lon="-2.98864">
        <ele>100.762599</ele>
        <time>2022-12-12T16:18:14.851Z</time>
      </trkpt>
      <trkpt lat="48.09064" lon="-2.98853">
        <ele>100.756409</ele>
        <time>2022-12-12T16:18:16.855Z</time>
      </trkpt>
      <trkpt lat="48.09057" lon="-2.98842">
        <ele>100.750412</ele>
        <time>2022-12-12T16:18:18.857Z</time>
      </trkpt>
      <trkpt lat="48.09049" lon="-2.98832">
        <ele>100.744459</ele>
        <time>2022-12-12T16:18:20.857Z</time>
      </trkpt>
      <trkpt lat="48.09042" lon="-2.98823">
        <ele>100.738692</ele>
        <time>2022-12-12T16:18:22.853Z</time>
      </trkpt>
      <trkpt lat="48.09034" lon="-2.98812">
        <ele>100.732634</ele>
        <time>2022-12-12T16:18:24.857Z</time>
      </trkpt>
      <trkpt lat="48.09026" lon="-2.98803">
        <ele>100.726626</ele>
        <time>2022-12-12T16:18:26.844Z</time>
      </trkpt>
      <trkpt lat="48.09018" lon="-2.98794">
        <ele>100.720736</ele>
        <time>2022-12-12T16:18:28.860Z</time>
      </trkpt>
      <trkpt lat="48.0901" lon="-2.98785">
        <ele>100.714719</ele>
        <time>2022-12-12T16:18:30.856Z</time>
      </trkpt>
      <trkpt lat="48.09002" lon="-2.98777">
        <ele>100.709078</ele>
        <time>2022-12-12T16:18:32.856Z</time>
      </trkpt>
      <trkpt lat="48.08991" lon="-2.98766">
        <ele>100.70134</ele>
        <time>2022-12-12T16:18:35.834Z</time>
      </trkpt>
      <trkpt lat="48.08981" lon="-2.98757">
        <ele>100.694242</ele>
        <time>2022-12-12T16:18:38.852Z</time>
      </trkpt>
      <trkpt lat="48.08973" lon="-2.98749">
        <ele>100.688659</ele>
        <time>2022-12-12T16:18:40.893Z</time>
      </trkpt>
      <trkpt lat="48.08963" lon="-2.98738">
        <ele>100.68109</ele>
        <time>2022-12-12T16:18:43.858Z</time>
      </trkpt>
      <trkpt lat="48.08955" lon="-2.9873">
        <ele>100.675382</ele>
        <time>2022-12-12T16:18:45.859Z</time>
      </trkpt>
      <trkpt lat="48.08944" lon="-2.98721">
        <ele>100.66792</ele>
        <time>2022-12-12T16:18:48.859Z</time>
      </trkpt>
      <trkpt lat="48.08935" lon="-2.98714">
        <ele>100.652644</ele>
        <time>2022-12-12T16:18:50.859Z</time>
      </trkpt>
      <trkpt lat="48.08927" lon="-2.98707">
        <ele>100.635877</ele>
        <time>2022-12-12T16:18:52.861Z</time>
      </trkpt>
      <trkpt lat="48.08916" lon="-2.98698">
        <ele>100.613905</ele>
        <time>2022-12-12T16:18:55.856Z</time>
      </trkpt>
      <trkpt lat="48.08907" lon="-2.98691">
        <ele>100.594932</ele>
        <time>2022-12-12T16:18:58.858Z</time>
      </trkpt>
      <trkpt lat="48.08897" lon="-2.9868">
        <ele>100.573074</ele>
        <time>2022-12-12T16:19:02.856Z</time>
      </trkpt>
      <trkpt lat="48.08887" lon="-2.98671">
        <ele>100.553073</ele>
        <time>2022-12-12T16:19:05.854Z</time>
      </trkpt>
      <trkpt lat="48.08878" lon="-2.98663">
        <ele>100.532636</ele>
        <time>2022-12-12T16:19:08.863Z</time>
      </trkpt>
      <trkpt lat="48.08869" lon="-2.98655">
        <ele>100.515036</ele>
        <time>2022-12-12T16:19:10.859Z</time>
      </trkpt>
      <trkpt lat="48.08861" lon="-2.98647">
        <ele>100.496852</ele>
        <time>2022-12-12T16:19:12.858Z</time>
      </trkpt>
      <trkpt lat="48.08853" lon="-2.98641">
        <ele>100.480458</ele>
        <time>2022-12-12T16:19:14.854Z</time>
      </trkpt>
      <trkpt lat="48.08844" lon="-2.98635">
        <ele>100.464174</ele>
        <time>2022-12-12T16:19:16.852Z</time>
      </trkpt>
      <trkpt lat="48.08836" lon="-2.98627">
        <ele>100.44651</ele>
        <time>2022-12-12T16:19:18.857Z</time>
      </trkpt>
      <trkpt lat="48.08828" lon="-2.9862">
        <ele>100.430105</ele>
        <time>2022-12-12T16:19:20.857Z</time>
      </trkpt>
      <trkpt lat="48.08819" lon="-2.98613">
        <ele>100.411428</ele>
        <time>2022-12-12T16:19:22.857Z</time>
      </trkpt>
      <trkpt lat="48.0881" lon="-2.98607">
        <ele>100.394062</ele>
        <time>2022-12-12T16:19:24.840Z</time>
      </trkpt>
      <trkpt lat="48.08801" lon="-2.986">
        <ele>100.375847</ele>
        <time>2022-12-12T16:19:26.858Z</time>
      </trkpt>
      <trkpt lat="48.08793" lon="-2.98594">
        <ele>100.35907</ele>
        <time>2022-12-12T16:19:28.863Z</time>
      </trkpt>
      <trkpt lat="48.08781" lon="-2.98588">
        <ele>100.321387</ele>
        <time>2022-12-12T16:19:31.838Z</time>
      </trkpt>
      <trkpt lat="48.08769" lon="-2.9858">
        <ele>100.239746</ele>
        <time>2022-12-12T16:19:34.853Z</time>
      </trkpt>
      <trkpt lat="48.08756" lon="-2.98574">
        <ele>100.1594</ele>
        <time>2022-12-12T16:19:37.854Z</time>
      </trkpt>
      <trkpt lat="48.08747" lon="-2.98569">
        <ele>100.10222</ele>
        <time>2022-12-12T16:19:39.861Z</time>
      </trkpt>
      <trkpt lat="48.08737" lon="-2.98564">
        <ele>100.041182</ele>
        <time>2022-12-12T16:19:41.855Z</time>
      </trkpt>
      <trkpt lat="48.08728" lon="-2.98559">
        <ele>99.980364</ele>
        <time>2022-12-12T16:19:43.837Z</time>
      </trkpt>
      <trkpt lat="48.08719" lon="-2.98553">
        <ele>99.92245</ele>
        <time>2022-12-12T16:19:45.860Z</time>
      </trkpt>
      <trkpt lat="48.08707" lon="-2.98546">
        <ele>99.847425</ele>
        <time>2022-12-12T16:19:48.856Z</time>
      </trkpt>
      <trkpt lat="48.08698" lon="-2.98538">
        <ele>99.782092</ele>
        <time>2022-12-12T16:19:51.857Z</time>
      </trkpt>
      <trkpt lat="48.08688" lon="-2.98529">
        <ele>99.716006</ele>
        <time>2022-12-12T16:19:54.853Z</time>
      </trkpt>
      <trkpt lat="48.08679" lon="-2.9852">
        <ele>99.646185</ele>
        <time>2022-12-12T16:19:57.852Z</time>
      </trkpt>
      <trkpt lat="48.08669" lon="-2.98512">
        <ele>99.576875</ele>
        <time>2022-12-12T16:20:00.859Z</time>
      </trkpt>
      <trkpt lat="48.08658" lon="-2.98503">
        <ele>99.504688</ele>
        <time>2022-12-12T16:20:03.832Z</time>
      </trkpt>
      <trkpt lat="48.08646" lon="-2.98495">
        <ele>99.426981</ele>
        <time>2022-12-12T16:20:06.856Z</time>
      </trkpt>
      <trkpt lat="48.08634" lon="-2.98486">
        <ele>99.346425</ele>
        <time>2022-12-12T16:20:09.854Z</time>
      </trkpt>
      <trkpt lat="48.08626" lon="-2.9848">
        <ele>99.2922</ele>
        <time>2022-12-12T16:20:11.859Z</time>
      </trkpt>
      <trkpt lat="48.08617" lon="-2.98475">
        <ele>99.246416</ele>
        <time>2022-12-12T16:20:13.863Z</time>
      </trkpt>
      <trkpt lat="48.08608" lon="-2.9847">
        <ele>99.213905</ele>
        <time>2022-12-12T16:20:15.859Z</time>
      </trkpt>
      <trkpt lat="48.08599" lon="-2.98465">
        <ele>99.179114</ele>
        <time>2022-12-12T16:20:17.858Z</time>
      </trkpt>
      <trkpt lat="48.08587" lon="-2.98458">
        <ele>99.133975</ele>
        <time>2022-12-12T16:20:20.859Z</time>
      </trkpt>
      <trkpt lat="48.08578" lon="-2.98453">
        <ele>99.100729</ele>
        <time>2022-12-12T16:20:22.859Z</time>
      </trkpt>
      <trkpt lat="48.08569" lon="-2.98448">
        <ele>99.06901</ele>
        <time>2022-12-12T16:20:24.860Z</time>
      </trkpt>
      <trkpt lat="48.0856" lon="-2.98444">
        <ele>99.036538</ele>
        <time>2022-12-12T16:20:26.859Z</time>
      </trkpt>
      <trkpt lat="48.08552" lon="-2.98439">
        <ele>99.004354</ele>
        <time>2022-12-12T16:20:28.860Z</time>
      </trkpt>
      <trkpt lat="48.0854" lon="-2.98432">
        <ele>98.959864</ele>
        <time>2022-12-12T16:20:31.836Z</time>
      </trkpt>
      <trkpt lat="48.08528" lon="-2.98426">
        <ele>98.917331</ele>
        <time>2022-12-12T16:20:34.859Z</time>
      </trkpt>
      <trkpt lat="48.08517" lon="-2.98419">
        <ele>98.876241</ele>
        <time>2022-12-12T16:20:37.857Z</time>
      </trkpt>
      <trkpt lat="48.08506" lon="-2.98413">
        <ele>98.833535</ele>
        <time>2022-12-12T16:20:40.860Z</time>
      </trkpt>
      <trkpt lat="48.08494" lon="-2.98407">
        <ele>98.790596</ele>
        <time>2022-12-12T16:20:43.863Z</time>
      </trkpt>
      <trkpt lat="48.08482" lon="-2.984">
        <ele>98.74643</ele>
        <time>2022-12-12T16:20:46.839Z</time>
      </trkpt>
      <trkpt lat="48.08469" lon="-2.98394">
        <ele>98.699882</ele>
        <time>2022-12-12T16:20:49.838Z</time>
      </trkpt>
      <trkpt lat="48.08457" lon="-2.98389">
        <ele>98.654677</ele>
        <time>2022-12-12T16:20:52.854Z</time>
      </trkpt>
      <trkpt lat="48.08445" lon="-2.98383">
        <ele>98.237877</ele>
        <time>2022-12-12T16:20:55.843Z</time>
      </trkpt>
      <trkpt lat="48.08433" lon="-2.98379">
        <ele>97.657927</ele>
        <time>2022-12-12T16:20:58.859Z</time>
      </trkpt>
      <trkpt lat="48.0842" lon="-2.98375">
        <ele>97.029617</ele>
        <time>2022-12-12T16:21:01.847Z</time>
      </trkpt>
      <trkpt lat="48.08407" lon="-2.98374">
        <ele>96.440523</ele>
        <time>2022-12-12T16:21:04.839Z</time>
      </trkpt>
      <trkpt lat="48.08395" lon="-2.9837">
        <ele>95.834046</ele>
        <time>2022-12-12T16:21:07.836Z</time>
      </trkpt>
      <trkpt lat="48.08384" lon="-2.98369">
        <ele>95.308827</ele>
        <time>2022-12-12T16:21:10.840Z</time>
      </trkpt>
      <trkpt lat="48.08374" lon="-2.98368">
        <ele>94.829835</ele>
        <time>2022-12-12T16:21:13.856Z</time>
      </trkpt>
      <trkpt lat="48.08363" lon="-2.98367">
        <ele>94.319055</ele>
        <time>2022-12-12T16:21:16.858Z</time>
      </trkpt>
      <trkpt lat="48.08353" lon="-2.98367">
        <ele>93.813279</ele>
        <time>2022-12-12T16:21:19.836Z</time>
      </trkpt>
      <trkpt lat="48.08341" lon="-2.98365">
        <ele>93.275353</ele>
        <time>2022-12-12T16:21:22.837Z</time>
      </trkpt>
      <trkpt lat="48.0833" lon="-2.98363">
        <ele>92.73961</ele>
        <time>2022-12-12T16:21:25.836Z</time>
      </trkpt>
      <trkpt lat="48.0832" lon="-2.98364">
        <ele>92.266599</ele>
        <time>2022-12-12T16:21:28.861Z</time>
      </trkpt>
      <trkpt lat="48.08307" lon="-2.98365">
        <ele>91.641328</ele>
        <time>2022-12-12T16:21:31.835Z</time>
      </trkpt>
      <trkpt lat="48.08296" lon="-2.98365">
        <ele>91.088029</ele>
        <time>2022-12-12T16:21:34.859Z</time>
      </trkpt>
      <trkpt lat="48.08284" lon="-2.98365">
        <ele>90.53925</ele>
        <time>2022-12-12T16:21:37.857Z</time>
      </trkpt>
      <trkpt lat="48.08271" lon="-2.98366">
        <ele>90.138206</ele>
        <time>2022-12-12T16:21:40.857Z</time>
      </trkpt>
      <trkpt lat="48.08261" lon="-2.98367">
        <ele>90.341501</ele>
        <time>2022-12-12T16:21:42.859Z</time>
      </trkpt>
      <trkpt lat="48.08249" lon="-2.98368">
        <ele>90.607666</ele>
        <time>2022-12-12T16:21:45.858Z</time>
      </trkpt>
      <trkpt lat="48.08237" lon="-2.98369">
        <ele>90.854775</ele>
        <time>2022-12-12T16:21:48.859Z</time>
      </trkpt>
      <trkpt lat="48.08225" lon="-2.9837">
        <ele>91.132166</ele>
        <time>2022-12-12T16:21:51.858Z</time>
      </trkpt>
      <trkpt lat="48.08213" lon="-2.98371">
        <ele>91.391565</ele>
        <time>2022-12-12T16:21:54.855Z</time>
      </trkpt>
      <trkpt lat="48.08204" lon="-2.98371">
        <ele>91.588248</ele>
        <time>2022-12-12T16:21:56.860Z</time>
      </trkpt>
      <trkpt lat="48.08192" lon="-2.98371">
        <ele>91.845778</ele>
        <time>2022-12-12T16:21:59.859Z</time>
      </trkpt>
      <trkpt lat="48.08179" lon="-2.98374">
        <ele>92.12194</ele>
        <time>2022-12-12T16:22:02.853Z</time>
      </trkpt>
      <trkpt lat="48.08167" lon="-2.98375">
        <ele>92.384614</ele>
        <time>2022-12-12T16:22:05.856Z</time>
      </trkpt>
      <trkpt lat="48.08154" lon="-2.98379">
        <ele>92.673865</ele>
        <time>2022-12-12T16:22:08.862Z</time>
      </trkpt>
      <trkpt lat="48.08144" lon="-2.98381">
        <ele>92.874796</ele>
        <time>2022-12-12T16:22:10.842Z</time>
      </trkpt>
      <trkpt lat="48.08132" lon="-2.98384">
        <ele>93.149921</ele>
        <time>2022-12-12T16:22:13.840Z</time>
      </trkpt>
      <trkpt lat="48.08122" lon="-2.98387">
        <ele>93.379698</ele>
        <time>2022-12-12T16:22:15.856Z</time>
      </trkpt>
      <trkpt lat="48.08109" lon="-2.9839">
        <ele>93.651901</ele>
        <time>2022-12-12T16:22:18.861Z</time>
      </trkpt>
      <trkpt lat="48.08098" lon="-2.98393">
        <ele>93.901308</ele>
        <time>2022-12-12T16:22:21.858Z</time>
      </trkpt>
      <trkpt lat="48.08086" lon="-2.98394">
        <ele>94.064997</ele>
        <time>2022-12-12T16:22:24.860Z</time>
      </trkpt>
      <trkpt lat="48.08076" lon="-2.98395">
        <ele>94.185057</ele>
        <time>2022-12-12T16:22:26.857Z</time>
      </trkpt>
      <trkpt lat="48.08064" lon="-2.98396">
        <ele>94.340347</ele>
        <time>2022-12-12T16:22:29.859Z</time>
      </trkpt>
      <trkpt lat="48.08051" lon="-2.98398">
        <ele>94.489067</ele>
        <time>2022-12-12T16:22:32.856Z</time>
      </trkpt>
      <trkpt lat="48.08042" lon="-2.98399">
        <ele>94.600539</ele>
        <time>2022-12-12T16:22:34.859Z</time>
      </trkpt>
      <trkpt lat="48.0803" lon="-2.98401">
        <ele>94.749448</ele>
        <time>2022-12-12T16:22:37.861Z</time>
      </trkpt>
      <trkpt lat="48.08019" lon="-2.98403">
        <ele>94.892776</ele>
        <time>2022-12-12T16:22:40.860Z</time>
      </trkpt>
      <trkpt lat="48.08009" lon="-2.98403">
        <ele>95.007686</ele>
        <time>2022-12-12T16:22:42.859Z</time>
      </trkpt>
      <trkpt lat="48.07995" lon="-2.98405">
        <ele>95.179577</ele>
        <time>2022-12-12T16:22:45.860Z</time>
      </trkpt>
      <trkpt lat="48.07981" lon="-2.98409">
        <ele>95.350436</ele>
        <time>2022-12-12T16:22:48.859Z</time>
      </trkpt>
      <trkpt lat="48.07969" lon="-2.98412">
        <ele>95.504593</ele>
        <time>2022-12-12T16:22:51.856Z</time>
      </trkpt>
      <trkpt lat="48.07958" lon="-2.98416">
        <ele>95.639732</ele>
        <time>2022-12-12T16:22:54.861Z</time>
      </trkpt>
      <trkpt lat="48.07947" lon="-2.98421">
        <ele>95.78711</ele>
        <time>2022-12-12T16:22:57.858Z</time>
      </trkpt>
      <trkpt lat="48.07937" lon="-2.98424">
        <ele>95.904361</ele>
        <time>2022-12-12T16:22:59.859Z</time>
      </trkpt>
      <trkpt lat="48.07928" lon="-2.98427">
        <ele>96.01603</ele>
        <time>2022-12-12T16:23:01.839Z</time>
      </trkpt>
      <trkpt lat="48.07919" lon="-2.98431">
        <ele>96.131231</ele>
        <time>2022-12-12T16:23:03.855Z</time>
      </trkpt>
      <trkpt lat="48.0791" lon="-2.98436">
        <ele>96.04192</ele>
        <time>2022-12-12T16:23:05.830Z</time>
      </trkpt>
      <trkpt lat="48.07899" lon="-2.98442">
        <ele>95.888963</ele>
        <time>2022-12-12T16:23:08.864Z</time>
      </trkpt>
      <trkpt lat="48.07886" lon="-2.98447">
        <ele>95.725419</ele>
        <time>2022-12-12T16:23:11.863Z</time>
      </trkpt>
      <trkpt lat="48.07874" lon="-2.98452">
        <ele>95.567427</ele>
        <time>2022-12-12T16:23:14.856Z</time>
      </trkpt>
      <trkpt lat="48.07862" lon="-2.98457">
        <ele>95.415059</ele>
        <time>2022-12-12T16:23:17.858Z</time>
      </trkpt>
      <trkpt lat="48.07853" lon="-2.98462">
        <ele>95.292007</ele>
        <time>2022-12-12T16:23:19.858Z</time>
      </trkpt>
      <trkpt lat="48.07841" lon="-2.98468">
        <ele>95.129449</ele>
        <time>2022-12-12T16:23:22.839Z</time>
      </trkpt>
      <trkpt lat="48.07829" lon="-2.98474">
        <ele>94.971507</ele>
        <time>2022-12-12T16:23:25.841Z</time>
      </trkpt>
      <trkpt lat="48.0782" lon="-2.9848">
        <ele>94.853191</ele>
        <time>2022-12-12T16:23:27.858Z</time>
      </trkpt>
      <trkpt lat="48.07808" lon="-2.98488">
        <ele>94.685528</ele>
        <time>2022-12-12T16:23:30.854Z</time>
      </trkpt>
      <trkpt lat="48.07796" lon="-2.98494">
        <ele>94.524842</ele>
        <time>2022-12-12T16:23:33.855Z</time>
      </trkpt>
      <trkpt lat="48.07785" lon="-2.985">
        <ele>94.376884</ele>
        <time>2022-12-12T16:23:36.861Z</time>
      </trkpt>
      <trkpt lat="48.07775" lon="-2.98502">
        <ele>94.254125</ele>
        <time>2022-12-12T16:23:39.855Z</time>
      </trkpt>
      <trkpt lat="48.07764" lon="-2.98505">
        <ele>94.11738</ele>
        <time>2022-12-12T16:23:43.848Z</time>
      </trkpt>
      <trkpt lat="48.07754" lon="-2.98506">
        <ele>93.988961</ele>
        <time>2022-12-12T16:23:46.856Z</time>
      </trkpt>
      <trkpt lat="48.07743" lon="-2.98507">
        <ele>93.897558</ele>
        <time>2022-12-12T16:23:50.859Z</time>
      </trkpt>
      <trkpt lat="48.07732" lon="-2.98507">
        <ele>93.905795</ele>
        <time>2022-12-12T16:23:53.855Z</time>
      </trkpt>
      <trkpt lat="48.0772" lon="-2.98506">
        <ele>93.914478</ele>
        <time>2022-12-12T16:23:56.862Z</time>
      </trkpt>
      <trkpt lat="48.07708" lon="-2.98501">
        <ele>93.923878</ele>
        <time>2022-12-12T16:23:59.856Z</time>
      </trkpt>
      <trkpt lat="48.07696" lon="-2.98493">
        <ele>93.932715</ele>
        <time>2022-12-12T16:24:02.861Z</time>
      </trkpt>
      <trkpt lat="48.07686" lon="-2.98486">
        <ele>93.941394</ele>
        <time>2022-12-12T16:24:05.861Z</time>
      </trkpt>
      <trkpt lat="48.07677" lon="-2.98477">
        <ele>93.949151</ele>
        <time>2022-12-12T16:24:08.861Z</time>
      </trkpt>
      <trkpt lat="48.07668" lon="-2.98466">
        <ele>93.957508</ele>
        <time>2022-12-12T16:24:11.846Z</time>
      </trkpt>
      <trkpt lat="48.07659" lon="-2.98454">
        <ele>93.965992</ele>
        <time>2022-12-12T16:24:14.858Z</time>
      </trkpt>
      <trkpt lat="48.0765" lon="-2.98443">
        <ele>93.974792</ele>
        <time>2022-12-12T16:24:17.858Z</time>
      </trkpt>
      <trkpt lat="48.07642" lon="-2.98433">
        <ele>93.98279</ele>
        <time>2022-12-12T16:24:20.863Z</time>
      </trkpt>
      <trkpt lat="48.07634" lon="-2.98421">
        <ele>93.990789</ele>
        <time>2022-12-12T16:24:23.864Z</time>
      </trkpt>
      <trkpt lat="48.07627" lon="-2.98409">
        <ele>93.998511</ele>
        <time>2022-12-12T16:24:26.859Z</time>
      </trkpt>
      <trkpt lat="48.07619" lon="-2.98398">
        <ele>94.006222</ele>
        <time>2022-12-12T16:24:29.855Z</time>
      </trkpt>
      <trkpt lat="48.07613" lon="-2.98387">
        <ele>94.013239</ele>
        <time>2022-12-12T16:24:32.860Z</time>
      </trkpt>
      <trkpt lat="48.07605" lon="-2.98373">
        <ele>94.022313</ele>
        <time>2022-12-12T16:24:35.861Z</time>
      </trkpt>
      <trkpt lat="48.07599" lon="-2.98361">
        <ele>94.15395</ele>
        <time>2022-12-12T16:24:37.840Z</time>
      </trkpt>
      <trkpt lat="48.07592" lon="-2.98345">
        <ele>94.525287</ele>
        <time>2022-12-12T16:24:40.859Z</time>
      </trkpt>
      <trkpt lat="48.07587" lon="-2.98334">
        <ele>94.790212</ele>
        <time>2022-12-12T16:24:42.861Z</time>
      </trkpt>
      <trkpt lat="48.07582" lon="-2.9832">
        <ele>95.085107</ele>
        <time>2022-12-12T16:24:44.859Z</time>
      </trkpt>
      <trkpt lat="48.07577" lon="-2.98307">
        <ele>95.375525</ele>
        <time>2022-12-12T16:24:46.860Z</time>
      </trkpt>
      <trkpt lat="48.07573" lon="-2.98295">
        <ele>95.643344</ele>
        <time>2022-12-12T16:24:48.855Z</time>
      </trkpt>
      <trkpt lat="48.07568" lon="-2.98282">
        <ele>95.938914</ele>
        <time>2022-12-12T16:24:50.857Z</time>
      </trkpt>
      <trkpt lat="48.07563" lon="-2.98264">
        <ele>96.321706</ele>
        <time>2022-12-12T16:24:53.861Z</time>
      </trkpt>
      <trkpt lat="48.07558" lon="-2.98248">
        <ele>96.650437</ele>
        <time>2022-12-12T16:24:56.861Z</time>
      </trkpt>
      <trkpt lat="48.07554" lon="-2.98234">
        <ele>96.957347</ele>
        <time>2022-12-12T16:24:59.856Z</time>
      </trkpt>
      <trkpt lat="48.07549" lon="-2.98219">
        <ele>97.280789</ele>
        <time>2022-12-12T16:25:02.865Z</time>
      </trkpt>
      <trkpt lat="48.07546" lon="-2.98206">
        <ele>97.549694</ele>
        <time>2022-12-12T16:25:05.859Z</time>
      </trkpt>
      <trkpt lat="48.07542" lon="-2.98187">
        <ele>97.936431</ele>
        <time>2022-12-12T16:25:08.863Z</time>
      </trkpt>
      <trkpt lat="48.0754" lon="-2.98172">
        <ele>98.238592</ele>
        <time>2022-12-12T16:25:11.859Z</time>
      </trkpt>
      <trkpt lat="48.07541" lon="-2.98156">
        <ele>98.541911</ele>
        <time>2022-12-12T16:25:14.854Z</time>
      </trkpt>
      <trkpt lat="48.07541" lon="-2.98137">
        <ele>98.910871</ele>
        <time>2022-12-12T16:25:17.860Z</time>
      </trkpt>
      <trkpt lat="48.07543" lon="-2.98119">
        <ele>99.250992</ele>
        <time>2022-12-12T16:25:20.861Z</time>
      </trkpt>
      <trkpt lat="48.07541" lon="-2.98104">
        <ele>99.199737</ele>
        <time>2022-12-12T16:25:22.860Z</time>
      </trkpt>
      <trkpt lat="48.07542" lon="-2.98087">
        <ele>99.137311</ele>
        <time>2022-12-12T16:25:25.854Z</time>
      </trkpt>
      <trkpt lat="48.07542" lon="-2.98068">
        <ele>99.071438</ele>
        <time>2022-12-12T16:25:28.869Z</time>
      </trkpt>
      <trkpt lat="48.07543" lon="-2.9805">
        <ele>99.009101</ele>
        <time>2022-12-12T16:25:31.858Z</time>
      </trkpt>
      <trkpt lat="48.07546" lon="-2.9803">
        <ele>98.940622</ele>
        <time>2022-12-12T16:25:34.853Z</time>
      </trkpt>
      <trkpt lat="48.07546" lon="-2.98016">
        <ele>98.890621</ele>
        <time>2022-12-12T16:25:36.856Z</time>
      </trkpt>
      <trkpt lat="48.07547" lon="-2.98">
        <ele>98.832545</ele>
        <time>2022-12-12T16:25:39.857Z</time>
      </trkpt>
      <trkpt lat="48.07549" lon="-2.97985">
        <ele>98.78022</ele>
        <time>2022-12-12T16:25:42.856Z</time>
      </trkpt>
      <trkpt lat="48.0755" lon="-2.97968">
        <ele>98.72192</ele>
        <time>2022-12-12T16:25:45.848Z</time>
      </trkpt>
      <trkpt lat="48.07553" lon="-2.97952">
        <ele>98.662511</ele>
        <time>2022-12-12T16:25:48.861Z</time>
      </trkpt>
      <trkpt lat="48.07555" lon="-2.97934">
        <ele>98.599779</ele>
        <time>2022-12-12T16:25:51.858Z</time>
      </trkpt>
      <trkpt lat="48.07557" lon="-2.97915">
        <ele>98.531805</ele>
        <time>2022-12-12T16:25:54.859Z</time>
      </trkpt>
      <trkpt lat="48.07558" lon="-2.97895">
        <ele>98.463761</ele>
        <time>2022-12-12T16:25:57.859Z</time>
      </trkpt>
      <trkpt lat="48.07562" lon="-2.97879">
        <ele>98.403608</ele>
        <time>2022-12-12T16:26:00.859Z</time>
      </trkpt>
      <trkpt lat="48.07565" lon="-2.97862">
        <ele>98.343444</ele>
        <time>2022-12-12T16:26:03.861Z</time>
      </trkpt>
      <trkpt lat="48.07568" lon="-2.97845">
        <ele>98.376067</ele>
        <time>2022-12-12T16:26:06.858Z</time>
      </trkpt>
      <trkpt lat="48.07569" lon="-2.97831">
        <ele>98.46142</ele>
        <time>2022-12-12T16:26:08.845Z</time>
      </trkpt>
      <trkpt lat="48.07571" lon="-2.97816">
        <ele>98.555053</ele>
        <time>2022-12-12T16:26:10.965Z</time>
      </trkpt>
      <trkpt lat="48.07572" lon="-2.97801">
        <ele>98.643983</ele>
        <time>2022-12-12T16:26:12.844Z</time>
      </trkpt>
      <trkpt lat="48.07573" lon="-2.97787">
        <ele>98.729886</ele>
        <time>2022-12-12T16:26:14.839Z</time>
      </trkpt>
      <trkpt lat="48.07575" lon="-2.97768">
        <ele>98.846042</ele>
        <time>2022-12-12T16:26:17.841Z</time>
      </trkpt>
      <trkpt lat="48.07577" lon="-2.97754">
        <ele>98.937052</ele>
        <time>2022-12-12T16:26:20.858Z</time>
      </trkpt>
      <trkpt lat="48.07578" lon="-2.97736">
        <ele>99.045468</ele>
        <time>2022-12-12T16:26:23.859Z</time>
      </trkpt>
      <trkpt lat="48.07581" lon="-2.97716">
        <ele>99.167803</ele>
        <time>2022-12-12T16:26:26.854Z</time>
      </trkpt>
      <trkpt lat="48.07584" lon="-2.97697">
        <ele>99.287758</ele>
        <time>2022-12-12T16:26:29.839Z</time>
      </trkpt>
      <trkpt lat="48.07585" lon="-2.97683">
        <ele>99.3774</ele>
        <time>2022-12-12T16:26:31.858Z</time>
      </trkpt>
      <trkpt lat="48.07588" lon="-2.97669">
        <ele>99.460423</ele>
        <time>2022-12-12T16:26:33.858Z</time>
      </trkpt>
      <trkpt lat="48.07592" lon="-2.9765">
        <ele>99.582401</ele>
        <time>2022-12-12T16:26:36.859Z</time>
      </trkpt>
      <trkpt lat="48.07595" lon="-2.97636">
        <ele>99.6717</ele>
        <time>2022-12-12T16:26:38.859Z</time>
      </trkpt>
      <trkpt lat="48.07598" lon="-2.97623">
        <ele>99.755516</ele>
        <time>2022-12-12T16:26:40.859Z</time>
      </trkpt>
      <trkpt lat="48.07601" lon="-2.9761">
        <ele>99.841074</ele>
        <time>2022-12-12T16:26:42.859Z</time>
      </trkpt>
      <trkpt lat="48.07604" lon="-2.97597">
        <ele>99.924449</ele>
        <time>2022-12-12T16:26:44.859Z</time>
      </trkpt>
      <trkpt lat="48.0761" lon="-2.97579">
        <ele>99.864053</ele>
        <time>2022-12-12T16:26:47.855Z</time>
      </trkpt>
      <trkpt lat="48.07616" lon="-2.97563">
        <ele>99.747485</ele>
        <time>2022-12-12T16:26:50.859Z</time>
      </trkpt>
      <trkpt lat="48.07622" lon="-2.97548">
        <ele>99.641817</ele>
        <time>2022-12-12T16:26:53.855Z</time>
      </trkpt>
      <trkpt lat="48.07627" lon="-2.97534">
        <ele>99.545366</ele>
        <time>2022-12-12T16:26:56.863Z</time>
      </trkpt>
      <trkpt lat="48.07633" lon="-2.9752">
        <ele>99.442051</ele>
        <time>2022-12-12T16:26:59.859Z</time>
      </trkpt>
      <trkpt lat="48.0764" lon="-2.97505">
        <ele>99.334852</ele>
        <time>2022-12-12T16:27:02.860Z</time>
      </trkpt>
      <trkpt lat="48.07645" lon="-2.97488">
        <ele>99.221645</ele>
        <time>2022-12-12T16:27:05.859Z</time>
      </trkpt>
      <trkpt lat="48.0765" lon="-2.97472">
        <ele>99.111837</ele>
        <time>2022-12-12T16:27:08.862Z</time>
      </trkpt>
      <trkpt lat="48.07654" lon="-2.97455">
        <ele>99.005173</ele>
        <time>2022-12-12T16:27:11.845Z</time>
      </trkpt>
      <trkpt lat="48.07657" lon="-2.97439">
        <ele>98.902463</ele>
        <time>2022-12-12T16:27:14.857Z</time>
      </trkpt>
      <trkpt lat="48.07658" lon="-2.97421">
        <ele>98.78958</ele>
        <time>2022-12-12T16:27:17.856Z</time>
      </trkpt>
      <trkpt lat="48.07659" lon="-2.97402">
        <ele>98.672216</ele>
        <time>2022-12-12T16:27:20.859Z</time>
      </trkpt>
      <trkpt lat="48.0766" lon="-2.97385">
        <ele>98.570991</ele>
        <time>2022-12-12T16:27:23.858Z</time>
      </trkpt>
      <trkpt lat="48.0766" lon="-2.97368">
        <ele>98.468348</ele>
        <time>2022-12-12T16:27:26.858Z</time>
      </trkpt>
      <trkpt lat="48.07659" lon="-2.97353">
        <ele>98.375408</ele>
        <time>2022-12-12T16:27:29.862Z</time>
      </trkpt>
      <trkpt lat="48.07659" lon="-2.97337">
        <ele>98.308711</ele>
        <time>2022-12-12T16:27:33.864Z</time>
      </trkpt>
      <trkpt lat="48.07658" lon="-2.97323">
        <ele>98.30342</ele>
        <time>2022-12-12T16:27:36.839Z</time>
      </trkpt>
      <trkpt lat="48.07658" lon="-2.97308">
        <ele>98.297639</ele>
        <time>2022-12-12T16:27:39.859Z</time>
      </trkpt>
      <trkpt lat="48.07657" lon="-2.97291">
        <ele>98.291318</ele>
        <time>2022-12-12T16:27:42.858Z</time>
      </trkpt>
      <trkpt lat="48.07655" lon="-2.97274">
        <ele>98.28476</ele>
        <time>2022-12-12T16:27:45.861Z</time>
      </trkpt>
      <trkpt lat="48.07651" lon="-2.97256">
        <ele>98.277562</ele>
        <time>2022-12-12T16:27:48.864Z</time>
      </trkpt>
      <trkpt lat="48.07649" lon="-2.9724">
        <ele>98.27133</ele>
        <time>2022-12-12T16:27:51.846Z</time>
      </trkpt>
      <trkpt lat="48.07645" lon="-2.97222">
        <ele>98.26436</ele>
        <time>2022-12-12T16:27:54.839Z</time>
      </trkpt>
      <trkpt lat="48.07641" lon="-2.97204">
        <ele>98.25705</ele>
        <time>2022-12-12T16:27:57.858Z</time>
      </trkpt>
      <trkpt lat="48.07637" lon="-2.97185">
        <ele>98.249704</ele>
        <time>2022-12-12T16:28:00.860Z</time>
      </trkpt>
      <trkpt lat="48.07632" lon="-2.97167">
        <ele>98.242065</ele>
        <time>2022-12-12T16:28:03.857Z</time>
      </trkpt>
      <trkpt lat="48.07628" lon="-2.97154">
        <ele>98.23691</ele>
        <time>2022-12-12T16:28:05.834Z</time>
      </trkpt>
      <trkpt lat="48.07624" lon="-2.97141">
        <ele>98.231629</ele>
        <time>2022-12-12T16:28:07.861Z</time>
      </trkpt>
      <trkpt lat="48.07619" lon="-2.97126">
        <ele>98.225136</ele>
        <time>2022-12-12T16:28:10.855Z</time>
      </trkpt>
      <trkpt lat="48.07615" lon="-2.97109">
        <ele>98.218471</ele>
        <time>2022-12-12T16:28:14.849Z</time>
      </trkpt>
      <trkpt lat="48.0761" lon="-2.97096">
        <ele>98.212607</ele>
        <time>2022-12-12T16:28:17.846Z</time>
      </trkpt>
      <trkpt lat="48.07605" lon="-2.97082">
        <ele>98.255332</ele>
        <time>2022-12-12T16:28:20.862Z</time>
      </trkpt>
      <trkpt lat="48.07599" lon="-2.97065">
        <ele>98.38224</ele>
        <time>2022-12-12T16:28:23.852Z</time>
      </trkpt>
      <trkpt lat="48.07593" lon="-2.97051">
        <ele>98.4958</ele>
        <time>2022-12-12T16:28:26.860Z</time>
      </trkpt>
      <trkpt lat="48.07587" lon="-2.97035">
        <ele>98.618615</ele>
        <time>2022-12-12T16:28:29.841Z</time>
      </trkpt>
      <trkpt lat="48.0758" lon="-2.97019">
        <ele>98.738395</ele>
        <time>2022-12-12T16:28:32.859Z</time>
      </trkpt>
      <trkpt lat="48.07575" lon="-2.97006">
        <ele>98.841982</ele>
        <time>2022-12-12T16:28:35.860Z</time>
      </trkpt>
      <trkpt lat="48.0757" lon="-2.96993">
        <ele>98.940707</ele>
        <time>2022-12-12T16:28:38.859Z</time>
      </trkpt>
      <trkpt lat="48.07564" lon="-2.96983">
        <ele>99.031256</ele>
        <time>2022-12-12T16:28:41.842Z</time>
      </trkpt>
      <trkpt lat="48.07557" lon="-2.96973">
        <ele>99.127525</ele>
        <time>2022-12-12T16:28:44.857Z</time>
      </trkpt>
      <trkpt lat="48.07549" lon="-2.96964">
        <ele>99.228218</ele>
        <time>2022-12-12T16:28:47.859Z</time>
      </trkpt>
      <trkpt lat="48.0754" lon="-2.96953">
        <ele>99.348366</ele>
        <time>2022-12-12T16:28:50.863Z</time>
      </trkpt>
      <trkpt lat="48.0753" lon="-2.96943">
        <ele>99.464989</ele>
        <time>2022-12-12T16:28:53.862Z</time>
      </trkpt>
      <trkpt lat="48.07519" lon="-2.96934">
        <ele>99.588699</ele>
        <time>2022-12-12T16:28:56.862Z</time>
      </trkpt>
      <trkpt lat="48.07508" lon="-2.96924">
        <ele>99.713946</ele>
        <time>2022-12-12T16:28:59.858Z</time>
      </trkpt>
      <trkpt lat="48.07498" lon="-2.96915">
        <ele>99.833545</ele>
        <time>2022-12-12T16:29:02.859Z</time>
      </trkpt>
      <trkpt lat="48.07488" lon="-2.96906">
        <ele>99.948756</ele>
        <time>2022-12-12T16:29:05.862Z</time>
      </trkpt>
      <trkpt lat="48.07479" lon="-2.96898">
        <ele>99.939846</ele>
        <time>2022-12-12T16:29:08.867Z</time>
      </trkpt>
      <trkpt lat="48.07469" lon="-2.9689">
        <ele>99.809176</ele>
        <time>2022-12-12T16:29:11.860Z</time>
      </trkpt>
      <trkpt lat="48.07459" lon="-2.96884">
        <ele>99.686002</ele>
        <time>2022-12-12T16:29:14.860Z</time>
      </trkpt>
      <trkpt lat="48.07451" lon="-2.96876">
        <ele>99.574213</ele>
        <time>2022-12-12T16:29:16.862Z</time>
      </trkpt>
      <trkpt lat="48.0744" lon="-2.96868">
        <ele>99.430171</ele>
        <time>2022-12-12T16:29:19.859Z</time>
      </trkpt>
      <trkpt lat="48.07428" lon="-2.96861">
        <ele>99.286299</ele>
        <time>2022-12-12T16:29:22.861Z</time>
      </trkpt>
      <trkpt lat="48.07417" lon="-2.96853">
        <ele>99.141738</ele>
        <time>2022-12-12T16:29:25.860Z</time>
      </trkpt>
      <trkpt lat="48.07406" lon="-2.96847">
        <ele>99.011664</ele>
        <time>2022-12-12T16:29:28.878Z</time>
      </trkpt>
      <trkpt lat="48.07396" lon="-2.96842">
        <ele>98.886972</ele>
        <time>2022-12-12T16:29:31.861Z</time>
      </trkpt>
      <trkpt lat="48.07386" lon="-2.96837">
        <ele>98.763371</ele>
        <time>2022-12-12T16:29:34.855Z</time>
      </trkpt>
      <trkpt lat="48.07376" lon="-2.96833">
        <ele>98.643646</ele>
        <time>2022-12-12T16:29:37.861Z</time>
      </trkpt>
      <trkpt lat="48.07365" lon="-2.96829">
        <ele>98.514781</ele>
        <time>2022-12-12T16:29:40.860Z</time>
      </trkpt>
      <trkpt lat="48.07354" lon="-2.96823">
        <ele>98.38522</ele>
        <time>2022-12-12T16:29:43.841Z</time>
      </trkpt>
      <trkpt lat="48.07343" lon="-2.96817">
        <ele>98.24943</ele>
        <time>2022-12-12T16:29:46.858Z</time>
      </trkpt>
      <trkpt lat="48.07333" lon="-2.9681">
        <ele>98.123214</ele>
        <time>2022-12-12T16:29:49.862Z</time>
      </trkpt>
      <trkpt lat="48.07325" lon="-2.96802">
        <ele>98.006115</ele>
        <time>2022-12-12T16:29:52.859Z</time>
      </trkpt>
      <trkpt lat="48.07315" lon="-2.96793">
        <ele>97.947449</ele>
        <time>2022-12-12T16:29:56.860Z</time>
      </trkpt>
      <trkpt lat="48.07308" lon="-2.96785">
        <ele>97.991385</ele>
        <time>2022-12-12T16:29:59.862Z</time>
      </trkpt>
      <trkpt lat="48.073" lon="-2.96777">
        <ele>98.036645</ele>
        <time>2022-12-12T16:30:02.858Z</time>
      </trkpt>
      <trkpt lat="48.07291" lon="-2.96764">
        <ele>98.095305</ele>
        <time>2022-12-12T16:30:06.861Z</time>
      </trkpt>
      <trkpt lat="48.07284" lon="-2.96755">
        <ele>98.140337</ele>
        <time>2022-12-12T16:30:09.857Z</time>
      </trkpt>
      <trkpt lat="48.07276" lon="-2.96742">
        <ele>98.197809</ele>
        <time>2022-12-12T16:30:13.862Z</time>
      </trkpt>
      <trkpt lat="48.0727" lon="-2.96729">
        <ele>98.248033</ele>
        <time>2022-12-12T16:30:17.860Z</time>
      </trkpt>
      <trkpt lat="48.07263" lon="-2.96717">
        <ele>98.301939</ele>
        <time>2022-12-12T16:30:21.840Z</time>
      </trkpt>
      <trkpt lat="48.07256" lon="-2.96704">
        <ele>98.354678</ele>
        <time>2022-12-12T16:30:25.862Z</time>
      </trkpt>
      <trkpt lat="48.07251" lon="-2.96692">
        <ele>98.399236</ele>
        <time>2022-12-12T16:30:28.865Z</time>
      </trkpt>
      <trkpt lat="48.07245" lon="-2.96682">
        <ele>98.442618</ele>
        <time>2022-12-12T16:30:32.857Z</time>
      </trkpt>
      <trkpt lat="48.07236" lon="-2.96684">
        <ele>98.488765</ele>
        <time>2022-12-12T16:30:49.843Z</time>
      </trkpt>
      <trkpt lat="48.07225" lon="-2.96687">
        <ele>98.539466</ele>
        <time>2022-12-12T16:31:03.860Z</time>
      </trkpt>
      <trkpt lat="48.07219" lon="-2.96677">
        <ele>98.583997</ele>
        <time>2022-12-12T16:31:07.860Z</time>
      </trkpt>
      <trkpt lat="48.07215" lon="-2.96664">
        <ele>98.628443</ele>
        <time>2022-12-12T16:31:10.838Z</time>
      </trkpt>
      <trkpt lat="48.0721" lon="-2.9665">
        <ele>98.680902</ele>
        <time>2022-12-12T16:31:13.866Z</time>
      </trkpt>
      <trkpt lat="48.07205" lon="-2.96637">
        <ele>98.730025</ele>
        <time>2022-12-12T16:31:16.861Z</time>
      </trkpt>
      <trkpt lat="48.07198" lon="-2.96625">
        <ele>98.779585</ele>
        <time>2022-12-12T16:31:19.860Z</time>
      </trkpt>
      <trkpt lat="48.07191" lon="-2.96613">
        <ele>98.751953</ele>
        <time>2022-12-12T16:31:22.874Z</time>
      </trkpt>
      <trkpt lat="48.07182" lon="-2.96604">
        <ele>98.696893</ele>
        <time>2022-12-12T16:31:25.859Z</time>
      </trkpt>
      <trkpt lat="48.07172" lon="-2.96596">
        <ele>98.637701</ele>
        <time>2022-12-12T16:31:29.857Z</time>
      </trkpt>
      <trkpt lat="48.07163" lon="-2.9659">
        <ele>98.586385</ele>
        <time>2022-12-12T16:31:32.858Z</time>
      </trkpt>
      <trkpt lat="48.07152" lon="-2.96589">
        <ele>98.530821</ele>
        <time>2022-12-12T16:31:36.860Z</time>
      </trkpt>
      <trkpt lat="48.07143" lon="-2.96587">
        <ele>98.480989</ele>
        <time>2022-12-12T16:31:40.862Z</time>
      </trkpt>
      <trkpt lat="48.07131" lon="-2.9659">
        <ele>98.420065</ele>
        <time>2022-12-12T16:31:44.864Z</time>
      </trkpt>
      <trkpt lat="48.07122" lon="-2.96592">
        <ele>98.370456</ele>
        <time>2022-12-12T16:31:47.874Z</time>
      </trkpt>
      <trkpt lat="48.07113" lon="-2.96596">
        <ele>98.321688</ele>
        <time>2022-12-12T16:31:50.861Z</time>
      </trkpt>
      <trkpt lat="48.07102" lon="-2.96602">
        <ele>98.262371</ele>
        <time>2022-12-12T16:31:54.861Z</time>
      </trkpt>
      <trkpt lat="48.07094" lon="-2.96608">
        <ele>98.212765</ele>
        <time>2022-12-12T16:31:57.863Z</time>
      </trkpt>
      <trkpt lat="48.07085" lon="-2.96613">
        <ele>98.163739</ele>
        <time>2022-12-12T16:32:00.860Z</time>
      </trkpt>
      <trkpt lat="48.07076" lon="-2.96619">
        <ele>98.113699</ele>
        <time>2022-12-12T16:32:03.860Z</time>
      </trkpt>
      <trkpt lat="48.07066" lon="-2.96626">
        <ele>98.05649</ele>
        <time>2022-12-12T16:32:07.862Z</time>
      </trkpt>
      <trkpt lat="48.07057" lon="-2.96636">
        <ele>97.998901</ele>
        <time>2022-12-12T16:32:12.860Z</time>
      </trkpt>
      <trkpt lat="48.07047" lon="-2.96642">
        <ele>97.941945</ele>
        <time>2022-12-12T16:32:18.863Z</time>
      </trkpt>
      <trkpt lat="48.07037" lon="-2.9664">
        <ele>97.889195</ele>
        <time>2022-12-12T16:32:23.859Z</time>
      </trkpt>
      <trkpt lat="48.07031" lon="-2.96626">
        <ele>97.81374</ele>
        <time>2022-12-12T16:32:29.862Z</time>
      </trkpt>
      <trkpt lat="48.07022" lon="-2.9662">
        <ele>97.721109</ele>
        <time>2022-12-12T16:32:49.859Z</time>
      </trkpt>
      <trkpt lat="48.07013" lon="-2.96627">
        <ele>97.631387</ele>
        <time>2022-12-12T16:32:55.839Z</time>
      </trkpt>
      <trkpt lat="48.07002" lon="-2.96635">
        <ele>97.527418</ele>
        <time>2022-12-12T16:33:00.847Z</time>
      </trkpt>
      <trkpt lat="48.06992" lon="-2.96642">
        <ele>97.425332</ele>
        <time>2022-12-12T16:33:04.859Z</time>
      </trkpt>
      <trkpt lat="48.06983" lon="-2.96647">
        <ele>97.340276</ele>
        <time>2022-12-12T16:33:07.862Z</time>
      </trkpt>
      <trkpt lat="48.06975" lon="-2.96654">
        <ele>97.25297</ele>
        <time>2022-12-12T16:33:10.863Z</time>
      </trkpt>
      <trkpt lat="48.06966" lon="-2.9666">
        <ele>97.162971</ele>
        <time>2022-12-12T16:33:13.860Z</time>
      </trkpt>
      <trkpt lat="48.06956" lon="-2.96667">
        <ele>97.068132</ele>
        <time>2022-12-12T16:33:16.863Z</time>
      </trkpt>
      <trkpt lat="48.06947" lon="-2.96674">
        <ele>96.976259</ele>
        <time>2022-12-12T16:33:19.860Z</time>
      </trkpt>
      <trkpt lat="48.06939" lon="-2.96681">
        <ele>96.894807</ele>
        <time>2022-12-12T16:33:22.859Z</time>
      </trkpt>
      <trkpt lat="48.0693" lon="-2.9669">
        <ele>96.796033</ele>
        <time>2022-12-12T16:33:27.860Z</time>
      </trkpt>
      <trkpt lat="48.06923" lon="-2.967">
        <ele>96.708662</ele>
        <time>2022-12-12T16:33:31.859Z</time>
      </trkpt>
      <trkpt lat="48.06917" lon="-2.96712">
        <ele>96.616844</ele>
        <time>2022-12-12T16:33:35.859Z</time>
      </trkpt>
      <trkpt lat="48.0691" lon="-2.96724">
        <ele>96.520837</ele>
        <time>2022-12-12T16:33:39.848Z</time>
      </trkpt>
      <trkpt lat="48.06903" lon="-2.96735">
        <ele>96.427931</ele>
        <time>2022-12-12T16:33:43.873Z</time>
      </trkpt>
      <trkpt lat="48.06896" lon="-2.96746">
        <ele>96.34151</ele>
        <time>2022-12-12T16:33:47.861Z</time>
      </trkpt>
      <trkpt lat="48.06889" lon="-2.96756">
        <ele>96.251588</ele>
        <time>2022-12-12T16:33:56.870Z</time>
      </trkpt>
      <trkpt lat="48.06887" lon="-2.96771">
        <ele>96.213588</ele>
        <time>2022-12-12T16:34:11.862Z</time>
      </trkpt>
      <trkpt lat="48.0688" lon="-2.96779">
        <ele>96.186576</ele>
        <time>2022-12-12T16:34:16.861Z</time>
      </trkpt>
      <trkpt lat="48.06872" lon="-2.96785">
        <ele>96.159649</ele>
        <time>2022-12-12T16:34:20.862Z</time>
      </trkpt>
      <trkpt lat="48.06864" lon="-2.96795">
        <ele>96.129508</ele>
        <time>2022-12-12T16:34:23.860Z</time>
      </trkpt>
      <trkpt lat="48.06857" lon="-2.96803">
        <ele>96.102368</ele>
        <time>2022-12-12T16:34:26.844Z</time>
      </trkpt>
      <trkpt lat="48.06848" lon="-2.96812">
        <ele>96.071089</ele>
        <time>2022-12-12T16:34:29.863Z</time>
      </trkpt>
      <trkpt lat="48.06837" lon="-2.9682">
        <ele>96.035247</ele>
        <time>2022-12-12T16:34:32.857Z</time>
      </trkpt>
      <trkpt lat="48.06825" lon="-2.96828">
        <ele>95.99616</ele>
        <time>2022-12-12T16:34:35.865Z</time>
      </trkpt>
      <trkpt lat="48.06817" lon="-2.96833">
        <ele>95.969297</ele>
        <time>2022-12-12T16:34:37.842Z</time>
      </trkpt>
      <trkpt lat="48.06804" lon="-2.9684">
        <ele>95.930145</ele>
        <time>2022-12-12T16:34:40.861Z</time>
      </trkpt>
      <trkpt lat="48.06795" lon="-2.96843">
        <ele>95.90294</ele>
        <time>2022-12-12T16:34:42.861Z</time>
      </trkpt>
      <trkpt lat="48.06783" lon="-2.96848">
        <ele>95.865232</ele>
        <time>2022-12-12T16:34:45.863Z</time>
      </trkpt>
      <trkpt lat="48.06773" lon="-2.96853">
        <ele>95.834716</ele>
        <time>2022-12-12T16:34:48.864Z</time>
      </trkpt>
      <trkpt lat="48.06763" lon="-2.96857">
        <ele>95.803413</ele>
        <time>2022-12-12T16:34:53.860Z</time>
      </trkpt>
      <trkpt lat="48.06752" lon="-2.96856">
        <ele>95.769655</ele>
        <time>2022-12-12T16:34:58.861Z</time>
      </trkpt>
      <trkpt lat="48.06741" lon="-2.96856">
        <ele>95.737987</ele>
        <time>2022-12-12T16:35:02.862Z</time>
      </trkpt>
      <trkpt lat="48.06732" lon="-2.96852">
        <ele>95.710881</ele>
        <time>2022-12-12T16:35:08.863Z</time>
      </trkpt>
      <trkpt lat="48.06724" lon="-2.96846">
        <ele>95.776403</ele>
        <time>2022-12-12T16:35:24.866Z</time>
      </trkpt>
      <trkpt lat="48.06713" lon="-2.96843">
        <ele>95.871254</ele>
        <time>2022-12-12T16:35:28.864Z</time>
      </trkpt>
      <trkpt lat="48.06704" lon="-2.96841">
        <ele>95.956311</ele>
        <time>2022-12-12T16:35:31.857Z</time>
      </trkpt>
      <trkpt lat="48.06694" lon="-2.9684">
        <ele>96.0484</ele>
        <time>2022-12-12T16:35:34.864Z</time>
      </trkpt>
      <trkpt lat="48.06684" lon="-2.96838">
        <ele>96.138256</ele>
        <time>2022-12-12T16:35:37.861Z</time>
      </trkpt>
      <trkpt lat="48.06675" lon="-2.96836">
        <ele>96.223211</ele>
        <time>2022-12-12T16:35:40.861Z</time>
      </trkpt>
      <trkpt lat="48.06665" lon="-2.96833">
        <ele>96.31648</ele>
        <time>2022-12-12T16:35:43.844Z</time>
      </trkpt>
      <trkpt lat="48.06655" lon="-2.9683">
        <ele>96.413515</ele>
        <time>2022-12-12T16:35:46.862Z</time>
      </trkpt>
      <trkpt lat="48.06644" lon="-2.96829">
        <ele>96.513157</ele>
        <time>2022-12-12T16:35:49.861Z</time>
      </trkpt>
      <trkpt lat="48.06633" lon="-2.96832">
        <ele>96.615107</ele>
        <time>2022-12-12T16:35:52.862Z</time>
      </trkpt>
      <trkpt lat="48.06622" lon="-2.96835">
        <ele>96.717056</ele>
        <time>2022-12-12T16:35:55.862Z</time>
      </trkpt>
      <trkpt lat="48.06611" lon="-2.96839">
        <ele>96.815011</ele>
        <time>2022-12-12T16:35:58.867Z</time>
      </trkpt>
      <trkpt lat="48.06602" lon="-2.96843">
        <ele>96.902816</ele>
        <time>2022-12-12T16:36:01.865Z</time>
      </trkpt>
      <trkpt lat="48.06591" lon="-2.96847">
        <ele>97.002093</ele>
        <time>2022-12-12T16:36:05.863Z</time>
      </trkpt>
      <trkpt lat="48.06581" lon="-2.96851">
        <ele>97.104169</ele>
        <time>2022-12-12T16:36:09.860Z</time>
      </trkpt>
      <trkpt lat="48.06571" lon="-2.96854">
        <ele>97.195659</ele>
        <time>2022-12-12T16:36:14.860Z</time>
      </trkpt>
      <trkpt lat="48.06561" lon="-2.96859">
        <ele>97.291498</ele>
        <time>2022-12-12T16:36:18.860Z</time>
      </trkpt>
      <trkpt lat="48.06549" lon="-2.96863">
        <ele>97.343553</ele>
        <time>2022-12-12T16:36:22.845Z</time>
      </trkpt>
      <trkpt lat="48.06539" lon="-2.96865">
        <ele>97.343553</ele>
        <time>2022-12-12T16:36:25.869Z</time>
      </trkpt>
      <trkpt lat="48.06526" lon="-2.9687">
        <ele>97.343553</ele>
        <time>2022-12-12T16:36:28.860Z</time>
      </trkpt>
      <trkpt lat="48.06514" lon="-2.96875">
        <ele>97.343553</ele>
        <time>2022-12-12T16:36:31.862Z</time>
      </trkpt>
      <trkpt lat="48.06505" lon="-2.96878">
        <ele>97.343553</ele>
        <time>2022-12-12T16:36:33.863Z</time>
      </trkpt>
      <trkpt lat="48.06495" lon="-2.96881">
        <ele>97.343553</ele>
        <time>2022-12-12T16:36:35.861Z</time>
      </trkpt>
      <trkpt lat="48.06483" lon="-2.96886">
        <ele>97.343553</ele>
        <time>2022-12-12T16:36:38.864Z</time>
      </trkpt>
      <trkpt lat="48.06474" lon="-2.96893">
        <ele>97.343553</ele>
        <time>2022-12-12T16:36:41.915Z</time>
      </trkpt>
      <trkpt lat="48.06464" lon="-2.96896">
        <ele>97.343553</ele>
        <time>2022-12-12T16:36:50.861Z</time>
      </trkpt>
      <trkpt lat="48.06457" lon="-2.96896">
        <ele>97.343553</ele>
        <time>2022-12-12T16:38:45.873Z</time>
        <extensions>
          <visugpx:TrkExtension xmlns:visugpx="https://www.visugpx.com/editgpx/">
            <visugpx:node>1</visugpx:node>
            </visugpx:TrkExtension>
        </extensions>
      </trkpt>
    </trkseg>
  </trk>
  <trk>
    <name><![CDATA[Pontivy - Quilly]]></name>
    <extensions>
      <line xmlns="http://www.topografix.com/GPX/gpx_style/0/2">
        <color>0000ff</color>
        <width>4</width>
      </line>
    </extensions>
    <trkseg>
      <trkpt lat="48.07455" lon="-2.96171">
        <ele>104.153575</ele>
        <time>2022-12-13T13:19:54.765Z</time>
      </trkpt>
      <trkpt lat="48.0746" lon="-2.96154">
        <ele>104.153575</ele>
        <time>2022-12-13T13:20:45.213Z</time>
      </trkpt>
      <trkpt lat="48.07463" lon="-2.96141">
        <ele>104.153575</ele>
        <time>2022-12-13T13:20:49.219Z</time>
      </trkpt>
      <trkpt lat="48.07467" lon="-2.96126">
        <ele>104.153575</ele>
        <time>2022-12-13T13:20:53.218Z</time>
      </trkpt>
      <trkpt lat="48.07472" lon="-2.96111">
        <ele>104.153575</ele>
        <time>2022-12-13T13:20:57.228Z</time>
      </trkpt>
      <trkpt lat="48.07475" lon="-2.96098">
        <ele>104.153575</ele>
        <time>2022-12-13T13:21:00.203Z</time>
      </trkpt>
      <trkpt lat="48.07479" lon="-2.96085">
        <ele>104.153575</ele>
        <time>2022-12-13T13:21:03.208Z</time>
      </trkpt>
      <trkpt lat="48.07482" lon="-2.96071">
        <ele>104.153575</ele>
        <time>2022-12-13T13:21:06.207Z</time>
      </trkpt>
      <trkpt lat="48.07486" lon="-2.96057">
        <ele>104.153575</ele>
        <time>2022-12-13T13:21:09.209Z</time>
      </trkpt>
      <trkpt lat="48.0749" lon="-2.96042">
        <ele>104.158218</ele>
        <time>2022-12-13T13:21:12.222Z</time>
      </trkpt>
      <trkpt lat="48.07494" lon="-2.96027">
        <ele>104.174158</ele>
        <time>2022-12-13T13:21:15.215Z</time>
      </trkpt>
      <trkpt lat="48.07499" lon="-2.96013">
        <ele>104.190016</ele>
        <time>2022-12-13T13:21:18.222Z</time>
      </trkpt>
      <trkpt lat="48.07504" lon="-2.95997">
        <ele>104.207052</ele>
        <time>2022-12-13T13:21:21.224Z</time>
      </trkpt>
      <trkpt lat="48.07508" lon="-2.95981">
        <ele>104.224416</ele>
        <time>2022-12-13T13:21:24.224Z</time>
      </trkpt>
      <trkpt lat="48.07513" lon="-2.95965">
        <ele>104.241537</ele>
        <time>2022-12-13T13:21:27.219Z</time>
      </trkpt>
      <trkpt lat="48.07518" lon="-2.95948">
        <ele>104.259648</ele>
        <time>2022-12-13T13:21:30.202Z</time>
      </trkpt>
      <trkpt lat="48.07522" lon="-2.95933">
        <ele>104.275724</ele>
        <time>2022-12-13T13:21:33.202Z</time>
      </trkpt>
      <trkpt lat="48.07527" lon="-2.95918">
        <ele>104.291451</ele>
        <time>2022-12-13T13:21:36.217Z</time>
      </trkpt>
      <trkpt lat="48.07532" lon="-2.95903">
        <ele>104.308121</ele>
        <time>2022-12-13T13:21:39.209Z</time>
      </trkpt>
      <trkpt lat="48.07538" lon="-2.95888">
        <ele>104.325421</ele>
        <time>2022-12-13T13:21:42.216Z</time>
      </trkpt>
      <trkpt lat="48.07545" lon="-2.95875">
        <ele>104.341837</ele>
        <time>2022-12-13T13:21:45.212Z</time>
      </trkpt>
      <trkpt lat="48.07552" lon="-2.95863">
        <ele>104.357103</ele>
        <time>2022-12-13T13:21:48.201Z</time>
      </trkpt>
      <trkpt lat="48.07559" lon="-2.95853">
        <ele>104.371594</ele>
        <time>2022-12-13T13:21:51.211Z</time>
      </trkpt>
      <trkpt lat="48.07567" lon="-2.95842">
        <ele>104.386982</ele>
        <time>2022-12-13T13:21:54.211Z</time>
      </trkpt>
      <trkpt lat="48.07576" lon="-2.95832">
        <ele>104.403917</ele>
        <time>2022-12-13T13:21:57.219Z</time>
      </trkpt>
      <trkpt lat="48.07585" lon="-2.95821">
        <ele>104.521205</ele>
        <time>2022-12-13T13:22:00.220Z</time>
      </trkpt>
      <trkpt lat="48.07596" lon="-2.95813">
        <ele>105.021456</ele>
        <time>2022-12-13T13:22:03.220Z</time>
      </trkpt>
      <trkpt lat="48.07605" lon="-2.95804">
        <ele>105.499386</ele>
        <time>2022-12-13T13:22:06.224Z</time>
      </trkpt>
      <trkpt lat="48.07616" lon="-2.95796">
        <ele>105.989809</ele>
        <time>2022-12-13T13:22:10.210Z</time>
      </trkpt>
      <trkpt lat="48.07623" lon="-2.95787">
        <ele>106.382892</ele>
        <time>2022-12-13T13:22:13.216Z</time>
      </trkpt>
      <trkpt lat="48.07631" lon="-2.9578">
        <ele>106.784205</ele>
        <time>2022-12-13T13:22:16.200Z</time>
      </trkpt>
      <trkpt lat="48.07639" lon="-2.95773">
        <ele>107.204793</ele>
        <time>2022-12-13T13:22:19.227Z</time>
      </trkpt>
      <trkpt lat="48.07648" lon="-2.95765">
        <ele>107.638178</ele>
        <time>2022-12-13T13:22:22.219Z</time>
      </trkpt>
      <trkpt lat="48.07656" lon="-2.95757">
        <ele>108.041881</ele>
        <time>2022-12-13T13:22:25.208Z</time>
      </trkpt>
      <trkpt lat="48.07665" lon="-2.9575">
        <ele>108.459248</ele>
        <time>2022-12-13T13:22:28.203Z</time>
      </trkpt>
      <trkpt lat="48.07673" lon="-2.95742">
        <ele>108.886287</ele>
        <time>2022-12-13T13:22:31.227Z</time>
      </trkpt>
      <trkpt lat="48.07683" lon="-2.95732">
        <ele>109.391083</ele>
        <time>2022-12-13T13:22:35.204Z</time>
      </trkpt>
      <trkpt lat="48.07692" lon="-2.95725">
        <ele>109.828296</ele>
        <time>2022-12-13T13:22:43.213Z</time>
      </trkpt>
      <trkpt lat="48.07701" lon="-2.95716">
        <ele>110.269779</ele>
        <time>2022-12-13T13:22:48.202Z</time>
      </trkpt>
      <trkpt lat="48.07709" lon="-2.95708">
        <ele>110.69314</ele>
        <time>2022-12-13T13:22:52.221Z</time>
      </trkpt>
      <trkpt lat="48.07718" lon="-2.957">
        <ele>111.15127</ele>
        <time>2022-12-13T13:22:56.219Z</time>
      </trkpt>
      <trkpt lat="48.07727" lon="-2.95692">
        <ele>111.572977</ele>
        <time>2022-12-13T13:22:59.206Z</time>
      </trkpt>
      <trkpt lat="48.07735" lon="-2.95684">
        <ele>111.971574</ele>
        <time>2022-12-13T13:23:02.202Z</time>
      </trkpt>
      <trkpt lat="48.07743" lon="-2.95677">
        <ele>112.216234</ele>
        <time>2022-12-13T13:23:05.203Z</time>
      </trkpt>
      <trkpt lat="48.07751" lon="-2.95669">
        <ele>112.409034</ele>
        <time>2022-12-13T13:23:08.220Z</time>
      </trkpt>
      <trkpt lat="48.07759" lon="-2.95661">
        <ele>112.620749</ele>
        <time>2022-12-13T13:23:11.206Z</time>
      </trkpt>
      <trkpt lat="48.07768" lon="-2.95654">
        <ele>112.829561</ele>
        <time>2022-12-13T13:23:14.212Z</time>
      </trkpt>
      <trkpt lat="48.07775" lon="-2.95646">
        <ele>113.030812</ele>
        <time>2022-12-13T13:23:17.234Z</time>
      </trkpt>
      <trkpt lat="48.07784" lon="-2.95636">
        <ele>113.252352</ele>
        <time>2022-12-13T13:23:20.225Z</time>
      </trkpt>
      <trkpt lat="48.07793" lon="-2.95627">
        <ele>113.49324</ele>
        <time>2022-12-13T13:23:23.220Z</time>
      </trkpt>
      <trkpt lat="48.07803" lon="-2.95617">
        <ele>113.747223</ele>
        <time>2022-12-13T13:23:26.227Z</time>
      </trkpt>
      <trkpt lat="48.07813" lon="-2.95608">
        <ele>113.984161</ele>
        <time>2022-12-13T13:23:29.224Z</time>
      </trkpt>
      <trkpt lat="48.07822" lon="-2.95598">
        <ele>114.225397</ele>
        <time>2022-12-13T13:23:32.203Z</time>
      </trkpt>
      <trkpt lat="48.07832" lon="-2.95589">
        <ele>114.474973</ele>
        <time>2022-12-13T13:23:35.223Z</time>
      </trkpt>
      <trkpt lat="48.07841" lon="-2.9558">
        <ele>114.709525</ele>
        <time>2022-12-13T13:23:38.233Z</time>
      </trkpt>
      <trkpt lat="48.0785" lon="-2.95572">
        <ele>114.922357</ele>
        <time>2022-12-13T13:23:41.217Z</time>
      </trkpt>
      <trkpt lat="48.07858" lon="-2.95563">
        <ele>115.143074</ele>
        <time>2022-12-13T13:23:44.221Z</time>
      </trkpt>
      <trkpt lat="48.07868" lon="-2.95554">
        <ele>115.380978</ele>
        <time>2022-12-13T13:23:47.226Z</time>
      </trkpt>
      <trkpt lat="48.07878" lon="-2.95546">
        <ele>115.618984</ele>
        <time>2022-12-13T13:23:50.218Z</time>
      </trkpt>
      <trkpt lat="48.07886" lon="-2.95539">
        <ele>115.815859</ele>
        <time>2022-12-13T13:23:53.218Z</time>
      </trkpt>
      <trkpt lat="48.07894" lon="-2.95532">
        <ele>115.81078</ele>
        <time>2022-12-13T13:23:56.217Z</time>
      </trkpt>
      <trkpt lat="48.07902" lon="-2.95523">
        <ele>115.733161</ele>
        <time>2022-12-13T13:23:59.231Z</time>
      </trkpt>
      <trkpt lat="48.07912" lon="-2.95513">
        <ele>115.642319</ele>
        <time>2022-12-13T13:24:02.220Z</time>
      </trkpt>
      <trkpt lat="48.07922" lon="-2.95502">
        <ele>115.54391</ele>
        <time>2022-12-13T13:24:05.233Z</time>
      </trkpt>
      <trkpt lat="48.07932" lon="-2.95492">
        <ele>115.457096</ele>
        <time>2022-12-13T13:24:08.219Z</time>
      </trkpt>
      <trkpt lat="48.07943" lon="-2.95482">
        <ele>115.358206</ele>
        <time>2022-12-13T13:24:11.217Z</time>
      </trkpt>
      <trkpt lat="48.07954" lon="-2.95472">
        <ele>115.259583</ele>
        <time>2022-12-13T13:24:14.212Z</time>
      </trkpt>
      <trkpt lat="48.07964" lon="-2.95462">
        <ele>115.166851</ele>
        <time>2022-12-13T13:24:17.218Z</time>
      </trkpt>
      <trkpt lat="48.07973" lon="-2.95452">
        <ele>115.080958</ele>
        <time>2022-12-13T13:24:20.203Z</time>
      </trkpt>
      <trkpt lat="48.07981" lon="-2.95443">
        <ele>115.001128</ele>
        <time>2022-12-13T13:24:23.231Z</time>
      </trkpt>
      <trkpt lat="48.07991" lon="-2.95434">
        <ele>114.916166</ele>
        <time>2022-12-13T13:24:26.226Z</time>
      </trkpt>
      <trkpt lat="48.08001" lon="-2.95424">
        <ele>114.816278</ele>
        <time>2022-12-13T13:24:29.220Z</time>
      </trkpt>
      <trkpt lat="48.08013" lon="-2.95413">
        <ele>114.714626</ele>
        <time>2022-12-13T13:24:32.224Z</time>
      </trkpt>
      <trkpt lat="48.08024" lon="-2.95404">
        <ele>114.617451</ele>
        <time>2022-12-13T13:24:35.223Z</time>
      </trkpt>
      <trkpt lat="48.08033" lon="-2.95394">
        <ele>114.530822</ele>
        <time>2022-12-13T13:24:38.222Z</time>
      </trkpt>
      <trkpt lat="48.08042" lon="-2.95385">
        <ele>114.360411</ele>
        <time>2022-12-13T13:24:41.227Z</time>
      </trkpt>
      <trkpt lat="48.08051" lon="-2.95376">
        <ele>114.106525</ele>
        <time>2022-12-13T13:24:44.210Z</time>
      </trkpt>
      <trkpt lat="48.08059" lon="-2.95367">
        <ele>113.871399</ele>
        <time>2022-12-13T13:24:47.221Z</time>
      </trkpt>
      <trkpt lat="48.08069" lon="-2.95358">
        <ele>113.604397</ele>
        <time>2022-12-13T13:24:50.226Z</time>
      </trkpt>
      <trkpt lat="48.08077" lon="-2.95349">
        <ele>113.370543</ele>
        <time>2022-12-13T13:24:53.235Z</time>
      </trkpt>
      <trkpt lat="48.08084" lon="-2.95341">
        <ele>113.153284</ele>
        <time>2022-12-13T13:24:56.237Z</time>
      </trkpt>
      <trkpt lat="48.08093" lon="-2.95334">
        <ele>112.923999</ele>
        <time>2022-12-13T13:24:59.210Z</time>
      </trkpt>
      <trkpt lat="48.08101" lon="-2.95326">
        <ele>112.692797</ele>
        <time>2022-12-13T13:25:02.218Z</time>
      </trkpt>
      <trkpt lat="48.08111" lon="-2.95317">
        <ele>112.412961</ele>
        <time>2022-12-13T13:25:05.233Z</time>
      </trkpt>
      <trkpt lat="48.08122" lon="-2.95307">
        <ele>112.117821</ele>
        <time>2022-12-13T13:25:08.210Z</time>
      </trkpt>
      <trkpt lat="48.08133" lon="-2.95296">
        <ele>111.814473</ele>
        <time>2022-12-13T13:25:11.229Z</time>
      </trkpt>
      <trkpt lat="48.08143" lon="-2.95287">
        <ele>111.525849</ele>
        <time>2022-12-13T13:25:14.203Z</time>
      </trkpt>
      <trkpt lat="48.08154" lon="-2.95277">
        <ele>111.223511</ele>
        <time>2022-12-13T13:25:17.225Z</time>
      </trkpt>
      <trkpt lat="48.08165" lon="-2.95266">
        <ele>110.922639</ele>
        <time>2022-12-13T13:25:20.226Z</time>
      </trkpt>
      <trkpt lat="48.08175" lon="-2.95255">
        <ele>110.628341</ele>
        <time>2022-12-13T13:25:23.222Z</time>
      </trkpt>
      <trkpt lat="48.08185" lon="-2.95245">
        <ele>110.334344</ele>
        <time>2022-12-13T13:25:26.222Z</time>
      </trkpt>
      <trkpt lat="48.08194" lon="-2.95236">
        <ele>110.259815</ele>
        <time>2022-12-13T13:25:29.220Z</time>
      </trkpt>
      <trkpt lat="48.08204" lon="-2.95226">
        <ele>110.275634</ele>
        <time>2022-12-13T13:25:32.222Z</time>
      </trkpt>
      <trkpt lat="48.08213" lon="-2.95217">
        <ele>110.290523</ele>
        <time>2022-12-13T13:25:35.225Z</time>
      </trkpt>
      <trkpt lat="48.08221" lon="-2.95208">
        <ele>110.305413</ele>
        <time>2022-12-13T13:25:38.235Z</time>
      </trkpt>
      <trkpt lat="48.0823" lon="-2.952">
        <ele>110.319541</ele>
        <time>2022-12-13T13:25:41.215Z</time>
      </trkpt>
      <trkpt lat="48.08238" lon="-2.95192">
        <ele>110.333101</ele>
        <time>2022-12-13T13:25:44.208Z</time>
      </trkpt>
      <trkpt lat="48.08247" lon="-2.95183">
        <ele>110.347538</ele>
        <time>2022-12-13T13:25:47.220Z</time>
      </trkpt>
      <trkpt lat="48.08256" lon="-2.95173">
        <ele>110.362812</ele>
        <time>2022-12-13T13:25:50.223Z</time>
      </trkpt>
      <trkpt lat="48.08265" lon="-2.95163">
        <ele>110.378464</ele>
        <time>2022-12-13T13:25:53.223Z</time>
      </trkpt>
      <trkpt lat="48.08276" lon="-2.95152">
        <ele>110.396501</ele>
        <time>2022-12-13T13:25:56.209Z</time>
      </trkpt>
      <trkpt lat="48.08285" lon="-2.95141">
        <ele>110.413013</ele>
        <time>2022-12-13T13:25:59.229Z</time>
      </trkpt>
      <trkpt lat="48.08293" lon="-2.95129">
        <ele>110.428072</ele>
        <time>2022-12-13T13:26:02.220Z</time>
      </trkpt>
      <trkpt lat="48.08301" lon="-2.95117">
        <ele>110.444251</ele>
        <time>2022-12-13T13:26:05.237Z</time>
      </trkpt>
      <trkpt lat="48.08308" lon="-2.95104">
        <ele>110.459615</ele>
        <time>2022-12-13T13:26:08.221Z</time>
      </trkpt>
      <trkpt lat="48.08315" lon="-2.95091">
        <ele>110.475098</ele>
        <time>2022-12-13T13:26:11.217Z</time>
      </trkpt>
      <trkpt lat="48.08323" lon="-2.95079">
        <ele>110.490374</ele>
        <time>2022-12-13T13:26:14.224Z</time>
      </trkpt>
      <trkpt lat="48.08329" lon="-2.95067">
        <ele>110.52186</ele>
        <time>2022-12-13T13:26:17.227Z</time>
      </trkpt>
      <trkpt lat="48.08336" lon="-2.95055">
        <ele>110.58221</ele>
        <time>2022-12-13T13:26:20.225Z</time>
      </trkpt>
      <trkpt lat="48.08344" lon="-2.95041">
        <ele>110.645918</ele>
        <time>2022-12-13T13:26:23.221Z</time>
      </trkpt>
      <trkpt lat="48.08351" lon="-2.95028">
        <ele>110.707738</ele>
        <time>2022-12-13T13:26:26.209Z</time>
      </trkpt>
      <trkpt lat="48.08359" lon="-2.95015">
        <ele>110.775079</ele>
        <time>2022-12-13T13:26:29.205Z</time>
      </trkpt>
      <trkpt lat="48.08368" lon="-2.95001">
        <ele>110.843126</ele>
        <time>2022-12-13T13:26:32.216Z</time>
      </trkpt>
      <trkpt lat="48.08375" lon="-2.94987">
        <ele>110.905511</ele>
        <time>2022-12-13T13:26:35.215Z</time>
      </trkpt>
      <trkpt lat="48.08382" lon="-2.94976">
        <ele>110.962309</ele>
        <time>2022-12-13T13:26:38.219Z</time>
      </trkpt>
      <trkpt lat="48.08389" lon="-2.94963">
        <ele>111.022457</ele>
        <time>2022-12-13T13:26:41.231Z</time>
      </trkpt>
      <trkpt lat="48.08396" lon="-2.94951">
        <ele>111.08278</ele>
        <time>2022-12-13T13:26:44.216Z</time>
      </trkpt>
      <trkpt lat="48.08404" lon="-2.94939">
        <ele>111.142562</ele>
        <time>2022-12-13T13:26:47.220Z</time>
      </trkpt>
      <trkpt lat="48.0841" lon="-2.94926">
        <ele>111.200577</ele>
        <time>2022-12-13T13:26:50.206Z</time>
      </trkpt>
      <trkpt lat="48.08417" lon="-2.94916">
        <ele>111.255415</ele>
        <time>2022-12-13T13:26:53.208Z</time>
      </trkpt>
      <trkpt lat="48.08423" lon="-2.94905">
        <ele>111.30486</ele>
        <time>2022-12-13T13:26:56.211Z</time>
      </trkpt>
      <trkpt lat="48.0843" lon="-2.94895">
        <ele>111.358154</ele>
        <time>2022-12-13T13:26:59.228Z</time>
      </trkpt>
      <trkpt lat="48.08437" lon="-2.94884">
        <ele>111.413142</ele>
        <time>2022-12-13T13:27:02.229Z</time>
      </trkpt>
      <trkpt lat="48.08444" lon="-2.94872">
        <ele>111.470841</ele>
        <time>2022-12-13T13:27:05.226Z</time>
      </trkpt>
      <trkpt lat="48.08451" lon="-2.94859">
        <ele>111.398446</ele>
        <time>2022-12-13T13:27:08.234Z</time>
      </trkpt>
      <trkpt lat="48.08458" lon="-2.94846">
        <ele>111.305595</ele>
        <time>2022-12-13T13:27:11.221Z</time>
      </trkpt>
      <trkpt lat="48.08467" lon="-2.94833">
        <ele>111.199764</ele>
        <time>2022-12-13T13:27:14.225Z</time>
      </trkpt>
      <trkpt lat="48.08476" lon="-2.9482">
        <ele>111.098605</ele>
        <time>2022-12-13T13:27:17.233Z</time>
      </trkpt>
      <trkpt lat="48.08483" lon="-2.94807">
        <ele>111.008404</ele>
        <time>2022-12-13T13:27:20.233Z</time>
      </trkpt>
      <trkpt lat="48.0849" lon="-2.94795">
        <ele>110.919456</ele>
        <time>2022-12-13T13:27:23.220Z</time>
      </trkpt>
      <trkpt lat="48.08498" lon="-2.94783">
        <ele>110.828503</ele>
        <time>2022-12-13T13:27:26.222Z</time>
      </trkpt>
      <trkpt lat="48.08506" lon="-2.9477">
        <ele>110.726846</ele>
        <time>2022-12-13T13:27:29.233Z</time>
      </trkpt>
      <trkpt lat="48.08514" lon="-2.94755">
        <ele>110.619508</ele>
        <time>2022-12-13T13:27:32.219Z</time>
      </trkpt>
      <trkpt lat="48.08522" lon="-2.94742">
        <ele>110.522809</ele>
        <time>2022-12-13T13:27:35.221Z</time>
      </trkpt>
      <trkpt lat="48.08529" lon="-2.9473">
        <ele>110.438038</ele>
        <time>2022-12-13T13:27:38.229Z</time>
      </trkpt>
      <trkpt lat="48.08535" lon="-2.94716">
        <ele>110.342979</ele>
        <time>2022-12-13T13:27:41.227Z</time>
      </trkpt>
      <trkpt lat="48.08541" lon="-2.94701">
        <ele>110.242678</ele>
        <time>2022-12-13T13:27:44.237Z</time>
      </trkpt>
      <trkpt lat="48.08546" lon="-2.94685">
        <ele>110.146201</ele>
        <time>2022-12-13T13:27:47.212Z</time>
      </trkpt>
      <trkpt lat="48.08549" lon="-2.94669">
        <ele>110.055359</ele>
        <time>2022-12-13T13:27:50.220Z</time>
      </trkpt>
      <trkpt lat="48.08551" lon="-2.94653">
        <ele>110.044627</ele>
        <time>2022-12-13T13:27:53.213Z</time>
      </trkpt>
      <trkpt lat="48.08554" lon="-2.94636">
        <ele>110.317318</ele>
        <time>2022-12-13T13:27:56.225Z</time>
      </trkpt>
      <trkpt lat="48.08555" lon="-2.94619">
        <ele>110.603727</ele>
        <time>2022-12-13T13:27:59.224Z</time>
      </trkpt>
      <trkpt lat="48.08557" lon="-2.94602">
        <ele>110.878141</ele>
        <time>2022-12-13T13:28:02.228Z</time>
      </trkpt>
      <trkpt lat="48.08558" lon="-2.94585">
        <ele>111.149394</ele>
        <time>2022-12-13T13:28:05.218Z</time>
      </trkpt>
      <trkpt lat="48.0856" lon="-2.94569">
        <ele>111.407107</ele>
        <time>2022-12-13T13:28:08.229Z</time>
      </trkpt>
      <trkpt lat="48.08562" lon="-2.94553">
        <ele>111.661689</ele>
        <time>2022-12-13T13:28:11.218Z</time>
      </trkpt>
      <trkpt lat="48.08564" lon="-2.94537">
        <ele>111.923447</ele>
        <time>2022-12-13T13:28:14.230Z</time>
      </trkpt>
      <trkpt lat="48.08566" lon="-2.94521">
        <ele>112.179566</ele>
        <time>2022-12-13T13:28:17.216Z</time>
      </trkpt>
      <trkpt lat="48.08567" lon="-2.94507">
        <ele>112.41043</ele>
        <time>2022-12-13T13:28:20.213Z</time>
      </trkpt>
      <trkpt lat="48.08569" lon="-2.94492">
        <ele>112.645793</ele>
        <time>2022-12-13T13:28:23.223Z</time>
      </trkpt>
      <trkpt lat="48.08571" lon="-2.94476">
        <ele>112.909349</ele>
        <time>2022-12-13T13:28:27.217Z</time>
      </trkpt>
      <trkpt lat="48.08572" lon="-2.94462">
        <ele>113.137335</ele>
        <time>2022-12-13T13:28:31.218Z</time>
      </trkpt>
      <trkpt lat="48.08575" lon="-2.94445">
        <ele>113.413571</ele>
        <time>2022-12-13T13:28:35.232Z</time>
      </trkpt>
      <trkpt lat="48.08576" lon="-2.94429">
        <ele>113.66654</ele>
        <time>2022-12-13T13:28:39.216Z</time>
      </trkpt>
      <trkpt lat="48.08577" lon="-2.94415">
        <ele>113.892656</ele>
        <time>2022-12-13T13:28:42.232Z</time>
      </trkpt>
      <trkpt lat="48.08578" lon="-2.94399">
        <ele>114.139833</ele>
        <time>2022-12-13T13:28:46.229Z</time>
      </trkpt>
      <trkpt lat="48.08579" lon="-2.94384">
        <ele>114.255989</ele>
        <time>2022-12-13T13:28:50.212Z</time>
      </trkpt>
      <trkpt lat="48.08582" lon="-2.94367">
        <ele>114.212976</ele>
        <time>2022-12-13T13:28:53.219Z</time>
      </trkpt>
      <trkpt lat="48.08583" lon="-2.9435">
        <ele>114.17098</ele>
        <time>2022-12-13T13:28:56.225Z</time>
      </trkpt>
      <trkpt lat="48.08585" lon="-2.94336">
        <ele>114.134197</ele>
        <time>2022-12-13T13:28:59.229Z</time>
      </trkpt>
      <trkpt lat="48.08587" lon="-2.94321">
        <ele>114.097797</ele>
        <time>2022-12-13T13:29:02.211Z</time>
      </trkpt>
      <trkpt lat="48.08591" lon="-2.94304">
        <ele>114.052464</ele>
        <time>2022-12-13T13:29:06.200Z</time>
      </trkpt>
      <trkpt lat="48.08595" lon="-2.9429">
        <ele>114.014715</ele>
        <time>2022-12-13T13:29:09.220Z</time>
      </trkpt>
      <trkpt lat="48.086" lon="-2.94275">
        <ele>113.972092</ele>
        <time>2022-12-13T13:29:12.223Z</time>
      </trkpt>
      <trkpt lat="48.08606" lon="-2.94259">
        <ele>113.927393</ele>
        <time>2022-12-13T13:29:15.221Z</time>
      </trkpt>
      <trkpt lat="48.08612" lon="-2.94246">
        <ele>113.886324</ele>
        <time>2022-12-13T13:29:18.221Z</time>
      </trkpt>
      <trkpt lat="48.08617" lon="-2.94235">
        <ele>113.852377</ele>
        <time>2022-12-13T13:29:21.215Z</time>
      </trkpt>
      <trkpt lat="48.08624" lon="-2.94224">
        <ele>113.815756</ele>
        <time>2022-12-13T13:29:25.214Z</time>
      </trkpt>
      <trkpt lat="48.08633" lon="-2.94211">
        <ele>113.770741</ele>
        <time>2022-12-13T13:29:29.218Z</time>
      </trkpt>
      <trkpt lat="48.08639" lon="-2.942">
        <ele>113.733432</ele>
        <time>2022-12-13T13:29:32.224Z</time>
      </trkpt>
      <trkpt lat="48.08647" lon="-2.94188">
        <ele>113.691048</ele>
        <time>2022-12-13T13:29:35.223Z</time>
      </trkpt>
      <trkpt lat="48.08656" lon="-2.94175">
        <ele>113.646821</ele>
        <time>2022-12-13T13:29:38.220Z</time>
      </trkpt>
      <trkpt lat="48.08664" lon="-2.94162">
        <ele>113.618887</ele>
        <time>2022-12-13T13:29:41.228Z</time>
      </trkpt>
      <trkpt lat="48.08671" lon="-2.9415">
        <ele>113.797788</ele>
        <time>2022-12-13T13:29:44.218Z</time>
      </trkpt>
      <trkpt lat="48.08679" lon="-2.94139">
        <ele>113.976821</ele>
        <time>2022-12-13T13:29:47.221Z</time>
      </trkpt>
      <trkpt lat="48.08687" lon="-2.94126">
        <ele>114.163323</ele>
        <time>2022-12-13T13:29:50.205Z</time>
      </trkpt>
      <trkpt lat="48.08696" lon="-2.94114">
        <ele>114.36595</ele>
        <time>2022-12-13T13:29:53.227Z</time>
      </trkpt>
      <trkpt lat="48.08703" lon="-2.94102">
        <ele>114.549268</ele>
        <time>2022-12-13T13:29:56.224Z</time>
      </trkpt>
      <trkpt lat="48.08712" lon="-2.94088">
        <ele>114.757985</ele>
        <time>2022-12-13T13:29:59.233Z</time>
      </trkpt>
      <trkpt lat="48.08719" lon="-2.94075">
        <ele>114.939645</ele>
        <time>2022-12-13T13:30:02.214Z</time>
      </trkpt>
      <trkpt lat="48.08727" lon="-2.94061">
        <ele>115.150996</ele>
        <time>2022-12-13T13:30:05.227Z</time>
      </trkpt>
      <trkpt lat="48.08734" lon="-2.94047">
        <ele>115.333868</ele>
        <time>2022-12-13T13:30:08.235Z</time>
      </trkpt>
      <trkpt lat="48.08742" lon="-2.94035">
        <ele>115.525435</ele>
        <time>2022-12-13T13:30:11.232Z</time>
      </trkpt>
      <trkpt lat="48.08751" lon="-2.94024">
        <ele>115.717646</ele>
        <time>2022-12-13T13:30:14.236Z</time>
      </trkpt>
      <trkpt lat="48.0876" lon="-2.94011">
        <ele>115.933507</ele>
        <time>2022-12-13T13:30:17.231Z</time>
      </trkpt>
      <trkpt lat="48.08769" lon="-2.93998">
        <ele>116.137602</ele>
        <time>2022-12-13T13:30:20.229Z</time>
      </trkpt>
      <trkpt lat="48.08775" lon="-2.93986">
        <ele>116.310447</ele>
        <time>2022-12-13T13:30:23.229Z</time>
      </trkpt>
      <trkpt lat="48.08782" lon="-2.93974">
        <ele>116.48548</ele>
        <time>2022-12-13T13:30:26.296Z</time>
      </trkpt>
      <trkpt lat="48.0879" lon="-2.93961">
        <ele>116.697001</ele>
        <time>2022-12-13T13:30:29.233Z</time>
      </trkpt>
      <trkpt lat="48.08798" lon="-2.93949">
        <ele>116.926637</ele>
        <time>2022-12-13T13:30:32.222Z</time>
      </trkpt>
      <trkpt lat="48.08805" lon="-2.93939">
        <ele>117.115658</ele>
        <time>2022-12-13T13:30:35.232Z</time>
      </trkpt>
      <trkpt lat="48.08812" lon="-2.93928">
        <ele>117.327874</ele>
        <time>2022-12-13T13:30:38.234Z</time>
      </trkpt>
      <trkpt lat="48.0882" lon="-2.93916">
        <ele>117.542439</ele>
        <time>2022-12-13T13:30:41.233Z</time>
      </trkpt>
      <trkpt lat="48.08827" lon="-2.93903">
        <ele>117.766564</ele>
        <time>2022-12-13T13:30:44.233Z</time>
      </trkpt>
      <trkpt lat="48.08836" lon="-2.93888">
        <ele>118.02969</ele>
        <time>2022-12-13T13:30:47.237Z</time>
      </trkpt>
      <trkpt lat="48.08845" lon="-2.93875">
        <ele>118.285775</ele>
        <time>2022-12-13T13:30:50.238Z</time>
      </trkpt>
      <trkpt lat="48.08853" lon="-2.93861">
        <ele>118.543337</ele>
        <time>2022-12-13T13:30:53.233Z</time>
      </trkpt>
      <trkpt lat="48.08862" lon="-2.93848">
        <ele>118.777695</ele>
        <time>2022-12-13T13:30:56.228Z</time>
      </trkpt>
      <trkpt lat="48.08869" lon="-2.93835">
        <ele>119.012441</ele>
        <time>2022-12-13T13:30:59.233Z</time>
      </trkpt>
      <trkpt lat="48.08878" lon="-2.93822">
        <ele>119.26712</ele>
        <time>2022-12-13T13:31:02.212Z</time>
      </trkpt>
      <trkpt lat="48.08885" lon="-2.93812">
        <ele>119.449059</ele>
        <time>2022-12-13T13:31:04.234Z</time>
      </trkpt>
      <trkpt lat="48.08893" lon="-2.93799">
        <ele>119.687264</ele>
        <time>2022-12-13T13:31:07.233Z</time>
      </trkpt>
      <trkpt lat="48.089" lon="-2.93785">
        <ele>119.923984</ele>
        <time>2022-12-13T13:31:10.222Z</time>
      </trkpt>
      <trkpt lat="48.08908" lon="-2.93774">
        <ele>120.144794</ele>
        <time>2022-12-13T13:31:13.233Z</time>
      </trkpt>
      <trkpt lat="48.08916" lon="-2.93763">
        <ele>120.213797</ele>
        <time>2022-12-13T13:31:16.239Z</time>
      </trkpt>
      <trkpt lat="48.08923" lon="-2.93752">
        <ele>120.242375</ele>
        <time>2022-12-13T13:31:19.234Z</time>
      </trkpt>
      <trkpt lat="48.08932" lon="-2.93741">
        <ele>120.273222</ele>
        <time>2022-12-13T13:31:22.277Z</time>
      </trkpt>
      <trkpt lat="48.08941" lon="-2.93732">
        <ele>120.304622</ele>
        <time>2022-12-13T13:31:25.235Z</time>
      </trkpt>
      <trkpt lat="48.08951" lon="-2.93725">
        <ele>120.334598</ele>
        <time>2022-12-13T13:31:28.238Z</time>
      </trkpt>
      <trkpt lat="48.08962" lon="-2.93719">
        <ele>120.366373</ele>
        <time>2022-12-13T13:31:31.241Z</time>
      </trkpt>
      <trkpt lat="48.08973" lon="-2.93715">
        <ele>120.397413</ele>
        <time>2022-12-13T13:31:34.240Z</time>
      </trkpt>
      <trkpt lat="48.08983" lon="-2.93713">
        <ele>120.425867</ele>
        <time>2022-12-13T13:31:38.235Z</time>
      </trkpt>
      <trkpt lat="48.08994" lon="-2.93711">
        <ele>120.454642</ele>
        <time>2022-12-13T13:31:42.212Z</time>
      </trkpt>
      <trkpt lat="48.09004" lon="-2.93709">
        <ele>120.48364</ele>
        <time>2022-12-13T13:31:46.235Z</time>
      </trkpt>
      <trkpt lat="48.09016" lon="-2.93707">
        <ele>120.515179</ele>
        <time>2022-12-13T13:31:50.223Z</time>
      </trkpt>
      <trkpt lat="48.09025" lon="-2.93706">
        <ele>120.540724</ele>
        <time>2022-12-13T13:31:53.233Z</time>
      </trkpt>
      <trkpt lat="48.09034" lon="-2.93704">
        <ele>120.565895</ele>
        <time>2022-12-13T13:31:56.224Z</time>
      </trkpt>
      <trkpt lat="48.09046" lon="-2.93701">
        <ele>120.598029</ele>
        <time>2022-12-13T13:31:59.277Z</time>
      </trkpt>
      <trkpt lat="48.09057" lon="-2.93699">
        <ele>120.628093</ele>
        <time>2022-12-13T13:32:02.210Z</time>
      </trkpt>
      <trkpt lat="48.09069" lon="-2.93697">
        <ele>120.661311</ele>
        <time>2022-12-13T13:32:05.214Z</time>
      </trkpt>
      <trkpt lat="48.0908" lon="-2.93696">
        <ele>120.698422</ele>
        <time>2022-12-13T13:32:08.226Z</time>
      </trkpt>
      <trkpt lat="48.0909" lon="-2.93694">
        <ele>120.738108</ele>
        <time>2022-12-13T13:32:10.207Z</time>
      </trkpt>
      <trkpt lat="48.09101" lon="-2.93691">
        <ele>120.784448</ele>
        <time>2022-12-13T13:32:13.224Z</time>
      </trkpt>
      <trkpt lat="48.09111" lon="-2.93689">
        <ele>120.828494</ele>
        <time>2022-12-13T13:32:16.230Z</time>
      </trkpt>
      <trkpt lat="48.09123" lon="-2.93687">
        <ele>120.880188</ele>
        <time>2022-12-13T13:32:19.210Z</time>
      </trkpt>
      <trkpt lat="48.09135" lon="-2.93684">
        <ele>120.928626</ele>
        <time>2022-12-13T13:32:22.219Z</time>
      </trkpt>
      <trkpt lat="48.09147" lon="-2.93682">
        <ele>120.981893</ele>
        <time>2022-12-13T13:32:25.204Z</time>
      </trkpt>
      <trkpt lat="48.0916" lon="-2.9368">
        <ele>121.037252</ele>
        <time>2022-12-13T13:32:28.236Z</time>
      </trkpt>
      <trkpt lat="48.09173" lon="-2.93678">
        <ele>121.089399</ele>
        <time>2022-12-13T13:32:31.214Z</time>
      </trkpt>
      <trkpt lat="48.09186" lon="-2.93675">
        <ele>121.145408</ele>
        <time>2022-12-13T13:32:34.229Z</time>
      </trkpt>
      <trkpt lat="48.09198" lon="-2.93673">
        <ele>121.197453</ele>
        <time>2022-12-13T13:32:37.231Z</time>
      </trkpt>
      <trkpt lat="48.09209" lon="-2.9367">
        <ele>121.241827</ele>
        <time>2022-12-13T13:32:40.228Z</time>
      </trkpt>
      <trkpt lat="48.09219" lon="-2.93669">
        <ele>121.285809</ele>
        <time>2022-12-13T13:32:43.232Z</time>
      </trkpt>
      <trkpt lat="48.0923" lon="-2.93666">
        <ele>121.334746</ele>
        <time>2022-12-13T13:32:46.216Z</time>
      </trkpt>
      <trkpt lat="48.09242" lon="-2.93665">
        <ele>121.382811</ele>
        <time>2022-12-13T13:32:49.280Z</time>
      </trkpt>
      <trkpt lat="48.09253" lon="-2.93662">
        <ele>121.431748</ele>
        <time>2022-12-13T13:32:52.235Z</time>
      </trkpt>
      <trkpt lat="48.09265" lon="-2.9366">
        <ele>121.615117</ele>
        <time>2022-12-13T13:32:55.213Z</time>
      </trkpt>
      <trkpt lat="48.09275" lon="-2.93658">
        <ele>121.816358</ele>
        <time>2022-12-13T13:32:58.232Z</time>
      </trkpt>
      <trkpt lat="48.09287" lon="-2.93656">
        <ele>122.042036</ele>
        <time>2022-12-13T13:33:01.230Z</time>
      </trkpt>
      <trkpt lat="48.09299" lon="-2.93655">
        <ele>122.279119</ele>
        <time>2022-12-13T13:33:04.232Z</time>
      </trkpt>
      <trkpt lat="48.09311" lon="-2.93653">
        <ele>122.498604</ele>
        <time>2022-12-13T13:33:07.234Z</time>
      </trkpt>
      <trkpt lat="48.09321" lon="-2.9365">
        <ele>122.707363</ele>
        <time>2022-12-13T13:33:10.233Z</time>
      </trkpt>
      <trkpt lat="48.0933" lon="-2.93648">
        <ele>122.879343</ele>
        <time>2022-12-13T13:33:12.215Z</time>
      </trkpt>
      <trkpt lat="48.09339" lon="-2.93646">
        <ele>123.050401</ele>
        <time>2022-12-13T13:33:14.233Z</time>
      </trkpt>
      <trkpt lat="48.09349" lon="-2.93644">
        <ele>123.230325</ele>
        <time>2022-12-13T13:33:16.234Z</time>
      </trkpt>
      <trkpt lat="48.09361" lon="-2.93641">
        <ele>123.476774</ele>
        <time>2022-12-13T13:33:19.233Z</time>
      </trkpt>
      <trkpt lat="48.09371" lon="-2.93639">
        <ele>123.667067</ele>
        <time>2022-12-13T13:33:21.238Z</time>
      </trkpt>
      <trkpt lat="48.09382" lon="-2.93638">
        <ele>123.878832</ele>
        <time>2022-12-13T13:33:24.233Z</time>
      </trkpt>
      <trkpt lat="48.09393" lon="-2.9364">
        <ele>124.089667</ele>
        <time>2022-12-13T13:33:27.233Z</time>
      </trkpt>
      <trkpt lat="48.09402" lon="-2.93643">
        <ele>124.263055</ele>
        <time>2022-12-13T13:33:30.235Z</time>
      </trkpt>
      <trkpt lat="48.09412" lon="-2.93643">
        <ele>124.449937</ele>
        <time>2022-12-13T13:33:33.232Z</time>
      </trkpt>
      <trkpt lat="48.09422" lon="-2.93643">
        <ele>124.648418</ele>
        <time>2022-12-13T13:33:36.229Z</time>
      </trkpt>
      <trkpt lat="48.09434" lon="-2.93643">
        <ele>124.871465</ele>
        <time>2022-12-13T13:33:39.213Z</time>
      </trkpt>
      <trkpt lat="48.09446" lon="-2.93643">
        <ele>124.909726</ele>
        <time>2022-12-13T13:33:42.231Z</time>
      </trkpt>
      <trkpt lat="48.09457" lon="-2.93644">
        <ele>124.946698</ele>
        <time>2022-12-13T13:33:45.232Z</time>
      </trkpt>
      <trkpt lat="48.09468" lon="-2.93644">
        <ele>124.981363</ele>
        <time>2022-12-13T13:33:48.234Z</time>
      </trkpt>
      <trkpt lat="48.09479" lon="-2.93644">
        <ele>125.018345</ele>
        <time>2022-12-13T13:33:52.237Z</time>
      </trkpt>
      <trkpt lat="48.09488" lon="-2.93644">
        <ele>125.049068</ele>
        <time>2022-12-13T13:33:55.266Z</time>
      </trkpt>
      <trkpt lat="48.095" lon="-2.93645">
        <ele>125.086348</ele>
        <time>2022-12-13T13:33:59.236Z</time>
      </trkpt>
      <trkpt lat="48.09512" lon="-2.93645">
        <ele>125.126918</ele>
        <time>2022-12-13T13:34:03.229Z</time>
      </trkpt>
      <trkpt lat="48.09522" lon="-2.93646">
        <ele>125.161978</ele>
        <time>2022-12-13T13:34:06.284Z</time>
      </trkpt>
      <trkpt lat="48.09532" lon="-2.93647">
        <ele>125.193373</ele>
        <time>2022-12-13T13:34:09.214Z</time>
      </trkpt>
      <trkpt lat="48.09541" lon="-2.93648">
        <ele>125.223077</ele>
        <time>2022-12-13T13:34:12.276Z</time>
      </trkpt>
      <trkpt lat="48.09551" lon="-2.93648">
        <ele>125.257384</ele>
        <time>2022-12-13T13:34:15.247Z</time>
      </trkpt>
      <trkpt lat="48.09564" lon="-2.93649">
        <ele>125.299713</ele>
        <time>2022-12-13T13:34:19.234Z</time>
      </trkpt>
      <trkpt lat="48.09575" lon="-2.9365">
        <ele>125.334369</ele>
        <time>2022-12-13T13:34:22.238Z</time>
      </trkpt>
      <trkpt lat="48.09585" lon="-2.93651">
        <ele>125.367167</ele>
        <time>2022-12-13T13:34:25.234Z</time>
      </trkpt>
      <trkpt lat="48.09596" lon="-2.93651">
        <ele>125.403793</ele>
        <time>2022-12-13T13:34:28.233Z</time>
      </trkpt>
      <trkpt lat="48.09606" lon="-2.93652">
        <ele>125.437538</ele>
        <time>2022-12-13T13:34:31.237Z</time>
      </trkpt>
      <trkpt lat="48.09616" lon="-2.93653">
        <ele>125.415208</ele>
        <time>2022-12-13T13:34:34.275Z</time>
      </trkpt>
      <trkpt lat="48.09626" lon="-2.93654">
        <ele>125.208655</ele>
        <time>2022-12-13T13:34:37.229Z</time>
      </trkpt>
      <trkpt lat="48.09638" lon="-2.93654">
        <ele>124.97201</ele>
        <time>2022-12-13T13:34:40.235Z</time>
      </trkpt>
      <trkpt lat="48.0965" lon="-2.93655">
        <ele>124.710494</ele>
        <time>2022-12-13T13:34:43.232Z</time>
      </trkpt>
      <trkpt lat="48.09663" lon="-2.93656">
        <ele>124.448635</ele>
        <time>2022-12-13T13:34:46.228Z</time>
      </trkpt>
      <trkpt lat="48.09676" lon="-2.93658">
        <ele>124.183947</ele>
        <time>2022-12-13T13:34:49.240Z</time>
      </trkpt>
      <trkpt lat="48.09686" lon="-2.93663">
        <ele>123.961554</ele>
        <time>2022-12-13T13:34:52.235Z</time>
      </trkpt>
      <trkpt lat="48.09696" lon="-2.93668">
        <ele>123.75146</ele>
        <time>2022-12-13T13:34:55.236Z</time>
      </trkpt>
      <trkpt lat="48.09706" lon="-2.93675">
        <ele>123.522438</ele>
        <time>2022-12-13T13:34:58.231Z</time>
      </trkpt>
      <trkpt lat="48.09716" lon="-2.93682">
        <ele>123.295118</ele>
        <time>2022-12-13T13:35:01.282Z</time>
      </trkpt>
      <trkpt lat="48.09725" lon="-2.93689">
        <ele>123.076992</ele>
        <time>2022-12-13T13:35:04.235Z</time>
      </trkpt>
      <trkpt lat="48.09734" lon="-2.93694">
        <ele>122.881807</ele>
        <time>2022-12-13T13:35:07.229Z</time>
      </trkpt>
      <trkpt lat="48.09743" lon="-2.93699">
        <ele>122.681774</ele>
        <time>2022-12-13T13:35:10.231Z</time>
      </trkpt>
      <trkpt lat="48.09752" lon="-2.93706">
        <ele>122.477996</ele>
        <time>2022-12-13T13:35:13.236Z</time>
      </trkpt>
      <trkpt lat="48.09762" lon="-2.93711">
        <ele>122.267064</ele>
        <time>2022-12-13T13:35:16.232Z</time>
      </trkpt>
      <trkpt lat="48.0977" lon="-2.93715">
        <ele>122.08134</ele>
        <time>2022-12-13T13:35:19.234Z</time>
      </trkpt>
      <trkpt lat="48.09781" lon="-2.93722">
        <ele>121.849142</ele>
        <time>2022-12-13T13:35:23.293Z</time>
      </trkpt>
      <trkpt lat="48.0979" lon="-2.93727">
        <ele>121.958403</ele>
        <time>2022-12-13T13:35:26.235Z</time>
      </trkpt>
      <trkpt lat="48.098" lon="-2.93732">
        <ele>122.343996</ele>
        <time>2022-12-13T13:35:29.216Z</time>
      </trkpt>
      <trkpt lat="48.0981" lon="-2.93737">
        <ele>122.719314</ele>
        <time>2022-12-13T13:35:32.231Z</time>
      </trkpt>
      <trkpt lat="48.09819" lon="-2.93743">
        <ele>123.07385</ele>
        <time>2022-12-13T13:35:35.214Z</time>
      </trkpt>
      <trkpt lat="48.09829" lon="-2.93747">
        <ele>123.418597</ele>
        <time>2022-12-13T13:35:38.232Z</time>
      </trkpt>
      <trkpt lat="48.09838" lon="-2.93753">
        <ele>123.786424</ele>
        <time>2022-12-13T13:35:41.230Z</time>
      </trkpt>
      <trkpt lat="48.09849" lon="-2.93759">
        <ele>124.195861</ele>
        <time>2022-12-13T13:35:44.237Z</time>
      </trkpt>
      <trkpt lat="48.0986" lon="-2.93766">
        <ele>124.617947</ele>
        <time>2022-12-13T13:35:47.232Z</time>
      </trkpt>
      <trkpt lat="48.09872" lon="-2.93772">
        <ele>125.065662</ele>
        <time>2022-12-13T13:35:50.224Z</time>
      </trkpt>
      <trkpt lat="48.09883" lon="-2.93778">
        <ele>125.482748</ele>
        <time>2022-12-13T13:35:53.232Z</time>
      </trkpt>
      <trkpt lat="48.09894" lon="-2.93783">
        <ele>125.88115</ele>
        <time>2022-12-13T13:35:56.284Z</time>
      </trkpt>
      <trkpt lat="48.09905" lon="-2.93791">
        <ele>126.340174</ele>
        <time>2022-12-13T13:35:59.233Z</time>
      </trkpt>
      <trkpt lat="48.09917" lon="-2.93799">
        <ele>126.786009</ele>
        <time>2022-12-13T13:36:02.231Z</time>
      </trkpt>
      <trkpt lat="48.09929" lon="-2.93805">
        <ele>127.24039</ele>
        <time>2022-12-13T13:36:05.233Z</time>
      </trkpt>
      <trkpt lat="48.09941" lon="-2.93811">
        <ele>127.695313</ele>
        <time>2022-12-13T13:36:08.232Z</time>
      </trkpt>
      <trkpt lat="48.09953" lon="-2.93817">
        <ele>128.138049</ele>
        <time>2022-12-13T13:36:11.232Z</time>
      </trkpt>
      <trkpt lat="48.09963" lon="-2.93824">
        <ele>127.992016</ele>
        <time>2022-12-13T13:36:14.215Z</time>
      </trkpt>
      <trkpt lat="48.09974" lon="-2.93831">
        <ele>127.813557</ele>
        <time>2022-12-13T13:36:17.230Z</time>
      </trkpt>
      <trkpt lat="48.09986" lon="-2.93839">
        <ele>127.625463</ele>
        <time>2022-12-13T13:36:20.235Z</time>
      </trkpt>
      <trkpt lat="48.09997" lon="-2.93846">
        <ele>127.440337</ele>
        <time>2022-12-13T13:36:23.236Z</time>
      </trkpt>
      <trkpt lat="48.10008" lon="-2.93853">
        <ele>127.262455</ele>
        <time>2022-12-13T13:36:26.238Z</time>
      </trkpt>
      <trkpt lat="48.10019" lon="-2.93859">
        <ele>127.085564</ele>
        <time>2022-12-13T13:36:29.290Z</time>
      </trkpt>
      <trkpt lat="48.1003" lon="-2.93867">
        <ele>126.906454</ele>
        <time>2022-12-13T13:36:32.232Z</time>
      </trkpt>
      <trkpt lat="48.10042" lon="-2.93871">
        <ele>126.729945</ele>
        <time>2022-12-13T13:36:35.216Z</time>
      </trkpt>
      <trkpt lat="48.10053" lon="-2.93878">
        <ele>126.550496</ele>
        <time>2022-12-13T13:36:38.236Z</time>
      </trkpt>
      <trkpt lat="48.10064" lon="-2.93884">
        <ele>126.370783</ele>
        <time>2022-12-13T13:36:41.236Z</time>
      </trkpt>
      <trkpt lat="48.10076" lon="-2.93892">
        <ele>126.18153</ele>
        <time>2022-12-13T13:36:44.233Z</time>
      </trkpt>
      <trkpt lat="48.10088" lon="-2.93898">
        <ele>125.985694</ele>
        <time>2022-12-13T13:36:47.232Z</time>
      </trkpt>
      <trkpt lat="48.101" lon="-2.93905">
        <ele>125.794057</ele>
        <time>2022-12-13T13:36:50.234Z</time>
      </trkpt>
      <trkpt lat="48.10111" lon="-2.93914">
        <ele>125.601679</ele>
        <time>2022-12-13T13:36:53.237Z</time>
      </trkpt>
      <trkpt lat="48.1012" lon="-2.93919">
        <ele>125.470041</ele>
        <time>2022-12-13T13:36:55.232Z</time>
      </trkpt>
      <trkpt lat="48.10131" lon="-2.93926">
        <ele>125.492734</ele>
        <time>2022-12-13T13:36:58.232Z</time>
      </trkpt>
      <trkpt lat="48.10141" lon="-2.93932">
        <ele>125.512159</ele>
        <time>2022-12-13T13:37:01.236Z</time>
      </trkpt>
      <trkpt lat="48.10151" lon="-2.93937">
        <ele>125.531255</ele>
        <time>2022-12-13T13:37:04.232Z</time>
      </trkpt>
      <trkpt lat="48.10161" lon="-2.93943">
        <ele>125.550116</ele>
        <time>2022-12-13T13:37:07.272Z</time>
      </trkpt>
      <trkpt lat="48.10171" lon="-2.93948">
        <ele>125.568893</ele>
        <time>2022-12-13T13:37:10.233Z</time>
      </trkpt>
      <trkpt lat="48.1018" lon="-2.93953">
        <ele>125.587779</ele>
        <time>2022-12-13T13:37:13.239Z</time>
      </trkpt>
      <trkpt lat="48.10193" lon="-2.93957">
        <ele>125.610775</ele>
        <time>2022-12-13T13:37:16.235Z</time>
      </trkpt>
      <trkpt lat="48.10205" lon="-2.93961">
        <ele>125.633308</ele>
        <time>2022-12-13T13:37:19.232Z</time>
      </trkpt>
      <trkpt lat="48.10216" lon="-2.93965">
        <ele>125.653486</ele>
        <time>2022-12-13T13:37:22.233Z</time>
      </trkpt>
      <trkpt lat="48.10227" lon="-2.9397">
        <ele>125.675371</ele>
        <time>2022-12-13T13:37:25.233Z</time>
      </trkpt>
      <trkpt lat="48.10236" lon="-2.93972">
        <ele>125.691736</ele>
        <time>2022-12-13T13:37:27.212Z</time>
      </trkpt>
      <trkpt lat="48.10248" lon="-2.93978">
        <ele>125.715164</ele>
        <time>2022-12-13T13:37:30.234Z</time>
      </trkpt>
      <trkpt lat="48.10262" lon="-2.93983">
        <ele>125.740659</ele>
        <time>2022-12-13T13:37:33.213Z</time>
      </trkpt>
      <trkpt lat="48.10271" lon="-2.93988">
        <ele>125.757569</ele>
        <time>2022-12-13T13:37:35.228Z</time>
      </trkpt>
      <trkpt lat="48.10284" lon="-2.93991">
        <ele>125.781409</ele>
        <time>2022-12-13T13:37:38.234Z</time>
      </trkpt>
      <trkpt lat="48.10296" lon="-2.93995">
        <ele>125.889218</ele>
        <time>2022-12-13T13:37:41.228Z</time>
      </trkpt>
      <trkpt lat="48.10306" lon="-2.93998">
        <ele>126.144648</ele>
        <time>2022-12-13T13:37:44.290Z</time>
      </trkpt>
      <trkpt lat="48.10315" lon="-2.94002">
        <ele>126.378258</ele>
        <time>2022-12-13T13:37:47.232Z</time>
      </trkpt>
      <trkpt lat="48.10327" lon="-2.94005">
        <ele>126.656341</ele>
        <time>2022-12-13T13:37:51.211Z</time>
      </trkpt>
      <trkpt lat="48.10338" lon="-2.94009">
        <ele>126.931736</ele>
        <time>2022-12-13T13:37:55.209Z</time>
      </trkpt>
      <trkpt lat="48.10348" lon="-2.94011">
        <ele>127.180284</ele>
        <time>2022-12-13T13:37:59.212Z</time>
      </trkpt>
      <trkpt lat="48.10358" lon="-2.94015">
        <ele>127.427373</ele>
        <time>2022-12-13T13:38:03.215Z</time>
      </trkpt>
      <trkpt lat="48.10371" lon="-2.9402">
        <ele>127.747295</ele>
        <time>2022-12-13T13:38:06.238Z</time>
      </trkpt>
      <trkpt lat="48.1038" lon="-2.94023">
        <ele>127.963047</ele>
        <time>2022-12-13T13:38:08.220Z</time>
      </trkpt>
      <trkpt lat="48.10389" lon="-2.94024">
        <ele>128.189133</ele>
        <time>2022-12-13T13:38:10.232Z</time>
      </trkpt>
      <trkpt lat="48.10403" lon="-2.94028">
        <ele>128.510472</ele>
        <time>2022-12-13T13:38:13.230Z</time>
      </trkpt>
      <trkpt lat="48.10415" lon="-2.94032">
        <ele>128.80456</ele>
        <time>2022-12-13T13:38:16.276Z</time>
      </trkpt>
      <trkpt lat="48.10426" lon="-2.94035">
        <ele>129.078577</ele>
        <time>2022-12-13T13:38:19.230Z</time>
      </trkpt>
      <trkpt lat="48.10437" lon="-2.94039">
        <ele>129.362965</ele>
        <time>2022-12-13T13:38:22.216Z</time>
      </trkpt>
      <trkpt lat="48.10449" lon="-2.94043">
        <ele>129.658109</ele>
        <time>2022-12-13T13:38:25.232Z</time>
      </trkpt>
      <trkpt lat="48.10462" lon="-2.94047">
        <ele>129.973943</ele>
        <time>2022-12-13T13:38:28.230Z</time>
      </trkpt>
      <trkpt lat="48.10474" lon="-2.94052">
        <ele>129.901302</ele>
        <time>2022-12-13T13:38:31.219Z</time>
      </trkpt>
      <trkpt lat="48.10486" lon="-2.94057">
        <ele>129.543995</ele>
        <time>2022-12-13T13:38:34.234Z</time>
      </trkpt>
      <trkpt lat="48.10496" lon="-2.9406">
        <ele>129.227379</ele>
        <time>2022-12-13T13:38:37.281Z</time>
      </trkpt>
      <trkpt lat="48.10505" lon="-2.94064">
        <ele>128.949312</ele>
        <time>2022-12-13T13:38:40.224Z</time>
      </trkpt>
      <trkpt lat="48.10514" lon="-2.94068">
        <ele>128.680126</ele>
        <time>2022-12-13T13:38:43.212Z</time>
      </trkpt>
      <trkpt lat="48.10525" lon="-2.94072">
        <ele>128.337918</ele>
        <time>2022-12-13T13:38:47.223Z</time>
      </trkpt>
      <trkpt lat="48.10536" lon="-2.94077">
        <ele>128.011569</ele>
        <time>2022-12-13T13:38:51.228Z</time>
      </trkpt>
      <trkpt lat="48.10548" lon="-2.94091">
        <ele>127.553679</ele>
        <time>2022-12-13T13:41:28.264Z</time>
      </trkpt>
      <trkpt lat="48.10557" lon="-2.94092">
        <ele>127.285867</ele>
        <time>2022-12-13T13:41:31.229Z</time>
      </trkpt>
      <trkpt lat="48.10567" lon="-2.94095">
        <ele>126.989984</ele>
        <time>2022-12-13T13:41:34.228Z</time>
      </trkpt>
      <trkpt lat="48.10577" lon="-2.94098">
        <ele>126.698679</ele>
        <time>2022-12-13T13:41:37.231Z</time>
      </trkpt>
      <trkpt lat="48.10587" lon="-2.94101">
        <ele>126.405702</ele>
        <time>2022-12-13T13:41:40.207Z</time>
      </trkpt>
      <trkpt lat="48.10596" lon="-2.94102">
        <ele>126.111803</ele>
        <time>2022-12-13T13:41:43.222Z</time>
      </trkpt>
      <trkpt lat="48.10607" lon="-2.941">
        <ele>125.790541</ele>
        <time>2022-12-13T13:41:46.207Z</time>
      </trkpt>
      <trkpt lat="48.10617" lon="-2.94098">
        <ele>125.487946</ele>
        <time>2022-12-13T13:41:49.213Z</time>
      </trkpt>
      <trkpt lat="48.10628" lon="-2.94093">
        <ele>125.159114</ele>
        <time>2022-12-13T13:41:52.213Z</time>
      </trkpt>
      <trkpt lat="48.10638" lon="-2.94085">
        <ele>124.826609</ele>
        <time>2022-12-13T13:41:55.226Z</time>
      </trkpt>
      <trkpt lat="48.10648" lon="-2.94074">
        <ele>125.224441</ele>
        <time>2022-12-13T13:41:58.231Z</time>
      </trkpt>
      <trkpt lat="48.10657" lon="-2.94061">
        <ele>125.777117</ele>
        <time>2022-12-13T13:42:01.234Z</time>
      </trkpt>
      <trkpt lat="48.10664" lon="-2.94052">
        <ele>126.163842</ele>
        <time>2022-12-13T13:42:03.219Z</time>
      </trkpt>
      <trkpt lat="48.1067" lon="-2.9404">
        <ele>126.586087</ele>
        <time>2022-12-13T13:42:05.237Z</time>
      </trkpt>
      <trkpt lat="48.10676" lon="-2.94025">
        <ele>127.081722</ele>
        <time>2022-12-13T13:42:08.214Z</time>
      </trkpt>
      <trkpt lat="48.10679" lon="-2.9401">
        <ele>127.540178</ele>
        <time>2022-12-13T13:42:11.232Z</time>
      </trkpt>
      <trkpt lat="48.10682" lon="-2.93993">
        <ele>128.033102</ele>
        <time>2022-12-13T13:42:15.226Z</time>
      </trkpt>
      <trkpt lat="48.10683" lon="-2.93979">
        <ele>128.414062</ele>
        <time>2022-12-13T13:42:18.212Z</time>
      </trkpt>
      <trkpt lat="48.10684" lon="-2.93964">
        <ele>128.85146</ele>
        <time>2022-12-13T13:42:22.231Z</time>
      </trkpt>
      <trkpt lat="48.10683" lon="-2.93947">
        <ele>129.318862</ele>
        <time>2022-12-13T13:42:27.208Z</time>
      </trkpt>
      <trkpt lat="48.10682" lon="-2.93931">
        <ele>129.793652</ele>
        <time>2022-12-13T13:42:32.211Z</time>
      </trkpt>
      <trkpt lat="48.10682" lon="-2.93917">
        <ele>130.178762</ele>
        <time>2022-12-13T13:42:36.225Z</time>
      </trkpt>
      <trkpt lat="48.10682" lon="-2.93902">
        <ele>130.606684</ele>
        <time>2022-12-13T13:42:41.222Z</time>
      </trkpt>
      <trkpt lat="48.1068" lon="-2.93888">
        <ele>130.997012</ele>
        <time>2022-12-13T13:42:45.220Z</time>
      </trkpt>
      <trkpt lat="48.1068" lon="-2.93874">
        <ele>131.410787</ele>
        <time>2022-12-13T13:42:50.219Z</time>
      </trkpt>
      <trkpt lat="48.10679" lon="-2.93859">
        <ele>131.836577</ele>
        <time>2022-12-13T13:42:55.229Z</time>
      </trkpt>
      <trkpt lat="48.10677" lon="-2.93844">
        <ele>132.268905</ele>
        <time>2022-12-13T13:42:59.221Z</time>
      </trkpt>
      <trkpt lat="48.10676" lon="-2.9383">
        <ele>132.617234</ele>
        <time>2022-12-13T13:43:03.230Z</time>
      </trkpt>
      <trkpt lat="48.10673" lon="-2.93816">
        <ele>132.981354</ele>
        <time>2022-12-13T13:43:08.214Z</time>
      </trkpt>
      <trkpt lat="48.10672" lon="-2.938">
        <ele>133.363665</ele>
        <time>2022-12-13T13:43:13.234Z</time>
      </trkpt>
      <trkpt lat="48.10672" lon="-2.93785">
        <ele>133.714234</ele>
        <time>2022-12-13T13:43:18.229Z</time>
      </trkpt>
      <trkpt lat="48.10671" lon="-2.93771">
        <ele>134.057875</ele>
        <time>2022-12-13T13:43:23.231Z</time>
      </trkpt>
      <trkpt lat="48.1067" lon="-2.93757">
        <ele>134.394539</ele>
        <time>2022-12-13T13:43:28.207Z</time>
      </trkpt>
      <trkpt lat="48.1067" lon="-2.93738">
        <ele>134.831106</ele>
        <time>2022-12-13T13:43:32.212Z</time>
      </trkpt>
      <trkpt lat="48.1067" lon="-2.93725">
        <ele>135.157779</ele>
        <time>2022-12-13T13:43:35.211Z</time>
      </trkpt>
      <trkpt lat="48.10669" lon="-2.93709">
        <ele>135.523018</ele>
        <time>2022-12-13T13:43:38.210Z</time>
      </trkpt>
      <trkpt lat="48.10669" lon="-2.93695">
        <ele>135.874169</ele>
        <time>2022-12-13T13:43:41.222Z</time>
      </trkpt>
      <trkpt lat="48.10667" lon="-2.93678">
        <ele>136.282154</ele>
        <time>2022-12-13T13:43:44.229Z</time>
      </trkpt>
      <trkpt lat="48.10667" lon="-2.93663">
        <ele>136.622251</ele>
        <time>2022-12-13T13:43:48.203Z</time>
      </trkpt>
      <trkpt lat="48.10667" lon="-2.93647">
        <ele>137.006146</ele>
        <time>2022-12-13T13:43:52.207Z</time>
      </trkpt>
      <trkpt lat="48.10667" lon="-2.93631">
        <ele>137.390438</ele>
        <time>2022-12-13T13:43:56.230Z</time>
      </trkpt>
      <trkpt lat="48.10667" lon="-2.93614">
        <ele>137.810627</ele>
        <time>2022-12-13T13:44:00.225Z</time>
      </trkpt>
      <trkpt lat="48.10667" lon="-2.93595">
        <ele>138.251786</ele>
        <time>2022-12-13T13:44:04.214Z</time>
      </trkpt>
      <trkpt lat="48.10667" lon="-2.93581">
        <ele>138.585669</ele>
        <time>2022-12-13T13:44:07.230Z</time>
      </trkpt>
      <trkpt lat="48.10668" lon="-2.93567">
        <ele>138.800501</ele>
        <time>2022-12-13T13:44:10.232Z</time>
      </trkpt>
      <trkpt lat="48.1067" lon="-2.9355">
        <ele>138.672733</ele>
        <time>2022-12-13T13:44:14.226Z</time>
      </trkpt>
      <trkpt lat="48.10671" lon="-2.93534">
        <ele>138.548523</ele>
        <time>2022-12-13T13:44:18.230Z</time>
      </trkpt>
      <trkpt lat="48.10672" lon="-2.93517">
        <ele>138.421715</ele>
        <time>2022-12-13T13:44:22.230Z</time>
      </trkpt>
      <trkpt lat="48.10674" lon="-2.935">
        <ele>138.29427</ele>
        <time>2022-12-13T13:44:25.229Z</time>
      </trkpt>
      <trkpt lat="48.10676" lon="-2.93484">
        <ele>138.175754</ele>
        <time>2022-12-13T13:44:28.230Z</time>
      </trkpt>
      <trkpt lat="48.10677" lon="-2.93469">
        <ele>138.065531</ele>
        <time>2022-12-13T13:44:31.234Z</time>
      </trkpt>
      <trkpt lat="48.10678" lon="-2.93455">
        <ele>137.961642</ele>
        <time>2022-12-13T13:44:34.221Z</time>
      </trkpt>
      <trkpt lat="48.10678" lon="-2.93442">
        <ele>137.859497</ele>
        <time>2022-12-13T13:44:37.232Z</time>
      </trkpt>
      <trkpt lat="48.10678" lon="-2.93427">
        <ele>137.748471</ele>
        <time>2022-12-13T13:44:41.233Z</time>
      </trkpt>
      <trkpt lat="48.10679" lon="-2.93411">
        <ele>137.630262</ele>
        <time>2022-12-13T13:44:45.232Z</time>
      </trkpt>
      <trkpt lat="48.1068" lon="-2.93394">
        <ele>137.504995</ele>
        <time>2022-12-13T13:44:49.228Z</time>
      </trkpt>
      <trkpt lat="48.10681" lon="-2.93377">
        <ele>137.37794</ele>
        <time>2022-12-13T13:44:53.209Z</time>
      </trkpt>
      <trkpt lat="48.10682" lon="-2.93359">
        <ele>137.245519</ele>
        <time>2022-12-13T13:44:57.226Z</time>
      </trkpt>
      <trkpt lat="48.10683" lon="-2.93345">
        <ele>137.140204</ele>
        <time>2022-12-13T13:45:00.233Z</time>
      </trkpt>
      <trkpt lat="48.10683" lon="-2.9333">
        <ele>137.034359</ele>
        <time>2022-12-13T13:45:03.227Z</time>
      </trkpt>
      <trkpt lat="48.10683" lon="-2.93315">
        <ele>136.924072</ele>
        <time>2022-12-13T13:45:06.233Z</time>
      </trkpt>
      <trkpt lat="48.10682" lon="-2.933">
        <ele>136.874459</ele>
        <time>2022-12-13T13:45:09.210Z</time>
      </trkpt>
      <trkpt lat="48.10681" lon="-2.93286">
        <ele>137.061587</ele>
        <time>2022-12-13T13:45:12.212Z</time>
      </trkpt>
      <trkpt lat="48.1068" lon="-2.93271">
        <ele>137.2756</ele>
        <time>2022-12-13T13:45:16.220Z</time>
      </trkpt>
      <trkpt lat="48.10678" lon="-2.93253">
        <ele>137.521524</ele>
        <time>2022-12-13T13:45:20.232Z</time>
      </trkpt>
      <trkpt lat="48.10677" lon="-2.93237">
        <ele>137.733934</ele>
        <time>2022-12-13T13:45:23.234Z</time>
      </trkpt>
      <trkpt lat="48.10675" lon="-2.93224">
        <ele>137.916776</ele>
        <time>2022-12-13T13:45:26.233Z</time>
      </trkpt>
      <trkpt lat="48.10673" lon="-2.93208">
        <ele>138.138864</ele>
        <time>2022-12-13T13:45:30.229Z</time>
      </trkpt>
      <trkpt lat="48.10671" lon="-2.93192">
        <ele>138.361027</ele>
        <time>2022-12-13T13:45:34.207Z</time>
      </trkpt>
      <trkpt lat="48.1067" lon="-2.93177">
        <ele>138.562935</ele>
        <time>2022-12-13T13:45:38.218Z</time>
      </trkpt>
      <trkpt lat="48.10668" lon="-2.93164">
        <ele>138.748458</ele>
        <time>2022-12-13T13:45:42.214Z</time>
      </trkpt>
      <trkpt lat="48.10665" lon="-2.93148">
        <ele>138.970184</ele>
        <time>2022-12-13T13:45:46.229Z</time>
      </trkpt>
      <trkpt lat="48.10664" lon="-2.93134">
        <ele>139.159999</ele>
        <time>2022-12-13T13:45:49.231Z</time>
      </trkpt>
      <trkpt lat="48.10662" lon="-2.9312">
        <ele>139.348015</ele>
        <time>2022-12-13T13:45:52.233Z</time>
      </trkpt>
      <trkpt lat="48.1066" lon="-2.93106">
        <ele>139.548134</ele>
        <time>2022-12-13T13:45:55.240Z</time>
      </trkpt>
      <trkpt lat="48.10658" lon="-2.93091">
        <ele>139.752242</ele>
        <time>2022-12-13T13:45:58.230Z</time>
      </trkpt>
      <trkpt lat="48.10656" lon="-2.93076">
        <ele>139.956263</ele>
        <time>2022-12-13T13:46:01.221Z</time>
      </trkpt>
      <trkpt lat="48.10654" lon="-2.93062">
        <ele>140.15334</ele>
        <time>2022-12-13T13:46:04.214Z</time>
      </trkpt>
      <trkpt lat="48.10653" lon="-2.93046">
        <ele>140.36679</ele>
        <time>2022-12-13T13:46:07.227Z</time>
      </trkpt>
      <trkpt lat="48.10651" lon="-2.93031">
        <ele>140.597507</ele>
        <time>2022-12-13T13:46:10.220Z</time>
      </trkpt>
      <trkpt lat="48.1065" lon="-2.93017">
        <ele>140.846908</ele>
        <time>2022-12-13T13:46:13.217Z</time>
      </trkpt>
      <trkpt lat="48.10649" lon="-2.93003">
        <ele>141.088833</ele>
        <time>2022-12-13T13:46:16.217Z</time>
      </trkpt>
      <trkpt lat="48.10648" lon="-2.92986">
        <ele>141.384933</ele>
        <time>2022-12-13T13:46:20.233Z</time>
      </trkpt>
      <trkpt lat="48.10645" lon="-2.92971">
        <ele>141.655824</ele>
        <time>2022-12-13T13:46:24.233Z</time>
      </trkpt>
      <trkpt lat="48.10642" lon="-2.92957">
        <ele>141.914347</ele>
        <time>2022-12-13T13:46:28.232Z</time>
      </trkpt>
      <trkpt lat="48.1064" lon="-2.92942">
        <ele>142.172246</ele>
        <time>2022-12-13T13:46:32.231Z</time>
      </trkpt>
      <trkpt lat="48.10637" lon="-2.92928">
        <ele>142.420372</ele>
        <time>2022-12-13T13:46:36.234Z</time>
      </trkpt>
      <trkpt lat="48.10634" lon="-2.92913">
        <ele>142.700334</ele>
        <time>2022-12-13T13:46:40.225Z</time>
      </trkpt>
      <trkpt lat="48.1063" lon="-2.92898">
        <ele>142.979419</ele>
        <time>2022-12-13T13:46:44.236Z</time>
      </trkpt>
      <trkpt lat="48.10626" lon="-2.92883">
        <ele>143.252193</ele>
        <time>2022-12-13T13:46:48.231Z</time>
      </trkpt>
      <trkpt lat="48.10623" lon="-2.92869">
        <ele>143.519764</ele>
        <time>2022-12-13T13:46:52.206Z</time>
      </trkpt>
      <trkpt lat="48.10619" lon="-2.92854">
        <ele>143.795093</ele>
        <time>2022-12-13T13:46:56.227Z</time>
      </trkpt>
      <trkpt lat="48.10615" lon="-2.92839">
        <ele>144.075982</ele>
        <time>2022-12-13T13:47:00.234Z</time>
      </trkpt>
      <trkpt lat="48.10611" lon="-2.92825">
        <ele>144.344273</ele>
        <time>2022-12-13T13:47:04.220Z</time>
      </trkpt>
      <trkpt lat="48.10606" lon="-2.92811">
        <ele>144.613026</ele>
        <time>2022-12-13T13:47:08.235Z</time>
      </trkpt>
      <trkpt lat="48.10602" lon="-2.92795">
        <ele>144.902491</ele>
        <time>2022-12-13T13:47:12.235Z</time>
      </trkpt>
      <trkpt lat="48.10598" lon="-2.9278">
        <ele>145.189277</ele>
        <time>2022-12-13T13:47:16.202Z</time>
      </trkpt>
      <trkpt lat="48.10595" lon="-2.92763">
        <ele>145.518092</ele>
        <time>2022-12-13T13:47:20.227Z</time>
      </trkpt>
      <trkpt lat="48.10591" lon="-2.92746">
        <ele>145.856931</ele>
        <time>2022-12-13T13:47:24.231Z</time>
      </trkpt>
      <trkpt lat="48.10589" lon="-2.92731">
        <ele>146.162501</ele>
        <time>2022-12-13T13:47:28.232Z</time>
      </trkpt>
      <trkpt lat="48.10586" lon="-2.92718">
        <ele>146.420497</ele>
        <time>2022-12-13T13:47:31.224Z</time>
      </trkpt>
      <trkpt lat="48.10585" lon="-2.92701">
        <ele>146.735658</ele>
        <time>2022-12-13T13:47:35.228Z</time>
      </trkpt>
      <trkpt lat="48.10582" lon="-2.92685">
        <ele>147.046146</ele>
        <time>2022-12-13T13:47:39.229Z</time>
      </trkpt>
      <trkpt lat="48.10579" lon="-2.92669">
        <ele>147.364173</ele>
        <time>2022-12-13T13:47:43.225Z</time>
      </trkpt>
      <trkpt lat="48.10577" lon="-2.92652">
        <ele>147.691084</ele>
        <time>2022-12-13T13:47:47.230Z</time>
      </trkpt>
      <trkpt lat="48.10576" lon="-2.92635">
        <ele>148.016197</ele>
        <time>2022-12-13T13:47:51.228Z</time>
      </trkpt>
      <trkpt lat="48.10574" lon="-2.92619">
        <ele>148.341233</ele>
        <time>2022-12-13T13:47:55.234Z</time>
      </trkpt>
      <trkpt lat="48.10573" lon="-2.92601">
        <ele>148.682759</ele>
        <time>2022-12-13T13:47:59.216Z</time>
      </trkpt>
      <trkpt lat="48.10574" lon="-2.92583">
        <ele>149.018581</ele>
        <time>2022-12-13T13:48:03.237Z</time>
      </trkpt>
      <trkpt lat="48.10576" lon="-2.92567">
        <ele>149.323872</ele>
        <time>2022-12-13T13:48:07.230Z</time>
      </trkpt>
      <trkpt lat="48.10577" lon="-2.92551">
        <ele>149.630577</ele>
        <time>2022-12-13T13:48:11.214Z</time>
      </trkpt>
      <trkpt lat="48.1058" lon="-2.92536">
        <ele>149.934296</ele>
        <time>2022-12-13T13:48:15.209Z</time>
      </trkpt>
      <trkpt lat="48.10583" lon="-2.92521">
        <ele>150.234227</ele>
        <time>2022-12-13T13:48:19.222Z</time>
      </trkpt>
      <trkpt lat="48.10585" lon="-2.92505">
        <ele>150.543931</ele>
        <time>2022-12-13T13:48:23.209Z</time>
      </trkpt>
      <trkpt lat="48.10587" lon="-2.92489">
        <ele>150.858381</ele>
        <time>2022-12-13T13:48:27.218Z</time>
      </trkpt>
      <trkpt lat="48.10589" lon="-2.92473">
        <ele>151.176651</ele>
        <time>2022-12-13T13:48:31.233Z</time>
      </trkpt>
      <trkpt lat="48.10591" lon="-2.92456">
        <ele>151.509723</ele>
        <time>2022-12-13T13:48:35.228Z</time>
      </trkpt>
      <trkpt lat="48.10594" lon="-2.9244">
        <ele>151.841775</ele>
        <time>2022-12-13T13:48:39.229Z</time>
      </trkpt>
      <trkpt lat="48.10596" lon="-2.92424">
        <ele>152.161133</ele>
        <time>2022-12-13T13:48:43.222Z</time>
      </trkpt>
      <trkpt lat="48.10598" lon="-2.92409">
        <ele>152.456505</ele>
        <time>2022-12-13T13:48:47.227Z</time>
      </trkpt>
      <trkpt lat="48.106" lon="-2.92396">
        <ele>152.722149</ele>
        <time>2022-12-13T13:48:51.219Z</time>
      </trkpt>
      <trkpt lat="48.10602" lon="-2.92381">
        <ele>153.015001</ele>
        <time>2022-12-13T13:48:55.223Z</time>
      </trkpt>
      <trkpt lat="48.10603" lon="-2.92366">
        <ele>153.307041</ele>
        <time>2022-12-13T13:48:59.211Z</time>
      </trkpt>
      <trkpt lat="48.10606" lon="-2.92351">
        <ele>153.603344</ele>
        <time>2022-12-13T13:49:03.225Z</time>
      </trkpt>
      <trkpt lat="48.10607" lon="-2.92334">
        <ele>153.929306</ele>
        <time>2022-12-13T13:49:07.221Z</time>
      </trkpt>
      <trkpt lat="48.10609" lon="-2.9232">
        <ele>154.225265</ele>
        <time>2022-12-13T13:49:11.234Z</time>
      </trkpt>
      <trkpt lat="48.10612" lon="-2.92304">
        <ele>154.54223</ele>
        <time>2022-12-13T13:49:15.232Z</time>
      </trkpt>
      <trkpt lat="48.10615" lon="-2.92287">
        <ele>154.885498</ele>
        <time>2022-12-13T13:49:19.231Z</time>
      </trkpt>
      <trkpt lat="48.10617" lon="-2.92272">
        <ele>155.169446</ele>
        <time>2022-12-13T13:49:22.233Z</time>
      </trkpt>
      <trkpt lat="48.1062" lon="-2.92258">
        <ele>155.463112</ele>
        <time>2022-12-13T13:49:25.229Z</time>
      </trkpt>
      <trkpt lat="48.10622" lon="-2.92244">
        <ele>155.890713</ele>
        <time>2022-12-13T13:49:28.227Z</time>
      </trkpt>
      <trkpt lat="48.10624" lon="-2.92227">
        <ele>156.412725</ele>
        <time>2022-12-13T13:49:32.241Z</time>
      </trkpt>
      <trkpt lat="48.10627" lon="-2.92212">
        <ele>156.889952</ele>
        <time>2022-12-13T13:49:35.232Z</time>
      </trkpt>
      <trkpt lat="48.10629" lon="-2.92196">
        <ele>157.401043</ele>
        <time>2022-12-13T13:49:38.233Z</time>
      </trkpt>
      <trkpt lat="48.1063" lon="-2.9218">
        <ele>157.927793</ele>
        <time>2022-12-13T13:49:41.232Z</time>
      </trkpt>
      <trkpt lat="48.10632" lon="-2.92164">
        <ele>158.425184</ele>
        <time>2022-12-13T13:49:44.233Z</time>
      </trkpt>
      <trkpt lat="48.10634" lon="-2.92149">
        <ele>158.910043</ele>
        <time>2022-12-13T13:49:47.228Z</time>
      </trkpt>
      <trkpt lat="48.10635" lon="-2.92133">
        <ele>159.402257</ele>
        <time>2022-12-13T13:49:50.207Z</time>
      </trkpt>
      <trkpt lat="48.10636" lon="-2.92119">
        <ele>159.852236</ele>
        <time>2022-12-13T13:49:53.217Z</time>
      </trkpt>
      <trkpt lat="48.10639" lon="-2.92106">
        <ele>160.275329</ele>
        <time>2022-12-13T13:49:56.218Z</time>
      </trkpt>
      <trkpt lat="48.10641" lon="-2.92092">
        <ele>160.728992</ele>
        <time>2022-12-13T13:50:00.232Z</time>
      </trkpt>
      <trkpt lat="48.10637" lon="-2.92075">
        <ele>161.294477</ele>
        <time>2022-12-13T13:50:05.231Z</time>
      </trkpt>
      <trkpt lat="48.10635" lon="-2.92062">
        <ele>161.727729</ele>
        <time>2022-12-13T13:50:08.207Z</time>
      </trkpt>
      <trkpt lat="48.10634" lon="-2.92046">
        <ele>162.21371</ele>
        <time>2022-12-13T13:50:11.231Z</time>
      </trkpt>
      <trkpt lat="48.10634" lon="-2.9203">
        <ele>162.711542</ele>
        <time>2022-12-13T13:50:14.218Z</time>
      </trkpt>
      <trkpt lat="48.10634" lon="-2.92015">
        <ele>163.18054</ele>
        <time>2022-12-13T13:50:17.212Z</time>
      </trkpt>
      <trkpt lat="48.10634" lon="-2.91998">
        <ele>163.712708</ele>
        <time>2022-12-13T13:50:21.232Z</time>
      </trkpt>
      <trkpt lat="48.10634" lon="-2.91983">
        <ele>164.003946</ele>
        <time>2022-12-13T13:50:24.232Z</time>
      </trkpt>
      <trkpt lat="48.10634" lon="-2.91968">
        <ele>164.141996</ele>
        <time>2022-12-13T13:50:27.225Z</time>
      </trkpt>
      <trkpt lat="48.10633" lon="-2.9195">
        <ele>164.310028</ele>
        <time>2022-12-13T13:50:31.222Z</time>
      </trkpt>
      <trkpt lat="48.10632" lon="-2.91933">
        <ele>164.473351</ele>
        <time>2022-12-13T13:50:34.209Z</time>
      </trkpt>
      <trkpt lat="48.10633" lon="-2.91917">
        <ele>164.617172</ele>
        <time>2022-12-13T13:50:37.230Z</time>
      </trkpt>
      <trkpt lat="48.10633" lon="-2.919">
        <ele>164.775629</ele>
        <time>2022-12-13T13:50:40.217Z</time>
      </trkpt>
      <trkpt lat="48.10632" lon="-2.91883">
        <ele>164.938116</ele>
        <time>2022-12-13T13:50:43.230Z</time>
      </trkpt>
      <trkpt lat="48.10632" lon="-2.91865">
        <ele>165.098424</ele>
        <time>2022-12-13T13:50:46.214Z</time>
      </trkpt>
      <trkpt lat="48.10632" lon="-2.91848">
        <ele>165.25797</ele>
        <time>2022-12-13T13:50:49.217Z</time>
      </trkpt>
      <trkpt lat="48.10632" lon="-2.91833">
        <ele>165.400624</ele>
        <time>2022-12-13T13:50:52.213Z</time>
      </trkpt>
      <trkpt lat="48.10631" lon="-2.91816">
        <ele>165.552599</ele>
        <time>2022-12-13T13:50:55.214Z</time>
      </trkpt>
      <trkpt lat="48.10631" lon="-2.918">
        <ele>165.699891</ele>
        <time>2022-12-13T13:50:58.223Z</time>
      </trkpt>
      <trkpt lat="48.10631" lon="-2.91785">
        <ele>165.839794</ele>
        <time>2022-12-13T13:51:01.214Z</time>
      </trkpt>
      <trkpt lat="48.10632" lon="-2.9177">
        <ele>165.982476</ele>
        <time>2022-12-13T13:51:04.209Z</time>
      </trkpt>
      <trkpt lat="48.10632" lon="-2.91756">
        <ele>166.115006</ele>
        <time>2022-12-13T13:51:07.216Z</time>
      </trkpt>
      <trkpt lat="48.10632" lon="-2.91738">
        <ele>166.275261</ele>
        <time>2022-12-13T13:51:11.213Z</time>
      </trkpt>
      <trkpt lat="48.10631" lon="-2.91723">
        <ele>166.415383</ele>
        <time>2022-12-13T13:51:14.213Z</time>
      </trkpt>
      <trkpt lat="48.10631" lon="-2.91709">
        <ele>165.789633</ele>
        <time>2022-12-13T13:51:17.214Z</time>
      </trkpt>
      <trkpt lat="48.10632" lon="-2.9169">
        <ele>164.933049</ele>
        <time>2022-12-13T13:51:20.235Z</time>
      </trkpt>
      <trkpt lat="48.10633" lon="-2.91676">
        <ele>164.257039</ele>
        <time>2022-12-13T13:51:23.234Z</time>
      </trkpt>
      <trkpt lat="48.10634" lon="-2.91662">
        <ele>163.617471</ele>
        <time>2022-12-13T13:51:27.234Z</time>
      </trkpt>
      <trkpt lat="48.10631" lon="-2.91649">
        <ele>162.963513</ele>
        <time>2022-12-13T13:51:30.226Z</time>
      </trkpt>
      <trkpt lat="48.10628" lon="-2.91635">
        <ele>162.274912</ele>
        <time>2022-12-13T13:51:33.232Z</time>
      </trkpt>
      <trkpt lat="48.10628" lon="-2.91619">
        <ele>161.528756</ele>
        <time>2022-12-13T13:51:36.219Z</time>
      </trkpt>
      <trkpt lat="48.10629" lon="-2.91601">
        <ele>160.695349</ele>
        <time>2022-12-13T13:51:39.219Z</time>
      </trkpt>
      <trkpt lat="48.10627" lon="-2.91583">
        <ele>159.832622</ele>
        <time>2022-12-13T13:51:42.243Z</time>
      </trkpt>
      <trkpt lat="48.10624" lon="-2.91565">
        <ele>158.982898</ele>
        <time>2022-12-13T13:51:45.223Z</time>
      </trkpt>
      <trkpt lat="48.1062" lon="-2.91548">
        <ele>158.16102</ele>
        <time>2022-12-13T13:51:48.222Z</time>
      </trkpt>
      <trkpt lat="48.10616" lon="-2.91532">
        <ele>157.356554</ele>
        <time>2022-12-13T13:51:51.235Z</time>
      </trkpt>
      <trkpt lat="48.10611" lon="-2.91516">
        <ele>156.547797</ele>
        <time>2022-12-13T13:51:54.234Z</time>
      </trkpt>
      <trkpt lat="48.10607" lon="-2.91501">
        <ele>155.753804</ele>
        <time>2022-12-13T13:51:57.232Z</time>
      </trkpt>
      <trkpt lat="48.10604" lon="-2.91485">
        <ele>155.002637</ele>
        <time>2022-12-13T13:52:00.242Z</time>
      </trkpt>
      <trkpt lat="48.106" lon="-2.91468">
        <ele>154.173922</ele>
        <time>2022-12-13T13:52:03.234Z</time>
      </trkpt>
      <trkpt lat="48.10597" lon="-2.91454">
        <ele>153.792421</ele>
        <time>2022-12-13T13:52:06.212Z</time>
      </trkpt>
      <trkpt lat="48.10594" lon="-2.91437">
        <ele>153.628763</ele>
        <time>2022-12-13T13:52:10.238Z</time>
      </trkpt>
      <trkpt lat="48.10591" lon="-2.91421">
        <ele>153.4773</ele>
        <time>2022-12-13T13:52:13.234Z</time>
      </trkpt>
      <trkpt lat="48.10589" lon="-2.91403">
        <ele>153.3141</ele>
        <time>2022-12-13T13:52:16.235Z</time>
      </trkpt>
      <trkpt lat="48.10588" lon="-2.91385">
        <ele>153.141855</ele>
        <time>2022-12-13T13:52:19.220Z</time>
      </trkpt>
      <trkpt lat="48.10588" lon="-2.91366">
        <ele>152.971817</ele>
        <time>2022-12-13T13:52:22.242Z</time>
      </trkpt>
      <trkpt lat="48.10589" lon="-2.91347">
        <ele>152.789106</ele>
        <time>2022-12-13T13:52:25.245Z</time>
      </trkpt>
      <trkpt lat="48.10591" lon="-2.91327">
        <ele>152.605263</ele>
        <time>2022-12-13T13:52:28.238Z</time>
      </trkpt>
      <trkpt lat="48.10594" lon="-2.91309">
        <ele>152.437144</ele>
        <time>2022-12-13T13:52:31.220Z</time>
      </trkpt>
      <trkpt lat="48.10598" lon="-2.91294">
        <ele>152.286018</ele>
        <time>2022-12-13T13:52:34.221Z</time>
      </trkpt>
      <trkpt lat="48.10602" lon="-2.91279">
        <ele>152.135787</ele>
        <time>2022-12-13T13:52:37.217Z</time>
      </trkpt>
      <trkpt lat="48.10608" lon="-2.91263">
        <ele>151.966971</ele>
        <time>2022-12-13T13:52:40.246Z</time>
      </trkpt>
      <trkpt lat="48.10615" lon="-2.91247">
        <ele>151.792577</ele>
        <time>2022-12-13T13:52:43.220Z</time>
      </trkpt>
      <trkpt lat="48.10623" lon="-2.91232">
        <ele>151.61017</ele>
        <time>2022-12-13T13:52:46.248Z</time>
      </trkpt>
      <trkpt lat="48.1063" lon="-2.91222">
        <ele>151.484221</ele>
        <time>2022-12-13T13:52:48.232Z</time>
      </trkpt>
      <trkpt lat="48.10639" lon="-2.91209">
        <ele>151.532963</ele>
        <time>2022-12-13T13:52:51.213Z</time>
      </trkpt>
      <trkpt lat="48.10647" lon="-2.91198">
        <ele>151.822824</ele>
        <time>2022-12-13T13:52:54.233Z</time>
      </trkpt>
      <trkpt lat="48.10656" lon="-2.91189">
        <ele>152.121298</ele>
        <time>2022-12-13T13:52:57.277Z</time>
      </trkpt>
      <trkpt lat="48.10667" lon="-2.91181">
        <ele>152.431712</ele>
        <time>2022-12-13T13:53:00.215Z</time>
      </trkpt>
      <trkpt lat="48.10678" lon="-2.91173">
        <ele>152.771216</ele>
        <time>2022-12-13T13:53:03.234Z</time>
      </trkpt>
      <trkpt lat="48.10687" lon="-2.91168">
        <ele>153.013517</ele>
        <time>2022-12-13T13:53:05.248Z</time>
      </trkpt>
      <trkpt lat="48.10696" lon="-2.91164">
        <ele>153.271214</ele>
        <time>2022-12-13T13:53:07.224Z</time>
      </trkpt>
      <trkpt lat="48.1071" lon="-2.91159">
        <ele>153.638865</ele>
        <time>2022-12-13T13:53:10.232Z</time>
      </trkpt>
      <trkpt lat="48.10719" lon="-2.91158">
        <ele>153.87591</ele>
        <time>2022-12-13T13:53:12.237Z</time>
      </trkpt>
      <trkpt lat="48.10731" lon="-2.91155">
        <ele>154.209688</ele>
        <time>2022-12-13T13:53:15.214Z</time>
      </trkpt>
      <trkpt lat="48.10742" lon="-2.91154">
        <ele>154.504238</ele>
        <time>2022-12-13T13:53:18.233Z</time>
      </trkpt>
      <trkpt lat="48.10755" lon="-2.91152">
        <ele>154.847676</ele>
        <time>2022-12-13T13:53:21.233Z</time>
      </trkpt>
      <trkpt lat="48.10768" lon="-2.91151">
        <ele>155.189327</ele>
        <time>2022-12-13T13:53:24.233Z</time>
      </trkpt>
      <trkpt lat="48.10782" lon="-2.9115">
        <ele>155.544344</ele>
        <time>2022-12-13T13:53:27.223Z</time>
      </trkpt>
      <trkpt lat="48.10795" lon="-2.91148">
        <ele>155.898128</ele>
        <time>2022-12-13T13:53:30.231Z</time>
      </trkpt>
      <trkpt lat="48.10804" lon="-2.91148">
        <ele>156.141728</ele>
        <time>2022-12-13T13:53:32.244Z</time>
      </trkpt>
      <trkpt lat="48.10814" lon="-2.91146">
        <ele>156.287801</ele>
        <time>2022-12-13T13:53:34.246Z</time>
      </trkpt>
      <trkpt lat="48.10824" lon="-2.91146">
        <ele>156.420476</ele>
        <time>2022-12-13T13:53:36.293Z</time>
      </trkpt>
      <trkpt lat="48.10834" lon="-2.91144">
        <ele>156.570898</ele>
        <time>2022-12-13T13:53:38.231Z</time>
      </trkpt>
      <trkpt lat="48.10846" lon="-2.91142">
        <ele>156.739355</ele>
        <time>2022-12-13T13:53:41.246Z</time>
      </trkpt>
      <trkpt lat="48.10856" lon="-2.91141">
        <ele>156.866612</ele>
        <time>2022-12-13T13:53:43.220Z</time>
      </trkpt>
      <trkpt lat="48.10868" lon="-2.9114">
        <ele>157.047242</ele>
        <time>2022-12-13T13:53:46.243Z</time>
      </trkpt>
      <trkpt lat="48.10878" lon="-2.91139">
        <ele>157.177237</ele>
        <time>2022-12-13T13:53:48.230Z</time>
      </trkpt>
      <trkpt lat="48.1089" lon="-2.91138">
        <ele>157.34374</ele>
        <time>2022-12-13T13:53:51.228Z</time>
      </trkpt>
      <trkpt lat="48.109" lon="-2.91136">
        <ele>157.485431</ele>
        <time>2022-12-13T13:53:53.235Z</time>
      </trkpt>
      <trkpt lat="48.10913" lon="-2.91136">
        <ele>157.668396</ele>
        <time>2022-12-13T13:53:56.239Z</time>
      </trkpt>
      <trkpt lat="48.10926" lon="-2.91134">
        <ele>157.852321</ele>
        <time>2022-12-13T13:53:59.235Z</time>
      </trkpt>
      <trkpt lat="48.10938" lon="-2.91133">
        <ele>158.026983</ele>
        <time>2022-12-13T13:54:02.227Z</time>
      </trkpt>
      <trkpt lat="48.10951" lon="-2.91132">
        <ele>158.196337</ele>
        <time>2022-12-13T13:54:05.219Z</time>
      </trkpt>
      <trkpt lat="48.10961" lon="-2.91131">
        <ele>158.335968</ele>
        <time>2022-12-13T13:54:08.236Z</time>
      </trkpt>
      <trkpt lat="48.10971" lon="-2.91132">
        <ele>158.478391</ele>
        <time>2022-12-13T13:54:11.237Z</time>
      </trkpt>
      <trkpt lat="48.10982" lon="-2.91134">
        <ele>158.63852</ele>
        <time>2022-12-13T13:54:14.230Z</time>
      </trkpt>
      <trkpt lat="48.10994" lon="-2.91136">
        <ele>158.525857</ele>
        <time>2022-12-13T13:54:17.237Z</time>
      </trkpt>
      <trkpt lat="48.11005" lon="-2.9114">
        <ele>158.395007</ele>
        <time>2022-12-13T13:54:20.281Z</time>
      </trkpt>
      <trkpt lat="48.11015" lon="-2.91144">
        <ele>158.266898</ele>
        <time>2022-12-13T13:54:23.232Z</time>
      </trkpt>
      <trkpt lat="48.11023" lon="-2.91148">
        <ele>158.154587</ele>
        <time>2022-12-13T13:54:26.236Z</time>
      </trkpt>
      <trkpt lat="48.11034" lon="-2.91151">
        <ele>158.021365</ele>
        <time>2022-12-13T13:54:30.232Z</time>
      </trkpt>
      <trkpt lat="48.11044" lon="-2.91155">
        <ele>157.896287</ele>
        <time>2022-12-13T13:54:35.245Z</time>
      </trkpt>
      <trkpt lat="48.11053" lon="-2.91155">
        <ele>157.781426</ele>
        <time>2022-12-13T13:54:40.241Z</time>
      </trkpt>
      <trkpt lat="48.11062" lon="-2.91161">
        <ele>157.663284</ele>
        <time>2022-12-13T13:54:45.230Z</time>
      </trkpt>
      <trkpt lat="48.11072" lon="-2.91165">
        <ele>157.537772</ele>
        <time>2022-12-13T13:54:51.229Z</time>
      </trkpt>
      <trkpt lat="48.11081" lon="-2.91166">
        <ele>157.419009</ele>
        <time>2022-12-13T13:54:55.237Z</time>
      </trkpt>
      <trkpt lat="48.1109" lon="-2.91169">
        <ele>157.304578</ele>
        <time>2022-12-13T13:54:59.231Z</time>
      </trkpt>
      <trkpt lat="48.11102" lon="-2.91173">
        <ele>157.155159</ele>
        <time>2022-12-13T13:55:02.234Z</time>
      </trkpt>
      <trkpt lat="48.11113" lon="-2.91177">
        <ele>157.018505</ele>
        <time>2022-12-13T13:55:04.241Z</time>
      </trkpt>
      <trkpt lat="48.11124" lon="-2.91181">
        <ele>156.880997</ele>
        <time>2022-12-13T13:55:06.232Z</time>
      </trkpt>
      <trkpt lat="48.11134" lon="-2.91184">
        <ele>156.747751</ele>
        <time>2022-12-13T13:55:08.234Z</time>
      </trkpt>
      <trkpt lat="48.11145" lon="-2.91187">
        <ele>156.618768</ele>
        <time>2022-12-13T13:55:10.247Z</time>
      </trkpt>
      <trkpt lat="48.11155" lon="-2.91191">
        <ele>156.483672</ele>
        <time>2022-12-13T13:55:12.251Z</time>
      </trkpt>
      <trkpt lat="48.11165" lon="-2.91192">
        <ele>156.3114</ele>
        <time>2022-12-13T13:55:14.295Z</time>
      </trkpt>
      <trkpt lat="48.11176" lon="-2.91192">
        <ele>156.106456</ele>
        <time>2022-12-13T13:55:16.250Z</time>
      </trkpt>
      <trkpt lat="48.11187" lon="-2.91187">
        <ele>155.886351</ele>
        <time>2022-12-13T13:55:18.243Z</time>
      </trkpt>
      <trkpt lat="48.11195" lon="-2.91182">
        <ele>155.702337</ele>
        <time>2022-12-13T13:55:20.230Z</time>
      </trkpt>
      <trkpt lat="48.11204" lon="-2.91175">
        <ele>155.505923</ele>
        <time>2022-12-13T13:55:22.232Z</time>
      </trkpt>
      <trkpt lat="48.11215" lon="-2.91165">
        <ele>155.255144</ele>
        <time>2022-12-13T13:55:25.307Z</time>
      </trkpt>
      <trkpt lat="48.11224" lon="-2.91151">
        <ele>154.994503</ele>
        <time>2022-12-13T13:55:28.238Z</time>
      </trkpt>
      <trkpt lat="48.1123" lon="-2.91138">
        <ele>154.796526</ele>
        <time>2022-12-13T13:55:31.236Z</time>
      </trkpt>
      <trkpt lat="48.11236" lon="-2.91122">
        <ele>154.556161</ele>
        <time>2022-12-13T13:55:35.236Z</time>
      </trkpt>
      <trkpt lat="48.11239" lon="-2.91107">
        <ele>154.345872</ele>
        <time>2022-12-13T13:55:38.227Z</time>
      </trkpt>
      <trkpt lat="48.11242" lon="-2.9109">
        <ele>154.117371</ele>
        <time>2022-12-13T13:55:41.225Z</time>
      </trkpt>
      <trkpt lat="48.11243" lon="-2.91075">
        <ele>153.907353</ele>
        <time>2022-12-13T13:55:44.223Z</time>
      </trkpt>
      <trkpt lat="48.11242" lon="-2.9106">
        <ele>153.712566</ele>
        <time>2022-12-13T13:55:47.297Z</time>
      </trkpt>
      <trkpt lat="48.11242" lon="-2.91044">
        <ele>153.502149</ele>
        <time>2022-12-13T13:55:50.239Z</time>
      </trkpt>
      <trkpt lat="48.11242" lon="-2.91025">
        <ele>153.261495</ele>
        <time>2022-12-13T13:55:53.220Z</time>
      </trkpt>
      <trkpt lat="48.11242" lon="-2.91008">
        <ele>153.028698</ele>
        <time>2022-12-13T13:55:56.234Z</time>
      </trkpt>
      <trkpt lat="48.11241" lon="-2.90989">
        <ele>152.963805</ele>
        <time>2022-12-13T13:55:59.236Z</time>
      </trkpt>
      <trkpt lat="48.11241" lon="-2.90969">
        <ele>153.119537</ele>
        <time>2022-12-13T13:56:02.229Z</time>
      </trkpt>
      <trkpt lat="48.11242" lon="-2.90956">
        <ele>153.224188</ele>
        <time>2022-12-13T13:56:04.222Z</time>
      </trkpt>
      <trkpt lat="48.11243" lon="-2.90937">
        <ele>153.36677</ele>
        <time>2022-12-13T13:56:07.233Z</time>
      </trkpt>
      <trkpt lat="48.11245" lon="-2.90921">
        <ele>153.499367</ele>
        <time>2022-12-13T13:56:10.225Z</time>
      </trkpt>
      <trkpt lat="48.1125" lon="-2.90904">
        <ele>153.636495</ele>
        <time>2022-12-13T13:56:13.226Z</time>
      </trkpt>
      <trkpt lat="48.11255" lon="-2.90887">
        <ele>153.78388</ele>
        <time>2022-12-13T13:56:16.226Z</time>
      </trkpt>
      <trkpt lat="48.11262" lon="-2.90869">
        <ele>153.944222</ele>
        <time>2022-12-13T13:56:19.224Z</time>
      </trkpt>
      <trkpt lat="48.11266" lon="-2.90856">
        <ele>154.055614</ele>
        <time>2022-12-13T13:56:21.230Z</time>
      </trkpt>
      <trkpt lat="48.11271" lon="-2.90844">
        <ele>154.165417</ele>
        <time>2022-12-13T13:56:23.234Z</time>
      </trkpt>
      <trkpt lat="48.11276" lon="-2.90826">
        <ele>154.31527</ele>
        <time>2022-12-13T13:56:26.224Z</time>
      </trkpt>
      <trkpt lat="48.11281" lon="-2.90814">
        <ele>154.421002</ele>
        <time>2022-12-13T13:56:28.226Z</time>
      </trkpt>
      <trkpt lat="48.11287" lon="-2.90798">
        <ele>154.560963</ele>
        <time>2022-12-13T13:56:31.232Z</time>
      </trkpt>
      <trkpt lat="48.11291" lon="-2.90784">
        <ele>154.688439</ele>
        <time>2022-12-13T13:56:34.245Z</time>
      </trkpt>
      <trkpt lat="48.11297" lon="-2.90768">
        <ele>154.825267</ele>
        <time>2022-12-13T13:56:37.247Z</time>
      </trkpt>
      <trkpt lat="48.11303" lon="-2.90751">
        <ele>154.971109</ele>
        <time>2022-12-13T13:56:40.242Z</time>
      </trkpt>
      <trkpt lat="48.11309" lon="-2.90736">
        <ele>154.874837</ele>
        <time>2022-12-13T13:56:43.232Z</time>
      </trkpt>
      <trkpt lat="48.11316" lon="-2.90719">
        <ele>154.739624</ele>
        <time>2022-12-13T13:56:46.240Z</time>
      </trkpt>
      <trkpt lat="48.11321" lon="-2.90707">
        <ele>154.647268</ele>
        <time>2022-12-13T13:56:48.245Z</time>
      </trkpt>
      <trkpt lat="48.11328" lon="-2.9069">
        <ele>154.507073</ele>
        <time>2022-12-13T13:56:51.232Z</time>
      </trkpt>
      <trkpt lat="48.11333" lon="-2.90678">
        <ele>154.409006</ele>
        <time>2022-12-13T13:56:53.236Z</time>
      </trkpt>
      <trkpt lat="48.11338" lon="-2.90666">
        <ele>154.316422</ele>
        <time>2022-12-13T13:56:55.230Z</time>
      </trkpt>
      <trkpt lat="48.11342" lon="-2.90654">
        <ele>154.222657</ele>
        <time>2022-12-13T13:56:57.226Z</time>
      </trkpt>
      <trkpt lat="48.1135" lon="-2.90636">
        <ele>154.080208</ele>
        <time>2022-12-13T13:57:00.236Z</time>
      </trkpt>
      <trkpt lat="48.11354" lon="-2.90622">
        <ele>153.976921</ele>
        <time>2022-12-13T13:57:02.231Z</time>
      </trkpt>
      <trkpt lat="48.1136" lon="-2.90609">
        <ele>153.874381</ele>
        <time>2022-12-13T13:57:04.243Z</time>
      </trkpt>
      <trkpt lat="48.11364" lon="-2.90597">
        <ele>153.774405</ele>
        <time>2022-12-13T13:57:06.246Z</time>
      </trkpt>
      <trkpt lat="48.11369" lon="-2.90583">
        <ele>153.672862</ele>
        <time>2022-12-13T13:57:08.245Z</time>
      </trkpt>
      <trkpt lat="48.11374" lon="-2.90571">
        <ele>153.578012</ele>
        <time>2022-12-13T13:57:10.226Z</time>
      </trkpt>
      <trkpt lat="48.11378" lon="-2.90559">
        <ele>153.483655</ele>
        <time>2022-12-13T13:57:12.244Z</time>
      </trkpt>
      <trkpt lat="48.11384" lon="-2.90542">
        <ele>153.352881</ele>
        <time>2022-12-13T13:57:15.236Z</time>
      </trkpt>
      <trkpt lat="48.1139" lon="-2.90526">
        <ele>153.231411</ele>
        <time>2022-12-13T13:57:18.232Z</time>
      </trkpt>
      <trkpt lat="48.11396" lon="-2.90512">
        <ele>153.166313</ele>
        <time>2022-12-13T13:57:21.245Z</time>
      </trkpt>
      <trkpt lat="48.11402" lon="-2.905">
        <ele>153.179202</ele>
        <time>2022-12-13T13:57:24.232Z</time>
      </trkpt>
      <trkpt lat="48.11409" lon="-2.90488">
        <ele>153.192283</ele>
        <time>2022-12-13T13:57:27.234Z</time>
      </trkpt>
      <trkpt lat="48.11417" lon="-2.90477">
        <ele>153.205341</ele>
        <time>2022-12-13T13:57:30.293Z</time>
      </trkpt>
      <trkpt lat="48.11426" lon="-2.90467">
        <ele>153.219685</ele>
        <time>2022-12-13T13:57:33.230Z</time>
      </trkpt>
      <trkpt lat="48.11436" lon="-2.90458">
        <ele>153.234155</ele>
        <time>2022-12-13T13:57:36.296Z</time>
      </trkpt>
      <trkpt lat="48.11446" lon="-2.90448">
        <ele>153.2495</ele>
        <time>2022-12-13T13:57:39.244Z</time>
      </trkpt>
      <trkpt lat="48.11455" lon="-2.90439">
        <ele>153.262742</ele>
        <time>2022-12-13T13:57:42.288Z</time>
      </trkpt>
      <trkpt lat="48.11463" lon="-2.9043">
        <ele>153.275177</ele>
        <time>2022-12-13T13:57:45.237Z</time>
      </trkpt>
      <trkpt lat="48.11471" lon="-2.90418">
        <ele>153.289832</ele>
        <time>2022-12-13T13:57:48.231Z</time>
      </trkpt>
      <trkpt lat="48.1148" lon="-2.90403">
        <ele>153.306118</ele>
        <time>2022-12-13T13:57:51.234Z</time>
      </trkpt>
      <trkpt lat="48.11487" lon="-2.90388">
        <ele>153.321835</ele>
        <time>2022-12-13T13:57:54.248Z</time>
      </trkpt>
      <trkpt lat="48.11492" lon="-2.90373">
        <ele>153.335906</ele>
        <time>2022-12-13T13:57:57.245Z</time>
      </trkpt>
      <trkpt lat="48.11496" lon="-2.90359">
        <ele>153.348418</ele>
        <time>2022-12-13T13:58:00.246Z</time>
      </trkpt>
      <trkpt lat="48.11497" lon="-2.90345">
        <ele>153.360608</ele>
        <time>2022-12-13T13:58:04.249Z</time>
      </trkpt>
      <trkpt lat="48.115" lon="-2.90329">
        <ele>153.374083</ele>
        <time>2022-12-13T13:58:09.239Z</time>
      </trkpt>
      <trkpt lat="48.11498" lon="-2.90316">
        <ele>153.385362</ele>
        <time>2022-12-13T13:58:14.235Z</time>
      </trkpt>
      <trkpt lat="48.11497" lon="-2.90301">
        <ele>153.419669</ele>
        <time>2022-12-13T13:58:19.227Z</time>
      </trkpt>
      <trkpt lat="48.11494" lon="-2.90285">
        <ele>153.459129</ele>
        <time>2022-12-13T13:58:24.245Z</time>
      </trkpt>
      <trkpt lat="48.11491" lon="-2.9027">
        <ele>153.498741</ele>
        <time>2022-12-13T13:58:29.227Z</time>
      </trkpt>
      <trkpt lat="48.1149" lon="-2.90254">
        <ele>153.537504</ele>
        <time>2022-12-13T13:58:34.244Z</time>
      </trkpt>
      <trkpt lat="48.11499" lon="-2.90247">
        <ele>153.574509</ele>
        <time>2022-12-13T13:58:40.238Z</time>
      </trkpt>
      <trkpt lat="48.11508" lon="-2.90239">
        <ele>153.613362</ele>
        <time>2022-12-13T13:58:46.244Z</time>
      </trkpt>
      <trkpt lat="48.11505" lon="-2.90222">
        <ele>153.654374</ele>
        <time>2022-12-13T13:58:51.218Z</time>
      </trkpt>
      <trkpt lat="48.11503" lon="-2.90207">
        <ele>153.692053</ele>
        <time>2022-12-13T13:58:55.221Z</time>
      </trkpt>
      <trkpt lat="48.11501" lon="-2.9019">
        <ele>153.733311</ele>
        <time>2022-12-13T13:58:59.232Z</time>
      </trkpt>
      <trkpt lat="48.11499" lon="-2.90177">
        <ele>153.766542</ele>
        <time>2022-12-13T13:59:02.235Z</time>
      </trkpt>
      <trkpt lat="48.11496" lon="-2.90159">
        <ele>153.809898</ele>
        <time>2022-12-13T13:59:06.226Z</time>
      </trkpt>
      <trkpt lat="48.11495" lon="-2.90145">
        <ele>153.843911</ele>
        <time>2022-12-13T13:59:09.254Z</time>
      </trkpt>
      <trkpt lat="48.11493" lon="-2.90132">
        <ele>153.877785</ele>
        <time>2022-12-13T13:59:12.216Z</time>
      </trkpt>
      <trkpt lat="48.11491" lon="-2.90119">
        <ele>153.910392</ele>
        <time>2022-12-13T13:59:15.219Z</time>
      </trkpt>
      <trkpt lat="48.11488" lon="-2.90105">
        <ele>153.943948</ele>
        <time>2022-12-13T13:59:18.228Z</time>
      </trkpt>
      <trkpt lat="48.11485" lon="-2.90091">
        <ele>153.97982</ele>
        <time>2022-12-13T13:59:22.223Z</time>
      </trkpt>
      <trkpt lat="48.11483" lon="-2.90075">
        <ele>154.018399</ele>
        <time>2022-12-13T13:59:26.216Z</time>
      </trkpt>
      <trkpt lat="48.11481" lon="-2.90059">
        <ele>154.116596</ele>
        <time>2022-12-13T13:59:30.246Z</time>
      </trkpt>
      <trkpt lat="48.11478" lon="-2.90044">
        <ele>154.245573</ele>
        <time>2022-12-13T13:59:33.235Z</time>
      </trkpt>
      <trkpt lat="48.11475" lon="-2.90029">
        <ele>154.378364</ele>
        <time>2022-12-13T13:59:36.216Z</time>
      </trkpt>
      <trkpt lat="48.11473" lon="-2.90015">
        <ele>154.505877</ele>
        <time>2022-12-13T13:59:39.244Z</time>
      </trkpt>
      <trkpt lat="48.11471" lon="-2.9">
        <ele>154.632604</ele>
        <time>2022-12-13T13:59:42.220Z</time>
      </trkpt>
      <trkpt lat="48.1147" lon="-2.89986">
        <ele>154.758264</ele>
        <time>2022-12-13T13:59:45.246Z</time>
      </trkpt>
      <trkpt lat="48.11467" lon="-2.89972">
        <ele>154.877187</ele>
        <time>2022-12-13T13:59:48.224Z</time>
      </trkpt>
      <trkpt lat="48.11464" lon="-2.89955">
        <ele>155.028101</ele>
        <time>2022-12-13T13:59:52.226Z</time>
      </trkpt>
      <trkpt lat="48.11462" lon="-2.89938">
        <ele>155.17558</ele>
        <time>2022-12-13T13:59:56.217Z</time>
      </trkpt>
      <trkpt lat="48.11459" lon="-2.89924">
        <ele>155.297302</ele>
        <time>2022-12-13T14:00:00.230Z</time>
      </trkpt>
      <trkpt lat="48.11457" lon="-2.89911">
        <ele>155.414503</ele>
        <time>2022-12-13T14:00:04.243Z</time>
      </trkpt>
      <trkpt lat="48.11455" lon="-2.89895">
        <ele>155.549485</ele>
        <time>2022-12-13T14:00:08.212Z</time>
      </trkpt>
      <trkpt lat="48.11453" lon="-2.89878">
        <ele>155.699349</ele>
        <time>2022-12-13T14:00:12.216Z</time>
      </trkpt>
      <trkpt lat="48.11451" lon="-2.89865">
        <ele>155.817383</ele>
        <time>2022-12-13T14:00:15.248Z</time>
      </trkpt>
      <trkpt lat="48.11449" lon="-2.89851">
        <ele>155.934584</ele>
        <time>2022-12-13T14:00:18.279Z</time>
      </trkpt>
      <trkpt lat="48.11447" lon="-2.89837">
        <ele>156.056043</ele>
        <time>2022-12-13T14:00:21.247Z</time>
      </trkpt>
      <trkpt lat="48.11445" lon="-2.89821">
        <ele>156.200185</ele>
        <time>2022-12-13T14:00:25.235Z</time>
      </trkpt>
      <trkpt lat="48.11443" lon="-2.89806">
        <ele>156.331845</ele>
        <time>2022-12-13T14:00:29.235Z</time>
      </trkpt>
      <trkpt lat="48.1144" lon="-2.89789">
        <ele>156.561074</ele>
        <time>2022-12-13T14:00:33.250Z</time>
      </trkpt>
      <trkpt lat="48.11438" lon="-2.89775">
        <ele>156.757322</ele>
        <time>2022-12-13T14:00:36.279Z</time>
      </trkpt>
      <trkpt lat="48.11435" lon="-2.89761">
        <ele>156.949859</ele>
        <time>2022-12-13T14:00:39.246Z</time>
      </trkpt>
      <trkpt lat="48.11433" lon="-2.89748">
        <ele>157.13717</ele>
        <time>2022-12-13T14:00:42.247Z</time>
      </trkpt>
      <trkpt lat="48.1143" lon="-2.89735">
        <ele>157.32057</ele>
        <time>2022-12-13T14:00:45.232Z</time>
      </trkpt>
      <trkpt lat="48.11428" lon="-2.8972">
        <ele>157.527443</ele>
        <time>2022-12-13T14:00:49.248Z</time>
      </trkpt>
      <trkpt lat="48.11427" lon="-2.89706">
        <ele>157.725517</ele>
        <time>2022-12-13T14:00:53.222Z</time>
      </trkpt>
      <trkpt lat="48.11425" lon="-2.89689">
        <ele>157.952344</ele>
        <time>2022-12-13T14:00:57.224Z</time>
      </trkpt>
      <trkpt lat="48.11423" lon="-2.89672">
        <ele>158.183036</ele>
        <time>2022-12-13T14:01:01.229Z</time>
      </trkpt>
      <trkpt lat="48.11421" lon="-2.89658">
        <ele>158.38594</ele>
        <time>2022-12-13T14:01:05.247Z</time>
      </trkpt>
      <trkpt lat="48.11419" lon="-2.89643">
        <ele>158.58493</ele>
        <time>2022-12-13T14:01:09.286Z</time>
      </trkpt>
      <trkpt lat="48.11416" lon="-2.89629">
        <ele>158.793467</ele>
        <time>2022-12-13T14:01:13.222Z</time>
      </trkpt>
      <trkpt lat="48.11413" lon="-2.89614">
        <ele>159.006335</ele>
        <time>2022-12-13T14:01:17.248Z</time>
      </trkpt>
      <trkpt lat="48.11411" lon="-2.89598">
        <ele>159.223292</ele>
        <time>2022-12-13T14:01:21.230Z</time>
      </trkpt>
      <trkpt lat="48.11408" lon="-2.89582">
        <ele>159.451607</ele>
        <time>2022-12-13T14:01:25.214Z</time>
      </trkpt>
      <trkpt lat="48.11406" lon="-2.89567">
        <ele>159.658078</ele>
        <time>2022-12-13T14:01:29.238Z</time>
      </trkpt>
      <trkpt lat="48.11403" lon="-2.89552">
        <ele>159.870687</ele>
        <time>2022-12-13T14:01:33.239Z</time>
      </trkpt>
      <trkpt lat="48.11402" lon="-2.89536">
        <ele>160.100195</ele>
        <time>2022-12-13T14:01:37.219Z</time>
      </trkpt>
      <trkpt lat="48.114" lon="-2.8952">
        <ele>160.338542</ele>
        <time>2022-12-13T14:01:41.292Z</time>
      </trkpt>
      <trkpt lat="48.11398" lon="-2.89504">
        <ele>160.574624</ele>
        <time>2022-12-13T14:01:45.236Z</time>
      </trkpt>
      <trkpt lat="48.11396" lon="-2.89489">
        <ele>160.808163</ele>
        <time>2022-12-13T14:01:49.221Z</time>
      </trkpt>
      <trkpt lat="48.11395" lon="-2.89474">
        <ele>161.030761</ele>
        <time>2022-12-13T14:01:53.244Z</time>
      </trkpt>
      <trkpt lat="48.11394" lon="-2.89457">
        <ele>161.287411</ele>
        <time>2022-12-13T14:01:57.215Z</time>
      </trkpt>
      <trkpt lat="48.11393" lon="-2.8944">
        <ele>161.54636</ele>
        <time>2022-12-13T14:02:01.248Z</time>
      </trkpt>
      <trkpt lat="48.11393" lon="-2.89422">
        <ele>161.804354</ele>
        <time>2022-12-13T14:02:05.237Z</time>
      </trkpt>
      <trkpt lat="48.11392" lon="-2.89406">
        <ele>162.043464</ele>
        <time>2022-12-13T14:02:09.223Z</time>
      </trkpt>
      <trkpt lat="48.11393" lon="-2.8939">
        <ele>162.28074</ele>
        <time>2022-12-13T14:02:13.244Z</time>
      </trkpt>
      <trkpt lat="48.11392" lon="-2.89375">
        <ele>162.512754</ele>
        <time>2022-12-13T14:02:17.226Z</time>
      </trkpt>
      <trkpt lat="48.11391" lon="-2.89357">
        <ele>162.774189</ele>
        <time>2022-12-13T14:02:21.214Z</time>
      </trkpt>
      <trkpt lat="48.11391" lon="-2.89344">
        <ele>162.978794</ele>
        <time>2022-12-13T14:02:24.304Z</time>
      </trkpt>
      <trkpt lat="48.11391" lon="-2.89328">
        <ele>163.213599</ele>
        <time>2022-12-13T14:02:28.224Z</time>
      </trkpt>
      <trkpt lat="48.11392" lon="-2.89314">
        <ele>163.419984</ele>
        <time>2022-12-13T14:02:32.234Z</time>
      </trkpt>
      <trkpt lat="48.11394" lon="-2.89297">
        <ele>163.6791</ele>
        <time>2022-12-13T14:02:36.222Z</time>
      </trkpt>
      <trkpt lat="48.11399" lon="-2.89284">
        <ele>163.901785</ele>
        <time>2022-12-13T14:02:40.227Z</time>
      </trkpt>
      <trkpt lat="48.11403" lon="-2.89271">
        <ele>164.313275</ele>
        <time>2022-12-13T14:02:45.294Z</time>
      </trkpt>
      <trkpt lat="48.11408" lon="-2.89259">
        <ele>164.852147</ele>
        <time>2022-12-13T14:02:54.225Z</time>
      </trkpt>
      <trkpt lat="48.11413" lon="-2.89246">
        <ele>165.429845</ele>
        <time>2022-12-13T14:03:05.242Z</time>
      </trkpt>
      <trkpt lat="48.11418" lon="-2.89232">
        <ele>166.033712</ele>
        <time>2022-12-13T14:03:11.227Z</time>
      </trkpt>
      <trkpt lat="48.11424" lon="-2.8922">
        <ele>166.615734</ele>
        <time>2022-12-13T14:03:16.243Z</time>
      </trkpt>
      <trkpt lat="48.11428" lon="-2.89208">
        <ele>167.150718</ele>
        <time>2022-12-13T14:03:21.232Z</time>
      </trkpt>
      <trkpt lat="48.1143" lon="-2.89195">
        <ele>167.686629</ele>
        <time>2022-12-13T14:03:34.306Z</time>
      </trkpt>
      <trkpt lat="48.11434" lon="-2.89182">
        <ele>168.226253</ele>
        <time>2022-12-13T14:03:44.239Z</time>
      </trkpt>
      <trkpt lat="48.11437" lon="-2.89166">
        <ele>168.877847</ele>
        <time>2022-12-13T14:03:49.234Z</time>
      </trkpt>
      <trkpt lat="48.11439" lon="-2.89153">
        <ele>169.409949</ele>
        <time>2022-12-13T14:03:53.242Z</time>
      </trkpt>
      <trkpt lat="48.11441" lon="-2.89139">
        <ele>169.956073</ele>
        <time>2022-12-13T14:03:57.235Z</time>
      </trkpt>
      <trkpt lat="48.11443" lon="-2.89126">
        <ele>170.493381</ele>
        <time>2022-12-13T14:04:01.224Z</time>
      </trkpt>
      <trkpt lat="48.11445" lon="-2.89109">
        <ele>171.142062</ele>
        <time>2022-12-13T14:04:06.305Z</time>
      </trkpt>
      <trkpt lat="48.11446" lon="-2.89096">
        <ele>171.677203</ele>
        <time>2022-12-13T14:04:10.233Z</time>
      </trkpt>
      <trkpt lat="48.11448" lon="-2.89083">
        <ele>172.206857</ele>
        <time>2022-12-13T14:04:14.219Z</time>
      </trkpt>
      <trkpt lat="48.1145" lon="-2.89066">
        <ele>172.851687</ele>
        <time>2022-12-13T14:04:19.218Z</time>
      </trkpt>
      <trkpt lat="48.11451" lon="-2.8905">
        <ele>173.487232</ele>
        <time>2022-12-13T14:04:24.248Z</time>
      </trkpt>
      <trkpt lat="48.11452" lon="-2.89036">
        <ele>174.048411</ele>
        <time>2022-12-13T14:04:29.232Z</time>
      </trkpt>
      <trkpt lat="48.11451" lon="-2.89021">
        <ele>174.511272</ele>
        <time>2022-12-13T14:04:34.241Z</time>
      </trkpt>
      <trkpt lat="48.11449" lon="-2.89007">
        <ele>174.456408</ele>
        <time>2022-12-13T14:04:40.234Z</time>
      </trkpt>
      <trkpt lat="48.11448" lon="-2.88993">
        <ele>174.404834</ele>
        <time>2022-12-13T14:04:49.246Z</time>
      </trkpt>
      <trkpt lat="48.11445" lon="-2.8898">
        <ele>174.354866</ele>
        <time>2022-12-13T14:05:07.230Z</time>
      </trkpt>
      <trkpt lat="48.11444" lon="-2.88963">
        <ele>174.291414</ele>
        <time>2022-12-13T14:05:12.235Z</time>
      </trkpt>
      <trkpt lat="48.11441" lon="-2.8895">
        <ele>174.239884</ele>
        <time>2022-12-13T14:05:16.243Z</time>
      </trkpt>
      <trkpt lat="48.11438" lon="-2.88934">
        <ele>174.178816</ele>
        <time>2022-12-13T14:05:21.290Z</time>
      </trkpt>
      <trkpt lat="48.11436" lon="-2.88919">
        <ele>174.12099</ele>
        <time>2022-12-13T14:05:25.218Z</time>
      </trkpt>
      <trkpt lat="48.11434" lon="-2.88903">
        <ele>174.063068</ele>
        <time>2022-12-13T14:05:29.229Z</time>
      </trkpt>
      <trkpt lat="48.11433" lon="-2.8889">
        <ele>174.012117</ele>
        <time>2022-12-13T14:05:33.226Z</time>
      </trkpt>
      <trkpt lat="48.11431" lon="-2.88875">
        <ele>173.957984</ele>
        <time>2022-12-13T14:05:38.223Z</time>
      </trkpt>
      <trkpt lat="48.11428" lon="-2.88863">
        <ele>173.90772</ele>
        <time>2022-12-13T14:05:43.238Z</time>
      </trkpt>
      <trkpt lat="48.11427" lon="-2.88862">
        <ele>173.900374</ele>
        <time>2022-12-13T14:06:13.802Z</time>
      </trkpt>
      <trkpt lat="48.11423" lon="-2.88841">
        <ele>173.820552</ele>
        <time>2022-12-13T14:09:08.241Z</time>
      </trkpt>
      <trkpt lat="48.11422" lon="-2.88827">
        <ele>173.769925</ele>
        <time>2022-12-13T14:09:12.238Z</time>
      </trkpt>
      <trkpt lat="48.1142" lon="-2.88814">
        <ele>173.719966</ele>
        <time>2022-12-13T14:09:16.225Z</time>
      </trkpt>
      <trkpt lat="48.1142" lon="-2.88799">
        <ele>173.664689</ele>
        <time>2022-12-13T14:09:20.240Z</time>
      </trkpt>
      <trkpt lat="48.11421" lon="-2.88783">
        <ele>173.604777</ele>
        <time>2022-12-13T14:09:24.215Z</time>
      </trkpt>
      <trkpt lat="48.11423" lon="-2.88767">
        <ele>173.541957</ele>
        <time>2022-12-13T14:09:28.219Z</time>
      </trkpt>
      <trkpt lat="48.11424" lon="-2.8875">
        <ele>173.657976</ele>
        <time>2022-12-13T14:09:32.227Z</time>
      </trkpt>
      <trkpt lat="48.11426" lon="-2.88736">
        <ele>173.849137</ele>
        <time>2022-12-13T14:09:35.228Z</time>
      </trkpt>
      <trkpt lat="48.11427" lon="-2.8872">
        <ele>174.046643</ele>
        <time>2022-12-13T14:09:38.223Z</time>
      </trkpt>
      <trkpt lat="48.11429" lon="-2.88702">
        <ele>174.284644</ele>
        <time>2022-12-13T14:09:42.223Z</time>
      </trkpt>
      <trkpt lat="48.11431" lon="-2.88684">
        <ele>174.515591</ele>
        <time>2022-12-13T14:09:45.226Z</time>
      </trkpt>
      <trkpt lat="48.11433" lon="-2.88667">
        <ele>174.736817</ele>
        <time>2022-12-13T14:09:48.238Z</time>
      </trkpt>
      <trkpt lat="48.11435" lon="-2.8865">
        <ele>174.962248</ele>
        <time>2022-12-13T14:09:51.225Z</time>
      </trkpt>
      <trkpt lat="48.11436" lon="-2.88633">
        <ele>175.18488</ele>
        <time>2022-12-13T14:09:54.238Z</time>
      </trkpt>
      <trkpt lat="48.11437" lon="-2.88616">
        <ele>175.40026</ele>
        <time>2022-12-13T14:09:57.237Z</time>
      </trkpt>
      <trkpt lat="48.11438" lon="-2.88601">
        <ele>175.594834</ele>
        <time>2022-12-13T14:10:00.222Z</time>
      </trkpt>
      <trkpt lat="48.1144" lon="-2.88585">
        <ele>175.806639</ele>
        <time>2022-12-13T14:10:04.237Z</time>
      </trkpt>
      <trkpt lat="48.11443" lon="-2.88568">
        <ele>176.025887</ele>
        <time>2022-12-13T14:10:07.240Z</time>
      </trkpt>
      <trkpt lat="48.11445" lon="-2.88551">
        <ele>176.253545</ele>
        <time>2022-12-13T14:10:10.230Z</time>
      </trkpt>
      <trkpt lat="48.11446" lon="-2.88532">
        <ele>176.495057</ele>
        <time>2022-12-13T14:10:13.239Z</time>
      </trkpt>
      <trkpt lat="48.11449" lon="-2.88513">
        <ele>176.748881</ele>
        <time>2022-12-13T14:10:16.221Z</time>
      </trkpt>
      <trkpt lat="48.1145" lon="-2.88493">
        <ele>176.982678</ele>
        <time>2022-12-13T14:10:19.246Z</time>
      </trkpt>
      <trkpt lat="48.11452" lon="-2.88475">
        <ele>177.028421</ele>
        <time>2022-12-13T14:10:22.228Z</time>
      </trkpt>
      <trkpt lat="48.11455" lon="-2.88458">
        <ele>177.070212</ele>
        <time>2022-12-13T14:10:25.232Z</time>
      </trkpt>
      <trkpt lat="48.11457" lon="-2.88444">
        <ele>177.105261</ele>
        <time>2022-12-13T14:10:28.237Z</time>
      </trkpt>
      <trkpt lat="48.11461" lon="-2.88428">
        <ele>177.145809</ele>
        <time>2022-12-13T14:10:31.240Z</time>
      </trkpt>
      <trkpt lat="48.11466" lon="-2.88413">
        <ele>177.187294</ele>
        <time>2022-12-13T14:10:34.228Z</time>
      </trkpt>
      <trkpt lat="48.11471" lon="-2.88398">
        <ele>177.226648</ele>
        <time>2022-12-13T14:10:37.236Z</time>
      </trkpt>
      <trkpt lat="48.11475" lon="-2.88381">
        <ele>177.270736</ele>
        <time>2022-12-13T14:10:40.236Z</time>
      </trkpt>
      <trkpt lat="48.1148" lon="-2.88364">
        <ele>177.315618</ele>
        <time>2022-12-13T14:10:43.240Z</time>
      </trkpt>
      <trkpt lat="48.11485" lon="-2.88348">
        <ele>177.358578</ele>
        <time>2022-12-13T14:10:46.226Z</time>
      </trkpt>
      <trkpt lat="48.1149" lon="-2.88332">
        <ele>177.402869</ele>
        <time>2022-12-13T14:10:49.246Z</time>
      </trkpt>
      <trkpt lat="48.11495" lon="-2.88315">
        <ele>177.448423</ele>
        <time>2022-12-13T14:10:52.237Z</time>
      </trkpt>
      <trkpt lat="48.11501" lon="-2.88297">
        <ele>177.495323</ele>
        <time>2022-12-13T14:10:55.234Z</time>
      </trkpt>
      <trkpt lat="48.11507" lon="-2.8828">
        <ele>177.541459</ele>
        <time>2022-12-13T14:10:58.239Z</time>
      </trkpt>
      <trkpt lat="48.11512" lon="-2.88264">
        <ele>177.584937</ele>
        <time>2022-12-13T14:11:01.238Z</time>
      </trkpt>
      <trkpt lat="48.11517" lon="-2.88248">
        <ele>177.627219</ele>
        <time>2022-12-13T14:11:04.221Z</time>
      </trkpt>
      <trkpt lat="48.11522" lon="-2.88233">
        <ele>177.674357</ele>
        <time>2022-12-13T14:11:07.224Z</time>
      </trkpt>
      <trkpt lat="48.11526" lon="-2.88218">
        <ele>177.719127</ele>
        <time>2022-12-13T14:11:10.226Z</time>
      </trkpt>
      <trkpt lat="48.1153" lon="-2.88206">
        <ele>177.759077</ele>
        <time>2022-12-13T14:11:13.235Z</time>
      </trkpt>
      <trkpt lat="48.11534" lon="-2.88191">
        <ele>177.803195</ele>
        <time>2022-12-13T14:11:16.218Z</time>
      </trkpt>
      <trkpt lat="48.11539" lon="-2.88176">
        <ele>177.850623</ele>
        <time>2022-12-13T14:11:19.230Z</time>
      </trkpt>
      <trkpt lat="48.11545" lon="-2.88159">
        <ele>177.902364</ele>
        <time>2022-12-13T14:11:22.236Z</time>
      </trkpt>
      <trkpt lat="48.11552" lon="-2.88142">
        <ele>177.958609</ele>
        <time>2022-12-13T14:11:25.225Z</time>
      </trkpt>
      <trkpt lat="48.11558" lon="-2.88128">
        <ele>178.008544</ele>
        <time>2022-12-13T14:11:28.242Z</time>
      </trkpt>
      <trkpt lat="48.11565" lon="-2.88114">
        <ele>178.056759</ele>
        <time>2022-12-13T14:11:31.241Z</time>
      </trkpt>
      <trkpt lat="48.11573" lon="-2.88101">
        <ele>178.105235</ele>
        <time>2022-12-13T14:11:34.233Z</time>
      </trkpt>
      <trkpt lat="48.11582" lon="-2.88088">
        <ele>178.155744</ele>
        <time>2022-12-13T14:11:37.241Z</time>
      </trkpt>
      <trkpt lat="48.11592" lon="-2.88078">
        <ele>178.208764</ele>
        <time>2022-12-13T14:11:40.242Z</time>
      </trkpt>
      <trkpt lat="48.11603" lon="-2.88068">
        <ele>178.26428</ele>
        <time>2022-12-13T14:11:43.225Z</time>
      </trkpt>
      <trkpt lat="48.11615" lon="-2.88058">
        <ele>178.319702</ele>
        <time>2022-12-13T14:11:46.231Z</time>
      </trkpt>
      <trkpt lat="48.11626" lon="-2.88048">
        <ele>178.373269</ele>
        <time>2022-12-13T14:11:49.242Z</time>
      </trkpt>
      <trkpt lat="48.11637" lon="-2.8804">
        <ele>178.191095</ele>
        <time>2022-12-13T14:11:52.233Z</time>
      </trkpt>
      <trkpt lat="48.11647" lon="-2.88031">
        <ele>177.954804</ele>
        <time>2022-12-13T14:11:55.238Z</time>
      </trkpt>
      <trkpt lat="48.11656" lon="-2.88021">
        <ele>177.722104</ele>
        <time>2022-12-13T14:11:58.239Z</time>
      </trkpt>
      <trkpt lat="48.11665" lon="-2.8801">
        <ele>177.476341</ele>
        <time>2022-12-13T14:12:01.234Z</time>
      </trkpt>
      <trkpt lat="48.11674" lon="-2.87998">
        <ele>177.219367</ele>
        <time>2022-12-13T14:12:04.233Z</time>
      </trkpt>
      <trkpt lat="48.11682" lon="-2.87984">
        <ele>176.962572</ele>
        <time>2022-12-13T14:12:07.238Z</time>
      </trkpt>
      <trkpt lat="48.11688" lon="-2.87967">
        <ele>176.680712</ele>
        <time>2022-12-13T14:12:10.216Z</time>
      </trkpt>
      <trkpt lat="48.11695" lon="-2.87949">
        <ele>176.396781</ele>
        <time>2022-12-13T14:12:13.231Z</time>
      </trkpt>
      <trkpt lat="48.117" lon="-2.87932">
        <ele>176.135284</ele>
        <time>2022-12-13T14:12:16.217Z</time>
      </trkpt>
      <trkpt lat="48.11703" lon="-2.87916">
        <ele>175.888008</ele>
        <time>2022-12-13T14:12:19.221Z</time>
      </trkpt>
      <trkpt lat="48.11706" lon="-2.879">
        <ele>175.647654</ele>
        <time>2022-12-13T14:12:22.236Z</time>
      </trkpt>
      <trkpt lat="48.11709" lon="-2.87884">
        <ele>175.419863</ele>
        <time>2022-12-13T14:12:25.227Z</time>
      </trkpt>
      <trkpt lat="48.11712" lon="-2.87869">
        <ele>175.196667</ele>
        <time>2022-12-13T14:12:28.241Z</time>
      </trkpt>
      <trkpt lat="48.11715" lon="-2.87853">
        <ele>174.959859</ele>
        <time>2022-12-13T14:12:31.231Z</time>
      </trkpt>
      <trkpt lat="48.11719" lon="-2.87836">
        <ele>174.705876</ele>
        <time>2022-12-13T14:12:34.227Z</time>
      </trkpt>
      <trkpt lat="48.11722" lon="-2.87818">
        <ele>174.599215</ele>
        <time>2022-12-13T14:12:37.245Z</time>
      </trkpt>
      <trkpt lat="48.11726" lon="-2.87799">
        <ele>174.655947</ele>
        <time>2022-12-13T14:12:40.243Z</time>
      </trkpt>
      <trkpt lat="48.1173" lon="-2.87781">
        <ele>174.710764</ele>
        <time>2022-12-13T14:12:43.246Z</time>
      </trkpt>
      <trkpt lat="48.11733" lon="-2.87762">
        <ele>174.765883</ele>
        <time>2022-12-13T14:12:46.221Z</time>
      </trkpt>
      <trkpt lat="48.11737" lon="-2.87745">
        <ele>174.818363</ele>
        <time>2022-12-13T14:12:49.242Z</time>
      </trkpt>
      <trkpt lat="48.11741" lon="-2.87728">
        <ele>174.87102</ele>
        <time>2022-12-13T14:12:52.237Z</time>
      </trkpt>
      <trkpt lat="48.11744" lon="-2.87709">
        <ele>174.928201</ele>
        <time>2022-12-13T14:12:55.240Z</time>
      </trkpt>
      <trkpt lat="48.11748" lon="-2.87691">
        <ele>174.981907</ele>
        <time>2022-12-13T14:12:58.238Z</time>
      </trkpt>
      <trkpt lat="48.11751" lon="-2.87672">
        <ele>175.037425</ele>
        <time>2022-12-13T14:13:01.225Z</time>
      </trkpt>
      <trkpt lat="48.11755" lon="-2.87655">
        <ele>175.09033</ele>
        <time>2022-12-13T14:13:04.232Z</time>
      </trkpt>
      <trkpt lat="48.11759" lon="-2.87637">
        <ele>175.145296</ele>
        <time>2022-12-13T14:13:07.234Z</time>
      </trkpt>
      <trkpt lat="48.11762" lon="-2.87619">
        <ele>175.199738</ele>
        <time>2022-12-13T14:13:10.226Z</time>
      </trkpt>
      <trkpt lat="48.11766" lon="-2.876">
        <ele>175.254579</ele>
        <time>2022-12-13T14:13:13.240Z</time>
      </trkpt>
      <trkpt lat="48.11768" lon="-2.87585">
        <ele>175.301528</ele>
        <time>2022-12-13T14:13:16.235Z</time>
      </trkpt>
      <trkpt lat="48.11772" lon="-2.87571">
        <ele>175.343461</ele>
        <time>2022-12-13T14:13:19.238Z</time>
      </trkpt>
      <trkpt lat="48.11775" lon="-2.87554">
        <ele>175.306283</ele>
        <time>2022-12-13T14:13:22.246Z</time>
      </trkpt>
      <trkpt lat="48.11778" lon="-2.87537">
        <ele>175.25547</ele>
        <time>2022-12-13T14:13:25.234Z</time>
      </trkpt>
      <trkpt lat="48.11781" lon="-2.87518">
        <ele>175.200183</ele>
        <time>2022-12-13T14:13:28.246Z</time>
      </trkpt>
      <trkpt lat="48.11784" lon="-2.875">
        <ele>175.145704</ele>
        <time>2022-12-13T14:13:31.247Z</time>
      </trkpt>
      <trkpt lat="48.11788" lon="-2.87484">
        <ele>175.096895</ele>
        <time>2022-12-13T14:13:34.233Z</time>
      </trkpt>
      <trkpt lat="48.1179" lon="-2.8747">
        <ele>175.055438</ele>
        <time>2022-12-13T14:13:37.236Z</time>
      </trkpt>
      <trkpt lat="48.11794" lon="-2.87455">
        <ele>175.008387</ele>
        <time>2022-12-13T14:13:41.223Z</time>
      </trkpt>
      <trkpt lat="48.11797" lon="-2.87442">
        <ele>174.969179</ele>
        <time>2022-12-13T14:13:44.238Z</time>
      </trkpt>
      <trkpt lat="48.11799" lon="-2.87428">
        <ele>174.927667</ele>
        <time>2022-12-13T14:13:47.235Z</time>
      </trkpt>
      <trkpt lat="48.118" lon="-2.87412">
        <ele>174.881961</ele>
        <time>2022-12-13T14:13:50.239Z</time>
      </trkpt>
      <trkpt lat="48.11801" lon="-2.87396">
        <ele>174.836739</ele>
        <time>2022-12-13T14:13:53.244Z</time>
      </trkpt>
      <trkpt lat="48.11802" lon="-2.8738">
        <ele>174.789513</ele>
        <time>2022-12-13T14:13:56.252Z</time>
      </trkpt>
      <trkpt lat="48.11802" lon="-2.87363">
        <ele>174.742266</ele>
        <time>2022-12-13T14:13:59.232Z</time>
      </trkpt>
      <trkpt lat="48.11802" lon="-2.87348">
        <ele>174.696426</ele>
        <time>2022-12-13T14:14:02.239Z</time>
      </trkpt>
      <trkpt lat="48.118" lon="-2.87332">
        <ele>174.652093</ele>
        <time>2022-12-13T14:14:05.244Z</time>
      </trkpt>
      <trkpt lat="48.11797" lon="-2.87317">
        <ele>174.606731</ele>
        <time>2022-12-13T14:14:08.229Z</time>
      </trkpt>
      <trkpt lat="48.11795" lon="-2.87304">
        <ele>174.573773</ele>
        <time>2022-12-13T14:14:11.242Z</time>
      </trkpt>
      <trkpt lat="48.11791" lon="-2.87287">
        <ele>174.569646</ele>
        <time>2022-12-13T14:14:15.239Z</time>
      </trkpt>
      <trkpt lat="48.11787" lon="-2.87272">
        <ele>174.565724</ele>
        <time>2022-12-13T14:14:19.244Z</time>
      </trkpt>
      <trkpt lat="48.11783" lon="-2.87259">
        <ele>174.562257</ele>
        <time>2022-12-13T14:14:23.237Z</time>
      </trkpt>
      <trkpt lat="48.11781" lon="-2.87245">
        <ele>174.558779</ele>
        <time>2022-12-13T14:14:31.224Z</time>
      </trkpt>
      <trkpt lat="48.11775" lon="-2.87233">
        <ele>174.555348</ele>
        <time>2022-12-13T14:14:42.223Z</time>
      </trkpt>
      <trkpt lat="48.11773" lon="-2.87219">
        <ele>174.551968</ele>
        <time>2022-12-13T14:14:52.236Z</time>
      </trkpt>
      <trkpt lat="48.11769" lon="-2.87207">
        <ele>174.54872</ele>
        <time>2022-12-13T14:15:07.225Z</time>
      </trkpt>
      <trkpt lat="48.11767" lon="-2.87191">
        <ele>174.544657</ele>
        <time>2022-12-13T14:15:11.238Z</time>
      </trkpt>
      <trkpt lat="48.11765" lon="-2.87174">
        <ele>174.540618</ele>
        <time>2022-12-13T14:15:14.235Z</time>
      </trkpt>
      <trkpt lat="48.11764" lon="-2.87155">
        <ele>174.536033</ele>
        <time>2022-12-13T14:15:17.243Z</time>
      </trkpt>
      <trkpt lat="48.11764" lon="-2.87136">
        <ele>174.531431</ele>
        <time>2022-12-13T14:15:20.239Z</time>
      </trkpt>
      <trkpt lat="48.11765" lon="-2.87119">
        <ele>174.527425</ele>
        <time>2022-12-13T14:15:23.243Z</time>
      </trkpt>
      <trkpt lat="48.11766" lon="-2.87102">
        <ele>174.5234</ele>
        <time>2022-12-13T14:15:26.219Z</time>
      </trkpt>
      <trkpt lat="48.11768" lon="-2.87085">
        <ele>174.519293</ele>
        <time>2022-12-13T14:15:29.239Z</time>
      </trkpt>
      <trkpt lat="48.1177" lon="-2.87069">
        <ele>174.515264</ele>
        <time>2022-12-13T14:15:33.232Z</time>
      </trkpt>
      <trkpt lat="48.11771" lon="-2.87051">
        <ele>174.511044</ele>
        <time>2022-12-13T14:15:37.241Z</time>
      </trkpt>
      <trkpt lat="48.11774" lon="-2.87036">
        <ele>174.558654</ele>
        <time>2022-12-13T14:15:40.247Z</time>
      </trkpt>
      <trkpt lat="48.11775" lon="-2.87017">
        <ele>174.640674</ele>
        <time>2022-12-13T14:15:43.241Z</time>
      </trkpt>
      <trkpt lat="48.11776" lon="-2.87001">
        <ele>174.710307</ele>
        <time>2022-12-13T14:15:46.226Z</time>
      </trkpt>
      <trkpt lat="48.11778" lon="-2.86984">
        <ele>174.783068</ele>
        <time>2022-12-13T14:15:49.240Z</time>
      </trkpt>
      <trkpt lat="48.11781" lon="-2.86968">
        <ele>174.854488</ele>
        <time>2022-12-13T14:15:52.239Z</time>
      </trkpt>
      <trkpt lat="48.11782" lon="-2.8695">
        <ele>174.933974</ele>
        <time>2022-12-13T14:15:55.248Z</time>
      </trkpt>
      <trkpt lat="48.11784" lon="-2.86932">
        <ele>175.010626</ele>
        <time>2022-12-13T14:15:58.253Z</time>
      </trkpt>
      <trkpt lat="48.11786" lon="-2.86916">
        <ele>175.08328</ele>
        <time>2022-12-13T14:16:01.237Z</time>
      </trkpt>
      <trkpt lat="48.11788" lon="-2.86899">
        <ele>175.15864</ele>
        <time>2022-12-13T14:16:04.243Z</time>
      </trkpt>
      <trkpt lat="48.11792" lon="-2.86882">
        <ele>175.234666</ele>
        <time>2022-12-13T14:16:07.239Z</time>
      </trkpt>
      <trkpt lat="48.11794" lon="-2.86864">
        <ele>175.314248</ele>
        <time>2022-12-13T14:16:10.246Z</time>
      </trkpt>
      <trkpt lat="48.11797" lon="-2.86851">
        <ele>175.37408</ele>
        <time>2022-12-13T14:16:12.234Z</time>
      </trkpt>
      <trkpt lat="48.11801" lon="-2.86832">
        <ele>175.459116</ele>
        <time>2022-12-13T14:16:15.239Z</time>
      </trkpt>
      <trkpt lat="48.11805" lon="-2.86814">
        <ele>175.541708</ele>
        <time>2022-12-13T14:16:18.242Z</time>
      </trkpt>
      <trkpt lat="48.11809" lon="-2.86795">
        <ele>175.629206</ele>
        <time>2022-12-13T14:16:21.233Z</time>
      </trkpt>
      <trkpt lat="48.11812" lon="-2.86782">
        <ele>175.651598</ele>
        <time>2022-12-13T14:16:23.232Z</time>
      </trkpt>
      <trkpt lat="48.11816" lon="-2.86769">
        <ele>175.556293</ele>
        <time>2022-12-13T14:16:25.236Z</time>
      </trkpt>
      <trkpt lat="48.1182" lon="-2.86751">
        <ele>175.42918</ele>
        <time>2022-12-13T14:16:28.245Z</time>
      </trkpt>
      <trkpt lat="48.11823" lon="-2.86737">
        <ele>175.331351</ele>
        <time>2022-12-13T14:16:31.244Z</time>
      </trkpt>
      <trkpt lat="48.11829" lon="-2.8672">
        <ele>175.200999</ele>
        <time>2022-12-13T14:16:34.241Z</time>
      </trkpt>
      <trkpt lat="48.11834" lon="-2.86704">
        <ele>175.08537</ele>
        <time>2022-12-13T14:16:37.235Z</time>
      </trkpt>
      <trkpt lat="48.11842" lon="-2.8669">
        <ele>174.957075</ele>
        <time>2022-12-13T14:16:40.236Z</time>
      </trkpt>
      <trkpt lat="48.11848" lon="-2.86679">
        <ele>174.862565</ele>
        <time>2022-12-13T14:16:42.242Z</time>
      </trkpt>
      <trkpt lat="48.11856" lon="-2.86666">
        <ele>174.743434</ele>
        <time>2022-12-13T14:16:45.231Z</time>
      </trkpt>
      <trkpt lat="48.11862" lon="-2.86654">
        <ele>174.640058</ele>
        <time>2022-12-13T14:16:48.233Z</time>
      </trkpt>
      <trkpt lat="48.11869" lon="-2.86641">
        <ele>174.527978</ele>
        <time>2022-12-13T14:16:51.257Z</time>
      </trkpt>
      <trkpt lat="48.11877" lon="-2.86627">
        <ele>174.40588</ele>
        <time>2022-12-13T14:16:54.237Z</time>
      </trkpt>
      <trkpt lat="48.11886" lon="-2.86613">
        <ele>174.280618</ele>
        <time>2022-12-13T14:16:57.239Z</time>
      </trkpt>
      <trkpt lat="48.11894" lon="-2.86599">
        <ele>174.151654</ele>
        <time>2022-12-13T14:17:00.246Z</time>
      </trkpt>
      <trkpt lat="48.11903" lon="-2.86586">
        <ele>174.029202</ele>
        <time>2022-12-13T14:17:03.231Z</time>
      </trkpt>
      <trkpt lat="48.1191" lon="-2.86576">
        <ele>173.930477</ele>
        <time>2022-12-13T14:17:05.240Z</time>
      </trkpt>
      <trkpt lat="48.11918" lon="-2.86563">
        <ele>173.840502</ele>
        <time>2022-12-13T14:17:08.249Z</time>
      </trkpt>
      <trkpt lat="48.11926" lon="-2.86548">
        <ele>173.780655</ele>
        <time>2022-12-13T14:17:11.222Z</time>
      </trkpt>
      <trkpt lat="48.11933" lon="-2.86535">
        <ele>173.730938</ele>
        <time>2022-12-13T14:17:14.242Z</time>
      </trkpt>
      <trkpt lat="48.11941" lon="-2.86522">
        <ele>173.677091</ele>
        <time>2022-12-13T14:17:17.244Z</time>
      </trkpt>
      <trkpt lat="48.11947" lon="-2.8651">
        <ele>173.629507</ele>
        <time>2022-12-13T14:17:20.220Z</time>
      </trkpt>
      <trkpt lat="48.11953" lon="-2.86498">
        <ele>173.584027</ele>
        <time>2022-12-13T14:17:23.245Z</time>
      </trkpt>
      <trkpt lat="48.11959" lon="-2.86485">
        <ele>173.535736</ele>
        <time>2022-12-13T14:17:26.242Z</time>
      </trkpt>
      <trkpt lat="48.11965" lon="-2.8647">
        <ele>173.481783</ele>
        <time>2022-12-13T14:17:29.245Z</time>
      </trkpt>
      <trkpt lat="48.1197" lon="-2.86453">
        <ele>173.423346</ele>
        <time>2022-12-13T14:17:32.245Z</time>
      </trkpt>
      <trkpt lat="48.11974" lon="-2.86435">
        <ele>173.365166</ele>
        <time>2022-12-13T14:17:35.247Z</time>
      </trkpt>
      <trkpt lat="48.11976" lon="-2.86416">
        <ele>173.306884</ele>
        <time>2022-12-13T14:17:38.233Z</time>
      </trkpt>
      <trkpt lat="48.11978" lon="-2.86398">
        <ele>173.249995</ele>
        <time>2022-12-13T14:17:41.238Z</time>
      </trkpt>
      <trkpt lat="48.11979" lon="-2.8638">
        <ele>173.193248</ele>
        <time>2022-12-13T14:17:44.245Z</time>
      </trkpt>
      <trkpt lat="48.1198" lon="-2.86363">
        <ele>173.143477</ele>
        <time>2022-12-13T14:17:47.249Z</time>
      </trkpt>
      <trkpt lat="48.11978" lon="-2.86347">
        <ele>173.090974</ele>
        <time>2022-12-13T14:17:50.250Z</time>
      </trkpt>
      <trkpt lat="48.11975" lon="-2.86329">
        <ele>173.039715</ele>
        <time>2022-12-13T14:17:53.234Z</time>
      </trkpt>
      <trkpt lat="48.11971" lon="-2.86312">
        <ele>173.195587</ele>
        <time>2022-12-13T14:17:56.243Z</time>
      </trkpt>
      <trkpt lat="48.11967" lon="-2.86298">
        <ele>173.331379</ele>
        <time>2022-12-13T14:17:59.241Z</time>
      </trkpt>
      <trkpt lat="48.11963" lon="-2.86283">
        <ele>173.474797</ele>
        <time>2022-12-13T14:18:02.225Z</time>
      </trkpt>
      <trkpt lat="48.1196" lon="-2.86268">
        <ele>173.616687</ele>
        <time>2022-12-13T14:18:05.239Z</time>
      </trkpt>
      <trkpt lat="48.11953" lon="-2.86255">
        <ele>173.770756</ele>
        <time>2022-12-13T14:18:08.238Z</time>
      </trkpt>
      <trkpt lat="48.11946" lon="-2.86241">
        <ele>173.926094</ele>
        <time>2022-12-13T14:18:11.242Z</time>
      </trkpt>
      <trkpt lat="48.11939" lon="-2.86225">
        <ele>174.097691</ele>
        <time>2022-12-13T14:18:14.223Z</time>
      </trkpt>
      <trkpt lat="48.11932" lon="-2.86208">
        <ele>174.27016</ele>
        <time>2022-12-13T14:18:17.241Z</time>
      </trkpt>
      <trkpt lat="48.11927" lon="-2.8619">
        <ele>174.446134</ele>
        <time>2022-12-13T14:18:20.232Z</time>
      </trkpt>
      <trkpt lat="48.11922" lon="-2.86172">
        <ele>174.617423</ele>
        <time>2022-12-13T14:18:23.242Z</time>
      </trkpt>
      <trkpt lat="48.1192" lon="-2.86159">
        <ele>174.739174</ele>
        <time>2022-12-13T14:18:25.241Z</time>
      </trkpt>
      <trkpt lat="48.11918" lon="-2.8614">
        <ele>174.915681</ele>
        <time>2022-12-13T14:18:28.241Z</time>
      </trkpt>
      <trkpt lat="48.11919" lon="-2.86123">
        <ele>175.064843</ele>
        <time>2022-12-13T14:18:31.232Z</time>
      </trkpt>
      <trkpt lat="48.11919" lon="-2.86107">
        <ele>175.203678</ele>
        <time>2022-12-13T14:18:34.246Z</time>
      </trkpt>
      <trkpt lat="48.11921" lon="-2.86091">
        <ele>175.351166</ele>
        <time>2022-12-13T14:18:37.252Z</time>
      </trkpt>
      <trkpt lat="48.11924" lon="-2.86074">
        <ele>175.435937</ele>
        <time>2022-12-13T14:18:40.239Z</time>
      </trkpt>
      <trkpt lat="48.11928" lon="-2.86056">
        <ele>175.417987</ele>
        <time>2022-12-13T14:18:43.230Z</time>
      </trkpt>
      <trkpt lat="48.11932" lon="-2.86037">
        <ele>175.399815</ele>
        <time>2022-12-13T14:18:46.248Z</time>
      </trkpt>
      <trkpt lat="48.11937" lon="-2.86019">
        <ele>175.381534</ele>
        <time>2022-12-13T14:18:49.238Z</time>
      </trkpt>
      <trkpt lat="48.11941" lon="-2.86001">
        <ele>175.363939</ele>
        <time>2022-12-13T14:18:52.227Z</time>
      </trkpt>
      <trkpt lat="48.11945" lon="-2.85984">
        <ele>175.34687</ele>
        <time>2022-12-13T14:18:55.243Z</time>
      </trkpt>
      <trkpt lat="48.11949" lon="-2.85966">
        <ele>175.328835</ele>
        <time>2022-12-13T14:18:58.250Z</time>
      </trkpt>
      <trkpt lat="48.11953" lon="-2.85948">
        <ele>175.311505</ele>
        <time>2022-12-13T14:19:01.243Z</time>
      </trkpt>
      <trkpt lat="48.11957" lon="-2.85932">
        <ele>175.295585</ele>
        <time>2022-12-13T14:19:04.239Z</time>
      </trkpt>
      <trkpt lat="48.1196" lon="-2.85918">
        <ele>175.281908</ele>
        <time>2022-12-13T14:19:07.245Z</time>
      </trkpt>
      <trkpt lat="48.11964" lon="-2.85905">
        <ele>175.268683</ele>
        <time>2022-12-13T14:19:10.249Z</time>
      </trkpt>
      <trkpt lat="48.11968" lon="-2.85889">
        <ele>175.253418</ele>
        <time>2022-12-13T14:19:13.259Z</time>
      </trkpt>
      <trkpt lat="48.11971" lon="-2.85874">
        <ele>175.238201</ele>
        <time>2022-12-13T14:19:16.251Z</time>
      </trkpt>
      <trkpt lat="48.11975" lon="-2.85856">
        <ele>175.221344</ele>
        <time>2022-12-13T14:19:19.252Z</time>
      </trkpt>
      <trkpt lat="48.11979" lon="-2.85839">
        <ele>175.204234</ele>
        <time>2022-12-13T14:19:22.234Z</time>
      </trkpt>
      <trkpt lat="48.11983" lon="-2.85822">
        <ele>175.126323</ele>
        <time>2022-12-13T14:19:25.254Z</time>
      </trkpt>
      <trkpt lat="48.11985" lon="-2.85804">
        <ele>174.90584</ele>
        <time>2022-12-13T14:19:28.240Z</time>
      </trkpt>
      <trkpt lat="48.11987" lon="-2.85788">
        <ele>174.712077</ele>
        <time>2022-12-13T14:19:31.230Z</time>
      </trkpt>
      <trkpt lat="48.11987" lon="-2.85773">
        <ele>174.526199</ele>
        <time>2022-12-13T14:19:34.247Z</time>
      </trkpt>
      <trkpt lat="48.11988" lon="-2.85756">
        <ele>174.324582</ele>
        <time>2022-12-13T14:19:37.252Z</time>
      </trkpt>
      <trkpt lat="48.11987" lon="-2.85739">
        <ele>174.112782</ele>
        <time>2022-12-13T14:19:40.250Z</time>
      </trkpt>
      <trkpt lat="48.11985" lon="-2.85721">
        <ele>173.897725</ele>
        <time>2022-12-13T14:19:43.251Z</time>
      </trkpt>
      <trkpt lat="48.11982" lon="-2.85704">
        <ele>173.682548</ele>
        <time>2022-12-13T14:19:46.249Z</time>
      </trkpt>
      <trkpt lat="48.11977" lon="-2.85687">
        <ele>173.460648</ele>
        <time>2022-12-13T14:19:49.233Z</time>
      </trkpt>
      <trkpt lat="48.11972" lon="-2.8567">
        <ele>173.238734</ele>
        <time>2022-12-13T14:19:52.225Z</time>
      </trkpt>
      <trkpt lat="48.11968" lon="-2.85654">
        <ele>173.014985</ele>
        <time>2022-12-13T14:19:55.249Z</time>
      </trkpt>
      <trkpt lat="48.11963" lon="-2.85636">
        <ele>172.789515</ele>
        <time>2022-12-13T14:19:58.228Z</time>
      </trkpt>
      <trkpt lat="48.1196" lon="-2.85624">
        <ele>172.62467</ele>
        <time>2022-12-13T14:20:00.226Z</time>
      </trkpt>
      <trkpt lat="48.11955" lon="-2.85605">
        <ele>172.380045</ele>
        <time>2022-12-13T14:20:03.277Z</time>
      </trkpt>
      <trkpt lat="48.1195" lon="-2.85586">
        <ele>172.136984</ele>
        <time>2022-12-13T14:20:06.239Z</time>
      </trkpt>
      <trkpt lat="48.11945" lon="-2.85569">
        <ele>171.91824</ele>
        <time>2022-12-13T14:20:09.250Z</time>
      </trkpt>
      <trkpt lat="48.11941" lon="-2.85555">
        <ele>171.841146</ele>
        <time>2022-12-13T14:20:12.253Z</time>
      </trkpt>
      <trkpt lat="48.11937" lon="-2.85539">
        <ele>171.760074</ele>
        <time>2022-12-13T14:20:15.230Z</time>
      </trkpt>
      <trkpt lat="48.11933" lon="-2.85525">
        <ele>171.685029</ele>
        <time>2022-12-13T14:20:18.249Z</time>
      </trkpt>
      <trkpt lat="48.11928" lon="-2.85508">
        <ele>171.599452</ele>
        <time>2022-12-13T14:20:21.246Z</time>
      </trkpt>
      <trkpt lat="48.11924" lon="-2.85496">
        <ele>171.533008</ele>
        <time>2022-12-13T14:20:23.241Z</time>
      </trkpt>
      <trkpt lat="48.11919" lon="-2.85478">
        <ele>171.439079</ele>
        <time>2022-12-13T14:20:26.251Z</time>
      </trkpt>
      <trkpt lat="48.11914" lon="-2.85459">
        <ele>171.340607</ele>
        <time>2022-12-13T14:20:29.248Z</time>
      </trkpt>
      <trkpt lat="48.1191" lon="-2.8544">
        <ele>171.247651</ele>
        <time>2022-12-13T14:20:32.250Z</time>
      </trkpt>
      <trkpt lat="48.11907" lon="-2.85424">
        <ele>171.166802</ele>
        <time>2022-12-13T14:20:35.239Z</time>
      </trkpt>
      <trkpt lat="48.11905" lon="-2.85406">
        <ele>171.078674</ele>
        <time>2022-12-13T14:20:38.238Z</time>
      </trkpt>
      <trkpt lat="48.11903" lon="-2.85386">
        <ele>170.983637</ele>
        <time>2022-12-13T14:20:41.240Z</time>
      </trkpt>
      <trkpt lat="48.11902" lon="-2.85367">
        <ele>170.891961</ele>
        <time>2022-12-13T14:20:44.244Z</time>
      </trkpt>
      <trkpt lat="48.119" lon="-2.85348">
        <ele>170.798149</ele>
        <time>2022-12-13T14:20:47.325Z</time>
      </trkpt>
      <trkpt lat="48.11899" lon="-2.85329">
        <ele>170.705581</ele>
        <time>2022-12-13T14:20:50.250Z</time>
      </trkpt>
      <trkpt lat="48.11898" lon="-2.85311">
        <ele>170.629593</ele>
        <time>2022-12-13T14:20:53.226Z</time>
      </trkpt>
      <trkpt lat="48.11897" lon="-2.85294">
        <ele>170.67404</ele>
        <time>2022-12-13T14:20:56.226Z</time>
      </trkpt>
      <trkpt lat="48.11896" lon="-2.85275">
        <ele>170.72022</ele>
        <time>2022-12-13T14:20:59.231Z</time>
      </trkpt>
      <trkpt lat="48.11895" lon="-2.85257">
        <ele>170.766367</ele>
        <time>2022-12-13T14:21:02.231Z</time>
      </trkpt>
      <trkpt lat="48.11894" lon="-2.85238">
        <ele>170.814794</ele>
        <time>2022-12-13T14:21:05.251Z</time>
      </trkpt>
      <trkpt lat="48.11893" lon="-2.85219">
        <ele>170.864011</ele>
        <time>2022-12-13T14:21:08.251Z</time>
      </trkpt>
      <trkpt lat="48.11892" lon="-2.85199">
        <ele>170.914971</ele>
        <time>2022-12-13T14:21:11.253Z</time>
      </trkpt>
      <trkpt lat="48.1189" lon="-2.8518">
        <ele>170.963631</ele>
        <time>2022-12-13T14:21:14.257Z</time>
      </trkpt>
      <trkpt lat="48.11888" lon="-2.85163">
        <ele>171.006247</ele>
        <time>2022-12-13T14:21:17.239Z</time>
      </trkpt>
      <trkpt lat="48.11886" lon="-2.85146">
        <ele>171.050425</ele>
        <time>2022-12-13T14:21:20.233Z</time>
      </trkpt>
      <trkpt lat="48.11883" lon="-2.85129">
        <ele>171.0955</ele>
        <time>2022-12-13T14:21:23.251Z</time>
      </trkpt>
      <trkpt lat="48.11879" lon="-2.85113">
        <ele>171.138303</ele>
        <time>2022-12-13T14:21:26.264Z</time>
      </trkpt>
      <trkpt lat="48.11874" lon="-2.85097">
        <ele>171.183519</ele>
        <time>2022-12-13T14:21:29.234Z</time>
      </trkpt>
      <trkpt lat="48.1187" lon="-2.85085">
        <ele>171.2179</ele>
        <time>2022-12-13T14:21:31.255Z</time>
      </trkpt>
      <trkpt lat="48.11863" lon="-2.85069">
        <ele>171.266322</ele>
        <time>2022-12-13T14:21:34.240Z</time>
      </trkpt>
      <trkpt lat="48.11854" lon="-2.85055">
        <ele>171.299797</ele>
        <time>2022-12-13T14:21:37.247Z</time>
      </trkpt>
      <trkpt lat="48.11846" lon="-2.85042">
        <ele>171.209686</ele>
        <time>2022-12-13T14:21:40.237Z</time>
      </trkpt>
      <trkpt lat="48.11839" lon="-2.85032">
        <ele>171.131789</ele>
        <time>2022-12-13T14:21:43.250Z</time>
      </trkpt>
      <trkpt lat="48.11831" lon="-2.85022">
        <ele>171.05176</ele>
        <time>2022-12-13T14:21:46.228Z</time>
      </trkpt>
      <trkpt lat="48.11821" lon="-2.85012">
        <ele>170.961211</ele>
        <time>2022-12-13T14:21:49.249Z</time>
      </trkpt>
      <trkpt lat="48.1181" lon="-2.85003">
        <ele>170.867929</ele>
        <time>2022-12-13T14:21:52.250Z</time>
      </trkpt>
      <trkpt lat="48.11799" lon="-2.84995">
        <ele>170.773207</ele>
        <time>2022-12-13T14:21:55.221Z</time>
      </trkpt>
      <trkpt lat="48.11788" lon="-2.8499">
        <ele>170.682732</ele>
        <time>2022-12-13T14:21:58.252Z</time>
      </trkpt>
      <trkpt lat="48.11776" lon="-2.84986">
        <ele>170.586805</ele>
        <time>2022-12-13T14:22:01.227Z</time>
      </trkpt>
      <trkpt lat="48.11763" lon="-2.84983">
        <ele>170.486572</ele>
        <time>2022-12-13T14:22:04.298Z</time>
      </trkpt>
      <trkpt lat="48.1175" lon="-2.84982">
        <ele>170.387036</ele>
        <time>2022-12-13T14:22:07.250Z</time>
      </trkpt>
      <trkpt lat="48.11737" lon="-2.84979">
        <ele>170.282235</ele>
        <time>2022-12-13T14:22:10.244Z</time>
      </trkpt>
      <trkpt lat="48.11724" lon="-2.84976">
        <ele>170.181241</ele>
        <time>2022-12-13T14:22:13.248Z</time>
      </trkpt>
      <trkpt lat="48.1171" lon="-2.84974">
        <ele>170.074577</ele>
        <time>2022-12-13T14:22:16.252Z</time>
      </trkpt>
      <trkpt lat="48.11697" lon="-2.84972">
        <ele>169.978061</ele>
        <time>2022-12-13T14:22:19.252Z</time>
      </trkpt>
      <trkpt lat="48.11685" lon="-2.8497">
        <ele>169.882434</ele>
        <time>2022-12-13T14:22:22.248Z</time>
      </trkpt>
      <trkpt lat="48.11673" lon="-2.84968">
        <ele>169.798833</ele>
        <time>2022-12-13T14:22:25.252Z</time>
      </trkpt>
      <trkpt lat="48.11662" lon="-2.84967">
        <ele>169.712485</ele>
        <time>2022-12-13T14:22:28.245Z</time>
      </trkpt>
      <trkpt lat="48.1165" lon="-2.84965">
        <ele>169.623202</ele>
        <time>2022-12-13T14:22:31.249Z</time>
      </trkpt>
      <trkpt lat="48.11638" lon="-2.84963">
        <ele>169.537355</ele>
        <time>2022-12-13T14:22:34.249Z</time>
      </trkpt>
      <trkpt lat="48.11626" lon="-2.8496">
        <ele>169.444433</ele>
        <time>2022-12-13T14:22:37.320Z</time>
      </trkpt>
      <trkpt lat="48.11615" lon="-2.84956">
        <ele>169.362622</ele>
        <time>2022-12-13T14:22:40.233Z</time>
      </trkpt>
      <trkpt lat="48.11603" lon="-2.84955">
        <ele>169.276966</ele>
        <time>2022-12-13T14:22:43.219Z</time>
      </trkpt>
      <trkpt lat="48.11592" lon="-2.84953">
        <ele>169.195707</ele>
        <time>2022-12-13T14:22:46.250Z</time>
      </trkpt>
      <trkpt lat="48.1158" lon="-2.84952">
        <ele>169.104145</ele>
        <time>2022-12-13T14:22:49.251Z</time>
      </trkpt>
      <trkpt lat="48.11567" lon="-2.8495">
        <ele>169.010199</ele>
        <time>2022-12-13T14:22:52.251Z</time>
      </trkpt>
      <trkpt lat="48.11554" lon="-2.84948">
        <ele>168.916087</ele>
        <time>2022-12-13T14:22:55.235Z</time>
      </trkpt>
      <trkpt lat="48.11544" lon="-2.84946">
        <ele>168.839906</ele>
        <time>2022-12-13T14:22:58.251Z</time>
      </trkpt>
      <trkpt lat="48.11534" lon="-2.84944">
        <ele>168.764749</ele>
        <time>2022-12-13T14:23:01.258Z</time>
      </trkpt>
      <trkpt lat="48.11523" lon="-2.84941">
        <ele>168.683039</ele>
        <time>2022-12-13T14:23:04.301Z</time>
      </trkpt>
      <trkpt lat="48.11511" lon="-2.84939">
        <ele>168.567682</ele>
        <time>2022-12-13T14:23:07.251Z</time>
      </trkpt>
      <trkpt lat="48.11498" lon="-2.84935">
        <ele>168.256814</ele>
        <time>2022-12-13T14:23:10.246Z</time>
      </trkpt>
      <trkpt lat="48.11486" lon="-2.84929">
        <ele>167.956125</ele>
        <time>2022-12-13T14:23:13.251Z</time>
      </trkpt>
      <trkpt lat="48.11475" lon="-2.84922">
        <ele>167.680077</ele>
        <time>2022-12-13T14:23:16.233Z</time>
      </trkpt>
      <trkpt lat="48.11464" lon="-2.84915">
        <ele>167.386616</ele>
        <time>2022-12-13T14:23:19.252Z</time>
      </trkpt>
      <trkpt lat="48.11452" lon="-2.84906">
        <ele>167.073582</ele>
        <time>2022-12-13T14:23:22.251Z</time>
      </trkpt>
      <trkpt lat="48.11441" lon="-2.84897">
        <ele>166.755456</ele>
        <time>2022-12-13T14:23:25.251Z</time>
      </trkpt>
      <trkpt lat="48.1143" lon="-2.84885">
        <ele>166.44325</ele>
        <time>2022-12-13T14:23:28.253Z</time>
      </trkpt>
      <trkpt lat="48.1142" lon="-2.84872">
        <ele>166.131407</ele>
        <time>2022-12-13T14:23:31.308Z</time>
      </trkpt>
      <trkpt lat="48.11411" lon="-2.84858">
        <ele>165.826428</ele>
        <time>2022-12-13T14:23:34.250Z</time>
      </trkpt>
      <trkpt lat="48.11404" lon="-2.84845">
        <ele>165.555541</ele>
        <time>2022-12-13T14:23:37.232Z</time>
      </trkpt>
      <trkpt lat="48.11397" lon="-2.84833">
        <ele>165.306851</ele>
        <time>2022-12-13T14:23:40.254Z</time>
      </trkpt>
      <trkpt lat="48.1139" lon="-2.84821">
        <ele>165.047204</ele>
        <time>2022-12-13T14:23:43.248Z</time>
      </trkpt>
      <trkpt lat="48.11384" lon="-2.84807">
        <ele>164.777083</ele>
        <time>2022-12-13T14:23:46.246Z</time>
      </trkpt>
      <trkpt lat="48.11377" lon="-2.84793">
        <ele>164.510934</ele>
        <time>2022-12-13T14:23:49.250Z</time>
      </trkpt>
      <trkpt lat="48.11373" lon="-2.8478">
        <ele>164.341154</ele>
        <time>2022-12-13T14:23:53.292Z</time>
      </trkpt>
      <trkpt lat="48.11368" lon="-2.84763">
        <ele>164.506872</ele>
        <time>2022-12-13T14:23:56.249Z</time>
      </trkpt>
      <trkpt lat="48.11366" lon="-2.84748">
        <ele>164.641806</ele>
        <time>2022-12-13T14:23:59.228Z</time>
      </trkpt>
      <trkpt lat="48.11363" lon="-2.84733">
        <ele>164.779802</ele>
        <time>2022-12-13T14:24:02.249Z</time>
      </trkpt>
      <trkpt lat="48.11361" lon="-2.84718">
        <ele>164.924973</ele>
        <time>2022-12-13T14:24:05.253Z</time>
      </trkpt>
      <trkpt lat="48.11359" lon="-2.84703">
        <ele>165.057545</ele>
        <time>2022-12-13T14:24:08.251Z</time>
      </trkpt>
      <trkpt lat="48.11359" lon="-2.84688">
        <ele>165.191588</ele>
        <time>2022-12-13T14:24:11.252Z</time>
      </trkpt>
      <trkpt lat="48.11357" lon="-2.84672">
        <ele>165.343529</ele>
        <time>2022-12-13T14:24:14.248Z</time>
      </trkpt>
      <trkpt lat="48.11355" lon="-2.84653">
        <ele>165.509428</ele>
        <time>2022-12-13T14:24:17.246Z</time>
      </trkpt>
      <trkpt lat="48.11353" lon="-2.84636">
        <ele>165.670798</ele>
        <time>2022-12-13T14:24:20.329Z</time>
      </trkpt>
      <trkpt lat="48.11352" lon="-2.84617">
        <ele>165.835164</ele>
        <time>2022-12-13T14:24:23.251Z</time>
      </trkpt>
      <trkpt lat="48.11351" lon="-2.84602">
        <ele>165.976895</ele>
        <time>2022-12-13T14:24:26.229Z</time>
      </trkpt>
      <trkpt lat="48.1135" lon="-2.84583">
        <ele>166.146464</ele>
        <time>2022-12-13T14:24:29.245Z</time>
      </trkpt>
      <trkpt lat="48.11348" lon="-2.84564">
        <ele>166.315507</ele>
        <time>2022-12-13T14:24:32.249Z</time>
      </trkpt>
      <trkpt lat="48.11346" lon="-2.84547">
        <ele>166.478839</ele>
        <time>2022-12-13T14:24:35.250Z</time>
      </trkpt>
      <trkpt lat="48.11343" lon="-2.84529">
        <ele>166.641846</ele>
        <time>2022-12-13T14:24:38.231Z</time>
      </trkpt>
      <trkpt lat="48.11341" lon="-2.84513">
        <ele>166.862483</ele>
        <time>2022-12-13T14:24:41.250Z</time>
      </trkpt>
      <trkpt lat="48.1134" lon="-2.84496">
        <ele>167.230985</ele>
        <time>2022-12-13T14:24:44.246Z</time>
      </trkpt>
      <trkpt lat="48.11338" lon="-2.84478">
        <ele>167.629461</ele>
        <time>2022-12-13T14:24:44.857Z</time>
      </trkpt>
      <trkpt lat="48.11338" lon="-2.84459">
        <ele>168.038529</ele>
        <time>2022-12-13T14:24:47.846Z</time>
      </trkpt>
      <trkpt lat="48.11339" lon="-2.84441">
        <ele>168.437406</ele>
        <time>2022-12-13T14:24:51.018Z</time>
      </trkpt>
      <trkpt lat="48.1134" lon="-2.84428">
        <ele>168.735242</ele>
        <time>2022-12-13T14:24:52.854Z</time>
      </trkpt>
      <trkpt lat="48.11342" lon="-2.84409">
        <ele>169.145087</ele>
        <time>2022-12-13T14:24:55.845Z</time>
      </trkpt>
      <trkpt lat="48.11345" lon="-2.84393">
        <ele>169.50681</ele>
        <time>2022-12-13T14:24:58.854Z</time>
      </trkpt>
      <trkpt lat="48.11348" lon="-2.84377">
        <ele>169.878121</ele>
        <time>2022-12-13T14:25:02.027Z</time>
      </trkpt>
      <trkpt lat="48.11352" lon="-2.8436">
        <ele>170.267167</ele>
        <time>2022-12-13T14:25:04.847Z</time>
      </trkpt>
      <trkpt lat="48.11356" lon="-2.84345">
        <ele>170.618925</ele>
        <time>2022-12-13T14:25:07.850Z</time>
      </trkpt>
      <trkpt lat="48.1136" lon="-2.84332">
        <ele>170.924495</ele>
        <time>2022-12-13T14:25:10.842Z</time>
      </trkpt>
      <trkpt lat="48.11365" lon="-2.84319">
        <ele>171.268869</ele>
        <time>2022-12-13T14:25:13.851Z</time>
      </trkpt>
      <trkpt lat="48.1137" lon="-2.84305">
        <ele>171.614589</ele>
        <time>2022-12-13T14:25:16.866Z</time>
      </trkpt>
      <trkpt lat="48.11377" lon="-2.8429">
        <ele>172.011143</ele>
        <time>2022-12-13T14:25:19.842Z</time>
      </trkpt>
      <trkpt lat="48.11384" lon="-2.84275">
        <ele>172.413156</ele>
        <time>2022-12-13T14:25:22.870Z</time>
      </trkpt>
      <trkpt lat="48.11391" lon="-2.84262">
        <ele>172.664946</ele>
        <time>2022-12-13T14:25:25.878Z</time>
      </trkpt>
      <trkpt lat="48.114" lon="-2.84248">
        <ele>172.757561</ele>
        <time>2022-12-13T14:25:28.848Z</time>
      </trkpt>
      <trkpt lat="48.11407" lon="-2.84234">
        <ele>172.843727</ele>
        <time>2022-12-13T14:25:31.869Z</time>
      </trkpt>
      <trkpt lat="48.11414" lon="-2.8422">
        <ele>172.92858</ele>
        <time>2022-12-13T14:25:34.868Z</time>
      </trkpt>
      <trkpt lat="48.1142" lon="-2.84204">
        <ele>173.018735</ele>
        <time>2022-12-13T14:25:37.869Z</time>
      </trkpt>
      <trkpt lat="48.11427" lon="-2.84188">
        <ele>173.109694</ele>
        <time>2022-12-13T14:25:40.866Z</time>
      </trkpt>
      <trkpt lat="48.11434" lon="-2.84172">
        <ele>173.204698</ele>
        <time>2022-12-13T14:25:43.868Z</time>
      </trkpt>
      <trkpt lat="48.11441" lon="-2.84156">
        <ele>173.296463</ele>
        <time>2022-12-13T14:25:46.842Z</time>
      </trkpt>
      <trkpt lat="48.11447" lon="-2.84142">
        <ele>173.381404</ele>
        <time>2022-12-13T14:25:49.860Z</time>
      </trkpt>
      <trkpt lat="48.11451" lon="-2.84129">
        <ele>173.450267</ele>
        <time>2022-12-13T14:25:51.868Z</time>
      </trkpt>
      <trkpt lat="48.11457" lon="-2.84114">
        <ele>173.534757</ele>
        <time>2022-12-13T14:25:54.867Z</time>
      </trkpt>
      <trkpt lat="48.11463" lon="-2.84101">
        <ele>173.610279</ele>
        <time>2022-12-13T14:25:57.864Z</time>
      </trkpt>
      <trkpt lat="48.11468" lon="-2.84086">
        <ele>173.692183</ele>
        <time>2022-12-13T14:26:00.867Z</time>
      </trkpt>
      <trkpt lat="48.11475" lon="-2.84071">
        <ele>173.780688</ele>
        <time>2022-12-13T14:26:03.870Z</time>
      </trkpt>
      <trkpt lat="48.11481" lon="-2.84056">
        <ele>173.870484</ele>
        <time>2022-12-13T14:26:06.870Z</time>
      </trkpt>
      <trkpt lat="48.11488" lon="-2.84039">
        <ele>173.948672</ele>
        <time>2022-12-13T14:26:09.931Z</time>
      </trkpt>
      <trkpt lat="48.11494" lon="-2.84025">
        <ele>173.964411</ele>
        <time>2022-12-13T14:26:12.846Z</time>
      </trkpt>
      <trkpt lat="48.115" lon="-2.84011">
        <ele>173.979738</ele>
        <time>2022-12-13T14:26:15.873Z</time>
      </trkpt>
      <trkpt lat="48.11506" lon="-2.83997">
        <ele>173.995689</ele>
        <time>2022-12-13T14:26:18.873Z</time>
      </trkpt>
      <trkpt lat="48.11513" lon="-2.83982">
        <ele>174.013439</ele>
        <time>2022-12-13T14:26:21.869Z</time>
      </trkpt>
      <trkpt lat="48.1152" lon="-2.83966">
        <ele>174.031345</ele>
        <time>2022-12-13T14:26:24.865Z</time>
      </trkpt>
      <trkpt lat="48.11527" lon="-2.83949">
        <ele>174.049857</ele>
        <time>2022-12-13T14:26:27.853Z</time>
      </trkpt>
      <trkpt lat="48.11533" lon="-2.83933">
        <ele>174.066621</ele>
        <time>2022-12-13T14:26:30.874Z</time>
      </trkpt>
      <trkpt lat="48.1154" lon="-2.83917">
        <ele>174.084606</ele>
        <time>2022-12-13T14:26:33.867Z</time>
      </trkpt>
      <trkpt lat="48.11547" lon="-2.83901">
        <ele>174.102825</ele>
        <time>2022-12-13T14:26:36.849Z</time>
      </trkpt>
      <trkpt lat="48.11554" lon="-2.83885">
        <ele>174.121046</ele>
        <time>2022-12-13T14:26:39.873Z</time>
      </trkpt>
      <trkpt lat="48.11562" lon="-2.83869">
        <ele>174.139354</ele>
        <time>2022-12-13T14:26:42.860Z</time>
      </trkpt>
      <trkpt lat="48.11567" lon="-2.83858">
        <ele>174.15218</ele>
        <time>2022-12-13T14:26:44.868Z</time>
      </trkpt>
      <trkpt lat="48.11573" lon="-2.83841">
        <ele>174.169748</ele>
        <time>2022-12-13T14:26:47.851Z</time>
      </trkpt>
      <trkpt lat="48.11579" lon="-2.83825">
        <ele>174.187912</ele>
        <time>2022-12-13T14:26:50.863Z</time>
      </trkpt>
      <trkpt lat="48.11586" lon="-2.83811">
        <ele>174.168627</ele>
        <time>2022-12-13T14:26:53.853Z</time>
      </trkpt>
      <trkpt lat="48.11593" lon="-2.83798">
        <ele>174.086189</ele>
        <time>2022-12-13T14:26:56.866Z</time>
      </trkpt>
      <trkpt lat="48.116" lon="-2.83783">
        <ele>174.001263</ele>
        <time>2022-12-13T14:26:59.863Z</time>
      </trkpt>
      <trkpt lat="48.11608" lon="-2.83768">
        <ele>173.911775</ele>
        <time>2022-12-13T14:27:02.867Z</time>
      </trkpt>
      <trkpt lat="48.11615" lon="-2.83753">
        <ele>173.821669</ele>
        <time>2022-12-13T14:27:05.868Z</time>
      </trkpt>
      <trkpt lat="48.11622" lon="-2.83736">
        <ele>173.727164</ele>
        <time>2022-12-13T14:27:08.870Z</time>
      </trkpt>
      <trkpt lat="48.11628" lon="-2.83722">
        <ele>173.643855</ele>
        <time>2022-12-13T14:27:11.866Z</time>
      </trkpt>
      <trkpt lat="48.11635" lon="-2.83707">
        <ele>173.556143</ele>
        <time>2022-12-13T14:27:14.915Z</time>
      </trkpt>
      <trkpt lat="48.11642" lon="-2.83693">
        <ele>173.472263</ele>
        <time>2022-12-13T14:27:17.866Z</time>
      </trkpt>
      <trkpt lat="48.11647" lon="-2.83678">
        <ele>173.391695</ele>
        <time>2022-12-13T14:27:20.871Z</time>
      </trkpt>
      <trkpt lat="48.1165" lon="-2.83661">
        <ele>173.310267</ele>
        <time>2022-12-13T14:27:23.867Z</time>
      </trkpt>
      <trkpt lat="48.11658" lon="-2.83646">
        <ele>173.214732</ele>
        <time>2022-12-13T14:27:26.867Z</time>
      </trkpt>
      <trkpt lat="48.11663" lon="-2.83628">
        <ele>173.126194</ele>
        <time>2022-12-13T14:27:29.866Z</time>
      </trkpt>
      <trkpt lat="48.11667" lon="-2.8361">
        <ele>173.035716</ele>
        <time>2022-12-13T14:27:32.859Z</time>
      </trkpt>
      <trkpt lat="48.11671" lon="-2.83593">
        <ele>172.944943</ele>
        <time>2022-12-13T14:27:35.848Z</time>
      </trkpt>
      <trkpt lat="48.11677" lon="-2.83575">
        <ele>172.719014</ele>
        <time>2022-12-13T14:27:38.866Z</time>
      </trkpt>
      <trkpt lat="48.11678" lon="-2.83558">
        <ele>172.416057</ele>
        <time>2022-12-13T14:27:41.944Z</time>
      </trkpt>
      <trkpt lat="48.11678" lon="-2.83542">
        <ele>172.155568</ele>
        <time>2022-12-13T14:27:44.853Z</time>
      </trkpt>
      <trkpt lat="48.11676" lon="-2.83527">
        <ele>171.894225</ele>
        <time>2022-12-13T14:27:47.869Z</time>
      </trkpt>
      <trkpt lat="48.11672" lon="-2.83511">
        <ele>171.607499</ele>
        <time>2022-12-13T14:27:50.873Z</time>
      </trkpt>
      <trkpt lat="48.11668" lon="-2.83497">
        <ele>171.35739</ele>
        <time>2022-12-13T14:27:53.869Z</time>
      </trkpt>
      <trkpt lat="48.11664" lon="-2.83482">
        <ele>171.08458</ele>
        <time>2022-12-13T14:27:57.917Z</time>
      </trkpt>
      <trkpt lat="48.1166" lon="-2.8347">
        <ele>170.855209</ele>
        <time>2022-12-13T14:28:00.863Z</time>
      </trkpt>
      <trkpt lat="48.11655" lon="-2.83457">
        <ele>170.606536</ele>
        <time>2022-12-13T14:28:03.866Z</time>
      </trkpt>
      <trkpt lat="48.11649" lon="-2.83446">
        <ele>170.364305</ele>
        <time>2022-12-13T14:28:06.870Z</time>
      </trkpt>
      <trkpt lat="48.11642" lon="-2.83434">
        <ele>170.101719</ele>
        <time>2022-12-13T14:28:10.867Z</time>
      </trkpt>
      <trkpt lat="48.11636" lon="-2.83421">
        <ele>169.830592</ele>
        <time>2022-12-13T14:28:13.852Z</time>
      </trkpt>
      <trkpt lat="48.11631" lon="-2.83408">
        <ele>169.587655</ele>
        <time>2022-12-13T14:28:16.869Z</time>
      </trkpt>
      <trkpt lat="48.11624" lon="-2.83394">
        <ele>169.285679</ele>
        <time>2022-12-13T14:28:20.874Z</time>
      </trkpt>
      <trkpt lat="48.11619" lon="-2.8338">
        <ele>169.01877</ele>
        <time>2022-12-13T14:28:23.863Z</time>
      </trkpt>
      <trkpt lat="48.11613" lon="-2.83365">
        <ele>168.720784</ele>
        <time>2022-12-13T14:28:26.869Z</time>
      </trkpt>
      <trkpt lat="48.11606" lon="-2.8335">
        <ele>168.413514</ele>
        <time>2022-12-13T14:28:29.873Z</time>
      </trkpt>
      <trkpt lat="48.116" lon="-2.83337">
        <ele>168.31267</ele>
        <time>2022-12-13T14:28:31.847Z</time>
      </trkpt>
      <trkpt lat="48.11594" lon="-2.83325">
        <ele>168.229597</ele>
        <time>2022-12-13T14:28:33.868Z</time>
      </trkpt>
      <trkpt lat="48.11587" lon="-2.83314">
        <ele>168.146795</ele>
        <time>2022-12-13T14:28:35.876Z</time>
      </trkpt>
      <trkpt lat="48.11581" lon="-2.83301">
        <ele>168.062157</ele>
        <time>2022-12-13T14:28:37.868Z</time>
      </trkpt>
      <trkpt lat="48.11575" lon="-2.8329">
        <ele>167.985494</ele>
        <time>2022-12-13T14:28:39.852Z</time>
      </trkpt>
      <trkpt lat="48.11568" lon="-2.83281">
        <ele>167.910786</ele>
        <time>2022-12-13T14:28:41.901Z</time>
      </trkpt>
      <trkpt lat="48.11559" lon="-2.8327">
        <ele>167.816436</ele>
        <time>2022-12-13T14:28:44.851Z</time>
      </trkpt>
      <trkpt lat="48.1155" lon="-2.8326">
        <ele>167.723619</ele>
        <time>2022-12-13T14:28:47.869Z</time>
      </trkpt>
      <trkpt lat="48.1154" lon="-2.8325">
        <ele>167.631846</ele>
        <time>2022-12-13T14:28:50.869Z</time>
      </trkpt>
      <trkpt lat="48.1153" lon="-2.83238">
        <ele>167.529399</ele>
        <time>2022-12-13T14:28:53.843Z</time>
      </trkpt>
      <trkpt lat="48.11521" lon="-2.83224">
        <ele>167.42176</ele>
        <time>2022-12-13T14:28:56.872Z</time>
      </trkpt>
      <trkpt lat="48.11513" lon="-2.83215">
        <ele>167.344801</ele>
        <time>2022-12-13T14:28:58.863Z</time>
      </trkpt>
      <trkpt lat="48.11506" lon="-2.83205">
        <ele>167.266256</ele>
        <time>2022-12-13T14:29:00.842Z</time>
      </trkpt>
      <trkpt lat="48.11498" lon="-2.83196">
        <ele>167.181561</ele>
        <time>2022-12-13T14:29:02.869Z</time>
      </trkpt>
      <trkpt lat="48.1149" lon="-2.83187">
        <ele>167.098179</ele>
        <time>2022-12-13T14:29:04.868Z</time>
      </trkpt>
      <trkpt lat="48.1148" lon="-2.83174">
        <ele>166.996065</ele>
        <time>2022-12-13T14:29:07.869Z</time>
      </trkpt>
      <trkpt lat="48.11471" lon="-2.83164">
        <ele>166.868566</ele>
        <time>2022-12-13T14:29:10.867Z</time>
      </trkpt>
      <trkpt lat="48.11464" lon="-2.83155">
        <ele>166.682943</ele>
        <time>2022-12-13T14:29:13.869Z</time>
      </trkpt>
      <trkpt lat="48.11456" lon="-2.83147">
        <ele>166.492816</ele>
        <time>2022-12-13T14:29:26.851Z</time>
      </trkpt>
      <trkpt lat="48.11449" lon="-2.83136">
        <ele>166.290884</ele>
        <time>2022-12-13T14:29:36.871Z</time>
      </trkpt>
      <trkpt lat="48.11443" lon="-2.83126">
        <ele>166.102244</ele>
        <time>2022-12-13T14:29:45.858Z</time>
      </trkpt>
      <trkpt lat="48.11436" lon="-2.83114">
        <ele>165.890798</ele>
        <time>2022-12-13T14:29:51.871Z</time>
      </trkpt>
      <trkpt lat="48.11427" lon="-2.83106">
        <ele>165.675964</ele>
        <time>2022-12-13T14:29:55.859Z</time>
      </trkpt>
      <trkpt lat="48.11418" lon="-2.83096">
        <ele>165.461188</ele>
        <time>2022-12-13T14:29:58.851Z</time>
      </trkpt>
      <trkpt lat="48.11408" lon="-2.83084">
        <ele>165.202729</ele>
        <time>2022-12-13T14:30:01.870Z</time>
      </trkpt>
      <trkpt lat="48.11401" lon="-2.83074">
        <ele>165.004247</ele>
        <time>2022-12-13T14:30:03.869Z</time>
      </trkpt>
      <trkpt lat="48.11393" lon="-2.83064">
        <ele>164.793142</ele>
        <time>2022-12-13T14:30:05.868Z</time>
      </trkpt>
      <trkpt lat="48.11385" lon="-2.83054">
        <ele>164.584756</ele>
        <time>2022-12-13T14:30:07.869Z</time>
      </trkpt>
      <trkpt lat="48.11377" lon="-2.83045">
        <ele>164.38202</ele>
        <time>2022-12-13T14:30:09.872Z</time>
      </trkpt>
      <trkpt lat="48.1137" lon="-2.83035">
        <ele>164.18233</ele>
        <time>2022-12-13T14:30:11.857Z</time>
      </trkpt>
      <trkpt lat="48.11361" lon="-2.83027">
        <ele>163.98271</ele>
        <time>2022-12-13T14:30:13.864Z</time>
      </trkpt>
      <trkpt lat="48.11351" lon="-2.83015">
        <ele>163.730966</ele>
        <time>2022-12-13T14:30:16.872Z</time>
      </trkpt>
      <trkpt lat="48.11342" lon="-2.83004">
        <ele>163.486365</ele>
        <time>2022-12-13T14:30:19.917Z</time>
      </trkpt>
      <trkpt lat="48.11333" lon="-2.82993">
        <ele>163.226235</ele>
        <time>2022-12-13T14:30:22.856Z</time>
      </trkpt>
      <trkpt lat="48.11324" lon="-2.82981">
        <ele>162.852742</ele>
        <time>2022-12-13T14:30:25.860Z</time>
      </trkpt>
      <trkpt lat="48.11314" lon="-2.82968">
        <ele>162.449768</ele>
        <time>2022-12-13T14:30:28.852Z</time>
      </trkpt>
      <trkpt lat="48.11307" lon="-2.82957">
        <ele>162.15599</ele>
        <time>2022-12-13T14:30:30.916Z</time>
      </trkpt>
      <trkpt lat="48.113" lon="-2.82946">
        <ele>161.84606</ele>
        <time>2022-12-13T14:30:32.870Z</time>
      </trkpt>
      <trkpt lat="48.11293" lon="-2.82934">
        <ele>161.536614</ele>
        <time>2022-12-13T14:30:34.871Z</time>
      </trkpt>
      <trkpt lat="48.11286" lon="-2.82918">
        <ele>161.132182</ele>
        <time>2022-12-13T14:30:37.869Z</time>
      </trkpt>
      <trkpt lat="48.11281" lon="-2.82906">
        <ele>160.857059</ele>
        <time>2022-12-13T14:30:39.869Z</time>
      </trkpt>
      <trkpt lat="48.11274" lon="-2.82893">
        <ele>160.531582</ele>
        <time>2022-12-13T14:30:42.854Z</time>
      </trkpt>
      <trkpt lat="48.1127" lon="-2.82879">
        <ele>160.222624</ele>
        <time>2022-12-13T14:30:45.865Z</time>
      </trkpt>
      <trkpt lat="48.11266" lon="-2.82866">
        <ele>159.93085</ele>
        <time>2022-12-13T14:30:48.869Z</time>
      </trkpt>
      <trkpt lat="48.11261" lon="-2.82852">
        <ele>159.601286</ele>
        <time>2022-12-13T14:30:51.869Z</time>
      </trkpt>
      <trkpt lat="48.11255" lon="-2.82837">
        <ele>159.258839</ele>
        <time>2022-12-13T14:30:54.870Z</time>
      </trkpt>
      <trkpt lat="48.11249" lon="-2.82821">
        <ele>158.885969</ele>
        <time>2022-12-13T14:30:57.871Z</time>
      </trkpt>
      <trkpt lat="48.11243" lon="-2.82805">
        <ele>158.522149</ele>
        <time>2022-12-13T14:31:00.921Z</time>
      </trkpt>
      <trkpt lat="48.1124" lon="-2.82793">
        <ele>158.243899</ele>
        <time>2022-12-13T14:31:02.875Z</time>
      </trkpt>
      <trkpt lat="48.11235" lon="-2.82778">
        <ele>157.921115</ele>
        <time>2022-12-13T14:31:04.864Z</time>
      </trkpt>
      <trkpt lat="48.11231" lon="-2.82764">
        <ele>157.893838</ele>
        <time>2022-12-13T14:31:06.870Z</time>
      </trkpt>
      <trkpt lat="48.11229" lon="-2.82749">
        <ele>157.906247</ele>
        <time>2022-12-13T14:31:08.872Z</time>
      </trkpt>
      <trkpt lat="48.11226" lon="-2.82734">
        <ele>157.918396</ele>
        <time>2022-12-13T14:31:10.867Z</time>
      </trkpt>
      <trkpt lat="48.11225" lon="-2.8272">
        <ele>157.929667</ele>
        <time>2022-12-13T14:31:12.869Z</time>
      </trkpt>
      <trkpt lat="48.11223" lon="-2.82705">
        <ele>157.941539</ele>
        <time>2022-12-13T14:31:14.867Z</time>
      </trkpt>
      <trkpt lat="48.11221" lon="-2.82691">
        <ele>157.953133</ele>
        <time>2022-12-13T14:31:16.868Z</time>
      </trkpt>
      <trkpt lat="48.11219" lon="-2.82673">
        <ele>157.967747</ele>
        <time>2022-12-13T14:31:19.850Z</time>
      </trkpt>
      <trkpt lat="48.11216" lon="-2.82655">
        <ele>157.982459</ele>
        <time>2022-12-13T14:31:22.868Z</time>
      </trkpt>
      <trkpt lat="48.11215" lon="-2.82638">
        <ele>157.995523</ele>
        <time>2022-12-13T14:31:25.857Z</time>
      </trkpt>
      <trkpt lat="48.11212" lon="-2.82619">
        <ele>158.010958</ele>
        <time>2022-12-13T14:31:28.845Z</time>
      </trkpt>
      <trkpt lat="48.1121" lon="-2.82605">
        <ele>158.022403</ele>
        <time>2022-12-13T14:31:30.868Z</time>
      </trkpt>
      <trkpt lat="48.11208" lon="-2.82591">
        <ele>158.034061</ele>
        <time>2022-12-13T14:31:32.874Z</time>
      </trkpt>
      <trkpt lat="48.11207" lon="-2.82576">
        <ele>158.046289</ele>
        <time>2022-12-13T14:31:34.868Z</time>
      </trkpt>
      <trkpt lat="48.11205" lon="-2.8256">
        <ele>158.058806</ele>
        <time>2022-12-13T14:31:36.869Z</time>
      </trkpt>
      <trkpt lat="48.11204" lon="-2.82546">
        <ele>158.070328</ele>
        <time>2022-12-13T14:31:38.910Z</time>
      </trkpt>
      <trkpt lat="48.11202" lon="-2.8253">
        <ele>158.082826</ele>
        <time>2022-12-13T14:31:40.849Z</time>
      </trkpt>
      <trkpt lat="48.112" lon="-2.82515">
        <ele>158.095128</ele>
        <time>2022-12-13T14:31:42.871Z</time>
      </trkpt>
      <trkpt lat="48.11198" lon="-2.82499">
        <ele>158.279075</ele>
        <time>2022-12-13T14:31:44.857Z</time>
      </trkpt>
      <trkpt lat="48.11195" lon="-2.82483">
        <ele>158.485421</ele>
        <time>2022-12-13T14:31:46.852Z</time>
      </trkpt>
      <trkpt lat="48.11194" lon="-2.82468">
        <ele>158.68463</ele>
        <time>2022-12-13T14:31:48.867Z</time>
      </trkpt>
      <trkpt lat="48.11192" lon="-2.82452">
        <ele>158.890661</ele>
        <time>2022-12-13T14:31:50.870Z</time>
      </trkpt>
      <trkpt lat="48.11191" lon="-2.82438">
        <ele>159.073896</ele>
        <time>2022-12-13T14:31:52.868Z</time>
      </trkpt>
      <trkpt lat="48.11189" lon="-2.82418">
        <ele>159.333429</ele>
        <time>2022-12-13T14:31:55.856Z</time>
      </trkpt>
      <trkpt lat="48.11187" lon="-2.82399">
        <ele>159.580277</ele>
        <time>2022-12-13T14:31:58.858Z</time>
      </trkpt>
      <trkpt lat="48.11185" lon="-2.82383">
        <ele>159.782546</ele>
        <time>2022-12-13T14:32:01.868Z</time>
      </trkpt>
      <trkpt lat="48.11183" lon="-2.82368">
        <ele>159.984655</ele>
        <time>2022-12-13T14:32:04.870Z</time>
      </trkpt>
      <trkpt lat="48.11182" lon="-2.82352">
        <ele>160.195819</ele>
        <time>2022-12-13T14:32:08.870Z</time>
      </trkpt>
      <trkpt lat="48.11179" lon="-2.82337">
        <ele>160.383803</ele>
        <time>2022-12-13T14:32:14.869Z</time>
      </trkpt>
      <trkpt lat="48.11178" lon="-2.82323">
        <ele>160.570841</ele>
        <time>2022-12-13T14:32:25.863Z</time>
      </trkpt>
      <trkpt lat="48.11176" lon="-2.82309">
        <ele>160.749698</ele>
        <time>2022-12-13T14:32:35.875Z</time>
      </trkpt>
      <trkpt lat="48.11175" lon="-2.82294">
        <ele>160.950017</ele>
        <time>2022-12-13T14:32:51.869Z</time>
      </trkpt>
      <trkpt lat="48.11173" lon="-2.82277">
        <ele>161.17189</ele>
        <time>2022-12-13T14:32:55.909Z</time>
      </trkpt>
      <trkpt lat="48.11169" lon="-2.82259">
        <ele>161.414753</ele>
        <time>2022-12-13T14:32:58.871Z</time>
      </trkpt>
      <trkpt lat="48.11165" lon="-2.82244">
        <ele>161.448921</ele>
        <time>2022-12-13T14:33:00.853Z</time>
      </trkpt>
      <trkpt lat="48.11161" lon="-2.8223">
        <ele>161.072754</ele>
        <time>2022-12-13T14:33:02.873Z</time>
      </trkpt>
      <trkpt lat="48.11157" lon="-2.82216">
        <ele>160.714908</ele>
        <time>2022-12-13T14:33:04.872Z</time>
      </trkpt>
      <trkpt lat="48.11152" lon="-2.82202">
        <ele>160.353704</ele>
        <time>2022-12-13T14:33:06.916Z</time>
      </trkpt>
      <trkpt lat="48.11147" lon="-2.8219">
        <ele>160.009204</ele>
        <time>2022-12-13T14:33:08.872Z</time>
      </trkpt>
      <trkpt lat="48.11141" lon="-2.82178">
        <ele>159.65306</ele>
        <time>2022-12-13T14:33:10.869Z</time>
      </trkpt>
      <trkpt lat="48.11134" lon="-2.82161">
        <ele>159.184991</ele>
        <time>2022-12-13T14:33:13.871Z</time>
      </trkpt>
      <trkpt lat="48.11129" lon="-2.8215">
        <ele>158.864495</ele>
        <time>2022-12-13T14:33:15.857Z</time>
      </trkpt>
      <trkpt lat="48.11122" lon="-2.82134">
        <ele>158.416195</ele>
        <time>2022-12-13T14:33:18.870Z</time>
      </trkpt>
      <trkpt lat="48.11116" lon="-2.82116">
        <ele>157.95005</ele>
        <time>2022-12-13T14:33:21.870Z</time>
      </trkpt>
      <trkpt lat="48.1111" lon="-2.82103">
        <ele>157.564665</ele>
        <time>2022-12-13T14:33:23.854Z</time>
      </trkpt>
      <trkpt lat="48.11105" lon="-2.82088">
        <ele>157.171256</ele>
        <time>2022-12-13T14:33:25.887Z</time>
      </trkpt>
      <trkpt lat="48.11098" lon="-2.82074">
        <ele>156.762205</ele>
        <time>2022-12-13T14:33:27.866Z</time>
      </trkpt>
      <trkpt lat="48.11093" lon="-2.82063">
        <ele>156.427878</ele>
        <time>2022-12-13T14:33:29.868Z</time>
      </trkpt>
      <trkpt lat="48.11087" lon="-2.82051">
        <ele>156.086869</ele>
        <time>2022-12-13T14:33:31.870Z</time>
      </trkpt>
      <trkpt lat="48.11082" lon="-2.8204">
        <ele>155.762343</ele>
        <time>2022-12-13T14:33:33.917Z</time>
      </trkpt>
      <trkpt lat="48.11075" lon="-2.82023">
        <ele>155.302153</ele>
        <time>2022-12-13T14:33:36.854Z</time>
      </trkpt>
      <trkpt lat="48.11068" lon="-2.82007">
        <ele>154.696225</ele>
        <time>2022-12-13T14:33:39.869Z</time>
      </trkpt>
      <trkpt lat="48.11061" lon="-2.81989">
        <ele>153.978263</ele>
        <time>2022-12-13T14:33:42.863Z</time>
      </trkpt>
      <trkpt lat="48.11055" lon="-2.81978">
        <ele>153.476109</ele>
        <time>2022-12-13T14:33:44.917Z</time>
      </trkpt>
      <trkpt lat="48.1105" lon="-2.81965">
        <ele>152.936419</ele>
        <time>2022-12-13T14:33:46.865Z</time>
      </trkpt>
      <trkpt lat="48.11044" lon="-2.81952">
        <ele>152.382295</ele>
        <time>2022-12-13T14:33:48.869Z</time>
      </trkpt>
      <trkpt lat="48.11038" lon="-2.81938">
        <ele>151.82168</ele>
        <time>2022-12-13T14:33:50.844Z</time>
      </trkpt>
      <trkpt lat="48.11032" lon="-2.81924">
        <ele>151.221122</ele>
        <time>2022-12-13T14:33:52.868Z</time>
      </trkpt>
      <trkpt lat="48.11025" lon="-2.81908">
        <ele>150.565474</ele>
        <time>2022-12-13T14:33:54.872Z</time>
      </trkpt>
      <trkpt lat="48.11018" lon="-2.81894">
        <ele>149.967461</ele>
        <time>2022-12-13T14:33:56.854Z</time>
      </trkpt>
      <trkpt lat="48.11012" lon="-2.81881">
        <ele>149.407339</ele>
        <time>2022-12-13T14:33:58.873Z</time>
      </trkpt>
      <trkpt lat="48.11007" lon="-2.81868">
        <ele>148.873358</ele>
        <time>2022-12-13T14:34:00.858Z</time>
      </trkpt>
      <trkpt lat="48.11001" lon="-2.81854">
        <ele>148.313022</ele>
        <time>2022-12-13T14:34:02.863Z</time>
      </trkpt>
      <trkpt lat="48.10994" lon="-2.81838">
        <ele>147.631101</ele>
        <time>2022-12-13T14:34:05.870Z</time>
      </trkpt>
      <trkpt lat="48.10989" lon="-2.81826">
        <ele>147.13791</ele>
        <time>2022-12-13T14:34:07.870Z</time>
      </trkpt>
      <trkpt lat="48.10983" lon="-2.81815">
        <ele>146.644632</ele>
        <time>2022-12-13T14:34:09.872Z</time>
      </trkpt>
      <trkpt lat="48.10976" lon="-2.81797">
        <ele>145.922059</ele>
        <time>2022-12-13T14:34:12.870Z</time>
      </trkpt>
      <trkpt lat="48.10971" lon="-2.81784">
        <ele>145.590484</ele>
        <time>2022-12-13T14:34:14.885Z</time>
      </trkpt>
      <trkpt lat="48.10966" lon="-2.81773">
        <ele>145.343759</ele>
        <time>2022-12-13T14:34:16.870Z</time>
      </trkpt>
      <trkpt lat="48.1096" lon="-2.8176">
        <ele>145.063033</ele>
        <time>2022-12-13T14:34:18.871Z</time>
      </trkpt>
      <trkpt lat="48.10953" lon="-2.81746">
        <ele>144.755446</ele>
        <time>2022-12-13T14:34:20.869Z</time>
      </trkpt>
      <trkpt lat="48.10947" lon="-2.81731">
        <ele>144.42835</ele>
        <time>2022-12-13T14:34:22.856Z</time>
      </trkpt>
      <trkpt lat="48.10941" lon="-2.81716">
        <ele>144.114668</ele>
        <time>2022-12-13T14:34:24.870Z</time>
      </trkpt>
      <trkpt lat="48.10934" lon="-2.817">
        <ele>143.77711</ele>
        <time>2022-12-13T14:34:26.870Z</time>
      </trkpt>
      <trkpt lat="48.10928" lon="-2.81686">
        <ele>143.48283</ele>
        <time>2022-12-13T14:34:28.853Z</time>
      </trkpt>
      <trkpt lat="48.10922" lon="-2.81672">
        <ele>143.190071</ele>
        <time>2022-12-13T14:34:30.869Z</time>
      </trkpt>
      <trkpt lat="48.10916" lon="-2.81659">
        <ele>142.907868</ele>
        <time>2022-12-13T14:34:32.868Z</time>
      </trkpt>
      <trkpt lat="48.10911" lon="-2.81647">
        <ele>142.647795</ele>
        <time>2022-12-13T14:34:34.851Z</time>
      </trkpt>
      <trkpt lat="48.10904" lon="-2.8163">
        <ele>142.284829</ele>
        <time>2022-12-13T14:34:37.840Z</time>
      </trkpt>
      <trkpt lat="48.10899" lon="-2.81617">
        <ele>142.019929</ele>
        <time>2022-12-13T14:34:39.871Z</time>
      </trkpt>
      <trkpt lat="48.10894" lon="-2.81606">
        <ele>141.773546</ele>
        <time>2022-12-13T14:34:41.872Z</time>
      </trkpt>
      <trkpt lat="48.10889" lon="-2.81594">
        <ele>141.512171</ele>
        <time>2022-12-13T14:34:43.871Z</time>
      </trkpt>
      <trkpt lat="48.10882" lon="-2.8158">
        <ele>141.214659</ele>
        <time>2022-12-13T14:34:45.852Z</time>
      </trkpt>
      <trkpt lat="48.10877" lon="-2.81567">
        <ele>140.942695</ele>
        <time>2022-12-13T14:34:47.865Z</time>
      </trkpt>
      <trkpt lat="48.1087" lon="-2.81553">
        <ele>140.738809</ele>
        <time>2022-12-13T14:34:49.929Z</time>
      </trkpt>
      <trkpt lat="48.10863" lon="-2.81539">
        <ele>140.522627</ele>
        <time>2022-12-13T14:34:51.864Z</time>
      </trkpt>
      <trkpt lat="48.10856" lon="-2.81524">
        <ele>140.299058</ele>
        <time>2022-12-13T14:34:53.868Z</time>
      </trkpt>
      <trkpt lat="48.10849" lon="-2.81509">
        <ele>140.076889</ele>
        <time>2022-12-13T14:34:55.880Z</time>
      </trkpt>
      <trkpt lat="48.10845" lon="-2.81494">
        <ele>139.873702</ele>
        <time>2022-12-13T14:34:57.868Z</time>
      </trkpt>
      <trkpt lat="48.10839" lon="-2.81482">
        <ele>139.695134</ele>
        <time>2022-12-13T14:34:59.866Z</time>
      </trkpt>
      <trkpt lat="48.10834" lon="-2.81471">
        <ele>139.530434</ele>
        <time>2022-12-13T14:35:01.854Z</time>
      </trkpt>
      <trkpt lat="48.10827" lon="-2.81456">
        <ele>139.304197</ele>
        <time>2022-12-13T14:35:04.847Z</time>
      </trkpt>
      <trkpt lat="48.1082" lon="-2.8144">
        <ele>139.081036</ele>
        <time>2022-12-13T14:35:07.870Z</time>
      </trkpt>
      <trkpt lat="48.10813" lon="-2.81425">
        <ele>138.843525</ele>
        <time>2022-12-13T14:35:10.873Z</time>
      </trkpt>
      <trkpt lat="48.10806" lon="-2.81409">
        <ele>138.613221</ele>
        <time>2022-12-13T14:35:13.870Z</time>
      </trkpt>
      <trkpt lat="48.10799" lon="-2.81392">
        <ele>138.368575</ele>
        <time>2022-12-13T14:35:16.868Z</time>
      </trkpt>
      <trkpt lat="48.10792" lon="-2.81374">
        <ele>138.118282</ele>
        <time>2022-12-13T14:35:19.874Z</time>
      </trkpt>
      <trkpt lat="48.10786" lon="-2.81363">
        <ele>137.948788</ele>
        <time>2022-12-13T14:35:21.868Z</time>
      </trkpt>
      <trkpt lat="48.10779" lon="-2.81349">
        <ele>137.73325</ele>
        <time>2022-12-13T14:35:24.868Z</time>
      </trkpt>
      <trkpt lat="48.10774" lon="-2.81335">
        <ele>137.694144</ele>
        <time>2022-12-13T14:35:27.877Z</time>
      </trkpt>
      <trkpt lat="48.1077" lon="-2.81323">
        <ele>137.729997</ele>
        <time>2022-12-13T14:35:30.875Z</time>
      </trkpt>
      <trkpt lat="48.10762" lon="-2.81309">
        <ele>137.777003</ele>
        <time>2022-12-13T14:35:34.869Z</time>
      </trkpt>
      <trkpt lat="48.10755" lon="-2.81299">
        <ele>137.816695</ele>
        <time>2022-12-13T14:35:37.877Z</time>
      </trkpt>
      <trkpt lat="48.10749" lon="-2.81284">
        <ele>137.862989</ele>
        <time>2022-12-13T14:35:40.871Z</time>
      </trkpt>
      <trkpt lat="48.10743" lon="-2.81272">
        <ele>137.900991</ele>
        <time>2022-12-13T14:35:42.867Z</time>
      </trkpt>
      <trkpt lat="48.10737" lon="-2.8126">
        <ele>137.939422</ele>
        <time>2022-12-13T14:35:44.883Z</time>
      </trkpt>
      <trkpt lat="48.10732" lon="-2.81248">
        <ele>137.976341</ele>
        <time>2022-12-13T14:35:46.855Z</time>
      </trkpt>
      <trkpt lat="48.10726" lon="-2.81236">
        <ele>138.016771</ele>
        <time>2022-12-13T14:35:48.844Z</time>
      </trkpt>
      <trkpt lat="48.10719" lon="-2.81223">
        <ele>138.059363</ele>
        <time>2022-12-13T14:35:50.850Z</time>
      </trkpt>
      <trkpt lat="48.10713" lon="-2.81211">
        <ele>138.098714</ele>
        <time>2022-12-13T14:35:52.863Z</time>
      </trkpt>
      <trkpt lat="48.10707" lon="-2.81201">
        <ele>138.134195</ele>
        <time>2022-12-13T14:35:54.870Z</time>
      </trkpt>
      <trkpt lat="48.107" lon="-2.81185">
        <ele>138.184427</ele>
        <time>2022-12-13T14:35:57.885Z</time>
      </trkpt>
      <trkpt lat="48.10693" lon="-2.81172">
        <ele>138.229824</ele>
        <time>2022-12-13T14:36:00.924Z</time>
      </trkpt>
      <trkpt lat="48.10685" lon="-2.81158">
        <ele>138.276838</ele>
        <time>2022-12-13T14:36:03.879Z</time>
      </trkpt>
      <trkpt lat="48.10678" lon="-2.81141">
        <ele>138.330983</ele>
        <time>2022-12-13T14:36:06.871Z</time>
      </trkpt>
      <trkpt lat="48.10672" lon="-2.81128">
        <ele>138.369625</ele>
        <time>2022-12-13T14:36:08.875Z</time>
      </trkpt>
      <trkpt lat="48.10666" lon="-2.81115">
        <ele>138.085271</ele>
        <time>2022-12-13T14:36:10.873Z</time>
      </trkpt>
      <trkpt lat="48.10658" lon="-2.811">
        <ele>137.703338</ele>
        <time>2022-12-13T14:36:12.862Z</time>
      </trkpt>
      <trkpt lat="48.10652" lon="-2.81086">
        <ele>137.359089</ele>
        <time>2022-12-13T14:36:14.847Z</time>
      </trkpt>
      <trkpt lat="48.10646" lon="-2.81072">
        <ele>137.024883</ele>
        <time>2022-12-13T14:36:16.860Z</time>
      </trkpt>
      <trkpt lat="48.10639" lon="-2.81058">
        <ele>136.672166</ele>
        <time>2022-12-13T14:36:18.852Z</time>
      </trkpt>
      <trkpt lat="48.10633" lon="-2.81045">
        <ele>136.365948</ele>
        <time>2022-12-13T14:36:20.870Z</time>
      </trkpt>
      <trkpt lat="48.10629" lon="-2.81032">
        <ele>136.078855</ele>
        <time>2022-12-13T14:36:22.870Z</time>
      </trkpt>
      <trkpt lat="48.10625" lon="-2.81019">
        <ele>135.807163</ele>
        <time>2022-12-13T14:36:24.879Z</time>
      </trkpt>
      <trkpt lat="48.10623" lon="-2.81005">
        <ele>135.508581</ele>
        <time>2022-12-13T14:36:26.852Z</time>
      </trkpt>
      <trkpt lat="48.10621" lon="-2.80992">
        <ele>135.234647</ele>
        <time>2022-12-13T14:36:28.919Z</time>
      </trkpt>
      <trkpt lat="48.10618" lon="-2.80979">
        <ele>134.960629</ele>
        <time>2022-12-13T14:36:30.869Z</time>
      </trkpt>
      <trkpt lat="48.10615" lon="-2.80966">
        <ele>134.688505</ele>
        <time>2022-12-13T14:36:32.872Z</time>
      </trkpt>
      <trkpt lat="48.10612" lon="-2.80952">
        <ele>134.404987</ele>
        <time>2022-12-13T14:36:34.886Z</time>
      </trkpt>
      <trkpt lat="48.10609" lon="-2.80938">
        <ele>134.10631</ele>
        <time>2022-12-13T14:36:36.879Z</time>
      </trkpt>
      <trkpt lat="48.10606" lon="-2.80922">
        <ele>133.771522</ele>
        <time>2022-12-13T14:36:38.869Z</time>
      </trkpt>
      <trkpt lat="48.10602" lon="-2.80906">
        <ele>133.426358</ele>
        <time>2022-12-13T14:36:40.864Z</time>
      </trkpt>
      <trkpt lat="48.10598" lon="-2.80888">
        <ele>133.061279</ele>
        <time>2022-12-13T14:36:42.867Z</time>
      </trkpt>
      <trkpt lat="48.10597" lon="-2.80872">
        <ele>132.985115</ele>
        <time>2022-12-13T14:36:44.871Z</time>
      </trkpt>
      <trkpt lat="48.10595" lon="-2.80856">
        <ele>132.98059</ele>
        <time>2022-12-13T14:36:46.885Z</time>
      </trkpt>
      <trkpt lat="48.10594" lon="-2.80841">
        <ele>132.976597</ele>
        <time>2022-12-13T14:36:48.872Z</time>
      </trkpt>
      <trkpt lat="48.10594" lon="-2.80826">
        <ele>132.972571</ele>
        <time>2022-12-13T14:36:50.915Z</time>
      </trkpt>
      <trkpt lat="48.10594" lon="-2.80812">
        <ele>132.968626</ele>
        <time>2022-12-13T14:36:52.872Z</time>
      </trkpt>
      <trkpt lat="48.10595" lon="-2.80793">
        <ele>132.963468</ele>
        <time>2022-12-13T14:36:55.859Z</time>
      </trkpt>
      <trkpt lat="48.10596" lon="-2.80776">
        <ele>132.958807</ele>
        <time>2022-12-13T14:36:58.858Z</time>
      </trkpt>
      <trkpt lat="48.10596" lon="-2.8076">
        <ele>132.95456</ele>
        <time>2022-12-13T14:37:01.922Z</time>
      </trkpt>
      <trkpt lat="48.10597" lon="-2.80744">
        <ele>132.950223</ele>
        <time>2022-12-13T14:37:04.871Z</time>
      </trkpt>
      <trkpt lat="48.10598" lon="-2.80727">
        <ele>132.945538</ele>
        <time>2022-12-13T14:37:07.872Z</time>
      </trkpt>
      <trkpt lat="48.10599" lon="-2.80708">
        <ele>132.940361</ele>
        <time>2022-12-13T14:37:10.869Z</time>
      </trkpt>
      <trkpt lat="48.10599" lon="-2.80694">
        <ele>132.936605</ele>
        <time>2022-12-13T14:37:12.913Z</time>
      </trkpt>
      <trkpt lat="48.106" lon="-2.80679">
        <ele>132.932406</ele>
        <time>2022-12-13T14:37:14.869Z</time>
      </trkpt>
      <trkpt lat="48.10601" lon="-2.80658">
        <ele>132.9268</ele>
        <time>2022-12-13T14:37:17.874Z</time>
      </trkpt>
      <trkpt lat="48.10601" lon="-2.80643">
        <ele>132.922714</ele>
        <time>2022-12-13T14:37:19.873Z</time>
      </trkpt>
      <trkpt lat="48.10601" lon="-2.80624">
        <ele>132.917319</ele>
        <time>2022-12-13T14:37:22.855Z</time>
      </trkpt>
      <trkpt lat="48.10602" lon="-2.80604">
        <ele>132.931309</ele>
        <time>2022-12-13T14:37:25.905Z</time>
      </trkpt>
      <trkpt lat="48.10603" lon="-2.80586">
        <ele>132.956331</ele>
        <time>2022-12-13T14:37:28.876Z</time>
      </trkpt>
      <trkpt lat="48.10603" lon="-2.80566">
        <ele>132.983059</ele>
        <time>2022-12-13T14:37:31.848Z</time>
      </trkpt>
      <trkpt lat="48.10603" lon="-2.80552">
        <ele>133.00183</ele>
        <time>2022-12-13T14:37:33.858Z</time>
      </trkpt>
      <trkpt lat="48.10603" lon="-2.80538">
        <ele>133.021141</ele>
        <time>2022-12-13T14:37:35.858Z</time>
      </trkpt>
      <trkpt lat="48.10604" lon="-2.80523">
        <ele>133.040716</ele>
        <time>2022-12-13T14:37:37.870Z</time>
      </trkpt>
      <trkpt lat="48.10605" lon="-2.8051">
        <ele>133.0595</ele>
        <time>2022-12-13T14:37:39.868Z</time>
      </trkpt>
      <trkpt lat="48.10604" lon="-2.80495">
        <ele>133.079896</ele>
        <time>2022-12-13T14:37:41.869Z</time>
      </trkpt>
      <trkpt lat="48.10605" lon="-2.80479">
        <ele>133.1013</ele>
        <time>2022-12-13T14:37:43.859Z</time>
      </trkpt>
      <trkpt lat="48.10607" lon="-2.80465">
        <ele>133.120604</ele>
        <time>2022-12-13T14:37:45.863Z</time>
      </trkpt>
      <trkpt lat="48.10608" lon="-2.80451">
        <ele>133.139339</ele>
        <time>2022-12-13T14:37:47.867Z</time>
      </trkpt>
      <trkpt lat="48.10607" lon="-2.80431">
        <ele>133.165887</ele>
        <time>2022-12-13T14:37:50.869Z</time>
      </trkpt>
      <trkpt lat="48.10608" lon="-2.80412">
        <ele>133.192391</ele>
        <time>2022-12-13T14:37:53.879Z</time>
      </trkpt>
      <trkpt lat="48.10608" lon="-2.80398">
        <ele>133.211222</ele>
        <time>2022-12-13T14:37:55.858Z</time>
      </trkpt>
      <trkpt lat="48.10608" lon="-2.80377">
        <ele>133.238756</ele>
        <time>2022-12-13T14:37:58.876Z</time>
      </trkpt>
      <trkpt lat="48.10609" lon="-2.80364">
        <ele>133.257089</ele>
        <time>2022-12-13T14:38:00.917Z</time>
      </trkpt>
      <trkpt lat="48.10612" lon="-2.80345">
        <ele>133.262555</ele>
        <time>2022-12-13T14:38:03.878Z</time>
      </trkpt>
      <trkpt lat="48.10612" lon="-2.80327">
        <ele>133.163553</ele>
        <time>2022-12-13T14:38:05.868Z</time>
      </trkpt>
      <trkpt lat="48.10611" lon="-2.8031">
        <ele>133.071568</ele>
        <time>2022-12-13T14:38:07.871Z</time>
      </trkpt>
      <trkpt lat="48.10611" lon="-2.80294">
        <ele>132.984476</ele>
        <time>2022-12-13T14:38:09.869Z</time>
      </trkpt>
      <trkpt lat="48.1061" lon="-2.80278">
        <ele>132.899148</ele>
        <time>2022-12-13T14:38:11.916Z</time>
      </trkpt>
      <trkpt lat="48.10608" lon="-2.8026">
        <ele>132.79703</ele>
        <time>2022-12-13T14:38:14.869Z</time>
      </trkpt>
      <trkpt lat="48.10606" lon="-2.80243">
        <ele>132.706754</ele>
        <time>2022-12-13T14:38:17.872Z</time>
      </trkpt>
      <trkpt lat="48.10605" lon="-2.80225">
        <ele>132.603765</ele>
        <time>2022-12-13T14:38:20.870Z</time>
      </trkpt>
      <trkpt lat="48.10603" lon="-2.80211">
        <ele>132.526055</ele>
        <time>2022-12-13T14:38:22.920Z</time>
      </trkpt>
      <trkpt lat="48.106" lon="-2.80192">
        <ele>132.420557</ele>
        <time>2022-12-13T14:38:25.857Z</time>
      </trkpt>
      <trkpt lat="48.10599" lon="-2.80178">
        <ele>132.346243</ele>
        <time>2022-12-13T14:38:27.868Z</time>
      </trkpt>
      <trkpt lat="48.10597" lon="-2.80165">
        <ele>132.271903</ele>
        <time>2022-12-13T14:38:29.874Z</time>
      </trkpt>
      <trkpt lat="48.10594" lon="-2.80151">
        <ele>132.193074</ele>
        <time>2022-12-13T14:38:31.870Z</time>
      </trkpt>
      <trkpt lat="48.10593" lon="-2.80137">
        <ele>132.117685</ele>
        <time>2022-12-13T14:38:33.929Z</time>
      </trkpt>
      <trkpt lat="48.10591" lon="-2.80122">
        <ele>132.03707</ele>
        <time>2022-12-13T14:38:35.859Z</time>
      </trkpt>
      <trkpt lat="48.1059" lon="-2.80108">
        <ele>131.955919</ele>
        <time>2022-12-13T14:38:37.869Z</time>
      </trkpt>
      <trkpt lat="48.10588" lon="-2.80094">
        <ele>131.880221</ele>
        <time>2022-12-13T14:38:39.879Z</time>
      </trkpt>
      <trkpt lat="48.10586" lon="-2.8008">
        <ele>131.789391</ele>
        <time>2022-12-13T14:38:41.868Z</time>
      </trkpt>
      <trkpt lat="48.10584" lon="-2.80066">
        <ele>131.649068</ele>
        <time>2022-12-13T14:38:43.873Z</time>
      </trkpt>
      <trkpt lat="48.10582" lon="-2.80049">
        <ele>131.477377</ele>
        <time>2022-12-13T14:38:46.870Z</time>
      </trkpt>
      <trkpt lat="48.10579" lon="-2.80031">
        <ele>131.292737</ele>
        <time>2022-12-13T14:38:49.871Z</time>
      </trkpt>
      <trkpt lat="48.10577" lon="-2.80017">
        <ele>131.148144</ele>
        <time>2022-12-13T14:38:51.873Z</time>
      </trkpt>
      <trkpt lat="48.10575" lon="-2.79997">
        <ele>130.949153</ele>
        <time>2022-12-13T14:38:54.869Z</time>
      </trkpt>
      <trkpt lat="48.10573" lon="-2.79977">
        <ele>130.744549</ele>
        <time>2022-12-13T14:38:57.873Z</time>
      </trkpt>
      <trkpt lat="48.10571" lon="-2.79962">
        <ele>130.593604</ele>
        <time>2022-12-13T14:38:59.865Z</time>
      </trkpt>
      <trkpt lat="48.10569" lon="-2.79947">
        <ele>130.44228</ele>
        <time>2022-12-13T14:39:01.850Z</time>
      </trkpt>
      <trkpt lat="48.10567" lon="-2.79931">
        <ele>130.286091</ele>
        <time>2022-12-13T14:39:03.872Z</time>
      </trkpt>
      <trkpt lat="48.10566" lon="-2.79916">
        <ele>130.135152</ele>
        <time>2022-12-13T14:39:05.862Z</time>
      </trkpt>
      <trkpt lat="48.10563" lon="-2.79903">
        <ele>129.994981</ele>
        <time>2022-12-13T14:39:07.848Z</time>
      </trkpt>
      <trkpt lat="48.1056" lon="-2.79884">
        <ele>129.809717</ele>
        <time>2022-12-13T14:39:10.869Z</time>
      </trkpt>
      <trkpt lat="48.10558" lon="-2.79864">
        <ele>129.60045</ele>
        <time>2022-12-13T14:39:13.871Z</time>
      </trkpt>
      <trkpt lat="48.10556" lon="-2.7985">
        <ele>129.460279</ele>
        <time>2022-12-13T14:39:15.871Z</time>
      </trkpt>
      <trkpt lat="48.10555" lon="-2.79835">
        <ele>129.312842</ele>
        <time>2022-12-13T14:39:17.947Z</time>
      </trkpt>
      <trkpt lat="48.10553" lon="-2.79821">
        <ele>129.166686</ele>
        <time>2022-12-13T14:39:19.858Z</time>
      </trkpt>
      <trkpt lat="48.10552" lon="-2.79806">
        <ele>129.136957</ele>
        <time>2022-12-13T14:39:21.874Z</time>
      </trkpt>
      <trkpt lat="48.1055" lon="-2.79792">
        <ele>129.136756</ele>
        <time>2022-12-13T14:39:23.911Z</time>
      </trkpt>
      <trkpt lat="48.10547" lon="-2.79777">
        <ele>129.136546</ele>
        <time>2022-12-13T14:39:25.864Z</time>
      </trkpt>
      <trkpt lat="48.10546" lon="-2.79762">
        <ele>129.13633</ele>
        <time>2022-12-13T14:39:27.878Z</time>
      </trkpt>
      <trkpt lat="48.10544" lon="-2.79747">
        <ele>129.136121</ele>
        <time>2022-12-13T14:39:29.870Z</time>
      </trkpt>
      <trkpt lat="48.10541" lon="-2.79733">
        <ele>129.13592</ele>
        <time>2022-12-13T14:39:31.880Z</time>
      </trkpt>
      <trkpt lat="48.10539" lon="-2.79719">
        <ele>129.135718</ele>
        <time>2022-12-13T14:39:33.872Z</time>
      </trkpt>
      <trkpt lat="48.10535" lon="-2.79699">
        <ele>129.135438</ele>
        <time>2022-12-13T14:39:36.874Z</time>
      </trkpt>
      <trkpt lat="48.10533" lon="-2.79685">
        <ele>129.135234</ele>
        <time>2022-12-13T14:39:38.878Z</time>
      </trkpt>
      <trkpt lat="48.1053" lon="-2.7967">
        <ele>129.135022</ele>
        <time>2022-12-13T14:39:40.865Z</time>
      </trkpt>
      <trkpt lat="48.10527" lon="-2.79656">
        <ele>129.134816</ele>
        <time>2022-12-13T14:39:42.856Z</time>
      </trkpt>
      <trkpt lat="48.10525" lon="-2.79642">
        <ele>129.134625</ele>
        <time>2022-12-13T14:39:44.878Z</time>
      </trkpt>
      <trkpt lat="48.10522" lon="-2.79625">
        <ele>129.134375</ele>
        <time>2022-12-13T14:39:47.856Z</time>
      </trkpt>
      <trkpt lat="48.10519" lon="-2.79609">
        <ele>129.13415</ele>
        <time>2022-12-13T14:39:50.871Z</time>
      </trkpt>
      <trkpt lat="48.10515" lon="-2.79592">
        <ele>129.133894</ele>
        <time>2022-12-13T14:39:53.874Z</time>
      </trkpt>
      <trkpt lat="48.10512" lon="-2.79573">
        <ele>129.133626</ele>
        <time>2022-12-13T14:39:56.886Z</time>
      </trkpt>
      <trkpt lat="48.10509" lon="-2.7956">
        <ele>129.133434</ele>
        <time>2022-12-13T14:39:58.860Z</time>
      </trkpt>
      <trkpt lat="48.10506" lon="-2.79547">
        <ele>128.971893</ele>
        <time>2022-12-13T14:40:00.847Z</time>
      </trkpt>
      <trkpt lat="48.10503" lon="-2.79531">
        <ele>128.739084</ele>
        <time>2022-12-13T14:40:02.873Z</time>
      </trkpt>
      <trkpt lat="48.10501" lon="-2.79517">
        <ele>128.517268</ele>
        <time>2022-12-13T14:40:04.866Z</time>
      </trkpt>
      <trkpt lat="48.10497" lon="-2.79501">
        <ele>128.282652</ele>
        <time>2022-12-13T14:40:06.873Z</time>
      </trkpt>
      <trkpt lat="48.10495" lon="-2.79487">
        <ele>128.068445</ele>
        <time>2022-12-13T14:40:08.868Z</time>
      </trkpt>
      <trkpt lat="48.10492" lon="-2.79468">
        <ele>127.776962</ele>
        <time>2022-12-13T14:40:11.884Z</time>
      </trkpt>
      <trkpt lat="48.10489" lon="-2.79454">
        <ele>127.567326</ele>
        <time>2022-12-13T14:40:13.870Z</time>
      </trkpt>
      <trkpt lat="48.10487" lon="-2.7944">
        <ele>127.35894</ele>
        <time>2022-12-13T14:40:15.871Z</time>
      </trkpt>
      <trkpt lat="48.10485" lon="-2.79425">
        <ele>127.13626</ele>
        <time>2022-12-13T14:40:17.872Z</time>
      </trkpt>
      <trkpt lat="48.10484" lon="-2.79409">
        <ele>126.910017</ele>
        <time>2022-12-13T14:40:19.876Z</time>
      </trkpt>
      <trkpt lat="48.10482" lon="-2.79395">
        <ele>126.700623</ele>
        <time>2022-12-13T14:40:21.871Z</time>
      </trkpt>
      <trkpt lat="48.10481" lon="-2.79381">
        <ele>126.48722</ele>
        <time>2022-12-13T14:40:23.873Z</time>
      </trkpt>
      <trkpt lat="48.10479" lon="-2.79367">
        <ele>126.277919</ele>
        <time>2022-12-13T14:40:25.872Z</time>
      </trkpt>
      <trkpt lat="48.10477" lon="-2.79353">
        <ele>126.067488</ele>
        <time>2022-12-13T14:40:27.852Z</time>
      </trkpt>
      <trkpt lat="48.10475" lon="-2.79338">
        <ele>125.852748</ele>
        <time>2022-12-13T14:40:29.918Z</time>
      </trkpt>
      <trkpt lat="48.10474" lon="-2.79318">
        <ele>125.552759</ele>
        <time>2022-12-13T14:40:32.870Z</time>
      </trkpt>
      <trkpt lat="48.10473" lon="-2.79303">
        <ele>125.332963</ele>
        <time>2022-12-13T14:40:34.868Z</time>
      </trkpt>
      <trkpt lat="48.10472" lon="-2.79287">
        <ele>125.207615</ele>
        <time>2022-12-13T14:40:36.865Z</time>
      </trkpt>
      <trkpt lat="48.1047" lon="-2.79273">
        <ele>125.214175</ele>
        <time>2022-12-13T14:40:38.869Z</time>
      </trkpt>
      <trkpt lat="48.10469" lon="-2.79258">
        <ele>125.221129</ele>
        <time>2022-12-13T14:40:40.855Z</time>
      </trkpt>
      <trkpt lat="48.10468" lon="-2.79244">
        <ele>125.227871</ele>
        <time>2022-12-13T14:40:42.867Z</time>
      </trkpt>
      <trkpt lat="48.10467" lon="-2.79229">
        <ele>125.234513</ele>
        <time>2022-12-13T14:40:44.869Z</time>
      </trkpt>
      <trkpt lat="48.10465" lon="-2.79216">
        <ele>125.240721</ele>
        <time>2022-12-13T14:40:46.851Z</time>
      </trkpt>
      <trkpt lat="48.10463" lon="-2.79203">
        <ele>125.247063</ele>
        <time>2022-12-13T14:40:48.868Z</time>
      </trkpt>
      <trkpt lat="48.10462" lon="-2.79188">
        <ele>125.253735</ele>
        <time>2022-12-13T14:40:50.852Z</time>
      </trkpt>
      <trkpt lat="48.10461" lon="-2.79174">
        <ele>125.260506</ele>
        <time>2022-12-13T14:40:52.874Z</time>
      </trkpt>
      <trkpt lat="48.1046" lon="-2.79159">
        <ele>125.267506</ele>
        <time>2022-12-13T14:40:54.848Z</time>
      </trkpt>
      <trkpt lat="48.10458" lon="-2.79145">
        <ele>125.273973</ele>
        <time>2022-12-13T14:40:56.915Z</time>
      </trkpt>
      <trkpt lat="48.10457" lon="-2.79131">
        <ele>125.280158</ele>
        <time>2022-12-13T14:40:58.867Z</time>
      </trkpt>
      <trkpt lat="48.10455" lon="-2.79114">
        <ele>125.288272</ele>
        <time>2022-12-13T14:41:01.872Z</time>
      </trkpt>
      <trkpt lat="48.10453" lon="-2.791">
        <ele>125.295</ele>
        <time>2022-12-13T14:41:04.860Z</time>
      </trkpt>
      <trkpt lat="48.10453" lon="-2.79086">
        <ele>125.301497</ele>
        <time>2022-12-13T14:41:11.874Z</time>
      </trkpt>
      <trkpt lat="48.1045" lon="-2.79072">
        <ele>125.307989</ele>
        <time>2022-12-13T14:41:17.872Z</time>
      </trkpt>
      <trkpt lat="48.10451" lon="-2.79056">
        <ele>125.315604</ele>
        <time>2022-12-13T14:41:22.870Z</time>
      </trkpt>
      <trkpt lat="48.10451" lon="-2.7904">
        <ele>125.322937</ele>
        <time>2022-12-13T14:41:28.863Z</time>
      </trkpt>
      <trkpt lat="48.10447" lon="-2.79026">
        <ele>125.27936</ele>
        <time>2022-12-13T14:41:37.875Z</time>
      </trkpt>
      <trkpt lat="48.10446" lon="-2.79012">
        <ele>125.041045</ele>
        <time>2022-12-13T14:41:41.864Z</time>
      </trkpt>
      <trkpt lat="48.10446" lon="-2.78997">
        <ele>124.782373</ele>
        <time>2022-12-13T14:41:44.876Z</time>
      </trkpt>
      <trkpt lat="48.10446" lon="-2.7898">
        <ele>124.494873</ele>
        <time>2022-12-13T14:41:47.853Z</time>
      </trkpt>
      <trkpt lat="48.10447" lon="-2.78959">
        <ele>124.147971</ele>
        <time>2022-12-13T14:41:50.862Z</time>
      </trkpt>
      <trkpt lat="48.10448" lon="-2.78945">
        <ele>123.902939</ele>
        <time>2022-12-13T14:41:52.867Z</time>
      </trkpt>
      <trkpt lat="48.10448" lon="-2.78931">
        <ele>123.667934</ele>
        <time>2022-12-13T14:41:54.861Z</time>
      </trkpt>
      <trkpt lat="48.10449" lon="-2.78911">
        <ele>123.32958</ele>
        <time>2022-12-13T14:41:57.870Z</time>
      </trkpt>
      <trkpt lat="48.10449" lon="-2.78892">
        <ele>123.01842</ele>
        <time>2022-12-13T14:42:00.860Z</time>
      </trkpt>
      <trkpt lat="48.10449" lon="-2.78873">
        <ele>122.693828</ele>
        <time>2022-12-13T14:42:03.858Z</time>
      </trkpt>
      <trkpt lat="48.10449" lon="-2.78853">
        <ele>122.353983</ele>
        <time>2022-12-13T14:42:06.852Z</time>
      </trkpt>
      <trkpt lat="48.10449" lon="-2.78839">
        <ele>122.120669</ele>
        <time>2022-12-13T14:42:08.867Z</time>
      </trkpt>
      <trkpt lat="48.1045" lon="-2.78825">
        <ele>121.873636</ele>
        <time>2022-12-13T14:42:10.870Z</time>
      </trkpt>
      <trkpt lat="48.10451" lon="-2.7881">
        <ele>121.623834</ele>
        <time>2022-12-13T14:42:12.871Z</time>
      </trkpt>
      <trkpt lat="48.10452" lon="-2.78795">
        <ele>121.371129</ele>
        <time>2022-12-13T14:42:14.872Z</time>
      </trkpt>
      <trkpt lat="48.10454" lon="-2.78777">
        <ele>121.053396</ele>
        <time>2022-12-13T14:42:17.869Z</time>
      </trkpt>
      <trkpt lat="48.10455" lon="-2.78759">
        <ele>120.771157</ele>
        <time>2022-12-13T14:42:20.872Z</time>
      </trkpt>
      <trkpt lat="48.10456" lon="-2.78741">
        <ele>120.711098</ele>
        <time>2022-12-13T14:42:23.865Z</time>
      </trkpt>
      <trkpt lat="48.10457" lon="-2.78727">
        <ele>120.664729</ele>
        <time>2022-12-13T14:42:25.873Z</time>
      </trkpt>
      <trkpt lat="48.10458" lon="-2.78709">
        <ele>120.604618</ele>
        <time>2022-12-13T14:42:28.871Z</time>
      </trkpt>
      <trkpt lat="48.10459" lon="-2.78691">
        <ele>120.547808</ele>
        <time>2022-12-13T14:42:31.873Z</time>
      </trkpt>
      <trkpt lat="48.1046" lon="-2.78672">
        <ele>120.485216</ele>
        <time>2022-12-13T14:42:34.858Z</time>
      </trkpt>
      <trkpt lat="48.10462" lon="-2.78658">
        <ele>120.436812</ele>
        <time>2022-12-13T14:42:36.851Z</time>
      </trkpt>
      <trkpt lat="48.10463" lon="-2.78643">
        <ele>120.387011</ele>
        <time>2022-12-13T14:42:38.870Z</time>
      </trkpt>
      <trkpt lat="48.10464" lon="-2.78629">
        <ele>120.339828</ele>
        <time>2022-12-13T14:42:40.864Z</time>
      </trkpt>
      <trkpt lat="48.10466" lon="-2.78614">
        <ele>120.291672</ele>
        <time>2022-12-13T14:42:42.870Z</time>
      </trkpt>
      <trkpt lat="48.10467" lon="-2.78594">
        <ele>120.2242</ele>
        <time>2022-12-13T14:42:45.860Z</time>
      </trkpt>
      <trkpt lat="48.10469" lon="-2.78576">
        <ele>120.167063</ele>
        <time>2022-12-13T14:42:48.870Z</time>
      </trkpt>
      <trkpt lat="48.1047" lon="-2.78559">
        <ele>120.109483</ele>
        <time>2022-12-13T14:42:51.868Z</time>
      </trkpt>
      <trkpt lat="48.10477" lon="-2.78542">
        <ele>120.044662</ele>
        <time>2022-12-13T14:42:54.868Z</time>
      </trkpt>
      <trkpt lat="48.10482" lon="-2.78529">
        <ele>119.994327</ele>
        <time>2022-12-13T14:42:56.871Z</time>
      </trkpt>
      <trkpt lat="48.10488" lon="-2.78514">
        <ele>119.938919</ele>
        <time>2022-12-13T14:42:58.872Z</time>
      </trkpt>
      <trkpt lat="48.10494" lon="-2.785">
        <ele>119.879947</ele>
        <time>2022-12-13T14:43:00.883Z</time>
      </trkpt>
      <trkpt lat="48.10497" lon="-2.78488">
        <ele>119.788606</ele>
        <time>2022-12-13T14:43:02.872Z</time>
      </trkpt>
      <trkpt lat="48.10501" lon="-2.78475">
        <ele>119.697064</ele>
        <time>2022-12-13T14:43:04.857Z</time>
      </trkpt>
      <trkpt lat="48.10506" lon="-2.78463">
        <ele>119.601448</ele>
        <time>2022-12-13T14:43:06.869Z</time>
      </trkpt>
      <trkpt lat="48.10511" lon="-2.78449">
        <ele>119.49679</ele>
        <time>2022-12-13T14:43:08.858Z</time>
      </trkpt>
      <trkpt lat="48.10515" lon="-2.78434">
        <ele>119.389194</ele>
        <time>2022-12-13T14:43:10.870Z</time>
      </trkpt>
      <trkpt lat="48.10519" lon="-2.78422">
        <ele>119.297749</ele>
        <time>2022-12-13T14:43:12.870Z</time>
      </trkpt>
      <trkpt lat="48.10524" lon="-2.78406">
        <ele>119.183517</ele>
        <time>2022-12-13T14:43:14.870Z</time>
      </trkpt>
      <trkpt lat="48.10529" lon="-2.78394">
        <ele>119.086369</ele>
        <time>2022-12-13T14:43:16.866Z</time>
      </trkpt>
      <trkpt lat="48.10532" lon="-2.7838">
        <ele>118.991657</ele>
        <time>2022-12-13T14:43:18.863Z</time>
      </trkpt>
      <trkpt lat="48.10536" lon="-2.78367">
        <ele>118.89767</ele>
        <time>2022-12-13T14:43:20.873Z</time>
      </trkpt>
      <trkpt lat="48.10541" lon="-2.78351">
        <ele>118.780604</ele>
        <time>2022-12-13T14:43:23.872Z</time>
      </trkpt>
      <trkpt lat="48.10547" lon="-2.78335">
        <ele>118.657884</ele>
        <time>2022-12-13T14:43:26.862Z</time>
      </trkpt>
      <trkpt lat="48.10552" lon="-2.78318">
        <ele>118.532507</ele>
        <time>2022-12-13T14:43:29.855Z</time>
      </trkpt>
      <trkpt lat="48.10555" lon="-2.78304">
        <ele>118.434676</ele>
        <time>2022-12-13T14:43:31.870Z</time>
      </trkpt>
      <trkpt lat="48.10559" lon="-2.78291">
        <ele>118.339289</ele>
        <time>2022-12-13T14:43:33.875Z</time>
      </trkpt>
      <trkpt lat="48.10563" lon="-2.78279">
        <ele>118.249407</ele>
        <time>2022-12-13T14:43:35.860Z</time>
      </trkpt>
      <trkpt lat="48.10569" lon="-2.78262">
        <ele>118.123038</ele>
        <time>2022-12-13T14:43:38.870Z</time>
      </trkpt>
      <trkpt lat="48.10572" lon="-2.78247">
        <ele>117.991934</ele>
        <time>2022-12-13T14:43:40.934Z</time>
      </trkpt>
      <trkpt lat="48.10574" lon="-2.78232">
        <ele>117.862642</ele>
        <time>2022-12-13T14:43:42.867Z</time>
      </trkpt>
      <trkpt lat="48.10576" lon="-2.78217">
        <ele>117.729293</ele>
        <time>2022-12-13T14:43:44.869Z</time>
      </trkpt>
      <trkpt lat="48.10577" lon="-2.78204">
        <ele>117.609325</ele>
        <time>2022-12-13T14:43:46.854Z</time>
      </trkpt>
      <trkpt lat="48.10576" lon="-2.78185">
        <ele>117.447194</ele>
        <time>2022-12-13T14:43:49.869Z</time>
      </trkpt>
      <trkpt lat="48.10573" lon="-2.78167">
        <ele>117.278606</ele>
        <time>2022-12-13T14:43:52.853Z</time>
      </trkpt>
      <trkpt lat="48.10568" lon="-2.78148">
        <ele>117.1051</ele>
        <time>2022-12-13T14:43:55.877Z</time>
      </trkpt>
      <trkpt lat="48.10562" lon="-2.78136">
        <ele>116.970447</ele>
        <time>2022-12-13T14:43:57.874Z</time>
      </trkpt>
      <trkpt lat="48.10556" lon="-2.7812">
        <ele>116.80924</ele>
        <time>2022-12-13T14:44:00.862Z</time>
      </trkpt>
      <trkpt lat="48.10548" lon="-2.78105">
        <ele>116.640014</ele>
        <time>2022-12-13T14:44:03.872Z</time>
      </trkpt>
      <trkpt lat="48.10539" lon="-2.78091">
        <ele>116.466128</ele>
        <time>2022-12-13T14:44:06.871Z</time>
      </trkpt>
      <trkpt lat="48.10531" lon="-2.78083">
        <ele>116.348105</ele>
        <time>2022-12-13T14:44:08.860Z</time>
      </trkpt>
      <trkpt lat="48.10521" lon="-2.78074">
        <ele>116.190275</ele>
        <time>2022-12-13T14:44:11.882Z</time>
      </trkpt>
      <trkpt lat="48.1051" lon="-2.78067">
        <ele>116.033507</ele>
        <time>2022-12-13T14:44:14.866Z</time>
      </trkpt>
      <trkpt lat="48.105" lon="-2.78063">
        <ele>115.897881</ele>
        <time>2022-12-13T14:44:17.843Z</time>
      </trkpt>
      <trkpt lat="48.1049" lon="-2.7806">
        <ele>115.767991</ele>
        <time>2022-12-13T14:44:20.871Z</time>
      </trkpt>
      <trkpt lat="48.10481" lon="-2.78055">
        <ele>115.542218</ele>
        <time>2022-12-13T14:44:23.873Z</time>
      </trkpt>
      <trkpt lat="48.10472" lon="-2.78054">
        <ele>115.307592</ele>
        <time>2022-12-13T14:44:26.865Z</time>
      </trkpt>
      <trkpt lat="48.10463" lon="-2.78052">
        <ele>115.054203</ele>
        <time>2022-12-13T14:44:29.873Z</time>
      </trkpt>
      <trkpt lat="48.10452" lon="-2.78049">
        <ele>114.774274</ele>
        <time>2022-12-13T14:44:32.871Z</time>
      </trkpt>
      <trkpt lat="48.1044" lon="-2.78045">
        <ele>114.443671</ele>
        <time>2022-12-13T14:44:35.916Z</time>
      </trkpt>
      <trkpt lat="48.10427" lon="-2.78042">
        <ele>114.098655</ele>
        <time>2022-12-13T14:44:38.872Z</time>
      </trkpt>
      <trkpt lat="48.10414" lon="-2.78039">
        <ele>113.756212</ele>
        <time>2022-12-13T14:44:41.854Z</time>
      </trkpt>
      <trkpt lat="48.10403" lon="-2.78035">
        <ele>113.461095</ele>
        <time>2022-12-13T14:44:44.871Z</time>
      </trkpt>
      <trkpt lat="48.10393" lon="-2.78031">
        <ele>113.197418</ele>
        <time>2022-12-13T14:44:47.869Z</time>
      </trkpt>
      <trkpt lat="48.10384" lon="-2.78029">
        <ele>112.962287</ele>
        <time>2022-12-13T14:44:50.849Z</time>
      </trkpt>
      <trkpt lat="48.10374" lon="-2.78026">
        <ele>112.699321</ele>
        <time>2022-12-13T14:44:54.868Z</time>
      </trkpt>
      <trkpt lat="48.10364" lon="-2.78025">
        <ele>112.45339</ele>
        <time>2022-12-13T14:44:59.854Z</time>
      </trkpt>
      <trkpt lat="48.10352" lon="-2.78022">
        <ele>112.130459</ele>
        <time>2022-12-13T14:45:03.856Z</time>
      </trkpt>
      <trkpt lat="48.1034" lon="-2.7802">
        <ele>111.813129</ele>
        <time>2022-12-13T14:45:06.870Z</time>
      </trkpt>
      <trkpt lat="48.10326" lon="-2.78017">
        <ele>111.45315</ele>
        <time>2022-12-13T14:45:09.860Z</time>
      </trkpt>
      <trkpt lat="48.10313" lon="-2.78015">
        <ele>111.101802</ele>
        <time>2022-12-13T14:45:12.868Z</time>
      </trkpt>
      <trkpt lat="48.10304" lon="-2.78013">
        <ele>111.016955</ele>
        <time>2022-12-13T14:45:14.857Z</time>
      </trkpt>
      <trkpt lat="48.10294" lon="-2.78012">
        <ele>110.960366</ele>
        <time>2022-12-13T14:45:16.880Z</time>
      </trkpt>
      <trkpt lat="48.10285" lon="-2.78011">
        <ele>110.905855</ele>
        <time>2022-12-13T14:45:18.867Z</time>
      </trkpt>
      <trkpt lat="48.10271" lon="-2.78009">
        <ele>110.828386</ele>
        <time>2022-12-13T14:45:21.880Z</time>
      </trkpt>
      <trkpt lat="48.10259" lon="-2.78006">
        <ele>110.758088</ele>
        <time>2022-12-13T14:45:24.867Z</time>
      </trkpt>
      <trkpt lat="48.1025" lon="-2.78005">
        <ele>110.70614</ele>
        <time>2022-12-13T14:45:26.867Z</time>
      </trkpt>
      <trkpt lat="48.10241" lon="-2.78003">
        <ele>110.652685</ele>
        <time>2022-12-13T14:45:28.867Z</time>
      </trkpt>
      <trkpt lat="48.10231" lon="-2.78002">
        <ele>110.598509</ele>
        <time>2022-12-13T14:45:30.914Z</time>
      </trkpt>
      <trkpt lat="48.10222" lon="-2.78">
        <ele>110.543004</ele>
        <time>2022-12-13T14:45:32.870Z</time>
      </trkpt>
      <trkpt lat="48.10212" lon="-2.77998">
        <ele>110.489396</ele>
        <time>2022-12-13T14:45:34.884Z</time>
      </trkpt>
      <trkpt lat="48.10203" lon="-2.77996">
        <ele>110.434852</ele>
        <time>2022-12-13T14:45:36.881Z</time>
      </trkpt>
      <trkpt lat="48.10193" lon="-2.77993">
        <ele>110.379116</ele>
        <time>2022-12-13T14:45:38.858Z</time>
      </trkpt>
      <trkpt lat="48.10184" lon="-2.77992">
        <ele>110.325509</ele>
        <time>2022-12-13T14:45:40.868Z</time>
      </trkpt>
      <trkpt lat="48.10174" lon="-2.7799">
        <ele>110.269893</ele>
        <time>2022-12-13T14:45:42.858Z</time>
      </trkpt>
      <trkpt lat="48.10164" lon="-2.77989">
        <ele>110.211471</ele>
        <time>2022-12-13T14:45:44.874Z</time>
      </trkpt>
      <trkpt lat="48.10155" lon="-2.77987">
        <ele>110.156799</ele>
        <time>2022-12-13T14:45:46.870Z</time>
      </trkpt>
      <trkpt lat="48.10143" lon="-2.77986">
        <ele>110.087481</ele>
        <time>2022-12-13T14:45:49.851Z</time>
      </trkpt>
      <trkpt lat="48.10131" lon="-2.77985">
        <ele>110.039098</ele>
        <time>2022-12-13T14:45:52.858Z</time>
      </trkpt>
      <trkpt lat="48.10118" lon="-2.77982">
        <ele>110.097174</ele>
        <time>2022-12-13T14:45:55.872Z</time>
      </trkpt>
      <trkpt lat="48.10106" lon="-2.77979">
        <ele>110.154892</ele>
        <time>2022-12-13T14:45:58.856Z</time>
      </trkpt>
      <trkpt lat="48.10093" lon="-2.77977">
        <ele>110.212661</ele>
        <time>2022-12-13T14:46:01.870Z</time>
      </trkpt>
      <trkpt lat="48.10084" lon="-2.77977">
        <ele>110.254155</ele>
        <time>2022-12-13T14:46:03.857Z</time>
      </trkpt>
      <trkpt lat="48.10075" lon="-2.77974">
        <ele>110.296958</ele>
        <time>2022-12-13T14:46:05.857Z</time>
      </trkpt>
      <trkpt lat="48.10066" lon="-2.77972">
        <ele>110.338535</ele>
        <time>2022-12-13T14:46:07.868Z</time>
      </trkpt>
      <trkpt lat="48.10056" lon="-2.7797">
        <ele>110.381822</ele>
        <time>2022-12-13T14:46:09.873Z</time>
      </trkpt>
      <trkpt lat="48.10047" lon="-2.77967">
        <ele>110.423795</ele>
        <time>2022-12-13T14:46:11.858Z</time>
      </trkpt>
      <trkpt lat="48.10036" lon="-2.77964">
        <ele>110.479029</ele>
        <time>2022-12-13T14:46:14.875Z</time>
      </trkpt>
      <trkpt lat="48.10027" lon="-2.77963">
        <ele>110.520135</ele>
        <time>2022-12-13T14:46:16.866Z</time>
      </trkpt>
      <trkpt lat="48.10015" lon="-2.7796">
        <ele>110.574063</ele>
        <time>2022-12-13T14:46:19.873Z</time>
      </trkpt>
      <trkpt lat="48.10003" lon="-2.77957">
        <ele>110.62846</ele>
        <time>2022-12-13T14:46:22.852Z</time>
      </trkpt>
      <trkpt lat="48.0999" lon="-2.77955">
        <ele>110.686683</ele>
        <time>2022-12-13T14:46:25.858Z</time>
      </trkpt>
      <trkpt lat="48.09978" lon="-2.77952">
        <ele>110.744972</ele>
        <time>2022-12-13T14:46:28.870Z</time>
      </trkpt>
      <trkpt lat="48.09969" lon="-2.7795">
        <ele>110.787209</ele>
        <time>2022-12-13T14:46:30.868Z</time>
      </trkpt>
      <trkpt lat="48.09959" lon="-2.77948">
        <ele>110.829926</ele>
        <time>2022-12-13T14:46:32.885Z</time>
      </trkpt>
      <trkpt lat="48.0995" lon="-2.77945">
        <ele>110.807216</ele>
        <time>2022-12-13T14:46:34.876Z</time>
      </trkpt>
      <trkpt lat="48.09937" lon="-2.77944">
        <ele>110.70837</ele>
        <time>2022-12-13T14:46:37.928Z</time>
      </trkpt>
      <trkpt lat="48.09926" lon="-2.77941">
        <ele>110.615419</ele>
        <time>2022-12-13T14:46:40.877Z</time>
      </trkpt>
      <trkpt lat="48.09913" lon="-2.77938">
        <ele>110.513059</ele>
        <time>2022-12-13T14:46:43.869Z</time>
      </trkpt>
      <trkpt lat="48.09901" lon="-2.77934">
        <ele>110.411151</ele>
        <time>2022-12-13T14:46:46.858Z</time>
      </trkpt>
      <trkpt lat="48.09888" lon="-2.77929">
        <ele>110.305922</ele>
        <time>2022-12-13T14:46:49.856Z</time>
      </trkpt>
      <trkpt lat="48.09876" lon="-2.77923">
        <ele>110.205017</ele>
        <time>2022-12-13T14:46:52.872Z</time>
      </trkpt>
      <trkpt lat="48.09864" lon="-2.77916">
        <ele>110.105529</ele>
        <time>2022-12-13T14:46:55.873Z</time>
      </trkpt>
      <trkpt lat="48.09852" lon="-2.77906">
        <ele>109.998625</ele>
        <time>2022-12-13T14:46:58.873Z</time>
      </trkpt>
      <trkpt lat="48.09841" lon="-2.77895">
        <ele>109.891596</ele>
        <time>2022-12-13T14:47:01.880Z</time>
      </trkpt>
      <trkpt lat="48.09833" lon="-2.77887">
        <ele>109.817091</ele>
        <time>2022-12-13T14:47:03.870Z</time>
      </trkpt>
      <trkpt lat="48.09826" lon="-2.77879">
        <ele>109.742262</ele>
        <time>2022-12-13T14:47:05.873Z</time>
      </trkpt>
      <trkpt lat="48.09818" lon="-2.77871">
        <ele>109.666896</ele>
        <time>2022-12-13T14:47:07.872Z</time>
      </trkpt>
      <trkpt lat="48.0981" lon="-2.77863">
        <ele>109.593334</ele>
        <time>2022-12-13T14:47:09.871Z</time>
      </trkpt>
      <trkpt lat="48.098" lon="-2.77853">
        <ele>109.493188</ele>
        <time>2022-12-13T14:47:12.869Z</time>
      </trkpt>
      <trkpt lat="48.0979" lon="-2.77841">
        <ele>109.437935</ele>
        <time>2022-12-13T14:47:15.863Z</time>
      </trkpt>
      <trkpt lat="48.0978" lon="-2.77831">
        <ele>109.504133</ele>
        <time>2022-12-13T14:47:18.864Z</time>
      </trkpt>
      <trkpt lat="48.0977" lon="-2.7782">
        <ele>109.576074</ele>
        <time>2022-12-13T14:47:21.890Z</time>
      </trkpt>
      <trkpt lat="48.0976" lon="-2.77809">
        <ele>109.645558</ele>
        <time>2022-12-13T14:47:24.858Z</time>
      </trkpt>
      <trkpt lat="48.0975" lon="-2.77799">
        <ele>109.708914</ele>
        <time>2022-12-13T14:47:27.872Z</time>
      </trkpt>
      <trkpt lat="48.09742" lon="-2.7779">
        <ele>109.766558</ele>
        <time>2022-12-13T14:47:30.870Z</time>
      </trkpt>
      <trkpt lat="48.09733" lon="-2.7778">
        <ele>109.83135</ele>
        <time>2022-12-13T14:47:33.872Z</time>
      </trkpt>
      <trkpt lat="48.09723" lon="-2.77769">
        <ele>109.898601</ele>
        <time>2022-12-13T14:47:36.863Z</time>
      </trkpt>
      <trkpt lat="48.09713" lon="-2.77758">
        <ele>109.968767</ele>
        <time>2022-12-13T14:47:39.870Z</time>
      </trkpt>
      <trkpt lat="48.09703" lon="-2.77748">
        <ele>110.036355</ele>
        <time>2022-12-13T14:47:42.867Z</time>
      </trkpt>
      <trkpt lat="48.09693" lon="-2.77738">
        <ele>110.10386</ele>
        <time>2022-12-13T14:47:45.855Z</time>
      </trkpt>
      <trkpt lat="48.09683" lon="-2.77728">
        <ele>110.167374</ele>
        <time>2022-12-13T14:47:48.916Z</time>
      </trkpt>
      <trkpt lat="48.09674" lon="-2.77718">
        <ele>110.232901</ele>
        <time>2022-12-13T14:47:51.881Z</time>
      </trkpt>
      <trkpt lat="48.09663" lon="-2.77708">
        <ele>110.304256</ele>
        <time>2022-12-13T14:47:54.856Z</time>
      </trkpt>
      <trkpt lat="48.0965" lon="-2.77699">
        <ele>110.380349</ele>
        <time>2022-12-13T14:47:57.848Z</time>
      </trkpt>
      <trkpt lat="48.09638" lon="-2.77691">
        <ele>110.505355</ele>
        <time>2022-12-13T14:48:00.859Z</time>
      </trkpt>
      <trkpt lat="48.09626" lon="-2.77684">
        <ele>110.695257</ele>
        <time>2022-12-13T14:48:03.872Z</time>
      </trkpt>
      <trkpt lat="48.09614" lon="-2.77679">
        <ele>110.878738</ele>
        <time>2022-12-13T14:48:06.875Z</time>
      </trkpt>
      <trkpt lat="48.09603" lon="-2.77675">
        <ele>111.046317</ele>
        <time>2022-12-13T14:48:09.874Z</time>
      </trkpt>
      <trkpt lat="48.09591" lon="-2.77673">
        <ele>111.213985</ele>
        <time>2022-12-13T14:48:12.857Z</time>
      </trkpt>
      <trkpt lat="48.09581" lon="-2.77671">
        <ele>111.364179</ele>
        <time>2022-12-13T14:48:15.859Z</time>
      </trkpt>
      <trkpt lat="48.09572" lon="-2.7767">
        <ele>111.493506</ele>
        <time>2022-12-13T14:48:18.856Z</time>
      </trkpt>
      <trkpt lat="48.09561" lon="-2.7767">
        <ele>111.645665</ele>
        <time>2022-12-13T14:48:24.857Z</time>
      </trkpt>
      <trkpt lat="48.0955" lon="-2.7767">
        <ele>111.816509</ele>
        <time>2022-12-13T14:48:28.853Z</time>
      </trkpt>
      <trkpt lat="48.09538" lon="-2.77671">
        <ele>111.977572</ele>
        <time>2022-12-13T14:48:31.863Z</time>
      </trkpt>
      <trkpt lat="48.09526" lon="-2.77671">
        <ele>112.154138</ele>
        <time>2022-12-13T14:48:34.858Z</time>
      </trkpt>
      <trkpt lat="48.09513" lon="-2.77671">
        <ele>112.340833</ele>
        <time>2022-12-13T14:48:37.926Z</time>
      </trkpt>
      <trkpt lat="48.09501" lon="-2.77672">
        <ele>112.523444</ele>
        <time>2022-12-13T14:48:40.874Z</time>
      </trkpt>
      <trkpt lat="48.0949" lon="-2.77673">
        <ele>112.679893</ele>
        <time>2022-12-13T14:48:43.857Z</time>
      </trkpt>
      <trkpt lat="48.09481" lon="-2.77683">
        <ele>112.83978</ele>
        <time>2022-12-13T14:48:47.866Z</time>
      </trkpt>
      <trkpt lat="48.09482" lon="-2.77698">
        <ele>112.991017</ele>
        <time>2022-12-13T14:48:51.884Z</time>
      </trkpt>
      <trkpt lat="48.09475" lon="-2.7771">
        <ele>112.87367</ele>
        <time>2022-12-13T14:48:55.860Z</time>
      </trkpt>
      <trkpt lat="48.09466" lon="-2.77713">
        <ele>112.699317</ele>
        <time>2022-12-13T14:48:59.937Z</time>
      </trkpt>
      <trkpt lat="48.09456" lon="-2.77715">
        <ele>112.506499</ele>
        <time>2022-12-13T14:49:03.877Z</time>
      </trkpt>
      <trkpt lat="48.09445" lon="-2.77719">
        <ele>112.273627</ele>
        <time>2022-12-13T14:49:06.871Z</time>
      </trkpt>
      <trkpt lat="48.09435" lon="-2.77722">
        <ele>112.087619</ele>
        <time>2022-12-13T14:49:08.872Z</time>
      </trkpt>
      <trkpt lat="48.09423" lon="-2.77728">
        <ele>111.838324</ele>
        <time>2022-12-13T14:49:11.873Z</time>
      </trkpt>
      <trkpt lat="48.09412" lon="-2.77734">
        <ele>111.604073</ele>
        <time>2022-12-13T14:49:14.866Z</time>
      </trkpt>
      <trkpt lat="48.09401" lon="-2.77739">
        <ele>111.377555</ele>
        <time>2022-12-13T14:49:17.878Z</time>
      </trkpt>
      <trkpt lat="48.09388" lon="-2.77745">
        <ele>111.131716</ele>
        <time>2022-12-13T14:49:20.869Z</time>
      </trkpt>
      <trkpt lat="48.09376" lon="-2.77749">
        <ele>110.879187</ele>
        <time>2022-12-13T14:49:23.863Z</time>
      </trkpt>
      <trkpt lat="48.09362" lon="-2.77752">
        <ele>110.613554</ele>
        <time>2022-12-13T14:49:26.870Z</time>
      </trkpt>
      <trkpt lat="48.0935" lon="-2.77753">
        <ele>110.37882</ele>
        <time>2022-12-13T14:49:29.870Z</time>
      </trkpt>
      <trkpt lat="48.09339" lon="-2.77753">
        <ele>110.163941</ele>
        <time>2022-12-13T14:49:32.920Z</time>
      </trkpt>
      <trkpt lat="48.09328" lon="-2.77753">
        <ele>109.943354</ele>
        <time>2022-12-13T14:49:35.867Z</time>
      </trkpt>
      <trkpt lat="48.09314" lon="-2.77753">
        <ele>109.687886</ele>
        <time>2022-12-13T14:49:38.869Z</time>
      </trkpt>
      <trkpt lat="48.09302" lon="-2.77754">
        <ele>109.549244</ele>
        <time>2022-12-13T14:49:41.868Z</time>
      </trkpt>
      <trkpt lat="48.09289" lon="-2.77755">
        <ele>109.55776</ele>
        <time>2022-12-13T14:49:44.857Z</time>
      </trkpt>
      <trkpt lat="48.0928" lon="-2.77756">
        <ele>109.563727</ele>
        <time>2022-12-13T14:49:46.859Z</time>
      </trkpt>
      <trkpt lat="48.09268" lon="-2.77757">
        <ele>109.572124</ele>
        <time>2022-12-13T14:49:49.922Z</time>
      </trkpt>
      <trkpt lat="48.09258" lon="-2.77757">
        <ele>109.578145</ele>
        <time>2022-12-13T14:49:51.874Z</time>
      </trkpt>
      <trkpt lat="48.09246" lon="-2.77757">
        <ele>109.585994</ele>
        <time>2022-12-13T14:49:54.871Z</time>
      </trkpt>
      <trkpt lat="48.09235" lon="-2.77757">
        <ele>109.593123</ele>
        <time>2022-12-13T14:49:57.883Z</time>
      </trkpt>
      <trkpt lat="48.09223" lon="-2.77758">
        <ele>109.601187</ele>
        <time>2022-12-13T14:50:00.918Z</time>
      </trkpt>
      <trkpt lat="48.0921" lon="-2.77759">
        <ele>109.60957</ele>
        <time>2022-12-13T14:50:03.874Z</time>
      </trkpt>
      <trkpt lat="48.09201" lon="-2.7776">
        <ele>109.61553</ele>
        <time>2022-12-13T14:50:05.877Z</time>
      </trkpt>
      <trkpt lat="48.09188" lon="-2.7776">
        <ele>109.624295</ele>
        <time>2022-12-13T14:50:08.876Z</time>
      </trkpt>
      <trkpt lat="48.09175" lon="-2.77762">
        <ele>109.632953</ele>
        <time>2022-12-13T14:50:11.919Z</time>
      </trkpt>
      <trkpt lat="48.09162" lon="-2.77764">
        <ele>109.641362</ele>
        <time>2022-12-13T14:50:14.859Z</time>
      </trkpt>
      <trkpt lat="48.09149" lon="-2.77766">
        <ele>109.650104</ele>
        <time>2022-12-13T14:50:17.884Z</time>
      </trkpt>
      <trkpt lat="48.09138" lon="-2.77767">
        <ele>109.656742</ele>
        <time>2022-12-13T14:50:19.873Z</time>
      </trkpt>
      <trkpt lat="48.09129" lon="-2.77768">
        <ele>109.662916</ele>
        <time>2022-12-13T14:50:21.877Z</time>
      </trkpt>
      <trkpt lat="48.09116" lon="-2.77771">
        <ele>109.711002</ele>
        <time>2022-12-13T14:50:24.854Z</time>
      </trkpt>
      <trkpt lat="48.09106" lon="-2.77774">
        <ele>109.748566</ele>
        <time>2022-12-13T14:50:26.867Z</time>
      </trkpt>
      <trkpt lat="48.09093" lon="-2.77775">
        <ele>109.797526</ele>
        <time>2022-12-13T14:50:29.868Z</time>
      </trkpt>
      <trkpt lat="48.09081" lon="-2.77776">
        <ele>109.845235</ele>
        <time>2022-12-13T14:50:32.876Z</time>
      </trkpt>
      <trkpt lat="48.09069" lon="-2.77776">
        <ele>109.893248</ele>
        <time>2022-12-13T14:50:35.864Z</time>
      </trkpt>
      <trkpt lat="48.09056" lon="-2.77776">
        <ele>109.942851</ele>
        <time>2022-12-13T14:50:38.916Z</time>
      </trkpt>
      <trkpt lat="48.09047" lon="-2.77773">
        <ele>109.978117</ele>
        <time>2022-12-13T14:50:40.884Z</time>
      </trkpt>
      <trkpt lat="48.09038" lon="-2.77769">
        <ele>110.013371</ele>
        <time>2022-12-13T14:50:42.880Z</time>
      </trkpt>
      <trkpt lat="48.09026" lon="-2.77763">
        <ele>110.063379</ele>
        <time>2022-12-13T14:50:45.865Z</time>
      </trkpt>
      <trkpt lat="48.09014" lon="-2.77758">
        <ele>110.110783</ele>
        <time>2022-12-13T14:50:48.883Z</time>
      </trkpt>
      <trkpt lat="48.09002" lon="-2.77753">
        <ele>110.157754</ele>
        <time>2022-12-13T14:50:51.859Z</time>
      </trkpt>
      <trkpt lat="48.0899" lon="-2.77748">
        <ele>110.207827</ele>
        <time>2022-12-13T14:50:54.922Z</time>
      </trkpt>
      <trkpt lat="48.08977" lon="-2.77742">
        <ele>110.259247</ele>
        <time>2022-12-13T14:50:57.884Z</time>
      </trkpt>
      <trkpt lat="48.08969" lon="-2.77738">
        <ele>110.29472</ele>
        <time>2022-12-13T14:50:59.880Z</time>
      </trkpt>
      <trkpt lat="48.08956" lon="-2.77732">
        <ele>110.345787</ele>
        <time>2022-12-13T14:51:02.867Z</time>
      </trkpt>
      <trkpt lat="48.08945" lon="-2.77724">
        <ele>110.337357</ele>
        <time>2022-12-13T14:51:05.883Z</time>
      </trkpt>
      <trkpt lat="48.08935" lon="-2.77716">
        <ele>110.306907</ele>
        <time>2022-12-13T14:51:08.873Z</time>
      </trkpt>
      <trkpt lat="48.08924" lon="-2.77709">
        <ele>110.27505</ele>
        <time>2022-12-13T14:51:11.871Z</time>
      </trkpt>
      <trkpt lat="48.08912" lon="-2.77701">
        <ele>110.238368</ele>
        <time>2022-12-13T14:51:14.849Z</time>
      </trkpt>
      <trkpt lat="48.08904" lon="-2.77695">
        <ele>110.212461</ele>
        <time>2022-12-13T14:51:16.915Z</time>
      </trkpt>
      <trkpt lat="48.08891" lon="-2.77686">
        <ele>110.174791</ele>
        <time>2022-12-13T14:51:19.861Z</time>
      </trkpt>
      <trkpt lat="48.08882" lon="-2.77679">
        <ele>110.147994</ele>
        <time>2022-12-13T14:51:21.871Z</time>
      </trkpt>
      <trkpt lat="48.08873" lon="-2.77673">
        <ele>110.121426</ele>
        <time>2022-12-13T14:51:23.871Z</time>
      </trkpt>
      <trkpt lat="48.08865" lon="-2.77667">
        <ele>110.096096</ele>
        <time>2022-12-13T14:51:25.872Z</time>
      </trkpt>
      <trkpt lat="48.08854" lon="-2.77658">
        <ele>110.062473</ele>
        <time>2022-12-13T14:51:28.874Z</time>
      </trkpt>
      <trkpt lat="48.08843" lon="-2.77651">
        <ele>110.030143</ele>
        <time>2022-12-13T14:51:31.854Z</time>
      </trkpt>
      <trkpt lat="48.08831" lon="-2.77641">
        <ele>109.992371</ele>
        <time>2022-12-13T14:51:34.885Z</time>
      </trkpt>
      <trkpt lat="48.08819" lon="-2.77632">
        <ele>109.956972</ele>
        <time>2022-12-13T14:51:37.883Z</time>
      </trkpt>
      <trkpt lat="48.0881" lon="-2.77627">
        <ele>109.929729</ele>
        <time>2022-12-13T14:51:39.870Z</time>
      </trkpt>
      <trkpt lat="48.08802" lon="-2.77621">
        <ele>109.904965</ele>
        <time>2022-12-13T14:51:41.879Z</time>
      </trkpt>
      <trkpt lat="48.0879" lon="-2.77612">
        <ele>109.872481</ele>
        <time>2022-12-13T14:51:44.856Z</time>
      </trkpt>
      <trkpt lat="48.08782" lon="-2.77606">
        <ele>109.899478</ele>
        <time>2022-12-13T14:51:46.876Z</time>
      </trkpt>
      <trkpt lat="48.0877" lon="-2.77597">
        <ele>109.938874</ele>
        <time>2022-12-13T14:51:49.878Z</time>
      </trkpt>
      <trkpt lat="48.08759" lon="-2.77589">
        <ele>109.974991</ele>
        <time>2022-12-13T14:51:52.874Z</time>
      </trkpt>
      <trkpt lat="48.08747" lon="-2.7758">
        <ele>110.014657</ele>
        <time>2022-12-13T14:51:55.862Z</time>
      </trkpt>
      <trkpt lat="48.08739" lon="-2.77573">
        <ele>110.043351</ele>
        <time>2022-12-13T14:51:57.878Z</time>
      </trkpt>
      <trkpt lat="48.08729" lon="-2.77561">
        <ele>110.080495</ele>
        <time>2022-12-13T14:52:00.870Z</time>
      </trkpt>
      <trkpt lat="48.08723" lon="-2.77549">
        <ele>110.111498</ele>
        <time>2022-12-13T14:52:03.872Z</time>
      </trkpt>
      <trkpt lat="48.08717" lon="-2.77536">
        <ele>110.141343</ele>
        <time>2022-12-13T14:52:06.873Z</time>
      </trkpt>
      <trkpt lat="48.08713" lon="-2.77523">
        <ele>110.169841</ele>
        <time>2022-12-13T14:52:09.884Z</time>
      </trkpt>
      <trkpt lat="48.08709" lon="-2.77509">
        <ele>110.20046</ele>
        <time>2022-12-13T14:52:13.878Z</time>
      </trkpt>
      <trkpt lat="48.08703" lon="-2.77497">
        <ele>110.230135</ele>
        <time>2022-12-13T14:52:18.873Z</time>
      </trkpt>
      <trkpt lat="48.08699" lon="-2.77481">
        <ele>110.263156</ele>
        <time>2022-12-13T14:52:22.915Z</time>
      </trkpt>
      <trkpt lat="48.08696" lon="-2.77467">
        <ele>110.293057</ele>
        <time>2022-12-13T14:52:25.862Z</time>
      </trkpt>
      <trkpt lat="48.08692" lon="-2.77454">
        <ele>110.321791</ele>
        <time>2022-12-13T14:52:28.855Z</time>
      </trkpt>
      <trkpt lat="48.08688" lon="-2.77442">
        <ele>110.348475</ele>
        <time>2022-12-13T14:52:31.875Z</time>
      </trkpt>
      <trkpt lat="48.08684" lon="-2.77429">
        <ele>110.375772</ele>
        <time>2022-12-13T14:52:36.873Z</time>
      </trkpt>
      <trkpt lat="48.0868" lon="-2.77414">
        <ele>110.410359</ele>
        <time>2022-12-13T14:52:41.872Z</time>
      </trkpt>
      <trkpt lat="48.08676" lon="-2.77403">
        <ele>110.461592</ele>
        <time>2022-12-13T14:52:45.928Z</time>
      </trkpt>
      <trkpt lat="48.08671" lon="-2.77388">
        <ele>110.522815</ele>
        <time>2022-12-13T14:52:48.859Z</time>
      </trkpt>
      <trkpt lat="48.08666" lon="-2.77371">
        <ele>110.592761</ele>
        <time>2022-12-13T14:52:51.880Z</time>
      </trkpt>
      <trkpt lat="48.08662" lon="-2.77359">
        <ele>110.644554</ele>
        <time>2022-12-13T14:52:53.870Z</time>
      </trkpt>
      <trkpt lat="48.08656" lon="-2.77341">
        <ele>110.717549</ele>
        <time>2022-12-13T14:52:56.867Z</time>
      </trkpt>
      <trkpt lat="48.08652" lon="-2.77324">
        <ele>110.789535</ele>
        <time>2022-12-13T14:52:59.876Z</time>
      </trkpt>
      <trkpt lat="48.08649" lon="-2.7731">
        <ele>110.843361</ele>
        <time>2022-12-13T14:53:01.881Z</time>
      </trkpt>
      <trkpt lat="48.08647" lon="-2.77296">
        <ele>110.895389</ele>
        <time>2022-12-13T14:53:03.862Z</time>
      </trkpt>
      <trkpt lat="48.08646" lon="-2.77281">
        <ele>110.952259</ele>
        <time>2022-12-13T14:53:05.892Z</time>
      </trkpt>
      <trkpt lat="48.08647" lon="-2.77267">
        <ele>111.005551</ele>
        <time>2022-12-13T14:53:07.875Z</time>
      </trkpt>
      <trkpt lat="48.08648" lon="-2.77254">
        <ele>111.058304</ele>
        <time>2022-12-13T14:53:09.871Z</time>
      </trkpt>
      <trkpt lat="48.08651" lon="-2.77241">
        <ele>111.109591</ele>
        <time>2022-12-13T14:53:11.934Z</time>
      </trkpt>
      <trkpt lat="48.08653" lon="-2.77227">
        <ele>111.161852</ele>
        <time>2022-12-13T14:53:13.875Z</time>
      </trkpt>
      <trkpt lat="48.08656" lon="-2.77208">
        <ele>111.236556</ele>
        <time>2022-12-13T14:53:16.868Z</time>
      </trkpt>
      <trkpt lat="48.08659" lon="-2.77189">
        <ele>111.310711</ele>
        <time>2022-12-13T14:53:19.885Z</time>
      </trkpt>
      <trkpt lat="48.08662" lon="-2.77175">
        <ele>111.364537</ele>
        <time>2022-12-13T14:53:21.877Z</time>
      </trkpt>
      <trkpt lat="48.08663" lon="-2.77162">
        <ele>111.416194</ele>
        <time>2022-12-13T14:53:23.872Z</time>
      </trkpt>
      <trkpt lat="48.08667" lon="-2.77143">
        <ele>111.486339</ele>
        <time>2022-12-13T14:53:26.885Z</time>
      </trkpt>
      <trkpt lat="48.0867" lon="-2.77129">
        <ele>111.5411</ele>
        <time>2022-12-13T14:53:28.917Z</time>
      </trkpt>
      <trkpt lat="48.08676" lon="-2.77113">
        <ele>111.608305</ele>
        <time>2022-12-13T14:53:31.868Z</time>
      </trkpt>
      <trkpt lat="48.08679" lon="-2.77098">
        <ele>111.663195</ele>
        <time>2022-12-13T14:53:34.857Z</time>
      </trkpt>
      <trkpt lat="48.08682" lon="-2.77082">
        <ele>111.724623</ele>
        <time>2022-12-13T14:53:37.859Z</time>
      </trkpt>
      <trkpt lat="48.08689" lon="-2.77066">
        <ele>111.79322</ele>
        <time>2022-12-13T14:53:40.869Z</time>
      </trkpt>
      <trkpt lat="48.08695" lon="-2.77048">
        <ele>111.865233</ele>
        <time>2022-12-13T14:53:43.878Z</time>
      </trkpt>
      <trkpt lat="48.08701" lon="-2.7703">
        <ele>111.939354</ele>
        <time>2022-12-13T14:53:46.888Z</time>
      </trkpt>
      <trkpt lat="48.08706" lon="-2.77017">
        <ele>111.992476</ele>
        <time>2022-12-13T14:53:48.868Z</time>
      </trkpt>
      <trkpt lat="48.08711" lon="-2.77005">
        <ele>112.044517</ele>
        <time>2022-12-13T14:53:50.921Z</time>
      </trkpt>
      <trkpt lat="48.08717" lon="-2.76988">
        <ele>112.115368</ele>
        <time>2022-12-13T14:53:53.868Z</time>
      </trkpt>
      <trkpt lat="48.08723" lon="-2.76973">
        <ele>112.176685</ele>
        <time>2022-12-13T14:53:56.863Z</time>
      </trkpt>
      <trkpt lat="48.08728" lon="-2.76958">
        <ele>112.236048</ele>
        <time>2022-12-13T14:53:59.885Z</time>
      </trkpt>
      <trkpt lat="48.08732" lon="-2.76944">
        <ele>112.293712</ele>
        <time>2022-12-13T14:54:02.857Z</time>
      </trkpt>
      <trkpt lat="48.08736" lon="-2.76927">
        <ele>112.35876</ele>
        <time>2022-12-13T14:54:05.861Z</time>
      </trkpt>
      <trkpt lat="48.08739" lon="-2.76909">
        <ele>112.328998</ele>
        <time>2022-12-13T14:54:08.872Z</time>
      </trkpt>
      <trkpt lat="48.08738" lon="-2.76891">
        <ele>112.148091</ele>
        <time>2022-12-13T14:54:11.885Z</time>
      </trkpt>
      <trkpt lat="48.08735" lon="-2.76873">
        <ele>111.968682</ele>
        <time>2022-12-13T14:54:14.871Z</time>
      </trkpt>
      <trkpt lat="48.0873" lon="-2.76858">
        <ele>111.808816</ele>
        <time>2022-12-13T14:54:17.902Z</time>
      </trkpt>
      <trkpt lat="48.08723" lon="-2.76844">
        <ele>111.638228</ele>
        <time>2022-12-13T14:54:20.866Z</time>
      </trkpt>
      <trkpt lat="48.08717" lon="-2.76834">
        <ele>111.508877</ele>
        <time>2022-12-13T14:54:22.879Z</time>
      </trkpt>
      <trkpt lat="48.08707" lon="-2.76822">
        <ele>111.331868</ele>
        <time>2022-12-13T14:54:25.854Z</time>
      </trkpt>
      <trkpt lat="48.08697" lon="-2.76813">
        <ele>111.156521</ele>
        <time>2022-12-13T14:54:28.857Z</time>
      </trkpt>
      <trkpt lat="48.08686" lon="-2.76805">
        <ele>110.977121</ele>
        <time>2022-12-13T14:54:31.858Z</time>
      </trkpt>
      <trkpt lat="48.08674" lon="-2.76796">
        <ele>110.791287</ele>
        <time>2022-12-13T14:54:34.885Z</time>
      </trkpt>
      <trkpt lat="48.08662" lon="-2.76789">
        <ele>110.606068</ele>
        <time>2022-12-13T14:54:37.872Z</time>
      </trkpt>
      <trkpt lat="48.08651" lon="-2.7678">
        <ele>110.426667</ele>
        <time>2022-12-13T14:54:40.873Z</time>
      </trkpt>
      <trkpt lat="48.0864" lon="-2.76771">
        <ele>110.244662</ele>
        <time>2022-12-13T14:54:43.883Z</time>
      </trkpt>
      <trkpt lat="48.08629" lon="-2.76762">
        <ele>110.059215</ele>
        <time>2022-12-13T14:54:46.868Z</time>
      </trkpt>
      <trkpt lat="48.0862" lon="-2.76756">
        <ele>109.929177</ele>
        <time>2022-12-13T14:54:48.869Z</time>
      </trkpt>
      <trkpt lat="48.08612" lon="-2.7675">
        <ele>109.802507</ele>
        <time>2022-12-13T14:54:50.871Z</time>
      </trkpt>
      <trkpt lat="48.08601" lon="-2.7674">
        <ele>109.694279</ele>
        <time>2022-12-13T14:54:53.856Z</time>
      </trkpt>
      <trkpt lat="48.0859" lon="-2.76732">
        <ele>109.597293</ele>
        <time>2022-12-13T14:54:56.877Z</time>
      </trkpt>
      <trkpt lat="48.0858" lon="-2.76724">
        <ele>109.500766</ele>
        <time>2022-12-13T14:54:59.867Z</time>
      </trkpt>
      <trkpt lat="48.08568" lon="-2.76714">
        <ele>109.393519</ele>
        <time>2022-12-13T14:55:02.850Z</time>
      </trkpt>
      <trkpt lat="48.0856" lon="-2.76708">
        <ele>109.317479</ele>
        <time>2022-12-13T14:55:04.880Z</time>
      </trkpt>
      <trkpt lat="48.08552" lon="-2.76702">
        <ele>109.24285</ele>
        <time>2022-12-13T14:55:06.861Z</time>
      </trkpt>
      <trkpt lat="48.0854" lon="-2.76693">
        <ele>109.133181</ele>
        <time>2022-12-13T14:55:09.869Z</time>
      </trkpt>
      <trkpt lat="48.08532" lon="-2.76686">
        <ele>109.057899</ele>
        <time>2022-12-13T14:55:11.937Z</time>
      </trkpt>
      <trkpt lat="48.0852" lon="-2.76677">
        <ele>108.949669</ele>
        <time>2022-12-13T14:55:14.885Z</time>
      </trkpt>
      <trkpt lat="48.08512" lon="-2.76671">
        <ele>108.872884</ele>
        <time>2022-12-13T14:55:16.871Z</time>
      </trkpt>
      <trkpt lat="48.08503" lon="-2.76665">
        <ele>108.796106</ele>
        <time>2022-12-13T14:55:18.868Z</time>
      </trkpt>
      <trkpt lat="48.08494" lon="-2.76659">
        <ele>108.719042</ele>
        <time>2022-12-13T14:55:20.871Z</time>
      </trkpt>
      <trkpt lat="48.08483" lon="-2.7665">
        <ele>108.610843</ele>
        <time>2022-12-13T14:55:23.871Z</time>
      </trkpt>
      <trkpt lat="48.08473" lon="-2.76641">
        <ele>108.514371</ele>
        <time>2022-12-13T14:55:26.858Z</time>
      </trkpt>
      <trkpt lat="48.08463" lon="-2.76633">
        <ele>108.422974</ele>
        <time>2022-12-13T14:55:29.883Z</time>
      </trkpt>
      <trkpt lat="48.08453" lon="-2.76628">
        <ele>108.340509</ele>
        <time>2022-12-13T14:55:32.885Z</time>
      </trkpt>
      <trkpt lat="48.08443" lon="-2.7662">
        <ele>108.315594</ele>
        <time>2022-12-13T14:55:35.930Z</time>
      </trkpt>
      <trkpt lat="48.08432" lon="-2.76611">
        <ele>108.286242</ele>
        <time>2022-12-13T14:55:38.860Z</time>
      </trkpt>
      <trkpt lat="48.0842" lon="-2.76604">
        <ele>108.256574</ele>
        <time>2022-12-13T14:55:41.870Z</time>
      </trkpt>
      <trkpt lat="48.08411" lon="-2.76598">
        <ele>108.235322</ele>
        <time>2022-12-13T14:55:43.868Z</time>
      </trkpt>
      <trkpt lat="48.08403" lon="-2.76591">
        <ele>108.213612</ele>
        <time>2022-12-13T14:55:45.872Z</time>
      </trkpt>
      <trkpt lat="48.08395" lon="-2.76584">
        <ele>108.191185</ele>
        <time>2022-12-13T14:55:47.887Z</time>
      </trkpt>
      <trkpt lat="48.08383" lon="-2.76575">
        <ele>108.161413</ele>
        <time>2022-12-13T14:55:50.860Z</time>
      </trkpt>
      <trkpt lat="48.08372" lon="-2.76568">
        <ele>108.133689</ele>
        <time>2022-12-13T14:55:53.867Z</time>
      </trkpt>
      <trkpt lat="48.08361" lon="-2.76558">
        <ele>108.104504</ele>
        <time>2022-12-13T14:55:56.864Z</time>
      </trkpt>
      <trkpt lat="48.0835" lon="-2.7655">
        <ele>108.075831</ele>
        <time>2022-12-13T14:55:59.885Z</time>
      </trkpt>
      <trkpt lat="48.08342" lon="-2.76543">
        <ele>108.054653</ele>
        <time>2022-12-13T14:56:01.868Z</time>
      </trkpt>
      <trkpt lat="48.08333" lon="-2.76538">
        <ele>108.034003</ele>
        <time>2022-12-13T14:56:03.884Z</time>
      </trkpt>
      <trkpt lat="48.08325" lon="-2.76531">
        <ele>108.012641</ele>
        <time>2022-12-13T14:56:05.891Z</time>
      </trkpt>
      <trkpt lat="48.08317" lon="-2.76523">
        <ele>107.990611</ele>
        <time>2022-12-13T14:56:07.869Z</time>
      </trkpt>
      <trkpt lat="48.08306" lon="-2.76515">
        <ele>107.961328</ele>
        <time>2022-12-13T14:56:10.887Z</time>
      </trkpt>
      <trkpt lat="48.08295" lon="-2.76507">
        <ele>107.933546</ele>
        <time>2022-12-13T14:56:13.917Z</time>
      </trkpt>
      <trkpt lat="48.08285" lon="-2.76499">
        <ele>108.10903</ele>
        <time>2022-12-13T14:56:16.871Z</time>
      </trkpt>
      <trkpt lat="48.08276" lon="-2.76492">
        <ele>108.303939</ele>
        <time>2022-12-13T14:56:19.860Z</time>
      </trkpt>
      <trkpt lat="48.08265" lon="-2.76484">
        <ele>108.523184</ele>
        <time>2022-12-13T14:56:22.872Z</time>
      </trkpt>
      <trkpt lat="48.08256" lon="-2.76476">
        <ele>108.731123</ele>
        <time>2022-12-13T14:56:25.881Z</time>
      </trkpt>
      <trkpt lat="48.08246" lon="-2.76469">
        <ele>108.926019</ele>
        <time>2022-12-13T14:56:28.868Z</time>
      </trkpt>
      <trkpt lat="48.08236" lon="-2.76462">
        <ele>109.144123</ele>
        <time>2022-12-13T14:56:32.873Z</time>
      </trkpt>
      <trkpt lat="48.08225" lon="-2.76456">
        <ele>109.359039</ele>
        <time>2022-12-13T14:56:36.862Z</time>
      </trkpt>
      <trkpt lat="48.08218" lon="-2.76447">
        <ele>109.5382</ele>
        <time>2022-12-13T14:56:40.898Z</time>
      </trkpt>
      <trkpt lat="48.08208" lon="-2.76442">
        <ele>109.740316</ele>
        <time>2022-12-13T14:56:45.861Z</time>
      </trkpt>
      <trkpt lat="48.082" lon="-2.76434">
        <ele>109.91344</ele>
        <time>2022-12-13T14:56:51.892Z</time>
      </trkpt>
      <trkpt lat="48.08193" lon="-2.76427">
        <ele>110.083971</ele>
        <time>2022-12-13T14:56:55.876Z</time>
      </trkpt>
      <trkpt lat="48.08185" lon="-2.76418">
        <ele>110.260112</ele>
        <time>2022-12-13T14:57:01.875Z</time>
      </trkpt>
      <trkpt lat="48.08176" lon="-2.76414">
        <ele>110.444687</ele>
        <time>2022-12-13T14:57:05.863Z</time>
      </trkpt>
      <trkpt lat="48.08168" lon="-2.76407">
        <ele>110.616158</ele>
        <time>2022-12-13T14:57:09.884Z</time>
      </trkpt>
      <trkpt lat="48.08171" lon="-2.76397">
        <ele>110.760276</ele>
        <time>2022-12-13T15:02:22.499Z</time>
      </trkpt>
      <trkpt lat="48.08158" lon="-2.76397">
        <ele>111.005828</ele>
        <time>2022-12-13T15:12:22.866Z</time>
      </trkpt>
      <trkpt lat="48.08149" lon="-2.7639">
        <ele>111.201846</ele>
        <time>2022-12-13T15:12:27.861Z</time>
      </trkpt>
      <trkpt lat="48.0814" lon="-2.76382">
        <ele>111.323977</ele>
        <time>2022-12-13T15:12:31.866Z</time>
      </trkpt>
      <trkpt lat="48.0813" lon="-2.76376">
        <ele>111.316868</ele>
        <time>2022-12-13T15:12:35.864Z</time>
      </trkpt>
      <trkpt lat="48.08121" lon="-2.76369">
        <ele>111.310387</ele>
        <time>2022-12-13T15:12:38.871Z</time>
      </trkpt>
      <trkpt lat="48.08112" lon="-2.7636">
        <ele>111.303031</ele>
        <time>2022-12-13T15:12:41.868Z</time>
      </trkpt>
      <trkpt lat="48.08104" lon="-2.76353">
        <ele>111.29696</ele>
        <time>2022-12-13T15:12:45.862Z</time>
      </trkpt>
      <trkpt lat="48.08097" lon="-2.76343">
        <ele>111.290531</ele>
        <time>2022-12-13T15:12:49.874Z</time>
      </trkpt>
      <trkpt lat="48.08088" lon="-2.76332">
        <ele>111.28297</ele>
        <time>2022-12-13T15:12:52.878Z</time>
      </trkpt>
      <trkpt lat="48.08082" lon="-2.76321">
        <ele>111.276819</ele>
        <time>2022-12-13T15:12:55.868Z</time>
      </trkpt>
      <trkpt lat="48.08076" lon="-2.76311">
        <ele>111.270925</ele>
        <time>2022-12-13T15:12:58.867Z</time>
      </trkpt>
      <trkpt lat="48.0807" lon="-2.76297">
        <ele>111.263596</ele>
        <time>2022-12-13T15:13:02.860Z</time>
      </trkpt>
      <trkpt lat="48.08062" lon="-2.76282">
        <ele>111.25508</ele>
        <time>2022-12-13T15:13:05.866Z</time>
      </trkpt>
      <trkpt lat="48.08055" lon="-2.76268">
        <ele>111.247451</ele>
        <time>2022-12-13T15:13:08.871Z</time>
      </trkpt>
      <trkpt lat="48.08046" lon="-2.76253">
        <ele>111.238795</ele>
        <time>2022-12-13T15:13:11.868Z</time>
      </trkpt>
      <trkpt lat="48.08039" lon="-2.76244">
        <ele>111.232768</ele>
        <time>2022-12-13T15:13:13.870Z</time>
      </trkpt>
      <trkpt lat="48.08031" lon="-2.7623">
        <ele>111.224665</ele>
        <time>2022-12-13T15:13:16.880Z</time>
      </trkpt>
      <trkpt lat="48.08023" lon="-2.76218">
        <ele>111.217277</ele>
        <time>2022-12-13T15:13:19.867Z</time>
      </trkpt>
      <trkpt lat="48.08015" lon="-2.76206">
        <ele>111.20978</ele>
        <time>2022-12-13T15:13:22.874Z</time>
      </trkpt>
      <trkpt lat="48.08007" lon="-2.76195">
        <ele>111.085752</ele>
        <time>2022-12-13T15:13:25.862Z</time>
      </trkpt>
      <trkpt lat="48.07999" lon="-2.76184">
        <ele>110.915488</ele>
        <time>2022-12-13T15:13:28.877Z</time>
      </trkpt>
      <trkpt lat="48.07989" lon="-2.7617">
        <ele>110.717752</ele>
        <time>2022-12-13T15:13:31.875Z</time>
      </trkpt>
      <trkpt lat="48.0798" lon="-2.76157">
        <ele>110.536874</ele>
        <time>2022-12-13T15:13:34.875Z</time>
      </trkpt>
      <trkpt lat="48.07972" lon="-2.76147">
        <ele>110.389969</ele>
        <time>2022-12-13T15:13:37.885Z</time>
      </trkpt>
      <trkpt lat="48.07964" lon="-2.76136">
        <ele>110.23072</ele>
        <time>2022-12-13T15:13:40.886Z</time>
      </trkpt>
      <trkpt lat="48.07956" lon="-2.76125">
        <ele>110.072135</ele>
        <time>2022-12-13T15:13:43.871Z</time>
      </trkpt>
      <trkpt lat="48.07947" lon="-2.76112">
        <ele>109.889988</ele>
        <time>2022-12-13T15:13:46.874Z</time>
      </trkpt>
      <trkpt lat="48.07939" lon="-2.76101">
        <ele>109.733572</ele>
        <time>2022-12-13T15:13:49.869Z</time>
      </trkpt>
      <trkpt lat="48.07929" lon="-2.76089">
        <ele>109.550963</ele>
        <time>2022-12-13T15:13:52.864Z</time>
      </trkpt>
      <trkpt lat="48.07919" lon="-2.76077">
        <ele>109.364632</ele>
        <time>2022-12-13T15:13:55.860Z</time>
      </trkpt>
      <trkpt lat="48.07911" lon="-2.76065">
        <ele>109.19698</ele>
        <time>2022-12-13T15:13:58.878Z</time>
      </trkpt>
      <trkpt lat="48.07903" lon="-2.76055">
        <ele>109.040729</ele>
        <time>2022-12-13T15:14:01.871Z</time>
      </trkpt>
      <trkpt lat="48.07894" lon="-2.76043">
        <ele>108.871345</ele>
        <time>2022-12-13T15:14:04.879Z</time>
      </trkpt>
      <trkpt lat="48.07884" lon="-2.76033">
        <ele>108.691456</ele>
        <time>2022-12-13T15:14:07.859Z</time>
      </trkpt>
      <trkpt lat="48.07874" lon="-2.7602">
        <ele>108.545301</ele>
        <time>2022-12-13T15:14:10.881Z</time>
      </trkpt>
      <trkpt lat="48.07865" lon="-2.76011">
        <ele>108.454836</ele>
        <time>2022-12-13T15:14:13.863Z</time>
      </trkpt>
      <trkpt lat="48.07855" lon="-2.76003">
        <ele>108.365398</ele>
        <time>2022-12-13T15:14:16.875Z</time>
      </trkpt>
      <trkpt lat="48.07845" lon="-2.75993">
        <ele>108.268265</ele>
        <time>2022-12-13T15:14:19.878Z</time>
      </trkpt>
      <trkpt lat="48.07835" lon="-2.75984">
        <ele>108.173461</ele>
        <time>2022-12-13T15:14:22.862Z</time>
      </trkpt>
      <trkpt lat="48.07824" lon="-2.75975">
        <ele>108.077691</ele>
        <time>2022-12-13T15:14:25.864Z</time>
      </trkpt>
      <trkpt lat="48.07814" lon="-2.75965">
        <ele>107.977095</ele>
        <time>2022-12-13T15:14:28.872Z</time>
      </trkpt>
      <trkpt lat="48.07804" lon="-2.75955">
        <ele>107.881506</ele>
        <time>2022-12-13T15:14:31.887Z</time>
      </trkpt>
      <trkpt lat="48.07794" lon="-2.75945">
        <ele>107.786801</ele>
        <time>2022-12-13T15:14:34.862Z</time>
      </trkpt>
      <trkpt lat="48.07784" lon="-2.75936">
        <ele>107.694318</ele>
        <time>2022-12-13T15:14:37.877Z</time>
      </trkpt>
      <trkpt lat="48.07774" lon="-2.75928">
        <ele>107.600912</ele>
        <time>2022-12-13T15:14:40.859Z</time>
      </trkpt>
      <trkpt lat="48.07764" lon="-2.75919">
        <ele>107.507506</ele>
        <time>2022-12-13T15:14:43.870Z</time>
      </trkpt>
      <trkpt lat="48.07754" lon="-2.75909">
        <ele>107.409743</ele>
        <time>2022-12-13T15:14:46.879Z</time>
      </trkpt>
      <trkpt lat="48.07744" lon="-2.75899">
        <ele>107.317347</ele>
        <time>2022-12-13T15:14:49.882Z</time>
      </trkpt>
      <trkpt lat="48.07735" lon="-2.75892">
        <ele>107.235346</ele>
        <time>2022-12-13T15:14:52.876Z</time>
      </trkpt>
      <trkpt lat="48.07724" lon="-2.75882">
        <ele>107.142793</ele>
        <time>2022-12-13T15:14:55.864Z</time>
      </trkpt>
      <trkpt lat="48.07713" lon="-2.75872">
        <ele>107.102922</ele>
        <time>2022-12-13T15:14:58.882Z</time>
      </trkpt>
      <trkpt lat="48.07703" lon="-2.75862">
        <ele>107.065911</ele>
        <time>2022-12-13T15:15:01.878Z</time>
      </trkpt>
      <trkpt lat="48.07694" lon="-2.75853">
        <ele>107.031525</ele>
        <time>2022-12-13T15:15:04.877Z</time>
      </trkpt>
      <trkpt lat="48.07684" lon="-2.75845">
        <ele>106.995996</ele>
        <time>2022-12-13T15:15:07.864Z</time>
      </trkpt>
      <trkpt lat="48.07675" lon="-2.75836">
        <ele>106.960563</ele>
        <time>2022-12-13T15:15:10.884Z</time>
      </trkpt>
      <trkpt lat="48.07664" lon="-2.75826">
        <ele>106.921603</ele>
        <time>2022-12-13T15:15:13.879Z</time>
      </trkpt>
      <trkpt lat="48.07653" lon="-2.75816">
        <ele>106.882272</ele>
        <time>2022-12-13T15:15:16.879Z</time>
      </trkpt>
      <trkpt lat="48.07643" lon="-2.75806">
        <ele>106.843576</ele>
        <time>2022-12-13T15:15:19.864Z</time>
      </trkpt>
      <trkpt lat="48.07633" lon="-2.75797">
        <ele>106.807691</ele>
        <time>2022-12-13T15:15:22.882Z</time>
      </trkpt>
      <trkpt lat="48.07624" lon="-2.75787">
        <ele>106.773094</ele>
        <time>2022-12-13T15:15:25.859Z</time>
      </trkpt>
      <trkpt lat="48.07615" lon="-2.75777">
        <ele>106.736146</ele>
        <time>2022-12-13T15:15:28.883Z</time>
      </trkpt>
      <trkpt lat="48.07604" lon="-2.75765">
        <ele>106.695562</ele>
        <time>2022-12-13T15:15:31.879Z</time>
      </trkpt>
      <trkpt lat="48.07596" lon="-2.75756">
        <ele>106.664604</ele>
        <time>2022-12-13T15:15:33.882Z</time>
      </trkpt>
      <trkpt lat="48.07587" lon="-2.75744">
        <ele>106.62527</ele>
        <time>2022-12-13T15:15:36.877Z</time>
      </trkpt>
      <trkpt lat="48.07577" lon="-2.75733">
        <ele>106.589828</ele>
        <time>2022-12-13T15:15:39.865Z</time>
      </trkpt>
      <trkpt lat="48.07568" lon="-2.75722">
        <ele>106.691439</ele>
        <time>2022-12-13T15:15:42.871Z</time>
      </trkpt>
      <trkpt lat="48.07557" lon="-2.7571">
        <ele>106.79942</ele>
        <time>2022-12-13T15:15:45.867Z</time>
      </trkpt>
      <trkpt lat="48.07548" lon="-2.75701">
        <ele>106.895203</ele>
        <time>2022-12-13T15:15:48.874Z</time>
      </trkpt>
      <trkpt lat="48.07539" lon="-2.75693">
        <ele>106.977027</ele>
        <time>2022-12-13T15:15:51.880Z</time>
      </trkpt>
      <trkpt lat="48.07528" lon="-2.75688">
        <ele>107.073859</ele>
        <time>2022-12-13T15:15:54.864Z</time>
      </trkpt>
      <trkpt lat="48.07517" lon="-2.75685">
        <ele>107.171139</ele>
        <time>2022-12-13T15:15:57.872Z</time>
      </trkpt>
      <trkpt lat="48.07505" lon="-2.75684">
        <ele>107.270722</ele>
        <time>2022-12-13T15:16:00.870Z</time>
      </trkpt>
      <trkpt lat="48.07493" lon="-2.75684">
        <ele>107.37259</ele>
        <time>2022-12-13T15:16:03.874Z</time>
      </trkpt>
      <trkpt lat="48.07482" lon="-2.75682">
        <ele>107.465471</ele>
        <time>2022-12-13T15:16:06.870Z</time>
      </trkpt>
      <trkpt lat="48.07471" lon="-2.75682">
        <ele>107.554116</ele>
        <time>2022-12-13T15:16:09.883Z</time>
      </trkpt>
      <trkpt lat="48.07461" lon="-2.75682">
        <ele>107.639345</ele>
        <time>2022-12-13T15:16:12.871Z</time>
      </trkpt>
      <trkpt lat="48.07452" lon="-2.7568">
        <ele>107.716309</ele>
        <time>2022-12-13T15:16:15.856Z</time>
      </trkpt>
      <trkpt lat="48.0744" lon="-2.75677">
        <ele>107.819</ele>
        <time>2022-12-13T15:16:18.882Z</time>
      </trkpt>
      <trkpt lat="48.0743" lon="-2.75672">
        <ele>107.907478</ele>
        <time>2022-12-13T15:16:21.884Z</time>
      </trkpt>
      <trkpt lat="48.07418" lon="-2.75666">
        <ele>108.01051</ele>
        <time>2022-12-13T15:16:24.892Z</time>
      </trkpt>
      <trkpt lat="48.07408" lon="-2.75656">
        <ele>108.102373</ele>
        <time>2022-12-13T15:16:27.868Z</time>
      </trkpt>
      <trkpt lat="48.07398" lon="-2.75645">
        <ele>108.157374</ele>
        <time>2022-12-13T15:16:30.865Z</time>
      </trkpt>
      <trkpt lat="48.07391" lon="-2.75636">
        <ele>108.199991</ele>
        <time>2022-12-13T15:16:33.869Z</time>
      </trkpt>
      <trkpt lat="48.07383" lon="-2.75627">
        <ele>108.24962</ele>
        <time>2022-12-13T15:16:37.869Z</time>
      </trkpt>
      <trkpt lat="48.07373" lon="-2.7563">
        <ele>108.294074</ele>
        <time>2022-12-13T15:16:42.863Z</time>
      </trkpt>
      <trkpt lat="48.07366" lon="-2.75641">
        <ele>108.343854</ele>
        <time>2022-12-13T15:16:46.877Z</time>
      </trkpt>
      <trkpt lat="48.07358" lon="-2.75649">
        <ele>108.387677</ele>
        <time>2022-12-13T15:16:50.881Z</time>
      </trkpt>
      <trkpt lat="48.0735" lon="-2.75657">
        <ele>108.430971</ele>
        <time>2022-12-13T15:16:54.871Z</time>
      </trkpt>
      <trkpt lat="48.07341" lon="-2.7566">
        <ele>108.47541</ele>
        <time>2022-12-13T15:16:58.881Z</time>
      </trkpt>
      <trkpt lat="48.0733" lon="-2.75656">
        <ele>108.52872</ele>
        <time>2022-12-13T15:17:02.871Z</time>
      </trkpt>
      <trkpt lat="48.0732" lon="-2.7565">
        <ele>108.576677</ele>
        <time>2022-12-13T15:17:05.856Z</time>
      </trkpt>
      <trkpt lat="48.0731" lon="-2.75643">
        <ele>108.630255</ele>
        <time>2022-12-13T15:17:08.872Z</time>
      </trkpt>
      <trkpt lat="48.07299" lon="-2.75635">
        <ele>108.688197</ele>
        <time>2022-12-13T15:17:11.870Z</time>
      </trkpt>
      <trkpt lat="48.07286" lon="-2.75628">
        <ele>108.748488</ele>
        <time>2022-12-13T15:17:14.880Z</time>
      </trkpt>
      <trkpt lat="48.07274" lon="-2.75622">
        <ele>108.80878</ele>
        <time>2022-12-13T15:17:17.894Z</time>
      </trkpt>
      <trkpt lat="48.07262" lon="-2.75614">
        <ele>108.870075</ele>
        <time>2022-12-13T15:17:20.875Z</time>
      </trkpt>
      <trkpt lat="48.0725" lon="-2.75607">
        <ele>108.920039</ele>
        <time>2022-12-13T15:17:23.886Z</time>
      </trkpt>
      <trkpt lat="48.07242" lon="-2.75601">
        <ele>108.830534</ele>
        <time>2022-12-13T15:17:25.877Z</time>
      </trkpt>
      <trkpt lat="48.0723" lon="-2.75592">
        <ele>108.698464</ele>
        <time>2022-12-13T15:17:28.882Z</time>
      </trkpt>
      <trkpt lat="48.07218" lon="-2.75583">
        <ele>108.568705</ele>
        <time>2022-12-13T15:17:31.871Z</time>
      </trkpt>
      <trkpt lat="48.07207" lon="-2.75574">
        <ele>108.445404</ele>
        <time>2022-12-13T15:17:34.880Z</time>
      </trkpt>
      <trkpt lat="48.07198" lon="-2.75564">
        <ele>108.330138</ele>
        <time>2022-12-13T15:17:37.882Z</time>
      </trkpt>
      <trkpt lat="48.07188" lon="-2.75557">
        <ele>108.229252</ele>
        <time>2022-12-13T15:17:40.856Z</time>
      </trkpt>
      <trkpt lat="48.07178" lon="-2.75549">
        <ele>108.115394</ele>
        <time>2022-12-13T15:17:43.887Z</time>
      </trkpt>
      <trkpt lat="48.07168" lon="-2.75539">
        <ele>107.995397</ele>
        <time>2022-12-13T15:17:46.881Z</time>
      </trkpt>
      <trkpt lat="48.07158" lon="-2.7553">
        <ele>107.876782</ele>
        <time>2022-12-13T15:17:49.879Z</time>
      </trkpt>
      <trkpt lat="48.0715" lon="-2.75517">
        <ele>107.761665</ele>
        <time>2022-12-13T15:17:52.864Z</time>
      </trkpt>
      <trkpt lat="48.07144" lon="-2.75502">
        <ele>107.647045</ele>
        <time>2022-12-13T15:17:55.860Z</time>
      </trkpt>
      <trkpt lat="48.07138" lon="-2.75488">
        <ele>107.53857</ele>
        <time>2022-12-13T15:17:58.873Z</time>
      </trkpt>
      <trkpt lat="48.07131" lon="-2.75477">
        <ele>107.443753</ele>
        <time>2022-12-13T15:18:01.869Z</time>
      </trkpt>
      <trkpt lat="48.07124" lon="-2.75464">
        <ele>107.328946</ele>
        <time>2022-12-13T15:18:05.861Z</time>
      </trkpt>
      <trkpt lat="48.07116" lon="-2.75454">
        <ele>107.229123</ele>
        <time>2022-12-13T15:18:08.872Z</time>
      </trkpt>
      <trkpt lat="48.07109" lon="-2.75442">
        <ele>107.160894</ele>
        <time>2022-12-13T15:18:11.900Z</time>
      </trkpt>
      <trkpt lat="48.07101" lon="-2.75429">
        <ele>107.181145</ele>
        <time>2022-12-13T15:18:14.870Z</time>
      </trkpt>
      <trkpt lat="48.07093" lon="-2.75416">
        <ele>107.204463</ele>
        <time>2022-12-13T15:18:17.888Z</time>
      </trkpt>
      <trkpt lat="48.07086" lon="-2.75401">
        <ele>107.22615</ele>
        <time>2022-12-13T15:18:20.881Z</time>
      </trkpt>
      <trkpt lat="48.0708" lon="-2.75385">
        <ele>107.248826</ele>
        <time>2022-12-13T15:18:24.860Z</time>
      </trkpt>
      <trkpt lat="48.07074" lon="-2.75373">
        <ele>107.266914</ele>
        <time>2022-12-13T15:18:27.860Z</time>
      </trkpt>
      <trkpt lat="48.07065" lon="-2.75358">
        <ele>107.291973</ele>
        <time>2022-12-13T15:18:30.889Z</time>
      </trkpt>
      <trkpt lat="48.07058" lon="-2.75348">
        <ele>107.310125</ele>
        <time>2022-12-13T15:18:32.883Z</time>
      </trkpt>
      <trkpt lat="48.07052" lon="-2.75338">
        <ele>107.327411</ele>
        <time>2022-12-13T15:18:34.880Z</time>
      </trkpt>
      <trkpt lat="48.07046" lon="-2.75327">
        <ele>107.3441</ele>
        <time>2022-12-13T15:18:36.881Z</time>
      </trkpt>
      <trkpt lat="48.07041" lon="-2.75315">
        <ele>107.361882</ele>
        <time>2022-12-13T15:18:38.878Z</time>
      </trkpt>
      <trkpt lat="48.07037" lon="-2.75302">
        <ele>107.37863</ele>
        <time>2022-12-13T15:18:40.865Z</time>
      </trkpt>
      <trkpt lat="48.0703" lon="-2.75283">
        <ele>107.405036</ele>
        <time>2022-12-13T15:18:43.885Z</time>
      </trkpt>
      <trkpt lat="48.07026" lon="-2.7527">
        <ele>107.422969</ele>
        <time>2022-12-13T15:18:45.867Z</time>
      </trkpt>
      <trkpt lat="48.07023" lon="-2.75253">
        <ele>107.445005</ele>
        <time>2022-12-13T15:18:48.861Z</time>
      </trkpt>
      <trkpt lat="48.0702" lon="-2.7524">
        <ele>107.4618</ele>
        <time>2022-12-13T15:18:50.876Z</time>
      </trkpt>
      <trkpt lat="48.07017" lon="-2.75221">
        <ele>107.485234</ele>
        <time>2022-12-13T15:18:53.880Z</time>
      </trkpt>
      <trkpt lat="48.07015" lon="-2.75203">
        <ele>107.596004</ele>
        <time>2022-12-13T15:18:56.876Z</time>
      </trkpt>
      <trkpt lat="48.07013" lon="-2.75185">
        <ele>107.704324</ele>
        <time>2022-12-13T15:18:59.883Z</time>
      </trkpt>
      <trkpt lat="48.07011" lon="-2.75168">
        <ele>107.814096</ele>
        <time>2022-12-13T15:19:02.884Z</time>
      </trkpt>
      <trkpt lat="48.07009" lon="-2.75149">
        <ele>107.928344</ele>
        <time>2022-12-13T15:19:05.865Z</time>
      </trkpt>
      <trkpt lat="48.07007" lon="-2.75131">
        <ele>108.036841</ele>
        <time>2022-12-13T15:19:08.870Z</time>
      </trkpt>
      <trkpt lat="48.07004" lon="-2.75115">
        <ele>108.136678</ele>
        <time>2022-12-13T15:19:11.878Z</time>
      </trkpt>
      <trkpt lat="48.07007" lon="-2.75101">
        <ele>108.223623</ele>
        <time>2022-12-13T15:19:26.864Z</time>
      </trkpt>
      <trkpt lat="48.07008" lon="-2.75087">
        <ele>108.31098</ele>
        <time>2022-12-13T15:19:31.870Z</time>
      </trkpt>
      <trkpt lat="48.0701" lon="-2.75072">
        <ele>108.401317</ele>
        <time>2022-12-13T15:19:46.872Z</time>
      </trkpt>
      <trkpt lat="48.07006" lon="-2.7506">
        <ele>108.487312</ele>
        <time>2022-12-13T15:20:07.862Z</time>
      </trkpt>
      <trkpt lat="48.06998" lon="-2.75048">
        <ele>108.586285</ele>
        <time>2022-12-13T15:20:13.867Z</time>
      </trkpt>
      <trkpt lat="48.06994" lon="-2.75035">
        <ele>108.679304</ele>
        <time>2022-12-13T15:20:16.867Z</time>
      </trkpt>
      <trkpt lat="48.06987" lon="-2.7502">
        <ele>108.784849</ele>
        <time>2022-12-13T15:20:19.863Z</time>
      </trkpt>
      <trkpt lat="48.06981" lon="-2.75005">
        <ele>108.892327</ele>
        <time>2022-12-13T15:20:22.858Z</time>
      </trkpt>
      <trkpt lat="48.06974" lon="-2.74991">
        <ele>108.996786</ele>
        <time>2022-12-13T15:20:25.862Z</time>
      </trkpt>
      <trkpt lat="48.06967" lon="-2.74975">
        <ele>109.111283</ele>
        <time>2022-12-13T15:20:28.855Z</time>
      </trkpt>
      <trkpt lat="48.06961" lon="-2.74963">
        <ele>109.194081</ele>
        <time>2022-12-13T15:20:30.876Z</time>
      </trkpt>
      <trkpt lat="48.06953" lon="-2.7495">
        <ele>109.292492</ele>
        <time>2022-12-13T15:20:33.865Z</time>
      </trkpt>
      <trkpt lat="48.06948" lon="-2.74937">
        <ele>109.372107</ele>
        <time>2022-12-13T15:20:36.863Z</time>
      </trkpt>
      <trkpt lat="48.0694" lon="-2.74927">
        <ele>109.459586</ele>
        <time>2022-12-13T15:20:41.864Z</time>
      </trkpt>
      <trkpt lat="48.06928" lon="-2.74925">
        <ele>109.557845</ele>
        <time>2022-12-13T15:20:45.866Z</time>
      </trkpt>
      <trkpt lat="48.06918" lon="-2.74933">
        <ele>109.652681</ele>
        <time>2022-12-13T15:20:50.865Z</time>
      </trkpt>
      <trkpt lat="48.0691" lon="-2.74943">
        <ele>109.736647</ele>
        <time>2022-12-13T15:20:53.884Z</time>
      </trkpt>
      <trkpt lat="48.069" lon="-2.74951">
        <ele>109.835837</ele>
        <time>2022-12-13T15:20:56.879Z</time>
      </trkpt>
      <trkpt lat="48.0689" lon="-2.74962">
        <ele>109.93693</ele>
        <time>2022-12-13T15:20:59.880Z</time>
      </trkpt>
      <trkpt lat="48.06879" lon="-2.74973">
        <ele>110.044473</ele>
        <time>2022-12-13T15:21:02.872Z</time>
      </trkpt>
      <trkpt lat="48.06869" lon="-2.74983">
        <ele>110.147517</ele>
        <time>2022-12-13T15:21:05.866Z</time>
      </trkpt>
      <trkpt lat="48.0686" lon="-2.74992">
        <ele>110.237917</ele>
        <time>2022-12-13T15:21:08.882Z</time>
      </trkpt>
      <trkpt lat="48.06851" lon="-2.74996">
        <ele>110.313346</ele>
        <time>2022-12-13T15:21:11.867Z</time>
      </trkpt>
      <trkpt lat="48.06841" lon="-2.75">
        <ele>110.399045</ele>
        <time>2022-12-13T15:21:15.863Z</time>
      </trkpt>
      <trkpt lat="48.0683" lon="-2.75003">
        <ele>110.489175</ele>
        <time>2022-12-13T15:21:20.888Z</time>
      </trkpt>
      <trkpt lat="48.06821" lon="-2.75007">
        <ele>110.566598</ele>
        <time>2022-12-13T15:21:25.858Z</time>
      </trkpt>
      <trkpt lat="48.06813" lon="-2.75012">
        <ele>110.483908</ele>
        <time>2022-12-13T15:21:34.866Z</time>
      </trkpt>
      <trkpt lat="48.0681" lon="-2.74999">
        <ele>110.256681</ele>
        <time>2022-12-13T15:21:45.877Z</time>
      </trkpt>
      <trkpt lat="48.06813" lon="-2.74984">
        <ele>110.004446</ele>
        <time>2022-12-13T15:21:53.861Z</time>
      </trkpt>
      <trkpt lat="48.06814" lon="-2.74968">
        <ele>109.749909</ele>
        <time>2022-12-13T15:21:58.862Z</time>
      </trkpt>
      <trkpt lat="48.0681" lon="-2.74955">
        <ele>109.528</ele>
        <time>2022-12-13T15:22:03.884Z</time>
      </trkpt>
      <trkpt lat="48.068" lon="-2.7495">
        <ele>109.285707</ele>
        <time>2022-12-13T15:22:07.854Z</time>
      </trkpt>
      <trkpt lat="48.0679" lon="-2.74948">
        <ele>109.033528</ele>
        <time>2022-12-13T15:22:10.862Z</time>
      </trkpt>
      <trkpt lat="48.06778" lon="-2.74948">
        <ele>108.765105</ele>
        <time>2022-12-13T15:22:13.861Z</time>
      </trkpt>
      <trkpt lat="48.06766" lon="-2.74952">
        <ele>108.466258</ele>
        <time>2022-12-13T15:22:16.865Z</time>
      </trkpt>
      <trkpt lat="48.06755" lon="-2.74958">
        <ele>108.195022</ele>
        <time>2022-12-13T15:22:19.863Z</time>
      </trkpt>
      <trkpt lat="48.06745" lon="-2.74963">
        <ele>107.948509</ele>
        <time>2022-12-13T15:22:22.873Z</time>
      </trkpt>
      <trkpt lat="48.06736" lon="-2.74973">
        <ele>107.673206</ele>
        <time>2022-12-13T15:22:26.862Z</time>
      </trkpt>
      <trkpt lat="48.06728" lon="-2.74982">
        <ele>107.446987</ele>
        <time>2022-12-13T15:22:29.886Z</time>
      </trkpt>
      <trkpt lat="48.06718" lon="-2.74986">
        <ele>107.192646</ele>
        <time>2022-12-13T15:22:32.872Z</time>
      </trkpt>
      <trkpt lat="48.06708" lon="-2.74983">
        <ele>106.947218</ele>
        <time>2022-12-13T15:22:35.870Z</time>
      </trkpt>
      <trkpt lat="48.06698" lon="-2.74977">
        <ele>106.709009</ele>
        <time>2022-12-13T15:22:38.868Z</time>
      </trkpt>
      <trkpt lat="48.06691" lon="-2.74969">
        <ele>106.492158</ele>
        <time>2022-12-13T15:22:41.862Z</time>
      </trkpt>
      <trkpt lat="48.06682" lon="-2.74961">
        <ele>106.370213</ele>
        <time>2022-12-13T15:22:44.881Z</time>
      </trkpt>
      <trkpt lat="48.06672" lon="-2.74951">
        <ele>106.380105</ele>
        <time>2022-12-13T15:22:47.886Z</time>
      </trkpt>
      <trkpt lat="48.06664" lon="-2.74939">
        <ele>106.390633</ele>
        <time>2022-12-13T15:22:50.881Z</time>
      </trkpt>
      <trkpt lat="48.0666" lon="-2.74925">
        <ele>106.399873</ele>
        <time>2022-12-13T15:22:53.865Z</time>
      </trkpt>
      <trkpt lat="48.06658" lon="-2.7491">
        <ele>106.408672</ele>
        <time>2022-12-13T15:22:56.862Z</time>
      </trkpt>
      <trkpt lat="48.06658" lon="-2.74893">
        <ele>106.419006</ele>
        <time>2022-12-13T15:22:59.864Z</time>
      </trkpt>
      <trkpt lat="48.06658" lon="-2.74874">
        <ele>106.429815</ele>
        <time>2022-12-13T15:23:02.887Z</time>
      </trkpt>
      <trkpt lat="48.06657" lon="-2.74855">
        <ele>106.441287</ele>
        <time>2022-12-13T15:23:05.864Z</time>
      </trkpt>
      <trkpt lat="48.06654" lon="-2.74837">
        <ele>106.45253</ele>
        <time>2022-12-13T15:23:08.888Z</time>
      </trkpt>
      <trkpt lat="48.0665" lon="-2.74819">
        <ele>106.463433</ele>
        <time>2022-12-13T15:23:11.861Z</time>
      </trkpt>
      <trkpt lat="48.06645" lon="-2.74803">
        <ele>106.47392</ele>
        <time>2022-12-13T15:23:14.874Z</time>
      </trkpt>
      <trkpt lat="48.06641" lon="-2.74788">
        <ele>106.483741</ele>
        <time>2022-12-13T15:23:17.879Z</time>
      </trkpt>
      <trkpt lat="48.06636" lon="-2.74775">
        <ele>106.492993</ele>
        <time>2022-12-13T15:23:20.892Z</time>
      </trkpt>
      <trkpt lat="48.06629" lon="-2.7476">
        <ele>106.503166</ele>
        <time>2022-12-13T15:23:23.863Z</time>
      </trkpt>
      <trkpt lat="48.06624" lon="-2.74743">
        <ele>106.514499</ele>
        <time>2022-12-13T15:23:26.873Z</time>
      </trkpt>
      <trkpt lat="48.06618" lon="-2.7473">
        <ele>106.523545</ele>
        <time>2022-12-13T15:23:29.877Z</time>
      </trkpt>
      <trkpt lat="48.06613" lon="-2.74717">
        <ele>106.53904</ele>
        <time>2022-12-13T15:23:31.866Z</time>
      </trkpt>
      <trkpt lat="48.06608" lon="-2.74705">
        <ele>106.553572</ele>
        <time>2022-12-13T15:23:33.880Z</time>
      </trkpt>
      <trkpt lat="48.06603" lon="-2.74694">
        <ele>106.568285</ele>
        <time>2022-12-13T15:23:35.869Z</time>
      </trkpt>
      <trkpt lat="48.06598" lon="-2.74683">
        <ele>106.582643</ele>
        <time>2022-12-13T15:23:37.881Z</time>
      </trkpt>
      <trkpt lat="48.06591" lon="-2.74672">
        <ele>106.598585</ele>
        <time>2022-12-13T15:23:39.857Z</time>
      </trkpt>
      <trkpt lat="48.06586" lon="-2.7466">
        <ele>106.613471</ele>
        <time>2022-12-13T15:23:41.881Z</time>
      </trkpt>
      <trkpt lat="48.06578" lon="-2.74644">
        <ele>106.635516</ele>
        <time>2022-12-13T15:23:44.880Z</time>
      </trkpt>
      <trkpt lat="48.06571" lon="-2.74632">
        <ele>106.652647</ele>
        <time>2022-12-13T15:23:46.867Z</time>
      </trkpt>
      <trkpt lat="48.06564" lon="-2.74621">
        <ele>106.66807</ele>
        <time>2022-12-13T15:23:48.882Z</time>
      </trkpt>
      <trkpt lat="48.06558" lon="-2.7461">
        <ele>106.683869</ele>
        <time>2022-12-13T15:23:50.885Z</time>
      </trkpt>
      <trkpt lat="48.0655" lon="-2.74597">
        <ele>106.702946</ele>
        <time>2022-12-13T15:23:53.894Z</time>
      </trkpt>
      <trkpt lat="48.06542" lon="-2.74586">
        <ele>106.719807</ele>
        <time>2022-12-13T15:23:56.873Z</time>
      </trkpt>
      <trkpt lat="48.06534" lon="-2.74576">
        <ele>106.736778</ele>
        <time>2022-12-13T15:23:59.866Z</time>
      </trkpt>
      <trkpt lat="48.06526" lon="-2.74567">
        <ele>106.752751</ele>
        <time>2022-12-13T15:24:02.863Z</time>
      </trkpt>
      <trkpt lat="48.06518" lon="-2.74555">
        <ele>106.770898</ele>
        <time>2022-12-13T15:24:05.869Z</time>
      </trkpt>
      <trkpt lat="48.06508" lon="-2.74543">
        <ele>106.791001</ele>
        <time>2022-12-13T15:24:08.879Z</time>
      </trkpt>
      <trkpt lat="48.06499" lon="-2.7453">
        <ele>106.811272</ele>
        <time>2022-12-13T15:24:11.883Z</time>
      </trkpt>
      <trkpt lat="48.06491" lon="-2.74516">
        <ele>106.718802</ele>
        <time>2022-12-13T15:24:14.864Z</time>
      </trkpt>
      <trkpt lat="48.06484" lon="-2.74506">
        <ele>106.639137</ele>
        <time>2022-12-13T15:24:16.875Z</time>
      </trkpt>
      <trkpt lat="48.06481" lon="-2.74493">
        <ele>106.559121</ele>
        <time>2022-12-13T15:24:18.886Z</time>
      </trkpt>
      <trkpt lat="48.06474" lon="-2.74475">
        <ele>106.442263</ele>
        <time>2022-12-13T15:24:21.884Z</time>
      </trkpt>
      <trkpt lat="48.06468" lon="-2.74464">
        <ele>106.359799</ele>
        <time>2022-12-13T15:24:23.887Z</time>
      </trkpt>
      <trkpt lat="48.0646" lon="-2.74447">
        <ele>106.24222</ele>
        <time>2022-12-13T15:24:26.881Z</time>
      </trkpt>
      <trkpt lat="48.06452" lon="-2.74432">
        <ele>106.133504</ele>
        <time>2022-12-13T15:24:29.864Z</time>
      </trkpt>
      <trkpt lat="48.06445" lon="-2.74418">
        <ele>106.028294</ele>
        <time>2022-12-13T15:24:32.879Z</time>
      </trkpt>
      <trkpt lat="48.06438" lon="-2.74402">
        <ele>105.921218</ele>
        <time>2022-12-13T15:24:35.871Z</time>
      </trkpt>
      <trkpt lat="48.06431" lon="-2.74387">
        <ele>105.815094</ele>
        <time>2022-12-13T15:24:38.894Z</time>
      </trkpt>
      <trkpt lat="48.06423" lon="-2.74372">
        <ele>105.708261</ele>
        <time>2022-12-13T15:24:41.862Z</time>
      </trkpt>
      <trkpt lat="48.06415" lon="-2.74357">
        <ele>105.601806</ele>
        <time>2022-12-13T15:24:44.888Z</time>
      </trkpt>
      <trkpt lat="48.06408" lon="-2.74342">
        <ele>105.494728</ele>
        <time>2022-12-13T15:24:47.856Z</time>
      </trkpt>
      <trkpt lat="48.06401" lon="-2.74326">
        <ele>105.384182</ele>
        <time>2022-12-13T15:24:50.881Z</time>
      </trkpt>
      <trkpt lat="48.06393" lon="-2.74312">
        <ele>105.277876</ele>
        <time>2022-12-13T15:24:53.892Z</time>
      </trkpt>
      <trkpt lat="48.06385" lon="-2.74299">
        <ele>105.236201</ele>
        <time>2022-12-13T15:24:56.882Z</time>
      </trkpt>
      <trkpt lat="48.06377" lon="-2.74287">
        <ele>105.197455</ele>
        <time>2022-12-13T15:24:59.867Z</time>
      </trkpt>
      <trkpt lat="48.06367" lon="-2.74275">
        <ele>105.155842</ele>
        <time>2022-12-13T15:25:02.860Z</time>
      </trkpt>
      <trkpt lat="48.06358" lon="-2.74261">
        <ele>105.114177</ele>
        <time>2022-12-13T15:25:05.877Z</time>
      </trkpt>
      <trkpt lat="48.06349" lon="-2.74249">
        <ele>105.074589</ele>
        <time>2022-12-13T15:25:08.893Z</time>
      </trkpt>
      <trkpt lat="48.0634" lon="-2.74235">
        <ele>105.031975</ele>
        <time>2022-12-13T15:25:11.880Z</time>
      </trkpt>
      <trkpt lat="48.06331" lon="-2.74221">
        <ele>104.988668</ele>
        <time>2022-12-13T15:25:14.867Z</time>
      </trkpt>
      <trkpt lat="48.06325" lon="-2.74211">
        <ele>104.958753</ele>
        <time>2022-12-13T15:25:16.887Z</time>
      </trkpt>
      <trkpt lat="48.0632" lon="-2.742">
        <ele>104.928192</ele>
        <time>2022-12-13T15:25:18.861Z</time>
      </trkpt>
      <trkpt lat="48.06316" lon="-2.74188">
        <ele>104.897417</ele>
        <time>2022-12-13T15:25:20.870Z</time>
      </trkpt>
      <trkpt lat="48.06313" lon="-2.74175">
        <ele>104.867078</ele>
        <time>2022-12-13T15:25:22.863Z</time>
      </trkpt>
      <trkpt lat="48.0631" lon="-2.74157">
        <ele>104.825972</ele>
        <time>2022-12-13T15:25:25.864Z</time>
      </trkpt>
      <trkpt lat="48.06306" lon="-2.74138">
        <ele>104.782892</ele>
        <time>2022-12-13T15:25:28.888Z</time>
      </trkpt>
      <trkpt lat="48.06303" lon="-2.7412">
        <ele>104.740844</ele>
        <time>2022-12-13T15:25:31.863Z</time>
      </trkpt>
      <trkpt lat="48.063" lon="-2.74101">
        <ele>104.697409</ele>
        <time>2022-12-13T15:25:34.881Z</time>
      </trkpt>
      <trkpt lat="48.06297" lon="-2.74083">
        <ele>104.636652</ele>
        <time>2022-12-13T15:25:37.866Z</time>
      </trkpt>
      <trkpt lat="48.06294" lon="-2.74069">
        <ele>104.575606</ele>
        <time>2022-12-13T15:25:39.889Z</time>
      </trkpt>
      <trkpt lat="48.06292" lon="-2.74056">
        <ele>104.517308</ele>
        <time>2022-12-13T15:25:41.889Z</time>
      </trkpt>
      <trkpt lat="48.06289" lon="-2.74042">
        <ele>104.457918</ele>
        <time>2022-12-13T15:25:43.894Z</time>
      </trkpt>
      <trkpt lat="48.06287" lon="-2.74029">
        <ele>104.399377</ele>
        <time>2022-12-13T15:25:45.871Z</time>
      </trkpt>
      <trkpt lat="48.06283" lon="-2.74012">
        <ele>104.323165</ele>
        <time>2022-12-13T15:25:48.868Z</time>
      </trkpt>
      <trkpt lat="48.0628" lon="-2.73994">
        <ele>104.243688</ele>
        <time>2022-12-13T15:25:51.865Z</time>
      </trkpt>
      <trkpt lat="48.06277" lon="-2.73976">
        <ele>104.162021</ele>
        <time>2022-12-13T15:25:54.880Z</time>
      </trkpt>
      <trkpt lat="48.06274" lon="-2.73956">
        <ele>104.076915</ele>
        <time>2022-12-13T15:25:57.876Z</time>
      </trkpt>
      <trkpt lat="48.0627" lon="-2.73937">
        <ele>103.990046</ele>
        <time>2022-12-13T15:26:00.896Z</time>
      </trkpt>
      <trkpt lat="48.06266" lon="-2.73918">
        <ele>103.904888</ele>
        <time>2022-12-13T15:26:03.899Z</time>
      </trkpt>
      <trkpt lat="48.06263" lon="-2.73904">
        <ele>103.842866</ele>
        <time>2022-12-13T15:26:05.867Z</time>
      </trkpt>
      <trkpt lat="48.06261" lon="-2.73891">
        <ele>103.784035</ele>
        <time>2022-12-13T15:26:07.890Z</time>
      </trkpt>
      <trkpt lat="48.06258" lon="-2.73878">
        <ele>103.72607</ele>
        <time>2022-12-13T15:26:09.870Z</time>
      </trkpt>
      <trkpt lat="48.06254" lon="-2.73859">
        <ele>103.642493</ele>
        <time>2022-12-13T15:26:12.876Z</time>
      </trkpt>
      <trkpt lat="48.06251" lon="-2.73842">
        <ele>103.565074</ele>
        <time>2022-12-13T15:26:15.863Z</time>
      </trkpt>
      <trkpt lat="48.06247" lon="-2.73825">
        <ele>103.595776</ele>
        <time>2022-12-13T15:26:18.871Z</time>
      </trkpt>
      <trkpt lat="48.06244" lon="-2.73809">
        <ele>103.723828</ele>
        <time>2022-12-13T15:26:21.877Z</time>
      </trkpt>
      <trkpt lat="48.0624" lon="-2.73794">
        <ele>103.845255</ele>
        <time>2022-12-13T15:26:24.876Z</time>
      </trkpt>
      <trkpt lat="48.06235" lon="-2.73778">
        <ele>103.982326</ele>
        <time>2022-12-13T15:26:28.873Z</time>
      </trkpt>
      <trkpt lat="48.06229" lon="-2.73764">
        <ele>104.109422</ele>
        <time>2022-12-13T15:26:31.864Z</time>
      </trkpt>
      <trkpt lat="48.06222" lon="-2.7375">
        <ele>104.243554</ele>
        <time>2022-12-13T15:26:34.864Z</time>
      </trkpt>
      <trkpt lat="48.06214" lon="-2.73737">
        <ele>104.377644</ele>
        <time>2022-12-13T15:26:37.867Z</time>
      </trkpt>
      <trkpt lat="48.06204" lon="-2.73723">
        <ele>104.531504</ele>
        <time>2022-12-13T15:26:40.864Z</time>
      </trkpt>
      <trkpt lat="48.06196" lon="-2.73716">
        <ele>104.643183</ele>
        <time>2022-12-13T15:26:42.886Z</time>
      </trkpt>
      <trkpt lat="48.06186" lon="-2.73705">
        <ele>104.778248</ele>
        <time>2022-12-13T15:26:45.871Z</time>
      </trkpt>
      <trkpt lat="48.06176" lon="-2.73693">
        <ele>104.92895</ele>
        <time>2022-12-13T15:26:48.885Z</time>
      </trkpt>
      <trkpt lat="48.06166" lon="-2.7368">
        <ele>105.078281</ele>
        <time>2022-12-13T15:26:51.894Z</time>
      </trkpt>
      <trkpt lat="48.06158" lon="-2.73672">
        <ele>105.189083</ele>
        <time>2022-12-13T15:26:53.887Z</time>
      </trkpt>
      <trkpt lat="48.06148" lon="-2.7366">
        <ele>105.334303</ele>
        <time>2022-12-13T15:26:56.869Z</time>
      </trkpt>
      <trkpt lat="48.06141" lon="-2.73651">
        <ele>105.440136</ele>
        <time>2022-12-13T15:26:58.884Z</time>
      </trkpt>
      <trkpt lat="48.06134" lon="-2.73642">
        <ele>105.547045</ele>
        <time>2022-12-13T15:27:00.882Z</time>
      </trkpt>
      <trkpt lat="48.06127" lon="-2.73633">
        <ele>105.556654</ele>
        <time>2022-12-13T15:27:02.883Z</time>
      </trkpt>
      <trkpt lat="48.0612" lon="-2.73624">
        <ele>105.512613</ele>
        <time>2022-12-13T15:27:04.889Z</time>
      </trkpt>
      <trkpt lat="48.06112" lon="-2.73615">
        <ele>105.466592</ele>
        <time>2022-12-13T15:27:06.884Z</time>
      </trkpt>
      <trkpt lat="48.06104" lon="-2.73605">
        <ele>105.421316</ele>
        <time>2022-12-13T15:27:08.893Z</time>
      </trkpt>
      <trkpt lat="48.06096" lon="-2.73596">
        <ele>105.374549</ele>
        <time>2022-12-13T15:27:10.881Z</time>
      </trkpt>
      <trkpt lat="48.06089" lon="-2.73587">
        <ele>105.331867</ele>
        <time>2022-12-13T15:27:12.884Z</time>
      </trkpt>
      <trkpt lat="48.06079" lon="-2.73575">
        <ele>105.271804</ele>
        <time>2022-12-13T15:27:15.856Z</time>
      </trkpt>
      <trkpt lat="48.06069" lon="-2.73562">
        <ele>105.210329</ele>
        <time>2022-12-13T15:27:18.875Z</time>
      </trkpt>
      <trkpt lat="48.06061" lon="-2.73554">
        <ele>105.16635</ele>
        <time>2022-12-13T15:27:20.860Z</time>
      </trkpt>
      <trkpt lat="48.06054" lon="-2.73545">
        <ele>105.121988</ele>
        <time>2022-12-13T15:27:22.881Z</time>
      </trkpt>
      <trkpt lat="48.06046" lon="-2.73536">
        <ele>105.076902</ele>
        <time>2022-12-13T15:27:24.885Z</time>
      </trkpt>
      <trkpt lat="48.06038" lon="-2.73526">
        <ele>105.029602</ele>
        <time>2022-12-13T15:27:26.873Z</time>
      </trkpt>
      <trkpt lat="48.0603" lon="-2.73518">
        <ele>104.986373</ele>
        <time>2022-12-13T15:27:28.897Z</time>
      </trkpt>
      <trkpt lat="48.06021" lon="-2.73506">
        <ele>104.930505</ele>
        <time>2022-12-13T15:27:31.866Z</time>
      </trkpt>
      <trkpt lat="48.06011" lon="-2.73497">
        <ele>104.877511</ele>
        <time>2022-12-13T15:27:34.880Z</time>
      </trkpt>
      <trkpt lat="48.06002" lon="-2.73489">
        <ele>104.828165</ele>
        <time>2022-12-13T15:27:37.875Z</time>
      </trkpt>
      <trkpt lat="48.05995" lon="-2.73481">
        <ele>104.786397</ele>
        <time>2022-12-13T15:27:39.883Z</time>
      </trkpt>
      <trkpt lat="48.05983" lon="-2.73471">
        <ele>104.787942</ele>
        <time>2022-12-13T15:27:42.883Z</time>
      </trkpt>
      <trkpt lat="48.05975" lon="-2.73464">
        <ele>104.836924</ele>
        <time>2022-12-13T15:27:44.887Z</time>
      </trkpt>
      <trkpt lat="48.05968" lon="-2.73456">
        <ele>104.885186</ele>
        <time>2022-12-13T15:27:46.887Z</time>
      </trkpt>
      <trkpt lat="48.0596" lon="-2.73449">
        <ele>104.933971</ele>
        <time>2022-12-13T15:27:48.891Z</time>
      </trkpt>
      <trkpt lat="48.05952" lon="-2.73442">
        <ele>104.982499</ele>
        <time>2022-12-13T15:27:50.891Z</time>
      </trkpt>
      <trkpt lat="48.05944" lon="-2.73435">
        <ele>105.031938</ele>
        <time>2022-12-13T15:27:52.897Z</time>
      </trkpt>
      <trkpt lat="48.05936" lon="-2.73428">
        <ele>105.083974</ele>
        <time>2022-12-13T15:27:54.891Z</time>
      </trkpt>
      <trkpt lat="48.05928" lon="-2.7342">
        <ele>105.133327</ele>
        <time>2022-12-13T15:27:56.880Z</time>
      </trkpt>
      <trkpt lat="48.05917" lon="-2.7341">
        <ele>105.202379</ele>
        <time>2022-12-13T15:27:59.884Z</time>
      </trkpt>
      <trkpt lat="48.05908" lon="-2.73403">
        <ele>105.253949</ele>
        <time>2022-12-13T15:28:01.886Z</time>
      </trkpt>
      <trkpt lat="48.059" lon="-2.73395">
        <ele>105.305238</ele>
        <time>2022-12-13T15:28:03.884Z</time>
      </trkpt>
      <trkpt lat="48.05892" lon="-2.73387">
        <ele>105.355159</ele>
        <time>2022-12-13T15:28:05.872Z</time>
      </trkpt>
      <trkpt lat="48.05884" lon="-2.73379">
        <ele>105.406166</ele>
        <time>2022-12-13T15:28:07.894Z</time>
      </trkpt>
      <trkpt lat="48.05876" lon="-2.73371">
        <ele>105.459671</ele>
        <time>2022-12-13T15:28:09.870Z</time>
      </trkpt>
      <trkpt lat="48.05867" lon="-2.73365">
        <ele>105.511898</ele>
        <time>2022-12-13T15:28:11.883Z</time>
      </trkpt>
      <trkpt lat="48.05859" lon="-2.73358">
        <ele>105.561438</ele>
        <time>2022-12-13T15:28:13.877Z</time>
      </trkpt>
      <trkpt lat="48.05851" lon="-2.73352">
        <ele>105.609637</ele>
        <time>2022-12-13T15:28:15.867Z</time>
      </trkpt>
      <trkpt lat="48.0584" lon="-2.73344">
        <ele>105.672581</ele>
        <time>2022-12-13T15:28:18.886Z</time>
      </trkpt>
      <trkpt lat="48.05828" lon="-2.73336">
        <ele>105.637613</ele>
        <time>2022-12-13T15:28:21.891Z</time>
      </trkpt>
      <trkpt lat="48.0582" lon="-2.73328">
        <ele>105.524614</ele>
        <time>2022-12-13T15:28:23.888Z</time>
      </trkpt>
      <trkpt lat="48.05812" lon="-2.73322">
        <ele>105.415843</ele>
        <time>2022-12-13T15:28:25.866Z</time>
      </trkpt>
      <trkpt lat="48.058" lon="-2.73316">
        <ele>105.266582</ele>
        <time>2022-12-13T15:28:28.889Z</time>
      </trkpt>
      <trkpt lat="48.05787" lon="-2.73314">
        <ele>105.1114</ele>
        <time>2022-12-13T15:28:31.881Z</time>
      </trkpt>
      <trkpt lat="48.05778" lon="-2.73316">
        <ele>105.002307</ele>
        <time>2022-12-13T15:28:33.879Z</time>
      </trkpt>
      <trkpt lat="48.05769" lon="-2.73318">
        <ele>104.887851</ele>
        <time>2022-12-13T15:28:35.864Z</time>
      </trkpt>
      <trkpt lat="48.0576" lon="-2.73323">
        <ele>104.777721</ele>
        <time>2022-12-13T15:28:37.876Z</time>
      </trkpt>
      <trkpt lat="48.05751" lon="-2.73327">
        <ele>104.662228</ele>
        <time>2022-12-13T15:28:39.862Z</time>
      </trkpt>
      <trkpt lat="48.05743" lon="-2.73333">
        <ele>104.553158</ele>
        <time>2022-12-13T15:28:41.880Z</time>
      </trkpt>
      <trkpt lat="48.05731" lon="-2.73342">
        <ele>104.397891</ele>
        <time>2022-12-13T15:28:44.896Z</time>
      </trkpt>
      <trkpt lat="48.0572" lon="-2.73349">
        <ele>104.255428</ele>
        <time>2022-12-13T15:28:47.869Z</time>
      </trkpt>
      <trkpt lat="48.05711" lon="-2.73355">
        <ele>104.137866</ele>
        <time>2022-12-13T15:28:49.860Z</time>
      </trkpt>
      <trkpt lat="48.05702" lon="-2.73362">
        <ele>104.013896</ele>
        <time>2022-12-13T15:28:52.883Z</time>
      </trkpt>
      <trkpt lat="48.05691" lon="-2.73368">
        <ele>103.881409</ele>
        <time>2022-12-13T15:28:55.866Z</time>
      </trkpt>
      <trkpt lat="48.0568" lon="-2.73374">
        <ele>103.733022</ele>
        <time>2022-12-13T15:28:58.875Z</time>
      </trkpt>
      <trkpt lat="48.05668" lon="-2.7338">
        <ele>103.582126</ele>
        <time>2022-12-13T15:29:01.878Z</time>
      </trkpt>
      <trkpt lat="48.05655" lon="-2.73385">
        <ele>103.368958</ele>
        <time>2022-12-13T15:29:04.889Z</time>
      </trkpt>
      <trkpt lat="48.05646" lon="-2.73388">
        <ele>103.196549</ele>
        <time>2022-12-13T15:29:06.869Z</time>
      </trkpt>
      <trkpt lat="48.05633" lon="-2.73392">
        <ele>102.967481</ele>
        <time>2022-12-13T15:29:09.878Z</time>
      </trkpt>
      <trkpt lat="48.05624" lon="-2.73394">
        <ele>102.807781</ele>
        <time>2022-12-13T15:29:11.876Z</time>
      </trkpt>
      <trkpt lat="48.05612" lon="-2.73396">
        <ele>102.592729</ele>
        <time>2022-12-13T15:29:14.886Z</time>
      </trkpt>
      <trkpt lat="48.05599" lon="-2.73398">
        <ele>102.365095</ele>
        <time>2022-12-13T15:29:17.884Z</time>
      </trkpt>
      <trkpt lat="48.05587" lon="-2.73399">
        <ele>102.155985</ele>
        <time>2022-12-13T15:29:20.887Z</time>
      </trkpt>
      <trkpt lat="48.05577" lon="-2.734">
        <ele>101.985721</ele>
        <time>2022-12-13T15:29:23.862Z</time>
      </trkpt>
      <trkpt lat="48.05566" lon="-2.73401">
        <ele>101.790758</ele>
        <time>2022-12-13T15:29:26.875Z</time>
      </trkpt>
      <trkpt lat="48.05554" lon="-2.73404">
        <ele>101.570715</ele>
        <time>2022-12-13T15:29:29.865Z</time>
      </trkpt>
      <trkpt lat="48.0554" lon="-2.73407">
        <ele>101.32432</ele>
        <time>2022-12-13T15:29:32.893Z</time>
      </trkpt>
      <trkpt lat="48.05528" lon="-2.73411">
        <ele>101.110222</ele>
        <time>2022-12-13T15:29:35.873Z</time>
      </trkpt>
      <trkpt lat="48.05519" lon="-2.73414">
        <ele>100.951981</ele>
        <time>2022-12-13T15:29:37.867Z</time>
      </trkpt>
      <trkpt lat="48.05509" lon="-2.73419">
        <ele>100.772105</ele>
        <time>2022-12-13T15:29:39.891Z</time>
      </trkpt>
      <trkpt lat="48.055" lon="-2.73424">
        <ele>100.595984</ele>
        <time>2022-12-13T15:29:41.889Z</time>
      </trkpt>
      <trkpt lat="48.0549" lon="-2.73428">
        <ele>100.416194</ele>
        <time>2022-12-13T15:29:43.888Z</time>
      </trkpt>
      <trkpt lat="48.05481" lon="-2.73433">
        <ele>100.583137</ele>
        <time>2022-12-13T15:29:45.869Z</time>
      </trkpt>
      <trkpt lat="48.05472" lon="-2.73438">
        <ele>100.754256</ele>
        <time>2022-12-13T15:29:47.890Z</time>
      </trkpt>
      <trkpt lat="48.05461" lon="-2.73444">
        <ele>100.958382</ele>
        <time>2022-12-13T15:29:50.884Z</time>
      </trkpt>
      <trkpt lat="48.0545" lon="-2.73449">
        <ele>101.168002</ele>
        <time>2022-12-13T15:29:53.881Z</time>
      </trkpt>
      <trkpt lat="48.05437" lon="-2.73455">
        <ele>101.400564</ele>
        <time>2022-12-13T15:29:56.895Z</time>
      </trkpt>
      <trkpt lat="48.05425" lon="-2.73461">
        <ele>101.627311</ele>
        <time>2022-12-13T15:29:59.885Z</time>
      </trkpt>
      <trkpt lat="48.05416" lon="-2.73465">
        <ele>101.786264</ele>
        <time>2022-12-13T15:30:01.866Z</time>
      </trkpt>
      <trkpt lat="48.05403" lon="-2.73471">
        <ele>102.030884</ele>
        <time>2022-12-13T15:30:04.877Z</time>
      </trkpt>
      <trkpt lat="48.05393" lon="-2.73475">
        <ele>102.20838</ele>
        <time>2022-12-13T15:30:06.884Z</time>
      </trkpt>
      <trkpt lat="48.05381" lon="-2.73478">
        <ele>102.429208</ele>
        <time>2022-12-13T15:30:09.876Z</time>
      </trkpt>
      <trkpt lat="48.05369" lon="-2.7348">
        <ele>102.644467</ele>
        <time>2022-12-13T15:30:12.881Z</time>
      </trkpt>
      <trkpt lat="48.05357" lon="-2.73482">
        <ele>102.84983</ele>
        <time>2022-12-13T15:30:15.872Z</time>
      </trkpt>
      <trkpt lat="48.05346" lon="-2.73485">
        <ele>103.047675</ele>
        <time>2022-12-13T15:30:18.897Z</time>
      </trkpt>
      <trkpt lat="48.05334" lon="-2.73487">
        <ele>103.268682</ele>
        <time>2022-12-13T15:30:21.864Z</time>
      </trkpt>
      <trkpt lat="48.05322" lon="-2.73489">
        <ele>103.479422</ele>
        <time>2022-12-13T15:30:24.865Z</time>
      </trkpt>
      <trkpt lat="48.05312" lon="-2.73489">
        <ele>103.639683</ele>
        <time>2022-12-13T15:30:26.882Z</time>
      </trkpt>
      <trkpt lat="48.05302" lon="-2.73488">
        <ele>103.80777</ele>
        <time>2022-12-13T15:30:28.888Z</time>
      </trkpt>
      <trkpt lat="48.05292" lon="-2.73485">
        <ele>103.967244</ele>
        <time>2022-12-13T15:30:30.890Z</time>
      </trkpt>
      <trkpt lat="48.05282" lon="-2.7348">
        <ele>104.134883</ele>
        <time>2022-12-13T15:30:32.884Z</time>
      </trkpt>
      <trkpt lat="48.05272" lon="-2.73474">
        <ele>104.314479</ele>
        <time>2022-12-13T15:30:34.886Z</time>
      </trkpt>
      <trkpt lat="48.05263" lon="-2.73468">
        <ele>104.475854</ele>
        <time>2022-12-13T15:30:36.876Z</time>
      </trkpt>
      <trkpt lat="48.05253" lon="-2.73457">
        <ele>104.679881</ele>
        <time>2022-12-13T15:30:39.879Z</time>
      </trkpt>
      <trkpt lat="48.05244" lon="-2.73448">
        <ele>104.853072</ele>
        <time>2022-12-13T15:30:42.893Z</time>
      </trkpt>
      <trkpt lat="48.05234" lon="-2.73436">
        <ele>105.056563</ele>
        <time>2022-12-13T15:30:45.867Z</time>
      </trkpt>
      <trkpt lat="48.05227" lon="-2.73426">
        <ele>105.208386</ele>
        <time>2022-12-13T15:30:47.883Z</time>
      </trkpt>
      <trkpt lat="48.05221" lon="-2.73416">
        <ele>105.364397</ele>
        <time>2022-12-13T15:30:49.864Z</time>
      </trkpt>
      <trkpt lat="48.05213" lon="-2.73405">
        <ele>105.53386</ele>
        <time>2022-12-13T15:30:51.890Z</time>
      </trkpt>
      <trkpt lat="48.05206" lon="-2.73395">
        <ele>105.685914</ele>
        <time>2022-12-13T15:30:53.894Z</time>
      </trkpt>
      <trkpt lat="48.05197" lon="-2.73379">
        <ele>105.907425</ele>
        <time>2022-12-13T15:30:56.895Z</time>
      </trkpt>
      <trkpt lat="48.05191" lon="-2.73369">
        <ele>106.064328</ele>
        <time>2022-12-13T15:30:58.894Z</time>
      </trkpt>
      <trkpt lat="48.05185" lon="-2.73358">
        <ele>106.212377</ele>
        <time>2022-12-13T15:31:00.887Z</time>
      </trkpt>
      <trkpt lat="48.05179" lon="-2.73348">
        <ele>106.360002</ele>
        <time>2022-12-13T15:31:02.890Z</time>
      </trkpt>
      <trkpt lat="48.05173" lon="-2.73338">
        <ele>106.484292</ele>
        <time>2022-12-13T15:31:04.884Z</time>
      </trkpt>
      <trkpt lat="48.05166" lon="-2.73327">
        <ele>106.497784</ele>
        <time>2022-12-13T15:31:06.884Z</time>
      </trkpt>
      <trkpt lat="48.05158" lon="-2.7331">
        <ele>106.516538</ele>
        <time>2022-12-13T15:31:09.894Z</time>
      </trkpt>
      <trkpt lat="48.05149" lon="-2.73294">
        <ele>106.536054</ele>
        <time>2022-12-13T15:31:12.895Z</time>
      </trkpt>
      <trkpt lat="48.05144" lon="-2.73283">
        <ele>106.549033</ele>
        <time>2022-12-13T15:31:14.894Z</time>
      </trkpt>
      <trkpt lat="48.05137" lon="-2.73271">
        <ele>106.563537</ele>
        <time>2022-12-13T15:31:16.887Z</time>
      </trkpt>
      <trkpt lat="48.0513" lon="-2.7326">
        <ele>106.577377</ele>
        <time>2022-12-13T15:31:18.890Z</time>
      </trkpt>
      <trkpt lat="48.05124" lon="-2.73248">
        <ele>106.59163</ele>
        <time>2022-12-13T15:31:20.889Z</time>
      </trkpt>
      <trkpt lat="48.05118" lon="-2.73236">
        <ele>106.605251</ele>
        <time>2022-12-13T15:31:22.888Z</time>
      </trkpt>
      <trkpt lat="48.05112" lon="-2.73224">
        <ele>106.6188</ele>
        <time>2022-12-13T15:31:24.886Z</time>
      </trkpt>
      <trkpt lat="48.05106" lon="-2.73213">
        <ele>106.632579</ele>
        <time>2022-12-13T15:31:26.871Z</time>
      </trkpt>
      <trkpt lat="48.05099" lon="-2.73202">
        <ele>106.646232</ele>
        <time>2022-12-13T15:31:28.882Z</time>
      </trkpt>
      <trkpt lat="48.05093" lon="-2.7319">
        <ele>106.659613</ele>
        <time>2022-12-13T15:31:30.874Z</time>
      </trkpt>
      <trkpt lat="48.05087" lon="-2.73179">
        <ele>106.672713</ele>
        <time>2022-12-13T15:31:32.869Z</time>
      </trkpt>
      <trkpt lat="48.05081" lon="-2.73167">
        <ele>106.686607</ele>
        <time>2022-12-13T15:31:34.893Z</time>
      </trkpt>
      <trkpt lat="48.05075" lon="-2.73156">
        <ele>106.699621</ele>
        <time>2022-12-13T15:31:36.884Z</time>
      </trkpt>
      <trkpt lat="48.05069" lon="-2.73146">
        <ele>106.712517</ele>
        <time>2022-12-13T15:31:38.895Z</time>
      </trkpt>
      <trkpt lat="48.05063" lon="-2.73135">
        <ele>106.725012</ele>
        <time>2022-12-13T15:31:40.889Z</time>
      </trkpt>
      <trkpt lat="48.05058" lon="-2.73124">
        <ele>106.745779</ele>
        <time>2022-12-13T15:31:42.890Z</time>
      </trkpt>
      <trkpt lat="48.05049" lon="-2.73109">
        <ele>106.785816</ele>
        <time>2022-12-13T15:31:45.872Z</time>
      </trkpt>
      <trkpt lat="48.05043" lon="-2.73099">
        <ele>106.813791</ele>
        <time>2022-12-13T15:31:47.877Z</time>
      </trkpt>
      <trkpt lat="48.05037" lon="-2.73087">
        <ele>106.842127</ele>
        <time>2022-12-13T15:31:49.890Z</time>
      </trkpt>
      <trkpt lat="48.05031" lon="-2.73076">
        <ele>106.871194</ele>
        <time>2022-12-13T15:31:51.880Z</time>
      </trkpt>
      <trkpt lat="48.05025" lon="-2.73065">
        <ele>106.899803</ele>
        <time>2022-12-13T15:31:53.896Z</time>
      </trkpt>
      <trkpt lat="48.05018" lon="-2.73054">
        <ele>106.929813</ele>
        <time>2022-12-13T15:31:55.864Z</time>
      </trkpt>
      <trkpt lat="48.05012" lon="-2.73041">
        <ele>106.960384</ele>
        <time>2022-12-13T15:31:57.895Z</time>
      </trkpt>
      <trkpt lat="48.05006" lon="-2.73031">
        <ele>106.987616</ele>
        <time>2022-12-13T15:31:59.882Z</time>
      </trkpt>
      <trkpt lat="48.04998" lon="-2.73016">
        <ele>107.026548</ele>
        <time>2022-12-13T15:32:02.869Z</time>
      </trkpt>
      <trkpt lat="48.04989" lon="-2.73001">
        <ele>107.065515</ele>
        <time>2022-12-13T15:32:05.871Z</time>
      </trkpt>
      <trkpt lat="48.04984" lon="-2.7299">
        <ele>107.093754</ele>
        <time>2022-12-13T15:32:07.888Z</time>
      </trkpt>
      <trkpt lat="48.04977" lon="-2.72979">
        <ele>107.122586</ele>
        <time>2022-12-13T15:32:09.893Z</time>
      </trkpt>
      <trkpt lat="48.04971" lon="-2.72967">
        <ele>107.152532</ele>
        <time>2022-12-13T15:32:11.893Z</time>
      </trkpt>
      <trkpt lat="48.04965" lon="-2.72955">
        <ele>107.18279</ele>
        <time>2022-12-13T15:32:13.896Z</time>
      </trkpt>
      <trkpt lat="48.04959" lon="-2.72943">
        <ele>107.212025</ele>
        <time>2022-12-13T15:32:15.868Z</time>
      </trkpt>
      <trkpt lat="48.04952" lon="-2.72932">
        <ele>107.241739</ele>
        <time>2022-12-13T15:32:17.886Z</time>
      </trkpt>
      <trkpt lat="48.04946" lon="-2.72921">
        <ele>107.262673</ele>
        <time>2022-12-13T15:32:19.883Z</time>
      </trkpt>
      <trkpt lat="48.04938" lon="-2.72907">
        <ele>107.193481</ele>
        <time>2022-12-13T15:32:22.888Z</time>
      </trkpt>
      <trkpt lat="48.0493" lon="-2.72893">
        <ele>107.125994</ele>
        <time>2022-12-13T15:32:25.863Z</time>
      </trkpt>
      <trkpt lat="48.04921" lon="-2.72878">
        <ele>107.052104</ele>
        <time>2022-12-13T15:32:28.890Z</time>
      </trkpt>
      <trkpt lat="48.04914" lon="-2.72862">
        <ele>106.983793</ele>
        <time>2022-12-13T15:32:31.892Z</time>
      </trkpt>
      <trkpt lat="48.04909" lon="-2.72851">
        <ele>106.933457</ele>
        <time>2022-12-13T15:32:33.886Z</time>
      </trkpt>
      <trkpt lat="48.04903" lon="-2.72839">
        <ele>106.878739</ele>
        <time>2022-12-13T15:32:35.866Z</time>
      </trkpt>
      <trkpt lat="48.04894" lon="-2.72824">
        <ele>106.805255</ele>
        <time>2022-12-13T15:32:38.881Z</time>
      </trkpt>
      <trkpt lat="48.04886" lon="-2.7281">
        <ele>106.736792</ele>
        <time>2022-12-13T15:32:41.893Z</time>
      </trkpt>
      <trkpt lat="48.04879" lon="-2.72797">
        <ele>106.675079</ele>
        <time>2022-12-13T15:32:44.894Z</time>
      </trkpt>
      <trkpt lat="48.04873" lon="-2.72782">
        <ele>106.612423</ele>
        <time>2022-12-13T15:32:47.868Z</time>
      </trkpt>
      <trkpt lat="48.04867" lon="-2.72769">
        <ele>106.554082</ele>
        <time>2022-12-13T15:32:50.889Z</time>
      </trkpt>
      <trkpt lat="48.04859" lon="-2.72761">
        <ele>106.499808</ele>
        <time>2022-12-13T15:32:53.870Z</time>
      </trkpt>
      <trkpt lat="48.04853" lon="-2.7275">
        <ele>106.447684</ele>
        <time>2022-12-13T15:32:56.864Z</time>
      </trkpt>
      <trkpt lat="48.04848" lon="-2.72737">
        <ele>106.391977</ele>
        <time>2022-12-13T15:33:00.890Z</time>
      </trkpt>
      <trkpt lat="48.04842" lon="-2.72727">
        <ele>106.342413</ele>
        <time>2022-12-13T15:33:06.862Z</time>
      </trkpt>
      <trkpt lat="48.04833" lon="-2.72717">
        <ele>106.284819</ele>
        <time>2022-12-13T15:33:12.880Z</time>
      </trkpt>
      <trkpt lat="48.04827" lon="-2.72705">
        <ele>106.263041</ele>
        <time>2022-12-13T15:33:15.860Z</time>
      </trkpt>
      <trkpt lat="48.04819" lon="-2.7269">
        <ele>106.240255</ele>
        <time>2022-12-13T15:33:18.879Z</time>
      </trkpt>
      <trkpt lat="48.04813" lon="-2.72679">
        <ele>106.222349</ele>
        <time>2022-12-13T15:33:20.887Z</time>
      </trkpt>
      <trkpt lat="48.04807" lon="-2.72668">
        <ele>106.205604</ele>
        <time>2022-12-13T15:33:22.891Z</time>
      </trkpt>
      <trkpt lat="48.048" lon="-2.72653">
        <ele>106.182586</ele>
        <time>2022-12-13T15:33:25.868Z</time>
      </trkpt>
      <trkpt lat="48.04793" lon="-2.7264">
        <ele>106.162543</ele>
        <time>2022-12-13T15:33:28.883Z</time>
      </trkpt>
      <trkpt lat="48.04786" lon="-2.72627">
        <ele>106.142687</ele>
        <time>2022-12-13T15:33:31.880Z</time>
      </trkpt>
      <trkpt lat="48.04779" lon="-2.72615">
        <ele>106.123265</ele>
        <time>2022-12-13T15:33:34.878Z</time>
      </trkpt>
      <trkpt lat="48.04772" lon="-2.72602">
        <ele>106.103101</ele>
        <time>2022-12-13T15:33:37.866Z</time>
      </trkpt>
      <trkpt lat="48.04765" lon="-2.72588">
        <ele>106.082625</ele>
        <time>2022-12-13T15:33:40.879Z</time>
      </trkpt>
      <trkpt lat="48.04757" lon="-2.72574">
        <ele>106.059826</ele>
        <time>2022-12-13T15:33:43.892Z</time>
      </trkpt>
      <trkpt lat="48.04749" lon="-2.72559">
        <ele>106.036714</ele>
        <time>2022-12-13T15:33:46.884Z</time>
      </trkpt>
      <trkpt lat="48.04741" lon="-2.72545">
        <ele>106.01408</ele>
        <time>2022-12-13T15:33:49.879Z</time>
      </trkpt>
      <trkpt lat="48.04733" lon="-2.7253">
        <ele>105.991387</ele>
        <time>2022-12-13T15:33:52.880Z</time>
      </trkpt>
      <trkpt lat="48.04725" lon="-2.72516">
        <ele>105.967974</ele>
        <time>2022-12-13T15:33:55.870Z</time>
      </trkpt>
      <trkpt lat="48.04717" lon="-2.725">
        <ele>105.937969</ele>
        <time>2022-12-13T15:33:58.885Z</time>
      </trkpt>
      <trkpt lat="48.04709" lon="-2.72485">
        <ele>105.900852</ele>
        <time>2022-12-13T15:34:01.892Z</time>
      </trkpt>
      <trkpt lat="48.04701" lon="-2.7247">
        <ele>105.861313</ele>
        <time>2022-12-13T15:34:04.890Z</time>
      </trkpt>
      <trkpt lat="48.04692" lon="-2.72453">
        <ele>105.819885</ele>
        <time>2022-12-13T15:34:07.891Z</time>
      </trkpt>
      <trkpt lat="48.04684" lon="-2.72439">
        <ele>105.781147</ele>
        <time>2022-12-13T15:34:10.895Z</time>
      </trkpt>
      <trkpt lat="48.04677" lon="-2.72423">
        <ele>105.743625</ele>
        <time>2022-12-13T15:34:13.900Z</time>
      </trkpt>
      <trkpt lat="48.04668" lon="-2.72408">
        <ele>105.704523</ele>
        <time>2022-12-13T15:34:16.874Z</time>
      </trkpt>
      <trkpt lat="48.04663" lon="-2.72397">
        <ele>105.676955</ele>
        <time>2022-12-13T15:34:18.896Z</time>
      </trkpt>
      <trkpt lat="48.04656" lon="-2.72386">
        <ele>105.649307</ele>
        <time>2022-12-13T15:34:20.892Z</time>
      </trkpt>
      <trkpt lat="48.04649" lon="-2.72372">
        <ele>105.613085</ele>
        <time>2022-12-13T15:34:23.897Z</time>
      </trkpt>
      <trkpt lat="48.04641" lon="-2.72358">
        <ele>105.577053</ele>
        <time>2022-12-13T15:34:26.874Z</time>
      </trkpt>
      <trkpt lat="48.04633" lon="-2.72345">
        <ele>105.541669</ele>
        <time>2022-12-13T15:34:29.887Z</time>
      </trkpt>
      <trkpt lat="48.04627" lon="-2.72332">
        <ele>105.509244</ele>
        <time>2022-12-13T15:34:32.897Z</time>
      </trkpt>
      <trkpt lat="48.04619" lon="-2.72316">
        <ele>105.470324</ele>
        <time>2022-12-13T15:34:35.866Z</time>
      </trkpt>
      <trkpt lat="48.04612" lon="-2.72305">
        <ele>105.441145</ele>
        <time>2022-12-13T15:34:37.886Z</time>
      </trkpt>
      <trkpt lat="48.04606" lon="-2.72295">
        <ele>105.419433</ele>
        <time>2022-12-13T15:34:39.878Z</time>
      </trkpt>
      <trkpt lat="48.046" lon="-2.72284">
        <ele>105.419762</ele>
        <time>2022-12-13T15:34:41.893Z</time>
      </trkpt>
      <trkpt lat="48.04592" lon="-2.7227">
        <ele>105.420232</ele>
        <time>2022-12-13T15:34:44.890Z</time>
      </trkpt>
      <trkpt lat="48.04585" lon="-2.72255">
        <ele>105.420662</ele>
        <time>2022-12-13T15:34:47.860Z</time>
      </trkpt>
      <trkpt lat="48.04578" lon="-2.72241">
        <ele>105.421089</ele>
        <time>2022-12-13T15:34:50.891Z</time>
      </trkpt>
      <trkpt lat="48.0457" lon="-2.72227">
        <ele>105.421529</ele>
        <time>2022-12-13T15:34:53.874Z</time>
      </trkpt>
      <trkpt lat="48.04562" lon="-2.72215">
        <ele>105.421941</ele>
        <time>2022-12-13T15:34:56.890Z</time>
      </trkpt>
      <trkpt lat="48.04554" lon="-2.72202">
        <ele>105.422351</ele>
        <time>2022-12-13T15:34:59.868Z</time>
      </trkpt>
      <trkpt lat="48.04547" lon="-2.72188">
        <ele>105.422798</ele>
        <time>2022-12-13T15:35:02.893Z</time>
      </trkpt>
      <trkpt lat="48.04539" lon="-2.72174">
        <ele>105.423251</ele>
        <time>2022-12-13T15:35:05.863Z</time>
      </trkpt>
      <trkpt lat="48.04531" lon="-2.72159">
        <ele>105.423701</ele>
        <time>2022-12-13T15:35:08.884Z</time>
      </trkpt>
      <trkpt lat="48.04522" lon="-2.72144">
        <ele>105.424171</ele>
        <time>2022-12-13T15:35:11.892Z</time>
      </trkpt>
      <trkpt lat="48.04514" lon="-2.7213">
        <ele>105.424632</ele>
        <time>2022-12-13T15:35:14.885Z</time>
      </trkpt>
      <trkpt lat="48.04508" lon="-2.7212">
        <ele>105.424959</ele>
        <time>2022-12-13T15:35:16.868Z</time>
      </trkpt>
      <trkpt lat="48.045" lon="-2.72104">
        <ele>105.42543</ele>
        <time>2022-12-13T15:35:19.873Z</time>
      </trkpt>
      <trkpt lat="48.04492" lon="-2.72089">
        <ele>105.415562</ele>
        <time>2022-12-13T15:35:22.888Z</time>
      </trkpt>
      <trkpt lat="48.04485" lon="-2.72076">
        <ele>105.229799</ele>
        <time>2022-12-13T15:35:25.863Z</time>
      </trkpt>
      <trkpt lat="48.04479" lon="-2.72063">
        <ele>105.044198</ele>
        <time>2022-12-13T15:35:28.885Z</time>
      </trkpt>
      <trkpt lat="48.04471" lon="-2.72049">
        <ele>104.841888</ele>
        <time>2022-12-13T15:35:31.888Z</time>
      </trkpt>
      <trkpt lat="48.04463" lon="-2.72034">
        <ele>104.628055</ele>
        <time>2022-12-13T15:35:34.892Z</time>
      </trkpt>
      <trkpt lat="48.04455" lon="-2.72019">
        <ele>104.40756</ele>
        <time>2022-12-13T15:35:37.867Z</time>
      </trkpt>
      <trkpt lat="48.04447" lon="-2.72003">
        <ele>104.180851</ele>
        <time>2022-12-13T15:35:40.896Z</time>
      </trkpt>
      <trkpt lat="48.04439" lon="-2.71988">
        <ele>103.960796</ele>
        <time>2022-12-13T15:35:43.899Z</time>
      </trkpt>
      <trkpt lat="48.04431" lon="-2.71974">
        <ele>103.764849</ele>
        <time>2022-12-13T15:35:46.881Z</time>
      </trkpt>
      <trkpt lat="48.04424" lon="-2.7196">
        <ele>103.564872</ele>
        <time>2022-12-13T15:35:49.897Z</time>
      </trkpt>
      <trkpt lat="48.04416" lon="-2.71945">
        <ele>103.352079</ele>
        <time>2022-12-13T15:35:52.883Z</time>
      </trkpt>
      <trkpt lat="48.04408" lon="-2.71931">
        <ele>103.135941</ele>
        <time>2022-12-13T15:35:55.863Z</time>
      </trkpt>
      <trkpt lat="48.044" lon="-2.71917">
        <ele>102.939205</ele>
        <time>2022-12-13T15:35:58.896Z</time>
      </trkpt>
      <trkpt lat="48.04391" lon="-2.71903">
        <ele>102.719518</ele>
        <time>2022-12-13T15:36:01.867Z</time>
      </trkpt>
      <trkpt lat="48.04386" lon="-2.71892">
        <ele>102.564624</ele>
        <time>2022-12-13T15:36:03.884Z</time>
      </trkpt>
      <trkpt lat="48.0438" lon="-2.7188">
        <ele>102.406214</ele>
        <time>2022-12-13T15:36:05.864Z</time>
      </trkpt>
      <trkpt lat="48.04374" lon="-2.7187">
        <ele>102.537535</ele>
        <time>2022-12-13T15:36:07.893Z</time>
      </trkpt>
      <trkpt lat="48.04367" lon="-2.71859">
        <ele>102.680219</ele>
        <time>2022-12-13T15:36:09.893Z</time>
      </trkpt>
      <trkpt lat="48.04361" lon="-2.71847">
        <ele>102.825041</ele>
        <time>2022-12-13T15:36:11.890Z</time>
      </trkpt>
      <trkpt lat="48.04355" lon="-2.71836">
        <ele>102.964738</ele>
        <time>2022-12-13T15:36:13.895Z</time>
      </trkpt>
      <trkpt lat="48.04349" lon="-2.71825">
        <ele>103.110568</ele>
        <time>2022-12-13T15:36:15.871Z</time>
      </trkpt>
      <trkpt lat="48.04343" lon="-2.71814">
        <ele>103.245655</ele>
        <time>2022-12-13T15:36:17.881Z</time>
      </trkpt>
      <trkpt lat="48.04335" lon="-2.71799">
        <ele>103.434942</ele>
        <time>2022-12-13T15:36:20.897Z</time>
      </trkpt>
      <trkpt lat="48.04327" lon="-2.71785">
        <ele>103.610802</ele>
        <time>2022-12-13T15:36:23.877Z</time>
      </trkpt>
      <trkpt lat="48.0432" lon="-2.71771">
        <ele>103.781039</ele>
        <time>2022-12-13T15:36:26.892Z</time>
      </trkpt>
      <trkpt lat="48.04312" lon="-2.71756">
        <ele>103.966633</ele>
        <time>2022-12-13T15:36:29.891Z</time>
      </trkpt>
      <trkpt lat="48.04304" lon="-2.71742">
        <ele>104.150147</ele>
        <time>2022-12-13T15:36:32.873Z</time>
      </trkpt>
      <trkpt lat="48.04296" lon="-2.71728">
        <ele>104.32693</ele>
        <time>2022-12-13T15:36:35.868Z</time>
      </trkpt>
      <trkpt lat="48.0429" lon="-2.71717">
        <ele>104.469129</ele>
        <time>2022-12-13T15:36:37.889Z</time>
      </trkpt>
      <trkpt lat="48.04283" lon="-2.71706">
        <ele>104.609862</ele>
        <time>2022-12-13T15:36:39.886Z</time>
      </trkpt>
      <trkpt lat="48.04278" lon="-2.71696">
        <ele>104.741758</ele>
        <time>2022-12-13T15:36:41.886Z</time>
      </trkpt>
      <trkpt lat="48.04271" lon="-2.71685">
        <ele>104.888443</ele>
        <time>2022-12-13T15:36:43.894Z</time>
      </trkpt>
      <trkpt lat="48.04263" lon="-2.71669">
        <ele>105.028919</ele>
        <time>2022-12-13T15:36:46.879Z</time>
      </trkpt>
      <trkpt lat="48.04258" lon="-2.71658">
        <ele>105.041742</ele>
        <time>2022-12-13T15:36:48.863Z</time>
      </trkpt>
      <trkpt lat="48.04252" lon="-2.71644">
        <ele>105.05777</ele>
        <time>2022-12-13T15:36:51.867Z</time>
      </trkpt>
      <trkpt lat="48.04245" lon="-2.71631">
        <ele>105.073213</ele>
        <time>2022-12-13T15:36:53.891Z</time>
      </trkpt>
      <trkpt lat="48.04236" lon="-2.71615">
        <ele>105.092798</ele>
        <time>2022-12-13T15:36:56.894Z</time>
      </trkpt>
      <trkpt lat="48.04229" lon="-2.71604">
        <ele>105.107052</ele>
        <time>2022-12-13T15:36:58.898Z</time>
      </trkpt>
      <trkpt lat="48.04221" lon="-2.71589">
        <ele>105.12526</ele>
        <time>2022-12-13T15:37:01.876Z</time>
      </trkpt>
      <trkpt lat="48.04214" lon="-2.71574">
        <ele>105.142144</ele>
        <time>2022-12-13T15:37:04.879Z</time>
      </trkpt>
      <trkpt lat="48.04206" lon="-2.71559">
        <ele>105.160572</ele>
        <time>2022-12-13T15:37:07.870Z</time>
      </trkpt>
      <trkpt lat="48.042" lon="-2.71548">
        <ele>105.173939</ele>
        <time>2022-12-13T15:37:09.883Z</time>
      </trkpt>
      <trkpt lat="48.04194" lon="-2.71538">
        <ele>105.186801</ele>
        <time>2022-12-13T15:37:11.884Z</time>
      </trkpt>
      <trkpt lat="48.04188" lon="-2.71527">
        <ele>105.199774</ele>
        <time>2022-12-13T15:37:13.898Z</time>
      </trkpt>
      <trkpt lat="48.04179" lon="-2.71511">
        <ele>105.219173</ele>
        <time>2022-12-13T15:37:16.882Z</time>
      </trkpt>
      <trkpt lat="48.04173" lon="-2.71498">
        <ele>105.234726</ele>
        <time>2022-12-13T15:37:19.876Z</time>
      </trkpt>
      <trkpt lat="48.04166" lon="-2.71487">
        <ele>105.24793</ele>
        <time>2022-12-13T15:37:21.890Z</time>
      </trkpt>
      <trkpt lat="48.04157" lon="-2.71473">
        <ele>105.26656</ele>
        <time>2022-12-13T15:37:24.872Z</time>
      </trkpt>
      <trkpt lat="48.04151" lon="-2.71464">
        <ele>105.260267</ele>
        <time>2022-12-13T15:37:26.876Z</time>
      </trkpt>
      <trkpt lat="48.04141" lon="-2.71451">
        <ele>105.137667</ele>
        <time>2022-12-13T15:37:29.889Z</time>
      </trkpt>
      <trkpt lat="48.04132" lon="-2.71441">
        <ele>105.020904</ele>
        <time>2022-12-13T15:37:32.885Z</time>
      </trkpt>
      <trkpt lat="48.04122" lon="-2.71431">
        <ele>104.904482</ele>
        <time>2022-12-13T15:37:35.864Z</time>
      </trkpt>
      <trkpt lat="48.04112" lon="-2.71419">
        <ele>104.777872</ele>
        <time>2022-12-13T15:37:38.894Z</time>
      </trkpt>
      <trkpt lat="48.04104" lon="-2.71412">
        <ele>104.685902</ele>
        <time>2022-12-13T15:37:40.900Z</time>
      </trkpt>
      <trkpt lat="48.04095" lon="-2.71404">
        <ele>104.584607</ele>
        <time>2022-12-13T15:37:42.888Z</time>
      </trkpt>
      <trkpt lat="48.04087" lon="-2.71396">
        <ele>104.492629</ele>
        <time>2022-12-13T15:37:44.881Z</time>
      </trkpt>
      <trkpt lat="48.04076" lon="-2.71386">
        <ele>104.358175</ele>
        <time>2022-12-13T15:37:47.892Z</time>
      </trkpt>
      <trkpt lat="48.04067" lon="-2.71378">
        <ele>104.264335</ele>
        <time>2022-12-13T15:37:49.898Z</time>
      </trkpt>
      <trkpt lat="48.04059" lon="-2.71371">
        <ele>104.166447</ele>
        <time>2022-12-13T15:37:51.895Z</time>
      </trkpt>
      <trkpt lat="48.04051" lon="-2.71363">
        <ele>104.077118</ele>
        <time>2022-12-13T15:37:53.891Z</time>
      </trkpt>
      <trkpt lat="48.04044" lon="-2.71355">
        <ele>103.981665</ele>
        <time>2022-12-13T15:37:55.864Z</time>
      </trkpt>
      <trkpt lat="48.04036" lon="-2.71348">
        <ele>103.892561</ele>
        <time>2022-12-13T15:37:57.893Z</time>
      </trkpt>
      <trkpt lat="48.04028" lon="-2.7134">
        <ele>103.801775</ele>
        <time>2022-12-13T15:37:59.900Z</time>
      </trkpt>
      <trkpt lat="48.0402" lon="-2.71333">
        <ele>103.70726</ele>
        <time>2022-12-13T15:38:01.882Z</time>
      </trkpt>
      <trkpt lat="48.04012" lon="-2.71325">
        <ele>103.611727</ele>
        <time>2022-12-13T15:38:03.892Z</time>
      </trkpt>
      <trkpt lat="48.04004" lon="-2.71318">
        <ele>103.521784</ele>
        <time>2022-12-13T15:38:05.870Z</time>
      </trkpt>
      <trkpt lat="48.03992" lon="-2.71307">
        <ele>103.480572</ele>
        <time>2022-12-13T15:38:08.893Z</time>
      </trkpt>
      <trkpt lat="48.03984" lon="-2.71299">
        <ele>103.46167</ele>
        <time>2022-12-13T15:38:10.883Z</time>
      </trkpt>
      <trkpt lat="48.03976" lon="-2.71291">
        <ele>103.442502</ele>
        <time>2022-12-13T15:38:12.888Z</time>
      </trkpt>
      <trkpt lat="48.03969" lon="-2.71284">
        <ele>103.423502</ele>
        <time>2022-12-13T15:38:14.893Z</time>
      </trkpt>
      <trkpt lat="48.03961" lon="-2.71275">
        <ele>103.404107</ele>
        <time>2022-12-13T15:38:16.891Z</time>
      </trkpt>
      <trkpt lat="48.03953" lon="-2.71268">
        <ele>103.385014</ele>
        <time>2022-12-13T15:38:18.890Z</time>
      </trkpt>
      <trkpt lat="48.03944" lon="-2.71259">
        <ele>103.365024</ele>
        <time>2022-12-13T15:38:20.893Z</time>
      </trkpt>
      <trkpt lat="48.03936" lon="-2.71252">
        <ele>103.34535</ele>
        <time>2022-12-13T15:38:22.891Z</time>
      </trkpt>
      <trkpt lat="48.03928" lon="-2.71244">
        <ele>103.326404</ele>
        <time>2022-12-13T15:38:24.894Z</time>
      </trkpt>
      <trkpt lat="48.03921" lon="-2.71236">
        <ele>103.308207</ele>
        <time>2022-12-13T15:38:26.890Z</time>
      </trkpt>
      <trkpt lat="48.03912" lon="-2.71227">
        <ele>103.285791</ele>
        <time>2022-12-13T15:38:29.875Z</time>
      </trkpt>
      <trkpt lat="48.03901" lon="-2.71216">
        <ele>103.259345</ele>
        <time>2022-12-13T15:38:32.874Z</time>
      </trkpt>
      <trkpt lat="48.03893" lon="-2.71209">
        <ele>103.241007</ele>
        <time>2022-12-13T15:38:34.876Z</time>
      </trkpt>
      <trkpt lat="48.03885" lon="-2.71202">
        <ele>103.221853</ele>
        <time>2022-12-13T15:38:36.886Z</time>
      </trkpt>
      <trkpt lat="48.03877" lon="-2.71194">
        <ele>103.203351</ele>
        <time>2022-12-13T15:38:38.868Z</time>
      </trkpt>
      <trkpt lat="48.03869" lon="-2.71186">
        <ele>103.183579</ele>
        <time>2022-12-13T15:38:40.892Z</time>
      </trkpt>
      <trkpt lat="48.03861" lon="-2.71178">
        <ele>103.163708</ele>
        <time>2022-12-13T15:38:42.897Z</time>
      </trkpt>
      <trkpt lat="48.03853" lon="-2.7117">
        <ele>103.144372</ele>
        <time>2022-12-13T15:38:44.894Z</time>
      </trkpt>
      <trkpt lat="48.03845" lon="-2.71163">
        <ele>103.12272</ele>
        <time>2022-12-13T15:38:46.903Z</time>
      </trkpt>
      <trkpt lat="48.03837" lon="-2.71155">
        <ele>103.099552</ele>
        <time>2022-12-13T15:38:48.891Z</time>
      </trkpt>
      <trkpt lat="48.03829" lon="-2.71146">
        <ele>103.075788</ele>
        <time>2022-12-13T15:38:50.891Z</time>
      </trkpt>
      <trkpt lat="48.03821" lon="-2.7114">
        <ele>103.05414</ele>
        <time>2022-12-13T15:38:52.893Z</time>
      </trkpt>
      <trkpt lat="48.03813" lon="-2.71133">
        <ele>103.032511</ele>
        <time>2022-12-13T15:38:54.888Z</time>
      </trkpt>
      <trkpt lat="48.03805" lon="-2.71126">
        <ele>103.010473</ele>
        <time>2022-12-13T15:38:56.895Z</time>
      </trkpt>
      <trkpt lat="48.03796" lon="-2.71117">
        <ele>102.985996</ele>
        <time>2022-12-13T15:38:58.897Z</time>
      </trkpt>
      <trkpt lat="48.03788" lon="-2.71109">
        <ele>102.962431</ele>
        <time>2022-12-13T15:39:00.876Z</time>
      </trkpt>
      <trkpt lat="48.03779" lon="-2.71101">
        <ele>102.938517</ele>
        <time>2022-12-13T15:39:02.885Z</time>
      </trkpt>
      <trkpt lat="48.03771" lon="-2.71093">
        <ele>102.915324</ele>
        <time>2022-12-13T15:39:04.872Z</time>
      </trkpt>
      <trkpt lat="48.03763" lon="-2.71085">
        <ele>102.891958</ele>
        <time>2022-12-13T15:39:06.894Z</time>
      </trkpt>
      <trkpt lat="48.03754" lon="-2.71077">
        <ele>102.867472</ele>
        <time>2022-12-13T15:39:08.874Z</time>
      </trkpt>
      <trkpt lat="48.03746" lon="-2.71069">
        <ele>102.844424</ele>
        <time>2022-12-13T15:39:10.889Z</time>
      </trkpt>
      <trkpt lat="48.03736" lon="-2.71059">
        <ele>102.814713</ele>
        <time>2022-12-13T15:39:13.879Z</time>
      </trkpt>
      <trkpt lat="48.03726" lon="-2.71049">
        <ele>102.787376</ele>
        <time>2022-12-13T15:39:16.891Z</time>
      </trkpt>
      <trkpt lat="48.03716" lon="-2.71039">
        <ele>102.757737</ele>
        <time>2022-12-13T15:39:19.893Z</time>
      </trkpt>
      <trkpt lat="48.03705" lon="-2.71028">
        <ele>102.726846</ele>
        <time>2022-12-13T15:39:22.888Z</time>
      </trkpt>
      <trkpt lat="48.03697" lon="-2.71021">
        <ele>102.710242</ele>
        <time>2022-12-13T15:39:24.876Z</time>
      </trkpt>
      <trkpt lat="48.03689" lon="-2.71014">
        <ele>102.701161</ele>
        <time>2022-12-13T15:39:26.877Z</time>
      </trkpt>
      <trkpt lat="48.03681" lon="-2.71007">
        <ele>102.691925</ele>
        <time>2022-12-13T15:39:28.879Z</time>
      </trkpt>
      <trkpt lat="48.03673" lon="-2.71">
        <ele>102.682859</ele>
        <time>2022-12-13T15:39:30.873Z</time>
      </trkpt>
      <trkpt lat="48.03664" lon="-2.70991">
        <ele>102.672317</ele>
        <time>2022-12-13T15:39:32.892Z</time>
      </trkpt>
      <trkpt lat="48.03656" lon="-2.70984">
        <ele>102.662567</ele>
        <time>2022-12-13T15:39:34.893Z</time>
      </trkpt>
      <trkpt lat="48.03648" lon="-2.70977">
        <ele>102.653314</ele>
        <time>2022-12-13T15:39:36.889Z</time>
      </trkpt>
      <trkpt lat="48.0364" lon="-2.7097">
        <ele>102.644232</ele>
        <time>2022-12-13T15:39:38.893Z</time>
      </trkpt>
      <trkpt lat="48.0363" lon="-2.70959">
        <ele>102.6319</ele>
        <time>2022-12-13T15:39:41.894Z</time>
      </trkpt>
      <trkpt lat="48.0362" lon="-2.7095">
        <ele>102.620296</ele>
        <time>2022-12-13T15:39:44.879Z</time>
      </trkpt>
      <trkpt lat="48.0361" lon="-2.70941">
        <ele>102.608593</ele>
        <time>2022-12-13T15:39:47.896Z</time>
      </trkpt>
      <trkpt lat="48.036" lon="-2.70931">
        <ele>102.596273</ele>
        <time>2022-12-13T15:39:50.873Z</time>
      </trkpt>
      <trkpt lat="48.0359" lon="-2.7092">
        <ele>102.583598</ele>
        <time>2022-12-13T15:39:53.868Z</time>
      </trkpt>
      <trkpt lat="48.03579" lon="-2.7091">
        <ele>102.571227</ele>
        <time>2022-12-13T15:39:56.886Z</time>
      </trkpt>
      <trkpt lat="48.03569" lon="-2.70901">
        <ele>102.559986</ele>
        <time>2022-12-13T15:39:59.869Z</time>
      </trkpt>
      <trkpt lat="48.0356" lon="-2.70893">
        <ele>102.549362</ele>
        <time>2022-12-13T15:40:02.873Z</time>
      </trkpt>
      <trkpt lat="48.03552" lon="-2.70886">
        <ele>102.540195</ele>
        <time>2022-12-13T15:40:05.868Z</time>
      </trkpt>
      <trkpt lat="48.03546" lon="-2.70875">
        <ele>102.490039</ele>
        <time>2022-12-13T15:40:10.877Z</time>
      </trkpt>
      <trkpt lat="48.03537" lon="-2.7087">
        <ele>102.403257</ele>
        <time>2022-12-13T15:40:15.864Z</time>
      </trkpt>
      <trkpt lat="48.03529" lon="-2.7086">
        <ele>102.309535</ele>
        <time>2022-12-13T15:40:21.865Z</time>
      </trkpt>
      <trkpt lat="48.0352" lon="-2.70852">
        <ele>102.212694</ele>
        <time>2022-12-13T15:40:24.879Z</time>
      </trkpt>
      <trkpt lat="48.03511" lon="-2.70844">
        <ele>102.123841</ele>
        <time>2022-12-13T15:40:26.870Z</time>
      </trkpt>
      <trkpt lat="48.03503" lon="-2.70836">
        <ele>102.033971</ele>
        <time>2022-12-13T15:40:28.893Z</time>
      </trkpt>
      <trkpt lat="48.03494" lon="-2.70827">
        <ele>101.938162</ele>
        <time>2022-12-13T15:40:30.895Z</time>
      </trkpt>
      <trkpt lat="48.03485" lon="-2.70819">
        <ele>101.837304</ele>
        <time>2022-12-13T15:40:32.890Z</time>
      </trkpt>
      <trkpt lat="48.03476" lon="-2.70811">
        <ele>101.743921</ele>
        <time>2022-12-13T15:40:34.892Z</time>
      </trkpt>
      <trkpt lat="48.03468" lon="-2.70803">
        <ele>101.655982</ele>
        <time>2022-12-13T15:40:36.896Z</time>
      </trkpt>
      <trkpt lat="48.0346" lon="-2.70796">
        <ele>101.570549</ele>
        <time>2022-12-13T15:40:38.890Z</time>
      </trkpt>
      <trkpt lat="48.0345" lon="-2.70784">
        <ele>101.454898</ele>
        <time>2022-12-13T15:40:41.896Z</time>
      </trkpt>
      <trkpt lat="48.03442" lon="-2.70777">
        <ele>101.372956</ele>
        <time>2022-12-13T15:40:43.879Z</time>
      </trkpt>
      <trkpt lat="48.03434" lon="-2.7077">
        <ele>101.286749</ele>
        <time>2022-12-13T15:40:45.869Z</time>
      </trkpt>
      <trkpt lat="48.03426" lon="-2.70762">
        <ele>101.201595</ele>
        <time>2022-12-13T15:40:47.895Z</time>
      </trkpt>
      <trkpt lat="48.03418" lon="-2.70754">
        <ele>101.114749</ele>
        <time>2022-12-13T15:40:49.896Z</time>
      </trkpt>
      <trkpt lat="48.0341" lon="-2.70746">
        <ele>101.028013</ele>
        <time>2022-12-13T15:40:51.891Z</time>
      </trkpt>
      <trkpt lat="48.03402" lon="-2.70738">
        <ele>100.939851</ele>
        <time>2022-12-13T15:40:53.896Z</time>
      </trkpt>
      <trkpt lat="48.03393" lon="-2.70731">
        <ele>100.861785</ele>
        <time>2022-12-13T15:40:55.866Z</time>
      </trkpt>
      <trkpt lat="48.03385" lon="-2.70723">
        <ele>100.789625</ele>
        <time>2022-12-13T15:40:57.894Z</time>
      </trkpt>
      <trkpt lat="48.03376" lon="-2.70714">
        <ele>100.716976</ele>
        <time>2022-12-13T15:40:59.891Z</time>
      </trkpt>
      <trkpt lat="48.03367" lon="-2.70705">
        <ele>100.642552</ele>
        <time>2022-12-13T15:41:01.883Z</time>
      </trkpt>
      <trkpt lat="48.03358" lon="-2.70696">
        <ele>100.570358</ele>
        <time>2022-12-13T15:41:03.898Z</time>
      </trkpt>
      <trkpt lat="48.03349" lon="-2.70688">
        <ele>100.497724</ele>
        <time>2022-12-13T15:41:05.869Z</time>
      </trkpt>
      <trkpt lat="48.0334" lon="-2.7068">
        <ele>100.424244</ele>
        <time>2022-12-13T15:41:07.892Z</time>
      </trkpt>
      <trkpt lat="48.03331" lon="-2.70671">
        <ele>100.351929</ele>
        <time>2022-12-13T15:41:09.894Z</time>
      </trkpt>
      <trkpt lat="48.03323" lon="-2.70663">
        <ele>100.281428</ele>
        <time>2022-12-13T15:41:11.895Z</time>
      </trkpt>
      <trkpt lat="48.03314" lon="-2.70655">
        <ele>100.212555</ele>
        <time>2022-12-13T15:41:13.890Z</time>
      </trkpt>
      <trkpt lat="48.03306" lon="-2.70647">
        <ele>100.140981</ele>
        <time>2022-12-13T15:41:15.870Z</time>
      </trkpt>
      <trkpt lat="48.03297" lon="-2.70638">
        <ele>100.06882</ele>
        <time>2022-12-13T15:41:17.884Z</time>
      </trkpt>
      <trkpt lat="48.03288" lon="-2.7063">
        <ele>99.997718</ele>
        <time>2022-12-13T15:41:19.889Z</time>
      </trkpt>
      <trkpt lat="48.03279" lon="-2.70622">
        <ele>99.927216</ele>
        <time>2022-12-13T15:41:21.888Z</time>
      </trkpt>
      <trkpt lat="48.03271" lon="-2.70614">
        <ele>99.858853</ele>
        <time>2022-12-13T15:41:23.891Z</time>
      </trkpt>
      <trkpt lat="48.03263" lon="-2.70607">
        <ele>99.796528</ele>
        <time>2022-12-13T15:41:25.869Z</time>
      </trkpt>
      <trkpt lat="48.03255" lon="-2.706">
        <ele>99.72923</ele>
        <time>2022-12-13T15:41:27.891Z</time>
      </trkpt>
      <trkpt lat="48.03243" lon="-2.70588">
        <ele>99.663274</ele>
        <time>2022-12-13T15:41:30.889Z</time>
      </trkpt>
      <trkpt lat="48.03235" lon="-2.7058">
        <ele>99.671782</ele>
        <time>2022-12-13T15:41:32.891Z</time>
      </trkpt>
      <trkpt lat="48.03227" lon="-2.70572">
        <ele>99.680583</ele>
        <time>2022-12-13T15:41:34.889Z</time>
      </trkpt>
      <trkpt lat="48.03218" lon="-2.70564">
        <ele>99.68945</ele>
        <time>2022-12-13T15:41:36.893Z</time>
      </trkpt>
      <trkpt lat="48.0321" lon="-2.70555">
        <ele>99.698555</ele>
        <time>2022-12-13T15:41:38.894Z</time>
      </trkpt>
      <trkpt lat="48.03201" lon="-2.70547">
        <ele>99.707276</ele>
        <time>2022-12-13T15:41:40.891Z</time>
      </trkpt>
      <trkpt lat="48.03193" lon="-2.7054">
        <ele>99.715814</ele>
        <time>2022-12-13T15:41:42.893Z</time>
      </trkpt>
      <trkpt lat="48.03182" lon="-2.70529">
        <ele>99.727013</ele>
        <time>2022-12-13T15:41:45.863Z</time>
      </trkpt>
      <trkpt lat="48.03172" lon="-2.70519">
        <ele>99.738048</ele>
        <time>2022-12-13T15:41:48.886Z</time>
      </trkpt>
      <trkpt lat="48.03164" lon="-2.70511">
        <ele>99.746018</ele>
        <time>2022-12-13T15:41:50.893Z</time>
      </trkpt>
      <trkpt lat="48.03153" lon="-2.705">
        <ele>99.757257</ele>
        <time>2022-12-13T15:41:53.897Z</time>
      </trkpt>
      <trkpt lat="48.03142" lon="-2.70489">
        <ele>99.768802</ele>
        <time>2022-12-13T15:41:56.890Z</time>
      </trkpt>
      <trkpt lat="48.03134" lon="-2.70482">
        <ele>99.77692</ele>
        <time>2022-12-13T15:41:58.874Z</time>
      </trkpt>
      <trkpt lat="48.03126" lon="-2.70474">
        <ele>99.785683</ele>
        <time>2022-12-13T15:42:00.897Z</time>
      </trkpt>
      <trkpt lat="48.03118" lon="-2.70466">
        <ele>99.794064</ele>
        <time>2022-12-13T15:42:02.893Z</time>
      </trkpt>
      <trkpt lat="48.03109" lon="-2.70458">
        <ele>99.802907</ele>
        <time>2022-12-13T15:42:04.885Z</time>
      </trkpt>
      <trkpt lat="48.03102" lon="-2.70451">
        <ele>99.811045</ele>
        <time>2022-12-13T15:42:06.894Z</time>
      </trkpt>
      <trkpt lat="48.03094" lon="-2.70443">
        <ele>99.809864</ele>
        <time>2022-12-13T15:42:08.893Z</time>
      </trkpt>
      <trkpt lat="48.03082" lon="-2.70433">
        <ele>99.771018</ele>
        <time>2022-12-13T15:42:11.905Z</time>
      </trkpt>
      <trkpt lat="48.03072" lon="-2.70422">
        <ele>99.732308</ele>
        <time>2022-12-13T15:42:14.879Z</time>
      </trkpt>
      <trkpt lat="48.03064" lon="-2.70414">
        <ele>99.702451</ele>
        <time>2022-12-13T15:42:16.894Z</time>
      </trkpt>
      <trkpt lat="48.03056" lon="-2.70406">
        <ele>99.673928</ele>
        <time>2022-12-13T15:42:18.894Z</time>
      </trkpt>
      <trkpt lat="48.03048" lon="-2.70398">
        <ele>99.645404</ele>
        <time>2022-12-13T15:42:20.891Z</time>
      </trkpt>
      <trkpt lat="48.03039" lon="-2.7039">
        <ele>99.615833</ele>
        <time>2022-12-13T15:42:22.896Z</time>
      </trkpt>
      <trkpt lat="48.03031" lon="-2.70383">
        <ele>99.587059</ele>
        <time>2022-12-13T15:42:24.893Z</time>
      </trkpt>
      <trkpt lat="48.03023" lon="-2.70375">
        <ele>99.557077</ele>
        <time>2022-12-13T15:42:26.889Z</time>
      </trkpt>
      <trkpt lat="48.03015" lon="-2.70367">
        <ele>99.527548</ele>
        <time>2022-12-13T15:42:28.871Z</time>
      </trkpt>
      <trkpt lat="48.03006" lon="-2.7036">
        <ele>99.498185</ele>
        <time>2022-12-13T15:42:30.891Z</time>
      </trkpt>
      <trkpt lat="48.02995" lon="-2.70349">
        <ele>99.459593</ele>
        <time>2022-12-13T15:42:33.893Z</time>
      </trkpt>
      <trkpt lat="48.02985" lon="-2.70339">
        <ele>99.422179</ele>
        <time>2022-12-13T15:42:36.899Z</time>
      </trkpt>
      <trkpt lat="48.02974" lon="-2.70328">
        <ele>99.382071</ele>
        <time>2022-12-13T15:42:39.874Z</time>
      </trkpt>
      <trkpt lat="48.02966" lon="-2.7032">
        <ele>99.354992</ele>
        <time>2022-12-13T15:42:41.891Z</time>
      </trkpt>
      <trkpt lat="48.02958" lon="-2.70314">
        <ele>99.327273</ele>
        <time>2022-12-13T15:42:43.897Z</time>
      </trkpt>
      <trkpt lat="48.0295" lon="-2.70306">
        <ele>99.298012</ele>
        <time>2022-12-13T15:42:45.875Z</time>
      </trkpt>
      <trkpt lat="48.02941" lon="-2.70297">
        <ele>99.239812</ele>
        <time>2022-12-13T15:42:47.891Z</time>
      </trkpt>
      <trkpt lat="48.02932" lon="-2.7029">
        <ele>99.131385</ele>
        <time>2022-12-13T15:42:49.888Z</time>
      </trkpt>
      <trkpt lat="48.02924" lon="-2.70282">
        <ele>99.03227</ele>
        <time>2022-12-13T15:42:51.890Z</time>
      </trkpt>
      <trkpt lat="48.02916" lon="-2.70273">
        <ele>98.926533</ele>
        <time>2022-12-13T15:42:53.892Z</time>
      </trkpt>
      <trkpt lat="48.02906" lon="-2.70263">
        <ele>98.794928</ele>
        <time>2022-12-13T15:42:56.886Z</time>
      </trkpt>
      <trkpt lat="48.02895" lon="-2.70253">
        <ele>98.661287</ele>
        <time>2022-12-13T15:42:59.881Z</time>
      </trkpt>
      <trkpt lat="48.02884" lon="-2.70242">
        <ele>98.524008</ele>
        <time>2022-12-13T15:43:02.889Z</time>
      </trkpt>
      <trkpt lat="48.02873" lon="-2.70231">
        <ele>98.38166</ele>
        <time>2022-12-13T15:43:05.873Z</time>
      </trkpt>
      <trkpt lat="48.02865" lon="-2.70223">
        <ele>98.282641</ele>
        <time>2022-12-13T15:43:07.893Z</time>
      </trkpt>
      <trkpt lat="48.02857" lon="-2.70216">
        <ele>98.180493</ele>
        <time>2022-12-13T15:43:09.895Z</time>
      </trkpt>
      <trkpt lat="48.02848" lon="-2.70208">
        <ele>98.078198</ele>
        <time>2022-12-13T15:43:11.891Z</time>
      </trkpt>
      <trkpt lat="48.02841" lon="-2.702">
        <ele>97.98012</ele>
        <time>2022-12-13T15:43:13.894Z</time>
      </trkpt>
      <trkpt lat="48.02833" lon="-2.70192">
        <ele>97.878858</ele>
        <time>2022-12-13T15:43:15.864Z</time>
      </trkpt>
      <trkpt lat="48.02822" lon="-2.70181">
        <ele>97.740804</ele>
        <time>2022-12-13T15:43:18.892Z</time>
      </trkpt>
      <trkpt lat="48.02812" lon="-2.70173">
        <ele>97.618293</ele>
        <time>2022-12-13T15:43:21.892Z</time>
      </trkpt>
      <trkpt lat="48.02803" lon="-2.70163">
        <ele>97.506741</ele>
        <time>2022-12-13T15:43:24.889Z</time>
      </trkpt>
      <trkpt lat="48.02795" lon="-2.70157">
        <ele>97.406995</ele>
        <time>2022-12-13T15:43:27.878Z</time>
      </trkpt>
      <trkpt lat="48.02786" lon="-2.70149">
        <ele>97.273587</ele>
        <time>2022-12-13T15:43:31.874Z</time>
      </trkpt>
      <trkpt lat="48.0278" lon="-2.70137">
        <ele>97.136958</ele>
        <time>2022-12-13T15:43:36.879Z</time>
      </trkpt>
      <trkpt lat="48.0277" lon="-2.70131">
        <ele>96.997725</ele>
        <time>2022-12-13T15:43:42.897Z</time>
      </trkpt>
      <trkpt lat="48.02761" lon="-2.70124">
        <ele>96.870289</ele>
        <time>2022-12-13T15:43:52.879Z</time>
      </trkpt>
      <trkpt lat="48.02751" lon="-2.70115">
        <ele>96.712622</ele>
        <time>2022-12-13T15:43:56.873Z</time>
      </trkpt>
      <trkpt lat="48.02741" lon="-2.70105">
        <ele>96.552873</ele>
        <time>2022-12-13T15:43:59.897Z</time>
      </trkpt>
      <trkpt lat="48.02734" lon="-2.70097">
        <ele>96.427716</ele>
        <time>2022-12-13T15:44:01.896Z</time>
      </trkpt>
      <trkpt lat="48.02725" lon="-2.70089">
        <ele>96.294372</ele>
        <time>2022-12-13T15:44:03.895Z</time>
      </trkpt>
      <trkpt lat="48.02717" lon="-2.70082">
        <ele>96.167174</ele>
        <time>2022-12-13T15:44:05.863Z</time>
      </trkpt>
      <trkpt lat="48.02709" lon="-2.70074">
        <ele>96.038806</ele>
        <time>2022-12-13T15:44:07.868Z</time>
      </trkpt>
      <trkpt lat="48.02701" lon="-2.70067">
        <ele>95.910029</ele>
        <time>2022-12-13T15:44:09.893Z</time>
      </trkpt>
      <trkpt lat="48.0269" lon="-2.70056">
        <ele>95.737095</ele>
        <time>2022-12-13T15:44:12.897Z</time>
      </trkpt>
      <trkpt lat="48.0268" lon="-2.70046">
        <ele>95.578613</ele>
        <time>2022-12-13T15:44:15.865Z</time>
      </trkpt>
      <trkpt lat="48.0267" lon="-2.70036">
        <ele>95.415652</ele>
        <time>2022-12-13T15:44:18.895Z</time>
      </trkpt>
      <trkpt lat="48.02659" lon="-2.70026">
        <ele>95.245788</ele>
        <time>2022-12-13T15:44:21.885Z</time>
      </trkpt>
      <trkpt lat="48.02651" lon="-2.70019">
        <ele>95.124564</ele>
        <time>2022-12-13T15:44:23.888Z</time>
      </trkpt>
      <trkpt lat="48.02643" lon="-2.70012">
        <ele>95.000602</ele>
        <time>2022-12-13T15:44:25.864Z</time>
      </trkpt>
      <trkpt lat="48.02636" lon="-2.70004">
        <ele>95.086491</ele>
        <time>2022-12-13T15:44:27.886Z</time>
      </trkpt>
      <trkpt lat="48.02628" lon="-2.69997">
        <ele>95.203528</ele>
        <time>2022-12-13T15:44:29.873Z</time>
      </trkpt>
      <trkpt lat="48.0262" lon="-2.69989">
        <ele>95.321936</ele>
        <time>2022-12-13T15:44:31.887Z</time>
      </trkpt>
      <trkpt lat="48.02612" lon="-2.69981">
        <ele>95.440022</ele>
        <time>2022-12-13T15:44:33.888Z</time>
      </trkpt>
      <trkpt lat="48.02601" lon="-2.69971">
        <ele>95.60472</ele>
        <time>2022-12-13T15:44:36.887Z</time>
      </trkpt>
      <trkpt lat="48.02591" lon="-2.69961">
        <ele>95.755537</ele>
        <time>2022-12-13T15:44:39.892Z</time>
      </trkpt>
      <trkpt lat="48.0258" lon="-2.69951">
        <ele>95.910637</ele>
        <time>2022-12-13T15:44:42.887Z</time>
      </trkpt>
      <trkpt lat="48.0257" lon="-2.6994">
        <ele>96.066516</ele>
        <time>2022-12-13T15:44:45.869Z</time>
      </trkpt>
      <trkpt lat="48.02559" lon="-2.69931">
        <ele>96.220059</ele>
        <time>2022-12-13T15:44:48.878Z</time>
      </trkpt>
      <trkpt lat="48.02548" lon="-2.69921">
        <ele>96.37771</ele>
        <time>2022-12-13T15:44:51.893Z</time>
      </trkpt>
      <trkpt lat="48.02538" lon="-2.6991">
        <ele>96.53671</ele>
        <time>2022-12-13T15:44:54.882Z</time>
      </trkpt>
      <trkpt lat="48.02527" lon="-2.69899">
        <ele>96.699439</ele>
        <time>2022-12-13T15:44:57.878Z</time>
      </trkpt>
      <trkpt lat="48.02516" lon="-2.69888">
        <ele>96.862648</ele>
        <time>2022-12-13T15:45:00.897Z</time>
      </trkpt>
      <trkpt lat="48.02505" lon="-2.69878">
        <ele>97.024984</ele>
        <time>2022-12-13T15:45:03.889Z</time>
      </trkpt>
      <trkpt lat="48.02495" lon="-2.69869">
        <ele>97.17147</ele>
        <time>2022-12-13T15:45:06.901Z</time>
      </trkpt>
      <trkpt lat="48.02485" lon="-2.69859">
        <ele>97.246348</ele>
        <time>2022-12-13T15:45:09.881Z</time>
      </trkpt>
      <trkpt lat="48.02474" lon="-2.69849">
        <ele>97.279301</ele>
        <time>2022-12-13T15:45:12.890Z</time>
      </trkpt>
      <trkpt lat="48.02466" lon="-2.69841">
        <ele>97.303445</ele>
        <time>2022-12-13T15:45:14.867Z</time>
      </trkpt>
      <trkpt lat="48.02458" lon="-2.69833">
        <ele>97.327993</ele>
        <time>2022-12-13T15:45:16.873Z</time>
      </trkpt>
      <trkpt lat="48.02451" lon="-2.69825">
        <ele>97.351804</ele>
        <time>2022-12-13T15:45:18.893Z</time>
      </trkpt>
      <trkpt lat="48.0244" lon="-2.69816">
        <ele>97.383744</ele>
        <time>2022-12-13T15:45:21.884Z</time>
      </trkpt>
      <trkpt lat="48.0243" lon="-2.69807">
        <ele>97.413788</ele>
        <time>2022-12-13T15:45:24.894Z</time>
      </trkpt>
      <trkpt lat="48.0242" lon="-2.69797">
        <ele>97.443481</ele>
        <time>2022-12-13T15:45:27.893Z</time>
      </trkpt>
      <trkpt lat="48.02411" lon="-2.69786">
        <ele>97.474716</ele>
        <time>2022-12-13T15:45:30.871Z</time>
      </trkpt>
      <trkpt lat="48.02401" lon="-2.69773">
        <ele>97.50711</ele>
        <time>2022-12-13T15:45:33.871Z</time>
      </trkpt>
      <trkpt lat="48.02392" lon="-2.69759">
        <ele>97.540698</ele>
        <time>2022-12-13T15:45:36.893Z</time>
      </trkpt>
      <trkpt lat="48.02386" lon="-2.6975">
        <ele>97.563873</ele>
        <time>2022-12-13T15:45:38.884Z</time>
      </trkpt>
      <trkpt lat="48.02377" lon="-2.69734">
        <ele>97.598268</ele>
        <time>2022-12-13T15:45:41.877Z</time>
      </trkpt>
      <trkpt lat="48.0237" lon="-2.69716">
        <ele>97.633047</ele>
        <time>2022-12-13T15:45:44.882Z</time>
      </trkpt>
      <trkpt lat="48.02366" lon="-2.69704">
        <ele>97.656224</ele>
        <time>2022-12-13T15:45:46.894Z</time>
      </trkpt>
      <trkpt lat="48.02363" lon="-2.69692">
        <ele>97.67934</ele>
        <time>2022-12-13T15:45:48.900Z</time>
      </trkpt>
      <trkpt lat="48.02358" lon="-2.69674">
        <ele>97.689127</ele>
        <time>2022-12-13T15:45:51.891Z</time>
      </trkpt>
      <trkpt lat="48.02354" lon="-2.69658">
        <ele>97.690749</ele>
        <time>2022-12-13T15:45:54.888Z</time>
      </trkpt>
      <trkpt lat="48.02352" lon="-2.6964">
        <ele>97.692456</ele>
        <time>2022-12-13T15:45:57.867Z</time>
      </trkpt>
      <trkpt lat="48.02349" lon="-2.69622">
        <ele>97.694199</ele>
        <time>2022-12-13T15:46:00.891Z</time>
      </trkpt>
      <trkpt lat="48.02347" lon="-2.69604">
        <ele>97.695907</ele>
        <time>2022-12-13T15:46:03.892Z</time>
      </trkpt>
      <trkpt lat="48.02344" lon="-2.69589">
        <ele>97.697391</ele>
        <time>2022-12-13T15:46:06.873Z</time>
      </trkpt>
      <trkpt lat="48.02342" lon="-2.69573">
        <ele>97.698923</ele>
        <time>2022-12-13T15:46:09.891Z</time>
      </trkpt>
      <trkpt lat="48.02339" lon="-2.69557">
        <ele>97.700481</ele>
        <time>2022-12-13T15:46:12.869Z</time>
      </trkpt>
      <trkpt lat="48.02336" lon="-2.6954">
        <ele>97.702099</ele>
        <time>2022-12-13T15:46:15.868Z</time>
      </trkpt>
      <trkpt lat="48.02333" lon="-2.69523">
        <ele>97.703821</ele>
        <time>2022-12-13T15:46:18.885Z</time>
      </trkpt>
      <trkpt lat="48.0233" lon="-2.69504">
        <ele>97.705595</ele>
        <time>2022-12-13T15:46:21.885Z</time>
      </trkpt>
      <trkpt lat="48.02327" lon="-2.69486">
        <ele>97.707385</ele>
        <time>2022-12-13T15:46:24.883Z</time>
      </trkpt>
      <trkpt lat="48.02325" lon="-2.69467">
        <ele>97.70918</ele>
        <time>2022-12-13T15:46:27.896Z</time>
      </trkpt>
      <trkpt lat="48.02321" lon="-2.69449">
        <ele>97.710995</ele>
        <time>2022-12-13T15:46:30.882Z</time>
      </trkpt>
      <trkpt lat="48.02318" lon="-2.6943">
        <ele>97.712769</ele>
        <time>2022-12-13T15:46:33.881Z</time>
      </trkpt>
      <trkpt lat="48.02316" lon="-2.69413">
        <ele>97.727513</ele>
        <time>2022-12-13T15:46:36.873Z</time>
      </trkpt>
      <trkpt lat="48.02313" lon="-2.69397">
        <ele>97.745039</ele>
        <time>2022-12-13T15:46:39.890Z</time>
      </trkpt>
      <trkpt lat="48.0231" lon="-2.69379">
        <ele>97.763852</ele>
        <time>2022-12-13T15:46:42.893Z</time>
      </trkpt>
      <trkpt lat="48.02307" lon="-2.69361">
        <ele>97.783474</ele>
        <time>2022-12-13T15:46:45.865Z</time>
      </trkpt>
      <trkpt lat="48.02304" lon="-2.69342">
        <ele>97.803335</ele>
        <time>2022-12-13T15:46:48.872Z</time>
      </trkpt>
      <trkpt lat="48.02301" lon="-2.69323">
        <ele>97.823905</ele>
        <time>2022-12-13T15:46:51.877Z</time>
      </trkpt>
      <trkpt lat="48.02298" lon="-2.69304">
        <ele>97.844488</ele>
        <time>2022-12-13T15:46:54.869Z</time>
      </trkpt>
      <trkpt lat="48.02295" lon="-2.69285">
        <ele>97.864885</ele>
        <time>2022-12-13T15:46:57.881Z</time>
      </trkpt>
      <trkpt lat="48.02291" lon="-2.69267">
        <ele>97.883963</ele>
        <time>2022-12-13T15:47:00.865Z</time>
      </trkpt>
      <trkpt lat="48.02289" lon="-2.6925">
        <ele>97.902123</ele>
        <time>2022-12-13T15:47:03.893Z</time>
      </trkpt>
      <trkpt lat="48.02286" lon="-2.69232">
        <ele>97.921741</ele>
        <time>2022-12-13T15:47:06.891Z</time>
      </trkpt>
      <trkpt lat="48.02283" lon="-2.69213">
        <ele>97.941799</ele>
        <time>2022-12-13T15:47:09.874Z</time>
      </trkpt>
      <trkpt lat="48.02279" lon="-2.69194">
        <ele>97.962551</ele>
        <time>2022-12-13T15:47:12.889Z</time>
      </trkpt>
      <trkpt lat="48.02276" lon="-2.69175">
        <ele>97.983398</ele>
        <time>2022-12-13T15:47:15.870Z</time>
      </trkpt>
      <trkpt lat="48.02275" lon="-2.69161">
        <ele>97.99848</ele>
        <time>2022-12-13T15:47:17.895Z</time>
      </trkpt>
      <trkpt lat="48.02271" lon="-2.69142">
        <ele>98.021281</ele>
        <time>2022-12-13T15:47:20.888Z</time>
      </trkpt>
      <trkpt lat="48.02269" lon="-2.69129">
        <ele>98.037867</ele>
        <time>2022-12-13T15:47:22.882Z</time>
      </trkpt>
      <trkpt lat="48.02266" lon="-2.69116">
        <ele>98.053738</ele>
        <time>2022-12-13T15:47:24.893Z</time>
      </trkpt>
      <trkpt lat="48.02263" lon="-2.69097">
        <ele>98.076132</ele>
        <time>2022-12-13T15:47:27.877Z</time>
      </trkpt>
      <trkpt lat="48.0226" lon="-2.69081">
        <ele>98.095967</ele>
        <time>2022-12-13T15:47:30.871Z</time>
      </trkpt>
      <trkpt lat="48.02257" lon="-2.69064">
        <ele>98.116795</ele>
        <time>2022-12-13T15:47:33.881Z</time>
      </trkpt>
      <trkpt lat="48.02254" lon="-2.69045">
        <ele>98.140061</ele>
        <time>2022-12-13T15:47:36.869Z</time>
      </trkpt>
      <trkpt lat="48.02251" lon="-2.69031">
        <ele>98.156236</ele>
        <time>2022-12-13T15:47:38.860Z</time>
      </trkpt>
      <trkpt lat="48.02249" lon="-2.69012">
        <ele>98.179655</ele>
        <time>2022-12-13T15:47:41.884Z</time>
      </trkpt>
      <trkpt lat="48.02246" lon="-2.68998">
        <ele>98.195899</ele>
        <time>2022-12-13T15:47:43.889Z</time>
      </trkpt>
      <trkpt lat="48.02244" lon="-2.68985">
        <ele>98.212214</ele>
        <time>2022-12-13T15:47:45.873Z</time>
      </trkpt>
      <trkpt lat="48.02241" lon="-2.68971">
        <ele>98.228923</ele>
        <time>2022-12-13T15:47:47.892Z</time>
      </trkpt>
      <trkpt lat="48.0224" lon="-2.68958">
        <ele>98.245169</ele>
        <time>2022-12-13T15:47:49.897Z</time>
      </trkpt>
      <trkpt lat="48.02238" lon="-2.68944">
        <ele>98.261175</ele>
        <time>2022-12-13T15:47:51.893Z</time>
      </trkpt>
      <trkpt lat="48.02235" lon="-2.68931">
        <ele>98.277397</ele>
        <time>2022-12-13T15:47:53.890Z</time>
      </trkpt>
      <trkpt lat="48.02232" lon="-2.68913">
        <ele>98.299721</ele>
        <time>2022-12-13T15:47:56.874Z</time>
      </trkpt>
      <trkpt lat="48.02229" lon="-2.68896">
        <ele>98.249796</ele>
        <time>2022-12-13T15:47:59.898Z</time>
      </trkpt>
      <trkpt lat="48.02226" lon="-2.68878">
        <ele>98.135814</ele>
        <time>2022-12-13T15:48:02.896Z</time>
      </trkpt>
      <trkpt lat="48.02222" lon="-2.68859">
        <ele>98.010457</ele>
        <time>2022-12-13T15:48:05.864Z</time>
      </trkpt>
      <trkpt lat="48.02219" lon="-2.68841">
        <ele>97.894305</ele>
        <time>2022-12-13T15:48:08.893Z</time>
      </trkpt>
      <trkpt lat="48.02217" lon="-2.68825">
        <ele>97.793134</ele>
        <time>2022-12-13T15:48:11.899Z</time>
      </trkpt>
      <trkpt lat="48.02214" lon="-2.68812">
        <ele>97.707131</ele>
        <time>2022-12-13T15:48:14.892Z</time>
      </trkpt>
      <trkpt lat="48.02213" lon="-2.68797">
        <ele>97.610945</ele>
        <time>2022-12-13T15:48:18.889Z</time>
      </trkpt>
      <trkpt lat="48.02212" lon="-2.68782">
        <ele>97.516744</ele>
        <time>2022-12-13T15:48:24.869Z</time>
      </trkpt>
      <trkpt lat="48.02209" lon="-2.68764">
        <ele>97.401638</ele>
        <time>2022-12-13T15:48:28.876Z</time>
      </trkpt>
      <trkpt lat="48.02207" lon="-2.68748">
        <ele>97.299735</ele>
        <time>2022-12-13T15:48:31.871Z</time>
      </trkpt>
      <trkpt lat="48.02207" lon="-2.68732">
        <ele>97.199433</ele>
        <time>2022-12-13T15:48:34.872Z</time>
      </trkpt>
      <trkpt lat="48.02209" lon="-2.68719">
        <ele>97.114412</ele>
        <time>2022-12-13T15:48:37.871Z</time>
      </trkpt>
      <trkpt lat="48.0221" lon="-2.68705">
        <ele>97.023191</ele>
        <time>2022-12-13T15:48:43.895Z</time>
      </trkpt>
      <trkpt lat="48.02211" lon="-2.68688">
        <ele>96.916029</ele>
        <time>2022-12-13T15:48:48.873Z</time>
      </trkpt>
      <trkpt lat="48.02214" lon="-2.68673">
        <ele>96.820102</ele>
        <time>2022-12-13T15:48:51.890Z</time>
      </trkpt>
      <trkpt lat="48.02216" lon="-2.68657">
        <ele>96.718931</ele>
        <time>2022-12-13T15:48:54.895Z</time>
      </trkpt>
      <trkpt lat="48.02219" lon="-2.6864">
        <ele>96.62329</ele>
        <time>2022-12-13T15:48:57.869Z</time>
      </trkpt>
      <trkpt lat="48.02221" lon="-2.68623">
        <ele>96.624702</ele>
        <time>2022-12-13T15:49:00.893Z</time>
      </trkpt>
      <trkpt lat="48.02223" lon="-2.68605">
        <ele>96.626166</ele>
        <time>2022-12-13T15:49:03.888Z</time>
      </trkpt>
      <trkpt lat="48.02226" lon="-2.68587">
        <ele>96.627628</ele>
        <time>2022-12-13T15:49:06.889Z</time>
      </trkpt>
      <trkpt lat="48.02228" lon="-2.6857">
        <ele>96.629039</ele>
        <time>2022-12-13T15:49:09.890Z</time>
      </trkpt>
      <trkpt lat="48.0223" lon="-2.68554">
        <ele>96.630319</ele>
        <time>2022-12-13T15:49:12.890Z</time>
      </trkpt>
      <trkpt lat="48.02229" lon="-2.68535">
        <ele>96.631816</ele>
        <time>2022-12-13T15:49:15.896Z</time>
      </trkpt>
      <trkpt lat="48.02227" lon="-2.68515">
        <ele>96.63342</ele>
        <time>2022-12-13T15:49:18.868Z</time>
      </trkpt>
      <trkpt lat="48.02224" lon="-2.68497">
        <ele>96.634921</ele>
        <time>2022-12-13T15:49:21.898Z</time>
      </trkpt>
      <trkpt lat="48.02221" lon="-2.68484">
        <ele>96.63602</ele>
        <time>2022-12-13T15:49:23.887Z</time>
      </trkpt>
      <trkpt lat="48.02217" lon="-2.68467">
        <ele>96.637441</ele>
        <time>2022-12-13T15:49:26.872Z</time>
      </trkpt>
      <trkpt lat="48.02214" lon="-2.68451">
        <ele>96.638768</ele>
        <time>2022-12-13T15:49:29.889Z</time>
      </trkpt>
      <trkpt lat="48.02211" lon="-2.68436">
        <ele>96.640079</ele>
        <time>2022-12-13T15:49:32.898Z</time>
      </trkpt>
      <trkpt lat="48.02208" lon="-2.68421">
        <ele>96.641296</ele>
        <time>2022-12-13T15:49:35.866Z</time>
      </trkpt>
      <trkpt lat="48.02204" lon="-2.68406">
        <ele>96.642624</ele>
        <time>2022-12-13T15:49:38.877Z</time>
      </trkpt>
      <trkpt lat="48.02199" lon="-2.6839">
        <ele>96.643999</ele>
        <time>2022-12-13T15:49:41.896Z</time>
      </trkpt>
      <trkpt lat="48.02192" lon="-2.68374">
        <ele>96.649682</ele>
        <time>2022-12-13T15:49:44.868Z</time>
      </trkpt>
      <trkpt lat="48.02185" lon="-2.68359">
        <ele>96.658597</ele>
        <time>2022-12-13T15:49:47.864Z</time>
      </trkpt>
      <trkpt lat="48.02176" lon="-2.68345">
        <ele>96.667876</ele>
        <time>2022-12-13T15:49:50.870Z</time>
      </trkpt>
      <trkpt lat="48.02168" lon="-2.68331">
        <ele>96.677238</ele>
        <time>2022-12-13T15:49:53.871Z</time>
      </trkpt>
      <trkpt lat="48.02162" lon="-2.6832">
        <ele>96.683763</ele>
        <time>2022-12-13T15:49:55.870Z</time>
      </trkpt>
      <trkpt lat="48.02155" lon="-2.6831">
        <ele>96.690482</ele>
        <time>2022-12-13T15:49:57.890Z</time>
      </trkpt>
      <trkpt lat="48.02149" lon="-2.68301">
        <ele>96.697199</ele>
        <time>2022-12-13T15:49:59.883Z</time>
      </trkpt>
      <trkpt lat="48.02139" lon="-2.68286">
        <ele>96.706967</ele>
        <time>2022-12-13T15:50:02.893Z</time>
      </trkpt>
      <trkpt lat="48.02132" lon="-2.68275">
        <ele>96.714208</ele>
        <time>2022-12-13T15:50:04.891Z</time>
      </trkpt>
      <trkpt lat="48.02125" lon="-2.68265">
        <ele>96.720962</ele>
        <time>2022-12-13T15:50:06.875Z</time>
      </trkpt>
      <trkpt lat="48.02118" lon="-2.68255">
        <ele>96.728168</ele>
        <time>2022-12-13T15:50:08.896Z</time>
      </trkpt>
      <trkpt lat="48.02112" lon="-2.68245">
        <ele>96.734622</ele>
        <time>2022-12-13T15:50:10.886Z</time>
      </trkpt>
      <trkpt lat="48.02104" lon="-2.6823">
        <ele>96.743754</ele>
        <time>2022-12-13T15:50:13.877Z</time>
      </trkpt>
      <trkpt lat="48.02097" lon="-2.68216">
        <ele>96.752282</ele>
        <time>2022-12-13T15:50:16.893Z</time>
      </trkpt>
      <trkpt lat="48.02091" lon="-2.68202">
        <ele>96.76028</ele>
        <time>2022-12-13T15:50:19.893Z</time>
      </trkpt>
      <trkpt lat="48.02086" lon="-2.68186">
        <ele>96.768922</ele>
        <time>2022-12-13T15:50:22.888Z</time>
      </trkpt>
      <trkpt lat="48.02079" lon="-2.68169">
        <ele>96.78363</ele>
        <time>2022-12-13T15:50:25.876Z</time>
      </trkpt>
      <trkpt lat="48.02073" lon="-2.68152">
        <ele>96.805116</ele>
        <time>2022-12-13T15:50:28.862Z</time>
      </trkpt>
      <trkpt lat="48.02068" lon="-2.68135">
        <ele>96.826055</ele>
        <time>2022-12-13T15:50:31.870Z</time>
      </trkpt>
      <trkpt lat="48.02063" lon="-2.68119">
        <ele>96.846923</ele>
        <time>2022-12-13T15:50:34.885Z</time>
      </trkpt>
      <trkpt lat="48.02059" lon="-2.68106">
        <ele>96.862571</ele>
        <time>2022-12-13T15:50:36.891Z</time>
      </trkpt>
      <trkpt lat="48.02054" lon="-2.68094">
        <ele>96.878576</ele>
        <time>2022-12-13T15:50:38.892Z</time>
      </trkpt>
      <trkpt lat="48.02048" lon="-2.68076">
        <ele>96.900594</ele>
        <time>2022-12-13T15:50:41.891Z</time>
      </trkpt>
      <trkpt lat="48.02043" lon="-2.68064">
        <ele>96.916728</ele>
        <time>2022-12-13T15:50:43.893Z</time>
      </trkpt>
      <trkpt lat="48.02037" lon="-2.68053">
        <ele>96.93281</ele>
        <time>2022-12-13T15:50:45.877Z</time>
      </trkpt>
      <trkpt lat="48.02031" lon="-2.68042">
        <ele>96.949013</ele>
        <time>2022-12-13T15:50:47.892Z</time>
      </trkpt>
      <trkpt lat="48.02024" lon="-2.68031">
        <ele>96.965096</ele>
        <time>2022-12-13T15:50:49.877Z</time>
      </trkpt>
      <trkpt lat="48.02016" lon="-2.68021">
        <ele>96.982804</ele>
        <time>2022-12-13T15:50:51.877Z</time>
      </trkpt>
      <trkpt lat="48.02009" lon="-2.68011">
        <ele>96.998723</ele>
        <time>2022-12-13T15:50:53.878Z</time>
      </trkpt>
      <trkpt lat="48.01999" lon="-2.67998">
        <ele>97.021234</ele>
        <time>2022-12-13T15:50:56.885Z</time>
      </trkpt>
      <trkpt lat="48.01989" lon="-2.67988">
        <ele>97.041124</ele>
        <time>2022-12-13T15:50:59.895Z</time>
      </trkpt>
      <trkpt lat="48.01982" lon="-2.67979">
        <ele>97.056392</ele>
        <time>2022-12-13T15:51:12.880Z</time>
      </trkpt>
      <trkpt lat="48.01973" lon="-2.6797">
        <ele>97.074972</ele>
        <time>2022-12-13T15:51:17.878Z</time>
      </trkpt>
      <trkpt lat="48.01964" lon="-2.67962">
        <ele>96.984104</ele>
        <time>2022-12-13T15:51:20.887Z</time>
      </trkpt>
      <trkpt lat="48.01956" lon="-2.67954">
        <ele>96.894946</ele>
        <time>2022-12-13T15:51:23.889Z</time>
      </trkpt>
      <trkpt lat="48.01948" lon="-2.67944">
        <ele>96.799143</ele>
        <time>2022-12-13T15:51:26.879Z</time>
      </trkpt>
      <trkpt lat="48.01939" lon="-2.67938">
        <ele>96.71615</ele>
        <time>2022-12-13T15:51:28.881Z</time>
      </trkpt>
      <trkpt lat="48.0193" lon="-2.67927">
        <ele>96.608006</ele>
        <time>2022-12-13T15:51:31.891Z</time>
      </trkpt>
      <trkpt lat="48.01919" lon="-2.67917">
        <ele>96.490181</ele>
        <time>2022-12-13T15:51:34.889Z</time>
      </trkpt>
      <trkpt lat="48.01909" lon="-2.67907">
        <ele>96.386616</ele>
        <time>2022-12-13T15:51:37.889Z</time>
      </trkpt>
      <trkpt lat="48.01901" lon="-2.67898">
        <ele>96.290344</ele>
        <time>2022-12-13T15:51:40.890Z</time>
      </trkpt>
      <trkpt lat="48.01891" lon="-2.67889">
        <ele>96.189628</ele>
        <time>2022-12-13T15:51:43.883Z</time>
      </trkpt>
      <trkpt lat="48.01882" lon="-2.6788">
        <ele>96.085973</ele>
        <time>2022-12-13T15:51:46.890Z</time>
      </trkpt>
      <trkpt lat="48.01873" lon="-2.6787">
        <ele>95.983963</ele>
        <time>2022-12-13T15:51:49.891Z</time>
      </trkpt>
      <trkpt lat="48.01864" lon="-2.6786">
        <ele>95.882347</ele>
        <time>2022-12-13T15:51:52.883Z</time>
      </trkpt>
      <trkpt lat="48.01855" lon="-2.67852">
        <ele>95.785559</ele>
        <time>2022-12-13T15:51:55.871Z</time>
      </trkpt>
      <trkpt lat="48.01847" lon="-2.67842">
        <ele>95.692272</ele>
        <time>2022-12-13T15:51:58.878Z</time>
      </trkpt>
      <trkpt lat="48.01839" lon="-2.67831">
        <ele>95.596854</ele>
        <time>2022-12-13T15:52:01.875Z</time>
      </trkpt>
      <trkpt lat="48.01829" lon="-2.67822">
        <ele>95.492917</ele>
        <time>2022-12-13T15:52:04.876Z</time>
      </trkpt>
      <trkpt lat="48.01817" lon="-2.6781">
        <ele>95.376743</ele>
        <time>2022-12-13T15:52:07.887Z</time>
      </trkpt>
      <trkpt lat="48.01809" lon="-2.67803">
        <ele>95.299489</ele>
        <time>2022-12-13T15:52:09.888Z</time>
      </trkpt>
      <trkpt lat="48.01801" lon="-2.67794">
        <ele>95.222889</ele>
        <time>2022-12-13T15:52:11.875Z</time>
      </trkpt>
      <trkpt lat="48.01793" lon="-2.67786">
        <ele>95.149607</ele>
        <time>2022-12-13T15:52:13.892Z</time>
      </trkpt>
      <trkpt lat="48.01782" lon="-2.67775">
        <ele>95.046602</ele>
        <time>2022-12-13T15:52:16.894Z</time>
      </trkpt>
      <trkpt lat="48.01771" lon="-2.67764">
        <ele>94.949349</ele>
        <time>2022-12-13T15:52:19.896Z</time>
      </trkpt>
      <trkpt lat="48.01761" lon="-2.67754">
        <ele>94.852044</ele>
        <time>2022-12-13T15:52:22.889Z</time>
      </trkpt>
      <trkpt lat="48.0175" lon="-2.67743">
        <ele>94.753525</ele>
        <time>2022-12-13T15:52:25.869Z</time>
      </trkpt>
      <trkpt lat="48.0174" lon="-2.67731">
        <ele>94.655408</ele>
        <time>2022-12-13T15:52:28.890Z</time>
      </trkpt>
      <trkpt lat="48.01729" lon="-2.6772">
        <ele>94.555441</ele>
        <time>2022-12-13T15:52:31.892Z</time>
      </trkpt>
      <trkpt lat="48.01718" lon="-2.67709">
        <ele>94.453726</ele>
        <time>2022-12-13T15:52:34.887Z</time>
      </trkpt>
      <trkpt lat="48.01707" lon="-2.67698">
        <ele>94.351265</ele>
        <time>2022-12-13T15:52:37.898Z</time>
      </trkpt>
      <trkpt lat="48.017" lon="-2.6769">
        <ele>94.281042</ele>
        <time>2022-12-13T15:52:39.893Z</time>
      </trkpt>
      <trkpt lat="48.01692" lon="-2.67683">
        <ele>94.211952</ele>
        <time>2022-12-13T15:52:41.893Z</time>
      </trkpt>
      <trkpt lat="48.01681" lon="-2.67673">
        <ele>94.110439</ele>
        <time>2022-12-13T15:52:44.885Z</time>
      </trkpt>
      <trkpt lat="48.01672" lon="-2.67667">
        <ele>94.037465</ele>
        <time>2022-12-13T15:52:46.894Z</time>
      </trkpt>
      <trkpt lat="48.01664" lon="-2.67661">
        <ele>93.957715</ele>
        <time>2022-12-13T15:52:48.888Z</time>
      </trkpt>
      <trkpt lat="48.01656" lon="-2.67655">
        <ele>93.876135</ele>
        <time>2022-12-13T15:52:50.893Z</time>
      </trkpt>
      <trkpt lat="48.01647" lon="-2.67648">
        <ele>93.791725</ele>
        <time>2022-12-13T15:52:52.893Z</time>
      </trkpt>
      <trkpt lat="48.01638" lon="-2.67642">
        <ele>93.707574</ele>
        <time>2022-12-13T15:52:54.896Z</time>
      </trkpt>
      <trkpt lat="48.0163" lon="-2.67636">
        <ele>93.628543</ele>
        <time>2022-12-13T15:52:56.894Z</time>
      </trkpt>
      <trkpt lat="48.01621" lon="-2.6763">
        <ele>93.544134</ele>
        <time>2022-12-13T15:52:58.895Z</time>
      </trkpt>
      <trkpt lat="48.01612" lon="-2.67623">
        <ele>93.454003</ele>
        <time>2022-12-13T15:53:00.889Z</time>
      </trkpt>
      <trkpt lat="48.01603" lon="-2.67617">
        <ele>93.368031</ele>
        <time>2022-12-13T15:53:02.895Z</time>
      </trkpt>
      <trkpt lat="48.01594" lon="-2.6761">
        <ele>93.282318</ele>
        <time>2022-12-13T15:53:04.891Z</time>
      </trkpt>
      <trkpt lat="48.01584" lon="-2.67605">
        <ele>93.191673</ele>
        <time>2022-12-13T15:53:06.893Z</time>
      </trkpt>
      <trkpt lat="48.01575" lon="-2.676">
        <ele>93.108742</ele>
        <time>2022-12-13T15:53:08.886Z</time>
      </trkpt>
      <trkpt lat="48.01566" lon="-2.67595">
        <ele>93.021333</ele>
        <time>2022-12-13T15:53:10.883Z</time>
      </trkpt>
      <trkpt lat="48.01556" lon="-2.6759">
        <ele>92.933105</ele>
        <time>2022-12-13T15:53:12.889Z</time>
      </trkpt>
      <trkpt lat="48.01546" lon="-2.67585">
        <ele>92.839944</ele>
        <time>2022-12-13T15:53:14.899Z</time>
      </trkpt>
      <trkpt lat="48.01537" lon="-2.67581">
        <ele>92.753133</ele>
        <time>2022-12-13T15:53:16.891Z</time>
      </trkpt>
      <trkpt lat="48.01527" lon="-2.67578">
        <ele>92.672131</ele>
        <time>2022-12-13T15:53:18.895Z</time>
      </trkpt>
      <trkpt lat="48.01515" lon="-2.67572">
        <ele>92.558838</ele>
        <time>2022-12-13T15:53:21.882Z</time>
      </trkpt>
      <trkpt lat="48.01504" lon="-2.67566">
        <ele>92.517772</ele>
        <time>2022-12-13T15:53:24.889Z</time>
      </trkpt>
      <trkpt lat="48.01492" lon="-2.67562">
        <ele>92.551451</ele>
        <time>2022-12-13T15:53:27.898Z</time>
      </trkpt>
      <trkpt lat="48.01483" lon="-2.67558">
        <ele>92.576022</ele>
        <time>2022-12-13T15:53:29.901Z</time>
      </trkpt>
      <trkpt lat="48.01474" lon="-2.67553">
        <ele>92.601875</ele>
        <time>2022-12-13T15:53:31.872Z</time>
      </trkpt>
      <trkpt lat="48.01465" lon="-2.67549">
        <ele>92.627953</ele>
        <time>2022-12-13T15:53:33.898Z</time>
      </trkpt>
      <trkpt lat="48.01456" lon="-2.67544">
        <ele>92.65593</ele>
        <time>2022-12-13T15:53:35.878Z</time>
      </trkpt>
      <trkpt lat="48.01447" lon="-2.67539">
        <ele>92.682498</ele>
        <time>2022-12-13T15:53:37.896Z</time>
      </trkpt>
      <trkpt lat="48.01437" lon="-2.67532">
        <ele>92.711046</ele>
        <time>2022-12-13T15:53:39.879Z</time>
      </trkpt>
      <trkpt lat="48.01429" lon="-2.67525">
        <ele>92.737413</ele>
        <time>2022-12-13T15:53:41.897Z</time>
      </trkpt>
      <trkpt lat="48.0142" lon="-2.67518">
        <ele>92.765377</ele>
        <time>2022-12-13T15:53:43.896Z</time>
      </trkpt>
      <trkpt lat="48.01411" lon="-2.67512">
        <ele>92.792524</ele>
        <time>2022-12-13T15:53:45.877Z</time>
      </trkpt>
      <trkpt lat="48.01402" lon="-2.67504">
        <ele>92.819457</ele>
        <time>2022-12-13T15:53:47.891Z</time>
      </trkpt>
      <trkpt lat="48.01394" lon="-2.67497">
        <ele>92.845647</ele>
        <time>2022-12-13T15:53:49.897Z</time>
      </trkpt>
      <trkpt lat="48.01385" lon="-2.6749">
        <ele>92.872761</ele>
        <time>2022-12-13T15:53:51.894Z</time>
      </trkpt>
      <trkpt lat="48.01376" lon="-2.67484">
        <ele>92.899501</ele>
        <time>2022-12-13T15:53:53.894Z</time>
      </trkpt>
      <trkpt lat="48.01367" lon="-2.67477">
        <ele>92.926567</ele>
        <time>2022-12-13T15:53:55.869Z</time>
      </trkpt>
      <trkpt lat="48.01358" lon="-2.67471">
        <ele>92.954047</ele>
        <time>2022-12-13T15:53:57.897Z</time>
      </trkpt>
      <trkpt lat="48.0135" lon="-2.67466">
        <ele>92.979581</ele>
        <time>2022-12-13T15:53:59.878Z</time>
      </trkpt>
      <trkpt lat="48.0134" lon="-2.67461">
        <ele>92.977133</ele>
        <time>2022-12-13T15:54:01.879Z</time>
      </trkpt>
      <trkpt lat="48.01328" lon="-2.67457">
        <ele>92.921788</ele>
        <time>2022-12-13T15:54:04.901Z</time>
      </trkpt>
      <trkpt lat="48.01315" lon="-2.67452">
        <ele>92.865252</ele>
        <time>2022-12-13T15:54:07.898Z</time>
      </trkpt>
      <trkpt lat="48.01306" lon="-2.67449">
        <ele>92.826137</ele>
        <time>2022-12-13T15:54:09.896Z</time>
      </trkpt>
      <trkpt lat="48.01298" lon="-2.67446">
        <ele>92.787087</ele>
        <time>2022-12-13T15:54:11.896Z</time>
      </trkpt>
      <trkpt lat="48.01285" lon="-2.67442">
        <ele>92.731593</ele>
        <time>2022-12-13T15:54:14.895Z</time>
      </trkpt>
      <trkpt lat="48.01272" lon="-2.67435">
        <ele>92.673609</ele>
        <time>2022-12-13T15:54:17.871Z</time>
      </trkpt>
      <trkpt lat="48.0126" lon="-2.67427">
        <ele>92.616525</ele>
        <time>2022-12-13T15:54:20.892Z</time>
      </trkpt>
      <trkpt lat="48.01252" lon="-2.67421">
        <ele>92.577021</ele>
        <time>2022-12-13T15:54:22.889Z</time>
      </trkpt>
      <trkpt lat="48.01244" lon="-2.67414">
        <ele>92.536098</ele>
        <time>2022-12-13T15:54:24.897Z</time>
      </trkpt>
      <trkpt lat="48.01236" lon="-2.67406">
        <ele>92.494456</ele>
        <time>2022-12-13T15:54:26.888Z</time>
      </trkpt>
      <trkpt lat="48.01228" lon="-2.67399">
        <ele>92.454487</ele>
        <time>2022-12-13T15:54:28.880Z</time>
      </trkpt>
      <trkpt lat="48.01217" lon="-2.67388">
        <ele>92.396824</ele>
        <time>2022-12-13T15:54:31.881Z</time>
      </trkpt>
      <trkpt lat="48.01209" lon="-2.6738">
        <ele>92.356279</ele>
        <time>2022-12-13T15:54:33.883Z</time>
      </trkpt>
      <trkpt lat="48.01203" lon="-2.67371">
        <ele>92.317411</ele>
        <time>2022-12-13T15:54:35.876Z</time>
      </trkpt>
      <trkpt lat="48.01195" lon="-2.67363">
        <ele>92.277006</ele>
        <time>2022-12-13T15:54:37.896Z</time>
      </trkpt>
      <trkpt lat="48.01184" lon="-2.67352">
        <ele>92.218219</ele>
        <time>2022-12-13T15:54:40.880Z</time>
      </trkpt>
      <trkpt lat="48.01176" lon="-2.67344">
        <ele>92.183813</ele>
        <time>2022-12-13T15:54:42.893Z</time>
      </trkpt>
      <trkpt lat="48.01168" lon="-2.67336">
        <ele>92.150301</ele>
        <time>2022-12-13T15:54:44.899Z</time>
      </trkpt>
      <trkpt lat="48.0116" lon="-2.67328">
        <ele>92.11657</ele>
        <time>2022-12-13T15:54:46.893Z</time>
      </trkpt>
      <trkpt lat="48.01152" lon="-2.6732">
        <ele>92.08247</ele>
        <time>2022-12-13T15:54:48.894Z</time>
      </trkpt>
      <trkpt lat="48.01142" lon="-2.67308">
        <ele>92.034581</ele>
        <time>2022-12-13T15:54:51.891Z</time>
      </trkpt>
      <trkpt lat="48.01131" lon="-2.67298">
        <ele>91.989057</ele>
        <time>2022-12-13T15:54:54.897Z</time>
      </trkpt>
      <trkpt lat="48.01122" lon="-2.67289">
        <ele>91.950744</ele>
        <time>2022-12-13T15:54:57.878Z</time>
      </trkpt>
      <trkpt lat="48.01114" lon="-2.67281">
        <ele>91.91462</ele>
        <time>2022-12-13T15:55:00.897Z</time>
      </trkpt>
      <trkpt lat="48.01104" lon="-2.67272">
        <ele>91.873503</ele>
        <time>2022-12-13T15:55:03.886Z</time>
      </trkpt>
      <trkpt lat="48.01095" lon="-2.67262">
        <ele>91.833594</ele>
        <time>2022-12-13T15:55:06.883Z</time>
      </trkpt>
      <trkpt lat="48.01087" lon="-2.67253">
        <ele>91.798453</ele>
        <time>2022-12-13T15:55:09.887Z</time>
      </trkpt>
      <trkpt lat="48.01079" lon="-2.67244">
        <ele>91.760921</ele>
        <time>2022-12-13T15:55:13.879Z</time>
      </trkpt>
      <trkpt lat="48.0107" lon="-2.6725">
        <ele>91.724553</ele>
        <time>2022-12-13T15:55:17.882Z</time>
      </trkpt>
      <trkpt lat="48.01066" lon="-2.67262">
        <ele>91.691919</ele>
        <time>2022-12-13T15:55:22.878Z</time>
      </trkpt>
      <trkpt lat="48.01058" lon="-2.67269">
        <ele>91.658817</ele>
        <time>2022-12-13T15:55:25.876Z</time>
      </trkpt>
      <trkpt lat="48.01048" lon="-2.6726">
        <ele>91.616907</ele>
        <time>2022-12-13T15:55:28.879Z</time>
      </trkpt>
      <trkpt lat="48.0104" lon="-2.67251">
        <ele>91.581675</ele>
        <time>2022-12-13T15:55:30.872Z</time>
      </trkpt>
      <trkpt lat="48.01032" lon="-2.67241">
        <ele>91.590615</ele>
        <time>2022-12-13T15:55:32.897Z</time>
      </trkpt>
      <trkpt lat="48.01023" lon="-2.67231">
        <ele>91.623483</ele>
        <time>2022-12-13T15:55:34.896Z</time>
      </trkpt>
      <trkpt lat="48.01014" lon="-2.67222">
        <ele>91.654628</ele>
        <time>2022-12-13T15:55:36.894Z</time>
      </trkpt>
      <trkpt lat="48.01005" lon="-2.67211">
        <ele>91.688064</ele>
        <time>2022-12-13T15:55:38.897Z</time>
      </trkpt>
      <trkpt lat="48.00995" lon="-2.67199">
        <ele>91.723</ele>
        <time>2022-12-13T15:55:40.895Z</time>
      </trkpt>
      <trkpt lat="48.00988" lon="-2.67187">
        <ele>91.754434</ele>
        <time>2022-12-13T15:55:42.897Z</time>
      </trkpt>
      <trkpt lat="48.00981" lon="-2.67174">
        <ele>91.786186</ele>
        <time>2022-12-13T15:55:44.896Z</time>
      </trkpt>
      <trkpt lat="48.00974" lon="-2.67162">
        <ele>91.816038</ele>
        <time>2022-12-13T15:55:46.894Z</time>
      </trkpt>
      <trkpt lat="48.00968" lon="-2.67149">
        <ele>91.846227</ele>
        <time>2022-12-13T15:55:48.891Z</time>
      </trkpt>
      <trkpt lat="48.00962" lon="-2.67136">
        <ele>91.876688</ele>
        <time>2022-12-13T15:55:50.895Z</time>
      </trkpt>
      <trkpt lat="48.00956" lon="-2.67122">
        <ele>91.907497</ele>
        <time>2022-12-13T15:55:52.882Z</time>
      </trkpt>
      <trkpt lat="48.00951" lon="-2.67109">
        <ele>91.936377</ele>
        <time>2022-12-13T15:55:54.893Z</time>
      </trkpt>
      <trkpt lat="48.00941" lon="-2.67097">
        <ele>91.972016</ele>
        <time>2022-12-13T15:55:57.877Z</time>
      </trkpt>
      <trkpt lat="48.00931" lon="-2.67092">
        <ele>92.002908</ele>
        <time>2022-12-13T15:56:01.898Z</time>
      </trkpt>
      <trkpt lat="48.0092" lon="-2.67091">
        <ele>92.033052</ele>
        <time>2022-12-13T15:56:05.871Z</time>
      </trkpt>
      <trkpt lat="48.00911" lon="-2.67081">
        <ele>92.065566</ele>
        <time>2022-12-13T15:56:09.881Z</time>
      </trkpt>
      <trkpt lat="48.0091" lon="-2.67066">
        <ele>92.090143</ele>
        <time>2022-12-13T15:56:12.878Z</time>
      </trkpt>
      <trkpt lat="48.0091" lon="-2.67048">
        <ele>92.111659</ele>
        <time>2022-12-13T15:56:15.874Z</time>
      </trkpt>
      <trkpt lat="48.0091" lon="-2.67029">
        <ele>92.135362</ele>
        <time>2022-12-13T15:56:18.894Z</time>
      </trkpt>
      <trkpt lat="48.00911" lon="-2.67009">
        <ele>92.159271</ele>
        <time>2022-12-13T15:56:21.895Z</time>
      </trkpt>
      <trkpt lat="48.00914" lon="-2.6699">
        <ele>92.183158</ele>
        <time>2022-12-13T15:56:24.878Z</time>
      </trkpt>
      <trkpt lat="48.00919" lon="-2.66973">
        <ele>92.20562</ele>
        <time>2022-12-13T15:56:27.896Z</time>
      </trkpt>
      <trkpt lat="48.00925" lon="-2.66957">
        <ele>92.227954</ele>
        <time>2022-12-13T15:56:30.897Z</time>
      </trkpt>
      <trkpt lat="48.00931" lon="-2.6694">
        <ele>92.250661</ele>
        <time>2022-12-13T15:56:33.888Z</time>
      </trkpt>
      <trkpt lat="48.00934" lon="-2.66928">
        <ele>92.267245</ele>
        <time>2022-12-13T15:56:35.877Z</time>
      </trkpt>
      <trkpt lat="48.00941" lon="-2.66914">
        <ele>92.288534</ele>
        <time>2022-12-13T15:56:38.880Z</time>
      </trkpt>
      <trkpt lat="48.00949" lon="-2.66897">
        <ele>92.312991</ele>
        <time>2022-12-13T15:56:41.889Z</time>
      </trkpt>
      <trkpt lat="48.00951" lon="-2.66884">
        <ele>92.329602</ele>
        <time>2022-12-13T15:56:43.879Z</time>
      </trkpt>
      <trkpt lat="48.00953" lon="-2.66869">
        <ele>92.347362</ele>
        <time>2022-12-13T15:56:45.876Z</time>
      </trkpt>
      <trkpt lat="48.00958" lon="-2.66856">
        <ele>92.366376</ele>
        <time>2022-12-13T15:56:47.888Z</time>
      </trkpt>
      <trkpt lat="48.00961" lon="-2.66841">
        <ele>92.385571</ele>
        <time>2022-12-13T15:56:49.895Z</time>
      </trkpt>
      <trkpt lat="48.00964" lon="-2.66826">
        <ele>92.403984</ele>
        <time>2022-12-13T15:56:51.876Z</time>
      </trkpt>
      <trkpt lat="48.00967" lon="-2.66812">
        <ele>92.394483</ele>
        <time>2022-12-13T15:56:53.897Z</time>
      </trkpt>
      <trkpt lat="48.0097" lon="-2.66797">
        <ele>92.376893</ele>
        <time>2022-12-13T15:56:55.874Z</time>
      </trkpt>
      <trkpt lat="48.00972" lon="-2.66782">
        <ele>92.359527</ele>
        <time>2022-12-13T15:56:57.918Z</time>
      </trkpt>
      <trkpt lat="48.00974" lon="-2.66766">
        <ele>92.341716</ele>
        <time>2022-12-13T15:56:59.888Z</time>
      </trkpt>
      <trkpt lat="48.00976" lon="-2.66753">
        <ele>92.325909</ele>
        <time>2022-12-13T15:57:01.881Z</time>
      </trkpt>
      <trkpt lat="48.00977" lon="-2.66739">
        <ele>92.310479</ele>
        <time>2022-12-13T15:57:03.895Z</time>
      </trkpt>
      <trkpt lat="48.00979" lon="-2.66721">
        <ele>92.288507</ele>
        <time>2022-12-13T15:57:06.873Z</time>
      </trkpt>
      <trkpt lat="48.00981" lon="-2.66707">
        <ele>92.272899</ele>
        <time>2022-12-13T15:57:08.894Z</time>
      </trkpt>
      <trkpt lat="48.00981" lon="-2.66694">
        <ele>92.257469</ele>
        <time>2022-12-13T15:57:10.895Z</time>
      </trkpt>
      <trkpt lat="48.00984" lon="-2.66679">
        <ele>92.240392</ele>
        <time>2022-12-13T15:57:12.888Z</time>
      </trkpt>
      <trkpt lat="48.00988" lon="-2.66666">
        <ele>92.223588</ele>
        <time>2022-12-13T15:57:14.908Z</time>
      </trkpt>
      <trkpt lat="48.00992" lon="-2.66652">
        <ele>92.206817</ele>
        <time>2022-12-13T15:57:16.885Z</time>
      </trkpt>
      <trkpt lat="48.00995" lon="-2.66639">
        <ele>92.190647</ele>
        <time>2022-12-13T15:57:18.880Z</time>
      </trkpt>
      <trkpt lat="48.00999" lon="-2.66625">
        <ele>92.174009</ele>
        <time>2022-12-13T15:57:21.172Z</time>
      </trkpt>
      <trkpt lat="48.01002" lon="-2.66612">
        <ele>92.15809</ele>
        <time>2022-12-13T15:57:22.897Z</time>
      </trkpt>
      <trkpt lat="48.01007" lon="-2.666">
        <ele>92.142232</ele>
        <time>2022-12-13T15:57:24.891Z</time>
      </trkpt>
      <trkpt lat="48.01012" lon="-2.66587">
        <ele>92.123922</ele>
        <time>2022-12-13T15:57:27.884Z</time>
      </trkpt>
      <trkpt lat="48.01017" lon="-2.66571">
        <ele>92.104128</ele>
        <time>2022-12-13T15:57:30.878Z</time>
      </trkpt>
      <trkpt lat="48.01022" lon="-2.66553">
        <ele>92.102983</ele>
        <time>2022-12-13T15:57:33.885Z</time>
      </trkpt>
      <trkpt lat="48.01027" lon="-2.66536">
        <ele>92.104736</ele>
        <time>2022-12-13T15:57:36.884Z</time>
      </trkpt>
      <trkpt lat="48.01033" lon="-2.66524">
        <ele>92.10612</ele>
        <time>2022-12-13T15:57:38.898Z</time>
      </trkpt>
      <trkpt lat="48.01036" lon="-2.66511">
        <ele>92.10744</ele>
        <time>2022-12-13T15:57:40.894Z</time>
      </trkpt>
      <trkpt lat="48.01041" lon="-2.66493">
        <ele>92.109226</ele>
        <time>2022-12-13T15:57:43.897Z</time>
      </trkpt>
      <trkpt lat="48.01047" lon="-2.6648">
        <ele>92.110679</ele>
        <time>2022-12-13T15:57:46.878Z</time>
      </trkpt>
      <trkpt lat="48.01051" lon="-2.66465">
        <ele>92.112223</ele>
        <time>2022-12-13T15:57:49.882Z</time>
      </trkpt>
      <trkpt lat="48.01057" lon="-2.66449">
        <ele>92.113928</ele>
        <time>2022-12-13T15:57:52.896Z</time>
      </trkpt>
      <trkpt lat="48.01063" lon="-2.66431">
        <ele>92.115778</ele>
        <time>2022-12-13T15:57:55.873Z</time>
      </trkpt>
      <trkpt lat="48.01067" lon="-2.66418">
        <ele>92.117092</ele>
        <time>2022-12-13T15:57:57.893Z</time>
      </trkpt>
      <trkpt lat="48.01071" lon="-2.66399">
        <ele>92.118957</ele>
        <time>2022-12-13T15:58:00.895Z</time>
      </trkpt>
      <trkpt lat="48.01073" lon="-2.66385">
        <ele>92.12031</ele>
        <time>2022-12-13T15:58:02.884Z</time>
      </trkpt>
      <trkpt lat="48.01074" lon="-2.66371">
        <ele>92.121585</ele>
        <time>2022-12-13T15:58:04.894Z</time>
      </trkpt>
      <trkpt lat="48.01073" lon="-2.66353">
        <ele>92.123342</ele>
        <time>2022-12-13T15:58:07.872Z</time>
      </trkpt>
      <trkpt lat="48.01071" lon="-2.66335">
        <ele>92.125</ele>
        <time>2022-12-13T15:58:10.880Z</time>
      </trkpt>
      <trkpt lat="48.01068" lon="-2.66319">
        <ele>92.125987</ele>
        <time>2022-12-13T15:58:13.872Z</time>
      </trkpt>
      <trkpt lat="48.01064" lon="-2.66304">
        <ele>92.080252</ele>
        <time>2022-12-13T15:58:16.879Z</time>
      </trkpt>
      <trkpt lat="48.01058" lon="-2.66289">
        <ele>92.030583</ele>
        <time>2022-12-13T15:58:19.875Z</time>
      </trkpt>
      <trkpt lat="48.0105" lon="-2.66274">
        <ele>91.975559</ele>
        <time>2022-12-13T15:58:22.871Z</time>
      </trkpt>
      <trkpt lat="48.0104" lon="-2.6626">
        <ele>91.918423</ele>
        <time>2022-12-13T15:58:25.872Z</time>
      </trkpt>
      <trkpt lat="48.0103" lon="-2.66246">
        <ele>91.861359</ele>
        <time>2022-12-13T15:58:28.895Z</time>
      </trkpt>
      <trkpt lat="48.0102" lon="-2.66233">
        <ele>91.804368</ele>
        <time>2022-12-13T15:58:31.896Z</time>
      </trkpt>
      <trkpt lat="48.01011" lon="-2.6622">
        <ele>91.749712</ele>
        <time>2022-12-13T15:58:34.886Z</time>
      </trkpt>
      <trkpt lat="48.01002" lon="-2.66208">
        <ele>91.700955</ele>
        <time>2022-12-13T15:58:37.881Z</time>
      </trkpt>
      <trkpt lat="48.00994" lon="-2.66197">
        <ele>91.652436</ele>
        <time>2022-12-13T15:58:40.896Z</time>
      </trkpt>
      <trkpt lat="48.00985" lon="-2.66184">
        <ele>91.601703</ele>
        <time>2022-12-13T15:58:43.881Z</time>
      </trkpt>
      <trkpt lat="48.00976" lon="-2.66171">
        <ele>91.545257</ele>
        <time>2022-12-13T15:58:46.883Z</time>
      </trkpt>
      <trkpt lat="48.0097" lon="-2.66161">
        <ele>91.505968</ele>
        <time>2022-12-13T15:58:48.879Z</time>
      </trkpt>
      <trkpt lat="48.00963" lon="-2.66151">
        <ele>91.467465</ele>
        <time>2022-12-13T15:58:50.873Z</time>
      </trkpt>
      <trkpt lat="48.00959" lon="-2.66139">
        <ele>91.428416</ele>
        <time>2022-12-13T15:58:52.885Z</time>
      </trkpt>
      <trkpt lat="48.00952" lon="-2.66122">
        <ele>91.373905</ele>
        <time>2022-12-13T15:58:55.869Z</time>
      </trkpt>
      <trkpt lat="48.00949" lon="-2.66109">
        <ele>91.31172</ele>
        <time>2022-12-13T15:58:57.885Z</time>
      </trkpt>
      <trkpt lat="48.00945" lon="-2.66096">
        <ele>91.240257</ele>
        <time>2022-12-13T15:58:59.892Z</time>
      </trkpt>
      <trkpt lat="48.00941" lon="-2.66084">
        <ele>91.170986</ele>
        <time>2022-12-13T15:59:01.900Z</time>
      </trkpt>
      <trkpt lat="48.00937" lon="-2.66067">
        <ele>91.077719</ele>
        <time>2022-12-13T15:59:04.885Z</time>
      </trkpt>
      <trkpt lat="48.00932" lon="-2.6605">
        <ele>90.984225</ele>
        <time>2022-12-13T15:59:07.896Z</time>
      </trkpt>
      <trkpt lat="48.00928" lon="-2.66036">
        <ele>90.907189</ele>
        <time>2022-12-13T15:59:10.889Z</time>
      </trkpt>
      <trkpt lat="48.00923" lon="-2.66021">
        <ele>90.826184</ele>
        <time>2022-12-13T15:59:13.897Z</time>
      </trkpt>
      <trkpt lat="48.00918" lon="-2.66009">
        <ele>90.750786</ele>
        <time>2022-12-13T15:59:16.880Z</time>
      </trkpt>
      <trkpt lat="48.00909" lon="-2.66">
        <ele>90.669764</ele>
        <time>2022-12-13T15:59:18.879Z</time>
      </trkpt>
      <trkpt lat="48.00901" lon="-2.65992">
        <ele>90.599141</ele>
        <time>2022-12-13T15:59:20.881Z</time>
      </trkpt>
      <trkpt lat="48.00892" lon="-2.65987">
        <ele>90.526756</ele>
        <time>2022-12-13T15:59:22.882Z</time>
      </trkpt>
      <trkpt lat="48.00881" lon="-2.65983">
        <ele>90.440263</ele>
        <time>2022-12-13T15:59:25.869Z</time>
      </trkpt>
      <trkpt lat="48.00869" lon="-2.6598">
        <ele>90.345689</ele>
        <time>2022-12-13T15:59:28.894Z</time>
      </trkpt>
      <trkpt lat="48.00856" lon="-2.65977">
        <ele>90.245219</ele>
        <time>2022-12-13T15:59:31.891Z</time>
      </trkpt>
      <trkpt lat="48.00847" lon="-2.65975">
        <ele>90.176966</ele>
        <time>2022-12-13T15:59:33.889Z</time>
      </trkpt>
      <trkpt lat="48.00837" lon="-2.65973">
        <ele>90.104547</ele>
        <time>2022-12-13T15:59:35.874Z</time>
      </trkpt>
      <trkpt lat="48.00828" lon="-2.65972">
        <ele>90.033511</ele>
        <time>2022-12-13T15:59:37.894Z</time>
      </trkpt>
      <trkpt lat="48.00815" lon="-2.65969">
        <ele>89.871349</ele>
        <time>2022-12-13T15:59:40.893Z</time>
      </trkpt>
      <trkpt lat="48.00805" lon="-2.65967">
        <ele>89.73696</ele>
        <time>2022-12-13T15:59:42.892Z</time>
      </trkpt>
      <trkpt lat="48.00796" lon="-2.65964">
        <ele>89.599928</ele>
        <time>2022-12-13T15:59:44.878Z</time>
      </trkpt>
      <trkpt lat="48.00787" lon="-2.65961">
        <ele>89.46087</ele>
        <time>2022-12-13T15:59:46.896Z</time>
      </trkpt>
      <trkpt lat="48.00774" lon="-2.65958">
        <ele>89.269854</ele>
        <time>2022-12-13T15:59:49.892Z</time>
      </trkpt>
      <trkpt lat="48.00762" lon="-2.65955">
        <ele>89.096872</ele>
        <time>2022-12-13T15:59:52.894Z</time>
      </trkpt>
      <trkpt lat="48.0075" lon="-2.65951">
        <ele>88.918726</ele>
        <time>2022-12-13T15:59:55.868Z</time>
      </trkpt>
      <trkpt lat="48.00737" lon="-2.65949">
        <ele>88.740157</ele>
        <time>2022-12-13T15:59:58.896Z</time>
      </trkpt>
      <trkpt lat="48.00726" lon="-2.65946">
        <ele>88.575389</ele>
        <time>2022-12-13T16:00:01.890Z</time>
      </trkpt>
      <trkpt lat="48.00716" lon="-2.65945">
        <ele>88.427242</ele>
        <time>2022-12-13T16:00:04.896Z</time>
      </trkpt>
      <trkpt lat="48.00706" lon="-2.65942">
        <ele>88.283143</ele>
        <time>2022-12-13T16:00:07.895Z</time>
      </trkpt>
      <trkpt lat="48.00696" lon="-2.65939">
        <ele>88.140824</ele>
        <time>2022-12-13T16:00:10.889Z</time>
      </trkpt>
      <trkpt lat="48.00685" lon="-2.65937">
        <ele>87.980615</ele>
        <time>2022-12-13T16:00:13.880Z</time>
      </trkpt>
      <trkpt lat="48.00675" lon="-2.65935">
        <ele>87.825769</ele>
        <time>2022-12-13T16:00:16.892Z</time>
      </trkpt>
      <trkpt lat="48.00664" lon="-2.65932">
        <ele>87.665543</ele>
        <time>2022-12-13T16:00:19.882Z</time>
      </trkpt>
      <trkpt lat="48.00652" lon="-2.65928">
        <ele>87.492205</ele>
        <time>2022-12-13T16:00:22.887Z</time>
      </trkpt>
      <trkpt lat="48.00641" lon="-2.65926">
        <ele>87.487571</ele>
        <time>2022-12-13T16:00:24.897Z</time>
      </trkpt>
      <trkpt lat="48.00632" lon="-2.65924">
        <ele>87.647104</ele>
        <time>2022-12-13T16:00:26.896Z</time>
      </trkpt>
      <trkpt lat="48.00621" lon="-2.65922">
        <ele>87.843236</ele>
        <time>2022-12-13T16:00:29.897Z</time>
      </trkpt>
      <trkpt lat="48.00609" lon="-2.6592">
        <ele>88.052632</ele>
        <time>2022-12-13T16:00:33.887Z</time>
      </trkpt>
      <trkpt lat="48.00599" lon="-2.65918">
        <ele>88.222341</ele>
        <time>2022-12-13T16:00:36.893Z</time>
      </trkpt>
      <trkpt lat="48.00588" lon="-2.65916">
        <ele>88.426555</ele>
        <time>2022-12-13T16:00:39.896Z</time>
      </trkpt>
      <trkpt lat="48.00575" lon="-2.65912">
        <ele>88.647309</ele>
        <time>2022-12-13T16:00:42.874Z</time>
      </trkpt>
      <trkpt lat="48.00563" lon="-2.65906">
        <ele>88.869588</ele>
        <time>2022-12-13T16:00:45.876Z</time>
      </trkpt>
      <trkpt lat="48.00552" lon="-2.65899">
        <ele>89.072614</ele>
        <time>2022-12-13T16:00:48.899Z</time>
      </trkpt>
      <trkpt lat="48.00541" lon="-2.65889">
        <ele>89.295283</ele>
        <time>2022-12-13T16:00:51.889Z</time>
      </trkpt>
      <trkpt lat="48.00532" lon="-2.65877">
        <ele>89.515862</ele>
        <time>2022-12-13T16:00:54.891Z</time>
      </trkpt>
      <trkpt lat="48.00523" lon="-2.65865">
        <ele>89.722489</ele>
        <time>2022-12-13T16:00:57.872Z</time>
      </trkpt>
      <trkpt lat="48.00515" lon="-2.6585">
        <ele>89.940614</ele>
        <time>2022-12-13T16:01:00.893Z</time>
      </trkpt>
      <trkpt lat="48.00509" lon="-2.6584">
        <ele>90.101278</ele>
        <time>2022-12-13T16:01:02.879Z</time>
      </trkpt>
      <trkpt lat="48.00504" lon="-2.65828">
        <ele>90.268337</ele>
        <time>2022-12-13T16:01:04.901Z</time>
      </trkpt>
      <trkpt lat="48.005" lon="-2.65814">
        <ele>90.441736</ele>
        <time>2022-12-13T16:01:06.892Z</time>
      </trkpt>
      <trkpt lat="48.00495" lon="-2.65802">
        <ele>90.55604</ele>
        <time>2022-12-13T16:01:08.881Z</time>
      </trkpt>
      <trkpt lat="48.00492" lon="-2.65788">
        <ele>90.617481</ele>
        <time>2022-12-13T16:01:10.875Z</time>
      </trkpt>
      <trkpt lat="48.00488" lon="-2.65775">
        <ele>90.681352</ele>
        <time>2022-12-13T16:01:12.897Z</time>
      </trkpt>
      <trkpt lat="48.00485" lon="-2.6576">
        <ele>90.746246</ele>
        <time>2022-12-13T16:01:14.896Z</time>
      </trkpt>
      <trkpt lat="48.00482" lon="-2.65746">
        <ele>90.811958</ele>
        <time>2022-12-13T16:01:16.901Z</time>
      </trkpt>
      <trkpt lat="48.00479" lon="-2.6573">
        <ele>90.881939</ele>
        <time>2022-12-13T16:01:18.898Z</time>
      </trkpt>
      <trkpt lat="48.00475" lon="-2.65717">
        <ele>90.944375</ele>
        <time>2022-12-13T16:01:20.893Z</time>
      </trkpt>
      <trkpt lat="48.00471" lon="-2.65703">
        <ele>91.007866</ele>
        <time>2022-12-13T16:01:22.891Z</time>
      </trkpt>
      <trkpt lat="48.00468" lon="-2.65689">
        <ele>91.071333</ele>
        <time>2022-12-13T16:01:24.897Z</time>
      </trkpt>
      <trkpt lat="48.00465" lon="-2.65676">
        <ele>91.130015</ele>
        <time>2022-12-13T16:01:26.894Z</time>
      </trkpt>
      <trkpt lat="48.0046" lon="-2.65658">
        <ele>91.214339</ele>
        <time>2022-12-13T16:01:29.882Z</time>
      </trkpt>
      <trkpt lat="48.00457" lon="-2.65644">
        <ele>91.274957</ele>
        <time>2022-12-13T16:01:31.897Z</time>
      </trkpt>
      <trkpt lat="48.00454" lon="-2.65631">
        <ele>91.33705</ele>
        <time>2022-12-13T16:01:33.900Z</time>
      </trkpt>
      <trkpt lat="48.00451" lon="-2.65617">
        <ele>91.399736</ele>
        <time>2022-12-13T16:01:35.874Z</time>
      </trkpt>
      <trkpt lat="48.00447" lon="-2.65601">
        <ele>91.471637</ele>
        <time>2022-12-13T16:01:37.897Z</time>
      </trkpt>
      <trkpt lat="48.00444" lon="-2.65586">
        <ele>91.537619</ele>
        <time>2022-12-13T16:01:39.902Z</time>
      </trkpt>
      <trkpt lat="48.0044" lon="-2.65572">
        <ele>91.602941</ele>
        <time>2022-12-13T16:01:41.892Z</time>
      </trkpt>
      <trkpt lat="48.00437" lon="-2.65559">
        <ele>91.663172</ele>
        <time>2022-12-13T16:01:43.897Z</time>
      </trkpt>
      <trkpt lat="48.00434" lon="-2.65545">
        <ele>91.593882</ele>
        <time>2022-12-13T16:01:45.879Z</time>
      </trkpt>
      <trkpt lat="48.00431" lon="-2.65532">
        <ele>91.469852</ele>
        <time>2022-12-13T16:01:47.894Z</time>
      </trkpt>
      <trkpt lat="48.00428" lon="-2.65518">
        <ele>91.348661</ele>
        <time>2022-12-13T16:01:49.895Z</time>
      </trkpt>
      <trkpt lat="48.00423" lon="-2.65505">
        <ele>91.221448</ele>
        <time>2022-12-13T16:01:51.894Z</time>
      </trkpt>
      <trkpt lat="48.00418" lon="-2.65487">
        <ele>91.055941</ele>
        <time>2022-12-13T16:01:54.874Z</time>
      </trkpt>
      <trkpt lat="48.00412" lon="-2.6547">
        <ele>90.893007</ele>
        <time>2022-12-13T16:01:57.898Z</time>
      </trkpt>
      <trkpt lat="48.00409" lon="-2.65458">
        <ele>90.77643</ele>
        <time>2022-12-13T16:01:59.883Z</time>
      </trkpt>
      <trkpt lat="48.00404" lon="-2.65445">
        <ele>90.651122</ele>
        <time>2022-12-13T16:02:01.879Z</time>
      </trkpt>
      <trkpt lat="48.00398" lon="-2.65426">
        <ele>90.473388</ele>
        <time>2022-12-13T16:02:04.896Z</time>
      </trkpt>
      <trkpt lat="48.00393" lon="-2.65414">
        <ele>90.347632</ele>
        <time>2022-12-13T16:02:06.894Z</time>
      </trkpt>
      <trkpt lat="48.00388" lon="-2.65401">
        <ele>90.224944</ele>
        <time>2022-12-13T16:02:08.894Z</time>
      </trkpt>
      <trkpt lat="48.00383" lon="-2.6539">
        <ele>90.104152</ele>
        <time>2022-12-13T16:02:10.895Z</time>
      </trkpt>
      <trkpt lat="48.00377" lon="-2.65377">
        <ele>89.970565</ele>
        <time>2022-12-13T16:02:12.892Z</time>
      </trkpt>
      <trkpt lat="48.00371" lon="-2.65364">
        <ele>89.841947</ele>
        <time>2022-12-13T16:02:14.896Z</time>
      </trkpt>
      <trkpt lat="48.00366" lon="-2.65351">
        <ele>89.7055</ele>
        <time>2022-12-13T16:02:16.897Z</time>
      </trkpt>
      <trkpt lat="48.0036" lon="-2.65337">
        <ele>89.572448</ele>
        <time>2022-12-13T16:02:18.897Z</time>
      </trkpt>
      <trkpt lat="48.00356" lon="-2.65325">
        <ele>89.456454</ele>
        <time>2022-12-13T16:02:20.891Z</time>
      </trkpt>
      <trkpt lat="48.00348" lon="-2.6531">
        <ele>89.465614</ele>
        <time>2022-12-13T16:02:23.895Z</time>
      </trkpt>
      <trkpt lat="48.00342" lon="-2.65294">
        <ele>89.603931</ele>
        <time>2022-12-13T16:02:26.898Z</time>
      </trkpt>
      <trkpt lat="48.00335" lon="-2.65277">
        <ele>89.760271</ele>
        <time>2022-12-13T16:02:29.891Z</time>
      </trkpt>
      <trkpt lat="48.00328" lon="-2.6526">
        <ele>89.911316</ele>
        <time>2022-12-13T16:02:32.893Z</time>
      </trkpt>
      <trkpt lat="48.00323" lon="-2.65248">
        <ele>90.022401</ele>
        <time>2022-12-13T16:02:34.884Z</time>
      </trkpt>
      <trkpt lat="48.00314" lon="-2.65232">
        <ele>90.178863</ele>
        <time>2022-12-13T16:02:37.894Z</time>
      </trkpt>
      <trkpt lat="48.00304" lon="-2.65219">
        <ele>90.328174</ele>
        <time>2022-12-13T16:02:40.872Z</time>
      </trkpt>
      <trkpt lat="48.00296" lon="-2.65209">
        <ele>90.451093</ele>
        <time>2022-12-13T16:02:43.882Z</time>
      </trkpt>
      <trkpt lat="48.00288" lon="-2.65199">
        <ele>90.569564</ele>
        <time>2022-12-13T16:02:46.892Z</time>
      </trkpt>
      <trkpt lat="48.00277" lon="-2.65189">
        <ele>90.71008</ele>
        <time>2022-12-13T16:02:49.873Z</time>
      </trkpt>
      <trkpt lat="48.00266" lon="-2.65181">
        <ele>90.852337</ele>
        <time>2022-12-13T16:02:52.887Z</time>
      </trkpt>
      <trkpt lat="48.00257" lon="-2.65175">
        <ele>90.969882</ele>
        <time>2022-12-13T16:02:54.876Z</time>
      </trkpt>
      <trkpt lat="48.00246" lon="-2.65172">
        <ele>91.092592</ele>
        <time>2022-12-13T16:02:56.893Z</time>
      </trkpt>
      <trkpt lat="48.00236" lon="-2.65169">
        <ele>91.214674</ele>
        <time>2022-12-13T16:02:58.895Z</time>
      </trkpt>
      <trkpt lat="48.00226" lon="-2.65167">
        <ele>91.328256</ele>
        <time>2022-12-13T16:03:00.895Z</time>
      </trkpt>
      <trkpt lat="48.00215" lon="-2.65165">
        <ele>91.404348</ele>
        <time>2022-12-13T16:03:02.893Z</time>
      </trkpt>
      <trkpt lat="48.00205" lon="-2.65166">
        <ele>91.212833</ele>
        <time>2022-12-13T16:03:04.893Z</time>
      </trkpt>
      <trkpt lat="48.00194" lon="-2.65168">
        <ele>91.01477</ele>
        <time>2022-12-13T16:03:06.879Z</time>
      </trkpt>
      <trkpt lat="48.00184" lon="-2.6517">
        <ele>90.818311</ele>
        <time>2022-12-13T16:03:08.874Z</time>
      </trkpt>
      <trkpt lat="48.00174" lon="-2.65174">
        <ele>90.630947</ele>
        <time>2022-12-13T16:03:10.893Z</time>
      </trkpt>
      <trkpt lat="48.00165" lon="-2.65178">
        <ele>90.448533</ele>
        <time>2022-12-13T16:03:12.896Z</time>
      </trkpt>
      <trkpt lat="48.00156" lon="-2.65183">
        <ele>90.270833</ele>
        <time>2022-12-13T16:03:14.874Z</time>
      </trkpt>
      <trkpt lat="48.00146" lon="-2.65186">
        <ele>90.089571</ele>
        <time>2022-12-13T16:03:17.895Z</time>
      </trkpt>
      <trkpt lat="48.00133" lon="-2.65193">
        <ele>89.829153</ele>
        <time>2022-12-13T16:03:20.894Z</time>
      </trkpt>
      <trkpt lat="48.00124" lon="-2.65197">
        <ele>89.652176</ele>
        <time>2022-12-13T16:03:22.894Z</time>
      </trkpt>
      <trkpt lat="48.00115" lon="-2.65202">
        <ele>89.464513</ele>
        <time>2022-12-13T16:03:24.870Z</time>
      </trkpt>
      <trkpt lat="48.00104" lon="-2.65206">
        <ele>89.260858</ele>
        <time>2022-12-13T16:03:27.896Z</time>
      </trkpt>
      <trkpt lat="48.00093" lon="-2.65212">
        <ele>89.026178</ele>
        <time>2022-12-13T16:03:30.872Z</time>
      </trkpt>
      <trkpt lat="48.00084" lon="-2.65217">
        <ele>88.855596</ele>
        <time>2022-12-13T16:03:32.874Z</time>
      </trkpt>
      <trkpt lat="48.0007" lon="-2.65222">
        <ele>88.588213</ele>
        <time>2022-12-13T16:03:35.871Z</time>
      </trkpt>
      <trkpt lat="48.00058" lon="-2.65228">
        <ele>88.349081</ele>
        <time>2022-12-13T16:03:38.900Z</time>
      </trkpt>
      <trkpt lat="48.00045" lon="-2.65233">
        <ele>88.106251</ele>
        <time>2022-12-13T16:03:41.898Z</time>
      </trkpt>
      <trkpt lat="48.00034" lon="-2.65238">
        <ele>87.991362</ele>
        <time>2022-12-13T16:03:44.896Z</time>
      </trkpt>
      <trkpt lat="48.00023" lon="-2.65244">
        <ele>87.90895</ele>
        <time>2022-12-13T16:03:47.896Z</time>
      </trkpt>
      <trkpt lat="48.00012" lon="-2.65249">
        <ele>87.824665</ele>
        <time>2022-12-13T16:03:50.879Z</time>
      </trkpt>
      <trkpt lat="48.00003" lon="-2.65253">
        <ele>87.758634</ele>
        <time>2022-12-13T16:03:53.895Z</time>
      </trkpt>
      <trkpt lat="47.99993" lon="-2.65258">
        <ele>87.681056</ele>
        <time>2022-12-13T16:03:56.897Z</time>
      </trkpt>
      <trkpt lat="47.99983" lon="-2.65262">
        <ele>87.605515</ele>
        <time>2022-12-13T16:03:59.884Z</time>
      </trkpt>
      <trkpt lat="47.99971" lon="-2.65266">
        <ele>87.521631</ele>
        <time>2022-12-13T16:04:02.889Z</time>
      </trkpt>
      <trkpt lat="47.99959" lon="-2.6527">
        <ele>87.432074</ele>
        <time>2022-12-13T16:04:05.872Z</time>
      </trkpt>
      <trkpt lat="47.99947" lon="-2.65275">
        <ele>87.344142</ele>
        <time>2022-12-13T16:04:08.882Z</time>
      </trkpt>
      <trkpt lat="47.99937" lon="-2.6528">
        <ele>87.266108</ele>
        <time>2022-12-13T16:04:11.875Z</time>
      </trkpt>
      <trkpt lat="47.99927" lon="-2.65285">
        <ele>87.189584</ele>
        <time>2022-12-13T16:04:14.897Z</time>
      </trkpt>
      <trkpt lat="47.99916" lon="-2.65291">
        <ele>87.111232</ele>
        <time>2022-12-13T16:04:18.890Z</time>
      </trkpt>
      <trkpt lat="47.99907" lon="-2.65296">
        <ele>87.038085</ele>
        <time>2022-12-13T16:04:23.870Z</time>
      </trkpt>
      <trkpt lat="47.99897" lon="-2.65297">
        <ele>86.970415</ele>
        <time>2022-12-13T16:04:28.880Z</time>
      </trkpt>
      <trkpt lat="47.99889" lon="-2.65303">
        <ele>86.901126</ele>
        <time>2022-12-13T16:04:57.882Z</time>
      </trkpt>
      <trkpt lat="47.99879" lon="-2.65304">
        <ele>86.82949</ele>
        <time>2022-12-13T16:05:03.879Z</time>
      </trkpt>
      <trkpt lat="47.99869" lon="-2.6531">
        <ele>86.775468</ele>
        <time>2022-12-13T16:05:07.879Z</time>
      </trkpt>
      <trkpt lat="47.99859" lon="-2.65314">
        <ele>86.792847</ele>
        <time>2022-12-13T16:05:10.895Z</time>
      </trkpt>
      <trkpt lat="47.9985" lon="-2.65317">
        <ele>86.810348</ele>
        <time>2022-12-13T16:05:14.876Z</time>
      </trkpt>
      <trkpt lat="47.99838" lon="-2.65322">
        <ele>86.831817</ele>
        <time>2022-12-13T16:05:18.890Z</time>
      </trkpt>
      <trkpt lat="47.99827" lon="-2.65326">
        <ele>86.852713</ele>
        <time>2022-12-13T16:05:21.898Z</time>
      </trkpt>
      <trkpt lat="47.99815" lon="-2.65331">
        <ele>86.873439</ele>
        <time>2022-12-13T16:05:24.898Z</time>
      </trkpt>
      <trkpt lat="47.99806" lon="-2.65334">
        <ele>86.890225</ele>
        <time>2022-12-13T16:05:26.900Z</time>
      </trkpt>
      <trkpt lat="47.99796" lon="-2.65338">
        <ele>86.907777</ele>
        <time>2022-12-13T16:05:29.899Z</time>
      </trkpt>
      <trkpt lat="47.99787" lon="-2.65341">
        <ele>86.924469</ele>
        <time>2022-12-13T16:05:31.882Z</time>
      </trkpt>
      <trkpt lat="47.99775" lon="-2.65346">
        <ele>86.946951</ele>
        <time>2022-12-13T16:05:34.898Z</time>
      </trkpt>
      <trkpt lat="47.99765" lon="-2.6535">
        <ele>86.965045</ele>
        <time>2022-12-13T16:05:37.897Z</time>
      </trkpt>
      <trkpt lat="47.99755" lon="-2.65354">
        <ele>86.983591</ele>
        <time>2022-12-13T16:05:40.895Z</time>
      </trkpt>
      <trkpt lat="47.99746" lon="-2.65358">
        <ele>87.000094</ele>
        <time>2022-12-13T16:05:42.896Z</time>
      </trkpt>
      <trkpt lat="47.99737" lon="-2.65363">
        <ele>87.01617</ele>
        <time>2022-12-13T16:05:44.897Z</time>
      </trkpt>
      <trkpt lat="47.99725" lon="-2.65369">
        <ele>87.039599</ele>
        <time>2022-12-13T16:05:47.898Z</time>
      </trkpt>
      <trkpt lat="47.99713" lon="-2.65375">
        <ele>87.062118</ele>
        <time>2022-12-13T16:05:50.892Z</time>
      </trkpt>
      <trkpt lat="47.99701" lon="-2.65381">
        <ele>87.083699</ele>
        <time>2022-12-13T16:05:53.896Z</time>
      </trkpt>
      <trkpt lat="47.9969" lon="-2.65387">
        <ele>87.139044</ele>
        <time>2022-12-13T16:05:56.894Z</time>
      </trkpt>
      <trkpt lat="47.9968" lon="-2.65393">
        <ele>87.198917</ele>
        <time>2022-12-13T16:05:59.893Z</time>
      </trkpt>
      <trkpt lat="47.99669" lon="-2.65399">
        <ele>87.26021</ele>
        <time>2022-12-13T16:06:02.900Z</time>
      </trkpt>
      <trkpt lat="47.9966" lon="-2.65404">
        <ele>87.316236</ele>
        <time>2022-12-13T16:06:04.892Z</time>
      </trkpt>
      <trkpt lat="47.99647" lon="-2.6541">
        <ele>87.386364</ele>
        <time>2022-12-13T16:06:07.885Z</time>
      </trkpt>
      <trkpt lat="47.99639" lon="-2.65415">
        <ele>87.43754</ele>
        <time>2022-12-13T16:06:09.885Z</time>
      </trkpt>
      <trkpt lat="47.9963" lon="-2.6542">
        <ele>87.488169</ele>
        <time>2022-12-13T16:06:11.899Z</time>
      </trkpt>
      <trkpt lat="47.99618" lon="-2.65427">
        <ele>87.558306</ele>
        <time>2022-12-13T16:06:14.896Z</time>
      </trkpt>
      <trkpt lat="47.99608" lon="-2.65433">
        <ele>87.62075</ele>
        <time>2022-12-13T16:06:17.892Z</time>
      </trkpt>
      <trkpt lat="47.99597" lon="-2.65438">
        <ele>87.683827</ele>
        <time>2022-12-13T16:06:20.897Z</time>
      </trkpt>
      <trkpt lat="47.99586" lon="-2.65445">
        <ele>87.747207</ele>
        <time>2022-12-13T16:06:23.874Z</time>
      </trkpt>
      <trkpt lat="47.99574" lon="-2.65452">
        <ele>87.816078</ele>
        <time>2022-12-13T16:06:26.893Z</time>
      </trkpt>
      <trkpt lat="47.99563" lon="-2.65458">
        <ele>87.880838</ele>
        <time>2022-12-13T16:06:29.895Z</time>
      </trkpt>
      <trkpt lat="47.99553" lon="-2.65466">
        <ele>87.943537</ele>
        <time>2022-12-13T16:06:32.893Z</time>
      </trkpt>
      <trkpt lat="47.99542" lon="-2.65474">
        <ele>88.010674</ele>
        <time>2022-12-13T16:06:35.873Z</time>
      </trkpt>
      <trkpt lat="47.99531" lon="-2.65484">
        <ele>88.051791</ele>
        <time>2022-12-13T16:06:38.894Z</time>
      </trkpt>
      <trkpt lat="47.9952" lon="-2.65496">
        <ele>87.851488</ele>
        <time>2022-12-13T16:06:41.882Z</time>
      </trkpt>
      <trkpt lat="47.99511" lon="-2.65505">
        <ele>87.686437</ele>
        <time>2022-12-13T16:06:44.892Z</time>
      </trkpt>
      <trkpt lat="47.99502" lon="-2.65514">
        <ele>87.521755</ele>
        <time>2022-12-13T16:06:47.894Z</time>
      </trkpt>
      <trkpt lat="47.99494" lon="-2.65521">
        <ele>87.384455</ele>
        <time>2022-12-13T16:06:50.893Z</time>
      </trkpt>
      <trkpt lat="47.99486" lon="-2.6553">
        <ele>87.233488</ele>
        <time>2022-12-13T16:06:53.898Z</time>
      </trkpt>
      <trkpt lat="47.99476" lon="-2.65538">
        <ele>87.06284</ele>
        <time>2022-12-13T16:06:56.895Z</time>
      </trkpt>
      <trkpt lat="47.99468" lon="-2.65546">
        <ele>86.914431</ele>
        <time>2022-12-13T16:06:59.887Z</time>
      </trkpt>
      <trkpt lat="47.99458" lon="-2.65553">
        <ele>86.748617</ele>
        <time>2022-12-13T16:07:02.874Z</time>
      </trkpt>
      <trkpt lat="47.99448" lon="-2.65563">
        <ele>86.568348</ele>
        <time>2022-12-13T16:07:05.871Z</time>
      </trkpt>
      <trkpt lat="47.99436" lon="-2.65571">
        <ele>86.375091</ele>
        <time>2022-12-13T16:07:08.882Z</time>
      </trkpt>
      <trkpt lat="47.99427" lon="-2.65574">
        <ele>86.235966</ele>
        <time>2022-12-13T16:07:10.875Z</time>
      </trkpt>
      <trkpt lat="47.99418" lon="-2.65578">
        <ele>86.09908</ele>
        <time>2022-12-13T16:07:12.878Z</time>
      </trkpt>
      <trkpt lat="47.99407" lon="-2.6558">
        <ele>85.928823</ele>
        <time>2022-12-13T16:07:15.872Z</time>
      </trkpt>
      <trkpt lat="47.99394" lon="-2.6558">
        <ele>85.726956</ele>
        <time>2022-12-13T16:07:18.879Z</time>
      </trkpt>
      <trkpt lat="47.99381" lon="-2.65578">
        <ele>85.541323</ele>
        <time>2022-12-13T16:07:21.879Z</time>
      </trkpt>
      <trkpt lat="47.99372" lon="-2.65578">
        <ele>85.39496</ele>
        <time>2022-12-13T16:07:23.899Z</time>
      </trkpt>
      <trkpt lat="47.9936" lon="-2.65576">
        <ele>85.504306</ele>
        <time>2022-12-13T16:07:26.887Z</time>
      </trkpt>
      <trkpt lat="47.9935" lon="-2.65573">
        <ele>85.646602</ele>
        <time>2022-12-13T16:07:29.885Z</time>
      </trkpt>
      <trkpt lat="47.99338" lon="-2.65572">
        <ele>85.80505</ele>
        <time>2022-12-13T16:07:32.876Z</time>
      </trkpt>
      <trkpt lat="47.99323" lon="-2.65568">
        <ele>86.01542</ele>
        <time>2022-12-13T16:07:35.871Z</time>
      </trkpt>
      <trkpt lat="47.99312" lon="-2.65567">
        <ele>86.180744</ele>
        <time>2022-12-13T16:07:38.894Z</time>
      </trkpt>
      <trkpt lat="47.993" lon="-2.65566">
        <ele>86.344788</ele>
        <time>2022-12-13T16:07:41.899Z</time>
      </trkpt>
      <trkpt lat="47.99289" lon="-2.65565">
        <ele>86.49281</ele>
        <time>2022-12-13T16:07:44.896Z</time>
      </trkpt>
      <trkpt lat="47.99278" lon="-2.65562">
        <ele>86.653676</ele>
        <time>2022-12-13T16:07:47.874Z</time>
      </trkpt>
      <trkpt lat="47.99264" lon="-2.65559">
        <ele>86.840591</ele>
        <time>2022-12-13T16:07:50.875Z</time>
      </trkpt>
      <trkpt lat="47.99255" lon="-2.65557">
        <ele>86.966706</ele>
        <time>2022-12-13T16:07:52.871Z</time>
      </trkpt>
      <trkpt lat="47.99246" lon="-2.65554">
        <ele>87.097769</ele>
        <time>2022-12-13T16:07:54.892Z</time>
      </trkpt>
      <trkpt lat="47.99235" lon="-2.65548">
        <ele>87.264793</ele>
        <time>2022-12-13T16:07:57.890Z</time>
      </trkpt>
      <trkpt lat="47.99224" lon="-2.65541">
        <ele>87.428327</ele>
        <time>2022-12-13T16:08:00.894Z</time>
      </trkpt>
      <trkpt lat="47.99212" lon="-2.65533">
        <ele>87.61573</ele>
        <time>2022-12-13T16:08:03.893Z</time>
      </trkpt>
      <trkpt lat="47.99199" lon="-2.65527">
        <ele>87.798938</ele>
        <time>2022-12-13T16:08:06.896Z</time>
      </trkpt>
      <trkpt lat="47.99188" lon="-2.6552">
        <ele>87.844691</ele>
        <time>2022-12-13T16:08:09.892Z</time>
      </trkpt>
      <trkpt lat="47.99179" lon="-2.65514">
        <ele>87.820407</ele>
        <time>2022-12-13T16:08:12.890Z</time>
      </trkpt>
      <trkpt lat="47.99167" lon="-2.65507">
        <ele>87.791944</ele>
        <time>2022-12-13T16:08:15.873Z</time>
      </trkpt>
      <trkpt lat="47.99158" lon="-2.65498">
        <ele>87.765926</ele>
        <time>2022-12-13T16:08:19.900Z</time>
      </trkpt>
      <trkpt lat="47.99147" lon="-2.6549">
        <ele>87.738654</ele>
        <time>2022-12-13T16:08:23.884Z</time>
      </trkpt>
      <trkpt lat="47.99136" lon="-2.65483">
        <ele>87.709696</ele>
        <time>2022-12-13T16:08:26.890Z</time>
      </trkpt>
      <trkpt lat="47.99128" lon="-2.65476">
        <ele>87.688258</ele>
        <time>2022-12-13T16:08:28.866Z</time>
      </trkpt>
      <trkpt lat="47.99119" lon="-2.65469">
        <ele>87.665081</ele>
        <time>2022-12-13T16:08:30.896Z</time>
      </trkpt>
      <trkpt lat="47.99108" lon="-2.65458">
        <ele>87.632849</ele>
        <time>2022-12-13T16:08:33.875Z</time>
      </trkpt>
      <trkpt lat="47.991" lon="-2.65449">
        <ele>87.610317</ele>
        <time>2022-12-13T16:08:35.876Z</time>
      </trkpt>
      <trkpt lat="47.99089" lon="-2.65438">
        <ele>87.580236</ele>
        <time>2022-12-13T16:08:38.901Z</time>
      </trkpt>
      <trkpt lat="47.9908" lon="-2.65429">
        <ele>87.55395</ele>
        <time>2022-12-13T16:08:41.897Z</time>
      </trkpt>
      <trkpt lat="47.9907" lon="-2.6542">
        <ele>87.528395</ele>
        <time>2022-12-13T16:08:44.896Z</time>
      </trkpt>
      <trkpt lat="47.9906" lon="-2.6541">
        <ele>87.499497</ele>
        <time>2022-12-13T16:08:47.900Z</time>
      </trkpt>
      <trkpt lat="47.99048" lon="-2.65398">
        <ele>87.465666</ele>
        <time>2022-12-13T16:08:50.898Z</time>
      </trkpt>
      <trkpt lat="47.9904" lon="-2.6539">
        <ele>87.444167</ele>
        <time>2022-12-13T16:08:52.897Z</time>
      </trkpt>
      <trkpt lat="47.99032" lon="-2.65383">
        <ele>87.411488</ele>
        <time>2022-12-13T16:08:54.896Z</time>
      </trkpt>
      <trkpt lat="47.99024" lon="-2.65375">
        <ele>87.377778</ele>
        <time>2022-12-13T16:08:56.900Z</time>
      </trkpt>
      <trkpt lat="47.99016" lon="-2.65366">
        <ele>87.342306</ele>
        <time>2022-12-13T16:08:58.897Z</time>
      </trkpt>
      <trkpt lat="47.99008" lon="-2.65357">
        <ele>87.305552</ele>
        <time>2022-12-13T16:09:00.916Z</time>
      </trkpt>
      <trkpt lat="47.99001" lon="-2.65348">
        <ele>87.272772</ele>
        <time>2022-12-13T16:09:02.885Z</time>
      </trkpt>
      <trkpt lat="47.98993" lon="-2.65334">
        <ele>87.227492</ele>
        <time>2022-12-13T16:09:05.878Z</time>
      </trkpt>
      <trkpt lat="47.98986" lon="-2.65319">
        <ele>87.186751</ele>
        <time>2022-12-13T16:09:08.904Z</time>
      </trkpt>
      <trkpt lat="47.98981" lon="-2.65305">
        <ele>87.147392</ele>
        <time>2022-12-13T16:09:11.890Z</time>
      </trkpt>
      <trkpt lat="47.98975" lon="-2.65288">
        <ele>87.101527</ele>
        <time>2022-12-13T16:09:14.893Z</time>
      </trkpt>
      <trkpt lat="47.9897" lon="-2.65276">
        <ele>87.068792</ele>
        <time>2022-12-13T16:09:16.893Z</time>
      </trkpt>
      <trkpt lat="47.98966" lon="-2.65258">
        <ele>87.024324</ele>
        <time>2022-12-13T16:09:19.897Z</time>
      </trkpt>
      <trkpt lat="47.9896" lon="-2.65241">
        <ele>86.978079</ele>
        <time>2022-12-13T16:09:22.883Z</time>
      </trkpt>
      <trkpt lat="47.98954" lon="-2.65224">
        <ele>86.931497</ele>
        <time>2022-12-13T16:09:25.874Z</time>
      </trkpt>
      <trkpt lat="47.98948" lon="-2.65206">
        <ele>86.884067</ele>
        <time>2022-12-13T16:09:28.880Z</time>
      </trkpt>
      <trkpt lat="47.98944" lon="-2.65193">
        <ele>86.849511</ele>
        <time>2022-12-13T16:09:30.898Z</time>
      </trkpt>
      <trkpt lat="47.98939" lon="-2.6518">
        <ele>86.813622</ele>
        <time>2022-12-13T16:09:32.897Z</time>
      </trkpt>
      <trkpt lat="47.98934" lon="-2.65168">
        <ele>86.765383</ele>
        <time>2022-12-13T16:09:34.878Z</time>
      </trkpt>
      <trkpt lat="47.98929" lon="-2.65156">
        <ele>86.706101</ele>
        <time>2022-12-13T16:09:36.899Z</time>
      </trkpt>
      <trkpt lat="47.98925" lon="-2.65143">
        <ele>86.648988</ele>
        <time>2022-12-13T16:09:38.897Z</time>
      </trkpt>
      <trkpt lat="47.9892" lon="-2.65131">
        <ele>86.591773</ele>
        <time>2022-12-13T16:09:40.897Z</time>
      </trkpt>
      <trkpt lat="47.98913" lon="-2.65117">
        <ele>86.516775</ele>
        <time>2022-12-13T16:09:43.877Z</time>
      </trkpt>
      <trkpt lat="47.98904" lon="-2.65104">
        <ele>86.442067</ele>
        <time>2022-12-13T16:09:46.888Z</time>
      </trkpt>
      <trkpt lat="47.98895" lon="-2.65093">
        <ele>86.371601</ele>
        <time>2022-12-13T16:09:49.874Z</time>
      </trkpt>
      <trkpt lat="47.98886" lon="-2.65084">
        <ele>86.305615</ele>
        <time>2022-12-13T16:09:52.884Z</time>
      </trkpt>
      <trkpt lat="47.98876" lon="-2.65075">
        <ele>86.231813</ele>
        <time>2022-12-13T16:09:55.877Z</time>
      </trkpt>
      <trkpt lat="47.98864" lon="-2.6507">
        <ele>86.155834</ele>
        <time>2022-12-13T16:09:58.874Z</time>
      </trkpt>
      <trkpt lat="47.98851" lon="-2.65068">
        <ele>86.074732</ele>
        <time>2022-12-13T16:10:01.883Z</time>
      </trkpt>
      <trkpt lat="47.98841" lon="-2.65069">
        <ele>86.017792</ele>
        <time>2022-12-13T16:10:03.877Z</time>
      </trkpt>
      <trkpt lat="47.9883" lon="-2.6507">
        <ele>85.945865</ele>
        <time>2022-12-13T16:10:05.876Z</time>
      </trkpt>
      <trkpt lat="47.98821" lon="-2.65074">
        <ele>85.889259</ele>
        <time>2022-12-13T16:10:07.888Z</time>
      </trkpt>
      <trkpt lat="47.98811" lon="-2.65077">
        <ele>85.827881</ele>
        <time>2022-12-13T16:10:09.895Z</time>
      </trkpt>
      <trkpt lat="47.98801" lon="-2.6508">
        <ele>85.768553</ele>
        <time>2022-12-13T16:10:11.884Z</time>
      </trkpt>
      <trkpt lat="47.98791" lon="-2.65084">
        <ele>85.705237</ele>
        <time>2022-12-13T16:10:13.894Z</time>
      </trkpt>
      <trkpt lat="47.98781" lon="-2.65086">
        <ele>85.655114</ele>
        <time>2022-12-13T16:10:15.876Z</time>
      </trkpt>
      <trkpt lat="47.9877" lon="-2.65088">
        <ele>85.603375</ele>
        <time>2022-12-13T16:10:17.898Z</time>
      </trkpt>
      <trkpt lat="47.98761" lon="-2.65091">
        <ele>85.55942</ele>
        <time>2022-12-13T16:10:19.903Z</time>
      </trkpt>
      <trkpt lat="47.9875" lon="-2.65093">
        <ele>85.50362</ele>
        <time>2022-12-13T16:10:22.892Z</time>
      </trkpt>
      <trkpt lat="47.98737" lon="-2.65096">
        <ele>85.438778</ele>
        <time>2022-12-13T16:10:25.881Z</time>
      </trkpt>
      <trkpt lat="47.98724" lon="-2.651">
        <ele>85.376587</ele>
        <time>2022-12-13T16:10:28.897Z</time>
      </trkpt>
      <trkpt lat="47.98713" lon="-2.651">
        <ele>85.323285</ele>
        <time>2022-12-13T16:10:31.875Z</time>
      </trkpt>
      <trkpt lat="47.98701" lon="-2.651">
        <ele>85.267097</ele>
        <time>2022-12-13T16:10:34.877Z</time>
      </trkpt>
      <trkpt lat="47.9869" lon="-2.65097">
        <ele>85.213332</ele>
        <time>2022-12-13T16:10:37.896Z</time>
      </trkpt>
      <trkpt lat="47.98679" lon="-2.65092">
        <ele>85.159305</ele>
        <time>2022-12-13T16:10:40.875Z</time>
      </trkpt>
      <trkpt lat="47.98668" lon="-2.65085">
        <ele>85.099114</ele>
        <time>2022-12-13T16:10:43.883Z</time>
      </trkpt>
      <trkpt lat="47.98657" lon="-2.65077">
        <ele>85.043239</ele>
        <time>2022-12-13T16:10:46.889Z</time>
      </trkpt>
      <trkpt lat="47.98646" lon="-2.65069">
        <ele>84.984775</ele>
        <time>2022-12-13T16:10:49.894Z</time>
      </trkpt>
      <trkpt lat="47.98635" lon="-2.65061">
        <ele>84.923157</ele>
        <time>2022-12-13T16:10:52.882Z</time>
      </trkpt>
      <trkpt lat="47.98626" lon="-2.65055">
        <ele>84.879054</ele>
        <time>2022-12-13T16:10:54.892Z</time>
      </trkpt>
      <trkpt lat="47.98618" lon="-2.65049">
        <ele>84.838759</ele>
        <time>2022-12-13T16:10:56.906Z</time>
      </trkpt>
      <trkpt lat="47.98606" lon="-2.6504">
        <ele>84.83742</ele>
        <time>2022-12-13T16:10:59.894Z</time>
      </trkpt>
      <trkpt lat="47.98596" lon="-2.65034">
        <ele>84.836297</ele>
        <time>2022-12-13T16:11:02.899Z</time>
      </trkpt>
      <trkpt lat="47.98585" lon="-2.65028">
        <ele>84.835192</ele>
        <time>2022-12-13T16:11:05.871Z</time>
      </trkpt>
      <trkpt lat="47.98574" lon="-2.65019">
        <ele>84.833942</ele>
        <time>2022-12-13T16:11:08.877Z</time>
      </trkpt>
      <trkpt lat="47.98564" lon="-2.6501">
        <ele>84.832784</ele>
        <time>2022-12-13T16:11:11.892Z</time>
      </trkpt>
      <trkpt lat="47.98557" lon="-2.65002">
        <ele>84.831872</ele>
        <time>2022-12-13T16:11:13.895Z</time>
      </trkpt>
      <trkpt lat="47.9855" lon="-2.64994">
        <ele>84.830967</ele>
        <time>2022-12-13T16:11:15.874Z</time>
      </trkpt>
      <trkpt lat="47.9854" lon="-2.64981">
        <ele>84.829668</ele>
        <time>2022-12-13T16:11:18.895Z</time>
      </trkpt>
      <trkpt lat="47.98531" lon="-2.64969">
        <ele>84.828475</ele>
        <time>2022-12-13T16:11:21.897Z</time>
      </trkpt>
      <trkpt lat="47.98522" lon="-2.64956">
        <ele>84.827212</ele>
        <time>2022-12-13T16:11:24.900Z</time>
      </trkpt>
      <trkpt lat="47.98514" lon="-2.64944">
        <ele>84.826062</ele>
        <time>2022-12-13T16:11:27.897Z</time>
      </trkpt>
      <trkpt lat="47.98507" lon="-2.64931">
        <ele>84.824904</ele>
        <time>2022-12-13T16:11:30.880Z</time>
      </trkpt>
      <trkpt lat="47.98499" lon="-2.64917">
        <ele>84.8237</ele>
        <time>2022-12-13T16:11:33.889Z</time>
      </trkpt>
      <trkpt lat="47.9849" lon="-2.64904">
        <ele>84.822491</ele>
        <time>2022-12-13T16:11:36.898Z</time>
      </trkpt>
      <trkpt lat="47.98482" lon="-2.6489">
        <ele>84.821245</ele>
        <time>2022-12-13T16:11:39.889Z</time>
      </trkpt>
      <trkpt lat="47.98474" lon="-2.64876">
        <ele>84.905231</ele>
        <time>2022-12-13T16:11:42.897Z</time>
      </trkpt>
      <trkpt lat="47.98466" lon="-2.64863">
        <ele>85.020042</ele>
        <time>2022-12-13T16:11:45.878Z</time>
      </trkpt>
      <trkpt lat="47.98459" lon="-2.6485">
        <ele>85.125874</ele>
        <time>2022-12-13T16:11:48.887Z</time>
      </trkpt>
      <trkpt lat="47.98453" lon="-2.64839">
        <ele>85.221791</ele>
        <time>2022-12-13T16:11:51.897Z</time>
      </trkpt>
      <trkpt lat="47.98446" lon="-2.64825">
        <ele>85.33342</ele>
        <time>2022-12-13T16:11:54.898Z</time>
      </trkpt>
      <trkpt lat="47.98438" lon="-2.64811">
        <ele>85.456759</ele>
        <time>2022-12-13T16:11:57.889Z</time>
      </trkpt>
      <trkpt lat="47.98431" lon="-2.64796">
        <ele>85.577065</ele>
        <time>2022-12-13T16:12:00.897Z</time>
      </trkpt>
      <trkpt lat="47.98424" lon="-2.64781">
        <ele>85.698228</ele>
        <time>2022-12-13T16:12:03.898Z</time>
      </trkpt>
      <trkpt lat="47.98417" lon="-2.64764">
        <ele>85.82338</ele>
        <time>2022-12-13T16:12:06.896Z</time>
      </trkpt>
      <trkpt lat="47.98412" lon="-2.64746">
        <ele>85.95213</ele>
        <time>2022-12-13T16:12:09.886Z</time>
      </trkpt>
      <trkpt lat="47.98407" lon="-2.64729">
        <ele>86.076299</ele>
        <time>2022-12-13T16:12:12.886Z</time>
      </trkpt>
      <trkpt lat="47.98403" lon="-2.64713">
        <ele>86.187187</ele>
        <time>2022-12-13T16:12:15.874Z</time>
      </trkpt>
      <trkpt lat="47.98399" lon="-2.64698">
        <ele>86.292736</ele>
        <time>2022-12-13T16:12:18.897Z</time>
      </trkpt>
      <trkpt lat="47.98394" lon="-2.64681">
        <ele>86.410663</ele>
        <time>2022-12-13T16:12:21.896Z</time>
      </trkpt>
      <trkpt lat="47.98391" lon="-2.64665">
        <ele>86.520076</ele>
        <time>2022-12-13T16:12:24.889Z</time>
      </trkpt>
      <trkpt lat="47.98387" lon="-2.6465">
        <ele>86.693346</ele>
        <time>2022-12-13T16:12:27.905Z</time>
      </trkpt>
      <trkpt lat="47.98384" lon="-2.64633">
        <ele>86.944359</ele>
        <time>2022-12-13T16:12:30.883Z</time>
      </trkpt>
      <trkpt lat="47.9838" lon="-2.64615">
        <ele>87.224256</ele>
        <time>2022-12-13T16:12:33.891Z</time>
      </trkpt>
      <trkpt lat="47.98377" lon="-2.64602">
        <ele>87.428824</ele>
        <time>2022-12-13T16:12:35.888Z</time>
      </trkpt>
      <trkpt lat="47.98374" lon="-2.64585">
        <ele>87.695961</ele>
        <time>2022-12-13T16:12:38.900Z</time>
      </trkpt>
      <trkpt lat="47.98372" lon="-2.64569">
        <ele>87.940562</ele>
        <time>2022-12-13T16:12:41.904Z</time>
      </trkpt>
      <trkpt lat="47.9837" lon="-2.6455">
        <ele>88.218271</ele>
        <time>2022-12-13T16:12:44.897Z</time>
      </trkpt>
      <trkpt lat="47.9837" lon="-2.64533">
        <ele>88.47635</ele>
        <time>2022-12-13T16:12:47.894Z</time>
      </trkpt>
      <trkpt lat="47.9837" lon="-2.64513">
        <ele>88.765711</ele>
        <time>2022-12-13T16:12:50.877Z</time>
      </trkpt>
      <trkpt lat="47.98372" lon="-2.64495">
        <ele>89.049016</ele>
        <time>2022-12-13T16:12:53.896Z</time>
      </trkpt>
      <trkpt lat="47.98373" lon="-2.64479">
        <ele>89.284988</ele>
        <time>2022-12-13T16:12:56.894Z</time>
      </trkpt>
      <trkpt lat="47.98375" lon="-2.64463">
        <ele>89.521892</ele>
        <time>2022-12-13T16:12:59.899Z</time>
      </trkpt>
      <trkpt lat="47.98378" lon="-2.64444">
        <ele>89.804017</ele>
        <time>2022-12-13T16:13:02.895Z</time>
      </trkpt>
      <trkpt lat="47.9838" lon="-2.64428">
        <ele>90.046143</ele>
        <time>2022-12-13T16:13:05.874Z</time>
      </trkpt>
      <trkpt lat="47.98382" lon="-2.64414">
        <ele>90.264607</ele>
        <time>2022-12-13T16:13:08.903Z</time>
      </trkpt>
      <trkpt lat="47.98384" lon="-2.64396">
        <ele>90.537006</ele>
        <time>2022-12-13T16:13:11.875Z</time>
      </trkpt>
      <trkpt lat="47.98387" lon="-2.64377">
        <ele>90.428951</ele>
        <time>2022-12-13T16:13:14.876Z</time>
      </trkpt>
      <trkpt lat="47.98389" lon="-2.64356">
        <ele>90.277291</ele>
        <time>2022-12-13T16:13:17.894Z</time>
      </trkpt>
      <trkpt lat="47.98392" lon="-2.64337">
        <ele>90.13641</ele>
        <time>2022-12-13T16:13:20.876Z</time>
      </trkpt>
      <trkpt lat="47.98394" lon="-2.64318">
        <ele>89.993598</ele>
        <time>2022-12-13T16:13:23.888Z</time>
      </trkpt>
      <trkpt lat="47.98397" lon="-2.643">
        <ele>89.854114</ele>
        <time>2022-12-13T16:13:26.897Z</time>
      </trkpt>
      <trkpt lat="47.98399" lon="-2.64285">
        <ele>89.742674</ele>
        <time>2022-12-13T16:13:29.876Z</time>
      </trkpt>
      <trkpt lat="47.98402" lon="-2.64268">
        <ele>89.616578</ele>
        <time>2022-12-13T16:13:32.887Z</time>
      </trkpt>
      <trkpt lat="47.98404" lon="-2.64249">
        <ele>89.474308</ele>
        <time>2022-12-13T16:13:35.876Z</time>
      </trkpt>
      <trkpt lat="47.98406" lon="-2.6423">
        <ele>89.336581</ele>
        <time>2022-12-13T16:13:38.895Z</time>
      </trkpt>
      <trkpt lat="47.98407" lon="-2.64214">
        <ele>89.213503</ele>
        <time>2022-12-13T16:13:41.894Z</time>
      </trkpt>
      <trkpt lat="47.98406" lon="-2.64196">
        <ele>89.087879</ele>
        <time>2022-12-13T16:13:44.900Z</time>
      </trkpt>
      <trkpt lat="47.98404" lon="-2.64178">
        <ele>88.951894</ele>
        <time>2022-12-13T16:13:47.877Z</time>
      </trkpt>
      <trkpt lat="47.98401" lon="-2.6416">
        <ele>88.815963</ele>
        <time>2022-12-13T16:13:50.886Z</time>
      </trkpt>
      <trkpt lat="47.98395" lon="-2.64145">
        <ele>88.689982</ele>
        <time>2022-12-13T16:13:53.879Z</time>
      </trkpt>
      <trkpt lat="47.98389" lon="-2.6413">
        <ele>88.590952</ele>
        <time>2022-12-13T16:13:56.892Z</time>
      </trkpt>
      <trkpt lat="47.98382" lon="-2.64117">
        <ele>88.575991</ele>
        <time>2022-12-13T16:13:59.898Z</time>
      </trkpt>
      <trkpt lat="47.98375" lon="-2.64104">
        <ele>88.560851</ele>
        <time>2022-12-13T16:14:02.900Z</time>
      </trkpt>
      <trkpt lat="47.98368" lon="-2.64093">
        <ele>88.546904</ele>
        <time>2022-12-13T16:14:05.877Z</time>
      </trkpt>
      <trkpt lat="47.98361" lon="-2.64083">
        <ele>88.534321</ele>
        <time>2022-12-13T16:14:08.899Z</time>
      </trkpt>
      <trkpt lat="47.98355" lon="-2.64071">
        <ele>88.521147</ele>
        <time>2022-12-13T16:14:12.894Z</time>
      </trkpt>
      <trkpt lat="47.9835" lon="-2.6406">
        <ele>88.50844</ele>
        <time>2022-12-13T16:14:17.883Z</time>
      </trkpt>
      <trkpt lat="47.98343" lon="-2.64051">
        <ele>88.496203</ele>
        <time>2022-12-13T16:14:29.881Z</time>
      </trkpt>
      <trkpt lat="47.98338" lon="-2.64039">
        <ele>88.48298</ele>
        <time>2022-12-13T16:14:33.883Z</time>
      </trkpt>
      <trkpt lat="47.98331" lon="-2.64026">
        <ele>88.46791</ele>
        <time>2022-12-13T16:14:36.880Z</time>
      </trkpt>
      <trkpt lat="47.98322" lon="-2.64009">
        <ele>88.448455</ele>
        <time>2022-12-13T16:14:39.879Z</time>
      </trkpt>
      <trkpt lat="47.98315" lon="-2.63997">
        <ele>88.434187</ele>
        <time>2022-12-13T16:14:41.891Z</time>
      </trkpt>
      <trkpt lat="47.98309" lon="-2.63985">
        <ele>88.419811</ele>
        <time>2022-12-13T16:14:43.888Z</time>
      </trkpt>
      <trkpt lat="47.98303" lon="-2.63973">
        <ele>88.406911</ele>
        <time>2022-12-13T16:14:45.883Z</time>
      </trkpt>
      <trkpt lat="47.98297" lon="-2.63962">
        <ele>88.393965</ele>
        <time>2022-12-13T16:14:47.904Z</time>
      </trkpt>
      <trkpt lat="47.98289" lon="-2.63947">
        <ele>88.376512</ele>
        <time>2022-12-13T16:14:50.896Z</time>
      </trkpt>
      <trkpt lat="47.98281" lon="-2.63931">
        <ele>88.35779</ele>
        <time>2022-12-13T16:14:53.901Z</time>
      </trkpt>
      <trkpt lat="47.98275" lon="-2.6392">
        <ele>88.363924</ele>
        <time>2022-12-13T16:14:55.872Z</time>
      </trkpt>
      <trkpt lat="47.98267" lon="-2.63904">
        <ele>88.396305</ele>
        <time>2022-12-13T16:14:58.877Z</time>
      </trkpt>
      <trkpt lat="47.98257" lon="-2.63889">
        <ele>88.430146</ele>
        <time>2022-12-13T16:15:01.888Z</time>
      </trkpt>
      <trkpt lat="47.98251" lon="-2.63878">
        <ele>88.452291</ele>
        <time>2022-12-13T16:15:03.910Z</time>
      </trkpt>
      <trkpt lat="47.98246" lon="-2.63865">
        <ele>88.477815</ele>
        <time>2022-12-13T16:15:05.884Z</time>
      </trkpt>
      <trkpt lat="47.9824" lon="-2.63855">
        <ele>88.500617</ele>
        <time>2022-12-13T16:15:07.876Z</time>
      </trkpt>
      <trkpt lat="47.98234" lon="-2.63843">
        <ele>88.523966</ele>
        <time>2022-12-13T16:15:09.894Z</time>
      </trkpt>
      <trkpt lat="47.98226" lon="-2.63827">
        <ele>88.556952</ele>
        <time>2022-12-13T16:15:12.886Z</time>
      </trkpt>
      <trkpt lat="47.9822" lon="-2.63815">
        <ele>88.581828</ele>
        <time>2022-12-13T16:15:14.902Z</time>
      </trkpt>
      <trkpt lat="47.98212" lon="-2.63805">
        <ele>88.607953</ele>
        <time>2022-12-13T16:15:16.887Z</time>
      </trkpt>
      <trkpt lat="47.98205" lon="-2.63793">
        <ele>88.633145</ele>
        <time>2022-12-13T16:15:18.886Z</time>
      </trkpt>
      <trkpt lat="47.98199" lon="-2.63781">
        <ele>88.65686</ele>
        <time>2022-12-13T16:15:20.898Z</time>
      </trkpt>
      <trkpt lat="47.98194" lon="-2.63769">
        <ele>88.680345</ele>
        <time>2022-12-13T16:15:22.895Z</time>
      </trkpt>
      <trkpt lat="47.98185" lon="-2.63755">
        <ele>88.712521</ele>
        <time>2022-12-13T16:15:25.873Z</time>
      </trkpt>
      <trkpt lat="47.98176" lon="-2.6374">
        <ele>88.744047</ele>
        <time>2022-12-13T16:15:28.896Z</time>
      </trkpt>
      <trkpt lat="47.98172" lon="-2.63729">
        <ele>88.765932</ele>
        <time>2022-12-13T16:15:30.886Z</time>
      </trkpt>
      <trkpt lat="47.98166" lon="-2.63718">
        <ele>88.788638</ele>
        <time>2022-12-13T16:15:32.898Z</time>
      </trkpt>
      <trkpt lat="47.98157" lon="-2.63702">
        <ele>88.9964</ele>
        <time>2022-12-13T16:15:35.874Z</time>
      </trkpt>
      <trkpt lat="47.98152" lon="-2.63691">
        <ele>89.141662</ele>
        <time>2022-12-13T16:15:37.891Z</time>
      </trkpt>
      <trkpt lat="47.98145" lon="-2.63675">
        <ele>89.346702</ele>
        <time>2022-12-13T16:15:40.894Z</time>
      </trkpt>
      <trkpt lat="47.98137" lon="-2.63661">
        <ele>89.547815</ele>
        <time>2022-12-13T16:15:43.889Z</time>
      </trkpt>
      <trkpt lat="47.98129" lon="-2.63647">
        <ele>89.735597</ele>
        <time>2022-12-13T16:15:46.881Z</time>
      </trkpt>
      <trkpt lat="47.98123" lon="-2.63636">
        <ele>89.890866</ele>
        <time>2022-12-13T16:15:49.905Z</time>
      </trkpt>
      <trkpt lat="47.98118" lon="-2.63625">
        <ele>90.036245</ele>
        <time>2022-12-13T16:15:52.896Z</time>
      </trkpt>
      <trkpt lat="47.98111" lon="-2.63612">
        <ele>90.212842</ele>
        <time>2022-12-13T16:15:55.877Z</time>
      </trkpt>
      <trkpt lat="47.98103" lon="-2.63598">
        <ele>90.404899</ele>
        <time>2022-12-13T16:15:58.896Z</time>
      </trkpt>
      <trkpt lat="47.98096" lon="-2.63584">
        <ele>90.604821</ele>
        <time>2022-12-13T16:16:01.910Z</time>
      </trkpt>
      <trkpt lat="47.9809" lon="-2.63574">
        <ele>90.749119</ele>
        <time>2022-12-13T16:16:03.903Z</time>
      </trkpt>
      <trkpt lat="47.98081" lon="-2.63559">
        <ele>90.963015</ele>
        <time>2022-12-13T16:16:06.895Z</time>
      </trkpt>
      <trkpt lat="47.98072" lon="-2.63544">
        <ele>91.175861</ele>
        <time>2022-12-13T16:16:09.901Z</time>
      </trkpt>
      <trkpt lat="47.98066" lon="-2.63532">
        <ele>91.33505</ele>
        <time>2022-12-13T16:16:11.879Z</time>
      </trkpt>
      <trkpt lat="47.9806" lon="-2.6352">
        <ele>91.49548</ele>
        <time>2022-12-13T16:16:13.883Z</time>
      </trkpt>
      <trkpt lat="47.98054" lon="-2.63508">
        <ele>91.655247</ele>
        <time>2022-12-13T16:16:15.876Z</time>
      </trkpt>
      <trkpt lat="47.98048" lon="-2.63498">
        <ele>91.782523</ele>
        <time>2022-12-13T16:16:17.884Z</time>
      </trkpt>
      <trkpt lat="47.98042" lon="-2.63487">
        <ele>91.910989</ele>
        <time>2022-12-13T16:16:19.898Z</time>
      </trkpt>
      <trkpt lat="47.98036" lon="-2.63477">
        <ele>92.035574</ele>
        <time>2022-12-13T16:16:21.898Z</time>
      </trkpt>
      <trkpt lat="47.98029" lon="-2.6346">
        <ele>92.228013</ele>
        <time>2022-12-13T16:16:24.901Z</time>
      </trkpt>
      <trkpt lat="47.98023" lon="-2.63448">
        <ele>92.362423</ele>
        <time>2022-12-13T16:16:26.903Z</time>
      </trkpt>
      <trkpt lat="47.98017" lon="-2.63436">
        <ele>92.499664</ele>
        <time>2022-12-13T16:16:28.899Z</time>
      </trkpt>
      <trkpt lat="47.98011" lon="-2.63425">
        <ele>92.631293</ele>
        <time>2022-12-13T16:16:30.906Z</time>
      </trkpt>
      <trkpt lat="47.98005" lon="-2.63412">
        <ele>92.767772</ele>
        <time>2022-12-13T16:16:32.897Z</time>
      </trkpt>
      <trkpt lat="47.98" lon="-2.63401">
        <ele>92.89736</ele>
        <time>2022-12-13T16:16:34.897Z</time>
      </trkpt>
      <trkpt lat="47.97993" lon="-2.63385">
        <ele>93.072937</ele>
        <time>2022-12-13T16:16:37.892Z</time>
      </trkpt>
      <trkpt lat="47.97988" lon="-2.63373">
        <ele>93.201004</ele>
        <time>2022-12-13T16:16:39.891Z</time>
      </trkpt>
      <trkpt lat="47.97981" lon="-2.63364">
        <ele>93.336899</ele>
        <time>2022-12-13T16:16:41.898Z</time>
      </trkpt>
      <trkpt lat="47.97972" lon="-2.63349">
        <ele>93.51344</ele>
        <time>2022-12-13T16:16:44.878Z</time>
      </trkpt>
      <trkpt lat="47.97965" lon="-2.63335">
        <ele>93.68348</ele>
        <time>2022-12-13T16:16:47.896Z</time>
      </trkpt>
      <trkpt lat="47.97956" lon="-2.63321">
        <ele>93.854644</ele>
        <time>2022-12-13T16:16:50.897Z</time>
      </trkpt>
      <trkpt lat="47.97949" lon="-2.63307">
        <ele>94.02008</ele>
        <time>2022-12-13T16:16:53.877Z</time>
      </trkpt>
      <trkpt lat="47.97941" lon="-2.63293">
        <ele>94.050724</ele>
        <time>2022-12-13T16:16:56.894Z</time>
      </trkpt>
      <trkpt lat="47.97933" lon="-2.63278">
        <ele>93.588764</ele>
        <time>2022-12-13T16:16:59.896Z</time>
      </trkpt>
      <trkpt lat="47.97924" lon="-2.6326">
        <ele>93.066812</ele>
        <time>2022-12-13T16:17:02.900Z</time>
      </trkpt>
      <trkpt lat="47.97919" lon="-2.63249">
        <ele>92.734918</ele>
        <time>2022-12-13T16:17:04.898Z</time>
      </trkpt>
      <trkpt lat="47.9791" lon="-2.63233">
        <ele>92.240183</ele>
        <time>2022-12-13T16:17:07.886Z</time>
      </trkpt>
      <trkpt lat="47.97905" lon="-2.63222">
        <ele>91.919189</ele>
        <time>2022-12-13T16:17:09.896Z</time>
      </trkpt>
      <trkpt lat="47.97899" lon="-2.63211">
        <ele>91.575334</ele>
        <time>2022-12-13T16:17:11.890Z</time>
      </trkpt>
      <trkpt lat="47.97894" lon="-2.63199">
        <ele>91.224745</ele>
        <time>2022-12-13T16:17:13.899Z</time>
      </trkpt>
      <trkpt lat="47.97888" lon="-2.63187">
        <ele>90.898065</ele>
        <time>2022-12-13T16:17:15.875Z</time>
      </trkpt>
      <trkpt lat="47.97883" lon="-2.63177">
        <ele>90.568037</ele>
        <time>2022-12-13T16:17:17.900Z</time>
      </trkpt>
      <trkpt lat="47.97873" lon="-2.63164">
        <ele>90.092201</ele>
        <time>2022-12-13T16:17:20.878Z</time>
      </trkpt>
      <trkpt lat="47.97864" lon="-2.63152">
        <ele>89.676217</ele>
        <time>2022-12-13T16:17:23.876Z</time>
      </trkpt>
      <trkpt lat="47.97856" lon="-2.63139">
        <ele>89.246979</ele>
        <time>2022-12-13T16:17:26.886Z</time>
      </trkpt>
      <trkpt lat="47.97848" lon="-2.63125">
        <ele>88.81182</ele>
        <time>2022-12-13T16:17:29.899Z</time>
      </trkpt>
      <trkpt lat="47.97843" lon="-2.63112">
        <ele>88.443308</ele>
        <time>2022-12-13T16:17:31.899Z</time>
      </trkpt>
      <trkpt lat="47.97837" lon="-2.63101">
        <ele>88.114611</ele>
        <time>2022-12-13T16:17:33.898Z</time>
      </trkpt>
      <trkpt lat="47.97832" lon="-2.63088">
        <ele>87.757983</ele>
        <time>2022-12-13T16:17:35.884Z</time>
      </trkpt>
      <trkpt lat="47.97825" lon="-2.63078">
        <ele>87.722393</ele>
        <time>2022-12-13T16:17:37.905Z</time>
      </trkpt>
      <trkpt lat="47.97819" lon="-2.63067">
        <ele>87.736974</ele>
        <time>2022-12-13T16:17:39.874Z</time>
      </trkpt>
      <trkpt lat="47.97811" lon="-2.6305">
        <ele>87.757639</ele>
        <time>2022-12-13T16:17:42.890Z</time>
      </trkpt>
      <trkpt lat="47.97802" lon="-2.63037">
        <ele>87.775313</ele>
        <time>2022-12-13T16:17:45.880Z</time>
      </trkpt>
      <trkpt lat="47.97794" lon="-2.63022">
        <ele>87.79386</ele>
        <time>2022-12-13T16:17:48.900Z</time>
      </trkpt>
      <trkpt lat="47.9779" lon="-2.6301">
        <ele>87.807364</ele>
        <time>2022-12-13T16:17:50.887Z</time>
      </trkpt>
      <trkpt lat="47.97783" lon="-2.63">
        <ele>87.821271</ele>
        <time>2022-12-13T16:17:52.888Z</time>
      </trkpt>
      <trkpt lat="47.97776" lon="-2.62991">
        <ele>87.834488</ele>
        <time>2022-12-13T16:17:54.903Z</time>
      </trkpt>
      <trkpt lat="47.97771" lon="-2.62979">
        <ele>87.848795</ele>
        <time>2022-12-13T16:17:56.884Z</time>
      </trkpt>
      <trkpt lat="47.97763" lon="-2.62965">
        <ele>87.867012</ele>
        <time>2022-12-13T16:17:59.895Z</time>
      </trkpt>
      <trkpt lat="47.97757" lon="-2.62954">
        <ele>87.880617</ele>
        <time>2022-12-13T16:18:02.883Z</time>
      </trkpt>
      <trkpt lat="47.9775" lon="-2.6294">
        <ele>87.897652</ele>
        <time>2022-12-13T16:18:05.878Z</time>
      </trkpt>
      <trkpt lat="47.97742" lon="-2.62927">
        <ele>87.914566</ele>
        <time>2022-12-13T16:18:08.894Z</time>
      </trkpt>
      <trkpt lat="47.97734" lon="-2.6291">
        <ele>87.934247</ele>
        <time>2022-12-13T16:18:11.900Z</time>
      </trkpt>
      <trkpt lat="47.97729" lon="-2.62899">
        <ele>87.947423</ele>
        <time>2022-12-13T16:18:13.903Z</time>
      </trkpt>
      <trkpt lat="47.97723" lon="-2.62889">
        <ele>87.960662</ele>
        <time>2022-12-13T16:18:15.872Z</time>
      </trkpt>
      <trkpt lat="47.97716" lon="-2.62875">
        <ele>87.951596</ele>
        <time>2022-12-13T16:18:18.894Z</time>
      </trkpt>
      <trkpt lat="47.9771" lon="-2.62862">
        <ele>87.877418</ele>
        <time>2022-12-13T16:18:21.889Z</time>
      </trkpt>
      <trkpt lat="47.97704" lon="-2.6285">
        <ele>87.803492</ele>
        <time>2022-12-13T16:18:25.876Z</time>
      </trkpt>
      <trkpt lat="47.97695" lon="-2.62839">
        <ele>87.722283</ele>
        <time>2022-12-13T16:18:30.884Z</time>
      </trkpt>
      <trkpt lat="47.9769" lon="-2.62824">
        <ele>87.640228</ele>
        <time>2022-12-13T16:18:35.875Z</time>
      </trkpt>
      <trkpt lat="47.97683" lon="-2.62811">
        <ele>87.561411</ele>
        <time>2022-12-13T16:18:38.897Z</time>
      </trkpt>
      <trkpt lat="47.97677" lon="-2.628">
        <ele>87.496203</ele>
        <time>2022-12-13T16:18:40.883Z</time>
      </trkpt>
      <trkpt lat="47.9767" lon="-2.62785">
        <ele>87.410125</ele>
        <time>2022-12-13T16:18:43.891Z</time>
      </trkpt>
      <trkpt lat="47.97664" lon="-2.62771">
        <ele>87.328414</ele>
        <time>2022-12-13T16:18:46.885Z</time>
      </trkpt>
      <trkpt lat="47.97656" lon="-2.62756">
        <ele>87.23775</ele>
        <time>2022-12-13T16:18:49.877Z</time>
      </trkpt>
      <trkpt lat="47.97647" lon="-2.62742">
        <ele>87.143847</ele>
        <time>2022-12-13T16:18:52.880Z</time>
      </trkpt>
      <trkpt lat="47.97639" lon="-2.62729">
        <ele>87.059909</ele>
        <time>2022-12-13T16:18:55.875Z</time>
      </trkpt>
      <trkpt lat="47.97633" lon="-2.62718">
        <ele>86.99501</ele>
        <time>2022-12-13T16:18:58.872Z</time>
      </trkpt>
      <trkpt lat="47.97626" lon="-2.62706">
        <ele>86.918089</ele>
        <time>2022-12-13T16:19:02.898Z</time>
      </trkpt>
      <trkpt lat="47.97618" lon="-2.62697">
        <ele>86.84639</ele>
        <time>2022-12-13T16:19:06.892Z</time>
      </trkpt>
      <trkpt lat="47.97613" lon="-2.62684">
        <ele>86.773405</ele>
        <time>2022-12-13T16:19:10.892Z</time>
      </trkpt>
      <trkpt lat="47.97608" lon="-2.62669">
        <ele>86.691014</ele>
        <time>2022-12-13T16:19:13.895Z</time>
      </trkpt>
      <trkpt lat="47.97602" lon="-2.62657">
        <ele>86.703593</ele>
        <time>2022-12-13T16:19:15.875Z</time>
      </trkpt>
      <trkpt lat="47.97596" lon="-2.62645">
        <ele>86.717476</ele>
        <time>2022-12-13T16:19:17.896Z</time>
      </trkpt>
      <trkpt lat="47.97589" lon="-2.62633">
        <ele>86.731744</ele>
        <time>2022-12-13T16:19:19.894Z</time>
      </trkpt>
      <trkpt lat="47.97582" lon="-2.62621">
        <ele>86.746169</ele>
        <time>2022-12-13T16:19:21.911Z</time>
      </trkpt>
      <trkpt lat="47.97576" lon="-2.6261">
        <ele>86.759029</ele>
        <time>2022-12-13T16:19:23.880Z</time>
      </trkpt>
      <trkpt lat="47.9757" lon="-2.62598">
        <ele>86.772676</ele>
        <time>2022-12-13T16:19:25.878Z</time>
      </trkpt>
      <trkpt lat="47.97562" lon="-2.62583">
        <ele>86.790262</ele>
        <time>2022-12-13T16:19:28.893Z</time>
      </trkpt>
      <trkpt lat="47.97554" lon="-2.62569">
        <ele>86.8067</ele>
        <time>2022-12-13T16:19:31.902Z</time>
      </trkpt>
      <trkpt lat="47.97547" lon="-2.62556">
        <ele>86.822444</ele>
        <time>2022-12-13T16:19:34.899Z</time>
      </trkpt>
      <trkpt lat="47.97539" lon="-2.62542">
        <ele>86.838517</ele>
        <time>2022-12-13T16:19:37.888Z</time>
      </trkpt>
      <trkpt lat="47.97531" lon="-2.62526">
        <ele>86.856422</ele>
        <time>2022-12-13T16:19:40.898Z</time>
      </trkpt>
      <trkpt lat="47.97525" lon="-2.62516">
        <ele>86.868759</ele>
        <time>2022-12-13T16:19:42.896Z</time>
      </trkpt>
      <trkpt lat="47.97518" lon="-2.62501">
        <ele>86.886129</ele>
        <time>2022-12-13T16:19:45.880Z</time>
      </trkpt>
      <trkpt lat="47.97508" lon="-2.62486">
        <ele>86.904517</ele>
        <time>2022-12-13T16:19:48.896Z</time>
      </trkpt>
      <trkpt lat="47.97501" lon="-2.62477">
        <ele>86.917543</ele>
        <time>2022-12-13T16:19:50.891Z</time>
      </trkpt>
      <trkpt lat="47.97493" lon="-2.62467">
        <ele>86.931064</ele>
        <time>2022-12-13T16:19:52.884Z</time>
      </trkpt>
      <trkpt lat="47.97485" lon="-2.62458">
        <ele>86.888904</ele>
        <time>2022-12-13T16:19:54.885Z</time>
      </trkpt>
      <trkpt lat="47.97477" lon="-2.62449">
        <ele>86.82716</ele>
        <time>2022-12-13T16:19:56.903Z</time>
      </trkpt>
      <trkpt lat="47.97469" lon="-2.62443">
        <ele>86.771139</ele>
        <time>2022-12-13T16:19:58.878Z</time>
      </trkpt>
      <trkpt lat="47.97457" lon="-2.62435">
        <ele>86.691763</ele>
        <time>2022-12-13T16:20:01.902Z</time>
      </trkpt>
      <trkpt lat="47.97446" lon="-2.62428">
        <ele>86.620015</ele>
        <time>2022-12-13T16:20:04.893Z</time>
      </trkpt>
      <trkpt lat="47.97434" lon="-2.62424">
        <ele>86.544638</ele>
        <time>2022-12-13T16:20:07.892Z</time>
      </trkpt>
      <trkpt lat="47.97422" lon="-2.6242">
        <ele>86.466555</ele>
        <time>2022-12-13T16:20:10.896Z</time>
      </trkpt>
      <trkpt lat="47.9741" lon="-2.62415">
        <ele>86.389396</ele>
        <time>2022-12-13T16:20:13.894Z</time>
      </trkpt>
      <trkpt lat="47.97398" lon="-2.62414">
        <ele>86.320025</ele>
        <time>2022-12-13T16:20:16.898Z</time>
      </trkpt>
      <trkpt lat="47.97389" lon="-2.6241">
        <ele>86.260058</ele>
        <time>2022-12-13T16:20:19.872Z</time>
      </trkpt>
      <trkpt lat="47.97379" lon="-2.62406">
        <ele>86.199306</ele>
        <time>2022-12-13T16:20:23.886Z</time>
      </trkpt>
      <trkpt lat="47.9737" lon="-2.62402">
        <ele>86.142986</ele>
        <time>2022-12-13T16:20:26.900Z</time>
      </trkpt>
      <trkpt lat="47.97359" lon="-2.62398">
        <ele>86.071045</ele>
        <time>2022-12-13T16:20:29.879Z</time>
      </trkpt>
      <trkpt lat="47.97346" lon="-2.62395">
        <ele>85.991635</ele>
        <time>2022-12-13T16:20:32.887Z</time>
      </trkpt>
      <trkpt lat="47.97337" lon="-2.62392">
        <ele>85.936164</ele>
        <time>2022-12-13T16:20:34.907Z</time>
      </trkpt>
      <trkpt lat="47.97326" lon="-2.62389">
        <ele>85.867864</ele>
        <time>2022-12-13T16:20:37.889Z</time>
      </trkpt>
      <trkpt lat="47.97315" lon="-2.62385">
        <ele>85.826083</ele>
        <time>2022-12-13T16:20:40.903Z</time>
      </trkpt>
      <trkpt lat="47.97304" lon="-2.62379">
        <ele>85.805927</ele>
        <time>2022-12-13T16:20:43.892Z</time>
      </trkpt>
      <trkpt lat="47.97292" lon="-2.62376">
        <ele>85.785879</ele>
        <time>2022-12-13T16:20:46.892Z</time>
      </trkpt>
      <trkpt lat="47.97279" lon="-2.62373">
        <ele>85.764145</ele>
        <time>2022-12-13T16:20:49.898Z</time>
      </trkpt>
      <trkpt lat="47.9727" lon="-2.62369">
        <ele>85.749104</ele>
        <time>2022-12-13T16:20:51.876Z</time>
      </trkpt>
      <trkpt lat="47.9726" lon="-2.62367">
        <ele>85.732269</ele>
        <time>2022-12-13T16:20:53.898Z</time>
      </trkpt>
      <trkpt lat="47.97248" lon="-2.62363">
        <ele>85.711875</ele>
        <time>2022-12-13T16:20:56.877Z</time>
      </trkpt>
      <trkpt lat="47.97235" lon="-2.62359">
        <ele>85.69056</ele>
        <time>2022-12-13T16:20:59.897Z</time>
      </trkpt>
      <trkpt lat="47.97224" lon="-2.62353">
        <ele>85.669882</ele>
        <time>2022-12-13T16:21:02.887Z</time>
      </trkpt>
      <trkpt lat="47.97211" lon="-2.6235">
        <ele>85.649488</ele>
        <time>2022-12-13T16:21:05.876Z</time>
      </trkpt>
      <trkpt lat="47.972" lon="-2.62346">
        <ele>85.630045</ele>
        <time>2022-12-13T16:21:08.894Z</time>
      </trkpt>
      <trkpt lat="47.97187" lon="-2.62342">
        <ele>85.608915</ele>
        <time>2022-12-13T16:21:11.891Z</time>
      </trkpt>
      <trkpt lat="47.97178" lon="-2.6234">
        <ele>85.593767</ele>
        <time>2022-12-13T16:21:13.879Z</time>
      </trkpt>
      <trkpt lat="47.9717" lon="-2.62337">
        <ele>85.578761</ele>
        <time>2022-12-13T16:21:15.883Z</time>
      </trkpt>
      <trkpt lat="47.97161" lon="-2.62334">
        <ele>85.56385</ele>
        <time>2022-12-13T16:21:17.890Z</time>
      </trkpt>
      <trkpt lat="47.97151" lon="-2.62331">
        <ele>85.548082</ele>
        <time>2022-12-13T16:21:19.892Z</time>
      </trkpt>
      <trkpt lat="47.97143" lon="-2.62329">
        <ele>85.55171</ele>
        <time>2022-12-13T16:21:21.908Z</time>
      </trkpt>
      <trkpt lat="47.9713" lon="-2.62325">
        <ele>85.607213</ele>
        <time>2022-12-13T16:21:24.900Z</time>
      </trkpt>
      <trkpt lat="47.97119" lon="-2.62322">
        <ele>85.655885</ele>
        <time>2022-12-13T16:21:27.903Z</time>
      </trkpt>
      <trkpt lat="47.97108" lon="-2.62317">
        <ele>85.707354</ele>
        <time>2022-12-13T16:21:30.896Z</time>
      </trkpt>
      <trkpt lat="47.97096" lon="-2.62312">
        <ele>85.760258</ele>
        <time>2022-12-13T16:21:33.907Z</time>
      </trkpt>
      <trkpt lat="47.97084" lon="-2.62309">
        <ele>85.811218</ele>
        <time>2022-12-13T16:21:36.899Z</time>
      </trkpt>
      <trkpt lat="47.97072" lon="-2.62303">
        <ele>85.865345</ele>
        <time>2022-12-13T16:21:39.911Z</time>
      </trkpt>
      <trkpt lat="47.9706" lon="-2.62298">
        <ele>85.918479</ele>
        <time>2022-12-13T16:21:42.894Z</time>
      </trkpt>
      <trkpt lat="47.97048" lon="-2.62294">
        <ele>85.97278</ele>
        <time>2022-12-13T16:21:45.875Z</time>
      </trkpt>
      <trkpt lat="47.97036" lon="-2.62288">
        <ele>86.027065</ele>
        <time>2022-12-13T16:21:48.903Z</time>
      </trkpt>
      <trkpt lat="47.97024" lon="-2.62282">
        <ele>86.082105</ele>
        <time>2022-12-13T16:21:51.891Z</time>
      </trkpt>
      <trkpt lat="47.97014" lon="-2.62277">
        <ele>86.127963</ele>
        <time>2022-12-13T16:21:54.898Z</time>
      </trkpt>
      <trkpt lat="47.97005" lon="-2.6227">
        <ele>86.17166</ele>
        <time>2022-12-13T16:21:57.885Z</time>
      </trkpt>
      <trkpt lat="47.96996" lon="-2.62263">
        <ele>86.217423</ele>
        <time>2022-12-13T16:22:00.897Z</time>
      </trkpt>
      <trkpt lat="47.96987" lon="-2.62255">
        <ele>86.264654</ele>
        <time>2022-12-13T16:22:03.911Z</time>
      </trkpt>
      <trkpt lat="47.96977" lon="-2.62249">
        <ele>86.307745</ele>
        <time>2022-12-13T16:22:05.878Z</time>
      </trkpt>
      <trkpt lat="47.96966" lon="-2.62239">
        <ele>86.324758</ele>
        <time>2022-12-13T16:22:08.896Z</time>
      </trkpt>
      <trkpt lat="47.96956" lon="-2.6223">
        <ele>86.333088</ele>
        <time>2022-12-13T16:22:11.905Z</time>
      </trkpt>
      <trkpt lat="47.96945" lon="-2.62221">
        <ele>86.341604</ele>
        <time>2022-12-13T16:22:14.899Z</time>
      </trkpt>
      <trkpt lat="47.96937" lon="-2.62214">
        <ele>86.347823</ele>
        <time>2022-12-13T16:22:16.881Z</time>
      </trkpt>
      <trkpt lat="47.96925" lon="-2.62204">
        <ele>86.357118</ele>
        <time>2022-12-13T16:22:19.892Z</time>
      </trkpt>
      <trkpt lat="47.96917" lon="-2.62197">
        <ele>86.363644</ele>
        <time>2022-12-13T16:22:21.883Z</time>
      </trkpt>
      <trkpt lat="47.96909" lon="-2.6219">
        <ele>86.369881</ele>
        <time>2022-12-13T16:22:23.904Z</time>
      </trkpt>
      <trkpt lat="47.96901" lon="-2.62183">
        <ele>86.376383</ele>
        <time>2022-12-13T16:22:25.876Z</time>
      </trkpt>
      <trkpt lat="47.96893" lon="-2.62176">
        <ele>86.382949</ele>
        <time>2022-12-13T16:22:27.909Z</time>
      </trkpt>
      <trkpt lat="47.96885" lon="-2.62169">
        <ele>86.38944</ele>
        <time>2022-12-13T16:22:29.909Z</time>
      </trkpt>
      <trkpt lat="47.96877" lon="-2.62161">
        <ele>86.395861</ele>
        <time>2022-12-13T16:22:31.904Z</time>
      </trkpt>
      <trkpt lat="47.96869" lon="-2.62154">
        <ele>86.402576</ele>
        <time>2022-12-13T16:22:33.921Z</time>
      </trkpt>
      <trkpt lat="47.9686" lon="-2.62145">
        <ele>86.409327</ele>
        <time>2022-12-13T16:22:35.877Z</time>
      </trkpt>
      <trkpt lat="47.96853" lon="-2.62138">
        <ele>86.415702</ele>
        <time>2022-12-13T16:22:37.901Z</time>
      </trkpt>
      <trkpt lat="47.96845" lon="-2.6213">
        <ele>86.421995</ele>
        <time>2022-12-13T16:22:39.908Z</time>
      </trkpt>
      <trkpt lat="47.96837" lon="-2.62123">
        <ele>86.42825</ele>
        <time>2022-12-13T16:22:41.898Z</time>
      </trkpt>
      <trkpt lat="47.96827" lon="-2.62113">
        <ele>86.436643</ele>
        <time>2022-12-13T16:22:44.912Z</time>
      </trkpt>
      <trkpt lat="47.96817" lon="-2.62105">
        <ele>86.468565</ele>
        <time>2022-12-13T16:22:47.910Z</time>
      </trkpt>
      <trkpt lat="47.96805" lon="-2.62098">
        <ele>86.536511</ele>
        <time>2022-12-13T16:22:50.886Z</time>
      </trkpt>
      <trkpt lat="47.96791" lon="-2.62094">
        <ele>86.608123</ele>
        <time>2022-12-13T16:22:53.894Z</time>
      </trkpt>
      <trkpt lat="47.96779" lon="-2.62089">
        <ele>86.673513</ele>
        <time>2022-12-13T16:22:56.901Z</time>
      </trkpt>
      <trkpt lat="47.9677" lon="-2.62085">
        <ele>86.721864</ele>
        <time>2022-12-13T16:22:58.889Z</time>
      </trkpt>
      <trkpt lat="47.96761" lon="-2.62082">
        <ele>86.77005</ele>
        <time>2022-12-13T16:23:00.903Z</time>
      </trkpt>
      <trkpt lat="47.96748" lon="-2.62079">
        <ele>86.839131</ele>
        <time>2022-12-13T16:23:03.908Z</time>
      </trkpt>
      <trkpt lat="47.96739" lon="-2.62076">
        <ele>86.887594</ele>
        <time>2022-12-13T16:23:05.880Z</time>
      </trkpt>
      <trkpt lat="47.96727" lon="-2.62071">
        <ele>86.953078</ele>
        <time>2022-12-13T16:23:08.904Z</time>
      </trkpt>
      <trkpt lat="47.96715" lon="-2.62066">
        <ele>87.016757</ele>
        <time>2022-12-13T16:23:11.901Z</time>
      </trkpt>
      <trkpt lat="47.96703" lon="-2.62061">
        <ele>87.079771</ele>
        <time>2022-12-13T16:23:14.882Z</time>
      </trkpt>
      <trkpt lat="47.96692" lon="-2.62055">
        <ele>87.142119</ele>
        <time>2022-12-13T16:23:17.896Z</time>
      </trkpt>
      <trkpt lat="47.96681" lon="-2.62049">
        <ele>87.205451</ele>
        <time>2022-12-13T16:23:20.892Z</time>
      </trkpt>
      <trkpt lat="47.96669" lon="-2.62044">
        <ele>87.267079</ele>
        <time>2022-12-13T16:23:23.903Z</time>
      </trkpt>
      <trkpt lat="47.96658" lon="-2.6204">
        <ele>87.327116</ele>
        <time>2022-12-13T16:23:26.901Z</time>
      </trkpt>
      <trkpt lat="47.96648" lon="-2.62035">
        <ele>87.376472</ele>
        <time>2022-12-13T16:23:29.881Z</time>
      </trkpt>
      <trkpt lat="47.96639" lon="-2.6203">
        <ele>87.3466</ele>
        <time>2022-12-13T16:23:32.881Z</time>
      </trkpt>
      <trkpt lat="47.96627" lon="-2.62026">
        <ele>87.312567</ele>
        <time>2022-12-13T16:23:35.880Z</time>
      </trkpt>
      <trkpt lat="47.96615" lon="-2.62021">
        <ele>87.277867</ele>
        <time>2022-12-13T16:23:38.909Z</time>
      </trkpt>
      <trkpt lat="47.96607" lon="-2.62013">
        <ele>87.24773</ele>
        <time>2022-12-13T16:23:41.883Z</time>
      </trkpt>
      <trkpt lat="47.96603" lon="-2.62">
        <ele>87.22068</ele>
        <time>2022-12-13T16:23:44.884Z</time>
      </trkpt>
      <trkpt lat="47.96601" lon="-2.61986">
        <ele>87.192592</ele>
        <time>2022-12-13T16:23:47.882Z</time>
      </trkpt>
      <trkpt lat="47.96601" lon="-2.61971">
        <ele>87.164401</ele>
        <time>2022-12-13T16:23:50.884Z</time>
      </trkpt>
      <trkpt lat="47.96601" lon="-2.61954">
        <ele>87.131249</ele>
        <time>2022-12-13T16:23:54.893Z</time>
      </trkpt>
      <trkpt lat="47.966" lon="-2.6194">
        <ele>87.10491</ele>
        <time>2022-12-13T16:23:57.899Z</time>
      </trkpt>
      <trkpt lat="47.96593" lon="-2.61926">
        <ele>87.071753</ele>
        <time>2022-12-13T16:24:01.876Z</time>
      </trkpt>
      <trkpt lat="47.96582" lon="-2.61928">
        <ele>87.040351</ele>
        <time>2022-12-13T16:24:04.893Z</time>
      </trkpt>
      <trkpt lat="47.96572" lon="-2.61936">
        <ele>87.007876</ele>
        <time>2022-12-13T16:24:07.887Z</time>
      </trkpt>
      <trkpt lat="47.96562" lon="-2.61939">
        <ele>86.977952</ele>
        <time>2022-12-13T16:24:09.902Z</time>
      </trkpt>
      <trkpt lat="47.9655" lon="-2.61941">
        <ele>86.942338</ele>
        <time>2022-12-13T16:24:11.885Z</time>
      </trkpt>
      <trkpt lat="47.96539" lon="-2.61937">
        <ele>86.911412</ele>
        <time>2022-12-13T16:24:14.888Z</time>
      </trkpt>
      <trkpt lat="47.96528" lon="-2.61938">
        <ele>86.878296</ele>
        <time>2022-12-13T16:24:18.891Z</time>
      </trkpt>
      <trkpt lat="47.96518" lon="-2.61941">
        <ele>86.8506</ele>
        <time>2022-12-13T16:24:21.896Z</time>
      </trkpt>
      <trkpt lat="47.96507" lon="-2.61945">
        <ele>86.823356</ele>
        <time>2022-12-13T16:24:24.915Z</time>
      </trkpt>
      <trkpt lat="47.96495" lon="-2.61949">
        <ele>86.79526</ele>
        <time>2022-12-13T16:24:27.902Z</time>
      </trkpt>
      <trkpt lat="47.96484" lon="-2.61954">
        <ele>86.768077</ele>
        <time>2022-12-13T16:24:30.896Z</time>
      </trkpt>
      <trkpt lat="47.96475" lon="-2.6196">
        <ele>86.743121</ele>
        <time>2022-12-13T16:24:33.884Z</time>
      </trkpt>
      <trkpt lat="47.96464" lon="-2.61967">
        <ele>86.714408</ele>
        <time>2022-12-13T16:24:36.903Z</time>
      </trkpt>
      <trkpt lat="47.96452" lon="-2.61974">
        <ele>86.684491</ele>
        <time>2022-12-13T16:24:39.904Z</time>
      </trkpt>
      <trkpt lat="47.96442" lon="-2.61982">
        <ele>86.656461</ele>
        <time>2022-12-13T16:24:42.890Z</time>
      </trkpt>
      <trkpt lat="47.96432" lon="-2.6199">
        <ele>86.630936</ele>
        <time>2022-12-13T16:24:45.877Z</time>
      </trkpt>
      <trkpt lat="47.96423" lon="-2.61995">
        <ele>86.606242</ele>
        <time>2022-12-13T16:24:49.882Z</time>
      </trkpt>
      <trkpt lat="47.96414" lon="-2.62">
        <ele>86.583827</ele>
        <time>2022-12-13T16:24:54.906Z</time>
      </trkpt>
      <trkpt lat="47.96405" lon="-2.62008">
        <ele>86.559076</ele>
        <time>2022-12-13T16:24:58.892Z</time>
      </trkpt>
      <trkpt lat="47.96396" lon="-2.62014">
        <ele>86.535261</ele>
        <time>2022-12-13T16:25:01.914Z</time>
      </trkpt>
      <trkpt lat="47.96385" lon="-2.62021">
        <ele>86.506354</ele>
        <time>2022-12-13T16:25:04.906Z</time>
      </trkpt>
      <trkpt lat="47.96373" lon="-2.62029">
        <ele>86.474557</ele>
        <time>2022-12-13T16:25:07.896Z</time>
      </trkpt>
      <trkpt lat="47.96364" lon="-2.62035">
        <ele>86.452297</ele>
        <time>2022-12-13T16:25:09.903Z</time>
      </trkpt>
      <trkpt lat="47.96355" lon="-2.62041">
        <ele>86.426416</ele>
        <time>2022-12-13T16:25:11.883Z</time>
      </trkpt>
      <trkpt lat="47.96347" lon="-2.62048">
        <ele>86.280075</ele>
        <time>2022-12-13T16:25:13.896Z</time>
      </trkpt>
      <trkpt lat="47.96338" lon="-2.62056">
        <ele>86.12822</ele>
        <time>2022-12-13T16:25:15.883Z</time>
      </trkpt>
      <trkpt lat="47.96329" lon="-2.62063">
        <ele>85.985498</ele>
        <time>2022-12-13T16:25:17.905Z</time>
      </trkpt>
      <trkpt lat="47.96322" lon="-2.6207">
        <ele>85.848026</ele>
        <time>2022-12-13T16:25:19.908Z</time>
      </trkpt>
      <trkpt lat="47.96314" lon="-2.62078">
        <ele>85.711789</ele>
        <time>2022-12-13T16:25:21.901Z</time>
      </trkpt>
      <trkpt lat="47.96306" lon="-2.62086">
        <ele>85.575671</ele>
        <time>2022-12-13T16:25:23.911Z</time>
      </trkpt>
      <trkpt lat="47.96299" lon="-2.62094">
        <ele>85.439627</ele>
        <time>2022-12-13T16:25:25.874Z</time>
      </trkpt>
      <trkpt lat="47.96289" lon="-2.62105">
        <ele>85.252041</ele>
        <time>2022-12-13T16:25:28.896Z</time>
      </trkpt>
      <trkpt lat="47.96281" lon="-2.62114">
        <ele>85.113025</ele>
        <time>2022-12-13T16:25:30.889Z</time>
      </trkpt>
      <trkpt lat="47.96274" lon="-2.62123">
        <ele>84.971391</ele>
        <time>2022-12-13T16:25:32.911Z</time>
      </trkpt>
      <trkpt lat="47.96267" lon="-2.62133">
        <ele>84.82636</ele>
        <time>2022-12-13T16:25:34.905Z</time>
      </trkpt>
      <trkpt lat="47.96259" lon="-2.62142">
        <ele>84.683722</ele>
        <time>2022-12-13T16:25:36.889Z</time>
      </trkpt>
      <trkpt lat="47.96251" lon="-2.62152">
        <ele>84.532759</ele>
        <time>2022-12-13T16:25:38.894Z</time>
      </trkpt>
      <trkpt lat="47.96243" lon="-2.62161">
        <ele>84.385491</ele>
        <time>2022-12-13T16:25:40.893Z</time>
      </trkpt>
      <trkpt lat="47.96235" lon="-2.62171">
        <ele>84.231342</ele>
        <time>2022-12-13T16:25:42.897Z</time>
      </trkpt>
      <trkpt lat="47.96227" lon="-2.6218">
        <ele>84.077541</ele>
        <time>2022-12-13T16:25:44.897Z</time>
      </trkpt>
      <trkpt lat="47.96219" lon="-2.62189">
        <ele>83.930272</ele>
        <time>2022-12-13T16:25:46.901Z</time>
      </trkpt>
      <trkpt lat="47.96212" lon="-2.62198">
        <ele>83.791171</ele>
        <time>2022-12-13T16:25:48.893Z</time>
      </trkpt>
      <trkpt lat="47.96204" lon="-2.62206">
        <ele>83.789113</ele>
        <time>2022-12-13T16:25:50.902Z</time>
      </trkpt>
      <trkpt lat="47.96194" lon="-2.62217">
        <ele>83.812581</ele>
        <time>2022-12-13T16:25:53.895Z</time>
      </trkpt>
      <trkpt lat="47.96184" lon="-2.62229">
        <ele>83.837482</ele>
        <time>2022-12-13T16:25:56.907Z</time>
      </trkpt>
      <trkpt lat="47.96176" lon="-2.62236">
        <ele>83.854827</ele>
        <time>2022-12-13T16:25:58.905Z</time>
      </trkpt>
      <trkpt lat="47.96168" lon="-2.62243">
        <ele>83.872912</ele>
        <time>2022-12-13T16:26:00.911Z</time>
      </trkpt>
      <trkpt lat="47.96159" lon="-2.6225">
        <ele>83.891513</ele>
        <time>2022-12-13T16:26:02.911Z</time>
      </trkpt>
      <trkpt lat="47.96149" lon="-2.62256">
        <ele>83.910515</ele>
        <time>2022-12-13T16:26:04.897Z</time>
      </trkpt>
      <trkpt lat="47.96141" lon="-2.62263">
        <ele>83.928948</ele>
        <time>2022-12-13T16:26:06.887Z</time>
      </trkpt>
      <trkpt lat="47.96132" lon="-2.62266">
        <ele>83.946655</ele>
        <time>2022-12-13T16:26:08.872Z</time>
      </trkpt>
      <trkpt lat="47.96118" lon="-2.62272">
        <ele>83.972436</ele>
        <time>2022-12-13T16:26:11.881Z</time>
      </trkpt>
      <trkpt lat="47.96109" lon="-2.62275">
        <ele>83.990748</ele>
        <time>2022-12-13T16:26:13.912Z</time>
      </trkpt>
      <trkpt lat="47.96099" lon="-2.62277">
        <ele>84.009559</ele>
        <time>2022-12-13T16:26:15.894Z</time>
      </trkpt>
      <trkpt lat="47.96089" lon="-2.62279">
        <ele>84.027794</ele>
        <time>2022-12-13T16:26:17.893Z</time>
      </trkpt>
      <trkpt lat="47.96079" lon="-2.62281">
        <ele>84.047037</ele>
        <time>2022-12-13T16:26:19.890Z</time>
      </trkpt>
      <trkpt lat="47.96069" lon="-2.62281">
        <ele>84.06544</ele>
        <time>2022-12-13T16:26:21.903Z</time>
      </trkpt>
      <trkpt lat="47.9606" lon="-2.62281">
        <ele>84.0831</ele>
        <time>2022-12-13T16:26:23.907Z</time>
      </trkpt>
      <trkpt lat="47.96048" lon="-2.6228">
        <ele>84.106033</ele>
        <time>2022-12-13T16:26:26.896Z</time>
      </trkpt>
      <trkpt lat="47.96035" lon="-2.62279">
        <ele>84.128421</ele>
        <time>2022-12-13T16:26:29.881Z</time>
      </trkpt>
      <trkpt lat="47.96025" lon="-2.62278">
        <ele>84.144338</ele>
        <time>2022-12-13T16:26:31.917Z</time>
      </trkpt>
      <trkpt lat="47.96016" lon="-2.62277">
        <ele>84.159588</ele>
        <time>2022-12-13T16:26:33.913Z</time>
      </trkpt>
      <trkpt lat="47.96007" lon="-2.62275">
        <ele>84.174365</ele>
        <time>2022-12-13T16:26:35.888Z</time>
      </trkpt>
      <trkpt lat="47.95998" lon="-2.62272">
        <ele>84.190079</ele>
        <time>2022-12-13T16:26:37.881Z</time>
      </trkpt>
      <trkpt lat="47.95988" lon="-2.62268">
        <ele>84.205868</ele>
        <time>2022-12-13T16:26:39.886Z</time>
      </trkpt>
      <trkpt lat="47.9598" lon="-2.62262">
        <ele>84.221234</ele>
        <time>2022-12-13T16:26:41.882Z</time>
      </trkpt>
      <trkpt lat="47.95968" lon="-2.62253">
        <ele>84.243279</ele>
        <time>2022-12-13T16:26:44.889Z</time>
      </trkpt>
      <trkpt lat="47.95961" lon="-2.62244">
        <ele>84.259185</ele>
        <time>2022-12-13T16:26:46.895Z</time>
      </trkpt>
      <trkpt lat="47.95954" lon="-2.62233">
        <ele>84.275686</ele>
        <time>2022-12-13T16:26:48.884Z</time>
      </trkpt>
      <trkpt lat="47.95946" lon="-2.62223">
        <ele>84.291996</ele>
        <time>2022-12-13T16:26:50.882Z</time>
      </trkpt>
      <trkpt lat="47.9594" lon="-2.62213">
        <ele>84.307669</ele>
        <time>2022-12-13T16:26:52.890Z</time>
      </trkpt>
      <trkpt lat="47.95934" lon="-2.62202">
        <ele>84.322874</ele>
        <time>2022-12-13T16:26:54.888Z</time>
      </trkpt>
      <trkpt lat="47.95928" lon="-2.62192">
        <ele>84.338297</ele>
        <time>2022-12-13T16:26:56.900Z</time>
      </trkpt>
      <trkpt lat="47.95919" lon="-2.62177">
        <ele>84.360827</ele>
        <time>2022-12-13T16:26:59.886Z</time>
      </trkpt>
      <trkpt lat="47.95913" lon="-2.62165">
        <ele>84.376751</ele>
        <time>2022-12-13T16:27:01.899Z</time>
      </trkpt>
      <trkpt lat="47.95908" lon="-2.62154">
        <ele>84.392333</ele>
        <time>2022-12-13T16:27:03.902Z</time>
      </trkpt>
      <trkpt lat="47.95902" lon="-2.62142">
        <ele>84.409091</ele>
        <time>2022-12-13T16:27:05.878Z</time>
      </trkpt>
      <trkpt lat="47.95896" lon="-2.62129">
        <ele>84.32188</ele>
        <time>2022-12-13T16:27:07.898Z</time>
      </trkpt>
      <trkpt lat="47.95891" lon="-2.62115">
        <ele>84.238735</ele>
        <time>2022-12-13T16:27:09.912Z</time>
      </trkpt>
      <trkpt lat="47.95887" lon="-2.62103">
        <ele>84.157984</ele>
        <time>2022-12-13T16:27:11.902Z</time>
      </trkpt>
      <trkpt lat="47.95883" lon="-2.6209">
        <ele>84.081386</ele>
        <time>2022-12-13T16:27:13.898Z</time>
      </trkpt>
      <trkpt lat="47.95878" lon="-2.62073">
        <ele>83.977154</ele>
        <time>2022-12-13T16:27:16.893Z</time>
      </trkpt>
      <trkpt lat="47.95873" lon="-2.62054">
        <ele>83.859726</ele>
        <time>2022-12-13T16:27:19.897Z</time>
      </trkpt>
      <trkpt lat="47.95868" lon="-2.62041">
        <ele>83.778091</ele>
        <time>2022-12-13T16:27:21.885Z</time>
      </trkpt>
      <trkpt lat="47.95865" lon="-2.62029">
        <ele>83.700844</ele>
        <time>2022-12-13T16:27:23.904Z</time>
      </trkpt>
      <trkpt lat="47.95861" lon="-2.62015">
        <ele>83.618786</ele>
        <time>2022-12-13T16:27:25.885Z</time>
      </trkpt>
      <trkpt lat="47.95857" lon="-2.62001">
        <ele>83.532957</ele>
        <time>2022-12-13T16:27:27.905Z</time>
      </trkpt>
      <trkpt lat="47.95853" lon="-2.61987">
        <ele>83.447454</ele>
        <time>2022-12-13T16:27:29.897Z</time>
      </trkpt>
      <trkpt lat="47.95848" lon="-2.61974">
        <ele>83.361033</ele>
        <time>2022-12-13T16:27:31.902Z</time>
      </trkpt>
      <trkpt lat="47.95844" lon="-2.61961">
        <ele>83.281382</ele>
        <time>2022-12-13T16:27:33.910Z</time>
      </trkpt>
      <trkpt lat="47.95841" lon="-2.61948">
        <ele>83.202158</ele>
        <time>2022-12-13T16:27:35.882Z</time>
      </trkpt>
      <trkpt lat="47.95837" lon="-2.61935">
        <ele>83.123871</ele>
        <time>2022-12-13T16:27:37.903Z</time>
      </trkpt>
      <trkpt lat="47.95832" lon="-2.61923">
        <ele>83.046017</ele>
        <time>2022-12-13T16:27:39.894Z</time>
      </trkpt>
      <trkpt lat="47.95828" lon="-2.61907">
        <ele>82.950159</ele>
        <time>2022-12-13T16:27:42.885Z</time>
      </trkpt>
      <trkpt lat="47.95824" lon="-2.61891">
        <ele>82.945046</ele>
        <time>2022-12-13T16:27:45.882Z</time>
      </trkpt>
      <trkpt lat="47.95819" lon="-2.61874">
        <ele>83.062438</ele>
        <time>2022-12-13T16:27:48.909Z</time>
      </trkpt>
      <trkpt lat="47.95815" lon="-2.6186">
        <ele>83.161798</ele>
        <time>2022-12-13T16:27:50.884Z</time>
      </trkpt>
      <trkpt lat="47.9581" lon="-2.61841">
        <ele>83.291858</ele>
        <time>2022-12-13T16:27:53.902Z</time>
      </trkpt>
      <trkpt lat="47.95806" lon="-2.61828">
        <ele>83.387162</ele>
        <time>2022-12-13T16:27:55.879Z</time>
      </trkpt>
      <trkpt lat="47.95802" lon="-2.61809">
        <ele>83.515963</ele>
        <time>2022-12-13T16:27:58.913Z</time>
      </trkpt>
      <trkpt lat="47.95797" lon="-2.61791">
        <ele>83.636343</ele>
        <time>2022-12-13T16:28:01.906Z</time>
      </trkpt>
      <trkpt lat="47.95793" lon="-2.61773">
        <ele>83.761151</ele>
        <time>2022-12-13T16:28:04.894Z</time>
      </trkpt>
      <trkpt lat="47.95791" lon="-2.6176">
        <ele>83.849426</ele>
        <time>2022-12-13T16:28:06.885Z</time>
      </trkpt>
      <trkpt lat="47.95789" lon="-2.61746">
        <ele>83.938198</ele>
        <time>2022-12-13T16:28:08.906Z</time>
      </trkpt>
      <trkpt lat="47.95787" lon="-2.61731">
        <ele>84.034891</ele>
        <time>2022-12-13T16:28:10.886Z</time>
      </trkpt>
      <trkpt lat="47.95787" lon="-2.61716">
        <ele>84.131494</ele>
        <time>2022-12-13T16:28:12.899Z</time>
      </trkpt>
      <trkpt lat="47.95786" lon="-2.61702">
        <ele>84.224403</ele>
        <time>2022-12-13T16:28:14.893Z</time>
      </trkpt>
      <trkpt lat="47.95787" lon="-2.61687">
        <ele>84.320949</ele>
        <time>2022-12-13T16:28:16.904Z</time>
      </trkpt>
      <trkpt lat="47.95788" lon="-2.61673">
        <ele>84.411019</ele>
        <time>2022-12-13T16:28:18.914Z</time>
      </trkpt>
      <trkpt lat="47.95789" lon="-2.61657">
        <ele>84.516395</ele>
        <time>2022-12-13T16:28:20.898Z</time>
      </trkpt>
      <trkpt lat="47.95791" lon="-2.61641">
        <ele>84.617557</ele>
        <time>2022-12-13T16:28:22.904Z</time>
      </trkpt>
      <trkpt lat="47.95792" lon="-2.61628">
        <ele>84.614219</ele>
        <time>2022-12-13T16:28:24.909Z</time>
      </trkpt>
      <trkpt lat="47.95794" lon="-2.61608">
        <ele>84.600157</ele>
        <time>2022-12-13T16:28:27.902Z</time>
      </trkpt>
      <trkpt lat="47.95796" lon="-2.61593">
        <ele>84.589481</ele>
        <time>2022-12-13T16:28:29.910Z</time>
      </trkpt>
      <trkpt lat="47.95797" lon="-2.61578">
        <ele>84.578871</ele>
        <time>2022-12-13T16:28:31.900Z</time>
      </trkpt>
      <trkpt lat="47.95799" lon="-2.61563">
        <ele>84.568608</ele>
        <time>2022-12-13T16:28:33.911Z</time>
      </trkpt>
      <trkpt lat="47.958" lon="-2.61548">
        <ele>84.557955</ele>
        <time>2022-12-13T16:28:35.883Z</time>
      </trkpt>
      <trkpt lat="47.95802" lon="-2.61534">
        <ele>84.547899</ele>
        <time>2022-12-13T16:28:37.897Z</time>
      </trkpt>
      <trkpt lat="47.95803" lon="-2.6152">
        <ele>84.537689</ele>
        <time>2022-12-13T16:28:39.908Z</time>
      </trkpt>
      <trkpt lat="47.95804" lon="-2.61505">
        <ele>84.527396</ele>
        <time>2022-12-13T16:28:41.899Z</time>
      </trkpt>
      <trkpt lat="47.95806" lon="-2.6149">
        <ele>84.516824</ele>
        <time>2022-12-13T16:28:43.906Z</time>
      </trkpt>
      <trkpt lat="47.95807" lon="-2.61476">
        <ele>84.506853</ele>
        <time>2022-12-13T16:28:45.882Z</time>
      </trkpt>
      <trkpt lat="47.95807" lon="-2.61462">
        <ele>84.496829</ele>
        <time>2022-12-13T16:28:47.902Z</time>
      </trkpt>
      <trkpt lat="47.95808" lon="-2.61443">
        <ele>84.483518</ele>
        <time>2022-12-13T16:28:50.893Z</time>
      </trkpt>
      <trkpt lat="47.95808" lon="-2.61423">
        <ele>84.469545</ele>
        <time>2022-12-13T16:28:53.893Z</time>
      </trkpt>
      <trkpt lat="47.95807" lon="-2.61409">
        <ele>84.459856</ele>
        <time>2022-12-13T16:28:55.879Z</time>
      </trkpt>
      <trkpt lat="47.95806" lon="-2.61396">
        <ele>84.450238</ele>
        <time>2022-12-13T16:28:57.900Z</time>
      </trkpt>
      <trkpt lat="47.95804" lon="-2.61377">
        <ele>84.437092</ele>
        <time>2022-12-13T16:29:00.877Z</time>
      </trkpt>
      <trkpt lat="47.95802" lon="-2.6136">
        <ele>84.412074</ele>
        <time>2022-12-13T16:29:03.908Z</time>
      </trkpt>
      <trkpt lat="47.95801" lon="-2.61342">
        <ele>84.382012</ele>
        <time>2022-12-13T16:29:06.892Z</time>
      </trkpt>
      <trkpt lat="47.958" lon="-2.61324">
        <ele>84.350964</ele>
        <time>2022-12-13T16:29:09.900Z</time>
      </trkpt>
      <trkpt lat="47.95798" lon="-2.61306">
        <ele>84.320953</ele>
        <time>2022-12-13T16:29:12.905Z</time>
      </trkpt>
      <trkpt lat="47.95795" lon="-2.61288">
        <ele>84.29171</ele>
        <time>2022-12-13T16:29:15.879Z</time>
      </trkpt>
      <trkpt lat="47.95794" lon="-2.61271">
        <ele>84.263453</ele>
        <time>2022-12-13T16:29:18.905Z</time>
      </trkpt>
      <trkpt lat="47.95793" lon="-2.61254">
        <ele>84.235291</ele>
        <time>2022-12-13T16:29:21.905Z</time>
      </trkpt>
      <trkpt lat="47.95791" lon="-2.61235">
        <ele>84.202422</ele>
        <time>2022-12-13T16:29:24.907Z</time>
      </trkpt>
      <trkpt lat="47.9579" lon="-2.61221">
        <ele>84.179171</ele>
        <time>2022-12-13T16:29:26.898Z</time>
      </trkpt>
      <trkpt lat="47.9579" lon="-2.61207">
        <ele>84.156624</ele>
        <time>2022-12-13T16:29:28.959Z</time>
      </trkpt>
      <trkpt lat="47.95788" lon="-2.61194">
        <ele>84.134165</ele>
        <time>2022-12-13T16:29:30.906Z</time>
      </trkpt>
      <trkpt lat="47.95789" lon="-2.61179">
        <ele>84.110545</ele>
        <time>2022-12-13T16:29:32.904Z</time>
      </trkpt>
      <trkpt lat="47.95789" lon="-2.61165">
        <ele>84.086897</ele>
        <time>2022-12-13T16:29:34.904Z</time>
      </trkpt>
      <trkpt lat="47.9579" lon="-2.61151">
        <ele>84.063177</ele>
        <time>2022-12-13T16:29:36.894Z</time>
      </trkpt>
      <trkpt lat="47.95792" lon="-2.61137">
        <ele>84.03986</ele>
        <time>2022-12-13T16:29:38.917Z</time>
      </trkpt>
      <trkpt lat="47.95794" lon="-2.61123">
        <ele>84.017219</ele>
        <time>2022-12-13T16:29:40.897Z</time>
      </trkpt>
      <trkpt lat="47.95796" lon="-2.61105">
        <ele>83.995926</ele>
        <time>2022-12-13T16:29:43.903Z</time>
      </trkpt>
      <trkpt lat="47.95799" lon="-2.61092">
        <ele>84.013007</ele>
        <time>2022-12-13T16:29:45.881Z</time>
      </trkpt>
      <trkpt lat="47.95801" lon="-2.61078">
        <ele>84.030904</ele>
        <time>2022-12-13T16:29:47.908Z</time>
      </trkpt>
      <trkpt lat="47.95803" lon="-2.61064">
        <ele>84.04859</ele>
        <time>2022-12-13T16:29:49.893Z</time>
      </trkpt>
      <trkpt lat="47.95806" lon="-2.6105">
        <ele>84.06798</ele>
        <time>2022-12-13T16:29:51.911Z</time>
      </trkpt>
      <trkpt lat="47.95808" lon="-2.61035">
        <ele>84.086323</ele>
        <time>2022-12-13T16:29:53.910Z</time>
      </trkpt>
      <trkpt lat="47.9581" lon="-2.61021">
        <ele>84.105283</ele>
        <time>2022-12-13T16:29:55.876Z</time>
      </trkpt>
      <trkpt lat="47.95812" lon="-2.61006">
        <ele>84.124077</ele>
        <time>2022-12-13T16:29:57.904Z</time>
      </trkpt>
      <trkpt lat="47.95814" lon="-2.60991">
        <ele>84.143906</ele>
        <time>2022-12-13T16:29:59.902Z</time>
      </trkpt>
      <trkpt lat="47.95816" lon="-2.60976">
        <ele>84.162639</ele>
        <time>2022-12-13T16:30:01.904Z</time>
      </trkpt>
      <trkpt lat="47.95818" lon="-2.60962">
        <ele>84.181639</ele>
        <time>2022-12-13T16:30:03.906Z</time>
      </trkpt>
      <trkpt lat="47.95821" lon="-2.60948">
        <ele>84.199907</ele>
        <time>2022-12-13T16:30:05.875Z</time>
      </trkpt>
      <trkpt lat="47.95822" lon="-2.60928">
        <ele>84.224942</ele>
        <time>2022-12-13T16:30:08.904Z</time>
      </trkpt>
      <trkpt lat="47.95825" lon="-2.6091">
        <ele>84.248013</ele>
        <time>2022-12-13T16:30:11.896Z</time>
      </trkpt>
      <trkpt lat="47.95828" lon="-2.60892">
        <ele>84.271908</ele>
        <time>2022-12-13T16:30:14.881Z</time>
      </trkpt>
      <trkpt lat="47.95831" lon="-2.60872">
        <ele>84.297528</ele>
        <time>2022-12-13T16:30:17.882Z</time>
      </trkpt>
      <trkpt lat="47.95833" lon="-2.60859">
        <ele>84.314921</ele>
        <time>2022-12-13T16:30:19.904Z</time>
      </trkpt>
      <trkpt lat="47.95836" lon="-2.60845">
        <ele>84.327491</ele>
        <time>2022-12-13T16:30:21.905Z</time>
      </trkpt>
      <trkpt lat="47.9584" lon="-2.60832">
        <ele>84.300015</ele>
        <time>2022-12-13T16:30:23.907Z</time>
      </trkpt>
      <trkpt lat="47.95845" lon="-2.60819">
        <ele>84.271077</ele>
        <time>2022-12-13T16:30:25.875Z</time>
      </trkpt>
      <trkpt lat="47.9585" lon="-2.60806">
        <ele>84.241577</ele>
        <time>2022-12-13T16:30:27.899Z</time>
      </trkpt>
      <trkpt lat="47.95856" lon="-2.60795">
        <ele>84.21406</ele>
        <time>2022-12-13T16:30:29.901Z</time>
      </trkpt>
      <trkpt lat="47.95862" lon="-2.60786">
        <ele>84.187703</ele>
        <time>2022-12-13T16:30:31.885Z</time>
      </trkpt>
      <trkpt lat="47.95871" lon="-2.60772">
        <ele>84.149239</ele>
        <time>2022-12-13T16:30:34.902Z</time>
      </trkpt>
      <trkpt lat="47.95878" lon="-2.60762">
        <ele>84.121008</ele>
        <time>2022-12-13T16:30:36.897Z</time>
      </trkpt>
      <trkpt lat="47.95887" lon="-2.60754">
        <ele>84.092219</ele>
        <time>2022-12-13T16:30:38.894Z</time>
      </trkpt>
      <trkpt lat="47.95896" lon="-2.60747">
        <ele>84.062321</ele>
        <time>2022-12-13T16:30:40.901Z</time>
      </trkpt>
      <trkpt lat="47.95905" lon="-2.60741">
        <ele>84.032733</ele>
        <time>2022-12-13T16:30:42.904Z</time>
      </trkpt>
      <trkpt lat="47.95915" lon="-2.60734">
        <ele>84.000605</ele>
        <time>2022-12-13T16:30:44.900Z</time>
      </trkpt>
      <trkpt lat="47.95925" lon="-2.60729">
        <ele>83.970065</ele>
        <time>2022-12-13T16:30:46.907Z</time>
      </trkpt>
      <trkpt lat="47.95934" lon="-2.60724">
        <ele>83.941054</ele>
        <time>2022-12-13T16:30:48.912Z</time>
      </trkpt>
      <trkpt lat="47.95943" lon="-2.6072">
        <ele>83.914513</ele>
        <time>2022-12-13T16:30:50.911Z</time>
      </trkpt>
      <trkpt lat="47.95954" lon="-2.60713">
        <ele>83.877959</ele>
        <time>2022-12-13T16:30:53.906Z</time>
      </trkpt>
      <trkpt lat="47.95964" lon="-2.60707">
        <ele>83.847947</ele>
        <time>2022-12-13T16:30:56.899Z</time>
      </trkpt>
      <trkpt lat="47.95974" lon="-2.60701">
        <ele>83.815473</ele>
        <time>2022-12-13T16:30:59.910Z</time>
      </trkpt>
      <trkpt lat="47.95985" lon="-2.60694">
        <ele>83.781889</ele>
        <time>2022-12-13T16:31:02.906Z</time>
      </trkpt>
      <trkpt lat="47.95996" lon="-2.60687">
        <ele>83.748718</ele>
        <time>2022-12-13T16:31:05.879Z</time>
      </trkpt>
      <trkpt lat="47.96008" lon="-2.60679">
        <ele>83.712795</ele>
        <time>2022-12-13T16:31:08.894Z</time>
      </trkpt>
      <trkpt lat="47.96017" lon="-2.60673">
        <ele>83.687119</ele>
        <time>2022-12-13T16:31:10.892Z</time>
      </trkpt>
      <trkpt lat="47.96025" lon="-2.60667">
        <ele>83.662259</ele>
        <time>2022-12-13T16:31:12.904Z</time>
      </trkpt>
      <trkpt lat="47.96035" lon="-2.60658">
        <ele>83.62863</ele>
        <time>2022-12-13T16:31:15.879Z</time>
      </trkpt>
      <trkpt lat="47.96046" lon="-2.60648">
        <ele>83.594662</ele>
        <time>2022-12-13T16:31:18.883Z</time>
      </trkpt>
      <trkpt lat="47.96057" lon="-2.6064">
        <ele>83.562859</ele>
        <time>2022-12-13T16:31:21.884Z</time>
      </trkpt>
      <trkpt lat="47.96068" lon="-2.6063">
        <ele>83.526456</ele>
        <time>2022-12-13T16:31:24.913Z</time>
      </trkpt>
      <trkpt lat="47.96079" lon="-2.60621">
        <ele>83.49106</ele>
        <time>2022-12-13T16:31:27.903Z</time>
      </trkpt>
      <trkpt lat="47.96091" lon="-2.60612">
        <ele>83.454936</ele>
        <time>2022-12-13T16:31:30.882Z</time>
      </trkpt>
      <trkpt lat="47.96099" lon="-2.60605">
        <ele>83.430229</ele>
        <time>2022-12-13T16:31:32.894Z</time>
      </trkpt>
      <trkpt lat="47.96107" lon="-2.60598">
        <ele>83.404865</ele>
        <time>2022-12-13T16:31:34.895Z</time>
      </trkpt>
      <trkpt lat="47.96115" lon="-2.6059">
        <ele>83.378035</ele>
        <time>2022-12-13T16:31:36.905Z</time>
      </trkpt>
      <trkpt lat="47.96127" lon="-2.60579">
        <ele>83.340626</ele>
        <time>2022-12-13T16:31:39.899Z</time>
      </trkpt>
      <trkpt lat="47.96134" lon="-2.6057">
        <ele>83.313625</ele>
        <time>2022-12-13T16:31:41.883Z</time>
      </trkpt>
      <trkpt lat="47.96141" lon="-2.6056">
        <ele>83.248087</ele>
        <time>2022-12-13T16:31:43.883Z</time>
      </trkpt>
      <trkpt lat="47.96146" lon="-2.60549">
        <ele>83.181849</ele>
        <time>2022-12-13T16:31:45.882Z</time>
      </trkpt>
      <trkpt lat="47.96152" lon="-2.60531">
        <ele>83.085936</ele>
        <time>2022-12-13T16:31:48.892Z</time>
      </trkpt>
      <trkpt lat="47.96155" lon="-2.60518">
        <ele>83.018908</ele>
        <time>2022-12-13T16:31:50.893Z</time>
      </trkpt>
      <trkpt lat="47.96157" lon="-2.60501">
        <ele>82.932632</ele>
        <time>2022-12-13T16:31:53.880Z</time>
      </trkpt>
      <trkpt lat="47.96158" lon="-2.60481">
        <ele>82.839736</ele>
        <time>2022-12-13T16:31:56.905Z</time>
      </trkpt>
      <trkpt lat="47.96158" lon="-2.60468">
        <ele>82.772228</ele>
        <time>2022-12-13T16:31:58.906Z</time>
      </trkpt>
      <trkpt lat="47.96156" lon="-2.60454">
        <ele>82.703373</ele>
        <time>2022-12-13T16:32:00.901Z</time>
      </trkpt>
      <trkpt lat="47.96155" lon="-2.6044">
        <ele>82.63523</ele>
        <time>2022-12-13T16:32:02.904Z</time>
      </trkpt>
      <trkpt lat="47.96153" lon="-2.60425">
        <ele>82.564341</ele>
        <time>2022-12-13T16:32:04.911Z</time>
      </trkpt>
      <trkpt lat="47.96151" lon="-2.60411">
        <ele>82.491895</ele>
        <time>2022-12-13T16:32:06.900Z</time>
      </trkpt>
      <trkpt lat="47.96149" lon="-2.60396">
        <ele>82.416998</ele>
        <time>2022-12-13T16:32:08.905Z</time>
      </trkpt>
      <trkpt lat="47.96147" lon="-2.6038">
        <ele>82.340674</ele>
        <time>2022-12-13T16:32:10.901Z</time>
      </trkpt>
      <trkpt lat="47.96146" lon="-2.60365">
        <ele>82.265863</ele>
        <time>2022-12-13T16:32:12.901Z</time>
      </trkpt>
      <trkpt lat="47.96143" lon="-2.60351">
        <ele>82.195028</ele>
        <time>2022-12-13T16:32:14.904Z</time>
      </trkpt>
      <trkpt lat="47.9614" lon="-2.60336">
        <ele>82.118536</ele>
        <time>2022-12-13T16:32:16.906Z</time>
      </trkpt>
      <trkpt lat="47.96137" lon="-2.60321">
        <ele>82.046003</ele>
        <time>2022-12-13T16:32:18.896Z</time>
      </trkpt>
      <trkpt lat="47.96134" lon="-2.60309">
        <ele>82.022706</ele>
        <time>2022-12-13T16:32:20.893Z</time>
      </trkpt>
      <trkpt lat="47.96131" lon="-2.60296">
        <ele>82.06021</ele>
        <time>2022-12-13T16:32:22.904Z</time>
      </trkpt>
      <trkpt lat="47.96129" lon="-2.60283">
        <ele>82.099003</ele>
        <time>2022-12-13T16:32:24.899Z</time>
      </trkpt>
      <trkpt lat="47.96126" lon="-2.60268">
        <ele>82.14038</ele>
        <time>2022-12-13T16:32:26.894Z</time>
      </trkpt>
      <trkpt lat="47.96124" lon="-2.60253">
        <ele>82.183427</ele>
        <time>2022-12-13T16:32:28.907Z</time>
      </trkpt>
      <trkpt lat="47.96121" lon="-2.60239">
        <ele>82.224198</ele>
        <time>2022-12-13T16:32:30.914Z</time>
      </trkpt>
      <trkpt lat="47.9612" lon="-2.60224">
        <ele>82.267323</ele>
        <time>2022-12-13T16:32:32.902Z</time>
      </trkpt>
      <trkpt lat="47.96118" lon="-2.60209">
        <ele>82.309964</ele>
        <time>2022-12-13T16:32:34.899Z</time>
      </trkpt>
      <trkpt lat="47.96116" lon="-2.60194">
        <ele>82.350411</ele>
        <time>2022-12-13T16:32:36.905Z</time>
      </trkpt>
      <trkpt lat="47.96114" lon="-2.60176">
        <ele>82.402666</ele>
        <time>2022-12-13T16:32:39.874Z</time>
      </trkpt>
      <trkpt lat="47.96112" lon="-2.60159">
        <ele>82.449987</ele>
        <time>2022-12-13T16:32:42.894Z</time>
      </trkpt>
      <trkpt lat="47.96109" lon="-2.60143">
        <ele>82.496041</ele>
        <time>2022-12-13T16:32:45.882Z</time>
      </trkpt>
      <trkpt lat="47.96106" lon="-2.60125">
        <ele>82.548728</ele>
        <time>2022-12-13T16:32:48.901Z</time>
      </trkpt>
      <trkpt lat="47.96101" lon="-2.60113">
        <ele>82.586991</ele>
        <time>2022-12-13T16:32:50.901Z</time>
      </trkpt>
      <trkpt lat="47.96099" lon="-2.601">
        <ele>82.625151</ele>
        <time>2022-12-13T16:32:52.908Z</time>
      </trkpt>
      <trkpt lat="47.96096" lon="-2.60086">
        <ele>82.664369</ele>
        <time>2022-12-13T16:32:54.906Z</time>
      </trkpt>
      <trkpt lat="47.96092" lon="-2.60073">
        <ele>82.704578</ele>
        <time>2022-12-13T16:32:56.903Z</time>
      </trkpt>
      <trkpt lat="47.96089" lon="-2.6006">
        <ele>82.742078</ele>
        <time>2022-12-13T16:32:58.904Z</time>
      </trkpt>
      <trkpt lat="47.96086" lon="-2.60045">
        <ele>82.868525</ele>
        <time>2022-12-13T16:33:01.921Z</time>
      </trkpt>
      <trkpt lat="47.96083" lon="-2.60031">
        <ele>83.021276</ele>
        <time>2022-12-13T16:33:04.883Z</time>
      </trkpt>
      <trkpt lat="47.96079" lon="-2.60012">
        <ele>83.21951</ele>
        <time>2022-12-13T16:33:07.887Z</time>
      </trkpt>
      <trkpt lat="47.96076" lon="-2.59997">
        <ele>83.375673</ele>
        <time>2022-12-13T16:33:09.904Z</time>
      </trkpt>
      <trkpt lat="47.96072" lon="-2.59983">
        <ele>83.528923</ele>
        <time>2022-12-13T16:33:11.904Z</time>
      </trkpt>
      <trkpt lat="47.96069" lon="-2.59969">
        <ele>83.681221</ele>
        <time>2022-12-13T16:33:13.881Z</time>
      </trkpt>
      <trkpt lat="47.96066" lon="-2.59955">
        <ele>83.830617</ele>
        <time>2022-12-13T16:33:15.884Z</time>
      </trkpt>
      <trkpt lat="47.96062" lon="-2.5994">
        <ele>83.986236</ele>
        <time>2022-12-13T16:33:17.909Z</time>
      </trkpt>
      <trkpt lat="47.96059" lon="-2.59925">
        <ele>84.147392</ele>
        <time>2022-12-13T16:33:19.897Z</time>
      </trkpt>
      <trkpt lat="47.96057" lon="-2.59911">
        <ele>84.293339</ele>
        <time>2022-12-13T16:33:21.896Z</time>
      </trkpt>
      <trkpt lat="47.96055" lon="-2.59892">
        <ele>84.485582</ele>
        <time>2022-12-13T16:33:24.890Z</time>
      </trkpt>
      <trkpt lat="47.96054" lon="-2.59878">
        <ele>84.62612</ele>
        <time>2022-12-13T16:33:26.907Z</time>
      </trkpt>
      <trkpt lat="47.96053" lon="-2.59864">
        <ele>84.769812</ele>
        <time>2022-12-13T16:33:28.911Z</time>
      </trkpt>
      <trkpt lat="47.96052" lon="-2.5985">
        <ele>84.914009</ele>
        <time>2022-12-13T16:33:30.912Z</time>
      </trkpt>
      <trkpt lat="47.96052" lon="-2.59834">
        <ele>85.068533</ele>
        <time>2022-12-13T16:33:32.918Z</time>
      </trkpt>
      <trkpt lat="47.96053" lon="-2.5982">
        <ele>85.214342</ele>
        <time>2022-12-13T16:33:34.904Z</time>
      </trkpt>
      <trkpt lat="47.96053" lon="-2.59805">
        <ele>85.363816</ele>
        <time>2022-12-13T16:33:36.911Z</time>
      </trkpt>
      <trkpt lat="47.96053" lon="-2.59791">
        <ele>85.473496</ele>
        <time>2022-12-13T16:33:38.896Z</time>
      </trkpt>
      <trkpt lat="47.96054" lon="-2.59771">
        <ele>85.49909</ele>
        <time>2022-12-13T16:33:41.892Z</time>
      </trkpt>
      <trkpt lat="47.96055" lon="-2.59754">
        <ele>85.521542</ele>
        <time>2022-12-13T16:33:44.901Z</time>
      </trkpt>
      <trkpt lat="47.96056" lon="-2.59736">
        <ele>85.544783</ele>
        <time>2022-12-13T16:33:47.901Z</time>
      </trkpt>
      <trkpt lat="47.96057" lon="-2.59717">
        <ele>85.568973</ele>
        <time>2022-12-13T16:33:50.904Z</time>
      </trkpt>
      <trkpt lat="47.96057" lon="-2.59698">
        <ele>85.593201</ele>
        <time>2022-12-13T16:33:53.899Z</time>
      </trkpt>
      <trkpt lat="47.96057" lon="-2.59679">
        <ele>85.61834</ele>
        <time>2022-12-13T16:33:56.881Z</time>
      </trkpt>
      <trkpt lat="47.96057" lon="-2.5966">
        <ele>85.643111</ele>
        <time>2022-12-13T16:33:59.892Z</time>
      </trkpt>
      <trkpt lat="47.96055" lon="-2.59642">
        <ele>85.666621</ele>
        <time>2022-12-13T16:34:02.884Z</time>
      </trkpt>
      <trkpt lat="47.96052" lon="-2.59627">
        <ele>85.687345</ele>
        <time>2022-12-13T16:34:05.879Z</time>
      </trkpt>
      <trkpt lat="47.96048" lon="-2.59611">
        <ele>85.708292</ele>
        <time>2022-12-13T16:34:08.905Z</time>
      </trkpt>
      <trkpt lat="47.96044" lon="-2.59594">
        <ele>85.732185</ele>
        <time>2022-12-13T16:34:11.906Z</time>
      </trkpt>
      <trkpt lat="47.9604" lon="-2.59575">
        <ele>85.757456</ele>
        <time>2022-12-13T16:34:14.892Z</time>
      </trkpt>
      <trkpt lat="47.96036" lon="-2.59562">
        <ele>85.776741</ele>
        <time>2022-12-13T16:34:16.913Z</time>
      </trkpt>
      <trkpt lat="47.96031" lon="-2.59543">
        <ele>85.802981</ele>
        <time>2022-12-13T16:34:19.903Z</time>
      </trkpt>
      <trkpt lat="47.96028" lon="-2.5953">
        <ele>85.813815</ele>
        <time>2022-12-13T16:34:21.907Z</time>
      </trkpt>
      <trkpt lat="47.96024" lon="-2.59517">
        <ele>85.807386</ele>
        <time>2022-12-13T16:34:23.905Z</time>
      </trkpt>
      <trkpt lat="47.96021" lon="-2.59504">
        <ele>85.801008</ele>
        <time>2022-12-13T16:34:25.890Z</time>
      </trkpt>
      <trkpt lat="47.96018" lon="-2.59491">
        <ele>85.794635</ele>
        <time>2022-12-13T16:34:27.885Z</time>
      </trkpt>
      <trkpt lat="47.96015" lon="-2.59477">
        <ele>85.787868</ele>
        <time>2022-12-13T16:34:29.900Z</time>
      </trkpt>
      <trkpt lat="47.96013" lon="-2.59463">
        <ele>85.78121</ele>
        <time>2022-12-13T16:34:31.903Z</time>
      </trkpt>
      <trkpt lat="47.9601" lon="-2.59449">
        <ele>85.774523</ele>
        <time>2022-12-13T16:34:33.893Z</time>
      </trkpt>
      <trkpt lat="47.96009" lon="-2.59435">
        <ele>85.767913</ele>
        <time>2022-12-13T16:34:35.880Z</time>
      </trkpt>
      <trkpt lat="47.96009" lon="-2.5942">
        <ele>85.761351</ele>
        <time>2022-12-13T16:34:37.894Z</time>
      </trkpt>
      <trkpt lat="47.96008" lon="-2.59406">
        <ele>85.754871</ele>
        <time>2022-12-13T16:34:39.889Z</time>
      </trkpt>
      <trkpt lat="47.96009" lon="-2.59387">
        <ele>85.746094</ele>
        <time>2022-12-13T16:34:42.899Z</time>
      </trkpt>
      <trkpt lat="47.96009" lon="-2.59371">
        <ele>85.738684</ele>
        <time>2022-12-13T16:34:45.889Z</time>
      </trkpt>
      <trkpt lat="47.96009" lon="-2.59356">
        <ele>85.731525</ele>
        <time>2022-12-13T16:34:49.901Z</time>
      </trkpt>
      <trkpt lat="47.9601" lon="-2.59341">
        <ele>85.724446</ele>
        <time>2022-12-13T16:34:53.886Z</time>
      </trkpt>
      <trkpt lat="47.9601" lon="-2.59324">
        <ele>85.716685</ele>
        <time>2022-12-13T16:34:57.903Z</time>
      </trkpt>
      <trkpt lat="47.9601" lon="-2.59307">
        <ele>85.709105</ele>
        <time>2022-12-13T16:35:00.907Z</time>
      </trkpt>
      <trkpt lat="47.96011" lon="-2.59288">
        <ele>85.700312</ele>
        <time>2022-12-13T16:35:03.892Z</time>
      </trkpt>
      <trkpt lat="47.96011" lon="-2.59269">
        <ele>85.68706</ele>
        <time>2022-12-13T16:35:06.904Z</time>
      </trkpt>
      <trkpt lat="47.96012" lon="-2.59251">
        <ele>85.439804</ele>
        <time>2022-12-13T16:35:09.901Z</time>
      </trkpt>
      <trkpt lat="47.96012" lon="-2.59233">
        <ele>85.198104</ele>
        <time>2022-12-13T16:35:12.905Z</time>
      </trkpt>
      <trkpt lat="47.96012" lon="-2.59214">
        <ele>84.944392</ele>
        <time>2022-12-13T16:35:15.882Z</time>
      </trkpt>
      <trkpt lat="47.96013" lon="-2.59196">
        <ele>84.709027</ele>
        <time>2022-12-13T16:35:18.900Z</time>
      </trkpt>
      <trkpt lat="47.96013" lon="-2.59178">
        <ele>84.461546</ele>
        <time>2022-12-13T16:35:21.893Z</time>
      </trkpt>
      <trkpt lat="47.96014" lon="-2.59164">
        <ele>84.279818</ele>
        <time>2022-12-13T16:35:23.877Z</time>
      </trkpt>
      <trkpt lat="47.96014" lon="-2.59144">
        <ele>84.016832</ele>
        <time>2022-12-13T16:35:26.895Z</time>
      </trkpt>
      <trkpt lat="47.96013" lon="-2.59127">
        <ele>83.778201</ele>
        <time>2022-12-13T16:35:29.897Z</time>
      </trkpt>
      <trkpt lat="47.9601" lon="-2.59113">
        <ele>83.591465</ele>
        <time>2022-12-13T16:35:31.910Z</time>
      </trkpt>
      <trkpt lat="47.96006" lon="-2.59095">
        <ele>83.331276</ele>
        <time>2022-12-13T16:35:34.891Z</time>
      </trkpt>
      <trkpt lat="47.95999" lon="-2.59077">
        <ele>83.064487</ele>
        <time>2022-12-13T16:35:37.882Z</time>
      </trkpt>
      <trkpt lat="47.95993" lon="-2.59065">
        <ele>82.855636</ele>
        <time>2022-12-13T16:35:39.879Z</time>
      </trkpt>
      <trkpt lat="47.95986" lon="-2.59053">
        <ele>82.645782</ele>
        <time>2022-12-13T16:35:41.884Z</time>
      </trkpt>
      <trkpt lat="47.9598" lon="-2.59042">
        <ele>82.455879</ele>
        <time>2022-12-13T16:35:43.902Z</time>
      </trkpt>
      <trkpt lat="47.95973" lon="-2.5903">
        <ele>82.242699</ele>
        <time>2022-12-13T16:35:45.882Z</time>
      </trkpt>
      <trkpt lat="47.95966" lon="-2.59019">
        <ele>82.073031</ele>
        <time>2022-12-13T16:35:47.908Z</time>
      </trkpt>
      <trkpt lat="47.9596" lon="-2.59009">
        <ele>81.963314</ele>
        <time>2022-12-13T16:35:49.914Z</time>
      </trkpt>
      <trkpt lat="47.95951" lon="-2.58994">
        <ele>81.803486</ele>
        <time>2022-12-13T16:35:52.895Z</time>
      </trkpt>
      <trkpt lat="47.95944" lon="-2.58984">
        <ele>81.693824</ele>
        <time>2022-12-13T16:35:54.908Z</time>
      </trkpt>
      <trkpt lat="47.95937" lon="-2.58973">
        <ele>81.577976</ele>
        <time>2022-12-13T16:35:56.894Z</time>
      </trkpt>
      <trkpt lat="47.9593" lon="-2.58961">
        <ele>81.453646</ele>
        <time>2022-12-13T16:35:58.919Z</time>
      </trkpt>
      <trkpt lat="47.95923" lon="-2.58948">
        <ele>81.332785</ele>
        <time>2022-12-13T16:36:00.908Z</time>
      </trkpt>
      <trkpt lat="47.95917" lon="-2.58936">
        <ele>81.209482</ele>
        <time>2022-12-13T16:36:02.892Z</time>
      </trkpt>
      <trkpt lat="47.95912" lon="-2.58924">
        <ele>81.104431</ele>
        <time>2022-12-13T16:36:04.904Z</time>
      </trkpt>
      <trkpt lat="47.95907" lon="-2.58912">
        <ele>80.992972</ele>
        <time>2022-12-13T16:36:06.906Z</time>
      </trkpt>
      <trkpt lat="47.95903" lon="-2.58895">
        <ele>80.852094</ele>
        <time>2022-12-13T16:36:09.891Z</time>
      </trkpt>
      <trkpt lat="47.95899" lon="-2.58878">
        <ele>80.714878</ele>
        <time>2022-12-13T16:36:12.888Z</time>
      </trkpt>
      <trkpt lat="47.95896" lon="-2.58859">
        <ele>80.560167</ele>
        <time>2022-12-13T16:36:15.881Z</time>
      </trkpt>
      <trkpt lat="47.95894" lon="-2.58845">
        <ele>80.450707</ele>
        <time>2022-12-13T16:36:17.904Z</time>
      </trkpt>
      <trkpt lat="47.95892" lon="-2.58831">
        <ele>80.340925</ele>
        <time>2022-12-13T16:36:19.906Z</time>
      </trkpt>
      <trkpt lat="47.95889" lon="-2.58815">
        <ele>80.207178</ele>
        <time>2022-12-13T16:36:22.902Z</time>
      </trkpt>
      <trkpt lat="47.95883" lon="-2.58797">
        <ele>80.057707</ele>
        <time>2022-12-13T16:36:25.883Z</time>
      </trkpt>
      <trkpt lat="47.95878" lon="-2.58782">
        <ele>80.283998</ele>
        <time>2022-12-13T16:36:28.912Z</time>
      </trkpt>
      <trkpt lat="47.95873" lon="-2.58766">
        <ele>80.630903</ele>
        <time>2022-12-13T16:36:31.884Z</time>
      </trkpt>
      <trkpt lat="47.95869" lon="-2.58754">
        <ele>80.907123</ele>
        <time>2022-12-13T16:36:34.905Z</time>
      </trkpt>
      <trkpt lat="47.95864" lon="-2.5874">
        <ele>81.226776</ele>
        <time>2022-12-13T16:36:36.911Z</time>
      </trkpt>
      <trkpt lat="47.95858" lon="-2.58723">
        <ele>81.617511</ele>
        <time>2022-12-13T16:36:39.908Z</time>
      </trkpt>
      <trkpt lat="47.95853" lon="-2.58711">
        <ele>81.892802</ele>
        <time>2022-12-13T16:36:41.908Z</time>
      </trkpt>
      <trkpt lat="47.95849" lon="-2.58698">
        <ele>82.172575</ele>
        <time>2022-12-13T16:36:43.904Z</time>
      </trkpt>
      <trkpt lat="47.95845" lon="-2.58686">
        <ele>82.443972</ele>
        <time>2022-12-13T16:36:45.883Z</time>
      </trkpt>
      <trkpt lat="47.9584" lon="-2.58674">
        <ele>82.727704</ele>
        <time>2022-12-13T16:36:47.903Z</time>
      </trkpt>
      <trkpt lat="47.95836" lon="-2.58662">
        <ele>83.002544</ele>
        <time>2022-12-13T16:36:49.894Z</time>
      </trkpt>
      <trkpt lat="47.95829" lon="-2.58644">
        <ele>83.414396</ele>
        <time>2022-12-13T16:36:52.913Z</time>
      </trkpt>
      <trkpt lat="47.95825" lon="-2.58632">
        <ele>83.68706</ele>
        <time>2022-12-13T16:36:54.909Z</time>
      </trkpt>
      <trkpt lat="47.95821" lon="-2.58619">
        <ele>83.958458</ele>
        <time>2022-12-13T16:36:56.900Z</time>
      </trkpt>
      <trkpt lat="47.95816" lon="-2.58606">
        <ele>84.252384</ele>
        <time>2022-12-13T16:36:58.905Z</time>
      </trkpt>
      <trkpt lat="47.95812" lon="-2.58593">
        <ele>84.55408</ele>
        <time>2022-12-13T16:37:00.898Z</time>
      </trkpt>
      <trkpt lat="47.95805" lon="-2.58576">
        <ele>84.959053</ele>
        <time>2022-12-13T16:37:03.907Z</time>
      </trkpt>
      <trkpt lat="47.958" lon="-2.58563">
        <ele>85.247322</ele>
        <time>2022-12-13T16:37:05.884Z</time>
      </trkpt>
      <trkpt lat="47.95796" lon="-2.58548">
        <ele>85.32672</ele>
        <time>2022-12-13T16:37:07.906Z</time>
      </trkpt>
      <trkpt lat="47.95791" lon="-2.58537">
        <ele>85.192505</ele>
        <time>2022-12-13T16:37:09.908Z</time>
      </trkpt>
      <trkpt lat="47.95787" lon="-2.58524">
        <ele>85.057365</ele>
        <time>2022-12-13T16:37:11.912Z</time>
      </trkpt>
      <trkpt lat="47.95782" lon="-2.58511">
        <ele>84.913302</ele>
        <time>2022-12-13T16:37:13.902Z</time>
      </trkpt>
      <trkpt lat="47.95776" lon="-2.58501">
        <ele>84.782465</ele>
        <time>2022-12-13T16:37:15.880Z</time>
      </trkpt>
      <trkpt lat="47.95769" lon="-2.58491">
        <ele>84.638089</ele>
        <time>2022-12-13T16:37:18.893Z</time>
      </trkpt>
      <trkpt lat="47.95761" lon="-2.58477">
        <ele>84.464681</ele>
        <time>2022-12-13T16:37:21.904Z</time>
      </trkpt>
      <trkpt lat="47.95753" lon="-2.58463">
        <ele>84.290197</ele>
        <time>2022-12-13T16:37:24.886Z</time>
      </trkpt>
      <trkpt lat="47.95747" lon="-2.58452">
        <ele>84.150839</ele>
        <time>2022-12-13T16:37:26.901Z</time>
      </trkpt>
      <trkpt lat="47.95741" lon="-2.5844">
        <ele>84.005766</ele>
        <time>2022-12-13T16:37:28.902Z</time>
      </trkpt>
      <trkpt lat="47.95735" lon="-2.5843">
        <ele>83.872044</ele>
        <time>2022-12-13T16:37:30.914Z</time>
      </trkpt>
      <trkpt lat="47.95728" lon="-2.58417">
        <ele>83.718684</ele>
        <time>2022-12-13T16:37:32.916Z</time>
      </trkpt>
      <trkpt lat="47.95721" lon="-2.58406">
        <ele>83.572902</ele>
        <time>2022-12-13T16:37:34.894Z</time>
      </trkpt>
      <trkpt lat="47.95715" lon="-2.58395">
        <ele>83.430682</ele>
        <time>2022-12-13T16:37:36.901Z</time>
      </trkpt>
      <trkpt lat="47.95706" lon="-2.58381">
        <ele>83.242834</ele>
        <time>2022-12-13T16:37:39.892Z</time>
      </trkpt>
      <trkpt lat="47.95697" lon="-2.58366">
        <ele>83.054273</ele>
        <time>2022-12-13T16:37:42.909Z</time>
      </trkpt>
      <trkpt lat="47.9569" lon="-2.58352">
        <ele>82.872863</ele>
        <time>2022-12-13T16:37:45.888Z</time>
      </trkpt>
      <trkpt lat="47.95681" lon="-2.58337">
        <ele>82.746371</ele>
        <time>2022-12-13T16:37:48.906Z</time>
      </trkpt>
      <trkpt lat="47.95672" lon="-2.58322">
        <ele>82.651096</ele>
        <time>2022-12-13T16:37:51.908Z</time>
      </trkpt>
      <trkpt lat="47.95665" lon="-2.58312">
        <ele>82.580633</ele>
        <time>2022-12-13T16:37:53.911Z</time>
      </trkpt>
      <trkpt lat="47.95659" lon="-2.58302">
        <ele>82.514883</ele>
        <time>2022-12-13T16:37:55.884Z</time>
      </trkpt>
      <trkpt lat="47.95652" lon="-2.58292">
        <ele>82.448137</ele>
        <time>2022-12-13T16:37:57.900Z</time>
      </trkpt>
      <trkpt lat="47.95644" lon="-2.58278">
        <ele>82.358891</ele>
        <time>2022-12-13T16:38:00.914Z</time>
      </trkpt>
      <trkpt lat="47.95636" lon="-2.58266">
        <ele>82.276763</ele>
        <time>2022-12-13T16:38:03.920Z</time>
      </trkpt>
      <trkpt lat="47.95628" lon="-2.58253">
        <ele>82.191611</ele>
        <time>2022-12-13T16:38:06.905Z</time>
      </trkpt>
      <trkpt lat="47.95619" lon="-2.58239">
        <ele>82.099497</ele>
        <time>2022-12-13T16:38:09.904Z</time>
      </trkpt>
      <trkpt lat="47.9561" lon="-2.58225">
        <ele>82.009904</ele>
        <time>2022-12-13T16:38:12.900Z</time>
      </trkpt>
      <trkpt lat="47.95601" lon="-2.58211">
        <ele>81.917095</ele>
        <time>2022-12-13T16:38:15.877Z</time>
      </trkpt>
      <trkpt lat="47.95592" lon="-2.58197">
        <ele>81.822302</ele>
        <time>2022-12-13T16:38:18.911Z</time>
      </trkpt>
      <trkpt lat="47.95586" lon="-2.58187">
        <ele>81.757381</ele>
        <time>2022-12-13T16:38:20.905Z</time>
      </trkpt>
      <trkpt lat="47.9558" lon="-2.58177">
        <ele>81.69013</ele>
        <time>2022-12-13T16:38:22.903Z</time>
      </trkpt>
      <trkpt lat="47.95573" lon="-2.58167">
        <ele>81.625062</ele>
        <time>2022-12-13T16:38:24.902Z</time>
      </trkpt>
      <trkpt lat="47.95564" lon="-2.58153">
        <ele>81.532948</ele>
        <time>2022-12-13T16:38:27.891Z</time>
      </trkpt>
      <trkpt lat="47.95555" lon="-2.58138">
        <ele>81.484996</ele>
        <time>2022-12-13T16:38:30.895Z</time>
      </trkpt>
      <trkpt lat="47.95546" lon="-2.58123">
        <ele>81.445799</ele>
        <time>2022-12-13T16:38:33.893Z</time>
      </trkpt>
      <trkpt lat="47.95537" lon="-2.58109">
        <ele>81.406955</ele>
        <time>2022-12-13T16:38:36.911Z</time>
      </trkpt>
      <trkpt lat="47.95531" lon="-2.58098">
        <ele>81.379887</ele>
        <time>2022-12-13T16:38:38.903Z</time>
      </trkpt>
      <trkpt lat="47.95524" lon="-2.58087">
        <ele>81.35064</ele>
        <time>2022-12-13T16:38:40.914Z</time>
      </trkpt>
      <trkpt lat="47.95518" lon="-2.58076">
        <ele>81.32174</ele>
        <time>2022-12-13T16:38:42.911Z</time>
      </trkpt>
      <trkpt lat="47.95511" lon="-2.58065">
        <ele>81.293584</ele>
        <time>2022-12-13T16:38:44.904Z</time>
      </trkpt>
      <trkpt lat="47.95504" lon="-2.58055">
        <ele>81.264545</ele>
        <time>2022-12-13T16:38:46.908Z</time>
      </trkpt>
      <trkpt lat="47.95498" lon="-2.58045">
        <ele>81.237701</ele>
        <time>2022-12-13T16:38:48.908Z</time>
      </trkpt>
      <trkpt lat="47.95488" lon="-2.5803">
        <ele>81.198929</ele>
        <time>2022-12-13T16:38:51.889Z</time>
      </trkpt>
      <trkpt lat="47.95482" lon="-2.5802">
        <ele>81.172676</ele>
        <time>2022-12-13T16:38:53.900Z</time>
      </trkpt>
      <trkpt lat="47.95476" lon="-2.5801">
        <ele>81.144466</ele>
        <time>2022-12-13T16:38:55.892Z</time>
      </trkpt>
      <trkpt lat="47.95469" lon="-2.58">
        <ele>81.116269</ele>
        <time>2022-12-13T16:38:57.910Z</time>
      </trkpt>
      <trkpt lat="47.95462" lon="-2.57989">
        <ele>81.087483</ele>
        <time>2022-12-13T16:38:59.917Z</time>
      </trkpt>
      <trkpt lat="47.95456" lon="-2.57977">
        <ele>81.058209</ele>
        <time>2022-12-13T16:39:01.888Z</time>
      </trkpt>
      <trkpt lat="47.95449" lon="-2.57967">
        <ele>81.028412</ele>
        <time>2022-12-13T16:39:03.886Z</time>
      </trkpt>
      <trkpt lat="47.95442" lon="-2.57956">
        <ele>81.000796</ele>
        <time>2022-12-13T16:39:05.878Z</time>
      </trkpt>
      <trkpt lat="47.95436" lon="-2.57947">
        <ele>80.949912</ele>
        <time>2022-12-13T16:39:07.898Z</time>
      </trkpt>
      <trkpt lat="47.95427" lon="-2.57934">
        <ele>80.875019</ele>
        <time>2022-12-13T16:39:10.900Z</time>
      </trkpt>
      <trkpt lat="47.9542" lon="-2.57923">
        <ele>80.808104</ele>
        <time>2022-12-13T16:39:13.904Z</time>
      </trkpt>
      <trkpt lat="47.95414" lon="-2.57912">
        <ele>80.748504</ele>
        <time>2022-12-13T16:39:16.902Z</time>
      </trkpt>
      <trkpt lat="47.95407" lon="-2.57901">
        <ele>80.685684</ele>
        <time>2022-12-13T16:39:19.896Z</time>
      </trkpt>
      <trkpt lat="47.954" lon="-2.57885">
        <ele>80.605717</ele>
        <time>2022-12-13T16:39:22.920Z</time>
      </trkpt>
      <trkpt lat="47.95393" lon="-2.57869">
        <ele>80.526514</ele>
        <time>2022-12-13T16:39:25.881Z</time>
      </trkpt>
      <trkpt lat="47.95388" lon="-2.57855">
        <ele>80.456465</ele>
        <time>2022-12-13T16:39:28.888Z</time>
      </trkpt>
      <trkpt lat="47.95383" lon="-2.57842">
        <ele>80.394847</ele>
        <time>2022-12-13T16:39:30.901Z</time>
      </trkpt>
      <trkpt lat="47.95379" lon="-2.57825">
        <ele>80.320034</ele>
        <time>2022-12-13T16:39:33.908Z</time>
      </trkpt>
      <trkpt lat="47.95375" lon="-2.57806">
        <ele>80.238842</ele>
        <time>2022-12-13T16:39:36.884Z</time>
      </trkpt>
      <trkpt lat="47.95373" lon="-2.57793">
        <ele>80.17958</ele>
        <time>2022-12-13T16:39:38.907Z</time>
      </trkpt>
      <trkpt lat="47.9537" lon="-2.57779">
        <ele>80.11988</ele>
        <time>2022-12-13T16:39:40.913Z</time>
      </trkpt>
      <trkpt lat="47.95367" lon="-2.57766">
        <ele>80.059793</ele>
        <time>2022-12-13T16:39:42.880Z</time>
      </trkpt>
      <trkpt lat="47.95365" lon="-2.57752">
        <ele>80.002563</ele>
        <time>2022-12-13T16:39:44.904Z</time>
      </trkpt>
      <trkpt lat="47.95362" lon="-2.57738">
        <ele>79.940145</ele>
        <time>2022-12-13T16:39:46.896Z</time>
      </trkpt>
      <trkpt lat="47.95359" lon="-2.57725">
        <ele>79.882448</ele>
        <time>2022-12-13T16:39:48.904Z</time>
      </trkpt>
      <trkpt lat="47.95356" lon="-2.57711">
        <ele>79.894389</ele>
        <time>2022-12-13T16:39:50.902Z</time>
      </trkpt>
      <trkpt lat="47.95354" lon="-2.57695">
        <ele>79.933205</ele>
        <time>2022-12-13T16:39:53.894Z</time>
      </trkpt>
      <trkpt lat="47.95351" lon="-2.57679">
        <ele>79.970847</ele>
        <time>2022-12-13T16:39:56.900Z</time>
      </trkpt>
      <trkpt lat="47.95349" lon="-2.57664">
        <ele>80.005183</ele>
        <time>2022-12-13T16:39:59.905Z</time>
      </trkpt>
      <trkpt lat="47.95346" lon="-2.57648">
        <ele>80.044513</ele>
        <time>2022-12-13T16:40:02.890Z</time>
      </trkpt>
      <trkpt lat="47.95343" lon="-2.57634">
        <ele>80.078001</ele>
        <time>2022-12-13T16:40:05.881Z</time>
      </trkpt>
      <trkpt lat="47.9534" lon="-2.5762">
        <ele>80.111783</ele>
        <time>2022-12-13T16:40:08.892Z</time>
      </trkpt>
      <trkpt lat="47.95334" lon="-2.57606">
        <ele>80.149822</ele>
        <time>2022-12-13T16:40:12.885Z</time>
      </trkpt>
      <trkpt lat="47.95331" lon="-2.57591">
        <ele>80.184246</ele>
        <time>2022-12-13T16:40:15.879Z</time>
      </trkpt>
      <trkpt lat="47.95328" lon="-2.57575">
        <ele>80.223464</ele>
        <time>2022-12-13T16:40:19.901Z</time>
      </trkpt>
      <trkpt lat="47.95325" lon="-2.57559">
        <ele>80.261219</ele>
        <time>2022-12-13T16:40:23.895Z</time>
      </trkpt>
      <trkpt lat="47.95321" lon="-2.57543">
        <ele>80.300492</ele>
        <time>2022-12-13T16:40:27.898Z</time>
      </trkpt>
      <trkpt lat="47.95328" lon="-2.57532">
        <ele>80.336599</ele>
        <time>2022-12-13T16:40:32.899Z</time>
      </trkpt>
      <trkpt lat="47.95337" lon="-2.57525">
        <ele>80.369258</ele>
        <time>2022-12-13T16:40:36.889Z</time>
      </trkpt>
      <trkpt lat="47.95338" lon="-2.5751">
        <ele>80.403436</ele>
        <time>2022-12-13T16:40:40.896Z</time>
      </trkpt>
      <trkpt lat="47.95335" lon="-2.57497">
        <ele>80.436228</ele>
        <time>2022-12-13T16:40:43.900Z</time>
      </trkpt>
      <trkpt lat="47.95329" lon="-2.57484">
        <ele>80.472511</ele>
        <time>2022-12-13T16:40:47.898Z</time>
      </trkpt>
      <trkpt lat="47.95321" lon="-2.57475">
        <ele>80.537093</ele>
        <time>2022-12-13T16:40:59.891Z</time>
      </trkpt>
      <trkpt lat="47.95313" lon="-2.57479">
        <ele>80.624985</ele>
        <time>2022-12-13T16:41:13.903Z</time>
      </trkpt>
      <trkpt lat="47.95306" lon="-2.57469">
        <ele>80.710948</ele>
        <time>2022-12-13T16:41:27.885Z</time>
      </trkpt>
      <trkpt lat="47.95303" lon="-2.57453">
        <ele>80.817478</ele>
        <time>2022-12-13T16:41:31.883Z</time>
      </trkpt>
      <trkpt lat="47.953" lon="-2.57436">
        <ele>80.933874</ele>
        <time>2022-12-13T16:41:34.898Z</time>
      </trkpt>
      <trkpt lat="47.95299" lon="-2.57421">
        <ele>81.02605</ele>
        <time>2022-12-13T16:41:36.883Z</time>
      </trkpt>
      <trkpt lat="47.95298" lon="-2.57408">
        <ele>81.113165</ele>
        <time>2022-12-13T16:41:38.894Z</time>
      </trkpt>
      <trkpt lat="47.95299" lon="-2.57389">
        <ele>81.233012</ele>
        <time>2022-12-13T16:41:41.901Z</time>
      </trkpt>
      <trkpt lat="47.95301" lon="-2.57371">
        <ele>81.349242</ele>
        <time>2022-12-13T16:41:44.883Z</time>
      </trkpt>
      <trkpt lat="47.95305" lon="-2.57355">
        <ele>81.455984</ele>
        <time>2022-12-13T16:41:47.885Z</time>
      </trkpt>
      <trkpt lat="47.95308" lon="-2.57342">
        <ele>81.544569</ele>
        <time>2022-12-13T16:41:50.885Z</time>
      </trkpt>
      <trkpt lat="47.95312" lon="-2.57327">
        <ele>81.649211</ele>
        <time>2022-12-13T16:41:53.893Z</time>
      </trkpt>
      <trkpt lat="47.95316" lon="-2.57309">
        <ele>81.769311</ele>
        <time>2022-12-13T16:41:56.908Z</time>
      </trkpt>
      <trkpt lat="47.95319" lon="-2.57292">
        <ele>81.883745</ele>
        <time>2022-12-13T16:41:59.899Z</time>
      </trkpt>
      <trkpt lat="47.95321" lon="-2.57276">
        <ele>81.98677</ele>
        <time>2022-12-13T16:42:02.896Z</time>
      </trkpt>
      <trkpt lat="47.95322" lon="-2.57258">
        <ele>82.102854</ele>
        <time>2022-12-13T16:42:05.883Z</time>
      </trkpt>
      <trkpt lat="47.95323" lon="-2.5724">
        <ele>82.213771</ele>
        <time>2022-12-13T16:42:08.904Z</time>
      </trkpt>
      <trkpt lat="47.95325" lon="-2.57222">
        <ele>82.292137</ele>
        <time>2022-12-13T16:42:11.916Z</time>
      </trkpt>
      <trkpt lat="47.95327" lon="-2.57208">
        <ele>82.351358</ele>
        <time>2022-12-13T16:42:13.906Z</time>
      </trkpt>
      <trkpt lat="47.95328" lon="-2.57193">
        <ele>82.414816</ele>
        <time>2022-12-13T16:42:15.886Z</time>
      </trkpt>
      <trkpt lat="47.95329" lon="-2.57179">
        <ele>82.47825</ele>
        <time>2022-12-13T16:42:17.916Z</time>
      </trkpt>
      <trkpt lat="47.95331" lon="-2.57164">
        <ele>82.540927</ele>
        <time>2022-12-13T16:42:19.917Z</time>
      </trkpt>
      <trkpt lat="47.95331" lon="-2.57149">
        <ele>82.604543</ele>
        <time>2022-12-13T16:42:21.919Z</time>
      </trkpt>
      <trkpt lat="47.95331" lon="-2.57134">
        <ele>82.668158</ele>
        <time>2022-12-13T16:42:23.915Z</time>
      </trkpt>
      <trkpt lat="47.95333" lon="-2.5712">
        <ele>82.729721</ele>
        <time>2022-12-13T16:42:25.877Z</time>
      </trkpt>
      <trkpt lat="47.95334" lon="-2.57101">
        <ele>82.809805</ele>
        <time>2022-12-13T16:42:28.908Z</time>
      </trkpt>
      <trkpt lat="47.95337" lon="-2.57083">
        <ele>82.887862</ele>
        <time>2022-12-13T16:42:31.911Z</time>
      </trkpt>
      <trkpt lat="47.95339" lon="-2.57064">
        <ele>82.969592</ele>
        <time>2022-12-13T16:42:34.894Z</time>
      </trkpt>
      <trkpt lat="47.95342" lon="-2.57047">
        <ele>83.045247</ele>
        <time>2022-12-13T16:42:37.890Z</time>
      </trkpt>
      <trkpt lat="47.95346" lon="-2.57029">
        <ele>83.129188</ele>
        <time>2022-12-13T16:42:40.906Z</time>
      </trkpt>
      <trkpt lat="47.95349" lon="-2.57015">
        <ele>83.189478</ele>
        <time>2022-12-13T16:42:42.897Z</time>
      </trkpt>
      <trkpt lat="47.95352" lon="-2.57001">
        <ele>83.2514</ele>
        <time>2022-12-13T16:42:44.907Z</time>
      </trkpt>
      <trkpt lat="47.95355" lon="-2.56988">
        <ele>83.31169</ele>
        <time>2022-12-13T16:42:46.905Z</time>
      </trkpt>
      <trkpt lat="47.95357" lon="-2.56974">
        <ele>83.359975</ele>
        <time>2022-12-13T16:42:48.894Z</time>
      </trkpt>
      <trkpt lat="47.9536" lon="-2.56961">
        <ele>83.386143</ele>
        <time>2022-12-13T16:42:50.889Z</time>
      </trkpt>
      <trkpt lat="47.95363" lon="-2.56942">
        <ele>83.42227</ele>
        <time>2022-12-13T16:42:53.898Z</time>
      </trkpt>
      <trkpt lat="47.95365" lon="-2.56924">
        <ele>83.457165</ele>
        <time>2022-12-13T16:42:56.903Z</time>
      </trkpt>
      <trkpt lat="47.95367" lon="-2.56911">
        <ele>83.482914</ele>
        <time>2022-12-13T16:42:58.912Z</time>
      </trkpt>
      <trkpt lat="47.95367" lon="-2.5689">
        <ele>83.521325</ele>
        <time>2022-12-13T16:43:01.916Z</time>
      </trkpt>
      <trkpt lat="47.95367" lon="-2.56876">
        <ele>83.547622</ele>
        <time>2022-12-13T16:43:03.915Z</time>
      </trkpt>
      <trkpt lat="47.95368" lon="-2.56862">
        <ele>83.574143</ele>
        <time>2022-12-13T16:43:05.884Z</time>
      </trkpt>
      <trkpt lat="47.95368" lon="-2.56849">
        <ele>83.600255</ele>
        <time>2022-12-13T16:43:07.889Z</time>
      </trkpt>
      <trkpt lat="47.95368" lon="-2.56835">
        <ele>83.626375</ele>
        <time>2022-12-13T16:43:09.886Z</time>
      </trkpt>
      <trkpt lat="47.95368" lon="-2.56817">
        <ele>83.659481</ele>
        <time>2022-12-13T16:43:12.895Z</time>
      </trkpt>
      <trkpt lat="47.95368" lon="-2.56802">
        <ele>83.688626</ele>
        <time>2022-12-13T16:43:15.887Z</time>
      </trkpt>
      <trkpt lat="47.95368" lon="-2.56785">
        <ele>83.720219</ele>
        <time>2022-12-13T16:43:18.909Z</time>
      </trkpt>
      <trkpt lat="47.95369" lon="-2.56769">
        <ele>83.751444</ele>
        <time>2022-12-13T16:43:21.888Z</time>
      </trkpt>
      <trkpt lat="47.95369" lon="-2.56754">
        <ele>83.778722</ele>
        <time>2022-12-13T16:43:24.907Z</time>
      </trkpt>
      <trkpt lat="47.95369" lon="-2.56741">
        <ele>83.804463</ele>
        <time>2022-12-13T16:43:27.889Z</time>
      </trkpt>
      <trkpt lat="47.95369" lon="-2.56726">
        <ele>83.833041</ele>
        <time>2022-12-13T16:43:30.917Z</time>
      </trkpt>
      <trkpt lat="47.95369" lon="-2.56709">
        <ele>83.824764</ele>
        <time>2022-12-13T16:43:33.897Z</time>
      </trkpt>
      <trkpt lat="47.9537" lon="-2.56693">
        <ele>83.68529</ele>
        <time>2022-12-13T16:43:36.912Z</time>
      </trkpt>
      <trkpt lat="47.95372" lon="-2.56678">
        <ele>83.554838</ele>
        <time>2022-12-13T16:43:39.912Z</time>
      </trkpt>
      <trkpt lat="47.95375" lon="-2.56664">
        <ele>83.430714</ele>
        <time>2022-12-13T16:43:42.903Z</time>
      </trkpt>
      <trkpt lat="47.95378" lon="-2.56648">
        <ele>83.283881</ele>
        <time>2022-12-13T16:43:46.893Z</time>
      </trkpt>
      <trkpt lat="47.95382" lon="-2.56631">
        <ele>83.131341</ele>
        <time>2022-12-13T16:43:50.909Z</time>
      </trkpt>
      <trkpt lat="47.95386" lon="-2.56618">
        <ele>83.006836</ele>
        <time>2022-12-13T16:43:54.896Z</time>
      </trkpt>
      <trkpt lat="47.95389" lon="-2.56603">
        <ele>82.876698</ele>
        <time>2022-12-13T16:43:59.912Z</time>
      </trkpt>
      <trkpt lat="47.95393" lon="-2.5659">
        <ele>82.757468</ele>
        <time>2022-12-13T16:44:03.885Z</time>
      </trkpt>
      <trkpt lat="47.95396" lon="-2.56578">
        <ele>82.637048</ele>
        <time>2022-12-13T16:44:08.911Z</time>
      </trkpt>
      <trkpt lat="47.95401" lon="-2.56566">
        <ele>82.521282</ele>
        <time>2022-12-13T16:44:25.888Z</time>
      </trkpt>
      <trkpt lat="47.95402" lon="-2.56552">
        <ele>82.397267</ele>
        <time>2022-12-13T16:44:34.901Z</time>
      </trkpt>
      <trkpt lat="47.95402" lon="-2.56536">
        <ele>82.257937</ele>
        <time>2022-12-13T16:44:39.899Z</time>
      </trkpt>
      <trkpt lat="47.95404" lon="-2.56518">
        <ele>82.105029</ele>
        <time>2022-12-13T16:44:43.900Z</time>
      </trkpt>
      <trkpt lat="47.95405" lon="-2.56503">
        <ele>81.971324</ele>
        <time>2022-12-13T16:44:46.905Z</time>
      </trkpt>
      <trkpt lat="47.95404" lon="-2.56487">
        <ele>81.831782</ele>
        <time>2022-12-13T16:44:49.893Z</time>
      </trkpt>
      <trkpt lat="47.95402" lon="-2.56471">
        <ele>81.689923</ele>
        <time>2022-12-13T16:44:52.895Z</time>
      </trkpt>
      <trkpt lat="47.95399" lon="-2.56454">
        <ele>81.552251</ele>
        <time>2022-12-13T16:44:55.889Z</time>
      </trkpt>
      <trkpt lat="47.95396" lon="-2.56437">
        <ele>81.679611</ele>
        <time>2022-12-13T16:44:58.899Z</time>
      </trkpt>
      <trkpt lat="47.95394" lon="-2.5642">
        <ele>81.80256</ele>
        <time>2022-12-13T16:45:01.889Z</time>
      </trkpt>
      <trkpt lat="47.95391" lon="-2.56405">
        <ele>81.918883</ele>
        <time>2022-12-13T16:45:04.909Z</time>
      </trkpt>
      <trkpt lat="47.95389" lon="-2.5639">
        <ele>82.027507</ele>
        <time>2022-12-13T16:45:07.917Z</time>
      </trkpt>
      <trkpt lat="47.95386" lon="-2.56375">
        <ele>82.144533</ele>
        <time>2022-12-13T16:45:10.885Z</time>
      </trkpt>
      <trkpt lat="47.95384" lon="-2.5636">
        <ele>82.259083</ele>
        <time>2022-12-13T16:45:13.904Z</time>
      </trkpt>
      <trkpt lat="47.95381" lon="-2.56343">
        <ele>82.382729</ele>
        <time>2022-12-13T16:45:16.883Z</time>
      </trkpt>
      <trkpt lat="47.95378" lon="-2.56327">
        <ele>82.506375</ele>
        <time>2022-12-13T16:45:19.904Z</time>
      </trkpt>
      <trkpt lat="47.95376" lon="-2.56312">
        <ele>82.613875</ele>
        <time>2022-12-13T16:45:22.909Z</time>
      </trkpt>
      <trkpt lat="47.95374" lon="-2.56297">
        <ele>82.728678</ele>
        <time>2022-12-13T16:45:25.883Z</time>
      </trkpt>
      <trkpt lat="47.9537" lon="-2.5628">
        <ele>82.857311</ele>
        <time>2022-12-13T16:45:28.909Z</time>
      </trkpt>
      <trkpt lat="47.95368" lon="-2.56262">
        <ele>82.989404</ele>
        <time>2022-12-13T16:45:31.890Z</time>
      </trkpt>
      <trkpt lat="47.95365" lon="-2.56245">
        <ele>83.117728</ele>
        <time>2022-12-13T16:45:34.900Z</time>
      </trkpt>
      <trkpt lat="47.95363" lon="-2.56232">
        <ele>83.219715</ele>
        <time>2022-12-13T16:45:37.904Z</time>
      </trkpt>
      <trkpt lat="47.95359" lon="-2.56217">
        <ele>83.332041</ele>
        <time>2022-12-13T16:45:40.904Z</time>
      </trkpt>
      <trkpt lat="47.95354" lon="-2.56202">
        <ele>83.457454</ele>
        <time>2022-12-13T16:45:43.888Z</time>
      </trkpt>
      <trkpt lat="47.95349" lon="-2.56187">
        <ele>83.458531</ele>
        <time>2022-12-13T16:45:46.904Z</time>
      </trkpt>
      <trkpt lat="47.95344" lon="-2.56173">
        <ele>83.383898</ele>
        <time>2022-12-13T16:45:49.886Z</time>
      </trkpt>
      <trkpt lat="47.95338" lon="-2.56157">
        <ele>83.301232</ele>
        <time>2022-12-13T16:45:52.891Z</time>
      </trkpt>
      <trkpt lat="47.95332" lon="-2.56141">
        <ele>83.217357</ele>
        <time>2022-12-13T16:45:55.885Z</time>
      </trkpt>
      <trkpt lat="47.95326" lon="-2.56125">
        <ele>83.130119</ele>
        <time>2022-12-13T16:45:58.899Z</time>
      </trkpt>
      <trkpt lat="47.95319" lon="-2.56109">
        <ele>83.040778</ele>
        <time>2022-12-13T16:46:01.893Z</time>
      </trkpt>
      <trkpt lat="47.95311" lon="-2.56094">
        <ele>82.955029</ele>
        <time>2022-12-13T16:46:04.905Z</time>
      </trkpt>
      <trkpt lat="47.95303" lon="-2.56081">
        <ele>82.873653</ele>
        <time>2022-12-13T16:46:07.913Z</time>
      </trkpt>
      <trkpt lat="47.95295" lon="-2.56068">
        <ele>82.789503</ele>
        <time>2022-12-13T16:46:10.907Z</time>
      </trkpt>
      <trkpt lat="47.95284" lon="-2.56056">
        <ele>82.69923</ele>
        <time>2022-12-13T16:46:13.889Z</time>
      </trkpt>
      <trkpt lat="47.95273" lon="-2.56046">
        <ele>82.610247</ele>
        <time>2022-12-13T16:46:16.904Z</time>
      </trkpt>
      <trkpt lat="47.95264" lon="-2.56035">
        <ele>82.529581</ele>
        <time>2022-12-13T16:46:19.907Z</time>
      </trkpt>
      <trkpt lat="47.95256" lon="-2.56026">
        <ele>82.460836</ele>
        <time>2022-12-13T16:46:22.898Z</time>
      </trkpt>
      <trkpt lat="47.95247" lon="-2.56015">
        <ele>82.378837</ele>
        <time>2022-12-13T16:46:26.915Z</time>
      </trkpt>
      <trkpt lat="47.95238" lon="-2.56004">
        <ele>82.302764</ele>
        <time>2022-12-13T16:46:29.911Z</time>
      </trkpt>
      <trkpt lat="47.9523" lon="-2.55993">
        <ele>82.212577</ele>
        <time>2022-12-13T16:46:32.904Z</time>
      </trkpt>
      <trkpt lat="47.95222" lon="-2.5598">
        <ele>82.116642</ele>
        <time>2022-12-13T16:46:35.888Z</time>
      </trkpt>
      <trkpt lat="47.95217" lon="-2.55964">
        <ele>82.015672</ele>
        <time>2022-12-13T16:46:38.894Z</time>
      </trkpt>
      <trkpt lat="47.95214" lon="-2.55946">
        <ele>81.912929</ele>
        <time>2022-12-13T16:46:41.880Z</time>
      </trkpt>
      <trkpt lat="47.95211" lon="-2.55928">
        <ele>81.802578</ele>
        <time>2022-12-13T16:46:44.897Z</time>
      </trkpt>
      <trkpt lat="47.95208" lon="-2.55909">
        <ele>81.692094</ele>
        <time>2022-12-13T16:46:47.897Z</time>
      </trkpt>
      <trkpt lat="47.95205" lon="-2.55891">
        <ele>81.588312</ele>
        <time>2022-12-13T16:46:50.907Z</time>
      </trkpt>
      <trkpt lat="47.95203" lon="-2.55877">
        <ele>81.504079</ele>
        <time>2022-12-13T16:46:52.908Z</time>
      </trkpt>
      <trkpt lat="47.95199" lon="-2.55859">
        <ele>81.399004</ele>
        <time>2022-12-13T16:46:55.886Z</time>
      </trkpt>
      <trkpt lat="47.95196" lon="-2.55841">
        <ele>81.290634</ele>
        <time>2022-12-13T16:46:58.902Z</time>
      </trkpt>
      <trkpt lat="47.95194" lon="-2.55823">
        <ele>81.18815</ele>
        <time>2022-12-13T16:47:01.900Z</time>
      </trkpt>
      <trkpt lat="47.95192" lon="-2.55806">
        <ele>81.089945</ele>
        <time>2022-12-13T16:47:04.887Z</time>
      </trkpt>
      <trkpt lat="47.95189" lon="-2.55791">
        <ele>80.997784</ele>
        <time>2022-12-13T16:47:07.909Z</time>
      </trkpt>
      <trkpt lat="47.95186" lon="-2.55778">
        <ele>80.920835</ele>
        <time>2022-12-13T16:47:10.914Z</time>
      </trkpt>
      <trkpt lat="47.95185" lon="-2.55764">
        <ele>80.84044</ele>
        <time>2022-12-13T16:47:13.908Z</time>
      </trkpt>
      <trkpt lat="47.95183" lon="-2.55748">
        <ele>80.748421</ele>
        <time>2022-12-13T16:47:16.910Z</time>
      </trkpt>
      <trkpt lat="47.9518" lon="-2.55729">
        <ele>80.630225</ele>
        <time>2022-12-13T16:47:19.906Z</time>
      </trkpt>
      <trkpt lat="47.95178" lon="-2.55716">
        <ele>80.548599</ele>
        <time>2022-12-13T16:47:21.897Z</time>
      </trkpt>
      <trkpt lat="47.95175" lon="-2.55696">
        <ele>80.424548</ele>
        <time>2022-12-13T16:47:24.895Z</time>
      </trkpt>
      <trkpt lat="47.95173" lon="-2.55677">
        <ele>80.302014</ele>
        <time>2022-12-13T16:47:27.889Z</time>
      </trkpt>
      <trkpt lat="47.95173" lon="-2.55658">
        <ele>80.188769</ele>
        <time>2022-12-13T16:47:30.886Z</time>
      </trkpt>
      <trkpt lat="47.95176" lon="-2.55642">
        <ele>80.08919</ele>
        <time>2022-12-13T16:47:33.896Z</time>
      </trkpt>
      <trkpt lat="47.95182" lon="-2.55629">
        <ele>79.98699</ele>
        <time>2022-12-13T16:47:37.888Z</time>
      </trkpt>
      <trkpt lat="47.95189" lon="-2.55618">
        <ele>79.897823</ele>
        <time>2022-12-13T16:47:41.906Z</time>
      </trkpt>
      <trkpt lat="47.95197" lon="-2.55606">
        <ele>79.790271</ele>
        <time>2022-12-13T16:47:46.909Z</time>
      </trkpt>
      <trkpt lat="47.95206" lon="-2.55593">
        <ele>79.679093</ele>
        <time>2022-12-13T16:47:50.900Z</time>
      </trkpt>
      <trkpt lat="47.95213" lon="-2.55581">
        <ele>79.582604</ele>
        <time>2022-12-13T16:47:53.900Z</time>
      </trkpt>
      <trkpt lat="47.9522" lon="-2.55569">
        <ele>79.485819</ele>
        <time>2022-12-13T16:47:56.915Z</time>
      </trkpt>
      <trkpt lat="47.95225" lon="-2.55557">
        <ele>79.395726</ele>
        <time>2022-12-13T16:47:59.898Z</time>
      </trkpt>
      <trkpt lat="47.9523" lon="-2.55539">
        <ele>79.278935</ele>
        <time>2022-12-13T16:48:02.903Z</time>
      </trkpt>
      <trkpt lat="47.95235" lon="-2.5552">
        <ele>79.155045</ele>
        <time>2022-12-13T16:48:05.894Z</time>
      </trkpt>
      <trkpt lat="47.95237" lon="-2.55507">
        <ele>79.120052</ele>
        <time>2022-12-13T16:48:07.894Z</time>
      </trkpt>
      <trkpt lat="47.95241" lon="-2.55489">
        <ele>79.315489</ele>
        <time>2022-12-13T16:48:10.916Z</time>
      </trkpt>
      <trkpt lat="47.95244" lon="-2.55472">
        <ele>79.498694</ele>
        <time>2022-12-13T16:48:13.897Z</time>
      </trkpt>
      <trkpt lat="47.95247" lon="-2.55456">
        <ele>79.66326</ele>
        <time>2022-12-13T16:48:16.912Z</time>
      </trkpt>
      <trkpt lat="47.95251" lon="-2.55439">
        <ele>79.852806</ele>
        <time>2022-12-13T16:48:19.912Z</time>
      </trkpt>
      <trkpt lat="47.95255" lon="-2.55422">
        <ele>80.041371</ele>
        <time>2022-12-13T16:48:22.908Z</time>
      </trkpt>
      <trkpt lat="47.95258" lon="-2.55404">
        <ele>80.230354</ele>
        <time>2022-12-13T16:48:25.887Z</time>
      </trkpt>
      <trkpt lat="47.95259" lon="-2.55389">
        <ele>80.378257</ele>
        <time>2022-12-13T16:48:28.899Z</time>
      </trkpt>
      <trkpt lat="47.95262" lon="-2.55372">
        <ele>80.562446</ele>
        <time>2022-12-13T16:48:32.912Z</time>
      </trkpt>
      <trkpt lat="47.95264" lon="-2.55356">
        <ele>80.727262</ele>
        <time>2022-12-13T16:48:35.886Z</time>
      </trkpt>
      <trkpt lat="47.95267" lon="-2.55343">
        <ele>80.870492</ele>
        <time>2022-12-13T16:48:38.895Z</time>
      </trkpt>
      <trkpt lat="47.95271" lon="-2.55328">
        <ele>81.034709</ele>
        <time>2022-12-13T16:48:43.892Z</time>
      </trkpt>
      <trkpt lat="47.95274" lon="-2.55316">
        <ele>81.174568</ele>
        <time>2022-12-13T16:48:47.901Z</time>
      </trkpt>
      <trkpt lat="47.95275" lon="-2.553">
        <ele>81.339551</ele>
        <time>2022-12-13T16:48:51.911Z</time>
      </trkpt>
      <trkpt lat="47.95277" lon="-2.55283">
        <ele>81.511413</ele>
        <time>2022-12-13T16:48:55.883Z</time>
      </trkpt>
      <trkpt lat="47.95278" lon="-2.5527">
        <ele>81.651997</ele>
        <time>2022-12-13T16:48:58.897Z</time>
      </trkpt>
      <trkpt lat="47.95279" lon="-2.55256">
        <ele>81.795645</ele>
        <time>2022-12-13T16:49:02.892Z</time>
      </trkpt>
      <trkpt lat="47.9528" lon="-2.55241">
        <ele>82.098332</ele>
        <time>2022-12-13T16:49:07.906Z</time>
      </trkpt>
      <trkpt lat="47.95282" lon="-2.55226">
        <ele>82.503658</ele>
        <time>2022-12-13T16:49:11.907Z</time>
      </trkpt>
      <trkpt lat="47.95283" lon="-2.55209">
        <ele>82.942567</ele>
        <time>2022-12-13T16:49:15.888Z</time>
      </trkpt>
      <trkpt lat="47.95283" lon="-2.55193">
        <ele>83.360592</ele>
        <time>2022-12-13T16:49:19.912Z</time>
      </trkpt>
      <trkpt lat="47.95283" lon="-2.55179">
        <ele>83.718576</ele>
        <time>2022-12-13T16:49:24.898Z</time>
      </trkpt>
      <trkpt lat="47.95284" lon="-2.55164">
        <ele>84.118326</ele>
        <time>2022-12-13T16:49:30.899Z</time>
      </trkpt>
      <trkpt lat="47.95282" lon="-2.55157">
        <ele>84.293417</ele>
        <time>2022-12-13T16:49:50.659Z</time>
      </trkpt>
      <trkpt lat="47.96473" lon="-2.54374">
        <ele>122.663269</ele>
        <time>2022-12-13T17:40:54.005Z</time>
      </trkpt>
      <trkpt lat="47.96458" lon="-2.54347">
        <ele>120.816636</ele>
        <time>2022-12-13T17:41:58.910Z</time>
      </trkpt>
      <trkpt lat="47.9645" lon="-2.54342">
        <ele>120.09207</ele>
        <time>2022-12-13T17:42:02.931Z</time>
      </trkpt>
      <trkpt lat="47.96441" lon="-2.54336">
        <ele>119.38186</ele>
        <time>2022-12-13T17:42:06.917Z</time>
      </trkpt>
      <trkpt lat="47.96433" lon="-2.54328">
        <ele>118.617594</ele>
        <time>2022-12-13T17:42:11.906Z</time>
      </trkpt>
      <trkpt lat="47.96431" lon="-2.54313">
        <ele>117.833456</ele>
        <time>2022-12-13T17:42:16.907Z</time>
      </trkpt>
      <trkpt lat="47.96433" lon="-2.54298">
        <ele>116.98681</ele>
        <time>2022-12-13T17:42:21.907Z</time>
      </trkpt>
      <trkpt lat="47.96436" lon="-2.54284">
        <ele>116.330885</ele>
        <time>2022-12-13T17:42:25.921Z</time>
      </trkpt>
      <trkpt lat="47.96437" lon="-2.54269">
        <ele>115.694853</ele>
        <time>2022-12-13T17:42:30.918Z</time>
      </trkpt>
      <trkpt lat="47.9643" lon="-2.54256">
        <ele>114.985359</ele>
        <time>2022-12-13T17:42:34.899Z</time>
      </trkpt>
      <trkpt lat="47.9642" lon="-2.54249">
        <ele>114.273733</ele>
        <time>2022-12-13T17:42:38.924Z</time>
      </trkpt>
      <trkpt lat="47.96409" lon="-2.54244">
        <ele>113.549543</ele>
        <time>2022-12-13T17:42:42.904Z</time>
      </trkpt>
      <trkpt lat="47.96397" lon="-2.54241">
        <ele>112.807651</ele>
        <time>2022-12-13T17:42:46.902Z</time>
      </trkpt>
      <trkpt lat="47.96388" lon="-2.54235">
        <ele>112.165627</ele>
        <time>2022-12-13T17:42:49.924Z</time>
      </trkpt>
      <trkpt lat="47.96377" lon="-2.54228">
        <ele>111.430281</ele>
        <time>2022-12-13T17:42:53.911Z</time>
      </trkpt>
      <trkpt lat="47.96369" lon="-2.54221">
        <ele>110.806726</ele>
        <time>2022-12-13T17:42:57.907Z</time>
      </trkpt>
      <trkpt lat="47.96358" lon="-2.54213">
        <ele>110.058833</ele>
        <time>2022-12-13T17:43:01.919Z</time>
      </trkpt>
      <trkpt lat="47.96349" lon="-2.54206">
        <ele>109.396541</ele>
        <time>2022-12-13T17:43:04.908Z</time>
      </trkpt>
      <trkpt lat="47.9634" lon="-2.54199">
        <ele>108.730371</ele>
        <time>2022-12-13T17:43:07.909Z</time>
      </trkpt>
      <trkpt lat="47.96331" lon="-2.5419">
        <ele>108.040146</ele>
        <time>2022-12-13T17:43:10.920Z</time>
      </trkpt>
      <trkpt lat="47.96322" lon="-2.54181">
        <ele>107.392992</ele>
        <time>2022-12-13T17:43:13.907Z</time>
      </trkpt>
      <trkpt lat="47.96315" lon="-2.54173">
        <ele>106.803679</ele>
        <time>2022-12-13T17:43:16.925Z</time>
      </trkpt>
      <trkpt lat="47.96306" lon="-2.54163">
        <ele>106.092326</ele>
        <time>2022-12-13T17:43:20.898Z</time>
      </trkpt>
      <trkpt lat="47.96298" lon="-2.54151">
        <ele>105.376965</ele>
        <time>2022-12-13T17:43:24.914Z</time>
      </trkpt>
      <trkpt lat="47.9629" lon="-2.5414">
        <ele>104.970284</ele>
        <time>2022-12-13T17:43:28.919Z</time>
      </trkpt>
      <trkpt lat="47.96281" lon="-2.54134">
        <ele>104.631571</ele>
        <time>2022-12-13T17:43:31.910Z</time>
      </trkpt>
      <trkpt lat="47.96271" lon="-2.5413">
        <ele>104.246731</ele>
        <time>2022-12-13T17:43:34.924Z</time>
      </trkpt>
      <trkpt lat="47.96261" lon="-2.54124">
        <ele>103.869346</ele>
        <time>2022-12-13T17:43:37.916Z</time>
      </trkpt>
      <trkpt lat="47.96255" lon="-2.54109">
        <ele>103.458871</ele>
        <time>2022-12-13T17:43:40.922Z</time>
      </trkpt>
      <trkpt lat="47.96249" lon="-2.5409">
        <ele>102.955037</ele>
        <time>2022-12-13T17:43:43.915Z</time>
      </trkpt>
      <trkpt lat="47.96244" lon="-2.54076">
        <ele>102.583016</ele>
        <time>2022-12-13T17:43:45.926Z</time>
      </trkpt>
      <trkpt lat="47.96239" lon="-2.54061">
        <ele>102.187065</ele>
        <time>2022-12-13T17:43:47.923Z</time>
      </trkpt>
      <trkpt lat="47.96235" lon="-2.54046">
        <ele>101.786811</ele>
        <time>2022-12-13T17:43:49.921Z</time>
      </trkpt>
      <trkpt lat="47.96229" lon="-2.54029">
        <ele>101.352484</ele>
        <time>2022-12-13T17:43:51.909Z</time>
      </trkpt>
      <trkpt lat="47.96225" lon="-2.54014">
        <ele>100.959988</ele>
        <time>2022-12-13T17:43:53.900Z</time>
      </trkpt>
      <trkpt lat="47.96221" lon="-2.54">
        <ele>100.587825</ele>
        <time>2022-12-13T17:43:55.919Z</time>
      </trkpt>
      <trkpt lat="47.96218" lon="-2.53986">
        <ele>100.233242</ele>
        <time>2022-12-13T17:43:57.919Z</time>
      </trkpt>
      <trkpt lat="47.96214" lon="-2.53972">
        <ele>99.86787</ele>
        <time>2022-12-13T17:43:59.903Z</time>
      </trkpt>
      <trkpt lat="47.9621" lon="-2.53959">
        <ele>99.525626</ele>
        <time>2022-12-13T17:44:01.924Z</time>
      </trkpt>
      <trkpt lat="47.96206" lon="-2.53944">
        <ele>99.147713</ele>
        <time>2022-12-13T17:44:04.922Z</time>
      </trkpt>
      <trkpt lat="47.96196" lon="-2.53936">
        <ele>98.817698</ele>
        <time>2022-12-13T17:44:06.912Z</time>
      </trkpt>
      <trkpt lat="47.96187" lon="-2.53927">
        <ele>98.549428</ele>
        <time>2022-12-13T17:44:11.917Z</time>
      </trkpt>
      <trkpt lat="47.96181" lon="-2.53938">
        <ele>98.316006</ele>
        <time>2022-12-13T17:44:32.902Z</time>
      </trkpt>
      <trkpt lat="47.96169" lon="-2.53946">
        <ele>97.996664</ele>
        <time>2022-12-13T17:44:38.900Z</time>
      </trkpt>
      <trkpt lat="47.96162" lon="-2.53956">
        <ele>97.748494</ele>
        <time>2022-12-13T17:44:40.919Z</time>
      </trkpt>
      <trkpt lat="47.96152" lon="-2.53966">
        <ele>97.447708</ele>
        <time>2022-12-13T17:44:43.907Z</time>
      </trkpt>
      <trkpt lat="47.96142" lon="-2.53976">
        <ele>97.150037</ele>
        <time>2022-12-13T17:44:46.925Z</time>
      </trkpt>
      <trkpt lat="47.96133" lon="-2.53986">
        <ele>96.858913</ele>
        <time>2022-12-13T17:44:49.925Z</time>
      </trkpt>
      <trkpt lat="47.96126" lon="-2.53997">
        <ele>96.603073</ele>
        <time>2022-12-13T17:44:52.929Z</time>
      </trkpt>
      <trkpt lat="47.9612" lon="-2.54008">
        <ele>96.368154</ele>
        <time>2022-12-13T17:44:55.922Z</time>
      </trkpt>
      <trkpt lat="47.96113" lon="-2.54019">
        <ele>96.1136</ele>
        <time>2022-12-13T17:44:59.915Z</time>
      </trkpt>
      <trkpt lat="47.96112" lon="-2.54042">
        <ele>95.733861</ele>
        <time>2022-12-13T17:45:49.911Z</time>
      </trkpt>
      <trkpt lat="47.96117" lon="-2.54056">
        <ele>95.481196</ele>
        <time>2022-12-13T17:45:53.922Z</time>
      </trkpt>
      <trkpt lat="47.96121" lon="-2.54071">
        <ele>95.206605</ele>
        <time>2022-12-13T17:45:57.922Z</time>
      </trkpt>
      <trkpt lat="47.96124" lon="-2.54084">
        <ele>94.969181</ele>
        <time>2022-12-13T17:46:01.911Z</time>
      </trkpt>
      <trkpt lat="47.96128" lon="-2.541">
        <ele>94.699165</ele>
        <time>2022-12-13T17:46:06.928Z</time>
      </trkpt>
      <trkpt lat="47.9613" lon="-2.54116">
        <ele>94.510361</ele>
        <time>2022-12-13T17:46:10.918Z</time>
      </trkpt>
      <trkpt lat="47.96131" lon="-2.5413">
        <ele>94.855436</ele>
        <time>2022-12-13T17:46:13.907Z</time>
      </trkpt>
      <trkpt lat="47.96131" lon="-2.54144">
        <ele>95.209783</ele>
        <time>2022-12-13T17:46:16.916Z</time>
      </trkpt>
      <trkpt lat="47.96131" lon="-2.54158">
        <ele>95.549209</ele>
        <time>2022-12-13T17:46:19.910Z</time>
      </trkpt>
      <trkpt lat="47.9613" lon="-2.54172">
        <ele>95.901701</ele>
        <time>2022-12-13T17:46:23.908Z</time>
      </trkpt>
      <trkpt lat="47.9613" lon="-2.54186">
        <ele>96.246558</ele>
        <time>2022-12-13T17:46:28.920Z</time>
      </trkpt>
      <trkpt lat="47.9613" lon="-2.54199">
        <ele>96.58152</ele>
        <time>2022-12-13T17:46:33.910Z</time>
      </trkpt>
      <trkpt lat="47.96127" lon="-2.54214">
        <ele>96.96562</ele>
        <time>2022-12-13T17:46:38.918Z</time>
      </trkpt>
      <trkpt lat="47.96123" lon="-2.54227">
        <ele>97.32386</ele>
        <time>2022-12-13T17:46:43.925Z</time>
      </trkpt>
      <trkpt lat="47.96116" lon="-2.54236">
        <ele>97.657958</ele>
        <time>2022-12-13T17:46:51.901Z</time>
      </trkpt>
      <trkpt lat="47.96105" lon="-2.54259">
        <ele>98.365118</ele>
        <time>2022-12-13T17:47:19.905Z</time>
      </trkpt>
      <trkpt lat="47.96101" lon="-2.54271">
        <ele>98.708239</ele>
        <time>2022-12-13T17:47:23.909Z</time>
      </trkpt>
      <trkpt lat="47.96096" lon="-2.54286">
        <ele>99.120598</ele>
        <time>2022-12-13T17:47:28.922Z</time>
      </trkpt>
      <trkpt lat="47.96092" lon="-2.54299">
        <ele>99.476934</ele>
        <time>2022-12-13T17:47:32.910Z</time>
      </trkpt>
      <trkpt lat="47.96087" lon="-2.54314">
        <ele>99.891625</ele>
        <time>2022-12-13T17:47:37.929Z</time>
      </trkpt>
      <trkpt lat="47.96081" lon="-2.54326">
        <ele>100.249904</ele>
        <time>2022-12-13T17:47:41.899Z</time>
      </trkpt>
      <trkpt lat="47.96076" lon="-2.54339">
        <ele>100.612755</ele>
        <time>2022-12-13T17:47:45.927Z</time>
      </trkpt>
      <trkpt lat="47.9607" lon="-2.54351">
        <ele>100.993776</ele>
        <time>2022-12-13T17:47:49.909Z</time>
      </trkpt>
      <trkpt lat="47.96065" lon="-2.54363">
        <ele>101.122854</ele>
        <time>2022-12-13T17:47:53.908Z</time>
      </trkpt>
      <trkpt lat="47.9606" lon="-2.54378">
        <ele>101.141709</ele>
        <time>2022-12-13T17:47:58.931Z</time>
      </trkpt>
      <trkpt lat="47.96055" lon="-2.54391">
        <ele>101.159517</ele>
        <time>2022-12-13T17:48:02.921Z</time>
      </trkpt>
      <trkpt lat="47.96048" lon="-2.54405">
        <ele>101.178907</ele>
        <time>2022-12-13T17:48:06.923Z</time>
      </trkpt>
      <trkpt lat="47.96042" lon="-2.54417">
        <ele>101.195047</ele>
        <time>2022-12-13T17:48:09.899Z</time>
      </trkpt>
      <trkpt lat="47.96037" lon="-2.54429">
        <ele>101.212706</ele>
        <time>2022-12-13T17:48:12.921Z</time>
      </trkpt>
      <trkpt lat="47.96031" lon="-2.54443">
        <ele>101.231695</ele>
        <time>2022-12-13T17:48:15.937Z</time>
      </trkpt>
      <trkpt lat="47.96024" lon="-2.54456">
        <ele>101.250346</ele>
        <time>2022-12-13T17:48:18.930Z</time>
      </trkpt>
      <trkpt lat="47.96017" lon="-2.54467">
        <ele>101.267317</ele>
        <time>2022-12-13T17:48:21.929Z</time>
      </trkpt>
      <trkpt lat="47.96011" lon="-2.54478">
        <ele>101.283064</ele>
        <time>2022-12-13T17:48:24.922Z</time>
      </trkpt>
      <trkpt lat="47.96003" lon="-2.54488">
        <ele>101.300806</ele>
        <time>2022-12-13T17:48:27.909Z</time>
      </trkpt>
      <trkpt lat="47.95994" lon="-2.54498">
        <ele>101.320833</ele>
        <time>2022-12-13T17:48:30.906Z</time>
      </trkpt>
      <trkpt lat="47.95983" lon="-2.54509">
        <ele>101.34257</ele>
        <time>2022-12-13T17:48:33.902Z</time>
      </trkpt>
      <trkpt lat="47.95972" lon="-2.54519">
        <ele>101.364423</ele>
        <time>2022-12-13T17:48:36.908Z</time>
      </trkpt>
      <trkpt lat="47.95961" lon="-2.54529">
        <ele>101.386716</ele>
        <time>2022-12-13T17:48:39.898Z</time>
      </trkpt>
      <trkpt lat="47.95954" lon="-2.54536">
        <ele>101.402071</ele>
        <time>2022-12-13T17:48:41.914Z</time>
      </trkpt>
      <trkpt lat="47.95943" lon="-2.54546">
        <ele>101.509317</ele>
        <time>2022-12-13T17:48:44.917Z</time>
      </trkpt>
      <trkpt lat="47.95934" lon="-2.54554">
        <ele>101.848353</ele>
        <time>2022-12-13T17:48:47.912Z</time>
      </trkpt>
      <trkpt lat="47.9593" lon="-2.54567">
        <ele>102.187386</ele>
        <time>2022-12-13T17:48:51.924Z</time>
      </trkpt>
      <trkpt lat="47.95924" lon="-2.54578">
        <ele>102.491687</ele>
        <time>2022-12-13T17:48:55.922Z</time>
      </trkpt>
      <trkpt lat="47.95916" lon="-2.54583">
        <ele>102.79977</ele>
        <time>2022-12-13T17:48:58.897Z</time>
      </trkpt>
      <trkpt lat="47.95906" lon="-2.54586">
        <ele>103.140719</ele>
        <time>2022-12-13T17:49:01.917Z</time>
      </trkpt>
      <trkpt lat="47.95895" lon="-2.5459">
        <ele>103.503317</ele>
        <time>2022-12-13T17:49:04.917Z</time>
      </trkpt>
      <trkpt lat="47.95885" lon="-2.54595">
        <ele>103.871023</ele>
        <time>2022-12-13T17:49:07.913Z</time>
      </trkpt>
      <trkpt lat="47.95875" lon="-2.54602">
        <ele>104.230752</ele>
        <time>2022-12-13T17:49:10.922Z</time>
      </trkpt>
      <trkpt lat="47.95867" lon="-2.54607">
        <ele>104.538974</ele>
        <time>2022-12-13T17:49:13.922Z</time>
      </trkpt>
      <trkpt lat="47.95856" lon="-2.54614">
        <ele>104.919904</ele>
        <time>2022-12-13T17:49:17.914Z</time>
      </trkpt>
      <trkpt lat="47.95847" lon="-2.54619">
        <ele>105.248399</ele>
        <time>2022-12-13T17:49:20.900Z</time>
      </trkpt>
      <trkpt lat="47.95837" lon="-2.54625">
        <ele>105.605074</ele>
        <time>2022-12-13T17:49:23.916Z</time>
      </trkpt>
      <trkpt lat="47.95827" lon="-2.5463">
        <ele>105.977409</ele>
        <time>2022-12-13T17:49:26.912Z</time>
      </trkpt>
      <trkpt lat="47.95816" lon="-2.54637">
        <ele>106.3538</ele>
        <time>2022-12-13T17:49:29.916Z</time>
      </trkpt>
      <trkpt lat="47.95806" lon="-2.54644">
        <ele>106.740727</ele>
        <time>2022-12-13T17:49:32.915Z</time>
      </trkpt>
      <trkpt lat="47.95795" lon="-2.5465">
        <ele>107.126311</ele>
        <time>2022-12-13T17:49:35.908Z</time>
      </trkpt>
      <trkpt lat="47.95785" lon="-2.54655">
        <ele>107.468574</ele>
        <time>2022-12-13T17:49:38.901Z</time>
      </trkpt>
      <trkpt lat="47.95775" lon="-2.54658">
        <ele>107.658792</ele>
        <time>2022-12-13T17:49:41.909Z</time>
      </trkpt>
      <trkpt lat="47.95766" lon="-2.5466">
        <ele>107.844494</ele>
        <time>2022-12-13T17:49:44.924Z</time>
      </trkpt>
      <trkpt lat="47.95755" lon="-2.54663">
        <ele>108.070012</ele>
        <time>2022-12-13T17:49:48.922Z</time>
      </trkpt>
      <trkpt lat="47.95745" lon="-2.54664">
        <ele>108.280841</ele>
        <time>2022-12-13T17:49:52.916Z</time>
      </trkpt>
      <trkpt lat="47.95733" lon="-2.54664">
        <ele>108.521717</ele>
        <time>2022-12-13T17:49:56.915Z</time>
      </trkpt>
      <trkpt lat="47.95721" lon="-2.54665">
        <ele>108.756859</ele>
        <time>2022-12-13T17:50:00.915Z</time>
      </trkpt>
      <trkpt lat="47.95711" lon="-2.54665">
        <ele>108.971298</ele>
        <time>2022-12-13T17:50:04.915Z</time>
      </trkpt>
      <trkpt lat="47.95699" lon="-2.54667">
        <ele>109.207685</ele>
        <time>2022-12-13T17:50:08.931Z</time>
      </trkpt>
      <trkpt lat="47.95689" lon="-2.54672">
        <ele>109.417037</ele>
        <time>2022-12-13T17:50:12.920Z</time>
      </trkpt>
      <trkpt lat="47.95679" lon="-2.54679">
        <ele>109.643451</ele>
        <time>2022-12-13T17:50:16.898Z</time>
      </trkpt>
      <trkpt lat="47.95669" lon="-2.54688">
        <ele>109.876232</ele>
        <time>2022-12-13T17:50:20.920Z</time>
      </trkpt>
      <trkpt lat="47.9566" lon="-2.54697">
        <ele>110.108472</ele>
        <time>2022-12-13T17:50:24.914Z</time>
      </trkpt>
      <trkpt lat="47.9565" lon="-2.54706">
        <ele>110.342948</ele>
        <time>2022-12-13T17:50:28.898Z</time>
      </trkpt>
      <trkpt lat="47.95642" lon="-2.54717">
        <ele>110.558421</ele>
        <time>2022-12-13T17:50:33.916Z</time>
      </trkpt>
      <trkpt lat="47.95634" lon="-2.54727">
        <ele>110.772696</ele>
        <time>2022-12-13T17:50:39.909Z</time>
      </trkpt>
      <trkpt lat="47.95626" lon="-2.54735">
        <ele>110.964292</ele>
        <time>2022-12-13T17:50:44.914Z</time>
      </trkpt>
      <trkpt lat="47.95618" lon="-2.54741">
        <ele>111.080565</ele>
        <time>2022-12-13T17:50:52.900Z</time>
      </trkpt>
      <trkpt lat="47.95611" lon="-2.54751">
        <ele>111.092015</ele>
        <time>2022-12-13T17:51:12.899Z</time>
      </trkpt>
      <trkpt lat="47.95603" lon="-2.5476">
        <ele>111.104805</ele>
        <time>2022-12-13T17:51:22.903Z</time>
      </trkpt>
      <trkpt lat="47.95592" lon="-2.54763">
        <ele>111.118465</ele>
        <time>2022-12-13T17:51:28.908Z</time>
      </trkpt>
      <trkpt lat="47.95583" lon="-2.54764">
        <ele>111.130011</ele>
        <time>2022-12-13T17:51:32.906Z</time>
      </trkpt>
      <trkpt lat="47.95573" lon="-2.54765">
        <ele>111.142047</ele>
        <time>2022-12-13T17:51:37.902Z</time>
      </trkpt>
      <trkpt lat="47.95564" lon="-2.54766">
        <ele>111.153357</ele>
        <time>2022-12-13T17:51:41.911Z</time>
      </trkpt>
      <trkpt lat="47.95555" lon="-2.54767">
        <ele>111.165541</ele>
        <time>2022-12-13T17:51:45.917Z</time>
      </trkpt>
      <trkpt lat="47.95544" lon="-2.54763">
        <ele>111.178963</ele>
        <time>2022-12-13T17:51:49.919Z</time>
      </trkpt>
      <trkpt lat="47.95535" lon="-2.54758">
        <ele>111.191043</ele>
        <time>2022-12-13T17:51:53.916Z</time>
      </trkpt>
      <trkpt lat="47.95525" lon="-2.54759">
        <ele>111.204321</ele>
        <time>2022-12-13T17:51:57.926Z</time>
      </trkpt>
      <trkpt lat="47.95514" lon="-2.54758">
        <ele>111.216997</ele>
        <time>2022-12-13T17:52:01.902Z</time>
      </trkpt>
      <trkpt lat="47.95503" lon="-2.54757">
        <ele>111.230904</ele>
        <time>2022-12-13T17:52:06.922Z</time>
      </trkpt>
      <trkpt lat="47.95494" lon="-2.54756">
        <ele>111.242339</ele>
        <time>2022-12-13T17:52:10.898Z</time>
      </trkpt>
      <trkpt lat="47.95485" lon="-2.54755">
        <ele>111.253991</ele>
        <time>2022-12-13T17:52:14.925Z</time>
      </trkpt>
      <trkpt lat="47.95475" lon="-2.54755">
        <ele>111.265888</ele>
        <time>2022-12-13T17:52:18.919Z</time>
      </trkpt>
      <trkpt lat="47.95466" lon="-2.54754">
        <ele>111.278053</ele>
        <time>2022-12-13T17:52:22.900Z</time>
      </trkpt>
      <trkpt lat="47.95456" lon="-2.54753">
        <ele>111.289834</ele>
        <time>2022-12-13T17:52:26.916Z</time>
      </trkpt>
      <trkpt lat="47.95447" lon="-2.54757">
        <ele>111.25319</ele>
        <time>2022-12-13T17:52:30.926Z</time>
      </trkpt>
      <trkpt lat="47.95436" lon="-2.54757">
        <ele>110.54455</ele>
        <time>2022-12-13T17:52:34.897Z</time>
      </trkpt>
      <trkpt lat="47.95425" lon="-2.54756">
        <ele>109.879633</ele>
        <time>2022-12-13T17:52:38.910Z</time>
      </trkpt>
      <trkpt lat="47.95416" lon="-2.54754">
        <ele>109.297287</ele>
        <time>2022-12-13T17:52:41.900Z</time>
      </trkpt>
      <trkpt lat="47.95406" lon="-2.54754">
        <ele>108.677446</ele>
        <time>2022-12-13T17:52:45.919Z</time>
      </trkpt>
      <trkpt lat="47.95399" lon="-2.54763">
        <ele>108.061617</ele>
        <time>2022-12-13T17:52:49.904Z</time>
      </trkpt>
      <trkpt lat="47.95388" lon="-2.54765">
        <ele>107.394732</ele>
        <time>2022-12-13T17:52:54.910Z</time>
      </trkpt>
      <trkpt lat="47.95379" lon="-2.54764">
        <ele>106.797296</ele>
        <time>2022-12-13T17:52:58.897Z</time>
      </trkpt>
      <trkpt lat="47.95369" lon="-2.54764">
        <ele>106.190029</ele>
        <time>2022-12-13T17:53:02.898Z</time>
      </trkpt>
      <trkpt lat="47.95359" lon="-2.54766">
        <ele>105.547687</ele>
        <time>2022-12-13T17:53:07.904Z</time>
      </trkpt>
      <trkpt lat="47.95356" lon="-2.54781">
        <ele>104.867707</ele>
        <time>2022-12-13T17:53:12.898Z</time>
      </trkpt>
      <trkpt lat="47.95349" lon="-2.5479">
        <ele>104.269414</ele>
        <time>2022-12-13T17:53:16.902Z</time>
      </trkpt>
      <trkpt lat="47.9534" lon="-2.54792">
        <ele>103.691273</ele>
        <time>2022-12-13T17:53:20.916Z</time>
      </trkpt>
      <trkpt lat="47.95331" lon="-2.54793">
        <ele>103.106422</ele>
        <time>2022-12-13T17:53:28.901Z</time>
      </trkpt>
      <trkpt lat="47.95327" lon="-2.5478">
        <ele>102.519238</ele>
        <time>2022-12-13T17:54:03.900Z</time>
      </trkpt>
      <trkpt lat="47.95327" lon="-2.54765">
        <ele>101.896473</ele>
        <time>2022-12-13T17:54:07.919Z</time>
      </trkpt>
      <trkpt lat="47.95322" lon="-2.54751">
        <ele>101.196064</ele>
        <time>2022-12-13T17:54:11.923Z</time>
      </trkpt>
      <trkpt lat="47.9532" lon="-2.54735">
        <ele>100.510823</ele>
        <time>2022-12-13T17:54:15.918Z</time>
      </trkpt>
      <trkpt lat="47.9532" lon="-2.54718">
        <ele>99.835497</ele>
        <time>2022-12-13T17:54:19.916Z</time>
      </trkpt>
      <trkpt lat="47.95321" lon="-2.54704">
        <ele>99.318216</ele>
        <time>2022-12-13T17:54:22.924Z</time>
      </trkpt>
      <trkpt lat="47.95318" lon="-2.5469">
        <ele>98.81409</ele>
        <time>2022-12-13T17:54:25.915Z</time>
      </trkpt>
      <trkpt lat="47.95317" lon="-2.54675">
        <ele>98.295562</ele>
        <time>2022-12-13T17:54:28.905Z</time>
      </trkpt>
      <trkpt lat="47.95315" lon="-2.5466">
        <ele>97.784199</ele>
        <time>2022-12-13T17:54:31.899Z</time>
      </trkpt>
      <trkpt lat="47.95313" lon="-2.54646">
        <ele>97.276696</ele>
        <time>2022-12-13T17:54:34.926Z</time>
      </trkpt>
      <trkpt lat="47.95311" lon="-2.54633">
        <ele>96.808744</ele>
        <time>2022-12-13T17:54:37.900Z</time>
      </trkpt>
      <trkpt lat="47.9531" lon="-2.54617">
        <ele>96.236462</ele>
        <time>2022-12-13T17:54:41.898Z</time>
      </trkpt>
      <trkpt lat="47.95309" lon="-2.54601">
        <ele>95.700262</ele>
        <time>2022-12-13T17:54:45.930Z</time>
      </trkpt>
      <trkpt lat="47.95306" lon="-2.54584">
        <ele>95.092915</ele>
        <time>2022-12-13T17:54:49.913Z</time>
      </trkpt>
      <trkpt lat="47.95301" lon="-2.54567">
        <ele>94.448209</ele>
        <time>2022-12-13T17:54:52.896Z</time>
      </trkpt>
      <trkpt lat="47.95298" lon="-2.54553">
        <ele>93.918908</ele>
        <time>2022-12-13T17:54:54.920Z</time>
      </trkpt>
      <trkpt lat="47.95294" lon="-2.54538">
        <ele>93.390018</ele>
        <time>2022-12-13T17:54:56.925Z</time>
      </trkpt>
      <trkpt lat="47.9529" lon="-2.54521">
        <ele>92.744243</ele>
        <time>2022-12-13T17:54:59.928Z</time>
      </trkpt>
      <trkpt lat="47.95286" lon="-2.54506">
        <ele>92.178798</ele>
        <time>2022-12-13T17:55:02.911Z</time>
      </trkpt>
      <trkpt lat="47.95282" lon="-2.54492">
        <ele>91.651844</ele>
        <time>2022-12-13T17:55:05.908Z</time>
      </trkpt>
      <trkpt lat="47.95271" lon="-2.54488">
        <ele>91.088023</ele>
        <time>2022-12-13T17:55:10.924Z</time>
      </trkpt>
      <trkpt lat="47.95262" lon="-2.54493">
        <ele>90.560301</ele>
        <time>2022-12-13T17:55:14.914Z</time>
      </trkpt>
      <trkpt lat="47.95252" lon="-2.54498">
        <ele>89.940195</ele>
        <time>2022-12-13T17:55:17.898Z</time>
      </trkpt>
      <trkpt lat="47.95243" lon="-2.54503">
        <ele>89.291344</ele>
        <time>2022-12-13T17:55:20.909Z</time>
      </trkpt>
      <trkpt lat="47.95233" lon="-2.54509">
        <ele>88.648567</ele>
        <time>2022-12-13T17:55:23.912Z</time>
      </trkpt>
      <trkpt lat="47.95223" lon="-2.54513">
        <ele>87.993711</ele>
        <time>2022-12-13T17:55:26.918Z</time>
      </trkpt>
      <trkpt lat="47.95213" lon="-2.54519">
        <ele>87.324851</ele>
        <time>2022-12-13T17:55:29.901Z</time>
      </trkpt>
      <trkpt lat="47.95202" lon="-2.54525">
        <ele>86.533456</ele>
        <time>2022-12-13T17:55:32.897Z</time>
      </trkpt>
      <trkpt lat="47.9519" lon="-2.54532">
        <ele>85.736136</ele>
        <time>2022-12-13T17:55:35.898Z</time>
      </trkpt>
      <trkpt lat="47.95179" lon="-2.54538">
        <ele>84.986922</ele>
        <time>2022-12-13T17:55:38.905Z</time>
      </trkpt>
      <trkpt lat="47.95168" lon="-2.54542">
        <ele>84.311587</ele>
        <time>2022-12-13T17:55:41.898Z</time>
      </trkpt>
      <trkpt lat="47.95158" lon="-2.54546">
        <ele>83.636654</ele>
        <time>2022-12-13T17:55:44.899Z</time>
      </trkpt>
      <trkpt lat="47.95147" lon="-2.54552">
        <ele>82.936827</ele>
        <time>2022-12-13T17:55:48.915Z</time>
      </trkpt>
      <trkpt lat="47.95139" lon="-2.54558">
        <ele>82.327285</ele>
        <time>2022-12-13T17:55:52.904Z</time>
      </trkpt>
      <trkpt lat="47.95132" lon="-2.54567">
        <ele>81.75129</ele>
        <time>2022-12-13T17:55:56.929Z</time>
      </trkpt>
      <trkpt lat="47.95125" lon="-2.54581">
        <ele>81.02847</ele>
        <time>2022-12-13T17:56:00.928Z</time>
      </trkpt>
      <trkpt lat="47.95122" lon="-2.54594">
        <ele>80.45592</ele>
        <time>2022-12-13T17:56:03.899Z</time>
      </trkpt>
      <trkpt lat="47.95108" lon="-2.54593">
        <ele>79.567005</ele>
        <time>2022-12-13T17:56:47.933Z</time>
      </trkpt>
      <trkpt lat="47.95099" lon="-2.54587">
        <ele>79.116106</ele>
        <time>2022-12-13T17:56:54.906Z</time>
      </trkpt>
      <trkpt lat="47.95092" lon="-2.54578">
        <ele>78.842038</ele>
        <time>2022-12-13T17:57:00.900Z</time>
      </trkpt>
      <trkpt lat="47.95084" lon="-2.54569">
        <ele>78.529512</ele>
        <time>2022-12-13T17:57:04.931Z</time>
      </trkpt>
      <trkpt lat="47.95077" lon="-2.5456">
        <ele>78.255197</ele>
        <time>2022-12-13T17:57:07.929Z</time>
      </trkpt>
      <trkpt lat="47.95069" lon="-2.54551">
        <ele>77.965731</ele>
        <time>2022-12-13T17:57:10.928Z</time>
      </trkpt>
      <trkpt lat="47.9506" lon="-2.54541">
        <ele>77.624574</ele>
        <time>2022-12-13T17:57:14.950Z</time>
      </trkpt>
      <trkpt lat="47.95052" lon="-2.54532">
        <ele>77.326469</ele>
        <time>2022-12-13T17:57:18.928Z</time>
      </trkpt>
      <trkpt lat="47.95043" lon="-2.54524">
        <ele>77.006153</ele>
        <time>2022-12-13T17:57:23.904Z</time>
      </trkpt>
      <trkpt lat="47.95028" lon="-2.54509">
        <ele>76.460232</ele>
        <time>2022-12-13T17:59:12.922Z</time>
      </trkpt>
      <trkpt lat="47.9502" lon="-2.545">
        <ele>76.160772</ele>
        <time>2022-12-13T17:59:16.924Z</time>
      </trkpt>
      <trkpt lat="47.95011" lon="-2.5449">
        <ele>75.835123</ele>
        <time>2022-12-13T17:59:20.928Z</time>
      </trkpt>
      <trkpt lat="47.95005" lon="-2.5448">
        <ele>75.549709</ele>
        <time>2022-12-13T17:59:23.927Z</time>
      </trkpt>
      <trkpt lat="47.94998" lon="-2.54471">
        <ele>75.27995</ele>
        <time>2022-12-13T17:59:26.930Z</time>
      </trkpt>
      <trkpt lat="47.9499" lon="-2.54463">
        <ele>74.995258</ele>
        <time>2022-12-13T17:59:29.913Z</time>
      </trkpt>
      <trkpt lat="47.94982" lon="-2.54453">
        <ele>74.668136</ele>
        <time>2022-12-13T17:59:32.913Z</time>
      </trkpt>
      <trkpt lat="47.94972" lon="-2.54442">
        <ele>74.295793</ele>
        <time>2022-12-13T17:59:35.928Z</time>
      </trkpt>
      <trkpt lat="47.94962" lon="-2.5443">
        <ele>73.919778</ele>
        <time>2022-12-13T17:59:38.932Z</time>
      </trkpt>
      <trkpt lat="47.94952" lon="-2.54419">
        <ele>73.919552</ele>
        <time>2022-12-13T17:59:41.903Z</time>
      </trkpt>
      <trkpt lat="47.94942" lon="-2.54408">
        <ele>73.983462</ele>
        <time>2022-12-13T17:59:44.923Z</time>
      </trkpt>
      <trkpt lat="47.94931" lon="-2.54397">
        <ele>74.047282</ele>
        <time>2022-12-13T17:59:47.923Z</time>
      </trkpt>
      <trkpt lat="47.94922" lon="-2.54387">
        <ele>74.108</ele>
        <time>2022-12-13T17:59:50.901Z</time>
      </trkpt>
      <trkpt lat="47.94912" lon="-2.54379">
        <ele>74.166454</ele>
        <time>2022-12-13T17:59:53.918Z</time>
      </trkpt>
      <trkpt lat="47.94902" lon="-2.54372">
        <ele>74.218303</ele>
        <time>2022-12-13T17:59:56.929Z</time>
      </trkpt>
      <trkpt lat="47.94892" lon="-2.54365">
        <ele>74.27751</ele>
        <time>2022-12-13T17:59:59.906Z</time>
      </trkpt>
      <trkpt lat="47.9488" lon="-2.54358">
        <ele>74.343202</ele>
        <time>2022-12-13T18:00:02.929Z</time>
      </trkpt>
      <trkpt lat="47.94869" lon="-2.5435">
        <ele>74.404078</ele>
        <time>2022-12-13T18:00:05.925Z</time>
      </trkpt>
      <trkpt lat="47.94859" lon="-2.54343">
        <ele>74.460926</ele>
        <time>2022-12-13T18:00:08.929Z</time>
      </trkpt>
      <trkpt lat="47.94849" lon="-2.54337">
        <ele>74.513282</ele>
        <time>2022-12-13T18:00:11.923Z</time>
      </trkpt>
      <trkpt lat="47.94839" lon="-2.5433">
        <ele>74.571558</ele>
        <time>2022-12-13T18:00:14.940Z</time>
      </trkpt>
      <trkpt lat="47.94828" lon="-2.54322">
        <ele>74.63134</ele>
        <time>2022-12-13T18:00:17.925Z</time>
      </trkpt>
      <trkpt lat="47.94816" lon="-2.54314">
        <ele>74.700371</ele>
        <time>2022-12-13T18:00:20.923Z</time>
      </trkpt>
      <trkpt lat="47.94805" lon="-2.54305">
        <ele>74.766015</ele>
        <time>2022-12-13T18:00:23.932Z</time>
      </trkpt>
      <trkpt lat="47.94793" lon="-2.54297">
        <ele>74.716205</ele>
        <time>2022-12-13T18:00:26.928Z</time>
      </trkpt>
      <trkpt lat="47.94782" lon="-2.54289">
        <ele>74.632474</ele>
        <time>2022-12-13T18:00:29.909Z</time>
      </trkpt>
      <trkpt lat="47.94771" lon="-2.54282">
        <ele>74.55267</ele>
        <time>2022-12-13T18:00:32.910Z</time>
      </trkpt>
      <trkpt lat="47.9476" lon="-2.54276">
        <ele>74.476278</ele>
        <time>2022-12-13T18:00:35.900Z</time>
      </trkpt>
      <trkpt lat="47.94748" lon="-2.54271">
        <ele>74.394735</ele>
        <time>2022-12-13T18:00:38.904Z</time>
      </trkpt>
      <trkpt lat="47.94738" lon="-2.54264">
        <ele>74.322161</ele>
        <time>2022-12-13T18:00:41.901Z</time>
      </trkpt>
      <trkpt lat="47.94729" lon="-2.54257">
        <ele>74.257584</ele>
        <time>2022-12-13T18:00:44.928Z</time>
      </trkpt>
      <trkpt lat="47.94721" lon="-2.54251">
        <ele>74.193626</ele>
        <time>2022-12-13T18:00:47.905Z</time>
      </trkpt>
      <trkpt lat="47.94711" lon="-2.54243">
        <ele>74.124293</ele>
        <time>2022-12-13T18:00:50.902Z</time>
      </trkpt>
      <trkpt lat="47.94703" lon="-2.54237">
        <ele>74.058563</ele>
        <time>2022-12-13T18:00:53.906Z</time>
      </trkpt>
      <trkpt lat="47.94693" lon="-2.5423">
        <ele>73.990661</ele>
        <time>2022-12-13T18:00:56.923Z</time>
      </trkpt>
      <trkpt lat="47.94686" lon="-2.54223">
        <ele>73.930691</ele>
        <time>2022-12-13T18:00:58.924Z</time>
      </trkpt>
      <trkpt lat="47.94677" lon="-2.54215">
        <ele>73.862204</ele>
        <time>2022-12-13T18:01:01.911Z</time>
      </trkpt>
      <trkpt lat="47.94666" lon="-2.54208">
        <ele>73.786802</ele>
        <time>2022-12-13T18:01:04.928Z</time>
      </trkpt>
      <trkpt lat="47.94656" lon="-2.54201">
        <ele>73.710664</ele>
        <time>2022-12-13T18:01:07.928Z</time>
      </trkpt>
      <trkpt lat="47.94647" lon="-2.54194">
        <ele>73.646906</ele>
        <time>2022-12-13T18:01:09.922Z</time>
      </trkpt>
      <trkpt lat="47.94635" lon="-2.54184">
        <ele>73.684953</ele>
        <time>2022-12-13T18:01:12.900Z</time>
      </trkpt>
      <trkpt lat="47.94627" lon="-2.54177">
        <ele>73.850483</ele>
        <time>2022-12-13T18:01:14.899Z</time>
      </trkpt>
      <trkpt lat="47.94619" lon="-2.5417">
        <ele>74.0085</ele>
        <time>2022-12-13T18:01:16.903Z</time>
      </trkpt>
      <trkpt lat="47.94609" lon="-2.54162">
        <ele>74.192362</ele>
        <time>2022-12-13T18:01:19.899Z</time>
      </trkpt>
      <trkpt lat="47.94598" lon="-2.54152">
        <ele>74.418082</ele>
        <time>2022-12-13T18:01:22.910Z</time>
      </trkpt>
      <trkpt lat="47.94586" lon="-2.54143">
        <ele>74.645847</ele>
        <time>2022-12-13T18:01:25.902Z</time>
      </trkpt>
      <trkpt lat="47.94576" lon="-2.54134">
        <ele>74.852196</ele>
        <time>2022-12-13T18:01:28.919Z</time>
      </trkpt>
      <trkpt lat="47.94565" lon="-2.54124">
        <ele>75.072637</ele>
        <time>2022-12-13T18:01:31.928Z</time>
      </trkpt>
      <trkpt lat="47.94555" lon="-2.54116">
        <ele>75.266623</ele>
        <time>2022-12-13T18:01:34.923Z</time>
      </trkpt>
      <trkpt lat="47.94545" lon="-2.54107">
        <ele>75.465337</ele>
        <time>2022-12-13T18:01:37.919Z</time>
      </trkpt>
      <trkpt lat="47.94535" lon="-2.54097">
        <ele>75.682253</ele>
        <time>2022-12-13T18:01:40.921Z</time>
      </trkpt>
      <trkpt lat="47.94525" lon="-2.5409">
        <ele>75.865335</ele>
        <time>2022-12-13T18:01:43.917Z</time>
      </trkpt>
      <trkpt lat="47.94515" lon="-2.54084">
        <ele>76.04446</ele>
        <time>2022-12-13T18:01:46.904Z</time>
      </trkpt>
      <trkpt lat="47.94506" lon="-2.54076">
        <ele>76.225694</ele>
        <time>2022-12-13T18:01:49.905Z</time>
      </trkpt>
      <trkpt lat="47.94496" lon="-2.54069">
        <ele>76.418016</ele>
        <time>2022-12-13T18:01:52.921Z</time>
      </trkpt>
      <trkpt lat="47.94486" lon="-2.54062">
        <ele>76.601669</ele>
        <time>2022-12-13T18:01:54.922Z</time>
      </trkpt>
      <trkpt lat="47.94477" lon="-2.54055">
        <ele>76.63414</ele>
        <time>2022-12-13T18:01:56.924Z</time>
      </trkpt>
      <trkpt lat="47.94468" lon="-2.54049">
        <ele>76.559349</ele>
        <time>2022-12-13T18:01:58.924Z</time>
      </trkpt>
      <trkpt lat="47.94458" lon="-2.54042">
        <ele>76.476509</ele>
        <time>2022-12-13T18:02:01.928Z</time>
      </trkpt>
      <trkpt lat="47.94448" lon="-2.54036">
        <ele>76.396992</ele>
        <time>2022-12-13T18:02:04.911Z</time>
      </trkpt>
      <trkpt lat="47.94437" lon="-2.54029">
        <ele>76.299594</ele>
        <time>2022-12-13T18:02:07.925Z</time>
      </trkpt>
      <trkpt lat="47.94425" lon="-2.54023">
        <ele>76.207786</ele>
        <time>2022-12-13T18:02:10.907Z</time>
      </trkpt>
      <trkpt lat="47.94412" lon="-2.54018">
        <ele>76.105559</ele>
        <time>2022-12-13T18:02:13.916Z</time>
      </trkpt>
      <trkpt lat="47.94403" lon="-2.54013">
        <ele>76.026029</ele>
        <time>2022-12-13T18:02:15.915Z</time>
      </trkpt>
      <trkpt lat="47.94393" lon="-2.54009">
        <ele>75.953101</ele>
        <time>2022-12-13T18:02:17.907Z</time>
      </trkpt>
      <trkpt lat="47.94384" lon="-2.54005">
        <ele>75.877822</ele>
        <time>2022-12-13T18:02:19.921Z</time>
      </trkpt>
      <trkpt lat="47.94372" lon="-2.54001">
        <ele>75.783348</ele>
        <time>2022-12-13T18:02:22.894Z</time>
      </trkpt>
      <trkpt lat="47.94362" lon="-2.54">
        <ele>75.705848</ele>
        <time>2022-12-13T18:02:25.917Z</time>
      </trkpt>
      <trkpt lat="47.9435" lon="-2.53998">
        <ele>75.618564</ele>
        <time>2022-12-13T18:02:28.925Z</time>
      </trkpt>
      <trkpt lat="47.94339" lon="-2.53996">
        <ele>75.534657</ele>
        <time>2022-12-13T18:02:31.919Z</time>
      </trkpt>
      <trkpt lat="47.94328" lon="-2.53994">
        <ele>75.449169</ele>
        <time>2022-12-13T18:02:34.912Z</time>
      </trkpt>
      <trkpt lat="47.94316" lon="-2.53991">
        <ele>75.353775</ele>
        <time>2022-12-13T18:02:37.920Z</time>
      </trkpt>
      <trkpt lat="47.94307" lon="-2.53988">
        <ele>75.247989</ele>
        <time>2022-12-13T18:02:39.924Z</time>
      </trkpt>
      <trkpt lat="47.94295" lon="-2.53984">
        <ele>75.003689</ele>
        <time>2022-12-13T18:02:42.908Z</time>
      </trkpt>
      <trkpt lat="47.94285" lon="-2.53979">
        <ele>74.78197</ele>
        <time>2022-12-13T18:02:44.922Z</time>
      </trkpt>
      <trkpt lat="47.94273" lon="-2.53973">
        <ele>74.525851</ele>
        <time>2022-12-13T18:02:47.925Z</time>
      </trkpt>
      <trkpt lat="47.94263" lon="-2.5397">
        <ele>74.337535</ele>
        <time>2022-12-13T18:02:49.902Z</time>
      </trkpt>
      <trkpt lat="47.94251" lon="-2.53965">
        <ele>74.08421</ele>
        <time>2022-12-13T18:02:52.920Z</time>
      </trkpt>
      <trkpt lat="47.94238" lon="-2.5396">
        <ele>73.805317</ele>
        <time>2022-12-13T18:02:55.926Z</time>
      </trkpt>
      <trkpt lat="47.94225" lon="-2.53955">
        <ele>73.544172</ele>
        <time>2022-12-13T18:02:58.917Z</time>
      </trkpt>
      <trkpt lat="47.94216" lon="-2.53951">
        <ele>73.355857</ele>
        <time>2022-12-13T18:03:00.899Z</time>
      </trkpt>
      <trkpt lat="47.94204" lon="-2.53945">
        <ele>73.103546</ele>
        <time>2022-12-13T18:03:03.900Z</time>
      </trkpt>
      <trkpt lat="47.94195" lon="-2.53941">
        <ele>72.919798</ele>
        <time>2022-12-13T18:03:05.927Z</time>
      </trkpt>
      <trkpt lat="47.94187" lon="-2.53937">
        <ele>72.739205</ele>
        <time>2022-12-13T18:03:07.921Z</time>
      </trkpt>
      <trkpt lat="47.94174" lon="-2.53932">
        <ele>72.482272</ele>
        <time>2022-12-13T18:03:10.925Z</time>
      </trkpt>
      <trkpt lat="47.94163" lon="-2.53928">
        <ele>72.25447</ele>
        <time>2022-12-13T18:03:13.905Z</time>
      </trkpt>
      <trkpt lat="47.94153" lon="-2.53923">
        <ele>72.042443</ele>
        <time>2022-12-13T18:03:16.928Z</time>
      </trkpt>
      <trkpt lat="47.94143" lon="-2.53919">
        <ele>71.833418</ele>
        <time>2022-12-13T18:03:19.926Z</time>
      </trkpt>
      <trkpt lat="47.94132" lon="-2.53914">
        <ele>71.736397</ele>
        <time>2022-12-13T18:03:22.927Z</time>
      </trkpt>
      <trkpt lat="47.94121" lon="-2.53908">
        <ele>71.801392</ele>
        <time>2022-12-13T18:03:25.921Z</time>
      </trkpt>
      <trkpt lat="47.9411" lon="-2.53903">
        <ele>71.862483</ele>
        <time>2022-12-13T18:03:28.927Z</time>
      </trkpt>
      <trkpt lat="47.94099" lon="-2.53897">
        <ele>71.923542</ele>
        <time>2022-12-13T18:03:31.927Z</time>
      </trkpt>
      <trkpt lat="47.94089" lon="-2.53892">
        <ele>71.978865</ele>
        <time>2022-12-13T18:03:34.915Z</time>
      </trkpt>
      <trkpt lat="47.94078" lon="-2.53886">
        <ele>72.041203</ele>
        <time>2022-12-13T18:03:37.929Z</time>
      </trkpt>
      <trkpt lat="47.94067" lon="-2.53881">
        <ele>72.102775</ele>
        <time>2022-12-13T18:03:40.929Z</time>
      </trkpt>
      <trkpt lat="47.94056" lon="-2.53876">
        <ele>72.168</ele>
        <time>2022-12-13T18:03:43.912Z</time>
      </trkpt>
      <trkpt lat="47.94044" lon="-2.53869">
        <ele>72.234474</ele>
        <time>2022-12-13T18:03:46.901Z</time>
      </trkpt>
      <trkpt lat="47.94032" lon="-2.53863">
        <ele>72.304341</ele>
        <time>2022-12-13T18:03:49.927Z</time>
      </trkpt>
      <trkpt lat="47.94021" lon="-2.53857">
        <ele>72.368205</ele>
        <time>2022-12-13T18:03:52.919Z</time>
      </trkpt>
      <trkpt lat="47.94009" lon="-2.53853">
        <ele>72.430417</ele>
        <time>2022-12-13T18:03:55.920Z</time>
      </trkpt>
      <trkpt lat="47.93997" lon="-2.53848">
        <ele>72.498277</ele>
        <time>2022-12-13T18:03:58.922Z</time>
      </trkpt>
      <trkpt lat="47.93986" lon="-2.53844">
        <ele>72.562474</ele>
        <time>2022-12-13T18:04:01.926Z</time>
      </trkpt>
      <trkpt lat="47.93973" lon="-2.53841">
        <ele>72.631971</ele>
        <time>2022-12-13T18:04:04.912Z</time>
      </trkpt>
      <trkpt lat="47.93961" lon="-2.53838">
        <ele>72.671024</ele>
        <time>2022-12-13T18:04:07.913Z</time>
      </trkpt>
      <trkpt lat="47.93948" lon="-2.53836">
        <ele>72.663087</ele>
        <time>2022-12-13T18:04:10.921Z</time>
      </trkpt>
      <trkpt lat="47.93936" lon="-2.53835">
        <ele>72.654929</ele>
        <time>2022-12-13T18:04:13.907Z</time>
      </trkpt>
      <trkpt lat="47.93922" lon="-2.53834">
        <ele>72.646525</ele>
        <time>2022-12-13T18:04:16.926Z</time>
      </trkpt>
      <trkpt lat="47.93909" lon="-2.53833">
        <ele>72.6383</ele>
        <time>2022-12-13T18:04:19.918Z</time>
      </trkpt>
      <trkpt lat="47.93896" lon="-2.53831">
        <ele>72.63019</ele>
        <time>2022-12-13T18:04:22.904Z</time>
      </trkpt>
      <trkpt lat="47.93883" lon="-2.53828">
        <ele>72.621553</ele>
        <time>2022-12-13T18:04:25.928Z</time>
      </trkpt>
      <trkpt lat="47.93874" lon="-2.53827">
        <ele>72.615726</ele>
        <time>2022-12-13T18:04:27.922Z</time>
      </trkpt>
      <trkpt lat="47.93864" lon="-2.53822">
        <ele>72.609132</ele>
        <time>2022-12-13T18:04:29.928Z</time>
      </trkpt>
      <trkpt lat="47.93854" lon="-2.53819">
        <ele>72.603016</ele>
        <time>2022-12-13T18:04:31.903Z</time>
      </trkpt>
      <trkpt lat="47.93845" lon="-2.53815">
        <ele>72.596919</ele>
        <time>2022-12-13T18:04:33.928Z</time>
      </trkpt>
      <trkpt lat="47.93835" lon="-2.53808">
        <ele>72.589797</ele>
        <time>2022-12-13T18:04:36.915Z</time>
      </trkpt>
      <trkpt lat="47.93824" lon="-2.538">
        <ele>72.582015</ele>
        <time>2022-12-13T18:04:39.918Z</time>
      </trkpt>
      <trkpt lat="47.93813" lon="-2.53789">
        <ele>72.57386</ele>
        <time>2022-12-13T18:04:42.920Z</time>
      </trkpt>
      <trkpt lat="47.93803" lon="-2.53778">
        <ele>72.565638</ele>
        <time>2022-12-13T18:04:45.929Z</time>
      </trkpt>
      <trkpt lat="47.93795" lon="-2.5377">
        <ele>72.561109</ele>
        <time>2022-12-13T18:04:47.924Z</time>
      </trkpt>
      <trkpt lat="47.93784" lon="-2.53759">
        <ele>72.590689</ele>
        <time>2022-12-13T18:04:50.929Z</time>
      </trkpt>
      <trkpt lat="47.93774" lon="-2.53748">
        <ele>72.618847</ele>
        <time>2022-12-13T18:04:53.911Z</time>
      </trkpt>
      <trkpt lat="47.93765" lon="-2.53738">
        <ele>72.644459</ele>
        <time>2022-12-13T18:04:56.923Z</time>
      </trkpt>
      <trkpt lat="47.93755" lon="-2.53728">
        <ele>72.671055</ele>
        <time>2022-12-13T18:04:59.925Z</time>
      </trkpt>
      <trkpt lat="47.93746" lon="-2.53718">
        <ele>72.697744</ele>
        <time>2022-12-13T18:05:02.924Z</time>
      </trkpt>
      <trkpt lat="47.93737" lon="-2.53709">
        <ele>72.7222</ele>
        <time>2022-12-13T18:05:05.909Z</time>
      </trkpt>
      <trkpt lat="47.93727" lon="-2.53699">
        <ele>72.747541</ele>
        <time>2022-12-13T18:05:08.916Z</time>
      </trkpt>
      <trkpt lat="47.93717" lon="-2.5369">
        <ele>72.774909</ele>
        <time>2022-12-13T18:05:11.923Z</time>
      </trkpt>
      <trkpt lat="47.93707" lon="-2.53678">
        <ele>72.804671</ele>
        <time>2022-12-13T18:05:14.919Z</time>
      </trkpt>
      <trkpt lat="47.93696" lon="-2.53668">
        <ele>72.833414</ele>
        <time>2022-12-13T18:05:17.927Z</time>
      </trkpt>
      <trkpt lat="47.93687" lon="-2.53658">
        <ele>72.857853</ele>
        <time>2022-12-13T18:05:20.928Z</time>
      </trkpt>
      <trkpt lat="47.93677" lon="-2.53649">
        <ele>72.885107</ele>
        <time>2022-12-13T18:05:23.930Z</time>
      </trkpt>
      <trkpt lat="47.93666" lon="-2.53638">
        <ele>72.913523</ele>
        <time>2022-12-13T18:05:26.915Z</time>
      </trkpt>
      <trkpt lat="47.93659" lon="-2.5363">
        <ele>72.933974</ele>
        <time>2022-12-13T18:05:28.926Z</time>
      </trkpt>
      <trkpt lat="47.93651" lon="-2.53623">
        <ele>72.954881</ele>
        <time>2022-12-13T18:05:30.908Z</time>
      </trkpt>
      <trkpt lat="47.93641" lon="-2.53611">
        <ele>73.056284</ele>
        <time>2022-12-13T18:05:33.923Z</time>
      </trkpt>
      <trkpt lat="47.93631" lon="-2.536">
        <ele>73.21178</ele>
        <time>2022-12-13T18:05:36.925Z</time>
      </trkpt>
      <trkpt lat="47.93622" lon="-2.5359">
        <ele>73.35012</ele>
        <time>2022-12-13T18:05:39.921Z</time>
      </trkpt>
      <trkpt lat="47.93613" lon="-2.53581">
        <ele>73.482379</ele>
        <time>2022-12-13T18:05:42.929Z</time>
      </trkpt>
      <trkpt lat="47.93605" lon="-2.53572">
        <ele>73.596243</ele>
        <time>2022-12-13T18:05:45.925Z</time>
      </trkpt>
      <trkpt lat="47.93596" lon="-2.53563">
        <ele>73.726644</ele>
        <time>2022-12-13T18:05:49.924Z</time>
      </trkpt>
      <trkpt lat="47.93588" lon="-2.53555">
        <ele>73.841271</ele>
        <time>2022-12-13T18:05:53.899Z</time>
      </trkpt>
      <trkpt lat="47.93581" lon="-2.53548">
        <ele>73.95197</ele>
        <time>2022-12-13T18:05:58.904Z</time>
      </trkpt>
      <trkpt lat="47.93571" lon="-2.53542">
        <ele>74.076194</ele>
        <time>2022-12-13T18:06:03.911Z</time>
      </trkpt>
      <trkpt lat="47.93565" lon="-2.5353">
        <ele>74.197001</ele>
        <time>2022-12-13T18:06:17.906Z</time>
      </trkpt>
      <trkpt lat="47.93556" lon="-2.53523">
        <ele>74.32476</ele>
        <time>2022-12-13T18:06:22.918Z</time>
      </trkpt>
      <trkpt lat="47.93548" lon="-2.53515">
        <ele>74.436661</ele>
        <time>2022-12-13T18:06:29.907Z</time>
      </trkpt>
      <trkpt lat="47.9354" lon="-2.53506">
        <ele>74.559232</ele>
        <time>2022-12-13T18:06:33.926Z</time>
      </trkpt>
      <trkpt lat="47.93532" lon="-2.53494">
        <ele>74.696748</ele>
        <time>2022-12-13T18:06:37.928Z</time>
      </trkpt>
      <trkpt lat="47.93527" lon="-2.53481">
        <ele>74.820543</ele>
        <time>2022-12-13T18:06:41.899Z</time>
      </trkpt>
      <trkpt lat="47.93522" lon="-2.53465">
        <ele>74.960807</ele>
        <time>2022-12-13T18:06:45.902Z</time>
      </trkpt>
      <trkpt lat="47.93518" lon="-2.5345">
        <ele>75.088848</ele>
        <time>2022-12-13T18:06:49.919Z</time>
      </trkpt>
      <trkpt lat="47.93516" lon="-2.53435">
        <ele>75.15822</ele>
        <time>2022-12-13T18:06:52.915Z</time>
      </trkpt>
      <trkpt lat="47.93513" lon="-2.53419">
        <ele>75.189793</ele>
        <time>2022-12-13T18:06:55.904Z</time>
      </trkpt>
      <trkpt lat="47.93511" lon="-2.53405">
        <ele>75.217644</ele>
        <time>2022-12-13T18:06:58.910Z</time>
      </trkpt>
      <trkpt lat="47.93508" lon="-2.53388">
        <ele>75.25027</ele>
        <time>2022-12-13T18:07:01.920Z</time>
      </trkpt>
      <trkpt lat="47.93503" lon="-2.53372">
        <ele>75.283338</ele>
        <time>2022-12-13T18:07:04.905Z</time>
      </trkpt>
      <trkpt lat="47.93498" lon="-2.53356">
        <ele>75.317551</ele>
        <time>2022-12-13T18:07:07.912Z</time>
      </trkpt>
      <trkpt lat="47.93495" lon="-2.5334">
        <ele>75.34876</ele>
        <time>2022-12-13T18:07:10.912Z</time>
      </trkpt>
      <trkpt lat="47.93491" lon="-2.53323">
        <ele>75.384408</ele>
        <time>2022-12-13T18:07:13.929Z</time>
      </trkpt>
      <trkpt lat="47.93485" lon="-2.53306">
        <ele>75.420435</ele>
        <time>2022-12-13T18:07:16.906Z</time>
      </trkpt>
      <trkpt lat="47.93479" lon="-2.53291">
        <ele>75.452572</ele>
        <time>2022-12-13T18:07:19.913Z</time>
      </trkpt>
      <trkpt lat="47.93472" lon="-2.53276">
        <ele>75.488383</ele>
        <time>2022-12-13T18:07:22.926Z</time>
      </trkpt>
      <trkpt lat="47.93463" lon="-2.53264">
        <ele>75.522301</ele>
        <time>2022-12-13T18:07:25.926Z</time>
      </trkpt>
      <trkpt lat="47.93452" lon="-2.53254">
        <ele>75.557942</ele>
        <time>2022-12-13T18:07:28.919Z</time>
      </trkpt>
      <trkpt lat="47.93441" lon="-2.53243">
        <ele>75.59545</ele>
        <time>2022-12-13T18:07:31.927Z</time>
      </trkpt>
      <trkpt lat="47.93431" lon="-2.53234">
        <ele>75.628176</ele>
        <time>2022-12-13T18:07:34.922Z</time>
      </trkpt>
      <trkpt lat="47.93423" lon="-2.53225">
        <ele>75.63874</ele>
        <time>2022-12-13T18:07:37.922Z</time>
      </trkpt>
      <trkpt lat="47.93414" lon="-2.53218">
        <ele>75.595651</ele>
        <time>2022-12-13T18:07:40.922Z</time>
      </trkpt>
      <trkpt lat="47.93405" lon="-2.53211">
        <ele>75.550454</ele>
        <time>2022-12-13T18:07:43.921Z</time>
      </trkpt>
      <trkpt lat="47.93396" lon="-2.53203">
        <ele>75.501446</ele>
        <time>2022-12-13T18:07:46.923Z</time>
      </trkpt>
      <trkpt lat="47.93386" lon="-2.53194">
        <ele>75.449969</ele>
        <time>2022-12-13T18:07:49.925Z</time>
      </trkpt>
      <trkpt lat="47.93376" lon="-2.53185">
        <ele>75.397259</ele>
        <time>2022-12-13T18:07:52.937Z</time>
      </trkpt>
      <trkpt lat="47.93367" lon="-2.53175">
        <ele>75.347002</ele>
        <time>2022-12-13T18:07:55.925Z</time>
      </trkpt>
      <trkpt lat="47.9336" lon="-2.53164">
        <ele>75.3007</ele>
        <time>2022-12-13T18:07:58.925Z</time>
      </trkpt>
      <trkpt lat="47.93354" lon="-2.53154">
        <ele>75.259757</ele>
        <time>2022-12-13T18:08:01.901Z</time>
      </trkpt>
      <trkpt lat="47.93348" lon="-2.53143">
        <ele>75.217946</ele>
        <time>2022-12-13T18:08:04.901Z</time>
      </trkpt>
      <trkpt lat="47.93342" lon="-2.5313">
        <ele>75.170389</ele>
        <time>2022-12-13T18:08:07.923Z</time>
      </trkpt>
      <trkpt lat="47.93337" lon="-2.53117">
        <ele>75.124802</ele>
        <time>2022-12-13T18:08:10.924Z</time>
      </trkpt>
      <trkpt lat="47.93332" lon="-2.53102">
        <ele>75.075164</ele>
        <time>2022-12-13T18:08:13.924Z</time>
      </trkpt>
      <trkpt lat="47.93326" lon="-2.53086">
        <ele>75.020062</ele>
        <time>2022-12-13T18:08:16.924Z</time>
      </trkpt>
      <trkpt lat="47.9332" lon="-2.53071">
        <ele>74.966908</ele>
        <time>2022-12-13T18:08:19.919Z</time>
      </trkpt>
      <trkpt lat="47.93313" lon="-2.53056">
        <ele>74.910625</ele>
        <time>2022-12-13T18:08:22.909Z</time>
      </trkpt>
      <trkpt lat="47.93307" lon="-2.5304">
        <ele>74.857867</ele>
        <time>2022-12-13T18:08:25.904Z</time>
      </trkpt>
      <trkpt lat="47.93301" lon="-2.53024">
        <ele>74.687963</ele>
        <time>2022-12-13T18:08:28.921Z</time>
      </trkpt>
      <trkpt lat="47.93294" lon="-2.53009">
        <ele>74.473684</ele>
        <time>2022-12-13T18:08:31.917Z</time>
      </trkpt>
      <trkpt lat="47.93287" lon="-2.52994">
        <ele>74.262313</ele>
        <time>2022-12-13T18:08:34.924Z</time>
      </trkpt>
      <trkpt lat="47.93281" lon="-2.52979">
        <ele>74.054823</ele>
        <time>2022-12-13T18:08:37.924Z</time>
      </trkpt>
      <trkpt lat="47.93274" lon="-2.52963">
        <ele>73.834329</ele>
        <time>2022-12-13T18:08:40.922Z</time>
      </trkpt>
      <trkpt lat="47.93268" lon="-2.52949">
        <ele>73.642322</ele>
        <time>2022-12-13T18:08:43.923Z</time>
      </trkpt>
      <trkpt lat="47.93261" lon="-2.52936">
        <ele>73.444368</ele>
        <time>2022-12-13T18:08:46.928Z</time>
      </trkpt>
      <trkpt lat="47.93254" lon="-2.52922">
        <ele>73.231865</ele>
        <time>2022-12-13T18:08:49.904Z</time>
      </trkpt>
      <trkpt lat="47.93246" lon="-2.52908">
        <ele>73.023266</ele>
        <time>2022-12-13T18:08:52.929Z</time>
      </trkpt>
      <trkpt lat="47.93236" lon="-2.52896">
        <ele>72.807337</ele>
        <time>2022-12-13T18:08:55.928Z</time>
      </trkpt>
      <trkpt lat="47.93227" lon="-2.52885">
        <ele>72.592331</ele>
        <time>2022-12-13T18:08:58.927Z</time>
      </trkpt>
      <trkpt lat="47.93218" lon="-2.52875">
        <ele>72.397542</ele>
        <time>2022-12-13T18:09:01.928Z</time>
      </trkpt>
      <trkpt lat="47.93209" lon="-2.52866">
        <ele>72.215912</ele>
        <time>2022-12-13T18:09:04.927Z</time>
      </trkpt>
      <trkpt lat="47.932" lon="-2.52858">
        <ele>72.030089</ele>
        <time>2022-12-13T18:09:07.927Z</time>
      </trkpt>
      <trkpt lat="47.9319" lon="-2.52851">
        <ele>71.837171</ele>
        <time>2022-12-13T18:09:10.922Z</time>
      </trkpt>
      <trkpt lat="47.9318" lon="-2.52843">
        <ele>71.694465</ele>
        <time>2022-12-13T18:09:13.931Z</time>
      </trkpt>
      <trkpt lat="47.93172" lon="-2.52836">
        <ele>71.657786</ele>
        <time>2022-12-13T18:09:16.926Z</time>
      </trkpt>
      <trkpt lat="47.93164" lon="-2.52831">
        <ele>71.619754</ele>
        <time>2022-12-13T18:09:19.908Z</time>
      </trkpt>
      <trkpt lat="47.93154" lon="-2.52824">
        <ele>71.575188</ele>
        <time>2022-12-13T18:09:22.930Z</time>
      </trkpt>
      <trkpt lat="47.93143" lon="-2.52815">
        <ele>71.526322</ele>
        <time>2022-12-13T18:09:25.920Z</time>
      </trkpt>
      <trkpt lat="47.93132" lon="-2.52807">
        <ele>71.476254</ele>
        <time>2022-12-13T18:09:28.934Z</time>
      </trkpt>
      <trkpt lat="47.93124" lon="-2.52796">
        <ele>71.430697</ele>
        <time>2022-12-13T18:09:31.919Z</time>
      </trkpt>
      <trkpt lat="47.93117" lon="-2.52785">
        <ele>71.388381</ele>
        <time>2022-12-13T18:09:34.925Z</time>
      </trkpt>
      <trkpt lat="47.93111" lon="-2.52773">
        <ele>71.347965</ele>
        <time>2022-12-13T18:09:37.925Z</time>
      </trkpt>
      <trkpt lat="47.93106" lon="-2.52757">
        <ele>71.300998</ele>
        <time>2022-12-13T18:09:40.917Z</time>
      </trkpt>
      <trkpt lat="47.93102" lon="-2.52742">
        <ele>71.257387</ele>
        <time>2022-12-13T18:09:43.928Z</time>
      </trkpt>
      <trkpt lat="47.93099" lon="-2.52729">
        <ele>71.219877</ele>
        <time>2022-12-13T18:09:46.933Z</time>
      </trkpt>
      <trkpt lat="47.93098" lon="-2.52713">
        <ele>71.177153</ele>
        <time>2022-12-13T18:09:49.904Z</time>
      </trkpt>
      <trkpt lat="47.93097" lon="-2.52695">
        <ele>71.126244</ele>
        <time>2022-12-13T18:09:52.927Z</time>
      </trkpt>
      <trkpt lat="47.93095" lon="-2.52675">
        <ele>71.071733</ele>
        <time>2022-12-13T18:09:55.927Z</time>
      </trkpt>
      <trkpt lat="47.93095" lon="-2.52656">
        <ele>71.019647</ele>
        <time>2022-12-13T18:09:58.908Z</time>
      </trkpt>
      <trkpt lat="47.93095" lon="-2.52638">
        <ele>71.001471</ele>
        <time>2022-12-13T18:10:01.929Z</time>
      </trkpt>
      <trkpt lat="47.93096" lon="-2.5262">
        <ele>71.167394</ele>
        <time>2022-12-13T18:10:04.928Z</time>
      </trkpt>
      <trkpt lat="47.93098" lon="-2.52603">
        <ele>71.32543</ele>
        <time>2022-12-13T18:10:07.927Z</time>
      </trkpt>
      <trkpt lat="47.93101" lon="-2.52587">
        <ele>71.474495</ele>
        <time>2022-12-13T18:10:10.927Z</time>
      </trkpt>
      <trkpt lat="47.93104" lon="-2.52571">
        <ele>71.630971</ele>
        <time>2022-12-13T18:10:13.927Z</time>
      </trkpt>
      <trkpt lat="47.93107" lon="-2.52552">
        <ele>71.80853</ele>
        <time>2022-12-13T18:10:16.928Z</time>
      </trkpt>
      <trkpt lat="47.9311" lon="-2.52534">
        <ele>71.975372</ele>
        <time>2022-12-13T18:10:19.929Z</time>
      </trkpt>
      <trkpt lat="47.93111" lon="-2.52515">
        <ele>72.149702</ele>
        <time>2022-12-13T18:10:22.927Z</time>
      </trkpt>
      <trkpt lat="47.93113" lon="-2.52497">
        <ele>72.312072</ele>
        <time>2022-12-13T18:10:25.930Z</time>
      </trkpt>
      <trkpt lat="47.93114" lon="-2.5248">
        <ele>72.473435</ele>
        <time>2022-12-13T18:10:28.933Z</time>
      </trkpt>
      <trkpt lat="47.93114" lon="-2.5246">
        <ele>72.654489</ele>
        <time>2022-12-13T18:10:31.927Z</time>
      </trkpt>
      <trkpt lat="47.93114" lon="-2.5244">
        <ele>72.832759</ele>
        <time>2022-12-13T18:10:34.927Z</time>
      </trkpt>
      <trkpt lat="47.93113" lon="-2.52421">
        <ele>73.008711</ele>
        <time>2022-12-13T18:10:37.928Z</time>
      </trkpt>
      <trkpt lat="47.93113" lon="-2.52402">
        <ele>73.18899</ele>
        <time>2022-12-13T18:10:40.927Z</time>
      </trkpt>
      <trkpt lat="47.93112" lon="-2.52382">
        <ele>73.370183</ele>
        <time>2022-12-13T18:10:43.935Z</time>
      </trkpt>
      <trkpt lat="47.9311" lon="-2.52363">
        <ele>73.317114</ele>
        <time>2022-12-13T18:10:46.933Z</time>
      </trkpt>
      <trkpt lat="47.93109" lon="-2.52345">
        <ele>73.138222</ele>
        <time>2022-12-13T18:10:49.909Z</time>
      </trkpt>
      <trkpt lat="47.93107" lon="-2.52326">
        <ele>72.954085</ele>
        <time>2022-12-13T18:10:52.903Z</time>
      </trkpt>
      <trkpt lat="47.93106" lon="-2.52308">
        <ele>72.781031</ele>
        <time>2022-12-13T18:10:55.927Z</time>
      </trkpt>
      <trkpt lat="47.93103" lon="-2.5229">
        <ele>72.604387</ele>
        <time>2022-12-13T18:10:58.912Z</time>
      </trkpt>
      <trkpt lat="47.93101" lon="-2.52271">
        <ele>72.422753</ele>
        <time>2022-12-13T18:11:01.911Z</time>
      </trkpt>
      <trkpt lat="47.931" lon="-2.52254">
        <ele>72.253286</ele>
        <time>2022-12-13T18:11:04.919Z</time>
      </trkpt>
      <trkpt lat="47.93099" lon="-2.52237">
        <ele>72.094499</ele>
        <time>2022-12-13T18:11:07.924Z</time>
      </trkpt>
      <trkpt lat="47.93099" lon="-2.52222">
        <ele>71.946249</ele>
        <time>2022-12-13T18:11:10.912Z</time>
      </trkpt>
      <trkpt lat="47.93099" lon="-2.52204">
        <ele>71.773964</ele>
        <time>2022-12-13T18:11:13.916Z</time>
      </trkpt>
      <trkpt lat="47.931" lon="-2.52186">
        <ele>71.599541</ele>
        <time>2022-12-13T18:11:16.916Z</time>
      </trkpt>
      <trkpt lat="47.93101" lon="-2.52168">
        <ele>71.427731</ele>
        <time>2022-12-13T18:11:19.930Z</time>
      </trkpt>
      <trkpt lat="47.93103" lon="-2.52151">
        <ele>71.25551</ele>
        <time>2022-12-13T18:11:22.916Z</time>
      </trkpt>
      <trkpt lat="47.93105" lon="-2.52134">
        <ele>71.091027</ele>
        <time>2022-12-13T18:11:25.927Z</time>
      </trkpt>
      <trkpt lat="47.93107" lon="-2.52116">
        <ele>70.918157</ele>
        <time>2022-12-13T18:11:28.923Z</time>
      </trkpt>
      <trkpt lat="47.9311" lon="-2.52098">
        <ele>70.958557</ele>
        <time>2022-12-13T18:11:31.924Z</time>
      </trkpt>
      <trkpt lat="47.93112" lon="-2.52079">
        <ele>71.153572</ele>
        <time>2022-12-13T18:11:34.917Z</time>
      </trkpt>
      <trkpt lat="47.93114" lon="-2.52064">
        <ele>71.302243</ele>
        <time>2022-12-13T18:11:36.914Z</time>
      </trkpt>
      <trkpt lat="47.93116" lon="-2.5205">
        <ele>71.447165</ele>
        <time>2022-12-13T18:11:38.925Z</time>
      </trkpt>
      <trkpt lat="47.93117" lon="-2.52036">
        <ele>71.580841</ele>
        <time>2022-12-13T18:11:40.927Z</time>
      </trkpt>
      <trkpt lat="47.93118" lon="-2.52021">
        <ele>71.733355</ele>
        <time>2022-12-13T18:11:42.924Z</time>
      </trkpt>
      <trkpt lat="47.93119" lon="-2.52006">
        <ele>71.880111</ele>
        <time>2022-12-13T18:11:44.924Z</time>
      </trkpt>
      <trkpt lat="47.9312" lon="-2.51992">
        <ele>72.026508</ele>
        <time>2022-12-13T18:11:46.922Z</time>
      </trkpt>
      <trkpt lat="47.93122" lon="-2.51978">
        <ele>72.163117</ele>
        <time>2022-12-13T18:11:48.930Z</time>
      </trkpt>
      <trkpt lat="47.93123" lon="-2.51958">
        <ele>72.366366</ele>
        <time>2022-12-13T18:11:51.919Z</time>
      </trkpt>
      <trkpt lat="47.93125" lon="-2.51939">
        <ele>72.558319</ele>
        <time>2022-12-13T18:11:54.906Z</time>
      </trkpt>
      <trkpt lat="47.93125" lon="-2.51922">
        <ele>72.719901</ele>
        <time>2022-12-13T18:11:57.908Z</time>
      </trkpt>
      <trkpt lat="47.93125" lon="-2.51906">
        <ele>72.879583</ele>
        <time>2022-12-13T18:12:00.920Z</time>
      </trkpt>
      <trkpt lat="47.93124" lon="-2.5189">
        <ele>73.038606</ele>
        <time>2022-12-13T18:12:03.903Z</time>
      </trkpt>
      <trkpt lat="47.93122" lon="-2.51874">
        <ele>73.198551</ele>
        <time>2022-12-13T18:12:06.917Z</time>
      </trkpt>
      <trkpt lat="47.93119" lon="-2.5186">
        <ele>73.345274</ele>
        <time>2022-12-13T18:12:09.910Z</time>
      </trkpt>
      <trkpt lat="47.93118" lon="-2.51844">
        <ele>73.50305</ele>
        <time>2022-12-13T18:12:13.928Z</time>
      </trkpt>
      <trkpt lat="47.93115" lon="-2.51829">
        <ele>73.493327</ele>
        <time>2022-12-13T18:12:18.925Z</time>
      </trkpt>
      <trkpt lat="47.93113" lon="-2.51815">
        <ele>73.479647</ele>
        <time>2022-12-13T18:12:22.909Z</time>
      </trkpt>
      <trkpt lat="47.93111" lon="-2.51798">
        <ele>73.462538</ele>
        <time>2022-12-13T18:12:27.914Z</time>
      </trkpt>
      <trkpt lat="47.93108" lon="-2.51785">
        <ele>73.448601</ele>
        <time>2022-12-13T18:12:30.938Z</time>
      </trkpt>
      <trkpt lat="47.93106" lon="-2.5177">
        <ele>73.433636</ele>
        <time>2022-12-13T18:12:33.903Z</time>
      </trkpt>
      <trkpt lat="47.93102" lon="-2.51753">
        <ele>73.415798</ele>
        <time>2022-12-13T18:12:36.912Z</time>
      </trkpt>
      <trkpt lat="47.93099" lon="-2.51735">
        <ele>73.397425</ele>
        <time>2022-12-13T18:12:39.928Z</time>
      </trkpt>
      <trkpt lat="47.93095" lon="-2.51716">
        <ele>73.377613</ele>
        <time>2022-12-13T18:12:42.915Z</time>
      </trkpt>
      <trkpt lat="47.93093" lon="-2.51695">
        <ele>73.356902</ele>
        <time>2022-12-13T18:12:45.923Z</time>
      </trkpt>
      <trkpt lat="47.93091" lon="-2.5168">
        <ele>73.34162</ele>
        <time>2022-12-13T18:12:47.927Z</time>
      </trkpt>
      <trkpt lat="47.93088" lon="-2.51662">
        <ele>73.323209</ele>
        <time>2022-12-13T18:12:50.899Z</time>
      </trkpt>
      <trkpt lat="47.93084" lon="-2.51645">
        <ele>73.30534</ele>
        <time>2022-12-13T18:12:53.924Z</time>
      </trkpt>
      <trkpt lat="47.93081" lon="-2.51631">
        <ele>73.290335</ele>
        <time>2022-12-13T18:12:56.923Z</time>
      </trkpt>
      <trkpt lat="47.93078" lon="-2.51613">
        <ele>73.272559</ele>
        <time>2022-12-13T18:12:59.914Z</time>
      </trkpt>
      <trkpt lat="47.93074" lon="-2.51597">
        <ele>73.255069</ele>
        <time>2022-12-13T18:13:02.913Z</time>
      </trkpt>
      <trkpt lat="47.9307" lon="-2.51581">
        <ele>73.126778</ele>
        <time>2022-12-13T18:13:05.924Z</time>
      </trkpt>
      <trkpt lat="47.93063" lon="-2.51565">
        <ele>72.693634</ele>
        <time>2022-12-13T18:13:08.917Z</time>
      </trkpt>
      <trkpt lat="47.93056" lon="-2.51549">
        <ele>72.235103</ele>
        <time>2022-12-13T18:13:11.912Z</time>
      </trkpt>
      <trkpt lat="47.93049" lon="-2.51534">
        <ele>71.78859</ele>
        <time>2022-12-13T18:13:14.919Z</time>
      </trkpt>
      <trkpt lat="47.93043" lon="-2.51523">
        <ele>71.453803</ele>
        <time>2022-12-13T18:13:17.925Z</time>
      </trkpt>
      <trkpt lat="47.93036" lon="-2.51509">
        <ele>71.021466</ele>
        <time>2022-12-13T18:13:21.920Z</time>
      </trkpt>
      <trkpt lat="47.9303" lon="-2.51498">
        <ele>70.675832</ele>
        <time>2022-12-13T18:13:24.920Z</time>
      </trkpt>
      <trkpt lat="47.93023" lon="-2.51486">
        <ele>70.301835</ele>
        <time>2022-12-13T18:13:27.928Z</time>
      </trkpt>
      <trkpt lat="47.93016" lon="-2.51472">
        <ele>69.876178</ele>
        <time>2022-12-13T18:13:30.905Z</time>
      </trkpt>
      <trkpt lat="47.93007" lon="-2.51457">
        <ele>69.400656</ele>
        <time>2022-12-13T18:13:33.920Z</time>
      </trkpt>
      <trkpt lat="47.92999" lon="-2.51443">
        <ele>68.959873</ele>
        <time>2022-12-13T18:13:36.926Z</time>
      </trkpt>
      <trkpt lat="47.92991" lon="-2.51429">
        <ele>68.512875</ele>
        <time>2022-12-13T18:13:39.904Z</time>
      </trkpt>
      <trkpt lat="47.92983" lon="-2.51414">
        <ele>68.058051</ele>
        <time>2022-12-13T18:13:42.929Z</time>
      </trkpt>
      <trkpt lat="47.92977" lon="-2.51403">
        <ele>67.73153</ele>
        <time>2022-12-13T18:13:44.928Z</time>
      </trkpt>
      <trkpt lat="47.92969" lon="-2.5139">
        <ele>67.293672</ele>
        <time>2022-12-13T18:13:47.913Z</time>
      </trkpt>
      <trkpt lat="47.92962" lon="-2.51376">
        <ele>66.881139</ele>
        <time>2022-12-13T18:13:50.927Z</time>
      </trkpt>
      <trkpt lat="47.92955" lon="-2.51364">
        <ele>66.832623</ele>
        <time>2022-12-13T18:13:53.915Z</time>
      </trkpt>
      <trkpt lat="47.92947" lon="-2.51349">
        <ele>66.878172</ele>
        <time>2022-12-13T18:13:56.930Z</time>
      </trkpt>
      <trkpt lat="47.92939" lon="-2.51333">
        <ele>66.925184</ele>
        <time>2022-12-13T18:13:59.916Z</time>
      </trkpt>
      <trkpt lat="47.92931" lon="-2.51319">
        <ele>66.970917</ele>
        <time>2022-12-13T18:14:02.918Z</time>
      </trkpt>
      <trkpt lat="47.92924" lon="-2.51307">
        <ele>67.010081</ele>
        <time>2022-12-13T18:14:05.929Z</time>
      </trkpt>
      <trkpt lat="47.92916" lon="-2.51295">
        <ele>67.050978</ele>
        <time>2022-12-13T18:14:09.904Z</time>
      </trkpt>
      <trkpt lat="47.92909" lon="-2.51286">
        <ele>67.084577</ele>
        <time>2022-12-13T18:14:14.926Z</time>
      </trkpt>
      <trkpt lat="47.92899" lon="-2.51277">
        <ele>67.125229</ele>
        <time>2022-12-13T18:14:19.908Z</time>
      </trkpt>
      <trkpt lat="47.92892" lon="-2.51269">
        <ele>67.160121</ele>
        <time>2022-12-13T18:14:29.928Z</time>
      </trkpt>
      <trkpt lat="47.92891" lon="-2.51254">
        <ele>67.194502</ele>
        <time>2022-12-13T18:14:38.910Z</time>
      </trkpt>
      <trkpt lat="47.92887" lon="-2.51242">
        <ele>67.228541</ele>
        <time>2022-12-13T18:14:49.905Z</time>
      </trkpt>
      <trkpt lat="47.92877" lon="-2.51219">
        <ele>67.29591</ele>
        <time>2022-12-13T18:15:38.931Z</time>
      </trkpt>
      <trkpt lat="47.92871" lon="-2.51205">
        <ele>67.335326</ele>
        <time>2022-12-13T18:15:42.932Z</time>
      </trkpt>
      <trkpt lat="47.92864" lon="-2.51193">
        <ele>67.373295</ele>
        <time>2022-12-13T18:15:46.932Z</time>
      </trkpt>
      <trkpt lat="47.92859" lon="-2.5118">
        <ele>67.410462</ele>
        <time>2022-12-13T18:15:49.915Z</time>
      </trkpt>
      <trkpt lat="47.92853" lon="-2.51167">
        <ele>67.448079</ele>
        <time>2022-12-13T18:15:52.907Z</time>
      </trkpt>
      <trkpt lat="47.92847" lon="-2.51153">
        <ele>67.649795</ele>
        <time>2022-12-13T18:15:55.910Z</time>
      </trkpt>
      <trkpt lat="47.92841" lon="-2.51138">
        <ele>67.87824</ele>
        <time>2022-12-13T18:15:58.931Z</time>
      </trkpt>
      <trkpt lat="47.92834" lon="-2.51122">
        <ele>68.120731</ele>
        <time>2022-12-13T18:16:01.925Z</time>
      </trkpt>
      <trkpt lat="47.92827" lon="-2.51107">
        <ele>68.351336</ele>
        <time>2022-12-13T18:16:04.924Z</time>
      </trkpt>
      <trkpt lat="47.92821" lon="-2.51092">
        <ele>68.575755</ele>
        <time>2022-12-13T18:16:07.927Z</time>
      </trkpt>
      <trkpt lat="47.92815" lon="-2.51077">
        <ele>68.802179</ele>
        <time>2022-12-13T18:16:10.924Z</time>
      </trkpt>
      <trkpt lat="47.92808" lon="-2.51061">
        <ele>69.043686</ele>
        <time>2022-12-13T18:16:13.925Z</time>
      </trkpt>
      <trkpt lat="47.92803" lon="-2.51045">
        <ele>69.273963</ele>
        <time>2022-12-13T18:16:16.920Z</time>
      </trkpt>
      <trkpt lat="47.92798" lon="-2.51028">
        <ele>69.504413</ele>
        <time>2022-12-13T18:16:19.925Z</time>
      </trkpt>
      <trkpt lat="47.92792" lon="-2.51011">
        <ele>69.741911</ele>
        <time>2022-12-13T18:16:22.924Z</time>
      </trkpt>
      <trkpt lat="47.92787" lon="-2.50994">
        <ele>69.982886</ele>
        <time>2022-12-13T18:16:25.929Z</time>
      </trkpt>
      <trkpt lat="47.92783" lon="-2.50977">
        <ele>70.217234</ele>
        <time>2022-12-13T18:16:28.930Z</time>
      </trkpt>
      <trkpt lat="47.92778" lon="-2.5096">
        <ele>70.455288</ele>
        <time>2022-12-13T18:16:31.926Z</time>
      </trkpt>
      <trkpt lat="47.92774" lon="-2.50943">
        <ele>70.688894</ele>
        <time>2022-12-13T18:16:34.952Z</time>
      </trkpt>
      <trkpt lat="47.9277" lon="-2.50927">
        <ele>70.882647</ele>
        <time>2022-12-13T18:16:37.924Z</time>
      </trkpt>
      <trkpt lat="47.92767" lon="-2.50913">
        <ele>70.854402</ele>
        <time>2022-12-13T18:16:40.905Z</time>
      </trkpt>
      <trkpt lat="47.92763" lon="-2.50898">
        <ele>70.823484</ele>
        <time>2022-12-13T18:16:43.911Z</time>
      </trkpt>
      <trkpt lat="47.92759" lon="-2.5088">
        <ele>70.789941</ele>
        <time>2022-12-13T18:16:46.924Z</time>
      </trkpt>
      <trkpt lat="47.92756" lon="-2.50862">
        <ele>70.754101</ele>
        <time>2022-12-13T18:16:49.932Z</time>
      </trkpt>
      <trkpt lat="47.92752" lon="-2.50844">
        <ele>70.719669</ele>
        <time>2022-12-13T18:16:52.917Z</time>
      </trkpt>
      <trkpt lat="47.9275" lon="-2.50828">
        <ele>70.68817</ele>
        <time>2022-12-13T18:16:55.920Z</time>
      </trkpt>
      <trkpt lat="47.92747" lon="-2.50811">
        <ele>70.656618</ele>
        <time>2022-12-13T18:16:58.920Z</time>
      </trkpt>
      <trkpt lat="47.92745" lon="-2.50795">
        <ele>70.624882</ele>
        <time>2022-12-13T18:17:01.932Z</time>
      </trkpt>
      <trkpt lat="47.92743" lon="-2.50776">
        <ele>70.589385</ele>
        <time>2022-12-13T18:17:04.931Z</time>
      </trkpt>
      <trkpt lat="47.92742" lon="-2.50758">
        <ele>70.556653</ele>
        <time>2022-12-13T18:17:07.930Z</time>
      </trkpt>
      <trkpt lat="47.9274" lon="-2.50741">
        <ele>70.523285</ele>
        <time>2022-12-13T18:17:10.926Z</time>
      </trkpt>
      <trkpt lat="47.92739" lon="-2.50727">
        <ele>70.498002</ele>
        <time>2022-12-13T18:17:12.928Z</time>
      </trkpt>
      <trkpt lat="47.92738" lon="-2.50713">
        <ele>70.472349</ele>
        <time>2022-12-13T18:17:14.927Z</time>
      </trkpt>
      <trkpt lat="47.92736" lon="-2.50696">
        <ele>70.440084</ele>
        <time>2022-12-13T18:17:17.925Z</time>
      </trkpt>
      <trkpt lat="47.92733" lon="-2.5068">
        <ele>70.409139</ele>
        <time>2022-12-13T18:17:20.926Z</time>
      </trkpt>
      <trkpt lat="47.92729" lon="-2.50664">
        <ele>70.382645</ele>
        <time>2022-12-13T18:17:23.926Z</time>
      </trkpt>
      <trkpt lat="47.92723" lon="-2.50648">
        <ele>70.373202</ele>
        <time>2022-12-13T18:17:26.922Z</time>
      </trkpt>
      <trkpt lat="47.92718" lon="-2.50631">
        <ele>70.363566</ele>
        <time>2022-12-13T18:17:29.928Z</time>
      </trkpt>
      <trkpt lat="47.92712" lon="-2.50613">
        <ele>70.353713</ele>
        <time>2022-12-13T18:17:32.927Z</time>
      </trkpt>
      <trkpt lat="47.92706" lon="-2.50597">
        <ele>70.343842</ele>
        <time>2022-12-13T18:17:35.926Z</time>
      </trkpt>
      <trkpt lat="47.92698" lon="-2.50581">
        <ele>70.333863</ele>
        <time>2022-12-13T18:17:38.911Z</time>
      </trkpt>
      <trkpt lat="47.92691" lon="-2.50566">
        <ele>70.324518</ele>
        <time>2022-12-13T18:17:41.902Z</time>
      </trkpt>
      <trkpt lat="47.92684" lon="-2.50552">
        <ele>70.315894</ele>
        <time>2022-12-13T18:17:44.930Z</time>
      </trkpt>
      <trkpt lat="47.92677" lon="-2.50539">
        <ele>70.306872</ele>
        <time>2022-12-13T18:17:47.930Z</time>
      </trkpt>
      <trkpt lat="47.92668" lon="-2.50526">
        <ele>70.297552</ele>
        <time>2022-12-13T18:17:50.928Z</time>
      </trkpt>
      <trkpt lat="47.92659" lon="-2.50512">
        <ele>70.287962</ele>
        <time>2022-12-13T18:17:53.904Z</time>
      </trkpt>
      <trkpt lat="47.92649" lon="-2.505">
        <ele>70.278293</ele>
        <time>2022-12-13T18:17:56.929Z</time>
      </trkpt>
      <trkpt lat="47.9264" lon="-2.50488">
        <ele>70.268493</ele>
        <time>2022-12-13T18:17:59.904Z</time>
      </trkpt>
      <trkpt lat="47.92629" lon="-2.50475">
        <ele>70.258171</ele>
        <time>2022-12-13T18:18:02.927Z</time>
      </trkpt>
      <trkpt lat="47.92621" lon="-2.50466">
        <ele>70.250651</ele>
        <time>2022-12-13T18:18:04.926Z</time>
      </trkpt>
      <trkpt lat="47.92615" lon="-2.50456">
        <ele>70.269052</ele>
        <time>2022-12-13T18:18:06.925Z</time>
      </trkpt>
      <trkpt lat="47.92609" lon="-2.50445">
        <ele>70.309109</ele>
        <time>2022-12-13T18:18:08.931Z</time>
      </trkpt>
      <trkpt lat="47.92602" lon="-2.50436">
        <ele>70.348632</ele>
        <time>2022-12-13T18:18:10.929Z</time>
      </trkpt>
      <trkpt lat="47.92595" lon="-2.50421">
        <ele>70.400225</ele>
        <time>2022-12-13T18:18:13.920Z</time>
      </trkpt>
      <trkpt lat="47.92587" lon="-2.50408">
        <ele>70.449652</ele>
        <time>2022-12-13T18:18:16.930Z</time>
      </trkpt>
      <trkpt lat="47.92579" lon="-2.50394">
        <ele>70.499012</ele>
        <time>2022-12-13T18:18:19.908Z</time>
      </trkpt>
      <trkpt lat="47.92572" lon="-2.50381">
        <ele>70.548944</ele>
        <time>2022-12-13T18:18:22.910Z</time>
      </trkpt>
      <trkpt lat="47.92563" lon="-2.50367">
        <ele>70.599477</ele>
        <time>2022-12-13T18:18:25.928Z</time>
      </trkpt>
      <trkpt lat="47.92557" lon="-2.50356">
        <ele>70.642814</ele>
        <time>2022-12-13T18:18:28.927Z</time>
      </trkpt>
      <trkpt lat="47.92549" lon="-2.50345">
        <ele>70.686573</ele>
        <time>2022-12-13T18:18:31.917Z</time>
      </trkpt>
      <trkpt lat="47.92541" lon="-2.50332">
        <ele>70.738172</ele>
        <time>2022-12-13T18:18:35.906Z</time>
      </trkpt>
      <trkpt lat="47.92534" lon="-2.50322">
        <ele>70.776203</ele>
        <time>2022-12-13T18:18:37.925Z</time>
      </trkpt>
      <trkpt lat="47.92524" lon="-2.50309">
        <ele>70.833576</ele>
        <time>2022-12-13T18:18:40.925Z</time>
      </trkpt>
      <trkpt lat="47.92514" lon="-2.50298">
        <ele>70.883782</ele>
        <time>2022-12-13T18:18:43.908Z</time>
      </trkpt>
      <trkpt lat="47.92508" lon="-2.50288">
        <ele>70.922696</ele>
        <time>2022-12-13T18:18:46.914Z</time>
      </trkpt>
      <trkpt lat="47.925" lon="-2.5028">
        <ele>70.962824</ele>
        <time>2022-12-13T18:18:49.912Z</time>
      </trkpt>
      <trkpt lat="47.92492" lon="-2.50269">
        <ele>70.981648</ele>
        <time>2022-12-13T18:18:52.924Z</time>
      </trkpt>
      <trkpt lat="47.92483" lon="-2.50258">
        <ele>70.846057</ele>
        <time>2022-12-13T18:18:55.903Z</time>
      </trkpt>
      <trkpt lat="47.92474" lon="-2.50246">
        <ele>70.702454</ele>
        <time>2022-12-13T18:18:58.929Z</time>
      </trkpt>
      <trkpt lat="47.92467" lon="-2.50234">
        <ele>70.583505</ele>
        <time>2022-12-13T18:19:01.928Z</time>
      </trkpt>
      <trkpt lat="47.92456" lon="-2.50225">
        <ele>70.437081</ele>
        <time>2022-12-13T18:19:04.926Z</time>
      </trkpt>
      <trkpt lat="47.92448" lon="-2.50217">
        <ele>70.320914</ele>
        <time>2022-12-13T18:19:07.928Z</time>
      </trkpt>
      <trkpt lat="47.92438" lon="-2.50209">
        <ele>70.191459</ele>
        <time>2022-12-13T18:19:10.916Z</time>
      </trkpt>
      <trkpt lat="47.92429" lon="-2.50199">
        <ele>70.057561</ele>
        <time>2022-12-13T18:19:13.930Z</time>
      </trkpt>
      <trkpt lat="47.92419" lon="-2.5019">
        <ele>69.913007</ele>
        <time>2022-12-13T18:19:16.904Z</time>
      </trkpt>
      <trkpt lat="47.92408" lon="-2.5018">
        <ele>69.77127</ele>
        <time>2022-12-13T18:19:19.928Z</time>
      </trkpt>
      <trkpt lat="47.92399" lon="-2.50173">
        <ele>69.646711</ele>
        <time>2022-12-13T18:19:22.943Z</time>
      </trkpt>
      <trkpt lat="47.92389" lon="-2.50164">
        <ele>69.512957</ele>
        <time>2022-12-13T18:19:25.925Z</time>
      </trkpt>
      <trkpt lat="47.92378" lon="-2.50155">
        <ele>69.366264</ele>
        <time>2022-12-13T18:19:28.927Z</time>
      </trkpt>
      <trkpt lat="47.92366" lon="-2.50147">
        <ele>69.213708</ele>
        <time>2022-12-13T18:19:31.916Z</time>
      </trkpt>
      <trkpt lat="47.92355" lon="-2.50139">
        <ele>69.065939</ele>
        <time>2022-12-13T18:19:34.925Z</time>
      </trkpt>
      <trkpt lat="47.92344" lon="-2.50133">
        <ele>68.92635</ele>
        <time>2022-12-13T18:19:37.924Z</time>
      </trkpt>
      <trkpt lat="47.92334" lon="-2.50128">
        <ele>68.909045</ele>
        <time>2022-12-13T18:19:40.928Z</time>
      </trkpt>
      <trkpt lat="47.92324" lon="-2.50123">
        <ele>68.933777</ele>
        <time>2022-12-13T18:19:43.929Z</time>
      </trkpt>
      <trkpt lat="47.92314" lon="-2.50117">
        <ele>68.959114</ele>
        <time>2022-12-13T18:19:46.940Z</time>
      </trkpt>
      <trkpt lat="47.92304" lon="-2.50109">
        <ele>68.9866</ele>
        <time>2022-12-13T18:19:49.906Z</time>
      </trkpt>
      <trkpt lat="47.92293" lon="-2.50098">
        <ele>69.016773</ele>
        <time>2022-12-13T18:19:52.909Z</time>
      </trkpt>
      <trkpt lat="47.92286" lon="-2.50089">
        <ele>69.03803</ele>
        <time>2022-12-13T18:19:54.906Z</time>
      </trkpt>
      <trkpt lat="47.92278" lon="-2.50074">
        <ele>69.069191</ele>
        <time>2022-12-13T18:19:57.927Z</time>
      </trkpt>
      <trkpt lat="47.92273" lon="-2.50061">
        <ele>69.092216</ele>
        <time>2022-12-13T18:19:59.903Z</time>
      </trkpt>
      <trkpt lat="47.92269" lon="-2.50048">
        <ele>69.114747</ele>
        <time>2022-12-13T18:20:01.901Z</time>
      </trkpt>
      <trkpt lat="47.92264" lon="-2.50029">
        <ele>69.145274</ele>
        <time>2022-12-13T18:20:04.911Z</time>
      </trkpt>
      <trkpt lat="47.92262" lon="-2.50015">
        <ele>69.167738</ele>
        <time>2022-12-13T18:20:06.916Z</time>
      </trkpt>
      <trkpt lat="47.92262" lon="-2.50001">
        <ele>69.189665</ele>
        <time>2022-12-13T18:20:08.930Z</time>
      </trkpt>
      <trkpt lat="47.92263" lon="-2.49983">
        <ele>69.217918</ele>
        <time>2022-12-13T18:20:11.928Z</time>
      </trkpt>
      <trkpt lat="47.92265" lon="-2.49965">
        <ele>69.246889</ele>
        <time>2022-12-13T18:20:14.928Z</time>
      </trkpt>
      <trkpt lat="47.92268" lon="-2.49949">
        <ele>69.272154</ele>
        <time>2022-12-13T18:20:17.919Z</time>
      </trkpt>
      <trkpt lat="47.92273" lon="-2.49934">
        <ele>69.2983</ele>
        <time>2022-12-13T18:20:20.934Z</time>
      </trkpt>
      <trkpt lat="47.92278" lon="-2.49918">
        <ele>69.30388</ele>
        <time>2022-12-13T18:20:23.930Z</time>
      </trkpt>
      <trkpt lat="47.92284" lon="-2.49902">
        <ele>69.287665</ele>
        <time>2022-12-13T18:20:26.930Z</time>
      </trkpt>
      <trkpt lat="47.9229" lon="-2.49885">
        <ele>69.270715</ele>
        <time>2022-12-13T18:20:29.908Z</time>
      </trkpt>
      <trkpt lat="47.92298" lon="-2.49868">
        <ele>69.253357</ele>
        <time>2022-12-13T18:20:32.914Z</time>
      </trkpt>
      <trkpt lat="47.92303" lon="-2.49857">
        <ele>69.241424</ele>
        <time>2022-12-13T18:20:34.930Z</time>
      </trkpt>
      <trkpt lat="47.92309" lon="-2.49847">
        <ele>69.229244</ele>
        <time>2022-12-13T18:20:36.929Z</time>
      </trkpt>
      <trkpt lat="47.92319" lon="-2.49834">
        <ele>69.213064</ele>
        <time>2022-12-13T18:20:39.928Z</time>
      </trkpt>
      <trkpt lat="47.92329" lon="-2.49823">
        <ele>69.196882</ele>
        <time>2022-12-13T18:20:42.933Z</time>
      </trkpt>
      <trkpt lat="47.92338" lon="-2.49814">
        <ele>69.182874</ele>
        <time>2022-12-13T18:20:45.908Z</time>
      </trkpt>
      <trkpt lat="47.92347" lon="-2.49803">
        <ele>69.167835</ele>
        <time>2022-12-13T18:20:48.928Z</time>
      </trkpt>
      <trkpt lat="47.92355" lon="-2.49791">
        <ele>69.153177</ele>
        <time>2022-12-13T18:20:51.928Z</time>
      </trkpt>
      <trkpt lat="47.92358" lon="-2.49775">
        <ele>69.138663</ele>
        <time>2022-12-13T18:20:54.931Z</time>
      </trkpt>
      <trkpt lat="47.92361" lon="-2.49761">
        <ele>69.126083</ele>
        <time>2022-12-13T18:20:57.930Z</time>
      </trkpt>
      <trkpt lat="47.92364" lon="-2.49744">
        <ele>69.111107</ele>
        <time>2022-12-13T18:21:01.930Z</time>
      </trkpt>
      <trkpt lat="47.92368" lon="-2.49729">
        <ele>69.096932</ele>
        <time>2022-12-13T18:21:06.930Z</time>
      </trkpt>
      <trkpt lat="47.92372" lon="-2.49715">
        <ele>69.083546</ele>
        <time>2022-12-13T18:21:10.929Z</time>
      </trkpt>
      <trkpt lat="47.92376" lon="-2.49702">
        <ele>69.111117</ele>
        <time>2022-12-13T18:21:13.934Z</time>
      </trkpt>
      <trkpt lat="47.9238" lon="-2.49687">
        <ele>69.170745</ele>
        <time>2022-12-13T18:21:16.933Z</time>
      </trkpt>
      <trkpt lat="47.92384" lon="-2.49672">
        <ele>69.232585</ele>
        <time>2022-12-13T18:21:19.932Z</time>
      </trkpt>
      <trkpt lat="47.92388" lon="-2.49656">
        <ele>69.294648</ele>
        <time>2022-12-13T18:21:22.928Z</time>
      </trkpt>
      <trkpt lat="47.92391" lon="-2.4964">
        <ele>69.35849</ele>
        <time>2022-12-13T18:21:25.938Z</time>
      </trkpt>
      <trkpt lat="47.92394" lon="-2.49625">
        <ele>69.417665</ele>
        <time>2022-12-13T18:21:28.924Z</time>
      </trkpt>
      <trkpt lat="47.92396" lon="-2.49609">
        <ele>69.476778</ele>
        <time>2022-12-13T18:21:31.928Z</time>
      </trkpt>
      <trkpt lat="47.92397" lon="-2.49593">
        <ele>69.536687</ele>
        <time>2022-12-13T18:21:34.930Z</time>
      </trkpt>
      <trkpt lat="47.92396" lon="-2.49577">
        <ele>69.598188</ele>
        <time>2022-12-13T18:21:37.907Z</time>
      </trkpt>
      <trkpt lat="47.92396" lon="-2.49561">
        <ele>69.658124</ele>
        <time>2022-12-13T18:21:40.924Z</time>
      </trkpt>
      <trkpt lat="47.92394" lon="-2.49547">
        <ele>69.711663</ele>
        <time>2022-12-13T18:21:43.925Z</time>
      </trkpt>
      <trkpt lat="47.92391" lon="-2.49531">
        <ele>69.775035</ele>
        <time>2022-12-13T18:21:46.913Z</time>
      </trkpt>
      <trkpt lat="47.92387" lon="-2.49515">
        <ele>69.839607</ele>
        <time>2022-12-13T18:21:49.928Z</time>
      </trkpt>
      <trkpt lat="47.92381" lon="-2.49499">
        <ele>69.905867</ele>
        <time>2022-12-13T18:21:52.922Z</time>
      </trkpt>
      <trkpt lat="47.92374" lon="-2.49482">
        <ele>69.979208</ele>
        <time>2022-12-13T18:21:55.929Z</time>
      </trkpt>
      <trkpt lat="47.92369" lon="-2.49471">
        <ele>70.030795</ele>
        <time>2022-12-13T18:21:57.930Z</time>
      </trkpt>
      <trkpt lat="47.92362" lon="-2.49454">
        <ele>70.089948</ele>
        <time>2022-12-13T18:22:00.931Z</time>
      </trkpt>
      <trkpt lat="47.92356" lon="-2.49437">
        <ele>70.113433</ele>
        <time>2022-12-13T18:22:03.920Z</time>
      </trkpt>
      <trkpt lat="47.9235" lon="-2.49422">
        <ele>70.13557</ele>
        <time>2022-12-13T18:22:06.926Z</time>
      </trkpt>
      <trkpt lat="47.92343" lon="-2.49407">
        <ele>70.156864</ele>
        <time>2022-12-13T18:22:09.927Z</time>
      </trkpt>
      <trkpt lat="47.92336" lon="-2.49393">
        <ele>70.178897</ele>
        <time>2022-12-13T18:22:12.926Z</time>
      </trkpt>
      <trkpt lat="47.92329" lon="-2.49377">
        <ele>70.201625</ele>
        <time>2022-12-13T18:22:15.927Z</time>
      </trkpt>
      <trkpt lat="47.92322" lon="-2.49362">
        <ele>70.224547</ele>
        <time>2022-12-13T18:22:18.929Z</time>
      </trkpt>
      <trkpt lat="47.92316" lon="-2.49345">
        <ele>70.248295</ele>
        <time>2022-12-13T18:22:21.902Z</time>
      </trkpt>
      <trkpt lat="47.92308" lon="-2.49329">
        <ele>70.272848</ele>
        <time>2022-12-13T18:22:24.928Z</time>
      </trkpt>
      <trkpt lat="47.923" lon="-2.49313">
        <ele>70.296718</ele>
        <time>2022-12-13T18:22:27.929Z</time>
      </trkpt>
      <trkpt lat="47.92293" lon="-2.49299">
        <ele>70.318861</ele>
        <time>2022-12-13T18:22:30.927Z</time>
      </trkpt>
      <trkpt lat="47.92286" lon="-2.49285">
        <ele>70.339247</ele>
        <time>2022-12-13T18:22:33.929Z</time>
      </trkpt>
      <trkpt lat="47.92279" lon="-2.49272">
        <ele>70.359777</ele>
        <time>2022-12-13T18:22:36.927Z</time>
      </trkpt>
      <trkpt lat="47.92271" lon="-2.49257">
        <ele>70.384346</ele>
        <time>2022-12-13T18:22:39.931Z</time>
      </trkpt>
      <trkpt lat="47.92265" lon="-2.49247">
        <ele>70.401057</ele>
        <time>2022-12-13T18:22:41.908Z</time>
      </trkpt>
      <trkpt lat="47.92256" lon="-2.49232">
        <ele>70.460563</ele>
        <time>2022-12-13T18:22:44.936Z</time>
      </trkpt>
      <trkpt lat="47.92247" lon="-2.4922">
        <ele>70.538134</ele>
        <time>2022-12-13T18:22:47.928Z</time>
      </trkpt>
      <trkpt lat="47.92239" lon="-2.49207">
        <ele>70.619451</ele>
        <time>2022-12-13T18:22:50.928Z</time>
      </trkpt>
      <trkpt lat="47.9223" lon="-2.49193">
        <ele>70.704003</ele>
        <time>2022-12-13T18:22:53.921Z</time>
      </trkpt>
      <trkpt lat="47.92223" lon="-2.49184">
        <ele>70.764264</ele>
        <time>2022-12-13T18:22:55.923Z</time>
      </trkpt>
      <trkpt lat="47.92217" lon="-2.49174">
        <ele>70.825</ele>
        <time>2022-12-13T18:22:57.904Z</time>
      </trkpt>
      <trkpt lat="47.92209" lon="-2.49165">
        <ele>70.88979</ele>
        <time>2022-12-13T18:22:59.940Z</time>
      </trkpt>
      <trkpt lat="47.92202" lon="-2.49157">
        <ele>70.949512</ele>
        <time>2022-12-13T18:23:01.926Z</time>
      </trkpt>
      <trkpt lat="47.92194" lon="-2.4915">
        <ele>71.012253</ele>
        <time>2022-12-13T18:23:03.930Z</time>
      </trkpt>
      <trkpt lat="47.92186" lon="-2.49143">
        <ele>71.074387</ele>
        <time>2022-12-13T18:23:05.927Z</time>
      </trkpt>
      <trkpt lat="47.92178" lon="-2.49135">
        <ele>71.136963</ele>
        <time>2022-12-13T18:23:07.926Z</time>
      </trkpt>
      <trkpt lat="47.92166" lon="-2.49124">
        <ele>71.226015</ele>
        <time>2022-12-13T18:23:10.923Z</time>
      </trkpt>
      <trkpt lat="47.92158" lon="-2.49117">
        <ele>71.290751</ele>
        <time>2022-12-13T18:23:12.931Z</time>
      </trkpt>
      <trkpt lat="47.92146" lon="-2.49107">
        <ele>71.379704</ele>
        <time>2022-12-13T18:23:15.929Z</time>
      </trkpt>
      <trkpt lat="47.92138" lon="-2.49101">
        <ele>71.441972</ele>
        <time>2022-12-13T18:23:17.926Z</time>
      </trkpt>
      <trkpt lat="47.92127" lon="-2.4909">
        <ele>71.52775</ele>
        <time>2022-12-13T18:23:20.907Z</time>
      </trkpt>
      <trkpt lat="47.92119" lon="-2.49083">
        <ele>71.587614</ele>
        <time>2022-12-13T18:23:22.907Z</time>
      </trkpt>
      <trkpt lat="47.92109" lon="-2.49072">
        <ele>71.834972</ele>
        <time>2022-12-13T18:23:25.920Z</time>
      </trkpt>
      <trkpt lat="47.921" lon="-2.49059">
        <ele>72.112876</ele>
        <time>2022-12-13T18:23:28.914Z</time>
      </trkpt>
      <trkpt lat="47.92093" lon="-2.49047">
        <ele>72.363171</ele>
        <time>2022-12-13T18:23:31.906Z</time>
      </trkpt>
      <trkpt lat="47.92087" lon="-2.49034">
        <ele>72.614817</ele>
        <time>2022-12-13T18:23:34.917Z</time>
      </trkpt>
      <trkpt lat="47.92081" lon="-2.49019">
        <ele>72.873645</ele>
        <time>2022-12-13T18:23:37.904Z</time>
      </trkpt>
      <trkpt lat="47.92076" lon="-2.49004">
        <ele>73.146</ele>
        <time>2022-12-13T18:23:40.929Z</time>
      </trkpt>
      <trkpt lat="47.92071" lon="-2.48988">
        <ele>73.412482</ele>
        <time>2022-12-13T18:23:43.906Z</time>
      </trkpt>
      <trkpt lat="47.92065" lon="-2.48972">
        <ele>73.695452</ele>
        <time>2022-12-13T18:23:46.926Z</time>
      </trkpt>
      <trkpt lat="47.92059" lon="-2.48954">
        <ele>73.992506</ele>
        <time>2022-12-13T18:23:49.925Z</time>
      </trkpt>
      <trkpt lat="47.92054" lon="-2.48937">
        <ele>74.293357</ele>
        <time>2022-12-13T18:23:52.912Z</time>
      </trkpt>
      <trkpt lat="47.92048" lon="-2.48919">
        <ele>74.596614</ele>
        <time>2022-12-13T18:23:55.911Z</time>
      </trkpt>
      <trkpt lat="47.92042" lon="-2.48901">
        <ele>74.897953</ele>
        <time>2022-12-13T18:23:58.907Z</time>
      </trkpt>
      <trkpt lat="47.92038" lon="-2.48889">
        <ele>75.108985</ele>
        <time>2022-12-13T18:24:00.898Z</time>
      </trkpt>
      <trkpt lat="47.92033" lon="-2.48877">
        <ele>75.325706</ele>
        <time>2022-12-13T18:24:02.911Z</time>
      </trkpt>
      <trkpt lat="47.92028" lon="-2.48859">
        <ele>75.619544</ele>
        <time>2022-12-13T18:24:05.926Z</time>
      </trkpt>
      <trkpt lat="47.92023" lon="-2.48843">
        <ele>75.645536</ele>
        <time>2022-12-13T18:24:08.923Z</time>
      </trkpt>
      <trkpt lat="47.92016" lon="-2.48828">
        <ele>75.508923</ele>
        <time>2022-12-13T18:24:11.925Z</time>
      </trkpt>
      <trkpt lat="47.92009" lon="-2.48813">
        <ele>75.361925</ele>
        <time>2022-12-13T18:24:14.928Z</time>
      </trkpt>
      <trkpt lat="47.92" lon="-2.48797">
        <ele>75.20878</ele>
        <time>2022-12-13T18:24:17.923Z</time>
      </trkpt>
      <trkpt lat="47.91992" lon="-2.48785">
        <ele>75.074108</ele>
        <time>2022-12-13T18:24:20.910Z</time>
      </trkpt>
      <trkpt lat="47.91983" lon="-2.48775">
        <ele>74.947496</ele>
        <time>2022-12-13T18:24:23.934Z</time>
      </trkpt>
      <trkpt lat="47.91973" lon="-2.48764">
        <ele>74.804618</ele>
        <time>2022-12-13T18:24:26.915Z</time>
      </trkpt>
      <trkpt lat="47.91964" lon="-2.48753">
        <ele>74.668145</ele>
        <time>2022-12-13T18:24:29.924Z</time>
      </trkpt>
      <trkpt lat="47.91955" lon="-2.48741">
        <ele>74.532426</ele>
        <time>2022-12-13T18:24:32.915Z</time>
      </trkpt>
      <trkpt lat="47.91945" lon="-2.48731">
        <ele>74.398703</ele>
        <time>2022-12-13T18:24:35.913Z</time>
      </trkpt>
      <trkpt lat="47.91936" lon="-2.48721">
        <ele>74.270051</ele>
        <time>2022-12-13T18:24:38.920Z</time>
      </trkpt>
      <trkpt lat="47.91926" lon="-2.48711">
        <ele>74.127048</ele>
        <time>2022-12-13T18:24:41.920Z</time>
      </trkpt>
      <trkpt lat="47.91918" lon="-2.48703">
        <ele>74.023185</ele>
        <time>2022-12-13T18:24:43.931Z</time>
      </trkpt>
      <trkpt lat="47.91911" lon="-2.48695">
        <ele>73.920259</ele>
        <time>2022-12-13T18:24:45.907Z</time>
      </trkpt>
      <trkpt lat="47.91902" lon="-2.48685">
        <ele>73.787348</ele>
        <time>2022-12-13T18:24:48.909Z</time>
      </trkpt>
      <trkpt lat="47.91892" lon="-2.48676">
        <ele>73.654619</ele>
        <time>2022-12-13T18:24:51.932Z</time>
      </trkpt>
      <trkpt lat="47.91882" lon="-2.48664">
        <ele>73.454163</ele>
        <time>2022-12-13T18:24:54.921Z</time>
      </trkpt>
      <trkpt lat="47.91872" lon="-2.48653">
        <ele>73.258191</ele>
        <time>2022-12-13T18:24:57.933Z</time>
      </trkpt>
      <trkpt lat="47.91862" lon="-2.48641">
        <ele>73.06273</ele>
        <time>2022-12-13T18:25:00.926Z</time>
      </trkpt>
      <trkpt lat="47.91852" lon="-2.48629">
        <ele>72.862922</ele>
        <time>2022-12-13T18:25:03.932Z</time>
      </trkpt>
      <trkpt lat="47.91842" lon="-2.48617">
        <ele>72.668549</ele>
        <time>2022-12-13T18:25:06.932Z</time>
      </trkpt>
      <trkpt lat="47.91834" lon="-2.48606">
        <ele>72.50303</ele>
        <time>2022-12-13T18:25:09.909Z</time>
      </trkpt>
      <trkpt lat="47.91826" lon="-2.48595">
        <ele>72.335324</ele>
        <time>2022-12-13T18:25:12.926Z</time>
      </trkpt>
      <trkpt lat="47.91817" lon="-2.48585">
        <ele>72.159751</ele>
        <time>2022-12-13T18:25:15.932Z</time>
      </trkpt>
      <trkpt lat="47.91808" lon="-2.48575">
        <ele>71.98663</ele>
        <time>2022-12-13T18:25:18.930Z</time>
      </trkpt>
      <trkpt lat="47.91799" lon="-2.48564">
        <ele>71.806727</ele>
        <time>2022-12-13T18:25:21.909Z</time>
      </trkpt>
      <trkpt lat="47.91788" lon="-2.48553">
        <ele>71.603307</ele>
        <time>2022-12-13T18:25:24.911Z</time>
      </trkpt>
      <trkpt lat="47.91778" lon="-2.48541">
        <ele>71.404698</ele>
        <time>2022-12-13T18:25:27.926Z</time>
      </trkpt>
      <trkpt lat="47.91769" lon="-2.48528">
        <ele>71.207688</ele>
        <time>2022-12-13T18:25:30.923Z</time>
      </trkpt>
      <trkpt lat="47.91759" lon="-2.48514">
        <ele>71.006426</ele>
        <time>2022-12-13T18:25:33.930Z</time>
      </trkpt>
      <trkpt lat="47.91751" lon="-2.48501">
        <ele>70.889891</ele>
        <time>2022-12-13T18:25:36.927Z</time>
      </trkpt>
      <trkpt lat="47.91743" lon="-2.48489">
        <ele>70.882616</ele>
        <time>2022-12-13T18:25:39.930Z</time>
      </trkpt>
      <trkpt lat="47.91736" lon="-2.48476">
        <ele>70.875525</ele>
        <time>2022-12-13T18:25:42.923Z</time>
      </trkpt>
      <trkpt lat="47.91728" lon="-2.48462">
        <ele>70.867554</ele>
        <time>2022-12-13T18:25:45.919Z</time>
      </trkpt>
      <trkpt lat="47.91719" lon="-2.48446">
        <ele>70.859259</ele>
        <time>2022-12-13T18:25:48.928Z</time>
      </trkpt>
      <trkpt lat="47.91713" lon="-2.48435">
        <ele>70.853144</ele>
        <time>2022-12-13T18:25:50.930Z</time>
      </trkpt>
      <trkpt lat="47.91704" lon="-2.48422">
        <ele>70.845006</ele>
        <time>2022-12-13T18:25:53.911Z</time>
      </trkpt>
      <trkpt lat="47.91697" lon="-2.48412">
        <ele>70.838865</ele>
        <time>2022-12-13T18:25:55.906Z</time>
      </trkpt>
      <trkpt lat="47.91687" lon="-2.48397">
        <ele>70.830086</ele>
        <time>2022-12-13T18:25:58.910Z</time>
      </trkpt>
      <trkpt lat="47.91677" lon="-2.48385">
        <ele>70.821766</ele>
        <time>2022-12-13T18:26:01.918Z</time>
      </trkpt>
      <trkpt lat="47.91667" lon="-2.48374">
        <ele>70.814409</ele>
        <time>2022-12-13T18:26:04.919Z</time>
      </trkpt>
      <trkpt lat="47.91657" lon="-2.48364">
        <ele>70.806694</ele>
        <time>2022-12-13T18:26:07.899Z</time>
      </trkpt>
      <trkpt lat="47.91646" lon="-2.48354">
        <ele>70.798722</ele>
        <time>2022-12-13T18:26:10.909Z</time>
      </trkpt>
      <trkpt lat="47.91636" lon="-2.48346">
        <ele>70.791526</ele>
        <time>2022-12-13T18:26:13.904Z</time>
      </trkpt>
      <trkpt lat="47.91628" lon="-2.4834">
        <ele>70.785728</ele>
        <time>2022-12-13T18:26:16.907Z</time>
      </trkpt>
      <trkpt lat="47.9162" lon="-2.48333">
        <ele>70.779911</ele>
        <time>2022-12-13T18:26:19.914Z</time>
      </trkpt>
      <trkpt lat="47.91612" lon="-2.48327">
        <ele>70.761238</ele>
        <time>2022-12-13T18:26:22.914Z</time>
      </trkpt>
      <trkpt lat="47.91603" lon="-2.4832">
        <ele>70.739061</ele>
        <time>2022-12-13T18:26:25.908Z</time>
      </trkpt>
      <trkpt lat="47.91591" lon="-2.48312">
        <ele>70.710894</ele>
        <time>2022-12-13T18:26:28.928Z</time>
      </trkpt>
      <trkpt lat="47.91579" lon="-2.48304">
        <ele>70.682527</ele>
        <time>2022-12-13T18:26:31.903Z</time>
      </trkpt>
      <trkpt lat="47.91571" lon="-2.48298">
        <ele>70.662694</ele>
        <time>2022-12-13T18:26:33.919Z</time>
      </trkpt>
      <trkpt lat="47.91562" lon="-2.48292">
        <ele>70.640316</ele>
        <time>2022-12-13T18:26:36.928Z</time>
      </trkpt>
      <trkpt lat="47.91551" lon="-2.48287">
        <ele>70.616813</ele>
        <time>2022-12-13T18:26:39.926Z</time>
      </trkpt>
      <trkpt lat="47.91541" lon="-2.4828">
        <ele>70.591926</ele>
        <time>2022-12-13T18:26:42.919Z</time>
      </trkpt>
      <trkpt lat="47.9153" lon="-2.48274">
        <ele>70.565933</ele>
        <time>2022-12-13T18:26:45.907Z</time>
      </trkpt>
      <trkpt lat="47.9152" lon="-2.48268">
        <ele>70.54393</ele>
        <time>2022-12-13T18:26:48.927Z</time>
      </trkpt>
      <trkpt lat="47.91511" lon="-2.48263">
        <ele>70.522865</ele>
        <time>2022-12-13T18:26:50.928Z</time>
      </trkpt>
      <trkpt lat="47.91499" lon="-2.48256">
        <ele>70.494937</ele>
        <time>2022-12-13T18:26:53.929Z</time>
      </trkpt>
      <trkpt lat="47.9149" lon="-2.48249">
        <ele>70.472056</ele>
        <time>2022-12-13T18:26:56.928Z</time>
      </trkpt>
      <trkpt lat="47.91479" lon="-2.48243">
        <ele>70.446711</ele>
        <time>2022-12-13T18:26:59.927Z</time>
      </trkpt>
      <trkpt lat="47.9147" lon="-2.48239">
        <ele>70.426971</ele>
        <time>2022-12-13T18:27:01.927Z</time>
      </trkpt>
      <trkpt lat="47.91461" lon="-2.48236">
        <ele>70.407231</ele>
        <time>2022-12-13T18:27:03.902Z</time>
      </trkpt>
      <trkpt lat="47.9145" lon="-2.4823">
        <ele>70.286925</ele>
        <time>2022-12-13T18:27:06.902Z</time>
      </trkpt>
      <trkpt lat="47.91437" lon="-2.48225">
        <ele>69.900706</ele>
        <time>2022-12-13T18:27:09.898Z</time>
      </trkpt>
      <trkpt lat="47.91425" lon="-2.48219">
        <ele>69.549483</ele>
        <time>2022-12-13T18:27:12.903Z</time>
      </trkpt>
      <trkpt lat="47.91416" lon="-2.48214">
        <ele>69.255459</ele>
        <time>2022-12-13T18:27:15.929Z</time>
      </trkpt>
      <trkpt lat="47.91406" lon="-2.48208">
        <ele>68.96546</ele>
        <time>2022-12-13T18:27:18.925Z</time>
      </trkpt>
      <trkpt lat="47.91396" lon="-2.48201">
        <ele>68.636889</ele>
        <time>2022-12-13T18:27:21.905Z</time>
      </trkpt>
      <trkpt lat="47.91382" lon="-2.48197">
        <ele>68.238076</ele>
        <time>2022-12-13T18:27:24.903Z</time>
      </trkpt>
      <trkpt lat="47.91369" lon="-2.48191">
        <ele>67.855125</ele>
        <time>2022-12-13T18:27:27.927Z</time>
      </trkpt>
      <trkpt lat="47.9136" lon="-2.48186">
        <ele>67.578833</ele>
        <time>2022-12-13T18:27:29.901Z</time>
      </trkpt>
      <trkpt lat="47.91348" lon="-2.4818">
        <ele>67.216317</ele>
        <time>2022-12-13T18:27:32.928Z</time>
      </trkpt>
      <trkpt lat="47.91336" lon="-2.48175">
        <ele>66.845928</ele>
        <time>2022-12-13T18:27:35.927Z</time>
      </trkpt>
      <trkpt lat="47.91325" lon="-2.4817">
        <ele>66.508146</ele>
        <time>2022-12-13T18:27:38.940Z</time>
      </trkpt>
      <trkpt lat="47.91312" lon="-2.48166">
        <ele>66.138561</ele>
        <time>2022-12-13T18:27:41.906Z</time>
      </trkpt>
      <trkpt lat="47.91299" lon="-2.48161">
        <ele>65.758897</ele>
        <time>2022-12-13T18:27:44.930Z</time>
      </trkpt>
      <trkpt lat="47.9129" lon="-2.48159">
        <ele>65.496539</ele>
        <time>2022-12-13T18:27:46.903Z</time>
      </trkpt>
      <trkpt lat="47.91278" lon="-2.48155">
        <ele>65.151645</ele>
        <time>2022-12-13T18:27:49.904Z</time>
      </trkpt>
      <trkpt lat="47.91268" lon="-2.4815">
        <ele>64.858618</ele>
        <time>2022-12-13T18:27:52.930Z</time>
      </trkpt>
      <trkpt lat="47.91258" lon="-2.48146">
        <ele>64.590639</ele>
        <time>2022-12-13T18:27:55.928Z</time>
      </trkpt>
      <trkpt lat="47.91248" lon="-2.4814">
        <ele>64.303985</ele>
        <time>2022-12-13T18:27:58.907Z</time>
      </trkpt>
      <trkpt lat="47.91237" lon="-2.4814">
        <ele>64.010083</ele>
        <time>2022-12-13T18:28:01.903Z</time>
      </trkpt>
      <trkpt lat="47.91225" lon="-2.48144">
        <ele>63.692774</ele>
        <time>2022-12-13T18:28:04.905Z</time>
      </trkpt>
      <trkpt lat="47.91212" lon="-2.48144">
        <ele>63.347997</ele>
        <time>2022-12-13T18:28:07.910Z</time>
      </trkpt>
      <trkpt lat="47.912" lon="-2.48144">
        <ele>63.024469</ele>
        <time>2022-12-13T18:28:10.908Z</time>
      </trkpt>
      <trkpt lat="47.91188" lon="-2.48143">
        <ele>62.682406</ele>
        <time>2022-12-13T18:28:13.927Z</time>
      </trkpt>
      <trkpt lat="47.91175" lon="-2.48142">
        <ele>62.358006</ele>
        <time>2022-12-13T18:28:16.907Z</time>
      </trkpt>
      <trkpt lat="47.91163" lon="-2.48139">
        <ele>62.012863</ele>
        <time>2022-12-13T18:28:19.928Z</time>
      </trkpt>
      <trkpt lat="47.91151" lon="-2.48139">
        <ele>61.710866</ele>
        <time>2022-12-13T18:28:22.932Z</time>
      </trkpt>
      <trkpt lat="47.91141" lon="-2.48139">
        <ele>61.435667</ele>
        <time>2022-12-13T18:28:25.905Z</time>
      </trkpt>
      <trkpt lat="47.9113" lon="-2.48139">
        <ele>61.133623</ele>
        <time>2022-12-13T18:28:28.930Z</time>
      </trkpt>
      <trkpt lat="47.91117" lon="-2.48141">
        <ele>60.789573</ele>
        <time>2022-12-13T18:28:31.923Z</time>
      </trkpt>
      <trkpt lat="47.91105" lon="-2.48143">
        <ele>60.473003</ele>
        <time>2022-12-13T18:28:34.929Z</time>
      </trkpt>
      <trkpt lat="47.91093" lon="-2.48144">
        <ele>60.633533</ele>
        <time>2022-12-13T18:28:37.927Z</time>
      </trkpt>
      <trkpt lat="47.91082" lon="-2.48145">
        <ele>60.861763</ele>
        <time>2022-12-13T18:28:40.921Z</time>
      </trkpt>
      <trkpt lat="47.91069" lon="-2.48144">
        <ele>61.125956</ele>
        <time>2022-12-13T18:28:43.910Z</time>
      </trkpt>
      <trkpt lat="47.91056" lon="-2.48144">
        <ele>61.390149</ele>
        <time>2022-12-13T18:28:46.930Z</time>
      </trkpt>
      <trkpt lat="47.91043" lon="-2.48144">
        <ele>61.648215</ele>
        <time>2022-12-13T18:28:49.930Z</time>
      </trkpt>
      <trkpt lat="47.91034" lon="-2.48144">
        <ele>61.831641</ele>
        <time>2022-12-13T18:28:51.926Z</time>
      </trkpt>
      <trkpt lat="47.91023" lon="-2.48143">
        <ele>62.059787</ele>
        <time>2022-12-13T18:28:54.909Z</time>
      </trkpt>
      <trkpt lat="47.91014" lon="-2.48143">
        <ele>62.243371</ele>
        <time>2022-12-13T18:28:56.911Z</time>
      </trkpt>
      <trkpt lat="47.91001" lon="-2.4814">
        <ele>62.493562</ele>
        <time>2022-12-13T18:28:59.909Z</time>
      </trkpt>
      <trkpt lat="47.90992" lon="-2.48134">
        <ele>62.702819</ele>
        <time>2022-12-13T18:29:02.916Z</time>
      </trkpt>
      <trkpt lat="47.90982" lon="-2.48125">
        <ele>62.94346</ele>
        <time>2022-12-13T18:29:05.902Z</time>
      </trkpt>
      <trkpt lat="47.90974" lon="-2.48117">
        <ele>63.125297</ele>
        <time>2022-12-13T18:29:07.926Z</time>
      </trkpt>
      <trkpt lat="47.90964" lon="-2.48105">
        <ele>63.379267</ele>
        <time>2022-12-13T18:29:10.905Z</time>
      </trkpt>
      <trkpt lat="47.90957" lon="-2.48096">
        <ele>63.574505</ele>
        <time>2022-12-13T18:29:12.909Z</time>
      </trkpt>
      <trkpt lat="47.9095" lon="-2.48084">
        <ele>63.784733</ele>
        <time>2022-12-13T18:29:14.927Z</time>
      </trkpt>
      <trkpt lat="47.90944" lon="-2.48068">
        <ele>64.039801</ele>
        <time>2022-12-13T18:29:17.914Z</time>
      </trkpt>
      <trkpt lat="47.90938" lon="-2.48052">
        <ele>64.398699</ele>
        <time>2022-12-13T18:29:20.919Z</time>
      </trkpt>
      <trkpt lat="47.90932" lon="-2.48038">
        <ele>64.713579</ele>
        <time>2022-12-13T18:29:23.929Z</time>
      </trkpt>
      <trkpt lat="47.90926" lon="-2.48023">
        <ele>65.066196</ele>
        <time>2022-12-13T18:29:26.914Z</time>
      </trkpt>
      <trkpt lat="47.90919" lon="-2.48007">
        <ele>65.461687</ele>
        <time>2022-12-13T18:29:29.924Z</time>
      </trkpt>
      <trkpt lat="47.90914" lon="-2.47995">
        <ele>65.731698</ele>
        <time>2022-12-13T18:29:31.912Z</time>
      </trkpt>
      <trkpt lat="47.90909" lon="-2.47983">
        <ele>66.018669</ele>
        <time>2022-12-13T18:29:33.904Z</time>
      </trkpt>
      <trkpt lat="47.90905" lon="-2.47971">
        <ele>66.290843</ele>
        <time>2022-12-13T18:29:35.930Z</time>
      </trkpt>
      <trkpt lat="47.90899" lon="-2.47953">
        <ele>66.683769</ele>
        <time>2022-12-13T18:29:38.928Z</time>
      </trkpt>
      <trkpt lat="47.90891" lon="-2.47939">
        <ele>67.041638</ele>
        <time>2022-12-13T18:29:41.904Z</time>
      </trkpt>
      <trkpt lat="47.90884" lon="-2.47924">
        <ele>67.413973</ele>
        <time>2022-12-13T18:29:44.909Z</time>
      </trkpt>
      <trkpt lat="47.90878" lon="-2.47913">
        <ele>67.694331</ele>
        <time>2022-12-13T18:29:46.926Z</time>
      </trkpt>
      <trkpt lat="47.9087" lon="-2.47902">
        <ele>68.028794</ele>
        <time>2022-12-13T18:29:49.917Z</time>
      </trkpt>
      <trkpt lat="47.9086" lon="-2.4789">
        <ele>68.398149</ele>
        <time>2022-12-13T18:29:52.913Z</time>
      </trkpt>
      <trkpt lat="47.90851" lon="-2.47877">
        <ele>68.777721</ele>
        <time>2022-12-13T18:29:55.927Z</time>
      </trkpt>
      <trkpt lat="47.90842" lon="-2.47864">
        <ele>69.153536</ele>
        <time>2022-12-13T18:29:58.916Z</time>
      </trkpt>
      <trkpt lat="47.90833" lon="-2.47851">
        <ele>69.446648</ele>
        <time>2022-12-13T18:30:01.921Z</time>
      </trkpt>
      <trkpt lat="47.90826" lon="-2.4784">
        <ele>69.584264</ele>
        <time>2022-12-13T18:30:04.928Z</time>
      </trkpt>
      <trkpt lat="47.9082" lon="-2.4783">
        <ele>69.705755</ele>
        <time>2022-12-13T18:30:07.927Z</time>
      </trkpt>
      <trkpt lat="47.90814" lon="-2.4782">
        <ele>69.83555</ele>
        <time>2022-12-13T18:30:10.919Z</time>
      </trkpt>
      <trkpt lat="47.90807" lon="-2.47808">
        <ele>69.974776</ele>
        <time>2022-12-13T18:30:13.907Z</time>
      </trkpt>
      <trkpt lat="47.90801" lon="-2.47796">
        <ele>70.1132</ele>
        <time>2022-12-13T18:30:16.927Z</time>
      </trkpt>
      <trkpt lat="47.90793" lon="-2.47783">
        <ele>70.272661</ele>
        <time>2022-12-13T18:30:19.928Z</time>
      </trkpt>
      <trkpt lat="47.90784" lon="-2.47769">
        <ele>70.441813</ele>
        <time>2022-12-13T18:30:22.925Z</time>
      </trkpt>
      <trkpt lat="47.90777" lon="-2.47756">
        <ele>70.595901</ele>
        <time>2022-12-13T18:30:25.927Z</time>
      </trkpt>
      <trkpt lat="47.90771" lon="-2.47743">
        <ele>70.737039</ele>
        <time>2022-12-13T18:30:28.930Z</time>
      </trkpt>
      <trkpt lat="47.90767" lon="-2.47728">
        <ele>70.884929</ele>
        <time>2022-12-13T18:30:31.928Z</time>
      </trkpt>
      <trkpt lat="47.90767" lon="-2.47709">
        <ele>71.052079</ele>
        <time>2022-12-13T18:30:34.904Z</time>
      </trkpt>
      <trkpt lat="47.90768" lon="-2.47696">
        <ele>71.177638</ele>
        <time>2022-12-13T18:30:36.925Z</time>
      </trkpt>
      <trkpt lat="47.90771" lon="-2.47677">
        <ele>71.353759</ele>
        <time>2022-12-13T18:30:39.928Z</time>
      </trkpt>
      <trkpt lat="47.90773" lon="-2.47658">
        <ele>71.521502</ele>
        <time>2022-12-13T18:30:42.929Z</time>
      </trkpt>
      <trkpt lat="47.90775" lon="-2.4764">
        <ele>71.687716</ele>
        <time>2022-12-13T18:30:45.908Z</time>
      </trkpt>
      <trkpt lat="47.90778" lon="-2.47621">
        <ele>71.876563</ele>
        <time>2022-12-13T18:30:48.924Z</time>
      </trkpt>
      <trkpt lat="47.90779" lon="-2.47608">
        <ele>72.040571</ele>
        <time>2022-12-13T18:30:50.922Z</time>
      </trkpt>
      <trkpt lat="47.9078" lon="-2.47588">
        <ele>72.281544</ele>
        <time>2022-12-13T18:30:53.910Z</time>
      </trkpt>
      <trkpt lat="47.90778" lon="-2.47571">
        <ele>72.498595</ele>
        <time>2022-12-13T18:30:56.926Z</time>
      </trkpt>
      <trkpt lat="47.90774" lon="-2.47558">
        <ele>72.670569</ele>
        <time>2022-12-13T18:30:59.927Z</time>
      </trkpt>
      <trkpt lat="47.90769" lon="-2.47547">
        <ele>72.839336</ele>
        <time>2022-12-13T18:31:02.931Z</time>
      </trkpt>
      <trkpt lat="47.90759" lon="-2.47536">
        <ele>73.054514</ele>
        <time>2022-12-13T18:31:06.925Z</time>
      </trkpt>
      <trkpt lat="47.9075" lon="-2.47525">
        <ele>73.26067</ele>
        <time>2022-12-13T18:31:09.927Z</time>
      </trkpt>
      <trkpt lat="47.90742" lon="-2.47516">
        <ele>73.454409</ele>
        <time>2022-12-13T18:31:12.900Z</time>
      </trkpt>
      <trkpt lat="47.90732" lon="-2.47506">
        <ele>73.664387</ele>
        <time>2022-12-13T18:31:16.908Z</time>
      </trkpt>
      <trkpt lat="47.90724" lon="-2.47499">
        <ele>73.847452</ele>
        <time>2022-12-13T18:31:19.925Z</time>
      </trkpt>
      <trkpt lat="47.90715" lon="-2.47491">
        <ele>74.031903</ele>
        <time>2022-12-13T18:31:22.922Z</time>
      </trkpt>
      <trkpt lat="47.90707" lon="-2.47483">
        <ele>74.21238</ele>
        <time>2022-12-13T18:31:25.907Z</time>
      </trkpt>
      <trkpt lat="47.90696" lon="-2.47475">
        <ele>74.433051</ele>
        <time>2022-12-13T18:31:29.927Z</time>
      </trkpt>
      <trkpt lat="47.90687" lon="-2.47466">
        <ele>74.62409</ele>
        <time>2022-12-13T18:31:32.928Z</time>
      </trkpt>
      <trkpt lat="47.90678" lon="-2.47456">
        <ele>74.835386</ele>
        <time>2022-12-13T18:31:35.917Z</time>
      </trkpt>
      <trkpt lat="47.90669" lon="-2.47447">
        <ele>75.024022</ele>
        <time>2022-12-13T18:31:38.929Z</time>
      </trkpt>
      <trkpt lat="47.9066" lon="-2.47438">
        <ele>75.0484</ele>
        <time>2022-12-13T18:31:42.924Z</time>
      </trkpt>
      <trkpt lat="47.90652" lon="-2.47431">
        <ele>74.977253</ele>
        <time>2022-12-13T18:31:45.930Z</time>
      </trkpt>
      <trkpt lat="47.90643" lon="-2.47422">
        <ele>74.893352</ele>
        <time>2022-12-13T18:31:48.909Z</time>
      </trkpt>
      <trkpt lat="47.90634" lon="-2.47413">
        <ele>74.80738</ele>
        <time>2022-12-13T18:31:51.928Z</time>
      </trkpt>
      <trkpt lat="47.90623" lon="-2.47403">
        <ele>74.708889</ele>
        <time>2022-12-13T18:31:54.927Z</time>
      </trkpt>
      <trkpt lat="47.90615" lon="-2.47394">
        <ele>74.627097</ele>
        <time>2022-12-13T18:31:56.926Z</time>
      </trkpt>
      <trkpt lat="47.90606" lon="-2.47381">
        <ele>74.529927</ele>
        <time>2022-12-13T18:31:59.928Z</time>
      </trkpt>
      <trkpt lat="47.90595" lon="-2.47371">
        <ele>74.433027</ele>
        <time>2022-12-13T18:32:02.911Z</time>
      </trkpt>
      <trkpt lat="47.90586" lon="-2.4736">
        <ele>74.341866</ele>
        <time>2022-12-13T18:32:05.924Z</time>
      </trkpt>
      <trkpt lat="47.90577" lon="-2.47349">
        <ele>74.253196</ele>
        <time>2022-12-13T18:32:08.926Z</time>
      </trkpt>
      <trkpt lat="47.90567" lon="-2.4734">
        <ele>74.161</ele>
        <time>2022-12-13T18:32:11.929Z</time>
      </trkpt>
      <trkpt lat="47.90557" lon="-2.47329">
        <ele>74.061277</ele>
        <time>2022-12-13T18:32:14.926Z</time>
      </trkpt>
      <trkpt lat="47.9055" lon="-2.47321">
        <ele>73.990745</ele>
        <time>2022-12-13T18:32:16.929Z</time>
      </trkpt>
      <trkpt lat="47.90541" lon="-2.47307">
        <ele>73.891727</ele>
        <time>2022-12-13T18:32:19.926Z</time>
      </trkpt>
      <trkpt lat="47.90534" lon="-2.47293">
        <ele>73.801907</ele>
        <time>2022-12-13T18:32:22.909Z</time>
      </trkpt>
      <trkpt lat="47.90528" lon="-2.47278">
        <ele>73.709553</ele>
        <time>2022-12-13T18:32:25.928Z</time>
      </trkpt>
      <trkpt lat="47.90524" lon="-2.47262">
        <ele>73.460361</ele>
        <time>2022-12-13T18:32:28.913Z</time>
      </trkpt>
      <trkpt lat="47.90521" lon="-2.47247">
        <ele>73.218806</ele>
        <time>2022-12-13T18:32:31.907Z</time>
      </trkpt>
      <trkpt lat="47.90519" lon="-2.47234">
        <ele>73.004602</ele>
        <time>2022-12-13T18:32:34.929Z</time>
      </trkpt>
      <trkpt lat="47.90516" lon="-2.47221">
        <ele>72.784518</ele>
        <time>2022-12-13T18:32:38.928Z</time>
      </trkpt>
      <trkpt lat="47.90513" lon="-2.47205">
        <ele>72.524749</ele>
        <time>2022-12-13T18:32:42.909Z</time>
      </trkpt>
      <trkpt lat="47.90509" lon="-2.47189">
        <ele>72.261435</ele>
        <time>2022-12-13T18:32:45.922Z</time>
      </trkpt>
      <trkpt lat="47.90504" lon="-2.47175">
        <ele>72.009926</ele>
        <time>2022-12-13T18:32:48.930Z</time>
      </trkpt>
      <trkpt lat="47.90498" lon="-2.47162">
        <ele>71.766908</ele>
        <time>2022-12-13T18:32:51.925Z</time>
      </trkpt>
      <trkpt lat="47.90493" lon="-2.47152">
        <ele>71.555893</ele>
        <time>2022-12-13T18:32:54.923Z</time>
      </trkpt>
      <trkpt lat="47.90483" lon="-2.4714">
        <ele>71.269862</ele>
        <time>2022-12-13T18:32:58.914Z</time>
      </trkpt>
      <trkpt lat="47.90474" lon="-2.4713">
        <ele>71.001882</ele>
        <time>2022-12-13T18:33:02.908Z</time>
      </trkpt>
      <trkpt lat="47.90465" lon="-2.47119">
        <ele>70.731888</ele>
        <time>2022-12-13T18:33:06.919Z</time>
      </trkpt>
      <trkpt lat="47.90457" lon="-2.47111">
        <ele>70.494642</ele>
        <time>2022-12-13T18:33:10.910Z</time>
      </trkpt>
      <trkpt lat="47.90443" lon="-2.47094">
        <ele>70.073768</ele>
        <time>2022-12-13T18:36:08.011Z</time>
      </trkpt>
      <trkpt lat="47.90433" lon="-2.47085">
        <ele>69.800134</ele>
        <time>2022-12-13T18:36:11.922Z</time>
      </trkpt>
      <trkpt lat="47.90425" lon="-2.47075">
        <ele>69.557545</ele>
        <time>2022-12-13T18:36:14.907Z</time>
      </trkpt>
      <trkpt lat="47.90417" lon="-2.47068">
        <ele>69.418225</ele>
        <time>2022-12-13T18:36:17.909Z</time>
      </trkpt>
      <trkpt lat="47.90409" lon="-2.4706">
        <ele>69.323109</ele>
        <time>2022-12-13T18:36:20.924Z</time>
      </trkpt>
      <trkpt lat="47.90401" lon="-2.47052">
        <ele>69.232995</ele>
        <time>2022-12-13T18:36:23.912Z</time>
      </trkpt>
      <trkpt lat="47.90392" lon="-2.47043">
        <ele>69.124951</ele>
        <time>2022-12-13T18:36:27.924Z</time>
      </trkpt>
      <trkpt lat="47.90382" lon="-2.47033">
        <ele>69.004679</ele>
        <time>2022-12-13T18:36:31.909Z</time>
      </trkpt>
      <trkpt lat="47.90373" lon="-2.47026">
        <ele>68.905692</ele>
        <time>2022-12-13T18:36:34.930Z</time>
      </trkpt>
      <trkpt lat="47.90356" lon="-2.47013">
        <ele>68.718586</ele>
        <time>2022-12-13T18:37:40.007Z</time>
      </trkpt>
      <trkpt lat="47.90345" lon="-2.47005">
        <ele>68.5959</ele>
        <time>2022-12-13T18:37:43.922Z</time>
      </trkpt>
      <trkpt lat="47.90335" lon="-2.47002">
        <ele>68.493871</ele>
        <time>2022-12-13T18:37:46.904Z</time>
      </trkpt>
      <trkpt lat="47.90323" lon="-2.46998">
        <ele>68.375955</ele>
        <time>2022-12-13T18:37:49.908Z</time>
      </trkpt>
      <trkpt lat="47.90312" lon="-2.46996">
        <ele>68.264978</ele>
        <time>2022-12-13T18:37:52.913Z</time>
      </trkpt>
      <trkpt lat="47.90302" lon="-2.46993">
        <ele>68.162151</ele>
        <time>2022-12-13T18:37:55.910Z</time>
      </trkpt>
      <trkpt lat="47.90292" lon="-2.46991">
        <ele>68.062605</ele>
        <time>2022-12-13T18:37:58.913Z</time>
      </trkpt>
      <trkpt lat="47.90283" lon="-2.46988">
        <ele>67.965984</ele>
        <time>2022-12-13T18:38:01.918Z</time>
      </trkpt>
      <trkpt lat="47.90271" lon="-2.46985">
        <ele>67.851111</ele>
        <time>2022-12-13T18:38:05.927Z</time>
      </trkpt>
      <trkpt lat="47.90261" lon="-2.46982">
        <ele>67.742909</ele>
        <time>2022-12-13T18:38:09.906Z</time>
      </trkpt>
      <trkpt lat="47.90252" lon="-2.46977">
        <ele>67.698575</ele>
        <time>2022-12-13T18:38:12.920Z</time>
      </trkpt>
      <trkpt lat="47.90242" lon="-2.46969">
        <ele>67.700726</ele>
        <time>2022-12-13T18:38:15.903Z</time>
      </trkpt>
      <trkpt lat="47.90234" lon="-2.46959">
        <ele>67.70279</ele>
        <time>2022-12-13T18:38:18.913Z</time>
      </trkpt>
      <trkpt lat="47.90227" lon="-2.46946">
        <ele>67.704996</ele>
        <time>2022-12-13T18:38:21.918Z</time>
      </trkpt>
      <trkpt lat="47.90221" lon="-2.4693">
        <ele>67.707348</ele>
        <time>2022-12-13T18:38:24.911Z</time>
      </trkpt>
      <trkpt lat="47.90216" lon="-2.46912">
        <ele>67.709879</ele>
        <time>2022-12-13T18:38:27.903Z</time>
      </trkpt>
      <trkpt lat="47.90211" lon="-2.46896">
        <ele>67.71218</ele>
        <time>2022-12-13T18:38:30.913Z</time>
      </trkpt>
      <trkpt lat="47.90208" lon="-2.46881">
        <ele>67.714272</ele>
        <time>2022-12-13T18:38:33.908Z</time>
      </trkpt>
      <trkpt lat="47.90204" lon="-2.46865">
        <ele>67.716519</ele>
        <time>2022-12-13T18:38:36.915Z</time>
      </trkpt>
      <trkpt lat="47.902" lon="-2.4685">
        <ele>67.718605</ele>
        <time>2022-12-13T18:38:39.916Z</time>
      </trkpt>
      <trkpt lat="47.90196" lon="-2.46834">
        <ele>67.720747</ele>
        <time>2022-12-13T18:38:42.912Z</time>
      </trkpt>
      <trkpt lat="47.90192" lon="-2.46822">
        <ele>67.722579</ele>
        <time>2022-12-13T18:38:44.908Z</time>
      </trkpt>
      <trkpt lat="47.90188" lon="-2.46803">
        <ele>67.725116</ele>
        <time>2022-12-13T18:38:47.906Z</time>
      </trkpt>
      <trkpt lat="47.90184" lon="-2.46786">
        <ele>67.727553</ele>
        <time>2022-12-13T18:38:50.910Z</time>
      </trkpt>
      <trkpt lat="47.9018" lon="-2.46769">
        <ele>67.72988</ele>
        <time>2022-12-13T18:38:53.922Z</time>
      </trkpt>
      <trkpt lat="47.90176" lon="-2.46751">
        <ele>67.732332</ele>
        <time>2022-12-13T18:38:56.912Z</time>
      </trkpt>
      <trkpt lat="47.90169" lon="-2.46734">
        <ele>67.985555</ele>
        <time>2022-12-13T18:38:59.912Z</time>
      </trkpt>
      <trkpt lat="47.90163" lon="-2.46724">
        <ele>68.195966</ele>
        <time>2022-12-13T18:39:01.916Z</time>
      </trkpt>
      <trkpt lat="47.90155" lon="-2.46709">
        <ele>68.477799</ele>
        <time>2022-12-13T18:39:04.913Z</time>
      </trkpt>
      <trkpt lat="47.90147" lon="-2.46696">
        <ele>68.740231</ele>
        <time>2022-12-13T18:39:07.910Z</time>
      </trkpt>
      <trkpt lat="47.90138" lon="-2.46684">
        <ele>69.023013</ele>
        <time>2022-12-13T18:39:10.907Z</time>
      </trkpt>
      <trkpt lat="47.90128" lon="-2.46673">
        <ele>69.302571</ele>
        <time>2022-12-13T18:39:13.911Z</time>
      </trkpt>
      <trkpt lat="47.90118" lon="-2.46664">
        <ele>69.564573</ele>
        <time>2022-12-13T18:39:16.916Z</time>
      </trkpt>
      <trkpt lat="47.90109" lon="-2.46655">
        <ele>69.814822</ele>
        <time>2022-12-13T18:39:19.918Z</time>
      </trkpt>
      <trkpt lat="47.901" lon="-2.46647">
        <ele>70.052597</ele>
        <time>2022-12-13T18:39:22.913Z</time>
      </trkpt>
      <trkpt lat="47.90089" lon="-2.46637">
        <ele>70.325067</ele>
        <time>2022-12-13T18:39:25.910Z</time>
      </trkpt>
      <trkpt lat="47.90079" lon="-2.46628">
        <ele>70.592888</ele>
        <time>2022-12-13T18:39:28.907Z</time>
      </trkpt>
      <trkpt lat="47.90071" lon="-2.46621">
        <ele>70.809379</ele>
        <time>2022-12-13T18:39:30.909Z</time>
      </trkpt>
      <trkpt lat="47.90062" lon="-2.46612">
        <ele>71.05557</ele>
        <time>2022-12-13T18:39:33.926Z</time>
      </trkpt>
      <trkpt lat="47.90052" lon="-2.46603">
        <ele>71.307705</ele>
        <time>2022-12-13T18:39:36.910Z</time>
      </trkpt>
      <trkpt lat="47.90045" lon="-2.46592">
        <ele>71.548187</ele>
        <time>2022-12-13T18:39:39.917Z</time>
      </trkpt>
      <trkpt lat="47.90037" lon="-2.46583">
        <ele>71.766521</ele>
        <time>2022-12-13T18:39:42.904Z</time>
      </trkpt>
      <trkpt lat="47.90029" lon="-2.46572">
        <ele>71.570485</ele>
        <time>2022-12-13T18:39:45.916Z</time>
      </trkpt>
      <trkpt lat="47.90021" lon="-2.4656">
        <ele>71.324544</ele>
        <time>2022-12-13T18:39:48.908Z</time>
      </trkpt>
      <trkpt lat="47.90013" lon="-2.46548">
        <ele>71.086546</ele>
        <time>2022-12-13T18:39:51.922Z</time>
      </trkpt>
      <trkpt lat="47.90008" lon="-2.46535">
        <ele>70.869838</ele>
        <time>2022-12-13T18:39:54.913Z</time>
      </trkpt>
      <trkpt lat="47.90001" lon="-2.4652">
        <ele>70.618874</ele>
        <time>2022-12-13T18:39:58.913Z</time>
      </trkpt>
      <trkpt lat="47.89997" lon="-2.46505">
        <ele>70.385875</ele>
        <time>2022-12-13T18:40:01.906Z</time>
      </trkpt>
      <trkpt lat="47.89992" lon="-2.46487">
        <ele>70.10276</ele>
        <time>2022-12-13T18:40:04.910Z</time>
      </trkpt>
      <trkpt lat="47.89988" lon="-2.4647">
        <ele>69.847312</ele>
        <time>2022-12-13T18:40:07.915Z</time>
      </trkpt>
      <trkpt lat="47.89984" lon="-2.46453">
        <ele>69.60121</ele>
        <time>2022-12-13T18:40:10.911Z</time>
      </trkpt>
      <trkpt lat="47.89982" lon="-2.46437">
        <ele>69.375376</ele>
        <time>2022-12-13T18:40:13.920Z</time>
      </trkpt>
      <trkpt lat="47.8998" lon="-2.4642">
        <ele>69.124704</ele>
        <time>2022-12-13T18:40:16.916Z</time>
      </trkpt>
      <trkpt lat="47.89977" lon="-2.46399">
        <ele>68.814722</ele>
        <time>2022-12-13T18:40:19.910Z</time>
      </trkpt>
      <trkpt lat="47.89976" lon="-2.4638">
        <ele>68.554558</ele>
        <time>2022-12-13T18:40:22.911Z</time>
      </trkpt>
      <trkpt lat="47.89975" lon="-2.46366">
        <ele>68.345063</ele>
        <time>2022-12-13T18:40:24.911Z</time>
      </trkpt>
      <trkpt lat="47.89975" lon="-2.46346">
        <ele>68.066513</ele>
        <time>2022-12-13T18:40:27.920Z</time>
      </trkpt>
      <trkpt lat="47.89975" lon="-2.46329">
        <ele>68.047016</ele>
        <time>2022-12-13T18:40:30.910Z</time>
      </trkpt>
      <trkpt lat="47.89977" lon="-2.46314">
        <ele>68.147442</ele>
        <time>2022-12-13T18:40:33.921Z</time>
      </trkpt>
      <trkpt lat="47.89979" lon="-2.463">
        <ele>68.237507</ele>
        <time>2022-12-13T18:40:36.910Z</time>
      </trkpt>
      <trkpt lat="47.89981" lon="-2.46285">
        <ele>68.343416</ele>
        <time>2022-12-13T18:40:40.920Z</time>
      </trkpt>
      <trkpt lat="47.89984" lon="-2.46269">
        <ele>68.447566</ele>
        <time>2022-12-13T18:40:45.906Z</time>
      </trkpt>
      <trkpt lat="47.89988" lon="-2.46256">
        <ele>68.542091</ele>
        <time>2022-12-13T18:41:00.912Z</time>
      </trkpt>
      <trkpt lat="47.8999" lon="-2.46242">
        <ele>68.637962</ele>
        <time>2022-12-13T18:41:10.915Z</time>
      </trkpt>
      <trkpt lat="47.89993" lon="-2.46229">
        <ele>68.727023</ele>
        <time>2022-12-13T18:41:23.914Z</time>
      </trkpt>
      <trkpt lat="47.89994" lon="-2.46216">
        <ele>68.8169</ele>
        <time>2022-12-13T18:41:35.910Z</time>
      </trkpt>
      <trkpt lat="47.89978" lon="-2.46205">
        <ele>68.99429</ele>
        <time>2022-12-13T18:42:23.056Z</time>
      </trkpt>
      <trkpt lat="47.89967" lon="-2.46201">
        <ele>69.107653</ele>
        <time>2022-12-13T18:42:26.919Z</time>
      </trkpt>
      <trkpt lat="47.89957" lon="-2.46197">
        <ele>69.202796</ele>
        <time>2022-12-13T18:42:29.921Z</time>
      </trkpt>
      <trkpt lat="47.89947" lon="-2.46192">
        <ele>69.310371</ele>
        <time>2022-12-13T18:42:33.930Z</time>
      </trkpt>
      <trkpt lat="47.89937" lon="-2.46189">
        <ele>69.409129</ele>
        <time>2022-12-13T18:42:36.909Z</time>
      </trkpt>
      <trkpt lat="47.89926" lon="-2.46185">
        <ele>69.518871</ele>
        <time>2022-12-13T18:42:39.919Z</time>
      </trkpt>
      <trkpt lat="47.89916" lon="-2.4618">
        <ele>69.626082</ele>
        <time>2022-12-13T18:42:42.910Z</time>
      </trkpt>
      <trkpt lat="47.89905" lon="-2.46178">
        <ele>69.732257</ele>
        <time>2022-12-13T18:42:45.907Z</time>
      </trkpt>
      <trkpt lat="47.89894" lon="-2.46175">
        <ele>69.553618</ele>
        <time>2022-12-13T18:42:48.914Z</time>
      </trkpt>
      <trkpt lat="47.89881" lon="-2.4617">
        <ele>69.314424</ele>
        <time>2022-12-13T18:42:51.911Z</time>
      </trkpt>
      <trkpt lat="47.89869" lon="-2.46168">
        <ele>69.093091</ele>
        <time>2022-12-13T18:42:54.917Z</time>
      </trkpt>
      <trkpt lat="47.89856" lon="-2.46168">
        <ele>68.865612</ele>
        <time>2022-12-13T18:42:57.910Z</time>
      </trkpt>
      <trkpt lat="47.89843" lon="-2.46169">
        <ele>68.632185</ele>
        <time>2022-12-13T18:43:00.916Z</time>
      </trkpt>
      <trkpt lat="47.8983" lon="-2.46173">
        <ele>68.395022</ele>
        <time>2022-12-13T18:43:03.926Z</time>
      </trkpt>
      <trkpt lat="47.89818" lon="-2.46177">
        <ele>68.173966</ele>
        <time>2022-12-13T18:43:06.916Z</time>
      </trkpt>
      <trkpt lat="47.89807" lon="-2.46184">
        <ele>67.963354</ele>
        <time>2022-12-13T18:43:09.907Z</time>
      </trkpt>
      <trkpt lat="47.89797" lon="-2.4619">
        <ele>67.756111</ele>
        <time>2022-12-13T18:43:12.918Z</time>
      </trkpt>
      <trkpt lat="47.89786" lon="-2.46196">
        <ele>67.553721</ele>
        <time>2022-12-13T18:43:15.917Z</time>
      </trkpt>
      <trkpt lat="47.89776" lon="-2.46203">
        <ele>67.354155</ele>
        <time>2022-12-13T18:43:18.921Z</time>
      </trkpt>
      <trkpt lat="47.89766" lon="-2.46209">
        <ele>67.159556</ele>
        <time>2022-12-13T18:43:21.905Z</time>
      </trkpt>
      <trkpt lat="47.89757" lon="-2.46216">
        <ele>66.97035</ele>
        <time>2022-12-13T18:43:24.912Z</time>
      </trkpt>
      <trkpt lat="47.89747" lon="-2.46222">
        <ele>66.783619</ele>
        <time>2022-12-13T18:43:27.929Z</time>
      </trkpt>
      <trkpt lat="47.89738" lon="-2.46226">
        <ele>66.608537</ele>
        <time>2022-12-13T18:43:30.926Z</time>
      </trkpt>
      <trkpt lat="47.89729" lon="-2.46231">
        <ele>66.548513</ele>
        <time>2022-12-13T18:43:34.910Z</time>
      </trkpt>
      <trkpt lat="47.8972" lon="-2.46237">
        <ele>66.685592</ele>
        <time>2022-12-13T18:43:38.919Z</time>
      </trkpt>
      <trkpt lat="47.8971" lon="-2.46243">
        <ele>66.828648</ele>
        <time>2022-12-13T18:43:42.918Z</time>
      </trkpt>
      <trkpt lat="47.89701" lon="-2.4625">
        <ele>66.968625</ele>
        <time>2022-12-13T18:43:46.910Z</time>
      </trkpt>
      <trkpt lat="47.89692" lon="-2.46254">
        <ele>67.099948</ele>
        <time>2022-12-13T18:43:49.910Z</time>
      </trkpt>
      <trkpt lat="47.89684" lon="-2.46259">
        <ele>67.226133</ele>
        <time>2022-12-13T18:43:52.929Z</time>
      </trkpt>
      <trkpt lat="47.89676" lon="-2.46264">
        <ele>67.352696</ele>
        <time>2022-12-13T18:43:55.920Z</time>
      </trkpt>
      <trkpt lat="47.89667" lon="-2.46268">
        <ele>67.481198</ele>
        <time>2022-12-13T18:43:58.916Z</time>
      </trkpt>
      <trkpt lat="47.89659" lon="-2.46275">
        <ele>67.610633</ele>
        <time>2022-12-13T18:44:01.916Z</time>
      </trkpt>
      <trkpt lat="47.89648" lon="-2.46281">
        <ele>67.775778</ele>
        <time>2022-12-13T18:44:04.912Z</time>
      </trkpt>
      <trkpt lat="47.89639" lon="-2.46287">
        <ele>67.910806</ele>
        <time>2022-12-13T18:44:07.913Z</time>
      </trkpt>
      <trkpt lat="47.89628" lon="-2.46292">
        <ele>68.071687</ele>
        <time>2022-12-13T18:44:10.918Z</time>
      </trkpt>
      <trkpt lat="47.89617" lon="-2.46298">
        <ele>68.238049</ele>
        <time>2022-12-13T18:44:13.911Z</time>
      </trkpt>
      <trkpt lat="47.89606" lon="-2.46303">
        <ele>68.389092</ele>
        <time>2022-12-13T18:44:16.908Z</time>
      </trkpt>
      <trkpt lat="47.89598" lon="-2.46308">
        <ele>68.51601</ele>
        <time>2022-12-13T18:44:19.914Z</time>
      </trkpt>
      <trkpt lat="47.89587" lon="-2.46314">
        <ele>68.672593</ele>
        <time>2022-12-13T18:44:22.907Z</time>
      </trkpt>
      <trkpt lat="47.89578" lon="-2.46319">
        <ele>68.814495</ele>
        <time>2022-12-13T18:44:25.906Z</time>
      </trkpt>
      <trkpt lat="47.8957" lon="-2.46325">
        <ele>68.941239</ele>
        <time>2022-12-13T18:44:28.920Z</time>
      </trkpt>
      <trkpt lat="47.8956" lon="-2.4633">
        <ele>69.001763</ele>
        <time>2022-12-13T18:44:31.920Z</time>
      </trkpt>
      <trkpt lat="47.8955" lon="-2.46336">
        <ele>68.992468</ele>
        <time>2022-12-13T18:44:34.905Z</time>
      </trkpt>
      <trkpt lat="47.8954" lon="-2.46341">
        <ele>68.98364</ele>
        <time>2022-12-13T18:44:37.920Z</time>
      </trkpt>
      <trkpt lat="47.89531" lon="-2.46349">
        <ele>68.97416</ele>
        <time>2022-12-13T18:44:40.907Z</time>
      </trkpt>
      <trkpt lat="47.89521" lon="-2.46357">
        <ele>68.964739</ele>
        <time>2022-12-13T18:44:43.920Z</time>
      </trkpt>
      <trkpt lat="47.8951" lon="-2.46363">
        <ele>68.954847</ele>
        <time>2022-12-13T18:44:46.907Z</time>
      </trkpt>
      <trkpt lat="47.895" lon="-2.46369">
        <ele>68.945314</ele>
        <time>2022-12-13T18:44:49.918Z</time>
      </trkpt>
      <trkpt lat="47.89489" lon="-2.46376">
        <ele>68.935331</ele>
        <time>2022-12-13T18:44:52.921Z</time>
      </trkpt>
      <trkpt lat="47.8948" lon="-2.46382">
        <ele>68.926786</ele>
        <time>2022-12-13T18:44:55.909Z</time>
      </trkpt>
      <trkpt lat="47.89468" lon="-2.46388">
        <ele>68.915586</ele>
        <time>2022-12-13T18:44:59.914Z</time>
      </trkpt>
      <trkpt lat="47.89458" lon="-2.46395">
        <ele>68.906158</ele>
        <time>2022-12-13T18:45:02.915Z</time>
      </trkpt>
      <trkpt lat="47.89447" lon="-2.46401">
        <ele>68.896085</ele>
        <time>2022-12-13T18:45:05.908Z</time>
      </trkpt>
      <trkpt lat="47.89437" lon="-2.46407">
        <ele>68.886896</ele>
        <time>2022-12-13T18:45:08.923Z</time>
      </trkpt>
      <trkpt lat="47.89426" lon="-2.46413">
        <ele>68.87689</ele>
        <time>2022-12-13T18:45:11.921Z</time>
      </trkpt>
      <trkpt lat="47.89416" lon="-2.46421">
        <ele>68.867462</ele>
        <time>2022-12-13T18:45:14.913Z</time>
      </trkpt>
      <trkpt lat="47.89407" lon="-2.46426">
        <ele>68.859337</ele>
        <time>2022-12-13T18:45:17.919Z</time>
      </trkpt>
      <trkpt lat="47.89399" lon="-2.46431">
        <ele>68.85132</ele>
        <time>2022-12-13T18:45:20.920Z</time>
      </trkpt>
      <trkpt lat="47.8939" lon="-2.46439">
        <ele>68.8391</ele>
        <time>2022-12-13T18:45:23.914Z</time>
      </trkpt>
      <trkpt lat="47.89381" lon="-2.46449">
        <ele>68.826325</ele>
        <time>2022-12-13T18:45:26.917Z</time>
      </trkpt>
      <trkpt lat="47.89374" lon="-2.46461">
        <ele>68.813673</ele>
        <time>2022-12-13T18:45:29.923Z</time>
      </trkpt>
      <trkpt lat="47.89369" lon="-2.46475">
        <ele>68.801253</ele>
        <time>2022-12-13T18:45:32.916Z</time>
      </trkpt>
      <trkpt lat="47.89365" lon="-2.46488">
        <ele>68.78995</ele>
        <time>2022-12-13T18:45:35.921Z</time>
      </trkpt>
      <trkpt lat="47.89361" lon="-2.46502">
        <ele>68.77815</ele>
        <time>2022-12-13T18:45:38.915Z</time>
      </trkpt>
      <trkpt lat="47.89357" lon="-2.46518">
        <ele>68.764762</ele>
        <time>2022-12-13T18:45:42.913Z</time>
      </trkpt>
      <trkpt lat="47.89353" lon="-2.46533">
        <ele>68.752243</ele>
        <time>2022-12-13T18:45:46.914Z</time>
      </trkpt>
      <trkpt lat="47.8935" lon="-2.46547">
        <ele>68.741083</ele>
        <time>2022-12-13T18:45:49.920Z</time>
      </trkpt>
      <trkpt lat="47.89348" lon="-2.46563">
        <ele>68.727765</ele>
        <time>2022-12-13T18:45:53.912Z</time>
      </trkpt>
      <trkpt lat="47.89344" lon="-2.46579">
        <ele>68.714995</ele>
        <time>2022-12-13T18:45:57.949Z</time>
      </trkpt>
      <trkpt lat="47.89342" lon="-2.46594">
        <ele>68.702903</ele>
        <time>2022-12-13T18:46:00.918Z</time>
      </trkpt>
      <trkpt lat="47.89339" lon="-2.46608">
        <ele>68.69103</ele>
        <time>2022-12-13T18:46:03.932Z</time>
      </trkpt>
      <trkpt lat="47.89333" lon="-2.46622">
        <ele>68.678668</ele>
        <time>2022-12-13T18:46:06.915Z</time>
      </trkpt>
      <trkpt lat="47.8933" lon="-2.46635">
        <ele>68.667146</ele>
        <time>2022-12-13T18:46:10.912Z</time>
      </trkpt>
      <trkpt lat="47.89326" lon="-2.46652">
        <ele>68.653604</ele>
        <time>2022-12-13T18:46:14.928Z</time>
      </trkpt>
      <trkpt lat="47.89323" lon="-2.46666">
        <ele>68.689255</ele>
        <time>2022-12-13T18:46:17.912Z</time>
      </trkpt>
      <trkpt lat="47.89319" lon="-2.46682">
        <ele>69.866549</ele>
        <time>2022-12-13T18:46:21.924Z</time>
      </trkpt>
      <trkpt lat="47.89314" lon="-2.46694">
        <ele>70.805931</ele>
        <time>2022-12-13T18:46:26.921Z</time>
      </trkpt>
      <trkpt lat="47.89312" lon="-2.46709">
        <ele>71.88456</ele>
        <time>2022-12-13T18:46:31.911Z</time>
      </trkpt>
      <trkpt lat="47.89309" lon="-2.46724">
        <ele>72.942392</ele>
        <time>2022-12-13T18:46:37.908Z</time>
      </trkpt>
      <trkpt lat="47.89307" lon="-2.4674">
        <ele>74.05598</ele>
        <time>2022-12-13T18:46:43.910Z</time>
      </trkpt>
      <trkpt lat="47.89305" lon="-2.46754">
        <ele>75.004962</ele>
        <time>2022-12-13T18:46:49.933Z</time>
      </trkpt>
      <trkpt lat="47.89302" lon="-2.46767">
        <ele>76.007938</ele>
        <time>2022-12-13T18:46:54.909Z</time>
      </trkpt>
      <trkpt lat="47.89303" lon="-2.46782">
        <ele>77.046479</ele>
        <time>2022-12-13T18:47:01.911Z</time>
      </trkpt>
      <trkpt lat="47.893" lon="-2.46795">
        <ele>78.016461</ele>
        <time>2022-12-13T18:47:07.906Z</time>
      </trkpt>
      <trkpt lat="47.89295" lon="-2.46808">
        <ele>78.976577</ele>
        <time>2022-12-13T18:47:12.919Z</time>
      </trkpt>
      <trkpt lat="47.89291" lon="-2.4682">
        <ele>79.929194</ele>
        <time>2022-12-13T18:47:18.948Z</time>
      </trkpt>
      <trkpt lat="47.89287" lon="-2.46833">
        <ele>80.906135</ele>
        <time>2022-12-13T18:47:24.908Z</time>
      </trkpt>
      <trkpt lat="47.89281" lon="-2.46844">
        <ele>81.883161</ele>
        <time>2022-12-13T18:47:30.918Z</time>
      </trkpt>
      <trkpt lat="47.89273" lon="-2.46851">
        <ele>82.80216</ele>
        <time>2022-12-13T18:47:35.917Z</time>
      </trkpt>
      <trkpt lat="47.89263" lon="-2.46851">
        <ele>83.835631</ele>
        <time>2022-12-13T18:47:41.908Z</time>
      </trkpt>
      <trkpt lat="47.89254" lon="-2.46847">
        <ele>84.761154</ele>
        <time>2022-12-13T18:47:46.910Z</time>
      </trkpt>
      <trkpt lat="47.89247" lon="-2.46839">
        <ele>85.720916</ele>
        <time>2022-12-13T18:47:53.910Z</time>
      </trkpt>
      <trkpt lat="47.89246" lon="-2.46825">
        <ele>86.697235</ele>
        <time>2022-12-13T18:47:59.907Z</time>
      </trkpt>
      <trkpt lat="47.89245" lon="-2.46811">
        <ele>87.043098</ele>
        <time>2022-12-13T18:48:05.912Z</time>
      </trkpt>
      <trkpt lat="47.89245" lon="-2.46796">
        <ele>87.043098</ele>
        <time>2022-12-13T18:48:11.912Z</time>
      </trkpt>
      <trkpt lat="47.89246" lon="-2.46783">
        <ele>87.043098</ele>
        <time>2022-12-13T18:48:16.932Z</time>
      </trkpt>
      <trkpt lat="47.89245" lon="-2.46767">
        <ele>87.043098</ele>
        <time>2022-12-13T18:48:22.913Z</time>
      </trkpt>
      <trkpt lat="47.89244" lon="-2.46751">
        <ele>87.043098</ele>
        <time>2022-12-13T18:48:29.919Z</time>
      </trkpt>
      <trkpt lat="47.89245" lon="-2.46737">
        <ele>87.043098</ele>
        <time>2022-12-13T18:48:36.919Z</time>
      </trkpt>
      <trkpt lat="47.89242" lon="-2.46723">
        <ele>87.043098</ele>
        <time>2022-12-13T18:48:42.916Z</time>
      </trkpt>
      <trkpt lat="47.89241" lon="-2.46709">
        <ele>87.043098</ele>
        <time>2022-12-13T18:48:47.909Z</time>
      </trkpt>
      <trkpt lat="47.8924" lon="-2.46693">
        <ele>87.043098</ele>
        <time>2022-12-13T18:48:53.910Z</time>
      </trkpt>
      <trkpt lat="47.89237" lon="-2.46679">
        <ele>87.043098</ele>
        <time>2022-12-13T18:48:59.922Z</time>
      </trkpt>
      <trkpt lat="47.89229" lon="-2.46668">
        <ele>87.043098</ele>
        <time>2022-12-13T18:49:06.909Z</time>
      </trkpt>
      <trkpt lat="47.8922" lon="-2.46662">
        <ele>87.043098</ele>
        <time>2022-12-13T18:49:11.903Z</time>
      </trkpt>
      <trkpt lat="47.89216" lon="-2.4666">
        <ele>87.043098</ele>
        <time>2022-12-13T18:49:37.614Z</time>
        <extensions>
          <visugpx:TrkExtension xmlns:visugpx="https://www.visugpx.com/editgpx/">
            <visugpx:node>1</visugpx:node>
            </visugpx:TrkExtension>
        </extensions>
      </trkpt>
    </trkseg>
  </trk>
  <trk>
    <name><![CDATA[Quilly - Redon]]></name>
    <extensions>
      <line xmlns="http://www.topografix.com/GPX/gpx_style/0/2">
        <color>ff0000</color>
        <width>4</width>
      </line>
    </extensions>
    <trkseg>
      <trkpt lat="47.89098" lon="-2.46675">
        <ele>104.876244</ele>
        <time>2022-12-14T11:53:43.288Z</time>
      </trkpt>
      <trkpt lat="47.89096" lon="-2.46689">
        <ele>104.876244</ele>
        <time>2022-12-14T11:56:10.259Z</time>
      </trkpt>
      <trkpt lat="47.89092" lon="-2.46703">
        <ele>104.876244</ele>
        <time>2022-12-14T11:56:19.280Z</time>
      </trkpt>
      <trkpt lat="47.89094" lon="-2.46717">
        <ele>104.876244</ele>
        <time>2022-12-14T11:56:30.266Z</time>
      </trkpt>
      <trkpt lat="47.89107" lon="-2.46695">
        <ele>104.876244</ele>
        <time>2022-12-14T11:56:59.279Z</time>
      </trkpt>
      <trkpt lat="47.89114" lon="-2.46682">
        <ele>104.876244</ele>
        <time>2022-12-14T11:57:03.279Z</time>
      </trkpt>
      <trkpt lat="47.89121" lon="-2.46669">
        <ele>104.876244</ele>
        <time>2022-12-14T11:57:07.279Z</time>
      </trkpt>
      <trkpt lat="47.8913" lon="-2.46657">
        <ele>104.876244</ele>
        <time>2022-12-14T11:57:11.282Z</time>
      </trkpt>
      <trkpt lat="47.89138" lon="-2.46649">
        <ele>104.591307</ele>
        <time>2022-12-14T11:57:14.281Z</time>
      </trkpt>
      <trkpt lat="47.89147" lon="-2.46642">
        <ele>103.899216</ele>
        <time>2022-12-14T11:57:17.280Z</time>
      </trkpt>
      <trkpt lat="47.89157" lon="-2.46636">
        <ele>103.046453</ele>
        <time>2022-12-14T11:57:21.280Z</time>
      </trkpt>
      <trkpt lat="47.89168" lon="-2.46634">
        <ele>102.266806</ele>
        <time>2022-12-14T11:57:24.283Z</time>
      </trkpt>
      <trkpt lat="47.89178" lon="-2.46634">
        <ele>101.496094</ele>
        <time>2022-12-14T11:57:27.259Z</time>
      </trkpt>
      <trkpt lat="47.89189" lon="-2.46635">
        <ele>100.685813</ele>
        <time>2022-12-14T11:57:30.276Z</time>
      </trkpt>
      <trkpt lat="47.892" lon="-2.46638">
        <ele>99.886727</ele>
        <time>2022-12-14T11:57:33.282Z</time>
      </trkpt>
      <trkpt lat="47.89211" lon="-2.46644">
        <ele>99.056321</ele>
        <time>2022-12-14T11:57:36.283Z</time>
      </trkpt>
      <trkpt lat="47.89221" lon="-2.46652">
        <ele>98.182152</ele>
        <time>2022-12-14T11:57:39.277Z</time>
      </trkpt>
      <trkpt lat="47.8923" lon="-2.46662">
        <ele>97.413976</ele>
        <time>2022-12-14T11:57:42.281Z</time>
      </trkpt>
      <trkpt lat="47.89237" lon="-2.46675">
        <ele>96.536972</ele>
        <time>2022-12-14T11:57:46.282Z</time>
      </trkpt>
      <trkpt lat="47.89244" lon="-2.46689">
        <ele>95.698941</ele>
        <time>2022-12-14T11:57:49.285Z</time>
      </trkpt>
      <trkpt lat="47.89248" lon="-2.46705">
        <ele>94.897206</ele>
        <time>2022-12-14T11:57:52.285Z</time>
      </trkpt>
      <trkpt lat="47.89251" lon="-2.46718">
        <ele>94.220144</ele>
        <time>2022-12-14T11:57:55.280Z</time>
      </trkpt>
      <trkpt lat="47.89252" lon="-2.46736">
        <ele>93.325042</ele>
        <time>2022-12-14T11:57:59.281Z</time>
      </trkpt>
      <trkpt lat="47.89252" lon="-2.46751">
        <ele>92.571508</ele>
        <time>2022-12-14T11:58:02.283Z</time>
      </trkpt>
      <trkpt lat="47.89252" lon="-2.46767">
        <ele>91.78379</ele>
        <time>2022-12-14T11:58:05.274Z</time>
      </trkpt>
      <trkpt lat="47.89252" lon="-2.46783">
        <ele>91.193761</ele>
        <time>2022-12-14T11:58:08.281Z</time>
      </trkpt>
      <trkpt lat="47.89253" lon="-2.468">
        <ele>90.606597</ele>
        <time>2022-12-14T11:58:11.283Z</time>
      </trkpt>
      <trkpt lat="47.89254" lon="-2.46816">
        <ele>90.043154</ele>
        <time>2022-12-14T11:58:14.283Z</time>
      </trkpt>
      <trkpt lat="47.89258" lon="-2.46829">
        <ele>89.542666</ele>
        <time>2022-12-14T11:58:17.278Z</time>
      </trkpt>
      <trkpt lat="47.89266" lon="-2.4684">
        <ele>88.966742</ele>
        <time>2022-12-14T11:58:20.262Z</time>
      </trkpt>
      <trkpt lat="47.89275" lon="-2.46845">
        <ele>88.472665</ele>
        <time>2022-12-14T11:58:23.278Z</time>
      </trkpt>
      <trkpt lat="47.89285" lon="-2.46837">
        <ele>87.868202</ele>
        <time>2022-12-14T11:58:27.281Z</time>
      </trkpt>
      <trkpt lat="47.89292" lon="-2.46823">
        <ele>87.282643</ele>
        <time>2022-12-14T11:58:30.277Z</time>
      </trkpt>
      <trkpt lat="47.89297" lon="-2.46808">
        <ele>86.707372</ele>
        <time>2022-12-14T11:58:33.282Z</time>
      </trkpt>
      <trkpt lat="47.893" lon="-2.46794">
        <ele>86.172426</ele>
        <time>2022-12-14T11:58:36.283Z</time>
      </trkpt>
      <trkpt lat="47.89305" lon="-2.4678">
        <ele>85.615749</ele>
        <time>2022-12-14T11:58:39.281Z</time>
      </trkpt>
      <trkpt lat="47.8931" lon="-2.46763">
        <ele>84.978364</ele>
        <time>2022-12-14T11:58:42.284Z</time>
      </trkpt>
      <trkpt lat="47.89312" lon="-2.4675">
        <ele>84.509721</ele>
        <time>2022-12-14T11:58:44.263Z</time>
      </trkpt>
      <trkpt lat="47.89314" lon="-2.46734">
        <ele>83.936275</ele>
        <time>2022-12-14T11:58:46.281Z</time>
      </trkpt>
      <trkpt lat="47.89315" lon="-2.46717">
        <ele>83.336739</ele>
        <time>2022-12-14T11:58:48.283Z</time>
      </trkpt>
      <trkpt lat="47.89317" lon="-2.46701">
        <ele>82.788271</ele>
        <time>2022-12-14T11:58:50.283Z</time>
      </trkpt>
      <trkpt lat="47.89321" lon="-2.46684">
        <ele>82.230513</ele>
        <time>2022-12-14T11:58:52.280Z</time>
      </trkpt>
      <trkpt lat="47.89323" lon="-2.46668">
        <ele>81.879512</ele>
        <time>2022-12-14T11:58:54.281Z</time>
      </trkpt>
      <trkpt lat="47.89326" lon="-2.46651">
        <ele>81.510578</ele>
        <time>2022-12-14T11:58:56.272Z</time>
      </trkpt>
      <trkpt lat="47.8933" lon="-2.46634">
        <ele>81.128185</ele>
        <time>2022-12-14T11:58:58.274Z</time>
      </trkpt>
      <trkpt lat="47.89333" lon="-2.46618">
        <ele>80.784992</ele>
        <time>2022-12-14T11:59:00.283Z</time>
      </trkpt>
      <trkpt lat="47.89335" lon="-2.46604">
        <ele>80.468794</ele>
        <time>2022-12-14T11:59:02.282Z</time>
      </trkpt>
      <trkpt lat="47.89339" lon="-2.46588">
        <ele>80.105881</ele>
        <time>2022-12-14T11:59:04.269Z</time>
      </trkpt>
      <trkpt lat="47.89344" lon="-2.46572">
        <ele>79.740354</ele>
        <time>2022-12-14T11:59:06.264Z</time>
      </trkpt>
      <trkpt lat="47.89347" lon="-2.46557">
        <ele>79.413391</ele>
        <time>2022-12-14T11:59:08.267Z</time>
      </trkpt>
      <trkpt lat="47.89348" lon="-2.46542">
        <ele>79.093937</ele>
        <time>2022-12-14T11:59:10.279Z</time>
      </trkpt>
      <trkpt lat="47.89351" lon="-2.46527">
        <ele>78.770399</ele>
        <time>2022-12-14T11:59:12.280Z</time>
      </trkpt>
      <trkpt lat="47.89353" lon="-2.46514">
        <ele>78.475845</ele>
        <time>2022-12-14T11:59:14.278Z</time>
      </trkpt>
      <trkpt lat="47.89358" lon="-2.46496">
        <ele>78.069327</ele>
        <time>2022-12-14T11:59:17.279Z</time>
      </trkpt>
      <trkpt lat="47.89363" lon="-2.46478">
        <ele>77.649098</ele>
        <time>2022-12-14T11:59:20.274Z</time>
      </trkpt>
      <trkpt lat="47.89369" lon="-2.46461">
        <ele>77.24573</ele>
        <time>2022-12-14T11:59:23.282Z</time>
      </trkpt>
      <trkpt lat="47.89375" lon="-2.46449">
        <ele>76.917085</ele>
        <time>2022-12-14T11:59:25.268Z</time>
      </trkpt>
      <trkpt lat="47.89382" lon="-2.46438">
        <ele>76.631282</ele>
        <time>2022-12-14T11:59:27.283Z</time>
      </trkpt>
      <trkpt lat="47.8939" lon="-2.4643">
        <ele>76.480266</ele>
        <time>2022-12-14T11:59:29.285Z</time>
      </trkpt>
      <trkpt lat="47.89399" lon="-2.46424">
        <ele>76.333363</ele>
        <time>2022-12-14T11:59:31.278Z</time>
      </trkpt>
      <trkpt lat="47.89412" lon="-2.46416">
        <ele>76.113283</ele>
        <time>2022-12-14T11:59:34.276Z</time>
      </trkpt>
      <trkpt lat="47.89422" lon="-2.46411">
        <ele>75.945255</ele>
        <time>2022-12-14T11:59:36.282Z</time>
      </trkpt>
      <trkpt lat="47.89435" lon="-2.46404">
        <ele>75.737793</ele>
        <time>2022-12-14T11:59:39.280Z</time>
      </trkpt>
      <trkpt lat="47.89446" lon="-2.46398">
        <ele>75.552776</ele>
        <time>2022-12-14T11:59:42.287Z</time>
      </trkpt>
      <trkpt lat="47.89455" lon="-2.46393">
        <ele>75.39917</ele>
        <time>2022-12-14T11:59:45.283Z</time>
      </trkpt>
      <trkpt lat="47.89464" lon="-2.46387">
        <ele>75.25366</ele>
        <time>2022-12-14T11:59:48.280Z</time>
      </trkpt>
      <trkpt lat="47.89473" lon="-2.46381">
        <ele>75.100764</ele>
        <time>2022-12-14T11:59:51.280Z</time>
      </trkpt>
      <trkpt lat="47.89485" lon="-2.46374">
        <ele>74.901998</ele>
        <time>2022-12-14T11:59:54.272Z</time>
      </trkpt>
      <trkpt lat="47.89496" lon="-2.46368">
        <ele>74.719096</ele>
        <time>2022-12-14T11:59:57.281Z</time>
      </trkpt>
      <trkpt lat="47.89507" lon="-2.46361">
        <ele>74.53914</ele>
        <time>2022-12-14T12:00:00.259Z</time>
      </trkpt>
      <trkpt lat="47.89516" lon="-2.46356">
        <ele>74.386245</ele>
        <time>2022-12-14T12:00:03.282Z</time>
      </trkpt>
      <trkpt lat="47.89527" lon="-2.46349">
        <ele>74.208652</ele>
        <time>2022-12-14T12:00:06.273Z</time>
      </trkpt>
      <trkpt lat="47.89538" lon="-2.46342">
        <ele>74.017857</ele>
        <time>2022-12-14T12:00:09.284Z</time>
      </trkpt>
      <trkpt lat="47.89549" lon="-2.46335">
        <ele>73.866378</ele>
        <time>2022-12-14T12:00:12.283Z</time>
      </trkpt>
      <trkpt lat="47.8956" lon="-2.46329">
        <ele>73.869359</ele>
        <time>2022-12-14T12:00:15.278Z</time>
      </trkpt>
      <trkpt lat="47.89572" lon="-2.46322">
        <ele>73.87242</ele>
        <time>2022-12-14T12:00:18.282Z</time>
      </trkpt>
      <trkpt lat="47.89583" lon="-2.46314">
        <ele>73.875441</ele>
        <time>2022-12-14T12:00:21.282Z</time>
      </trkpt>
      <trkpt lat="47.89592" lon="-2.46308">
        <ele>73.87798</ele>
        <time>2022-12-14T12:00:24.282Z</time>
      </trkpt>
      <trkpt lat="47.89602" lon="-2.46303">
        <ele>73.880442</ele>
        <time>2022-12-14T12:00:27.275Z</time>
      </trkpt>
      <trkpt lat="47.89611" lon="-2.46297">
        <ele>73.88301</ele>
        <time>2022-12-14T12:00:30.284Z</time>
      </trkpt>
      <trkpt lat="47.89622" lon="-2.46289">
        <ele>73.88592</ele>
        <time>2022-12-14T12:00:33.282Z</time>
      </trkpt>
      <trkpt lat="47.89634" lon="-2.46283">
        <ele>73.889132</ele>
        <time>2022-12-14T12:00:36.284Z</time>
      </trkpt>
      <trkpt lat="47.89645" lon="-2.46276">
        <ele>73.891997</ele>
        <time>2022-12-14T12:00:39.257Z</time>
      </trkpt>
      <trkpt lat="47.89655" lon="-2.46271">
        <ele>73.894638</ele>
        <time>2022-12-14T12:00:42.280Z</time>
      </trkpt>
      <trkpt lat="47.89666" lon="-2.46264">
        <ele>73.897501</ele>
        <time>2022-12-14T12:00:46.274Z</time>
      </trkpt>
      <trkpt lat="47.89676" lon="-2.46259">
        <ele>73.900224</ele>
        <time>2022-12-14T12:00:49.279Z</time>
      </trkpt>
      <trkpt lat="47.89687" lon="-2.46252">
        <ele>73.903074</ele>
        <time>2022-12-14T12:00:52.283Z</time>
      </trkpt>
      <trkpt lat="47.89699" lon="-2.46245">
        <ele>73.906263</ele>
        <time>2022-12-14T12:00:55.275Z</time>
      </trkpt>
      <trkpt lat="47.89711" lon="-2.46238">
        <ele>73.909453</ele>
        <time>2022-12-14T12:00:58.283Z</time>
      </trkpt>
      <trkpt lat="47.89723" lon="-2.4623">
        <ele>73.812639</ele>
        <time>2022-12-14T12:01:01.283Z</time>
      </trkpt>
      <trkpt lat="47.89735" lon="-2.46223">
        <ele>73.675366</ele>
        <time>2022-12-14T12:01:04.283Z</time>
      </trkpt>
      <trkpt lat="47.89744" lon="-2.46218">
        <ele>73.579396</ele>
        <time>2022-12-14T12:01:06.284Z</time>
      </trkpt>
      <trkpt lat="47.89752" lon="-2.46212">
        <ele>73.486674</ele>
        <time>2022-12-14T12:01:08.285Z</time>
      </trkpt>
      <trkpt lat="47.89761" lon="-2.46207">
        <ele>73.390957</ele>
        <time>2022-12-14T12:01:10.262Z</time>
      </trkpt>
      <trkpt lat="47.89773" lon="-2.462">
        <ele>73.254892</ele>
        <time>2022-12-14T12:01:13.282Z</time>
      </trkpt>
      <trkpt lat="47.89786" lon="-2.46193">
        <ele>73.117215</ele>
        <time>2022-12-14T12:01:16.281Z</time>
      </trkpt>
      <trkpt lat="47.89796" lon="-2.46186">
        <ele>72.99872</ele>
        <time>2022-12-14T12:01:19.281Z</time>
      </trkpt>
      <trkpt lat="47.89809" lon="-2.4618">
        <ele>72.859817</ele>
        <time>2022-12-14T12:01:22.275Z</time>
      </trkpt>
      <trkpt lat="47.89818" lon="-2.46175">
        <ele>72.766183</ele>
        <time>2022-12-14T12:01:24.276Z</time>
      </trkpt>
      <trkpt lat="47.89831" lon="-2.46169">
        <ele>72.62782</ele>
        <time>2022-12-14T12:01:27.265Z</time>
      </trkpt>
      <trkpt lat="47.89843" lon="-2.46166">
        <ele>72.49733</ele>
        <time>2022-12-14T12:01:30.258Z</time>
      </trkpt>
      <trkpt lat="47.89856" lon="-2.46164">
        <ele>72.370844</ele>
        <time>2022-12-14T12:01:33.281Z</time>
      </trkpt>
      <trkpt lat="47.89868" lon="-2.46164">
        <ele>72.243844</ele>
        <time>2022-12-14T12:01:36.276Z</time>
      </trkpt>
      <trkpt lat="47.89881" lon="-2.46165">
        <ele>72.111405</ele>
        <time>2022-12-14T12:01:39.282Z</time>
      </trkpt>
      <trkpt lat="47.89894" lon="-2.46168">
        <ele>71.957576</ele>
        <time>2022-12-14T12:01:42.283Z</time>
      </trkpt>
      <trkpt lat="47.89907" lon="-2.46172">
        <ele>71.796985</ele>
        <time>2022-12-14T12:01:45.286Z</time>
      </trkpt>
      <trkpt lat="47.89919" lon="-2.46177">
        <ele>71.644586</ele>
        <time>2022-12-14T12:01:48.282Z</time>
      </trkpt>
      <trkpt lat="47.8993" lon="-2.4618">
        <ele>71.510389</ele>
        <time>2022-12-14T12:01:51.281Z</time>
      </trkpt>
      <trkpt lat="47.89941" lon="-2.46184">
        <ele>71.36692</ele>
        <time>2022-12-14T12:01:54.281Z</time>
      </trkpt>
      <trkpt lat="47.89952" lon="-2.46188">
        <ele>71.229803</ele>
        <time>2022-12-14T12:01:57.282Z</time>
      </trkpt>
      <trkpt lat="47.89962" lon="-2.46192">
        <ele>71.09945</ele>
        <time>2022-12-14T12:02:00.281Z</time>
      </trkpt>
      <trkpt lat="47.89972" lon="-2.46195">
        <ele>70.980336</ele>
        <time>2022-12-14T12:02:03.275Z</time>
      </trkpt>
      <trkpt lat="47.89982" lon="-2.462">
        <ele>70.845133</ele>
        <time>2022-12-14T12:02:07.276Z</time>
      </trkpt>
      <trkpt lat="47.89991" lon="-2.46205">
        <ele>70.726734</ele>
        <time>2022-12-14T12:02:11.278Z</time>
      </trkpt>
      <trkpt lat="47.90001" lon="-2.46204">
        <ele>70.601009</ele>
        <time>2022-12-14T12:02:16.282Z</time>
      </trkpt>
      <trkpt lat="47.90008" lon="-2.46186">
        <ele>70.431918</ele>
        <time>2022-12-14T12:02:19.276Z</time>
      </trkpt>
      <trkpt lat="47.90013" lon="-2.4617">
        <ele>70.295007</ele>
        <time>2022-12-14T12:02:21.277Z</time>
      </trkpt>
      <trkpt lat="47.90016" lon="-2.46154">
        <ele>70.153484</ele>
        <time>2022-12-14T12:02:23.262Z</time>
      </trkpt>
      <trkpt lat="47.9002" lon="-2.46138">
        <ele>70.009967</ele>
        <time>2022-12-14T12:02:25.281Z</time>
      </trkpt>
      <trkpt lat="47.90024" lon="-2.46125">
        <ele>69.899031</ele>
        <time>2022-12-14T12:02:27.279Z</time>
      </trkpt>
      <trkpt lat="47.90027" lon="-2.46109">
        <ele>69.852202</ele>
        <time>2022-12-14T12:02:31.281Z</time>
      </trkpt>
      <trkpt lat="47.90027" lon="-2.46093">
        <ele>69.838733</ele>
        <time>2022-12-14T12:02:35.270Z</time>
      </trkpt>
      <trkpt lat="47.90029" lon="-2.46079">
        <ele>69.827722</ele>
        <time>2022-12-14T12:02:38.280Z</time>
      </trkpt>
      <trkpt lat="47.90031" lon="-2.4606">
        <ele>69.812266</ele>
        <time>2022-12-14T12:02:42.282Z</time>
      </trkpt>
      <trkpt lat="47.90033" lon="-2.46046">
        <ele>69.800505</ele>
        <time>2022-12-14T12:02:46.282Z</time>
      </trkpt>
      <trkpt lat="47.90031" lon="-2.46019">
        <ele>69.778178</ele>
        <time>2022-12-14T12:03:23.275Z</time>
      </trkpt>
      <trkpt lat="47.90031" lon="-2.46003">
        <ele>69.765431</ele>
        <time>2022-12-14T12:03:27.280Z</time>
      </trkpt>
      <trkpt lat="47.90032" lon="-2.45988">
        <ele>69.753177</ele>
        <time>2022-12-14T12:03:30.283Z</time>
      </trkpt>
      <trkpt lat="47.90032" lon="-2.45973">
        <ele>69.741017</ele>
        <time>2022-12-14T12:03:33.281Z</time>
      </trkpt>
      <trkpt lat="47.90032" lon="-2.45957">
        <ele>69.728291</ele>
        <time>2022-12-14T12:03:36.274Z</time>
      </trkpt>
      <trkpt lat="47.90032" lon="-2.45942">
        <ele>69.716366</ele>
        <time>2022-12-14T12:03:39.282Z</time>
      </trkpt>
      <trkpt lat="47.90032" lon="-2.45927">
        <ele>69.703884</ele>
        <time>2022-12-14T12:03:42.283Z</time>
      </trkpt>
      <trkpt lat="47.90031" lon="-2.45912">
        <ele>69.691591</ele>
        <time>2022-12-14T12:03:45.277Z</time>
      </trkpt>
      <trkpt lat="47.9003" lon="-2.45898">
        <ele>69.680283</ele>
        <time>2022-12-14T12:03:51.282Z</time>
      </trkpt>
      <trkpt lat="47.90027" lon="-2.45883">
        <ele>69.66706</ele>
        <time>2022-12-14T12:03:58.259Z</time>
      </trkpt>
      <trkpt lat="47.90023" lon="-2.45867">
        <ele>69.653869</ele>
        <time>2022-12-14T12:04:03.345Z</time>
      </trkpt>
      <trkpt lat="47.90018" lon="-2.45855">
        <ele>69.631996</ele>
        <time>2022-12-14T12:04:06.264Z</time>
      </trkpt>
      <trkpt lat="47.90011" lon="-2.45841">
        <ele>69.555153</ele>
        <time>2022-12-14T12:04:09.281Z</time>
      </trkpt>
      <trkpt lat="47.90002" lon="-2.45829">
        <ele>69.473298</ele>
        <time>2022-12-14T12:04:12.282Z</time>
      </trkpt>
      <trkpt lat="47.89994" lon="-2.45817">
        <ele>69.393473</ele>
        <time>2022-12-14T12:04:15.282Z</time>
      </trkpt>
      <trkpt lat="47.89985" lon="-2.45806">
        <ele>69.317808</ele>
        <time>2022-12-14T12:04:18.281Z</time>
      </trkpt>
      <trkpt lat="47.89975" lon="-2.45796">
        <ele>69.237657</ele>
        <time>2022-12-14T12:04:21.267Z</time>
      </trkpt>
      <trkpt lat="47.89964" lon="-2.45787">
        <ele>69.154292</ele>
        <time>2022-12-14T12:04:24.271Z</time>
      </trkpt>
      <trkpt lat="47.89953" lon="-2.45778">
        <ele>69.073462</ele>
        <time>2022-12-14T12:04:27.281Z</time>
      </trkpt>
      <trkpt lat="47.89945" lon="-2.4577">
        <ele>69.008017</ele>
        <time>2022-12-14T12:04:30.294Z</time>
      </trkpt>
      <trkpt lat="47.89935" lon="-2.45762">
        <ele>68.93216</ele>
        <time>2022-12-14T12:04:33.283Z</time>
      </trkpt>
      <trkpt lat="47.89926" lon="-2.45755">
        <ele>68.86222</ele>
        <time>2022-12-14T12:04:36.281Z</time>
      </trkpt>
      <trkpt lat="47.89916" lon="-2.45745">
        <ele>68.782964</ele>
        <time>2022-12-14T12:04:39.285Z</time>
      </trkpt>
      <trkpt lat="47.89905" lon="-2.45737">
        <ele>68.7023</ele>
        <time>2022-12-14T12:04:42.282Z</time>
      </trkpt>
      <trkpt lat="47.89894" lon="-2.45728">
        <ele>68.616099</ele>
        <time>2022-12-14T12:04:45.289Z</time>
      </trkpt>
      <trkpt lat="47.89883" lon="-2.45721">
        <ele>68.537066</ele>
        <time>2022-12-14T12:04:48.281Z</time>
      </trkpt>
      <trkpt lat="47.89873" lon="-2.45714">
        <ele>68.464235</ele>
        <time>2022-12-14T12:04:51.283Z</time>
      </trkpt>
      <trkpt lat="47.89862" lon="-2.45708">
        <ele>68.535497</ele>
        <time>2022-12-14T12:04:54.283Z</time>
      </trkpt>
      <trkpt lat="47.89853" lon="-2.45703">
        <ele>68.63943</ele>
        <time>2022-12-14T12:04:57.283Z</time>
      </trkpt>
      <trkpt lat="47.89844" lon="-2.45698">
        <ele>68.739601</ele>
        <time>2022-12-14T12:05:00.285Z</time>
      </trkpt>
      <trkpt lat="47.89835" lon="-2.45694">
        <ele>68.835578</ele>
        <time>2022-12-14T12:05:03.284Z</time>
      </trkpt>
      <trkpt lat="47.89826" lon="-2.45688">
        <ele>68.943291</ele>
        <time>2022-12-14T12:05:06.280Z</time>
      </trkpt>
      <trkpt lat="47.89816" lon="-2.45682">
        <ele>69.055195</ele>
        <time>2022-12-14T12:05:09.281Z</time>
      </trkpt>
      <trkpt lat="47.89805" lon="-2.45674">
        <ele>69.1861</ele>
        <time>2022-12-14T12:05:12.357Z</time>
      </trkpt>
      <trkpt lat="47.89793" lon="-2.45668">
        <ele>69.326298</ele>
        <time>2022-12-14T12:05:15.282Z</time>
      </trkpt>
      <trkpt lat="47.8978" lon="-2.4566">
        <ele>69.468009</ele>
        <time>2022-12-14T12:05:18.359Z</time>
      </trkpt>
      <trkpt lat="47.89772" lon="-2.45655">
        <ele>69.56611</ele>
        <time>2022-12-14T12:05:20.280Z</time>
      </trkpt>
      <trkpt lat="47.89763" lon="-2.45648">
        <ele>69.668608</ele>
        <time>2022-12-14T12:05:22.262Z</time>
      </trkpt>
      <trkpt lat="47.89755" lon="-2.45642">
        <ele>69.768573</ele>
        <time>2022-12-14T12:05:24.329Z</time>
      </trkpt>
      <trkpt lat="47.89743" lon="-2.45634">
        <ele>69.909453</ele>
        <time>2022-12-14T12:05:27.282Z</time>
      </trkpt>
      <trkpt lat="47.89731" lon="-2.45623">
        <ele>70.049699</ele>
        <time>2022-12-14T12:05:30.328Z</time>
      </trkpt>
      <trkpt lat="47.8972" lon="-2.45613">
        <ele>70.189739</ele>
        <time>2022-12-14T12:05:33.285Z</time>
      </trkpt>
      <trkpt lat="47.89713" lon="-2.45605">
        <ele>70.286458</ele>
        <time>2022-12-14T12:05:35.286Z</time>
      </trkpt>
      <trkpt lat="47.89703" lon="-2.45594">
        <ele>70.298259</ele>
        <time>2022-12-14T12:05:38.290Z</time>
      </trkpt>
      <trkpt lat="47.89692" lon="-2.45583">
        <ele>70.182975</ele>
        <time>2022-12-14T12:05:41.283Z</time>
      </trkpt>
      <trkpt lat="47.89681" lon="-2.45572">
        <ele>70.061813</ele>
        <time>2022-12-14T12:05:44.270Z</time>
      </trkpt>
      <trkpt lat="47.89671" lon="-2.4556">
        <ele>69.943662</ele>
        <time>2022-12-14T12:05:47.281Z</time>
      </trkpt>
      <trkpt lat="47.89661" lon="-2.4555">
        <ele>69.833715</ele>
        <time>2022-12-14T12:05:50.281Z</time>
      </trkpt>
      <trkpt lat="47.89652" lon="-2.4554">
        <ele>69.727605</ele>
        <time>2022-12-14T12:05:53.330Z</time>
      </trkpt>
      <trkpt lat="47.89642" lon="-2.45529">
        <ele>69.616702</ele>
        <time>2022-12-14T12:05:56.281Z</time>
      </trkpt>
      <trkpt lat="47.89631" lon="-2.45519">
        <ele>69.500285</ele>
        <time>2022-12-14T12:05:59.343Z</time>
      </trkpt>
      <trkpt lat="47.89623" lon="-2.45513">
        <ele>69.418825</ele>
        <time>2022-12-14T12:06:01.280Z</time>
      </trkpt>
      <trkpt lat="47.89611" lon="-2.45504">
        <ele>69.299019</ele>
        <time>2022-12-14T12:06:04.284Z</time>
      </trkpt>
      <trkpt lat="47.89599" lon="-2.45497">
        <ele>69.179207</ele>
        <time>2022-12-14T12:06:07.283Z</time>
      </trkpt>
      <trkpt lat="47.89586" lon="-2.4549">
        <ele>69.057256</ele>
        <time>2022-12-14T12:06:10.257Z</time>
      </trkpt>
      <trkpt lat="47.89574" lon="-2.45485">
        <ele>68.942318</ele>
        <time>2022-12-14T12:06:13.283Z</time>
      </trkpt>
      <trkpt lat="47.89563" lon="-2.45481">
        <ele>68.833515</ele>
        <time>2022-12-14T12:06:16.285Z</time>
      </trkpt>
      <trkpt lat="47.89551" lon="-2.45476">
        <ele>68.726835</ele>
        <time>2022-12-14T12:06:19.282Z</time>
      </trkpt>
      <trkpt lat="47.89539" lon="-2.45472">
        <ele>68.58807</ele>
        <time>2022-12-14T12:06:22.331Z</time>
      </trkpt>
      <trkpt lat="47.89527" lon="-2.45467">
        <ele>68.448599</ele>
        <time>2022-12-14T12:06:25.283Z</time>
      </trkpt>
      <trkpt lat="47.89516" lon="-2.45462">
        <ele>68.312837</ele>
        <time>2022-12-14T12:06:28.333Z</time>
      </trkpt>
      <trkpt lat="47.89505" lon="-2.45455">
        <ele>68.184547</ele>
        <time>2022-12-14T12:06:31.263Z</time>
      </trkpt>
      <trkpt lat="47.89495" lon="-2.45445">
        <ele>68.050824</ele>
        <time>2022-12-14T12:06:34.361Z</time>
      </trkpt>
      <trkpt lat="47.89487" lon="-2.45433">
        <ele>67.913744</ele>
        <time>2022-12-14T12:06:37.283Z</time>
      </trkpt>
      <trkpt lat="47.89478" lon="-2.45419">
        <ele>67.775383</ele>
        <time>2022-12-14T12:06:40.357Z</time>
      </trkpt>
      <trkpt lat="47.8947" lon="-2.45407">
        <ele>67.646651</ele>
        <time>2022-12-14T12:06:43.283Z</time>
      </trkpt>
      <trkpt lat="47.89462" lon="-2.45398">
        <ele>67.526194</ele>
        <time>2022-12-14T12:06:46.339Z</time>
      </trkpt>
      <trkpt lat="47.89454" lon="-2.4539">
        <ele>67.423755</ele>
        <time>2022-12-14T12:06:49.282Z</time>
      </trkpt>
      <trkpt lat="47.89446" lon="-2.45383">
        <ele>67.316253</ele>
        <time>2022-12-14T12:06:52.337Z</time>
      </trkpt>
      <trkpt lat="47.89436" lon="-2.45376">
        <ele>67.195164</ele>
        <time>2022-12-14T12:06:55.288Z</time>
      </trkpt>
      <trkpt lat="47.89427" lon="-2.4537">
        <ele>67.081819</ele>
        <time>2022-12-14T12:06:58.333Z</time>
      </trkpt>
      <trkpt lat="47.89417" lon="-2.45365">
        <ele>66.958601</ele>
        <time>2022-12-14T12:07:01.284Z</time>
      </trkpt>
      <trkpt lat="47.89405" lon="-2.45363">
        <ele>66.829542</ele>
        <time>2022-12-14T12:07:04.354Z</time>
      </trkpt>
      <trkpt lat="47.89394" lon="-2.45361">
        <ele>66.699055</ele>
        <time>2022-12-14T12:07:07.284Z</time>
      </trkpt>
      <trkpt lat="47.89384" lon="-2.45359">
        <ele>66.751692</ele>
        <time>2022-12-14T12:07:10.333Z</time>
      </trkpt>
      <trkpt lat="47.89372" lon="-2.45357">
        <ele>66.835206</ele>
        <time>2022-12-14T12:07:13.281Z</time>
      </trkpt>
      <trkpt lat="47.8936" lon="-2.45353">
        <ele>66.918985</ele>
        <time>2022-12-14T12:07:16.358Z</time>
      </trkpt>
      <trkpt lat="47.89348" lon="-2.45349">
        <ele>67.009719</ele>
        <time>2022-12-14T12:07:19.283Z</time>
      </trkpt>
      <trkpt lat="47.89335" lon="-2.45345">
        <ele>67.097711</ele>
        <time>2022-12-14T12:07:22.343Z</time>
      </trkpt>
      <trkpt lat="47.89324" lon="-2.45339">
        <ele>67.18206</ele>
        <time>2022-12-14T12:07:25.286Z</time>
      </trkpt>
      <trkpt lat="47.89311" lon="-2.45335">
        <ele>67.273796</ele>
        <time>2022-12-14T12:07:28.272Z</time>
      </trkpt>
      <trkpt lat="47.89298" lon="-2.4533">
        <ele>67.368649</ele>
        <time>2022-12-14T12:07:31.295Z</time>
      </trkpt>
      <trkpt lat="47.89289" lon="-2.45328">
        <ele>67.435233</ele>
        <time>2022-12-14T12:07:33.337Z</time>
      </trkpt>
      <trkpt lat="47.89276" lon="-2.45324">
        <ele>67.525056</ele>
        <time>2022-12-14T12:07:36.282Z</time>
      </trkpt>
      <trkpt lat="47.89263" lon="-2.45321">
        <ele>67.61618</ele>
        <time>2022-12-14T12:07:39.286Z</time>
      </trkpt>
      <trkpt lat="47.89251" lon="-2.45317">
        <ele>67.703846</ele>
        <time>2022-12-14T12:07:42.284Z</time>
      </trkpt>
      <trkpt lat="47.8924" lon="-2.45315">
        <ele>67.781497</ele>
        <time>2022-12-14T12:07:45.341Z</time>
      </trkpt>
      <trkpt lat="47.89229" lon="-2.45311">
        <ele>67.865854</ele>
        <time>2022-12-14T12:07:48.284Z</time>
      </trkpt>
      <trkpt lat="47.8922" lon="-2.45308">
        <ele>67.9295</ele>
        <time>2022-12-14T12:07:50.279Z</time>
      </trkpt>
      <trkpt lat="47.89207" lon="-2.45303">
        <ele>67.927015</ele>
        <time>2022-12-14T12:07:53.283Z</time>
      </trkpt>
      <trkpt lat="47.89194" lon="-2.45297">
        <ele>67.89775</ele>
        <time>2022-12-14T12:07:56.283Z</time>
      </trkpt>
      <trkpt lat="47.89181" lon="-2.45291">
        <ele>67.86747</ele>
        <time>2022-12-14T12:07:59.285Z</time>
      </trkpt>
      <trkpt lat="47.89168" lon="-2.45286">
        <ele>67.83785</ele>
        <time>2022-12-14T12:08:02.284Z</time>
      </trkpt>
      <trkpt lat="47.89157" lon="-2.45281">
        <ele>67.81085</ele>
        <time>2022-12-14T12:08:05.286Z</time>
      </trkpt>
      <trkpt lat="47.89145" lon="-2.45276">
        <ele>67.78338</ele>
        <time>2022-12-14T12:08:08.284Z</time>
      </trkpt>
      <trkpt lat="47.89133" lon="-2.45272">
        <ele>67.75552</ele>
        <time>2022-12-14T12:08:11.264Z</time>
      </trkpt>
      <trkpt lat="47.8912" lon="-2.45267">
        <ele>67.726938</ele>
        <time>2022-12-14T12:08:14.282Z</time>
      </trkpt>
      <trkpt lat="47.89111" lon="-2.45264">
        <ele>67.706748</ele>
        <time>2022-12-14T12:08:16.283Z</time>
      </trkpt>
      <trkpt lat="47.89102" lon="-2.45261">
        <ele>67.686291</ele>
        <time>2022-12-14T12:08:18.265Z</time>
      </trkpt>
      <trkpt lat="47.89089" lon="-2.45256">
        <ele>67.655695</ele>
        <time>2022-12-14T12:08:21.285Z</time>
      </trkpt>
      <trkpt lat="47.89077" lon="-2.45252">
        <ele>67.627263</ele>
        <time>2022-12-14T12:08:24.269Z</time>
      </trkpt>
      <trkpt lat="47.89064" lon="-2.45247">
        <ele>67.597783</ele>
        <time>2022-12-14T12:08:27.285Z</time>
      </trkpt>
      <trkpt lat="47.89051" lon="-2.45242">
        <ele>67.567437</ele>
        <time>2022-12-14T12:08:30.283Z</time>
      </trkpt>
      <trkpt lat="47.89042" lon="-2.4524">
        <ele>67.543603</ele>
        <time>2022-12-14T12:08:32.337Z</time>
      </trkpt>
      <trkpt lat="47.89029" lon="-2.45237">
        <ele>67.477114</ele>
        <time>2022-12-14T12:08:35.284Z</time>
      </trkpt>
      <trkpt lat="47.89019" lon="-2.45236">
        <ele>67.430083</ele>
        <time>2022-12-14T12:08:37.284Z</time>
      </trkpt>
      <trkpt lat="47.89006" lon="-2.45234">
        <ele>67.361623</ele>
        <time>2022-12-14T12:08:40.282Z</time>
      </trkpt>
      <trkpt lat="47.88997" lon="-2.45234">
        <ele>67.314769</ele>
        <time>2022-12-14T12:08:42.281Z</time>
      </trkpt>
      <trkpt lat="47.88984" lon="-2.45235">
        <ele>67.246995</ele>
        <time>2022-12-14T12:08:45.284Z</time>
      </trkpt>
      <trkpt lat="47.88971" lon="-2.45238">
        <ele>67.184352</ele>
        <time>2022-12-14T12:08:48.284Z</time>
      </trkpt>
      <trkpt lat="47.8896" lon="-2.45243">
        <ele>67.124699</ele>
        <time>2022-12-14T12:08:51.285Z</time>
      </trkpt>
      <trkpt lat="47.88948" lon="-2.45249">
        <ele>67.060871</ele>
        <time>2022-12-14T12:08:54.285Z</time>
      </trkpt>
      <trkpt lat="47.88936" lon="-2.45257">
        <ele>66.992466</ele>
        <time>2022-12-14T12:08:57.283Z</time>
      </trkpt>
      <trkpt lat="47.88928" lon="-2.45262">
        <ele>66.946148</ele>
        <time>2022-12-14T12:08:59.285Z</time>
      </trkpt>
      <trkpt lat="47.88916" lon="-2.4527">
        <ele>66.880277</ele>
        <time>2022-12-14T12:09:02.339Z</time>
      </trkpt>
      <trkpt lat="47.88905" lon="-2.45277">
        <ele>66.820354</ele>
        <time>2022-12-14T12:09:05.285Z</time>
      </trkpt>
      <trkpt lat="47.88894" lon="-2.45282">
        <ele>66.760787</ele>
        <time>2022-12-14T12:09:08.335Z</time>
      </trkpt>
      <trkpt lat="47.88884" lon="-2.45287">
        <ele>66.706712</ele>
        <time>2022-12-14T12:09:11.283Z</time>
      </trkpt>
      <trkpt lat="47.88874" lon="-2.45289">
        <ele>66.658448</ele>
        <time>2022-12-14T12:09:14.358Z</time>
      </trkpt>
      <trkpt lat="47.88864" lon="-2.45287">
        <ele>66.537485</ele>
        <time>2022-12-14T12:09:17.284Z</time>
      </trkpt>
      <trkpt lat="47.88852" lon="-2.45282">
        <ele>66.335337</ele>
        <time>2022-12-14T12:09:20.338Z</time>
      </trkpt>
      <trkpt lat="47.88841" lon="-2.45272">
        <ele>66.12701</ele>
        <time>2022-12-14T12:09:23.283Z</time>
      </trkpt>
      <trkpt lat="47.88832" lon="-2.45259">
        <ele>65.907924</ele>
        <time>2022-12-14T12:09:26.271Z</time>
      </trkpt>
      <trkpt lat="47.88825" lon="-2.45249">
        <ele>65.752443</ele>
        <time>2022-12-14T12:09:28.282Z</time>
      </trkpt>
      <trkpt lat="47.88819" lon="-2.4524">
        <ele>65.600918</ele>
        <time>2022-12-14T12:09:30.283Z</time>
      </trkpt>
      <trkpt lat="47.88809" lon="-2.45225">
        <ele>65.37583</ele>
        <time>2022-12-14T12:09:33.283Z</time>
      </trkpt>
      <trkpt lat="47.88803" lon="-2.45215">
        <ele>65.22382</ele>
        <time>2022-12-14T12:09:35.284Z</time>
      </trkpt>
      <trkpt lat="47.88795" lon="-2.452">
        <ele>65.015317</ele>
        <time>2022-12-14T12:09:38.281Z</time>
      </trkpt>
      <trkpt lat="47.88788" lon="-2.45187">
        <ele>64.820697</ele>
        <time>2022-12-14T12:09:41.283Z</time>
      </trkpt>
      <trkpt lat="47.8878" lon="-2.45174">
        <ele>64.630282</ele>
        <time>2022-12-14T12:09:44.284Z</time>
      </trkpt>
      <trkpt lat="47.88772" lon="-2.45161">
        <ele>64.423697</ele>
        <time>2022-12-14T12:09:47.285Z</time>
      </trkpt>
      <trkpt lat="47.88762" lon="-2.45148">
        <ele>64.21669</ele>
        <time>2022-12-14T12:09:50.282Z</time>
      </trkpt>
      <trkpt lat="47.88754" lon="-2.45137">
        <ele>64.031701</ele>
        <time>2022-12-14T12:09:53.337Z</time>
      </trkpt>
      <trkpt lat="47.88747" lon="-2.45126">
        <ele>63.861653</ele>
        <time>2022-12-14T12:09:56.281Z</time>
      </trkpt>
      <trkpt lat="47.8874" lon="-2.45114">
        <ele>63.679861</ele>
        <time>2022-12-14T12:10:00.284Z</time>
      </trkpt>
      <trkpt lat="47.88733" lon="-2.45103">
        <ele>63.635395</ele>
        <time>2022-12-14T12:10:04.282Z</time>
      </trkpt>
      <trkpt lat="47.88727" lon="-2.45092">
        <ele>63.621753</ele>
        <time>2022-12-14T12:10:08.283Z</time>
      </trkpt>
      <trkpt lat="47.88719" lon="-2.4508">
        <ele>63.606325</ele>
        <time>2022-12-14T12:10:12.268Z</time>
      </trkpt>
      <trkpt lat="47.88711" lon="-2.4507">
        <ele>63.591924</ele>
        <time>2022-12-14T12:10:15.284Z</time>
      </trkpt>
      <trkpt lat="47.88704" lon="-2.45058">
        <ele>63.575963</ele>
        <time>2022-12-14T12:10:18.270Z</time>
      </trkpt>
      <trkpt lat="47.88695" lon="-2.45044">
        <ele>63.55846</ele>
        <time>2022-12-14T12:10:21.283Z</time>
      </trkpt>
      <trkpt lat="47.88687" lon="-2.45029">
        <ele>63.540007</ele>
        <time>2022-12-14T12:10:24.283Z</time>
      </trkpt>
      <trkpt lat="47.8868" lon="-2.45013">
        <ele>63.521605</ele>
        <time>2022-12-14T12:10:27.282Z</time>
      </trkpt>
      <trkpt lat="47.88673" lon="-2.44996">
        <ele>63.503166</ele>
        <time>2022-12-14T12:10:30.284Z</time>
      </trkpt>
      <trkpt lat="47.88668" lon="-2.44978">
        <ele>63.484427</ele>
        <time>2022-12-14T12:10:33.283Z</time>
      </trkpt>
      <trkpt lat="47.88665" lon="-2.44964">
        <ele>63.471313</ele>
        <time>2022-12-14T12:10:35.325Z</time>
      </trkpt>
      <trkpt lat="47.88664" lon="-2.44951">
        <ele>63.458399</ele>
        <time>2022-12-14T12:10:37.282Z</time>
      </trkpt>
      <trkpt lat="47.88661" lon="-2.44932">
        <ele>63.440027</ele>
        <time>2022-12-14T12:10:40.283Z</time>
      </trkpt>
      <trkpt lat="47.88658" lon="-2.44915">
        <ele>63.423179</ele>
        <time>2022-12-14T12:10:43.296Z</time>
      </trkpt>
      <trkpt lat="47.88655" lon="-2.44897">
        <ele>63.406524</ele>
        <time>2022-12-14T12:10:46.286Z</time>
      </trkpt>
      <trkpt lat="47.88653" lon="-2.44878">
        <ele>63.441004</ele>
        <time>2022-12-14T12:10:49.287Z</time>
      </trkpt>
      <trkpt lat="47.88651" lon="-2.44865">
        <ele>63.552786</ele>
        <time>2022-12-14T12:10:51.285Z</time>
      </trkpt>
      <trkpt lat="47.88649" lon="-2.44845">
        <ele>63.715311</ele>
        <time>2022-12-14T12:10:54.289Z</time>
      </trkpt>
      <trkpt lat="47.88647" lon="-2.44831">
        <ele>63.830082</ele>
        <time>2022-12-14T12:10:56.284Z</time>
      </trkpt>
      <trkpt lat="47.88646" lon="-2.44817">
        <ele>63.946882</ele>
        <time>2022-12-14T12:10:58.287Z</time>
      </trkpt>
      <trkpt lat="47.88645" lon="-2.44803">
        <ele>64.05929</ele>
        <time>2022-12-14T12:11:00.293Z</time>
      </trkpt>
      <trkpt lat="47.88645" lon="-2.44783">
        <ele>64.224508</ele>
        <time>2022-12-14T12:11:03.280Z</time>
      </trkpt>
      <trkpt lat="47.88647" lon="-2.44769">
        <ele>64.335676</ele>
        <time>2022-12-14T12:11:05.282Z</time>
      </trkpt>
      <trkpt lat="47.88649" lon="-2.4475">
        <ele>64.493616</ele>
        <time>2022-12-14T12:11:08.287Z</time>
      </trkpt>
      <trkpt lat="47.88652" lon="-2.44733">
        <ele>64.638733</ele>
        <time>2022-12-14T12:11:11.286Z</time>
      </trkpt>
      <trkpt lat="47.88655" lon="-2.44717">
        <ele>64.776864</ele>
        <time>2022-12-14T12:11:14.285Z</time>
      </trkpt>
      <trkpt lat="47.88659" lon="-2.44701">
        <ele>64.911522</ele>
        <time>2022-12-14T12:11:17.284Z</time>
      </trkpt>
      <trkpt lat="47.88662" lon="-2.44684">
        <ele>65.056938</ele>
        <time>2022-12-14T12:11:20.286Z</time>
      </trkpt>
      <trkpt lat="47.88666" lon="-2.44665">
        <ele>65.215529</ele>
        <time>2022-12-14T12:11:23.285Z</time>
      </trkpt>
      <trkpt lat="47.8867" lon="-2.44647">
        <ele>65.367919</ele>
        <time>2022-12-14T12:11:26.282Z</time>
      </trkpt>
      <trkpt lat="47.88675" lon="-2.44631">
        <ele>65.515337</ele>
        <time>2022-12-14T12:11:29.281Z</time>
      </trkpt>
      <trkpt lat="47.8868" lon="-2.44613">
        <ele>65.579572</ele>
        <time>2022-12-14T12:11:32.283Z</time>
      </trkpt>
      <trkpt lat="47.88683" lon="-2.44595">
        <ele>65.584435</ele>
        <time>2022-12-14T12:11:35.286Z</time>
      </trkpt>
      <trkpt lat="47.88686" lon="-2.44579">
        <ele>65.588921</ele>
        <time>2022-12-14T12:11:38.288Z</time>
      </trkpt>
      <trkpt lat="47.88689" lon="-2.44562">
        <ele>65.593765</ele>
        <time>2022-12-14T12:11:41.289Z</time>
      </trkpt>
      <trkpt lat="47.88692" lon="-2.44545">
        <ele>65.598444</ele>
        <time>2022-12-14T12:11:44.327Z</time>
      </trkpt>
      <trkpt lat="47.88694" lon="-2.44528">
        <ele>65.603102</ele>
        <time>2022-12-14T12:11:47.284Z</time>
      </trkpt>
      <trkpt lat="47.88697" lon="-2.44511">
        <ele>65.607659</ele>
        <time>2022-12-14T12:11:50.342Z</time>
      </trkpt>
      <trkpt lat="47.887" lon="-2.44493">
        <ele>65.612617</ele>
        <time>2022-12-14T12:11:53.287Z</time>
      </trkpt>
      <trkpt lat="47.88702" lon="-2.44475">
        <ele>65.617579</ele>
        <time>2022-12-14T12:11:56.345Z</time>
      </trkpt>
      <trkpt lat="47.88704" lon="-2.44457">
        <ele>65.622528</ele>
        <time>2022-12-14T12:11:59.283Z</time>
      </trkpt>
      <trkpt lat="47.88706" lon="-2.44438">
        <ele>65.627594</ele>
        <time>2022-12-14T12:12:02.333Z</time>
      </trkpt>
      <trkpt lat="47.88706" lon="-2.4442">
        <ele>65.632567</ele>
        <time>2022-12-14T12:12:05.285Z</time>
      </trkpt>
      <trkpt lat="47.88707" lon="-2.44401">
        <ele>65.637654</ele>
        <time>2022-12-14T12:12:08.283Z</time>
      </trkpt>
      <trkpt lat="47.88708" lon="-2.44384">
        <ele>65.642343</ele>
        <time>2022-12-14T12:12:11.264Z</time>
      </trkpt>
      <trkpt lat="47.88709" lon="-2.44368">
        <ele>65.6466</ele>
        <time>2022-12-14T12:12:14.283Z</time>
      </trkpt>
      <trkpt lat="47.88711" lon="-2.44349">
        <ele>65.649797</ele>
        <time>2022-12-14T12:12:17.284Z</time>
      </trkpt>
      <trkpt lat="47.88712" lon="-2.44335">
        <ele>65.651335</ele>
        <time>2022-12-14T12:12:19.330Z</time>
      </trkpt>
      <trkpt lat="47.88714" lon="-2.44315">
        <ele>65.653675</ele>
        <time>2022-12-14T12:12:22.287Z</time>
      </trkpt>
      <trkpt lat="47.88715" lon="-2.44301">
        <ele>65.655239</ele>
        <time>2022-12-14T12:12:24.287Z</time>
      </trkpt>
      <trkpt lat="47.88716" lon="-2.44287">
        <ele>65.656827</ele>
        <time>2022-12-14T12:12:26.284Z</time>
      </trkpt>
      <trkpt lat="47.88718" lon="-2.44269">
        <ele>65.658895</ele>
        <time>2022-12-14T12:12:29.285Z</time>
      </trkpt>
      <trkpt lat="47.8872" lon="-2.4425">
        <ele>65.660978</ele>
        <time>2022-12-14T12:12:32.285Z</time>
      </trkpt>
      <trkpt lat="47.88722" lon="-2.44234">
        <ele>65.662836</ele>
        <time>2022-12-14T12:12:35.284Z</time>
      </trkpt>
      <trkpt lat="47.88724" lon="-2.44216">
        <ele>65.664849</ele>
        <time>2022-12-14T12:12:38.283Z</time>
      </trkpt>
      <trkpt lat="47.88725" lon="-2.44199">
        <ele>65.666774</ele>
        <time>2022-12-14T12:12:41.283Z</time>
      </trkpt>
      <trkpt lat="47.88728" lon="-2.44183">
        <ele>65.668649</ele>
        <time>2022-12-14T12:12:44.273Z</time>
      </trkpt>
      <trkpt lat="47.8873" lon="-2.44166">
        <ele>65.670603</ele>
        <time>2022-12-14T12:12:47.283Z</time>
      </trkpt>
      <trkpt lat="47.88733" lon="-2.44148">
        <ele>65.672627</ele>
        <time>2022-12-14T12:12:50.288Z</time>
      </trkpt>
      <trkpt lat="47.88734" lon="-2.4413">
        <ele>65.674682</ele>
        <time>2022-12-14T12:12:53.283Z</time>
      </trkpt>
      <trkpt lat="47.88734" lon="-2.44113">
        <ele>65.676648</ele>
        <time>2022-12-14T12:12:56.284Z</time>
      </trkpt>
      <trkpt lat="47.88734" lon="-2.44095">
        <ele>65.690083</ele>
        <time>2022-12-14T12:12:59.283Z</time>
      </trkpt>
      <trkpt lat="47.88734" lon="-2.44075">
        <ele>65.839583</ele>
        <time>2022-12-14T12:13:02.282Z</time>
      </trkpt>
      <trkpt lat="47.88733" lon="-2.44059">
        <ele>65.955224</ele>
        <time>2022-12-14T12:13:04.284Z</time>
      </trkpt>
      <trkpt lat="47.88732" lon="-2.44046">
        <ele>66.056267</ele>
        <time>2022-12-14T12:13:06.333Z</time>
      </trkpt>
      <trkpt lat="47.88731" lon="-2.44032">
        <ele>66.161707</ele>
        <time>2022-12-14T12:13:08.282Z</time>
      </trkpt>
      <trkpt lat="47.88731" lon="-2.44018">
        <ele>66.263362</ele>
        <time>2022-12-14T12:13:10.285Z</time>
      </trkpt>
      <trkpt lat="47.88732" lon="-2.43998">
        <ele>66.411388</ele>
        <time>2022-12-14T12:13:13.269Z</time>
      </trkpt>
      <trkpt lat="47.88733" lon="-2.4398">
        <ele>66.547331</ele>
        <time>2022-12-14T12:13:16.295Z</time>
      </trkpt>
      <trkpt lat="47.88734" lon="-2.43963">
        <ele>66.67771</ele>
        <time>2022-12-14T12:13:19.283Z</time>
      </trkpt>
      <trkpt lat="47.88738" lon="-2.43944">
        <ele>66.822959</ele>
        <time>2022-12-14T12:13:22.287Z</time>
      </trkpt>
      <trkpt lat="47.88742" lon="-2.43925">
        <ele>66.970376</ele>
        <time>2022-12-14T12:13:25.283Z</time>
      </trkpt>
      <trkpt lat="47.88747" lon="-2.43907">
        <ele>67.120304</ele>
        <time>2022-12-14T12:13:28.284Z</time>
      </trkpt>
      <trkpt lat="47.88752" lon="-2.43889">
        <ele>67.267734</ele>
        <time>2022-12-14T12:13:31.286Z</time>
      </trkpt>
      <trkpt lat="47.88757" lon="-2.43872">
        <ele>67.405795</ele>
        <time>2022-12-14T12:13:34.284Z</time>
      </trkpt>
      <trkpt lat="47.88764" lon="-2.43856">
        <ele>67.544924</ele>
        <time>2022-12-14T12:13:37.272Z</time>
      </trkpt>
      <trkpt lat="47.88767" lon="-2.43844">
        <ele>67.64742</ele>
        <time>2022-12-14T12:13:39.285Z</time>
      </trkpt>
      <trkpt lat="47.88773" lon="-2.43828">
        <ele>67.397523</ele>
        <time>2022-12-14T12:13:42.283Z</time>
      </trkpt>
      <trkpt lat="47.88778" lon="-2.43814">
        <ele>67.041159</ele>
        <time>2022-12-14T12:13:45.284Z</time>
      </trkpt>
      <trkpt lat="47.88782" lon="-2.43799">
        <ele>66.69964</ele>
        <time>2022-12-14T12:13:48.282Z</time>
      </trkpt>
      <trkpt lat="47.88784" lon="-2.43785">
        <ele>66.373287</ele>
        <time>2022-12-14T12:13:51.283Z</time>
      </trkpt>
      <trkpt lat="47.88787" lon="-2.43771">
        <ele>66.060792</ele>
        <time>2022-12-14T12:13:54.280Z</time>
      </trkpt>
      <trkpt lat="47.8879" lon="-2.43755">
        <ele>65.67215</ele>
        <time>2022-12-14T12:13:57.264Z</time>
      </trkpt>
      <trkpt lat="47.88794" lon="-2.4374">
        <ele>65.328533</ele>
        <time>2022-12-14T12:14:00.285Z</time>
      </trkpt>
      <trkpt lat="47.88796" lon="-2.43724">
        <ele>64.958025</ele>
        <time>2022-12-14T12:14:03.270Z</time>
      </trkpt>
      <trkpt lat="47.88797" lon="-2.43709">
        <ele>64.625521</ele>
        <time>2022-12-14T12:14:06.284Z</time>
      </trkpt>
      <trkpt lat="47.88799" lon="-2.43693">
        <ele>64.26853</ele>
        <time>2022-12-14T12:14:09.284Z</time>
      </trkpt>
      <trkpt lat="47.88801" lon="-2.43676">
        <ele>63.896413</ele>
        <time>2022-12-14T12:14:13.275Z</time>
      </trkpt>
      <trkpt lat="47.88802" lon="-2.43661">
        <ele>63.567847</ele>
        <time>2022-12-14T12:14:17.284Z</time>
      </trkpt>
      <trkpt lat="47.88804" lon="-2.43646">
        <ele>63.220244</ele>
        <time>2022-12-14T12:14:21.331Z</time>
      </trkpt>
      <trkpt lat="47.88803" lon="-2.43629">
        <ele>62.850856</ele>
        <time>2022-12-14T12:14:26.283Z</time>
      </trkpt>
      <trkpt lat="47.88797" lon="-2.43616">
        <ele>62.48923</ele>
        <time>2022-12-14T12:14:29.287Z</time>
      </trkpt>
      <trkpt lat="47.88791" lon="-2.436">
        <ele>62.073504</ele>
        <time>2022-12-14T12:14:32.282Z</time>
      </trkpt>
      <trkpt lat="47.88785" lon="-2.43586">
        <ele>61.796967</ele>
        <time>2022-12-14T12:14:35.284Z</time>
      </trkpt>
      <trkpt lat="47.88779" lon="-2.43575">
        <ele>62.06748</ele>
        <time>2022-12-14T12:14:38.294Z</time>
      </trkpt>
      <trkpt lat="47.88773" lon="-2.4356">
        <ele>62.392419</ele>
        <time>2022-12-14T12:14:41.283Z</time>
      </trkpt>
      <trkpt lat="47.88768" lon="-2.43543">
        <ele>62.75472</ele>
        <time>2022-12-14T12:14:44.280Z</time>
      </trkpt>
      <trkpt lat="47.88764" lon="-2.43524">
        <ele>63.143296</ele>
        <time>2022-12-14T12:14:47.285Z</time>
      </trkpt>
      <trkpt lat="47.88762" lon="-2.43511">
        <ele>63.407789</ele>
        <time>2022-12-14T12:14:49.286Z</time>
      </trkpt>
      <trkpt lat="47.88758" lon="-2.43492">
        <ele>63.788215</ele>
        <time>2022-12-14T12:14:52.271Z</time>
      </trkpt>
      <trkpt lat="47.88756" lon="-2.43479">
        <ele>64.054802</ele>
        <time>2022-12-14T12:14:54.281Z</time>
      </trkpt>
      <trkpt lat="47.88754" lon="-2.43465">
        <ele>64.331654</ele>
        <time>2022-12-14T12:14:56.281Z</time>
      </trkpt>
      <trkpt lat="47.8875" lon="-2.43446">
        <ele>64.722548</ele>
        <time>2022-12-14T12:14:59.285Z</time>
      </trkpt>
      <trkpt lat="47.88747" lon="-2.43429">
        <ele>65.065436</ele>
        <time>2022-12-14T12:15:02.287Z</time>
      </trkpt>
      <trkpt lat="47.88744" lon="-2.43412">
        <ele>65.393677</ele>
        <time>2022-12-14T12:15:05.288Z</time>
      </trkpt>
      <trkpt lat="47.88742" lon="-2.43395">
        <ele>65.740502</ele>
        <time>2022-12-14T12:15:08.284Z</time>
      </trkpt>
      <trkpt lat="47.88738" lon="-2.43376">
        <ele>66.116462</ele>
        <time>2022-12-14T12:15:11.288Z</time>
      </trkpt>
      <trkpt lat="47.88735" lon="-2.43357">
        <ele>66.496195</ele>
        <time>2022-12-14T12:15:14.287Z</time>
      </trkpt>
      <trkpt lat="47.88734" lon="-2.43343">
        <ele>66.773432</ele>
        <time>2022-12-14T12:15:16.282Z</time>
      </trkpt>
      <trkpt lat="47.88731" lon="-2.43324">
        <ele>66.840589</ele>
        <time>2022-12-14T12:15:19.283Z</time>
      </trkpt>
      <trkpt lat="47.88729" lon="-2.43307">
        <ele>66.61418</ele>
        <time>2022-12-14T12:15:22.282Z</time>
      </trkpt>
      <trkpt lat="47.88725" lon="-2.43292">
        <ele>66.400477</ele>
        <time>2022-12-14T12:15:25.287Z</time>
      </trkpt>
      <trkpt lat="47.8872" lon="-2.43276">
        <ele>66.171463</ele>
        <time>2022-12-14T12:15:28.285Z</time>
      </trkpt>
      <trkpt lat="47.88716" lon="-2.43261">
        <ele>65.949661</ele>
        <time>2022-12-14T12:15:31.283Z</time>
      </trkpt>
      <trkpt lat="47.8871" lon="-2.43244">
        <ele>65.699704</ele>
        <time>2022-12-14T12:15:34.283Z</time>
      </trkpt>
      <trkpt lat="47.88703" lon="-2.43229">
        <ele>65.459968</ele>
        <time>2022-12-14T12:15:37.282Z</time>
      </trkpt>
      <trkpt lat="47.88697" lon="-2.43216">
        <ele>65.24803</ele>
        <time>2022-12-14T12:15:40.281Z</time>
      </trkpt>
      <trkpt lat="47.8869" lon="-2.43204">
        <ele>65.035889</ele>
        <time>2022-12-14T12:15:43.281Z</time>
      </trkpt>
      <trkpt lat="47.88683" lon="-2.43192">
        <ele>64.827565</ele>
        <time>2022-12-14T12:15:46.291Z</time>
      </trkpt>
      <trkpt lat="47.88675" lon="-2.43179">
        <ele>64.603825</ele>
        <time>2022-12-14T12:15:49.286Z</time>
      </trkpt>
      <trkpt lat="47.88668" lon="-2.43165">
        <ele>64.366626</ele>
        <time>2022-12-14T12:15:52.270Z</time>
      </trkpt>
      <trkpt lat="47.8866" lon="-2.43151">
        <ele>64.13185</ele>
        <time>2022-12-14T12:15:55.290Z</time>
      </trkpt>
      <trkpt lat="47.88653" lon="-2.43136">
        <ele>63.889109</ele>
        <time>2022-12-14T12:15:58.265Z</time>
      </trkpt>
      <trkpt lat="47.88647" lon="-2.43125">
        <ele>63.691694</ele>
        <time>2022-12-14T12:16:01.282Z</time>
      </trkpt>
      <trkpt lat="47.8864" lon="-2.4311">
        <ele>63.455061</ele>
        <time>2022-12-14T12:16:05.286Z</time>
      </trkpt>
      <trkpt lat="47.88632" lon="-2.43096">
        <ele>63.530212</ele>
        <time>2022-12-14T12:16:08.332Z</time>
      </trkpt>
      <trkpt lat="47.88625" lon="-2.43081">
        <ele>63.652487</ele>
        <time>2022-12-14T12:16:11.271Z</time>
      </trkpt>
      <trkpt lat="47.88618" lon="-2.43064">
        <ele>63.776467</ele>
        <time>2022-12-14T12:16:14.336Z</time>
      </trkpt>
      <trkpt lat="47.88613" lon="-2.43052">
        <ele>63.864737</ele>
        <time>2022-12-14T12:16:16.282Z</time>
      </trkpt>
      <trkpt lat="47.88609" lon="-2.4304">
        <ele>63.952717</ele>
        <time>2022-12-14T12:16:18.280Z</time>
      </trkpt>
      <trkpt lat="47.88602" lon="-2.43023">
        <ele>64.077471</ele>
        <time>2022-12-14T12:16:21.283Z</time>
      </trkpt>
      <trkpt lat="47.88597" lon="-2.43008">
        <ele>64.190381</ele>
        <time>2022-12-14T12:16:24.283Z</time>
      </trkpt>
      <trkpt lat="47.88591" lon="-2.42992">
        <ele>64.301019</ele>
        <time>2022-12-14T12:16:27.283Z</time>
      </trkpt>
      <trkpt lat="47.88585" lon="-2.42977">
        <ele>64.419197</ele>
        <time>2022-12-14T12:16:30.287Z</time>
      </trkpt>
      <trkpt lat="47.88579" lon="-2.42964">
        <ele>64.517521</ele>
        <time>2022-12-14T12:16:33.286Z</time>
      </trkpt>
      <trkpt lat="47.88572" lon="-2.42949">
        <ele>64.636883</ele>
        <time>2022-12-14T12:16:36.283Z</time>
      </trkpt>
      <trkpt lat="47.88563" lon="-2.42934">
        <ele>64.761575</ele>
        <time>2022-12-14T12:16:39.287Z</time>
      </trkpt>
      <trkpt lat="47.88554" lon="-2.42919">
        <ele>64.8907</ele>
        <time>2022-12-14T12:16:42.284Z</time>
      </trkpt>
      <trkpt lat="47.88545" lon="-2.42906">
        <ele>65.011609</ele>
        <time>2022-12-14T12:16:45.286Z</time>
      </trkpt>
      <trkpt lat="47.88537" lon="-2.42894">
        <ele>65.121991</ele>
        <time>2022-12-14T12:16:48.285Z</time>
      </trkpt>
      <trkpt lat="47.88528" lon="-2.4288">
        <ele>64.980293</ele>
        <time>2022-12-14T12:16:51.287Z</time>
      </trkpt>
      <trkpt lat="47.88519" lon="-2.42867">
        <ele>64.781977</ele>
        <time>2022-12-14T12:16:54.285Z</time>
      </trkpt>
      <trkpt lat="47.88512" lon="-2.42856">
        <ele>64.616913</ele>
        <time>2022-12-14T12:16:57.335Z</time>
      </trkpt>
      <trkpt lat="47.88504" lon="-2.42844">
        <ele>64.431044</ele>
        <time>2022-12-14T12:17:00.285Z</time>
      </trkpt>
      <trkpt lat="47.88496" lon="-2.42831">
        <ele>64.241468</ele>
        <time>2022-12-14T12:17:03.332Z</time>
      </trkpt>
      <trkpt lat="47.88488" lon="-2.42819">
        <ele>64.068933</ele>
        <time>2022-12-14T12:17:06.284Z</time>
      </trkpt>
      <trkpt lat="47.88482" lon="-2.42806">
        <ele>63.895923</ele>
        <time>2022-12-14T12:17:09.265Z</time>
      </trkpt>
      <trkpt lat="47.88475" lon="-2.42795">
        <ele>63.738254</ele>
        <time>2022-12-14T12:17:12.269Z</time>
      </trkpt>
      <trkpt lat="47.88469" lon="-2.42784">
        <ele>63.580893</ele>
        <time>2022-12-14T12:17:15.270Z</time>
      </trkpt>
      <trkpt lat="47.88461" lon="-2.42771">
        <ele>63.400369</ele>
        <time>2022-12-14T12:17:18.284Z</time>
      </trkpt>
      <trkpt lat="47.88456" lon="-2.42761">
        <ele>63.254932</ele>
        <time>2022-12-14T12:17:20.350Z</time>
      </trkpt>
      <trkpt lat="47.8845" lon="-2.42747">
        <ele>63.078722</ele>
        <time>2022-12-14T12:17:23.285Z</time>
      </trkpt>
      <trkpt lat="47.88443" lon="-2.42734">
        <ele>62.905989</ele>
        <time>2022-12-14T12:17:26.362Z</time>
      </trkpt>
      <trkpt lat="47.88436" lon="-2.4272">
        <ele>62.723982</ele>
        <time>2022-12-14T12:17:30.290Z</time>
      </trkpt>
      <trkpt lat="47.8843" lon="-2.42707">
        <ele>62.546829</ele>
        <time>2022-12-14T12:17:34.293Z</time>
      </trkpt>
      <trkpt lat="47.88424" lon="-2.42696">
        <ele>62.401393</ele>
        <time>2022-12-14T12:17:37.289Z</time>
      </trkpt>
      <trkpt lat="47.88418" lon="-2.42683">
        <ele>62.261656</ele>
        <time>2022-12-14T12:17:40.285Z</time>
      </trkpt>
      <trkpt lat="47.88412" lon="-2.42671">
        <ele>62.223893</ele>
        <time>2022-12-14T12:17:43.281Z</time>
      </trkpt>
      <trkpt lat="47.88405" lon="-2.42658">
        <ele>62.18313</ele>
        <time>2022-12-14T12:17:46.286Z</time>
      </trkpt>
      <trkpt lat="47.884" lon="-2.42647">
        <ele>62.149419</ele>
        <time>2022-12-14T12:17:48.285Z</time>
      </trkpt>
      <trkpt lat="47.88393" lon="-2.42636">
        <ele>62.112358</ele>
        <time>2022-12-14T12:17:50.328Z</time>
      </trkpt>
      <trkpt lat="47.88386" lon="-2.42626">
        <ele>62.076149</ele>
        <time>2022-12-14T12:17:52.283Z</time>
      </trkpt>
      <trkpt lat="47.8838" lon="-2.42617">
        <ele>62.042888</ele>
        <time>2022-12-14T12:17:54.282Z</time>
      </trkpt>
      <trkpt lat="47.88372" lon="-2.42607">
        <ele>62.005684</ele>
        <time>2022-12-14T12:17:56.331Z</time>
      </trkpt>
      <trkpt lat="47.88364" lon="-2.42599">
        <ele>61.970435</ele>
        <time>2022-12-14T12:17:58.284Z</time>
      </trkpt>
      <trkpt lat="47.88356" lon="-2.42591">
        <ele>61.934861</ele>
        <time>2022-12-14T12:18:00.283Z</time>
      </trkpt>
      <trkpt lat="47.88348" lon="-2.42583">
        <ele>61.897731</ele>
        <time>2022-12-14T12:18:02.344Z</time>
      </trkpt>
      <trkpt lat="47.8834" lon="-2.42576">
        <ele>61.86409</ele>
        <time>2022-12-14T12:18:04.271Z</time>
      </trkpt>
      <trkpt lat="47.8833" lon="-2.42567">
        <ele>61.820886</ele>
        <time>2022-12-14T12:18:07.284Z</time>
      </trkpt>
      <trkpt lat="47.88319" lon="-2.42559">
        <ele>61.77385</ele>
        <time>2022-12-14T12:18:10.291Z</time>
      </trkpt>
      <trkpt lat="47.88307" lon="-2.4255">
        <ele>61.724787</ele>
        <time>2022-12-14T12:18:13.286Z</time>
      </trkpt>
      <trkpt lat="47.88295" lon="-2.42541">
        <ele>61.67508</ele>
        <time>2022-12-14T12:18:16.282Z</time>
      </trkpt>
      <trkpt lat="47.88284" lon="-2.42533">
        <ele>61.626452</ele>
        <time>2022-12-14T12:18:19.296Z</time>
      </trkpt>
      <trkpt lat="47.88272" lon="-2.42525">
        <ele>61.546342</ele>
        <time>2022-12-14T12:18:22.284Z</time>
      </trkpt>
      <trkpt lat="47.88261" lon="-2.42516">
        <ele>61.424926</ele>
        <time>2022-12-14T12:18:25.276Z</time>
      </trkpt>
      <trkpt lat="47.8825" lon="-2.42508">
        <ele>61.313886</ele>
        <time>2022-12-14T12:18:28.285Z</time>
      </trkpt>
      <trkpt lat="47.88239" lon="-2.42501">
        <ele>61.197176</ele>
        <time>2022-12-14T12:18:31.295Z</time>
      </trkpt>
      <trkpt lat="47.88227" lon="-2.42493">
        <ele>61.075146</ele>
        <time>2022-12-14T12:18:34.281Z</time>
      </trkpt>
      <trkpt lat="47.88216" lon="-2.42484">
        <ele>60.962381</ele>
        <time>2022-12-14T12:18:37.285Z</time>
      </trkpt>
      <trkpt lat="47.88207" lon="-2.42475">
        <ele>60.857969</ele>
        <time>2022-12-14T12:18:40.288Z</time>
      </trkpt>
      <trkpt lat="47.88199" lon="-2.42466">
        <ele>60.758906</ele>
        <time>2022-12-14T12:18:43.286Z</time>
      </trkpt>
      <trkpt lat="47.8819" lon="-2.42455">
        <ele>60.649256</ele>
        <time>2022-12-14T12:18:46.282Z</time>
      </trkpt>
      <trkpt lat="47.88181" lon="-2.42444">
        <ele>60.542556</ele>
        <time>2022-12-14T12:18:49.284Z</time>
      </trkpt>
      <trkpt lat="47.88173" lon="-2.42434">
        <ele>60.446421</ele>
        <time>2022-12-14T12:18:52.284Z</time>
      </trkpt>
      <trkpt lat="47.88165" lon="-2.42424">
        <ele>60.342455</ele>
        <time>2022-12-14T12:18:55.283Z</time>
      </trkpt>
      <trkpt lat="47.88155" lon="-2.42411">
        <ele>60.226378</ele>
        <time>2022-12-14T12:18:58.268Z</time>
      </trkpt>
      <trkpt lat="47.88146" lon="-2.42399">
        <ele>60.107773</ele>
        <time>2022-12-14T12:19:01.285Z</time>
      </trkpt>
      <trkpt lat="47.88138" lon="-2.42385">
        <ele>59.994276</ele>
        <time>2022-12-14T12:19:04.287Z</time>
      </trkpt>
      <trkpt lat="47.88129" lon="-2.42376">
        <ele>59.927304</ele>
        <time>2022-12-14T12:19:07.340Z</time>
      </trkpt>
      <trkpt lat="47.88121" lon="-2.42366">
        <ele>60.008669</ele>
        <time>2022-12-14T12:19:10.283Z</time>
      </trkpt>
      <trkpt lat="47.88111" lon="-2.42356">
        <ele>60.096617</ele>
        <time>2022-12-14T12:19:13.362Z</time>
      </trkpt>
      <trkpt lat="47.88101" lon="-2.42346">
        <ele>60.183641</ele>
        <time>2022-12-14T12:19:16.284Z</time>
      </trkpt>
      <trkpt lat="47.88092" lon="-2.42336">
        <ele>60.269514</ele>
        <time>2022-12-14T12:19:19.275Z</time>
      </trkpt>
      <trkpt lat="47.88082" lon="-2.4233">
        <ele>60.348365</ele>
        <time>2022-12-14T12:19:22.288Z</time>
      </trkpt>
      <trkpt lat="47.88073" lon="-2.42328">
        <ele>60.416275</ele>
        <time>2022-12-14T12:19:25.287Z</time>
      </trkpt>
      <trkpt lat="47.88063" lon="-2.4233">
        <ele>60.49464</ele>
        <time>2022-12-14T12:19:28.284Z</time>
      </trkpt>
      <trkpt lat="47.88051" lon="-2.42331">
        <ele>60.578017</ele>
        <time>2022-12-14T12:19:31.287Z</time>
      </trkpt>
      <trkpt lat="47.8804" lon="-2.42333">
        <ele>60.664881</ele>
        <time>2022-12-14T12:19:34.282Z</time>
      </trkpt>
      <trkpt lat="47.88029" lon="-2.42334">
        <ele>60.748233</ele>
        <time>2022-12-14T12:19:37.284Z</time>
      </trkpt>
      <trkpt lat="47.88019" lon="-2.42335">
        <ele>60.821518</ele>
        <time>2022-12-14T12:19:40.286Z</time>
      </trkpt>
      <trkpt lat="47.8801" lon="-2.42337">
        <ele>60.890315</ele>
        <time>2022-12-14T12:19:43.282Z</time>
      </trkpt>
      <trkpt lat="47.88" lon="-2.42338">
        <ele>60.960447</ele>
        <time>2022-12-14T12:19:46.285Z</time>
      </trkpt>
      <trkpt lat="47.8799" lon="-2.42338">
        <ele>61.035568</ele>
        <time>2022-12-14T12:19:49.266Z</time>
      </trkpt>
      <trkpt lat="47.87978" lon="-2.4234">
        <ele>61.125914</ele>
        <time>2022-12-14T12:19:52.286Z</time>
      </trkpt>
      <trkpt lat="47.87966" lon="-2.42342">
        <ele>61.216214</ele>
        <time>2022-12-14T12:19:55.280Z</time>
      </trkpt>
      <trkpt lat="47.87953" lon="-2.42344">
        <ele>61.4543</ele>
        <time>2022-12-14T12:19:58.281Z</time>
      </trkpt>
      <trkpt lat="47.87941" lon="-2.42346">
        <ele>61.779871</ele>
        <time>2022-12-14T12:20:01.284Z</time>
      </trkpt>
      <trkpt lat="47.87927" lon="-2.42348">
        <ele>62.128446</ele>
        <time>2022-12-14T12:20:04.283Z</time>
      </trkpt>
      <trkpt lat="47.87914" lon="-2.42352">
        <ele>62.472021</ele>
        <time>2022-12-14T12:20:07.265Z</time>
      </trkpt>
      <trkpt lat="47.87902" lon="-2.42357">
        <ele>62.79959</ele>
        <time>2022-12-14T12:20:10.291Z</time>
      </trkpt>
      <trkpt lat="47.87891" lon="-2.42362">
        <ele>63.082801</ele>
        <time>2022-12-14T12:20:13.288Z</time>
      </trkpt>
      <trkpt lat="47.87881" lon="-2.42367">
        <ele>63.367945</ele>
        <time>2022-12-14T12:20:16.284Z</time>
      </trkpt>
      <trkpt lat="47.87872" lon="-2.42372">
        <ele>63.622622</ele>
        <time>2022-12-14T12:20:19.286Z</time>
      </trkpt>
      <trkpt lat="47.87861" lon="-2.42378">
        <ele>63.90732</ele>
        <time>2022-12-14T12:20:22.332Z</time>
      </trkpt>
      <trkpt lat="47.8785" lon="-2.42383">
        <ele>64.209237</ele>
        <time>2022-12-14T12:20:25.285Z</time>
      </trkpt>
      <trkpt lat="47.87839" lon="-2.4239">
        <ele>64.503727</ele>
        <time>2022-12-14T12:20:28.291Z</time>
      </trkpt>
      <trkpt lat="47.8783" lon="-2.42396">
        <ele>64.775241</ele>
        <time>2022-12-14T12:20:31.291Z</time>
      </trkpt>
      <trkpt lat="47.87821" lon="-2.42404">
        <ele>65.036079</ele>
        <time>2022-12-14T12:20:34.286Z</time>
      </trkpt>
      <trkpt lat="47.87811" lon="-2.42415">
        <ele>65.35852</ele>
        <time>2022-12-14T12:20:37.283Z</time>
      </trkpt>
      <trkpt lat="47.87802" lon="-2.42426">
        <ele>65.66555</ele>
        <time>2022-12-14T12:20:40.284Z</time>
      </trkpt>
      <trkpt lat="47.87792" lon="-2.42437">
        <ele>65.76988</ele>
        <time>2022-12-14T12:20:43.283Z</time>
      </trkpt>
      <trkpt lat="47.87783" lon="-2.42447">
        <ele>65.485344</ele>
        <time>2022-12-14T12:20:46.285Z</time>
      </trkpt>
      <trkpt lat="47.87775" lon="-2.42455">
        <ele>65.231519</ele>
        <time>2022-12-14T12:20:49.286Z</time>
      </trkpt>
      <trkpt lat="47.87767" lon="-2.42464">
        <ele>64.957244</ele>
        <time>2022-12-14T12:20:52.285Z</time>
      </trkpt>
      <trkpt lat="47.87758" lon="-2.42474">
        <ele>64.667463</ele>
        <time>2022-12-14T12:20:55.285Z</time>
      </trkpt>
      <trkpt lat="47.8775" lon="-2.42484">
        <ele>64.40326</ele>
        <time>2022-12-14T12:20:58.288Z</time>
      </trkpt>
      <trkpt lat="47.8774" lon="-2.42496">
        <ele>64.073127</ele>
        <time>2022-12-14T12:21:01.293Z</time>
      </trkpt>
      <trkpt lat="47.8773" lon="-2.42509">
        <ele>63.739336</ele>
        <time>2022-12-14T12:21:04.281Z</time>
      </trkpt>
      <trkpt lat="47.87724" lon="-2.42518">
        <ele>63.505307</ele>
        <time>2022-12-14T12:21:06.281Z</time>
      </trkpt>
      <trkpt lat="47.87714" lon="-2.42531">
        <ele>63.167843</ele>
        <time>2022-12-14T12:21:09.281Z</time>
      </trkpt>
      <trkpt lat="47.87705" lon="-2.42543">
        <ele>62.859672</ele>
        <time>2022-12-14T12:21:12.285Z</time>
      </trkpt>
      <trkpt lat="47.87697" lon="-2.42554">
        <ele>62.575466</ele>
        <time>2022-12-14T12:21:15.284Z</time>
      </trkpt>
      <trkpt lat="47.87688" lon="-2.42567">
        <ele>62.24287</ele>
        <time>2022-12-14T12:21:18.288Z</time>
      </trkpt>
      <trkpt lat="47.87679" lon="-2.42581">
        <ele>61.902247</ele>
        <time>2022-12-14T12:21:21.288Z</time>
      </trkpt>
      <trkpt lat="47.8767" lon="-2.42596">
        <ele>61.562765</ele>
        <time>2022-12-14T12:21:24.282Z</time>
      </trkpt>
      <trkpt lat="47.87664" lon="-2.42608">
        <ele>61.297133</ele>
        <time>2022-12-14T12:21:26.287Z</time>
      </trkpt>
      <trkpt lat="47.87658" lon="-2.42619">
        <ele>61.140379</ele>
        <time>2022-12-14T12:21:28.286Z</time>
      </trkpt>
      <trkpt lat="47.87653" lon="-2.42632">
        <ele>61.022049</ele>
        <time>2022-12-14T12:21:30.288Z</time>
      </trkpt>
      <trkpt lat="47.87647" lon="-2.42645">
        <ele>60.898538</ele>
        <time>2022-12-14T12:21:33.293Z</time>
      </trkpt>
      <trkpt lat="47.8764" lon="-2.42658">
        <ele>60.773634</ele>
        <time>2022-12-14T12:21:36.332Z</time>
      </trkpt>
      <trkpt lat="47.87634" lon="-2.42672">
        <ele>60.639016</ele>
        <time>2022-12-14T12:21:39.281Z</time>
      </trkpt>
      <trkpt lat="47.87626" lon="-2.42687">
        <ele>60.490049</ele>
        <time>2022-12-14T12:21:42.348Z</time>
      </trkpt>
      <trkpt lat="47.8762" lon="-2.42698">
        <ele>60.377959</ele>
        <time>2022-12-14T12:21:44.290Z</time>
      </trkpt>
      <trkpt lat="47.87612" lon="-2.42713">
        <ele>60.231736</ele>
        <time>2022-12-14T12:21:47.283Z</time>
      </trkpt>
      <trkpt lat="47.87604" lon="-2.42724">
        <ele>60.100037</ele>
        <time>2022-12-14T12:21:50.289Z</time>
      </trkpt>
      <trkpt lat="47.87595" lon="-2.42736">
        <ele>59.959426</ele>
        <time>2022-12-14T12:21:53.286Z</time>
      </trkpt>
      <trkpt lat="47.87588" lon="-2.42744">
        <ele>59.853163</ele>
        <time>2022-12-14T12:21:55.284Z</time>
      </trkpt>
      <trkpt lat="47.8758" lon="-2.42752">
        <ele>59.748807</ele>
        <time>2022-12-14T12:21:57.287Z</time>
      </trkpt>
      <trkpt lat="47.87573" lon="-2.4276">
        <ele>59.642091</ele>
        <time>2022-12-14T12:21:59.285Z</time>
      </trkpt>
      <trkpt lat="47.87565" lon="-2.42767">
        <ele>59.527829</ele>
        <time>2022-12-14T12:22:01.284Z</time>
      </trkpt>
      <trkpt lat="47.87556" lon="-2.42774">
        <ele>59.414958</ele>
        <time>2022-12-14T12:22:03.285Z</time>
      </trkpt>
      <trkpt lat="47.87547" lon="-2.42779">
        <ele>59.306823</ele>
        <time>2022-12-14T12:22:05.271Z</time>
      </trkpt>
      <trkpt lat="47.87538" lon="-2.42784">
        <ele>59.195831</ele>
        <time>2022-12-14T12:22:07.272Z</time>
      </trkpt>
      <trkpt lat="47.87526" lon="-2.42791">
        <ele>59.184918</ele>
        <time>2022-12-14T12:22:10.266Z</time>
      </trkpt>
      <trkpt lat="47.87514" lon="-2.42797">
        <ele>59.336775</ele>
        <time>2022-12-14T12:22:13.285Z</time>
      </trkpt>
      <trkpt lat="47.87502" lon="-2.42801">
        <ele>59.484023</ele>
        <time>2022-12-14T12:22:16.284Z</time>
      </trkpt>
      <trkpt lat="47.87488" lon="-2.42803">
        <ele>59.641153</ele>
        <time>2022-12-14T12:22:19.286Z</time>
      </trkpt>
      <trkpt lat="47.87475" lon="-2.42804">
        <ele>59.800596</ele>
        <time>2022-12-14T12:22:22.292Z</time>
      </trkpt>
      <trkpt lat="47.87466" lon="-2.42803">
        <ele>59.906913</ele>
        <time>2022-12-14T12:22:24.290Z</time>
      </trkpt>
      <trkpt lat="47.87456" lon="-2.42803">
        <ele>60.02025</ele>
        <time>2022-12-14T12:22:26.286Z</time>
      </trkpt>
      <trkpt lat="47.87447" lon="-2.42802">
        <ele>60.129308</ele>
        <time>2022-12-14T12:22:28.282Z</time>
      </trkpt>
      <trkpt lat="47.87435" lon="-2.42801">
        <ele>60.278259</ele>
        <time>2022-12-14T12:22:31.286Z</time>
      </trkpt>
      <trkpt lat="47.87423" lon="-2.42801">
        <ele>60.416343</ele>
        <time>2022-12-14T12:22:34.287Z</time>
      </trkpt>
      <trkpt lat="47.8741" lon="-2.428">
        <ele>60.562732</ele>
        <time>2022-12-14T12:22:37.295Z</time>
      </trkpt>
      <trkpt lat="47.87397" lon="-2.42799">
        <ele>60.720137</ele>
        <time>2022-12-14T12:22:40.290Z</time>
      </trkpt>
      <trkpt lat="47.87388" lon="-2.42797">
        <ele>60.828368</ele>
        <time>2022-12-14T12:22:42.280Z</time>
      </trkpt>
      <trkpt lat="47.87379" lon="-2.42795">
        <ele>60.934834</ele>
        <time>2022-12-14T12:22:44.287Z</time>
      </trkpt>
      <trkpt lat="47.8737" lon="-2.42792">
        <ele>61.046499</ele>
        <time>2022-12-14T12:22:46.296Z</time>
      </trkpt>
      <trkpt lat="47.87361" lon="-2.42789">
        <ele>61.154923</ele>
        <time>2022-12-14T12:22:48.285Z</time>
      </trkpt>
      <trkpt lat="47.87349" lon="-2.42784">
        <ele>61.123589</ele>
        <time>2022-12-14T12:22:51.309Z</time>
      </trkpt>
      <trkpt lat="47.87338" lon="-2.4278">
        <ele>60.9168</ele>
        <time>2022-12-14T12:22:54.289Z</time>
      </trkpt>
      <trkpt lat="47.87326" lon="-2.42775">
        <ele>60.687394</ele>
        <time>2022-12-14T12:22:57.331Z</time>
      </trkpt>
      <trkpt lat="47.87313" lon="-2.42771">
        <ele>60.441399</ele>
        <time>2022-12-14T12:23:00.285Z</time>
      </trkpt>
      <trkpt lat="47.87304" lon="-2.42767">
        <ele>60.273565</ele>
        <time>2022-12-14T12:23:02.283Z</time>
      </trkpt>
      <trkpt lat="47.87296" lon="-2.42764">
        <ele>60.1026</ele>
        <time>2022-12-14T12:23:04.283Z</time>
      </trkpt>
      <trkpt lat="47.87287" lon="-2.42758">
        <ele>59.92769</ele>
        <time>2022-12-14T12:23:06.284Z</time>
      </trkpt>
      <trkpt lat="47.87279" lon="-2.42752">
        <ele>59.758267</ele>
        <time>2022-12-14T12:23:08.284Z</time>
      </trkpt>
      <trkpt lat="47.87269" lon="-2.42743">
        <ele>59.541836</ele>
        <time>2022-12-14T12:23:11.283Z</time>
      </trkpt>
      <trkpt lat="47.87259" lon="-2.42736">
        <ele>59.332297</ele>
        <time>2022-12-14T12:23:14.338Z</time>
      </trkpt>
      <trkpt lat="47.87248" lon="-2.42728">
        <ele>59.111573</ele>
        <time>2022-12-14T12:23:17.283Z</time>
      </trkpt>
      <trkpt lat="47.87238" lon="-2.42719">
        <ele>58.888785</ele>
        <time>2022-12-14T12:23:20.330Z</time>
      </trkpt>
      <trkpt lat="47.87229" lon="-2.42713">
        <ele>58.705993</ele>
        <time>2022-12-14T12:23:23.287Z</time>
      </trkpt>
      <trkpt lat="47.87217" lon="-2.42709">
        <ele>58.484629</ele>
        <time>2022-12-14T12:23:27.291Z</time>
      </trkpt>
      <trkpt lat="47.87205" lon="-2.42712">
        <ele>58.260708</ele>
        <time>2022-12-14T12:23:31.286Z</time>
      </trkpt>
      <trkpt lat="47.87196" lon="-2.42715">
        <ele>58.082892</ele>
        <time>2022-12-14T12:23:34.290Z</time>
      </trkpt>
      <trkpt lat="47.87188" lon="-2.42722">
        <ele>57.901683</ele>
        <time>2022-12-14T12:23:37.287Z</time>
      </trkpt>
      <trkpt lat="47.87178" lon="-2.42731">
        <ele>58.229321</ele>
        <time>2022-12-14T12:23:40.290Z</time>
      </trkpt>
      <trkpt lat="47.87168" lon="-2.42742">
        <ele>58.638967</ele>
        <time>2022-12-14T12:23:43.258Z</time>
      </trkpt>
      <trkpt lat="47.8716" lon="-2.42751">
        <ele>58.988147</ele>
        <time>2022-12-14T12:23:46.270Z</time>
      </trkpt>
      <trkpt lat="47.87153" lon="-2.42762">
        <ele>59.353842</ele>
        <time>2022-12-14T12:23:49.260Z</time>
      </trkpt>
      <trkpt lat="47.87145" lon="-2.42775">
        <ele>59.765919</ele>
        <time>2022-12-14T12:23:52.280Z</time>
      </trkpt>
      <trkpt lat="47.87138" lon="-2.42786">
        <ele>60.108308</ele>
        <time>2022-12-14T12:23:55.271Z</time>
      </trkpt>
      <trkpt lat="47.8713" lon="-2.42801">
        <ele>60.555184</ele>
        <time>2022-12-14T12:23:58.281Z</time>
      </trkpt>
      <trkpt lat="47.87123" lon="-2.42817">
        <ele>60.988807</ele>
        <time>2022-12-14T12:24:01.283Z</time>
      </trkpt>
      <trkpt lat="47.87116" lon="-2.42833">
        <ele>61.407465</ele>
        <time>2022-12-14T12:24:04.264Z</time>
      </trkpt>
      <trkpt lat="47.87111" lon="-2.42848">
        <ele>61.801068</ele>
        <time>2022-12-14T12:24:07.280Z</time>
      </trkpt>
      <trkpt lat="47.87106" lon="-2.42862">
        <ele>62.175062</ele>
        <time>2022-12-14T12:24:10.282Z</time>
      </trkpt>
      <trkpt lat="47.87101" lon="-2.42878">
        <ele>62.580322</ele>
        <time>2022-12-14T12:24:13.269Z</time>
      </trkpt>
      <trkpt lat="47.87097" lon="-2.42897">
        <ele>63.03068</ele>
        <time>2022-12-14T12:24:16.280Z</time>
      </trkpt>
      <trkpt lat="47.87094" lon="-2.4291">
        <ele>63.339266</ele>
        <time>2022-12-14T12:24:18.283Z</time>
      </trkpt>
      <trkpt lat="47.87091" lon="-2.42923">
        <ele>63.655519</ele>
        <time>2022-12-14T12:24:20.285Z</time>
      </trkpt>
      <trkpt lat="47.87087" lon="-2.42941">
        <ele>64.057503</ele>
        <time>2022-12-14T12:24:23.327Z</time>
      </trkpt>
      <trkpt lat="47.87084" lon="-2.42957">
        <ele>64.128934</ele>
        <time>2022-12-14T12:24:26.287Z</time>
      </trkpt>
      <trkpt lat="47.87081" lon="-2.42972">
        <ele>64.192561</ele>
        <time>2022-12-14T12:24:29.340Z</time>
      </trkpt>
      <trkpt lat="47.87077" lon="-2.42989">
        <ele>64.269013</ele>
        <time>2022-12-14T12:24:32.289Z</time>
      </trkpt>
      <trkpt lat="47.87072" lon="-2.43006">
        <ele>64.347699</ele>
        <time>2022-12-14T12:24:35.356Z</time>
      </trkpt>
      <trkpt lat="47.87065" lon="-2.43021">
        <ele>64.423612</ele>
        <time>2022-12-14T12:24:38.287Z</time>
      </trkpt>
      <trkpt lat="47.87058" lon="-2.43035">
        <ele>64.499618</ele>
        <time>2022-12-14T12:24:41.336Z</time>
      </trkpt>
      <trkpt lat="47.87051" lon="-2.43048">
        <ele>64.570439</ele>
        <time>2022-12-14T12:24:44.258Z</time>
      </trkpt>
      <trkpt lat="47.87044" lon="-2.43062">
        <ele>64.642875</ele>
        <time>2022-12-14T12:24:47.331Z</time>
      </trkpt>
      <trkpt lat="47.87037" lon="-2.43075">
        <ele>64.714148</ele>
        <time>2022-12-14T12:24:50.286Z</time>
      </trkpt>
      <trkpt lat="47.8703" lon="-2.4309">
        <ele>64.791519</ele>
        <time>2022-12-14T12:24:53.296Z</time>
      </trkpt>
      <trkpt lat="47.87023" lon="-2.43105">
        <ele>64.86673</ele>
        <time>2022-12-14T12:24:56.287Z</time>
      </trkpt>
      <trkpt lat="47.87017" lon="-2.43119">
        <ele>64.940895</ele>
        <time>2022-12-14T12:24:59.325Z</time>
      </trkpt>
      <trkpt lat="47.8701" lon="-2.43134">
        <ele>65.015408</ele>
        <time>2022-12-14T12:25:02.284Z</time>
      </trkpt>
      <trkpt lat="47.87004" lon="-2.4315">
        <ele>65.095209</ele>
        <time>2022-12-14T12:25:05.328Z</time>
      </trkpt>
      <trkpt lat="47.86999" lon="-2.43168">
        <ele>65.175378</ele>
        <time>2022-12-14T12:25:08.283Z</time>
      </trkpt>
      <trkpt lat="47.86996" lon="-2.43181">
        <ele>65.294113</ele>
        <time>2022-12-14T12:25:10.286Z</time>
      </trkpt>
      <trkpt lat="47.86993" lon="-2.43196">
        <ele>65.426007</ele>
        <time>2022-12-14T12:25:12.284Z</time>
      </trkpt>
      <trkpt lat="47.8699" lon="-2.43209">
        <ele>65.543297</ele>
        <time>2022-12-14T12:25:14.288Z</time>
      </trkpt>
      <trkpt lat="47.86987" lon="-2.43223">
        <ele>65.677141</ele>
        <time>2022-12-14T12:25:16.287Z</time>
      </trkpt>
      <trkpt lat="47.86983" lon="-2.43238">
        <ele>65.812749</ele>
        <time>2022-12-14T12:25:18.294Z</time>
      </trkpt>
      <trkpt lat="47.8698" lon="-2.43252">
        <ele>65.943336</ele>
        <time>2022-12-14T12:25:20.285Z</time>
      </trkpt>
      <trkpt lat="47.86978" lon="-2.43265">
        <ele>66.062262</ele>
        <time>2022-12-14T12:25:22.288Z</time>
      </trkpt>
      <trkpt lat="47.86975" lon="-2.43279">
        <ele>66.189068</ele>
        <time>2022-12-14T12:25:24.284Z</time>
      </trkpt>
      <trkpt lat="47.86971" lon="-2.43291">
        <ele>66.308554</ele>
        <time>2022-12-14T12:25:26.289Z</time>
      </trkpt>
      <trkpt lat="47.86965" lon="-2.43306">
        <ele>66.463067</ele>
        <time>2022-12-14T12:25:29.333Z</time>
      </trkpt>
      <trkpt lat="47.86959" lon="-2.4332">
        <ele>66.605354</ele>
        <time>2022-12-14T12:25:32.286Z</time>
      </trkpt>
      <trkpt lat="47.86952" lon="-2.43334">
        <ele>66.752851</ele>
        <time>2022-12-14T12:25:35.328Z</time>
      </trkpt>
      <trkpt lat="47.86944" lon="-2.43347">
        <ele>66.91228</ele>
        <time>2022-12-14T12:25:38.289Z</time>
      </trkpt>
      <trkpt lat="47.86935" lon="-2.43359">
        <ele>67.063283</ele>
        <time>2022-12-14T12:25:41.330Z</time>
      </trkpt>
      <trkpt lat="47.86926" lon="-2.43372">
        <ele>67.228466</ele>
        <time>2022-12-14T12:25:44.290Z</time>
      </trkpt>
      <trkpt lat="47.86916" lon="-2.43384">
        <ele>67.398874</ele>
        <time>2022-12-14T12:25:47.301Z</time>
      </trkpt>
      <trkpt lat="47.86908" lon="-2.43393">
        <ele>67.531708</ele>
        <time>2022-12-14T12:25:49.289Z</time>
      </trkpt>
      <trkpt lat="47.86899" lon="-2.43401">
        <ele>67.616528</ele>
        <time>2022-12-14T12:25:51.287Z</time>
      </trkpt>
      <trkpt lat="47.86891" lon="-2.43411">
        <ele>67.713022</ele>
        <time>2022-12-14T12:25:53.295Z</time>
      </trkpt>
      <trkpt lat="47.86883" lon="-2.4342">
        <ele>67.800039</ele>
        <time>2022-12-14T12:25:55.291Z</time>
      </trkpt>
      <trkpt lat="47.86871" lon="-2.4343">
        <ele>67.917105</ele>
        <time>2022-12-14T12:25:58.338Z</time>
      </trkpt>
      <trkpt lat="47.86864" lon="-2.43437">
        <ele>67.995737</ele>
        <time>2022-12-14T12:26:00.287Z</time>
      </trkpt>
      <trkpt lat="47.86856" lon="-2.43445">
        <ele>68.079402</ele>
        <time>2022-12-14T12:26:02.290Z</time>
      </trkpt>
      <trkpt lat="47.86848" lon="-2.43454">
        <ele>68.162217</ele>
        <time>2022-12-14T12:26:04.278Z</time>
      </trkpt>
      <trkpt lat="47.8684" lon="-2.43461">
        <ele>68.242354</ele>
        <time>2022-12-14T12:26:06.289Z</time>
      </trkpt>
      <trkpt lat="47.8683" lon="-2.43472">
        <ele>68.35325</ele>
        <time>2022-12-14T12:26:09.359Z</time>
      </trkpt>
      <trkpt lat="47.86821" lon="-2.43483">
        <ele>68.45721</ele>
        <time>2022-12-14T12:26:12.286Z</time>
      </trkpt>
      <trkpt lat="47.86813" lon="-2.43492">
        <ele>68.539697</ele>
        <time>2022-12-14T12:26:15.332Z</time>
      </trkpt>
      <trkpt lat="47.86805" lon="-2.43503">
        <ele>68.63926</ele>
        <time>2022-12-14T12:26:18.292Z</time>
      </trkpt>
      <trkpt lat="47.86798" lon="-2.43516">
        <ele>68.736392</ele>
        <time>2022-12-14T12:26:21.331Z</time>
      </trkpt>
      <trkpt lat="47.86791" lon="-2.43531">
        <ele>68.843699</ele>
        <time>2022-12-14T12:26:24.284Z</time>
      </trkpt>
      <trkpt lat="47.86785" lon="-2.43548">
        <ele>68.956377</ele>
        <time>2022-12-14T12:26:27.336Z</time>
      </trkpt>
      <trkpt lat="47.86779" lon="-2.43565">
        <ele>69.071952</ele>
        <time>2022-12-14T12:26:30.288Z</time>
      </trkpt>
      <trkpt lat="47.86774" lon="-2.43577">
        <ele>69.078725</ele>
        <time>2022-12-14T12:26:32.277Z</time>
      </trkpt>
      <trkpt lat="47.86769" lon="-2.43589">
        <ele>69.046156</ele>
        <time>2022-12-14T12:26:34.296Z</time>
      </trkpt>
      <trkpt lat="47.86762" lon="-2.43606">
        <ele>69.000921</ele>
        <time>2022-12-14T12:26:37.288Z</time>
      </trkpt>
      <trkpt lat="47.86756" lon="-2.43623">
        <ele>68.957501</ele>
        <time>2022-12-14T12:26:40.289Z</time>
      </trkpt>
      <trkpt lat="47.86749" lon="-2.4364">
        <ele>68.913121</ele>
        <time>2022-12-14T12:26:43.277Z</time>
      </trkpt>
      <trkpt lat="47.86744" lon="-2.43652">
        <ele>68.880309</ele>
        <time>2022-12-14T12:26:45.288Z</time>
      </trkpt>
      <trkpt lat="47.86739" lon="-2.43665">
        <ele>68.847349</ele>
        <time>2022-12-14T12:26:47.289Z</time>
      </trkpt>
      <trkpt lat="47.86732" lon="-2.43681">
        <ele>68.803457</ele>
        <time>2022-12-14T12:26:50.360Z</time>
      </trkpt>
      <trkpt lat="47.86727" lon="-2.43692">
        <ele>68.772584</ele>
        <time>2022-12-14T12:26:52.274Z</time>
      </trkpt>
      <trkpt lat="47.86723" lon="-2.43706">
        <ele>68.736865</ele>
        <time>2022-12-14T12:26:55.288Z</time>
      </trkpt>
      <trkpt lat="47.86718" lon="-2.43722">
        <ele>68.697471</ele>
        <time>2022-12-14T12:26:58.286Z</time>
      </trkpt>
      <trkpt lat="47.86715" lon="-2.43738">
        <ele>68.659886</ele>
        <time>2022-12-14T12:27:01.291Z</time>
      </trkpt>
      <trkpt lat="47.86711" lon="-2.43756">
        <ele>68.617552</ele>
        <time>2022-12-14T12:27:04.287Z</time>
      </trkpt>
      <trkpt lat="47.86706" lon="-2.43774">
        <ele>68.572271</ele>
        <time>2022-12-14T12:27:07.285Z</time>
      </trkpt>
      <trkpt lat="47.86703" lon="-2.4379">
        <ele>68.534041</ele>
        <time>2022-12-14T12:27:10.283Z</time>
      </trkpt>
      <trkpt lat="47.86699" lon="-2.43805">
        <ele>68.497747</ele>
        <time>2022-12-14T12:27:13.285Z</time>
      </trkpt>
      <trkpt lat="47.86696" lon="-2.43818">
        <ele>68.362712</ele>
        <time>2022-12-14T12:27:15.287Z</time>
      </trkpt>
      <trkpt lat="47.86692" lon="-2.4383">
        <ele>68.187629</ele>
        <time>2022-12-14T12:27:18.288Z</time>
      </trkpt>
      <trkpt lat="47.86688" lon="-2.43846">
        <ele>67.980449</ele>
        <time>2022-12-14T12:27:21.287Z</time>
      </trkpt>
      <trkpt lat="47.86685" lon="-2.43863">
        <ele>67.751619</ele>
        <time>2022-12-14T12:27:24.297Z</time>
      </trkpt>
      <trkpt lat="47.86681" lon="-2.4388">
        <ele>67.528858</ele>
        <time>2022-12-14T12:27:27.287Z</time>
      </trkpt>
      <trkpt lat="47.86677" lon="-2.43896">
        <ele>67.312655</ele>
        <time>2022-12-14T12:27:30.290Z</time>
      </trkpt>
      <trkpt lat="47.86674" lon="-2.43913">
        <ele>67.080562</ele>
        <time>2022-12-14T12:27:33.292Z</time>
      </trkpt>
      <trkpt lat="47.86671" lon="-2.43932">
        <ele>66.837442</ele>
        <time>2022-12-14T12:27:36.295Z</time>
      </trkpt>
      <trkpt lat="47.86668" lon="-2.43951">
        <ele>66.592013</ele>
        <time>2022-12-14T12:27:39.291Z</time>
      </trkpt>
      <trkpt lat="47.86665" lon="-2.43968">
        <ele>66.371228</ele>
        <time>2022-12-14T12:27:42.287Z</time>
      </trkpt>
      <trkpt lat="47.86663" lon="-2.43985">
        <ele>66.147305</ele>
        <time>2022-12-14T12:27:45.283Z</time>
      </trkpt>
      <trkpt lat="47.8666" lon="-2.44004">
        <ele>65.904253</ele>
        <time>2022-12-14T12:27:48.287Z</time>
      </trkpt>
      <trkpt lat="47.86658" lon="-2.44022">
        <ele>65.659256</ele>
        <time>2022-12-14T12:27:51.293Z</time>
      </trkpt>
      <trkpt lat="47.86655" lon="-2.4404">
        <ele>65.436982</ele>
        <time>2022-12-14T12:27:54.286Z</time>
      </trkpt>
      <trkpt lat="47.86653" lon="-2.44055">
        <ele>65.232415</ele>
        <time>2022-12-14T12:27:57.293Z</time>
      </trkpt>
      <trkpt lat="47.86651" lon="-2.44072">
        <ele>65.038336</ele>
        <time>2022-12-14T12:28:01.348Z</time>
      </trkpt>
      <trkpt lat="47.8665" lon="-2.44073">
        <ele>65.017897</ele>
        <time>2022-12-14T12:30:39.474Z</time>
      </trkpt>
      <trkpt lat="47.86653" lon="-2.44084">
        <ele>64.903763</ele>
        <time>2022-12-14T12:34:38.265Z</time>
      </trkpt>
      <trkpt lat="47.8665" lon="-2.441">
        <ele>64.739957</ele>
        <time>2022-12-14T12:36:16.318Z</time>
      </trkpt>
      <trkpt lat="47.86649" lon="-2.44115">
        <ele>64.593372</ele>
        <time>2022-12-14T12:36:20.277Z</time>
      </trkpt>
      <trkpt lat="47.86648" lon="-2.44129">
        <ele>64.455754</ele>
        <time>2022-12-14T12:36:23.289Z</time>
      </trkpt>
      <trkpt lat="47.86647" lon="-2.44144">
        <ele>64.308718</ele>
        <time>2022-12-14T12:36:26.268Z</time>
      </trkpt>
      <trkpt lat="47.86646" lon="-2.4416">
        <ele>64.151465</ele>
        <time>2022-12-14T12:36:29.272Z</time>
      </trkpt>
      <trkpt lat="47.86645" lon="-2.44177">
        <ele>63.984511</ele>
        <time>2022-12-14T12:36:32.280Z</time>
      </trkpt>
      <trkpt lat="47.86644" lon="-2.44194">
        <ele>63.814751</ele>
        <time>2022-12-14T12:36:35.285Z</time>
      </trkpt>
      <trkpt lat="47.86644" lon="-2.44211">
        <ele>63.649053</ele>
        <time>2022-12-14T12:36:38.288Z</time>
      </trkpt>
      <trkpt lat="47.86643" lon="-2.44226">
        <ele>63.502986</ele>
        <time>2022-12-14T12:36:41.285Z</time>
      </trkpt>
      <trkpt lat="47.86642" lon="-2.44241">
        <ele>63.36095</ele>
        <time>2022-12-14T12:36:44.287Z</time>
      </trkpt>
      <trkpt lat="47.86641" lon="-2.44257">
        <ele>63.203698</ele>
        <time>2022-12-14T12:36:47.286Z</time>
      </trkpt>
      <trkpt lat="47.8664" lon="-2.44274">
        <ele>63.037822</ele>
        <time>2022-12-14T12:36:50.267Z</time>
      </trkpt>
      <trkpt lat="47.8664" lon="-2.44292">
        <ele>62.860191</ele>
        <time>2022-12-14T12:36:53.285Z</time>
      </trkpt>
      <trkpt lat="47.86638" lon="-2.44311">
        <ele>62.677477</ele>
        <time>2022-12-14T12:36:56.286Z</time>
      </trkpt>
      <trkpt lat="47.86637" lon="-2.44329">
        <ele>62.496823</ele>
        <time>2022-12-14T12:36:59.294Z</time>
      </trkpt>
      <trkpt lat="47.86637" lon="-2.44346">
        <ele>62.654584</ele>
        <time>2022-12-14T12:37:02.285Z</time>
      </trkpt>
      <trkpt lat="47.86636" lon="-2.44364">
        <ele>62.886389</ele>
        <time>2022-12-14T12:37:06.285Z</time>
      </trkpt>
      <trkpt lat="47.86635" lon="-2.4438">
        <ele>63.091846</ele>
        <time>2022-12-14T12:37:09.268Z</time>
      </trkpt>
      <trkpt lat="47.86635" lon="-2.44396">
        <ele>63.29546</ele>
        <time>2022-12-14T12:37:12.287Z</time>
      </trkpt>
      <trkpt lat="47.86634" lon="-2.44411">
        <ele>63.487397</ele>
        <time>2022-12-14T12:37:15.291Z</time>
      </trkpt>
      <trkpt lat="47.86633" lon="-2.44425">
        <ele>63.670236</ele>
        <time>2022-12-14T12:37:18.282Z</time>
      </trkpt>
      <trkpt lat="47.86629" lon="-2.44437">
        <ele>63.845701</ele>
        <time>2022-12-14T12:37:21.286Z</time>
      </trkpt>
      <trkpt lat="47.8662" lon="-2.44448">
        <ele>64.064242</ele>
        <time>2022-12-14T12:37:24.289Z</time>
      </trkpt>
      <trkpt lat="47.86608" lon="-2.4445">
        <ele>64.290731</ele>
        <time>2022-12-14T12:37:27.284Z</time>
      </trkpt>
      <trkpt lat="47.86597" lon="-2.44449">
        <ele>64.506279</ele>
        <time>2022-12-14T12:37:30.286Z</time>
      </trkpt>
      <trkpt lat="47.86587" lon="-2.44448">
        <ele>64.695931</ele>
        <time>2022-12-14T12:37:33.277Z</time>
      </trkpt>
      <trkpt lat="47.86577" lon="-2.44447">
        <ele>64.886946</ele>
        <time>2022-12-14T12:37:36.285Z</time>
      </trkpt>
      <trkpt lat="47.86567" lon="-2.44445">
        <ele>65.066026</ele>
        <time>2022-12-14T12:37:39.287Z</time>
      </trkpt>
      <trkpt lat="47.86557" lon="-2.44443">
        <ele>65.273287</ele>
        <time>2022-12-14T12:37:43.292Z</time>
      </trkpt>
      <trkpt lat="47.86547" lon="-2.4444">
        <ele>65.464447</ele>
        <time>2022-12-14T12:37:47.287Z</time>
      </trkpt>
      <trkpt lat="47.86537" lon="-2.44437">
        <ele>65.652802</ele>
        <time>2022-12-14T12:37:52.289Z</time>
      </trkpt>
      <trkpt lat="47.86527" lon="-2.44435">
        <ele>65.851938</ele>
        <time>2022-12-14T12:37:57.285Z</time>
      </trkpt>
      <trkpt lat="47.8652" lon="-2.44446">
        <ele>65.971134</ele>
        <time>2022-12-14T12:38:02.287Z</time>
      </trkpt>
      <trkpt lat="47.86517" lon="-2.44459">
        <ele>66.05918</ele>
        <time>2022-12-14T12:38:14.286Z</time>
      </trkpt>
      <trkpt lat="47.86514" lon="-2.44472">
        <ele>66.145203</ele>
        <time>2022-12-14T12:38:40.287Z</time>
      </trkpt>
      <trkpt lat="47.86512" lon="-2.44488">
        <ele>66.248225</ele>
        <time>2022-12-14T12:38:46.284Z</time>
      </trkpt>
      <trkpt lat="47.86511" lon="-2.44502">
        <ele>66.337986</ele>
        <time>2022-12-14T12:38:50.282Z</time>
      </trkpt>
      <trkpt lat="47.8651" lon="-2.44515">
        <ele>66.424899</ele>
        <time>2022-12-14T12:38:54.307Z</time>
      </trkpt>
      <trkpt lat="47.8651" lon="-2.4453">
        <ele>66.515451</ele>
        <time>2022-12-14T12:38:58.287Z</time>
      </trkpt>
      <trkpt lat="47.86509" lon="-2.44544">
        <ele>66.606574</ele>
        <time>2022-12-14T12:39:02.270Z</time>
      </trkpt>
      <trkpt lat="47.86507" lon="-2.44557">
        <ele>66.692056</ele>
        <time>2022-12-14T12:39:06.268Z</time>
      </trkpt>
      <trkpt lat="47.86506" lon="-2.44573">
        <ele>66.791634</ele>
        <time>2022-12-14T12:39:11.286Z</time>
      </trkpt>
      <trkpt lat="47.86506" lon="-2.44586">
        <ele>66.878211</ele>
        <time>2022-12-14T12:39:15.284Z</time>
      </trkpt>
      <trkpt lat="47.86504" lon="-2.446">
        <ele>66.967619</ele>
        <time>2022-12-14T12:39:19.283Z</time>
      </trkpt>
      <trkpt lat="47.86502" lon="-2.44614">
        <ele>67.055779</ele>
        <time>2022-12-14T12:39:24.268Z</time>
      </trkpt>
      <trkpt lat="47.86495" lon="-2.44624">
        <ele>67.150199</ele>
        <time>2022-12-14T12:39:29.290Z</time>
      </trkpt>
      <trkpt lat="47.86484" lon="-2.44622">
        <ele>67.260634</ele>
        <time>2022-12-14T12:39:34.272Z</time>
      </trkpt>
      <trkpt lat="47.86472" lon="-2.44618">
        <ele>67.373949</ele>
        <time>2022-12-14T12:39:38.283Z</time>
      </trkpt>
      <trkpt lat="47.86463" lon="-2.44615">
        <ele>67.462717</ele>
        <time>2022-12-14T12:39:41.285Z</time>
      </trkpt>
      <trkpt lat="47.86453" lon="-2.44613">
        <ele>67.553466</ele>
        <time>2022-12-14T12:39:44.274Z</time>
      </trkpt>
      <trkpt lat="47.86443" lon="-2.44609">
        <ele>67.479631</ele>
        <time>2022-12-14T12:39:47.285Z</time>
      </trkpt>
      <trkpt lat="47.86432" lon="-2.44605">
        <ele>67.188224</ele>
        <time>2022-12-14T12:39:50.288Z</time>
      </trkpt>
      <trkpt lat="47.86421" lon="-2.44601">
        <ele>66.913953</ele>
        <time>2022-12-14T12:39:53.287Z</time>
      </trkpt>
      <trkpt lat="47.86412" lon="-2.44597">
        <ele>66.671066</ele>
        <time>2022-12-14T12:39:56.292Z</time>
      </trkpt>
      <trkpt lat="47.86403" lon="-2.44593">
        <ele>66.444649</ele>
        <time>2022-12-14T12:39:59.264Z</time>
      </trkpt>
      <trkpt lat="47.86394" lon="-2.4459">
        <ele>66.205494</ele>
        <time>2022-12-14T12:40:02.286Z</time>
      </trkpt>
      <trkpt lat="47.86384" lon="-2.44587">
        <ele>65.94426</ele>
        <time>2022-12-14T12:40:05.267Z</time>
      </trkpt>
      <trkpt lat="47.86374" lon="-2.44584">
        <ele>65.703854</ele>
        <time>2022-12-14T12:40:08.268Z</time>
      </trkpt>
      <trkpt lat="47.86364" lon="-2.44581">
        <ele>65.430511</ele>
        <time>2022-12-14T12:40:12.286Z</time>
      </trkpt>
      <trkpt lat="47.86343" lon="-2.44576">
        <ele>64.909783</ele>
        <time>2022-12-14T12:40:38.276Z</time>
      </trkpt>
      <trkpt lat="47.86332" lon="-2.44575">
        <ele>64.616197</ele>
        <time>2022-12-14T12:40:42.289Z</time>
      </trkpt>
      <trkpt lat="47.86322" lon="-2.44572">
        <ele>64.364327</ele>
        <time>2022-12-14T12:40:45.287Z</time>
      </trkpt>
      <trkpt lat="47.86313" lon="-2.44571">
        <ele>64.131029</ele>
        <time>2022-12-14T12:40:48.285Z</time>
      </trkpt>
      <trkpt lat="47.86302" lon="-2.4457">
        <ele>63.868419</ele>
        <time>2022-12-14T12:40:51.266Z</time>
      </trkpt>
      <trkpt lat="47.86291" lon="-2.44568">
        <ele>63.584094</ele>
        <time>2022-12-14T12:40:54.283Z</time>
      </trkpt>
      <trkpt lat="47.86279" lon="-2.44566">
        <ele>63.284964</ele>
        <time>2022-12-14T12:40:57.286Z</time>
      </trkpt>
      <trkpt lat="47.86267" lon="-2.44563">
        <ele>63.081268</ele>
        <time>2022-12-14T12:41:00.287Z</time>
      </trkpt>
      <trkpt lat="47.86254" lon="-2.44561">
        <ele>63.094678</ele>
        <time>2022-12-14T12:41:03.285Z</time>
      </trkpt>
      <trkpt lat="47.86241" lon="-2.44559">
        <ele>63.108416</ele>
        <time>2022-12-14T12:41:06.269Z</time>
      </trkpt>
      <trkpt lat="47.86229" lon="-2.44557">
        <ele>63.121728</ele>
        <time>2022-12-14T12:41:09.277Z</time>
      </trkpt>
      <trkpt lat="47.86216" lon="-2.44556">
        <ele>63.134775</ele>
        <time>2022-12-14T12:41:12.284Z</time>
      </trkpt>
      <trkpt lat="47.86205" lon="-2.44557">
        <ele>63.14665</ele>
        <time>2022-12-14T12:41:15.287Z</time>
      </trkpt>
      <trkpt lat="47.86194" lon="-2.44557">
        <ele>63.158417</ele>
        <time>2022-12-14T12:41:18.286Z</time>
      </trkpt>
      <trkpt lat="47.86181" lon="-2.44556">
        <ele>63.171868</ele>
        <time>2022-12-14T12:41:21.297Z</time>
      </trkpt>
      <trkpt lat="47.86168" lon="-2.44557">
        <ele>63.185842</ele>
        <time>2022-12-14T12:41:24.283Z</time>
      </trkpt>
      <trkpt lat="47.86154" lon="-2.44556">
        <ele>63.200031</ele>
        <time>2022-12-14T12:41:27.294Z</time>
      </trkpt>
      <trkpt lat="47.86145" lon="-2.44557">
        <ele>63.209613</ele>
        <time>2022-12-14T12:41:29.293Z</time>
      </trkpt>
      <trkpt lat="47.86136" lon="-2.44558">
        <ele>63.219304</ele>
        <time>2022-12-14T12:41:31.288Z</time>
      </trkpt>
      <trkpt lat="47.86127" lon="-2.44559">
        <ele>63.228881</ele>
        <time>2022-12-14T12:41:33.281Z</time>
      </trkpt>
      <trkpt lat="47.86114" lon="-2.44561">
        <ele>63.242747</ele>
        <time>2022-12-14T12:41:36.293Z</time>
      </trkpt>
      <trkpt lat="47.86102" lon="-2.44565">
        <ele>63.2558</ele>
        <time>2022-12-14T12:41:39.286Z</time>
      </trkpt>
      <trkpt lat="47.8609" lon="-2.44569">
        <ele>63.263677</ele>
        <time>2022-12-14T12:41:42.287Z</time>
      </trkpt>
      <trkpt lat="47.8608" lon="-2.44571">
        <ele>63.251198</ele>
        <time>2022-12-14T12:41:45.293Z</time>
      </trkpt>
      <trkpt lat="47.8607" lon="-2.44576">
        <ele>63.2383</ele>
        <time>2022-12-14T12:41:48.288Z</time>
      </trkpt>
      <trkpt lat="47.8606" lon="-2.44581">
        <ele>63.224809</ele>
        <time>2022-12-14T12:41:51.288Z</time>
      </trkpt>
      <trkpt lat="47.86049" lon="-2.44588">
        <ele>63.210123</ele>
        <time>2022-12-14T12:41:54.287Z</time>
      </trkpt>
      <trkpt lat="47.86037" lon="-2.44596">
        <ele>63.194469</ele>
        <time>2022-12-14T12:41:57.286Z</time>
      </trkpt>
      <trkpt lat="47.86025" lon="-2.44605">
        <ele>63.178044</ele>
        <time>2022-12-14T12:42:00.286Z</time>
      </trkpt>
      <trkpt lat="47.86017" lon="-2.44612">
        <ele>63.166104</ele>
        <time>2022-12-14T12:42:02.284Z</time>
      </trkpt>
      <trkpt lat="47.86009" lon="-2.4462">
        <ele>63.153922</ele>
        <time>2022-12-14T12:42:04.272Z</time>
      </trkpt>
      <trkpt lat="47.86001" lon="-2.44628">
        <ele>63.142342</ele>
        <time>2022-12-14T12:42:06.289Z</time>
      </trkpt>
      <trkpt lat="47.85993" lon="-2.44634">
        <ele>63.131232</ele>
        <time>2022-12-14T12:42:08.272Z</time>
      </trkpt>
      <trkpt lat="47.85982" lon="-2.44643">
        <ele>63.116315</ele>
        <time>2022-12-14T12:42:11.276Z</time>
      </trkpt>
      <trkpt lat="47.85972" lon="-2.44652">
        <ele>63.101612</ele>
        <time>2022-12-14T12:42:14.275Z</time>
      </trkpt>
      <trkpt lat="47.85961" lon="-2.4466">
        <ele>63.086545</ele>
        <time>2022-12-14T12:42:17.289Z</time>
      </trkpt>
      <trkpt lat="47.85949" lon="-2.44667">
        <ele>63.070781</ele>
        <time>2022-12-14T12:42:20.285Z</time>
      </trkpt>
      <trkpt lat="47.85936" lon="-2.44672">
        <ele>63.055169</ele>
        <time>2022-12-14T12:42:23.288Z</time>
      </trkpt>
      <trkpt lat="47.85924" lon="-2.44676">
        <ele>63.028934</ele>
        <time>2022-12-14T12:42:26.269Z</time>
      </trkpt>
      <trkpt lat="47.85912" lon="-2.44679">
        <ele>62.986086</ele>
        <time>2022-12-14T12:42:29.272Z</time>
      </trkpt>
      <trkpt lat="47.859" lon="-2.44681">
        <ele>62.939133</ele>
        <time>2022-12-14T12:42:32.287Z</time>
      </trkpt>
      <trkpt lat="47.85886" lon="-2.44683">
        <ele>62.890763</ele>
        <time>2022-12-14T12:42:35.270Z</time>
      </trkpt>
      <trkpt lat="47.85877" lon="-2.44685">
        <ele>62.857643</ele>
        <time>2022-12-14T12:42:37.286Z</time>
      </trkpt>
      <trkpt lat="47.85865" lon="-2.44687">
        <ele>62.812239</ele>
        <time>2022-12-14T12:42:40.285Z</time>
      </trkpt>
      <trkpt lat="47.85854" lon="-2.44689">
        <ele>62.771843</ele>
        <time>2022-12-14T12:42:43.287Z</time>
      </trkpt>
      <trkpt lat="47.85843" lon="-2.44691">
        <ele>62.731875</ele>
        <time>2022-12-14T12:42:46.281Z</time>
      </trkpt>
      <trkpt lat="47.8583" lon="-2.44691">
        <ele>62.687292</ele>
        <time>2022-12-14T12:42:49.294Z</time>
      </trkpt>
      <trkpt lat="47.85821" lon="-2.44692">
        <ele>62.652452</ele>
        <time>2022-12-14T12:42:51.266Z</time>
      </trkpt>
      <trkpt lat="47.85807" lon="-2.44692">
        <ele>62.603195</ele>
        <time>2022-12-14T12:42:54.281Z</time>
      </trkpt>
      <trkpt lat="47.85794" lon="-2.44691">
        <ele>62.554668</ele>
        <time>2022-12-14T12:42:57.285Z</time>
      </trkpt>
      <trkpt lat="47.85781" lon="-2.44689">
        <ele>62.507739</ele>
        <time>2022-12-14T12:43:00.287Z</time>
      </trkpt>
      <trkpt lat="47.85769" lon="-2.44686">
        <ele>62.462577</ele>
        <time>2022-12-14T12:43:03.297Z</time>
      </trkpt>
      <trkpt lat="47.85759" lon="-2.44682">
        <ele>62.428089</ele>
        <time>2022-12-14T12:43:05.271Z</time>
      </trkpt>
      <trkpt lat="47.8575" lon="-2.44678">
        <ele>62.393743</ele>
        <time>2022-12-14T12:43:07.286Z</time>
      </trkpt>
      <trkpt lat="47.85741" lon="-2.44673">
        <ele>62.392229</ele>
        <time>2022-12-14T12:43:09.275Z</time>
      </trkpt>
      <trkpt lat="47.85729" lon="-2.44666">
        <ele>62.390014</ele>
        <time>2022-12-14T12:43:12.280Z</time>
      </trkpt>
      <trkpt lat="47.85721" lon="-2.44661">
        <ele>62.388479</ele>
        <time>2022-12-14T12:43:14.294Z</time>
      </trkpt>
      <trkpt lat="47.8571" lon="-2.44654">
        <ele>62.386547</ele>
        <time>2022-12-14T12:43:17.286Z</time>
      </trkpt>
      <trkpt lat="47.857" lon="-2.44648">
        <ele>62.384686</ele>
        <time>2022-12-14T12:43:20.275Z</time>
      </trkpt>
      <trkpt lat="47.85687" lon="-2.44643">
        <ele>62.382522</ele>
        <time>2022-12-14T12:43:23.286Z</time>
      </trkpt>
      <trkpt lat="47.85677" lon="-2.44638">
        <ele>62.38078</ele>
        <time>2022-12-14T12:43:25.287Z</time>
      </trkpt>
      <trkpt lat="47.85664" lon="-2.44634">
        <ele>62.378521</ele>
        <time>2022-12-14T12:43:28.286Z</time>
      </trkpt>
      <trkpt lat="47.85652" lon="-2.4463">
        <ele>62.37635</ele>
        <time>2022-12-14T12:43:31.277Z</time>
      </trkpt>
      <trkpt lat="47.8564" lon="-2.44626">
        <ele>62.374349</ele>
        <time>2022-12-14T12:43:34.270Z</time>
      </trkpt>
      <trkpt lat="47.85627" lon="-2.44623">
        <ele>62.372194</ele>
        <time>2022-12-14T12:43:37.283Z</time>
      </trkpt>
      <trkpt lat="47.85617" lon="-2.44622">
        <ele>62.370517</ele>
        <time>2022-12-14T12:43:39.276Z</time>
      </trkpt>
      <trkpt lat="47.85604" lon="-2.4462">
        <ele>62.368249</ele>
        <time>2022-12-14T12:43:42.293Z</time>
      </trkpt>
      <trkpt lat="47.85591" lon="-2.44619">
        <ele>62.366043</ele>
        <time>2022-12-14T12:43:45.285Z</time>
      </trkpt>
      <trkpt lat="47.8558" lon="-2.44619">
        <ele>62.364243</ele>
        <time>2022-12-14T12:43:48.287Z</time>
      </trkpt>
      <trkpt lat="47.85569" lon="-2.44619">
        <ele>62.379001</ele>
        <time>2022-12-14T12:43:51.287Z</time>
      </trkpt>
      <trkpt lat="47.85555" lon="-2.4462">
        <ele>62.40575</ele>
        <time>2022-12-14T12:43:54.295Z</time>
      </trkpt>
      <trkpt lat="47.85546" lon="-2.44619">
        <ele>62.424263</ele>
        <time>2022-12-14T12:43:56.283Z</time>
      </trkpt>
      <trkpt lat="47.85533" lon="-2.44619">
        <ele>62.449016</ele>
        <time>2022-12-14T12:43:59.284Z</time>
      </trkpt>
      <trkpt lat="47.8552" lon="-2.44621">
        <ele>62.474064</ele>
        <time>2022-12-14T12:44:02.284Z</time>
      </trkpt>
      <trkpt lat="47.85509" lon="-2.44622">
        <ele>62.496702</ele>
        <time>2022-12-14T12:44:05.276Z</time>
      </trkpt>
      <trkpt lat="47.85497" lon="-2.44625">
        <ele>62.520153</ele>
        <time>2022-12-14T12:44:08.282Z</time>
      </trkpt>
      <trkpt lat="47.85484" lon="-2.44629">
        <ele>62.545985</ele>
        <time>2022-12-14T12:44:11.280Z</time>
      </trkpt>
      <trkpt lat="47.85475" lon="-2.44632">
        <ele>62.56448</ele>
        <time>2022-12-14T12:44:13.280Z</time>
      </trkpt>
      <trkpt lat="47.85466" lon="-2.44637">
        <ele>62.583771</ele>
        <time>2022-12-14T12:44:15.285Z</time>
      </trkpt>
      <trkpt lat="47.85452" lon="-2.44639">
        <ele>62.610449</ele>
        <time>2022-12-14T12:44:18.277Z</time>
      </trkpt>
      <trkpt lat="47.85443" lon="-2.4464">
        <ele>62.628615</ele>
        <time>2022-12-14T12:44:20.277Z</time>
      </trkpt>
      <trkpt lat="47.85431" lon="-2.44643">
        <ele>62.653196</ele>
        <time>2022-12-14T12:44:23.282Z</time>
      </trkpt>
      <trkpt lat="47.85418" lon="-2.44645">
        <ele>62.679016</ele>
        <time>2022-12-14T12:44:26.285Z</time>
      </trkpt>
      <trkpt lat="47.85406" lon="-2.44644">
        <ele>62.701804</ele>
        <time>2022-12-14T12:44:29.269Z</time>
      </trkpt>
      <trkpt lat="47.85395" lon="-2.44644">
        <ele>62.665184</ele>
        <time>2022-12-14T12:44:32.293Z</time>
      </trkpt>
      <trkpt lat="47.85383" lon="-2.44644">
        <ele>62.491431</ele>
        <time>2022-12-14T12:44:35.272Z</time>
      </trkpt>
      <trkpt lat="47.85371" lon="-2.44643">
        <ele>62.300225</ele>
        <time>2022-12-14T12:44:38.279Z</time>
      </trkpt>
      <trkpt lat="47.85357" lon="-2.44641">
        <ele>62.087966</ele>
        <time>2022-12-14T12:44:41.272Z</time>
      </trkpt>
      <trkpt lat="47.85347" lon="-2.44642">
        <ele>61.938554</ele>
        <time>2022-12-14T12:44:43.286Z</time>
      </trkpt>
      <trkpt lat="47.85338" lon="-2.44641">
        <ele>61.792157</ele>
        <time>2022-12-14T12:44:45.270Z</time>
      </trkpt>
      <trkpt lat="47.85327" lon="-2.44641">
        <ele>61.636583</ele>
        <time>2022-12-14T12:44:47.289Z</time>
      </trkpt>
      <trkpt lat="47.85317" lon="-2.4464">
        <ele>61.482601</ele>
        <time>2022-12-14T12:44:49.297Z</time>
      </trkpt>
      <trkpt lat="47.85307" lon="-2.44639">
        <ele>61.331222</ele>
        <time>2022-12-14T12:44:51.271Z</time>
      </trkpt>
      <trkpt lat="47.85294" lon="-2.44637">
        <ele>61.129012</ele>
        <time>2022-12-14T12:44:54.291Z</time>
      </trkpt>
      <trkpt lat="47.85285" lon="-2.44635">
        <ele>60.985166</ele>
        <time>2022-12-14T12:44:56.295Z</time>
      </trkpt>
      <trkpt lat="47.85276" lon="-2.44632">
        <ele>60.848238</ele>
        <time>2022-12-14T12:44:58.291Z</time>
      </trkpt>
      <trkpt lat="47.85263" lon="-2.44629">
        <ele>60.646087</ele>
        <time>2022-12-14T12:45:01.285Z</time>
      </trkpt>
      <trkpt lat="47.8525" lon="-2.44625">
        <ele>60.45056</ele>
        <time>2022-12-14T12:45:04.272Z</time>
      </trkpt>
      <trkpt lat="47.85238" lon="-2.44622">
        <ele>60.257435</ele>
        <time>2022-12-14T12:45:07.289Z</time>
      </trkpt>
      <trkpt lat="47.85226" lon="-2.44617">
        <ele>60.064324</ele>
        <time>2022-12-14T12:45:10.285Z</time>
      </trkpt>
      <trkpt lat="47.85216" lon="-2.44613">
        <ele>59.97063</ele>
        <time>2022-12-14T12:45:12.291Z</time>
      </trkpt>
      <trkpt lat="47.85207" lon="-2.44609">
        <ele>59.958283</ele>
        <time>2022-12-14T12:45:14.295Z</time>
      </trkpt>
      <trkpt lat="47.85194" lon="-2.44605">
        <ele>59.940211</ele>
        <time>2022-12-14T12:45:17.273Z</time>
      </trkpt>
      <trkpt lat="47.85185" lon="-2.44601">
        <ele>59.928186</ele>
        <time>2022-12-14T12:45:19.276Z</time>
      </trkpt>
      <trkpt lat="47.85173" lon="-2.44598">
        <ele>59.911746</ele>
        <time>2022-12-14T12:45:22.286Z</time>
      </trkpt>
      <trkpt lat="47.85161" lon="-2.44593">
        <ele>59.896465</ele>
        <time>2022-12-14T12:45:25.287Z</time>
      </trkpt>
      <trkpt lat="47.85151" lon="-2.4459">
        <ele>59.883359</ele>
        <time>2022-12-14T12:45:28.296Z</time>
      </trkpt>
      <trkpt lat="47.85141" lon="-2.44588">
        <ele>59.869506</ele>
        <time>2022-12-14T12:45:32.270Z</time>
      </trkpt>
      <trkpt lat="47.85131" lon="-2.44584">
        <ele>59.856299</ele>
        <time>2022-12-14T12:45:36.284Z</time>
      </trkpt>
      <trkpt lat="47.85123" lon="-2.44577">
        <ele>59.843811</ele>
        <time>2022-12-14T12:45:40.287Z</time>
      </trkpt>
      <trkpt lat="47.85113" lon="-2.44574">
        <ele>59.831194</ele>
        <time>2022-12-14T12:45:43.293Z</time>
      </trkpt>
      <trkpt lat="47.85102" lon="-2.44569">
        <ele>59.815644</ele>
        <time>2022-12-14T12:45:46.268Z</time>
      </trkpt>
      <trkpt lat="47.8509" lon="-2.44565">
        <ele>59.799306</ele>
        <time>2022-12-14T12:45:49.270Z</time>
      </trkpt>
      <trkpt lat="47.85078" lon="-2.4456">
        <ele>59.783245</ele>
        <time>2022-12-14T12:45:52.283Z</time>
      </trkpt>
      <trkpt lat="47.85066" lon="-2.44555">
        <ele>59.766818</ele>
        <time>2022-12-14T12:45:55.291Z</time>
      </trkpt>
      <trkpt lat="47.85057" lon="-2.44551">
        <ele>59.755048</ele>
        <time>2022-12-14T12:45:57.295Z</time>
      </trkpt>
      <trkpt lat="47.85048" lon="-2.44548">
        <ele>59.743149</ele>
        <time>2022-12-14T12:45:59.270Z</time>
      </trkpt>
      <trkpt lat="47.85039" lon="-2.44545">
        <ele>59.762308</ele>
        <time>2022-12-14T12:46:01.291Z</time>
      </trkpt>
      <trkpt lat="47.85031" lon="-2.4454">
        <ele>59.788975</ele>
        <time>2022-12-14T12:46:03.286Z</time>
      </trkpt>
      <trkpt lat="47.8502" lon="-2.44536">
        <ele>59.819182</ele>
        <time>2022-12-14T12:46:05.286Z</time>
      </trkpt>
      <trkpt lat="47.8501" lon="-2.44533">
        <ele>59.848217</ele>
        <time>2022-12-14T12:46:07.269Z</time>
      </trkpt>
      <trkpt lat="47.85001" lon="-2.44529">
        <ele>59.877301</ele>
        <time>2022-12-14T12:46:09.285Z</time>
      </trkpt>
      <trkpt lat="47.8499" lon="-2.44525">
        <ele>59.908328</ele>
        <time>2022-12-14T12:46:11.272Z</time>
      </trkpt>
      <trkpt lat="47.84981" lon="-2.44521">
        <ele>59.935784</ele>
        <time>2022-12-14T12:46:13.292Z</time>
      </trkpt>
      <trkpt lat="47.84971" lon="-2.44518">
        <ele>59.964871</ele>
        <time>2022-12-14T12:46:15.271Z</time>
      </trkpt>
      <trkpt lat="47.84958" lon="-2.44513">
        <ele>60.003366</ele>
        <time>2022-12-14T12:46:18.295Z</time>
      </trkpt>
      <trkpt lat="47.84949" lon="-2.44509">
        <ele>60.029587</ele>
        <time>2022-12-14T12:46:20.290Z</time>
      </trkpt>
      <trkpt lat="47.84941" lon="-2.44504">
        <ele>60.055987</ele>
        <time>2022-12-14T12:46:22.286Z</time>
      </trkpt>
      <trkpt lat="47.84932" lon="-2.44498">
        <ele>60.083499</ele>
        <time>2022-12-14T12:46:24.288Z</time>
      </trkpt>
      <trkpt lat="47.84923" lon="-2.44493">
        <ele>60.1097</ele>
        <time>2022-12-14T12:46:26.268Z</time>
      </trkpt>
      <trkpt lat="47.84915" lon="-2.44487">
        <ele>60.137368</ele>
        <time>2022-12-14T12:46:28.267Z</time>
      </trkpt>
      <trkpt lat="47.84907" lon="-2.4448">
        <ele>60.164435</ele>
        <time>2022-12-14T12:46:30.269Z</time>
      </trkpt>
      <trkpt lat="47.84898" lon="-2.44474">
        <ele>60.190742</ele>
        <time>2022-12-14T12:46:32.295Z</time>
      </trkpt>
      <trkpt lat="47.84887" lon="-2.44466">
        <ele>60.227391</ele>
        <time>2022-12-14T12:46:35.274Z</time>
      </trkpt>
      <trkpt lat="47.84876" lon="-2.44457">
        <ele>60.250694</ele>
        <time>2022-12-14T12:46:38.279Z</time>
      </trkpt>
      <trkpt lat="47.84864" lon="-2.44448">
        <ele>60.211449</ele>
        <time>2022-12-14T12:46:41.286Z</time>
      </trkpt>
      <trkpt lat="47.84853" lon="-2.44437">
        <ele>60.172018</ele>
        <time>2022-12-14T12:46:44.290Z</time>
      </trkpt>
      <trkpt lat="47.84845" lon="-2.44429">
        <ele>60.144377</ele>
        <time>2022-12-14T12:46:46.299Z</time>
      </trkpt>
      <trkpt lat="47.84836" lon="-2.44421">
        <ele>60.116067</ele>
        <time>2022-12-14T12:46:48.289Z</time>
      </trkpt>
      <trkpt lat="47.84828" lon="-2.44413">
        <ele>60.086776</ele>
        <time>2022-12-14T12:46:50.298Z</time>
      </trkpt>
      <trkpt lat="47.8482" lon="-2.44404">
        <ele>60.058795</ele>
        <time>2022-12-14T12:46:52.271Z</time>
      </trkpt>
      <trkpt lat="47.8481" lon="-2.44393">
        <ele>60.022457</ele>
        <time>2022-12-14T12:46:55.270Z</time>
      </trkpt>
      <trkpt lat="47.848" lon="-2.44382">
        <ele>59.985642</ele>
        <time>2022-12-14T12:46:58.285Z</time>
      </trkpt>
      <trkpt lat="47.84791" lon="-2.44371">
        <ele>59.952198</ele>
        <time>2022-12-14T12:47:01.343Z</time>
      </trkpt>
      <trkpt lat="47.84782" lon="-2.4436">
        <ele>59.918652</ele>
        <time>2022-12-14T12:47:04.292Z</time>
      </trkpt>
      <trkpt lat="47.84773" lon="-2.44346">
        <ele>59.881806</ele>
        <time>2022-12-14T12:47:07.287Z</time>
      </trkpt>
      <trkpt lat="47.84763" lon="-2.44334">
        <ele>59.843342</ele>
        <time>2022-12-14T12:47:10.319Z</time>
      </trkpt>
      <trkpt lat="47.84756" lon="-2.44325">
        <ele>59.816917</ele>
        <time>2022-12-14T12:47:12.270Z</time>
      </trkpt>
      <trkpt lat="47.84746" lon="-2.44311">
        <ele>59.777285</ele>
        <time>2022-12-14T12:47:15.290Z</time>
      </trkpt>
      <trkpt lat="47.84739" lon="-2.44302">
        <ele>59.75</ele>
        <time>2022-12-14T12:47:17.295Z</time>
      </trkpt>
      <trkpt lat="47.84729" lon="-2.44289">
        <ele>59.764432</ele>
        <time>2022-12-14T12:47:20.283Z</time>
      </trkpt>
      <trkpt lat="47.84719" lon="-2.44276">
        <ele>59.811437</ele>
        <time>2022-12-14T12:47:23.274Z</time>
      </trkpt>
      <trkpt lat="47.84711" lon="-2.44268">
        <ele>59.845863</ele>
        <time>2022-12-14T12:47:25.285Z</time>
      </trkpt>
      <trkpt lat="47.84702" lon="-2.4426">
        <ele>59.879932</ele>
        <time>2022-12-14T12:47:27.274Z</time>
      </trkpt>
      <trkpt lat="47.84694" lon="-2.44253">
        <ele>59.913284</ele>
        <time>2022-12-14T12:47:29.286Z</time>
      </trkpt>
      <trkpt lat="47.84682" lon="-2.44247">
        <ele>59.957943</ele>
        <time>2022-12-14T12:47:32.275Z</time>
      </trkpt>
      <trkpt lat="47.84673" lon="-2.44243">
        <ele>59.991572</ele>
        <time>2022-12-14T12:47:34.299Z</time>
      </trkpt>
      <trkpt lat="47.84663" lon="-2.4424">
        <ele>60.024895</ele>
        <time>2022-12-14T12:47:36.285Z</time>
      </trkpt>
      <trkpt lat="47.84654" lon="-2.44237">
        <ele>60.058375</ele>
        <time>2022-12-14T12:47:38.296Z</time>
      </trkpt>
      <trkpt lat="47.84645" lon="-2.44234">
        <ele>60.089937</ele>
        <time>2022-12-14T12:47:40.272Z</time>
      </trkpt>
      <trkpt lat="47.84636" lon="-2.44231">
        <ele>60.123462</ele>
        <time>2022-12-14T12:47:42.285Z</time>
      </trkpt>
      <trkpt lat="47.84626" lon="-2.44228">
        <ele>60.157178</ele>
        <time>2022-12-14T12:47:44.288Z</time>
      </trkpt>
      <trkpt lat="47.84616" lon="-2.44225">
        <ele>60.193781</ele>
        <time>2022-12-14T12:47:46.284Z</time>
      </trkpt>
      <trkpt lat="47.84607" lon="-2.44222">
        <ele>60.226322</ele>
        <time>2022-12-14T12:47:48.288Z</time>
      </trkpt>
      <trkpt lat="47.84598" lon="-2.44219">
        <ele>60.259939</ele>
        <time>2022-12-14T12:47:50.288Z</time>
      </trkpt>
      <trkpt lat="47.84589" lon="-2.44217">
        <ele>60.291747</ele>
        <time>2022-12-14T12:47:52.273Z</time>
      </trkpt>
      <trkpt lat="47.84576" lon="-2.44212">
        <ele>60.337305</ele>
        <time>2022-12-14T12:47:55.273Z</time>
      </trkpt>
      <trkpt lat="47.84564" lon="-2.44209">
        <ele>60.388869</ele>
        <time>2022-12-14T12:47:58.286Z</time>
      </trkpt>
      <trkpt lat="47.84551" lon="-2.44205">
        <ele>60.45935</ele>
        <time>2022-12-14T12:48:01.284Z</time>
      </trkpt>
      <trkpt lat="47.84542" lon="-2.44203">
        <ele>60.512472</ele>
        <time>2022-12-14T12:48:03.279Z</time>
      </trkpt>
      <trkpt lat="47.84528" lon="-2.442">
        <ele>60.588148</ele>
        <time>2022-12-14T12:48:06.289Z</time>
      </trkpt>
      <trkpt lat="47.84518" lon="-2.44198">
        <ele>60.640997</ele>
        <time>2022-12-14T12:48:08.273Z</time>
      </trkpt>
      <trkpt lat="47.84505" lon="-2.44196">
        <ele>60.714526</ele>
        <time>2022-12-14T12:48:11.284Z</time>
      </trkpt>
      <trkpt lat="47.84496" lon="-2.44193">
        <ele>60.76592</ele>
        <time>2022-12-14T12:48:13.296Z</time>
      </trkpt>
      <trkpt lat="47.84486" lon="-2.44189">
        <ele>60.819072</ele>
        <time>2022-12-14T12:48:15.287Z</time>
      </trkpt>
      <trkpt lat="47.84474" lon="-2.44184">
        <ele>60.888368</ele>
        <time>2022-12-14T12:48:18.287Z</time>
      </trkpt>
      <trkpt lat="47.84461" lon="-2.44179">
        <ele>60.960769</ele>
        <time>2022-12-14T12:48:21.285Z</time>
      </trkpt>
      <trkpt lat="47.84449" lon="-2.44172">
        <ele>61.03275</ele>
        <time>2022-12-14T12:48:24.280Z</time>
      </trkpt>
      <trkpt lat="47.84437" lon="-2.44164">
        <ele>61.102699</ele>
        <time>2022-12-14T12:48:27.291Z</time>
      </trkpt>
      <trkpt lat="47.84425" lon="-2.44154">
        <ele>61.17733</ele>
        <time>2022-12-14T12:48:30.289Z</time>
      </trkpt>
      <trkpt lat="47.84418" lon="-2.44145">
        <ele>61.229271</ele>
        <time>2022-12-14T12:48:32.274Z</time>
      </trkpt>
      <trkpt lat="47.84409" lon="-2.4413">
        <ele>61.301143</ele>
        <time>2022-12-14T12:48:35.264Z</time>
      </trkpt>
      <trkpt lat="47.84402" lon="-2.44115">
        <ele>61.327523</ele>
        <time>2022-12-14T12:48:38.270Z</time>
      </trkpt>
      <trkpt lat="47.84396" lon="-2.441">
        <ele>61.272335</ele>
        <time>2022-12-14T12:48:41.289Z</time>
      </trkpt>
      <trkpt lat="47.8439" lon="-2.44085">
        <ele>61.217248</ele>
        <time>2022-12-14T12:48:44.287Z</time>
      </trkpt>
      <trkpt lat="47.84384" lon="-2.44068">
        <ele>61.158223</ele>
        <time>2022-12-14T12:48:47.287Z</time>
      </trkpt>
      <trkpt lat="47.84377" lon="-2.44052">
        <ele>61.096774</ele>
        <time>2022-12-14T12:48:50.289Z</time>
      </trkpt>
      <trkpt lat="47.84369" lon="-2.44035">
        <ele>61.032733</ele>
        <time>2022-12-14T12:48:53.293Z</time>
      </trkpt>
      <trkpt lat="47.84364" lon="-2.44025">
        <ele>60.990267</ele>
        <time>2022-12-14T12:48:55.291Z</time>
      </trkpt>
      <trkpt lat="47.84356" lon="-2.44009">
        <ele>60.928817</ele>
        <time>2022-12-14T12:48:58.284Z</time>
      </trkpt>
      <trkpt lat="47.84349" lon="-2.43995">
        <ele>60.871837</ele>
        <time>2022-12-14T12:49:01.286Z</time>
      </trkpt>
      <trkpt lat="47.8434" lon="-2.43981">
        <ele>60.813033</ele>
        <time>2022-12-14T12:49:04.271Z</time>
      </trkpt>
      <trkpt lat="47.84331" lon="-2.43965">
        <ele>60.749534</ele>
        <time>2022-12-14T12:49:07.290Z</time>
      </trkpt>
      <trkpt lat="47.84323" lon="-2.4395">
        <ele>60.68719</ele>
        <time>2022-12-14T12:49:10.294Z</time>
      </trkpt>
      <trkpt lat="47.84314" lon="-2.43935">
        <ele>60.624366</ele>
        <time>2022-12-14T12:49:13.300Z</time>
      </trkpt>
      <trkpt lat="47.84308" lon="-2.43926">
        <ele>60.581879</ele>
        <time>2022-12-14T12:49:15.284Z</time>
      </trkpt>
      <trkpt lat="47.84299" lon="-2.43913">
        <ele>60.522746</ele>
        <time>2022-12-14T12:49:18.289Z</time>
      </trkpt>
      <trkpt lat="47.84291" lon="-2.43901">
        <ele>60.489441</ele>
        <time>2022-12-14T12:49:21.293Z</time>
      </trkpt>
      <trkpt lat="47.84283" lon="-2.4389">
        <ele>60.465347</ele>
        <time>2022-12-14T12:49:24.292Z</time>
      </trkpt>
      <trkpt lat="47.84275" lon="-2.43877">
        <ele>60.43917</ele>
        <time>2022-12-14T12:49:27.299Z</time>
      </trkpt>
      <trkpt lat="47.84266" lon="-2.43862">
        <ele>60.411626</ele>
        <time>2022-12-14T12:49:30.285Z</time>
      </trkpt>
      <trkpt lat="47.8426" lon="-2.43853">
        <ele>60.392018</ele>
        <time>2022-12-14T12:49:32.296Z</time>
      </trkpt>
      <trkpt lat="47.84253" lon="-2.43843">
        <ele>60.372001</ele>
        <time>2022-12-14T12:49:34.278Z</time>
      </trkpt>
      <trkpt lat="47.84245" lon="-2.43829">
        <ele>60.344742</ele>
        <time>2022-12-14T12:49:37.274Z</time>
      </trkpt>
      <trkpt lat="47.84236" lon="-2.43817">
        <ele>60.31942</ele>
        <time>2022-12-14T12:49:40.273Z</time>
      </trkpt>
      <trkpt lat="47.84227" lon="-2.43803">
        <ele>60.291103</ele>
        <time>2022-12-14T12:49:43.294Z</time>
      </trkpt>
      <trkpt lat="47.84221" lon="-2.43793">
        <ele>60.271132</ele>
        <time>2022-12-14T12:49:45.296Z</time>
      </trkpt>
      <trkpt lat="47.84211" lon="-2.43779">
        <ele>60.242916</ele>
        <time>2022-12-14T12:49:48.289Z</time>
      </trkpt>
      <trkpt lat="47.84203" lon="-2.43768">
        <ele>60.217775</ele>
        <time>2022-12-14T12:49:51.288Z</time>
      </trkpt>
      <trkpt lat="47.84193" lon="-2.43755">
        <ele>60.190929</ele>
        <time>2022-12-14T12:49:54.299Z</time>
      </trkpt>
      <trkpt lat="47.84183" lon="-2.43743">
        <ele>60.162445</ele>
        <time>2022-12-14T12:49:57.296Z</time>
      </trkpt>
      <trkpt lat="47.84176" lon="-2.43734">
        <ele>60.142628</ele>
        <time>2022-12-14T12:49:59.286Z</time>
      </trkpt>
      <trkpt lat="47.84165" lon="-2.43721">
        <ele>60.115199</ele>
        <time>2022-12-14T12:50:02.287Z</time>
      </trkpt>
      <trkpt lat="47.84158" lon="-2.43713">
        <ele>60.108633</ele>
        <time>2022-12-14T12:50:04.288Z</time>
      </trkpt>
      <trkpt lat="47.84148" lon="-2.43701">
        <ele>60.099137</ele>
        <time>2022-12-14T12:50:07.291Z</time>
      </trkpt>
      <trkpt lat="47.8414" lon="-2.43694">
        <ele>60.092603</ele>
        <time>2022-12-14T12:50:09.282Z</time>
      </trkpt>
      <trkpt lat="47.84133" lon="-2.43686">
        <ele>60.08599</ele>
        <time>2022-12-14T12:50:11.294Z</time>
      </trkpt>
      <trkpt lat="47.84122" lon="-2.43674">
        <ele>60.07595</ele>
        <time>2022-12-14T12:50:14.296Z</time>
      </trkpt>
      <trkpt lat="47.84112" lon="-2.43663">
        <ele>60.066921</ele>
        <time>2022-12-14T12:50:17.299Z</time>
      </trkpt>
      <trkpt lat="47.84102" lon="-2.43653">
        <ele>60.058387</ele>
        <time>2022-12-14T12:50:20.294Z</time>
      </trkpt>
      <trkpt lat="47.84092" lon="-2.43642">
        <ele>60.049647</ele>
        <time>2022-12-14T12:50:23.283Z</time>
      </trkpt>
      <trkpt lat="47.84082" lon="-2.43631">
        <ele>60.040239</ele>
        <time>2022-12-14T12:50:26.275Z</time>
      </trkpt>
      <trkpt lat="47.84072" lon="-2.43618">
        <ele>60.030615</ele>
        <time>2022-12-14T12:50:29.285Z</time>
      </trkpt>
      <trkpt lat="47.84062" lon="-2.43605">
        <ele>60.021029</ele>
        <time>2022-12-14T12:50:32.295Z</time>
      </trkpt>
      <trkpt lat="47.84055" lon="-2.43596">
        <ele>60.014381</ele>
        <time>2022-12-14T12:50:34.287Z</time>
      </trkpt>
      <trkpt lat="47.84049" lon="-2.43585">
        <ele>60.007599</ele>
        <time>2022-12-14T12:50:36.290Z</time>
      </trkpt>
      <trkpt lat="47.84043" lon="-2.43574">
        <ele>60.000779</ele>
        <time>2022-12-14T12:50:38.292Z</time>
      </trkpt>
      <trkpt lat="47.84037" lon="-2.43564">
        <ele>59.994093</ele>
        <time>2022-12-14T12:50:40.287Z</time>
      </trkpt>
      <trkpt lat="47.8403" lon="-2.4355">
        <ele>59.985225</ele>
        <time>2022-12-14T12:50:43.283Z</time>
      </trkpt>
      <trkpt lat="47.84023" lon="-2.43534">
        <ele>59.966461</ele>
        <time>2022-12-14T12:50:46.298Z</time>
      </trkpt>
      <trkpt lat="47.84017" lon="-2.43517">
        <ele>59.947101</ele>
        <time>2022-12-14T12:50:49.291Z</time>
      </trkpt>
      <trkpt lat="47.84012" lon="-2.43506">
        <ele>59.933403</ele>
        <time>2022-12-14T12:50:51.274Z</time>
      </trkpt>
      <trkpt lat="47.84005" lon="-2.4349">
        <ele>59.91431</ele>
        <time>2022-12-14T12:50:54.289Z</time>
      </trkpt>
      <trkpt lat="47.83998" lon="-2.43473">
        <ele>59.895511</ele>
        <time>2022-12-14T12:50:57.291Z</time>
      </trkpt>
      <trkpt lat="47.83994" lon="-2.43461">
        <ele>59.881738</ele>
        <time>2022-12-14T12:50:59.290Z</time>
      </trkpt>
      <trkpt lat="47.8399" lon="-2.43449">
        <ele>59.867961</ele>
        <time>2022-12-14T12:51:01.293Z</time>
      </trkpt>
      <trkpt lat="47.83984" lon="-2.43431">
        <ele>59.848392</ele>
        <time>2022-12-14T12:51:04.299Z</time>
      </trkpt>
      <trkpt lat="47.83978" lon="-2.43415">
        <ele>59.829864</ele>
        <time>2022-12-14T12:51:07.285Z</time>
      </trkpt>
      <trkpt lat="47.83974" lon="-2.43402">
        <ele>59.816058</ele>
        <time>2022-12-14T12:51:09.292Z</time>
      </trkpt>
      <trkpt lat="47.8397" lon="-2.43384">
        <ele>59.7961</ele>
        <time>2022-12-14T12:51:12.274Z</time>
      </trkpt>
      <trkpt lat="47.83966" lon="-2.43365">
        <ele>59.776579</ele>
        <time>2022-12-14T12:51:15.287Z</time>
      </trkpt>
      <trkpt lat="47.83962" lon="-2.43348">
        <ele>59.759136</ele>
        <time>2022-12-14T12:51:18.298Z</time>
      </trkpt>
      <trkpt lat="47.8396" lon="-2.43332">
        <ele>59.741807</ele>
        <time>2022-12-14T12:51:21.273Z</time>
      </trkpt>
      <trkpt lat="47.83958" lon="-2.43313">
        <ele>59.72356</ele>
        <time>2022-12-14T12:51:24.298Z</time>
      </trkpt>
      <trkpt lat="47.83956" lon="-2.43295">
        <ele>59.680545</ele>
        <time>2022-12-14T12:51:27.298Z</time>
      </trkpt>
      <trkpt lat="47.83955" lon="-2.43276">
        <ele>59.62703</ele>
        <time>2022-12-14T12:51:30.290Z</time>
      </trkpt>
      <trkpt lat="47.83954" lon="-2.43257">
        <ele>59.572614</ele>
        <time>2022-12-14T12:51:33.292Z</time>
      </trkpt>
      <trkpt lat="47.83954" lon="-2.43239">
        <ele>59.523476</ele>
        <time>2022-12-14T12:51:36.292Z</time>
      </trkpt>
      <trkpt lat="47.83955" lon="-2.43223">
        <ele>59.47623</ele>
        <time>2022-12-14T12:51:39.285Z</time>
      </trkpt>
      <trkpt lat="47.83959" lon="-2.43205">
        <ele>59.425621</ele>
        <time>2022-12-14T12:51:42.294Z</time>
      </trkpt>
      <trkpt lat="47.83963" lon="-2.43188">
        <ele>59.373906</ele>
        <time>2022-12-14T12:51:45.286Z</time>
      </trkpt>
      <trkpt lat="47.83969" lon="-2.43173">
        <ele>59.322848</ele>
        <time>2022-12-14T12:51:48.296Z</time>
      </trkpt>
      <trkpt lat="47.83975" lon="-2.43159">
        <ele>59.277346</ele>
        <time>2022-12-14T12:51:51.285Z</time>
      </trkpt>
      <trkpt lat="47.83982" lon="-2.43147">
        <ele>59.230419</ele>
        <time>2022-12-14T12:51:54.287Z</time>
      </trkpt>
      <trkpt lat="47.8399" lon="-2.43133">
        <ele>59.179688</ele>
        <time>2022-12-14T12:51:58.285Z</time>
      </trkpt>
      <trkpt lat="47.83997" lon="-2.4312">
        <ele>59.133433</ele>
        <time>2022-12-14T12:52:01.291Z</time>
      </trkpt>
      <trkpt lat="47.84002" lon="-2.43103">
        <ele>59.080501</ele>
        <time>2022-12-14T12:52:04.285Z</time>
      </trkpt>
      <trkpt lat="47.84001" lon="-2.43084">
        <ele>59.025895</ele>
        <time>2022-12-14T12:52:07.283Z</time>
      </trkpt>
      <trkpt lat="47.83996" lon="-2.43066">
        <ele>58.971937</ele>
        <time>2022-12-14T12:52:10.283Z</time>
      </trkpt>
      <trkpt lat="47.83989" lon="-2.43051">
        <ele>58.955015</ele>
        <time>2022-12-14T12:52:13.285Z</time>
      </trkpt>
      <trkpt lat="47.83982" lon="-2.43036">
        <ele>58.947034</ele>
        <time>2022-12-14T12:52:16.299Z</time>
      </trkpt>
      <trkpt lat="47.83975" lon="-2.43021">
        <ele>58.93913</ele>
        <time>2022-12-14T12:52:19.297Z</time>
      </trkpt>
      <trkpt lat="47.83968" lon="-2.43004">
        <ele>58.93083</ele>
        <time>2022-12-14T12:52:22.290Z</time>
      </trkpt>
      <trkpt lat="47.83961" lon="-2.42988">
        <ele>58.9225</ele>
        <time>2022-12-14T12:52:25.286Z</time>
      </trkpt>
      <trkpt lat="47.83957" lon="-2.42976">
        <ele>58.916698</ele>
        <time>2022-12-14T12:52:27.292Z</time>
      </trkpt>
      <trkpt lat="47.83952" lon="-2.42964">
        <ele>58.910767</ele>
        <time>2022-12-14T12:52:29.289Z</time>
      </trkpt>
      <trkpt lat="47.83949" lon="-2.42952">
        <ele>58.905032</ele>
        <time>2022-12-14T12:52:31.277Z</time>
      </trkpt>
      <trkpt lat="47.83943" lon="-2.42936">
        <ele>58.897325</ele>
        <time>2022-12-14T12:52:34.294Z</time>
      </trkpt>
      <trkpt lat="47.83938" lon="-2.4292">
        <ele>58.889454</ele>
        <time>2022-12-14T12:52:37.293Z</time>
      </trkpt>
      <trkpt lat="47.83932" lon="-2.42903">
        <ele>58.88119</ele>
        <time>2022-12-14T12:52:40.301Z</time>
      </trkpt>
      <trkpt lat="47.83926" lon="-2.42886">
        <ele>58.873213</ele>
        <time>2022-12-14T12:52:43.286Z</time>
      </trkpt>
      <trkpt lat="47.83919" lon="-2.42869">
        <ele>58.864661</ele>
        <time>2022-12-14T12:52:46.287Z</time>
      </trkpt>
      <trkpt lat="47.83914" lon="-2.42856">
        <ele>58.85828</ele>
        <time>2022-12-14T12:52:48.285Z</time>
      </trkpt>
      <trkpt lat="47.83909" lon="-2.42844">
        <ele>58.85205</ele>
        <time>2022-12-14T12:52:50.300Z</time>
      </trkpt>
      <trkpt lat="47.83904" lon="-2.42832">
        <ele>58.845846</ele>
        <time>2022-12-14T12:52:52.297Z</time>
      </trkpt>
      <trkpt lat="47.83898" lon="-2.42821">
        <ele>58.818886</ele>
        <time>2022-12-14T12:52:54.284Z</time>
      </trkpt>
      <trkpt lat="47.83892" lon="-2.42809">
        <ele>58.791301</ele>
        <time>2022-12-14T12:52:56.284Z</time>
      </trkpt>
      <trkpt lat="47.83887" lon="-2.42797">
        <ele>58.764847</ele>
        <time>2022-12-14T12:52:58.274Z</time>
      </trkpt>
      <trkpt lat="47.83879" lon="-2.42782">
        <ele>58.729355</ele>
        <time>2022-12-14T12:53:01.297Z</time>
      </trkpt>
      <trkpt lat="47.83872" lon="-2.4277">
        <ele>58.697173</ele>
        <time>2022-12-14T12:53:04.284Z</time>
      </trkpt>
      <trkpt lat="47.83866" lon="-2.42757">
        <ele>58.668826</ele>
        <time>2022-12-14T12:53:07.298Z</time>
      </trkpt>
      <trkpt lat="47.8386" lon="-2.42746">
        <ele>58.640495</ele>
        <time>2022-12-14T12:53:10.300Z</time>
      </trkpt>
      <trkpt lat="47.83853" lon="-2.42733">
        <ele>58.610452</ele>
        <time>2022-12-14T12:53:13.272Z</time>
      </trkpt>
      <trkpt lat="47.83848" lon="-2.42722">
        <ele>58.583051</ele>
        <time>2022-12-14T12:53:16.287Z</time>
      </trkpt>
      <trkpt lat="47.8384" lon="-2.4271">
        <ele>58.553557</ele>
        <time>2022-12-14T12:53:19.289Z</time>
      </trkpt>
      <trkpt lat="47.83832" lon="-2.42698">
        <ele>58.521547</ele>
        <time>2022-12-14T12:53:22.332Z</time>
      </trkpt>
      <trkpt lat="47.83823" lon="-2.42684">
        <ele>58.484254</ele>
        <time>2022-12-14T12:53:25.287Z</time>
      </trkpt>
      <trkpt lat="47.83815" lon="-2.42669">
        <ele>58.447742</ele>
        <time>2022-12-14T12:53:28.352Z</time>
      </trkpt>
      <trkpt lat="47.8381" lon="-2.42658">
        <ele>58.421576</ele>
        <time>2022-12-14T12:53:30.286Z</time>
      </trkpt>
      <trkpt lat="47.83804" lon="-2.42646">
        <ele>58.393536</ele>
        <time>2022-12-14T12:53:32.291Z</time>
      </trkpt>
      <trkpt lat="47.83798" lon="-2.42628">
        <ele>58.355632</ele>
        <time>2022-12-14T12:53:35.298Z</time>
      </trkpt>
      <trkpt lat="47.83792" lon="-2.4261">
        <ele>58.47945</ele>
        <time>2022-12-14T12:53:38.291Z</time>
      </trkpt>
      <trkpt lat="47.83787" lon="-2.42592">
        <ele>58.738189</ele>
        <time>2022-12-14T12:53:41.300Z</time>
      </trkpt>
      <trkpt lat="47.83783" lon="-2.4258">
        <ele>58.916191</ele>
        <time>2022-12-14T12:53:43.274Z</time>
      </trkpt>
      <trkpt lat="47.8378" lon="-2.42567">
        <ele>59.100562</ele>
        <time>2022-12-14T12:53:45.283Z</time>
      </trkpt>
      <trkpt lat="47.83776" lon="-2.42548">
        <ele>59.367186</ele>
        <time>2022-12-14T12:53:48.302Z</time>
      </trkpt>
      <trkpt lat="47.83772" lon="-2.42535">
        <ele>59.551557</ele>
        <time>2022-12-14T12:53:50.358Z</time>
      </trkpt>
      <trkpt lat="47.83768" lon="-2.42517">
        <ele>59.803342</ele>
        <time>2022-12-14T12:53:53.287Z</time>
      </trkpt>
      <trkpt lat="47.83763" lon="-2.42501">
        <ele>60.031804</ele>
        <time>2022-12-14T12:53:56.383Z</time>
      </trkpt>
      <trkpt lat="47.83759" lon="-2.42485">
        <ele>60.26203</ele>
        <time>2022-12-14T12:53:59.293Z</time>
      </trkpt>
      <trkpt lat="47.83755" lon="-2.42467">
        <ele>60.50922</ele>
        <time>2022-12-14T12:54:02.377Z</time>
      </trkpt>
      <trkpt lat="47.83751" lon="-2.42449">
        <ele>60.760117</ele>
        <time>2022-12-14T12:54:05.289Z</time>
      </trkpt>
      <trkpt lat="47.83747" lon="-2.42431">
        <ele>61.016686</ele>
        <time>2022-12-14T12:54:08.300Z</time>
      </trkpt>
      <trkpt lat="47.83743" lon="-2.42412">
        <ele>61.282711</ele>
        <time>2022-12-14T12:54:11.297Z</time>
      </trkpt>
      <trkpt lat="47.83738" lon="-2.42393">
        <ele>61.547774</ele>
        <time>2022-12-14T12:54:14.267Z</time>
      </trkpt>
      <trkpt lat="47.83733" lon="-2.42374">
        <ele>61.813146</ele>
        <time>2022-12-14T12:54:17.302Z</time>
      </trkpt>
      <trkpt lat="47.8373" lon="-2.42362">
        <ele>61.886115</ele>
        <time>2022-12-14T12:54:19.369Z</time>
      </trkpt>
      <trkpt lat="47.83726" lon="-2.4235">
        <ele>61.875136</ele>
        <time>2022-12-14T12:54:21.290Z</time>
      </trkpt>
      <trkpt lat="47.83721" lon="-2.42332">
        <ele>61.859814</ele>
        <time>2022-12-14T12:54:24.296Z</time>
      </trkpt>
      <trkpt lat="47.83717" lon="-2.42318">
        <ele>61.846847</ele>
        <time>2022-12-14T12:54:27.302Z</time>
      </trkpt>
      <trkpt lat="47.83714" lon="-2.42301">
        <ele>61.832594</ele>
        <time>2022-12-14T12:54:30.292Z</time>
      </trkpt>
      <trkpt lat="47.83711" lon="-2.42283">
        <ele>61.817506</ele>
        <time>2022-12-14T12:54:33.295Z</time>
      </trkpt>
      <trkpt lat="47.83708" lon="-2.42264">
        <ele>61.801602</ele>
        <time>2022-12-14T12:54:36.295Z</time>
      </trkpt>
      <trkpt lat="47.83705" lon="-2.42244">
        <ele>61.785167</ele>
        <time>2022-12-14T12:54:39.300Z</time>
      </trkpt>
      <trkpt lat="47.83702" lon="-2.42225">
        <ele>61.76902</ele>
        <time>2022-12-14T12:54:42.287Z</time>
      </trkpt>
      <trkpt lat="47.83699" lon="-2.42206">
        <ele>61.753249</ele>
        <time>2022-12-14T12:54:45.291Z</time>
      </trkpt>
      <trkpt lat="47.83697" lon="-2.42189">
        <ele>61.738941</ele>
        <time>2022-12-14T12:54:48.295Z</time>
      </trkpt>
      <trkpt lat="47.83695" lon="-2.42169">
        <ele>61.722634</ele>
        <time>2022-12-14T12:54:51.294Z</time>
      </trkpt>
      <trkpt lat="47.83693" lon="-2.4215">
        <ele>61.70665</ele>
        <time>2022-12-14T12:54:54.349Z</time>
      </trkpt>
      <trkpt lat="47.83692" lon="-2.4213">
        <ele>61.690515</ele>
        <time>2022-12-14T12:54:57.289Z</time>
      </trkpt>
      <trkpt lat="47.83692" lon="-2.42115">
        <ele>61.67827</ele>
        <time>2022-12-14T12:54:59.299Z</time>
      </trkpt>
      <trkpt lat="47.83691" lon="-2.42096">
        <ele>61.653356</ele>
        <time>2022-12-14T12:55:02.292Z</time>
      </trkpt>
      <trkpt lat="47.83691" lon="-2.42078">
        <ele>61.62749</ele>
        <time>2022-12-14T12:55:05.293Z</time>
      </trkpt>
      <trkpt lat="47.8369" lon="-2.42061">
        <ele>61.602224</ele>
        <time>2022-12-14T12:55:08.296Z</time>
      </trkpt>
      <trkpt lat="47.8369" lon="-2.42042">
        <ele>61.574469</ele>
        <time>2022-12-14T12:55:11.287Z</time>
      </trkpt>
      <trkpt lat="47.8369" lon="-2.42028">
        <ele>61.55395</ele>
        <time>2022-12-14T12:55:13.279Z</time>
      </trkpt>
      <trkpt lat="47.8369" lon="-2.42014">
        <ele>61.53297</ele>
        <time>2022-12-14T12:55:15.298Z</time>
      </trkpt>
      <trkpt lat="47.83691" lon="-2.41994">
        <ele>61.503271</ele>
        <time>2022-12-14T12:55:18.350Z</time>
      </trkpt>
      <trkpt lat="47.83692" lon="-2.41974">
        <ele>61.473903</ele>
        <time>2022-12-14T12:55:21.290Z</time>
      </trkpt>
      <trkpt lat="47.83695" lon="-2.41957">
        <ele>61.447682</ele>
        <time>2022-12-14T12:55:24.350Z</time>
      </trkpt>
      <trkpt lat="47.83697" lon="-2.41938">
        <ele>61.41839</ele>
        <time>2022-12-14T12:55:27.283Z</time>
      </trkpt>
      <trkpt lat="47.83701" lon="-2.41918">
        <ele>61.388793</ele>
        <time>2022-12-14T12:55:30.301Z</time>
      </trkpt>
      <trkpt lat="47.83704" lon="-2.41899">
        <ele>61.359357</ele>
        <time>2022-12-14T12:55:33.284Z</time>
      </trkpt>
      <trkpt lat="47.83705" lon="-2.41878">
        <ele>61.328981</ele>
        <time>2022-12-14T12:55:36.299Z</time>
      </trkpt>
      <trkpt lat="47.83704" lon="-2.41858">
        <ele>61.299173</ele>
        <time>2022-12-14T12:55:39.272Z</time>
      </trkpt>
      <trkpt lat="47.837" lon="-2.4184">
        <ele>61.265533</ele>
        <time>2022-12-14T12:55:42.285Z</time>
      </trkpt>
      <trkpt lat="47.83695" lon="-2.41823">
        <ele>61.218211</ele>
        <time>2022-12-14T12:55:45.299Z</time>
      </trkpt>
      <trkpt lat="47.83689" lon="-2.41806">
        <ele>61.168309</ele>
        <time>2022-12-14T12:55:48.294Z</time>
      </trkpt>
      <trkpt lat="47.83681" lon="-2.4179">
        <ele>61.11705</ele>
        <time>2022-12-14T12:55:51.299Z</time>
      </trkpt>
      <trkpt lat="47.83673" lon="-2.41776">
        <ele>61.066322</ele>
        <time>2022-12-14T12:55:54.303Z</time>
      </trkpt>
      <trkpt lat="47.83664" lon="-2.41762">
        <ele>61.016955</ele>
        <time>2022-12-14T12:55:57.299Z</time>
      </trkpt>
      <trkpt lat="47.83657" lon="-2.41748">
        <ele>60.971955</ele>
        <time>2022-12-14T12:56:00.300Z</time>
      </trkpt>
      <trkpt lat="47.83648" lon="-2.41734">
        <ele>60.922781</ele>
        <time>2022-12-14T12:56:03.278Z</time>
      </trkpt>
      <trkpt lat="47.83639" lon="-2.4172">
        <ele>60.871931</ele>
        <time>2022-12-14T12:56:06.299Z</time>
      </trkpt>
      <trkpt lat="47.83629" lon="-2.41707">
        <ele>60.820133</ele>
        <time>2022-12-14T12:56:09.279Z</time>
      </trkpt>
      <trkpt lat="47.83622" lon="-2.41698">
        <ele>60.78366</ele>
        <time>2022-12-14T12:56:11.281Z</time>
      </trkpt>
      <trkpt lat="47.83611" lon="-2.41687">
        <ele>60.734793</ele>
        <time>2022-12-14T12:56:14.299Z</time>
      </trkpt>
      <trkpt lat="47.83603" lon="-2.41679">
        <ele>60.695092</ele>
        <time>2022-12-14T12:56:17.290Z</time>
      </trkpt>
      <trkpt lat="47.83593" lon="-2.41672">
        <ele>60.653138</ele>
        <time>2022-12-14T12:56:21.300Z</time>
      </trkpt>
      <trkpt lat="47.83579" lon="-2.41662">
        <ele>60.594143</ele>
        <time>2022-12-14T12:57:59.304Z</time>
      </trkpt>
      <trkpt lat="47.83569" lon="-2.41658">
        <ele>60.574426</ele>
        <time>2022-12-14T12:58:03.293Z</time>
      </trkpt>
      <trkpt lat="47.8356" lon="-2.41655">
        <ele>60.566546</ele>
        <time>2022-12-14T12:58:06.355Z</time>
      </trkpt>
      <trkpt lat="47.8355" lon="-2.41651">
        <ele>60.55812</ele>
        <time>2022-12-14T12:58:09.290Z</time>
      </trkpt>
      <trkpt lat="47.83538" lon="-2.41647">
        <ele>60.548552</ele>
        <time>2022-12-14T12:58:12.345Z</time>
      </trkpt>
      <trkpt lat="47.83527" lon="-2.41641">
        <ele>60.538748</ele>
        <time>2022-12-14T12:58:15.300Z</time>
      </trkpt>
      <trkpt lat="47.83516" lon="-2.41631">
        <ele>60.528766</ele>
        <time>2022-12-14T12:58:18.373Z</time>
      </trkpt>
      <trkpt lat="47.83506" lon="-2.41621">
        <ele>60.518527</ele>
        <time>2022-12-14T12:58:21.301Z</time>
      </trkpt>
      <trkpt lat="47.83496" lon="-2.41609">
        <ele>60.507936</ele>
        <time>2022-12-14T12:58:24.363Z</time>
      </trkpt>
      <trkpt lat="47.83486" lon="-2.41595">
        <ele>60.497283</ele>
        <time>2022-12-14T12:58:27.301Z</time>
      </trkpt>
      <trkpt lat="47.83477" lon="-2.41581">
        <ele>60.486499</ele>
        <time>2022-12-14T12:58:30.348Z</time>
      </trkpt>
      <trkpt lat="47.83469" lon="-2.41565">
        <ele>60.475797</ele>
        <time>2022-12-14T12:58:33.282Z</time>
      </trkpt>
      <trkpt lat="47.83462" lon="-2.41549">
        <ele>60.465426</ele>
        <time>2022-12-14T12:58:36.350Z</time>
      </trkpt>
      <trkpt lat="47.83455" lon="-2.41535">
        <ele>60.456045</ele>
        <time>2022-12-14T12:58:39.304Z</time>
      </trkpt>
      <trkpt lat="47.83448" lon="-2.41523">
        <ele>60.446925</ele>
        <time>2022-12-14T12:58:42.355Z</time>
      </trkpt>
      <trkpt lat="47.8344" lon="-2.4151">
        <ele>60.43737</ele>
        <time>2022-12-14T12:58:45.300Z</time>
      </trkpt>
      <trkpt lat="47.83431" lon="-2.41498">
        <ele>60.423905</ele>
        <time>2022-12-14T12:58:48.353Z</time>
      </trkpt>
      <trkpt lat="47.83421" lon="-2.41486">
        <ele>60.408031</ele>
        <time>2022-12-14T12:58:51.279Z</time>
      </trkpt>
      <trkpt lat="47.83412" lon="-2.41474">
        <ele>60.391837</ele>
        <time>2022-12-14T12:58:54.278Z</time>
      </trkpt>
      <trkpt lat="47.83402" lon="-2.41461">
        <ele>60.375491</ele>
        <time>2022-12-14T12:58:57.303Z</time>
      </trkpt>
      <trkpt lat="47.83393" lon="-2.41448">
        <ele>60.359042</ele>
        <time>2022-12-14T12:59:00.358Z</time>
      </trkpt>
      <trkpt lat="47.83383" lon="-2.41434">
        <ele>60.342355</ele>
        <time>2022-12-14T12:59:03.290Z</time>
      </trkpt>
      <trkpt lat="47.83377" lon="-2.41424">
        <ele>60.330921</ele>
        <time>2022-12-14T12:59:05.300Z</time>
      </trkpt>
      <trkpt lat="47.83371" lon="-2.41414">
        <ele>60.319326</ele>
        <time>2022-12-14T12:59:07.297Z</time>
      </trkpt>
      <trkpt lat="47.83364" lon="-2.41404">
        <ele>60.307497</ele>
        <time>2022-12-14T12:59:09.282Z</time>
      </trkpt>
      <trkpt lat="47.83358" lon="-2.41393">
        <ele>60.29541</ele>
        <time>2022-12-14T12:59:11.300Z</time>
      </trkpt>
      <trkpt lat="47.83352" lon="-2.41383">
        <ele>60.283763</ele>
        <time>2022-12-14T12:59:13.298Z</time>
      </trkpt>
      <trkpt lat="47.83344" lon="-2.41369">
        <ele>60.268021</ele>
        <time>2022-12-14T12:59:16.300Z</time>
      </trkpt>
      <trkpt lat="47.83336" lon="-2.41356">
        <ele>60.253063</ele>
        <time>2022-12-14T12:59:19.302Z</time>
      </trkpt>
      <trkpt lat="47.83328" lon="-2.41342">
        <ele>60.237566</ele>
        <time>2022-12-14T12:59:22.283Z</time>
      </trkpt>
      <trkpt lat="47.8332" lon="-2.41327">
        <ele>60.221206</ele>
        <time>2022-12-14T12:59:25.304Z</time>
      </trkpt>
      <trkpt lat="47.83311" lon="-2.41312">
        <ele>60.203192</ele>
        <time>2022-12-14T12:59:28.301Z</time>
      </trkpt>
      <trkpt lat="47.83302" lon="-2.41298">
        <ele>60.172114</ele>
        <time>2022-12-14T12:59:31.300Z</time>
      </trkpt>
      <trkpt lat="47.83292" lon="-2.41286">
        <ele>60.139839</ele>
        <time>2022-12-14T12:59:34.297Z</time>
      </trkpt>
      <trkpt lat="47.83284" lon="-2.41278">
        <ele>60.118096</ele>
        <time>2022-12-14T12:59:36.299Z</time>
      </trkpt>
      <trkpt lat="47.83277" lon="-2.41269">
        <ele>60.095336</ele>
        <time>2022-12-14T12:59:38.280Z</time>
      </trkpt>
      <trkpt lat="47.83268" lon="-2.4126">
        <ele>60.070111</ele>
        <time>2022-12-14T12:59:41.331Z</time>
      </trkpt>
      <trkpt lat="47.83258" lon="-2.4125">
        <ele>60.04121</ele>
        <time>2022-12-14T12:59:44.297Z</time>
      </trkpt>
      <trkpt lat="47.83247" lon="-2.4124">
        <ele>60.010264</ele>
        <time>2022-12-14T12:59:47.364Z</time>
      </trkpt>
      <trkpt lat="47.83239" lon="-2.41234">
        <ele>59.988863</ele>
        <time>2022-12-14T12:59:49.293Z</time>
      </trkpt>
      <trkpt lat="47.83231" lon="-2.41227">
        <ele>59.967176</ele>
        <time>2022-12-14T12:59:51.292Z</time>
      </trkpt>
      <trkpt lat="47.83223" lon="-2.41221">
        <ele>59.945278</ele>
        <time>2022-12-14T12:59:53.326Z</time>
      </trkpt>
      <trkpt lat="47.83213" lon="-2.41212">
        <ele>59.916217</ele>
        <time>2022-12-14T12:59:56.291Z</time>
      </trkpt>
      <trkpt lat="47.83201" lon="-2.41204">
        <ele>59.886621</ele>
        <time>2022-12-14T12:59:59.278Z</time>
      </trkpt>
      <trkpt lat="47.8319" lon="-2.41195">
        <ele>59.856304</ele>
        <time>2022-12-14T13:00:02.296Z</time>
      </trkpt>
      <trkpt lat="47.83179" lon="-2.41186">
        <ele>59.82568</ele>
        <time>2022-12-14T13:00:05.297Z</time>
      </trkpt>
      <trkpt lat="47.83171" lon="-2.41179">
        <ele>59.803969</ele>
        <time>2022-12-14T13:00:07.302Z</time>
      </trkpt>
      <trkpt lat="47.83163" lon="-2.41173">
        <ele>59.782336</ele>
        <time>2022-12-14T13:00:09.315Z</time>
      </trkpt>
      <trkpt lat="47.83153" lon="-2.41161">
        <ele>59.738338</ele>
        <time>2022-12-14T13:00:12.300Z</time>
      </trkpt>
      <trkpt lat="47.83143" lon="-2.41151">
        <ele>59.694978</ele>
        <time>2022-12-14T13:00:15.377Z</time>
      </trkpt>
      <trkpt lat="47.83134" lon="-2.41142">
        <ele>59.654361</ele>
        <time>2022-12-14T13:00:18.288Z</time>
      </trkpt>
      <trkpt lat="47.83125" lon="-2.41131">
        <ele>59.611695</ele>
        <time>2022-12-14T13:00:21.353Z</time>
      </trkpt>
      <trkpt lat="47.83116" lon="-2.41118">
        <ele>59.566573</ele>
        <time>2022-12-14T13:00:24.299Z</time>
      </trkpt>
      <trkpt lat="47.83107" lon="-2.41104">
        <ele>59.52091</ele>
        <time>2022-12-14T13:00:27.349Z</time>
      </trkpt>
      <trkpt lat="47.83098" lon="-2.4109">
        <ele>59.473002</ele>
        <time>2022-12-14T13:00:30.301Z</time>
      </trkpt>
      <trkpt lat="47.83089" lon="-2.41077">
        <ele>59.427435</ele>
        <time>2022-12-14T13:00:33.344Z</time>
      </trkpt>
      <trkpt lat="47.8308" lon="-2.41066">
        <ele>59.383053</ele>
        <time>2022-12-14T13:00:36.301Z</time>
      </trkpt>
      <trkpt lat="47.8307" lon="-2.41056">
        <ele>59.341591</ele>
        <time>2022-12-14T13:00:39.299Z</time>
      </trkpt>
      <trkpt lat="47.8306" lon="-2.41046">
        <ele>59.297302</ele>
        <time>2022-12-14T13:00:42.294Z</time>
      </trkpt>
      <trkpt lat="47.83051" lon="-2.41036">
        <ele>59.2546</ele>
        <time>2022-12-14T13:00:45.295Z</time>
      </trkpt>
      <trkpt lat="47.83042" lon="-2.41027">
        <ele>59.215405</ele>
        <time>2022-12-14T13:00:48.300Z</time>
      </trkpt>
      <trkpt lat="47.83033" lon="-2.41018">
        <ele>59.176542</ele>
        <time>2022-12-14T13:00:51.287Z</time>
      </trkpt>
      <trkpt lat="47.83023" lon="-2.41009">
        <ele>59.135459</ele>
        <time>2022-12-14T13:00:54.301Z</time>
      </trkpt>
      <trkpt lat="47.83016" lon="-2.41001">
        <ele>59.174361</ele>
        <time>2022-12-14T13:00:57.323Z</time>
      </trkpt>
      <trkpt lat="47.83006" lon="-2.40993">
        <ele>59.271647</ele>
        <time>2022-12-14T13:01:01.302Z</time>
      </trkpt>
      <trkpt lat="47.82998" lon="-2.40985">
        <ele>59.364194</ele>
        <time>2022-12-14T13:01:05.302Z</time>
      </trkpt>
      <trkpt lat="47.82989" lon="-2.4098">
        <ele>59.45177</ele>
        <time>2022-12-14T13:01:09.282Z</time>
      </trkpt>
      <trkpt lat="47.82979" lon="-2.40971">
        <ele>59.5601</ele>
        <time>2022-12-14T13:01:13.298Z</time>
      </trkpt>
      <trkpt lat="47.82971" lon="-2.40961">
        <ele>59.655744</ele>
        <time>2022-12-14T13:01:16.301Z</time>
      </trkpt>
      <trkpt lat="47.82962" lon="-2.40952">
        <ele>59.754023</ele>
        <time>2022-12-14T13:01:19.298Z</time>
      </trkpt>
      <trkpt lat="47.82953" lon="-2.40944">
        <ele>59.849095</ele>
        <time>2022-12-14T13:01:22.302Z</time>
      </trkpt>
      <trkpt lat="47.82943" lon="-2.40935">
        <ele>59.955093</ele>
        <time>2022-12-14T13:01:26.302Z</time>
      </trkpt>
      <trkpt lat="47.82935" lon="-2.40926">
        <ele>60.047395</ele>
        <time>2022-12-14T13:01:31.299Z</time>
      </trkpt>
      <trkpt lat="47.82926" lon="-2.40919">
        <ele>60.14418</ele>
        <time>2022-12-14T13:01:37.295Z</time>
      </trkpt>
      <trkpt lat="47.82917" lon="-2.40908">
        <ele>60.251555</ele>
        <time>2022-12-14T13:01:41.300Z</time>
      </trkpt>
      <trkpt lat="47.82908" lon="-2.40899">
        <ele>60.346797</ele>
        <time>2022-12-14T13:01:44.299Z</time>
      </trkpt>
      <trkpt lat="47.82898" lon="-2.40889">
        <ele>60.466985</ele>
        <time>2022-12-14T13:01:47.300Z</time>
      </trkpt>
      <trkpt lat="47.8289" lon="-2.4088">
        <ele>60.555657</ele>
        <time>2022-12-14T13:01:49.301Z</time>
      </trkpt>
      <trkpt lat="47.82882" lon="-2.40871">
        <ele>60.645391</ele>
        <time>2022-12-14T13:01:51.304Z</time>
      </trkpt>
      <trkpt lat="47.82874" lon="-2.40862">
        <ele>60.74105</ele>
        <time>2022-12-14T13:01:53.282Z</time>
      </trkpt>
      <trkpt lat="47.82866" lon="-2.40854">
        <ele>60.753472</ele>
        <time>2022-12-14T13:01:55.300Z</time>
      </trkpt>
      <trkpt lat="47.82858" lon="-2.40846">
        <ele>60.715549</ele>
        <time>2022-12-14T13:01:57.303Z</time>
      </trkpt>
      <trkpt lat="47.82851" lon="-2.40837">
        <ele>60.675747</ele>
        <time>2022-12-14T13:01:59.299Z</time>
      </trkpt>
      <trkpt lat="47.82844" lon="-2.40829">
        <ele>60.63799</ele>
        <time>2022-12-14T13:02:01.299Z</time>
      </trkpt>
      <trkpt lat="47.82833" lon="-2.40816">
        <ele>60.582008</ele>
        <time>2022-12-14T13:02:04.299Z</time>
      </trkpt>
      <trkpt lat="47.82826" lon="-2.40808">
        <ele>60.543575</ele>
        <time>2022-12-14T13:02:06.359Z</time>
      </trkpt>
      <trkpt lat="47.82818" lon="-2.40798">
        <ele>60.504583</ele>
        <time>2022-12-14T13:02:08.307Z</time>
      </trkpt>
      <trkpt lat="47.82811" lon="-2.4079">
        <ele>60.466264</ele>
        <time>2022-12-14T13:02:10.299Z</time>
      </trkpt>
      <trkpt lat="47.82802" lon="-2.40776">
        <ele>60.411556</ele>
        <time>2022-12-14T13:02:13.299Z</time>
      </trkpt>
      <trkpt lat="47.82795" lon="-2.40766">
        <ele>60.371206</ele>
        <time>2022-12-14T13:02:15.307Z</time>
      </trkpt>
      <trkpt lat="47.82785" lon="-2.40753">
        <ele>60.319106</ele>
        <time>2022-12-14T13:02:18.361Z</time>
      </trkpt>
      <trkpt lat="47.82776" lon="-2.4074">
        <ele>60.265902</ele>
        <time>2022-12-14T13:02:21.299Z</time>
      </trkpt>
      <trkpt lat="47.82767" lon="-2.40726">
        <ele>60.211844</ele>
        <time>2022-12-14T13:02:24.352Z</time>
      </trkpt>
      <trkpt lat="47.82758" lon="-2.40711">
        <ele>60.1571</ele>
        <time>2022-12-14T13:02:27.299Z</time>
      </trkpt>
      <trkpt lat="47.82752" lon="-2.40701">
        <ele>60.119565</ele>
        <time>2022-12-14T13:02:29.299Z</time>
      </trkpt>
      <trkpt lat="47.82743" lon="-2.40686">
        <ele>60.063366</ele>
        <time>2022-12-14T13:02:32.299Z</time>
      </trkpt>
      <trkpt lat="47.82734" lon="-2.40672">
        <ele>60.018155</ele>
        <time>2022-12-14T13:02:35.298Z</time>
      </trkpt>
      <trkpt lat="47.82727" lon="-2.40662">
        <ele>59.992997</ele>
        <time>2022-12-14T13:02:37.301Z</time>
      </trkpt>
      <trkpt lat="47.82718" lon="-2.40648">
        <ele>59.959458</ele>
        <time>2022-12-14T13:02:40.299Z</time>
      </trkpt>
      <trkpt lat="47.8271" lon="-2.40635">
        <ele>59.927716</ele>
        <time>2022-12-14T13:02:43.297Z</time>
      </trkpt>
      <trkpt lat="47.82701" lon="-2.40621">
        <ele>59.893739</ele>
        <time>2022-12-14T13:02:46.302Z</time>
      </trkpt>
      <trkpt lat="47.82695" lon="-2.40611">
        <ele>59.869254</ele>
        <time>2022-12-14T13:02:48.378Z</time>
      </trkpt>
      <trkpt lat="47.82685" lon="-2.40597">
        <ele>59.835403</ele>
        <time>2022-12-14T13:02:51.276Z</time>
      </trkpt>
      <trkpt lat="47.82679" lon="-2.40587">
        <ele>59.810094</ele>
        <time>2022-12-14T13:02:53.276Z</time>
      </trkpt>
      <trkpt lat="47.8267" lon="-2.40573">
        <ele>59.776463</ele>
        <time>2022-12-14T13:02:56.303Z</time>
      </trkpt>
      <trkpt lat="47.82663" lon="-2.40559">
        <ele>59.745571</ele>
        <time>2022-12-14T13:02:59.301Z</time>
      </trkpt>
      <trkpt lat="47.82655" lon="-2.40547">
        <ele>59.716251</ele>
        <time>2022-12-14T13:03:02.302Z</time>
      </trkpt>
      <trkpt lat="47.82646" lon="-2.40534">
        <ele>59.683</ele>
        <time>2022-12-14T13:03:05.301Z</time>
      </trkpt>
      <trkpt lat="47.82637" lon="-2.4052">
        <ele>59.648584</ele>
        <time>2022-12-14T13:03:08.302Z</time>
      </trkpt>
      <trkpt lat="47.82631" lon="-2.40509">
        <ele>59.624779</ele>
        <time>2022-12-14T13:03:10.302Z</time>
      </trkpt>
      <trkpt lat="47.82624" lon="-2.40496">
        <ele>59.593447</ele>
        <time>2022-12-14T13:03:13.274Z</time>
      </trkpt>
      <trkpt lat="47.82615" lon="-2.40483">
        <ele>59.561845</ele>
        <time>2022-12-14T13:03:16.297Z</time>
      </trkpt>
      <trkpt lat="47.82607" lon="-2.40471">
        <ele>59.510623</ele>
        <time>2022-12-14T13:03:19.281Z</time>
      </trkpt>
      <trkpt lat="47.82598" lon="-2.40458">
        <ele>59.456279</ele>
        <time>2022-12-14T13:03:22.301Z</time>
      </trkpt>
      <trkpt lat="47.8259" lon="-2.40445">
        <ele>59.403507</ele>
        <time>2022-12-14T13:03:25.299Z</time>
      </trkpt>
      <trkpt lat="47.82582" lon="-2.40431">
        <ele>59.350879</ele>
        <time>2022-12-14T13:03:28.302Z</time>
      </trkpt>
      <trkpt lat="47.82574" lon="-2.40418">
        <ele>59.298546</ele>
        <time>2022-12-14T13:03:31.298Z</time>
      </trkpt>
      <trkpt lat="47.82566" lon="-2.40405">
        <ele>59.246943</ele>
        <time>2022-12-14T13:03:34.301Z</time>
      </trkpt>
      <trkpt lat="47.8256" lon="-2.40393">
        <ele>59.202176</ele>
        <time>2022-12-14T13:03:36.375Z</time>
      </trkpt>
      <trkpt lat="47.82555" lon="-2.40381">
        <ele>59.160628</ele>
        <time>2022-12-14T13:03:38.305Z</time>
      </trkpt>
      <trkpt lat="47.82549" lon="-2.40364">
        <ele>59.102134</ele>
        <time>2022-12-14T13:03:41.301Z</time>
      </trkpt>
      <trkpt lat="47.82545" lon="-2.40351">
        <ele>59.0622</ele>
        <time>2022-12-14T13:03:43.285Z</time>
      </trkpt>
      <trkpt lat="47.8254" lon="-2.40333">
        <ele>59.004015</ele>
        <time>2022-12-14T13:03:46.290Z</time>
      </trkpt>
      <trkpt lat="47.82536" lon="-2.40316">
        <ele>58.951218</ele>
        <time>2022-12-14T13:03:49.289Z</time>
      </trkpt>
      <trkpt lat="47.82532" lon="-2.40298">
        <ele>58.895268</ele>
        <time>2022-12-14T13:03:52.301Z</time>
      </trkpt>
      <trkpt lat="47.82528" lon="-2.4028">
        <ele>58.839148</ele>
        <time>2022-12-14T13:03:55.301Z</time>
      </trkpt>
      <trkpt lat="47.82525" lon="-2.40259">
        <ele>58.776715</ele>
        <time>2022-12-14T13:03:58.301Z</time>
      </trkpt>
      <trkpt lat="47.82523" lon="-2.40244">
        <ele>58.545955</ele>
        <time>2022-12-14T13:04:00.360Z</time>
      </trkpt>
      <trkpt lat="47.8252" lon="-2.40229">
        <ele>58.30438</ele>
        <time>2022-12-14T13:04:02.303Z</time>
      </trkpt>
      <trkpt lat="47.82519" lon="-2.4021">
        <ele>58.022986</ele>
        <time>2022-12-14T13:04:05.300Z</time>
      </trkpt>
      <trkpt lat="47.82518" lon="-2.40194">
        <ele>57.768401</ele>
        <time>2022-12-14T13:04:08.299Z</time>
      </trkpt>
      <trkpt lat="47.82516" lon="-2.40176">
        <ele>57.487459</ele>
        <time>2022-12-14T13:04:11.301Z</time>
      </trkpt>
      <trkpt lat="47.82515" lon="-2.40159">
        <ele>57.217808</ele>
        <time>2022-12-14T13:04:14.297Z</time>
      </trkpt>
      <trkpt lat="47.82514" lon="-2.4014">
        <ele>56.927871</ele>
        <time>2022-12-14T13:04:17.301Z</time>
      </trkpt>
      <trkpt lat="47.82512" lon="-2.40122">
        <ele>56.643286</ele>
        <time>2022-12-14T13:04:20.301Z</time>
      </trkpt>
      <trkpt lat="47.82511" lon="-2.40102">
        <ele>56.334604</ele>
        <time>2022-12-14T13:04:23.354Z</time>
      </trkpt>
      <trkpt lat="47.82509" lon="-2.40085">
        <ele>56.056167</ele>
        <time>2022-12-14T13:04:26.302Z</time>
      </trkpt>
      <trkpt lat="47.82508" lon="-2.40069">
        <ele>55.814954</ele>
        <time>2022-12-14T13:04:29.353Z</time>
      </trkpt>
      <trkpt lat="47.82507" lon="-2.40054">
        <ele>55.582789</ele>
        <time>2022-12-14T13:04:32.296Z</time>
      </trkpt>
      <trkpt lat="47.82506" lon="-2.40039">
        <ele>55.34576</ele>
        <time>2022-12-14T13:04:35.352Z</time>
      </trkpt>
      <trkpt lat="47.82504" lon="-2.40022">
        <ele>55.072802</ele>
        <time>2022-12-14T13:04:38.301Z</time>
      </trkpt>
      <trkpt lat="47.82501" lon="-2.40006">
        <ele>54.815242</ele>
        <time>2022-12-14T13:04:41.338Z</time>
      </trkpt>
      <trkpt lat="47.82496" lon="-2.39988">
        <ele>54.662234</ele>
        <time>2022-12-14T13:04:44.292Z</time>
      </trkpt>
      <trkpt lat="47.8249" lon="-2.39974">
        <ele>54.762078</ele>
        <time>2022-12-14T13:04:47.349Z</time>
      </trkpt>
      <trkpt lat="47.82484" lon="-2.39962">
        <ele>54.859308</ele>
        <time>2022-12-14T13:04:50.299Z</time>
      </trkpt>
      <trkpt lat="47.82476" lon="-2.3995">
        <ele>54.965252</ele>
        <time>2022-12-14T13:04:53.345Z</time>
      </trkpt>
      <trkpt lat="47.82468" lon="-2.39937">
        <ele>55.075367</ele>
        <time>2022-12-14T13:04:56.297Z</time>
      </trkpt>
      <trkpt lat="47.8246" lon="-2.39927">
        <ele>55.174006</ele>
        <time>2022-12-14T13:04:59.283Z</time>
      </trkpt>
      <trkpt lat="47.82454" lon="-2.39918">
        <ele>55.259306</ele>
        <time>2022-12-14T13:05:02.301Z</time>
      </trkpt>
      <trkpt lat="47.82444" lon="-2.39909">
        <ele>55.365848</ele>
        <time>2022-12-14T13:05:06.278Z</time>
      </trkpt>
      <trkpt lat="47.82435" lon="-2.39901">
        <ele>55.462873</ele>
        <time>2022-12-14T13:05:10.355Z</time>
      </trkpt>
      <trkpt lat="47.82428" lon="-2.39891">
        <ele>55.550735</ele>
        <time>2022-12-14T13:05:14.302Z</time>
      </trkpt>
      <trkpt lat="47.82422" lon="-2.39881">
        <ele>55.640925</ele>
        <time>2022-12-14T13:05:17.302Z</time>
      </trkpt>
      <trkpt lat="47.82412" lon="-2.39868">
        <ele>55.758262</ele>
        <time>2022-12-14T13:05:20.300Z</time>
      </trkpt>
      <trkpt lat="47.82405" lon="-2.39859">
        <ele>55.84865</ele>
        <time>2022-12-14T13:05:22.346Z</time>
      </trkpt>
      <trkpt lat="47.82398" lon="-2.3985">
        <ele>55.93437</ele>
        <time>2022-12-14T13:05:24.303Z</time>
      </trkpt>
      <trkpt lat="47.8239" lon="-2.39841">
        <ele>56.025469</ele>
        <time>2022-12-14T13:05:26.303Z</time>
      </trkpt>
      <trkpt lat="47.82384" lon="-2.39832">
        <ele>56.111517</ele>
        <time>2022-12-14T13:05:28.358Z</time>
      </trkpt>
      <trkpt lat="47.82374" lon="-2.39819">
        <ele>56.237379</ele>
        <time>2022-12-14T13:05:31.328Z</time>
      </trkpt>
      <trkpt lat="47.82366" lon="-2.39807">
        <ele>56.342082</ele>
        <time>2022-12-14T13:05:34.298Z</time>
      </trkpt>
      <trkpt lat="47.82356" lon="-2.39794">
        <ele>56.46021</ele>
        <time>2022-12-14T13:05:37.300Z</time>
      </trkpt>
      <trkpt lat="47.82349" lon="-2.39784">
        <ele>56.547485</ele>
        <time>2022-12-14T13:05:39.303Z</time>
      </trkpt>
      <trkpt lat="47.82342" lon="-2.39775">
        <ele>56.635495</ele>
        <time>2022-12-14T13:05:41.303Z</time>
      </trkpt>
      <trkpt lat="47.82334" lon="-2.39765">
        <ele>56.726956</ele>
        <time>2022-12-14T13:05:43.296Z</time>
      </trkpt>
      <trkpt lat="47.82328" lon="-2.39756">
        <ele>56.811196</ele>
        <time>2022-12-14T13:05:45.308Z</time>
      </trkpt>
      <trkpt lat="47.82321" lon="-2.39746">
        <ele>56.897437</ele>
        <time>2022-12-14T13:05:47.302Z</time>
      </trkpt>
      <trkpt lat="47.82315" lon="-2.39736">
        <ele>56.980601</ele>
        <time>2022-12-14T13:05:49.301Z</time>
      </trkpt>
      <trkpt lat="47.82305" lon="-2.39725">
        <ele>57.095491</ele>
        <time>2022-12-14T13:05:52.299Z</time>
      </trkpt>
      <trkpt lat="47.82295" lon="-2.39713">
        <ele>57.212413</ele>
        <time>2022-12-14T13:05:55.300Z</time>
      </trkpt>
      <trkpt lat="47.82286" lon="-2.39701">
        <ele>57.323997</ele>
        <time>2022-12-14T13:05:58.299Z</time>
      </trkpt>
      <trkpt lat="47.82276" lon="-2.39688">
        <ele>57.443628</ele>
        <time>2022-12-14T13:06:01.283Z</time>
      </trkpt>
      <trkpt lat="47.82269" lon="-2.39679">
        <ele>57.526851</ele>
        <time>2022-12-14T13:06:03.297Z</time>
      </trkpt>
      <trkpt lat="47.82262" lon="-2.3967">
        <ele>57.609659</ele>
        <time>2022-12-14T13:06:05.351Z</time>
      </trkpt>
      <trkpt lat="47.82255" lon="-2.39661">
        <ele>57.697166</ele>
        <time>2022-12-14T13:06:07.301Z</time>
      </trkpt>
      <trkpt lat="47.82248" lon="-2.39651">
        <ele>57.783946</ele>
        <time>2022-12-14T13:06:09.298Z</time>
      </trkpt>
      <trkpt lat="47.82238" lon="-2.39638">
        <ele>57.908164</ele>
        <time>2022-12-14T13:06:12.300Z</time>
      </trkpt>
      <trkpt lat="47.8223" lon="-2.39628">
        <ele>57.964753</ele>
        <time>2022-12-14T13:06:14.297Z</time>
      </trkpt>
      <trkpt lat="47.82223" lon="-2.39619">
        <ele>57.980578</ele>
        <time>2022-12-14T13:06:16.352Z</time>
      </trkpt>
      <trkpt lat="47.82216" lon="-2.39609">
        <ele>57.99767</ele>
        <time>2022-12-14T13:06:18.303Z</time>
      </trkpt>
      <trkpt lat="47.82208" lon="-2.396">
        <ele>58.014823</ele>
        <time>2022-12-14T13:06:20.298Z</time>
      </trkpt>
      <trkpt lat="47.82202" lon="-2.39591">
        <ele>58.030727</ele>
        <time>2022-12-14T13:06:22.350Z</time>
      </trkpt>
      <trkpt lat="47.82194" lon="-2.39581">
        <ele>58.047771</ele>
        <time>2022-12-14T13:06:24.301Z</time>
      </trkpt>
      <trkpt lat="47.82187" lon="-2.39572">
        <ele>58.064166</ele>
        <time>2022-12-14T13:06:26.303Z</time>
      </trkpt>
      <trkpt lat="47.8218" lon="-2.39562">
        <ele>58.081542</ele>
        <time>2022-12-14T13:06:28.365Z</time>
      </trkpt>
      <trkpt lat="47.82172" lon="-2.39553">
        <ele>58.097928</ele>
        <time>2022-12-14T13:06:30.302Z</time>
      </trkpt>
      <trkpt lat="47.82162" lon="-2.39542">
        <ele>58.119671</ele>
        <time>2022-12-14T13:06:33.320Z</time>
      </trkpt>
      <trkpt lat="47.82154" lon="-2.3953">
        <ele>58.140015</ele>
        <time>2022-12-14T13:06:36.302Z</time>
      </trkpt>
      <trkpt lat="47.82144" lon="-2.39518">
        <ele>58.161771</ele>
        <time>2022-12-14T13:06:39.307Z</time>
      </trkpt>
      <trkpt lat="47.82134" lon="-2.39505">
        <ele>58.184598</ele>
        <time>2022-12-14T13:06:42.301Z</time>
      </trkpt>
      <trkpt lat="47.82127" lon="-2.39496">
        <ele>58.200532</ele>
        <time>2022-12-14T13:06:44.299Z</time>
      </trkpt>
      <trkpt lat="47.8212" lon="-2.39487">
        <ele>58.216074</ele>
        <time>2022-12-14T13:06:46.368Z</time>
      </trkpt>
      <trkpt lat="47.82111" lon="-2.39476">
        <ele>58.236902</ele>
        <time>2022-12-14T13:06:49.303Z</time>
      </trkpt>
      <trkpt lat="47.82102" lon="-2.39464">
        <ele>58.257814</ele>
        <time>2022-12-14T13:06:52.350Z</time>
      </trkpt>
      <trkpt lat="47.82092" lon="-2.39451">
        <ele>58.223049</ele>
        <time>2022-12-14T13:06:55.303Z</time>
      </trkpt>
      <trkpt lat="47.82083" lon="-2.39439">
        <ele>58.152285</ele>
        <time>2022-12-14T13:06:58.298Z</time>
      </trkpt>
      <trkpt lat="47.82073" lon="-2.39426">
        <ele>58.076949</ele>
        <time>2022-12-14T13:07:01.303Z</time>
      </trkpt>
      <trkpt lat="47.82063" lon="-2.39413">
        <ele>57.998292</ele>
        <time>2022-12-14T13:07:04.304Z</time>
      </trkpt>
      <trkpt lat="47.82055" lon="-2.39402">
        <ele>57.937811</ele>
        <time>2022-12-14T13:07:06.305Z</time>
      </trkpt>
      <trkpt lat="47.82048" lon="-2.39393">
        <ele>57.880827</ele>
        <time>2022-12-14T13:07:08.305Z</time>
      </trkpt>
      <trkpt lat="47.8204" lon="-2.39384">
        <ele>57.825927</ele>
        <time>2022-12-14T13:07:10.303Z</time>
      </trkpt>
      <trkpt lat="47.82033" lon="-2.39376">
        <ele>57.771559</ele>
        <time>2022-12-14T13:07:12.303Z</time>
      </trkpt>
      <trkpt lat="47.82023" lon="-2.39364">
        <ele>57.698604</ele>
        <time>2022-12-14T13:07:15.355Z</time>
      </trkpt>
      <trkpt lat="47.82013" lon="-2.39353">
        <ele>57.627134</ele>
        <time>2022-12-14T13:07:18.302Z</time>
      </trkpt>
      <trkpt lat="47.82004" lon="-2.39339">
        <ele>57.552709</ele>
        <time>2022-12-14T13:07:21.379Z</time>
      </trkpt>
      <trkpt lat="47.81997" lon="-2.3933">
        <ele>57.500265</ele>
        <time>2022-12-14T13:07:23.326Z</time>
      </trkpt>
      <trkpt lat="47.8199" lon="-2.39322">
        <ele>57.44706</ele>
        <time>2022-12-14T13:07:25.301Z</time>
      </trkpt>
      <trkpt lat="47.81983" lon="-2.39313">
        <ele>57.391505</ele>
        <time>2022-12-14T13:07:27.355Z</time>
      </trkpt>
      <trkpt lat="47.81975" lon="-2.39303">
        <ele>57.333378</ele>
        <time>2022-12-14T13:07:29.301Z</time>
      </trkpt>
      <trkpt lat="47.81967" lon="-2.39293">
        <ele>57.273616</ele>
        <time>2022-12-14T13:07:31.300Z</time>
      </trkpt>
      <trkpt lat="47.8196" lon="-2.39283">
        <ele>57.215008</ele>
        <time>2022-12-14T13:07:33.341Z</time>
      </trkpt>
      <trkpt lat="47.81952" lon="-2.39274">
        <ele>57.159642</ele>
        <time>2022-12-14T13:07:35.297Z</time>
      </trkpt>
      <trkpt lat="47.81942" lon="-2.39262">
        <ele>57.087782</ele>
        <time>2022-12-14T13:07:38.306Z</time>
      </trkpt>
      <trkpt lat="47.81933" lon="-2.39251">
        <ele>57.021685</ele>
        <time>2022-12-14T13:07:41.303Z</time>
      </trkpt>
      <trkpt lat="47.81925" lon="-2.39237">
        <ele>56.952482</ele>
        <time>2022-12-14T13:07:44.324Z</time>
      </trkpt>
      <trkpt lat="47.81918" lon="-2.39228">
        <ele>56.897898</ele>
        <time>2022-12-14T13:07:46.286Z</time>
      </trkpt>
      <trkpt lat="47.81911" lon="-2.39219">
        <ele>56.846287</ele>
        <time>2022-12-14T13:07:48.295Z</time>
      </trkpt>
      <trkpt lat="47.81901" lon="-2.39205">
        <ele>56.76861</ele>
        <time>2022-12-14T13:07:51.301Z</time>
      </trkpt>
      <trkpt lat="47.81895" lon="-2.39195">
        <ele>56.715972</ele>
        <time>2022-12-14T13:07:53.295Z</time>
      </trkpt>
      <trkpt lat="47.81887" lon="-2.39186">
        <ele>56.662266</ele>
        <time>2022-12-14T13:07:55.290Z</time>
      </trkpt>
      <trkpt lat="47.81878" lon="-2.39174">
        <ele>56.593127</ele>
        <time>2022-12-14T13:07:58.301Z</time>
      </trkpt>
      <trkpt lat="47.81869" lon="-2.39162">
        <ele>56.527014</ele>
        <time>2022-12-14T13:08:01.301Z</time>
      </trkpt>
      <trkpt lat="47.8186" lon="-2.3915">
        <ele>56.45395</ele>
        <time>2022-12-14T13:08:04.301Z</time>
      </trkpt>
      <trkpt lat="47.8185" lon="-2.39138">
        <ele>56.380579</ele>
        <time>2022-12-14T13:08:07.302Z</time>
      </trkpt>
      <trkpt lat="47.8184" lon="-2.39124">
        <ele>56.305696</ele>
        <time>2022-12-14T13:08:10.303Z</time>
      </trkpt>
      <trkpt lat="47.81832" lon="-2.39115">
        <ele>56.248196</ele>
        <time>2022-12-14T13:08:12.300Z</time>
      </trkpt>
      <trkpt lat="47.81825" lon="-2.39106">
        <ele>56.209836</ele>
        <time>2022-12-14T13:08:14.366Z</time>
      </trkpt>
      <trkpt lat="47.81816" lon="-2.39094">
        <ele>56.230198</ele>
        <time>2022-12-14T13:08:17.303Z</time>
      </trkpt>
      <trkpt lat="47.81807" lon="-2.39083">
        <ele>56.250132</ele>
        <time>2022-12-14T13:08:20.366Z</time>
      </trkpt>
      <trkpt lat="47.81797" lon="-2.39071">
        <ele>56.270997</ele>
        <time>2022-12-14T13:08:23.297Z</time>
      </trkpt>
      <trkpt lat="47.81787" lon="-2.39059">
        <ele>56.293292</ele>
        <time>2022-12-14T13:08:26.357Z</time>
      </trkpt>
      <trkpt lat="47.81781" lon="-2.3905">
        <ele>56.308652</ele>
        <time>2022-12-14T13:08:28.302Z</time>
      </trkpt>
      <trkpt lat="47.81774" lon="-2.3904">
        <ele>56.324595</ele>
        <time>2022-12-14T13:08:30.299Z</time>
      </trkpt>
      <trkpt lat="47.81766" lon="-2.39031">
        <ele>56.340839</ele>
        <time>2022-12-14T13:08:32.348Z</time>
      </trkpt>
      <trkpt lat="47.81759" lon="-2.39023">
        <ele>56.3566</ele>
        <time>2022-12-14T13:08:34.302Z</time>
      </trkpt>
      <trkpt lat="47.8175" lon="-2.3901">
        <ele>56.378914</ele>
        <time>2022-12-14T13:08:37.302Z</time>
      </trkpt>
      <trkpt lat="47.81741" lon="-2.38997">
        <ele>56.399356</ele>
        <time>2022-12-14T13:08:40.305Z</time>
      </trkpt>
      <trkpt lat="47.81731" lon="-2.38985">
        <ele>56.421038</ele>
        <time>2022-12-14T13:08:43.298Z</time>
      </trkpt>
      <trkpt lat="47.81722" lon="-2.38972">
        <ele>56.443273</ele>
        <time>2022-12-14T13:08:46.301Z</time>
      </trkpt>
      <trkpt lat="47.81712" lon="-2.3896">
        <ele>56.464808</ele>
        <time>2022-12-14T13:08:49.301Z</time>
      </trkpt>
      <trkpt lat="47.81703" lon="-2.38948">
        <ele>56.485059</ele>
        <time>2022-12-14T13:08:52.288Z</time>
      </trkpt>
      <trkpt lat="47.81695" lon="-2.38936">
        <ele>56.504005</ele>
        <time>2022-12-14T13:08:55.302Z</time>
      </trkpt>
      <trkpt lat="47.81686" lon="-2.38924">
        <ele>56.530536</ele>
        <time>2022-12-14T13:08:58.303Z</time>
      </trkpt>
      <trkpt lat="47.81676" lon="-2.38911">
        <ele>56.562654</ele>
        <time>2022-12-14T13:09:01.301Z</time>
      </trkpt>
      <trkpt lat="47.81669" lon="-2.38902">
        <ele>56.586032</ele>
        <time>2022-12-14T13:09:03.302Z</time>
      </trkpt>
      <trkpt lat="47.81659" lon="-2.38888">
        <ele>56.619164</ele>
        <time>2022-12-14T13:09:06.300Z</time>
      </trkpt>
      <trkpt lat="47.81649" lon="-2.38875">
        <ele>56.652153</ele>
        <time>2022-12-14T13:09:09.294Z</time>
      </trkpt>
      <trkpt lat="47.81639" lon="-2.38863">
        <ele>56.682063</ele>
        <time>2022-12-14T13:09:12.302Z</time>
      </trkpt>
      <trkpt lat="47.8163" lon="-2.38852">
        <ele>56.711885</ele>
        <time>2022-12-14T13:09:15.291Z</time>
      </trkpt>
      <trkpt lat="47.8162" lon="-2.3884">
        <ele>56.742463</ele>
        <time>2022-12-14T13:09:18.298Z</time>
      </trkpt>
      <trkpt lat="47.8161" lon="-2.38828">
        <ele>56.774507</ele>
        <time>2022-12-14T13:09:21.279Z</time>
      </trkpt>
      <trkpt lat="47.816" lon="-2.38815">
        <ele>56.806628</ele>
        <time>2022-12-14T13:09:24.303Z</time>
      </trkpt>
      <trkpt lat="47.81592" lon="-2.38805">
        <ele>56.830613</ele>
        <time>2022-12-14T13:09:26.300Z</time>
      </trkpt>
      <trkpt lat="47.81585" lon="-2.38797">
        <ele>56.852804</ele>
        <time>2022-12-14T13:09:28.307Z</time>
      </trkpt>
      <trkpt lat="47.81578" lon="-2.38788">
        <ele>56.875579</ele>
        <time>2022-12-14T13:09:30.303Z</time>
      </trkpt>
      <trkpt lat="47.81571" lon="-2.38779">
        <ele>56.899195</ele>
        <time>2022-12-14T13:09:32.301Z</time>
      </trkpt>
      <trkpt lat="47.81561" lon="-2.38766">
        <ele>56.930258</ele>
        <time>2022-12-14T13:09:35.304Z</time>
      </trkpt>
      <trkpt lat="47.81552" lon="-2.38755">
        <ele>56.906923</ele>
        <time>2022-12-14T13:09:38.310Z</time>
      </trkpt>
      <trkpt lat="47.81542" lon="-2.38742">
        <ele>56.747597</ele>
        <time>2022-12-14T13:09:41.283Z</time>
      </trkpt>
      <trkpt lat="47.81533" lon="-2.38729">
        <ele>56.585133</ele>
        <time>2022-12-14T13:09:44.302Z</time>
      </trkpt>
      <trkpt lat="47.81523" lon="-2.38716">
        <ele>56.41705</ele>
        <time>2022-12-14T13:09:47.300Z</time>
      </trkpt>
      <trkpt lat="47.81516" lon="-2.38707">
        <ele>56.299779</ele>
        <time>2022-12-14T13:09:49.350Z</time>
      </trkpt>
      <trkpt lat="47.81509" lon="-2.38698">
        <ele>56.182875</ele>
        <time>2022-12-14T13:09:51.295Z</time>
      </trkpt>
      <trkpt lat="47.81499" lon="-2.38685">
        <ele>56.01384</ele>
        <time>2022-12-14T13:09:54.302Z</time>
      </trkpt>
      <trkpt lat="47.81489" lon="-2.38672">
        <ele>55.842324</ele>
        <time>2022-12-14T13:09:57.298Z</time>
      </trkpt>
      <trkpt lat="47.81482" lon="-2.38663">
        <ele>55.72316</ele>
        <time>2022-12-14T13:09:59.301Z</time>
      </trkpt>
      <trkpt lat="47.81473" lon="-2.38651">
        <ele>55.565907</ele>
        <time>2022-12-14T13:10:02.284Z</time>
      </trkpt>
      <trkpt lat="47.81465" lon="-2.38639">
        <ele>55.422791</ele>
        <time>2022-12-14T13:10:05.302Z</time>
      </trkpt>
      <trkpt lat="47.81456" lon="-2.38628">
        <ele>55.272955</ele>
        <time>2022-12-14T13:10:08.274Z</time>
      </trkpt>
      <trkpt lat="47.81446" lon="-2.38616">
        <ele>55.110345</ele>
        <time>2022-12-14T13:10:11.303Z</time>
      </trkpt>
      <trkpt lat="47.81436" lon="-2.38604">
        <ele>54.947419</ele>
        <time>2022-12-14T13:10:14.305Z</time>
      </trkpt>
      <trkpt lat="47.81427" lon="-2.38592">
        <ele>54.792581</ele>
        <time>2022-12-14T13:10:17.303Z</time>
      </trkpt>
      <trkpt lat="47.81417" lon="-2.38579">
        <ele>54.638437</ele>
        <time>2022-12-14T13:10:20.301Z</time>
      </trkpt>
      <trkpt lat="47.81407" lon="-2.38566">
        <ele>54.553651</ele>
        <time>2022-12-14T13:10:23.330Z</time>
      </trkpt>
      <trkpt lat="47.81397" lon="-2.38554">
        <ele>54.471573</ele>
        <time>2022-12-14T13:10:26.301Z</time>
      </trkpt>
      <trkpt lat="47.8139" lon="-2.38545">
        <ele>54.413462</ele>
        <time>2022-12-14T13:10:28.298Z</time>
      </trkpt>
      <trkpt lat="47.81383" lon="-2.38535">
        <ele>54.353812</ele>
        <time>2022-12-14T13:10:30.303Z</time>
      </trkpt>
      <trkpt lat="47.81377" lon="-2.38525">
        <ele>54.295679</ele>
        <time>2022-12-14T13:10:32.303Z</time>
      </trkpt>
      <trkpt lat="47.81367" lon="-2.38514">
        <ele>54.216776</ele>
        <time>2022-12-14T13:10:35.306Z</time>
      </trkpt>
      <trkpt lat="47.81358" lon="-2.38503">
        <ele>54.142726</ele>
        <time>2022-12-14T13:10:38.302Z</time>
      </trkpt>
      <trkpt lat="47.81348" lon="-2.38491">
        <ele>54.060881</ele>
        <time>2022-12-14T13:10:41.302Z</time>
      </trkpt>
      <trkpt lat="47.81341" lon="-2.3848">
        <ele>53.994299</ele>
        <time>2022-12-14T13:10:43.335Z</time>
      </trkpt>
      <trkpt lat="47.81334" lon="-2.38471">
        <ele>53.934665</ele>
        <time>2022-12-14T13:10:45.303Z</time>
      </trkpt>
      <trkpt lat="47.81326" lon="-2.38462">
        <ele>53.874059</ele>
        <time>2022-12-14T13:10:47.302Z</time>
      </trkpt>
      <trkpt lat="47.81317" lon="-2.38449">
        <ele>53.793026</ele>
        <time>2022-12-14T13:10:50.301Z</time>
      </trkpt>
      <trkpt lat="47.81308" lon="-2.38438">
        <ele>53.720159</ele>
        <time>2022-12-14T13:10:53.295Z</time>
      </trkpt>
      <trkpt lat="47.81301" lon="-2.38428">
        <ele>53.655677</ele>
        <time>2022-12-14T13:10:56.302Z</time>
      </trkpt>
      <trkpt lat="47.81292" lon="-2.38416">
        <ele>53.58105</ele>
        <time>2022-12-14T13:10:59.302Z</time>
      </trkpt>
      <trkpt lat="47.81283" lon="-2.38405">
        <ele>53.511812</ele>
        <time>2022-12-14T13:11:02.302Z</time>
      </trkpt>
      <trkpt lat="47.81274" lon="-2.38394">
        <ele>53.524064</ele>
        <time>2022-12-14T13:11:05.305Z</time>
      </trkpt>
      <trkpt lat="47.81266" lon="-2.38384">
        <ele>53.535582</ele>
        <time>2022-12-14T13:11:08.299Z</time>
      </trkpt>
      <trkpt lat="47.81258" lon="-2.38374">
        <ele>53.547017</ele>
        <time>2022-12-14T13:11:11.305Z</time>
      </trkpt>
      <trkpt lat="47.81251" lon="-2.38364">
        <ele>53.558046</ele>
        <time>2022-12-14T13:11:14.353Z</time>
      </trkpt>
      <trkpt lat="47.81243" lon="-2.38355">
        <ele>53.568539</ele>
        <time>2022-12-14T13:11:17.305Z</time>
      </trkpt>
      <trkpt lat="47.81234" lon="-2.38346">
        <ele>53.580222</ele>
        <time>2022-12-14T13:11:21.304Z</time>
      </trkpt>
      <trkpt lat="47.81227" lon="-2.38335">
        <ele>53.591913</ele>
        <time>2022-12-14T13:11:26.353Z</time>
      </trkpt>
      <trkpt lat="47.8122" lon="-2.38324">
        <ele>53.603014</ele>
        <time>2022-12-14T13:11:30.301Z</time>
      </trkpt>
      <trkpt lat="47.81212" lon="-2.38313">
        <ele>53.615333</ele>
        <time>2022-12-14T13:11:34.304Z</time>
      </trkpt>
      <trkpt lat="47.81203" lon="-2.38305">
        <ele>53.626127</ele>
        <time>2022-12-14T13:11:38.340Z</time>
      </trkpt>
      <trkpt lat="47.81194" lon="-2.38294">
        <ele>53.638877</ele>
        <time>2022-12-14T13:11:43.313Z</time>
      </trkpt>
      <trkpt lat="47.81187" lon="-2.38285">
        <ele>53.649179</ele>
        <time>2022-12-14T13:11:46.284Z</time>
      </trkpt>
      <trkpt lat="47.81179" lon="-2.38273">
        <ele>53.661907</ele>
        <time>2022-12-14T13:11:49.305Z</time>
      </trkpt>
      <trkpt lat="47.81169" lon="-2.38261">
        <ele>53.675665</ele>
        <time>2022-12-14T13:11:52.304Z</time>
      </trkpt>
      <trkpt lat="47.8116" lon="-2.38249">
        <ele>53.688642</ele>
        <time>2022-12-14T13:11:55.366Z</time>
      </trkpt>
      <trkpt lat="47.81152" lon="-2.38239">
        <ele>53.700402</ele>
        <time>2022-12-14T13:11:58.302Z</time>
      </trkpt>
      <trkpt lat="47.81145" lon="-2.38231">
        <ele>53.672692</ele>
        <time>2022-12-14T13:12:01.364Z</time>
      </trkpt>
      <trkpt lat="47.81136" lon="-2.38224">
        <ele>53.485372</ele>
        <time>2022-12-14T13:12:04.301Z</time>
      </trkpt>
      <trkpt lat="47.81126" lon="-2.38214">
        <ele>53.275251</ele>
        <time>2022-12-14T13:12:07.361Z</time>
      </trkpt>
      <trkpt lat="47.81117" lon="-2.38204">
        <ele>53.071596</ele>
        <time>2022-12-14T13:12:10.301Z</time>
      </trkpt>
      <trkpt lat="47.81108" lon="-2.38195">
        <ele>52.870705</ele>
        <time>2022-12-14T13:12:13.355Z</time>
      </trkpt>
      <trkpt lat="47.81098" lon="-2.38186">
        <ele>52.665811</ele>
        <time>2022-12-14T13:12:16.301Z</time>
      </trkpt>
      <trkpt lat="47.81088" lon="-2.38178">
        <ele>52.457537</ele>
        <time>2022-12-14T13:12:19.302Z</time>
      </trkpt>
      <trkpt lat="47.81078" lon="-2.38169">
        <ele>52.245512</ele>
        <time>2022-12-14T13:12:22.304Z</time>
      </trkpt>
      <trkpt lat="47.81067" lon="-2.38163">
        <ele>52.038408</ele>
        <time>2022-12-14T13:12:25.304Z</time>
      </trkpt>
      <trkpt lat="47.81058" lon="-2.38156">
        <ele>51.853385</ele>
        <time>2022-12-14T13:12:28.302Z</time>
      </trkpt>
      <trkpt lat="47.81049" lon="-2.38151">
        <ele>51.677724</ele>
        <time>2022-12-14T13:12:31.298Z</time>
      </trkpt>
      <trkpt lat="47.8104" lon="-2.38146">
        <ele>51.501061</ele>
        <time>2022-12-14T13:12:34.277Z</time>
      </trkpt>
      <trkpt lat="47.81031" lon="-2.38141">
        <ele>51.33838</ele>
        <time>2022-12-14T13:12:37.289Z</time>
      </trkpt>
      <trkpt lat="47.81023" lon="-2.38135">
        <ele>51.172718</ele>
        <time>2022-12-14T13:12:40.301Z</time>
      </trkpt>
      <trkpt lat="47.81015" lon="-2.38128">
        <ele>50.994637</ele>
        <time>2022-12-14T13:12:43.359Z</time>
      </trkpt>
      <trkpt lat="47.81004" lon="-2.38121">
        <ele>50.781131</ele>
        <time>2022-12-14T13:12:46.301Z</time>
      </trkpt>
      <trkpt lat="47.80995" lon="-2.38116">
        <ele>50.605375</ele>
        <time>2022-12-14T13:12:49.357Z</time>
      </trkpt>
      <trkpt lat="47.80984" lon="-2.38113">
        <ele>50.471801</ele>
        <time>2022-12-14T13:12:54.302Z</time>
      </trkpt>
      <trkpt lat="47.80973" lon="-2.38109">
        <ele>50.535179</ele>
        <time>2022-12-14T13:12:59.300Z</time>
      </trkpt>
      <trkpt lat="47.80964" lon="-2.38101">
        <ele>50.592374</ele>
        <time>2022-12-14T13:13:02.282Z</time>
      </trkpt>
      <trkpt lat="47.80954" lon="-2.38093">
        <ele>50.654491</ele>
        <time>2022-12-14T13:13:05.303Z</time>
      </trkpt>
      <trkpt lat="47.80943" lon="-2.38086">
        <ele>50.721805</ele>
        <time>2022-12-14T13:13:08.303Z</time>
      </trkpt>
      <trkpt lat="47.80931" lon="-2.38079">
        <ele>50.788815</ele>
        <time>2022-12-14T13:13:11.302Z</time>
      </trkpt>
      <trkpt lat="47.80921" lon="-2.38072">
        <ele>50.851005</ele>
        <time>2022-12-14T13:13:14.288Z</time>
      </trkpt>
      <trkpt lat="47.80911" lon="-2.38066">
        <ele>50.906811</ele>
        <time>2022-12-14T13:13:17.303Z</time>
      </trkpt>
      <trkpt lat="47.80902" lon="-2.3806">
        <ele>50.961076</ele>
        <time>2022-12-14T13:13:20.302Z</time>
      </trkpt>
      <trkpt lat="47.80891" lon="-2.38053">
        <ele>51.026642</ele>
        <time>2022-12-14T13:13:24.347Z</time>
      </trkpt>
      <trkpt lat="47.80883" lon="-2.38046">
        <ele>51.079167</ele>
        <time>2022-12-14T13:13:28.301Z</time>
      </trkpt>
      <trkpt lat="47.80874" lon="-2.38038">
        <ele>51.133457</ele>
        <time>2022-12-14T13:13:32.306Z</time>
      </trkpt>
      <trkpt lat="47.80864" lon="-2.3804">
        <ele>51.193478</ele>
        <time>2022-12-14T13:13:38.306Z</time>
      </trkpt>
      <trkpt lat="47.80855" lon="-2.38045">
        <ele>51.243082</ele>
        <time>2022-12-14T13:13:42.287Z</time>
      </trkpt>
      <trkpt lat="47.80844" lon="-2.38047">
        <ele>51.305175</ele>
        <time>2022-12-14T13:13:46.301Z</time>
      </trkpt>
      <trkpt lat="47.80834" lon="-2.38045">
        <ele>51.36118</ele>
        <time>2022-12-14T13:13:49.302Z</time>
      </trkpt>
      <trkpt lat="47.80822" lon="-2.38046">
        <ele>51.422303</ele>
        <time>2022-12-14T13:13:52.300Z</time>
      </trkpt>
      <trkpt lat="47.80811" lon="-2.38045">
        <ele>51.418015</ele>
        <time>2022-12-14T13:13:55.306Z</time>
      </trkpt>
      <trkpt lat="47.80799" lon="-2.38044">
        <ele>51.386265</ele>
        <time>2022-12-14T13:13:58.301Z</time>
      </trkpt>
      <trkpt lat="47.80789" lon="-2.38043">
        <ele>51.35783</ele>
        <time>2022-12-14T13:14:01.306Z</time>
      </trkpt>
      <trkpt lat="47.80779" lon="-2.38043">
        <ele>51.331033</ele>
        <time>2022-12-14T13:14:04.346Z</time>
      </trkpt>
      <trkpt lat="47.80769" lon="-2.38042">
        <ele>51.303409</ele>
        <time>2022-12-14T13:14:07.301Z</time>
      </trkpt>
      <trkpt lat="47.80759" lon="-2.38043">
        <ele>51.276308</ele>
        <time>2022-12-14T13:14:10.364Z</time>
      </trkpt>
      <trkpt lat="47.80747" lon="-2.38045">
        <ele>51.246072</ele>
        <time>2022-12-14T13:14:13.288Z</time>
      </trkpt>
      <trkpt lat="47.80736" lon="-2.38048">
        <ele>51.214712</ele>
        <time>2022-12-14T13:14:16.347Z</time>
      </trkpt>
      <trkpt lat="47.80724" lon="-2.38051">
        <ele>51.182614</ele>
        <time>2022-12-14T13:14:19.303Z</time>
      </trkpt>
      <trkpt lat="47.80713" lon="-2.38051">
        <ele>51.15095</ele>
        <time>2022-12-14T13:14:22.360Z</time>
      </trkpt>
      <trkpt lat="47.80702" lon="-2.38051">
        <ele>51.121695</ele>
        <time>2022-12-14T13:14:25.297Z</time>
      </trkpt>
      <trkpt lat="47.80692" lon="-2.38048">
        <ele>51.093393</ele>
        <time>2022-12-14T13:14:28.350Z</time>
      </trkpt>
      <trkpt lat="47.8068" lon="-2.38045">
        <ele>51.062065</ele>
        <time>2022-12-14T13:14:31.306Z</time>
      </trkpt>
      <trkpt lat="47.80669" lon="-2.38041">
        <ele>51.030896</ele>
        <time>2022-12-14T13:14:34.351Z</time>
      </trkpt>
      <trkpt lat="47.80659" lon="-2.38035">
        <ele>51.001082</ele>
        <time>2022-12-14T13:14:37.305Z</time>
      </trkpt>
      <trkpt lat="47.8065" lon="-2.38028">
        <ele>50.974645</ele>
        <time>2022-12-14T13:14:40.348Z</time>
      </trkpt>
      <trkpt lat="47.8064" lon="-2.3802">
        <ele>50.914855</ele>
        <time>2022-12-14T13:14:44.298Z</time>
      </trkpt>
      <trkpt lat="47.80631" lon="-2.38009">
        <ele>50.792223</ele>
        <time>2022-12-14T13:14:48.302Z</time>
      </trkpt>
      <trkpt lat="47.80622" lon="-2.37998">
        <ele>50.670063</ele>
        <time>2022-12-14T13:14:52.308Z</time>
      </trkpt>
      <trkpt lat="47.80616" lon="-2.37988">
        <ele>50.572201</ele>
        <time>2022-12-14T13:14:55.299Z</time>
      </trkpt>
      <trkpt lat="47.8061" lon="-2.37976">
        <ele>50.474576</ele>
        <time>2022-12-14T13:14:58.276Z</time>
      </trkpt>
      <trkpt lat="47.80604" lon="-2.37964">
        <ele>50.370078</ele>
        <time>2022-12-14T13:15:01.303Z</time>
      </trkpt>
      <trkpt lat="47.80598" lon="-2.37953">
        <ele>50.267469</ele>
        <time>2022-12-14T13:15:04.285Z</time>
      </trkpt>
      <trkpt lat="47.80592" lon="-2.37942">
        <ele>50.168236</ele>
        <time>2022-12-14T13:15:07.281Z</time>
      </trkpt>
      <trkpt lat="47.80587" lon="-2.37929">
        <ele>50.064784</ele>
        <time>2022-12-14T13:15:10.304Z</time>
      </trkpt>
      <trkpt lat="47.80581" lon="-2.37914">
        <ele>49.943588</ele>
        <time>2022-12-14T13:15:13.326Z</time>
      </trkpt>
      <trkpt lat="47.80576" lon="-2.37899">
        <ele>49.825198</ele>
        <time>2022-12-14T13:15:16.302Z</time>
      </trkpt>
      <trkpt lat="47.80572" lon="-2.37884">
        <ele>49.705604</ele>
        <time>2022-12-14T13:15:19.305Z</time>
      </trkpt>
      <trkpt lat="47.80566" lon="-2.37868">
        <ele>49.581241</ele>
        <time>2022-12-14T13:15:22.299Z</time>
      </trkpt>
      <trkpt lat="47.80561" lon="-2.37852">
        <ele>49.452963</ele>
        <time>2022-12-14T13:15:25.303Z</time>
      </trkpt>
      <trkpt lat="47.80555" lon="-2.37835">
        <ele>49.322</ele>
        <time>2022-12-14T13:15:28.304Z</time>
      </trkpt>
      <trkpt lat="47.8055" lon="-2.37818">
        <ele>49.191709</ele>
        <time>2022-12-14T13:15:31.304Z</time>
      </trkpt>
      <trkpt lat="47.80545" lon="-2.37802">
        <ele>49.069857</ele>
        <time>2022-12-14T13:15:34.301Z</time>
      </trkpt>
      <trkpt lat="47.8054" lon="-2.37785">
        <ele>49.044818</ele>
        <time>2022-12-14T13:15:37.303Z</time>
      </trkpt>
      <trkpt lat="47.80536" lon="-2.37766">
        <ele>49.017734</ele>
        <time>2022-12-14T13:15:40.301Z</time>
      </trkpt>
      <trkpt lat="47.80531" lon="-2.3775">
        <ele>48.992902</ele>
        <time>2022-12-14T13:15:43.306Z</time>
      </trkpt>
      <trkpt lat="47.80527" lon="-2.37733">
        <ele>48.969284</ele>
        <time>2022-12-14T13:15:46.303Z</time>
      </trkpt>
      <trkpt lat="47.80522" lon="-2.37717">
        <ele>48.945477</ele>
        <time>2022-12-14T13:15:49.301Z</time>
      </trkpt>
      <trkpt lat="47.80517" lon="-2.377">
        <ele>48.920543</ele>
        <time>2022-12-14T13:15:52.295Z</time>
      </trkpt>
      <trkpt lat="47.80513" lon="-2.37682">
        <ele>48.894798</ele>
        <time>2022-12-14T13:15:55.305Z</time>
      </trkpt>
      <trkpt lat="47.80508" lon="-2.37664">
        <ele>48.867805</ele>
        <time>2022-12-14T13:15:58.301Z</time>
      </trkpt>
      <trkpt lat="47.80504" lon="-2.37651">
        <ele>48.849644</ele>
        <time>2022-12-14T13:16:00.303Z</time>
      </trkpt>
      <trkpt lat="47.80501" lon="-2.37638">
        <ele>48.830902</ele>
        <time>2022-12-14T13:16:02.351Z</time>
      </trkpt>
      <trkpt lat="47.80496" lon="-2.3762">
        <ele>48.803931</ele>
        <time>2022-12-14T13:16:05.303Z</time>
      </trkpt>
      <trkpt lat="47.80493" lon="-2.37607">
        <ele>48.785132</ele>
        <time>2022-12-14T13:16:07.306Z</time>
      </trkpt>
      <trkpt lat="47.80489" lon="-2.37588">
        <ele>48.757907</ele>
        <time>2022-12-14T13:16:10.304Z</time>
      </trkpt>
      <trkpt lat="47.80484" lon="-2.3757">
        <ele>48.731919</ele>
        <time>2022-12-14T13:16:13.295Z</time>
      </trkpt>
      <trkpt lat="47.8048" lon="-2.37552">
        <ele>48.710711</ele>
        <time>2022-12-14T13:16:16.304Z</time>
      </trkpt>
      <trkpt lat="47.80476" lon="-2.37536">
        <ele>48.845346</ele>
        <time>2022-12-14T13:16:19.360Z</time>
      </trkpt>
      <trkpt lat="47.80472" lon="-2.37518">
        <ele>48.987967</ele>
        <time>2022-12-14T13:16:22.299Z</time>
      </trkpt>
      <trkpt lat="47.80469" lon="-2.37504">
        <ele>49.090953</ele>
        <time>2022-12-14T13:16:24.310Z</time>
      </trkpt>
      <trkpt lat="47.80466" lon="-2.37492">
        <ele>49.19223</ele>
        <time>2022-12-14T13:16:26.303Z</time>
      </trkpt>
      <trkpt lat="47.80461" lon="-2.37474">
        <ele>49.335328</ele>
        <time>2022-12-14T13:16:29.304Z</time>
      </trkpt>
      <trkpt lat="47.80456" lon="-2.37456">
        <ele>49.477437</ele>
        <time>2022-12-14T13:16:32.302Z</time>
      </trkpt>
      <trkpt lat="47.80452" lon="-2.37439">
        <ele>49.610897</ele>
        <time>2022-12-14T13:16:35.301Z</time>
      </trkpt>
      <trkpt lat="47.80449" lon="-2.37421">
        <ele>49.750812</ele>
        <time>2022-12-14T13:16:38.300Z</time>
      </trkpt>
      <trkpt lat="47.80446" lon="-2.37404">
        <ele>49.882954</ele>
        <time>2022-12-14T13:16:41.302Z</time>
      </trkpt>
      <trkpt lat="47.80444" lon="-2.37386">
        <ele>50.021048</ele>
        <time>2022-12-14T13:16:44.306Z</time>
      </trkpt>
      <trkpt lat="47.80442" lon="-2.37367">
        <ele>50.165644</ele>
        <time>2022-12-14T13:16:47.304Z</time>
      </trkpt>
      <trkpt lat="47.80442" lon="-2.37348">
        <ele>50.307786</ele>
        <time>2022-12-14T13:16:50.303Z</time>
      </trkpt>
      <trkpt lat="47.80441" lon="-2.37329">
        <ele>50.446774</ele>
        <time>2022-12-14T13:16:53.275Z</time>
      </trkpt>
      <trkpt lat="47.80441" lon="-2.37312">
        <ele>50.575217</ele>
        <time>2022-12-14T13:16:56.300Z</time>
      </trkpt>
      <trkpt lat="47.80441" lon="-2.37297">
        <ele>50.685025</ele>
        <time>2022-12-14T13:16:59.304Z</time>
      </trkpt>
      <trkpt lat="47.80442" lon="-2.37282">
        <ele>50.664312</ele>
        <time>2022-12-14T13:17:02.302Z</time>
      </trkpt>
      <trkpt lat="47.80443" lon="-2.37265">
        <ele>50.604781</ele>
        <time>2022-12-14T13:17:05.302Z</time>
      </trkpt>
      <trkpt lat="47.80445" lon="-2.37247">
        <ele>50.542061</ele>
        <time>2022-12-14T13:17:08.302Z</time>
      </trkpt>
      <trkpt lat="47.80447" lon="-2.3723">
        <ele>50.479157</ele>
        <time>2022-12-14T13:17:11.376Z</time>
      </trkpt>
      <trkpt lat="47.8045" lon="-2.37211">
        <ele>50.412507</ele>
        <time>2022-12-14T13:17:14.283Z</time>
      </trkpt>
      <trkpt lat="47.80454" lon="-2.37194">
        <ele>50.34795</ele>
        <time>2022-12-14T13:17:17.319Z</time>
      </trkpt>
      <trkpt lat="47.8046" lon="-2.37178">
        <ele>50.286601</ele>
        <time>2022-12-14T13:17:20.303Z</time>
      </trkpt>
      <trkpt lat="47.80465" lon="-2.37161">
        <ele>50.221823</ele>
        <time>2022-12-14T13:17:23.350Z</time>
      </trkpt>
      <trkpt lat="47.80471" lon="-2.37145">
        <ele>50.154738</ele>
        <time>2022-12-14T13:17:26.303Z</time>
      </trkpt>
      <trkpt lat="47.80477" lon="-2.37128">
        <ele>50.088571</ele>
        <time>2022-12-14T13:17:29.302Z</time>
      </trkpt>
      <trkpt lat="47.80484" lon="-2.37113">
        <ele>50.026634</ele>
        <time>2022-12-14T13:17:32.296Z</time>
      </trkpt>
      <trkpt lat="47.80491" lon="-2.37101">
        <ele>49.967179</ele>
        <time>2022-12-14T13:17:35.287Z</time>
      </trkpt>
      <trkpt lat="47.80501" lon="-2.3709">
        <ele>49.905111</ele>
        <time>2022-12-14T13:17:38.302Z</time>
      </trkpt>
      <trkpt lat="47.80511" lon="-2.37081">
        <ele>49.844853</ele>
        <time>2022-12-14T13:17:41.302Z</time>
      </trkpt>
      <trkpt lat="47.8052" lon="-2.37074">
        <ele>49.793098</ele>
        <time>2022-12-14T13:17:44.299Z</time>
      </trkpt>
      <trkpt lat="47.80529" lon="-2.37068">
        <ele>49.744229</ele>
        <time>2022-12-14T13:17:47.283Z</time>
      </trkpt>
      <trkpt lat="47.8054" lon="-2.37061">
        <ele>49.690019</ele>
        <time>2022-12-14T13:17:50.303Z</time>
      </trkpt>
      <trkpt lat="47.80553" lon="-2.37055">
        <ele>49.632335</ele>
        <time>2022-12-14T13:17:53.277Z</time>
      </trkpt>
      <trkpt lat="47.80564" lon="-2.37049">
        <ele>49.578542</ele>
        <time>2022-12-14T13:17:56.303Z</time>
      </trkpt>
      <trkpt lat="47.80576" lon="-2.37042">
        <ele>49.51912</ele>
        <time>2022-12-14T13:17:59.302Z</time>
      </trkpt>
      <trkpt lat="47.80585" lon="-2.37037">
        <ele>49.479193</ele>
        <time>2022-12-14T13:18:01.298Z</time>
      </trkpt>
      <trkpt lat="47.80596" lon="-2.37031">
        <ele>49.426424</ele>
        <time>2022-12-14T13:18:04.351Z</time>
      </trkpt>
      <trkpt lat="47.80607" lon="-2.37023">
        <ele>49.373245</ele>
        <time>2022-12-14T13:18:07.298Z</time>
      </trkpt>
      <trkpt lat="47.80615" lon="-2.37017">
        <ele>49.332324</ele>
        <time>2022-12-14T13:18:09.293Z</time>
      </trkpt>
      <trkpt lat="47.80624" lon="-2.37011">
        <ele>49.287545</ele>
        <time>2022-12-14T13:18:11.289Z</time>
      </trkpt>
      <trkpt lat="47.80634" lon="-2.37005">
        <ele>49.241448</ele>
        <time>2022-12-14T13:18:13.297Z</time>
      </trkpt>
      <trkpt lat="47.80646" lon="-2.36998">
        <ele>49.182833</ele>
        <time>2022-12-14T13:18:16.355Z</time>
      </trkpt>
      <trkpt lat="47.80658" lon="-2.36991">
        <ele>49.124659</ele>
        <time>2022-12-14T13:18:19.300Z</time>
      </trkpt>
      <trkpt lat="47.80667" lon="-2.36984">
        <ele>49.081866</ele>
        <time>2022-12-14T13:18:21.301Z</time>
      </trkpt>
      <trkpt lat="47.80674" lon="-2.36977">
        <ele>49.041567</ele>
        <time>2022-12-14T13:18:23.337Z</time>
      </trkpt>
      <trkpt lat="47.80682" lon="-2.36969">
        <ele>48.998748</ele>
        <time>2022-12-14T13:18:25.283Z</time>
      </trkpt>
      <trkpt lat="47.80693" lon="-2.36957">
        <ele>49.145069</ele>
        <time>2022-12-14T13:18:28.290Z</time>
      </trkpt>
      <trkpt lat="47.80701" lon="-2.36949">
        <ele>49.388044</ele>
        <time>2022-12-14T13:18:30.302Z</time>
      </trkpt>
      <trkpt lat="47.8071" lon="-2.36938">
        <ele>49.70361</ele>
        <time>2022-12-14T13:18:33.291Z</time>
      </trkpt>
      <trkpt lat="47.80717" lon="-2.36926">
        <ele>49.973557</ele>
        <time>2022-12-14T13:18:36.302Z</time>
      </trkpt>
      <trkpt lat="47.80724" lon="-2.36911">
        <ele>50.289493</ele>
        <time>2022-12-14T13:18:39.302Z</time>
      </trkpt>
      <trkpt lat="47.8073" lon="-2.36894">
        <ele>50.607063</ele>
        <time>2022-12-14T13:18:42.303Z</time>
      </trkpt>
      <trkpt lat="47.80736" lon="-2.36877">
        <ele>50.946955</ele>
        <time>2022-12-14T13:18:45.302Z</time>
      </trkpt>
      <trkpt lat="47.80741" lon="-2.36859">
        <ele>51.282755</ele>
        <time>2022-12-14T13:18:48.303Z</time>
      </trkpt>
      <trkpt lat="47.80744" lon="-2.36841">
        <ele>51.615341</ele>
        <time>2022-12-14T13:18:51.305Z</time>
      </trkpt>
      <trkpt lat="47.80746" lon="-2.36822">
        <ele>51.940796</ele>
        <time>2022-12-14T13:18:54.301Z</time>
      </trkpt>
      <trkpt lat="47.80746" lon="-2.36804">
        <ele>52.248885</ele>
        <time>2022-12-14T13:18:57.302Z</time>
      </trkpt>
      <trkpt lat="47.80748" lon="-2.36787">
        <ele>52.551464</ele>
        <time>2022-12-14T13:19:00.302Z</time>
      </trkpt>
      <trkpt lat="47.80748" lon="-2.3677">
        <ele>52.847551</ele>
        <time>2022-12-14T13:19:03.322Z</time>
      </trkpt>
      <trkpt lat="47.80749" lon="-2.36751">
        <ele>53.166513</ele>
        <time>2022-12-14T13:19:06.302Z</time>
      </trkpt>
      <trkpt lat="47.8075" lon="-2.36732">
        <ele>53.503773</ele>
        <time>2022-12-14T13:19:09.285Z</time>
      </trkpt>
      <trkpt lat="47.80751" lon="-2.36714">
        <ele>53.585091</ele>
        <time>2022-12-14T13:19:12.303Z</time>
      </trkpt>
      <trkpt lat="47.80753" lon="-2.36697">
        <ele>53.560998</ele>
        <time>2022-12-14T13:19:15.304Z</time>
      </trkpt>
      <trkpt lat="47.80755" lon="-2.36677">
        <ele>53.533931</ele>
        <time>2022-12-14T13:19:18.305Z</time>
      </trkpt>
      <trkpt lat="47.80755" lon="-2.36659">
        <ele>53.508971</ele>
        <time>2022-12-14T13:19:21.304Z</time>
      </trkpt>
      <trkpt lat="47.80756" lon="-2.36642">
        <ele>53.484704</ele>
        <time>2022-12-14T13:19:24.293Z</time>
      </trkpt>
      <trkpt lat="47.80758" lon="-2.36623">
        <ele>53.458816</ele>
        <time>2022-12-14T13:19:27.303Z</time>
      </trkpt>
      <trkpt lat="47.80758" lon="-2.36606">
        <ele>53.434034</ele>
        <time>2022-12-14T13:19:30.304Z</time>
      </trkpt>
      <trkpt lat="47.80759" lon="-2.36589">
        <ele>53.410669</ele>
        <time>2022-12-14T13:19:33.291Z</time>
      </trkpt>
      <trkpt lat="47.8076" lon="-2.36572">
        <ele>53.3869</ele>
        <time>2022-12-14T13:19:36.318Z</time>
      </trkpt>
      <trkpt lat="47.80761" lon="-2.36554">
        <ele>53.361662</ele>
        <time>2022-12-14T13:19:39.304Z</time>
      </trkpt>
      <trkpt lat="47.80761" lon="-2.36537">
        <ele>53.338834</ele>
        <time>2022-12-14T13:19:42.306Z</time>
      </trkpt>
      <trkpt lat="47.80761" lon="-2.36521">
        <ele>53.316164</ele>
        <time>2022-12-14T13:19:45.291Z</time>
      </trkpt>
      <trkpt lat="47.80762" lon="-2.36506">
        <ele>53.295142</ele>
        <time>2022-12-14T13:19:48.303Z</time>
      </trkpt>
      <trkpt lat="47.80762" lon="-2.36491">
        <ele>53.274144</ele>
        <time>2022-12-14T13:19:51.305Z</time>
      </trkpt>
      <trkpt lat="47.80761" lon="-2.36475">
        <ele>53.252403</ele>
        <time>2022-12-14T13:19:54.298Z</time>
      </trkpt>
      <trkpt lat="47.80761" lon="-2.36458">
        <ele>53.230332</ele>
        <time>2022-12-14T13:19:57.285Z</time>
      </trkpt>
      <trkpt lat="47.8076" lon="-2.36439">
        <ele>53.233743</ele>
        <time>2022-12-14T13:20:00.295Z</time>
      </trkpt>
      <trkpt lat="47.8076" lon="-2.36419">
        <ele>53.237187</ele>
        <time>2022-12-14T13:20:03.283Z</time>
      </trkpt>
      <trkpt lat="47.80761" lon="-2.36401">
        <ele>53.240508</ele>
        <time>2022-12-14T13:20:06.306Z</time>
      </trkpt>
      <trkpt lat="47.80761" lon="-2.36382">
        <ele>53.243759</ele>
        <time>2022-12-14T13:20:09.285Z</time>
      </trkpt>
      <trkpt lat="47.80762" lon="-2.36364">
        <ele>53.247025</ele>
        <time>2022-12-14T13:20:12.302Z</time>
      </trkpt>
      <trkpt lat="47.80762" lon="-2.36351">
        <ele>53.249417</ele>
        <time>2022-12-14T13:20:14.290Z</time>
      </trkpt>
      <trkpt lat="47.80762" lon="-2.36337">
        <ele>53.251825</ele>
        <time>2022-12-14T13:20:16.303Z</time>
      </trkpt>
      <trkpt lat="47.80762" lon="-2.36324">
        <ele>53.254216</ele>
        <time>2022-12-14T13:20:18.309Z</time>
      </trkpt>
      <trkpt lat="47.80762" lon="-2.36305">
        <ele>53.25766</ele>
        <time>2022-12-14T13:20:21.306Z</time>
      </trkpt>
      <trkpt lat="47.80762" lon="-2.36286">
        <ele>53.260943</ele>
        <time>2022-12-14T13:20:24.302Z</time>
      </trkpt>
      <trkpt lat="47.80762" lon="-2.36268">
        <ele>53.264226</ele>
        <time>2022-12-14T13:20:27.300Z</time>
      </trkpt>
      <trkpt lat="47.80762" lon="-2.3625">
        <ele>53.267475</ele>
        <time>2022-12-14T13:20:30.305Z</time>
      </trkpt>
      <trkpt lat="47.80763" lon="-2.36232">
        <ele>53.27055</ele>
        <time>2022-12-14T13:20:33.314Z</time>
      </trkpt>
      <trkpt lat="47.80764" lon="-2.36214">
        <ele>53.273889</ele>
        <time>2022-12-14T13:20:36.305Z</time>
      </trkpt>
      <trkpt lat="47.80764" lon="-2.36196">
        <ele>53.277013</ele>
        <time>2022-12-14T13:20:39.303Z</time>
      </trkpt>
      <trkpt lat="47.80765" lon="-2.36178">
        <ele>53.211737</ele>
        <time>2022-12-14T13:20:42.302Z</time>
      </trkpt>
      <trkpt lat="47.80766" lon="-2.36158">
        <ele>53.120241</ele>
        <time>2022-12-14T13:20:45.299Z</time>
      </trkpt>
      <trkpt lat="47.80766" lon="-2.3614">
        <ele>53.03558</ele>
        <time>2022-12-14T13:20:48.289Z</time>
      </trkpt>
      <trkpt lat="47.80767" lon="-2.36123">
        <ele>52.955226</ele>
        <time>2022-12-14T13:20:51.302Z</time>
      </trkpt>
      <trkpt lat="47.80767" lon="-2.36104">
        <ele>52.864527</ele>
        <time>2022-12-14T13:20:54.283Z</time>
      </trkpt>
      <trkpt lat="47.80767" lon="-2.36085">
        <ele>52.774204</ele>
        <time>2022-12-14T13:20:57.301Z</time>
      </trkpt>
      <trkpt lat="47.80768" lon="-2.36065">
        <ele>52.681103</ele>
        <time>2022-12-14T13:21:00.305Z</time>
      </trkpt>
      <trkpt lat="47.80769" lon="-2.36046">
        <ele>52.588772</ele>
        <time>2022-12-14T13:21:03.298Z</time>
      </trkpt>
      <trkpt lat="47.8077" lon="-2.36028">
        <ele>52.505521</ele>
        <time>2022-12-14T13:21:06.303Z</time>
      </trkpt>
      <trkpt lat="47.80772" lon="-2.36011">
        <ele>52.421995</ele>
        <time>2022-12-14T13:21:09.301Z</time>
      </trkpt>
      <trkpt lat="47.80774" lon="-2.35995">
        <ele>52.345772</ele>
        <time>2022-12-14T13:21:12.301Z</time>
      </trkpt>
      <trkpt lat="47.80776" lon="-2.35977">
        <ele>52.25766</ele>
        <time>2022-12-14T13:21:15.304Z</time>
      </trkpt>
      <trkpt lat="47.80777" lon="-2.35958">
        <ele>52.16908</ele>
        <time>2022-12-14T13:21:18.305Z</time>
      </trkpt>
      <trkpt lat="47.80779" lon="-2.35939">
        <ele>52.076911</ele>
        <time>2022-12-14T13:21:21.303Z</time>
      </trkpt>
      <trkpt lat="47.80779" lon="-2.35925">
        <ele>52.012893</ele>
        <time>2022-12-14T13:21:23.289Z</time>
      </trkpt>
      <trkpt lat="47.80781" lon="-2.35907">
        <ele>51.969989</ele>
        <time>2022-12-14T13:21:26.306Z</time>
      </trkpt>
      <trkpt lat="47.80782" lon="-2.35893">
        <ele>51.936778</ele>
        <time>2022-12-14T13:21:29.304Z</time>
      </trkpt>
      <trkpt lat="47.80784" lon="-2.35878">
        <ele>51.902475</ele>
        <time>2022-12-14T13:21:32.304Z</time>
      </trkpt>
      <trkpt lat="47.80786" lon="-2.35863">
        <ele>51.866146</ele>
        <time>2022-12-14T13:21:35.301Z</time>
      </trkpt>
      <trkpt lat="47.80787" lon="-2.35846">
        <ele>51.827537</ele>
        <time>2022-12-14T13:21:38.303Z</time>
      </trkpt>
      <trkpt lat="47.80789" lon="-2.3583">
        <ele>51.789108</ele>
        <time>2022-12-14T13:21:41.304Z</time>
      </trkpt>
      <trkpt lat="47.80791" lon="-2.35814">
        <ele>51.752396</ele>
        <time>2022-12-14T13:21:44.303Z</time>
      </trkpt>
      <trkpt lat="47.80793" lon="-2.358">
        <ele>51.716906</ele>
        <time>2022-12-14T13:21:47.304Z</time>
      </trkpt>
      <trkpt lat="47.80796" lon="-2.35785">
        <ele>51.682891</ele>
        <time>2022-12-14T13:21:50.305Z</time>
      </trkpt>
      <trkpt lat="47.80797" lon="-2.3577">
        <ele>51.647273</ele>
        <time>2022-12-14T13:21:53.303Z</time>
      </trkpt>
      <trkpt lat="47.80799" lon="-2.35755">
        <ele>51.61045</ele>
        <time>2022-12-14T13:21:56.306Z</time>
      </trkpt>
      <trkpt lat="47.80801" lon="-2.3574">
        <ele>51.575631</ele>
        <time>2022-12-14T13:21:59.306Z</time>
      </trkpt>
      <trkpt lat="47.80802" lon="-2.35724">
        <ele>51.537676</ele>
        <time>2022-12-14T13:22:02.304Z</time>
      </trkpt>
      <trkpt lat="47.80804" lon="-2.35708">
        <ele>51.499532</ele>
        <time>2022-12-14T13:22:05.306Z</time>
      </trkpt>
      <trkpt lat="47.80805" lon="-2.35691">
        <ele>51.460797</ele>
        <time>2022-12-14T13:22:08.306Z</time>
      </trkpt>
      <trkpt lat="47.80807" lon="-2.35674">
        <ele>51.421207</ele>
        <time>2022-12-14T13:22:11.302Z</time>
      </trkpt>
      <trkpt lat="47.80809" lon="-2.35659">
        <ele>51.394443</ele>
        <time>2022-12-14T13:22:14.311Z</time>
      </trkpt>
      <trkpt lat="47.8081" lon="-2.35645">
        <ele>51.427668</ele>
        <time>2022-12-14T13:22:17.304Z</time>
      </trkpt>
      <trkpt lat="47.80812" lon="-2.3563">
        <ele>51.4619</ele>
        <time>2022-12-14T13:22:20.303Z</time>
      </trkpt>
      <trkpt lat="47.80814" lon="-2.35615">
        <ele>51.49578</ele>
        <time>2022-12-14T13:22:23.304Z</time>
      </trkpt>
      <trkpt lat="47.80816" lon="-2.35599">
        <ele>51.53435</ele>
        <time>2022-12-14T13:22:26.303Z</time>
      </trkpt>
      <trkpt lat="47.80817" lon="-2.35581">
        <ele>51.575955</ele>
        <time>2022-12-14T13:22:29.303Z</time>
      </trkpt>
      <trkpt lat="47.80819" lon="-2.35563">
        <ele>51.616467</ele>
        <time>2022-12-14T13:22:32.303Z</time>
      </trkpt>
      <trkpt lat="47.80821" lon="-2.35546">
        <ele>51.655428</ele>
        <time>2022-12-14T13:22:35.300Z</time>
      </trkpt>
      <trkpt lat="47.80822" lon="-2.35531">
        <ele>51.690418</ele>
        <time>2022-12-14T13:22:38.302Z</time>
      </trkpt>
      <trkpt lat="47.80822" lon="-2.35516">
        <ele>51.724673</ele>
        <time>2022-12-14T13:22:41.302Z</time>
      </trkpt>
      <trkpt lat="47.80821" lon="-2.355">
        <ele>51.762424</ele>
        <time>2022-12-14T13:22:44.306Z</time>
      </trkpt>
      <trkpt lat="47.80819" lon="-2.35482">
        <ele>51.803304</ele>
        <time>2022-12-14T13:22:47.302Z</time>
      </trkpt>
      <trkpt lat="47.80815" lon="-2.35464">
        <ele>51.845823</ele>
        <time>2022-12-14T13:22:50.300Z</time>
      </trkpt>
      <trkpt lat="47.80812" lon="-2.35448">
        <ele>51.884248</ele>
        <time>2022-12-14T13:22:53.329Z</time>
      </trkpt>
      <trkpt lat="47.80809" lon="-2.35434">
        <ele>51.918344</ele>
        <time>2022-12-14T13:22:56.302Z</time>
      </trkpt>
      <trkpt lat="47.80805" lon="-2.35419">
        <ele>51.9538</ele>
        <time>2022-12-14T13:22:59.303Z</time>
      </trkpt>
      <trkpt lat="47.80801" lon="-2.35403">
        <ele>51.992457</ele>
        <time>2022-12-14T13:23:02.304Z</time>
      </trkpt>
      <trkpt lat="47.80798" lon="-2.35388">
        <ele>52.007484</ele>
        <time>2022-12-14T13:23:05.305Z</time>
      </trkpt>
      <trkpt lat="47.80794" lon="-2.35371">
        <ele>52.017097</ele>
        <time>2022-12-14T13:23:08.304Z</time>
      </trkpt>
      <trkpt lat="47.8079" lon="-2.35353">
        <ele>52.026483</ele>
        <time>2022-12-14T13:23:11.309Z</time>
      </trkpt>
      <trkpt lat="47.80787" lon="-2.35334">
        <ele>52.036417</ele>
        <time>2022-12-14T13:23:14.344Z</time>
      </trkpt>
      <trkpt lat="47.80783" lon="-2.35317">
        <ele>52.046066</ele>
        <time>2022-12-14T13:23:17.304Z</time>
      </trkpt>
      <trkpt lat="47.8078" lon="-2.353">
        <ele>52.055233</ele>
        <time>2022-12-14T13:23:20.350Z</time>
      </trkpt>
      <trkpt lat="47.80776" lon="-2.35282">
        <ele>52.064446</ele>
        <time>2022-12-14T13:23:23.296Z</time>
      </trkpt>
      <trkpt lat="47.80772" lon="-2.35266">
        <ele>52.073632</ele>
        <time>2022-12-14T13:23:26.348Z</time>
      </trkpt>
      <trkpt lat="47.80769" lon="-2.35248">
        <ele>52.083025</ele>
        <time>2022-12-14T13:23:29.285Z</time>
      </trkpt>
      <trkpt lat="47.80765" lon="-2.3523">
        <ele>52.092555</ele>
        <time>2022-12-14T13:23:32.347Z</time>
      </trkpt>
      <trkpt lat="47.80762" lon="-2.35216">
        <ele>52.100499</ele>
        <time>2022-12-14T13:23:35.305Z</time>
      </trkpt>
      <trkpt lat="47.80759" lon="-2.35198">
        <ele>52.109703</ele>
        <time>2022-12-14T13:23:39.304Z</time>
      </trkpt>
      <trkpt lat="47.80756" lon="-2.35182">
        <ele>52.118144</ele>
        <time>2022-12-14T13:23:42.304Z</time>
      </trkpt>
      <trkpt lat="47.80752" lon="-2.35166">
        <ele>52.127407</ele>
        <time>2022-12-14T13:23:45.289Z</time>
      </trkpt>
      <trkpt lat="47.80748" lon="-2.35148">
        <ele>52.13662</ele>
        <time>2022-12-14T13:23:48.300Z</time>
      </trkpt>
      <trkpt lat="47.80745" lon="-2.3513">
        <ele>52.20402</ele>
        <time>2022-12-14T13:23:51.302Z</time>
      </trkpt>
      <trkpt lat="47.80741" lon="-2.35112">
        <ele>52.292199</ele>
        <time>2022-12-14T13:23:54.292Z</time>
      </trkpt>
      <trkpt lat="47.80737" lon="-2.35094">
        <ele>52.380176</ele>
        <time>2022-12-14T13:23:57.310Z</time>
      </trkpt>
      <trkpt lat="47.80734" lon="-2.35081">
        <ele>52.446185</ele>
        <time>2022-12-14T13:23:59.302Z</time>
      </trkpt>
      <trkpt lat="47.80731" lon="-2.35066">
        <ele>52.514465</ele>
        <time>2022-12-14T13:24:01.303Z</time>
      </trkpt>
      <trkpt lat="47.80728" lon="-2.35052">
        <ele>52.583984</ele>
        <time>2022-12-14T13:24:03.297Z</time>
      </trkpt>
      <trkpt lat="47.80725" lon="-2.35038">
        <ele>52.652479</ele>
        <time>2022-12-14T13:24:05.301Z</time>
      </trkpt>
      <trkpt lat="47.80722" lon="-2.35024">
        <ele>52.719451</ele>
        <time>2022-12-14T13:24:07.380Z</time>
      </trkpt>
      <trkpt lat="47.80718" lon="-2.35006">
        <ele>52.808925</ele>
        <time>2022-12-14T13:24:10.301Z</time>
      </trkpt>
      <trkpt lat="47.80714" lon="-2.34987">
        <ele>52.902421</ele>
        <time>2022-12-14T13:24:13.353Z</time>
      </trkpt>
      <trkpt lat="47.80712" lon="-2.34973">
        <ele>52.965621</ele>
        <time>2022-12-14T13:24:15.298Z</time>
      </trkpt>
      <trkpt lat="47.80707" lon="-2.34955">
        <ele>53.056891</ele>
        <time>2022-12-14T13:24:18.309Z</time>
      </trkpt>
      <trkpt lat="47.80703" lon="-2.34938">
        <ele>53.139973</ele>
        <time>2022-12-14T13:24:21.309Z</time>
      </trkpt>
      <trkpt lat="47.80698" lon="-2.34921">
        <ele>53.225294</ele>
        <time>2022-12-14T13:24:24.325Z</time>
      </trkpt>
      <trkpt lat="47.80695" lon="-2.34908">
        <ele>53.291966</ele>
        <time>2022-12-14T13:24:27.303Z</time>
      </trkpt>
      <trkpt lat="47.80691" lon="-2.34893">
        <ele>53.365019</ele>
        <time>2022-12-14T13:24:30.350Z</time>
      </trkpt>
      <trkpt lat="47.80687" lon="-2.34877">
        <ele>53.368139</ele>
        <time>2022-12-14T13:24:33.300Z</time>
      </trkpt>
      <trkpt lat="47.80683" lon="-2.34861">
        <ele>53.356011</ele>
        <time>2022-12-14T13:24:36.346Z</time>
      </trkpt>
      <trkpt lat="47.80679" lon="-2.34843">
        <ele>53.343312</ele>
        <time>2022-12-14T13:24:39.309Z</time>
      </trkpt>
      <trkpt lat="47.80675" lon="-2.34825">
        <ele>53.330216</ele>
        <time>2022-12-14T13:24:42.350Z</time>
      </trkpt>
      <trkpt lat="47.80672" lon="-2.34807">
        <ele>53.316904</ele>
        <time>2022-12-14T13:24:45.306Z</time>
      </trkpt>
      <trkpt lat="47.80669" lon="-2.34789">
        <ele>53.304418</ele>
        <time>2022-12-14T13:24:48.356Z</time>
      </trkpt>
      <trkpt lat="47.80667" lon="-2.34772">
        <ele>53.292272</ele>
        <time>2022-12-14T13:24:51.304Z</time>
      </trkpt>
      <trkpt lat="47.80664" lon="-2.34755">
        <ele>53.279964</ele>
        <time>2022-12-14T13:24:54.303Z</time>
      </trkpt>
      <trkpt lat="47.80661" lon="-2.34736">
        <ele>53.266778</ele>
        <time>2022-12-14T13:24:57.304Z</time>
      </trkpt>
      <trkpt lat="47.80659" lon="-2.34717">
        <ele>53.25321</ele>
        <time>2022-12-14T13:25:00.302Z</time>
      </trkpt>
      <trkpt lat="47.80656" lon="-2.34698">
        <ele>53.239777</ele>
        <time>2022-12-14T13:25:03.291Z</time>
      </trkpt>
      <trkpt lat="47.80654" lon="-2.34685">
        <ele>53.230312</ele>
        <time>2022-12-14T13:25:05.352Z</time>
      </trkpt>
      <trkpt lat="47.80651" lon="-2.34666">
        <ele>53.21665</ele>
        <time>2022-12-14T13:25:08.307Z</time>
      </trkpt>
      <trkpt lat="47.80648" lon="-2.34647">
        <ele>53.203397</ele>
        <time>2022-12-14T13:25:11.348Z</time>
      </trkpt>
      <trkpt lat="47.80645" lon="-2.34631">
        <ele>53.192149</ele>
        <time>2022-12-14T13:25:14.291Z</time>
      </trkpt>
      <trkpt lat="47.80642" lon="-2.34615">
        <ele>53.14162</ele>
        <time>2022-12-14T13:25:17.357Z</time>
      </trkpt>
      <trkpt lat="47.80639" lon="-2.34597">
        <ele>53.088468</ele>
        <time>2022-12-14T13:25:20.305Z</time>
      </trkpt>
      <trkpt lat="47.80635" lon="-2.34579">
        <ele>53.03232</ele>
        <time>2022-12-14T13:25:23.345Z</time>
      </trkpt>
      <trkpt lat="47.80631" lon="-2.34564">
        <ele>52.986669</ele>
        <time>2022-12-14T13:25:25.300Z</time>
      </trkpt>
      <trkpt lat="47.80628" lon="-2.34551">
        <ele>52.945574</ele>
        <time>2022-12-14T13:25:27.307Z</time>
      </trkpt>
      <trkpt lat="47.80624" lon="-2.34538">
        <ele>52.904916</ele>
        <time>2022-12-14T13:25:29.352Z</time>
      </trkpt>
      <trkpt lat="47.80621" lon="-2.34523">
        <ele>52.858719</ele>
        <time>2022-12-14T13:25:32.297Z</time>
      </trkpt>
      <trkpt lat="47.80618" lon="-2.34506">
        <ele>52.807323</ele>
        <time>2022-12-14T13:25:35.350Z</time>
      </trkpt>
      <trkpt lat="47.80615" lon="-2.34487">
        <ele>52.74962</ele>
        <time>2022-12-14T13:25:38.304Z</time>
      </trkpt>
      <trkpt lat="47.80611" lon="-2.34468">
        <ele>52.692419</ele>
        <time>2022-12-14T13:25:41.355Z</time>
      </trkpt>
      <trkpt lat="47.80608" lon="-2.34454">
        <ele>52.649673</ele>
        <time>2022-12-14T13:25:43.322Z</time>
      </trkpt>
      <trkpt lat="47.80605" lon="-2.3444">
        <ele>52.606512</ele>
        <time>2022-12-14T13:25:45.310Z</time>
      </trkpt>
      <trkpt lat="47.80602" lon="-2.34425">
        <ele>52.562091</ele>
        <time>2022-12-14T13:25:47.352Z</time>
      </trkpt>
      <trkpt lat="47.806" lon="-2.34412">
        <ele>52.521185</ele>
        <time>2022-12-14T13:25:49.288Z</time>
      </trkpt>
      <trkpt lat="47.80596" lon="-2.34395">
        <ele>52.468845</ele>
        <time>2022-12-14T13:25:52.310Z</time>
      </trkpt>
      <trkpt lat="47.80591" lon="-2.34384">
        <ele>52.429793</ele>
        <time>2022-12-14T13:25:54.306Z</time>
      </trkpt>
      <trkpt lat="47.80586" lon="-2.34369">
        <ele>52.391263</ele>
        <time>2022-12-14T13:25:57.305Z</time>
      </trkpt>
      <trkpt lat="47.80579" lon="-2.34354">
        <ele>52.358224</ele>
        <time>2022-12-14T13:26:00.305Z</time>
      </trkpt>
      <trkpt lat="47.80572" lon="-2.3434">
        <ele>52.326695</ele>
        <time>2022-12-14T13:26:03.317Z</time>
      </trkpt>
      <trkpt lat="47.80565" lon="-2.34323">
        <ele>52.29137</ele>
        <time>2022-12-14T13:26:06.303Z</time>
      </trkpt>
      <trkpt lat="47.8056" lon="-2.34311">
        <ele>52.265279</ele>
        <time>2022-12-14T13:26:08.314Z</time>
      </trkpt>
      <trkpt lat="47.80556" lon="-2.34299">
        <ele>52.240214</ele>
        <time>2022-12-14T13:26:10.354Z</time>
      </trkpt>
      <trkpt lat="47.8055" lon="-2.34281">
        <ele>52.203851</ele>
        <time>2022-12-14T13:26:13.283Z</time>
      </trkpt>
      <trkpt lat="47.80545" lon="-2.34263">
        <ele>52.168357</ele>
        <time>2022-12-14T13:26:16.306Z</time>
      </trkpt>
      <trkpt lat="47.80541" lon="-2.34248">
        <ele>52.136986</ele>
        <time>2022-12-14T13:26:19.312Z</time>
      </trkpt>
      <trkpt lat="47.80536" lon="-2.34235">
        <ele>52.111005</ele>
        <time>2022-12-14T13:26:21.352Z</time>
      </trkpt>
      <trkpt lat="47.80532" lon="-2.34223">
        <ele>52.085206</ele>
        <time>2022-12-14T13:26:23.288Z</time>
      </trkpt>
      <trkpt lat="47.80528" lon="-2.3421">
        <ele>52.059857</ele>
        <time>2022-12-14T13:26:25.312Z</time>
      </trkpt>
      <trkpt lat="47.80522" lon="-2.34193">
        <ele>52.023695</ele>
        <time>2022-12-14T13:26:28.290Z</time>
      </trkpt>
      <trkpt lat="47.80516" lon="-2.34176">
        <ele>51.989416</ele>
        <time>2022-12-14T13:26:31.306Z</time>
      </trkpt>
      <trkpt lat="47.80512" lon="-2.3416">
        <ele>51.958336</ele>
        <time>2022-12-14T13:26:34.293Z</time>
      </trkpt>
      <trkpt lat="47.80507" lon="-2.34145">
        <ele>51.926752</ele>
        <time>2022-12-14T13:26:37.304Z</time>
      </trkpt>
      <trkpt lat="47.80501" lon="-2.34127">
        <ele>51.901437</ele>
        <time>2022-12-14T13:26:40.303Z</time>
      </trkpt>
      <trkpt lat="47.80495" lon="-2.3411">
        <ele>51.879206</ele>
        <time>2022-12-14T13:26:43.300Z</time>
      </trkpt>
      <trkpt lat="47.8049" lon="-2.34094">
        <ele>51.858599</ele>
        <time>2022-12-14T13:26:46.305Z</time>
      </trkpt>
      <trkpt lat="47.80485" lon="-2.34081">
        <ele>51.840927</ele>
        <time>2022-12-14T13:26:49.304Z</time>
      </trkpt>
      <trkpt lat="47.8048" lon="-2.34068">
        <ele>51.822215</ele>
        <time>2022-12-14T13:26:52.297Z</time>
      </trkpt>
      <trkpt lat="47.80473" lon="-2.34055">
        <ele>51.803167</ele>
        <time>2022-12-14T13:26:55.349Z</time>
      </trkpt>
      <trkpt lat="47.80467" lon="-2.34042">
        <ele>51.784845</ele>
        <time>2022-12-14T13:26:58.312Z</time>
      </trkpt>
      <trkpt lat="47.8046" lon="-2.34029">
        <ele>51.765623</ele>
        <time>2022-12-14T13:27:01.304Z</time>
      </trkpt>
      <trkpt lat="47.80453" lon="-2.34015">
        <ele>51.745438</ele>
        <time>2022-12-14T13:27:04.308Z</time>
      </trkpt>
      <trkpt lat="47.80445" lon="-2.34">
        <ele>51.722586</ele>
        <time>2022-12-14T13:27:07.293Z</time>
      </trkpt>
      <trkpt lat="47.8044" lon="-2.33989">
        <ele>51.706384</ele>
        <time>2022-12-14T13:27:09.305Z</time>
      </trkpt>
      <trkpt lat="47.80434" lon="-2.33978">
        <ele>51.69058</ele>
        <time>2022-12-14T13:27:11.306Z</time>
      </trkpt>
      <trkpt lat="47.80427" lon="-2.33962">
        <ele>51.667582</ele>
        <time>2022-12-14T13:27:14.304Z</time>
      </trkpt>
      <trkpt lat="47.80421" lon="-2.33948">
        <ele>51.647308</ele>
        <time>2022-12-14T13:27:17.318Z</time>
      </trkpt>
      <trkpt lat="47.80414" lon="-2.33935">
        <ele>51.629058</ele>
        <time>2022-12-14T13:27:20.314Z</time>
      </trkpt>
      <trkpt lat="47.80407" lon="-2.33922">
        <ele>51.608852</ele>
        <time>2022-12-14T13:27:23.319Z</time>
      </trkpt>
      <trkpt lat="47.804" lon="-2.33905">
        <ele>51.657152</ele>
        <time>2022-12-14T13:27:26.306Z</time>
      </trkpt>
      <trkpt lat="47.80392" lon="-2.33889">
        <ele>51.717855</ele>
        <time>2022-12-14T13:27:29.292Z</time>
      </trkpt>
      <trkpt lat="47.80387" lon="-2.33877">
        <ele>51.76236</ele>
        <time>2022-12-14T13:27:31.301Z</time>
      </trkpt>
      <trkpt lat="47.80382" lon="-2.33865">
        <ele>51.806639</ele>
        <time>2022-12-14T13:27:33.302Z</time>
      </trkpt>
      <trkpt lat="47.80376" lon="-2.33847">
        <ele>51.869191</ele>
        <time>2022-12-14T13:27:36.320Z</time>
      </trkpt>
      <trkpt lat="47.80368" lon="-2.3383">
        <ele>51.932997</ele>
        <time>2022-12-14T13:27:39.307Z</time>
      </trkpt>
      <trkpt lat="47.80362" lon="-2.33814">
        <ele>51.988388</ele>
        <time>2022-12-14T13:27:42.306Z</time>
      </trkpt>
      <trkpt lat="47.80357" lon="-2.338">
        <ele>52.039906</ele>
        <time>2022-12-14T13:27:45.366Z</time>
      </trkpt>
      <trkpt lat="47.80351" lon="-2.33786">
        <ele>52.088853</ele>
        <time>2022-12-14T13:27:48.304Z</time>
      </trkpt>
      <trkpt lat="47.80346" lon="-2.33771">
        <ele>52.142464</ele>
        <time>2022-12-14T13:27:51.353Z</time>
      </trkpt>
      <trkpt lat="47.8034" lon="-2.33755">
        <ele>52.198743</ele>
        <time>2022-12-14T13:27:54.302Z</time>
      </trkpt>
      <trkpt lat="47.80334" lon="-2.33738">
        <ele>52.258029</ele>
        <time>2022-12-14T13:27:57.348Z</time>
      </trkpt>
      <trkpt lat="47.80328" lon="-2.3372">
        <ele>52.320051</ele>
        <time>2022-12-14T13:28:00.303Z</time>
      </trkpt>
      <trkpt lat="47.80323" lon="-2.33702">
        <ele>52.380375</ele>
        <time>2022-12-14T13:28:03.354Z</time>
      </trkpt>
      <trkpt lat="47.80318" lon="-2.33685">
        <ele>52.432493</ele>
        <time>2022-12-14T13:28:06.316Z</time>
      </trkpt>
      <trkpt lat="47.80314" lon="-2.33668">
        <ele>52.398998</ele>
        <time>2022-12-14T13:28:09.289Z</time>
      </trkpt>
      <trkpt lat="47.8031" lon="-2.33651">
        <ele>52.364822</ele>
        <time>2022-12-14T13:28:12.303Z</time>
      </trkpt>
      <trkpt lat="47.80307" lon="-2.33634">
        <ele>52.331507</ele>
        <time>2022-12-14T13:28:15.295Z</time>
      </trkpt>
      <trkpt lat="47.80303" lon="-2.33615">
        <ele>52.295543</ele>
        <time>2022-12-14T13:28:18.302Z</time>
      </trkpt>
      <trkpt lat="47.803" lon="-2.33598">
        <ele>52.262486</ele>
        <time>2022-12-14T13:28:21.314Z</time>
      </trkpt>
      <trkpt lat="47.80298" lon="-2.33583">
        <ele>52.23199</ele>
        <time>2022-12-14T13:28:24.311Z</time>
      </trkpt>
      <trkpt lat="47.80295" lon="-2.33567">
        <ele>52.201226</ele>
        <time>2022-12-14T13:28:27.305Z</time>
      </trkpt>
      <trkpt lat="47.80292" lon="-2.3355">
        <ele>52.169437</ele>
        <time>2022-12-14T13:28:30.293Z</time>
      </trkpt>
      <trkpt lat="47.80289" lon="-2.33532">
        <ele>52.134589</ele>
        <time>2022-12-14T13:28:33.287Z</time>
      </trkpt>
      <trkpt lat="47.80288" lon="-2.33513">
        <ele>52.098238</ele>
        <time>2022-12-14T13:28:36.308Z</time>
      </trkpt>
      <trkpt lat="47.80286" lon="-2.33495">
        <ele>52.063718</ele>
        <time>2022-12-14T13:28:39.298Z</time>
      </trkpt>
      <trkpt lat="47.80286" lon="-2.33477">
        <ele>52.028701</ele>
        <time>2022-12-14T13:28:42.304Z</time>
      </trkpt>
      <trkpt lat="47.80288" lon="-2.33458">
        <ele>51.994331</ele>
        <time>2022-12-14T13:28:45.285Z</time>
      </trkpt>
      <trkpt lat="47.8029" lon="-2.3344">
        <ele>51.95924</ele>
        <time>2022-12-14T13:28:48.305Z</time>
      </trkpt>
      <trkpt lat="47.80293" lon="-2.33422">
        <ele>51.925367</ele>
        <time>2022-12-14T13:28:51.307Z</time>
      </trkpt>
      <trkpt lat="47.80297" lon="-2.33404">
        <ele>51.896152</ele>
        <time>2022-12-14T13:28:54.303Z</time>
      </trkpt>
      <trkpt lat="47.80302" lon="-2.33387">
        <ele>51.868008</ele>
        <time>2022-12-14T13:28:57.309Z</time>
      </trkpt>
      <trkpt lat="47.80306" lon="-2.3337">
        <ele>51.841875</ele>
        <time>2022-12-14T13:29:00.288Z</time>
      </trkpt>
      <trkpt lat="47.80309" lon="-2.33355">
        <ele>51.818027</ele>
        <time>2022-12-14T13:29:03.293Z</time>
      </trkpt>
      <trkpt lat="47.80313" lon="-2.3334">
        <ele>51.793822</ele>
        <time>2022-12-14T13:29:06.288Z</time>
      </trkpt>
      <trkpt lat="47.80316" lon="-2.33325">
        <ele>51.770515</ele>
        <time>2022-12-14T13:29:09.304Z</time>
      </trkpt>
      <trkpt lat="47.80318" lon="-2.33308">
        <ele>51.744813</ele>
        <time>2022-12-14T13:29:12.315Z</time>
      </trkpt>
      <trkpt lat="47.80319" lon="-2.33291">
        <ele>51.719134</ele>
        <time>2022-12-14T13:29:15.288Z</time>
      </trkpt>
      <trkpt lat="47.8032" lon="-2.33273">
        <ele>51.691986</ele>
        <time>2022-12-14T13:29:18.350Z</time>
      </trkpt>
      <trkpt lat="47.80319" lon="-2.33255">
        <ele>51.665149</ele>
        <time>2022-12-14T13:29:21.303Z</time>
      </trkpt>
      <trkpt lat="47.80317" lon="-2.33237">
        <ele>51.636279</ele>
        <time>2022-12-14T13:29:24.357Z</time>
      </trkpt>
      <trkpt lat="47.80314" lon="-2.33217">
        <ele>51.60667</ele>
        <time>2022-12-14T13:29:27.303Z</time>
      </trkpt>
      <trkpt lat="47.80312" lon="-2.33199">
        <ele>51.578051</ele>
        <time>2022-12-14T13:29:30.377Z</time>
      </trkpt>
      <trkpt lat="47.80308" lon="-2.33181">
        <ele>51.550609</ele>
        <time>2022-12-14T13:29:33.303Z</time>
      </trkpt>
      <trkpt lat="47.80304" lon="-2.33166">
        <ele>51.521111</ele>
        <time>2022-12-14T13:29:36.347Z</time>
      </trkpt>
      <trkpt lat="47.80297" lon="-2.33153">
        <ele>51.439552</ele>
        <time>2022-12-14T13:29:39.306Z</time>
      </trkpt>
      <trkpt lat="47.8029" lon="-2.33139">
        <ele>51.351942</ele>
        <time>2022-12-14T13:29:42.312Z</time>
      </trkpt>
      <trkpt lat="47.80283" lon="-2.33124">
        <ele>51.260354</ele>
        <time>2022-12-14T13:29:45.308Z</time>
      </trkpt>
      <trkpt lat="47.80274" lon="-2.33113">
        <ele>51.172572</ele>
        <time>2022-12-14T13:29:48.293Z</time>
      </trkpt>
      <trkpt lat="47.80264" lon="-2.33102">
        <ele>51.079957</ele>
        <time>2022-12-14T13:29:51.309Z</time>
      </trkpt>
      <trkpt lat="47.80252" lon="-2.33094">
        <ele>50.987084</ele>
        <time>2022-12-14T13:29:54.289Z</time>
      </trkpt>
      <trkpt lat="47.80242" lon="-2.33086">
        <ele>50.895908</ele>
        <time>2022-12-14T13:29:57.306Z</time>
      </trkpt>
      <trkpt lat="47.80231" lon="-2.33077">
        <ele>50.803035</ele>
        <time>2022-12-14T13:30:00.305Z</time>
      </trkpt>
      <trkpt lat="47.8022" lon="-2.33067">
        <ele>50.70897</ele>
        <time>2022-12-14T13:30:03.299Z</time>
      </trkpt>
      <trkpt lat="47.8021" lon="-2.33055">
        <ele>50.615539</ele>
        <time>2022-12-14T13:30:06.307Z</time>
      </trkpt>
      <trkpt lat="47.80201" lon="-2.33043">
        <ele>50.523934</ele>
        <time>2022-12-14T13:30:09.302Z</time>
      </trkpt>
      <trkpt lat="47.80192" lon="-2.33028">
        <ele>50.425607</ele>
        <time>2022-12-14T13:30:12.310Z</time>
      </trkpt>
      <trkpt lat="47.80184" lon="-2.33014">
        <ele>50.32805</ele>
        <time>2022-12-14T13:30:15.309Z</time>
      </trkpt>
      <trkpt lat="47.80175" lon="-2.33001">
        <ele>50.235752</ele>
        <time>2022-12-14T13:30:18.309Z</time>
      </trkpt>
      <trkpt lat="47.80167" lon="-2.32988">
        <ele>50.125841</ele>
        <time>2022-12-14T13:30:21.306Z</time>
      </trkpt>
      <trkpt lat="47.80159" lon="-2.32974">
        <ele>49.990036</ele>
        <time>2022-12-14T13:30:24.305Z</time>
      </trkpt>
      <trkpt lat="47.80151" lon="-2.32959">
        <ele>49.850202</ele>
        <time>2022-12-14T13:30:27.307Z</time>
      </trkpt>
      <trkpt lat="47.80144" lon="-2.32942">
        <ele>49.698625</ele>
        <time>2022-12-14T13:30:30.306Z</time>
      </trkpt>
      <trkpt lat="47.80138" lon="-2.32931">
        <ele>49.595495</ele>
        <time>2022-12-14T13:30:32.315Z</time>
      </trkpt>
      <trkpt lat="47.80128" lon="-2.32919">
        <ele>49.446543</ele>
        <time>2022-12-14T13:30:35.305Z</time>
      </trkpt>
      <trkpt lat="47.80119" lon="-2.32912">
        <ele>49.339692</ele>
        <time>2022-12-14T13:30:37.304Z</time>
      </trkpt>
      <trkpt lat="47.80108" lon="-2.32904">
        <ele>49.199958</ele>
        <time>2022-12-14T13:30:40.379Z</time>
      </trkpt>
      <trkpt lat="47.80099" lon="-2.32899">
        <ele>49.098167</ele>
        <time>2022-12-14T13:30:42.303Z</time>
      </trkpt>
      <trkpt lat="47.80091" lon="-2.32894">
        <ele>48.994831</ele>
        <time>2022-12-14T13:30:44.303Z</time>
      </trkpt>
      <trkpt lat="47.80082" lon="-2.3289">
        <ele>48.89355</ele>
        <time>2022-12-14T13:30:46.349Z</time>
      </trkpt>
      <trkpt lat="47.80073" lon="-2.32886">
        <ele>48.786713</ele>
        <time>2022-12-14T13:30:48.296Z</time>
      </trkpt>
      <trkpt lat="47.8006" lon="-2.3288">
        <ele>48.634792</ele>
        <time>2022-12-14T13:30:51.307Z</time>
      </trkpt>
      <trkpt lat="47.80051" lon="-2.32875">
        <ele>48.531713</ele>
        <time>2022-12-14T13:30:53.290Z</time>
      </trkpt>
      <trkpt lat="47.80043" lon="-2.3287">
        <ele>48.429681</ele>
        <time>2022-12-14T13:30:55.310Z</time>
      </trkpt>
      <trkpt lat="47.80034" lon="-2.32864">
        <ele>48.326866</ele>
        <time>2022-12-14T13:30:57.308Z</time>
      </trkpt>
      <trkpt lat="47.80023" lon="-2.32856">
        <ele>48.183715</ele>
        <time>2022-12-14T13:31:00.298Z</time>
      </trkpt>
      <trkpt lat="47.8001" lon="-2.32847">
        <ele>48.296211</ele>
        <time>2022-12-14T13:31:03.321Z</time>
      </trkpt>
      <trkpt lat="47.80002" lon="-2.32841">
        <ele>48.372611</ele>
        <time>2022-12-14T13:31:05.308Z</time>
      </trkpt>
      <trkpt lat="47.79994" lon="-2.32832">
        <ele>48.456711</ele>
        <time>2022-12-14T13:31:07.310Z</time>
      </trkpt>
      <trkpt lat="47.79981" lon="-2.32823">
        <ele>48.570715</ele>
        <time>2022-12-14T13:31:10.321Z</time>
      </trkpt>
      <trkpt lat="47.7997" lon="-2.32813">
        <ele>48.682983</ele>
        <time>2022-12-14T13:31:13.315Z</time>
      </trkpt>
      <trkpt lat="47.79961" lon="-2.32807">
        <ele>48.760371</ele>
        <time>2022-12-14T13:31:15.296Z</time>
      </trkpt>
      <trkpt lat="47.79953" lon="-2.328">
        <ele>48.837015</ele>
        <time>2022-12-14T13:31:17.315Z</time>
      </trkpt>
      <trkpt lat="47.79941" lon="-2.32792">
        <ele>48.947625</ele>
        <time>2022-12-14T13:31:20.354Z</time>
      </trkpt>
      <trkpt lat="47.79929" lon="-2.32786">
        <ele>49.051424</ele>
        <time>2022-12-14T13:31:23.305Z</time>
      </trkpt>
      <trkpt lat="47.79917" lon="-2.32779">
        <ele>49.159687</ele>
        <time>2022-12-14T13:31:26.367Z</time>
      </trkpt>
      <trkpt lat="47.79903" lon="-2.32774">
        <ele>49.275549</ele>
        <time>2022-12-14T13:31:29.307Z</time>
      </trkpt>
      <trkpt lat="47.79894" lon="-2.32771">
        <ele>49.356344</ele>
        <time>2022-12-14T13:31:31.309Z</time>
      </trkpt>
      <trkpt lat="47.79884" lon="-2.3277">
        <ele>49.436818</ele>
        <time>2022-12-14T13:31:33.296Z</time>
      </trkpt>
      <trkpt lat="47.79875" lon="-2.32769">
        <ele>49.513339</ele>
        <time>2022-12-14T13:31:35.306Z</time>
      </trkpt>
      <trkpt lat="47.79862" lon="-2.32769">
        <ele>49.62264</ele>
        <time>2022-12-14T13:31:38.361Z</time>
      </trkpt>
      <trkpt lat="47.7985" lon="-2.32769">
        <ele>49.651018</ele>
        <time>2022-12-14T13:31:41.304Z</time>
      </trkpt>
      <trkpt lat="47.79837" lon="-2.32768">
        <ele>49.603335</ele>
        <time>2022-12-14T13:31:44.323Z</time>
      </trkpt>
      <trkpt lat="47.79827" lon="-2.32768">
        <ele>49.570361</ele>
        <time>2022-12-14T13:31:46.304Z</time>
      </trkpt>
      <trkpt lat="47.79818" lon="-2.32768">
        <ele>49.535953</ele>
        <time>2022-12-14T13:31:48.303Z</time>
      </trkpt>
      <trkpt lat="47.79809" lon="-2.32767">
        <ele>49.503139</ele>
        <time>2022-12-14T13:31:50.367Z</time>
      </trkpt>
      <trkpt lat="47.79799" lon="-2.32763">
        <ele>49.468176</ele>
        <time>2022-12-14T13:31:52.316Z</time>
      </trkpt>
      <trkpt lat="47.79791" lon="-2.32759">
        <ele>49.435678</ele>
        <time>2022-12-14T13:31:54.299Z</time>
      </trkpt>
      <trkpt lat="47.79782" lon="-2.32753">
        <ele>49.402713</ele>
        <time>2022-12-14T13:31:56.347Z</time>
      </trkpt>
      <trkpt lat="47.79772" lon="-2.32741">
        <ele>49.355694</ele>
        <time>2022-12-14T13:31:59.312Z</time>
      </trkpt>
      <trkpt lat="47.79762" lon="-2.3273">
        <ele>49.312692</ele>
        <time>2022-12-14T13:32:02.360Z</time>
      </trkpt>
      <trkpt lat="47.79753" lon="-2.3272">
        <ele>49.27057</ele>
        <time>2022-12-14T13:32:05.304Z</time>
      </trkpt>
      <trkpt lat="47.79744" lon="-2.32708">
        <ele>49.228488</ele>
        <time>2022-12-14T13:32:08.368Z</time>
      </trkpt>
      <trkpt lat="47.79735" lon="-2.32695">
        <ele>49.183794</ele>
        <time>2022-12-14T13:32:11.304Z</time>
      </trkpt>
      <trkpt lat="47.7973" lon="-2.32683">
        <ele>49.149555</ele>
        <time>2022-12-14T13:32:13.297Z</time>
      </trkpt>
      <trkpt lat="47.7972" lon="-2.32668">
        <ele>49.100653</ele>
        <time>2022-12-14T13:32:16.303Z</time>
      </trkpt>
      <trkpt lat="47.79714" lon="-2.32658">
        <ele>49.067175</ele>
        <time>2022-12-14T13:32:18.306Z</time>
      </trkpt>
      <trkpt lat="47.79706" lon="-2.32645">
        <ele>49.037672</ele>
        <time>2022-12-14T13:32:21.289Z</time>
      </trkpt>
      <trkpt lat="47.79697" lon="-2.32633">
        <ele>49.191593</ele>
        <time>2022-12-14T13:32:24.302Z</time>
      </trkpt>
      <trkpt lat="47.79689" lon="-2.32625">
        <ele>49.322041</ele>
        <time>2022-12-14T13:32:27.305Z</time>
      </trkpt>
      <trkpt lat="47.79679" lon="-2.32616">
        <ele>49.467683</ele>
        <time>2022-12-14T13:32:30.310Z</time>
      </trkpt>
      <trkpt lat="47.79667" lon="-2.32611">
        <ele>49.632307</ele>
        <time>2022-12-14T13:32:33.288Z</time>
      </trkpt>
      <trkpt lat="47.79657" lon="-2.32609">
        <ele>49.761055</ele>
        <time>2022-12-14T13:32:35.289Z</time>
      </trkpt>
      <trkpt lat="47.79647" lon="-2.32607">
        <ele>49.883934</ele>
        <time>2022-12-14T13:32:37.308Z</time>
      </trkpt>
      <trkpt lat="47.79634" lon="-2.32603">
        <ele>50.05359</ele>
        <time>2022-12-14T13:32:40.307Z</time>
      </trkpt>
      <trkpt lat="47.79625" lon="-2.32599">
        <ele>50.172758</ele>
        <time>2022-12-14T13:32:42.303Z</time>
      </trkpt>
      <trkpt lat="47.79616" lon="-2.32596">
        <ele>50.293482</ele>
        <time>2022-12-14T13:32:44.374Z</time>
      </trkpt>
      <trkpt lat="47.79604" lon="-2.32595">
        <ele>50.455138</ele>
        <time>2022-12-14T13:32:47.313Z</time>
      </trkpt>
      <trkpt lat="47.79592" lon="-2.32596">
        <ele>50.606513</ele>
        <time>2022-12-14T13:32:50.353Z</time>
      </trkpt>
      <trkpt lat="47.79582" lon="-2.32597">
        <ele>50.725875</ele>
        <time>2022-12-14T13:32:52.306Z</time>
      </trkpt>
      <trkpt lat="47.79573" lon="-2.32598">
        <ele>50.843142</ele>
        <time>2022-12-14T13:32:54.305Z</time>
      </trkpt>
      <trkpt lat="47.79561" lon="-2.32602">
        <ele>51.006851</ele>
        <time>2022-12-14T13:32:57.308Z</time>
      </trkpt>
      <trkpt lat="47.79548" lon="-2.32607">
        <ele>51.176635</ele>
        <time>2022-12-14T13:33:00.318Z</time>
      </trkpt>
      <trkpt lat="47.79537" lon="-2.32613">
        <ele>51.325012</ele>
        <time>2022-12-14T13:33:03.292Z</time>
      </trkpt>
      <trkpt lat="47.79527" lon="-2.32619">
        <ele>51.496412</ele>
        <time>2022-12-14T13:33:06.307Z</time>
      </trkpt>
      <trkpt lat="47.79517" lon="-2.32625">
        <ele>51.672867</ele>
        <time>2022-12-14T13:33:09.318Z</time>
      </trkpt>
      <trkpt lat="47.79507" lon="-2.32632">
        <ele>51.863829</ele>
        <time>2022-12-14T13:33:12.308Z</time>
      </trkpt>
      <trkpt lat="47.79495" lon="-2.32641">
        <ele>52.069805</ele>
        <time>2022-12-14T13:33:15.316Z</time>
      </trkpt>
      <trkpt lat="47.79484" lon="-2.32651">
        <ele>52.277217</ele>
        <time>2022-12-14T13:33:18.306Z</time>
      </trkpt>
      <trkpt lat="47.79475" lon="-2.32662">
        <ele>52.475151</ele>
        <time>2022-12-14T13:33:21.315Z</time>
      </trkpt>
      <trkpt lat="47.79464" lon="-2.32673">
        <ele>52.684878</ele>
        <time>2022-12-14T13:33:24.305Z</time>
      </trkpt>
      <trkpt lat="47.79453" lon="-2.32682">
        <ele>52.898003</ele>
        <time>2022-12-14T13:33:27.309Z</time>
      </trkpt>
      <trkpt lat="47.79441" lon="-2.32691">
        <ele>53.102637</ele>
        <time>2022-12-14T13:33:30.299Z</time>
      </trkpt>
      <trkpt lat="47.7943" lon="-2.327">
        <ele>53.31301</ele>
        <time>2022-12-14T13:33:33.290Z</time>
      </trkpt>
      <trkpt lat="47.79419" lon="-2.32708">
        <ele>53.514138</ele>
        <time>2022-12-14T13:33:36.304Z</time>
      </trkpt>
      <trkpt lat="47.7941" lon="-2.32714">
        <ele>53.663082</ele>
        <time>2022-12-14T13:33:38.352Z</time>
      </trkpt>
      <trkpt lat="47.79402" lon="-2.3272">
        <ele>53.822049</ele>
        <time>2022-12-14T13:33:40.305Z</time>
      </trkpt>
      <trkpt lat="47.79393" lon="-2.32726">
        <ele>53.973123</ele>
        <time>2022-12-14T13:33:42.305Z</time>
      </trkpt>
      <trkpt lat="47.79381" lon="-2.32732">
        <ele>54.175473</ele>
        <time>2022-12-14T13:33:45.313Z</time>
      </trkpt>
      <trkpt lat="47.7937" lon="-2.32738">
        <ele>54.040653</ele>
        <time>2022-12-14T13:33:48.306Z</time>
      </trkpt>
      <trkpt lat="47.79358" lon="-2.32743">
        <ele>53.664634</ele>
        <time>2022-12-14T13:33:51.314Z</time>
      </trkpt>
      <trkpt lat="47.79346" lon="-2.32747">
        <ele>53.304218</ele>
        <time>2022-12-14T13:33:54.307Z</time>
      </trkpt>
      <trkpt lat="47.79334" lon="-2.32751">
        <ele>52.966335</ele>
        <time>2022-12-14T13:33:57.309Z</time>
      </trkpt>
      <trkpt lat="47.79321" lon="-2.32754">
        <ele>52.578626</ele>
        <time>2022-12-14T13:34:00.310Z</time>
      </trkpt>
      <trkpt lat="47.79308" lon="-2.32754">
        <ele>52.200944</ele>
        <time>2022-12-14T13:34:03.303Z</time>
      </trkpt>
      <trkpt lat="47.79296" lon="-2.32752">
        <ele>51.820838</ele>
        <time>2022-12-14T13:34:06.313Z</time>
      </trkpt>
      <trkpt lat="47.79284" lon="-2.32747">
        <ele>51.462213</ele>
        <time>2022-12-14T13:34:09.308Z</time>
      </trkpt>
      <trkpt lat="47.79272" lon="-2.32741">
        <ele>51.09181</ele>
        <time>2022-12-14T13:34:12.307Z</time>
      </trkpt>
      <trkpt lat="47.7926" lon="-2.32735">
        <ele>50.728029</ele>
        <time>2022-12-14T13:34:15.304Z</time>
      </trkpt>
      <trkpt lat="47.79248" lon="-2.32728">
        <ele>50.355579</ele>
        <time>2022-12-14T13:34:18.303Z</time>
      </trkpt>
      <trkpt lat="47.79237" lon="-2.32721">
        <ele>50.003805</ele>
        <time>2022-12-14T13:34:21.307Z</time>
      </trkpt>
      <trkpt lat="47.79228" lon="-2.32713">
        <ele>49.683307</ele>
        <time>2022-12-14T13:34:24.308Z</time>
      </trkpt>
      <trkpt lat="47.79218" lon="-2.32704">
        <ele>49.358308</ele>
        <time>2022-12-14T13:34:27.306Z</time>
      </trkpt>
      <trkpt lat="47.79208" lon="-2.32696">
        <ele>49.023737</ele>
        <time>2022-12-14T13:34:30.305Z</time>
      </trkpt>
      <trkpt lat="47.79199" lon="-2.32686">
        <ele>48.986868</ele>
        <time>2022-12-14T13:34:33.353Z</time>
      </trkpt>
      <trkpt lat="47.7919" lon="-2.32677">
        <ele>48.986916</ele>
        <time>2022-12-14T13:34:36.352Z</time>
      </trkpt>
      <trkpt lat="47.79181" lon="-2.32668">
        <ele>48.986965</ele>
        <time>2022-12-14T13:34:39.312Z</time>
      </trkpt>
      <trkpt lat="47.79172" lon="-2.32657">
        <ele>48.987019</ele>
        <time>2022-12-14T13:34:42.353Z</time>
      </trkpt>
      <trkpt lat="47.79163" lon="-2.32645">
        <ele>48.98707</ele>
        <time>2022-12-14T13:34:45.321Z</time>
      </trkpt>
      <trkpt lat="47.79156" lon="-2.32634">
        <ele>48.987116</ele>
        <time>2022-12-14T13:34:48.359Z</time>
      </trkpt>
      <trkpt lat="47.79149" lon="-2.32624">
        <ele>48.987161</ele>
        <time>2022-12-14T13:34:51.304Z</time>
      </trkpt>
      <trkpt lat="47.79141" lon="-2.32613">
        <ele>48.987207</ele>
        <time>2022-12-14T13:34:54.331Z</time>
      </trkpt>
      <trkpt lat="47.79134" lon="-2.32601">
        <ele>48.987255</ele>
        <time>2022-12-14T13:34:57.311Z</time>
      </trkpt>
      <trkpt lat="47.79126" lon="-2.32587">
        <ele>48.98731</ele>
        <time>2022-12-14T13:35:00.306Z</time>
      </trkpt>
      <trkpt lat="47.79118" lon="-2.32571">
        <ele>48.987368</ele>
        <time>2022-12-14T13:35:03.327Z</time>
      </trkpt>
      <trkpt lat="47.79111" lon="-2.32555">
        <ele>48.987426</ele>
        <time>2022-12-14T13:35:06.305Z</time>
      </trkpt>
      <trkpt lat="47.79104" lon="-2.3254">
        <ele>48.987481</ele>
        <time>2022-12-14T13:35:09.303Z</time>
      </trkpt>
      <trkpt lat="47.79098" lon="-2.32523">
        <ele>48.987537</ele>
        <time>2022-12-14T13:35:12.304Z</time>
      </trkpt>
      <trkpt lat="47.79092" lon="-2.32509">
        <ele>48.987588</ele>
        <time>2022-12-14T13:35:15.304Z</time>
      </trkpt>
      <trkpt lat="47.79087" lon="-2.32494">
        <ele>49.052186</ele>
        <time>2022-12-14T13:35:18.311Z</time>
      </trkpt>
      <trkpt lat="47.79082" lon="-2.32479">
        <ele>49.276505</ele>
        <time>2022-12-14T13:35:21.310Z</time>
      </trkpt>
      <trkpt lat="47.79078" lon="-2.32464">
        <ele>49.499387</ele>
        <time>2022-12-14T13:35:24.307Z</time>
      </trkpt>
      <trkpt lat="47.79074" lon="-2.32447">
        <ele>49.757072</ele>
        <time>2022-12-14T13:35:27.306Z</time>
      </trkpt>
      <trkpt lat="47.7907" lon="-2.32428">
        <ele>50.023328</ele>
        <time>2022-12-14T13:35:30.306Z</time>
      </trkpt>
      <trkpt lat="47.79068" lon="-2.3241">
        <ele>50.271454</ele>
        <time>2022-12-14T13:35:33.303Z</time>
      </trkpt>
      <trkpt lat="47.79067" lon="-2.32395">
        <ele>50.488158</ele>
        <time>2022-12-14T13:35:36.305Z</time>
      </trkpt>
      <trkpt lat="47.79066" lon="-2.3238">
        <ele>50.689042</ele>
        <time>2022-12-14T13:35:39.310Z</time>
      </trkpt>
      <trkpt lat="47.79063" lon="-2.32366">
        <ele>50.895947</ele>
        <time>2022-12-14T13:35:42.314Z</time>
      </trkpt>
      <trkpt lat="47.79059" lon="-2.3235">
        <ele>51.134053</ele>
        <time>2022-12-14T13:35:45.303Z</time>
      </trkpt>
      <trkpt lat="47.79054" lon="-2.32331">
        <ele>51.405954</ele>
        <time>2022-12-14T13:35:48.306Z</time>
      </trkpt>
      <trkpt lat="47.7905" lon="-2.32313">
        <ele>51.668849</ele>
        <time>2022-12-14T13:35:51.302Z</time>
      </trkpt>
      <trkpt lat="47.79046" lon="-2.32297">
        <ele>51.912986</ele>
        <time>2022-12-14T13:35:54.313Z</time>
      </trkpt>
      <trkpt lat="47.79041" lon="-2.3228">
        <ele>52.165518</ele>
        <time>2022-12-14T13:35:57.302Z</time>
      </trkpt>
      <trkpt lat="47.79036" lon="-2.32262">
        <ele>52.420848</ele>
        <time>2022-12-14T13:36:00.307Z</time>
      </trkpt>
      <trkpt lat="47.79032" lon="-2.32245">
        <ele>52.672256</ele>
        <time>2022-12-14T13:36:03.294Z</time>
      </trkpt>
      <trkpt lat="47.79026" lon="-2.3223">
        <ele>52.657536</ele>
        <time>2022-12-14T13:36:06.305Z</time>
      </trkpt>
      <trkpt lat="47.7902" lon="-2.32214">
        <ele>52.641547</ele>
        <time>2022-12-14T13:36:09.315Z</time>
      </trkpt>
      <trkpt lat="47.79014" lon="-2.32197">
        <ele>52.624925</ele>
        <time>2022-12-14T13:36:12.290Z</time>
      </trkpt>
      <trkpt lat="47.7901" lon="-2.32184">
        <ele>52.612992</ele>
        <time>2022-12-14T13:36:14.307Z</time>
      </trkpt>
      <trkpt lat="47.79005" lon="-2.32172">
        <ele>52.60089</ele>
        <time>2022-12-14T13:36:16.305Z</time>
      </trkpt>
      <trkpt lat="47.79" lon="-2.3216">
        <ele>52.58943</ele>
        <time>2022-12-14T13:36:18.292Z</time>
      </trkpt>
      <trkpt lat="47.78993" lon="-2.32144">
        <ele>52.572474</ele>
        <time>2022-12-14T13:36:21.375Z</time>
      </trkpt>
      <trkpt lat="47.78987" lon="-2.32132">
        <ele>52.560045</ele>
        <time>2022-12-14T13:36:23.303Z</time>
      </trkpt>
      <trkpt lat="47.78982" lon="-2.3212">
        <ele>52.548316</ele>
        <time>2022-12-14T13:36:25.313Z</time>
      </trkpt>
      <trkpt lat="47.78977" lon="-2.32109">
        <ele>52.536874</ele>
        <time>2022-12-14T13:36:27.359Z</time>
      </trkpt>
      <trkpt lat="47.78968" lon="-2.32096">
        <ele>52.521593</ele>
        <time>2022-12-14T13:36:30.318Z</time>
      </trkpt>
      <trkpt lat="47.78962" lon="-2.32085">
        <ele>52.508384</ele>
        <time>2022-12-14T13:36:33.318Z</time>
      </trkpt>
      <trkpt lat="47.78952" lon="-2.32074">
        <ele>52.493803</ele>
        <time>2022-12-14T13:36:36.317Z</time>
      </trkpt>
      <trkpt lat="47.78941" lon="-2.32065">
        <ele>52.477534</ele>
        <time>2022-12-14T13:36:39.311Z</time>
      </trkpt>
      <trkpt lat="47.78929" lon="-2.32057">
        <ele>52.460585</ele>
        <time>2022-12-14T13:36:42.303Z</time>
      </trkpt>
      <trkpt lat="47.7892" lon="-2.32054">
        <ele>52.449028</ele>
        <time>2022-12-14T13:36:44.377Z</time>
      </trkpt>
      <trkpt lat="47.78908" lon="-2.32046">
        <ele>52.561368</ele>
        <time>2022-12-14T13:36:47.313Z</time>
      </trkpt>
      <trkpt lat="47.78899" lon="-2.32041">
        <ele>52.672731</ele>
        <time>2022-12-14T13:36:49.315Z</time>
      </trkpt>
      <trkpt lat="47.78887" lon="-2.32033">
        <ele>52.831815</ele>
        <time>2022-12-14T13:36:52.316Z</time>
      </trkpt>
      <trkpt lat="47.78878" lon="-2.32027">
        <ele>52.954842</ele>
        <time>2022-12-14T13:36:54.296Z</time>
      </trkpt>
      <trkpt lat="47.78868" lon="-2.32022">
        <ele>53.076185</ele>
        <time>2022-12-14T13:36:56.343Z</time>
      </trkpt>
      <trkpt lat="47.78859" lon="-2.32016">
        <ele>53.198896</ele>
        <time>2022-12-14T13:36:58.311Z</time>
      </trkpt>
      <trkpt lat="47.78849" lon="-2.32011">
        <ele>53.322503</ele>
        <time>2022-12-14T13:37:00.321Z</time>
      </trkpt>
      <trkpt lat="47.78839" lon="-2.32004">
        <ele>53.455038</ele>
        <time>2022-12-14T13:37:02.363Z</time>
      </trkpt>
      <trkpt lat="47.7883" lon="-2.31997">
        <ele>53.573109</ele>
        <time>2022-12-14T13:37:04.318Z</time>
      </trkpt>
      <trkpt lat="47.78821" lon="-2.31994">
        <ele>53.686244</ele>
        <time>2022-12-14T13:37:06.302Z</time>
      </trkpt>
      <trkpt lat="47.78811" lon="-2.31987">
        <ele>53.816916</ele>
        <time>2022-12-14T13:37:08.378Z</time>
      </trkpt>
      <trkpt lat="47.78802" lon="-2.31981">
        <ele>53.937761</ele>
        <time>2022-12-14T13:37:10.320Z</time>
      </trkpt>
      <trkpt lat="47.78793" lon="-2.31976">
        <ele>54.055471</ele>
        <time>2022-12-14T13:37:12.314Z</time>
      </trkpt>
      <trkpt lat="47.78784" lon="-2.31969">
        <ele>54.17172</ele>
        <time>2022-12-14T13:37:14.372Z</time>
      </trkpt>
      <trkpt lat="47.78772" lon="-2.31963">
        <ele>54.330549</ele>
        <time>2022-12-14T13:37:17.301Z</time>
      </trkpt>
      <trkpt lat="47.78761" lon="-2.31955">
        <ele>54.479815</ele>
        <time>2022-12-14T13:37:20.360Z</time>
      </trkpt>
      <trkpt lat="47.78748" lon="-2.31947">
        <ele>54.592996</ele>
        <time>2022-12-14T13:37:23.301Z</time>
      </trkpt>
      <trkpt lat="47.7874" lon="-2.31942">
        <ele>54.55689</ele>
        <time>2022-12-14T13:37:25.307Z</time>
      </trkpt>
      <trkpt lat="47.7873" lon="-2.31936">
        <ele>54.516848</ele>
        <time>2022-12-14T13:37:27.310Z</time>
      </trkpt>
      <trkpt lat="47.78721" lon="-2.31931">
        <ele>54.478157</ele>
        <time>2022-12-14T13:37:29.305Z</time>
      </trkpt>
      <trkpt lat="47.78712" lon="-2.31926">
        <ele>54.439645</ele>
        <time>2022-12-14T13:37:31.309Z</time>
      </trkpt>
      <trkpt lat="47.78702" lon="-2.3192">
        <ele>54.398349</ele>
        <time>2022-12-14T13:37:33.293Z</time>
      </trkpt>
      <trkpt lat="47.78693" lon="-2.31915">
        <ele>54.358543</ele>
        <time>2022-12-14T13:37:35.304Z</time>
      </trkpt>
      <trkpt lat="47.78683" lon="-2.31909">
        <ele>54.317979</ele>
        <time>2022-12-14T13:37:37.306Z</time>
      </trkpt>
      <trkpt lat="47.78674" lon="-2.31903">
        <ele>54.278442</ele>
        <time>2022-12-14T13:37:39.317Z</time>
      </trkpt>
      <trkpt lat="47.78666" lon="-2.31898">
        <ele>54.242036</ele>
        <time>2022-12-14T13:37:41.309Z</time>
      </trkpt>
      <trkpt lat="47.78654" lon="-2.31891">
        <ele>54.191775</ele>
        <time>2022-12-14T13:37:44.308Z</time>
      </trkpt>
      <trkpt lat="47.78642" lon="-2.31884">
        <ele>54.143788</ele>
        <time>2022-12-14T13:37:47.317Z</time>
      </trkpt>
      <trkpt lat="47.78632" lon="-2.31878">
        <ele>54.101485</ele>
        <time>2022-12-14T13:37:50.308Z</time>
      </trkpt>
      <trkpt lat="47.78623" lon="-2.31873">
        <ele>54.05974</ele>
        <time>2022-12-14T13:37:53.298Z</time>
      </trkpt>
      <trkpt lat="47.78612" lon="-2.31867">
        <ele>54.014185</ele>
        <time>2022-12-14T13:37:56.305Z</time>
      </trkpt>
      <trkpt lat="47.78601" lon="-2.3186">
        <ele>53.96863</ele>
        <time>2022-12-14T13:37:59.306Z</time>
      </trkpt>
      <trkpt lat="47.78591" lon="-2.31852">
        <ele>53.923906</ele>
        <time>2022-12-14T13:38:02.306Z</time>
      </trkpt>
      <trkpt lat="47.78581" lon="-2.31844">
        <ele>53.858655</ele>
        <time>2022-12-14T13:38:05.306Z</time>
      </trkpt>
      <trkpt lat="47.78569" lon="-2.31836">
        <ele>53.753669</ele>
        <time>2022-12-14T13:38:08.312Z</time>
      </trkpt>
      <trkpt lat="47.78557" lon="-2.31827">
        <ele>53.642634</ele>
        <time>2022-12-14T13:38:11.319Z</time>
      </trkpt>
      <trkpt lat="47.78548" lon="-2.31821">
        <ele>53.561208</ele>
        <time>2022-12-14T13:38:13.293Z</time>
      </trkpt>
      <trkpt lat="47.78539" lon="-2.31816">
        <ele>53.484174</ele>
        <time>2022-12-14T13:38:15.379Z</time>
      </trkpt>
      <trkpt lat="47.7853" lon="-2.3181">
        <ele>53.402748</ele>
        <time>2022-12-14T13:38:17.307Z</time>
      </trkpt>
      <trkpt lat="47.78521" lon="-2.31804">
        <ele>53.323797</ele>
        <time>2022-12-14T13:38:19.316Z</time>
      </trkpt>
      <trkpt lat="47.78508" lon="-2.31797">
        <ele>53.212633</ele>
        <time>2022-12-14T13:38:22.310Z</time>
      </trkpt>
      <trkpt lat="47.78496" lon="-2.31789">
        <ele>53.103721</ele>
        <time>2022-12-14T13:38:25.306Z</time>
      </trkpt>
      <trkpt lat="47.78483" lon="-2.31783">
        <ele>52.99845</ele>
        <time>2022-12-14T13:38:28.306Z</time>
      </trkpt>
      <trkpt lat="47.78471" lon="-2.31777">
        <ele>52.891121</ele>
        <time>2022-12-14T13:38:31.316Z</time>
      </trkpt>
      <trkpt lat="47.78462" lon="-2.31773">
        <ele>52.814224</ele>
        <time>2022-12-14T13:38:33.323Z</time>
      </trkpt>
      <trkpt lat="47.78453" lon="-2.31768">
        <ele>52.738157</ele>
        <time>2022-12-14T13:38:35.317Z</time>
      </trkpt>
      <trkpt lat="47.78444" lon="-2.31763">
        <ele>52.659206</ele>
        <time>2022-12-14T13:38:37.308Z</time>
      </trkpt>
      <trkpt lat="47.78434" lon="-2.31758">
        <ele>52.574919</ele>
        <time>2022-12-14T13:38:39.369Z</time>
      </trkpt>
      <trkpt lat="47.78425" lon="-2.31754">
        <ele>52.49381</ele>
        <time>2022-12-14T13:38:41.316Z</time>
      </trkpt>
      <trkpt lat="47.78416" lon="-2.31749">
        <ele>52.430076</ele>
        <time>2022-12-14T13:38:43.295Z</time>
      </trkpt>
      <trkpt lat="47.78408" lon="-2.31745">
        <ele>52.419025</ele>
        <time>2022-12-14T13:38:45.400Z</time>
      </trkpt>
      <trkpt lat="47.78399" lon="-2.3174">
        <ele>52.407835</ele>
        <time>2022-12-14T13:38:47.322Z</time>
      </trkpt>
      <trkpt lat="47.78386" lon="-2.31734">
        <ele>52.391619</ele>
        <time>2022-12-14T13:38:50.317Z</time>
      </trkpt>
      <trkpt lat="47.78377" lon="-2.31729">
        <ele>52.380171</ele>
        <time>2022-12-14T13:38:52.318Z</time>
      </trkpt>
      <trkpt lat="47.78369" lon="-2.31723">
        <ele>52.368509</ele>
        <time>2022-12-14T13:38:54.315Z</time>
      </trkpt>
      <trkpt lat="47.78359" lon="-2.31719">
        <ele>52.356279</ele>
        <time>2022-12-14T13:38:56.307Z</time>
      </trkpt>
      <trkpt lat="47.78349" lon="-2.31714">
        <ele>52.344035</ele>
        <time>2022-12-14T13:38:58.307Z</time>
      </trkpt>
      <trkpt lat="47.7834" lon="-2.31709">
        <ele>52.332105</ele>
        <time>2022-12-14T13:39:00.306Z</time>
      </trkpt>
      <trkpt lat="47.78331" lon="-2.31703">
        <ele>52.320201</ele>
        <time>2022-12-14T13:39:02.307Z</time>
      </trkpt>
      <trkpt lat="47.78322" lon="-2.31698">
        <ele>52.307873</ele>
        <time>2022-12-14T13:39:04.296Z</time>
      </trkpt>
      <trkpt lat="47.78312" lon="-2.31693">
        <ele>52.29506</ele>
        <time>2022-12-14T13:39:06.318Z</time>
      </trkpt>
      <trkpt lat="47.78302" lon="-2.31688">
        <ele>52.282587</ele>
        <time>2022-12-14T13:39:08.306Z</time>
      </trkpt>
      <trkpt lat="47.78293" lon="-2.31682">
        <ele>52.270014</ele>
        <time>2022-12-14T13:39:10.317Z</time>
      </trkpt>
      <trkpt lat="47.78283" lon="-2.31676">
        <ele>52.257116</ele>
        <time>2022-12-14T13:39:12.305Z</time>
      </trkpt>
      <trkpt lat="47.78273" lon="-2.3167">
        <ele>52.244047</ele>
        <time>2022-12-14T13:39:14.350Z</time>
      </trkpt>
      <trkpt lat="47.78262" lon="-2.31665">
        <ele>52.230651</ele>
        <time>2022-12-14T13:39:16.307Z</time>
      </trkpt>
      <trkpt lat="47.78252" lon="-2.3166">
        <ele>52.217496</ele>
        <time>2022-12-14T13:39:18.310Z</time>
      </trkpt>
      <trkpt lat="47.78242" lon="-2.31656">
        <ele>52.188786</ele>
        <time>2022-12-14T13:39:20.359Z</time>
      </trkpt>
      <trkpt lat="47.78231" lon="-2.31653">
        <ele>52.153248</ele>
        <time>2022-12-14T13:39:22.306Z</time>
      </trkpt>
      <trkpt lat="47.78222" lon="-2.3165">
        <ele>52.119835</ele>
        <time>2022-12-14T13:39:24.316Z</time>
      </trkpt>
      <trkpt lat="47.78212" lon="-2.31648">
        <ele>52.085224</ele>
        <time>2022-12-14T13:39:26.352Z</time>
      </trkpt>
      <trkpt lat="47.78202" lon="-2.31647">
        <ele>52.051089</ele>
        <time>2022-12-14T13:39:28.296Z</time>
      </trkpt>
      <trkpt lat="47.78192" lon="-2.31643">
        <ele>52.016337</ele>
        <time>2022-12-14T13:39:30.308Z</time>
      </trkpt>
      <trkpt lat="47.78182" lon="-2.3164">
        <ele>51.980531</ele>
        <time>2022-12-14T13:39:32.318Z</time>
      </trkpt>
      <trkpt lat="47.78172" lon="-2.31637">
        <ele>51.946626</ele>
        <time>2022-12-14T13:39:34.305Z</time>
      </trkpt>
      <trkpt lat="47.78163" lon="-2.31631">
        <ele>51.911101</ele>
        <time>2022-12-14T13:39:36.307Z</time>
      </trkpt>
      <trkpt lat="47.78153" lon="-2.31627">
        <ele>51.875851</ele>
        <time>2022-12-14T13:39:38.308Z</time>
      </trkpt>
      <trkpt lat="47.78143" lon="-2.31621">
        <ele>51.839838</ele>
        <time>2022-12-14T13:39:40.310Z</time>
      </trkpt>
      <trkpt lat="47.78133" lon="-2.31616">
        <ele>51.802785</ele>
        <time>2022-12-14T13:39:42.308Z</time>
      </trkpt>
      <trkpt lat="47.78122" lon="-2.3161">
        <ele>51.765076</ele>
        <time>2022-12-14T13:39:44.319Z</time>
      </trkpt>
      <trkpt lat="47.78112" lon="-2.31605">
        <ele>51.726319</ele>
        <time>2022-12-14T13:39:46.318Z</time>
      </trkpt>
      <trkpt lat="47.78101" lon="-2.31599">
        <ele>51.687256</ele>
        <time>2022-12-14T13:39:48.317Z</time>
      </trkpt>
      <trkpt lat="47.78091" lon="-2.31593">
        <ele>51.6496</ele>
        <time>2022-12-14T13:39:50.313Z</time>
      </trkpt>
      <trkpt lat="47.78081" lon="-2.31587">
        <ele>51.613826</ele>
        <time>2022-12-14T13:39:52.314Z</time>
      </trkpt>
      <trkpt lat="47.78072" lon="-2.31581">
        <ele>51.560316</ele>
        <time>2022-12-14T13:39:54.299Z</time>
      </trkpt>
      <trkpt lat="47.78064" lon="-2.31576">
        <ele>51.48922</ele>
        <time>2022-12-14T13:39:56.306Z</time>
      </trkpt>
      <trkpt lat="47.78055" lon="-2.31569">
        <ele>51.414247</ele>
        <time>2022-12-14T13:39:58.309Z</time>
      </trkpt>
      <trkpt lat="47.78046" lon="-2.31562">
        <ele>51.338799</ele>
        <time>2022-12-14T13:40:00.311Z</time>
      </trkpt>
      <trkpt lat="47.78037" lon="-2.31555">
        <ele>51.258933</ele>
        <time>2022-12-14T13:40:02.307Z</time>
      </trkpt>
      <trkpt lat="47.78028" lon="-2.31546">
        <ele>51.177094</ele>
        <time>2022-12-14T13:40:04.308Z</time>
      </trkpt>
      <trkpt lat="47.78019" lon="-2.31538">
        <ele>51.093698</ele>
        <time>2022-12-14T13:40:06.316Z</time>
      </trkpt>
      <trkpt lat="47.78009" lon="-2.31529">
        <ele>51.004897</ele>
        <time>2022-12-14T13:40:08.309Z</time>
      </trkpt>
      <trkpt lat="47.78" lon="-2.31522">
        <ele>50.928627</ele>
        <time>2022-12-14T13:40:10.316Z</time>
      </trkpt>
      <trkpt lat="47.77992" lon="-2.31514">
        <ele>50.850854</ele>
        <time>2022-12-14T13:40:12.318Z</time>
      </trkpt>
      <trkpt lat="47.77984" lon="-2.31505">
        <ele>50.776323</ele>
        <time>2022-12-14T13:40:14.311Z</time>
      </trkpt>
      <trkpt lat="47.77977" lon="-2.31498">
        <ele>50.707518</ele>
        <time>2022-12-14T13:40:16.308Z</time>
      </trkpt>
      <trkpt lat="47.77969" lon="-2.31491">
        <ele>50.637585</ele>
        <time>2022-12-14T13:40:18.308Z</time>
      </trkpt>
      <trkpt lat="47.77958" lon="-2.31481">
        <ele>50.541775</ele>
        <time>2022-12-14T13:40:21.313Z</time>
      </trkpt>
      <trkpt lat="47.77948" lon="-2.31471">
        <ele>50.448986</ele>
        <time>2022-12-14T13:40:24.316Z</time>
      </trkpt>
      <trkpt lat="47.77938" lon="-2.31461">
        <ele>50.35464</ele>
        <time>2022-12-14T13:40:27.313Z</time>
      </trkpt>
      <trkpt lat="47.77926" lon="-2.31453">
        <ele>50.257879</ele>
        <time>2022-12-14T13:40:30.310Z</time>
      </trkpt>
      <trkpt lat="47.77919" lon="-2.31446">
        <ele>50.210086</ele>
        <time>2022-12-14T13:40:32.307Z</time>
      </trkpt>
      <trkpt lat="47.77906" lon="-2.31437">
        <ele>50.189171</ele>
        <time>2022-12-14T13:40:35.313Z</time>
      </trkpt>
      <trkpt lat="47.77898" lon="-2.3143">
        <ele>50.17508</ele>
        <time>2022-12-14T13:40:37.378Z</time>
      </trkpt>
      <trkpt lat="47.7789" lon="-2.31423">
        <ele>50.16053</ele>
        <time>2022-12-14T13:40:39.318Z</time>
      </trkpt>
      <trkpt lat="47.77881" lon="-2.31416">
        <ele>50.145597</ele>
        <time>2022-12-14T13:40:41.308Z</time>
      </trkpt>
      <trkpt lat="47.77871" lon="-2.3141">
        <ele>50.129582</ele>
        <time>2022-12-14T13:40:43.360Z</time>
      </trkpt>
      <trkpt lat="47.77862" lon="-2.31405">
        <ele>50.114898</ele>
        <time>2022-12-14T13:40:45.309Z</time>
      </trkpt>
      <trkpt lat="47.77852" lon="-2.31402">
        <ele>50.1002</ele>
        <time>2022-12-14T13:40:47.316Z</time>
      </trkpt>
      <trkpt lat="47.77843" lon="-2.31401">
        <ele>50.085855</ele>
        <time>2022-12-14T13:40:49.298Z</time>
      </trkpt>
      <trkpt lat="47.77834" lon="-2.31404">
        <ele>50.072083</ele>
        <time>2022-12-14T13:40:51.308Z</time>
      </trkpt>
      <trkpt lat="47.77821" lon="-2.31404">
        <ele>50.053092</ele>
        <time>2022-12-14T13:40:54.322Z</time>
      </trkpt>
      <trkpt lat="47.77807" lon="-2.31408">
        <ele>50.031857</ele>
        <time>2022-12-14T13:40:57.322Z</time>
      </trkpt>
      <trkpt lat="47.77798" lon="-2.3141">
        <ele>50.017604</ele>
        <time>2022-12-14T13:40:59.304Z</time>
      </trkpt>
      <trkpt lat="47.77789" lon="-2.31414">
        <ele>50.00352</ele>
        <time>2022-12-14T13:41:01.309Z</time>
      </trkpt>
      <trkpt lat="47.77777" lon="-2.31417">
        <ele>49.98451</ele>
        <time>2022-12-14T13:41:04.305Z</time>
      </trkpt>
      <trkpt lat="47.77767" lon="-2.3142">
        <ele>49.97047</ele>
        <time>2022-12-14T13:41:06.316Z</time>
      </trkpt>
      <trkpt lat="47.77758" lon="-2.31424">
        <ele>49.956167</ele>
        <time>2022-12-14T13:41:08.315Z</time>
      </trkpt>
      <trkpt lat="47.77749" lon="-2.31427">
        <ele>49.961758</ele>
        <time>2022-12-14T13:41:10.306Z</time>
      </trkpt>
      <trkpt lat="47.77737" lon="-2.31432">
        <ele>50.120525</ele>
        <time>2022-12-14T13:41:13.301Z</time>
      </trkpt>
      <trkpt lat="47.77725" lon="-2.31435">
        <ele>50.272825</ele>
        <time>2022-12-14T13:41:16.318Z</time>
      </trkpt>
      <trkpt lat="47.77714" lon="-2.3144">
        <ele>50.410913</ele>
        <time>2022-12-14T13:41:19.318Z</time>
      </trkpt>
      <trkpt lat="47.77702" lon="-2.31444">
        <ele>50.560755</ele>
        <time>2022-12-14T13:41:22.309Z</time>
      </trkpt>
      <trkpt lat="47.7769" lon="-2.31447">
        <ele>50.708701</ele>
        <time>2022-12-14T13:41:25.312Z</time>
      </trkpt>
      <trkpt lat="47.77678" lon="-2.3145">
        <ele>50.864627</ele>
        <time>2022-12-14T13:41:28.320Z</time>
      </trkpt>
      <trkpt lat="47.77668" lon="-2.31451">
        <ele>50.977772</ele>
        <time>2022-12-14T13:41:30.300Z</time>
      </trkpt>
      <trkpt lat="47.77659" lon="-2.31454">
        <ele>51.093815</ele>
        <time>2022-12-14T13:41:32.310Z</time>
      </trkpt>
      <trkpt lat="47.7765" lon="-2.31458">
        <ele>51.213825</ele>
        <time>2022-12-14T13:41:34.294Z</time>
      </trkpt>
      <trkpt lat="47.77636" lon="-2.31461">
        <ele>51.381355</ele>
        <time>2022-12-14T13:41:37.303Z</time>
      </trkpt>
      <trkpt lat="47.77624" lon="-2.31464">
        <ele>51.535655</ele>
        <time>2022-12-14T13:41:40.314Z</time>
      </trkpt>
      <trkpt lat="47.77611" lon="-2.31466">
        <ele>51.692009</ele>
        <time>2022-12-14T13:41:43.305Z</time>
      </trkpt>
      <trkpt lat="47.77602" lon="-2.31468">
        <ele>51.802441</ele>
        <time>2022-12-14T13:41:45.319Z</time>
      </trkpt>
      <trkpt lat="47.7759" lon="-2.3147">
        <ele>51.953284</ele>
        <time>2022-12-14T13:41:48.315Z</time>
      </trkpt>
      <trkpt lat="47.7758" lon="-2.31472">
        <ele>52.081979</ele>
        <time>2022-12-14T13:41:50.316Z</time>
      </trkpt>
      <trkpt lat="47.7757" lon="-2.31474">
        <ele>52.164098</ele>
        <time>2022-12-14T13:41:52.306Z</time>
      </trkpt>
      <trkpt lat="47.77559" lon="-2.31477">
        <ele>52.198002</ele>
        <time>2022-12-14T13:41:55.369Z</time>
      </trkpt>
      <trkpt lat="47.77547" lon="-2.3148">
        <ele>52.231156</ele>
        <time>2022-12-14T13:41:58.320Z</time>
      </trkpt>
      <trkpt lat="47.77536" lon="-2.31481">
        <ele>52.265026</ele>
        <time>2022-12-14T13:42:01.314Z</time>
      </trkpt>
      <trkpt lat="47.77525" lon="-2.31483">
        <ele>52.294828</ele>
        <time>2022-12-14T13:42:03.304Z</time>
      </trkpt>
      <trkpt lat="47.77512" lon="-2.31484">
        <ele>52.332949</ele>
        <time>2022-12-14T13:42:06.373Z</time>
      </trkpt>
      <trkpt lat="47.77499" lon="-2.31488">
        <ele>52.37143</ele>
        <time>2022-12-14T13:42:09.321Z</time>
      </trkpt>
      <trkpt lat="47.77486" lon="-2.31491">
        <ele>52.409312</ele>
        <time>2022-12-14T13:42:12.373Z</time>
      </trkpt>
      <trkpt lat="47.77477" lon="-2.31493">
        <ele>52.435506</ele>
        <time>2022-12-14T13:42:14.313Z</time>
      </trkpt>
      <trkpt lat="47.77467" lon="-2.31495">
        <ele>52.464561</ele>
        <time>2022-12-14T13:42:16.316Z</time>
      </trkpt>
      <trkpt lat="47.77457" lon="-2.31497">
        <ele>52.494448</ele>
        <time>2022-12-14T13:42:18.374Z</time>
      </trkpt>
      <trkpt lat="47.77444" lon="-2.31498">
        <ele>52.531379</ele>
        <time>2022-12-14T13:42:21.312Z</time>
      </trkpt>
      <trkpt lat="47.77431" lon="-2.31502">
        <ele>52.568787</ele>
        <time>2022-12-14T13:42:24.356Z</time>
      </trkpt>
      <trkpt lat="47.77419" lon="-2.31505">
        <ele>52.602626</ele>
        <time>2022-12-14T13:42:27.315Z</time>
      </trkpt>
      <trkpt lat="47.77409" lon="-2.31506">
        <ele>52.634186</ele>
        <time>2022-12-14T13:42:30.353Z</time>
      </trkpt>
      <trkpt lat="47.77395" lon="-2.31509">
        <ele>52.664686</ele>
        <time>2022-12-14T13:42:33.338Z</time>
      </trkpt>
      <trkpt lat="47.77386" lon="-2.3151">
        <ele>52.547272</ele>
        <time>2022-12-14T13:42:35.310Z</time>
      </trkpt>
      <trkpt lat="47.77373" lon="-2.31512">
        <ele>52.38546</ele>
        <time>2022-12-14T13:42:38.319Z</time>
      </trkpt>
      <trkpt lat="47.7736" lon="-2.31515">
        <ele>52.233317</ele>
        <time>2022-12-14T13:42:41.314Z</time>
      </trkpt>
      <trkpt lat="47.77347" lon="-2.31517">
        <ele>52.070666</ele>
        <time>2022-12-14T13:42:44.314Z</time>
      </trkpt>
      <trkpt lat="47.77334" lon="-2.3152">
        <ele>51.902569</ele>
        <time>2022-12-14T13:42:47.319Z</time>
      </trkpt>
      <trkpt lat="47.77324" lon="-2.31521">
        <ele>51.78663</ele>
        <time>2022-12-14T13:42:49.320Z</time>
      </trkpt>
      <trkpt lat="47.77311" lon="-2.31524">
        <ele>51.624325</ele>
        <time>2022-12-14T13:42:52.313Z</time>
      </trkpt>
      <trkpt lat="47.77298" lon="-2.31526">
        <ele>51.467396</ele>
        <time>2022-12-14T13:42:55.315Z</time>
      </trkpt>
      <trkpt lat="47.77287" lon="-2.31527">
        <ele>51.323177</ele>
        <time>2022-12-14T13:42:58.307Z</time>
      </trkpt>
      <trkpt lat="47.77277" lon="-2.31528">
        <ele>51.205233</ele>
        <time>2022-12-14T13:43:01.304Z</time>
      </trkpt>
      <trkpt lat="47.77266" lon="-2.31529">
        <ele>51.070721</ele>
        <time>2022-12-14T13:43:04.317Z</time>
      </trkpt>
      <trkpt lat="47.77255" lon="-2.3153">
        <ele>50.937994</ele>
        <time>2022-12-14T13:43:07.315Z</time>
      </trkpt>
      <trkpt lat="47.77242" lon="-2.31533">
        <ele>50.774361</ele>
        <time>2022-12-14T13:43:10.320Z</time>
      </trkpt>
      <trkpt lat="47.77233" lon="-2.31534">
        <ele>50.655531</ele>
        <time>2022-12-14T13:43:12.309Z</time>
      </trkpt>
      <trkpt lat="47.77218" lon="-2.31539">
        <ele>50.476029</ele>
        <time>2022-12-14T13:43:15.308Z</time>
      </trkpt>
      <trkpt lat="47.77208" lon="-2.31542">
        <ele>50.504808</ele>
        <time>2022-12-14T13:43:17.387Z</time>
      </trkpt>
      <trkpt lat="47.77195" lon="-2.31545">
        <ele>50.563637</ele>
        <time>2022-12-14T13:43:20.313Z</time>
      </trkpt>
      <trkpt lat="47.77183" lon="-2.31547">
        <ele>50.618554</ele>
        <time>2022-12-14T13:43:23.353Z</time>
      </trkpt>
      <trkpt lat="47.77171" lon="-2.31549">
        <ele>50.672883</ele>
        <time>2022-12-14T13:43:26.319Z</time>
      </trkpt>
      <trkpt lat="47.77158" lon="-2.31551">
        <ele>50.731858</ele>
        <time>2022-12-14T13:43:29.362Z</time>
      </trkpt>
      <trkpt lat="47.77149" lon="-2.31552">
        <ele>50.772387</ele>
        <time>2022-12-14T13:43:31.309Z</time>
      </trkpt>
      <trkpt lat="47.77139" lon="-2.31554">
        <ele>50.815541</ele>
        <time>2022-12-14T13:43:33.294Z</time>
      </trkpt>
      <trkpt lat="47.7713" lon="-2.31555">
        <ele>50.859959</ele>
        <time>2022-12-14T13:43:35.382Z</time>
      </trkpt>
      <trkpt lat="47.7712" lon="-2.31557">
        <ele>50.904046</ele>
        <time>2022-12-14T13:43:37.309Z</time>
      </trkpt>
      <trkpt lat="47.77111" lon="-2.31559">
        <ele>50.946839</ele>
        <time>2022-12-14T13:43:39.308Z</time>
      </trkpt>
      <trkpt lat="47.77101" lon="-2.31562">
        <ele>50.988743</ele>
        <time>2022-12-14T13:43:41.369Z</time>
      </trkpt>
      <trkpt lat="47.77091" lon="-2.31562">
        <ele>51.037398</ele>
        <time>2022-12-14T13:43:44.306Z</time>
      </trkpt>
      <trkpt lat="47.77081" lon="-2.31562">
        <ele>51.079718</ele>
        <time>2022-12-14T13:43:47.376Z</time>
      </trkpt>
      <trkpt lat="47.77069" lon="-2.31565">
        <ele>51.133274</ele>
        <time>2022-12-14T13:43:50.318Z</time>
      </trkpt>
      <trkpt lat="47.77059" lon="-2.31572">
        <ele>51.183844</ele>
        <time>2022-12-14T13:43:53.339Z</time>
      </trkpt>
      <trkpt lat="47.77052" lon="-2.31581">
        <ele>51.226289</ele>
        <time>2022-12-14T13:43:56.304Z</time>
      </trkpt>
      <trkpt lat="47.77042" lon="-2.31586">
        <ele>51.275233</ele>
        <time>2022-12-14T13:44:01.307Z</time>
      </trkpt>
      <trkpt lat="47.77032" lon="-2.31584">
        <ele>51.360622</ele>
        <time>2022-12-14T13:44:04.378Z</time>
      </trkpt>
      <trkpt lat="47.77021" lon="-2.31577">
        <ele>51.458908</ele>
        <time>2022-12-14T13:44:08.308Z</time>
      </trkpt>
      <trkpt lat="47.77013" lon="-2.31571">
        <ele>51.53617</ele>
        <time>2022-12-14T13:44:12.307Z</time>
      </trkpt>
      <trkpt lat="47.77003" lon="-2.31568">
        <ele>51.624804</ele>
        <time>2022-12-14T13:44:16.389Z</time>
      </trkpt>
      <trkpt lat="47.76993" lon="-2.31568">
        <ele>51.711938</ele>
        <time>2022-12-14T13:44:19.310Z</time>
      </trkpt>
      <trkpt lat="47.76982" lon="-2.31571">
        <ele>51.80213</ele>
        <time>2022-12-14T13:44:22.375Z</time>
      </trkpt>
      <trkpt lat="47.76972" lon="-2.31573">
        <ele>51.890869</ele>
        <time>2022-12-14T13:44:25.324Z</time>
      </trkpt>
      <trkpt lat="47.76961" lon="-2.31574">
        <ele>51.980796</ele>
        <time>2022-12-14T13:44:28.319Z</time>
      </trkpt>
      <trkpt lat="47.7695" lon="-2.31577">
        <ele>52.072962</ele>
        <time>2022-12-14T13:44:31.287Z</time>
      </trkpt>
      <trkpt lat="47.76938" lon="-2.31579">
        <ele>52.175962</ele>
        <time>2022-12-14T13:44:34.298Z</time>
      </trkpt>
      <trkpt lat="47.76926" lon="-2.3158">
        <ele>52.278426</ele>
        <time>2022-12-14T13:44:37.290Z</time>
      </trkpt>
      <trkpt lat="47.76915" lon="-2.31581">
        <ele>52.370979</ele>
        <time>2022-12-14T13:44:40.298Z</time>
      </trkpt>
      <trkpt lat="47.76905" lon="-2.31583">
        <ele>52.457966</ele>
        <time>2022-12-14T13:44:44.329Z</time>
      </trkpt>
      <trkpt lat="47.76896" lon="-2.31583">
        <ele>52.536672</ele>
        <time>2022-12-14T13:45:00.301Z</time>
      </trkpt>
      <trkpt lat="47.76895" lon="-2.3158">
        <ele>52.549429</ele>
        <time>2022-12-14T13:45:32.812Z</time>
      </trkpt>
      <trkpt lat="47.76882" lon="-2.31587">
        <ele>52.664224</ele>
        <time>2022-12-14T13:51:18.299Z</time>
      </trkpt>
      <trkpt lat="47.76873" lon="-2.31586">
        <ele>52.742019</ele>
        <time>2022-12-14T13:51:22.303Z</time>
      </trkpt>
      <trkpt lat="47.76864" lon="-2.31587">
        <ele>52.871341</ele>
        <time>2022-12-14T13:51:25.293Z</time>
      </trkpt>
      <trkpt lat="47.76851" lon="-2.31587">
        <ele>53.160526</ele>
        <time>2022-12-14T13:51:28.317Z</time>
      </trkpt>
      <trkpt lat="47.76839" lon="-2.31587">
        <ele>53.436304</ele>
        <time>2022-12-14T13:51:31.307Z</time>
      </trkpt>
      <trkpt lat="47.76827" lon="-2.31588">
        <ele>53.709823</ele>
        <time>2022-12-14T13:51:34.304Z</time>
      </trkpt>
      <trkpt lat="47.76816" lon="-2.31588">
        <ele>53.960616</ele>
        <time>2022-12-14T13:51:37.298Z</time>
      </trkpt>
      <trkpt lat="47.76804" lon="-2.31588">
        <ele>54.222797</ele>
        <time>2022-12-14T13:51:40.319Z</time>
      </trkpt>
      <trkpt lat="47.76792" lon="-2.31588">
        <ele>54.482627</ele>
        <time>2022-12-14T13:51:43.298Z</time>
      </trkpt>
      <trkpt lat="47.7678" lon="-2.31589">
        <ele>54.754346</ele>
        <time>2022-12-14T13:51:46.318Z</time>
      </trkpt>
      <trkpt lat="47.76768" lon="-2.3159">
        <ele>55.028426</ele>
        <time>2022-12-14T13:51:49.307Z</time>
      </trkpt>
      <trkpt lat="47.76758" lon="-2.31594">
        <ele>55.262376</ele>
        <time>2022-12-14T13:51:51.301Z</time>
      </trkpt>
      <trkpt lat="47.76749" lon="-2.31597">
        <ele>55.475831</ele>
        <time>2022-12-14T13:51:53.293Z</time>
      </trkpt>
      <trkpt lat="47.76738" lon="-2.31602">
        <ele>55.740913</ele>
        <time>2022-12-14T13:51:56.296Z</time>
      </trkpt>
      <trkpt lat="47.76726" lon="-2.31603">
        <ele>56.010998</ele>
        <time>2022-12-14T13:52:00.297Z</time>
      </trkpt>
      <trkpt lat="47.76713" lon="-2.31607">
        <ele>56.30649</ele>
        <time>2022-12-14T13:52:03.291Z</time>
      </trkpt>
      <trkpt lat="47.76704" lon="-2.31612">
        <ele>56.515282</ele>
        <time>2022-12-14T13:52:05.307Z</time>
      </trkpt>
      <trkpt lat="47.76692" lon="-2.31619">
        <ele>56.821262</ele>
        <time>2022-12-14T13:52:08.320Z</time>
      </trkpt>
      <trkpt lat="47.76683" lon="-2.31624">
        <ele>56.776986</ele>
        <time>2022-12-14T13:52:10.309Z</time>
      </trkpt>
      <trkpt lat="47.7667" lon="-2.31633">
        <ele>56.633316</ele>
        <time>2022-12-14T13:52:13.298Z</time>
      </trkpt>
      <trkpt lat="47.76662" lon="-2.3164">
        <ele>56.534694</ele>
        <time>2022-12-14T13:52:15.316Z</time>
      </trkpt>
      <trkpt lat="47.76654" lon="-2.31648">
        <ele>56.438691</ele>
        <time>2022-12-14T13:52:17.312Z</time>
      </trkpt>
      <trkpt lat="47.76643" lon="-2.31659">
        <ele>56.293887</ele>
        <time>2022-12-14T13:52:20.299Z</time>
      </trkpt>
      <trkpt lat="47.76635" lon="-2.31669">
        <ele>56.192605</ele>
        <time>2022-12-14T13:52:22.307Z</time>
      </trkpt>
      <trkpt lat="47.76628" lon="-2.31678">
        <ele>56.090993</ele>
        <time>2022-12-14T13:52:24.304Z</time>
      </trkpt>
      <trkpt lat="47.7662" lon="-2.31686">
        <ele>55.994228</ele>
        <time>2022-12-14T13:52:26.321Z</time>
      </trkpt>
      <trkpt lat="47.76613" lon="-2.31696">
        <ele>55.895343</ele>
        <time>2022-12-14T13:52:28.314Z</time>
      </trkpt>
      <trkpt lat="47.76606" lon="-2.31707">
        <ele>55.792347</ele>
        <time>2022-12-14T13:52:30.309Z</time>
      </trkpt>
      <trkpt lat="47.766" lon="-2.31716">
        <ele>55.6984</ele>
        <time>2022-12-14T13:52:32.303Z</time>
      </trkpt>
      <trkpt lat="47.76593" lon="-2.31725">
        <ele>55.601527</ele>
        <time>2022-12-14T13:52:34.317Z</time>
      </trkpt>
      <trkpt lat="47.76585" lon="-2.31734">
        <ele>55.502724</ele>
        <time>2022-12-14T13:52:36.315Z</time>
      </trkpt>
      <trkpt lat="47.76577" lon="-2.31743">
        <ele>55.401905</ele>
        <time>2022-12-14T13:52:38.307Z</time>
      </trkpt>
      <trkpt lat="47.76569" lon="-2.3175">
        <ele>55.304892</ele>
        <time>2022-12-14T13:52:40.319Z</time>
      </trkpt>
      <trkpt lat="47.76559" lon="-2.3176">
        <ele>55.177849</ele>
        <time>2022-12-14T13:52:43.298Z</time>
      </trkpt>
      <trkpt lat="47.76551" lon="-2.31767">
        <ele>55.079068</ele>
        <time>2022-12-14T13:52:46.319Z</time>
      </trkpt>
      <trkpt lat="47.76542" lon="-2.31773">
        <ele>54.992874</ele>
        <time>2022-12-14T13:52:49.319Z</time>
      </trkpt>
      <trkpt lat="47.76532" lon="-2.31776">
        <ele>54.961395</ele>
        <time>2022-12-14T13:52:52.318Z</time>
      </trkpt>
      <trkpt lat="47.76521" lon="-2.31777">
        <ele>54.927828</ele>
        <time>2022-12-14T13:52:55.310Z</time>
      </trkpt>
      <trkpt lat="47.76508" lon="-2.31778">
        <ele>54.890696</ele>
        <time>2022-12-14T13:52:58.319Z</time>
      </trkpt>
      <trkpt lat="47.76495" lon="-2.31778">
        <ele>54.850898</ele>
        <time>2022-12-14T13:53:01.308Z</time>
      </trkpt>
      <trkpt lat="47.76482" lon="-2.31778">
        <ele>54.811702</ele>
        <time>2022-12-14T13:53:04.295Z</time>
      </trkpt>
      <trkpt lat="47.76473" lon="-2.31778">
        <ele>54.78358</ele>
        <time>2022-12-14T13:53:06.303Z</time>
      </trkpt>
      <trkpt lat="47.76463" lon="-2.31777">
        <ele>54.755983</ele>
        <time>2022-12-14T13:53:08.303Z</time>
      </trkpt>
      <trkpt lat="47.76454" lon="-2.31777">
        <ele>54.728157</ele>
        <time>2022-12-14T13:53:10.295Z</time>
      </trkpt>
      <trkpt lat="47.76441" lon="-2.31776">
        <ele>54.688914</ele>
        <time>2022-12-14T13:53:13.298Z</time>
      </trkpt>
      <trkpt lat="47.76431" lon="-2.31776">
        <ele>54.660482</ele>
        <time>2022-12-14T13:53:15.297Z</time>
      </trkpt>
      <trkpt lat="47.76421" lon="-2.31775">
        <ele>54.630241</ele>
        <time>2022-12-14T13:53:17.291Z</time>
      </trkpt>
      <trkpt lat="47.76412" lon="-2.31775">
        <ele>54.601219</ele>
        <time>2022-12-14T13:53:19.296Z</time>
      </trkpt>
      <trkpt lat="47.76402" lon="-2.31774">
        <ele>54.571205</ele>
        <time>2022-12-14T13:53:21.298Z</time>
      </trkpt>
      <trkpt lat="47.76392" lon="-2.31773">
        <ele>54.541504</ele>
        <time>2022-12-14T13:53:23.295Z</time>
      </trkpt>
      <trkpt lat="47.76382" lon="-2.31772">
        <ele>54.511818</ele>
        <time>2022-12-14T13:53:25.319Z</time>
      </trkpt>
      <trkpt lat="47.76372" lon="-2.3177">
        <ele>54.482085</ele>
        <time>2022-12-14T13:53:27.309Z</time>
      </trkpt>
      <trkpt lat="47.76362" lon="-2.31769">
        <ele>54.43804</ele>
        <time>2022-12-14T13:53:29.317Z</time>
      </trkpt>
      <trkpt lat="47.76351" lon="-2.31768">
        <ele>54.344786</ele>
        <time>2022-12-14T13:53:31.307Z</time>
      </trkpt>
      <trkpt lat="47.76341" lon="-2.31767">
        <ele>54.255681</ele>
        <time>2022-12-14T13:53:33.295Z</time>
      </trkpt>
      <trkpt lat="47.76331" lon="-2.31765">
        <ele>54.162042</ele>
        <time>2022-12-14T13:53:35.289Z</time>
      </trkpt>
      <trkpt lat="47.7632" lon="-2.31763">
        <ele>54.0681</ele>
        <time>2022-12-14T13:53:37.301Z</time>
      </trkpt>
      <trkpt lat="47.7631" lon="-2.3176">
        <ele>53.973109</ele>
        <time>2022-12-14T13:53:39.352Z</time>
      </trkpt>
      <trkpt lat="47.763" lon="-2.31758">
        <ele>53.884338</ele>
        <time>2022-12-14T13:53:41.326Z</time>
      </trkpt>
      <trkpt lat="47.76289" lon="-2.31756">
        <ele>53.790886</ele>
        <time>2022-12-14T13:53:43.292Z</time>
      </trkpt>
      <trkpt lat="47.7628" lon="-2.31754">
        <ele>53.70474</ele>
        <time>2022-12-14T13:53:45.300Z</time>
      </trkpt>
      <trkpt lat="47.76271" lon="-2.31751">
        <ele>53.624385</ele>
        <time>2022-12-14T13:53:47.308Z</time>
      </trkpt>
      <trkpt lat="47.76262" lon="-2.31749">
        <ele>53.543272</ele>
        <time>2022-12-14T13:53:49.311Z</time>
      </trkpt>
      <trkpt lat="47.76253" lon="-2.31746">
        <ele>53.457841</ele>
        <time>2022-12-14T13:53:51.310Z</time>
      </trkpt>
      <trkpt lat="47.76243" lon="-2.31743">
        <ele>53.373658</ele>
        <time>2022-12-14T13:53:53.319Z</time>
      </trkpt>
      <trkpt lat="47.76234" lon="-2.3174">
        <ele>53.286627</ele>
        <time>2022-12-14T13:53:55.305Z</time>
      </trkpt>
      <trkpt lat="47.76224" lon="-2.31737">
        <ele>53.1992</ele>
        <time>2022-12-14T13:53:57.289Z</time>
      </trkpt>
      <trkpt lat="47.76214" lon="-2.31734">
        <ele>53.106846</ele>
        <time>2022-12-14T13:53:59.309Z</time>
      </trkpt>
      <trkpt lat="47.76204" lon="-2.31731">
        <ele>53.016805</ele>
        <time>2022-12-14T13:54:01.308Z</time>
      </trkpt>
      <trkpt lat="47.76194" lon="-2.31728">
        <ele>52.926427</ele>
        <time>2022-12-14T13:54:03.350Z</time>
      </trkpt>
      <trkpt lat="47.76184" lon="-2.31724">
        <ele>52.884925</ele>
        <time>2022-12-14T13:54:05.291Z</time>
      </trkpt>
      <trkpt lat="47.76175" lon="-2.31722">
        <ele>52.947627</ele>
        <time>2022-12-14T13:54:07.297Z</time>
      </trkpt>
      <trkpt lat="47.76166" lon="-2.3172">
        <ele>53.008657</ele>
        <time>2022-12-14T13:54:09.319Z</time>
      </trkpt>
      <trkpt lat="47.76157" lon="-2.31716">
        <ele>53.070553</ele>
        <time>2022-12-14T13:54:11.313Z</time>
      </trkpt>
      <trkpt lat="47.76148" lon="-2.31713">
        <ele>53.133965</ele>
        <time>2022-12-14T13:54:13.317Z</time>
      </trkpt>
      <trkpt lat="47.76139" lon="-2.31709">
        <ele>53.197984</ele>
        <time>2022-12-14T13:54:15.297Z</time>
      </trkpt>
      <trkpt lat="47.76129" lon="-2.31704">
        <ele>53.263538</ele>
        <time>2022-12-14T13:54:17.317Z</time>
      </trkpt>
      <trkpt lat="47.7612" lon="-2.317">
        <ele>53.327184</ele>
        <time>2022-12-14T13:54:19.323Z</time>
      </trkpt>
      <trkpt lat="47.76112" lon="-2.31695">
        <ele>53.388794</ele>
        <time>2022-12-14T13:54:21.311Z</time>
      </trkpt>
      <trkpt lat="47.76099" lon="-2.31689">
        <ele>53.477259</ele>
        <time>2022-12-14T13:54:24.319Z</time>
      </trkpt>
      <trkpt lat="47.76091" lon="-2.31684">
        <ele>53.537706</ele>
        <time>2022-12-14T13:54:26.319Z</time>
      </trkpt>
      <trkpt lat="47.76078" lon="-2.31676">
        <ele>53.62772</ele>
        <time>2022-12-14T13:54:29.323Z</time>
      </trkpt>
      <trkpt lat="47.76069" lon="-2.31671">
        <ele>53.691174</ele>
        <time>2022-12-14T13:54:31.317Z</time>
      </trkpt>
      <trkpt lat="47.7606" lon="-2.31665">
        <ele>53.756818</ele>
        <time>2022-12-14T13:54:33.299Z</time>
      </trkpt>
      <trkpt lat="47.76051" lon="-2.3166">
        <ele>53.824483</ele>
        <time>2022-12-14T13:54:35.296Z</time>
      </trkpt>
      <trkpt lat="47.76041" lon="-2.31655">
        <ele>53.893106</ele>
        <time>2022-12-14T13:54:37.318Z</time>
      </trkpt>
      <trkpt lat="47.76032" lon="-2.31652">
        <ele>53.95414</ele>
        <time>2022-12-14T13:54:39.300Z</time>
      </trkpt>
      <trkpt lat="47.76023" lon="-2.3165">
        <ele>54.016117</ele>
        <time>2022-12-14T13:54:41.315Z</time>
      </trkpt>
      <trkpt lat="47.7601" lon="-2.3165">
        <ele>54.073947</ele>
        <time>2022-12-14T13:54:44.319Z</time>
      </trkpt>
      <trkpt lat="47.76001" lon="-2.3165">
        <ele>54.088506</ele>
        <time>2022-12-14T13:54:46.321Z</time>
      </trkpt>
      <trkpt lat="47.75991" lon="-2.31651">
        <ele>54.104294</ele>
        <time>2022-12-14T13:54:48.318Z</time>
      </trkpt>
      <trkpt lat="47.75982" lon="-2.31653">
        <ele>54.119728</ele>
        <time>2022-12-14T13:54:50.321Z</time>
      </trkpt>
      <trkpt lat="47.75972" lon="-2.31654">
        <ele>54.135288</ele>
        <time>2022-12-14T13:54:52.314Z</time>
      </trkpt>
      <trkpt lat="47.75962" lon="-2.31655">
        <ele>54.151502</ele>
        <time>2022-12-14T13:54:54.319Z</time>
      </trkpt>
      <trkpt lat="47.75952" lon="-2.31656">
        <ele>54.16757</ele>
        <time>2022-12-14T13:54:56.298Z</time>
      </trkpt>
      <trkpt lat="47.75941" lon="-2.31657">
        <ele>54.184967</ele>
        <time>2022-12-14T13:54:58.318Z</time>
      </trkpt>
      <trkpt lat="47.75931" lon="-2.31659">
        <ele>54.201757</ele>
        <time>2022-12-14T13:55:00.310Z</time>
      </trkpt>
      <trkpt lat="47.75921" lon="-2.31661">
        <ele>54.21804</ele>
        <time>2022-12-14T13:55:02.322Z</time>
      </trkpt>
      <trkpt lat="47.75911" lon="-2.31662">
        <ele>54.234402</ele>
        <time>2022-12-14T13:55:04.319Z</time>
      </trkpt>
      <trkpt lat="47.75901" lon="-2.31662">
        <ele>54.249935</ele>
        <time>2022-12-14T13:55:06.320Z</time>
      </trkpt>
      <trkpt lat="47.75889" lon="-2.31662">
        <ele>54.270647</ele>
        <time>2022-12-14T13:55:09.318Z</time>
      </trkpt>
      <trkpt lat="47.75876" lon="-2.31661">
        <ele>54.291059</ele>
        <time>2022-12-14T13:55:12.316Z</time>
      </trkpt>
      <trkpt lat="47.75863" lon="-2.31658">
        <ele>54.311635</ele>
        <time>2022-12-14T13:55:15.300Z</time>
      </trkpt>
      <trkpt lat="47.75851" lon="-2.31653">
        <ele>54.332662</ele>
        <time>2022-12-14T13:55:18.318Z</time>
      </trkpt>
      <trkpt lat="47.75839" lon="-2.31646">
        <ele>54.354079</ele>
        <time>2022-12-14T13:55:21.294Z</time>
      </trkpt>
      <trkpt lat="47.75826" lon="-2.31638">
        <ele>54.066695</ele>
        <time>2022-12-14T13:55:24.290Z</time>
      </trkpt>
      <trkpt lat="47.75818" lon="-2.31632">
        <ele>53.852231</ele>
        <time>2022-12-14T13:55:26.302Z</time>
      </trkpt>
      <trkpt lat="47.7581" lon="-2.31625">
        <ele>53.633285</ele>
        <time>2022-12-14T13:55:28.293Z</time>
      </trkpt>
      <trkpt lat="47.75798" lon="-2.31616">
        <ele>53.325339</ele>
        <time>2022-12-14T13:55:31.320Z</time>
      </trkpt>
      <trkpt lat="47.75787" lon="-2.31607">
        <ele>53.038132</ele>
        <time>2022-12-14T13:55:34.317Z</time>
      </trkpt>
      <trkpt lat="47.75777" lon="-2.31598">
        <ele>52.765477</ele>
        <time>2022-12-14T13:55:37.302Z</time>
      </trkpt>
      <trkpt lat="47.75766" lon="-2.31588">
        <ele>52.469214</ele>
        <time>2022-12-14T13:55:40.318Z</time>
      </trkpt>
      <trkpt lat="47.75754" lon="-2.31578">
        <ele>52.151436</ele>
        <time>2022-12-14T13:55:43.300Z</time>
      </trkpt>
      <trkpt lat="47.75746" lon="-2.3157">
        <ele>51.930987</ele>
        <time>2022-12-14T13:55:45.301Z</time>
      </trkpt>
      <trkpt lat="47.75738" lon="-2.31563">
        <ele>51.716428</ele>
        <time>2022-12-14T13:55:47.317Z</time>
      </trkpt>
      <trkpt lat="47.75728" lon="-2.31552">
        <ele>51.430227</ele>
        <time>2022-12-14T13:55:50.323Z</time>
      </trkpt>
      <trkpt lat="47.75721" lon="-2.31539">
        <ele>51.169237</ele>
        <time>2022-12-14T13:55:54.322Z</time>
      </trkpt>
      <trkpt lat="47.75714" lon="-2.31529">
        <ele>50.934553</ele>
        <time>2022-12-14T13:55:58.321Z</time>
      </trkpt>
      <trkpt lat="47.75708" lon="-2.31517">
        <ele>50.709484</ele>
        <time>2022-12-14T13:56:01.317Z</time>
      </trkpt>
      <trkpt lat="47.75703" lon="-2.31501">
        <ele>50.440422</ele>
        <time>2022-12-14T13:56:04.290Z</time>
      </trkpt>
      <trkpt lat="47.75698" lon="-2.31483">
        <ele>50.18465</ele>
        <time>2022-12-14T13:56:07.313Z</time>
      </trkpt>
      <trkpt lat="47.75696" lon="-2.3147">
        <ele>50.161915</ele>
        <time>2022-12-14T13:56:09.319Z</time>
      </trkpt>
      <trkpt lat="47.75695" lon="-2.31456">
        <ele>50.137175</ele>
        <time>2022-12-14T13:56:11.298Z</time>
      </trkpt>
      <trkpt lat="47.75694" lon="-2.31441">
        <ele>50.111967</ele>
        <time>2022-12-14T13:56:13.300Z</time>
      </trkpt>
      <trkpt lat="47.75694" lon="-2.31426">
        <ele>50.087651</ele>
        <time>2022-12-14T13:56:15.295Z</time>
      </trkpt>
      <trkpt lat="47.75698" lon="-2.31412">
        <ele>50.062282</ele>
        <time>2022-12-14T13:56:17.296Z</time>
      </trkpt>
      <trkpt lat="47.75702" lon="-2.31399">
        <ele>50.037947</ele>
        <time>2022-12-14T13:56:19.297Z</time>
      </trkpt>
      <trkpt lat="47.75705" lon="-2.31386">
        <ele>50.014195</ele>
        <time>2022-12-14T13:56:21.320Z</time>
      </trkpt>
      <trkpt lat="47.75709" lon="-2.31374">
        <ele>49.991417</ele>
        <time>2022-12-14T13:56:23.327Z</time>
      </trkpt>
      <trkpt lat="47.75712" lon="-2.3136">
        <ele>49.967914</ele>
        <time>2022-12-14T13:56:25.291Z</time>
      </trkpt>
      <trkpt lat="47.75716" lon="-2.31341">
        <ele>49.933864</ele>
        <time>2022-12-14T13:56:28.293Z</time>
      </trkpt>
      <trkpt lat="47.75718" lon="-2.31322">
        <ele>49.900553</ele>
        <time>2022-12-14T13:56:31.292Z</time>
      </trkpt>
      <trkpt lat="47.75719" lon="-2.31308">
        <ele>49.877362</ele>
        <time>2022-12-14T13:56:33.297Z</time>
      </trkpt>
      <trkpt lat="47.7572" lon="-2.31294">
        <ele>49.853705</ele>
        <time>2022-12-14T13:56:35.316Z</time>
      </trkpt>
      <trkpt lat="47.75721" lon="-2.3128">
        <ele>49.829484</ele>
        <time>2022-12-14T13:56:37.319Z</time>
      </trkpt>
      <trkpt lat="47.75722" lon="-2.31266">
        <ele>49.806438</ele>
        <time>2022-12-14T13:56:39.324Z</time>
      </trkpt>
      <trkpt lat="47.75721" lon="-2.31253">
        <ele>49.783659</ele>
        <time>2022-12-14T13:56:41.297Z</time>
      </trkpt>
      <trkpt lat="47.75721" lon="-2.31233">
        <ele>49.749886</ele>
        <time>2022-12-14T13:56:44.328Z</time>
      </trkpt>
      <trkpt lat="47.7572" lon="-2.31219">
        <ele>49.709847</ele>
        <time>2022-12-14T13:56:46.291Z</time>
      </trkpt>
      <trkpt lat="47.75718" lon="-2.31204">
        <ele>49.650924</ele>
        <time>2022-12-14T13:56:48.294Z</time>
      </trkpt>
      <trkpt lat="47.75716" lon="-2.31189">
        <ele>49.59166</ele>
        <time>2022-12-14T13:56:50.299Z</time>
      </trkpt>
      <trkpt lat="47.75712" lon="-2.31174">
        <ele>49.528848</ele>
        <time>2022-12-14T13:56:52.308Z</time>
      </trkpt>
      <trkpt lat="47.75709" lon="-2.3116">
        <ele>49.469204</ele>
        <time>2022-12-14T13:56:54.304Z</time>
      </trkpt>
      <trkpt lat="47.75705" lon="-2.31147">
        <ele>49.411931</ele>
        <time>2022-12-14T13:56:56.315Z</time>
      </trkpt>
      <trkpt lat="47.757" lon="-2.3113">
        <ele>49.341277</ele>
        <time>2022-12-14T13:56:59.318Z</time>
      </trkpt>
      <trkpt lat="47.75695" lon="-2.31113">
        <ele>49.266361</ele>
        <time>2022-12-14T13:57:02.317Z</time>
      </trkpt>
      <trkpt lat="47.75688" lon="-2.31096">
        <ele>49.187105</ele>
        <time>2022-12-14T13:57:05.306Z</time>
      </trkpt>
      <trkpt lat="47.75684" lon="-2.31083">
        <ele>49.131254</ele>
        <time>2022-12-14T13:57:07.312Z</time>
      </trkpt>
      <trkpt lat="47.75679" lon="-2.31071">
        <ele>49.075244</ele>
        <time>2022-12-14T13:57:09.316Z</time>
      </trkpt>
      <trkpt lat="47.75673" lon="-2.31059">
        <ele>49.018292</ele>
        <time>2022-12-14T13:57:11.317Z</time>
      </trkpt>
      <trkpt lat="47.75667" lon="-2.31048">
        <ele>48.961382</ele>
        <time>2022-12-14T13:57:13.301Z</time>
      </trkpt>
      <trkpt lat="47.7566" lon="-2.31038">
        <ele>48.904862</ele>
        <time>2022-12-14T13:57:15.299Z</time>
      </trkpt>
      <trkpt lat="47.75654" lon="-2.31028">
        <ele>48.849596</ele>
        <time>2022-12-14T13:57:17.312Z</time>
      </trkpt>
      <trkpt lat="47.75644" lon="-2.31016">
        <ele>48.778594</ele>
        <time>2022-12-14T13:57:20.305Z</time>
      </trkpt>
      <trkpt lat="47.75636" lon="-2.31007">
        <ele>48.717381</ele>
        <time>2022-12-14T13:57:23.298Z</time>
      </trkpt>
      <trkpt lat="47.75627" lon="-2.30996">
        <ele>48.698347</ele>
        <time>2022-12-14T13:57:26.318Z</time>
      </trkpt>
      <trkpt lat="47.75616" lon="-2.30986">
        <ele>48.728662</ele>
        <time>2022-12-14T13:57:29.320Z</time>
      </trkpt>
      <trkpt lat="47.75605" lon="-2.30976">
        <ele>48.760128</ele>
        <time>2022-12-14T13:57:32.322Z</time>
      </trkpt>
      <trkpt lat="47.75594" lon="-2.30965">
        <ele>48.79156</ele>
        <time>2022-12-14T13:57:35.320Z</time>
      </trkpt>
      <trkpt lat="47.75586" lon="-2.30958">
        <ele>48.81351</ele>
        <time>2022-12-14T13:57:37.314Z</time>
      </trkpt>
      <trkpt lat="47.75578" lon="-2.30951">
        <ele>48.83588</ele>
        <time>2022-12-14T13:57:39.308Z</time>
      </trkpt>
      <trkpt lat="47.75571" lon="-2.30944">
        <ele>48.857502</ele>
        <time>2022-12-14T13:57:41.322Z</time>
      </trkpt>
      <trkpt lat="47.75564" lon="-2.30934">
        <ele>48.88003</ele>
        <time>2022-12-14T13:57:43.302Z</time>
      </trkpt>
      <trkpt lat="47.75558" lon="-2.30923">
        <ele>48.902658</ele>
        <time>2022-12-14T13:57:45.292Z</time>
      </trkpt>
      <trkpt lat="47.75552" lon="-2.30912">
        <ele>48.925627</ele>
        <time>2022-12-14T13:57:47.316Z</time>
      </trkpt>
      <trkpt lat="47.75546" lon="-2.30901">
        <ele>48.948273</ele>
        <time>2022-12-14T13:57:49.317Z</time>
      </trkpt>
      <trkpt lat="47.75541" lon="-2.30889">
        <ele>48.971278</ele>
        <time>2022-12-14T13:57:51.319Z</time>
      </trkpt>
      <trkpt lat="47.75536" lon="-2.30877">
        <ele>48.993739</ele>
        <time>2022-12-14T13:57:53.318Z</time>
      </trkpt>
      <trkpt lat="47.7553" lon="-2.30866">
        <ele>49.016473</ele>
        <time>2022-12-14T13:57:55.319Z</time>
      </trkpt>
      <trkpt lat="47.75525" lon="-2.30854">
        <ele>49.039606</ele>
        <time>2022-12-14T13:57:57.318Z</time>
      </trkpt>
      <trkpt lat="47.75521" lon="-2.30842">
        <ele>49.06174</ele>
        <time>2022-12-14T13:57:59.320Z</time>
      </trkpt>
      <trkpt lat="47.75515" lon="-2.30823">
        <ele>49.094537</ele>
        <time>2022-12-14T13:58:02.313Z</time>
      </trkpt>
      <trkpt lat="47.7551" lon="-2.30806">
        <ele>49.12199</ele>
        <time>2022-12-14T13:58:05.316Z</time>
      </trkpt>
      <trkpt lat="47.75504" lon="-2.30788">
        <ele>49.14392</ele>
        <time>2022-12-14T13:58:08.320Z</time>
      </trkpt>
      <trkpt lat="47.755" lon="-2.30776">
        <ele>49.159263</ele>
        <time>2022-12-14T13:58:10.322Z</time>
      </trkpt>
      <trkpt lat="47.75497" lon="-2.30763">
        <ele>49.174507</ele>
        <time>2022-12-14T13:58:12.296Z</time>
      </trkpt>
      <trkpt lat="47.75494" lon="-2.3075">
        <ele>49.190124</ele>
        <time>2022-12-14T13:58:14.301Z</time>
      </trkpt>
      <trkpt lat="47.75491" lon="-2.30737">
        <ele>49.206273</ele>
        <time>2022-12-14T13:58:16.300Z</time>
      </trkpt>
      <trkpt lat="47.75488" lon="-2.30724">
        <ele>49.221846</ele>
        <time>2022-12-14T13:58:18.306Z</time>
      </trkpt>
      <trkpt lat="47.75484" lon="-2.30704">
        <ele>49.244682</ele>
        <time>2022-12-14T13:58:21.308Z</time>
      </trkpt>
      <trkpt lat="47.75481" lon="-2.3069">
        <ele>49.261486</ele>
        <time>2022-12-14T13:58:23.296Z</time>
      </trkpt>
      <trkpt lat="47.75478" lon="-2.30675">
        <ele>49.278919</ele>
        <time>2022-12-14T13:58:25.315Z</time>
      </trkpt>
      <trkpt lat="47.75475" lon="-2.30662">
        <ele>49.295045</ele>
        <time>2022-12-14T13:58:27.311Z</time>
      </trkpt>
      <trkpt lat="47.75473" lon="-2.30647">
        <ele>49.311957</ele>
        <time>2022-12-14T13:58:29.309Z</time>
      </trkpt>
      <trkpt lat="47.7547" lon="-2.30633">
        <ele>49.32881</ele>
        <time>2022-12-14T13:58:31.313Z</time>
      </trkpt>
      <trkpt lat="47.75466" lon="-2.30619">
        <ele>49.345932</ele>
        <time>2022-12-14T13:58:33.320Z</time>
      </trkpt>
      <trkpt lat="47.75463" lon="-2.30605">
        <ele>49.362722</ele>
        <time>2022-12-14T13:58:35.313Z</time>
      </trkpt>
      <trkpt lat="47.75459" lon="-2.3059">
        <ele>49.379905</ele>
        <time>2022-12-14T13:58:37.317Z</time>
      </trkpt>
      <trkpt lat="47.75456" lon="-2.30576">
        <ele>49.396969</ele>
        <time>2022-12-14T13:58:39.309Z</time>
      </trkpt>
      <trkpt lat="47.75452" lon="-2.30562">
        <ele>49.41367</ele>
        <time>2022-12-14T13:58:41.318Z</time>
      </trkpt>
      <trkpt lat="47.75449" lon="-2.30549">
        <ele>49.327996</ele>
        <time>2022-12-14T13:58:43.300Z</time>
      </trkpt>
      <trkpt lat="47.75445" lon="-2.30536">
        <ele>49.222184</ele>
        <time>2022-12-14T13:58:45.311Z</time>
      </trkpt>
      <trkpt lat="47.75441" lon="-2.30518">
        <ele>49.072371</ele>
        <time>2022-12-14T13:58:48.309Z</time>
      </trkpt>
      <trkpt lat="47.75436" lon="-2.30501">
        <ele>48.927443</ele>
        <time>2022-12-14T13:58:51.316Z</time>
      </trkpt>
      <trkpt lat="47.7543" lon="-2.30482">
        <ele>48.772634</ele>
        <time>2022-12-14T13:58:54.311Z</time>
      </trkpt>
      <trkpt lat="47.75426" lon="-2.3047">
        <ele>48.668563</ele>
        <time>2022-12-14T13:58:56.316Z</time>
      </trkpt>
      <trkpt lat="47.75422" lon="-2.30458">
        <ele>48.563748</ele>
        <time>2022-12-14T13:58:58.299Z</time>
      </trkpt>
      <trkpt lat="47.75418" lon="-2.30445">
        <ele>48.458242</ele>
        <time>2022-12-14T13:59:00.304Z</time>
      </trkpt>
      <trkpt lat="47.75414" lon="-2.30432">
        <ele>48.3471</ele>
        <time>2022-12-14T13:59:02.320Z</time>
      </trkpt>
      <trkpt lat="47.75409" lon="-2.30419">
        <ele>48.230476</ele>
        <time>2022-12-14T13:59:04.321Z</time>
      </trkpt>
      <trkpt lat="47.75404" lon="-2.30405">
        <ele>48.114197</ele>
        <time>2022-12-14T13:59:06.311Z</time>
      </trkpt>
      <trkpt lat="47.75399" lon="-2.30392">
        <ele>47.998222</ele>
        <time>2022-12-14T13:59:08.316Z</time>
      </trkpt>
      <trkpt lat="47.75394" lon="-2.3038">
        <ele>47.889122</ele>
        <time>2022-12-14T13:59:10.313Z</time>
      </trkpt>
      <trkpt lat="47.75389" lon="-2.30366">
        <ele>47.766055</ele>
        <time>2022-12-14T13:59:12.300Z</time>
      </trkpt>
      <trkpt lat="47.75384" lon="-2.30354">
        <ele>47.657822</ele>
        <time>2022-12-14T13:59:14.304Z</time>
      </trkpt>
      <trkpt lat="47.75377" lon="-2.30342">
        <ele>47.537806</ele>
        <time>2022-12-14T13:59:16.319Z</time>
      </trkpt>
      <trkpt lat="47.75371" lon="-2.3033">
        <ele>47.417962</ele>
        <time>2022-12-14T13:59:18.298Z</time>
      </trkpt>
      <trkpt lat="47.75364" lon="-2.30319">
        <ele>47.398148</ele>
        <time>2022-12-14T13:59:20.318Z</time>
      </trkpt>
      <trkpt lat="47.75357" lon="-2.30308">
        <ele>47.459989</ele>
        <time>2022-12-14T13:59:22.304Z</time>
      </trkpt>
      <trkpt lat="47.75349" lon="-2.30299">
        <ele>47.521295</ele>
        <time>2022-12-14T13:59:24.317Z</time>
      </trkpt>
      <trkpt lat="47.75342" lon="-2.3029">
        <ele>47.578444</ele>
        <time>2022-12-14T13:59:26.319Z</time>
      </trkpt>
      <trkpt lat="47.75335" lon="-2.30281">
        <ele>47.638731</ele>
        <time>2022-12-14T13:59:28.298Z</time>
      </trkpt>
      <trkpt lat="47.75328" lon="-2.30272">
        <ele>47.695519</ele>
        <time>2022-12-14T13:59:30.322Z</time>
      </trkpt>
      <trkpt lat="47.7532" lon="-2.30264">
        <ele>47.756091</ele>
        <time>2022-12-14T13:59:32.321Z</time>
      </trkpt>
      <trkpt lat="47.75312" lon="-2.30256">
        <ele>47.813608</ele>
        <time>2022-12-14T13:59:34.320Z</time>
      </trkpt>
      <trkpt lat="47.75301" lon="-2.30245">
        <ele>47.894946</ele>
        <time>2022-12-14T13:59:37.323Z</time>
      </trkpt>
      <trkpt lat="47.7529" lon="-2.30234">
        <ele>47.978186</ele>
        <time>2022-12-14T13:59:40.309Z</time>
      </trkpt>
      <trkpt lat="47.75282" lon="-2.30227">
        <ele>48.035078</ele>
        <time>2022-12-14T13:59:42.318Z</time>
      </trkpt>
      <trkpt lat="47.75275" lon="-2.30217">
        <ele>48.096371</ele>
        <time>2022-12-14T13:59:44.316Z</time>
      </trkpt>
      <trkpt lat="47.75263" lon="-2.30206">
        <ele>48.181389</ele>
        <time>2022-12-14T13:59:47.317Z</time>
      </trkpt>
      <trkpt lat="47.75255" lon="-2.30199">
        <ele>48.23911</ele>
        <time>2022-12-14T13:59:49.322Z</time>
      </trkpt>
      <trkpt lat="47.75248" lon="-2.30191">
        <ele>48.298882</ele>
        <time>2022-12-14T13:59:51.320Z</time>
      </trkpt>
      <trkpt lat="47.75237" lon="-2.30179">
        <ele>48.38155</ele>
        <time>2022-12-14T13:59:54.314Z</time>
      </trkpt>
      <trkpt lat="47.75228" lon="-2.30166">
        <ele>48.458991</ele>
        <time>2022-12-14T13:59:57.301Z</time>
      </trkpt>
      <trkpt lat="47.75221" lon="-2.30153">
        <ele>48.464276</ele>
        <time>2022-12-14T14:00:00.296Z</time>
      </trkpt>
      <trkpt lat="47.75214" lon="-2.30139">
        <ele>48.439444</ele>
        <time>2022-12-14T14:00:03.301Z</time>
      </trkpt>
      <trkpt lat="47.75206" lon="-2.30125">
        <ele>48.412129</ele>
        <time>2022-12-14T14:00:06.317Z</time>
      </trkpt>
      <trkpt lat="47.75198" lon="-2.3011">
        <ele>48.383847</ele>
        <time>2022-12-14T14:00:09.314Z</time>
      </trkpt>
      <trkpt lat="47.7519" lon="-2.30094">
        <ele>48.35437</ele>
        <time>2022-12-14T14:00:12.308Z</time>
      </trkpt>
      <trkpt lat="47.75184" lon="-2.30083">
        <ele>48.334768</ele>
        <time>2022-12-14T14:00:14.321Z</time>
      </trkpt>
      <trkpt lat="47.75179" lon="-2.30073">
        <ele>48.314785</ele>
        <time>2022-12-14T14:00:16.317Z</time>
      </trkpt>
      <trkpt lat="47.75173" lon="-2.30061">
        <ele>48.294478</ele>
        <time>2022-12-14T14:00:18.313Z</time>
      </trkpt>
      <trkpt lat="47.75168" lon="-2.30049">
        <ele>48.273564</ele>
        <time>2022-12-14T14:00:20.314Z</time>
      </trkpt>
      <trkpt lat="47.75161" lon="-2.30033">
        <ele>48.24507</ele>
        <time>2022-12-14T14:00:23.314Z</time>
      </trkpt>
      <trkpt lat="47.75156" lon="-2.30016">
        <ele>48.218371</ele>
        <time>2022-12-14T14:00:26.299Z</time>
      </trkpt>
      <trkpt lat="47.75152" lon="-2.3">
        <ele>48.193043</ele>
        <time>2022-12-14T14:00:29.318Z</time>
      </trkpt>
      <trkpt lat="47.75147" lon="-2.29983">
        <ele>48.166094</ele>
        <time>2022-12-14T14:00:32.316Z</time>
      </trkpt>
      <trkpt lat="47.75143" lon="-2.29965">
        <ele>48.138445</ele>
        <time>2022-12-14T14:00:35.321Z</time>
      </trkpt>
      <trkpt lat="47.75139" lon="-2.29947">
        <ele>48.110667</ele>
        <time>2022-12-14T14:00:38.318Z</time>
      </trkpt>
      <trkpt lat="47.75135" lon="-2.29929">
        <ele>48.078895</ele>
        <time>2022-12-14T14:00:41.305Z</time>
      </trkpt>
      <trkpt lat="47.75132" lon="-2.29916">
        <ele>48.04777</ele>
        <time>2022-12-14T14:00:43.328Z</time>
      </trkpt>
      <trkpt lat="47.7513" lon="-2.29903">
        <ele>48.016548</ele>
        <time>2022-12-14T14:00:45.322Z</time>
      </trkpt>
      <trkpt lat="47.75127" lon="-2.29889">
        <ele>47.985206</ele>
        <time>2022-12-14T14:00:47.298Z</time>
      </trkpt>
      <trkpt lat="47.75124" lon="-2.29876">
        <ele>47.953863</ele>
        <time>2022-12-14T14:00:49.318Z</time>
      </trkpt>
      <trkpt lat="47.75122" lon="-2.29862">
        <ele>47.920905</ele>
        <time>2022-12-14T14:00:51.321Z</time>
      </trkpt>
      <trkpt lat="47.7512" lon="-2.29848">
        <ele>47.888667</ele>
        <time>2022-12-14T14:00:53.293Z</time>
      </trkpt>
      <trkpt lat="47.75118" lon="-2.29834">
        <ele>47.857201</ele>
        <time>2022-12-14T14:00:55.299Z</time>
      </trkpt>
      <trkpt lat="47.75116" lon="-2.29815">
        <ele>47.812681</ele>
        <time>2022-12-14T14:00:58.325Z</time>
      </trkpt>
      <trkpt lat="47.75115" lon="-2.29801">
        <ele>47.780476</ele>
        <time>2022-12-14T14:01:00.316Z</time>
      </trkpt>
      <trkpt lat="47.75113" lon="-2.29787">
        <ele>47.748804</ele>
        <time>2022-12-14T14:01:02.303Z</time>
      </trkpt>
      <trkpt lat="47.75112" lon="-2.29773">
        <ele>47.717316</ele>
        <time>2022-12-14T14:01:04.306Z</time>
      </trkpt>
      <trkpt lat="47.7511" lon="-2.2976">
        <ele>47.685884</ele>
        <time>2022-12-14T14:01:06.297Z</time>
      </trkpt>
      <trkpt lat="47.75106" lon="-2.29742">
        <ele>47.642543</ele>
        <time>2022-12-14T14:01:09.314Z</time>
      </trkpt>
      <trkpt lat="47.75101" lon="-2.29725">
        <ele>47.601176</ele>
        <time>2022-12-14T14:01:12.322Z</time>
      </trkpt>
      <trkpt lat="47.75097" lon="-2.29707">
        <ele>47.559241</ele>
        <time>2022-12-14T14:01:15.322Z</time>
      </trkpt>
      <trkpt lat="47.75092" lon="-2.29689">
        <ele>47.514912</ele>
        <time>2022-12-14T14:01:18.302Z</time>
      </trkpt>
      <trkpt lat="47.75088" lon="-2.29677">
        <ele>47.484197</ele>
        <time>2022-12-14T14:01:20.298Z</time>
      </trkpt>
      <trkpt lat="47.75085" lon="-2.29664">
        <ele>47.469881</ele>
        <time>2022-12-14T14:01:22.322Z</time>
      </trkpt>
      <trkpt lat="47.7508" lon="-2.29648">
        <ele>47.451948</ele>
        <time>2022-12-14T14:01:25.314Z</time>
      </trkpt>
      <trkpt lat="47.75075" lon="-2.29633">
        <ele>47.435609</ele>
        <time>2022-12-14T14:01:28.319Z</time>
      </trkpt>
      <trkpt lat="47.75071" lon="-2.2962">
        <ele>47.420286</ele>
        <time>2022-12-14T14:01:31.321Z</time>
      </trkpt>
      <trkpt lat="47.75066" lon="-2.29604">
        <ele>47.402699</ele>
        <time>2022-12-14T14:01:35.320Z</time>
      </trkpt>
      <trkpt lat="47.75061" lon="-2.2959">
        <ele>47.38656</ele>
        <time>2022-12-14T14:01:39.307Z</time>
      </trkpt>
      <trkpt lat="47.75056" lon="-2.29576">
        <ele>47.370694</ele>
        <time>2022-12-14T14:01:42.296Z</time>
      </trkpt>
      <trkpt lat="47.7505" lon="-2.29559">
        <ele>47.351619</ele>
        <time>2022-12-14T14:01:45.315Z</time>
      </trkpt>
      <trkpt lat="47.75046" lon="-2.29546">
        <ele>47.336703</ele>
        <time>2022-12-14T14:01:47.318Z</time>
      </trkpt>
      <trkpt lat="47.75041" lon="-2.29534">
        <ele>47.321993</ele>
        <time>2022-12-14T14:01:49.320Z</time>
      </trkpt>
      <trkpt lat="47.75036" lon="-2.2952">
        <ele>47.306151</ele>
        <time>2022-12-14T14:01:51.321Z</time>
      </trkpt>
      <trkpt lat="47.75032" lon="-2.29505">
        <ele>47.290657</ele>
        <time>2022-12-14T14:01:53.299Z</time>
      </trkpt>
      <trkpt lat="47.75028" lon="-2.29492">
        <ele>47.275229</ele>
        <time>2022-12-14T14:01:55.318Z</time>
      </trkpt>
      <trkpt lat="47.75024" lon="-2.29479">
        <ele>47.260718</ele>
        <time>2022-12-14T14:01:57.320Z</time>
      </trkpt>
      <trkpt lat="47.75019" lon="-2.29465">
        <ele>47.245186</ele>
        <time>2022-12-14T14:01:59.316Z</time>
      </trkpt>
      <trkpt lat="47.75014" lon="-2.29452">
        <ele>47.230632</ele>
        <time>2022-12-14T14:02:01.322Z</time>
      </trkpt>
      <trkpt lat="47.7501" lon="-2.29439">
        <ele>47.215468</ele>
        <time>2022-12-14T14:02:03.306Z</time>
      </trkpt>
      <trkpt lat="47.75005" lon="-2.29426">
        <ele>47.245283</ele>
        <time>2022-12-14T14:02:05.320Z</time>
      </trkpt>
      <trkpt lat="47.75" lon="-2.29414">
        <ele>47.283051</ele>
        <time>2022-12-14T14:02:07.313Z</time>
      </trkpt>
      <trkpt lat="47.74994" lon="-2.29403">
        <ele>47.320523</ele>
        <time>2022-12-14T14:02:09.299Z</time>
      </trkpt>
      <trkpt lat="47.74988" lon="-2.29392">
        <ele>47.360007</ele>
        <time>2022-12-14T14:02:11.296Z</time>
      </trkpt>
      <trkpt lat="47.74982" lon="-2.29381">
        <ele>47.398821</ele>
        <time>2022-12-14T14:02:13.299Z</time>
      </trkpt>
      <trkpt lat="47.74976" lon="-2.29369">
        <ele>47.439331</ele>
        <time>2022-12-14T14:02:15.317Z</time>
      </trkpt>
      <trkpt lat="47.74969" lon="-2.29358">
        <ele>47.479117</ele>
        <time>2022-12-14T14:02:17.318Z</time>
      </trkpt>
      <trkpt lat="47.74961" lon="-2.29342">
        <ele>47.531346</ele>
        <time>2022-12-14T14:02:20.311Z</time>
      </trkpt>
      <trkpt lat="47.74952" lon="-2.29327">
        <ele>47.585361</ele>
        <time>2022-12-14T14:02:23.324Z</time>
      </trkpt>
      <trkpt lat="47.74944" lon="-2.29313">
        <ele>47.635758</ele>
        <time>2022-12-14T14:02:26.318Z</time>
      </trkpt>
      <trkpt lat="47.74937" lon="-2.29302">
        <ele>47.674465</ele>
        <time>2022-12-14T14:02:28.320Z</time>
      </trkpt>
      <trkpt lat="47.74928" lon="-2.29288">
        <ele>47.729264</ele>
        <time>2022-12-14T14:02:31.323Z</time>
      </trkpt>
      <trkpt lat="47.74922" lon="-2.29277">
        <ele>47.767301</ele>
        <time>2022-12-14T14:02:33.312Z</time>
      </trkpt>
      <trkpt lat="47.74912" lon="-2.29262">
        <ele>47.823711</ele>
        <time>2022-12-14T14:02:36.323Z</time>
      </trkpt>
      <trkpt lat="47.74905" lon="-2.29253">
        <ele>47.861603</ele>
        <time>2022-12-14T14:02:38.312Z</time>
      </trkpt>
      <trkpt lat="47.74896" lon="-2.29239">
        <ele>47.913936</ele>
        <time>2022-12-14T14:02:41.317Z</time>
      </trkpt>
      <trkpt lat="47.74887" lon="-2.29224">
        <ele>47.928307</ele>
        <time>2022-12-14T14:02:44.319Z</time>
      </trkpt>
      <trkpt lat="47.7488" lon="-2.29215">
        <ele>47.923246</ele>
        <time>2022-12-14T14:02:46.319Z</time>
      </trkpt>
      <trkpt lat="47.74873" lon="-2.29206">
        <ele>47.918006</ele>
        <time>2022-12-14T14:02:48.321Z</time>
      </trkpt>
      <trkpt lat="47.74866" lon="-2.29196">
        <ele>47.912721</ele>
        <time>2022-12-14T14:02:50.324Z</time>
      </trkpt>
      <trkpt lat="47.74859" lon="-2.29187">
        <ele>47.907621</ele>
        <time>2022-12-14T14:02:52.315Z</time>
      </trkpt>
      <trkpt lat="47.74852" lon="-2.29178">
        <ele>47.902453</ele>
        <time>2022-12-14T14:02:54.320Z</time>
      </trkpt>
      <trkpt lat="47.74845" lon="-2.29168">
        <ele>47.897098</ele>
        <time>2022-12-14T14:02:56.322Z</time>
      </trkpt>
      <trkpt lat="47.74837" lon="-2.29159">
        <ele>47.891659</ele>
        <time>2022-12-14T14:02:58.296Z</time>
      </trkpt>
      <trkpt lat="47.7483" lon="-2.29149">
        <ele>47.886244</ele>
        <time>2022-12-14T14:03:00.302Z</time>
      </trkpt>
      <trkpt lat="47.74823" lon="-2.2914">
        <ele>47.881016</ele>
        <time>2022-12-14T14:03:02.321Z</time>
      </trkpt>
      <trkpt lat="47.74813" lon="-2.29131">
        <ele>47.874583</ele>
        <time>2022-12-14T14:03:05.323Z</time>
      </trkpt>
      <trkpt lat="47.74803" lon="-2.29121">
        <ele>47.867917</ele>
        <time>2022-12-14T14:03:08.320Z</time>
      </trkpt>
      <trkpt lat="47.74792" lon="-2.29111">
        <ele>47.860745</ele>
        <time>2022-12-14T14:03:11.320Z</time>
      </trkpt>
      <trkpt lat="47.74781" lon="-2.29101">
        <ele>47.853643</ele>
        <time>2022-12-14T14:03:14.315Z</time>
      </trkpt>
      <trkpt lat="47.74769" lon="-2.29092">
        <ele>47.846364</ele>
        <time>2022-12-14T14:03:17.322Z</time>
      </trkpt>
      <trkpt lat="47.74758" lon="-2.29082">
        <ele>47.839214</ele>
        <time>2022-12-14T14:03:20.310Z</time>
      </trkpt>
      <trkpt lat="47.74747" lon="-2.29073">
        <ele>47.835779</ele>
        <time>2022-12-14T14:03:23.304Z</time>
      </trkpt>
      <trkpt lat="47.74735" lon="-2.29064">
        <ele>47.847391</ele>
        <time>2022-12-14T14:03:26.311Z</time>
      </trkpt>
      <trkpt lat="47.74726" lon="-2.29059">
        <ele>47.856378</ele>
        <time>2022-12-14T14:03:28.313Z</time>
      </trkpt>
      <trkpt lat="47.74714" lon="-2.29049">
        <ele>47.868584</ele>
        <time>2022-12-14T14:03:31.317Z</time>
      </trkpt>
      <trkpt lat="47.74706" lon="-2.29042">
        <ele>47.87696</ele>
        <time>2022-12-14T14:03:33.297Z</time>
      </trkpt>
      <trkpt lat="47.74694" lon="-2.29031">
        <ele>47.888927</ele>
        <time>2022-12-14T14:03:36.319Z</time>
      </trkpt>
      <trkpt lat="47.74685" lon="-2.29023">
        <ele>47.899012</ele>
        <time>2022-12-14T14:03:39.308Z</time>
      </trkpt>
      <trkpt lat="47.74674" lon="-2.29014">
        <ele>47.910053</ele>
        <time>2022-12-14T14:03:42.320Z</time>
      </trkpt>
      <trkpt lat="47.74663" lon="-2.29006">
        <ele>47.921319</ele>
        <time>2022-12-14T14:03:45.313Z</time>
      </trkpt>
      <trkpt lat="47.74654" lon="-2.28999">
        <ele>47.930013</ele>
        <time>2022-12-14T14:03:47.311Z</time>
      </trkpt>
      <trkpt lat="47.74645" lon="-2.28993">
        <ele>47.938627</ele>
        <time>2022-12-14T14:03:49.317Z</time>
      </trkpt>
      <trkpt lat="47.74637" lon="-2.28985">
        <ele>47.947434</ele>
        <time>2022-12-14T14:03:51.324Z</time>
      </trkpt>
      <trkpt lat="47.74629" lon="-2.28979">
        <ele>47.955543</ele>
        <time>2022-12-14T14:03:53.299Z</time>
      </trkpt>
      <trkpt lat="47.74619" lon="-2.28971">
        <ele>47.96585</ele>
        <time>2022-12-14T14:03:56.322Z</time>
      </trkpt>
      <trkpt lat="47.74608" lon="-2.28963">
        <ele>47.976578</ele>
        <time>2022-12-14T14:03:59.322Z</time>
      </trkpt>
      <trkpt lat="47.74597" lon="-2.28955">
        <ele>47.987818</ele>
        <time>2022-12-14T14:04:02.316Z</time>
      </trkpt>
      <trkpt lat="47.74585" lon="-2.28947">
        <ele>48.015107</ele>
        <time>2022-12-14T14:04:05.316Z</time>
      </trkpt>
      <trkpt lat="47.74577" lon="-2.28942">
        <ele>48.051885</ele>
        <time>2022-12-14T14:04:07.321Z</time>
      </trkpt>
      <trkpt lat="47.74568" lon="-2.28937">
        <ele>48.08907</ele>
        <time>2022-12-14T14:04:09.320Z</time>
      </trkpt>
      <trkpt lat="47.74559" lon="-2.28932">
        <ele>48.127205</ele>
        <time>2022-12-14T14:04:11.315Z</time>
      </trkpt>
      <trkpt lat="47.74547" lon="-2.28924">
        <ele>48.179684</ele>
        <time>2022-12-14T14:04:14.318Z</time>
      </trkpt>
      <trkpt lat="47.74537" lon="-2.28915">
        <ele>48.228248</ele>
        <time>2022-12-14T14:04:17.293Z</time>
      </trkpt>
      <trkpt lat="47.74528" lon="-2.28907">
        <ele>48.270779</ele>
        <time>2022-12-14T14:04:20.296Z</time>
      </trkpt>
      <trkpt lat="47.74519" lon="-2.28897">
        <ele>48.314043</ele>
        <time>2022-12-14T14:04:23.300Z</time>
      </trkpt>
      <trkpt lat="47.74511" lon="-2.28885">
        <ele>48.359613</ele>
        <time>2022-12-14T14:04:26.322Z</time>
      </trkpt>
      <trkpt lat="47.74502" lon="-2.28873">
        <ele>48.407426</ele>
        <time>2022-12-14T14:04:29.319Z</time>
      </trkpt>
      <trkpt lat="47.74494" lon="-2.28861">
        <ele>48.454867</ele>
        <time>2022-12-14T14:04:32.313Z</time>
      </trkpt>
      <trkpt lat="47.74485" lon="-2.28848">
        <ele>48.504382</ele>
        <time>2022-12-14T14:04:35.317Z</time>
      </trkpt>
      <trkpt lat="47.74476" lon="-2.28834">
        <ele>48.555811</ele>
        <time>2022-12-14T14:04:38.322Z</time>
      </trkpt>
      <trkpt lat="47.7447" lon="-2.2882">
        <ele>48.600089</ele>
        <time>2022-12-14T14:04:41.306Z</time>
      </trkpt>
      <trkpt lat="47.74465" lon="-2.28805">
        <ele>48.646807</ele>
        <time>2022-12-14T14:04:44.318Z</time>
      </trkpt>
      <trkpt lat="47.74461" lon="-2.28786">
        <ele>48.698792</ele>
        <time>2022-12-14T14:04:47.297Z</time>
      </trkpt>
      <trkpt lat="47.74458" lon="-2.28769">
        <ele>48.850631</ele>
        <time>2022-12-14T14:04:50.321Z</time>
      </trkpt>
      <trkpt lat="47.74456" lon="-2.28753">
        <ele>49.032289</ele>
        <time>2022-12-14T14:04:53.299Z</time>
      </trkpt>
      <trkpt lat="47.74453" lon="-2.28737">
        <ele>49.224018</ele>
        <time>2022-12-14T14:04:56.318Z</time>
      </trkpt>
      <trkpt lat="47.7445" lon="-2.28721">
        <ele>49.407768</ele>
        <time>2022-12-14T14:04:59.321Z</time>
      </trkpt>
      <trkpt lat="47.74447" lon="-2.28705">
        <ele>49.603774</ele>
        <time>2022-12-14T14:05:02.323Z</time>
      </trkpt>
      <trkpt lat="47.74443" lon="-2.28687">
        <ele>49.821426</ele>
        <time>2022-12-14T14:05:05.319Z</time>
      </trkpt>
      <trkpt lat="47.74439" lon="-2.28669">
        <ele>50.032545</ele>
        <time>2022-12-14T14:05:08.321Z</time>
      </trkpt>
      <trkpt lat="47.74437" lon="-2.28654">
        <ele>50.215415</ele>
        <time>2022-12-14T14:05:11.323Z</time>
      </trkpt>
      <trkpt lat="47.74434" lon="-2.28638">
        <ele>50.397866</ele>
        <time>2022-12-14T14:05:14.315Z</time>
      </trkpt>
      <trkpt lat="47.74432" lon="-2.2862">
        <ele>50.607125</ele>
        <time>2022-12-14T14:05:17.313Z</time>
      </trkpt>
      <trkpt lat="47.7443" lon="-2.28601">
        <ele>50.83467</ele>
        <time>2022-12-14T14:05:20.317Z</time>
      </trkpt>
      <trkpt lat="47.74428" lon="-2.28581">
        <ele>51.058242</ele>
        <time>2022-12-14T14:05:23.315Z</time>
      </trkpt>
      <trkpt lat="47.74425" lon="-2.28563">
        <ele>51.271686</ele>
        <time>2022-12-14T14:05:26.308Z</time>
      </trkpt>
      <trkpt lat="47.74423" lon="-2.28544">
        <ele>51.493605</ele>
        <time>2022-12-14T14:05:29.309Z</time>
      </trkpt>
      <trkpt lat="47.74421" lon="-2.28526">
        <ele>51.695815</ele>
        <time>2022-12-14T14:05:32.306Z</time>
      </trkpt>
      <trkpt lat="47.74418" lon="-2.28507">
        <ele>51.765315</ele>
        <time>2022-12-14T14:05:35.318Z</time>
      </trkpt>
      <trkpt lat="47.74416" lon="-2.28494">
        <ele>51.760299</ele>
        <time>2022-12-14T14:05:37.307Z</time>
      </trkpt>
      <trkpt lat="47.74413" lon="-2.28478">
        <ele>51.754447</ele>
        <time>2022-12-14T14:05:39.320Z</time>
      </trkpt>
      <trkpt lat="47.7441" lon="-2.28465">
        <ele>51.74944</ele>
        <time>2022-12-14T14:05:41.319Z</time>
      </trkpt>
      <trkpt lat="47.74408" lon="-2.28452">
        <ele>51.744268</ele>
        <time>2022-12-14T14:05:43.329Z</time>
      </trkpt>
      <trkpt lat="47.74405" lon="-2.28438">
        <ele>51.73889</ele>
        <time>2022-12-14T14:05:45.313Z</time>
      </trkpt>
      <trkpt lat="47.74401" lon="-2.28424">
        <ele>51.733528</ele>
        <time>2022-12-14T14:05:47.313Z</time>
      </trkpt>
      <trkpt lat="47.74399" lon="-2.28411">
        <ele>51.728483</ele>
        <time>2022-12-14T14:05:49.298Z</time>
      </trkpt>
      <trkpt lat="47.74396" lon="-2.28398">
        <ele>51.723337</ele>
        <time>2022-12-14T14:05:51.318Z</time>
      </trkpt>
      <trkpt lat="47.74392" lon="-2.28378">
        <ele>51.716054</ele>
        <time>2022-12-14T14:05:54.322Z</time>
      </trkpt>
      <trkpt lat="47.7439" lon="-2.28365">
        <ele>51.711028</ele>
        <time>2022-12-14T14:05:56.301Z</time>
      </trkpt>
      <trkpt lat="47.74388" lon="-2.2835">
        <ele>51.705493</ele>
        <time>2022-12-14T14:05:58.315Z</time>
      </trkpt>
      <trkpt lat="47.74387" lon="-2.28336">
        <ele>51.700054</ele>
        <time>2022-12-14T14:06:00.315Z</time>
      </trkpt>
      <trkpt lat="47.74387" lon="-2.28321">
        <ele>51.694735</ele>
        <time>2022-12-14T14:06:02.320Z</time>
      </trkpt>
      <trkpt lat="47.74388" lon="-2.28307">
        <ele>51.689365</ele>
        <time>2022-12-14T14:06:04.315Z</time>
      </trkpt>
      <trkpt lat="47.74387" lon="-2.28292">
        <ele>51.684069</ele>
        <time>2022-12-14T14:06:06.320Z</time>
      </trkpt>
      <trkpt lat="47.74388" lon="-2.28277">
        <ele>51.678418</ele>
        <time>2022-12-14T14:06:08.322Z</time>
      </trkpt>
      <trkpt lat="47.74387" lon="-2.28263">
        <ele>51.673295</ele>
        <time>2022-12-14T14:06:10.321Z</time>
      </trkpt>
      <trkpt lat="47.74385" lon="-2.2825">
        <ele>51.601675</ele>
        <time>2022-12-14T14:06:12.317Z</time>
      </trkpt>
      <trkpt lat="47.74382" lon="-2.28232">
        <ele>51.473099</ele>
        <time>2022-12-14T14:06:15.301Z</time>
      </trkpt>
      <trkpt lat="47.74378" lon="-2.28217">
        <ele>51.360415</ele>
        <time>2022-12-14T14:06:18.318Z</time>
      </trkpt>
      <trkpt lat="47.74375" lon="-2.28204">
        <ele>51.26338</ele>
        <time>2022-12-14T14:06:20.321Z</time>
      </trkpt>
      <trkpt lat="47.74371" lon="-2.28191">
        <ele>51.165444</ele>
        <time>2022-12-14T14:06:22.303Z</time>
      </trkpt>
      <trkpt lat="47.74367" lon="-2.28178">
        <ele>51.065938</ele>
        <time>2022-12-14T14:06:24.319Z</time>
      </trkpt>
      <trkpt lat="47.74362" lon="-2.28166">
        <ele>50.966166</ele>
        <time>2022-12-14T14:06:26.323Z</time>
      </trkpt>
      <trkpt lat="47.74357" lon="-2.28154">
        <ele>50.86796</ele>
        <time>2022-12-14T14:06:28.321Z</time>
      </trkpt>
      <trkpt lat="47.74353" lon="-2.28141">
        <ele>50.769563</ele>
        <time>2022-12-14T14:06:30.321Z</time>
      </trkpt>
      <trkpt lat="47.74348" lon="-2.28129">
        <ele>50.67439</ele>
        <time>2022-12-14T14:06:32.322Z</time>
      </trkpt>
      <trkpt lat="47.74343" lon="-2.28118">
        <ele>50.579218</ele>
        <time>2022-12-14T14:06:34.323Z</time>
      </trkpt>
      <trkpt lat="47.74338" lon="-2.28106">
        <ele>50.478325</ele>
        <time>2022-12-14T14:06:36.295Z</time>
      </trkpt>
      <trkpt lat="47.74331" lon="-2.28095">
        <ele>50.374082</ele>
        <time>2022-12-14T14:06:38.323Z</time>
      </trkpt>
      <trkpt lat="47.74326" lon="-2.28084">
        <ele>50.279583</ele>
        <time>2022-12-14T14:06:40.309Z</time>
      </trkpt>
      <trkpt lat="47.7432" lon="-2.28071">
        <ele>50.174112</ele>
        <time>2022-12-14T14:06:42.322Z</time>
      </trkpt>
      <trkpt lat="47.74314" lon="-2.28056">
        <ele>50.04891</ele>
        <time>2022-12-14T14:06:45.320Z</time>
      </trkpt>
      <trkpt lat="47.74309" lon="-2.28041">
        <ele>49.931642</ele>
        <time>2022-12-14T14:06:48.299Z</time>
      </trkpt>
      <trkpt lat="47.74305" lon="-2.28024">
        <ele>49.804709</ele>
        <time>2022-12-14T14:06:51.326Z</time>
      </trkpt>
      <trkpt lat="47.74301" lon="-2.28005">
        <ele>49.876687</ele>
        <time>2022-12-14T14:06:54.295Z</time>
      </trkpt>
      <trkpt lat="47.74299" lon="-2.27992">
        <ele>49.926372</ele>
        <time>2022-12-14T14:06:56.317Z</time>
      </trkpt>
      <trkpt lat="47.74297" lon="-2.27979">
        <ele>49.976024</ele>
        <time>2022-12-14T14:06:58.303Z</time>
      </trkpt>
      <trkpt lat="47.74295" lon="-2.27965">
        <ele>50.028089</ele>
        <time>2022-12-14T14:07:00.321Z</time>
      </trkpt>
      <trkpt lat="47.74293" lon="-2.27951">
        <ele>50.080998</ele>
        <time>2022-12-14T14:07:02.324Z</time>
      </trkpt>
      <trkpt lat="47.74291" lon="-2.27938">
        <ele>50.130479</ele>
        <time>2022-12-14T14:07:04.323Z</time>
      </trkpt>
      <trkpt lat="47.74289" lon="-2.27919">
        <ele>50.199461</ele>
        <time>2022-12-14T14:07:07.323Z</time>
      </trkpt>
      <trkpt lat="47.74287" lon="-2.27902">
        <ele>50.264142</ele>
        <time>2022-12-14T14:07:10.307Z</time>
      </trkpt>
      <trkpt lat="47.74284" lon="-2.27885">
        <ele>50.32907</ele>
        <time>2022-12-14T14:07:13.318Z</time>
      </trkpt>
      <trkpt lat="47.74282" lon="-2.27866">
        <ele>50.399966</ele>
        <time>2022-12-14T14:07:16.308Z</time>
      </trkpt>
      <trkpt lat="47.7428" lon="-2.27847">
        <ele>50.471253</ele>
        <time>2022-12-14T14:07:19.293Z</time>
      </trkpt>
      <trkpt lat="47.74279" lon="-2.27833">
        <ele>50.522837</ele>
        <time>2022-12-14T14:07:21.310Z</time>
      </trkpt>
      <trkpt lat="47.74278" lon="-2.2782">
        <ele>50.572683</ele>
        <time>2022-12-14T14:07:23.302Z</time>
      </trkpt>
      <trkpt lat="47.74276" lon="-2.27801">
        <ele>50.643759</ele>
        <time>2022-12-14T14:07:26.320Z</time>
      </trkpt>
      <trkpt lat="47.74275" lon="-2.27784">
        <ele>50.707157</ele>
        <time>2022-12-14T14:07:29.324Z</time>
      </trkpt>
      <trkpt lat="47.74274" lon="-2.27767">
        <ele>50.770146</ele>
        <time>2022-12-14T14:07:32.321Z</time>
      </trkpt>
      <trkpt lat="47.74274" lon="-2.27749">
        <ele>50.748873</ele>
        <time>2022-12-14T14:07:35.325Z</time>
      </trkpt>
      <trkpt lat="47.74274" lon="-2.27732">
        <ele>50.680832</ele>
        <time>2022-12-14T14:07:38.303Z</time>
      </trkpt>
      <trkpt lat="47.74274" lon="-2.27714">
        <ele>50.608851</ele>
        <time>2022-12-14T14:07:41.322Z</time>
      </trkpt>
      <trkpt lat="47.74275" lon="-2.27695">
        <ele>50.535978</ele>
        <time>2022-12-14T14:07:44.322Z</time>
      </trkpt>
      <trkpt lat="47.74276" lon="-2.27676">
        <ele>50.461025</ele>
        <time>2022-12-14T14:07:47.314Z</time>
      </trkpt>
      <trkpt lat="47.74277" lon="-2.27657">
        <ele>50.384936</ele>
        <time>2022-12-14T14:07:50.317Z</time>
      </trkpt>
      <trkpt lat="47.7428" lon="-2.27638">
        <ele>50.310172</ele>
        <time>2022-12-14T14:07:53.320Z</time>
      </trkpt>
      <trkpt lat="47.74282" lon="-2.2762">
        <ele>50.238002</ele>
        <time>2022-12-14T14:07:56.319Z</time>
      </trkpt>
      <trkpt lat="47.74285" lon="-2.27602">
        <ele>50.163935</ele>
        <time>2022-12-14T14:07:59.300Z</time>
      </trkpt>
      <trkpt lat="47.74288" lon="-2.27583">
        <ele>50.088129</ele>
        <time>2022-12-14T14:08:02.323Z</time>
      </trkpt>
      <trkpt lat="47.74292" lon="-2.27565">
        <ele>50.011703</ele>
        <time>2022-12-14T14:08:05.323Z</time>
      </trkpt>
      <trkpt lat="47.74296" lon="-2.27549">
        <ele>49.944519</ele>
        <time>2022-12-14T14:08:08.315Z</time>
      </trkpt>
      <trkpt lat="47.74301" lon="-2.27533">
        <ele>49.876199</ele>
        <time>2022-12-14T14:08:11.321Z</time>
      </trkpt>
      <trkpt lat="47.74308" lon="-2.27517">
        <ele>49.801114</ele>
        <time>2022-12-14T14:08:14.321Z</time>
      </trkpt>
      <trkpt lat="47.74317" lon="-2.27502">
        <ele>49.738632</ele>
        <time>2022-12-14T14:08:17.323Z</time>
      </trkpt>
      <trkpt lat="47.74325" lon="-2.27486">
        <ele>49.728909</ele>
        <time>2022-12-14T14:08:20.319Z</time>
      </trkpt>
      <trkpt lat="47.74333" lon="-2.27472">
        <ele>49.719677</ele>
        <time>2022-12-14T14:08:23.305Z</time>
      </trkpt>
      <trkpt lat="47.74341" lon="-2.2746">
        <ele>49.711314</ele>
        <time>2022-12-14T14:08:26.317Z</time>
      </trkpt>
      <trkpt lat="47.74349" lon="-2.27448">
        <ele>49.703238</ele>
        <time>2022-12-14T14:08:29.299Z</time>
      </trkpt>
      <trkpt lat="47.74356" lon="-2.27436">
        <ele>49.695075</ele>
        <time>2022-12-14T14:08:32.316Z</time>
      </trkpt>
      <trkpt lat="47.74365" lon="-2.27422">
        <ele>49.685707</ele>
        <time>2022-12-14T14:08:35.319Z</time>
      </trkpt>
      <trkpt lat="47.74373" lon="-2.27407">
        <ele>49.676093</ele>
        <time>2022-12-14T14:08:38.305Z</time>
      </trkpt>
      <trkpt lat="47.7438" lon="-2.27393">
        <ele>49.66766</ele>
        <time>2022-12-14T14:08:41.317Z</time>
      </trkpt>
      <trkpt lat="47.74384" lon="-2.27379">
        <ele>49.659908</ele>
        <time>2022-12-14T14:08:44.314Z</time>
      </trkpt>
      <trkpt lat="47.74389" lon="-2.27363">
        <ele>49.651243</ele>
        <time>2022-12-14T14:08:47.319Z</time>
      </trkpt>
      <trkpt lat="47.74392" lon="-2.27343">
        <ele>49.64155</ele>
        <time>2022-12-14T14:08:50.321Z</time>
      </trkpt>
      <trkpt lat="47.74395" lon="-2.27325">
        <ele>49.632033</ele>
        <time>2022-12-14T14:08:53.314Z</time>
      </trkpt>
      <trkpt lat="47.74397" lon="-2.27305">
        <ele>49.622181</ele>
        <time>2022-12-14T14:08:56.322Z</time>
      </trkpt>
      <trkpt lat="47.74399" lon="-2.27285">
        <ele>49.612499</ele>
        <time>2022-12-14T14:08:59.319Z</time>
      </trkpt>
      <trkpt lat="47.744" lon="-2.27268">
        <ele>49.793042</ele>
        <time>2022-12-14T14:09:02.343Z</time>
      </trkpt>
      <trkpt lat="47.74401" lon="-2.27251">
        <ele>50.08998</ele>
        <time>2022-12-14T14:09:05.313Z</time>
      </trkpt>
      <trkpt lat="47.74401" lon="-2.27234">
        <ele>50.401014</ele>
        <time>2022-12-14T14:09:08.320Z</time>
      </trkpt>
      <trkpt lat="47.74402" lon="-2.27216">
        <ele>50.727376</ele>
        <time>2022-12-14T14:09:11.322Z</time>
      </trkpt>
      <trkpt lat="47.74404" lon="-2.27198">
        <ele>51.049695</ele>
        <time>2022-12-14T14:09:14.325Z</time>
      </trkpt>
      <trkpt lat="47.74407" lon="-2.2718">
        <ele>51.373252</ele>
        <time>2022-12-14T14:09:17.325Z</time>
      </trkpt>
      <trkpt lat="47.74411" lon="-2.27164">
        <ele>51.681469</ele>
        <time>2022-12-14T14:09:20.314Z</time>
      </trkpt>
      <trkpt lat="47.74416" lon="-2.27147">
        <ele>51.993241</ele>
        <time>2022-12-14T14:09:23.302Z</time>
      </trkpt>
      <trkpt lat="47.74422" lon="-2.2713">
        <ele>52.347747</ele>
        <time>2022-12-14T14:09:26.297Z</time>
      </trkpt>
      <trkpt lat="47.7443" lon="-2.27117">
        <ele>52.64756</ele>
        <time>2022-12-14T14:09:28.319Z</time>
      </trkpt>
      <trkpt lat="47.74437" lon="-2.27107">
        <ele>52.910897</ele>
        <time>2022-12-14T14:09:30.320Z</time>
      </trkpt>
      <trkpt lat="47.74444" lon="-2.27092">
        <ele>53.230011</ele>
        <time>2022-12-14T14:09:33.322Z</time>
      </trkpt>
      <trkpt lat="47.74452" lon="-2.2708">
        <ele>53.533325</ele>
        <time>2022-12-14T14:09:36.316Z</time>
      </trkpt>
      <trkpt lat="47.74459" lon="-2.27068">
        <ele>53.827844</ele>
        <time>2022-12-14T14:09:39.297Z</time>
      </trkpt>
      <trkpt lat="47.74467" lon="-2.27055">
        <ele>54.134477</ele>
        <time>2022-12-14T14:09:42.325Z</time>
      </trkpt>
      <trkpt lat="47.74474" lon="-2.27042">
        <ele>54.359147</ele>
        <time>2022-12-14T14:09:45.322Z</time>
      </trkpt>
      <trkpt lat="47.74482" lon="-2.27029">
        <ele>54.355146</ele>
        <time>2022-12-14T14:09:48.319Z</time>
      </trkpt>
      <trkpt lat="47.74489" lon="-2.27018">
        <ele>54.351478</ele>
        <time>2022-12-14T14:09:51.323Z</time>
      </trkpt>
      <trkpt lat="47.74498" lon="-2.27008">
        <ele>54.347821</ele>
        <time>2022-12-14T14:09:54.320Z</time>
      </trkpt>
      <trkpt lat="47.74506" lon="-2.27">
        <ele>54.344232</ele>
        <time>2022-12-14T14:09:57.297Z</time>
      </trkpt>
      <trkpt lat="47.74516" lon="-2.26992">
        <ele>54.340275</ele>
        <time>2022-12-14T14:10:00.321Z</time>
      </trkpt>
      <trkpt lat="47.74527" lon="-2.26986">
        <ele>54.336301</ele>
        <time>2022-12-14T14:10:03.302Z</time>
      </trkpt>
      <trkpt lat="47.74536" lon="-2.26982">
        <ele>54.333083</ele>
        <time>2022-12-14T14:10:05.300Z</time>
      </trkpt>
      <trkpt lat="47.74545" lon="-2.26979">
        <ele>54.329835</ele>
        <time>2022-12-14T14:10:07.320Z</time>
      </trkpt>
      <trkpt lat="47.74557" lon="-2.26974">
        <ele>54.32543</ele>
        <time>2022-12-14T14:10:10.320Z</time>
      </trkpt>
      <trkpt lat="47.74568" lon="-2.2697">
        <ele>54.321257</ele>
        <time>2022-12-14T14:10:13.317Z</time>
      </trkpt>
      <trkpt lat="47.74581" lon="-2.26964">
        <ele>54.316695</ele>
        <time>2022-12-14T14:10:16.315Z</time>
      </trkpt>
      <trkpt lat="47.74591" lon="-2.26959">
        <ele>54.312703</ele>
        <time>2022-12-14T14:10:19.325Z</time>
      </trkpt>
      <trkpt lat="47.74602" lon="-2.26951">
        <ele>54.308694</ele>
        <time>2022-12-14T14:10:21.316Z</time>
      </trkpt>
      <trkpt lat="47.74611" lon="-2.26943">
        <ele>54.305014</ele>
        <time>2022-12-14T14:10:23.307Z</time>
      </trkpt>
      <trkpt lat="47.74618" lon="-2.26934">
        <ele>54.301786</ele>
        <time>2022-12-14T14:10:25.301Z</time>
      </trkpt>
      <trkpt lat="47.74624" lon="-2.2692">
        <ele>54.297639</ele>
        <time>2022-12-14T14:10:28.311Z</time>
      </trkpt>
      <trkpt lat="47.74631" lon="-2.26905">
        <ele>53.935536</ele>
        <time>2022-12-14T14:10:31.316Z</time>
      </trkpt>
      <trkpt lat="47.74636" lon="-2.26889">
        <ele>53.523809</ele>
        <time>2022-12-14T14:10:34.319Z</time>
      </trkpt>
      <trkpt lat="47.74641" lon="-2.26872">
        <ele>53.098098</ele>
        <time>2022-12-14T14:10:37.325Z</time>
      </trkpt>
      <trkpt lat="47.74643" lon="-2.26854">
        <ele>52.658757</ele>
        <time>2022-12-14T14:10:40.297Z</time>
      </trkpt>
      <trkpt lat="47.74644" lon="-2.26834">
        <ele>52.207635</ele>
        <time>2022-12-14T14:10:43.299Z</time>
      </trkpt>
      <trkpt lat="47.74643" lon="-2.26815">
        <ele>51.754188</ele>
        <time>2022-12-14T14:10:46.306Z</time>
      </trkpt>
      <trkpt lat="47.7464" lon="-2.26797">
        <ele>51.312701</ele>
        <time>2022-12-14T14:10:49.301Z</time>
      </trkpt>
      <trkpt lat="47.74635" lon="-2.26781">
        <ele>50.903401</ele>
        <time>2022-12-14T14:10:52.300Z</time>
      </trkpt>
      <trkpt lat="47.74629" lon="-2.26769">
        <ele>50.565825</ele>
        <time>2022-12-14T14:10:55.301Z</time>
      </trkpt>
      <trkpt lat="47.74622" lon="-2.26759">
        <ele>50.228444</ele>
        <time>2022-12-14T14:10:58.301Z</time>
      </trkpt>
      <trkpt lat="47.74613" lon="-2.26747">
        <ele>49.808224</ele>
        <time>2022-12-14T14:11:01.320Z</time>
      </trkpt>
      <trkpt lat="47.74603" lon="-2.26735">
        <ele>49.372161</ele>
        <time>2022-12-14T14:11:04.316Z</time>
      </trkpt>
      <trkpt lat="47.74593" lon="-2.26723">
        <ele>48.920647</ele>
        <time>2022-12-14T14:11:07.297Z</time>
      </trkpt>
      <trkpt lat="47.74584" lon="-2.26709">
        <ele>48.460953</ele>
        <time>2022-12-14T14:11:10.322Z</time>
      </trkpt>
      <trkpt lat="47.74576" lon="-2.26695">
        <ele>48.059924</ele>
        <time>2022-12-14T14:11:13.301Z</time>
      </trkpt>
      <trkpt lat="47.74569" lon="-2.26679">
        <ele>48.062831</ele>
        <time>2022-12-14T14:11:16.323Z</time>
      </trkpt>
      <trkpt lat="47.74563" lon="-2.26663">
        <ele>48.06573</ele>
        <time>2022-12-14T14:11:19.314Z</time>
      </trkpt>
      <trkpt lat="47.74558" lon="-2.26649">
        <ele>48.068215</ele>
        <time>2022-12-14T14:11:22.297Z</time>
      </trkpt>
      <trkpt lat="47.74552" lon="-2.26633">
        <ele>48.071062</ele>
        <time>2022-12-14T14:11:25.317Z</time>
      </trkpt>
      <trkpt lat="47.74548" lon="-2.26616">
        <ele>48.073797</ele>
        <time>2022-12-14T14:11:28.318Z</time>
      </trkpt>
      <trkpt lat="47.74545" lon="-2.26599">
        <ele>48.076479</ele>
        <time>2022-12-14T14:11:31.309Z</time>
      </trkpt>
      <trkpt lat="47.74543" lon="-2.26582">
        <ele>48.079242</ele>
        <time>2022-12-14T14:11:34.319Z</time>
      </trkpt>
      <trkpt lat="47.74541" lon="-2.26565">
        <ele>48.081979</ele>
        <time>2022-12-14T14:11:37.324Z</time>
      </trkpt>
      <trkpt lat="47.74539" lon="-2.26549">
        <ele>48.084496</ele>
        <time>2022-12-14T14:11:40.305Z</time>
      </trkpt>
      <trkpt lat="47.74537" lon="-2.26534">
        <ele>48.086766</ele>
        <time>2022-12-14T14:11:43.323Z</time>
      </trkpt>
      <trkpt lat="47.74536" lon="-2.26518">
        <ele>48.089344</ele>
        <time>2022-12-14T14:11:47.323Z</time>
      </trkpt>
      <trkpt lat="47.74534" lon="-2.26502">
        <ele>48.091866</ele>
        <time>2022-12-14T14:11:51.322Z</time>
      </trkpt>
      <trkpt lat="47.74531" lon="-2.26486">
        <ele>48.094337</ele>
        <time>2022-12-14T14:11:55.322Z</time>
      </trkpt>
      <trkpt lat="47.7453" lon="-2.26473">
        <ele>48.096443</ele>
        <time>2022-12-14T14:11:58.310Z</time>
      </trkpt>
      <trkpt lat="47.74528" lon="-2.26456">
        <ele>48.099073</ele>
        <time>2022-12-14T14:12:02.320Z</time>
      </trkpt>
      <trkpt lat="47.74527" lon="-2.2644">
        <ele>48.104607</ele>
        <time>2022-12-14T14:12:06.304Z</time>
      </trkpt>
      <trkpt lat="47.74528" lon="-2.26425">
        <ele>48.130001</ele>
        <time>2022-12-14T14:12:10.302Z</time>
      </trkpt>
      <trkpt lat="47.74528" lon="-2.26411">
        <ele>48.152574</ele>
        <time>2022-12-14T14:12:14.306Z</time>
      </trkpt>
      <trkpt lat="47.74527" lon="-2.26398">
        <ele>48.175654</ele>
        <time>2022-12-14T14:12:18.301Z</time>
      </trkpt>
      <trkpt lat="47.74528" lon="-2.26384">
        <ele>48.198521</ele>
        <time>2022-12-14T14:12:21.322Z</time>
      </trkpt>
      <trkpt lat="47.74525" lon="-2.26367">
        <ele>48.227146</ele>
        <time>2022-12-14T14:12:24.301Z</time>
      </trkpt>
      <trkpt lat="47.74524" lon="-2.26348">
        <ele>48.259401</ele>
        <time>2022-12-14T14:12:27.322Z</time>
      </trkpt>
      <trkpt lat="47.74522" lon="-2.26335">
        <ele>48.281699</ele>
        <time>2022-12-14T14:12:29.299Z</time>
      </trkpt>
      <trkpt lat="47.7452" lon="-2.26318">
        <ele>48.310527</ele>
        <time>2022-12-14T14:12:32.301Z</time>
      </trkpt>
      <trkpt lat="47.74519" lon="-2.26302">
        <ele>48.337097</ele>
        <time>2022-12-14T14:12:35.300Z</time>
      </trkpt>
      <trkpt lat="47.74516" lon="-2.26288">
        <ele>48.361639</ele>
        <time>2022-12-14T14:12:38.322Z</time>
      </trkpt>
      <trkpt lat="47.74514" lon="-2.26274">
        <ele>48.384927</ele>
        <time>2022-12-14T14:12:41.322Z</time>
      </trkpt>
      <trkpt lat="47.74511" lon="-2.26259">
        <ele>48.411981</ele>
        <time>2022-12-14T14:12:44.313Z</time>
      </trkpt>
      <trkpt lat="47.74506" lon="-2.26243">
        <ele>48.440964</ele>
        <time>2022-12-14T14:12:47.304Z</time>
      </trkpt>
      <trkpt lat="47.745" lon="-2.26227">
        <ele>48.471477</ele>
        <time>2022-12-14T14:12:50.305Z</time>
      </trkpt>
      <trkpt lat="47.74493" lon="-2.26212">
        <ele>48.501664</ele>
        <time>2022-12-14T14:12:53.301Z</time>
      </trkpt>
      <trkpt lat="47.74484" lon="-2.26197">
        <ele>48.534049</ele>
        <time>2022-12-14T14:12:56.322Z</time>
      </trkpt>
      <trkpt lat="47.74478" lon="-2.26187">
        <ele>48.529032</ele>
        <time>2022-12-14T14:12:58.322Z</time>
      </trkpt>
      <trkpt lat="47.74471" lon="-2.26177">
        <ele>48.4948</ele>
        <time>2022-12-14T14:13:00.322Z</time>
      </trkpt>
      <trkpt lat="47.74465" lon="-2.26167">
        <ele>48.460676</ele>
        <time>2022-12-14T14:13:02.301Z</time>
      </trkpt>
      <trkpt lat="47.74458" lon="-2.26158">
        <ele>48.425743</ele>
        <time>2022-12-14T14:13:04.316Z</time>
      </trkpt>
      <trkpt lat="47.74451" lon="-2.26148">
        <ele>48.391253</ele>
        <time>2022-12-14T14:13:06.320Z</time>
      </trkpt>
      <trkpt lat="47.74442" lon="-2.26135">
        <ele>48.344547</ele>
        <time>2022-12-14T14:13:09.324Z</time>
      </trkpt>
      <trkpt lat="47.74432" lon="-2.26125">
        <ele>48.301022</ele>
        <time>2022-12-14T14:13:12.313Z</time>
      </trkpt>
      <trkpt lat="47.74425" lon="-2.26113">
        <ele>48.259686</ele>
        <time>2022-12-14T14:13:15.317Z</time>
      </trkpt>
      <trkpt lat="47.74417" lon="-2.26102">
        <ele>48.219406</ele>
        <time>2022-12-14T14:13:18.299Z</time>
      </trkpt>
      <trkpt lat="47.74409" lon="-2.26089">
        <ele>48.175781</ele>
        <time>2022-12-14T14:13:21.324Z</time>
      </trkpt>
      <trkpt lat="47.744" lon="-2.26077">
        <ele>48.131457</ele>
        <time>2022-12-14T14:13:24.320Z</time>
      </trkpt>
      <trkpt lat="47.74391" lon="-2.26064">
        <ele>48.085727</ele>
        <time>2022-12-14T14:13:27.322Z</time>
      </trkpt>
      <trkpt lat="47.74382" lon="-2.26051">
        <ele>48.03688</ele>
        <time>2022-12-14T14:13:30.299Z</time>
      </trkpt>
      <trkpt lat="47.74372" lon="-2.26038">
        <ele>47.989239</ele>
        <time>2022-12-14T14:13:33.321Z</time>
      </trkpt>
      <trkpt lat="47.74364" lon="-2.26031">
        <ele>47.955215</ele>
        <time>2022-12-14T14:13:35.327Z</time>
      </trkpt>
      <trkpt lat="47.74356" lon="-2.26024">
        <ele>47.920782</ele>
        <time>2022-12-14T14:13:37.328Z</time>
      </trkpt>
      <trkpt lat="47.74348" lon="-2.26017">
        <ele>47.885531</ele>
        <time>2022-12-14T14:13:39.308Z</time>
      </trkpt>
      <trkpt lat="47.7434" lon="-2.2601">
        <ele>47.995004</ele>
        <time>2022-12-14T14:13:41.322Z</time>
      </trkpt>
      <trkpt lat="47.74331" lon="-2.26006">
        <ele>48.13515</ele>
        <time>2022-12-14T14:13:43.325Z</time>
      </trkpt>
      <trkpt lat="47.74319" lon="-2.25998">
        <ele>48.337602</ele>
        <time>2022-12-14T14:13:46.319Z</time>
      </trkpt>
      <trkpt lat="47.74307" lon="-2.25993">
        <ele>48.529232</ele>
        <time>2022-12-14T14:13:49.320Z</time>
      </trkpt>
      <trkpt lat="47.74294" lon="-2.25987">
        <ele>48.734593</ele>
        <time>2022-12-14T14:13:52.324Z</time>
      </trkpt>
      <trkpt lat="47.74285" lon="-2.25984">
        <ele>48.877104</ele>
        <time>2022-12-14T14:13:54.317Z</time>
      </trkpt>
      <trkpt lat="47.74275" lon="-2.25983">
        <ele>49.019429</ele>
        <time>2022-12-14T14:13:56.315Z</time>
      </trkpt>
      <trkpt lat="47.74266" lon="-2.25983">
        <ele>49.165493</ele>
        <time>2022-12-14T14:13:58.321Z</time>
      </trkpt>
      <trkpt lat="47.74257" lon="-2.25983">
        <ele>49.303946</ele>
        <time>2022-12-14T14:14:00.320Z</time>
      </trkpt>
      <trkpt lat="47.74247" lon="-2.25982">
        <ele>49.447197</ele>
        <time>2022-12-14T14:14:02.321Z</time>
      </trkpt>
      <trkpt lat="47.74237" lon="-2.25981">
        <ele>49.596893</ele>
        <time>2022-12-14T14:14:04.321Z</time>
      </trkpt>
      <trkpt lat="47.74228" lon="-2.25979">
        <ele>49.742474</ele>
        <time>2022-12-14T14:14:06.322Z</time>
      </trkpt>
      <trkpt lat="47.74215" lon="-2.25976">
        <ele>49.946846</ele>
        <time>2022-12-14T14:14:09.320Z</time>
      </trkpt>
      <trkpt lat="47.74202" lon="-2.25972">
        <ele>50.148211</ele>
        <time>2022-12-14T14:14:12.317Z</time>
      </trkpt>
      <trkpt lat="47.74193" lon="-2.25968">
        <ele>50.287523</ele>
        <time>2022-12-14T14:14:14.320Z</time>
      </trkpt>
      <trkpt lat="47.74184" lon="-2.25964">
        <ele>50.428139</ele>
        <time>2022-12-14T14:14:16.326Z</time>
      </trkpt>
      <trkpt lat="47.74175" lon="-2.25959">
        <ele>50.575417</ele>
        <time>2022-12-14T14:14:18.324Z</time>
      </trkpt>
      <trkpt lat="47.74166" lon="-2.25953">
        <ele>50.448131</ele>
        <time>2022-12-14T14:14:20.310Z</time>
      </trkpt>
      <trkpt lat="47.74157" lon="-2.25947">
        <ele>50.229289</ele>
        <time>2022-12-14T14:14:22.323Z</time>
      </trkpt>
      <trkpt lat="47.74148" lon="-2.25942">
        <ele>50.013431</ele>
        <time>2022-12-14T14:14:24.329Z</time>
      </trkpt>
      <trkpt lat="47.74137" lon="-2.25933">
        <ele>49.71324</ele>
        <time>2022-12-14T14:14:27.319Z</time>
      </trkpt>
      <trkpt lat="47.74125" lon="-2.25923">
        <ele>49.418115</ele>
        <time>2022-12-14T14:14:30.304Z</time>
      </trkpt>
      <trkpt lat="47.74117" lon="-2.25917">
        <ele>49.211008</ele>
        <time>2022-12-14T14:14:32.323Z</time>
      </trkpt>
      <trkpt lat="47.74109" lon="-2.2591">
        <ele>48.998153</ele>
        <time>2022-12-14T14:14:34.324Z</time>
      </trkpt>
      <trkpt lat="47.74101" lon="-2.25902">
        <ele>48.777921</ele>
        <time>2022-12-14T14:14:36.320Z</time>
      </trkpt>
      <trkpt lat="47.74093" lon="-2.25895">
        <ele>48.568843</ele>
        <time>2022-12-14T14:14:38.304Z</time>
      </trkpt>
      <trkpt lat="47.74085" lon="-2.25887">
        <ele>48.348802</ele>
        <time>2022-12-14T14:14:40.328Z</time>
      </trkpt>
      <trkpt lat="47.74075" lon="-2.25875">
        <ele>48.045935</ele>
        <time>2022-12-14T14:14:43.302Z</time>
      </trkpt>
      <trkpt lat="47.74066" lon="-2.25867">
        <ele>47.824625</ele>
        <time>2022-12-14T14:14:45.323Z</time>
      </trkpt>
      <trkpt lat="47.74059" lon="-2.25858">
        <ele>47.609792</ele>
        <time>2022-12-14T14:14:47.319Z</time>
      </trkpt>
      <trkpt lat="47.74052" lon="-2.25849">
        <ele>47.401413</ele>
        <time>2022-12-14T14:14:49.319Z</time>
      </trkpt>
      <trkpt lat="47.74045" lon="-2.25841">
        <ele>47.186851</ele>
        <time>2022-12-14T14:14:51.305Z</time>
      </trkpt>
      <trkpt lat="47.74038" lon="-2.25832">
        <ele>46.97615</ele>
        <time>2022-12-14T14:14:53.334Z</time>
      </trkpt>
      <trkpt lat="47.74028" lon="-2.25819">
        <ele>46.685571</ele>
        <time>2022-12-14T14:14:56.319Z</time>
      </trkpt>
      <trkpt lat="47.74018" lon="-2.25809">
        <ele>46.52078</ele>
        <time>2022-12-14T14:14:59.316Z</time>
      </trkpt>
      <trkpt lat="47.74008" lon="-2.25799">
        <ele>46.507803</ele>
        <time>2022-12-14T14:15:02.307Z</time>
      </trkpt>
      <trkpt lat="47.74001" lon="-2.25791">
        <ele>46.498319</ele>
        <time>2022-12-14T14:15:04.322Z</time>
      </trkpt>
      <trkpt lat="47.73993" lon="-2.25784">
        <ele>46.488492</ele>
        <time>2022-12-14T14:15:06.325Z</time>
      </trkpt>
      <trkpt lat="47.73985" lon="-2.25777">
        <ele>46.478632</ele>
        <time>2022-12-14T14:15:08.326Z</time>
      </trkpt>
      <trkpt lat="47.73977" lon="-2.2577">
        <ele>46.46907</ele>
        <time>2022-12-14T14:15:10.325Z</time>
      </trkpt>
      <trkpt lat="47.73967" lon="-2.2576">
        <ele>46.456243</ele>
        <time>2022-12-14T14:15:13.318Z</time>
      </trkpt>
      <trkpt lat="47.73956" lon="-2.25751">
        <ele>46.443233</ele>
        <time>2022-12-14T14:15:16.324Z</time>
      </trkpt>
      <trkpt lat="47.73946" lon="-2.25743">
        <ele>46.431474</ele>
        <time>2022-12-14T14:15:19.308Z</time>
      </trkpt>
      <trkpt lat="47.73938" lon="-2.25735">
        <ele>46.42081</ele>
        <time>2022-12-14T14:15:22.309Z</time>
      </trkpt>
      <trkpt lat="47.73929" lon="-2.25727">
        <ele>46.410476</ele>
        <time>2022-12-14T14:15:25.299Z</time>
      </trkpt>
      <trkpt lat="47.7392" lon="-2.25719">
        <ele>46.398698</ele>
        <time>2022-12-14T14:15:28.321Z</time>
      </trkpt>
      <trkpt lat="47.73909" lon="-2.25709">
        <ele>46.385866</ele>
        <time>2022-12-14T14:15:31.323Z</time>
      </trkpt>
      <trkpt lat="47.73902" lon="-2.25702">
        <ele>46.376128</ele>
        <time>2022-12-14T14:15:33.297Z</time>
      </trkpt>
      <trkpt lat="47.73893" lon="-2.25695">
        <ele>46.365848</ele>
        <time>2022-12-14T14:15:35.322Z</time>
      </trkpt>
      <trkpt lat="47.73884" lon="-2.25687">
        <ele>46.355445</ele>
        <time>2022-12-14T14:15:37.327Z</time>
      </trkpt>
      <trkpt lat="47.73876" lon="-2.25679">
        <ele>46.344577</ele>
        <time>2022-12-14T14:15:39.309Z</time>
      </trkpt>
      <trkpt lat="47.73867" lon="-2.25672">
        <ele>46.342776</ele>
        <time>2022-12-14T14:15:41.323Z</time>
      </trkpt>
      <trkpt lat="47.73859" lon="-2.25664">
        <ele>46.373708</ele>
        <time>2022-12-14T14:15:43.299Z</time>
      </trkpt>
      <trkpt lat="47.73848" lon="-2.25653">
        <ele>46.414201</ele>
        <time>2022-12-14T14:15:46.321Z</time>
      </trkpt>
      <trkpt lat="47.73839" lon="-2.25642">
        <ele>46.453059</ele>
        <time>2022-12-14T14:15:49.296Z</time>
      </trkpt>
      <trkpt lat="47.7383" lon="-2.25631">
        <ele>46.488828</ele>
        <time>2022-12-14T14:15:52.309Z</time>
      </trkpt>
      <trkpt lat="47.73821" lon="-2.25617">
        <ele>46.529503</ele>
        <time>2022-12-14T14:15:55.296Z</time>
      </trkpt>
      <trkpt lat="47.73813" lon="-2.25602">
        <ele>46.569935</ele>
        <time>2022-12-14T14:15:58.320Z</time>
      </trkpt>
      <trkpt lat="47.73806" lon="-2.25586">
        <ele>46.609996</ele>
        <time>2022-12-14T14:16:01.320Z</time>
      </trkpt>
      <trkpt lat="47.738" lon="-2.25569">
        <ele>46.650363</ele>
        <time>2022-12-14T14:16:04.316Z</time>
      </trkpt>
      <trkpt lat="47.73794" lon="-2.25551">
        <ele>46.691567</ele>
        <time>2022-12-14T14:16:07.320Z</time>
      </trkpt>
      <trkpt lat="47.73789" lon="-2.25535">
        <ele>46.730876</ele>
        <time>2022-12-14T14:16:10.322Z</time>
      </trkpt>
      <trkpt lat="47.73783" lon="-2.25518">
        <ele>46.77067</ele>
        <time>2022-12-14T14:16:13.299Z</time>
      </trkpt>
      <trkpt lat="47.7378" lon="-2.25505">
        <ele>46.798861</ele>
        <time>2022-12-14T14:16:15.321Z</time>
      </trkpt>
      <trkpt lat="47.73774" lon="-2.25488">
        <ele>46.839231</ele>
        <time>2022-12-14T14:16:18.321Z</time>
      </trkpt>
      <trkpt lat="47.73769" lon="-2.25471">
        <ele>46.878702</ele>
        <time>2022-12-14T14:16:21.321Z</time>
      </trkpt>
      <trkpt lat="47.73764" lon="-2.25456">
        <ele>46.915987</ele>
        <time>2022-12-14T14:16:24.322Z</time>
      </trkpt>
      <trkpt lat="47.73759" lon="-2.2544">
        <ele>46.955376</ele>
        <time>2022-12-14T14:16:27.322Z</time>
      </trkpt>
      <trkpt lat="47.73754" lon="-2.25425">
        <ele>46.993796</ele>
        <time>2022-12-14T14:16:30.320Z</time>
      </trkpt>
      <trkpt lat="47.73749" lon="-2.25408">
        <ele>47.034839</ele>
        <time>2022-12-14T14:16:33.299Z</time>
      </trkpt>
      <trkpt lat="47.73744" lon="-2.25393">
        <ele>47.073039</ele>
        <time>2022-12-14T14:16:36.319Z</time>
      </trkpt>
      <trkpt lat="47.73739" lon="-2.25376">
        <ele>47.115678</ele>
        <time>2022-12-14T14:16:39.309Z</time>
      </trkpt>
      <trkpt lat="47.73733" lon="-2.25361">
        <ele>47.154346</ele>
        <time>2022-12-14T14:16:42.323Z</time>
      </trkpt>
      <trkpt lat="47.73727" lon="-2.25346">
        <ele>47.194518</ele>
        <time>2022-12-14T14:16:45.319Z</time>
      </trkpt>
      <trkpt lat="47.73722" lon="-2.25331">
        <ele>47.234785</ele>
        <time>2022-12-14T14:16:48.324Z</time>
      </trkpt>
      <trkpt lat="47.73717" lon="-2.25315">
        <ele>47.274732</ele>
        <time>2022-12-14T14:16:51.322Z</time>
      </trkpt>
      <trkpt lat="47.73711" lon="-2.25298">
        <ele>47.317029</ele>
        <time>2022-12-14T14:16:54.317Z</time>
      </trkpt>
      <trkpt lat="47.73705" lon="-2.25281">
        <ele>47.359668</ele>
        <time>2022-12-14T14:16:57.324Z</time>
      </trkpt>
      <trkpt lat="47.737" lon="-2.25265">
        <ele>47.402029</ele>
        <time>2022-12-14T14:17:00.320Z</time>
      </trkpt>
      <trkpt lat="47.73694" lon="-2.2525">
        <ele>47.440834</ele>
        <time>2022-12-14T14:17:03.300Z</time>
      </trkpt>
      <trkpt lat="47.73689" lon="-2.25237">
        <ele>47.475096</ele>
        <time>2022-12-14T14:17:06.315Z</time>
      </trkpt>
      <trkpt lat="47.73683" lon="-2.25224">
        <ele>47.515618</ele>
        <time>2022-12-14T14:17:09.323Z</time>
      </trkpt>
      <trkpt lat="47.73677" lon="-2.25209">
        <ele>47.612822</ele>
        <time>2022-12-14T14:17:12.323Z</time>
      </trkpt>
      <trkpt lat="47.7367" lon="-2.25195">
        <ele>47.708626</ele>
        <time>2022-12-14T14:17:15.326Z</time>
      </trkpt>
      <trkpt lat="47.73664" lon="-2.2518">
        <ele>47.80878</ele>
        <time>2022-12-14T14:17:18.321Z</time>
      </trkpt>
      <trkpt lat="47.73658" lon="-2.25164">
        <ele>47.911726</ele>
        <time>2022-12-14T14:17:21.324Z</time>
      </trkpt>
      <trkpt lat="47.73653" lon="-2.25147">
        <ele>48.014841</ele>
        <time>2022-12-14T14:17:24.324Z</time>
      </trkpt>
      <trkpt lat="47.73648" lon="-2.25129">
        <ele>48.123268</ele>
        <time>2022-12-14T14:17:27.320Z</time>
      </trkpt>
      <trkpt lat="47.73645" lon="-2.25111">
        <ele>48.230632</ele>
        <time>2022-12-14T14:17:30.300Z</time>
      </trkpt>
      <trkpt lat="47.73642" lon="-2.25094">
        <ele>48.32939</ele>
        <time>2022-12-14T14:17:33.303Z</time>
      </trkpt>
      <trkpt lat="47.7364" lon="-2.25078">
        <ele>48.421987</ele>
        <time>2022-12-14T14:17:36.322Z</time>
      </trkpt>
      <trkpt lat="47.73638" lon="-2.25061">
        <ele>48.515076</ele>
        <time>2022-12-14T14:17:39.312Z</time>
      </trkpt>
      <trkpt lat="47.73637" lon="-2.25045">
        <ele>48.608831</ele>
        <time>2022-12-14T14:17:42.320Z</time>
      </trkpt>
      <trkpt lat="47.73636" lon="-2.25027">
        <ele>48.708162</ele>
        <time>2022-12-14T14:17:45.299Z</time>
      </trkpt>
      <trkpt lat="47.73636" lon="-2.25009">
        <ele>48.813464</ele>
        <time>2022-12-14T14:17:48.321Z</time>
      </trkpt>
      <trkpt lat="47.73637" lon="-2.24993">
        <ele>48.904435</ele>
        <time>2022-12-14T14:17:51.322Z</time>
      </trkpt>
      <trkpt lat="47.73638" lon="-2.24978">
        <ele>48.987922</ele>
        <time>2022-12-14T14:17:54.321Z</time>
      </trkpt>
      <trkpt lat="47.7364" lon="-2.24964">
        <ele>49.014735</ele>
        <time>2022-12-14T14:17:57.320Z</time>
      </trkpt>
      <trkpt lat="47.73643" lon="-2.24949">
        <ele>49.013584</ele>
        <time>2022-12-14T14:18:00.313Z</time>
      </trkpt>
      <trkpt lat="47.73645" lon="-2.24932">
        <ele>49.012292</ele>
        <time>2022-12-14T14:18:03.299Z</time>
      </trkpt>
      <trkpt lat="47.73648" lon="-2.24916">
        <ele>49.011041</ele>
        <time>2022-12-14T14:18:06.317Z</time>
      </trkpt>
      <trkpt lat="47.73651" lon="-2.24902">
        <ele>49.009995</ele>
        <time>2022-12-14T14:18:09.325Z</time>
      </trkpt>
      <trkpt lat="47.73653" lon="-2.24887">
        <ele>49.008848</ele>
        <time>2022-12-14T14:18:12.324Z</time>
      </trkpt>
      <trkpt lat="47.73656" lon="-2.24871">
        <ele>49.007621</ele>
        <time>2022-12-14T14:18:15.322Z</time>
      </trkpt>
      <trkpt lat="47.73659" lon="-2.24854">
        <ele>49.006304</ele>
        <time>2022-12-14T14:18:18.321Z</time>
      </trkpt>
      <trkpt lat="47.73662" lon="-2.24836">
        <ele>49.004921</ele>
        <time>2022-12-14T14:18:21.327Z</time>
      </trkpt>
      <trkpt lat="47.73666" lon="-2.24818">
        <ele>49.003567</ele>
        <time>2022-12-14T14:18:24.317Z</time>
      </trkpt>
      <trkpt lat="47.73669" lon="-2.24801">
        <ele>49.002226</ele>
        <time>2022-12-14T14:18:27.328Z</time>
      </trkpt>
      <trkpt lat="47.73673" lon="-2.24783">
        <ele>49.00085</ele>
        <time>2022-12-14T14:18:30.328Z</time>
      </trkpt>
      <trkpt lat="47.73677" lon="-2.24765">
        <ele>48.999432</ele>
        <time>2022-12-14T14:18:33.303Z</time>
      </trkpt>
      <trkpt lat="47.73681" lon="-2.24746">
        <ele>48.997918</ele>
        <time>2022-12-14T14:18:36.320Z</time>
      </trkpt>
      <trkpt lat="47.73685" lon="-2.24733">
        <ele>48.996914</ele>
        <time>2022-12-14T14:18:38.320Z</time>
      </trkpt>
      <trkpt lat="47.73689" lon="-2.24715">
        <ele>48.996873</ele>
        <time>2022-12-14T14:18:41.319Z</time>
      </trkpt>
      <trkpt lat="47.73694" lon="-2.24698">
        <ele>49.015352</ele>
        <time>2022-12-14T14:18:44.323Z</time>
      </trkpt>
      <trkpt lat="47.73699" lon="-2.24684">
        <ele>49.032072</ele>
        <time>2022-12-14T14:18:47.322Z</time>
      </trkpt>
      <trkpt lat="47.73704" lon="-2.24669">
        <ele>49.04857</ele>
        <time>2022-12-14T14:18:50.326Z</time>
      </trkpt>
      <trkpt lat="47.73709" lon="-2.24654">
        <ele>49.065765</ele>
        <time>2022-12-14T14:18:53.305Z</time>
      </trkpt>
      <trkpt lat="47.73713" lon="-2.24641">
        <ele>49.080546</ele>
        <time>2022-12-14T14:18:56.304Z</time>
      </trkpt>
      <trkpt lat="47.73717" lon="-2.24628">
        <ele>49.095128</ele>
        <time>2022-12-14T14:18:59.302Z</time>
      </trkpt>
      <trkpt lat="47.73722" lon="-2.24614">
        <ele>49.111215</ele>
        <time>2022-12-14T14:19:02.319Z</time>
      </trkpt>
      <trkpt lat="47.73727" lon="-2.24601">
        <ele>49.126557</ele>
        <time>2022-12-14T14:19:05.322Z</time>
      </trkpt>
      <trkpt lat="47.73732" lon="-2.24587">
        <ele>49.142105</ele>
        <time>2022-12-14T14:19:08.318Z</time>
      </trkpt>
      <trkpt lat="47.73738" lon="-2.24573">
        <ele>49.158802</ele>
        <time>2022-12-14T14:19:11.331Z</time>
      </trkpt>
      <trkpt lat="47.73743" lon="-2.24558">
        <ele>49.176369</ele>
        <time>2022-12-14T14:19:14.324Z</time>
      </trkpt>
      <trkpt lat="47.7375" lon="-2.24542">
        <ele>49.195161</ele>
        <time>2022-12-14T14:19:17.299Z</time>
      </trkpt>
      <trkpt lat="47.73757" lon="-2.24526">
        <ele>49.214597</ele>
        <time>2022-12-14T14:19:20.322Z</time>
      </trkpt>
      <trkpt lat="47.73764" lon="-2.2451">
        <ele>49.234198</ele>
        <time>2022-12-14T14:19:23.302Z</time>
      </trkpt>
      <trkpt lat="47.73771" lon="-2.24495">
        <ele>49.252115</ele>
        <time>2022-12-14T14:19:26.320Z</time>
      </trkpt>
      <trkpt lat="47.73778" lon="-2.24481">
        <ele>49.279679</ele>
        <time>2022-12-14T14:19:29.322Z</time>
      </trkpt>
      <trkpt lat="47.73786" lon="-2.24467">
        <ele>49.348176</ele>
        <time>2022-12-14T14:19:32.325Z</time>
      </trkpt>
      <trkpt lat="47.73795" lon="-2.24452">
        <ele>49.418801</ele>
        <time>2022-12-14T14:19:35.306Z</time>
      </trkpt>
      <trkpt lat="47.73804" lon="-2.24438">
        <ele>49.489789</ele>
        <time>2022-12-14T14:19:38.324Z</time>
      </trkpt>
      <trkpt lat="47.73812" lon="-2.24425">
        <ele>49.557982</ele>
        <time>2022-12-14T14:19:41.324Z</time>
      </trkpt>
      <trkpt lat="47.7382" lon="-2.24413">
        <ele>49.617523</ele>
        <time>2022-12-14T14:19:44.316Z</time>
      </trkpt>
      <trkpt lat="47.73827" lon="-2.24401">
        <ele>49.676692</ele>
        <time>2022-12-14T14:19:47.322Z</time>
      </trkpt>
      <trkpt lat="47.73835" lon="-2.24389">
        <ele>49.737893</ele>
        <time>2022-12-14T14:19:50.324Z</time>
      </trkpt>
      <trkpt lat="47.73843" lon="-2.24375">
        <ele>49.803721</ele>
        <time>2022-12-14T14:19:53.296Z</time>
      </trkpt>
      <trkpt lat="47.73851" lon="-2.24361">
        <ele>49.8725</ele>
        <time>2022-12-14T14:19:56.319Z</time>
      </trkpt>
      <trkpt lat="47.73858" lon="-2.24345">
        <ele>49.940669</ele>
        <time>2022-12-14T14:19:59.322Z</time>
      </trkpt>
      <trkpt lat="47.73864" lon="-2.24331">
        <ele>50.005196</ele>
        <time>2022-12-14T14:20:02.331Z</time>
      </trkpt>
      <trkpt lat="47.73869" lon="-2.24317">
        <ele>50.061979</ele>
        <time>2022-12-14T14:20:05.323Z</time>
      </trkpt>
      <trkpt lat="47.73875" lon="-2.24301">
        <ele>50.127386</ele>
        <time>2022-12-14T14:20:09.321Z</time>
      </trkpt>
      <trkpt lat="47.73879" lon="-2.24287">
        <ele>50.184057</ele>
        <time>2022-12-14T14:20:12.320Z</time>
      </trkpt>
      <trkpt lat="47.73884" lon="-2.24272">
        <ele>50.24587</ele>
        <time>2022-12-14T14:20:15.321Z</time>
      </trkpt>
      <trkpt lat="47.7389" lon="-2.24258">
        <ele>50.299693</ele>
        <time>2022-12-14T14:20:18.321Z</time>
      </trkpt>
      <trkpt lat="47.73897" lon="-2.24246">
        <ele>50.351869</ele>
        <time>2022-12-14T14:20:21.323Z</time>
      </trkpt>
      <trkpt lat="47.73905" lon="-2.24234">
        <ele>50.403607</ele>
        <time>2022-12-14T14:20:24.322Z</time>
      </trkpt>
      <trkpt lat="47.73914" lon="-2.24223">
        <ele>50.459521</ele>
        <time>2022-12-14T14:20:27.310Z</time>
      </trkpt>
      <trkpt lat="47.73923" lon="-2.24213">
        <ele>50.513881</ele>
        <time>2022-12-14T14:20:30.323Z</time>
      </trkpt>
      <trkpt lat="47.73932" lon="-2.24202">
        <ele>50.570575</ele>
        <time>2022-12-14T14:20:33.302Z</time>
      </trkpt>
      <trkpt lat="47.73941" lon="-2.24191">
        <ele>50.626468</ele>
        <time>2022-12-14T14:20:36.319Z</time>
      </trkpt>
      <trkpt lat="47.73949" lon="-2.24181">
        <ele>50.677397</ele>
        <time>2022-12-14T14:20:39.318Z</time>
      </trkpt>
      <trkpt lat="47.73957" lon="-2.24172">
        <ele>50.725191</ele>
        <time>2022-12-14T14:20:42.323Z</time>
      </trkpt>
      <trkpt lat="47.73966" lon="-2.24161">
        <ele>50.780976</ele>
        <time>2022-12-14T14:20:45.323Z</time>
      </trkpt>
      <trkpt lat="47.73975" lon="-2.24149">
        <ele>50.839897</ele>
        <time>2022-12-14T14:20:48.323Z</time>
      </trkpt>
      <trkpt lat="47.73985" lon="-2.24138">
        <ele>50.897574</ele>
        <time>2022-12-14T14:20:51.325Z</time>
      </trkpt>
      <trkpt lat="47.73994" lon="-2.24126">
        <ele>50.956776</ele>
        <time>2022-12-14T14:20:54.321Z</time>
      </trkpt>
      <trkpt lat="47.74004" lon="-2.24115">
        <ele>51.016385</ele>
        <time>2022-12-14T14:20:57.321Z</time>
      </trkpt>
      <trkpt lat="47.74014" lon="-2.24102">
        <ele>51.080029</ele>
        <time>2022-12-14T14:21:00.323Z</time>
      </trkpt>
      <trkpt lat="47.74024" lon="-2.2409">
        <ele>51.089464</ele>
        <time>2022-12-14T14:21:03.303Z</time>
      </trkpt>
      <trkpt lat="47.74034" lon="-2.24078">
        <ele>51.045256</ele>
        <time>2022-12-14T14:21:06.323Z</time>
      </trkpt>
      <trkpt lat="47.74043" lon="-2.24068">
        <ele>51.009618</ele>
        <time>2022-12-14T14:21:09.320Z</time>
      </trkpt>
      <trkpt lat="47.74051" lon="-2.24059">
        <ele>50.974651</ele>
        <time>2022-12-14T14:21:12.324Z</time>
      </trkpt>
      <trkpt lat="47.7406" lon="-2.24047">
        <ele>50.934979</ele>
        <time>2022-12-14T14:21:15.298Z</time>
      </trkpt>
      <trkpt lat="47.74068" lon="-2.24034">
        <ele>50.893239</ele>
        <time>2022-12-14T14:21:18.306Z</time>
      </trkpt>
      <trkpt lat="47.74076" lon="-2.2402">
        <ele>50.850338</ele>
        <time>2022-12-14T14:21:21.325Z</time>
      </trkpt>
      <trkpt lat="47.74083" lon="-2.24004">
        <ele>50.807557</ele>
        <time>2022-12-14T14:21:24.315Z</time>
      </trkpt>
      <trkpt lat="47.7409" lon="-2.23987">
        <ele>50.763783</ele>
        <time>2022-12-14T14:21:27.319Z</time>
      </trkpt>
      <trkpt lat="47.74096" lon="-2.23971">
        <ele>50.721382</ele>
        <time>2022-12-14T14:21:30.324Z</time>
      </trkpt>
      <trkpt lat="47.74102" lon="-2.23954">
        <ele>50.677175</ele>
        <time>2022-12-14T14:21:33.298Z</time>
      </trkpt>
      <trkpt lat="47.74107" lon="-2.23937">
        <ele>50.636057</ele>
        <time>2022-12-14T14:21:36.322Z</time>
      </trkpt>
      <trkpt lat="47.74112" lon="-2.23922">
        <ele>50.598526</ele>
        <time>2022-12-14T14:21:39.318Z</time>
      </trkpt>
      <trkpt lat="47.74115" lon="-2.23907">
        <ele>50.561069</ele>
        <time>2022-12-14T14:21:43.301Z</time>
      </trkpt>
      <trkpt lat="47.74119" lon="-2.2389">
        <ele>50.520885</ele>
        <time>2022-12-14T14:21:47.323Z</time>
      </trkpt>
      <trkpt lat="47.74121" lon="-2.23875">
        <ele>50.471483</ele>
        <time>2022-12-14T14:21:50.324Z</time>
      </trkpt>
      <trkpt lat="47.74123" lon="-2.23859">
        <ele>50.40237</ele>
        <time>2022-12-14T14:21:53.299Z</time>
      </trkpt>
      <trkpt lat="47.74126" lon="-2.23841">
        <ele>50.324234</ele>
        <time>2022-12-14T14:21:56.316Z</time>
      </trkpt>
      <trkpt lat="47.74127" lon="-2.23823">
        <ele>50.247596</ele>
        <time>2022-12-14T14:21:59.309Z</time>
      </trkpt>
      <trkpt lat="47.74127" lon="-2.23807">
        <ele>50.179728</ele>
        <time>2022-12-14T14:22:02.326Z</time>
      </trkpt>
      <trkpt lat="47.74127" lon="-2.23792">
        <ele>50.114008</ele>
        <time>2022-12-14T14:22:05.299Z</time>
      </trkpt>
      <trkpt lat="47.74127" lon="-2.23776">
        <ele>50.044814</ele>
        <time>2022-12-14T14:22:08.324Z</time>
      </trkpt>
      <trkpt lat="47.74126" lon="-2.23758">
        <ele>49.968003</ele>
        <time>2022-12-14T14:22:11.321Z</time>
      </trkpt>
      <trkpt lat="47.74126" lon="-2.2374">
        <ele>49.893292</ele>
        <time>2022-12-14T14:22:14.322Z</time>
      </trkpt>
      <trkpt lat="47.74125" lon="-2.23722">
        <ele>49.815084</ele>
        <time>2022-12-14T14:22:17.324Z</time>
      </trkpt>
      <trkpt lat="47.74124" lon="-2.23703">
        <ele>49.735295</ele>
        <time>2022-12-14T14:22:20.321Z</time>
      </trkpt>
      <trkpt lat="47.74123" lon="-2.23685">
        <ele>49.657475</ele>
        <time>2022-12-14T14:22:23.304Z</time>
      </trkpt>
      <trkpt lat="47.74122" lon="-2.23666">
        <ele>49.577137</ele>
        <time>2022-12-14T14:22:26.324Z</time>
      </trkpt>
      <trkpt lat="47.74122" lon="-2.23647">
        <ele>49.494728</ele>
        <time>2022-12-14T14:22:29.324Z</time>
      </trkpt>
      <trkpt lat="47.74121" lon="-2.23627">
        <ele>49.408851</ele>
        <time>2022-12-14T14:22:32.325Z</time>
      </trkpt>
      <trkpt lat="47.7412" lon="-2.23607">
        <ele>49.361716</ele>
        <time>2022-12-14T14:22:35.321Z</time>
      </trkpt>
      <trkpt lat="47.74119" lon="-2.23587">
        <ele>49.359873</ele>
        <time>2022-12-14T14:22:38.324Z</time>
      </trkpt>
      <trkpt lat="47.74118" lon="-2.23571">
        <ele>49.358278</ele>
        <time>2022-12-14T14:22:41.322Z</time>
      </trkpt>
      <trkpt lat="47.74116" lon="-2.23556">
        <ele>49.356871</ele>
        <time>2022-12-14T14:22:44.322Z</time>
      </trkpt>
      <trkpt lat="47.74114" lon="-2.23541">
        <ele>49.355357</ele>
        <time>2022-12-14T14:22:47.323Z</time>
      </trkpt>
      <trkpt lat="47.74111" lon="-2.23525">
        <ele>49.353804</ele>
        <time>2022-12-14T14:22:50.324Z</time>
      </trkpt>
      <trkpt lat="47.74108" lon="-2.2351">
        <ele>49.352321</ele>
        <time>2022-12-14T14:22:53.303Z</time>
      </trkpt>
      <trkpt lat="47.74104" lon="-2.23493">
        <ele>49.350553</ele>
        <time>2022-12-14T14:22:56.325Z</time>
      </trkpt>
      <trkpt lat="47.741" lon="-2.2348">
        <ele>49.349252</ele>
        <time>2022-12-14T14:22:58.318Z</time>
      </trkpt>
      <trkpt lat="47.74096" lon="-2.23468">
        <ele>49.347953</ele>
        <time>2022-12-14T14:23:00.321Z</time>
      </trkpt>
      <trkpt lat="47.7409" lon="-2.2345">
        <ele>49.346086</ele>
        <time>2022-12-14T14:23:03.301Z</time>
      </trkpt>
      <trkpt lat="47.74084" lon="-2.23434">
        <ele>49.344359</ele>
        <time>2022-12-14T14:23:06.322Z</time>
      </trkpt>
      <trkpt lat="47.74079" lon="-2.23421">
        <ele>49.342905</ele>
        <time>2022-12-14T14:23:09.322Z</time>
      </trkpt>
      <trkpt lat="47.74074" lon="-2.23409">
        <ele>49.341547</ele>
        <time>2022-12-14T14:23:12.303Z</time>
      </trkpt>
      <trkpt lat="47.74068" lon="-2.23398">
        <ele>49.340205</ele>
        <time>2022-12-14T14:23:15.322Z</time>
      </trkpt>
      <trkpt lat="47.74063" lon="-2.23385">
        <ele>49.33883</ele>
        <time>2022-12-14T14:23:18.323Z</time>
      </trkpt>
      <trkpt lat="47.74057" lon="-2.23373">
        <ele>49.337432</ele>
        <time>2022-12-14T14:23:21.321Z</time>
      </trkpt>
      <trkpt lat="47.74052" lon="-2.23361">
        <ele>49.364565</ele>
        <time>2022-12-14T14:23:24.307Z</time>
      </trkpt>
      <trkpt lat="47.74045" lon="-2.23349">
        <ele>49.401602</ele>
        <time>2022-12-14T14:23:27.321Z</time>
      </trkpt>
      <trkpt lat="47.74039" lon="-2.23336">
        <ele>49.437995</ele>
        <time>2022-12-14T14:23:30.324Z</time>
      </trkpt>
      <trkpt lat="47.74033" lon="-2.2332">
        <ele>49.480371</ele>
        <time>2022-12-14T14:23:33.300Z</time>
      </trkpt>
      <trkpt lat="47.74029" lon="-2.23304">
        <ele>49.520597</ele>
        <time>2022-12-14T14:23:36.299Z</time>
      </trkpt>
      <trkpt lat="47.74025" lon="-2.23289">
        <ele>49.556541</ele>
        <time>2022-12-14T14:23:39.305Z</time>
      </trkpt>
      <trkpt lat="47.74023" lon="-2.23273">
        <ele>49.595085</ele>
        <time>2022-12-14T14:23:43.300Z</time>
      </trkpt>
      <trkpt lat="47.74021" lon="-2.23258">
        <ele>49.630687</ele>
        <time>2022-12-14T14:23:46.317Z</time>
      </trkpt>
      <trkpt lat="47.74018" lon="-2.23243">
        <ele>49.666899</ele>
        <time>2022-12-14T14:23:49.321Z</time>
      </trkpt>
      <trkpt lat="47.74015" lon="-2.23228">
        <ele>49.704489</ele>
        <time>2022-12-14T14:23:52.323Z</time>
      </trkpt>
      <trkpt lat="47.7401" lon="-2.23212">
        <ele>49.744354</ele>
        <time>2022-12-14T14:23:55.321Z</time>
      </trkpt>
      <trkpt lat="47.74005" lon="-2.23197">
        <ele>49.783033</ele>
        <time>2022-12-14T14:23:58.319Z</time>
      </trkpt>
      <trkpt lat="47.73999" lon="-2.23183">
        <ele>49.820662</ele>
        <time>2022-12-14T14:24:01.300Z</time>
      </trkpt>
      <trkpt lat="47.73993" lon="-2.23169">
        <ele>49.859727</ele>
        <time>2022-12-14T14:24:04.322Z</time>
      </trkpt>
      <trkpt lat="47.73986" lon="-2.23158">
        <ele>49.895363</ele>
        <time>2022-12-14T14:24:07.304Z</time>
      </trkpt>
      <trkpt lat="47.73979" lon="-2.23144">
        <ele>49.935355</ele>
        <time>2022-12-14T14:24:11.322Z</time>
      </trkpt>
      <trkpt lat="47.73973" lon="-2.23134">
        <ele>49.896074</ele>
        <time>2022-12-14T14:24:14.324Z</time>
      </trkpt>
      <trkpt lat="47.73966" lon="-2.23124">
        <ele>49.697122</ele>
        <time>2022-12-14T14:24:17.321Z</time>
      </trkpt>
      <trkpt lat="47.73957" lon="-2.23111">
        <ele>49.446586</ele>
        <time>2022-12-14T14:24:20.319Z</time>
      </trkpt>
      <trkpt lat="47.73947" lon="-2.23099">
        <ele>49.183743</ele>
        <time>2022-12-14T14:24:23.297Z</time>
      </trkpt>
      <trkpt lat="47.73937" lon="-2.23087">
        <ele>48.918631</ele>
        <time>2022-12-14T14:24:26.315Z</time>
      </trkpt>
      <trkpt lat="47.73927" lon="-2.23074">
        <ele>48.658637</ele>
        <time>2022-12-14T14:24:29.321Z</time>
      </trkpt>
      <trkpt lat="47.73918" lon="-2.23063">
        <ele>48.404234</ele>
        <time>2022-12-14T14:24:32.321Z</time>
      </trkpt>
      <trkpt lat="47.7391" lon="-2.23054">
        <ele>48.215889</ele>
        <time>2022-12-14T14:24:34.320Z</time>
      </trkpt>
      <trkpt lat="47.73901" lon="-2.23043">
        <ele>47.965685</ele>
        <time>2022-12-14T14:24:37.321Z</time>
      </trkpt>
      <trkpt lat="47.73892" lon="-2.23034">
        <ele>47.735208</ele>
        <time>2022-12-14T14:24:40.322Z</time>
      </trkpt>
      <trkpt lat="47.73881" lon="-2.23023">
        <ele>47.479364</ele>
        <time>2022-12-14T14:24:43.304Z</time>
      </trkpt>
      <trkpt lat="47.73871" lon="-2.23013">
        <ele>47.232934</ele>
        <time>2022-12-14T14:24:46.315Z</time>
      </trkpt>
      <trkpt lat="47.73861" lon="-2.23003">
        <ele>46.974356</ele>
        <time>2022-12-14T14:24:49.322Z</time>
      </trkpt>
      <trkpt lat="47.73851" lon="-2.22993">
        <ele>46.724706</ele>
        <time>2022-12-14T14:24:52.321Z</time>
      </trkpt>
      <trkpt lat="47.73841" lon="-2.22982">
        <ele>46.481274</ele>
        <time>2022-12-14T14:24:55.323Z</time>
      </trkpt>
      <trkpt lat="47.73833" lon="-2.22973">
        <ele>46.273035</ele>
        <time>2022-12-14T14:24:58.326Z</time>
      </trkpt>
      <trkpt lat="47.73826" lon="-2.22963">
        <ele>46.283501</ele>
        <time>2022-12-14T14:25:01.321Z</time>
      </trkpt>
      <trkpt lat="47.73818" lon="-2.22951">
        <ele>46.297598</ele>
        <time>2022-12-14T14:25:04.324Z</time>
      </trkpt>
      <trkpt lat="47.73808" lon="-2.22938">
        <ele>46.313196</ele>
        <time>2022-12-14T14:25:07.321Z</time>
      </trkpt>
      <trkpt lat="47.73798" lon="-2.22926">
        <ele>46.329263</ele>
        <time>2022-12-14T14:25:10.321Z</time>
      </trkpt>
      <trkpt lat="47.73789" lon="-2.22917">
        <ele>46.342776</ele>
        <time>2022-12-14T14:25:13.299Z</time>
      </trkpt>
      <trkpt lat="47.7378" lon="-2.22911">
        <ele>46.35478</ele>
        <time>2022-12-14T14:25:16.302Z</time>
      </trkpt>
      <trkpt lat="47.73771" lon="-2.22906">
        <ele>46.366504</ele>
        <time>2022-12-14T14:25:19.323Z</time>
      </trkpt>
      <trkpt lat="47.73763" lon="-2.22896">
        <ele>46.379945</ele>
        <time>2022-12-14T14:25:22.304Z</time>
      </trkpt>
      <trkpt lat="47.73756" lon="-2.22883">
        <ele>46.393911</ele>
        <time>2022-12-14T14:25:25.304Z</time>
      </trkpt>
      <trkpt lat="47.7375" lon="-2.22868">
        <ele>46.408246</ele>
        <time>2022-12-14T14:25:28.306Z</time>
      </trkpt>
      <trkpt lat="47.73745" lon="-2.22853">
        <ele>46.422191</ele>
        <time>2022-12-14T14:25:31.302Z</time>
      </trkpt>
      <trkpt lat="47.73738" lon="-2.22837">
        <ele>46.437882</ele>
        <time>2022-12-14T14:25:34.324Z</time>
      </trkpt>
      <trkpt lat="47.73732" lon="-2.22821">
        <ele>46.453206</ele>
        <time>2022-12-14T14:25:37.315Z</time>
      </trkpt>
      <trkpt lat="47.73725" lon="-2.22805">
        <ele>46.46886</ele>
        <time>2022-12-14T14:25:40.309Z</time>
      </trkpt>
      <trkpt lat="47.73718" lon="-2.2279">
        <ele>46.484302</ele>
        <time>2022-12-14T14:25:43.303Z</time>
      </trkpt>
      <trkpt lat="47.73709" lon="-2.22775">
        <ele>46.521676</ele>
        <time>2022-12-14T14:25:46.320Z</time>
      </trkpt>
      <trkpt lat="47.737" lon="-2.22762">
        <ele>46.585383</ele>
        <time>2022-12-14T14:25:49.308Z</time>
      </trkpt>
      <trkpt lat="47.73692" lon="-2.22753">
        <ele>46.63027</ele>
        <time>2022-12-14T14:25:51.300Z</time>
      </trkpt>
      <trkpt lat="47.73685" lon="-2.22746">
        <ele>46.674429</ele>
        <time>2022-12-14T14:25:53.304Z</time>
      </trkpt>
      <trkpt lat="47.73674" lon="-2.22735">
        <ele>46.737944</ele>
        <time>2022-12-14T14:25:56.322Z</time>
      </trkpt>
      <trkpt lat="47.73663" lon="-2.22724">
        <ele>46.800454</ele>
        <time>2022-12-14T14:25:59.328Z</time>
      </trkpt>
      <trkpt lat="47.73655" lon="-2.22712">
        <ele>46.855938</ele>
        <time>2022-12-14T14:26:02.327Z</time>
      </trkpt>
      <trkpt lat="47.73646" lon="-2.227">
        <ele>46.914036</ele>
        <time>2022-12-14T14:26:05.323Z</time>
      </trkpt>
      <trkpt lat="47.73637" lon="-2.22686">
        <ele>46.977307</ele>
        <time>2022-12-14T14:26:08.321Z</time>
      </trkpt>
      <trkpt lat="47.73629" lon="-2.22672">
        <ele>47.03879</ele>
        <time>2022-12-14T14:26:11.322Z</time>
      </trkpt>
      <trkpt lat="47.73619" lon="-2.22657">
        <ele>47.102725</ele>
        <time>2022-12-14T14:26:14.325Z</time>
      </trkpt>
      <trkpt lat="47.7361" lon="-2.22644">
        <ele>47.163569</ele>
        <time>2022-12-14T14:26:17.325Z</time>
      </trkpt>
      <trkpt lat="47.736" lon="-2.22632">
        <ele>47.228581</ele>
        <time>2022-12-14T14:26:20.323Z</time>
      </trkpt>
      <trkpt lat="47.73589" lon="-2.22623">
        <ele>47.286269</ele>
        <time>2022-12-14T14:26:23.301Z</time>
      </trkpt>
      <trkpt lat="47.73579" lon="-2.22614">
        <ele>47.343789</ele>
        <time>2022-12-14T14:26:26.319Z</time>
      </trkpt>
      <trkpt lat="47.73568" lon="-2.22605">
        <ele>47.343279</ele>
        <time>2022-12-14T14:26:29.320Z</time>
      </trkpt>
      <trkpt lat="47.73557" lon="-2.22595">
        <ele>47.318467</ele>
        <time>2022-12-14T14:26:32.320Z</time>
      </trkpt>
      <trkpt lat="47.73545" lon="-2.22586">
        <ele>47.293901</ele>
        <time>2022-12-14T14:26:35.321Z</time>
      </trkpt>
      <trkpt lat="47.73533" lon="-2.22576">
        <ele>47.269004</ele>
        <time>2022-12-14T14:26:38.326Z</time>
      </trkpt>
      <trkpt lat="47.73522" lon="-2.22567">
        <ele>47.244391</ele>
        <time>2022-12-14T14:26:41.306Z</time>
      </trkpt>
      <trkpt lat="47.73513" lon="-2.22559">
        <ele>47.223739</ele>
        <time>2022-12-14T14:26:44.319Z</time>
      </trkpt>
      <trkpt lat="47.73504" lon="-2.22551">
        <ele>47.204315</ele>
        <time>2022-12-14T14:26:47.324Z</time>
      </trkpt>
      <trkpt lat="47.73494" lon="-2.22542">
        <ele>47.183763</ele>
        <time>2022-12-14T14:26:50.323Z</time>
      </trkpt>
      <trkpt lat="47.73484" lon="-2.22533">
        <ele>47.161787</ele>
        <time>2022-12-14T14:26:53.304Z</time>
      </trkpt>
      <trkpt lat="47.73473" lon="-2.22522">
        <ele>47.137345</ele>
        <time>2022-12-14T14:26:56.326Z</time>
      </trkpt>
      <trkpt lat="47.73466" lon="-2.22515">
        <ele>47.120409</ele>
        <time>2022-12-14T14:26:58.319Z</time>
      </trkpt>
      <trkpt lat="47.73458" lon="-2.22508">
        <ele>47.10318</ele>
        <time>2022-12-14T14:27:00.314Z</time>
      </trkpt>
      <trkpt lat="47.73451" lon="-2.22501">
        <ele>47.08623</ele>
        <time>2022-12-14T14:27:02.320Z</time>
      </trkpt>
      <trkpt lat="47.7344" lon="-2.2249">
        <ele>47.062378</ele>
        <time>2022-12-14T14:27:05.325Z</time>
      </trkpt>
      <trkpt lat="47.7343" lon="-2.2248">
        <ele>47.040687</ele>
        <time>2022-12-14T14:27:08.325Z</time>
      </trkpt>
      <trkpt lat="47.7342" lon="-2.22471">
        <ele>47.032371</ele>
        <time>2022-12-14T14:27:11.327Z</time>
      </trkpt>
      <trkpt lat="47.73411" lon="-2.22461">
        <ele>47.086054</ele>
        <time>2022-12-14T14:27:14.323Z</time>
      </trkpt>
      <trkpt lat="47.73401" lon="-2.2245">
        <ele>47.141877</ele>
        <time>2022-12-14T14:27:17.325Z</time>
      </trkpt>
      <trkpt lat="47.7339" lon="-2.22439">
        <ele>47.198605</ele>
        <time>2022-12-14T14:27:20.324Z</time>
      </trkpt>
      <trkpt lat="47.7338" lon="-2.22428">
        <ele>47.255153</ele>
        <time>2022-12-14T14:27:23.302Z</time>
      </trkpt>
      <trkpt lat="47.73372" lon="-2.22418">
        <ele>47.304305</ele>
        <time>2022-12-14T14:27:26.324Z</time>
      </trkpt>
      <trkpt lat="47.73363" lon="-2.22409">
        <ele>47.35146</ele>
        <time>2022-12-14T14:27:29.326Z</time>
      </trkpt>
      <trkpt lat="47.73353" lon="-2.22399">
        <ele>47.406576</ele>
        <time>2022-12-14T14:27:32.319Z</time>
      </trkpt>
      <trkpt lat="47.73344" lon="-2.22387">
        <ele>47.45922</ele>
        <time>2022-12-14T14:27:35.320Z</time>
      </trkpt>
      <trkpt lat="47.73335" lon="-2.22375">
        <ele>47.51657</ele>
        <time>2022-12-14T14:27:38.320Z</time>
      </trkpt>
      <trkpt lat="47.73325" lon="-2.22361">
        <ele>47.575837</ele>
        <time>2022-12-14T14:27:41.326Z</time>
      </trkpt>
      <trkpt lat="47.73317" lon="-2.22347">
        <ele>47.634604</ele>
        <time>2022-12-14T14:27:44.324Z</time>
      </trkpt>
      <trkpt lat="47.73308" lon="-2.22333">
        <ele>47.692321</ele>
        <time>2022-12-14T14:27:47.320Z</time>
      </trkpt>
      <trkpt lat="47.73299" lon="-2.2232">
        <ele>47.747648</ele>
        <time>2022-12-14T14:27:50.323Z</time>
      </trkpt>
      <trkpt lat="47.7329" lon="-2.22308">
        <ele>47.804113</ele>
        <time>2022-12-14T14:27:53.304Z</time>
      </trkpt>
      <trkpt lat="47.73281" lon="-2.22298">
        <ele>47.811344</ele>
        <time>2022-12-14T14:27:56.323Z</time>
      </trkpt>
      <trkpt lat="47.73271" lon="-2.2229">
        <ele>47.763895</ele>
        <time>2022-12-14T14:27:59.301Z</time>
      </trkpt>
      <trkpt lat="47.73261" lon="-2.22283">
        <ele>47.714753</ele>
        <time>2022-12-14T14:28:02.325Z</time>
      </trkpt>
      <trkpt lat="47.7325" lon="-2.22276">
        <ele>47.663285</ele>
        <time>2022-12-14T14:28:05.324Z</time>
      </trkpt>
      <trkpt lat="47.73239" lon="-2.22269">
        <ele>47.611481</ele>
        <time>2022-12-14T14:28:08.319Z</time>
      </trkpt>
      <trkpt lat="47.73227" lon="-2.22263">
        <ele>47.559001</ele>
        <time>2022-12-14T14:28:11.324Z</time>
      </trkpt>
      <trkpt lat="47.73216" lon="-2.22256">
        <ele>47.506177</ele>
        <time>2022-12-14T14:28:14.321Z</time>
      </trkpt>
      <trkpt lat="47.73205" lon="-2.22249">
        <ele>47.454315</ele>
        <time>2022-12-14T14:28:17.327Z</time>
      </trkpt>
      <trkpt lat="47.73193" lon="-2.22242">
        <ele>47.398766</ele>
        <time>2022-12-14T14:28:20.323Z</time>
      </trkpt>
      <trkpt lat="47.73181" lon="-2.22234">
        <ele>47.342596</ele>
        <time>2022-12-14T14:28:23.299Z</time>
      </trkpt>
      <trkpt lat="47.73169" lon="-2.22226">
        <ele>47.287434</ele>
        <time>2022-12-14T14:28:26.319Z</time>
      </trkpt>
      <trkpt lat="47.73158" lon="-2.22217">
        <ele>47.23367</ele>
        <time>2022-12-14T14:28:29.324Z</time>
      </trkpt>
      <trkpt lat="47.73149" lon="-2.22208">
        <ele>47.186021</ele>
        <time>2022-12-14T14:28:32.322Z</time>
      </trkpt>
      <trkpt lat="47.73141" lon="-2.22198">
        <ele>47.139264</ele>
        <time>2022-12-14T14:28:35.322Z</time>
      </trkpt>
      <trkpt lat="47.73132" lon="-2.22186">
        <ele>47.08754</ele>
        <time>2022-12-14T14:28:38.327Z</time>
      </trkpt>
      <trkpt lat="47.73122" lon="-2.22173">
        <ele>47.06139</ele>
        <time>2022-12-14T14:28:41.326Z</time>
      </trkpt>
      <trkpt lat="47.73113" lon="-2.2216">
        <ele>47.072772</ele>
        <time>2022-12-14T14:28:44.322Z</time>
      </trkpt>
      <trkpt lat="47.73103" lon="-2.22147">
        <ele>47.084337</ele>
        <time>2022-12-14T14:28:47.328Z</time>
      </trkpt>
      <trkpt lat="47.73095" lon="-2.22132">
        <ele>47.095702</ele>
        <time>2022-12-14T14:28:50.324Z</time>
      </trkpt>
      <trkpt lat="47.73087" lon="-2.22117">
        <ele>47.106994</ele>
        <time>2022-12-14T14:28:53.303Z</time>
      </trkpt>
      <trkpt lat="47.73081" lon="-2.22106">
        <ele>47.114976</ele>
        <time>2022-12-14T14:28:55.310Z</time>
      </trkpt>
      <trkpt lat="47.73074" lon="-2.22092">
        <ele>47.125459</ele>
        <time>2022-12-14T14:28:58.323Z</time>
      </trkpt>
      <trkpt lat="47.73067" lon="-2.22078">
        <ele>47.135773</ele>
        <time>2022-12-14T14:29:01.322Z</time>
      </trkpt>
      <trkpt lat="47.7306" lon="-2.22062">
        <ele>47.146937</ele>
        <time>2022-12-14T14:29:04.322Z</time>
      </trkpt>
      <trkpt lat="47.73055" lon="-2.22051">
        <ele>47.154792</ele>
        <time>2022-12-14T14:29:06.303Z</time>
      </trkpt>
      <trkpt lat="47.7305" lon="-2.22039">
        <ele>47.162659</ele>
        <time>2022-12-14T14:29:08.325Z</time>
      </trkpt>
      <trkpt lat="47.73045" lon="-2.22021">
        <ele>47.174159</ele>
        <time>2022-12-14T14:29:11.322Z</time>
      </trkpt>
      <trkpt lat="47.73041" lon="-2.22009">
        <ele>47.182148</ele>
        <time>2022-12-14T14:29:13.307Z</time>
      </trkpt>
      <trkpt lat="47.73036" lon="-2.21993">
        <ele>47.192249</ele>
        <time>2022-12-14T14:29:16.322Z</time>
      </trkpt>
      <trkpt lat="47.73033" lon="-2.21978">
        <ele>47.201467</ele>
        <time>2022-12-14T14:29:19.317Z</time>
      </trkpt>
      <trkpt lat="47.7303" lon="-2.21964">
        <ele>47.210217</ele>
        <time>2022-12-14T14:29:22.300Z</time>
      </trkpt>
      <trkpt lat="47.73028" lon="-2.21948">
        <ele>47.252991</ele>
        <time>2022-12-14T14:29:25.321Z</time>
      </trkpt>
      <trkpt lat="47.73026" lon="-2.2193">
        <ele>47.317381</ele>
        <time>2022-12-14T14:29:28.322Z</time>
      </trkpt>
      <trkpt lat="47.73024" lon="-2.21912">
        <ele>47.384809</ele>
        <time>2022-12-14T14:29:31.320Z</time>
      </trkpt>
      <trkpt lat="47.73021" lon="-2.21894">
        <ele>47.451654</ele>
        <time>2022-12-14T14:29:34.321Z</time>
      </trkpt>
      <trkpt lat="47.73019" lon="-2.21875">
        <ele>47.521457</ele>
        <time>2022-12-14T14:29:37.324Z</time>
      </trkpt>
      <trkpt lat="47.73015" lon="-2.21857">
        <ele>47.590576</ele>
        <time>2022-12-14T14:29:40.321Z</time>
      </trkpt>
      <trkpt lat="47.73013" lon="-2.21839">
        <ele>47.657185</ele>
        <time>2022-12-14T14:29:43.304Z</time>
      </trkpt>
      <trkpt lat="47.73009" lon="-2.21821">
        <ele>47.727166</ele>
        <time>2022-12-14T14:29:46.318Z</time>
      </trkpt>
      <trkpt lat="47.73005" lon="-2.21802">
        <ele>47.798047</ele>
        <time>2022-12-14T14:29:49.323Z</time>
      </trkpt>
      <trkpt lat="47.73002" lon="-2.21784">
        <ele>47.86739</ele>
        <time>2022-12-14T14:29:52.322Z</time>
      </trkpt>
      <trkpt lat="47.72998" lon="-2.21765">
        <ele>47.938576</ele>
        <time>2022-12-14T14:29:55.306Z</time>
      </trkpt>
      <trkpt lat="47.72995" lon="-2.21747">
        <ele>48.004831</ele>
        <time>2022-12-14T14:29:58.322Z</time>
      </trkpt>
      <trkpt lat="47.72991" lon="-2.21729">
        <ele>48.073947</ele>
        <time>2022-12-14T14:30:01.318Z</time>
      </trkpt>
      <trkpt lat="47.72986" lon="-2.21711">
        <ele>48.144103</ele>
        <time>2022-12-14T14:30:04.323Z</time>
      </trkpt>
      <trkpt lat="47.72982" lon="-2.21693">
        <ele>48.190363</ele>
        <time>2022-12-14T14:30:07.322Z</time>
      </trkpt>
      <trkpt lat="47.72978" lon="-2.2168">
        <ele>48.197718</ele>
        <time>2022-12-14T14:30:09.321Z</time>
      </trkpt>
      <trkpt lat="47.72973" lon="-2.21662">
        <ele>48.208127</ele>
        <time>2022-12-14T14:30:12.322Z</time>
      </trkpt>
      <trkpt lat="47.72969" lon="-2.21647">
        <ele>48.217071</ele>
        <time>2022-12-14T14:30:15.317Z</time>
      </trkpt>
      <trkpt lat="47.72964" lon="-2.21631">
        <ele>48.226425</ele>
        <time>2022-12-14T14:30:18.325Z</time>
      </trkpt>
      <trkpt lat="47.72959" lon="-2.21615">
        <ele>48.236176</ele>
        <time>2022-12-14T14:30:21.320Z</time>
      </trkpt>
      <trkpt lat="47.72953" lon="-2.21599">
        <ele>48.245842</ele>
        <time>2022-12-14T14:30:24.322Z</time>
      </trkpt>
      <trkpt lat="47.72948" lon="-2.21584">
        <ele>48.254981</ele>
        <time>2022-12-14T14:30:27.327Z</time>
      </trkpt>
      <trkpt lat="47.72942" lon="-2.2157">
        <ele>48.263907</ele>
        <time>2022-12-14T14:30:30.324Z</time>
      </trkpt>
      <trkpt lat="47.72936" lon="-2.21555">
        <ele>48.273159</ele>
        <time>2022-12-14T14:30:33.301Z</time>
      </trkpt>
      <trkpt lat="47.72931" lon="-2.21543">
        <ele>48.281167</ele>
        <time>2022-12-14T14:30:36.324Z</time>
      </trkpt>
      <trkpt lat="47.72925" lon="-2.2153">
        <ele>48.289259</ele>
        <time>2022-12-14T14:30:39.323Z</time>
      </trkpt>
      <trkpt lat="47.72919" lon="-2.21516">
        <ele>48.298331</ele>
        <time>2022-12-14T14:30:42.302Z</time>
      </trkpt>
      <trkpt lat="47.72912" lon="-2.21502">
        <ele>48.307585</ele>
        <time>2022-12-14T14:30:45.324Z</time>
      </trkpt>
      <trkpt lat="47.72904" lon="-2.21488">
        <ele>48.317252</ele>
        <time>2022-12-14T14:30:48.311Z</time>
      </trkpt>
      <trkpt lat="47.72898" lon="-2.21475">
        <ele>48.325969</ele>
        <time>2022-12-14T14:30:51.323Z</time>
      </trkpt>
      <trkpt lat="47.72893" lon="-2.21462">
        <ele>48.346538</ele>
        <time>2022-12-14T14:30:54.322Z</time>
      </trkpt>
      <trkpt lat="47.72887" lon="-2.21449">
        <ele>48.379614</ele>
        <time>2022-12-14T14:30:57.323Z</time>
      </trkpt>
      <trkpt lat="47.7288" lon="-2.21442">
        <ele>48.408259</ele>
        <time>2022-12-14T14:31:00.309Z</time>
      </trkpt>
      <trkpt lat="47.7287" lon="-2.21438">
        <ele>48.440876</ele>
        <time>2022-12-14T14:31:03.308Z</time>
      </trkpt>
      <trkpt lat="47.72859" lon="-2.21433">
        <ele>48.475941</ele>
        <time>2022-12-14T14:31:06.317Z</time>
      </trkpt>
      <trkpt lat="47.72849" lon="-2.21426">
        <ele>48.512518</ele>
        <time>2022-12-14T14:31:09.305Z</time>
      </trkpt>
      <trkpt lat="47.72838" lon="-2.21417">
        <ele>48.55157</ele>
        <time>2022-12-14T14:31:12.325Z</time>
      </trkpt>
      <trkpt lat="47.72827" lon="-2.21408">
        <ele>48.590987</ele>
        <time>2022-12-14T14:31:15.324Z</time>
      </trkpt>
      <trkpt lat="47.72817" lon="-2.21399">
        <ele>48.629272</ele>
        <time>2022-12-14T14:31:18.324Z</time>
      </trkpt>
      <trkpt lat="47.72807" lon="-2.21389">
        <ele>48.668279</ele>
        <time>2022-12-14T14:31:21.318Z</time>
      </trkpt>
      <trkpt lat="47.72797" lon="-2.2138">
        <ele>48.705088</ele>
        <time>2022-12-14T14:31:24.321Z</time>
      </trkpt>
      <trkpt lat="47.72788" lon="-2.21373">
        <ele>48.736709</ele>
        <time>2022-12-14T14:31:27.324Z</time>
      </trkpt>
      <trkpt lat="47.7278" lon="-2.21365">
        <ele>48.766574</ele>
        <time>2022-12-14T14:31:30.325Z</time>
      </trkpt>
      <trkpt lat="47.72771" lon="-2.2136">
        <ele>48.798497</ele>
        <time>2022-12-14T14:31:33.302Z</time>
      </trkpt>
      <trkpt lat="47.72761" lon="-2.21353">
        <ele>48.832725</ele>
        <time>2022-12-14T14:31:36.323Z</time>
      </trkpt>
      <trkpt lat="47.72751" lon="-2.21346">
        <ele>48.868321</ele>
        <time>2022-12-14T14:31:39.301Z</time>
      </trkpt>
      <trkpt lat="47.7274" lon="-2.21339">
        <ele>48.906633</ele>
        <time>2022-12-14T14:31:42.321Z</time>
      </trkpt>
      <trkpt lat="47.72729" lon="-2.21332">
        <ele>48.963135</ele>
        <time>2022-12-14T14:31:45.324Z</time>
      </trkpt>
      <trkpt lat="47.72717" lon="-2.21324">
        <ele>49.021966</ele>
        <time>2022-12-14T14:31:48.308Z</time>
      </trkpt>
      <trkpt lat="47.72706" lon="-2.21316">
        <ele>49.081083</ele>
        <time>2022-12-14T14:31:51.324Z</time>
      </trkpt>
      <trkpt lat="47.72694" lon="-2.21308">
        <ele>49.138951</ele>
        <time>2022-12-14T14:31:54.317Z</time>
      </trkpt>
      <trkpt lat="47.72683" lon="-2.21301">
        <ele>49.196962</ele>
        <time>2022-12-14T14:31:57.321Z</time>
      </trkpt>
      <trkpt lat="47.72674" lon="-2.21296">
        <ele>49.240637</ele>
        <time>2022-12-14T14:31:59.324Z</time>
      </trkpt>
      <trkpt lat="47.72661" lon="-2.21291">
        <ele>49.29978</ele>
        <time>2022-12-14T14:32:02.321Z</time>
      </trkpt>
      <trkpt lat="47.72651" lon="-2.21288">
        <ele>49.350053</ele>
        <time>2022-12-14T14:32:05.324Z</time>
      </trkpt>
      <trkpt lat="47.72641" lon="-2.21288">
        <ele>49.395525</ele>
        <time>2022-12-14T14:32:08.323Z</time>
      </trkpt>
      <trkpt lat="47.72631" lon="-2.21288">
        <ele>49.438675</ele>
        <time>2022-12-14T14:32:11.322Z</time>
      </trkpt>
      <trkpt lat="47.72621" lon="-2.21288">
        <ele>49.485076</ele>
        <time>2022-12-14T14:32:14.308Z</time>
      </trkpt>
      <trkpt lat="47.72611" lon="-2.21289">
        <ele>49.532407</ele>
        <time>2022-12-14T14:32:17.323Z</time>
      </trkpt>
      <trkpt lat="47.72602" lon="-2.21289">
        <ele>49.573722</ele>
        <time>2022-12-14T14:32:20.323Z</time>
      </trkpt>
      <trkpt lat="47.72591" lon="-2.2129">
        <ele>49.624241</ele>
        <time>2022-12-14T14:32:24.330Z</time>
      </trkpt>
      <trkpt lat="47.72581" lon="-2.2129">
        <ele>49.669279</ele>
        <time>2022-12-14T14:32:28.320Z</time>
      </trkpt>
      <trkpt lat="47.72574" lon="-2.21295">
        <ele>49.705676</ele>
        <time>2022-12-14T14:33:11.975Z</time>
      </trkpt>
      <trkpt lat="47.72571" lon="-2.21297">
        <ele>49.721611</ele>
        <time>2022-12-14T15:02:20.910Z</time>
      </trkpt>
      <trkpt lat="47.72562" lon="-2.2129">
        <ele>49.851187</ele>
        <time>2022-12-14T15:10:51.321Z</time>
      </trkpt>
      <trkpt lat="47.72551" lon="-2.21295">
        <ele>50.006906</ele>
        <time>2022-12-14T15:10:56.321Z</time>
      </trkpt>
      <trkpt lat="47.7254" lon="-2.21294">
        <ele>50.164816</ele>
        <time>2022-12-14T15:11:01.339Z</time>
      </trkpt>
      <trkpt lat="47.72532" lon="-2.21299">
        <ele>50.294315</ele>
        <time>2022-12-14T15:11:05.316Z</time>
      </trkpt>
      <trkpt lat="47.72523" lon="-2.21306">
        <ele>50.436648</ele>
        <time>2022-12-14T15:11:09.332Z</time>
      </trkpt>
      <trkpt lat="47.72514" lon="-2.21298">
        <ele>50.591594</ele>
        <time>2022-12-14T15:11:13.318Z</time>
      </trkpt>
      <trkpt lat="47.72506" lon="-2.21285">
        <ele>50.757613</ele>
        <time>2022-12-14T15:11:17.340Z</time>
      </trkpt>
      <trkpt lat="47.72501" lon="-2.21273">
        <ele>50.890587</ele>
        <time>2022-12-14T15:11:20.346Z</time>
      </trkpt>
      <trkpt lat="47.72493" lon="-2.21261">
        <ele>51.049174</ele>
        <time>2022-12-14T15:11:24.321Z</time>
      </trkpt>
      <trkpt lat="47.72486" lon="-2.21248">
        <ele>51.218202</ele>
        <time>2022-12-14T15:11:28.321Z</time>
      </trkpt>
      <trkpt lat="47.72479" lon="-2.21236">
        <ele>51.365804</ele>
        <time>2022-12-14T15:11:31.326Z</time>
      </trkpt>
      <trkpt lat="47.72473" lon="-2.21224">
        <ele>51.509296</ele>
        <time>2022-12-14T15:11:34.339Z</time>
      </trkpt>
      <trkpt lat="47.72469" lon="-2.2121">
        <ele>51.662032</ele>
        <time>2022-12-14T15:11:37.319Z</time>
      </trkpt>
      <trkpt lat="47.72467" lon="-2.21196">
        <ele>51.79613</ele>
        <time>2022-12-14T15:11:40.316Z</time>
      </trkpt>
      <trkpt lat="47.72464" lon="-2.21179">
        <ele>51.967669</ele>
        <time>2022-12-14T15:11:44.316Z</time>
      </trkpt>
      <trkpt lat="47.72463" lon="-2.21165">
        <ele>52.105661</ele>
        <time>2022-12-14T15:11:47.332Z</time>
      </trkpt>
      <trkpt lat="47.72462" lon="-2.21151">
        <ele>52.242153</ele>
        <time>2022-12-14T15:11:50.328Z</time>
      </trkpt>
      <trkpt lat="47.72463" lon="-2.21136">
        <ele>52.304339</ele>
        <time>2022-12-14T15:11:53.318Z</time>
      </trkpt>
      <trkpt lat="47.72465" lon="-2.21122">
        <ele>52.29289</ele>
        <time>2022-12-14T15:11:56.330Z</time>
      </trkpt>
      <trkpt lat="47.72465" lon="-2.21108">
        <ele>52.282548</ele>
        <time>2022-12-14T15:11:59.317Z</time>
      </trkpt>
      <trkpt lat="47.72464" lon="-2.21092">
        <ele>52.270403</ele>
        <time>2022-12-14T15:12:03.315Z</time>
      </trkpt>
      <trkpt lat="47.72462" lon="-2.21075">
        <ele>52.256475</ele>
        <time>2022-12-14T15:12:07.316Z</time>
      </trkpt>
      <trkpt lat="47.72459" lon="-2.21059">
        <ele>52.244053</ele>
        <time>2022-12-14T15:12:10.317Z</time>
      </trkpt>
      <trkpt lat="47.72457" lon="-2.21043">
        <ele>52.231182</ele>
        <time>2022-12-14T15:12:13.316Z</time>
      </trkpt>
      <trkpt lat="47.72454" lon="-2.21026">
        <ele>52.218185</ele>
        <time>2022-12-14T15:12:16.327Z</time>
      </trkpt>
      <trkpt lat="47.72453" lon="-2.21011">
        <ele>52.205977</ele>
        <time>2022-12-14T15:12:19.337Z</time>
      </trkpt>
      <trkpt lat="47.72452" lon="-2.20995">
        <ele>52.193505</ele>
        <time>2022-12-14T15:12:23.322Z</time>
      </trkpt>
      <trkpt lat="47.7245" lon="-2.20978">
        <ele>52.180801</ele>
        <time>2022-12-14T15:12:27.326Z</time>
      </trkpt>
      <trkpt lat="47.72448" lon="-2.20964">
        <ele>52.169408</ele>
        <time>2022-12-14T15:12:30.329Z</time>
      </trkpt>
      <trkpt lat="47.72448" lon="-2.20946">
        <ele>52.155678</ele>
        <time>2022-12-14T15:12:33.320Z</time>
      </trkpt>
      <trkpt lat="47.72449" lon="-2.20928">
        <ele>52.142021</ele>
        <time>2022-12-14T15:12:36.321Z</time>
      </trkpt>
      <trkpt lat="47.72451" lon="-2.2091">
        <ele>52.127509</ele>
        <time>2022-12-14T15:12:39.316Z</time>
      </trkpt>
      <trkpt lat="47.72455" lon="-2.20891">
        <ele>52.112551</ele>
        <time>2022-12-14T15:12:42.325Z</time>
      </trkpt>
      <trkpt lat="47.72457" lon="-2.20873">
        <ele>52.080437</ele>
        <time>2022-12-14T15:12:45.335Z</time>
      </trkpt>
      <trkpt lat="47.72459" lon="-2.20855">
        <ele>52.013418</ele>
        <time>2022-12-14T15:12:48.337Z</time>
      </trkpt>
      <trkpt lat="47.72459" lon="-2.20836">
        <ele>51.947164</ele>
        <time>2022-12-14T15:12:51.314Z</time>
      </trkpt>
      <trkpt lat="47.72457" lon="-2.20818">
        <ele>51.879877</ele>
        <time>2022-12-14T15:12:54.336Z</time>
      </trkpt>
      <trkpt lat="47.72456" lon="-2.20799">
        <ele>51.814811</ele>
        <time>2022-12-14T15:12:57.337Z</time>
      </trkpt>
      <trkpt lat="47.72453" lon="-2.20783">
        <ele>51.754052</ele>
        <time>2022-12-14T15:13:00.322Z</time>
      </trkpt>
      <trkpt lat="47.7245" lon="-2.20766">
        <ele>51.693147</ele>
        <time>2022-12-14T15:13:03.316Z</time>
      </trkpt>
      <trkpt lat="47.72447" lon="-2.20749">
        <ele>51.628799</ele>
        <time>2022-12-14T15:13:06.321Z</time>
      </trkpt>
      <trkpt lat="47.72444" lon="-2.20732">
        <ele>51.565503</ele>
        <time>2022-12-14T15:13:09.347Z</time>
      </trkpt>
      <trkpt lat="47.7244" lon="-2.20715">
        <ele>51.501933</ele>
        <time>2022-12-14T15:13:12.333Z</time>
      </trkpt>
      <trkpt lat="47.72437" lon="-2.20697">
        <ele>51.438843</ele>
        <time>2022-12-14T15:13:15.340Z</time>
      </trkpt>
      <trkpt lat="47.72435" lon="-2.2068">
        <ele>51.375995</ele>
        <time>2022-12-14T15:13:18.316Z</time>
      </trkpt>
      <trkpt lat="47.72433" lon="-2.20664">
        <ele>51.317486</ele>
        <time>2022-12-14T15:13:21.322Z</time>
      </trkpt>
      <trkpt lat="47.72433" lon="-2.20646">
        <ele>51.25201</ele>
        <time>2022-12-14T15:13:24.348Z</time>
      </trkpt>
      <trkpt lat="47.72432" lon="-2.20629">
        <ele>51.192151</ele>
        <time>2022-12-14T15:13:27.318Z</time>
      </trkpt>
      <trkpt lat="47.72431" lon="-2.20612">
        <ele>51.067899</ele>
        <time>2022-12-14T15:13:31.323Z</time>
      </trkpt>
      <trkpt lat="47.72428" lon="-2.20599">
        <ele>50.875581</ele>
        <time>2022-12-14T15:13:34.323Z</time>
      </trkpt>
      <trkpt lat="47.72426" lon="-2.20584">
        <ele>50.659805</ele>
        <time>2022-12-14T15:13:37.315Z</time>
      </trkpt>
      <trkpt lat="47.72424" lon="-2.20569">
        <ele>50.440645</ele>
        <time>2022-12-14T15:13:40.320Z</time>
      </trkpt>
      <trkpt lat="47.72423" lon="-2.20551">
        <ele>50.19151</ele>
        <time>2022-12-14T15:13:43.317Z</time>
      </trkpt>
      <trkpt lat="47.72422" lon="-2.20532">
        <ele>49.926928</ele>
        <time>2022-12-14T15:13:46.330Z</time>
      </trkpt>
      <trkpt lat="47.72421" lon="-2.20513">
        <ele>49.648404</ele>
        <time>2022-12-14T15:13:49.320Z</time>
      </trkpt>
      <trkpt lat="47.72422" lon="-2.20494">
        <ele>49.389013</ele>
        <time>2022-12-14T15:13:52.339Z</time>
      </trkpt>
      <trkpt lat="47.72424" lon="-2.20478">
        <ele>49.15721</ele>
        <time>2022-12-14T15:13:55.331Z</time>
      </trkpt>
      <trkpt lat="47.72424" lon="-2.20463">
        <ele>48.937448</ele>
        <time>2022-12-14T15:13:58.345Z</time>
      </trkpt>
      <trkpt lat="47.72424" lon="-2.20446">
        <ele>48.708425</ele>
        <time>2022-12-14T15:14:01.323Z</time>
      </trkpt>
      <trkpt lat="47.72425" lon="-2.20428">
        <ele>48.444804</ele>
        <time>2022-12-14T15:14:04.349Z</time>
      </trkpt>
      <trkpt lat="47.72427" lon="-2.20408">
        <ele>48.162887</ele>
        <time>2022-12-14T15:14:07.329Z</time>
      </trkpt>
      <trkpt lat="47.72428" lon="-2.20395">
        <ele>47.971887</ele>
        <time>2022-12-14T15:14:09.349Z</time>
      </trkpt>
      <trkpt lat="47.72431" lon="-2.20378">
        <ele>47.727532</ele>
        <time>2022-12-14T15:14:12.319Z</time>
      </trkpt>
      <trkpt lat="47.72434" lon="-2.20362">
        <ele>47.490707</ele>
        <time>2022-12-14T15:14:15.323Z</time>
      </trkpt>
      <trkpt lat="47.72436" lon="-2.20344">
        <ele>47.474438</ele>
        <time>2022-12-14T15:14:18.334Z</time>
      </trkpt>
      <trkpt lat="47.72437" lon="-2.20326">
        <ele>47.667281</ele>
        <time>2022-12-14T15:14:21.340Z</time>
      </trkpt>
      <trkpt lat="47.72438" lon="-2.20311">
        <ele>47.827504</ele>
        <time>2022-12-14T15:14:24.322Z</time>
      </trkpt>
      <trkpt lat="47.72439" lon="-2.20293">
        <ele>48.018518</ele>
        <time>2022-12-14T15:14:27.325Z</time>
      </trkpt>
      <trkpt lat="47.72441" lon="-2.20275">
        <ele>48.209695</ele>
        <time>2022-12-14T15:14:30.333Z</time>
      </trkpt>
      <trkpt lat="47.72443" lon="-2.20257">
        <ele>48.407377</ele>
        <time>2022-12-14T15:14:33.319Z</time>
      </trkpt>
      <trkpt lat="47.72444" lon="-2.20239">
        <ele>48.601722</ele>
        <time>2022-12-14T15:14:36.343Z</time>
      </trkpt>
      <trkpt lat="47.72445" lon="-2.20221">
        <ele>48.791265</ele>
        <time>2022-12-14T15:14:39.324Z</time>
      </trkpt>
      <trkpt lat="47.72445" lon="-2.20202">
        <ele>48.987715</ele>
        <time>2022-12-14T15:14:42.322Z</time>
      </trkpt>
      <trkpt lat="47.72444" lon="-2.20185">
        <ele>49.173795</ele>
        <time>2022-12-14T15:14:45.330Z</time>
      </trkpt>
      <trkpt lat="47.72441" lon="-2.20168">
        <ele>49.362739</ele>
        <time>2022-12-14T15:14:48.338Z</time>
      </trkpt>
      <trkpt lat="47.72438" lon="-2.20151">
        <ele>49.546151</ele>
        <time>2022-12-14T15:14:51.334Z</time>
      </trkpt>
      <trkpt lat="47.72435" lon="-2.20135">
        <ele>49.718623</ele>
        <time>2022-12-14T15:14:54.326Z</time>
      </trkpt>
      <trkpt lat="47.72432" lon="-2.20118">
        <ele>49.90593</ele>
        <time>2022-12-14T15:14:57.315Z</time>
      </trkpt>
      <trkpt lat="47.72428" lon="-2.20101">
        <ele>50.098173</ele>
        <time>2022-12-14T15:15:00.329Z</time>
      </trkpt>
      <trkpt lat="47.72424" lon="-2.20085">
        <ele>50.183719</ele>
        <time>2022-12-14T15:15:03.318Z</time>
      </trkpt>
      <trkpt lat="47.72419" lon="-2.20068">
        <ele>50.102043</ele>
        <time>2022-12-14T15:15:06.318Z</time>
      </trkpt>
      <trkpt lat="47.72415" lon="-2.20052">
        <ele>50.020602</ele>
        <time>2022-12-14T15:15:09.326Z</time>
      </trkpt>
      <trkpt lat="47.72412" lon="-2.20035">
        <ele>49.9409</ele>
        <time>2022-12-14T15:15:12.324Z</time>
      </trkpt>
      <trkpt lat="47.72408" lon="-2.20017">
        <ele>49.858745</ele>
        <time>2022-12-14T15:15:15.322Z</time>
      </trkpt>
      <trkpt lat="47.72406" lon="-2.2">
        <ele>49.778834</ele>
        <time>2022-12-14T15:15:18.323Z</time>
      </trkpt>
      <trkpt lat="47.72405" lon="-2.19982">
        <ele>49.699619</ele>
        <time>2022-12-14T15:15:21.321Z</time>
      </trkpt>
      <trkpt lat="47.72403" lon="-2.19967">
        <ele>49.629734</ele>
        <time>2022-12-14T15:15:24.326Z</time>
      </trkpt>
      <trkpt lat="47.72402" lon="-2.19951">
        <ele>49.556061</ele>
        <time>2022-12-14T15:15:27.326Z</time>
      </trkpt>
      <trkpt lat="47.72401" lon="-2.19934">
        <ele>49.477625</ele>
        <time>2022-12-14T15:15:30.320Z</time>
      </trkpt>
      <trkpt lat="47.724" lon="-2.19915">
        <ele>49.393479</ele>
        <time>2022-12-14T15:15:33.318Z</time>
      </trkpt>
      <trkpt lat="47.724" lon="-2.19897">
        <ele>49.309679</ele>
        <time>2022-12-14T15:15:36.327Z</time>
      </trkpt>
      <trkpt lat="47.72398" lon="-2.19878">
        <ele>49.223415</ele>
        <time>2022-12-14T15:15:39.326Z</time>
      </trkpt>
      <trkpt lat="47.72397" lon="-2.19859">
        <ele>49.137128</ele>
        <time>2022-12-14T15:15:42.321Z</time>
      </trkpt>
      <trkpt lat="47.72394" lon="-2.1984">
        <ele>49.048903</ele>
        <time>2022-12-14T15:15:45.352Z</time>
      </trkpt>
      <trkpt lat="47.72392" lon="-2.19826">
        <ele>49.038658</ele>
        <time>2022-12-14T15:15:47.316Z</time>
      </trkpt>
      <trkpt lat="47.72389" lon="-2.19809">
        <ele>49.190985</ele>
        <time>2022-12-14T15:15:50.347Z</time>
      </trkpt>
      <trkpt lat="47.72386" lon="-2.19794">
        <ele>49.320483</ele>
        <time>2022-12-14T15:15:53.319Z</time>
      </trkpt>
      <trkpt lat="47.72384" lon="-2.19778">
        <ele>49.466101</ele>
        <time>2022-12-14T15:15:57.327Z</time>
      </trkpt>
      <trkpt lat="47.72381" lon="-2.19761">
        <ele>49.622642</ele>
        <time>2022-12-14T15:16:01.325Z</time>
      </trkpt>
      <trkpt lat="47.72378" lon="-2.19745">
        <ele>49.764889</ele>
        <time>2022-12-14T15:16:04.327Z</time>
      </trkpt>
      <trkpt lat="47.72375" lon="-2.19727">
        <ele>49.921227</ele>
        <time>2022-12-14T15:16:07.323Z</time>
      </trkpt>
      <trkpt lat="47.72371" lon="-2.1971">
        <ele>50.076472</ele>
        <time>2022-12-14T15:16:10.319Z</time>
      </trkpt>
      <trkpt lat="47.72367" lon="-2.19694">
        <ele>50.230878</ele>
        <time>2022-12-14T15:16:13.323Z</time>
      </trkpt>
      <trkpt lat="47.72363" lon="-2.19677">
        <ele>50.385646</ele>
        <time>2022-12-14T15:16:16.334Z</time>
      </trkpt>
      <trkpt lat="47.7236" lon="-2.19659">
        <ele>50.545421</ele>
        <time>2022-12-14T15:16:19.331Z</time>
      </trkpt>
      <trkpt lat="47.72357" lon="-2.19642">
        <ele>50.699433</ele>
        <time>2022-12-14T15:16:22.329Z</time>
      </trkpt>
      <trkpt lat="47.72354" lon="-2.19624">
        <ele>50.859657</ele>
        <time>2022-12-14T15:16:25.326Z</time>
      </trkpt>
      <trkpt lat="47.7235" lon="-2.19607">
        <ele>51.018984</ele>
        <time>2022-12-14T15:16:28.328Z</time>
      </trkpt>
      <trkpt lat="47.72345" lon="-2.19591">
        <ele>51.166949</ele>
        <time>2022-12-14T15:16:31.346Z</time>
      </trkpt>
      <trkpt lat="47.72339" lon="-2.19577">
        <ele>51.311982</ele>
        <time>2022-12-14T15:16:34.321Z</time>
      </trkpt>
      <trkpt lat="47.72339" lon="-2.19559">
        <ele>51.486921</ele>
        <time>2022-12-14T15:16:37.348Z</time>
      </trkpt>
      <trkpt lat="47.72343" lon="-2.1954">
        <ele>51.686568</ele>
        <time>2022-12-14T15:16:40.336Z</time>
      </trkpt>
      <trkpt lat="47.72346" lon="-2.19528">
        <ele>51.823529</ele>
        <time>2022-12-14T15:16:42.330Z</time>
      </trkpt>
      <trkpt lat="47.72349" lon="-2.19509">
        <ele>52.017425</ele>
        <time>2022-12-14T15:16:45.324Z</time>
      </trkpt>
      <trkpt lat="47.7235" lon="-2.19489">
        <ele>52.212653</ele>
        <time>2022-12-14T15:16:48.324Z</time>
      </trkpt>
      <trkpt lat="47.72351" lon="-2.19476">
        <ele>52.349232</ele>
        <time>2022-12-14T15:16:50.340Z</time>
      </trkpt>
      <trkpt lat="47.72353" lon="-2.19456">
        <ele>52.551624</ele>
        <time>2022-12-14T15:16:53.318Z</time>
      </trkpt>
      <trkpt lat="47.72354" lon="-2.19436">
        <ele>52.746321</ele>
        <time>2022-12-14T15:16:56.330Z</time>
      </trkpt>
      <trkpt lat="47.72355" lon="-2.19417">
        <ele>52.93847</ele>
        <time>2022-12-14T15:16:59.327Z</time>
      </trkpt>
      <trkpt lat="47.72356" lon="-2.19398">
        <ele>53.132015</ele>
        <time>2022-12-14T15:17:02.321Z</time>
      </trkpt>
      <trkpt lat="47.72357" lon="-2.19379">
        <ele>53.328282</ele>
        <time>2022-12-14T15:17:05.323Z</time>
      </trkpt>
      <trkpt lat="47.72359" lon="-2.19361">
        <ele>53.508399</ele>
        <time>2022-12-14T15:17:08.325Z</time>
      </trkpt>
      <trkpt lat="47.72359" lon="-2.19343">
        <ele>53.683978</ele>
        <time>2022-12-14T15:17:11.322Z</time>
      </trkpt>
      <trkpt lat="47.72359" lon="-2.19324">
        <ele>53.882573</ele>
        <time>2022-12-14T15:17:14.346Z</time>
      </trkpt>
      <trkpt lat="47.72358" lon="-2.19304">
        <ele>53.926845</ele>
        <time>2022-12-14T15:17:17.340Z</time>
      </trkpt>
      <trkpt lat="47.72355" lon="-2.19291">
        <ele>53.777411</ele>
        <time>2022-12-14T15:17:19.331Z</time>
      </trkpt>
      <trkpt lat="47.72352" lon="-2.19272">
        <ele>53.566632</ele>
        <time>2022-12-14T15:17:22.340Z</time>
      </trkpt>
      <trkpt lat="47.72349" lon="-2.19256">
        <ele>53.385317</ele>
        <time>2022-12-14T15:17:25.325Z</time>
      </trkpt>
      <trkpt lat="47.72347" lon="-2.1924">
        <ele>53.206128</ele>
        <time>2022-12-14T15:17:28.340Z</time>
      </trkpt>
      <trkpt lat="47.72344" lon="-2.19223">
        <ele>53.014402</ele>
        <time>2022-12-14T15:17:31.347Z</time>
      </trkpt>
      <trkpt lat="47.72341" lon="-2.19205">
        <ele>52.810245</ele>
        <time>2022-12-14T15:17:34.338Z</time>
      </trkpt>
      <trkpt lat="47.72338" lon="-2.19187">
        <ele>52.606207</ele>
        <time>2022-12-14T15:17:37.357Z</time>
      </trkpt>
      <trkpt lat="47.72336" lon="-2.19168">
        <ele>52.397972</ele>
        <time>2022-12-14T15:17:40.331Z</time>
      </trkpt>
      <trkpt lat="47.72335" lon="-2.19149">
        <ele>52.190877</ele>
        <time>2022-12-14T15:17:43.328Z</time>
      </trkpt>
      <trkpt lat="47.72335" lon="-2.19131">
        <ele>51.999798</ele>
        <time>2022-12-14T15:17:46.330Z</time>
      </trkpt>
      <trkpt lat="47.72335" lon="-2.19115">
        <ele>51.821953</ele>
        <time>2022-12-14T15:17:49.335Z</time>
      </trkpt>
      <trkpt lat="47.72335" lon="-2.19098">
        <ele>51.63541</ele>
        <time>2022-12-14T15:17:52.323Z</time>
      </trkpt>
      <trkpt lat="47.72335" lon="-2.1908">
        <ele>51.442322</ele>
        <time>2022-12-14T15:17:55.341Z</time>
      </trkpt>
      <trkpt lat="47.72335" lon="-2.19062">
        <ele>51.242629</ele>
        <time>2022-12-14T15:17:58.344Z</time>
      </trkpt>
      <trkpt lat="47.72335" lon="-2.19043">
        <ele>51.10414</ele>
        <time>2022-12-14T15:18:01.322Z</time>
      </trkpt>
      <trkpt lat="47.72335" lon="-2.19024">
        <ele>51.157599</ele>
        <time>2022-12-14T15:18:04.328Z</time>
      </trkpt>
      <trkpt lat="47.72335" lon="-2.19005">
        <ele>51.210531</ele>
        <time>2022-12-14T15:18:07.324Z</time>
      </trkpt>
      <trkpt lat="47.72335" lon="-2.18988">
        <ele>51.258078</ele>
        <time>2022-12-14T15:18:10.317Z</time>
      </trkpt>
      <trkpt lat="47.72335" lon="-2.18971">
        <ele>51.30563</ele>
        <time>2022-12-14T15:18:13.324Z</time>
      </trkpt>
      <trkpt lat="47.72335" lon="-2.18954">
        <ele>51.355426</ele>
        <time>2022-12-14T15:18:16.320Z</time>
      </trkpt>
      <trkpt lat="47.72335" lon="-2.18936">
        <ele>51.405786</ele>
        <time>2022-12-14T15:18:19.346Z</time>
      </trkpt>
      <trkpt lat="47.72335" lon="-2.18917">
        <ele>51.459527</ele>
        <time>2022-12-14T15:18:22.326Z</time>
      </trkpt>
      <trkpt lat="47.72335" lon="-2.18898">
        <ele>51.512424</ele>
        <time>2022-12-14T15:18:25.327Z</time>
      </trkpt>
      <trkpt lat="47.72334" lon="-2.18879">
        <ele>51.565167</ele>
        <time>2022-12-14T15:18:28.331Z</time>
      </trkpt>
      <trkpt lat="47.72334" lon="-2.18863">
        <ele>51.610751</ele>
        <time>2022-12-14T15:18:31.337Z</time>
      </trkpt>
      <trkpt lat="47.72334" lon="-2.18849">
        <ele>51.650527</ele>
        <time>2022-12-14T15:18:34.326Z</time>
      </trkpt>
      <trkpt lat="47.72332" lon="-2.18834">
        <ele>51.692417</ele>
        <time>2022-12-14T15:18:37.319Z</time>
      </trkpt>
      <trkpt lat="47.72331" lon="-2.18819">
        <ele>51.734806</ele>
        <time>2022-12-14T15:18:40.334Z</time>
      </trkpt>
      <trkpt lat="47.72329" lon="-2.18806">
        <ele>51.773673</ele>
        <time>2022-12-14T15:18:43.321Z</time>
      </trkpt>
      <trkpt lat="47.72327" lon="-2.18789">
        <ele>51.822733</ele>
        <time>2022-12-14T15:18:46.329Z</time>
      </trkpt>
      <trkpt lat="47.72324" lon="-2.18771">
        <ele>51.818305</ele>
        <time>2022-12-14T15:18:49.320Z</time>
      </trkpt>
      <trkpt lat="47.72321" lon="-2.18752">
        <ele>51.778791</ele>
        <time>2022-12-14T15:18:52.333Z</time>
      </trkpt>
      <trkpt lat="47.72318" lon="-2.18734">
        <ele>51.739484</ele>
        <time>2022-12-14T15:18:55.332Z</time>
      </trkpt>
      <trkpt lat="47.72316" lon="-2.18717">
        <ele>51.702553</ele>
        <time>2022-12-14T15:18:58.321Z</time>
      </trkpt>
      <trkpt lat="47.72313" lon="-2.18701">
        <ele>51.666852</ele>
        <time>2022-12-14T15:19:01.342Z</time>
      </trkpt>
      <trkpt lat="47.7231" lon="-2.18684">
        <ele>51.629722</ele>
        <time>2022-12-14T15:19:04.328Z</time>
      </trkpt>
      <trkpt lat="47.72308" lon="-2.18666">
        <ele>51.591903</ele>
        <time>2022-12-14T15:19:07.330Z</time>
      </trkpt>
      <trkpt lat="47.72305" lon="-2.18648">
        <ele>51.552389</ele>
        <time>2022-12-14T15:19:10.326Z</time>
      </trkpt>
      <trkpt lat="47.72302" lon="-2.18629">
        <ele>51.511701</ele>
        <time>2022-12-14T15:19:13.327Z</time>
      </trkpt>
      <trkpt lat="47.723" lon="-2.1861">
        <ele>51.470859</ele>
        <time>2022-12-14T15:19:16.328Z</time>
      </trkpt>
      <trkpt lat="47.72298" lon="-2.18592">
        <ele>51.431585</ele>
        <time>2022-12-14T15:19:19.317Z</time>
      </trkpt>
      <trkpt lat="47.72296" lon="-2.18577">
        <ele>51.4011</ele>
        <time>2022-12-14T15:19:22.372Z</time>
      </trkpt>
      <trkpt lat="47.72294" lon="-2.18564">
        <ele>51.371277</ele>
        <time>2022-12-14T15:19:27.319Z</time>
      </trkpt>
      <trkpt lat="47.72292" lon="-2.18549">
        <ele>51.338961</ele>
        <time>2022-12-14T15:19:31.321Z</time>
      </trkpt>
      <trkpt lat="47.7229" lon="-2.18535">
        <ele>51.309471</ele>
        <time>2022-12-14T15:19:34.328Z</time>
      </trkpt>
      <trkpt lat="47.72287" lon="-2.1852">
        <ele>51.278248</ele>
        <time>2022-12-14T15:19:37.327Z</time>
      </trkpt>
      <trkpt lat="47.72284" lon="-2.18504">
        <ele>51.284644</ele>
        <time>2022-12-14T15:19:40.325Z</time>
      </trkpt>
      <trkpt lat="47.72281" lon="-2.1849">
        <ele>51.2903</ele>
        <time>2022-12-14T15:19:43.338Z</time>
      </trkpt>
      <trkpt lat="47.7228" lon="-2.18477">
        <ele>51.295657</ele>
        <time>2022-12-14T15:19:46.340Z</time>
      </trkpt>
      <trkpt lat="47.72278" lon="-2.18462">
        <ele>51.30155</ele>
        <time>2022-12-14T15:19:49.339Z</time>
      </trkpt>
      <trkpt lat="47.72276" lon="-2.18447">
        <ele>51.307619</ele>
        <time>2022-12-14T15:19:53.325Z</time>
      </trkpt>
      <trkpt lat="47.72273" lon="-2.18432">
        <ele>51.313986</ele>
        <time>2022-12-14T15:19:57.329Z</time>
      </trkpt>
      <trkpt lat="47.72271" lon="-2.18418">
        <ele>51.319754</ele>
        <time>2022-12-14T15:20:01.346Z</time>
      </trkpt>
      <trkpt lat="47.7227" lon="-2.18403">
        <ele>51.325696</ele>
        <time>2022-12-14T15:20:05.321Z</time>
      </trkpt>
      <trkpt lat="47.72267" lon="-2.18387">
        <ele>51.332041</ele>
        <time>2022-12-14T15:20:09.324Z</time>
      </trkpt>
      <trkpt lat="47.72264" lon="-2.18373">
        <ele>51.337835</ele>
        <time>2022-12-14T15:20:13.331Z</time>
      </trkpt>
      <trkpt lat="47.72263" lon="-2.18359">
        <ele>51.34346</ele>
        <time>2022-12-14T15:20:16.334Z</time>
      </trkpt>
      <trkpt lat="47.72261" lon="-2.18345">
        <ele>51.349136</ele>
        <time>2022-12-14T15:20:19.329Z</time>
      </trkpt>
      <trkpt lat="47.72258" lon="-2.18329">
        <ele>51.355679</ele>
        <time>2022-12-14T15:20:22.338Z</time>
      </trkpt>
      <trkpt lat="47.72256" lon="-2.18312">
        <ele>51.362501</ele>
        <time>2022-12-14T15:20:25.320Z</time>
      </trkpt>
      <trkpt lat="47.72253" lon="-2.18295">
        <ele>51.369529</ele>
        <time>2022-12-14T15:20:28.328Z</time>
      </trkpt>
      <trkpt lat="47.7225" lon="-2.18278">
        <ele>51.376576</ele>
        <time>2022-12-14T15:20:31.422Z</time>
      </trkpt>
      <trkpt lat="47.72247" lon="-2.18261">
        <ele>51.383524</ele>
        <time>2022-12-14T15:20:34.321Z</time>
      </trkpt>
      <trkpt lat="47.72244" lon="-2.18245">
        <ele>51.406803</ele>
        <time>2022-12-14T15:20:37.323Z</time>
      </trkpt>
      <trkpt lat="47.72243" lon="-2.1823">
        <ele>51.429009</ele>
        <time>2022-12-14T15:20:40.347Z</time>
      </trkpt>
      <trkpt lat="47.72241" lon="-2.18214">
        <ele>51.453562</ele>
        <time>2022-12-14T15:20:43.357Z</time>
      </trkpt>
      <trkpt lat="47.72238" lon="-2.18197">
        <ele>51.478013</ele>
        <time>2022-12-14T15:20:46.352Z</time>
      </trkpt>
      <trkpt lat="47.72236" lon="-2.1818">
        <ele>51.503125</ele>
        <time>2022-12-14T15:20:49.342Z</time>
      </trkpt>
      <trkpt lat="47.72233" lon="-2.18162">
        <ele>51.531045</ele>
        <time>2022-12-14T15:20:52.330Z</time>
      </trkpt>
      <trkpt lat="47.72231" lon="-2.18148">
        <ele>51.551114</ele>
        <time>2022-12-14T15:20:54.350Z</time>
      </trkpt>
      <trkpt lat="47.72229" lon="-2.18133">
        <ele>51.573287</ele>
        <time>2022-12-14T15:20:56.339Z</time>
      </trkpt>
      <trkpt lat="47.72227" lon="-2.18115">
        <ele>51.600252</ele>
        <time>2022-12-14T15:20:59.317Z</time>
      </trkpt>
      <trkpt lat="47.72224" lon="-2.18096">
        <ele>51.629264</ele>
        <time>2022-12-14T15:21:02.344Z</time>
      </trkpt>
      <trkpt lat="47.72221" lon="-2.18083">
        <ele>51.648805</ele>
        <time>2022-12-14T15:21:04.313Z</time>
      </trkpt>
      <trkpt lat="47.72219" lon="-2.18065">
        <ele>51.67613</ele>
        <time>2022-12-14T15:21:07.348Z</time>
      </trkpt>
      <trkpt lat="47.72217" lon="-2.18049">
        <ele>51.700252</ele>
        <time>2022-12-14T15:21:10.353Z</time>
      </trkpt>
      <trkpt lat="47.72214" lon="-2.18033">
        <ele>51.724088</ele>
        <time>2022-12-14T15:21:13.355Z</time>
      </trkpt>
      <trkpt lat="47.72211" lon="-2.18015">
        <ele>51.750958</ele>
        <time>2022-12-14T15:21:16.352Z</time>
      </trkpt>
      <trkpt lat="47.72208" lon="-2.17995">
        <ele>51.786417</ele>
        <time>2022-12-14T15:21:19.321Z</time>
      </trkpt>
      <trkpt lat="47.72206" lon="-2.17982">
        <ele>51.826151</ele>
        <time>2022-12-14T15:21:21.352Z</time>
      </trkpt>
      <trkpt lat="47.72203" lon="-2.17969">
        <ele>51.864874</ele>
        <time>2022-12-14T15:21:23.341Z</time>
      </trkpt>
      <trkpt lat="47.72201" lon="-2.17951">
        <ele>51.91776</ele>
        <time>2022-12-14T15:21:26.318Z</time>
      </trkpt>
      <trkpt lat="47.72198" lon="-2.17933">
        <ele>51.969911</ele>
        <time>2022-12-14T15:21:29.349Z</time>
      </trkpt>
      <trkpt lat="47.72195" lon="-2.17915">
        <ele>52.022163</ele>
        <time>2022-12-14T15:21:32.339Z</time>
      </trkpt>
      <trkpt lat="47.72193" lon="-2.17896">
        <ele>52.076903</ele>
        <time>2022-12-14T15:21:35.321Z</time>
      </trkpt>
      <trkpt lat="47.72189" lon="-2.17877">
        <ele>52.133989</ele>
        <time>2022-12-14T15:21:38.349Z</time>
      </trkpt>
      <trkpt lat="47.72187" lon="-2.17863">
        <ele>52.172341</ele>
        <time>2022-12-14T15:21:40.337Z</time>
      </trkpt>
      <trkpt lat="47.72185" lon="-2.17845">
        <ele>52.225235</ele>
        <time>2022-12-14T15:21:43.330Z</time>
      </trkpt>
      <trkpt lat="47.72183" lon="-2.1783">
        <ele>52.269694</ele>
        <time>2022-12-14T15:21:46.349Z</time>
      </trkpt>
      <trkpt lat="47.72181" lon="-2.17814">
        <ele>52.314483</ele>
        <time>2022-12-14T15:21:49.349Z</time>
      </trkpt>
      <trkpt lat="47.72178" lon="-2.17796">
        <ele>52.367647</ele>
        <time>2022-12-14T15:21:52.331Z</time>
      </trkpt>
      <trkpt lat="47.72175" lon="-2.17778">
        <ele>52.419704</ele>
        <time>2022-12-14T15:21:55.342Z</time>
      </trkpt>
      <trkpt lat="47.72174" lon="-2.17763">
        <ele>52.463168</ele>
        <time>2022-12-14T15:21:58.346Z</time>
      </trkpt>
      <trkpt lat="47.72171" lon="-2.17744">
        <ele>52.520534</ele>
        <time>2022-12-14T15:22:01.340Z</time>
      </trkpt>
      <trkpt lat="47.72169" lon="-2.17727">
        <ele>52.388267</ele>
        <time>2022-12-14T15:22:04.345Z</time>
      </trkpt>
      <trkpt lat="47.72167" lon="-2.17713">
        <ele>52.213789</ele>
        <time>2022-12-14T15:22:07.317Z</time>
      </trkpt>
      <trkpt lat="47.72164" lon="-2.17698">
        <ele>52.016738</ele>
        <time>2022-12-14T15:22:10.338Z</time>
      </trkpt>
      <trkpt lat="47.72162" lon="-2.17683">
        <ele>51.828594</ele>
        <time>2022-12-14T15:22:13.327Z</time>
      </trkpt>
      <trkpt lat="47.7216" lon="-2.17666">
        <ele>51.605657</ele>
        <time>2022-12-14T15:22:16.353Z</time>
      </trkpt>
      <trkpt lat="47.72159" lon="-2.17649">
        <ele>51.387013</ele>
        <time>2022-12-14T15:22:19.343Z</time>
      </trkpt>
      <trkpt lat="47.72156" lon="-2.17631">
        <ele>51.153946</ele>
        <time>2022-12-14T15:22:22.326Z</time>
      </trkpt>
      <trkpt lat="47.72153" lon="-2.17613">
        <ele>50.923579</ele>
        <time>2022-12-14T15:22:25.330Z</time>
      </trkpt>
      <trkpt lat="47.72151" lon="-2.17596">
        <ele>50.709986</ele>
        <time>2022-12-14T15:22:28.321Z</time>
      </trkpt>
      <trkpt lat="47.72149" lon="-2.17577">
        <ele>50.461935</ele>
        <time>2022-12-14T15:22:31.322Z</time>
      </trkpt>
      <trkpt lat="47.72147" lon="-2.17563">
        <ele>50.282095</ele>
        <time>2022-12-14T15:22:34.326Z</time>
      </trkpt>
      <trkpt lat="47.72145" lon="-2.17545">
        <ele>50.052622</ele>
        <time>2022-12-14T15:22:37.344Z</time>
      </trkpt>
      <trkpt lat="47.72142" lon="-2.1753">
        <ele>49.859528</ele>
        <time>2022-12-14T15:22:40.326Z</time>
      </trkpt>
      <trkpt lat="47.72139" lon="-2.17515">
        <ele>49.656943</ele>
        <time>2022-12-14T15:22:43.323Z</time>
      </trkpt>
      <trkpt lat="47.72137" lon="-2.175">
        <ele>49.466466</ele>
        <time>2022-12-14T15:22:46.344Z</time>
      </trkpt>
      <trkpt lat="47.72134" lon="-2.17484">
        <ele>49.255849</ele>
        <time>2022-12-14T15:22:49.374Z</time>
      </trkpt>
      <trkpt lat="47.72132" lon="-2.17469">
        <ele>49.109777</ele>
        <time>2022-12-14T15:22:52.348Z</time>
      </trkpt>
      <trkpt lat="47.7213" lon="-2.17452">
        <ele>48.977397</ele>
        <time>2022-12-14T15:22:55.324Z</time>
      </trkpt>
      <trkpt lat="47.72126" lon="-2.17432">
        <ele>48.82852</ele>
        <time>2022-12-14T15:22:58.317Z</time>
      </trkpt>
      <trkpt lat="47.72122" lon="-2.17415">
        <ele>48.696371</ele>
        <time>2022-12-14T15:23:02.324Z</time>
      </trkpt>
      <trkpt lat="47.72119" lon="-2.17399">
        <ele>48.573256</ele>
        <time>2022-12-14T15:23:05.336Z</time>
      </trkpt>
      <trkpt lat="47.72116" lon="-2.17383">
        <ele>48.446851</ele>
        <time>2022-12-14T15:23:08.329Z</time>
      </trkpt>
      <trkpt lat="47.72113" lon="-2.17367">
        <ele>48.327302</ele>
        <time>2022-12-14T15:23:11.351Z</time>
      </trkpt>
      <trkpt lat="47.72111" lon="-2.1735">
        <ele>48.191567</ele>
        <time>2022-12-14T15:23:14.342Z</time>
      </trkpt>
      <trkpt lat="47.72107" lon="-2.17331">
        <ele>48.047987</ele>
        <time>2022-12-14T15:23:17.330Z</time>
      </trkpt>
      <trkpt lat="47.72105" lon="-2.17318">
        <ele>47.947908</ele>
        <time>2022-12-14T15:23:19.339Z</time>
      </trkpt>
      <trkpt lat="47.72102" lon="-2.173">
        <ele>47.812773</ele>
        <time>2022-12-14T15:23:22.333Z</time>
      </trkpt>
      <trkpt lat="47.72099" lon="-2.17284">
        <ele>47.691743</ele>
        <time>2022-12-14T15:23:25.318Z</time>
      </trkpt>
      <trkpt lat="47.72097" lon="-2.17269">
        <ele>47.573304</ele>
        <time>2022-12-14T15:23:28.335Z</time>
      </trkpt>
      <trkpt lat="47.72095" lon="-2.17252">
        <ele>47.449857</ele>
        <time>2022-12-14T15:23:31.323Z</time>
      </trkpt>
      <trkpt lat="47.72095" lon="-2.17239">
        <ele>47.348214</ele>
        <time>2022-12-14T15:23:35.321Z</time>
      </trkpt>
      <trkpt lat="47.72094" lon="-2.17221">
        <ele>47.216162</ele>
        <time>2022-12-14T15:23:38.350Z</time>
      </trkpt>
      <trkpt lat="47.72093" lon="-2.17202">
        <ele>47.270141</ele>
        <time>2022-12-14T15:23:41.327Z</time>
      </trkpt>
      <trkpt lat="47.72092" lon="-2.17186">
        <ele>47.363064</ele>
        <time>2022-12-14T15:23:44.339Z</time>
      </trkpt>
      <trkpt lat="47.7209" lon="-2.1717">
        <ele>47.457243</ele>
        <time>2022-12-14T15:23:47.323Z</time>
      </trkpt>
      <trkpt lat="47.72087" lon="-2.17154">
        <ele>47.55007</ele>
        <time>2022-12-14T15:23:50.364Z</time>
      </trkpt>
      <trkpt lat="47.72085" lon="-2.17138">
        <ele>47.645205</ele>
        <time>2022-12-14T15:23:53.321Z</time>
      </trkpt>
      <trkpt lat="47.7208" lon="-2.17122">
        <ele>47.744081</ele>
        <time>2022-12-14T15:23:56.364Z</time>
      </trkpt>
      <trkpt lat="47.72077" lon="-2.17106">
        <ele>47.836523</ele>
        <time>2022-12-14T15:23:59.324Z</time>
      </trkpt>
      <trkpt lat="47.72074" lon="-2.17092">
        <ele>47.922226</ele>
        <time>2022-12-14T15:24:02.317Z</time>
      </trkpt>
      <trkpt lat="47.72071" lon="-2.17079">
        <ele>48.002482</ele>
        <time>2022-12-14T15:24:05.349Z</time>
      </trkpt>
      <trkpt lat="47.72069" lon="-2.17063">
        <ele>48.097087</ele>
        <time>2022-12-14T15:24:08.344Z</time>
      </trkpt>
      <trkpt lat="47.72066" lon="-2.17047">
        <ele>48.190185</ele>
        <time>2022-12-14T15:24:11.342Z</time>
      </trkpt>
      <trkpt lat="47.72064" lon="-2.17031">
        <ele>48.282179</ele>
        <time>2022-12-14T15:24:14.348Z</time>
      </trkpt>
      <trkpt lat="47.72061" lon="-2.17015">
        <ele>48.373976</ele>
        <time>2022-12-14T15:24:17.337Z</time>
      </trkpt>
      <trkpt lat="47.7206" lon="-2.16999">
        <ele>48.468858</ele>
        <time>2022-12-14T15:24:20.348Z</time>
      </trkpt>
      <trkpt lat="47.72059" lon="-2.16985">
        <ele>48.545728</ele>
        <time>2022-12-14T15:24:23.336Z</time>
      </trkpt>
      <trkpt lat="47.72055" lon="-2.16971">
        <ele>48.62977</ele>
        <time>2022-12-14T15:24:26.326Z</time>
      </trkpt>
      <trkpt lat="47.72052" lon="-2.16958">
        <ele>48.711911</ele>
        <time>2022-12-14T15:24:31.347Z</time>
      </trkpt>
      <trkpt lat="47.72048" lon="-2.16943">
        <ele>48.735646</ele>
        <time>2022-12-14T15:24:37.322Z</time>
      </trkpt>
      <trkpt lat="47.72045" lon="-2.16926">
        <ele>48.76171</ele>
        <time>2022-12-14T15:24:41.339Z</time>
      </trkpt>
      <trkpt lat="47.72044" lon="-2.1691">
        <ele>48.784289</ele>
        <time>2022-12-14T15:24:44.395Z</time>
      </trkpt>
      <trkpt lat="47.72042" lon="-2.16894">
        <ele>48.809158</ele>
        <time>2022-12-14T15:24:47.357Z</time>
      </trkpt>
      <trkpt lat="47.72039" lon="-2.16875">
        <ele>48.836748</ele>
        <time>2022-12-14T15:24:50.334Z</time>
      </trkpt>
      <trkpt lat="47.72036" lon="-2.16857">
        <ele>48.863817</ele>
        <time>2022-12-14T15:24:53.327Z</time>
      </trkpt>
      <trkpt lat="47.72033" lon="-2.16842">
        <ele>48.887566</ele>
        <time>2022-12-14T15:24:56.348Z</time>
      </trkpt>
      <trkpt lat="47.72031" lon="-2.16826">
        <ele>48.911669</ele>
        <time>2022-12-14T15:24:59.352Z</time>
      </trkpt>
      <trkpt lat="47.72028" lon="-2.16809">
        <ele>48.937494</ele>
        <time>2022-12-14T15:25:02.352Z</time>
      </trkpt>
      <trkpt lat="47.72025" lon="-2.1679">
        <ele>48.965494</ele>
        <time>2022-12-14T15:25:05.328Z</time>
      </trkpt>
      <trkpt lat="47.72022" lon="-2.16772">
        <ele>48.993276</ele>
        <time>2022-12-14T15:25:08.334Z</time>
      </trkpt>
      <trkpt lat="47.72019" lon="-2.16753">
        <ele>49.021822</ele>
        <time>2022-12-14T15:25:11.346Z</time>
      </trkpt>
      <trkpt lat="47.72016" lon="-2.16736">
        <ele>49.047886</ele>
        <time>2022-12-14T15:25:14.338Z</time>
      </trkpt>
      <trkpt lat="47.72014" lon="-2.16717">
        <ele>49.075719</ele>
        <time>2022-12-14T15:25:17.331Z</time>
      </trkpt>
      <trkpt lat="47.72011" lon="-2.16699">
        <ele>49.103126</ele>
        <time>2022-12-14T15:25:20.362Z</time>
      </trkpt>
      <trkpt lat="47.72008" lon="-2.16679">
        <ele>49.01847</ele>
        <time>2022-12-14T15:25:23.343Z</time>
      </trkpt>
      <trkpt lat="47.72004" lon="-2.16659">
        <ele>48.930217</ele>
        <time>2022-12-14T15:25:26.348Z</time>
      </trkpt>
      <trkpt lat="47.72002" lon="-2.16646">
        <ele>48.870441</ele>
        <time>2022-12-14T15:25:28.337Z</time>
      </trkpt>
      <trkpt lat="47.72" lon="-2.16633">
        <ele>48.811774</ele>
        <time>2022-12-14T15:25:30.356Z</time>
      </trkpt>
      <trkpt lat="47.71997" lon="-2.16615">
        <ele>48.729143</ele>
        <time>2022-12-14T15:25:33.323Z</time>
      </trkpt>
      <trkpt lat="47.71994" lon="-2.16597">
        <ele>48.649634</ele>
        <time>2022-12-14T15:25:36.351Z</time>
      </trkpt>
      <trkpt lat="47.71991" lon="-2.16578">
        <ele>48.565306</ele>
        <time>2022-12-14T15:25:39.330Z</time>
      </trkpt>
      <trkpt lat="47.71988" lon="-2.16561">
        <ele>48.489494</ele>
        <time>2022-12-14T15:25:42.356Z</time>
      </trkpt>
      <trkpt lat="47.71986" lon="-2.16547">
        <ele>48.42502</ele>
        <time>2022-12-14T15:25:45.350Z</time>
      </trkpt>
      <trkpt lat="47.71985" lon="-2.16531">
        <ele>48.35551</ele>
        <time>2022-12-14T15:25:48.333Z</time>
      </trkpt>
      <trkpt lat="47.71982" lon="-2.16514">
        <ele>48.281111</ele>
        <time>2022-12-14T15:25:51.336Z</time>
      </trkpt>
      <trkpt lat="47.7198" lon="-2.16498">
        <ele>48.205572</ele>
        <time>2022-12-14T15:25:54.334Z</time>
      </trkpt>
      <trkpt lat="47.71977" lon="-2.16481">
        <ele>48.130131</ele>
        <time>2022-12-14T15:25:57.327Z</time>
      </trkpt>
      <trkpt lat="47.71973" lon="-2.16463">
        <ele>48.05115</ele>
        <time>2022-12-14T15:26:00.323Z</time>
      </trkpt>
      <trkpt lat="47.71971" lon="-2.16446">
        <ele>47.972899</ele>
        <time>2022-12-14T15:26:03.338Z</time>
      </trkpt>
      <trkpt lat="47.71969" lon="-2.16428">
        <ele>47.980708</ele>
        <time>2022-12-14T15:26:06.350Z</time>
      </trkpt>
      <trkpt lat="47.71967" lon="-2.16412">
        <ele>48.050404</ele>
        <time>2022-12-14T15:26:09.393Z</time>
      </trkpt>
      <trkpt lat="47.71966" lon="-2.16398">
        <ele>48.109981</ele>
        <time>2022-12-14T15:26:12.348Z</time>
      </trkpt>
      <trkpt lat="47.71964" lon="-2.16382">
        <ele>48.177896</ele>
        <time>2022-12-14T15:26:15.322Z</time>
      </trkpt>
      <trkpt lat="47.71961" lon="-2.16365">
        <ele>48.255804</ele>
        <time>2022-12-14T15:26:18.346Z</time>
      </trkpt>
      <trkpt lat="47.71958" lon="-2.16348">
        <ele>48.328992</ele>
        <time>2022-12-14T15:26:21.344Z</time>
      </trkpt>
      <trkpt lat="47.71955" lon="-2.16331">
        <ele>48.403549</ele>
        <time>2022-12-14T15:26:24.349Z</time>
      </trkpt>
      <trkpt lat="47.71952" lon="-2.16314">
        <ele>48.481104</ele>
        <time>2022-12-14T15:26:27.350Z</time>
      </trkpt>
      <trkpt lat="47.71949" lon="-2.16295">
        <ele>48.560807</ele>
        <time>2022-12-14T15:26:30.393Z</time>
      </trkpt>
      <trkpt lat="47.71946" lon="-2.16278">
        <ele>48.637372</ele>
        <time>2022-12-14T15:26:33.337Z</time>
      </trkpt>
      <trkpt lat="47.71944" lon="-2.16263">
        <ele>48.702062</ele>
        <time>2022-12-14T15:26:36.319Z</time>
      </trkpt>
      <trkpt lat="47.71942" lon="-2.1625">
        <ele>48.759661</ele>
        <time>2022-12-14T15:26:39.335Z</time>
      </trkpt>
      <trkpt lat="47.7194" lon="-2.16237">
        <ele>48.816837</ele>
        <time>2022-12-14T15:26:42.349Z</time>
      </trkpt>
      <trkpt lat="47.71938" lon="-2.16222">
        <ele>48.880852</ele>
        <time>2022-12-14T15:26:45.347Z</time>
      </trkpt>
      <trkpt lat="47.71936" lon="-2.16207">
        <ele>48.950682</ele>
        <time>2022-12-14T15:26:48.348Z</time>
      </trkpt>
      <trkpt lat="47.71933" lon="-2.16191">
        <ele>49.020096</ele>
        <time>2022-12-14T15:26:51.348Z</time>
      </trkpt>
      <trkpt lat="47.71931" lon="-2.16174">
        <ele>49.082795</ele>
        <time>2022-12-14T15:26:54.341Z</time>
      </trkpt>
      <trkpt lat="47.71928" lon="-2.16157">
        <ele>49.096754</ele>
        <time>2022-12-14T15:26:57.343Z</time>
      </trkpt>
      <trkpt lat="47.71925" lon="-2.1614">
        <ele>49.110578</ele>
        <time>2022-12-14T15:27:00.350Z</time>
      </trkpt>
      <trkpt lat="47.71923" lon="-2.16125">
        <ele>49.123281</ele>
        <time>2022-12-14T15:27:03.321Z</time>
      </trkpt>
      <trkpt lat="47.71921" lon="-2.1611">
        <ele>49.135439</ele>
        <time>2022-12-14T15:27:06.350Z</time>
      </trkpt>
      <trkpt lat="47.71919" lon="-2.16094">
        <ele>49.148532</ele>
        <time>2022-12-14T15:27:09.332Z</time>
      </trkpt>
      <trkpt lat="47.71916" lon="-2.16078">
        <ele>49.161653</ele>
        <time>2022-12-14T15:27:12.348Z</time>
      </trkpt>
      <trkpt lat="47.71914" lon="-2.16062">
        <ele>49.174823</ele>
        <time>2022-12-14T15:27:15.348Z</time>
      </trkpt>
      <trkpt lat="47.71911" lon="-2.16045">
        <ele>49.188541</ele>
        <time>2022-12-14T15:27:18.347Z</time>
      </trkpt>
      <trkpt lat="47.71909" lon="-2.16028">
        <ele>49.202907</ele>
        <time>2022-12-14T15:27:21.344Z</time>
      </trkpt>
      <trkpt lat="47.71906" lon="-2.1601">
        <ele>49.217206</ele>
        <time>2022-12-14T15:27:24.364Z</time>
      </trkpt>
      <trkpt lat="47.71903" lon="-2.15992">
        <ele>49.232273</ele>
        <time>2022-12-14T15:27:27.343Z</time>
      </trkpt>
      <trkpt lat="47.719" lon="-2.15973">
        <ele>49.247367</ele>
        <time>2022-12-14T15:27:30.328Z</time>
      </trkpt>
      <trkpt lat="47.71897" lon="-2.15956">
        <ele>49.261578</ele>
        <time>2022-12-14T15:27:33.347Z</time>
      </trkpt>
      <trkpt lat="47.71895" lon="-2.15938">
        <ele>49.276206</ele>
        <time>2022-12-14T15:27:36.341Z</time>
      </trkpt>
      <trkpt lat="47.71892" lon="-2.15919">
        <ele>49.291691</ele>
        <time>2022-12-14T15:27:39.324Z</time>
      </trkpt>
      <trkpt lat="47.71889" lon="-2.159">
        <ele>49.267543</ele>
        <time>2022-12-14T15:27:42.346Z</time>
      </trkpt>
      <trkpt lat="47.71886" lon="-2.15881">
        <ele>49.236974</ele>
        <time>2022-12-14T15:27:45.352Z</time>
      </trkpt>
      <trkpt lat="47.71883" lon="-2.15863">
        <ele>49.2072</ele>
        <time>2022-12-14T15:27:48.348Z</time>
      </trkpt>
      <trkpt lat="47.7188" lon="-2.15847">
        <ele>49.179711</ele>
        <time>2022-12-14T15:27:51.409Z</time>
      </trkpt>
      <trkpt lat="47.71878" lon="-2.15832">
        <ele>49.155191</ele>
        <time>2022-12-14T15:27:54.326Z</time>
      </trkpt>
      <trkpt lat="47.71876" lon="-2.15815">
        <ele>49.128481</ele>
        <time>2022-12-14T15:27:57.337Z</time>
      </trkpt>
      <trkpt lat="47.71873" lon="-2.15798">
        <ele>49.100527</ele>
        <time>2022-12-14T15:28:00.351Z</time>
      </trkpt>
      <trkpt lat="47.7187" lon="-2.15781">
        <ele>49.072059</ele>
        <time>2022-12-14T15:28:03.356Z</time>
      </trkpt>
      <trkpt lat="47.71868" lon="-2.15764">
        <ele>49.043953</ele>
        <time>2022-12-14T15:28:06.350Z</time>
      </trkpt>
      <trkpt lat="47.71865" lon="-2.15746">
        <ele>49.014955</ele>
        <time>2022-12-14T15:28:09.326Z</time>
      </trkpt>
      <trkpt lat="47.71862" lon="-2.15727">
        <ele>48.983732</ele>
        <time>2022-12-14T15:28:12.351Z</time>
      </trkpt>
      <trkpt lat="47.71859" lon="-2.15707">
        <ele>48.951679</ele>
        <time>2022-12-14T15:28:15.361Z</time>
      </trkpt>
      <trkpt lat="47.71857" lon="-2.15688">
        <ele>48.920331</ele>
        <time>2022-12-14T15:28:18.320Z</time>
      </trkpt>
      <trkpt lat="47.71853" lon="-2.15669">
        <ele>48.889358</ele>
        <time>2022-12-14T15:28:21.345Z</time>
      </trkpt>
      <trkpt lat="47.71851" lon="-2.1565">
        <ele>48.880205</ele>
        <time>2022-12-14T15:28:24.324Z</time>
      </trkpt>
      <trkpt lat="47.71849" lon="-2.15632">
        <ele>48.92606</ele>
        <time>2022-12-14T15:28:27.352Z</time>
      </trkpt>
      <trkpt lat="47.71845" lon="-2.15614">
        <ele>48.971376</ele>
        <time>2022-12-14T15:28:30.336Z</time>
      </trkpt>
      <trkpt lat="47.71842" lon="-2.15595">
        <ele>49.017788</ele>
        <time>2022-12-14T15:28:33.354Z</time>
      </trkpt>
      <trkpt lat="47.7184" lon="-2.15576">
        <ele>49.066733</ele>
        <time>2022-12-14T15:28:36.347Z</time>
      </trkpt>
      <trkpt lat="47.71838" lon="-2.15558">
        <ele>49.109966</ele>
        <time>2022-12-14T15:28:39.331Z</time>
      </trkpt>
      <trkpt lat="47.71835" lon="-2.15543">
        <ele>49.147488</ele>
        <time>2022-12-14T15:28:42.343Z</time>
      </trkpt>
      <trkpt lat="47.71833" lon="-2.15527">
        <ele>49.187247</ele>
        <time>2022-12-14T15:28:45.342Z</time>
      </trkpt>
      <trkpt lat="47.71831" lon="-2.15511">
        <ele>49.228021</ele>
        <time>2022-12-14T15:28:48.345Z</time>
      </trkpt>
      <trkpt lat="47.71828" lon="-2.15493">
        <ele>49.271654</ele>
        <time>2022-12-14T15:28:51.322Z</time>
      </trkpt>
      <trkpt lat="47.71825" lon="-2.15475">
        <ele>49.31822</ele>
        <time>2022-12-14T15:28:54.365Z</time>
      </trkpt>
      <trkpt lat="47.71822" lon="-2.15455">
        <ele>49.367165</ele>
        <time>2022-12-14T15:28:57.328Z</time>
      </trkpt>
      <trkpt lat="47.7182" lon="-2.15437">
        <ele>49.413812</ele>
        <time>2022-12-14T15:29:00.352Z</time>
      </trkpt>
      <trkpt lat="47.71817" lon="-2.15419">
        <ele>49.456888</ele>
        <time>2022-12-14T15:29:03.330Z</time>
      </trkpt>
      <trkpt lat="47.71815" lon="-2.15405">
        <ele>49.491952</ele>
        <time>2022-12-14T15:29:06.341Z</time>
      </trkpt>
      <trkpt lat="47.71813" lon="-2.15391">
        <ele>49.52735</ele>
        <time>2022-12-14T15:29:09.350Z</time>
      </trkpt>
      <trkpt lat="47.71811" lon="-2.15376">
        <ele>49.571052</ele>
        <time>2022-12-14T15:29:12.352Z</time>
      </trkpt>
      <trkpt lat="47.71808" lon="-2.15359">
        <ele>49.619168</ele>
        <time>2022-12-14T15:29:15.359Z</time>
      </trkpt>
      <trkpt lat="47.71805" lon="-2.15342">
        <ele>49.668341</ele>
        <time>2022-12-14T15:29:18.321Z</time>
      </trkpt>
      <trkpt lat="47.71803" lon="-2.15324">
        <ele>49.718599</ele>
        <time>2022-12-14T15:29:21.328Z</time>
      </trkpt>
      <trkpt lat="47.718" lon="-2.15307">
        <ele>49.766875</ele>
        <time>2022-12-14T15:29:24.343Z</time>
      </trkpt>
      <trkpt lat="47.71797" lon="-2.15292">
        <ele>49.810143</ele>
        <time>2022-12-14T15:29:27.332Z</time>
      </trkpt>
      <trkpt lat="47.71795" lon="-2.15276">
        <ele>49.854115</ele>
        <time>2022-12-14T15:29:30.336Z</time>
      </trkpt>
      <trkpt lat="47.71793" lon="-2.1526">
        <ele>49.899969</ele>
        <time>2022-12-14T15:29:33.332Z</time>
      </trkpt>
      <trkpt lat="47.7179" lon="-2.15244">
        <ele>49.943488</ele>
        <time>2022-12-14T15:29:36.334Z</time>
      </trkpt>
      <trkpt lat="47.71788" lon="-2.15228">
        <ele>49.989365</ele>
        <time>2022-12-14T15:29:39.349Z</time>
      </trkpt>
      <trkpt lat="47.71786" lon="-2.15211">
        <ele>50.03732</ele>
        <time>2022-12-14T15:29:42.320Z</time>
      </trkpt>
      <trkpt lat="47.71783" lon="-2.15195">
        <ele>50.083535</ele>
        <time>2022-12-14T15:29:45.350Z</time>
      </trkpt>
      <trkpt lat="47.71781" lon="-2.15178">
        <ele>50.130482</ele>
        <time>2022-12-14T15:29:48.325Z</time>
      </trkpt>
      <trkpt lat="47.71778" lon="-2.1516">
        <ele>50.180733</ele>
        <time>2022-12-14T15:29:51.341Z</time>
      </trkpt>
      <trkpt lat="47.71776" lon="-2.15144">
        <ele>50.227216</ele>
        <time>2022-12-14T15:29:54.332Z</time>
      </trkpt>
      <trkpt lat="47.71773" lon="-2.1513">
        <ele>50.261128</ele>
        <time>2022-12-14T15:29:57.352Z</time>
      </trkpt>
      <trkpt lat="47.71771" lon="-2.15113">
        <ele>50.281171</ele>
        <time>2022-12-14T15:30:01.343Z</time>
      </trkpt>
      <trkpt lat="47.71769" lon="-2.15099">
        <ele>50.297473</ele>
        <time>2022-12-14T15:30:04.351Z</time>
      </trkpt>
      <trkpt lat="47.71767" lon="-2.15083">
        <ele>50.315479</ele>
        <time>2022-12-14T15:30:07.344Z</time>
      </trkpt>
      <trkpt lat="47.71764" lon="-2.15066">
        <ele>50.335301</ele>
        <time>2022-12-14T15:30:10.351Z</time>
      </trkpt>
      <trkpt lat="47.71761" lon="-2.15048">
        <ele>50.356488</ele>
        <time>2022-12-14T15:30:13.338Z</time>
      </trkpt>
      <trkpt lat="47.71758" lon="-2.1503">
        <ele>50.377929</ele>
        <time>2022-12-14T15:30:16.351Z</time>
      </trkpt>
      <trkpt lat="47.71755" lon="-2.15011">
        <ele>50.399444</ele>
        <time>2022-12-14T15:30:19.345Z</time>
      </trkpt>
      <trkpt lat="47.71752" lon="-2.14992">
        <ele>50.421662</ele>
        <time>2022-12-14T15:30:22.341Z</time>
      </trkpt>
      <trkpt lat="47.7175" lon="-2.14973">
        <ele>50.443844</ele>
        <time>2022-12-14T15:30:25.347Z</time>
      </trkpt>
      <trkpt lat="47.71747" lon="-2.14956">
        <ele>50.463548</ele>
        <time>2022-12-14T15:30:28.344Z</time>
      </trkpt>
      <trkpt lat="47.71745" lon="-2.14939">
        <ele>50.483437</ele>
        <time>2022-12-14T15:30:31.328Z</time>
      </trkpt>
      <trkpt lat="47.71742" lon="-2.14922">
        <ele>50.503113</ele>
        <time>2022-12-14T15:30:34.322Z</time>
      </trkpt>
      <trkpt lat="47.7174" lon="-2.14904">
        <ele>50.52411</ele>
        <time>2022-12-14T15:30:37.340Z</time>
      </trkpt>
      <trkpt lat="47.71737" lon="-2.14888">
        <ele>50.54252</ele>
        <time>2022-12-14T15:30:40.350Z</time>
      </trkpt>
      <trkpt lat="47.71736" lon="-2.14874">
        <ele>50.558494</ele>
        <time>2022-12-14T15:30:43.344Z</time>
      </trkpt>
      <trkpt lat="47.71734" lon="-2.14859">
        <ele>50.418747</ele>
        <time>2022-12-14T15:30:46.344Z</time>
      </trkpt>
      <trkpt lat="47.71732" lon="-2.14844">
        <ele>50.26132</ele>
        <time>2022-12-14T15:30:49.340Z</time>
      </trkpt>
      <trkpt lat="47.7173" lon="-2.14829">
        <ele>50.107596</ele>
        <time>2022-12-14T15:30:52.352Z</time>
      </trkpt>
      <trkpt lat="47.71726" lon="-2.14815">
        <ele>49.95534</ele>
        <time>2022-12-14T15:30:56.352Z</time>
      </trkpt>
      <trkpt lat="47.71725" lon="-2.14801">
        <ele>49.812342</ele>
        <time>2022-12-14T15:31:05.345Z</time>
      </trkpt>
      <trkpt lat="47.71725" lon="-2.14787">
        <ele>49.671144</ele>
        <time>2022-12-14T15:31:12.350Z</time>
      </trkpt>
      <trkpt lat="47.71723" lon="-2.14772">
        <ele>49.513769</ele>
        <time>2022-12-14T15:31:16.334Z</time>
      </trkpt>
      <trkpt lat="47.71721" lon="-2.14759">
        <ele>49.372269</ele>
        <time>2022-12-14T15:31:19.349Z</time>
      </trkpt>
      <trkpt lat="47.71719" lon="-2.14745">
        <ele>49.231183</ele>
        <time>2022-12-14T15:31:22.336Z</time>
      </trkpt>
      <trkpt lat="47.71717" lon="-2.14731">
        <ele>49.083081</ele>
        <time>2022-12-14T15:31:26.346Z</time>
      </trkpt>
      <trkpt lat="47.71715" lon="-2.14718">
        <ele>48.942979</ele>
        <time>2022-12-14T15:31:29.393Z</time>
      </trkpt>
      <trkpt lat="47.71712" lon="-2.14704">
        <ele>48.794111</ele>
        <time>2022-12-14T15:31:32.337Z</time>
      </trkpt>
      <trkpt lat="47.7171" lon="-2.14688">
        <ele>48.62474</ele>
        <time>2022-12-14T15:31:35.330Z</time>
      </trkpt>
      <trkpt lat="47.71707" lon="-2.14671">
        <ele>48.451388</ele>
        <time>2022-12-14T15:31:38.347Z</time>
      </trkpt>
      <trkpt lat="47.71705" lon="-2.14653">
        <ele>48.262674</ele>
        <time>2022-12-14T15:31:41.340Z</time>
      </trkpt>
      <trkpt lat="47.71703" lon="-2.14639">
        <ele>48.116871</ele>
        <time>2022-12-14T15:31:44.328Z</time>
      </trkpt>
      <trkpt lat="47.71701" lon="-2.14624">
        <ele>47.960001</ele>
        <time>2022-12-14T15:31:48.355Z</time>
      </trkpt>
      <trkpt lat="47.71699" lon="-2.14609">
        <ele>47.844639</ele>
        <time>2022-12-14T15:31:52.352Z</time>
      </trkpt>
      <trkpt lat="47.71697" lon="-2.14594">
        <ele>47.964993</ele>
        <time>2022-12-14T15:31:56.325Z</time>
      </trkpt>
      <trkpt lat="47.71694" lon="-2.14576">
        <ele>48.120566</ele>
        <time>2022-12-14T15:31:59.340Z</time>
      </trkpt>
      <trkpt lat="47.7169" lon="-2.14563">
        <ele>48.233354</ele>
        <time>2022-12-14T15:32:01.363Z</time>
      </trkpt>
      <trkpt lat="47.71687" lon="-2.14549">
        <ele>48.348831</ele>
        <time>2022-12-14T15:32:03.318Z</time>
      </trkpt>
      <trkpt lat="47.71683" lon="-2.14531">
        <ele>48.504993</ele>
        <time>2022-12-14T15:32:06.349Z</time>
      </trkpt>
      <trkpt lat="47.7168" lon="-2.14512">
        <ele>48.656434</ele>
        <time>2022-12-14T15:32:09.334Z</time>
      </trkpt>
      <trkpt lat="47.71678" lon="-2.14496">
        <ele>48.788693</ele>
        <time>2022-12-14T15:32:12.418Z</time>
      </trkpt>
      <trkpt lat="47.71676" lon="-2.14482">
        <ele>48.909477</ele>
        <time>2022-12-14T15:32:15.334Z</time>
      </trkpt>
      <trkpt lat="47.71674" lon="-2.14464">
        <ele>49.054251</ele>
        <time>2022-12-14T15:32:19.334Z</time>
      </trkpt>
      <trkpt lat="47.71672" lon="-2.14447">
        <ele>49.195854</ele>
        <time>2022-12-14T15:32:22.352Z</time>
      </trkpt>
      <trkpt lat="47.71669" lon="-2.1443">
        <ele>49.334202</ele>
        <time>2022-12-14T15:32:25.334Z</time>
      </trkpt>
      <trkpt lat="47.71667" lon="-2.14415">
        <ele>49.458735</ele>
        <time>2022-12-14T15:32:28.408Z</time>
      </trkpt>
      <trkpt lat="47.71664" lon="-2.14398">
        <ele>49.595633</ele>
        <time>2022-12-14T15:32:31.349Z</time>
      </trkpt>
      <trkpt lat="47.71663" lon="-2.14382">
        <ele>49.730548</ele>
        <time>2022-12-14T15:32:34.322Z</time>
      </trkpt>
      <trkpt lat="47.7166" lon="-2.14365">
        <ele>49.869963</ele>
        <time>2022-12-14T15:32:37.354Z</time>
      </trkpt>
      <trkpt lat="47.71657" lon="-2.1435">
        <ele>49.965829</ele>
        <time>2022-12-14T15:32:40.332Z</time>
      </trkpt>
      <trkpt lat="47.71654" lon="-2.14333">
        <ele>49.873898</ele>
        <time>2022-12-14T15:32:43.338Z</time>
      </trkpt>
      <trkpt lat="47.71651" lon="-2.14314">
        <ele>49.767324</ele>
        <time>2022-12-14T15:32:46.353Z</time>
      </trkpt>
      <trkpt lat="47.71649" lon="-2.14298">
        <ele>49.681331</ele>
        <time>2022-12-14T15:32:49.344Z</time>
      </trkpt>
      <trkpt lat="47.71648" lon="-2.14284">
        <ele>49.605316</ele>
        <time>2022-12-14T15:32:52.337Z</time>
      </trkpt>
      <trkpt lat="47.71647" lon="-2.14271">
        <ele>49.531224</ele>
        <time>2022-12-14T15:32:55.347Z</time>
      </trkpt>
      <trkpt lat="47.71645" lon="-2.14257">
        <ele>49.454819</ele>
        <time>2022-12-14T15:32:58.334Z</time>
      </trkpt>
      <trkpt lat="47.71642" lon="-2.14243">
        <ele>49.373822</ele>
        <time>2022-12-14T15:33:01.337Z</time>
      </trkpt>
      <trkpt lat="47.71639" lon="-2.14227">
        <ele>49.286337</ele>
        <time>2022-12-14T15:33:04.327Z</time>
      </trkpt>
      <trkpt lat="47.71636" lon="-2.14211">
        <ele>49.194359</ele>
        <time>2022-12-14T15:33:07.356Z</time>
      </trkpt>
      <trkpt lat="47.71634" lon="-2.14198">
        <ele>49.121541</ele>
        <time>2022-12-14T15:33:09.346Z</time>
      </trkpt>
      <trkpt lat="47.71632" lon="-2.14181">
        <ele>49.028321</ele>
        <time>2022-12-14T15:33:12.343Z</time>
      </trkpt>
      <trkpt lat="47.7163" lon="-2.14164">
        <ele>48.93692</ele>
        <time>2022-12-14T15:33:15.348Z</time>
      </trkpt>
      <trkpt lat="47.71627" lon="-2.14147">
        <ele>48.83943</ele>
        <time>2022-12-14T15:33:18.348Z</time>
      </trkpt>
      <trkpt lat="47.71625" lon="-2.14129">
        <ele>48.742022</ele>
        <time>2022-12-14T15:33:21.344Z</time>
      </trkpt>
      <trkpt lat="47.71622" lon="-2.1411">
        <ele>48.63669</ele>
        <time>2022-12-14T15:33:24.349Z</time>
      </trkpt>
      <trkpt lat="47.7162" lon="-2.14092">
        <ele>48.536463</ele>
        <time>2022-12-14T15:33:27.394Z</time>
      </trkpt>
      <trkpt lat="47.71617" lon="-2.14074">
        <ele>48.812992</ele>
        <time>2022-12-14T15:33:30.330Z</time>
      </trkpt>
      <trkpt lat="47.71614" lon="-2.14058">
        <ele>49.08526</ele>
        <time>2022-12-14T15:33:33.341Z</time>
      </trkpt>
      <trkpt lat="47.71611" lon="-2.14044">
        <ele>49.329648</ele>
        <time>2022-12-14T15:33:36.335Z</time>
      </trkpt>
      <trkpt lat="47.71608" lon="-2.1403">
        <ele>49.565501</ele>
        <time>2022-12-14T15:33:40.341Z</time>
      </trkpt>
      <trkpt lat="47.71606" lon="-2.14017">
        <ele>49.786738</ele>
        <time>2022-12-14T15:33:44.345Z</time>
      </trkpt>
      <trkpt lat="47.71603" lon="-2.14002">
        <ele>50.040071</ele>
        <time>2022-12-14T15:33:48.328Z</time>
      </trkpt>
      <trkpt lat="47.71601" lon="-2.13984">
        <ele>50.333321</ele>
        <time>2022-12-14T15:33:52.350Z</time>
      </trkpt>
      <trkpt lat="47.71599" lon="-2.13969">
        <ele>50.588355</ele>
        <time>2022-12-14T15:33:55.340Z</time>
      </trkpt>
      <trkpt lat="47.71597" lon="-2.13953">
        <ele>50.847766</ele>
        <time>2022-12-14T15:33:58.391Z</time>
      </trkpt>
      <trkpt lat="47.71594" lon="-2.13937">
        <ele>51.125592</ele>
        <time>2022-12-14T15:34:02.343Z</time>
      </trkpt>
      <trkpt lat="47.71592" lon="-2.1392">
        <ele>51.400746</ele>
        <time>2022-12-14T15:34:05.346Z</time>
      </trkpt>
      <trkpt lat="47.7159" lon="-2.13902">
        <ele>51.705952</ele>
        <time>2022-12-14T15:34:08.350Z</time>
      </trkpt>
      <trkpt lat="47.71587" lon="-2.13884">
        <ele>51.998698</ele>
        <time>2022-12-14T15:34:11.325Z</time>
      </trkpt>
      <trkpt lat="47.71585" lon="-2.13867">
        <ele>52.282927</ele>
        <time>2022-12-14T15:34:14.360Z</time>
      </trkpt>
      <trkpt lat="47.71583" lon="-2.13851">
        <ele>52.563458</ele>
        <time>2022-12-14T15:34:17.334Z</time>
      </trkpt>
      <trkpt lat="47.7158" lon="-2.13834">
        <ele>52.837568</ele>
        <time>2022-12-14T15:34:20.389Z</time>
      </trkpt>
      <trkpt lat="47.71577" lon="-2.13817">
        <ele>52.71709</ele>
        <time>2022-12-14T15:34:23.333Z</time>
      </trkpt>
      <trkpt lat="47.71575" lon="-2.13802">
        <ele>52.529782</ele>
        <time>2022-12-14T15:34:26.354Z</time>
      </trkpt>
      <trkpt lat="47.71573" lon="-2.13786">
        <ele>52.310236</ele>
        <time>2022-12-14T15:34:30.353Z</time>
      </trkpt>
      <trkpt lat="47.71572" lon="-2.1377">
        <ele>52.098963</ele>
        <time>2022-12-14T15:34:33.345Z</time>
      </trkpt>
      <trkpt lat="47.71569" lon="-2.13751">
        <ele>51.848621</ele>
        <time>2022-12-14T15:34:37.403Z</time>
      </trkpt>
      <trkpt lat="47.71566" lon="-2.13736">
        <ele>51.641264</ele>
        <time>2022-12-14T15:34:41.355Z</time>
      </trkpt>
      <trkpt lat="47.71563" lon="-2.13717">
        <ele>51.397317</ele>
        <time>2022-12-14T15:34:44.347Z</time>
      </trkpt>
      <trkpt lat="47.71561" lon="-2.13701">
        <ele>51.184647</ele>
        <time>2022-12-14T15:34:47.342Z</time>
      </trkpt>
      <trkpt lat="47.71557" lon="-2.13686">
        <ele>50.974193</ele>
        <time>2022-12-14T15:34:50.348Z</time>
      </trkpt>
      <trkpt lat="47.71553" lon="-2.1367">
        <ele>50.752427</ele>
        <time>2022-12-14T15:34:53.322Z</time>
      </trkpt>
      <trkpt lat="47.71551" lon="-2.13657">
        <ele>50.576444</ele>
        <time>2022-12-14T15:34:55.339Z</time>
      </trkpt>
      <trkpt lat="47.71547" lon="-2.13639">
        <ele>50.33494</ele>
        <time>2022-12-14T15:34:58.352Z</time>
      </trkpt>
      <trkpt lat="47.71544" lon="-2.13621">
        <ele>50.097758</ele>
        <time>2022-12-14T15:35:01.355Z</time>
      </trkpt>
      <trkpt lat="47.71542" lon="-2.13604">
        <ele>49.869025</ele>
        <time>2022-12-14T15:35:04.350Z</time>
      </trkpt>
      <trkpt lat="47.71539" lon="-2.13588">
        <ele>49.655513</ele>
        <time>2022-12-14T15:35:07.355Z</time>
      </trkpt>
      <trkpt lat="47.71537" lon="-2.13569">
        <ele>49.442392</ele>
        <time>2022-12-14T15:35:10.350Z</time>
      </trkpt>
      <trkpt lat="47.71535" lon="-2.13555">
        <ele>49.541798</ele>
        <time>2022-12-14T15:35:12.355Z</time>
      </trkpt>
      <trkpt lat="47.71533" lon="-2.13542">
        <ele>49.635757</ele>
        <time>2022-12-14T15:35:14.323Z</time>
      </trkpt>
      <trkpt lat="47.71531" lon="-2.13528">
        <ele>49.730377</ele>
        <time>2022-12-14T15:35:16.332Z</time>
      </trkpt>
      <trkpt lat="47.71529" lon="-2.13511">
        <ele>49.854748</ele>
        <time>2022-12-14T15:35:19.324Z</time>
      </trkpt>
      <trkpt lat="47.71526" lon="-2.13495">
        <ele>49.967929</ele>
        <time>2022-12-14T15:35:22.351Z</time>
      </trkpt>
      <trkpt lat="47.71523" lon="-2.13478">
        <ele>50.088694</ele>
        <time>2022-12-14T15:35:25.409Z</time>
      </trkpt>
      <trkpt lat="47.71521" lon="-2.1346">
        <ele>50.218334</ele>
        <time>2022-12-14T15:35:28.326Z</time>
      </trkpt>
      <trkpt lat="47.71518" lon="-2.13441">
        <ele>50.352853</ele>
        <time>2022-12-14T15:35:31.327Z</time>
      </trkpt>
      <trkpt lat="47.71516" lon="-2.13424">
        <ele>50.470482</ele>
        <time>2022-12-14T15:35:34.345Z</time>
      </trkpt>
      <trkpt lat="47.71514" lon="-2.13409">
        <ele>50.579794</ele>
        <time>2022-12-14T15:35:37.346Z</time>
      </trkpt>
      <trkpt lat="47.71512" lon="-2.13394">
        <ele>50.683977</ele>
        <time>2022-12-14T15:35:40.351Z</time>
      </trkpt>
      <trkpt lat="47.7151" lon="-2.13378">
        <ele>50.79807</ele>
        <time>2022-12-14T15:35:43.341Z</time>
      </trkpt>
      <trkpt lat="47.71508" lon="-2.13361">
        <ele>50.918835</ele>
        <time>2022-12-14T15:35:46.341Z</time>
      </trkpt>
      <trkpt lat="47.71505" lon="-2.13344">
        <ele>51.04125</ele>
        <time>2022-12-14T15:35:49.361Z</time>
      </trkpt>
      <trkpt lat="47.71501" lon="-2.13327">
        <ele>51.162416</ele>
        <time>2022-12-14T15:35:52.330Z</time>
      </trkpt>
      <trkpt lat="47.71498" lon="-2.1331">
        <ele>51.278473</ele>
        <time>2022-12-14T15:35:55.336Z</time>
      </trkpt>
      <trkpt lat="47.71495" lon="-2.13293">
        <ele>51.098915</ele>
        <time>2022-12-14T15:35:58.406Z</time>
      </trkpt>
      <trkpt lat="47.71492" lon="-2.13275">
        <ele>50.91485</ele>
        <time>2022-12-14T15:36:01.346Z</time>
      </trkpt>
      <trkpt lat="47.71489" lon="-2.13257">
        <ele>50.723552</ele>
        <time>2022-12-14T15:36:04.346Z</time>
      </trkpt>
      <trkpt lat="47.71487" lon="-2.13239">
        <ele>50.542448</ele>
        <time>2022-12-14T15:36:07.335Z</time>
      </trkpt>
      <trkpt lat="47.71485" lon="-2.13224">
        <ele>50.386738</ele>
        <time>2022-12-14T15:36:10.346Z</time>
      </trkpt>
      <trkpt lat="47.71483" lon="-2.13206">
        <ele>50.202616</ele>
        <time>2022-12-14T15:36:14.346Z</time>
      </trkpt>
      <trkpt lat="47.71482" lon="-2.13193">
        <ele>50.06653</ele>
        <time>2022-12-14T15:36:17.352Z</time>
      </trkpt>
      <trkpt lat="47.7148" lon="-2.13177">
        <ele>49.899845</ele>
        <time>2022-12-14T15:36:20.347Z</time>
      </trkpt>
      <trkpt lat="47.71479" lon="-2.1316">
        <ele>49.733383</ele>
        <time>2022-12-14T15:36:23.336Z</time>
      </trkpt>
      <trkpt lat="47.71476" lon="-2.13141">
        <ele>49.534767</ele>
        <time>2022-12-14T15:36:26.348Z</time>
      </trkpt>
      <trkpt lat="47.71474" lon="-2.13128">
        <ele>49.395615</ele>
        <time>2022-12-14T15:36:28.330Z</time>
      </trkpt>
      <trkpt lat="47.71471" lon="-2.13114">
        <ele>49.252857</ele>
        <time>2022-12-14T15:36:30.351Z</time>
      </trkpt>
      <trkpt lat="47.71468" lon="-2.13096">
        <ele>49.061536</ele>
        <time>2022-12-14T15:36:33.348Z</time>
      </trkpt>
      <trkpt lat="47.71466" lon="-2.13082">
        <ele>48.92215</ele>
        <time>2022-12-14T15:36:36.357Z</time>
      </trkpt>
      <trkpt lat="47.71463" lon="-2.13067">
        <ele>48.765816</ele>
        <time>2022-12-14T15:36:39.341Z</time>
      </trkpt>
      <trkpt lat="47.71461" lon="-2.13053">
        <ele>48.619548</ele>
        <time>2022-12-14T15:36:42.358Z</time>
      </trkpt>
      <trkpt lat="47.71458" lon="-2.13038">
        <ele>48.71247</ele>
        <time>2022-12-14T15:36:45.349Z</time>
      </trkpt>
      <trkpt lat="47.71455" lon="-2.13021">
        <ele>48.89239</ele>
        <time>2022-12-14T15:36:48.354Z</time>
      </trkpt>
      <trkpt lat="47.71453" lon="-2.13003">
        <ele>49.089136</ele>
        <time>2022-12-14T15:36:51.430Z</time>
      </trkpt>
      <trkpt lat="47.7145" lon="-2.1299">
        <ele>49.238368</ele>
        <time>2022-12-14T15:36:53.341Z</time>
      </trkpt>
      <trkpt lat="47.71448" lon="-2.12977">
        <ele>49.388907</ele>
        <time>2022-12-14T15:36:55.338Z</time>
      </trkpt>
      <trkpt lat="47.71446" lon="-2.12962">
        <ele>49.55242</ele>
        <time>2022-12-14T15:36:57.351Z</time>
      </trkpt>
      <trkpt lat="47.71443" lon="-2.12943">
        <ele>49.756849</ele>
        <time>2022-12-14T15:37:00.349Z</time>
      </trkpt>
      <trkpt lat="47.71441" lon="-2.12924">
        <ele>49.965593</ele>
        <time>2022-12-14T15:37:03.326Z</time>
      </trkpt>
      <trkpt lat="47.71439" lon="-2.12911">
        <ele>50.109215</ele>
        <time>2022-12-14T15:37:05.351Z</time>
      </trkpt>
      <trkpt lat="47.71437" lon="-2.12896">
        <ele>50.269563</ele>
        <time>2022-12-14T15:37:08.355Z</time>
      </trkpt>
      <trkpt lat="47.71436" lon="-2.12882">
        <ele>50.422951</ele>
        <time>2022-12-14T15:37:11.324Z</time>
      </trkpt>
      <trkpt lat="47.71434" lon="-2.12868">
        <ele>50.583969</ele>
        <time>2022-12-14T15:37:15.337Z</time>
      </trkpt>
      <trkpt lat="47.71431" lon="-2.12852">
        <ele>50.759695</ele>
        <time>2022-12-14T15:37:18.335Z</time>
      </trkpt>
      <trkpt lat="47.71429" lon="-2.12835">
        <ele>50.942245</ele>
        <time>2022-12-14T15:37:21.344Z</time>
      </trkpt>
      <trkpt lat="47.71427" lon="-2.12818">
        <ele>51.128768</ele>
        <time>2022-12-14T15:37:24.345Z</time>
      </trkpt>
      <trkpt lat="47.71424" lon="-2.12802">
        <ele>51.310859</ele>
        <time>2022-12-14T15:37:27.354Z</time>
      </trkpt>
      <trkpt lat="47.71422" lon="-2.12788">
        <ele>51.457461</ele>
        <time>2022-12-14T15:37:29.337Z</time>
      </trkpt>
      <trkpt lat="47.7142" lon="-2.12775">
        <ele>51.493736</ele>
        <time>2022-12-14T15:37:31.349Z</time>
      </trkpt>
      <trkpt lat="47.71418" lon="-2.12757">
        <ele>51.544241</ele>
        <time>2022-12-14T15:37:34.392Z</time>
      </trkpt>
      <trkpt lat="47.71415" lon="-2.1274">
        <ele>51.590237</ele>
        <time>2022-12-14T15:37:37.335Z</time>
      </trkpt>
      <trkpt lat="47.71414" lon="-2.12725">
        <ele>51.629803</ele>
        <time>2022-12-14T15:37:40.352Z</time>
      </trkpt>
      <trkpt lat="47.71412" lon="-2.12711">
        <ele>51.669779</ele>
        <time>2022-12-14T15:37:43.348Z</time>
      </trkpt>
      <trkpt lat="47.71408" lon="-2.12695">
        <ele>51.71391</ele>
        <time>2022-12-14T15:37:46.349Z</time>
      </trkpt>
      <trkpt lat="47.71405" lon="-2.12681">
        <ele>51.755987</ele>
        <time>2022-12-14T15:37:49.351Z</time>
      </trkpt>
      <trkpt lat="47.71403" lon="-2.12664">
        <ele>51.802336</ele>
        <time>2022-12-14T15:37:53.352Z</time>
      </trkpt>
      <trkpt lat="47.71401" lon="-2.12648">
        <ele>51.84686</ele>
        <time>2022-12-14T15:37:56.341Z</time>
      </trkpt>
      <trkpt lat="47.71398" lon="-2.12631">
        <ele>51.892334</ele>
        <time>2022-12-14T15:37:59.327Z</time>
      </trkpt>
      <trkpt lat="47.71395" lon="-2.12617">
        <ele>51.931981</ele>
        <time>2022-12-14T15:38:02.327Z</time>
      </trkpt>
      <trkpt lat="47.71391" lon="-2.12604">
        <ele>51.971195</ele>
        <time>2022-12-14T15:38:06.341Z</time>
      </trkpt>
      <trkpt lat="47.71388" lon="-2.12581">
        <ele>52.034008</ele>
        <time>2022-12-14T15:39:43.337Z</time>
      </trkpt>
      <trkpt lat="47.71386" lon="-2.12563">
        <ele>52.083243</ele>
        <time>2022-12-14T15:39:47.334Z</time>
      </trkpt>
      <trkpt lat="47.71384" lon="-2.12546">
        <ele>52.131553</ele>
        <time>2022-12-14T15:39:50.328Z</time>
      </trkpt>
      <trkpt lat="47.71382" lon="-2.12528">
        <ele>52.167822</ele>
        <time>2022-12-14T15:39:53.336Z</time>
      </trkpt>
      <trkpt lat="47.7138" lon="-2.12511">
        <ele>51.990343</ele>
        <time>2022-12-14T15:39:56.335Z</time>
      </trkpt>
      <trkpt lat="47.71377" lon="-2.12494">
        <ele>51.820302</ele>
        <time>2022-12-14T15:39:59.330Z</time>
      </trkpt>
      <trkpt lat="47.71374" lon="-2.12479">
        <ele>51.666007</ele>
        <time>2022-12-14T15:40:02.352Z</time>
      </trkpt>
      <trkpt lat="47.71369" lon="-2.12463">
        <ele>51.493538</ele>
        <time>2022-12-14T15:40:06.355Z</time>
      </trkpt>
      <trkpt lat="47.71364" lon="-2.1245">
        <ele>51.336567</ele>
        <time>2022-12-14T15:40:10.323Z</time>
      </trkpt>
      <trkpt lat="47.71357" lon="-2.12438">
        <ele>51.181475</ele>
        <time>2022-12-14T15:40:14.340Z</time>
      </trkpt>
      <trkpt lat="47.7135" lon="-2.12428">
        <ele>51.047268</ele>
        <time>2022-12-14T15:40:17.356Z</time>
      </trkpt>
      <trkpt lat="47.71342" lon="-2.1242">
        <ele>50.896888</ele>
        <time>2022-12-14T15:40:20.404Z</time>
      </trkpt>
      <trkpt lat="47.71333" lon="-2.12412">
        <ele>50.739922</ele>
        <time>2022-12-14T15:40:23.328Z</time>
      </trkpt>
      <trkpt lat="47.71324" lon="-2.12405">
        <ele>50.597074</ele>
        <time>2022-12-14T15:40:26.358Z</time>
      </trkpt>
      <trkpt lat="47.71315" lon="-2.12397">
        <ele>50.434764</ele>
        <time>2022-12-14T15:40:29.339Z</time>
      </trkpt>
      <trkpt lat="47.71305" lon="-2.12388">
        <ele>50.263294</ele>
        <time>2022-12-14T15:40:32.360Z</time>
      </trkpt>
      <trkpt lat="47.71295" lon="-2.1238">
        <ele>50.093088</ele>
        <time>2022-12-14T15:40:35.352Z</time>
      </trkpt>
      <trkpt lat="47.71286" lon="-2.12372">
        <ele>49.943752</ele>
        <time>2022-12-14T15:40:38.353Z</time>
      </trkpt>
      <trkpt lat="47.71278" lon="-2.12365">
        <ele>49.798964</ele>
        <time>2022-12-14T15:40:41.361Z</time>
      </trkpt>
      <trkpt lat="47.7127" lon="-2.12357">
        <ele>49.65806</ele>
        <time>2022-12-14T15:40:44.355Z</time>
      </trkpt>
      <trkpt lat="47.71263" lon="-2.12348">
        <ele>49.522519</ele>
        <time>2022-12-14T15:40:47.395Z</time>
      </trkpt>
      <trkpt lat="47.71255" lon="-2.12337">
        <ele>49.102205</ele>
        <time>2022-12-14T15:40:51.344Z</time>
      </trkpt>
      <trkpt lat="47.71248" lon="-2.12325">
        <ele>48.644652</ele>
        <time>2022-12-14T15:40:56.327Z</time>
      </trkpt>
      <trkpt lat="47.7124" lon="-2.12312">
        <ele>48.189007</ele>
        <time>2022-12-14T15:41:00.347Z</time>
      </trkpt>
      <trkpt lat="47.71234" lon="-2.12301">
        <ele>47.793035</ele>
        <time>2022-12-14T15:41:03.355Z</time>
      </trkpt>
      <trkpt lat="47.71227" lon="-2.1229">
        <ele>47.388952</ele>
        <time>2022-12-14T15:41:06.339Z</time>
      </trkpt>
      <trkpt lat="47.7122" lon="-2.12281">
        <ele>47.008712</ele>
        <time>2022-12-14T15:41:09.415Z</time>
      </trkpt>
      <trkpt lat="47.71213" lon="-2.1227">
        <ele>46.596551</ele>
        <time>2022-12-14T15:41:12.347Z</time>
      </trkpt>
      <trkpt lat="47.71204" lon="-2.1226">
        <ele>46.146248</ele>
        <time>2022-12-14T15:41:15.351Z</time>
      </trkpt>
      <trkpt lat="47.71197" lon="-2.12248">
        <ele>45.690222</ele>
        <time>2022-12-14T15:41:18.337Z</time>
      </trkpt>
      <trkpt lat="47.7119" lon="-2.12235">
        <ele>45.250314</ele>
        <time>2022-12-14T15:41:21.334Z</time>
      </trkpt>
      <trkpt lat="47.71182" lon="-2.12221">
        <ele>44.750758</ele>
        <time>2022-12-14T15:41:24.352Z</time>
      </trkpt>
      <trkpt lat="47.71173" lon="-2.12209">
        <ele>44.25572</ele>
        <time>2022-12-14T15:41:27.342Z</time>
      </trkpt>
      <trkpt lat="47.71164" lon="-2.12196">
        <ele>43.7584</ele>
        <time>2022-12-14T15:41:30.337Z</time>
      </trkpt>
      <trkpt lat="47.71155" lon="-2.12182">
        <ele>43.238914</ele>
        <time>2022-12-14T15:41:33.348Z</time>
      </trkpt>
      <trkpt lat="47.71146" lon="-2.1217">
        <ele>42.744327</ele>
        <time>2022-12-14T15:41:36.354Z</time>
      </trkpt>
      <trkpt lat="47.71138" lon="-2.12155">
        <ele>42.226014</ele>
        <time>2022-12-14T15:41:39.351Z</time>
      </trkpt>
      <trkpt lat="47.7113" lon="-2.12141">
        <ele>42.353007</ele>
        <time>2022-12-14T15:41:42.394Z</time>
      </trkpt>
      <trkpt lat="47.71122" lon="-2.12127">
        <ele>42.491156</ele>
        <time>2022-12-14T15:41:45.352Z</time>
      </trkpt>
      <trkpt lat="47.71114" lon="-2.12114">
        <ele>42.611296</ele>
        <time>2022-12-14T15:41:48.349Z</time>
      </trkpt>
      <trkpt lat="47.71107" lon="-2.12102">
        <ele>42.722738</ele>
        <time>2022-12-14T15:41:51.349Z</time>
      </trkpt>
      <trkpt lat="47.711" lon="-2.12089">
        <ele>42.843425</ele>
        <time>2022-12-14T15:41:54.351Z</time>
      </trkpt>
      <trkpt lat="47.71093" lon="-2.12075">
        <ele>42.969667</ele>
        <time>2022-12-14T15:41:57.358Z</time>
      </trkpt>
      <trkpt lat="47.71084" lon="-2.12063">
        <ele>43.092827</ele>
        <time>2022-12-14T15:42:00.349Z</time>
      </trkpt>
      <trkpt lat="47.71076" lon="-2.12051">
        <ele>43.219338</ele>
        <time>2022-12-14T15:42:03.343Z</time>
      </trkpt>
      <trkpt lat="47.71068" lon="-2.1204">
        <ele>43.336978</ele>
        <time>2022-12-14T15:42:06.351Z</time>
      </trkpt>
      <trkpt lat="47.71061" lon="-2.1203">
        <ele>43.43706</ele>
        <time>2022-12-14T15:42:09.413Z</time>
      </trkpt>
      <trkpt lat="47.71053" lon="-2.12019">
        <ele>43.553918</ele>
        <time>2022-12-14T15:42:12.352Z</time>
      </trkpt>
      <trkpt lat="47.71044" lon="-2.12009">
        <ele>43.66719</ele>
        <time>2022-12-14T15:42:15.358Z</time>
      </trkpt>
      <trkpt lat="47.71036" lon="-2.11998">
        <ele>43.784848</ele>
        <time>2022-12-14T15:42:18.332Z</time>
      </trkpt>
      <trkpt lat="47.71026" lon="-2.11987">
        <ele>43.913256</ele>
        <time>2022-12-14T15:42:21.358Z</time>
      </trkpt>
      <trkpt lat="47.71016" lon="-2.11977">
        <ele>44.042209</ele>
        <time>2022-12-14T15:42:24.348Z</time>
      </trkpt>
      <trkpt lat="47.71005" lon="-2.11969">
        <ele>44.238199</ele>
        <time>2022-12-14T15:42:27.364Z</time>
      </trkpt>
      <trkpt lat="47.70996" lon="-2.11961">
        <ele>44.531285</ele>
        <time>2022-12-14T15:42:30.427Z</time>
      </trkpt>
      <trkpt lat="47.70986" lon="-2.11954">
        <ele>44.819742</ele>
        <time>2022-12-14T15:42:33.350Z</time>
      </trkpt>
      <trkpt lat="47.70976" lon="-2.11948">
        <ele>45.115525</ele>
        <time>2022-12-14T15:42:36.347Z</time>
      </trkpt>
      <trkpt lat="47.70964" lon="-2.11942">
        <ele>45.456911</ele>
        <time>2022-12-14T15:42:39.357Z</time>
      </trkpt>
      <trkpt lat="47.70952" lon="-2.11938">
        <ele>45.782334</ele>
        <time>2022-12-14T15:42:42.355Z</time>
      </trkpt>
      <trkpt lat="47.7094" lon="-2.11935">
        <ele>46.094311</ele>
        <time>2022-12-14T15:42:45.347Z</time>
      </trkpt>
      <trkpt lat="47.7093" lon="-2.11931">
        <ele>46.388399</ele>
        <time>2022-12-14T15:42:48.344Z</time>
      </trkpt>
      <trkpt lat="47.70918" lon="-2.11929">
        <ele>46.710524</ele>
        <time>2022-12-14T15:42:51.353Z</time>
      </trkpt>
      <trkpt lat="47.70905" lon="-2.11926">
        <ele>47.056702</ele>
        <time>2022-12-14T15:42:54.346Z</time>
      </trkpt>
      <trkpt lat="47.70894" lon="-2.11923">
        <ele>47.358993</ele>
        <time>2022-12-14T15:42:57.351Z</time>
      </trkpt>
      <trkpt lat="47.70884" lon="-2.11923">
        <ele>47.610835</ele>
        <time>2022-12-14T15:43:00.349Z</time>
      </trkpt>
      <trkpt lat="47.70873" lon="-2.11921">
        <ele>47.90601</ele>
        <time>2022-12-14T15:43:03.393Z</time>
      </trkpt>
      <trkpt lat="47.70861" lon="-2.1192">
        <ele>48.224496</ele>
        <time>2022-12-14T15:43:06.352Z</time>
      </trkpt>
      <trkpt lat="47.7085" lon="-2.1192">
        <ele>48.539984</ele>
        <time>2022-12-14T15:43:09.350Z</time>
      </trkpt>
      <trkpt lat="47.70837" lon="-2.11921">
        <ele>48.866662</ele>
        <time>2022-12-14T15:43:12.350Z</time>
      </trkpt>
      <trkpt lat="47.70825" lon="-2.11922">
        <ele>49.038256</ele>
        <time>2022-12-14T15:43:15.359Z</time>
      </trkpt>
      <trkpt lat="47.70812" lon="-2.11922">
        <ele>49.169291</ele>
        <time>2022-12-14T15:43:18.341Z</time>
      </trkpt>
      <trkpt lat="47.708" lon="-2.11924">
        <ele>49.285132</ele>
        <time>2022-12-14T15:43:21.354Z</time>
      </trkpt>
      <trkpt lat="47.70788" lon="-2.11927">
        <ele>49.407565</ele>
        <time>2022-12-14T15:43:24.390Z</time>
      </trkpt>
      <trkpt lat="47.70776" lon="-2.11931">
        <ele>49.531645</ele>
        <time>2022-12-14T15:43:27.339Z</time>
      </trkpt>
      <trkpt lat="47.70764" lon="-2.11937">
        <ele>49.655848</ele>
        <time>2022-12-14T15:43:30.350Z</time>
      </trkpt>
      <trkpt lat="47.70753" lon="-2.11943">
        <ele>49.771603</ele>
        <time>2022-12-14T15:43:33.350Z</time>
      </trkpt>
      <trkpt lat="47.70743" lon="-2.11948">
        <ele>49.877526</ele>
        <time>2022-12-14T15:43:36.326Z</time>
      </trkpt>
      <trkpt lat="47.7073" lon="-2.11953">
        <ele>50.012125</ele>
        <time>2022-12-14T15:43:39.361Z</time>
      </trkpt>
      <trkpt lat="47.70719" lon="-2.11957">
        <ele>50.126836</ele>
        <time>2022-12-14T15:43:42.356Z</time>
      </trkpt>
      <trkpt lat="47.7071" lon="-2.1196">
        <ele>50.216673</ele>
        <time>2022-12-14T15:43:45.352Z</time>
      </trkpt>
      <trkpt lat="47.70701" lon="-2.11964">
        <ele>50.31616</ele>
        <time>2022-12-14T15:43:48.351Z</time>
      </trkpt>
      <trkpt lat="47.70689" lon="-2.11971">
        <ele>50.443151</ele>
        <time>2022-12-14T15:43:51.346Z</time>
      </trkpt>
      <trkpt lat="47.70678" lon="-2.11975">
        <ele>50.557963</ele>
        <time>2022-12-14T15:43:54.335Z</time>
      </trkpt>
      <trkpt lat="47.7067" lon="-2.11982">
        <ele>50.650566</ele>
        <time>2022-12-14T15:43:59.342Z</time>
      </trkpt>
      <trkpt lat="47.7066" lon="-2.11986">
        <ele>50.717062</ele>
        <time>2022-12-14T15:44:04.339Z</time>
      </trkpt>
      <trkpt lat="47.70649" lon="-2.11991">
        <ele>50.543893</ele>
        <time>2022-12-14T15:44:08.348Z</time>
      </trkpt>
      <trkpt lat="47.7064" lon="-2.11995">
        <ele>50.399718</ele>
        <time>2022-12-14T15:44:11.346Z</time>
      </trkpt>
      <trkpt lat="47.70631" lon="-2.11999">
        <ele>50.260816</ele>
        <time>2022-12-14T15:44:14.357Z</time>
      </trkpt>
      <trkpt lat="47.7062" lon="-2.12004">
        <ele>50.092085</ele>
        <time>2022-12-14T15:44:18.348Z</time>
      </trkpt>
      <trkpt lat="47.70611" lon="-2.12011">
        <ele>49.940785</ele>
        <time>2022-12-14T15:44:22.356Z</time>
      </trkpt>
      <trkpt lat="47.70601" lon="-2.12014">
        <ele>49.784324</ele>
        <time>2022-12-14T15:44:27.347Z</time>
      </trkpt>
      <trkpt lat="47.70592" lon="-2.12016">
        <ele>49.646909</ele>
        <time>2022-12-14T15:44:31.354Z</time>
      </trkpt>
      <trkpt lat="47.70583" lon="-2.1202">
        <ele>49.510344</ele>
        <time>2022-12-14T15:44:34.350Z</time>
      </trkpt>
      <trkpt lat="47.70573" lon="-2.12023">
        <ele>49.347068</ele>
        <time>2022-12-14T15:44:37.334Z</time>
      </trkpt>
      <trkpt lat="47.70561" lon="-2.12029">
        <ele>49.156</ele>
        <time>2022-12-14T15:44:40.393Z</time>
      </trkpt>
      <trkpt lat="47.70549" lon="-2.12036">
        <ele>48.964758</ele>
        <time>2022-12-14T15:44:43.333Z</time>
      </trkpt>
      <trkpt lat="47.70537" lon="-2.12041">
        <ele>48.77369</ele>
        <time>2022-12-14T15:44:46.334Z</time>
      </trkpt>
      <trkpt lat="47.70525" lon="-2.12047">
        <ele>48.589871</ele>
        <time>2022-12-14T15:44:49.332Z</time>
      </trkpt>
      <trkpt lat="47.70513" lon="-2.12052">
        <ele>48.395965</ele>
        <time>2022-12-14T15:44:52.343Z</time>
      </trkpt>
      <trkpt lat="47.70501" lon="-2.12058">
        <ele>48.207755</ele>
        <time>2022-12-14T15:44:55.344Z</time>
      </trkpt>
      <trkpt lat="47.7049" lon="-2.12063">
        <ele>48.041104</ele>
        <time>2022-12-14T15:44:58.351Z</time>
      </trkpt>
      <trkpt lat="47.7048" lon="-2.12067">
        <ele>47.908417</ele>
        <time>2022-12-14T15:45:01.353Z</time>
      </trkpt>
      <trkpt lat="47.7047" lon="-2.12071">
        <ele>47.77225</ele>
        <time>2022-12-14T15:45:04.335Z</time>
      </trkpt>
      <trkpt lat="47.7046" lon="-2.12075">
        <ele>47.636082</ele>
        <time>2022-12-14T15:45:07.355Z</time>
      </trkpt>
      <trkpt lat="47.7045" lon="-2.1208">
        <ele>47.496975</ele>
        <time>2022-12-14T15:45:10.351Z</time>
      </trkpt>
      <trkpt lat="47.70439" lon="-2.12086">
        <ele>47.345943</ele>
        <time>2022-12-14T15:45:13.390Z</time>
      </trkpt>
      <trkpt lat="47.7043" lon="-2.12091">
        <ele>47.22665</ele>
        <time>2022-12-14T15:45:16.333Z</time>
      </trkpt>
      <trkpt lat="47.70419" lon="-2.12096">
        <ele>47.074913</ele>
        <time>2022-12-14T15:45:19.331Z</time>
      </trkpt>
      <trkpt lat="47.70406" lon="-2.12102">
        <ele>46.907647</ele>
        <time>2022-12-14T15:45:22.354Z</time>
      </trkpt>
      <trkpt lat="47.70394" lon="-2.12108">
        <ele>46.74063</ele>
        <time>2022-12-14T15:45:25.349Z</time>
      </trkpt>
      <trkpt lat="47.70384" lon="-2.12114">
        <ele>46.60171</ele>
        <time>2022-12-14T15:45:28.343Z</time>
      </trkpt>
      <trkpt lat="47.70375" lon="-2.12119">
        <ele>46.4794</ele>
        <time>2022-12-14T15:45:31.351Z</time>
      </trkpt>
      <trkpt lat="47.70365" lon="-2.12125">
        <ele>46.333835</ele>
        <time>2022-12-14T15:45:34.355Z</time>
      </trkpt>
      <trkpt lat="47.70354" lon="-2.12132">
        <ele>46.185982</ele>
        <time>2022-12-14T15:45:37.357Z</time>
      </trkpt>
      <trkpt lat="47.70343" lon="-2.1214">
        <ele>46.02738</ele>
        <time>2022-12-14T15:45:40.346Z</time>
      </trkpt>
      <trkpt lat="47.70332" lon="-2.12149">
        <ele>45.865559</ele>
        <time>2022-12-14T15:45:43.350Z</time>
      </trkpt>
      <trkpt lat="47.70324" lon="-2.12155">
        <ele>45.746996</ele>
        <time>2022-12-14T15:45:45.347Z</time>
      </trkpt>
      <trkpt lat="47.70313" lon="-2.12164">
        <ele>45.748116</ele>
        <time>2022-12-14T15:45:48.334Z</time>
      </trkpt>
      <trkpt lat="47.70303" lon="-2.12173">
        <ele>45.787759</ele>
        <time>2022-12-14T15:45:51.349Z</time>
      </trkpt>
      <trkpt lat="47.70294" lon="-2.1218">
        <ele>45.822374</ele>
        <time>2022-12-14T15:45:54.348Z</time>
      </trkpt>
      <trkpt lat="47.70282" lon="-2.12189">
        <ele>45.864795</ele>
        <time>2022-12-14T15:45:57.353Z</time>
      </trkpt>
      <trkpt lat="47.70272" lon="-2.12197">
        <ele>45.904437</ele>
        <time>2022-12-14T15:46:00.352Z</time>
      </trkpt>
      <trkpt lat="47.70262" lon="-2.12205">
        <ele>45.941787</ele>
        <time>2022-12-14T15:46:04.339Z</time>
      </trkpt>
      <trkpt lat="47.70252" lon="-2.12213">
        <ele>45.97855</ele>
        <time>2022-12-14T15:46:08.354Z</time>
      </trkpt>
      <trkpt lat="47.70243" lon="-2.12219">
        <ele>46.012315</ele>
        <time>2022-12-14T15:46:11.352Z</time>
      </trkpt>
      <trkpt lat="47.70232" lon="-2.12225">
        <ele>46.051762</ele>
        <time>2022-12-14T15:46:14.406Z</time>
      </trkpt>
      <trkpt lat="47.7022" lon="-2.1223">
        <ele>46.092724</ele>
        <time>2022-12-14T15:46:17.349Z</time>
      </trkpt>
      <trkpt lat="47.70209" lon="-2.12235">
        <ele>46.131001</ele>
        <time>2022-12-14T15:46:20.333Z</time>
      </trkpt>
      <trkpt lat="47.70199" lon="-2.12239">
        <ele>46.164973</ele>
        <time>2022-12-14T15:46:23.341Z</time>
      </trkpt>
      <trkpt lat="47.70188" lon="-2.12242">
        <ele>46.204259</ele>
        <time>2022-12-14T15:46:26.347Z</time>
      </trkpt>
      <trkpt lat="47.70174" lon="-2.12245">
        <ele>46.249461</ele>
        <time>2022-12-14T15:46:29.357Z</time>
      </trkpt>
      <trkpt lat="47.70164" lon="-2.12246">
        <ele>46.284581</ele>
        <time>2022-12-14T15:46:31.352Z</time>
      </trkpt>
      <trkpt lat="47.70154" lon="-2.12248">
        <ele>46.326802</ele>
        <time>2022-12-14T15:46:33.344Z</time>
      </trkpt>
      <trkpt lat="47.70145" lon="-2.12249">
        <ele>46.49565</ele>
        <time>2022-12-14T15:46:35.357Z</time>
      </trkpt>
      <trkpt lat="47.70131" lon="-2.12249">
        <ele>46.728884</ele>
        <time>2022-12-14T15:46:38.354Z</time>
      </trkpt>
      <trkpt lat="47.70122" lon="-2.12249">
        <ele>46.895494</ele>
        <time>2022-12-14T15:46:40.353Z</time>
      </trkpt>
      <trkpt lat="47.70109" lon="-2.12249">
        <ele>47.112972</ele>
        <time>2022-12-14T15:46:43.345Z</time>
      </trkpt>
      <trkpt lat="47.70099" lon="-2.12248">
        <ele>47.29899</ele>
        <time>2022-12-14T15:46:46.353Z</time>
      </trkpt>
      <trkpt lat="47.70089" lon="-2.12248">
        <ele>47.47611</ele>
        <time>2022-12-14T15:46:49.350Z</time>
      </trkpt>
      <trkpt lat="47.70077" lon="-2.12249">
        <ele>47.678121</ele>
        <time>2022-12-14T15:46:52.392Z</time>
      </trkpt>
      <trkpt lat="47.70065" lon="-2.12249">
        <ele>47.897352</ele>
        <time>2022-12-14T15:46:55.351Z</time>
      </trkpt>
      <trkpt lat="47.70053" lon="-2.1225">
        <ele>48.095862</ele>
        <time>2022-12-14T15:46:58.344Z</time>
      </trkpt>
      <trkpt lat="47.70043" lon="-2.12252">
        <ele>48.281082</ele>
        <time>2022-12-14T15:47:01.347Z</time>
      </trkpt>
      <trkpt lat="47.70032" lon="-2.12251">
        <ele>48.477519</ele>
        <time>2022-12-14T15:47:04.340Z</time>
      </trkpt>
      <trkpt lat="47.7002" lon="-2.12252">
        <ele>48.686283</ele>
        <time>2022-12-14T15:47:07.352Z</time>
      </trkpt>
      <trkpt lat="47.70007" lon="-2.12252">
        <ele>48.901991</ele>
        <time>2022-12-14T15:47:10.351Z</time>
      </trkpt>
      <trkpt lat="47.69996" lon="-2.12252">
        <ele>49.098453</ele>
        <time>2022-12-14T15:47:13.393Z</time>
      </trkpt>
      <trkpt lat="47.69985" lon="-2.12252">
        <ele>49.293137</ele>
        <time>2022-12-14T15:47:16.350Z</time>
      </trkpt>
      <trkpt lat="47.69973" lon="-2.12254">
        <ele>49.419878</ele>
        <time>2022-12-14T15:47:19.393Z</time>
      </trkpt>
      <trkpt lat="47.6996" lon="-2.12258">
        <ele>49.161127</ele>
        <time>2022-12-14T15:47:22.336Z</time>
      </trkpt>
      <trkpt lat="47.69951" lon="-2.12264">
        <ele>48.953252</ele>
        <time>2022-12-14T15:47:24.350Z</time>
      </trkpt>
      <trkpt lat="47.69942" lon="-2.12269">
        <ele>48.761908</ele>
        <time>2022-12-14T15:47:26.360Z</time>
      </trkpt>
      <trkpt lat="47.69934" lon="-2.12276">
        <ele>48.575941</ele>
        <time>2022-12-14T15:47:28.345Z</time>
      </trkpt>
      <trkpt lat="47.69923" lon="-2.12286">
        <ele>48.331499</ele>
        <time>2022-12-14T15:47:31.354Z</time>
      </trkpt>
      <trkpt lat="47.69914" lon="-2.12288">
        <ele>48.131362</ele>
        <time>2022-12-14T15:47:34.357Z</time>
      </trkpt>
      <trkpt lat="47.69904" lon="-2.12288">
        <ele>47.940353</ele>
        <time>2022-12-14T15:47:37.357Z</time>
      </trkpt>
      <trkpt lat="47.69895" lon="-2.12291">
        <ele>47.751029</ele>
        <time>2022-12-14T15:47:41.357Z</time>
      </trkpt>
      <trkpt lat="47.69885" lon="-2.12293">
        <ele>47.559925</ele>
        <time>2022-12-14T15:47:44.349Z</time>
      </trkpt>
      <trkpt lat="47.69874" lon="-2.12294">
        <ele>47.337585</ele>
        <time>2022-12-14T15:47:47.359Z</time>
      </trkpt>
      <trkpt lat="47.69862" lon="-2.12298">
        <ele>47.090501</ele>
        <time>2022-12-14T15:47:50.355Z</time>
      </trkpt>
      <trkpt lat="47.69853" lon="-2.123">
        <ele>46.901177</ele>
        <time>2022-12-14T15:47:52.354Z</time>
      </trkpt>
      <trkpt lat="47.69844" lon="-2.12302">
        <ele>46.714617</ele>
        <time>2022-12-14T15:47:54.351Z</time>
      </trkpt>
      <trkpt lat="47.69835" lon="-2.12305">
        <ele>46.526084</ele>
        <time>2022-12-14T15:47:56.352Z</time>
      </trkpt>
      <trkpt lat="47.69825" lon="-2.12308">
        <ele>46.327165</ele>
        <time>2022-12-14T15:47:58.353Z</time>
      </trkpt>
      <trkpt lat="47.69812" lon="-2.12311">
        <ele>46.062248</ele>
        <time>2022-12-14T15:48:01.328Z</time>
      </trkpt>
      <trkpt lat="47.69799" lon="-2.12314">
        <ele>45.876901</ele>
        <time>2022-12-14T15:48:04.349Z</time>
      </trkpt>
      <trkpt lat="47.69787" lon="-2.12318">
        <ele>45.977517</ele>
        <time>2022-12-14T15:48:07.341Z</time>
      </trkpt>
      <trkpt lat="47.69776" lon="-2.12321">
        <ele>46.076766</ele>
        <time>2022-12-14T15:48:10.335Z</time>
      </trkpt>
      <trkpt lat="47.69765" lon="-2.12323">
        <ele>46.171955</ele>
        <time>2022-12-14T15:48:13.348Z</time>
      </trkpt>
      <trkpt lat="47.69752" lon="-2.12324">
        <ele>46.284445</ele>
        <time>2022-12-14T15:48:16.339Z</time>
      </trkpt>
      <trkpt lat="47.69743" lon="-2.12324">
        <ele>46.36095</ele>
        <time>2022-12-14T15:48:18.402Z</time>
      </trkpt>
      <trkpt lat="47.69729" lon="-2.12324">
        <ele>46.474855</ele>
        <time>2022-12-14T15:48:21.334Z</time>
      </trkpt>
      <trkpt lat="47.6972" lon="-2.12324">
        <ele>46.553058</ele>
        <time>2022-12-14T15:48:23.330Z</time>
      </trkpt>
      <trkpt lat="47.69707" lon="-2.12323">
        <ele>46.666287</ele>
        <time>2022-12-14T15:48:26.351Z</time>
      </trkpt>
      <trkpt lat="47.69695" lon="-2.12324">
        <ele>46.769219</ele>
        <time>2022-12-14T15:48:29.367Z</time>
      </trkpt>
      <trkpt lat="47.69682" lon="-2.12324">
        <ele>46.876324</ele>
        <time>2022-12-14T15:48:32.334Z</time>
      </trkpt>
      <trkpt lat="47.69673" lon="-2.12324">
        <ele>46.95551</ele>
        <time>2022-12-14T15:48:34.342Z</time>
      </trkpt>
      <trkpt lat="47.69663" lon="-2.12325">
        <ele>47.04053</ele>
        <time>2022-12-14T15:48:36.351Z</time>
      </trkpt>
      <trkpt lat="47.69652" lon="-2.12326">
        <ele>47.129052</ele>
        <time>2022-12-14T15:48:38.352Z</time>
      </trkpt>
      <trkpt lat="47.69639" lon="-2.12326">
        <ele>47.243807</ele>
        <time>2022-12-14T15:48:41.350Z</time>
      </trkpt>
      <trkpt lat="47.69626" lon="-2.12325">
        <ele>47.350935</ele>
        <time>2022-12-14T15:48:44.331Z</time>
      </trkpt>
      <trkpt lat="47.69614" lon="-2.12326">
        <ele>47.405174</ele>
        <time>2022-12-14T15:48:47.329Z</time>
      </trkpt>
      <trkpt lat="47.69605" lon="-2.12326">
        <ele>47.42975</ele>
        <time>2022-12-14T15:48:49.339Z</time>
      </trkpt>
      <trkpt lat="47.69592" lon="-2.12327">
        <ele>47.465488</ele>
        <time>2022-12-14T15:48:52.358Z</time>
      </trkpt>
      <trkpt lat="47.69582" lon="-2.12328">
        <ele>47.491177</ele>
        <time>2022-12-14T15:48:54.344Z</time>
      </trkpt>
      <trkpt lat="47.69572" lon="-2.12329">
        <ele>47.518457</ele>
        <time>2022-12-14T15:48:56.350Z</time>
      </trkpt>
      <trkpt lat="47.69563" lon="-2.12329">
        <ele>47.543807</ele>
        <time>2022-12-14T15:48:58.355Z</time>
      </trkpt>
      <trkpt lat="47.69549" lon="-2.12328">
        <ele>47.582247</ele>
        <time>2022-12-14T15:49:01.351Z</time>
      </trkpt>
      <trkpt lat="47.69539" lon="-2.12329">
        <ele>47.609295</ele>
        <time>2022-12-14T15:49:03.327Z</time>
      </trkpt>
      <trkpt lat="47.69526" lon="-2.12331">
        <ele>47.64621</ele>
        <time>2022-12-14T15:49:06.351Z</time>
      </trkpt>
      <trkpt lat="47.69514" lon="-2.12333">
        <ele>47.678063</ele>
        <time>2022-12-14T15:49:09.361Z</time>
      </trkpt>
      <trkpt lat="47.69503" lon="-2.12337">
        <ele>47.709604</ele>
        <time>2022-12-14T15:49:12.362Z</time>
      </trkpt>
      <trkpt lat="47.6949" lon="-2.12342">
        <ele>47.745349</ele>
        <time>2022-12-14T15:49:15.356Z</time>
      </trkpt>
      <trkpt lat="47.69477" lon="-2.12348">
        <ele>47.783605</ele>
        <time>2022-12-14T15:49:18.394Z</time>
      </trkpt>
      <trkpt lat="47.69467" lon="-2.12352">
        <ele>47.809734</ele>
        <time>2022-12-14T15:49:20.348Z</time>
      </trkpt>
      <trkpt lat="47.69458" lon="-2.12356">
        <ele>47.8355</ele>
        <time>2022-12-14T15:49:22.354Z</time>
      </trkpt>
      <trkpt lat="47.69449" lon="-2.12359">
        <ele>47.861255</ele>
        <time>2022-12-14T15:49:24.364Z</time>
      </trkpt>
      <trkpt lat="47.69437" lon="-2.12365">
        <ele>47.886067</ele>
        <time>2022-12-14T15:49:27.357Z</time>
      </trkpt>
      <trkpt lat="47.69426" lon="-2.12369">
        <ele>47.904295</ele>
        <time>2022-12-14T15:49:30.338Z</time>
      </trkpt>
      <trkpt lat="47.69414" lon="-2.12375">
        <ele>47.922429</ele>
        <time>2022-12-14T15:49:33.328Z</time>
      </trkpt>
      <trkpt lat="47.69402" lon="-2.1238">
        <ele>47.942264</ele>
        <time>2022-12-14T15:49:36.330Z</time>
      </trkpt>
      <trkpt lat="47.6939" lon="-2.12386">
        <ele>47.961926</ele>
        <time>2022-12-14T15:49:39.404Z</time>
      </trkpt>
      <trkpt lat="47.69381" lon="-2.1239">
        <ele>47.976476</ele>
        <time>2022-12-14T15:49:41.357Z</time>
      </trkpt>
      <trkpt lat="47.69372" lon="-2.12393">
        <ele>47.990769</ele>
        <time>2022-12-14T15:49:43.350Z</time>
      </trkpt>
      <trkpt lat="47.69363" lon="-2.12398">
        <ele>48.005796</ele>
        <time>2022-12-14T15:49:45.349Z</time>
      </trkpt>
      <trkpt lat="47.69354" lon="-2.12401">
        <ele>48.020647</ele>
        <time>2022-12-14T15:49:47.346Z</time>
      </trkpt>
      <trkpt lat="47.69345" lon="-2.12405">
        <ele>48.034955</ele>
        <time>2022-12-14T15:49:49.352Z</time>
      </trkpt>
      <trkpt lat="47.69333" lon="-2.12411">
        <ele>48.054535</ele>
        <time>2022-12-14T15:49:52.327Z</time>
      </trkpt>
      <trkpt lat="47.69322" lon="-2.12415">
        <ele>48.071984</ele>
        <time>2022-12-14T15:49:55.346Z</time>
      </trkpt>
      <trkpt lat="47.69311" lon="-2.12421">
        <ele>48.090571</ele>
        <time>2022-12-14T15:49:58.338Z</time>
      </trkpt>
      <trkpt lat="47.69299" lon="-2.12426">
        <ele>48.110768</ele>
        <time>2022-12-14T15:50:01.337Z</time>
      </trkpt>
      <trkpt lat="47.69286" lon="-2.12433">
        <ele>48.131585</ele>
        <time>2022-12-14T15:50:04.340Z</time>
      </trkpt>
      <trkpt lat="47.69274" lon="-2.1244">
        <ele>48.152323</ele>
        <time>2022-12-14T15:50:07.350Z</time>
      </trkpt>
      <trkpt lat="47.69265" lon="-2.12445">
        <ele>48.117622</ele>
        <time>2022-12-14T15:50:09.346Z</time>
      </trkpt>
      <trkpt lat="47.69257" lon="-2.12452">
        <ele>48.082147</ele>
        <time>2022-12-14T15:50:11.331Z</time>
      </trkpt>
      <trkpt lat="47.69249" lon="-2.12458">
        <ele>48.045878</ele>
        <time>2022-12-14T15:50:13.354Z</time>
      </trkpt>
      <trkpt lat="47.6924" lon="-2.12465">
        <ele>48.010504</ele>
        <time>2022-12-14T15:50:15.354Z</time>
      </trkpt>
      <trkpt lat="47.6923" lon="-2.12476">
        <ele>47.962077</ele>
        <time>2022-12-14T15:50:18.354Z</time>
      </trkpt>
      <trkpt lat="47.69221" lon="-2.12485">
        <ele>47.920248</ele>
        <time>2022-12-14T15:50:21.351Z</time>
      </trkpt>
      <trkpt lat="47.69211" lon="-2.12493">
        <ele>47.875683</ele>
        <time>2022-12-14T15:50:24.351Z</time>
      </trkpt>
      <trkpt lat="47.692" lon="-2.12503">
        <ele>47.82765</ele>
        <time>2022-12-14T15:50:27.345Z</time>
      </trkpt>
      <trkpt lat="47.69189" lon="-2.12513">
        <ele>47.77765</ele>
        <time>2022-12-14T15:50:30.338Z</time>
      </trkpt>
      <trkpt lat="47.69177" lon="-2.12523">
        <ele>47.726137</ele>
        <time>2022-12-14T15:50:33.326Z</time>
      </trkpt>
      <trkpt lat="47.69167" lon="-2.12527">
        <ele>47.68883</ele>
        <time>2022-12-14T15:50:35.356Z</time>
      </trkpt>
      <trkpt lat="47.69158" lon="-2.12532">
        <ele>47.651456</ele>
        <time>2022-12-14T15:50:37.349Z</time>
      </trkpt>
      <trkpt lat="47.69149" lon="-2.12536">
        <ele>47.614203</ele>
        <time>2022-12-14T15:50:39.349Z</time>
      </trkpt>
      <trkpt lat="47.6914" lon="-2.12538">
        <ele>47.579568</ele>
        <time>2022-12-14T15:50:41.359Z</time>
      </trkpt>
      <trkpt lat="47.6913" lon="-2.1254">
        <ele>47.542707</ele>
        <time>2022-12-14T15:50:43.326Z</time>
      </trkpt>
      <trkpt lat="47.69117" lon="-2.1254">
        <ele>47.494359</ele>
        <time>2022-12-14T15:50:46.338Z</time>
      </trkpt>
      <trkpt lat="47.69107" lon="-2.12541">
        <ele>47.479922</ele>
        <time>2022-12-14T15:50:49.350Z</time>
      </trkpt>
      <trkpt lat="47.69096" lon="-2.12541">
        <ele>47.519048</ele>
        <time>2022-12-14T15:50:52.351Z</time>
      </trkpt>
      <trkpt lat="47.69085" lon="-2.1254">
        <ele>47.560108</ele>
        <time>2022-12-14T15:50:55.351Z</time>
      </trkpt>
      <trkpt lat="47.69073" lon="-2.12538">
        <ele>47.606421</ele>
        <time>2022-12-14T15:50:58.362Z</time>
      </trkpt>
      <trkpt lat="47.6906" lon="-2.12534">
        <ele>47.653207</ele>
        <time>2022-12-14T15:51:01.334Z</time>
      </trkpt>
      <trkpt lat="47.6905" lon="-2.12528">
        <ele>47.694688</ele>
        <time>2022-12-14T15:51:04.363Z</time>
      </trkpt>
      <trkpt lat="47.69041" lon="-2.12523">
        <ele>47.729721</ele>
        <time>2022-12-14T15:51:06.348Z</time>
      </trkpt>
      <trkpt lat="47.6903" lon="-2.12515">
        <ele>47.773957</ele>
        <time>2022-12-14T15:51:09.352Z</time>
      </trkpt>
      <trkpt lat="47.69019" lon="-2.12504">
        <ele>47.820796</ele>
        <time>2022-12-14T15:51:12.337Z</time>
      </trkpt>
      <trkpt lat="47.69012" lon="-2.12496">
        <ele>47.855274</ele>
        <time>2022-12-14T15:51:14.352Z</time>
      </trkpt>
      <trkpt lat="47.69004" lon="-2.12488">
        <ele>47.889019</ele>
        <time>2022-12-14T15:51:16.334Z</time>
      </trkpt>
      <trkpt lat="47.68994" lon="-2.12476">
        <ele>47.93686</ele>
        <time>2022-12-14T15:51:19.354Z</time>
      </trkpt>
      <trkpt lat="47.68987" lon="-2.12465">
        <ele>47.974711</ele>
        <time>2022-12-14T15:51:22.348Z</time>
      </trkpt>
      <trkpt lat="47.68979" lon="-2.12451">
        <ele>48.019331</ele>
        <time>2022-12-14T15:51:25.331Z</time>
      </trkpt>
      <trkpt lat="47.68972" lon="-2.12437">
        <ele>48.063445</ele>
        <time>2022-12-14T15:51:28.331Z</time>
      </trkpt>
      <trkpt lat="47.68965" lon="-2.12423">
        <ele>48.104709</ele>
        <time>2022-12-14T15:51:31.334Z</time>
      </trkpt>
      <trkpt lat="47.68958" lon="-2.12409">
        <ele>48.150264</ele>
        <time>2022-12-14T15:51:34.341Z</time>
      </trkpt>
      <trkpt lat="47.68951" lon="-2.12393">
        <ele>48.203535</ele>
        <time>2022-12-14T15:51:37.336Z</time>
      </trkpt>
      <trkpt lat="47.68943" lon="-2.12378">
        <ele>48.254368</ele>
        <time>2022-12-14T15:51:40.335Z</time>
      </trkpt>
      <trkpt lat="47.68935" lon="-2.12365">
        <ele>48.304551</ele>
        <time>2022-12-14T15:51:43.350Z</time>
      </trkpt>
      <trkpt lat="47.68927" lon="-2.1235">
        <ele>48.358062</ele>
        <time>2022-12-14T15:51:46.330Z</time>
      </trkpt>
      <trkpt lat="47.68919" lon="-2.12335">
        <ele>48.408676</ele>
        <time>2022-12-14T15:51:49.331Z</time>
      </trkpt>
      <trkpt lat="47.68913" lon="-2.12321">
        <ele>48.455585</ele>
        <time>2022-12-14T15:51:52.385Z</time>
      </trkpt>
      <trkpt lat="47.68906" lon="-2.12306">
        <ele>48.507024</ele>
        <time>2022-12-14T15:51:55.344Z</time>
      </trkpt>
      <trkpt lat="47.68898" lon="-2.1229">
        <ele>48.559855</ele>
        <time>2022-12-14T15:51:58.324Z</time>
      </trkpt>
      <trkpt lat="47.6889" lon="-2.12274">
        <ele>48.614761</ele>
        <time>2022-12-14T15:52:01.364Z</time>
      </trkpt>
      <trkpt lat="47.68882" lon="-2.12259">
        <ele>48.667465</ele>
        <time>2022-12-14T15:52:04.328Z</time>
      </trkpt>
      <trkpt lat="47.68875" lon="-2.12244">
        <ele>48.717534</ele>
        <time>2022-12-14T15:52:07.360Z</time>
      </trkpt>
      <trkpt lat="47.68869" lon="-2.12233">
        <ele>48.756651</ele>
        <time>2022-12-14T15:52:10.348Z</time>
      </trkpt>
      <trkpt lat="47.68862" lon="-2.12219">
        <ele>48.804768</ele>
        <time>2022-12-14T15:52:14.348Z</time>
      </trkpt>
      <trkpt lat="47.68855" lon="-2.12209">
        <ele>48.845495</ele>
        <time>2022-12-14T15:52:17.348Z</time>
      </trkpt>
      <trkpt lat="47.68846" lon="-2.12199">
        <ele>48.832191</ele>
        <time>2022-12-14T15:52:20.358Z</time>
      </trkpt>
      <trkpt lat="47.68837" lon="-2.12191">
        <ele>48.785983</ele>
        <time>2022-12-14T15:52:23.356Z</time>
      </trkpt>
      <trkpt lat="47.68825" lon="-2.12184">
        <ele>48.732816</ele>
        <time>2022-12-14T15:52:26.361Z</time>
      </trkpt>
      <trkpt lat="47.68814" lon="-2.1218">
        <ele>48.684546</ele>
        <time>2022-12-14T15:52:29.374Z</time>
      </trkpt>
      <trkpt lat="47.68802" lon="-2.12176">
        <ele>48.633037</ele>
        <time>2022-12-14T15:52:32.348Z</time>
      </trkpt>
      <trkpt lat="47.68791" lon="-2.12174">
        <ele>48.584005</ele>
        <time>2022-12-14T15:52:35.335Z</time>
      </trkpt>
      <trkpt lat="47.68779" lon="-2.12172">
        <ele>48.532872</ele>
        <time>2022-12-14T15:52:38.340Z</time>
      </trkpt>
      <trkpt lat="47.68768" lon="-2.1217">
        <ele>48.484747</ele>
        <time>2022-12-14T15:52:41.347Z</time>
      </trkpt>
      <trkpt lat="47.68756" lon="-2.12169">
        <ele>48.43383</ele>
        <time>2022-12-14T15:52:44.340Z</time>
      </trkpt>
      <trkpt lat="47.68746" lon="-2.12168">
        <ele>48.393189</ele>
        <time>2022-12-14T15:52:47.361Z</time>
      </trkpt>
      <trkpt lat="47.68736" lon="-2.1217">
        <ele>48.349444</ele>
        <time>2022-12-14T15:52:50.339Z</time>
      </trkpt>
      <trkpt lat="47.68725" lon="-2.12174">
        <ele>48.301251</ele>
        <time>2022-12-14T15:52:53.331Z</time>
      </trkpt>
      <trkpt lat="47.68713" lon="-2.1218">
        <ele>48.250037</ele>
        <time>2022-12-14T15:52:56.408Z</time>
      </trkpt>
      <trkpt lat="47.68701" lon="-2.12187">
        <ele>48.196475</ele>
        <time>2022-12-14T15:52:59.352Z</time>
      </trkpt>
      <trkpt lat="47.6869" lon="-2.12194">
        <ele>48.1421</ele>
        <time>2022-12-14T15:53:02.357Z</time>
      </trkpt>
      <trkpt lat="47.68679" lon="-2.12201">
        <ele>48.102892</ele>
        <time>2022-12-14T15:53:05.356Z</time>
      </trkpt>
      <trkpt lat="47.68668" lon="-2.12209">
        <ele>48.119087</ele>
        <time>2022-12-14T15:53:08.335Z</time>
      </trkpt>
      <trkpt lat="47.68658" lon="-2.12215">
        <ele>48.135047</ele>
        <time>2022-12-14T15:53:11.332Z</time>
      </trkpt>
      <trkpt lat="47.68647" lon="-2.12222">
        <ele>48.151409</ele>
        <time>2022-12-14T15:53:14.347Z</time>
      </trkpt>
      <trkpt lat="47.68636" lon="-2.12229">
        <ele>48.168357</ele>
        <time>2022-12-14T15:53:17.357Z</time>
      </trkpt>
      <trkpt lat="47.68627" lon="-2.12234">
        <ele>48.180965</ele>
        <time>2022-12-14T15:53:19.360Z</time>
      </trkpt>
      <trkpt lat="47.68619" lon="-2.12239">
        <ele>48.193544</ele>
        <time>2022-12-14T15:53:21.355Z</time>
      </trkpt>
      <trkpt lat="47.6861" lon="-2.12244">
        <ele>48.20647</ele>
        <time>2022-12-14T15:53:23.345Z</time>
      </trkpt>
      <trkpt lat="47.68602" lon="-2.12249">
        <ele>48.219306</ele>
        <time>2022-12-14T15:53:25.351Z</time>
      </trkpt>
      <trkpt lat="47.68591" lon="-2.12257">
        <ele>48.23663</ele>
        <time>2022-12-14T15:53:28.356Z</time>
      </trkpt>
      <trkpt lat="47.6858" lon="-2.12264">
        <ele>48.252021</ele>
        <time>2022-12-14T15:53:31.351Z</time>
      </trkpt>
      <trkpt lat="47.68571" lon="-2.12271">
        <ele>48.266687</ele>
        <time>2022-12-14T15:53:34.336Z</time>
      </trkpt>
      <trkpt lat="47.68561" lon="-2.12277">
        <ele>48.281773</ele>
        <time>2022-12-14T15:53:37.343Z</time>
      </trkpt>
      <trkpt lat="47.68552" lon="-2.12284">
        <ele>48.296266</ele>
        <time>2022-12-14T15:53:40.413Z</time>
      </trkpt>
      <trkpt lat="47.68543" lon="-2.12291">
        <ele>48.309809</ele>
        <time>2022-12-14T15:53:43.335Z</time>
      </trkpt>
      <trkpt lat="47.68533" lon="-2.12298">
        <ele>48.325131</ele>
        <time>2022-12-14T15:53:46.359Z</time>
      </trkpt>
      <trkpt lat="47.68524" lon="-2.12304">
        <ele>48.338476</ele>
        <time>2022-12-14T15:53:49.351Z</time>
      </trkpt>
      <trkpt lat="47.68514" lon="-2.1231">
        <ele>48.336308</ele>
        <time>2022-12-14T15:53:53.333Z</time>
      </trkpt>
      <trkpt lat="47.68504" lon="-2.12312">
        <ele>48.2693</ele>
        <time>2022-12-14T15:53:57.342Z</time>
      </trkpt>
      <trkpt lat="47.68495" lon="-2.12318">
        <ele>48.202437</ele>
        <time>2022-12-14T15:54:01.363Z</time>
      </trkpt>
      <trkpt lat="47.68486" lon="-2.12324">
        <ele>48.13741</ele>
        <time>2022-12-14T15:54:05.360Z</time>
      </trkpt>
      <trkpt lat="47.68477" lon="-2.1232">
        <ele>48.074492</ele>
        <time>2022-12-14T15:54:09.361Z</time>
      </trkpt>
      <trkpt lat="47.68473" lon="-2.12304">
        <ele>48.005163</ele>
        <time>2022-12-14T15:54:14.352Z</time>
      </trkpt>
      <trkpt lat="47.68471" lon="-2.12289">
        <ele>47.933304</ele>
        <time>2022-12-14T15:54:19.336Z</time>
      </trkpt>
      <trkpt lat="47.68466" lon="-2.12274">
        <ele>47.863523</ele>
        <time>2022-12-14T15:54:23.354Z</time>
      </trkpt>
      <trkpt lat="47.68463" lon="-2.12261">
        <ele>47.803146</ele>
        <time>2022-12-14T15:54:26.355Z</time>
      </trkpt>
      <trkpt lat="47.6846" lon="-2.12248">
        <ele>47.739848</ele>
        <time>2022-12-14T15:54:29.332Z</time>
      </trkpt>
      <trkpt lat="47.68456" lon="-2.1223">
        <ele>47.659715</ele>
        <time>2022-12-14T15:54:33.336Z</time>
      </trkpt>
      <trkpt lat="47.68451" lon="-2.12212">
        <ele>47.57475</ele>
        <time>2022-12-14T15:54:36.344Z</time>
      </trkpt>
      <trkpt lat="47.6845" lon="-2.12198">
        <ele>47.509454</ele>
        <time>2022-12-14T15:54:38.416Z</time>
      </trkpt>
      <trkpt lat="47.68449" lon="-2.12184">
        <ele>47.450432</ele>
        <time>2022-12-14T15:54:40.355Z</time>
      </trkpt>
      <trkpt lat="47.68446" lon="-2.12167">
        <ele>47.371137</ele>
        <time>2022-12-14T15:54:43.351Z</time>
      </trkpt>
      <trkpt lat="47.68443" lon="-2.12152">
        <ele>47.304098</ele>
        <time>2022-12-14T15:54:46.336Z</time>
      </trkpt>
      <trkpt lat="47.68441" lon="-2.12138">
        <ele>47.239047</ele>
        <time>2022-12-14T15:54:49.338Z</time>
      </trkpt>
      <trkpt lat="47.68436" lon="-2.12125">
        <ele>47.171681</ele>
        <time>2022-12-14T15:54:52.335Z</time>
      </trkpt>
      <trkpt lat="47.68431" lon="-2.12109">
        <ele>47.049327</ele>
        <time>2022-12-14T15:54:55.353Z</time>
      </trkpt>
      <trkpt lat="47.68426" lon="-2.12093">
        <ele>46.924142</ele>
        <time>2022-12-14T15:54:58.351Z</time>
      </trkpt>
      <trkpt lat="47.68422" lon="-2.12077">
        <ele>46.798376</ele>
        <time>2022-12-14T15:55:01.332Z</time>
      </trkpt>
      <trkpt lat="47.68417" lon="-2.1206">
        <ele>46.664061</ele>
        <time>2022-12-14T15:55:04.340Z</time>
      </trkpt>
      <trkpt lat="47.68412" lon="-2.12043">
        <ele>46.533128</ele>
        <time>2022-12-14T15:55:07.330Z</time>
      </trkpt>
      <trkpt lat="47.68409" lon="-2.12031">
        <ele>46.434515</ele>
        <time>2022-12-14T15:55:09.357Z</time>
      </trkpt>
      <trkpt lat="47.68405" lon="-2.12018">
        <ele>46.335648</ele>
        <time>2022-12-14T15:55:11.351Z</time>
      </trkpt>
      <trkpt lat="47.68401" lon="-2.12">
        <ele>46.201119</ele>
        <time>2022-12-14T15:55:14.357Z</time>
      </trkpt>
      <trkpt lat="47.68396" lon="-2.11984">
        <ele>46.068558</ele>
        <time>2022-12-14T15:55:17.394Z</time>
      </trkpt>
      <trkpt lat="47.68392" lon="-2.11968">
        <ele>45.947236</ele>
        <time>2022-12-14T15:55:20.348Z</time>
      </trkpt>
      <trkpt lat="47.68387" lon="-2.11952">
        <ele>45.817531</ele>
        <time>2022-12-14T15:55:23.330Z</time>
      </trkpt>
      <trkpt lat="47.68383" lon="-2.11939">
        <ele>45.721069</ele>
        <time>2022-12-14T15:55:25.348Z</time>
      </trkpt>
      <trkpt lat="47.68379" lon="-2.11924">
        <ele>45.605101</ele>
        <time>2022-12-14T15:55:28.358Z</time>
      </trkpt>
      <trkpt lat="47.68376" lon="-2.11911">
        <ele>45.505567</ele>
        <time>2022-12-14T15:55:31.358Z</time>
      </trkpt>
      <trkpt lat="47.68372" lon="-2.11897">
        <ele>45.396306</ele>
        <time>2022-12-14T15:55:34.344Z</time>
      </trkpt>
      <trkpt lat="47.68369" lon="-2.11882">
        <ele>45.278814</ele>
        <time>2022-12-14T15:55:37.358Z</time>
      </trkpt>
      <trkpt lat="47.68365" lon="-2.11867">
        <ele>45.198707</ele>
        <time>2022-12-14T15:55:40.351Z</time>
      </trkpt>
      <trkpt lat="47.6836" lon="-2.11851">
        <ele>45.119043</ele>
        <time>2022-12-14T15:55:43.335Z</time>
      </trkpt>
      <trkpt lat="47.68355" lon="-2.11836">
        <ele>45.041904</ele>
        <time>2022-12-14T15:55:46.343Z</time>
      </trkpt>
      <trkpt lat="47.6835" lon="-2.11824">
        <ele>44.980773</ele>
        <time>2022-12-14T15:55:49.349Z</time>
      </trkpt>
      <trkpt lat="47.68345" lon="-2.1181">
        <ele>44.90607</ele>
        <time>2022-12-14T15:55:54.337Z</time>
      </trkpt>
      <trkpt lat="47.68342" lon="-2.11792">
        <ele>44.825989</ele>
        <time>2022-12-14T15:55:58.333Z</time>
      </trkpt>
      <trkpt lat="47.68338" lon="-2.11777">
        <ele>44.752204</ele>
        <time>2022-12-14T15:56:01.331Z</time>
      </trkpt>
      <trkpt lat="47.68332" lon="-2.1176">
        <ele>44.666873</ele>
        <time>2022-12-14T15:56:04.349Z</time>
      </trkpt>
      <trkpt lat="47.68328" lon="-2.11748">
        <ele>44.606874</ele>
        <time>2022-12-14T15:56:06.341Z</time>
      </trkpt>
      <trkpt lat="47.68323" lon="-2.1173">
        <ele>44.520782</ele>
        <time>2022-12-14T15:56:09.344Z</time>
      </trkpt>
      <trkpt lat="47.68319" lon="-2.11713">
        <ele>44.437729</ele>
        <time>2022-12-14T15:56:12.404Z</time>
      </trkpt>
      <trkpt lat="47.68315" lon="-2.11697">
        <ele>44.360233</ele>
        <time>2022-12-14T15:56:15.338Z</time>
      </trkpt>
      <trkpt lat="47.6831" lon="-2.11679">
        <ele>44.272162</ele>
        <time>2022-12-14T15:56:18.337Z</time>
      </trkpt>
      <trkpt lat="47.68306" lon="-2.11664">
        <ele>44.200089</ele>
        <time>2022-12-14T15:56:21.338Z</time>
      </trkpt>
      <trkpt lat="47.683" lon="-2.11647">
        <ele>44.115258</ele>
        <time>2022-12-14T15:56:24.350Z</time>
      </trkpt>
      <trkpt lat="47.68294" lon="-2.1163">
        <ele>44.056947</ele>
        <time>2022-12-14T15:56:27.353Z</time>
      </trkpt>
      <trkpt lat="47.68289" lon="-2.11614">
        <ele>44.077751</ele>
        <time>2022-12-14T15:56:30.350Z</time>
      </trkpt>
      <trkpt lat="47.68286" lon="-2.116">
        <ele>44.094602</ele>
        <time>2022-12-14T15:56:33.337Z</time>
      </trkpt>
      <trkpt lat="47.68281" lon="-2.11583">
        <ele>44.116215</ele>
        <time>2022-12-14T15:56:36.356Z</time>
      </trkpt>
      <trkpt lat="47.68277" lon="-2.11565">
        <ele>44.138044</ele>
        <time>2022-12-14T15:56:39.352Z</time>
      </trkpt>
      <trkpt lat="47.68273" lon="-2.1155">
        <ele>44.156262</ele>
        <time>2022-12-14T15:56:42.361Z</time>
      </trkpt>
      <trkpt lat="47.68269" lon="-2.11534">
        <ele>44.176125</ele>
        <time>2022-12-14T15:56:45.355Z</time>
      </trkpt>
      <trkpt lat="47.68264" lon="-2.11517">
        <ele>44.198037</ele>
        <time>2022-12-14T15:56:48.334Z</time>
      </trkpt>
      <trkpt lat="47.68259" lon="-2.115">
        <ele>44.219295</ele>
        <time>2022-12-14T15:56:51.351Z</time>
      </trkpt>
      <trkpt lat="47.68254" lon="-2.11483">
        <ele>44.240525</ele>
        <time>2022-12-14T15:56:54.417Z</time>
      </trkpt>
      <trkpt lat="47.68249" lon="-2.11466">
        <ele>44.262133</ele>
        <time>2022-12-14T15:56:57.340Z</time>
      </trkpt>
      <trkpt lat="47.68244" lon="-2.11448">
        <ele>44.28469</ele>
        <time>2022-12-14T15:57:00.343Z</time>
      </trkpt>
      <trkpt lat="47.68239" lon="-2.11432">
        <ele>44.304039</ele>
        <time>2022-12-14T15:57:03.332Z</time>
      </trkpt>
      <trkpt lat="47.68235" lon="-2.11417">
        <ele>44.323372</ele>
        <time>2022-12-14T15:57:06.340Z</time>
      </trkpt>
      <trkpt lat="47.68232" lon="-2.11404">
        <ele>44.33899</ele>
        <time>2022-12-14T15:57:09.362Z</time>
      </trkpt>
      <trkpt lat="47.68229" lon="-2.11389">
        <ele>44.356781</ele>
        <time>2022-12-14T15:57:13.338Z</time>
      </trkpt>
      <trkpt lat="47.68225" lon="-2.11375">
        <ele>44.237077</ele>
        <time>2022-12-14T15:57:16.339Z</time>
      </trkpt>
      <trkpt lat="47.68221" lon="-2.11358">
        <ele>44.065072</ele>
        <time>2022-12-14T15:57:19.356Z</time>
      </trkpt>
      <trkpt lat="47.68216" lon="-2.11342">
        <ele>43.895236</ele>
        <time>2022-12-14T15:57:22.346Z</time>
      </trkpt>
      <trkpt lat="47.68212" lon="-2.11326">
        <ele>43.726723</ele>
        <time>2022-12-14T15:57:25.355Z</time>
      </trkpt>
      <trkpt lat="47.68207" lon="-2.1131">
        <ele>43.555281</ele>
        <time>2022-12-14T15:57:28.353Z</time>
      </trkpt>
      <trkpt lat="47.68202" lon="-2.11293">
        <ele>43.37813</ele>
        <time>2022-12-14T15:57:31.341Z</time>
      </trkpt>
      <trkpt lat="47.68197" lon="-2.11277">
        <ele>43.208942</ele>
        <time>2022-12-14T15:57:34.352Z</time>
      </trkpt>
      <trkpt lat="47.68192" lon="-2.1126">
        <ele>43.029592</ele>
        <time>2022-12-14T15:57:37.331Z</time>
      </trkpt>
      <trkpt lat="47.68187" lon="-2.11247">
        <ele>42.88933</ele>
        <time>2022-12-14T15:57:40.340Z</time>
      </trkpt>
      <trkpt lat="47.68183" lon="-2.11232">
        <ele>42.735706</ele>
        <time>2022-12-14T15:57:44.346Z</time>
      </trkpt>
      <trkpt lat="47.68179" lon="-2.11218">
        <ele>42.582283</ele>
        <time>2022-12-14T15:57:48.364Z</time>
      </trkpt>
      <trkpt lat="47.68175" lon="-2.11205">
        <ele>42.448483</ele>
        <time>2022-12-14T15:57:51.362Z</time>
      </trkpt>
      <trkpt lat="47.68171" lon="-2.11191">
        <ele>42.308348</ele>
        <time>2022-12-14T15:57:54.354Z</time>
      </trkpt>
      <trkpt lat="47.68168" lon="-2.11178">
        <ele>42.165449</ele>
        <time>2022-12-14T15:57:57.343Z</time>
      </trkpt>
      <trkpt lat="47.68164" lon="-2.11164">
        <ele>42.025227</ele>
        <time>2022-12-14T15:58:00.353Z</time>
      </trkpt>
      <trkpt lat="47.6816" lon="-2.11149">
        <ele>41.867329</ele>
        <time>2022-12-14T15:58:03.357Z</time>
      </trkpt>
      <trkpt lat="47.68156" lon="-2.11133">
        <ele>41.801143</ele>
        <time>2022-12-14T15:58:06.340Z</time>
      </trkpt>
      <trkpt lat="47.68152" lon="-2.11121">
        <ele>41.819835</ele>
        <time>2022-12-14T15:58:09.352Z</time>
      </trkpt>
      <trkpt lat="47.68149" lon="-2.11107">
        <ele>41.841213</ele>
        <time>2022-12-14T15:58:12.338Z</time>
      </trkpt>
      <trkpt lat="47.68145" lon="-2.11093">
        <ele>41.862126</ele>
        <time>2022-12-14T15:58:15.363Z</time>
      </trkpt>
      <trkpt lat="47.68141" lon="-2.11078">
        <ele>41.883299</ele>
        <time>2022-12-14T15:58:18.357Z</time>
      </trkpt>
      <trkpt lat="47.68137" lon="-2.11064">
        <ele>41.904612</ele>
        <time>2022-12-14T15:58:21.355Z</time>
      </trkpt>
      <trkpt lat="47.68132" lon="-2.1105">
        <ele>41.927922</ele>
        <time>2022-12-14T15:58:24.336Z</time>
      </trkpt>
      <trkpt lat="47.68127" lon="-2.11033">
        <ele>41.952627</ele>
        <time>2022-12-14T15:58:27.415Z</time>
      </trkpt>
      <trkpt lat="47.68123" lon="-2.11019">
        <ele>41.974074</ele>
        <time>2022-12-14T15:58:30.359Z</time>
      </trkpt>
      <trkpt lat="47.68118" lon="-2.11005">
        <ele>41.996152</ele>
        <time>2022-12-14T15:58:33.343Z</time>
      </trkpt>
      <trkpt lat="47.68114" lon="-2.10989">
        <ele>42.019957</ele>
        <time>2022-12-14T15:58:36.341Z</time>
      </trkpt>
      <trkpt lat="47.6811" lon="-2.10972">
        <ele>42.043944</ele>
        <time>2022-12-14T15:58:39.339Z</time>
      </trkpt>
      <trkpt lat="47.68106" lon="-2.10956">
        <ele>42.068751</ele>
        <time>2022-12-14T15:58:42.362Z</time>
      </trkpt>
      <trkpt lat="47.68102" lon="-2.10939">
        <ele>42.093893</ele>
        <time>2022-12-14T15:58:45.339Z</time>
      </trkpt>
      <trkpt lat="47.68097" lon="-2.10927">
        <ele>42.112854</ele>
        <time>2022-12-14T15:58:48.358Z</time>
      </trkpt>
      <trkpt lat="47.68093" lon="-2.10914">
        <ele>42.132942</ele>
        <time>2022-12-14T15:58:51.368Z</time>
      </trkpt>
      <trkpt lat="47.6809" lon="-2.10901">
        <ele>42.152057</ele>
        <time>2022-12-14T15:58:54.359Z</time>
      </trkpt>
      <trkpt lat="47.68085" lon="-2.10887">
        <ele>42.261175</ele>
        <time>2022-12-14T15:58:57.360Z</time>
      </trkpt>
      <trkpt lat="47.68081" lon="-2.10871">
        <ele>42.443733</ele>
        <time>2022-12-14T15:59:00.361Z</time>
      </trkpt>
      <trkpt lat="47.68077" lon="-2.10855">
        <ele>42.630495</ele>
        <time>2022-12-14T15:59:03.344Z</time>
      </trkpt>
      <trkpt lat="47.68073" lon="-2.10839">
        <ele>42.818272</ele>
        <time>2022-12-14T15:59:06.352Z</time>
      </trkpt>
      <trkpt lat="47.68068" lon="-2.10823">
        <ele>43.010482</ele>
        <time>2022-12-14T15:59:09.336Z</time>
      </trkpt>
      <trkpt lat="47.68063" lon="-2.10806">
        <ele>43.213236</ele>
        <time>2022-12-14T15:59:12.354Z</time>
      </trkpt>
      <trkpt lat="47.68058" lon="-2.10789">
        <ele>43.415111</ele>
        <time>2022-12-14T15:59:15.356Z</time>
      </trkpt>
      <trkpt lat="47.68053" lon="-2.10771">
        <ele>43.628281</ele>
        <time>2022-12-14T15:59:18.350Z</time>
      </trkpt>
      <trkpt lat="47.68048" lon="-2.10753">
        <ele>43.83603</ele>
        <time>2022-12-14T15:59:21.335Z</time>
      </trkpt>
      <trkpt lat="47.68044" lon="-2.10736">
        <ele>44.035489</ele>
        <time>2022-12-14T15:59:24.327Z</time>
      </trkpt>
      <trkpt lat="47.68039" lon="-2.10719">
        <ele>44.238888</ele>
        <time>2022-12-14T15:59:27.335Z</time>
      </trkpt>
      <trkpt lat="47.68034" lon="-2.10703">
        <ele>44.428072</ele>
        <time>2022-12-14T15:59:30.337Z</time>
      </trkpt>
      <trkpt lat="47.6803" lon="-2.10687">
        <ele>44.615647</ele>
        <time>2022-12-14T15:59:33.347Z</time>
      </trkpt>
      <trkpt lat="47.68025" lon="-2.1067">
        <ele>44.812128</ele>
        <time>2022-12-14T15:59:36.353Z</time>
      </trkpt>
      <trkpt lat="47.68021" lon="-2.10652">
        <ele>45.021671</ele>
        <time>2022-12-14T15:59:39.345Z</time>
      </trkpt>
      <trkpt lat="47.68016" lon="-2.10635">
        <ele>45.095284</ele>
        <time>2022-12-14T15:59:42.412Z</time>
      </trkpt>
      <trkpt lat="47.68011" lon="-2.1062">
        <ele>45.128704</ele>
        <time>2022-12-14T15:59:45.354Z</time>
      </trkpt>
      <trkpt lat="47.68008" lon="-2.10606">
        <ele>45.160218</ele>
        <time>2022-12-14T15:59:48.347Z</time>
      </trkpt>
      <trkpt lat="47.68003" lon="-2.10591">
        <ele>45.193025</ele>
        <time>2022-12-14T15:59:51.341Z</time>
      </trkpt>
      <trkpt lat="47.67999" lon="-2.10575">
        <ele>45.228759</ele>
        <time>2022-12-14T15:59:54.341Z</time>
      </trkpt>
      <trkpt lat="47.67994" lon="-2.10559">
        <ele>45.265851</ele>
        <time>2022-12-14T15:59:57.335Z</time>
      </trkpt>
      <trkpt lat="47.67989" lon="-2.10542">
        <ele>45.302724</ele>
        <time>2022-12-14T16:00:00.336Z</time>
      </trkpt>
      <trkpt lat="47.67985" lon="-2.10525">
        <ele>45.341009</ele>
        <time>2022-12-14T16:00:03.337Z</time>
      </trkpt>
      <trkpt lat="47.6798" lon="-2.10509">
        <ele>45.375925</ele>
        <time>2022-12-14T16:00:06.341Z</time>
      </trkpt>
      <trkpt lat="47.67975" lon="-2.10495">
        <ele>45.408342</ele>
        <time>2022-12-14T16:00:09.342Z</time>
      </trkpt>
      <trkpt lat="47.67971" lon="-2.1048">
        <ele>45.441003</ele>
        <time>2022-12-14T16:00:13.347Z</time>
      </trkpt>
      <trkpt lat="47.67967" lon="-2.10465">
        <ele>45.476105</ele>
        <time>2022-12-14T16:00:17.354Z</time>
      </trkpt>
      <trkpt lat="47.67963" lon="-2.10451">
        <ele>45.507164</ele>
        <time>2022-12-14T16:00:20.357Z</time>
      </trkpt>
      <trkpt lat="47.67959" lon="-2.10436">
        <ele>45.540046</ele>
        <time>2022-12-14T16:00:23.348Z</time>
      </trkpt>
      <trkpt lat="47.67955" lon="-2.1042">
        <ele>45.574841</ele>
        <time>2022-12-14T16:00:26.339Z</time>
      </trkpt>
      <trkpt lat="47.6795" lon="-2.10403">
        <ele>45.612259</ele>
        <time>2022-12-14T16:00:29.358Z</time>
      </trkpt>
      <trkpt lat="47.67946" lon="-2.10387">
        <ele>45.498916</ele>
        <time>2022-12-14T16:00:32.337Z</time>
      </trkpt>
      <trkpt lat="47.67941" lon="-2.10372">
        <ele>45.380809</ele>
        <time>2022-12-14T16:00:35.359Z</time>
      </trkpt>
      <trkpt lat="47.67938" lon="-2.1036">
        <ele>45.280676</ele>
        <time>2022-12-14T16:00:38.361Z</time>
      </trkpt>
      <trkpt lat="47.67934" lon="-2.10347">
        <ele>45.1832</ele>
        <time>2022-12-14T16:00:41.342Z</time>
      </trkpt>
      <trkpt lat="47.67929" lon="-2.10331">
        <ele>45.055002</ele>
        <time>2022-12-14T16:00:45.362Z</time>
      </trkpt>
      <trkpt lat="47.67925" lon="-2.10318">
        <ele>44.950266</ele>
        <time>2022-12-14T16:00:48.340Z</time>
      </trkpt>
      <trkpt lat="47.67921" lon="-2.10303">
        <ele>44.829745</ele>
        <time>2022-12-14T16:00:52.351Z</time>
      </trkpt>
      <trkpt lat="47.67917" lon="-2.10289">
        <ele>44.720628</ele>
        <time>2022-12-14T16:00:55.351Z</time>
      </trkpt>
      <trkpt lat="47.67912" lon="-2.10275">
        <ele>44.610862</ele>
        <time>2022-12-14T16:00:58.364Z</time>
      </trkpt>
      <trkpt lat="47.67908" lon="-2.1026">
        <ele>44.492741</ele>
        <time>2022-12-14T16:01:01.339Z</time>
      </trkpt>
      <trkpt lat="47.67903" lon="-2.10245">
        <ele>44.370651</ele>
        <time>2022-12-14T16:01:04.355Z</time>
      </trkpt>
      <trkpt lat="47.67899" lon="-2.10229">
        <ele>44.247359</ele>
        <time>2022-12-14T16:01:07.357Z</time>
      </trkpt>
      <trkpt lat="47.67894" lon="-2.10212">
        <ele>44.114435</ele>
        <time>2022-12-14T16:01:10.425Z</time>
      </trkpt>
      <trkpt lat="47.6789" lon="-2.10194">
        <ele>43.98084</ele>
        <time>2022-12-14T16:01:13.335Z</time>
      </trkpt>
      <trkpt lat="47.67886" lon="-2.10179">
        <ele>43.860901</ele>
        <time>2022-12-14T16:01:16.353Z</time>
      </trkpt>
      <trkpt lat="47.67881" lon="-2.10164">
        <ele>43.742793</ele>
        <time>2022-12-14T16:01:19.362Z</time>
      </trkpt>
      <trkpt lat="47.67876" lon="-2.10149">
        <ele>43.727548</ele>
        <time>2022-12-14T16:01:22.346Z</time>
      </trkpt>
      <trkpt lat="47.67871" lon="-2.10134">
        <ele>43.80366</ele>
        <time>2022-12-14T16:01:25.357Z</time>
      </trkpt>
      <trkpt lat="47.67866" lon="-2.10116">
        <ele>43.89182</ele>
        <time>2022-12-14T16:01:28.329Z</time>
      </trkpt>
      <trkpt lat="47.67862" lon="-2.10098">
        <ele>43.97862</ele>
        <time>2022-12-14T16:01:31.351Z</time>
      </trkpt>
      <trkpt lat="47.67858" lon="-2.10083">
        <ele>44.050226</ele>
        <time>2022-12-14T16:01:34.331Z</time>
      </trkpt>
      <trkpt lat="47.67854" lon="-2.1007">
        <ele>44.118252</ele>
        <time>2022-12-14T16:01:37.408Z</time>
      </trkpt>
      <trkpt lat="47.6785" lon="-2.10054">
        <ele>44.195887</ele>
        <time>2022-12-14T16:01:40.352Z</time>
      </trkpt>
      <trkpt lat="47.67845" lon="-2.10037">
        <ele>44.279104</ele>
        <time>2022-12-14T16:01:43.345Z</time>
      </trkpt>
      <trkpt lat="47.6784" lon="-2.10019">
        <ele>44.369362</ele>
        <time>2022-12-14T16:01:46.367Z</time>
      </trkpt>
      <trkpt lat="47.67837" lon="-2.10006">
        <ele>44.433029</ele>
        <time>2022-12-14T16:01:48.377Z</time>
      </trkpt>
      <trkpt lat="47.67833" lon="-2.09991">
        <ele>44.505716</ele>
        <time>2022-12-14T16:01:50.349Z</time>
      </trkpt>
      <trkpt lat="47.67828" lon="-2.09971">
        <ele>44.59988</ele>
        <time>2022-12-14T16:01:53.357Z</time>
      </trkpt>
      <trkpt lat="47.67823" lon="-2.09953">
        <ele>44.690689</ele>
        <time>2022-12-14T16:01:56.357Z</time>
      </trkpt>
      <trkpt lat="47.67818" lon="-2.09937">
        <ele>44.770436</ele>
        <time>2022-12-14T16:01:59.331Z</time>
      </trkpt>
      <trkpt lat="47.67814" lon="-2.0992">
        <ele>44.854501</ele>
        <time>2022-12-14T16:02:02.358Z</time>
      </trkpt>
      <trkpt lat="47.67808" lon="-2.09903">
        <ele>44.925591</ele>
        <time>2022-12-14T16:02:05.356Z</time>
      </trkpt>
      <trkpt lat="47.67803" lon="-2.09886">
        <ele>44.974985</ele>
        <time>2022-12-14T16:02:08.362Z</time>
      </trkpt>
      <trkpt lat="47.67799" lon="-2.09869">
        <ele>45.023724</ele>
        <time>2022-12-14T16:02:11.332Z</time>
      </trkpt>
      <trkpt lat="47.67795" lon="-2.09852">
        <ele>45.070152</ele>
        <time>2022-12-14T16:02:14.372Z</time>
      </trkpt>
      <trkpt lat="47.67791" lon="-2.0984">
        <ele>45.10764</ele>
        <time>2022-12-14T16:02:17.341Z</time>
      </trkpt>
      <trkpt lat="47.67788" lon="-2.09826">
        <ele>45.146299</ele>
        <time>2022-12-14T16:02:20.331Z</time>
      </trkpt>
      <trkpt lat="47.67784" lon="-2.09811">
        <ele>45.188947</ele>
        <time>2022-12-14T16:02:23.364Z</time>
      </trkpt>
      <trkpt lat="47.6778" lon="-2.09796">
        <ele>45.232937</ele>
        <time>2022-12-14T16:02:26.361Z</time>
      </trkpt>
      <trkpt lat="47.67775" lon="-2.09779">
        <ele>45.281194</ele>
        <time>2022-12-14T16:02:29.349Z</time>
      </trkpt>
      <trkpt lat="47.6777" lon="-2.09764">
        <ele>45.324755</ele>
        <time>2022-12-14T16:02:32.362Z</time>
      </trkpt>
      <trkpt lat="47.67766" lon="-2.09747">
        <ele>45.373256</ele>
        <time>2022-12-14T16:02:35.339Z</time>
      </trkpt>
      <trkpt lat="47.6776" lon="-2.09731">
        <ele>45.422651</ele>
        <time>2022-12-14T16:02:38.361Z</time>
      </trkpt>
      <trkpt lat="47.67755" lon="-2.09714">
        <ele>45.47173</ele>
        <time>2022-12-14T16:02:41.404Z</time>
      </trkpt>
      <trkpt lat="47.67752" lon="-2.09699">
        <ele>45.511346</ele>
        <time>2022-12-14T16:02:44.359Z</time>
      </trkpt>
      <trkpt lat="47.67748" lon="-2.09686">
        <ele>45.550795</ele>
        <time>2022-12-14T16:02:48.354Z</time>
      </trkpt>
      <trkpt lat="47.67744" lon="-2.09671">
        <ele>45.593401</ele>
        <time>2022-12-14T16:02:52.365Z</time>
      </trkpt>
      <trkpt lat="47.6774" lon="-2.09659">
        <ele>45.634842</ele>
        <time>2022-12-14T16:02:55.340Z</time>
      </trkpt>
      <trkpt lat="47.67737" lon="-2.09646">
        <ele>45.683534</ele>
        <time>2022-12-14T16:02:58.337Z</time>
      </trkpt>
      <trkpt lat="47.67733" lon="-2.09634">
        <ele>45.733775</ele>
        <time>2022-12-14T16:03:01.333Z</time>
      </trkpt>
      <trkpt lat="47.67729" lon="-2.09619">
        <ele>45.787543</ele>
        <time>2022-12-14T16:03:04.344Z</time>
      </trkpt>
      <trkpt lat="47.67726" lon="-2.09605">
        <ele>45.842845</ele>
        <time>2022-12-14T16:03:07.347Z</time>
      </trkpt>
      <trkpt lat="47.67724" lon="-2.09591">
        <ele>45.894496</ele>
        <time>2022-12-14T16:03:10.355Z</time>
      </trkpt>
      <trkpt lat="47.6772" lon="-2.09577">
        <ele>45.948426</ele>
        <time>2022-12-14T16:03:13.427Z</time>
      </trkpt>
      <trkpt lat="47.67716" lon="-2.0956">
        <ele>46.01228</ele>
        <time>2022-12-14T16:03:16.362Z</time>
      </trkpt>
      <trkpt lat="47.67711" lon="-2.09543">
        <ele>46.078791</ele>
        <time>2022-12-14T16:03:19.350Z</time>
      </trkpt>
      <trkpt lat="47.67706" lon="-2.09526">
        <ele>46.144767</ele>
        <time>2022-12-14T16:03:22.362Z</time>
      </trkpt>
      <trkpt lat="47.67702" lon="-2.09511">
        <ele>46.202966</ele>
        <time>2022-12-14T16:03:25.333Z</time>
      </trkpt>
      <trkpt lat="47.67699" lon="-2.09498">
        <ele>46.252366</ele>
        <time>2022-12-14T16:03:28.335Z</time>
      </trkpt>
      <trkpt lat="47.67695" lon="-2.09485">
        <ele>46.301964</ele>
        <time>2022-12-14T16:03:31.356Z</time>
      </trkpt>
      <trkpt lat="47.67691" lon="-2.09471">
        <ele>46.359174</ele>
        <time>2022-12-14T16:03:34.335Z</time>
      </trkpt>
      <trkpt lat="47.67686" lon="-2.09457">
        <ele>46.417148</ele>
        <time>2022-12-14T16:03:37.351Z</time>
      </trkpt>
      <trkpt lat="47.67681" lon="-2.09444">
        <ele>46.469008</ele>
        <time>2022-12-14T16:03:40.394Z</time>
      </trkpt>
      <trkpt lat="47.67675" lon="-2.09433">
        <ele>46.519336</ele>
        <time>2022-12-14T16:03:43.361Z</time>
      </trkpt>
      <trkpt lat="47.67669" lon="-2.09419">
        <ele>46.573438</ele>
        <time>2022-12-14T16:03:46.335Z</time>
      </trkpt>
      <trkpt lat="47.67661" lon="-2.09405">
        <ele>46.515432</ele>
        <time>2022-12-14T16:03:49.358Z</time>
      </trkpt>
      <trkpt lat="47.67654" lon="-2.09391">
        <ele>46.460339</ele>
        <time>2022-12-14T16:03:52.367Z</time>
      </trkpt>
      <trkpt lat="47.67648" lon="-2.09377">
        <ele>46.409926</ele>
        <time>2022-12-14T16:03:55.342Z</time>
      </trkpt>
      <trkpt lat="47.67642" lon="-2.09366">
        <ele>46.36699</ele>
        <time>2022-12-14T16:03:58.350Z</time>
      </trkpt>
      <trkpt lat="47.67638" lon="-2.09354">
        <ele>46.324369</ele>
        <time>2022-12-14T16:04:01.364Z</time>
      </trkpt>
      <trkpt lat="47.67633" lon="-2.09339">
        <ele>46.272897</ele>
        <time>2022-12-14T16:04:04.353Z</time>
      </trkpt>
      <trkpt lat="47.67624" lon="-2.09329">
        <ele>46.221705</ele>
        <time>2022-12-14T16:04:07.350Z</time>
      </trkpt>
      <trkpt lat="47.67614" lon="-2.09322">
        <ele>46.169767</ele>
        <time>2022-12-14T16:04:10.356Z</time>
      </trkpt>
      <trkpt lat="47.67605" lon="-2.09315">
        <ele>46.124222</ele>
        <time>2022-12-14T16:04:14.352Z</time>
      </trkpt>
      <trkpt lat="47.67597" lon="-2.09308">
        <ele>46.080216</ele>
        <time>2022-12-14T16:04:18.399Z</time>
      </trkpt>
      <trkpt lat="47.6759" lon="-2.093">
        <ele>46.036609</ele>
        <time>2022-12-14T16:04:21.369Z</time>
      </trkpt>
      <trkpt lat="47.67582" lon="-2.09291">
        <ele>45.992075</ele>
        <time>2022-12-14T16:04:24.343Z</time>
      </trkpt>
      <trkpt lat="47.67573" lon="-2.09281">
        <ele>45.943287</ele>
        <time>2022-12-14T16:04:27.365Z</time>
      </trkpt>
      <trkpt lat="47.67564" lon="-2.09272">
        <ele>45.891506</ele>
        <time>2022-12-14T16:04:30.335Z</time>
      </trkpt>
      <trkpt lat="47.67554" lon="-2.09262">
        <ele>45.837679</ele>
        <time>2022-12-14T16:04:33.361Z</time>
      </trkpt>
      <trkpt lat="47.67546" lon="-2.09253">
        <ele>45.788344</ele>
        <time>2022-12-14T16:04:36.348Z</time>
      </trkpt>
      <trkpt lat="47.67536" lon="-2.09242">
        <ele>45.73844</ele>
        <time>2022-12-14T16:04:39.358Z</time>
      </trkpt>
      <trkpt lat="47.67525" lon="-2.09231">
        <ele>45.705943</ele>
        <time>2022-12-14T16:04:42.364Z</time>
      </trkpt>
      <trkpt lat="47.67515" lon="-2.09219">
        <ele>45.673737</ele>
        <time>2022-12-14T16:04:45.351Z</time>
      </trkpt>
      <trkpt lat="47.67506" lon="-2.09208">
        <ele>45.644069</ele>
        <time>2022-12-14T16:04:48.354Z</time>
      </trkpt>
      <trkpt lat="47.67496" lon="-2.09197">
        <ele>45.612573</ele>
        <time>2022-12-14T16:04:51.348Z</time>
      </trkpt>
      <trkpt lat="47.67486" lon="-2.09185">
        <ele>45.580083</ele>
        <time>2022-12-14T16:04:54.357Z</time>
      </trkpt>
      <trkpt lat="47.67479" lon="-2.09175">
        <ele>45.555402</ele>
        <time>2022-12-14T16:04:56.338Z</time>
      </trkpt>
      <trkpt lat="47.6747" lon="-2.09164">
        <ele>45.526509</ele>
        <time>2022-12-14T16:04:59.341Z</time>
      </trkpt>
      <trkpt lat="47.6746" lon="-2.09153">
        <ele>45.49676</ele>
        <time>2022-12-14T16:05:02.337Z</time>
      </trkpt>
      <trkpt lat="47.67451" lon="-2.09143">
        <ele>45.467801</ele>
        <time>2022-12-14T16:05:05.377Z</time>
      </trkpt>
      <trkpt lat="47.67441" lon="-2.09131">
        <ele>45.435021</ele>
        <time>2022-12-14T16:05:08.352Z</time>
      </trkpt>
      <trkpt lat="47.6743" lon="-2.09119">
        <ele>45.401847</ele>
        <time>2022-12-14T16:05:11.362Z</time>
      </trkpt>
      <trkpt lat="47.67421" lon="-2.09108">
        <ele>45.371292</ele>
        <time>2022-12-14T16:05:14.364Z</time>
      </trkpt>
      <trkpt lat="47.67411" lon="-2.09098">
        <ele>45.341947</ele>
        <time>2022-12-14T16:05:17.356Z</time>
      </trkpt>
      <trkpt lat="47.67404" lon="-2.0909">
        <ele>45.318535</ele>
        <time>2022-12-14T16:05:19.357Z</time>
      </trkpt>
      <trkpt lat="47.67394" lon="-2.09079">
        <ele>45.351037</ele>
        <time>2022-12-14T16:05:22.365Z</time>
      </trkpt>
      <trkpt lat="47.67384" lon="-2.09067">
        <ele>45.581487</ele>
        <time>2022-12-14T16:05:25.348Z</time>
      </trkpt>
      <trkpt lat="47.67375" lon="-2.09055">
        <ele>45.79493</ele>
        <time>2022-12-14T16:05:28.349Z</time>
      </trkpt>
      <trkpt lat="47.67366" lon="-2.09045">
        <ele>46.000061</ele>
        <time>2022-12-14T16:05:31.355Z</time>
      </trkpt>
      <trkpt lat="47.67357" lon="-2.09035">
        <ele>46.1952</ele>
        <time>2022-12-14T16:05:34.362Z</time>
      </trkpt>
      <trkpt lat="47.67348" lon="-2.09025">
        <ele>46.395054</ele>
        <time>2022-12-14T16:05:37.360Z</time>
      </trkpt>
      <trkpt lat="47.67338" lon="-2.09013">
        <ele>46.623839</ele>
        <time>2022-12-14T16:05:40.361Z</time>
      </trkpt>
      <trkpt lat="47.67328" lon="-2.09002">
        <ele>46.841884</ele>
        <time>2022-12-14T16:05:43.356Z</time>
      </trkpt>
      <trkpt lat="47.67321" lon="-2.08995">
        <ele>47.00478</ele>
        <time>2022-12-14T16:05:45.400Z</time>
      </trkpt>
      <trkpt lat="47.67311" lon="-2.08984">
        <ele>47.218584</ele>
        <time>2022-12-14T16:05:48.343Z</time>
      </trkpt>
      <trkpt lat="47.67302" lon="-2.08974">
        <ele>47.420832</ele>
        <time>2022-12-14T16:05:51.355Z</time>
      </trkpt>
      <trkpt lat="47.67294" lon="-2.08965">
        <ele>47.610274</ele>
        <time>2022-12-14T16:05:54.350Z</time>
      </trkpt>
      <trkpt lat="47.67284" lon="-2.08954">
        <ele>47.820419</ele>
        <time>2022-12-14T16:05:57.371Z</time>
      </trkpt>
      <trkpt lat="47.67274" lon="-2.08942">
        <ele>48.054404</ele>
        <time>2022-12-14T16:06:00.345Z</time>
      </trkpt>
      <trkpt lat="47.67264" lon="-2.0893">
        <ele>48.291113</ele>
        <time>2022-12-14T16:06:03.359Z</time>
      </trkpt>
      <trkpt lat="47.67253" lon="-2.0892">
        <ele>48.503118</ele>
        <time>2022-12-14T16:06:06.356Z</time>
      </trkpt>
      <trkpt lat="47.67245" lon="-2.08913">
        <ele>48.410712</ele>
        <time>2022-12-14T16:06:08.351Z</time>
      </trkpt>
      <trkpt lat="47.67238" lon="-2.08905">
        <ele>48.319614</ele>
        <time>2022-12-14T16:06:10.360Z</time>
      </trkpt>
      <trkpt lat="47.67228" lon="-2.08895">
        <ele>48.203392</ele>
        <time>2022-12-14T16:06:13.337Z</time>
      </trkpt>
      <trkpt lat="47.6722" lon="-2.08886">
        <ele>48.101366</ele>
        <time>2022-12-14T16:06:16.363Z</time>
      </trkpt>
      <trkpt lat="47.67211" lon="-2.08877">
        <ele>47.990721</ele>
        <time>2022-12-14T16:06:19.361Z</time>
      </trkpt>
      <trkpt lat="47.67201" lon="-2.08869">
        <ele>47.878635</ele>
        <time>2022-12-14T16:06:22.362Z</time>
      </trkpt>
      <trkpt lat="47.67192" lon="-2.08863">
        <ele>47.774364</ele>
        <time>2022-12-14T16:06:25.356Z</time>
      </trkpt>
      <trkpt lat="47.6718" lon="-2.08856">
        <ele>47.648496</ele>
        <time>2022-12-14T16:06:28.346Z</time>
      </trkpt>
      <trkpt lat="47.67169" lon="-2.0885">
        <ele>47.528643</ele>
        <time>2022-12-14T16:06:31.356Z</time>
      </trkpt>
      <trkpt lat="47.67156" lon="-2.08845">
        <ele>47.392231</ele>
        <time>2022-12-14T16:06:34.342Z</time>
      </trkpt>
      <trkpt lat="47.67147" lon="-2.08842">
        <ele>47.296103</ele>
        <time>2022-12-14T16:06:36.364Z</time>
      </trkpt>
      <trkpt lat="47.67137" lon="-2.0884">
        <ele>47.202643</ele>
        <time>2022-12-14T16:06:38.364Z</time>
      </trkpt>
      <trkpt lat="47.67125" lon="-2.08837">
        <ele>47.072255</ele>
        <time>2022-12-14T16:06:41.356Z</time>
      </trkpt>
      <trkpt lat="47.67114" lon="-2.08835">
        <ele>46.966108</ele>
        <time>2022-12-14T16:06:44.353Z</time>
      </trkpt>
      <trkpt lat="47.67103" lon="-2.08833">
        <ele>46.850413</ele>
        <time>2022-12-14T16:06:48.359Z</time>
      </trkpt>
      <trkpt lat="47.67093" lon="-2.08832">
        <ele>46.755414</ele>
        <time>2022-12-14T16:06:51.352Z</time>
      </trkpt>
      <trkpt lat="47.67082" lon="-2.08832">
        <ele>46.602621</ele>
        <time>2022-12-14T16:06:54.360Z</time>
      </trkpt>
      <trkpt lat="47.6707" lon="-2.08833">
        <ele>46.387306</ele>
        <time>2022-12-14T16:06:57.331Z</time>
      </trkpt>
      <trkpt lat="47.67057" lon="-2.08835">
        <ele>46.160429</ele>
        <time>2022-12-14T16:07:00.354Z</time>
      </trkpt>
      <trkpt lat="47.67044" lon="-2.08839">
        <ele>45.925928</ele>
        <time>2022-12-14T16:07:03.351Z</time>
      </trkpt>
      <trkpt lat="47.67033" lon="-2.08844">
        <ele>45.716442</ele>
        <time>2022-12-14T16:07:06.365Z</time>
      </trkpt>
      <trkpt lat="47.67022" lon="-2.08848">
        <ele>45.519875</ele>
        <time>2022-12-14T16:07:09.354Z</time>
      </trkpt>
      <trkpt lat="47.67011" lon="-2.08852">
        <ele>45.307569</ele>
        <time>2022-12-14T16:07:12.367Z</time>
      </trkpt>
      <trkpt lat="47.67001" lon="-2.08856">
        <ele>45.121088</ele>
        <time>2022-12-14T16:07:15.342Z</time>
      </trkpt>
      <trkpt lat="47.6699" lon="-2.08862">
        <ele>44.913692</ele>
        <time>2022-12-14T16:07:18.406Z</time>
      </trkpt>
      <trkpt lat="47.6698" lon="-2.08867">
        <ele>44.726197</ele>
        <time>2022-12-14T16:07:21.358Z</time>
      </trkpt>
      <trkpt lat="47.66971" lon="-2.08873">
        <ele>44.554555</ele>
        <time>2022-12-14T16:07:24.344Z</time>
      </trkpt>
      <trkpt lat="47.6696" lon="-2.0888">
        <ele>44.346999</ele>
        <time>2022-12-14T16:07:27.355Z</time>
      </trkpt>
      <trkpt lat="47.6695" lon="-2.0889">
        <ele>44.131102</ele>
        <time>2022-12-14T16:07:30.349Z</time>
      </trkpt>
      <trkpt lat="47.66939" lon="-2.089">
        <ele>43.908409</ele>
        <time>2022-12-14T16:07:33.359Z</time>
      </trkpt>
      <trkpt lat="47.66929" lon="-2.08911">
        <ele>43.683456</ele>
        <time>2022-12-14T16:07:36.354Z</time>
      </trkpt>
      <trkpt lat="47.66919" lon="-2.08922">
        <ele>43.570972</ele>
        <time>2022-12-14T16:07:39.348Z</time>
      </trkpt>
      <trkpt lat="47.6691" lon="-2.08935">
        <ele>43.867872</ele>
        <time>2022-12-14T16:07:42.356Z</time>
      </trkpt>
      <trkpt lat="47.66901" lon="-2.08948">
        <ele>44.165028</ele>
        <time>2022-12-14T16:07:45.420Z</time>
      </trkpt>
      <trkpt lat="47.66894" lon="-2.08957">
        <ele>44.382632</ele>
        <time>2022-12-14T16:07:48.368Z</time>
      </trkpt>
      <trkpt lat="47.66886" lon="-2.0897">
        <ele>44.669623</ele>
        <time>2022-12-14T16:07:51.341Z</time>
      </trkpt>
      <trkpt lat="47.66877" lon="-2.08984">
        <ele>44.975406</ele>
        <time>2022-12-14T16:07:54.339Z</time>
      </trkpt>
      <trkpt lat="47.66869" lon="-2.08998">
        <ele>45.281219</ele>
        <time>2022-12-14T16:07:57.336Z</time>
      </trkpt>
      <trkpt lat="47.66862" lon="-2.09011">
        <ele>45.548447</ele>
        <time>2022-12-14T16:08:00.354Z</time>
      </trkpt>
      <trkpt lat="47.66855" lon="-2.09025">
        <ele>45.827161</ele>
        <time>2022-12-14T16:08:03.354Z</time>
      </trkpt>
      <trkpt lat="47.66848" lon="-2.0904">
        <ele>46.135349</ele>
        <time>2022-12-14T16:08:06.357Z</time>
      </trkpt>
      <trkpt lat="47.6684" lon="-2.09056">
        <ele>46.446184</ele>
        <time>2022-12-14T16:08:09.356Z</time>
      </trkpt>
      <trkpt lat="47.66835" lon="-2.09067">
        <ele>46.668659</ele>
        <time>2022-12-14T16:08:11.364Z</time>
      </trkpt>
      <trkpt lat="47.66829" lon="-2.09078">
        <ele>46.888806</ele>
        <time>2022-12-14T16:08:13.362Z</time>
      </trkpt>
      <trkpt lat="47.66823" lon="-2.09091">
        <ele>47.140847</ele>
        <time>2022-12-14T16:08:15.363Z</time>
      </trkpt>
      <trkpt lat="47.66818" lon="-2.09102">
        <ele>47.364637</ele>
        <time>2022-12-14T16:08:17.350Z</time>
      </trkpt>
      <trkpt lat="47.66811" lon="-2.09117">
        <ele>47.651436</ele>
        <time>2022-12-14T16:08:20.368Z</time>
      </trkpt>
      <trkpt lat="47.66805" lon="-2.0913">
        <ele>47.837597</ele>
        <time>2022-12-14T16:08:23.340Z</time>
      </trkpt>
      <trkpt lat="47.668" lon="-2.09142">
        <ele>47.883651</ele>
        <time>2022-12-14T16:08:26.362Z</time>
      </trkpt>
      <trkpt lat="47.66795" lon="-2.09154">
        <ele>47.934735</ele>
        <time>2022-12-14T16:08:29.343Z</time>
      </trkpt>
      <trkpt lat="47.66789" lon="-2.09168">
        <ele>47.990548</ele>
        <time>2022-12-14T16:08:32.360Z</time>
      </trkpt>
      <trkpt lat="47.66783" lon="-2.09182">
        <ele>48.042543</ele>
        <time>2022-12-14T16:08:35.369Z</time>
      </trkpt>
      <trkpt lat="47.66778" lon="-2.09195">
        <ele>48.093607</ele>
        <time>2022-12-14T16:08:38.348Z</time>
      </trkpt>
      <trkpt lat="47.66772" lon="-2.0921">
        <ele>48.15612</ele>
        <time>2022-12-14T16:08:41.358Z</time>
      </trkpt>
      <trkpt lat="47.66765" lon="-2.09225">
        <ele>48.216399</ele>
        <time>2022-12-14T16:08:44.370Z</time>
      </trkpt>
      <trkpt lat="47.66757" lon="-2.0924">
        <ele>48.279554</ele>
        <time>2022-12-14T16:08:47.343Z</time>
      </trkpt>
      <trkpt lat="47.66749" lon="-2.09256">
        <ele>48.346135</ele>
        <time>2022-12-14T16:08:50.351Z</time>
      </trkpt>
      <trkpt lat="47.66743" lon="-2.09267">
        <ele>48.394463</ele>
        <time>2022-12-14T16:08:52.348Z</time>
      </trkpt>
      <trkpt lat="47.66737" lon="-2.09277">
        <ele>48.440794</ele>
        <time>2022-12-14T16:08:54.352Z</time>
      </trkpt>
      <trkpt lat="47.66729" lon="-2.09293">
        <ele>48.504431</ele>
        <time>2022-12-14T16:08:57.362Z</time>
      </trkpt>
      <trkpt lat="47.66722" lon="-2.09307">
        <ele>48.565611</ele>
        <time>2022-12-14T16:09:00.363Z</time>
      </trkpt>
      <trkpt lat="47.66715" lon="-2.09323">
        <ele>48.63036</ele>
        <time>2022-12-14T16:09:03.358Z</time>
      </trkpt>
      <trkpt lat="47.66709" lon="-2.09334">
        <ele>48.676691</ele>
        <time>2022-12-14T16:09:05.353Z</time>
      </trkpt>
      <trkpt lat="47.66702" lon="-2.09349">
        <ele>48.696619</ele>
        <time>2022-12-14T16:09:08.342Z</time>
      </trkpt>
      <trkpt lat="47.66696" lon="-2.09362">
        <ele>48.644158</ele>
        <time>2022-12-14T16:09:11.360Z</time>
      </trkpt>
      <trkpt lat="47.6669" lon="-2.09374">
        <ele>48.595955</ele>
        <time>2022-12-14T16:09:14.363Z</time>
      </trkpt>
      <trkpt lat="47.66684" lon="-2.09386">
        <ele>48.545692</ele>
        <time>2022-12-14T16:09:17.356Z</time>
      </trkpt>
      <trkpt lat="47.66678" lon="-2.09397">
        <ele>48.496479</ele>
        <time>2022-12-14T16:09:20.368Z</time>
      </trkpt>
      <trkpt lat="47.66672" lon="-2.09412">
        <ele>48.438467</ele>
        <time>2022-12-14T16:09:23.357Z</time>
      </trkpt>
      <trkpt lat="47.66666" lon="-2.09425">
        <ele>48.386003</ele>
        <time>2022-12-14T16:09:26.366Z</time>
      </trkpt>
      <trkpt lat="47.66658" lon="-2.09439">
        <ele>48.326709</ele>
        <time>2022-12-14T16:09:29.350Z</time>
      </trkpt>
      <trkpt lat="47.6665" lon="-2.09453">
        <ele>48.266352</ele>
        <time>2022-12-14T16:09:32.348Z</time>
      </trkpt>
      <trkpt lat="47.66644" lon="-2.09466">
        <ele>48.210283</ele>
        <time>2022-12-14T16:09:35.342Z</time>
      </trkpt>
      <trkpt lat="47.66639" lon="-2.09478">
        <ele>48.162534</ele>
        <time>2022-12-14T16:09:38.363Z</time>
      </trkpt>
      <trkpt lat="47.66632" lon="-2.09492">
        <ele>48.105016</ele>
        <time>2022-12-14T16:09:41.365Z</time>
      </trkpt>
      <trkpt lat="47.66626" lon="-2.09505">
        <ele>48.052786</ele>
        <time>2022-12-14T16:09:44.339Z</time>
      </trkpt>
      <trkpt lat="47.66619" lon="-2.09521">
        <ele>47.988931</ele>
        <time>2022-12-14T16:09:47.350Z</time>
      </trkpt>
      <trkpt lat="47.66612" lon="-2.09536">
        <ele>47.92781</ele>
        <time>2022-12-14T16:09:50.353Z</time>
      </trkpt>
      <trkpt lat="47.66605" lon="-2.09551">
        <ele>47.866743</ele>
        <time>2022-12-14T16:09:53.339Z</time>
      </trkpt>
      <trkpt lat="47.66599" lon="-2.09565">
        <ele>47.80336</ele>
        <time>2022-12-14T16:09:56.357Z</time>
      </trkpt>
      <trkpt lat="47.66593" lon="-2.09579">
        <ele>47.708837</ele>
        <time>2022-12-14T16:09:59.358Z</time>
      </trkpt>
      <trkpt lat="47.66586" lon="-2.09592">
        <ele>47.619147</ele>
        <time>2022-12-14T16:10:02.335Z</time>
      </trkpt>
      <trkpt lat="47.66578" lon="-2.09605">
        <ele>47.52295</ele>
        <time>2022-12-14T16:10:06.361Z</time>
      </trkpt>
      <trkpt lat="47.66572" lon="-2.09618">
        <ele>47.436656</ele>
        <time>2022-12-14T16:10:10.417Z</time>
      </trkpt>
      <trkpt lat="47.66565" lon="-2.09632">
        <ele>47.337989</ele>
        <time>2022-12-14T16:10:14.339Z</time>
      </trkpt>
      <trkpt lat="47.6656" lon="-2.09645">
        <ele>47.257114</ele>
        <time>2022-12-14T16:10:17.343Z</time>
      </trkpt>
      <trkpt lat="47.66552" lon="-2.09659">
        <ele>47.159984</ele>
        <time>2022-12-14T16:10:20.340Z</time>
      </trkpt>
      <trkpt lat="47.66544" lon="-2.09673">
        <ele>47.058318</ele>
        <time>2022-12-14T16:10:23.333Z</time>
      </trkpt>
      <trkpt lat="47.66537" lon="-2.09687">
        <ele>46.962641</ele>
        <time>2022-12-14T16:10:26.403Z</time>
      </trkpt>
      <trkpt lat="47.6653" lon="-2.09702">
        <ele>46.859903</ele>
        <time>2022-12-14T16:10:29.365Z</time>
      </trkpt>
      <trkpt lat="47.66524" lon="-2.09715">
        <ele>46.771365</ele>
        <time>2022-12-14T16:10:32.329Z</time>
      </trkpt>
      <trkpt lat="47.66517" lon="-2.09727">
        <ele>46.684139</ele>
        <time>2022-12-14T16:10:35.330Z</time>
      </trkpt>
      <trkpt lat="47.6651" lon="-2.09738">
        <ele>46.60343</ele>
        <time>2022-12-14T16:10:38.340Z</time>
      </trkpt>
      <trkpt lat="47.66502" lon="-2.09751">
        <ele>46.506801</ele>
        <time>2022-12-14T16:10:42.342Z</time>
      </trkpt>
      <trkpt lat="47.66494" lon="-2.09763">
        <ele>46.416064</ele>
        <time>2022-12-14T16:10:45.344Z</time>
      </trkpt>
      <trkpt lat="47.66486" lon="-2.09775">
        <ele>46.391423</ele>
        <time>2022-12-14T16:10:48.365Z</time>
      </trkpt>
      <trkpt lat="47.66477" lon="-2.09788">
        <ele>46.493322</ele>
        <time>2022-12-14T16:10:51.349Z</time>
      </trkpt>
      <trkpt lat="47.66466" lon="-2.09798">
        <ele>46.597303</ele>
        <time>2022-12-14T16:10:54.362Z</time>
      </trkpt>
      <trkpt lat="47.66455" lon="-2.09806">
        <ele>46.702242</ele>
        <time>2022-12-14T16:10:57.339Z</time>
      </trkpt>
      <trkpt lat="47.66443" lon="-2.09813">
        <ele>46.810352</ele>
        <time>2022-12-14T16:11:00.355Z</time>
      </trkpt>
      <trkpt lat="47.66431" lon="-2.0982">
        <ele>46.91739</ele>
        <time>2022-12-14T16:11:03.415Z</time>
      </trkpt>
      <trkpt lat="47.6642" lon="-2.09827">
        <ele>47.016328</ele>
        <time>2022-12-14T16:11:06.367Z</time>
      </trkpt>
      <trkpt lat="47.6641" lon="-2.09833">
        <ele>47.106439</ele>
        <time>2022-12-14T16:11:09.349Z</time>
      </trkpt>
      <trkpt lat="47.66399" lon="-2.0984">
        <ele>47.205932</ele>
        <time>2022-12-14T16:11:12.363Z</time>
      </trkpt>
      <trkpt lat="47.6639" lon="-2.09845">
        <ele>47.285922</ele>
        <time>2022-12-14T16:11:14.361Z</time>
      </trkpt>
      <trkpt lat="47.66381" lon="-2.0985">
        <ele>47.363385</ele>
        <time>2022-12-14T16:11:16.355Z</time>
      </trkpt>
      <trkpt lat="47.6637" lon="-2.09857">
        <ele>47.468126</ele>
        <time>2022-12-14T16:11:19.373Z</time>
      </trkpt>
      <trkpt lat="47.66359" lon="-2.09862">
        <ele>47.562401</ele>
        <time>2022-12-14T16:11:22.363Z</time>
      </trkpt>
      <trkpt lat="47.66349" lon="-2.09868">
        <ele>47.644723</ele>
        <time>2022-12-14T16:11:25.365Z</time>
      </trkpt>
      <trkpt lat="47.6634" lon="-2.09873">
        <ele>47.726266</ele>
        <time>2022-12-14T16:11:28.347Z</time>
      </trkpt>
      <trkpt lat="47.6633" lon="-2.0988">
        <ele>47.819807</ele>
        <time>2022-12-14T16:11:31.351Z</time>
      </trkpt>
      <trkpt lat="47.6632" lon="-2.09885">
        <ele>47.701342</ele>
        <time>2022-12-14T16:11:34.355Z</time>
      </trkpt>
      <trkpt lat="47.66311" lon="-2.09889">
        <ele>47.511241</ele>
        <time>2022-12-14T16:11:37.338Z</time>
      </trkpt>
      <trkpt lat="47.66301" lon="-2.09895">
        <ele>47.275009</ele>
        <time>2022-12-14T16:11:41.408Z</time>
      </trkpt>
      <trkpt lat="47.66291" lon="-2.099">
        <ele>47.059027</ele>
        <time>2022-12-14T16:11:45.350Z</time>
      </trkpt>
      <trkpt lat="47.66282" lon="-2.09906">
        <ele>46.851553</ele>
        <time>2022-12-14T16:11:48.339Z</time>
      </trkpt>
      <trkpt lat="47.66273" lon="-2.09913">
        <ele>46.654719</ele>
        <time>2022-12-14T16:11:51.367Z</time>
      </trkpt>
      <trkpt lat="47.66265" lon="-2.09921">
        <ele>46.442072</ele>
        <time>2022-12-14T16:11:55.362Z</time>
      </trkpt>
      <trkpt lat="47.66255" lon="-2.09927">
        <ele>46.226597</ele>
        <time>2022-12-14T16:11:59.346Z</time>
      </trkpt>
      <trkpt lat="47.66246" lon="-2.09933">
        <ele>46.018903</ele>
        <time>2022-12-14T16:12:02.377Z</time>
      </trkpt>
      <trkpt lat="47.66235" lon="-2.09939">
        <ele>45.779194</ele>
        <time>2022-12-14T16:12:05.359Z</time>
      </trkpt>
      <trkpt lat="47.66224" lon="-2.09946">
        <ele>45.533692</ele>
        <time>2022-12-14T16:12:08.338Z</time>
      </trkpt>
      <trkpt lat="47.66212" lon="-2.09953">
        <ele>45.253009</ele>
        <time>2022-12-14T16:12:11.365Z</time>
      </trkpt>
      <trkpt lat="47.662" lon="-2.09961">
        <ele>44.981913</ele>
        <time>2022-12-14T16:12:14.377Z</time>
      </trkpt>
      <trkpt lat="47.66192" lon="-2.09966">
        <ele>44.791703</ele>
        <time>2022-12-14T16:12:16.340Z</time>
      </trkpt>
      <trkpt lat="47.66183" lon="-2.09972">
        <ele>44.594368</ele>
        <time>2022-12-14T16:12:18.333Z</time>
      </trkpt>
      <trkpt lat="47.6617" lon="-2.09979">
        <ele>44.312802</ele>
        <time>2022-12-14T16:12:21.366Z</time>
      </trkpt>
      <trkpt lat="47.66159" lon="-2.09987">
        <ele>44.139707</ele>
        <time>2022-12-14T16:12:24.347Z</time>
      </trkpt>
      <trkpt lat="47.66149" lon="-2.09993">
        <ele>44.275433</ele>
        <time>2022-12-14T16:12:27.362Z</time>
      </trkpt>
      <trkpt lat="47.66138" lon="-2.09999">
        <ele>44.428077</ele>
        <time>2022-12-14T16:12:30.359Z</time>
      </trkpt>
      <trkpt lat="47.66127" lon="-2.10005">
        <ele>44.575562</ele>
        <time>2022-12-14T16:12:33.345Z</time>
      </trkpt>
      <trkpt lat="47.66115" lon="-2.10011">
        <ele>44.733359</ele>
        <time>2022-12-14T16:12:36.343Z</time>
      </trkpt>
      <trkpt lat="47.66102" lon="-2.10015">
        <ele>44.892642</ele>
        <time>2022-12-14T16:12:39.354Z</time>
      </trkpt>
      <trkpt lat="47.66093" lon="-2.10018">
        <ele>45.011491</ele>
        <time>2022-12-14T16:12:41.351Z</time>
      </trkpt>
      <trkpt lat="47.66084" lon="-2.10021">
        <ele>45.130174</ele>
        <time>2022-12-14T16:12:43.336Z</time>
      </trkpt>
      <trkpt lat="47.66075" lon="-2.10024">
        <ele>45.246742</ele>
        <time>2022-12-14T16:12:45.358Z</time>
      </trkpt>
      <trkpt lat="47.66066" lon="-2.10027">
        <ele>45.360017</ele>
        <time>2022-12-14T16:12:47.344Z</time>
      </trkpt>
      <trkpt lat="47.66057" lon="-2.1003">
        <ele>45.481393</ele>
        <time>2022-12-14T16:12:49.339Z</time>
      </trkpt>
      <trkpt lat="47.66044" lon="-2.10034">
        <ele>45.645485</ele>
        <time>2022-12-14T16:12:52.359Z</time>
      </trkpt>
      <trkpt lat="47.66035" lon="-2.10036">
        <ele>45.760699</ele>
        <time>2022-12-14T16:12:54.375Z</time>
      </trkpt>
      <trkpt lat="47.66025" lon="-2.10037">
        <ele>45.876233</ele>
        <time>2022-12-14T16:12:56.363Z</time>
      </trkpt>
      <trkpt lat="47.66013" lon="-2.10041">
        <ele>46.037128</ele>
        <time>2022-12-14T16:12:59.338Z</time>
      </trkpt>
      <trkpt lat="47.66001" lon="-2.10045">
        <ele>46.187312</ele>
        <time>2022-12-14T16:13:02.368Z</time>
      </trkpt>
      <trkpt lat="47.6599" lon="-2.10049">
        <ele>46.327166</ele>
        <time>2022-12-14T16:13:05.332Z</time>
      </trkpt>
      <trkpt lat="47.65978" lon="-2.10051">
        <ele>46.60876</ele>
        <time>2022-12-14T16:13:08.361Z</time>
      </trkpt>
      <trkpt lat="47.65966" lon="-2.10055">
        <ele>46.918293</ele>
        <time>2022-12-14T16:13:11.352Z</time>
      </trkpt>
      <trkpt lat="47.65953" lon="-2.10058">
        <ele>47.240291</ele>
        <time>2022-12-14T16:13:14.336Z</time>
      </trkpt>
      <trkpt lat="47.65941" lon="-2.10062">
        <ele>47.553138</ele>
        <time>2022-12-14T16:13:17.351Z</time>
      </trkpt>
      <trkpt lat="47.65932" lon="-2.10065">
        <ele>47.785608</ele>
        <time>2022-12-14T16:13:19.354Z</time>
      </trkpt>
      <trkpt lat="47.6592" lon="-2.10069">
        <ele>48.100771</ele>
        <time>2022-12-14T16:13:22.410Z</time>
      </trkpt>
      <trkpt lat="47.65909" lon="-2.10073">
        <ele>48.399294</ele>
        <time>2022-12-14T16:13:25.351Z</time>
      </trkpt>
      <trkpt lat="47.65898" lon="-2.10076">
        <ele>48.691513</ele>
        <time>2022-12-14T16:13:28.373Z</time>
      </trkpt>
      <trkpt lat="47.65886" lon="-2.10079">
        <ele>49.002837</ele>
        <time>2022-12-14T16:13:31.337Z</time>
      </trkpt>
      <trkpt lat="47.65873" lon="-2.10083">
        <ele>49.339769</ele>
        <time>2022-12-14T16:13:34.343Z</time>
      </trkpt>
      <trkpt lat="47.65864" lon="-2.10086">
        <ele>49.576451</ele>
        <time>2022-12-14T16:13:36.345Z</time>
      </trkpt>
      <trkpt lat="47.65855" lon="-2.10088">
        <ele>49.806178</ele>
        <time>2022-12-14T16:13:38.355Z</time>
      </trkpt>
      <trkpt lat="47.65845" lon="-2.10091">
        <ele>50.049649</ele>
        <time>2022-12-14T16:13:40.362Z</time>
      </trkpt>
      <trkpt lat="47.65833" lon="-2.10094">
        <ele>50.357186</ele>
        <time>2022-12-14T16:13:43.336Z</time>
      </trkpt>
      <trkpt lat="47.65822" lon="-2.10098">
        <ele>50.655469</ele>
        <time>2022-12-14T16:13:46.357Z</time>
      </trkpt>
      <trkpt lat="47.6581" lon="-2.10102">
        <ele>50.92571</ele>
        <time>2022-12-14T16:13:49.376Z</time>
      </trkpt>
      <trkpt lat="47.65797" lon="-2.10106">
        <ele>50.775748</ele>
        <time>2022-12-14T16:13:52.364Z</time>
      </trkpt>
      <trkpt lat="47.65784" lon="-2.1011">
        <ele>50.623727</ele>
        <time>2022-12-14T16:13:55.337Z</time>
      </trkpt>
      <trkpt lat="47.65771" lon="-2.10114">
        <ele>50.474538</ele>
        <time>2022-12-14T16:13:58.373Z</time>
      </trkpt>
      <trkpt lat="47.65761" lon="-2.10116">
        <ele>50.360634</ele>
        <time>2022-12-14T16:14:00.366Z</time>
      </trkpt>
      <trkpt lat="47.65751" lon="-2.10119">
        <ele>50.237518</ele>
        <time>2022-12-14T16:14:02.369Z</time>
      </trkpt>
      <trkpt lat="47.65738" lon="-2.10123">
        <ele>50.086918</ele>
        <time>2022-12-14T16:14:05.408Z</time>
      </trkpt>
      <trkpt lat="47.65725" lon="-2.10126">
        <ele>49.945253</ele>
        <time>2022-12-14T16:14:08.349Z</time>
      </trkpt>
      <trkpt lat="47.65714" lon="-2.1013">
        <ele>49.810365</ele>
        <time>2022-12-14T16:14:11.341Z</time>
      </trkpt>
      <trkpt lat="47.65703" lon="-2.10133">
        <ele>49.685785</ele>
        <time>2022-12-14T16:14:14.346Z</time>
      </trkpt>
      <trkpt lat="47.65693" lon="-2.10135">
        <ele>49.576832</ele>
        <time>2022-12-14T16:14:17.366Z</time>
      </trkpt>
      <trkpt lat="47.65682" lon="-2.10138">
        <ele>49.445747</ele>
        <time>2022-12-14T16:14:20.365Z</time>
      </trkpt>
      <trkpt lat="47.65671" lon="-2.10142">
        <ele>49.311628</ele>
        <time>2022-12-14T16:14:23.341Z</time>
      </trkpt>
      <trkpt lat="47.65659" lon="-2.10146">
        <ele>49.179719</ele>
        <time>2022-12-14T16:14:26.360Z</time>
      </trkpt>
      <trkpt lat="47.65647" lon="-2.1015">
        <ele>49.033248</ele>
        <time>2022-12-14T16:14:29.350Z</time>
      </trkpt>
      <trkpt lat="47.65634" lon="-2.10154">
        <ele>48.892317</ele>
        <time>2022-12-14T16:14:32.370Z</time>
      </trkpt>
      <trkpt lat="47.65624" lon="-2.10158">
        <ele>48.863039</ele>
        <time>2022-12-14T16:14:34.340Z</time>
      </trkpt>
      <trkpt lat="47.65613" lon="-2.10161">
        <ele>48.826806</ele>
        <time>2022-12-14T16:14:37.363Z</time>
      </trkpt>
      <trkpt lat="47.65602" lon="-2.10163">
        <ele>48.79509</ele>
        <time>2022-12-14T16:14:40.352Z</time>
      </trkpt>
      <trkpt lat="47.65593" lon="-2.10165">
        <ele>48.766514</ele>
        <time>2022-12-14T16:14:43.334Z</time>
      </trkpt>
      <trkpt lat="47.65584" lon="-2.10167">
        <ele>48.739279</ele>
        <time>2022-12-14T16:14:46.354Z</time>
      </trkpt>
      <trkpt lat="47.65574" lon="-2.10166">
        <ele>48.709166</ele>
        <time>2022-12-14T16:14:50.344Z</time>
      </trkpt>
      <trkpt lat="47.65565" lon="-2.10158">
        <ele>48.680311</ele>
        <time>2022-12-14T16:14:54.359Z</time>
      </trkpt>
      <trkpt lat="47.65557" lon="-2.10153">
        <ele>48.653121</ele>
        <time>2022-12-14T16:14:58.342Z</time>
      </trkpt>
      <trkpt lat="47.65548" lon="-2.10152">
        <ele>48.624572</ele>
        <time>2022-12-14T16:15:02.337Z</time>
      </trkpt>
      <trkpt lat="47.65538" lon="-2.10159">
        <ele>48.593678</ele>
        <time>2022-12-14T16:15:08.335Z</time>
      </trkpt>
      <trkpt lat="47.65531" lon="-2.10168">
        <ele>48.564449</ele>
        <time>2022-12-14T16:15:11.356Z</time>
      </trkpt>
      <trkpt lat="47.65521" lon="-2.1017">
        <ele>48.534218</ele>
        <time>2022-12-14T16:15:14.366Z</time>
      </trkpt>
      <trkpt lat="47.65511" lon="-2.1017">
        <ele>48.504551</ele>
        <time>2022-12-14T16:15:17.363Z</time>
      </trkpt>
      <trkpt lat="47.65501" lon="-2.10168">
        <ele>48.475608</ele>
        <time>2022-12-14T16:15:20.336Z</time>
      </trkpt>
      <trkpt lat="47.65489" lon="-2.10167">
        <ele>48.43923</ele>
        <time>2022-12-14T16:15:23.341Z</time>
      </trkpt>
      <trkpt lat="47.65477" lon="-2.10166">
        <ele>48.402078</ele>
        <time>2022-12-14T16:15:26.366Z</time>
      </trkpt>
      <trkpt lat="47.65466" lon="-2.10169">
        <ele>48.368527</ele>
        <time>2022-12-14T16:15:29.363Z</time>
      </trkpt>
      <trkpt lat="47.65456" lon="-2.10165">
        <ele>48.31345</ele>
        <time>2022-12-14T16:15:32.354Z</time>
      </trkpt>
      <trkpt lat="47.65447" lon="-2.10159">
        <ele>48.244726</ele>
        <time>2022-12-14T16:15:35.371Z</time>
      </trkpt>
      <trkpt lat="47.65438" lon="-2.10151">
        <ele>48.172159</ele>
        <time>2022-12-14T16:15:38.368Z</time>
      </trkpt>
      <trkpt lat="47.6543" lon="-2.10144">
        <ele>48.107563</ele>
        <time>2022-12-14T16:15:41.369Z</time>
      </trkpt>
      <trkpt lat="47.65421" lon="-2.10136">
        <ele>48.028313</ele>
        <time>2022-12-14T16:15:44.346Z</time>
      </trkpt>
      <trkpt lat="47.6541" lon="-2.10127">
        <ele>47.941301</ele>
        <time>2022-12-14T16:15:47.352Z</time>
      </trkpt>
      <trkpt lat="47.65399" lon="-2.10119">
        <ele>47.850729</ele>
        <time>2022-12-14T16:15:50.361Z</time>
      </trkpt>
      <trkpt lat="47.65388" lon="-2.10111">
        <ele>47.769915</ele>
        <time>2022-12-14T16:15:53.362Z</time>
      </trkpt>
      <trkpt lat="47.65379" lon="-2.10104">
        <ele>47.694313</ele>
        <time>2022-12-14T16:15:56.335Z</time>
      </trkpt>
      <trkpt lat="47.6537" lon="-2.10095">
        <ele>47.615919</ele>
        <time>2022-12-14T16:15:59.359Z</time>
      </trkpt>
      <trkpt lat="47.65361" lon="-2.10085">
        <ele>47.536936</ele>
        <time>2022-12-14T16:16:02.364Z</time>
      </trkpt>
      <trkpt lat="47.65352" lon="-2.10076">
        <ele>47.460794</ele>
        <time>2022-12-14T16:16:05.349Z</time>
      </trkpt>
      <trkpt lat="47.65344" lon="-2.10067">
        <ele>47.388007</ele>
        <time>2022-12-14T16:16:08.339Z</time>
      </trkpt>
      <trkpt lat="47.65336" lon="-2.10054">
        <ele>47.305742</ele>
        <time>2022-12-14T16:16:11.355Z</time>
      </trkpt>
      <trkpt lat="47.65327" lon="-2.10042">
        <ele>47.220445</ele>
        <time>2022-12-14T16:16:14.366Z</time>
      </trkpt>
      <trkpt lat="47.6532" lon="-2.10031">
        <ele>47.147104</ele>
        <time>2022-12-14T16:16:17.345Z</time>
      </trkpt>
      <trkpt lat="47.65312" lon="-2.10019">
        <ele>47.07569</ele>
        <time>2022-12-14T16:16:20.338Z</time>
      </trkpt>
      <trkpt lat="47.65305" lon="-2.10006">
        <ele>47.051354</ele>
        <time>2022-12-14T16:16:23.337Z</time>
      </trkpt>
      <trkpt lat="47.65297" lon="-2.09992">
        <ele>47.026699</ele>
        <time>2022-12-14T16:16:26.349Z</time>
      </trkpt>
      <trkpt lat="47.6529" lon="-2.09978">
        <ele>47.002421</ele>
        <time>2022-12-14T16:16:29.338Z</time>
      </trkpt>
      <trkpt lat="47.65282" lon="-2.09965">
        <ele>46.977622</ele>
        <time>2022-12-14T16:16:32.354Z</time>
      </trkpt>
      <trkpt lat="47.65276" lon="-2.0995">
        <ele>46.953125</ele>
        <time>2022-12-14T16:16:35.354Z</time>
      </trkpt>
      <trkpt lat="47.65269" lon="-2.09936">
        <ele>46.929314</ele>
        <time>2022-12-14T16:16:38.340Z</time>
      </trkpt>
      <trkpt lat="47.65263" lon="-2.09922">
        <ele>46.905045</ele>
        <time>2022-12-14T16:16:41.364Z</time>
      </trkpt>
      <trkpt lat="47.65256" lon="-2.09907">
        <ele>46.880545</ele>
        <time>2022-12-14T16:16:44.342Z</time>
      </trkpt>
      <trkpt lat="47.65251" lon="-2.09895">
        <ele>46.860436</ele>
        <time>2022-12-14T16:16:47.351Z</time>
      </trkpt>
      <trkpt lat="47.65246" lon="-2.09881">
        <ele>46.838079</ele>
        <time>2022-12-14T16:16:50.339Z</time>
      </trkpt>
      <trkpt lat="47.65241" lon="-2.09866">
        <ele>46.815278</ele>
        <time>2022-12-14T16:16:53.338Z</time>
      </trkpt>
      <trkpt lat="47.65236" lon="-2.09851">
        <ele>46.791399</ele>
        <time>2022-12-14T16:16:56.368Z</time>
      </trkpt>
      <trkpt lat="47.65231" lon="-2.09835">
        <ele>46.766256</ele>
        <time>2022-12-14T16:16:59.360Z</time>
      </trkpt>
      <trkpt lat="47.65226" lon="-2.09819">
        <ele>46.741313</ele>
        <time>2022-12-14T16:17:02.356Z</time>
      </trkpt>
      <trkpt lat="47.65222" lon="-2.09806">
        <ele>46.721942</ele>
        <time>2022-12-14T16:17:05.346Z</time>
      </trkpt>
      <trkpt lat="47.65217" lon="-2.09791">
        <ele>46.721454</ele>
        <time>2022-12-14T16:17:08.339Z</time>
      </trkpt>
      <trkpt lat="47.65212" lon="-2.09776">
        <ele>46.781197</ele>
        <time>2022-12-14T16:17:11.366Z</time>
      </trkpt>
      <trkpt lat="47.65207" lon="-2.09761">
        <ele>46.843687</ele>
        <time>2022-12-14T16:17:14.363Z</time>
      </trkpt>
      <trkpt lat="47.65203" lon="-2.09745">
        <ele>46.906934</ele>
        <time>2022-12-14T16:17:17.363Z</time>
      </trkpt>
      <trkpt lat="47.65198" lon="-2.0973">
        <ele>46.966234</ele>
        <time>2022-12-14T16:17:20.359Z</time>
      </trkpt>
      <trkpt lat="47.65194" lon="-2.09715">
        <ele>47.024537</ele>
        <time>2022-12-14T16:17:23.355Z</time>
      </trkpt>
      <trkpt lat="47.65189" lon="-2.09699">
        <ele>47.086255</ele>
        <time>2022-12-14T16:17:26.341Z</time>
      </trkpt>
      <trkpt lat="47.65185" lon="-2.09684">
        <ele>47.147764</ele>
        <time>2022-12-14T16:17:29.360Z</time>
      </trkpt>
      <trkpt lat="47.65179" lon="-2.09667">
        <ele>47.214839</ele>
        <time>2022-12-14T16:17:32.369Z</time>
      </trkpt>
      <trkpt lat="47.65173" lon="-2.0965">
        <ele>47.282966</ele>
        <time>2022-12-14T16:17:35.369Z</time>
      </trkpt>
      <trkpt lat="47.65168" lon="-2.09634">
        <ele>47.347649</ele>
        <time>2022-12-14T16:17:38.358Z</time>
      </trkpt>
      <trkpt lat="47.65163" lon="-2.09618">
        <ele>47.411737</ele>
        <time>2022-12-14T16:17:41.366Z</time>
      </trkpt>
      <trkpt lat="47.65158" lon="-2.09603">
        <ele>47.472013</ele>
        <time>2022-12-14T16:17:44.361Z</time>
      </trkpt>
      <trkpt lat="47.65153" lon="-2.09587">
        <ele>47.537483</ele>
        <time>2022-12-14T16:17:47.396Z</time>
      </trkpt>
      <trkpt lat="47.65148" lon="-2.0957">
        <ele>47.605349</ele>
        <time>2022-12-14T16:17:50.337Z</time>
      </trkpt>
      <trkpt lat="47.65142" lon="-2.09553">
        <ele>47.671719</ele>
        <time>2022-12-14T16:17:53.336Z</time>
      </trkpt>
      <trkpt lat="47.65137" lon="-2.09536">
        <ele>47.687773</ele>
        <time>2022-12-14T16:17:56.340Z</time>
      </trkpt>
      <trkpt lat="47.65132" lon="-2.09519">
        <ele>47.703685</ele>
        <time>2022-12-14T16:17:59.355Z</time>
      </trkpt>
      <trkpt lat="47.65127" lon="-2.09503">
        <ele>47.717839</ele>
        <time>2022-12-14T16:18:02.344Z</time>
      </trkpt>
      <trkpt lat="47.65123" lon="-2.0949">
        <ele>47.730578</ele>
        <time>2022-12-14T16:18:05.333Z</time>
      </trkpt>
      <trkpt lat="47.65117" lon="-2.09474">
        <ele>47.745343</ele>
        <time>2022-12-14T16:18:08.363Z</time>
      </trkpt>
      <trkpt lat="47.65112" lon="-2.09459">
        <ele>47.760478</ele>
        <time>2022-12-14T16:18:11.360Z</time>
      </trkpt>
      <trkpt lat="47.65106" lon="-2.09442">
        <ele>47.776153</ele>
        <time>2022-12-14T16:18:14.343Z</time>
      </trkpt>
      <trkpt lat="47.651" lon="-2.09426">
        <ele>47.792188</ele>
        <time>2022-12-14T16:18:17.356Z</time>
      </trkpt>
      <trkpt lat="47.65095" lon="-2.09411">
        <ele>47.806593</ele>
        <time>2022-12-14T16:18:20.367Z</time>
      </trkpt>
      <trkpt lat="47.65091" lon="-2.09394">
        <ele>47.821258</ele>
        <time>2022-12-14T16:18:23.350Z</time>
      </trkpt>
      <trkpt lat="47.65087" lon="-2.09379">
        <ele>47.835268</ele>
        <time>2022-12-14T16:18:26.347Z</time>
      </trkpt>
      <trkpt lat="47.65082" lon="-2.09364">
        <ele>47.849582</ele>
        <time>2022-12-14T16:18:29.359Z</time>
      </trkpt>
      <trkpt lat="47.65077" lon="-2.0935">
        <ele>47.862281</ele>
        <time>2022-12-14T16:18:32.373Z</time>
      </trkpt>
      <trkpt lat="47.65073" lon="-2.09337">
        <ele>47.874575</ele>
        <time>2022-12-14T16:18:35.348Z</time>
      </trkpt>
      <trkpt lat="47.65069" lon="-2.09322">
        <ele>47.888528</ele>
        <time>2022-12-14T16:18:38.338Z</time>
      </trkpt>
      <trkpt lat="47.65064" lon="-2.09308">
        <ele>47.910784</ele>
        <time>2022-12-14T16:18:41.343Z</time>
      </trkpt>
      <trkpt lat="47.65058" lon="-2.09291">
        <ele>47.953961</ele>
        <time>2022-12-14T16:18:44.365Z</time>
      </trkpt>
      <trkpt lat="47.65053" lon="-2.09276">
        <ele>47.995937</ele>
        <time>2022-12-14T16:18:47.363Z</time>
      </trkpt>
      <trkpt lat="47.65048" lon="-2.09258">
        <ele>48.040059</ele>
        <time>2022-12-14T16:18:50.348Z</time>
      </trkpt>
      <trkpt lat="47.65043" lon="-2.09241">
        <ele>48.084368</ele>
        <time>2022-12-14T16:18:53.356Z</time>
      </trkpt>
      <trkpt lat="47.65038" lon="-2.09223">
        <ele>48.129826</ele>
        <time>2022-12-14T16:18:56.365Z</time>
      </trkpt>
      <trkpt lat="47.65033" lon="-2.09207">
        <ele>48.172698</ele>
        <time>2022-12-14T16:18:59.343Z</time>
      </trkpt>
      <trkpt lat="47.65027" lon="-2.0919">
        <ele>48.217257</ele>
        <time>2022-12-14T16:19:02.341Z</time>
      </trkpt>
      <trkpt lat="47.65021" lon="-2.09173">
        <ele>48.262869</ele>
        <time>2022-12-14T16:19:05.342Z</time>
      </trkpt>
      <trkpt lat="47.65016" lon="-2.09157">
        <ele>48.303731</ele>
        <time>2022-12-14T16:19:08.364Z</time>
      </trkpt>
      <trkpt lat="47.65011" lon="-2.09143">
        <ele>48.342005</ele>
        <time>2022-12-14T16:19:11.374Z</time>
      </trkpt>
      <trkpt lat="47.65007" lon="-2.09128">
        <ele>48.38106</ele>
        <time>2022-12-14T16:19:14.370Z</time>
      </trkpt>
      <trkpt lat="47.65002" lon="-2.09113">
        <ele>48.420619</ele>
        <time>2022-12-14T16:19:17.334Z</time>
      </trkpt>
      <trkpt lat="47.64997" lon="-2.09096">
        <ele>48.464376</ele>
        <time>2022-12-14T16:19:20.338Z</time>
      </trkpt>
      <trkpt lat="47.64991" lon="-2.09078">
        <ele>48.509904</ele>
        <time>2022-12-14T16:19:23.339Z</time>
      </trkpt>
      <trkpt lat="47.64986" lon="-2.09062">
        <ele>48.529477</ele>
        <time>2022-12-14T16:19:26.368Z</time>
      </trkpt>
      <trkpt lat="47.64983" lon="-2.09048">
        <ele>48.529477</ele>
        <time>2022-12-14T16:19:29.369Z</time>
      </trkpt>
      <trkpt lat="47.64977" lon="-2.09032">
        <ele>48.529477</ele>
        <time>2022-12-14T16:19:33.369Z</time>
      </trkpt>
      <trkpt lat="47.64973" lon="-2.09019">
        <ele>48.529477</ele>
        <time>2022-12-14T16:19:36.362Z</time>
      </trkpt>
      <trkpt lat="47.64969" lon="-2.09006">
        <ele>48.529477</ele>
        <time>2022-12-14T16:19:39.362Z</time>
      </trkpt>
      <trkpt lat="47.64965" lon="-2.08991">
        <ele>48.529477</ele>
        <time>2022-12-14T16:19:42.375Z</time>
      </trkpt>
      <trkpt lat="47.6496" lon="-2.08978">
        <ele>48.529477</ele>
        <time>2022-12-14T16:19:45.342Z</time>
      </trkpt>
      <trkpt lat="47.64956" lon="-2.08965">
        <ele>48.529477</ele>
        <time>2022-12-14T16:19:48.386Z</time>
      </trkpt>
      <trkpt lat="47.64952" lon="-2.08951">
        <ele>48.529477</ele>
        <time>2022-12-14T16:19:52.361Z</time>
      </trkpt>
      <trkpt lat="47.64948" lon="-2.08938">
        <ele>48.529477</ele>
        <time>2022-12-14T16:19:55.352Z</time>
      </trkpt>
      <trkpt lat="47.64943" lon="-2.08924">
        <ele>48.529477</ele>
        <time>2022-12-14T16:19:58.342Z</time>
      </trkpt>
      <trkpt lat="47.64938" lon="-2.0891">
        <ele>48.529477</ele>
        <time>2022-12-14T16:20:01.364Z</time>
      </trkpt>
      <trkpt lat="47.64934" lon="-2.08897">
        <ele>48.529477</ele>
        <time>2022-12-14T16:20:04.359Z</time>
      </trkpt>
      <trkpt lat="47.64928" lon="-2.08881">
        <ele>48.529477</ele>
        <time>2022-12-14T16:20:08.342Z</time>
      </trkpt>
      <trkpt lat="47.64924" lon="-2.08865">
        <ele>48.529477</ele>
        <time>2022-12-14T16:20:12.362Z</time>
      </trkpt>
      <trkpt lat="47.64919" lon="-2.08851">
        <ele>48.529477</ele>
        <time>2022-12-14T16:20:16.410Z</time>
      </trkpt>
      <trkpt lat="47.64915" lon="-2.08838">
        <ele>48.529477</ele>
        <time>2022-12-14T16:20:19.357Z</time>
      </trkpt>
      <trkpt lat="47.64909" lon="-2.08824">
        <ele>48.529477</ele>
        <time>2022-12-14T16:20:23.368Z</time>
      </trkpt>
      <trkpt lat="47.64905" lon="-2.0881">
        <ele>48.529477</ele>
        <time>2022-12-14T16:20:27.375Z</time>
      </trkpt>
      <trkpt lat="47.64903" lon="-2.08803">
        <ele>48.529477</ele>
        <time>2022-12-14T16:21:23.947Z</time>
        <extensions>
          <visugpx:TrkExtension xmlns:visugpx="https://www.visugpx.com/editgpx/">
            <visugpx:node>1</visugpx:node>
            </visugpx:TrkExtension>
        </extensions>
      </trkpt>
    </trkseg>
  </trk>
  <trk>
    <name><![CDATA[Redon - Nort sur Erdre]]></name>
    <extensions>
      <line xmlns="http://www.topografix.com/GPX/gpx_style/0/2">
        <color>0000ff</color>
        <width>4</width>
      </line>
    </extensions>
    <trkseg>
      <trkpt lat="47.67596" lon="-2.09305">
        <ele>49.614326</ele>
        <time>2022-12-15T10:59:38.341Z</time>
      </trkpt>
      <trkpt lat="47.67588" lon="-2.09295">
        <ele>49.614326</ele>
        <time>2022-12-15T11:02:11.552Z</time>
      </trkpt>
      <trkpt lat="47.6758" lon="-2.09285">
        <ele>49.614326</ele>
        <time>2022-12-15T11:02:17.545Z</time>
      </trkpt>
      <trkpt lat="47.67572" lon="-2.09276">
        <ele>49.614326</ele>
        <time>2022-12-15T11:02:21.557Z</time>
      </trkpt>
      <trkpt lat="47.67563" lon="-2.09264">
        <ele>49.614326</ele>
        <time>2022-12-15T11:02:25.554Z</time>
      </trkpt>
      <trkpt lat="47.67555" lon="-2.09257">
        <ele>49.614326</ele>
        <time>2022-12-15T11:02:28.561Z</time>
      </trkpt>
      <trkpt lat="47.67546" lon="-2.09246">
        <ele>49.614326</ele>
        <time>2022-12-15T11:02:32.565Z</time>
      </trkpt>
      <trkpt lat="47.67538" lon="-2.09236">
        <ele>49.614326</ele>
        <time>2022-12-15T11:02:36.557Z</time>
      </trkpt>
      <trkpt lat="47.6753" lon="-2.09228">
        <ele>49.614326</ele>
        <time>2022-12-15T11:02:39.556Z</time>
      </trkpt>
      <trkpt lat="47.67522" lon="-2.0922">
        <ele>49.554627</ele>
        <time>2022-12-15T11:02:42.557Z</time>
      </trkpt>
      <trkpt lat="47.67514" lon="-2.09211">
        <ele>49.369918</ele>
        <time>2022-12-15T11:02:45.552Z</time>
      </trkpt>
      <trkpt lat="47.67506" lon="-2.09202">
        <ele>49.181461</ele>
        <time>2022-12-15T11:02:48.562Z</time>
      </trkpt>
      <trkpt lat="47.67498" lon="-2.09194">
        <ele>49.001983</ele>
        <time>2022-12-15T11:02:51.559Z</time>
      </trkpt>
      <trkpt lat="47.67489" lon="-2.09183">
        <ele>48.791207</ele>
        <time>2022-12-15T11:02:54.563Z</time>
      </trkpt>
      <trkpt lat="47.67481" lon="-2.09174">
        <ele>48.599741</ele>
        <time>2022-12-15T11:02:57.555Z</time>
      </trkpt>
      <trkpt lat="47.67472" lon="-2.09164">
        <ele>48.391957</ele>
        <time>2022-12-15T11:03:00.573Z</time>
      </trkpt>
      <trkpt lat="47.67464" lon="-2.09155">
        <ele>48.199081</ele>
        <time>2022-12-15T11:03:03.570Z</time>
      </trkpt>
      <trkpt lat="47.67455" lon="-2.09145">
        <ele>47.996526</ele>
        <time>2022-12-15T11:03:06.557Z</time>
      </trkpt>
      <trkpt lat="47.67446" lon="-2.09135">
        <ele>47.79695</ele>
        <time>2022-12-15T11:03:09.561Z</time>
      </trkpt>
      <trkpt lat="47.67438" lon="-2.09126">
        <ele>47.605551</ele>
        <time>2022-12-15T11:03:12.554Z</time>
      </trkpt>
      <trkpt lat="47.67431" lon="-2.09117">
        <ele>47.434609</ele>
        <time>2022-12-15T11:03:15.559Z</time>
      </trkpt>
      <trkpt lat="47.67424" lon="-2.09109">
        <ele>47.258841</ele>
        <time>2022-12-15T11:03:18.564Z</time>
      </trkpt>
      <trkpt lat="47.67415" lon="-2.09099">
        <ele>47.051057</ele>
        <time>2022-12-15T11:03:22.566Z</time>
      </trkpt>
      <trkpt lat="47.67407" lon="-2.09091">
        <ele>46.881263</ele>
        <time>2022-12-15T11:03:25.564Z</time>
      </trkpt>
      <trkpt lat="47.674" lon="-2.09082">
        <ele>46.706248</ele>
        <time>2022-12-15T11:03:28.555Z</time>
      </trkpt>
      <trkpt lat="47.67392" lon="-2.09073">
        <ele>46.517099</ele>
        <time>2022-12-15T11:03:31.560Z</time>
      </trkpt>
      <trkpt lat="47.67383" lon="-2.09064">
        <ele>46.318975</ele>
        <time>2022-12-15T11:03:34.565Z</time>
      </trkpt>
      <trkpt lat="47.67374" lon="-2.09054">
        <ele>46.278707</ele>
        <time>2022-12-15T11:03:37.569Z</time>
      </trkpt>
      <trkpt lat="47.67365" lon="-2.09044">
        <ele>46.279901</ele>
        <time>2022-12-15T11:03:40.569Z</time>
      </trkpt>
      <trkpt lat="47.67355" lon="-2.09034">
        <ele>46.281186</ele>
        <time>2022-12-15T11:03:43.572Z</time>
      </trkpt>
      <trkpt lat="47.67346" lon="-2.09024">
        <ele>46.282427</ele>
        <time>2022-12-15T11:03:46.566Z</time>
      </trkpt>
      <trkpt lat="47.67337" lon="-2.09014">
        <ele>46.283664</ele>
        <time>2022-12-15T11:03:49.555Z</time>
      </trkpt>
      <trkpt lat="47.67328" lon="-2.09003">
        <ele>46.284898</ele>
        <time>2022-12-15T11:03:52.566Z</time>
      </trkpt>
      <trkpt lat="47.6732" lon="-2.08994">
        <ele>46.286013</ele>
        <time>2022-12-15T11:03:55.562Z</time>
      </trkpt>
      <trkpt lat="47.6731" lon="-2.08983">
        <ele>46.287281</ele>
        <time>2022-12-15T11:03:58.562Z</time>
      </trkpt>
      <trkpt lat="47.67301" lon="-2.08973">
        <ele>46.288513</ele>
        <time>2022-12-15T11:04:01.561Z</time>
      </trkpt>
      <trkpt lat="47.67292" lon="-2.08963">
        <ele>46.289742</ele>
        <time>2022-12-15T11:04:04.571Z</time>
      </trkpt>
      <trkpt lat="47.67284" lon="-2.08951">
        <ele>46.291008</ele>
        <time>2022-12-15T11:04:07.563Z</time>
      </trkpt>
      <trkpt lat="47.67274" lon="-2.08941">
        <ele>46.292314</ele>
        <time>2022-12-15T11:04:10.568Z</time>
      </trkpt>
      <trkpt lat="47.67266" lon="-2.08931">
        <ele>46.293439</ele>
        <time>2022-12-15T11:04:13.556Z</time>
      </trkpt>
      <trkpt lat="47.67257" lon="-2.08921">
        <ele>46.294676</ele>
        <time>2022-12-15T11:04:17.553Z</time>
      </trkpt>
      <trkpt lat="47.67248" lon="-2.0891">
        <ele>46.295887</ele>
        <time>2022-12-15T11:04:20.556Z</time>
      </trkpt>
      <trkpt lat="47.67238" lon="-2.089">
        <ele>46.297142</ele>
        <time>2022-12-15T11:04:23.560Z</time>
      </trkpt>
      <trkpt lat="47.67228" lon="-2.08891">
        <ele>46.415056</ele>
        <time>2022-12-15T11:04:26.566Z</time>
      </trkpt>
      <trkpt lat="47.67217" lon="-2.08881">
        <ele>46.53646</ele>
        <time>2022-12-15T11:04:29.560Z</time>
      </trkpt>
      <trkpt lat="47.67206" lon="-2.08871">
        <ele>46.658664</ele>
        <time>2022-12-15T11:04:32.556Z</time>
      </trkpt>
      <trkpt lat="47.67195" lon="-2.08864">
        <ele>46.783106</ele>
        <time>2022-12-15T11:04:35.553Z</time>
      </trkpt>
      <trkpt lat="47.67183" lon="-2.08857">
        <ele>46.899273</ele>
        <time>2022-12-15T11:04:38.551Z</time>
      </trkpt>
      <trkpt lat="47.67172" lon="-2.08851">
        <ele>47.014251</ele>
        <time>2022-12-15T11:04:41.563Z</time>
      </trkpt>
      <trkpt lat="47.67162" lon="-2.08846">
        <ele>47.122069</ele>
        <time>2022-12-15T11:04:44.553Z</time>
      </trkpt>
      <trkpt lat="47.67151" lon="-2.08842">
        <ele>47.226912</ele>
        <time>2022-12-15T11:04:47.566Z</time>
      </trkpt>
      <trkpt lat="47.67141" lon="-2.08838">
        <ele>47.33373</ele>
        <time>2022-12-15T11:04:50.566Z</time>
      </trkpt>
      <trkpt lat="47.67129" lon="-2.08835">
        <ele>47.448002</ele>
        <time>2022-12-15T11:04:53.558Z</time>
      </trkpt>
      <trkpt lat="47.67117" lon="-2.08833">
        <ele>47.566932</ele>
        <time>2022-12-15T11:04:56.552Z</time>
      </trkpt>
      <trkpt lat="47.67106" lon="-2.08832">
        <ele>47.67596</ele>
        <time>2022-12-15T11:04:59.556Z</time>
      </trkpt>
      <trkpt lat="47.67095" lon="-2.08831">
        <ele>47.779831</ele>
        <time>2022-12-15T11:05:02.553Z</time>
      </trkpt>
      <trkpt lat="47.67084" lon="-2.0883">
        <ele>47.888576</ele>
        <time>2022-12-15T11:05:05.559Z</time>
      </trkpt>
      <trkpt lat="47.67072" lon="-2.08831">
        <ele>47.999258</ele>
        <time>2022-12-15T11:05:08.565Z</time>
      </trkpt>
      <trkpt lat="47.67061" lon="-2.08833">
        <ele>48.111868</ele>
        <time>2022-12-15T11:05:11.553Z</time>
      </trkpt>
      <trkpt lat="47.67049" lon="-2.08835">
        <ele>48.233304</ele>
        <time>2022-12-15T11:05:14.567Z</time>
      </trkpt>
      <trkpt lat="47.67036" lon="-2.08838">
        <ele>48.359899</ele>
        <time>2022-12-15T11:05:17.577Z</time>
      </trkpt>
      <trkpt lat="47.67024" lon="-2.08842">
        <ele>48.480971</ele>
        <time>2022-12-15T11:05:20.564Z</time>
      </trkpt>
      <trkpt lat="47.67013" lon="-2.08846">
        <ele>48.590526</ele>
        <time>2022-12-15T11:05:23.552Z</time>
      </trkpt>
      <trkpt lat="47.67002" lon="-2.08851">
        <ele>48.703658</ele>
        <time>2022-12-15T11:05:26.556Z</time>
      </trkpt>
      <trkpt lat="47.66991" lon="-2.08856">
        <ele>48.820765</ele>
        <time>2022-12-15T11:05:29.548Z</time>
      </trkpt>
      <trkpt lat="47.66979" lon="-2.08862">
        <ele>48.944498</ele>
        <time>2022-12-15T11:05:32.556Z</time>
      </trkpt>
      <trkpt lat="47.66967" lon="-2.0887">
        <ele>49.074925</ele>
        <time>2022-12-15T11:05:35.557Z</time>
      </trkpt>
      <trkpt lat="47.66956" lon="-2.08879">
        <ele>49.201705</ele>
        <time>2022-12-15T11:05:38.564Z</time>
      </trkpt>
      <trkpt lat="47.66944" lon="-2.08889">
        <ele>49.332886</ele>
        <time>2022-12-15T11:05:41.566Z</time>
      </trkpt>
      <trkpt lat="47.66933" lon="-2.089">
        <ele>49.462395</ele>
        <time>2022-12-15T11:05:44.566Z</time>
      </trkpt>
      <trkpt lat="47.66923" lon="-2.0891">
        <ele>49.585379</ele>
        <time>2022-12-15T11:05:47.553Z</time>
      </trkpt>
      <trkpt lat="47.66914" lon="-2.08922">
        <ele>49.705623</ele>
        <time>2022-12-15T11:05:50.568Z</time>
      </trkpt>
      <trkpt lat="47.66905" lon="-2.08935">
        <ele>49.813019</ele>
        <time>2022-12-15T11:05:53.568Z</time>
      </trkpt>
      <trkpt lat="47.66896" lon="-2.08948">
        <ele>49.77888</ele>
        <time>2022-12-15T11:05:56.553Z</time>
      </trkpt>
      <trkpt lat="47.66886" lon="-2.08961">
        <ele>49.744624</ele>
        <time>2022-12-15T11:05:59.562Z</time>
      </trkpt>
      <trkpt lat="47.66877" lon="-2.08975">
        <ele>49.71067</ele>
        <time>2022-12-15T11:06:02.566Z</time>
      </trkpt>
      <trkpt lat="47.66869" lon="-2.0899">
        <ele>49.677122</ele>
        <time>2022-12-15T11:06:05.570Z</time>
      </trkpt>
      <trkpt lat="47.66861" lon="-2.09004">
        <ele>49.644833</ele>
        <time>2022-12-15T11:06:08.564Z</time>
      </trkpt>
      <trkpt lat="47.66855" lon="-2.09017">
        <ele>49.61546</ele>
        <time>2022-12-15T11:06:11.569Z</time>
      </trkpt>
      <trkpt lat="47.66847" lon="-2.09031">
        <ele>49.584156</ele>
        <time>2022-12-15T11:06:14.568Z</time>
      </trkpt>
      <trkpt lat="47.6684" lon="-2.09045">
        <ele>49.551699</ele>
        <time>2022-12-15T11:06:17.564Z</time>
      </trkpt>
      <trkpt lat="47.66833" lon="-2.0906">
        <ele>49.519327</ele>
        <time>2022-12-15T11:06:20.559Z</time>
      </trkpt>
      <trkpt lat="47.66826" lon="-2.09074">
        <ele>49.488516</ele>
        <time>2022-12-15T11:06:23.556Z</time>
      </trkpt>
      <trkpt lat="47.66818" lon="-2.09089">
        <ele>49.455616</ele>
        <time>2022-12-15T11:06:26.559Z</time>
      </trkpt>
      <trkpt lat="47.66811" lon="-2.09104">
        <ele>49.421859</ele>
        <time>2022-12-15T11:06:29.571Z</time>
      </trkpt>
      <trkpt lat="47.66804" lon="-2.0912">
        <ele>49.387659</ele>
        <time>2022-12-15T11:06:32.548Z</time>
      </trkpt>
      <trkpt lat="47.66797" lon="-2.09137">
        <ele>49.353013</ele>
        <time>2022-12-15T11:06:35.560Z</time>
      </trkpt>
      <trkpt lat="47.66789" lon="-2.09153">
        <ele>49.29908</ele>
        <time>2022-12-15T11:06:38.543Z</time>
      </trkpt>
      <trkpt lat="47.66782" lon="-2.09169">
        <ele>49.235272</ele>
        <time>2022-12-15T11:06:41.564Z</time>
      </trkpt>
      <trkpt lat="47.66774" lon="-2.09185">
        <ele>49.170061</ele>
        <time>2022-12-15T11:06:44.566Z</time>
      </trkpt>
      <trkpt lat="47.66767" lon="-2.09201">
        <ele>49.105709</ele>
        <time>2022-12-15T11:06:47.552Z</time>
      </trkpt>
      <trkpt lat="47.66759" lon="-2.09216">
        <ele>49.041197</ele>
        <time>2022-12-15T11:06:50.570Z</time>
      </trkpt>
      <trkpt lat="47.66751" lon="-2.09231">
        <ele>48.978402</ele>
        <time>2022-12-15T11:06:53.546Z</time>
      </trkpt>
      <trkpt lat="47.66744" lon="-2.09248">
        <ele>48.915611</ele>
        <time>2022-12-15T11:06:56.575Z</time>
      </trkpt>
      <trkpt lat="47.66737" lon="-2.09263">
        <ele>48.853988</ele>
        <time>2022-12-15T11:06:59.573Z</time>
      </trkpt>
      <trkpt lat="47.6673" lon="-2.09278">
        <ele>48.790955</ele>
        <time>2022-12-15T11:07:02.567Z</time>
      </trkpt>
      <trkpt lat="47.66722" lon="-2.09293">
        <ele>48.728983</ele>
        <time>2022-12-15T11:07:05.566Z</time>
      </trkpt>
      <trkpt lat="47.66714" lon="-2.09308">
        <ele>48.666154</ele>
        <time>2022-12-15T11:07:08.573Z</time>
      </trkpt>
      <trkpt lat="47.66707" lon="-2.09323">
        <ele>48.605826</ele>
        <time>2022-12-15T11:07:11.546Z</time>
      </trkpt>
      <trkpt lat="47.667" lon="-2.09337">
        <ele>48.549081</ele>
        <time>2022-12-15T11:07:14.559Z</time>
      </trkpt>
      <trkpt lat="47.66693" lon="-2.09351">
        <ele>48.490449</ele>
        <time>2022-12-15T11:07:17.569Z</time>
      </trkpt>
      <trkpt lat="47.66686" lon="-2.09366">
        <ele>48.462709</ele>
        <time>2022-12-15T11:07:20.566Z</time>
      </trkpt>
      <trkpt lat="47.6668" lon="-2.0938">
        <ele>48.46972</ele>
        <time>2022-12-15T11:07:23.559Z</time>
      </trkpt>
      <trkpt lat="47.66673" lon="-2.09396">
        <ele>48.477073</ele>
        <time>2022-12-15T11:07:26.569Z</time>
      </trkpt>
      <trkpt lat="47.66666" lon="-2.09411">
        <ele>48.484485</ele>
        <time>2022-12-15T11:07:29.565Z</time>
      </trkpt>
      <trkpt lat="47.6666" lon="-2.09425">
        <ele>48.49113</ele>
        <time>2022-12-15T11:07:32.576Z</time>
      </trkpt>
      <trkpt lat="47.66653" lon="-2.09439">
        <ele>48.498216</ele>
        <time>2022-12-15T11:07:35.566Z</time>
      </trkpt>
      <trkpt lat="47.66645" lon="-2.09453">
        <ele>48.505423</ele>
        <time>2022-12-15T11:07:38.566Z</time>
      </trkpt>
      <trkpt lat="47.66638" lon="-2.09468">
        <ele>48.512947</ele>
        <time>2022-12-15T11:07:41.568Z</time>
      </trkpt>
      <trkpt lat="47.6663" lon="-2.09483">
        <ele>48.520595</ele>
        <time>2022-12-15T11:07:44.584Z</time>
      </trkpt>
      <trkpt lat="47.66623" lon="-2.09498">
        <ele>48.528219</ele>
        <time>2022-12-15T11:07:47.554Z</time>
      </trkpt>
      <trkpt lat="47.66616" lon="-2.09512">
        <ele>48.535131</ele>
        <time>2022-12-15T11:07:50.567Z</time>
      </trkpt>
      <trkpt lat="47.6661" lon="-2.09526">
        <ele>48.541743</ele>
        <time>2022-12-15T11:07:53.570Z</time>
      </trkpt>
      <trkpt lat="47.66603" lon="-2.0954">
        <ele>48.548626</ele>
        <time>2022-12-15T11:07:56.566Z</time>
      </trkpt>
      <trkpt lat="47.66596" lon="-2.09554">
        <ele>48.555772</ele>
        <time>2022-12-15T11:07:59.566Z</time>
      </trkpt>
      <trkpt lat="47.66589" lon="-2.0957">
        <ele>48.563317</ele>
        <time>2022-12-15T11:08:02.567Z</time>
      </trkpt>
      <trkpt lat="47.66584" lon="-2.09581">
        <ele>48.497562</ele>
        <time>2022-12-15T11:08:05.564Z</time>
      </trkpt>
      <trkpt lat="47.6659" lon="-2.0957">
        <ele>48.279023</ele>
        <time>2022-12-15T11:08:39.554Z</time>
      </trkpt>
      <trkpt lat="47.66594" lon="-2.09569">
        <ele>48.177312</ele>
        <time>2022-12-15T11:09:03.505Z</time>
      </trkpt>
      <trkpt lat="47.66606" lon="-2.09546">
        <ele>47.728669</ele>
        <time>2022-12-15T11:14:25.554Z</time>
      </trkpt>
      <trkpt lat="47.66612" lon="-2.09535">
        <ele>47.511501</ele>
        <time>2022-12-15T11:14:29.572Z</time>
      </trkpt>
      <trkpt lat="47.66618" lon="-2.09519">
        <ele>47.23139</ele>
        <time>2022-12-15T11:14:33.583Z</time>
      </trkpt>
      <trkpt lat="47.66624" lon="-2.09507">
        <ele>46.994943</ele>
        <time>2022-12-15T11:14:36.551Z</time>
      </trkpt>
      <trkpt lat="47.6663" lon="-2.09493">
        <ele>46.740731</ele>
        <time>2022-12-15T11:14:39.558Z</time>
      </trkpt>
      <trkpt lat="47.66637" lon="-2.09479">
        <ele>46.478815</ele>
        <time>2022-12-15T11:14:42.572Z</time>
      </trkpt>
      <trkpt lat="47.66643" lon="-2.09465">
        <ele>46.219408</ele>
        <time>2022-12-15T11:14:45.568Z</time>
      </trkpt>
      <trkpt lat="47.66649" lon="-2.09451">
        <ele>45.956194</ele>
        <time>2022-12-15T11:14:48.556Z</time>
      </trkpt>
      <trkpt lat="47.66656" lon="-2.09437">
        <ele>45.689007</ele>
        <time>2022-12-15T11:14:51.554Z</time>
      </trkpt>
      <trkpt lat="47.66663" lon="-2.09423">
        <ele>45.424483</ele>
        <time>2022-12-15T11:14:54.571Z</time>
      </trkpt>
      <trkpt lat="47.66669" lon="-2.09409">
        <ele>45.161225</ele>
        <time>2022-12-15T11:14:57.578Z</time>
      </trkpt>
      <trkpt lat="47.66676" lon="-2.09395">
        <ele>44.894165</ele>
        <time>2022-12-15T11:15:00.573Z</time>
      </trkpt>
      <trkpt lat="47.66683" lon="-2.0938">
        <ele>44.619392</ele>
        <time>2022-12-15T11:15:03.567Z</time>
      </trkpt>
      <trkpt lat="47.6669" lon="-2.09366">
        <ele>44.371117</ele>
        <time>2022-12-15T11:15:06.575Z</time>
      </trkpt>
      <trkpt lat="47.66696" lon="-2.09352">
        <ele>44.193604</ele>
        <time>2022-12-15T11:15:09.571Z</time>
      </trkpt>
      <trkpt lat="47.66703" lon="-2.09338">
        <ele>44.009071</ele>
        <time>2022-12-15T11:15:12.560Z</time>
      </trkpt>
      <trkpt lat="47.6671" lon="-2.09323">
        <ele>43.817638</ele>
        <time>2022-12-15T11:15:15.552Z</time>
      </trkpt>
      <trkpt lat="47.66717" lon="-2.09308">
        <ele>43.630492</ele>
        <time>2022-12-15T11:15:18.562Z</time>
      </trkpt>
      <trkpt lat="47.66724" lon="-2.09293">
        <ele>43.438057</ele>
        <time>2022-12-15T11:15:21.570Z</time>
      </trkpt>
      <trkpt lat="47.66732" lon="-2.09279">
        <ele>43.243657</ele>
        <time>2022-12-15T11:15:24.574Z</time>
      </trkpt>
      <trkpt lat="47.66739" lon="-2.09264">
        <ele>43.052814</ele>
        <time>2022-12-15T11:15:27.573Z</time>
      </trkpt>
      <trkpt lat="47.66746" lon="-2.0925">
        <ele>42.866521</ele>
        <time>2022-12-15T11:15:30.571Z</time>
      </trkpt>
      <trkpt lat="47.66754" lon="-2.09236">
        <ele>42.684352</ele>
        <time>2022-12-15T11:15:33.557Z</time>
      </trkpt>
      <trkpt lat="47.6676" lon="-2.09223">
        <ele>42.511972</ele>
        <time>2022-12-15T11:15:36.567Z</time>
      </trkpt>
      <trkpt lat="47.66766" lon="-2.09209">
        <ele>42.337958</ele>
        <time>2022-12-15T11:15:39.573Z</time>
      </trkpt>
      <trkpt lat="47.66773" lon="-2.09196">
        <ele>42.164569</ele>
        <time>2022-12-15T11:15:42.571Z</time>
      </trkpt>
      <trkpt lat="47.66778" lon="-2.09184">
        <ele>42.016355</ele>
        <time>2022-12-15T11:15:45.573Z</time>
      </trkpt>
      <trkpt lat="47.66784" lon="-2.09172">
        <ele>41.862191</ele>
        <time>2022-12-15T11:15:48.576Z</time>
      </trkpt>
      <trkpt lat="47.6679" lon="-2.09159">
        <ele>41.695988</ele>
        <time>2022-12-15T11:15:51.569Z</time>
      </trkpt>
      <trkpt lat="47.66797" lon="-2.09144">
        <ele>41.588195</ele>
        <time>2022-12-15T11:15:54.572Z</time>
      </trkpt>
      <trkpt lat="47.66804" lon="-2.09129">
        <ele>41.520926</ele>
        <time>2022-12-15T11:15:57.566Z</time>
      </trkpt>
      <trkpt lat="47.66811" lon="-2.09113">
        <ele>41.450328</ele>
        <time>2022-12-15T11:16:00.570Z</time>
      </trkpt>
      <trkpt lat="47.66819" lon="-2.09098">
        <ele>41.378805</ele>
        <time>2022-12-15T11:16:03.574Z</time>
      </trkpt>
      <trkpt lat="47.66826" lon="-2.09083">
        <ele>41.311254</ele>
        <time>2022-12-15T11:16:06.549Z</time>
      </trkpt>
      <trkpt lat="47.66832" lon="-2.09067">
        <ele>41.244929</ele>
        <time>2022-12-15T11:16:09.567Z</time>
      </trkpt>
      <trkpt lat="47.66839" lon="-2.09054">
        <ele>41.183142</ele>
        <time>2022-12-15T11:16:12.572Z</time>
      </trkpt>
      <trkpt lat="47.66846" lon="-2.0904">
        <ele>41.12076</ele>
        <time>2022-12-15T11:16:15.567Z</time>
      </trkpt>
      <trkpt lat="47.66853" lon="-2.09026">
        <ele>41.057137</ele>
        <time>2022-12-15T11:16:18.578Z</time>
      </trkpt>
      <trkpt lat="47.66859" lon="-2.09012">
        <ele>40.993557</ele>
        <time>2022-12-15T11:16:21.571Z</time>
      </trkpt>
      <trkpt lat="47.66867" lon="-2.08998">
        <ele>40.928221</ele>
        <time>2022-12-15T11:16:24.565Z</time>
      </trkpt>
      <trkpt lat="47.66874" lon="-2.08985">
        <ele>40.864567</ele>
        <time>2022-12-15T11:16:27.562Z</time>
      </trkpt>
      <trkpt lat="47.66882" lon="-2.08971">
        <ele>40.799227</ele>
        <time>2022-12-15T11:16:30.572Z</time>
      </trkpt>
      <trkpt lat="47.6689" lon="-2.08959">
        <ele>40.735257</ele>
        <time>2022-12-15T11:16:33.577Z</time>
      </trkpt>
      <trkpt lat="47.66897" lon="-2.08947">
        <ele>40.675365</ele>
        <time>2022-12-15T11:16:36.578Z</time>
      </trkpt>
      <trkpt lat="47.66905" lon="-2.08934">
        <ele>40.761897</ele>
        <time>2022-12-15T11:16:39.560Z</time>
      </trkpt>
      <trkpt lat="47.66913" lon="-2.08923">
        <ele>40.967456</ele>
        <time>2022-12-15T11:16:42.571Z</time>
      </trkpt>
      <trkpt lat="47.66921" lon="-2.08912">
        <ele>41.174044</ele>
        <time>2022-12-15T11:16:45.558Z</time>
      </trkpt>
      <trkpt lat="47.6693" lon="-2.08902">
        <ele>41.383183</ele>
        <time>2022-12-15T11:16:48.578Z</time>
      </trkpt>
      <trkpt lat="47.6694" lon="-2.08892">
        <ele>41.60363</ele>
        <time>2022-12-15T11:16:51.573Z</time>
      </trkpt>
      <trkpt lat="47.66951" lon="-2.08883">
        <ele>41.838697</ele>
        <time>2022-12-15T11:16:54.563Z</time>
      </trkpt>
      <trkpt lat="47.66963" lon="-2.08875">
        <ele>42.079705</ele>
        <time>2022-12-15T11:16:57.571Z</time>
      </trkpt>
      <trkpt lat="47.66975" lon="-2.08867">
        <ele>42.322397</ele>
        <time>2022-12-15T11:17:00.560Z</time>
      </trkpt>
      <trkpt lat="47.66984" lon="-2.08863">
        <ele>42.493195</ele>
        <time>2022-12-15T11:17:02.573Z</time>
      </trkpt>
      <trkpt lat="47.66996" lon="-2.08856">
        <ele>42.726964</ele>
        <time>2022-12-15T11:17:05.565Z</time>
      </trkpt>
      <trkpt lat="47.67006" lon="-2.0885">
        <ele>42.937296</ele>
        <time>2022-12-15T11:17:08.576Z</time>
      </trkpt>
      <trkpt lat="47.67017" lon="-2.08846">
        <ele>43.146386</ele>
        <time>2022-12-15T11:17:11.576Z</time>
      </trkpt>
      <trkpt lat="47.67028" lon="-2.08842">
        <ele>43.357268</ele>
        <time>2022-12-15T11:17:14.572Z</time>
      </trkpt>
      <trkpt lat="47.67039" lon="-2.08838">
        <ele>43.564286</ele>
        <time>2022-12-15T11:17:17.572Z</time>
      </trkpt>
      <trkpt lat="47.6705" lon="-2.08835">
        <ele>43.777327</ele>
        <time>2022-12-15T11:17:20.553Z</time>
      </trkpt>
      <trkpt lat="47.67062" lon="-2.08833">
        <ele>43.996848</ele>
        <time>2022-12-15T11:17:23.564Z</time>
      </trkpt>
      <trkpt lat="47.67074" lon="-2.08831">
        <ele>44.216591</ele>
        <time>2022-12-15T11:17:26.571Z</time>
      </trkpt>
      <trkpt lat="47.67087" lon="-2.08831">
        <ele>44.431561</ele>
        <time>2022-12-15T11:17:29.572Z</time>
      </trkpt>
      <trkpt lat="47.67099" lon="-2.08831">
        <ele>44.648236</ele>
        <time>2022-12-15T11:17:32.572Z</time>
      </trkpt>
      <trkpt lat="47.67111" lon="-2.08832">
        <ele>44.86741</ele>
        <time>2022-12-15T11:17:35.560Z</time>
      </trkpt>
      <trkpt lat="47.67123" lon="-2.08835">
        <ele>45.078765</ele>
        <time>2022-12-15T11:17:38.570Z</time>
      </trkpt>
      <trkpt lat="47.67135" lon="-2.08837">
        <ele>45.290618</ele>
        <time>2022-12-15T11:17:41.566Z</time>
      </trkpt>
      <trkpt lat="47.67147" lon="-2.08842">
        <ele>45.509845</ele>
        <time>2022-12-15T11:17:44.566Z</time>
      </trkpt>
      <trkpt lat="47.67159" lon="-2.08846">
        <ele>45.728836</ele>
        <time>2022-12-15T11:17:47.551Z</time>
      </trkpt>
      <trkpt lat="47.6717" lon="-2.08851">
        <ele>45.933486</ele>
        <time>2022-12-15T11:17:50.557Z</time>
      </trkpt>
      <trkpt lat="47.6718" lon="-2.08857">
        <ele>46.13625</ele>
        <time>2022-12-15T11:17:53.572Z</time>
      </trkpt>
      <trkpt lat="47.67191" lon="-2.08863">
        <ele>46.341876</ele>
        <time>2022-12-15T11:17:56.569Z</time>
      </trkpt>
      <trkpt lat="47.67202" lon="-2.0887">
        <ele>46.552002</ele>
        <time>2022-12-15T11:17:59.568Z</time>
      </trkpt>
      <trkpt lat="47.67212" lon="-2.08879">
        <ele>46.760898</ele>
        <time>2022-12-15T11:18:02.562Z</time>
      </trkpt>
      <trkpt lat="47.67222" lon="-2.08889">
        <ele>46.966247</ele>
        <time>2022-12-15T11:18:05.568Z</time>
      </trkpt>
      <trkpt lat="47.67231" lon="-2.08899">
        <ele>47.176855</ele>
        <time>2022-12-15T11:18:08.563Z</time>
      </trkpt>
      <trkpt lat="47.6724" lon="-2.0891">
        <ele>47.413461</ele>
        <time>2022-12-15T11:18:11.575Z</time>
      </trkpt>
      <trkpt lat="47.6725" lon="-2.08921">
        <ele>47.665538</ele>
        <time>2022-12-15T11:18:14.570Z</time>
      </trkpt>
      <trkpt lat="47.67259" lon="-2.08931">
        <ele>47.894666</ele>
        <time>2022-12-15T11:18:17.574Z</time>
      </trkpt>
      <trkpt lat="47.67267" lon="-2.0894">
        <ele>48.101881</ele>
        <time>2022-12-15T11:18:20.556Z</time>
      </trkpt>
      <trkpt lat="47.67276" lon="-2.08951">
        <ele>48.333585</ele>
        <time>2022-12-15T11:18:23.570Z</time>
      </trkpt>
      <trkpt lat="47.67285" lon="-2.08961">
        <ele>48.573355</ele>
        <time>2022-12-15T11:18:26.571Z</time>
      </trkpt>
      <trkpt lat="47.67295" lon="-2.08972">
        <ele>48.816463</ele>
        <time>2022-12-15T11:18:29.547Z</time>
      </trkpt>
      <trkpt lat="47.67303" lon="-2.08982">
        <ele>49.040095</ele>
        <time>2022-12-15T11:18:32.573Z</time>
      </trkpt>
      <trkpt lat="47.67313" lon="-2.08992">
        <ele>49.273345</ele>
        <time>2022-12-15T11:18:35.573Z</time>
      </trkpt>
      <trkpt lat="47.67323" lon="-2.09003">
        <ele>49.527048</ele>
        <time>2022-12-15T11:18:38.560Z</time>
      </trkpt>
      <trkpt lat="47.67332" lon="-2.09014">
        <ele>49.775835</ele>
        <time>2022-12-15T11:18:41.570Z</time>
      </trkpt>
      <trkpt lat="47.67342" lon="-2.09026">
        <ele>50.032816</ele>
        <time>2022-12-15T11:18:44.571Z</time>
      </trkpt>
      <trkpt lat="47.67353" lon="-2.09037">
        <ele>50.298766</ele>
        <time>2022-12-15T11:18:47.575Z</time>
      </trkpt>
      <trkpt lat="47.67363" lon="-2.09048">
        <ele>50.557351</ele>
        <time>2022-12-15T11:18:50.571Z</time>
      </trkpt>
      <trkpt lat="47.67372" lon="-2.09059">
        <ele>50.793105</ele>
        <time>2022-12-15T11:18:53.573Z</time>
      </trkpt>
      <trkpt lat="47.67382" lon="-2.09069">
        <ele>50.663527</ele>
        <time>2022-12-15T11:18:56.571Z</time>
      </trkpt>
      <trkpt lat="47.67392" lon="-2.0908">
        <ele>50.418662</ele>
        <time>2022-12-15T11:18:59.563Z</time>
      </trkpt>
      <trkpt lat="47.67402" lon="-2.09091">
        <ele>50.169838</ele>
        <time>2022-12-15T11:19:02.570Z</time>
      </trkpt>
      <trkpt lat="47.6741" lon="-2.09101">
        <ele>49.954805</ele>
        <time>2022-12-15T11:19:05.578Z</time>
      </trkpt>
      <trkpt lat="47.67418" lon="-2.09111">
        <ele>49.754256</ele>
        <time>2022-12-15T11:19:08.563Z</time>
      </trkpt>
      <trkpt lat="47.67427" lon="-2.09121">
        <ele>49.536164</ele>
        <time>2022-12-15T11:19:11.576Z</time>
      </trkpt>
      <trkpt lat="47.67436" lon="-2.09132">
        <ele>49.304546</ele>
        <time>2022-12-15T11:19:14.568Z</time>
      </trkpt>
      <trkpt lat="47.67445" lon="-2.09143">
        <ele>49.067567</ele>
        <time>2022-12-15T11:19:17.558Z</time>
      </trkpt>
      <trkpt lat="47.67455" lon="-2.09153">
        <ele>48.838473</ele>
        <time>2022-12-15T11:19:20.559Z</time>
      </trkpt>
      <trkpt lat="47.67462" lon="-2.09161">
        <ele>48.657007</ele>
        <time>2022-12-15T11:19:23.570Z</time>
      </trkpt>
      <trkpt lat="47.6747" lon="-2.0917">
        <ele>48.4549</ele>
        <time>2022-12-15T11:19:26.577Z</time>
      </trkpt>
      <trkpt lat="47.67479" lon="-2.0918">
        <ele>48.245669</ele>
        <time>2022-12-15T11:19:29.575Z</time>
      </trkpt>
      <trkpt lat="47.67487" lon="-2.09189">
        <ele>48.036438</ele>
        <time>2022-12-15T11:19:32.580Z</time>
      </trkpt>
      <trkpt lat="47.67495" lon="-2.09199">
        <ele>47.835068</ele>
        <time>2022-12-15T11:19:35.580Z</time>
      </trkpt>
      <trkpt lat="47.67504" lon="-2.09208">
        <ele>47.621088</ele>
        <time>2022-12-15T11:19:38.574Z</time>
      </trkpt>
      <trkpt lat="47.67512" lon="-2.09217">
        <ele>47.418221</ele>
        <time>2022-12-15T11:19:41.570Z</time>
      </trkpt>
      <trkpt lat="47.67521" lon="-2.09226">
        <ele>47.289345</ele>
        <time>2022-12-15T11:19:44.578Z</time>
      </trkpt>
      <trkpt lat="47.67529" lon="-2.09235">
        <ele>47.282748</ele>
        <time>2022-12-15T11:19:47.579Z</time>
      </trkpt>
      <trkpt lat="47.67538" lon="-2.09245">
        <ele>47.275422</ele>
        <time>2022-12-15T11:19:50.574Z</time>
      </trkpt>
      <trkpt lat="47.67547" lon="-2.09255">
        <ele>47.267992</ele>
        <time>2022-12-15T11:19:53.579Z</time>
      </trkpt>
      <trkpt lat="47.67554" lon="-2.09264">
        <ele>47.261845</ele>
        <time>2022-12-15T11:19:56.576Z</time>
      </trkpt>
      <trkpt lat="47.67562" lon="-2.09272">
        <ele>47.255771</ele>
        <time>2022-12-15T11:19:59.568Z</time>
      </trkpt>
      <trkpt lat="47.6757" lon="-2.09282">
        <ele>47.248941</ele>
        <time>2022-12-15T11:20:03.572Z</time>
      </trkpt>
      <trkpt lat="47.67577" lon="-2.0929">
        <ele>47.243023</ele>
        <time>2022-12-15T11:20:07.559Z</time>
      </trkpt>
      <trkpt lat="47.67585" lon="-2.093">
        <ele>47.236407</ele>
        <time>2022-12-15T11:20:12.566Z</time>
      </trkpt>
      <trkpt lat="47.6759" lon="-2.09314">
        <ele>47.229552</ele>
        <time>2022-12-15T11:20:17.573Z</time>
      </trkpt>
      <trkpt lat="47.67595" lon="-2.09326">
        <ele>47.223477</ele>
        <time>2022-12-15T11:20:22.556Z</time>
      </trkpt>
      <trkpt lat="47.67602" lon="-2.09334">
        <ele>47.217612</ele>
        <time>2022-12-15T11:20:27.551Z</time>
      </trkpt>
      <trkpt lat="47.67611" lon="-2.09341">
        <ele>47.211348</ele>
        <time>2022-12-15T11:20:32.574Z</time>
      </trkpt>
      <trkpt lat="47.6762" lon="-2.09344">
        <ele>47.205186</ele>
        <time>2022-12-15T11:20:38.563Z</time>
      </trkpt>
      <trkpt lat="47.67618" lon="-2.09329">
        <ele>47.198372</ele>
        <time>2022-12-15T11:20:44.569Z</time>
      </trkpt>
      <trkpt lat="47.67616" lon="-2.09313">
        <ele>47.191516</ele>
        <time>2022-12-15T11:20:48.574Z</time>
      </trkpt>
      <trkpt lat="47.67615" lon="-2.09298">
        <ele>47.185012</ele>
        <time>2022-12-15T11:20:52.570Z</time>
      </trkpt>
      <trkpt lat="47.67615" lon="-2.09284">
        <ele>47.178842</ele>
        <time>2022-12-15T11:20:56.570Z</time>
      </trkpt>
      <trkpt lat="47.67613" lon="-2.09267">
        <ele>47.295798</ele>
        <time>2022-12-15T11:21:00.571Z</time>
      </trkpt>
      <trkpt lat="47.67612" lon="-2.09253">
        <ele>47.501885</ele>
        <time>2022-12-15T11:21:03.581Z</time>
      </trkpt>
      <trkpt lat="47.6761" lon="-2.09239">
        <ele>47.717186</ele>
        <time>2022-12-15T11:21:06.564Z</time>
      </trkpt>
      <trkpt lat="47.67609" lon="-2.09225">
        <ele>47.919317</ele>
        <time>2022-12-15T11:21:09.576Z</time>
      </trkpt>
      <trkpt lat="47.67606" lon="-2.09209">
        <ele>48.159992</ele>
        <time>2022-12-15T11:21:13.584Z</time>
      </trkpt>
      <trkpt lat="47.67602" lon="-2.09193">
        <ele>48.403845</ele>
        <time>2022-12-15T11:21:17.561Z</time>
      </trkpt>
      <trkpt lat="47.67599" lon="-2.0918">
        <ele>48.607006</ele>
        <time>2022-12-15T11:21:20.573Z</time>
      </trkpt>
      <trkpt lat="47.67595" lon="-2.09167">
        <ele>48.808962</ele>
        <time>2022-12-15T11:21:23.560Z</time>
      </trkpt>
      <trkpt lat="47.67591" lon="-2.09151">
        <ele>49.056559</ele>
        <time>2022-12-15T11:21:27.573Z</time>
      </trkpt>
      <trkpt lat="47.67588" lon="-2.09134">
        <ele>49.307183</ele>
        <time>2022-12-15T11:21:31.578Z</time>
      </trkpt>
      <trkpt lat="47.67586" lon="-2.09121">
        <ele>49.507434</ele>
        <time>2022-12-15T11:21:34.580Z</time>
      </trkpt>
      <trkpt lat="47.67583" lon="-2.09106">
        <ele>49.739375</ele>
        <time>2022-12-15T11:21:38.579Z</time>
      </trkpt>
      <trkpt lat="47.67581" lon="-2.0909">
        <ele>49.968945</ele>
        <time>2022-12-15T11:21:42.571Z</time>
      </trkpt>
      <trkpt lat="47.6758" lon="-2.09076">
        <ele>50.173056</ele>
        <time>2022-12-15T11:21:45.570Z</time>
      </trkpt>
      <trkpt lat="47.67578" lon="-2.09062">
        <ele>50.381482</ele>
        <time>2022-12-15T11:21:48.577Z</time>
      </trkpt>
      <trkpt lat="47.67579" lon="-2.09047">
        <ele>50.601001</ele>
        <time>2022-12-15T11:21:52.571Z</time>
      </trkpt>
      <trkpt lat="47.6758" lon="-2.09032">
        <ele>50.812523</ele>
        <time>2022-12-15T11:21:56.573Z</time>
      </trkpt>
      <trkpt lat="47.67579" lon="-2.09017">
        <ele>51.023389</ele>
        <time>2022-12-15T11:22:00.561Z</time>
      </trkpt>
      <trkpt lat="47.67578" lon="-2.09004">
        <ele>51.077767</ele>
        <time>2022-12-15T11:22:04.572Z</time>
      </trkpt>
      <trkpt lat="47.67576" lon="-2.0899">
        <ele>51.117895</ele>
        <time>2022-12-15T11:22:09.572Z</time>
      </trkpt>
      <trkpt lat="47.67581" lon="-2.09008">
        <ele>51.171464</ele>
        <time>2022-12-15T11:26:08.581Z</time>
      </trkpt>
      <trkpt lat="47.67581" lon="-2.09025">
        <ele>51.219912</ele>
        <time>2022-12-15T11:26:11.577Z</time>
      </trkpt>
      <trkpt lat="47.67581" lon="-2.09038">
        <ele>51.258236</ele>
        <time>2022-12-15T11:26:13.576Z</time>
      </trkpt>
      <trkpt lat="47.67581" lon="-2.09054">
        <ele>51.302971</ele>
        <time>2022-12-15T11:26:15.575Z</time>
      </trkpt>
      <trkpt lat="47.67581" lon="-2.09069">
        <ele>51.347137</ele>
        <time>2022-12-15T11:26:17.575Z</time>
      </trkpt>
      <trkpt lat="47.67582" lon="-2.09084">
        <ele>51.38818</ele>
        <time>2022-12-15T11:26:19.573Z</time>
      </trkpt>
      <trkpt lat="47.67583" lon="-2.09103">
        <ele>51.442348</ele>
        <time>2022-12-15T11:26:22.557Z</time>
      </trkpt>
      <trkpt lat="47.67586" lon="-2.09118">
        <ele>51.489204</ele>
        <time>2022-12-15T11:26:25.564Z</time>
      </trkpt>
      <trkpt lat="47.67591" lon="-2.09132">
        <ele>51.534301</ele>
        <time>2022-12-15T11:26:28.577Z</time>
      </trkpt>
      <trkpt lat="47.67596" lon="-2.09146">
        <ele>51.578486</ele>
        <time>2022-12-15T11:26:31.576Z</time>
      </trkpt>
      <trkpt lat="47.676" lon="-2.0916">
        <ele>51.62155</ele>
        <time>2022-12-15T11:26:34.575Z</time>
      </trkpt>
      <trkpt lat="47.67604" lon="-2.09175">
        <ele>51.665664</ele>
        <time>2022-12-15T11:26:37.575Z</time>
      </trkpt>
      <trkpt lat="47.67607" lon="-2.0919">
        <ele>51.710123</ele>
        <time>2022-12-15T11:26:40.575Z</time>
      </trkpt>
      <trkpt lat="47.67609" lon="-2.09203">
        <ele>51.750492</ele>
        <time>2022-12-15T11:26:43.605Z</time>
      </trkpt>
      <trkpt lat="47.67612" lon="-2.09218">
        <ele>51.795524</ele>
        <time>2022-12-15T11:26:46.555Z</time>
      </trkpt>
      <trkpt lat="47.67614" lon="-2.09236">
        <ele>51.64323</ele>
        <time>2022-12-15T11:26:49.556Z</time>
      </trkpt>
      <trkpt lat="47.67615" lon="-2.09253">
        <ele>51.448302</ele>
        <time>2022-12-15T11:26:52.577Z</time>
      </trkpt>
      <trkpt lat="47.67616" lon="-2.09267">
        <ele>51.290075</ele>
        <time>2022-12-15T11:26:55.577Z</time>
      </trkpt>
      <trkpt lat="47.67618" lon="-2.09281">
        <ele>51.131387</ele>
        <time>2022-12-15T11:26:58.576Z</time>
      </trkpt>
      <trkpt lat="47.67618" lon="-2.09295">
        <ele>50.972881</ele>
        <time>2022-12-15T11:27:01.577Z</time>
      </trkpt>
      <trkpt lat="47.67619" lon="-2.09311">
        <ele>50.790327</ele>
        <time>2022-12-15T11:27:05.633Z</time>
      </trkpt>
      <trkpt lat="47.6762" lon="-2.09327">
        <ele>50.608267</ele>
        <time>2022-12-15T11:27:09.578Z</time>
      </trkpt>
      <trkpt lat="47.67615" lon="-2.09339">
        <ele>50.445076</ele>
        <time>2022-12-15T11:27:14.574Z</time>
      </trkpt>
      <trkpt lat="47.67605" lon="-2.09333">
        <ele>50.268437</ele>
        <time>2022-12-15T11:27:19.578Z</time>
      </trkpt>
      <trkpt lat="47.67597" lon="-2.09323">
        <ele>50.085608</ele>
        <time>2022-12-15T11:27:24.575Z</time>
      </trkpt>
      <trkpt lat="47.6759" lon="-2.0931">
        <ele>49.908025</ele>
        <time>2022-12-15T11:27:29.624Z</time>
      </trkpt>
      <trkpt lat="47.67585" lon="-2.09297">
        <ele>49.740094</ele>
        <time>2022-12-15T11:27:34.577Z</time>
      </trkpt>
      <trkpt lat="47.67577" lon="-2.09289">
        <ele>49.570388</ele>
        <time>2022-12-15T11:27:38.577Z</time>
      </trkpt>
      <trkpt lat="47.67568" lon="-2.09278">
        <ele>49.374491</ele>
        <time>2022-12-15T11:27:42.577Z</time>
      </trkpt>
      <trkpt lat="47.6756" lon="-2.09269">
        <ele>49.204825</ele>
        <time>2022-12-15T11:27:45.558Z</time>
      </trkpt>
      <trkpt lat="47.67552" lon="-2.0926">
        <ele>49.039529</ele>
        <time>2022-12-15T11:27:48.578Z</time>
      </trkpt>
      <trkpt lat="47.67544" lon="-2.09251">
        <ele>48.871738</ele>
        <time>2022-12-15T11:27:51.574Z</time>
      </trkpt>
      <trkpt lat="47.67535" lon="-2.09242">
        <ele>48.810991</ele>
        <time>2022-12-15T11:27:54.576Z</time>
      </trkpt>
      <trkpt lat="47.67526" lon="-2.09232">
        <ele>48.855797</ele>
        <time>2022-12-15T11:27:57.575Z</time>
      </trkpt>
      <trkpt lat="47.67518" lon="-2.09221">
        <ele>48.899665</ele>
        <time>2022-12-15T11:28:00.580Z</time>
      </trkpt>
      <trkpt lat="47.67509" lon="-2.09211">
        <ele>48.943389</ele>
        <time>2022-12-15T11:28:03.565Z</time>
      </trkpt>
      <trkpt lat="47.675" lon="-2.092">
        <ele>48.991064</ele>
        <time>2022-12-15T11:28:06.581Z</time>
      </trkpt>
      <trkpt lat="47.67489" lon="-2.09188">
        <ele>49.043097</ele>
        <time>2022-12-15T11:28:09.640Z</time>
      </trkpt>
      <trkpt lat="47.67479" lon="-2.09175">
        <ele>49.096356</ele>
        <time>2022-12-15T11:28:12.577Z</time>
      </trkpt>
      <trkpt lat="47.67469" lon="-2.09164">
        <ele>49.14561</ele>
        <time>2022-12-15T11:28:15.579Z</time>
      </trkpt>
      <trkpt lat="47.67461" lon="-2.09154">
        <ele>49.187468</ele>
        <time>2022-12-15T11:28:18.578Z</time>
      </trkpt>
      <trkpt lat="47.67453" lon="-2.09145">
        <ele>49.228151</ele>
        <time>2022-12-15T11:28:21.577Z</time>
      </trkpt>
      <trkpt lat="47.67444" lon="-2.09135">
        <ele>49.272477</ele>
        <time>2022-12-15T11:28:24.577Z</time>
      </trkpt>
      <trkpt lat="47.67434" lon="-2.09125">
        <ele>49.317279</ele>
        <time>2022-12-15T11:28:27.578Z</time>
      </trkpt>
      <trkpt lat="47.67425" lon="-2.09115">
        <ele>49.364628</ele>
        <time>2022-12-15T11:28:30.577Z</time>
      </trkpt>
      <trkpt lat="47.67415" lon="-2.09104">
        <ele>49.412133</ele>
        <time>2022-12-15T11:28:33.576Z</time>
      </trkpt>
      <trkpt lat="47.67405" lon="-2.09093">
        <ele>49.460448</ele>
        <time>2022-12-15T11:28:36.588Z</time>
      </trkpt>
      <trkpt lat="47.67395" lon="-2.09081">
        <ele>49.464887</ele>
        <time>2022-12-15T11:28:39.581Z</time>
      </trkpt>
      <trkpt lat="47.67385" lon="-2.0907">
        <ele>49.318082</ele>
        <time>2022-12-15T11:28:42.560Z</time>
      </trkpt>
      <trkpt lat="47.67376" lon="-2.09061">
        <ele>49.189545</ele>
        <time>2022-12-15T11:28:45.579Z</time>
      </trkpt>
      <trkpt lat="47.67368" lon="-2.09052">
        <ele>49.069856</ele>
        <time>2022-12-15T11:28:48.577Z</time>
      </trkpt>
      <trkpt lat="47.67358" lon="-2.09042">
        <ele>48.936647</ele>
        <time>2022-12-15T11:28:51.576Z</time>
      </trkpt>
      <trkpt lat="47.67349" lon="-2.09031">
        <ele>48.801429</ele>
        <time>2022-12-15T11:28:54.574Z</time>
      </trkpt>
      <trkpt lat="47.6734" lon="-2.0902">
        <ele>48.663051</ele>
        <time>2022-12-15T11:28:57.579Z</time>
      </trkpt>
      <trkpt lat="47.6733" lon="-2.09009">
        <ele>48.519509</ele>
        <time>2022-12-15T11:29:00.576Z</time>
      </trkpt>
      <trkpt lat="47.6732" lon="-2.08997">
        <ele>48.371767</ele>
        <time>2022-12-15T11:29:03.561Z</time>
      </trkpt>
      <trkpt lat="47.67309" lon="-2.08986">
        <ele>48.218842</ele>
        <time>2022-12-15T11:29:06.576Z</time>
      </trkpt>
      <trkpt lat="47.67301" lon="-2.08975">
        <ele>48.084411</ele>
        <time>2022-12-15T11:29:09.576Z</time>
      </trkpt>
      <trkpt lat="47.6729" lon="-2.08964">
        <ele>47.93343</ele>
        <time>2022-12-15T11:29:12.573Z</time>
      </trkpt>
      <trkpt lat="47.6728" lon="-2.08953">
        <ele>47.783364</ele>
        <time>2022-12-15T11:29:15.572Z</time>
      </trkpt>
      <trkpt lat="47.67271" lon="-2.08942">
        <ele>47.650144</ele>
        <time>2022-12-15T11:29:18.567Z</time>
      </trkpt>
      <trkpt lat="47.67262" lon="-2.08933">
        <ele>47.529481</ele>
        <time>2022-12-15T11:29:21.576Z</time>
      </trkpt>
      <trkpt lat="47.67255" lon="-2.08923">
        <ele>47.411407</ele>
        <time>2022-12-15T11:29:24.593Z</time>
      </trkpt>
      <trkpt lat="47.67246" lon="-2.08914">
        <ele>47.445758</ele>
        <time>2022-12-15T11:29:27.581Z</time>
      </trkpt>
      <trkpt lat="47.67236" lon="-2.08904">
        <ele>47.489607</ele>
        <time>2022-12-15T11:29:30.568Z</time>
      </trkpt>
      <trkpt lat="47.67227" lon="-2.08895">
        <ele>47.529892</ele>
        <time>2022-12-15T11:29:33.577Z</time>
      </trkpt>
      <trkpt lat="47.67218" lon="-2.08886">
        <ele>47.571125</ele>
        <time>2022-12-15T11:29:36.585Z</time>
      </trkpt>
      <trkpt lat="47.67208" lon="-2.08878">
        <ele>47.61598</ele>
        <time>2022-12-15T11:29:39.576Z</time>
      </trkpt>
      <trkpt lat="47.67198" lon="-2.0887">
        <ele>47.660636</ele>
        <time>2022-12-15T11:29:42.579Z</time>
      </trkpt>
      <trkpt lat="47.67187" lon="-2.08863">
        <ele>47.706522</ele>
        <time>2022-12-15T11:29:45.585Z</time>
      </trkpt>
      <trkpt lat="47.67176" lon="-2.08856">
        <ele>47.752213</ele>
        <time>2022-12-15T11:29:48.575Z</time>
      </trkpt>
      <trkpt lat="47.67164" lon="-2.08851">
        <ele>47.797922</ele>
        <time>2022-12-15T11:29:51.577Z</time>
      </trkpt>
      <trkpt lat="47.67153" lon="-2.08846">
        <ele>47.841138</ele>
        <time>2022-12-15T11:29:54.564Z</time>
      </trkpt>
      <trkpt lat="47.67143" lon="-2.08842">
        <ele>47.880564</ele>
        <time>2022-12-15T11:29:57.577Z</time>
      </trkpt>
      <trkpt lat="47.67133" lon="-2.08838">
        <ele>47.921657</ele>
        <time>2022-12-15T11:30:00.573Z</time>
      </trkpt>
      <trkpt lat="47.67121" lon="-2.08836">
        <ele>47.965942</ele>
        <time>2022-12-15T11:30:03.568Z</time>
      </trkpt>
      <trkpt lat="47.67111" lon="-2.08835">
        <ele>48.00719</ele>
        <time>2022-12-15T11:30:06.577Z</time>
      </trkpt>
      <trkpt lat="47.67099" lon="-2.08834">
        <ele>48.0515</ele>
        <time>2022-12-15T11:30:09.574Z</time>
      </trkpt>
      <trkpt lat="47.67088" lon="-2.08834">
        <ele>48.112948</ele>
        <time>2022-12-15T11:30:12.578Z</time>
      </trkpt>
      <trkpt lat="47.67076" lon="-2.08834">
        <ele>48.401306</ele>
        <time>2022-12-15T11:30:15.581Z</time>
      </trkpt>
      <trkpt lat="47.67064" lon="-2.08835">
        <ele>48.705062</ele>
        <time>2022-12-15T11:30:18.575Z</time>
      </trkpt>
      <trkpt lat="47.67052" lon="-2.08838">
        <ele>49.013759</ele>
        <time>2022-12-15T11:30:21.577Z</time>
      </trkpt>
      <trkpt lat="47.6704" lon="-2.0884">
        <ele>49.326194</ele>
        <time>2022-12-15T11:30:24.585Z</time>
      </trkpt>
      <trkpt lat="47.67028" lon="-2.08844">
        <ele>49.628692</ele>
        <time>2022-12-15T11:30:27.577Z</time>
      </trkpt>
      <trkpt lat="47.67016" lon="-2.08849">
        <ele>49.947845</ele>
        <time>2022-12-15T11:30:30.578Z</time>
      </trkpt>
      <trkpt lat="47.67004" lon="-2.08854">
        <ele>50.271046</ele>
        <time>2022-12-15T11:30:33.576Z</time>
      </trkpt>
      <trkpt lat="47.66991" lon="-2.08859">
        <ele>50.592484</ele>
        <time>2022-12-15T11:30:36.578Z</time>
      </trkpt>
      <trkpt lat="47.66979" lon="-2.08865">
        <ele>50.91801</ele>
        <time>2022-12-15T11:30:39.579Z</time>
      </trkpt>
      <trkpt lat="47.66967" lon="-2.08873">
        <ele>51.247633</ele>
        <time>2022-12-15T11:30:42.579Z</time>
      </trkpt>
      <trkpt lat="47.66956" lon="-2.0888">
        <ele>51.561324</ele>
        <time>2022-12-15T11:30:45.576Z</time>
      </trkpt>
      <trkpt lat="47.66945" lon="-2.0889">
        <ele>51.876574</ele>
        <time>2022-12-15T11:30:48.576Z</time>
      </trkpt>
      <trkpt lat="47.66935" lon="-2.089">
        <ele>52.195736</ele>
        <time>2022-12-15T11:30:51.578Z</time>
      </trkpt>
      <trkpt lat="47.66925" lon="-2.0891">
        <ele>52.493373</ele>
        <time>2022-12-15T11:30:54.575Z</time>
      </trkpt>
      <trkpt lat="47.66916" lon="-2.08921">
        <ele>52.691698</ele>
        <time>2022-12-15T11:30:57.577Z</time>
      </trkpt>
      <trkpt lat="47.66907" lon="-2.08932">
        <ele>52.787742</ele>
        <time>2022-12-15T11:31:00.576Z</time>
      </trkpt>
      <trkpt lat="47.669" lon="-2.08942">
        <ele>52.871242</ele>
        <time>2022-12-15T11:31:03.608Z</time>
      </trkpt>
      <trkpt lat="47.66892" lon="-2.08953">
        <ele>52.96511</ele>
        <time>2022-12-15T11:31:06.578Z</time>
      </trkpt>
      <trkpt lat="47.66885" lon="-2.08965">
        <ele>53.057512</ele>
        <time>2022-12-15T11:31:09.638Z</time>
      </trkpt>
      <trkpt lat="47.66876" lon="-2.0898">
        <ele>53.168108</ele>
        <time>2022-12-15T11:31:12.576Z</time>
      </trkpt>
      <trkpt lat="47.66868" lon="-2.08996">
        <ele>53.283748</ele>
        <time>2022-12-15T11:31:15.625Z</time>
      </trkpt>
      <trkpt lat="47.6686" lon="-2.09011">
        <ele>53.391465</ele>
        <time>2022-12-15T11:31:18.590Z</time>
      </trkpt>
      <trkpt lat="47.66853" lon="-2.09025">
        <ele>53.489173</ele>
        <time>2022-12-15T11:31:21.622Z</time>
      </trkpt>
      <trkpt lat="47.66845" lon="-2.09039">
        <ele>53.597613</ele>
        <time>2022-12-15T11:31:24.576Z</time>
      </trkpt>
      <trkpt lat="47.66838" lon="-2.09055">
        <ele>53.707571</ele>
        <time>2022-12-15T11:31:27.626Z</time>
      </trkpt>
      <trkpt lat="47.66831" lon="-2.09071">
        <ele>53.812788</ele>
        <time>2022-12-15T11:31:30.575Z</time>
      </trkpt>
      <trkpt lat="47.66824" lon="-2.09086">
        <ele>53.921821</ele>
        <time>2022-12-15T11:31:33.621Z</time>
      </trkpt>
      <trkpt lat="47.66816" lon="-2.09102">
        <ele>54.034726</ele>
        <time>2022-12-15T11:31:36.576Z</time>
      </trkpt>
      <trkpt lat="47.66811" lon="-2.09113">
        <ele>54.111037</ele>
        <time>2022-12-15T11:31:38.576Z</time>
      </trkpt>
      <trkpt lat="47.66803" lon="-2.09129">
        <ele>54.185444</ele>
        <time>2022-12-15T11:31:41.579Z</time>
      </trkpt>
      <trkpt lat="47.66797" lon="-2.09145">
        <ele>54.222818</ele>
        <time>2022-12-15T11:31:44.576Z</time>
      </trkpt>
      <trkpt lat="47.66789" lon="-2.0916">
        <ele>54.261212</ele>
        <time>2022-12-15T11:31:47.583Z</time>
      </trkpt>
      <trkpt lat="47.66782" lon="-2.09176">
        <ele>54.298751</ele>
        <time>2022-12-15T11:31:50.582Z</time>
      </trkpt>
      <trkpt lat="47.66775" lon="-2.0919">
        <ele>54.334207</ele>
        <time>2022-12-15T11:31:53.576Z</time>
      </trkpt>
      <trkpt lat="47.66767" lon="-2.09205">
        <ele>54.371477</ele>
        <time>2022-12-15T11:31:56.576Z</time>
      </trkpt>
      <trkpt lat="47.6676" lon="-2.0922">
        <ele>54.408028</ele>
        <time>2022-12-15T11:31:59.575Z</time>
      </trkpt>
      <trkpt lat="47.66753" lon="-2.09235">
        <ele>54.444902</ele>
        <time>2022-12-15T11:32:02.575Z</time>
      </trkpt>
      <trkpt lat="47.66745" lon="-2.0925">
        <ele>54.482037</ele>
        <time>2022-12-15T11:32:05.576Z</time>
      </trkpt>
      <trkpt lat="47.66738" lon="-2.09265">
        <ele>54.519742</ele>
        <time>2022-12-15T11:32:08.560Z</time>
      </trkpt>
      <trkpt lat="47.66731" lon="-2.09282">
        <ele>54.559108</ele>
        <time>2022-12-15T11:32:11.561Z</time>
      </trkpt>
      <trkpt lat="47.66723" lon="-2.09297">
        <ele>54.598177</ele>
        <time>2022-12-15T11:32:14.575Z</time>
      </trkpt>
      <trkpt lat="47.66716" lon="-2.09312">
        <ele>54.634253</ele>
        <time>2022-12-15T11:32:17.578Z</time>
      </trkpt>
      <trkpt lat="47.66709" lon="-2.09326">
        <ele>54.668801</ele>
        <time>2022-12-15T11:32:20.630Z</time>
      </trkpt>
      <trkpt lat="47.66702" lon="-2.09341">
        <ele>54.683976</ele>
        <time>2022-12-15T11:32:23.576Z</time>
      </trkpt>
      <trkpt lat="47.66695" lon="-2.09356">
        <ele>54.528352</ele>
        <time>2022-12-15T11:32:26.635Z</time>
      </trkpt>
      <trkpt lat="47.66688" lon="-2.0937">
        <ele>54.376117</ele>
        <time>2022-12-15T11:32:29.576Z</time>
      </trkpt>
      <trkpt lat="47.6668" lon="-2.09386">
        <ele>54.217033</ele>
        <time>2022-12-15T11:32:32.563Z</time>
      </trkpt>
      <trkpt lat="47.66674" lon="-2.09401">
        <ele>54.060089</ele>
        <time>2022-12-15T11:32:35.578Z</time>
      </trkpt>
      <trkpt lat="47.66666" lon="-2.09417">
        <ele>53.900348</ele>
        <time>2022-12-15T11:32:38.578Z</time>
      </trkpt>
      <trkpt lat="47.66658" lon="-2.09432">
        <ele>53.738226</ele>
        <time>2022-12-15T11:32:41.552Z</time>
      </trkpt>
      <trkpt lat="47.66651" lon="-2.09447">
        <ele>53.586108</ele>
        <time>2022-12-15T11:32:44.576Z</time>
      </trkpt>
      <trkpt lat="47.66644" lon="-2.09462">
        <ele>53.432522</ele>
        <time>2022-12-15T11:32:47.578Z</time>
      </trkpt>
      <trkpt lat="47.66637" lon="-2.09477">
        <ele>53.278992</ele>
        <time>2022-12-15T11:32:50.573Z</time>
      </trkpt>
      <trkpt lat="47.6663" lon="-2.09492">
        <ele>53.121344</ele>
        <time>2022-12-15T11:32:53.586Z</time>
      </trkpt>
      <trkpt lat="47.66622" lon="-2.09507">
        <ele>52.963567</ele>
        <time>2022-12-15T11:32:56.638Z</time>
      </trkpt>
      <trkpt lat="47.66614" lon="-2.09522">
        <ele>52.805719</ele>
        <time>2022-12-15T11:32:59.575Z</time>
      </trkpt>
      <trkpt lat="47.66607" lon="-2.09538">
        <ele>52.645261</ele>
        <time>2022-12-15T11:33:02.624Z</time>
      </trkpt>
      <trkpt lat="47.666" lon="-2.09551">
        <ele>52.502544</ele>
        <time>2022-12-15T11:33:05.581Z</time>
      </trkpt>
      <trkpt lat="47.66592" lon="-2.09565">
        <ele>52.556399</ele>
        <time>2022-12-15T11:33:08.563Z</time>
      </trkpt>
      <trkpt lat="47.66585" lon="-2.09579">
        <ele>52.69654</ele>
        <time>2022-12-15T11:33:11.576Z</time>
      </trkpt>
      <trkpt lat="47.66578" lon="-2.09593">
        <ele>52.83109</ele>
        <time>2022-12-15T11:33:14.587Z</time>
      </trkpt>
      <trkpt lat="47.66571" lon="-2.09606">
        <ele>52.959468</ele>
        <time>2022-12-15T11:33:17.576Z</time>
      </trkpt>
      <trkpt lat="47.66564" lon="-2.0962">
        <ele>53.09693</ele>
        <time>2022-12-15T11:33:20.576Z</time>
      </trkpt>
      <trkpt lat="47.66557" lon="-2.09635">
        <ele>53.241336</ele>
        <time>2022-12-15T11:33:23.578Z</time>
      </trkpt>
      <trkpt lat="47.6655" lon="-2.0965">
        <ele>53.38372</ele>
        <time>2022-12-15T11:33:26.576Z</time>
      </trkpt>
      <trkpt lat="47.66543" lon="-2.09665">
        <ele>53.528093</ele>
        <time>2022-12-15T11:33:29.579Z</time>
      </trkpt>
      <trkpt lat="47.66536" lon="-2.0968">
        <ele>53.672549</ele>
        <time>2022-12-15T11:33:32.588Z</time>
      </trkpt>
      <trkpt lat="47.66528" lon="-2.09696">
        <ele>53.827448</ele>
        <time>2022-12-15T11:33:35.576Z</time>
      </trkpt>
      <trkpt lat="47.66521" lon="-2.09712">
        <ele>53.981601</ele>
        <time>2022-12-15T11:33:38.579Z</time>
      </trkpt>
      <trkpt lat="47.66513" lon="-2.09727">
        <ele>54.130208</ele>
        <time>2022-12-15T11:33:41.583Z</time>
      </trkpt>
      <trkpt lat="47.66505" lon="-2.09742">
        <ele>54.28461</ele>
        <time>2022-12-15T11:33:44.563Z</time>
      </trkpt>
      <trkpt lat="47.66496" lon="-2.09757">
        <ele>54.440493</ele>
        <time>2022-12-15T11:33:47.578Z</time>
      </trkpt>
      <trkpt lat="47.66488" lon="-2.09772">
        <ele>54.557124</ele>
        <time>2022-12-15T11:33:50.578Z</time>
      </trkpt>
      <trkpt lat="47.66479" lon="-2.09784">
        <ele>54.552189</ele>
        <time>2022-12-15T11:33:53.578Z</time>
      </trkpt>
      <trkpt lat="47.6647" lon="-2.09794">
        <ele>54.547848</ele>
        <time>2022-12-15T11:33:56.576Z</time>
      </trkpt>
      <trkpt lat="47.66461" lon="-2.09802">
        <ele>54.543679</ele>
        <time>2022-12-15T11:33:59.613Z</time>
      </trkpt>
      <trkpt lat="47.66452" lon="-2.09808">
        <ele>54.539344</ele>
        <time>2022-12-15T11:34:02.580Z</time>
      </trkpt>
      <trkpt lat="47.6644" lon="-2.09815">
        <ele>54.534416</ele>
        <time>2022-12-15T11:34:05.576Z</time>
      </trkpt>
      <trkpt lat="47.66429" lon="-2.09822">
        <ele>54.529404</ele>
        <time>2022-12-15T11:34:08.586Z</time>
      </trkpt>
      <trkpt lat="47.66417" lon="-2.09828">
        <ele>54.524409</ele>
        <time>2022-12-15T11:34:11.578Z</time>
      </trkpt>
      <trkpt lat="47.66405" lon="-2.09835">
        <ele>54.519387</ele>
        <time>2022-12-15T11:34:14.587Z</time>
      </trkpt>
      <trkpt lat="47.66392" lon="-2.09844">
        <ele>54.513645</ele>
        <time>2022-12-15T11:34:17.576Z</time>
      </trkpt>
      <trkpt lat="47.66384" lon="-2.09849">
        <ele>54.509898</ele>
        <time>2022-12-15T11:34:19.578Z</time>
      </trkpt>
      <trkpt lat="47.66373" lon="-2.09855">
        <ele>54.505037</ele>
        <time>2022-12-15T11:34:22.589Z</time>
      </trkpt>
      <trkpt lat="47.66361" lon="-2.09861">
        <ele>54.500289</ele>
        <time>2022-12-15T11:34:25.580Z</time>
      </trkpt>
      <trkpt lat="47.66349" lon="-2.09867">
        <ele>54.495159</ele>
        <time>2022-12-15T11:34:28.562Z</time>
      </trkpt>
      <trkpt lat="47.66338" lon="-2.09874">
        <ele>54.490192</ele>
        <time>2022-12-15T11:34:31.583Z</time>
      </trkpt>
      <trkpt lat="47.66326" lon="-2.0988">
        <ele>54.477261</ele>
        <time>2022-12-15T11:34:34.578Z</time>
      </trkpt>
      <trkpt lat="47.66314" lon="-2.09887">
        <ele>54.414389</ele>
        <time>2022-12-15T11:34:37.580Z</time>
      </trkpt>
      <trkpt lat="47.66303" lon="-2.09893">
        <ele>54.354037</ele>
        <time>2022-12-15T11:34:40.578Z</time>
      </trkpt>
      <trkpt lat="47.66293" lon="-2.09896">
        <ele>54.298244</ele>
        <time>2022-12-15T11:34:43.579Z</time>
      </trkpt>
      <trkpt lat="47.66283" lon="-2.09903">
        <ele>54.243482</ele>
        <time>2022-12-15T11:34:46.590Z</time>
      </trkpt>
      <trkpt lat="47.66272" lon="-2.0991">
        <ele>54.183784</ele>
        <time>2022-12-15T11:34:49.578Z</time>
      </trkpt>
      <trkpt lat="47.66265" lon="-2.09917">
        <ele>54.137109</ele>
        <time>2022-12-15T11:34:52.576Z</time>
      </trkpt>
      <trkpt lat="47.66257" lon="-2.09925">
        <ele>54.088828</ele>
        <time>2022-12-15T11:34:56.578Z</time>
      </trkpt>
      <trkpt lat="47.66246" lon="-2.09932">
        <ele>54.028016</ele>
        <time>2022-12-15T11:35:00.575Z</time>
      </trkpt>
      <trkpt lat="47.66235" lon="-2.09938">
        <ele>53.970285</ele>
        <time>2022-12-15T11:35:03.564Z</time>
      </trkpt>
      <trkpt lat="47.66224" lon="-2.09944">
        <ele>53.909095</ele>
        <time>2022-12-15T11:35:06.583Z</time>
      </trkpt>
      <trkpt lat="47.66212" lon="-2.09951">
        <ele>53.8437</ele>
        <time>2022-12-15T11:35:09.655Z</time>
      </trkpt>
      <trkpt lat="47.66201" lon="-2.09959">
        <ele>53.779425</ele>
        <time>2022-12-15T11:35:12.589Z</time>
      </trkpt>
      <trkpt lat="47.66189" lon="-2.09966">
        <ele>53.716398</ele>
        <time>2022-12-15T11:35:15.624Z</time>
      </trkpt>
      <trkpt lat="47.66178" lon="-2.09974">
        <ele>53.652163</ele>
        <time>2022-12-15T11:35:18.590Z</time>
      </trkpt>
      <trkpt lat="47.66166" lon="-2.0998">
        <ele>53.589048</ele>
        <time>2022-12-15T11:35:21.650Z</time>
      </trkpt>
      <trkpt lat="47.66158" lon="-2.09985">
        <ele>53.601117</ele>
        <time>2022-12-15T11:35:23.587Z</time>
      </trkpt>
      <trkpt lat="47.66145" lon="-2.09992">
        <ele>53.697875</ele>
        <time>2022-12-15T11:35:26.590Z</time>
      </trkpt>
      <trkpt lat="47.66136" lon="-2.09996">
        <ele>53.765842</ele>
        <time>2022-12-15T11:35:28.580Z</time>
      </trkpt>
      <trkpt lat="47.66127" lon="-2.10001">
        <ele>53.838505</ele>
        <time>2022-12-15T11:35:30.581Z</time>
      </trkpt>
      <trkpt lat="47.66115" lon="-2.10008">
        <ele>53.935435</ele>
        <time>2022-12-15T11:35:33.657Z</time>
      </trkpt>
      <trkpt lat="47.66101" lon="-2.10013">
        <ele>54.0353</ele>
        <time>2022-12-15T11:35:36.579Z</time>
      </trkpt>
      <trkpt lat="47.66092" lon="-2.10017">
        <ele>54.10495</ele>
        <time>2022-12-15T11:35:38.578Z</time>
      </trkpt>
      <trkpt lat="47.66083" lon="-2.10019">
        <ele>54.175004</ele>
        <time>2022-12-15T11:35:40.577Z</time>
      </trkpt>
      <trkpt lat="47.6607" lon="-2.10023">
        <ele>54.267352</ele>
        <time>2022-12-15T11:35:43.589Z</time>
      </trkpt>
      <trkpt lat="47.66057" lon="-2.10026">
        <ele>54.363896</ele>
        <time>2022-12-15T11:35:46.579Z</time>
      </trkpt>
      <trkpt lat="47.66048" lon="-2.10029">
        <ele>54.432296</ele>
        <time>2022-12-15T11:35:48.578Z</time>
      </trkpt>
      <trkpt lat="47.66039" lon="-2.10031">
        <ele>54.500263</ele>
        <time>2022-12-15T11:35:50.577Z</time>
      </trkpt>
      <trkpt lat="47.66029" lon="-2.10035">
        <ele>54.571897</ele>
        <time>2022-12-15T11:35:52.576Z</time>
      </trkpt>
      <trkpt lat="47.6602" lon="-2.10038">
        <ele>54.639582</ele>
        <time>2022-12-15T11:35:54.576Z</time>
      </trkpt>
      <trkpt lat="47.66011" lon="-2.1004">
        <ele>54.706109</ele>
        <time>2022-12-15T11:35:56.576Z</time>
      </trkpt>
      <trkpt lat="47.66002" lon="-2.10042">
        <ele>54.773729</ele>
        <time>2022-12-15T11:35:58.590Z</time>
      </trkpt>
      <trkpt lat="47.65993" lon="-2.10044">
        <ele>54.841512</ele>
        <time>2022-12-15T11:36:00.578Z</time>
      </trkpt>
      <trkpt lat="47.65984" lon="-2.10047">
        <ele>54.866086</ele>
        <time>2022-12-15T11:36:02.587Z</time>
      </trkpt>
      <trkpt lat="47.65975" lon="-2.1005">
        <ele>54.838489</ele>
        <time>2022-12-15T11:36:04.578Z</time>
      </trkpt>
      <trkpt lat="47.65965" lon="-2.10053">
        <ele>54.809451</ele>
        <time>2022-12-15T11:36:06.589Z</time>
      </trkpt>
      <trkpt lat="47.65955" lon="-2.10055">
        <ele>54.780803</ele>
        <time>2022-12-15T11:36:08.577Z</time>
      </trkpt>
      <trkpt lat="47.65946" lon="-2.10059">
        <ele>54.752489</ele>
        <time>2022-12-15T11:36:10.579Z</time>
      </trkpt>
      <trkpt lat="47.65937" lon="-2.10062">
        <ele>54.725797</ele>
        <time>2022-12-15T11:36:12.586Z</time>
      </trkpt>
      <trkpt lat="47.65928" lon="-2.10064">
        <ele>54.698113</ele>
        <time>2022-12-15T11:36:14.588Z</time>
      </trkpt>
      <trkpt lat="47.65919" lon="-2.10066">
        <ele>54.671332</ele>
        <time>2022-12-15T11:36:16.577Z</time>
      </trkpt>
      <trkpt lat="47.6591" lon="-2.10069">
        <ele>54.643295</ele>
        <time>2022-12-15T11:36:18.576Z</time>
      </trkpt>
      <trkpt lat="47.659" lon="-2.10071">
        <ele>54.615551</ele>
        <time>2022-12-15T11:36:20.579Z</time>
      </trkpt>
      <trkpt lat="47.65888" lon="-2.10075">
        <ele>54.577423</ele>
        <time>2022-12-15T11:36:23.568Z</time>
      </trkpt>
      <trkpt lat="47.65875" lon="-2.10079">
        <ele>54.538429</ele>
        <time>2022-12-15T11:36:26.561Z</time>
      </trkpt>
      <trkpt lat="47.65866" lon="-2.10082">
        <ele>54.5112</ele>
        <time>2022-12-15T11:36:28.581Z</time>
      </trkpt>
      <trkpt lat="47.65857" lon="-2.10084">
        <ele>54.484296</ele>
        <time>2022-12-15T11:36:30.575Z</time>
      </trkpt>
      <trkpt lat="47.65844" lon="-2.10087">
        <ele>54.445916</ele>
        <time>2022-12-15T11:36:33.598Z</time>
      </trkpt>
      <trkpt lat="47.65835" lon="-2.10091">
        <ele>54.418861</ele>
        <time>2022-12-15T11:36:35.580Z</time>
      </trkpt>
      <trkpt lat="47.65826" lon="-2.10094">
        <ele>54.390535</ele>
        <time>2022-12-15T11:36:37.588Z</time>
      </trkpt>
      <trkpt lat="47.65816" lon="-2.10097">
        <ele>54.362618</ele>
        <time>2022-12-15T11:36:39.650Z</time>
      </trkpt>
      <trkpt lat="47.65807" lon="-2.10101">
        <ele>54.306238</ele>
        <time>2022-12-15T11:36:41.589Z</time>
      </trkpt>
      <trkpt lat="47.65798" lon="-2.10103">
        <ele>54.218618</ele>
        <time>2022-12-15T11:36:43.579Z</time>
      </trkpt>
      <trkpt lat="47.65788" lon="-2.10106">
        <ele>54.132182</ele>
        <time>2022-12-15T11:36:45.603Z</time>
      </trkpt>
      <trkpt lat="47.65779" lon="-2.10108">
        <ele>54.045194</ele>
        <time>2022-12-15T11:36:47.589Z</time>
      </trkpt>
      <trkpt lat="47.65769" lon="-2.10111">
        <ele>53.957879</ele>
        <time>2022-12-15T11:36:49.591Z</time>
      </trkpt>
      <trkpt lat="47.65759" lon="-2.10113">
        <ele>53.865463</ele>
        <time>2022-12-15T11:36:51.643Z</time>
      </trkpt>
      <trkpt lat="47.65749" lon="-2.10116">
        <ele>53.777736</ele>
        <time>2022-12-15T11:36:53.578Z</time>
      </trkpt>
      <trkpt lat="47.6574" lon="-2.10118">
        <ele>53.68923</ele>
        <time>2022-12-15T11:36:55.587Z</time>
      </trkpt>
      <trkpt lat="47.65731" lon="-2.10121">
        <ele>53.607443</ele>
        <time>2022-12-15T11:36:57.629Z</time>
      </trkpt>
      <trkpt lat="47.65719" lon="-2.10125">
        <ele>53.495156</ele>
        <time>2022-12-15T11:37:00.581Z</time>
      </trkpt>
      <trkpt lat="47.65706" lon="-2.10128">
        <ele>53.377232</ele>
        <time>2022-12-15T11:37:03.596Z</time>
      </trkpt>
      <trkpt lat="47.65694" lon="-2.10132">
        <ele>53.270441</ele>
        <time>2022-12-15T11:37:06.578Z</time>
      </trkpt>
      <trkpt lat="47.65681" lon="-2.10136">
        <ele>53.151844</ele>
        <time>2022-12-15T11:37:09.595Z</time>
      </trkpt>
      <trkpt lat="47.65672" lon="-2.1014">
        <ele>53.070486</ele>
        <time>2022-12-15T11:37:11.590Z</time>
      </trkpt>
      <trkpt lat="47.65659" lon="-2.10144">
        <ele>52.945481</ele>
        <time>2022-12-15T11:37:14.577Z</time>
      </trkpt>
      <trkpt lat="47.65649" lon="-2.10146">
        <ele>52.855956</ele>
        <time>2022-12-15T11:37:16.564Z</time>
      </trkpt>
      <trkpt lat="47.65639" lon="-2.10149">
        <ele>52.768641</ele>
        <time>2022-12-15T11:37:18.568Z</time>
      </trkpt>
      <trkpt lat="47.6563" lon="-2.10151">
        <ele>52.700118</ele>
        <time>2022-12-15T11:37:20.576Z</time>
      </trkpt>
      <trkpt lat="47.6562" lon="-2.10154">
        <ele>52.645258</ele>
        <time>2022-12-15T11:37:22.573Z</time>
      </trkpt>
      <trkpt lat="47.65611" lon="-2.10156">
        <ele>52.593724</ele>
        <time>2022-12-15T11:37:24.562Z</time>
      </trkpt>
      <trkpt lat="47.656" lon="-2.1016">
        <ele>52.529836</ele>
        <time>2022-12-15T11:37:27.612Z</time>
      </trkpt>
      <trkpt lat="47.65589" lon="-2.10163">
        <ele>52.465953</ele>
        <time>2022-12-15T11:37:30.586Z</time>
      </trkpt>
      <trkpt lat="47.65579" lon="-2.10165">
        <ele>52.407412</ele>
        <time>2022-12-15T11:37:33.653Z</time>
      </trkpt>
      <trkpt lat="47.65569" lon="-2.10161">
        <ele>52.348083</ele>
        <time>2022-12-15T11:37:36.586Z</time>
      </trkpt>
      <trkpt lat="47.65559" lon="-2.10152">
        <ele>52.283463</ele>
        <time>2022-12-15T11:37:40.569Z</time>
      </trkpt>
      <trkpt lat="47.6555" lon="-2.10152">
        <ele>52.230226</ele>
        <time>2022-12-15T11:37:44.576Z</time>
      </trkpt>
      <trkpt lat="47.6554" lon="-2.10156">
        <ele>52.174265</ele>
        <time>2022-12-15T11:37:49.580Z</time>
      </trkpt>
      <trkpt lat="47.65533" lon="-2.10164">
        <ele>52.122702</ele>
        <time>2022-12-15T11:37:52.577Z</time>
      </trkpt>
      <trkpt lat="47.65523" lon="-2.10167">
        <ele>52.063652</ele>
        <time>2022-12-15T11:37:55.578Z</time>
      </trkpt>
      <trkpt lat="47.65512" lon="-2.10167">
        <ele>52.002543</ele>
        <time>2022-12-15T11:37:58.582Z</time>
      </trkpt>
      <trkpt lat="47.65501" lon="-2.10167">
        <ele>51.941452</ele>
        <time>2022-12-15T11:38:01.592Z</time>
      </trkpt>
      <trkpt lat="47.65489" lon="-2.10166">
        <ele>51.873394</ele>
        <time>2022-12-15T11:38:04.572Z</time>
      </trkpt>
      <trkpt lat="47.65476" lon="-2.10165">
        <ele>51.802021</ele>
        <time>2022-12-15T11:38:07.577Z</time>
      </trkpt>
      <trkpt lat="47.65465" lon="-2.10168">
        <ele>51.735694</ele>
        <time>2022-12-15T11:38:10.589Z</time>
      </trkpt>
      <trkpt lat="47.65454" lon="-2.10164">
        <ele>51.681529</ele>
        <time>2022-12-15T11:38:13.582Z</time>
      </trkpt>
      <trkpt lat="47.65444" lon="-2.10155">
        <ele>51.628249</ele>
        <time>2022-12-15T11:38:16.580Z</time>
      </trkpt>
      <trkpt lat="47.65435" lon="-2.10147">
        <ele>51.576949</ele>
        <time>2022-12-15T11:38:19.581Z</time>
      </trkpt>
      <trkpt lat="47.65425" lon="-2.1014">
        <ele>51.527698</ele>
        <time>2022-12-15T11:38:22.578Z</time>
      </trkpt>
      <trkpt lat="47.65418" lon="-2.10133">
        <ele>51.486068</ele>
        <time>2022-12-15T11:38:25.581Z</time>
      </trkpt>
      <trkpt lat="47.65406" lon="-2.10124">
        <ele>51.427732</ele>
        <time>2022-12-15T11:38:29.589Z</time>
      </trkpt>
      <trkpt lat="47.65395" lon="-2.10115">
        <ele>51.366373</ele>
        <time>2022-12-15T11:38:32.620Z</time>
      </trkpt>
      <trkpt lat="47.65383" lon="-2.10107">
        <ele>51.308606</ele>
        <time>2022-12-15T11:38:35.577Z</time>
      </trkpt>
      <trkpt lat="47.65374" lon="-2.10098">
        <ele>51.25588</ele>
        <time>2022-12-15T11:38:38.624Z</time>
      </trkpt>
      <trkpt lat="47.65364" lon="-2.10089">
        <ele>51.203384</ele>
        <time>2022-12-15T11:38:41.578Z</time>
      </trkpt>
      <trkpt lat="47.65354" lon="-2.10079">
        <ele>51.149592</ele>
        <time>2022-12-15T11:38:44.651Z</time>
      </trkpt>
      <trkpt lat="47.65345" lon="-2.10069">
        <ele>51.097099</ele>
        <time>2022-12-15T11:38:47.577Z</time>
      </trkpt>
      <trkpt lat="47.65337" lon="-2.10057">
        <ele>51.043736</ele>
        <time>2022-12-15T11:38:50.647Z</time>
      </trkpt>
      <trkpt lat="47.65329" lon="-2.10047">
        <ele>50.995471</ele>
        <time>2022-12-15T11:38:53.580Z</time>
      </trkpt>
      <trkpt lat="47.65322" lon="-2.10036">
        <ele>50.951835</ele>
        <time>2022-12-15T11:38:56.652Z</time>
      </trkpt>
      <trkpt lat="47.65315" lon="-2.10025">
        <ele>50.903845</ele>
        <time>2022-12-15T11:38:59.590Z</time>
      </trkpt>
      <trkpt lat="47.65308" lon="-2.10013">
        <ele>50.715885</ele>
        <time>2022-12-15T11:39:02.651Z</time>
      </trkpt>
      <trkpt lat="47.65301" lon="-2.10002">
        <ele>50.467385</ele>
        <time>2022-12-15T11:39:05.582Z</time>
      </trkpt>
      <trkpt lat="47.65293" lon="-2.09988">
        <ele>50.166912</ele>
        <time>2022-12-15T11:39:08.652Z</time>
      </trkpt>
      <trkpt lat="47.65286" lon="-2.09974">
        <ele>49.883373</ele>
        <time>2022-12-15T11:39:11.587Z</time>
      </trkpt>
      <trkpt lat="47.65279" lon="-2.09961">
        <ele>49.601364</ele>
        <time>2022-12-15T11:39:14.631Z</time>
      </trkpt>
      <trkpt lat="47.65273" lon="-2.09947">
        <ele>49.325726</ele>
        <time>2022-12-15T11:39:17.593Z</time>
      </trkpt>
      <trkpt lat="47.65266" lon="-2.09933">
        <ele>49.047315</ele>
        <time>2022-12-15T11:39:20.651Z</time>
      </trkpt>
      <trkpt lat="47.6526" lon="-2.09919">
        <ele>48.767445</ele>
        <time>2022-12-15T11:39:23.573Z</time>
      </trkpt>
      <trkpt lat="47.65254" lon="-2.09904">
        <ele>48.487651</ele>
        <time>2022-12-15T11:39:26.588Z</time>
      </trkpt>
      <trkpt lat="47.65249" lon="-2.0989">
        <ele>48.221438</ele>
        <time>2022-12-15T11:39:29.578Z</time>
      </trkpt>
      <trkpt lat="47.65243" lon="-2.09875">
        <ele>47.935657</ele>
        <time>2022-12-15T11:39:32.575Z</time>
      </trkpt>
      <trkpt lat="47.65239" lon="-2.0986">
        <ele>47.665354</ele>
        <time>2022-12-15T11:39:35.580Z</time>
      </trkpt>
      <trkpt lat="47.65234" lon="-2.09845">
        <ele>47.391474</ele>
        <time>2022-12-15T11:39:38.591Z</time>
      </trkpt>
      <trkpt lat="47.65229" lon="-2.0983">
        <ele>47.11099</ele>
        <time>2022-12-15T11:39:41.578Z</time>
      </trkpt>
      <trkpt lat="47.65223" lon="-2.09816">
        <ele>46.853909</ele>
        <time>2022-12-15T11:39:44.580Z</time>
      </trkpt>
      <trkpt lat="47.65219" lon="-2.09803">
        <ele>46.60594</ele>
        <time>2022-12-15T11:39:47.579Z</time>
      </trkpt>
      <trkpt lat="47.65214" lon="-2.09788">
        <ele>46.355682</ele>
        <time>2022-12-15T11:39:50.591Z</time>
      </trkpt>
      <trkpt lat="47.65209" lon="-2.09774">
        <ele>46.121803</ele>
        <time>2022-12-15T11:39:53.583Z</time>
      </trkpt>
      <trkpt lat="47.65204" lon="-2.0976">
        <ele>45.883936</ele>
        <time>2022-12-15T11:39:56.585Z</time>
      </trkpt>
      <trkpt lat="47.65199" lon="-2.09745">
        <ele>45.639184</ele>
        <time>2022-12-15T11:39:59.577Z</time>
      </trkpt>
      <trkpt lat="47.65194" lon="-2.09729">
        <ele>45.381134</ele>
        <time>2022-12-15T11:40:02.578Z</time>
      </trkpt>
      <trkpt lat="47.65189" lon="-2.09714">
        <ele>45.131083</ele>
        <time>2022-12-15T11:40:05.581Z</time>
      </trkpt>
      <trkpt lat="47.65185" lon="-2.09698">
        <ele>44.880549</ele>
        <time>2022-12-15T11:40:08.583Z</time>
      </trkpt>
      <trkpt lat="47.6518" lon="-2.09683">
        <ele>44.62754</ele>
        <time>2022-12-15T11:40:11.624Z</time>
      </trkpt>
      <trkpt lat="47.65174" lon="-2.09667">
        <ele>44.357319</ele>
        <time>2022-12-15T11:40:14.576Z</time>
      </trkpt>
      <trkpt lat="47.65169" lon="-2.09651">
        <ele>44.10099</ele>
        <time>2022-12-15T11:40:17.625Z</time>
      </trkpt>
      <trkpt lat="47.65165" lon="-2.09636">
        <ele>43.852412</ele>
        <time>2022-12-15T11:40:20.581Z</time>
      </trkpt>
      <trkpt lat="47.6516" lon="-2.09621">
        <ele>43.606337</ele>
        <time>2022-12-15T11:40:23.587Z</time>
      </trkpt>
      <trkpt lat="47.65155" lon="-2.09606">
        <ele>43.360853</ele>
        <time>2022-12-15T11:40:26.588Z</time>
      </trkpt>
      <trkpt lat="47.6515" lon="-2.0959">
        <ele>43.110421</ele>
        <time>2022-12-15T11:40:29.579Z</time>
      </trkpt>
      <trkpt lat="47.65145" lon="-2.09575">
        <ele>42.860496</ele>
        <time>2022-12-15T11:40:32.584Z</time>
      </trkpt>
      <trkpt lat="47.6514" lon="-2.0956">
        <ele>42.615011</ele>
        <time>2022-12-15T11:40:35.580Z</time>
      </trkpt>
      <trkpt lat="47.65135" lon="-2.09544">
        <ele>42.482854</ele>
        <time>2022-12-15T11:40:38.586Z</time>
      </trkpt>
      <trkpt lat="47.65131" lon="-2.09527">
        <ele>42.394176</ele>
        <time>2022-12-15T11:40:41.579Z</time>
      </trkpt>
      <trkpt lat="47.65126" lon="-2.09511">
        <ele>42.311216</ele>
        <time>2022-12-15T11:40:44.601Z</time>
      </trkpt>
      <trkpt lat="47.65121" lon="-2.09496">
        <ele>42.230233</ele>
        <time>2022-12-15T11:40:47.589Z</time>
      </trkpt>
      <trkpt lat="47.65117" lon="-2.09481">
        <ele>42.151049</ele>
        <time>2022-12-15T11:40:50.580Z</time>
      </trkpt>
      <trkpt lat="47.65112" lon="-2.09465">
        <ele>42.070255</ele>
        <time>2022-12-15T11:40:53.571Z</time>
      </trkpt>
      <trkpt lat="47.65107" lon="-2.0945">
        <ele>41.989906</ele>
        <time>2022-12-15T11:40:56.592Z</time>
      </trkpt>
      <trkpt lat="47.65102" lon="-2.09436">
        <ele>41.907847</ele>
        <time>2022-12-15T11:40:59.582Z</time>
      </trkpt>
      <trkpt lat="47.65096" lon="-2.09421">
        <ele>41.827147</ele>
        <time>2022-12-15T11:41:02.589Z</time>
      </trkpt>
      <trkpt lat="47.65091" lon="-2.09405">
        <ele>41.743608</ele>
        <time>2022-12-15T11:41:05.577Z</time>
      </trkpt>
      <trkpt lat="47.65087" lon="-2.09389">
        <ele>41.658874</ele>
        <time>2022-12-15T11:41:08.587Z</time>
      </trkpt>
      <trkpt lat="47.65082" lon="-2.09373">
        <ele>41.571672</ele>
        <time>2022-12-15T11:41:11.577Z</time>
      </trkpt>
      <trkpt lat="47.65077" lon="-2.09358">
        <ele>41.493685</ele>
        <time>2022-12-15T11:41:14.591Z</time>
      </trkpt>
      <trkpt lat="47.65072" lon="-2.09345">
        <ele>41.422701</ele>
        <time>2022-12-15T11:41:17.581Z</time>
      </trkpt>
      <trkpt lat="47.65067" lon="-2.09329">
        <ele>41.338127</ele>
        <time>2022-12-15T11:41:20.588Z</time>
      </trkpt>
      <trkpt lat="47.65062" lon="-2.09314">
        <ele>41.254186</ele>
        <time>2022-12-15T11:41:23.568Z</time>
      </trkpt>
      <trkpt lat="47.65057" lon="-2.09298">
        <ele>41.183815</ele>
        <time>2022-12-15T11:41:26.581Z</time>
      </trkpt>
      <trkpt lat="47.65052" lon="-2.09283">
        <ele>41.11461</ele>
        <time>2022-12-15T11:41:29.580Z</time>
      </trkpt>
      <trkpt lat="47.65047" lon="-2.09267">
        <ele>41.043881</ele>
        <time>2022-12-15T11:41:32.589Z</time>
      </trkpt>
      <trkpt lat="47.65042" lon="-2.09251">
        <ele>40.970034</ele>
        <time>2022-12-15T11:41:35.578Z</time>
      </trkpt>
      <trkpt lat="47.65037" lon="-2.09234">
        <ele>40.896061</ele>
        <time>2022-12-15T11:41:38.573Z</time>
      </trkpt>
      <trkpt lat="47.65033" lon="-2.09218">
        <ele>40.822707</ele>
        <time>2022-12-15T11:41:41.578Z</time>
      </trkpt>
      <trkpt lat="47.65027" lon="-2.09202">
        <ele>40.751121</ele>
        <time>2022-12-15T11:41:44.590Z</time>
      </trkpt>
      <trkpt lat="47.65022" lon="-2.09189">
        <ele>40.687626</ele>
        <time>2022-12-15T11:41:47.588Z</time>
      </trkpt>
      <trkpt lat="47.65017" lon="-2.09175">
        <ele>40.622904</ele>
        <time>2022-12-15T11:41:50.582Z</time>
      </trkpt>
      <trkpt lat="47.65012" lon="-2.0916">
        <ele>40.55478</ele>
        <time>2022-12-15T11:41:53.579Z</time>
      </trkpt>
      <trkpt lat="47.65007" lon="-2.09145">
        <ele>40.485282</ele>
        <time>2022-12-15T11:41:56.580Z</time>
      </trkpt>
      <trkpt lat="47.65002" lon="-2.09129">
        <ele>40.413298</ele>
        <time>2022-12-15T11:41:59.590Z</time>
      </trkpt>
      <trkpt lat="47.64998" lon="-2.09113">
        <ele>40.341821</ele>
        <time>2022-12-15T11:42:02.579Z</time>
      </trkpt>
      <trkpt lat="47.64992" lon="-2.09096">
        <ele>40.267091</ele>
        <time>2022-12-15T11:42:05.588Z</time>
      </trkpt>
      <trkpt lat="47.64987" lon="-2.09079">
        <ele>40.190245</ele>
        <time>2022-12-15T11:42:08.579Z</time>
      </trkpt>
      <trkpt lat="47.64982" lon="-2.09063">
        <ele>40.398457</ele>
        <time>2022-12-15T11:42:11.580Z</time>
      </trkpt>
      <trkpt lat="47.64977" lon="-2.09048">
        <ele>40.75587</ele>
        <time>2022-12-15T11:42:14.585Z</time>
      </trkpt>
      <trkpt lat="47.64973" lon="-2.09032">
        <ele>41.131837</ele>
        <time>2022-12-15T11:42:17.589Z</time>
      </trkpt>
      <trkpt lat="47.64968" lon="-2.09017">
        <ele>41.484871</ele>
        <time>2022-12-15T11:42:20.580Z</time>
      </trkpt>
      <trkpt lat="47.64964" lon="-2.09003">
        <ele>41.794617</ele>
        <time>2022-12-15T11:42:23.578Z</time>
      </trkpt>
      <trkpt lat="47.64959" lon="-2.08987">
        <ele>42.16932</ele>
        <time>2022-12-15T11:42:27.656Z</time>
      </trkpt>
      <trkpt lat="47.64955" lon="-2.08972">
        <ele>42.497038</ele>
        <time>2022-12-15T11:42:30.579Z</time>
      </trkpt>
      <trkpt lat="47.64951" lon="-2.08956">
        <ele>42.850898</ele>
        <time>2022-12-15T11:42:33.620Z</time>
      </trkpt>
      <trkpt lat="47.64946" lon="-2.0894">
        <ele>43.230238</ele>
        <time>2022-12-15T11:42:36.580Z</time>
      </trkpt>
      <trkpt lat="47.64941" lon="-2.08923">
        <ele>43.625534</ele>
        <time>2022-12-15T11:42:39.627Z</time>
      </trkpt>
      <trkpt lat="47.64936" lon="-2.08907">
        <ele>43.99766</ele>
        <time>2022-12-15T11:42:42.578Z</time>
      </trkpt>
      <trkpt lat="47.64931" lon="-2.08893">
        <ele>44.331427</ele>
        <time>2022-12-15T11:42:45.641Z</time>
      </trkpt>
      <trkpt lat="47.64926" lon="-2.0888">
        <ele>44.653778</ele>
        <time>2022-12-15T11:42:48.578Z</time>
      </trkpt>
      <trkpt lat="47.64922" lon="-2.08866">
        <ele>44.961245</ele>
        <time>2022-12-15T11:42:51.661Z</time>
      </trkpt>
      <trkpt lat="47.64918" lon="-2.08853">
        <ele>45.260367</ele>
        <time>2022-12-15T11:42:54.580Z</time>
      </trkpt>
      <trkpt lat="47.64914" lon="-2.08841">
        <ele>45.551853</ele>
        <time>2022-12-15T11:42:57.633Z</time>
      </trkpt>
      <trkpt lat="47.64909" lon="-2.08825">
        <ele>45.848987</ele>
        <time>2022-12-15T11:43:01.568Z</time>
      </trkpt>
      <trkpt lat="47.64904" lon="-2.08811">
        <ele>46.006932</ele>
        <time>2022-12-15T11:43:05.576Z</time>
      </trkpt>
      <trkpt lat="47.649" lon="-2.088">
        <ele>46.144381</ele>
        <time>2022-12-15T11:43:09.671Z</time>
      </trkpt>
      <trkpt lat="47.64895" lon="-2.08788">
        <ele>46.283501</ele>
        <time>2022-12-15T11:43:14.590Z</time>
      </trkpt>
      <trkpt lat="47.6489" lon="-2.08776">
        <ele>46.426349</ele>
        <time>2022-12-15T11:43:19.592Z</time>
      </trkpt>
      <trkpt lat="47.64886" lon="-2.08764">
        <ele>46.5663</ele>
        <time>2022-12-15T11:43:24.569Z</time>
      </trkpt>
      <trkpt lat="47.64875" lon="-2.08763">
        <ele>46.730959</ele>
        <time>2022-12-15T11:43:29.560Z</time>
      </trkpt>
      <trkpt lat="47.64864" lon="-2.08764">
        <ele>46.889542</ele>
        <time>2022-12-15T11:43:34.576Z</time>
      </trkpt>
      <trkpt lat="47.64858" lon="-2.08754">
        <ele>47.026663</ele>
        <time>2022-12-15T11:43:38.633Z</time>
      </trkpt>
      <trkpt lat="47.64853" lon="-2.08739">
        <ele>47.192971</ele>
        <time>2022-12-15T11:43:42.592Z</time>
      </trkpt>
      <trkpt lat="47.64848" lon="-2.08726">
        <ele>47.350811</ele>
        <time>2022-12-15T11:43:46.569Z</time>
      </trkpt>
      <trkpt lat="47.64844" lon="-2.08711">
        <ele>47.511842</ele>
        <time>2022-12-15T11:43:51.584Z</time>
      </trkpt>
      <trkpt lat="47.6484" lon="-2.08698">
        <ele>47.663288</ele>
        <time>2022-12-15T11:43:56.578Z</time>
      </trkpt>
      <trkpt lat="47.64839" lon="-2.08683">
        <ele>47.817244</ele>
        <time>2022-12-15T11:44:00.590Z</time>
      </trkpt>
      <trkpt lat="47.64841" lon="-2.08668">
        <ele>47.97361</ele>
        <time>2022-12-15T11:44:04.573Z</time>
      </trkpt>
      <trkpt lat="47.64844" lon="-2.08652">
        <ele>48.143691</ele>
        <time>2022-12-15T11:44:08.626Z</time>
      </trkpt>
      <trkpt lat="47.64846" lon="-2.08635">
        <ele>48.311096</ele>
        <time>2022-12-15T11:44:12.578Z</time>
      </trkpt>
      <trkpt lat="47.64843" lon="-2.08619">
        <ele>48.481177</ele>
        <time>2022-12-15T11:44:16.581Z</time>
      </trkpt>
      <trkpt lat="47.64838" lon="-2.08604">
        <ele>48.527021</ele>
        <time>2022-12-15T11:44:20.641Z</time>
      </trkpt>
      <trkpt lat="47.64834" lon="-2.08591">
        <ele>48.550301</ele>
        <time>2022-12-15T11:44:23.581Z</time>
      </trkpt>
      <trkpt lat="47.6483" lon="-2.08577">
        <ele>48.575086</ele>
        <time>2022-12-15T11:44:26.579Z</time>
      </trkpt>
      <trkpt lat="47.64825" lon="-2.08564">
        <ele>48.599977</ele>
        <time>2022-12-15T11:44:29.585Z</time>
      </trkpt>
      <trkpt lat="47.64821" lon="-2.08549">
        <ele>48.625357</ele>
        <time>2022-12-15T11:44:32.569Z</time>
      </trkpt>
      <trkpt lat="47.64817" lon="-2.08535">
        <ele>48.650737</ele>
        <time>2022-12-15T11:44:35.565Z</time>
      </trkpt>
      <trkpt lat="47.64813" lon="-2.08522">
        <ele>48.674041</ele>
        <time>2022-12-15T11:44:38.582Z</time>
      </trkpt>
      <trkpt lat="47.64811" lon="-2.08507">
        <ele>48.699611</ele>
        <time>2022-12-15T11:44:42.581Z</time>
      </trkpt>
      <trkpt lat="47.64805" lon="-2.08493">
        <ele>48.726235</ele>
        <time>2022-12-15T11:44:46.652Z</time>
      </trkpt>
      <trkpt lat="47.64801" lon="-2.0848">
        <ele>48.749477</ele>
        <time>2022-12-15T11:44:50.589Z</time>
      </trkpt>
      <trkpt lat="47.64805" lon="-2.08466">
        <ele>48.774459</ele>
        <time>2022-12-15T11:44:56.583Z</time>
      </trkpt>
      <trkpt lat="47.64813" lon="-2.08461">
        <ele>48.796528</ele>
        <time>2022-12-15T11:45:00.578Z</time>
      </trkpt>
      <trkpt lat="47.64822" lon="-2.08453">
        <ele>48.821926</ele>
        <time>2022-12-15T11:45:05.581Z</time>
      </trkpt>
      <trkpt lat="47.64831" lon="-2.08444">
        <ele>48.847599</ele>
        <time>2022-12-15T11:45:11.580Z</time>
      </trkpt>
      <trkpt lat="47.64831" lon="-2.0843">
        <ele>48.871421</ele>
        <time>2022-12-15T11:45:16.570Z</time>
      </trkpt>
      <trkpt lat="47.64826" lon="-2.08414">
        <ele>48.900456</ele>
        <time>2022-12-15T11:45:20.579Z</time>
      </trkpt>
      <trkpt lat="47.64821" lon="-2.08401">
        <ele>48.922963</ele>
        <time>2022-12-15T11:45:23.567Z</time>
      </trkpt>
      <trkpt lat="47.64817" lon="-2.08388">
        <ele>48.901006</ele>
        <time>2022-12-15T11:45:26.586Z</time>
      </trkpt>
      <trkpt lat="47.64813" lon="-2.08374">
        <ele>48.757179</ele>
        <time>2022-12-15T11:45:29.579Z</time>
      </trkpt>
      <trkpt lat="47.64808" lon="-2.08361">
        <ele>48.624912</ele>
        <time>2022-12-15T11:45:32.580Z</time>
      </trkpt>
      <trkpt lat="47.64801" lon="-2.08351">
        <ele>48.493558</ele>
        <time>2022-12-15T11:45:36.579Z</time>
      </trkpt>
      <trkpt lat="47.64785" lon="-2.08357">
        <ele>48.258995</ele>
        <time>2022-12-15T11:45:58.591Z</time>
      </trkpt>
      <trkpt lat="47.64775" lon="-2.08366">
        <ele>48.109065</ele>
        <time>2022-12-15T11:46:02.640Z</time>
      </trkpt>
      <trkpt lat="47.64766" lon="-2.08368">
        <ele>47.980396</ele>
        <time>2022-12-15T11:46:06.583Z</time>
      </trkpt>
      <trkpt lat="47.64757" lon="-2.08356">
        <ele>47.817551</ele>
        <time>2022-12-15T11:46:10.574Z</time>
      </trkpt>
      <trkpt lat="47.64752" lon="-2.08345">
        <ele>47.695892</ele>
        <time>2022-12-15T11:46:13.580Z</time>
      </trkpt>
      <trkpt lat="47.64748" lon="-2.0833">
        <ele>47.547937</ele>
        <time>2022-12-15T11:46:17.576Z</time>
      </trkpt>
      <trkpt lat="47.64743" lon="-2.08313">
        <ele>47.38304</ele>
        <time>2022-12-15T11:46:21.588Z</time>
      </trkpt>
      <trkpt lat="47.6474" lon="-2.08299">
        <ele>47.248953</ele>
        <time>2022-12-15T11:46:24.580Z</time>
      </trkpt>
      <trkpt lat="47.64735" lon="-2.08286">
        <ele>47.109333</ele>
        <time>2022-12-15T11:46:27.570Z</time>
      </trkpt>
      <trkpt lat="47.64731" lon="-2.08271">
        <ele>46.96292</ele>
        <time>2022-12-15T11:46:30.596Z</time>
      </trkpt>
      <trkpt lat="47.64728" lon="-2.08256">
        <ele>46.821046</ele>
        <time>2022-12-15T11:46:33.593Z</time>
      </trkpt>
      <trkpt lat="47.64723" lon="-2.08242">
        <ele>46.67945</ele>
        <time>2022-12-15T11:46:36.589Z</time>
      </trkpt>
      <trkpt lat="47.64719" lon="-2.08227">
        <ele>46.530666</ele>
        <time>2022-12-15T11:46:39.589Z</time>
      </trkpt>
      <trkpt lat="47.64714" lon="-2.08212">
        <ele>46.391151</ele>
        <time>2022-12-15T11:46:42.591Z</time>
      </trkpt>
      <trkpt lat="47.64709" lon="-2.08197">
        <ele>46.250853</ele>
        <time>2022-12-15T11:46:45.593Z</time>
      </trkpt>
      <trkpt lat="47.64704" lon="-2.08182">
        <ele>46.110326</ele>
        <time>2022-12-15T11:46:48.579Z</time>
      </trkpt>
      <trkpt lat="47.647" lon="-2.08166">
        <ele>45.967535</ele>
        <time>2022-12-15T11:46:51.579Z</time>
      </trkpt>
      <trkpt lat="47.64695" lon="-2.08151">
        <ele>45.82445</ele>
        <time>2022-12-15T11:46:54.580Z</time>
      </trkpt>
      <trkpt lat="47.64689" lon="-2.08135">
        <ele>45.679725</ele>
        <time>2022-12-15T11:46:57.579Z</time>
      </trkpt>
      <trkpt lat="47.64684" lon="-2.0812">
        <ele>45.535914</ele>
        <time>2022-12-15T11:47:00.583Z</time>
      </trkpt>
      <trkpt lat="47.64679" lon="-2.08105">
        <ele>45.393411</ele>
        <time>2022-12-15T11:47:03.588Z</time>
      </trkpt>
      <trkpt lat="47.64674" lon="-2.08089">
        <ele>45.24829</ele>
        <time>2022-12-15T11:47:06.565Z</time>
      </trkpt>
      <trkpt lat="47.64669" lon="-2.08073">
        <ele>45.107642</ele>
        <time>2022-12-15T11:47:09.580Z</time>
      </trkpt>
      <trkpt lat="47.64665" lon="-2.08058">
        <ele>44.972951</ele>
        <time>2022-12-15T11:47:12.650Z</time>
      </trkpt>
      <trkpt lat="47.6466" lon="-2.08043">
        <ele>44.833951</ele>
        <time>2022-12-15T11:47:15.594Z</time>
      </trkpt>
      <trkpt lat="47.64656" lon="-2.08028">
        <ele>44.699471</ele>
        <time>2022-12-15T11:47:18.669Z</time>
      </trkpt>
      <trkpt lat="47.64652" lon="-2.08014">
        <ele>44.56854</ele>
        <time>2022-12-15T11:47:21.579Z</time>
      </trkpt>
      <trkpt lat="47.64647" lon="-2.07998">
        <ele>44.427016</ele>
        <time>2022-12-15T11:47:24.623Z</time>
      </trkpt>
      <trkpt lat="47.64643" lon="-2.07983">
        <ele>44.285232</ele>
        <time>2022-12-15T11:47:27.578Z</time>
      </trkpt>
      <trkpt lat="47.64638" lon="-2.07967">
        <ele>44.334044</ele>
        <time>2022-12-15T11:47:30.652Z</time>
      </trkpt>
      <trkpt lat="47.64634" lon="-2.07951">
        <ele>44.391042</ele>
        <time>2022-12-15T11:47:33.583Z</time>
      </trkpt>
      <trkpt lat="47.64629" lon="-2.07933">
        <ele>44.45204</ele>
        <time>2022-12-15T11:47:36.654Z</time>
      </trkpt>
      <trkpt lat="47.64623" lon="-2.07917">
        <ele>44.512461</ele>
        <time>2022-12-15T11:47:39.589Z</time>
      </trkpt>
      <trkpt lat="47.64618" lon="-2.079">
        <ele>44.573559</ele>
        <time>2022-12-15T11:47:42.655Z</time>
      </trkpt>
      <trkpt lat="47.64612" lon="-2.07883">
        <ele>44.633395</ele>
        <time>2022-12-15T11:47:45.591Z</time>
      </trkpt>
      <trkpt lat="47.64607" lon="-2.07867">
        <ele>44.691643</ele>
        <time>2022-12-15T11:47:48.623Z</time>
      </trkpt>
      <trkpt lat="47.64602" lon="-2.07851">
        <ele>44.750478</ele>
        <time>2022-12-15T11:47:51.580Z</time>
      </trkpt>
      <trkpt lat="47.64597" lon="-2.07834">
        <ele>44.810105</ele>
        <time>2022-12-15T11:47:54.582Z</time>
      </trkpt>
      <trkpt lat="47.64591" lon="-2.07818">
        <ele>44.868737</ele>
        <time>2022-12-15T11:47:57.584Z</time>
      </trkpt>
      <trkpt lat="47.64586" lon="-2.07801">
        <ele>44.930038</ele>
        <time>2022-12-15T11:48:00.582Z</time>
      </trkpt>
      <trkpt lat="47.6458" lon="-2.07784">
        <ele>44.991386</ele>
        <time>2022-12-15T11:48:03.579Z</time>
      </trkpt>
      <trkpt lat="47.64575" lon="-2.07767">
        <ele>45.053314</ele>
        <time>2022-12-15T11:48:06.591Z</time>
      </trkpt>
      <trkpt lat="47.64569" lon="-2.0775">
        <ele>45.113735</ele>
        <time>2022-12-15T11:48:09.582Z</time>
      </trkpt>
      <trkpt lat="47.64564" lon="-2.07733">
        <ele>45.167665</ele>
        <time>2022-12-15T11:48:12.581Z</time>
      </trkpt>
      <trkpt lat="47.64559" lon="-2.07716">
        <ele>45.212333</ele>
        <time>2022-12-15T11:48:15.578Z</time>
      </trkpt>
      <trkpt lat="47.64554" lon="-2.077">
        <ele>45.257908</ele>
        <time>2022-12-15T11:48:18.581Z</time>
      </trkpt>
      <trkpt lat="47.64548" lon="-2.07683">
        <ele>45.303975</ele>
        <time>2022-12-15T11:48:21.569Z</time>
      </trkpt>
      <trkpt lat="47.64543" lon="-2.07666">
        <ele>45.349096</ele>
        <time>2022-12-15T11:48:24.592Z</time>
      </trkpt>
      <trkpt lat="47.64538" lon="-2.07651">
        <ele>45.392795</ele>
        <time>2022-12-15T11:48:27.581Z</time>
      </trkpt>
      <trkpt lat="47.64533" lon="-2.07634">
        <ele>45.437323</ele>
        <time>2022-12-15T11:48:30.583Z</time>
      </trkpt>
      <trkpt lat="47.64528" lon="-2.07618">
        <ele>45.482338</ele>
        <time>2022-12-15T11:48:33.591Z</time>
      </trkpt>
      <trkpt lat="47.64523" lon="-2.07602">
        <ele>45.52716</ele>
        <time>2022-12-15T11:48:36.580Z</time>
      </trkpt>
      <trkpt lat="47.64517" lon="-2.07585">
        <ele>45.571982</ele>
        <time>2022-12-15T11:48:39.581Z</time>
      </trkpt>
      <trkpt lat="47.64513" lon="-2.07569">
        <ele>45.615595</ele>
        <time>2022-12-15T11:48:42.579Z</time>
      </trkpt>
      <trkpt lat="47.64508" lon="-2.07553">
        <ele>45.65966</ele>
        <time>2022-12-15T11:48:45.596Z</time>
      </trkpt>
      <trkpt lat="47.64503" lon="-2.07537">
        <ele>45.702684</ele>
        <time>2022-12-15T11:48:48.592Z</time>
      </trkpt>
      <trkpt lat="47.64499" lon="-2.07523">
        <ele>45.740047</ele>
        <time>2022-12-15T11:48:51.575Z</time>
      </trkpt>
      <trkpt lat="47.64495" lon="-2.07508">
        <ele>45.779945</ele>
        <time>2022-12-15T11:48:54.621Z</time>
      </trkpt>
      <trkpt lat="47.6449" lon="-2.07493">
        <ele>45.817863</ele>
        <time>2022-12-15T11:48:57.592Z</time>
      </trkpt>
      <trkpt lat="47.64485" lon="-2.07475">
        <ele>45.845905</ele>
        <time>2022-12-15T11:49:00.652Z</time>
      </trkpt>
      <trkpt lat="47.6448" lon="-2.07458">
        <ele>45.874264</ele>
        <time>2022-12-15T11:49:03.584Z</time>
      </trkpt>
      <trkpt lat="47.64475" lon="-2.07442">
        <ele>45.901619</ele>
        <time>2022-12-15T11:49:06.625Z</time>
      </trkpt>
      <trkpt lat="47.6447" lon="-2.07425">
        <ele>45.92865</ele>
        <time>2022-12-15T11:49:09.589Z</time>
      </trkpt>
      <trkpt lat="47.64465" lon="-2.07409">
        <ele>45.955043</ele>
        <time>2022-12-15T11:49:12.579Z</time>
      </trkpt>
      <trkpt lat="47.6446" lon="-2.07393">
        <ele>45.981989</ele>
        <time>2022-12-15T11:49:15.592Z</time>
      </trkpt>
      <trkpt lat="47.64454" lon="-2.07378">
        <ele>46.007927</ele>
        <time>2022-12-15T11:49:18.565Z</time>
      </trkpt>
      <trkpt lat="47.64449" lon="-2.07361">
        <ele>46.035051</ele>
        <time>2022-12-15T11:49:21.590Z</time>
      </trkpt>
      <trkpt lat="47.64444" lon="-2.07344">
        <ele>46.063683</ele>
        <time>2022-12-15T11:49:24.588Z</time>
      </trkpt>
      <trkpt lat="47.64439" lon="-2.07326">
        <ele>46.092724</ele>
        <time>2022-12-15T11:49:27.579Z</time>
      </trkpt>
      <trkpt lat="47.64433" lon="-2.07309">
        <ele>46.121681</ele>
        <time>2022-12-15T11:49:30.579Z</time>
      </trkpt>
      <trkpt lat="47.64428" lon="-2.07293">
        <ele>46.148444</ele>
        <time>2022-12-15T11:49:33.579Z</time>
      </trkpt>
      <trkpt lat="47.64423" lon="-2.07277">
        <ele>46.174716</ele>
        <time>2022-12-15T11:49:36.588Z</time>
      </trkpt>
      <trkpt lat="47.64417" lon="-2.07261">
        <ele>46.201392</ele>
        <time>2022-12-15T11:49:39.585Z</time>
      </trkpt>
      <trkpt lat="47.64413" lon="-2.07247">
        <ele>46.411966</ele>
        <time>2022-12-15T11:49:42.587Z</time>
      </trkpt>
      <trkpt lat="47.64407" lon="-2.07232">
        <ele>46.728443</ele>
        <time>2022-12-15T11:49:45.572Z</time>
      </trkpt>
      <trkpt lat="47.64402" lon="-2.07219">
        <ele>47.027315</ele>
        <time>2022-12-15T11:49:48.577Z</time>
      </trkpt>
      <trkpt lat="47.64395" lon="-2.07209">
        <ele>47.304067</ele>
        <time>2022-12-15T11:49:51.584Z</time>
      </trkpt>
      <trkpt lat="47.64388" lon="-2.07198">
        <ele>47.587629</ele>
        <time>2022-12-15T11:49:54.591Z</time>
      </trkpt>
      <trkpt lat="47.64381" lon="-2.07189">
        <ele>47.857531</ele>
        <time>2022-12-15T11:49:57.580Z</time>
      </trkpt>
      <trkpt lat="47.64374" lon="-2.07181">
        <ele>48.126804</ele>
        <time>2022-12-15T11:50:00.591Z</time>
      </trkpt>
      <trkpt lat="47.64365" lon="-2.07174">
        <ele>48.404328</ele>
        <time>2022-12-15T11:50:03.590Z</time>
      </trkpt>
      <trkpt lat="47.64355" lon="-2.07168">
        <ele>48.743172</ele>
        <time>2022-12-15T11:50:07.585Z</time>
      </trkpt>
      <trkpt lat="47.64344" lon="-2.07167">
        <ele>49.050087</ele>
        <time>2022-12-15T11:50:11.584Z</time>
      </trkpt>
      <trkpt lat="47.64332" lon="-2.07168">
        <ele>49.388977</ele>
        <time>2022-12-15T11:50:15.660Z</time>
      </trkpt>
      <trkpt lat="47.64322" lon="-2.0717">
        <ele>49.694095</ele>
        <time>2022-12-15T11:50:19.588Z</time>
      </trkpt>
      <trkpt lat="47.64311" lon="-2.07173">
        <ele>50.024952</ele>
        <time>2022-12-15T11:50:24.579Z</time>
      </trkpt>
      <trkpt lat="47.64302" lon="-2.07177">
        <ele>50.289343</ele>
        <time>2022-12-15T11:50:28.586Z</time>
      </trkpt>
      <trkpt lat="47.64293" lon="-2.07169">
        <ele>50.58268</ele>
        <time>2022-12-15T11:50:34.585Z</time>
      </trkpt>
      <trkpt lat="47.6429" lon="-2.07155">
        <ele>50.866295</ele>
        <time>2022-12-15T11:50:39.620Z</time>
      </trkpt>
      <trkpt lat="47.64287" lon="-2.07142">
        <ele>51.141306</ele>
        <time>2022-12-15T11:50:44.591Z</time>
      </trkpt>
      <trkpt lat="47.64287" lon="-2.07127">
        <ele>51.401403</ele>
        <time>2022-12-15T11:50:48.580Z</time>
      </trkpt>
      <trkpt lat="47.64297" lon="-2.07119">
        <ele>51.309299</ele>
        <time>2022-12-15T11:50:52.571Z</time>
      </trkpt>
      <trkpt lat="47.64307" lon="-2.07114">
        <ele>51.230045</ele>
        <time>2022-12-15T11:50:55.581Z</time>
      </trkpt>
      <trkpt lat="47.64318" lon="-2.0711">
        <ele>51.13642</ele>
        <time>2022-12-15T11:50:58.584Z</time>
      </trkpt>
      <trkpt lat="47.64331" lon="-2.07108">
        <ele>51.028231</ele>
        <time>2022-12-15T11:51:01.589Z</time>
      </trkpt>
      <trkpt lat="47.64341" lon="-2.07105">
        <ele>50.948959</ele>
        <time>2022-12-15T11:51:03.644Z</time>
      </trkpt>
      <trkpt lat="47.6435" lon="-2.07106">
        <ele>50.871256</ele>
        <time>2022-12-15T11:51:05.572Z</time>
      </trkpt>
      <trkpt lat="47.64359" lon="-2.07111">
        <ele>50.798361</ele>
        <time>2022-12-15T11:51:07.580Z</time>
      </trkpt>
      <trkpt lat="47.64371" lon="-2.07116">
        <ele>50.696077</ele>
        <time>2022-12-15T11:51:10.579Z</time>
      </trkpt>
      <trkpt lat="47.64382" lon="-2.07121">
        <ele>50.605217</ele>
        <time>2022-12-15T11:51:13.580Z</time>
      </trkpt>
      <trkpt lat="47.64391" lon="-2.07128">
        <ele>50.526857</ele>
        <time>2022-12-15T11:51:16.566Z</time>
      </trkpt>
      <trkpt lat="47.644" lon="-2.07137">
        <ele>50.437851</ele>
        <time>2022-12-15T11:51:20.581Z</time>
      </trkpt>
      <trkpt lat="47.64409" lon="-2.07147">
        <ele>50.34411</ele>
        <time>2022-12-15T11:51:24.593Z</time>
      </trkpt>
      <trkpt lat="47.64418" lon="-2.07159">
        <ele>50.248166</ele>
        <time>2022-12-15T11:51:28.591Z</time>
      </trkpt>
      <trkpt lat="47.64424" lon="-2.0717">
        <ele>50.168419</ele>
        <time>2022-12-15T11:51:32.583Z</time>
      </trkpt>
      <trkpt lat="47.64427" lon="-2.07184">
        <ele>50.090567</ele>
        <time>2022-12-15T11:51:37.574Z</time>
      </trkpt>
      <trkpt lat="47.64436" lon="-2.07189">
        <ele>50.01765</ele>
        <time>2022-12-15T11:51:43.585Z</time>
      </trkpt>
      <trkpt lat="47.64446" lon="-2.07194">
        <ele>49.971534</ele>
        <time>2022-12-15T11:51:48.578Z</time>
      </trkpt>
      <trkpt lat="47.64449" lon="-2.07208">
        <ele>50.012099</ele>
        <time>2022-12-15T11:51:51.621Z</time>
      </trkpt>
      <trkpt lat="47.64452" lon="-2.07222">
        <ele>50.056134</ele>
        <time>2022-12-15T11:51:54.564Z</time>
      </trkpt>
      <trkpt lat="47.64457" lon="-2.07234">
        <ele>50.094055</ele>
        <time>2022-12-15T11:51:57.621Z</time>
      </trkpt>
      <trkpt lat="47.64466" lon="-2.07235">
        <ele>50.133264</ele>
        <time>2022-12-15T11:52:02.580Z</time>
      </trkpt>
      <trkpt lat="47.64477" lon="-2.0723">
        <ele>50.178978</ele>
        <time>2022-12-15T11:52:06.592Z</time>
      </trkpt>
      <trkpt lat="47.64483" lon="-2.07244">
        <ele>50.226448</ele>
        <time>2022-12-15T11:52:10.566Z</time>
      </trkpt>
      <trkpt lat="47.64483" lon="-2.07259">
        <ele>50.268384</ele>
        <time>2022-12-15T11:52:13.592Z</time>
      </trkpt>
      <trkpt lat="47.64482" lon="-2.07273">
        <ele>50.309497</ele>
        <time>2022-12-15T11:52:16.579Z</time>
      </trkpt>
      <trkpt lat="47.64482" lon="-2.07288">
        <ele>50.352659</ele>
        <time>2022-12-15T11:52:19.566Z</time>
      </trkpt>
      <trkpt lat="47.64481" lon="-2.07305">
        <ele>50.399213</ele>
        <time>2022-12-15T11:52:22.570Z</time>
      </trkpt>
      <trkpt lat="47.64483" lon="-2.07318">
        <ele>50.438561</ele>
        <time>2022-12-15T11:52:25.590Z</time>
      </trkpt>
      <trkpt lat="47.64487" lon="-2.07331">
        <ele>50.47776</ele>
        <time>2022-12-15T11:52:28.572Z</time>
      </trkpt>
      <trkpt lat="47.64492" lon="-2.07346">
        <ele>50.525242</ele>
        <time>2022-12-15T11:52:31.584Z</time>
      </trkpt>
      <trkpt lat="47.64496" lon="-2.07363">
        <ele>50.576723</ele>
        <time>2022-12-15T11:52:34.574Z</time>
      </trkpt>
      <trkpt lat="47.64502" lon="-2.0738">
        <ele>50.631402</ele>
        <time>2022-12-15T11:52:37.579Z</time>
      </trkpt>
      <trkpt lat="47.64507" lon="-2.07396">
        <ele>50.681035</ele>
        <time>2022-12-15T11:52:40.584Z</time>
      </trkpt>
      <trkpt lat="47.64512" lon="-2.07411">
        <ele>50.767029</ele>
        <time>2022-12-15T11:52:43.591Z</time>
      </trkpt>
      <trkpt lat="47.64517" lon="-2.07427">
        <ele>50.984098</ele>
        <time>2022-12-15T11:52:46.586Z</time>
      </trkpt>
      <trkpt lat="47.64522" lon="-2.07443">
        <ele>51.188099</ele>
        <time>2022-12-15T11:52:49.580Z</time>
      </trkpt>
      <trkpt lat="47.64526" lon="-2.07458">
        <ele>51.385259</ele>
        <time>2022-12-15T11:52:52.580Z</time>
      </trkpt>
      <trkpt lat="47.64535" lon="-2.07467">
        <ele>51.570961</ele>
        <time>2022-12-15T11:52:55.593Z</time>
      </trkpt>
      <trkpt lat="47.64545" lon="-2.07461">
        <ele>51.768355</ele>
        <time>2022-12-15T11:52:58.591Z</time>
      </trkpt>
      <trkpt lat="47.64554" lon="-2.07451">
        <ele>51.965425</ele>
        <time>2022-12-15T11:53:01.578Z</time>
      </trkpt>
      <trkpt lat="47.64562" lon="-2.07442">
        <ele>52.142756</ele>
        <time>2022-12-15T11:53:04.592Z</time>
      </trkpt>
      <trkpt lat="47.64568" lon="-2.0743">
        <ele>52.324036</ele>
        <time>2022-12-15T11:53:09.581Z</time>
      </trkpt>
      <trkpt lat="47.64566" lon="-2.07416">
        <ele>52.500851</ele>
        <time>2022-12-15T11:53:13.584Z</time>
      </trkpt>
      <trkpt lat="47.6456" lon="-2.07403">
        <ele>52.683092</ele>
        <time>2022-12-15T11:53:17.580Z</time>
      </trkpt>
      <trkpt lat="47.64562" lon="-2.07389">
        <ele>52.849689</ele>
        <time>2022-12-15T11:53:22.578Z</time>
      </trkpt>
      <trkpt lat="47.64563" lon="-2.07401">
        <ele>52.994905</ele>
        <time>2022-12-15T11:54:39.561Z</time>
      </trkpt>
      <trkpt lat="47.64554" lon="-2.07372">
        <ele>53.378749</ele>
        <time>2022-12-15T12:13:32.147Z</time>
      </trkpt>
      <trkpt lat="47.64563" lon="-2.07382">
        <ele>53.585327</ele>
        <time>2022-12-15T12:15:18.574Z</time>
      </trkpt>
      <trkpt lat="47.64558" lon="-2.07393">
        <ele>53.74672</ele>
        <time>2022-12-15T12:15:33.571Z</time>
      </trkpt>
      <trkpt lat="47.64552" lon="-2.07407">
        <ele>53.852369</ele>
        <time>2022-12-15T12:15:38.568Z</time>
      </trkpt>
      <trkpt lat="47.64548" lon="-2.07423">
        <ele>53.619613</ele>
        <time>2022-12-15T12:15:42.574Z</time>
      </trkpt>
      <trkpt lat="47.64544" lon="-2.07438">
        <ele>53.396696</ele>
        <time>2022-12-15T12:15:46.568Z</time>
      </trkpt>
      <trkpt lat="47.64544" lon="-2.07452">
        <ele>53.212161</ele>
        <time>2022-12-15T12:15:50.566Z</time>
      </trkpt>
      <trkpt lat="47.64541" lon="-2.07466">
        <ele>53.011701</ele>
        <time>2022-12-15T12:15:54.588Z</time>
      </trkpt>
      <trkpt lat="47.64537" lon="-2.07479">
        <ele>52.817627</ele>
        <time>2022-12-15T12:15:58.563Z</time>
      </trkpt>
      <trkpt lat="47.64527" lon="-2.07481">
        <ele>52.608416</ele>
        <time>2022-12-15T12:16:10.574Z</time>
      </trkpt>
      <trkpt lat="47.64518" lon="-2.07476">
        <ele>52.424271</ele>
        <time>2022-12-15T12:16:15.570Z</time>
      </trkpt>
      <trkpt lat="47.64515" lon="-2.0746">
        <ele>52.198919</ele>
        <time>2022-12-15T12:16:21.573Z</time>
      </trkpt>
      <trkpt lat="47.64512" lon="-2.07446">
        <ele>51.995695</ele>
        <time>2022-12-15T12:16:25.581Z</time>
      </trkpt>
      <trkpt lat="47.64509" lon="-2.07433">
        <ele>51.804206</ele>
        <time>2022-12-15T12:16:29.574Z</time>
      </trkpt>
      <trkpt lat="47.64505" lon="-2.07418">
        <ele>51.59782</ele>
        <time>2022-12-15T12:16:33.566Z</time>
      </trkpt>
      <trkpt lat="47.64501" lon="-2.07403">
        <ele>51.378174</ele>
        <time>2022-12-15T12:16:37.587Z</time>
      </trkpt>
      <trkpt lat="47.64496" lon="-2.07391">
        <ele>51.17756</ele>
        <time>2022-12-15T12:16:39.598Z</time>
      </trkpt>
      <trkpt lat="47.64492" lon="-2.07377">
        <ele>50.968308</ele>
        <time>2022-12-15T12:16:42.577Z</time>
      </trkpt>
      <trkpt lat="47.64488" lon="-2.07363">
        <ele>50.767376</ele>
        <time>2022-12-15T12:16:45.591Z</time>
      </trkpt>
      <trkpt lat="47.64482" lon="-2.07348">
        <ele>50.538181</ele>
        <time>2022-12-15T12:16:48.591Z</time>
      </trkpt>
      <trkpt lat="47.64477" lon="-2.07332">
        <ele>50.290496</ele>
        <time>2022-12-15T12:16:51.588Z</time>
      </trkpt>
      <trkpt lat="47.64473" lon="-2.07317">
        <ele>50.266004</ele>
        <time>2022-12-15T12:16:54.590Z</time>
      </trkpt>
      <trkpt lat="47.64469" lon="-2.07304">
        <ele>50.253344</ele>
        <time>2022-12-15T12:16:57.584Z</time>
      </trkpt>
      <trkpt lat="47.64464" lon="-2.07289">
        <ele>50.23816</ele>
        <time>2022-12-15T12:17:00.583Z</time>
      </trkpt>
      <trkpt lat="47.64459" lon="-2.07274">
        <ele>50.223528</ele>
        <time>2022-12-15T12:17:03.565Z</time>
      </trkpt>
      <trkpt lat="47.64454" lon="-2.07259">
        <ele>50.209101</ele>
        <time>2022-12-15T12:17:06.584Z</time>
      </trkpt>
      <trkpt lat="47.64449" lon="-2.07244">
        <ele>50.194643</ele>
        <time>2022-12-15T12:17:09.585Z</time>
      </trkpt>
      <trkpt lat="47.64445" lon="-2.07231">
        <ele>50.181742</ele>
        <time>2022-12-15T12:17:12.579Z</time>
      </trkpt>
      <trkpt lat="47.6444" lon="-2.07217">
        <ele>50.167716</ele>
        <time>2022-12-15T12:17:15.577Z</time>
      </trkpt>
      <trkpt lat="47.64435" lon="-2.07204">
        <ele>50.15431</ele>
        <time>2022-12-15T12:17:18.589Z</time>
      </trkpt>
      <trkpt lat="47.64431" lon="-2.07189">
        <ele>50.140686</ele>
        <time>2022-12-15T12:17:21.582Z</time>
      </trkpt>
      <trkpt lat="47.64426" lon="-2.07174">
        <ele>50.125699</ele>
        <time>2022-12-15T12:17:24.587Z</time>
      </trkpt>
      <trkpt lat="47.64419" lon="-2.07161">
        <ele>50.110878</ele>
        <time>2022-12-15T12:17:27.585Z</time>
      </trkpt>
      <trkpt lat="47.6441" lon="-2.07149">
        <ele>50.095559</ele>
        <time>2022-12-15T12:17:30.586Z</time>
      </trkpt>
      <trkpt lat="47.64401" lon="-2.07142">
        <ele>50.081699</ele>
        <time>2022-12-15T12:17:33.564Z</time>
      </trkpt>
      <trkpt lat="47.64391" lon="-2.07137">
        <ele>50.067265</ele>
        <time>2022-12-15T12:17:36.591Z</time>
      </trkpt>
      <trkpt lat="47.6438" lon="-2.0713">
        <ele>50.052864</ele>
        <time>2022-12-15T12:17:39.589Z</time>
      </trkpt>
      <trkpt lat="47.6437" lon="-2.07126">
        <ele>50.004739</ele>
        <time>2022-12-15T12:17:42.598Z</time>
      </trkpt>
      <trkpt lat="47.64361" lon="-2.07121">
        <ele>49.896573</ele>
        <time>2022-12-15T12:17:45.585Z</time>
      </trkpt>
      <trkpt lat="47.64351" lon="-2.07117">
        <ele>49.793047</ele>
        <time>2022-12-15T12:17:48.587Z</time>
      </trkpt>
      <trkpt lat="47.64341" lon="-2.07115">
        <ele>49.676497</ele>
        <time>2022-12-15T12:17:51.588Z</time>
      </trkpt>
      <trkpt lat="47.6433" lon="-2.07117">
        <ele>49.557233</ele>
        <time>2022-12-15T12:17:54.584Z</time>
      </trkpt>
      <trkpt lat="47.64319" lon="-2.07121">
        <ele>49.439339</ele>
        <time>2022-12-15T12:17:57.580Z</time>
      </trkpt>
      <trkpt lat="47.64309" lon="-2.07124">
        <ele>49.329724</ele>
        <time>2022-12-15T12:18:00.587Z</time>
      </trkpt>
      <trkpt lat="47.643" lon="-2.07127">
        <ele>49.228462</ele>
        <time>2022-12-15T12:18:04.584Z</time>
      </trkpt>
      <trkpt lat="47.6429" lon="-2.07128">
        <ele>49.12431</ele>
        <time>2022-12-15T12:18:09.578Z</time>
      </trkpt>
      <trkpt lat="47.64286" lon="-2.0714">
        <ele>49.026822</ele>
        <time>2022-12-15T12:18:13.567Z</time>
      </trkpt>
      <trkpt lat="47.64288" lon="-2.07155">
        <ele>48.912622</ele>
        <time>2022-12-15T12:18:18.589Z</time>
      </trkpt>
      <trkpt lat="47.64292" lon="-2.07169">
        <ele>48.802992</ele>
        <time>2022-12-15T12:18:23.567Z</time>
      </trkpt>
      <trkpt lat="47.64288" lon="-2.07183">
        <ele>48.693284</ele>
        <time>2022-12-15T12:18:27.587Z</time>
      </trkpt>
      <trkpt lat="47.64275" lon="-2.07187">
        <ele>48.559982</ele>
        <time>2022-12-15T12:18:30.588Z</time>
      </trkpt>
      <trkpt lat="47.64265" lon="-2.0719">
        <ele>48.450296</ele>
        <time>2022-12-15T12:18:32.585Z</time>
      </trkpt>
      <trkpt lat="47.64256" lon="-2.07192">
        <ele>48.349165</ele>
        <time>2022-12-15T12:18:34.586Z</time>
      </trkpt>
      <trkpt lat="47.64245" lon="-2.07198">
        <ele>48.227027</ele>
        <time>2022-12-15T12:18:36.589Z</time>
      </trkpt>
      <trkpt lat="47.64236" lon="-2.07203">
        <ele>48.123688</ele>
        <time>2022-12-15T12:18:38.581Z</time>
      </trkpt>
      <trkpt lat="47.64225" lon="-2.07209">
        <ele>47.834475</ele>
        <time>2022-12-15T12:18:40.586Z</time>
      </trkpt>
      <trkpt lat="47.64213" lon="-2.07215">
        <ele>47.537211</ele>
        <time>2022-12-15T12:18:42.587Z</time>
      </trkpt>
      <trkpt lat="47.64201" lon="-2.0722">
        <ele>47.225964</ele>
        <time>2022-12-15T12:18:44.586Z</time>
      </trkpt>
      <trkpt lat="47.64191" lon="-2.07224">
        <ele>46.963705</ele>
        <time>2022-12-15T12:18:46.587Z</time>
      </trkpt>
      <trkpt lat="47.64179" lon="-2.07229">
        <ele>46.658386</ele>
        <time>2022-12-15T12:18:48.591Z</time>
      </trkpt>
      <trkpt lat="47.64168" lon="-2.07233">
        <ele>46.396127</ele>
        <time>2022-12-15T12:18:50.587Z</time>
      </trkpt>
      <trkpt lat="47.64158" lon="-2.07239">
        <ele>46.122016</ele>
        <time>2022-12-15T12:18:52.585Z</time>
      </trkpt>
      <trkpt lat="47.64145" lon="-2.07243">
        <ele>45.8029</ele>
        <time>2022-12-15T12:18:55.577Z</time>
      </trkpt>
      <trkpt lat="47.64134" lon="-2.07248">
        <ele>45.517867</ele>
        <time>2022-12-15T12:18:58.590Z</time>
      </trkpt>
      <trkpt lat="47.64124" lon="-2.0725">
        <ele>45.276816</ele>
        <time>2022-12-15T12:19:01.586Z</time>
      </trkpt>
      <trkpt lat="47.64112" lon="-2.07254">
        <ele>44.968345</ele>
        <time>2022-12-15T12:19:04.580Z</time>
      </trkpt>
      <trkpt lat="47.64099" lon="-2.0726">
        <ele>44.644935</ele>
        <time>2022-12-15T12:19:07.577Z</time>
      </trkpt>
      <trkpt lat="47.6409" lon="-2.07264">
        <ele>44.418407</ele>
        <time>2022-12-15T12:19:09.588Z</time>
      </trkpt>
      <trkpt lat="47.64081" lon="-2.07267">
        <ele>44.194473</ele>
        <time>2022-12-15T12:19:11.596Z</time>
      </trkpt>
      <trkpt lat="47.64072" lon="-2.0727">
        <ele>43.96777</ele>
        <time>2022-12-15T12:19:13.565Z</time>
      </trkpt>
      <trkpt lat="47.64063" lon="-2.07274">
        <ele>43.745795</ele>
        <time>2022-12-15T12:19:15.592Z</time>
      </trkpt>
      <trkpt lat="47.64054" lon="-2.07277">
        <ele>43.861175</ele>
        <time>2022-12-15T12:19:17.586Z</time>
      </trkpt>
      <trkpt lat="47.64045" lon="-2.0728">
        <ele>44.009085</ele>
        <time>2022-12-15T12:19:19.590Z</time>
      </trkpt>
      <trkpt lat="47.64031" lon="-2.07285">
        <ele>44.226826</ele>
        <time>2022-12-15T12:19:22.588Z</time>
      </trkpt>
      <trkpt lat="47.64018" lon="-2.0729">
        <ele>44.434556</ele>
        <time>2022-12-15T12:19:25.588Z</time>
      </trkpt>
      <trkpt lat="47.64005" lon="-2.07295">
        <ele>44.644585</ele>
        <time>2022-12-15T12:19:28.589Z</time>
      </trkpt>
      <trkpt lat="47.63995" lon="-2.07298">
        <ele>44.807152</ele>
        <time>2022-12-15T12:19:30.585Z</time>
      </trkpt>
      <trkpt lat="47.63984" lon="-2.07301">
        <ele>44.972552</ele>
        <time>2022-12-15T12:19:32.592Z</time>
      </trkpt>
      <trkpt lat="47.63971" lon="-2.07306">
        <ele>45.191563</ele>
        <time>2022-12-15T12:19:35.586Z</time>
      </trkpt>
      <trkpt lat="47.63961" lon="-2.0731">
        <ele>45.346085</ele>
        <time>2022-12-15T12:19:37.588Z</time>
      </trkpt>
      <trkpt lat="47.63952" lon="-2.07314">
        <ele>45.49424</ele>
        <time>2022-12-15T12:19:39.588Z</time>
      </trkpt>
      <trkpt lat="47.63942" lon="-2.07318">
        <ele>45.656812</ele>
        <time>2022-12-15T12:19:41.574Z</time>
      </trkpt>
      <trkpt lat="47.63932" lon="-2.07322">
        <ele>45.809005</ele>
        <time>2022-12-15T12:19:43.567Z</time>
      </trkpt>
      <trkpt lat="47.63923" lon="-2.07325">
        <ele>45.956444</ele>
        <time>2022-12-15T12:19:45.576Z</time>
      </trkpt>
      <trkpt lat="47.63914" lon="-2.07329">
        <ele>46.104853</ele>
        <time>2022-12-15T12:19:47.586Z</time>
      </trkpt>
      <trkpt lat="47.63904" lon="-2.07332">
        <ele>46.254511</ele>
        <time>2022-12-15T12:19:49.582Z</time>
      </trkpt>
      <trkpt lat="47.6389" lon="-2.07335">
        <ele>46.469959</ele>
        <time>2022-12-15T12:19:52.587Z</time>
      </trkpt>
      <trkpt lat="47.6388" lon="-2.0734">
        <ele>46.550219</ele>
        <time>2022-12-15T12:19:54.593Z</time>
      </trkpt>
      <trkpt lat="47.63871" lon="-2.07343">
        <ele>46.597389</ele>
        <time>2022-12-15T12:19:56.595Z</time>
      </trkpt>
      <trkpt lat="47.63862" lon="-2.07347">
        <ele>46.646398</ele>
        <time>2022-12-15T12:19:58.577Z</time>
      </trkpt>
      <trkpt lat="47.63849" lon="-2.0735">
        <ele>46.708686</ele>
        <time>2022-12-15T12:20:01.586Z</time>
      </trkpt>
      <trkpt lat="47.63837" lon="-2.07354">
        <ele>46.770973</ele>
        <time>2022-12-15T12:20:04.587Z</time>
      </trkpt>
      <trkpt lat="47.63825" lon="-2.07358">
        <ele>46.833379</ele>
        <time>2022-12-15T12:20:07.590Z</time>
      </trkpt>
      <trkpt lat="47.63812" lon="-2.07363">
        <ele>46.896605</ele>
        <time>2022-12-15T12:20:10.588Z</time>
      </trkpt>
      <trkpt lat="47.638" lon="-2.07368">
        <ele>46.961578</ele>
        <time>2022-12-15T12:20:13.566Z</time>
      </trkpt>
      <trkpt lat="47.63788" lon="-2.07372">
        <ele>47.020401</ele>
        <time>2022-12-15T12:20:16.592Z</time>
      </trkpt>
      <trkpt lat="47.63776" lon="-2.07376">
        <ele>47.080323</ele>
        <time>2022-12-15T12:20:19.588Z</time>
      </trkpt>
      <trkpt lat="47.63762" lon="-2.0738">
        <ele>47.152043</ele>
        <time>2022-12-15T12:20:22.587Z</time>
      </trkpt>
      <trkpt lat="47.6375" lon="-2.07384">
        <ele>47.215924</ele>
        <time>2022-12-15T12:20:25.588Z</time>
      </trkpt>
      <trkpt lat="47.63738" lon="-2.07389">
        <ele>47.27715</ele>
        <time>2022-12-15T12:20:28.585Z</time>
      </trkpt>
      <trkpt lat="47.63726" lon="-2.07393">
        <ele>47.338275</ele>
        <time>2022-12-15T12:20:31.572Z</time>
      </trkpt>
      <trkpt lat="47.63712" lon="-2.07398">
        <ele>47.418498</ele>
        <time>2022-12-15T12:20:34.586Z</time>
      </trkpt>
      <trkpt lat="47.637" lon="-2.07402">
        <ele>47.726703</ele>
        <time>2022-12-15T12:20:37.590Z</time>
      </trkpt>
      <trkpt lat="47.63688" lon="-2.07408">
        <ele>48.051037</ele>
        <time>2022-12-15T12:20:40.586Z</time>
      </trkpt>
      <trkpt lat="47.63676" lon="-2.07413">
        <ele>48.36487</ele>
        <time>2022-12-15T12:20:43.566Z</time>
      </trkpt>
      <trkpt lat="47.63665" lon="-2.07417">
        <ele>48.642677</ele>
        <time>2022-12-15T12:20:46.569Z</time>
      </trkpt>
      <trkpt lat="47.63655" lon="-2.07419">
        <ele>48.899665</ele>
        <time>2022-12-15T12:20:49.579Z</time>
      </trkpt>
      <trkpt lat="47.63645" lon="-2.07423">
        <ele>49.166581</ele>
        <time>2022-12-15T12:20:52.577Z</time>
      </trkpt>
      <trkpt lat="47.63634" lon="-2.07426">
        <ele>49.432164</ele>
        <time>2022-12-15T12:20:55.592Z</time>
      </trkpt>
      <trkpt lat="47.63624" lon="-2.07429">
        <ele>49.708904</ele>
        <time>2022-12-15T12:20:58.587Z</time>
      </trkpt>
      <trkpt lat="47.63613" lon="-2.07433">
        <ele>49.975278</ele>
        <time>2022-12-15T12:21:01.596Z</time>
      </trkpt>
      <trkpt lat="47.63604" lon="-2.07437">
        <ele>50.222215</ele>
        <time>2022-12-15T12:21:04.587Z</time>
      </trkpt>
      <trkpt lat="47.63593" lon="-2.0744">
        <ele>50.491941</ele>
        <time>2022-12-15T12:21:07.587Z</time>
      </trkpt>
      <trkpt lat="47.63583" lon="-2.07445">
        <ele>50.764456</ele>
        <time>2022-12-15T12:21:10.578Z</time>
      </trkpt>
      <trkpt lat="47.63572" lon="-2.0745">
        <ele>51.047033</ele>
        <time>2022-12-15T12:21:13.564Z</time>
      </trkpt>
      <trkpt lat="47.63562" lon="-2.07456">
        <ele>51.330575</ele>
        <time>2022-12-15T12:21:16.583Z</time>
      </trkpt>
      <trkpt lat="47.6355" lon="-2.0746">
        <ele>51.626639</ele>
        <time>2022-12-15T12:21:19.588Z</time>
      </trkpt>
      <trkpt lat="47.6354" lon="-2.07464">
        <ele>51.892217</ele>
        <time>2022-12-15T12:21:22.588Z</time>
      </trkpt>
      <trkpt lat="47.63529" lon="-2.07468">
        <ele>51.554733</ele>
        <time>2022-12-15T12:21:26.588Z</time>
      </trkpt>
      <trkpt lat="47.63518" lon="-2.07473">
        <ele>51.15454</ele>
        <time>2022-12-15T12:21:30.585Z</time>
      </trkpt>
      <trkpt lat="47.63508" lon="-2.07476">
        <ele>50.803119</ele>
        <time>2022-12-15T12:21:33.568Z</time>
      </trkpt>
      <trkpt lat="47.63497" lon="-2.0748">
        <ele>50.383775</ele>
        <time>2022-12-15T12:21:36.578Z</time>
      </trkpt>
      <trkpt lat="47.63487" lon="-2.07483">
        <ele>50.033436</ele>
        <time>2022-12-15T12:21:38.583Z</time>
      </trkpt>
      <trkpt lat="47.63478" lon="-2.07486">
        <ele>49.687748</ele>
        <time>2022-12-15T12:21:40.596Z</time>
      </trkpt>
      <trkpt lat="47.63468" lon="-2.0749">
        <ele>49.332799</ele>
        <time>2022-12-15T12:21:42.578Z</time>
      </trkpt>
      <trkpt lat="47.63456" lon="-2.07494">
        <ele>48.885405</ele>
        <time>2022-12-15T12:21:45.592Z</time>
      </trkpt>
      <trkpt lat="47.63444" lon="-2.07498">
        <ele>48.465515</ele>
        <time>2022-12-15T12:21:48.593Z</time>
      </trkpt>
      <trkpt lat="47.63433" lon="-2.07501">
        <ele>48.063829</ele>
        <time>2022-12-15T12:21:51.587Z</time>
      </trkpt>
      <trkpt lat="47.6342" lon="-2.07505">
        <ele>47.59372</ele>
        <time>2022-12-15T12:21:54.588Z</time>
      </trkpt>
      <trkpt lat="47.6341" lon="-2.0751">
        <ele>47.252929</ele>
        <time>2022-12-15T12:21:56.594Z</time>
      </trkpt>
      <trkpt lat="47.63397" lon="-2.07514">
        <ele>46.773513</ele>
        <time>2022-12-15T12:21:59.587Z</time>
      </trkpt>
      <trkpt lat="47.63388" lon="-2.07517">
        <ele>46.445487</ele>
        <time>2022-12-15T12:22:01.593Z</time>
      </trkpt>
      <trkpt lat="47.63375" lon="-2.07521">
        <ele>45.989178</ele>
        <time>2022-12-15T12:22:04.592Z</time>
      </trkpt>
      <trkpt lat="47.63367" lon="-2.07525">
        <ele>45.666705</ele>
        <time>2022-12-15T12:22:06.587Z</time>
      </trkpt>
      <trkpt lat="47.63354" lon="-2.07528">
        <ele>45.77926</ele>
        <time>2022-12-15T12:22:09.586Z</time>
      </trkpt>
      <trkpt lat="47.63345" lon="-2.07532">
        <ele>45.968477</ele>
        <time>2022-12-15T12:22:11.577Z</time>
      </trkpt>
      <trkpt lat="47.63333" lon="-2.07534">
        <ele>46.218528</ele>
        <time>2022-12-15T12:22:14.582Z</time>
      </trkpt>
      <trkpt lat="47.63324" lon="-2.07535">
        <ele>46.407553</ele>
        <time>2022-12-15T12:22:16.588Z</time>
      </trkpt>
      <trkpt lat="47.63314" lon="-2.07535">
        <ele>46.59606</ele>
        <time>2022-12-15T12:22:18.590Z</time>
      </trkpt>
      <trkpt lat="47.63302" lon="-2.07538">
        <ele>46.847786</ele>
        <time>2022-12-15T12:22:21.589Z</time>
      </trkpt>
      <trkpt lat="47.63291" lon="-2.07539">
        <ele>47.065968</ele>
        <time>2022-12-15T12:22:24.587Z</time>
      </trkpt>
      <trkpt lat="47.63281" lon="-2.07543">
        <ele>47.289106</ele>
        <time>2022-12-15T12:22:27.583Z</time>
      </trkpt>
      <trkpt lat="47.6327" lon="-2.07547">
        <ele>47.503164</ele>
        <time>2022-12-15T12:22:30.583Z</time>
      </trkpt>
      <trkpt lat="47.63261" lon="-2.07552">
        <ele>47.700526</ele>
        <time>2022-12-15T12:22:33.568Z</time>
      </trkpt>
      <trkpt lat="47.63251" lon="-2.07554">
        <ele>47.918207</ele>
        <time>2022-12-15T12:22:37.589Z</time>
      </trkpt>
      <trkpt lat="47.63244" lon="-2.07543">
        <ele>48.123711</ele>
        <time>2022-12-15T12:22:44.568Z</time>
      </trkpt>
      <trkpt lat="47.63244" lon="-2.07529">
        <ele>48.310776</ele>
        <time>2022-12-15T12:22:50.583Z</time>
      </trkpt>
      <trkpt lat="47.63244" lon="-2.07515">
        <ele>48.503302</ele>
        <time>2022-12-15T12:22:55.589Z</time>
      </trkpt>
      <trkpt lat="47.63244" lon="-2.07499">
        <ele>48.723134</ele>
        <time>2022-12-15T12:23:01.585Z</time>
      </trkpt>
      <trkpt lat="47.63237" lon="-2.07488">
        <ele>48.924941</ele>
        <time>2022-12-15T12:23:05.587Z</time>
      </trkpt>
      <trkpt lat="47.63225" lon="-2.07491">
        <ele>49.164639</ele>
        <time>2022-12-15T12:23:08.570Z</time>
      </trkpt>
      <trkpt lat="47.63216" lon="-2.07492">
        <ele>49.074238</ele>
        <time>2022-12-15T12:23:10.589Z</time>
      </trkpt>
      <trkpt lat="47.63205" lon="-2.07493">
        <ele>48.849511</ele>
        <time>2022-12-15T12:23:12.569Z</time>
      </trkpt>
      <trkpt lat="47.63195" lon="-2.07493">
        <ele>48.627435</ele>
        <time>2022-12-15T12:23:14.573Z</time>
      </trkpt>
      <trkpt lat="47.63185" lon="-2.07494">
        <ele>48.411226</ele>
        <time>2022-12-15T12:23:16.578Z</time>
      </trkpt>
      <trkpt lat="47.63176" lon="-2.07495">
        <ele>48.212655</ele>
        <time>2022-12-15T12:23:18.586Z</time>
      </trkpt>
      <trkpt lat="47.63166" lon="-2.07495">
        <ele>48.005441</ele>
        <time>2022-12-15T12:23:20.590Z</time>
      </trkpt>
      <trkpt lat="47.63153" lon="-2.07494">
        <ele>47.727169</ele>
        <time>2022-12-15T12:23:23.569Z</time>
      </trkpt>
      <trkpt lat="47.63141" lon="-2.07493">
        <ele>47.468697</ele>
        <time>2022-12-15T12:23:26.586Z</time>
      </trkpt>
      <trkpt lat="47.6313" lon="-2.07491">
        <ele>47.225904</ele>
        <time>2022-12-15T12:23:29.575Z</time>
      </trkpt>
      <trkpt lat="47.63119" lon="-2.0749">
        <ele>46.990704</ele>
        <time>2022-12-15T12:23:32.586Z</time>
      </trkpt>
      <trkpt lat="47.63107" lon="-2.07489">
        <ele>46.749027</ele>
        <time>2022-12-15T12:23:35.583Z</time>
      </trkpt>
      <trkpt lat="47.63095" lon="-2.0749">
        <ele>46.486394</ele>
        <time>2022-12-15T12:23:38.592Z</time>
      </trkpt>
      <trkpt lat="47.63083" lon="-2.07489">
        <ele>46.223603</ele>
        <time>2022-12-15T12:23:41.586Z</time>
      </trkpt>
      <trkpt lat="47.63069" lon="-2.07489">
        <ele>45.937506</ele>
        <time>2022-12-15T12:23:44.579Z</time>
      </trkpt>
      <trkpt lat="47.6306" lon="-2.07488">
        <ele>45.732304</ele>
        <time>2022-12-15T12:23:46.590Z</time>
      </trkpt>
      <trkpt lat="47.6305" lon="-2.07488">
        <ele>45.5335</ele>
        <time>2022-12-15T12:23:48.592Z</time>
      </trkpt>
      <trkpt lat="47.63036" lon="-2.07487">
        <ele>45.474457</ele>
        <time>2022-12-15T12:23:51.595Z</time>
      </trkpt>
      <trkpt lat="47.63023" lon="-2.07487">
        <ele>45.665402</ele>
        <time>2022-12-15T12:23:54.591Z</time>
      </trkpt>
      <trkpt lat="47.63009" lon="-2.07488">
        <ele>45.853934</ele>
        <time>2022-12-15T12:23:57.586Z</time>
      </trkpt>
      <trkpt lat="47.63" lon="-2.07488">
        <ele>45.979414</ele>
        <time>2022-12-15T12:23:59.584Z</time>
      </trkpt>
      <trkpt lat="47.6299" lon="-2.0749">
        <ele>46.115063</ele>
        <time>2022-12-15T12:24:01.581Z</time>
      </trkpt>
      <trkpt lat="47.62981" lon="-2.07491">
        <ele>46.249115</ele>
        <time>2022-12-15T12:24:03.568Z</time>
      </trkpt>
      <trkpt lat="47.62971" lon="-2.07492">
        <ele>46.393441</ele>
        <time>2022-12-15T12:24:05.569Z</time>
      </trkpt>
      <trkpt lat="47.62961" lon="-2.07494">
        <ele>46.533511</ele>
        <time>2022-12-15T12:24:07.591Z</time>
      </trkpt>
      <trkpt lat="47.6295" lon="-2.07496">
        <ele>46.679658</ele>
        <time>2022-12-15T12:24:09.586Z</time>
      </trkpt>
      <trkpt lat="47.62939" lon="-2.07499">
        <ele>46.841346</ele>
        <time>2022-12-15T12:24:11.582Z</time>
      </trkpt>
      <trkpt lat="47.62927" lon="-2.07501">
        <ele>47.006079</ele>
        <time>2022-12-15T12:24:13.572Z</time>
      </trkpt>
      <trkpt lat="47.62916" lon="-2.07504">
        <ele>47.159033</ele>
        <time>2022-12-15T12:24:15.585Z</time>
      </trkpt>
      <trkpt lat="47.62906" lon="-2.07507">
        <ele>47.306505</ele>
        <time>2022-12-15T12:24:17.582Z</time>
      </trkpt>
      <trkpt lat="47.62896" lon="-2.0751">
        <ele>47.439591</ele>
        <time>2022-12-15T12:24:19.573Z</time>
      </trkpt>
      <trkpt lat="47.62887" lon="-2.07512">
        <ele>47.574216</ele>
        <time>2022-12-15T12:24:21.585Z</time>
      </trkpt>
      <trkpt lat="47.62877" lon="-2.07515">
        <ele>47.717072</ele>
        <time>2022-12-15T12:24:23.568Z</time>
      </trkpt>
      <trkpt lat="47.62867" lon="-2.07518">
        <ele>47.853418</ele>
        <time>2022-12-15T12:24:25.577Z</time>
      </trkpt>
      <trkpt lat="47.62857" lon="-2.07521">
        <ele>48.052292</ele>
        <time>2022-12-15T12:24:27.581Z</time>
      </trkpt>
      <trkpt lat="47.62846" lon="-2.07525">
        <ele>48.260278</ele>
        <time>2022-12-15T12:24:29.585Z</time>
      </trkpt>
      <trkpt lat="47.62837" lon="-2.07527">
        <ele>48.453228</ele>
        <time>2022-12-15T12:24:31.587Z</time>
      </trkpt>
      <trkpt lat="47.62826" lon="-2.07531">
        <ele>48.663431</ele>
        <time>2022-12-15T12:24:33.576Z</time>
      </trkpt>
      <trkpt lat="47.62816" lon="-2.07533">
        <ele>48.87172</ele>
        <time>2022-12-15T12:24:35.591Z</time>
      </trkpt>
      <trkpt lat="47.62806" lon="-2.07535">
        <ele>49.076187</ele>
        <time>2022-12-15T12:24:37.586Z</time>
      </trkpt>
      <trkpt lat="47.62796" lon="-2.07539">
        <ele>49.275908</ele>
        <time>2022-12-15T12:24:39.592Z</time>
      </trkpt>
      <trkpt lat="47.62786" lon="-2.07543">
        <ele>49.481669</ele>
        <time>2022-12-15T12:24:41.591Z</time>
      </trkpt>
      <trkpt lat="47.62776" lon="-2.07546">
        <ele>49.683028</ele>
        <time>2022-12-15T12:24:43.568Z</time>
      </trkpt>
      <trkpt lat="47.62767" lon="-2.07548">
        <ele>49.861078</ele>
        <time>2022-12-15T12:24:45.587Z</time>
      </trkpt>
      <trkpt lat="47.62754" lon="-2.07553">
        <ele>50.126805</ele>
        <time>2022-12-15T12:24:48.589Z</time>
      </trkpt>
      <trkpt lat="47.62744" lon="-2.07555">
        <ele>50.311146</ele>
        <time>2022-12-15T12:24:50.569Z</time>
      </trkpt>
      <trkpt lat="47.62735" lon="-2.07558">
        <ele>50.504816</ele>
        <time>2022-12-15T12:24:52.580Z</time>
      </trkpt>
      <trkpt lat="47.62725" lon="-2.07562">
        <ele>50.69878</ele>
        <time>2022-12-15T12:24:54.587Z</time>
      </trkpt>
      <trkpt lat="47.62715" lon="-2.07564">
        <ele>50.896674</ele>
        <time>2022-12-15T12:24:56.575Z</time>
      </trkpt>
      <trkpt lat="47.62706" lon="-2.07567">
        <ele>51.085131</ele>
        <time>2022-12-15T12:24:58.597Z</time>
      </trkpt>
      <trkpt lat="47.62692" lon="-2.07569">
        <ele>51.360425</ele>
        <time>2022-12-15T12:25:01.578Z</time>
      </trkpt>
      <trkpt lat="47.62682" lon="-2.07574">
        <ele>51.454148</ele>
        <time>2022-12-15T12:25:03.593Z</time>
      </trkpt>
      <trkpt lat="47.62672" lon="-2.07577">
        <ele>51.493606</ele>
        <time>2022-12-15T12:25:05.597Z</time>
      </trkpt>
      <trkpt lat="47.62662" lon="-2.0758">
        <ele>51.532009</ele>
        <time>2022-12-15T12:25:07.595Z</time>
      </trkpt>
      <trkpt lat="47.62652" lon="-2.07584">
        <ele>51.570468</ele>
        <time>2022-12-15T12:25:09.595Z</time>
      </trkpt>
      <trkpt lat="47.62642" lon="-2.07587">
        <ele>51.609032</ele>
        <time>2022-12-15T12:25:11.594Z</time>
      </trkpt>
      <trkpt lat="47.62632" lon="-2.07589">
        <ele>51.64621</ele>
        <time>2022-12-15T12:25:13.591Z</time>
      </trkpt>
      <trkpt lat="47.62623" lon="-2.07592">
        <ele>51.683024</ele>
        <time>2022-12-15T12:25:15.593Z</time>
      </trkpt>
      <trkpt lat="47.62613" lon="-2.07595">
        <ele>51.721637</ele>
        <time>2022-12-15T12:25:17.643Z</time>
      </trkpt>
      <trkpt lat="47.62603" lon="-2.07596">
        <ele>51.757419</ele>
        <time>2022-12-15T12:25:19.593Z</time>
      </trkpt>
      <trkpt lat="47.62591" lon="-2.07598">
        <ele>51.805281</ele>
        <time>2022-12-15T12:25:22.590Z</time>
      </trkpt>
      <trkpt lat="47.62579" lon="-2.07599">
        <ele>51.850838</ele>
        <time>2022-12-15T12:25:25.592Z</time>
      </trkpt>
      <trkpt lat="47.62568" lon="-2.076">
        <ele>51.889889</ele>
        <time>2022-12-15T12:25:28.596Z</time>
      </trkpt>
      <trkpt lat="47.62557" lon="-2.076">
        <ele>51.931949</ele>
        <time>2022-12-15T12:25:32.598Z</time>
      </trkpt>
      <trkpt lat="47.62549" lon="-2.07605">
        <ele>51.966204</ele>
        <time>2022-12-15T12:25:36.593Z</time>
      </trkpt>
      <trkpt lat="47.62538" lon="-2.07611">
        <ele>52.010294</ele>
        <time>2022-12-15T12:25:40.639Z</time>
      </trkpt>
      <trkpt lat="47.62525" lon="-2.07617">
        <ele>52.062107</ele>
        <time>2022-12-15T12:25:43.592Z</time>
      </trkpt>
      <trkpt lat="47.62515" lon="-2.07621">
        <ele>52.099346</ele>
        <time>2022-12-15T12:25:45.594Z</time>
      </trkpt>
      <trkpt lat="47.62506" lon="-2.07625">
        <ele>52.084402</ele>
        <time>2022-12-15T12:25:47.580Z</time>
      </trkpt>
      <trkpt lat="47.62496" lon="-2.07628">
        <ele>52.05372</ele>
        <time>2022-12-15T12:25:49.581Z</time>
      </trkpt>
      <trkpt lat="47.62486" lon="-2.07631">
        <ele>52.025471</ele>
        <time>2022-12-15T12:25:51.595Z</time>
      </trkpt>
      <trkpt lat="47.62476" lon="-2.07636">
        <ele>51.993918</ele>
        <time>2022-12-15T12:25:53.576Z</time>
      </trkpt>
      <trkpt lat="47.62467" lon="-2.07639">
        <ele>51.966031</ele>
        <time>2022-12-15T12:25:55.590Z</time>
      </trkpt>
      <trkpt lat="47.62457" lon="-2.07641">
        <ele>51.937595</ele>
        <time>2022-12-15T12:25:57.592Z</time>
      </trkpt>
      <trkpt lat="47.62448" lon="-2.07643">
        <ele>51.91029</ele>
        <time>2022-12-15T12:25:59.593Z</time>
      </trkpt>
      <trkpt lat="47.62439" lon="-2.07647">
        <ele>51.880602</ele>
        <time>2022-12-15T12:26:01.596Z</time>
      </trkpt>
      <trkpt lat="47.62429" lon="-2.07649">
        <ele>51.850865</ele>
        <time>2022-12-15T12:26:03.596Z</time>
      </trkpt>
      <trkpt lat="47.62419" lon="-2.07652">
        <ele>51.821521</ele>
        <time>2022-12-15T12:26:05.595Z</time>
      </trkpt>
      <trkpt lat="47.62408" lon="-2.07653">
        <ele>51.790002</ele>
        <time>2022-12-15T12:26:07.593Z</time>
      </trkpt>
      <trkpt lat="47.62398" lon="-2.07656">
        <ele>51.758382</ele>
        <time>2022-12-15T12:26:09.595Z</time>
      </trkpt>
      <trkpt lat="47.62387" lon="-2.07658">
        <ele>51.727225</ele>
        <time>2022-12-15T12:26:11.594Z</time>
      </trkpt>
      <trkpt lat="47.62377" lon="-2.07661">
        <ele>51.697161</ele>
        <time>2022-12-15T12:26:13.574Z</time>
      </trkpt>
      <trkpt lat="47.62367" lon="-2.07664">
        <ele>51.665823</ele>
        <time>2022-12-15T12:26:15.643Z</time>
      </trkpt>
      <trkpt lat="47.62357" lon="-2.07667">
        <ele>51.634775</ele>
        <time>2022-12-15T12:26:17.581Z</time>
      </trkpt>
      <trkpt lat="47.62347" lon="-2.07671">
        <ele>51.604375</ele>
        <time>2022-12-15T12:26:19.594Z</time>
      </trkpt>
      <trkpt lat="47.62337" lon="-2.07674">
        <ele>51.579622</ele>
        <time>2022-12-15T12:26:21.645Z</time>
      </trkpt>
      <trkpt lat="47.62326" lon="-2.07676">
        <ele>51.643108</ele>
        <time>2022-12-15T12:26:23.575Z</time>
      </trkpt>
      <trkpt lat="47.62316" lon="-2.0768">
        <ele>51.708041</ele>
        <time>2022-12-15T12:26:25.574Z</time>
      </trkpt>
      <trkpt lat="47.62306" lon="-2.07682">
        <ele>51.770426</ele>
        <time>2022-12-15T12:26:27.649Z</time>
      </trkpt>
      <trkpt lat="47.62296" lon="-2.07685">
        <ele>51.835887</ele>
        <time>2022-12-15T12:26:29.596Z</time>
      </trkpt>
      <trkpt lat="47.62285" lon="-2.07688">
        <ele>51.903423</ele>
        <time>2022-12-15T12:26:31.593Z</time>
      </trkpt>
      <trkpt lat="47.62275" lon="-2.07692">
        <ele>51.967473</ele>
        <time>2022-12-15T12:26:33.613Z</time>
      </trkpt>
      <trkpt lat="47.62265" lon="-2.07694">
        <ele>52.028519</ele>
        <time>2022-12-15T12:26:35.597Z</time>
      </trkpt>
      <trkpt lat="47.62252" lon="-2.07697">
        <ele>52.11334</ele>
        <time>2022-12-15T12:26:38.587Z</time>
      </trkpt>
      <trkpt lat="47.62243" lon="-2.077">
        <ele>52.172282</ele>
        <time>2022-12-15T12:26:40.583Z</time>
      </trkpt>
      <trkpt lat="47.62233" lon="-2.07703">
        <ele>52.232614</ele>
        <time>2022-12-15T12:26:42.593Z</time>
      </trkpt>
      <trkpt lat="47.62223" lon="-2.07706">
        <ele>52.297359</ele>
        <time>2022-12-15T12:26:44.596Z</time>
      </trkpt>
      <trkpt lat="47.62213" lon="-2.0771">
        <ele>52.360804</ele>
        <time>2022-12-15T12:26:46.578Z</time>
      </trkpt>
      <trkpt lat="47.62203" lon="-2.07713">
        <ele>52.425203</ele>
        <time>2022-12-15T12:26:48.596Z</time>
      </trkpt>
      <trkpt lat="47.62192" lon="-2.07716">
        <ele>52.489948</ele>
        <time>2022-12-15T12:26:50.595Z</time>
      </trkpt>
      <trkpt lat="47.62182" lon="-2.07719">
        <ele>52.553823</ele>
        <time>2022-12-15T12:26:52.578Z</time>
      </trkpt>
      <trkpt lat="47.62173" lon="-2.07722">
        <ele>52.613808</ele>
        <time>2022-12-15T12:26:54.595Z</time>
      </trkpt>
      <trkpt lat="47.62164" lon="-2.07725">
        <ele>52.669728</ele>
        <time>2022-12-15T12:26:56.596Z</time>
      </trkpt>
      <trkpt lat="47.62155" lon="-2.07728">
        <ele>52.655259</ele>
        <time>2022-12-15T12:26:58.597Z</time>
      </trkpt>
      <trkpt lat="47.62143" lon="-2.07732">
        <ele>52.579815</ele>
        <time>2022-12-15T12:27:01.599Z</time>
      </trkpt>
      <trkpt lat="47.62131" lon="-2.07736">
        <ele>52.507528</ele>
        <time>2022-12-15T12:27:04.597Z</time>
      </trkpt>
      <trkpt lat="47.62121" lon="-2.07739">
        <ele>52.449077</ele>
        <time>2022-12-15T12:27:06.577Z</time>
      </trkpt>
      <trkpt lat="47.62111" lon="-2.07742">
        <ele>52.389641</ele>
        <time>2022-12-15T12:27:08.640Z</time>
      </trkpt>
      <trkpt lat="47.62102" lon="-2.07745">
        <ele>52.33219</ele>
        <time>2022-12-15T12:27:10.580Z</time>
      </trkpt>
      <trkpt lat="47.62093" lon="-2.07748">
        <ele>52.277804</ele>
        <time>2022-12-15T12:27:12.578Z</time>
      </trkpt>
      <trkpt lat="47.62083" lon="-2.07752">
        <ele>52.213975</ele>
        <time>2022-12-15T12:27:14.646Z</time>
      </trkpt>
      <trkpt lat="47.62073" lon="-2.07754">
        <ele>52.157061</ele>
        <time>2022-12-15T12:27:16.595Z</time>
      </trkpt>
      <trkpt lat="47.62064" lon="-2.07756">
        <ele>52.100029</ele>
        <time>2022-12-15T12:27:18.596Z</time>
      </trkpt>
      <trkpt lat="47.62053" lon="-2.07758">
        <ele>52.038948</ele>
        <time>2022-12-15T12:27:20.580Z</time>
      </trkpt>
      <trkpt lat="47.62043" lon="-2.0776">
        <ele>51.975991</ele>
        <time>2022-12-15T12:27:22.595Z</time>
      </trkpt>
      <trkpt lat="47.62032" lon="-2.07764">
        <ele>51.911</ele>
        <time>2022-12-15T12:27:24.594Z</time>
      </trkpt>
      <trkpt lat="47.62022" lon="-2.07767">
        <ele>51.846837</ele>
        <time>2022-12-15T12:27:26.593Z</time>
      </trkpt>
      <trkpt lat="47.62012" lon="-2.0777">
        <ele>51.787139</ele>
        <time>2022-12-15T12:27:28.598Z</time>
      </trkpt>
      <trkpt lat="47.62003" lon="-2.07774">
        <ele>51.730804</ele>
        <time>2022-12-15T12:27:30.594Z</time>
      </trkpt>
      <trkpt lat="47.61994" lon="-2.07777">
        <ele>51.675616</ele>
        <time>2022-12-15T12:27:32.593Z</time>
      </trkpt>
      <trkpt lat="47.61985" lon="-2.07781">
        <ele>51.621551</ele>
        <time>2022-12-15T12:27:34.594Z</time>
      </trkpt>
      <trkpt lat="47.61972" lon="-2.07784">
        <ele>51.542519</ele>
        <time>2022-12-15T12:27:37.578Z</time>
      </trkpt>
      <trkpt lat="47.61958" lon="-2.07788">
        <ele>51.460149</ele>
        <time>2022-12-15T12:27:40.590Z</time>
      </trkpt>
      <trkpt lat="47.61949" lon="-2.07791">
        <ele>51.40274</ele>
        <time>2022-12-15T12:27:42.642Z</time>
      </trkpt>
      <trkpt lat="47.6194" lon="-2.07794">
        <ele>51.343476</ele>
        <time>2022-12-15T12:27:44.596Z</time>
      </trkpt>
      <trkpt lat="47.61926" lon="-2.07798">
        <ele>51.260072</ele>
        <time>2022-12-15T12:27:47.596Z</time>
      </trkpt>
      <trkpt lat="47.61916" lon="-2.07801">
        <ele>51.200541</ele>
        <time>2022-12-15T12:27:49.594Z</time>
      </trkpt>
      <trkpt lat="47.61906" lon="-2.07803">
        <ele>51.139964</ele>
        <time>2022-12-15T12:27:51.597Z</time>
      </trkpt>
      <trkpt lat="47.61896" lon="-2.07806">
        <ele>51.078502</ele>
        <time>2022-12-15T12:27:53.596Z</time>
      </trkpt>
      <trkpt lat="47.61883" lon="-2.07809">
        <ele>50.998126</ele>
        <time>2022-12-15T12:27:56.596Z</time>
      </trkpt>
      <trkpt lat="47.61874" lon="-2.07812">
        <ele>50.941126</ele>
        <time>2022-12-15T12:27:58.597Z</time>
      </trkpt>
      <trkpt lat="47.61861" lon="-2.07816">
        <ele>50.860195</ele>
        <time>2022-12-15T12:28:01.596Z</time>
      </trkpt>
      <trkpt lat="47.61847" lon="-2.0782">
        <ele>50.776483</ele>
        <time>2022-12-15T12:28:04.598Z</time>
      </trkpt>
      <trkpt lat="47.61838" lon="-2.07823">
        <ele>50.72073</ele>
        <time>2022-12-15T12:28:06.612Z</time>
      </trkpt>
      <trkpt lat="47.61829" lon="-2.07826">
        <ele>50.66373</ele>
        <time>2022-12-15T12:28:08.595Z</time>
      </trkpt>
      <trkpt lat="47.6182" lon="-2.0783">
        <ele>50.605855</ele>
        <time>2022-12-15T12:28:10.593Z</time>
      </trkpt>
      <trkpt lat="47.6181" lon="-2.07833">
        <ele>50.547267</ele>
        <time>2022-12-15T12:28:12.672Z</time>
      </trkpt>
      <trkpt lat="47.61801" lon="-2.07836">
        <ele>50.677352</ele>
        <time>2022-12-15T12:28:14.588Z</time>
      </trkpt>
      <trkpt lat="47.61792" lon="-2.07839">
        <ele>50.834479</ele>
        <time>2022-12-15T12:28:16.594Z</time>
      </trkpt>
      <trkpt lat="47.61782" lon="-2.07842">
        <ele>51.005379</ele>
        <time>2022-12-15T12:28:18.638Z</time>
      </trkpt>
      <trkpt lat="47.61772" lon="-2.07846">
        <ele>51.17301</ele>
        <time>2022-12-15T12:28:20.595Z</time>
      </trkpt>
      <trkpt lat="47.61763" lon="-2.07849">
        <ele>51.339178</ele>
        <time>2022-12-15T12:28:22.595Z</time>
      </trkpt>
      <trkpt lat="47.61753" lon="-2.07852">
        <ele>51.516017</ele>
        <time>2022-12-15T12:28:24.603Z</time>
      </trkpt>
      <trkpt lat="47.61742" lon="-2.07854">
        <ele>51.695189</ele>
        <time>2022-12-15T12:28:26.599Z</time>
      </trkpt>
      <trkpt lat="47.61728" lon="-2.07857">
        <ele>51.938509</ele>
        <time>2022-12-15T12:28:29.594Z</time>
      </trkpt>
      <trkpt lat="47.61718" lon="-2.07857">
        <ele>52.100267</ele>
        <time>2022-12-15T12:28:31.594Z</time>
      </trkpt>
      <trkpt lat="47.61707" lon="-2.07857">
        <ele>52.289092</ele>
        <time>2022-12-15T12:28:34.586Z</time>
      </trkpt>
      <trkpt lat="47.61697" lon="-2.07859">
        <ele>52.473673</ele>
        <time>2022-12-15T12:28:38.574Z</time>
      </trkpt>
      <trkpt lat="47.61687" lon="-2.07858">
        <ele>52.632034</ele>
        <time>2022-12-15T12:28:42.637Z</time>
      </trkpt>
      <trkpt lat="47.61677" lon="-2.07863">
        <ele>52.807543</ele>
        <time>2022-12-15T12:28:47.578Z</time>
      </trkpt>
      <trkpt lat="47.61666" lon="-2.0787">
        <ele>53.014392</ele>
        <time>2022-12-15T12:28:51.597Z</time>
      </trkpt>
      <trkpt lat="47.61656" lon="-2.07879">
        <ele>53.211688</ele>
        <time>2022-12-15T12:28:54.594Z</time>
      </trkpt>
      <trkpt lat="47.61647" lon="-2.07886">
        <ele>53.384282</ele>
        <time>2022-12-15T12:28:56.595Z</time>
      </trkpt>
      <trkpt lat="47.61639" lon="-2.07892">
        <ele>53.540284</ele>
        <time>2022-12-15T12:28:58.601Z</time>
      </trkpt>
      <trkpt lat="47.61629" lon="-2.07899">
        <ele>53.619277</ele>
        <time>2022-12-15T12:29:01.598Z</time>
      </trkpt>
      <trkpt lat="47.61617" lon="-2.07906">
        <ele>53.653852</ele>
        <time>2022-12-15T12:29:04.596Z</time>
      </trkpt>
      <trkpt lat="47.61606" lon="-2.07916">
        <ele>53.688538</ele>
        <time>2022-12-15T12:29:07.592Z</time>
      </trkpt>
      <trkpt lat="47.61595" lon="-2.07925">
        <ele>53.72341</ele>
        <time>2022-12-15T12:29:10.595Z</time>
      </trkpt>
      <trkpt lat="47.61587" lon="-2.07933">
        <ele>53.749339</ele>
        <time>2022-12-15T12:29:12.593Z</time>
      </trkpt>
      <trkpt lat="47.61579" lon="-2.07941">
        <ele>53.775131</ele>
        <time>2022-12-15T12:29:14.596Z</time>
      </trkpt>
      <trkpt lat="47.61571" lon="-2.07949">
        <ele>53.801686</ele>
        <time>2022-12-15T12:29:16.592Z</time>
      </trkpt>
      <trkpt lat="47.61564" lon="-2.07958">
        <ele>53.827811</ele>
        <time>2022-12-15T12:29:18.589Z</time>
      </trkpt>
      <trkpt lat="47.61556" lon="-2.07967">
        <ele>53.854587</ele>
        <time>2022-12-15T12:29:20.594Z</time>
      </trkpt>
      <trkpt lat="47.61548" lon="-2.07976">
        <ele>53.881804</ele>
        <time>2022-12-15T12:29:22.596Z</time>
      </trkpt>
      <trkpt lat="47.6154" lon="-2.07984">
        <ele>53.908808</ele>
        <time>2022-12-15T12:29:24.595Z</time>
      </trkpt>
      <trkpt lat="47.61532" lon="-2.07994">
        <ele>53.936595</ele>
        <time>2022-12-15T12:29:26.594Z</time>
      </trkpt>
      <trkpt lat="47.61525" lon="-2.08004">
        <ele>53.96387</ele>
        <time>2022-12-15T12:29:28.575Z</time>
      </trkpt>
      <trkpt lat="47.61518" lon="-2.08017">
        <ele>53.994333</ele>
        <time>2022-12-15T12:29:30.594Z</time>
      </trkpt>
      <trkpt lat="47.61511" lon="-2.08027">
        <ele>54.021536</ele>
        <time>2022-12-15T12:29:32.594Z</time>
      </trkpt>
      <trkpt lat="47.61502" lon="-2.08038">
        <ele>54.052496</ele>
        <time>2022-12-15T12:29:34.593Z</time>
      </trkpt>
      <trkpt lat="47.61495" lon="-2.0805">
        <ele>54.082613</ele>
        <time>2022-12-15T12:29:36.592Z</time>
      </trkpt>
      <trkpt lat="47.61488" lon="-2.08061">
        <ele>54.062644</ele>
        <time>2022-12-15T12:29:38.596Z</time>
      </trkpt>
      <trkpt lat="47.61478" lon="-2.08074">
        <ele>54.020025</ele>
        <time>2022-12-15T12:29:41.599Z</time>
      </trkpt>
      <trkpt lat="47.61472" lon="-2.08085">
        <ele>53.987587</ele>
        <time>2022-12-15T12:29:43.595Z</time>
      </trkpt>
      <trkpt lat="47.61464" lon="-2.08096">
        <ele>53.954445</ele>
        <time>2022-12-15T12:29:45.645Z</time>
      </trkpt>
      <trkpt lat="47.61458" lon="-2.08106">
        <ele>53.923258</ele>
        <time>2022-12-15T12:29:47.596Z</time>
      </trkpt>
      <trkpt lat="47.6145" lon="-2.08119">
        <ele>53.88446</ele>
        <time>2022-12-15T12:29:49.594Z</time>
      </trkpt>
      <trkpt lat="47.61442" lon="-2.08131">
        <ele>53.848374</ele>
        <time>2022-12-15T12:29:51.643Z</time>
      </trkpt>
      <trkpt lat="47.61433" lon="-2.08142">
        <ele>53.811911</ele>
        <time>2022-12-15T12:29:53.595Z</time>
      </trkpt>
      <trkpt lat="47.61425" lon="-2.08148">
        <ele>53.782476</ele>
        <time>2022-12-15T12:29:55.598Z</time>
      </trkpt>
      <trkpt lat="47.61418" lon="-2.08156">
        <ele>53.753034</ele>
        <time>2022-12-15T12:29:57.643Z</time>
      </trkpt>
      <trkpt lat="47.61408" lon="-2.08164">
        <ele>53.715336</ele>
        <time>2022-12-15T12:30:00.609Z</time>
      </trkpt>
      <trkpt lat="47.61398" lon="-2.08173">
        <ele>53.676731</ele>
        <time>2022-12-15T12:30:03.640Z</time>
      </trkpt>
      <trkpt lat="47.61386" lon="-2.08181">
        <ele>53.635436</ele>
        <time>2022-12-15T12:30:06.598Z</time>
      </trkpt>
      <trkpt lat="47.61375" lon="-2.0819">
        <ele>53.593634</ele>
        <time>2022-12-15T12:30:09.595Z</time>
      </trkpt>
      <trkpt lat="47.61367" lon="-2.08197">
        <ele>53.563532</ele>
        <time>2022-12-15T12:30:11.595Z</time>
      </trkpt>
      <trkpt lat="47.61357" lon="-2.08205">
        <ele>53.52652</ele>
        <time>2022-12-15T12:30:14.642Z</time>
      </trkpt>
      <trkpt lat="47.61348" lon="-2.08209">
        <ele>53.478997</ele>
        <time>2022-12-15T12:30:16.595Z</time>
      </trkpt>
      <trkpt lat="47.61335" lon="-2.08212">
        <ele>53.324988</ele>
        <time>2022-12-15T12:30:19.597Z</time>
      </trkpt>
      <trkpt lat="47.61323" lon="-2.08215">
        <ele>53.174839</ele>
        <time>2022-12-15T12:30:22.594Z</time>
      </trkpt>
      <trkpt lat="47.6131" lon="-2.08217">
        <ele>53.026583</ele>
        <time>2022-12-15T12:30:25.596Z</time>
      </trkpt>
      <trkpt lat="47.61301" lon="-2.08219">
        <ele>52.919936</ele>
        <time>2022-12-15T12:30:27.595Z</time>
      </trkpt>
      <trkpt lat="47.61288" lon="-2.08221">
        <ele>52.764652</ele>
        <time>2022-12-15T12:30:30.607Z</time>
      </trkpt>
      <trkpt lat="47.61276" lon="-2.08225">
        <ele>52.614756</ele>
        <time>2022-12-15T12:30:33.579Z</time>
      </trkpt>
      <trkpt lat="47.61265" lon="-2.0823">
        <ele>52.486157</ele>
        <time>2022-12-15T12:30:36.586Z</time>
      </trkpt>
      <trkpt lat="47.61253" lon="-2.08232">
        <ele>52.342181</ele>
        <time>2022-12-15T12:30:39.593Z</time>
      </trkpt>
      <trkpt lat="47.61241" lon="-2.08235">
        <ele>52.197345</ele>
        <time>2022-12-15T12:30:42.595Z</time>
      </trkpt>
      <trkpt lat="47.61228" lon="-2.08237">
        <ele>52.043233</ele>
        <time>2022-12-15T12:30:45.598Z</time>
      </trkpt>
      <trkpt lat="47.61215" lon="-2.08239">
        <ele>51.884434</ele>
        <time>2022-12-15T12:30:48.597Z</time>
      </trkpt>
      <trkpt lat="47.61206" lon="-2.08241">
        <ele>51.77624</ele>
        <time>2022-12-15T12:30:50.645Z</time>
      </trkpt>
      <trkpt lat="47.61192" lon="-2.08243">
        <ele>51.616269</ele>
        <time>2022-12-15T12:30:53.575Z</time>
      </trkpt>
      <trkpt lat="47.61183" lon="-2.08244">
        <ele>51.505839</ele>
        <time>2022-12-15T12:30:55.596Z</time>
      </trkpt>
      <trkpt lat="47.61173" lon="-2.08246">
        <ele>51.392971</ele>
        <time>2022-12-15T12:30:57.578Z</time>
      </trkpt>
      <trkpt lat="47.61164" lon="-2.08248">
        <ele>51.422515</ele>
        <time>2022-12-15T12:30:59.595Z</time>
      </trkpt>
      <trkpt lat="47.61154" lon="-2.08249">
        <ele>51.463562</ele>
        <time>2022-12-15T12:31:01.593Z</time>
      </trkpt>
      <trkpt lat="47.61144" lon="-2.08251">
        <ele>51.508137</ele>
        <time>2022-12-15T12:31:03.590Z</time>
      </trkpt>
      <trkpt lat="47.61134" lon="-2.08252">
        <ele>51.552335</ele>
        <time>2022-12-15T12:31:05.574Z</time>
      </trkpt>
      <trkpt lat="47.61125" lon="-2.08254">
        <ele>51.591983</ele>
        <time>2022-12-15T12:31:07.583Z</time>
      </trkpt>
      <trkpt lat="47.61112" lon="-2.08256">
        <ele>51.652884</ele>
        <time>2022-12-15T12:31:10.596Z</time>
      </trkpt>
      <trkpt lat="47.61102" lon="-2.08258">
        <ele>51.693588</ele>
        <time>2022-12-15T12:31:12.594Z</time>
      </trkpt>
      <trkpt lat="47.61093" lon="-2.0826">
        <ele>51.736622</ele>
        <time>2022-12-15T12:31:14.639Z</time>
      </trkpt>
      <trkpt lat="47.61079" lon="-2.08262">
        <ele>51.797581</ele>
        <time>2022-12-15T12:31:17.597Z</time>
      </trkpt>
      <trkpt lat="47.6107" lon="-2.08264">
        <ele>51.839445</ele>
        <time>2022-12-15T12:31:19.583Z</time>
      </trkpt>
      <trkpt lat="47.6106" lon="-2.08265">
        <ele>51.883069</ele>
        <time>2022-12-15T12:31:21.584Z</time>
      </trkpt>
      <trkpt lat="47.6105" lon="-2.08268">
        <ele>51.92658</ele>
        <time>2022-12-15T12:31:23.573Z</time>
      </trkpt>
      <trkpt lat="47.6104" lon="-2.08269">
        <ele>51.968503</ele>
        <time>2022-12-15T12:31:25.597Z</time>
      </trkpt>
      <trkpt lat="47.61031" lon="-2.08272">
        <ele>52.011007</ele>
        <time>2022-12-15T12:31:27.595Z</time>
      </trkpt>
      <trkpt lat="47.61018" lon="-2.08273">
        <ele>52.067479</ele>
        <time>2022-12-15T12:31:30.595Z</time>
      </trkpt>
      <trkpt lat="47.61009" lon="-2.08275">
        <ele>52.10909</ele>
        <time>2022-12-15T12:31:32.637Z</time>
      </trkpt>
      <trkpt lat="47.61" lon="-2.08277">
        <ele>52.148645</ele>
        <time>2022-12-15T12:31:34.588Z</time>
      </trkpt>
      <trkpt lat="47.6099" lon="-2.08279">
        <ele>52.184324</ele>
        <time>2022-12-15T12:31:36.577Z</time>
      </trkpt>
      <trkpt lat="47.6098" lon="-2.08281">
        <ele>52.209714</ele>
        <time>2022-12-15T12:31:38.650Z</time>
      </trkpt>
      <trkpt lat="47.6097" lon="-2.08284">
        <ele>52.235425</ele>
        <time>2022-12-15T12:31:40.597Z</time>
      </trkpt>
      <trkpt lat="47.6096" lon="-2.08286">
        <ele>52.260316</ele>
        <time>2022-12-15T12:31:42.595Z</time>
      </trkpt>
      <trkpt lat="47.60951" lon="-2.08287">
        <ele>52.283805</ele>
        <time>2022-12-15T12:31:44.634Z</time>
      </trkpt>
      <trkpt lat="47.60941" lon="-2.08289">
        <ele>52.308797</ele>
        <time>2022-12-15T12:31:46.599Z</time>
      </trkpt>
      <trkpt lat="47.60928" lon="-2.08292">
        <ele>52.341305</ele>
        <time>2022-12-15T12:31:49.599Z</time>
      </trkpt>
      <trkpt lat="47.60917" lon="-2.08294">
        <ele>52.36919</ele>
        <time>2022-12-15T12:31:52.594Z</time>
      </trkpt>
      <trkpt lat="47.60907" lon="-2.08296">
        <ele>52.394786</ele>
        <time>2022-12-15T12:31:55.616Z</time>
      </trkpt>
      <trkpt lat="47.60895" lon="-2.08299">
        <ele>52.424662</ele>
        <time>2022-12-15T12:31:59.596Z</time>
      </trkpt>
      <trkpt lat="47.60885" lon="-2.08299">
        <ele>52.451837</ele>
        <time>2022-12-15T12:32:03.577Z</time>
      </trkpt>
      <trkpt lat="47.60875" lon="-2.08294">
        <ele>52.47736</ele>
        <time>2022-12-15T12:32:06.596Z</time>
      </trkpt>
      <trkpt lat="47.60864" lon="-2.08291">
        <ele>52.505194</ele>
        <time>2022-12-15T12:32:10.583Z</time>
      </trkpt>
      <trkpt lat="47.60853" lon="-2.08294">
        <ele>52.532921</ele>
        <time>2022-12-15T12:32:13.641Z</time>
      </trkpt>
      <trkpt lat="47.60841" lon="-2.08297">
        <ele>52.563984</ele>
        <time>2022-12-15T12:32:16.595Z</time>
      </trkpt>
      <trkpt lat="47.60832" lon="-2.08299">
        <ele>52.587122</ele>
        <time>2022-12-15T12:32:18.595Z</time>
      </trkpt>
      <trkpt lat="47.60822" lon="-2.08301">
        <ele>52.612663</ele>
        <time>2022-12-15T12:32:20.599Z</time>
      </trkpt>
      <trkpt lat="47.60812" lon="-2.08303">
        <ele>52.532644</ele>
        <time>2022-12-15T12:32:22.596Z</time>
      </trkpt>
      <trkpt lat="47.60798" lon="-2.08303">
        <ele>52.217644</ele>
        <time>2022-12-15T12:32:25.643Z</time>
      </trkpt>
      <trkpt lat="47.60785" lon="-2.08305">
        <ele>51.917636</ele>
        <time>2022-12-15T12:32:28.582Z</time>
      </trkpt>
      <trkpt lat="47.60772" lon="-2.08306">
        <ele>51.62064</ele>
        <time>2022-12-15T12:32:31.598Z</time>
      </trkpt>
      <trkpt lat="47.60763" lon="-2.08307">
        <ele>51.411295</ele>
        <time>2022-12-15T12:32:33.596Z</time>
      </trkpt>
      <trkpt lat="47.6075" lon="-2.08309">
        <ele>51.112982</ele>
        <time>2022-12-15T12:32:36.597Z</time>
      </trkpt>
      <trkpt lat="47.60736" lon="-2.08311">
        <ele>50.810162</ele>
        <time>2022-12-15T12:32:39.594Z</time>
      </trkpt>
      <trkpt lat="47.60724" lon="-2.08313">
        <ele>50.527271</ele>
        <time>2022-12-15T12:32:42.598Z</time>
      </trkpt>
      <trkpt lat="47.60711" lon="-2.08315">
        <ele>50.225126</ele>
        <time>2022-12-15T12:32:45.595Z</time>
      </trkpt>
      <trkpt lat="47.60698" lon="-2.08317">
        <ele>49.938386</ele>
        <time>2022-12-15T12:32:48.595Z</time>
      </trkpt>
      <trkpt lat="47.60686" lon="-2.08318">
        <ele>49.672822</ele>
        <time>2022-12-15T12:32:51.594Z</time>
      </trkpt>
      <trkpt lat="47.60674" lon="-2.0832">
        <ele>49.390108</ele>
        <time>2022-12-15T12:32:54.584Z</time>
      </trkpt>
      <trkpt lat="47.60665" lon="-2.08322">
        <ele>49.18373</ele>
        <time>2022-12-15T12:32:56.581Z</time>
      </trkpt>
      <trkpt lat="47.60656" lon="-2.08325">
        <ele>48.968767</ele>
        <time>2022-12-15T12:32:58.638Z</time>
      </trkpt>
      <trkpt lat="47.60647" lon="-2.08327">
        <ele>48.76038</ele>
        <time>2022-12-15T12:33:00.601Z</time>
      </trkpt>
      <trkpt lat="47.60637" lon="-2.08328">
        <ele>48.55528</ele>
        <time>2022-12-15T12:33:02.594Z</time>
      </trkpt>
      <trkpt lat="47.60628" lon="-2.08329">
        <ele>48.710734</ele>
        <time>2022-12-15T12:33:04.631Z</time>
      </trkpt>
      <trkpt lat="47.60619" lon="-2.0833">
        <ele>48.863189</ele>
        <time>2022-12-15T12:33:06.598Z</time>
      </trkpt>
      <trkpt lat="47.60609" lon="-2.08331">
        <ele>49.020249</ele>
        <time>2022-12-15T12:33:08.598Z</time>
      </trkpt>
      <trkpt lat="47.60597" lon="-2.08334">
        <ele>49.235216</ele>
        <time>2022-12-15T12:33:11.582Z</time>
      </trkpt>
      <trkpt lat="47.60585" lon="-2.08337">
        <ele>49.434632</ele>
        <time>2022-12-15T12:33:14.603Z</time>
      </trkpt>
      <trkpt lat="47.60573" lon="-2.08339">
        <ele>49.632956</ele>
        <time>2022-12-15T12:33:17.597Z</time>
      </trkpt>
      <trkpt lat="47.6056" lon="-2.08343">
        <ele>49.859416</ele>
        <time>2022-12-15T12:33:20.596Z</time>
      </trkpt>
      <trkpt lat="47.60549" lon="-2.08347">
        <ele>50.038427</ele>
        <time>2022-12-15T12:33:22.593Z</time>
      </trkpt>
      <trkpt lat="47.6054" lon="-2.08348">
        <ele>50.197213</ele>
        <time>2022-12-15T12:33:24.599Z</time>
      </trkpt>
      <trkpt lat="47.6053" lon="-2.08349">
        <ele>50.362142</ele>
        <time>2022-12-15T12:33:26.594Z</time>
      </trkpt>
      <trkpt lat="47.60517" lon="-2.08351">
        <ele>50.576321</ele>
        <time>2022-12-15T12:33:29.595Z</time>
      </trkpt>
      <trkpt lat="47.60508" lon="-2.08352">
        <ele>50.733671</ele>
        <time>2022-12-15T12:33:31.594Z</time>
      </trkpt>
      <trkpt lat="47.60494" lon="-2.08354">
        <ele>50.967326</ele>
        <time>2022-12-15T12:33:34.587Z</time>
      </trkpt>
      <trkpt lat="47.60484" lon="-2.08357">
        <ele>51.130174</ele>
        <time>2022-12-15T12:33:36.588Z</time>
      </trkpt>
      <trkpt lat="47.60475" lon="-2.08358">
        <ele>51.287524</ele>
        <time>2022-12-15T12:33:38.596Z</time>
      </trkpt>
      <trkpt lat="47.60462" lon="-2.08359">
        <ele>51.502936</ele>
        <time>2022-12-15T12:33:41.598Z</time>
      </trkpt>
      <trkpt lat="47.6045" lon="-2.08363">
        <ele>51.729972</ele>
        <time>2022-12-15T12:33:44.631Z</time>
      </trkpt>
      <trkpt lat="47.60439" lon="-2.08366">
        <ele>51.958113</ele>
        <time>2022-12-15T12:33:47.596Z</time>
      </trkpt>
      <trkpt lat="47.60427" lon="-2.0837">
        <ele>52.196051</ele>
        <time>2022-12-15T12:33:50.584Z</time>
      </trkpt>
      <trkpt lat="47.60418" lon="-2.08374">
        <ele>52.376238</ele>
        <time>2022-12-15T12:33:52.594Z</time>
      </trkpt>
      <trkpt lat="47.60409" lon="-2.08377">
        <ele>52.558659</ele>
        <time>2022-12-15T12:33:54.579Z</time>
      </trkpt>
      <trkpt lat="47.604" lon="-2.08382">
        <ele>52.737493</ele>
        <time>2022-12-15T12:33:56.595Z</time>
      </trkpt>
      <trkpt lat="47.60388" lon="-2.08389">
        <ele>52.999835</ele>
        <time>2022-12-15T12:33:59.596Z</time>
      </trkpt>
      <trkpt lat="47.60376" lon="-2.08397">
        <ele>53.257048</ele>
        <time>2022-12-15T12:34:02.595Z</time>
      </trkpt>
      <trkpt lat="47.60365" lon="-2.08405">
        <ele>53.489733</ele>
        <time>2022-12-15T12:34:05.597Z</time>
      </trkpt>
      <trkpt lat="47.60355" lon="-2.08411">
        <ele>53.692735</ele>
        <time>2022-12-15T12:34:07.582Z</time>
      </trkpt>
      <trkpt lat="47.60347" lon="-2.08417">
        <ele>53.878203</ele>
        <time>2022-12-15T12:34:09.595Z</time>
      </trkpt>
      <trkpt lat="47.60339" lon="-2.08424">
        <ele>54.060595</ele>
        <time>2022-12-15T12:34:11.585Z</time>
      </trkpt>
      <trkpt lat="47.60328" lon="-2.08433">
        <ele>54.295203</ele>
        <time>2022-12-15T12:34:14.597Z</time>
      </trkpt>
      <trkpt lat="47.60317" lon="-2.08441">
        <ele>54.535378</ele>
        <time>2022-12-15T12:34:17.604Z</time>
      </trkpt>
      <trkpt lat="47.60306" lon="-2.0845">
        <ele>54.771719</ele>
        <time>2022-12-15T12:34:20.596Z</time>
      </trkpt>
      <trkpt lat="47.60296" lon="-2.08459">
        <ele>55.006052</ele>
        <time>2022-12-15T12:34:23.578Z</time>
      </trkpt>
      <trkpt lat="47.60286" lon="-2.08471">
        <ele>54.972568</ele>
        <time>2022-12-15T12:34:26.575Z</time>
      </trkpt>
      <trkpt lat="47.60276" lon="-2.08482">
        <ele>54.872751</ele>
        <time>2022-12-15T12:34:29.595Z</time>
      </trkpt>
      <trkpt lat="47.60269" lon="-2.0849">
        <ele>54.798608</ele>
        <time>2022-12-15T12:34:31.597Z</time>
      </trkpt>
      <trkpt lat="47.60261" lon="-2.08499">
        <ele>54.723431</ele>
        <time>2022-12-15T12:34:33.582Z</time>
      </trkpt>
      <trkpt lat="47.60255" lon="-2.08508">
        <ele>54.651192</ele>
        <time>2022-12-15T12:34:35.585Z</time>
      </trkpt>
      <trkpt lat="47.60245" lon="-2.08521">
        <ele>54.54621</ele>
        <time>2022-12-15T12:34:38.594Z</time>
      </trkpt>
      <trkpt lat="47.60237" lon="-2.08533">
        <ele>54.451851</ele>
        <time>2022-12-15T12:34:41.596Z</time>
      </trkpt>
      <trkpt lat="47.60229" lon="-2.08545">
        <ele>54.363352</ele>
        <time>2022-12-15T12:34:44.598Z</time>
      </trkpt>
      <trkpt lat="47.60221" lon="-2.08557">
        <ele>54.27071</ele>
        <time>2022-12-15T12:34:47.600Z</time>
      </trkpt>
      <trkpt lat="47.60212" lon="-2.0857">
        <ele>54.174632</ele>
        <time>2022-12-15T12:34:50.599Z</time>
      </trkpt>
      <trkpt lat="47.60203" lon="-2.08583">
        <ele>54.071206</ele>
        <time>2022-12-15T12:34:53.580Z</time>
      </trkpt>
      <trkpt lat="47.60194" lon="-2.08597">
        <ele>53.970239</ele>
        <time>2022-12-15T12:34:56.597Z</time>
      </trkpt>
      <trkpt lat="47.60186" lon="-2.0861">
        <ele>53.873607</ele>
        <time>2022-12-15T12:34:59.599Z</time>
      </trkpt>
      <trkpt lat="47.60178" lon="-2.0862">
        <ele>53.788236</ele>
        <time>2022-12-15T12:35:02.595Z</time>
      </trkpt>
      <trkpt lat="47.60168" lon="-2.08634">
        <ele>53.677991</ele>
        <time>2022-12-15T12:35:05.575Z</time>
      </trkpt>
      <trkpt lat="47.60161" lon="-2.08645">
        <ele>53.598459</ele>
        <time>2022-12-15T12:35:07.595Z</time>
      </trkpt>
      <trkpt lat="47.60155" lon="-2.08655">
        <ele>53.52258</ele>
        <time>2022-12-15T12:35:09.595Z</time>
      </trkpt>
      <trkpt lat="47.60145" lon="-2.08668">
        <ele>53.420842</ele>
        <time>2022-12-15T12:35:12.642Z</time>
      </trkpt>
      <trkpt lat="47.60139" lon="-2.08679">
        <ele>53.343777</ele>
        <time>2022-12-15T12:35:14.597Z</time>
      </trkpt>
      <trkpt lat="47.60132" lon="-2.08691">
        <ele>53.260484</ele>
        <time>2022-12-15T12:35:16.595Z</time>
      </trkpt>
      <trkpt lat="47.60126" lon="-2.08701">
        <ele>53.182728</ele>
        <time>2022-12-15T12:35:18.596Z</time>
      </trkpt>
      <trkpt lat="47.60119" lon="-2.08712">
        <ele>53.105577</ele>
        <time>2022-12-15T12:35:20.597Z</time>
      </trkpt>
      <trkpt lat="47.60112" lon="-2.08722">
        <ele>53.028367</ele>
        <time>2022-12-15T12:35:22.596Z</time>
      </trkpt>
      <trkpt lat="47.60106" lon="-2.08733">
        <ele>52.949969</ele>
        <time>2022-12-15T12:35:24.608Z</time>
      </trkpt>
      <trkpt lat="47.60099" lon="-2.08742">
        <ele>52.876182</ele>
        <time>2022-12-15T12:35:26.606Z</time>
      </trkpt>
      <trkpt lat="47.60092" lon="-2.08753">
        <ele>52.796309</ele>
        <time>2022-12-15T12:35:28.600Z</time>
      </trkpt>
      <trkpt lat="47.60086" lon="-2.08763">
        <ele>52.722843</ele>
        <time>2022-12-15T12:35:30.596Z</time>
      </trkpt>
      <trkpt lat="47.60079" lon="-2.08774">
        <ele>52.641154</ele>
        <time>2022-12-15T12:35:32.604Z</time>
      </trkpt>
      <trkpt lat="47.60072" lon="-2.08785">
        <ele>52.559553</ele>
        <time>2022-12-15T12:35:34.650Z</time>
      </trkpt>
      <trkpt lat="47.60065" lon="-2.08796">
        <ele>52.477481</ele>
        <time>2022-12-15T12:35:36.589Z</time>
      </trkpt>
      <trkpt lat="47.60058" lon="-2.08807">
        <ele>52.394945</ele>
        <time>2022-12-15T12:35:38.600Z</time>
      </trkpt>
      <trkpt lat="47.60051" lon="-2.08817">
        <ele>52.320929</ele>
        <time>2022-12-15T12:35:40.647Z</time>
      </trkpt>
      <trkpt lat="47.60042" lon="-2.0883">
        <ele>52.217491</ele>
        <time>2022-12-15T12:35:43.598Z</time>
      </trkpt>
      <trkpt lat="47.60033" lon="-2.08844">
        <ele>52.239332</ele>
        <time>2022-12-15T12:35:46.641Z</time>
      </trkpt>
      <trkpt lat="47.60024" lon="-2.08858">
        <ele>52.326581</ele>
        <time>2022-12-15T12:35:49.596Z</time>
      </trkpt>
      <trkpt lat="47.60014" lon="-2.08872">
        <ele>52.418693</ele>
        <time>2022-12-15T12:35:52.595Z</time>
      </trkpt>
      <trkpt lat="47.60006" lon="-2.08887">
        <ele>52.509129</ele>
        <time>2022-12-15T12:35:55.595Z</time>
      </trkpt>
      <trkpt lat="47.6" lon="-2.08898">
        <ele>52.571099</ele>
        <time>2022-12-15T12:35:57.666Z</time>
      </trkpt>
      <trkpt lat="47.59995" lon="-2.0891">
        <ele>52.638646</ele>
        <time>2022-12-15T12:35:59.595Z</time>
      </trkpt>
      <trkpt lat="47.59989" lon="-2.08922">
        <ele>52.708904</ele>
        <time>2022-12-15T12:36:01.595Z</time>
      </trkpt>
      <trkpt lat="47.59985" lon="-2.08935">
        <ele>52.776236</ele>
        <time>2022-12-15T12:36:03.606Z</time>
      </trkpt>
      <trkpt lat="47.59981" lon="-2.0895">
        <ele>52.849984</ele>
        <time>2022-12-15T12:36:05.609Z</time>
      </trkpt>
      <trkpt lat="47.59976" lon="-2.08964">
        <ele>52.920644</ele>
        <time>2022-12-15T12:36:07.595Z</time>
      </trkpt>
      <trkpt lat="47.59972" lon="-2.08978">
        <ele>52.992655</ele>
        <time>2022-12-15T12:36:09.643Z</time>
      </trkpt>
      <trkpt lat="47.59968" lon="-2.08991">
        <ele>53.056411</ele>
        <time>2022-12-15T12:36:11.595Z</time>
      </trkpt>
      <trkpt lat="47.59963" lon="-2.09005">
        <ele>53.130268</ele>
        <time>2022-12-15T12:36:13.595Z</time>
      </trkpt>
      <trkpt lat="47.59957" lon="-2.09016">
        <ele>53.198578</ele>
        <time>2022-12-15T12:36:15.645Z</time>
      </trkpt>
      <trkpt lat="47.59949" lon="-2.09025">
        <ele>53.267043</ele>
        <time>2022-12-15T12:36:17.595Z</time>
      </trkpt>
      <trkpt lat="47.59941" lon="-2.09033">
        <ele>53.330113</ele>
        <time>2022-12-15T12:36:19.606Z</time>
      </trkpt>
      <trkpt lat="47.59931" lon="-2.09042">
        <ele>53.410562</ele>
        <time>2022-12-15T12:36:22.594Z</time>
      </trkpt>
      <trkpt lat="47.59923" lon="-2.09048">
        <ele>53.388503</ele>
        <time>2022-12-15T12:36:26.597Z</time>
      </trkpt>
      <trkpt lat="47.59912" lon="-2.09055">
        <ele>53.352697</ele>
        <time>2022-12-15T12:36:30.597Z</time>
      </trkpt>
      <trkpt lat="47.59902" lon="-2.09059">
        <ele>53.320008</ele>
        <time>2022-12-15T12:36:32.602Z</time>
      </trkpt>
      <trkpt lat="47.59893" lon="-2.09064">
        <ele>53.287979</ele>
        <time>2022-12-15T12:36:34.583Z</time>
      </trkpt>
      <trkpt lat="47.59883" lon="-2.09067">
        <ele>53.255945</ele>
        <time>2022-12-15T12:36:36.589Z</time>
      </trkpt>
      <trkpt lat="47.59874" lon="-2.09069">
        <ele>53.22742</ele>
        <time>2022-12-15T12:36:38.597Z</time>
      </trkpt>
      <trkpt lat="47.59861" lon="-2.09071">
        <ele>53.187043</ele>
        <time>2022-12-15T12:36:41.600Z</time>
      </trkpt>
      <trkpt lat="47.59849" lon="-2.09072">
        <ele>53.146856</ele>
        <time>2022-12-15T12:36:44.597Z</time>
      </trkpt>
      <trkpt lat="47.5984" lon="-2.09072">
        <ele>53.118086</ele>
        <time>2022-12-15T12:36:46.596Z</time>
      </trkpt>
      <trkpt lat="47.5983" lon="-2.09072">
        <ele>53.087419</ele>
        <time>2022-12-15T12:36:48.596Z</time>
      </trkpt>
      <trkpt lat="47.5982" lon="-2.0907">
        <ele>53.057167</ele>
        <time>2022-12-15T12:36:50.584Z</time>
      </trkpt>
      <trkpt lat="47.59811" lon="-2.09068">
        <ele>53.027286</ele>
        <time>2022-12-15T12:36:52.596Z</time>
      </trkpt>
      <trkpt lat="47.59802" lon="-2.09065">
        <ele>52.997326</ele>
        <time>2022-12-15T12:36:54.596Z</time>
      </trkpt>
      <trkpt lat="47.59793" lon="-2.09061">
        <ele>52.967495</ele>
        <time>2022-12-15T12:36:56.598Z</time>
      </trkpt>
      <trkpt lat="47.5978" lon="-2.09055">
        <ele>52.92495</ele>
        <time>2022-12-15T12:36:59.598Z</time>
      </trkpt>
      <trkpt lat="47.59771" lon="-2.09049">
        <ele>52.894256</ele>
        <time>2022-12-15T12:37:01.642Z</time>
      </trkpt>
      <trkpt lat="47.59763" lon="-2.09044">
        <ele>52.865226</ele>
        <time>2022-12-15T12:37:03.579Z</time>
      </trkpt>
      <trkpt lat="47.59754" lon="-2.09039">
        <ele>52.791104</ele>
        <time>2022-12-15T12:37:05.595Z</time>
      </trkpt>
      <trkpt lat="47.59745" lon="-2.09033">
        <ele>52.658856</ele>
        <time>2022-12-15T12:37:07.663Z</time>
      </trkpt>
      <trkpt lat="47.59736" lon="-2.09026">
        <ele>52.514645</ele>
        <time>2022-12-15T12:37:09.600Z</time>
      </trkpt>
      <trkpt lat="47.59724" lon="-2.09017">
        <ele>52.317664</ele>
        <time>2022-12-15T12:37:12.612Z</time>
      </trkpt>
      <trkpt lat="47.59712" lon="-2.0901">
        <ele>52.130838</ele>
        <time>2022-12-15T12:37:15.579Z</time>
      </trkpt>
      <trkpt lat="47.59704" lon="-2.09004">
        <ele>51.99566</ele>
        <time>2022-12-15T12:37:17.595Z</time>
      </trkpt>
      <trkpt lat="47.59695" lon="-2.08997">
        <ele>51.861327</ele>
        <time>2022-12-15T12:37:19.644Z</time>
      </trkpt>
      <trkpt lat="47.59687" lon="-2.08991">
        <ele>51.724439</ele>
        <time>2022-12-15T12:37:21.604Z</time>
      </trkpt>
      <trkpt lat="47.59678" lon="-2.08985">
        <ele>51.584451</ele>
        <time>2022-12-15T12:37:23.579Z</time>
      </trkpt>
      <trkpt lat="47.59669" lon="-2.08979">
        <ele>51.449716</ele>
        <time>2022-12-15T12:37:25.649Z</time>
      </trkpt>
      <trkpt lat="47.59661" lon="-2.08974">
        <ele>51.316082</ele>
        <time>2022-12-15T12:37:27.600Z</time>
      </trkpt>
      <trkpt lat="47.59652" lon="-2.08968">
        <ele>51.174883</ele>
        <time>2022-12-15T12:37:29.596Z</time>
      </trkpt>
      <trkpt lat="47.59643" lon="-2.08962">
        <ele>51.040189</ele>
        <time>2022-12-15T12:37:31.585Z</time>
      </trkpt>
      <trkpt lat="47.59635" lon="-2.08957">
        <ele>50.905316</ele>
        <time>2022-12-15T12:37:33.582Z</time>
      </trkpt>
      <trkpt lat="47.59625" lon="-2.08951">
        <ele>50.760207</ele>
        <time>2022-12-15T12:37:35.592Z</time>
      </trkpt>
      <trkpt lat="47.59617" lon="-2.08945">
        <ele>50.624018</ele>
        <time>2022-12-15T12:37:37.584Z</time>
      </trkpt>
      <trkpt lat="47.59608" lon="-2.08939">
        <ele>50.490552</ele>
        <time>2022-12-15T12:37:39.601Z</time>
      </trkpt>
      <trkpt lat="47.596" lon="-2.08934">
        <ele>50.357383</ele>
        <time>2022-12-15T12:37:41.597Z</time>
      </trkpt>
      <trkpt lat="47.59591" lon="-2.08927">
        <ele>50.272512</ele>
        <time>2022-12-15T12:37:43.584Z</time>
      </trkpt>
      <trkpt lat="47.59583" lon="-2.08922">
        <ele>50.297047</ele>
        <time>2022-12-15T12:37:45.596Z</time>
      </trkpt>
      <trkpt lat="47.59574" lon="-2.08916">
        <ele>50.321724</ele>
        <time>2022-12-15T12:37:47.608Z</time>
      </trkpt>
      <trkpt lat="47.59566" lon="-2.0891">
        <ele>50.346135</ele>
        <time>2022-12-15T12:37:49.588Z</time>
      </trkpt>
      <trkpt lat="47.59554" lon="-2.08902">
        <ele>50.382189</ele>
        <time>2022-12-15T12:37:52.596Z</time>
      </trkpt>
      <trkpt lat="47.59542" lon="-2.08894">
        <ele>50.416955</ele>
        <time>2022-12-15T12:37:55.587Z</time>
      </trkpt>
      <trkpt lat="47.5953" lon="-2.08886">
        <ele>50.450909</ele>
        <time>2022-12-15T12:37:58.599Z</time>
      </trkpt>
      <trkpt lat="47.59519" lon="-2.08877">
        <ele>50.485499</ele>
        <time>2022-12-15T12:38:01.607Z</time>
      </trkpt>
      <trkpt lat="47.59507" lon="-2.0887">
        <ele>50.520572</ele>
        <time>2022-12-15T12:38:04.608Z</time>
      </trkpt>
      <trkpt lat="47.59495" lon="-2.08862">
        <ele>50.554855</ele>
        <time>2022-12-15T12:38:07.603Z</time>
      </trkpt>
      <trkpt lat="47.59483" lon="-2.08854">
        <ele>50.58919</ele>
        <time>2022-12-15T12:38:10.599Z</time>
      </trkpt>
      <trkpt lat="47.59471" lon="-2.08846">
        <ele>50.624183</ele>
        <time>2022-12-15T12:38:13.582Z</time>
      </trkpt>
      <trkpt lat="47.5946" lon="-2.08838">
        <ele>50.656149</ele>
        <time>2022-12-15T12:38:16.598Z</time>
      </trkpt>
      <trkpt lat="47.59448" lon="-2.0883">
        <ele>50.691645</ele>
        <time>2022-12-15T12:38:19.600Z</time>
      </trkpt>
      <trkpt lat="47.59436" lon="-2.08822">
        <ele>50.726728</ele>
        <time>2022-12-15T12:38:22.596Z</time>
      </trkpt>
      <trkpt lat="47.59425" lon="-2.08814">
        <ele>50.719683</ele>
        <time>2022-12-15T12:38:25.597Z</time>
      </trkpt>
      <trkpt lat="47.59413" lon="-2.08806">
        <ele>50.674657</ele>
        <time>2022-12-15T12:38:28.598Z</time>
      </trkpt>
      <trkpt lat="47.59401" lon="-2.08798">
        <ele>50.628506</ele>
        <time>2022-12-15T12:38:31.608Z</time>
      </trkpt>
      <trkpt lat="47.59391" lon="-2.08791">
        <ele>50.589543</ele>
        <time>2022-12-15T12:38:34.597Z</time>
      </trkpt>
      <trkpt lat="47.59382" lon="-2.08786">
        <ele>50.554357</ele>
        <time>2022-12-15T12:38:37.595Z</time>
      </trkpt>
      <trkpt lat="47.59373" lon="-2.08778">
        <ele>50.516877</ele>
        <time>2022-12-15T12:38:40.596Z</time>
      </trkpt>
      <trkpt lat="47.59363" lon="-2.08772">
        <ele>50.478783</ele>
        <time>2022-12-15T12:38:43.583Z</time>
      </trkpt>
      <trkpt lat="47.59353" lon="-2.08766">
        <ele>50.438817</ele>
        <time>2022-12-15T12:38:46.673Z</time>
      </trkpt>
      <trkpt lat="47.59342" lon="-2.08759">
        <ele>50.396085</ele>
        <time>2022-12-15T12:38:49.597Z</time>
      </trkpt>
      <trkpt lat="47.59331" lon="-2.08751">
        <ele>50.354464</ele>
        <time>2022-12-15T12:38:52.642Z</time>
      </trkpt>
      <trkpt lat="47.59321" lon="-2.08744">
        <ele>50.312577</ele>
        <time>2022-12-15T12:38:55.606Z</time>
      </trkpt>
      <trkpt lat="47.5931" lon="-2.08737">
        <ele>50.270363</ele>
        <time>2022-12-15T12:38:58.594Z</time>
      </trkpt>
      <trkpt lat="47.593" lon="-2.0873">
        <ele>50.232773</ele>
        <time>2022-12-15T12:39:01.601Z</time>
      </trkpt>
      <trkpt lat="47.59291" lon="-2.08724">
        <ele>50.198373</ele>
        <time>2022-12-15T12:39:04.609Z</time>
      </trkpt>
      <trkpt lat="47.59281" lon="-2.08718">
        <ele>50.156674</ele>
        <time>2022-12-15T12:39:07.594Z</time>
      </trkpt>
      <trkpt lat="47.5927" lon="-2.08711">
        <ele>50.116641</ele>
        <time>2022-12-15T12:39:10.599Z</time>
      </trkpt>
      <trkpt lat="47.5926" lon="-2.08702">
        <ele>50.154116</ele>
        <time>2022-12-15T12:39:13.595Z</time>
      </trkpt>
      <trkpt lat="47.59248" lon="-2.08694">
        <ele>50.232865</ele>
        <time>2022-12-15T12:39:16.592Z</time>
      </trkpt>
      <trkpt lat="47.59237" lon="-2.08687">
        <ele>50.311464</ele>
        <time>2022-12-15T12:39:19.597Z</time>
      </trkpt>
      <trkpt lat="47.59226" lon="-2.08679">
        <ele>50.391045</ele>
        <time>2022-12-15T12:39:22.607Z</time>
      </trkpt>
      <trkpt lat="47.59214" lon="-2.08671">
        <ele>50.471553</ele>
        <time>2022-12-15T12:39:25.595Z</time>
      </trkpt>
      <trkpt lat="47.59203" lon="-2.08664">
        <ele>50.551134</ele>
        <time>2022-12-15T12:39:28.599Z</time>
      </trkpt>
      <trkpt lat="47.59192" lon="-2.08657">
        <ele>50.62406</ele>
        <time>2022-12-15T12:39:31.594Z</time>
      </trkpt>
      <trkpt lat="47.59184" lon="-2.08651">
        <ele>50.683883</ele>
        <time>2022-12-15T12:39:34.596Z</time>
      </trkpt>
      <trkpt lat="47.59174" lon="-2.08645">
        <ele>50.749962</ele>
        <time>2022-12-15T12:39:37.594Z</time>
      </trkpt>
      <trkpt lat="47.59163" lon="-2.08638">
        <ele>50.822667</ele>
        <time>2022-12-15T12:39:40.599Z</time>
      </trkpt>
      <trkpt lat="47.59152" lon="-2.08632">
        <ele>50.898109</ele>
        <time>2022-12-15T12:39:43.587Z</time>
      </trkpt>
      <trkpt lat="47.59141" lon="-2.08624">
        <ele>50.977286</ele>
        <time>2022-12-15T12:39:46.584Z</time>
      </trkpt>
      <trkpt lat="47.59129" lon="-2.08616">
        <ele>51.057215</ele>
        <time>2022-12-15T12:39:49.596Z</time>
      </trkpt>
      <trkpt lat="47.59118" lon="-2.08609">
        <ele>51.13871</ele>
        <time>2022-12-15T12:39:52.596Z</time>
      </trkpt>
      <trkpt lat="47.59106" lon="-2.08601">
        <ele>51.216911</ele>
        <time>2022-12-15T12:39:55.598Z</time>
      </trkpt>
      <trkpt lat="47.59096" lon="-2.08594">
        <ele>51.097055</ele>
        <time>2022-12-15T12:39:58.606Z</time>
      </trkpt>
      <trkpt lat="47.59086" lon="-2.08586">
        <ele>50.873312</ele>
        <time>2022-12-15T12:40:01.599Z</time>
      </trkpt>
      <trkpt lat="47.59075" lon="-2.08579">
        <ele>50.631538</ele>
        <time>2022-12-15T12:40:04.596Z</time>
      </trkpt>
      <trkpt lat="47.59063" lon="-2.08571">
        <ele>50.384092</ele>
        <time>2022-12-15T12:40:07.596Z</time>
      </trkpt>
      <trkpt lat="47.59051" lon="-2.08563">
        <ele>50.130612</ele>
        <time>2022-12-15T12:40:10.607Z</time>
      </trkpt>
      <trkpt lat="47.59039" lon="-2.08555">
        <ele>49.877777</ele>
        <time>2022-12-15T12:40:13.598Z</time>
      </trkpt>
      <trkpt lat="47.59028" lon="-2.08547">
        <ele>49.627707</ele>
        <time>2022-12-15T12:40:16.597Z</time>
      </trkpt>
      <trkpt lat="47.59017" lon="-2.08539">
        <ele>49.397609</ele>
        <time>2022-12-15T12:40:19.597Z</time>
      </trkpt>
      <trkpt lat="47.59006" lon="-2.08532">
        <ele>49.162808</ele>
        <time>2022-12-15T12:40:22.595Z</time>
      </trkpt>
      <trkpt lat="47.58995" lon="-2.08524">
        <ele>48.919313</ele>
        <time>2022-12-15T12:40:25.598Z</time>
      </trkpt>
      <trkpt lat="47.58984" lon="-2.08516">
        <ele>48.682745</ele>
        <time>2022-12-15T12:40:28.597Z</time>
      </trkpt>
      <trkpt lat="47.58972" lon="-2.08507">
        <ele>48.422929</ele>
        <time>2022-12-15T12:40:31.596Z</time>
      </trkpt>
      <trkpt lat="47.58961" lon="-2.08499">
        <ele>48.173026</ele>
        <time>2022-12-15T12:40:34.606Z</time>
      </trkpt>
      <trkpt lat="47.5895" lon="-2.08492">
        <ele>47.953237</ele>
        <time>2022-12-15T12:40:37.595Z</time>
      </trkpt>
      <trkpt lat="47.5894" lon="-2.08485">
        <ele>47.735935</ele>
        <time>2022-12-15T12:40:40.587Z</time>
      </trkpt>
      <trkpt lat="47.58929" lon="-2.08477">
        <ele>47.778925</ele>
        <time>2022-12-15T12:40:43.599Z</time>
      </trkpt>
      <trkpt lat="47.58917" lon="-2.08469">
        <ele>47.823208</ele>
        <time>2022-12-15T12:40:46.591Z</time>
      </trkpt>
      <trkpt lat="47.58905" lon="-2.08461">
        <ele>47.868208</ele>
        <time>2022-12-15T12:40:49.600Z</time>
      </trkpt>
      <trkpt lat="47.58893" lon="-2.08453">
        <ele>47.913265</ele>
        <time>2022-12-15T12:40:52.586Z</time>
      </trkpt>
      <trkpt lat="47.58882" lon="-2.08445">
        <ele>47.95582</ele>
        <time>2022-12-15T12:40:55.597Z</time>
      </trkpt>
      <trkpt lat="47.5887" lon="-2.08436">
        <ele>48.000316</ele>
        <time>2022-12-15T12:40:58.598Z</time>
      </trkpt>
      <trkpt lat="47.58859" lon="-2.08428">
        <ele>48.043982</ele>
        <time>2022-12-15T12:41:01.596Z</time>
      </trkpt>
      <trkpt lat="47.58849" lon="-2.08421">
        <ele>48.081844</ele>
        <time>2022-12-15T12:41:04.596Z</time>
      </trkpt>
      <trkpt lat="47.58838" lon="-2.08415">
        <ele>48.119706</ele>
        <time>2022-12-15T12:41:07.598Z</time>
      </trkpt>
      <trkpt lat="47.58828" lon="-2.08407">
        <ele>48.158462</ele>
        <time>2022-12-15T12:41:10.608Z</time>
      </trkpt>
      <trkpt lat="47.58817" lon="-2.084">
        <ele>48.199369</ele>
        <time>2022-12-15T12:41:13.596Z</time>
      </trkpt>
      <trkpt lat="47.58806" lon="-2.08391">
        <ele>48.242013</ele>
        <time>2022-12-15T12:41:16.600Z</time>
      </trkpt>
      <trkpt lat="47.58795" lon="-2.08383">
        <ele>48.286087</ele>
        <time>2022-12-15T12:41:19.611Z</time>
      </trkpt>
      <trkpt lat="47.58784" lon="-2.08376">
        <ele>48.32814</ele>
        <time>2022-12-15T12:41:22.585Z</time>
      </trkpt>
      <trkpt lat="47.58773" lon="-2.08368">
        <ele>48.373056</ele>
        <time>2022-12-15T12:41:25.609Z</time>
      </trkpt>
      <trkpt lat="47.58763" lon="-2.08362">
        <ele>48.417453</ele>
        <time>2022-12-15T12:41:28.589Z</time>
      </trkpt>
      <trkpt lat="47.58754" lon="-2.08356">
        <ele>48.458317</ele>
        <time>2022-12-15T12:41:31.584Z</time>
      </trkpt>
      <trkpt lat="47.58746" lon="-2.0835">
        <ele>48.498111</ele>
        <time>2022-12-15T12:41:34.585Z</time>
      </trkpt>
      <trkpt lat="47.58737" lon="-2.08344">
        <ele>48.538987</ele>
        <time>2022-12-15T12:41:37.593Z</time>
      </trkpt>
      <trkpt lat="47.58728" lon="-2.08338">
        <ele>48.579778</ele>
        <time>2022-12-15T12:41:40.612Z</time>
      </trkpt>
      <trkpt lat="47.58719" lon="-2.08332">
        <ele>48.622156</ele>
        <time>2022-12-15T12:41:43.601Z</time>
      </trkpt>
      <trkpt lat="47.58709" lon="-2.08325">
        <ele>48.66606</ele>
        <time>2022-12-15T12:41:46.588Z</time>
      </trkpt>
      <trkpt lat="47.587" lon="-2.08319">
        <ele>48.709187</ele>
        <time>2022-12-15T12:41:49.599Z</time>
      </trkpt>
      <trkpt lat="47.58691" lon="-2.08313">
        <ele>48.753089</ele>
        <time>2022-12-15T12:41:52.597Z</time>
      </trkpt>
      <trkpt lat="47.58681" lon="-2.08306">
        <ele>48.797221</ele>
        <time>2022-12-15T12:41:55.596Z</time>
      </trkpt>
      <trkpt lat="47.58671" lon="-2.08299">
        <ele>48.844633</ele>
        <time>2022-12-15T12:41:58.596Z</time>
      </trkpt>
      <trkpt lat="47.58661" lon="-2.08293">
        <ele>48.891513</ele>
        <time>2022-12-15T12:42:01.600Z</time>
      </trkpt>
      <trkpt lat="47.5865" lon="-2.08285">
        <ele>48.938924</ele>
        <time>2022-12-15T12:42:04.610Z</time>
      </trkpt>
      <trkpt lat="47.5864" lon="-2.08279">
        <ele>48.986097</ele>
        <time>2022-12-15T12:42:07.599Z</time>
      </trkpt>
      <trkpt lat="47.58631" lon="-2.08273">
        <ele>49.026851</ele>
        <time>2022-12-15T12:42:10.598Z</time>
      </trkpt>
      <trkpt lat="47.58622" lon="-2.08266">
        <ele>49.06961</ele>
        <time>2022-12-15T12:42:13.599Z</time>
      </trkpt>
      <trkpt lat="47.58612" lon="-2.08259">
        <ele>49.112927</ele>
        <time>2022-12-15T12:42:16.605Z</time>
      </trkpt>
      <trkpt lat="47.58601" lon="-2.08252">
        <ele>49.143112</ele>
        <time>2022-12-15T12:42:19.597Z</time>
      </trkpt>
      <trkpt lat="47.58591" lon="-2.08244">
        <ele>49.173261</ele>
        <time>2022-12-15T12:42:22.597Z</time>
      </trkpt>
      <trkpt lat="47.5858" lon="-2.08237">
        <ele>49.202586</ele>
        <time>2022-12-15T12:42:25.595Z</time>
      </trkpt>
      <trkpt lat="47.5857" lon="-2.0823">
        <ele>49.232143</ele>
        <time>2022-12-15T12:42:28.597Z</time>
      </trkpt>
      <trkpt lat="47.58559" lon="-2.08223">
        <ele>49.261383</ele>
        <time>2022-12-15T12:42:31.600Z</time>
      </trkpt>
      <trkpt lat="47.58549" lon="-2.08216">
        <ele>49.290467</ele>
        <time>2022-12-15T12:42:34.610Z</time>
      </trkpt>
      <trkpt lat="47.58539" lon="-2.0821">
        <ele>49.316383</ele>
        <time>2022-12-15T12:42:37.584Z</time>
      </trkpt>
      <trkpt lat="47.5853" lon="-2.08202">
        <ele>49.343145</ele>
        <time>2022-12-15T12:42:40.598Z</time>
      </trkpt>
      <trkpt lat="47.5852" lon="-2.08196">
        <ele>49.371564</ele>
        <time>2022-12-15T12:42:43.597Z</time>
      </trkpt>
      <trkpt lat="47.58509" lon="-2.08189">
        <ele>49.401915</ele>
        <time>2022-12-15T12:42:46.599Z</time>
      </trkpt>
      <trkpt lat="47.58498" lon="-2.08181">
        <ele>49.431991</ele>
        <time>2022-12-15T12:42:49.602Z</time>
      </trkpt>
      <trkpt lat="47.58487" lon="-2.08174">
        <ele>49.463824</ele>
        <time>2022-12-15T12:42:52.600Z</time>
      </trkpt>
      <trkpt lat="47.58476" lon="-2.08166">
        <ele>49.495124</ele>
        <time>2022-12-15T12:42:55.600Z</time>
      </trkpt>
      <trkpt lat="47.58464" lon="-2.08159">
        <ele>49.526311</ele>
        <time>2022-12-15T12:42:58.595Z</time>
      </trkpt>
      <trkpt lat="47.58454" lon="-2.08151">
        <ele>49.556534</ele>
        <time>2022-12-15T12:43:01.599Z</time>
      </trkpt>
      <trkpt lat="47.58443" lon="-2.08143">
        <ele>49.559238</ele>
        <time>2022-12-15T12:43:04.601Z</time>
      </trkpt>
      <trkpt lat="47.58432" lon="-2.08136">
        <ele>49.551483</ele>
        <time>2022-12-15T12:43:07.643Z</time>
      </trkpt>
      <trkpt lat="47.5842" lon="-2.08129">
        <ele>49.543422</ele>
        <time>2022-12-15T12:43:10.598Z</time>
      </trkpt>
      <trkpt lat="47.58408" lon="-2.0812">
        <ele>49.534976</ele>
        <time>2022-12-15T12:43:13.614Z</time>
      </trkpt>
      <trkpt lat="47.58396" lon="-2.08112">
        <ele>49.526273</ele>
        <time>2022-12-15T12:43:16.607Z</time>
      </trkpt>
      <trkpt lat="47.58385" lon="-2.08104">
        <ele>49.518153</ele>
        <time>2022-12-15T12:43:19.631Z</time>
      </trkpt>
      <trkpt lat="47.58374" lon="-2.08098">
        <ele>49.510986</ele>
        <time>2022-12-15T12:43:22.598Z</time>
      </trkpt>
      <trkpt lat="47.58364" lon="-2.08091">
        <ele>49.50375</ele>
        <time>2022-12-15T12:43:25.652Z</time>
      </trkpt>
      <trkpt lat="47.58354" lon="-2.08084">
        <ele>49.496508</ele>
        <time>2022-12-15T12:43:28.600Z</time>
      </trkpt>
      <trkpt lat="47.58343" lon="-2.08076">
        <ele>49.48904</ele>
        <time>2022-12-15T12:43:31.650Z</time>
      </trkpt>
      <trkpt lat="47.58332" lon="-2.08069">
        <ele>49.481081</ele>
        <time>2022-12-15T12:43:34.596Z</time>
      </trkpt>
      <trkpt lat="47.58321" lon="-2.0806">
        <ele>49.472924</ele>
        <time>2022-12-15T12:43:37.652Z</time>
      </trkpt>
      <trkpt lat="47.58309" lon="-2.08052">
        <ele>49.464727</ele>
        <time>2022-12-15T12:43:40.607Z</time>
      </trkpt>
      <trkpt lat="47.58298" lon="-2.08045">
        <ele>49.456699</ele>
        <time>2022-12-15T12:43:43.624Z</time>
      </trkpt>
      <trkpt lat="47.58287" lon="-2.08038">
        <ele>49.450577</ele>
        <time>2022-12-15T12:43:46.597Z</time>
      </trkpt>
      <trkpt lat="47.58276" lon="-2.08031">
        <ele>49.477647</ele>
        <time>2022-12-15T12:43:49.665Z</time>
      </trkpt>
      <trkpt lat="47.58266" lon="-2.08024">
        <ele>49.503816</ele>
        <time>2022-12-15T12:43:52.601Z</time>
      </trkpt>
      <trkpt lat="47.58256" lon="-2.08016">
        <ele>49.53081</ele>
        <time>2022-12-15T12:43:55.671Z</time>
      </trkpt>
      <trkpt lat="47.58246" lon="-2.08009">
        <ele>49.556892</ele>
        <time>2022-12-15T12:43:58.605Z</time>
      </trkpt>
      <trkpt lat="47.58236" lon="-2.08003">
        <ele>49.581587</ele>
        <time>2022-12-15T12:44:01.643Z</time>
      </trkpt>
      <trkpt lat="47.58226" lon="-2.07995">
        <ele>49.608446</ele>
        <time>2022-12-15T12:44:04.597Z</time>
      </trkpt>
      <trkpt lat="47.58215" lon="-2.07988">
        <ele>49.635998</ele>
        <time>2022-12-15T12:44:07.589Z</time>
      </trkpt>
      <trkpt lat="47.58205" lon="-2.07981">
        <ele>49.662298</ele>
        <time>2022-12-15T12:44:10.572Z</time>
      </trkpt>
      <trkpt lat="47.58196" lon="-2.07975">
        <ele>49.684833</ele>
        <time>2022-12-15T12:44:13.578Z</time>
      </trkpt>
      <trkpt lat="47.58186" lon="-2.07968">
        <ele>49.711645</ele>
        <time>2022-12-15T12:44:17.596Z</time>
      </trkpt>
      <trkpt lat="47.58177" lon="-2.07962">
        <ele>49.734376</ele>
        <time>2022-12-15T12:44:20.586Z</time>
      </trkpt>
      <trkpt lat="47.58168" lon="-2.07955">
        <ele>49.757662</ele>
        <time>2022-12-15T12:44:23.580Z</time>
      </trkpt>
      <trkpt lat="47.58158" lon="-2.07948">
        <ele>49.782556</ele>
        <time>2022-12-15T12:44:26.598Z</time>
      </trkpt>
      <trkpt lat="47.58148" lon="-2.07942">
        <ele>49.807981</ele>
        <time>2022-12-15T12:44:29.588Z</time>
      </trkpt>
      <trkpt lat="47.58138" lon="-2.07935">
        <ele>49.833937</ele>
        <time>2022-12-15T12:44:32.597Z</time>
      </trkpt>
      <trkpt lat="47.58127" lon="-2.07928">
        <ele>49.861844</ele>
        <time>2022-12-15T12:44:35.600Z</time>
      </trkpt>
      <trkpt lat="47.58117" lon="-2.07922">
        <ele>49.893756</ele>
        <time>2022-12-15T12:44:38.611Z</time>
      </trkpt>
      <trkpt lat="47.58108" lon="-2.07915">
        <ele>49.923097</ele>
        <time>2022-12-15T12:44:41.598Z</time>
      </trkpt>
      <trkpt lat="47.58099" lon="-2.0791">
        <ele>49.952829</ele>
        <time>2022-12-15T12:44:44.597Z</time>
      </trkpt>
      <trkpt lat="47.5809" lon="-2.07904">
        <ele>49.983077</ele>
        <time>2022-12-15T12:44:47.596Z</time>
      </trkpt>
      <trkpt lat="47.5808" lon="-2.07897">
        <ele>50.017206</ele>
        <time>2022-12-15T12:44:50.599Z</time>
      </trkpt>
      <trkpt lat="47.5807" lon="-2.0789">
        <ele>50.051826</ele>
        <time>2022-12-15T12:44:53.594Z</time>
      </trkpt>
      <trkpt lat="47.58059" lon="-2.07883">
        <ele>50.087569</ele>
        <time>2022-12-15T12:44:56.597Z</time>
      </trkpt>
      <trkpt lat="47.58048" lon="-2.07875">
        <ele>50.124116</ele>
        <time>2022-12-15T12:44:59.598Z</time>
      </trkpt>
      <trkpt lat="47.58038" lon="-2.07867">
        <ele>50.160745</ele>
        <time>2022-12-15T12:45:02.597Z</time>
      </trkpt>
      <trkpt lat="47.58027" lon="-2.0786">
        <ele>50.197572</ele>
        <time>2022-12-15T12:45:05.603Z</time>
      </trkpt>
      <trkpt lat="47.58016" lon="-2.07852">
        <ele>50.233396</ele>
        <time>2022-12-15T12:45:08.597Z</time>
      </trkpt>
      <trkpt lat="47.58005" lon="-2.07845">
        <ele>50.268774</ele>
        <time>2022-12-15T12:45:11.598Z</time>
      </trkpt>
      <trkpt lat="47.57994" lon="-2.07839">
        <ele>50.305391</ele>
        <time>2022-12-15T12:45:14.598Z</time>
      </trkpt>
      <trkpt lat="47.57984" lon="-2.07831">
        <ele>50.340108</ele>
        <time>2022-12-15T12:45:17.597Z</time>
      </trkpt>
      <trkpt lat="47.57975" lon="-2.07825">
        <ele>50.370904</ele>
        <time>2022-12-15T12:45:20.609Z</time>
      </trkpt>
      <trkpt lat="47.57966" lon="-2.07819">
        <ele>50.401383</ele>
        <time>2022-12-15T12:45:23.602Z</time>
      </trkpt>
      <trkpt lat="47.57957" lon="-2.07812">
        <ele>50.361312</ele>
        <time>2022-12-15T12:45:26.599Z</time>
      </trkpt>
      <trkpt lat="47.57947" lon="-2.07806">
        <ele>50.229988</ele>
        <time>2022-12-15T12:45:29.596Z</time>
      </trkpt>
      <trkpt lat="47.57938" lon="-2.07799">
        <ele>50.098056</ele>
        <time>2022-12-15T12:45:32.598Z</time>
      </trkpt>
      <trkpt lat="47.57928" lon="-2.07793">
        <ele>49.960284</ele>
        <time>2022-12-15T12:45:35.645Z</time>
      </trkpt>
      <trkpt lat="47.57919" lon="-2.07786">
        <ele>49.834246</ele>
        <time>2022-12-15T12:45:38.589Z</time>
      </trkpt>
      <trkpt lat="47.5791" lon="-2.07781">
        <ele>49.709779</ele>
        <time>2022-12-15T12:45:41.669Z</time>
      </trkpt>
      <trkpt lat="47.57901" lon="-2.07774">
        <ele>49.574142</ele>
        <time>2022-12-15T12:45:44.598Z</time>
      </trkpt>
      <trkpt lat="47.5789" lon="-2.07767">
        <ele>49.42709</ele>
        <time>2022-12-15T12:45:47.587Z</time>
      </trkpt>
      <trkpt lat="47.57879" lon="-2.0776">
        <ele>49.268726</ele>
        <time>2022-12-15T12:45:50.601Z</time>
      </trkpt>
      <trkpt lat="47.57868" lon="-2.07753">
        <ele>49.11271</ele>
        <time>2022-12-15T12:45:53.596Z</time>
      </trkpt>
      <trkpt lat="47.57859" lon="-2.07747">
        <ele>48.98512</ele>
        <time>2022-12-15T12:45:56.598Z</time>
      </trkpt>
      <trkpt lat="47.57851" lon="-2.0774">
        <ele>48.864046</ele>
        <time>2022-12-15T12:46:01.604Z</time>
      </trkpt>
      <trkpt lat="47.57842" lon="-2.07734">
        <ele>48.741758</ele>
        <time>2022-12-15T12:46:06.590Z</time>
      </trkpt>
      <trkpt lat="47.57829" lon="-2.07726">
        <ele>48.564675</ele>
        <time>2022-12-15T12:46:10.588Z</time>
      </trkpt>
      <trkpt lat="47.5782" lon="-2.07719">
        <ele>48.431356</ele>
        <time>2022-12-15T12:46:12.596Z</time>
      </trkpt>
      <trkpt lat="47.57811" lon="-2.07714">
        <ele>48.30623</ele>
        <time>2022-12-15T12:46:14.602Z</time>
      </trkpt>
      <trkpt lat="47.57803" lon="-2.07708">
        <ele>48.190033</ele>
        <time>2022-12-15T12:46:16.597Z</time>
      </trkpt>
      <trkpt lat="47.57792" lon="-2.07701">
        <ele>48.121827</ele>
        <time>2022-12-15T12:46:19.606Z</time>
      </trkpt>
      <trkpt lat="47.57783" lon="-2.07695">
        <ele>48.136817</ele>
        <time>2022-12-15T12:46:22.609Z</time>
      </trkpt>
      <trkpt lat="47.57774" lon="-2.07689">
        <ele>48.151576</ele>
        <time>2022-12-15T12:46:25.601Z</time>
      </trkpt>
      <trkpt lat="47.57763" lon="-2.07681">
        <ele>48.168979</ele>
        <time>2022-12-15T12:46:28.599Z</time>
      </trkpt>
      <trkpt lat="47.57752" lon="-2.07675">
        <ele>48.186651</ele>
        <time>2022-12-15T12:46:31.597Z</time>
      </trkpt>
      <trkpt lat="47.57741" lon="-2.07666">
        <ele>48.205223</ele>
        <time>2022-12-15T12:46:34.609Z</time>
      </trkpt>
      <trkpt lat="47.5773" lon="-2.07658">
        <ele>48.224691</ele>
        <time>2022-12-15T12:46:37.585Z</time>
      </trkpt>
      <trkpt lat="47.57719" lon="-2.0765">
        <ele>48.242453</ele>
        <time>2022-12-15T12:46:40.608Z</time>
      </trkpt>
      <trkpt lat="47.57709" lon="-2.07642">
        <ele>48.259413</ele>
        <time>2022-12-15T12:46:43.598Z</time>
      </trkpt>
      <trkpt lat="47.57699" lon="-2.07634">
        <ele>48.275942</ele>
        <time>2022-12-15T12:46:46.599Z</time>
      </trkpt>
      <trkpt lat="47.57691" lon="-2.07626">
        <ele>48.291289</ele>
        <time>2022-12-15T12:46:49.607Z</time>
      </trkpt>
      <trkpt lat="47.57681" lon="-2.07617">
        <ele>48.308614</ele>
        <time>2022-12-15T12:46:52.610Z</time>
      </trkpt>
      <trkpt lat="47.57671" lon="-2.07606">
        <ele>48.327667</ele>
        <time>2022-12-15T12:46:55.607Z</time>
      </trkpt>
      <trkpt lat="47.57661" lon="-2.07594">
        <ele>48.346969</ele>
        <time>2022-12-15T12:46:58.608Z</time>
      </trkpt>
      <trkpt lat="47.57651" lon="-2.07582">
        <ele>48.366587</ele>
        <time>2022-12-15T12:47:01.599Z</time>
      </trkpt>
      <trkpt lat="47.57641" lon="-2.07569">
        <ele>48.391616</ele>
        <time>2022-12-15T12:47:04.596Z</time>
      </trkpt>
      <trkpt lat="47.57632" lon="-2.07556">
        <ele>48.442368</ele>
        <time>2022-12-15T12:47:07.598Z</time>
      </trkpt>
      <trkpt lat="47.57625" lon="-2.07544">
        <ele>48.486003</ele>
        <time>2022-12-15T12:47:10.600Z</time>
      </trkpt>
      <trkpt lat="47.57619" lon="-2.07531">
        <ele>48.527643</ele>
        <time>2022-12-15T12:47:13.582Z</time>
      </trkpt>
      <trkpt lat="47.57614" lon="-2.07519">
        <ele>48.56752</ele>
        <time>2022-12-15T12:47:16.601Z</time>
      </trkpt>
      <trkpt lat="47.57609" lon="-2.07507">
        <ele>48.605162</ele>
        <time>2022-12-15T12:47:19.609Z</time>
      </trkpt>
      <trkpt lat="47.57605" lon="-2.07495">
        <ele>48.64231</ele>
        <time>2022-12-15T12:47:22.601Z</time>
      </trkpt>
      <trkpt lat="47.576" lon="-2.07482">
        <ele>48.682383</ele>
        <time>2022-12-15T12:47:25.600Z</time>
      </trkpt>
      <trkpt lat="47.57596" lon="-2.07469">
        <ele>48.722883</ele>
        <time>2022-12-15T12:47:28.601Z</time>
      </trkpt>
      <trkpt lat="47.57592" lon="-2.07455">
        <ele>48.763782</ele>
        <time>2022-12-15T12:47:31.610Z</time>
      </trkpt>
      <trkpt lat="47.57589" lon="-2.07439">
        <ele>48.80713</ele>
        <time>2022-12-15T12:47:34.585Z</time>
      </trkpt>
      <trkpt lat="47.57585" lon="-2.07425">
        <ele>48.850249</ele>
        <time>2022-12-15T12:47:37.597Z</time>
      </trkpt>
      <trkpt lat="47.57582" lon="-2.07409">
        <ele>48.89474</ele>
        <time>2022-12-15T12:47:40.598Z</time>
      </trkpt>
      <trkpt lat="47.57578" lon="-2.07394">
        <ele>48.939366</ele>
        <time>2022-12-15T12:47:43.581Z</time>
      </trkpt>
      <trkpt lat="47.57575" lon="-2.07378">
        <ele>48.985333</ele>
        <time>2022-12-15T12:47:46.605Z</time>
      </trkpt>
      <trkpt lat="47.57571" lon="-2.07361">
        <ele>49.032022</ele>
        <time>2022-12-15T12:47:49.610Z</time>
      </trkpt>
      <trkpt lat="47.57568" lon="-2.07344">
        <ele>49.080687</ele>
        <time>2022-12-15T12:47:52.600Z</time>
      </trkpt>
      <trkpt lat="47.57564" lon="-2.07327">
        <ele>49.105813</ele>
        <time>2022-12-15T12:47:55.603Z</time>
      </trkpt>
      <trkpt lat="47.5756" lon="-2.07311">
        <ele>49.093976</ele>
        <time>2022-12-15T12:47:58.607Z</time>
      </trkpt>
      <trkpt lat="47.57557" lon="-2.07294">
        <ele>49.082296</ele>
        <time>2022-12-15T12:48:01.598Z</time>
      </trkpt>
      <trkpt lat="47.57553" lon="-2.07277">
        <ele>49.070091</ele>
        <time>2022-12-15T12:48:04.600Z</time>
      </trkpt>
      <trkpt lat="47.5755" lon="-2.07258">
        <ele>49.057338</ele>
        <time>2022-12-15T12:48:07.585Z</time>
      </trkpt>
      <trkpt lat="47.57547" lon="-2.07242">
        <ele>49.04607</ele>
        <time>2022-12-15T12:48:11.598Z</time>
      </trkpt>
      <trkpt lat="47.57543" lon="-2.07229">
        <ele>49.035962</ele>
        <time>2022-12-15T12:48:16.596Z</time>
      </trkpt>
      <trkpt lat="47.57536" lon="-2.07221">
        <ele>49.026915</ele>
        <time>2022-12-15T12:48:20.669Z</time>
      </trkpt>
      <trkpt lat="47.57528" lon="-2.07215">
        <ele>49.017821</ele>
        <time>2022-12-15T12:48:25.600Z</time>
      </trkpt>
      <trkpt lat="47.57524" lon="-2.07202">
        <ele>49.008342</ele>
        <time>2022-12-15T12:48:31.590Z</time>
      </trkpt>
      <trkpt lat="47.5752" lon="-2.07189">
        <ele>48.999084</ele>
        <time>2022-12-15T12:48:49.601Z</time>
      </trkpt>
      <trkpt lat="47.57528" lon="-2.07165">
        <ele>48.980704</ele>
        <time>2022-12-15T12:50:42.605Z</time>
      </trkpt>
      <trkpt lat="47.57527" lon="-2.07147">
        <ele>48.969027</ele>
        <time>2022-12-15T12:50:46.645Z</time>
      </trkpt>
      <trkpt lat="47.57525" lon="-2.07134">
        <ele>48.959469</ele>
        <time>2022-12-15T12:50:49.598Z</time>
      </trkpt>
      <trkpt lat="47.57521" lon="-2.07119">
        <ele>48.949091</ele>
        <time>2022-12-15T12:50:52.664Z</time>
      </trkpt>
      <trkpt lat="47.57517" lon="-2.07103">
        <ele>48.937317</ele>
        <time>2022-12-15T12:50:55.606Z</time>
      </trkpt>
      <trkpt lat="47.57513" lon="-2.07087">
        <ele>48.912308</ele>
        <time>2022-12-15T12:50:58.600Z</time>
      </trkpt>
      <trkpt lat="47.5751" lon="-2.07071">
        <ele>48.870635</ele>
        <time>2022-12-15T12:51:01.600Z</time>
      </trkpt>
      <trkpt lat="47.57506" lon="-2.07056">
        <ele>48.831101</ele>
        <time>2022-12-15T12:51:04.599Z</time>
      </trkpt>
      <trkpt lat="47.57503" lon="-2.07041">
        <ele>48.792509</ele>
        <time>2022-12-15T12:51:07.600Z</time>
      </trkpt>
      <trkpt lat="47.575" lon="-2.07027">
        <ele>48.756045</ele>
        <time>2022-12-15T12:51:10.609Z</time>
      </trkpt>
      <trkpt lat="47.57497" lon="-2.07014">
        <ele>48.721231</ele>
        <time>2022-12-15T12:51:13.588Z</time>
      </trkpt>
      <trkpt lat="47.57493" lon="-2.06995">
        <ele>48.673064</ele>
        <time>2022-12-15T12:51:16.606Z</time>
      </trkpt>
      <trkpt lat="47.57489" lon="-2.06978">
        <ele>48.627503</ele>
        <time>2022-12-15T12:51:19.607Z</time>
      </trkpt>
      <trkpt lat="47.57485" lon="-2.06961">
        <ele>48.581362</ele>
        <time>2022-12-15T12:51:22.600Z</time>
      </trkpt>
      <trkpt lat="47.57481" lon="-2.06942">
        <ele>48.533096</ele>
        <time>2022-12-15T12:51:25.610Z</time>
      </trkpt>
      <trkpt lat="47.57476" lon="-2.06925">
        <ele>48.486719</ele>
        <time>2022-12-15T12:51:28.602Z</time>
      </trkpt>
      <trkpt lat="47.57473" lon="-2.06906">
        <ele>48.437702</ele>
        <time>2022-12-15T12:51:31.601Z</time>
      </trkpt>
      <trkpt lat="47.57469" lon="-2.06888">
        <ele>48.390027</ele>
        <time>2022-12-15T12:51:34.609Z</time>
      </trkpt>
      <trkpt lat="47.57465" lon="-2.0687">
        <ele>48.34528</ele>
        <time>2022-12-15T12:51:37.597Z</time>
      </trkpt>
      <trkpt lat="47.57462" lon="-2.06855">
        <ele>48.304191</ele>
        <time>2022-12-15T12:51:40.605Z</time>
      </trkpt>
      <trkpt lat="47.57459" lon="-2.06839">
        <ele>48.256046</ele>
        <time>2022-12-15T12:51:43.586Z</time>
      </trkpt>
      <trkpt lat="47.57455" lon="-2.06822">
        <ele>48.132705</ele>
        <time>2022-12-15T12:51:46.608Z</time>
      </trkpt>
      <trkpt lat="47.57451" lon="-2.06807">
        <ele>48.020839</ele>
        <time>2022-12-15T12:51:49.601Z</time>
      </trkpt>
      <trkpt lat="47.57448" lon="-2.06789">
        <ele>47.893147</ele>
        <time>2022-12-15T12:51:52.605Z</time>
      </trkpt>
      <trkpt lat="47.57445" lon="-2.06771">
        <ele>47.765345</ele>
        <time>2022-12-15T12:51:55.601Z</time>
      </trkpt>
      <trkpt lat="47.57442" lon="-2.06752">
        <ele>47.630923</ele>
        <time>2022-12-15T12:51:58.606Z</time>
      </trkpt>
      <trkpt lat="47.5744" lon="-2.06735">
        <ele>47.508645</ele>
        <time>2022-12-15T12:52:01.612Z</time>
      </trkpt>
      <trkpt lat="47.57437" lon="-2.06717">
        <ele>47.383215</ele>
        <time>2022-12-15T12:52:04.611Z</time>
      </trkpt>
      <trkpt lat="47.57434" lon="-2.06701">
        <ele>47.271522</ele>
        <time>2022-12-15T12:52:07.598Z</time>
      </trkpt>
      <trkpt lat="47.57433" lon="-2.06683">
        <ele>47.143541</ele>
        <time>2022-12-15T12:52:10.590Z</time>
      </trkpt>
      <trkpt lat="47.57432" lon="-2.06663">
        <ele>47.003982</ele>
        <time>2022-12-15T12:52:13.592Z</time>
      </trkpt>
      <trkpt lat="47.57431" lon="-2.06649">
        <ele>46.909956</ele>
        <time>2022-12-15T12:52:15.662Z</time>
      </trkpt>
      <trkpt lat="47.57429" lon="-2.06632">
        <ele>46.790657</ele>
        <time>2022-12-15T12:52:18.602Z</time>
      </trkpt>
      <trkpt lat="47.57427" lon="-2.06614">
        <ele>46.661196</ele>
        <time>2022-12-15T12:52:21.653Z</time>
      </trkpt>
      <trkpt lat="47.57426" lon="-2.06597">
        <ele>46.542747</ele>
        <time>2022-12-15T12:52:24.604Z</time>
      </trkpt>
      <trkpt lat="47.57425" lon="-2.06578">
        <ele>46.408371</ele>
        <time>2022-12-15T12:52:27.646Z</time>
      </trkpt>
      <trkpt lat="47.57424" lon="-2.0656">
        <ele>46.267965</ele>
        <time>2022-12-15T12:52:30.602Z</time>
      </trkpt>
      <trkpt lat="47.57422" lon="-2.06543">
        <ele>46.124726</ele>
        <time>2022-12-15T12:52:33.618Z</time>
      </trkpt>
      <trkpt lat="47.57421" lon="-2.06525">
        <ele>45.973926</ele>
        <time>2022-12-15T12:52:36.608Z</time>
      </trkpt>
      <trkpt lat="47.57419" lon="-2.06505">
        <ele>45.814114</ele>
        <time>2022-12-15T12:52:39.610Z</time>
      </trkpt>
      <trkpt lat="47.57417" lon="-2.06492">
        <ele>45.704997</ele>
        <time>2022-12-15T12:52:41.609Z</time>
      </trkpt>
      <trkpt lat="47.57415" lon="-2.06473">
        <ele>45.549837</ele>
        <time>2022-12-15T12:52:44.644Z</time>
      </trkpt>
      <trkpt lat="47.57414" lon="-2.06454">
        <ele>45.395694</ele>
        <time>2022-12-15T12:52:47.598Z</time>
      </trkpt>
      <trkpt lat="47.57413" lon="-2.06436">
        <ele>45.247599</ele>
        <time>2022-12-15T12:52:50.591Z</time>
      </trkpt>
      <trkpt lat="47.57412" lon="-2.06417">
        <ele>45.09253</ele>
        <time>2022-12-15T12:52:53.586Z</time>
      </trkpt>
      <trkpt lat="47.57411" lon="-2.06399">
        <ele>44.944456</ele>
        <time>2022-12-15T12:52:56.607Z</time>
      </trkpt>
      <trkpt lat="47.57409" lon="-2.06382">
        <ele>44.803473</ele>
        <time>2022-12-15T12:52:59.609Z</time>
      </trkpt>
      <trkpt lat="47.57407" lon="-2.06365">
        <ele>44.663141</ele>
        <time>2022-12-15T12:53:02.597Z</time>
      </trkpt>
      <trkpt lat="47.57405" lon="-2.06349">
        <ele>44.531622</ele>
        <time>2022-12-15T12:53:05.600Z</time>
      </trkpt>
      <trkpt lat="47.57404" lon="-2.06331">
        <ele>44.387291</ele>
        <time>2022-12-15T12:53:08.611Z</time>
      </trkpt>
      <trkpt lat="47.57403" lon="-2.06318">
        <ele>44.278869</ele>
        <time>2022-12-15T12:53:10.605Z</time>
      </trkpt>
      <trkpt lat="47.57402" lon="-2.06304">
        <ele>44.355806</ele>
        <time>2022-12-15T12:53:12.640Z</time>
      </trkpt>
      <trkpt lat="47.57401" lon="-2.0629">
        <ele>44.478039</ele>
        <time>2022-12-15T12:53:14.601Z</time>
      </trkpt>
      <trkpt lat="47.57399" lon="-2.06273">
        <ele>44.640967</ele>
        <time>2022-12-15T12:53:17.603Z</time>
      </trkpt>
      <trkpt lat="47.57398" lon="-2.06254">
        <ele>44.806462</ele>
        <time>2022-12-15T12:53:20.602Z</time>
      </trkpt>
      <trkpt lat="47.57397" lon="-2.06236">
        <ele>44.969322</ele>
        <time>2022-12-15T12:53:23.609Z</time>
      </trkpt>
      <trkpt lat="47.57395" lon="-2.06222">
        <ele>45.099414</ele>
        <time>2022-12-15T12:53:25.609Z</time>
      </trkpt>
      <trkpt lat="47.57393" lon="-2.06204">
        <ele>45.265702</ele>
        <time>2022-12-15T12:53:28.607Z</time>
      </trkpt>
      <trkpt lat="47.57391" lon="-2.06185">
        <ele>45.437758</ele>
        <time>2022-12-15T12:53:31.600Z</time>
      </trkpt>
      <trkpt lat="47.5739" lon="-2.06167">
        <ele>45.601729</ele>
        <time>2022-12-15T12:53:34.599Z</time>
      </trkpt>
      <trkpt lat="47.57389" lon="-2.06151">
        <ele>45.751432</ele>
        <time>2022-12-15T12:53:37.598Z</time>
      </trkpt>
      <trkpt lat="47.57388" lon="-2.06134">
        <ele>45.905628</ele>
        <time>2022-12-15T12:53:40.602Z</time>
      </trkpt>
      <trkpt lat="47.57387" lon="-2.06116">
        <ele>46.063693</ele>
        <time>2022-12-15T12:53:43.600Z</time>
      </trkpt>
      <trkpt lat="47.57385" lon="-2.06098">
        <ele>46.231968</ele>
        <time>2022-12-15T12:53:46.662Z</time>
      </trkpt>
      <trkpt lat="47.57383" lon="-2.06079">
        <ele>46.402602</ele>
        <time>2022-12-15T12:53:49.603Z</time>
      </trkpt>
      <trkpt lat="47.57382" lon="-2.0606">
        <ele>46.572969</ele>
        <time>2022-12-15T12:53:52.654Z</time>
      </trkpt>
      <trkpt lat="47.5738" lon="-2.06041">
        <ele>46.622243</ele>
        <time>2022-12-15T12:53:55.601Z</time>
      </trkpt>
      <trkpt lat="47.57378" lon="-2.06021">
        <ele>46.532443</ele>
        <time>2022-12-15T12:53:58.655Z</time>
      </trkpt>
      <trkpt lat="47.57377" lon="-2.06004">
        <ele>46.452217</ele>
        <time>2022-12-15T12:54:01.610Z</time>
      </trkpt>
      <trkpt lat="47.57376" lon="-2.05986">
        <ele>46.372369</ele>
        <time>2022-12-15T12:54:04.650Z</time>
      </trkpt>
      <trkpt lat="47.57374" lon="-2.05971">
        <ele>46.306249</ele>
        <time>2022-12-15T12:54:06.604Z</time>
      </trkpt>
      <trkpt lat="47.57373" lon="-2.05958">
        <ele>46.243664</ele>
        <time>2022-12-15T12:54:08.612Z</time>
      </trkpt>
      <trkpt lat="47.57372" lon="-2.05944">
        <ele>46.18268</ele>
        <time>2022-12-15T12:54:10.673Z</time>
      </trkpt>
      <trkpt lat="47.57371" lon="-2.0593">
        <ele>46.119989</ele>
        <time>2022-12-15T12:54:12.601Z</time>
      </trkpt>
      <trkpt lat="47.5737" lon="-2.05916">
        <ele>46.057115</ele>
        <time>2022-12-15T12:54:14.593Z</time>
      </trkpt>
      <trkpt lat="47.57368" lon="-2.05903">
        <ele>45.995085</ele>
        <time>2022-12-15T12:54:16.672Z</time>
      </trkpt>
      <trkpt lat="47.57367" lon="-2.05888">
        <ele>45.930078</ele>
        <time>2022-12-15T12:54:18.607Z</time>
      </trkpt>
      <trkpt lat="47.57366" lon="-2.05875">
        <ele>45.868854</ele>
        <time>2022-12-15T12:54:20.601Z</time>
      </trkpt>
      <trkpt lat="47.57365" lon="-2.05854">
        <ele>45.77734</ele>
        <time>2022-12-15T12:54:23.587Z</time>
      </trkpt>
      <trkpt lat="47.57364" lon="-2.0584">
        <ele>45.710634</ele>
        <time>2022-12-15T12:54:25.611Z</time>
      </trkpt>
      <trkpt lat="47.57362" lon="-2.05826">
        <ele>45.649205</ele>
        <time>2022-12-15T12:54:27.599Z</time>
      </trkpt>
      <trkpt lat="47.57361" lon="-2.05812">
        <ele>45.584212</ele>
        <time>2022-12-15T12:54:29.612Z</time>
      </trkpt>
      <trkpt lat="47.5736" lon="-2.05798">
        <ele>45.520922</ele>
        <time>2022-12-15T12:54:31.611Z</time>
      </trkpt>
      <trkpt lat="47.57359" lon="-2.05784">
        <ele>45.462343</ele>
        <time>2022-12-15T12:54:33.588Z</time>
      </trkpt>
      <trkpt lat="47.57358" lon="-2.05769">
        <ele>45.428999</ele>
        <time>2022-12-15T12:54:35.596Z</time>
      </trkpt>
      <trkpt lat="47.57357" lon="-2.05755">
        <ele>45.398222</ele>
        <time>2022-12-15T12:54:37.587Z</time>
      </trkpt>
      <trkpt lat="47.57356" lon="-2.05737">
        <ele>45.357667</ele>
        <time>2022-12-15T12:54:40.670Z</time>
      </trkpt>
      <trkpt lat="47.57355" lon="-2.0572">
        <ele>45.318831</ele>
        <time>2022-12-15T12:54:43.607Z</time>
      </trkpt>
      <trkpt lat="47.57353" lon="-2.05702">
        <ele>45.278936</ele>
        <time>2022-12-15T12:54:46.667Z</time>
      </trkpt>
      <trkpt lat="47.57351" lon="-2.05685">
        <ele>45.239532</ele>
        <time>2022-12-15T12:54:49.600Z</time>
      </trkpt>
      <trkpt lat="47.5735" lon="-2.05666">
        <ele>45.196385</ele>
        <time>2022-12-15T12:54:52.669Z</time>
      </trkpt>
      <trkpt lat="47.57349" lon="-2.05646">
        <ele>45.152224</ele>
        <time>2022-12-15T12:54:55.599Z</time>
      </trkpt>
      <trkpt lat="47.57347" lon="-2.05627">
        <ele>45.107839</ele>
        <time>2022-12-15T12:54:58.687Z</time>
      </trkpt>
      <trkpt lat="47.57345" lon="-2.05607">
        <ele>45.063761</ele>
        <time>2022-12-15T12:55:01.603Z</time>
      </trkpt>
      <trkpt lat="47.57343" lon="-2.05588">
        <ele>45.019375</ele>
        <time>2022-12-15T12:55:04.640Z</time>
      </trkpt>
      <trkpt lat="47.57341" lon="-2.05568">
        <ele>44.975165</ele>
        <time>2022-12-15T12:55:07.600Z</time>
      </trkpt>
      <trkpt lat="47.5734" lon="-2.05548">
        <ele>44.931005</ele>
        <time>2022-12-15T12:55:10.591Z</time>
      </trkpt>
      <trkpt lat="47.57338" lon="-2.05529">
        <ele>44.886695</ele>
        <time>2022-12-15T12:55:13.603Z</time>
      </trkpt>
      <trkpt lat="47.57337" lon="-2.05516">
        <ele>44.858266</ele>
        <time>2022-12-15T12:55:15.669Z</time>
      </trkpt>
      <trkpt lat="47.57335" lon="-2.05497">
        <ele>44.821135</ele>
        <time>2022-12-15T12:55:18.606Z</time>
      </trkpt>
      <trkpt lat="47.57334" lon="-2.05479">
        <ele>44.786631</ele>
        <time>2022-12-15T12:55:21.658Z</time>
      </trkpt>
      <trkpt lat="47.57332" lon="-2.05463">
        <ele>44.753755</ele>
        <time>2022-12-15T12:55:24.609Z</time>
      </trkpt>
      <trkpt lat="47.57331" lon="-2.05446">
        <ele>44.721042</ele>
        <time>2022-12-15T12:55:27.655Z</time>
      </trkpt>
      <trkpt lat="47.5733" lon="-2.0543">
        <ele>44.689393</ele>
        <time>2022-12-15T12:55:30.603Z</time>
      </trkpt>
      <trkpt lat="47.57328" lon="-2.05413">
        <ele>44.65618</ele>
        <time>2022-12-15T12:55:33.590Z</time>
      </trkpt>
      <trkpt lat="47.57327" lon="-2.05396">
        <ele>44.622926</ele>
        <time>2022-12-15T12:55:36.606Z</time>
      </trkpt>
      <trkpt lat="47.57326" lon="-2.0538">
        <ele>44.590274</ele>
        <time>2022-12-15T12:55:39.614Z</time>
      </trkpt>
      <trkpt lat="47.57324" lon="-2.05363">
        <ele>44.556131</ele>
        <time>2022-12-15T12:55:42.595Z</time>
      </trkpt>
      <trkpt lat="47.57323" lon="-2.05345">
        <ele>44.520627</ele>
        <time>2022-12-15T12:55:45.603Z</time>
      </trkpt>
      <trkpt lat="47.57322" lon="-2.05327">
        <ele>44.486638</ele>
        <time>2022-12-15T12:55:48.585Z</time>
      </trkpt>
      <trkpt lat="47.5732" lon="-2.05309">
        <ele>44.450477</ele>
        <time>2022-12-15T12:55:51.612Z</time>
      </trkpt>
      <trkpt lat="47.57318" lon="-2.0529">
        <ele>44.413772</ele>
        <time>2022-12-15T12:55:54.610Z</time>
      </trkpt>
      <trkpt lat="47.57317" lon="-2.05273">
        <ele>44.378657</ele>
        <time>2022-12-15T12:55:57.608Z</time>
      </trkpt>
      <trkpt lat="47.57316" lon="-2.05256">
        <ele>44.350863</ele>
        <time>2022-12-15T12:56:00.600Z</time>
      </trkpt>
      <trkpt lat="47.57314" lon="-2.05239">
        <ele>44.435858</ele>
        <time>2022-12-15T12:56:03.587Z</time>
      </trkpt>
      <trkpt lat="47.57312" lon="-2.05224">
        <ele>44.518063</ele>
        <time>2022-12-15T12:56:06.611Z</time>
      </trkpt>
      <trkpt lat="47.57311" lon="-2.05209">
        <ele>44.592749</ele>
        <time>2022-12-15T12:56:09.606Z</time>
      </trkpt>
      <trkpt lat="47.57309" lon="-2.05195">
        <ele>44.664524</ele>
        <time>2022-12-15T12:56:12.610Z</time>
      </trkpt>
      <trkpt lat="47.57307" lon="-2.05181">
        <ele>44.738194</ele>
        <time>2022-12-15T12:56:15.591Z</time>
      </trkpt>
      <trkpt lat="47.57305" lon="-2.05167">
        <ele>44.810164</ele>
        <time>2022-12-15T12:56:18.613Z</time>
      </trkpt>
      <trkpt lat="47.57304" lon="-2.05153">
        <ele>44.882327</ele>
        <time>2022-12-15T12:56:21.604Z</time>
      </trkpt>
      <trkpt lat="47.57302" lon="-2.05138">
        <ele>44.962099</ele>
        <time>2022-12-15T12:56:24.590Z</time>
      </trkpt>
      <trkpt lat="47.57299" lon="-2.05123">
        <ele>45.039781</ele>
        <time>2022-12-15T12:56:27.601Z</time>
      </trkpt>
      <trkpt lat="47.57296" lon="-2.05109">
        <ele>45.116402</ele>
        <time>2022-12-15T12:56:30.586Z</time>
      </trkpt>
      <trkpt lat="47.57294" lon="-2.05095">
        <ele>45.188967</ele>
        <time>2022-12-15T12:56:33.609Z</time>
      </trkpt>
      <trkpt lat="47.57291" lon="-2.05082">
        <ele>45.260472</ele>
        <time>2022-12-15T12:56:36.607Z</time>
      </trkpt>
      <trkpt lat="47.57288" lon="-2.05066">
        <ele>45.341888</ele>
        <time>2022-12-15T12:56:39.601Z</time>
      </trkpt>
      <trkpt lat="47.57284" lon="-2.05051">
        <ele>45.423831</ele>
        <time>2022-12-15T12:56:42.600Z</time>
      </trkpt>
      <trkpt lat="47.57281" lon="-2.05035">
        <ele>45.508141</ele>
        <time>2022-12-15T12:56:45.583Z</time>
      </trkpt>
      <trkpt lat="47.57277" lon="-2.05018">
        <ele>45.601154</ele>
        <time>2022-12-15T12:56:48.614Z</time>
      </trkpt>
      <trkpt lat="47.57272" lon="-2.05">
        <ele>45.701294</ele>
        <time>2022-12-15T12:56:51.603Z</time>
      </trkpt>
      <trkpt lat="47.57266" lon="-2.04982">
        <ele>45.681786</ele>
        <time>2022-12-15T12:56:54.602Z</time>
      </trkpt>
      <trkpt lat="47.57261" lon="-2.04965">
        <ele>45.656202</ele>
        <time>2022-12-15T12:56:57.601Z</time>
      </trkpt>
      <trkpt lat="47.57256" lon="-2.04949">
        <ele>45.632509</ele>
        <time>2022-12-15T12:57:00.588Z</time>
      </trkpt>
      <trkpt lat="47.57251" lon="-2.04936">
        <ele>45.612324</ele>
        <time>2022-12-15T12:57:03.588Z</time>
      </trkpt>
      <trkpt lat="47.57247" lon="-2.04922">
        <ele>45.591293</ele>
        <time>2022-12-15T12:57:06.611Z</time>
      </trkpt>
      <trkpt lat="47.57242" lon="-2.04906">
        <ele>45.568002</ele>
        <time>2022-12-15T12:57:09.673Z</time>
      </trkpt>
      <trkpt lat="47.57236" lon="-2.04891">
        <ele>45.544381</ele>
        <time>2022-12-15T12:57:12.603Z</time>
      </trkpt>
      <trkpt lat="47.57231" lon="-2.04875">
        <ele>45.521122</ele>
        <time>2022-12-15T12:57:15.632Z</time>
      </trkpt>
      <trkpt lat="47.57226" lon="-2.04862">
        <ele>45.500485</ele>
        <time>2022-12-15T12:57:18.602Z</time>
      </trkpt>
      <trkpt lat="47.57222" lon="-2.04849">
        <ele>45.481922</ele>
        <time>2022-12-15T12:57:21.644Z</time>
      </trkpt>
      <trkpt lat="47.57219" lon="-2.04836">
        <ele>45.461964</ele>
        <time>2022-12-15T12:57:24.582Z</time>
      </trkpt>
      <trkpt lat="47.57214" lon="-2.04822">
        <ele>45.441024</ele>
        <time>2022-12-15T12:57:27.670Z</time>
      </trkpt>
      <trkpt lat="47.57209" lon="-2.04807">
        <ele>45.418394</ele>
        <time>2022-12-15T12:57:30.596Z</time>
      </trkpt>
      <trkpt lat="47.57205" lon="-2.04793">
        <ele>45.397533</ele>
        <time>2022-12-15T12:57:33.623Z</time>
      </trkpt>
      <trkpt lat="47.57201" lon="-2.04778">
        <ele>45.376827</ele>
        <time>2022-12-15T12:57:36.601Z</time>
      </trkpt>
      <trkpt lat="47.57196" lon="-2.04764">
        <ele>45.355431</ele>
        <time>2022-12-15T12:57:39.691Z</time>
      </trkpt>
      <trkpt lat="47.57192" lon="-2.04749">
        <ele>45.391005</ele>
        <time>2022-12-15T12:57:42.601Z</time>
      </trkpt>
      <trkpt lat="47.57188" lon="-2.04733">
        <ele>45.463619</ele>
        <time>2022-12-15T12:57:45.625Z</time>
      </trkpt>
      <trkpt lat="47.57184" lon="-2.04717">
        <ele>45.537045</ele>
        <time>2022-12-15T12:57:48.603Z</time>
      </trkpt>
      <trkpt lat="47.5718" lon="-2.04701">
        <ele>45.612285</ele>
        <time>2022-12-15T12:57:51.672Z</time>
      </trkpt>
      <trkpt lat="47.57177" lon="-2.04684">
        <ele>45.68825</ele>
        <time>2022-12-15T12:57:54.607Z</time>
      </trkpt>
      <trkpt lat="47.57176" lon="-2.04668">
        <ele>45.762004</ele>
        <time>2022-12-15T12:57:57.644Z</time>
      </trkpt>
      <trkpt lat="47.57174" lon="-2.04653">
        <ele>45.825657</ele>
        <time>2022-12-15T12:58:00.600Z</time>
      </trkpt>
      <trkpt lat="47.57172" lon="-2.0464">
        <ele>45.884862</ele>
        <time>2022-12-15T12:58:03.633Z</time>
      </trkpt>
      <trkpt lat="47.5717" lon="-2.04627">
        <ele>45.943017</ele>
        <time>2022-12-15T12:58:06.612Z</time>
      </trkpt>
      <trkpt lat="47.57168" lon="-2.04608">
        <ele>46.026699</ele>
        <time>2022-12-15T12:58:09.594Z</time>
      </trkpt>
      <trkpt lat="47.57166" lon="-2.04592">
        <ele>46.097587</ele>
        <time>2022-12-15T12:58:11.603Z</time>
      </trkpt>
      <trkpt lat="47.57165" lon="-2.04577">
        <ele>46.161891</ele>
        <time>2022-12-15T12:58:13.611Z</time>
      </trkpt>
      <trkpt lat="47.57162" lon="-2.04563">
        <ele>46.22799</ele>
        <time>2022-12-15T12:58:15.591Z</time>
      </trkpt>
      <trkpt lat="47.5716" lon="-2.04545">
        <ele>46.30618</ele>
        <time>2022-12-15T12:58:18.605Z</time>
      </trkpt>
      <trkpt lat="47.57157" lon="-2.04528">
        <ele>46.381304</ele>
        <time>2022-12-15T12:58:21.595Z</time>
      </trkpt>
      <trkpt lat="47.57152" lon="-2.04511">
        <ele>46.461434</ele>
        <time>2022-12-15T12:58:24.608Z</time>
      </trkpt>
      <trkpt lat="47.57149" lon="-2.04498">
        <ele>46.495751</ele>
        <time>2022-12-15T12:58:26.641Z</time>
      </trkpt>
      <trkpt lat="47.57145" lon="-2.04485">
        <ele>46.430788</ele>
        <time>2022-12-15T12:58:28.607Z</time>
      </trkpt>
      <trkpt lat="47.57142" lon="-2.04473">
        <ele>46.369737</ele>
        <time>2022-12-15T12:58:30.610Z</time>
      </trkpt>
      <trkpt lat="47.57138" lon="-2.04461">
        <ele>46.307829</ele>
        <time>2022-12-15T12:58:32.653Z</time>
      </trkpt>
      <trkpt lat="47.57132" lon="-2.04443">
        <ele>46.218114</ele>
        <time>2022-12-15T12:58:35.596Z</time>
      </trkpt>
      <trkpt lat="47.57127" lon="-2.04427">
        <ele>46.135432</ele>
        <time>2022-12-15T12:58:38.673Z</time>
      </trkpt>
      <trkpt lat="47.57122" lon="-2.04411">
        <ele>46.054222</ele>
        <time>2022-12-15T12:58:41.612Z</time>
      </trkpt>
      <trkpt lat="47.57117" lon="-2.04395">
        <ele>45.972447</ele>
        <time>2022-12-15T12:58:44.607Z</time>
      </trkpt>
      <trkpt lat="47.57112" lon="-2.04379">
        <ele>45.891788</ele>
        <time>2022-12-15T12:58:47.606Z</time>
      </trkpt>
      <trkpt lat="47.57107" lon="-2.04363">
        <ele>45.814601</ele>
        <time>2022-12-15T12:58:50.621Z</time>
      </trkpt>
      <trkpt lat="47.57104" lon="-2.04348">
        <ele>45.740047</ele>
        <time>2022-12-15T12:58:53.602Z</time>
      </trkpt>
      <trkpt lat="47.57101" lon="-2.04332">
        <ele>45.665146</ele>
        <time>2022-12-15T12:58:56.611Z</time>
      </trkpt>
      <trkpt lat="47.57097" lon="-2.04318">
        <ele>45.597549</ele>
        <time>2022-12-15T12:58:59.611Z</time>
      </trkpt>
      <trkpt lat="47.57092" lon="-2.04304">
        <ele>45.5269</ele>
        <time>2022-12-15T12:59:02.614Z</time>
      </trkpt>
      <trkpt lat="47.57088" lon="-2.04288">
        <ele>45.444706</ele>
        <time>2022-12-15T12:59:05.612Z</time>
      </trkpt>
      <trkpt lat="47.57084" lon="-2.04271">
        <ele>45.362765</ele>
        <time>2022-12-15T12:59:08.610Z</time>
      </trkpt>
      <trkpt lat="47.57081" lon="-2.04252">
        <ele>45.277739</ele>
        <time>2022-12-15T12:59:11.606Z</time>
      </trkpt>
      <trkpt lat="47.57078" lon="-2.04239">
        <ele>45.227372</ele>
        <time>2022-12-15T12:59:13.602Z</time>
      </trkpt>
      <trkpt lat="47.57076" lon="-2.04221">
        <ele>45.159117</ele>
        <time>2022-12-15T12:59:16.607Z</time>
      </trkpt>
      <trkpt lat="47.57073" lon="-2.04206">
        <ele>45.099273</ele>
        <time>2022-12-15T12:59:19.667Z</time>
      </trkpt>
      <trkpt lat="47.57072" lon="-2.04188">
        <ele>45.030336</ele>
        <time>2022-12-15T12:59:22.604Z</time>
      </trkpt>
      <trkpt lat="47.5707" lon="-2.04169">
        <ele>44.961106</ele>
        <time>2022-12-15T12:59:25.668Z</time>
      </trkpt>
      <trkpt lat="47.57067" lon="-2.04151">
        <ele>44.892343</ele>
        <time>2022-12-15T12:59:28.611Z</time>
      </trkpt>
      <trkpt lat="47.57065" lon="-2.04133">
        <ele>44.822036</ele>
        <time>2022-12-15T12:59:31.657Z</time>
      </trkpt>
      <trkpt lat="47.57064" lon="-2.04115">
        <ele>44.756363</ele>
        <time>2022-12-15T12:59:34.611Z</time>
      </trkpt>
      <trkpt lat="47.57063" lon="-2.04098">
        <ele>44.691063</ele>
        <time>2022-12-15T12:59:37.639Z</time>
      </trkpt>
      <trkpt lat="47.57061" lon="-2.04081">
        <ele>44.626438</ele>
        <time>2022-12-15T12:59:40.612Z</time>
      </trkpt>
      <trkpt lat="47.5706" lon="-2.04065">
        <ele>44.564615</ele>
        <time>2022-12-15T12:59:43.627Z</time>
      </trkpt>
      <trkpt lat="47.57058" lon="-2.04048">
        <ele>44.501975</ele>
        <time>2022-12-15T12:59:46.616Z</time>
      </trkpt>
      <trkpt lat="47.57056" lon="-2.04031">
        <ele>44.436656</ele>
        <time>2022-12-15T12:59:49.671Z</time>
      </trkpt>
      <trkpt lat="47.57055" lon="-2.04015">
        <ele>44.375818</ele>
        <time>2022-12-15T12:59:52.608Z</time>
      </trkpt>
      <trkpt lat="47.57054" lon="-2.03998">
        <ele>44.312132</ele>
        <time>2022-12-15T12:59:55.663Z</time>
      </trkpt>
      <trkpt lat="47.57052" lon="-2.0398">
        <ele>44.261288</ele>
        <time>2022-12-15T12:59:58.609Z</time>
      </trkpt>
      <trkpt lat="47.57051" lon="-2.03962">
        <ele>44.219342</ele>
        <time>2022-12-15T13:00:01.646Z</time>
      </trkpt>
      <trkpt lat="47.57049" lon="-2.03945">
        <ele>44.177676</ele>
        <time>2022-12-15T13:00:04.605Z</time>
      </trkpt>
      <trkpt lat="47.57047" lon="-2.03925">
        <ele>44.130666</ele>
        <time>2022-12-15T13:00:07.671Z</time>
      </trkpt>
      <trkpt lat="47.57045" lon="-2.03907">
        <ele>44.086293</ele>
        <time>2022-12-15T13:00:10.611Z</time>
      </trkpt>
      <trkpt lat="47.57043" lon="-2.03889">
        <ele>44.041798</ele>
        <time>2022-12-15T13:00:13.670Z</time>
      </trkpt>
      <trkpt lat="47.57041" lon="-2.0387">
        <ele>43.997874</ele>
        <time>2022-12-15T13:00:16.604Z</time>
      </trkpt>
      <trkpt lat="47.5704" lon="-2.03853">
        <ele>43.957192</ele>
        <time>2022-12-15T13:00:19.671Z</time>
      </trkpt>
      <trkpt lat="47.57038" lon="-2.03837">
        <ele>43.917034</ele>
        <time>2022-12-15T13:00:22.612Z</time>
      </trkpt>
      <trkpt lat="47.57036" lon="-2.0382">
        <ele>43.876927</ele>
        <time>2022-12-15T13:00:25.637Z</time>
      </trkpt>
      <trkpt lat="47.57035" lon="-2.03803">
        <ele>43.835846</ele>
        <time>2022-12-15T13:00:28.615Z</time>
      </trkpt>
      <trkpt lat="47.57033" lon="-2.03785">
        <ele>43.794224</ele>
        <time>2022-12-15T13:00:31.683Z</time>
      </trkpt>
      <trkpt lat="47.57031" lon="-2.03769">
        <ele>43.753998</ele>
        <time>2022-12-15T13:00:34.602Z</time>
      </trkpt>
      <trkpt lat="47.5703" lon="-2.03751">
        <ele>43.710165</ele>
        <time>2022-12-15T13:00:37.644Z</time>
      </trkpt>
      <trkpt lat="47.57028" lon="-2.03731">
        <ele>43.663885</ele>
        <time>2022-12-15T13:00:40.606Z</time>
      </trkpt>
      <trkpt lat="47.57027" lon="-2.03718">
        <ele>43.643353</ele>
        <time>2022-12-15T13:00:42.612Z</time>
      </trkpt>
      <trkpt lat="47.57025" lon="-2.03705">
        <ele>43.626179</ele>
        <time>2022-12-15T13:00:44.606Z</time>
      </trkpt>
      <trkpt lat="47.57024" lon="-2.03685">
        <ele>43.600784</ele>
        <time>2022-12-15T13:00:47.611Z</time>
      </trkpt>
      <trkpt lat="47.57022" lon="-2.03666">
        <ele>43.576211</ele>
        <time>2022-12-15T13:00:50.609Z</time>
      </trkpt>
      <trkpt lat="47.5702" lon="-2.03647">
        <ele>43.551765</ele>
        <time>2022-12-15T13:00:53.612Z</time>
      </trkpt>
      <trkpt lat="47.57019" lon="-2.03631">
        <ele>43.530559</ele>
        <time>2022-12-15T13:00:56.663Z</time>
      </trkpt>
      <trkpt lat="47.57017" lon="-2.03618">
        <ele>43.512717</ele>
        <time>2022-12-15T13:00:59.606Z</time>
      </trkpt>
      <trkpt lat="47.57015" lon="-2.03602">
        <ele>43.492653</ele>
        <time>2022-12-15T13:01:02.673Z</time>
      </trkpt>
      <trkpt lat="47.57013" lon="-2.03588">
        <ele>43.473599</ele>
        <time>2022-12-15T13:01:05.600Z</time>
      </trkpt>
      <trkpt lat="47.57012" lon="-2.03572">
        <ele>43.453107</ele>
        <time>2022-12-15T13:01:08.626Z</time>
      </trkpt>
      <trkpt lat="47.5701" lon="-2.03554">
        <ele>43.430441</ele>
        <time>2022-12-15T13:01:11.610Z</time>
      </trkpt>
      <trkpt lat="47.57009" lon="-2.03536">
        <ele>43.406917</ele>
        <time>2022-12-15T13:01:14.672Z</time>
      </trkpt>
      <trkpt lat="47.57008" lon="-2.03518">
        <ele>43.382879</ele>
        <time>2022-12-15T13:01:17.612Z</time>
      </trkpt>
      <trkpt lat="47.57007" lon="-2.03499">
        <ele>43.359128</ele>
        <time>2022-12-15T13:01:20.665Z</time>
      </trkpt>
      <trkpt lat="47.57006" lon="-2.0348">
        <ele>43.334245</ele>
        <time>2022-12-15T13:01:23.598Z</time>
      </trkpt>
      <trkpt lat="47.57006" lon="-2.03461">
        <ele>43.312946</ele>
        <time>2022-12-15T13:01:26.664Z</time>
      </trkpt>
      <trkpt lat="47.57005" lon="-2.03444">
        <ele>43.308324</ele>
        <time>2022-12-15T13:01:29.607Z</time>
      </trkpt>
      <trkpt lat="47.57005" lon="-2.03427">
        <ele>43.303718</ele>
        <time>2022-12-15T13:01:32.672Z</time>
      </trkpt>
      <trkpt lat="47.57004" lon="-2.0341">
        <ele>43.299255</ele>
        <time>2022-12-15T13:01:35.612Z</time>
      </trkpt>
      <trkpt lat="47.57005" lon="-2.03396">
        <ele>43.295327</ele>
        <time>2022-12-15T13:01:38.644Z</time>
      </trkpt>
      <trkpt lat="47.57005" lon="-2.03381">
        <ele>43.291322</ele>
        <time>2022-12-15T13:01:41.609Z</time>
      </trkpt>
      <trkpt lat="47.57005" lon="-2.03362">
        <ele>43.28627</ele>
        <time>2022-12-15T13:01:44.690Z</time>
      </trkpt>
      <trkpt lat="47.57005" lon="-2.03343">
        <ele>43.28103</ele>
        <time>2022-12-15T13:01:47.606Z</time>
      </trkpt>
      <trkpt lat="47.57004" lon="-2.03325">
        <ele>43.27626</ele>
        <time>2022-12-15T13:01:50.587Z</time>
      </trkpt>
      <trkpt lat="47.57003" lon="-2.03306">
        <ele>43.271052</ele>
        <time>2022-12-15T13:01:53.587Z</time>
      </trkpt>
      <trkpt lat="47.57002" lon="-2.03289">
        <ele>43.26668</ele>
        <time>2022-12-15T13:01:56.612Z</time>
      </trkpt>
      <trkpt lat="47.57001" lon="-2.03272">
        <ele>43.262004</ele>
        <time>2022-12-15T13:01:59.611Z</time>
      </trkpt>
      <trkpt lat="47.57" lon="-2.03254">
        <ele>43.257179</ele>
        <time>2022-12-15T13:02:02.585Z</time>
      </trkpt>
      <trkpt lat="47.56998" lon="-2.03237">
        <ele>43.252561</ele>
        <time>2022-12-15T13:02:05.612Z</time>
      </trkpt>
      <trkpt lat="47.56995" lon="-2.03218">
        <ele>43.247256</ele>
        <time>2022-12-15T13:02:08.687Z</time>
      </trkpt>
      <trkpt lat="47.56992" lon="-2.032">
        <ele>43.24216</ele>
        <time>2022-12-15T13:02:11.612Z</time>
      </trkpt>
      <trkpt lat="47.56988" lon="-2.03186">
        <ele>43.296287</ele>
        <time>2022-12-15T13:02:13.614Z</time>
      </trkpt>
      <trkpt lat="47.56984" lon="-2.03168">
        <ele>43.370093</ele>
        <time>2022-12-15T13:02:16.612Z</time>
      </trkpt>
      <trkpt lat="47.56979" lon="-2.03151">
        <ele>43.437988</ele>
        <time>2022-12-15T13:02:19.610Z</time>
      </trkpt>
      <trkpt lat="47.56974" lon="-2.03135">
        <ele>43.506475</ele>
        <time>2022-12-15T13:02:22.613Z</time>
      </trkpt>
      <trkpt lat="47.56968" lon="-2.03119">
        <ele>43.575415</ele>
        <time>2022-12-15T13:02:25.614Z</time>
      </trkpt>
      <trkpt lat="47.56962" lon="-2.03106">
        <ele>43.637125</ele>
        <time>2022-12-15T13:02:28.612Z</time>
      </trkpt>
      <trkpt lat="47.56955" lon="-2.03092">
        <ele>43.704025</ele>
        <time>2022-12-15T13:02:31.605Z</time>
      </trkpt>
      <trkpt lat="47.56948" lon="-2.03078">
        <ele>43.771433</ele>
        <time>2022-12-15T13:02:34.606Z</time>
      </trkpt>
      <trkpt lat="47.5694" lon="-2.03064">
        <ele>43.837835</ele>
        <time>2022-12-15T13:02:37.602Z</time>
      </trkpt>
      <trkpt lat="47.56933" lon="-2.03052">
        <ele>43.898974</ele>
        <time>2022-12-15T13:02:40.607Z</time>
      </trkpt>
      <trkpt lat="47.56926" lon="-2.0304">
        <ele>43.963254</ele>
        <time>2022-12-15T13:02:43.602Z</time>
      </trkpt>
      <trkpt lat="47.56917" lon="-2.03028">
        <ele>44.028326</ele>
        <time>2022-12-15T13:02:46.612Z</time>
      </trkpt>
      <trkpt lat="47.56909" lon="-2.03016">
        <ele>44.094797</ele>
        <time>2022-12-15T13:02:49.611Z</time>
      </trkpt>
      <trkpt lat="47.569" lon="-2.03006">
        <ele>44.154583</ele>
        <time>2022-12-15T13:02:52.604Z</time>
      </trkpt>
      <trkpt lat="47.5689" lon="-2.02994">
        <ele>44.229868</ele>
        <time>2022-12-15T13:02:55.611Z</time>
      </trkpt>
      <trkpt lat="47.5688" lon="-2.02983">
        <ele>44.216214</ele>
        <time>2022-12-15T13:02:58.612Z</time>
      </trkpt>
      <trkpt lat="47.56873" lon="-2.02973">
        <ele>44.163541</ele>
        <time>2022-12-15T13:03:00.611Z</time>
      </trkpt>
      <trkpt lat="47.56864" lon="-2.02962">
        <ele>44.097151</ele>
        <time>2022-12-15T13:03:03.674Z</time>
      </trkpt>
      <trkpt lat="47.56856" lon="-2.02952">
        <ele>44.034705</ele>
        <time>2022-12-15T13:03:06.612Z</time>
      </trkpt>
      <trkpt lat="47.56848" lon="-2.02942">
        <ele>43.972271</ele>
        <time>2022-12-15T13:03:09.591Z</time>
      </trkpt>
      <trkpt lat="47.5684" lon="-2.02932">
        <ele>43.913931</ele>
        <time>2022-12-15T13:03:12.610Z</time>
      </trkpt>
      <trkpt lat="47.56831" lon="-2.02924">
        <ele>43.854666</ele>
        <time>2022-12-15T13:03:15.602Z</time>
      </trkpt>
      <trkpt lat="47.56823" lon="-2.02915">
        <ele>43.797799</ele>
        <time>2022-12-15T13:03:18.614Z</time>
      </trkpt>
      <trkpt lat="47.56815" lon="-2.02905">
        <ele>43.738519</ele>
        <time>2022-12-15T13:03:21.592Z</time>
      </trkpt>
      <trkpt lat="47.56808" lon="-2.02897">
        <ele>43.682811</ele>
        <time>2022-12-15T13:03:24.592Z</time>
      </trkpt>
      <trkpt lat="47.56799" lon="-2.02886">
        <ele>43.617314</ele>
        <time>2022-12-15T13:03:28.592Z</time>
      </trkpt>
      <trkpt lat="47.56791" lon="-2.02875">
        <ele>43.555207</ele>
        <time>2022-12-15T13:03:32.613Z</time>
      </trkpt>
      <trkpt lat="47.56784" lon="-2.02866">
        <ele>43.501016</ele>
        <time>2022-12-15T13:03:35.593Z</time>
      </trkpt>
      <trkpt lat="47.56778" lon="-2.02855">
        <ele>43.448098</ele>
        <time>2022-12-15T13:03:38.614Z</time>
      </trkpt>
      <trkpt lat="47.5677" lon="-2.02841">
        <ele>43.376101</ele>
        <time>2022-12-15T13:03:41.616Z</time>
      </trkpt>
      <trkpt lat="47.56762" lon="-2.02826">
        <ele>43.30265</ele>
        <time>2022-12-15T13:03:44.582Z</time>
      </trkpt>
      <trkpt lat="47.56756" lon="-2.02812">
        <ele>43.237961</ele>
        <time>2022-12-15T13:03:47.612Z</time>
      </trkpt>
      <trkpt lat="47.5675" lon="-2.02797">
        <ele>43.131158</ele>
        <time>2022-12-15T13:03:50.612Z</time>
      </trkpt>
      <trkpt lat="47.56745" lon="-2.02782">
        <ele>43.01995</ele>
        <time>2022-12-15T13:03:53.609Z</time>
      </trkpt>
      <trkpt lat="47.56741" lon="-2.02765">
        <ele>42.904593</ele>
        <time>2022-12-15T13:03:56.613Z</time>
      </trkpt>
      <trkpt lat="47.56738" lon="-2.02751">
        <ele>42.800043</ele>
        <time>2022-12-15T13:03:59.610Z</time>
      </trkpt>
      <trkpt lat="47.56735" lon="-2.02737">
        <ele>42.704601</ele>
        <time>2022-12-15T13:04:02.602Z</time>
      </trkpt>
      <trkpt lat="47.56731" lon="-2.02722">
        <ele>42.597199</ele>
        <time>2022-12-15T13:04:05.607Z</time>
      </trkpt>
      <trkpt lat="47.56729" lon="-2.02707">
        <ele>42.497114</ele>
        <time>2022-12-15T13:04:08.595Z</time>
      </trkpt>
      <trkpt lat="47.56726" lon="-2.0269">
        <ele>42.38232</ele>
        <time>2022-12-15T13:04:11.612Z</time>
      </trkpt>
      <trkpt lat="47.56724" lon="-2.02671">
        <ele>42.252343</ele>
        <time>2022-12-15T13:04:14.612Z</time>
      </trkpt>
      <trkpt lat="47.56721" lon="-2.02654">
        <ele>42.135181</ele>
        <time>2022-12-15T13:04:17.608Z</time>
      </trkpt>
      <trkpt lat="47.56719" lon="-2.02636">
        <ele>42.015724</ele>
        <time>2022-12-15T13:04:20.607Z</time>
      </trkpt>
      <trkpt lat="47.56717" lon="-2.02622">
        <ele>41.923133</ele>
        <time>2022-12-15T13:04:22.610Z</time>
      </trkpt>
      <trkpt lat="47.56715" lon="-2.02605">
        <ele>41.807916</ele>
        <time>2022-12-15T13:04:25.611Z</time>
      </trkpt>
      <trkpt lat="47.56712" lon="-2.02589">
        <ele>41.69486</ele>
        <time>2022-12-15T13:04:28.613Z</time>
      </trkpt>
      <trkpt lat="47.5671" lon="-2.02574">
        <ele>41.59173</ele>
        <time>2022-12-15T13:04:31.612Z</time>
      </trkpt>
      <trkpt lat="47.56708" lon="-2.0256">
        <ele>41.499178</ele>
        <time>2022-12-15T13:04:33.622Z</time>
      </trkpt>
      <trkpt lat="47.56706" lon="-2.02546">
        <ele>41.517727</ele>
        <time>2022-12-15T13:04:35.601Z</time>
      </trkpt>
      <trkpt lat="47.56704" lon="-2.0253">
        <ele>41.644705</ele>
        <time>2022-12-15T13:04:37.614Z</time>
      </trkpt>
      <trkpt lat="47.56702" lon="-2.02517">
        <ele>41.758754</ele>
        <time>2022-12-15T13:04:39.613Z</time>
      </trkpt>
      <trkpt lat="47.567" lon="-2.02503">
        <ele>41.874284</ele>
        <time>2022-12-15T13:04:41.590Z</time>
      </trkpt>
      <trkpt lat="47.56698" lon="-2.0249">
        <ele>41.986328</ele>
        <time>2022-12-15T13:04:43.602Z</time>
      </trkpt>
      <trkpt lat="47.56696" lon="-2.02475">
        <ele>42.112782</ele>
        <time>2022-12-15T13:04:46.616Z</time>
      </trkpt>
      <trkpt lat="47.56694" lon="-2.02461">
        <ele>42.227639</ele>
        <time>2022-12-15T13:04:49.608Z</time>
      </trkpt>
      <trkpt lat="47.56692" lon="-2.02444">
        <ele>42.368017</ele>
        <time>2022-12-15T13:04:52.606Z</time>
      </trkpt>
      <trkpt lat="47.5669" lon="-2.02429">
        <ele>42.495796</ele>
        <time>2022-12-15T13:04:55.606Z</time>
      </trkpt>
      <trkpt lat="47.56687" lon="-2.02412">
        <ele>42.638347</ele>
        <time>2022-12-15T13:04:58.615Z</time>
      </trkpt>
      <trkpt lat="47.56684" lon="-2.02395">
        <ele>42.778133</ele>
        <time>2022-12-15T13:05:01.610Z</time>
      </trkpt>
      <trkpt lat="47.56681" lon="-2.0238">
        <ele>42.91134</ele>
        <time>2022-12-15T13:05:04.602Z</time>
      </trkpt>
      <trkpt lat="47.56679" lon="-2.02362">
        <ele>43.061845</ele>
        <time>2022-12-15T13:05:07.605Z</time>
      </trkpt>
      <trkpt lat="47.56677" lon="-2.02345">
        <ele>43.20119</ele>
        <time>2022-12-15T13:05:10.609Z</time>
      </trkpt>
      <trkpt lat="47.56674" lon="-2.02328">
        <ele>43.343413</ele>
        <time>2022-12-15T13:05:13.603Z</time>
      </trkpt>
      <trkpt lat="47.56672" lon="-2.02311">
        <ele>43.48407</ele>
        <time>2022-12-15T13:05:16.613Z</time>
      </trkpt>
      <trkpt lat="47.56669" lon="-2.02294">
        <ele>43.627593</ele>
        <time>2022-12-15T13:05:19.614Z</time>
      </trkpt>
      <trkpt lat="47.56667" lon="-2.02277">
        <ele>43.905975</ele>
        <time>2022-12-15T13:05:22.605Z</time>
      </trkpt>
      <trkpt lat="47.56664" lon="-2.02259">
        <ele>44.195929</ele>
        <time>2022-12-15T13:05:25.608Z</time>
      </trkpt>
      <trkpt lat="47.56661" lon="-2.0224">
        <ele>44.501359</ele>
        <time>2022-12-15T13:05:28.591Z</time>
      </trkpt>
      <trkpt lat="47.56658" lon="-2.02221">
        <ele>44.815136</ele>
        <time>2022-12-15T13:05:31.610Z</time>
      </trkpt>
      <trkpt lat="47.56656" lon="-2.02203">
        <ele>45.110251</ele>
        <time>2022-12-15T13:05:34.661Z</time>
      </trkpt>
      <trkpt lat="47.56654" lon="-2.02187">
        <ele>45.373458</ele>
        <time>2022-12-15T13:05:37.598Z</time>
      </trkpt>
      <trkpt lat="47.56652" lon="-2.02173">
        <ele>45.608878</ele>
        <time>2022-12-15T13:05:40.659Z</time>
      </trkpt>
      <trkpt lat="47.56651" lon="-2.02158">
        <ele>45.846431</ele>
        <time>2022-12-15T13:05:44.613Z</time>
      </trkpt>
      <trkpt lat="47.56648" lon="-2.02144">
        <ele>46.07788</ele>
        <time>2022-12-15T13:05:49.608Z</time>
      </trkpt>
      <trkpt lat="47.56647" lon="-2.02135">
        <ele>46.230005</ele>
        <time>2022-12-15T13:06:21.046Z</time>
      </trkpt>
      <trkpt lat="47.56644" lon="-2.02119">
        <ele>46.496734</ele>
        <time>2022-12-15T13:12:42.611Z</time>
      </trkpt>
      <trkpt lat="47.56642" lon="-2.02103">
        <ele>46.757797</ele>
        <time>2022-12-15T13:12:45.593Z</time>
      </trkpt>
      <trkpt lat="47.5664" lon="-2.02087">
        <ele>47.01416</ele>
        <time>2022-12-15T13:12:48.598Z</time>
      </trkpt>
      <trkpt lat="47.56638" lon="-2.0207">
        <ele>47.288251</ele>
        <time>2022-12-15T13:12:52.610Z</time>
      </trkpt>
      <trkpt lat="47.56635" lon="-2.02057">
        <ele>47.511352</ele>
        <time>2022-12-15T13:12:55.592Z</time>
      </trkpt>
      <trkpt lat="47.56633" lon="-2.02042">
        <ele>47.747411</ele>
        <time>2022-12-15T13:12:58.611Z</time>
      </trkpt>
      <trkpt lat="47.56631" lon="-2.02029">
        <ele>47.904258</ele>
        <time>2022-12-15T13:13:01.602Z</time>
      </trkpt>
      <trkpt lat="47.56628" lon="-2.02012">
        <ele>47.868913</ele>
        <time>2022-12-15T13:13:05.597Z</time>
      </trkpt>
      <trkpt lat="47.56625" lon="-2.01994">
        <ele>47.834304</ele>
        <time>2022-12-15T13:13:08.589Z</time>
      </trkpt>
      <trkpt lat="47.56622" lon="-2.01975">
        <ele>47.795905</ele>
        <time>2022-12-15T13:13:11.610Z</time>
      </trkpt>
      <trkpt lat="47.5662" lon="-2.01958">
        <ele>47.760533</ele>
        <time>2022-12-15T13:13:14.600Z</time>
      </trkpt>
      <trkpt lat="47.56617" lon="-2.01942">
        <ele>47.729054</ele>
        <time>2022-12-15T13:13:17.603Z</time>
      </trkpt>
      <trkpt lat="47.56615" lon="-2.01929">
        <ele>47.702419</ele>
        <time>2022-12-15T13:13:19.623Z</time>
      </trkpt>
      <trkpt lat="47.56613" lon="-2.01916">
        <ele>47.676229</ele>
        <time>2022-12-15T13:13:21.609Z</time>
      </trkpt>
      <trkpt lat="47.56611" lon="-2.01896">
        <ele>47.637777</ele>
        <time>2022-12-15T13:13:24.601Z</time>
      </trkpt>
      <trkpt lat="47.56608" lon="-2.01877">
        <ele>47.599632</ele>
        <time>2022-12-15T13:13:27.608Z</time>
      </trkpt>
      <trkpt lat="47.56606" lon="-2.0186">
        <ele>47.565301</ele>
        <time>2022-12-15T13:13:30.609Z</time>
      </trkpt>
      <trkpt lat="47.56604" lon="-2.01846">
        <ele>47.537459</ele>
        <time>2022-12-15T13:13:32.609Z</time>
      </trkpt>
      <trkpt lat="47.56602" lon="-2.01833">
        <ele>47.511077</ele>
        <time>2022-12-15T13:13:34.607Z</time>
      </trkpt>
      <trkpt lat="47.566" lon="-2.01819">
        <ele>47.484187</ele>
        <time>2022-12-15T13:13:36.603Z</time>
      </trkpt>
      <trkpt lat="47.56597" lon="-2.01801">
        <ele>47.447364</ele>
        <time>2022-12-15T13:13:39.614Z</time>
      </trkpt>
      <trkpt lat="47.56596" lon="-2.01787">
        <ele>47.419314</ele>
        <time>2022-12-15T13:13:41.606Z</time>
      </trkpt>
      <trkpt lat="47.56593" lon="-2.01774">
        <ele>47.392805</ele>
        <time>2022-12-15T13:13:43.590Z</time>
      </trkpt>
      <trkpt lat="47.5659" lon="-2.01755">
        <ele>47.473328</ele>
        <time>2022-12-15T13:13:46.604Z</time>
      </trkpt>
      <trkpt lat="47.56587" lon="-2.01737">
        <ele>47.56361</ele>
        <time>2022-12-15T13:13:49.612Z</time>
      </trkpt>
      <trkpt lat="47.56585" lon="-2.01719">
        <ele>47.65128</ele>
        <time>2022-12-15T13:13:52.610Z</time>
      </trkpt>
      <trkpt lat="47.56582" lon="-2.01701">
        <ele>47.739058</ele>
        <time>2022-12-15T13:13:55.602Z</time>
      </trkpt>
      <trkpt lat="47.56579" lon="-2.01683">
        <ele>47.830014</ele>
        <time>2022-12-15T13:13:58.610Z</time>
      </trkpt>
      <trkpt lat="47.56576" lon="-2.01666">
        <ele>47.914379</ele>
        <time>2022-12-15T13:14:01.605Z</time>
      </trkpt>
      <trkpt lat="47.56573" lon="-2.01648">
        <ele>48.001079</ele>
        <time>2022-12-15T13:14:04.608Z</time>
      </trkpt>
      <trkpt lat="47.5657" lon="-2.0163">
        <ele>48.090585</ele>
        <time>2022-12-15T13:14:07.601Z</time>
      </trkpt>
      <trkpt lat="47.56567" lon="-2.01612">
        <ele>48.179965</ele>
        <time>2022-12-15T13:14:10.601Z</time>
      </trkpt>
      <trkpt lat="47.56565" lon="-2.01594">
        <ele>48.269152</ele>
        <time>2022-12-15T13:14:13.631Z</time>
      </trkpt>
      <trkpt lat="47.56563" lon="-2.01579">
        <ele>48.341981</ele>
        <time>2022-12-15T13:14:16.613Z</time>
      </trkpt>
      <trkpt lat="47.56561" lon="-2.01563">
        <ele>48.421093</ele>
        <time>2022-12-15T13:14:19.593Z</time>
      </trkpt>
      <trkpt lat="47.56559" lon="-2.01548">
        <ele>48.493242</ele>
        <time>2022-12-15T13:14:22.610Z</time>
      </trkpt>
      <trkpt lat="47.56556" lon="-2.01531">
        <ele>48.580249</ele>
        <time>2022-12-15T13:14:25.610Z</time>
      </trkpt>
      <trkpt lat="47.56554" lon="-2.01513">
        <ele>48.665372</ele>
        <time>2022-12-15T13:14:28.610Z</time>
      </trkpt>
      <trkpt lat="47.56551" lon="-2.01497">
        <ele>48.707407</ele>
        <time>2022-12-15T13:14:31.610Z</time>
      </trkpt>
      <trkpt lat="47.56548" lon="-2.01479">
        <ele>48.749745</ele>
        <time>2022-12-15T13:14:34.611Z</time>
      </trkpt>
      <trkpt lat="47.56544" lon="-2.01466">
        <ele>48.779778</ele>
        <time>2022-12-15T13:14:36.605Z</time>
      </trkpt>
      <trkpt lat="47.5654" lon="-2.01448">
        <ele>48.823703</ele>
        <time>2022-12-15T13:14:39.602Z</time>
      </trkpt>
      <trkpt lat="47.56535" lon="-2.01431">
        <ele>48.865761</ele>
        <time>2022-12-15T13:14:42.608Z</time>
      </trkpt>
      <trkpt lat="47.5653" lon="-2.01413">
        <ele>48.909226</ele>
        <time>2022-12-15T13:14:45.612Z</time>
      </trkpt>
      <trkpt lat="47.56524" lon="-2.01395">
        <ele>48.953721</ele>
        <time>2022-12-15T13:14:48.600Z</time>
      </trkpt>
      <trkpt lat="47.56519" lon="-2.01378">
        <ele>48.995749</ele>
        <time>2022-12-15T13:14:51.612Z</time>
      </trkpt>
      <trkpt lat="47.56512" lon="-2.01361">
        <ele>49.041355</ele>
        <time>2022-12-15T13:14:54.609Z</time>
      </trkpt>
      <trkpt lat="47.56505" lon="-2.01344">
        <ele>49.085291</ele>
        <time>2022-12-15T13:14:57.601Z</time>
      </trkpt>
      <trkpt lat="47.56498" lon="-2.01327">
        <ele>49.131115</ele>
        <time>2022-12-15T13:15:00.597Z</time>
      </trkpt>
      <trkpt lat="47.56492" lon="-2.01316">
        <ele>49.162172</ele>
        <time>2022-12-15T13:15:02.618Z</time>
      </trkpt>
      <trkpt lat="47.56487" lon="-2.01305">
        <ele>49.194534</ele>
        <time>2022-12-15T13:15:04.612Z</time>
      </trkpt>
      <trkpt lat="47.56481" lon="-2.01294">
        <ele>49.225101</ele>
        <time>2022-12-15T13:15:06.602Z</time>
      </trkpt>
      <trkpt lat="47.56475" lon="-2.01284">
        <ele>49.255959</ele>
        <time>2022-12-15T13:15:08.612Z</time>
      </trkpt>
      <trkpt lat="47.56467" lon="-2.01268">
        <ele>49.247775</ele>
        <time>2022-12-15T13:15:11.612Z</time>
      </trkpt>
      <trkpt lat="47.56461" lon="-2.01257">
        <ele>49.215549</ele>
        <time>2022-12-15T13:15:13.594Z</time>
      </trkpt>
      <trkpt lat="47.56452" lon="-2.01242">
        <ele>49.171922</ele>
        <time>2022-12-15T13:15:16.612Z</time>
      </trkpt>
      <trkpt lat="47.56445" lon="-2.01228">
        <ele>49.133689</ele>
        <time>2022-12-15T13:15:19.616Z</time>
      </trkpt>
      <trkpt lat="47.56437" lon="-2.01212">
        <ele>49.090696</ele>
        <time>2022-12-15T13:15:22.616Z</time>
      </trkpt>
      <trkpt lat="47.5643" lon="-2.01198">
        <ele>49.051689</ele>
        <time>2022-12-15T13:15:25.618Z</time>
      </trkpt>
      <trkpt lat="47.56423" lon="-2.01185">
        <ele>49.013403</ele>
        <time>2022-12-15T13:15:28.605Z</time>
      </trkpt>
      <trkpt lat="47.56414" lon="-2.01171">
        <ele>48.972179</ele>
        <time>2022-12-15T13:15:31.612Z</time>
      </trkpt>
      <trkpt lat="47.56409" lon="-2.0116">
        <ele>48.94249</ele>
        <time>2022-12-15T13:15:33.592Z</time>
      </trkpt>
      <trkpt lat="47.564" lon="-2.01145">
        <ele>48.899882</ele>
        <time>2022-12-15T13:15:36.611Z</time>
      </trkpt>
      <trkpt lat="47.56392" lon="-2.01131">
        <ele>48.858749</ele>
        <time>2022-12-15T13:15:39.608Z</time>
      </trkpt>
      <trkpt lat="47.56387" lon="-2.0112">
        <ele>48.828763</ele>
        <time>2022-12-15T13:15:41.603Z</time>
      </trkpt>
      <trkpt lat="47.56379" lon="-2.01104">
        <ele>48.785615</ele>
        <time>2022-12-15T13:15:44.607Z</time>
      </trkpt>
      <trkpt lat="47.56373" lon="-2.01093">
        <ele>48.753962</ele>
        <time>2022-12-15T13:15:46.612Z</time>
      </trkpt>
      <trkpt lat="47.56367" lon="-2.01082">
        <ele>48.722889</ele>
        <time>2022-12-15T13:15:48.608Z</time>
      </trkpt>
      <trkpt lat="47.5636" lon="-2.01072">
        <ele>48.692861</ele>
        <time>2022-12-15T13:15:50.591Z</time>
      </trkpt>
      <trkpt lat="47.56355" lon="-2.01061">
        <ele>48.648767</ele>
        <time>2022-12-15T13:15:52.603Z</time>
      </trkpt>
      <trkpt lat="47.56347" lon="-2.01048">
        <ele>48.58815</ele>
        <time>2022-12-15T13:15:55.612Z</time>
      </trkpt>
      <trkpt lat="47.56339" lon="-2.01035">
        <ele>48.529672</ele>
        <time>2022-12-15T13:15:58.602Z</time>
      </trkpt>
      <trkpt lat="47.56332" lon="-2.01021">
        <ele>48.468355</ele>
        <time>2022-12-15T13:16:01.610Z</time>
      </trkpt>
      <trkpt lat="47.56323" lon="-2.01006">
        <ele>48.399809</ele>
        <time>2022-12-15T13:16:04.612Z</time>
      </trkpt>
      <trkpt lat="47.56315" lon="-2.0099">
        <ele>48.331446</ele>
        <time>2022-12-15T13:16:07.611Z</time>
      </trkpt>
      <trkpt lat="47.56308" lon="-2.00975">
        <ele>48.267744</ele>
        <time>2022-12-15T13:16:10.609Z</time>
      </trkpt>
      <trkpt lat="47.563" lon="-2.0096">
        <ele>48.201872</ele>
        <time>2022-12-15T13:16:13.594Z</time>
      </trkpt>
      <trkpt lat="47.56292" lon="-2.00945">
        <ele>48.136218</ele>
        <time>2022-12-15T13:16:16.611Z</time>
      </trkpt>
      <trkpt lat="47.56284" lon="-2.00934">
        <ele>48.08076</ele>
        <time>2022-12-15T13:16:19.603Z</time>
      </trkpt>
      <trkpt lat="47.56276" lon="-2.0092">
        <ele>48.015441</ele>
        <time>2022-12-15T13:16:22.611Z</time>
      </trkpt>
      <trkpt lat="47.56268" lon="-2.00907">
        <ele>47.95397</ele>
        <time>2022-12-15T13:16:26.612Z</time>
      </trkpt>
      <trkpt lat="47.56259" lon="-2.00895">
        <ele>47.896218</ele>
        <time>2022-12-15T13:16:29.604Z</time>
      </trkpt>
      <trkpt lat="47.56251" lon="-2.00883">
        <ele>47.838811</ele>
        <time>2022-12-15T13:16:31.608Z</time>
      </trkpt>
      <trkpt lat="47.56244" lon="-2.00873">
        <ele>47.787235</ele>
        <time>2022-12-15T13:16:33.595Z</time>
      </trkpt>
      <trkpt lat="47.56237" lon="-2.00863">
        <ele>47.759643</ele>
        <time>2022-12-15T13:16:35.612Z</time>
      </trkpt>
      <trkpt lat="47.56228" lon="-2.0085">
        <ele>47.741312</ele>
        <time>2022-12-15T13:16:38.600Z</time>
      </trkpt>
      <trkpt lat="47.56217" lon="-2.00838">
        <ele>47.722783</ele>
        <time>2022-12-15T13:16:41.613Z</time>
      </trkpt>
      <trkpt lat="47.5621" lon="-2.00829">
        <ele>47.709938</ele>
        <time>2022-12-15T13:16:43.595Z</time>
      </trkpt>
      <trkpt lat="47.56202" lon="-2.0082">
        <ele>47.69512</ele>
        <time>2022-12-15T13:16:45.609Z</time>
      </trkpt>
      <trkpt lat="47.56195" lon="-2.00812">
        <ele>47.681946</ele>
        <time>2022-12-15T13:16:47.609Z</time>
      </trkpt>
      <trkpt lat="47.56183" lon="-2.008">
        <ele>47.662867</ele>
        <time>2022-12-15T13:16:50.593Z</time>
      </trkpt>
      <trkpt lat="47.56173" lon="-2.0079">
        <ele>47.64479</ele>
        <time>2022-12-15T13:16:53.593Z</time>
      </trkpt>
      <trkpt lat="47.56162" lon="-2.0078">
        <ele>47.62738</ele>
        <time>2022-12-15T13:16:56.609Z</time>
      </trkpt>
      <trkpt lat="47.56152" lon="-2.0077">
        <ele>47.609132</ele>
        <time>2022-12-15T13:16:59.601Z</time>
      </trkpt>
      <trkpt lat="47.56144" lon="-2.00762">
        <ele>47.596321</ele>
        <time>2022-12-15T13:17:01.609Z</time>
      </trkpt>
      <trkpt lat="47.56136" lon="-2.00756">
        <ele>47.583647</ele>
        <time>2022-12-15T13:17:03.591Z</time>
      </trkpt>
      <trkpt lat="47.56124" lon="-2.00747">
        <ele>47.564631</ele>
        <time>2022-12-15T13:17:06.608Z</time>
      </trkpt>
      <trkpt lat="47.56112" lon="-2.00738">
        <ele>47.546219</ele>
        <time>2022-12-15T13:17:09.619Z</time>
      </trkpt>
      <trkpt lat="47.56104" lon="-2.00732">
        <ele>47.533427</ele>
        <time>2022-12-15T13:17:11.613Z</time>
      </trkpt>
      <trkpt lat="47.56096" lon="-2.00727">
        <ele>47.520632</ele>
        <time>2022-12-15T13:17:13.592Z</time>
      </trkpt>
      <trkpt lat="47.56084" lon="-2.00718">
        <ele>47.550828</ele>
        <time>2022-12-15T13:17:16.613Z</time>
      </trkpt>
      <trkpt lat="47.56075" lon="-2.00711">
        <ele>47.594394</ele>
        <time>2022-12-15T13:17:18.601Z</time>
      </trkpt>
      <trkpt lat="47.56066" lon="-2.00703">
        <ele>47.638</ele>
        <time>2022-12-15T13:17:20.613Z</time>
      </trkpt>
      <trkpt lat="47.56058" lon="-2.00697">
        <ele>47.677287</ele>
        <time>2022-12-15T13:17:22.616Z</time>
      </trkpt>
      <trkpt lat="47.56047" lon="-2.00689">
        <ele>47.732733</ele>
        <time>2022-12-15T13:17:25.607Z</time>
      </trkpt>
      <trkpt lat="47.56036" lon="-2.00682">
        <ele>47.784574</ele>
        <time>2022-12-15T13:17:28.621Z</time>
      </trkpt>
      <trkpt lat="47.56024" lon="-2.00674">
        <ele>47.83846</ele>
        <time>2022-12-15T13:17:31.609Z</time>
      </trkpt>
      <trkpt lat="47.56013" lon="-2.00665">
        <ele>47.894289</ele>
        <time>2022-12-15T13:17:34.620Z</time>
      </trkpt>
      <trkpt lat="47.56001" lon="-2.00657">
        <ele>47.951034</ele>
        <time>2022-12-15T13:17:37.612Z</time>
      </trkpt>
      <trkpt lat="47.5599" lon="-2.00648">
        <ele>48.006478</ele>
        <time>2022-12-15T13:17:40.612Z</time>
      </trkpt>
      <trkpt lat="47.55978" lon="-2.0064">
        <ele>48.060881</ele>
        <time>2022-12-15T13:17:43.592Z</time>
      </trkpt>
      <trkpt lat="47.55967" lon="-2.00632">
        <ele>48.11438</ele>
        <time>2022-12-15T13:17:46.603Z</time>
      </trkpt>
      <trkpt lat="47.55956" lon="-2.00624">
        <ele>48.169852</ele>
        <time>2022-12-15T13:17:49.612Z</time>
      </trkpt>
      <trkpt lat="47.55944" lon="-2.00616">
        <ele>48.223612</ele>
        <time>2022-12-15T13:17:52.613Z</time>
      </trkpt>
      <trkpt lat="47.55933" lon="-2.00608">
        <ele>48.276855</ele>
        <time>2022-12-15T13:17:55.613Z</time>
      </trkpt>
      <trkpt lat="47.55921" lon="-2.006">
        <ele>48.24103</ele>
        <time>2022-12-15T13:17:58.610Z</time>
      </trkpt>
      <trkpt lat="47.55909" lon="-2.00592">
        <ele>48.17985</ele>
        <time>2022-12-15T13:18:01.614Z</time>
      </trkpt>
      <trkpt lat="47.559" lon="-2.00585">
        <ele>48.128467</ele>
        <time>2022-12-15T13:18:04.611Z</time>
      </trkpt>
      <trkpt lat="47.55888" lon="-2.00577">
        <ele>48.067869</ele>
        <time>2022-12-15T13:18:07.616Z</time>
      </trkpt>
      <trkpt lat="47.55877" lon="-2.00569">
        <ele>48.006493</ele>
        <time>2022-12-15T13:18:10.611Z</time>
      </trkpt>
      <trkpt lat="47.55867" lon="-2.00562">
        <ele>47.952974</ele>
        <time>2022-12-15T13:18:13.592Z</time>
      </trkpt>
      <trkpt lat="47.55858" lon="-2.00556">
        <ele>47.905822</ele>
        <time>2022-12-15T13:18:16.608Z</time>
      </trkpt>
      <trkpt lat="47.5585" lon="-2.00549">
        <ele>47.858862</ele>
        <time>2022-12-15T13:18:19.609Z</time>
      </trkpt>
      <trkpt lat="47.5584" lon="-2.00542">
        <ele>47.804918</ele>
        <time>2022-12-15T13:18:22.618Z</time>
      </trkpt>
      <trkpt lat="47.5583" lon="-2.00534">
        <ele>47.752271</ele>
        <time>2022-12-15T13:18:25.605Z</time>
      </trkpt>
      <trkpt lat="47.55819" lon="-2.00527">
        <ele>47.693977</ele>
        <time>2022-12-15T13:18:28.613Z</time>
      </trkpt>
      <trkpt lat="47.55808" lon="-2.00519">
        <ele>47.63626</ele>
        <time>2022-12-15T13:18:31.621Z</time>
      </trkpt>
      <trkpt lat="47.55797" lon="-2.00512">
        <ele>47.575273</ele>
        <time>2022-12-15T13:18:34.600Z</time>
      </trkpt>
      <trkpt lat="47.55785" lon="-2.00503">
        <ele>47.513229</ele>
        <time>2022-12-15T13:18:37.611Z</time>
      </trkpt>
      <trkpt lat="47.55774" lon="-2.00494">
        <ele>47.450295</ele>
        <time>2022-12-15T13:18:40.614Z</time>
      </trkpt>
      <trkpt lat="47.55766" lon="-2.00488">
        <ele>47.434638</ele>
        <time>2022-12-15T13:18:42.599Z</time>
      </trkpt>
      <trkpt lat="47.55755" lon="-2.00477">
        <ele>47.495791</ele>
        <time>2022-12-15T13:18:45.616Z</time>
      </trkpt>
      <trkpt lat="47.55744" lon="-2.00466">
        <ele>47.557504</ele>
        <time>2022-12-15T13:18:48.600Z</time>
      </trkpt>
      <trkpt lat="47.55733" lon="-2.00454">
        <ele>47.620475</ele>
        <time>2022-12-15T13:18:51.600Z</time>
      </trkpt>
      <trkpt lat="47.55725" lon="-2.00446">
        <ele>47.66467</ele>
        <time>2022-12-15T13:18:53.599Z</time>
      </trkpt>
      <trkpt lat="47.55717" lon="-2.00438">
        <ele>47.707187</ele>
        <time>2022-12-15T13:18:55.595Z</time>
      </trkpt>
      <trkpt lat="47.5571" lon="-2.00431">
        <ele>47.748682</ele>
        <time>2022-12-15T13:18:57.614Z</time>
      </trkpt>
      <trkpt lat="47.55698" lon="-2.00423">
        <ele>47.810354</ele>
        <time>2022-12-15T13:19:00.601Z</time>
      </trkpt>
      <trkpt lat="47.55686" lon="-2.00415">
        <ele>47.87277</ele>
        <time>2022-12-15T13:19:03.593Z</time>
      </trkpt>
      <trkpt lat="47.55677" lon="-2.0041">
        <ele>47.916474</ele>
        <time>2022-12-15T13:19:05.617Z</time>
      </trkpt>
      <trkpt lat="47.55665" lon="-2.00403">
        <ele>47.977572</ele>
        <time>2022-12-15T13:19:08.616Z</time>
      </trkpt>
      <trkpt lat="47.55654" lon="-2.00399">
        <ele>48.025972</ele>
        <time>2022-12-15T13:19:11.612Z</time>
      </trkpt>
      <trkpt lat="47.55645" lon="-2.00394">
        <ele>48.070653</ele>
        <time>2022-12-15T13:19:15.613Z</time>
      </trkpt>
      <trkpt lat="47.55635" lon="-2.00389">
        <ele>48.122762</ele>
        <time>2022-12-15T13:19:19.593Z</time>
      </trkpt>
      <trkpt lat="47.55623" lon="-2.00384">
        <ele>48.181097</ele>
        <time>2022-12-15T13:19:22.610Z</time>
      </trkpt>
      <trkpt lat="47.55611" lon="-2.00379">
        <ele>48.238096</ele>
        <time>2022-12-15T13:19:25.612Z</time>
      </trkpt>
      <trkpt lat="47.55598" lon="-2.00374">
        <ele>48.201639</ele>
        <time>2022-12-15T13:19:28.622Z</time>
      </trkpt>
      <trkpt lat="47.55585" lon="-2.00371">
        <ele>48.129043</ele>
        <time>2022-12-15T13:19:31.609Z</time>
      </trkpt>
      <trkpt lat="47.55572" lon="-2.00368">
        <ele>48.055208</ele>
        <time>2022-12-15T13:19:34.613Z</time>
      </trkpt>
      <trkpt lat="47.55559" lon="-2.00366">
        <ele>47.982838</ele>
        <time>2022-12-15T13:19:37.615Z</time>
      </trkpt>
      <trkpt lat="47.55546" lon="-2.00364">
        <ele>47.908041</ele>
        <time>2022-12-15T13:19:40.612Z</time>
      </trkpt>
      <trkpt lat="47.55537" lon="-2.00363">
        <ele>47.8571</ele>
        <time>2022-12-15T13:19:42.611Z</time>
      </trkpt>
      <trkpt lat="47.55523" lon="-2.00363">
        <ele>47.783386</ele>
        <time>2022-12-15T13:19:45.617Z</time>
      </trkpt>
      <trkpt lat="47.55512" lon="-2.00363">
        <ele>47.72196</ele>
        <time>2022-12-15T13:19:48.613Z</time>
      </trkpt>
      <trkpt lat="47.55501" lon="-2.00363">
        <ele>47.659989</ele>
        <time>2022-12-15T13:19:51.613Z</time>
      </trkpt>
      <trkpt lat="47.5549" lon="-2.00362">
        <ele>47.599097</ele>
        <time>2022-12-15T13:19:54.600Z</time>
      </trkpt>
      <trkpt lat="47.5548" lon="-2.00362">
        <ele>47.540994</ele>
        <time>2022-12-15T13:19:57.600Z</time>
      </trkpt>
      <trkpt lat="47.55467" lon="-2.00361">
        <ele>47.470014</ele>
        <time>2022-12-15T13:20:00.611Z</time>
      </trkpt>
      <trkpt lat="47.55455" lon="-2.00359">
        <ele>47.40056</ele>
        <time>2022-12-15T13:20:03.591Z</time>
      </trkpt>
      <trkpt lat="47.55443" lon="-2.00357">
        <ele>47.334213</ele>
        <time>2022-12-15T13:20:06.619Z</time>
      </trkpt>
      <trkpt lat="47.55432" lon="-2.00354">
        <ele>47.272414</ele>
        <time>2022-12-15T13:20:09.611Z</time>
      </trkpt>
      <trkpt lat="47.55422" lon="-2.00351">
        <ele>47.203781</ele>
        <time>2022-12-15T13:20:12.618Z</time>
      </trkpt>
      <trkpt lat="47.55412" lon="-2.00349">
        <ele>47.139908</ele>
        <time>2022-12-15T13:20:14.610Z</time>
      </trkpt>
      <trkpt lat="47.55403" lon="-2.00346">
        <ele>47.077587</ele>
        <time>2022-12-15T13:20:16.596Z</time>
      </trkpt>
      <trkpt lat="47.5539" lon="-2.00339">
        <ele>46.989057</ele>
        <time>2022-12-15T13:20:19.621Z</time>
      </trkpt>
      <trkpt lat="47.55382" lon="-2.00333">
        <ele>46.925192</ele>
        <time>2022-12-15T13:20:21.602Z</time>
      </trkpt>
      <trkpt lat="47.55369" lon="-2.00324">
        <ele>46.835152</ele>
        <time>2022-12-15T13:20:24.610Z</time>
      </trkpt>
      <trkpt lat="47.55361" lon="-2.00318">
        <ele>46.774665</ele>
        <time>2022-12-15T13:20:26.608Z</time>
      </trkpt>
      <trkpt lat="47.5535" lon="-2.00309">
        <ele>46.687802</ele>
        <time>2022-12-15T13:20:29.616Z</time>
      </trkpt>
      <trkpt lat="47.55338" lon="-2.003">
        <ele>46.598905</ele>
        <time>2022-12-15T13:20:32.613Z</time>
      </trkpt>
      <trkpt lat="47.55327" lon="-2.00291">
        <ele>46.51407</ele>
        <time>2022-12-15T13:20:35.613Z</time>
      </trkpt>
      <trkpt lat="47.55316" lon="-2.00283">
        <ele>46.436528</ele>
        <time>2022-12-15T13:20:38.596Z</time>
      </trkpt>
      <trkpt lat="47.55306" lon="-2.00276">
        <ele>46.364339</ele>
        <time>2022-12-15T13:20:41.613Z</time>
      </trkpt>
      <trkpt lat="47.55298" lon="-2.0027">
        <ele>46.303219</ele>
        <time>2022-12-15T13:20:44.611Z</time>
      </trkpt>
      <trkpt lat="47.55289" lon="-2.00265">
        <ele>46.242368</ele>
        <time>2022-12-15T13:20:47.616Z</time>
      </trkpt>
      <trkpt lat="47.55279" lon="-2.0026">
        <ele>46.170033</ele>
        <time>2022-12-15T13:20:50.597Z</time>
      </trkpt>
      <trkpt lat="47.55268" lon="-2.00254">
        <ele>46.093481</ele>
        <time>2022-12-15T13:20:53.593Z</time>
      </trkpt>
      <trkpt lat="47.55257" lon="-2.00248">
        <ele>45.978638</ele>
        <time>2022-12-15T13:20:56.619Z</time>
      </trkpt>
      <trkpt lat="47.55246" lon="-2.00243">
        <ele>45.841581</ele>
        <time>2022-12-15T13:20:59.600Z</time>
      </trkpt>
      <trkpt lat="47.55233" lon="-2.00238">
        <ele>45.6925</ele>
        <time>2022-12-15T13:21:02.615Z</time>
      </trkpt>
      <trkpt lat="47.55222" lon="-2.00232">
        <ele>45.55372</ele>
        <time>2022-12-15T13:21:05.614Z</time>
      </trkpt>
      <trkpt lat="47.55211" lon="-2.00226">
        <ele>45.41011</ele>
        <time>2022-12-15T13:21:08.603Z</time>
      </trkpt>
      <trkpt lat="47.55199" lon="-2.0022">
        <ele>45.270585</ele>
        <time>2022-12-15T13:21:11.613Z</time>
      </trkpt>
      <trkpt lat="47.55188" lon="-2.00214">
        <ele>45.127811</ele>
        <time>2022-12-15T13:21:14.610Z</time>
      </trkpt>
      <trkpt lat="47.55176" lon="-2.00208">
        <ele>44.980885</ele>
        <time>2022-12-15T13:21:17.610Z</time>
      </trkpt>
      <trkpt lat="47.55164" lon="-2.00202">
        <ele>44.831235</ele>
        <time>2022-12-15T13:21:20.614Z</time>
      </trkpt>
      <trkpt lat="47.55152" lon="-2.00196">
        <ele>44.682343</ele>
        <time>2022-12-15T13:21:23.592Z</time>
      </trkpt>
      <trkpt lat="47.5514" lon="-2.00191">
        <ele>44.540913</ele>
        <time>2022-12-15T13:21:26.592Z</time>
      </trkpt>
      <trkpt lat="47.55128" lon="-2.00185">
        <ele>44.394325</ele>
        <time>2022-12-15T13:21:29.616Z</time>
      </trkpt>
      <trkpt lat="47.55117" lon="-2.0018">
        <ele>44.253117</ele>
        <time>2022-12-15T13:21:32.612Z</time>
      </trkpt>
      <trkpt lat="47.55108" lon="-2.00176">
        <ele>44.146875</ele>
        <time>2022-12-15T13:21:34.611Z</time>
      </trkpt>
      <trkpt lat="47.55099" lon="-2.00172">
        <ele>44.039051</ele>
        <time>2022-12-15T13:21:36.608Z</time>
      </trkpt>
      <trkpt lat="47.55087" lon="-2.00166">
        <ele>43.962489</ele>
        <time>2022-12-15T13:21:39.606Z</time>
      </trkpt>
      <trkpt lat="47.55078" lon="-2.00162">
        <ele>43.973654</ele>
        <time>2022-12-15T13:21:41.617Z</time>
      </trkpt>
      <trkpt lat="47.55069" lon="-2.00157">
        <ele>43.984717</ele>
        <time>2022-12-15T13:21:43.595Z</time>
      </trkpt>
      <trkpt lat="47.55057" lon="-2.00152">
        <ele>44.000284</ele>
        <time>2022-12-15T13:21:46.601Z</time>
      </trkpt>
      <trkpt lat="47.55045" lon="-2.00147">
        <ele>44.015638</ele>
        <time>2022-12-15T13:21:49.617Z</time>
      </trkpt>
      <trkpt lat="47.55036" lon="-2.00141">
        <ele>44.027213</ele>
        <time>2022-12-15T13:21:51.602Z</time>
      </trkpt>
      <trkpt lat="47.55024" lon="-2.00135">
        <ele>44.042143</ele>
        <time>2022-12-15T13:21:54.623Z</time>
      </trkpt>
      <trkpt lat="47.55013" lon="-2.00131">
        <ele>44.056636</ele>
        <time>2022-12-15T13:21:57.610Z</time>
      </trkpt>
      <trkpt lat="47.55001" lon="-2.00125">
        <ele>44.071397</ele>
        <time>2022-12-15T13:22:00.607Z</time>
      </trkpt>
      <trkpt lat="47.5499" lon="-2.00119">
        <ele>44.086238</ele>
        <time>2022-12-15T13:22:03.596Z</time>
      </trkpt>
      <trkpt lat="47.54978" lon="-2.00113">
        <ele>44.101539</ele>
        <time>2022-12-15T13:22:06.613Z</time>
      </trkpt>
      <trkpt lat="47.54969" lon="-2.00109">
        <ele>44.112919</ele>
        <time>2022-12-15T13:22:08.612Z</time>
      </trkpt>
      <trkpt lat="47.5496" lon="-2.00104">
        <ele>44.124326</ele>
        <time>2022-12-15T13:22:10.613Z</time>
      </trkpt>
      <trkpt lat="47.54948" lon="-2.00098">
        <ele>44.139406</ele>
        <time>2022-12-15T13:22:13.598Z</time>
      </trkpt>
      <trkpt lat="47.54937" lon="-2.00093">
        <ele>44.153656</ele>
        <time>2022-12-15T13:22:16.617Z</time>
      </trkpt>
      <trkpt lat="47.54927" lon="-2.00088">
        <ele>44.166522</ele>
        <time>2022-12-15T13:22:19.600Z</time>
      </trkpt>
      <trkpt lat="47.54917" lon="-2.00082">
        <ele>44.166837</ele>
        <time>2022-12-15T13:22:22.602Z</time>
      </trkpt>
      <trkpt lat="47.54908" lon="-2.00077">
        <ele>44.155453</ele>
        <time>2022-12-15T13:22:25.613Z</time>
      </trkpt>
      <trkpt lat="47.54899" lon="-2.00071">
        <ele>44.142869</ele>
        <time>2022-12-15T13:22:29.605Z</time>
      </trkpt>
      <trkpt lat="47.54888" lon="-2.00061">
        <ele>44.127313</ele>
        <time>2022-12-15T13:22:33.596Z</time>
      </trkpt>
      <trkpt lat="47.54879" lon="-2.00053">
        <ele>44.114471</ele>
        <time>2022-12-15T13:22:36.590Z</time>
      </trkpt>
      <trkpt lat="47.5487" lon="-2.00044">
        <ele>44.101123</ele>
        <time>2022-12-15T13:22:39.614Z</time>
      </trkpt>
      <trkpt lat="47.54861" lon="-2.00034">
        <ele>44.08736</ele>
        <time>2022-12-15T13:22:42.611Z</time>
      </trkpt>
      <trkpt lat="47.54852" lon="-2.00023">
        <ele>44.072189</ele>
        <time>2022-12-15T13:22:45.595Z</time>
      </trkpt>
      <trkpt lat="47.54844" lon="-2.00011">
        <ele>44.057699</ele>
        <time>2022-12-15T13:22:48.613Z</time>
      </trkpt>
      <trkpt lat="47.54835" lon="-1.99996">
        <ele>44.04202</ele>
        <time>2022-12-15T13:22:51.619Z</time>
      </trkpt>
      <trkpt lat="47.54828" lon="-1.99982">
        <ele>44.026788</ele>
        <time>2022-12-15T13:22:54.601Z</time>
      </trkpt>
      <trkpt lat="47.54819" lon="-1.99969">
        <ele>44.011585</ele>
        <time>2022-12-15T13:22:57.612Z</time>
      </trkpt>
      <trkpt lat="47.54811" lon="-1.99956">
        <ele>43.997148</ele>
        <time>2022-12-15T13:23:00.606Z</time>
      </trkpt>
      <trkpt lat="47.54803" lon="-1.99942">
        <ele>43.981243</ele>
        <time>2022-12-15T13:23:03.593Z</time>
      </trkpt>
      <trkpt lat="47.54796" lon="-1.99926">
        <ele>43.965395</ele>
        <time>2022-12-15T13:23:06.612Z</time>
      </trkpt>
      <trkpt lat="47.54789" lon="-1.99911">
        <ele>43.949063</ele>
        <time>2022-12-15T13:23:09.612Z</time>
      </trkpt>
      <trkpt lat="47.54783" lon="-1.99896">
        <ele>43.875892</ele>
        <time>2022-12-15T13:23:12.606Z</time>
      </trkpt>
      <trkpt lat="47.54778" lon="-1.99883">
        <ele>43.81655</ele>
        <time>2022-12-15T13:23:15.618Z</time>
      </trkpt>
      <trkpt lat="47.54771" lon="-1.99869">
        <ele>43.746412</ele>
        <time>2022-12-15T13:23:18.592Z</time>
      </trkpt>
      <trkpt lat="47.54765" lon="-1.99857">
        <ele>43.684703</ele>
        <time>2022-12-15T13:23:21.608Z</time>
      </trkpt>
      <trkpt lat="47.54759" lon="-1.99847">
        <ele>43.628045</ele>
        <time>2022-12-15T13:23:24.594Z</time>
      </trkpt>
      <trkpt lat="47.5475" lon="-1.99834">
        <ele>43.551151</ele>
        <time>2022-12-15T13:23:28.613Z</time>
      </trkpt>
      <trkpt lat="47.54741" lon="-1.99821">
        <ele>43.477529</ele>
        <time>2022-12-15T13:23:31.616Z</time>
      </trkpt>
      <trkpt lat="47.54732" lon="-1.99809">
        <ele>43.405784</ele>
        <time>2022-12-15T13:23:34.594Z</time>
      </trkpt>
      <trkpt lat="47.54723" lon="-1.99796">
        <ele>43.331554</ele>
        <time>2022-12-15T13:23:37.615Z</time>
      </trkpt>
      <trkpt lat="47.54714" lon="-1.99785">
        <ele>43.260779</ele>
        <time>2022-12-15T13:23:40.595Z</time>
      </trkpt>
      <trkpt lat="47.54706" lon="-1.99778">
        <ele>43.205975</ele>
        <time>2022-12-15T13:23:42.617Z</time>
      </trkpt>
      <trkpt lat="47.54698" lon="-1.99772">
        <ele>43.150312</ele>
        <time>2022-12-15T13:23:44.614Z</time>
      </trkpt>
      <trkpt lat="47.54687" lon="-1.99765">
        <ele>43.076103</ele>
        <time>2022-12-15T13:23:47.593Z</time>
      </trkpt>
      <trkpt lat="47.54676" lon="-1.99761">
        <ele>43.007799</ele>
        <time>2022-12-15T13:23:51.612Z</time>
      </trkpt>
      <trkpt lat="47.54665" lon="-1.99761">
        <ele>42.944442</ele>
        <time>2022-12-15T13:23:54.615Z</time>
      </trkpt>
      <trkpt lat="47.54655" lon="-1.9976">
        <ele>42.882372</ele>
        <time>2022-12-15T13:23:57.620Z</time>
      </trkpt>
      <trkpt lat="47.54644" lon="-1.9976">
        <ele>42.853227</ele>
        <time>2022-12-15T13:24:00.613Z</time>
      </trkpt>
      <trkpt lat="47.54632" lon="-1.99761">
        <ele>42.833334</ele>
        <time>2022-12-15T13:24:03.599Z</time>
      </trkpt>
      <trkpt lat="47.54621" lon="-1.99761">
        <ele>42.813937</ele>
        <time>2022-12-15T13:24:06.611Z</time>
      </trkpt>
      <trkpt lat="47.54609" lon="-1.99762">
        <ele>42.793868</ele>
        <time>2022-12-15T13:24:09.612Z</time>
      </trkpt>
      <trkpt lat="47.54596" lon="-1.99762">
        <ele>42.772639</ele>
        <time>2022-12-15T13:24:12.616Z</time>
      </trkpt>
      <trkpt lat="47.54583" lon="-1.99762">
        <ele>42.750571</ele>
        <time>2022-12-15T13:24:15.613Z</time>
      </trkpt>
      <trkpt lat="47.54574" lon="-1.99762">
        <ele>42.735168</ele>
        <time>2022-12-15T13:24:17.599Z</time>
      </trkpt>
      <trkpt lat="47.54561" lon="-1.99758">
        <ele>42.713816</ele>
        <time>2022-12-15T13:24:20.599Z</time>
      </trkpt>
      <trkpt lat="47.54549" lon="-1.9975">
        <ele>42.691669</ele>
        <time>2022-12-15T13:24:23.596Z</time>
      </trkpt>
      <trkpt lat="47.54538" lon="-1.99739">
        <ele>42.67048</ele>
        <time>2022-12-15T13:24:26.597Z</time>
      </trkpt>
      <trkpt lat="47.54527" lon="-1.99728">
        <ele>42.648499</ele>
        <time>2022-12-15T13:24:29.613Z</time>
      </trkpt>
      <trkpt lat="47.54518" lon="-1.99719">
        <ele>42.628737</ele>
        <time>2022-12-15T13:24:32.622Z</time>
      </trkpt>
      <trkpt lat="47.5451" lon="-1.99711">
        <ele>42.613289</ele>
        <time>2022-12-15T13:24:34.612Z</time>
      </trkpt>
      <trkpt lat="47.54501" lon="-1.997">
        <ele>42.59401</ele>
        <time>2022-12-15T13:24:37.612Z</time>
      </trkpt>
      <trkpt lat="47.54493" lon="-1.99688">
        <ele>42.574625</ele>
        <time>2022-12-15T13:24:40.595Z</time>
      </trkpt>
      <trkpt lat="47.54486" lon="-1.99674">
        <ele>42.607484</ele>
        <time>2022-12-15T13:24:43.595Z</time>
      </trkpt>
      <trkpt lat="47.54478" lon="-1.99659">
        <ele>42.682886</ele>
        <time>2022-12-15T13:24:46.609Z</time>
      </trkpt>
      <trkpt lat="47.5447" lon="-1.99644">
        <ele>42.761584</ele>
        <time>2022-12-15T13:24:49.608Z</time>
      </trkpt>
      <trkpt lat="47.54461" lon="-1.9963">
        <ele>42.837664</ele>
        <time>2022-12-15T13:24:52.612Z</time>
      </trkpt>
      <trkpt lat="47.54455" lon="-1.99618">
        <ele>42.896173</ele>
        <time>2022-12-15T13:24:54.610Z</time>
      </trkpt>
      <trkpt lat="47.54448" lon="-1.99603">
        <ele>42.971693</ele>
        <time>2022-12-15T13:24:57.618Z</time>
      </trkpt>
      <trkpt lat="47.54441" lon="-1.99589">
        <ele>43.040037</ele>
        <time>2022-12-15T13:25:00.613Z</time>
      </trkpt>
      <trkpt lat="47.54434" lon="-1.99574">
        <ele>43.116764</ele>
        <time>2022-12-15T13:25:03.596Z</time>
      </trkpt>
      <trkpt lat="47.54426" lon="-1.99558">
        <ele>43.195523</ele>
        <time>2022-12-15T13:25:06.610Z</time>
      </trkpt>
      <trkpt lat="47.54418" lon="-1.99542">
        <ele>43.272869</ele>
        <time>2022-12-15T13:25:09.615Z</time>
      </trkpt>
      <trkpt lat="47.54411" lon="-1.99526">
        <ele>43.350546</ele>
        <time>2022-12-15T13:25:12.617Z</time>
      </trkpt>
      <trkpt lat="47.54404" lon="-1.99514">
        <ele>43.413563</ele>
        <time>2022-12-15T13:25:15.616Z</time>
      </trkpt>
      <trkpt lat="47.54399" lon="-1.99501">
        <ele>43.474686</ele>
        <time>2022-12-15T13:25:18.600Z</time>
      </trkpt>
      <trkpt lat="47.54393" lon="-1.99484">
        <ele>43.553459</ele>
        <time>2022-12-15T13:25:21.615Z</time>
      </trkpt>
      <trkpt lat="47.5439" lon="-1.99471">
        <ele>43.607229</ele>
        <time>2022-12-15T13:25:23.595Z</time>
      </trkpt>
      <trkpt lat="47.54386" lon="-1.99458">
        <ele>43.667477</ele>
        <time>2022-12-15T13:25:25.614Z</time>
      </trkpt>
      <trkpt lat="47.5438" lon="-1.9944">
        <ele>43.757963</ele>
        <time>2022-12-15T13:25:28.622Z</time>
      </trkpt>
      <trkpt lat="47.54374" lon="-1.99421">
        <ele>43.847243</ele>
        <time>2022-12-15T13:25:31.604Z</time>
      </trkpt>
      <trkpt lat="47.54369" lon="-1.99404">
        <ele>43.933282</ele>
        <time>2022-12-15T13:25:34.615Z</time>
      </trkpt>
      <trkpt lat="47.54365" lon="-1.99386">
        <ele>44.014646</ele>
        <time>2022-12-15T13:25:37.614Z</time>
      </trkpt>
      <trkpt lat="47.54362" lon="-1.9937">
        <ele>44.092081</ele>
        <time>2022-12-15T13:25:40.598Z</time>
      </trkpt>
      <trkpt lat="47.5436" lon="-1.99354">
        <ele>44.16357</ele>
        <time>2022-12-15T13:25:43.599Z</time>
      </trkpt>
      <trkpt lat="47.5436" lon="-1.99337">
        <ele>44.238121</ele>
        <time>2022-12-15T13:25:46.596Z</time>
      </trkpt>
      <trkpt lat="47.54361" lon="-1.99321">
        <ele>44.307844</ele>
        <time>2022-12-15T13:25:49.615Z</time>
      </trkpt>
      <trkpt lat="47.54361" lon="-1.99304">
        <ele>44.382813</ele>
        <time>2022-12-15T13:25:52.605Z</time>
      </trkpt>
      <trkpt lat="47.54361" lon="-1.99285">
        <ele>44.468894</ele>
        <time>2022-12-15T13:25:55.605Z</time>
      </trkpt>
      <trkpt lat="47.54362" lon="-1.99266">
        <ele>44.554271</ele>
        <time>2022-12-15T13:25:58.617Z</time>
      </trkpt>
      <trkpt lat="47.54364" lon="-1.99247">
        <ele>44.639382</ele>
        <time>2022-12-15T13:26:01.619Z</time>
      </trkpt>
      <trkpt lat="47.54366" lon="-1.99228">
        <ele>44.724212</ele>
        <time>2022-12-15T13:26:04.617Z</time>
      </trkpt>
      <trkpt lat="47.54368" lon="-1.99209">
        <ele>44.809761</ele>
        <time>2022-12-15T13:26:07.600Z</time>
      </trkpt>
      <trkpt lat="47.5437" lon="-1.99192">
        <ele>44.800956</ele>
        <time>2022-12-15T13:26:10.614Z</time>
      </trkpt>
      <trkpt lat="47.54372" lon="-1.99173">
        <ele>44.775578</ele>
        <time>2022-12-15T13:26:13.594Z</time>
      </trkpt>
      <trkpt lat="47.54373" lon="-1.99155">
        <ele>44.752534</ele>
        <time>2022-12-15T13:26:16.614Z</time>
      </trkpt>
      <trkpt lat="47.54375" lon="-1.99137">
        <ele>44.72796</ele>
        <time>2022-12-15T13:26:20.611Z</time>
      </trkpt>
      <trkpt lat="47.54377" lon="-1.99118">
        <ele>44.703312</ele>
        <time>2022-12-15T13:26:23.593Z</time>
      </trkpt>
      <trkpt lat="47.54378" lon="-1.991">
        <ele>44.67949</ele>
        <time>2022-12-15T13:26:26.615Z</time>
      </trkpt>
      <trkpt lat="47.5438" lon="-1.99083">
        <ele>44.657011</ele>
        <time>2022-12-15T13:26:29.601Z</time>
      </trkpt>
      <trkpt lat="47.54381" lon="-1.99066">
        <ele>44.634702</ele>
        <time>2022-12-15T13:26:32.613Z</time>
      </trkpt>
      <trkpt lat="47.54382" lon="-1.99046">
        <ele>44.60914</ele>
        <time>2022-12-15T13:26:35.613Z</time>
      </trkpt>
      <trkpt lat="47.54383" lon="-1.99028">
        <ele>44.584924</ele>
        <time>2022-12-15T13:26:38.615Z</time>
      </trkpt>
      <trkpt lat="47.54383" lon="-1.99014">
        <ele>44.567159</ele>
        <time>2022-12-15T13:26:40.608Z</time>
      </trkpt>
      <trkpt lat="47.54382" lon="-1.98996">
        <ele>44.542728</ele>
        <time>2022-12-15T13:26:43.596Z</time>
      </trkpt>
      <trkpt lat="47.54382" lon="-1.9898">
        <ele>44.521827</ele>
        <time>2022-12-15T13:26:46.620Z</time>
      </trkpt>
      <trkpt lat="47.54382" lon="-1.98965">
        <ele>44.502754</ele>
        <time>2022-12-15T13:26:48.616Z</time>
      </trkpt>
      <trkpt lat="47.54382" lon="-1.98951">
        <ele>44.484461</ele>
        <time>2022-12-15T13:26:50.620Z</time>
      </trkpt>
      <trkpt lat="47.54383" lon="-1.98935">
        <ele>44.483442</ele>
        <time>2022-12-15T13:26:52.608Z</time>
      </trkpt>
      <trkpt lat="47.54382" lon="-1.98916">
        <ele>44.519035</ele>
        <time>2022-12-15T13:26:55.614Z</time>
      </trkpt>
      <trkpt lat="47.54382" lon="-1.98901">
        <ele>44.54511</ele>
        <time>2022-12-15T13:26:57.615Z</time>
      </trkpt>
      <trkpt lat="47.54382" lon="-1.98882">
        <ele>44.580675</ele>
        <time>2022-12-15T13:27:00.613Z</time>
      </trkpt>
      <trkpt lat="47.54381" lon="-1.98862">
        <ele>44.617168</ele>
        <time>2022-12-15T13:27:03.594Z</time>
      </trkpt>
      <trkpt lat="47.54381" lon="-1.98848">
        <ele>44.64182</ele>
        <time>2022-12-15T13:27:05.619Z</time>
      </trkpt>
      <trkpt lat="47.5438" lon="-1.9883">
        <ele>44.675922</ele>
        <time>2022-12-15T13:27:08.612Z</time>
      </trkpt>
      <trkpt lat="47.54379" lon="-1.98813">
        <ele>44.706098</ele>
        <time>2022-12-15T13:27:11.601Z</time>
      </trkpt>
      <trkpt lat="47.54379" lon="-1.98798">
        <ele>44.733997</ele>
        <time>2022-12-15T13:27:15.602Z</time>
      </trkpt>
      <trkpt lat="47.54378" lon="-1.98781">
        <ele>44.76507</ele>
        <time>2022-12-15T13:27:19.597Z</time>
      </trkpt>
      <trkpt lat="47.54378" lon="-1.98766">
        <ele>44.791741</ele>
        <time>2022-12-15T13:27:22.609Z</time>
      </trkpt>
      <trkpt lat="47.54376" lon="-1.98752">
        <ele>44.818668</ele>
        <time>2022-12-15T13:27:25.598Z</time>
      </trkpt>
      <trkpt lat="47.54373" lon="-1.98734">
        <ele>44.852234</ele>
        <time>2022-12-15T13:27:28.606Z</time>
      </trkpt>
      <trkpt lat="47.54371" lon="-1.98719">
        <ele>44.880579</ele>
        <time>2022-12-15T13:27:31.616Z</time>
      </trkpt>
      <trkpt lat="47.54368" lon="-1.987">
        <ele>44.915803</ele>
        <time>2022-12-15T13:27:34.596Z</time>
      </trkpt>
      <trkpt lat="47.54365" lon="-1.98682">
        <ele>44.950273</ele>
        <time>2022-12-15T13:27:37.605Z</time>
      </trkpt>
      <trkpt lat="47.54362" lon="-1.98663">
        <ele>44.904988</ele>
        <time>2022-12-15T13:27:40.602Z</time>
      </trkpt>
      <trkpt lat="47.54359" lon="-1.98645">
        <ele>44.835026</ele>
        <time>2022-12-15T13:27:43.597Z</time>
      </trkpt>
      <trkpt lat="47.54357" lon="-1.98627">
        <ele>44.76862</ele>
        <time>2022-12-15T13:27:46.613Z</time>
      </trkpt>
      <trkpt lat="47.54355" lon="-1.9861">
        <ele>44.70432</ele>
        <time>2022-12-15T13:27:49.616Z</time>
      </trkpt>
      <trkpt lat="47.54352" lon="-1.98591">
        <ele>44.635307</ele>
        <time>2022-12-15T13:27:52.617Z</time>
      </trkpt>
      <trkpt lat="47.54349" lon="-1.98575">
        <ele>44.57365</ele>
        <time>2022-12-15T13:27:55.598Z</time>
      </trkpt>
      <trkpt lat="47.54346" lon="-1.9856">
        <ele>44.518499</ele>
        <time>2022-12-15T13:27:58.619Z</time>
      </trkpt>
      <trkpt lat="47.54344" lon="-1.98546">
        <ele>44.464324</ele>
        <time>2022-12-15T13:28:01.619Z</time>
      </trkpt>
      <trkpt lat="47.54341" lon="-1.98531">
        <ele>44.407376</ele>
        <time>2022-12-15T13:28:04.609Z</time>
      </trkpt>
      <trkpt lat="47.54337" lon="-1.98514">
        <ele>44.341255</ele>
        <time>2022-12-15T13:28:07.614Z</time>
      </trkpt>
      <trkpt lat="47.54331" lon="-1.98497">
        <ele>44.272578</ele>
        <time>2022-12-15T13:28:10.599Z</time>
      </trkpt>
      <trkpt lat="47.54325" lon="-1.9848">
        <ele>44.204228</ele>
        <time>2022-12-15T13:28:13.592Z</time>
      </trkpt>
      <trkpt lat="47.5432" lon="-1.98464">
        <ele>44.135306</ele>
        <time>2022-12-15T13:28:16.599Z</time>
      </trkpt>
      <trkpt lat="47.54313" lon="-1.98447">
        <ele>44.067552</ele>
        <time>2022-12-15T13:28:19.616Z</time>
      </trkpt>
      <trkpt lat="47.54308" lon="-1.98432">
        <ele>44.006776</ele>
        <time>2022-12-15T13:28:22.614Z</time>
      </trkpt>
      <trkpt lat="47.54304" lon="-1.98419">
        <ele>44.018861</ele>
        <time>2022-12-15T13:28:25.604Z</time>
      </trkpt>
      <trkpt lat="47.543" lon="-1.98404">
        <ele>44.076445</ele>
        <time>2022-12-15T13:28:28.621Z</time>
      </trkpt>
      <trkpt lat="47.54297" lon="-1.98387">
        <ele>44.138818</ele>
        <time>2022-12-15T13:28:31.600Z</time>
      </trkpt>
      <trkpt lat="47.54294" lon="-1.9837">
        <ele>44.201676</ele>
        <time>2022-12-15T13:28:34.614Z</time>
      </trkpt>
      <trkpt lat="47.54292" lon="-1.98353">
        <ele>44.264466</ele>
        <time>2022-12-15T13:28:37.618Z</time>
      </trkpt>
      <trkpt lat="47.54289" lon="-1.98335">
        <ele>44.332407</ele>
        <time>2022-12-15T13:28:40.617Z</time>
      </trkpt>
      <trkpt lat="47.54287" lon="-1.98318">
        <ele>44.397041</ele>
        <time>2022-12-15T13:28:43.597Z</time>
      </trkpt>
      <trkpt lat="47.54283" lon="-1.983">
        <ele>44.463406</ele>
        <time>2022-12-15T13:28:46.614Z</time>
      </trkpt>
      <trkpt lat="47.54281" lon="-1.98283">
        <ele>44.528395</ele>
        <time>2022-12-15T13:28:49.617Z</time>
      </trkpt>
      <trkpt lat="47.54278" lon="-1.98265">
        <ele>44.594208</ele>
        <time>2022-12-15T13:28:52.615Z</time>
      </trkpt>
      <trkpt lat="47.54276" lon="-1.98247">
        <ele>44.662044</ele>
        <time>2022-12-15T13:28:55.605Z</time>
      </trkpt>
      <trkpt lat="47.54273" lon="-1.98228">
        <ele>44.731298</ele>
        <time>2022-12-15T13:28:58.613Z</time>
      </trkpt>
      <trkpt lat="47.54271" lon="-1.9821">
        <ele>44.798514</ele>
        <time>2022-12-15T13:29:01.620Z</time>
      </trkpt>
      <trkpt lat="47.54271" lon="-1.98196">
        <ele>44.847211</ele>
        <time>2022-12-15T13:29:03.597Z</time>
      </trkpt>
      <trkpt lat="47.54271" lon="-1.98182">
        <ele>44.898803</ele>
        <time>2022-12-15T13:29:05.596Z</time>
      </trkpt>
      <trkpt lat="47.54271" lon="-1.98162">
        <ele>44.947397</ele>
        <time>2022-12-15T13:29:08.619Z</time>
      </trkpt>
      <trkpt lat="47.54272" lon="-1.98144">
        <ele>44.927303</ele>
        <time>2022-12-15T13:29:11.608Z</time>
      </trkpt>
      <trkpt lat="47.54272" lon="-1.98126">
        <ele>44.908274</ele>
        <time>2022-12-15T13:29:14.616Z</time>
      </trkpt>
      <trkpt lat="47.54273" lon="-1.9811">
        <ele>44.891299</ele>
        <time>2022-12-15T13:29:17.612Z</time>
      </trkpt>
      <trkpt lat="47.54274" lon="-1.98094">
        <ele>44.873701</ele>
        <time>2022-12-15T13:29:20.622Z</time>
      </trkpt>
      <trkpt lat="47.54275" lon="-1.98075">
        <ele>44.853853</ele>
        <time>2022-12-15T13:29:23.595Z</time>
      </trkpt>
      <trkpt lat="47.54276" lon="-1.98056">
        <ele>44.833605</ele>
        <time>2022-12-15T13:29:26.619Z</time>
      </trkpt>
      <trkpt lat="47.54277" lon="-1.98038">
        <ele>44.814487</ele>
        <time>2022-12-15T13:29:29.616Z</time>
      </trkpt>
      <trkpt lat="47.54279" lon="-1.98021">
        <ele>44.795333</ele>
        <time>2022-12-15T13:29:32.617Z</time>
      </trkpt>
      <trkpt lat="47.54281" lon="-1.98008">
        <ele>44.781077</ele>
        <time>2022-12-15T13:29:34.599Z</time>
      </trkpt>
      <trkpt lat="47.54284" lon="-1.97989">
        <ele>44.76075</ele>
        <time>2022-12-15T13:29:37.615Z</time>
      </trkpt>
      <trkpt lat="47.54288" lon="-1.97973">
        <ele>44.742814</ele>
        <time>2022-12-15T13:29:40.616Z</time>
      </trkpt>
      <trkpt lat="47.54291" lon="-1.97957">
        <ele>44.724525</ele>
        <time>2022-12-15T13:29:44.601Z</time>
      </trkpt>
      <trkpt lat="47.54294" lon="-1.9794">
        <ele>44.70589</ele>
        <time>2022-12-15T13:29:48.622Z</time>
      </trkpt>
      <trkpt lat="47.54296" lon="-1.97926">
        <ele>44.690424</ele>
        <time>2022-12-15T13:29:51.613Z</time>
      </trkpt>
      <trkpt lat="47.54299" lon="-1.97909">
        <ele>44.671811</ele>
        <time>2022-12-15T13:29:54.592Z</time>
      </trkpt>
      <trkpt lat="47.54303" lon="-1.97891">
        <ele>44.589822</ele>
        <time>2022-12-15T13:29:57.618Z</time>
      </trkpt>
      <trkpt lat="47.54307" lon="-1.97874">
        <ele>44.497126</ele>
        <time>2022-12-15T13:30:00.614Z</time>
      </trkpt>
      <trkpt lat="47.5431" lon="-1.97856">
        <ele>44.406147</ele>
        <time>2022-12-15T13:30:03.596Z</time>
      </trkpt>
      <trkpt lat="47.54312" lon="-1.97839">
        <ele>44.316697</ele>
        <time>2022-12-15T13:30:06.601Z</time>
      </trkpt>
      <trkpt lat="47.54316" lon="-1.97822">
        <ele>44.22541</ele>
        <time>2022-12-15T13:30:09.604Z</time>
      </trkpt>
      <trkpt lat="47.54319" lon="-1.97805">
        <ele>44.137388</ele>
        <time>2022-12-15T13:30:12.616Z</time>
      </trkpt>
      <trkpt lat="47.54321" lon="-1.97788">
        <ele>44.048925</ele>
        <time>2022-12-15T13:30:15.600Z</time>
      </trkpt>
      <trkpt lat="47.54324" lon="-1.97769">
        <ele>43.948682</ele>
        <time>2022-12-15T13:30:18.609Z</time>
      </trkpt>
      <trkpt lat="47.54327" lon="-1.97751">
        <ele>43.851592</ele>
        <time>2022-12-15T13:30:21.617Z</time>
      </trkpt>
      <trkpt lat="47.5433" lon="-1.97732">
        <ele>43.755897</ele>
        <time>2022-12-15T13:30:24.612Z</time>
      </trkpt>
      <trkpt lat="47.54333" lon="-1.97716">
        <ele>43.66856</ele>
        <time>2022-12-15T13:30:27.610Z</time>
      </trkpt>
      <trkpt lat="47.54336" lon="-1.977">
        <ele>43.583567</ele>
        <time>2022-12-15T13:30:30.607Z</time>
      </trkpt>
      <trkpt lat="47.54338" lon="-1.97684">
        <ele>43.503459</ele>
        <time>2022-12-15T13:30:33.596Z</time>
      </trkpt>
      <trkpt lat="47.54339" lon="-1.9767">
        <ele>43.429799</ele>
        <time>2022-12-15T13:30:36.619Z</time>
      </trkpt>
      <trkpt lat="47.54339" lon="-1.97654">
        <ele>43.349799</ele>
        <time>2022-12-15T13:30:39.593Z</time>
      </trkpt>
      <trkpt lat="47.54339" lon="-1.97637">
        <ele>43.297092</ele>
        <time>2022-12-15T13:30:42.601Z</time>
      </trkpt>
      <trkpt lat="47.54339" lon="-1.9762">
        <ele>43.271177</ele>
        <time>2022-12-15T13:30:45.625Z</time>
      </trkpt>
      <trkpt lat="47.54338" lon="-1.97601">
        <ele>43.242861</ele>
        <time>2022-12-15T13:30:48.611Z</time>
      </trkpt>
      <trkpt lat="47.54337" lon="-1.97581">
        <ele>43.213144</ele>
        <time>2022-12-15T13:30:51.606Z</time>
      </trkpt>
      <trkpt lat="47.54337" lon="-1.97567">
        <ele>43.19187</ele>
        <time>2022-12-15T13:30:53.597Z</time>
      </trkpt>
      <trkpt lat="47.54336" lon="-1.97554">
        <ele>43.171831</ele>
        <time>2022-12-15T13:30:55.616Z</time>
      </trkpt>
      <trkpt lat="47.54335" lon="-1.9754">
        <ele>43.151791</ele>
        <time>2022-12-15T13:30:57.615Z</time>
      </trkpt>
      <trkpt lat="47.54334" lon="-1.97527">
        <ele>43.131647</ele>
        <time>2022-12-15T13:30:59.613Z</time>
      </trkpt>
      <trkpt lat="47.54333" lon="-1.97514">
        <ele>43.111554</ele>
        <time>2022-12-15T13:31:01.615Z</time>
      </trkpt>
      <trkpt lat="47.54332" lon="-1.975">
        <ele>43.091191</ele>
        <time>2022-12-15T13:31:03.598Z</time>
      </trkpt>
      <trkpt lat="47.54331" lon="-1.97483">
        <ele>43.065397</ele>
        <time>2022-12-15T13:31:06.612Z</time>
      </trkpt>
      <trkpt lat="47.5433" lon="-1.97468">
        <ele>43.042032</ele>
        <time>2022-12-15T13:31:09.617Z</time>
      </trkpt>
      <trkpt lat="47.5433" lon="-1.97452">
        <ele>43.018672</ele>
        <time>2022-12-15T13:31:12.619Z</time>
      </trkpt>
      <trkpt lat="47.54331" lon="-1.97435">
        <ele>42.99297</ele>
        <time>2022-12-15T13:31:15.616Z</time>
      </trkpt>
      <trkpt lat="47.54333" lon="-1.97417">
        <ele>42.966642</ele>
        <time>2022-12-15T13:31:18.610Z</time>
      </trkpt>
      <trkpt lat="47.54335" lon="-1.97401">
        <ele>42.94143</ele>
        <time>2022-12-15T13:31:21.620Z</time>
      </trkpt>
      <trkpt lat="47.54336" lon="-1.97384">
        <ele>42.91675</ele>
        <time>2022-12-15T13:31:24.599Z</time>
      </trkpt>
      <trkpt lat="47.54339" lon="-1.97368">
        <ele>42.888692</ele>
        <time>2022-12-15T13:31:27.602Z</time>
      </trkpt>
      <trkpt lat="47.54346" lon="-1.97354">
        <ele>42.859355</ele>
        <time>2022-12-15T13:31:30.599Z</time>
      </trkpt>
      <trkpt lat="47.54354" lon="-1.97342">
        <ele>42.831581</ele>
        <time>2022-12-15T13:31:33.599Z</time>
      </trkpt>
      <trkpt lat="47.54362" lon="-1.9733">
        <ele>42.802313</ele>
        <time>2022-12-15T13:31:36.604Z</time>
      </trkpt>
      <trkpt lat="47.54372" lon="-1.97319">
        <ele>42.771486</ele>
        <time>2022-12-15T13:31:39.601Z</time>
      </trkpt>
      <trkpt lat="47.5438" lon="-1.97307">
        <ele>42.742857</ele>
        <time>2022-12-15T13:31:42.600Z</time>
      </trkpt>
      <trkpt lat="47.5439" lon="-1.97296">
        <ele>42.713231</ele>
        <time>2022-12-15T13:31:45.603Z</time>
      </trkpt>
      <trkpt lat="47.54399" lon="-1.97285">
        <ele>42.68311</ele>
        <time>2022-12-15T13:31:48.608Z</time>
      </trkpt>
      <trkpt lat="47.54407" lon="-1.97274">
        <ele>42.655857</ele>
        <time>2022-12-15T13:31:51.607Z</time>
      </trkpt>
      <trkpt lat="47.54414" lon="-1.97261">
        <ele>42.627485</ele>
        <time>2022-12-15T13:31:54.599Z</time>
      </trkpt>
      <trkpt lat="47.5442" lon="-1.97248">
        <ele>42.60052</ele>
        <time>2022-12-15T13:31:57.606Z</time>
      </trkpt>
      <trkpt lat="47.54424" lon="-1.97235">
        <ele>42.576229</ele>
        <time>2022-12-15T13:32:00.609Z</time>
      </trkpt>
      <trkpt lat="47.54429" lon="-1.9722">
        <ele>42.549014</ele>
        <time>2022-12-15T13:32:03.600Z</time>
      </trkpt>
      <trkpt lat="47.54433" lon="-1.97203">
        <ele>42.518351</ele>
        <time>2022-12-15T13:32:06.598Z</time>
      </trkpt>
      <trkpt lat="47.54435" lon="-1.97185">
        <ele>42.487273</ele>
        <time>2022-12-15T13:32:09.617Z</time>
      </trkpt>
      <trkpt lat="47.54438" lon="-1.97168">
        <ele>42.471662</ele>
        <time>2022-12-15T13:32:12.596Z</time>
      </trkpt>
      <trkpt lat="47.5444" lon="-1.97149">
        <ele>42.538851</ele>
        <time>2022-12-15T13:32:15.598Z</time>
      </trkpt>
      <trkpt lat="47.54443" lon="-1.97132">
        <ele>42.596212</ele>
        <time>2022-12-15T13:32:18.609Z</time>
      </trkpt>
      <trkpt lat="47.54446" lon="-1.97115">
        <ele>42.659492</ele>
        <time>2022-12-15T13:32:21.618Z</time>
      </trkpt>
      <trkpt lat="47.54448" lon="-1.97101">
        <ele>42.706225</ele>
        <time>2022-12-15T13:32:23.599Z</time>
      </trkpt>
      <trkpt lat="47.5445" lon="-1.97083">
        <ele>42.769457</ele>
        <time>2022-12-15T13:32:26.616Z</time>
      </trkpt>
      <trkpt lat="47.5445" lon="-1.97063">
        <ele>42.836842</ele>
        <time>2022-12-15T13:32:29.617Z</time>
      </trkpt>
      <trkpt lat="47.54449" lon="-1.9705">
        <ele>42.883475</ele>
        <time>2022-12-15T13:32:31.620Z</time>
      </trkpt>
      <trkpt lat="47.54447" lon="-1.97032">
        <ele>42.945954</ele>
        <time>2022-12-15T13:32:34.616Z</time>
      </trkpt>
      <trkpt lat="47.54445" lon="-1.97015">
        <ele>43.005867</ele>
        <time>2022-12-15T13:32:37.615Z</time>
      </trkpt>
      <trkpt lat="47.54443" lon="-1.96999">
        <ele>43.062574</ele>
        <time>2022-12-15T13:32:40.601Z</time>
      </trkpt>
      <trkpt lat="47.5444" lon="-1.96982">
        <ele>43.120521</ele>
        <time>2022-12-15T13:32:43.599Z</time>
      </trkpt>
      <trkpt lat="47.54437" lon="-1.96965">
        <ele>43.184042</ele>
        <time>2022-12-15T13:32:46.602Z</time>
      </trkpt>
      <trkpt lat="47.54432" lon="-1.96948">
        <ele>43.246494</ele>
        <time>2022-12-15T13:32:49.621Z</time>
      </trkpt>
      <trkpt lat="47.54427" lon="-1.96928">
        <ele>43.317699</ele>
        <time>2022-12-15T13:32:52.611Z</time>
      </trkpt>
      <trkpt lat="47.54424" lon="-1.96916">
        <ele>43.364101</ele>
        <time>2022-12-15T13:32:54.608Z</time>
      </trkpt>
      <trkpt lat="47.5442" lon="-1.96901">
        <ele>43.39729</ele>
        <time>2022-12-15T13:32:57.617Z</time>
      </trkpt>
      <trkpt lat="47.54415" lon="-1.96884">
        <ele>43.424109</ele>
        <time>2022-12-15T13:33:01.602Z</time>
      </trkpt>
      <trkpt lat="47.5441" lon="-1.9687">
        <ele>43.448973</ele>
        <time>2022-12-15T13:33:04.611Z</time>
      </trkpt>
      <trkpt lat="47.54406" lon="-1.96854">
        <ele>43.474438</ele>
        <time>2022-12-15T13:33:07.607Z</time>
      </trkpt>
      <trkpt lat="47.54402" lon="-1.96837">
        <ele>43.501998</ele>
        <time>2022-12-15T13:33:10.612Z</time>
      </trkpt>
      <trkpt lat="47.54398" lon="-1.96821">
        <ele>43.528872</ele>
        <time>2022-12-15T13:33:13.597Z</time>
      </trkpt>
      <trkpt lat="47.54393" lon="-1.96804">
        <ele>43.556659</ele>
        <time>2022-12-15T13:33:16.613Z</time>
      </trkpt>
      <trkpt lat="47.54388" lon="-1.96788">
        <ele>43.584309</ele>
        <time>2022-12-15T13:33:19.612Z</time>
      </trkpt>
      <trkpt lat="47.54382" lon="-1.96771">
        <ele>43.613448</ele>
        <time>2022-12-15T13:33:22.616Z</time>
      </trkpt>
      <trkpt lat="47.54376" lon="-1.96759">
        <ele>43.63508</ele>
        <time>2022-12-15T13:33:24.619Z</time>
      </trkpt>
      <trkpt lat="47.54369" lon="-1.96742">
        <ele>43.664934</ele>
        <time>2022-12-15T13:33:27.607Z</time>
      </trkpt>
      <trkpt lat="47.54362" lon="-1.96727">
        <ele>43.692636</ele>
        <time>2022-12-15T13:33:30.607Z</time>
      </trkpt>
      <trkpt lat="47.54356" lon="-1.96713">
        <ele>43.718694</ele>
        <time>2022-12-15T13:33:33.596Z</time>
      </trkpt>
      <trkpt lat="47.5435" lon="-1.967">
        <ele>43.743485</ele>
        <time>2022-12-15T13:33:36.619Z</time>
      </trkpt>
      <trkpt lat="47.54343" lon="-1.96686">
        <ele>43.769055</ele>
        <time>2022-12-15T13:33:39.616Z</time>
      </trkpt>
      <trkpt lat="47.54336" lon="-1.96674">
        <ele>43.800658</ele>
        <time>2022-12-15T13:33:42.599Z</time>
      </trkpt>
      <trkpt lat="47.54329" lon="-1.96658">
        <ele>43.856912</ele>
        <time>2022-12-15T13:33:45.603Z</time>
      </trkpt>
      <trkpt lat="47.54322" lon="-1.96645">
        <ele>43.906934</ele>
        <time>2022-12-15T13:33:48.607Z</time>
      </trkpt>
      <trkpt lat="47.54316" lon="-1.9663">
        <ele>43.958626</ele>
        <time>2022-12-15T13:33:51.620Z</time>
      </trkpt>
      <trkpt lat="47.54309" lon="-1.96615">
        <ele>44.011003</ele>
        <time>2022-12-15T13:33:54.599Z</time>
      </trkpt>
      <trkpt lat="47.54302" lon="-1.96602">
        <ele>44.058032</ele>
        <time>2022-12-15T13:33:57.620Z</time>
      </trkpt>
      <trkpt lat="47.54296" lon="-1.96588">
        <ele>44.106057</ele>
        <time>2022-12-15T13:34:00.618Z</time>
      </trkpt>
      <trkpt lat="47.54289" lon="-1.96574">
        <ele>44.156723</ele>
        <time>2022-12-15T13:34:03.599Z</time>
      </trkpt>
      <trkpt lat="47.54283" lon="-1.9656">
        <ele>44.206421</ele>
        <time>2022-12-15T13:34:06.609Z</time>
      </trkpt>
      <trkpt lat="47.54276" lon="-1.96545">
        <ele>44.258057</ele>
        <time>2022-12-15T13:34:09.620Z</time>
      </trkpt>
      <trkpt lat="47.54269" lon="-1.9653">
        <ele>44.312679</ele>
        <time>2022-12-15T13:34:12.617Z</time>
      </trkpt>
      <trkpt lat="47.54263" lon="-1.96518">
        <ele>44.356574</ele>
        <time>2022-12-15T13:34:15.601Z</time>
      </trkpt>
      <trkpt lat="47.54257" lon="-1.96506">
        <ele>44.399994</ele>
        <time>2022-12-15T13:34:18.618Z</time>
      </trkpt>
      <trkpt lat="47.54249" lon="-1.96491">
        <ele>44.457062</ele>
        <time>2022-12-15T13:34:21.599Z</time>
      </trkpt>
      <trkpt lat="47.54243" lon="-1.9648">
        <ele>44.498118</ele>
        <time>2022-12-15T13:34:23.601Z</time>
      </trkpt>
      <trkpt lat="47.54234" lon="-1.96466">
        <ele>44.553405</ele>
        <time>2022-12-15T13:34:26.619Z</time>
      </trkpt>
      <trkpt lat="47.54227" lon="-1.96457">
        <ele>44.522851</ele>
        <time>2022-12-15T13:34:29.609Z</time>
      </trkpt>
      <trkpt lat="47.54219" lon="-1.9645">
        <ele>44.464694</ele>
        <time>2022-12-15T13:34:32.599Z</time>
      </trkpt>
      <trkpt lat="47.54211" lon="-1.9644">
        <ele>44.397762</ele>
        <time>2022-12-15T13:34:35.597Z</time>
      </trkpt>
      <trkpt lat="47.54203" lon="-1.96432">
        <ele>44.342196</ele>
        <time>2022-12-15T13:34:38.608Z</time>
      </trkpt>
      <trkpt lat="47.54195" lon="-1.96424">
        <ele>44.284463</ele>
        <time>2022-12-15T13:34:41.620Z</time>
      </trkpt>
      <trkpt lat="47.54186" lon="-1.96413">
        <ele>44.210622</ele>
        <time>2022-12-15T13:34:45.614Z</time>
      </trkpt>
      <trkpt lat="47.54179" lon="-1.96405">
        <ele>44.152625</ele>
        <time>2022-12-15T13:34:48.595Z</time>
      </trkpt>
      <trkpt lat="47.5417" lon="-1.96395">
        <ele>44.087205</ele>
        <time>2022-12-15T13:34:51.610Z</time>
      </trkpt>
      <trkpt lat="47.54162" lon="-1.96386">
        <ele>44.020804</ele>
        <time>2022-12-15T13:34:54.612Z</time>
      </trkpt>
      <trkpt lat="47.54153" lon="-1.96375">
        <ele>43.949904</ele>
        <time>2022-12-15T13:34:57.615Z</time>
      </trkpt>
      <trkpt lat="47.54143" lon="-1.96365">
        <ele>43.880284</ele>
        <time>2022-12-15T13:35:00.610Z</time>
      </trkpt>
      <trkpt lat="47.54133" lon="-1.96355">
        <ele>43.804399</ele>
        <time>2022-12-15T13:35:03.601Z</time>
      </trkpt>
      <trkpt lat="47.54123" lon="-1.96344">
        <ele>43.728313</ele>
        <time>2022-12-15T13:35:06.604Z</time>
      </trkpt>
      <trkpt lat="47.54114" lon="-1.96335">
        <ele>43.659682</ele>
        <time>2022-12-15T13:35:09.613Z</time>
      </trkpt>
      <trkpt lat="47.54104" lon="-1.96326">
        <ele>43.586044</ele>
        <time>2022-12-15T13:35:12.619Z</time>
      </trkpt>
      <trkpt lat="47.54094" lon="-1.96318">
        <ele>43.518528</ele>
        <time>2022-12-15T13:35:15.614Z</time>
      </trkpt>
      <trkpt lat="47.54083" lon="-1.9631">
        <ele>43.444859</ele>
        <time>2022-12-15T13:35:18.608Z</time>
      </trkpt>
      <trkpt lat="47.54073" lon="-1.96305">
        <ele>43.383177</ele>
        <time>2022-12-15T13:35:21.621Z</time>
      </trkpt>
      <trkpt lat="47.54065" lon="-1.96301">
        <ele>43.330336</ele>
        <time>2022-12-15T13:35:24.617Z</time>
      </trkpt>
      <trkpt lat="47.54055" lon="-1.96296">
        <ele>43.271533</ele>
        <time>2022-12-15T13:35:27.609Z</time>
      </trkpt>
      <trkpt lat="47.54045" lon="-1.96293">
        <ele>43.209981</ele>
        <time>2022-12-15T13:35:30.617Z</time>
      </trkpt>
      <trkpt lat="47.54035" lon="-1.96288">
        <ele>43.147943</ele>
        <time>2022-12-15T13:35:33.601Z</time>
      </trkpt>
      <trkpt lat="47.54023" lon="-1.96283">
        <ele>43.078337</ele>
        <time>2022-12-15T13:35:36.616Z</time>
      </trkpt>
      <trkpt lat="47.54012" lon="-1.96278">
        <ele>43.009732</ele>
        <time>2022-12-15T13:35:39.613Z</time>
      </trkpt>
      <trkpt lat="47.54001" lon="-1.96274">
        <ele>42.946485</ele>
        <time>2022-12-15T13:35:42.614Z</time>
      </trkpt>
      <trkpt lat="47.5399" lon="-1.96269">
        <ele>42.876431</ele>
        <time>2022-12-15T13:35:45.621Z</time>
      </trkpt>
      <trkpt lat="47.53978" lon="-1.96264">
        <ele>42.804485</ele>
        <time>2022-12-15T13:35:48.618Z</time>
      </trkpt>
      <trkpt lat="47.53965" lon="-1.96259">
        <ele>42.729423</ele>
        <time>2022-12-15T13:35:51.612Z</time>
      </trkpt>
      <trkpt lat="47.53955" lon="-1.96253">
        <ele>42.663773</ele>
        <time>2022-12-15T13:35:54.613Z</time>
      </trkpt>
      <trkpt lat="47.53944" lon="-1.96249">
        <ele>42.597063</ele>
        <time>2022-12-15T13:35:57.608Z</time>
      </trkpt>
      <trkpt lat="47.53932" lon="-1.96246">
        <ele>42.527022</ele>
        <time>2022-12-15T13:36:00.618Z</time>
      </trkpt>
      <trkpt lat="47.53919" lon="-1.96243">
        <ele>42.453139</ele>
        <time>2022-12-15T13:36:03.600Z</time>
      </trkpt>
      <trkpt lat="47.53907" lon="-1.96241">
        <ele>42.503261</ele>
        <time>2022-12-15T13:36:06.605Z</time>
      </trkpt>
      <trkpt lat="47.53895" lon="-1.96239">
        <ele>42.721269</ele>
        <time>2022-12-15T13:36:09.617Z</time>
      </trkpt>
      <trkpt lat="47.53883" lon="-1.96237">
        <ele>42.940376</ele>
        <time>2022-12-15T13:36:12.612Z</time>
      </trkpt>
      <trkpt lat="47.53872" lon="-1.96236">
        <ele>43.136879</ele>
        <time>2022-12-15T13:36:15.617Z</time>
      </trkpt>
      <trkpt lat="47.53861" lon="-1.96235">
        <ele>43.340708</ele>
        <time>2022-12-15T13:36:18.616Z</time>
      </trkpt>
      <trkpt lat="47.53849" lon="-1.96234">
        <ele>43.562608</ele>
        <time>2022-12-15T13:36:21.620Z</time>
      </trkpt>
      <trkpt lat="47.53837" lon="-1.96233">
        <ele>43.78329</ele>
        <time>2022-12-15T13:36:24.623Z</time>
      </trkpt>
      <trkpt lat="47.53824" lon="-1.96231">
        <ele>44.011558</ele>
        <time>2022-12-15T13:36:27.611Z</time>
      </trkpt>
      <trkpt lat="47.53812" lon="-1.96229">
        <ele>44.228514</ele>
        <time>2022-12-15T13:36:30.608Z</time>
      </trkpt>
      <trkpt lat="47.53801" lon="-1.96229">
        <ele>44.437654</ele>
        <time>2022-12-15T13:36:33.597Z</time>
      </trkpt>
      <trkpt lat="47.53788" lon="-1.96227">
        <ele>44.674435</ele>
        <time>2022-12-15T13:36:36.616Z</time>
      </trkpt>
      <trkpt lat="47.53774" lon="-1.96225">
        <ele>44.915356</ele>
        <time>2022-12-15T13:36:39.618Z</time>
      </trkpt>
      <trkpt lat="47.53762" lon="-1.96223">
        <ele>45.147497</ele>
        <time>2022-12-15T13:36:42.620Z</time>
      </trkpt>
      <trkpt lat="47.5375" lon="-1.96222">
        <ele>45.356698</ele>
        <time>2022-12-15T13:36:45.613Z</time>
      </trkpt>
      <trkpt lat="47.53739" lon="-1.9622">
        <ele>45.563157</ele>
        <time>2022-12-15T13:36:48.603Z</time>
      </trkpt>
      <trkpt lat="47.53728" lon="-1.9622">
        <ele>45.646234</ele>
        <time>2022-12-15T13:36:51.619Z</time>
      </trkpt>
      <trkpt lat="47.53717" lon="-1.96217">
        <ele>45.561305</ele>
        <time>2022-12-15T13:36:54.619Z</time>
      </trkpt>
      <trkpt lat="47.53705" lon="-1.96216">
        <ele>45.473741</ele>
        <time>2022-12-15T13:36:57.619Z</time>
      </trkpt>
      <trkpt lat="47.53692" lon="-1.96214">
        <ele>45.378883</ele>
        <time>2022-12-15T13:37:00.623Z</time>
      </trkpt>
      <trkpt lat="47.5368" lon="-1.96213">
        <ele>45.288565</ele>
        <time>2022-12-15T13:37:03.598Z</time>
      </trkpt>
      <trkpt lat="47.53668" lon="-1.96211">
        <ele>45.200789</ele>
        <time>2022-12-15T13:37:06.616Z</time>
      </trkpt>
      <trkpt lat="47.53658" lon="-1.9621">
        <ele>45.127439</ele>
        <time>2022-12-15T13:37:09.605Z</time>
      </trkpt>
      <trkpt lat="47.53646" lon="-1.96208">
        <ele>45.037851</ele>
        <time>2022-12-15T13:37:12.608Z</time>
      </trkpt>
      <trkpt lat="47.53634" lon="-1.96207">
        <ele>44.949791</ele>
        <time>2022-12-15T13:37:15.619Z</time>
      </trkpt>
      <trkpt lat="47.53622" lon="-1.96206">
        <ele>44.863731</ele>
        <time>2022-12-15T13:37:18.621Z</time>
      </trkpt>
      <trkpt lat="47.5361" lon="-1.96203">
        <ele>44.776762</ele>
        <time>2022-12-15T13:37:21.618Z</time>
      </trkpt>
      <trkpt lat="47.53601" lon="-1.962">
        <ele>44.71094</ele>
        <time>2022-12-15T13:37:23.600Z</time>
      </trkpt>
      <trkpt lat="47.53589" lon="-1.96195">
        <ele>44.617776</ele>
        <time>2022-12-15T13:37:26.613Z</time>
      </trkpt>
      <trkpt lat="47.53578" lon="-1.96191">
        <ele>44.535735</ele>
        <time>2022-12-15T13:37:29.609Z</time>
      </trkpt>
      <trkpt lat="47.53569" lon="-1.96187">
        <ele>44.464745</ele>
        <time>2022-12-15T13:37:32.615Z</time>
      </trkpt>
      <trkpt lat="47.53557" lon="-1.96183">
        <ele>44.373957</ele>
        <time>2022-12-15T13:37:35.620Z</time>
      </trkpt>
      <trkpt lat="47.53547" lon="-1.96179">
        <ele>44.402583</ele>
        <time>2022-12-15T13:37:38.605Z</time>
      </trkpt>
      <trkpt lat="47.53537" lon="-1.96175">
        <ele>44.449976</ele>
        <time>2022-12-15T13:37:41.618Z</time>
      </trkpt>
      <trkpt lat="47.53526" lon="-1.96171">
        <ele>44.503951</ele>
        <time>2022-12-15T13:37:44.617Z</time>
      </trkpt>
      <trkpt lat="47.53515" lon="-1.96166">
        <ele>44.55764</ele>
        <time>2022-12-15T13:37:47.609Z</time>
      </trkpt>
      <trkpt lat="47.53505" lon="-1.96162">
        <ele>44.610412</ele>
        <time>2022-12-15T13:37:50.620Z</time>
      </trkpt>
      <trkpt lat="47.53492" lon="-1.96156">
        <ele>44.673813</ele>
        <time>2022-12-15T13:37:53.598Z</time>
      </trkpt>
      <trkpt lat="47.5348" lon="-1.96151">
        <ele>44.735757</ele>
        <time>2022-12-15T13:37:56.620Z</time>
      </trkpt>
      <trkpt lat="47.53467" lon="-1.96146">
        <ele>44.79641</ele>
        <time>2022-12-15T13:37:59.619Z</time>
      </trkpt>
      <trkpt lat="47.53455" lon="-1.96141">
        <ele>44.858951</ele>
        <time>2022-12-15T13:38:02.613Z</time>
      </trkpt>
      <trkpt lat="47.53446" lon="-1.96137">
        <ele>44.903952</ele>
        <time>2022-12-15T13:38:04.610Z</time>
      </trkpt>
      <trkpt lat="47.53433" lon="-1.96132">
        <ele>44.966818</ele>
        <time>2022-12-15T13:38:07.620Z</time>
      </trkpt>
      <trkpt lat="47.53424" lon="-1.96128">
        <ele>45.013462</ele>
        <time>2022-12-15T13:38:09.604Z</time>
      </trkpt>
      <trkpt lat="47.53411" lon="-1.96122">
        <ele>45.074846</ele>
        <time>2022-12-15T13:38:12.606Z</time>
      </trkpt>
      <trkpt lat="47.53399" lon="-1.96118">
        <ele>45.136924</ele>
        <time>2022-12-15T13:38:15.616Z</time>
      </trkpt>
      <trkpt lat="47.53386" lon="-1.96113">
        <ele>45.197862</ele>
        <time>2022-12-15T13:38:18.607Z</time>
      </trkpt>
      <trkpt lat="47.53374" lon="-1.96108">
        <ele>45.284187</ele>
        <time>2022-12-15T13:38:21.620Z</time>
      </trkpt>
      <trkpt lat="47.53362" lon="-1.96102">
        <ele>45.381316</ele>
        <time>2022-12-15T13:38:24.618Z</time>
      </trkpt>
      <trkpt lat="47.53349" lon="-1.96096">
        <ele>45.479949</ele>
        <time>2022-12-15T13:38:27.619Z</time>
      </trkpt>
      <trkpt lat="47.53338" lon="-1.96091">
        <ele>45.570217</ele>
        <time>2022-12-15T13:38:30.620Z</time>
      </trkpt>
      <trkpt lat="47.53328" lon="-1.96087">
        <ele>45.649586</ele>
        <time>2022-12-15T13:38:33.599Z</time>
      </trkpt>
      <trkpt lat="47.53316" lon="-1.96083">
        <ele>45.740539</ele>
        <time>2022-12-15T13:38:36.619Z</time>
      </trkpt>
      <trkpt lat="47.53303" lon="-1.96078">
        <ele>45.843574</ele>
        <time>2022-12-15T13:38:39.617Z</time>
      </trkpt>
      <trkpt lat="47.5329" lon="-1.96073">
        <ele>45.945536</ele>
        <time>2022-12-15T13:38:42.596Z</time>
      </trkpt>
      <trkpt lat="47.53278" lon="-1.96067">
        <ele>46.04699</ele>
        <time>2022-12-15T13:38:45.608Z</time>
      </trkpt>
      <trkpt lat="47.53265" lon="-1.96061">
        <ele>46.142808</ele>
        <time>2022-12-15T13:38:48.620Z</time>
      </trkpt>
      <trkpt lat="47.53257" lon="-1.96058">
        <ele>46.211472</ele>
        <time>2022-12-15T13:38:50.622Z</time>
      </trkpt>
      <trkpt lat="47.53248" lon="-1.96054">
        <ele>46.283484</ele>
        <time>2022-12-15T13:38:52.603Z</time>
      </trkpt>
      <trkpt lat="47.53238" lon="-1.96051">
        <ele>46.356443</ele>
        <time>2022-12-15T13:38:54.621Z</time>
      </trkpt>
      <trkpt lat="47.5323" lon="-1.96047">
        <ele>46.424946</ele>
        <time>2022-12-15T13:38:56.609Z</time>
      </trkpt>
      <trkpt lat="47.53217" lon="-1.96041">
        <ele>46.52793</ele>
        <time>2022-12-15T13:38:59.618Z</time>
      </trkpt>
      <trkpt lat="47.53205" lon="-1.96035">
        <ele>46.569742</ele>
        <time>2022-12-15T13:39:02.607Z</time>
      </trkpt>
      <trkpt lat="47.53195" lon="-1.96029">
        <ele>46.52186</ele>
        <time>2022-12-15T13:39:05.620Z</time>
      </trkpt>
      <trkpt lat="47.53184" lon="-1.96022">
        <ele>46.470616</ele>
        <time>2022-12-15T13:39:08.605Z</time>
      </trkpt>
      <trkpt lat="47.53175" lon="-1.96017">
        <ele>46.428303</ele>
        <time>2022-12-15T13:39:11.616Z</time>
      </trkpt>
      <trkpt lat="47.53164" lon="-1.96011">
        <ele>46.377288</ele>
        <time>2022-12-15T13:39:14.614Z</time>
      </trkpt>
      <trkpt lat="47.53153" lon="-1.96003">
        <ele>46.322945</ele>
        <time>2022-12-15T13:39:17.621Z</time>
      </trkpt>
      <trkpt lat="47.53144" lon="-1.95991">
        <ele>46.267548</ele>
        <time>2022-12-15T13:39:20.606Z</time>
      </trkpt>
      <trkpt lat="47.53134" lon="-1.95981">
        <ele>46.215554</ele>
        <time>2022-12-15T13:39:23.599Z</time>
      </trkpt>
      <trkpt lat="47.53124" lon="-1.95977">
        <ele>46.168731</ele>
        <time>2022-12-15T13:39:26.606Z</time>
      </trkpt>
      <trkpt lat="47.53114" lon="-1.95978">
        <ele>46.124154</ele>
        <time>2022-12-15T13:39:29.602Z</time>
      </trkpt>
      <trkpt lat="47.53103" lon="-1.95977">
        <ele>46.079503</ele>
        <time>2022-12-15T13:39:33.601Z</time>
      </trkpt>
      <trkpt lat="47.53091" lon="-1.95975">
        <ele>46.025391</ele>
        <time>2022-12-15T13:39:37.608Z</time>
      </trkpt>
      <trkpt lat="47.53081" lon="-1.95974">
        <ele>45.978959</ele>
        <time>2022-12-15T13:39:40.619Z</time>
      </trkpt>
      <trkpt lat="47.53071" lon="-1.95975">
        <ele>45.935399</ele>
        <time>2022-12-15T13:39:42.620Z</time>
      </trkpt>
      <trkpt lat="47.53059" lon="-1.9598">
        <ele>45.879214</ele>
        <time>2022-12-15T13:39:45.601Z</time>
      </trkpt>
      <trkpt lat="47.53046" lon="-1.95986">
        <ele>45.82059</ele>
        <time>2022-12-15T13:39:48.596Z</time>
      </trkpt>
      <trkpt lat="47.53034" lon="-1.95995">
        <ele>45.860621</ele>
        <time>2022-12-15T13:39:51.602Z</time>
      </trkpt>
      <trkpt lat="47.53024" lon="-1.96005">
        <ele>45.961741</ele>
        <time>2022-12-15T13:39:54.609Z</time>
      </trkpt>
      <trkpt lat="47.53015" lon="-1.96016">
        <ele>46.06257</ele>
        <time>2022-12-15T13:39:57.608Z</time>
      </trkpt>
      <trkpt lat="47.53006" lon="-1.96028">
        <ele>46.162164</ele>
        <time>2022-12-15T13:40:00.607Z</time>
      </trkpt>
      <trkpt lat="47.52997" lon="-1.96039">
        <ele>46.260846</ele>
        <time>2022-12-15T13:40:03.597Z</time>
      </trkpt>
      <trkpt lat="47.52986" lon="-1.96051">
        <ele>46.371747</ele>
        <time>2022-12-15T13:40:06.597Z</time>
      </trkpt>
      <trkpt lat="47.52979" lon="-1.96061">
        <ele>46.457345</ele>
        <time>2022-12-15T13:40:09.600Z</time>
      </trkpt>
      <trkpt lat="47.52969" lon="-1.96073">
        <ele>46.564591</ele>
        <time>2022-12-15T13:40:12.620Z</time>
      </trkpt>
      <trkpt lat="47.52958" lon="-1.96085">
        <ele>46.677095</ele>
        <time>2022-12-15T13:40:15.621Z</time>
      </trkpt>
      <trkpt lat="47.52948" lon="-1.96098">
        <ele>46.7845</ele>
        <time>2022-12-15T13:40:18.617Z</time>
      </trkpt>
      <trkpt lat="47.52938" lon="-1.96108">
        <ele>46.883952</ele>
        <time>2022-12-15T13:40:21.619Z</time>
      </trkpt>
      <trkpt lat="47.5293" lon="-1.96119">
        <ele>46.978768</ele>
        <time>2022-12-15T13:40:24.611Z</time>
      </trkpt>
      <trkpt lat="47.52921" lon="-1.9613">
        <ele>47.075317</ele>
        <time>2022-12-15T13:40:27.609Z</time>
      </trkpt>
      <trkpt lat="47.5291" lon="-1.96143">
        <ele>47.187927</ele>
        <time>2022-12-15T13:40:30.619Z</time>
      </trkpt>
      <trkpt lat="47.52903" lon="-1.96152">
        <ele>47.264074</ele>
        <time>2022-12-15T13:40:32.618Z</time>
      </trkpt>
      <trkpt lat="47.52893" lon="-1.96164">
        <ele>47.124489</ele>
        <time>2022-12-15T13:40:35.613Z</time>
      </trkpt>
      <trkpt lat="47.52882" lon="-1.96176">
        <ele>46.886591</ele>
        <time>2022-12-15T13:40:38.606Z</time>
      </trkpt>
      <trkpt lat="47.52874" lon="-1.96183">
        <ele>46.705638</ele>
        <time>2022-12-15T13:40:40.609Z</time>
      </trkpt>
      <trkpt lat="47.52865" lon="-1.96189">
        <ele>46.539226</ele>
        <time>2022-12-15T13:40:42.607Z</time>
      </trkpt>
      <trkpt lat="47.52856" lon="-1.96193">
        <ele>46.363827</ele>
        <time>2022-12-15T13:40:44.601Z</time>
      </trkpt>
      <trkpt lat="47.52847" lon="-1.96198">
        <ele>46.19171</ele>
        <time>2022-12-15T13:40:46.607Z</time>
      </trkpt>
      <trkpt lat="47.52833" lon="-1.96206">
        <ele>45.933849</ele>
        <time>2022-12-15T13:40:49.621Z</time>
      </trkpt>
      <trkpt lat="47.52821" lon="-1.96212">
        <ele>45.696772</ele>
        <time>2022-12-15T13:40:52.609Z</time>
      </trkpt>
      <trkpt lat="47.52808" lon="-1.96218">
        <ele>45.454013</ele>
        <time>2022-12-15T13:40:55.606Z</time>
      </trkpt>
      <trkpt lat="47.52799" lon="-1.96222">
        <ele>45.284356</ele>
        <time>2022-12-15T13:40:57.619Z</time>
      </trkpt>
      <trkpt lat="47.5279" lon="-1.96226">
        <ele>45.123534</ele>
        <time>2022-12-15T13:40:59.621Z</time>
      </trkpt>
      <trkpt lat="47.52778" lon="-1.9623">
        <ele>44.899114</ele>
        <time>2022-12-15T13:41:02.600Z</time>
      </trkpt>
      <trkpt lat="47.52768" lon="-1.96234">
        <ele>44.710714</ele>
        <time>2022-12-15T13:41:05.621Z</time>
      </trkpt>
      <trkpt lat="47.52759" lon="-1.96236">
        <ele>44.545097</ele>
        <time>2022-12-15T13:41:07.601Z</time>
      </trkpt>
      <trkpt lat="47.5275" lon="-1.96239">
        <ele>44.383871</ele>
        <time>2022-12-15T13:41:09.600Z</time>
      </trkpt>
      <trkpt lat="47.52741" lon="-1.96242">
        <ele>44.221125</ele>
        <time>2022-12-15T13:41:11.613Z</time>
      </trkpt>
      <trkpt lat="47.52732" lon="-1.96244">
        <ele>44.064617</ele>
        <time>2022-12-15T13:41:13.599Z</time>
      </trkpt>
      <trkpt lat="47.5272" lon="-1.96248">
        <ele>43.975392</ele>
        <time>2022-12-15T13:41:16.603Z</time>
      </trkpt>
      <trkpt lat="47.52709" lon="-1.96249">
        <ele>43.892712</ele>
        <time>2022-12-15T13:41:19.601Z</time>
      </trkpt>
      <trkpt lat="47.52699" lon="-1.96251">
        <ele>43.822333</ele>
        <time>2022-12-15T13:41:21.606Z</time>
      </trkpt>
      <trkpt lat="47.5269" lon="-1.96252">
        <ele>43.75442</ele>
        <time>2022-12-15T13:41:23.599Z</time>
      </trkpt>
      <trkpt lat="47.52681" lon="-1.96253">
        <ele>43.687335</ele>
        <time>2022-12-15T13:41:25.603Z</time>
      </trkpt>
      <trkpt lat="47.52672" lon="-1.96254">
        <ele>43.620977</ele>
        <time>2022-12-15T13:41:27.604Z</time>
      </trkpt>
      <trkpt lat="47.52663" lon="-1.96255">
        <ele>43.555279</ele>
        <time>2022-12-15T13:41:29.611Z</time>
      </trkpt>
      <trkpt lat="47.5265" lon="-1.96255">
        <ele>43.459875</ele>
        <time>2022-12-15T13:41:32.600Z</time>
      </trkpt>
      <trkpt lat="47.52636" lon="-1.96255">
        <ele>43.363029</ele>
        <time>2022-12-15T13:41:35.616Z</time>
      </trkpt>
      <trkpt lat="47.52623" lon="-1.96254">
        <ele>43.268214</ele>
        <time>2022-12-15T13:41:38.613Z</time>
      </trkpt>
      <trkpt lat="47.52611" lon="-1.96252">
        <ele>43.178751</ele>
        <time>2022-12-15T13:41:41.613Z</time>
      </trkpt>
      <trkpt lat="47.52602" lon="-1.96249">
        <ele>43.110993</ele>
        <time>2022-12-15T13:41:43.602Z</time>
      </trkpt>
      <trkpt lat="47.52591" lon="-1.96242">
        <ele>43.023273</ele>
        <time>2022-12-15T13:41:46.606Z</time>
      </trkpt>
      <trkpt lat="47.52583" lon="-1.96236">
        <ele>42.957084</ele>
        <time>2022-12-15T13:41:48.603Z</time>
      </trkpt>
      <trkpt lat="47.52572" lon="-1.96227">
        <ele>42.867771</ele>
        <time>2022-12-15T13:41:51.624Z</time>
      </trkpt>
      <trkpt lat="47.52563" lon="-1.96217">
        <ele>42.78409</ele>
        <time>2022-12-15T13:41:54.619Z</time>
      </trkpt>
      <trkpt lat="47.52554" lon="-1.96205">
        <ele>42.830816</ele>
        <time>2022-12-15T13:41:57.619Z</time>
      </trkpt>
      <trkpt lat="47.52545" lon="-1.96192">
        <ele>42.942357</ele>
        <time>2022-12-15T13:42:00.619Z</time>
      </trkpt>
      <trkpt lat="47.52536" lon="-1.96178">
        <ele>43.051789</ele>
        <time>2022-12-15T13:42:03.600Z</time>
      </trkpt>
      <trkpt lat="47.52528" lon="-1.96164">
        <ele>43.159137</ele>
        <time>2022-12-15T13:42:06.623Z</time>
      </trkpt>
      <trkpt lat="47.52521" lon="-1.96149">
        <ele>43.265685</ele>
        <time>2022-12-15T13:42:09.618Z</time>
      </trkpt>
      <trkpt lat="47.52514" lon="-1.96134">
        <ele>43.373936</ele>
        <time>2022-12-15T13:42:12.618Z</time>
      </trkpt>
      <trkpt lat="47.52507" lon="-1.96117">
        <ele>43.48902</ele>
        <time>2022-12-15T13:42:15.619Z</time>
      </trkpt>
      <trkpt lat="47.525" lon="-1.96101">
        <ele>43.599185</ele>
        <time>2022-12-15T13:42:18.617Z</time>
      </trkpt>
      <trkpt lat="47.52494" lon="-1.9609">
        <ele>43.678562</ele>
        <time>2022-12-15T13:42:20.619Z</time>
      </trkpt>
      <trkpt lat="47.52489" lon="-1.96078">
        <ele>43.761791</ele>
        <time>2022-12-15T13:42:22.616Z</time>
      </trkpt>
      <trkpt lat="47.52484" lon="-1.96066">
        <ele>43.845128</ele>
        <time>2022-12-15T13:42:24.618Z</time>
      </trkpt>
      <trkpt lat="47.52479" lon="-1.96054">
        <ele>43.926943</ele>
        <time>2022-12-15T13:42:26.617Z</time>
      </trkpt>
      <trkpt lat="47.52474" lon="-1.96042">
        <ele>44.010198</ele>
        <time>2022-12-15T13:42:28.605Z</time>
      </trkpt>
      <trkpt lat="47.52469" lon="-1.96031">
        <ele>44.088152</ele>
        <time>2022-12-15T13:42:30.620Z</time>
      </trkpt>
      <trkpt lat="47.52464" lon="-1.96019">
        <ele>44.168177</ele>
        <time>2022-12-15T13:42:32.605Z</time>
      </trkpt>
      <trkpt lat="47.52458" lon="-1.96003">
        <ele>44.27451</ele>
        <time>2022-12-15T13:42:35.622Z</time>
      </trkpt>
      <trkpt lat="47.52453" lon="-1.95991">
        <ele>44.338573</ele>
        <time>2022-12-15T13:42:37.619Z</time>
      </trkpt>
      <trkpt lat="47.52447" lon="-1.95977">
        <ele>44.403061</ele>
        <time>2022-12-15T13:42:40.626Z</time>
      </trkpt>
      <trkpt lat="47.5244" lon="-1.95962">
        <ele>44.468151</ele>
        <time>2022-12-15T13:42:43.599Z</time>
      </trkpt>
      <trkpt lat="47.52434" lon="-1.95948">
        <ele>44.533877</ele>
        <time>2022-12-15T13:42:46.615Z</time>
      </trkpt>
      <trkpt lat="47.52426" lon="-1.95933">
        <ele>44.606293</ele>
        <time>2022-12-15T13:42:49.600Z</time>
      </trkpt>
      <trkpt lat="47.52421" lon="-1.9592">
        <ele>44.665405</ele>
        <time>2022-12-15T13:42:51.620Z</time>
      </trkpt>
      <trkpt lat="47.52414" lon="-1.95902">
        <ele>44.74259</ele>
        <time>2022-12-15T13:42:54.608Z</time>
      </trkpt>
      <trkpt lat="47.52408" lon="-1.95891">
        <ele>44.794774</ele>
        <time>2022-12-15T13:42:56.610Z</time>
      </trkpt>
      <trkpt lat="47.52401" lon="-1.95874">
        <ele>44.871379</ele>
        <time>2022-12-15T13:42:59.618Z</time>
      </trkpt>
      <trkpt lat="47.52396" lon="-1.95863">
        <ele>44.923206</ele>
        <time>2022-12-15T13:43:01.604Z</time>
      </trkpt>
      <trkpt lat="47.52391" lon="-1.9585">
        <ele>44.979804</ele>
        <time>2022-12-15T13:43:03.602Z</time>
      </trkpt>
      <trkpt lat="47.52386" lon="-1.95838">
        <ele>45.032137</ele>
        <time>2022-12-15T13:43:05.620Z</time>
      </trkpt>
      <trkpt lat="47.52381" lon="-1.95827">
        <ele>45.083644</ele>
        <time>2022-12-15T13:43:07.621Z</time>
      </trkpt>
      <trkpt lat="47.52374" lon="-1.95811">
        <ele>45.154437</ele>
        <time>2022-12-15T13:43:10.625Z</time>
      </trkpt>
      <trkpt lat="47.52367" lon="-1.95796">
        <ele>45.225538</ele>
        <time>2022-12-15T13:43:13.600Z</time>
      </trkpt>
      <trkpt lat="47.5236" lon="-1.95781">
        <ele>45.295066</ele>
        <time>2022-12-15T13:43:16.602Z</time>
      </trkpt>
      <trkpt lat="47.52353" lon="-1.95767">
        <ele>45.268043</ele>
        <time>2022-12-15T13:43:19.623Z</time>
      </trkpt>
      <trkpt lat="47.52346" lon="-1.95753">
        <ele>45.180923</ele>
        <time>2022-12-15T13:43:22.619Z</time>
      </trkpt>
      <trkpt lat="47.52339" lon="-1.9574">
        <ele>45.096272</ele>
        <time>2022-12-15T13:43:26.620Z</time>
      </trkpt>
      <trkpt lat="47.52332" lon="-1.95728">
        <ele>45.018786</ele>
        <time>2022-12-15T13:43:29.617Z</time>
      </trkpt>
      <trkpt lat="47.52325" lon="-1.95716">
        <ele>44.939363</ele>
        <time>2022-12-15T13:43:32.617Z</time>
      </trkpt>
      <trkpt lat="47.52319" lon="-1.95702">
        <ele>44.853954</ele>
        <time>2022-12-15T13:43:35.625Z</time>
      </trkpt>
      <trkpt lat="47.52311" lon="-1.95686">
        <ele>44.759041</ele>
        <time>2022-12-15T13:43:38.620Z</time>
      </trkpt>
      <trkpt lat="47.52304" lon="-1.95671">
        <ele>44.663269</ele>
        <time>2022-12-15T13:43:41.614Z</time>
      </trkpt>
      <trkpt lat="47.52298" lon="-1.95655">
        <ele>44.570695</ele>
        <time>2022-12-15T13:43:44.616Z</time>
      </trkpt>
      <trkpt lat="47.52293" lon="-1.95639">
        <ele>44.484475</ele>
        <time>2022-12-15T13:43:47.608Z</time>
      </trkpt>
      <trkpt lat="47.52289" lon="-1.95622">
        <ele>44.397754</ele>
        <time>2022-12-15T13:43:50.603Z</time>
      </trkpt>
      <trkpt lat="47.52287" lon="-1.95606">
        <ele>44.312659</ele>
        <time>2022-12-15T13:43:53.602Z</time>
      </trkpt>
      <trkpt lat="47.52285" lon="-1.95588">
        <ele>44.222222</ele>
        <time>2022-12-15T13:43:56.621Z</time>
      </trkpt>
      <trkpt lat="47.52284" lon="-1.95572">
        <ele>44.142534</ele>
        <time>2022-12-15T13:43:59.603Z</time>
      </trkpt>
      <trkpt lat="47.52284" lon="-1.95556">
        <ele>44.062014</ele>
        <time>2022-12-15T13:44:02.621Z</time>
      </trkpt>
      <trkpt lat="47.52284" lon="-1.9554">
        <ele>43.994328</ele>
        <time>2022-12-15T13:44:05.621Z</time>
      </trkpt>
      <trkpt lat="47.52285" lon="-1.9552">
        <ele>44.05394</ele>
        <time>2022-12-15T13:44:08.618Z</time>
      </trkpt>
      <trkpt lat="47.52287" lon="-1.95502">
        <ele>44.110828</ele>
        <time>2022-12-15T13:44:11.614Z</time>
      </trkpt>
      <trkpt lat="47.52288" lon="-1.95486">
        <ele>44.161543</ele>
        <time>2022-12-15T13:44:14.595Z</time>
      </trkpt>
      <trkpt lat="47.52292" lon="-1.95467">
        <ele>44.221291</ele>
        <time>2022-12-15T13:44:17.622Z</time>
      </trkpt>
      <trkpt lat="47.52296" lon="-1.95455">
        <ele>44.262625</ele>
        <time>2022-12-15T13:44:19.601Z</time>
      </trkpt>
      <trkpt lat="47.52301" lon="-1.9544">
        <ele>44.314674</ele>
        <time>2022-12-15T13:44:22.600Z</time>
      </trkpt>
      <trkpt lat="47.52306" lon="-1.95426">
        <ele>44.363505</ele>
        <time>2022-12-15T13:44:25.623Z</time>
      </trkpt>
      <trkpt lat="47.5231" lon="-1.95412">
        <ele>44.408026</ele>
        <time>2022-12-15T13:44:28.628Z</time>
      </trkpt>
      <trkpt lat="47.52315" lon="-1.95398">
        <ele>44.45819</ele>
        <time>2022-12-15T13:44:31.608Z</time>
      </trkpt>
      <trkpt lat="47.52322" lon="-1.95385">
        <ele>44.507787</ele>
        <time>2022-12-15T13:44:34.602Z</time>
      </trkpt>
      <trkpt lat="47.52327" lon="-1.95373">
        <ele>44.552021</ele>
        <time>2022-12-15T13:44:37.617Z</time>
      </trkpt>
      <trkpt lat="47.52333" lon="-1.95358">
        <ele>44.605004</ele>
        <time>2022-12-15T13:44:40.621Z</time>
      </trkpt>
      <trkpt lat="47.52339" lon="-1.95344">
        <ele>44.658402</ele>
        <time>2022-12-15T13:44:43.601Z</time>
      </trkpt>
      <trkpt lat="47.52347" lon="-1.95333">
        <ele>44.708368</ele>
        <time>2022-12-15T13:44:46.601Z</time>
      </trkpt>
      <trkpt lat="47.52357" lon="-1.95325">
        <ele>44.75881</ele>
        <time>2022-12-15T13:44:50.602Z</time>
      </trkpt>
      <trkpt lat="47.52367" lon="-1.95316">
        <ele>44.81529</ele>
        <time>2022-12-15T13:44:54.621Z</time>
      </trkpt>
      <trkpt lat="47.52375" lon="-1.95306">
        <ele>44.951923</ele>
        <time>2022-12-15T13:44:58.606Z</time>
      </trkpt>
      <trkpt lat="47.52377" lon="-1.9529">
        <ele>45.08914</ele>
        <time>2022-12-15T13:45:02.608Z</time>
      </trkpt>
      <trkpt lat="47.52378" lon="-1.95277">
        <ele>45.204559</ele>
        <time>2022-12-15T13:45:05.612Z</time>
      </trkpt>
      <trkpt lat="47.52381" lon="-1.95264">
        <ele>45.324594</ele>
        <time>2022-12-15T13:45:08.601Z</time>
      </trkpt>
      <trkpt lat="47.52386" lon="-1.95252">
        <ele>45.445698</ele>
        <time>2022-12-15T13:45:12.606Z</time>
      </trkpt>
      <trkpt lat="47.52382" lon="-1.95265">
        <ele>45.572127</ele>
        <time>2022-12-15T13:45:54.614Z</time>
      </trkpt>
      <trkpt lat="47.52382" lon="-1.95281">
        <ele>45.711471</ele>
        <time>2022-12-15T13:45:59.618Z</time>
      </trkpt>
      <trkpt lat="47.52391" lon="-1.95287">
        <ele>45.828989</ele>
        <time>2022-12-15T13:46:04.610Z</time>
      </trkpt>
      <trkpt lat="47.52397" lon="-1.95277">
        <ele>45.943458</ele>
        <time>2022-12-15T13:46:08.599Z</time>
      </trkpt>
      <trkpt lat="47.52404" lon="-1.95266">
        <ele>46.071775</ele>
        <time>2022-12-15T13:46:13.603Z</time>
      </trkpt>
      <trkpt lat="47.52411" lon="-1.95257">
        <ele>46.192585</ele>
        <time>2022-12-15T13:46:18.609Z</time>
      </trkpt>
      <trkpt lat="47.52419" lon="-1.9525">
        <ele>46.316177</ele>
        <time>2022-12-15T13:46:23.602Z</time>
      </trkpt>
      <trkpt lat="47.52417" lon="-1.95239">
        <ele>46.418749</ele>
        <time>2022-12-15T13:47:28.274Z</time>
      </trkpt>
      <trkpt lat="47.5242" lon="-1.95245">
        <ele>46.483634</ele>
        <time>2022-12-15T14:08:57.343Z</time>
      </trkpt>
      <trkpt lat="47.5242" lon="-1.95245">
        <ele>46.483634</ele>
        <time>2022-12-15T14:08:57.610Z</time>
      </trkpt>
      <trkpt lat="47.52408" lon="-1.95264">
        <ele>46.699593</ele>
        <time>2022-12-15T14:09:32.623Z</time>
      </trkpt>
      <trkpt lat="47.524" lon="-1.95273">
        <ele>46.829949</ele>
        <time>2022-12-15T14:09:35.615Z</time>
      </trkpt>
      <trkpt lat="47.52393" lon="-1.95282">
        <ele>46.952123</ele>
        <time>2022-12-15T14:09:38.627Z</time>
      </trkpt>
      <trkpt lat="47.52383" lon="-1.9528">
        <ele>47.077828</ele>
        <time>2022-12-15T14:09:43.618Z</time>
      </trkpt>
      <trkpt lat="47.52378" lon="-1.95267">
        <ele>46.829687</ele>
        <time>2022-12-15T14:09:49.613Z</time>
      </trkpt>
      <trkpt lat="47.52383" lon="-1.95254">
        <ele>46.50224</ele>
        <time>2022-12-15T14:09:55.610Z</time>
      </trkpt>
      <trkpt lat="47.5239" lon="-1.95242">
        <ele>46.17601</ele>
        <time>2022-12-15T14:10:00.624Z</time>
      </trkpt>
      <trkpt lat="47.52395" lon="-1.95231">
        <ele>45.888139</ele>
        <time>2022-12-15T14:10:17.611Z</time>
      </trkpt>
      <trkpt lat="47.52399" lon="-1.95218">
        <ele>45.588329</ele>
        <time>2022-12-15T14:10:32.610Z</time>
      </trkpt>
      <trkpt lat="47.52406" lon="-1.95209">
        <ele>45.293567</ele>
        <time>2022-12-15T14:10:51.613Z</time>
      </trkpt>
      <trkpt lat="47.52413" lon="-1.95201">
        <ele>44.995541</ele>
        <time>2022-12-15T14:11:04.613Z</time>
      </trkpt>
      <trkpt lat="47.52422" lon="-1.95191">
        <ele>44.660392</ele>
        <time>2022-12-15T14:11:11.646Z</time>
      </trkpt>
      <trkpt lat="47.52428" lon="-1.95181">
        <ele>44.360255</ele>
        <time>2022-12-15T14:11:15.613Z</time>
      </trkpt>
      <trkpt lat="47.52437" lon="-1.95177">
        <ele>44.06247</ele>
        <time>2022-12-15T14:11:19.609Z</time>
      </trkpt>
      <trkpt lat="47.52447" lon="-1.9518">
        <ele>43.733778</ele>
        <time>2022-12-15T14:11:25.615Z</time>
      </trkpt>
      <trkpt lat="47.52457" lon="-1.9518">
        <ele>43.429888</ele>
        <time>2022-12-15T14:11:30.611Z</time>
      </trkpt>
      <trkpt lat="47.52468" lon="-1.95176">
        <ele>43.069005</ele>
        <time>2022-12-15T14:11:35.623Z</time>
      </trkpt>
      <trkpt lat="47.52478" lon="-1.95172">
        <ele>42.72403</ele>
        <time>2022-12-15T14:11:40.618Z</time>
      </trkpt>
      <trkpt lat="47.52488" lon="-1.95165">
        <ele>42.364013</ele>
        <time>2022-12-15T14:11:44.625Z</time>
      </trkpt>
      <trkpt lat="47.52497" lon="-1.95157">
        <ele>42.040685</ele>
        <time>2022-12-15T14:11:47.626Z</time>
      </trkpt>
      <trkpt lat="47.52505" lon="-1.95148">
        <ele>41.717146</ele>
        <time>2022-12-15T14:11:50.624Z</time>
      </trkpt>
      <trkpt lat="47.52514" lon="-1.95139">
        <ele>41.376921</ele>
        <time>2022-12-15T14:11:53.623Z</time>
      </trkpt>
      <trkpt lat="47.52521" lon="-1.95128">
        <ele>41.318822</ele>
        <time>2022-12-15T14:11:56.621Z</time>
      </trkpt>
      <trkpt lat="47.52527" lon="-1.95117">
        <ele>41.284878</ele>
        <time>2022-12-15T14:11:59.614Z</time>
      </trkpt>
      <trkpt lat="47.52533" lon="-1.95104">
        <ele>41.25085</ele>
        <time>2022-12-15T14:12:02.629Z</time>
      </trkpt>
      <trkpt lat="47.52536" lon="-1.95089">
        <ele>41.214602</ele>
        <time>2022-12-15T14:12:05.616Z</time>
      </trkpt>
      <trkpt lat="47.52539" lon="-1.95074">
        <ele>41.177448</ele>
        <time>2022-12-15T14:12:08.606Z</time>
      </trkpt>
      <trkpt lat="47.52541" lon="-1.95059">
        <ele>41.142507</ele>
        <time>2022-12-15T14:12:11.631Z</time>
      </trkpt>
      <trkpt lat="47.52542" lon="-1.95043">
        <ele>41.105352</ele>
        <time>2022-12-15T14:12:14.614Z</time>
      </trkpt>
      <trkpt lat="47.52541" lon="-1.95026">
        <ele>41.066106</ele>
        <time>2022-12-15T14:12:17.608Z</time>
      </trkpt>
      <trkpt lat="47.52539" lon="-1.95009">
        <ele>41.026506</ele>
        <time>2022-12-15T14:12:20.630Z</time>
      </trkpt>
      <trkpt lat="47.52537" lon="-1.94991">
        <ele>40.985381</ele>
        <time>2022-12-15T14:12:23.625Z</time>
      </trkpt>
      <trkpt lat="47.52535" lon="-1.94973">
        <ele>40.942717</ele>
        <time>2022-12-15T14:12:26.629Z</time>
      </trkpt>
      <trkpt lat="47.52533" lon="-1.94955">
        <ele>40.900227</ele>
        <time>2022-12-15T14:12:29.609Z</time>
      </trkpt>
      <trkpt lat="47.52531" lon="-1.94937">
        <ele>40.859556</ele>
        <time>2022-12-15T14:12:32.629Z</time>
      </trkpt>
      <trkpt lat="47.52529" lon="-1.94918">
        <ele>40.814385</ele>
        <time>2022-12-15T14:12:35.609Z</time>
      </trkpt>
      <trkpt lat="47.52527" lon="-1.94899">
        <ele>40.769679</ele>
        <time>2022-12-15T14:12:38.634Z</time>
      </trkpt>
      <trkpt lat="47.52525" lon="-1.94881">
        <ele>40.774005</ele>
        <time>2022-12-15T14:12:41.618Z</time>
      </trkpt>
      <trkpt lat="47.52523" lon="-1.94863">
        <ele>40.926109</ele>
        <time>2022-12-15T14:12:44.630Z</time>
      </trkpt>
      <trkpt lat="47.52521" lon="-1.94845">
        <ele>41.080604</ele>
        <time>2022-12-15T14:12:47.633Z</time>
      </trkpt>
      <trkpt lat="47.52519" lon="-1.94828">
        <ele>41.230383</ele>
        <time>2022-12-15T14:12:50.630Z</time>
      </trkpt>
      <trkpt lat="47.52517" lon="-1.9481">
        <ele>41.383551</ele>
        <time>2022-12-15T14:12:53.628Z</time>
      </trkpt>
      <trkpt lat="47.52514" lon="-1.94792">
        <ele>41.538158</ele>
        <time>2022-12-15T14:12:56.632Z</time>
      </trkpt>
      <trkpt lat="47.52512" lon="-1.94774">
        <ele>41.694437</ele>
        <time>2022-12-15T14:12:59.625Z</time>
      </trkpt>
      <trkpt lat="47.5251" lon="-1.94756">
        <ele>41.850092</ele>
        <time>2022-12-15T14:13:02.621Z</time>
      </trkpt>
      <trkpt lat="47.52509" lon="-1.9474">
        <ele>41.985506</ele>
        <time>2022-12-15T14:13:05.624Z</time>
      </trkpt>
      <trkpt lat="47.52506" lon="-1.94724">
        <ele>42.12907</ele>
        <time>2022-12-15T14:13:08.629Z</time>
      </trkpt>
      <trkpt lat="47.52502" lon="-1.94707">
        <ele>42.282445</ele>
        <time>2022-12-15T14:13:11.623Z</time>
      </trkpt>
      <trkpt lat="47.52496" lon="-1.94691">
        <ele>42.441419</ele>
        <time>2022-12-15T14:13:14.607Z</time>
      </trkpt>
      <trkpt lat="47.52488" lon="-1.94676">
        <ele>42.599277</ele>
        <time>2022-12-15T14:13:17.610Z</time>
      </trkpt>
      <trkpt lat="47.5248" lon="-1.94661">
        <ele>42.755774</ele>
        <time>2022-12-15T14:13:20.618Z</time>
      </trkpt>
      <trkpt lat="47.52474" lon="-1.9465">
        <ele>42.884521</ele>
        <time>2022-12-15T14:13:23.629Z</time>
      </trkpt>
      <trkpt lat="47.52468" lon="-1.94638">
        <ele>43.009189</ele>
        <time>2022-12-15T14:13:26.627Z</time>
      </trkpt>
      <trkpt lat="47.52462" lon="-1.94628">
        <ele>43.130406</ele>
        <time>2022-12-15T14:13:29.624Z</time>
      </trkpt>
      <trkpt lat="47.52454" lon="-1.94616">
        <ele>43.275818</ele>
        <time>2022-12-15T14:13:32.609Z</time>
      </trkpt>
      <trkpt lat="47.52446" lon="-1.94604">
        <ele>43.423018</ele>
        <time>2022-12-15T14:13:35.626Z</time>
      </trkpt>
      <trkpt lat="47.52435" lon="-1.94592">
        <ele>43.597391</ele>
        <time>2022-12-15T14:13:38.618Z</time>
      </trkpt>
      <trkpt lat="47.52425" lon="-1.94583">
        <ele>43.760881</ele>
        <time>2022-12-15T14:13:41.625Z</time>
      </trkpt>
      <trkpt lat="47.52416" lon="-1.94576">
        <ele>43.884063</ele>
        <time>2022-12-15T14:13:44.625Z</time>
      </trkpt>
      <trkpt lat="47.52405" lon="-1.94567">
        <ele>44.052745</ele>
        <time>2022-12-15T14:13:47.632Z</time>
      </trkpt>
      <trkpt lat="47.52395" lon="-1.94559">
        <ele>44.197603</ele>
        <time>2022-12-15T14:13:50.633Z</time>
      </trkpt>
      <trkpt lat="47.52385" lon="-1.9455">
        <ele>44.349422</ele>
        <time>2022-12-15T14:13:53.641Z</time>
      </trkpt>
      <trkpt lat="47.52374" lon="-1.94543">
        <ele>44.51108</ele>
        <time>2022-12-15T14:13:56.626Z</time>
      </trkpt>
      <trkpt lat="47.52365" lon="-1.94536">
        <ele>44.635408</ele>
        <time>2022-12-15T14:13:58.625Z</time>
      </trkpt>
      <trkpt lat="47.52354" lon="-1.94527">
        <ele>44.797845</ele>
        <time>2022-12-15T14:14:00.625Z</time>
      </trkpt>
      <trkpt lat="47.52343" lon="-1.94518">
        <ele>44.968305</ele>
        <time>2022-12-15T14:14:03.632Z</time>
      </trkpt>
      <trkpt lat="47.52331" lon="-1.94511">
        <ele>45.129995</ele>
        <time>2022-12-15T14:14:06.628Z</time>
      </trkpt>
      <trkpt lat="47.52319" lon="-1.94505">
        <ele>45.304686</ele>
        <time>2022-12-15T14:14:09.612Z</time>
      </trkpt>
      <trkpt lat="47.52308" lon="-1.94501">
        <ele>45.444734</ele>
        <time>2022-12-15T14:14:11.626Z</time>
      </trkpt>
      <trkpt lat="47.52299" lon="-1.94498">
        <ele>45.556128</ele>
        <time>2022-12-15T14:14:13.624Z</time>
      </trkpt>
      <trkpt lat="47.5229" lon="-1.94496">
        <ele>45.668977</ele>
        <time>2022-12-15T14:14:15.626Z</time>
      </trkpt>
      <trkpt lat="47.5228" lon="-1.94494">
        <ele>45.790229</ele>
        <time>2022-12-15T14:14:17.618Z</time>
      </trkpt>
      <trkpt lat="47.5227" lon="-1.94491">
        <ele>45.917715</ele>
        <time>2022-12-15T14:14:19.621Z</time>
      </trkpt>
      <trkpt lat="47.52259" lon="-1.9449">
        <ele>46.059287</ele>
        <time>2022-12-15T14:14:21.626Z</time>
      </trkpt>
      <trkpt lat="47.52248" lon="-1.94486">
        <ele>46.189326</ele>
        <time>2022-12-15T14:14:23.632Z</time>
      </trkpt>
      <trkpt lat="47.52236" lon="-1.94484">
        <ele>46.35019</ele>
        <time>2022-12-15T14:14:26.629Z</time>
      </trkpt>
      <trkpt lat="47.52222" lon="-1.9448">
        <ele>46.515132</ele>
        <time>2022-12-15T14:14:29.627Z</time>
      </trkpt>
      <trkpt lat="47.5221" lon="-1.94477">
        <ele>46.675995</ele>
        <time>2022-12-15T14:14:32.618Z</time>
      </trkpt>
      <trkpt lat="47.522" lon="-1.94477">
        <ele>46.789782</ele>
        <time>2022-12-15T14:14:34.629Z</time>
      </trkpt>
      <trkpt lat="47.52191" lon="-1.94476">
        <ele>46.90724</ele>
        <time>2022-12-15T14:14:36.610Z</time>
      </trkpt>
      <trkpt lat="47.52182" lon="-1.94477">
        <ele>47.020944</ele>
        <time>2022-12-15T14:14:38.607Z</time>
      </trkpt>
      <trkpt lat="47.52172" lon="-1.94478">
        <ele>47.141288</ele>
        <time>2022-12-15T14:14:40.633Z</time>
      </trkpt>
      <trkpt lat="47.52158" lon="-1.9448">
        <ele>47.31156</ele>
        <time>2022-12-15T14:14:43.629Z</time>
      </trkpt>
      <trkpt lat="47.52148" lon="-1.94482">
        <ele>47.437257</ele>
        <time>2022-12-15T14:14:45.625Z</time>
      </trkpt>
      <trkpt lat="47.52139" lon="-1.94482">
        <ele>47.551044</ele>
        <time>2022-12-15T14:14:47.625Z</time>
      </trkpt>
      <trkpt lat="47.52127" lon="-1.94483">
        <ele>47.409819</ele>
        <time>2022-12-15T14:14:50.606Z</time>
      </trkpt>
      <trkpt lat="47.52117" lon="-1.94484">
        <ele>47.272005</ele>
        <time>2022-12-15T14:14:52.628Z</time>
      </trkpt>
      <trkpt lat="47.52103" lon="-1.94486">
        <ele>47.07426</ele>
        <time>2022-12-15T14:14:55.625Z</time>
      </trkpt>
      <trkpt lat="47.52093" lon="-1.94486">
        <ele>46.933954</ele>
        <time>2022-12-15T14:14:57.618Z</time>
      </trkpt>
      <trkpt lat="47.52084" lon="-1.94487">
        <ele>46.796463</ele>
        <time>2022-12-15T14:14:59.606Z</time>
      </trkpt>
      <trkpt lat="47.52074" lon="-1.94488">
        <ele>46.653022</ele>
        <time>2022-12-15T14:15:01.627Z</time>
      </trkpt>
      <trkpt lat="47.5206" lon="-1.94488">
        <ele>46.454186</ele>
        <time>2022-12-15T14:15:04.633Z</time>
      </trkpt>
      <trkpt lat="47.52047" lon="-1.94489">
        <ele>46.265243</ele>
        <time>2022-12-15T14:15:07.629Z</time>
      </trkpt>
      <trkpt lat="47.52033" lon="-1.94489">
        <ele>46.072012</ele>
        <time>2022-12-15T14:15:10.626Z</time>
      </trkpt>
      <trkpt lat="47.52022" lon="-1.94491">
        <ele>45.912654</ele>
        <time>2022-12-15T14:15:12.614Z</time>
      </trkpt>
      <trkpt lat="47.52012" lon="-1.94492">
        <ele>45.77064</ele>
        <time>2022-12-15T14:15:14.634Z</time>
      </trkpt>
      <trkpt lat="47.52002" lon="-1.94493">
        <ele>45.625901</ele>
        <time>2022-12-15T14:15:17.626Z</time>
      </trkpt>
      <trkpt lat="47.51989" lon="-1.94494">
        <ele>45.439779</ele>
        <time>2022-12-15T14:15:20.625Z</time>
      </trkpt>
      <trkpt lat="47.51978" lon="-1.94495">
        <ele>45.274867</ele>
        <time>2022-12-15T14:15:23.634Z</time>
      </trkpt>
      <trkpt lat="47.51966" lon="-1.94496">
        <ele>45.101092</ele>
        <time>2022-12-15T14:15:25.616Z</time>
      </trkpt>
      <trkpt lat="47.51956" lon="-1.94498">
        <ele>44.991956</ele>
        <time>2022-12-15T14:15:27.618Z</time>
      </trkpt>
      <trkpt lat="47.51945" lon="-1.94499">
        <ele>44.979837</ele>
        <time>2022-12-15T14:15:30.627Z</time>
      </trkpt>
      <trkpt lat="47.51933" lon="-1.94498">
        <ele>44.966452</ele>
        <time>2022-12-15T14:15:33.627Z</time>
      </trkpt>
      <trkpt lat="47.51922" lon="-1.94498">
        <ele>44.955354</ele>
        <time>2022-12-15T14:15:35.629Z</time>
      </trkpt>
      <trkpt lat="47.51912" lon="-1.94498">
        <ele>44.944584</ele>
        <time>2022-12-15T14:15:37.628Z</time>
      </trkpt>
      <trkpt lat="47.51902" lon="-1.94499">
        <ele>44.933699</ele>
        <time>2022-12-15T14:15:39.612Z</time>
      </trkpt>
      <trkpt lat="47.5189" lon="-1.94499">
        <ele>44.920645</ele>
        <time>2022-12-15T14:15:42.614Z</time>
      </trkpt>
      <trkpt lat="47.51879" lon="-1.94497">
        <ele>44.908216</ele>
        <time>2022-12-15T14:15:46.614Z</time>
      </trkpt>
      <trkpt lat="47.51869" lon="-1.94494">
        <ele>44.897145</ele>
        <time>2022-12-15T14:15:51.619Z</time>
      </trkpt>
      <trkpt lat="47.5186" lon="-1.94489">
        <ele>44.887167</ele>
        <time>2022-12-15T14:15:58.619Z</time>
      </trkpt>
      <trkpt lat="47.51851" lon="-1.94486">
        <ele>44.876443</ele>
        <time>2022-12-15T14:16:03.616Z</time>
      </trkpt>
      <trkpt lat="47.51839" lon="-1.94485">
        <ele>44.863712</ele>
        <time>2022-12-15T14:16:07.611Z</time>
      </trkpt>
      <trkpt lat="47.51828" lon="-1.94484">
        <ele>44.851735</ele>
        <time>2022-12-15T14:16:10.614Z</time>
      </trkpt>
      <trkpt lat="47.51816" lon="-1.94485">
        <ele>44.83846</ele>
        <time>2022-12-15T14:16:13.625Z</time>
      </trkpt>
      <trkpt lat="47.51805" lon="-1.94489">
        <ele>44.825699</ele>
        <time>2022-12-15T14:16:16.616Z</time>
      </trkpt>
      <trkpt lat="47.51793" lon="-1.94495">
        <ele>44.812</ele>
        <time>2022-12-15T14:16:19.612Z</time>
      </trkpt>
      <trkpt lat="47.51781" lon="-1.94504">
        <ele>44.790382</ele>
        <time>2022-12-15T14:16:22.619Z</time>
      </trkpt>
      <trkpt lat="47.51772" lon="-1.94511">
        <ele>44.6144</ele>
        <time>2022-12-15T14:16:25.619Z</time>
      </trkpt>
      <trkpt lat="47.51763" lon="-1.94523">
        <ele>44.4067</ele>
        <time>2022-12-15T14:16:28.616Z</time>
      </trkpt>
      <trkpt lat="47.51754" lon="-1.94535">
        <ele>44.21054</ele>
        <time>2022-12-15T14:16:31.629Z</time>
      </trkpt>
      <trkpt lat="47.51746" lon="-1.94547">
        <ele>44.017951</ele>
        <time>2022-12-15T14:16:34.616Z</time>
      </trkpt>
      <trkpt lat="47.51738" lon="-1.94561">
        <ele>43.817022</ele>
        <time>2022-12-15T14:16:37.625Z</time>
      </trkpt>
      <trkpt lat="47.5173" lon="-1.94574">
        <ele>43.6127</ele>
        <time>2022-12-15T14:16:40.628Z</time>
      </trkpt>
      <trkpt lat="47.51722" lon="-1.94588">
        <ele>43.410927</ele>
        <time>2022-12-15T14:16:43.639Z</time>
      </trkpt>
      <trkpt lat="47.51714" lon="-1.94601">
        <ele>43.203838</ele>
        <time>2022-12-15T14:16:46.628Z</time>
      </trkpt>
      <trkpt lat="47.51708" lon="-1.94611">
        <ele>43.053482</ele>
        <time>2022-12-15T14:16:48.629Z</time>
      </trkpt>
      <trkpt lat="47.51701" lon="-1.94621">
        <ele>42.8992</ele>
        <time>2022-12-15T14:16:50.628Z</time>
      </trkpt>
      <trkpt lat="47.51692" lon="-1.94635">
        <ele>42.681643</ele>
        <time>2022-12-15T14:16:53.629Z</time>
      </trkpt>
      <trkpt lat="47.51684" lon="-1.94646">
        <ele>42.498805</ele>
        <time>2022-12-15T14:16:55.624Z</time>
      </trkpt>
      <trkpt lat="47.51676" lon="-1.94654">
        <ele>42.339038</ele>
        <time>2022-12-15T14:16:57.607Z</time>
      </trkpt>
      <trkpt lat="47.51665" lon="-1.94662">
        <ele>42.133314</ele>
        <time>2022-12-15T14:17:00.604Z</time>
      </trkpt>
      <trkpt lat="47.51656" lon="-1.94669">
        <ele>41.966042</ele>
        <time>2022-12-15T14:17:03.617Z</time>
      </trkpt>
      <trkpt lat="47.51645" lon="-1.94673">
        <ele>41.820756</ele>
        <time>2022-12-15T14:17:06.616Z</time>
      </trkpt>
      <trkpt lat="47.51633" lon="-1.94673">
        <ele>42.020504</ele>
        <time>2022-12-15T14:17:09.626Z</time>
      </trkpt>
      <trkpt lat="47.51624" lon="-1.94673">
        <ele>42.187209</ele>
        <time>2022-12-15T14:17:11.628Z</time>
      </trkpt>
      <trkpt lat="47.51614" lon="-1.94674">
        <ele>42.350541</ele>
        <time>2022-12-15T14:17:13.631Z</time>
      </trkpt>
      <trkpt lat="47.51601" lon="-1.94675">
        <ele>42.578528</ele>
        <time>2022-12-15T14:17:16.621Z</time>
      </trkpt>
      <trkpt lat="47.5159" lon="-1.94676">
        <ele>42.77492</ele>
        <time>2022-12-15T14:17:19.623Z</time>
      </trkpt>
      <trkpt lat="47.51577" lon="-1.94677">
        <ele>42.992434</ele>
        <time>2022-12-15T14:17:22.623Z</time>
      </trkpt>
      <trkpt lat="47.51567" lon="-1.94677">
        <ele>43.164348</ele>
        <time>2022-12-15T14:17:24.619Z</time>
      </trkpt>
      <trkpt lat="47.51558" lon="-1.94678">
        <ele>43.334779</ele>
        <time>2022-12-15T14:17:26.627Z</time>
      </trkpt>
      <trkpt lat="47.51545" lon="-1.94678">
        <ele>43.546631</ele>
        <time>2022-12-15T14:17:29.624Z</time>
      </trkpt>
      <trkpt lat="47.51536" lon="-1.94678">
        <ele>43.709926</ele>
        <time>2022-12-15T14:17:31.621Z</time>
      </trkpt>
      <trkpt lat="47.51524" lon="-1.94679">
        <ele>43.923627</ele>
        <time>2022-12-15T14:17:34.637Z</time>
      </trkpt>
      <trkpt lat="47.51512" lon="-1.9468">
        <ele>44.125469</ele>
        <time>2022-12-15T14:17:37.624Z</time>
      </trkpt>
      <trkpt lat="47.515" lon="-1.94679">
        <ele>44.334174</ele>
        <time>2022-12-15T14:17:40.627Z</time>
      </trkpt>
      <trkpt lat="47.5149" lon="-1.94677">
        <ele>44.517721</ele>
        <time>2022-12-15T14:17:43.628Z</time>
      </trkpt>
      <trkpt lat="47.51477" lon="-1.94676">
        <ele>44.73677</ele>
        <time>2022-12-15T14:17:45.634Z</time>
      </trkpt>
      <trkpt lat="47.51467" lon="-1.94676">
        <ele>44.910479</ele>
        <time>2022-12-15T14:17:47.641Z</time>
      </trkpt>
      <trkpt lat="47.51455" lon="-1.94674">
        <ele>44.934627</ele>
        <time>2022-12-15T14:17:50.632Z</time>
      </trkpt>
      <trkpt lat="47.51446" lon="-1.94674">
        <ele>44.948389</ele>
        <time>2022-12-15T14:17:52.630Z</time>
      </trkpt>
      <trkpt lat="47.51432" lon="-1.94673">
        <ele>44.967583</ele>
        <time>2022-12-15T14:17:55.629Z</time>
      </trkpt>
      <trkpt lat="47.51423" lon="-1.94672">
        <ele>44.982117</ele>
        <time>2022-12-15T14:17:57.634Z</time>
      </trkpt>
      <trkpt lat="47.51414" lon="-1.94669">
        <ele>44.995505</ele>
        <time>2022-12-15T14:17:59.610Z</time>
      </trkpt>
      <trkpt lat="47.51402" lon="-1.94668">
        <ele>45.011932</ele>
        <time>2022-12-15T14:18:02.616Z</time>
      </trkpt>
      <trkpt lat="47.51393" lon="-1.94672">
        <ele>45.02598</ele>
        <time>2022-12-15T14:18:05.621Z</time>
      </trkpt>
      <trkpt lat="47.51382" lon="-1.94673">
        <ele>45.041523</ele>
        <time>2022-12-15T14:18:08.616Z</time>
      </trkpt>
      <trkpt lat="47.51371" lon="-1.94672">
        <ele>45.058373</ele>
        <time>2022-12-15T14:18:11.610Z</time>
      </trkpt>
      <trkpt lat="47.5136" lon="-1.94672">
        <ele>45.074624</ele>
        <time>2022-12-15T14:18:14.627Z</time>
      </trkpt>
      <trkpt lat="47.51347" lon="-1.94671">
        <ele>45.093369</ele>
        <time>2022-12-15T14:18:17.634Z</time>
      </trkpt>
      <trkpt lat="47.51334" lon="-1.94671">
        <ele>45.113134</ele>
        <time>2022-12-15T14:18:20.618Z</time>
      </trkpt>
      <trkpt lat="47.51322" lon="-1.9467">
        <ele>45.13014</ele>
        <time>2022-12-15T14:18:23.628Z</time>
      </trkpt>
      <trkpt lat="47.51308" lon="-1.94671">
        <ele>45.150351</ele>
        <time>2022-12-15T14:18:26.628Z</time>
      </trkpt>
      <trkpt lat="47.51298" lon="-1.9467">
        <ele>45.165485</ele>
        <time>2022-12-15T14:18:28.632Z</time>
      </trkpt>
      <trkpt lat="47.51286" lon="-1.94669">
        <ele>45.180282</ele>
        <time>2022-12-15T14:18:30.611Z</time>
      </trkpt>
      <trkpt lat="47.51276" lon="-1.94668">
        <ele>45.17611</ele>
        <time>2022-12-15T14:18:32.621Z</time>
      </trkpt>
      <trkpt lat="47.51266" lon="-1.94667">
        <ele>45.172034</ele>
        <time>2022-12-15T14:18:34.613Z</time>
      </trkpt>
      <trkpt lat="47.51256" lon="-1.94665">
        <ele>45.168006</ele>
        <time>2022-12-15T14:18:36.617Z</time>
      </trkpt>
      <trkpt lat="47.51247" lon="-1.94662">
        <ele>45.164262</ele>
        <time>2022-12-15T14:18:38.605Z</time>
      </trkpt>
      <trkpt lat="47.51236" lon="-1.9466">
        <ele>45.159918</ele>
        <time>2022-12-15T14:18:40.630Z</time>
      </trkpt>
      <trkpt lat="47.51223" lon="-1.94657">
        <ele>45.154406</ele>
        <time>2022-12-15T14:18:43.631Z</time>
      </trkpt>
      <trkpt lat="47.51213" lon="-1.94655">
        <ele>45.150494</ele>
        <time>2022-12-15T14:18:45.612Z</time>
      </trkpt>
      <trkpt lat="47.51203" lon="-1.94652">
        <ele>45.146343</ele>
        <time>2022-12-15T14:18:48.625Z</time>
      </trkpt>
      <trkpt lat="47.5119" lon="-1.9465">
        <ele>45.141145</ele>
        <time>2022-12-15T14:18:51.629Z</time>
      </trkpt>
      <trkpt lat="47.51181" lon="-1.94648">
        <ele>45.137454</ele>
        <time>2022-12-15T14:18:53.633Z</time>
      </trkpt>
      <trkpt lat="47.51171" lon="-1.94645">
        <ele>45.13337</ele>
        <time>2022-12-15T14:18:55.622Z</time>
      </trkpt>
      <trkpt lat="47.51162" lon="-1.94643">
        <ele>45.129679</ele>
        <time>2022-12-15T14:18:57.628Z</time>
      </trkpt>
      <trkpt lat="47.51153" lon="-1.9464">
        <ele>45.125745</ele>
        <time>2022-12-15T14:18:59.623Z</time>
      </trkpt>
      <trkpt lat="47.51139" lon="-1.94638">
        <ele>45.120307</ele>
        <time>2022-12-15T14:19:02.625Z</time>
      </trkpt>
      <trkpt lat="47.5113" lon="-1.94635">
        <ele>45.116283</ele>
        <time>2022-12-15T14:19:04.629Z</time>
      </trkpt>
      <trkpt lat="47.5112" lon="-1.94632">
        <ele>45.112407</ele>
        <time>2022-12-15T14:19:06.627Z</time>
      </trkpt>
      <trkpt lat="47.51111" lon="-1.94629">
        <ele>45.108739</ele>
        <time>2022-12-15T14:19:08.634Z</time>
      </trkpt>
      <trkpt lat="47.51098" lon="-1.94626">
        <ele>45.184089</ele>
        <time>2022-12-15T14:19:11.628Z</time>
      </trkpt>
      <trkpt lat="47.51087" lon="-1.94623">
        <ele>45.259798</ele>
        <time>2022-12-15T14:19:14.631Z</time>
      </trkpt>
      <trkpt lat="47.51074" lon="-1.9462">
        <ele>45.345998</ele>
        <time>2022-12-15T14:19:17.630Z</time>
      </trkpt>
      <trkpt lat="47.51064" lon="-1.94618">
        <ele>45.407526</ele>
        <time>2022-12-15T14:19:19.620Z</time>
      </trkpt>
      <trkpt lat="47.51052" lon="-1.94616">
        <ele>45.488092</ele>
        <time>2022-12-15T14:19:22.633Z</time>
      </trkpt>
      <trkpt lat="47.51043" lon="-1.94615">
        <ele>45.550174</ele>
        <time>2022-12-15T14:19:24.632Z</time>
      </trkpt>
      <trkpt lat="47.5103" lon="-1.94611">
        <ele>45.634662</ele>
        <time>2022-12-15T14:19:27.628Z</time>
      </trkpt>
      <trkpt lat="47.51017" lon="-1.94607">
        <ele>45.718013</ele>
        <time>2022-12-15T14:19:30.622Z</time>
      </trkpt>
      <trkpt lat="47.51005" lon="-1.94604">
        <ele>45.802657</ele>
        <time>2022-12-15T14:19:33.628Z</time>
      </trkpt>
      <trkpt lat="47.50992" lon="-1.94601">
        <ele>45.883515</ele>
        <time>2022-12-15T14:19:36.628Z</time>
      </trkpt>
      <trkpt lat="47.50983" lon="-1.94598">
        <ele>45.946236</ele>
        <time>2022-12-15T14:19:39.626Z</time>
      </trkpt>
      <trkpt lat="47.50972" lon="-1.94591">
        <ele>46.022327</ele>
        <time>2022-12-15T14:19:42.618Z</time>
      </trkpt>
      <trkpt lat="47.50963" lon="-1.94585">
        <ele>46.088616</ele>
        <time>2022-12-15T14:19:45.606Z</time>
      </trkpt>
      <trkpt lat="47.50954" lon="-1.94579">
        <ele>46.149888</ele>
        <time>2022-12-15T14:19:47.629Z</time>
      </trkpt>
      <trkpt lat="47.50945" lon="-1.94574">
        <ele>46.211834</ele>
        <time>2022-12-15T14:19:49.632Z</time>
      </trkpt>
      <trkpt lat="47.50936" lon="-1.94568">
        <ele>46.276918</ele>
        <time>2022-12-15T14:19:51.639Z</time>
      </trkpt>
      <trkpt lat="47.50927" lon="-1.94563">
        <ele>46.252471</ele>
        <time>2022-12-15T14:19:53.626Z</time>
      </trkpt>
      <trkpt lat="47.50918" lon="-1.94558">
        <ele>46.228262</ele>
        <time>2022-12-15T14:19:55.628Z</time>
      </trkpt>
      <trkpt lat="47.50908" lon="-1.94554">
        <ele>46.201738</ele>
        <time>2022-12-15T14:19:57.629Z</time>
      </trkpt>
      <trkpt lat="47.50899" lon="-1.9455">
        <ele>46.176547</ele>
        <time>2022-12-15T14:19:59.629Z</time>
      </trkpt>
      <trkpt lat="47.50889" lon="-1.94546">
        <ele>46.150536</ele>
        <time>2022-12-15T14:20:01.622Z</time>
      </trkpt>
      <trkpt lat="47.50879" lon="-1.94542">
        <ele>46.124851</ele>
        <time>2022-12-15T14:20:03.627Z</time>
      </trkpt>
      <trkpt lat="47.50871" lon="-1.94539">
        <ele>46.101429</ele>
        <time>2022-12-15T14:20:05.627Z</time>
      </trkpt>
      <trkpt lat="47.50858" lon="-1.94535">
        <ele>46.068947</ele>
        <time>2022-12-15T14:20:08.636Z</time>
      </trkpt>
      <trkpt lat="47.50848" lon="-1.94529">
        <ele>46.04124</ele>
        <time>2022-12-15T14:20:11.628Z</time>
      </trkpt>
      <trkpt lat="47.5084" lon="-1.94522">
        <ele>46.016312</ele>
        <time>2022-12-15T14:20:14.616Z</time>
      </trkpt>
      <trkpt lat="47.50829" lon="-1.94513">
        <ele>45.984783</ele>
        <time>2022-12-15T14:20:17.629Z</time>
      </trkpt>
      <trkpt lat="47.50821" lon="-1.94507">
        <ele>45.961565</ele>
        <time>2022-12-15T14:20:19.621Z</time>
      </trkpt>
      <trkpt lat="47.50809" lon="-1.94498">
        <ele>45.927156</ele>
        <time>2022-12-15T14:20:22.630Z</time>
      </trkpt>
      <trkpt lat="47.508" lon="-1.94491">
        <ele>45.900843</ele>
        <time>2022-12-15T14:20:24.621Z</time>
      </trkpt>
      <trkpt lat="47.50793" lon="-1.94483">
        <ele>45.876654</ele>
        <time>2022-12-15T14:20:26.627Z</time>
      </trkpt>
      <trkpt lat="47.50784" lon="-1.94474">
        <ele>45.850317</ele>
        <time>2022-12-15T14:20:28.613Z</time>
      </trkpt>
      <trkpt lat="47.50778" lon="-1.94463">
        <ele>45.825563</ele>
        <time>2022-12-15T14:20:30.620Z</time>
      </trkpt>
      <trkpt lat="47.50773" lon="-1.94451">
        <ele>45.605489</ele>
        <time>2022-12-15T14:20:32.618Z</time>
      </trkpt>
      <trkpt lat="47.50767" lon="-1.94441">
        <ele>45.234302</ele>
        <time>2022-12-15T14:20:34.617Z</time>
      </trkpt>
      <trkpt lat="47.50761" lon="-1.94425">
        <ele>44.759703</ele>
        <time>2022-12-15T14:20:37.619Z</time>
      </trkpt>
      <trkpt lat="47.50757" lon="-1.94407">
        <ele>44.260787</ele>
        <time>2022-12-15T14:20:40.615Z</time>
      </trkpt>
      <trkpt lat="47.50756" lon="-1.94391">
        <ele>43.808095</ele>
        <time>2022-12-15T14:20:43.619Z</time>
      </trkpt>
      <trkpt lat="47.50753" lon="-1.94372">
        <ele>43.298159</ele>
        <time>2022-12-15T14:20:46.633Z</time>
      </trkpt>
      <trkpt lat="47.5075" lon="-1.94355">
        <ele>42.832389</ele>
        <time>2022-12-15T14:20:49.626Z</time>
      </trkpt>
      <trkpt lat="47.50747" lon="-1.94338">
        <ele>42.36274</ele>
        <time>2022-12-15T14:20:52.624Z</time>
      </trkpt>
      <trkpt lat="47.50745" lon="-1.94324">
        <ele>41.980801</ele>
        <time>2022-12-15T14:20:54.632Z</time>
      </trkpt>
      <trkpt lat="47.50741" lon="-1.94306">
        <ele>41.48221</ele>
        <time>2022-12-15T14:20:57.609Z</time>
      </trkpt>
      <trkpt lat="47.50737" lon="-1.94293">
        <ele>41.095533</ele>
        <time>2022-12-15T14:20:59.616Z</time>
      </trkpt>
      <trkpt lat="47.50734" lon="-1.94278">
        <ele>40.683426</ele>
        <time>2022-12-15T14:21:01.630Z</time>
      </trkpt>
      <trkpt lat="47.50731" lon="-1.94265">
        <ele>40.309935</ele>
        <time>2022-12-15T14:21:03.624Z</time>
      </trkpt>
      <trkpt lat="47.50724" lon="-1.94249">
        <ele>39.798539</ele>
        <time>2022-12-15T14:21:05.630Z</time>
      </trkpt>
      <trkpt lat="47.50719" lon="-1.94231">
        <ele>39.275782</ele>
        <time>2022-12-15T14:21:08.633Z</time>
      </trkpt>
      <trkpt lat="47.50715" lon="-1.94213">
        <ele>38.782178</ele>
        <time>2022-12-15T14:21:11.612Z</time>
      </trkpt>
      <trkpt lat="47.50711" lon="-1.94197">
        <ele>38.759035</ele>
        <time>2022-12-15T14:21:14.628Z</time>
      </trkpt>
      <trkpt lat="47.50707" lon="-1.94182">
        <ele>38.821248</ele>
        <time>2022-12-15T14:21:17.625Z</time>
      </trkpt>
      <trkpt lat="47.50705" lon="-1.94168">
        <ele>38.87507</ele>
        <time>2022-12-15T14:21:20.617Z</time>
      </trkpt>
      <trkpt lat="47.50704" lon="-1.94152">
        <ele>38.936976</ele>
        <time>2022-12-15T14:21:23.628Z</time>
      </trkpt>
      <trkpt lat="47.50704" lon="-1.94136">
        <ele>39.00148</ele>
        <time>2022-12-15T14:21:26.608Z</time>
      </trkpt>
      <trkpt lat="47.50704" lon="-1.94117">
        <ele>39.073744</ele>
        <time>2022-12-15T14:21:29.623Z</time>
      </trkpt>
      <trkpt lat="47.50704" lon="-1.94097">
        <ele>39.151059</ele>
        <time>2022-12-15T14:21:32.616Z</time>
      </trkpt>
      <trkpt lat="47.50705" lon="-1.94077">
        <ele>39.228408</ele>
        <time>2022-12-15T14:21:35.629Z</time>
      </trkpt>
      <trkpt lat="47.50706" lon="-1.94064">
        <ele>39.280081</ele>
        <time>2022-12-15T14:21:37.632Z</time>
      </trkpt>
      <trkpt lat="47.50708" lon="-1.94045">
        <ele>39.353468</ele>
        <time>2022-12-15T14:21:40.631Z</time>
      </trkpt>
      <trkpt lat="47.50709" lon="-1.94032">
        <ele>39.405526</ele>
        <time>2022-12-15T14:21:42.626Z</time>
      </trkpt>
      <trkpt lat="47.5071" lon="-1.94018">
        <ele>39.458507</ele>
        <time>2022-12-15T14:21:44.625Z</time>
      </trkpt>
      <trkpt lat="47.50711" lon="-1.94005">
        <ele>39.512256</ele>
        <time>2022-12-15T14:21:46.610Z</time>
      </trkpt>
      <trkpt lat="47.50712" lon="-1.9399">
        <ele>39.569828</ele>
        <time>2022-12-15T14:21:48.616Z</time>
      </trkpt>
      <trkpt lat="47.50711" lon="-1.93975">
        <ele>39.62747</ele>
        <time>2022-12-15T14:21:50.618Z</time>
      </trkpt>
      <trkpt lat="47.5071" lon="-1.93959">
        <ele>39.688794</ele>
        <time>2022-12-15T14:21:52.613Z</time>
      </trkpt>
      <trkpt lat="47.50709" lon="-1.93945">
        <ele>39.697596</ele>
        <time>2022-12-15T14:21:54.630Z</time>
      </trkpt>
      <trkpt lat="47.50708" lon="-1.9393">
        <ele>39.439397</ele>
        <time>2022-12-15T14:21:56.633Z</time>
      </trkpt>
      <trkpt lat="47.50707" lon="-1.93909">
        <ele>39.109308</ele>
        <time>2022-12-15T14:21:59.629Z</time>
      </trkpt>
      <trkpt lat="47.50707" lon="-1.93896">
        <ele>38.891686</ele>
        <time>2022-12-15T14:22:01.627Z</time>
      </trkpt>
      <trkpt lat="47.50706" lon="-1.9388">
        <ele>38.6332</ele>
        <time>2022-12-15T14:22:03.629Z</time>
      </trkpt>
      <trkpt lat="47.50706" lon="-1.93861">
        <ele>38.324614</ele>
        <time>2022-12-15T14:22:06.629Z</time>
      </trkpt>
      <trkpt lat="47.50707" lon="-1.93844">
        <ele>38.043811</ele>
        <time>2022-12-15T14:22:09.634Z</time>
      </trkpt>
      <trkpt lat="47.50709" lon="-1.93828">
        <ele>37.780402</ele>
        <time>2022-12-15T14:22:12.629Z</time>
      </trkpt>
      <trkpt lat="47.50711" lon="-1.93809">
        <ele>37.474915</ele>
        <time>2022-12-15T14:22:15.631Z</time>
      </trkpt>
      <trkpt lat="47.50712" lon="-1.93796">
        <ele>37.256234</ele>
        <time>2022-12-15T14:22:17.632Z</time>
      </trkpt>
      <trkpt lat="47.50714" lon="-1.93777">
        <ele>36.956256</ele>
        <time>2022-12-15T14:22:20.615Z</time>
      </trkpt>
      <trkpt lat="47.50714" lon="-1.93763">
        <ele>36.728892</ele>
        <time>2022-12-15T14:22:23.616Z</time>
      </trkpt>
      <trkpt lat="47.50712" lon="-1.93745">
        <ele>36.427082</ele>
        <time>2022-12-15T14:22:26.617Z</time>
      </trkpt>
      <trkpt lat="47.50711" lon="-1.93731">
        <ele>36.200879</ele>
        <time>2022-12-15T14:22:28.649Z</time>
      </trkpt>
      <trkpt lat="47.50709" lon="-1.93715">
        <ele>35.930945</ele>
        <time>2022-12-15T14:22:30.623Z</time>
      </trkpt>
      <trkpt lat="47.50706" lon="-1.93697">
        <ele>35.636173</ele>
        <time>2022-12-15T14:22:33.632Z</time>
      </trkpt>
      <trkpt lat="47.50703" lon="-1.93679">
        <ele>35.502251</ele>
        <time>2022-12-15T14:22:36.611Z</time>
      </trkpt>
      <trkpt lat="47.50703" lon="-1.93662">
        <ele>35.796105</ele>
        <time>2022-12-15T14:22:39.616Z</time>
      </trkpt>
      <trkpt lat="47.50703" lon="-1.93646">
        <ele>36.084612</ele>
        <time>2022-12-15T14:22:42.610Z</time>
      </trkpt>
      <trkpt lat="47.50705" lon="-1.93629">
        <ele>36.392135</ele>
        <time>2022-12-15T14:22:45.626Z</time>
      </trkpt>
      <trkpt lat="47.50708" lon="-1.93612">
        <ele>36.700153</ele>
        <time>2022-12-15T14:22:48.634Z</time>
      </trkpt>
      <trkpt lat="47.50711" lon="-1.93594">
        <ele>37.04015</ele>
        <time>2022-12-15T14:22:51.622Z</time>
      </trkpt>
      <trkpt lat="47.50713" lon="-1.9358">
        <ele>37.287728</ele>
        <time>2022-12-15T14:22:53.635Z</time>
      </trkpt>
      <trkpt lat="47.50715" lon="-1.93567">
        <ele>37.531235</ele>
        <time>2022-12-15T14:22:55.613Z</time>
      </trkpt>
      <trkpt lat="47.50717" lon="-1.93549">
        <ele>37.86166</ele>
        <time>2022-12-15T14:22:57.627Z</time>
      </trkpt>
      <trkpt lat="47.5072" lon="-1.93534">
        <ele>38.131915</ele>
        <time>2022-12-15T14:22:59.610Z</time>
      </trkpt>
      <trkpt lat="47.50722" lon="-1.9352">
        <ele>38.399357</ele>
        <time>2022-12-15T14:23:01.642Z</time>
      </trkpt>
      <trkpt lat="47.50725" lon="-1.93507">
        <ele>38.640633</ele>
        <time>2022-12-15T14:23:03.630Z</time>
      </trkpt>
      <trkpt lat="47.50728" lon="-1.93492">
        <ele>38.91047</ele>
        <time>2022-12-15T14:23:06.635Z</time>
      </trkpt>
      <trkpt lat="47.5073" lon="-1.93476">
        <ele>39.208612</ele>
        <time>2022-12-15T14:23:09.620Z</time>
      </trkpt>
      <trkpt lat="47.50733" lon="-1.93458">
        <ele>39.550564</ele>
        <time>2022-12-15T14:23:12.610Z</time>
      </trkpt>
      <trkpt lat="47.50737" lon="-1.9344">
        <ele>39.880161</ele>
        <time>2022-12-15T14:23:15.629Z</time>
      </trkpt>
      <trkpt lat="47.5074" lon="-1.93426">
        <ele>40.136737</ele>
        <time>2022-12-15T14:23:17.627Z</time>
      </trkpt>
      <trkpt lat="47.50745" lon="-1.93413">
        <ele>40.281323</ele>
        <time>2022-12-15T14:23:19.613Z</time>
      </trkpt>
      <trkpt lat="47.50749" lon="-1.934">
        <ele>40.407429</ele>
        <time>2022-12-15T14:23:21.611Z</time>
      </trkpt>
      <trkpt lat="47.50754" lon="-1.93388">
        <ele>40.525454</ele>
        <time>2022-12-15T14:23:23.630Z</time>
      </trkpt>
      <trkpt lat="47.50762" lon="-1.93372">
        <ele>40.689201</ele>
        <time>2022-12-15T14:23:26.605Z</time>
      </trkpt>
      <trkpt lat="47.50768" lon="-1.93361">
        <ele>40.806954</ele>
        <time>2022-12-15T14:23:28.626Z</time>
      </trkpt>
      <trkpt lat="47.50774" lon="-1.93352">
        <ele>40.92226</ele>
        <time>2022-12-15T14:23:30.624Z</time>
      </trkpt>
      <trkpt lat="47.50784" lon="-1.93337">
        <ele>41.091978</ele>
        <time>2022-12-15T14:23:33.633Z</time>
      </trkpt>
      <trkpt lat="47.5079" lon="-1.93328">
        <ele>41.208412</ele>
        <time>2022-12-15T14:23:35.619Z</time>
      </trkpt>
      <trkpt lat="47.50797" lon="-1.93317">
        <ele>41.336077</ele>
        <time>2022-12-15T14:23:37.607Z</time>
      </trkpt>
      <trkpt lat="47.50805" lon="-1.933">
        <ele>41.511007</ele>
        <time>2022-12-15T14:23:40.627Z</time>
      </trkpt>
      <trkpt lat="47.50814" lon="-1.93286">
        <ele>41.670053</ele>
        <time>2022-12-15T14:23:43.615Z</time>
      </trkpt>
      <trkpt lat="47.50823" lon="-1.93274">
        <ele>41.822822</ele>
        <time>2022-12-15T14:23:46.621Z</time>
      </trkpt>
      <trkpt lat="47.5083" lon="-1.93262">
        <ele>41.959019</ele>
        <time>2022-12-15T14:23:49.622Z</time>
      </trkpt>
      <trkpt lat="47.50837" lon="-1.93249">
        <ele>42.098774</ele>
        <time>2022-12-15T14:23:52.619Z</time>
      </trkpt>
      <trkpt lat="47.50844" lon="-1.93234">
        <ele>42.254731</ele>
        <time>2022-12-15T14:23:55.613Z</time>
      </trkpt>
      <trkpt lat="47.50851" lon="-1.93219">
        <ele>42.409403</ele>
        <time>2022-12-15T14:23:58.630Z</time>
      </trkpt>
      <trkpt lat="47.50858" lon="-1.93203">
        <ele>42.469119</ele>
        <time>2022-12-15T14:24:01.628Z</time>
      </trkpt>
      <trkpt lat="47.50865" lon="-1.93187">
        <ele>42.515038</ele>
        <time>2022-12-15T14:24:04.612Z</time>
      </trkpt>
      <trkpt lat="47.50872" lon="-1.93174">
        <ele>42.553928</ele>
        <time>2022-12-15T14:24:07.624Z</time>
      </trkpt>
      <trkpt lat="47.50878" lon="-1.93162">
        <ele>42.591629</ele>
        <time>2022-12-15T14:24:10.611Z</time>
      </trkpt>
      <trkpt lat="47.50885" lon="-1.93147">
        <ele>42.635738</ele>
        <time>2022-12-15T14:24:13.608Z</time>
      </trkpt>
      <trkpt lat="47.50891" lon="-1.93132">
        <ele>42.678674</ele>
        <time>2022-12-15T14:24:16.602Z</time>
      </trkpt>
      <trkpt lat="47.50896" lon="-1.93117">
        <ele>42.718396</ele>
        <time>2022-12-15T14:24:19.626Z</time>
      </trkpt>
      <trkpt lat="47.50903" lon="-1.93104">
        <ele>42.758321</ele>
        <time>2022-12-15T14:24:22.619Z</time>
      </trkpt>
      <trkpt lat="47.50909" lon="-1.93088">
        <ele>42.803562</ele>
        <time>2022-12-15T14:24:25.608Z</time>
      </trkpt>
      <trkpt lat="47.50915" lon="-1.93074">
        <ele>42.843467</ele>
        <time>2022-12-15T14:24:28.629Z</time>
      </trkpt>
      <trkpt lat="47.50921" lon="-1.9306">
        <ele>42.885145</ele>
        <time>2022-12-15T14:24:31.624Z</time>
      </trkpt>
      <trkpt lat="47.50926" lon="-1.93048">
        <ele>42.917374</ele>
        <time>2022-12-15T14:24:33.624Z</time>
      </trkpt>
      <trkpt lat="47.50934" lon="-1.93033">
        <ele>42.963973</ele>
        <time>2022-12-15T14:24:36.610Z</time>
      </trkpt>
      <trkpt lat="47.50942" lon="-1.93019">
        <ele>43.010806</ele>
        <time>2022-12-15T14:24:39.617Z</time>
      </trkpt>
      <trkpt lat="47.5095" lon="-1.93004">
        <ele>43.055373</ele>
        <time>2022-12-15T14:24:42.618Z</time>
      </trkpt>
      <trkpt lat="47.50955" lon="-1.92992">
        <ele>43.112599</ele>
        <time>2022-12-15T14:24:44.632Z</time>
      </trkpt>
      <trkpt lat="47.50962" lon="-1.92977">
        <ele>43.22185</ele>
        <time>2022-12-15T14:24:47.629Z</time>
      </trkpt>
      <trkpt lat="47.50968" lon="-1.92965">
        <ele>43.318073</ele>
        <time>2022-12-15T14:24:51.616Z</time>
      </trkpt>
      <trkpt lat="47.50975" lon="-1.92952">
        <ele>43.417742</ele>
        <time>2022-12-15T14:24:55.615Z</time>
      </trkpt>
      <trkpt lat="47.50981" lon="-1.92941">
        <ele>43.504138</ele>
        <time>2022-12-15T14:24:58.612Z</time>
      </trkpt>
      <trkpt lat="47.50987" lon="-1.92927">
        <ele>43.603273</ele>
        <time>2022-12-15T14:25:01.623Z</time>
      </trkpt>
      <trkpt lat="47.50993" lon="-1.92915">
        <ele>43.696946</ele>
        <time>2022-12-15T14:25:04.624Z</time>
      </trkpt>
      <trkpt lat="47.50999" lon="-1.92901">
        <ele>43.798143</ele>
        <time>2022-12-15T14:25:07.634Z</time>
      </trkpt>
      <trkpt lat="47.51005" lon="-1.92887">
        <ele>43.896871</ele>
        <time>2022-12-15T14:25:10.614Z</time>
      </trkpt>
      <trkpt lat="47.51011" lon="-1.92872">
        <ele>44.005248</ele>
        <time>2022-12-15T14:25:13.628Z</time>
      </trkpt>
      <trkpt lat="47.51018" lon="-1.92857">
        <ele>44.11349</ele>
        <time>2022-12-15T14:25:16.628Z</time>
      </trkpt>
      <trkpt lat="47.51024" lon="-1.92842">
        <ele>44.221816</ele>
        <time>2022-12-15T14:25:19.623Z</time>
      </trkpt>
      <trkpt lat="47.5103" lon="-1.92826">
        <ele>44.334263</ele>
        <time>2022-12-15T14:25:22.629Z</time>
      </trkpt>
      <trkpt lat="47.51035" lon="-1.92808">
        <ele>44.453752</ele>
        <time>2022-12-15T14:25:25.612Z</time>
      </trkpt>
      <trkpt lat="47.51038" lon="-1.92794">
        <ele>44.539945</ele>
        <time>2022-12-15T14:25:27.621Z</time>
      </trkpt>
      <trkpt lat="47.5104" lon="-1.92777">
        <ele>44.644665</ele>
        <time>2022-12-15T14:25:29.616Z</time>
      </trkpt>
      <trkpt lat="47.51042" lon="-1.92764">
        <ele>44.715496</ele>
        <time>2022-12-15T14:25:31.633Z</time>
      </trkpt>
      <trkpt lat="47.51044" lon="-1.92749">
        <ele>44.762645</ele>
        <time>2022-12-15T14:25:33.629Z</time>
      </trkpt>
      <trkpt lat="47.51047" lon="-1.92735">
        <ele>44.809484</ele>
        <time>2022-12-15T14:25:35.624Z</time>
      </trkpt>
      <trkpt lat="47.5105" lon="-1.92722">
        <ele>44.852007</ele>
        <time>2022-12-15T14:25:37.626Z</time>
      </trkpt>
      <trkpt lat="47.51053" lon="-1.92708">
        <ele>44.898726</ele>
        <time>2022-12-15T14:25:39.622Z</time>
      </trkpt>
      <trkpt lat="47.51056" lon="-1.92695">
        <ele>44.944252</ele>
        <time>2022-12-15T14:25:41.619Z</time>
      </trkpt>
      <trkpt lat="47.51058" lon="-1.92681">
        <ele>44.988897</ele>
        <time>2022-12-15T14:25:43.613Z</time>
      </trkpt>
      <trkpt lat="47.51062" lon="-1.92669">
        <ele>45.031594</ele>
        <time>2022-12-15T14:25:45.625Z</time>
      </trkpt>
      <trkpt lat="47.51068" lon="-1.92652">
        <ele>45.091972</ele>
        <time>2022-12-15T14:25:48.611Z</time>
      </trkpt>
      <trkpt lat="47.51075" lon="-1.92637">
        <ele>45.151102</ele>
        <time>2022-12-15T14:25:51.617Z</time>
      </trkpt>
      <trkpt lat="47.51082" lon="-1.92621">
        <ele>45.208194</ele>
        <time>2022-12-15T14:25:54.630Z</time>
      </trkpt>
      <trkpt lat="47.51086" lon="-1.92607">
        <ele>45.256688</ele>
        <time>2022-12-15T14:25:57.623Z</time>
      </trkpt>
      <trkpt lat="47.51088" lon="-1.9259">
        <ele>45.312991</ele>
        <time>2022-12-15T14:26:01.613Z</time>
      </trkpt>
      <trkpt lat="47.51088" lon="-1.92575">
        <ele>45.359607</ele>
        <time>2022-12-15T14:26:04.613Z</time>
      </trkpt>
      <trkpt lat="47.51086" lon="-1.92558">
        <ele>45.415969</ele>
        <time>2022-12-15T14:26:07.614Z</time>
      </trkpt>
      <trkpt lat="47.51083" lon="-1.92541">
        <ele>45.470231</ele>
        <time>2022-12-15T14:26:10.613Z</time>
      </trkpt>
      <trkpt lat="47.51078" lon="-1.92529">
        <ele>45.514431</ele>
        <time>2022-12-15T14:26:12.612Z</time>
      </trkpt>
      <trkpt lat="47.51071" lon="-1.92513">
        <ele>45.517931</ele>
        <time>2022-12-15T14:26:15.610Z</time>
      </trkpt>
      <trkpt lat="47.51062" lon="-1.92499">
        <ele>45.468881</ele>
        <time>2022-12-15T14:26:18.620Z</time>
      </trkpt>
      <trkpt lat="47.51057" lon="-1.92487">
        <ele>45.430383</ele>
        <time>2022-12-15T14:26:20.611Z</time>
      </trkpt>
      <trkpt lat="47.5105" lon="-1.92477">
        <ele>45.395804</ele>
        <time>2022-12-15T14:26:22.624Z</time>
      </trkpt>
      <trkpt lat="47.51044" lon="-1.92467">
        <ele>45.35954</ele>
        <time>2022-12-15T14:26:24.630Z</time>
      </trkpt>
      <trkpt lat="47.51037" lon="-1.92452">
        <ele>45.313116</ele>
        <time>2022-12-15T14:26:27.632Z</time>
      </trkpt>
      <trkpt lat="47.5103" lon="-1.92439">
        <ele>45.269679</ele>
        <time>2022-12-15T14:26:30.625Z</time>
      </trkpt>
      <trkpt lat="47.51023" lon="-1.92425">
        <ele>45.224373</ele>
        <time>2022-12-15T14:26:33.613Z</time>
      </trkpt>
      <trkpt lat="47.51014" lon="-1.92411">
        <ele>45.176817</ele>
        <time>2022-12-15T14:26:36.631Z</time>
      </trkpt>
      <trkpt lat="47.51005" lon="-1.92398">
        <ele>45.128774</ele>
        <time>2022-12-15T14:26:39.618Z</time>
      </trkpt>
      <trkpt lat="47.50999" lon="-1.92389">
        <ele>45.094556</ele>
        <time>2022-12-15T14:26:41.612Z</time>
      </trkpt>
      <trkpt lat="47.50989" lon="-1.92375">
        <ele>45.042981</ele>
        <time>2022-12-15T14:26:44.631Z</time>
      </trkpt>
      <trkpt lat="47.5098" lon="-1.92362">
        <ele>44.993582</ele>
        <time>2022-12-15T14:26:47.633Z</time>
      </trkpt>
      <trkpt lat="47.5097" lon="-1.92349">
        <ele>44.943536</ele>
        <time>2022-12-15T14:26:50.634Z</time>
      </trkpt>
      <trkpt lat="47.5096" lon="-1.92336">
        <ele>44.892359</ele>
        <time>2022-12-15T14:26:53.618Z</time>
      </trkpt>
      <trkpt lat="47.5095" lon="-1.92325">
        <ele>44.833051</ele>
        <time>2022-12-15T14:26:56.634Z</time>
      </trkpt>
      <trkpt lat="47.50941" lon="-1.92314">
        <ele>44.748616</ele>
        <time>2022-12-15T14:26:59.613Z</time>
      </trkpt>
      <trkpt lat="47.50933" lon="-1.92306">
        <ele>44.67507</ele>
        <time>2022-12-15T14:27:02.612Z</time>
      </trkpt>
      <trkpt lat="47.50924" lon="-1.92297">
        <ele>44.593673</ele>
        <time>2022-12-15T14:27:05.615Z</time>
      </trkpt>
      <trkpt lat="47.50914" lon="-1.92289">
        <ele>44.506251</ele>
        <time>2022-12-15T14:27:08.622Z</time>
      </trkpt>
      <trkpt lat="47.50903" lon="-1.92281">
        <ele>44.417894</ele>
        <time>2022-12-15T14:27:11.621Z</time>
      </trkpt>
      <trkpt lat="47.50893" lon="-1.92273">
        <ele>44.327547</ele>
        <time>2022-12-15T14:27:14.620Z</time>
      </trkpt>
      <trkpt lat="47.50881" lon="-1.92266">
        <ele>44.233585</ele>
        <time>2022-12-15T14:27:17.629Z</time>
      </trkpt>
      <trkpt lat="47.50869" lon="-1.92259">
        <ele>44.138958</ele>
        <time>2022-12-15T14:27:20.613Z</time>
      </trkpt>
      <trkpt lat="47.50859" lon="-1.92252">
        <ele>44.053219</ele>
        <time>2022-12-15T14:27:23.617Z</time>
      </trkpt>
      <trkpt lat="47.50849" lon="-1.92248">
        <ele>43.978471</ele>
        <time>2022-12-15T14:27:26.611Z</time>
      </trkpt>
      <trkpt lat="47.50837" lon="-1.92246">
        <ele>43.886429</ele>
        <time>2022-12-15T14:27:29.612Z</time>
      </trkpt>
      <trkpt lat="47.50828" lon="-1.92247">
        <ele>43.816689</ele>
        <time>2022-12-15T14:27:31.622Z</time>
      </trkpt>
      <trkpt lat="47.50818" lon="-1.92248">
        <ele>43.744871</ele>
        <time>2022-12-15T14:27:33.613Z</time>
      </trkpt>
      <trkpt lat="47.50806" lon="-1.9225">
        <ele>43.656142</ele>
        <time>2022-12-15T14:27:36.624Z</time>
      </trkpt>
      <trkpt lat="47.50797" lon="-1.92251">
        <ele>43.584553</ele>
        <time>2022-12-15T14:27:38.615Z</time>
      </trkpt>
      <trkpt lat="47.50785" lon="-1.92253">
        <ele>43.509695</ele>
        <time>2022-12-15T14:27:40.609Z</time>
      </trkpt>
      <trkpt lat="47.50774" lon="-1.92258">
        <ele>43.521285</ele>
        <time>2022-12-15T14:27:42.614Z</time>
      </trkpt>
      <trkpt lat="47.50763" lon="-1.92262">
        <ele>43.532206</ele>
        <time>2022-12-15T14:27:44.629Z</time>
      </trkpt>
      <trkpt lat="47.5075" lon="-1.92269">
        <ele>43.546565</ele>
        <time>2022-12-15T14:27:47.625Z</time>
      </trkpt>
      <trkpt lat="47.5074" lon="-1.92275">
        <ele>43.55762</ele>
        <time>2022-12-15T14:27:49.615Z</time>
      </trkpt>
      <trkpt lat="47.50731" lon="-1.9228">
        <ele>43.567302</ele>
        <time>2022-12-15T14:27:51.618Z</time>
      </trkpt>
      <trkpt lat="47.50722" lon="-1.92284">
        <ele>43.576626</ele>
        <time>2022-12-15T14:27:53.610Z</time>
      </trkpt>
      <trkpt lat="47.5071" lon="-1.92286">
        <ele>43.588789</ele>
        <time>2022-12-15T14:27:56.614Z</time>
      </trkpt>
      <trkpt lat="47.50701" lon="-1.92286">
        <ele>43.597861</ele>
        <time>2022-12-15T14:27:58.628Z</time>
      </trkpt>
      <trkpt lat="47.50689" lon="-1.92287">
        <ele>43.60987</ele>
        <time>2022-12-15T14:28:01.622Z</time>
      </trkpt>
      <trkpt lat="47.50677" lon="-1.92291">
        <ele>43.621899</ele>
        <time>2022-12-15T14:28:03.621Z</time>
      </trkpt>
      <trkpt lat="47.50668" lon="-1.92295">
        <ele>43.631614</ele>
        <time>2022-12-15T14:28:05.621Z</time>
      </trkpt>
      <trkpt lat="47.50659" lon="-1.92296">
        <ele>43.640837</ele>
        <time>2022-12-15T14:28:07.620Z</time>
      </trkpt>
      <trkpt lat="47.5065" lon="-1.92301">
        <ele>43.650405</ele>
        <time>2022-12-15T14:28:09.630Z</time>
      </trkpt>
      <trkpt lat="47.50638" lon="-1.92306">
        <ele>43.663212</ele>
        <time>2022-12-15T14:28:12.631Z</time>
      </trkpt>
      <trkpt lat="47.50625" lon="-1.92312">
        <ele>43.676703</ele>
        <time>2022-12-15T14:28:15.636Z</time>
      </trkpt>
      <trkpt lat="47.50616" lon="-1.92315">
        <ele>43.685897</ele>
        <time>2022-12-15T14:28:17.613Z</time>
      </trkpt>
      <trkpt lat="47.50603" lon="-1.92321">
        <ele>43.770294</ele>
        <time>2022-12-15T14:28:20.620Z</time>
      </trkpt>
      <trkpt lat="47.50591" lon="-1.92328">
        <ele>43.876665</ele>
        <time>2022-12-15T14:28:23.625Z</time>
      </trkpt>
      <trkpt lat="47.50583" lon="-1.92334">
        <ele>43.951019</ele>
        <time>2022-12-15T14:28:25.626Z</time>
      </trkpt>
      <trkpt lat="47.5057" lon="-1.92342">
        <ele>44.060696</ele>
        <time>2022-12-15T14:28:28.628Z</time>
      </trkpt>
      <trkpt lat="47.50559" lon="-1.92347">
        <ele>44.155449</ele>
        <time>2022-12-15T14:28:31.628Z</time>
      </trkpt>
      <trkpt lat="47.5055" lon="-1.92352">
        <ele>44.23062</ele>
        <time>2022-12-15T14:28:33.623Z</time>
      </trkpt>
      <trkpt lat="47.50541" lon="-1.92358">
        <ele>44.305192</ele>
        <time>2022-12-15T14:28:35.639Z</time>
      </trkpt>
      <trkpt lat="47.50531" lon="-1.92366">
        <ele>44.403041</ele>
        <time>2022-12-15T14:28:38.622Z</time>
      </trkpt>
      <trkpt lat="47.50523" lon="-1.92377">
        <ele>44.487284</ele>
        <time>2022-12-15T14:28:41.615Z</time>
      </trkpt>
      <trkpt lat="47.50515" lon="-1.92391">
        <ele>44.584402</ele>
        <time>2022-12-15T14:28:44.630Z</time>
      </trkpt>
      <trkpt lat="47.50507" lon="-1.92406">
        <ele>44.690929</ele>
        <time>2022-12-15T14:28:47.633Z</time>
      </trkpt>
      <trkpt lat="47.505" lon="-1.92416">
        <ele>44.767503</ele>
        <time>2022-12-15T14:28:49.632Z</time>
      </trkpt>
      <trkpt lat="47.50493" lon="-1.9243">
        <ele>44.864417</ele>
        <time>2022-12-15T14:28:51.629Z</time>
      </trkpt>
      <trkpt lat="47.50485" lon="-1.92442">
        <ele>44.952392</ele>
        <time>2022-12-15T14:28:53.624Z</time>
      </trkpt>
      <trkpt lat="47.50479" lon="-1.92454">
        <ele>45.033069</ele>
        <time>2022-12-15T14:28:55.621Z</time>
      </trkpt>
      <trkpt lat="47.5047" lon="-1.9247">
        <ele>45.155257</ele>
        <time>2022-12-15T14:28:58.634Z</time>
      </trkpt>
      <trkpt lat="47.50464" lon="-1.92483">
        <ele>45.268385</ele>
        <time>2022-12-15T14:29:00.617Z</time>
      </trkpt>
      <trkpt lat="47.50459" lon="-1.92495">
        <ele>45.375244</ele>
        <time>2022-12-15T14:29:02.612Z</time>
      </trkpt>
      <trkpt lat="47.50455" lon="-1.92508">
        <ele>45.488481</ele>
        <time>2022-12-15T14:29:04.611Z</time>
      </trkpt>
      <trkpt lat="47.50451" lon="-1.92522">
        <ele>45.603111</ele>
        <time>2022-12-15T14:29:06.636Z</time>
      </trkpt>
      <trkpt lat="47.50446" lon="-1.92536">
        <ele>45.721191</ele>
        <time>2022-12-15T14:29:08.632Z</time>
      </trkpt>
      <trkpt lat="47.50442" lon="-1.92551">
        <ele>45.837374</ele>
        <time>2022-12-15T14:29:10.621Z</time>
      </trkpt>
      <trkpt lat="47.50438" lon="-1.92564">
        <ele>45.950828</ele>
        <time>2022-12-15T14:29:12.613Z</time>
      </trkpt>
      <trkpt lat="47.50434" lon="-1.92577">
        <ele>46.060179</ele>
        <time>2022-12-15T14:29:14.619Z</time>
      </trkpt>
      <trkpt lat="47.50429" lon="-1.9259">
        <ele>46.167788</ele>
        <time>2022-12-15T14:29:16.615Z</time>
      </trkpt>
      <trkpt lat="47.50425" lon="-1.92602">
        <ele>46.272306</ele>
        <time>2022-12-15T14:29:18.637Z</time>
      </trkpt>
      <trkpt lat="47.50421" lon="-1.92615">
        <ele>46.378089</ele>
        <time>2022-12-15T14:29:20.648Z</time>
      </trkpt>
      <trkpt lat="47.50414" lon="-1.92631">
        <ele>46.528093</ele>
        <time>2022-12-15T14:29:23.623Z</time>
      </trkpt>
      <trkpt lat="47.50407" lon="-1.92647">
        <ele>46.667449</ele>
        <time>2022-12-15T14:29:26.640Z</time>
      </trkpt>
      <trkpt lat="47.50402" lon="-1.92662">
        <ele>46.791255</ele>
        <time>2022-12-15T14:29:29.616Z</time>
      </trkpt>
      <trkpt lat="47.504" lon="-1.92678">
        <ele>46.917297</ele>
        <time>2022-12-15T14:29:32.622Z</time>
      </trkpt>
      <trkpt lat="47.504" lon="-1.92695">
        <ele>47.040977</ele>
        <time>2022-12-15T14:29:35.631Z</time>
      </trkpt>
      <trkpt lat="47.50403" lon="-1.92712">
        <ele>47.170408</ele>
        <time>2022-12-15T14:29:38.623Z</time>
      </trkpt>
      <trkpt lat="47.50408" lon="-1.92724">
        <ele>47.264627</ele>
        <time>2022-12-15T14:29:40.614Z</time>
      </trkpt>
      <trkpt lat="47.50412" lon="-1.92738">
        <ele>47.364585</ele>
        <time>2022-12-15T14:29:42.633Z</time>
      </trkpt>
      <trkpt lat="47.50415" lon="-1.92752">
        <ele>47.465921</ele>
        <time>2022-12-15T14:29:44.632Z</time>
      </trkpt>
      <trkpt lat="47.50419" lon="-1.92772">
        <ele>47.605076</ele>
        <time>2022-12-15T14:29:47.612Z</time>
      </trkpt>
      <trkpt lat="47.50419" lon="-1.92787">
        <ele>47.703582</ele>
        <time>2022-12-15T14:29:49.629Z</time>
      </trkpt>
      <trkpt lat="47.5042" lon="-1.92801">
        <ele>47.796627</ele>
        <time>2022-12-15T14:29:51.627Z</time>
      </trkpt>
      <trkpt lat="47.5042" lon="-1.92816">
        <ele>47.894894</ele>
        <time>2022-12-15T14:29:53.622Z</time>
      </trkpt>
      <trkpt lat="47.50419" lon="-1.9283">
        <ele>47.989891</ele>
        <time>2022-12-15T14:29:55.618Z</time>
      </trkpt>
      <trkpt lat="47.50418" lon="-1.92845">
        <ele>48.092851</ele>
        <time>2022-12-15T14:29:57.622Z</time>
      </trkpt>
      <trkpt lat="47.50418" lon="-1.92859">
        <ele>48.183846</ele>
        <time>2022-12-15T14:29:59.611Z</time>
      </trkpt>
      <trkpt lat="47.50419" lon="-1.92872">
        <ele>48.27519</ele>
        <time>2022-12-15T14:30:01.620Z</time>
      </trkpt>
      <trkpt lat="47.5042" lon="-1.92892">
        <ele>48.407842</ele>
        <time>2022-12-15T14:30:04.618Z</time>
      </trkpt>
      <trkpt lat="47.50421" lon="-1.92912">
        <ele>48.541392</ele>
        <time>2022-12-15T14:30:07.625Z</time>
      </trkpt>
      <trkpt lat="47.50423" lon="-1.92932">
        <ele>48.677588</ele>
        <time>2022-12-15T14:30:10.615Z</time>
      </trkpt>
      <trkpt lat="47.50424" lon="-1.92946">
        <ele>48.770263</ele>
        <time>2022-12-15T14:30:12.618Z</time>
      </trkpt>
      <trkpt lat="47.50426" lon="-1.9296">
        <ele>48.865261</ele>
        <time>2022-12-15T14:30:14.609Z</time>
      </trkpt>
      <trkpt lat="47.50427" lon="-1.92974">
        <ele>48.90902</ele>
        <time>2022-12-15T14:30:16.622Z</time>
      </trkpt>
      <trkpt lat="47.50428" lon="-1.92988">
        <ele>48.886885</ele>
        <time>2022-12-15T14:30:18.618Z</time>
      </trkpt>
      <trkpt lat="47.50432" lon="-1.93008">
        <ele>48.856111</ele>
        <time>2022-12-15T14:30:21.613Z</time>
      </trkpt>
      <trkpt lat="47.50433" lon="-1.93023">
        <ele>48.833726</ele>
        <time>2022-12-15T14:30:23.620Z</time>
      </trkpt>
      <trkpt lat="47.50434" lon="-1.93043">
        <ele>48.803687</ele>
        <time>2022-12-15T14:30:26.634Z</time>
      </trkpt>
      <trkpt lat="47.50437" lon="-1.93062">
        <ele>48.773932</ele>
        <time>2022-12-15T14:30:29.626Z</time>
      </trkpt>
      <trkpt lat="47.50437" lon="-1.93077">
        <ele>48.752259</ele>
        <time>2022-12-15T14:30:31.611Z</time>
      </trkpt>
      <trkpt lat="47.50435" lon="-1.9309">
        <ele>48.731703</ele>
        <time>2022-12-15T14:30:33.610Z</time>
      </trkpt>
      <trkpt lat="47.50433" lon="-1.93111">
        <ele>48.700311</ele>
        <time>2022-12-15T14:30:36.617Z</time>
      </trkpt>
      <trkpt lat="47.50431" lon="-1.93125">
        <ele>48.678755</ele>
        <time>2022-12-15T14:30:38.615Z</time>
      </trkpt>
      <trkpt lat="47.50427" lon="-1.93142">
        <ele>48.651511</ele>
        <time>2022-12-15T14:30:41.617Z</time>
      </trkpt>
      <trkpt lat="47.50423" lon="-1.93157">
        <ele>48.627678</ele>
        <time>2022-12-15T14:30:44.614Z</time>
      </trkpt>
      <trkpt lat="47.50417" lon="-1.93171">
        <ele>48.601351</ele>
        <time>2022-12-15T14:30:47.645Z</time>
      </trkpt>
      <trkpt lat="47.50409" lon="-1.93185">
        <ele>48.573577</ele>
        <time>2022-12-15T14:30:50.631Z</time>
      </trkpt>
      <trkpt lat="47.50398" lon="-1.93198">
        <ele>48.543688</ele>
        <time>2022-12-15T14:30:53.612Z</time>
      </trkpt>
      <trkpt lat="47.50388" lon="-1.93209">
        <ele>48.499354</ele>
        <time>2022-12-15T14:30:56.622Z</time>
      </trkpt>
      <trkpt lat="47.5038" lon="-1.93215">
        <ele>48.377901</ele>
        <time>2022-12-15T14:30:58.620Z</time>
      </trkpt>
      <trkpt lat="47.50371" lon="-1.93221">
        <ele>48.247519</ele>
        <time>2022-12-15T14:31:00.628Z</time>
      </trkpt>
      <trkpt lat="47.50361" lon="-1.93227">
        <ele>48.109103</ele>
        <time>2022-12-15T14:31:02.613Z</time>
      </trkpt>
      <trkpt lat="47.50352" lon="-1.93233">
        <ele>47.971304</ele>
        <time>2022-12-15T14:31:04.631Z</time>
      </trkpt>
      <trkpt lat="47.50343" lon="-1.93238">
        <ele>47.84473</ele>
        <time>2022-12-15T14:31:06.630Z</time>
      </trkpt>
      <trkpt lat="47.50334" lon="-1.93244">
        <ele>47.708676</ele>
        <time>2022-12-15T14:31:08.624Z</time>
      </trkpt>
      <trkpt lat="47.50323" lon="-1.93252">
        <ele>47.548894</ele>
        <time>2022-12-15T14:31:10.631Z</time>
      </trkpt>
      <trkpt lat="47.50314" lon="-1.93259">
        <ele>47.405263</ele>
        <time>2022-12-15T14:31:12.635Z</time>
      </trkpt>
      <trkpt lat="47.50305" lon="-1.93265">
        <ele>47.274881</ele>
        <time>2022-12-15T14:31:14.628Z</time>
      </trkpt>
      <trkpt lat="47.50294" lon="-1.93272">
        <ele>47.105763</ele>
        <time>2022-12-15T14:31:17.629Z</time>
      </trkpt>
      <trkpt lat="47.50283" lon="-1.93278">
        <ele>46.958617</ele>
        <time>2022-12-15T14:31:20.631Z</time>
      </trkpt>
      <trkpt lat="47.50273" lon="-1.93283">
        <ele>46.803773</ele>
        <time>2022-12-15T14:31:23.631Z</time>
      </trkpt>
      <trkpt lat="47.5026" lon="-1.93289">
        <ele>46.623889</ele>
        <time>2022-12-15T14:31:26.632Z</time>
      </trkpt>
      <trkpt lat="47.50248" lon="-1.93293">
        <ele>46.460093</ele>
        <time>2022-12-15T14:31:29.630Z</time>
      </trkpt>
      <trkpt lat="47.50235" lon="-1.93297">
        <ele>46.284416</ele>
        <time>2022-12-15T14:31:32.623Z</time>
      </trkpt>
      <trkpt lat="47.50225" lon="-1.93301">
        <ele>46.14128</ele>
        <time>2022-12-15T14:31:35.626Z</time>
      </trkpt>
      <trkpt lat="47.50213" lon="-1.93305">
        <ele>46.136184</ele>
        <time>2022-12-15T14:31:38.618Z</time>
      </trkpt>
      <trkpt lat="47.50204" lon="-1.93308">
        <ele>46.185238</ele>
        <time>2022-12-15T14:31:40.624Z</time>
      </trkpt>
      <trkpt lat="47.50195" lon="-1.93311">
        <ele>46.238388</ele>
        <time>2022-12-15T14:31:42.631Z</time>
      </trkpt>
      <trkpt lat="47.50183" lon="-1.93314">
        <ele>46.301707</ele>
        <time>2022-12-15T14:31:44.616Z</time>
      </trkpt>
      <trkpt lat="47.50173" lon="-1.93317">
        <ele>46.355855</ele>
        <time>2022-12-15T14:31:46.608Z</time>
      </trkpt>
      <trkpt lat="47.50163" lon="-1.93319">
        <ele>46.411655</ele>
        <time>2022-12-15T14:31:48.616Z</time>
      </trkpt>
      <trkpt lat="47.50153" lon="-1.9332">
        <ele>46.467702</ele>
        <time>2022-12-15T14:31:50.622Z</time>
      </trkpt>
      <trkpt lat="47.5014" lon="-1.93321">
        <ele>46.537546</ele>
        <time>2022-12-15T14:31:53.629Z</time>
      </trkpt>
      <trkpt lat="47.50131" lon="-1.93321">
        <ele>46.587088</ele>
        <time>2022-12-15T14:31:55.625Z</time>
      </trkpt>
      <trkpt lat="47.50121" lon="-1.9332">
        <ele>46.643639</ele>
        <time>2022-12-15T14:31:58.628Z</time>
      </trkpt>
      <trkpt lat="47.50108" lon="-1.93319">
        <ele>46.711166</ele>
        <time>2022-12-15T14:32:01.612Z</time>
      </trkpt>
      <trkpt lat="47.50096" lon="-1.93317">
        <ele>46.777636</ele>
        <time>2022-12-15T14:32:04.636Z</time>
      </trkpt>
      <trkpt lat="47.50083" lon="-1.93316">
        <ele>46.84955</ele>
        <time>2022-12-15T14:32:07.631Z</time>
      </trkpt>
      <trkpt lat="47.50074" lon="-1.93315">
        <ele>46.89855</ele>
        <time>2022-12-15T14:32:09.620Z</time>
      </trkpt>
      <trkpt lat="47.50064" lon="-1.93314">
        <ele>46.95026</ele>
        <time>2022-12-15T14:32:11.608Z</time>
      </trkpt>
      <trkpt lat="47.50051" lon="-1.93312">
        <ele>47.020521</ele>
        <time>2022-12-15T14:32:14.625Z</time>
      </trkpt>
      <trkpt lat="47.50039" lon="-1.93314">
        <ele>47.069406</ele>
        <time>2022-12-15T14:32:16.621Z</time>
      </trkpt>
      <trkpt lat="47.50029" lon="-1.93314">
        <ele>47.076377</ele>
        <time>2022-12-15T14:32:18.616Z</time>
      </trkpt>
      <trkpt lat="47.50018" lon="-1.93316">
        <ele>47.083994</ele>
        <time>2022-12-15T14:32:20.637Z</time>
      </trkpt>
      <trkpt lat="47.50008" lon="-1.93317">
        <ele>47.091101</ele>
        <time>2022-12-15T14:32:22.626Z</time>
      </trkpt>
      <trkpt lat="47.49997" lon="-1.93316">
        <ele>47.098909</ele>
        <time>2022-12-15T14:32:24.629Z</time>
      </trkpt>
      <trkpt lat="47.49987" lon="-1.93314">
        <ele>47.105978</ele>
        <time>2022-12-15T14:32:26.617Z</time>
      </trkpt>
      <trkpt lat="47.49976" lon="-1.93311">
        <ele>47.113376</ele>
        <time>2022-12-15T14:32:28.622Z</time>
      </trkpt>
      <trkpt lat="47.49967" lon="-1.93307">
        <ele>47.119852</ele>
        <time>2022-12-15T14:32:30.622Z</time>
      </trkpt>
      <trkpt lat="47.49958" lon="-1.93302">
        <ele>47.126472</ele>
        <time>2022-12-15T14:32:32.636Z</time>
      </trkpt>
      <trkpt lat="47.49949" lon="-1.93294">
        <ele>47.133447</ele>
        <time>2022-12-15T14:32:34.626Z</time>
      </trkpt>
      <trkpt lat="47.49938" lon="-1.93285">
        <ele>47.142272</ele>
        <time>2022-12-15T14:32:37.618Z</time>
      </trkpt>
      <trkpt lat="47.49928" lon="-1.93275">
        <ele>47.150729</ele>
        <time>2022-12-15T14:32:40.624Z</time>
      </trkpt>
      <trkpt lat="47.4992" lon="-1.93269">
        <ele>47.157162</ele>
        <time>2022-12-15T14:32:42.628Z</time>
      </trkpt>
      <trkpt lat="47.49912" lon="-1.93261">
        <ele>47.163639</ele>
        <time>2022-12-15T14:32:44.627Z</time>
      </trkpt>
      <trkpt lat="47.49902" lon="-1.93254">
        <ele>47.171082</ele>
        <time>2022-12-15T14:32:46.619Z</time>
      </trkpt>
      <trkpt lat="47.49894" lon="-1.93247">
        <ele>47.177869</ele>
        <time>2022-12-15T14:32:48.624Z</time>
      </trkpt>
      <trkpt lat="47.49884" lon="-1.9324">
        <ele>47.184894</ele>
        <time>2022-12-15T14:32:50.620Z</time>
      </trkpt>
      <trkpt lat="47.49875" lon="-1.93232">
        <ele>47.169283</ele>
        <time>2022-12-15T14:32:52.633Z</time>
      </trkpt>
      <trkpt lat="47.49866" lon="-1.93224">
        <ele>47.056974</ele>
        <time>2022-12-15T14:32:54.622Z</time>
      </trkpt>
      <trkpt lat="47.49857" lon="-1.93217">
        <ele>46.946222</ele>
        <time>2022-12-15T14:32:56.630Z</time>
      </trkpt>
      <trkpt lat="47.49848" lon="-1.93209">
        <ele>46.837864</ele>
        <time>2022-12-15T14:32:58.641Z</time>
      </trkpt>
      <trkpt lat="47.4984" lon="-1.93202">
        <ele>46.735889</ele>
        <time>2022-12-15T14:33:00.636Z</time>
      </trkpt>
      <trkpt lat="47.49831" lon="-1.93194">
        <ele>46.626899</ele>
        <time>2022-12-15T14:33:02.611Z</time>
      </trkpt>
      <trkpt lat="47.49823" lon="-1.93186">
        <ele>46.519033</ele>
        <time>2022-12-15T14:33:04.613Z</time>
      </trkpt>
      <trkpt lat="47.49815" lon="-1.93177">
        <ele>46.411175</ele>
        <time>2022-12-15T14:33:06.615Z</time>
      </trkpt>
      <trkpt lat="47.49808" lon="-1.93168">
        <ele>46.307736</ele>
        <time>2022-12-15T14:33:08.626Z</time>
      </trkpt>
      <trkpt lat="47.49799" lon="-1.9316">
        <ele>46.201863</ele>
        <time>2022-12-15T14:33:10.615Z</time>
      </trkpt>
      <trkpt lat="47.49791" lon="-1.93154">
        <ele>46.097467</ele>
        <time>2022-12-15T14:33:12.644Z</time>
      </trkpt>
      <trkpt lat="47.4978" lon="-1.93142">
        <ele>45.952023</ele>
        <time>2022-12-15T14:33:15.632Z</time>
      </trkpt>
      <trkpt lat="47.49772" lon="-1.93128">
        <ele>45.819024</ele>
        <time>2022-12-15T14:33:18.611Z</time>
      </trkpt>
      <trkpt lat="47.49766" lon="-1.93117">
        <ele>45.717409</ele>
        <time>2022-12-15T14:33:20.628Z</time>
      </trkpt>
      <trkpt lat="47.4976" lon="-1.931">
        <ele>45.577645</ele>
        <time>2022-12-15T14:33:23.611Z</time>
      </trkpt>
      <trkpt lat="47.49758" lon="-1.9308">
        <ele>45.430937</ele>
        <time>2022-12-15T14:33:26.618Z</time>
      </trkpt>
      <trkpt lat="47.49755" lon="-1.9306">
        <ele>45.283264</ele>
        <time>2022-12-15T14:33:29.630Z</time>
      </trkpt>
      <trkpt lat="47.49754" lon="-1.93046">
        <ele>45.088743</ele>
        <time>2022-12-15T14:33:31.643Z</time>
      </trkpt>
      <trkpt lat="47.49753" lon="-1.93032">
        <ele>44.863504</ele>
        <time>2022-12-15T14:33:33.635Z</time>
      </trkpt>
      <trkpt lat="47.49751" lon="-1.93017">
        <ele>44.620986</ele>
        <time>2022-12-15T14:33:35.634Z</time>
      </trkpt>
      <trkpt lat="47.4975" lon="-1.93003">
        <ele>44.40745</ele>
        <time>2022-12-15T14:33:37.612Z</time>
      </trkpt>
      <trkpt lat="47.49748" lon="-1.92984">
        <ele>44.101628</ele>
        <time>2022-12-15T14:33:40.627Z</time>
      </trkpt>
      <trkpt lat="47.49747" lon="-1.92965">
        <ele>43.794508</ele>
        <time>2022-12-15T14:33:43.626Z</time>
      </trkpt>
      <trkpt lat="47.49744" lon="-1.92946">
        <ele>43.48268</ele>
        <time>2022-12-15T14:33:46.624Z</time>
      </trkpt>
      <trkpt lat="47.49743" lon="-1.92929">
        <ele>43.219848</ele>
        <time>2022-12-15T14:33:49.617Z</time>
      </trkpt>
      <trkpt lat="47.4974" lon="-1.92911">
        <ele>42.927364</ele>
        <time>2022-12-15T14:33:52.619Z</time>
      </trkpt>
      <trkpt lat="47.49738" lon="-1.92895">
        <ele>42.662279</ele>
        <time>2022-12-15T14:33:55.612Z</time>
      </trkpt>
      <trkpt lat="47.49735" lon="-1.92881">
        <ele>42.420467</ele>
        <time>2022-12-15T14:33:57.617Z</time>
      </trkpt>
      <trkpt lat="47.49731" lon="-1.92861">
        <ele>42.095797</ele>
        <time>2022-12-15T14:34:00.625Z</time>
      </trkpt>
      <trkpt lat="47.49728" lon="-1.92846">
        <ele>41.854927</ele>
        <time>2022-12-15T14:34:02.635Z</time>
      </trkpt>
      <trkpt lat="47.49726" lon="-1.92832">
        <ele>41.626529</ele>
        <time>2022-12-15T14:34:04.618Z</time>
      </trkpt>
      <trkpt lat="47.49724" lon="-1.92812">
        <ele>41.303343</ele>
        <time>2022-12-15T14:34:07.639Z</time>
      </trkpt>
      <trkpt lat="47.49723" lon="-1.92799">
        <ele>41.087543</ele>
        <time>2022-12-15T14:34:09.636Z</time>
      </trkpt>
      <trkpt lat="47.49721" lon="-1.92779">
        <ele>41.260817</ele>
        <time>2022-12-15T14:34:12.632Z</time>
      </trkpt>
      <trkpt lat="47.49721" lon="-1.9276">
        <ele>41.554925</ele>
        <time>2022-12-15T14:34:15.635Z</time>
      </trkpt>
      <trkpt lat="47.4972" lon="-1.92746">
        <ele>41.762511</ele>
        <time>2022-12-15T14:34:17.630Z</time>
      </trkpt>
      <trkpt lat="47.49721" lon="-1.92732">
        <ele>41.968523</ele>
        <time>2022-12-15T14:34:19.618Z</time>
      </trkpt>
      <trkpt lat="47.4972" lon="-1.92719">
        <ele>42.171569</ele>
        <time>2022-12-15T14:34:21.634Z</time>
      </trkpt>
      <trkpt lat="47.49719" lon="-1.92706">
        <ele>42.374232</ele>
        <time>2022-12-15T14:34:23.633Z</time>
      </trkpt>
      <trkpt lat="47.49719" lon="-1.92687">
        <ele>42.654545</ele>
        <time>2022-12-15T14:34:26.621Z</time>
      </trkpt>
      <trkpt lat="47.49719" lon="-1.92668">
        <ele>42.94684</ele>
        <time>2022-12-15T14:34:29.646Z</time>
      </trkpt>
      <trkpt lat="47.49718" lon="-1.92648">
        <ele>43.246201</ele>
        <time>2022-12-15T14:34:32.635Z</time>
      </trkpt>
      <trkpt lat="47.49718" lon="-1.92632">
        <ele>43.499111</ele>
        <time>2022-12-15T14:34:35.632Z</time>
      </trkpt>
      <trkpt lat="47.49717" lon="-1.92616">
        <ele>43.729578</ele>
        <time>2022-12-15T14:34:38.650Z</time>
      </trkpt>
      <trkpt lat="47.49717" lon="-1.92599">
        <ele>43.985675</ele>
        <time>2022-12-15T14:34:42.641Z</time>
      </trkpt>
      <trkpt lat="47.49718" lon="-1.92583">
        <ele>44.23362</ele>
        <time>2022-12-15T14:34:47.637Z</time>
      </trkpt>
      <trkpt lat="47.49718" lon="-1.92569">
        <ele>44.453773</ele>
        <time>2022-12-15T14:34:51.615Z</time>
      </trkpt>
      <trkpt lat="47.49717" lon="-1.92552">
        <ele>44.702636</ele>
        <time>2022-12-15T14:34:54.630Z</time>
      </trkpt>
      <trkpt lat="47.49716" lon="-1.92536">
        <ele>44.943806</ele>
        <time>2022-12-15T14:34:56.619Z</time>
      </trkpt>
      <trkpt lat="47.49716" lon="-1.92521">
        <ele>45.08283</ele>
        <time>2022-12-15T14:34:58.614Z</time>
      </trkpt>
      <trkpt lat="47.49716" lon="-1.92505">
        <ele>45.133712</ele>
        <time>2022-12-15T14:35:00.634Z</time>
      </trkpt>
      <trkpt lat="47.49716" lon="-1.92492">
        <ele>45.178987</ele>
        <time>2022-12-15T14:35:02.622Z</time>
      </trkpt>
      <trkpt lat="47.49717" lon="-1.92473">
        <ele>45.241951</ele>
        <time>2022-12-15T14:35:05.631Z</time>
      </trkpt>
      <trkpt lat="47.49719" lon="-1.92456">
        <ele>45.297336</ele>
        <time>2022-12-15T14:35:08.618Z</time>
      </trkpt>
      <trkpt lat="47.49721" lon="-1.92443">
        <ele>45.34262</ele>
        <time>2022-12-15T14:35:11.619Z</time>
      </trkpt>
      <trkpt lat="47.49723" lon="-1.92426">
        <ele>45.400748</ele>
        <time>2022-12-15T14:35:15.632Z</time>
      </trkpt>
      <trkpt lat="47.49727" lon="-1.92411">
        <ele>45.450834</ele>
        <time>2022-12-15T14:35:18.626Z</time>
      </trkpt>
      <trkpt lat="47.4973" lon="-1.92395">
        <ele>45.505246</ele>
        <time>2022-12-15T14:35:21.634Z</time>
      </trkpt>
      <trkpt lat="47.49732" lon="-1.92378">
        <ele>45.564021</ele>
        <time>2022-12-15T14:35:24.631Z</time>
      </trkpt>
      <trkpt lat="47.49736" lon="-1.92362">
        <ele>45.618486</ele>
        <time>2022-12-15T14:35:27.615Z</time>
      </trkpt>
      <trkpt lat="47.49738" lon="-1.92347">
        <ele>45.669851</ele>
        <time>2022-12-15T14:35:30.639Z</time>
      </trkpt>
      <trkpt lat="47.49741" lon="-1.92333">
        <ele>45.720902</ele>
        <time>2022-12-15T14:35:34.622Z</time>
      </trkpt>
      <trkpt lat="47.49746" lon="-1.9231">
        <ele>45.800119</ele>
        <time>2022-12-15T14:36:41.623Z</time>
      </trkpt>
      <trkpt lat="47.49748" lon="-1.92293">
        <ele>45.855992</ele>
        <time>2022-12-15T14:36:45.620Z</time>
      </trkpt>
      <trkpt lat="47.49751" lon="-1.9228">
        <ele>45.901242</ele>
        <time>2022-12-15T14:36:48.615Z</time>
      </trkpt>
      <trkpt lat="47.49755" lon="-1.92266">
        <ele>45.975614</ele>
        <time>2022-12-15T14:36:51.625Z</time>
      </trkpt>
      <trkpt lat="47.49759" lon="-1.92251">
        <ele>46.119748</ele>
        <time>2022-12-15T14:36:54.636Z</time>
      </trkpt>
      <trkpt lat="47.49764" lon="-1.92235">
        <ele>46.2703</ele>
        <time>2022-12-15T14:36:57.633Z</time>
      </trkpt>
      <trkpt lat="47.49768" lon="-1.92218">
        <ele>46.429035</ele>
        <time>2022-12-15T14:37:00.636Z</time>
      </trkpt>
      <trkpt lat="47.49772" lon="-1.922">
        <ele>46.591293</ele>
        <time>2022-12-15T14:37:03.636Z</time>
      </trkpt>
      <trkpt lat="47.49776" lon="-1.92183">
        <ele>46.745428</ele>
        <time>2022-12-15T14:37:06.633Z</time>
      </trkpt>
      <trkpt lat="47.4978" lon="-1.92167">
        <ele>46.895062</ele>
        <time>2022-12-15T14:37:09.644Z</time>
      </trkpt>
      <trkpt lat="47.49785" lon="-1.92153">
        <ele>47.030675</ele>
        <time>2022-12-15T14:37:12.639Z</time>
      </trkpt>
      <trkpt lat="47.4979" lon="-1.92136">
        <ele>47.193731</ele>
        <time>2022-12-15T14:37:15.629Z</time>
      </trkpt>
      <trkpt lat="47.49795" lon="-1.92117">
        <ele>47.363433</ele>
        <time>2022-12-15T14:37:18.624Z</time>
      </trkpt>
      <trkpt lat="47.49799" lon="-1.92101">
        <ele>47.512542</ele>
        <time>2022-12-15T14:37:21.635Z</time>
      </trkpt>
      <trkpt lat="47.49804" lon="-1.92083">
        <ele>47.679598</ele>
        <time>2022-12-15T14:37:24.637Z</time>
      </trkpt>
      <trkpt lat="47.49809" lon="-1.92066">
        <ele>47.840565</ele>
        <time>2022-12-15T14:37:27.612Z</time>
      </trkpt>
      <trkpt lat="47.49812" lon="-1.92053">
        <ele>47.960625</ele>
        <time>2022-12-15T14:37:29.633Z</time>
      </trkpt>
      <trkpt lat="47.49815" lon="-1.9204">
        <ele>48.08232</ele>
        <time>2022-12-15T14:37:31.624Z</time>
      </trkpt>
      <trkpt lat="47.49819" lon="-1.92025">
        <ele>48.21795</ele>
        <time>2022-12-15T14:37:33.629Z</time>
      </trkpt>
      <trkpt lat="47.49822" lon="-1.92011">
        <ele>48.252122</ele>
        <time>2022-12-15T14:37:35.630Z</time>
      </trkpt>
      <trkpt lat="47.49824" lon="-1.91997">
        <ele>48.267931</ele>
        <time>2022-12-15T14:37:37.628Z</time>
      </trkpt>
      <trkpt lat="47.49829" lon="-1.91977">
        <ele>48.290999</ele>
        <time>2022-12-15T14:37:40.630Z</time>
      </trkpt>
      <trkpt lat="47.49831" lon="-1.91962">
        <ele>48.308042</ele>
        <time>2022-12-15T14:37:42.619Z</time>
      </trkpt>
      <trkpt lat="47.49832" lon="-1.91948">
        <ele>48.323817</ele>
        <time>2022-12-15T14:37:44.632Z</time>
      </trkpt>
      <trkpt lat="47.49834" lon="-1.91929">
        <ele>48.344945</ele>
        <time>2022-12-15T14:37:47.646Z</time>
      </trkpt>
      <trkpt lat="47.49838" lon="-1.91909">
        <ele>48.367998</ele>
        <time>2022-12-15T14:37:50.635Z</time>
      </trkpt>
      <trkpt lat="47.49839" lon="-1.91894">
        <ele>48.383733</ele>
        <time>2022-12-15T14:37:52.622Z</time>
      </trkpt>
      <trkpt lat="47.49841" lon="-1.91879">
        <ele>48.401345</ele>
        <time>2022-12-15T14:37:54.634Z</time>
      </trkpt>
      <trkpt lat="47.49842" lon="-1.91865">
        <ele>48.416821</ele>
        <time>2022-12-15T14:37:56.634Z</time>
      </trkpt>
      <trkpt lat="47.49844" lon="-1.91848">
        <ele>48.435354</ele>
        <time>2022-12-15T14:37:58.632Z</time>
      </trkpt>
      <trkpt lat="47.49846" lon="-1.91834">
        <ele>48.45136</ele>
        <time>2022-12-15T14:38:00.622Z</time>
      </trkpt>
      <trkpt lat="47.49848" lon="-1.91819">
        <ele>48.468214</ele>
        <time>2022-12-15T14:38:02.633Z</time>
      </trkpt>
      <trkpt lat="47.49851" lon="-1.91805">
        <ele>48.483992</ele>
        <time>2022-12-15T14:38:04.643Z</time>
      </trkpt>
      <trkpt lat="47.49853" lon="-1.91792">
        <ele>48.499156</ele>
        <time>2022-12-15T14:38:06.643Z</time>
      </trkpt>
      <trkpt lat="47.49854" lon="-1.91778">
        <ele>48.51418</ele>
        <time>2022-12-15T14:38:08.639Z</time>
      </trkpt>
      <trkpt lat="47.49854" lon="-1.91764">
        <ele>48.529835</ele>
        <time>2022-12-15T14:38:10.617Z</time>
      </trkpt>
      <trkpt lat="47.49853" lon="-1.91749">
        <ele>48.420298</ele>
        <time>2022-12-15T14:38:12.640Z</time>
      </trkpt>
      <trkpt lat="47.49854" lon="-1.91733">
        <ele>48.293469</ele>
        <time>2022-12-15T14:38:14.633Z</time>
      </trkpt>
      <trkpt lat="47.49852" lon="-1.91718">
        <ele>48.164276</ele>
        <time>2022-12-15T14:38:16.635Z</time>
      </trkpt>
      <trkpt lat="47.4985" lon="-1.91703">
        <ele>48.047029</ele>
        <time>2022-12-15T14:38:18.639Z</time>
      </trkpt>
      <trkpt lat="47.49848" lon="-1.91688">
        <ele>47.917046</ele>
        <time>2022-12-15T14:38:20.636Z</time>
      </trkpt>
      <trkpt lat="47.49844" lon="-1.91673">
        <ele>47.791129</ele>
        <time>2022-12-15T14:38:22.641Z</time>
      </trkpt>
      <trkpt lat="47.49839" lon="-1.91658">
        <ele>47.658765</ele>
        <time>2022-12-15T14:38:24.632Z</time>
      </trkpt>
      <trkpt lat="47.49834" lon="-1.91645">
        <ele>47.538991</ele>
        <time>2022-12-15T14:38:26.619Z</time>
      </trkpt>
      <trkpt lat="47.49829" lon="-1.91626">
        <ele>47.37234</ele>
        <time>2022-12-15T14:38:29.630Z</time>
      </trkpt>
      <trkpt lat="47.49824" lon="-1.91613">
        <ele>47.251504</ele>
        <time>2022-12-15T14:38:31.629Z</time>
      </trkpt>
      <trkpt lat="47.4982" lon="-1.91599">
        <ele>47.130131</ele>
        <time>2022-12-15T14:38:33.614Z</time>
      </trkpt>
      <trkpt lat="47.49815" lon="-1.91587">
        <ele>47.012897</ele>
        <time>2022-12-15T14:38:35.631Z</time>
      </trkpt>
      <trkpt lat="47.49811" lon="-1.91573">
        <ele>46.894345</ele>
        <time>2022-12-15T14:38:37.619Z</time>
      </trkpt>
      <trkpt lat="47.49807" lon="-1.91561">
        <ele>46.782671</ele>
        <time>2022-12-15T14:38:39.616Z</time>
      </trkpt>
      <trkpt lat="47.49802" lon="-1.91548">
        <ele>46.669215</ele>
        <time>2022-12-15T14:38:41.644Z</time>
      </trkpt>
      <trkpt lat="47.49798" lon="-1.91535">
        <ele>46.551262</ele>
        <time>2022-12-15T14:38:43.632Z</time>
      </trkpt>
      <trkpt lat="47.49793" lon="-1.91522">
        <ele>46.429889</ele>
        <time>2022-12-15T14:38:45.639Z</time>
      </trkpt>
      <trkpt lat="47.49789" lon="-1.91508">
        <ele>46.388356</ele>
        <time>2022-12-15T14:38:47.638Z</time>
      </trkpt>
      <trkpt lat="47.49784" lon="-1.91495">
        <ele>46.398465</ele>
        <time>2022-12-15T14:38:49.637Z</time>
      </trkpt>
      <trkpt lat="47.49779" lon="-1.91482">
        <ele>46.408241</ele>
        <time>2022-12-15T14:38:51.642Z</time>
      </trkpt>
      <trkpt lat="47.49775" lon="-1.91469">
        <ele>46.418182</ele>
        <time>2022-12-15T14:38:53.642Z</time>
      </trkpt>
      <trkpt lat="47.4977" lon="-1.91456">
        <ele>46.428139</ele>
        <time>2022-12-15T14:38:55.622Z</time>
      </trkpt>
      <trkpt lat="47.49766" lon="-1.91444">
        <ele>46.437337</ele>
        <time>2022-12-15T14:38:57.617Z</time>
      </trkpt>
      <trkpt lat="47.49762" lon="-1.91431">
        <ele>46.447126</ele>
        <time>2022-12-15T14:38:59.614Z</time>
      </trkpt>
      <trkpt lat="47.49756" lon="-1.91414">
        <ele>46.460514</ele>
        <time>2022-12-15T14:39:02.636Z</time>
      </trkpt>
      <trkpt lat="47.4975" lon="-1.91398">
        <ele>46.472809</ele>
        <time>2022-12-15T14:39:05.630Z</time>
      </trkpt>
      <trkpt lat="47.49746" lon="-1.91385">
        <ele>46.482295</ele>
        <time>2022-12-15T14:39:08.630Z</time>
      </trkpt>
      <trkpt lat="47.49742" lon="-1.91373">
        <ele>46.491396</ele>
        <time>2022-12-15T14:39:10.620Z</time>
      </trkpt>
      <trkpt lat="47.49736" lon="-1.91356">
        <ele>46.504269</ele>
        <time>2022-12-15T14:39:13.632Z</time>
      </trkpt>
      <trkpt lat="47.49729" lon="-1.9134">
        <ele>46.517586</ele>
        <time>2022-12-15T14:39:16.619Z</time>
      </trkpt>
      <trkpt lat="47.49722" lon="-1.91325">
        <ele>46.530049</ele>
        <time>2022-12-15T14:39:19.629Z</time>
      </trkpt>
      <trkpt lat="47.49714" lon="-1.9131">
        <ele>46.543076</ele>
        <time>2022-12-15T14:39:22.613Z</time>
      </trkpt>
      <trkpt lat="47.49705" lon="-1.91296">
        <ele>46.556277</ele>
        <time>2022-12-15T14:39:25.625Z</time>
      </trkpt>
      <trkpt lat="47.49696" lon="-1.91284">
        <ele>46.570724</ele>
        <time>2022-12-15T14:39:28.621Z</time>
      </trkpt>
      <trkpt lat="47.49685" lon="-1.91275">
        <ele>46.587446</ele>
        <time>2022-12-15T14:39:31.638Z</time>
      </trkpt>
      <trkpt lat="47.49674" lon="-1.91266">
        <ele>46.605127</ele>
        <time>2022-12-15T14:39:34.638Z</time>
      </trkpt>
      <trkpt lat="47.49662" lon="-1.91258">
        <ele>46.623624</ele>
        <time>2022-12-15T14:39:37.632Z</time>
      </trkpt>
      <trkpt lat="47.4965" lon="-1.91249">
        <ele>46.642162</ele>
        <time>2022-12-15T14:39:40.624Z</time>
      </trkpt>
      <trkpt lat="47.49639" lon="-1.91241">
        <ele>46.660241</ele>
        <time>2022-12-15T14:39:43.632Z</time>
      </trkpt>
      <trkpt lat="47.49628" lon="-1.91233">
        <ele>46.67707</ele>
        <time>2022-12-15T14:39:46.634Z</time>
      </trkpt>
      <trkpt lat="47.49617" lon="-1.91225">
        <ele>46.693914</ele>
        <time>2022-12-15T14:39:49.633Z</time>
      </trkpt>
      <trkpt lat="47.49606" lon="-1.91214">
        <ele>46.712088</ele>
        <time>2022-12-15T14:39:52.612Z</time>
      </trkpt>
      <trkpt lat="47.49596" lon="-1.91201">
        <ele>46.730196</ele>
        <time>2022-12-15T14:39:55.615Z</time>
      </trkpt>
      <trkpt lat="47.49589" lon="-1.91187">
        <ele>46.747046</ele>
        <time>2022-12-15T14:39:58.612Z</time>
      </trkpt>
      <trkpt lat="47.49581" lon="-1.91172">
        <ele>46.765383</ele>
        <time>2022-12-15T14:40:01.625Z</time>
      </trkpt>
      <trkpt lat="47.49574" lon="-1.91155">
        <ele>46.784039</ele>
        <time>2022-12-15T14:40:04.630Z</time>
      </trkpt>
      <trkpt lat="47.49569" lon="-1.91143">
        <ele>46.797145</ele>
        <time>2022-12-15T14:40:06.629Z</time>
      </trkpt>
      <trkpt lat="47.49564" lon="-1.91132">
        <ele>46.809865</ele>
        <time>2022-12-15T14:40:08.636Z</time>
      </trkpt>
      <trkpt lat="47.49558" lon="-1.91122">
        <ele>46.859641</ele>
        <time>2022-12-15T14:40:10.630Z</time>
      </trkpt>
      <trkpt lat="47.49548" lon="-1.91109">
        <ele>46.952518</ele>
        <time>2022-12-15T14:40:13.620Z</time>
      </trkpt>
      <trkpt lat="47.4954" lon="-1.91099">
        <ele>47.030586</ele>
        <time>2022-12-15T14:40:16.617Z</time>
      </trkpt>
      <trkpt lat="47.49531" lon="-1.91092">
        <ele>47.101051</ele>
        <time>2022-12-15T14:40:19.614Z</time>
      </trkpt>
      <trkpt lat="47.4952" lon="-1.91085">
        <ele>47.18529</ele>
        <time>2022-12-15T14:40:22.619Z</time>
      </trkpt>
      <trkpt lat="47.49511" lon="-1.91081">
        <ele>47.259101</ele>
        <time>2022-12-15T14:40:25.633Z</time>
      </trkpt>
      <trkpt lat="47.49499" lon="-1.91076">
        <ele>47.347005</ele>
        <time>2022-12-15T14:40:28.631Z</time>
      </trkpt>
      <trkpt lat="47.49487" lon="-1.91072">
        <ele>47.435122</ele>
        <time>2022-12-15T14:40:31.637Z</time>
      </trkpt>
      <trkpt lat="47.49475" lon="-1.91067">
        <ele>47.525926</ele>
        <time>2022-12-15T14:40:34.623Z</time>
      </trkpt>
      <trkpt lat="47.49465" lon="-1.91065">
        <ele>47.59346</ele>
        <time>2022-12-15T14:40:36.632Z</time>
      </trkpt>
      <trkpt lat="47.49456" lon="-1.91064">
        <ele>47.66133</ele>
        <time>2022-12-15T14:40:38.616Z</time>
      </trkpt>
      <trkpt lat="47.49446" lon="-1.91064">
        <ele>47.730431</ele>
        <time>2022-12-15T14:40:40.621Z</time>
      </trkpt>
      <trkpt lat="47.49437" lon="-1.91064">
        <ele>47.798769</ele>
        <time>2022-12-15T14:40:42.618Z</time>
      </trkpt>
      <trkpt lat="47.49427" lon="-1.91064">
        <ele>47.870745</ele>
        <time>2022-12-15T14:40:44.634Z</time>
      </trkpt>
      <trkpt lat="47.49417" lon="-1.91064">
        <ele>47.940529</ele>
        <time>2022-12-15T14:40:46.671Z</time>
      </trkpt>
      <trkpt lat="47.49408" lon="-1.91064">
        <ele>48.008155</ele>
        <time>2022-12-15T14:40:48.626Z</time>
      </trkpt>
      <trkpt lat="47.49398" lon="-1.91064">
        <ele>48.078653</ele>
        <time>2022-12-15T14:40:50.627Z</time>
      </trkpt>
      <trkpt lat="47.49388" lon="-1.91065">
        <ele>48.10684</ele>
        <time>2022-12-15T14:40:52.633Z</time>
      </trkpt>
      <trkpt lat="47.49378" lon="-1.91065">
        <ele>48.105961</ele>
        <time>2022-12-15T14:40:54.635Z</time>
      </trkpt>
      <trkpt lat="47.49368" lon="-1.91065">
        <ele>48.105082</ele>
        <time>2022-12-15T14:40:56.633Z</time>
      </trkpt>
      <trkpt lat="47.49356" lon="-1.91066">
        <ele>48.103992</ele>
        <time>2022-12-15T14:40:59.620Z</time>
      </trkpt>
      <trkpt lat="47.49344" lon="-1.91067">
        <ele>48.102964</ele>
        <time>2022-12-15T14:41:02.628Z</time>
      </trkpt>
      <trkpt lat="47.49335" lon="-1.9107">
        <ele>48.102145</ele>
        <time>2022-12-15T14:41:05.638Z</time>
      </trkpt>
      <trkpt lat="47.49324" lon="-1.91074">
        <ele>48.101162</ele>
        <time>2022-12-15T14:41:08.630Z</time>
      </trkpt>
      <trkpt lat="47.49311" lon="-1.9108">
        <ele>48.099958</ele>
        <time>2022-12-15T14:41:11.636Z</time>
      </trkpt>
      <trkpt lat="47.49302" lon="-1.91086">
        <ele>48.099158</ele>
        <time>2022-12-15T14:41:13.638Z</time>
      </trkpt>
      <trkpt lat="47.49294" lon="-1.91093">
        <ele>48.098363</ele>
        <time>2022-12-15T14:41:15.640Z</time>
      </trkpt>
      <trkpt lat="47.49286" lon="-1.911">
        <ele>48.097538</ele>
        <time>2022-12-15T14:41:17.624Z</time>
      </trkpt>
      <trkpt lat="47.49279" lon="-1.91109">
        <ele>48.096688</ele>
        <time>2022-12-15T14:41:19.638Z</time>
      </trkpt>
      <trkpt lat="47.49272" lon="-1.91118">
        <ele>48.095891</ele>
        <time>2022-12-15T14:41:21.638Z</time>
      </trkpt>
      <trkpt lat="47.49265" lon="-1.91128">
        <ele>48.095048</ele>
        <time>2022-12-15T14:41:23.633Z</time>
      </trkpt>
      <trkpt lat="47.49258" lon="-1.91138">
        <ele>48.09422</ele>
        <time>2022-12-15T14:41:25.631Z</time>
      </trkpt>
      <trkpt lat="47.49251" lon="-1.91148">
        <ele>48.093371</ele>
        <time>2022-12-15T14:41:27.644Z</time>
      </trkpt>
      <trkpt lat="47.49244" lon="-1.91158">
        <ele>48.092549</ele>
        <time>2022-12-15T14:41:29.636Z</time>
      </trkpt>
      <trkpt lat="47.49234" lon="-1.91173">
        <ele>48.11863</ele>
        <time>2022-12-15T14:41:32.643Z</time>
      </trkpt>
      <trkpt lat="47.49228" lon="-1.91183">
        <ele>48.177869</ele>
        <time>2022-12-15T14:41:34.636Z</time>
      </trkpt>
      <trkpt lat="47.49221" lon="-1.91194">
        <ele>48.246092</ele>
        <time>2022-12-15T14:41:36.633Z</time>
      </trkpt>
      <trkpt lat="47.49214" lon="-1.91205">
        <ele>48.310176</ele>
        <time>2022-12-15T14:41:38.632Z</time>
      </trkpt>
      <trkpt lat="47.49206" lon="-1.91215">
        <ele>48.376211</ele>
        <time>2022-12-15T14:41:40.633Z</time>
      </trkpt>
      <trkpt lat="47.49197" lon="-1.91224">
        <ele>48.443352</ele>
        <time>2022-12-15T14:41:42.635Z</time>
      </trkpt>
      <trkpt lat="47.49189" lon="-1.91233">
        <ele>48.50905</ele>
        <time>2022-12-15T14:41:44.614Z</time>
      </trkpt>
      <trkpt lat="47.49181" lon="-1.91239">
        <ele>48.567972</ele>
        <time>2022-12-15T14:41:46.640Z</time>
      </trkpt>
      <trkpt lat="47.49172" lon="-1.91245">
        <ele>48.631372</ele>
        <time>2022-12-15T14:41:48.616Z</time>
      </trkpt>
      <trkpt lat="47.49163" lon="-1.91247">
        <ele>48.690221</ele>
        <time>2022-12-15T14:41:50.615Z</time>
      </trkpt>
      <trkpt lat="47.49153" lon="-1.91248">
        <ele>48.748509</ele>
        <time>2022-12-15T14:41:52.615Z</time>
      </trkpt>
      <trkpt lat="47.49144" lon="-1.91248">
        <ele>48.809337</ele>
        <time>2022-12-15T14:41:54.620Z</time>
      </trkpt>
      <trkpt lat="47.49135" lon="-1.91246">
        <ele>48.869535</ele>
        <time>2022-12-15T14:41:56.637Z</time>
      </trkpt>
      <trkpt lat="47.49125" lon="-1.91244">
        <ele>48.935062</ele>
        <time>2022-12-15T14:41:58.621Z</time>
      </trkpt>
      <trkpt lat="47.49115" lon="-1.91239">
        <ele>49.000593</ele>
        <time>2022-12-15T14:42:00.621Z</time>
      </trkpt>
      <trkpt lat="47.49105" lon="-1.91234">
        <ele>49.064363</ele>
        <time>2022-12-15T14:42:02.619Z</time>
      </trkpt>
      <trkpt lat="47.49097" lon="-1.91228">
        <ele>49.125001</ele>
        <time>2022-12-15T14:42:04.621Z</time>
      </trkpt>
      <trkpt lat="47.49088" lon="-1.91221">
        <ele>49.187758</ele>
        <time>2022-12-15T14:42:06.631Z</time>
      </trkpt>
      <trkpt lat="47.49079" lon="-1.91216">
        <ele>49.245471</ele>
        <time>2022-12-15T14:42:08.634Z</time>
      </trkpt>
      <trkpt lat="47.4907" lon="-1.91209">
        <ele>49.26356</ele>
        <time>2022-12-15T14:42:10.643Z</time>
      </trkpt>
      <trkpt lat="47.49061" lon="-1.91202">
        <ele>49.281282</ele>
        <time>2022-12-15T14:42:12.626Z</time>
      </trkpt>
      <trkpt lat="47.49052" lon="-1.91196">
        <ele>49.29927</ele>
        <time>2022-12-15T14:42:14.621Z</time>
      </trkpt>
      <trkpt lat="47.49043" lon="-1.9119">
        <ele>49.317638</ele>
        <time>2022-12-15T14:42:16.633Z</time>
      </trkpt>
      <trkpt lat="47.49034" lon="-1.91185">
        <ele>49.3356</ele>
        <time>2022-12-15T14:42:18.622Z</time>
      </trkpt>
      <trkpt lat="47.49024" lon="-1.91179">
        <ele>49.353639</ele>
        <time>2022-12-15T14:42:20.619Z</time>
      </trkpt>
      <trkpt lat="47.49011" lon="-1.91172">
        <ele>49.378195</ele>
        <time>2022-12-15T14:42:23.623Z</time>
      </trkpt>
      <trkpt lat="47.48999" lon="-1.91169">
        <ele>49.400389</ele>
        <time>2022-12-15T14:42:26.623Z</time>
      </trkpt>
      <trkpt lat="47.48987" lon="-1.91167">
        <ele>49.422043</ele>
        <time>2022-12-15T14:42:29.635Z</time>
      </trkpt>
      <trkpt lat="47.48975" lon="-1.91165">
        <ele>49.445237</ele>
        <time>2022-12-15T14:42:32.635Z</time>
      </trkpt>
      <trkpt lat="47.48961" lon="-1.91164">
        <ele>49.469644</ele>
        <time>2022-12-15T14:42:35.613Z</time>
      </trkpt>
      <trkpt lat="47.48952" lon="-1.91164">
        <ele>49.486077</ele>
        <time>2022-12-15T14:42:37.636Z</time>
      </trkpt>
      <trkpt lat="47.48943" lon="-1.91164">
        <ele>49.50251</ele>
        <time>2022-12-15T14:42:39.635Z</time>
      </trkpt>
      <trkpt lat="47.48929" lon="-1.91164">
        <ele>49.527071</ele>
        <time>2022-12-15T14:42:42.632Z</time>
      </trkpt>
      <trkpt lat="47.48916" lon="-1.91163">
        <ele>49.551516</ele>
        <time>2022-12-15T14:42:45.635Z</time>
      </trkpt>
      <trkpt lat="47.48906" lon="-1.91163">
        <ele>49.567238</ele>
        <time>2022-12-15T14:42:47.629Z</time>
      </trkpt>
      <trkpt lat="47.48896" lon="-1.91164">
        <ele>49.566178</ele>
        <time>2022-12-15T14:42:49.623Z</time>
      </trkpt>
      <trkpt lat="47.48886" lon="-1.91166">
        <ele>49.565216</ele>
        <time>2022-12-15T14:42:51.644Z</time>
      </trkpt>
      <trkpt lat="47.48874" lon="-1.91171">
        <ele>49.56388</ele>
        <time>2022-12-15T14:42:54.617Z</time>
      </trkpt>
      <trkpt lat="47.48861" lon="-1.91176">
        <ele>49.562484</ele>
        <time>2022-12-15T14:42:57.631Z</time>
      </trkpt>
      <trkpt lat="47.4885" lon="-1.91182">
        <ele>49.561257</ele>
        <time>2022-12-15T14:43:00.615Z</time>
      </trkpt>
      <trkpt lat="47.48839" lon="-1.91187">
        <ele>49.560087</ele>
        <time>2022-12-15T14:43:03.638Z</time>
      </trkpt>
      <trkpt lat="47.48829" lon="-1.91192">
        <ele>49.558982</ele>
        <time>2022-12-15T14:43:06.626Z</time>
      </trkpt>
      <trkpt lat="47.48818" lon="-1.91197">
        <ele>49.557786</ele>
        <time>2022-12-15T14:43:09.631Z</time>
      </trkpt>
      <trkpt lat="47.48807" lon="-1.91201">
        <ele>49.556622</ele>
        <time>2022-12-15T14:43:12.617Z</time>
      </trkpt>
      <trkpt lat="47.48795" lon="-1.91206">
        <ele>49.555373</ele>
        <time>2022-12-15T14:43:15.639Z</time>
      </trkpt>
      <trkpt lat="47.48783" lon="-1.91213">
        <ele>49.55408</ele>
        <time>2022-12-15T14:43:18.640Z</time>
      </trkpt>
      <trkpt lat="47.48773" lon="-1.91217">
        <ele>49.552978</ele>
        <time>2022-12-15T14:43:21.641Z</time>
      </trkpt>
      <trkpt lat="47.4876" lon="-1.91222">
        <ele>49.551621</ele>
        <time>2022-12-15T14:43:24.630Z</time>
      </trkpt>
      <trkpt lat="47.4875" lon="-1.91225">
        <ele>49.55055</ele>
        <time>2022-12-15T14:43:26.634Z</time>
      </trkpt>
      <trkpt lat="47.48741" lon="-1.91228">
        <ele>49.54953</ele>
        <time>2022-12-15T14:43:28.617Z</time>
      </trkpt>
      <trkpt lat="47.48729" lon="-1.91231">
        <ele>49.500809</ele>
        <time>2022-12-15T14:43:31.632Z</time>
      </trkpt>
      <trkpt lat="47.48718" lon="-1.91232">
        <ele>49.398646</ele>
        <time>2022-12-15T14:43:33.623Z</time>
      </trkpt>
      <trkpt lat="47.48706" lon="-1.91232">
        <ele>49.279565</ele>
        <time>2022-12-15T14:43:36.633Z</time>
      </trkpt>
      <trkpt lat="47.48697" lon="-1.91231">
        <ele>49.190144</ele>
        <time>2022-12-15T14:43:38.626Z</time>
      </trkpt>
      <trkpt lat="47.48686" lon="-1.91229">
        <ele>49.071031</ele>
        <time>2022-12-15T14:43:41.636Z</time>
      </trkpt>
      <trkpt lat="47.48675" lon="-1.91227">
        <ele>48.963383</ele>
        <time>2022-12-15T14:43:44.632Z</time>
      </trkpt>
      <trkpt lat="47.48664" lon="-1.91225">
        <ele>48.851818</ele>
        <time>2022-12-15T14:43:47.614Z</time>
      </trkpt>
      <trkpt lat="47.48652" lon="-1.91221">
        <ele>48.737453</ele>
        <time>2022-12-15T14:43:50.617Z</time>
      </trkpt>
      <trkpt lat="47.48639" lon="-1.91217">
        <ele>48.604076</ele>
        <time>2022-12-15T14:43:53.633Z</time>
      </trkpt>
      <trkpt lat="47.48627" lon="-1.91212">
        <ele>48.479874</ele>
        <time>2022-12-15T14:43:56.622Z</time>
      </trkpt>
      <trkpt lat="47.48619" lon="-1.91206">
        <ele>48.388395</ele>
        <time>2022-12-15T14:43:58.621Z</time>
      </trkpt>
      <trkpt lat="47.4861" lon="-1.91199">
        <ele>48.286402</ele>
        <time>2022-12-15T14:44:00.619Z</time>
      </trkpt>
      <trkpt lat="47.48601" lon="-1.91193">
        <ele>48.189405</ele>
        <time>2022-12-15T14:44:02.630Z</time>
      </trkpt>
      <trkpt lat="47.48592" lon="-1.91188">
        <ele>48.095042</ele>
        <time>2022-12-15T14:44:04.626Z</time>
      </trkpt>
      <trkpt lat="47.48584" lon="-1.91181">
        <ele>48.002464</ele>
        <time>2022-12-15T14:44:06.623Z</time>
      </trkpt>
      <trkpt lat="47.48575" lon="-1.91174">
        <ele>47.900471</ele>
        <time>2022-12-15T14:44:08.614Z</time>
      </trkpt>
      <trkpt lat="47.48566" lon="-1.91168">
        <ele>47.805269</ele>
        <time>2022-12-15T14:44:10.626Z</time>
      </trkpt>
      <trkpt lat="47.48557" lon="-1.91162">
        <ele>47.715547</ele>
        <time>2022-12-15T14:44:12.620Z</time>
      </trkpt>
      <trkpt lat="47.48549" lon="-1.91156">
        <ele>47.632146</ele>
        <time>2022-12-15T14:44:14.641Z</time>
      </trkpt>
      <trkpt lat="47.48538" lon="-1.91147">
        <ele>47.521469</ele>
        <time>2022-12-15T14:44:17.619Z</time>
      </trkpt>
      <trkpt lat="47.48528" lon="-1.9114">
        <ele>47.416985</ele>
        <time>2022-12-15T14:44:20.633Z</time>
      </trkpt>
      <trkpt lat="47.48518" lon="-1.91132">
        <ele>47.31738</ele>
        <time>2022-12-15T14:44:23.636Z</time>
      </trkpt>
      <trkpt lat="47.48508" lon="-1.91124">
        <ele>47.215734</ele>
        <time>2022-12-15T14:44:26.636Z</time>
      </trkpt>
      <trkpt lat="47.48498" lon="-1.91116">
        <ele>47.106152</ele>
        <time>2022-12-15T14:44:29.632Z</time>
      </trkpt>
      <trkpt lat="47.48486" lon="-1.91107">
        <ele>46.991662</ele>
        <time>2022-12-15T14:44:32.632Z</time>
      </trkpt>
      <trkpt lat="47.48475" lon="-1.91099">
        <ele>46.879341</ele>
        <time>2022-12-15T14:44:35.643Z</time>
      </trkpt>
      <trkpt lat="47.48464" lon="-1.9109">
        <ele>46.763389</ele>
        <time>2022-12-15T14:44:38.625Z</time>
      </trkpt>
      <trkpt lat="47.48454" lon="-1.91082">
        <ele>46.659727</ele>
        <time>2022-12-15T14:44:41.624Z</time>
      </trkpt>
      <trkpt lat="47.48446" lon="-1.91073">
        <ele>46.57146</ele>
        <time>2022-12-15T14:44:44.621Z</time>
      </trkpt>
      <trkpt lat="47.48439" lon="-1.91063">
        <ele>46.479736</ele>
        <time>2022-12-15T14:44:48.629Z</time>
      </trkpt>
      <trkpt lat="47.48433" lon="-1.91052">
        <ele>46.396519</ele>
        <time>2022-12-15T14:45:05.622Z</time>
      </trkpt>
      <trkpt lat="47.48425" lon="-1.91044">
        <ele>46.311924</ele>
        <time>2022-12-15T14:45:11.621Z</time>
      </trkpt>
      <trkpt lat="47.48417" lon="-1.91035">
        <ele>46.219736</ele>
        <time>2022-12-15T14:45:14.614Z</time>
      </trkpt>
      <trkpt lat="47.48409" lon="-1.91026">
        <ele>46.135886</ele>
        <time>2022-12-15T14:45:16.631Z</time>
      </trkpt>
      <trkpt lat="47.48402" lon="-1.91016">
        <ele>46.100045</ele>
        <time>2022-12-15T14:45:18.614Z</time>
      </trkpt>
      <trkpt lat="47.48394" lon="-1.91002">
        <ele>46.053945</ele>
        <time>2022-12-15T14:45:21.622Z</time>
      </trkpt>
      <trkpt lat="47.48388" lon="-1.90987">
        <ele>46.010129</ele>
        <time>2022-12-15T14:45:24.615Z</time>
      </trkpt>
      <trkpt lat="47.48382" lon="-1.90972">
        <ele>45.966528</ele>
        <time>2022-12-15T14:45:27.628Z</time>
      </trkpt>
      <trkpt lat="47.48377" lon="-1.90955">
        <ele>45.919015</ele>
        <time>2022-12-15T14:45:30.617Z</time>
      </trkpt>
      <trkpt lat="47.48372" lon="-1.90937">
        <ele>45.872797</ele>
        <time>2022-12-15T14:45:33.614Z</time>
      </trkpt>
      <trkpt lat="47.48369" lon="-1.90919">
        <ele>45.824742</ele>
        <time>2022-12-15T14:45:36.615Z</time>
      </trkpt>
      <trkpt lat="47.48367" lon="-1.90905">
        <ele>45.790951</ele>
        <time>2022-12-15T14:45:38.638Z</time>
      </trkpt>
      <trkpt lat="47.48367" lon="-1.90886">
        <ele>45.741138</ele>
        <time>2022-12-15T14:45:41.635Z</time>
      </trkpt>
      <trkpt lat="47.48367" lon="-1.90872">
        <ele>45.706087</ele>
        <time>2022-12-15T14:45:43.637Z</time>
      </trkpt>
      <trkpt lat="47.48369" lon="-1.90858">
        <ele>45.672788</ele>
        <time>2022-12-15T14:45:45.634Z</time>
      </trkpt>
      <trkpt lat="47.48371" lon="-1.90839">
        <ele>45.624569</ele>
        <time>2022-12-15T14:45:48.624Z</time>
      </trkpt>
      <trkpt lat="47.48375" lon="-1.90821">
        <ele>45.576514</ele>
        <time>2022-12-15T14:45:51.615Z</time>
      </trkpt>
      <trkpt lat="47.48379" lon="-1.90803">
        <ele>45.528163</ele>
        <time>2022-12-15T14:45:54.616Z</time>
      </trkpt>
      <trkpt lat="47.48384" lon="-1.90785">
        <ele>45.479508</ele>
        <time>2022-12-15T14:45:57.615Z</time>
      </trkpt>
      <trkpt lat="47.48389" lon="-1.90772">
        <ele>45.442872</ele>
        <time>2022-12-15T14:45:59.618Z</time>
      </trkpt>
      <trkpt lat="47.48394" lon="-1.90759">
        <ele>45.403583</ele>
        <time>2022-12-15T14:46:01.619Z</time>
      </trkpt>
      <trkpt lat="47.48398" lon="-1.90746">
        <ele>45.367342</ele>
        <time>2022-12-15T14:46:03.640Z</time>
      </trkpt>
      <trkpt lat="47.48403" lon="-1.9073">
        <ele>45.320133</ele>
        <time>2022-12-15T14:46:06.637Z</time>
      </trkpt>
      <trkpt lat="47.48407" lon="-1.90715">
        <ele>45.279348</ele>
        <time>2022-12-15T14:46:09.614Z</time>
      </trkpt>
      <trkpt lat="47.4841" lon="-1.907">
        <ele>45.240308</ele>
        <time>2022-12-15T14:46:12.626Z</time>
      </trkpt>
      <trkpt lat="47.48412" lon="-1.90683">
        <ele>45.19594</ele>
        <time>2022-12-15T14:46:15.637Z</time>
      </trkpt>
      <trkpt lat="47.48415" lon="-1.90665">
        <ele>45.14772</ele>
        <time>2022-12-15T14:46:18.642Z</time>
      </trkpt>
      <trkpt lat="47.48416" lon="-1.90646">
        <ele>45.099037</ele>
        <time>2022-12-15T14:46:21.640Z</time>
      </trkpt>
      <trkpt lat="47.48418" lon="-1.90628">
        <ele>45.051209</ele>
        <time>2022-12-15T14:46:24.639Z</time>
      </trkpt>
      <trkpt lat="47.48418" lon="-1.90614">
        <ele>45.017038</ele>
        <time>2022-12-15T14:46:26.639Z</time>
      </trkpt>
      <trkpt lat="47.48418" lon="-1.90595">
        <ele>44.967959</ele>
        <time>2022-12-15T14:46:29.631Z</time>
      </trkpt>
      <trkpt lat="47.48417" lon="-1.90576">
        <ele>44.917589</ele>
        <time>2022-12-15T14:46:32.643Z</time>
      </trkpt>
      <trkpt lat="47.48418" lon="-1.90562">
        <ele>44.88226</ele>
        <time>2022-12-15T14:46:34.626Z</time>
      </trkpt>
      <trkpt lat="47.48418" lon="-1.90547">
        <ele>44.844741</ele>
        <time>2022-12-15T14:46:36.637Z</time>
      </trkpt>
      <trkpt lat="47.48418" lon="-1.90534">
        <ele>44.809766</ele>
        <time>2022-12-15T14:46:38.627Z</time>
      </trkpt>
      <trkpt lat="47.48417" lon="-1.90519">
        <ele>44.778114</ele>
        <time>2022-12-15T14:46:40.633Z</time>
      </trkpt>
      <trkpt lat="47.48417" lon="-1.90506">
        <ele>44.751911</ele>
        <time>2022-12-15T14:46:42.634Z</time>
      </trkpt>
      <trkpt lat="47.48416" lon="-1.90492">
        <ele>44.725838</ele>
        <time>2022-12-15T14:46:44.646Z</time>
      </trkpt>
      <trkpt lat="47.48414" lon="-1.90473">
        <ele>44.690385</ele>
        <time>2022-12-15T14:46:47.635Z</time>
      </trkpt>
      <trkpt lat="47.48412" lon="-1.90453">
        <ele>44.652591</ele>
        <time>2022-12-15T14:46:50.640Z</time>
      </trkpt>
      <trkpt lat="47.4841" lon="-1.90438">
        <ele>44.62396</ele>
        <time>2022-12-15T14:46:52.626Z</time>
      </trkpt>
      <trkpt lat="47.48409" lon="-1.90425">
        <ele>44.598392</ele>
        <time>2022-12-15T14:46:54.633Z</time>
      </trkpt>
      <trkpt lat="47.48405" lon="-1.90406">
        <ele>44.561453</ele>
        <time>2022-12-15T14:46:57.624Z</time>
      </trkpt>
      <trkpt lat="47.48402" lon="-1.90389">
        <ele>44.527508</ele>
        <time>2022-12-15T14:47:00.629Z</time>
      </trkpt>
      <trkpt lat="47.48399" lon="-1.90372">
        <ele>44.494832</ele>
        <time>2022-12-15T14:47:03.626Z</time>
      </trkpt>
      <trkpt lat="47.48395" lon="-1.90354">
        <ele>44.459519</ele>
        <time>2022-12-15T14:47:06.620Z</time>
      </trkpt>
      <trkpt lat="47.48392" lon="-1.90341">
        <ele>44.434278</ele>
        <time>2022-12-15T14:47:08.620Z</time>
      </trkpt>
      <trkpt lat="47.48389" lon="-1.90329">
        <ele>44.408686</ele>
        <time>2022-12-15T14:47:10.622Z</time>
      </trkpt>
      <trkpt lat="47.48386" lon="-1.90316">
        <ele>44.383451</ele>
        <time>2022-12-15T14:47:12.616Z</time>
      </trkpt>
      <trkpt lat="47.48381" lon="-1.90297">
        <ele>44.346324</ele>
        <time>2022-12-15T14:47:15.643Z</time>
      </trkpt>
      <trkpt lat="47.48378" lon="-1.90285">
        <ele>44.320633</ele>
        <time>2022-12-15T14:47:17.630Z</time>
      </trkpt>
      <trkpt lat="47.48375" lon="-1.90271">
        <ele>44.29394</ele>
        <time>2022-12-15T14:47:19.623Z</time>
      </trkpt>
      <trkpt lat="47.48372" lon="-1.90259">
        <ele>44.243012</ele>
        <time>2022-12-15T14:47:21.623Z</time>
      </trkpt>
      <trkpt lat="47.48368" lon="-1.90246">
        <ele>44.187339</ele>
        <time>2022-12-15T14:47:23.636Z</time>
      </trkpt>
      <trkpt lat="47.48364" lon="-1.90233">
        <ele>44.129637</ele>
        <time>2022-12-15T14:47:25.634Z</time>
      </trkpt>
      <trkpt lat="47.4836" lon="-1.9022">
        <ele>44.070415</ele>
        <time>2022-12-15T14:47:27.630Z</time>
      </trkpt>
      <trkpt lat="47.48357" lon="-1.90207">
        <ele>44.011492</ele>
        <time>2022-12-15T14:47:29.619Z</time>
      </trkpt>
      <trkpt lat="47.48353" lon="-1.90194">
        <ele>43.954836</ele>
        <time>2022-12-15T14:47:31.634Z</time>
      </trkpt>
      <trkpt lat="47.48349" lon="-1.9018">
        <ele>43.891606</ele>
        <time>2022-12-15T14:47:33.635Z</time>
      </trkpt>
      <trkpt lat="47.48345" lon="-1.90166">
        <ele>43.83139</ele>
        <time>2022-12-15T14:47:35.636Z</time>
      </trkpt>
      <trkpt lat="47.48341" lon="-1.90154">
        <ele>43.774559</ele>
        <time>2022-12-15T14:47:37.641Z</time>
      </trkpt>
      <trkpt lat="47.48337" lon="-1.90141">
        <ele>43.716528</ele>
        <time>2022-12-15T14:47:39.615Z</time>
      </trkpt>
      <trkpt lat="47.48331" lon="-1.90123">
        <ele>43.63431</ele>
        <time>2022-12-15T14:47:42.639Z</time>
      </trkpt>
      <trkpt lat="47.48328" lon="-1.9011">
        <ele>43.579176</ele>
        <time>2022-12-15T14:47:44.623Z</time>
      </trkpt>
      <trkpt lat="47.48325" lon="-1.90097">
        <ele>43.521024</ele>
        <time>2022-12-15T14:47:46.627Z</time>
      </trkpt>
      <trkpt lat="47.48321" lon="-1.90084">
        <ele>43.463693</ele>
        <time>2022-12-15T14:47:48.629Z</time>
      </trkpt>
      <trkpt lat="47.48318" lon="-1.9007">
        <ele>43.405353</ele>
        <time>2022-12-15T14:47:50.625Z</time>
      </trkpt>
      <trkpt lat="47.48314" lon="-1.90057">
        <ele>43.347169</ele>
        <time>2022-12-15T14:47:52.639Z</time>
      </trkpt>
      <trkpt lat="47.48311" lon="-1.90043">
        <ele>43.286697</ele>
        <time>2022-12-15T14:47:54.639Z</time>
      </trkpt>
      <trkpt lat="47.48307" lon="-1.9003">
        <ele>43.228499</ele>
        <time>2022-12-15T14:47:56.634Z</time>
      </trkpt>
      <trkpt lat="47.48303" lon="-1.90016">
        <ele>43.217118</ele>
        <time>2022-12-15T14:47:58.616Z</time>
      </trkpt>
      <trkpt lat="47.483" lon="-1.90003">
        <ele>43.244165</ele>
        <time>2022-12-15T14:48:00.632Z</time>
      </trkpt>
      <trkpt lat="47.48298" lon="-1.89988">
        <ele>43.273809</ele>
        <time>2022-12-15T14:48:02.641Z</time>
      </trkpt>
      <trkpt lat="47.48294" lon="-1.89975">
        <ele>43.299945</ele>
        <time>2022-12-15T14:48:04.621Z</time>
      </trkpt>
      <trkpt lat="47.48289" lon="-1.89957">
        <ele>43.337526</ele>
        <time>2022-12-15T14:48:07.628Z</time>
      </trkpt>
      <trkpt lat="47.48285" lon="-1.8994">
        <ele>43.371952</ele>
        <time>2022-12-15T14:48:10.622Z</time>
      </trkpt>
      <trkpt lat="47.48281" lon="-1.89924">
        <ele>43.405418</ele>
        <time>2022-12-15T14:48:13.624Z</time>
      </trkpt>
      <trkpt lat="47.48276" lon="-1.89907">
        <ele>43.439593</ele>
        <time>2022-12-15T14:48:16.638Z</time>
      </trkpt>
      <trkpt lat="47.48272" lon="-1.89889">
        <ele>43.47434</ele>
        <time>2022-12-15T14:48:19.619Z</time>
      </trkpt>
      <trkpt lat="47.48269" lon="-1.89873">
        <ele>43.507704</ele>
        <time>2022-12-15T14:48:22.630Z</time>
      </trkpt>
      <trkpt lat="47.48266" lon="-1.89854">
        <ele>43.543278</ele>
        <time>2022-12-15T14:48:25.634Z</time>
      </trkpt>
      <trkpt lat="47.48264" lon="-1.89835">
        <ele>43.580424</ele>
        <time>2022-12-15T14:48:28.618Z</time>
      </trkpt>
      <trkpt lat="47.48262" lon="-1.89816">
        <ele>43.618243</ele>
        <time>2022-12-15T14:48:31.630Z</time>
      </trkpt>
      <trkpt lat="47.4826" lon="-1.89802">
        <ele>43.643732</ele>
        <time>2022-12-15T14:48:33.634Z</time>
      </trkpt>
      <trkpt lat="47.48259" lon="-1.89789">
        <ele>43.66934</ele>
        <time>2022-12-15T14:48:35.635Z</time>
      </trkpt>
      <trkpt lat="47.48257" lon="-1.89775">
        <ele>43.696565</ele>
        <time>2022-12-15T14:48:37.632Z</time>
      </trkpt>
      <trkpt lat="47.48256" lon="-1.89762">
        <ele>43.783922</ele>
        <time>2022-12-15T14:48:39.634Z</time>
      </trkpt>
      <trkpt lat="47.48255" lon="-1.89743">
        <ele>43.973236</ele>
        <time>2022-12-15T14:48:42.619Z</time>
      </trkpt>
      <trkpt lat="47.48254" lon="-1.89723">
        <ele>44.16979</ele>
        <time>2022-12-15T14:48:45.630Z</time>
      </trkpt>
      <trkpt lat="47.48252" lon="-1.89703">
        <ele>44.37146</ele>
        <time>2022-12-15T14:48:48.623Z</time>
      </trkpt>
      <trkpt lat="47.48251" lon="-1.89689">
        <ele>44.506745</ele>
        <time>2022-12-15T14:48:50.640Z</time>
      </trkpt>
      <trkpt lat="47.48251" lon="-1.8967">
        <ele>44.702349</ele>
        <time>2022-12-15T14:48:53.621Z</time>
      </trkpt>
      <trkpt lat="47.48252" lon="-1.89656">
        <ele>44.841471</ele>
        <time>2022-12-15T14:48:55.627Z</time>
      </trkpt>
      <trkpt lat="47.48253" lon="-1.89642">
        <ele>44.977463</ele>
        <time>2022-12-15T14:48:57.633Z</time>
      </trkpt>
      <trkpt lat="47.48253" lon="-1.89627">
        <ele>45.127315</ele>
        <time>2022-12-15T14:48:59.640Z</time>
      </trkpt>
      <trkpt lat="47.48255" lon="-1.89614">
        <ele>45.260345</ele>
        <time>2022-12-15T14:49:01.639Z</time>
      </trkpt>
      <trkpt lat="47.48258" lon="-1.89596">
        <ele>45.449616</ele>
        <time>2022-12-15T14:49:04.617Z</time>
      </trkpt>
      <trkpt lat="47.48262" lon="-1.8958">
        <ele>45.619747</ele>
        <time>2022-12-15T14:49:07.631Z</time>
      </trkpt>
      <trkpt lat="47.48268" lon="-1.89562">
        <ele>45.820392</ele>
        <time>2022-12-15T14:49:10.637Z</time>
      </trkpt>
      <trkpt lat="47.48272" lon="-1.89542">
        <ele>46.022604</ele>
        <time>2022-12-15T14:49:13.632Z</time>
      </trkpt>
      <trkpt lat="47.48276" lon="-1.8953">
        <ele>46.16324</ele>
        <time>2022-12-15T14:49:15.626Z</time>
      </trkpt>
      <trkpt lat="47.4828" lon="-1.89517">
        <ele>46.301448</ele>
        <time>2022-12-15T14:49:17.641Z</time>
      </trkpt>
      <trkpt lat="47.48285" lon="-1.89503">
        <ele>46.43672</ele>
        <time>2022-12-15T14:49:19.638Z</time>
      </trkpt>
      <trkpt lat="47.48288" lon="-1.89491">
        <ele>46.551905</ele>
        <time>2022-12-15T14:49:21.631Z</time>
      </trkpt>
      <trkpt lat="47.48291" lon="-1.89478">
        <ele>46.66235</ele>
        <time>2022-12-15T14:49:23.642Z</time>
      </trkpt>
      <trkpt lat="47.48295" lon="-1.89464">
        <ele>46.784289</ele>
        <time>2022-12-15T14:49:25.625Z</time>
      </trkpt>
      <trkpt lat="47.48301" lon="-1.89446">
        <ele>46.948062</ele>
        <time>2022-12-15T14:49:28.634Z</time>
      </trkpt>
      <trkpt lat="47.48306" lon="-1.89434">
        <ele>47.064179</ele>
        <time>2022-12-15T14:49:30.640Z</time>
      </trkpt>
      <trkpt lat="47.4831" lon="-1.89421">
        <ele>47.187459</ele>
        <time>2022-12-15T14:49:32.629Z</time>
      </trkpt>
      <trkpt lat="47.48313" lon="-1.89407">
        <ele>47.305735</ele>
        <time>2022-12-15T14:49:34.624Z</time>
      </trkpt>
      <trkpt lat="47.48318" lon="-1.8939">
        <ele>47.460118</ele>
        <time>2022-12-15T14:49:37.630Z</time>
      </trkpt>
      <trkpt lat="47.48324" lon="-1.89372">
        <ele>47.621243</ele>
        <time>2022-12-15T14:49:40.636Z</time>
      </trkpt>
      <trkpt lat="47.48329" lon="-1.89355">
        <ele>47.775236</ele>
        <time>2022-12-15T14:49:43.633Z</time>
      </trkpt>
      <trkpt lat="47.48334" lon="-1.89337">
        <ele>47.934218</ele>
        <time>2022-12-15T14:49:46.634Z</time>
      </trkpt>
      <trkpt lat="47.48339" lon="-1.8932">
        <ele>48.087206</ele>
        <time>2022-12-15T14:49:49.642Z</time>
      </trkpt>
      <trkpt lat="47.48345" lon="-1.89303">
        <ele>48.246678</ele>
        <time>2022-12-15T14:49:52.628Z</time>
      </trkpt>
      <trkpt lat="47.48351" lon="-1.89285">
        <ele>48.409085</ele>
        <time>2022-12-15T14:49:55.641Z</time>
      </trkpt>
      <trkpt lat="47.48356" lon="-1.89268">
        <ele>48.559769</ele>
        <time>2022-12-15T14:49:58.625Z</time>
      </trkpt>
      <trkpt lat="47.48361" lon="-1.8925">
        <ele>48.664893</ele>
        <time>2022-12-15T14:50:01.623Z</time>
      </trkpt>
      <trkpt lat="47.48365" lon="-1.89238">
        <ele>48.736634</ele>
        <time>2022-12-15T14:50:03.621Z</time>
      </trkpt>
      <trkpt lat="47.4837" lon="-1.89223">
        <ele>48.826307</ele>
        <time>2022-12-15T14:50:06.639Z</time>
      </trkpt>
      <trkpt lat="47.48373" lon="-1.89207">
        <ele>48.912052</ele>
        <time>2022-12-15T14:50:09.639Z</time>
      </trkpt>
      <trkpt lat="47.48376" lon="-1.89191">
        <ele>48.999924</ele>
        <time>2022-12-15T14:50:12.640Z</time>
      </trkpt>
      <trkpt lat="47.48378" lon="-1.89174">
        <ele>49.092117</ele>
        <time>2022-12-15T14:50:15.636Z</time>
      </trkpt>
      <trkpt lat="47.48379" lon="-1.89156">
        <ele>49.186032</ele>
        <time>2022-12-15T14:50:18.643Z</time>
      </trkpt>
      <trkpt lat="47.48379" lon="-1.89138">
        <ele>49.285239</ele>
        <time>2022-12-15T14:50:21.636Z</time>
      </trkpt>
      <trkpt lat="47.48379" lon="-1.8912">
        <ele>49.379211</ele>
        <time>2022-12-15T14:50:24.642Z</time>
      </trkpt>
      <trkpt lat="47.48378" lon="-1.89105">
        <ele>49.459371</ele>
        <time>2022-12-15T14:50:27.623Z</time>
      </trkpt>
      <trkpt lat="47.48376" lon="-1.8909">
        <ele>49.537872</ele>
        <time>2022-12-15T14:50:30.625Z</time>
      </trkpt>
      <trkpt lat="47.48376" lon="-1.89075">
        <ele>49.62139</ele>
        <time>2022-12-15T14:50:33.625Z</time>
      </trkpt>
      <trkpt lat="47.48374" lon="-1.89058">
        <ele>49.710833</ele>
        <time>2022-12-15T14:50:36.623Z</time>
      </trkpt>
      <trkpt lat="47.48371" lon="-1.89042">
        <ele>49.799496</ele>
        <time>2022-12-15T14:50:39.634Z</time>
      </trkpt>
      <trkpt lat="47.48368" lon="-1.89026">
        <ele>49.886553</ele>
        <time>2022-12-15T14:50:42.634Z</time>
      </trkpt>
      <trkpt lat="47.48365" lon="-1.89011">
        <ele>49.967802</ele>
        <time>2022-12-15T14:50:45.638Z</time>
      </trkpt>
      <trkpt lat="47.48362" lon="-1.88997">
        <ele>50.057981</ele>
        <time>2022-12-15T14:50:48.619Z</time>
      </trkpt>
      <trkpt lat="47.48359" lon="-1.88982">
        <ele>50.146495</ele>
        <time>2022-12-15T14:50:51.630Z</time>
      </trkpt>
      <trkpt lat="47.48355" lon="-1.8897">
        <ele>50.228012</ele>
        <time>2022-12-15T14:50:54.637Z</time>
      </trkpt>
      <trkpt lat="47.48351" lon="-1.88957">
        <ele>50.314234</ele>
        <time>2022-12-15T14:50:57.617Z</time>
      </trkpt>
      <trkpt lat="47.48347" lon="-1.88944">
        <ele>50.397585</ele>
        <time>2022-12-15T14:51:00.636Z</time>
      </trkpt>
      <trkpt lat="47.48342" lon="-1.88928">
        <ele>50.501023</ele>
        <time>2022-12-15T14:51:04.620Z</time>
      </trkpt>
      <trkpt lat="47.48336" lon="-1.88915">
        <ele>50.591464</ele>
        <time>2022-12-15T14:51:08.633Z</time>
      </trkpt>
      <trkpt lat="47.48331" lon="-1.88901">
        <ele>50.689258</ele>
        <time>2022-12-15T14:51:12.624Z</time>
      </trkpt>
      <trkpt lat="47.48328" lon="-1.88888">
        <ele>50.76827</ele>
        <time>2022-12-15T14:51:16.624Z</time>
      </trkpt>
      <trkpt lat="47.48321" lon="-1.88859">
        <ele>50.949233</ele>
        <time>2022-12-15T14:56:24.620Z</time>
      </trkpt>
      <trkpt lat="47.48317" lon="-1.88844">
        <ele>51.045841</ele>
        <time>2022-12-15T14:56:28.643Z</time>
      </trkpt>
      <trkpt lat="47.48312" lon="-1.88831">
        <ele>51.132063</ele>
        <time>2022-12-15T14:56:31.647Z</time>
      </trkpt>
      <trkpt lat="47.48307" lon="-1.88819">
        <ele>51.2147</ele>
        <time>2022-12-15T14:56:34.638Z</time>
      </trkpt>
      <trkpt lat="47.48302" lon="-1.88807">
        <ele>51.298751</ele>
        <time>2022-12-15T14:56:37.625Z</time>
      </trkpt>
      <trkpt lat="47.48296" lon="-1.88794">
        <ele>51.390073</ele>
        <time>2022-12-15T14:56:40.640Z</time>
      </trkpt>
      <trkpt lat="47.48289" lon="-1.88782">
        <ele>51.482471</ele>
        <time>2022-12-15T14:56:43.628Z</time>
      </trkpt>
      <trkpt lat="47.4828" lon="-1.88771">
        <ele>51.562821</ele>
        <time>2022-12-15T14:56:46.638Z</time>
      </trkpt>
      <trkpt lat="47.48271" lon="-1.8876">
        <ele>51.625927</ele>
        <time>2022-12-15T14:56:49.620Z</time>
      </trkpt>
      <trkpt lat="47.4826" lon="-1.88749">
        <ele>51.691492</ele>
        <time>2022-12-15T14:56:52.637Z</time>
      </trkpt>
      <trkpt lat="47.48249" lon="-1.88738">
        <ele>51.758507</ele>
        <time>2022-12-15T14:56:55.639Z</time>
      </trkpt>
      <trkpt lat="47.48238" lon="-1.88726">
        <ele>51.826702</ele>
        <time>2022-12-15T14:56:58.641Z</time>
      </trkpt>
      <trkpt lat="47.48228" lon="-1.88715">
        <ele>51.893689</ele>
        <time>2022-12-15T14:57:01.640Z</time>
      </trkpt>
      <trkpt lat="47.4822" lon="-1.88707">
        <ele>51.941668</ele>
        <time>2022-12-15T14:57:03.618Z</time>
      </trkpt>
      <trkpt lat="47.48212" lon="-1.88698">
        <ele>51.990259</ele>
        <time>2022-12-15T14:57:05.625Z</time>
      </trkpt>
      <trkpt lat="47.48204" lon="-1.8869">
        <ele>52.038859</ele>
        <time>2022-12-15T14:57:07.642Z</time>
      </trkpt>
      <trkpt lat="47.48196" lon="-1.88683">
        <ele>52.087032</ele>
        <time>2022-12-15T14:57:09.643Z</time>
      </trkpt>
      <trkpt lat="47.48188" lon="-1.88674">
        <ele>52.139096</ele>
        <time>2022-12-15T14:57:11.635Z</time>
      </trkpt>
      <trkpt lat="47.48181" lon="-1.88665">
        <ele>52.18559</ele>
        <time>2022-12-15T14:57:13.643Z</time>
      </trkpt>
      <trkpt lat="47.48174" lon="-1.88656">
        <ele>52.234463</ele>
        <time>2022-12-15T14:57:15.626Z</time>
      </trkpt>
      <trkpt lat="47.48164" lon="-1.88643">
        <ele>52.298511</ele>
        <time>2022-12-15T14:57:18.643Z</time>
      </trkpt>
      <trkpt lat="47.48156" lon="-1.8863">
        <ele>52.359756</ele>
        <time>2022-12-15T14:57:21.638Z</time>
      </trkpt>
      <trkpt lat="47.48148" lon="-1.88616">
        <ele>52.426364</ele>
        <time>2022-12-15T14:57:24.624Z</time>
      </trkpt>
      <trkpt lat="47.4814" lon="-1.886">
        <ele>52.500041</ele>
        <time>2022-12-15T14:57:27.622Z</time>
      </trkpt>
      <trkpt lat="47.48132" lon="-1.88584">
        <ele>52.579189</ele>
        <time>2022-12-15T14:57:30.639Z</time>
      </trkpt>
      <trkpt lat="47.48127" lon="-1.88573">
        <ele>52.63399</ele>
        <time>2022-12-15T14:57:32.622Z</time>
      </trkpt>
      <trkpt lat="47.4812" lon="-1.88556">
        <ele>52.716268</ele>
        <time>2022-12-15T14:57:35.616Z</time>
      </trkpt>
      <trkpt lat="47.48115" lon="-1.88545">
        <ele>52.771406</ele>
        <time>2022-12-15T14:57:37.629Z</time>
      </trkpt>
      <trkpt lat="47.48107" lon="-1.88528">
        <ele>52.853942</ele>
        <time>2022-12-15T14:57:40.630Z</time>
      </trkpt>
      <trkpt lat="47.48102" lon="-1.88517">
        <ele>52.909413</ele>
        <time>2022-12-15T14:57:42.634Z</time>
      </trkpt>
      <trkpt lat="47.48094" lon="-1.88501">
        <ele>52.99287</ele>
        <time>2022-12-15T14:57:45.633Z</time>
      </trkpt>
      <trkpt lat="47.48086" lon="-1.88484">
        <ele>53.075061</ele>
        <time>2022-12-15T14:57:48.645Z</time>
      </trkpt>
      <trkpt lat="47.48078" lon="-1.88467">
        <ele>53.15827</ele>
        <time>2022-12-15T14:57:51.643Z</time>
      </trkpt>
      <trkpt lat="47.4807" lon="-1.88451">
        <ele>53.240935</ele>
        <time>2022-12-15T14:57:54.640Z</time>
      </trkpt>
      <trkpt lat="47.48065" lon="-1.8844">
        <ele>53.299111</ele>
        <time>2022-12-15T14:57:56.644Z</time>
      </trkpt>
      <trkpt lat="47.48057" lon="-1.88424">
        <ele>53.375236</ele>
        <time>2022-12-15T14:57:59.638Z</time>
      </trkpt>
      <trkpt lat="47.48049" lon="-1.88409">
        <ele>53.455915</ele>
        <time>2022-12-15T14:58:02.644Z</time>
      </trkpt>
      <trkpt lat="47.48044" lon="-1.88397">
        <ele>53.511414</ele>
        <time>2022-12-15T14:58:04.642Z</time>
      </trkpt>
      <trkpt lat="47.48039" lon="-1.88386">
        <ele>53.440797</ele>
        <time>2022-12-15T14:58:06.644Z</time>
      </trkpt>
      <trkpt lat="47.48033" lon="-1.88375">
        <ele>53.276166</ele>
        <time>2022-12-15T14:58:08.638Z</time>
      </trkpt>
      <trkpt lat="47.48028" lon="-1.88364">
        <ele>53.105817</ele>
        <time>2022-12-15T14:58:10.640Z</time>
      </trkpt>
      <trkpt lat="47.4802" lon="-1.88347">
        <ele>52.858784</ele>
        <time>2022-12-15T14:58:13.645Z</time>
      </trkpt>
      <trkpt lat="47.48015" lon="-1.88336">
        <ele>52.688435</ele>
        <time>2022-12-15T14:58:15.640Z</time>
      </trkpt>
      <trkpt lat="47.48009" lon="-1.88323">
        <ele>52.509953</ele>
        <time>2022-12-15T14:58:17.642Z</time>
      </trkpt>
      <trkpt lat="47.48004" lon="-1.88311">
        <ele>52.336543</ele>
        <time>2022-12-15T14:58:19.640Z</time>
      </trkpt>
      <trkpt lat="47.47998" lon="-1.88294">
        <ele>52.101616</ele>
        <time>2022-12-15T14:58:22.628Z</time>
      </trkpt>
      <trkpt lat="47.47993" lon="-1.88279">
        <ele>51.894367</ele>
        <time>2022-12-15T14:58:25.647Z</time>
      </trkpt>
      <trkpt lat="47.4799" lon="-1.88263">
        <ele>51.694022</ele>
        <time>2022-12-15T14:58:28.631Z</time>
      </trkpt>
      <trkpt lat="47.47991" lon="-1.88247">
        <ele>51.494915</ele>
        <time>2022-12-15T14:58:31.642Z</time>
      </trkpt>
      <trkpt lat="47.47993" lon="-1.88229">
        <ele>51.272356</ele>
        <time>2022-12-15T14:58:34.640Z</time>
      </trkpt>
      <trkpt lat="47.47989" lon="-1.88211">
        <ele>51.040645</ele>
        <time>2022-12-15T14:58:37.643Z</time>
      </trkpt>
      <trkpt lat="47.47985" lon="-1.88195">
        <ele>50.836018</ele>
        <time>2022-12-15T14:58:40.653Z</time>
      </trkpt>
      <trkpt lat="47.47983" lon="-1.88179">
        <ele>50.634156</ele>
        <time>2022-12-15T14:58:43.623Z</time>
      </trkpt>
      <trkpt lat="47.47981" lon="-1.88162">
        <ele>50.42582</ele>
        <time>2022-12-15T14:58:46.644Z</time>
      </trkpt>
      <trkpt lat="47.4798" lon="-1.88144">
        <ele>50.322809</ele>
        <time>2022-12-15T14:58:49.638Z</time>
      </trkpt>
      <trkpt lat="47.4798" lon="-1.88125">
        <ele>50.386837</ele>
        <time>2022-12-15T14:58:52.621Z</time>
      </trkpt>
      <trkpt lat="47.4798" lon="-1.88105">
        <ele>50.45211</ele>
        <time>2022-12-15T14:58:55.636Z</time>
      </trkpt>
      <trkpt lat="47.4798" lon="-1.88087">
        <ele>50.512669</ele>
        <time>2022-12-15T14:58:58.639Z</time>
      </trkpt>
      <trkpt lat="47.4798" lon="-1.88067">
        <ele>50.577915</ele>
        <time>2022-12-15T14:59:01.624Z</time>
      </trkpt>
      <trkpt lat="47.4798" lon="-1.88048">
        <ele>50.644178</ele>
        <time>2022-12-15T14:59:04.642Z</time>
      </trkpt>
      <trkpt lat="47.4798" lon="-1.88034">
        <ele>50.68935</ele>
        <time>2022-12-15T14:59:06.624Z</time>
      </trkpt>
      <trkpt lat="47.4798" lon="-1.88016">
        <ele>50.751255</ele>
        <time>2022-12-15T14:59:09.629Z</time>
      </trkpt>
      <trkpt lat="47.47979" lon="-1.88">
        <ele>50.805065</ele>
        <time>2022-12-15T14:59:12.642Z</time>
      </trkpt>
      <trkpt lat="47.47976" lon="-1.87986">
        <ele>50.853879</ele>
        <time>2022-12-15T14:59:15.637Z</time>
      </trkpt>
      <trkpt lat="47.4797" lon="-1.87974">
        <ele>50.904152</ele>
        <time>2022-12-15T14:59:18.654Z</time>
      </trkpt>
      <trkpt lat="47.47959" lon="-1.87965">
        <ele>50.963886</ele>
        <time>2022-12-15T14:59:21.644Z</time>
      </trkpt>
      <trkpt lat="47.47948" lon="-1.87957">
        <ele>51.026654</ele>
        <time>2022-12-15T14:59:24.650Z</time>
      </trkpt>
      <trkpt lat="47.47935" lon="-1.8795">
        <ele>51.093982</ele>
        <time>2022-12-15T14:59:27.628Z</time>
      </trkpt>
      <trkpt lat="47.47927" lon="-1.87944">
        <ele>51.140897</ele>
        <time>2022-12-15T14:59:29.637Z</time>
      </trkpt>
      <trkpt lat="47.47918" lon="-1.87937">
        <ele>51.19141</ele>
        <time>2022-12-15T14:59:31.621Z</time>
      </trkpt>
      <trkpt lat="47.4791" lon="-1.87928">
        <ele>51.359799</ele>
        <time>2022-12-15T14:59:33.636Z</time>
      </trkpt>
      <trkpt lat="47.47903" lon="-1.87919">
        <ele>51.523958</ele>
        <time>2022-12-15T14:59:35.643Z</time>
      </trkpt>
      <trkpt lat="47.47896" lon="-1.87904">
        <ele>51.744067</ele>
        <time>2022-12-15T14:59:38.635Z</time>
      </trkpt>
      <trkpt lat="47.47891" lon="-1.87889">
        <ele>51.936876</ele>
        <time>2022-12-15T14:59:41.634Z</time>
      </trkpt>
      <trkpt lat="47.47886" lon="-1.87874">
        <ele>52.139369</ele>
        <time>2022-12-15T14:59:44.636Z</time>
      </trkpt>
      <trkpt lat="47.47881" lon="-1.87857">
        <ele>52.35253</ele>
        <time>2022-12-15T14:59:47.638Z</time>
      </trkpt>
      <trkpt lat="47.47876" lon="-1.8784">
        <ele>52.567187</ele>
        <time>2022-12-15T14:59:50.639Z</time>
      </trkpt>
      <trkpt lat="47.4787" lon="-1.87823">
        <ele>52.785894</ele>
        <time>2022-12-15T14:59:53.637Z</time>
      </trkpt>
      <trkpt lat="47.47864" lon="-1.87807">
        <ele>53.009085</ele>
        <time>2022-12-15T14:59:56.640Z</time>
      </trkpt>
      <trkpt lat="47.47856" lon="-1.87792">
        <ele>53.227132</ele>
        <time>2022-12-15T14:59:59.642Z</time>
      </trkpt>
      <trkpt lat="47.47847" lon="-1.87779">
        <ele>53.45026</ele>
        <time>2022-12-15T15:00:02.636Z</time>
      </trkpt>
      <trkpt lat="47.47838" lon="-1.87766">
        <ele>53.680897</ele>
        <time>2022-12-15T15:00:05.636Z</time>
      </trkpt>
      <trkpt lat="47.47831" lon="-1.87757">
        <ele>53.839779</ele>
        <time>2022-12-15T15:00:07.638Z</time>
      </trkpt>
      <trkpt lat="47.47823" lon="-1.87749">
        <ele>53.998361</ele>
        <time>2022-12-15T15:00:09.639Z</time>
      </trkpt>
      <trkpt lat="47.47813" lon="-1.87736">
        <ele>54.232479</ele>
        <time>2022-12-15T15:00:12.639Z</time>
      </trkpt>
      <trkpt lat="47.47803" lon="-1.87725">
        <ele>54.266709</ele>
        <time>2022-12-15T15:00:15.642Z</time>
      </trkpt>
      <trkpt lat="47.47793" lon="-1.87713">
        <ele>54.188001</ele>
        <time>2022-12-15T15:00:18.630Z</time>
      </trkpt>
      <trkpt lat="47.47782" lon="-1.87701">
        <ele>54.111267</ele>
        <time>2022-12-15T15:00:21.639Z</time>
      </trkpt>
      <trkpt lat="47.47771" lon="-1.87693">
        <ele>54.037521</ele>
        <time>2022-12-15T15:00:24.638Z</time>
      </trkpt>
      <trkpt lat="47.47761" lon="-1.87686">
        <ele>53.967504</ele>
        <time>2022-12-15T15:00:27.624Z</time>
      </trkpt>
      <trkpt lat="47.47748" lon="-1.8768">
        <ele>53.891422</ele>
        <time>2022-12-15T15:00:30.628Z</time>
      </trkpt>
      <trkpt lat="47.47735" lon="-1.87677">
        <ele>53.812011</ele>
        <time>2022-12-15T15:00:33.643Z</time>
      </trkpt>
      <trkpt lat="47.47726" lon="-1.87675">
        <ele>53.755018</ele>
        <time>2022-12-15T15:00:35.640Z</time>
      </trkpt>
      <trkpt lat="47.47716" lon="-1.87676">
        <ele>53.698798</ele>
        <time>2022-12-15T15:00:37.641Z</time>
      </trkpt>
      <trkpt lat="47.47707" lon="-1.87677">
        <ele>53.642631</ele>
        <time>2022-12-15T15:00:39.640Z</time>
      </trkpt>
      <trkpt lat="47.47697" lon="-1.87678">
        <ele>53.585221</ele>
        <time>2022-12-15T15:00:41.637Z</time>
      </trkpt>
      <trkpt lat="47.47688" lon="-1.87678">
        <ele>53.52793</ele>
        <time>2022-12-15T15:00:43.627Z</time>
      </trkpt>
      <trkpt lat="47.47678" lon="-1.87678">
        <ele>53.47064</ele>
        <time>2022-12-15T15:00:45.645Z</time>
      </trkpt>
      <trkpt lat="47.47664" lon="-1.87678">
        <ele>53.388904</ele>
        <time>2022-12-15T15:00:48.644Z</time>
      </trkpt>
      <trkpt lat="47.47655" lon="-1.87679">
        <ele>53.33314</ele>
        <time>2022-12-15T15:00:50.641Z</time>
      </trkpt>
      <trkpt lat="47.47646" lon="-1.87679">
        <ele>53.277648</ele>
        <time>2022-12-15T15:00:52.635Z</time>
      </trkpt>
      <trkpt lat="47.47636" lon="-1.87678">
        <ele>53.233736</ele>
        <time>2022-12-15T15:00:54.639Z</time>
      </trkpt>
      <trkpt lat="47.47626" lon="-1.87678">
        <ele>53.216533</ele>
        <time>2022-12-15T15:00:56.622Z</time>
      </trkpt>
      <trkpt lat="47.47616" lon="-1.87676">
        <ele>53.198915</ele>
        <time>2022-12-15T15:00:58.640Z</time>
      </trkpt>
      <trkpt lat="47.47607" lon="-1.87673">
        <ele>53.182472</ele>
        <time>2022-12-15T15:01:00.620Z</time>
      </trkpt>
      <trkpt lat="47.47598" lon="-1.8767">
        <ele>53.166279</ele>
        <time>2022-12-15T15:01:02.625Z</time>
      </trkpt>
      <trkpt lat="47.47587" lon="-1.87663">
        <ele>53.145328</ele>
        <time>2022-12-15T15:01:05.640Z</time>
      </trkpt>
      <trkpt lat="47.47575" lon="-1.87658">
        <ele>53.124796</ele>
        <time>2022-12-15T15:01:08.643Z</time>
      </trkpt>
      <trkpt lat="47.47564" lon="-1.87652">
        <ele>53.104179</ele>
        <time>2022-12-15T15:01:11.630Z</time>
      </trkpt>
      <trkpt lat="47.47555" lon="-1.87647">
        <ele>53.087173</ele>
        <time>2022-12-15T15:01:13.632Z</time>
      </trkpt>
      <trkpt lat="47.47546" lon="-1.87643">
        <ele>53.070296</ele>
        <time>2022-12-15T15:01:15.633Z</time>
      </trkpt>
      <trkpt lat="47.47534" lon="-1.87633">
        <ele>53.04693</ele>
        <time>2022-12-15T15:01:18.656Z</time>
      </trkpt>
      <trkpt lat="47.47527" lon="-1.87625">
        <ele>53.030328</ele>
        <time>2022-12-15T15:01:20.629Z</time>
      </trkpt>
      <trkpt lat="47.47521" lon="-1.87615">
        <ele>53.014112</ele>
        <time>2022-12-15T15:01:22.631Z</time>
      </trkpt>
      <trkpt lat="47.47515" lon="-1.87603">
        <ele>52.997109</ele>
        <time>2022-12-15T15:01:24.643Z</time>
      </trkpt>
      <trkpt lat="47.47511" lon="-1.8759">
        <ele>52.979888</ele>
        <time>2022-12-15T15:01:26.641Z</time>
      </trkpt>
      <trkpt lat="47.47508" lon="-1.87576">
        <ele>52.96291</ele>
        <time>2022-12-15T15:01:28.640Z</time>
      </trkpt>
      <trkpt lat="47.47505" lon="-1.87563">
        <ele>52.946777</ele>
        <time>2022-12-15T15:01:30.639Z</time>
      </trkpt>
      <trkpt lat="47.47501" lon="-1.87544">
        <ele>52.923593</ele>
        <time>2022-12-15T15:01:33.639Z</time>
      </trkpt>
      <trkpt lat="47.47498" lon="-1.87529">
        <ele>52.907136</ele>
        <time>2022-12-15T15:01:36.641Z</time>
      </trkpt>
      <trkpt lat="47.47494" lon="-1.87514">
        <ele>52.890269</ele>
        <time>2022-12-15T15:01:39.640Z</time>
      </trkpt>
      <trkpt lat="47.47486" lon="-1.87501">
        <ele>52.872305</ele>
        <time>2022-12-15T15:01:42.635Z</time>
      </trkpt>
      <trkpt lat="47.47477" lon="-1.87488">
        <ele>52.852702</ele>
        <time>2022-12-15T15:01:45.630Z</time>
      </trkpt>
      <trkpt lat="47.47466" lon="-1.87477">
        <ele>52.832734</ele>
        <time>2022-12-15T15:01:48.630Z</time>
      </trkpt>
      <trkpt lat="47.47458" lon="-1.8747">
        <ele>52.818041</ele>
        <time>2022-12-15T15:01:51.642Z</time>
      </trkpt>
      <trkpt lat="47.47452" lon="-1.8746">
        <ele>52.80348</ele>
        <time>2022-12-15T15:02:00.623Z</time>
      </trkpt>
      <trkpt lat="47.47448" lon="-1.87447">
        <ele>52.788824</ele>
        <time>2022-12-15T15:02:11.627Z</time>
      </trkpt>
      <trkpt lat="47.47442" lon="-1.87436">
        <ele>52.774488</ele>
        <time>2022-12-15T15:02:23.620Z</time>
      </trkpt>
      <trkpt lat="47.47437" lon="-1.87424">
        <ele>52.760094</ele>
        <time>2022-12-15T15:02:39.626Z</time>
      </trkpt>
      <trkpt lat="47.47433" lon="-1.87409">
        <ele>52.742667</ele>
        <time>2022-12-15T15:02:46.632Z</time>
      </trkpt>
      <trkpt lat="47.47426" lon="-1.87395">
        <ele>52.724983</ele>
        <time>2022-12-15T15:02:50.634Z</time>
      </trkpt>
      <trkpt lat="47.4742" lon="-1.87385">
        <ele>52.710531</ele>
        <time>2022-12-15T15:02:53.645Z</time>
      </trkpt>
      <trkpt lat="47.47411" lon="-1.87375">
        <ele>52.693839</ele>
        <time>2022-12-15T15:02:56.638Z</time>
      </trkpt>
      <trkpt lat="47.47401" lon="-1.87365">
        <ele>52.675024</ele>
        <time>2022-12-15T15:02:59.616Z</time>
      </trkpt>
      <trkpt lat="47.4739" lon="-1.87357">
        <ele>52.655671</ele>
        <time>2022-12-15T15:03:02.639Z</time>
      </trkpt>
      <trkpt lat="47.47377" lon="-1.87352">
        <ele>52.821747</ele>
        <time>2022-12-15T15:03:05.635Z</time>
      </trkpt>
      <trkpt lat="47.47368" lon="-1.8735">
        <ele>53.000733</ele>
        <time>2022-12-15T15:03:07.653Z</time>
      </trkpt>
      <trkpt lat="47.47359" lon="-1.87348">
        <ele>53.178246</ele>
        <time>2022-12-15T15:03:09.641Z</time>
      </trkpt>
      <trkpt lat="47.47346" lon="-1.87346">
        <ele>53.432541</ele>
        <time>2022-12-15T15:03:12.615Z</time>
      </trkpt>
      <trkpt lat="47.47333" lon="-1.87344">
        <ele>53.683619</ele>
        <time>2022-12-15T15:03:15.642Z</time>
      </trkpt>
      <trkpt lat="47.47323" lon="-1.87341">
        <ele>53.872699</ele>
        <time>2022-12-15T15:03:17.638Z</time>
      </trkpt>
      <trkpt lat="47.47311" lon="-1.87338">
        <ele>54.126216</ele>
        <time>2022-12-15T15:03:20.623Z</time>
      </trkpt>
      <trkpt lat="47.47301" lon="-1.87336">
        <ele>54.308811</ele>
        <time>2022-12-15T15:03:22.625Z</time>
      </trkpt>
      <trkpt lat="47.47293" lon="-1.87334">
        <ele>54.483894</ele>
        <time>2022-12-15T15:03:24.641Z</time>
      </trkpt>
      <trkpt lat="47.47281" lon="-1.87331">
        <ele>54.706853</ele>
        <time>2022-12-15T15:03:27.629Z</time>
      </trkpt>
      <trkpt lat="47.47269" lon="-1.87329">
        <ele>54.94066</ele>
        <time>2022-12-15T15:03:30.640Z</time>
      </trkpt>
      <trkpt lat="47.47257" lon="-1.87326">
        <ele>55.188173</ele>
        <time>2022-12-15T15:03:33.637Z</time>
      </trkpt>
      <trkpt lat="47.47244" lon="-1.87323">
        <ele>55.448119</ele>
        <time>2022-12-15T15:03:36.642Z</time>
      </trkpt>
      <trkpt lat="47.47231" lon="-1.8732">
        <ele>55.697566</ele>
        <time>2022-12-15T15:03:39.636Z</time>
      </trkpt>
      <trkpt lat="47.47222" lon="-1.87318">
        <ele>55.874883</ele>
        <time>2022-12-15T15:03:41.621Z</time>
      </trkpt>
      <trkpt lat="47.47212" lon="-1.87314">
        <ele>56.086338</ele>
        <time>2022-12-15T15:03:44.642Z</time>
      </trkpt>
      <trkpt lat="47.47199" lon="-1.87311">
        <ele>56.144915</ele>
        <time>2022-12-15T15:03:47.641Z</time>
      </trkpt>
      <trkpt lat="47.47187" lon="-1.87308">
        <ele>56.115997</ele>
        <time>2022-12-15T15:03:50.636Z</time>
      </trkpt>
      <trkpt lat="47.47178" lon="-1.87306">
        <ele>56.0954</ele>
        <time>2022-12-15T15:03:52.627Z</time>
      </trkpt>
      <trkpt lat="47.47168" lon="-1.87303">
        <ele>56.072722</ele>
        <time>2022-12-15T15:03:54.643Z</time>
      </trkpt>
      <trkpt lat="47.47158" lon="-1.873">
        <ele>56.049339</ele>
        <time>2022-12-15T15:03:56.637Z</time>
      </trkpt>
      <trkpt lat="47.47149" lon="-1.87297">
        <ele>56.02669</ele>
        <time>2022-12-15T15:03:58.655Z</time>
      </trkpt>
      <trkpt lat="47.47139" lon="-1.87294">
        <ele>56.003834</ele>
        <time>2022-12-15T15:04:00.639Z</time>
      </trkpt>
      <trkpt lat="47.47128" lon="-1.87291">
        <ele>55.979197</ele>
        <time>2022-12-15T15:04:02.642Z</time>
      </trkpt>
      <trkpt lat="47.47119" lon="-1.87287">
        <ele>55.956746</ele>
        <time>2022-12-15T15:04:04.637Z</time>
      </trkpt>
      <trkpt lat="47.47106" lon="-1.87283">
        <ele>55.927549</ele>
        <time>2022-12-15T15:04:07.641Z</time>
      </trkpt>
      <trkpt lat="47.47096" lon="-1.87279">
        <ele>55.902435</ele>
        <time>2022-12-15T15:04:10.643Z</time>
      </trkpt>
      <trkpt lat="47.47085" lon="-1.87276">
        <ele>55.876871</ele>
        <time>2022-12-15T15:04:13.635Z</time>
      </trkpt>
      <trkpt lat="47.47073" lon="-1.87272">
        <ele>55.848681</ele>
        <time>2022-12-15T15:04:16.628Z</time>
      </trkpt>
      <trkpt lat="47.47061" lon="-1.87268">
        <ele>55.820791</ele>
        <time>2022-12-15T15:04:19.630Z</time>
      </trkpt>
      <trkpt lat="47.47052" lon="-1.87264">
        <ele>55.799191</ele>
        <time>2022-12-15T15:04:21.624Z</time>
      </trkpt>
      <trkpt lat="47.47039" lon="-1.8726">
        <ele>55.768677</ele>
        <time>2022-12-15T15:04:24.638Z</time>
      </trkpt>
      <trkpt lat="47.47029" lon="-1.87257">
        <ele>55.745565</ele>
        <time>2022-12-15T15:04:26.642Z</time>
      </trkpt>
      <trkpt lat="47.47016" lon="-1.87253">
        <ele>55.707378</ele>
        <time>2022-12-15T15:04:29.644Z</time>
      </trkpt>
      <trkpt lat="47.47003" lon="-1.87249">
        <ele>55.668622</ele>
        <time>2022-12-15T15:04:32.641Z</time>
      </trkpt>
      <trkpt lat="47.46991" lon="-1.87245">
        <ele>55.631401</ele>
        <time>2022-12-15T15:04:35.619Z</time>
      </trkpt>
      <trkpt lat="47.4698" lon="-1.8724">
        <ele>55.598334</ele>
        <time>2022-12-15T15:04:38.637Z</time>
      </trkpt>
      <trkpt lat="47.46969" lon="-1.87235">
        <ele>55.566027</ele>
        <time>2022-12-15T15:04:41.637Z</time>
      </trkpt>
      <trkpt lat="47.46958" lon="-1.87228">
        <ele>55.532086</ele>
        <time>2022-12-15T15:04:44.643Z</time>
      </trkpt>
      <trkpt lat="47.46947" lon="-1.87221">
        <ele>55.498308</ele>
        <time>2022-12-15T15:04:47.642Z</time>
      </trkpt>
      <trkpt lat="47.46937" lon="-1.87213">
        <ele>55.463759</ele>
        <time>2022-12-15T15:04:50.636Z</time>
      </trkpt>
      <trkpt lat="47.46926" lon="-1.87204">
        <ele>55.429828</ele>
        <time>2022-12-15T15:04:53.639Z</time>
      </trkpt>
      <trkpt lat="47.46917" lon="-1.87198">
        <ele>55.398717</ele>
        <time>2022-12-15T15:04:56.619Z</time>
      </trkpt>
      <trkpt lat="47.46907" lon="-1.87191">
        <ele>55.369158</ele>
        <time>2022-12-15T15:04:59.621Z</time>
      </trkpt>
      <trkpt lat="47.46899" lon="-1.87184">
        <ele>55.34272</ele>
        <time>2022-12-15T15:05:02.643Z</time>
      </trkpt>
      <trkpt lat="47.46889" lon="-1.87176">
        <ele>55.308479</ele>
        <time>2022-12-15T15:05:06.645Z</time>
      </trkpt>
      <trkpt lat="47.4688" lon="-1.8717">
        <ele>55.279525</ele>
        <time>2022-12-15T15:05:10.646Z</time>
      </trkpt>
      <trkpt lat="47.4687" lon="-1.87163">
        <ele>55.247596</ele>
        <time>2022-12-15T15:05:15.639Z</time>
      </trkpt>
      <trkpt lat="47.4686" lon="-1.87158">
        <ele>55.204795</ele>
        <time>2022-12-15T15:05:19.627Z</time>
      </trkpt>
      <trkpt lat="47.46847" lon="-1.87151">
        <ele>55.140817</ele>
        <time>2022-12-15T15:05:22.633Z</time>
      </trkpt>
      <trkpt lat="47.46837" lon="-1.87145">
        <ele>55.093888</ele>
        <time>2022-12-15T15:05:24.643Z</time>
      </trkpt>
      <trkpt lat="47.46827" lon="-1.8714">
        <ele>55.043216</ele>
        <time>2022-12-15T15:05:26.646Z</time>
      </trkpt>
      <trkpt lat="47.46817" lon="-1.87134">
        <ele>54.989911</ele>
        <time>2022-12-15T15:05:28.646Z</time>
      </trkpt>
      <trkpt lat="47.46806" lon="-1.87131">
        <ele>54.938478</ele>
        <time>2022-12-15T15:05:30.643Z</time>
      </trkpt>
      <trkpt lat="47.46796" lon="-1.87126">
        <ele>54.891216</ele>
        <time>2022-12-15T15:05:32.638Z</time>
      </trkpt>
      <trkpt lat="47.46787" lon="-1.8712">
        <ele>54.844824</ele>
        <time>2022-12-15T15:05:34.632Z</time>
      </trkpt>
      <trkpt lat="47.46778" lon="-1.87115">
        <ele>54.799669</ele>
        <time>2022-12-15T15:05:36.622Z</time>
      </trkpt>
      <trkpt lat="47.46768" lon="-1.87105">
        <ele>54.741247</ele>
        <time>2022-12-15T15:05:39.643Z</time>
      </trkpt>
      <trkpt lat="47.46757" lon="-1.87097">
        <ele>54.683934</ele>
        <time>2022-12-15T15:05:42.642Z</time>
      </trkpt>
      <trkpt lat="47.46745" lon="-1.8709">
        <ele>54.625454</ele>
        <time>2022-12-15T15:05:45.643Z</time>
      </trkpt>
      <trkpt lat="47.46737" lon="-1.87084">
        <ele>54.581354</ele>
        <time>2022-12-15T15:05:47.641Z</time>
      </trkpt>
      <trkpt lat="47.46729" lon="-1.87078">
        <ele>54.539174</ele>
        <time>2022-12-15T15:05:49.639Z</time>
      </trkpt>
      <trkpt lat="47.4672" lon="-1.87073">
        <ele>54.49464</ele>
        <time>2022-12-15T15:05:51.621Z</time>
      </trkpt>
      <trkpt lat="47.46711" lon="-1.87068">
        <ele>54.450598</ele>
        <time>2022-12-15T15:05:53.636Z</time>
      </trkpt>
      <trkpt lat="47.46702" lon="-1.87062">
        <ele>54.405739</ele>
        <time>2022-12-15T15:05:55.634Z</time>
      </trkpt>
      <trkpt lat="47.46694" lon="-1.87056">
        <ele>54.342838</ele>
        <time>2022-12-15T15:05:57.635Z</time>
      </trkpt>
      <trkpt lat="47.46685" lon="-1.8705">
        <ele>54.271734</ele>
        <time>2022-12-15T15:05:59.637Z</time>
      </trkpt>
      <trkpt lat="47.46675" lon="-1.87044">
        <ele>54.196382</ele>
        <time>2022-12-15T15:06:01.643Z</time>
      </trkpt>
      <trkpt lat="47.46666" lon="-1.87038">
        <ele>54.121103</ele>
        <time>2022-12-15T15:06:03.638Z</time>
      </trkpt>
      <trkpt lat="47.46656" lon="-1.87032">
        <ele>54.042091</ele>
        <time>2022-12-15T15:06:05.640Z</time>
      </trkpt>
      <trkpt lat="47.46646" lon="-1.87025">
        <ele>53.963997</ele>
        <time>2022-12-15T15:06:07.640Z</time>
      </trkpt>
      <trkpt lat="47.46637" lon="-1.87018">
        <ele>53.887426</ele>
        <time>2022-12-15T15:06:09.642Z</time>
      </trkpt>
      <trkpt lat="47.46628" lon="-1.87011">
        <ele>53.816056</ele>
        <time>2022-12-15T15:06:11.642Z</time>
      </trkpt>
      <trkpt lat="47.4662" lon="-1.87004">
        <ele>53.746027</ele>
        <time>2022-12-15T15:06:13.639Z</time>
      </trkpt>
      <trkpt lat="47.46612" lon="-1.86996">
        <ele>53.679459</ele>
        <time>2022-12-15T15:06:15.641Z</time>
      </trkpt>
      <trkpt lat="47.46605" lon="-1.86986">
        <ele>53.607214</ele>
        <time>2022-12-15T15:06:17.626Z</time>
      </trkpt>
      <trkpt lat="47.46599" lon="-1.86975">
        <ele>53.536017</ele>
        <time>2022-12-15T15:06:19.620Z</time>
      </trkpt>
      <trkpt lat="47.46593" lon="-1.86962">
        <ele>53.461151</ele>
        <time>2022-12-15T15:06:21.628Z</time>
      </trkpt>
      <trkpt lat="47.46589" lon="-1.86949">
        <ele>53.388892</ele>
        <time>2022-12-15T15:06:23.623Z</time>
      </trkpt>
      <trkpt lat="47.46586" lon="-1.86935">
        <ele>53.314583</ele>
        <time>2022-12-15T15:06:25.640Z</time>
      </trkpt>
      <trkpt lat="47.46584" lon="-1.86921">
        <ele>53.24359</ele>
        <time>2022-12-15T15:06:27.631Z</time>
      </trkpt>
      <trkpt lat="47.46584" lon="-1.86905">
        <ele>53.166658</ele>
        <time>2022-12-15T15:06:29.626Z</time>
      </trkpt>
      <trkpt lat="47.46584" lon="-1.86889">
        <ele>53.089231</ele>
        <time>2022-12-15T15:06:31.633Z</time>
      </trkpt>
      <trkpt lat="47.46586" lon="-1.86874">
        <ele>53.10699</ele>
        <time>2022-12-15T15:06:33.623Z</time>
      </trkpt>
      <trkpt lat="47.46586" lon="-1.86861">
        <ele>53.134858</ele>
        <time>2022-12-15T15:06:35.643Z</time>
      </trkpt>
      <trkpt lat="47.46587" lon="-1.86843">
        <ele>53.172124</ele>
        <time>2022-12-15T15:06:38.644Z</time>
      </trkpt>
      <trkpt lat="47.4659" lon="-1.86824">
        <ele>53.210438</ele>
        <time>2022-12-15T15:06:41.634Z</time>
      </trkpt>
      <trkpt lat="47.46593" lon="-1.86806">
        <ele>53.249326</ele>
        <time>2022-12-15T15:06:44.640Z</time>
      </trkpt>
      <trkpt lat="47.46595" lon="-1.86793">
        <ele>53.276917</ele>
        <time>2022-12-15T15:06:46.634Z</time>
      </trkpt>
      <trkpt lat="47.46598" lon="-1.8678">
        <ele>53.305744</ele>
        <time>2022-12-15T15:06:48.638Z</time>
      </trkpt>
      <trkpt lat="47.466" lon="-1.86766">
        <ele>53.334743</ele>
        <time>2022-12-15T15:06:50.643Z</time>
      </trkpt>
      <trkpt lat="47.46605" lon="-1.86754">
        <ele>53.362325</ele>
        <time>2022-12-15T15:06:52.642Z</time>
      </trkpt>
      <trkpt lat="47.46611" lon="-1.8674">
        <ele>53.395833</ele>
        <time>2022-12-15T15:06:55.624Z</time>
      </trkpt>
      <trkpt lat="47.46617" lon="-1.86727">
        <ele>53.428255</ele>
        <time>2022-12-15T15:06:58.630Z</time>
      </trkpt>
      <trkpt lat="47.46623" lon="-1.86713">
        <ele>53.463229</ele>
        <time>2022-12-15T15:07:01.632Z</time>
      </trkpt>
      <trkpt lat="47.46629" lon="-1.86696">
        <ele>53.502385</ele>
        <time>2022-12-15T15:07:04.638Z</time>
      </trkpt>
      <trkpt lat="47.46633" lon="-1.86684">
        <ele>53.529611</ele>
        <time>2022-12-15T15:07:06.641Z</time>
      </trkpt>
      <trkpt lat="47.4664" lon="-1.86668">
        <ele>53.569165</ele>
        <time>2022-12-15T15:07:09.638Z</time>
      </trkpt>
      <trkpt lat="47.46646" lon="-1.86652">
        <ele>53.607412</ele>
        <time>2022-12-15T15:07:12.641Z</time>
      </trkpt>
      <trkpt lat="47.46651" lon="-1.86637">
        <ele>53.660645</ele>
        <time>2022-12-15T15:07:14.641Z</time>
      </trkpt>
      <trkpt lat="47.46655" lon="-1.86624">
        <ele>53.731621</ele>
        <time>2022-12-15T15:07:16.636Z</time>
      </trkpt>
      <trkpt lat="47.46659" lon="-1.8661">
        <ele>53.801926</ele>
        <time>2022-12-15T15:07:18.632Z</time>
      </trkpt>
      <trkpt lat="47.46662" lon="-1.86595">
        <ele>53.876585</ele>
        <time>2022-12-15T15:07:20.627Z</time>
      </trkpt>
      <trkpt lat="47.46666" lon="-1.86581">
        <ele>53.947125</ele>
        <time>2022-12-15T15:07:22.643Z</time>
      </trkpt>
      <trkpt lat="47.46669" lon="-1.86568">
        <ele>54.012461</ele>
        <time>2022-12-15T15:07:24.639Z</time>
      </trkpt>
      <trkpt lat="47.46677" lon="-1.86553">
        <ele>54.102711</ele>
        <time>2022-12-15T15:07:27.629Z</time>
      </trkpt>
      <trkpt lat="47.46684" lon="-1.8654">
        <ele>54.184192</ele>
        <time>2022-12-15T15:07:30.643Z</time>
      </trkpt>
      <trkpt lat="47.46691" lon="-1.86525">
        <ele>54.266936</ele>
        <time>2022-12-15T15:07:33.639Z</time>
      </trkpt>
      <trkpt lat="47.46696" lon="-1.86509">
        <ele>54.352501</ele>
        <time>2022-12-15T15:07:36.628Z</time>
      </trkpt>
      <trkpt lat="47.46698" lon="-1.86492">
        <ele>54.433705</ele>
        <time>2022-12-15T15:07:39.642Z</time>
      </trkpt>
      <trkpt lat="47.46701" lon="-1.86474">
        <ele>54.521639</ele>
        <time>2022-12-15T15:07:42.643Z</time>
      </trkpt>
      <trkpt lat="47.46702" lon="-1.86455">
        <ele>54.612146</ele>
        <time>2022-12-15T15:07:45.644Z</time>
      </trkpt>
      <trkpt lat="47.46703" lon="-1.86441">
        <ele>54.680208</ele>
        <time>2022-12-15T15:07:47.638Z</time>
      </trkpt>
      <trkpt lat="47.46705" lon="-1.86427">
        <ele>54.748458</ele>
        <time>2022-12-15T15:07:49.645Z</time>
      </trkpt>
      <trkpt lat="47.46705" lon="-1.86413">
        <ele>54.81238</ele>
        <time>2022-12-15T15:07:51.647Z</time>
      </trkpt>
      <trkpt lat="47.46706" lon="-1.864">
        <ele>54.877917</ele>
        <time>2022-12-15T15:07:53.642Z</time>
      </trkpt>
      <trkpt lat="47.46708" lon="-1.86386">
        <ele>54.835835</ele>
        <time>2022-12-15T15:07:55.642Z</time>
      </trkpt>
      <trkpt lat="47.46708" lon="-1.86371">
        <ele>54.758368</ele>
        <time>2022-12-15T15:07:57.624Z</time>
      </trkpt>
      <trkpt lat="47.46707" lon="-1.86357">
        <ele>54.689789</ele>
        <time>2022-12-15T15:07:59.645Z</time>
      </trkpt>
      <trkpt lat="47.46703" lon="-1.86343">
        <ele>54.617642</ele>
        <time>2022-12-15T15:08:01.645Z</time>
      </trkpt>
      <trkpt lat="47.46699" lon="-1.86331">
        <ele>54.549583</ele>
        <time>2022-12-15T15:08:03.641Z</time>
      </trkpt>
      <trkpt lat="47.46693" lon="-1.8632">
        <ele>54.47914</ele>
        <time>2022-12-15T15:08:05.642Z</time>
      </trkpt>
      <trkpt lat="47.46686" lon="-1.86304">
        <ele>54.383301</ele>
        <time>2022-12-15T15:08:08.632Z</time>
      </trkpt>
      <trkpt lat="47.46679" lon="-1.86289">
        <ele>54.29484</ele>
        <time>2022-12-15T15:08:11.640Z</time>
      </trkpt>
      <trkpt lat="47.46672" lon="-1.86274">
        <ele>54.202607</ele>
        <time>2022-12-15T15:08:14.641Z</time>
      </trkpt>
      <trkpt lat="47.46664" lon="-1.86259">
        <ele>54.107807</ele>
        <time>2022-12-15T15:08:17.633Z</time>
      </trkpt>
      <trkpt lat="47.46658" lon="-1.86248">
        <ele>54.038994</ele>
        <time>2022-12-15T15:08:19.643Z</time>
      </trkpt>
      <trkpt lat="47.46652" lon="-1.86237">
        <ele>53.968818</ele>
        <time>2022-12-15T15:08:21.627Z</time>
      </trkpt>
      <trkpt lat="47.46646" lon="-1.86227">
        <ele>53.899703</ele>
        <time>2022-12-15T15:08:23.640Z</time>
      </trkpt>
      <trkpt lat="47.46639" lon="-1.86217">
        <ele>53.830315</ele>
        <time>2022-12-15T15:08:25.643Z</time>
      </trkpt>
      <trkpt lat="47.46632" lon="-1.86207">
        <ele>53.757242</ele>
        <time>2022-12-15T15:08:27.637Z</time>
      </trkpt>
      <trkpt lat="47.46625" lon="-1.86196">
        <ele>53.685192</ele>
        <time>2022-12-15T15:08:29.640Z</time>
      </trkpt>
      <trkpt lat="47.46619" lon="-1.86185">
        <ele>53.613703</ele>
        <time>2022-12-15T15:08:31.640Z</time>
      </trkpt>
      <trkpt lat="47.46612" lon="-1.86175">
        <ele>53.573897</ele>
        <time>2022-12-15T15:08:33.643Z</time>
      </trkpt>
      <trkpt lat="47.46606" lon="-1.86164">
        <ele>53.585388</ele>
        <time>2022-12-15T15:08:35.640Z</time>
      </trkpt>
      <trkpt lat="47.466" lon="-1.86153">
        <ele>53.596879</ele>
        <time>2022-12-15T15:08:37.649Z</time>
      </trkpt>
      <trkpt lat="47.46595" lon="-1.8614">
        <ele>53.608695</ele>
        <time>2022-12-15T15:08:39.641Z</time>
      </trkpt>
      <trkpt lat="47.46592" lon="-1.86128">
        <ele>53.61957</ele>
        <time>2022-12-15T15:08:41.641Z</time>
      </trkpt>
      <trkpt lat="47.46588" lon="-1.86115">
        <ele>53.630515</ele>
        <time>2022-12-15T15:08:43.638Z</time>
      </trkpt>
      <trkpt lat="47.46583" lon="-1.86099">
        <ele>53.644903</ele>
        <time>2022-12-15T15:08:46.625Z</time>
      </trkpt>
      <trkpt lat="47.46579" lon="-1.86081">
        <ele>53.660394</ele>
        <time>2022-12-15T15:08:49.637Z</time>
      </trkpt>
      <trkpt lat="47.46575" lon="-1.86062">
        <ele>53.676227</ele>
        <time>2022-12-15T15:08:52.641Z</time>
      </trkpt>
      <trkpt lat="47.4657" lon="-1.86044">
        <ele>53.692264</ele>
        <time>2022-12-15T15:08:55.645Z</time>
      </trkpt>
      <trkpt lat="47.46567" lon="-1.86031">
        <ele>53.703124</ele>
        <time>2022-12-15T15:08:57.630Z</time>
      </trkpt>
      <trkpt lat="47.46563" lon="-1.86018">
        <ele>53.714556</ele>
        <time>2022-12-15T15:08:59.645Z</time>
      </trkpt>
      <trkpt lat="47.4656" lon="-1.86005">
        <ele>53.725597</ele>
        <time>2022-12-15T15:09:01.639Z</time>
      </trkpt>
      <trkpt lat="47.46557" lon="-1.85992">
        <ele>53.73687</ele>
        <time>2022-12-15T15:09:03.641Z</time>
      </trkpt>
      <trkpt lat="47.46554" lon="-1.85979">
        <ele>53.74826</ele>
        <time>2022-12-15T15:09:05.643Z</time>
      </trkpt>
      <trkpt lat="47.4655" lon="-1.85966">
        <ele>53.759705</ele>
        <time>2022-12-15T15:09:07.640Z</time>
      </trkpt>
      <trkpt lat="47.46547" lon="-1.85953">
        <ele>53.771137</ele>
        <time>2022-12-15T15:09:09.634Z</time>
      </trkpt>
      <trkpt lat="47.46544" lon="-1.85939">
        <ele>53.782608</ele>
        <time>2022-12-15T15:09:11.631Z</time>
      </trkpt>
      <trkpt lat="47.46542" lon="-1.85925">
        <ele>53.889108</ele>
        <time>2022-12-15T15:09:13.620Z</time>
      </trkpt>
      <trkpt lat="47.4654" lon="-1.85912">
        <ele>54.012685</ele>
        <time>2022-12-15T15:09:15.645Z</time>
      </trkpt>
      <trkpt lat="47.46538" lon="-1.85899">
        <ele>54.137445</ele>
        <time>2022-12-15T15:09:17.644Z</time>
      </trkpt>
      <trkpt lat="47.46537" lon="-1.85885">
        <ele>54.265896</ele>
        <time>2022-12-15T15:09:19.636Z</time>
      </trkpt>
      <trkpt lat="47.46536" lon="-1.85871">
        <ele>54.389072</ele>
        <time>2022-12-15T15:09:21.640Z</time>
      </trkpt>
      <trkpt lat="47.46536" lon="-1.85857">
        <ele>54.518635</ele>
        <time>2022-12-15T15:09:23.637Z</time>
      </trkpt>
      <trkpt lat="47.46535" lon="-1.85843">
        <ele>54.645942</ele>
        <time>2022-12-15T15:09:25.640Z</time>
      </trkpt>
      <trkpt lat="47.46535" lon="-1.85829">
        <ele>54.774142</ele>
        <time>2022-12-15T15:09:27.637Z</time>
      </trkpt>
      <trkpt lat="47.46536" lon="-1.85815">
        <ele>54.903507</ele>
        <time>2022-12-15T15:09:29.645Z</time>
      </trkpt>
      <trkpt lat="47.46538" lon="-1.858">
        <ele>55.04458</ele>
        <time>2022-12-15T15:09:31.634Z</time>
      </trkpt>
      <trkpt lat="47.46539" lon="-1.85781">
        <ele>55.218535</ele>
        <time>2022-12-15T15:09:34.638Z</time>
      </trkpt>
      <trkpt lat="47.46541" lon="-1.85766">
        <ele>55.359696</ele>
        <time>2022-12-15T15:09:37.638Z</time>
      </trkpt>
      <trkpt lat="47.46544" lon="-1.85749">
        <ele>55.517244</ele>
        <time>2022-12-15T15:09:40.647Z</time>
      </trkpt>
      <trkpt lat="47.46547" lon="-1.85732">
        <ele>55.683782</ele>
        <time>2022-12-15T15:09:43.634Z</time>
      </trkpt>
      <trkpt lat="47.46551" lon="-1.85713">
        <ele>55.863345</ele>
        <time>2022-12-15T15:09:46.641Z</time>
      </trkpt>
      <trkpt lat="47.46555" lon="-1.857">
        <ele>55.990623</ele>
        <time>2022-12-15T15:09:48.632Z</time>
      </trkpt>
      <trkpt lat="47.46559" lon="-1.85686">
        <ele>56.128427</ele>
        <time>2022-12-15T15:09:50.637Z</time>
      </trkpt>
      <trkpt lat="47.46563" lon="-1.85674">
        <ele>56.20618</ele>
        <time>2022-12-15T15:09:52.640Z</time>
      </trkpt>
      <trkpt lat="47.46568" lon="-1.85655">
        <ele>56.132574</ele>
        <time>2022-12-15T15:09:55.639Z</time>
      </trkpt>
      <trkpt lat="47.46575" lon="-1.85639">
        <ele>56.062427</ele>
        <time>2022-12-15T15:09:58.645Z</time>
      </trkpt>
      <trkpt lat="47.46578" lon="-1.85626">
        <ele>56.013567</ele>
        <time>2022-12-15T15:10:00.641Z</time>
      </trkpt>
      <trkpt lat="47.46582" lon="-1.85613">
        <ele>55.964657</ele>
        <time>2022-12-15T15:10:02.639Z</time>
      </trkpt>
      <trkpt lat="47.46588" lon="-1.85596">
        <ele>55.89143</ele>
        <time>2022-12-15T15:10:05.634Z</time>
      </trkpt>
      <trkpt lat="47.46595" lon="-1.85581">
        <ele>55.825835</ele>
        <time>2022-12-15T15:10:08.634Z</time>
      </trkpt>
      <trkpt lat="47.46599" lon="-1.85569">
        <ele>55.776655</ele>
        <time>2022-12-15T15:10:10.640Z</time>
      </trkpt>
      <trkpt lat="47.46606" lon="-1.85554">
        <ele>55.713186</ele>
        <time>2022-12-15T15:10:13.638Z</time>
      </trkpt>
      <trkpt lat="47.46611" lon="-1.85543">
        <ele>55.663553</ele>
        <time>2022-12-15T15:10:15.643Z</time>
      </trkpt>
      <trkpt lat="47.46616" lon="-1.85531">
        <ele>55.611792</ele>
        <time>2022-12-15T15:10:17.640Z</time>
      </trkpt>
      <trkpt lat="47.46622" lon="-1.85519">
        <ele>55.559458</ele>
        <time>2022-12-15T15:10:19.640Z</time>
      </trkpt>
      <trkpt lat="47.4663" lon="-1.85504">
        <ele>55.489374</ele>
        <time>2022-12-15T15:10:22.643Z</time>
      </trkpt>
      <trkpt lat="47.46637" lon="-1.85489">
        <ele>55.422871</ele>
        <time>2022-12-15T15:10:25.642Z</time>
      </trkpt>
      <trkpt lat="47.46646" lon="-1.85476">
        <ele>55.355951</ele>
        <time>2022-12-15T15:10:28.636Z</time>
      </trkpt>
      <trkpt lat="47.46655" lon="-1.85463">
        <ele>55.287131</ele>
        <time>2022-12-15T15:10:31.643Z</time>
      </trkpt>
      <trkpt lat="47.46664" lon="-1.85449">
        <ele>55.168176</ele>
        <time>2022-12-15T15:10:34.638Z</time>
      </trkpt>
      <trkpt lat="47.46672" lon="-1.85439">
        <ele>55.044201</ele>
        <time>2022-12-15T15:10:37.640Z</time>
      </trkpt>
      <trkpt lat="47.4668" lon="-1.85429">
        <ele>54.922161</ele>
        <time>2022-12-15T15:10:40.641Z</time>
      </trkpt>
      <trkpt lat="47.46689" lon="-1.85417">
        <ele>54.774856</ele>
        <time>2022-12-15T15:10:43.642Z</time>
      </trkpt>
      <trkpt lat="47.46698" lon="-1.85406">
        <ele>54.630592</ele>
        <time>2022-12-15T15:10:46.631Z</time>
      </trkpt>
      <trkpt lat="47.46709" lon="-1.85395">
        <ele>54.480139</ele>
        <time>2022-12-15T15:10:49.640Z</time>
      </trkpt>
      <trkpt lat="47.46719" lon="-1.85385">
        <ele>54.33224</ele>
        <time>2022-12-15T15:10:52.642Z</time>
      </trkpt>
      <trkpt lat="47.4673" lon="-1.85375">
        <ele>54.172857</ele>
        <time>2022-12-15T15:10:55.635Z</time>
      </trkpt>
      <trkpt lat="47.4674" lon="-1.85366">
        <ele>54.030309</ele>
        <time>2022-12-15T15:10:58.632Z</time>
      </trkpt>
      <trkpt lat="47.46749" lon="-1.8536">
        <ele>53.916637</ele>
        <time>2022-12-15T15:11:01.642Z</time>
      </trkpt>
      <trkpt lat="47.46758" lon="-1.85353">
        <ele>53.797587</ele>
        <time>2022-12-15T15:11:04.616Z</time>
      </trkpt>
      <trkpt lat="47.46769" lon="-1.85347">
        <ele>53.660903</ele>
        <time>2022-12-15T15:11:07.629Z</time>
      </trkpt>
      <trkpt lat="47.46779" lon="-1.85341">
        <ele>53.521964</ele>
        <time>2022-12-15T15:11:10.629Z</time>
      </trkpt>
      <trkpt lat="47.46791" lon="-1.85335">
        <ele>53.378244</ele>
        <time>2022-12-15T15:11:13.621Z</time>
      </trkpt>
      <trkpt lat="47.46802" lon="-1.85329">
        <ele>53.231155</ele>
        <time>2022-12-15T15:11:16.638Z</time>
      </trkpt>
      <trkpt lat="47.46814" lon="-1.85323">
        <ele>53.106709</ele>
        <time>2022-12-15T15:11:19.640Z</time>
      </trkpt>
      <trkpt lat="47.46826" lon="-1.85316">
        <ele>53.173659</ele>
        <time>2022-12-15T15:11:22.640Z</time>
      </trkpt>
      <trkpt lat="47.46838" lon="-1.8531">
        <ele>53.244265</ele>
        <time>2022-12-15T15:11:25.639Z</time>
      </trkpt>
      <trkpt lat="47.46851" lon="-1.85303">
        <ele>53.314099</ele>
        <time>2022-12-15T15:11:28.639Z</time>
      </trkpt>
      <trkpt lat="47.46863" lon="-1.85296">
        <ele>53.384933</ele>
        <time>2022-12-15T15:11:31.636Z</time>
      </trkpt>
      <trkpt lat="47.46872" lon="-1.85292">
        <ele>53.433082</ele>
        <time>2022-12-15T15:11:33.707Z</time>
      </trkpt>
      <trkpt lat="47.4688" lon="-1.85287">
        <ele>53.483356</ele>
        <time>2022-12-15T15:11:35.650Z</time>
      </trkpt>
      <trkpt lat="47.46889" lon="-1.85281">
        <ele>53.534575</ele>
        <time>2022-12-15T15:11:37.644Z</time>
      </trkpt>
      <trkpt lat="47.469" lon="-1.85273">
        <ele>53.600278</ele>
        <time>2022-12-15T15:11:40.624Z</time>
      </trkpt>
      <trkpt lat="47.46911" lon="-1.85268">
        <ele>53.659714</ele>
        <time>2022-12-15T15:11:43.639Z</time>
      </trkpt>
      <trkpt lat="47.46921" lon="-1.8526">
        <ele>53.722214</ele>
        <time>2022-12-15T15:11:46.626Z</time>
      </trkpt>
      <trkpt lat="47.46933" lon="-1.85252">
        <ele>53.792228</ele>
        <time>2022-12-15T15:11:49.637Z</time>
      </trkpt>
      <trkpt lat="47.46945" lon="-1.85243">
        <ele>53.863839</ele>
        <time>2022-12-15T15:11:52.641Z</time>
      </trkpt>
      <trkpt lat="47.46957" lon="-1.85234">
        <ele>53.935495</ele>
        <time>2022-12-15T15:11:55.638Z</time>
      </trkpt>
      <trkpt lat="47.46968" lon="-1.85224">
        <ele>54.00674</ele>
        <time>2022-12-15T15:11:58.635Z</time>
      </trkpt>
      <trkpt lat="47.4698" lon="-1.85214">
        <ele>54.064162</ele>
        <time>2022-12-15T15:12:01.640Z</time>
      </trkpt>
      <trkpt lat="47.46991" lon="-1.85205">
        <ele>54.082966</ele>
        <time>2022-12-15T15:12:04.643Z</time>
      </trkpt>
      <trkpt lat="47.47" lon="-1.85198">
        <ele>54.099308</ele>
        <time>2022-12-15T15:12:07.625Z</time>
      </trkpt>
      <trkpt lat="47.47009" lon="-1.8519">
        <ele>54.114359</ele>
        <time>2022-12-15T15:12:10.639Z</time>
      </trkpt>
      <trkpt lat="47.47018" lon="-1.85181">
        <ele>54.129915</ele>
        <time>2022-12-15T15:12:13.641Z</time>
      </trkpt>
      <trkpt lat="47.47027" lon="-1.85172">
        <ele>54.146901</ele>
        <time>2022-12-15T15:12:16.650Z</time>
      </trkpt>
      <trkpt lat="47.47036" lon="-1.8516">
        <ele>54.165002</ele>
        <time>2022-12-15T15:12:19.627Z</time>
      </trkpt>
      <trkpt lat="47.47045" lon="-1.85146">
        <ele>54.184415</ele>
        <time>2022-12-15T15:12:22.640Z</time>
      </trkpt>
      <trkpt lat="47.47053" lon="-1.85131">
        <ele>54.203715</ele>
        <time>2022-12-15T15:12:25.639Z</time>
      </trkpt>
      <trkpt lat="47.47061" lon="-1.85117">
        <ele>54.222921</ele>
        <time>2022-12-15T15:12:28.627Z</time>
      </trkpt>
      <trkpt lat="47.4707" lon="-1.85103">
        <ele>54.24163</ele>
        <time>2022-12-15T15:12:31.631Z</time>
      </trkpt>
      <trkpt lat="47.47079" lon="-1.85092">
        <ele>54.259702</ele>
        <time>2022-12-15T15:12:34.633Z</time>
      </trkpt>
      <trkpt lat="47.47091" lon="-1.85082">
        <ele>54.27922</ele>
        <time>2022-12-15T15:12:37.649Z</time>
      </trkpt>
      <trkpt lat="47.47102" lon="-1.85074">
        <ele>54.297868</ele>
        <time>2022-12-15T15:12:40.629Z</time>
      </trkpt>
      <trkpt lat="47.47113" lon="-1.85067">
        <ele>54.316539</ele>
        <time>2022-12-15T15:12:43.640Z</time>
      </trkpt>
      <trkpt lat="47.47125" lon="-1.85059">
        <ele>54.330924</ele>
        <time>2022-12-15T15:12:46.634Z</time>
      </trkpt>
      <trkpt lat="47.47136" lon="-1.85051">
        <ele>54.338516</ele>
        <time>2022-12-15T15:12:49.639Z</time>
      </trkpt>
      <trkpt lat="47.47147" lon="-1.85041">
        <ele>54.346192</ele>
        <time>2022-12-15T15:12:52.629Z</time>
      </trkpt>
      <trkpt lat="47.47158" lon="-1.85031">
        <ele>54.353852</ele>
        <time>2022-12-15T15:12:55.654Z</time>
      </trkpt>
      <trkpt lat="47.47166" lon="-1.85023">
        <ele>54.359633</ele>
        <time>2022-12-15T15:12:58.641Z</time>
      </trkpt>
      <trkpt lat="47.47173" lon="-1.85013">
        <ele>54.365692</ele>
        <time>2022-12-15T15:13:01.648Z</time>
      </trkpt>
      <trkpt lat="47.47181" lon="-1.85001">
        <ele>54.372464</ele>
        <time>2022-12-15T15:13:04.626Z</time>
      </trkpt>
      <trkpt lat="47.47189" lon="-1.84989">
        <ele>54.379477</ele>
        <time>2022-12-15T15:13:07.649Z</time>
      </trkpt>
      <trkpt lat="47.47197" lon="-1.84975">
        <ele>54.386881</ele>
        <time>2022-12-15T15:13:10.640Z</time>
      </trkpt>
      <trkpt lat="47.47206" lon="-1.84961">
        <ele>54.394586</ele>
        <time>2022-12-15T15:13:13.636Z</time>
      </trkpt>
      <trkpt lat="47.47215" lon="-1.84947">
        <ele>54.402412</ele>
        <time>2022-12-15T15:13:16.640Z</time>
      </trkpt>
      <trkpt lat="47.47222" lon="-1.84937">
        <ele>54.408097</ele>
        <time>2022-12-15T15:13:18.643Z</time>
      </trkpt>
      <trkpt lat="47.47228" lon="-1.84927">
        <ele>54.413475</ele>
        <time>2022-12-15T15:13:20.631Z</time>
      </trkpt>
      <trkpt lat="47.47234" lon="-1.84917">
        <ele>54.419037</ele>
        <time>2022-12-15T15:13:22.638Z</time>
      </trkpt>
      <trkpt lat="47.47239" lon="-1.84905">
        <ele>54.425002</ele>
        <time>2022-12-15T15:13:24.632Z</time>
      </trkpt>
      <trkpt lat="47.47245" lon="-1.84894">
        <ele>54.430751</ele>
        <time>2022-12-15T15:13:26.654Z</time>
      </trkpt>
      <trkpt lat="47.47251" lon="-1.84882">
        <ele>54.43802</ele>
        <time>2022-12-15T15:13:28.628Z</time>
      </trkpt>
      <trkpt lat="47.47256" lon="-1.84871">
        <ele>54.463905</ele>
        <time>2022-12-15T15:13:30.652Z</time>
      </trkpt>
      <trkpt lat="47.47262" lon="-1.8486">
        <ele>54.491371</ele>
        <time>2022-12-15T15:13:32.704Z</time>
      </trkpt>
      <trkpt lat="47.47268" lon="-1.84849">
        <ele>54.518936</ele>
        <time>2022-12-15T15:13:34.649Z</time>
      </trkpt>
      <trkpt lat="47.47275" lon="-1.84838">
        <ele>54.545914</ele>
        <time>2022-12-15T15:13:36.647Z</time>
      </trkpt>
      <trkpt lat="47.47281" lon="-1.84828">
        <ele>54.572647</ele>
        <time>2022-12-15T15:13:38.676Z</time>
      </trkpt>
      <trkpt lat="47.4729" lon="-1.84813">
        <ele>54.609857</ele>
        <time>2022-12-15T15:13:41.641Z</time>
      </trkpt>
      <trkpt lat="47.473" lon="-1.848">
        <ele>54.648324</ele>
        <time>2022-12-15T15:13:44.693Z</time>
      </trkpt>
      <trkpt lat="47.47307" lon="-1.84792">
        <ele>54.67394</ele>
        <time>2022-12-15T15:13:46.643Z</time>
      </trkpt>
      <trkpt lat="47.47318" lon="-1.8478">
        <ele>54.711069</ele>
        <time>2022-12-15T15:13:49.639Z</time>
      </trkpt>
      <trkpt lat="47.47328" lon="-1.84769">
        <ele>54.747627</ele>
        <time>2022-12-15T15:13:52.625Z</time>
      </trkpt>
      <trkpt lat="47.47338" lon="-1.84759">
        <ele>54.782928</ele>
        <time>2022-12-15T15:13:55.640Z</time>
      </trkpt>
      <trkpt lat="47.47349" lon="-1.84748">
        <ele>54.818681</ele>
        <time>2022-12-15T15:13:58.637Z</time>
      </trkpt>
      <trkpt lat="47.47359" lon="-1.84738">
        <ele>54.85265</ele>
        <time>2022-12-15T15:14:01.639Z</time>
      </trkpt>
      <trkpt lat="47.47368" lon="-1.84733">
        <ele>54.881805</ele>
        <time>2022-12-15T15:14:04.649Z</time>
      </trkpt>
      <trkpt lat="47.47378" lon="-1.84729">
        <ele>54.90866</ele>
        <time>2022-12-15T15:14:07.654Z</time>
      </trkpt>
      <trkpt lat="47.47388" lon="-1.84727">
        <ele>54.937291</ele>
        <time>2022-12-15T15:14:10.644Z</time>
      </trkpt>
      <trkpt lat="47.47399" lon="-1.84725">
        <ele>54.918051</ele>
        <time>2022-12-15T15:14:13.695Z</time>
      </trkpt>
      <trkpt lat="47.4741" lon="-1.84725">
        <ele>54.886081</ele>
        <time>2022-12-15T15:14:16.631Z</time>
      </trkpt>
      <trkpt lat="47.4742" lon="-1.84722">
        <ele>54.854066</ele>
        <time>2022-12-15T15:14:19.714Z</time>
      </trkpt>
      <trkpt lat="47.4743" lon="-1.84716">
        <ele>54.818501</ele>
        <time>2022-12-15T15:14:22.650Z</time>
      </trkpt>
      <trkpt lat="47.47439" lon="-1.84706">
        <ele>54.785319</ele>
        <time>2022-12-15T15:14:25.706Z</time>
      </trkpt>
      <trkpt lat="47.47445" lon="-1.84694">
        <ele>54.753154</ele>
        <time>2022-12-15T15:14:28.639Z</time>
      </trkpt>
      <trkpt lat="47.47449" lon="-1.84681">
        <ele>54.722114</ele>
        <time>2022-12-15T15:14:31.685Z</time>
      </trkpt>
      <trkpt lat="47.47452" lon="-1.84667">
        <ele>54.692788</ele>
        <time>2022-12-15T15:14:34.650Z</time>
      </trkpt>
      <trkpt lat="47.47455" lon="-1.8465">
        <ele>54.656209</ele>
        <time>2022-12-15T15:14:38.629Z</time>
      </trkpt>
      <trkpt lat="47.47458" lon="-1.84636">
        <ele>54.624464</ele>
        <time>2022-12-15T15:14:41.623Z</time>
      </trkpt>
      <trkpt lat="47.47462" lon="-1.84621">
        <ele>54.591369</ele>
        <time>2022-12-15T15:14:44.629Z</time>
      </trkpt>
      <trkpt lat="47.47465" lon="-1.84606">
        <ele>54.557183</ele>
        <time>2022-12-15T15:14:47.640Z</time>
      </trkpt>
      <trkpt lat="47.47469" lon="-1.84589">
        <ele>54.521094</ele>
        <time>2022-12-15T15:14:50.651Z</time>
      </trkpt>
      <trkpt lat="47.47473" lon="-1.84572">
        <ele>54.482744</ele>
        <time>2022-12-15T15:14:53.647Z</time>
      </trkpt>
      <trkpt lat="47.47477" lon="-1.84556">
        <ele>54.446465</ele>
        <time>2022-12-15T15:14:56.633Z</time>
      </trkpt>
      <trkpt lat="47.47479" lon="-1.84542">
        <ele>54.415643</ele>
        <time>2022-12-15T15:14:58.649Z</time>
      </trkpt>
      <trkpt lat="47.47482" lon="-1.84527">
        <ele>54.388681</ele>
        <time>2022-12-15T15:15:00.637Z</time>
      </trkpt>
      <trkpt lat="47.47484" lon="-1.84514">
        <ele>54.402781</ele>
        <time>2022-12-15T15:15:02.631Z</time>
      </trkpt>
      <trkpt lat="47.47487" lon="-1.84501">
        <ele>54.416269</ele>
        <time>2022-12-15T15:15:04.650Z</time>
      </trkpt>
      <trkpt lat="47.47492" lon="-1.84484">
        <ele>54.433574</ele>
        <time>2022-12-15T15:15:07.626Z</time>
      </trkpt>
      <trkpt lat="47.47495" lon="-1.84466">
        <ele>54.452755</ele>
        <time>2022-12-15T15:15:10.653Z</time>
      </trkpt>
      <trkpt lat="47.47499" lon="-1.84446">
        <ele>54.473077</ele>
        <time>2022-12-15T15:15:13.643Z</time>
      </trkpt>
      <trkpt lat="47.47502" lon="-1.84433">
        <ele>54.486676</ele>
        <time>2022-12-15T15:15:15.646Z</time>
      </trkpt>
      <trkpt lat="47.47505" lon="-1.84419">
        <ele>54.500868</ele>
        <time>2022-12-15T15:15:17.641Z</time>
      </trkpt>
      <trkpt lat="47.47508" lon="-1.84406">
        <ele>54.515109</ele>
        <time>2022-12-15T15:15:19.649Z</time>
      </trkpt>
      <trkpt lat="47.4751" lon="-1.84391">
        <ele>54.529725</ele>
        <time>2022-12-15T15:15:21.641Z</time>
      </trkpt>
      <trkpt lat="47.47512" lon="-1.84378">
        <ele>54.542931</ele>
        <time>2022-12-15T15:15:23.648Z</time>
      </trkpt>
      <trkpt lat="47.47513" lon="-1.84359">
        <ele>54.561963</ele>
        <time>2022-12-15T15:15:26.648Z</time>
      </trkpt>
      <trkpt lat="47.47514" lon="-1.84342">
        <ele>54.579329</ele>
        <time>2022-12-15T15:15:29.653Z</time>
      </trkpt>
      <trkpt lat="47.47513" lon="-1.84327">
        <ele>54.593625</ele>
        <time>2022-12-15T15:15:32.625Z</time>
      </trkpt>
      <trkpt lat="47.4751" lon="-1.84311">
        <ele>54.610885</ele>
        <time>2022-12-15T15:15:36.683Z</time>
      </trkpt>
      <trkpt lat="47.47506" lon="-1.84297">
        <ele>54.626171</ele>
        <time>2022-12-15T15:15:39.626Z</time>
      </trkpt>
      <trkpt lat="47.475" lon="-1.84282">
        <ele>54.643437</ele>
        <time>2022-12-15T15:15:42.629Z</time>
      </trkpt>
      <trkpt lat="47.47492" lon="-1.84269">
        <ele>54.663783</ele>
        <time>2022-12-15T15:15:45.650Z</time>
      </trkpt>
      <trkpt lat="47.47484" lon="-1.84255">
        <ele>54.690835</ele>
        <time>2022-12-15T15:15:48.642Z</time>
      </trkpt>
      <trkpt lat="47.47478" lon="-1.84245">
        <ele>54.709768</ele>
        <time>2022-12-15T15:15:50.649Z</time>
      </trkpt>
      <trkpt lat="47.47469" lon="-1.8423">
        <ele>54.73766</ele>
        <time>2022-12-15T15:15:53.640Z</time>
      </trkpt>
      <trkpt lat="47.47462" lon="-1.8422">
        <ele>54.757966</ele>
        <time>2022-12-15T15:15:55.643Z</time>
      </trkpt>
      <trkpt lat="47.47456" lon="-1.84209">
        <ele>54.77697</ele>
        <time>2022-12-15T15:15:57.642Z</time>
      </trkpt>
      <trkpt lat="47.47448" lon="-1.84197">
        <ele>54.801363</ele>
        <time>2022-12-15T15:16:00.653Z</time>
      </trkpt>
      <trkpt lat="47.47442" lon="-1.84184">
        <ele>54.823865</ele>
        <time>2022-12-15T15:16:03.643Z</time>
      </trkpt>
      <trkpt lat="47.47436" lon="-1.84169">
        <ele>54.848585</ele>
        <time>2022-12-15T15:16:06.631Z</time>
      </trkpt>
      <trkpt lat="47.47432" lon="-1.84152">
        <ele>54.873623</ele>
        <time>2022-12-15T15:16:09.639Z</time>
      </trkpt>
      <trkpt lat="47.47431" lon="-1.84134">
        <ele>54.899791</ele>
        <time>2022-12-15T15:16:12.629Z</time>
      </trkpt>
      <trkpt lat="47.47435" lon="-1.84116">
        <ele>54.926111</ele>
        <time>2022-12-15T15:16:15.649Z</time>
      </trkpt>
      <trkpt lat="47.47439" lon="-1.84099">
        <ele>54.951551</ele>
        <time>2022-12-15T15:16:18.630Z</time>
      </trkpt>
      <trkpt lat="47.47444" lon="-1.84083">
        <ele>54.976597</ele>
        <time>2022-12-15T15:16:21.645Z</time>
      </trkpt>
      <trkpt lat="47.47448" lon="-1.84066">
        <ele>55.001953</ele>
        <time>2022-12-15T15:16:24.638Z</time>
      </trkpt>
      <trkpt lat="47.47453" lon="-1.8405">
        <ele>55.026577</ele>
        <time>2022-12-15T15:16:27.639Z</time>
      </trkpt>
      <trkpt lat="47.47456" lon="-1.84033">
        <ele>54.933637</ele>
        <time>2022-12-15T15:16:30.651Z</time>
      </trkpt>
      <trkpt lat="47.47459" lon="-1.84016">
        <ele>54.837539</ele>
        <time>2022-12-15T15:16:33.641Z</time>
      </trkpt>
      <trkpt lat="47.47462" lon="-1.84002">
        <ele>54.756714</ele>
        <time>2022-12-15T15:16:36.648Z</time>
      </trkpt>
      <trkpt lat="47.47466" lon="-1.83969">
        <ele>54.572468</ele>
        <time>2022-12-15T15:19:39.629Z</time>
      </trkpt>
      <trkpt lat="47.47471" lon="-1.83954">
        <ele>54.483716</ele>
        <time>2022-12-15T15:19:42.623Z</time>
      </trkpt>
      <trkpt lat="47.47475" lon="-1.83941">
        <ele>54.400296</ele>
        <time>2022-12-15T15:19:45.640Z</time>
      </trkpt>
      <trkpt lat="47.47478" lon="-1.83926">
        <ele>54.314061</ele>
        <time>2022-12-15T15:19:49.636Z</time>
      </trkpt>
      <trkpt lat="47.47482" lon="-1.83913">
        <ele>54.237173</ele>
        <time>2022-12-15T15:19:53.638Z</time>
      </trkpt>
      <trkpt lat="47.47486" lon="-1.83901">
        <ele>54.162852</ele>
        <time>2022-12-15T15:19:57.645Z</time>
      </trkpt>
      <trkpt lat="47.47491" lon="-1.83887">
        <ele>54.075753</ele>
        <time>2022-12-15T15:20:02.645Z</time>
      </trkpt>
      <trkpt lat="47.47494" lon="-1.83872">
        <ele>53.988577</ele>
        <time>2022-12-15T15:20:07.637Z</time>
      </trkpt>
      <trkpt lat="47.47498" lon="-1.83857">
        <ele>53.901163</ele>
        <time>2022-12-15T15:20:11.635Z</time>
      </trkpt>
      <trkpt lat="47.47503" lon="-1.83842">
        <ele>53.812571</ele>
        <time>2022-12-15T15:20:15.644Z</time>
      </trkpt>
      <trkpt lat="47.47506" lon="-1.83828">
        <ele>53.730191</ele>
        <time>2022-12-15T15:20:19.632Z</time>
      </trkpt>
      <trkpt lat="47.4751" lon="-1.83816">
        <ele>53.656287</ele>
        <time>2022-12-15T15:20:22.637Z</time>
      </trkpt>
      <trkpt lat="47.47515" lon="-1.83802">
        <ele>53.565237</ele>
        <time>2022-12-15T15:20:26.622Z</time>
      </trkpt>
      <trkpt lat="47.4752" lon="-1.83785">
        <ele>53.688634</ele>
        <time>2022-12-15T15:20:30.637Z</time>
      </trkpt>
      <trkpt lat="47.47523" lon="-1.83771">
        <ele>53.796613</ele>
        <time>2022-12-15T15:20:33.640Z</time>
      </trkpt>
      <trkpt lat="47.47526" lon="-1.83756">
        <ele>53.912338</ele>
        <time>2022-12-15T15:20:36.640Z</time>
      </trkpt>
      <trkpt lat="47.4753" lon="-1.83741">
        <ele>54.031401</ele>
        <time>2022-12-15T15:20:39.629Z</time>
      </trkpt>
      <trkpt lat="47.47534" lon="-1.83725">
        <ele>54.152579</ele>
        <time>2022-12-15T15:20:42.638Z</time>
      </trkpt>
      <trkpt lat="47.47538" lon="-1.83708">
        <ele>54.279565</ele>
        <time>2022-12-15T15:20:45.620Z</time>
      </trkpt>
      <trkpt lat="47.4754" lon="-1.83692">
        <ele>54.399173</ele>
        <time>2022-12-15T15:20:48.633Z</time>
      </trkpt>
      <trkpt lat="47.47544" lon="-1.83674">
        <ele>54.533523</ele>
        <time>2022-12-15T15:20:51.638Z</time>
      </trkpt>
      <trkpt lat="47.47546" lon="-1.83655">
        <ele>54.670162</ele>
        <time>2022-12-15T15:20:54.636Z</time>
      </trkpt>
      <trkpt lat="47.47547" lon="-1.83636">
        <ele>54.810206</ele>
        <time>2022-12-15T15:20:57.639Z</time>
      </trkpt>
      <trkpt lat="47.47547" lon="-1.83623">
        <ele>54.907054</ele>
        <time>2022-12-15T15:20:59.634Z</time>
      </trkpt>
      <trkpt lat="47.47546" lon="-1.83609">
        <ele>55.005607</ele>
        <time>2022-12-15T15:21:01.643Z</time>
      </trkpt>
      <trkpt lat="47.47545" lon="-1.83596">
        <ele>55.102808</ele>
        <time>2022-12-15T15:21:03.630Z</time>
      </trkpt>
      <trkpt lat="47.47544" lon="-1.83577">
        <ele>55.240968</ele>
        <time>2022-12-15T15:21:06.630Z</time>
      </trkpt>
      <trkpt lat="47.47544" lon="-1.83563">
        <ele>55.337449</ele>
        <time>2022-12-15T15:21:08.648Z</time>
      </trkpt>
      <trkpt lat="47.47543" lon="-1.83549">
        <ele>55.437977</ele>
        <time>2022-12-15T15:21:10.644Z</time>
      </trkpt>
      <trkpt lat="47.47543" lon="-1.83535">
        <ele>55.52998</ele>
        <time>2022-12-15T15:21:12.640Z</time>
      </trkpt>
      <trkpt lat="47.47542" lon="-1.83515">
        <ele>55.642758</ele>
        <time>2022-12-15T15:21:15.644Z</time>
      </trkpt>
      <trkpt lat="47.4754" lon="-1.83496">
        <ele>55.754398</ele>
        <time>2022-12-15T15:21:18.635Z</time>
      </trkpt>
      <trkpt lat="47.47538" lon="-1.83477">
        <ele>55.863998</ele>
        <time>2022-12-15T15:21:21.638Z</time>
      </trkpt>
      <trkpt lat="47.47536" lon="-1.83464">
        <ele>55.943139</ele>
        <time>2022-12-15T15:21:23.626Z</time>
      </trkpt>
      <trkpt lat="47.47535" lon="-1.8345">
        <ele>56.021717</ele>
        <time>2022-12-15T15:21:25.638Z</time>
      </trkpt>
      <trkpt lat="47.47533" lon="-1.83437">
        <ele>56.099733</ele>
        <time>2022-12-15T15:21:27.638Z</time>
      </trkpt>
      <trkpt lat="47.47532" lon="-1.83423">
        <ele>56.179462</ele>
        <time>2022-12-15T15:21:29.638Z</time>
      </trkpt>
      <trkpt lat="47.47529" lon="-1.83403">
        <ele>56.295213</ele>
        <time>2022-12-15T15:21:32.638Z</time>
      </trkpt>
      <trkpt lat="47.47528" lon="-1.8339">
        <ele>56.373366</ele>
        <time>2022-12-15T15:21:34.635Z</time>
      </trkpt>
      <trkpt lat="47.47526" lon="-1.83376">
        <ele>56.453227</ele>
        <time>2022-12-15T15:21:36.644Z</time>
      </trkpt>
      <trkpt lat="47.47524" lon="-1.83357">
        <ele>56.559748</ele>
        <time>2022-12-15T15:21:39.620Z</time>
      </trkpt>
      <trkpt lat="47.47522" lon="-1.8334">
        <ele>56.659516</ele>
        <time>2022-12-15T15:21:42.623Z</time>
      </trkpt>
      <trkpt lat="47.47519" lon="-1.83323">
        <ele>56.763397</ele>
        <time>2022-12-15T15:21:45.622Z</time>
      </trkpt>
      <trkpt lat="47.47514" lon="-1.83306">
        <ele>56.867506</ele>
        <time>2022-12-15T15:21:48.627Z</time>
      </trkpt>
      <trkpt lat="47.4751" lon="-1.83288">
        <ele>56.978399</ele>
        <time>2022-12-15T15:21:51.644Z</time>
      </trkpt>
      <trkpt lat="47.47506" lon="-1.83276">
        <ele>56.969205</ele>
        <time>2022-12-15T15:21:53.633Z</time>
      </trkpt>
      <trkpt lat="47.47502" lon="-1.83263">
        <ele>56.899269</ele>
        <time>2022-12-15T15:21:55.641Z</time>
      </trkpt>
      <trkpt lat="47.47498" lon="-1.8325">
        <ele>56.825928</ele>
        <time>2022-12-15T15:21:57.632Z</time>
      </trkpt>
      <trkpt lat="47.47492" lon="-1.83232">
        <ele>56.729033</ele>
        <time>2022-12-15T15:22:00.641Z</time>
      </trkpt>
      <trkpt lat="47.47489" lon="-1.8322">
        <ele>56.660658</ele>
        <time>2022-12-15T15:22:02.639Z</time>
      </trkpt>
      <trkpt lat="47.47484" lon="-1.83207">
        <ele>56.58966</ele>
        <time>2022-12-15T15:22:04.639Z</time>
      </trkpt>
      <trkpt lat="47.4748" lon="-1.83195">
        <ele>56.518823</ele>
        <time>2022-12-15T15:22:06.626Z</time>
      </trkpt>
      <trkpt lat="47.47475" lon="-1.83183">
        <ele>56.448967</ele>
        <time>2022-12-15T15:22:08.634Z</time>
      </trkpt>
      <trkpt lat="47.4747" lon="-1.83168">
        <ele>56.363239</ele>
        <time>2022-12-15T15:22:11.625Z</time>
      </trkpt>
      <trkpt lat="47.47464" lon="-1.83151">
        <ele>56.270315</ele>
        <time>2022-12-15T15:22:14.638Z</time>
      </trkpt>
      <trkpt lat="47.47459" lon="-1.83135">
        <ele>56.177288</ele>
        <time>2022-12-15T15:22:17.639Z</time>
      </trkpt>
      <trkpt lat="47.47453" lon="-1.83118">
        <ele>56.083363</ele>
        <time>2022-12-15T15:22:20.624Z</time>
      </trkpt>
      <trkpt lat="47.47448" lon="-1.831">
        <ele>55.98313</ele>
        <time>2022-12-15T15:22:23.639Z</time>
      </trkpt>
      <trkpt lat="47.47444" lon="-1.83088">
        <ele>55.914615</ele>
        <time>2022-12-15T15:22:25.622Z</time>
      </trkpt>
      <trkpt lat="47.47439" lon="-1.83076">
        <ele>55.844786</ele>
        <time>2022-12-15T15:22:27.635Z</time>
      </trkpt>
      <trkpt lat="47.47431" lon="-1.8306">
        <ele>55.743196</ele>
        <time>2022-12-15T15:22:30.638Z</time>
      </trkpt>
      <trkpt lat="47.47424" lon="-1.83049">
        <ele>55.667625</ele>
        <time>2022-12-15T15:22:32.627Z</time>
      </trkpt>
      <trkpt lat="47.47418" lon="-1.83037">
        <ele>55.580082</ele>
        <time>2022-12-15T15:22:34.643Z</time>
      </trkpt>
      <trkpt lat="47.47411" lon="-1.83026">
        <ele>55.492818</ele>
        <time>2022-12-15T15:22:36.634Z</time>
      </trkpt>
      <trkpt lat="47.47403" lon="-1.83015">
        <ele>55.396883</ele>
        <time>2022-12-15T15:22:38.644Z</time>
      </trkpt>
      <trkpt lat="47.47396" lon="-1.83005">
        <ele>55.31269</ele>
        <time>2022-12-15T15:22:40.637Z</time>
      </trkpt>
      <trkpt lat="47.47388" lon="-1.82996">
        <ele>55.227813</ele>
        <time>2022-12-15T15:22:42.639Z</time>
      </trkpt>
      <trkpt lat="47.47381" lon="-1.82987">
        <ele>55.147404</ele>
        <time>2022-12-15T15:22:44.643Z</time>
      </trkpt>
      <trkpt lat="47.47374" lon="-1.82979">
        <ele>55.068603</ele>
        <time>2022-12-15T15:22:46.641Z</time>
      </trkpt>
      <trkpt lat="47.47364" lon="-1.82968">
        <ele>54.96038</ele>
        <time>2022-12-15T15:22:49.645Z</time>
      </trkpt>
      <trkpt lat="47.47354" lon="-1.82957">
        <ele>54.849365</ele>
        <time>2022-12-15T15:22:52.639Z</time>
      </trkpt>
      <trkpt lat="47.47346" lon="-1.82949">
        <ele>54.766343</ele>
        <time>2022-12-15T15:22:54.643Z</time>
      </trkpt>
      <trkpt lat="47.47338" lon="-1.8294">
        <ele>54.675987</ele>
        <time>2022-12-15T15:22:56.629Z</time>
      </trkpt>
      <trkpt lat="47.47331" lon="-1.82931">
        <ele>54.594023</ele>
        <time>2022-12-15T15:22:58.638Z</time>
      </trkpt>
      <trkpt lat="47.47323" lon="-1.82922">
        <ele>54.510994</ele>
        <time>2022-12-15T15:23:00.619Z</time>
      </trkpt>
      <trkpt lat="47.47316" lon="-1.82913">
        <ele>54.429917</ele>
        <time>2022-12-15T15:23:02.641Z</time>
      </trkpt>
      <trkpt lat="47.47308" lon="-1.82899">
        <ele>54.320678</ele>
        <time>2022-12-15T15:23:05.637Z</time>
      </trkpt>
      <trkpt lat="47.47301" lon="-1.82888">
        <ele>54.227939</ele>
        <time>2022-12-15T15:23:08.628Z</time>
      </trkpt>
      <trkpt lat="47.47293" lon="-1.82876">
        <ele>54.133152</ele>
        <time>2022-12-15T15:23:11.641Z</time>
      </trkpt>
      <trkpt lat="47.47286" lon="-1.82863">
        <ele>54.10962</ele>
        <time>2022-12-15T15:23:14.637Z</time>
      </trkpt>
      <trkpt lat="47.47278" lon="-1.82848">
        <ele>54.12423</ele>
        <time>2022-12-15T15:23:17.641Z</time>
      </trkpt>
      <trkpt lat="47.47272" lon="-1.82838">
        <ele>54.134901</ele>
        <time>2022-12-15T15:23:19.631Z</time>
      </trkpt>
      <trkpt lat="47.47266" lon="-1.82827">
        <ele>54.145766</ele>
        <time>2022-12-15T15:23:21.634Z</time>
      </trkpt>
      <trkpt lat="47.47261" lon="-1.82816">
        <ele>54.15669</ele>
        <time>2022-12-15T15:23:23.635Z</time>
      </trkpt>
      <trkpt lat="47.47256" lon="-1.82804">
        <ele>54.168215</ele>
        <time>2022-12-15T15:23:25.644Z</time>
      </trkpt>
      <trkpt lat="47.47247" lon="-1.8279">
        <ele>54.1832</ele>
        <time>2022-12-15T15:23:28.624Z</time>
      </trkpt>
      <trkpt lat="47.4724" lon="-1.82774">
        <ele>54.19856</ele>
        <time>2022-12-15T15:23:31.642Z</time>
      </trkpt>
      <trkpt lat="47.47236" lon="-1.82762">
        <ele>54.209317</ele>
        <time>2022-12-15T15:23:33.668Z</time>
      </trkpt>
      <trkpt lat="47.47229" lon="-1.82745">
        <ele>54.225636</ele>
        <time>2022-12-15T15:23:36.626Z</time>
      </trkpt>
      <trkpt lat="47.47223" lon="-1.82733">
        <ele>54.236825</ele>
        <time>2022-12-15T15:23:38.636Z</time>
      </trkpt>
      <trkpt lat="47.47218" lon="-1.82722">
        <ele>54.248152</ele>
        <time>2022-12-15T15:23:40.638Z</time>
      </trkpt>
      <trkpt lat="47.4721" lon="-1.82705">
        <ele>54.264243</ele>
        <time>2022-12-15T15:23:43.638Z</time>
      </trkpt>
      <trkpt lat="47.47205" lon="-1.82693">
        <ele>54.275101</ele>
        <time>2022-12-15T15:23:45.638Z</time>
      </trkpt>
      <trkpt lat="47.47201" lon="-1.82681">
        <ele>54.286115</ele>
        <time>2022-12-15T15:23:47.644Z</time>
      </trkpt>
      <trkpt lat="47.47195" lon="-1.8267">
        <ele>54.296907</ele>
        <time>2022-12-15T15:23:49.639Z</time>
      </trkpt>
      <trkpt lat="47.4719" lon="-1.82658">
        <ele>54.308891</ele>
        <time>2022-12-15T15:23:51.638Z</time>
      </trkpt>
      <trkpt lat="47.47184" lon="-1.82646">
        <ele>54.324097</ele>
        <time>2022-12-15T15:23:53.643Z</time>
      </trkpt>
      <trkpt lat="47.47179" lon="-1.82633">
        <ele>54.34238</ele>
        <time>2022-12-15T15:23:55.632Z</time>
      </trkpt>
      <trkpt lat="47.47175" lon="-1.8262">
        <ele>54.359438</ele>
        <time>2022-12-15T15:23:57.634Z</time>
      </trkpt>
      <trkpt lat="47.47171" lon="-1.82607">
        <ele>54.376543</ele>
        <time>2022-12-15T15:23:59.638Z</time>
      </trkpt>
      <trkpt lat="47.47167" lon="-1.82593">
        <ele>54.394436</ele>
        <time>2022-12-15T15:24:01.631Z</time>
      </trkpt>
      <trkpt lat="47.47163" lon="-1.8258">
        <ele>54.411494</ele>
        <time>2022-12-15T15:24:03.641Z</time>
      </trkpt>
      <trkpt lat="47.47158" lon="-1.82568">
        <ele>54.428679</ele>
        <time>2022-12-15T15:24:05.643Z</time>
      </trkpt>
      <trkpt lat="47.47155" lon="-1.82554">
        <ele>54.445911</ele>
        <time>2022-12-15T15:24:07.643Z</time>
      </trkpt>
      <trkpt lat="47.4715" lon="-1.82536">
        <ele>54.469114</ele>
        <time>2022-12-15T15:24:10.638Z</time>
      </trkpt>
      <trkpt lat="47.47146" lon="-1.82519">
        <ele>54.490362</ele>
        <time>2022-12-15T15:24:13.636Z</time>
      </trkpt>
      <trkpt lat="47.47143" lon="-1.82502">
        <ele>54.511692</ele>
        <time>2022-12-15T15:24:16.641Z</time>
      </trkpt>
      <trkpt lat="47.4714" lon="-1.82484">
        <ele>54.534704</ele>
        <time>2022-12-15T15:24:19.642Z</time>
      </trkpt>
      <trkpt lat="47.47137" lon="-1.82464">
        <ele>54.55813</ele>
        <time>2022-12-15T15:24:22.640Z</time>
      </trkpt>
      <trkpt lat="47.47135" lon="-1.82451">
        <ele>54.574318</ele>
        <time>2022-12-15T15:24:24.638Z</time>
      </trkpt>
      <trkpt lat="47.47132" lon="-1.82437">
        <ele>54.591415</ele>
        <time>2022-12-15T15:24:26.634Z</time>
      </trkpt>
      <trkpt lat="47.47129" lon="-1.82417">
        <ele>54.616051</ele>
        <time>2022-12-15T15:24:29.641Z</time>
      </trkpt>
      <trkpt lat="47.47126" lon="-1.82404">
        <ele>54.641687</ele>
        <time>2022-12-15T15:24:31.639Z</time>
      </trkpt>
      <trkpt lat="47.47122" lon="-1.82392">
        <ele>54.757402</ele>
        <time>2022-12-15T15:24:33.629Z</time>
      </trkpt>
      <trkpt lat="47.47118" lon="-1.82379">
        <ele>54.878193</ele>
        <time>2022-12-15T15:24:35.623Z</time>
      </trkpt>
      <trkpt lat="47.47114" lon="-1.82367">
        <ele>54.990699</ele>
        <time>2022-12-15T15:24:37.638Z</time>
      </trkpt>
      <trkpt lat="47.47109" lon="-1.82355">
        <ele>55.106129</ele>
        <time>2022-12-15T15:24:39.647Z</time>
      </trkpt>
      <trkpt lat="47.47103" lon="-1.82339">
        <ele>55.256147</ele>
        <time>2022-12-15T15:24:42.641Z</time>
      </trkpt>
      <trkpt lat="47.47097" lon="-1.82324">
        <ele>55.401031</ele>
        <time>2022-12-15T15:24:45.639Z</time>
      </trkpt>
      <trkpt lat="47.4709" lon="-1.8231">
        <ele>55.551525</ele>
        <time>2022-12-15T15:24:48.640Z</time>
      </trkpt>
      <trkpt lat="47.47082" lon="-1.82294">
        <ele>55.713152</ele>
        <time>2022-12-15T15:24:51.628Z</time>
      </trkpt>
      <trkpt lat="47.47074" lon="-1.82278">
        <ele>55.876095</ele>
        <time>2022-12-15T15:24:54.628Z</time>
      </trkpt>
      <trkpt lat="47.47067" lon="-1.82263">
        <ele>56.032833</ele>
        <time>2022-12-15T15:24:57.628Z</time>
      </trkpt>
      <trkpt lat="47.4706" lon="-1.82249">
        <ele>56.177199</ele>
        <time>2022-12-15T15:25:00.634Z</time>
      </trkpt>
      <trkpt lat="47.47053" lon="-1.82237">
        <ele>56.311905</ele>
        <time>2022-12-15T15:25:03.641Z</time>
      </trkpt>
      <trkpt lat="47.47046" lon="-1.82223">
        <ele>56.454272</ele>
        <time>2022-12-15T15:25:06.632Z</time>
      </trkpt>
      <trkpt lat="47.47039" lon="-1.82207">
        <ele>56.616533</ele>
        <time>2022-12-15T15:25:09.642Z</time>
      </trkpt>
      <trkpt lat="47.47032" lon="-1.82191">
        <ele>56.781611</ele>
        <time>2022-12-15T15:25:12.643Z</time>
      </trkpt>
      <trkpt lat="47.47027" lon="-1.82178">
        <ele>56.862094</ele>
        <time>2022-12-15T15:25:14.642Z</time>
      </trkpt>
      <trkpt lat="47.47023" lon="-1.82166">
        <ele>56.874181</ele>
        <time>2022-12-15T15:25:16.645Z</time>
      </trkpt>
      <trkpt lat="47.47016" lon="-1.82149">
        <ele>56.89199</ele>
        <time>2022-12-15T15:25:19.641Z</time>
      </trkpt>
      <trkpt lat="47.4701" lon="-1.82131">
        <ele>56.910114</ele>
        <time>2022-12-15T15:25:22.646Z</time>
      </trkpt>
      <trkpt lat="47.47006" lon="-1.82118">
        <ele>56.922255</ele>
        <time>2022-12-15T15:25:24.662Z</time>
      </trkpt>
      <trkpt lat="47.47002" lon="-1.82105">
        <ele>56.935211</ele>
        <time>2022-12-15T15:25:26.626Z</time>
      </trkpt>
      <trkpt lat="47.46998" lon="-1.82093">
        <ele>56.947506</ele>
        <time>2022-12-15T15:25:28.644Z</time>
      </trkpt>
      <trkpt lat="47.46993" lon="-1.82076">
        <ele>56.963461</ele>
        <time>2022-12-15T15:25:31.638Z</time>
      </trkpt>
      <trkpt lat="47.46989" lon="-1.82058">
        <ele>56.980136</ele>
        <time>2022-12-15T15:25:34.639Z</time>
      </trkpt>
      <trkpt lat="47.46986" lon="-1.82046">
        <ele>56.992292</ele>
        <time>2022-12-15T15:25:36.639Z</time>
      </trkpt>
      <trkpt lat="47.46982" lon="-1.82027">
        <ele>57.009726</ele>
        <time>2022-12-15T15:25:39.629Z</time>
      </trkpt>
      <trkpt lat="47.4698" lon="-1.82014">
        <ele>57.021599</ele>
        <time>2022-12-15T15:25:41.628Z</time>
      </trkpt>
      <trkpt lat="47.46978" lon="-1.82001">
        <ele>57.03377</ele>
        <time>2022-12-15T15:25:43.634Z</time>
      </trkpt>
      <trkpt lat="47.46977" lon="-1.81987">
        <ele>57.045992</ele>
        <time>2022-12-15T15:25:45.645Z</time>
      </trkpt>
      <trkpt lat="47.46976" lon="-1.81973">
        <ele>57.058391</ele>
        <time>2022-12-15T15:25:47.640Z</time>
      </trkpt>
      <trkpt lat="47.46974" lon="-1.81954">
        <ele>57.076031</ele>
        <time>2022-12-15T15:25:50.640Z</time>
      </trkpt>
      <trkpt lat="47.46973" lon="-1.81936">
        <ele>57.092292</ele>
        <time>2022-12-15T15:25:53.644Z</time>
      </trkpt>
      <trkpt lat="47.46972" lon="-1.81917">
        <ele>57.170984</ele>
        <time>2022-12-15T15:25:56.637Z</time>
      </trkpt>
      <trkpt lat="47.46971" lon="-1.81898">
        <ele>57.258764</ele>
        <time>2022-12-15T15:25:59.643Z</time>
      </trkpt>
      <trkpt lat="47.46971" lon="-1.81879">
        <ele>57.349839</ele>
        <time>2022-12-15T15:26:02.648Z</time>
      </trkpt>
      <trkpt lat="47.46972" lon="-1.8186">
        <ele>57.440766</ele>
        <time>2022-12-15T15:26:05.624Z</time>
      </trkpt>
      <trkpt lat="47.46974" lon="-1.81842">
        <ele>57.526687</ele>
        <time>2022-12-15T15:26:08.631Z</time>
      </trkpt>
      <trkpt lat="47.46975" lon="-1.81825">
        <ele>57.612875</ele>
        <time>2022-12-15T15:26:11.644Z</time>
      </trkpt>
      <trkpt lat="47.46978" lon="-1.81805">
        <ele>57.708396</ele>
        <time>2022-12-15T15:26:14.639Z</time>
      </trkpt>
      <trkpt lat="47.46981" lon="-1.81792">
        <ele>57.773394</ele>
        <time>2022-12-15T15:26:16.644Z</time>
      </trkpt>
      <trkpt lat="47.46983" lon="-1.81779">
        <ele>57.83811</ele>
        <time>2022-12-15T15:26:18.629Z</time>
      </trkpt>
      <trkpt lat="47.46986" lon="-1.81766">
        <ele>57.902713</ele>
        <time>2022-12-15T15:26:20.631Z</time>
      </trkpt>
      <trkpt lat="47.4699" lon="-1.81748">
        <ele>57.994915</ele>
        <time>2022-12-15T15:26:23.623Z</time>
      </trkpt>
      <trkpt lat="47.46995" lon="-1.8173">
        <ele>58.087976</ele>
        <time>2022-12-15T15:26:26.631Z</time>
      </trkpt>
      <trkpt lat="47.47" lon="-1.81717">
        <ele>58.156558</ele>
        <time>2022-12-15T15:26:28.631Z</time>
      </trkpt>
      <trkpt lat="47.47006" lon="-1.81698">
        <ele>58.25466</ele>
        <time>2022-12-15T15:26:31.627Z</time>
      </trkpt>
      <trkpt lat="47.47009" lon="-1.81685">
        <ele>58.319885</ele>
        <time>2022-12-15T15:26:33.642Z</time>
      </trkpt>
      <trkpt lat="47.47013" lon="-1.81667">
        <ele>58.361201</ele>
        <time>2022-12-15T15:26:36.641Z</time>
      </trkpt>
      <trkpt lat="47.47017" lon="-1.8165">
        <ele>58.35687</ele>
        <time>2022-12-15T15:26:39.629Z</time>
      </trkpt>
      <trkpt lat="47.47019" lon="-1.81631">
        <ele>58.352179</ele>
        <time>2022-12-15T15:26:42.644Z</time>
      </trkpt>
      <trkpt lat="47.47021" lon="-1.81618">
        <ele>58.348934</ele>
        <time>2022-12-15T15:26:44.645Z</time>
      </trkpt>
      <trkpt lat="47.47023" lon="-1.81604">
        <ele>58.345595</ele>
        <time>2022-12-15T15:26:46.637Z</time>
      </trkpt>
      <trkpt lat="47.47025" lon="-1.81584">
        <ele>58.34074</ele>
        <time>2022-12-15T15:26:49.643Z</time>
      </trkpt>
      <trkpt lat="47.47026" lon="-1.81563">
        <ele>58.33586</ele>
        <time>2022-12-15T15:26:52.640Z</time>
      </trkpt>
      <trkpt lat="47.47027" lon="-1.81549">
        <ele>58.332369</ele>
        <time>2022-12-15T15:26:54.626Z</time>
      </trkpt>
      <trkpt lat="47.47027" lon="-1.8153">
        <ele>58.327857</ele>
        <time>2022-12-15T15:26:57.641Z</time>
      </trkpt>
      <trkpt lat="47.47027" lon="-1.81513">
        <ele>58.323796</ele>
        <time>2022-12-15T15:27:00.628Z</time>
      </trkpt>
      <trkpt lat="47.47027" lon="-1.81495">
        <ele>58.319475</ele>
        <time>2022-12-15T15:27:03.643Z</time>
      </trkpt>
      <trkpt lat="47.47028" lon="-1.81482">
        <ele>58.316297</ele>
        <time>2022-12-15T15:27:05.635Z</time>
      </trkpt>
      <trkpt lat="47.47028" lon="-1.81463">
        <ele>58.311952</ele>
        <time>2022-12-15T15:27:08.646Z</time>
      </trkpt>
      <trkpt lat="47.47028" lon="-1.81445">
        <ele>58.30756</ele>
        <time>2022-12-15T15:27:11.632Z</time>
      </trkpt>
      <trkpt lat="47.47027" lon="-1.81426">
        <ele>58.303032</ele>
        <time>2022-12-15T15:27:14.632Z</time>
      </trkpt>
      <trkpt lat="47.47026" lon="-1.81413">
        <ele>58.295888</ele>
        <time>2022-12-15T15:27:16.634Z</time>
      </trkpt>
      <trkpt lat="47.47025" lon="-1.81394">
        <ele>58.174858</ele>
        <time>2022-12-15T15:27:19.644Z</time>
      </trkpt>
      <trkpt lat="47.47024" lon="-1.81376">
        <ele>58.058865</ele>
        <time>2022-12-15T15:27:22.645Z</time>
      </trkpt>
      <trkpt lat="47.47023" lon="-1.81357">
        <ele>57.941525</ele>
        <time>2022-12-15T15:27:25.640Z</time>
      </trkpt>
      <trkpt lat="47.47022" lon="-1.81339">
        <ele>57.820284</ele>
        <time>2022-12-15T15:27:28.646Z</time>
      </trkpt>
      <trkpt lat="47.47021" lon="-1.81321">
        <ele>57.708592</ele>
        <time>2022-12-15T15:27:31.633Z</time>
      </trkpt>
      <trkpt lat="47.4702" lon="-1.81302">
        <ele>57.584631</ele>
        <time>2022-12-15T15:27:34.631Z</time>
      </trkpt>
      <trkpt lat="47.47019" lon="-1.81288">
        <ele>57.498111</ele>
        <time>2022-12-15T15:27:36.648Z</time>
      </trkpt>
      <trkpt lat="47.47017" lon="-1.8127">
        <ele>57.376374</ele>
        <time>2022-12-15T15:27:39.634Z</time>
      </trkpt>
      <trkpt lat="47.47014" lon="-1.81252">
        <ele>57.258735</ele>
        <time>2022-12-15T15:27:42.634Z</time>
      </trkpt>
      <trkpt lat="47.47011" lon="-1.81233">
        <ele>57.137143</ele>
        <time>2022-12-15T15:27:45.631Z</time>
      </trkpt>
      <trkpt lat="47.47008" lon="-1.81216">
        <ele>57.024176</ele>
        <time>2022-12-15T15:27:48.629Z</time>
      </trkpt>
      <trkpt lat="47.47004" lon="-1.81198">
        <ele>56.902779</ele>
        <time>2022-12-15T15:27:51.635Z</time>
      </trkpt>
      <trkpt lat="47.47" lon="-1.8118">
        <ele>56.783197</ele>
        <time>2022-12-15T15:27:54.628Z</time>
      </trkpt>
      <trkpt lat="47.46995" lon="-1.81164">
        <ele>56.666038</ele>
        <time>2022-12-15T15:27:57.640Z</time>
      </trkpt>
      <trkpt lat="47.46991" lon="-1.81151">
        <ele>56.610871</ele>
        <time>2022-12-15T15:27:59.633Z</time>
      </trkpt>
      <trkpt lat="47.46985" lon="-1.81133">
        <ele>56.67444</ele>
        <time>2022-12-15T15:28:02.626Z</time>
      </trkpt>
      <trkpt lat="47.46979" lon="-1.81118">
        <ele>56.734765</ele>
        <time>2022-12-15T15:28:05.646Z</time>
      </trkpt>
      <trkpt lat="47.46972" lon="-1.81103">
        <ele>56.792883</ele>
        <time>2022-12-15T15:28:08.643Z</time>
      </trkpt>
      <trkpt lat="47.46966" lon="-1.81092">
        <ele>56.839055</ele>
        <time>2022-12-15T15:28:11.635Z</time>
      </trkpt>
      <trkpt lat="47.46959" lon="-1.81079">
        <ele>56.893763</ele>
        <time>2022-12-15T15:28:15.642Z</time>
      </trkpt>
      <trkpt lat="47.46952" lon="-1.81067">
        <ele>56.943429</ele>
        <time>2022-12-15T15:28:18.628Z</time>
      </trkpt>
      <trkpt lat="47.46944" lon="-1.81055">
        <ele>57.000833</ele>
        <time>2022-12-15T15:28:21.645Z</time>
      </trkpt>
      <trkpt lat="47.46936" lon="-1.81042">
        <ele>57.0572</ele>
        <time>2022-12-15T15:28:24.645Z</time>
      </trkpt>
      <trkpt lat="47.46928" lon="-1.8103">
        <ele>57.11432</ele>
        <time>2022-12-15T15:28:27.645Z</time>
      </trkpt>
      <trkpt lat="47.46919" lon="-1.81016">
        <ele>57.175849</ele>
        <time>2022-12-15T15:28:30.648Z</time>
      </trkpt>
      <trkpt lat="47.46912" lon="-1.81007">
        <ele>57.219621</ele>
        <time>2022-12-15T15:28:32.645Z</time>
      </trkpt>
      <trkpt lat="47.46906" lon="-1.80997">
        <ele>57.263512</ele>
        <time>2022-12-15T15:28:34.645Z</time>
      </trkpt>
      <trkpt lat="47.46899" lon="-1.80987">
        <ele>57.308921</ele>
        <time>2022-12-15T15:28:36.638Z</time>
      </trkpt>
      <trkpt lat="47.46893" lon="-1.80976">
        <ele>57.356029</ele>
        <time>2022-12-15T15:28:38.639Z</time>
      </trkpt>
      <trkpt lat="47.46888" lon="-1.80965">
        <ele>57.400632</ele>
        <time>2022-12-15T15:28:40.643Z</time>
      </trkpt>
      <trkpt lat="47.4688" lon="-1.80948">
        <ele>57.466328</ele>
        <time>2022-12-15T15:28:43.647Z</time>
      </trkpt>
      <trkpt lat="47.46874" lon="-1.80936">
        <ele>57.534274</ele>
        <time>2022-12-15T15:28:45.630Z</time>
      </trkpt>
      <trkpt lat="47.46868" lon="-1.80925">
        <ele>57.599814</ele>
        <time>2022-12-15T15:28:47.641Z</time>
      </trkpt>
      <trkpt lat="47.46862" lon="-1.80909">
        <ele>57.683203</ele>
        <time>2022-12-15T15:28:50.643Z</time>
      </trkpt>
      <trkpt lat="47.46856" lon="-1.80895">
        <ele>57.757748</ele>
        <time>2022-12-15T15:28:53.629Z</time>
      </trkpt>
      <trkpt lat="47.4685" lon="-1.8088">
        <ele>57.835777</ele>
        <time>2022-12-15T15:28:56.629Z</time>
      </trkpt>
      <trkpt lat="47.46846" lon="-1.80865">
        <ele>57.912989</ele>
        <time>2022-12-15T15:28:59.644Z</time>
      </trkpt>
      <trkpt lat="47.46842" lon="-1.80848">
        <ele>57.992941</ele>
        <time>2022-12-15T15:29:02.629Z</time>
      </trkpt>
      <trkpt lat="47.46838" lon="-1.80829">
        <ele>58.082006</ele>
        <time>2022-12-15T15:29:05.638Z</time>
      </trkpt>
      <trkpt lat="47.46835" lon="-1.80811">
        <ele>58.16913</ele>
        <time>2022-12-15T15:29:08.629Z</time>
      </trkpt>
      <trkpt lat="47.46832" lon="-1.80793">
        <ele>58.25412</ele>
        <time>2022-12-15T15:29:11.644Z</time>
      </trkpt>
      <trkpt lat="47.46829" lon="-1.80775">
        <ele>58.336439</ele>
        <time>2022-12-15T15:29:14.635Z</time>
      </trkpt>
      <trkpt lat="47.46828" lon="-1.80757">
        <ele>58.419338</ele>
        <time>2022-12-15T15:29:17.636Z</time>
      </trkpt>
      <trkpt lat="47.46827" lon="-1.80738">
        <ele>58.505641</ele>
        <time>2022-12-15T15:29:20.643Z</time>
      </trkpt>
      <trkpt lat="47.46826" lon="-1.80719">
        <ele>58.594293</ele>
        <time>2022-12-15T15:29:23.640Z</time>
      </trkpt>
      <trkpt lat="47.46826" lon="-1.80699">
        <ele>58.679487</ele>
        <time>2022-12-15T15:29:26.642Z</time>
      </trkpt>
      <trkpt lat="47.46826" lon="-1.80681">
        <ele>58.608644</ele>
        <time>2022-12-15T15:29:29.642Z</time>
      </trkpt>
      <trkpt lat="47.46827" lon="-1.80664">
        <ele>58.544971</ele>
        <time>2022-12-15T15:29:32.640Z</time>
      </trkpt>
      <trkpt lat="47.46828" lon="-1.80647">
        <ele>58.477373</ele>
        <time>2022-12-15T15:29:35.631Z</time>
      </trkpt>
      <trkpt lat="47.4683" lon="-1.80629">
        <ele>58.408397</ele>
        <time>2022-12-15T15:29:38.642Z</time>
      </trkpt>
      <trkpt lat="47.46831" lon="-1.8061">
        <ele>58.335694</ele>
        <time>2022-12-15T15:29:41.625Z</time>
      </trkpt>
      <trkpt lat="47.46833" lon="-1.80592">
        <ele>58.263869</ele>
        <time>2022-12-15T15:29:44.643Z</time>
      </trkpt>
      <trkpt lat="47.46836" lon="-1.80573">
        <ele>58.19071</ele>
        <time>2022-12-15T15:29:47.643Z</time>
      </trkpt>
      <trkpt lat="47.46838" lon="-1.80556">
        <ele>58.122496</ele>
        <time>2022-12-15T15:29:50.637Z</time>
      </trkpt>
      <trkpt lat="47.4684" lon="-1.80538">
        <ele>58.051991</ele>
        <time>2022-12-15T15:29:53.642Z</time>
      </trkpt>
      <trkpt lat="47.46842" lon="-1.80521">
        <ele>57.984909</ele>
        <time>2022-12-15T15:29:56.646Z</time>
      </trkpt>
      <trkpt lat="47.46844" lon="-1.80503">
        <ele>57.916933</ele>
        <time>2022-12-15T15:29:59.622Z</time>
      </trkpt>
      <trkpt lat="47.46846" lon="-1.80485">
        <ele>57.846693</ele>
        <time>2022-12-15T15:30:02.644Z</time>
      </trkpt>
      <trkpt lat="47.46849" lon="-1.80467">
        <ele>57.774291</ele>
        <time>2022-12-15T15:30:05.640Z</time>
      </trkpt>
      <trkpt lat="47.4685" lon="-1.80454">
        <ele>57.722948</ele>
        <time>2022-12-15T15:30:07.647Z</time>
      </trkpt>
      <trkpt lat="47.46851" lon="-1.80441">
        <ele>57.671519</ele>
        <time>2022-12-15T15:30:09.641Z</time>
      </trkpt>
      <trkpt lat="47.46853" lon="-1.80421">
        <ele>57.637052</ele>
        <time>2022-12-15T15:30:12.645Z</time>
      </trkpt>
      <trkpt lat="47.46855" lon="-1.80402">
        <ele>57.613083</ele>
        <time>2022-12-15T15:30:15.645Z</time>
      </trkpt>
      <trkpt lat="47.46858" lon="-1.80384">
        <ele>57.591061</ele>
        <time>2022-12-15T15:30:18.628Z</time>
      </trkpt>
      <trkpt lat="47.46859" lon="-1.80368">
        <ele>57.571003</ele>
        <time>2022-12-15T15:30:21.635Z</time>
      </trkpt>
      <trkpt lat="47.46861" lon="-1.80352">
        <ele>57.550059</ele>
        <time>2022-12-15T15:30:24.632Z</time>
      </trkpt>
      <trkpt lat="47.46864" lon="-1.80335">
        <ele>57.528716</ele>
        <time>2022-12-15T15:30:27.631Z</time>
      </trkpt>
      <trkpt lat="47.46865" lon="-1.80317">
        <ele>57.506348</ele>
        <time>2022-12-15T15:30:30.633Z</time>
      </trkpt>
      <trkpt lat="47.46867" lon="-1.80299">
        <ele>57.483996</ele>
        <time>2022-12-15T15:30:33.638Z</time>
      </trkpt>
      <trkpt lat="47.4687" lon="-1.80281">
        <ele>57.460441</ele>
        <time>2022-12-15T15:30:36.640Z</time>
      </trkpt>
      <trkpt lat="47.46872" lon="-1.80262">
        <ele>57.436504</ele>
        <time>2022-12-15T15:30:39.639Z</time>
      </trkpt>
      <trkpt lat="47.46874" lon="-1.80248">
        <ele>57.419365</ele>
        <time>2022-12-15T15:30:41.642Z</time>
      </trkpt>
      <trkpt lat="47.46877" lon="-1.80229">
        <ele>57.395428</ele>
        <time>2022-12-15T15:30:44.639Z</time>
      </trkpt>
      <trkpt lat="47.46878" lon="-1.80216">
        <ele>57.378736</ele>
        <time>2022-12-15T15:30:46.633Z</time>
      </trkpt>
      <trkpt lat="47.4688" lon="-1.80198">
        <ele>57.356467</ele>
        <time>2022-12-15T15:30:49.644Z</time>
      </trkpt>
      <trkpt lat="47.46882" lon="-1.80182">
        <ele>57.336741</ele>
        <time>2022-12-15T15:30:52.636Z</time>
      </trkpt>
      <trkpt lat="47.46884" lon="-1.80166">
        <ele>57.314033</ele>
        <time>2022-12-15T15:30:55.637Z</time>
      </trkpt>
      <trkpt lat="47.46886" lon="-1.80149">
        <ele>57.287384</ele>
        <time>2022-12-15T15:30:58.635Z</time>
      </trkpt>
      <trkpt lat="47.46888" lon="-1.80131">
        <ele>57.259509</ele>
        <time>2022-12-15T15:31:01.648Z</time>
      </trkpt>
      <trkpt lat="47.4689" lon="-1.80113">
        <ele>57.231132</ele>
        <time>2022-12-15T15:31:04.626Z</time>
      </trkpt>
      <trkpt lat="47.46892" lon="-1.80094">
        <ele>57.203219</ele>
        <time>2022-12-15T15:31:07.635Z</time>
      </trkpt>
      <trkpt lat="47.46894" lon="-1.80076">
        <ele>57.174928</ele>
        <time>2022-12-15T15:31:10.626Z</time>
      </trkpt>
      <trkpt lat="47.46896" lon="-1.80057">
        <ele>57.145929</ele>
        <time>2022-12-15T15:31:13.628Z</time>
      </trkpt>
      <trkpt lat="47.46899" lon="-1.80038">
        <ele>57.116125</ele>
        <time>2022-12-15T15:31:16.638Z</time>
      </trkpt>
      <trkpt lat="47.46902" lon="-1.8002">
        <ele>57.088344</ele>
        <time>2022-12-15T15:31:19.638Z</time>
      </trkpt>
      <trkpt lat="47.46904" lon="-1.80002">
        <ele>57.060469</ele>
        <time>2022-12-15T15:31:22.643Z</time>
      </trkpt>
      <trkpt lat="47.46906" lon="-1.79983">
        <ele>57.031357</ele>
        <time>2022-12-15T15:31:25.643Z</time>
      </trkpt>
      <trkpt lat="47.46908" lon="-1.79966">
        <ele>57.004831</ele>
        <time>2022-12-15T15:31:28.636Z</time>
      </trkpt>
      <trkpt lat="47.4691" lon="-1.79949">
        <ele>56.979053</ele>
        <time>2022-12-15T15:31:31.637Z</time>
      </trkpt>
      <trkpt lat="47.46912" lon="-1.79932">
        <ele>56.951849</ele>
        <time>2022-12-15T15:31:34.640Z</time>
      </trkpt>
      <trkpt lat="47.46914" lon="-1.79914">
        <ele>56.923824</ele>
        <time>2022-12-15T15:31:37.636Z</time>
      </trkpt>
      <trkpt lat="47.46917" lon="-1.79895">
        <ele>56.914143</ele>
        <time>2022-12-15T15:31:40.638Z</time>
      </trkpt>
      <trkpt lat="47.46918" lon="-1.79882">
        <ele>56.90779</ele>
        <time>2022-12-15T15:31:42.642Z</time>
      </trkpt>
      <trkpt lat="47.46919" lon="-1.79869">
        <ele>56.90138</ele>
        <time>2022-12-15T15:31:44.625Z</time>
      </trkpt>
      <trkpt lat="47.46921" lon="-1.79855">
        <ele>56.89491</ele>
        <time>2022-12-15T15:31:46.626Z</time>
      </trkpt>
      <trkpt lat="47.46922" lon="-1.79836">
        <ele>56.885682</ele>
        <time>2022-12-15T15:31:49.627Z</time>
      </trkpt>
      <trkpt lat="47.46925" lon="-1.79817">
        <ele>56.876294</ele>
        <time>2022-12-15T15:31:52.642Z</time>
      </trkpt>
      <trkpt lat="47.46927" lon="-1.79799">
        <ele>56.867704</ele>
        <time>2022-12-15T15:31:55.643Z</time>
      </trkpt>
      <trkpt lat="47.46928" lon="-1.79784">
        <ele>56.860504</ele>
        <time>2022-12-15T15:31:58.644Z</time>
      </trkpt>
      <trkpt lat="47.4693" lon="-1.79766">
        <ele>56.852052</ele>
        <time>2022-12-15T15:32:02.645Z</time>
      </trkpt>
      <trkpt lat="47.46931" lon="-1.79752">
        <ele>56.845107</ele>
        <time>2022-12-15T15:32:05.644Z</time>
      </trkpt>
      <trkpt lat="47.46934" lon="-1.79737">
        <ele>56.837819</ele>
        <time>2022-12-15T15:32:08.641Z</time>
      </trkpt>
      <trkpt lat="47.46936" lon="-1.79721">
        <ele>56.829965</ele>
        <time>2022-12-15T15:32:11.643Z</time>
      </trkpt>
      <trkpt lat="47.46939" lon="-1.79705">
        <ele>56.822143</ele>
        <time>2022-12-15T15:32:14.625Z</time>
      </trkpt>
      <trkpt lat="47.46942" lon="-1.79688">
        <ele>56.813974</ele>
        <time>2022-12-15T15:32:17.644Z</time>
      </trkpt>
      <trkpt lat="47.46944" lon="-1.79672">
        <ele>56.806071</ele>
        <time>2022-12-15T15:32:20.630Z</time>
      </trkpt>
      <trkpt lat="47.46946" lon="-1.79656">
        <ele>56.798189</ele>
        <time>2022-12-15T15:32:23.630Z</time>
      </trkpt>
      <trkpt lat="47.46947" lon="-1.79638">
        <ele>56.867642</ele>
        <time>2022-12-15T15:32:26.646Z</time>
      </trkpt>
      <trkpt lat="47.46949" lon="-1.79619">
        <ele>56.966128</ele>
        <time>2022-12-15T15:32:29.644Z</time>
      </trkpt>
      <trkpt lat="47.46951" lon="-1.796">
        <ele>57.065128</ele>
        <time>2022-12-15T15:32:32.638Z</time>
      </trkpt>
      <trkpt lat="47.46952" lon="-1.79583">
        <ele>57.155257</ele>
        <time>2022-12-15T15:32:35.647Z</time>
      </trkpt>
      <trkpt lat="47.46954" lon="-1.79566">
        <ele>57.244248</ele>
        <time>2022-12-15T15:32:38.645Z</time>
      </trkpt>
      <trkpt lat="47.46956" lon="-1.79547">
        <ele>57.341424</ele>
        <time>2022-12-15T15:32:41.637Z</time>
      </trkpt>
      <trkpt lat="47.46958" lon="-1.79529">
        <ele>57.437969</ele>
        <time>2022-12-15T15:32:44.648Z</time>
      </trkpt>
      <trkpt lat="47.4696" lon="-1.7951">
        <ele>57.53834</ele>
        <time>2022-12-15T15:32:47.635Z</time>
      </trkpt>
      <trkpt lat="47.46962" lon="-1.79491">
        <ele>57.638458</ele>
        <time>2022-12-15T15:32:50.636Z</time>
      </trkpt>
      <trkpt lat="47.46963" lon="-1.79474">
        <ele>57.728661</ele>
        <time>2022-12-15T15:32:53.640Z</time>
      </trkpt>
      <trkpt lat="47.46965" lon="-1.79457">
        <ele>57.816771</ele>
        <time>2022-12-15T15:32:56.630Z</time>
      </trkpt>
      <trkpt lat="47.46967" lon="-1.7944">
        <ele>57.903076</ele>
        <time>2022-12-15T15:32:59.632Z</time>
      </trkpt>
      <trkpt lat="47.46969" lon="-1.79424">
        <ele>57.987597</ele>
        <time>2022-12-15T15:33:02.645Z</time>
      </trkpt>
      <trkpt lat="47.46971" lon="-1.79408">
        <ele>58.07498</ele>
        <time>2022-12-15T15:33:05.644Z</time>
      </trkpt>
      <trkpt lat="47.46973" lon="-1.79391">
        <ele>58.162015</ele>
        <time>2022-12-15T15:33:08.636Z</time>
      </trkpt>
      <trkpt lat="47.46976" lon="-1.79374">
        <ele>58.123999</ele>
        <time>2022-12-15T15:33:11.630Z</time>
      </trkpt>
      <trkpt lat="47.46978" lon="-1.79359">
        <ele>58.068208</ele>
        <time>2022-12-15T15:33:14.632Z</time>
      </trkpt>
      <trkpt lat="47.4698" lon="-1.79346">
        <ele>58.020344</ele>
        <time>2022-12-15T15:33:17.644Z</time>
      </trkpt>
      <trkpt lat="47.46983" lon="-1.79331">
        <ele>57.963859</ele>
        <time>2022-12-15T15:33:21.646Z</time>
      </trkpt>
      <trkpt lat="47.46987" lon="-1.79313">
        <ele>57.898055</ele>
        <time>2022-12-15T15:33:25.647Z</time>
      </trkpt>
      <trkpt lat="47.4699" lon="-1.79297">
        <ele>57.837663</ele>
        <time>2022-12-15T15:33:28.644Z</time>
      </trkpt>
      <trkpt lat="47.46994" lon="-1.7928">
        <ele>57.772168</ele>
        <time>2022-12-15T15:33:31.646Z</time>
      </trkpt>
      <trkpt lat="47.46997" lon="-1.79262">
        <ele>57.705794</ele>
        <time>2022-12-15T15:33:34.651Z</time>
      </trkpt>
      <trkpt lat="47.47001" lon="-1.79244">
        <ele>57.637935</ele>
        <time>2022-12-15T15:33:37.638Z</time>
      </trkpt>
      <trkpt lat="47.47005" lon="-1.79225">
        <ele>57.567709</ele>
        <time>2022-12-15T15:33:40.647Z</time>
      </trkpt>
      <trkpt lat="47.47009" lon="-1.79207">
        <ele>57.497661</ele>
        <time>2022-12-15T15:33:43.645Z</time>
      </trkpt>
      <trkpt lat="47.47014" lon="-1.79188">
        <ele>57.426767</ele>
        <time>2022-12-15T15:33:46.647Z</time>
      </trkpt>
      <trkpt lat="47.47017" lon="-1.79174">
        <ele>57.375031</ele>
        <time>2022-12-15T15:33:48.646Z</time>
      </trkpt>
      <trkpt lat="47.4702" lon="-1.79161">
        <ele>57.326356</ele>
        <time>2022-12-15T15:33:50.647Z</time>
      </trkpt>
      <trkpt lat="47.47023" lon="-1.79148">
        <ele>57.275445</ele>
        <time>2022-12-15T15:33:52.642Z</time>
      </trkpt>
      <trkpt lat="47.47026" lon="-1.79135">
        <ele>57.226426</ele>
        <time>2022-12-15T15:33:54.648Z</time>
      </trkpt>
      <trkpt lat="47.47029" lon="-1.79122">
        <ele>57.167876</ele>
        <time>2022-12-15T15:33:56.646Z</time>
      </trkpt>
      <trkpt lat="47.47032" lon="-1.7911">
        <ele>57.10869</ele>
        <time>2022-12-15T15:33:58.632Z</time>
      </trkpt>
      <trkpt lat="47.47035" lon="-1.79097">
        <ele>57.047409</ele>
        <time>2022-12-15T15:34:00.649Z</time>
      </trkpt>
      <trkpt lat="47.47038" lon="-1.79083">
        <ele>56.985922</ele>
        <time>2022-12-15T15:34:02.647Z</time>
      </trkpt>
      <trkpt lat="47.47041" lon="-1.79066">
        <ele>56.907959</ele>
        <time>2022-12-15T15:34:05.649Z</time>
      </trkpt>
      <trkpt lat="47.47044" lon="-1.79053">
        <ele>56.843962</ele>
        <time>2022-12-15T15:34:08.630Z</time>
      </trkpt>
      <trkpt lat="47.47047" lon="-1.79036">
        <ele>56.767322</ele>
        <time>2022-12-15T15:34:11.625Z</time>
      </trkpt>
      <trkpt lat="47.4705" lon="-1.79023">
        <ele>56.708535</ele>
        <time>2022-12-15T15:34:13.633Z</time>
      </trkpt>
      <trkpt lat="47.47055" lon="-1.79004">
        <ele>56.617763</ele>
        <time>2022-12-15T15:34:16.630Z</time>
      </trkpt>
      <trkpt lat="47.47057" lon="-1.78991">
        <ele>56.558561</ele>
        <time>2022-12-15T15:34:18.629Z</time>
      </trkpt>
      <trkpt lat="47.47061" lon="-1.78974">
        <ele>56.477919</ele>
        <time>2022-12-15T15:34:21.636Z</time>
      </trkpt>
      <trkpt lat="47.47065" lon="-1.78957">
        <ele>56.400488</ele>
        <time>2022-12-15T15:34:24.640Z</time>
      </trkpt>
      <trkpt lat="47.47069" lon="-1.7894">
        <ele>56.31976</ele>
        <time>2022-12-15T15:34:27.645Z</time>
      </trkpt>
      <trkpt lat="47.47071" lon="-1.78924">
        <ele>56.246805</ele>
        <time>2022-12-15T15:34:30.645Z</time>
      </trkpt>
      <trkpt lat="47.47075" lon="-1.78907">
        <ele>56.167728</ele>
        <time>2022-12-15T15:34:33.646Z</time>
      </trkpt>
      <trkpt lat="47.47079" lon="-1.78889">
        <ele>56.087835</ele>
        <time>2022-12-15T15:34:36.640Z</time>
      </trkpt>
      <trkpt lat="47.47083" lon="-1.78872">
        <ele>56.041288</ele>
        <time>2022-12-15T15:34:39.643Z</time>
      </trkpt>
      <trkpt lat="47.47086" lon="-1.78859">
        <ele>56.030833</ele>
        <time>2022-12-15T15:34:41.645Z</time>
      </trkpt>
      <trkpt lat="47.47089" lon="-1.78841">
        <ele>56.01706</ele>
        <time>2022-12-15T15:34:44.647Z</time>
      </trkpt>
      <trkpt lat="47.47092" lon="-1.78826">
        <ele>56.005056</ele>
        <time>2022-12-15T15:34:47.638Z</time>
      </trkpt>
      <trkpt lat="47.47095" lon="-1.7881">
        <ele>55.992737</ele>
        <time>2022-12-15T15:34:50.641Z</time>
      </trkpt>
      <trkpt lat="47.47099" lon="-1.78792">
        <ele>55.978297</ele>
        <time>2022-12-15T15:34:53.648Z</time>
      </trkpt>
      <trkpt lat="47.47103" lon="-1.78774">
        <ele>55.964056</ele>
        <time>2022-12-15T15:34:56.638Z</time>
      </trkpt>
      <trkpt lat="47.47106" lon="-1.78758">
        <ele>55.951302</ele>
        <time>2022-12-15T15:34:59.629Z</time>
      </trkpt>
      <trkpt lat="47.4711" lon="-1.7874">
        <ele>55.937291</ele>
        <time>2022-12-15T15:35:02.625Z</time>
      </trkpt>
      <trkpt lat="47.47113" lon="-1.78723">
        <ele>55.92314</ele>
        <time>2022-12-15T15:35:05.633Z</time>
      </trkpt>
      <trkpt lat="47.47117" lon="-1.78704">
        <ele>55.90845</ele>
        <time>2022-12-15T15:35:08.647Z</time>
      </trkpt>
      <trkpt lat="47.47121" lon="-1.78685">
        <ele>55.89347</ele>
        <time>2022-12-15T15:35:11.647Z</time>
      </trkpt>
      <trkpt lat="47.47124" lon="-1.78671">
        <ele>55.882446</ele>
        <time>2022-12-15T15:35:13.643Z</time>
      </trkpt>
      <trkpt lat="47.47128" lon="-1.78652">
        <ele>55.867425</ele>
        <time>2022-12-15T15:35:16.635Z</time>
      </trkpt>
      <trkpt lat="47.47131" lon="-1.78639">
        <ele>55.856788</ele>
        <time>2022-12-15T15:35:18.647Z</time>
      </trkpt>
      <trkpt lat="47.47135" lon="-1.78625">
        <ele>55.85685</ele>
        <time>2022-12-15T15:35:20.651Z</time>
      </trkpt>
      <trkpt lat="47.47137" lon="-1.78612">
        <ele>55.932913</ele>
        <time>2022-12-15T15:35:22.645Z</time>
      </trkpt>
      <trkpt lat="47.47141" lon="-1.78598">
        <ele>56.012029</ele>
        <time>2022-12-15T15:35:24.644Z</time>
      </trkpt>
      <trkpt lat="47.47145" lon="-1.78585">
        <ele>56.088811</ele>
        <time>2022-12-15T15:35:26.636Z</time>
      </trkpt>
      <trkpt lat="47.47147" lon="-1.78567">
        <ele>56.187635</ele>
        <time>2022-12-15T15:35:29.626Z</time>
      </trkpt>
      <trkpt lat="47.47151" lon="-1.78551">
        <ele>56.280762</ele>
        <time>2022-12-15T15:35:32.624Z</time>
      </trkpt>
      <trkpt lat="47.47155" lon="-1.78534">
        <ele>56.377208</ele>
        <time>2022-12-15T15:35:35.644Z</time>
      </trkpt>
      <trkpt lat="47.47159" lon="-1.78515">
        <ele>56.482074</ele>
        <time>2022-12-15T15:35:38.636Z</time>
      </trkpt>
      <trkpt lat="47.47162" lon="-1.78502">
        <ele>56.554662</ele>
        <time>2022-12-15T15:35:40.643Z</time>
      </trkpt>
      <trkpt lat="47.47166" lon="-1.78484">
        <ele>56.661313</ele>
        <time>2022-12-15T15:35:43.636Z</time>
      </trkpt>
      <trkpt lat="47.47168" lon="-1.78471">
        <ele>56.733538</ele>
        <time>2022-12-15T15:35:45.642Z</time>
      </trkpt>
      <trkpt lat="47.47172" lon="-1.78452">
        <ele>56.838673</ele>
        <time>2022-12-15T15:35:48.634Z</time>
      </trkpt>
      <trkpt lat="47.47176" lon="-1.78433">
        <ele>56.944746</ele>
        <time>2022-12-15T15:35:51.629Z</time>
      </trkpt>
      <trkpt lat="47.47178" lon="-1.7842">
        <ele>57.019103</ele>
        <time>2022-12-15T15:35:53.632Z</time>
      </trkpt>
      <trkpt lat="47.47183" lon="-1.78401">
        <ele>57.124732</ele>
        <time>2022-12-15T15:35:56.631Z</time>
      </trkpt>
      <trkpt lat="47.47187" lon="-1.78383">
        <ele>57.22883</ele>
        <time>2022-12-15T15:35:59.642Z</time>
      </trkpt>
      <trkpt lat="47.47191" lon="-1.78365">
        <ele>57.277365</ele>
        <time>2022-12-15T15:36:02.626Z</time>
      </trkpt>
      <trkpt lat="47.47195" lon="-1.78347">
        <ele>57.271344</ele>
        <time>2022-12-15T15:36:05.633Z</time>
      </trkpt>
      <trkpt lat="47.47197" lon="-1.78333">
        <ele>57.267071</ele>
        <time>2022-12-15T15:36:07.648Z</time>
      </trkpt>
      <trkpt lat="47.47201" lon="-1.78315">
        <ele>57.26116</ele>
        <time>2022-12-15T15:36:10.649Z</time>
      </trkpt>
      <trkpt lat="47.47204" lon="-1.78302">
        <ele>57.256948</ele>
        <time>2022-12-15T15:36:12.644Z</time>
      </trkpt>
      <trkpt lat="47.47208" lon="-1.78284">
        <ele>57.250928</ele>
        <time>2022-12-15T15:36:15.649Z</time>
      </trkpt>
      <trkpt lat="47.47211" lon="-1.78266">
        <ele>57.245069</ele>
        <time>2022-12-15T15:36:18.643Z</time>
      </trkpt>
      <trkpt lat="47.47215" lon="-1.78251">
        <ele>57.239909</ele>
        <time>2022-12-15T15:36:21.628Z</time>
      </trkpt>
      <trkpt lat="47.47218" lon="-1.78236">
        <ele>57.234985</ele>
        <time>2022-12-15T15:36:24.645Z</time>
      </trkpt>
      <trkpt lat="47.4722" lon="-1.78221">
        <ele>57.230231</ele>
        <time>2022-12-15T15:36:27.644Z</time>
      </trkpt>
      <trkpt lat="47.47221" lon="-1.78207">
        <ele>57.225829</ele>
        <time>2022-12-15T15:36:30.632Z</time>
      </trkpt>
      <trkpt lat="47.47224" lon="-1.7819">
        <ele>57.220322</ele>
        <time>2022-12-15T15:36:34.638Z</time>
      </trkpt>
      <trkpt lat="47.47226" lon="-1.78177">
        <ele>57.216106</ele>
        <time>2022-12-15T15:36:37.642Z</time>
      </trkpt>
      <trkpt lat="47.47228" lon="-1.78162">
        <ele>57.211433</ele>
        <time>2022-12-15T15:36:41.624Z</time>
      </trkpt>
      <trkpt lat="47.47231" lon="-1.78153">
        <ele>57.20836</ele>
        <time>2022-12-15T15:36:58.117Z</time>
      </trkpt>
      <trkpt lat="47.47237" lon="-1.78119">
        <ele>57.197174</ele>
        <time>2022-12-15T15:48:31.641Z</time>
      </trkpt>
      <trkpt lat="47.47241" lon="-1.78103">
        <ele>56.708986</ele>
        <time>2022-12-15T15:48:36.633Z</time>
      </trkpt>
      <trkpt lat="47.47244" lon="-1.78087">
        <ele>56.220358</ele>
        <time>2022-12-15T15:48:40.645Z</time>
      </trkpt>
      <trkpt lat="47.47247" lon="-1.78073">
        <ele>55.774444</ele>
        <time>2022-12-15T15:48:43.631Z</time>
      </trkpt>
      <trkpt lat="47.47251" lon="-1.78057">
        <ele>55.264449</ele>
        <time>2022-12-15T15:48:46.641Z</time>
      </trkpt>
      <trkpt lat="47.47254" lon="-1.7804">
        <ele>54.722084</ele>
        <time>2022-12-15T15:48:49.646Z</time>
      </trkpt>
      <trkpt lat="47.47258" lon="-1.78023">
        <ele>54.193943</ele>
        <time>2022-12-15T15:48:52.643Z</time>
      </trkpt>
      <trkpt lat="47.47262" lon="-1.78009">
        <ele>53.744991</ele>
        <time>2022-12-15T15:48:55.651Z</time>
      </trkpt>
      <trkpt lat="47.47266" lon="-1.77996">
        <ele>53.320448</ele>
        <time>2022-12-15T15:48:58.648Z</time>
      </trkpt>
      <trkpt lat="47.47271" lon="-1.77981">
        <ele>52.82129</ele>
        <time>2022-12-15T15:49:01.649Z</time>
      </trkpt>
      <trkpt lat="47.47275" lon="-1.77964">
        <ele>52.258011</ele>
        <time>2022-12-15T15:49:04.635Z</time>
      </trkpt>
      <trkpt lat="47.47279" lon="-1.77946">
        <ele>51.722122</ele>
        <time>2022-12-15T15:49:07.638Z</time>
      </trkpt>
      <trkpt lat="47.47282" lon="-1.7793">
        <ele>51.20883</ele>
        <time>2022-12-15T15:49:10.644Z</time>
      </trkpt>
      <trkpt lat="47.47285" lon="-1.77912">
        <ele>50.642065</ele>
        <time>2022-12-15T15:49:13.649Z</time>
      </trkpt>
      <trkpt lat="47.47288" lon="-1.77899">
        <ele>50.239845</ele>
        <time>2022-12-15T15:49:15.640Z</time>
      </trkpt>
      <trkpt lat="47.4729" lon="-1.77886">
        <ele>49.838179</ele>
        <time>2022-12-15T15:49:17.644Z</time>
      </trkpt>
      <trkpt lat="47.47293" lon="-1.77867">
        <ele>49.249437</ele>
        <time>2022-12-15T15:49:20.635Z</time>
      </trkpt>
      <trkpt lat="47.47296" lon="-1.77847">
        <ele>49.359177</ele>
        <time>2022-12-15T15:49:23.632Z</time>
      </trkpt>
      <trkpt lat="47.473" lon="-1.77829">
        <ele>49.496614</ele>
        <time>2022-12-15T15:49:26.633Z</time>
      </trkpt>
      <trkpt lat="47.47303" lon="-1.77812">
        <ele>49.622488</ele>
        <time>2022-12-15T15:49:29.634Z</time>
      </trkpt>
      <trkpt lat="47.47306" lon="-1.77799">
        <ele>49.720425</ele>
        <time>2022-12-15T15:49:31.631Z</time>
      </trkpt>
      <trkpt lat="47.47309" lon="-1.77785">
        <ele>49.820054</ele>
        <time>2022-12-15T15:49:33.629Z</time>
      </trkpt>
      <trkpt lat="47.47312" lon="-1.77772">
        <ele>49.919705</ele>
        <time>2022-12-15T15:49:35.644Z</time>
      </trkpt>
      <trkpt lat="47.47315" lon="-1.77758">
        <ele>50.025924</ele>
        <time>2022-12-15T15:49:37.642Z</time>
      </trkpt>
      <trkpt lat="47.47319" lon="-1.77745">
        <ele>50.127905</ele>
        <time>2022-12-15T15:49:39.636Z</time>
      </trkpt>
      <trkpt lat="47.47322" lon="-1.77727">
        <ele>50.26014</ele>
        <time>2022-12-15T15:49:42.634Z</time>
      </trkpt>
      <trkpt lat="47.47326" lon="-1.77709">
        <ele>50.401464</ele>
        <time>2022-12-15T15:49:45.640Z</time>
      </trkpt>
      <trkpt lat="47.47329" lon="-1.77696">
        <ele>50.498074</ele>
        <time>2022-12-15T15:49:47.635Z</time>
      </trkpt>
      <trkpt lat="47.47332" lon="-1.77683">
        <ele>50.595456</ele>
        <time>2022-12-15T15:49:49.638Z</time>
      </trkpt>
      <trkpt lat="47.47333" lon="-1.77668">
        <ele>50.699329</ele>
        <time>2022-12-15T15:49:51.631Z</time>
      </trkpt>
      <trkpt lat="47.47335" lon="-1.77651">
        <ele>50.826109</ele>
        <time>2022-12-15T15:49:54.655Z</time>
      </trkpt>
      <trkpt lat="47.47336" lon="-1.77633">
        <ele>50.955234</ele>
        <time>2022-12-15T15:49:57.651Z</time>
      </trkpt>
      <trkpt lat="47.47336" lon="-1.77612">
        <ele>51.10203</ele>
        <time>2022-12-15T15:50:00.637Z</time>
      </trkpt>
      <trkpt lat="47.47337" lon="-1.77599">
        <ele>51.14323</ele>
        <time>2022-12-15T15:50:02.633Z</time>
      </trkpt>
      <trkpt lat="47.47336" lon="-1.7758">
        <ele>51.176811</ele>
        <time>2022-12-15T15:50:05.649Z</time>
      </trkpt>
      <trkpt lat="47.47335" lon="-1.77561">
        <ele>51.210506</ele>
        <time>2022-12-15T15:50:08.630Z</time>
      </trkpt>
      <trkpt lat="47.47334" lon="-1.77547">
        <ele>51.234451</ele>
        <time>2022-12-15T15:50:10.643Z</time>
      </trkpt>
      <trkpt lat="47.47333" lon="-1.77534">
        <ele>51.258147</ele>
        <time>2022-12-15T15:50:12.635Z</time>
      </trkpt>
      <trkpt lat="47.47331" lon="-1.7752">
        <ele>51.282887</ele>
        <time>2022-12-15T15:50:14.639Z</time>
      </trkpt>
      <trkpt lat="47.4733" lon="-1.77507">
        <ele>51.306538</ele>
        <time>2022-12-15T15:50:16.642Z</time>
      </trkpt>
      <trkpt lat="47.47328" lon="-1.77494">
        <ele>51.330904</ele>
        <time>2022-12-15T15:50:18.634Z</time>
      </trkpt>
      <trkpt lat="47.47324" lon="-1.77474">
        <ele>51.367172</ele>
        <time>2022-12-15T15:50:21.639Z</time>
      </trkpt>
      <trkpt lat="47.47322" lon="-1.77461">
        <ele>51.390961</ele>
        <time>2022-12-15T15:50:23.634Z</time>
      </trkpt>
      <trkpt lat="47.47319" lon="-1.77441">
        <ele>51.42659</ele>
        <time>2022-12-15T15:50:26.641Z</time>
      </trkpt>
      <trkpt lat="47.47317" lon="-1.77428">
        <ele>51.450441</ele>
        <time>2022-12-15T15:50:28.641Z</time>
      </trkpt>
      <trkpt lat="47.47315" lon="-1.77414">
        <ele>51.475277</ele>
        <time>2022-12-15T15:50:30.658Z</time>
      </trkpt>
      <trkpt lat="47.47312" lon="-1.77401">
        <ele>51.50018</ele>
        <time>2022-12-15T15:50:32.650Z</time>
      </trkpt>
      <trkpt lat="47.4731" lon="-1.77386">
        <ele>51.526108</ele>
        <time>2022-12-15T15:50:34.652Z</time>
      </trkpt>
      <trkpt lat="47.47307" lon="-1.77373">
        <ele>51.550261</ele>
        <time>2022-12-15T15:50:36.650Z</time>
      </trkpt>
      <trkpt lat="47.47305" lon="-1.77359">
        <ele>51.576636</ele>
        <time>2022-12-15T15:50:38.660Z</time>
      </trkpt>
      <trkpt lat="47.47302" lon="-1.77345">
        <ele>51.618151</ele>
        <time>2022-12-15T15:50:40.650Z</time>
      </trkpt>
      <trkpt lat="47.47299" lon="-1.77332">
        <ele>51.705075</ele>
        <time>2022-12-15T15:50:42.637Z</time>
      </trkpt>
      <trkpt lat="47.47294" lon="-1.77314">
        <ele>51.822782</ele>
        <time>2022-12-15T15:50:45.656Z</time>
      </trkpt>
      <trkpt lat="47.4729" lon="-1.77294">
        <ele>51.950871</ele>
        <time>2022-12-15T15:50:48.642Z</time>
      </trkpt>
      <trkpt lat="47.47286" lon="-1.77278">
        <ele>52.05345</ele>
        <time>2022-12-15T15:50:50.639Z</time>
      </trkpt>
      <trkpt lat="47.47282" lon="-1.77262">
        <ele>52.159504</ele>
        <time>2022-12-15T15:50:53.646Z</time>
      </trkpt>
      <trkpt lat="47.47275" lon="-1.77244">
        <ele>52.282733</ele>
        <time>2022-12-15T15:50:56.646Z</time>
      </trkpt>
      <trkpt lat="47.47267" lon="-1.77228">
        <ele>52.406395</ele>
        <time>2022-12-15T15:50:59.651Z</time>
      </trkpt>
      <trkpt lat="47.47262" lon="-1.77216">
        <ele>52.489506</ele>
        <time>2022-12-15T15:51:01.645Z</time>
      </trkpt>
      <trkpt lat="47.47256" lon="-1.77203">
        <ele>52.584784</ele>
        <time>2022-12-15T15:51:04.633Z</time>
      </trkpt>
      <trkpt lat="47.47251" lon="-1.7719">
        <ele>52.68232</ele>
        <time>2022-12-15T15:51:07.647Z</time>
      </trkpt>
      <trkpt lat="47.47245" lon="-1.77176">
        <ele>52.779628</ele>
        <time>2022-12-15T15:51:10.651Z</time>
      </trkpt>
      <trkpt lat="47.47239" lon="-1.77164">
        <ele>52.871865</ele>
        <time>2022-12-15T15:51:13.637Z</time>
      </trkpt>
      <trkpt lat="47.47234" lon="-1.77153">
        <ele>52.956161</ele>
        <time>2022-12-15T15:51:16.636Z</time>
      </trkpt>
      <trkpt lat="47.47228" lon="-1.7714">
        <ele>53.05042</ele>
        <time>2022-12-15T15:51:19.634Z</time>
      </trkpt>
      <trkpt lat="47.47219" lon="-1.77123">
        <ele>53.184378</ele>
        <time>2022-12-15T15:51:22.635Z</time>
      </trkpt>
      <trkpt lat="47.47214" lon="-1.77112">
        <ele>53.295368</ele>
        <time>2022-12-15T15:51:24.644Z</time>
      </trkpt>
      <trkpt lat="47.47207" lon="-1.77096">
        <ele>53.487635</ele>
        <time>2022-12-15T15:51:27.644Z</time>
      </trkpt>
      <trkpt lat="47.472" lon="-1.77081">
        <ele>53.683358</ele>
        <time>2022-12-15T15:51:30.653Z</time>
      </trkpt>
      <trkpt lat="47.47194" lon="-1.77068">
        <ele>53.831226</ele>
        <time>2022-12-15T15:51:32.648Z</time>
      </trkpt>
      <trkpt lat="47.47187" lon="-1.77051">
        <ele>54.045591</ele>
        <time>2022-12-15T15:51:35.641Z</time>
      </trkpt>
      <trkpt lat="47.47181" lon="-1.77038">
        <ele>54.207003</ele>
        <time>2022-12-15T15:51:37.645Z</time>
      </trkpt>
      <trkpt lat="47.47175" lon="-1.77026">
        <ele>54.359109</ele>
        <time>2022-12-15T15:51:39.657Z</time>
      </trkpt>
      <trkpt lat="47.47169" lon="-1.7701">
        <ele>54.549634</ele>
        <time>2022-12-15T15:51:42.645Z</time>
      </trkpt>
      <trkpt lat="47.47162" lon="-1.76995">
        <ele>54.733269</ele>
        <time>2022-12-15T15:51:45.640Z</time>
      </trkpt>
      <trkpt lat="47.47156" lon="-1.76982">
        <ele>54.897258</ele>
        <time>2022-12-15T15:51:48.641Z</time>
      </trkpt>
      <trkpt lat="47.47148" lon="-1.76968">
        <ele>55.086233</ele>
        <time>2022-12-15T15:51:51.654Z</time>
      </trkpt>
      <trkpt lat="47.4714" lon="-1.76954">
        <ele>55.270878</ele>
        <time>2022-12-15T15:51:54.644Z</time>
      </trkpt>
      <trkpt lat="47.47134" lon="-1.76942">
        <ele>55.429736</ele>
        <time>2022-12-15T15:51:57.640Z</time>
      </trkpt>
      <trkpt lat="47.47124" lon="-1.76934">
        <ele>55.596679</ele>
        <time>2022-12-15T15:52:02.631Z</time>
      </trkpt>
      <trkpt lat="47.47116" lon="-1.76919">
        <ele>55.78962</ele>
        <time>2022-12-15T15:52:12.638Z</time>
      </trkpt>
      <trkpt lat="47.4711" lon="-1.76906">
        <ele>55.95896</ele>
        <time>2022-12-15T15:52:16.631Z</time>
      </trkpt>
      <trkpt lat="47.47108" lon="-1.76892">
        <ele>56.031946</ele>
        <time>2022-12-15T15:52:21.650Z</time>
      </trkpt>
      <trkpt lat="47.47104" lon="-1.76878">
        <ele>56.100235</ele>
        <time>2022-12-15T15:52:25.645Z</time>
      </trkpt>
      <trkpt lat="47.47099" lon="-1.76864">
        <ele>56.177436</ele>
        <time>2022-12-15T15:52:29.640Z</time>
      </trkpt>
      <trkpt lat="47.47093" lon="-1.76851">
        <ele>56.249044</ele>
        <time>2022-12-15T15:52:32.660Z</time>
      </trkpt>
      <trkpt lat="47.47088" lon="-1.76838">
        <ele>56.32265</ele>
        <time>2022-12-15T15:52:36.654Z</time>
      </trkpt>
      <trkpt lat="47.47083" lon="-1.76825">
        <ele>56.391739</ele>
        <time>2022-12-15T15:52:40.641Z</time>
      </trkpt>
      <trkpt lat="47.47078" lon="-1.76811">
        <ele>56.46889</ele>
        <time>2022-12-15T15:52:44.633Z</time>
      </trkpt>
      <trkpt lat="47.47073" lon="-1.76797">
        <ele>56.544004</ele>
        <time>2022-12-15T15:52:48.653Z</time>
      </trkpt>
      <trkpt lat="47.47067" lon="-1.76782">
        <ele>56.62427</ele>
        <time>2022-12-15T15:52:52.636Z</time>
      </trkpt>
      <trkpt lat="47.47063" lon="-1.7677">
        <ele>56.688514</ele>
        <time>2022-12-15T15:52:55.650Z</time>
      </trkpt>
      <trkpt lat="47.47057" lon="-1.76755">
        <ele>56.770199</ele>
        <time>2022-12-15T15:52:59.639Z</time>
      </trkpt>
      <trkpt lat="47.47052" lon="-1.76743">
        <ele>56.835608</ele>
        <time>2022-12-15T15:53:03.646Z</time>
      </trkpt>
      <trkpt lat="47.47047" lon="-1.76732">
        <ele>56.899396</ele>
        <time>2022-12-15T15:53:17.667Z</time>
      </trkpt>
      <trkpt lat="47.47042" lon="-1.76717">
        <ele>56.979437</ele>
        <time>2022-12-15T15:53:28.632Z</time>
      </trkpt>
      <trkpt lat="47.47036" lon="-1.76705">
        <ele>57.048322</ele>
        <time>2022-12-15T15:53:31.648Z</time>
      </trkpt>
      <trkpt lat="47.47028" lon="-1.76691">
        <ele>57.135731</ele>
        <time>2022-12-15T15:53:34.637Z</time>
      </trkpt>
      <trkpt lat="47.47024" lon="-1.76678">
        <ele>57.203631</ele>
        <time>2022-12-15T15:53:36.637Z</time>
      </trkpt>
      <trkpt lat="47.47016" lon="-1.76662">
        <ele>57.043275</ele>
        <time>2022-12-15T15:53:39.639Z</time>
      </trkpt>
      <trkpt lat="47.47012" lon="-1.76644">
        <ele>56.819506</ele>
        <time>2022-12-15T15:53:42.646Z</time>
      </trkpt>
      <trkpt lat="47.47012" lon="-1.76625">
        <ele>56.599483</ele>
        <time>2022-12-15T15:53:45.634Z</time>
      </trkpt>
      <trkpt lat="47.47009" lon="-1.76611">
        <ele>56.434661</ele>
        <time>2022-12-15T15:53:47.652Z</time>
      </trkpt>
      <trkpt lat="47.47005" lon="-1.76598">
        <ele>56.263116</ele>
        <time>2022-12-15T15:53:49.635Z</time>
      </trkpt>
      <trkpt lat="47.46999" lon="-1.76587">
        <ele>56.102247</ele>
        <time>2022-12-15T15:53:51.639Z</time>
      </trkpt>
      <trkpt lat="47.46993" lon="-1.76576">
        <ele>55.937331</ele>
        <time>2022-12-15T15:53:53.631Z</time>
      </trkpt>
      <trkpt lat="47.46987" lon="-1.76561">
        <ele>55.733384</ele>
        <time>2022-12-15T15:53:56.635Z</time>
      </trkpt>
      <trkpt lat="47.46981" lon="-1.76548">
        <ele>55.55695</ele>
        <time>2022-12-15T15:53:59.639Z</time>
      </trkpt>
      <trkpt lat="47.46976" lon="-1.76535">
        <ele>55.374736</ele>
        <time>2022-12-15T15:54:02.637Z</time>
      </trkpt>
      <trkpt lat="47.46969" lon="-1.76521">
        <ele>55.180962</ele>
        <time>2022-12-15T15:54:05.633Z</time>
      </trkpt>
      <trkpt lat="47.46963" lon="-1.76506">
        <ele>54.978486</ele>
        <time>2022-12-15T15:54:08.637Z</time>
      </trkpt>
      <trkpt lat="47.46956" lon="-1.76491">
        <ele>54.762536</ele>
        <time>2022-12-15T15:54:11.645Z</time>
      </trkpt>
      <trkpt lat="47.46948" lon="-1.76477">
        <ele>54.549807</ele>
        <time>2022-12-15T15:54:14.640Z</time>
      </trkpt>
      <trkpt lat="47.46941" lon="-1.76462">
        <ele>54.34315</ele>
        <time>2022-12-15T15:54:17.645Z</time>
      </trkpt>
      <trkpt lat="47.46934" lon="-1.76447">
        <ele>54.132006</ele>
        <time>2022-12-15T15:54:20.636Z</time>
      </trkpt>
      <trkpt lat="47.46928" lon="-1.76431">
        <ele>53.869608</ele>
        <time>2022-12-15T15:54:23.652Z</time>
      </trkpt>
      <trkpt lat="47.46922" lon="-1.76417">
        <ele>53.617533</ele>
        <time>2022-12-15T15:54:26.633Z</time>
      </trkpt>
      <trkpt lat="47.46916" lon="-1.76402">
        <ele>53.377159</ele>
        <time>2022-12-15T15:54:29.635Z</time>
      </trkpt>
      <trkpt lat="47.46909" lon="-1.76389">
        <ele>53.141465</ele>
        <time>2022-12-15T15:54:33.633Z</time>
      </trkpt>
      <trkpt lat="47.46902" lon="-1.76378">
        <ele>52.907109</ele>
        <time>2022-12-15T15:54:37.635Z</time>
      </trkpt>
      <trkpt lat="47.46895" lon="-1.76364">
        <ele>52.668922</ele>
        <time>2022-12-15T15:54:41.640Z</time>
      </trkpt>
      <trkpt lat="47.46885" lon="-1.76359">
        <ele>52.448212</ele>
        <time>2022-12-15T15:54:45.646Z</time>
      </trkpt>
      <trkpt lat="47.46874" lon="-1.76354">
        <ele>52.207016</ele>
        <time>2022-12-15T15:54:49.649Z</time>
      </trkpt>
      <trkpt lat="47.46868" lon="-1.76341">
        <ele>51.981072</ele>
        <time>2022-12-15T15:54:53.638Z</time>
      </trkpt>
      <trkpt lat="47.46861" lon="-1.76326">
        <ele>51.707497</ele>
        <time>2022-12-15T15:54:57.643Z</time>
      </trkpt>
      <trkpt lat="47.46854" lon="-1.7631">
        <ele>51.444489</ele>
        <time>2022-12-15T15:55:00.650Z</time>
      </trkpt>
      <trkpt lat="47.46847" lon="-1.76296">
        <ele>51.18279</ele>
        <time>2022-12-15T15:55:03.639Z</time>
      </trkpt>
      <trkpt lat="47.46839" lon="-1.76281">
        <ele>50.918845</ele>
        <time>2022-12-15T15:55:06.647Z</time>
      </trkpt>
      <trkpt lat="47.46831" lon="-1.76266">
        <ele>50.642865</ele>
        <time>2022-12-15T15:55:09.662Z</time>
      </trkpt>
      <trkpt lat="47.46823" lon="-1.76251">
        <ele>50.366387</ele>
        <time>2022-12-15T15:55:12.644Z</time>
      </trkpt>
      <trkpt lat="47.46816" lon="-1.76234">
        <ele>50.38221</ele>
        <time>2022-12-15T15:55:15.644Z</time>
      </trkpt>
      <trkpt lat="47.4681" lon="-1.76222">
        <ele>50.44837</ele>
        <time>2022-12-15T15:55:17.635Z</time>
      </trkpt>
      <trkpt lat="47.46805" lon="-1.7621">
        <ele>50.51647</ele>
        <time>2022-12-15T15:55:19.650Z</time>
      </trkpt>
      <trkpt lat="47.468" lon="-1.76198">
        <ele>50.584952</ele>
        <time>2022-12-15T15:55:21.641Z</time>
      </trkpt>
      <trkpt lat="47.46794" lon="-1.76186">
        <ele>50.653053</ele>
        <time>2022-12-15T15:55:23.641Z</time>
      </trkpt>
      <trkpt lat="47.46789" lon="-1.76174">
        <ele>50.716893</ele>
        <time>2022-12-15T15:55:25.651Z</time>
      </trkpt>
      <trkpt lat="47.46784" lon="-1.76163">
        <ele>50.779982</ele>
        <time>2022-12-15T15:55:27.639Z</time>
      </trkpt>
      <trkpt lat="47.46778" lon="-1.76149">
        <ele>50.859691</ele>
        <time>2022-12-15T15:55:30.642Z</time>
      </trkpt>
      <trkpt lat="47.46771" lon="-1.76135">
        <ele>50.93591</ele>
        <time>2022-12-15T15:55:33.661Z</time>
      </trkpt>
      <trkpt lat="47.46766" lon="-1.76124">
        <ele>51.001682</ele>
        <time>2022-12-15T15:55:37.112Z</time>
      </trkpt>
      <trkpt lat="47.46761" lon="-1.76111">
        <ele>51.070553</ele>
        <time>2022-12-15T15:55:40.641Z</time>
      </trkpt>
      <trkpt lat="47.46755" lon="-1.761">
        <ele>51.135179</ele>
        <time>2022-12-15T15:55:45.634Z</time>
      </trkpt>
      <trkpt lat="47.4675" lon="-1.76088">
        <ele>51.202893</ele>
        <time>2022-12-15T15:55:49.772Z</time>
      </trkpt>
      <trkpt lat="47.46742" lon="-1.76068">
        <ele>51.309915</ele>
        <time>2022-12-15T15:55:54.630Z</time>
      </trkpt>
      <trkpt lat="47.46736" lon="-1.76053">
        <ele>51.392987</ele>
        <time>2022-12-15T15:55:57.653Z</time>
      </trkpt>
      <trkpt lat="47.4673" lon="-1.76037">
        <ele>51.478844</ele>
        <time>2022-12-15T15:56:00.676Z</time>
      </trkpt>
      <trkpt lat="47.46725" lon="-1.76025">
        <ele>51.545018</ele>
        <time>2022-12-15T15:56:02.647Z</time>
      </trkpt>
      <trkpt lat="47.46719" lon="-1.76013">
        <ele>51.419525</ele>
        <time>2022-12-15T15:56:04.655Z</time>
      </trkpt>
      <trkpt lat="47.46714" lon="-1.76002">
        <ele>51.275606</ele>
        <time>2022-12-15T15:56:06.630Z</time>
      </trkpt>
      <trkpt lat="47.46706" lon="-1.75983">
        <ele>51.057802</ele>
        <time>2022-12-15T15:56:09.634Z</time>
      </trkpt>
      <trkpt lat="47.46699" lon="-1.75972">
        <ele>50.897634</ele>
        <time>2022-12-15T15:56:11.653Z</time>
      </trkpt>
      <trkpt lat="47.46691" lon="-1.75954">
        <ele>50.678366</ele>
        <time>2022-12-15T15:56:14.651Z</time>
      </trkpt>
      <trkpt lat="47.46686" lon="-1.75941">
        <ele>50.52428</ele>
        <time>2022-12-15T15:56:16.633Z</time>
      </trkpt>
      <trkpt lat="47.46681" lon="-1.7593">
        <ele>50.383448</ele>
        <time>2022-12-15T15:56:18.632Z</time>
      </trkpt>
      <trkpt lat="47.46675" lon="-1.75918">
        <ele>50.239451</ele>
        <time>2022-12-15T15:56:20.633Z</time>
      </trkpt>
      <trkpt lat="47.4667" lon="-1.75907">
        <ele>50.098045</ele>
        <time>2022-12-15T15:56:22.659Z</time>
      </trkpt>
      <trkpt lat="47.46663" lon="-1.75897">
        <ele>49.953027</ele>
        <time>2022-12-15T15:56:24.644Z</time>
      </trkpt>
      <trkpt lat="47.46655" lon="-1.75881">
        <ele>49.752127</ele>
        <time>2022-12-15T15:56:27.651Z</time>
      </trkpt>
      <trkpt lat="47.46647" lon="-1.75865">
        <ele>49.540842</ele>
        <time>2022-12-15T15:56:30.656Z</time>
      </trkpt>
      <trkpt lat="47.4664" lon="-1.75852">
        <ele>49.37479</ele>
        <time>2022-12-15T15:56:32.650Z</time>
      </trkpt>
      <trkpt lat="47.46632" lon="-1.75839">
        <ele>49.203665</ele>
        <time>2022-12-15T15:56:34.634Z</time>
      </trkpt>
      <trkpt lat="47.46626" lon="-1.75829">
        <ele>49.057673</ele>
        <time>2022-12-15T15:56:36.632Z</time>
      </trkpt>
      <trkpt lat="47.46618" lon="-1.75821">
        <ele>48.916028</ele>
        <time>2022-12-15T15:56:38.649Z</time>
      </trkpt>
      <trkpt lat="47.46611" lon="-1.75808">
        <ele>48.748713</ele>
        <time>2022-12-15T15:56:41.642Z</time>
      </trkpt>
      <trkpt lat="47.46602" lon="-1.75796">
        <ele>48.591234</ele>
        <time>2022-12-15T15:56:44.629Z</time>
      </trkpt>
      <trkpt lat="47.46593" lon="-1.75785">
        <ele>48.427721</ele>
        <time>2022-12-15T15:56:47.636Z</time>
      </trkpt>
      <trkpt lat="47.46586" lon="-1.75776">
        <ele>48.30136</ele>
        <time>2022-12-15T15:56:49.632Z</time>
      </trkpt>
      <trkpt lat="47.46577" lon="-1.75763">
        <ele>48.122476</ele>
        <time>2022-12-15T15:56:51.649Z</time>
      </trkpt>
      <trkpt lat="47.46567" lon="-1.75751">
        <ele>47.949947</ele>
        <time>2022-12-15T15:56:54.635Z</time>
      </trkpt>
      <trkpt lat="47.46559" lon="-1.75743">
        <ele>47.81647</ele>
        <time>2022-12-15T15:56:56.634Z</time>
      </trkpt>
      <trkpt lat="47.46552" lon="-1.75733">
        <ele>47.677528</ele>
        <time>2022-12-15T15:56:58.637Z</time>
      </trkpt>
      <trkpt lat="47.46545" lon="-1.75724">
        <ele>47.55243</ele>
        <time>2022-12-15T15:57:00.630Z</time>
      </trkpt>
      <trkpt lat="47.46535" lon="-1.75712">
        <ele>47.371297</ele>
        <time>2022-12-15T15:57:03.648Z</time>
      </trkpt>
      <trkpt lat="47.46527" lon="-1.75705">
        <ele>47.244224</ele>
        <time>2022-12-15T15:57:05.639Z</time>
      </trkpt>
      <trkpt lat="47.46518" lon="-1.75697">
        <ele>47.098296</ele>
        <time>2022-12-15T15:57:07.633Z</time>
      </trkpt>
      <trkpt lat="47.4651" lon="-1.75688">
        <ele>46.960956</ele>
        <time>2022-12-15T15:57:09.642Z</time>
      </trkpt>
      <trkpt lat="47.46503" lon="-1.75677">
        <ele>46.818163</ele>
        <time>2022-12-15T15:57:11.649Z</time>
      </trkpt>
      <trkpt lat="47.46497" lon="-1.75667">
        <ele>46.692327</ele>
        <time>2022-12-15T15:57:13.657Z</time>
      </trkpt>
      <trkpt lat="47.4649" lon="-1.75659">
        <ele>46.562849</ele>
        <time>2022-12-15T15:57:15.640Z</time>
      </trkpt>
      <trkpt lat="47.46481" lon="-1.75645">
        <ele>46.389614</ele>
        <time>2022-12-15T15:57:18.632Z</time>
      </trkpt>
      <trkpt lat="47.46474" lon="-1.75636">
        <ele>46.407535</ele>
        <time>2022-12-15T15:57:20.632Z</time>
      </trkpt>
      <trkpt lat="47.46467" lon="-1.75627">
        <ele>46.505434</ele>
        <time>2022-12-15T15:57:22.640Z</time>
      </trkpt>
      <trkpt lat="47.46458" lon="-1.75616">
        <ele>46.631065</ele>
        <time>2022-12-15T15:57:25.647Z</time>
      </trkpt>
      <trkpt lat="47.46447" lon="-1.75604">
        <ele>46.765369</ele>
        <time>2022-12-15T15:57:28.646Z</time>
      </trkpt>
      <trkpt lat="47.46439" lon="-1.75596">
        <ele>46.864668</ele>
        <time>2022-12-15T15:57:30.636Z</time>
      </trkpt>
      <trkpt lat="47.46432" lon="-1.75588">
        <ele>46.965988</ele>
        <time>2022-12-15T15:57:32.648Z</time>
      </trkpt>
      <trkpt lat="47.46424" lon="-1.75579">
        <ele>47.065715</ele>
        <time>2022-12-15T15:57:34.637Z</time>
      </trkpt>
      <trkpt lat="47.46417" lon="-1.7557">
        <ele>47.159752</ele>
        <time>2022-12-15T15:57:36.631Z</time>
      </trkpt>
      <trkpt lat="47.46409" lon="-1.75558">
        <ele>47.282374</ele>
        <time>2022-12-15T15:57:39.647Z</time>
      </trkpt>
      <trkpt lat="47.464" lon="-1.75546">
        <ele>47.402323</ele>
        <time>2022-12-15T15:57:42.650Z</time>
      </trkpt>
      <trkpt lat="47.46391" lon="-1.75534">
        <ele>47.530369</ele>
        <time>2022-12-15T15:57:45.636Z</time>
      </trkpt>
      <trkpt lat="47.46383" lon="-1.75526">
        <ele>47.628883</ele>
        <time>2022-12-15T15:57:47.639Z</time>
      </trkpt>
      <trkpt lat="47.46372" lon="-1.75514">
        <ele>47.768978</ele>
        <time>2022-12-15T15:57:50.643Z</time>
      </trkpt>
      <trkpt lat="47.46364" lon="-1.75506">
        <ele>47.870328</ele>
        <time>2022-12-15T15:57:52.635Z</time>
      </trkpt>
      <trkpt lat="47.46357" lon="-1.75497">
        <ele>47.973432</ele>
        <time>2022-12-15T15:57:54.648Z</time>
      </trkpt>
      <trkpt lat="47.46345" lon="-1.75483">
        <ele>48.12756</ele>
        <time>2022-12-15T15:57:56.654Z</time>
      </trkpt>
      <trkpt lat="47.46336" lon="-1.75471">
        <ele>48.309204</ele>
        <time>2022-12-15T15:57:58.638Z</time>
      </trkpt>
      <trkpt lat="47.46327" lon="-1.7546">
        <ele>48.644961</ele>
        <time>2022-12-15T15:58:00.648Z</time>
      </trkpt>
      <trkpt lat="47.46317" lon="-1.75448">
        <ele>48.983375</ele>
        <time>2022-12-15T15:58:02.645Z</time>
      </trkpt>
      <trkpt lat="47.46309" lon="-1.75437">
        <ele>49.298133</ele>
        <time>2022-12-15T15:58:04.642Z</time>
      </trkpt>
      <trkpt lat="47.46301" lon="-1.75425">
        <ele>49.610152</ele>
        <time>2022-12-15T15:58:06.645Z</time>
      </trkpt>
      <trkpt lat="47.46291" lon="-1.75415">
        <ele>49.941951</ele>
        <time>2022-12-15T15:58:08.635Z</time>
      </trkpt>
      <trkpt lat="47.46284" lon="-1.75405">
        <ele>50.210952</ele>
        <time>2022-12-15T15:58:10.646Z</time>
      </trkpt>
      <trkpt lat="47.46276" lon="-1.75394">
        <ele>50.506325</ele>
        <time>2022-12-15T15:58:12.644Z</time>
      </trkpt>
      <trkpt lat="47.46268" lon="-1.75383">
        <ele>50.809992</ele>
        <time>2022-12-15T15:58:14.648Z</time>
      </trkpt>
      <trkpt lat="47.46261" lon="-1.75373">
        <ele>51.073697</ele>
        <time>2022-12-15T15:58:16.650Z</time>
      </trkpt>
      <trkpt lat="47.46253" lon="-1.75363">
        <ele>51.37615</ele>
        <time>2022-12-15T15:58:18.641Z</time>
      </trkpt>
      <trkpt lat="47.46245" lon="-1.75351">
        <ele>51.680514</ele>
        <time>2022-12-15T15:58:20.649Z</time>
      </trkpt>
      <trkpt lat="47.46238" lon="-1.75339">
        <ele>51.974353</ele>
        <time>2022-12-15T15:58:22.640Z</time>
      </trkpt>
      <trkpt lat="47.46232" lon="-1.75326">
        <ele>52.259622</ele>
        <time>2022-12-15T15:58:24.634Z</time>
      </trkpt>
      <trkpt lat="47.46227" lon="-1.75314">
        <ele>52.529247</ele>
        <time>2022-12-15T15:58:26.639Z</time>
      </trkpt>
      <trkpt lat="47.46222" lon="-1.753">
        <ele>52.81323</ele>
        <time>2022-12-15T15:58:28.637Z</time>
      </trkpt>
      <trkpt lat="47.46218" lon="-1.75286">
        <ele>53.100966</ele>
        <time>2022-12-15T15:58:30.634Z</time>
      </trkpt>
      <trkpt lat="47.46214" lon="-1.75274">
        <ele>53.24239</ele>
        <time>2022-12-15T15:58:32.641Z</time>
      </trkpt>
      <trkpt lat="47.46209" lon="-1.75258">
        <ele>53.38805</ele>
        <time>2022-12-15T15:58:35.633Z</time>
      </trkpt>
      <trkpt lat="47.46205" lon="-1.75242">
        <ele>53.519448</ele>
        <time>2022-12-15T15:58:38.648Z</time>
      </trkpt>
      <trkpt lat="47.46202" lon="-1.75228">
        <ele>53.636544</ele>
        <time>2022-12-15T15:58:41.640Z</time>
      </trkpt>
      <trkpt lat="47.46191" lon="-1.75225">
        <ele>53.760966</ele>
        <time>2022-12-15T15:58:45.635Z</time>
      </trkpt>
      <trkpt lat="47.4618" lon="-1.7523">
        <ele>53.895974</ele>
        <time>2022-12-15T15:58:48.644Z</time>
      </trkpt>
      <trkpt lat="47.46172" lon="-1.75218">
        <ele>54.029127</ele>
        <time>2022-12-15T15:58:51.636Z</time>
      </trkpt>
      <trkpt lat="47.46166" lon="-1.75201">
        <ele>54.182642</ele>
        <time>2022-12-15T15:58:54.635Z</time>
      </trkpt>
      <trkpt lat="47.46161" lon="-1.75189">
        <ele>54.297577</ele>
        <time>2022-12-15T15:58:56.635Z</time>
      </trkpt>
      <trkpt lat="47.46157" lon="-1.75177">
        <ele>54.404237</ele>
        <time>2022-12-15T15:58:58.653Z</time>
      </trkpt>
      <trkpt lat="47.46152" lon="-1.75164">
        <ele>54.520729</ele>
        <time>2022-12-15T15:59:00.650Z</time>
      </trkpt>
      <trkpt lat="47.46146" lon="-1.75151">
        <ele>54.642351</ele>
        <time>2022-12-15T15:59:02.651Z</time>
      </trkpt>
      <trkpt lat="47.46141" lon="-1.75138">
        <ele>54.760635</ele>
        <time>2022-12-15T15:59:04.646Z</time>
      </trkpt>
      <trkpt lat="47.46136" lon="-1.75125">
        <ele>54.886628</ele>
        <time>2022-12-15T15:59:06.656Z</time>
      </trkpt>
      <trkpt lat="47.4613" lon="-1.75111">
        <ele>55.012079</ele>
        <time>2022-12-15T15:59:08.650Z</time>
      </trkpt>
      <trkpt lat="47.46125" lon="-1.75098">
        <ele>55.138143</ele>
        <time>2022-12-15T15:59:10.651Z</time>
      </trkpt>
      <trkpt lat="47.46119" lon="-1.75087">
        <ele>55.247924</ele>
        <time>2022-12-15T15:59:12.640Z</time>
      </trkpt>
      <trkpt lat="47.46115" lon="-1.75075">
        <ele>55.191558</ele>
        <time>2022-12-15T15:59:14.645Z</time>
      </trkpt>
      <trkpt lat="47.46111" lon="-1.75059">
        <ele>55.053525</ele>
        <time>2022-12-15T15:59:17.641Z</time>
      </trkpt>
      <trkpt lat="47.46107" lon="-1.75047">
        <ele>54.935839</ele>
        <time>2022-12-15T15:59:20.632Z</time>
      </trkpt>
      <trkpt lat="47.46102" lon="-1.75033">
        <ele>54.804707</ele>
        <time>2022-12-15T15:59:23.635Z</time>
      </trkpt>
      <trkpt lat="47.46097" lon="-1.75019">
        <ele>54.667</ele>
        <time>2022-12-15T15:59:26.656Z</time>
      </trkpt>
      <trkpt lat="47.46091" lon="-1.75003">
        <ele>54.512017</ele>
        <time>2022-12-15T15:59:29.643Z</time>
      </trkpt>
      <trkpt lat="47.46084" lon="-1.74987">
        <ele>54.352975</ele>
        <time>2022-12-15T15:59:32.651Z</time>
      </trkpt>
      <trkpt lat="47.4608" lon="-1.74975">
        <ele>54.234768</ele>
        <time>2022-12-15T15:59:34.636Z</time>
      </trkpt>
      <trkpt lat="47.46073" lon="-1.74957">
        <ele>54.068161</ele>
        <time>2022-12-15T15:59:37.644Z</time>
      </trkpt>
      <trkpt lat="47.46069" lon="-1.74945">
        <ele>53.950439</ele>
        <time>2022-12-15T15:59:39.638Z</time>
      </trkpt>
      <trkpt lat="47.46065" lon="-1.74931">
        <ele>53.821472</ele>
        <time>2022-12-15T15:59:41.645Z</time>
      </trkpt>
      <trkpt lat="47.4606" lon="-1.74919">
        <ele>53.701904</ele>
        <time>2022-12-15T15:59:43.638Z</time>
      </trkpt>
      <trkpt lat="47.46053" lon="-1.74902">
        <ele>53.535113</ele>
        <time>2022-12-15T15:59:46.636Z</time>
      </trkpt>
      <trkpt lat="47.46049" lon="-1.74888">
        <ele>53.409482</ele>
        <time>2022-12-15T15:59:48.636Z</time>
      </trkpt>
      <trkpt lat="47.46045" lon="-1.74875">
        <ele>53.285138</ele>
        <time>2022-12-15T15:59:50.642Z</time>
      </trkpt>
      <trkpt lat="47.4604" lon="-1.74857">
        <ele>53.122339</ele>
        <time>2022-12-15T15:59:53.654Z</time>
      </trkpt>
      <trkpt lat="47.46035" lon="-1.74843">
        <ele>52.972342</ele>
        <time>2022-12-15T15:59:56.643Z</time>
      </trkpt>
      <trkpt lat="47.46028" lon="-1.74826">
        <ele>52.774492</ele>
        <time>2022-12-15T15:59:59.649Z</time>
      </trkpt>
      <trkpt lat="47.46021" lon="-1.74809">
        <ele>52.574924</ele>
        <time>2022-12-15T16:00:02.637Z</time>
      </trkpt>
      <trkpt lat="47.46016" lon="-1.74796">
        <ele>52.430987</ele>
        <time>2022-12-15T16:00:04.636Z</time>
      </trkpt>
      <trkpt lat="47.46011" lon="-1.74784">
        <ele>52.288181</ele>
        <time>2022-12-15T16:00:06.653Z</time>
      </trkpt>
      <trkpt lat="47.46007" lon="-1.74771">
        <ele>52.140443</ele>
        <time>2022-12-15T16:00:08.637Z</time>
      </trkpt>
      <trkpt lat="47.46002" lon="-1.74758">
        <ele>51.996506</ele>
        <time>2022-12-15T16:00:10.650Z</time>
      </trkpt>
      <trkpt lat="47.45997" lon="-1.74746">
        <ele>51.853312</ele>
        <time>2022-12-15T16:00:12.646Z</time>
      </trkpt>
      <trkpt lat="47.45992" lon="-1.74729">
        <ele>51.663262</ele>
        <time>2022-12-15T16:00:15.648Z</time>
      </trkpt>
      <trkpt lat="47.45985" lon="-1.74716">
        <ele>51.497632</ele>
        <time>2022-12-15T16:00:17.647Z</time>
      </trkpt>
      <trkpt lat="47.45981" lon="-1.74704">
        <ele>51.362888</ele>
        <time>2022-12-15T16:00:19.646Z</time>
      </trkpt>
      <trkpt lat="47.45976" lon="-1.74692">
        <ele>51.228145</ele>
        <time>2022-12-15T16:00:21.646Z</time>
      </trkpt>
      <trkpt lat="47.45972" lon="-1.7468">
        <ele>51.092766</ele>
        <time>2022-12-15T16:00:23.641Z</time>
      </trkpt>
      <trkpt lat="47.45968" lon="-1.74667">
        <ele>50.950235</ele>
        <time>2022-12-15T16:00:25.638Z</time>
      </trkpt>
      <trkpt lat="47.45962" lon="-1.7465">
        <ele>50.749348</ele>
        <time>2022-12-15T16:00:28.639Z</time>
      </trkpt>
      <trkpt lat="47.45956" lon="-1.74631">
        <ele>50.541948</ele>
        <time>2022-12-15T16:00:31.638Z</time>
      </trkpt>
      <trkpt lat="47.45952" lon="-1.74618">
        <ele>50.403072</ele>
        <time>2022-12-15T16:00:33.645Z</time>
      </trkpt>
      <trkpt lat="47.45945" lon="-1.74601">
        <ele>50.446841</ele>
        <time>2022-12-15T16:00:36.641Z</time>
      </trkpt>
      <trkpt lat="47.4594" lon="-1.74588">
        <ele>50.537017</ele>
        <time>2022-12-15T16:00:38.647Z</time>
      </trkpt>
      <trkpt lat="47.45937" lon="-1.74575">
        <ele>50.61762</ele>
        <time>2022-12-15T16:00:40.648Z</time>
      </trkpt>
      <trkpt lat="47.45931" lon="-1.74557">
        <ele>50.735906</ele>
        <time>2022-12-15T16:00:43.640Z</time>
      </trkpt>
      <trkpt lat="47.45927" lon="-1.74544">
        <ele>50.823249</ele>
        <time>2022-12-15T16:00:45.633Z</time>
      </trkpt>
      <trkpt lat="47.45922" lon="-1.7453">
        <ele>50.914487</ele>
        <time>2022-12-15T16:00:47.632Z</time>
      </trkpt>
      <trkpt lat="47.45918" lon="-1.74512">
        <ele>51.023919</ele>
        <time>2022-12-15T16:00:50.646Z</time>
      </trkpt>
      <trkpt lat="47.45913" lon="-1.74497">
        <ele>51.129842</ele>
        <time>2022-12-15T16:00:53.633Z</time>
      </trkpt>
      <trkpt lat="47.45907" lon="-1.7448">
        <ele>51.243109</ele>
        <time>2022-12-15T16:00:56.649Z</time>
      </trkpt>
      <trkpt lat="47.459" lon="-1.74464">
        <ele>51.356408</ele>
        <time>2022-12-15T16:00:59.637Z</time>
      </trkpt>
      <trkpt lat="47.45895" lon="-1.74453">
        <ele>51.435375</ele>
        <time>2022-12-15T16:01:01.634Z</time>
      </trkpt>
      <trkpt lat="47.45888" lon="-1.74441">
        <ele>51.522547</ele>
        <time>2022-12-15T16:01:03.640Z</time>
      </trkpt>
      <trkpt lat="47.45883" lon="-1.74426">
        <ele>51.624731</ele>
        <time>2022-12-15T16:01:06.641Z</time>
      </trkpt>
      <trkpt lat="47.45877" lon="-1.74409">
        <ele>51.738527</ele>
        <time>2022-12-15T16:01:09.637Z</time>
      </trkpt>
      <trkpt lat="47.45871" lon="-1.74392">
        <ele>51.852268</ele>
        <time>2022-12-15T16:01:12.639Z</time>
      </trkpt>
      <trkpt lat="47.45865" lon="-1.74373">
        <ele>51.989013</ele>
        <time>2022-12-15T16:01:15.633Z</time>
      </trkpt>
      <trkpt lat="47.4586" lon="-1.74355">
        <ele>52.151831</ele>
        <time>2022-12-15T16:01:18.632Z</time>
      </trkpt>
      <trkpt lat="47.45855" lon="-1.74337">
        <ele>52.314825</ele>
        <time>2022-12-15T16:01:21.632Z</time>
      </trkpt>
      <trkpt lat="47.45853" lon="-1.74323">
        <ele>52.437241</ele>
        <time>2022-12-15T16:01:23.643Z</time>
      </trkpt>
      <trkpt lat="47.4585" lon="-1.74309">
        <ele>52.554849</ele>
        <time>2022-12-15T16:01:25.657Z</time>
      </trkpt>
      <trkpt lat="47.45848" lon="-1.7429">
        <ele>52.712776</ele>
        <time>2022-12-15T16:01:28.631Z</time>
      </trkpt>
      <trkpt lat="47.45847" lon="-1.74271">
        <ele>52.871877</ele>
        <time>2022-12-15T16:01:31.632Z</time>
      </trkpt>
      <trkpt lat="47.45846" lon="-1.74253">
        <ele>53.017</ele>
        <time>2022-12-15T16:01:34.632Z</time>
      </trkpt>
      <trkpt lat="47.45846" lon="-1.74236">
        <ele>53.160466</ele>
        <time>2022-12-15T16:01:37.639Z</time>
      </trkpt>
      <trkpt lat="47.45846" lon="-1.74218">
        <ele>53.309776</ele>
        <time>2022-12-15T16:01:40.633Z</time>
      </trkpt>
      <trkpt lat="47.45846" lon="-1.74199">
        <ele>53.465634</ele>
        <time>2022-12-15T16:01:43.645Z</time>
      </trkpt>
      <trkpt lat="47.45846" lon="-1.74183">
        <ele>53.60405</ele>
        <time>2022-12-15T16:01:46.641Z</time>
      </trkpt>
      <trkpt lat="47.45845" lon="-1.74168">
        <ele>53.727451</ele>
        <time>2022-12-15T16:01:49.636Z</time>
      </trkpt>
      <trkpt lat="47.45846" lon="-1.74154">
        <ele>53.844264</ele>
        <time>2022-12-15T16:01:52.651Z</time>
      </trkpt>
      <trkpt lat="47.45846" lon="-1.7414">
        <ele>53.959493</ele>
        <time>2022-12-15T16:01:55.648Z</time>
      </trkpt>
      <trkpt lat="47.45843" lon="-1.74123">
        <ele>54.106435</ele>
        <time>2022-12-15T16:01:58.637Z</time>
      </trkpt>
      <trkpt lat="47.45843" lon="-1.74106">
        <ele>54.03783</ele>
        <time>2022-12-15T16:02:01.636Z</time>
      </trkpt>
      <trkpt lat="47.45843" lon="-1.74086">
        <ele>53.89488</ele>
        <time>2022-12-15T16:02:04.632Z</time>
      </trkpt>
      <trkpt lat="47.45843" lon="-1.74073">
        <ele>53.79536</ele>
        <time>2022-12-15T16:02:06.651Z</time>
      </trkpt>
      <trkpt lat="47.45843" lon="-1.74053">
        <ele>53.647208</ele>
        <time>2022-12-15T16:02:09.634Z</time>
      </trkpt>
      <trkpt lat="47.45845" lon="-1.74036">
        <ele>53.511401</ele>
        <time>2022-12-15T16:02:12.631Z</time>
      </trkpt>
      <trkpt lat="47.45848" lon="-1.74018">
        <ele>53.375595</ele>
        <time>2022-12-15T16:02:15.636Z</time>
      </trkpt>
      <trkpt lat="47.4585" lon="-1.74001">
        <ele>53.244934</ele>
        <time>2022-12-15T16:02:18.633Z</time>
      </trkpt>
      <trkpt lat="47.45853" lon="-1.73983">
        <ele>53.110013</ele>
        <time>2022-12-15T16:02:21.672Z</time>
      </trkpt>
      <trkpt lat="47.45857" lon="-1.73965">
        <ele>52.964534</ele>
        <time>2022-12-15T16:02:24.650Z</time>
      </trkpt>
      <trkpt lat="47.4586" lon="-1.7395">
        <ele>52.84758</ele>
        <time>2022-12-15T16:02:26.638Z</time>
      </trkpt>
      <trkpt lat="47.45864" lon="-1.73937">
        <ele>52.740923</ele>
        <time>2022-12-15T16:02:28.637Z</time>
      </trkpt>
      <trkpt lat="47.45868" lon="-1.73924">
        <ele>52.638825</ele>
        <time>2022-12-15T16:02:30.648Z</time>
      </trkpt>
      <trkpt lat="47.45872" lon="-1.73912">
        <ele>52.536477</ele>
        <time>2022-12-15T16:02:32.636Z</time>
      </trkpt>
      <trkpt lat="47.45875" lon="-1.73896">
        <ele>52.411315</ele>
        <time>2022-12-15T16:02:35.641Z</time>
      </trkpt>
      <trkpt lat="47.45879" lon="-1.7388">
        <ele>52.287762</ele>
        <time>2022-12-15T16:02:38.650Z</time>
      </trkpt>
      <trkpt lat="47.45885" lon="-1.73864">
        <ele>52.153107</ele>
        <time>2022-12-15T16:02:41.631Z</time>
      </trkpt>
      <trkpt lat="47.45891" lon="-1.73847">
        <ele>52.390796</ele>
        <time>2022-12-15T16:02:44.651Z</time>
      </trkpt>
      <trkpt lat="47.45896" lon="-1.73835">
        <ele>52.567896</ele>
        <time>2022-12-15T16:02:46.650Z</time>
      </trkpt>
      <trkpt lat="47.45903" lon="-1.73817">
        <ele>52.833084</ele>
        <time>2022-12-15T16:02:49.630Z</time>
      </trkpt>
      <trkpt lat="47.45911" lon="-1.73803">
        <ele>53.064975</ele>
        <time>2022-12-15T16:02:52.632Z</time>
      </trkpt>
      <trkpt lat="47.45918" lon="-1.73789">
        <ele>53.299913</ele>
        <time>2022-12-15T16:02:55.643Z</time>
      </trkpt>
      <trkpt lat="47.45925" lon="-1.73772">
        <ele>53.547551</ele>
        <time>2022-12-15T16:02:58.629Z</time>
      </trkpt>
      <trkpt lat="47.45932" lon="-1.73756">
        <ele>53.789801</ele>
        <time>2022-12-15T16:03:01.632Z</time>
      </trkpt>
      <trkpt lat="47.45939" lon="-1.7374">
        <ele>54.038832</ele>
        <time>2022-12-15T16:03:04.635Z</time>
      </trkpt>
      <trkpt lat="47.45945" lon="-1.73725">
        <ele>54.26455</ele>
        <time>2022-12-15T16:03:07.638Z</time>
      </trkpt>
      <trkpt lat="47.4595" lon="-1.7371">
        <ele>54.482253</ele>
        <time>2022-12-15T16:03:10.639Z</time>
      </trkpt>
      <trkpt lat="47.45955" lon="-1.73698">
        <ele>54.655821</ele>
        <time>2022-12-15T16:03:13.653Z</time>
      </trkpt>
      <trkpt lat="47.4596" lon="-1.73686">
        <ele>54.832317</ele>
        <time>2022-12-15T16:03:16.640Z</time>
      </trkpt>
      <trkpt lat="47.45965" lon="-1.73674">
        <ele>55.027803</ele>
        <time>2022-12-15T16:03:19.649Z</time>
      </trkpt>
      <trkpt lat="47.45972" lon="-1.7366">
        <ele>55.242565</ele>
        <time>2022-12-15T16:03:22.637Z</time>
      </trkpt>
      <trkpt lat="47.45981" lon="-1.73647">
        <ele>55.473564</ele>
        <time>2022-12-15T16:03:25.627Z</time>
      </trkpt>
      <trkpt lat="47.45991" lon="-1.73637">
        <ele>55.509588</ele>
        <time>2022-12-15T16:03:28.649Z</time>
      </trkpt>
      <trkpt lat="47.46003" lon="-1.73628">
        <ele>55.426321</ele>
        <time>2022-12-15T16:03:31.643Z</time>
      </trkpt>
      <trkpt lat="47.46014" lon="-1.73622">
        <ele>55.352129</ele>
        <time>2022-12-15T16:03:34.633Z</time>
      </trkpt>
      <trkpt lat="47.46026" lon="-1.73616">
        <ele>55.275721</ele>
        <time>2022-12-15T16:03:37.633Z</time>
      </trkpt>
      <trkpt lat="47.46037" lon="-1.7361">
        <ele>55.199207</ele>
        <time>2022-12-15T16:03:40.631Z</time>
      </trkpt>
      <trkpt lat="47.46048" lon="-1.73601">
        <ele>55.124615</ele>
        <time>2022-12-15T16:03:43.634Z</time>
      </trkpt>
      <trkpt lat="47.46057" lon="-1.73592">
        <ele>55.053889</ele>
        <time>2022-12-15T16:03:46.649Z</time>
      </trkpt>
      <trkpt lat="47.46067" lon="-1.73582">
        <ele>54.98057</ele>
        <time>2022-12-15T16:03:49.629Z</time>
      </trkpt>
      <trkpt lat="47.46076" lon="-1.73569">
        <ele>54.901648</ele>
        <time>2022-12-15T16:03:52.630Z</time>
      </trkpt>
      <trkpt lat="47.46085" lon="-1.73555">
        <ele>54.822589</ele>
        <time>2022-12-15T16:03:55.653Z</time>
      </trkpt>
      <trkpt lat="47.46094" lon="-1.73543">
        <ele>54.745666</ele>
        <time>2022-12-15T16:03:58.634Z</time>
      </trkpt>
      <trkpt lat="47.46103" lon="-1.73531">
        <ele>54.670683</ele>
        <time>2022-12-15T16:04:01.636Z</time>
      </trkpt>
      <trkpt lat="47.46112" lon="-1.73518">
        <ele>54.593375</ele>
        <time>2022-12-15T16:04:04.628Z</time>
      </trkpt>
      <trkpt lat="47.46118" lon="-1.73507">
        <ele>54.534492</ele>
        <time>2022-12-15T16:04:06.639Z</time>
      </trkpt>
      <trkpt lat="47.46126" lon="-1.73492">
        <ele>54.455049</ele>
        <time>2022-12-15T16:04:09.648Z</time>
      </trkpt>
      <trkpt lat="47.46133" lon="-1.73476">
        <ele>54.318571</ele>
        <time>2022-12-15T16:04:12.628Z</time>
      </trkpt>
      <trkpt lat="47.46138" lon="-1.73461">
        <ele>54.180206</ele>
        <time>2022-12-15T16:04:15.632Z</time>
      </trkpt>
      <trkpt lat="47.46142" lon="-1.73447">
        <ele>54.059947</ele>
        <time>2022-12-15T16:04:18.643Z</time>
      </trkpt>
      <trkpt lat="47.46146" lon="-1.73431">
        <ele>53.928636</ele>
        <time>2022-12-15T16:04:21.632Z</time>
      </trkpt>
      <trkpt lat="47.46151" lon="-1.73413">
        <ele>53.778455</ele>
        <time>2022-12-15T16:04:24.639Z</time>
      </trkpt>
      <trkpt lat="47.46155" lon="-1.73395">
        <ele>53.626132</ele>
        <time>2022-12-15T16:04:27.633Z</time>
      </trkpt>
      <trkpt lat="47.46157" lon="-1.73382">
        <ele>53.520991</ele>
        <time>2022-12-15T16:04:29.644Z</time>
      </trkpt>
      <trkpt lat="47.46162" lon="-1.73365">
        <ele>53.375799</ele>
        <time>2022-12-15T16:04:32.634Z</time>
      </trkpt>
      <trkpt lat="47.46166" lon="-1.73348">
        <ele>53.233386</ele>
        <time>2022-12-15T16:04:35.631Z</time>
      </trkpt>
      <trkpt lat="47.46171" lon="-1.73329">
        <ele>53.073614</ele>
        <time>2022-12-15T16:04:38.637Z</time>
      </trkpt>
      <trkpt lat="47.46174" lon="-1.73316">
        <ele>52.963864</ele>
        <time>2022-12-15T16:04:40.631Z</time>
      </trkpt>
      <trkpt lat="47.46177" lon="-1.73303">
        <ele>52.857089</ele>
        <time>2022-12-15T16:04:42.630Z</time>
      </trkpt>
      <trkpt lat="47.4618" lon="-1.7329">
        <ele>52.748056</ele>
        <time>2022-12-15T16:04:44.632Z</time>
      </trkpt>
      <trkpt lat="47.46184" lon="-1.73272">
        <ele>52.601313</ele>
        <time>2022-12-15T16:04:47.647Z</time>
      </trkpt>
      <trkpt lat="47.46188" lon="-1.73257">
        <ele>52.468754</ele>
        <time>2022-12-15T16:04:50.636Z</time>
      </trkpt>
      <trkpt lat="47.46192" lon="-1.73242">
        <ele>52.347018</ele>
        <time>2022-12-15T16:04:53.632Z</time>
      </trkpt>
      <trkpt lat="47.46194" lon="-1.73228">
        <ele>52.193105</ele>
        <time>2022-12-15T16:04:56.638Z</time>
      </trkpt>
      <trkpt lat="47.46197" lon="-1.73214">
        <ele>52.045843</ele>
        <time>2022-12-15T16:04:59.640Z</time>
      </trkpt>
      <trkpt lat="47.462" lon="-1.73198">
        <ele>51.868903</ele>
        <time>2022-12-15T16:05:02.632Z</time>
      </trkpt>
      <trkpt lat="47.46205" lon="-1.7318">
        <ele>51.673765</ele>
        <time>2022-12-15T16:05:05.632Z</time>
      </trkpt>
      <trkpt lat="47.4621" lon="-1.73162">
        <ele>51.470494</ele>
        <time>2022-12-15T16:05:08.635Z</time>
      </trkpt>
      <trkpt lat="47.46215" lon="-1.7315">
        <ele>51.330525</ele>
        <time>2022-12-15T16:05:10.629Z</time>
      </trkpt>
      <trkpt lat="47.46221" lon="-1.73133">
        <ele>51.132086</ele>
        <time>2022-12-15T16:05:13.636Z</time>
      </trkpt>
      <trkpt lat="47.46227" lon="-1.73117">
        <ele>50.939891</ele>
        <time>2022-12-15T16:05:16.638Z</time>
      </trkpt>
      <trkpt lat="47.46234" lon="-1.73101">
        <ele>50.750515</ele>
        <time>2022-12-15T16:05:19.636Z</time>
      </trkpt>
      <trkpt lat="47.46241" lon="-1.73086">
        <ele>50.561255</ele>
        <time>2022-12-15T16:05:22.635Z</time>
      </trkpt>
      <trkpt lat="47.46247" lon="-1.73074">
        <ele>50.407666</ele>
        <time>2022-12-15T16:05:25.638Z</time>
      </trkpt>
      <trkpt lat="47.46254" lon="-1.73061">
        <ele>50.240146</ele>
        <time>2022-12-15T16:05:28.643Z</time>
      </trkpt>
      <trkpt lat="47.46261" lon="-1.73047">
        <ele>50.062752</ele>
        <time>2022-12-15T16:05:31.636Z</time>
      </trkpt>
      <trkpt lat="47.46267" lon="-1.73031">
        <ele>49.864849</ele>
        <time>2022-12-15T16:05:34.641Z</time>
      </trkpt>
      <trkpt lat="47.46272" lon="-1.73018">
        <ele>49.717049</ele>
        <time>2022-12-15T16:05:36.636Z</time>
      </trkpt>
      <trkpt lat="47.46277" lon="-1.73006">
        <ele>49.642039</ele>
        <time>2022-12-15T16:05:38.635Z</time>
      </trkpt>
      <trkpt lat="47.46282" lon="-1.72994">
        <ele>49.758512</ele>
        <time>2022-12-15T16:05:40.636Z</time>
      </trkpt>
      <trkpt lat="47.46288" lon="-1.72978">
        <ele>49.914622</ele>
        <time>2022-12-15T16:05:43.635Z</time>
      </trkpt>
      <trkpt lat="47.46294" lon="-1.72966">
        <ele>50.033695</ele>
        <time>2022-12-15T16:05:45.642Z</time>
      </trkpt>
      <trkpt lat="47.46299" lon="-1.72954">
        <ele>50.154175</ele>
        <time>2022-12-15T16:05:47.630Z</time>
      </trkpt>
      <trkpt lat="47.46304" lon="-1.72941">
        <ele>50.280414</ele>
        <time>2022-12-15T16:05:49.635Z</time>
      </trkpt>
      <trkpt lat="47.46311" lon="-1.72929">
        <ele>50.413726</ele>
        <time>2022-12-15T16:05:52.650Z</time>
      </trkpt>
      <trkpt lat="47.46318" lon="-1.72914">
        <ele>50.568393</ele>
        <time>2022-12-15T16:05:55.632Z</time>
      </trkpt>
      <trkpt lat="47.46325" lon="-1.72898">
        <ele>50.724751</ele>
        <time>2022-12-15T16:05:58.633Z</time>
      </trkpt>
      <trkpt lat="47.46331" lon="-1.72881">
        <ele>50.883557</ele>
        <time>2022-12-15T16:06:01.635Z</time>
      </trkpt>
      <trkpt lat="47.46336" lon="-1.72869">
        <ele>51.001984</ele>
        <time>2022-12-15T16:06:03.651Z</time>
      </trkpt>
      <trkpt lat="47.4634" lon="-1.72858">
        <ele>51.116376</ele>
        <time>2022-12-15T16:06:05.646Z</time>
      </trkpt>
      <trkpt lat="47.46345" lon="-1.72846">
        <ele>51.230982</ele>
        <time>2022-12-15T16:06:07.647Z</time>
      </trkpt>
      <trkpt lat="47.4635" lon="-1.72833">
        <ele>51.35316</ele>
        <time>2022-12-15T16:06:09.648Z</time>
      </trkpt>
      <trkpt lat="47.46355" lon="-1.7282">
        <ele>51.483755</ele>
        <time>2022-12-15T16:06:11.634Z</time>
      </trkpt>
      <trkpt lat="47.4636" lon="-1.72808">
        <ele>51.597256</ele>
        <time>2022-12-15T16:06:13.633Z</time>
      </trkpt>
      <trkpt lat="47.46367" lon="-1.72794">
        <ele>51.742092</ele>
        <time>2022-12-15T16:06:16.642Z</time>
      </trkpt>
      <trkpt lat="47.46375" lon="-1.72779">
        <ele>51.763855</ele>
        <time>2022-12-15T16:06:19.650Z</time>
      </trkpt>
      <trkpt lat="47.46381" lon="-1.72769">
        <ele>51.61845</ele>
        <time>2022-12-15T16:06:21.634Z</time>
      </trkpt>
      <trkpt lat="47.46387" lon="-1.72758">
        <ele>51.470844</ele>
        <time>2022-12-15T16:06:23.645Z</time>
      </trkpt>
      <trkpt lat="47.46394" lon="-1.72746">
        <ele>51.301712</ele>
        <time>2022-12-15T16:06:26.641Z</time>
      </trkpt>
      <trkpt lat="47.46401" lon="-1.72736">
        <ele>51.146759</ele>
        <time>2022-12-15T16:06:29.646Z</time>
      </trkpt>
      <trkpt lat="47.4641" lon="-1.72723">
        <ele>50.944175</ele>
        <time>2022-12-15T16:06:32.648Z</time>
      </trkpt>
      <trkpt lat="47.46418" lon="-1.72709">
        <ele>50.74955</ele>
        <time>2022-12-15T16:06:35.634Z</time>
      </trkpt>
      <trkpt lat="47.46426" lon="-1.72695">
        <ele>50.546945</ele>
        <time>2022-12-15T16:06:38.642Z</time>
      </trkpt>
      <trkpt lat="47.46434" lon="-1.72681">
        <ele>50.351984</ele>
        <time>2022-12-15T16:06:41.638Z</time>
      </trkpt>
      <trkpt lat="47.4644" lon="-1.7267">
        <ele>50.207044</ele>
        <time>2022-12-15T16:06:43.638Z</time>
      </trkpt>
      <trkpt lat="47.46448" lon="-1.72656">
        <ele>50.008593</ele>
        <time>2022-12-15T16:06:46.643Z</time>
      </trkpt>
      <trkpt lat="47.46458" lon="-1.72643">
        <ele>49.798106</ele>
        <time>2022-12-15T16:06:49.645Z</time>
      </trkpt>
      <trkpt lat="47.46465" lon="-1.72635">
        <ele>49.655055</ele>
        <time>2022-12-15T16:06:51.649Z</time>
      </trkpt>
      <trkpt lat="47.46474" lon="-1.72625">
        <ele>49.475598</ele>
        <time>2022-12-15T16:06:53.652Z</time>
      </trkpt>
      <trkpt lat="47.46482" lon="-1.72617">
        <ele>49.327994</ele>
        <time>2022-12-15T16:06:55.655Z</time>
      </trkpt>
      <trkpt lat="47.46493" lon="-1.72607">
        <ele>49.122111</ele>
        <time>2022-12-15T16:06:58.642Z</time>
      </trkpt>
      <trkpt lat="47.46501" lon="-1.72601">
        <ele>48.992252</ele>
        <time>2022-12-15T16:07:00.640Z</time>
      </trkpt>
      <trkpt lat="47.46514" lon="-1.72593">
        <ele>49.035664</ele>
        <time>2022-12-15T16:07:03.634Z</time>
      </trkpt>
      <trkpt lat="47.46525" lon="-1.72587">
        <ele>49.075236</ele>
        <time>2022-12-15T16:07:06.647Z</time>
      </trkpt>
      <trkpt lat="47.46538" lon="-1.72582">
        <ele>49.117084</ele>
        <time>2022-12-15T16:07:09.634Z</time>
      </trkpt>
      <trkpt lat="47.46549" lon="-1.72577">
        <ele>49.155964</ele>
        <time>2022-12-15T16:07:12.643Z</time>
      </trkpt>
      <trkpt lat="47.4656" lon="-1.72573">
        <ele>49.192601</ele>
        <time>2022-12-15T16:07:15.643Z</time>
      </trkpt>
      <trkpt lat="47.4657" lon="-1.72568">
        <ele>49.226637</ele>
        <time>2022-12-15T16:07:18.641Z</time>
      </trkpt>
      <trkpt lat="47.46582" lon="-1.72563">
        <ele>49.264835</ele>
        <time>2022-12-15T16:07:21.641Z</time>
      </trkpt>
      <trkpt lat="47.46591" lon="-1.7256">
        <ele>49.295957</ele>
        <time>2022-12-15T16:07:24.636Z</time>
      </trkpt>
      <trkpt lat="47.46601" lon="-1.72557">
        <ele>49.328948</ele>
        <time>2022-12-15T16:07:28.626Z</time>
      </trkpt>
      <trkpt lat="47.46613" lon="-1.72552">
        <ele>49.368626</ele>
        <time>2022-12-15T16:07:32.630Z</time>
      </trkpt>
      <trkpt lat="47.46622" lon="-1.72548">
        <ele>49.400292</ele>
        <time>2022-12-15T16:07:35.637Z</time>
      </trkpt>
      <trkpt lat="47.46632" lon="-1.72545">
        <ele>49.433687</ele>
        <time>2022-12-15T16:07:38.629Z</time>
      </trkpt>
      <trkpt lat="47.46642" lon="-1.7254">
        <ele>49.467836</ele>
        <time>2022-12-15T16:07:41.647Z</time>
      </trkpt>
      <trkpt lat="47.46653" lon="-1.72535">
        <ele>49.504202</ele>
        <time>2022-12-15T16:07:44.629Z</time>
      </trkpt>
      <trkpt lat="47.46663" lon="-1.72529">
        <ele>49.538456</ele>
        <time>2022-12-15T16:07:47.656Z</time>
      </trkpt>
      <trkpt lat="47.46674" lon="-1.72523">
        <ele>49.591961</ele>
        <time>2022-12-15T16:07:50.643Z</time>
      </trkpt>
      <trkpt lat="47.46685" lon="-1.72516">
        <ele>49.746926</ele>
        <time>2022-12-15T16:07:53.636Z</time>
      </trkpt>
      <trkpt lat="47.46695" lon="-1.72507">
        <ele>49.908169</ele>
        <time>2022-12-15T16:07:56.643Z</time>
      </trkpt>
      <trkpt lat="47.46706" lon="-1.72498">
        <ele>50.063416</ele>
        <time>2022-12-15T16:07:59.630Z</time>
      </trkpt>
      <trkpt lat="47.46718" lon="-1.7249">
        <ele>50.227493</ele>
        <time>2022-12-15T16:08:02.642Z</time>
      </trkpt>
      <trkpt lat="47.46729" lon="-1.72482">
        <ele>50.390935</ele>
        <time>2022-12-15T16:08:05.644Z</time>
      </trkpt>
      <trkpt lat="47.46741" lon="-1.72476">
        <ele>50.549291</ele>
        <time>2022-12-15T16:08:08.634Z</time>
      </trkpt>
      <trkpt lat="47.46752" lon="-1.72468">
        <ele>50.706615</ele>
        <time>2022-12-15T16:08:11.640Z</time>
      </trkpt>
      <trkpt lat="47.46763" lon="-1.72461">
        <ele>50.864288</ele>
        <time>2022-12-15T16:08:14.641Z</time>
      </trkpt>
      <trkpt lat="47.46774" lon="-1.72454">
        <ele>51.018432</ele>
        <time>2022-12-15T16:08:17.631Z</time>
      </trkpt>
      <trkpt lat="47.46785" lon="-1.72445">
        <ele>51.182508</ele>
        <time>2022-12-15T16:08:20.646Z</time>
      </trkpt>
      <trkpt lat="47.46796" lon="-1.72439">
        <ele>51.33101</ele>
        <time>2022-12-15T16:08:23.639Z</time>
      </trkpt>
      <trkpt lat="47.46807" lon="-1.72432">
        <ele>51.486806</ele>
        <time>2022-12-15T16:08:26.644Z</time>
      </trkpt>
      <trkpt lat="47.46818" lon="-1.72424">
        <ele>51.647821</ele>
        <time>2022-12-15T16:08:29.633Z</time>
      </trkpt>
      <trkpt lat="47.4683" lon="-1.72415">
        <ele>51.820757</ele>
        <time>2022-12-15T16:08:32.634Z</time>
      </trkpt>
      <trkpt lat="47.46839" lon="-1.72408">
        <ele>51.915305</ele>
        <time>2022-12-15T16:08:34.634Z</time>
      </trkpt>
      <trkpt lat="47.46847" lon="-1.72401">
        <ele>51.973272</ele>
        <time>2022-12-15T16:08:36.644Z</time>
      </trkpt>
      <trkpt lat="47.46857" lon="-1.72394">
        <ele>52.042684</ele>
        <time>2022-12-15T16:08:39.641Z</time>
      </trkpt>
      <trkpt lat="47.46865" lon="-1.72383">
        <ele>52.103273</ele>
        <time>2022-12-15T16:08:42.633Z</time>
      </trkpt>
      <trkpt lat="47.46873" lon="-1.72374">
        <ele>52.164597</ele>
        <time>2022-12-15T16:08:45.653Z</time>
      </trkpt>
      <trkpt lat="47.46881" lon="-1.72364">
        <ele>52.231638</ele>
        <time>2022-12-15T16:08:48.635Z</time>
      </trkpt>
      <trkpt lat="47.46889" lon="-1.72354">
        <ele>52.292729</ele>
        <time>2022-12-15T16:08:51.635Z</time>
      </trkpt>
      <trkpt lat="47.46897" lon="-1.72345">
        <ele>52.356984</ele>
        <time>2022-12-15T16:08:54.640Z</time>
      </trkpt>
      <trkpt lat="47.46906" lon="-1.72335">
        <ele>52.424171</ele>
        <time>2022-12-15T16:08:57.641Z</time>
      </trkpt>
      <trkpt lat="47.46914" lon="-1.72323">
        <ele>52.491315</ele>
        <time>2022-12-15T16:09:00.656Z</time>
      </trkpt>
      <trkpt lat="47.46921" lon="-1.7231">
        <ele>52.562829</ele>
        <time>2022-12-15T16:09:03.643Z</time>
      </trkpt>
      <trkpt lat="47.46929" lon="-1.72296">
        <ele>52.637886</ele>
        <time>2022-12-15T16:09:06.631Z</time>
      </trkpt>
      <trkpt lat="47.46937" lon="-1.72282">
        <ele>52.711557</ele>
        <time>2022-12-15T16:09:09.630Z</time>
      </trkpt>
      <trkpt lat="47.46944" lon="-1.72268">
        <ele>52.781361</ele>
        <time>2022-12-15T16:09:12.642Z</time>
      </trkpt>
      <trkpt lat="47.4695" lon="-1.72256">
        <ele>52.847134</ele>
        <time>2022-12-15T16:09:15.633Z</time>
      </trkpt>
      <trkpt lat="47.46957" lon="-1.72241">
        <ele>52.919973</ele>
        <time>2022-12-15T16:09:18.634Z</time>
      </trkpt>
      <trkpt lat="47.46963" lon="-1.72224">
        <ele>53.051628</ele>
        <time>2022-12-15T16:09:21.638Z</time>
      </trkpt>
      <trkpt lat="47.4697" lon="-1.72207">
        <ele>53.334084</ele>
        <time>2022-12-15T16:09:24.631Z</time>
      </trkpt>
      <trkpt lat="47.46978" lon="-1.72192">
        <ele>53.595042</ele>
        <time>2022-12-15T16:09:27.630Z</time>
      </trkpt>
      <trkpt lat="47.46983" lon="-1.72179">
        <ele>53.819401</ele>
        <time>2022-12-15T16:09:30.635Z</time>
      </trkpt>
      <trkpt lat="47.46989" lon="-1.72166">
        <ele>54.027354</ele>
        <time>2022-12-15T16:09:33.630Z</time>
      </trkpt>
      <trkpt lat="47.46993" lon="-1.72151">
        <ele>54.260375</ele>
        <time>2022-12-15T16:09:36.634Z</time>
      </trkpt>
      <trkpt lat="47.46997" lon="-1.72136">
        <ele>54.492663</ele>
        <time>2022-12-15T16:09:39.643Z</time>
      </trkpt>
      <trkpt lat="47.47" lon="-1.7212">
        <ele>54.735759</ele>
        <time>2022-12-15T16:09:43.650Z</time>
      </trkpt>
      <trkpt lat="47.47004" lon="-1.72103">
        <ele>54.98835</ele>
        <time>2022-12-15T16:09:47.631Z</time>
      </trkpt>
      <trkpt lat="47.47008" lon="-1.7209">
        <ele>55.190189</ele>
        <time>2022-12-15T16:09:51.642Z</time>
      </trkpt>
      <trkpt lat="47.47013" lon="-1.72078">
        <ele>55.39301</ele>
        <time>2022-12-15T16:09:56.635Z</time>
      </trkpt>
      <trkpt lat="47.47017" lon="-1.72064">
        <ele>55.602228</ele>
        <time>2022-12-15T16:10:00.635Z</time>
      </trkpt>
      <trkpt lat="47.47024" lon="-1.72054">
        <ele>55.813188</ele>
        <time>2022-12-15T16:10:02.644Z</time>
      </trkpt>
      <trkpt lat="47.47029" lon="-1.72041">
        <ele>56.031825</ele>
        <time>2022-12-15T16:10:04.633Z</time>
      </trkpt>
      <trkpt lat="47.47034" lon="-1.72026">
        <ele>56.261971</ele>
        <time>2022-12-15T16:10:06.644Z</time>
      </trkpt>
      <trkpt lat="47.47039" lon="-1.72013">
        <ele>56.472649</ele>
        <time>2022-12-15T16:10:08.634Z</time>
      </trkpt>
      <trkpt lat="47.47041" lon="-1.72">
        <ele>56.665846</ele>
        <time>2022-12-15T16:10:10.636Z</time>
      </trkpt>
      <trkpt lat="47.47044" lon="-1.71982">
        <ele>56.677225</ele>
        <time>2022-12-15T16:10:13.649Z</time>
      </trkpt>
      <trkpt lat="47.47048" lon="-1.71967">
        <ele>56.536115</ele>
        <time>2022-12-15T16:10:16.647Z</time>
      </trkpt>
      <trkpt lat="47.4705" lon="-1.71951">
        <ele>56.392457</ele>
        <time>2022-12-15T16:10:19.651Z</time>
      </trkpt>
      <trkpt lat="47.47052" lon="-1.71935">
        <ele>56.251971</ele>
        <time>2022-12-15T16:10:22.646Z</time>
      </trkpt>
      <trkpt lat="47.47054" lon="-1.7192">
        <ele>56.120989</ele>
        <time>2022-12-15T16:10:25.654Z</time>
      </trkpt>
      <trkpt lat="47.47055" lon="-1.71906">
        <ele>56.000164</ele>
        <time>2022-12-15T16:10:28.634Z</time>
      </trkpt>
      <trkpt lat="47.47056" lon="-1.71892">
        <ele>55.874007</ele>
        <time>2022-12-15T16:10:31.643Z</time>
      </trkpt>
      <trkpt lat="47.47056" lon="-1.71877">
        <ele>55.74284</ele>
        <time>2022-12-15T16:10:34.640Z</time>
      </trkpt>
      <trkpt lat="47.47057" lon="-1.71861">
        <ele>55.604812</ele>
        <time>2022-12-15T16:10:37.632Z</time>
      </trkpt>
      <trkpt lat="47.47057" lon="-1.71843">
        <ele>55.454787</ele>
        <time>2022-12-15T16:10:40.643Z</time>
      </trkpt>
      <trkpt lat="47.47056" lon="-1.71826">
        <ele>55.306363</ele>
        <time>2022-12-15T16:10:43.636Z</time>
      </trkpt>
      <trkpt lat="47.47056" lon="-1.71809">
        <ele>55.154415</ele>
        <time>2022-12-15T16:10:46.641Z</time>
      </trkpt>
      <trkpt lat="47.47055" lon="-1.71791">
        <ele>54.999108</ele>
        <time>2022-12-15T16:10:49.630Z</time>
      </trkpt>
      <trkpt lat="47.47055" lon="-1.71773">
        <ele>54.841963</ele>
        <time>2022-12-15T16:10:52.639Z</time>
      </trkpt>
      <trkpt lat="47.47055" lon="-1.71755">
        <ele>54.688454</ele>
        <time>2022-12-15T16:10:55.632Z</time>
      </trkpt>
      <trkpt lat="47.47054" lon="-1.71737">
        <ele>54.532359</ele>
        <time>2022-12-15T16:10:58.633Z</time>
      </trkpt>
      <trkpt lat="47.47054" lon="-1.71719">
        <ele>54.498492</ele>
        <time>2022-12-15T16:11:01.650Z</time>
      </trkpt>
      <trkpt lat="47.47054" lon="-1.717">
        <ele>54.556342</ele>
        <time>2022-12-15T16:11:04.640Z</time>
      </trkpt>
      <trkpt lat="47.47053" lon="-1.71683">
        <ele>54.609287</ele>
        <time>2022-12-15T16:11:07.641Z</time>
      </trkpt>
      <trkpt lat="47.47053" lon="-1.71668">
        <ele>54.655812</ele>
        <time>2022-12-15T16:11:10.635Z</time>
      </trkpt>
      <trkpt lat="47.47052" lon="-1.71651">
        <ele>54.709667</ele>
        <time>2022-12-15T16:11:14.643Z</time>
      </trkpt>
      <trkpt lat="47.47051" lon="-1.71635">
        <ele>54.759479</ele>
        <time>2022-12-15T16:11:18.640Z</time>
      </trkpt>
      <trkpt lat="47.47052" lon="-1.7162">
        <ele>54.806276</ele>
        <time>2022-12-15T16:11:23.634Z</time>
      </trkpt>
      <trkpt lat="47.47051" lon="-1.71607">
        <ele>54.847974</ele>
        <time>2022-12-15T16:11:31.635Z</time>
      </trkpt>
      <trkpt lat="47.4705" lon="-1.7159">
        <ele>54.898493</ele>
        <time>2022-12-15T16:11:37.633Z</time>
      </trkpt>
      <trkpt lat="47.47051" lon="-1.71574">
        <ele>54.948953</ele>
        <time>2022-12-15T16:11:41.642Z</time>
      </trkpt>
      <trkpt lat="47.47051" lon="-1.71561">
        <ele>54.990328</ele>
        <time>2022-12-15T16:11:44.628Z</time>
      </trkpt>
      <trkpt lat="47.47051" lon="-1.71546">
        <ele>55.035425</ele>
        <time>2022-12-15T16:11:47.642Z</time>
      </trkpt>
      <trkpt lat="47.47051" lon="-1.71531">
        <ele>55.083321</ele>
        <time>2022-12-15T16:11:50.644Z</time>
      </trkpt>
      <trkpt lat="47.47051" lon="-1.71515">
        <ele>55.134018</ele>
        <time>2022-12-15T16:11:53.632Z</time>
      </trkpt>
      <trkpt lat="47.47051" lon="-1.71498">
        <ele>55.186287</ele>
        <time>2022-12-15T16:11:56.641Z</time>
      </trkpt>
      <trkpt lat="47.47051" lon="-1.71481">
        <ele>55.23947</ele>
        <time>2022-12-15T16:11:59.633Z</time>
      </trkpt>
      <trkpt lat="47.47051" lon="-1.71464">
        <ele>55.292757</ele>
        <time>2022-12-15T16:12:02.629Z</time>
      </trkpt>
      <trkpt lat="47.47051" lon="-1.71447">
        <ele>55.245633</ele>
        <time>2022-12-15T16:12:05.633Z</time>
      </trkpt>
      <trkpt lat="47.47051" lon="-1.7143">
        <ele>55.197946</ele>
        <time>2022-12-15T16:12:08.638Z</time>
      </trkpt>
      <trkpt lat="47.4705" lon="-1.71413">
        <ele>55.150524</ele>
        <time>2022-12-15T16:12:11.643Z</time>
      </trkpt>
      <trkpt lat="47.4705" lon="-1.71396">
        <ele>55.103591</ele>
        <time>2022-12-15T16:12:14.650Z</time>
      </trkpt>
      <trkpt lat="47.4705" lon="-1.71381">
        <ele>55.060946</ele>
        <time>2022-12-15T16:12:17.628Z</time>
      </trkpt>
      <trkpt lat="47.47049" lon="-1.71366">
        <ele>55.017717</ele>
        <time>2022-12-15T16:12:20.651Z</time>
      </trkpt>
      <trkpt lat="47.4705" lon="-1.7135">
        <ele>54.972819</ele>
        <time>2022-12-15T16:12:23.638Z</time>
      </trkpt>
      <trkpt lat="47.4705" lon="-1.71333">
        <ele>54.925412</ele>
        <time>2022-12-15T16:12:26.630Z</time>
      </trkpt>
      <trkpt lat="47.4705" lon="-1.71315">
        <ele>54.875201</ele>
        <time>2022-12-15T16:12:29.630Z</time>
      </trkpt>
      <trkpt lat="47.4705" lon="-1.71296">
        <ele>54.823867</ele>
        <time>2022-12-15T16:12:32.638Z</time>
      </trkpt>
      <trkpt lat="47.4705" lon="-1.71278">
        <ele>54.772814</ele>
        <time>2022-12-15T16:12:35.639Z</time>
      </trkpt>
      <trkpt lat="47.4705" lon="-1.7126">
        <ele>54.720921</ele>
        <time>2022-12-15T16:12:38.633Z</time>
      </trkpt>
      <trkpt lat="47.4705" lon="-1.71241">
        <ele>54.668452</ele>
        <time>2022-12-15T16:12:41.650Z</time>
      </trkpt>
      <trkpt lat="47.4705" lon="-1.71222">
        <ele>54.61487</ele>
        <time>2022-12-15T16:12:44.649Z</time>
      </trkpt>
      <trkpt lat="47.47051" lon="-1.71202">
        <ele>54.559025</ele>
        <time>2022-12-15T16:12:47.650Z</time>
      </trkpt>
      <trkpt lat="47.4705" lon="-1.71183">
        <ele>54.633646</ele>
        <time>2022-12-15T16:12:50.647Z</time>
      </trkpt>
      <trkpt lat="47.4705" lon="-1.71164">
        <ele>54.746489</ele>
        <time>2022-12-15T16:12:53.637Z</time>
      </trkpt>
      <trkpt lat="47.4705" lon="-1.71144">
        <ele>54.862857</ele>
        <time>2022-12-15T16:12:56.647Z</time>
      </trkpt>
      <trkpt lat="47.4705" lon="-1.7113">
        <ele>54.94219</ele>
        <time>2022-12-15T16:12:58.645Z</time>
      </trkpt>
      <trkpt lat="47.4705" lon="-1.71112">
        <ele>55.048024</ele>
        <time>2022-12-15T16:13:01.645Z</time>
      </trkpt>
      <trkpt lat="47.4705" lon="-1.71096">
        <ele>55.143228</ele>
        <time>2022-12-15T16:13:04.634Z</time>
      </trkpt>
      <trkpt lat="47.4705" lon="-1.71079">
        <ele>55.240782</ele>
        <time>2022-12-15T16:13:07.638Z</time>
      </trkpt>
      <trkpt lat="47.4705" lon="-1.71062">
        <ele>55.343037</ele>
        <time>2022-12-15T16:13:10.653Z</time>
      </trkpt>
      <trkpt lat="47.47049" lon="-1.71044">
        <ele>55.45122</ele>
        <time>2022-12-15T16:13:13.634Z</time>
      </trkpt>
      <trkpt lat="47.47049" lon="-1.71024">
        <ele>55.567578</ele>
        <time>2022-12-15T16:13:16.638Z</time>
      </trkpt>
      <trkpt lat="47.47049" lon="-1.71004">
        <ele>55.6857</ele>
        <time>2022-12-15T16:13:19.635Z</time>
      </trkpt>
      <trkpt lat="47.47049" lon="-1.7099">
        <ele>55.765037</ele>
        <time>2022-12-15T16:13:21.633Z</time>
      </trkpt>
      <trkpt lat="47.47049" lon="-1.7097">
        <ele>55.881405</ele>
        <time>2022-12-15T16:13:24.629Z</time>
      </trkpt>
      <trkpt lat="47.47049" lon="-1.70951">
        <ele>55.996598</ele>
        <time>2022-12-15T16:13:27.651Z</time>
      </trkpt>
      <trkpt lat="47.47049" lon="-1.70931">
        <ele>56.110425</ele>
        <time>2022-12-15T16:13:30.632Z</time>
      </trkpt>
      <trkpt lat="47.47048" lon="-1.70912">
        <ele>56.175007</ele>
        <time>2022-12-15T16:13:33.643Z</time>
      </trkpt>
      <trkpt lat="47.47048" lon="-1.70893">
        <ele>56.238927</ele>
        <time>2022-12-15T16:13:36.659Z</time>
      </trkpt>
      <trkpt lat="47.47047" lon="-1.70874">
        <ele>56.300864</ele>
        <time>2022-12-15T16:13:39.642Z</time>
      </trkpt>
      <trkpt lat="47.47047" lon="-1.70855">
        <ele>56.364408</ele>
        <time>2022-12-15T16:13:42.645Z</time>
      </trkpt>
      <trkpt lat="47.47047" lon="-1.70835">
        <ele>56.428299</ele>
        <time>2022-12-15T16:13:45.644Z</time>
      </trkpt>
      <trkpt lat="47.47046" lon="-1.70822">
        <ele>56.473044</ele>
        <time>2022-12-15T16:13:47.651Z</time>
      </trkpt>
      <trkpt lat="47.47046" lon="-1.70808">
        <ele>56.51975</ele>
        <time>2022-12-15T16:13:49.648Z</time>
      </trkpt>
      <trkpt lat="47.47046" lon="-1.70794">
        <ele>56.564428</ele>
        <time>2022-12-15T16:13:51.647Z</time>
      </trkpt>
      <trkpt lat="47.47046" lon="-1.70775">
        <ele>56.628349</ele>
        <time>2022-12-15T16:13:54.643Z</time>
      </trkpt>
      <trkpt lat="47.47046" lon="-1.70758">
        <ele>56.686284</ele>
        <time>2022-12-15T16:13:57.632Z</time>
      </trkpt>
      <trkpt lat="47.47046" lon="-1.7074">
        <ele>56.745855</ele>
        <time>2022-12-15T16:14:00.630Z</time>
      </trkpt>
      <trkpt lat="47.47046" lon="-1.70722">
        <ele>56.805098</ele>
        <time>2022-12-15T16:14:03.632Z</time>
      </trkpt>
      <trkpt lat="47.47046" lon="-1.70703">
        <ele>56.866001</ele>
        <time>2022-12-15T16:14:06.631Z</time>
      </trkpt>
      <trkpt lat="47.47045" lon="-1.70684">
        <ele>56.928929</ele>
        <time>2022-12-15T16:14:09.629Z</time>
      </trkpt>
      <trkpt lat="47.47045" lon="-1.70671">
        <ele>56.973279</ele>
        <time>2022-12-15T16:14:11.634Z</time>
      </trkpt>
      <trkpt lat="47.47046" lon="-1.70657">
        <ele>56.981233</ele>
        <time>2022-12-15T16:14:13.643Z</time>
      </trkpt>
      <trkpt lat="47.47045" lon="-1.70644">
        <ele>56.965103</ele>
        <time>2022-12-15T16:14:15.656Z</time>
      </trkpt>
      <trkpt lat="47.47045" lon="-1.7063">
        <ele>56.949193</ele>
        <time>2022-12-15T16:14:17.648Z</time>
      </trkpt>
      <trkpt lat="47.47044" lon="-1.70616">
        <ele>56.932921</ele>
        <time>2022-12-15T16:14:19.643Z</time>
      </trkpt>
      <trkpt lat="47.47041" lon="-1.70595">
        <ele>56.908018</ele>
        <time>2022-12-15T16:14:22.642Z</time>
      </trkpt>
      <trkpt lat="47.4704" lon="-1.70578">
        <ele>56.888273</ele>
        <time>2022-12-15T16:14:24.650Z</time>
      </trkpt>
      <trkpt lat="47.47036" lon="-1.7056">
        <ele>56.865573</ele>
        <time>2022-12-15T16:14:27.641Z</time>
      </trkpt>
      <trkpt lat="47.47034" lon="-1.70542">
        <ele>56.844937</ele>
        <time>2022-12-15T16:14:30.641Z</time>
      </trkpt>
      <trkpt lat="47.47032" lon="-1.70526">
        <ele>56.826154</ele>
        <time>2022-12-15T16:14:33.646Z</time>
      </trkpt>
      <trkpt lat="47.47028" lon="-1.70508">
        <ele>56.803811</ele>
        <time>2022-12-15T16:14:36.655Z</time>
      </trkpt>
      <trkpt lat="47.47025" lon="-1.70491">
        <ele>56.783441</ele>
        <time>2022-12-15T16:14:39.632Z</time>
      </trkpt>
      <trkpt lat="47.47021" lon="-1.70471">
        <ele>56.758901</ele>
        <time>2022-12-15T16:14:42.651Z</time>
      </trkpt>
      <trkpt lat="47.47019" lon="-1.70453">
        <ele>56.738072</ele>
        <time>2022-12-15T16:14:45.637Z</time>
      </trkpt>
      <trkpt lat="47.47017" lon="-1.7044">
        <ele>56.72176</ele>
        <time>2022-12-15T16:14:47.652Z</time>
      </trkpt>
      <trkpt lat="47.47012" lon="-1.70425">
        <ele>56.703184</ele>
        <time>2022-12-15T16:14:49.635Z</time>
      </trkpt>
      <trkpt lat="47.47009" lon="-1.70413">
        <ele>56.687639</ele>
        <time>2022-12-15T16:14:51.652Z</time>
      </trkpt>
      <trkpt lat="47.47005" lon="-1.70395">
        <ele>56.691439</ele>
        <time>2022-12-15T16:14:54.645Z</time>
      </trkpt>
      <trkpt lat="47.47" lon="-1.70381">
        <ele>56.704655</ele>
        <time>2022-12-15T16:14:56.669Z</time>
      </trkpt>
      <trkpt lat="47.46996" lon="-1.70363">
        <ele>56.720334</ele>
        <time>2022-12-15T16:14:59.627Z</time>
      </trkpt>
      <trkpt lat="47.46992" lon="-1.70345">
        <ele>56.737122</ele>
        <time>2022-12-15T16:15:02.641Z</time>
      </trkpt>
      <trkpt lat="47.46988" lon="-1.70333">
        <ele>56.748742</ele>
        <time>2022-12-15T16:15:04.656Z</time>
      </trkpt>
      <trkpt lat="47.46984" lon="-1.7032">
        <ele>56.760777</ele>
        <time>2022-12-15T16:15:06.645Z</time>
      </trkpt>
      <trkpt lat="47.4698" lon="-1.70308">
        <ele>56.772469</ele>
        <time>2022-12-15T16:15:08.642Z</time>
      </trkpt>
      <trkpt lat="47.46974" lon="-1.70289">
        <ele>56.790095</ele>
        <time>2022-12-15T16:15:11.641Z</time>
      </trkpt>
      <trkpt lat="47.46969" lon="-1.70274">
        <ele>56.804421</ele>
        <time>2022-12-15T16:15:14.637Z</time>
      </trkpt>
      <trkpt lat="47.46965" lon="-1.70261">
        <ele>56.816093</ele>
        <time>2022-12-15T16:15:17.637Z</time>
      </trkpt>
      <trkpt lat="47.46962" lon="-1.70246">
        <ele>56.830399</ele>
        <time>2022-12-15T16:15:21.642Z</time>
      </trkpt>
      <trkpt lat="47.46957" lon="-1.70229">
        <ele>56.845638</ele>
        <time>2022-12-15T16:15:25.636Z</time>
      </trkpt>
      <trkpt lat="47.46954" lon="-1.70214">
        <ele>56.858653</ele>
        <time>2022-12-15T16:15:28.637Z</time>
      </trkpt>
      <trkpt lat="47.46952" lon="-1.70198">
        <ele>56.872727</ele>
        <time>2022-12-15T16:15:31.642Z</time>
      </trkpt>
      <trkpt lat="47.46951" lon="-1.70181">
        <ele>56.887833</ele>
        <time>2022-12-15T16:15:34.628Z</time>
      </trkpt>
      <trkpt lat="47.4695" lon="-1.70162">
        <ele>56.903937</ele>
        <time>2022-12-15T16:15:37.639Z</time>
      </trkpt>
      <trkpt lat="47.46949" lon="-1.70142">
        <ele>57.125051</ele>
        <time>2022-12-15T16:15:40.631Z</time>
      </trkpt>
      <trkpt lat="47.46949" lon="-1.70128">
        <ele>57.319079</ele>
        <time>2022-12-15T16:15:42.650Z</time>
      </trkpt>
      <trkpt lat="47.4695" lon="-1.70114">
        <ele>57.513404</ele>
        <time>2022-12-15T16:15:44.630Z</time>
      </trkpt>
      <trkpt lat="47.46953" lon="-1.70096">
        <ele>57.767501</ele>
        <time>2022-12-15T16:15:47.630Z</time>
      </trkpt>
      <trkpt lat="47.46957" lon="-1.70079">
        <ele>58.017321</ele>
        <time>2022-12-15T16:15:50.630Z</time>
      </trkpt>
      <trkpt lat="47.4696" lon="-1.70062">
        <ele>58.277753</ele>
        <time>2022-12-15T16:15:53.635Z</time>
      </trkpt>
      <trkpt lat="47.46965" lon="-1.70045">
        <ele>58.534693</ele>
        <time>2022-12-15T16:15:56.629Z</time>
      </trkpt>
      <trkpt lat="47.46971" lon="-1.70028">
        <ele>58.794779</ele>
        <time>2022-12-15T16:15:59.650Z</time>
      </trkpt>
      <trkpt lat="47.46977" lon="-1.7001">
        <ele>59.065299</ele>
        <time>2022-12-15T16:16:02.644Z</time>
      </trkpt>
      <trkpt lat="47.46981" lon="-1.69999">
        <ele>59.254538</ele>
        <time>2022-12-15T16:16:04.631Z</time>
      </trkpt>
      <trkpt lat="47.46984" lon="-1.69985">
        <ele>59.450314</ele>
        <time>2022-12-15T16:16:06.640Z</time>
      </trkpt>
      <trkpt lat="47.46988" lon="-1.69973">
        <ele>59.637005</ele>
        <time>2022-12-15T16:16:08.647Z</time>
      </trkpt>
      <trkpt lat="47.46993" lon="-1.69956">
        <ele>59.902883</ele>
        <time>2022-12-15T16:16:11.649Z</time>
      </trkpt>
      <trkpt lat="47.46997" lon="-1.6994">
        <ele>60.131753</ele>
        <time>2022-12-15T16:16:14.647Z</time>
      </trkpt>
      <trkpt lat="47.47001" lon="-1.69926">
        <ele>60.351842</ele>
        <time>2022-12-15T16:16:17.639Z</time>
      </trkpt>
      <trkpt lat="47.47006" lon="-1.69909">
        <ele>60.599564</ele>
        <time>2022-12-15T16:16:20.641Z</time>
      </trkpt>
      <trkpt lat="47.47009" lon="-1.69892">
        <ele>60.582365</ele>
        <time>2022-12-15T16:16:23.633Z</time>
      </trkpt>
      <trkpt lat="47.47012" lon="-1.69875">
        <ele>60.543464</ele>
        <time>2022-12-15T16:16:26.642Z</time>
      </trkpt>
      <trkpt lat="47.47015" lon="-1.69859">
        <ele>60.506337</ele>
        <time>2022-12-15T16:16:29.648Z</time>
      </trkpt>
      <trkpt lat="47.47018" lon="-1.69841">
        <ele>60.463605</ele>
        <time>2022-12-15T16:16:32.643Z</time>
      </trkpt>
      <trkpt lat="47.47022" lon="-1.69822">
        <ele>60.419353</ele>
        <time>2022-12-15T16:16:35.642Z</time>
      </trkpt>
      <trkpt lat="47.47025" lon="-1.69804">
        <ele>60.376622</ele>
        <time>2022-12-15T16:16:38.629Z</time>
      </trkpt>
      <trkpt lat="47.47028" lon="-1.69786">
        <ele>60.335609</ele>
        <time>2022-12-15T16:16:41.638Z</time>
      </trkpt>
      <trkpt lat="47.47031" lon="-1.69768">
        <ele>60.293497</ele>
        <time>2022-12-15T16:16:44.642Z</time>
      </trkpt>
      <trkpt lat="47.47034" lon="-1.6975">
        <ele>60.252108</ele>
        <time>2022-12-15T16:16:47.650Z</time>
      </trkpt>
      <trkpt lat="47.47037" lon="-1.69731">
        <ele>60.208201</ele>
        <time>2022-12-15T16:16:50.627Z</time>
      </trkpt>
      <trkpt lat="47.4704" lon="-1.69712">
        <ele>60.164103</ele>
        <time>2022-12-15T16:16:53.636Z</time>
      </trkpt>
      <trkpt lat="47.47044" lon="-1.69693">
        <ele>60.119367</ele>
        <time>2022-12-15T16:16:56.641Z</time>
      </trkpt>
      <trkpt lat="47.47047" lon="-1.6968">
        <ele>60.088683</ele>
        <time>2022-12-15T16:16:58.631Z</time>
      </trkpt>
      <trkpt lat="47.47048" lon="-1.69667">
        <ele>60.057702</ele>
        <time>2022-12-15T16:17:00.628Z</time>
      </trkpt>
      <trkpt lat="47.47052" lon="-1.69649">
        <ele>60.026842</ele>
        <time>2022-12-15T16:17:03.631Z</time>
      </trkpt>
      <trkpt lat="47.47054" lon="-1.69635">
        <ele>60.081315</ele>
        <time>2022-12-15T16:17:06.642Z</time>
      </trkpt>
      <trkpt lat="47.47055" lon="-1.69619">
        <ele>60.141745</ele>
        <time>2022-12-15T16:17:10.641Z</time>
      </trkpt>
      <trkpt lat="47.47054" lon="-1.69604">
        <ele>60.196166</ele>
        <time>2022-12-15T16:17:14.632Z</time>
      </trkpt>
      <trkpt lat="47.47054" lon="-1.69587">
        <ele>60.262571</ele>
        <time>2022-12-15T16:17:18.630Z</time>
      </trkpt>
      <trkpt lat="47.47053" lon="-1.6957">
        <ele>60.327771</ele>
        <time>2022-12-15T16:17:21.634Z</time>
      </trkpt>
      <trkpt lat="47.47053" lon="-1.69551">
        <ele>60.399037</ele>
        <time>2022-12-15T16:17:24.630Z</time>
      </trkpt>
      <trkpt lat="47.47051" lon="-1.69531">
        <ele>60.472364</ele>
        <time>2022-12-15T16:17:27.633Z</time>
      </trkpt>
      <trkpt lat="47.4705" lon="-1.69512">
        <ele>60.545977</ele>
        <time>2022-12-15T16:17:30.628Z</time>
      </trkpt>
      <trkpt lat="47.47048" lon="-1.69495">
        <ele>60.610431</ele>
        <time>2022-12-15T16:17:33.630Z</time>
      </trkpt>
      <trkpt lat="47.47047" lon="-1.69481">
        <ele>60.662141</ele>
        <time>2022-12-15T16:17:36.647Z</time>
      </trkpt>
      <trkpt lat="47.47046" lon="-1.69466">
        <ele>60.721163</ele>
        <time>2022-12-15T16:17:40.628Z</time>
      </trkpt>
      <trkpt lat="47.47047" lon="-1.69449">
        <ele>60.784973</ele>
        <time>2022-12-15T16:17:44.647Z</time>
      </trkpt>
      <trkpt lat="47.47046" lon="-1.69434">
        <ele>60.841916</ele>
        <time>2022-12-15T16:17:47.633Z</time>
      </trkpt>
      <trkpt lat="47.47046" lon="-1.69418">
        <ele>60.901219</ele>
        <time>2022-12-15T16:17:50.640Z</time>
      </trkpt>
      <trkpt lat="47.47045" lon="-1.69401">
        <ele>60.965272</ele>
        <time>2022-12-15T16:17:53.643Z</time>
      </trkpt>
      <trkpt lat="47.47045" lon="-1.69383">
        <ele>61.026359</ele>
        <time>2022-12-15T16:17:56.646Z</time>
      </trkpt>
      <trkpt lat="47.47045" lon="-1.69365">
        <ele>61.052111</ele>
        <time>2022-12-15T16:17:59.631Z</time>
      </trkpt>
      <trkpt lat="47.47045" lon="-1.69346">
        <ele>61.078276</ele>
        <time>2022-12-15T16:18:02.643Z</time>
      </trkpt>
      <trkpt lat="47.47044" lon="-1.69329">
        <ele>61.102532</ele>
        <time>2022-12-15T16:18:05.633Z</time>
      </trkpt>
      <trkpt lat="47.47044" lon="-1.69315">
        <ele>61.122896</ele>
        <time>2022-12-15T16:18:08.629Z</time>
      </trkpt>
      <trkpt lat="47.47044" lon="-1.69299">
        <ele>61.144541</ele>
        <time>2022-12-15T16:18:11.647Z</time>
      </trkpt>
      <trkpt lat="47.47043" lon="-1.69283">
        <ele>61.168308</ele>
        <time>2022-12-15T16:18:14.644Z</time>
      </trkpt>
      <trkpt lat="47.47043" lon="-1.69265">
        <ele>61.192928</ele>
        <time>2022-12-15T16:18:17.634Z</time>
      </trkpt>
      <trkpt lat="47.47042" lon="-1.69247">
        <ele>61.218284</ele>
        <time>2022-12-15T16:18:20.628Z</time>
      </trkpt>
      <trkpt lat="47.47042" lon="-1.69228">
        <ele>61.246022</ele>
        <time>2022-12-15T16:18:23.648Z</time>
      </trkpt>
      <trkpt lat="47.47041" lon="-1.69214">
        <ele>61.265468</ele>
        <time>2022-12-15T16:18:25.635Z</time>
      </trkpt>
      <trkpt lat="47.47041" lon="-1.692">
        <ele>61.28555</ele>
        <time>2022-12-15T16:18:27.633Z</time>
      </trkpt>
      <trkpt lat="47.47041" lon="-1.69181">
        <ele>61.31244</ele>
        <time>2022-12-15T16:18:30.648Z</time>
      </trkpt>
      <trkpt lat="47.4704" lon="-1.69162">
        <ele>61.338623</ele>
        <time>2022-12-15T16:18:33.634Z</time>
      </trkpt>
      <trkpt lat="47.47041" lon="-1.69148">
        <ele>61.358351</ele>
        <time>2022-12-15T16:18:36.635Z</time>
      </trkpt>
      <trkpt lat="47.47041" lon="-1.69134">
        <ele>61.378591</ele>
        <time>2022-12-15T16:18:40.632Z</time>
      </trkpt>
      <trkpt lat="47.4704" lon="-1.69121">
        <ele>61.397352</ele>
        <time>2022-12-15T16:18:44.629Z</time>
      </trkpt>
      <trkpt lat="47.47039" lon="-1.69104">
        <ele>61.28309</ele>
        <time>2022-12-15T16:18:47.628Z</time>
      </trkpt>
      <trkpt lat="47.47039" lon="-1.69089">
        <ele>61.172393</ele>
        <time>2022-12-15T16:18:49.635Z</time>
      </trkpt>
      <trkpt lat="47.47038" lon="-1.69073">
        <ele>61.055922</ele>
        <time>2022-12-15T16:18:51.638Z</time>
      </trkpt>
      <trkpt lat="47.47038" lon="-1.69056">
        <ele>60.936563</ele>
        <time>2022-12-15T16:18:53.629Z</time>
      </trkpt>
      <trkpt lat="47.47039" lon="-1.69042">
        <ele>60.833146</ele>
        <time>2022-12-15T16:18:55.633Z</time>
      </trkpt>
      <trkpt lat="47.47038" lon="-1.69027">
        <ele>60.72422</ele>
        <time>2022-12-15T16:18:57.630Z</time>
      </trkpt>
      <trkpt lat="47.47038" lon="-1.69008">
        <ele>60.581851</ele>
        <time>2022-12-15T16:19:00.634Z</time>
      </trkpt>
      <trkpt lat="47.47037" lon="-1.68989">
        <ele>60.444563</ele>
        <time>2022-12-15T16:19:03.640Z</time>
      </trkpt>
      <trkpt lat="47.47036" lon="-1.68971">
        <ele>60.317808</ele>
        <time>2022-12-15T16:19:06.651Z</time>
      </trkpt>
      <trkpt lat="47.47036" lon="-1.68952">
        <ele>60.176884</ele>
        <time>2022-12-15T16:19:09.640Z</time>
      </trkpt>
      <trkpt lat="47.47036" lon="-1.68935">
        <ele>60.053304</ele>
        <time>2022-12-15T16:19:12.628Z</time>
      </trkpt>
      <trkpt lat="47.47035" lon="-1.6892">
        <ele>59.947709</ele>
        <time>2022-12-15T16:19:16.648Z</time>
      </trkpt>
      <trkpt lat="47.47034" lon="-1.68906">
        <ele>59.846691</ele>
        <time>2022-12-15T16:19:21.631Z</time>
      </trkpt>
      <trkpt lat="47.47034" lon="-1.68891">
        <ele>59.741177</ele>
        <time>2022-12-15T16:19:26.630Z</time>
      </trkpt>
      <trkpt lat="47.47035" lon="-1.68878">
        <ele>59.642027</ele>
        <time>2022-12-15T16:19:31.638Z</time>
      </trkpt>
      <trkpt lat="47.47035" lon="-1.68864">
        <ele>59.544322</ele>
        <time>2022-12-15T16:19:36.644Z</time>
      </trkpt>
      <trkpt lat="47.47035" lon="-1.68851">
        <ele>59.504205</ele>
        <time>2022-12-15T16:19:43.634Z</time>
      </trkpt>
      <trkpt lat="47.47034" lon="-1.68835">
        <ele>59.618087</ele>
        <time>2022-12-15T16:19:48.632Z</time>
      </trkpt>
      <trkpt lat="47.47034" lon="-1.68818">
        <ele>59.738016</ele>
        <time>2022-12-15T16:19:52.632Z</time>
      </trkpt>
      <trkpt lat="47.47034" lon="-1.68804">
        <ele>59.835889</ele>
        <time>2022-12-15T16:19:55.637Z</time>
      </trkpt>
      <trkpt lat="47.47033" lon="-1.68789">
        <ele>59.938827</ele>
        <time>2022-12-15T16:19:58.634Z</time>
      </trkpt>
      <trkpt lat="47.47033" lon="-1.68773">
        <ele>60.052133</ele>
        <time>2022-12-15T16:20:01.628Z</time>
      </trkpt>
      <trkpt lat="47.47033" lon="-1.68756">
        <ele>60.173251</ele>
        <time>2022-12-15T16:20:04.633Z</time>
      </trkpt>
      <trkpt lat="47.47032" lon="-1.68737">
        <ele>60.304353</ele>
        <time>2022-12-15T16:20:07.640Z</time>
      </trkpt>
      <trkpt lat="47.47031" lon="-1.68719">
        <ele>60.433045</ele>
        <time>2022-12-15T16:20:10.628Z</time>
      </trkpt>
      <trkpt lat="47.4703" lon="-1.68704">
        <ele>60.539441</ele>
        <time>2022-12-15T16:20:13.632Z</time>
      </trkpt>
      <trkpt lat="47.4703" lon="-1.68689">
        <ele>60.646034</ele>
        <time>2022-12-15T16:20:16.644Z</time>
      </trkpt>
      <trkpt lat="47.47029" lon="-1.68672">
        <ele>60.760766</ele>
        <time>2022-12-15T16:20:19.636Z</time>
      </trkpt>
      <trkpt lat="47.47029" lon="-1.68656">
        <ele>60.877966</ele>
        <time>2022-12-15T16:20:22.628Z</time>
      </trkpt>
      <trkpt lat="47.47028" lon="-1.68637">
        <ele>61.012529</ele>
        <time>2022-12-15T16:20:25.632Z</time>
      </trkpt>
      <trkpt lat="47.47028" lon="-1.68618">
        <ele>61.145576</ele>
        <time>2022-12-15T16:20:28.639Z</time>
      </trkpt>
      <trkpt lat="47.47028" lon="-1.68598">
        <ele>61.288626</ele>
        <time>2022-12-15T16:20:31.640Z</time>
      </trkpt>
      <trkpt lat="47.47027" lon="-1.68579">
        <ele>61.440807</ele>
        <time>2022-12-15T16:20:34.634Z</time>
      </trkpt>
      <trkpt lat="47.47026" lon="-1.68563">
        <ele>61.587978</ele>
        <time>2022-12-15T16:20:37.635Z</time>
      </trkpt>
      <trkpt lat="47.47026" lon="-1.68549">
        <ele>61.709751</ele>
        <time>2022-12-15T16:20:40.640Z</time>
      </trkpt>
      <trkpt lat="47.47027" lon="-1.68533">
        <ele>61.85858</ele>
        <time>2022-12-15T16:20:43.633Z</time>
      </trkpt>
      <trkpt lat="47.47026" lon="-1.68515">
        <ele>62.014825</ele>
        <time>2022-12-15T16:20:46.645Z</time>
      </trkpt>
      <trkpt lat="47.47024" lon="-1.68498">
        <ele>62.173933</ele>
        <time>2022-12-15T16:20:49.636Z</time>
      </trkpt>
      <trkpt lat="47.47021" lon="-1.68478">
        <ele>62.352859</ele>
        <time>2022-12-15T16:20:52.630Z</time>
      </trkpt>
      <trkpt lat="47.47019" lon="-1.68465">
        <ele>62.474408</ele>
        <time>2022-12-15T16:20:54.631Z</time>
      </trkpt>
      <trkpt lat="47.47016" lon="-1.68448">
        <ele>62.636542</ele>
        <time>2022-12-15T16:20:57.628Z</time>
      </trkpt>
      <trkpt lat="47.47012" lon="-1.6843">
        <ele>62.810076</ele>
        <time>2022-12-15T16:21:00.630Z</time>
      </trkpt>
      <trkpt lat="47.47007" lon="-1.68412">
        <ele>62.985333</ele>
        <time>2022-12-15T16:21:03.635Z</time>
      </trkpt>
      <trkpt lat="47.47003" lon="-1.68399">
        <ele>63.111707</ele>
        <time>2022-12-15T16:21:05.632Z</time>
      </trkpt>
      <trkpt lat="47.46997" lon="-1.68381">
        <ele>63.286693</ele>
        <time>2022-12-15T16:21:08.633Z</time>
      </trkpt>
      <trkpt lat="47.46992" lon="-1.68369">
        <ele>63.414544</ele>
        <time>2022-12-15T16:21:10.632Z</time>
      </trkpt>
      <trkpt lat="47.46986" lon="-1.68356">
        <ele>63.567122</ele>
        <time>2022-12-15T16:21:13.652Z</time>
      </trkpt>
      <trkpt lat="47.46977" lon="-1.68342">
        <ele>63.739981</ele>
        <time>2022-12-15T16:21:16.651Z</time>
      </trkpt>
      <trkpt lat="47.46969" lon="-1.68328">
        <ele>63.544164</ele>
        <time>2022-12-15T16:21:19.638Z</time>
      </trkpt>
      <trkpt lat="47.4696" lon="-1.68314">
        <ele>63.321184</ele>
        <time>2022-12-15T16:21:22.640Z</time>
      </trkpt>
      <trkpt lat="47.46951" lon="-1.68303">
        <ele>63.12013</ele>
        <time>2022-12-15T16:21:25.645Z</time>
      </trkpt>
      <trkpt lat="47.46941" lon="-1.68292">
        <ele>62.902266</ele>
        <time>2022-12-15T16:21:28.629Z</time>
      </trkpt>
      <trkpt lat="47.46933" lon="-1.68281">
        <ele>62.703153</ele>
        <time>2022-12-15T16:21:31.639Z</time>
      </trkpt>
      <trkpt lat="47.46923" lon="-1.68269">
        <ele>62.489643</ele>
        <time>2022-12-15T16:21:34.644Z</time>
      </trkpt>
      <trkpt lat="47.46913" lon="-1.68259">
        <ele>62.278778</ele>
        <time>2022-12-15T16:21:37.638Z</time>
      </trkpt>
      <trkpt lat="47.46903" lon="-1.68247">
        <ele>62.048936</ele>
        <time>2022-12-15T16:21:40.650Z</time>
      </trkpt>
      <trkpt lat="47.46892" lon="-1.68236">
        <ele>61.823348</ele>
        <time>2022-12-15T16:21:43.630Z</time>
      </trkpt>
      <trkpt lat="47.46885" lon="-1.68225">
        <ele>61.642934</ele>
        <time>2022-12-15T16:21:45.643Z</time>
      </trkpt>
      <trkpt lat="47.46876" lon="-1.68217">
        <ele>61.460838</ele>
        <time>2022-12-15T16:21:47.643Z</time>
      </trkpt>
      <trkpt lat="47.46866" lon="-1.68209">
        <ele>61.270671</ele>
        <time>2022-12-15T16:21:49.637Z</time>
      </trkpt>
      <trkpt lat="47.46858" lon="-1.68201">
        <ele>61.097394</ele>
        <time>2022-12-15T16:21:51.635Z</time>
      </trkpt>
      <trkpt lat="47.46848" lon="-1.6819">
        <ele>60.883731</ele>
        <time>2022-12-15T16:21:54.636Z</time>
      </trkpt>
      <trkpt lat="47.46838" lon="-1.6818">
        <ele>60.671387</ele>
        <time>2022-12-15T16:21:57.646Z</time>
      </trkpt>
      <trkpt lat="47.46829" lon="-1.68168">
        <ele>60.59421</ele>
        <time>2022-12-15T16:22:00.647Z</time>
      </trkpt>
      <trkpt lat="47.46819" lon="-1.68158">
        <ele>60.56724</ele>
        <time>2022-12-15T16:22:03.627Z</time>
      </trkpt>
      <trkpt lat="47.46812" lon="-1.6815">
        <ele>60.546656</ele>
        <time>2022-12-15T16:22:05.651Z</time>
      </trkpt>
      <trkpt lat="47.46804" lon="-1.68142">
        <ele>60.52594</ele>
        <time>2022-12-15T16:22:07.639Z</time>
      </trkpt>
      <trkpt lat="47.46793" lon="-1.68131">
        <ele>60.497438</ele>
        <time>2022-12-15T16:22:10.632Z</time>
      </trkpt>
      <trkpt lat="47.46785" lon="-1.68123">
        <ele>60.475968</ele>
        <time>2022-12-15T16:22:12.631Z</time>
      </trkpt>
      <trkpt lat="47.46778" lon="-1.68115">
        <ele>60.455558</ele>
        <time>2022-12-15T16:22:14.635Z</time>
      </trkpt>
      <trkpt lat="47.46768" lon="-1.68102">
        <ele>60.427301</ele>
        <time>2022-12-15T16:22:17.638Z</time>
      </trkpt>
      <trkpt lat="47.46759" lon="-1.68091">
        <ele>60.401126</ele>
        <time>2022-12-15T16:22:20.645Z</time>
      </trkpt>
      <trkpt lat="47.4675" lon="-1.68082">
        <ele>60.376717</ele>
        <time>2022-12-15T16:22:23.636Z</time>
      </trkpt>
      <trkpt lat="47.46741" lon="-1.68071">
        <ele>60.351653</ele>
        <time>2022-12-15T16:22:26.634Z</time>
      </trkpt>
      <trkpt lat="47.46732" lon="-1.68061">
        <ele>60.326457</ele>
        <time>2022-12-15T16:22:29.632Z</time>
      </trkpt>
      <trkpt lat="47.46723" lon="-1.68051">
        <ele>60.301516</ele>
        <time>2022-12-15T16:22:32.649Z</time>
      </trkpt>
      <trkpt lat="47.46714" lon="-1.68041">
        <ele>60.276676</ele>
        <time>2022-12-15T16:22:35.645Z</time>
      </trkpt>
      <trkpt lat="47.46706" lon="-1.68031">
        <ele>60.253602</ele>
        <time>2022-12-15T16:22:38.639Z</time>
      </trkpt>
      <trkpt lat="47.46698" lon="-1.68022">
        <ele>60.232303</ele>
        <time>2022-12-15T16:22:41.630Z</time>
      </trkpt>
      <trkpt lat="47.46689" lon="-1.68014">
        <ele>60.14215</ele>
        <time>2022-12-15T16:22:44.628Z</time>
      </trkpt>
      <trkpt lat="47.46681" lon="-1.68007">
        <ele>59.920061</ele>
        <time>2022-12-15T16:22:47.637Z</time>
      </trkpt>
      <trkpt lat="47.46673" lon="-1.68001">
        <ele>59.712394</ele>
        <time>2022-12-15T16:22:50.642Z</time>
      </trkpt>
      <trkpt lat="47.46664" lon="-1.67992">
        <ele>59.469065</ele>
        <time>2022-12-15T16:22:54.638Z</time>
      </trkpt>
      <trkpt lat="47.46656" lon="-1.67984">
        <ele>59.261009</ele>
        <time>2022-12-15T16:22:58.626Z</time>
      </trkpt>
      <trkpt lat="47.46646" lon="-1.6798">
        <ele>59.02642</ele>
        <time>2022-12-15T16:23:02.638Z</time>
      </trkpt>
      <trkpt lat="47.46636" lon="-1.67973">
        <ele>58.784677</ele>
        <time>2022-12-15T16:23:06.644Z</time>
      </trkpt>
      <trkpt lat="47.46628" lon="-1.67967">
        <ele>58.579767</ele>
        <time>2022-12-15T16:23:10.648Z</time>
      </trkpt>
      <trkpt lat="47.46618" lon="-1.67964">
        <ele>58.359676</ele>
        <time>2022-12-15T16:23:15.636Z</time>
      </trkpt>
      <trkpt lat="47.46607" lon="-1.6796">
        <ele>58.102957</ele>
        <time>2022-12-15T16:23:20.628Z</time>
      </trkpt>
      <trkpt lat="47.46597" lon="-1.67958">
        <ele>57.872075</ele>
        <time>2022-12-15T16:23:25.631Z</time>
      </trkpt>
      <trkpt lat="47.46587" lon="-1.67955">
        <ele>57.651536</ele>
        <time>2022-12-15T16:23:30.630Z</time>
      </trkpt>
      <trkpt lat="47.46577" lon="-1.67955">
        <ele>57.411698</ele>
        <time>2022-12-15T16:23:35.647Z</time>
      </trkpt>
      <trkpt lat="47.46563" lon="-1.67954">
        <ele>57.100265</ele>
        <time>2022-12-15T16:23:38.643Z</time>
      </trkpt>
      <trkpt lat="47.46548" lon="-1.67954">
        <ele>56.770974</ele>
        <time>2022-12-15T16:23:41.649Z</time>
      </trkpt>
      <trkpt lat="47.46537" lon="-1.67953">
        <ele>56.531233</ele>
        <time>2022-12-15T16:23:43.634Z</time>
      </trkpt>
      <trkpt lat="47.46528" lon="-1.67954">
        <ele>56.318424</ele>
        <time>2022-12-15T16:23:45.643Z</time>
      </trkpt>
      <trkpt lat="47.46515" lon="-1.67956">
        <ele>56.154793</ele>
        <time>2022-12-15T16:23:48.639Z</time>
      </trkpt>
      <trkpt lat="47.46504" lon="-1.6796">
        <ele>56.102581</ele>
        <time>2022-12-15T16:23:51.631Z</time>
      </trkpt>
      <trkpt lat="47.46494" lon="-1.67963">
        <ele>56.055552</ele>
        <time>2022-12-15T16:23:54.638Z</time>
      </trkpt>
      <trkpt lat="47.46483" lon="-1.67966">
        <ele>55.999591</ele>
        <time>2022-12-15T16:23:57.630Z</time>
      </trkpt>
      <trkpt lat="47.4647" lon="-1.6797">
        <ele>55.940702</ele>
        <time>2022-12-15T16:24:00.638Z</time>
      </trkpt>
      <trkpt lat="47.46458" lon="-1.67973">
        <ele>55.881865</ele>
        <time>2022-12-15T16:24:03.637Z</time>
      </trkpt>
      <trkpt lat="47.46445" lon="-1.67975">
        <ele>55.823127</ele>
        <time>2022-12-15T16:24:06.629Z</time>
      </trkpt>
      <trkpt lat="47.46432" lon="-1.67979">
        <ele>55.759567</ele>
        <time>2022-12-15T16:24:09.625Z</time>
      </trkpt>
      <trkpt lat="47.46418" lon="-1.67982">
        <ele>55.692815</ele>
        <time>2022-12-15T16:24:12.637Z</time>
      </trkpt>
      <trkpt lat="47.46408" lon="-1.67984">
        <ele>55.646909</ele>
        <time>2022-12-15T16:24:14.630Z</time>
      </trkpt>
      <trkpt lat="47.46399" lon="-1.67986">
        <ele>55.602439</ele>
        <time>2022-12-15T16:24:16.641Z</time>
      </trkpt>
      <trkpt lat="47.46389" lon="-1.67988">
        <ele>55.555871</ele>
        <time>2022-12-15T16:24:18.628Z</time>
      </trkpt>
      <trkpt lat="47.4638" lon="-1.6799">
        <ele>55.513668</ele>
        <time>2022-12-15T16:24:20.631Z</time>
      </trkpt>
      <trkpt lat="47.46369" lon="-1.67993">
        <ele>55.459655</ele>
        <time>2022-12-15T16:24:23.634Z</time>
      </trkpt>
      <trkpt lat="47.46359" lon="-1.67995">
        <ele>55.413239</ele>
        <time>2022-12-15T16:24:26.648Z</time>
      </trkpt>
      <trkpt lat="47.4635" lon="-1.67997">
        <ele>55.369185</ele>
        <time>2022-12-15T16:24:29.626Z</time>
      </trkpt>
      <trkpt lat="47.4634" lon="-1.68">
        <ele>55.36573</ele>
        <time>2022-12-15T16:24:32.636Z</time>
      </trkpt>
      <trkpt lat="47.46328" lon="-1.68002">
        <ele>55.411773</ele>
        <time>2022-12-15T16:24:35.636Z</time>
      </trkpt>
      <trkpt lat="47.46317" lon="-1.68004">
        <ele>55.45877</ele>
        <time>2022-12-15T16:24:38.650Z</time>
      </trkpt>
      <trkpt lat="47.46305" lon="-1.68003">
        <ele>55.506042</ele>
        <time>2022-12-15T16:24:41.637Z</time>
      </trkpt>
      <trkpt lat="47.46293" lon="-1.68003">
        <ele>55.553276</ele>
        <time>2022-12-15T16:24:44.630Z</time>
      </trkpt>
      <trkpt lat="47.46281" lon="-1.68001">
        <ele>55.602245</ele>
        <time>2022-12-15T16:24:47.644Z</time>
      </trkpt>
      <trkpt lat="47.46268" lon="-1.68">
        <ele>55.65354</ele>
        <time>2022-12-15T16:24:50.650Z</time>
      </trkpt>
      <trkpt lat="47.46257" lon="-1.67998">
        <ele>55.697206</ele>
        <time>2022-12-15T16:24:53.637Z</time>
      </trkpt>
      <trkpt lat="47.46248" lon="-1.67994">
        <ele>55.737653</ele>
        <time>2022-12-15T16:24:56.632Z</time>
      </trkpt>
      <trkpt lat="47.46235" lon="-1.67989">
        <ele>55.788813</ele>
        <time>2022-12-15T16:24:59.647Z</time>
      </trkpt>
      <trkpt lat="47.46226" lon="-1.67986">
        <ele>55.825351</ele>
        <time>2022-12-15T16:25:01.634Z</time>
      </trkpt>
      <trkpt lat="47.46215" lon="-1.6798">
        <ele>55.874151</ele>
        <time>2022-12-15T16:25:04.633Z</time>
      </trkpt>
      <trkpt lat="47.46204" lon="-1.67972">
        <ele>55.920814</ele>
        <time>2022-12-15T16:25:07.639Z</time>
      </trkpt>
      <trkpt lat="47.46196" lon="-1.67964">
        <ele>55.962391</ele>
        <time>2022-12-15T16:25:10.631Z</time>
      </trkpt>
      <trkpt lat="47.46187" lon="-1.67956">
        <ele>56.004079</ele>
        <time>2022-12-15T16:25:14.644Z</time>
      </trkpt>
      <trkpt lat="47.46178" lon="-1.67949">
        <ele>56.04355</ele>
        <time>2022-12-15T16:25:17.640Z</time>
      </trkpt>
      <trkpt lat="47.46169" lon="-1.67939">
        <ele>56.165356</ele>
        <time>2022-12-15T16:25:20.640Z</time>
      </trkpt>
      <trkpt lat="47.4616" lon="-1.67929">
        <ele>56.377851</ele>
        <time>2022-12-15T16:25:23.637Z</time>
      </trkpt>
      <trkpt lat="47.46149" lon="-1.6792">
        <ele>56.598843</ele>
        <time>2022-12-15T16:25:26.643Z</time>
      </trkpt>
      <trkpt lat="47.46138" lon="-1.67909">
        <ele>56.84336</ele>
        <time>2022-12-15T16:25:29.643Z</time>
      </trkpt>
      <trkpt lat="47.46129" lon="-1.67903">
        <ele>57.031944</ele>
        <time>2022-12-15T16:25:31.629Z</time>
      </trkpt>
      <trkpt lat="47.4612" lon="-1.67897">
        <ele>57.211349</ele>
        <time>2022-12-15T16:25:33.647Z</time>
      </trkpt>
      <trkpt lat="47.46108" lon="-1.67887">
        <ele>57.455599</ele>
        <time>2022-12-15T16:25:36.632Z</time>
      </trkpt>
      <trkpt lat="47.461" lon="-1.6788">
        <ele>57.631952</ele>
        <time>2022-12-15T16:25:38.630Z</time>
      </trkpt>
      <trkpt lat="47.46089" lon="-1.67869">
        <ele>57.866441</ele>
        <time>2022-12-15T16:25:41.640Z</time>
      </trkpt>
      <trkpt lat="47.46079" lon="-1.67859">
        <ele>58.086769</ele>
        <time>2022-12-15T16:25:44.637Z</time>
      </trkpt>
      <trkpt lat="47.4607" lon="-1.67851">
        <ele>58.274673</ele>
        <time>2022-12-15T16:25:46.649Z</time>
      </trkpt>
      <trkpt lat="47.46062" lon="-1.67845">
        <ele>58.44502</ele>
        <time>2022-12-15T16:25:48.653Z</time>
      </trkpt>
      <trkpt lat="47.46054" lon="-1.67837">
        <ele>58.619756</ele>
        <time>2022-12-15T16:25:50.641Z</time>
      </trkpt>
      <trkpt lat="47.46043" lon="-1.67827">
        <ele>58.860542</ele>
        <time>2022-12-15T16:25:53.647Z</time>
      </trkpt>
      <trkpt lat="47.46033" lon="-1.67819">
        <ele>59.059765</ele>
        <time>2022-12-15T16:25:55.626Z</time>
      </trkpt>
      <trkpt lat="47.46021" lon="-1.67809">
        <ele>59.315403</ele>
        <time>2022-12-15T16:25:58.630Z</time>
      </trkpt>
      <trkpt lat="47.46012" lon="-1.67802">
        <ele>59.231402</ele>
        <time>2022-12-15T16:26:00.633Z</time>
      </trkpt>
      <trkpt lat="47.46003" lon="-1.67794">
        <ele>59.073524</ele>
        <time>2022-12-15T16:26:02.630Z</time>
      </trkpt>
      <trkpt lat="47.45991" lon="-1.67784">
        <ele>58.891604</ele>
        <time>2022-12-15T16:26:05.636Z</time>
      </trkpt>
      <trkpt lat="47.45981" lon="-1.67774">
        <ele>58.714771</ele>
        <time>2022-12-15T16:26:08.626Z</time>
      </trkpt>
      <trkpt lat="47.45971" lon="-1.67764">
        <ele>58.546626</ele>
        <time>2022-12-15T16:26:11.661Z</time>
      </trkpt>
      <trkpt lat="47.45964" lon="-1.67755">
        <ele>58.411076</ele>
        <time>2022-12-15T16:26:14.646Z</time>
      </trkpt>
      <trkpt lat="47.45957" lon="-1.67743">
        <ele>58.263227</ele>
        <time>2022-12-15T16:26:17.656Z</time>
      </trkpt>
      <trkpt lat="47.4595" lon="-1.67732">
        <ele>58.116845</ele>
        <time>2022-12-15T16:26:20.664Z</time>
      </trkpt>
      <trkpt lat="47.45942" lon="-1.67719">
        <ele>57.953765</ele>
        <time>2022-12-15T16:26:23.657Z</time>
      </trkpt>
      <trkpt lat="47.45935" lon="-1.67705">
        <ele>57.79178</ele>
        <time>2022-12-15T16:26:26.631Z</time>
      </trkpt>
      <trkpt lat="47.45927" lon="-1.6769">
        <ele>57.605984</ele>
        <time>2022-12-15T16:26:29.644Z</time>
      </trkpt>
      <trkpt lat="47.4592" lon="-1.67674">
        <ele>57.42909</ele>
        <time>2022-12-15T16:26:32.661Z</time>
      </trkpt>
      <trkpt lat="47.45914" lon="-1.6766">
        <ele>57.2726</ele>
        <time>2022-12-15T16:26:35.627Z</time>
      </trkpt>
      <trkpt lat="47.4591" lon="-1.67648">
        <ele>57.142468</ele>
        <time>2022-12-15T16:26:38.651Z</time>
      </trkpt>
      <trkpt lat="47.45905" lon="-1.67635">
        <ele>57.00111</ele>
        <time>2022-12-15T16:26:41.628Z</time>
      </trkpt>
      <trkpt lat="47.45902" lon="-1.67621">
        <ele>56.862346</ele>
        <time>2022-12-15T16:26:44.653Z</time>
      </trkpt>
      <trkpt lat="47.45898" lon="-1.67608">
        <ele>56.879235</ele>
        <time>2022-12-15T16:26:47.662Z</time>
      </trkpt>
      <trkpt lat="47.45894" lon="-1.67593">
        <ele>56.980207</ele>
        <time>2022-12-15T16:26:50.633Z</time>
      </trkpt>
      <trkpt lat="47.45889" lon="-1.67577">
        <ele>57.090388</ele>
        <time>2022-12-15T16:26:53.632Z</time>
      </trkpt>
      <trkpt lat="47.45885" lon="-1.67561">
        <ele>57.196978</ele>
        <time>2022-12-15T16:26:56.638Z</time>
      </trkpt>
      <trkpt lat="47.45881" lon="-1.67549">
        <ele>57.28342</ele>
        <time>2022-12-15T16:26:58.658Z</time>
      </trkpt>
      <trkpt lat="47.45876" lon="-1.67532">
        <ele>57.401224</ele>
        <time>2022-12-15T16:27:01.641Z</time>
      </trkpt>
      <trkpt lat="47.45871" lon="-1.67515">
        <ele>57.515928</ele>
        <time>2022-12-15T16:27:04.648Z</time>
      </trkpt>
      <trkpt lat="47.45867" lon="-1.67498">
        <ele>57.630974</ele>
        <time>2022-12-15T16:27:07.655Z</time>
      </trkpt>
      <trkpt lat="47.45862" lon="-1.6748">
        <ele>57.749629</ele>
        <time>2022-12-15T16:27:10.631Z</time>
      </trkpt>
      <trkpt lat="47.45857" lon="-1.67464">
        <ele>57.861333</ele>
        <time>2022-12-15T16:27:13.649Z</time>
      </trkpt>
      <trkpt lat="47.45853" lon="-1.67447">
        <ele>57.973553</ele>
        <time>2022-12-15T16:27:16.659Z</time>
      </trkpt>
      <trkpt lat="47.45848" lon="-1.67429">
        <ele>58.094657</ele>
        <time>2022-12-15T16:27:19.642Z</time>
      </trkpt>
      <trkpt lat="47.45844" lon="-1.67417">
        <ele>58.180195</ele>
        <time>2022-12-15T16:27:21.647Z</time>
      </trkpt>
      <trkpt lat="47.45839" lon="-1.674">
        <ele>58.296885</ele>
        <time>2022-12-15T16:27:24.628Z</time>
      </trkpt>
      <trkpt lat="47.45835" lon="-1.67383">
        <ele>58.409253</ele>
        <time>2022-12-15T16:27:27.641Z</time>
      </trkpt>
      <trkpt lat="47.45831" lon="-1.67367">
        <ele>58.453635</ele>
        <time>2022-12-15T16:27:30.645Z</time>
      </trkpt>
      <trkpt lat="47.45827" lon="-1.6735">
        <ele>58.303412</ele>
        <time>2022-12-15T16:27:33.644Z</time>
      </trkpt>
      <trkpt lat="47.45823" lon="-1.67333">
        <ele>58.151976</ele>
        <time>2022-12-15T16:27:36.650Z</time>
      </trkpt>
      <trkpt lat="47.45819" lon="-1.67315">
        <ele>57.992641</ele>
        <time>2022-12-15T16:27:39.651Z</time>
      </trkpt>
      <trkpt lat="47.45814" lon="-1.67297">
        <ele>57.836506</ele>
        <time>2022-12-15T16:27:42.635Z</time>
      </trkpt>
      <trkpt lat="47.45811" lon="-1.6728">
        <ele>57.683444</ele>
        <time>2022-12-15T16:27:45.637Z</time>
      </trkpt>
      <trkpt lat="47.45806" lon="-1.67262">
        <ele>57.528663</ele>
        <time>2022-12-15T16:27:48.636Z</time>
      </trkpt>
      <trkpt lat="47.45801" lon="-1.67249">
        <ele>57.401403</ele>
        <time>2022-12-15T16:27:50.651Z</time>
      </trkpt>
      <trkpt lat="47.45798" lon="-1.67236">
        <ele>57.286507</ele>
        <time>2022-12-15T16:27:52.648Z</time>
      </trkpt>
      <trkpt lat="47.45793" lon="-1.6722">
        <ele>57.138522</ele>
        <time>2022-12-15T16:27:55.632Z</time>
      </trkpt>
      <trkpt lat="47.45788" lon="-1.67203">
        <ele>56.983081</ele>
        <time>2022-12-15T16:27:58.626Z</time>
      </trkpt>
      <trkpt lat="47.45784" lon="-1.67184">
        <ele>56.820652</ele>
        <time>2022-12-15T16:28:01.654Z</time>
      </trkpt>
      <trkpt lat="47.45779" lon="-1.67166">
        <ele>56.657114</ele>
        <time>2022-12-15T16:28:04.662Z</time>
      </trkpt>
      <trkpt lat="47.45774" lon="-1.67154">
        <ele>56.538799</ele>
        <time>2022-12-15T16:28:06.657Z</time>
      </trkpt>
      <trkpt lat="47.4577" lon="-1.67142">
        <ele>56.42342</ele>
        <time>2022-12-15T16:28:08.645Z</time>
      </trkpt>
      <trkpt lat="47.45764" lon="-1.67125">
        <ele>56.272594</ele>
        <time>2022-12-15T16:28:11.659Z</time>
      </trkpt>
      <trkpt lat="47.45757" lon="-1.67109">
        <ele>56.342822</ele>
        <time>2022-12-15T16:28:14.644Z</time>
      </trkpt>
      <trkpt lat="47.45751" lon="-1.67096">
        <ele>56.398363</ele>
        <time>2022-12-15T16:28:16.637Z</time>
      </trkpt>
      <trkpt lat="47.45744" lon="-1.6708">
        <ele>56.469213</ele>
        <time>2022-12-15T16:28:19.642Z</time>
      </trkpt>
      <trkpt lat="47.45739" lon="-1.67068">
        <ele>56.518642</ele>
        <time>2022-12-15T16:28:21.641Z</time>
      </trkpt>
      <trkpt lat="47.45732" lon="-1.67054">
        <ele>56.581635</ele>
        <time>2022-12-15T16:28:24.639Z</time>
      </trkpt>
      <trkpt lat="47.45726" lon="-1.67042">
        <ele>56.63839</ele>
        <time>2022-12-15T16:28:27.631Z</time>
      </trkpt>
      <trkpt lat="47.45719" lon="-1.67029">
        <ele>56.695291</ele>
        <time>2022-12-15T16:28:30.654Z</time>
      </trkpt>
      <trkpt lat="47.45713" lon="-1.67018">
        <ele>56.74966</ele>
        <time>2022-12-15T16:28:33.655Z</time>
      </trkpt>
      <trkpt lat="47.45705" lon="-1.67005">
        <ele>56.812983</ele>
        <time>2022-12-15T16:28:36.646Z</time>
      </trkpt>
      <trkpt lat="47.45698" lon="-1.66994">
        <ele>56.868109</ele>
        <time>2022-12-15T16:28:38.629Z</time>
      </trkpt>
      <trkpt lat="47.4569" lon="-1.6698">
        <ele>56.933058</ele>
        <time>2022-12-15T16:28:41.648Z</time>
      </trkpt>
      <trkpt lat="47.45681" lon="-1.66967">
        <ele>57.001005</ele>
        <time>2022-12-15T16:28:44.633Z</time>
      </trkpt>
      <trkpt lat="47.45673" lon="-1.66954">
        <ele>57.064959</ele>
        <time>2022-12-15T16:28:47.629Z</time>
      </trkpt>
      <trkpt lat="47.45664" lon="-1.6694">
        <ele>57.135771</ele>
        <time>2022-12-15T16:28:50.629Z</time>
      </trkpt>
      <trkpt lat="47.45658" lon="-1.66929">
        <ele>57.189005</ele>
        <time>2022-12-15T16:28:52.658Z</time>
      </trkpt>
      <trkpt lat="47.4565" lon="-1.66918">
        <ele>57.230421</ele>
        <time>2022-12-15T16:28:54.661Z</time>
      </trkpt>
      <trkpt lat="47.45641" lon="-1.66904">
        <ele>57.156121</ele>
        <time>2022-12-15T16:28:57.649Z</time>
      </trkpt>
      <trkpt lat="47.45633" lon="-1.66889">
        <ele>57.082924</ele>
        <time>2022-12-15T16:29:00.637Z</time>
      </trkpt>
      <trkpt lat="47.45625" lon="-1.66875">
        <ele>57.01068</ele>
        <time>2022-12-15T16:29:03.649Z</time>
      </trkpt>
      <trkpt lat="47.45617" lon="-1.66863">
        <ele>56.948639</ele>
        <time>2022-12-15T16:29:06.648Z</time>
      </trkpt>
      <trkpt lat="47.4561" lon="-1.66851">
        <ele>56.888401</ele>
        <time>2022-12-15T16:29:09.630Z</time>
      </trkpt>
      <trkpt lat="47.45603" lon="-1.66839">
        <ele>56.825975</ele>
        <time>2022-12-15T16:29:12.640Z</time>
      </trkpt>
      <trkpt lat="47.45594" lon="-1.66826">
        <ele>56.755512</ele>
        <time>2022-12-15T16:29:15.630Z</time>
      </trkpt>
      <trkpt lat="47.45587" lon="-1.66815">
        <ele>56.695848</ele>
        <time>2022-12-15T16:29:18.633Z</time>
      </trkpt>
      <trkpt lat="47.4558" lon="-1.66805">
        <ele>56.643802</ele>
        <time>2022-12-15T16:29:21.657Z</time>
      </trkpt>
      <trkpt lat="47.45573" lon="-1.66795">
        <ele>56.588009</ele>
        <time>2022-12-15T16:29:24.657Z</time>
      </trkpt>
      <trkpt lat="47.45566" lon="-1.66782">
        <ele>56.525726</ele>
        <time>2022-12-15T16:29:27.640Z</time>
      </trkpt>
      <trkpt lat="47.4556" lon="-1.66772">
        <ele>56.469763</ele>
        <time>2022-12-15T16:29:30.631Z</time>
      </trkpt>
      <trkpt lat="47.45552" lon="-1.6676">
        <ele>56.40561</ele>
        <time>2022-12-15T16:29:33.634Z</time>
      </trkpt>
      <trkpt lat="47.45543" lon="-1.66746">
        <ele>56.334641</ele>
        <time>2022-12-15T16:29:36.637Z</time>
      </trkpt>
      <trkpt lat="47.45536" lon="-1.66734">
        <ele>56.270488</ele>
        <time>2022-12-15T16:29:39.633Z</time>
      </trkpt>
      <trkpt lat="47.45528" lon="-1.66722">
        <ele>56.23755</ele>
        <time>2022-12-15T16:29:43.656Z</time>
      </trkpt>
      <trkpt lat="47.45522" lon="-1.66712">
        <ele>56.325373</ele>
        <time>2022-12-15T16:29:46.629Z</time>
      </trkpt>
      <trkpt lat="47.45516" lon="-1.66702">
        <ele>56.414481</ele>
        <time>2022-12-15T16:29:49.646Z</time>
      </trkpt>
      <trkpt lat="47.4551" lon="-1.66688">
        <ele>56.517689</ele>
        <time>2022-12-15T16:29:53.638Z</time>
      </trkpt>
      <trkpt lat="47.45505" lon="-1.66676">
        <ele>56.608761</ele>
        <time>2022-12-15T16:29:57.659Z</time>
      </trkpt>
      <trkpt lat="47.455" lon="-1.66665">
        <ele>56.70422</ele>
        <time>2022-12-15T16:30:01.659Z</time>
      </trkpt>
      <trkpt lat="47.45492" lon="-1.66651">
        <ele>56.822569</ele>
        <time>2022-12-15T16:30:05.643Z</time>
      </trkpt>
      <trkpt lat="47.45483" lon="-1.66638">
        <ele>56.943428</ele>
        <time>2022-12-15T16:30:09.650Z</time>
      </trkpt>
      <trkpt lat="47.45476" lon="-1.66626">
        <ele>57.04771</ele>
        <time>2022-12-15T16:30:12.657Z</time>
      </trkpt>
      <trkpt lat="47.45468" lon="-1.66615">
        <ele>57.154201</ele>
        <time>2022-12-15T16:30:15.634Z</time>
      </trkpt>
      <trkpt lat="47.4546" lon="-1.66602">
        <ele>57.267581</ele>
        <time>2022-12-15T16:30:18.630Z</time>
      </trkpt>
      <trkpt lat="47.45452" lon="-1.66588">
        <ele>57.39125</ele>
        <time>2022-12-15T16:30:21.637Z</time>
      </trkpt>
      <trkpt lat="47.45443" lon="-1.66576">
        <ele>57.511135</ele>
        <time>2022-12-15T16:30:24.660Z</time>
      </trkpt>
      <trkpt lat="47.45435" lon="-1.66562">
        <ele>57.627774</ele>
        <time>2022-12-15T16:30:27.661Z</time>
      </trkpt>
      <trkpt lat="47.45427" lon="-1.66551">
        <ele>57.735678</ele>
        <time>2022-12-15T16:30:30.641Z</time>
      </trkpt>
      <trkpt lat="47.4542" lon="-1.66538">
        <ele>57.839712</ele>
        <time>2022-12-15T16:30:33.662Z</time>
      </trkpt>
      <trkpt lat="47.45412" lon="-1.66526">
        <ele>57.951816</ele>
        <time>2022-12-15T16:30:37.647Z</time>
      </trkpt>
      <trkpt lat="47.45405" lon="-1.66516">
        <ele>58.142972</ele>
        <time>2022-12-15T16:30:40.637Z</time>
      </trkpt>
      <trkpt lat="47.45397" lon="-1.66503">
        <ele>58.406788</ele>
        <time>2022-12-15T16:30:43.633Z</time>
      </trkpt>
      <trkpt lat="47.45388" lon="-1.6649">
        <ele>58.678822</ele>
        <time>2022-12-15T16:30:46.658Z</time>
      </trkpt>
      <trkpt lat="47.45379" lon="-1.66476">
        <ele>58.954851</ele>
        <time>2022-12-15T16:30:49.635Z</time>
      </trkpt>
      <trkpt lat="47.45371" lon="-1.66463">
        <ele>59.218863</ele>
        <time>2022-12-15T16:30:52.636Z</time>
      </trkpt>
      <trkpt lat="47.45362" lon="-1.6645">
        <ele>59.491893</ele>
        <time>2022-12-15T16:30:55.645Z</time>
      </trkpt>
      <trkpt lat="47.45354" lon="-1.66435">
        <ele>59.773642</ele>
        <time>2022-12-15T16:30:58.630Z</time>
      </trkpt>
      <trkpt lat="47.45344" lon="-1.66421">
        <ele>60.062328</ele>
        <time>2022-12-15T16:31:01.643Z</time>
      </trkpt>
      <trkpt lat="47.45338" lon="-1.66411">
        <ele>60.266843</ele>
        <time>2022-12-15T16:31:03.634Z</time>
      </trkpt>
      <trkpt lat="47.45331" lon="-1.664">
        <ele>60.482813</ele>
        <time>2022-12-15T16:31:05.634Z</time>
      </trkpt>
      <trkpt lat="47.45323" lon="-1.66386">
        <ele>60.758769</ele>
        <time>2022-12-15T16:31:08.652Z</time>
      </trkpt>
      <trkpt lat="47.45315" lon="-1.66373">
        <ele>61.008268</ele>
        <time>2022-12-15T16:31:11.652Z</time>
      </trkpt>
      <trkpt lat="47.45306" lon="-1.66359">
        <ele>61.292703</ele>
        <time>2022-12-15T16:31:14.630Z</time>
      </trkpt>
      <trkpt lat="47.45297" lon="-1.66345">
        <ele>61.57301</ele>
        <time>2022-12-15T16:31:17.650Z</time>
      </trkpt>
      <trkpt lat="47.45288" lon="-1.66331">
        <ele>61.859565</ele>
        <time>2022-12-15T16:31:20.644Z</time>
      </trkpt>
      <trkpt lat="47.4528" lon="-1.66318">
        <ele>61.690984</ele>
        <time>2022-12-15T16:31:23.645Z</time>
      </trkpt>
      <trkpt lat="47.45272" lon="-1.66305">
        <ele>61.505212</ele>
        <time>2022-12-15T16:31:26.639Z</time>
      </trkpt>
      <trkpt lat="47.45263" lon="-1.66291">
        <ele>61.309517</ele>
        <time>2022-12-15T16:31:29.641Z</time>
      </trkpt>
      <trkpt lat="47.45257" lon="-1.66281">
        <ele>61.171572</ele>
        <time>2022-12-15T16:31:31.662Z</time>
      </trkpt>
      <trkpt lat="47.45248" lon="-1.66267">
        <ele>60.982515</ele>
        <time>2022-12-15T16:31:34.641Z</time>
      </trkpt>
      <trkpt lat="47.45241" lon="-1.66257">
        <ele>60.831048</ele>
        <time>2022-12-15T16:31:37.631Z</time>
      </trkpt>
      <trkpt lat="47.45235" lon="-1.66246">
        <ele>60.681472</ele>
        <time>2022-12-15T16:31:40.657Z</time>
      </trkpt>
      <trkpt lat="47.45228" lon="-1.66235">
        <ele>60.532131</ele>
        <time>2022-12-15T16:31:43.643Z</time>
      </trkpt>
      <trkpt lat="47.45222" lon="-1.66223">
        <ele>60.37987</ele>
        <time>2022-12-15T16:31:46.634Z</time>
      </trkpt>
      <trkpt lat="47.45214" lon="-1.6621">
        <ele>60.197645</ele>
        <time>2022-12-15T16:31:49.652Z</time>
      </trkpt>
      <trkpt lat="47.45205" lon="-1.66196">
        <ele>60.007067</ele>
        <time>2022-12-15T16:31:52.648Z</time>
      </trkpt>
      <trkpt lat="47.45197" lon="-1.66182">
        <ele>59.814192</ele>
        <time>2022-12-15T16:31:55.631Z</time>
      </trkpt>
      <trkpt lat="47.45189" lon="-1.66167">
        <ele>59.614462</ele>
        <time>2022-12-15T16:31:58.643Z</time>
      </trkpt>
      <trkpt lat="47.45182" lon="-1.66152">
        <ele>59.434079</ele>
        <time>2022-12-15T16:32:01.643Z</time>
      </trkpt>
      <trkpt lat="47.45176" lon="-1.66138">
        <ele>59.26047</ele>
        <time>2022-12-15T16:32:04.644Z</time>
      </trkpt>
      <trkpt lat="47.45168" lon="-1.66122">
        <ele>59.205234</ele>
        <time>2022-12-15T16:32:07.646Z</time>
      </trkpt>
      <trkpt lat="47.45163" lon="-1.66108">
        <ele>59.330824</ele>
        <time>2022-12-15T16:32:10.660Z</time>
      </trkpt>
      <trkpt lat="47.45159" lon="-1.66094">
        <ele>59.44414</ele>
        <time>2022-12-15T16:32:13.630Z</time>
      </trkpt>
      <trkpt lat="47.45154" lon="-1.66079">
        <ele>59.571547</ele>
        <time>2022-12-15T16:32:17.641Z</time>
      </trkpt>
      <trkpt lat="47.4515" lon="-1.66062">
        <ele>59.707796</ele>
        <time>2022-12-15T16:32:21.638Z</time>
      </trkpt>
      <trkpt lat="47.45147" lon="-1.66048">
        <ele>59.81838</ele>
        <time>2022-12-15T16:32:24.645Z</time>
      </trkpt>
      <trkpt lat="47.45144" lon="-1.66033">
        <ele>59.93976</ele>
        <time>2022-12-15T16:32:27.632Z</time>
      </trkpt>
      <trkpt lat="47.45141" lon="-1.66017">
        <ele>60.063111</ele>
        <time>2022-12-15T16:32:30.655Z</time>
      </trkpt>
      <trkpt lat="47.45138" lon="-1.66001">
        <ele>60.18736</ele>
        <time>2022-12-15T16:32:33.663Z</time>
      </trkpt>
      <trkpt lat="47.45136" lon="-1.65987">
        <ele>60.300038</ele>
        <time>2022-12-15T16:32:36.645Z</time>
      </trkpt>
      <trkpt lat="47.45134" lon="-1.65973">
        <ele>60.406033</ele>
        <time>2022-12-15T16:32:39.640Z</time>
      </trkpt>
      <trkpt lat="47.45131" lon="-1.65958">
        <ele>60.519401</ele>
        <time>2022-12-15T16:32:43.649Z</time>
      </trkpt>
      <trkpt lat="47.4513" lon="-1.65945">
        <ele>60.623912</ele>
        <time>2022-12-15T16:32:48.648Z</time>
      </trkpt>
      <trkpt lat="47.4512" lon="-1.65942">
        <ele>60.730136</ele>
        <time>2022-12-15T16:33:13.659Z</time>
      </trkpt>
      <trkpt lat="47.4511" lon="-1.65944">
        <ele>60.84527</ele>
        <time>2022-12-15T16:33:33.636Z</time>
      </trkpt>
      <trkpt lat="47.45104" lon="-1.6593">
        <ele>60.969654</ele>
        <time>2022-12-15T16:33:39.659Z</time>
      </trkpt>
      <trkpt lat="47.45101" lon="-1.65912">
        <ele>61.111615</ele>
        <time>2022-12-15T16:33:42.651Z</time>
      </trkpt>
      <trkpt lat="47.45099" lon="-1.65897">
        <ele>61.223523</ele>
        <time>2022-12-15T16:33:44.650Z</time>
      </trkpt>
      <trkpt lat="47.45097" lon="-1.65882">
        <ele>61.324687</ele>
        <time>2022-12-15T16:33:46.648Z</time>
      </trkpt>
      <trkpt lat="47.45095" lon="-1.65869">
        <ele>61.421767</ele>
        <time>2022-12-15T16:33:48.649Z</time>
      </trkpt>
      <trkpt lat="47.45092" lon="-1.6585">
        <ele>61.552726</ele>
        <time>2022-12-15T16:33:51.658Z</time>
      </trkpt>
      <trkpt lat="47.45089" lon="-1.65834">
        <ele>61.671459</ele>
        <time>2022-12-15T16:33:54.643Z</time>
      </trkpt>
      <trkpt lat="47.45087" lon="-1.65817">
        <ele>61.789699</ele>
        <time>2022-12-15T16:33:57.644Z</time>
      </trkpt>
      <trkpt lat="47.45085" lon="-1.65801">
        <ele>61.906178</ele>
        <time>2022-12-15T16:34:00.656Z</time>
      </trkpt>
      <trkpt lat="47.45082" lon="-1.65783">
        <ele>62.031351</ele>
        <time>2022-12-15T16:34:03.659Z</time>
      </trkpt>
      <trkpt lat="47.45079" lon="-1.65765">
        <ele>62.161636</ele>
        <time>2022-12-15T16:34:06.641Z</time>
      </trkpt>
      <trkpt lat="47.45076" lon="-1.65747">
        <ele>62.290326</ele>
        <time>2022-12-15T16:34:09.643Z</time>
      </trkpt>
      <trkpt lat="47.45073" lon="-1.65729">
        <ele>62.416075</ele>
        <time>2022-12-15T16:34:12.638Z</time>
      </trkpt>
      <trkpt lat="47.4507" lon="-1.65711">
        <ele>62.545537</ele>
        <time>2022-12-15T16:34:15.640Z</time>
      </trkpt>
      <trkpt lat="47.45067" lon="-1.65693">
        <ele>62.67895</ele>
        <time>2022-12-15T16:34:18.643Z</time>
      </trkpt>
      <trkpt lat="47.45063" lon="-1.65675">
        <ele>62.809252</ele>
        <time>2022-12-15T16:34:21.635Z</time>
      </trkpt>
      <trkpt lat="47.4506" lon="-1.65656">
        <ele>62.943341</ele>
        <time>2022-12-15T16:34:24.635Z</time>
      </trkpt>
      <trkpt lat="47.45057" lon="-1.65637">
        <ele>63.073102</ele>
        <time>2022-12-15T16:34:27.661Z</time>
      </trkpt>
      <trkpt lat="47.45054" lon="-1.65619">
        <ele>63.199981</ele>
        <time>2022-12-15T16:34:30.668Z</time>
      </trkpt>
      <trkpt lat="47.45052" lon="-1.65603">
        <ele>63.314764</ele>
        <time>2022-12-15T16:34:33.635Z</time>
      </trkpt>
      <trkpt lat="47.45049" lon="-1.65585">
        <ele>63.436135</ele>
        <time>2022-12-15T16:34:36.637Z</time>
      </trkpt>
      <trkpt lat="47.45047" lon="-1.65568">
        <ele>63.554861</ele>
        <time>2022-12-15T16:34:39.653Z</time>
      </trkpt>
      <trkpt lat="47.45044" lon="-1.65551">
        <ele>63.670724</ele>
        <time>2022-12-15T16:34:42.633Z</time>
      </trkpt>
      <trkpt lat="47.45041" lon="-1.65535">
        <ele>63.786207</ele>
        <time>2022-12-15T16:34:45.656Z</time>
      </trkpt>
      <trkpt lat="47.45039" lon="-1.65518">
        <ele>63.901459</ele>
        <time>2022-12-15T16:34:48.635Z</time>
      </trkpt>
      <trkpt lat="47.45037" lon="-1.65501">
        <ele>64.016661</ele>
        <time>2022-12-15T16:34:51.637Z</time>
      </trkpt>
      <trkpt lat="47.45034" lon="-1.65485">
        <ele>64.130439</ele>
        <time>2022-12-15T16:34:54.660Z</time>
      </trkpt>
      <trkpt lat="47.45031" lon="-1.65471">
        <ele>64.232508</ele>
        <time>2022-12-15T16:34:57.646Z</time>
      </trkpt>
      <trkpt lat="47.45028" lon="-1.65455">
        <ele>64.346287</ele>
        <time>2022-12-15T16:35:00.661Z</time>
      </trkpt>
      <trkpt lat="47.45025" lon="-1.65438">
        <ele>64.464903</ele>
        <time>2022-12-15T16:35:03.640Z</time>
      </trkpt>
      <trkpt lat="47.45022" lon="-1.65421">
        <ele>64.585228</ele>
        <time>2022-12-15T16:35:06.638Z</time>
      </trkpt>
      <trkpt lat="47.45019" lon="-1.65403">
        <ele>64.705499</ele>
        <time>2022-12-15T16:35:09.631Z</time>
      </trkpt>
      <trkpt lat="47.45016" lon="-1.65385">
        <ele>64.812851</ele>
        <time>2022-12-15T16:35:12.650Z</time>
      </trkpt>
      <trkpt lat="47.45014" lon="-1.65368">
        <ele>64.83506</ele>
        <time>2022-12-15T16:35:15.630Z</time>
      </trkpt>
      <trkpt lat="47.45011" lon="-1.65351">
        <ele>64.857406</ele>
        <time>2022-12-15T16:35:18.640Z</time>
      </trkpt>
      <trkpt lat="47.45008" lon="-1.65334">
        <ele>64.878717</ele>
        <time>2022-12-15T16:35:21.637Z</time>
      </trkpt>
      <trkpt lat="47.45006" lon="-1.65316">
        <ele>64.902085</ele>
        <time>2022-12-15T16:35:24.636Z</time>
      </trkpt>
      <trkpt lat="47.45004" lon="-1.65298">
        <ele>64.925481</ele>
        <time>2022-12-15T16:35:27.638Z</time>
      </trkpt>
      <trkpt lat="47.45002" lon="-1.65279">
        <ele>64.948972</ele>
        <time>2022-12-15T16:35:30.629Z</time>
      </trkpt>
      <trkpt lat="47.45001" lon="-1.65261">
        <ele>64.972262</ele>
        <time>2022-12-15T16:35:33.632Z</time>
      </trkpt>
      <trkpt lat="47.44999" lon="-1.65242">
        <ele>64.996322</ele>
        <time>2022-12-15T16:35:36.642Z</time>
      </trkpt>
      <trkpt lat="47.44997" lon="-1.65223">
        <ele>65.020587</ele>
        <time>2022-12-15T16:35:39.648Z</time>
      </trkpt>
      <trkpt lat="47.44996" lon="-1.65203">
        <ele>65.044726</ele>
        <time>2022-12-15T16:35:42.660Z</time>
      </trkpt>
      <trkpt lat="47.44995" lon="-1.65184">
        <ele>65.069653</ele>
        <time>2022-12-15T16:35:45.660Z</time>
      </trkpt>
      <trkpt lat="47.44993" lon="-1.65164">
        <ele>65.093984</ele>
        <time>2022-12-15T16:35:48.650Z</time>
      </trkpt>
      <trkpt lat="47.44993" lon="-1.6515">
        <ele>65.112062</ele>
        <time>2022-12-15T16:35:50.641Z</time>
      </trkpt>
      <trkpt lat="47.44993" lon="-1.65137">
        <ele>65.128825</ele>
        <time>2022-12-15T16:35:52.647Z</time>
      </trkpt>
      <trkpt lat="47.44992" lon="-1.65123">
        <ele>65.143179</ele>
        <time>2022-12-15T16:35:54.654Z</time>
      </trkpt>
      <trkpt lat="47.44991" lon="-1.65109">
        <ele>65.143874</ele>
        <time>2022-12-15T16:35:56.649Z</time>
      </trkpt>
      <trkpt lat="47.44991" lon="-1.65095">
        <ele>65.144577</ele>
        <time>2022-12-15T16:35:58.664Z</time>
      </trkpt>
      <trkpt lat="47.44991" lon="-1.65081">
        <ele>65.145275</ele>
        <time>2022-12-15T16:36:00.646Z</time>
      </trkpt>
      <trkpt lat="47.44991" lon="-1.65062">
        <ele>65.146215</ele>
        <time>2022-12-15T16:36:03.634Z</time>
      </trkpt>
      <trkpt lat="47.4499" lon="-1.65049">
        <ele>65.146881</ele>
        <time>2022-12-15T16:36:05.641Z</time>
      </trkpt>
      <trkpt lat="47.44989" lon="-1.65029">
        <ele>65.147864</ele>
        <time>2022-12-15T16:36:08.645Z</time>
      </trkpt>
      <trkpt lat="47.44989" lon="-1.65015">
        <ele>65.148562</ele>
        <time>2022-12-15T16:36:10.643Z</time>
      </trkpt>
      <trkpt lat="47.44988" lon="-1.65001">
        <ele>65.149256</ele>
        <time>2022-12-15T16:36:12.663Z</time>
      </trkpt>
      <trkpt lat="47.44987" lon="-1.64981">
        <ele>65.150229</ele>
        <time>2022-12-15T16:36:15.661Z</time>
      </trkpt>
      <trkpt lat="47.44986" lon="-1.64963">
        <ele>65.151149</ele>
        <time>2022-12-15T16:36:18.660Z</time>
      </trkpt>
      <trkpt lat="47.44985" lon="-1.64943">
        <ele>65.152097</ele>
        <time>2022-12-15T16:36:21.661Z</time>
      </trkpt>
      <trkpt lat="47.44984" lon="-1.64924">
        <ele>65.153049</ele>
        <time>2022-12-15T16:36:24.653Z</time>
      </trkpt>
      <trkpt lat="47.44984" lon="-1.64906">
        <ele>65.153941</ele>
        <time>2022-12-15T16:36:27.662Z</time>
      </trkpt>
      <trkpt lat="47.44983" lon="-1.64888">
        <ele>65.154843</ele>
        <time>2022-12-15T16:36:30.641Z</time>
      </trkpt>
      <trkpt lat="47.44981" lon="-1.64872">
        <ele>65.15565</ele>
        <time>2022-12-15T16:36:33.643Z</time>
      </trkpt>
      <trkpt lat="47.4498" lon="-1.64855">
        <ele>65.157281</ele>
        <time>2022-12-15T16:36:36.655Z</time>
      </trkpt>
      <trkpt lat="47.44979" lon="-1.64838">
        <ele>65.160659</ele>
        <time>2022-12-15T16:36:39.643Z</time>
      </trkpt>
      <trkpt lat="47.44978" lon="-1.64821">
        <ele>65.164059</ele>
        <time>2022-12-15T16:36:42.638Z</time>
      </trkpt>
      <trkpt lat="47.44977" lon="-1.64805">
        <ele>65.167267</ele>
        <time>2022-12-15T16:36:45.663Z</time>
      </trkpt>
      <trkpt lat="47.44976" lon="-1.64787">
        <ele>65.170737</ele>
        <time>2022-12-15T16:36:48.638Z</time>
      </trkpt>
      <trkpt lat="47.44975" lon="-1.64769">
        <ele>65.174315</ele>
        <time>2022-12-15T16:36:51.631Z</time>
      </trkpt>
      <trkpt lat="47.44974" lon="-1.64752">
        <ele>65.17768</ele>
        <time>2022-12-15T16:36:54.654Z</time>
      </trkpt>
      <trkpt lat="47.44973" lon="-1.64734">
        <ele>65.181353</ele>
        <time>2022-12-15T16:36:57.644Z</time>
      </trkpt>
      <trkpt lat="47.44972" lon="-1.64716">
        <ele>65.185006</ele>
        <time>2022-12-15T16:37:00.638Z</time>
      </trkpt>
      <trkpt lat="47.44972" lon="-1.64698">
        <ele>65.188577</ele>
        <time>2022-12-15T16:37:03.630Z</time>
      </trkpt>
      <trkpt lat="47.44971" lon="-1.64679">
        <ele>65.192278</ele>
        <time>2022-12-15T16:37:06.654Z</time>
      </trkpt>
      <trkpt lat="47.4497" lon="-1.6466">
        <ele>65.196129</ele>
        <time>2022-12-15T16:37:09.634Z</time>
      </trkpt>
      <trkpt lat="47.4497" lon="-1.64645">
        <ele>65.198925</ele>
        <time>2022-12-15T16:37:11.639Z</time>
      </trkpt>
      <trkpt lat="47.4497" lon="-1.64632">
        <ele>65.201602</ele>
        <time>2022-12-15T16:37:13.645Z</time>
      </trkpt>
      <trkpt lat="47.44969" lon="-1.64618">
        <ele>65.204323</ele>
        <time>2022-12-15T16:37:15.649Z</time>
      </trkpt>
      <trkpt lat="47.44968" lon="-1.64605">
        <ele>65.20699</ele>
        <time>2022-12-15T16:37:17.657Z</time>
      </trkpt>
      <trkpt lat="47.44967" lon="-1.64585">
        <ele>65.294052</ele>
        <time>2022-12-15T16:37:20.646Z</time>
      </trkpt>
      <trkpt lat="47.44967" lon="-1.64568">
        <ele>65.446862</ele>
        <time>2022-12-15T16:37:23.638Z</time>
      </trkpt>
      <trkpt lat="47.44966" lon="-1.64554">
        <ele>65.57859</ele>
        <time>2022-12-15T16:37:26.650Z</time>
      </trkpt>
      <trkpt lat="47.44965" lon="-1.64539">
        <ele>65.715092</ele>
        <time>2022-12-15T16:37:29.630Z</time>
      </trkpt>
      <trkpt lat="47.44965" lon="-1.64523">
        <ele>65.856928</ele>
        <time>2022-12-15T16:37:32.655Z</time>
      </trkpt>
      <trkpt lat="47.44965" lon="-1.64506">
        <ele>66.005945</ele>
        <time>2022-12-15T16:37:35.642Z</time>
      </trkpt>
      <trkpt lat="47.44966" lon="-1.6449">
        <ele>66.155334</ele>
        <time>2022-12-15T16:37:38.664Z</time>
      </trkpt>
      <trkpt lat="47.44968" lon="-1.64473">
        <ele>66.303001</ele>
        <time>2022-12-15T16:37:41.647Z</time>
      </trkpt>
      <trkpt lat="47.44969" lon="-1.64458">
        <ele>66.442155</ele>
        <time>2022-12-15T16:37:44.634Z</time>
      </trkpt>
      <trkpt lat="47.4497" lon="-1.64443">
        <ele>66.578634</ele>
        <time>2022-12-15T16:37:47.652Z</time>
      </trkpt>
      <trkpt lat="47.44972" lon="-1.64428">
        <ele>66.710086</ele>
        <time>2022-12-15T16:37:50.654Z</time>
      </trkpt>
      <trkpt lat="47.44974" lon="-1.64415">
        <ele>66.834144</ele>
        <time>2022-12-15T16:37:53.662Z</time>
      </trkpt>
      <trkpt lat="47.44977" lon="-1.644">
        <ele>66.971478</ele>
        <time>2022-12-15T16:37:56.662Z</time>
      </trkpt>
      <trkpt lat="47.44982" lon="-1.64385">
        <ele>67.126423</ele>
        <time>2022-12-15T16:37:59.664Z</time>
      </trkpt>
      <trkpt lat="47.44987" lon="-1.64369">
        <ele>67.288339</ele>
        <time>2022-12-15T16:38:02.635Z</time>
      </trkpt>
      <trkpt lat="47.44993" lon="-1.64355">
        <ele>67.43002</ele>
        <time>2022-12-15T16:38:05.647Z</time>
      </trkpt>
      <trkpt lat="47.44999" lon="-1.64341">
        <ele>67.578098</ele>
        <time>2022-12-15T16:38:08.649Z</time>
      </trkpt>
      <trkpt lat="47.45006" lon="-1.64328">
        <ele>67.658707</ele>
        <time>2022-12-15T16:38:11.659Z</time>
      </trkpt>
      <trkpt lat="47.45014" lon="-1.64316">
        <ele>67.731507</ele>
        <time>2022-12-15T16:38:14.649Z</time>
      </trkpt>
      <trkpt lat="47.45022" lon="-1.64303">
        <ele>67.811167</ele>
        <time>2022-12-15T16:38:17.635Z</time>
      </trkpt>
      <trkpt lat="47.45031" lon="-1.64291">
        <ele>67.889452</ele>
        <time>2022-12-15T16:38:20.657Z</time>
      </trkpt>
      <trkpt lat="47.4504" lon="-1.64278">
        <ele>67.967139</ele>
        <time>2022-12-15T16:38:23.640Z</time>
      </trkpt>
      <trkpt lat="47.45049" lon="-1.64266">
        <ele>68.04436</ele>
        <time>2022-12-15T16:38:26.629Z</time>
      </trkpt>
      <trkpt lat="47.45057" lon="-1.64254">
        <ele>68.119136</ele>
        <time>2022-12-15T16:38:29.634Z</time>
      </trkpt>
      <trkpt lat="47.45065" lon="-1.64243">
        <ele>68.189953</ele>
        <time>2022-12-15T16:38:32.636Z</time>
      </trkpt>
      <trkpt lat="47.45073" lon="-1.64232">
        <ele>68.261851</ele>
        <time>2022-12-15T16:38:35.639Z</time>
      </trkpt>
      <trkpt lat="47.45082" lon="-1.6422">
        <ele>68.337297</ele>
        <time>2022-12-15T16:38:38.653Z</time>
      </trkpt>
      <trkpt lat="47.4509" lon="-1.64209">
        <ele>68.409038</ele>
        <time>2022-12-15T16:38:41.635Z</time>
      </trkpt>
      <trkpt lat="47.45098" lon="-1.64199">
        <ele>68.473934</ele>
        <time>2022-12-15T16:38:44.660Z</time>
      </trkpt>
      <trkpt lat="47.45105" lon="-1.6419">
        <ele>68.534785</ele>
        <time>2022-12-15T16:38:47.630Z</time>
      </trkpt>
      <trkpt lat="47.45112" lon="-1.6418">
        <ele>68.596628</ele>
        <time>2022-12-15T16:38:50.648Z</time>
      </trkpt>
      <trkpt lat="47.45119" lon="-1.64171">
        <ele>68.657824</ele>
        <time>2022-12-15T16:38:53.646Z</time>
      </trkpt>
      <trkpt lat="47.45129" lon="-1.64164">
        <ele>68.725538</ele>
        <time>2022-12-15T16:38:56.637Z</time>
      </trkpt>
      <trkpt lat="47.45139" lon="-1.64158">
        <ele>68.683887</ele>
        <time>2022-12-15T16:38:59.637Z</time>
      </trkpt>
      <trkpt lat="47.45148" lon="-1.64151">
        <ele>68.59127</ele>
        <time>2022-12-15T16:39:02.653Z</time>
      </trkpt>
      <trkpt lat="47.45155" lon="-1.64142">
        <ele>68.506456</ele>
        <time>2022-12-15T16:39:05.636Z</time>
      </trkpt>
      <trkpt lat="47.45162" lon="-1.64133">
        <ele>68.413101</ele>
        <time>2022-12-15T16:39:08.634Z</time>
      </trkpt>
      <trkpt lat="47.45169" lon="-1.64121">
        <ele>68.312556</ele>
        <time>2022-12-15T16:39:11.647Z</time>
      </trkpt>
      <trkpt lat="47.45175" lon="-1.64107">
        <ele>68.21122</ele>
        <time>2022-12-15T16:39:16.645Z</time>
      </trkpt>
      <trkpt lat="47.45179" lon="-1.6409">
        <ele>68.097434</ele>
        <time>2022-12-15T16:39:20.646Z</time>
      </trkpt>
      <trkpt lat="47.45185" lon="-1.64077">
        <ele>67.99789</ele>
        <time>2022-12-15T16:39:23.632Z</time>
      </trkpt>
      <trkpt lat="47.45192" lon="-1.64065">
        <ele>67.900004</ele>
        <time>2022-12-15T16:39:26.634Z</time>
      </trkpt>
      <trkpt lat="47.452" lon="-1.64054">
        <ele>67.800634</ele>
        <time>2022-12-15T16:39:29.636Z</time>
      </trkpt>
      <trkpt lat="47.45207" lon="-1.64044">
        <ele>67.70306</ele>
        <time>2022-12-15T16:39:32.658Z</time>
      </trkpt>
      <trkpt lat="47.45214" lon="-1.64033">
        <ele>67.606168</ele>
        <time>2022-12-15T16:39:35.643Z</time>
      </trkpt>
      <trkpt lat="47.45222" lon="-1.64021">
        <ele>67.504525</ele>
        <time>2022-12-15T16:39:38.649Z</time>
      </trkpt>
      <trkpt lat="47.45229" lon="-1.64009">
        <ele>67.403343</ele>
        <time>2022-12-15T16:39:41.633Z</time>
      </trkpt>
      <trkpt lat="47.45236" lon="-1.63996">
        <ele>67.297969</ele>
        <time>2022-12-15T16:39:44.647Z</time>
      </trkpt>
      <trkpt lat="47.45244" lon="-1.63982">
        <ele>67.182416</ele>
        <time>2022-12-15T16:39:47.649Z</time>
      </trkpt>
      <trkpt lat="47.45251" lon="-1.63968">
        <ele>67.071328</ele>
        <time>2022-12-15T16:39:50.647Z</time>
      </trkpt>
      <trkpt lat="47.45258" lon="-1.63954">
        <ele>66.639589</ele>
        <time>2022-12-15T16:39:53.643Z</time>
      </trkpt>
      <trkpt lat="47.45264" lon="-1.63939">
        <ele>66.225466</ele>
        <time>2022-12-15T16:39:56.639Z</time>
      </trkpt>
      <trkpt lat="47.45269" lon="-1.63926">
        <ele>65.86722</ele>
        <time>2022-12-15T16:39:59.657Z</time>
      </trkpt>
      <trkpt lat="47.45273" lon="-1.63914">
        <ele>65.540363</ele>
        <time>2022-12-15T16:40:02.660Z</time>
      </trkpt>
      <trkpt lat="47.45277" lon="-1.63899">
        <ele>65.125408</ele>
        <time>2022-12-15T16:40:06.659Z</time>
      </trkpt>
      <trkpt lat="47.45279" lon="-1.63885">
        <ele>64.784694</ele>
        <time>2022-12-15T16:40:10.655Z</time>
      </trkpt>
      <trkpt lat="47.45281" lon="-1.63872">
        <ele>64.449122</ele>
        <time>2022-12-15T16:40:14.668Z</time>
      </trkpt>
      <trkpt lat="47.45283" lon="-1.63856">
        <ele>64.051343</ele>
        <time>2022-12-15T16:40:19.635Z</time>
      </trkpt>
      <trkpt lat="47.45284" lon="-1.63841">
        <ele>63.683408</ele>
        <time>2022-12-15T16:40:24.654Z</time>
      </trkpt>
      <trkpt lat="47.45286" lon="-1.63826">
        <ele>63.301831</ele>
        <time>2022-12-15T16:40:30.645Z</time>
      </trkpt>
      <trkpt lat="47.45288" lon="-1.63812">
        <ele>62.962504</ele>
        <time>2022-12-15T16:40:44.650Z</time>
      </trkpt>
      <trkpt lat="47.45289" lon="-1.63802">
        <ele>62.696829</ele>
        <time>2022-12-15T16:41:39.127Z</time>
      </trkpt>
      <trkpt lat="47.45291" lon="-1.6379">
        <ele>62.3811</ele>
        <time>2022-12-15T16:58:24.682Z</time>
      </trkpt>
      <trkpt lat="47.45296" lon="-1.63776">
        <ele>62.005956</ele>
        <time>2022-12-15T16:58:39.638Z</time>
      </trkpt>
      <trkpt lat="47.45299" lon="-1.63761">
        <ele>61.620325</ele>
        <time>2022-12-15T16:58:42.636Z</time>
      </trkpt>
      <trkpt lat="47.45299" lon="-1.63742">
        <ele>61.138238</ele>
        <time>2022-12-15T16:58:45.631Z</time>
      </trkpt>
      <trkpt lat="47.45301" lon="-1.63722">
        <ele>60.663406</ele>
        <time>2022-12-15T16:58:48.641Z</time>
      </trkpt>
      <trkpt lat="47.45303" lon="-1.63707">
        <ele>60.428628</ele>
        <time>2022-12-15T16:58:51.649Z</time>
      </trkpt>
      <trkpt lat="47.45305" lon="-1.63693">
        <ele>60.291142</ele>
        <time>2022-12-15T16:58:54.648Z</time>
      </trkpt>
      <trkpt lat="47.45306" lon="-1.63679">
        <ele>60.149812</ele>
        <time>2022-12-15T16:58:58.631Z</time>
      </trkpt>
      <trkpt lat="47.45309" lon="-1.63664">
        <ele>59.999473</ele>
        <time>2022-12-15T16:59:02.641Z</time>
      </trkpt>
      <trkpt lat="47.45311" lon="-1.63647">
        <ele>59.825854</ele>
        <time>2022-12-15T16:59:06.633Z</time>
      </trkpt>
      <trkpt lat="47.45313" lon="-1.63634">
        <ele>59.693455</ele>
        <time>2022-12-15T16:59:09.646Z</time>
      </trkpt>
      <trkpt lat="47.45316" lon="-1.63619">
        <ele>59.542994</ele>
        <time>2022-12-15T16:59:13.634Z</time>
      </trkpt>
      <trkpt lat="47.45318" lon="-1.63604">
        <ele>59.396813</ele>
        <time>2022-12-15T16:59:16.642Z</time>
      </trkpt>
      <trkpt lat="47.45321" lon="-1.63589">
        <ele>59.247585</ele>
        <time>2022-12-15T16:59:19.631Z</time>
      </trkpt>
      <trkpt lat="47.45323" lon="-1.63574">
        <ele>59.094449</ele>
        <time>2022-12-15T16:59:22.642Z</time>
      </trkpt>
      <trkpt lat="47.45325" lon="-1.63558">
        <ele>58.930621</ele>
        <time>2022-12-15T16:59:25.630Z</time>
      </trkpt>
      <trkpt lat="47.45328" lon="-1.63543">
        <ele>58.778544</ele>
        <time>2022-12-15T16:59:28.636Z</time>
      </trkpt>
      <trkpt lat="47.4533" lon="-1.63526">
        <ele>58.616979</ele>
        <time>2022-12-15T16:59:31.631Z</time>
      </trkpt>
      <trkpt lat="47.45332" lon="-1.63511">
        <ele>58.461091</ele>
        <time>2022-12-15T16:59:34.635Z</time>
      </trkpt>
      <trkpt lat="47.45334" lon="-1.63496">
        <ele>58.310842</ele>
        <time>2022-12-15T16:59:37.646Z</time>
      </trkpt>
      <trkpt lat="47.45335" lon="-1.6348">
        <ele>58.155848</ele>
        <time>2022-12-15T16:59:40.640Z</time>
      </trkpt>
      <trkpt lat="47.45336" lon="-1.63463">
        <ele>57.989461</ele>
        <time>2022-12-15T16:59:43.633Z</time>
      </trkpt>
      <trkpt lat="47.45337" lon="-1.63447">
        <ele>58.004855</ele>
        <time>2022-12-15T16:59:46.628Z</time>
      </trkpt>
      <trkpt lat="47.45338" lon="-1.63432">
        <ele>58.128611</ele>
        <time>2022-12-15T16:59:49.636Z</time>
      </trkpt>
      <trkpt lat="47.45338" lon="-1.63417">
        <ele>58.250668</ele>
        <time>2022-12-15T16:59:52.633Z</time>
      </trkpt>
      <trkpt lat="47.45338" lon="-1.63402">
        <ele>58.372629</ele>
        <time>2022-12-15T16:59:55.646Z</time>
      </trkpt>
      <trkpt lat="47.45337" lon="-1.63386">
        <ele>58.502176</ele>
        <time>2022-12-15T16:59:58.634Z</time>
      </trkpt>
      <trkpt lat="47.45336" lon="-1.6337">
        <ele>58.634455</ele>
        <time>2022-12-15T17:00:01.651Z</time>
      </trkpt>
      <trkpt lat="47.45335" lon="-1.63353">
        <ele>58.776328</ele>
        <time>2022-12-15T17:00:04.652Z</time>
      </trkpt>
      <trkpt lat="47.45334" lon="-1.63337">
        <ele>58.904654</ele>
        <time>2022-12-15T17:00:07.628Z</time>
      </trkpt>
      <trkpt lat="47.45332" lon="-1.63324">
        <ele>59.017194</ele>
        <time>2022-12-15T17:00:10.638Z</time>
      </trkpt>
      <trkpt lat="47.4533" lon="-1.63309">
        <ele>59.138404</ele>
        <time>2022-12-15T17:00:13.643Z</time>
      </trkpt>
      <trkpt lat="47.45327" lon="-1.63294">
        <ele>59.265906</ele>
        <time>2022-12-15T17:00:16.638Z</time>
      </trkpt>
      <trkpt lat="47.45324" lon="-1.6328">
        <ele>59.387991</ele>
        <time>2022-12-15T17:00:19.635Z</time>
      </trkpt>
      <trkpt lat="47.4532" lon="-1.63265">
        <ele>59.523654</ele>
        <time>2022-12-15T17:00:22.649Z</time>
      </trkpt>
      <trkpt lat="47.45316" lon="-1.63249">
        <ele>59.660858</ele>
        <time>2022-12-15T17:00:25.655Z</time>
      </trkpt>
      <trkpt lat="47.45313" lon="-1.63233">
        <ele>59.793401</ele>
        <time>2022-12-15T17:00:28.634Z</time>
      </trkpt>
      <trkpt lat="47.4531" lon="-1.63218">
        <ele>59.923237</ele>
        <time>2022-12-15T17:00:31.648Z</time>
      </trkpt>
      <trkpt lat="47.45306" lon="-1.63202">
        <ele>60.059316</ele>
        <time>2022-12-15T17:00:34.651Z</time>
      </trkpt>
      <trkpt lat="47.45304" lon="-1.63188">
        <ele>60.052028</ele>
        <time>2022-12-15T17:00:37.649Z</time>
      </trkpt>
      <trkpt lat="47.45303" lon="-1.63172">
        <ele>59.970373</ele>
        <time>2022-12-15T17:00:40.635Z</time>
      </trkpt>
      <trkpt lat="47.45301" lon="-1.63156">
        <ele>59.88642</ele>
        <time>2022-12-15T17:00:43.638Z</time>
      </trkpt>
      <trkpt lat="47.453" lon="-1.63138">
        <ele>59.791752</ele>
        <time>2022-12-15T17:00:47.639Z</time>
      </trkpt>
      <trkpt lat="47.45302" lon="-1.63121">
        <ele>59.703693</ele>
        <time>2022-12-15T17:00:50.646Z</time>
      </trkpt>
      <trkpt lat="47.45303" lon="-1.63104">
        <ele>59.615986</ele>
        <time>2022-12-15T17:00:53.633Z</time>
      </trkpt>
      <trkpt lat="47.45306" lon="-1.63087">
        <ele>59.529077</ele>
        <time>2022-12-15T17:00:56.648Z</time>
      </trkpt>
      <trkpt lat="47.45309" lon="-1.63074">
        <ele>59.457026</ele>
        <time>2022-12-15T17:00:59.637Z</time>
      </trkpt>
      <trkpt lat="47.45314" lon="-1.6306">
        <ele>59.375282</ele>
        <time>2022-12-15T17:01:02.658Z</time>
      </trkpt>
      <trkpt lat="47.45319" lon="-1.63047">
        <ele>59.300782</ele>
        <time>2022-12-15T17:01:05.648Z</time>
      </trkpt>
      <trkpt lat="47.45325" lon="-1.63034">
        <ele>59.215328</ele>
        <time>2022-12-15T17:01:08.632Z</time>
      </trkpt>
      <trkpt lat="47.45332" lon="-1.63022">
        <ele>59.136117</ele>
        <time>2022-12-15T17:01:11.648Z</time>
      </trkpt>
      <trkpt lat="47.45339" lon="-1.63008">
        <ele>59.048337</ele>
        <time>2022-12-15T17:01:14.639Z</time>
      </trkpt>
      <trkpt lat="47.45347" lon="-1.62996">
        <ele>58.959965</ele>
        <time>2022-12-15T17:01:17.651Z</time>
      </trkpt>
      <trkpt lat="47.45354" lon="-1.62986">
        <ele>58.888427</ele>
        <time>2022-12-15T17:01:20.644Z</time>
      </trkpt>
      <trkpt lat="47.45361" lon="-1.62977">
        <ele>58.813125</ele>
        <time>2022-12-15T17:01:23.645Z</time>
      </trkpt>
      <trkpt lat="47.45371" lon="-1.62966">
        <ele>58.748119</ele>
        <time>2022-12-15T17:01:26.646Z</time>
      </trkpt>
      <trkpt lat="47.45379" lon="-1.62958">
        <ele>58.912008</ele>
        <time>2022-12-15T17:01:29.638Z</time>
      </trkpt>
      <trkpt lat="47.4539" lon="-1.62949">
        <ele>59.107142</ele>
        <time>2022-12-15T17:01:32.630Z</time>
      </trkpt>
      <trkpt lat="47.45398" lon="-1.62941">
        <ele>59.266403</ele>
        <time>2022-12-15T17:01:35.651Z</time>
      </trkpt>
      <trkpt lat="47.45409" lon="-1.62933">
        <ele>59.45395</ele>
        <time>2022-12-15T17:01:38.639Z</time>
      </trkpt>
      <trkpt lat="47.45419" lon="-1.62926">
        <ele>59.628735</ele>
        <time>2022-12-15T17:01:41.642Z</time>
      </trkpt>
      <trkpt lat="47.45427" lon="-1.6292">
        <ele>59.777722</ele>
        <time>2022-12-15T17:01:43.646Z</time>
      </trkpt>
      <trkpt lat="47.45435" lon="-1.62915">
        <ele>59.923119</ele>
        <time>2022-12-15T17:01:45.643Z</time>
      </trkpt>
      <trkpt lat="47.45444" lon="-1.6291">
        <ele>60.073218</ele>
        <time>2022-12-15T17:01:47.644Z</time>
      </trkpt>
      <trkpt lat="47.45453" lon="-1.62905">
        <ele>60.22557</ele>
        <time>2022-12-15T17:01:50.643Z</time>
      </trkpt>
      <trkpt lat="47.45462" lon="-1.629">
        <ele>60.379799</ele>
        <time>2022-12-15T17:01:53.653Z</time>
      </trkpt>
      <trkpt lat="47.45477" lon="-1.62894">
        <ele>60.622584</ele>
        <time>2022-12-15T17:01:56.645Z</time>
      </trkpt>
      <trkpt lat="47.45489" lon="-1.62889">
        <ele>60.815892</ele>
        <time>2022-12-15T17:01:59.635Z</time>
      </trkpt>
      <trkpt lat="47.45501" lon="-1.62885">
        <ele>61.010669</ele>
        <time>2022-12-15T17:02:02.641Z</time>
      </trkpt>
      <trkpt lat="47.45512" lon="-1.62881">
        <ele>61.201381</ele>
        <time>2022-12-15T17:02:05.650Z</time>
      </trkpt>
      <trkpt lat="47.45524" lon="-1.62879">
        <ele>61.39245</ele>
        <time>2022-12-15T17:02:08.635Z</time>
      </trkpt>
      <trkpt lat="47.45537" lon="-1.62877">
        <ele>61.593627</ele>
        <time>2022-12-15T17:02:11.652Z</time>
      </trkpt>
      <trkpt lat="47.45547" lon="-1.62876">
        <ele>61.474286</ele>
        <time>2022-12-15T17:02:14.640Z</time>
      </trkpt>
      <trkpt lat="47.45557" lon="-1.62875">
        <ele>61.355306</ele>
        <time>2022-12-15T17:02:17.638Z</time>
      </trkpt>
      <trkpt lat="47.45566" lon="-1.62876">
        <ele>61.246976</ele>
        <time>2022-12-15T17:02:20.649Z</time>
      </trkpt>
      <trkpt lat="47.45576" lon="-1.62877">
        <ele>61.132127</ele>
        <time>2022-12-15T17:02:23.635Z</time>
      </trkpt>
      <trkpt lat="47.45587" lon="-1.62878">
        <ele>60.996407</ele>
        <time>2022-12-15T17:02:26.649Z</time>
      </trkpt>
      <trkpt lat="47.45596" lon="-1.62881">
        <ele>60.884408</ele>
        <time>2022-12-15T17:02:29.638Z</time>
      </trkpt>
      <trkpt lat="47.45606" lon="-1.62885">
        <ele>60.762602</ele>
        <time>2022-12-15T17:02:32.642Z</time>
      </trkpt>
      <trkpt lat="47.45618" lon="-1.6289">
        <ele>60.619796</ele>
        <time>2022-12-15T17:02:36.649Z</time>
      </trkpt>
      <trkpt lat="47.45626" lon="-1.62894">
        <ele>60.511244</ele>
        <time>2022-12-15T17:02:38.633Z</time>
      </trkpt>
      <trkpt lat="47.45636" lon="-1.62899">
        <ele>60.388586</ele>
        <time>2022-12-15T17:02:41.646Z</time>
      </trkpt>
      <trkpt lat="47.45647" lon="-1.62905">
        <ele>60.249205</ele>
        <time>2022-12-15T17:02:44.628Z</time>
      </trkpt>
      <trkpt lat="47.45658" lon="-1.62909">
        <ele>60.120087</ele>
        <time>2022-12-15T17:02:46.649Z</time>
      </trkpt>
      <trkpt lat="47.45669" lon="-1.62917">
        <ele>59.968599</ele>
        <time>2022-12-15T17:02:49.644Z</time>
      </trkpt>
      <trkpt lat="47.45678" lon="-1.62923">
        <ele>59.852018</ele>
        <time>2022-12-15T17:02:52.641Z</time>
      </trkpt>
      <trkpt lat="47.45686" lon="-1.62929">
        <ele>59.742897</ele>
        <time>2022-12-15T17:02:55.642Z</time>
      </trkpt>
      <trkpt lat="47.45695" lon="-1.62936">
        <ele>59.62203</ele>
        <time>2022-12-15T17:02:58.635Z</time>
      </trkpt>
      <trkpt lat="47.45705" lon="-1.62943">
        <ele>59.49636</ele>
        <time>2022-12-15T17:03:01.649Z</time>
      </trkpt>
      <trkpt lat="47.45715" lon="-1.62953">
        <ele>59.597927</ele>
        <time>2022-12-15T17:03:04.633Z</time>
      </trkpt>
      <trkpt lat="47.45724" lon="-1.62962">
        <ele>59.792125</ele>
        <time>2022-12-15T17:03:07.649Z</time>
      </trkpt>
      <trkpt lat="47.45733" lon="-1.62974">
        <ele>59.979379</ele>
        <time>2022-12-15T17:03:10.643Z</time>
      </trkpt>
      <trkpt lat="47.45741" lon="-1.62985">
        <ele>60.160664</ele>
        <time>2022-12-15T17:03:13.640Z</time>
      </trkpt>
      <trkpt lat="47.45751" lon="-1.62996">
        <ele>60.378017</ele>
        <time>2022-12-15T17:03:16.648Z</time>
      </trkpt>
      <trkpt lat="47.45762" lon="-1.63007">
        <ele>60.591444</ele>
        <time>2022-12-15T17:03:19.646Z</time>
      </trkpt>
      <trkpt lat="47.45769" lon="-1.63015">
        <ele>60.741254</ele>
        <time>2022-12-15T17:03:21.644Z</time>
      </trkpt>
      <trkpt lat="47.45779" lon="-1.63024">
        <ele>60.931585</ele>
        <time>2022-12-15T17:03:24.638Z</time>
      </trkpt>
      <trkpt lat="47.45789" lon="-1.63031">
        <ele>61.111987</ele>
        <time>2022-12-15T17:03:27.638Z</time>
      </trkpt>
      <trkpt lat="47.45798" lon="-1.63037">
        <ele>61.277154</ele>
        <time>2022-12-15T17:03:30.650Z</time>
      </trkpt>
      <trkpt lat="47.45808" lon="-1.63044">
        <ele>61.463803</ele>
        <time>2022-12-15T17:03:33.632Z</time>
      </trkpt>
      <trkpt lat="47.45819" lon="-1.63049">
        <ele>61.647214</ele>
        <time>2022-12-15T17:03:36.643Z</time>
      </trkpt>
      <trkpt lat="47.45828" lon="-1.63053">
        <ele>61.808915</ele>
        <time>2022-12-15T17:03:39.646Z</time>
      </trkpt>
      <trkpt lat="47.4584" lon="-1.63055">
        <ele>62.008097</ele>
        <time>2022-12-15T17:03:42.634Z</time>
      </trkpt>
      <trkpt lat="47.45853" lon="-1.63055">
        <ele>62.218095</ele>
        <time>2022-12-15T17:03:46.659Z</time>
      </trkpt>
      <trkpt lat="47.45865" lon="-1.63055">
        <ele>62.418176</ele>
        <time>2022-12-15T17:03:50.635Z</time>
      </trkpt>
      <trkpt lat="47.45876" lon="-1.63053">
        <ele>62.316659</ele>
        <time>2022-12-15T17:03:53.636Z</time>
      </trkpt>
      <trkpt lat="47.45885" lon="-1.63051">
        <ele>62.209875</ele>
        <time>2022-12-15T17:03:55.642Z</time>
      </trkpt>
      <trkpt lat="47.45896" lon="-1.63048">
        <ele>62.090237</ele>
        <time>2022-12-15T17:03:57.638Z</time>
      </trkpt>
      <trkpt lat="47.4591" lon="-1.6304">
        <ele>61.92056</ele>
        <time>2022-12-15T17:04:00.639Z</time>
      </trkpt>
      <trkpt lat="47.4592" lon="-1.63035">
        <ele>61.802553</ele>
        <time>2022-12-15T17:04:02.650Z</time>
      </trkpt>
      <trkpt lat="47.45929" lon="-1.63026">
        <ele>61.680842</ele>
        <time>2022-12-15T17:04:06.637Z</time>
      </trkpt>
      <trkpt lat="47.45937" lon="-1.63019">
        <ele>61.57063</ele>
        <time>2022-12-15T17:04:08.635Z</time>
      </trkpt>
      <trkpt lat="47.45949" lon="-1.63008">
        <ele>61.419779</ele>
        <time>2022-12-15T17:04:11.651Z</time>
      </trkpt>
      <trkpt lat="47.45959" lon="-1.62996">
        <ele>61.271081</ele>
        <time>2022-12-15T17:04:14.638Z</time>
      </trkpt>
      <trkpt lat="47.45966" lon="-1.62988">
        <ele>61.167657</ele>
        <time>2022-12-15T17:04:16.652Z</time>
      </trkpt>
      <trkpt lat="47.45976" lon="-1.62975">
        <ele>61.024444</ele>
        <time>2022-12-15T17:04:19.635Z</time>
      </trkpt>
      <trkpt lat="47.45984" lon="-1.62963">
        <ele>60.893579</ele>
        <time>2022-12-15T17:04:22.633Z</time>
      </trkpt>
      <trkpt lat="47.45991" lon="-1.62949">
        <ele>60.76256</ele>
        <time>2022-12-15T17:04:25.639Z</time>
      </trkpt>
      <trkpt lat="47.45996" lon="-1.62933">
        <ele>60.627055</ele>
        <time>2022-12-15T17:04:28.634Z</time>
      </trkpt>
      <trkpt lat="47.46" lon="-1.62918">
        <ele>60.504183</ele>
        <time>2022-12-15T17:04:31.633Z</time>
      </trkpt>
      <trkpt lat="47.46003" lon="-1.62901">
        <ele>60.395435</ele>
        <time>2022-12-15T17:04:34.650Z</time>
      </trkpt>
      <trkpt lat="47.46003" lon="-1.62886">
        <ele>60.348928</ele>
        <time>2022-12-15T17:04:37.632Z</time>
      </trkpt>
      <trkpt lat="47.46004" lon="-1.62872">
        <ele>60.305274</ele>
        <time>2022-12-15T17:04:40.636Z</time>
      </trkpt>
      <trkpt lat="47.46004" lon="-1.62855">
        <ele>60.25229</ele>
        <time>2022-12-15T17:04:43.647Z</time>
      </trkpt>
      <trkpt lat="47.46005" lon="-1.62839">
        <ele>60.201528</ele>
        <time>2022-12-15T17:04:46.641Z</time>
      </trkpt>
      <trkpt lat="47.46004" lon="-1.62823">
        <ele>60.152918</ele>
        <time>2022-12-15T17:04:49.636Z</time>
      </trkpt>
      <trkpt lat="47.46003" lon="-1.62808">
        <ele>60.104825</ele>
        <time>2022-12-15T17:04:52.634Z</time>
      </trkpt>
      <trkpt lat="47.46002" lon="-1.62791">
        <ele>60.050934</ele>
        <time>2022-12-15T17:04:56.646Z</time>
      </trkpt>
      <trkpt lat="47.46" lon="-1.62777">
        <ele>60.005876</ele>
        <time>2022-12-15T17:04:59.640Z</time>
      </trkpt>
      <trkpt lat="47.45998" lon="-1.6276">
        <ele>59.95276</ele>
        <time>2022-12-15T17:05:02.646Z</time>
      </trkpt>
      <trkpt lat="47.45996" lon="-1.62743">
        <ele>59.900482</ele>
        <time>2022-12-15T17:05:05.646Z</time>
      </trkpt>
      <trkpt lat="47.45994" lon="-1.62727">
        <ele>59.848941</ele>
        <time>2022-12-15T17:05:08.640Z</time>
      </trkpt>
      <trkpt lat="47.45991" lon="-1.6271">
        <ele>59.792441</ele>
        <time>2022-12-15T17:05:11.652Z</time>
      </trkpt>
      <trkpt lat="47.45989" lon="-1.62694">
        <ele>59.743085</ele>
        <time>2022-12-15T17:05:14.643Z</time>
      </trkpt>
      <trkpt lat="47.45987" lon="-1.62678">
        <ele>59.69419</ele>
        <time>2022-12-15T17:05:17.637Z</time>
      </trkpt>
      <trkpt lat="47.45985" lon="-1.62662">
        <ele>59.642551</ele>
        <time>2022-12-15T17:05:20.635Z</time>
      </trkpt>
      <trkpt lat="47.45983" lon="-1.62645">
        <ele>59.588655</ele>
        <time>2022-12-15T17:05:23.656Z</time>
      </trkpt>
      <trkpt lat="47.45982" lon="-1.62627">
        <ele>59.478873</ele>
        <time>2022-12-15T17:05:26.644Z</time>
      </trkpt>
      <trkpt lat="47.45981" lon="-1.6261">
        <ele>59.364912</ele>
        <time>2022-12-15T17:05:29.642Z</time>
      </trkpt>
      <trkpt lat="47.45981" lon="-1.62594">
        <ele>59.261952</ele>
        <time>2022-12-15T17:05:32.639Z</time>
      </trkpt>
      <trkpt lat="47.4598" lon="-1.62579">
        <ele>59.16229</ele>
        <time>2022-12-15T17:05:35.641Z</time>
      </trkpt>
      <trkpt lat="47.4598" lon="-1.62563">
        <ele>59.058769</ele>
        <time>2022-12-15T17:05:38.634Z</time>
      </trkpt>
      <trkpt lat="47.45979" lon="-1.62547">
        <ele>58.954598</ele>
        <time>2022-12-15T17:05:41.641Z</time>
      </trkpt>
      <trkpt lat="47.45979" lon="-1.62532">
        <ele>58.858286</ele>
        <time>2022-12-15T17:05:44.633Z</time>
      </trkpt>
      <trkpt lat="47.4598" lon="-1.62515">
        <ele>58.751372</ele>
        <time>2022-12-15T17:05:47.634Z</time>
      </trkpt>
      <trkpt lat="47.4598" lon="-1.62499">
        <ele>58.645953</ele>
        <time>2022-12-15T17:05:50.638Z</time>
      </trkpt>
      <trkpt lat="47.4598" lon="-1.62483">
        <ele>58.541203</ele>
        <time>2022-12-15T17:05:53.648Z</time>
      </trkpt>
      <trkpt lat="47.4598" lon="-1.62466">
        <ele>58.430592</ele>
        <time>2022-12-15T17:05:56.651Z</time>
      </trkpt>
      <trkpt lat="47.45981" lon="-1.62449">
        <ele>58.318634</ele>
        <time>2022-12-15T17:05:59.641Z</time>
      </trkpt>
      <trkpt lat="47.45982" lon="-1.62434">
        <ele>58.221036</ele>
        <time>2022-12-15T17:06:02.645Z</time>
      </trkpt>
      <trkpt lat="47.45982" lon="-1.62419">
        <ele>58.120545</ele>
        <time>2022-12-15T17:06:05.650Z</time>
      </trkpt>
      <trkpt lat="47.45983" lon="-1.62402">
        <ele>58.012473</ele>
        <time>2022-12-15T17:06:08.638Z</time>
      </trkpt>
      <trkpt lat="47.45983" lon="-1.62387">
        <ele>57.912161</ele>
        <time>2022-12-15T17:06:11.640Z</time>
      </trkpt>
      <trkpt lat="47.45984" lon="-1.6237">
        <ele>57.857685</ele>
        <time>2022-12-15T17:06:14.652Z</time>
      </trkpt>
      <trkpt lat="47.45985" lon="-1.62353">
        <ele>57.874451</ele>
        <time>2022-12-15T17:06:17.639Z</time>
      </trkpt>
      <trkpt lat="47.45986" lon="-1.62336">
        <ele>57.891192</ele>
        <time>2022-12-15T17:06:20.643Z</time>
      </trkpt>
      <trkpt lat="47.45986" lon="-1.6232">
        <ele>57.906937</ele>
        <time>2022-12-15T17:06:23.650Z</time>
      </trkpt>
      <trkpt lat="47.45987" lon="-1.62307">
        <ele>57.920765</ele>
        <time>2022-12-15T17:06:26.634Z</time>
      </trkpt>
      <trkpt lat="47.45987" lon="-1.62292">
        <ele>57.934955</ele>
        <time>2022-12-15T17:06:29.641Z</time>
      </trkpt>
      <trkpt lat="47.45987" lon="-1.62277">
        <ele>57.950045</ele>
        <time>2022-12-15T17:06:32.652Z</time>
      </trkpt>
      <trkpt lat="47.45987" lon="-1.62263">
        <ele>57.964734</ele>
        <time>2022-12-15T17:06:35.648Z</time>
      </trkpt>
      <trkpt lat="47.45988" lon="-1.62246">
        <ele>57.981474</ele>
        <time>2022-12-15T17:06:38.639Z</time>
      </trkpt>
      <trkpt lat="47.45988" lon="-1.6223">
        <ele>57.997169</ele>
        <time>2022-12-15T17:06:41.637Z</time>
      </trkpt>
      <trkpt lat="47.45989" lon="-1.62215">
        <ele>58.012858</ele>
        <time>2022-12-15T17:06:44.634Z</time>
      </trkpt>
      <trkpt lat="47.45989" lon="-1.62198">
        <ele>58.029052</ele>
        <time>2022-12-15T17:06:47.637Z</time>
      </trkpt>
      <trkpt lat="47.45989" lon="-1.62181">
        <ele>58.04604</ele>
        <time>2022-12-15T17:06:50.650Z</time>
      </trkpt>
      <trkpt lat="47.45989" lon="-1.62165">
        <ele>58.062628</ele>
        <time>2022-12-15T17:06:53.637Z</time>
      </trkpt>
      <trkpt lat="47.45989" lon="-1.62148">
        <ele>58.07904</ele>
        <time>2022-12-15T17:06:56.639Z</time>
      </trkpt>
      <trkpt lat="47.4599" lon="-1.62132">
        <ele>58.095061</ele>
        <time>2022-12-15T17:06:59.650Z</time>
      </trkpt>
      <trkpt lat="47.45991" lon="-1.62116">
        <ele>58.111204</ele>
        <time>2022-12-15T17:07:02.648Z</time>
      </trkpt>
      <trkpt lat="47.45992" lon="-1.62101">
        <ele>58.11993</ele>
        <time>2022-12-15T17:07:05.654Z</time>
      </trkpt>
      <trkpt lat="47.45992" lon="-1.62086">
        <ele>58.126002</ele>
        <time>2022-12-15T17:07:08.631Z</time>
      </trkpt>
      <trkpt lat="47.45992" lon="-1.6207">
        <ele>58.132153</ele>
        <time>2022-12-15T17:07:11.646Z</time>
      </trkpt>
      <trkpt lat="47.45992" lon="-1.62053">
        <ele>58.138856</ele>
        <time>2022-12-15T17:07:14.643Z</time>
      </trkpt>
      <trkpt lat="47.45991" lon="-1.62037">
        <ele>58.145529</ele>
        <time>2022-12-15T17:07:17.633Z</time>
      </trkpt>
      <trkpt lat="47.45991" lon="-1.62019">
        <ele>58.152351</ele>
        <time>2022-12-15T17:07:20.636Z</time>
      </trkpt>
      <trkpt lat="47.45992" lon="-1.62002">
        <ele>58.159326</ele>
        <time>2022-12-15T17:07:23.633Z</time>
      </trkpt>
      <trkpt lat="47.45993" lon="-1.61985">
        <ele>58.165892</ele>
        <time>2022-12-15T17:07:26.633Z</time>
      </trkpt>
      <trkpt lat="47.45994" lon="-1.61969">
        <ele>58.172286</ele>
        <time>2022-12-15T17:07:29.633Z</time>
      </trkpt>
      <trkpt lat="47.45995" lon="-1.61953">
        <ele>58.178638</ele>
        <time>2022-12-15T17:07:32.634Z</time>
      </trkpt>
      <trkpt lat="47.45994" lon="-1.61939">
        <ele>58.184178</ele>
        <time>2022-12-15T17:07:35.635Z</time>
      </trkpt>
      <trkpt lat="47.45992" lon="-1.61922">
        <ele>58.19105</ele>
        <time>2022-12-15T17:07:39.645Z</time>
      </trkpt>
      <trkpt lat="47.45991" lon="-1.61907">
        <ele>58.196659</ele>
        <time>2022-12-15T17:07:42.645Z</time>
      </trkpt>
      <trkpt lat="47.45991" lon="-1.61893">
        <ele>58.202535</ele>
        <time>2022-12-15T17:07:45.644Z</time>
      </trkpt>
      <trkpt lat="47.45993" lon="-1.61879">
        <ele>58.208037</ele>
        <time>2022-12-15T17:07:48.636Z</time>
      </trkpt>
      <trkpt lat="47.45994" lon="-1.61864">
        <ele>58.214019</ele>
        <time>2022-12-15T17:07:52.649Z</time>
      </trkpt>
      <trkpt lat="47.45996" lon="-1.61849">
        <ele>58.220135</ele>
        <time>2022-12-15T17:07:57.643Z</time>
      </trkpt>
      <trkpt lat="47.45997" lon="-1.61834">
        <ele>58.499245</ele>
        <time>2022-12-15T17:08:02.640Z</time>
      </trkpt>
      <trkpt lat="47.45998" lon="-1.61819">
        <ele>58.794431</ele>
        <time>2022-12-15T17:08:07.653Z</time>
      </trkpt>
      <trkpt lat="47.45998" lon="-1.61802">
        <ele>59.160621</ele>
        <time>2022-12-15T17:08:13.641Z</time>
      </trkpt>
      <trkpt lat="47.45998" lon="-1.61784">
        <ele>59.543659</ele>
        <time>2022-12-15T17:08:16.640Z</time>
      </trkpt>
      <trkpt lat="47.45997" lon="-1.61768">
        <ele>59.877508</ele>
        <time>2022-12-15T17:08:18.642Z</time>
      </trkpt>
      <trkpt lat="47.45996" lon="-1.61753">
        <ele>60.196023</ele>
        <time>2022-12-15T17:08:20.650Z</time>
      </trkpt>
      <trkpt lat="47.45995" lon="-1.61739">
        <ele>60.490683</ele>
        <time>2022-12-15T17:08:22.638Z</time>
      </trkpt>
      <trkpt lat="47.45993" lon="-1.61719">
        <ele>60.896835</ele>
        <time>2022-12-15T17:08:25.631Z</time>
      </trkpt>
      <trkpt lat="47.45992" lon="-1.61704">
        <ele>61.213264</ele>
        <time>2022-12-15T17:08:28.637Z</time>
      </trkpt>
      <trkpt lat="47.45989" lon="-1.61687">
        <ele>61.587055</ele>
        <time>2022-12-15T17:08:31.635Z</time>
      </trkpt>
      <trkpt lat="47.45988" lon="-1.61671">
        <ele>61.926882</ele>
        <time>2022-12-15T17:08:34.651Z</time>
      </trkpt>
      <trkpt lat="47.45987" lon="-1.61655">
        <ele>62.256872</ele>
        <time>2022-12-15T17:08:37.636Z</time>
      </trkpt>
      <trkpt lat="47.45981" lon="-1.61639">
        <ele>62.63586</ele>
        <time>2022-12-15T17:08:40.646Z</time>
      </trkpt>
      <trkpt lat="47.45978" lon="-1.61622">
        <ele>63.008412</ele>
        <time>2022-12-15T17:08:43.644Z</time>
      </trkpt>
      <trkpt lat="47.45976" lon="-1.61608">
        <ele>63.3071</ele>
        <time>2022-12-15T17:08:45.654Z</time>
      </trkpt>
      <trkpt lat="47.45975" lon="-1.61589">
        <ele>63.705779</ele>
        <time>2022-12-15T17:08:48.647Z</time>
      </trkpt>
      <trkpt lat="47.45971" lon="-1.6157">
        <ele>63.862246</ele>
        <time>2022-12-15T17:08:51.641Z</time>
      </trkpt>
      <trkpt lat="47.45969" lon="-1.61551">
        <ele>63.955284</ele>
        <time>2022-12-15T17:08:54.630Z</time>
      </trkpt>
      <trkpt lat="47.45967" lon="-1.61533">
        <ele>64.050279</ele>
        <time>2022-12-15T17:08:57.639Z</time>
      </trkpt>
      <trkpt lat="47.45963" lon="-1.61516">
        <ele>64.135782</ele>
        <time>2022-12-15T17:09:00.639Z</time>
      </trkpt>
      <trkpt lat="47.4596" lon="-1.615">
        <ele>64.221474</ele>
        <time>2022-12-15T17:09:03.633Z</time>
      </trkpt>
      <trkpt lat="47.45957" lon="-1.61483">
        <ele>64.305761</ele>
        <time>2022-12-15T17:09:06.642Z</time>
      </trkpt>
      <trkpt lat="47.45953" lon="-1.61471">
        <ele>64.375146</ele>
        <time>2022-12-15T17:09:09.630Z</time>
      </trkpt>
      <trkpt lat="47.45949" lon="-1.61458">
        <ele>64.447036</ele>
        <time>2022-12-15T17:09:11.634Z</time>
      </trkpt>
      <trkpt lat="47.45944" lon="-1.61441">
        <ele>64.541062</ele>
        <time>2022-12-15T17:09:14.654Z</time>
      </trkpt>
      <trkpt lat="47.45939" lon="-1.61426">
        <ele>64.623265</ele>
        <time>2022-12-15T17:09:17.633Z</time>
      </trkpt>
      <trkpt lat="47.45937" lon="-1.61411">
        <ele>64.697078</ele>
        <time>2022-12-15T17:09:20.637Z</time>
      </trkpt>
      <trkpt lat="47.45935" lon="-1.61396">
        <ele>64.773395</ele>
        <time>2022-12-15T17:09:23.642Z</time>
      </trkpt>
      <trkpt lat="47.45933" lon="-1.6138">
        <ele>64.855516</ele>
        <time>2022-12-15T17:09:26.634Z</time>
      </trkpt>
      <trkpt lat="47.45931" lon="-1.61362">
        <ele>64.945424</ele>
        <time>2022-12-15T17:09:29.637Z</time>
      </trkpt>
      <trkpt lat="47.45928" lon="-1.61346">
        <ele>65.02846</ele>
        <time>2022-12-15T17:09:32.643Z</time>
      </trkpt>
      <trkpt lat="47.45925" lon="-1.61328">
        <ele>65.107985</ele>
        <time>2022-12-15T17:09:35.635Z</time>
      </trkpt>
      <trkpt lat="47.45922" lon="-1.61311">
        <ele>65.122433</ele>
        <time>2022-12-15T17:09:38.637Z</time>
      </trkpt>
      <trkpt lat="47.4592" lon="-1.61294">
        <ele>65.136771</ele>
        <time>2022-12-15T17:09:41.638Z</time>
      </trkpt>
      <trkpt lat="47.45919" lon="-1.61279">
        <ele>65.149331</ele>
        <time>2022-12-15T17:09:44.641Z</time>
      </trkpt>
      <trkpt lat="47.45916" lon="-1.61266">
        <ele>65.16052</ele>
        <time>2022-12-15T17:09:47.650Z</time>
      </trkpt>
      <trkpt lat="47.45919" lon="-1.61253">
        <ele>65.171713</ele>
        <time>2022-12-15T17:09:50.639Z</time>
      </trkpt>
      <trkpt lat="47.45922" lon="-1.61238">
        <ele>65.184472</ele>
        <time>2022-12-15T17:09:53.633Z</time>
      </trkpt>
      <trkpt lat="47.45925" lon="-1.61222">
        <ele>65.198303</ele>
        <time>2022-12-15T17:09:56.634Z</time>
      </trkpt>
      <trkpt lat="47.45928" lon="-1.61207">
        <ele>65.211884</ele>
        <time>2022-12-15T17:09:59.637Z</time>
      </trkpt>
      <trkpt lat="47.45935" lon="-1.61191">
        <ele>65.226838</ele>
        <time>2022-12-15T17:10:02.634Z</time>
      </trkpt>
      <trkpt lat="47.4594" lon="-1.61174">
        <ele>65.242361</ele>
        <time>2022-12-15T17:10:05.634Z</time>
      </trkpt>
      <trkpt lat="47.45945" lon="-1.61159">
        <ele>65.255712</ele>
        <time>2022-12-15T17:10:08.639Z</time>
      </trkpt>
      <trkpt lat="47.45948" lon="-1.61142">
        <ele>65.270604</ele>
        <time>2022-12-15T17:10:11.652Z</time>
      </trkpt>
      <trkpt lat="47.45951" lon="-1.61129">
        <ele>65.282083</ele>
        <time>2022-12-15T17:10:14.643Z</time>
      </trkpt>
      <trkpt lat="47.45956" lon="-1.61117">
        <ele>65.29374</ele>
        <time>2022-12-15T17:10:17.644Z</time>
      </trkpt>
      <trkpt lat="47.4596" lon="-1.61105">
        <ele>65.304882</ele>
        <time>2022-12-15T17:10:20.645Z</time>
      </trkpt>
      <trkpt lat="47.45965" lon="-1.61093">
        <ele>65.316041</ele>
        <time>2022-12-15T17:10:23.634Z</time>
      </trkpt>
      <trkpt lat="47.45969" lon="-1.61079">
        <ele>65.28392</ele>
        <time>2022-12-15T17:10:26.634Z</time>
      </trkpt>
      <trkpt lat="47.45974" lon="-1.61065">
        <ele>65.116488</ele>
        <time>2022-12-15T17:10:29.642Z</time>
      </trkpt>
      <trkpt lat="47.45978" lon="-1.6105">
        <ele>64.949898</ele>
        <time>2022-12-15T17:10:32.639Z</time>
      </trkpt>
      <trkpt lat="47.45982" lon="-1.61034">
        <ele>64.780501</ele>
        <time>2022-12-15T17:10:35.635Z</time>
      </trkpt>
      <trkpt lat="47.45985" lon="-1.61016">
        <ele>64.591974</ele>
        <time>2022-12-15T17:10:38.636Z</time>
      </trkpt>
      <trkpt lat="47.45991" lon="-1.60999">
        <ele>64.394087</ele>
        <time>2022-12-15T17:10:41.649Z</time>
      </trkpt>
      <trkpt lat="47.45998" lon="-1.60984">
        <ele>64.206696</ele>
        <time>2022-12-15T17:10:44.653Z</time>
      </trkpt>
      <trkpt lat="47.46002" lon="-1.60967">
        <ele>64.020137</ele>
        <time>2022-12-15T17:10:47.635Z</time>
      </trkpt>
      <trkpt lat="47.46007" lon="-1.60949">
        <ele>63.830865</ele>
        <time>2022-12-15T17:10:50.638Z</time>
      </trkpt>
      <trkpt lat="47.46012" lon="-1.60932">
        <ele>63.635175</ele>
        <time>2022-12-15T17:10:53.640Z</time>
      </trkpt>
      <trkpt lat="47.46016" lon="-1.60913">
        <ele>63.442952</ele>
        <time>2022-12-15T17:10:56.643Z</time>
      </trkpt>
      <trkpt lat="47.46018" lon="-1.60896">
        <ele>63.256096</ele>
        <time>2022-12-15T17:10:59.640Z</time>
      </trkpt>
      <trkpt lat="47.46019" lon="-1.60878">
        <ele>63.074437</ele>
        <time>2022-12-15T17:11:02.646Z</time>
      </trkpt>
      <trkpt lat="47.46018" lon="-1.60862">
        <ele>62.916058</ele>
        <time>2022-12-15T17:11:05.635Z</time>
      </trkpt>
      <trkpt lat="47.46016" lon="-1.60849">
        <ele>62.776394</ele>
        <time>2022-12-15T17:11:08.633Z</time>
      </trkpt>
      <trkpt lat="47.46014" lon="-1.60831">
        <ele>62.623921</ele>
        <time>2022-12-15T17:11:11.635Z</time>
      </trkpt>
      <trkpt lat="47.46012" lon="-1.60813">
        <ele>62.699558</ele>
        <time>2022-12-15T17:11:14.638Z</time>
      </trkpt>
      <trkpt lat="47.4601" lon="-1.60795">
        <ele>62.775185</ele>
        <time>2022-12-15T17:11:17.652Z</time>
      </trkpt>
      <trkpt lat="47.46009" lon="-1.60778">
        <ele>62.84819</ele>
        <time>2022-12-15T17:11:20.642Z</time>
      </trkpt>
      <trkpt lat="47.46006" lon="-1.60765">
        <ele>62.905699</ele>
        <time>2022-12-15T17:11:22.646Z</time>
      </trkpt>
      <trkpt lat="47.45999" lon="-1.6075">
        <ele>62.978781</ele>
        <time>2022-12-15T17:11:24.638Z</time>
      </trkpt>
      <trkpt lat="47.45996" lon="-1.60734">
        <ele>63.045752</ele>
        <time>2022-12-15T17:11:27.636Z</time>
      </trkpt>
      <trkpt lat="47.45992" lon="-1.60722">
        <ele>63.102498</ele>
        <time>2022-12-15T17:11:29.632Z</time>
      </trkpt>
      <trkpt lat="47.45986" lon="-1.60711">
        <ele>63.161042</ele>
        <time>2022-12-15T17:11:32.659Z</time>
      </trkpt>
      <trkpt lat="47.45979" lon="-1.60698">
        <ele>63.230734</ele>
        <time>2022-12-15T17:11:35.647Z</time>
      </trkpt>
      <trkpt lat="47.45971" lon="-1.60685">
        <ele>63.303433</ele>
        <time>2022-12-15T17:11:38.645Z</time>
      </trkpt>
      <trkpt lat="47.45965" lon="-1.60675">
        <ele>63.359549</ele>
        <time>2022-12-15T17:11:40.630Z</time>
      </trkpt>
      <trkpt lat="47.45958" lon="-1.60662">
        <ele>63.428251</ele>
        <time>2022-12-15T17:11:43.638Z</time>
      </trkpt>
      <trkpt lat="47.45949" lon="-1.60651">
        <ele>63.500725</ele>
        <time>2022-12-15T17:11:47.635Z</time>
      </trkpt>
      <trkpt lat="47.4594" lon="-1.60642">
        <ele>63.566505</ele>
        <time>2022-12-15T17:11:50.635Z</time>
      </trkpt>
      <trkpt lat="47.45933" lon="-1.60633">
        <ele>63.623605</ele>
        <time>2022-12-15T17:11:53.646Z</time>
      </trkpt>
      <trkpt lat="47.45925" lon="-1.60622">
        <ele>63.692195</ele>
        <time>2022-12-15T17:11:56.636Z</time>
      </trkpt>
      <trkpt lat="47.45915" lon="-1.60614">
        <ele>63.691436</ele>
        <time>2022-12-15T17:11:59.636Z</time>
      </trkpt>
      <trkpt lat="47.45905" lon="-1.60603">
        <ele>63.636257</ele>
        <time>2022-12-15T17:12:02.633Z</time>
      </trkpt>
      <trkpt lat="47.45895" lon="-1.60593">
        <ele>63.585066</ele>
        <time>2022-12-15T17:12:05.654Z</time>
      </trkpt>
      <trkpt lat="47.45886" lon="-1.60581">
        <ele>63.529842</ele>
        <time>2022-12-15T17:12:08.635Z</time>
      </trkpt>
      <trkpt lat="47.45875" lon="-1.60571">
        <ele>63.47464</ele>
        <time>2022-12-15T17:12:11.633Z</time>
      </trkpt>
      <trkpt lat="47.45867" lon="-1.60562">
        <ele>63.428263</ele>
        <time>2022-12-15T17:12:14.635Z</time>
      </trkpt>
      <trkpt lat="47.45858" lon="-1.60555">
        <ele>63.38576</ele>
        <time>2022-12-15T17:12:16.641Z</time>
      </trkpt>
      <trkpt lat="47.45847" lon="-1.60544">
        <ele>63.328111</ele>
        <time>2022-12-15T17:12:19.635Z</time>
      </trkpt>
      <trkpt lat="47.45839" lon="-1.60533">
        <ele>63.281825</ele>
        <time>2022-12-15T17:12:22.634Z</time>
      </trkpt>
      <trkpt lat="47.4583" lon="-1.60523">
        <ele>63.23229</ele>
        <time>2022-12-15T17:12:24.640Z</time>
      </trkpt>
      <trkpt lat="47.45822" lon="-1.60517">
        <ele>63.192029</ele>
        <time>2022-12-15T17:12:26.635Z</time>
      </trkpt>
      <trkpt lat="47.45813" lon="-1.60508">
        <ele>63.145949</ele>
        <time>2022-12-15T17:12:28.641Z</time>
      </trkpt>
      <trkpt lat="47.45803" lon="-1.60498">
        <ele>63.091916</ele>
        <time>2022-12-15T17:12:31.644Z</time>
      </trkpt>
      <trkpt lat="47.45793" lon="-1.60489">
        <ele>63.041816</ele>
        <time>2022-12-15T17:12:34.645Z</time>
      </trkpt>
      <trkpt lat="47.45783" lon="-1.60478">
        <ele>62.986637</ele>
        <time>2022-12-15T17:12:37.630Z</time>
      </trkpt>
      <trkpt lat="47.45772" lon="-1.60466">
        <ele>62.945146</ele>
        <time>2022-12-15T17:12:40.638Z</time>
      </trkpt>
      <trkpt lat="47.45761" lon="-1.60455">
        <ele>63.030576</ele>
        <time>2022-12-15T17:12:43.645Z</time>
      </trkpt>
      <trkpt lat="47.45752" lon="-1.60448">
        <ele>63.095572</ele>
        <time>2022-12-15T17:12:45.646Z</time>
      </trkpt>
      <trkpt lat="47.45743" lon="-1.6044">
        <ele>63.159414</ele>
        <time>2022-12-15T17:12:47.632Z</time>
      </trkpt>
      <trkpt lat="47.45733" lon="-1.60428">
        <ele>63.242718</ele>
        <time>2022-12-15T17:12:50.631Z</time>
      </trkpt>
      <trkpt lat="47.45725" lon="-1.6042">
        <ele>63.300301</ele>
        <time>2022-12-15T17:12:52.657Z</time>
      </trkpt>
      <trkpt lat="47.45714" lon="-1.60408">
        <ele>63.388464</ele>
        <time>2022-12-15T17:12:55.641Z</time>
      </trkpt>
      <trkpt lat="47.45704" lon="-1.60397">
        <ele>63.469785</ele>
        <time>2022-12-15T17:12:58.634Z</time>
      </trkpt>
      <trkpt lat="47.45694" lon="-1.60387">
        <ele>63.547768</ele>
        <time>2022-12-15T17:13:01.641Z</time>
      </trkpt>
      <trkpt lat="47.45683" lon="-1.60377">
        <ele>63.629047</ele>
        <time>2022-12-15T17:13:04.650Z</time>
      </trkpt>
      <trkpt lat="47.45674" lon="-1.60367">
        <ele>63.700667</ele>
        <time>2022-12-15T17:13:07.636Z</time>
      </trkpt>
      <trkpt lat="47.45665" lon="-1.60356">
        <ele>63.771675</ele>
        <time>2022-12-15T17:13:10.634Z</time>
      </trkpt>
      <trkpt lat="47.45655" lon="-1.60346">
        <ele>63.849121</ele>
        <time>2022-12-15T17:13:13.647Z</time>
      </trkpt>
      <trkpt lat="47.45645" lon="-1.60336">
        <ele>63.925901</ele>
        <time>2022-12-15T17:13:16.650Z</time>
      </trkpt>
      <trkpt lat="47.45638" lon="-1.60327">
        <ele>63.984247</ele>
        <time>2022-12-15T17:13:18.646Z</time>
      </trkpt>
      <trkpt lat="47.4563" lon="-1.6032">
        <ele>64.041745</ele>
        <time>2022-12-15T17:13:20.641Z</time>
      </trkpt>
      <trkpt lat="47.45618" lon="-1.6031">
        <ele>63.86858</ele>
        <time>2022-12-15T17:13:23.634Z</time>
      </trkpt>
      <trkpt lat="47.45611" lon="-1.60302">
        <ele>63.651035</ele>
        <time>2022-12-15T17:13:25.653Z</time>
      </trkpt>
      <trkpt lat="47.45602" lon="-1.60294">
        <ele>63.405654</ele>
        <time>2022-12-15T17:13:27.634Z</time>
      </trkpt>
      <trkpt lat="47.45591" lon="-1.60283">
        <ele>63.094855</ele>
        <time>2022-12-15T17:13:30.638Z</time>
      </trkpt>
      <trkpt lat="47.45581" lon="-1.60271">
        <ele>62.782984</ele>
        <time>2022-12-15T17:13:33.639Z</time>
      </trkpt>
      <trkpt lat="47.45571" lon="-1.60262">
        <ele>62.51151</ele>
        <time>2022-12-15T17:13:36.635Z</time>
      </trkpt>
      <trkpt lat="47.45562" lon="-1.60253">
        <ele>62.243702</ele>
        <time>2022-12-15T17:13:39.634Z</time>
      </trkpt>
      <trkpt lat="47.45554" lon="-1.60243">
        <ele>61.997954</ele>
        <time>2022-12-15T17:13:42.638Z</time>
      </trkpt>
      <trkpt lat="47.45544" lon="-1.60232">
        <ele>61.709985</ele>
        <time>2022-12-15T17:13:45.651Z</time>
      </trkpt>
      <trkpt lat="47.45534" lon="-1.60222">
        <ele>61.41354</ele>
        <time>2022-12-15T17:13:48.636Z</time>
      </trkpt>
      <trkpt lat="47.45524" lon="-1.60208">
        <ele>61.08512</ele>
        <time>2022-12-15T17:13:51.651Z</time>
      </trkpt>
      <trkpt lat="47.45515" lon="-1.60195">
        <ele>60.786457</ele>
        <time>2022-12-15T17:13:54.646Z</time>
      </trkpt>
      <trkpt lat="47.45507" lon="-1.60185">
        <ele>60.530565</ele>
        <time>2022-12-15T17:13:57.640Z</time>
      </trkpt>
      <trkpt lat="47.45499" lon="-1.60176">
        <ele>60.303927</ele>
        <time>2022-12-15T17:14:00.638Z</time>
      </trkpt>
      <trkpt lat="47.45492" lon="-1.60167">
        <ele>60.075019</ele>
        <time>2022-12-15T17:14:03.654Z</time>
      </trkpt>
      <trkpt lat="47.45485" lon="-1.60154">
        <ele>59.812133</ele>
        <time>2022-12-15T17:14:06.640Z</time>
      </trkpt>
      <trkpt lat="47.45478" lon="-1.60141">
        <ele>59.827406</ele>
        <time>2022-12-15T17:14:09.646Z</time>
      </trkpt>
      <trkpt lat="47.45471" lon="-1.60126">
        <ele>59.86263</ele>
        <time>2022-12-15T17:14:12.643Z</time>
      </trkpt>
      <trkpt lat="47.45467" lon="-1.60113">
        <ele>59.89325</ele>
        <time>2022-12-15T17:14:15.632Z</time>
      </trkpt>
      <trkpt lat="47.4546" lon="-1.60099">
        <ele>59.926486</ele>
        <time>2022-12-15T17:14:18.639Z</time>
      </trkpt>
      <trkpt lat="47.45455" lon="-1.60084">
        <ele>59.960227</ele>
        <time>2022-12-15T17:14:21.635Z</time>
      </trkpt>
      <trkpt lat="47.45447" lon="-1.60068">
        <ele>59.998928</ele>
        <time>2022-12-15T17:14:24.651Z</time>
      </trkpt>
      <trkpt lat="47.45441" lon="-1.60055">
        <ele>60.031836</ele>
        <time>2022-12-15T17:14:27.636Z</time>
      </trkpt>
      <trkpt lat="47.45436" lon="-1.6004">
        <ele>60.065051</ele>
        <time>2022-12-15T17:14:30.632Z</time>
      </trkpt>
      <trkpt lat="47.4543" lon="-1.60026">
        <ele>60.09795</ele>
        <time>2022-12-15T17:14:33.638Z</time>
      </trkpt>
      <trkpt lat="47.45425" lon="-1.6001">
        <ele>60.132129</ele>
        <time>2022-12-15T17:14:36.651Z</time>
      </trkpt>
      <trkpt lat="47.45419" lon="-1.59993">
        <ele>60.169956</ele>
        <time>2022-12-15T17:14:39.634Z</time>
      </trkpt>
      <trkpt lat="47.45414" lon="-1.59978">
        <ele>60.205159</ele>
        <time>2022-12-15T17:14:42.637Z</time>
      </trkpt>
      <trkpt lat="47.45407" lon="-1.59961">
        <ele>60.245057</ele>
        <time>2022-12-15T17:14:45.636Z</time>
      </trkpt>
      <trkpt lat="47.45401" lon="-1.59945">
        <ele>60.281082</ele>
        <time>2022-12-15T17:14:48.642Z</time>
      </trkpt>
      <trkpt lat="47.45395" lon="-1.59928">
        <ele>60.319222</ele>
        <time>2022-12-15T17:14:51.643Z</time>
      </trkpt>
      <trkpt lat="47.4539" lon="-1.5991">
        <ele>60.313635</ele>
        <time>2022-12-15T17:14:54.637Z</time>
      </trkpt>
      <trkpt lat="47.45384" lon="-1.59893">
        <ele>60.296748</ele>
        <time>2022-12-15T17:14:57.634Z</time>
      </trkpt>
      <trkpt lat="47.45377" lon="-1.59878">
        <ele>60.281101</ele>
        <time>2022-12-15T17:15:00.649Z</time>
      </trkpt>
      <trkpt lat="47.45373" lon="-1.59864">
        <ele>60.266771</ele>
        <time>2022-12-15T17:15:03.634Z</time>
      </trkpt>
      <trkpt lat="47.45367" lon="-1.59851">
        <ele>60.253681</ele>
        <time>2022-12-15T17:15:06.645Z</time>
      </trkpt>
      <trkpt lat="47.45362" lon="-1.59836">
        <ele>60.238953</ele>
        <time>2022-12-15T17:15:09.640Z</time>
      </trkpt>
      <trkpt lat="47.45357" lon="-1.59821">
        <ele>60.224112</ele>
        <time>2022-12-15T17:15:12.659Z</time>
      </trkpt>
      <trkpt lat="47.45353" lon="-1.59804">
        <ele>60.20855</ele>
        <time>2022-12-15T17:15:15.652Z</time>
      </trkpt>
      <trkpt lat="47.45348" lon="-1.59789">
        <ele>60.193392</ele>
        <time>2022-12-15T17:15:18.639Z</time>
      </trkpt>
      <trkpt lat="47.45343" lon="-1.59773">
        <ele>60.17788</ele>
        <time>2022-12-15T17:15:21.650Z</time>
      </trkpt>
      <trkpt lat="47.45338" lon="-1.59759">
        <ele>60.163886</ele>
        <time>2022-12-15T17:15:24.663Z</time>
      </trkpt>
      <trkpt lat="47.45333" lon="-1.59747">
        <ele>60.151339</ele>
        <time>2022-12-15T17:15:27.651Z</time>
      </trkpt>
      <trkpt lat="47.45327" lon="-1.59731">
        <ele>60.135514</ele>
        <time>2022-12-15T17:15:31.636Z</time>
      </trkpt>
      <trkpt lat="47.45323" lon="-1.59719">
        <ele>60.12289</ele>
        <time>2022-12-15T17:15:34.641Z</time>
      </trkpt>
      <trkpt lat="47.45318" lon="-1.59704">
        <ele>60.108541</ele>
        <time>2022-12-15T17:15:37.637Z</time>
      </trkpt>
      <trkpt lat="47.45312" lon="-1.59692">
        <ele>60.095373</ele>
        <time>2022-12-15T17:15:40.641Z</time>
      </trkpt>
      <trkpt lat="47.45307" lon="-1.59679">
        <ele>60.115861</ele>
        <time>2022-12-15T17:15:43.633Z</time>
      </trkpt>
      <trkpt lat="47.45302" lon="-1.59665">
        <ele>60.146031</ele>
        <time>2022-12-15T17:15:46.643Z</time>
      </trkpt>
      <trkpt lat="47.45298" lon="-1.5965">
        <ele>60.178818</ele>
        <time>2022-12-15T17:15:49.649Z</time>
      </trkpt>
      <trkpt lat="47.45293" lon="-1.59636">
        <ele>60.209784</ele>
        <time>2022-12-15T17:15:52.654Z</time>
      </trkpt>
      <trkpt lat="47.45287" lon="-1.5962">
        <ele>60.247458</ele>
        <time>2022-12-15T17:15:55.636Z</time>
      </trkpt>
      <trkpt lat="47.45282" lon="-1.59603">
        <ele>60.284846</ele>
        <time>2022-12-15T17:15:58.637Z</time>
      </trkpt>
      <trkpt lat="47.45276" lon="-1.59586">
        <ele>60.320993</ele>
        <time>2022-12-15T17:16:01.648Z</time>
      </trkpt>
      <trkpt lat="47.45271" lon="-1.5957">
        <ele>60.357779</ele>
        <time>2022-12-15T17:16:04.654Z</time>
      </trkpt>
      <trkpt lat="47.45266" lon="-1.59554">
        <ele>60.392861</ele>
        <time>2022-12-15T17:16:07.641Z</time>
      </trkpt>
      <trkpt lat="47.45261" lon="-1.59542">
        <ele>60.420516</ele>
        <time>2022-12-15T17:16:10.636Z</time>
      </trkpt>
      <trkpt lat="47.45255" lon="-1.59526">
        <ele>60.457033</ele>
        <time>2022-12-15T17:16:14.637Z</time>
      </trkpt>
      <trkpt lat="47.45251" lon="-1.59511">
        <ele>60.489178</ele>
        <time>2022-12-15T17:16:17.645Z</time>
      </trkpt>
      <trkpt lat="47.45246" lon="-1.59496">
        <ele>60.52245</ele>
        <time>2022-12-15T17:16:20.634Z</time>
      </trkpt>
      <trkpt lat="47.4524" lon="-1.59479">
        <ele>60.559575</ele>
        <time>2022-12-15T17:16:23.638Z</time>
      </trkpt>
      <trkpt lat="47.45235" lon="-1.59464">
        <ele>60.594307</ele>
        <time>2022-12-15T17:16:26.633Z</time>
      </trkpt>
      <trkpt lat="47.45231" lon="-1.59447">
        <ele>60.657189</ele>
        <time>2022-12-15T17:16:29.635Z</time>
      </trkpt>
      <trkpt lat="47.45227" lon="-1.59431">
        <ele>60.835116</ele>
        <time>2022-12-15T17:16:32.633Z</time>
      </trkpt>
      <trkpt lat="47.45223" lon="-1.59414">
        <ele>61.021947</ele>
        <time>2022-12-15T17:16:35.647Z</time>
      </trkpt>
      <trkpt lat="47.4522" lon="-1.59397">
        <ele>61.204737</ele>
        <time>2022-12-15T17:16:38.638Z</time>
      </trkpt>
      <trkpt lat="47.45216" lon="-1.5938">
        <ele>61.393097</ele>
        <time>2022-12-15T17:16:41.636Z</time>
      </trkpt>
      <trkpt lat="47.45213" lon="-1.59363">
        <ele>61.580731</ele>
        <time>2022-12-15T17:16:44.641Z</time>
      </trkpt>
      <trkpt lat="47.4521" lon="-1.59346">
        <ele>61.761741</ele>
        <time>2022-12-15T17:16:47.637Z</time>
      </trkpt>
      <trkpt lat="47.45207" lon="-1.59328">
        <ele>61.959047</ele>
        <time>2022-12-15T17:16:50.638Z</time>
      </trkpt>
      <trkpt lat="47.45204" lon="-1.5931">
        <ele>62.14887</ele>
        <time>2022-12-15T17:16:53.642Z</time>
      </trkpt>
      <trkpt lat="47.45202" lon="-1.59293">
        <ele>62.330899</ele>
        <time>2022-12-15T17:16:56.648Z</time>
      </trkpt>
      <trkpt lat="47.45199" lon="-1.59278">
        <ele>62.495211</ele>
        <time>2022-12-15T17:16:59.640Z</time>
      </trkpt>
      <trkpt lat="47.45196" lon="-1.59264">
        <ele>62.654305</ele>
        <time>2022-12-15T17:17:02.632Z</time>
      </trkpt>
      <trkpt lat="47.45194" lon="-1.59248">
        <ele>62.825438</ele>
        <time>2022-12-15T17:17:05.633Z</time>
      </trkpt>
      <trkpt lat="47.45192" lon="-1.59232">
        <ele>62.994631</ele>
        <time>2022-12-15T17:17:08.652Z</time>
      </trkpt>
      <trkpt lat="47.45189" lon="-1.59216">
        <ele>63.16678</ele>
        <time>2022-12-15T17:17:11.642Z</time>
      </trkpt>
      <trkpt lat="47.45186" lon="-1.59201">
        <ele>63.326976</ele>
        <time>2022-12-15T17:17:14.645Z</time>
      </trkpt>
      <trkpt lat="47.45184" lon="-1.59185">
        <ele>63.44924</ele>
        <time>2022-12-15T17:17:17.637Z</time>
      </trkpt>
      <trkpt lat="47.45181" lon="-1.59169">
        <ele>63.530049</ele>
        <time>2022-12-15T17:17:20.657Z</time>
      </trkpt>
      <trkpt lat="47.45179" lon="-1.59152">
        <ele>63.610885</ele>
        <time>2022-12-15T17:17:23.644Z</time>
      </trkpt>
      <trkpt lat="47.45176" lon="-1.59136">
        <ele>63.690791</ele>
        <time>2022-12-15T17:17:26.633Z</time>
      </trkpt>
      <trkpt lat="47.45174" lon="-1.59122">
        <ele>63.763971</ele>
        <time>2022-12-15T17:17:29.635Z</time>
      </trkpt>
      <trkpt lat="47.45171" lon="-1.59108">
        <ele>63.833699</ele>
        <time>2022-12-15T17:17:32.633Z</time>
      </trkpt>
      <trkpt lat="47.45168" lon="-1.59093">
        <ele>63.905879</ele>
        <time>2022-12-15T17:17:35.650Z</time>
      </trkpt>
      <trkpt lat="47.45166" lon="-1.59079">
        <ele>63.975865</ele>
        <time>2022-12-15T17:17:38.634Z</time>
      </trkpt>
      <trkpt lat="47.45163" lon="-1.59064">
        <ele>64.051293</ele>
        <time>2022-12-15T17:17:41.634Z</time>
      </trkpt>
      <trkpt lat="47.45161" lon="-1.59048">
        <ele>64.12976</ele>
        <time>2022-12-15T17:17:44.634Z</time>
      </trkpt>
      <trkpt lat="47.45159" lon="-1.59031">
        <ele>64.213873</ele>
        <time>2022-12-15T17:17:47.635Z</time>
      </trkpt>
      <trkpt lat="47.45156" lon="-1.59014">
        <ele>64.300029</ele>
        <time>2022-12-15T17:17:50.638Z</time>
      </trkpt>
      <trkpt lat="47.45153" lon="-1.58997">
        <ele>64.384929</ele>
        <time>2022-12-15T17:17:53.641Z</time>
      </trkpt>
      <trkpt lat="47.45151" lon="-1.58982">
        <ele>64.460236</ele>
        <time>2022-12-15T17:17:56.637Z</time>
      </trkpt>
      <trkpt lat="47.45149" lon="-1.58968">
        <ele>64.525965</ele>
        <time>2022-12-15T17:17:59.640Z</time>
      </trkpt>
      <trkpt lat="47.45147" lon="-1.58952">
        <ele>64.604158</ele>
        <time>2022-12-15T17:18:02.638Z</time>
      </trkpt>
      <trkpt lat="47.45144" lon="-1.58936">
        <ele>64.685439</ele>
        <time>2022-12-15T17:18:05.638Z</time>
      </trkpt>
      <trkpt lat="47.45142" lon="-1.58919">
        <ele>64.675677</ele>
        <time>2022-12-15T17:18:08.638Z</time>
      </trkpt>
      <trkpt lat="47.45139" lon="-1.58902">
        <ele>64.659015</ele>
        <time>2022-12-15T17:18:11.638Z</time>
      </trkpt>
      <trkpt lat="47.45136" lon="-1.58884">
        <ele>64.64138</ele>
        <time>2022-12-15T17:18:14.638Z</time>
      </trkpt>
      <trkpt lat="47.45133" lon="-1.58868">
        <ele>64.625185</ele>
        <time>2022-12-15T17:18:17.654Z</time>
      </trkpt>
      <trkpt lat="47.45131" lon="-1.58851">
        <ele>64.608457</ele>
        <time>2022-12-15T17:18:20.639Z</time>
      </trkpt>
      <trkpt lat="47.45128" lon="-1.58831">
        <ele>64.589457</ele>
        <time>2022-12-15T17:18:23.633Z</time>
      </trkpt>
      <trkpt lat="47.45126" lon="-1.58818">
        <ele>64.576306</ele>
        <time>2022-12-15T17:18:25.649Z</time>
      </trkpt>
      <trkpt lat="47.45124" lon="-1.58799">
        <ele>64.557689</ele>
        <time>2022-12-15T17:18:28.643Z</time>
      </trkpt>
      <trkpt lat="47.45122" lon="-1.58785">
        <ele>64.544834</ele>
        <time>2022-12-15T17:18:31.634Z</time>
      </trkpt>
      <trkpt lat="47.45121" lon="-1.58772">
        <ele>64.531788</ele>
        <time>2022-12-15T17:18:33.636Z</time>
      </trkpt>
      <trkpt lat="47.45121" lon="-1.58758">
        <ele>64.518828</ele>
        <time>2022-12-15T17:18:35.634Z</time>
      </trkpt>
      <trkpt lat="47.45121" lon="-1.58744">
        <ele>64.504819</ele>
        <time>2022-12-15T17:18:37.653Z</time>
      </trkpt>
      <trkpt lat="47.45121" lon="-1.58728">
        <ele>64.489745</ele>
        <time>2022-12-15T17:18:39.637Z</time>
      </trkpt>
      <trkpt lat="47.4512" lon="-1.58713">
        <ele>64.475032</ele>
        <time>2022-12-15T17:18:41.654Z</time>
      </trkpt>
      <trkpt lat="47.4512" lon="-1.58695">
        <ele>64.457665</ele>
        <time>2022-12-15T17:18:44.637Z</time>
      </trkpt>
      <trkpt lat="47.45121" lon="-1.58678">
        <ele>64.441648</ele>
        <time>2022-12-15T17:18:47.633Z</time>
      </trkpt>
      <trkpt lat="47.45122" lon="-1.58661">
        <ele>64.418525</ele>
        <time>2022-12-15T17:18:50.634Z</time>
      </trkpt>
      <trkpt lat="47.45121" lon="-1.58643">
        <ele>64.39092</ele>
        <time>2022-12-15T17:18:53.635Z</time>
      </trkpt>
      <trkpt lat="47.4512" lon="-1.58624">
        <ele>64.362054</ele>
        <time>2022-12-15T17:18:56.638Z</time>
      </trkpt>
      <trkpt lat="47.4512" lon="-1.58605">
        <ele>64.332816</ele>
        <time>2022-12-15T17:18:59.646Z</time>
      </trkpt>
      <trkpt lat="47.4512" lon="-1.58588">
        <ele>64.305699</ele>
        <time>2022-12-15T17:19:02.648Z</time>
      </trkpt>
      <trkpt lat="47.45121" lon="-1.5857">
        <ele>64.2786</ele>
        <time>2022-12-15T17:19:05.657Z</time>
      </trkpt>
      <trkpt lat="47.45119" lon="-1.58554">
        <ele>64.25295</ele>
        <time>2022-12-15T17:19:08.643Z</time>
      </trkpt>
      <trkpt lat="47.45119" lon="-1.5854">
        <ele>64.23155</ele>
        <time>2022-12-15T17:19:11.646Z</time>
      </trkpt>
      <trkpt lat="47.45118" lon="-1.58526">
        <ele>64.21039</ele>
        <time>2022-12-15T17:19:14.643Z</time>
      </trkpt>
      <trkpt lat="47.45118" lon="-1.58512">
        <ele>64.188221</ele>
        <time>2022-12-15T17:19:18.645Z</time>
      </trkpt>
      <trkpt lat="47.45118" lon="-1.58496">
        <ele>64.164044</ele>
        <time>2022-12-15T17:19:22.637Z</time>
      </trkpt>
      <trkpt lat="47.4512" lon="-1.58481">
        <ele>64.141247</ele>
        <time>2022-12-15T17:19:26.644Z</time>
      </trkpt>
      <trkpt lat="47.4512" lon="-1.58466">
        <ele>64.117378</ele>
        <time>2022-12-15T17:19:31.646Z</time>
      </trkpt>
      <trkpt lat="47.45121" lon="-1.58452">
        <ele>64.095715</ele>
        <time>2022-12-15T17:19:37.637Z</time>
      </trkpt>
      <trkpt lat="47.45118" lon="-1.58439">
        <ele>64.074199</ele>
        <time>2022-12-15T17:19:42.646Z</time>
      </trkpt>
      <trkpt lat="47.45117" lon="-1.58424">
        <ele>64.050908</ele>
        <time>2022-12-15T17:19:48.633Z</time>
      </trkpt>
      <trkpt lat="47.45125" lon="-1.58417">
        <ele>64.028891</ele>
        <time>2022-12-15T17:20:21.637Z</time>
      </trkpt>
      <trkpt lat="47.45133" lon="-1.58411">
        <ele>63.957868</ele>
        <time>2022-12-15T17:20:31.637Z</time>
      </trkpt>
      <trkpt lat="47.45134" lon="-1.584">
        <ele>63.893341</ele>
        <time>2022-12-15T17:21:13.715Z</time>
      </trkpt>
      <trkpt lat="47.45131" lon="-1.58386">
        <ele>63.811206</ele>
        <time>2022-12-15T17:25:40.648Z</time>
      </trkpt>
      <trkpt lat="47.45125" lon="-1.58366">
        <ele>63.686929</ele>
        <time>2022-12-15T17:25:43.648Z</time>
      </trkpt>
      <trkpt lat="47.45122" lon="-1.5835">
        <ele>63.592168</ele>
        <time>2022-12-15T17:25:45.653Z</time>
      </trkpt>
      <trkpt lat="47.45118" lon="-1.58337">
        <ele>63.508956</ele>
        <time>2022-12-15T17:25:47.639Z</time>
      </trkpt>
      <trkpt lat="47.45113" lon="-1.58325">
        <ele>63.432641</ele>
        <time>2022-12-15T17:25:49.647Z</time>
      </trkpt>
      <trkpt lat="47.45107" lon="-1.58309">
        <ele>63.325933</ele>
        <time>2022-12-15T17:25:52.634Z</time>
      </trkpt>
      <trkpt lat="47.45101" lon="-1.58295">
        <ele>63.233686</ele>
        <time>2022-12-15T17:25:55.657Z</time>
      </trkpt>
      <trkpt lat="47.45096" lon="-1.58282">
        <ele>63.151362</ele>
        <time>2022-12-15T17:25:58.644Z</time>
      </trkpt>
      <trkpt lat="47.45091" lon="-1.58269">
        <ele>63.062214</ele>
        <time>2022-12-15T17:26:02.651Z</time>
      </trkpt>
      <trkpt lat="47.45086" lon="-1.58256">
        <ele>62.977191</ele>
        <time>2022-12-15T17:26:06.644Z</time>
      </trkpt>
      <trkpt lat="47.4508" lon="-1.58241">
        <ele>62.882488</ele>
        <time>2022-12-15T17:26:10.641Z</time>
      </trkpt>
      <trkpt lat="47.45076" lon="-1.58228">
        <ele>62.799635</ele>
        <time>2022-12-15T17:26:13.654Z</time>
      </trkpt>
      <trkpt lat="47.45071" lon="-1.58214">
        <ele>62.707314</ele>
        <time>2022-12-15T17:26:16.651Z</time>
      </trkpt>
      <trkpt lat="47.45066" lon="-1.58199">
        <ele>62.617152</ele>
        <time>2022-12-15T17:26:19.648Z</time>
      </trkpt>
      <trkpt lat="47.45062" lon="-1.58186">
        <ele>62.53034</ele>
        <time>2022-12-15T17:26:22.642Z</time>
      </trkpt>
      <trkpt lat="47.45054" lon="-1.58158">
        <ele>62.34914</ele>
        <time>2022-12-15T17:26:44.649Z</time>
      </trkpt>
      <trkpt lat="47.45051" lon="-1.58144">
        <ele>62.260796</ele>
        <time>2022-12-15T17:26:48.634Z</time>
      </trkpt>
      <trkpt lat="47.45048" lon="-1.58128">
        <ele>62.156843</ele>
        <time>2022-12-15T17:26:52.650Z</time>
      </trkpt>
      <trkpt lat="47.45045" lon="-1.58113">
        <ele>62.065707</ele>
        <time>2022-12-15T17:26:55.634Z</time>
      </trkpt>
      <trkpt lat="47.45042" lon="-1.58097">
        <ele>61.963534</ele>
        <time>2022-12-15T17:26:58.647Z</time>
      </trkpt>
      <trkpt lat="47.4504" lon="-1.58079">
        <ele>61.855668</ele>
        <time>2022-12-15T17:27:01.641Z</time>
      </trkpt>
      <trkpt lat="47.45037" lon="-1.58062">
        <ele>61.747597</ele>
        <time>2022-12-15T17:27:04.638Z</time>
      </trkpt>
      <trkpt lat="47.45034" lon="-1.58044">
        <ele>61.636177</ele>
        <time>2022-12-15T17:27:07.637Z</time>
      </trkpt>
      <trkpt lat="47.45032" lon="-1.58027">
        <ele>61.527098</ele>
        <time>2022-12-15T17:27:10.648Z</time>
      </trkpt>
      <trkpt lat="47.45029" lon="-1.5801">
        <ele>61.422348</ele>
        <time>2022-12-15T17:27:13.643Z</time>
      </trkpt>
      <trkpt lat="47.45027" lon="-1.57993">
        <ele>61.318386</ele>
        <time>2022-12-15T17:27:16.634Z</time>
      </trkpt>
      <trkpt lat="47.45024" lon="-1.57976">
        <ele>61.212589</ele>
        <time>2022-12-15T17:27:19.644Z</time>
      </trkpt>
      <trkpt lat="47.45021" lon="-1.57959">
        <ele>61.103924</ele>
        <time>2022-12-15T17:27:22.635Z</time>
      </trkpt>
      <trkpt lat="47.45019" lon="-1.57944">
        <ele>61.009848</ele>
        <time>2022-12-15T17:27:25.643Z</time>
      </trkpt>
      <trkpt lat="47.45017" lon="-1.5793">
        <ele>60.923118</ele>
        <time>2022-12-15T17:27:28.645Z</time>
      </trkpt>
      <trkpt lat="47.45014" lon="-1.57915">
        <ele>60.919942</ele>
        <time>2022-12-15T17:27:31.647Z</time>
      </trkpt>
      <trkpt lat="47.45011" lon="-1.57899">
        <ele>60.946906</ele>
        <time>2022-12-15T17:27:34.650Z</time>
      </trkpt>
      <trkpt lat="47.45009" lon="-1.57882">
        <ele>60.974761</ele>
        <time>2022-12-15T17:27:37.641Z</time>
      </trkpt>
      <trkpt lat="47.45007" lon="-1.57865">
        <ele>61.003254</ele>
        <time>2022-12-15T17:27:40.655Z</time>
      </trkpt>
      <trkpt lat="47.45004" lon="-1.57851">
        <ele>61.026601</ele>
        <time>2022-12-15T17:27:43.651Z</time>
      </trkpt>
      <trkpt lat="47.45002" lon="-1.57835">
        <ele>61.053234</ele>
        <time>2022-12-15T17:27:47.649Z</time>
      </trkpt>
      <trkpt lat="47.45" lon="-1.57822">
        <ele>61.075623</ele>
        <time>2022-12-15T17:27:50.652Z</time>
      </trkpt>
      <trkpt lat="47.44997" lon="-1.57807">
        <ele>61.099661</ele>
        <time>2022-12-15T17:27:53.649Z</time>
      </trkpt>
      <trkpt lat="47.44996" lon="-1.57792">
        <ele>61.12456</ele>
        <time>2022-12-15T17:27:56.641Z</time>
      </trkpt>
      <trkpt lat="47.44993" lon="-1.57777">
        <ele>61.150798</ele>
        <time>2022-12-15T17:27:59.658Z</time>
      </trkpt>
      <trkpt lat="47.4499" lon="-1.57761">
        <ele>61.177804</ele>
        <time>2022-12-15T17:28:02.639Z</time>
      </trkpt>
      <trkpt lat="47.44986" lon="-1.57745">
        <ele>61.204389</ele>
        <time>2022-12-15T17:28:05.640Z</time>
      </trkpt>
      <trkpt lat="47.44983" lon="-1.5773">
        <ele>61.23076</ele>
        <time>2022-12-15T17:28:08.639Z</time>
      </trkpt>
      <trkpt lat="47.44979" lon="-1.57715">
        <ele>61.257828</ele>
        <time>2022-12-15T17:28:11.654Z</time>
      </trkpt>
      <trkpt lat="47.44974" lon="-1.57699">
        <ele>61.286008</ele>
        <time>2022-12-15T17:28:14.641Z</time>
      </trkpt>
      <trkpt lat="47.44969" lon="-1.57683">
        <ele>61.314783</ele>
        <time>2022-12-15T17:28:17.661Z</time>
      </trkpt>
      <trkpt lat="47.44964" lon="-1.57668">
        <ele>61.341251</ele>
        <time>2022-12-15T17:28:20.649Z</time>
      </trkpt>
      <trkpt lat="47.44959" lon="-1.57657">
        <ele>61.36609</ele>
        <time>2022-12-15T17:28:23.648Z</time>
      </trkpt>
      <trkpt lat="47.44954" lon="-1.57644">
        <ele>61.393588</ele>
        <time>2022-12-15T17:28:26.639Z</time>
      </trkpt>
      <trkpt lat="47.44947" lon="-1.57631">
        <ele>61.421385</ele>
        <time>2022-12-15T17:28:29.638Z</time>
      </trkpt>
      <trkpt lat="47.44942" lon="-1.57618">
        <ele>61.448472</ele>
        <time>2022-12-15T17:28:32.635Z</time>
      </trkpt>
      <trkpt lat="47.44937" lon="-1.57607">
        <ele>61.472715</ele>
        <time>2022-12-15T17:28:35.647Z</time>
      </trkpt>
      <trkpt lat="47.44931" lon="-1.57594">
        <ele>61.499914</ele>
        <time>2022-12-15T17:28:39.653Z</time>
      </trkpt>
      <trkpt lat="47.44926" lon="-1.57583">
        <ele>61.52401</ele>
        <time>2022-12-15T17:28:46.635Z</time>
      </trkpt>
      <trkpt lat="47.44921" lon="-1.57572">
        <ele>61.548403</ele>
        <time>2022-12-15T17:29:04.637Z</time>
      </trkpt>
      <trkpt lat="47.44917" lon="-1.57562">
        <ele>61.568496</ele>
        <time>2022-12-15T17:29:25.946Z</time>
      </trkpt>
      <trkpt lat="47.4491" lon="-1.57541">
        <ele>61.610479</ele>
        <time>2022-12-15T17:31:51.641Z</time>
      </trkpt>
      <trkpt lat="47.44905" lon="-1.57529">
        <ele>61.635319</ele>
        <time>2022-12-15T17:31:55.640Z</time>
      </trkpt>
      <trkpt lat="47.44898" lon="-1.57514">
        <ele>61.669226</ele>
        <time>2022-12-15T17:31:58.638Z</time>
      </trkpt>
      <trkpt lat="47.4489" lon="-1.57497">
        <ele>61.704999</ele>
        <time>2022-12-15T17:32:01.657Z</time>
      </trkpt>
      <trkpt lat="47.44882" lon="-1.57482">
        <ele>61.739019</ele>
        <time>2022-12-15T17:32:04.647Z</time>
      </trkpt>
      <trkpt lat="47.44877" lon="-1.57467">
        <ele>61.770139</ele>
        <time>2022-12-15T17:32:07.641Z</time>
      </trkpt>
      <trkpt lat="47.44871" lon="-1.57453">
        <ele>61.79852</ele>
        <time>2022-12-15T17:32:10.655Z</time>
      </trkpt>
      <trkpt lat="47.44865" lon="-1.5744">
        <ele>61.84286</ele>
        <time>2022-12-15T17:32:13.632Z</time>
      </trkpt>
      <trkpt lat="47.4486" lon="-1.57428">
        <ele>61.889936</ele>
        <time>2022-12-15T17:32:16.642Z</time>
      </trkpt>
      <trkpt lat="47.44854" lon="-1.57416">
        <ele>61.938691</ele>
        <time>2022-12-15T17:32:19.653Z</time>
      </trkpt>
      <trkpt lat="47.44849" lon="-1.57403">
        <ele>61.989407</ele>
        <time>2022-12-15T17:32:22.650Z</time>
      </trkpt>
      <trkpt lat="47.44843" lon="-1.57389">
        <ele>62.04429</ele>
        <time>2022-12-15T17:32:25.651Z</time>
      </trkpt>
      <trkpt lat="47.44838" lon="-1.57374">
        <ele>62.102213</ele>
        <time>2022-12-15T17:32:28.651Z</time>
      </trkpt>
      <trkpt lat="47.44831" lon="-1.57358">
        <ele>62.163032</ele>
        <time>2022-12-15T17:32:31.645Z</time>
      </trkpt>
      <trkpt lat="47.44825" lon="-1.57342">
        <ele>62.224097</ele>
        <time>2022-12-15T17:32:34.648Z</time>
      </trkpt>
      <trkpt lat="47.44819" lon="-1.57326">
        <ele>62.286905</ele>
        <time>2022-12-15T17:32:37.656Z</time>
      </trkpt>
      <trkpt lat="47.44812" lon="-1.5731">
        <ele>62.349247</ele>
        <time>2022-12-15T17:32:40.653Z</time>
      </trkpt>
      <trkpt lat="47.44805" lon="-1.57294">
        <ele>62.41128</ele>
        <time>2022-12-15T17:32:43.655Z</time>
      </trkpt>
      <trkpt lat="47.44799" lon="-1.57278">
        <ele>62.475114</ele>
        <time>2022-12-15T17:32:46.647Z</time>
      </trkpt>
      <trkpt lat="47.44792" lon="-1.57262">
        <ele>62.538529</ele>
        <time>2022-12-15T17:32:49.650Z</time>
      </trkpt>
      <trkpt lat="47.44784" lon="-1.57247">
        <ele>62.601955</ele>
        <time>2022-12-15T17:32:52.662Z</time>
      </trkpt>
      <trkpt lat="47.44778" lon="-1.57233">
        <ele>62.659005</ele>
        <time>2022-12-15T17:32:55.656Z</time>
      </trkpt>
      <trkpt lat="47.44772" lon="-1.5722">
        <ele>62.702106</ele>
        <time>2022-12-15T17:32:58.640Z</time>
      </trkpt>
      <trkpt lat="47.44767" lon="-1.57208">
        <ele>62.718035</ele>
        <time>2022-12-15T17:33:01.649Z</time>
      </trkpt>
      <trkpt lat="47.44761" lon="-1.57196">
        <ele>62.735388</ele>
        <time>2022-12-15T17:33:04.658Z</time>
      </trkpt>
      <trkpt lat="47.44755" lon="-1.57182">
        <ele>62.754649</ele>
        <time>2022-12-15T17:33:07.640Z</time>
      </trkpt>
      <trkpt lat="47.44748" lon="-1.57167">
        <ele>62.775346</ele>
        <time>2022-12-15T17:33:10.643Z</time>
      </trkpt>
      <trkpt lat="47.44741" lon="-1.57152">
        <ele>62.797182</ele>
        <time>2022-12-15T17:33:13.646Z</time>
      </trkpt>
      <trkpt lat="47.44734" lon="-1.57136">
        <ele>62.818354</ele>
        <time>2022-12-15T17:33:16.661Z</time>
      </trkpt>
      <trkpt lat="47.44728" lon="-1.57122">
        <ele>62.837421</ele>
        <time>2022-12-15T17:33:19.646Z</time>
      </trkpt>
      <trkpt lat="47.44722" lon="-1.5711">
        <ele>62.855155</ele>
        <time>2022-12-15T17:33:22.649Z</time>
      </trkpt>
      <trkpt lat="47.44716" lon="-1.57095">
        <ele>62.874516</ele>
        <time>2022-12-15T17:33:25.645Z</time>
      </trkpt>
      <trkpt lat="47.44709" lon="-1.5708">
        <ele>62.895117</ele>
        <time>2022-12-15T17:33:28.640Z</time>
      </trkpt>
      <trkpt lat="47.44703" lon="-1.57065">
        <ele>62.916296</ele>
        <time>2022-12-15T17:33:31.644Z</time>
      </trkpt>
      <trkpt lat="47.44696" lon="-1.57049">
        <ele>62.938223</ele>
        <time>2022-12-15T17:33:34.661Z</time>
      </trkpt>
      <trkpt lat="47.44688" lon="-1.57033">
        <ele>62.960438</ele>
        <time>2022-12-15T17:33:37.639Z</time>
      </trkpt>
      <trkpt lat="47.44682" lon="-1.57018">
        <ele>62.98028</ele>
        <time>2022-12-15T17:33:40.650Z</time>
      </trkpt>
      <trkpt lat="47.44676" lon="-1.57005">
        <ele>62.998204</ele>
        <time>2022-12-15T17:33:43.648Z</time>
      </trkpt>
      <trkpt lat="47.4467" lon="-1.56991">
        <ele>63.052523</ele>
        <time>2022-12-15T17:33:46.651Z</time>
      </trkpt>
      <trkpt lat="47.44664" lon="-1.56976">
        <ele>63.128624</ele>
        <time>2022-12-15T17:33:49.639Z</time>
      </trkpt>
      <trkpt lat="47.44657" lon="-1.56959">
        <ele>63.208726</ele>
        <time>2022-12-15T17:33:52.642Z</time>
      </trkpt>
      <trkpt lat="47.44652" lon="-1.56948">
        <ele>63.265135</ele>
        <time>2022-12-15T17:33:54.664Z</time>
      </trkpt>
      <trkpt lat="47.44647" lon="-1.56936">
        <ele>63.325984</ele>
        <time>2022-12-15T17:33:56.659Z</time>
      </trkpt>
      <trkpt lat="47.44643" lon="-1.56924">
        <ele>63.384155</ele>
        <time>2022-12-15T17:33:58.643Z</time>
      </trkpt>
      <trkpt lat="47.44636" lon="-1.56909">
        <ele>63.4582</ele>
        <time>2022-12-15T17:34:01.664Z</time>
      </trkpt>
      <trkpt lat="47.4463" lon="-1.56895">
        <ele>63.52675</ele>
        <time>2022-12-15T17:34:04.641Z</time>
      </trkpt>
      <trkpt lat="47.44625" lon="-1.5688">
        <ele>63.598115</ele>
        <time>2022-12-15T17:34:07.641Z</time>
      </trkpt>
      <trkpt lat="47.44619" lon="-1.56865">
        <ele>63.668063</ele>
        <time>2022-12-15T17:34:10.643Z</time>
      </trkpt>
      <trkpt lat="47.44613" lon="-1.5685">
        <ele>63.741892</ele>
        <time>2022-12-15T17:34:13.642Z</time>
      </trkpt>
      <trkpt lat="47.44607" lon="-1.56834">
        <ele>63.818521</ele>
        <time>2022-12-15T17:34:16.639Z</time>
      </trkpt>
      <trkpt lat="47.44601" lon="-1.56818">
        <ele>63.895267</ele>
        <time>2022-12-15T17:34:19.640Z</time>
      </trkpt>
      <trkpt lat="47.44595" lon="-1.56802">
        <ele>63.973565</ele>
        <time>2022-12-15T17:34:22.647Z</time>
      </trkpt>
      <trkpt lat="47.44588" lon="-1.56786">
        <ele>64.052321</ele>
        <time>2022-12-15T17:34:25.648Z</time>
      </trkpt>
      <trkpt lat="47.44583" lon="-1.56771">
        <ele>64.117537</ele>
        <time>2022-12-15T17:34:28.657Z</time>
      </trkpt>
      <trkpt lat="47.44578" lon="-1.56759">
        <ele>64.067654</ele>
        <time>2022-12-15T17:34:31.640Z</time>
      </trkpt>
      <trkpt lat="47.44574" lon="-1.56746">
        <ele>64.015971</ele>
        <time>2022-12-15T17:34:34.650Z</time>
      </trkpt>
      <trkpt lat="47.44568" lon="-1.56732">
        <ele>63.956414</ele>
        <time>2022-12-15T17:34:38.644Z</time>
      </trkpt>
      <trkpt lat="47.44563" lon="-1.5672">
        <ele>63.90851</ele>
        <time>2022-12-15T17:34:42.640Z</time>
      </trkpt>
      <trkpt lat="47.44559" lon="-1.56707">
        <ele>63.85871</ele>
        <time>2022-12-15T17:34:47.649Z</time>
      </trkpt>
      <trkpt lat="47.44554" lon="-1.56693">
        <ele>63.804967</ele>
        <time>2022-12-15T17:34:52.648Z</time>
      </trkpt>
      <trkpt lat="47.44552" lon="-1.56679">
        <ele>63.754451</ele>
        <time>2022-12-15T17:34:57.650Z</time>
      </trkpt>
      <trkpt lat="47.4455" lon="-1.56665">
        <ele>63.701386</ele>
        <time>2022-12-15T17:35:04.648Z</time>
      </trkpt>
      <trkpt lat="47.44547" lon="-1.5665">
        <ele>63.646959</ele>
        <time>2022-12-15T17:35:10.651Z</time>
      </trkpt>
      <trkpt lat="47.44545" lon="-1.56636">
        <ele>63.59735</ele>
        <time>2022-12-15T17:35:12.642Z</time>
      </trkpt>
      <trkpt lat="47.44543" lon="-1.56619">
        <ele>63.536388</ele>
        <time>2022-12-15T17:35:14.653Z</time>
      </trkpt>
      <trkpt lat="47.44542" lon="-1.56601">
        <ele>63.473671</ele>
        <time>2022-12-15T17:35:16.649Z</time>
      </trkpt>
      <trkpt lat="47.44541" lon="-1.56585">
        <ele>63.415212</ele>
        <time>2022-12-15T17:35:18.645Z</time>
      </trkpt>
      <trkpt lat="47.44541" lon="-1.56569">
        <ele>63.359897</ele>
        <time>2022-12-15T17:35:20.648Z</time>
      </trkpt>
      <trkpt lat="47.4454" lon="-1.56554">
        <ele>63.30584</ele>
        <time>2022-12-15T17:35:22.663Z</time>
      </trkpt>
      <trkpt lat="47.4454" lon="-1.5654">
        <ele>63.256146</ele>
        <time>2022-12-15T17:35:24.648Z</time>
      </trkpt>
      <trkpt lat="47.4454" lon="-1.5652">
        <ele>63.185686</ele>
        <time>2022-12-15T17:35:27.647Z</time>
      </trkpt>
      <trkpt lat="47.4454" lon="-1.56505">
        <ele>63.221252</ele>
        <time>2022-12-15T17:35:29.652Z</time>
      </trkpt>
      <trkpt lat="47.44539" lon="-1.56491">
        <ele>63.260562</ele>
        <time>2022-12-15T17:35:31.644Z</time>
      </trkpt>
      <trkpt lat="47.44538" lon="-1.56477">
        <ele>63.299283</ele>
        <time>2022-12-15T17:35:33.646Z</time>
      </trkpt>
      <trkpt lat="47.44538" lon="-1.56464">
        <ele>63.337371</ele>
        <time>2022-12-15T17:35:35.643Z</time>
      </trkpt>
      <trkpt lat="47.44536" lon="-1.56449">
        <ele>63.379098</ele>
        <time>2022-12-15T17:35:37.638Z</time>
      </trkpt>
      <trkpt lat="47.44533" lon="-1.5643">
        <ele>63.433233</ele>
        <time>2022-12-15T17:35:40.651Z</time>
      </trkpt>
      <trkpt lat="47.44529" lon="-1.56414">
        <ele>63.481368</ele>
        <time>2022-12-15T17:35:43.651Z</time>
      </trkpt>
      <trkpt lat="47.44525" lon="-1.564">
        <ele>63.525244</ele>
        <time>2022-12-15T17:35:46.635Z</time>
      </trkpt>
      <trkpt lat="47.44519" lon="-1.56387">
        <ele>63.567426</ele>
        <time>2022-12-15T17:35:49.640Z</time>
      </trkpt>
      <trkpt lat="47.44511" lon="-1.56375">
        <ele>63.616119</ele>
        <time>2022-12-15T17:35:52.652Z</time>
      </trkpt>
      <trkpt lat="47.44501" lon="-1.56364">
        <ele>63.666519</ele>
        <time>2022-12-15T17:35:55.644Z</time>
      </trkpt>
      <trkpt lat="47.4449" lon="-1.56356">
        <ele>63.718596</ele>
        <time>2022-12-15T17:35:58.639Z</time>
      </trkpt>
      <trkpt lat="47.44477" lon="-1.5635">
        <ele>63.773276</ele>
        <time>2022-12-15T17:36:01.643Z</time>
      </trkpt>
      <trkpt lat="47.44468" lon="-1.56346">
        <ele>63.813714</ele>
        <time>2022-12-15T17:36:03.645Z</time>
      </trkpt>
      <trkpt lat="47.44455" lon="-1.56343">
        <ele>63.868332</ele>
        <time>2022-12-15T17:36:06.648Z</time>
      </trkpt>
      <trkpt lat="47.44443" lon="-1.56339">
        <ele>63.919452</ele>
        <time>2022-12-15T17:36:09.648Z</time>
      </trkpt>
      <trkpt lat="47.44431" lon="-1.56335">
        <ele>63.927175</ele>
        <time>2022-12-15T17:36:12.637Z</time>
      </trkpt>
      <trkpt lat="47.44421" lon="-1.56329">
        <ele>63.927175</ele>
        <time>2022-12-15T17:36:15.643Z</time>
      </trkpt>
      <trkpt lat="47.4441" lon="-1.56318">
        <ele>63.927175</ele>
        <time>2022-12-15T17:36:18.645Z</time>
      </trkpt>
      <trkpt lat="47.44404" lon="-1.56308">
        <ele>63.927175</ele>
        <time>2022-12-15T17:36:20.643Z</time>
      </trkpt>
      <trkpt lat="47.444" lon="-1.56296">
        <ele>63.927175</ele>
        <time>2022-12-15T17:36:22.656Z</time>
      </trkpt>
      <trkpt lat="47.44397" lon="-1.56282">
        <ele>63.927175</ele>
        <time>2022-12-15T17:36:24.649Z</time>
      </trkpt>
      <trkpt lat="47.44396" lon="-1.56269">
        <ele>63.927175</ele>
        <time>2022-12-15T17:36:26.649Z</time>
      </trkpt>
      <trkpt lat="47.44396" lon="-1.56255">
        <ele>63.927175</ele>
        <time>2022-12-15T17:36:28.649Z</time>
      </trkpt>
      <trkpt lat="47.44396" lon="-1.5624">
        <ele>63.927175</ele>
        <time>2022-12-15T17:36:30.660Z</time>
      </trkpt>
      <trkpt lat="47.44396" lon="-1.56225">
        <ele>63.927175</ele>
        <time>2022-12-15T17:36:32.652Z</time>
      </trkpt>
      <trkpt lat="47.44396" lon="-1.5621">
        <ele>63.927175</ele>
        <time>2022-12-15T17:36:34.660Z</time>
      </trkpt>
      <trkpt lat="47.44396" lon="-1.56195">
        <ele>63.927175</ele>
        <time>2022-12-15T17:36:36.644Z</time>
      </trkpt>
      <trkpt lat="47.44395" lon="-1.56181">
        <ele>63.927175</ele>
        <time>2022-12-15T17:36:38.636Z</time>
      </trkpt>
      <trkpt lat="47.44391" lon="-1.56164">
        <ele>63.927175</ele>
        <time>2022-12-15T17:36:41.638Z</time>
      </trkpt>
      <trkpt lat="47.44385" lon="-1.56149">
        <ele>63.927175</ele>
        <time>2022-12-15T17:36:44.654Z</time>
      </trkpt>
      <trkpt lat="47.44379" lon="-1.56136">
        <ele>63.927175</ele>
        <time>2022-12-15T17:36:47.642Z</time>
      </trkpt>
      <trkpt lat="47.4437" lon="-1.56124">
        <ele>63.927175</ele>
        <time>2022-12-15T17:36:50.638Z</time>
      </trkpt>
      <trkpt lat="47.4436" lon="-1.56112">
        <ele>63.927175</ele>
        <time>2022-12-15T17:36:53.640Z</time>
      </trkpt>
      <trkpt lat="47.4435" lon="-1.56103">
        <ele>63.927175</ele>
        <time>2022-12-15T17:36:56.642Z</time>
      </trkpt>
      <trkpt lat="47.4434" lon="-1.56094">
        <ele>63.927175</ele>
        <time>2022-12-15T17:36:59.643Z</time>
      </trkpt>
      <trkpt lat="47.44331" lon="-1.56084">
        <ele>63.927175</ele>
        <time>2022-12-15T17:37:02.637Z</time>
      </trkpt>
      <trkpt lat="47.44323" lon="-1.56076">
        <ele>63.927175</ele>
        <time>2022-12-15T17:37:05.653Z</time>
      </trkpt>
      <trkpt lat="47.44313" lon="-1.56068">
        <ele>63.927175</ele>
        <time>2022-12-15T17:37:09.653Z</time>
      </trkpt>
      <trkpt lat="47.44304" lon="-1.56059">
        <ele>63.927175</ele>
        <time>2022-12-15T17:37:14.648Z</time>
      </trkpt>
      <trkpt lat="47.443" lon="-1.5605">
        <ele>63.927175</ele>
        <time>2022-12-15T17:37:29.828Z</time>
        <extensions>
          <visugpx:TrkExtension xmlns:visugpx="https://www.visugpx.com/editgpx/">
            <visugpx:node>1</visugpx:node>
            </visugpx:TrkExtension>
        </extensions>
      </trkpt>
    </trkseg>
  </trk>
  <trk>
    <name><![CDATA[Nort sur Erdre - Bouguenais]]></name>
    <extensions>
      <line xmlns="http://www.topografix.com/GPX/gpx_style/0/2">
        <color>ff0000</color>
        <width>4</width>
      </line>
    </extensions>
    <trkseg>
      <trkpt lat="47.44293" lon="-1.56048">
        <ele>60.70176</ele>
        <time>2022-12-16T11:30:49.768Z</time>
      </trkpt>
      <trkpt lat="47.44283" lon="-1.56038">
        <ele>60.70176</ele>
        <time>2022-12-16T11:31:02.914Z</time>
      </trkpt>
      <trkpt lat="47.44275" lon="-1.5603">
        <ele>60.70176</ele>
        <time>2022-12-16T11:31:06.902Z</time>
      </trkpt>
      <trkpt lat="47.44267" lon="-1.5602">
        <ele>60.70176</ele>
        <time>2022-12-16T11:31:09.906Z</time>
      </trkpt>
      <trkpt lat="47.44255" lon="-1.56009">
        <ele>60.70176</ele>
        <time>2022-12-16T11:31:12.901Z</time>
      </trkpt>
      <trkpt lat="47.44246" lon="-1.56001">
        <ele>60.70176</ele>
        <time>2022-12-16T11:31:14.896Z</time>
      </trkpt>
      <trkpt lat="47.44238" lon="-1.55992">
        <ele>60.70176</ele>
        <time>2022-12-16T11:31:16.911Z</time>
      </trkpt>
      <trkpt lat="47.4423" lon="-1.55985">
        <ele>60.70176</ele>
        <time>2022-12-16T11:31:18.913Z</time>
      </trkpt>
      <trkpt lat="47.44219" lon="-1.55975">
        <ele>60.70176</ele>
        <time>2022-12-16T11:31:21.907Z</time>
      </trkpt>
      <trkpt lat="47.4421" lon="-1.55967">
        <ele>60.691702</ele>
        <time>2022-12-16T11:31:24.899Z</time>
      </trkpt>
      <trkpt lat="47.44202" lon="-1.55957">
        <ele>60.680772</ele>
        <time>2022-12-16T11:31:27.915Z</time>
      </trkpt>
      <trkpt lat="47.44193" lon="-1.55946">
        <ele>60.668909</ele>
        <time>2022-12-16T11:31:30.895Z</time>
      </trkpt>
      <trkpt lat="47.44184" lon="-1.55934">
        <ele>60.656955</ele>
        <time>2022-12-16T11:31:33.912Z</time>
      </trkpt>
      <trkpt lat="47.44177" lon="-1.55922">
        <ele>60.64569</ele>
        <time>2022-12-16T11:31:36.908Z</time>
      </trkpt>
      <trkpt lat="47.4417" lon="-1.55909">
        <ele>60.634627</ele>
        <time>2022-12-16T11:31:39.901Z</time>
      </trkpt>
      <trkpt lat="47.44164" lon="-1.55896">
        <ele>60.62318</ele>
        <time>2022-12-16T11:31:42.901Z</time>
      </trkpt>
      <trkpt lat="47.44156" lon="-1.55882">
        <ele>60.611036</ele>
        <time>2022-12-16T11:31:45.918Z</time>
      </trkpt>
      <trkpt lat="47.4415" lon="-1.55867">
        <ele>60.59874</ele>
        <time>2022-12-16T11:31:48.918Z</time>
      </trkpt>
      <trkpt lat="47.44143" lon="-1.55853">
        <ele>60.586387</ele>
        <time>2022-12-16T11:31:51.909Z</time>
      </trkpt>
      <trkpt lat="47.44137" lon="-1.5584">
        <ele>60.575233</ele>
        <time>2022-12-16T11:31:54.906Z</time>
      </trkpt>
      <trkpt lat="47.44131" lon="-1.55827">
        <ele>60.564546</ele>
        <time>2022-12-16T11:31:57.907Z</time>
      </trkpt>
      <trkpt lat="47.44124" lon="-1.55813">
        <ele>60.552421</ele>
        <time>2022-12-16T11:32:00.897Z</time>
      </trkpt>
      <trkpt lat="47.44117" lon="-1.55798">
        <ele>60.539896</ele>
        <time>2022-12-16T11:32:03.914Z</time>
      </trkpt>
      <trkpt lat="47.44111" lon="-1.55783">
        <ele>60.527711</ele>
        <time>2022-12-16T11:32:06.910Z</time>
      </trkpt>
      <trkpt lat="47.44105" lon="-1.5577">
        <ele>60.518063</ele>
        <time>2022-12-16T11:32:09.903Z</time>
      </trkpt>
      <trkpt lat="47.44099" lon="-1.55757">
        <ele>60.536227</ele>
        <time>2022-12-16T11:32:12.917Z</time>
      </trkpt>
      <trkpt lat="47.44093" lon="-1.55743">
        <ele>60.556077</ele>
        <time>2022-12-16T11:32:15.908Z</time>
      </trkpt>
      <trkpt lat="47.44088" lon="-1.55727">
        <ele>60.577016</ele>
        <time>2022-12-16T11:32:18.916Z</time>
      </trkpt>
      <trkpt lat="47.44083" lon="-1.55711">
        <ele>60.598239</ele>
        <time>2022-12-16T11:32:21.904Z</time>
      </trkpt>
      <trkpt lat="47.4408" lon="-1.55694">
        <ele>60.618943</ele>
        <time>2022-12-16T11:32:24.899Z</time>
      </trkpt>
      <trkpt lat="47.44079" lon="-1.55678">
        <ele>60.638737</ele>
        <time>2022-12-16T11:32:27.905Z</time>
      </trkpt>
      <trkpt lat="47.44078" lon="-1.55661">
        <ele>60.658767</ele>
        <time>2022-12-16T11:32:30.899Z</time>
      </trkpt>
      <trkpt lat="47.44077" lon="-1.55645">
        <ele>60.677898</ele>
        <time>2022-12-16T11:32:33.919Z</time>
      </trkpt>
      <trkpt lat="47.44078" lon="-1.55629">
        <ele>60.697085</ele>
        <time>2022-12-16T11:32:36.918Z</time>
      </trkpt>
      <trkpt lat="47.44077" lon="-1.5561">
        <ele>60.719186</ele>
        <time>2022-12-16T11:32:39.916Z</time>
      </trkpt>
      <trkpt lat="47.44074" lon="-1.55594">
        <ele>60.739225</ele>
        <time>2022-12-16T11:32:42.909Z</time>
      </trkpt>
      <trkpt lat="47.4407" lon="-1.55578">
        <ele>60.759042</ele>
        <time>2022-12-16T11:32:45.913Z</time>
      </trkpt>
      <trkpt lat="47.44065" lon="-1.55564">
        <ele>60.779021</ele>
        <time>2022-12-16T11:32:48.915Z</time>
      </trkpt>
      <trkpt lat="47.44058" lon="-1.55549">
        <ele>60.799353</ele>
        <time>2022-12-16T11:32:51.907Z</time>
      </trkpt>
      <trkpt lat="47.44052" lon="-1.55536">
        <ele>60.819293</ele>
        <time>2022-12-16T11:32:54.914Z</time>
      </trkpt>
      <trkpt lat="47.44044" lon="-1.55523">
        <ele>60.768286</ele>
        <time>2022-12-16T11:32:57.913Z</time>
      </trkpt>
      <trkpt lat="47.44036" lon="-1.55513">
        <ele>60.517029</ele>
        <time>2022-12-16T11:33:00.900Z</time>
      </trkpt>
      <trkpt lat="47.44027" lon="-1.55502">
        <ele>60.259571</ele>
        <time>2022-12-16T11:33:03.915Z</time>
      </trkpt>
      <trkpt lat="47.44018" lon="-1.55492">
        <ele>60.001084</ele>
        <time>2022-12-16T11:33:06.912Z</time>
      </trkpt>
      <trkpt lat="47.4401" lon="-1.55483">
        <ele>59.777518</ele>
        <time>2022-12-16T11:33:09.913Z</time>
      </trkpt>
      <trkpt lat="47.44001" lon="-1.55472">
        <ele>59.50819</ele>
        <time>2022-12-16T11:33:12.914Z</time>
      </trkpt>
      <trkpt lat="47.43992" lon="-1.55459">
        <ele>59.218413</ele>
        <time>2022-12-16T11:33:15.907Z</time>
      </trkpt>
      <trkpt lat="47.43982" lon="-1.55447">
        <ele>58.927947</ele>
        <time>2022-12-16T11:33:18.906Z</time>
      </trkpt>
      <trkpt lat="47.43974" lon="-1.55435">
        <ele>58.674763</ele>
        <time>2022-12-16T11:33:21.901Z</time>
      </trkpt>
      <trkpt lat="47.43966" lon="-1.55423">
        <ele>58.411318</ele>
        <time>2022-12-16T11:33:24.902Z</time>
      </trkpt>
      <trkpt lat="47.43958" lon="-1.55409">
        <ele>58.127383</ele>
        <time>2022-12-16T11:33:27.900Z</time>
      </trkpt>
      <trkpt lat="47.43952" lon="-1.55394">
        <ele>57.855469</ele>
        <time>2022-12-16T11:33:30.898Z</time>
      </trkpt>
      <trkpt lat="47.43946" lon="-1.55378">
        <ele>57.574615</ele>
        <time>2022-12-16T11:33:33.903Z</time>
      </trkpt>
      <trkpt lat="47.4394" lon="-1.55361">
        <ele>57.274982</ele>
        <time>2022-12-16T11:33:36.907Z</time>
      </trkpt>
      <trkpt lat="47.43935" lon="-1.55343">
        <ele>56.985037</ele>
        <time>2022-12-16T11:33:39.904Z</time>
      </trkpt>
      <trkpt lat="47.43933" lon="-1.5533">
        <ele>56.780059</ele>
        <time>2022-12-16T11:33:41.897Z</time>
      </trkpt>
      <trkpt lat="47.43932" lon="-1.55312">
        <ele>56.730205</ele>
        <time>2022-12-16T11:33:44.913Z</time>
      </trkpt>
      <trkpt lat="47.43932" lon="-1.55295">
        <ele>56.724064</ele>
        <time>2022-12-16T11:33:47.898Z</time>
      </trkpt>
      <trkpt lat="47.43932" lon="-1.55277">
        <ele>56.717737</ele>
        <time>2022-12-16T11:33:50.900Z</time>
      </trkpt>
      <trkpt lat="47.43934" lon="-1.55259">
        <ele>56.711203</ele>
        <time>2022-12-16T11:33:53.901Z</time>
      </trkpt>
      <trkpt lat="47.43937" lon="-1.55242">
        <ele>56.704651</ele>
        <time>2022-12-16T11:33:56.916Z</time>
      </trkpt>
      <trkpt lat="47.4394" lon="-1.55224">
        <ele>56.698155</ele>
        <time>2022-12-16T11:33:59.904Z</time>
      </trkpt>
      <trkpt lat="47.43943" lon="-1.55207">
        <ele>56.691632</ele>
        <time>2022-12-16T11:34:02.904Z</time>
      </trkpt>
      <trkpt lat="47.43946" lon="-1.5519">
        <ele>56.685314</ele>
        <time>2022-12-16T11:34:05.911Z</time>
      </trkpt>
      <trkpt lat="47.43949" lon="-1.55176">
        <ele>56.680008</ele>
        <time>2022-12-16T11:34:08.908Z</time>
      </trkpt>
      <trkpt lat="47.43952" lon="-1.55161">
        <ele>56.674563</ele>
        <time>2022-12-16T11:34:11.913Z</time>
      </trkpt>
      <trkpt lat="47.43955" lon="-1.55146">
        <ele>56.668968</ele>
        <time>2022-12-16T11:34:14.918Z</time>
      </trkpt>
      <trkpt lat="47.43958" lon="-1.55131">
        <ele>56.663255</ele>
        <time>2022-12-16T11:34:17.903Z</time>
      </trkpt>
      <trkpt lat="47.43961" lon="-1.55114">
        <ele>56.65719</ele>
        <time>2022-12-16T11:34:20.903Z</time>
      </trkpt>
      <trkpt lat="47.43964" lon="-1.55098">
        <ele>56.650977</ele>
        <time>2022-12-16T11:34:23.906Z</time>
      </trkpt>
      <trkpt lat="47.43967" lon="-1.55081">
        <ele>56.64489</ele>
        <time>2022-12-16T11:34:26.904Z</time>
      </trkpt>
      <trkpt lat="47.4397" lon="-1.55066">
        <ele>56.620757</ele>
        <time>2022-12-16T11:34:29.902Z</time>
      </trkpt>
      <trkpt lat="47.43972" lon="-1.55052">
        <ele>56.543</ele>
        <time>2022-12-16T11:34:32.913Z</time>
      </trkpt>
      <trkpt lat="47.43976" lon="-1.55036">
        <ele>56.450017</ele>
        <time>2022-12-16T11:34:36.897Z</time>
      </trkpt>
      <trkpt lat="47.4398" lon="-1.55021">
        <ele>56.362053</ele>
        <time>2022-12-16T11:34:39.913Z</time>
      </trkpt>
      <trkpt lat="47.43982" lon="-1.55005">
        <ele>56.271827</ele>
        <time>2022-12-16T11:34:42.915Z</time>
      </trkpt>
      <trkpt lat="47.43985" lon="-1.5499">
        <ele>56.185682</ele>
        <time>2022-12-16T11:34:45.897Z</time>
      </trkpt>
      <trkpt lat="47.43988" lon="-1.54975">
        <ele>56.103174</ele>
        <time>2022-12-16T11:34:48.901Z</time>
      </trkpt>
      <trkpt lat="47.43991" lon="-1.5496">
        <ele>56.014168</ele>
        <time>2022-12-16T11:34:51.900Z</time>
      </trkpt>
      <trkpt lat="47.43996" lon="-1.54943">
        <ele>55.913176</ele>
        <time>2022-12-16T11:34:54.921Z</time>
      </trkpt>
      <trkpt lat="47.43998" lon="-1.5493">
        <ele>55.839666</ele>
        <time>2022-12-16T11:34:56.914Z</time>
      </trkpt>
      <trkpt lat="47.44" lon="-1.54916">
        <ele>55.759973</ele>
        <time>2022-12-16T11:34:58.911Z</time>
      </trkpt>
      <trkpt lat="47.44003" lon="-1.54901">
        <ele>55.67681</ele>
        <time>2022-12-16T11:35:00.900Z</time>
      </trkpt>
      <trkpt lat="47.44005" lon="-1.54888">
        <ele>55.601047</ele>
        <time>2022-12-16T11:35:02.903Z</time>
      </trkpt>
      <trkpt lat="47.44007" lon="-1.54875">
        <ele>55.526476</ele>
        <time>2022-12-16T11:35:04.895Z</time>
      </trkpt>
      <trkpt lat="47.4401" lon="-1.54862">
        <ele>55.452518</ele>
        <time>2022-12-16T11:35:06.900Z</time>
      </trkpt>
      <trkpt lat="47.44013" lon="-1.54842">
        <ele>55.341342</ele>
        <time>2022-12-16T11:35:09.904Z</time>
      </trkpt>
      <trkpt lat="47.44016" lon="-1.54829">
        <ele>55.268043</ele>
        <time>2022-12-16T11:35:11.903Z</time>
      </trkpt>
      <trkpt lat="47.44019" lon="-1.54816">
        <ele>55.193874</ele>
        <time>2022-12-16T11:35:13.904Z</time>
      </trkpt>
      <trkpt lat="47.44021" lon="-1.54803">
        <ele>55.089848</ele>
        <time>2022-12-16T11:35:15.919Z</time>
      </trkpt>
      <trkpt lat="47.44024" lon="-1.5479">
        <ele>54.986403</ele>
        <time>2022-12-16T11:35:17.905Z</time>
      </trkpt>
      <trkpt lat="47.44027" lon="-1.54771">
        <ele>54.834362</ele>
        <time>2022-12-16T11:35:20.895Z</time>
      </trkpt>
      <trkpt lat="47.44032" lon="-1.54752">
        <ele>54.681279</ele>
        <time>2022-12-16T11:35:23.918Z</time>
      </trkpt>
      <trkpt lat="47.44036" lon="-1.54734">
        <ele>54.534788</ele>
        <time>2022-12-16T11:35:26.903Z</time>
      </trkpt>
      <trkpt lat="47.4404" lon="-1.54718">
        <ele>54.400326</ele>
        <time>2022-12-16T11:35:29.905Z</time>
      </trkpt>
      <trkpt lat="47.44044" lon="-1.54701">
        <ele>54.260424</ele>
        <time>2022-12-16T11:35:32.913Z</time>
      </trkpt>
      <trkpt lat="47.44047" lon="-1.54683">
        <ele>54.120164</ele>
        <time>2022-12-16T11:35:35.905Z</time>
      </trkpt>
      <trkpt lat="47.44051" lon="-1.54667">
        <ele>53.982456</ele>
        <time>2022-12-16T11:35:38.917Z</time>
      </trkpt>
      <trkpt lat="47.44055" lon="-1.54648">
        <ele>53.837344</ele>
        <time>2022-12-16T11:35:41.901Z</time>
      </trkpt>
      <trkpt lat="47.44057" lon="-1.54635">
        <ele>53.733449</ele>
        <time>2022-12-16T11:35:43.902Z</time>
      </trkpt>
      <trkpt lat="47.44059" lon="-1.54616">
        <ele>53.583246</ele>
        <time>2022-12-16T11:35:46.907Z</time>
      </trkpt>
      <trkpt lat="47.44062" lon="-1.54598">
        <ele>53.439878</ele>
        <time>2022-12-16T11:35:49.905Z</time>
      </trkpt>
      <trkpt lat="47.44064" lon="-1.54581">
        <ele>53.306122</ele>
        <time>2022-12-16T11:35:52.913Z</time>
      </trkpt>
      <trkpt lat="47.44066" lon="-1.54565">
        <ele>53.176312</ele>
        <time>2022-12-16T11:35:55.915Z</time>
      </trkpt>
      <trkpt lat="47.44067" lon="-1.54548">
        <ele>53.017096</ele>
        <time>2022-12-16T11:35:58.916Z</time>
      </trkpt>
      <trkpt lat="47.44069" lon="-1.54531">
        <ele>52.82432</ele>
        <time>2022-12-16T11:36:01.913Z</time>
      </trkpt>
      <trkpt lat="47.44069" lon="-1.54512">
        <ele>52.618565</ele>
        <time>2022-12-16T11:36:04.918Z</time>
      </trkpt>
      <trkpt lat="47.44069" lon="-1.54492">
        <ele>52.409649</ele>
        <time>2022-12-16T11:36:07.906Z</time>
      </trkpt>
      <trkpt lat="47.44069" lon="-1.54479">
        <ele>52.261391</ele>
        <time>2022-12-16T11:36:09.900Z</time>
      </trkpt>
      <trkpt lat="47.44068" lon="-1.5446">
        <ele>52.054889</ele>
        <time>2022-12-16T11:36:12.915Z</time>
      </trkpt>
      <trkpt lat="47.44067" lon="-1.54446">
        <ele>51.897839</ele>
        <time>2022-12-16T11:36:14.921Z</time>
      </trkpt>
      <trkpt lat="47.44065" lon="-1.54432">
        <ele>51.744943</ele>
        <time>2022-12-16T11:36:16.920Z</time>
      </trkpt>
      <trkpt lat="47.44063" lon="-1.54418">
        <ele>51.589417</ele>
        <time>2022-12-16T11:36:18.898Z</time>
      </trkpt>
      <trkpt lat="47.44062" lon="-1.54405">
        <ele>51.442995</ele>
        <time>2022-12-16T11:36:20.898Z</time>
      </trkpt>
      <trkpt lat="47.44059" lon="-1.54391">
        <ele>51.295768</ele>
        <time>2022-12-16T11:36:22.911Z</time>
      </trkpt>
      <trkpt lat="47.44056" lon="-1.54373">
        <ele>51.092894</ele>
        <time>2022-12-16T11:36:25.919Z</time>
      </trkpt>
      <trkpt lat="47.44053" lon="-1.54359">
        <ele>50.924669</ele>
        <time>2022-12-16T11:36:28.921Z</time>
      </trkpt>
      <trkpt lat="47.44052" lon="-1.54341">
        <ele>50.736036</ele>
        <time>2022-12-16T11:36:32.907Z</time>
      </trkpt>
      <trkpt lat="47.4405" lon="-1.54326">
        <ele>50.57079</ele>
        <time>2022-12-16T11:36:35.900Z</time>
      </trkpt>
      <trkpt lat="47.44047" lon="-1.5431">
        <ele>50.385977</ele>
        <time>2022-12-16T11:36:38.905Z</time>
      </trkpt>
      <trkpt lat="47.44043" lon="-1.54293">
        <ele>50.265216</ele>
        <time>2022-12-16T11:36:41.905Z</time>
      </trkpt>
      <trkpt lat="47.44037" lon="-1.54276">
        <ele>50.462594</ele>
        <time>2022-12-16T11:36:44.916Z</time>
      </trkpt>
      <trkpt lat="47.44034" lon="-1.54262">
        <ele>50.608779</ele>
        <time>2022-12-16T11:36:46.916Z</time>
      </trkpt>
      <trkpt lat="47.4403" lon="-1.54244">
        <ele>50.801543</ele>
        <time>2022-12-16T11:36:49.903Z</time>
      </trkpt>
      <trkpt lat="47.44027" lon="-1.54226">
        <ele>50.990409</ele>
        <time>2022-12-16T11:36:52.906Z</time>
      </trkpt>
      <trkpt lat="47.44023" lon="-1.54209">
        <ele>51.171635</ele>
        <time>2022-12-16T11:36:55.915Z</time>
      </trkpt>
      <trkpt lat="47.4402" lon="-1.54192">
        <ele>51.355822</ele>
        <time>2022-12-16T11:36:58.917Z</time>
      </trkpt>
      <trkpt lat="47.44017" lon="-1.54178">
        <ele>51.500031</ele>
        <time>2022-12-16T11:37:00.897Z</time>
      </trkpt>
      <trkpt lat="47.44013" lon="-1.54161">
        <ele>51.684247</ele>
        <time>2022-12-16T11:37:03.911Z</time>
      </trkpt>
      <trkpt lat="47.4401" lon="-1.54142">
        <ele>51.883102</ele>
        <time>2022-12-16T11:37:06.914Z</time>
      </trkpt>
      <trkpt lat="47.44005" lon="-1.54124">
        <ele>52.079696</ele>
        <time>2022-12-16T11:37:09.915Z</time>
      </trkpt>
      <trkpt lat="47.44001" lon="-1.54105">
        <ele>52.279659</ele>
        <time>2022-12-16T11:37:12.912Z</time>
      </trkpt>
      <trkpt lat="47.43998" lon="-1.5409">
        <ele>52.43385</ele>
        <time>2022-12-16T11:37:14.906Z</time>
      </trkpt>
      <trkpt lat="47.43996" lon="-1.54077">
        <ele>52.571852</ele>
        <time>2022-12-16T11:37:16.912Z</time>
      </trkpt>
      <trkpt lat="47.43992" lon="-1.54059">
        <ele>52.765557</ele>
        <time>2022-12-16T11:37:19.909Z</time>
      </trkpt>
      <trkpt lat="47.43987" lon="-1.54041">
        <ele>52.944467</ele>
        <time>2022-12-16T11:37:22.899Z</time>
      </trkpt>
      <trkpt lat="47.43984" lon="-1.54028">
        <ele>53.013332</ele>
        <time>2022-12-16T11:37:24.916Z</time>
      </trkpt>
      <trkpt lat="47.43979" lon="-1.5401">
        <ele>53.111118</ele>
        <time>2022-12-16T11:37:27.900Z</time>
      </trkpt>
      <trkpt lat="47.43974" lon="-1.53992">
        <ele>53.208443</ele>
        <time>2022-12-16T11:37:30.899Z</time>
      </trkpt>
      <trkpt lat="47.43968" lon="-1.53977">
        <ele>53.295134</ele>
        <time>2022-12-16T11:37:33.903Z</time>
      </trkpt>
      <trkpt lat="47.43962" lon="-1.53962">
        <ele>53.379255</ele>
        <time>2022-12-16T11:37:36.903Z</time>
      </trkpt>
      <trkpt lat="47.43955" lon="-1.53947">
        <ele>53.469569</ele>
        <time>2022-12-16T11:37:39.900Z</time>
      </trkpt>
      <trkpt lat="47.43948" lon="-1.53932">
        <ele>53.5632</ele>
        <time>2022-12-16T11:37:42.917Z</time>
      </trkpt>
      <trkpt lat="47.43939" lon="-1.53917">
        <ele>53.66104</ele>
        <time>2022-12-16T11:37:45.905Z</time>
      </trkpt>
      <trkpt lat="47.4393" lon="-1.53904">
        <ele>53.758207</ele>
        <time>2022-12-16T11:37:48.916Z</time>
      </trkpt>
      <trkpt lat="47.4392" lon="-1.53891">
        <ele>53.852685</ele>
        <time>2022-12-16T11:37:51.917Z</time>
      </trkpt>
      <trkpt lat="47.4391" lon="-1.5388">
        <ele>53.943847</ele>
        <time>2022-12-16T11:37:54.915Z</time>
      </trkpt>
      <trkpt lat="47.439" lon="-1.53871">
        <ele>54.030009</ele>
        <time>2022-12-16T11:37:57.897Z</time>
      </trkpt>
      <trkpt lat="47.4389" lon="-1.53863">
        <ele>54.118997</ele>
        <time>2022-12-16T11:38:00.905Z</time>
      </trkpt>
      <trkpt lat="47.43878" lon="-1.53855">
        <ele>54.214689</ele>
        <time>2022-12-16T11:38:03.917Z</time>
      </trkpt>
      <trkpt lat="47.43866" lon="-1.53848">
        <ele>54.224807</ele>
        <time>2022-12-16T11:38:06.919Z</time>
      </trkpt>
      <trkpt lat="47.43854" lon="-1.53844">
        <ele>54.178827</ele>
        <time>2022-12-16T11:38:09.904Z</time>
      </trkpt>
      <trkpt lat="47.43842" lon="-1.5384">
        <ele>54.132647</ele>
        <time>2022-12-16T11:38:12.914Z</time>
      </trkpt>
      <trkpt lat="47.43829" lon="-1.53837">
        <ele>54.085294</ele>
        <time>2022-12-16T11:38:15.907Z</time>
      </trkpt>
      <trkpt lat="47.43817" lon="-1.53834">
        <ele>54.039272</ele>
        <time>2022-12-16T11:38:18.915Z</time>
      </trkpt>
      <trkpt lat="47.43805" lon="-1.53832">
        <ele>53.99442</ele>
        <time>2022-12-16T11:38:21.907Z</time>
      </trkpt>
      <trkpt lat="47.43794" lon="-1.5383">
        <ele>53.954808</ele>
        <time>2022-12-16T11:38:24.906Z</time>
      </trkpt>
      <trkpt lat="47.43783" lon="-1.53828">
        <ele>53.914891</ele>
        <time>2022-12-16T11:38:27.915Z</time>
      </trkpt>
      <trkpt lat="47.43772" lon="-1.53825">
        <ele>53.87363</ele>
        <time>2022-12-16T11:38:30.896Z</time>
      </trkpt>
      <trkpt lat="47.43761" lon="-1.53823">
        <ele>53.831415</ele>
        <time>2022-12-16T11:38:33.914Z</time>
      </trkpt>
      <trkpt lat="47.43749" lon="-1.53821">
        <ele>53.787476</ele>
        <time>2022-12-16T11:38:36.913Z</time>
      </trkpt>
      <trkpt lat="47.43739" lon="-1.53819">
        <ele>53.749332</ele>
        <time>2022-12-16T11:38:39.912Z</time>
      </trkpt>
      <trkpt lat="47.4373" lon="-1.53815">
        <ele>53.716086</ele>
        <time>2022-12-16T11:38:43.907Z</time>
      </trkpt>
      <trkpt lat="47.4372" lon="-1.53812">
        <ele>53.67808</ele>
        <time>2022-12-16T11:38:48.915Z</time>
      </trkpt>
      <trkpt lat="47.43711" lon="-1.5381">
        <ele>53.644136</ele>
        <time>2022-12-16T11:38:51.915Z</time>
      </trkpt>
      <trkpt lat="47.43698" lon="-1.53808">
        <ele>53.594478</ele>
        <time>2022-12-16T11:38:54.900Z</time>
      </trkpt>
      <trkpt lat="47.43688" lon="-1.53806">
        <ele>53.516351</ele>
        <time>2022-12-16T11:38:56.905Z</time>
      </trkpt>
      <trkpt lat="47.43679" lon="-1.53804">
        <ele>53.430821</ele>
        <time>2022-12-16T11:38:58.903Z</time>
      </trkpt>
      <trkpt lat="47.43668" lon="-1.53802">
        <ele>53.332739</ele>
        <time>2022-12-16T11:39:01.913Z</time>
      </trkpt>
      <trkpt lat="47.43659" lon="-1.53799">
        <ele>53.248198</ele>
        <time>2022-12-16T11:39:04.908Z</time>
      </trkpt>
      <trkpt lat="47.43649" lon="-1.53795">
        <ele>53.156296</ele>
        <time>2022-12-16T11:39:07.904Z</time>
      </trkpt>
      <trkpt lat="47.43639" lon="-1.53792">
        <ele>53.057506</ele>
        <time>2022-12-16T11:39:10.895Z</time>
      </trkpt>
      <trkpt lat="47.43628" lon="-1.5379">
        <ele>52.958716</ele>
        <time>2022-12-16T11:39:13.910Z</time>
      </trkpt>
      <trkpt lat="47.43617" lon="-1.53785">
        <ele>52.855718</ele>
        <time>2022-12-16T11:39:16.898Z</time>
      </trkpt>
      <trkpt lat="47.43606" lon="-1.5378">
        <ele>52.74921</ele>
        <time>2022-12-16T11:39:19.900Z</time>
      </trkpt>
      <trkpt lat="47.43594" lon="-1.53774">
        <ele>52.631999</ele>
        <time>2022-12-16T11:39:22.899Z</time>
      </trkpt>
      <trkpt lat="47.43582" lon="-1.53767">
        <ele>52.516511</ele>
        <time>2022-12-16T11:39:25.908Z</time>
      </trkpt>
      <trkpt lat="47.43571" lon="-1.5376">
        <ele>52.40461</ele>
        <time>2022-12-16T11:39:28.913Z</time>
      </trkpt>
      <trkpt lat="47.4356" lon="-1.53751">
        <ele>52.294861</ele>
        <time>2022-12-16T11:39:31.925Z</time>
      </trkpt>
      <trkpt lat="47.4355" lon="-1.53742">
        <ele>52.183778</ele>
        <time>2022-12-16T11:39:34.915Z</time>
      </trkpt>
      <trkpt lat="47.43539" lon="-1.53732">
        <ele>52.07163</ele>
        <time>2022-12-16T11:39:37.898Z</time>
      </trkpt>
      <trkpt lat="47.4353" lon="-1.5372">
        <ele>51.963767</ele>
        <time>2022-12-16T11:39:40.896Z</time>
      </trkpt>
      <trkpt lat="47.43521" lon="-1.5371">
        <ele>51.930684</ele>
        <time>2022-12-16T11:39:43.899Z</time>
      </trkpt>
      <trkpt lat="47.43513" lon="-1.53698">
        <ele>51.909767</ele>
        <time>2022-12-16T11:39:46.917Z</time>
      </trkpt>
      <trkpt lat="47.43503" lon="-1.53684">
        <ele>51.885681</ele>
        <time>2022-12-16T11:39:49.912Z</time>
      </trkpt>
      <trkpt lat="47.43495" lon="-1.53669">
        <ele>51.861019</ele>
        <time>2022-12-16T11:39:52.911Z</time>
      </trkpt>
      <trkpt lat="47.43488" lon="-1.53659">
        <ele>51.843764</ele>
        <time>2022-12-16T11:39:54.900Z</time>
      </trkpt>
      <trkpt lat="47.43482" lon="-1.53648">
        <ele>51.826505</ele>
        <time>2022-12-16T11:39:56.913Z</time>
      </trkpt>
      <trkpt lat="47.43477" lon="-1.53637">
        <ele>51.809859</ele>
        <time>2022-12-16T11:39:58.907Z</time>
      </trkpt>
      <trkpt lat="47.43472" lon="-1.53626">
        <ele>51.793535</ele>
        <time>2022-12-16T11:40:00.897Z</time>
      </trkpt>
      <trkpt lat="47.43465" lon="-1.53609">
        <ele>51.768712</ele>
        <time>2022-12-16T11:40:03.900Z</time>
      </trkpt>
      <trkpt lat="47.43459" lon="-1.53597">
        <ele>51.751562</ele>
        <time>2022-12-16T11:40:05.920Z</time>
      </trkpt>
      <trkpt lat="47.43454" lon="-1.53586">
        <ele>51.734529</ele>
        <time>2022-12-16T11:40:07.925Z</time>
      </trkpt>
      <trkpt lat="47.43449" lon="-1.53574">
        <ele>51.717164</ele>
        <time>2022-12-16T11:40:09.914Z</time>
      </trkpt>
      <trkpt lat="47.43442" lon="-1.53557">
        <ele>51.693454</ele>
        <time>2022-12-16T11:40:12.898Z</time>
      </trkpt>
      <trkpt lat="47.43436" lon="-1.53542">
        <ele>51.671316</ele>
        <time>2022-12-16T11:40:15.912Z</time>
      </trkpt>
      <trkpt lat="47.43429" lon="-1.53526">
        <ele>51.648055</ele>
        <time>2022-12-16T11:40:18.910Z</time>
      </trkpt>
      <trkpt lat="47.43422" lon="-1.5351">
        <ele>51.623967</ele>
        <time>2022-12-16T11:40:21.920Z</time>
      </trkpt>
      <trkpt lat="47.43415" lon="-1.53493">
        <ele>51.63447</ele>
        <time>2022-12-16T11:40:24.916Z</time>
      </trkpt>
      <trkpt lat="47.43411" lon="-1.53481">
        <ele>51.644113</ele>
        <time>2022-12-16T11:40:26.904Z</time>
      </trkpt>
      <trkpt lat="47.43406" lon="-1.53469">
        <ele>51.653598</ele>
        <time>2022-12-16T11:40:28.918Z</time>
      </trkpt>
      <trkpt lat="47.43402" lon="-1.53452">
        <ele>51.666101</ele>
        <time>2022-12-16T11:40:31.900Z</time>
      </trkpt>
      <trkpt lat="47.43399" lon="-1.53436">
        <ele>51.677807</ele>
        <time>2022-12-16T11:40:34.914Z</time>
      </trkpt>
      <trkpt lat="47.43396" lon="-1.53422">
        <ele>51.687904</ele>
        <time>2022-12-16T11:40:37.920Z</time>
      </trkpt>
      <trkpt lat="47.43394" lon="-1.53405">
        <ele>51.700641</ele>
        <time>2022-12-16T11:40:40.901Z</time>
      </trkpt>
      <trkpt lat="47.43393" lon="-1.53386">
        <ele>51.713661</ele>
        <time>2022-12-16T11:40:43.918Z</time>
      </trkpt>
      <trkpt lat="47.43392" lon="-1.53366">
        <ele>51.727645</ele>
        <time>2022-12-16T11:40:46.901Z</time>
      </trkpt>
      <trkpt lat="47.43392" lon="-1.53346">
        <ele>51.741616</ele>
        <time>2022-12-16T11:40:49.915Z</time>
      </trkpt>
      <trkpt lat="47.43393" lon="-1.53333">
        <ele>51.751069</ele>
        <time>2022-12-16T11:40:51.916Z</time>
      </trkpt>
      <trkpt lat="47.43394" lon="-1.53319">
        <ele>51.760621</ele>
        <time>2022-12-16T11:40:53.922Z</time>
      </trkpt>
      <trkpt lat="47.43395" lon="-1.53301">
        <ele>51.773818</ele>
        <time>2022-12-16T11:40:56.915Z</time>
      </trkpt>
      <trkpt lat="47.43396" lon="-1.53285">
        <ele>51.785119</ele>
        <time>2022-12-16T11:40:59.905Z</time>
      </trkpt>
      <trkpt lat="47.43397" lon="-1.53268">
        <ele>51.797187</ele>
        <time>2022-12-16T11:41:02.908Z</time>
      </trkpt>
      <trkpt lat="47.43398" lon="-1.5325">
        <ele>51.809575</ele>
        <time>2022-12-16T11:41:05.900Z</time>
      </trkpt>
      <trkpt lat="47.434" lon="-1.53231">
        <ele>51.819552</ele>
        <time>2022-12-16T11:41:08.916Z</time>
      </trkpt>
      <trkpt lat="47.43402" lon="-1.53213">
        <ele>51.829411</ele>
        <time>2022-12-16T11:41:11.904Z</time>
      </trkpt>
      <trkpt lat="47.43403" lon="-1.532">
        <ele>51.836613</ele>
        <time>2022-12-16T11:41:13.921Z</time>
      </trkpt>
      <trkpt lat="47.43404" lon="-1.53186">
        <ele>51.843786</ele>
        <time>2022-12-16T11:41:15.916Z</time>
      </trkpt>
      <trkpt lat="47.43405" lon="-1.53167">
        <ele>51.85411</ele>
        <time>2022-12-16T11:41:18.919Z</time>
      </trkpt>
      <trkpt lat="47.43407" lon="-1.53147">
        <ele>51.864768</ele>
        <time>2022-12-16T11:41:21.917Z</time>
      </trkpt>
      <trkpt lat="47.43409" lon="-1.5313">
        <ele>51.87429</ele>
        <time>2022-12-16T11:41:24.899Z</time>
      </trkpt>
      <trkpt lat="47.43411" lon="-1.53113">
        <ele>51.883585</ele>
        <time>2022-12-16T11:41:27.917Z</time>
      </trkpt>
      <trkpt lat="47.43413" lon="-1.53095">
        <ele>51.893074</ele>
        <time>2022-12-16T11:41:30.902Z</time>
      </trkpt>
      <trkpt lat="47.43414" lon="-1.53076">
        <ele>51.903536</ele>
        <time>2022-12-16T11:41:33.924Z</time>
      </trkpt>
      <trkpt lat="47.43415" lon="-1.53062">
        <ele>51.910891</ele>
        <time>2022-12-16T11:41:35.918Z</time>
      </trkpt>
      <trkpt lat="47.43417" lon="-1.53042">
        <ele>51.921703</ele>
        <time>2022-12-16T11:41:38.919Z</time>
      </trkpt>
      <trkpt lat="47.43417" lon="-1.53024">
        <ele>51.931182</ele>
        <time>2022-12-16T11:41:41.918Z</time>
      </trkpt>
      <trkpt lat="47.43417" lon="-1.53007">
        <ele>51.940551</ele>
        <time>2022-12-16T11:41:44.903Z</time>
      </trkpt>
      <trkpt lat="47.43417" lon="-1.52992">
        <ele>51.948581</ele>
        <time>2022-12-16T11:41:47.918Z</time>
      </trkpt>
      <trkpt lat="47.43417" lon="-1.52976">
        <ele>52.007632</ele>
        <time>2022-12-16T11:41:50.904Z</time>
      </trkpt>
      <trkpt lat="47.43415" lon="-1.52958">
        <ele>52.101129</ele>
        <time>2022-12-16T11:41:53.900Z</time>
      </trkpt>
      <trkpt lat="47.43411" lon="-1.5294">
        <ele>52.196574</ele>
        <time>2022-12-16T11:41:56.922Z</time>
      </trkpt>
      <trkpt lat="47.43406" lon="-1.52922">
        <ele>52.295771</ele>
        <time>2022-12-16T11:41:59.900Z</time>
      </trkpt>
      <trkpt lat="47.434" lon="-1.52905">
        <ele>52.393842</ele>
        <time>2022-12-16T11:42:02.900Z</time>
      </trkpt>
      <trkpt lat="47.43392" lon="-1.52889">
        <ele>52.490473</ele>
        <time>2022-12-16T11:42:05.900Z</time>
      </trkpt>
      <trkpt lat="47.43383" lon="-1.52876">
        <ele>52.585295</ele>
        <time>2022-12-16T11:42:08.906Z</time>
      </trkpt>
      <trkpt lat="47.43374" lon="-1.52865">
        <ele>52.67043</ele>
        <time>2022-12-16T11:42:11.916Z</time>
      </trkpt>
      <trkpt lat="47.43365" lon="-1.52856">
        <ele>52.757095</ele>
        <time>2022-12-16T11:42:14.917Z</time>
      </trkpt>
      <trkpt lat="47.43353" lon="-1.52847">
        <ele>52.853814</ele>
        <time>2022-12-16T11:42:17.917Z</time>
      </trkpt>
      <trkpt lat="47.43342" lon="-1.5284">
        <ele>52.947159</ele>
        <time>2022-12-16T11:42:20.900Z</time>
      </trkpt>
      <trkpt lat="47.4333" lon="-1.52833">
        <ele>53.040131</ele>
        <time>2022-12-16T11:42:23.911Z</time>
      </trkpt>
      <trkpt lat="47.43317" lon="-1.52828">
        <ele>53.137394</ele>
        <time>2022-12-16T11:42:26.907Z</time>
      </trkpt>
      <trkpt lat="47.43305" lon="-1.52825">
        <ele>53.233328</ele>
        <time>2022-12-16T11:42:29.920Z</time>
      </trkpt>
      <trkpt lat="47.43293" lon="-1.52823">
        <ele>53.312264</ele>
        <time>2022-12-16T11:42:32.917Z</time>
      </trkpt>
      <trkpt lat="47.43282" lon="-1.5282">
        <ele>53.368255</ele>
        <time>2022-12-16T11:42:35.916Z</time>
      </trkpt>
      <trkpt lat="47.43271" lon="-1.52818">
        <ele>53.423146</ele>
        <time>2022-12-16T11:42:38.922Z</time>
      </trkpt>
      <trkpt lat="47.43261" lon="-1.52817">
        <ele>53.478802</ele>
        <time>2022-12-16T11:42:41.908Z</time>
      </trkpt>
      <trkpt lat="47.4325" lon="-1.52816">
        <ele>53.530938</ele>
        <time>2022-12-16T11:42:44.920Z</time>
      </trkpt>
      <trkpt lat="47.43241" lon="-1.52815">
        <ele>53.579919</ele>
        <time>2022-12-16T11:42:47.921Z</time>
      </trkpt>
      <trkpt lat="47.4323" lon="-1.52814">
        <ele>53.636938</ele>
        <time>2022-12-16T11:42:51.920Z</time>
      </trkpt>
      <trkpt lat="47.43218" lon="-1.52813">
        <ele>53.694552</ele>
        <time>2022-12-16T11:42:55.913Z</time>
      </trkpt>
      <trkpt lat="47.43207" lon="-1.52813">
        <ele>53.750032</ele>
        <time>2022-12-16T11:42:59.922Z</time>
      </trkpt>
      <trkpt lat="47.43197" lon="-1.52816">
        <ele>53.801148</ele>
        <time>2022-12-16T11:43:04.921Z</time>
      </trkpt>
      <trkpt lat="47.43188" lon="-1.52819">
        <ele>53.852514</ele>
        <time>2022-12-16T11:43:09.902Z</time>
      </trkpt>
      <trkpt lat="47.43178" lon="-1.52823">
        <ele>53.901809</ele>
        <time>2022-12-16T11:43:14.903Z</time>
      </trkpt>
      <trkpt lat="47.43168" lon="-1.52828">
        <ele>53.955758</ele>
        <time>2022-12-16T11:43:19.907Z</time>
      </trkpt>
      <trkpt lat="47.43159" lon="-1.52834">
        <ele>54.008411</ele>
        <time>2022-12-16T11:43:37.901Z</time>
      </trkpt>
      <trkpt lat="47.4315" lon="-1.52841">
        <ele>54.061073</ele>
        <time>2022-12-16T11:43:43.900Z</time>
      </trkpt>
      <trkpt lat="47.4314" lon="-1.52851">
        <ele>54.121484</ele>
        <time>2022-12-16T11:43:46.906Z</time>
      </trkpt>
      <trkpt lat="47.43131" lon="-1.5286">
        <ele>54.176786</ele>
        <time>2022-12-16T11:43:48.914Z</time>
      </trkpt>
      <trkpt lat="47.43122" lon="-1.52871">
        <ele>54.17201</ele>
        <time>2022-12-16T11:43:50.901Z</time>
      </trkpt>
      <trkpt lat="47.43114" lon="-1.52884">
        <ele>54.096872</ele>
        <time>2022-12-16T11:43:52.906Z</time>
      </trkpt>
      <trkpt lat="47.43107" lon="-1.52895">
        <ele>54.026595</ele>
        <time>2022-12-16T11:43:54.900Z</time>
      </trkpt>
      <trkpt lat="47.43101" lon="-1.52907">
        <ele>53.962794</ele>
        <time>2022-12-16T11:43:56.919Z</time>
      </trkpt>
      <trkpt lat="47.43094" lon="-1.52922">
        <ele>53.877841</ele>
        <time>2022-12-16T11:43:59.899Z</time>
      </trkpt>
      <trkpt lat="47.43086" lon="-1.52938">
        <ele>53.789547</ele>
        <time>2022-12-16T11:44:02.906Z</time>
      </trkpt>
      <trkpt lat="47.43079" lon="-1.52953">
        <ele>53.710932</ele>
        <time>2022-12-16T11:44:05.907Z</time>
      </trkpt>
      <trkpt lat="47.43071" lon="-1.52967">
        <ele>53.628343</ele>
        <time>2022-12-16T11:44:08.919Z</time>
      </trkpt>
      <trkpt lat="47.43063" lon="-1.52981">
        <ele>53.54789</ele>
        <time>2022-12-16T11:44:11.916Z</time>
      </trkpt>
      <trkpt lat="47.43054" lon="-1.52994">
        <ele>53.461628</ele>
        <time>2022-12-16T11:44:14.920Z</time>
      </trkpt>
      <trkpt lat="47.43047" lon="-1.53003">
        <ele>53.400524</ele>
        <time>2022-12-16T11:44:16.920Z</time>
      </trkpt>
      <trkpt lat="47.43037" lon="-1.53014">
        <ele>53.317715</ele>
        <time>2022-12-16T11:44:19.916Z</time>
      </trkpt>
      <trkpt lat="47.43026" lon="-1.53024">
        <ele>53.232252</ele>
        <time>2022-12-16T11:44:22.901Z</time>
      </trkpt>
      <trkpt lat="47.43014" lon="-1.53033">
        <ele>53.144783</ele>
        <time>2022-12-16T11:44:25.902Z</time>
      </trkpt>
      <trkpt lat="47.43003" lon="-1.5304">
        <ele>53.061081</ele>
        <time>2022-12-16T11:44:28.903Z</time>
      </trkpt>
      <trkpt lat="47.4299" lon="-1.53044">
        <ele>52.923844</ele>
        <time>2022-12-16T11:44:31.901Z</time>
      </trkpt>
      <trkpt lat="47.42979" lon="-1.53049">
        <ele>52.746872</ele>
        <time>2022-12-16T11:44:34.918Z</time>
      </trkpt>
      <trkpt lat="47.42968" lon="-1.53052">
        <ele>52.580457</ele>
        <time>2022-12-16T11:44:37.904Z</time>
      </trkpt>
      <trkpt lat="47.42956" lon="-1.53055">
        <ele>52.412895</ele>
        <time>2022-12-16T11:44:40.899Z</time>
      </trkpt>
      <trkpt lat="47.42944" lon="-1.53056">
        <ele>52.229653</ele>
        <time>2022-12-16T11:44:43.904Z</time>
      </trkpt>
      <trkpt lat="47.42931" lon="-1.53055">
        <ele>52.04206</ele>
        <time>2022-12-16T11:44:46.899Z</time>
      </trkpt>
      <trkpt lat="47.42919" lon="-1.53054">
        <ele>51.858663</ele>
        <time>2022-12-16T11:44:49.915Z</time>
      </trkpt>
      <trkpt lat="47.42907" lon="-1.53054">
        <ele>51.687263</ele>
        <time>2022-12-16T11:44:52.916Z</time>
      </trkpt>
      <trkpt lat="47.42896" lon="-1.53053">
        <ele>51.512708</ele>
        <time>2022-12-16T11:44:55.918Z</time>
      </trkpt>
      <trkpt lat="47.42883" lon="-1.53052">
        <ele>51.326556</ele>
        <time>2022-12-16T11:44:58.917Z</time>
      </trkpt>
      <trkpt lat="47.4287" lon="-1.53051">
        <ele>51.137369</ele>
        <time>2022-12-16T11:45:01.911Z</time>
      </trkpt>
      <trkpt lat="47.42857" lon="-1.53049">
        <ele>50.944859</ele>
        <time>2022-12-16T11:45:04.926Z</time>
      </trkpt>
      <trkpt lat="47.42844" lon="-1.53048">
        <ele>50.754093</ele>
        <time>2022-12-16T11:45:07.922Z</time>
      </trkpt>
      <trkpt lat="47.42831" lon="-1.53047">
        <ele>50.561417</ele>
        <time>2022-12-16T11:45:10.901Z</time>
      </trkpt>
      <trkpt lat="47.42819" lon="-1.53046">
        <ele>50.37683</ele>
        <time>2022-12-16T11:45:13.918Z</time>
      </trkpt>
      <trkpt lat="47.42807" lon="-1.53047">
        <ele>50.256226</ele>
        <time>2022-12-16T11:45:16.918Z</time>
      </trkpt>
      <trkpt lat="47.42794" lon="-1.53048">
        <ele>50.13325</ele>
        <time>2022-12-16T11:45:19.905Z</time>
      </trkpt>
      <trkpt lat="47.42782" lon="-1.5305">
        <ele>50.011568</ele>
        <time>2022-12-16T11:45:22.919Z</time>
      </trkpt>
      <trkpt lat="47.42769" lon="-1.53054">
        <ele>49.889766</ele>
        <time>2022-12-16T11:45:25.909Z</time>
      </trkpt>
      <trkpt lat="47.42755" lon="-1.53059">
        <ele>49.752965</ele>
        <time>2022-12-16T11:45:28.909Z</time>
      </trkpt>
      <trkpt lat="47.42746" lon="-1.53063">
        <ele>49.661197</ele>
        <time>2022-12-16T11:45:30.902Z</time>
      </trkpt>
      <trkpt lat="47.42734" lon="-1.53067">
        <ele>49.543476</ele>
        <time>2022-12-16T11:45:33.907Z</time>
      </trkpt>
      <trkpt lat="47.42724" lon="-1.53073">
        <ele>49.433383</ele>
        <time>2022-12-16T11:45:36.914Z</time>
      </trkpt>
      <trkpt lat="47.42714" lon="-1.53079">
        <ele>49.329772</ele>
        <time>2022-12-16T11:45:39.900Z</time>
      </trkpt>
      <trkpt lat="47.42703" lon="-1.53087">
        <ele>49.20902</ele>
        <time>2022-12-16T11:45:42.915Z</time>
      </trkpt>
      <trkpt lat="47.42691" lon="-1.53097">
        <ele>49.079611</ele>
        <time>2022-12-16T11:45:45.916Z</time>
      </trkpt>
      <trkpt lat="47.42683" lon="-1.53104">
        <ele>48.989727</ele>
        <time>2022-12-16T11:45:47.919Z</time>
      </trkpt>
      <trkpt lat="47.42675" lon="-1.53111">
        <ele>48.899922</ele>
        <time>2022-12-16T11:45:49.917Z</time>
      </trkpt>
      <trkpt lat="47.42664" lon="-1.53122">
        <ele>48.767437</ele>
        <time>2022-12-16T11:45:52.920Z</time>
      </trkpt>
      <trkpt lat="47.42656" lon="-1.53131">
        <ele>48.676852</ele>
        <time>2022-12-16T11:45:54.904Z</time>
      </trkpt>
      <trkpt lat="47.42649" lon="-1.5314">
        <ele>48.729936</ele>
        <time>2022-12-16T11:45:56.913Z</time>
      </trkpt>
      <trkpt lat="47.42642" lon="-1.53149">
        <ele>48.968408</ele>
        <time>2022-12-16T11:45:58.914Z</time>
      </trkpt>
      <trkpt lat="47.42635" lon="-1.5316">
        <ele>49.227678</ele>
        <time>2022-12-16T11:46:00.899Z</time>
      </trkpt>
      <trkpt lat="47.42628" lon="-1.53168">
        <ele>49.456741</ele>
        <time>2022-12-16T11:46:02.904Z</time>
      </trkpt>
      <trkpt lat="47.42621" lon="-1.53178">
        <ele>49.69374</ele>
        <time>2022-12-16T11:46:04.917Z</time>
      </trkpt>
      <trkpt lat="47.42612" lon="-1.53191">
        <ele>50.019385</ele>
        <time>2022-12-16T11:46:07.918Z</time>
      </trkpt>
      <trkpt lat="47.42603" lon="-1.53203">
        <ele>50.309624</ele>
        <time>2022-12-16T11:46:10.899Z</time>
      </trkpt>
      <trkpt lat="47.42596" lon="-1.53213">
        <ele>50.569888</ele>
        <time>2022-12-16T11:46:13.919Z</time>
      </trkpt>
      <trkpt lat="47.42588" lon="-1.53222">
        <ele>50.817719</ele>
        <time>2022-12-16T11:46:16.923Z</time>
      </trkpt>
      <trkpt lat="47.4258" lon="-1.53233">
        <ele>51.098137</ele>
        <time>2022-12-16T11:46:19.914Z</time>
      </trkpt>
      <trkpt lat="47.42571" lon="-1.53244">
        <ele>51.4022</ele>
        <time>2022-12-16T11:46:22.920Z</time>
      </trkpt>
      <trkpt lat="47.4256" lon="-1.53255">
        <ele>51.72259</ele>
        <time>2022-12-16T11:46:25.908Z</time>
      </trkpt>
      <trkpt lat="47.42552" lon="-1.53262">
        <ele>51.956999</ele>
        <time>2022-12-16T11:46:27.918Z</time>
      </trkpt>
      <trkpt lat="47.42544" lon="-1.53268">
        <ele>52.196398</ele>
        <time>2022-12-16T11:46:29.902Z</time>
      </trkpt>
      <trkpt lat="47.42535" lon="-1.53274">
        <ele>52.434443</ele>
        <time>2022-12-16T11:46:31.921Z</time>
      </trkpt>
      <trkpt lat="47.42526" lon="-1.53278">
        <ele>52.661148</ele>
        <time>2022-12-16T11:46:33.917Z</time>
      </trkpt>
      <trkpt lat="47.42517" lon="-1.53283">
        <ele>52.915247</ele>
        <time>2022-12-16T11:46:35.922Z</time>
      </trkpt>
      <trkpt lat="47.42508" lon="-1.53285">
        <ele>53.15063</ele>
        <time>2022-12-16T11:46:37.919Z</time>
      </trkpt>
      <trkpt lat="47.42495" lon="-1.5329">
        <ele>53.050682</ele>
        <time>2022-12-16T11:46:40.899Z</time>
      </trkpt>
      <trkpt lat="47.42482" lon="-1.53294">
        <ele>52.93136</ele>
        <time>2022-12-16T11:46:43.922Z</time>
      </trkpt>
      <trkpt lat="47.42471" lon="-1.53297">
        <ele>52.827146</ele>
        <time>2022-12-16T11:46:46.916Z</time>
      </trkpt>
      <trkpt lat="47.42458" lon="-1.53302">
        <ele>52.7035</ele>
        <time>2022-12-16T11:46:49.912Z</time>
      </trkpt>
      <trkpt lat="47.42444" lon="-1.53306">
        <ele>52.576572</ele>
        <time>2022-12-16T11:46:52.920Z</time>
      </trkpt>
      <trkpt lat="47.42436" lon="-1.5331">
        <ele>52.491018</ele>
        <time>2022-12-16T11:46:54.900Z</time>
      </trkpt>
      <trkpt lat="47.42423" lon="-1.53314">
        <ele>52.373403</ele>
        <time>2022-12-16T11:46:57.905Z</time>
      </trkpt>
      <trkpt lat="47.42413" lon="-1.53317">
        <ele>52.279715</ele>
        <time>2022-12-16T11:46:59.906Z</time>
      </trkpt>
      <trkpt lat="47.42403" lon="-1.53319">
        <ele>52.186345</ele>
        <time>2022-12-16T11:47:01.900Z</time>
      </trkpt>
      <trkpt lat="47.42393" lon="-1.53321">
        <ele>52.095993</ele>
        <time>2022-12-16T11:47:03.916Z</time>
      </trkpt>
      <trkpt lat="47.42383" lon="-1.53326">
        <ele>51.997146</ele>
        <time>2022-12-16T11:47:05.919Z</time>
      </trkpt>
      <trkpt lat="47.42373" lon="-1.53329">
        <ele>51.905812</ele>
        <time>2022-12-16T11:47:07.915Z</time>
      </trkpt>
      <trkpt lat="47.42364" lon="-1.53332">
        <ele>51.818083</ele>
        <time>2022-12-16T11:47:09.917Z</time>
      </trkpt>
      <trkpt lat="47.42352" lon="-1.53335">
        <ele>51.705811</ele>
        <time>2022-12-16T11:47:12.930Z</time>
      </trkpt>
      <trkpt lat="47.42343" lon="-1.53339">
        <ele>51.619305</ele>
        <time>2022-12-16T11:47:14.917Z</time>
      </trkpt>
      <trkpt lat="47.4233" lon="-1.53342">
        <ele>51.503349</ele>
        <time>2022-12-16T11:47:17.921Z</time>
      </trkpt>
      <trkpt lat="47.42321" lon="-1.53346">
        <ele>51.459556</ele>
        <time>2022-12-16T11:47:19.897Z</time>
      </trkpt>
      <trkpt lat="47.42313" lon="-1.53351">
        <ele>51.41733</ele>
        <time>2022-12-16T11:47:21.916Z</time>
      </trkpt>
      <trkpt lat="47.42303" lon="-1.53355">
        <ele>51.371916</ele>
        <time>2022-12-16T11:47:23.919Z</time>
      </trkpt>
      <trkpt lat="47.42293" lon="-1.53361">
        <ele>51.318245</ele>
        <time>2022-12-16T11:47:25.920Z</time>
      </trkpt>
      <trkpt lat="47.42284" lon="-1.53365">
        <ele>51.274186</ele>
        <time>2022-12-16T11:47:27.920Z</time>
      </trkpt>
      <trkpt lat="47.42275" lon="-1.5337">
        <ele>51.231403</ele>
        <time>2022-12-16T11:47:29.920Z</time>
      </trkpt>
      <trkpt lat="47.42264" lon="-1.53377">
        <ele>51.173098</ele>
        <time>2022-12-16T11:47:32.923Z</time>
      </trkpt>
      <trkpt lat="47.42255" lon="-1.53382">
        <ele>51.130352</ele>
        <time>2022-12-16T11:47:34.910Z</time>
      </trkpt>
      <trkpt lat="47.42243" lon="-1.53389">
        <ele>51.067766</ele>
        <time>2022-12-16T11:47:37.920Z</time>
      </trkpt>
      <trkpt lat="47.42234" lon="-1.53395">
        <ele>51.024176</ele>
        <time>2022-12-16T11:47:39.914Z</time>
      </trkpt>
      <trkpt lat="47.42222" lon="-1.53401">
        <ele>50.963571</ele>
        <time>2022-12-16T11:47:42.908Z</time>
      </trkpt>
      <trkpt lat="47.42213" lon="-1.53407">
        <ele>50.915038</ele>
        <time>2022-12-16T11:47:45.913Z</time>
      </trkpt>
      <trkpt lat="47.42204" lon="-1.53413">
        <ele>50.87051</ele>
        <time>2022-12-16T11:47:48.916Z</time>
      </trkpt>
      <trkpt lat="47.42195" lon="-1.53417">
        <ele>50.824729</ele>
        <time>2022-12-16T11:47:51.900Z</time>
      </trkpt>
      <trkpt lat="47.42184" lon="-1.53423">
        <ele>50.76963</ele>
        <time>2022-12-16T11:47:54.910Z</time>
      </trkpt>
      <trkpt lat="47.42172" lon="-1.53428">
        <ele>50.711555</ele>
        <time>2022-12-16T11:47:57.918Z</time>
      </trkpt>
      <trkpt lat="47.42164" lon="-1.53435">
        <ele>50.666715</ele>
        <time>2022-12-16T11:47:59.898Z</time>
      </trkpt>
      <trkpt lat="47.42152" lon="-1.53442">
        <ele>50.835981</ele>
        <time>2022-12-16T11:48:02.900Z</time>
      </trkpt>
      <trkpt lat="47.42143" lon="-1.53448">
        <ele>50.9632</ele>
        <time>2022-12-16T11:48:04.915Z</time>
      </trkpt>
      <trkpt lat="47.42134" lon="-1.53453">
        <ele>51.089033</ele>
        <time>2022-12-16T11:48:06.919Z</time>
      </trkpt>
      <trkpt lat="47.42122" lon="-1.5346">
        <ele>51.270332</ele>
        <time>2022-12-16T11:48:09.920Z</time>
      </trkpt>
      <trkpt lat="47.42113" lon="-1.53465">
        <ele>51.398971</ele>
        <time>2022-12-16T11:48:11.916Z</time>
      </trkpt>
      <trkpt lat="47.42104" lon="-1.53469">
        <ele>51.525084</ele>
        <time>2022-12-16T11:48:13.908Z</time>
      </trkpt>
      <trkpt lat="47.42094" lon="-1.53476">
        <ele>51.674239</ele>
        <time>2022-12-16T11:48:15.915Z</time>
      </trkpt>
      <trkpt lat="47.42085" lon="-1.53482">
        <ele>51.806767</ele>
        <time>2022-12-16T11:48:17.906Z</time>
      </trkpt>
      <trkpt lat="47.42076" lon="-1.53487">
        <ele>51.935104</ele>
        <time>2022-12-16T11:48:19.921Z</time>
      </trkpt>
      <trkpt lat="47.42064" lon="-1.53495">
        <ele>52.109035</ele>
        <time>2022-12-16T11:48:22.917Z</time>
      </trkpt>
      <trkpt lat="47.42053" lon="-1.53501">
        <ele>52.269341</ele>
        <time>2022-12-16T11:48:25.908Z</time>
      </trkpt>
      <trkpt lat="47.42042" lon="-1.53508">
        <ele>52.427529</ele>
        <time>2022-12-16T11:48:28.918Z</time>
      </trkpt>
      <trkpt lat="47.42031" lon="-1.53515">
        <ele>52.594637</ele>
        <time>2022-12-16T11:48:31.918Z</time>
      </trkpt>
      <trkpt lat="47.42018" lon="-1.53521">
        <ele>52.773765</ele>
        <time>2022-12-16T11:48:34.908Z</time>
      </trkpt>
      <trkpt lat="47.42009" lon="-1.53527">
        <ele>52.910932</ele>
        <time>2022-12-16T11:48:36.918Z</time>
      </trkpt>
      <trkpt lat="47.42" lon="-1.53533">
        <ele>53.040281</ele>
        <time>2022-12-16T11:48:38.914Z</time>
      </trkpt>
      <trkpt lat="47.4199" lon="-1.53538">
        <ele>52.998903</ele>
        <time>2022-12-16T11:48:40.905Z</time>
      </trkpt>
      <trkpt lat="47.41982" lon="-1.53544">
        <ele>52.884853</ele>
        <time>2022-12-16T11:48:42.909Z</time>
      </trkpt>
      <trkpt lat="47.4197" lon="-1.53551">
        <ele>52.718532</ele>
        <time>2022-12-16T11:48:45.918Z</time>
      </trkpt>
      <trkpt lat="47.41959" lon="-1.53558">
        <ele>52.570134</ele>
        <time>2022-12-16T11:48:48.920Z</time>
      </trkpt>
      <trkpt lat="47.41949" lon="-1.53565">
        <ele>52.429913</ele>
        <time>2022-12-16T11:48:51.920Z</time>
      </trkpt>
      <trkpt lat="47.41939" lon="-1.53571">
        <ele>52.295005</ele>
        <time>2022-12-16T11:48:54.899Z</time>
      </trkpt>
      <trkpt lat="47.41929" lon="-1.53577">
        <ele>52.165366</ele>
        <time>2022-12-16T11:48:56.899Z</time>
      </trkpt>
      <trkpt lat="47.41917" lon="-1.53583">
        <ele>52.009993</ele>
        <time>2022-12-16T11:48:58.911Z</time>
      </trkpt>
      <trkpt lat="47.41906" lon="-1.5359">
        <ele>51.855785</ele>
        <time>2022-12-16T11:49:00.901Z</time>
      </trkpt>
      <trkpt lat="47.41895" lon="-1.53596">
        <ele>51.715962</ele>
        <time>2022-12-16T11:49:02.913Z</time>
      </trkpt>
      <trkpt lat="47.41885" lon="-1.53601">
        <ele>51.578776</ele>
        <time>2022-12-16T11:49:04.923Z</time>
      </trkpt>
      <trkpt lat="47.41875" lon="-1.53605">
        <ele>51.442435</ele>
        <time>2022-12-16T11:49:06.906Z</time>
      </trkpt>
      <trkpt lat="47.41864" lon="-1.53608">
        <ele>51.311821</ele>
        <time>2022-12-16T11:49:08.900Z</time>
      </trkpt>
      <trkpt lat="47.41855" lon="-1.53608">
        <ele>51.190465</ele>
        <time>2022-12-16T11:49:10.907Z</time>
      </trkpt>
      <trkpt lat="47.41841" lon="-1.53607">
        <ele>51.021104</ele>
        <time>2022-12-16T11:49:13.919Z</time>
      </trkpt>
      <trkpt lat="47.41829" lon="-1.53603">
        <ele>50.861234</ele>
        <time>2022-12-16T11:49:16.915Z</time>
      </trkpt>
      <trkpt lat="47.41817" lon="-1.53597">
        <ele>50.778602</ele>
        <time>2022-12-16T11:49:19.915Z</time>
      </trkpt>
      <trkpt lat="47.41804" lon="-1.5359">
        <ele>50.700942</ele>
        <time>2022-12-16T11:49:22.923Z</time>
      </trkpt>
      <trkpt lat="47.41795" lon="-1.53585">
        <ele>50.647713</ele>
        <time>2022-12-16T11:49:24.919Z</time>
      </trkpt>
      <trkpt lat="47.41783" lon="-1.53577">
        <ele>50.571815</ele>
        <time>2022-12-16T11:49:27.915Z</time>
      </trkpt>
      <trkpt lat="47.41774" lon="-1.53571">
        <ele>50.516518</ele>
        <time>2022-12-16T11:49:29.909Z</time>
      </trkpt>
      <trkpt lat="47.41765" lon="-1.53567">
        <ele>50.46157</ele>
        <time>2022-12-16T11:49:31.916Z</time>
      </trkpt>
      <trkpt lat="47.41756" lon="-1.53561">
        <ele>50.408194</ele>
        <time>2022-12-16T11:49:33.919Z</time>
      </trkpt>
      <trkpt lat="47.41747" lon="-1.53556">
        <ele>50.352897</ele>
        <time>2022-12-16T11:49:35.924Z</time>
      </trkpt>
      <trkpt lat="47.41738" lon="-1.5355">
        <ele>50.297751</ele>
        <time>2022-12-16T11:49:37.913Z</time>
      </trkpt>
      <trkpt lat="47.41729" lon="-1.53544">
        <ele>50.241475</ele>
        <time>2022-12-16T11:49:39.908Z</time>
      </trkpt>
      <trkpt lat="47.4172" lon="-1.53538">
        <ele>50.188235</ele>
        <time>2022-12-16T11:49:41.912Z</time>
      </trkpt>
      <trkpt lat="47.41711" lon="-1.53533">
        <ele>50.134084</ele>
        <time>2022-12-16T11:49:43.922Z</time>
      </trkpt>
      <trkpt lat="47.41703" lon="-1.53527">
        <ele>50.082185</ele>
        <time>2022-12-16T11:49:45.920Z</time>
      </trkpt>
      <trkpt lat="47.41694" lon="-1.53522">
        <ele>50.030894</ele>
        <time>2022-12-16T11:49:47.908Z</time>
      </trkpt>
      <trkpt lat="47.41682" lon="-1.53515">
        <ele>49.95477</ele>
        <time>2022-12-16T11:49:50.903Z</time>
      </trkpt>
      <trkpt lat="47.4167" lon="-1.53508">
        <ele>49.883537</ele>
        <time>2022-12-16T11:49:53.905Z</time>
      </trkpt>
      <trkpt lat="47.41658" lon="-1.535">
        <ele>49.823321</ele>
        <time>2022-12-16T11:49:56.917Z</time>
      </trkpt>
      <trkpt lat="47.41647" lon="-1.53495">
        <ele>49.82552</ele>
        <time>2022-12-16T11:49:59.917Z</time>
      </trkpt>
      <trkpt lat="47.41636" lon="-1.53487">
        <ele>49.827899</ele>
        <time>2022-12-16T11:50:02.903Z</time>
      </trkpt>
      <trkpt lat="47.41624" lon="-1.5348">
        <ele>49.830423</ele>
        <time>2022-12-16T11:50:05.909Z</time>
      </trkpt>
      <trkpt lat="47.41615" lon="-1.53475">
        <ele>49.832165</ele>
        <time>2022-12-16T11:50:07.905Z</time>
      </trkpt>
      <trkpt lat="47.41607" lon="-1.53471">
        <ele>49.833901</ele>
        <time>2022-12-16T11:50:09.919Z</time>
      </trkpt>
      <trkpt lat="47.41594" lon="-1.53464">
        <ele>49.836502</ele>
        <time>2022-12-16T11:50:12.913Z</time>
      </trkpt>
      <trkpt lat="47.41585" lon="-1.53461">
        <ele>49.838283</ele>
        <time>2022-12-16T11:50:14.926Z</time>
      </trkpt>
      <trkpt lat="47.41576" lon="-1.53458">
        <ele>49.84002</ele>
        <time>2022-12-16T11:50:16.920Z</time>
      </trkpt>
      <trkpt lat="47.41567" lon="-1.53456">
        <ele>49.841783</ele>
        <time>2022-12-16T11:50:18.917Z</time>
      </trkpt>
      <trkpt lat="47.41557" lon="-1.53453">
        <ele>49.843655</ele>
        <time>2022-12-16T11:50:20.901Z</time>
      </trkpt>
      <trkpt lat="47.41548" lon="-1.53452">
        <ele>49.845481</ele>
        <time>2022-12-16T11:50:22.903Z</time>
      </trkpt>
      <trkpt lat="47.41535" lon="-1.5345">
        <ele>49.84794</ele>
        <time>2022-12-16T11:50:25.924Z</time>
      </trkpt>
      <trkpt lat="47.41524" lon="-1.53448">
        <ele>49.85003</ele>
        <time>2022-12-16T11:50:28.926Z</time>
      </trkpt>
      <trkpt lat="47.41512" lon="-1.53447">
        <ele>49.852363</ele>
        <time>2022-12-16T11:50:31.920Z</time>
      </trkpt>
      <trkpt lat="47.41499" lon="-1.53448">
        <ele>49.854865</ele>
        <time>2022-12-16T11:50:34.921Z</time>
      </trkpt>
      <trkpt lat="47.41485" lon="-1.5345">
        <ele>49.867546</ele>
        <time>2022-12-16T11:50:37.927Z</time>
      </trkpt>
      <trkpt lat="47.41472" lon="-1.53453">
        <ele>50.049357</ele>
        <time>2022-12-16T11:50:40.898Z</time>
      </trkpt>
      <trkpt lat="47.41463" lon="-1.53454">
        <ele>50.176008</ele>
        <time>2022-12-16T11:50:42.909Z</time>
      </trkpt>
      <trkpt lat="47.4145" lon="-1.53458">
        <ele>50.345825</ele>
        <time>2022-12-16T11:50:45.905Z</time>
      </trkpt>
      <trkpt lat="47.4144" lon="-1.53461">
        <ele>50.491734</ele>
        <time>2022-12-16T11:50:48.914Z</time>
      </trkpt>
      <trkpt lat="47.41429" lon="-1.53464">
        <ele>50.64275</ele>
        <time>2022-12-16T11:50:51.911Z</time>
      </trkpt>
      <trkpt lat="47.41418" lon="-1.53469">
        <ele>50.793744</ele>
        <time>2022-12-16T11:50:54.921Z</time>
      </trkpt>
      <trkpt lat="47.41406" lon="-1.53474">
        <ele>50.963316</ele>
        <time>2022-12-16T11:50:57.919Z</time>
      </trkpt>
      <trkpt lat="47.41393" lon="-1.53478">
        <ele>51.136017</ele>
        <time>2022-12-16T11:51:00.901Z</time>
      </trkpt>
      <trkpt lat="47.41381" lon="-1.53482">
        <ele>51.301657</ele>
        <time>2022-12-16T11:51:03.919Z</time>
      </trkpt>
      <trkpt lat="47.4137" lon="-1.53485">
        <ele>51.462004</ele>
        <time>2022-12-16T11:51:06.901Z</time>
      </trkpt>
      <trkpt lat="47.41359" lon="-1.53487">
        <ele>51.61095</ele>
        <time>2022-12-16T11:51:09.923Z</time>
      </trkpt>
      <trkpt lat="47.41348" lon="-1.53492">
        <ele>51.759138</ele>
        <time>2022-12-16T11:51:12.906Z</time>
      </trkpt>
      <trkpt lat="47.41337" lon="-1.53495">
        <ele>51.919191</ele>
        <time>2022-12-16T11:51:15.918Z</time>
      </trkpt>
      <trkpt lat="47.41328" lon="-1.53498">
        <ele>52.043574</ele>
        <time>2022-12-16T11:51:17.921Z</time>
      </trkpt>
      <trkpt lat="47.41315" lon="-1.53501">
        <ele>52.213706</ele>
        <time>2022-12-16T11:51:20.907Z</time>
      </trkpt>
      <trkpt lat="47.41303" lon="-1.53505">
        <ele>52.222203</ele>
        <time>2022-12-16T11:51:23.923Z</time>
      </trkpt>
      <trkpt lat="47.4129" lon="-1.5351">
        <ele>52.112651</ele>
        <time>2022-12-16T11:51:26.915Z</time>
      </trkpt>
      <trkpt lat="47.41278" lon="-1.53513">
        <ele>52.009407</ele>
        <time>2022-12-16T11:51:29.918Z</time>
      </trkpt>
      <trkpt lat="47.41266" lon="-1.53517">
        <ele>51.899449</ele>
        <time>2022-12-16T11:51:32.927Z</time>
      </trkpt>
      <trkpt lat="47.41253" lon="-1.53522">
        <ele>51.786042</ele>
        <time>2022-12-16T11:51:35.922Z</time>
      </trkpt>
      <trkpt lat="47.41244" lon="-1.53526">
        <ele>51.703482</ele>
        <time>2022-12-16T11:51:37.908Z</time>
      </trkpt>
      <trkpt lat="47.41231" lon="-1.53529">
        <ele>51.588415</ele>
        <time>2022-12-16T11:51:40.901Z</time>
      </trkpt>
      <trkpt lat="47.41217" lon="-1.53532">
        <ele>51.46778</ele>
        <time>2022-12-16T11:51:43.924Z</time>
      </trkpt>
      <trkpt lat="47.41208" lon="-1.53536">
        <ele>51.386572</ele>
        <time>2022-12-16T11:51:45.934Z</time>
      </trkpt>
      <trkpt lat="47.41199" lon="-1.53539">
        <ele>51.306105</ele>
        <time>2022-12-16T11:51:47.930Z</time>
      </trkpt>
      <trkpt lat="47.41186" lon="-1.53543">
        <ele>51.199993</ele>
        <time>2022-12-16T11:51:50.902Z</time>
      </trkpt>
      <trkpt lat="47.41175" lon="-1.53546">
        <ele>51.103363</ele>
        <time>2022-12-16T11:51:53.925Z</time>
      </trkpt>
      <trkpt lat="47.41164" lon="-1.53548">
        <ele>51.001702</ele>
        <time>2022-12-16T11:51:56.922Z</time>
      </trkpt>
      <trkpt lat="47.41151" lon="-1.53548">
        <ele>50.890883</ele>
        <time>2022-12-16T11:51:59.922Z</time>
      </trkpt>
      <trkpt lat="47.41138" lon="-1.53547">
        <ele>50.783229</ele>
        <time>2022-12-16T11:52:02.907Z</time>
      </trkpt>
      <trkpt lat="47.41126" lon="-1.53543">
        <ele>50.801688</ele>
        <time>2022-12-16T11:52:05.906Z</time>
      </trkpt>
      <trkpt lat="47.41117" lon="-1.5354">
        <ele>50.878114</ele>
        <time>2022-12-16T11:52:07.918Z</time>
      </trkpt>
      <trkpt lat="47.41108" lon="-1.53536">
        <ele>50.952683</ele>
        <time>2022-12-16T11:52:09.912Z</time>
      </trkpt>
      <trkpt lat="47.411" lon="-1.53531">
        <ele>51.026189</ele>
        <time>2022-12-16T11:52:11.916Z</time>
      </trkpt>
      <trkpt lat="47.4109" lon="-1.53522">
        <ele>51.120328</ele>
        <time>2022-12-16T11:52:14.915Z</time>
      </trkpt>
      <trkpt lat="47.4108" lon="-1.53514">
        <ele>51.211814</ele>
        <time>2022-12-16T11:52:17.918Z</time>
      </trkpt>
      <trkpt lat="47.41072" lon="-1.53506">
        <ele>51.293603</ele>
        <time>2022-12-16T11:52:20.901Z</time>
      </trkpt>
      <trkpt lat="47.41064" lon="-1.53498">
        <ele>51.367622</ele>
        <time>2022-12-16T11:52:23.923Z</time>
      </trkpt>
      <trkpt lat="47.41056" lon="-1.53489">
        <ele>51.446773</ele>
        <time>2022-12-16T11:52:28.901Z</time>
      </trkpt>
      <trkpt lat="47.41049" lon="-1.53481">
        <ele>51.519808</ele>
        <time>2022-12-16T11:52:36.908Z</time>
      </trkpt>
      <trkpt lat="47.41042" lon="-1.53472">
        <ele>51.595217</ele>
        <time>2022-12-16T11:52:49.907Z</time>
      </trkpt>
      <trkpt lat="47.41034" lon="-1.53464">
        <ele>51.672735</ele>
        <time>2022-12-16T11:53:02.903Z</time>
      </trkpt>
      <trkpt lat="47.41024" lon="-1.53455">
        <ele>51.77133</ele>
        <time>2022-12-16T11:53:05.905Z</time>
      </trkpt>
      <trkpt lat="47.41015" lon="-1.53447">
        <ele>51.852113</ele>
        <time>2022-12-16T11:53:07.901Z</time>
      </trkpt>
      <trkpt lat="47.41006" lon="-1.53436">
        <ele>51.950477</ele>
        <time>2022-12-16T11:53:09.920Z</time>
      </trkpt>
      <trkpt lat="47.40995" lon="-1.53425">
        <ele>52.057962</ele>
        <time>2022-12-16T11:53:11.909Z</time>
      </trkpt>
      <trkpt lat="47.40985" lon="-1.53416">
        <ele>52.152926</ele>
        <time>2022-12-16T11:53:13.917Z</time>
      </trkpt>
      <trkpt lat="47.40975" lon="-1.53407">
        <ele>52.18548</ele>
        <time>2022-12-16T11:53:15.902Z</time>
      </trkpt>
      <trkpt lat="47.40966" lon="-1.53401">
        <ele>52.162827</ele>
        <time>2022-12-16T11:53:17.902Z</time>
      </trkpt>
      <trkpt lat="47.40957" lon="-1.53396">
        <ele>52.140379</ele>
        <time>2022-12-16T11:53:19.902Z</time>
      </trkpt>
      <trkpt lat="47.40945" lon="-1.5339">
        <ele>52.110713</ele>
        <time>2022-12-16T11:53:22.911Z</time>
      </trkpt>
      <trkpt lat="47.40935" lon="-1.53384">
        <ele>52.086893</ele>
        <time>2022-12-16T11:53:25.911Z</time>
      </trkpt>
      <trkpt lat="47.40924" lon="-1.5338">
        <ele>52.062109</ele>
        <time>2022-12-16T11:53:28.927Z</time>
      </trkpt>
      <trkpt lat="47.40913" lon="-1.53376">
        <ele>52.035836</ele>
        <time>2022-12-16T11:53:31.925Z</time>
      </trkpt>
      <trkpt lat="47.40901" lon="-1.53371">
        <ele>52.0084</ele>
        <time>2022-12-16T11:53:34.920Z</time>
      </trkpt>
      <trkpt lat="47.4089" lon="-1.53365">
        <ele>51.980441</ele>
        <time>2022-12-16T11:53:37.920Z</time>
      </trkpt>
      <trkpt lat="47.40877" lon="-1.5336">
        <ele>51.95183</ele>
        <time>2022-12-16T11:53:40.906Z</time>
      </trkpt>
      <trkpt lat="47.40866" lon="-1.53354">
        <ele>51.923325</ele>
        <time>2022-12-16T11:53:43.922Z</time>
      </trkpt>
      <trkpt lat="47.40853" lon="-1.53349">
        <ele>51.893408</ele>
        <time>2022-12-16T11:53:46.921Z</time>
      </trkpt>
      <trkpt lat="47.4084" lon="-1.53344">
        <ele>51.862883</ele>
        <time>2022-12-16T11:53:49.921Z</time>
      </trkpt>
      <trkpt lat="47.40827" lon="-1.5334">
        <ele>51.832763</ele>
        <time>2022-12-16T11:53:52.920Z</time>
      </trkpt>
      <trkpt lat="47.40815" lon="-1.53334">
        <ele>51.803891</ele>
        <time>2022-12-16T11:53:55.920Z</time>
      </trkpt>
      <trkpt lat="47.40803" lon="-1.5333">
        <ele>51.792495</ele>
        <time>2022-12-16T11:53:58.920Z</time>
      </trkpt>
      <trkpt lat="47.40791" lon="-1.53325">
        <ele>51.796208</ele>
        <time>2022-12-16T11:54:01.917Z</time>
      </trkpt>
      <trkpt lat="47.40781" lon="-1.5332">
        <ele>51.799735</ele>
        <time>2022-12-16T11:54:04.924Z</time>
      </trkpt>
      <trkpt lat="47.40769" lon="-1.53315">
        <ele>51.803631</ele>
        <time>2022-12-16T11:54:07.919Z</time>
      </trkpt>
      <trkpt lat="47.40757" lon="-1.5331">
        <ele>51.80776</ele>
        <time>2022-12-16T11:54:10.903Z</time>
      </trkpt>
      <trkpt lat="47.40744" lon="-1.53304">
        <ele>51.812178</ele>
        <time>2022-12-16T11:54:13.913Z</time>
      </trkpt>
      <trkpt lat="47.40731" lon="-1.533">
        <ele>51.816191</ele>
        <time>2022-12-16T11:54:16.926Z</time>
      </trkpt>
      <trkpt lat="47.40721" lon="-1.53294">
        <ele>51.81985</ele>
        <time>2022-12-16T11:54:19.903Z</time>
      </trkpt>
      <trkpt lat="47.40711" lon="-1.53291">
        <ele>51.823111</ele>
        <time>2022-12-16T11:54:22.910Z</time>
      </trkpt>
      <trkpt lat="47.40701" lon="-1.53287">
        <ele>51.826393</ele>
        <time>2022-12-16T11:54:25.921Z</time>
      </trkpt>
      <trkpt lat="47.4069" lon="-1.53282">
        <ele>51.830172</ele>
        <time>2022-12-16T11:54:28.909Z</time>
      </trkpt>
      <trkpt lat="47.40678" lon="-1.53276">
        <ele>51.83407</ele>
        <time>2022-12-16T11:54:31.922Z</time>
      </trkpt>
      <trkpt lat="47.40668" lon="-1.53265">
        <ele>51.83812</ele>
        <time>2022-12-16T11:54:34.904Z</time>
      </trkpt>
      <trkpt lat="47.40659" lon="-1.53252">
        <ele>51.842155</ele>
        <time>2022-12-16T11:54:37.904Z</time>
      </trkpt>
      <trkpt lat="47.40653" lon="-1.53237">
        <ele>51.845882</ele>
        <time>2022-12-16T11:54:40.904Z</time>
      </trkpt>
      <trkpt lat="47.40651" lon="-1.53222">
        <ele>51.802799</ele>
        <time>2022-12-16T11:54:43.908Z</time>
      </trkpt>
      <trkpt lat="47.40649" lon="-1.53206">
        <ele>51.673519</ele>
        <time>2022-12-16T11:54:46.918Z</time>
      </trkpt>
      <trkpt lat="47.40649" lon="-1.53189">
        <ele>51.530161</ele>
        <time>2022-12-16T11:54:49.905Z</time>
      </trkpt>
      <trkpt lat="47.4065" lon="-1.5317">
        <ele>51.374253</ele>
        <time>2022-12-16T11:54:52.918Z</time>
      </trkpt>
      <trkpt lat="47.40651" lon="-1.5315">
        <ele>51.209522</ele>
        <time>2022-12-16T11:54:55.921Z</time>
      </trkpt>
      <trkpt lat="47.40653" lon="-1.53137">
        <ele>51.095951</ele>
        <time>2022-12-16T11:54:57.904Z</time>
      </trkpt>
      <trkpt lat="47.40655" lon="-1.53124">
        <ele>50.984932</ele>
        <time>2022-12-16T11:54:59.903Z</time>
      </trkpt>
      <trkpt lat="47.40658" lon="-1.53105">
        <ele>50.823138</ele>
        <time>2022-12-16T11:55:02.905Z</time>
      </trkpt>
      <trkpt lat="47.40662" lon="-1.53088">
        <ele>50.673398</ele>
        <time>2022-12-16T11:55:05.927Z</time>
      </trkpt>
      <trkpt lat="47.40665" lon="-1.53074">
        <ele>50.556029</ele>
        <time>2022-12-16T11:55:08.920Z</time>
      </trkpt>
      <trkpt lat="47.40668" lon="-1.53058">
        <ele>50.410817</ele>
        <time>2022-12-16T11:55:12.920Z</time>
      </trkpt>
      <trkpt lat="47.40671" lon="-1.53042">
        <ele>50.275523</ele>
        <time>2022-12-16T11:55:16.911Z</time>
      </trkpt>
      <trkpt lat="47.40673" lon="-1.53028">
        <ele>50.158155</ele>
        <time>2022-12-16T11:55:19.899Z</time>
      </trkpt>
      <trkpt lat="47.40677" lon="-1.53012">
        <ele>50.020394</ele>
        <time>2022-12-16T11:55:22.923Z</time>
      </trkpt>
      <trkpt lat="47.40681" lon="-1.52996">
        <ele>49.876356</ele>
        <time>2022-12-16T11:55:25.918Z</time>
      </trkpt>
      <trkpt lat="47.40685" lon="-1.52978">
        <ele>49.723639</ele>
        <time>2022-12-16T11:55:28.917Z</time>
      </trkpt>
      <trkpt lat="47.40689" lon="-1.52961">
        <ele>49.623509</ele>
        <time>2022-12-16T11:55:31.907Z</time>
      </trkpt>
      <trkpt lat="47.40691" lon="-1.52948">
        <ele>49.590648</ele>
        <time>2022-12-16T11:55:33.919Z</time>
      </trkpt>
      <trkpt lat="47.40695" lon="-1.5293">
        <ele>49.544375</ele>
        <time>2022-12-16T11:55:36.916Z</time>
      </trkpt>
      <trkpt lat="47.40698" lon="-1.52915">
        <ele>49.50442</ele>
        <time>2022-12-16T11:55:39.922Z</time>
      </trkpt>
      <trkpt lat="47.40701" lon="-1.52899">
        <ele>49.463507</ele>
        <time>2022-12-16T11:55:42.914Z</time>
      </trkpt>
      <trkpt lat="47.40702" lon="-1.52885">
        <ele>49.430412</ele>
        <time>2022-12-16T11:55:44.905Z</time>
      </trkpt>
      <trkpt lat="47.40705" lon="-1.52867">
        <ele>49.383465</ele>
        <time>2022-12-16T11:55:47.919Z</time>
      </trkpt>
      <trkpt lat="47.40706" lon="-1.52853">
        <ele>49.349436</ele>
        <time>2022-12-16T11:55:49.925Z</time>
      </trkpt>
      <trkpt lat="47.40707" lon="-1.52834">
        <ele>49.301841</ele>
        <time>2022-12-16T11:55:52.925Z</time>
      </trkpt>
      <trkpt lat="47.40707" lon="-1.5282">
        <ele>49.268789</ele>
        <time>2022-12-16T11:55:54.916Z</time>
      </trkpt>
      <trkpt lat="47.40707" lon="-1.52801">
        <ele>49.221409</ele>
        <time>2022-12-16T11:55:57.917Z</time>
      </trkpt>
      <trkpt lat="47.40707" lon="-1.52782">
        <ele>49.174789</ele>
        <time>2022-12-16T11:56:00.903Z</time>
      </trkpt>
      <trkpt lat="47.40706" lon="-1.52764">
        <ele>49.128572</ele>
        <time>2022-12-16T11:56:03.928Z</time>
      </trkpt>
      <trkpt lat="47.40705" lon="-1.52746">
        <ele>49.085991</ele>
        <time>2022-12-16T11:56:06.910Z</time>
      </trkpt>
      <trkpt lat="47.40704" lon="-1.5273">
        <ele>49.045898</ele>
        <time>2022-12-16T11:56:09.919Z</time>
      </trkpt>
      <trkpt lat="47.40702" lon="-1.52713">
        <ele>49.002535</ele>
        <time>2022-12-16T11:56:12.926Z</time>
      </trkpt>
      <trkpt lat="47.407" lon="-1.52694">
        <ele>49.122151</ele>
        <time>2022-12-16T11:56:15.916Z</time>
      </trkpt>
      <trkpt lat="47.40697" lon="-1.52676">
        <ele>49.291063</ele>
        <time>2022-12-16T11:56:18.922Z</time>
      </trkpt>
      <trkpt lat="47.40694" lon="-1.52657">
        <ele>49.470232</ele>
        <time>2022-12-16T11:56:21.923Z</time>
      </trkpt>
      <trkpt lat="47.40691" lon="-1.52638">
        <ele>49.645103</ele>
        <time>2022-12-16T11:56:24.917Z</time>
      </trkpt>
      <trkpt lat="47.40688" lon="-1.52621">
        <ele>49.811409</ele>
        <time>2022-12-16T11:56:27.919Z</time>
      </trkpt>
      <trkpt lat="47.40683" lon="-1.52604">
        <ele>49.97768</ele>
        <time>2022-12-16T11:56:30.903Z</time>
      </trkpt>
      <trkpt lat="47.40678" lon="-1.52587">
        <ele>50.148902</ele>
        <time>2022-12-16T11:56:33.907Z</time>
      </trkpt>
      <trkpt lat="47.40673" lon="-1.52569">
        <ele>50.329052</ele>
        <time>2022-12-16T11:56:36.919Z</time>
      </trkpt>
      <trkpt lat="47.40667" lon="-1.52551">
        <ele>50.508323</ele>
        <time>2022-12-16T11:56:39.926Z</time>
      </trkpt>
      <trkpt lat="47.40663" lon="-1.52539">
        <ele>50.631479</ele>
        <time>2022-12-16T11:56:41.919Z</time>
      </trkpt>
      <trkpt lat="47.40656" lon="-1.52523">
        <ele>50.809042</ele>
        <time>2022-12-16T11:56:44.919Z</time>
      </trkpt>
      <trkpt lat="47.4065" lon="-1.52508">
        <ele>50.965405</ele>
        <time>2022-12-16T11:56:47.920Z</time>
      </trkpt>
      <trkpt lat="47.40644" lon="-1.52496">
        <ele>51.104451</ele>
        <time>2022-12-16T11:56:50.903Z</time>
      </trkpt>
      <trkpt lat="47.40636" lon="-1.52483">
        <ele>51.25938</ele>
        <time>2022-12-16T11:56:53.917Z</time>
      </trkpt>
      <trkpt lat="47.40629" lon="-1.5247">
        <ele>51.421673</ele>
        <time>2022-12-16T11:56:56.923Z</time>
      </trkpt>
      <trkpt lat="47.40621" lon="-1.52457">
        <ele>51.448635</ele>
        <time>2022-12-16T11:56:59.916Z</time>
      </trkpt>
      <trkpt lat="47.40612" lon="-1.52445">
        <ele>51.473783</ele>
        <time>2022-12-16T11:57:02.916Z</time>
      </trkpt>
      <trkpt lat="47.40604" lon="-1.52432">
        <ele>51.499046</ele>
        <time>2022-12-16T11:57:05.924Z</time>
      </trkpt>
      <trkpt lat="47.40595" lon="-1.52419">
        <ele>51.525037</ele>
        <time>2022-12-16T11:57:08.926Z</time>
      </trkpt>
      <trkpt lat="47.40588" lon="-1.5241">
        <ele>51.544234</ele>
        <time>2022-12-16T11:57:10.905Z</time>
      </trkpt>
      <trkpt lat="47.40582" lon="-1.524">
        <ele>51.563282</ele>
        <time>2022-12-16T11:57:12.916Z</time>
      </trkpt>
      <trkpt lat="47.40572" lon="-1.52387">
        <ele>51.589773</ele>
        <time>2022-12-16T11:57:15.919Z</time>
      </trkpt>
      <trkpt lat="47.40563" lon="-1.52375">
        <ele>51.616319</ele>
        <time>2022-12-16T11:57:18.921Z</time>
      </trkpt>
      <trkpt lat="47.40554" lon="-1.52361">
        <ele>51.643106</ele>
        <time>2022-12-16T11:57:21.934Z</time>
      </trkpt>
      <trkpt lat="47.40544" lon="-1.52348">
        <ele>51.670938</ele>
        <time>2022-12-16T11:57:24.925Z</time>
      </trkpt>
      <trkpt lat="47.40535" lon="-1.52335">
        <ele>51.69783</ele>
        <time>2022-12-16T11:57:27.924Z</time>
      </trkpt>
      <trkpt lat="47.40525" lon="-1.52321">
        <ele>51.726338</ele>
        <time>2022-12-16T11:57:30.906Z</time>
      </trkpt>
      <trkpt lat="47.40518" lon="-1.52312">
        <ele>51.745595</ele>
        <time>2022-12-16T11:57:32.921Z</time>
      </trkpt>
      <trkpt lat="47.40509" lon="-1.52299">
        <ele>51.771734</ele>
        <time>2022-12-16T11:57:35.921Z</time>
      </trkpt>
      <trkpt lat="47.40501" lon="-1.52287">
        <ele>51.795493</ele>
        <time>2022-12-16T11:57:38.920Z</time>
      </trkpt>
      <trkpt lat="47.40492" lon="-1.52276">
        <ele>51.818191</ele>
        <time>2022-12-16T11:57:41.921Z</time>
      </trkpt>
      <trkpt lat="47.40483" lon="-1.52263">
        <ele>51.842104</ele>
        <time>2022-12-16T11:57:44.927Z</time>
      </trkpt>
      <trkpt lat="47.40474" lon="-1.52249">
        <ele>51.866248</ele>
        <time>2022-12-16T11:57:47.921Z</time>
      </trkpt>
      <trkpt lat="47.40468" lon="-1.5224">
        <ele>51.883158</ele>
        <time>2022-12-16T11:57:49.925Z</time>
      </trkpt>
      <trkpt lat="47.40461" lon="-1.52231">
        <ele>51.900068</ele>
        <time>2022-12-16T11:57:51.905Z</time>
      </trkpt>
      <trkpt lat="47.40452" lon="-1.52218">
        <ele>51.923088</ele>
        <time>2022-12-16T11:57:54.918Z</time>
      </trkpt>
      <trkpt lat="47.40444" lon="-1.52207">
        <ele>51.943922</ele>
        <time>2022-12-16T11:57:57.912Z</time>
      </trkpt>
      <trkpt lat="47.40437" lon="-1.52197">
        <ele>51.963098</ele>
        <time>2022-12-16T11:58:00.901Z</time>
      </trkpt>
      <trkpt lat="47.40427" lon="-1.52188">
        <ele>51.983896</ele>
        <time>2022-12-16T11:58:03.904Z</time>
      </trkpt>
      <trkpt lat="47.40418" lon="-1.52179">
        <ele>52.00428</ele>
        <time>2022-12-16T11:58:06.921Z</time>
      </trkpt>
      <trkpt lat="47.40409" lon="-1.5217">
        <ele>52.024981</ele>
        <time>2022-12-16T11:58:09.922Z</time>
      </trkpt>
      <trkpt lat="47.40402" lon="-1.52155">
        <ele>52.047727</ele>
        <time>2022-12-16T11:58:12.906Z</time>
      </trkpt>
      <trkpt lat="47.40395" lon="-1.52139">
        <ele>52.072265</ele>
        <time>2022-12-16T11:58:15.918Z</time>
      </trkpt>
      <trkpt lat="47.40387" lon="-1.52125">
        <ele>52.095863</ele>
        <time>2022-12-16T11:58:18.906Z</time>
      </trkpt>
      <trkpt lat="47.40377" lon="-1.52112">
        <ele>52.120138</ele>
        <time>2022-12-16T11:58:21.917Z</time>
      </trkpt>
      <trkpt lat="47.40368" lon="-1.52099">
        <ele>52.167801</ele>
        <time>2022-12-16T11:58:24.924Z</time>
      </trkpt>
      <trkpt lat="47.40359" lon="-1.52086">
        <ele>52.290135</ele>
        <time>2022-12-16T11:58:27.923Z</time>
      </trkpt>
      <trkpt lat="47.4035" lon="-1.52075">
        <ele>52.402285</ele>
        <time>2022-12-16T11:58:30.904Z</time>
      </trkpt>
      <trkpt lat="47.40343" lon="-1.52066">
        <ele>52.492071</ele>
        <time>2022-12-16T11:58:33.900Z</time>
      </trkpt>
      <trkpt lat="47.40334" lon="-1.52055">
        <ele>52.608251</ele>
        <time>2022-12-16T11:58:37.909Z</time>
      </trkpt>
      <trkpt lat="47.40326" lon="-1.52044">
        <ele>52.712749</ele>
        <time>2022-12-16T11:58:40.903Z</time>
      </trkpt>
      <trkpt lat="47.40319" lon="-1.52033">
        <ele>52.815035</ele>
        <time>2022-12-16T11:58:43.927Z</time>
      </trkpt>
      <trkpt lat="47.40311" lon="-1.52021">
        <ele>52.923352</ele>
        <time>2022-12-16T11:58:46.924Z</time>
      </trkpt>
      <trkpt lat="47.40303" lon="-1.52009">
        <ele>53.035767</ele>
        <time>2022-12-16T11:58:49.921Z</time>
      </trkpt>
      <trkpt lat="47.40294" lon="-1.51997">
        <ele>53.15394</ele>
        <time>2022-12-16T11:58:52.919Z</time>
      </trkpt>
      <trkpt lat="47.40286" lon="-1.51984">
        <ele>53.268415</ele>
        <time>2022-12-16T11:58:55.903Z</time>
      </trkpt>
      <trkpt lat="47.40278" lon="-1.51973">
        <ele>53.375502</ele>
        <time>2022-12-16T11:58:58.928Z</time>
      </trkpt>
      <trkpt lat="47.40271" lon="-1.51962">
        <ele>53.477037</ele>
        <time>2022-12-16T11:59:01.919Z</time>
      </trkpt>
      <trkpt lat="47.40264" lon="-1.51952">
        <ele>53.568624</ele>
        <time>2022-12-16T11:59:04.919Z</time>
      </trkpt>
      <trkpt lat="47.40257" lon="-1.51942">
        <ele>53.662079</ele>
        <time>2022-12-16T11:59:08.931Z</time>
      </trkpt>
      <trkpt lat="47.4025" lon="-1.51932">
        <ele>53.758974</ele>
        <time>2022-12-16T11:59:13.910Z</time>
      </trkpt>
      <trkpt lat="47.40243" lon="-1.51921">
        <ele>53.858487</ele>
        <time>2022-12-16T11:59:18.906Z</time>
      </trkpt>
      <trkpt lat="47.40235" lon="-1.51909">
        <ele>53.883922</ele>
        <time>2022-12-16T11:59:23.923Z</time>
      </trkpt>
      <trkpt lat="47.40228" lon="-1.51899">
        <ele>53.876345</ele>
        <time>2022-12-16T11:59:28.915Z</time>
      </trkpt>
      <trkpt lat="47.40219" lon="-1.51901">
        <ele>53.868891</ele>
        <time>2022-12-16T11:59:34.906Z</time>
      </trkpt>
      <trkpt lat="47.40213" lon="-1.51911">
        <ele>53.861705</ele>
        <time>2022-12-16T11:59:41.910Z</time>
      </trkpt>
      <trkpt lat="47.40213" lon="-1.51911">
        <ele>53.861349</ele>
        <time>2022-12-16T12:00:09.117Z</time>
      </trkpt>
      <trkpt lat="47.4053" lon="-1.52367">
        <ele>52.279217</ele>
        <time>2022-12-16T12:06:36.292Z</time>
      </trkpt>
      <trkpt lat="47.4054" lon="-1.52379">
        <ele>52.133475</ele>
        <time>2022-12-16T12:06:47.939Z</time>
      </trkpt>
      <trkpt lat="47.40547" lon="-1.52388">
        <ele>52.029677</ele>
        <time>2022-12-16T12:06:52.919Z</time>
      </trkpt>
      <trkpt lat="47.40555" lon="-1.52401">
        <ele>51.896001</ele>
        <time>2022-12-16T12:06:56.914Z</time>
      </trkpt>
      <trkpt lat="47.40564" lon="-1.52413">
        <ele>51.765762</ele>
        <time>2022-12-16T12:06:59.920Z</time>
      </trkpt>
      <trkpt lat="47.40572" lon="-1.52425">
        <ele>51.628369</ele>
        <time>2022-12-16T12:07:02.930Z</time>
      </trkpt>
      <trkpt lat="47.40582" lon="-1.52438">
        <ele>51.620551</ele>
        <time>2022-12-16T12:07:05.932Z</time>
      </trkpt>
      <trkpt lat="47.40591" lon="-1.52451">
        <ele>51.644687</ele>
        <time>2022-12-16T12:07:08.930Z</time>
      </trkpt>
      <trkpt lat="47.406" lon="-1.52465">
        <ele>51.668681</ele>
        <time>2022-12-16T12:07:11.933Z</time>
      </trkpt>
      <trkpt lat="47.40608" lon="-1.5248">
        <ele>51.692956</ele>
        <time>2022-12-16T12:07:14.929Z</time>
      </trkpt>
      <trkpt lat="47.40615" lon="-1.52489">
        <ele>51.709901</ele>
        <time>2022-12-16T12:07:16.932Z</time>
      </trkpt>
      <trkpt lat="47.40622" lon="-1.52502">
        <ele>51.73122</ele>
        <time>2022-12-16T12:07:19.924Z</time>
      </trkpt>
      <trkpt lat="47.40628" lon="-1.52515">
        <ele>51.750488</ele>
        <time>2022-12-16T12:07:22.914Z</time>
      </trkpt>
      <trkpt lat="47.40635" lon="-1.52529">
        <ele>51.771738</ele>
        <time>2022-12-16T12:07:25.942Z</time>
      </trkpt>
      <trkpt lat="47.4064" lon="-1.52542">
        <ele>51.791649</ele>
        <time>2022-12-16T12:07:28.928Z</time>
      </trkpt>
      <trkpt lat="47.40645" lon="-1.52556">
        <ele>51.811189</ele>
        <time>2022-12-16T12:07:31.916Z</time>
      </trkpt>
      <trkpt lat="47.4065" lon="-1.52572">
        <ele>51.833785</ele>
        <time>2022-12-16T12:07:34.938Z</time>
      </trkpt>
      <trkpt lat="47.40655" lon="-1.5259">
        <ele>51.857746</ele>
        <time>2022-12-16T12:07:37.908Z</time>
      </trkpt>
      <trkpt lat="47.4066" lon="-1.52608">
        <ele>51.881451</ele>
        <time>2022-12-16T12:07:40.911Z</time>
      </trkpt>
      <trkpt lat="47.40663" lon="-1.5262">
        <ele>51.898367</ele>
        <time>2022-12-16T12:07:42.929Z</time>
      </trkpt>
      <trkpt lat="47.40668" lon="-1.52638">
        <ele>51.922978</ele>
        <time>2022-12-16T12:07:45.929Z</time>
      </trkpt>
      <trkpt lat="47.40671" lon="-1.52655">
        <ele>51.946906</ele>
        <time>2022-12-16T12:07:48.927Z</time>
      </trkpt>
      <trkpt lat="47.40674" lon="-1.52672">
        <ele>51.972538</ele>
        <time>2022-12-16T12:07:51.923Z</time>
      </trkpt>
      <trkpt lat="47.40677" lon="-1.52689">
        <ele>51.998458</ele>
        <time>2022-12-16T12:07:54.931Z</time>
      </trkpt>
      <trkpt lat="47.40679" lon="-1.52708">
        <ele>52.026619</ele>
        <time>2022-12-16T12:07:57.919Z</time>
      </trkpt>
      <trkpt lat="47.40681" lon="-1.52726">
        <ele>52.054309</ele>
        <time>2022-12-16T12:08:00.913Z</time>
      </trkpt>
      <trkpt lat="47.40683" lon="-1.52744">
        <ele>52.081779</ele>
        <time>2022-12-16T12:08:03.938Z</time>
      </trkpt>
      <trkpt lat="47.40684" lon="-1.5276">
        <ele>52.104573</ele>
        <time>2022-12-16T12:08:06.912Z</time>
      </trkpt>
      <trkpt lat="47.40685" lon="-1.52774">
        <ele>52.12583</ele>
        <time>2022-12-16T12:08:09.933Z</time>
      </trkpt>
      <trkpt lat="47.40686" lon="-1.5279">
        <ele>52.148979</ele>
        <time>2022-12-16T12:08:12.936Z</time>
      </trkpt>
      <trkpt lat="47.40686" lon="-1.52808">
        <ele>52.175647</ele>
        <time>2022-12-16T12:08:15.932Z</time>
      </trkpt>
      <trkpt lat="47.40686" lon="-1.52826">
        <ele>52.20247</ele>
        <time>2022-12-16T12:08:18.930Z</time>
      </trkpt>
      <trkpt lat="47.40684" lon="-1.52843">
        <ele>52.22875</ele>
        <time>2022-12-16T12:08:21.912Z</time>
      </trkpt>
      <trkpt lat="47.40682" lon="-1.52857">
        <ele>52.250237</ele>
        <time>2022-12-16T12:08:23.937Z</time>
      </trkpt>
      <trkpt lat="47.40681" lon="-1.52871">
        <ele>52.270187</ele>
        <time>2022-12-16T12:08:25.929Z</time>
      </trkpt>
      <trkpt lat="47.40679" lon="-1.5289">
        <ele>52.29817</ele>
        <time>2022-12-16T12:08:28.932Z</time>
      </trkpt>
      <trkpt lat="47.40676" lon="-1.52907">
        <ele>52.324513</ele>
        <time>2022-12-16T12:08:31.932Z</time>
      </trkpt>
      <trkpt lat="47.40673" lon="-1.52925">
        <ele>52.333399</ele>
        <time>2022-12-16T12:08:34.930Z</time>
      </trkpt>
      <trkpt lat="47.4067" lon="-1.52943">
        <ele>52.337856</ele>
        <time>2022-12-16T12:08:37.920Z</time>
      </trkpt>
      <trkpt lat="47.40666" lon="-1.52962">
        <ele>52.342435</ele>
        <time>2022-12-16T12:08:40.910Z</time>
      </trkpt>
      <trkpt lat="47.40663" lon="-1.5298">
        <ele>52.346725</ele>
        <time>2022-12-16T12:08:43.929Z</time>
      </trkpt>
      <trkpt lat="47.4066" lon="-1.52993">
        <ele>52.349881</ele>
        <time>2022-12-16T12:08:45.926Z</time>
      </trkpt>
      <trkpt lat="47.40657" lon="-1.53012">
        <ele>52.354451</ele>
        <time>2022-12-16T12:08:48.927Z</time>
      </trkpt>
      <trkpt lat="47.40654" lon="-1.53025">
        <ele>52.357791</ele>
        <time>2022-12-16T12:08:50.912Z</time>
      </trkpt>
      <trkpt lat="47.4065" lon="-1.53041">
        <ele>52.361947</ele>
        <time>2022-12-16T12:08:53.912Z</time>
      </trkpt>
      <trkpt lat="47.40645" lon="-1.53056">
        <ele>52.365804</ele>
        <time>2022-12-16T12:08:57.933Z</time>
      </trkpt>
      <trkpt lat="47.40642" lon="-1.5307">
        <ele>52.369095</ele>
        <time>2022-12-16T12:09:03.928Z</time>
      </trkpt>
      <trkpt lat="47.40632" lon="-1.53066">
        <ele>52.372691</ele>
        <time>2022-12-16T12:09:08.916Z</time>
      </trkpt>
      <trkpt lat="47.4062" lon="-1.53062">
        <ele>52.376849</ele>
        <time>2022-12-16T12:09:13.940Z</time>
      </trkpt>
      <trkpt lat="47.40611" lon="-1.53062">
        <ele>52.380178</ele>
        <time>2022-12-16T12:09:16.916Z</time>
      </trkpt>
      <trkpt lat="47.406" lon="-1.53065">
        <ele>52.383934</ele>
        <time>2022-12-16T12:09:19.911Z</time>
      </trkpt>
      <trkpt lat="47.40589" lon="-1.53071">
        <ele>52.388064</ele>
        <time>2022-12-16T12:09:22.919Z</time>
      </trkpt>
      <trkpt lat="47.40578" lon="-1.53077">
        <ele>52.397013</ele>
        <time>2022-12-16T12:09:25.928Z</time>
      </trkpt>
      <trkpt lat="47.40568" lon="-1.53083">
        <ele>52.493643</ele>
        <time>2022-12-16T12:09:28.919Z</time>
      </trkpt>
      <trkpt lat="47.40557" lon="-1.53088">
        <ele>52.604114</ele>
        <time>2022-12-16T12:09:31.922Z</time>
      </trkpt>
      <trkpt lat="47.40546" lon="-1.53094">
        <ele>52.723094</ele>
        <time>2022-12-16T12:09:34.934Z</time>
      </trkpt>
      <trkpt lat="47.40534" lon="-1.53102">
        <ele>52.850376</ele>
        <time>2022-12-16T12:09:37.935Z</time>
      </trkpt>
      <trkpt lat="47.40525" lon="-1.53108">
        <ele>52.939638</ele>
        <time>2022-12-16T12:09:39.918Z</time>
      </trkpt>
      <trkpt lat="47.40517" lon="-1.53113">
        <ele>53.027317</ele>
        <time>2022-12-16T12:09:41.919Z</time>
      </trkpt>
      <trkpt lat="47.40507" lon="-1.53119">
        <ele>53.130721</ele>
        <time>2022-12-16T12:09:44.921Z</time>
      </trkpt>
      <trkpt lat="47.40495" lon="-1.53127">
        <ele>53.257686</ele>
        <time>2022-12-16T12:09:47.913Z</time>
      </trkpt>
      <trkpt lat="47.40486" lon="-1.53133">
        <ele>53.353011</ele>
        <time>2022-12-16T12:09:49.921Z</time>
      </trkpt>
      <trkpt lat="47.40477" lon="-1.53139">
        <ele>53.442085</ele>
        <time>2022-12-16T12:09:51.922Z</time>
      </trkpt>
      <trkpt lat="47.40467" lon="-1.53146">
        <ele>53.55422</ele>
        <time>2022-12-16T12:09:54.915Z</time>
      </trkpt>
      <trkpt lat="47.40457" lon="-1.5315">
        <ele>53.646544</ele>
        <time>2022-12-16T12:09:57.914Z</time>
      </trkpt>
      <trkpt lat="47.40448" lon="-1.53156">
        <ele>53.746738</ele>
        <time>2022-12-16T12:10:00.915Z</time>
      </trkpt>
      <trkpt lat="47.40439" lon="-1.53164">
        <ele>53.852658</ele>
        <time>2022-12-16T12:10:03.930Z</time>
      </trkpt>
      <trkpt lat="47.40429" lon="-1.53177">
        <ele>53.976711</ele>
        <time>2022-12-16T12:10:06.910Z</time>
      </trkpt>
      <trkpt lat="47.40421" lon="-1.53192">
        <ele>54.10004</ele>
        <time>2022-12-16T12:10:09.944Z</time>
      </trkpt>
      <trkpt lat="47.40414" lon="-1.53207">
        <ele>54.05425</ele>
        <time>2022-12-16T12:10:12.932Z</time>
      </trkpt>
      <trkpt lat="47.40408" lon="-1.53219">
        <ele>53.979403</ele>
        <time>2022-12-16T12:10:15.929Z</time>
      </trkpt>
      <trkpt lat="47.40404" lon="-1.53232">
        <ele>53.905949</ele>
        <time>2022-12-16T12:10:18.926Z</time>
      </trkpt>
      <trkpt lat="47.40399" lon="-1.53244">
        <ele>53.839637</ele>
        <time>2022-12-16T12:10:23.913Z</time>
      </trkpt>
      <trkpt lat="47.40392" lon="-1.53257">
        <ele>53.761092</ele>
        <time>2022-12-16T12:10:27.915Z</time>
      </trkpt>
      <trkpt lat="47.40384" lon="-1.53269">
        <ele>53.676041</ele>
        <time>2022-12-16T12:10:31.927Z</time>
      </trkpt>
      <trkpt lat="47.40377" lon="-1.53282">
        <ele>53.597149</ele>
        <time>2022-12-16T12:10:34.933Z</time>
      </trkpt>
      <trkpt lat="47.40369" lon="-1.53293">
        <ele>53.520011</ele>
        <time>2022-12-16T12:10:37.932Z</time>
      </trkpt>
      <trkpt lat="47.40361" lon="-1.53305">
        <ele>53.437569</ele>
        <time>2022-12-16T12:10:40.911Z</time>
      </trkpt>
      <trkpt lat="47.40353" lon="-1.53316">
        <ele>53.354692</ele>
        <time>2022-12-16T12:10:43.930Z</time>
      </trkpt>
      <trkpt lat="47.40344" lon="-1.5333">
        <ele>53.264333</ele>
        <time>2022-12-16T12:10:46.921Z</time>
      </trkpt>
      <trkpt lat="47.40335" lon="-1.53343">
        <ele>53.173866</ele>
        <time>2022-12-16T12:10:49.932Z</time>
      </trkpt>
      <trkpt lat="47.40327" lon="-1.53357">
        <ele>53.084837</ele>
        <time>2022-12-16T12:10:52.933Z</time>
      </trkpt>
      <trkpt lat="47.40321" lon="-1.53367">
        <ele>53.016688</ele>
        <time>2022-12-16T12:10:54.928Z</time>
      </trkpt>
      <trkpt lat="47.40315" lon="-1.53377">
        <ele>52.95228</ele>
        <time>2022-12-16T12:10:56.933Z</time>
      </trkpt>
      <trkpt lat="47.40306" lon="-1.53391">
        <ele>52.859869</ele>
        <time>2022-12-16T12:10:59.931Z</time>
      </trkpt>
      <trkpt lat="47.40298" lon="-1.53402">
        <ele>52.864449</ele>
        <time>2022-12-16T12:11:02.917Z</time>
      </trkpt>
      <trkpt lat="47.40291" lon="-1.53412">
        <ele>52.924057</ele>
        <time>2022-12-16T12:11:05.915Z</time>
      </trkpt>
      <trkpt lat="47.40283" lon="-1.53425">
        <ele>52.989565</ele>
        <time>2022-12-16T12:11:08.930Z</time>
      </trkpt>
      <trkpt lat="47.40274" lon="-1.5344">
        <ele>53.066119</ele>
        <time>2022-12-16T12:11:11.927Z</time>
      </trkpt>
      <trkpt lat="47.40266" lon="-1.53454">
        <ele>53.13617</ele>
        <time>2022-12-16T12:11:14.930Z</time>
      </trkpt>
      <trkpt lat="47.40259" lon="-1.53467">
        <ele>53.200951</ele>
        <time>2022-12-16T12:11:17.930Z</time>
      </trkpt>
      <trkpt lat="47.40252" lon="-1.53481">
        <ele>53.26997</ele>
        <time>2022-12-16T12:11:20.908Z</time>
      </trkpt>
      <trkpt lat="47.40247" lon="-1.53496">
        <ele>53.335742</ele>
        <time>2022-12-16T12:11:24.915Z</time>
      </trkpt>
      <trkpt lat="47.40244" lon="-1.53512">
        <ele>53.396186</ele>
        <time>2022-12-16T12:11:27.918Z</time>
      </trkpt>
      <trkpt lat="47.40242" lon="-1.53527">
        <ele>53.458427</ele>
        <time>2022-12-16T12:11:30.916Z</time>
      </trkpt>
      <trkpt lat="47.40239" lon="-1.53544">
        <ele>53.523513</ele>
        <time>2022-12-16T12:11:33.934Z</time>
      </trkpt>
      <trkpt lat="47.40237" lon="-1.5356">
        <ele>53.586339</ele>
        <time>2022-12-16T12:11:36.926Z</time>
      </trkpt>
      <trkpt lat="47.40235" lon="-1.53574">
        <ele>53.644053</ele>
        <time>2022-12-16T12:11:39.923Z</time>
      </trkpt>
      <trkpt lat="47.40233" lon="-1.5359">
        <ele>53.704889</ele>
        <time>2022-12-16T12:11:42.942Z</time>
      </trkpt>
      <trkpt lat="47.4023" lon="-1.53604">
        <ele>53.761102</ele>
        <time>2022-12-16T12:11:45.911Z</time>
      </trkpt>
      <trkpt lat="47.40228" lon="-1.53617">
        <ele>53.813396</ele>
        <time>2022-12-16T12:11:48.937Z</time>
      </trkpt>
      <trkpt lat="47.40226" lon="-1.53632">
        <ele>53.830086</ele>
        <time>2022-12-16T12:11:52.933Z</time>
      </trkpt>
      <trkpt lat="47.40223" lon="-1.53645">
        <ele>53.76657</ele>
        <time>2022-12-16T12:11:57.929Z</time>
      </trkpt>
      <trkpt lat="47.40214" lon="-1.53647">
        <ele>53.703385</ele>
        <time>2022-12-16T12:12:02.912Z</time>
      </trkpt>
      <trkpt lat="47.40204" lon="-1.53644">
        <ele>53.634483</ele>
        <time>2022-12-16T12:12:07.911Z</time>
      </trkpt>
      <trkpt lat="47.40201" lon="-1.53628">
        <ele>53.554999</ele>
        <time>2022-12-16T12:12:11.916Z</time>
      </trkpt>
      <trkpt lat="47.40201" lon="-1.53613">
        <ele>53.488174</ele>
        <time>2022-12-16T12:12:14.912Z</time>
      </trkpt>
      <trkpt lat="47.40199" lon="-1.53598">
        <ele>53.417268</ele>
        <time>2022-12-16T12:12:17.911Z</time>
      </trkpt>
      <trkpt lat="47.40197" lon="-1.53583">
        <ele>53.348188</ele>
        <time>2022-12-16T12:12:20.909Z</time>
      </trkpt>
      <trkpt lat="47.40194" lon="-1.53568">
        <ele>53.276214</ele>
        <time>2022-12-16T12:12:23.913Z</time>
      </trkpt>
      <trkpt lat="47.4019" lon="-1.53553">
        <ele>53.201059</ele>
        <time>2022-12-16T12:12:26.911Z</time>
      </trkpt>
      <trkpt lat="47.40184" lon="-1.5354">
        <ele>53.128162</ele>
        <time>2022-12-16T12:12:29.915Z</time>
      </trkpt>
      <trkpt lat="47.40175" lon="-1.5353">
        <ele>53.052588</ele>
        <time>2022-12-16T12:12:32.913Z</time>
      </trkpt>
      <trkpt lat="47.40165" lon="-1.53523">
        <ele>52.980284</ele>
        <time>2022-12-16T12:12:35.927Z</time>
      </trkpt>
      <trkpt lat="47.40156" lon="-1.53515">
        <ele>52.909338</ele>
        <time>2022-12-16T12:12:38.936Z</time>
      </trkpt>
      <trkpt lat="47.40147" lon="-1.53507">
        <ele>52.836036</ele>
        <time>2022-12-16T12:12:41.916Z</time>
      </trkpt>
      <trkpt lat="47.40139" lon="-1.53498">
        <ele>52.76895</ele>
        <time>2022-12-16T12:12:44.914Z</time>
      </trkpt>
      <trkpt lat="47.40132" lon="-1.53488">
        <ele>52.701202</ele>
        <time>2022-12-16T12:12:47.931Z</time>
      </trkpt>
      <trkpt lat="47.40127" lon="-1.53475">
        <ele>52.632495</ele>
        <time>2022-12-16T12:12:50.912Z</time>
      </trkpt>
      <trkpt lat="47.40123" lon="-1.53462">
        <ele>52.601949</ele>
        <time>2022-12-16T12:12:53.915Z</time>
      </trkpt>
      <trkpt lat="47.4012" lon="-1.53447">
        <ele>52.573242</ele>
        <time>2022-12-16T12:12:56.910Z</time>
      </trkpt>
      <trkpt lat="47.40117" lon="-1.53431">
        <ele>52.542173</ele>
        <time>2022-12-16T12:12:59.912Z</time>
      </trkpt>
      <trkpt lat="47.40114" lon="-1.53414">
        <ele>52.508443</ele>
        <time>2022-12-16T12:13:02.923Z</time>
      </trkpt>
      <trkpt lat="47.40111" lon="-1.53396">
        <ele>52.473229</ele>
        <time>2022-12-16T12:13:05.928Z</time>
      </trkpt>
      <trkpt lat="47.40108" lon="-1.53378">
        <ele>52.438734</ele>
        <time>2022-12-16T12:13:08.938Z</time>
      </trkpt>
      <trkpt lat="47.40105" lon="-1.53361">
        <ele>52.405542</ele>
        <time>2022-12-16T12:13:11.925Z</time>
      </trkpt>
      <trkpt lat="47.40102" lon="-1.53345">
        <ele>52.373814</ele>
        <time>2022-12-16T12:13:14.924Z</time>
      </trkpt>
      <trkpt lat="47.40099" lon="-1.5333">
        <ele>52.344376</ele>
        <time>2022-12-16T12:13:17.914Z</time>
      </trkpt>
      <trkpt lat="47.40089" lon="-1.53329">
        <ele>52.318873</ele>
        <time>2022-12-16T12:13:20.907Z</time>
      </trkpt>
      <trkpt lat="47.40081" lon="-1.53337">
        <ele>52.291405</ele>
        <time>2022-12-16T12:13:23.922Z</time>
      </trkpt>
      <trkpt lat="47.40075" lon="-1.53348">
        <ele>52.263248</ele>
        <time>2022-12-16T12:13:26.918Z</time>
      </trkpt>
      <trkpt lat="47.40068" lon="-1.5336">
        <ele>52.23425</ele>
        <time>2022-12-16T12:13:29.941Z</time>
      </trkpt>
      <trkpt lat="47.40061" lon="-1.53372">
        <ele>52.204608</ele>
        <time>2022-12-16T12:13:32.924Z</time>
      </trkpt>
      <trkpt lat="47.40054" lon="-1.53384">
        <ele>52.17398</ele>
        <time>2022-12-16T12:13:35.913Z</time>
      </trkpt>
      <trkpt lat="47.40047" lon="-1.53397">
        <ele>52.142756</ele>
        <time>2022-12-16T12:13:38.917Z</time>
      </trkpt>
      <trkpt lat="47.4004" lon="-1.5341">
        <ele>52.252265</ele>
        <time>2022-12-16T12:13:41.928Z</time>
      </trkpt>
      <trkpt lat="47.40034" lon="-1.53424">
        <ele>52.489126</ele>
        <time>2022-12-16T12:13:44.919Z</time>
      </trkpt>
      <trkpt lat="47.40028" lon="-1.53438">
        <ele>52.722605</ele>
        <time>2022-12-16T12:13:47.914Z</time>
      </trkpt>
      <trkpt lat="47.40021" lon="-1.53451">
        <ele>52.966749</ele>
        <time>2022-12-16T12:13:50.929Z</time>
      </trkpt>
      <trkpt lat="47.40016" lon="-1.53465">
        <ele>53.194275</ele>
        <time>2022-12-16T12:13:53.922Z</time>
      </trkpt>
      <trkpt lat="47.40011" lon="-1.5348">
        <ele>53.439287</ele>
        <time>2022-12-16T12:13:57.925Z</time>
      </trkpt>
      <trkpt lat="47.40008" lon="-1.53493">
        <ele>53.637327</ele>
        <time>2022-12-16T12:14:00.910Z</time>
      </trkpt>
      <trkpt lat="47.40006" lon="-1.53509">
        <ele>53.882128</ele>
        <time>2022-12-16T12:14:04.937Z</time>
      </trkpt>
      <trkpt lat="47.40006" lon="-1.53526">
        <ele>54.124934</ele>
        <time>2022-12-16T12:14:08.926Z</time>
      </trkpt>
      <trkpt lat="47.40006" lon="-1.53541">
        <ele>54.33692</ele>
        <time>2022-12-16T12:14:12.932Z</time>
      </trkpt>
      <trkpt lat="47.40005" lon="-1.53556">
        <ele>54.567318</ele>
        <time>2022-12-16T12:14:17.910Z</time>
      </trkpt>
      <trkpt lat="47.40004" lon="-1.5357">
        <ele>54.763859</ele>
        <time>2022-12-16T12:14:22.924Z</time>
      </trkpt>
      <trkpt lat="47.4" lon="-1.53582">
        <ele>54.964603</ele>
        <time>2022-12-16T12:14:34.916Z</time>
      </trkpt>
      <trkpt lat="47.39999" lon="-1.53596">
        <ele>55.163231</ele>
        <time>2022-12-16T12:14:47.926Z</time>
      </trkpt>
      <trkpt lat="47.39995" lon="-1.53611">
        <ele>55.397572</ele>
        <time>2022-12-16T12:14:52.928Z</time>
      </trkpt>
      <trkpt lat="47.39992" lon="-1.53625">
        <ele>55.61007</ele>
        <time>2022-12-16T12:14:56.916Z</time>
      </trkpt>
      <trkpt lat="47.39989" lon="-1.53641">
        <ele>55.855584</ele>
        <time>2022-12-16T12:15:01.918Z</time>
      </trkpt>
      <trkpt lat="47.39987" lon="-1.53656">
        <ele>55.936226</ele>
        <time>2022-12-16T12:15:05.920Z</time>
      </trkpt>
      <trkpt lat="47.39977" lon="-1.5366">
        <ele>55.810285</ele>
        <time>2022-12-16T12:15:11.909Z</time>
      </trkpt>
      <trkpt lat="47.39972" lon="-1.53647">
        <ele>55.683432</ele>
        <time>2022-12-16T12:15:15.913Z</time>
      </trkpt>
      <trkpt lat="47.39966" lon="-1.53634">
        <ele>55.551037</ele>
        <time>2022-12-16T12:15:19.940Z</time>
      </trkpt>
      <trkpt lat="47.39959" lon="-1.53621">
        <ele>55.412154</ele>
        <time>2022-12-16T12:15:23.930Z</time>
      </trkpt>
      <trkpt lat="47.39953" lon="-1.53611">
        <ele>55.293245</ele>
        <time>2022-12-16T12:15:26.927Z</time>
      </trkpt>
      <trkpt lat="47.39947" lon="-1.53599">
        <ele>55.164224</ele>
        <time>2022-12-16T12:15:29.911Z</time>
      </trkpt>
      <trkpt lat="47.3994" lon="-1.53585">
        <ele>55.018281</ele>
        <time>2022-12-16T12:15:32.933Z</time>
      </trkpt>
      <trkpt lat="47.39934" lon="-1.53573">
        <ele>54.889836</ele>
        <time>2022-12-16T12:15:35.912Z</time>
      </trkpt>
      <trkpt lat="47.39928" lon="-1.5356">
        <ele>54.760296</ele>
        <time>2022-12-16T12:15:38.929Z</time>
      </trkpt>
      <trkpt lat="47.39922" lon="-1.53548">
        <ele>54.630666</ele>
        <time>2022-12-16T12:15:41.931Z</time>
      </trkpt>
      <trkpt lat="47.39917" lon="-1.53536">
        <ele>54.50393</ele>
        <time>2022-12-16T12:15:44.916Z</time>
      </trkpt>
      <trkpt lat="47.39909" lon="-1.53522">
        <ele>54.352979</ele>
        <time>2022-12-16T12:15:47.912Z</time>
      </trkpt>
      <trkpt lat="47.39901" lon="-1.53506">
        <ele>54.186069</ele>
        <time>2022-12-16T12:15:50.912Z</time>
      </trkpt>
      <trkpt lat="47.39894" lon="-1.53492">
        <ele>54.031354</ele>
        <time>2022-12-16T12:15:53.931Z</time>
      </trkpt>
      <trkpt lat="47.39886" lon="-1.53477">
        <ele>53.865652</ele>
        <time>2022-12-16T12:15:56.935Z</time>
      </trkpt>
      <trkpt lat="47.39881" lon="-1.53465">
        <ele>53.750995</ele>
        <time>2022-12-16T12:15:58.933Z</time>
      </trkpt>
      <trkpt lat="47.39873" lon="-1.53451">
        <ele>53.505552</ele>
        <time>2022-12-16T12:16:01.940Z</time>
      </trkpt>
      <trkpt lat="47.39865" lon="-1.53435">
        <ele>53.22631</ele>
        <time>2022-12-16T12:16:04.919Z</time>
      </trkpt>
      <trkpt lat="47.39858" lon="-1.5342">
        <ele>52.946007</ele>
        <time>2022-12-16T12:16:07.932Z</time>
      </trkpt>
      <trkpt lat="47.3985" lon="-1.53405">
        <ele>52.683753</ele>
        <time>2022-12-16T12:16:10.911Z</time>
      </trkpt>
      <trkpt lat="47.39844" lon="-1.5339">
        <ele>52.426444</ele>
        <time>2022-12-16T12:16:13.926Z</time>
      </trkpt>
      <trkpt lat="47.39836" lon="-1.53377">
        <ele>52.178729</ele>
        <time>2022-12-16T12:16:16.925Z</time>
      </trkpt>
      <trkpt lat="47.39829" lon="-1.53363">
        <ele>51.913628</ele>
        <time>2022-12-16T12:16:19.922Z</time>
      </trkpt>
      <trkpt lat="47.39821" lon="-1.53348">
        <ele>51.641715</ele>
        <time>2022-12-16T12:16:22.934Z</time>
      </trkpt>
      <trkpt lat="47.39816" lon="-1.53335">
        <ele>51.426427</ele>
        <time>2022-12-16T12:16:24.936Z</time>
      </trkpt>
      <trkpt lat="47.3981" lon="-1.53323">
        <ele>51.207388</ele>
        <time>2022-12-16T12:16:26.929Z</time>
      </trkpt>
      <trkpt lat="47.39804" lon="-1.53311">
        <ele>50.99567</ele>
        <time>2022-12-16T12:16:28.930Z</time>
      </trkpt>
      <trkpt lat="47.39797" lon="-1.53298">
        <ele>50.762191</ele>
        <time>2022-12-16T12:16:30.917Z</time>
      </trkpt>
      <trkpt lat="47.39791" lon="-1.53286">
        <ele>50.536782</ele>
        <time>2022-12-16T12:16:32.931Z</time>
      </trkpt>
      <trkpt lat="47.39785" lon="-1.53274">
        <ele>50.315295</ele>
        <time>2022-12-16T12:16:34.930Z</time>
      </trkpt>
      <trkpt lat="47.39778" lon="-1.53261">
        <ele>50.079563</ele>
        <time>2022-12-16T12:16:36.938Z</time>
      </trkpt>
      <trkpt lat="47.39773" lon="-1.5325">
        <ele>49.878572</ele>
        <time>2022-12-16T12:16:38.928Z</time>
      </trkpt>
      <trkpt lat="47.39765" lon="-1.53235">
        <ele>49.881865</ele>
        <time>2022-12-16T12:16:41.935Z</time>
      </trkpt>
      <trkpt lat="47.39759" lon="-1.53225">
        <ele>49.901902</ele>
        <time>2022-12-16T12:16:43.932Z</time>
      </trkpt>
      <trkpt lat="47.39752" lon="-1.53211">
        <ele>49.928019</ele>
        <time>2022-12-16T12:16:46.920Z</time>
      </trkpt>
      <trkpt lat="47.39745" lon="-1.53195">
        <ele>49.955783</ele>
        <time>2022-12-16T12:16:49.922Z</time>
      </trkpt>
      <trkpt lat="47.39738" lon="-1.53179">
        <ele>49.984782</ele>
        <time>2022-12-16T12:16:52.928Z</time>
      </trkpt>
      <trkpt lat="47.3973" lon="-1.53163">
        <ele>50.015014</ele>
        <time>2022-12-16T12:16:55.945Z</time>
      </trkpt>
      <trkpt lat="47.39724" lon="-1.5315">
        <ele>50.038105</ele>
        <time>2022-12-16T12:16:57.931Z</time>
      </trkpt>
      <trkpt lat="47.39717" lon="-1.53137">
        <ele>50.061567</ele>
        <time>2022-12-16T12:16:59.934Z</time>
      </trkpt>
      <trkpt lat="47.39711" lon="-1.53124">
        <ele>50.086011</ele>
        <time>2022-12-16T12:17:01.928Z</time>
      </trkpt>
      <trkpt lat="47.39705" lon="-1.53111">
        <ele>50.109473</ele>
        <time>2022-12-16T12:17:03.932Z</time>
      </trkpt>
      <trkpt lat="47.39699" lon="-1.531">
        <ele>50.130234</ele>
        <time>2022-12-16T12:17:05.929Z</time>
      </trkpt>
      <trkpt lat="47.39693" lon="-1.53089">
        <ele>50.151593</ele>
        <time>2022-12-16T12:17:07.935Z</time>
      </trkpt>
      <trkpt lat="47.39687" lon="-1.53078">
        <ele>50.172</ele>
        <time>2022-12-16T12:17:09.932Z</time>
      </trkpt>
      <trkpt lat="47.3968" lon="-1.53064">
        <ele>50.198371</ele>
        <time>2022-12-16T12:17:12.934Z</time>
      </trkpt>
      <trkpt lat="47.39673" lon="-1.5305">
        <ele>50.2242</ele>
        <time>2022-12-16T12:17:15.914Z</time>
      </trkpt>
      <trkpt lat="47.39665" lon="-1.53036">
        <ele>50.250434</ele>
        <time>2022-12-16T12:17:18.934Z</time>
      </trkpt>
      <trkpt lat="47.3966" lon="-1.53025">
        <ele>50.349784</ele>
        <time>2022-12-16T12:17:20.913Z</time>
      </trkpt>
      <trkpt lat="47.39654" lon="-1.53015">
        <ele>50.454644</ele>
        <time>2022-12-16T12:17:22.935Z</time>
      </trkpt>
      <trkpt lat="47.39647" lon="-1.52999">
        <ele>50.601743</ele>
        <time>2022-12-16T12:17:25.947Z</time>
      </trkpt>
      <trkpt lat="47.39642" lon="-1.52987">
        <ele>50.710784</ele>
        <time>2022-12-16T12:17:27.933Z</time>
      </trkpt>
      <trkpt lat="47.39634" lon="-1.52973">
        <ele>50.852195</ele>
        <time>2022-12-16T12:17:30.912Z</time>
      </trkpt>
      <trkpt lat="47.39627" lon="-1.52959">
        <ele>50.989592</ele>
        <time>2022-12-16T12:17:33.916Z</time>
      </trkpt>
      <trkpt lat="47.39619" lon="-1.52945">
        <ele>51.131737</ele>
        <time>2022-12-16T12:17:36.932Z</time>
      </trkpt>
      <trkpt lat="47.39612" lon="-1.52931">
        <ele>51.270463</ele>
        <time>2022-12-16T12:17:39.906Z</time>
      </trkpt>
      <trkpt lat="47.39605" lon="-1.52916">
        <ele>51.410698</ele>
        <time>2022-12-16T12:17:42.930Z</time>
      </trkpt>
      <trkpt lat="47.39597" lon="-1.52901">
        <ele>51.56186</ele>
        <time>2022-12-16T12:17:45.923Z</time>
      </trkpt>
      <trkpt lat="47.3959" lon="-1.52886">
        <ele>51.703162</ele>
        <time>2022-12-16T12:17:48.937Z</time>
      </trkpt>
      <trkpt lat="47.39582" lon="-1.52872">
        <ele>51.846036</ele>
        <time>2022-12-16T12:17:51.935Z</time>
      </trkpt>
      <trkpt lat="47.39576" lon="-1.52859">
        <ele>51.965422</ele>
        <time>2022-12-16T12:17:54.925Z</time>
      </trkpt>
      <trkpt lat="47.3957" lon="-1.52847">
        <ele>52.082013</ele>
        <time>2022-12-16T12:17:57.941Z</time>
      </trkpt>
      <trkpt lat="47.39563" lon="-1.52836">
        <ele>52.200424</ele>
        <time>2022-12-16T12:18:00.915Z</time>
      </trkpt>
      <trkpt lat="47.39557" lon="-1.52824">
        <ele>52.310992</ele>
        <time>2022-12-16T12:18:03.930Z</time>
      </trkpt>
      <trkpt lat="47.39551" lon="-1.52813">
        <ele>52.494853</ele>
        <time>2022-12-16T12:18:06.935Z</time>
      </trkpt>
      <trkpt lat="47.39544" lon="-1.52801">
        <ele>52.693516</ele>
        <time>2022-12-16T12:18:09.933Z</time>
      </trkpt>
      <trkpt lat="47.39539" lon="-1.5279">
        <ele>52.86848</ele>
        <time>2022-12-16T12:18:12.933Z</time>
      </trkpt>
      <trkpt lat="47.39531" lon="-1.52781">
        <ele>53.052235</ele>
        <time>2022-12-16T12:18:17.915Z</time>
      </trkpt>
      <trkpt lat="47.39522" lon="-1.52782">
        <ele>53.239703</ele>
        <time>2022-12-16T12:18:21.923Z</time>
      </trkpt>
      <trkpt lat="47.3951" lon="-1.52788">
        <ele>53.465343</ele>
        <time>2022-12-16T12:18:25.916Z</time>
      </trkpt>
      <trkpt lat="47.395" lon="-1.5279">
        <ele>53.664947</ele>
        <time>2022-12-16T12:18:28.915Z</time>
      </trkpt>
      <trkpt lat="47.39488" lon="-1.52793">
        <ele>53.888052</ele>
        <time>2022-12-16T12:18:31.922Z</time>
      </trkpt>
      <trkpt lat="47.39476" lon="-1.52797">
        <ele>54.137446</ele>
        <time>2022-12-16T12:18:34.933Z</time>
      </trkpt>
      <trkpt lat="47.39466" lon="-1.528">
        <ele>54.317622</ele>
        <time>2022-12-16T12:18:36.932Z</time>
      </trkpt>
      <trkpt lat="47.39457" lon="-1.52805">
        <ele>54.496342</ele>
        <time>2022-12-16T12:18:38.933Z</time>
      </trkpt>
      <trkpt lat="47.39449" lon="-1.5281">
        <ele>54.672338</ele>
        <time>2022-12-16T12:18:40.914Z</time>
      </trkpt>
      <trkpt lat="47.39439" lon="-1.52814">
        <ele>54.861879</ele>
        <time>2022-12-16T12:18:42.937Z</time>
      </trkpt>
      <trkpt lat="47.39431" lon="-1.52819">
        <ele>55.032997</ele>
        <time>2022-12-16T12:18:44.939Z</time>
      </trkpt>
      <trkpt lat="47.39422" lon="-1.52824">
        <ele>55.212593</ele>
        <time>2022-12-16T12:18:46.919Z</time>
      </trkpt>
      <trkpt lat="47.39414" lon="-1.52829">
        <ele>55.382892</ele>
        <time>2022-12-16T12:18:48.929Z</time>
      </trkpt>
      <trkpt lat="47.39402" lon="-1.52835">
        <ele>55.615976</ele>
        <time>2022-12-16T12:18:51.922Z</time>
      </trkpt>
      <trkpt lat="47.39391" lon="-1.52843">
        <ele>55.771991</ele>
        <time>2022-12-16T12:18:54.912Z</time>
      </trkpt>
      <trkpt lat="47.3938" lon="-1.52849">
        <ele>55.83874</ele>
        <time>2022-12-16T12:18:57.938Z</time>
      </trkpt>
      <trkpt lat="47.39369" lon="-1.52856">
        <ele>55.907855</ele>
        <time>2022-12-16T12:19:00.913Z</time>
      </trkpt>
      <trkpt lat="47.39358" lon="-1.52861">
        <ele>55.977432</ele>
        <time>2022-12-16T12:19:03.938Z</time>
      </trkpt>
      <trkpt lat="47.39346" lon="-1.52866">
        <ele>56.045786</ele>
        <time>2022-12-16T12:19:06.917Z</time>
      </trkpt>
      <trkpt lat="47.39336" lon="-1.52872">
        <ele>56.108743</ele>
        <time>2022-12-16T12:19:09.927Z</time>
      </trkpt>
      <trkpt lat="47.39324" lon="-1.52876">
        <ele>56.175843</ele>
        <time>2022-12-16T12:19:12.942Z</time>
      </trkpt>
      <trkpt lat="47.39312" lon="-1.52879">
        <ele>56.245852</ele>
        <time>2022-12-16T12:19:15.935Z</time>
      </trkpt>
      <trkpt lat="47.393" lon="-1.52882">
        <ele>56.318621</ele>
        <time>2022-12-16T12:19:18.933Z</time>
      </trkpt>
      <trkpt lat="47.39287" lon="-1.52886">
        <ele>56.393261</ele>
        <time>2022-12-16T12:19:21.933Z</time>
      </trkpt>
      <trkpt lat="47.39274" lon="-1.5289">
        <ele>56.468701</ele>
        <time>2022-12-16T12:19:24.930Z</time>
      </trkpt>
      <trkpt lat="47.39265" lon="-1.52894">
        <ele>56.522215</ele>
        <time>2022-12-16T12:19:26.938Z</time>
      </trkpt>
      <trkpt lat="47.39252" lon="-1.52899">
        <ele>56.59725</ele>
        <time>2022-12-16T12:19:29.933Z</time>
      </trkpt>
      <trkpt lat="47.3924" lon="-1.52906">
        <ele>56.673344</ele>
        <time>2022-12-16T12:19:32.914Z</time>
      </trkpt>
      <trkpt lat="47.39228" lon="-1.52912">
        <ele>56.742648</ele>
        <time>2022-12-16T12:19:35.941Z</time>
      </trkpt>
      <trkpt lat="47.39219" lon="-1.52918">
        <ele>56.817668</ele>
        <time>2022-12-16T12:19:38.936Z</time>
      </trkpt>
      <trkpt lat="47.39211" lon="-1.52924">
        <ele>56.898646</ele>
        <time>2022-12-16T12:19:41.915Z</time>
      </trkpt>
      <trkpt lat="47.39203" lon="-1.5293">
        <ele>56.980703</ele>
        <time>2022-12-16T12:19:44.938Z</time>
      </trkpt>
      <trkpt lat="47.39193" lon="-1.52938">
        <ele>57.086893</ele>
        <time>2022-12-16T12:19:48.931Z</time>
      </trkpt>
      <trkpt lat="47.39185" lon="-1.52944">
        <ele>57.167871</ele>
        <time>2022-12-16T12:19:51.930Z</time>
      </trkpt>
      <trkpt lat="47.39177" lon="-1.52951">
        <ele>57.251069</ele>
        <time>2022-12-16T12:19:54.936Z</time>
      </trkpt>
      <trkpt lat="47.39168" lon="-1.52957">
        <ele>57.33447</ele>
        <time>2022-12-16T12:19:57.930Z</time>
      </trkpt>
      <trkpt lat="47.3916" lon="-1.52963">
        <ele>57.417092</ele>
        <time>2022-12-16T12:20:00.916Z</time>
      </trkpt>
      <trkpt lat="47.39151" lon="-1.52969">
        <ele>57.508874</ele>
        <time>2022-12-16T12:20:03.926Z</time>
      </trkpt>
      <trkpt lat="47.39141" lon="-1.52975">
        <ele>57.603553</ele>
        <time>2022-12-16T12:20:06.924Z</time>
      </trkpt>
      <trkpt lat="47.39131" lon="-1.52981">
        <ele>57.703042</ele>
        <time>2022-12-16T12:20:09.913Z</time>
      </trkpt>
      <trkpt lat="47.39121" lon="-1.52987">
        <ele>57.805101</ele>
        <time>2022-12-16T12:20:12.940Z</time>
      </trkpt>
      <trkpt lat="47.3911" lon="-1.52993">
        <ele>57.908399</ele>
        <time>2022-12-16T12:20:15.935Z</time>
      </trkpt>
      <trkpt lat="47.39099" lon="-1.53002">
        <ele>58.017551</ele>
        <time>2022-12-16T12:20:18.932Z</time>
      </trkpt>
      <trkpt lat="47.39089" lon="-1.53012">
        <ele>58.125753</ele>
        <time>2022-12-16T12:20:21.913Z</time>
      </trkpt>
      <trkpt lat="47.39081" lon="-1.53022">
        <ele>58.223699</ele>
        <time>2022-12-16T12:20:24.917Z</time>
      </trkpt>
      <trkpt lat="47.39075" lon="-1.53033">
        <ele>58.312599</ele>
        <time>2022-12-16T12:20:27.913Z</time>
      </trkpt>
      <trkpt lat="47.39067" lon="-1.53045">
        <ele>58.379333</ele>
        <time>2022-12-16T12:20:30.934Z</time>
      </trkpt>
      <trkpt lat="47.3906" lon="-1.53057">
        <ele>58.31931</ele>
        <time>2022-12-16T12:20:33.932Z</time>
      </trkpt>
      <trkpt lat="47.39052" lon="-1.5307">
        <ele>58.256396</ele>
        <time>2022-12-16T12:20:36.931Z</time>
      </trkpt>
      <trkpt lat="47.39044" lon="-1.53083">
        <ele>58.193958</ele>
        <time>2022-12-16T12:20:39.934Z</time>
      </trkpt>
      <trkpt lat="47.39036" lon="-1.53096">
        <ele>58.130358</ele>
        <time>2022-12-16T12:20:42.927Z</time>
      </trkpt>
      <trkpt lat="47.3903" lon="-1.53111">
        <ele>58.066899</ele>
        <time>2022-12-16T12:20:45.942Z</time>
      </trkpt>
      <trkpt lat="47.39023" lon="-1.53125">
        <ele>58.005832</ele>
        <time>2022-12-16T12:20:48.936Z</time>
      </trkpt>
      <trkpt lat="47.39017" lon="-1.53138">
        <ele>57.946257</ele>
        <time>2022-12-16T12:20:51.919Z</time>
      </trkpt>
      <trkpt lat="47.3901" lon="-1.53152">
        <ele>57.886079</ele>
        <time>2022-12-16T12:20:54.914Z</time>
      </trkpt>
      <trkpt lat="47.39004" lon="-1.53166">
        <ele>57.825544</ele>
        <time>2022-12-16T12:20:57.923Z</time>
      </trkpt>
      <trkpt lat="47.39" lon="-1.53179">
        <ele>57.772443</ele>
        <time>2022-12-16T12:21:00.912Z</time>
      </trkpt>
      <trkpt lat="47.38993" lon="-1.53193">
        <ele>57.70975</ele>
        <time>2022-12-16T12:21:04.914Z</time>
      </trkpt>
      <trkpt lat="47.38987" lon="-1.53205">
        <ele>57.657654</ele>
        <time>2022-12-16T12:21:07.913Z</time>
      </trkpt>
      <trkpt lat="47.38981" lon="-1.53216">
        <ele>57.605956</ele>
        <time>2022-12-16T12:21:10.914Z</time>
      </trkpt>
      <trkpt lat="47.38972" lon="-1.53218">
        <ele>57.556466</ele>
        <time>2022-12-16T12:21:14.935Z</time>
      </trkpt>
      <trkpt lat="47.3897" lon="-1.532">
        <ele>57.491626</ele>
        <time>2022-12-16T12:21:18.917Z</time>
      </trkpt>
      <trkpt lat="47.38971" lon="-1.53185">
        <ele>57.43575</ele>
        <time>2022-12-16T12:21:21.932Z</time>
      </trkpt>
      <trkpt lat="47.38973" lon="-1.53168">
        <ele>57.177222</ele>
        <time>2022-12-16T12:21:24.931Z</time>
      </trkpt>
      <trkpt lat="47.38974" lon="-1.53151">
        <ele>56.887162</ele>
        <time>2022-12-16T12:21:27.919Z</time>
      </trkpt>
      <trkpt lat="47.38976" lon="-1.53134">
        <ele>56.601521</ele>
        <time>2022-12-16T12:21:30.914Z</time>
      </trkpt>
      <trkpt lat="47.38977" lon="-1.53117">
        <ele>56.33</ele>
        <time>2022-12-16T12:21:33.934Z</time>
      </trkpt>
      <trkpt lat="47.38979" lon="-1.531">
        <ele>56.051073</ele>
        <time>2022-12-16T12:21:36.931Z</time>
      </trkpt>
      <trkpt lat="47.38979" lon="-1.53083">
        <ele>55.766216</ele>
        <time>2022-12-16T12:21:39.930Z</time>
      </trkpt>
      <trkpt lat="47.38978" lon="-1.53065">
        <ele>55.461458</ele>
        <time>2022-12-16T12:21:42.919Z</time>
      </trkpt>
      <trkpt lat="47.38977" lon="-1.53045">
        <ele>55.139464</ele>
        <time>2022-12-16T12:21:45.930Z</time>
      </trkpt>
      <trkpt lat="47.38974" lon="-1.53026">
        <ele>54.815656</ele>
        <time>2022-12-16T12:21:48.913Z</time>
      </trkpt>
      <trkpt lat="47.3897" lon="-1.53014">
        <ele>54.595084</ele>
        <time>2022-12-16T12:21:50.921Z</time>
      </trkpt>
      <trkpt lat="47.38964" lon="-1.53003">
        <ele>54.361032</ele>
        <time>2022-12-16T12:21:52.918Z</time>
      </trkpt>
      <trkpt lat="47.38956" lon="-1.52995">
        <ele>54.131533</ele>
        <time>2022-12-16T12:21:54.921Z</time>
      </trkpt>
      <trkpt lat="47.38944" lon="-1.52989">
        <ele>53.825335</ele>
        <time>2022-12-16T12:21:57.913Z</time>
      </trkpt>
      <trkpt lat="47.38932" lon="-1.52985">
        <ele>53.510606</ele>
        <time>2022-12-16T12:22:00.914Z</time>
      </trkpt>
      <trkpt lat="47.3892" lon="-1.5298">
        <ele>53.220932</ele>
        <time>2022-12-16T12:22:03.935Z</time>
      </trkpt>
      <trkpt lat="47.3891" lon="-1.52977">
        <ele>53.024591</ele>
        <time>2022-12-16T12:22:06.927Z</time>
      </trkpt>
      <trkpt lat="47.38898" lon="-1.52974">
        <ele>52.928715</ele>
        <time>2022-12-16T12:22:09.931Z</time>
      </trkpt>
      <trkpt lat="47.38885" lon="-1.52973">
        <ele>52.81903</ele>
        <time>2022-12-16T12:22:12.938Z</time>
      </trkpt>
      <trkpt lat="47.38872" lon="-1.52973">
        <ele>52.711246</ele>
        <time>2022-12-16T12:22:15.915Z</time>
      </trkpt>
      <trkpt lat="47.3886" lon="-1.52975">
        <ele>52.610442</ele>
        <time>2022-12-16T12:22:18.932Z</time>
      </trkpt>
      <trkpt lat="47.3885" lon="-1.52979">
        <ele>52.524128</ele>
        <time>2022-12-16T12:22:21.927Z</time>
      </trkpt>
      <trkpt lat="47.38846" lon="-1.52965">
        <ele>52.443153</ele>
        <time>2022-12-16T12:22:26.933Z</time>
      </trkpt>
      <trkpt lat="47.38847" lon="-1.52952">
        <ele>52.36879</ele>
        <time>2022-12-16T12:22:29.921Z</time>
      </trkpt>
      <trkpt lat="47.38848" lon="-1.52937">
        <ele>52.284762</ele>
        <time>2022-12-16T12:22:32.936Z</time>
      </trkpt>
      <trkpt lat="47.3885" lon="-1.52923">
        <ele>52.203757</ele>
        <time>2022-12-16T12:22:35.924Z</time>
      </trkpt>
      <trkpt lat="47.38853" lon="-1.52906">
        <ele>52.111401</ele>
        <time>2022-12-16T12:22:38.933Z</time>
      </trkpt>
      <trkpt lat="47.38856" lon="-1.52888">
        <ele>52.007326</ele>
        <time>2022-12-16T12:22:41.938Z</time>
      </trkpt>
      <trkpt lat="47.38859" lon="-1.52875">
        <ele>51.930566</ele>
        <time>2022-12-16T12:22:43.930Z</time>
      </trkpt>
      <trkpt lat="47.38862" lon="-1.52862">
        <ele>51.852754</ele>
        <time>2022-12-16T12:22:45.912Z</time>
      </trkpt>
      <trkpt lat="47.38866" lon="-1.52844">
        <ele>51.743821</ele>
        <time>2022-12-16T12:22:48.929Z</time>
      </trkpt>
      <trkpt lat="47.3887" lon="-1.52831">
        <ele>51.669514</ele>
        <time>2022-12-16T12:22:50.915Z</time>
      </trkpt>
      <trkpt lat="47.38874" lon="-1.52813">
        <ele>51.5601</ele>
        <time>2022-12-16T12:22:53.937Z</time>
      </trkpt>
      <trkpt lat="47.38878" lon="-1.52795">
        <ele>51.427949</ele>
        <time>2022-12-16T12:22:56.939Z</time>
      </trkpt>
      <trkpt lat="47.38882" lon="-1.52777">
        <ele>51.301864</ele>
        <time>2022-12-16T12:22:59.937Z</time>
      </trkpt>
      <trkpt lat="47.38884" lon="-1.52761">
        <ele>51.19243</ele>
        <time>2022-12-16T12:23:02.939Z</time>
      </trkpt>
      <trkpt lat="47.38884" lon="-1.52744">
        <ele>51.07393</ele>
        <time>2022-12-16T12:23:05.920Z</time>
      </trkpt>
      <trkpt lat="47.38884" lon="-1.52727">
        <ele>50.958815</ele>
        <time>2022-12-16T12:23:08.941Z</time>
      </trkpt>
      <trkpt lat="47.38883" lon="-1.5271">
        <ele>50.842451</ele>
        <time>2022-12-16T12:23:11.915Z</time>
      </trkpt>
      <trkpt lat="47.3888" lon="-1.52692">
        <ele>50.718049</ele>
        <time>2022-12-16T12:23:14.928Z</time>
      </trkpt>
      <trkpt lat="47.38875" lon="-1.52675">
        <ele>50.589876</ele>
        <time>2022-12-16T12:23:17.932Z</time>
      </trkpt>
      <trkpt lat="47.38869" lon="-1.52659">
        <ele>50.466615</ele>
        <time>2022-12-16T12:23:20.914Z</time>
      </trkpt>
      <trkpt lat="47.38863" lon="-1.52645">
        <ele>50.356572</ele>
        <time>2022-12-16T12:23:23.929Z</time>
      </trkpt>
      <trkpt lat="47.38858" lon="-1.52631">
        <ele>50.253916</ele>
        <time>2022-12-16T12:23:26.936Z</time>
      </trkpt>
      <trkpt lat="47.38855" lon="-1.52618">
        <ele>50.15577</ele>
        <time>2022-12-16T12:23:29.914Z</time>
      </trkpt>
      <trkpt lat="47.38853" lon="-1.52605">
        <ele>50.064527</ele>
        <time>2022-12-16T12:23:32.913Z</time>
      </trkpt>
      <trkpt lat="47.3885" lon="-1.5259">
        <ele>49.966077</ele>
        <time>2022-12-16T12:23:35.932Z</time>
      </trkpt>
      <trkpt lat="47.38848" lon="-1.52574">
        <ele>49.853993</ele>
        <time>2022-12-16T12:23:39.933Z</time>
      </trkpt>
      <trkpt lat="47.38849" lon="-1.52559">
        <ele>49.772498</ele>
        <time>2022-12-16T12:23:59.914Z</time>
      </trkpt>
      <trkpt lat="47.38847" lon="-1.52542">
        <ele>49.748134</ele>
        <time>2022-12-16T12:24:04.920Z</time>
      </trkpt>
      <trkpt lat="47.38845" lon="-1.52529">
        <ele>49.72916</ele>
        <time>2022-12-16T12:24:07.933Z</time>
      </trkpt>
      <trkpt lat="47.38842" lon="-1.52514">
        <ele>49.707304</ele>
        <time>2022-12-16T12:24:10.914Z</time>
      </trkpt>
      <trkpt lat="47.38839" lon="-1.52498">
        <ele>49.684108</ele>
        <time>2022-12-16T12:24:13.922Z</time>
      </trkpt>
      <trkpt lat="47.38836" lon="-1.52481">
        <ele>49.659667</ele>
        <time>2022-12-16T12:24:16.936Z</time>
      </trkpt>
      <trkpt lat="47.38834" lon="-1.52464">
        <ele>49.63473</ele>
        <time>2022-12-16T12:24:19.940Z</time>
      </trkpt>
      <trkpt lat="47.38832" lon="-1.52448">
        <ele>49.611448</ele>
        <time>2022-12-16T12:24:22.930Z</time>
      </trkpt>
      <trkpt lat="47.38829" lon="-1.52432">
        <ele>49.588199</ele>
        <time>2022-12-16T12:24:25.929Z</time>
      </trkpt>
      <trkpt lat="47.38826" lon="-1.52415">
        <ele>49.562917</ele>
        <time>2022-12-16T12:24:28.935Z</time>
      </trkpt>
      <trkpt lat="47.38824" lon="-1.52397">
        <ele>49.537932</ele>
        <time>2022-12-16T12:24:31.923Z</time>
      </trkpt>
      <trkpt lat="47.38821" lon="-1.5238">
        <ele>49.51263</ele>
        <time>2022-12-16T12:24:34.938Z</time>
      </trkpt>
      <trkpt lat="47.38819" lon="-1.52362">
        <ele>49.487297</ele>
        <time>2022-12-16T12:24:37.928Z</time>
      </trkpt>
      <trkpt lat="47.38816" lon="-1.52344">
        <ele>49.461445</ele>
        <time>2022-12-16T12:24:40.917Z</time>
      </trkpt>
      <trkpt lat="47.38813" lon="-1.52325">
        <ele>49.4344</ele>
        <time>2022-12-16T12:24:43.943Z</time>
      </trkpt>
      <trkpt lat="47.38811" lon="-1.52308">
        <ele>49.409091</ele>
        <time>2022-12-16T12:24:46.927Z</time>
      </trkpt>
      <trkpt lat="47.38808" lon="-1.5229">
        <ele>49.355773</ele>
        <time>2022-12-16T12:24:49.924Z</time>
      </trkpt>
      <trkpt lat="47.38805" lon="-1.52272">
        <ele>49.292598</ele>
        <time>2022-12-16T12:24:52.934Z</time>
      </trkpt>
      <trkpt lat="47.38802" lon="-1.52254">
        <ele>49.228379</ele>
        <time>2022-12-16T12:24:55.932Z</time>
      </trkpt>
      <trkpt lat="47.388" lon="-1.52241">
        <ele>49.180099</ele>
        <time>2022-12-16T12:24:57.926Z</time>
      </trkpt>
      <trkpt lat="47.38797" lon="-1.52228">
        <ele>49.134398</ele>
        <time>2022-12-16T12:24:59.935Z</time>
      </trkpt>
      <trkpt lat="47.38795" lon="-1.52215">
        <ele>49.087008</ele>
        <time>2022-12-16T12:25:01.932Z</time>
      </trkpt>
      <trkpt lat="47.38792" lon="-1.52202">
        <ele>49.040422</ele>
        <time>2022-12-16T12:25:03.931Z</time>
      </trkpt>
      <trkpt lat="47.38789" lon="-1.52185">
        <ele>48.98115</ele>
        <time>2022-12-16T12:25:06.923Z</time>
      </trkpt>
      <trkpt lat="47.38784" lon="-1.52167">
        <ele>48.917384</ele>
        <time>2022-12-16T12:25:09.914Z</time>
      </trkpt>
      <trkpt lat="47.38782" lon="-1.52154">
        <ele>48.870374</ele>
        <time>2022-12-16T12:25:11.916Z</time>
      </trkpt>
      <trkpt lat="47.3878" lon="-1.52141">
        <ele>48.823135</ele>
        <time>2022-12-16T12:25:13.934Z</time>
      </trkpt>
      <trkpt lat="47.38778" lon="-1.52127">
        <ele>48.77378</ele>
        <time>2022-12-16T12:25:15.928Z</time>
      </trkpt>
      <trkpt lat="47.38775" lon="-1.52113">
        <ele>48.723439</ele>
        <time>2022-12-16T12:25:17.931Z</time>
      </trkpt>
      <trkpt lat="47.38773" lon="-1.52099">
        <ele>48.674828</ele>
        <time>2022-12-16T12:25:19.910Z</time>
      </trkpt>
      <trkpt lat="47.38771" lon="-1.52086">
        <ele>48.628374</ele>
        <time>2022-12-16T12:25:21.936Z</time>
      </trkpt>
      <trkpt lat="47.38768" lon="-1.52067">
        <ele>48.562426</ele>
        <time>2022-12-16T12:25:24.915Z</time>
      </trkpt>
      <trkpt lat="47.38765" lon="-1.5205">
        <ele>48.503563</ele>
        <time>2022-12-16T12:25:27.938Z</time>
      </trkpt>
      <trkpt lat="47.38761" lon="-1.52032">
        <ele>48.48439</ele>
        <time>2022-12-16T12:25:30.912Z</time>
      </trkpt>
      <trkpt lat="47.38758" lon="-1.52019">
        <ele>48.476651</ele>
        <time>2022-12-16T12:25:32.932Z</time>
      </trkpt>
      <trkpt lat="47.38755" lon="-1.52007">
        <ele>48.468952</ele>
        <time>2022-12-16T12:25:34.918Z</time>
      </trkpt>
      <trkpt lat="47.38751" lon="-1.51995">
        <ele>48.461233</ele>
        <time>2022-12-16T12:25:36.940Z</time>
      </trkpt>
      <trkpt lat="47.38745" lon="-1.51977">
        <ele>48.449749</ele>
        <time>2022-12-16T12:25:39.933Z</time>
      </trkpt>
      <trkpt lat="47.38739" lon="-1.51958">
        <ele>48.438102</ele>
        <time>2022-12-16T12:25:42.924Z</time>
      </trkpt>
      <trkpt lat="47.38733" lon="-1.51943">
        <ele>48.427749</ele>
        <time>2022-12-16T12:25:45.930Z</time>
      </trkpt>
      <trkpt lat="47.38728" lon="-1.51926">
        <ele>48.417152</ele>
        <time>2022-12-16T12:25:48.922Z</time>
      </trkpt>
      <trkpt lat="47.38721" lon="-1.5191">
        <ele>48.40639</ele>
        <time>2022-12-16T12:25:51.931Z</time>
      </trkpt>
      <trkpt lat="47.38715" lon="-1.51892">
        <ele>48.394846</ele>
        <time>2022-12-16T12:25:54.936Z</time>
      </trkpt>
      <trkpt lat="47.38708" lon="-1.51875">
        <ele>48.383421</ele>
        <time>2022-12-16T12:25:57.920Z</time>
      </trkpt>
      <trkpt lat="47.38702" lon="-1.51859">
        <ele>48.372375</ele>
        <time>2022-12-16T12:26:00.914Z</time>
      </trkpt>
      <trkpt lat="47.38698" lon="-1.51847">
        <ele>48.36458</ele>
        <time>2022-12-16T12:26:02.943Z</time>
      </trkpt>
      <trkpt lat="47.38691" lon="-1.51829">
        <ele>48.353081</ele>
        <time>2022-12-16T12:26:05.944Z</time>
      </trkpt>
      <trkpt lat="47.38686" lon="-1.51817">
        <ele>48.345003</ele>
        <time>2022-12-16T12:26:07.929Z</time>
      </trkpt>
      <trkpt lat="47.38682" lon="-1.51804">
        <ele>48.332006</ele>
        <time>2022-12-16T12:26:09.936Z</time>
      </trkpt>
      <trkpt lat="47.38678" lon="-1.51792">
        <ele>48.313795</ele>
        <time>2022-12-16T12:26:11.924Z</time>
      </trkpt>
      <trkpt lat="47.38674" lon="-1.5178">
        <ele>48.29587</ele>
        <time>2022-12-16T12:26:13.930Z</time>
      </trkpt>
      <trkpt lat="47.38668" lon="-1.51763">
        <ele>48.270006</ele>
        <time>2022-12-16T12:26:16.938Z</time>
      </trkpt>
      <trkpt lat="47.38662" lon="-1.51748">
        <ele>48.246629</ele>
        <time>2022-12-16T12:26:19.936Z</time>
      </trkpt>
      <trkpt lat="47.38658" lon="-1.51734">
        <ele>48.227258</ele>
        <time>2022-12-16T12:26:22.942Z</time>
      </trkpt>
      <trkpt lat="47.38652" lon="-1.51719">
        <ele>48.204535</ele>
        <time>2022-12-16T12:26:26.927Z</time>
      </trkpt>
      <trkpt lat="47.38648" lon="-1.51707">
        <ele>48.185997</ele>
        <time>2022-12-16T12:26:30.915Z</time>
      </trkpt>
      <trkpt lat="47.38643" lon="-1.51693">
        <ele>48.164345</ele>
        <time>2022-12-16T12:26:34.932Z</time>
      </trkpt>
      <trkpt lat="47.38637" lon="-1.5168">
        <ele>48.143937</ele>
        <time>2022-12-16T12:26:37.929Z</time>
      </trkpt>
      <trkpt lat="47.38632" lon="-1.51665">
        <ele>48.121722</ele>
        <time>2022-12-16T12:26:40.917Z</time>
      </trkpt>
      <trkpt lat="47.38627" lon="-1.51652">
        <ele>48.101286</ele>
        <time>2022-12-16T12:26:43.937Z</time>
      </trkpt>
      <trkpt lat="47.38621" lon="-1.51638">
        <ele>48.079029</ele>
        <time>2022-12-16T12:26:46.929Z</time>
      </trkpt>
      <trkpt lat="47.38615" lon="-1.51623">
        <ele>48.056469</ele>
        <time>2022-12-16T12:26:49.935Z</time>
      </trkpt>
      <trkpt lat="47.38608" lon="-1.51606">
        <ele>48.030754</ele>
        <time>2022-12-16T12:26:52.925Z</time>
      </trkpt>
      <trkpt lat="47.38604" lon="-1.51594">
        <ele>48.012537</ele>
        <time>2022-12-16T12:26:54.927Z</time>
      </trkpt>
      <trkpt lat="47.38599" lon="-1.51582">
        <ele>47.993582</ele>
        <time>2022-12-16T12:26:56.935Z</time>
      </trkpt>
      <trkpt lat="47.38595" lon="-1.51568">
        <ele>47.922321</ele>
        <time>2022-12-16T12:26:58.941Z</time>
      </trkpt>
      <trkpt lat="47.3859" lon="-1.51556">
        <ele>47.835819</ele>
        <time>2022-12-16T12:27:00.915Z</time>
      </trkpt>
      <trkpt lat="47.38585" lon="-1.51544">
        <ele>47.748161</ele>
        <time>2022-12-16T12:27:02.944Z</time>
      </trkpt>
      <trkpt lat="47.38581" lon="-1.51532">
        <ele>47.660181</ele>
        <time>2022-12-16T12:27:04.940Z</time>
      </trkpt>
      <trkpt lat="47.38576" lon="-1.51519">
        <ele>47.571059</ele>
        <time>2022-12-16T12:27:06.935Z</time>
      </trkpt>
      <trkpt lat="47.38571" lon="-1.51507">
        <ele>47.480987</ele>
        <time>2022-12-16T12:27:08.930Z</time>
      </trkpt>
      <trkpt lat="47.38566" lon="-1.51495">
        <ele>47.394953</ele>
        <time>2022-12-16T12:27:10.916Z</time>
      </trkpt>
      <trkpt lat="47.38561" lon="-1.51483">
        <ele>47.309457</ele>
        <time>2022-12-16T12:27:12.942Z</time>
      </trkpt>
      <trkpt lat="47.38555" lon="-1.51467">
        <ele>47.193594</ele>
        <time>2022-12-16T12:27:15.925Z</time>
      </trkpt>
      <trkpt lat="47.3855" lon="-1.51453">
        <ele>47.094056</ele>
        <time>2022-12-16T12:27:18.931Z</time>
      </trkpt>
      <trkpt lat="47.38544" lon="-1.51439">
        <ele>46.986989</ele>
        <time>2022-12-16T12:27:21.934Z</time>
      </trkpt>
      <trkpt lat="47.38538" lon="-1.51423">
        <ele>46.877273</ele>
        <time>2022-12-16T12:27:24.933Z</time>
      </trkpt>
      <trkpt lat="47.38532" lon="-1.51407">
        <ele>46.760419</ele>
        <time>2022-12-16T12:27:27.932Z</time>
      </trkpt>
      <trkpt lat="47.38526" lon="-1.51389">
        <ele>46.637362</ele>
        <time>2022-12-16T12:27:30.917Z</time>
      </trkpt>
      <trkpt lat="47.38522" lon="-1.51378">
        <ele>46.554774</ele>
        <time>2022-12-16T12:27:32.933Z</time>
      </trkpt>
      <trkpt lat="47.38516" lon="-1.51362">
        <ele>46.440729</ele>
        <time>2022-12-16T12:27:35.932Z</time>
      </trkpt>
      <trkpt lat="47.38509" lon="-1.51348">
        <ele>46.331541</ele>
        <time>2022-12-16T12:27:38.916Z</time>
      </trkpt>
      <trkpt lat="47.38501" lon="-1.51336">
        <ele>46.340968</ele>
        <time>2022-12-16T12:27:41.936Z</time>
      </trkpt>
      <trkpt lat="47.38493" lon="-1.51324">
        <ele>46.354605</ele>
        <time>2022-12-16T12:27:44.938Z</time>
      </trkpt>
      <trkpt lat="47.38485" lon="-1.51314">
        <ele>46.36824</ele>
        <time>2022-12-16T12:27:47.935Z</time>
      </trkpt>
      <trkpt lat="47.38476" lon="-1.51302">
        <ele>46.382418</ele>
        <time>2022-12-16T12:27:50.915Z</time>
      </trkpt>
      <trkpt lat="47.38466" lon="-1.5129">
        <ele>46.397721</ele>
        <time>2022-12-16T12:27:53.913Z</time>
      </trkpt>
      <trkpt lat="47.38458" lon="-1.51276">
        <ele>46.412655</ele>
        <time>2022-12-16T12:27:56.930Z</time>
      </trkpt>
      <trkpt lat="47.3845" lon="-1.51262">
        <ele>46.428024</ele>
        <time>2022-12-16T12:27:59.939Z</time>
      </trkpt>
      <trkpt lat="47.38444" lon="-1.51251">
        <ele>46.439233</ele>
        <time>2022-12-16T12:28:01.923Z</time>
      </trkpt>
      <trkpt lat="47.38439" lon="-1.51239">
        <ele>46.450917</ele>
        <time>2022-12-16T12:28:03.918Z</time>
      </trkpt>
      <trkpt lat="47.38434" lon="-1.51227">
        <ele>46.462667</ele>
        <time>2022-12-16T12:28:05.929Z</time>
      </trkpt>
      <trkpt lat="47.38428" lon="-1.51215">
        <ele>46.474843</ele>
        <time>2022-12-16T12:28:07.935Z</time>
      </trkpt>
      <trkpt lat="47.38423" lon="-1.51203">
        <ele>46.48673</ele>
        <time>2022-12-16T12:28:09.921Z</time>
      </trkpt>
      <trkpt lat="47.38417" lon="-1.5119">
        <ele>46.499633</ele>
        <time>2022-12-16T12:28:11.919Z</time>
      </trkpt>
      <trkpt lat="47.38411" lon="-1.51178">
        <ele>46.511725</ele>
        <time>2022-12-16T12:28:13.935Z</time>
      </trkpt>
      <trkpt lat="47.38405" lon="-1.51166">
        <ele>46.523747</ele>
        <time>2022-12-16T12:28:15.915Z</time>
      </trkpt>
      <trkpt lat="47.384" lon="-1.51153">
        <ele>46.536039</ele>
        <time>2022-12-16T12:28:17.931Z</time>
      </trkpt>
      <trkpt lat="47.38394" lon="-1.51141">
        <ele>46.537975</ele>
        <time>2022-12-16T12:28:19.936Z</time>
      </trkpt>
      <trkpt lat="47.38389" lon="-1.51129">
        <ele>46.487819</ele>
        <time>2022-12-16T12:28:21.929Z</time>
      </trkpt>
      <trkpt lat="47.38384" lon="-1.51118">
        <ele>46.439139</ele>
        <time>2022-12-16T12:28:23.937Z</time>
      </trkpt>
      <trkpt lat="47.38377" lon="-1.51102">
        <ele>46.374848</ele>
        <time>2022-12-16T12:28:26.932Z</time>
      </trkpt>
      <trkpt lat="47.38371" lon="-1.51088">
        <ele>46.316423</ele>
        <time>2022-12-16T12:28:29.933Z</time>
      </trkpt>
      <trkpt lat="47.38365" lon="-1.51074">
        <ele>46.255719</ele>
        <time>2022-12-16T12:28:32.939Z</time>
      </trkpt>
      <trkpt lat="47.38358" lon="-1.5106">
        <ele>46.192499</ele>
        <time>2022-12-16T12:28:35.932Z</time>
      </trkpt>
      <trkpt lat="47.38348" lon="-1.51048">
        <ele>46.127175</ele>
        <time>2022-12-16T12:28:38.916Z</time>
      </trkpt>
      <trkpt lat="47.38336" lon="-1.51046">
        <ele>46.063931</ele>
        <time>2022-12-16T12:28:41.936Z</time>
      </trkpt>
      <trkpt lat="47.38325" lon="-1.51046">
        <ele>46.00429</ele>
        <time>2022-12-16T12:28:44.921Z</time>
      </trkpt>
      <trkpt lat="47.38315" lon="-1.5104">
        <ele>45.952452</ele>
        <time>2022-12-16T12:28:47.927Z</time>
      </trkpt>
      <trkpt lat="47.38308" lon="-1.51028">
        <ele>45.893287</ele>
        <time>2022-12-16T12:28:51.928Z</time>
      </trkpt>
      <trkpt lat="47.38299" lon="-1.51016">
        <ele>45.831359</ele>
        <time>2022-12-16T12:28:55.934Z</time>
      </trkpt>
      <trkpt lat="47.3829" lon="-1.51009">
        <ele>45.781132</ele>
        <time>2022-12-16T12:28:58.925Z</time>
      </trkpt>
      <trkpt lat="47.38281" lon="-1.51">
        <ele>45.724717</ele>
        <time>2022-12-16T12:29:01.926Z</time>
      </trkpt>
      <trkpt lat="47.38276" lon="-1.50986">
        <ele>45.665294</ele>
        <time>2022-12-16T12:29:04.929Z</time>
      </trkpt>
      <trkpt lat="47.38271" lon="-1.50969">
        <ele>45.592563</ele>
        <time>2022-12-16T12:29:07.926Z</time>
      </trkpt>
      <trkpt lat="47.38267" lon="-1.50953">
        <ele>45.380719</ele>
        <time>2022-12-16T12:29:10.914Z</time>
      </trkpt>
      <trkpt lat="47.38263" lon="-1.50938">
        <ele>45.191449</ele>
        <time>2022-12-16T12:29:13.936Z</time>
      </trkpt>
      <trkpt lat="47.38259" lon="-1.50923">
        <ele>44.984612</ele>
        <time>2022-12-16T12:29:16.934Z</time>
      </trkpt>
      <trkpt lat="47.38256" lon="-1.50907">
        <ele>44.782614</ele>
        <time>2022-12-16T12:29:19.927Z</time>
      </trkpt>
      <trkpt lat="47.38252" lon="-1.50893">
        <ele>44.602547</ele>
        <time>2022-12-16T12:29:22.924Z</time>
      </trkpt>
      <trkpt lat="47.38249" lon="-1.50877">
        <ele>44.399387</ele>
        <time>2022-12-16T12:29:26.921Z</time>
      </trkpt>
      <trkpt lat="47.38246" lon="-1.50864">
        <ele>44.231371</ele>
        <time>2022-12-16T12:29:31.936Z</time>
      </trkpt>
      <trkpt lat="47.38238" lon="-1.50853">
        <ele>44.039195</ele>
        <time>2022-12-16T12:29:48.924Z</time>
      </trkpt>
      <trkpt lat="47.38232" lon="-1.50843">
        <ele>43.876389</ele>
        <time>2022-12-16T12:29:52.920Z</time>
      </trkpt>
      <trkpt lat="47.38223" lon="-1.50832">
        <ele>43.67094</ele>
        <time>2022-12-16T12:29:56.931Z</time>
      </trkpt>
      <trkpt lat="47.38215" lon="-1.50823">
        <ele>43.493691</ele>
        <time>2022-12-16T12:29:59.937Z</time>
      </trkpt>
      <trkpt lat="47.38206" lon="-1.50812">
        <ele>43.269978</ele>
        <time>2022-12-16T12:30:02.941Z</time>
      </trkpt>
      <trkpt lat="47.38195" lon="-1.50799">
        <ele>43.027484</ele>
        <time>2022-12-16T12:30:05.933Z</time>
      </trkpt>
      <trkpt lat="47.38184" lon="-1.50789">
        <ele>42.793365</ele>
        <time>2022-12-16T12:30:08.917Z</time>
      </trkpt>
      <trkpt lat="47.38174" lon="-1.50782">
        <ele>42.592704</ele>
        <time>2022-12-16T12:30:11.936Z</time>
      </trkpt>
      <trkpt lat="47.38163" lon="-1.50778">
        <ele>42.391345</ele>
        <time>2022-12-16T12:30:14.923Z</time>
      </trkpt>
      <trkpt lat="47.38152" lon="-1.50777">
        <ele>42.622441</ele>
        <time>2022-12-16T12:30:17.920Z</time>
      </trkpt>
      <trkpt lat="47.3814" lon="-1.50775">
        <ele>42.8937</ele>
        <time>2022-12-16T12:30:20.916Z</time>
      </trkpt>
      <trkpt lat="47.38128" lon="-1.50769">
        <ele>43.187033</ele>
        <time>2022-12-16T12:30:23.923Z</time>
      </trkpt>
      <trkpt lat="47.38119" lon="-1.50762">
        <ele>43.415434</ele>
        <time>2022-12-16T12:30:25.916Z</time>
      </trkpt>
      <trkpt lat="47.38108" lon="-1.50752">
        <ele>43.715703</ele>
        <time>2022-12-16T12:30:28.925Z</time>
      </trkpt>
      <trkpt lat="47.38099" lon="-1.50742">
        <ele>43.97092</ele>
        <time>2022-12-16T12:30:31.934Z</time>
      </trkpt>
      <trkpt lat="47.38091" lon="-1.50734">
        <ele>44.19384</ele>
        <time>2022-12-16T12:30:34.938Z</time>
      </trkpt>
      <trkpt lat="47.3808" lon="-1.50726">
        <ele>44.485733</ele>
        <time>2022-12-16T12:30:38.935Z</time>
      </trkpt>
      <trkpt lat="47.38071" lon="-1.50722">
        <ele>44.70497</ele>
        <time>2022-12-16T12:30:41.917Z</time>
      </trkpt>
      <trkpt lat="47.3806" lon="-1.50719">
        <ele>44.958824</ele>
        <time>2022-12-16T12:30:44.917Z</time>
      </trkpt>
      <trkpt lat="47.38048" lon="-1.50718">
        <ele>45.235706</ele>
        <time>2022-12-16T12:30:47.922Z</time>
      </trkpt>
      <trkpt lat="47.38036" lon="-1.50719">
        <ele>45.515106</ele>
        <time>2022-12-16T12:30:50.914Z</time>
      </trkpt>
      <trkpt lat="47.38026" lon="-1.50717">
        <ele>45.740486</ele>
        <time>2022-12-16T12:30:53.918Z</time>
      </trkpt>
      <trkpt lat="47.38016" lon="-1.50713">
        <ele>45.995156</ele>
        <time>2022-12-16T12:30:57.923Z</time>
      </trkpt>
      <trkpt lat="47.38005" lon="-1.50707">
        <ele>46.255496</ele>
        <time>2022-12-16T12:31:01.925Z</time>
      </trkpt>
      <trkpt lat="47.37997" lon="-1.507">
        <ele>46.474759</ele>
        <time>2022-12-16T12:31:04.928Z</time>
      </trkpt>
      <trkpt lat="47.37988" lon="-1.50691">
        <ele>46.750209</ele>
        <time>2022-12-16T12:31:08.936Z</time>
      </trkpt>
      <trkpt lat="47.37982" lon="-1.50682">
        <ele>46.998598</ele>
        <time>2022-12-16T12:31:11.932Z</time>
      </trkpt>
      <trkpt lat="47.37975" lon="-1.50672">
        <ele>47.250361</ele>
        <time>2022-12-16T12:31:14.939Z</time>
      </trkpt>
      <trkpt lat="47.37967" lon="-1.50663">
        <ele>47.543164</ele>
        <time>2022-12-16T12:31:18.937Z</time>
      </trkpt>
      <trkpt lat="47.37958" lon="-1.50658">
        <ele>47.807696</ele>
        <time>2022-12-16T12:31:22.930Z</time>
      </trkpt>
      <trkpt lat="47.37947" lon="-1.5066">
        <ele>48.094482</ele>
        <time>2022-12-16T12:31:27.924Z</time>
      </trkpt>
      <trkpt lat="47.37938" lon="-1.50663">
        <ele>48.345412</ele>
        <time>2022-12-16T12:31:32.920Z</time>
      </trkpt>
      <trkpt lat="47.3793" lon="-1.50669">
        <ele>48.602527</ele>
        <time>2022-12-16T12:31:37.916Z</time>
      </trkpt>
      <trkpt lat="47.3792" lon="-1.50671">
        <ele>48.861543</ele>
        <time>2022-12-16T12:31:53.929Z</time>
      </trkpt>
      <trkpt lat="47.37912" lon="-1.50665">
        <ele>49.106</ele>
        <time>2022-12-16T12:32:05.923Z</time>
      </trkpt>
      <trkpt lat="47.37906" lon="-1.50655">
        <ele>49.363438</ele>
        <time>2022-12-16T12:32:15.917Z</time>
      </trkpt>
      <trkpt lat="47.37897" lon="-1.50649">
        <ele>49.617659</ele>
        <time>2022-12-16T12:32:27.921Z</time>
      </trkpt>
      <trkpt lat="47.37888" lon="-1.50649">
        <ele>49.868374</ele>
        <time>2022-12-16T12:32:37.929Z</time>
      </trkpt>
      <trkpt lat="47.37879" lon="-1.5065">
        <ele>50.12208</ele>
        <time>2022-12-16T12:32:48.926Z</time>
      </trkpt>
      <trkpt lat="47.3787" lon="-1.50651">
        <ele>50.369055</ele>
        <time>2022-12-16T12:32:58.925Z</time>
      </trkpt>
      <trkpt lat="47.3786" lon="-1.50652">
        <ele>50.631393</ele>
        <time>2022-12-16T12:33:08.921Z</time>
      </trkpt>
      <trkpt lat="47.37851" lon="-1.50653">
        <ele>50.879493</ele>
        <time>2022-12-16T12:33:17.913Z</time>
      </trkpt>
      <trkpt lat="47.37842" lon="-1.50652">
        <ele>51.130207</ele>
        <time>2022-12-16T12:33:26.917Z</time>
      </trkpt>
      <trkpt lat="47.37831" lon="-1.50653">
        <ele>51.419163</ele>
        <time>2022-12-16T12:33:30.925Z</time>
      </trkpt>
      <trkpt lat="47.37818" lon="-1.50655">
        <ele>51.187095</ele>
        <time>2022-12-16T12:33:33.928Z</time>
      </trkpt>
      <trkpt lat="47.37808" lon="-1.50656">
        <ele>50.979954</ele>
        <time>2022-12-16T12:33:35.934Z</time>
      </trkpt>
      <trkpt lat="47.37797" lon="-1.50658">
        <ele>50.780665</ele>
        <time>2022-12-16T12:33:37.929Z</time>
      </trkpt>
      <trkpt lat="47.37787" lon="-1.5066">
        <ele>50.58368</ele>
        <time>2022-12-16T12:33:39.934Z</time>
      </trkpt>
      <trkpt lat="47.37776" lon="-1.50662">
        <ele>50.380332</ele>
        <time>2022-12-16T12:33:41.935Z</time>
      </trkpt>
      <trkpt lat="47.37766" lon="-1.50664">
        <ele>50.187696</ele>
        <time>2022-12-16T12:33:43.932Z</time>
      </trkpt>
      <trkpt lat="47.37753" lon="-1.50667">
        <ele>49.930698</ele>
        <time>2022-12-16T12:33:46.916Z</time>
      </trkpt>
      <trkpt lat="47.37739" lon="-1.50669">
        <ele>49.6686</ele>
        <time>2022-12-16T12:33:49.937Z</time>
      </trkpt>
      <trkpt lat="47.37729" lon="-1.50669">
        <ele>49.472158</ele>
        <time>2022-12-16T12:33:51.935Z</time>
      </trkpt>
      <trkpt lat="47.37718" lon="-1.50669">
        <ele>49.268087</ele>
        <time>2022-12-16T12:33:53.936Z</time>
      </trkpt>
      <trkpt lat="47.37708" lon="-1.50669">
        <ele>49.065861</ele>
        <time>2022-12-16T12:33:55.933Z</time>
      </trkpt>
      <trkpt lat="47.37699" lon="-1.50668">
        <ele>48.890326</ele>
        <time>2022-12-16T12:33:57.930Z</time>
      </trkpt>
      <trkpt lat="47.37687" lon="-1.50669">
        <ele>48.663005</ele>
        <time>2022-12-16T12:34:00.919Z</time>
      </trkpt>
      <trkpt lat="47.37678" lon="-1.5067">
        <ele>48.491186</ele>
        <time>2022-12-16T12:34:02.926Z</time>
      </trkpt>
      <trkpt lat="47.37667" lon="-1.50671">
        <ele>48.281</ele>
        <time>2022-12-16T12:34:05.933Z</time>
      </trkpt>
      <trkpt lat="47.37657" lon="-1.5067">
        <ele>48.095554</ele>
        <time>2022-12-16T12:34:08.929Z</time>
      </trkpt>
      <trkpt lat="47.37647" lon="-1.50673">
        <ele>48.003628</ele>
        <time>2022-12-16T12:34:12.927Z</time>
      </trkpt>
      <trkpt lat="47.37644" lon="-1.50687">
        <ele>48.012134</ele>
        <time>2022-12-16T12:34:16.918Z</time>
      </trkpt>
      <trkpt lat="47.37643" lon="-1.507">
        <ele>48.020198</ele>
        <time>2022-12-16T12:34:19.928Z</time>
      </trkpt>
      <trkpt lat="47.37644" lon="-1.50715">
        <ele>48.028948</ele>
        <time>2022-12-16T12:34:22.922Z</time>
      </trkpt>
      <trkpt lat="47.37642" lon="-1.50729">
        <ele>48.037462</ele>
        <time>2022-12-16T12:34:25.918Z</time>
      </trkpt>
      <trkpt lat="47.37636" lon="-1.50742">
        <ele>48.046665</ele>
        <time>2022-12-16T12:34:28.923Z</time>
      </trkpt>
      <trkpt lat="47.37632" lon="-1.50757">
        <ele>48.056226</ele>
        <time>2022-12-16T12:34:31.919Z</time>
      </trkpt>
      <trkpt lat="47.37628" lon="-1.50771">
        <ele>48.065156</ele>
        <time>2022-12-16T12:34:34.915Z</time>
      </trkpt>
      <trkpt lat="47.37623" lon="-1.50784">
        <ele>48.074267</ele>
        <time>2022-12-16T12:34:37.937Z</time>
      </trkpt>
      <trkpt lat="47.37617" lon="-1.50797">
        <ele>48.083515</ele>
        <time>2022-12-16T12:34:40.916Z</time>
      </trkpt>
      <trkpt lat="47.3761" lon="-1.50808">
        <ele>48.092594</ele>
        <time>2022-12-16T12:34:43.928Z</time>
      </trkpt>
      <trkpt lat="47.37603" lon="-1.50821">
        <ele>48.102293</ele>
        <time>2022-12-16T12:34:46.941Z</time>
      </trkpt>
      <trkpt lat="47.37596" lon="-1.50836">
        <ele>48.113165</ele>
        <time>2022-12-16T12:34:49.932Z</time>
      </trkpt>
      <trkpt lat="47.37589" lon="-1.50852">
        <ele>48.124424</ele>
        <time>2022-12-16T12:34:52.927Z</time>
      </trkpt>
      <trkpt lat="47.3758" lon="-1.50865">
        <ele>48.135276</ele>
        <time>2022-12-16T12:34:55.940Z</time>
      </trkpt>
      <trkpt lat="47.37569" lon="-1.50872">
        <ele>48.146059</ele>
        <time>2022-12-16T12:34:58.927Z</time>
      </trkpt>
      <trkpt lat="47.37557" lon="-1.50874">
        <ele>48.155499</ele>
        <time>2022-12-16T12:35:01.919Z</time>
      </trkpt>
      <trkpt lat="47.37547" lon="-1.50873">
        <ele>48.131092</ele>
        <time>2022-12-16T12:35:03.921Z</time>
      </trkpt>
      <trkpt lat="47.37538" lon="-1.50871">
        <ele>48.107082</ele>
        <time>2022-12-16T12:35:05.929Z</time>
      </trkpt>
      <trkpt lat="47.37529" lon="-1.50868">
        <ele>48.082311</ele>
        <time>2022-12-16T12:35:07.922Z</time>
      </trkpt>
      <trkpt lat="47.3752" lon="-1.50867">
        <ele>48.057673</ele>
        <time>2022-12-16T12:35:09.929Z</time>
      </trkpt>
      <trkpt lat="47.3751" lon="-1.50867">
        <ele>48.032579</ele>
        <time>2022-12-16T12:35:11.941Z</time>
      </trkpt>
      <trkpt lat="47.37497" lon="-1.50868">
        <ele>47.998432</ele>
        <time>2022-12-16T12:35:14.918Z</time>
      </trkpt>
      <trkpt lat="47.37486" lon="-1.50875">
        <ele>47.965046</ele>
        <time>2022-12-16T12:35:17.929Z</time>
      </trkpt>
      <trkpt lat="47.37475" lon="-1.50882">
        <ele>47.934559</ele>
        <time>2022-12-16T12:35:20.914Z</time>
      </trkpt>
      <trkpt lat="47.37465" lon="-1.50891">
        <ele>47.903039</ele>
        <time>2022-12-16T12:35:23.963Z</time>
      </trkpt>
      <trkpt lat="47.37455" lon="-1.509">
        <ele>47.872301</ele>
        <time>2022-12-16T12:35:26.917Z</time>
      </trkpt>
      <trkpt lat="47.3745" lon="-1.50914">
        <ele>47.844239</ele>
        <time>2022-12-16T12:35:29.924Z</time>
      </trkpt>
      <trkpt lat="47.37445" lon="-1.50927">
        <ele>47.816593</ele>
        <time>2022-12-16T12:35:32.937Z</time>
      </trkpt>
      <trkpt lat="47.37441" lon="-1.50943">
        <ele>47.78644</ele>
        <time>2022-12-16T12:35:35.929Z</time>
      </trkpt>
      <trkpt lat="47.37438" lon="-1.50959">
        <ele>47.756162</ele>
        <time>2022-12-16T12:35:38.918Z</time>
      </trkpt>
      <trkpt lat="47.37435" lon="-1.50974">
        <ele>47.729814</ele>
        <time>2022-12-16T12:35:41.938Z</time>
      </trkpt>
      <trkpt lat="47.37431" lon="-1.50988">
        <ele>47.702042</ele>
        <time>2022-12-16T12:35:44.929Z</time>
      </trkpt>
      <trkpt lat="47.37428" lon="-1.51003">
        <ele>47.771035</ele>
        <time>2022-12-16T12:35:47.932Z</time>
      </trkpt>
      <trkpt lat="47.37425" lon="-1.51019">
        <ele>48.085292</ele>
        <time>2022-12-16T12:35:50.921Z</time>
      </trkpt>
      <trkpt lat="47.37422" lon="-1.51035">
        <ele>48.393005</ele>
        <time>2022-12-16T12:35:53.939Z</time>
      </trkpt>
      <trkpt lat="47.3742" lon="-1.5105">
        <ele>48.687683</ele>
        <time>2022-12-16T12:35:56.939Z</time>
      </trkpt>
      <trkpt lat="47.37421" lon="-1.51065">
        <ele>48.983521</ele>
        <time>2022-12-16T12:36:00.921Z</time>
      </trkpt>
      <trkpt lat="47.3743" lon="-1.51076">
        <ele>49.312952</ele>
        <time>2022-12-16T12:36:04.924Z</time>
      </trkpt>
      <trkpt lat="47.37431" lon="-1.5109">
        <ele>49.572132</ele>
        <time>2022-12-16T12:36:07.928Z</time>
      </trkpt>
      <trkpt lat="47.37429" lon="-1.51104">
        <ele>49.854446</ele>
        <time>2022-12-16T12:36:10.920Z</time>
      </trkpt>
      <trkpt lat="47.37428" lon="-1.5112">
        <ele>50.154211</ele>
        <time>2022-12-16T12:36:13.935Z</time>
      </trkpt>
      <trkpt lat="47.37427" lon="-1.51136">
        <ele>50.458812</ele>
        <time>2022-12-16T12:36:16.934Z</time>
      </trkpt>
      <trkpt lat="47.37426" lon="-1.51152">
        <ele>50.769473</ele>
        <time>2022-12-16T12:36:19.920Z</time>
      </trkpt>
      <trkpt lat="47.37425" lon="-1.51168">
        <ele>51.077859</ele>
        <time>2022-12-16T12:36:22.933Z</time>
      </trkpt>
      <trkpt lat="47.37424" lon="-1.51184">
        <ele>51.380795</ele>
        <time>2022-12-16T12:36:25.944Z</time>
      </trkpt>
      <trkpt lat="47.37424" lon="-1.51201">
        <ele>51.694997</ele>
        <time>2022-12-16T12:36:28.936Z</time>
      </trkpt>
      <trkpt lat="47.37424" lon="-1.51217">
        <ele>51.99582</ele>
        <time>2022-12-16T12:36:31.935Z</time>
      </trkpt>
      <trkpt lat="47.37425" lon="-1.51232">
        <ele>52.285438</ele>
        <time>2022-12-16T12:36:34.944Z</time>
      </trkpt>
      <trkpt lat="47.37424" lon="-1.51247">
        <ele>52.581886</ele>
        <time>2022-12-16T12:36:37.931Z</time>
      </trkpt>
      <trkpt lat="47.37422" lon="-1.51262">
        <ele>52.698261</ele>
        <time>2022-12-16T12:36:40.917Z</time>
      </trkpt>
      <trkpt lat="47.3742" lon="-1.51278">
        <ele>52.606671</ele>
        <time>2022-12-16T12:36:43.931Z</time>
      </trkpt>
      <trkpt lat="47.37418" lon="-1.51293">
        <ele>52.517638</ele>
        <time>2022-12-16T12:36:46.935Z</time>
      </trkpt>
      <trkpt lat="47.37418" lon="-1.51307">
        <ele>52.44128</ele>
        <time>2022-12-16T12:36:49.926Z</time>
      </trkpt>
      <trkpt lat="47.37417" lon="-1.51324">
        <ele>52.343228</ele>
        <time>2022-12-16T12:36:53.947Z</time>
      </trkpt>
      <trkpt lat="47.37413" lon="-1.51338">
        <ele>52.258969</ele>
        <time>2022-12-16T12:36:56.918Z</time>
      </trkpt>
      <trkpt lat="47.37409" lon="-1.5135">
        <ele>52.177343</ele>
        <time>2022-12-16T12:36:59.915Z</time>
      </trkpt>
      <trkpt lat="47.37402" lon="-1.51363">
        <ele>52.085988</ele>
        <time>2022-12-16T12:37:02.917Z</time>
      </trkpt>
      <trkpt lat="47.37394" lon="-1.51376">
        <ele>51.986387</ele>
        <time>2022-12-16T12:37:05.919Z</time>
      </trkpt>
      <trkpt lat="47.37386" lon="-1.51388">
        <ele>51.887997</ele>
        <time>2022-12-16T12:37:08.931Z</time>
      </trkpt>
      <trkpt lat="47.37377" lon="-1.514">
        <ele>51.791206</ele>
        <time>2022-12-16T12:37:11.941Z</time>
      </trkpt>
      <trkpt lat="47.37369" lon="-1.51411">
        <ele>51.692323</ele>
        <time>2022-12-16T12:37:14.922Z</time>
      </trkpt>
      <trkpt lat="47.3736" lon="-1.51421">
        <ele>51.603413</ele>
        <time>2022-12-16T12:37:17.938Z</time>
      </trkpt>
      <trkpt lat="47.3735" lon="-1.51426">
        <ele>51.510788</ele>
        <time>2022-12-16T12:37:21.927Z</time>
      </trkpt>
      <trkpt lat="47.37338" lon="-1.51426">
        <ele>51.410403</ele>
        <time>2022-12-16T12:37:25.927Z</time>
      </trkpt>
      <trkpt lat="47.37326" lon="-1.51426">
        <ele>51.306618</ele>
        <time>2022-12-16T12:37:29.936Z</time>
      </trkpt>
      <trkpt lat="47.37315" lon="-1.51424">
        <ele>51.23342</ele>
        <time>2022-12-16T12:37:33.929Z</time>
      </trkpt>
      <trkpt lat="47.37303" lon="-1.51425">
        <ele>51.362656</ele>
        <time>2022-12-16T12:37:37.938Z</time>
      </trkpt>
      <trkpt lat="47.37291" lon="-1.51427">
        <ele>51.494466</ele>
        <time>2022-12-16T12:37:41.936Z</time>
      </trkpt>
      <trkpt lat="47.37279" lon="-1.51428">
        <ele>51.626287</ele>
        <time>2022-12-16T12:37:45.934Z</time>
      </trkpt>
      <trkpt lat="47.37268" lon="-1.51432">
        <ele>51.752491</ele>
        <time>2022-12-16T12:37:49.922Z</time>
      </trkpt>
      <trkpt lat="47.37259" lon="-1.51443">
        <ele>51.886498</ele>
        <time>2022-12-16T12:37:53.927Z</time>
      </trkpt>
      <trkpt lat="47.37251" lon="-1.51453">
        <ele>51.999745</ele>
        <time>2022-12-16T12:37:56.936Z</time>
      </trkpt>
      <trkpt lat="47.37243" lon="-1.51464">
        <ele>52.121752</ele>
        <time>2022-12-16T12:37:59.935Z</time>
      </trkpt>
      <trkpt lat="47.37236" lon="-1.51474">
        <ele>52.23054</ele>
        <time>2022-12-16T12:38:02.929Z</time>
      </trkpt>
      <trkpt lat="47.3723" lon="-1.51485">
        <ele>52.342623</ele>
        <time>2022-12-16T12:38:05.930Z</time>
      </trkpt>
      <trkpt lat="47.37223" lon="-1.51497">
        <ele>52.455055</ele>
        <time>2022-12-16T12:38:08.941Z</time>
      </trkpt>
      <trkpt lat="47.37217" lon="-1.51509">
        <ele>52.57328</ele>
        <time>2022-12-16T12:38:11.935Z</time>
      </trkpt>
      <trkpt lat="47.37211" lon="-1.51521">
        <ele>52.687034</ele>
        <time>2022-12-16T12:38:14.930Z</time>
      </trkpt>
      <trkpt lat="47.37205" lon="-1.51533">
        <ele>52.794511</ele>
        <time>2022-12-16T12:38:17.926Z</time>
      </trkpt>
      <trkpt lat="47.37198" lon="-1.51546">
        <ele>52.923672</ele>
        <time>2022-12-16T12:38:21.932Z</time>
      </trkpt>
      <trkpt lat="47.37191" lon="-1.5156">
        <ele>53.05638</ele>
        <time>2022-12-16T12:38:25.913Z</time>
      </trkpt>
      <trkpt lat="47.37182" lon="-1.51572">
        <ele>53.186317</ele>
        <time>2022-12-16T12:38:29.932Z</time>
      </trkpt>
      <trkpt lat="47.37176" lon="-1.51583">
        <ele>53.275759</ele>
        <time>2022-12-16T12:38:32.945Z</time>
      </trkpt>
      <trkpt lat="47.37169" lon="-1.51593">
        <ele>53.352042</ele>
        <time>2022-12-16T12:38:35.939Z</time>
      </trkpt>
      <trkpt lat="47.37162" lon="-1.51602">
        <ele>53.426525</ele>
        <time>2022-12-16T12:38:38.933Z</time>
      </trkpt>
      <trkpt lat="47.37156" lon="-1.51614">
        <ele>53.50976</ele>
        <time>2022-12-16T12:38:41.929Z</time>
      </trkpt>
      <trkpt lat="47.3715" lon="-1.51625">
        <ele>53.59001</ele>
        <time>2022-12-16T12:38:44.937Z</time>
      </trkpt>
      <trkpt lat="47.37144" lon="-1.51636">
        <ele>53.665979</ele>
        <time>2022-12-16T12:38:47.939Z</time>
      </trkpt>
      <trkpt lat="47.37138" lon="-1.51647">
        <ele>53.743215</ele>
        <time>2022-12-16T12:38:50.916Z</time>
      </trkpt>
      <trkpt lat="47.37131" lon="-1.51659">
        <ele>53.830947</ele>
        <time>2022-12-16T12:38:54.931Z</time>
      </trkpt>
      <trkpt lat="47.37124" lon="-1.51671">
        <ele>53.916488</ele>
        <time>2022-12-16T12:38:58.937Z</time>
      </trkpt>
      <trkpt lat="47.37117" lon="-1.51684">
        <ele>54.013479</ele>
        <time>2022-12-16T12:39:02.924Z</time>
      </trkpt>
      <trkpt lat="47.37111" lon="-1.51695">
        <ele>54.092796</ele>
        <time>2022-12-16T12:39:05.935Z</time>
      </trkpt>
      <trkpt lat="47.37104" lon="-1.51706">
        <ele>54.173745</ele>
        <time>2022-12-16T12:39:08.935Z</time>
      </trkpt>
      <trkpt lat="47.37095" lon="-1.51712">
        <ele>54.252181</ele>
        <time>2022-12-16T12:39:11.939Z</time>
      </trkpt>
      <trkpt lat="47.37085" lon="-1.51715">
        <ele>54.335606</ele>
        <time>2022-12-16T12:39:14.930Z</time>
      </trkpt>
      <trkpt lat="47.37076" lon="-1.51711">
        <ele>54.412341</ele>
        <time>2022-12-16T12:39:17.921Z</time>
      </trkpt>
      <trkpt lat="47.37068" lon="-1.51704">
        <ele>54.485282</ele>
        <time>2022-12-16T12:39:20.920Z</time>
      </trkpt>
      <trkpt lat="47.37058" lon="-1.51704">
        <ele>54.567408</ele>
        <time>2022-12-16T12:39:23.928Z</time>
      </trkpt>
      <trkpt lat="47.37047" lon="-1.51703">
        <ele>54.652948</ele>
        <time>2022-12-16T12:39:26.926Z</time>
      </trkpt>
      <trkpt lat="47.37037" lon="-1.51698">
        <ele>54.598502</ele>
        <time>2022-12-16T12:39:29.938Z</time>
      </trkpt>
      <trkpt lat="47.37029" lon="-1.51691">
        <ele>54.478095</ele>
        <time>2022-12-16T12:39:31.926Z</time>
      </trkpt>
      <trkpt lat="47.37019" lon="-1.5168">
        <ele>54.324392</ele>
        <time>2022-12-16T12:39:34.935Z</time>
      </trkpt>
      <trkpt lat="47.37007" lon="-1.51675">
        <ele>54.163899</ele>
        <time>2022-12-16T12:39:37.916Z</time>
      </trkpt>
      <trkpt lat="47.36993" lon="-1.51676">
        <ele>53.985435</ele>
        <time>2022-12-16T12:39:40.924Z</time>
      </trkpt>
      <trkpt lat="47.36982" lon="-1.51677">
        <ele>53.846234</ele>
        <time>2022-12-16T12:39:42.928Z</time>
      </trkpt>
      <trkpt lat="47.36972" lon="-1.51678">
        <ele>53.721319</ele>
        <time>2022-12-16T12:39:44.941Z</time>
      </trkpt>
      <trkpt lat="47.36962" lon="-1.51678">
        <ele>53.584917</ele>
        <time>2022-12-16T12:39:46.935Z</time>
      </trkpt>
      <trkpt lat="47.36952" lon="-1.51679">
        <ele>53.45881</ele>
        <time>2022-12-16T12:39:48.944Z</time>
      </trkpt>
      <trkpt lat="47.36941" lon="-1.51679">
        <ele>53.327635</ele>
        <time>2022-12-16T12:39:50.917Z</time>
      </trkpt>
      <trkpt lat="47.36932" lon="-1.51679">
        <ele>53.206572</ele>
        <time>2022-12-16T12:39:52.915Z</time>
      </trkpt>
      <trkpt lat="47.36922" lon="-1.51679">
        <ele>53.074113</ele>
        <time>2022-12-16T12:39:54.922Z</time>
      </trkpt>
      <trkpt lat="47.36912" lon="-1.5168">
        <ele>52.946712</ele>
        <time>2022-12-16T12:39:56.925Z</time>
      </trkpt>
      <trkpt lat="47.36902" lon="-1.5168">
        <ele>52.82062</ele>
        <time>2022-12-16T12:39:58.939Z</time>
      </trkpt>
      <trkpt lat="47.36892" lon="-1.5168">
        <ele>52.700904</ele>
        <time>2022-12-16T12:40:00.920Z</time>
      </trkpt>
      <trkpt lat="47.36882" lon="-1.5168">
        <ele>52.573524</ele>
        <time>2022-12-16T12:40:02.935Z</time>
      </trkpt>
      <trkpt lat="47.36873" lon="-1.5168">
        <ele>52.449988</ele>
        <time>2022-12-16T12:40:04.935Z</time>
      </trkpt>
      <trkpt lat="47.36863" lon="-1.51681">
        <ele>52.318941</ele>
        <time>2022-12-16T12:40:06.946Z</time>
      </trkpt>
      <trkpt lat="47.36854" lon="-1.51681">
        <ele>52.185794</ele>
        <time>2022-12-16T12:40:08.935Z</time>
      </trkpt>
      <trkpt lat="47.36845" lon="-1.51682">
        <ele>52.056632</ele>
        <time>2022-12-16T12:40:10.917Z</time>
      </trkpt>
      <trkpt lat="47.36831" lon="-1.51682">
        <ele>51.861994</ele>
        <time>2022-12-16T12:40:13.942Z</time>
      </trkpt>
      <trkpt lat="47.3682" lon="-1.51681">
        <ele>51.704333</ele>
        <time>2022-12-16T12:40:16.924Z</time>
      </trkpt>
      <trkpt lat="47.36809" lon="-1.5168">
        <ele>51.552115</ele>
        <time>2022-12-16T12:40:19.948Z</time>
      </trkpt>
      <trkpt lat="47.36801" lon="-1.51686">
        <ele>51.41681</ele>
        <time>2022-12-16T12:40:22.921Z</time>
      </trkpt>
      <trkpt lat="47.36798" lon="-1.517">
        <ele>51.270488</ele>
        <time>2022-12-16T12:40:25.924Z</time>
      </trkpt>
      <trkpt lat="47.36801" lon="-1.51717">
        <ele>51.102795</ele>
        <time>2022-12-16T12:40:28.926Z</time>
      </trkpt>
      <trkpt lat="47.36804" lon="-1.51734">
        <ele>50.928407</ele>
        <time>2022-12-16T12:40:31.931Z</time>
      </trkpt>
      <trkpt lat="47.36806" lon="-1.51753">
        <ele>50.743726</ele>
        <time>2022-12-16T12:40:34.930Z</time>
      </trkpt>
      <trkpt lat="47.36809" lon="-1.51772">
        <ele>50.560201</ele>
        <time>2022-12-16T12:40:37.928Z</time>
      </trkpt>
      <trkpt lat="47.36811" lon="-1.5179">
        <ele>50.377881</ele>
        <time>2022-12-16T12:40:40.919Z</time>
      </trkpt>
      <trkpt lat="47.3681" lon="-1.51809">
        <ele>50.202422</ele>
        <time>2022-12-16T12:40:43.939Z</time>
      </trkpt>
      <trkpt lat="47.36809" lon="-1.51826">
        <ele>50.034145</ele>
        <time>2022-12-16T12:40:46.918Z</time>
      </trkpt>
      <trkpt lat="47.36805" lon="-1.51843">
        <ele>49.859226</ele>
        <time>2022-12-16T12:40:49.935Z</time>
      </trkpt>
      <trkpt lat="47.368" lon="-1.51861">
        <ele>49.866734</ele>
        <time>2022-12-16T12:40:52.928Z</time>
      </trkpt>
      <trkpt lat="47.36793" lon="-1.51878">
        <ele>49.921833</ele>
        <time>2022-12-16T12:40:55.933Z</time>
      </trkpt>
      <trkpt lat="47.36787" lon="-1.51895">
        <ele>49.976193</ele>
        <time>2022-12-16T12:40:58.941Z</time>
      </trkpt>
      <trkpt lat="47.36781" lon="-1.51911">
        <ele>50.030006</ele>
        <time>2022-12-16T12:41:01.939Z</time>
      </trkpt>
      <trkpt lat="47.36775" lon="-1.51929">
        <ele>50.08457</ele>
        <time>2022-12-16T12:41:04.941Z</time>
      </trkpt>
      <trkpt lat="47.3677" lon="-1.5194">
        <ele>50.122723</ele>
        <time>2022-12-16T12:41:06.942Z</time>
      </trkpt>
      <trkpt lat="47.36766" lon="-1.51953">
        <ele>50.161385</ele>
        <time>2022-12-16T12:41:08.921Z</time>
      </trkpt>
      <trkpt lat="47.3676" lon="-1.51971">
        <ele>50.219163</ele>
        <time>2022-12-16T12:41:11.938Z</time>
      </trkpt>
      <trkpt lat="47.36755" lon="-1.51983">
        <ele>50.258711</ele>
        <time>2022-12-16T12:41:13.949Z</time>
      </trkpt>
      <trkpt lat="47.3675" lon="-1.51995">
        <ele>50.298414</ele>
        <time>2022-12-16T12:41:15.937Z</time>
      </trkpt>
      <trkpt lat="47.36745" lon="-1.52007">
        <ele>50.338242</ele>
        <time>2022-12-16T12:41:17.939Z</time>
      </trkpt>
      <trkpt lat="47.3674" lon="-1.52019">
        <ele>50.379185</ele>
        <time>2022-12-16T12:41:19.922Z</time>
      </trkpt>
      <trkpt lat="47.36735" lon="-1.52032">
        <ele>50.419916</ele>
        <time>2022-12-16T12:41:21.943Z</time>
      </trkpt>
      <trkpt lat="47.3673" lon="-1.52045">
        <ele>50.460089</ele>
        <time>2022-12-16T12:41:23.928Z</time>
      </trkpt>
      <trkpt lat="47.36726" lon="-1.52057">
        <ele>50.499673</ele>
        <time>2022-12-16T12:41:25.932Z</time>
      </trkpt>
      <trkpt lat="47.3672" lon="-1.52073">
        <ele>50.553184</ele>
        <time>2022-12-16T12:41:28.931Z</time>
      </trkpt>
      <trkpt lat="47.36714" lon="-1.52089">
        <ele>50.672633</ele>
        <time>2022-12-16T12:41:31.929Z</time>
      </trkpt>
      <trkpt lat="47.36708" lon="-1.52105">
        <ele>50.842748</ele>
        <time>2022-12-16T12:41:34.945Z</time>
      </trkpt>
      <trkpt lat="47.36701" lon="-1.52121">
        <ele>51.011017</ele>
        <time>2022-12-16T12:41:37.931Z</time>
      </trkpt>
      <trkpt lat="47.36695" lon="-1.52136">
        <ele>51.175944</ele>
        <time>2022-12-16T12:41:40.917Z</time>
      </trkpt>
      <trkpt lat="47.36688" lon="-1.52153">
        <ele>51.350657</ele>
        <time>2022-12-16T12:41:43.934Z</time>
      </trkpt>
      <trkpt lat="47.36683" lon="-1.52165">
        <ele>51.478694</ele>
        <time>2022-12-16T12:41:45.938Z</time>
      </trkpt>
      <trkpt lat="47.36678" lon="-1.52176">
        <ele>51.599895</ele>
        <time>2022-12-16T12:41:47.921Z</time>
      </trkpt>
      <trkpt lat="47.3667" lon="-1.52191">
        <ele>51.773934</ele>
        <time>2022-12-16T12:41:50.916Z</time>
      </trkpt>
      <trkpt lat="47.36662" lon="-1.52208">
        <ele>51.95538</ele>
        <time>2022-12-16T12:41:53.928Z</time>
      </trkpt>
      <trkpt lat="47.36658" lon="-1.52219">
        <ele>52.07721</ele>
        <time>2022-12-16T12:41:55.944Z</time>
      </trkpt>
      <trkpt lat="47.36655" lon="-1.52232">
        <ele>52.198841</ele>
        <time>2022-12-16T12:41:57.926Z</time>
      </trkpt>
      <trkpt lat="47.36653" lon="-1.52245">
        <ele>52.32332</ele>
        <time>2022-12-16T12:41:59.927Z</time>
      </trkpt>
      <trkpt lat="47.3665" lon="-1.52264">
        <ele>52.49905</ele>
        <time>2022-12-16T12:42:02.921Z</time>
      </trkpt>
      <trkpt lat="47.36648" lon="-1.52282">
        <ele>52.659296</ele>
        <time>2022-12-16T12:42:05.938Z</time>
      </trkpt>
      <trkpt lat="47.36646" lon="-1.52299">
        <ele>52.818865</ele>
        <time>2022-12-16T12:42:08.941Z</time>
      </trkpt>
      <trkpt lat="47.36645" lon="-1.52317">
        <ele>52.985982</ele>
        <time>2022-12-16T12:42:11.938Z</time>
      </trkpt>
      <trkpt lat="47.36644" lon="-1.52335">
        <ele>52.988898</ele>
        <time>2022-12-16T12:42:14.916Z</time>
      </trkpt>
      <trkpt lat="47.36642" lon="-1.52351">
        <ele>52.991696</ele>
        <time>2022-12-16T12:42:17.925Z</time>
      </trkpt>
      <trkpt lat="47.3664" lon="-1.52366">
        <ele>52.994332</ele>
        <time>2022-12-16T12:42:20.918Z</time>
      </trkpt>
      <trkpt lat="47.36638" lon="-1.52383">
        <ele>52.997068</ele>
        <time>2022-12-16T12:42:23.938Z</time>
      </trkpt>
      <trkpt lat="47.36636" lon="-1.52398">
        <ele>52.999775</ele>
        <time>2022-12-16T12:42:26.940Z</time>
      </trkpt>
      <trkpt lat="47.36633" lon="-1.52411">
        <ele>53.002124</ele>
        <time>2022-12-16T12:42:29.929Z</time>
      </trkpt>
      <trkpt lat="47.3663" lon="-1.52425">
        <ele>53.004491</ele>
        <time>2022-12-16T12:42:33.928Z</time>
      </trkpt>
      <trkpt lat="47.36628" lon="-1.52439">
        <ele>53.006964</ele>
        <time>2022-12-16T12:42:37.925Z</time>
      </trkpt>
      <trkpt lat="47.36623" lon="-1.52451">
        <ele>53.009214</ele>
        <time>2022-12-16T12:42:40.919Z</time>
      </trkpt>
      <trkpt lat="47.36617" lon="-1.52463">
        <ele>53.011794</ele>
        <time>2022-12-16T12:42:43.940Z</time>
      </trkpt>
      <trkpt lat="47.36612" lon="-1.52475">
        <ele>53.014208</ele>
        <time>2022-12-16T12:42:46.921Z</time>
      </trkpt>
      <trkpt lat="47.36608" lon="-1.5249">
        <ele>53.016893</ele>
        <time>2022-12-16T12:42:50.918Z</time>
      </trkpt>
      <trkpt lat="47.36598" lon="-1.5251">
        <ele>53.020992</ele>
        <time>2022-12-16T12:43:14.963Z</time>
      </trkpt>
      <trkpt lat="47.3659" lon="-1.52523">
        <ele>53.023904</ele>
        <time>2022-12-16T12:43:18.938Z</time>
      </trkpt>
      <trkpt lat="47.36583" lon="-1.52533">
        <ele>53.026464</ele>
        <time>2022-12-16T12:43:21.941Z</time>
      </trkpt>
      <trkpt lat="47.36575" lon="-1.52545">
        <ele>53.029313</ele>
        <time>2022-12-16T12:43:24.926Z</time>
      </trkpt>
      <trkpt lat="47.36566" lon="-1.52558">
        <ele>52.833881</ele>
        <time>2022-12-16T12:43:27.937Z</time>
      </trkpt>
      <trkpt lat="47.36558" lon="-1.52571">
        <ele>52.509923</ele>
        <time>2022-12-16T12:43:30.920Z</time>
      </trkpt>
      <trkpt lat="47.3655" lon="-1.52582">
        <ele>52.2028</ele>
        <time>2022-12-16T12:43:33.932Z</time>
      </trkpt>
      <trkpt lat="47.36541" lon="-1.52593">
        <ele>51.884584</ele>
        <time>2022-12-16T12:43:36.936Z</time>
      </trkpt>
      <trkpt lat="47.3653" lon="-1.52604">
        <ele>51.522417</ele>
        <time>2022-12-16T12:43:39.924Z</time>
      </trkpt>
      <trkpt lat="47.36521" lon="-1.5261">
        <ele>51.260929</ele>
        <time>2022-12-16T12:43:41.920Z</time>
      </trkpt>
      <trkpt lat="47.36512" lon="-1.52615">
        <ele>50.997774</ele>
        <time>2022-12-16T12:43:43.917Z</time>
      </trkpt>
      <trkpt lat="47.36503" lon="-1.5262">
        <ele>50.733225</ele>
        <time>2022-12-16T12:43:45.922Z</time>
      </trkpt>
      <trkpt lat="47.36494" lon="-1.52624">
        <ele>50.473721</ele>
        <time>2022-12-16T12:43:47.940Z</time>
      </trkpt>
      <trkpt lat="47.36485" lon="-1.52628">
        <ele>50.20939</ele>
        <time>2022-12-16T12:43:49.931Z</time>
      </trkpt>
      <trkpt lat="47.36476" lon="-1.52631">
        <ele>49.94642</ele>
        <time>2022-12-16T12:43:51.926Z</time>
      </trkpt>
      <trkpt lat="47.36463" lon="-1.52634">
        <ele>49.580734</ele>
        <time>2022-12-16T12:43:54.933Z</time>
      </trkpt>
      <trkpt lat="47.3645" lon="-1.52637">
        <ele>49.243043</ele>
        <time>2022-12-16T12:43:57.917Z</time>
      </trkpt>
      <trkpt lat="47.3644" lon="-1.52638">
        <ele>48.961992</ele>
        <time>2022-12-16T12:44:00.918Z</time>
      </trkpt>
      <trkpt lat="47.36431" lon="-1.52641">
        <ele>48.687457</ele>
        <time>2022-12-16T12:44:03.924Z</time>
      </trkpt>
      <trkpt lat="47.36421" lon="-1.52644">
        <ele>48.432265</ele>
        <time>2022-12-16T12:44:06.926Z</time>
      </trkpt>
      <trkpt lat="47.36412" lon="-1.52637">
        <ele>48.139519</ele>
        <time>2022-12-16T12:44:09.921Z</time>
      </trkpt>
      <trkpt lat="47.36402" lon="-1.52624">
        <ele>48.238086</ele>
        <time>2022-12-16T12:44:12.925Z</time>
      </trkpt>
      <trkpt lat="47.36394" lon="-1.52611">
        <ele>48.412691</ele>
        <time>2022-12-16T12:44:15.929Z</time>
      </trkpt>
      <trkpt lat="47.36387" lon="-1.526">
        <ele>48.561567</ele>
        <time>2022-12-16T12:44:18.918Z</time>
      </trkpt>
      <trkpt lat="47.3638" lon="-1.52588">
        <ele>48.701501</ele>
        <time>2022-12-16T12:44:21.935Z</time>
      </trkpt>
      <trkpt lat="47.36373" lon="-1.52578">
        <ele>48.8467</ele>
        <time>2022-12-16T12:44:24.928Z</time>
      </trkpt>
      <trkpt lat="47.36366" lon="-1.52566">
        <ele>48.997706</ele>
        <time>2022-12-16T12:44:27.943Z</time>
      </trkpt>
      <trkpt lat="47.36358" lon="-1.52556">
        <ele>49.144846</ele>
        <time>2022-12-16T12:44:30.921Z</time>
      </trkpt>
      <trkpt lat="47.3635" lon="-1.52546">
        <ele>49.283378</ele>
        <time>2022-12-16T12:44:33.932Z</time>
      </trkpt>
      <trkpt lat="47.36343" lon="-1.52536">
        <ele>49.420617</ele>
        <time>2022-12-16T12:44:36.931Z</time>
      </trkpt>
      <trkpt lat="47.36336" lon="-1.52527">
        <ele>49.558263</ele>
        <time>2022-12-16T12:44:40.918Z</time>
      </trkpt>
      <trkpt lat="47.36329" lon="-1.52517">
        <ele>49.692334</ele>
        <time>2022-12-16T12:44:44.920Z</time>
      </trkpt>
      <trkpt lat="47.36321" lon="-1.52507">
        <ele>49.838172</ele>
        <time>2022-12-16T12:44:48.939Z</time>
      </trkpt>
      <trkpt lat="47.36314" lon="-1.52496">
        <ele>49.985038</ele>
        <time>2022-12-16T12:44:52.942Z</time>
      </trkpt>
      <trkpt lat="47.3631" lon="-1.52484">
        <ele>50.11115</ele>
        <time>2022-12-16T12:44:56.928Z</time>
      </trkpt>
      <trkpt lat="47.36305" lon="-1.52472">
        <ele>50.24088</ele>
        <time>2022-12-16T12:45:00.919Z</time>
      </trkpt>
      <trkpt lat="47.363" lon="-1.52459">
        <ele>50.390136</ele>
        <time>2022-12-16T12:45:04.919Z</time>
      </trkpt>
      <trkpt lat="47.36295" lon="-1.52448">
        <ele>50.516505</ele>
        <time>2022-12-16T12:45:07.941Z</time>
      </trkpt>
      <trkpt lat="47.3629" lon="-1.52437">
        <ele>50.596588</ele>
        <time>2022-12-16T12:45:10.918Z</time>
      </trkpt>
      <trkpt lat="47.36284" lon="-1.52426">
        <ele>50.496153</ele>
        <time>2022-12-16T12:45:13.935Z</time>
      </trkpt>
      <trkpt lat="47.36277" lon="-1.52411">
        <ele>50.36043</ele>
        <time>2022-12-16T12:45:17.944Z</time>
      </trkpt>
      <trkpt lat="47.36272" lon="-1.52399">
        <ele>50.251899</ele>
        <time>2022-12-16T12:45:20.924Z</time>
      </trkpt>
      <trkpt lat="47.36266" lon="-1.52383">
        <ele>50.114467</ele>
        <time>2022-12-16T12:45:24.937Z</time>
      </trkpt>
      <trkpt lat="47.36261" lon="-1.52367">
        <ele>49.982311</ele>
        <time>2022-12-16T12:45:27.928Z</time>
      </trkpt>
      <trkpt lat="47.36256" lon="-1.5235">
        <ele>49.840831</ele>
        <time>2022-12-16T12:45:30.918Z</time>
      </trkpt>
      <trkpt lat="47.36251" lon="-1.52333">
        <ele>49.709345</ele>
        <time>2022-12-16T12:45:33.922Z</time>
      </trkpt>
      <trkpt lat="47.36247" lon="-1.52321">
        <ele>49.609512</ele>
        <time>2022-12-16T12:45:35.937Z</time>
      </trkpt>
      <trkpt lat="47.36241" lon="-1.52304">
        <ele>49.461167</ele>
        <time>2022-12-16T12:45:38.936Z</time>
      </trkpt>
      <trkpt lat="47.36234" lon="-1.52294">
        <ele>49.355359</ele>
        <time>2022-12-16T12:45:40.923Z</time>
      </trkpt>
      <trkpt lat="47.36223" lon="-1.52283">
        <ele>49.209508</ele>
        <time>2022-12-16T12:45:43.923Z</time>
      </trkpt>
      <trkpt lat="47.36215" lon="-1.52277">
        <ele>49.110285</ele>
        <time>2022-12-16T12:45:45.925Z</time>
      </trkpt>
      <trkpt lat="47.36204" lon="-1.5227">
        <ele>48.977617</ele>
        <time>2022-12-16T12:45:48.937Z</time>
      </trkpt>
      <trkpt lat="47.36193" lon="-1.52266">
        <ele>48.85425</ele>
        <time>2022-12-16T12:45:51.939Z</time>
      </trkpt>
      <trkpt lat="47.36181" lon="-1.52262">
        <ele>48.720306</ele>
        <time>2022-12-16T12:45:54.944Z</time>
      </trkpt>
      <trkpt lat="47.36172" lon="-1.5226">
        <ele>48.627968</ele>
        <time>2022-12-16T12:45:56.942Z</time>
      </trkpt>
      <trkpt lat="47.36162" lon="-1.52258">
        <ele>48.607042</ele>
        <time>2022-12-16T12:45:58.942Z</time>
      </trkpt>
      <trkpt lat="47.36152" lon="-1.52255">
        <ele>48.585399</ele>
        <time>2022-12-16T12:46:00.920Z</time>
      </trkpt>
      <trkpt lat="47.36141" lon="-1.52251">
        <ele>48.561212</ele>
        <time>2022-12-16T12:46:02.929Z</time>
      </trkpt>
      <trkpt lat="47.36129" lon="-1.52249">
        <ele>48.53639</ele>
        <time>2022-12-16T12:46:04.934Z</time>
      </trkpt>
      <trkpt lat="47.36119" lon="-1.52245">
        <ele>48.513725</ele>
        <time>2022-12-16T12:46:06.935Z</time>
      </trkpt>
      <trkpt lat="47.36106" lon="-1.52242">
        <ele>48.488005</ele>
        <time>2022-12-16T12:46:08.924Z</time>
      </trkpt>
      <trkpt lat="47.36094" lon="-1.52239">
        <ele>48.461823</ele>
        <time>2022-12-16T12:46:10.918Z</time>
      </trkpt>
      <trkpt lat="47.36081" lon="-1.52234">
        <ele>48.434389</ele>
        <time>2022-12-16T12:46:12.942Z</time>
      </trkpt>
      <trkpt lat="47.3607" lon="-1.52228">
        <ele>48.408664</ele>
        <time>2022-12-16T12:46:14.927Z</time>
      </trkpt>
      <trkpt lat="47.36061" lon="-1.52217">
        <ele>48.385384</ele>
        <time>2022-12-16T12:46:16.930Z</time>
      </trkpt>
      <trkpt lat="47.36056" lon="-1.52206">
        <ele>48.366234</ele>
        <time>2022-12-16T12:46:18.931Z</time>
      </trkpt>
      <trkpt lat="47.36049" lon="-1.5219">
        <ele>48.338894</ele>
        <time>2022-12-16T12:46:21.951Z</time>
      </trkpt>
      <trkpt lat="47.36041" lon="-1.52176">
        <ele>48.313178</ele>
        <time>2022-12-16T12:46:24.944Z</time>
      </trkpt>
      <trkpt lat="47.36034" lon="-1.52161">
        <ele>48.287246</ele>
        <time>2022-12-16T12:46:27.938Z</time>
      </trkpt>
      <trkpt lat="47.36027" lon="-1.52146">
        <ele>48.260954</ele>
        <time>2022-12-16T12:46:30.920Z</time>
      </trkpt>
      <trkpt lat="47.3602" lon="-1.5213">
        <ele>48.611356</ele>
        <time>2022-12-16T12:46:33.930Z</time>
      </trkpt>
      <trkpt lat="47.36011" lon="-1.52122">
        <ele>49.029222</ele>
        <time>2022-12-16T12:46:36.929Z</time>
      </trkpt>
      <trkpt lat="47.36002" lon="-1.52126">
        <ele>49.384287</ele>
        <time>2022-12-16T12:46:39.928Z</time>
      </trkpt>
      <trkpt lat="47.35992" lon="-1.52135">
        <ele>49.832584</ele>
        <time>2022-12-16T12:46:43.922Z</time>
      </trkpt>
      <trkpt lat="47.35983" lon="-1.52144">
        <ele>50.271491</ele>
        <time>2022-12-16T12:46:47.936Z</time>
      </trkpt>
      <trkpt lat="47.35975" lon="-1.52156">
        <ele>50.72506</ele>
        <time>2022-12-16T12:46:51.928Z</time>
      </trkpt>
      <trkpt lat="47.35969" lon="-1.52167">
        <ele>51.090921</ele>
        <time>2022-12-16T12:46:54.944Z</time>
      </trkpt>
      <trkpt lat="47.35963" lon="-1.52178">
        <ele>51.473249</ele>
        <time>2022-12-16T12:46:57.934Z</time>
      </trkpt>
      <trkpt lat="47.35957" lon="-1.52189">
        <ele>51.847287</ele>
        <time>2022-12-16T12:47:00.920Z</time>
      </trkpt>
      <trkpt lat="47.35951" lon="-1.522">
        <ele>52.208643</ele>
        <time>2022-12-16T12:47:03.934Z</time>
      </trkpt>
      <trkpt lat="47.35944" lon="-1.52211">
        <ele>52.599106</ele>
        <time>2022-12-16T12:47:06.925Z</time>
      </trkpt>
      <trkpt lat="47.35938" lon="-1.52221">
        <ele>52.96007</ele>
        <time>2022-12-16T12:47:09.937Z</time>
      </trkpt>
      <trkpt lat="47.35931" lon="-1.52233">
        <ele>53.376666</ele>
        <time>2022-12-16T12:47:13.927Z</time>
      </trkpt>
      <trkpt lat="47.35924" lon="-1.52245">
        <ele>53.774194</ele>
        <time>2022-12-16T12:47:18.933Z</time>
      </trkpt>
      <trkpt lat="47.35916" lon="-1.52253">
        <ele>54.169013</ele>
        <time>2022-12-16T12:47:23.919Z</time>
      </trkpt>
      <trkpt lat="47.35906" lon="-1.52255">
        <ele>54.557193</ele>
        <time>2022-12-16T12:47:28.938Z</time>
      </trkpt>
      <trkpt lat="47.35896" lon="-1.52259">
        <ele>54.954721</ele>
        <time>2022-12-16T12:47:34.919Z</time>
      </trkpt>
      <trkpt lat="47.35887" lon="-1.52263">
        <ele>55.265074</ele>
        <time>2022-12-16T12:47:38.921Z</time>
      </trkpt>
      <trkpt lat="47.35878" lon="-1.52267">
        <ele>55.340262</ele>
        <time>2022-12-16T12:47:42.942Z</time>
      </trkpt>
      <trkpt lat="47.35868" lon="-1.52272">
        <ele>55.433181</ele>
        <time>2022-12-16T12:47:47.929Z</time>
      </trkpt>
      <trkpt lat="47.35858" lon="-1.52275">
        <ele>55.510097</ele>
        <time>2022-12-16T12:47:51.926Z</time>
      </trkpt>
      <trkpt lat="47.35846" lon="-1.52272">
        <ele>55.609795</ele>
        <time>2022-12-16T12:47:55.925Z</time>
      </trkpt>
      <trkpt lat="47.35835" lon="-1.52266">
        <ele>55.705569</ele>
        <time>2022-12-16T12:47:59.929Z</time>
      </trkpt>
      <trkpt lat="47.35825" lon="-1.52259">
        <ele>55.800863</ele>
        <time>2022-12-16T12:48:03.939Z</time>
      </trkpt>
      <trkpt lat="47.35815" lon="-1.52251">
        <ele>55.892525</ele>
        <time>2022-12-16T12:48:07.958Z</time>
      </trkpt>
      <trkpt lat="47.35805" lon="-1.52243">
        <ele>55.988313</ele>
        <time>2022-12-16T12:48:11.920Z</time>
      </trkpt>
      <trkpt lat="47.35796" lon="-1.52237">
        <ele>56.071346</ele>
        <time>2022-12-16T12:48:14.936Z</time>
      </trkpt>
      <trkpt lat="47.35787" lon="-1.52231">
        <ele>56.152131</ele>
        <time>2022-12-16T12:48:17.930Z</time>
      </trkpt>
      <trkpt lat="47.35778" lon="-1.52226">
        <ele>56.228316</ele>
        <time>2022-12-16T12:48:20.921Z</time>
      </trkpt>
      <trkpt lat="47.35769" lon="-1.52219">
        <ele>56.315741</ele>
        <time>2022-12-16T12:48:23.936Z</time>
      </trkpt>
      <trkpt lat="47.35759" lon="-1.52211">
        <ele>56.408046</ele>
        <time>2022-12-16T12:48:26.938Z</time>
      </trkpt>
      <trkpt lat="47.35749" lon="-1.52204">
        <ele>56.497197</ele>
        <time>2022-12-16T12:48:29.919Z</time>
      </trkpt>
      <trkpt lat="47.35739" lon="-1.52196">
        <ele>56.595723</ele>
        <time>2022-12-16T12:48:32.939Z</time>
      </trkpt>
      <trkpt lat="47.35728" lon="-1.52189">
        <ele>56.685995</ele>
        <time>2022-12-16T12:48:35.938Z</time>
      </trkpt>
      <trkpt lat="47.35719" lon="-1.52183">
        <ele>56.715667</ele>
        <time>2022-12-16T12:48:38.942Z</time>
      </trkpt>
      <trkpt lat="47.35711" lon="-1.52176">
        <ele>56.691756</ele>
        <time>2022-12-16T12:48:41.934Z</time>
      </trkpt>
      <trkpt lat="47.35701" lon="-1.52167">
        <ele>56.660864</ele>
        <time>2022-12-16T12:48:45.925Z</time>
      </trkpt>
      <trkpt lat="47.35692" lon="-1.52158">
        <ele>56.632749</ele>
        <time>2022-12-16T12:48:49.939Z</time>
      </trkpt>
      <trkpt lat="47.35684" lon="-1.52152">
        <ele>56.608319</ele>
        <time>2022-12-16T12:48:52.923Z</time>
      </trkpt>
      <trkpt lat="47.35675" lon="-1.52144">
        <ele>56.583325</ele>
        <time>2022-12-16T12:48:55.931Z</time>
      </trkpt>
      <trkpt lat="47.35667" lon="-1.52136">
        <ele>56.556706</ele>
        <time>2022-12-16T12:48:58.938Z</time>
      </trkpt>
      <trkpt lat="47.35658" lon="-1.52128">
        <ele>56.531059</ele>
        <time>2022-12-16T12:49:01.924Z</time>
      </trkpt>
      <trkpt lat="47.35648" lon="-1.52121">
        <ele>56.5013</ele>
        <time>2022-12-16T12:49:05.937Z</time>
      </trkpt>
      <trkpt lat="47.35638" lon="-1.52113">
        <ele>56.473374</ele>
        <time>2022-12-16T12:49:09.933Z</time>
      </trkpt>
      <trkpt lat="47.35631" lon="-1.52101">
        <ele>56.444384</ele>
        <time>2022-12-16T12:49:16.921Z</time>
      </trkpt>
      <trkpt lat="47.35621" lon="-1.52102">
        <ele>56.418726</ele>
        <time>2022-12-16T12:49:20.927Z</time>
      </trkpt>
      <trkpt lat="47.35611" lon="-1.52109">
        <ele>56.390558</ele>
        <time>2022-12-16T12:49:24.926Z</time>
      </trkpt>
      <trkpt lat="47.35602" lon="-1.52114">
        <ele>56.365884</ele>
        <time>2022-12-16T12:49:27.937Z</time>
      </trkpt>
      <trkpt lat="47.35591" lon="-1.5212">
        <ele>56.336365</ele>
        <time>2022-12-16T12:49:30.921Z</time>
      </trkpt>
      <trkpt lat="47.3558" lon="-1.52125">
        <ele>56.307266</ele>
        <time>2022-12-16T12:49:33.935Z</time>
      </trkpt>
      <trkpt lat="47.35569" lon="-1.5213">
        <ele>56.277026</ele>
        <time>2022-12-16T12:49:36.940Z</time>
      </trkpt>
      <trkpt lat="47.35559" lon="-1.52134">
        <ele>56.122091</ele>
        <time>2022-12-16T12:49:39.930Z</time>
      </trkpt>
      <trkpt lat="47.35549" lon="-1.52137">
        <ele>55.818439</ele>
        <time>2022-12-16T12:49:42.918Z</time>
      </trkpt>
      <trkpt lat="47.35538" lon="-1.52139">
        <ele>55.515201</ele>
        <time>2022-12-16T12:49:45.942Z</time>
      </trkpt>
      <trkpt lat="47.35527" lon="-1.52141">
        <ele>55.216763</ele>
        <time>2022-12-16T12:49:48.922Z</time>
      </trkpt>
      <trkpt lat="47.35516" lon="-1.52144">
        <ele>54.900367</ele>
        <time>2022-12-16T12:49:51.931Z</time>
      </trkpt>
      <trkpt lat="47.35504" lon="-1.52148">
        <ele>54.561046</ele>
        <time>2022-12-16T12:49:54.924Z</time>
      </trkpt>
      <trkpt lat="47.35493" lon="-1.52152">
        <ele>54.237067</ele>
        <time>2022-12-16T12:49:57.937Z</time>
      </trkpt>
      <trkpt lat="47.35481" lon="-1.52159">
        <ele>53.888529</ele>
        <time>2022-12-16T12:50:00.916Z</time>
      </trkpt>
      <trkpt lat="47.35473" lon="-1.52164">
        <ele>53.636629</ele>
        <time>2022-12-16T12:50:02.935Z</time>
      </trkpt>
      <trkpt lat="47.35466" lon="-1.52173">
        <ele>53.374045</ele>
        <time>2022-12-16T12:50:04.927Z</time>
      </trkpt>
      <trkpt lat="47.35459" lon="-1.5219">
        <ele>52.999533</ele>
        <time>2022-12-16T12:50:07.926Z</time>
      </trkpt>
      <trkpt lat="47.35453" lon="-1.522">
        <ele>52.745104</ele>
        <time>2022-12-16T12:50:09.939Z</time>
      </trkpt>
      <trkpt lat="47.35447" lon="-1.52211">
        <ele>52.495657</ele>
        <time>2022-12-16T12:50:11.923Z</time>
      </trkpt>
      <trkpt lat="47.35439" lon="-1.52224">
        <ele>52.146458</ele>
        <time>2022-12-16T12:50:14.922Z</time>
      </trkpt>
      <trkpt lat="47.35428" lon="-1.52231">
        <ele>51.824461</ele>
        <time>2022-12-16T12:50:17.921Z</time>
      </trkpt>
      <trkpt lat="47.35417" lon="-1.52234">
        <ele>51.509845</ele>
        <time>2022-12-16T12:50:20.925Z</time>
      </trkpt>
      <trkpt lat="47.35407" lon="-1.52241">
        <ele>51.26779</ele>
        <time>2022-12-16T12:50:24.919Z</time>
      </trkpt>
      <trkpt lat="47.35398" lon="-1.52246">
        <ele>51.358267</ele>
        <time>2022-12-16T12:50:28.941Z</time>
      </trkpt>
      <trkpt lat="47.35388" lon="-1.52249">
        <ele>51.459945</ele>
        <time>2022-12-16T12:50:32.940Z</time>
      </trkpt>
      <trkpt lat="47.35376" lon="-1.52253">
        <ele>51.576413</ele>
        <time>2022-12-16T12:50:37.928Z</time>
      </trkpt>
      <trkpt lat="47.35367" lon="-1.5226">
        <ele>51.668028</ele>
        <time>2022-12-16T12:50:40.926Z</time>
      </trkpt>
      <trkpt lat="47.35356" lon="-1.52266">
        <ele>51.781962</ele>
        <time>2022-12-16T12:50:43.940Z</time>
      </trkpt>
      <trkpt lat="47.35346" lon="-1.52271">
        <ele>51.880981</ele>
        <time>2022-12-16T12:50:46.928Z</time>
      </trkpt>
      <trkpt lat="47.35338" lon="-1.52278">
        <ele>51.97553</ele>
        <time>2022-12-16T12:50:50.011Z</time>
      </trkpt>
      <trkpt lat="47.35329" lon="-1.52283">
        <ele>52.070529</ele>
        <time>2022-12-16T12:50:52.918Z</time>
      </trkpt>
      <trkpt lat="47.35321" lon="-1.52291">
        <ele>52.163684</ele>
        <time>2022-12-16T12:50:55.940Z</time>
      </trkpt>
      <trkpt lat="47.35311" lon="-1.523">
        <ele>52.268523</ele>
        <time>2022-12-16T12:50:58.938Z</time>
      </trkpt>
      <trkpt lat="47.35302" lon="-1.52307">
        <ele>52.370439</ele>
        <time>2022-12-16T12:51:02.919Z</time>
      </trkpt>
      <trkpt lat="47.35294" lon="-1.52313">
        <ele>52.456597</ele>
        <time>2022-12-16T12:51:06.934Z</time>
      </trkpt>
      <trkpt lat="47.35285" lon="-1.52318">
        <ele>52.547516</ele>
        <time>2022-12-16T12:51:11.926Z</time>
      </trkpt>
      <trkpt lat="47.35276" lon="-1.52321">
        <ele>52.634446</ele>
        <time>2022-12-16T12:51:16.923Z</time>
      </trkpt>
      <trkpt lat="47.35266" lon="-1.52321">
        <ele>52.731367</ele>
        <time>2022-12-16T12:51:21.929Z</time>
      </trkpt>
      <trkpt lat="47.35256" lon="-1.52318">
        <ele>52.829631</ele>
        <time>2022-12-16T12:51:26.931Z</time>
      </trkpt>
      <trkpt lat="47.35247" lon="-1.52316">
        <ele>52.919717</ele>
        <time>2022-12-16T12:51:31.915Z</time>
      </trkpt>
      <trkpt lat="47.35229" lon="-1.52312">
        <ele>53.80696</ele>
        <time>2022-12-16T12:52:11.931Z</time>
      </trkpt>
      <trkpt lat="47.3522" lon="-1.52311">
        <ele>54.416624</ele>
        <time>2022-12-16T12:52:21.925Z</time>
      </trkpt>
      <trkpt lat="47.35211" lon="-1.52309">
        <ele>55.045918</ele>
        <time>2022-12-16T12:52:33.932Z</time>
      </trkpt>
      <trkpt lat="47.35201" lon="-1.52308">
        <ele>55.718934</ele>
        <time>2022-12-16T12:52:50.925Z</time>
      </trkpt>
      <trkpt lat="47.35192" lon="-1.52307">
        <ele>56.335581</ele>
        <time>2022-12-16T12:52:59.924Z</time>
      </trkpt>
      <trkpt lat="47.35182" lon="-1.52307">
        <ele>56.978722</ele>
        <time>2022-12-16T12:53:10.929Z</time>
      </trkpt>
      <trkpt lat="47.35173" lon="-1.52305">
        <ele>57.627476</ele>
        <time>2022-12-16T12:53:23.929Z</time>
      </trkpt>
      <trkpt lat="47.35163" lon="-1.52305">
        <ele>58.270421</ele>
        <time>2022-12-16T12:53:32.933Z</time>
      </trkpt>
      <trkpt lat="47.35154" lon="-1.52304">
        <ele>58.920472</ele>
        <time>2022-12-16T12:53:43.928Z</time>
      </trkpt>
      <trkpt lat="47.35144" lon="-1.52302">
        <ele>59.563829</ele>
        <time>2022-12-16T12:53:56.935Z</time>
      </trkpt>
      <trkpt lat="47.35137" lon="-1.52311">
        <ele>60.176737</ele>
        <time>2022-12-16T12:54:09.927Z</time>
      </trkpt>
      <trkpt lat="47.35134" lon="-1.5233">
        <ele>61.068209</ele>
        <time>2022-12-16T12:54:34.934Z</time>
      </trkpt>
      <trkpt lat="47.35133" lon="-1.52344">
        <ele>61.755336</ele>
        <time>2022-12-16T12:54:39.929Z</time>
      </trkpt>
      <trkpt lat="47.35132" lon="-1.52359">
        <ele>62.425018</ele>
        <time>2022-12-16T12:54:44.932Z</time>
      </trkpt>
      <trkpt lat="47.35132" lon="-1.52374">
        <ele>63.133143</ele>
        <time>2022-12-16T12:54:49.933Z</time>
      </trkpt>
      <trkpt lat="47.35132" lon="-1.52392">
        <ele>63.954065</ele>
        <time>2022-12-16T12:54:53.937Z</time>
      </trkpt>
      <trkpt lat="47.35129" lon="-1.52407">
        <ele>64.678053</ele>
        <time>2022-12-16T12:54:57.929Z</time>
      </trkpt>
      <trkpt lat="47.35124" lon="-1.52419">
        <ele>65.197923</ele>
        <time>2022-12-16T12:55:02.935Z</time>
      </trkpt>
      <trkpt lat="47.35118" lon="-1.5243">
        <ele>65.391902</ele>
        <time>2022-12-16T12:55:07.942Z</time>
      </trkpt>
      <trkpt lat="47.3511" lon="-1.5244">
        <ele>65.591786</ele>
        <time>2022-12-16T12:55:12.932Z</time>
      </trkpt>
      <trkpt lat="47.35101" lon="-1.52448">
        <ele>65.800926</ele>
        <time>2022-12-16T12:55:17.940Z</time>
      </trkpt>
      <trkpt lat="47.35092" lon="-1.52455">
        <ele>65.997232</ele>
        <time>2022-12-16T12:55:21.934Z</time>
      </trkpt>
      <trkpt lat="47.35082" lon="-1.52462">
        <ele>66.206684</ele>
        <time>2022-12-16T12:55:25.940Z</time>
      </trkpt>
      <trkpt lat="47.35072" lon="-1.52469">
        <ele>66.417637</ele>
        <time>2022-12-16T12:55:29.944Z</time>
      </trkpt>
      <trkpt lat="47.35062" lon="-1.52475">
        <ele>66.630917</ele>
        <time>2022-12-16T12:55:34.934Z</time>
      </trkpt>
      <trkpt lat="47.35052" lon="-1.52481">
        <ele>66.847164</ele>
        <time>2022-12-16T12:55:39.934Z</time>
      </trkpt>
      <trkpt lat="47.35042" lon="-1.52486">
        <ele>67.058801</ele>
        <time>2022-12-16T12:55:43.940Z</time>
      </trkpt>
      <trkpt lat="47.35033" lon="-1.52491">
        <ele>67.254351</ele>
        <time>2022-12-16T12:55:47.936Z</time>
      </trkpt>
      <trkpt lat="47.35024" lon="-1.52496">
        <ele>67.43847</ele>
        <time>2022-12-16T12:55:50.920Z</time>
      </trkpt>
      <trkpt lat="47.35015" lon="-1.52504">
        <ele>67.644469</ele>
        <time>2022-12-16T12:55:53.943Z</time>
      </trkpt>
      <trkpt lat="47.35003" lon="-1.52512">
        <ele>67.894406</ele>
        <time>2022-12-16T12:55:56.943Z</time>
      </trkpt>
      <trkpt lat="47.34991" lon="-1.52522">
        <ele>68.165604</ele>
        <time>2022-12-16T12:55:59.943Z</time>
      </trkpt>
      <trkpt lat="47.34983" lon="-1.52528">
        <ele>68.347096</ele>
        <time>2022-12-16T12:56:01.941Z</time>
      </trkpt>
      <trkpt lat="47.34972" lon="-1.52536">
        <ele>68.58178</ele>
        <time>2022-12-16T12:56:04.943Z</time>
      </trkpt>
      <trkpt lat="47.34963" lon="-1.52542">
        <ele>68.584941</ele>
        <time>2022-12-16T12:56:07.935Z</time>
      </trkpt>
      <trkpt lat="47.34954" lon="-1.52544">
        <ele>68.426377</ele>
        <time>2022-12-16T12:56:10.923Z</time>
      </trkpt>
      <trkpt lat="47.34945" lon="-1.52542">
        <ele>68.262868</ele>
        <time>2022-12-16T12:56:13.921Z</time>
      </trkpt>
      <trkpt lat="47.34935" lon="-1.52537">
        <ele>68.083713</ele>
        <time>2022-12-16T12:56:17.941Z</time>
      </trkpt>
      <trkpt lat="47.34926" lon="-1.52531">
        <ele>67.905453</ele>
        <time>2022-12-16T12:56:21.948Z</time>
      </trkpt>
      <trkpt lat="47.34915" lon="-1.52529">
        <ele>67.71319</ele>
        <time>2022-12-16T12:56:25.942Z</time>
      </trkpt>
      <trkpt lat="47.34905" lon="-1.52527">
        <ele>67.550649</ele>
        <time>2022-12-16T12:56:28.935Z</time>
      </trkpt>
      <trkpt lat="47.34896" lon="-1.52526">
        <ele>67.384788</ele>
        <time>2022-12-16T12:56:31.933Z</time>
      </trkpt>
      <trkpt lat="47.34885" lon="-1.52524">
        <ele>67.195358</ele>
        <time>2022-12-16T12:56:34.942Z</time>
      </trkpt>
      <trkpt lat="47.34873" lon="-1.52522">
        <ele>66.979466</ele>
        <time>2022-12-16T12:56:37.936Z</time>
      </trkpt>
      <trkpt lat="47.3486" lon="-1.52521">
        <ele>66.756559</ele>
        <time>2022-12-16T12:56:40.920Z</time>
      </trkpt>
      <trkpt lat="47.34846" lon="-1.5252">
        <ele>66.521774</ele>
        <time>2022-12-16T12:56:43.959Z</time>
      </trkpt>
      <trkpt lat="47.34837" lon="-1.52518">
        <ele>66.35971</ele>
        <time>2022-12-16T12:56:45.945Z</time>
      </trkpt>
      <trkpt lat="47.34824" lon="-1.52516">
        <ele>66.126486</ele>
        <time>2022-12-16T12:56:48.931Z</time>
      </trkpt>
      <trkpt lat="47.34812" lon="-1.52514">
        <ele>65.924438</ele>
        <time>2022-12-16T12:56:51.933Z</time>
      </trkpt>
      <trkpt lat="47.34801" lon="-1.52513">
        <ele>65.722568</ele>
        <time>2022-12-16T12:56:55.930Z</time>
      </trkpt>
      <trkpt lat="47.34792" lon="-1.52512">
        <ele>65.564154</ele>
        <time>2022-12-16T12:56:59.940Z</time>
      </trkpt>
      <trkpt lat="47.34785" lon="-1.52497">
        <ele>65.24136</ele>
        <time>2022-12-16T12:57:03.928Z</time>
      </trkpt>
      <trkpt lat="47.34782" lon="-1.52477">
        <ele>64.851808</ele>
        <time>2022-12-16T12:57:06.922Z</time>
      </trkpt>
      <trkpt lat="47.3478" lon="-1.52463">
        <ele>64.584118</ele>
        <time>2022-12-16T12:57:08.934Z</time>
      </trkpt>
      <trkpt lat="47.34777" lon="-1.52446">
        <ele>64.262316</ele>
        <time>2022-12-16T12:57:11.934Z</time>
      </trkpt>
      <trkpt lat="47.34774" lon="-1.52433">
        <ele>64.001048</ele>
        <time>2022-12-16T12:57:15.948Z</time>
      </trkpt>
      <trkpt lat="47.34765" lon="-1.52428">
        <ele>63.744857</ele>
        <time>2022-12-16T12:57:21.933Z</time>
      </trkpt>
      <trkpt lat="47.34755" lon="-1.52428">
        <ele>63.449713</ele>
        <time>2022-12-16T12:57:25.921Z</time>
      </trkpt>
      <trkpt lat="47.34744" lon="-1.52428">
        <ele>63.149052</ele>
        <time>2022-12-16T12:57:28.941Z</time>
      </trkpt>
      <trkpt lat="47.34731" lon="-1.52429">
        <ele>62.809596</ele>
        <time>2022-12-16T12:57:31.936Z</time>
      </trkpt>
      <trkpt lat="47.3472" lon="-1.52429">
        <ele>62.495144</ele>
        <time>2022-12-16T12:57:34.949Z</time>
      </trkpt>
      <trkpt lat="47.34709" lon="-1.52427">
        <ele>62.201757</ele>
        <time>2022-12-16T12:57:37.923Z</time>
      </trkpt>
      <trkpt lat="47.347" lon="-1.52427">
        <ele>61.945228</ele>
        <time>2022-12-16T12:57:40.922Z</time>
      </trkpt>
      <trkpt lat="47.34691" lon="-1.52428">
        <ele>61.68498</ele>
        <time>2022-12-16T12:57:43.927Z</time>
      </trkpt>
      <trkpt lat="47.34681" lon="-1.52428">
        <ele>61.428458</ele>
        <time>2022-12-16T12:57:46.944Z</time>
      </trkpt>
      <trkpt lat="47.3467" lon="-1.52429">
        <ele>61.124838</ele>
        <time>2022-12-16T12:57:49.936Z</time>
      </trkpt>
      <trkpt lat="47.3466" lon="-1.52429">
        <ele>60.848907</ele>
        <time>2022-12-16T12:57:52.920Z</time>
      </trkpt>
      <trkpt lat="47.34649" lon="-1.52428">
        <ele>60.593336</ele>
        <time>2022-12-16T12:57:56.942Z</time>
      </trkpt>
      <trkpt lat="47.34638" lon="-1.52428">
        <ele>60.603129</ele>
        <time>2022-12-16T12:57:59.932Z</time>
      </trkpt>
      <trkpt lat="47.34626" lon="-1.52428">
        <ele>60.614528</ele>
        <time>2022-12-16T12:58:02.944Z</time>
      </trkpt>
      <trkpt lat="47.34615" lon="-1.5243">
        <ele>60.625092</ele>
        <time>2022-12-16T12:58:05.939Z</time>
      </trkpt>
      <trkpt lat="47.34606" lon="-1.52438">
        <ele>60.634969</ele>
        <time>2022-12-16T12:58:08.933Z</time>
      </trkpt>
      <trkpt lat="47.34599" lon="-1.52446">
        <ele>60.643505</ele>
        <time>2022-12-16T12:58:11.939Z</time>
      </trkpt>
      <trkpt lat="47.34591" lon="-1.52456">
        <ele>60.653377</ele>
        <time>2022-12-16T12:58:15.946Z</time>
      </trkpt>
      <trkpt lat="47.34584" lon="-1.52467">
        <ele>60.662864</ele>
        <time>2022-12-16T12:58:19.931Z</time>
      </trkpt>
      <trkpt lat="47.34576" lon="-1.52475">
        <ele>60.671626</ele>
        <time>2022-12-16T12:58:22.942Z</time>
      </trkpt>
      <trkpt lat="47.34569" lon="-1.52486">
        <ele>60.681292</ele>
        <time>2022-12-16T12:58:25.929Z</time>
      </trkpt>
      <trkpt lat="47.3456" lon="-1.52499">
        <ele>60.693223</ele>
        <time>2022-12-16T12:58:28.925Z</time>
      </trkpt>
      <trkpt lat="47.34553" lon="-1.52507">
        <ele>60.701769</ele>
        <time>2022-12-16T12:58:30.920Z</time>
      </trkpt>
      <trkpt lat="47.34545" lon="-1.52519">
        <ele>60.712128</ele>
        <time>2022-12-16T12:58:32.924Z</time>
      </trkpt>
      <trkpt lat="47.34538" lon="-1.52528">
        <ele>60.721168</ele>
        <time>2022-12-16T12:58:34.937Z</time>
      </trkpt>
      <trkpt lat="47.34529" lon="-1.52535">
        <ele>60.730283</ele>
        <time>2022-12-16T12:58:36.932Z</time>
      </trkpt>
      <trkpt lat="47.3452" lon="-1.52541">
        <ele>60.739505</ele>
        <time>2022-12-16T12:58:38.929Z</time>
      </trkpt>
      <trkpt lat="47.34512" lon="-1.52546">
        <ele>60.74818</ele>
        <time>2022-12-16T12:58:40.922Z</time>
      </trkpt>
      <trkpt lat="47.34502" lon="-1.5256">
        <ele>60.761478</ele>
        <time>2022-12-16T12:58:43.928Z</time>
      </trkpt>
      <trkpt lat="47.34493" lon="-1.52574">
        <ele>60.79385</ele>
        <time>2022-12-16T12:58:46.937Z</time>
      </trkpt>
      <trkpt lat="47.34486" lon="-1.52586">
        <ele>60.822174</ele>
        <time>2022-12-16T12:58:49.946Z</time>
      </trkpt>
      <trkpt lat="47.34479" lon="-1.52599">
        <ele>60.850722</ele>
        <time>2022-12-16T12:58:52.939Z</time>
      </trkpt>
      <trkpt lat="47.34471" lon="-1.52613">
        <ele>60.881125</ele>
        <time>2022-12-16T12:58:55.920Z</time>
      </trkpt>
      <trkpt lat="47.34462" lon="-1.52626">
        <ele>60.912372</ele>
        <time>2022-12-16T12:58:58.926Z</time>
      </trkpt>
      <trkpt lat="47.34453" lon="-1.52638">
        <ele>60.943429</ele>
        <time>2022-12-16T12:59:01.933Z</time>
      </trkpt>
      <trkpt lat="47.34445" lon="-1.52652">
        <ele>60.974493</ele>
        <time>2022-12-16T12:59:04.936Z</time>
      </trkpt>
      <trkpt lat="47.34436" lon="-1.52666">
        <ele>61.007229</ele>
        <time>2022-12-16T12:59:07.934Z</time>
      </trkpt>
      <trkpt lat="47.34427" lon="-1.52679">
        <ele>61.038705</ele>
        <time>2022-12-16T12:59:10.926Z</time>
      </trkpt>
      <trkpt lat="47.34419" lon="-1.52692">
        <ele>61.070106</ele>
        <time>2022-12-16T12:59:13.933Z</time>
      </trkpt>
      <trkpt lat="47.3441" lon="-1.52706">
        <ele>61.102145</ele>
        <time>2022-12-16T12:59:16.938Z</time>
      </trkpt>
      <trkpt lat="47.34402" lon="-1.52719">
        <ele>61.132079</ele>
        <time>2022-12-16T12:59:19.939Z</time>
      </trkpt>
      <trkpt lat="47.34394" lon="-1.52731">
        <ele>61.161469</ele>
        <time>2022-12-16T12:59:22.945Z</time>
      </trkpt>
      <trkpt lat="47.34385" lon="-1.52745">
        <ele>61.193166</ele>
        <time>2022-12-16T12:59:25.932Z</time>
      </trkpt>
      <trkpt lat="47.34377" lon="-1.52757">
        <ele>61.240394</ele>
        <time>2022-12-16T12:59:28.937Z</time>
      </trkpt>
      <trkpt lat="47.34369" lon="-1.52766">
        <ele>61.307969</ele>
        <time>2022-12-16T12:59:31.923Z</time>
      </trkpt>
      <trkpt lat="47.34361" lon="-1.52779">
        <ele>61.393672</ele>
        <time>2022-12-16T12:59:35.929Z</time>
      </trkpt>
      <trkpt lat="47.34358" lon="-1.52793">
        <ele>61.464224</ele>
        <time>2022-12-16T12:59:40.928Z</time>
      </trkpt>
      <trkpt lat="47.34366" lon="-1.52803">
        <ele>61.541017</ele>
        <time>2022-12-16T12:59:44.933Z</time>
      </trkpt>
      <trkpt lat="47.34375" lon="-1.5281">
        <ele>61.610854</ele>
        <time>2022-12-16T12:59:47.921Z</time>
      </trkpt>
      <trkpt lat="47.34383" lon="-1.52816">
        <ele>61.678335</ele>
        <time>2022-12-16T12:59:50.925Z</time>
      </trkpt>
      <trkpt lat="47.34392" lon="-1.52823">
        <ele>61.749668</ele>
        <time>2022-12-16T12:59:53.935Z</time>
      </trkpt>
      <trkpt lat="47.344" lon="-1.52831">
        <ele>61.817957</ele>
        <time>2022-12-16T12:59:56.950Z</time>
      </trkpt>
      <trkpt lat="47.34407" lon="-1.5284">
        <ele>61.883497</ele>
        <time>2022-12-16T12:59:59.942Z</time>
      </trkpt>
      <trkpt lat="47.34405" lon="-1.52857">
        <ele>61.964766</ele>
        <time>2022-12-16T13:00:03.930Z</time>
      </trkpt>
      <trkpt lat="47.34398" lon="-1.52869">
        <ele>62.043988</ele>
        <time>2022-12-16T13:00:06.937Z</time>
      </trkpt>
      <trkpt lat="47.34388" lon="-1.52879">
        <ele>62.129276</ele>
        <time>2022-12-16T13:00:09.926Z</time>
      </trkpt>
      <trkpt lat="47.34378" lon="-1.52889">
        <ele>62.215245</ele>
        <time>2022-12-16T13:00:12.926Z</time>
      </trkpt>
      <trkpt lat="47.34368" lon="-1.52899">
        <ele>62.302579</ele>
        <time>2022-12-16T13:00:15.935Z</time>
      </trkpt>
      <trkpt lat="47.34357" lon="-1.5291">
        <ele>62.393143</ele>
        <time>2022-12-16T13:00:18.928Z</time>
      </trkpt>
      <trkpt lat="47.34346" lon="-1.52921">
        <ele>62.489968</ele>
        <time>2022-12-16T13:00:21.927Z</time>
      </trkpt>
      <trkpt lat="47.34339" lon="-1.5293">
        <ele>62.432734</ele>
        <time>2022-12-16T13:00:23.934Z</time>
      </trkpt>
      <trkpt lat="47.34328" lon="-1.5294">
        <ele>62.322037</ele>
        <time>2022-12-16T13:00:26.944Z</time>
      </trkpt>
      <trkpt lat="47.34318" lon="-1.5295">
        <ele>62.211667</ele>
        <time>2022-12-16T13:00:29.944Z</time>
      </trkpt>
      <trkpt lat="47.34307" lon="-1.5296">
        <ele>62.106857</ele>
        <time>2022-12-16T13:00:32.929Z</time>
      </trkpt>
      <trkpt lat="47.34297" lon="-1.52971">
        <ele>61.995439</ele>
        <time>2022-12-16T13:00:35.943Z</time>
      </trkpt>
      <trkpt lat="47.34286" lon="-1.52982">
        <ele>61.878914</ele>
        <time>2022-12-16T13:00:38.928Z</time>
      </trkpt>
      <trkpt lat="47.34278" lon="-1.5299">
        <ele>61.799311</ele>
        <time>2022-12-16T13:00:40.922Z</time>
      </trkpt>
      <trkpt lat="47.34268" lon="-1.53001">
        <ele>61.686907</ele>
        <time>2022-12-16T13:00:43.939Z</time>
      </trkpt>
      <trkpt lat="47.34257" lon="-1.53011">
        <ele>61.575488</ele>
        <time>2022-12-16T13:00:46.946Z</time>
      </trkpt>
      <trkpt lat="47.34247" lon="-1.53021">
        <ele>61.469631</ele>
        <time>2022-12-16T13:00:49.934Z</time>
      </trkpt>
      <trkpt lat="47.34237" lon="-1.53031">
        <ele>61.365606</ele>
        <time>2022-12-16T13:00:52.943Z</time>
      </trkpt>
      <trkpt lat="47.34228" lon="-1.53042">
        <ele>61.266925</ele>
        <time>2022-12-16T13:00:55.925Z</time>
      </trkpt>
      <trkpt lat="47.3422" lon="-1.53052">
        <ele>61.176559</ele>
        <time>2022-12-16T13:00:58.953Z</time>
      </trkpt>
      <trkpt lat="47.34211" lon="-1.53062">
        <ele>61.073912</ele>
        <time>2022-12-16T13:01:01.942Z</time>
      </trkpt>
      <trkpt lat="47.34202" lon="-1.53071">
        <ele>60.979692</ele>
        <time>2022-12-16T13:01:04.938Z</time>
      </trkpt>
      <trkpt lat="47.34193" lon="-1.5308">
        <ele>60.71857</ele>
        <time>2022-12-16T13:01:07.941Z</time>
      </trkpt>
      <trkpt lat="47.34184" lon="-1.53089">
        <ele>60.342303</ele>
        <time>2022-12-16T13:01:10.922Z</time>
      </trkpt>
      <trkpt lat="47.34174" lon="-1.53098">
        <ele>59.907537</ele>
        <time>2022-12-16T13:01:13.943Z</time>
      </trkpt>
      <trkpt lat="47.34162" lon="-1.53107">
        <ele>59.452221</ele>
        <time>2022-12-16T13:01:16.935Z</time>
      </trkpt>
      <trkpt lat="47.3415" lon="-1.53113">
        <ele>59.003916</ele>
        <time>2022-12-16T13:01:19.939Z</time>
      </trkpt>
      <trkpt lat="47.3414" lon="-1.53115">
        <ele>58.614914</ele>
        <time>2022-12-16T13:01:22.933Z</time>
      </trkpt>
      <trkpt lat="47.34126" lon="-1.53115">
        <ele>58.1479</ele>
        <time>2022-12-16T13:01:25.939Z</time>
      </trkpt>
      <trkpt lat="47.34114" lon="-1.53112">
        <ele>57.698526</ele>
        <time>2022-12-16T13:01:28.923Z</time>
      </trkpt>
      <trkpt lat="47.341" lon="-1.5311">
        <ele>57.207977</ele>
        <time>2022-12-16T13:01:31.938Z</time>
      </trkpt>
      <trkpt lat="47.34091" lon="-1.5311">
        <ele>56.88284</ele>
        <time>2022-12-16T13:01:33.954Z</time>
      </trkpt>
      <trkpt lat="47.34078" lon="-1.53108">
        <ele>56.410479</ele>
        <time>2022-12-16T13:01:36.938Z</time>
      </trkpt>
      <trkpt lat="47.34066" lon="-1.53106">
        <ele>55.983508</ele>
        <time>2022-12-16T13:01:39.941Z</time>
      </trkpt>
      <trkpt lat="47.34055" lon="-1.53105">
        <ele>55.579448</ele>
        <time>2022-12-16T13:01:42.936Z</time>
      </trkpt>
      <trkpt lat="47.34042" lon="-1.53104">
        <ele>55.140793</ele>
        <time>2022-12-16T13:01:45.939Z</time>
      </trkpt>
      <trkpt lat="47.3403" lon="-1.53105">
        <ele>54.712019</ele>
        <time>2022-12-16T13:01:48.936Z</time>
      </trkpt>
      <trkpt lat="47.34021" lon="-1.53105">
        <ele>54.580267</ele>
        <time>2022-12-16T13:01:51.938Z</time>
      </trkpt>
      <trkpt lat="47.34012" lon="-1.53108">
        <ele>54.691775</ele>
        <time>2022-12-16T13:01:54.930Z</time>
      </trkpt>
      <trkpt lat="47.34005" lon="-1.53118">
        <ele>54.802557</ele>
        <time>2022-12-16T13:01:57.920Z</time>
      </trkpt>
      <trkpt lat="47.34" lon="-1.53129">
        <ele>54.908737</ele>
        <time>2022-12-16T13:02:00.920Z</time>
      </trkpt>
      <trkpt lat="47.33995" lon="-1.53141">
        <ele>55.021454</ele>
        <time>2022-12-16T13:02:03.939Z</time>
      </trkpt>
      <trkpt lat="47.33989" lon="-1.53155">
        <ele>55.148022</ele>
        <time>2022-12-16T13:02:06.926Z</time>
      </trkpt>
      <trkpt lat="47.33983" lon="-1.53168">
        <ele>55.273787</ele>
        <time>2022-12-16T13:02:09.944Z</time>
      </trkpt>
      <trkpt lat="47.33976" lon="-1.5318">
        <ele>55.404873</ele>
        <time>2022-12-16T13:02:12.929Z</time>
      </trkpt>
      <trkpt lat="47.33968" lon="-1.53191">
        <ele>55.535806</ele>
        <time>2022-12-16T13:02:15.941Z</time>
      </trkpt>
      <trkpt lat="47.33959" lon="-1.53201">
        <ele>55.662476</ele>
        <time>2022-12-16T13:02:18.943Z</time>
      </trkpt>
      <trkpt lat="47.33951" lon="-1.53212">
        <ele>55.792069</ele>
        <time>2022-12-16T13:02:21.940Z</time>
      </trkpt>
      <trkpt lat="47.33943" lon="-1.53223">
        <ele>55.919004</ele>
        <time>2022-12-16T13:02:24.922Z</time>
      </trkpt>
      <trkpt lat="47.33935" lon="-1.53233">
        <ele>56.047695</ele>
        <time>2022-12-16T13:02:27.948Z</time>
      </trkpt>
      <trkpt lat="47.33926" lon="-1.53242">
        <ele>56.171887</ele>
        <time>2022-12-16T13:02:30.923Z</time>
      </trkpt>
      <trkpt lat="47.33917" lon="-1.53253">
        <ele>56.303797</ele>
        <time>2022-12-16T13:02:33.940Z</time>
      </trkpt>
      <trkpt lat="47.33909" lon="-1.53263">
        <ele>56.438031</ele>
        <time>2022-12-16T13:02:36.948Z</time>
      </trkpt>
      <trkpt lat="47.33899" lon="-1.53275">
        <ele>56.580574</ele>
        <time>2022-12-16T13:02:39.944Z</time>
      </trkpt>
      <trkpt lat="47.3389" lon="-1.53287">
        <ele>56.621128</ele>
        <time>2022-12-16T13:02:42.934Z</time>
      </trkpt>
      <trkpt lat="47.3388" lon="-1.533">
        <ele>56.587624</ele>
        <time>2022-12-16T13:02:45.937Z</time>
      </trkpt>
      <trkpt lat="47.3387" lon="-1.53313">
        <ele>56.552898</ele>
        <time>2022-12-16T13:02:48.947Z</time>
      </trkpt>
      <trkpt lat="47.33861" lon="-1.53326">
        <ele>56.518681</ele>
        <time>2022-12-16T13:02:51.943Z</time>
      </trkpt>
      <trkpt lat="47.33851" lon="-1.53339">
        <ele>56.483916</ele>
        <time>2022-12-16T13:02:54.934Z</time>
      </trkpt>
      <trkpt lat="47.33841" lon="-1.5335">
        <ele>56.449989</ele>
        <time>2022-12-16T13:02:57.946Z</time>
      </trkpt>
      <trkpt lat="47.3383" lon="-1.53362">
        <ele>56.416389</ele>
        <time>2022-12-16T13:03:00.927Z</time>
      </trkpt>
      <trkpt lat="47.33823" lon="-1.5337">
        <ele>56.392403</ele>
        <time>2022-12-16T13:03:02.943Z</time>
      </trkpt>
      <trkpt lat="47.33812" lon="-1.5338">
        <ele>56.357968</ele>
        <time>2022-12-16T13:03:05.937Z</time>
      </trkpt>
      <trkpt lat="47.33801" lon="-1.5339">
        <ele>56.32537</ele>
        <time>2022-12-16T13:03:08.939Z</time>
      </trkpt>
      <trkpt lat="47.33791" lon="-1.53399">
        <ele>56.293617</ele>
        <time>2022-12-16T13:03:11.945Z</time>
      </trkpt>
      <trkpt lat="47.33779" lon="-1.53409">
        <ele>56.258515</ele>
        <time>2022-12-16T13:03:14.926Z</time>
      </trkpt>
      <trkpt lat="47.33771" lon="-1.53416">
        <ele>56.233496</ele>
        <time>2022-12-16T13:03:16.942Z</time>
      </trkpt>
      <trkpt lat="47.33762" lon="-1.53424">
        <ele>56.205032</ele>
        <time>2022-12-16T13:03:18.944Z</time>
      </trkpt>
      <trkpt lat="47.33752" lon="-1.53431">
        <ele>56.177053</ele>
        <time>2022-12-16T13:03:20.920Z</time>
      </trkpt>
      <trkpt lat="47.33742" lon="-1.5344">
        <ele>56.172051</ele>
        <time>2022-12-16T13:03:22.947Z</time>
      </trkpt>
      <trkpt lat="47.33731" lon="-1.5345">
        <ele>56.177261</ele>
        <time>2022-12-16T13:03:24.927Z</time>
      </trkpt>
      <trkpt lat="47.33719" lon="-1.53459">
        <ele>56.182789</ele>
        <time>2022-12-16T13:03:26.946Z</time>
      </trkpt>
      <trkpt lat="47.33707" lon="-1.53468">
        <ele>56.188341</ele>
        <time>2022-12-16T13:03:28.931Z</time>
      </trkpt>
      <trkpt lat="47.33694" lon="-1.53475">
        <ele>56.193866</ele>
        <time>2022-12-16T13:03:30.922Z</time>
      </trkpt>
      <trkpt lat="47.33682" lon="-1.53481">
        <ele>56.198957</ele>
        <time>2022-12-16T13:03:32.931Z</time>
      </trkpt>
      <trkpt lat="47.33671" lon="-1.53485">
        <ele>56.203483</ele>
        <time>2022-12-16T13:03:34.922Z</time>
      </trkpt>
      <trkpt lat="47.33661" lon="-1.53488">
        <ele>56.207706</ele>
        <time>2022-12-16T13:03:36.946Z</time>
      </trkpt>
      <trkpt lat="47.3365" lon="-1.5349">
        <ele>56.21233</ele>
        <time>2022-12-16T13:03:39.934Z</time>
      </trkpt>
      <trkpt lat="47.33638" lon="-1.53492">
        <ele>56.217087</ele>
        <time>2022-12-16T13:03:42.945Z</time>
      </trkpt>
      <trkpt lat="47.33627" lon="-1.53492">
        <ele>56.221851</ele>
        <time>2022-12-16T13:03:45.923Z</time>
      </trkpt>
      <trkpt lat="47.33615" lon="-1.53492">
        <ele>56.226451</ele>
        <time>2022-12-16T13:03:48.943Z</time>
      </trkpt>
      <trkpt lat="47.33604" lon="-1.53492">
        <ele>56.231093</ele>
        <time>2022-12-16T13:03:51.940Z</time>
      </trkpt>
      <trkpt lat="47.33592" lon="-1.53492">
        <ele>56.235897</ele>
        <time>2022-12-16T13:03:54.944Z</time>
      </trkpt>
      <trkpt lat="47.33581" lon="-1.53492">
        <ele>56.240578</ele>
        <time>2022-12-16T13:03:57.942Z</time>
      </trkpt>
      <trkpt lat="47.33571" lon="-1.53492">
        <ele>56.510507</ele>
        <time>2022-12-16T13:04:00.924Z</time>
      </trkpt>
      <trkpt lat="47.33562" lon="-1.53492">
        <ele>56.87486</ele>
        <time>2022-12-16T13:04:03.945Z</time>
      </trkpt>
      <trkpt lat="47.3355" lon="-1.53492">
        <ele>57.352575</ele>
        <time>2022-12-16T13:04:07.938Z</time>
      </trkpt>
      <trkpt lat="47.33538" lon="-1.53492">
        <ele>57.842436</ele>
        <time>2022-12-16T13:04:11.940Z</time>
      </trkpt>
      <trkpt lat="47.33529" lon="-1.53492">
        <ele>58.231089</ele>
        <time>2022-12-16T13:04:14.941Z</time>
      </trkpt>
      <trkpt lat="47.33518" lon="-1.53492">
        <ele>58.684713</ele>
        <time>2022-12-16T13:04:18.939Z</time>
      </trkpt>
      <trkpt lat="47.33508" lon="-1.53491">
        <ele>59.0701</ele>
        <time>2022-12-16T13:04:22.931Z</time>
      </trkpt>
      <trkpt lat="47.33499" lon="-1.53484">
        <ele>59.497606</ele>
        <time>2022-12-16T13:04:27.923Z</time>
      </trkpt>
      <trkpt lat="47.33489" lon="-1.53482">
        <ele>59.880301</ele>
        <time>2022-12-16T13:04:34.925Z</time>
      </trkpt>
      <trkpt lat="47.33479" lon="-1.53484">
        <ele>60.291375</ele>
        <time>2022-12-16T13:04:39.925Z</time>
      </trkpt>
      <trkpt lat="47.33469" lon="-1.53486">
        <ele>60.726249</ele>
        <time>2022-12-16T13:04:45.927Z</time>
      </trkpt>
      <trkpt lat="47.33458" lon="-1.53487">
        <ele>61.14246</ele>
        <time>2022-12-16T13:04:50.922Z</time>
      </trkpt>
      <trkpt lat="47.33448" lon="-1.53489">
        <ele>61.55064</ele>
        <time>2022-12-16T13:04:55.925Z</time>
      </trkpt>
      <trkpt lat="47.33438" lon="-1.5349">
        <ele>61.964674</ele>
        <time>2022-12-16T13:05:00.924Z</time>
      </trkpt>
      <trkpt lat="47.33428" lon="-1.53493">
        <ele>62.369583</ele>
        <time>2022-12-16T13:05:05.936Z</time>
      </trkpt>
      <trkpt lat="47.33419" lon="-1.53495">
        <ele>62.769719</ele>
        <time>2022-12-16T13:05:10.922Z</time>
      </trkpt>
      <trkpt lat="47.33408" lon="-1.53497">
        <ele>63.20234</ele>
        <time>2022-12-16T13:05:15.928Z</time>
      </trkpt>
      <trkpt lat="47.33399" lon="-1.53499">
        <ele>63.527145</ele>
        <time>2022-12-16T13:05:19.923Z</time>
      </trkpt>
      <trkpt lat="47.33389" lon="-1.535">
        <ele>63.554909</ele>
        <time>2022-12-16T13:05:23.926Z</time>
      </trkpt>
      <trkpt lat="47.33369" lon="-1.53506">
        <ele>63.615818</ele>
        <time>2022-12-16T13:05:52.931Z</time>
      </trkpt>
      <trkpt lat="47.33358" lon="-1.53511">
        <ele>63.648994</ele>
        <time>2022-12-16T13:05:56.945Z</time>
      </trkpt>
      <trkpt lat="47.33349" lon="-1.53515">
        <ele>63.677367</ele>
        <time>2022-12-16T13:05:59.930Z</time>
      </trkpt>
      <trkpt lat="47.33339" lon="-1.53519">
        <ele>63.707637</ele>
        <time>2022-12-16T13:06:02.928Z</time>
      </trkpt>
      <trkpt lat="47.33329" lon="-1.53523">
        <ele>63.738407</ele>
        <time>2022-12-16T13:06:05.942Z</time>
      </trkpt>
      <trkpt lat="47.33318" lon="-1.53528">
        <ele>63.770699</ele>
        <time>2022-12-16T13:06:08.938Z</time>
      </trkpt>
      <trkpt lat="47.33307" lon="-1.53531">
        <ele>63.802379</ele>
        <time>2022-12-16T13:06:11.944Z</time>
      </trkpt>
      <trkpt lat="47.33296" lon="-1.53535">
        <ele>63.834715</ele>
        <time>2022-12-16T13:06:14.943Z</time>
      </trkpt>
      <trkpt lat="47.33287" lon="-1.53539">
        <ele>63.86443</ele>
        <time>2022-12-16T13:06:17.937Z</time>
      </trkpt>
      <trkpt lat="47.33278" lon="-1.53543">
        <ele>63.891397</ele>
        <time>2022-12-16T13:06:20.929Z</time>
      </trkpt>
      <trkpt lat="47.33268" lon="-1.53546">
        <ele>63.919861</ele>
        <time>2022-12-16T13:06:24.946Z</time>
      </trkpt>
      <trkpt lat="47.33259" lon="-1.53548">
        <ele>63.946816</ele>
        <time>2022-12-16T13:06:29.925Z</time>
      </trkpt>
      <trkpt lat="47.33254" lon="-1.53533">
        <ele>63.980086</ele>
        <time>2022-12-16T13:06:33.930Z</time>
      </trkpt>
      <trkpt lat="47.33252" lon="-1.53517">
        <ele>64.011582</ele>
        <time>2022-12-16T13:06:37.945Z</time>
      </trkpt>
      <trkpt lat="47.33244" lon="-1.53506">
        <ele>64.042493</ele>
        <time>2022-12-16T13:06:41.943Z</time>
      </trkpt>
      <trkpt lat="47.33233" lon="-1.535">
        <ele>63.440305</ele>
        <time>2022-12-16T13:06:45.922Z</time>
      </trkpt>
      <trkpt lat="47.33225" lon="-1.53497">
        <ele>62.884386</ele>
        <time>2022-12-16T13:06:48.938Z</time>
      </trkpt>
      <trkpt lat="47.33215" lon="-1.53492">
        <ele>62.259148</ele>
        <time>2022-12-16T13:06:51.941Z</time>
      </trkpt>
      <trkpt lat="47.33204" lon="-1.53486">
        <ele>61.581149</ele>
        <time>2022-12-16T13:06:54.942Z</time>
      </trkpt>
      <trkpt lat="47.33195" lon="-1.53483">
        <ele>60.966851</ele>
        <time>2022-12-16T13:06:57.931Z</time>
      </trkpt>
      <trkpt lat="47.33183" lon="-1.53478">
        <ele>60.228063</ele>
        <time>2022-12-16T13:07:01.942Z</time>
      </trkpt>
      <trkpt lat="47.33173" lon="-1.53475">
        <ele>59.624037</ele>
        <time>2022-12-16T13:07:04.944Z</time>
      </trkpt>
      <trkpt lat="47.33165" lon="-1.53472">
        <ele>59.075574</ele>
        <time>2022-12-16T13:07:07.939Z</time>
      </trkpt>
      <trkpt lat="47.33155" lon="-1.5347">
        <ele>58.488528</ele>
        <time>2022-12-16T13:07:10.934Z</time>
      </trkpt>
      <trkpt lat="47.33144" lon="-1.53467">
        <ele>57.810144</ele>
        <time>2022-12-16T13:07:14.927Z</time>
      </trkpt>
      <trkpt lat="47.33135" lon="-1.53464">
        <ele>57.228376</ele>
        <time>2022-12-16T13:07:18.946Z</time>
      </trkpt>
      <trkpt lat="47.33123" lon="-1.53463">
        <ele>56.500186</ele>
        <time>2022-12-16T13:07:22.939Z</time>
      </trkpt>
      <trkpt lat="47.33112" lon="-1.53463">
        <ele>55.81568</ele>
        <time>2022-12-16T13:07:26.928Z</time>
      </trkpt>
      <trkpt lat="47.33101" lon="-1.53466">
        <ele>55.159</ele>
        <time>2022-12-16T13:07:30.926Z</time>
      </trkpt>
      <trkpt lat="47.33091" lon="-1.53468">
        <ele>54.530176</ele>
        <time>2022-12-16T13:07:33.933Z</time>
      </trkpt>
      <trkpt lat="47.33081" lon="-1.5347">
        <ele>53.926128</ele>
        <time>2022-12-16T13:07:36.941Z</time>
      </trkpt>
      <trkpt lat="47.33071" lon="-1.53474">
        <ele>53.283712</ele>
        <time>2022-12-16T13:07:40.922Z</time>
      </trkpt>
      <trkpt lat="47.33061" lon="-1.53477">
        <ele>53.143795</ele>
        <time>2022-12-16T13:07:43.943Z</time>
      </trkpt>
      <trkpt lat="47.33051" lon="-1.53479">
        <ele>53.276759</ele>
        <time>2022-12-16T13:07:46.926Z</time>
      </trkpt>
      <trkpt lat="47.33042" lon="-1.53482">
        <ele>53.399147</ele>
        <time>2022-12-16T13:07:49.927Z</time>
      </trkpt>
      <trkpt lat="47.33032" lon="-1.53484">
        <ele>53.531205</ele>
        <time>2022-12-16T13:07:52.922Z</time>
      </trkpt>
      <trkpt lat="47.33023" lon="-1.53487">
        <ele>53.66661</ele>
        <time>2022-12-16T13:07:56.944Z</time>
      </trkpt>
      <trkpt lat="47.33013" lon="-1.53493">
        <ele>53.804321</ele>
        <time>2022-12-16T13:08:00.967Z</time>
      </trkpt>
      <trkpt lat="47.33004" lon="-1.53501">
        <ele>53.944236</ele>
        <time>2022-12-16T13:08:03.930Z</time>
      </trkpt>
      <trkpt lat="47.32995" lon="-1.53509">
        <ele>54.083947</ele>
        <time>2022-12-16T13:08:06.941Z</time>
      </trkpt>
      <trkpt lat="47.32987" lon="-1.53515">
        <ele>54.207466</ele>
        <time>2022-12-16T13:08:09.926Z</time>
      </trkpt>
      <trkpt lat="47.32978" lon="-1.53521">
        <ele>54.34457</ele>
        <time>2022-12-16T13:08:13.940Z</time>
      </trkpt>
      <trkpt lat="47.32968" lon="-1.53525">
        <ele>54.47326</ele>
        <time>2022-12-16T13:08:17.939Z</time>
      </trkpt>
      <trkpt lat="47.32959" lon="-1.53528">
        <ele>54.601382</ele>
        <time>2022-12-16T13:08:22.931Z</time>
      </trkpt>
      <trkpt lat="47.32949" lon="-1.53532">
        <ele>54.744154</ele>
        <time>2022-12-16T13:08:28.924Z</time>
      </trkpt>
      <trkpt lat="47.3294" lon="-1.53537">
        <ele>54.869851</ele>
        <time>2022-12-16T13:08:33.933Z</time>
      </trkpt>
      <trkpt lat="47.32931" lon="-1.53541">
        <ele>54.994972</ele>
        <time>2022-12-16T13:08:38.931Z</time>
      </trkpt>
      <trkpt lat="47.32922" lon="-1.53546">
        <ele>55.126909</ele>
        <time>2022-12-16T13:08:43.937Z</time>
      </trkpt>
      <trkpt lat="47.32912" lon="-1.5355">
        <ele>55.25689</ele>
        <time>2022-12-16T13:08:49.923Z</time>
      </trkpt>
      <trkpt lat="47.32902" lon="-1.53555">
        <ele>55.400492</ele>
        <time>2022-12-16T13:08:54.931Z</time>
      </trkpt>
      <trkpt lat="47.32894" lon="-1.53559">
        <ele>55.577795</ele>
        <time>2022-12-16T13:09:00.929Z</time>
      </trkpt>
      <trkpt lat="47.32884" lon="-1.53566">
        <ele>55.838218</ele>
        <time>2022-12-16T13:09:06.936Z</time>
      </trkpt>
      <trkpt lat="47.32876" lon="-1.53573">
        <ele>56.084911</ele>
        <time>2022-12-16T13:09:11.928Z</time>
      </trkpt>
      <trkpt lat="47.32867" lon="-1.53579">
        <ele>56.322427</ele>
        <time>2022-12-16T13:09:16.945Z</time>
      </trkpt>
      <trkpt lat="47.32859" lon="-1.53586">
        <ele>56.559886</ele>
        <time>2022-12-16T13:09:21.928Z</time>
      </trkpt>
      <trkpt lat="47.3285" lon="-1.53594">
        <ele>56.829035</ele>
        <time>2022-12-16T13:09:26.926Z</time>
      </trkpt>
      <trkpt lat="47.32842" lon="-1.53601">
        <ele>57.080602</ele>
        <time>2022-12-16T13:09:31.953Z</time>
      </trkpt>
      <trkpt lat="47.32832" lon="-1.53609">
        <ele>57.358746</ele>
        <time>2022-12-16T13:09:36.923Z</time>
      </trkpt>
      <trkpt lat="47.32826" lon="-1.5362">
        <ele>57.60498</ele>
        <time>2022-12-16T13:09:41.924Z</time>
      </trkpt>
      <trkpt lat="47.3283" lon="-1.53634">
        <ele>57.864743</ele>
        <time>2022-12-16T13:09:47.953Z</time>
      </trkpt>
      <trkpt lat="47.32837" lon="-1.53644">
        <ele>58.125881</ele>
        <time>2022-12-16T13:09:53.931Z</time>
      </trkpt>
      <trkpt lat="47.32844" lon="-1.53656">
        <ele>58.403204</ele>
        <time>2022-12-16T13:09:58.932Z</time>
      </trkpt>
      <trkpt lat="47.32851" lon="-1.53668">
        <ele>58.665614</ele>
        <time>2022-12-16T13:10:03.925Z</time>
      </trkpt>
      <trkpt lat="47.32843" lon="-1.53675">
        <ele>58.904403</ele>
        <time>2022-12-16T13:10:09.931Z</time>
      </trkpt>
      <trkpt lat="47.32832" lon="-1.53677">
        <ele>59.17976</ele>
        <time>2022-12-16T13:10:14.930Z</time>
      </trkpt>
      <trkpt lat="47.32821" lon="-1.53679">
        <ele>59.46949</ele>
        <time>2022-12-16T13:10:18.926Z</time>
      </trkpt>
      <trkpt lat="47.32809" lon="-1.53681">
        <ele>59.767656</ele>
        <time>2022-12-16T13:10:22.931Z</time>
      </trkpt>
      <trkpt lat="47.32798" lon="-1.53684">
        <ele>60.085649</ele>
        <time>2022-12-16T13:10:26.931Z</time>
      </trkpt>
      <trkpt lat="47.32789" lon="-1.53685">
        <ele>60.43245</ele>
        <time>2022-12-16T13:10:29.942Z</time>
      </trkpt>
      <trkpt lat="47.32777" lon="-1.53687">
        <ele>60.89148</ele>
        <time>2022-12-16T13:10:33.948Z</time>
      </trkpt>
      <trkpt lat="47.32765" lon="-1.53689">
        <ele>61.346697</ele>
        <time>2022-12-16T13:10:37.948Z</time>
      </trkpt>
      <trkpt lat="47.32753" lon="-1.53691">
        <ele>61.789904</ele>
        <time>2022-12-16T13:10:41.935Z</time>
      </trkpt>
      <trkpt lat="47.32743" lon="-1.53696">
        <ele>62.223284</ele>
        <time>2022-12-16T13:10:45.947Z</time>
      </trkpt>
      <trkpt lat="47.32732" lon="-1.53699">
        <ele>62.624895</ele>
        <time>2022-12-16T13:10:49.945Z</time>
      </trkpt>
      <trkpt lat="47.32723" lon="-1.537">
        <ele>62.997217</ele>
        <time>2022-12-16T13:10:53.931Z</time>
      </trkpt>
      <trkpt lat="47.32713" lon="-1.53702">
        <ele>63.355972</ele>
        <time>2022-12-16T13:10:57.929Z</time>
      </trkpt>
      <trkpt lat="47.32703" lon="-1.53701">
        <ele>63.740537</ele>
        <time>2022-12-16T13:11:01.928Z</time>
      </trkpt>
      <trkpt lat="47.32693" lon="-1.53701">
        <ele>64.124257</ele>
        <time>2022-12-16T13:11:05.950Z</time>
      </trkpt>
      <trkpt lat="47.32684" lon="-1.537">
        <ele>64.473717</ele>
        <time>2022-12-16T13:11:09.952Z</time>
      </trkpt>
      <trkpt lat="47.32675" lon="-1.53698">
        <ele>64.834141</ele>
        <time>2022-12-16T13:11:13.945Z</time>
      </trkpt>
      <trkpt lat="47.32665" lon="-1.53698">
        <ele>65.206173</ele>
        <time>2022-12-16T13:11:18.929Z</time>
      </trkpt>
      <trkpt lat="47.32655" lon="-1.53698">
        <ele>65.605021</ele>
        <time>2022-12-16T13:11:23.931Z</time>
      </trkpt>
      <trkpt lat="47.32646" lon="-1.53696">
        <ele>65.954877</ele>
        <time>2022-12-16T13:11:27.923Z</time>
      </trkpt>
      <trkpt lat="47.32637" lon="-1.53696">
        <ele>66.303901</ele>
        <time>2022-12-16T13:11:31.934Z</time>
      </trkpt>
      <trkpt lat="47.32627" lon="-1.53693">
        <ele>66.678189</ele>
        <time>2022-12-16T13:11:35.930Z</time>
      </trkpt>
      <trkpt lat="47.32616" lon="-1.53689">
        <ele>66.97278</ele>
        <time>2022-12-16T13:11:39.940Z</time>
      </trkpt>
      <trkpt lat="47.32607" lon="-1.53685">
        <ele>67.023987</ele>
        <time>2022-12-16T13:11:42.926Z</time>
      </trkpt>
      <trkpt lat="47.32597" lon="-1.53682">
        <ele>67.079784</ele>
        <time>2022-12-16T13:11:45.949Z</time>
      </trkpt>
      <trkpt lat="47.32586" lon="-1.53678">
        <ele>67.139947</ele>
        <time>2022-12-16T13:11:48.952Z</time>
      </trkpt>
      <trkpt lat="47.32575" lon="-1.53672">
        <ele>67.20319</ele>
        <time>2022-12-16T13:11:51.943Z</time>
      </trkpt>
      <trkpt lat="47.32565" lon="-1.53668">
        <ele>67.262859</ele>
        <time>2022-12-16T13:11:54.924Z</time>
      </trkpt>
      <trkpt lat="47.32555" lon="-1.53663">
        <ele>67.320081</ele>
        <time>2022-12-16T13:11:57.926Z</time>
      </trkpt>
      <trkpt lat="47.32544" lon="-1.53658">
        <ele>67.38317</ele>
        <time>2022-12-16T13:12:00.922Z</time>
      </trkpt>
      <trkpt lat="47.32532" lon="-1.53652">
        <ele>67.450034</ele>
        <time>2022-12-16T13:12:03.943Z</time>
      </trkpt>
      <trkpt lat="47.32521" lon="-1.53646">
        <ele>67.51747</ele>
        <time>2022-12-16T13:12:06.947Z</time>
      </trkpt>
      <trkpt lat="47.32509" lon="-1.5364">
        <ele>67.582378</ele>
        <time>2022-12-16T13:12:09.943Z</time>
      </trkpt>
      <trkpt lat="47.32497" lon="-1.53636">
        <ele>67.648743</ele>
        <time>2022-12-16T13:12:12.927Z</time>
      </trkpt>
      <trkpt lat="47.32486" lon="-1.53631">
        <ele>67.714866</ele>
        <time>2022-12-16T13:12:15.944Z</time>
      </trkpt>
      <trkpt lat="47.32474" lon="-1.53624">
        <ele>67.782565</ele>
        <time>2022-12-16T13:12:18.942Z</time>
      </trkpt>
      <trkpt lat="47.32462" lon="-1.53618">
        <ele>67.851617</ele>
        <time>2022-12-16T13:12:21.939Z</time>
      </trkpt>
      <trkpt lat="47.3245" lon="-1.53612">
        <ele>67.923193</ele>
        <time>2022-12-16T13:12:24.940Z</time>
      </trkpt>
      <trkpt lat="47.32441" lon="-1.53609">
        <ele>67.481896</ele>
        <time>2022-12-16T13:12:26.950Z</time>
      </trkpt>
      <trkpt lat="47.32431" lon="-1.53604">
        <ele>66.948781</ele>
        <time>2022-12-16T13:12:28.947Z</time>
      </trkpt>
      <trkpt lat="47.32421" lon="-1.53599">
        <ele>66.366575</ele>
        <time>2022-12-16T13:12:30.926Z</time>
      </trkpt>
      <trkpt lat="47.32412" lon="-1.53594">
        <ele>65.814989</ele>
        <time>2022-12-16T13:12:32.944Z</time>
      </trkpt>
      <trkpt lat="47.32402" lon="-1.53589">
        <ele>65.27099</ele>
        <time>2022-12-16T13:12:34.941Z</time>
      </trkpt>
      <trkpt lat="47.32393" lon="-1.53583">
        <ele>64.714267</ele>
        <time>2022-12-16T13:12:36.940Z</time>
      </trkpt>
      <trkpt lat="47.32383" lon="-1.53579">
        <ele>64.190304</ele>
        <time>2022-12-16T13:12:38.948Z</time>
      </trkpt>
      <trkpt lat="47.32374" lon="-1.53575">
        <ele>63.671816</ele>
        <time>2022-12-16T13:12:40.925Z</time>
      </trkpt>
      <trkpt lat="47.32365" lon="-1.5357">
        <ele>63.16952</ele>
        <time>2022-12-16T13:12:42.943Z</time>
      </trkpt>
      <trkpt lat="47.32356" lon="-1.53566">
        <ele>62.632335</ele>
        <time>2022-12-16T13:12:44.952Z</time>
      </trkpt>
      <trkpt lat="47.32347" lon="-1.53562">
        <ele>62.128301</ele>
        <time>2022-12-16T13:12:46.941Z</time>
      </trkpt>
      <trkpt lat="47.32336" lon="-1.53557">
        <ele>61.516394</ele>
        <time>2022-12-16T13:12:49.945Z</time>
      </trkpt>
      <trkpt lat="47.32326" lon="-1.5355">
        <ele>60.917195</ele>
        <time>2022-12-16T13:12:52.962Z</time>
      </trkpt>
      <trkpt lat="47.32315" lon="-1.53544">
        <ele>60.275999</ele>
        <time>2022-12-16T13:12:55.928Z</time>
      </trkpt>
      <trkpt lat="47.32306" lon="-1.53539">
        <ele>59.756115</ele>
        <time>2022-12-16T13:12:57.946Z</time>
      </trkpt>
      <trkpt lat="47.32294" lon="-1.53531">
        <ele>59.069387</ele>
        <time>2022-12-16T13:13:00.925Z</time>
      </trkpt>
      <trkpt lat="47.32286" lon="-1.53527">
        <ele>58.570511</ele>
        <time>2022-12-16T13:13:02.926Z</time>
      </trkpt>
      <trkpt lat="47.32275" lon="-1.53521">
        <ele>58.142527</ele>
        <time>2022-12-16T13:13:04.933Z</time>
      </trkpt>
      <trkpt lat="47.32267" lon="-1.53516">
        <ele>58.013842</ele>
        <time>2022-12-16T13:13:06.923Z</time>
      </trkpt>
      <trkpt lat="47.32258" lon="-1.5351">
        <ele>57.870785</ele>
        <time>2022-12-16T13:13:09.942Z</time>
      </trkpt>
      <trkpt lat="47.32248" lon="-1.53517">
        <ele>57.713133</ele>
        <time>2022-12-16T13:13:14.933Z</time>
      </trkpt>
      <trkpt lat="47.32247" lon="-1.53533">
        <ele>57.56522</ele>
        <time>2022-12-16T13:13:18.931Z</time>
      </trkpt>
      <trkpt lat="47.32248" lon="-1.53546">
        <ele>57.431059</ele>
        <time>2022-12-16T13:13:20.921Z</time>
      </trkpt>
      <trkpt lat="47.32246" lon="-1.53566">
        <ele>57.238312</ele>
        <time>2022-12-16T13:13:23.925Z</time>
      </trkpt>
      <trkpt lat="47.3224" lon="-1.53577">
        <ele>57.102435</ele>
        <time>2022-12-16T13:13:26.930Z</time>
      </trkpt>
      <trkpt lat="47.32231" lon="-1.53583">
        <ele>56.959378</ele>
        <time>2022-12-16T13:13:31.925Z</time>
      </trkpt>
      <trkpt lat="47.3222" lon="-1.53585">
        <ele>56.807221</ele>
        <time>2022-12-16T13:13:35.947Z</time>
      </trkpt>
      <trkpt lat="47.3221" lon="-1.53584">
        <ele>56.661155</ele>
        <time>2022-12-16T13:13:38.941Z</time>
      </trkpt>
      <trkpt lat="47.32199" lon="-1.53583">
        <ele>56.506434</ele>
        <time>2022-12-16T13:13:41.941Z</time>
      </trkpt>
      <trkpt lat="47.32188" lon="-1.53584">
        <ele>56.337448</ele>
        <time>2022-12-16T13:13:44.933Z</time>
      </trkpt>
      <trkpt lat="47.32174" lon="-1.53585">
        <ele>56.148324</ele>
        <time>2022-12-16T13:13:47.946Z</time>
      </trkpt>
      <trkpt lat="47.32165" lon="-1.53586">
        <ele>56.019218</ele>
        <time>2022-12-16T13:13:49.942Z</time>
      </trkpt>
      <trkpt lat="47.32152" lon="-1.53585">
        <ele>55.825846</ele>
        <time>2022-12-16T13:13:52.923Z</time>
      </trkpt>
      <trkpt lat="47.32142" lon="-1.53585">
        <ele>55.67978</ele>
        <time>2022-12-16T13:13:54.937Z</time>
      </trkpt>
      <trkpt lat="47.32132" lon="-1.53587">
        <ele>55.598967</ele>
        <time>2022-12-16T13:13:56.931Z</time>
      </trkpt>
      <trkpt lat="47.32121" lon="-1.53589">
        <ele>55.548686</ele>
        <time>2022-12-16T13:13:58.944Z</time>
      </trkpt>
      <trkpt lat="47.32111" lon="-1.53592">
        <ele>55.496621</ele>
        <time>2022-12-16T13:14:00.923Z</time>
      </trkpt>
      <trkpt lat="47.321" lon="-1.53597">
        <ele>55.443262</ele>
        <time>2022-12-16T13:14:02.931Z</time>
      </trkpt>
      <trkpt lat="47.32091" lon="-1.53604">
        <ele>55.3933</ele>
        <time>2022-12-16T13:14:04.931Z</time>
      </trkpt>
      <trkpt lat="47.32081" lon="-1.53612">
        <ele>55.341525</ele>
        <time>2022-12-16T13:14:06.922Z</time>
      </trkpt>
      <trkpt lat="47.32072" lon="-1.53622">
        <ele>55.287358</ele>
        <time>2022-12-16T13:14:08.925Z</time>
      </trkpt>
      <trkpt lat="47.32066" lon="-1.53635">
        <ele>55.236018</ele>
        <time>2022-12-16T13:14:10.926Z</time>
      </trkpt>
      <trkpt lat="47.32063" lon="-1.53649">
        <ele>55.18762</ele>
        <time>2022-12-16T13:14:12.930Z</time>
      </trkpt>
      <trkpt lat="47.32062" lon="-1.53664">
        <ele>55.139461</ele>
        <time>2022-12-16T13:14:14.930Z</time>
      </trkpt>
      <trkpt lat="47.32059" lon="-1.53679">
        <ele>55.089671</ele>
        <time>2022-12-16T13:14:16.946Z</time>
      </trkpt>
      <trkpt lat="47.32053" lon="-1.53693">
        <ele>55.034857</ele>
        <time>2022-12-16T13:14:18.932Z</time>
      </trkpt>
      <trkpt lat="47.32045" lon="-1.53707">
        <ele>54.977488</ele>
        <time>2022-12-16T13:14:20.921Z</time>
      </trkpt>
      <trkpt lat="47.32035" lon="-1.53717">
        <ele>54.917539</ele>
        <time>2022-12-16T13:14:22.928Z</time>
      </trkpt>
      <trkpt lat="47.32024" lon="-1.53725">
        <ele>54.858128</ele>
        <time>2022-12-16T13:14:24.931Z</time>
      </trkpt>
      <trkpt lat="47.32013" lon="-1.53732">
        <ele>54.801672</ele>
        <time>2022-12-16T13:14:26.929Z</time>
      </trkpt>
      <trkpt lat="47.32004" lon="-1.53739">
        <ele>54.742023</ele>
        <time>2022-12-16T13:14:28.921Z</time>
      </trkpt>
      <trkpt lat="47.31996" lon="-1.53749">
        <ele>54.659319</ele>
        <time>2022-12-16T13:14:30.921Z</time>
      </trkpt>
      <trkpt lat="47.31989" lon="-1.53761">
        <ele>54.574302</ele>
        <time>2022-12-16T13:14:32.924Z</time>
      </trkpt>
      <trkpt lat="47.3198" lon="-1.53771">
        <ele>54.483025</ele>
        <time>2022-12-16T13:14:34.951Z</time>
      </trkpt>
      <trkpt lat="47.31971" lon="-1.53779">
        <ele>54.400948</ele>
        <time>2022-12-16T13:14:36.925Z</time>
      </trkpt>
      <trkpt lat="47.31965" lon="-1.53788">
        <ele>54.327985</ele>
        <time>2022-12-16T13:14:38.946Z</time>
      </trkpt>
      <trkpt lat="47.31959" lon="-1.538">
        <ele>54.250901</ele>
        <time>2022-12-16T13:14:40.925Z</time>
      </trkpt>
      <trkpt lat="47.31953" lon="-1.53814">
        <ele>54.164369</ele>
        <time>2022-12-16T13:14:42.930Z</time>
      </trkpt>
      <trkpt lat="47.31947" lon="-1.53828">
        <ele>54.071155</ele>
        <time>2022-12-16T13:14:44.926Z</time>
      </trkpt>
      <trkpt lat="47.3194" lon="-1.53842">
        <ele>53.974797</ele>
        <time>2022-12-16T13:14:46.937Z</time>
      </trkpt>
      <trkpt lat="47.31932" lon="-1.53857">
        <ele>53.87677</ele>
        <time>2022-12-16T13:14:48.924Z</time>
      </trkpt>
      <trkpt lat="47.31924" lon="-1.5387">
        <ele>53.780098</ele>
        <time>2022-12-16T13:14:50.925Z</time>
      </trkpt>
      <trkpt lat="47.31917" lon="-1.53883">
        <ele>53.689715</ele>
        <time>2022-12-16T13:14:52.947Z</time>
      </trkpt>
      <trkpt lat="47.3191" lon="-1.53897">
        <ele>53.598255</ele>
        <time>2022-12-16T13:14:54.925Z</time>
      </trkpt>
      <trkpt lat="47.31903" lon="-1.53909">
        <ele>53.509216</ele>
        <time>2022-12-16T13:14:56.925Z</time>
      </trkpt>
      <trkpt lat="47.31897" lon="-1.53922">
        <ele>53.422231</ele>
        <time>2022-12-16T13:14:58.933Z</time>
      </trkpt>
      <trkpt lat="47.3189" lon="-1.53935">
        <ele>53.335162</ele>
        <time>2022-12-16T13:15:00.927Z</time>
      </trkpt>
      <trkpt lat="47.31884" lon="-1.53948">
        <ele>53.303173</ele>
        <time>2022-12-16T13:15:02.944Z</time>
      </trkpt>
      <trkpt lat="47.31877" lon="-1.53961">
        <ele>53.272726</ele>
        <time>2022-12-16T13:15:04.944Z</time>
      </trkpt>
      <trkpt lat="47.31871" lon="-1.53973">
        <ele>53.243737</ele>
        <time>2022-12-16T13:15:06.944Z</time>
      </trkpt>
      <trkpt lat="47.31865" lon="-1.53986">
        <ele>53.21462</ele>
        <time>2022-12-16T13:15:08.943Z</time>
      </trkpt>
      <trkpt lat="47.31859" lon="-1.53998">
        <ele>53.185934</ele>
        <time>2022-12-16T13:15:10.925Z</time>
      </trkpt>
      <trkpt lat="47.31854" lon="-1.5401">
        <ele>53.158548</ele>
        <time>2022-12-16T13:15:12.933Z</time>
      </trkpt>
      <trkpt lat="47.31848" lon="-1.54021">
        <ele>53.131616</ele>
        <time>2022-12-16T13:15:14.946Z</time>
      </trkpt>
      <trkpt lat="47.31843" lon="-1.54033">
        <ele>53.104674</ele>
        <time>2022-12-16T13:15:16.945Z</time>
      </trkpt>
      <trkpt lat="47.31837" lon="-1.54044">
        <ele>53.078005</ele>
        <time>2022-12-16T13:15:18.943Z</time>
      </trkpt>
      <trkpt lat="47.31832" lon="-1.54055">
        <ele>53.051875</ele>
        <time>2022-12-16T13:15:20.922Z</time>
      </trkpt>
      <trkpt lat="47.31826" lon="-1.54067">
        <ele>53.025593</ele>
        <time>2022-12-16T13:15:22.930Z</time>
      </trkpt>
      <trkpt lat="47.31821" lon="-1.54078">
        <ele>52.999758</ele>
        <time>2022-12-16T13:15:24.940Z</time>
      </trkpt>
      <trkpt lat="47.31816" lon="-1.54089">
        <ele>52.973934</ele>
        <time>2022-12-16T13:15:26.940Z</time>
      </trkpt>
      <trkpt lat="47.31808" lon="-1.54105">
        <ele>52.936759</ele>
        <time>2022-12-16T13:15:29.945Z</time>
      </trkpt>
      <trkpt lat="47.31802" lon="-1.54115">
        <ele>52.911097</ele>
        <time>2022-12-16T13:15:31.931Z</time>
      </trkpt>
      <trkpt lat="47.31796" lon="-1.54125">
        <ele>52.885313</ele>
        <time>2022-12-16T13:15:33.943Z</time>
      </trkpt>
      <trkpt lat="47.3179" lon="-1.54136">
        <ele>52.858854</ele>
        <time>2022-12-16T13:15:35.923Z</time>
      </trkpt>
      <trkpt lat="47.31784" lon="-1.54148">
        <ele>52.831433</ele>
        <time>2022-12-16T13:15:37.943Z</time>
      </trkpt>
      <trkpt lat="47.31778" lon="-1.54159">
        <ele>52.7328</ele>
        <time>2022-12-16T13:15:39.950Z</time>
      </trkpt>
      <trkpt lat="47.31773" lon="-1.54171">
        <ele>52.625222</ele>
        <time>2022-12-16T13:15:41.944Z</time>
      </trkpt>
      <trkpt lat="47.31766" lon="-1.54182">
        <ele>52.515749</ele>
        <time>2022-12-16T13:15:43.948Z</time>
      </trkpt>
      <trkpt lat="47.31759" lon="-1.54192">
        <ele>52.406637</ele>
        <time>2022-12-16T13:15:45.943Z</time>
      </trkpt>
      <trkpt lat="47.31752" lon="-1.54201">
        <ele>52.302845</ele>
        <time>2022-12-16T13:15:47.959Z</time>
      </trkpt>
      <trkpt lat="47.3174" lon="-1.5421">
        <ele>52.156628</ele>
        <time>2022-12-16T13:15:50.930Z</time>
      </trkpt>
      <trkpt lat="47.3173" lon="-1.54222">
        <ele>52.012203</ele>
        <time>2022-12-16T13:15:53.929Z</time>
      </trkpt>
      <trkpt lat="47.31719" lon="-1.54234">
        <ele>51.865968</ele>
        <time>2022-12-16T13:15:56.948Z</time>
      </trkpt>
      <trkpt lat="47.31709" lon="-1.54245">
        <ele>51.725512</ele>
        <time>2022-12-16T13:15:59.948Z</time>
      </trkpt>
      <trkpt lat="47.31699" lon="-1.54255">
        <ele>51.592084</ele>
        <time>2022-12-16T13:16:02.953Z</time>
      </trkpt>
      <trkpt lat="47.31688" lon="-1.54264">
        <ele>51.459337</ele>
        <time>2022-12-16T13:16:05.953Z</time>
      </trkpt>
      <trkpt lat="47.31678" lon="-1.54272">
        <ele>51.327908</ele>
        <time>2022-12-16T13:16:08.951Z</time>
      </trkpt>
      <trkpt lat="47.31667" lon="-1.54279">
        <ele>51.20274</ele>
        <time>2022-12-16T13:16:11.939Z</time>
      </trkpt>
      <trkpt lat="47.31656" lon="-1.54286">
        <ele>51.068824</ele>
        <time>2022-12-16T13:16:14.936Z</time>
      </trkpt>
      <trkpt lat="47.31646" lon="-1.54293">
        <ele>50.943971</ele>
        <time>2022-12-16T13:16:17.926Z</time>
      </trkpt>
      <trkpt lat="47.31636" lon="-1.54302">
        <ele>50.838262</ele>
        <time>2022-12-16T13:16:20.926Z</time>
      </trkpt>
      <trkpt lat="47.31631" lon="-1.54316">
        <ele>50.798497</ele>
        <time>2022-12-16T13:16:24.941Z</time>
      </trkpt>
      <trkpt lat="47.31622" lon="-1.54322">
        <ele>50.762538</ele>
        <time>2022-12-16T13:16:31.929Z</time>
      </trkpt>
      <trkpt lat="47.31613" lon="-1.54329">
        <ele>50.724847</ele>
        <time>2022-12-16T13:16:37.930Z</time>
      </trkpt>
      <trkpt lat="47.31603" lon="-1.54332">
        <ele>50.690239</ele>
        <time>2022-12-16T13:16:41.945Z</time>
      </trkpt>
      <trkpt lat="47.31592" lon="-1.5433">
        <ele>50.649718</ele>
        <time>2022-12-16T13:16:45.928Z</time>
      </trkpt>
      <trkpt lat="47.31581" lon="-1.54329">
        <ele>50.608908</ele>
        <time>2022-12-16T13:16:48.944Z</time>
      </trkpt>
      <trkpt lat="47.31569" lon="-1.54328">
        <ele>50.563126</ele>
        <time>2022-12-16T13:16:51.945Z</time>
      </trkpt>
      <trkpt lat="47.31558" lon="-1.54327">
        <ele>50.522425</ele>
        <time>2022-12-16T13:16:54.946Z</time>
      </trkpt>
      <trkpt lat="47.31547" lon="-1.54327">
        <ele>50.483975</ele>
        <time>2022-12-16T13:16:57.928Z</time>
      </trkpt>
      <trkpt lat="47.31536" lon="-1.54326">
        <ele>50.444395</ele>
        <time>2022-12-16T13:17:00.924Z</time>
      </trkpt>
      <trkpt lat="47.31526" lon="-1.54326">
        <ele>50.405216</ele>
        <time>2022-12-16T13:17:03.935Z</time>
      </trkpt>
      <trkpt lat="47.31516" lon="-1.54326">
        <ele>50.368224</ele>
        <time>2022-12-16T13:17:06.934Z</time>
      </trkpt>
      <trkpt lat="47.31504" lon="-1.54333">
        <ele>50.324123</ele>
        <time>2022-12-16T13:17:09.930Z</time>
      </trkpt>
      <trkpt lat="47.31492" lon="-1.54336">
        <ele>50.2792</ele>
        <time>2022-12-16T13:17:12.932Z</time>
      </trkpt>
      <trkpt lat="47.3148" lon="-1.54335">
        <ele>50.234865</ele>
        <time>2022-12-16T13:17:15.932Z</time>
      </trkpt>
      <trkpt lat="47.31467" lon="-1.54332">
        <ele>50.195017</ele>
        <time>2022-12-16T13:17:18.933Z</time>
      </trkpt>
      <trkpt lat="47.31455" lon="-1.54331">
        <ele>50.268233</ele>
        <time>2022-12-16T13:17:21.932Z</time>
      </trkpt>
      <trkpt lat="47.31443" lon="-1.54329">
        <ele>50.337628</ele>
        <time>2022-12-16T13:17:24.944Z</time>
      </trkpt>
      <trkpt lat="47.31433" lon="-1.54326">
        <ele>50.395732</ele>
        <time>2022-12-16T13:17:26.943Z</time>
      </trkpt>
      <trkpt lat="47.31423" lon="-1.54324">
        <ele>50.453031</ele>
        <time>2022-12-16T13:17:28.934Z</time>
      </trkpt>
      <trkpt lat="47.3141" lon="-1.54322">
        <ele>50.526646</ele>
        <time>2022-12-16T13:17:31.927Z</time>
      </trkpt>
      <trkpt lat="47.31398" lon="-1.5432">
        <ele>50.59837</ele>
        <time>2022-12-16T13:17:34.949Z</time>
      </trkpt>
      <trkpt lat="47.31388" lon="-1.54319">
        <ele>50.653094</ele>
        <time>2022-12-16T13:17:36.959Z</time>
      </trkpt>
      <trkpt lat="47.31378" lon="-1.54319">
        <ele>50.714714</ele>
        <time>2022-12-16T13:17:38.928Z</time>
      </trkpt>
      <trkpt lat="47.31368" lon="-1.54318">
        <ele>50.769995</ele>
        <time>2022-12-16T13:17:40.927Z</time>
      </trkpt>
      <trkpt lat="47.31359" lon="-1.54318">
        <ele>50.824664</ele>
        <time>2022-12-16T13:17:42.947Z</time>
      </trkpt>
      <trkpt lat="47.31346" lon="-1.54314">
        <ele>50.897373</ele>
        <time>2022-12-16T13:17:45.927Z</time>
      </trkpt>
      <trkpt lat="47.31334" lon="-1.54309">
        <ele>50.970768</ele>
        <time>2022-12-16T13:17:48.934Z</time>
      </trkpt>
      <trkpt lat="47.31322" lon="-1.54305">
        <ele>51.04326</ele>
        <time>2022-12-16T13:17:51.937Z</time>
      </trkpt>
      <trkpt lat="47.31309" lon="-1.54305">
        <ele>51.116336</ele>
        <time>2022-12-16T13:17:54.933Z</time>
      </trkpt>
      <trkpt lat="47.31296" lon="-1.54305">
        <ele>51.191713</ele>
        <time>2022-12-16T13:17:57.947Z</time>
      </trkpt>
      <trkpt lat="47.31283" lon="-1.54305">
        <ele>51.261634</ele>
        <time>2022-12-16T13:18:00.927Z</time>
      </trkpt>
      <trkpt lat="47.31273" lon="-1.54305">
        <ele>51.306567</ele>
        <time>2022-12-16T13:18:02.944Z</time>
      </trkpt>
      <trkpt lat="47.31261" lon="-1.54307">
        <ele>51.367998</ele>
        <time>2022-12-16T13:18:05.943Z</time>
      </trkpt>
      <trkpt lat="47.3125" lon="-1.54312">
        <ele>51.42639</ele>
        <time>2022-12-16T13:18:08.930Z</time>
      </trkpt>
      <trkpt lat="47.31241" lon="-1.54322">
        <ele>51.481058</ele>
        <time>2022-12-16T13:18:11.933Z</time>
      </trkpt>
      <trkpt lat="47.31233" lon="-1.54328">
        <ele>51.526117</ele>
        <time>2022-12-16T13:18:14.934Z</time>
      </trkpt>
      <trkpt lat="47.31218" lon="-1.54327">
        <ele>51.600328</ele>
        <time>2022-12-16T13:18:34.940Z</time>
      </trkpt>
      <trkpt lat="47.31211" lon="-1.54318">
        <ele>51.646846</ele>
        <time>2022-12-16T13:18:38.929Z</time>
      </trkpt>
      <trkpt lat="47.31204" lon="-1.54308">
        <ele>51.692851</ele>
        <time>2022-12-16T13:18:42.945Z</time>
      </trkpt>
      <trkpt lat="47.31194" lon="-1.54301">
        <ele>51.747505</ele>
        <time>2022-12-16T13:18:46.932Z</time>
      </trkpt>
      <trkpt lat="47.31185" lon="-1.54298">
        <ele>51.794418</ele>
        <time>2022-12-16T13:18:49.932Z</time>
      </trkpt>
      <trkpt lat="47.31174" lon="-1.54295">
        <ele>51.85123</ele>
        <time>2022-12-16T13:18:53.933Z</time>
      </trkpt>
      <trkpt lat="47.31164" lon="-1.54294">
        <ele>51.897991</ele>
        <time>2022-12-16T13:18:56.932Z</time>
      </trkpt>
      <trkpt lat="47.31155" lon="-1.54292">
        <ele>51.946713</ele>
        <time>2022-12-16T13:18:59.951Z</time>
      </trkpt>
      <trkpt lat="47.31145" lon="-1.54292">
        <ele>51.995111</ele>
        <time>2022-12-16T13:19:02.940Z</time>
      </trkpt>
      <trkpt lat="47.31136" lon="-1.54293">
        <ele>52.040616</ele>
        <time>2022-12-16T13:19:05.948Z</time>
      </trkpt>
      <trkpt lat="47.31126" lon="-1.54292">
        <ele>52.088159</ele>
        <time>2022-12-16T13:19:08.930Z</time>
      </trkpt>
      <trkpt lat="47.31116" lon="-1.54292">
        <ele>52.215579</ele>
        <time>2022-12-16T13:19:11.944Z</time>
      </trkpt>
      <trkpt lat="47.31105" lon="-1.54293">
        <ele>52.425209</ele>
        <time>2022-12-16T13:19:14.947Z</time>
      </trkpt>
      <trkpt lat="47.31095" lon="-1.54293">
        <ele>52.634643</ele>
        <time>2022-12-16T13:19:17.947Z</time>
      </trkpt>
      <trkpt lat="47.31085" lon="-1.54291">
        <ele>52.831013</ele>
        <time>2022-12-16T13:19:20.921Z</time>
      </trkpt>
      <trkpt lat="47.31074" lon="-1.5429">
        <ele>53.048827</ele>
        <time>2022-12-16T13:19:24.953Z</time>
      </trkpt>
      <trkpt lat="47.3106" lon="-1.54288">
        <ele>53.335312</ele>
        <time>2022-12-16T13:20:18.935Z</time>
      </trkpt>
      <trkpt lat="47.31049" lon="-1.54287">
        <ele>53.546999</ele>
        <time>2022-12-16T13:20:22.936Z</time>
      </trkpt>
      <trkpt lat="47.31037" lon="-1.54286">
        <ele>53.786641</ele>
        <time>2022-12-16T13:20:26.942Z</time>
      </trkpt>
      <trkpt lat="47.31028" lon="-1.54285">
        <ele>53.980899</ele>
        <time>2022-12-16T13:20:29.943Z</time>
      </trkpt>
      <trkpt lat="47.31018" lon="-1.54285">
        <ele>54.17839</ele>
        <time>2022-12-16T13:20:32.924Z</time>
      </trkpt>
      <trkpt lat="47.31008" lon="-1.54285">
        <ele>54.368099</ele>
        <time>2022-12-16T13:20:35.948Z</time>
      </trkpt>
      <trkpt lat="47.30998" lon="-1.54285">
        <ele>54.565775</ele>
        <time>2022-12-16T13:20:38.943Z</time>
      </trkpt>
      <trkpt lat="47.30989" lon="-1.54288">
        <ele>54.746997</ele>
        <time>2022-12-16T13:20:41.932Z</time>
      </trkpt>
      <trkpt lat="47.30979" lon="-1.54293">
        <ele>54.955916</ele>
        <time>2022-12-16T13:20:45.929Z</time>
      </trkpt>
      <trkpt lat="47.3097" lon="-1.54295">
        <ele>55.140532</ele>
        <time>2022-12-16T13:20:49.936Z</time>
      </trkpt>
      <trkpt lat="47.3096" lon="-1.54292">
        <ele>55.347457</ele>
        <time>2022-12-16T13:20:53.930Z</time>
      </trkpt>
      <trkpt lat="47.30951" lon="-1.54286">
        <ele>55.541756</ele>
        <time>2022-12-16T13:20:57.944Z</time>
      </trkpt>
      <trkpt lat="47.30941" lon="-1.54279">
        <ele>55.818653</ele>
        <time>2022-12-16T13:21:02.932Z</time>
      </trkpt>
      <trkpt lat="47.30932" lon="-1.54276">
        <ele>56.165853</ele>
        <time>2022-12-16T13:21:06.931Z</time>
      </trkpt>
      <trkpt lat="47.30922" lon="-1.54275">
        <ele>56.554636</ele>
        <time>2022-12-16T13:21:10.926Z</time>
      </trkpt>
      <trkpt lat="47.30911" lon="-1.54275">
        <ele>56.945983</ele>
        <time>2022-12-16T13:21:14.948Z</time>
      </trkpt>
      <trkpt lat="47.30901" lon="-1.54274">
        <ele>57.330211</ele>
        <time>2022-12-16T13:21:18.947Z</time>
      </trkpt>
      <trkpt lat="47.30891" lon="-1.54275">
        <ele>57.699007</ele>
        <time>2022-12-16T13:21:22.926Z</time>
      </trkpt>
      <trkpt lat="47.30882" lon="-1.54273">
        <ele>58.065083</ele>
        <time>2022-12-16T13:21:26.933Z</time>
      </trkpt>
      <trkpt lat="47.30872" lon="-1.54273">
        <ele>58.437686</ele>
        <time>2022-12-16T13:21:30.928Z</time>
      </trkpt>
      <trkpt lat="47.30862" lon="-1.54276">
        <ele>58.811497</ele>
        <time>2022-12-16T13:21:34.940Z</time>
      </trkpt>
      <trkpt lat="47.30853" lon="-1.54281">
        <ele>59.195526</ele>
        <time>2022-12-16T13:21:38.934Z</time>
      </trkpt>
      <trkpt lat="47.30843" lon="-1.54288">
        <ele>59.580552</ele>
        <time>2022-12-16T13:21:43.931Z</time>
      </trkpt>
      <trkpt lat="47.30835" lon="-1.54293">
        <ele>59.918893</ele>
        <time>2022-12-16T13:21:48.941Z</time>
      </trkpt>
      <trkpt lat="47.30825" lon="-1.54296">
        <ele>60.303403</ele>
        <time>2022-12-16T13:21:53.931Z</time>
      </trkpt>
      <trkpt lat="47.30815" lon="-1.54299">
        <ele>60.680551</ele>
        <time>2022-12-16T13:21:59.923Z</time>
      </trkpt>
      <trkpt lat="47.30806" lon="-1.54301">
        <ele>61.039559</ele>
        <time>2022-12-16T13:22:04.934Z</time>
      </trkpt>
      <trkpt lat="47.30796" lon="-1.54303">
        <ele>61.425802</ele>
        <time>2022-12-16T13:22:09.945Z</time>
      </trkpt>
      <trkpt lat="47.30786" lon="-1.54304">
        <ele>61.802789</ele>
        <time>2022-12-16T13:22:14.953Z</time>
      </trkpt>
      <trkpt lat="47.30776" lon="-1.54303">
        <ele>62.185026</ele>
        <time>2022-12-16T13:22:19.950Z</time>
      </trkpt>
      <trkpt lat="47.30765" lon="-1.54303">
        <ele>62.538735</ele>
        <time>2022-12-16T13:22:25.929Z</time>
      </trkpt>
      <trkpt lat="47.30755" lon="-1.54304">
        <ele>62.794809</ele>
        <time>2022-12-16T13:22:30.931Z</time>
      </trkpt>
      <trkpt lat="47.30746" lon="-1.5431">
        <ele>63.060048</ele>
        <time>2022-12-16T13:22:35.932Z</time>
      </trkpt>
      <trkpt lat="47.30736" lon="-1.54318">
        <ele>63.335927</ele>
        <time>2022-12-16T13:22:40.929Z</time>
      </trkpt>
      <trkpt lat="47.30728" lon="-1.54324">
        <ele>63.574811</ele>
        <time>2022-12-16T13:22:44.949Z</time>
      </trkpt>
      <trkpt lat="47.3072" lon="-1.5433">
        <ele>63.806758</ele>
        <time>2022-12-16T13:22:48.938Z</time>
      </trkpt>
      <trkpt lat="47.3071" lon="-1.54338">
        <ele>64.074267</ele>
        <time>2022-12-16T13:22:53.945Z</time>
      </trkpt>
      <trkpt lat="47.30701" lon="-1.54345">
        <ele>64.356222</ele>
        <time>2022-12-16T13:22:58.933Z</time>
      </trkpt>
      <trkpt lat="47.30692" lon="-1.54353">
        <ele>64.616322</ele>
        <time>2022-12-16T13:23:02.942Z</time>
      </trkpt>
      <trkpt lat="47.30683" lon="-1.54361">
        <ele>64.879114</ele>
        <time>2022-12-16T13:23:06.943Z</time>
      </trkpt>
      <trkpt lat="47.30673" lon="-1.5437">
        <ele>65.182015</ele>
        <time>2022-12-16T13:23:10.928Z</time>
      </trkpt>
      <trkpt lat="47.30665" lon="-1.54377">
        <ele>65.412438</ele>
        <time>2022-12-16T13:23:13.931Z</time>
      </trkpt>
      <trkpt lat="47.30657" lon="-1.54384">
        <ele>65.644661</ele>
        <time>2022-12-16T13:23:16.939Z</time>
      </trkpt>
      <trkpt lat="47.30648" lon="-1.54391">
        <ele>65.896479</ele>
        <time>2022-12-16T13:23:19.941Z</time>
      </trkpt>
      <trkpt lat="47.3064" lon="-1.54398">
        <ele>66.134316</ele>
        <time>2022-12-16T13:23:22.943Z</time>
      </trkpt>
      <trkpt lat="47.30632" lon="-1.54406">
        <ele>66.386555</ele>
        <time>2022-12-16T13:23:25.950Z</time>
      </trkpt>
      <trkpt lat="47.30622" lon="-1.54415">
        <ele>66.684236</ele>
        <time>2022-12-16T13:23:28.949Z</time>
      </trkpt>
      <trkpt lat="47.30612" lon="-1.54423">
        <ele>66.96753</ele>
        <time>2022-12-16T13:23:31.931Z</time>
      </trkpt>
      <trkpt lat="47.30604" lon="-1.5443">
        <ele>66.920598</ele>
        <time>2022-12-16T13:23:34.950Z</time>
      </trkpt>
      <trkpt lat="47.30596" lon="-1.54438">
        <ele>66.780313</ele>
        <time>2022-12-16T13:23:37.946Z</time>
      </trkpt>
      <trkpt lat="47.30587" lon="-1.54446">
        <ele>66.614674</ele>
        <time>2022-12-16T13:23:41.940Z</time>
      </trkpt>
      <trkpt lat="47.30579" lon="-1.54455">
        <ele>66.465101</ele>
        <time>2022-12-16T13:23:45.947Z</time>
      </trkpt>
      <trkpt lat="47.3057" lon="-1.54463">
        <ele>66.314199</ele>
        <time>2022-12-16T13:23:49.943Z</time>
      </trkpt>
      <trkpt lat="47.30561" lon="-1.54471">
        <ele>66.148043</ele>
        <time>2022-12-16T13:23:52.938Z</time>
      </trkpt>
      <trkpt lat="47.30551" lon="-1.54481">
        <ele>65.960098</ele>
        <time>2022-12-16T13:23:55.934Z</time>
      </trkpt>
      <trkpt lat="47.30539" lon="-1.54491">
        <ele>65.765675</ele>
        <time>2022-12-16T13:23:58.931Z</time>
      </trkpt>
      <trkpt lat="47.30528" lon="-1.545">
        <ele>65.570126</ele>
        <time>2022-12-16T13:24:01.944Z</time>
      </trkpt>
      <trkpt lat="47.30517" lon="-1.54509">
        <ele>65.377356</ele>
        <time>2022-12-16T13:24:04.950Z</time>
      </trkpt>
      <trkpt lat="47.30505" lon="-1.54518">
        <ele>65.17698</ele>
        <time>2022-12-16T13:24:07.940Z</time>
      </trkpt>
      <trkpt lat="47.30493" lon="-1.54527">
        <ele>64.982022</ele>
        <time>2022-12-16T13:24:10.926Z</time>
      </trkpt>
      <trkpt lat="47.30482" lon="-1.54536">
        <ele>64.791537</ele>
        <time>2022-12-16T13:24:13.946Z</time>
      </trkpt>
      <trkpt lat="47.30472" lon="-1.54543">
        <ele>64.614161</ele>
        <time>2022-12-16T13:24:16.937Z</time>
      </trkpt>
      <trkpt lat="47.30461" lon="-1.54551">
        <ele>64.431402</ele>
        <time>2022-12-16T13:24:19.947Z</time>
      </trkpt>
      <trkpt lat="47.30451" lon="-1.54558">
        <ele>64.280601</ele>
        <time>2022-12-16T13:24:22.950Z</time>
      </trkpt>
      <trkpt lat="47.30442" lon="-1.54564">
        <ele>64.169592</ele>
        <time>2022-12-16T13:24:25.933Z</time>
      </trkpt>
      <trkpt lat="47.30431" lon="-1.54574">
        <ele>64.031672</ele>
        <time>2022-12-16T13:24:28.927Z</time>
      </trkpt>
      <trkpt lat="47.30419" lon="-1.54584">
        <ele>63.885692</ele>
        <time>2022-12-16T13:24:31.946Z</time>
      </trkpt>
      <trkpt lat="47.3041" lon="-1.54592">
        <ele>63.771463</ele>
        <time>2022-12-16T13:24:33.944Z</time>
      </trkpt>
      <trkpt lat="47.30401" lon="-1.54602">
        <ele>63.645901</ele>
        <time>2022-12-16T13:24:35.933Z</time>
      </trkpt>
      <trkpt lat="47.30391" lon="-1.54615">
        <ele>63.506228</ele>
        <time>2022-12-16T13:24:37.944Z</time>
      </trkpt>
      <trkpt lat="47.30381" lon="-1.54626">
        <ele>63.363524</ele>
        <time>2022-12-16T13:24:39.930Z</time>
      </trkpt>
      <trkpt lat="47.30374" lon="-1.54638">
        <ele>63.248434</ele>
        <time>2022-12-16T13:24:41.948Z</time>
      </trkpt>
      <trkpt lat="47.30367" lon="-1.54649">
        <ele>63.140586</ele>
        <time>2022-12-16T13:24:43.944Z</time>
      </trkpt>
      <trkpt lat="47.30359" lon="-1.54659">
        <ele>63.018907</ele>
        <time>2022-12-16T13:24:46.944Z</time>
      </trkpt>
      <trkpt lat="47.30349" lon="-1.54662">
        <ele>62.907147</ele>
        <time>2022-12-16T13:24:50.925Z</time>
      </trkpt>
      <trkpt lat="47.30338" lon="-1.54666">
        <ele>62.787613</ele>
        <time>2022-12-16T13:24:54.925Z</time>
      </trkpt>
      <trkpt lat="47.30328" lon="-1.54671">
        <ele>62.673242</ele>
        <time>2022-12-16T13:24:58.930Z</time>
      </trkpt>
      <trkpt lat="47.30318" lon="-1.5467">
        <ele>62.564019</ele>
        <time>2022-12-16T13:25:02.929Z</time>
      </trkpt>
      <trkpt lat="47.30309" lon="-1.54666">
        <ele>62.464419</ele>
        <time>2022-12-16T13:25:05.948Z</time>
      </trkpt>
      <trkpt lat="47.30299" lon="-1.54662">
        <ele>62.36308</ele>
        <time>2022-12-16T13:25:08.937Z</time>
      </trkpt>
      <trkpt lat="47.30289" lon="-1.54657">
        <ele>62.620698</ele>
        <time>2022-12-16T13:25:11.946Z</time>
      </trkpt>
      <trkpt lat="47.30279" lon="-1.54654">
        <ele>62.855488</ele>
        <time>2022-12-16T13:25:14.930Z</time>
      </trkpt>
      <trkpt lat="47.30269" lon="-1.54656">
        <ele>63.085929</ele>
        <time>2022-12-16T13:25:18.934Z</time>
      </trkpt>
      <trkpt lat="47.30259" lon="-1.54662">
        <ele>63.325579</ele>
        <time>2022-12-16T13:25:22.931Z</time>
      </trkpt>
      <trkpt lat="47.3025" lon="-1.54667">
        <ele>63.55259</ele>
        <time>2022-12-16T13:25:25.940Z</time>
      </trkpt>
      <trkpt lat="47.30239" lon="-1.54672">
        <ele>63.806523</ele>
        <time>2022-12-16T13:25:28.941Z</time>
      </trkpt>
      <trkpt lat="47.30229" lon="-1.54678">
        <ele>64.056594</ele>
        <time>2022-12-16T13:25:31.946Z</time>
      </trkpt>
      <trkpt lat="47.30219" lon="-1.54683">
        <ele>64.304529</ele>
        <time>2022-12-16T13:25:34.953Z</time>
      </trkpt>
      <trkpt lat="47.3021" lon="-1.54689">
        <ele>64.528836</ele>
        <time>2022-12-16T13:25:37.933Z</time>
      </trkpt>
      <trkpt lat="47.30201" lon="-1.54694">
        <ele>64.744052</ele>
        <time>2022-12-16T13:25:40.929Z</time>
      </trkpt>
      <trkpt lat="47.30192" lon="-1.54699">
        <ele>64.960257</ele>
        <time>2022-12-16T13:25:43.959Z</time>
      </trkpt>
      <trkpt lat="47.30182" lon="-1.54704">
        <ele>65.219032</ele>
        <time>2022-12-16T13:25:47.949Z</time>
      </trkpt>
      <trkpt lat="47.30172" lon="-1.54709">
        <ele>65.44761</ele>
        <time>2022-12-16T13:25:50.930Z</time>
      </trkpt>
      <trkpt lat="47.30162" lon="-1.54714">
        <ele>65.690889</ele>
        <time>2022-12-16T13:25:53.951Z</time>
      </trkpt>
      <trkpt lat="47.30152" lon="-1.54719">
        <ele>65.942008</ele>
        <time>2022-12-16T13:25:56.940Z</time>
      </trkpt>
      <trkpt lat="47.30141" lon="-1.54724">
        <ele>66.205447</ele>
        <time>2022-12-16T13:25:59.940Z</time>
      </trkpt>
      <trkpt lat="47.3013" lon="-1.54729">
        <ele>66.473415</ele>
        <time>2022-12-16T13:26:02.947Z</time>
      </trkpt>
      <trkpt lat="47.30119" lon="-1.54736">
        <ele>66.584524</ele>
        <time>2022-12-16T13:26:05.949Z</time>
      </trkpt>
      <trkpt lat="47.30108" lon="-1.54741">
        <ele>66.685646</ele>
        <time>2022-12-16T13:26:08.947Z</time>
      </trkpt>
      <trkpt lat="47.30097" lon="-1.54747">
        <ele>66.792887</ele>
        <time>2022-12-16T13:26:11.946Z</time>
      </trkpt>
      <trkpt lat="47.30085" lon="-1.54753">
        <ele>66.903087</ele>
        <time>2022-12-16T13:26:14.946Z</time>
      </trkpt>
      <trkpt lat="47.30074" lon="-1.54759">
        <ele>67.016098</ele>
        <time>2022-12-16T13:26:17.936Z</time>
      </trkpt>
      <trkpt lat="47.30061" lon="-1.54764">
        <ele>67.130608</ele>
        <time>2022-12-16T13:26:20.935Z</time>
      </trkpt>
      <trkpt lat="47.3005" lon="-1.54768">
        <ele>67.235538</ele>
        <time>2022-12-16T13:26:23.945Z</time>
      </trkpt>
      <trkpt lat="47.3004" lon="-1.54772">
        <ele>67.328598</ele>
        <time>2022-12-16T13:26:26.929Z</time>
      </trkpt>
      <trkpt lat="47.30029" lon="-1.54776">
        <ele>67.427838</ele>
        <time>2022-12-16T13:26:29.949Z</time>
      </trkpt>
      <trkpt lat="47.30018" lon="-1.5478">
        <ele>67.536492</ele>
        <time>2022-12-16T13:26:32.952Z</time>
      </trkpt>
      <trkpt lat="47.30005" lon="-1.54784">
        <ele>67.649319</ele>
        <time>2022-12-16T13:26:35.950Z</time>
      </trkpt>
      <trkpt lat="47.29993" lon="-1.54788">
        <ele>67.762893</ele>
        <time>2022-12-16T13:26:38.944Z</time>
      </trkpt>
      <trkpt lat="47.29981" lon="-1.54793">
        <ele>67.880515</ele>
        <time>2022-12-16T13:26:41.932Z</time>
      </trkpt>
      <trkpt lat="47.29968" lon="-1.54798">
        <ele>67.993912</ele>
        <time>2022-12-16T13:26:44.937Z</time>
      </trkpt>
      <trkpt lat="47.29958" lon="-1.54802">
        <ele>68.091994</ele>
        <time>2022-12-16T13:26:47.946Z</time>
      </trkpt>
      <trkpt lat="47.29947" lon="-1.54805">
        <ele>68.103444</ele>
        <time>2022-12-16T13:26:50.932Z</time>
      </trkpt>
      <trkpt lat="47.29935" lon="-1.54809">
        <ele>68.104938</ele>
        <time>2022-12-16T13:26:53.945Z</time>
      </trkpt>
      <trkpt lat="47.29923" lon="-1.54812">
        <ele>68.106444</ele>
        <time>2022-12-16T13:26:56.953Z</time>
      </trkpt>
      <trkpt lat="47.2991" lon="-1.54816">
        <ele>68.108034</ele>
        <time>2022-12-16T13:26:59.956Z</time>
      </trkpt>
      <trkpt lat="47.29901" lon="-1.54819">
        <ele>68.109246</ele>
        <time>2022-12-16T13:27:01.949Z</time>
      </trkpt>
      <trkpt lat="47.29891" lon="-1.54822">
        <ele>68.110422</ele>
        <time>2022-12-16T13:27:03.946Z</time>
      </trkpt>
      <trkpt lat="47.2988" lon="-1.54824">
        <ele>68.111855</ele>
        <time>2022-12-16T13:27:05.947Z</time>
      </trkpt>
      <trkpt lat="47.29867" lon="-1.54828">
        <ele>68.11348</ele>
        <time>2022-12-16T13:27:07.948Z</time>
      </trkpt>
      <trkpt lat="47.29855" lon="-1.54832">
        <ele>68.114876</ele>
        <time>2022-12-16T13:27:09.929Z</time>
      </trkpt>
      <trkpt lat="47.29847" lon="-1.54834">
        <ele>68.115987</ele>
        <time>2022-12-16T13:27:11.949Z</time>
      </trkpt>
      <trkpt lat="47.29836" lon="-1.54838">
        <ele>68.117347</ele>
        <time>2022-12-16T13:27:14.948Z</time>
      </trkpt>
      <trkpt lat="47.29825" lon="-1.54841">
        <ele>68.118723</ele>
        <time>2022-12-16T13:27:17.946Z</time>
      </trkpt>
      <trkpt lat="47.29812" lon="-1.54844">
        <ele>68.120291</ele>
        <time>2022-12-16T13:27:20.931Z</time>
      </trkpt>
      <trkpt lat="47.29799" lon="-1.54845">
        <ele>68.121857</ele>
        <time>2022-12-16T13:27:23.946Z</time>
      </trkpt>
      <trkpt lat="47.2979" lon="-1.5484">
        <ele>68.123069</ele>
        <time>2022-12-16T13:27:25.933Z</time>
      </trkpt>
      <trkpt lat="47.29781" lon="-1.54838">
        <ele>68.12421</ele>
        <time>2022-12-16T13:27:27.934Z</time>
      </trkpt>
      <trkpt lat="47.29771" lon="-1.54841">
        <ele>68.265834</ele>
        <time>2022-12-16T13:27:29.940Z</time>
      </trkpt>
      <trkpt lat="47.29761" lon="-1.54845">
        <ele>68.416453</ele>
        <time>2022-12-16T13:27:31.925Z</time>
      </trkpt>
      <trkpt lat="47.29751" lon="-1.54847">
        <ele>68.570628</ele>
        <time>2022-12-16T13:27:33.944Z</time>
      </trkpt>
      <trkpt lat="47.2974" lon="-1.54851">
        <ele>68.735973</ele>
        <time>2022-12-16T13:27:36.931Z</time>
      </trkpt>
      <trkpt lat="47.29731" lon="-1.54856">
        <ele>68.878134</ele>
        <time>2022-12-16T13:27:41.951Z</time>
      </trkpt>
      <trkpt lat="47.29721" lon="-1.54861">
        <ele>69.021674</ele>
        <time>2022-12-16T13:27:46.934Z</time>
      </trkpt>
      <trkpt lat="47.29711" lon="-1.54858">
        <ele>69.181801</ele>
        <time>2022-12-16T13:27:50.930Z</time>
      </trkpt>
      <trkpt lat="47.297" lon="-1.54856">
        <ele>69.338616</ele>
        <time>2022-12-16T13:27:53.952Z</time>
      </trkpt>
      <trkpt lat="47.29688" lon="-1.5486">
        <ele>69.522254</ele>
        <time>2022-12-16T13:27:56.933Z</time>
      </trkpt>
      <trkpt lat="47.29675" lon="-1.54864">
        <ele>69.707085</ele>
        <time>2022-12-16T13:27:59.945Z</time>
      </trkpt>
      <trkpt lat="47.29663" lon="-1.54866">
        <ele>69.884411</ele>
        <time>2022-12-16T13:28:02.937Z</time>
      </trkpt>
      <trkpt lat="47.29652" lon="-1.54869">
        <ele>70.060472</ele>
        <time>2022-12-16T13:28:05.929Z</time>
      </trkpt>
      <trkpt lat="47.2964" lon="-1.54872">
        <ele>70.228297</ele>
        <time>2022-12-16T13:28:08.930Z</time>
      </trkpt>
      <trkpt lat="47.2963" lon="-1.54873">
        <ele>70.378928</ele>
        <time>2022-12-16T13:28:11.945Z</time>
      </trkpt>
      <trkpt lat="47.2962" lon="-1.54876">
        <ele>70.536008</ele>
        <time>2022-12-16T13:28:14.952Z</time>
      </trkpt>
      <trkpt lat="47.29609" lon="-1.5488">
        <ele>70.694779</ele>
        <time>2022-12-16T13:28:17.927Z</time>
      </trkpt>
      <trkpt lat="47.29598" lon="-1.54886">
        <ele>70.882015</ele>
        <time>2022-12-16T13:28:20.931Z</time>
      </trkpt>
      <trkpt lat="47.29589" lon="-1.54887">
        <ele>71.037073</ele>
        <time>2022-12-16T13:28:22.936Z</time>
      </trkpt>
      <trkpt lat="47.29579" lon="-1.54888">
        <ele>71.205548</ele>
        <time>2022-12-16T13:28:24.928Z</time>
      </trkpt>
      <trkpt lat="47.29569" lon="-1.54888">
        <ele>71.380662</ele>
        <time>2022-12-16T13:28:26.938Z</time>
      </trkpt>
      <trkpt lat="47.2956" lon="-1.54889">
        <ele>71.538794</ele>
        <time>2022-12-16T13:28:28.934Z</time>
      </trkpt>
      <trkpt lat="47.29546" lon="-1.54889">
        <ele>71.766563</ele>
        <time>2022-12-16T13:28:31.950Z</time>
      </trkpt>
      <trkpt lat="47.29533" lon="-1.5489">
        <ele>71.98591</ele>
        <time>2022-12-16T13:28:34.948Z</time>
      </trkpt>
      <trkpt lat="47.29521" lon="-1.54891">
        <ele>72.203715</ele>
        <time>2022-12-16T13:28:37.938Z</time>
      </trkpt>
      <trkpt lat="47.29508" lon="-1.54892">
        <ele>72.421463</ele>
        <time>2022-12-16T13:28:40.931Z</time>
      </trkpt>
      <trkpt lat="47.29495" lon="-1.54893">
        <ele>72.632481</ele>
        <time>2022-12-16T13:28:43.951Z</time>
      </trkpt>
      <trkpt lat="47.29483" lon="-1.54894">
        <ele>72.845083</ele>
        <time>2022-12-16T13:28:46.950Z</time>
      </trkpt>
      <trkpt lat="47.29471" lon="-1.54893">
        <ele>73.052647</ele>
        <time>2022-12-16T13:28:49.942Z</time>
      </trkpt>
      <trkpt lat="47.2946" lon="-1.54892">
        <ele>73.230101</ele>
        <time>2022-12-16T13:28:52.942Z</time>
      </trkpt>
      <trkpt lat="47.29451" lon="-1.54891">
        <ele>73.386433</ele>
        <time>2022-12-16T13:28:55.951Z</time>
      </trkpt>
      <trkpt lat="47.29441" lon="-1.54892">
        <ele>73.556418</ele>
        <time>2022-12-16T13:28:58.932Z</time>
      </trkpt>
      <trkpt lat="47.29431" lon="-1.54893">
        <ele>73.723136</ele>
        <time>2022-12-16T13:29:01.954Z</time>
      </trkpt>
      <trkpt lat="47.29419" lon="-1.54893">
        <ele>73.719586</ele>
        <time>2022-12-16T13:29:05.934Z</time>
      </trkpt>
      <trkpt lat="47.29409" lon="-1.54894">
        <ele>73.561846</ele>
        <time>2022-12-16T13:29:08.932Z</time>
      </trkpt>
      <trkpt lat="47.29398" lon="-1.54893">
        <ele>73.401354</ele>
        <time>2022-12-16T13:29:11.937Z</time>
      </trkpt>
      <trkpt lat="47.29388" lon="-1.54893">
        <ele>73.244082</ele>
        <time>2022-12-16T13:29:14.952Z</time>
      </trkpt>
      <trkpt lat="47.29378" lon="-1.54893">
        <ele>73.092974</ele>
        <time>2022-12-16T13:29:17.958Z</time>
      </trkpt>
      <trkpt lat="47.29369" lon="-1.54894">
        <ele>72.953756</ele>
        <time>2022-12-16T13:29:20.926Z</time>
      </trkpt>
      <trkpt lat="47.29359" lon="-1.54896">
        <ele>72.790264</ele>
        <time>2022-12-16T13:29:24.935Z</time>
      </trkpt>
      <trkpt lat="47.2935" lon="-1.54904">
        <ele>72.625839</ele>
        <time>2022-12-16T13:29:28.932Z</time>
      </trkpt>
      <trkpt lat="47.29342" lon="-1.54911">
        <ele>72.479958</ele>
        <time>2022-12-16T13:29:31.933Z</time>
      </trkpt>
      <trkpt lat="47.29331" lon="-1.54916">
        <ele>72.306283</ele>
        <time>2022-12-16T13:29:34.927Z</time>
      </trkpt>
      <trkpt lat="47.29319" lon="-1.54917">
        <ele>72.123701</ele>
        <time>2022-12-16T13:29:37.927Z</time>
      </trkpt>
      <trkpt lat="47.29307" lon="-1.54919">
        <ele>71.937957</ele>
        <time>2022-12-16T13:29:40.931Z</time>
      </trkpt>
      <trkpt lat="47.29293" lon="-1.54917">
        <ele>71.71959</ele>
        <time>2022-12-16T13:29:43.932Z</time>
      </trkpt>
      <trkpt lat="47.29283" lon="-1.54916">
        <ele>71.57123</ele>
        <time>2022-12-16T13:29:45.947Z</time>
      </trkpt>
      <trkpt lat="47.29273" lon="-1.54918">
        <ele>71.411209</ele>
        <time>2022-12-16T13:29:47.932Z</time>
      </trkpt>
      <trkpt lat="47.29263" lon="-1.54919">
        <ele>71.26138</ele>
        <time>2022-12-16T13:29:49.925Z</time>
      </trkpt>
      <trkpt lat="47.29254" lon="-1.54919">
        <ele>71.114628</ele>
        <time>2022-12-16T13:29:51.941Z</time>
      </trkpt>
      <trkpt lat="47.29243" lon="-1.54919">
        <ele>70.883126</ele>
        <time>2022-12-16T13:29:54.949Z</time>
      </trkpt>
      <trkpt lat="47.29233" lon="-1.5491">
        <ele>70.577457</ele>
        <time>2022-12-16T13:29:57.937Z</time>
      </trkpt>
      <trkpt lat="47.29223" lon="-1.54908">
        <ele>70.320949</ele>
        <time>2022-12-16T13:29:59.949Z</time>
      </trkpt>
      <trkpt lat="47.29214" lon="-1.54908">
        <ele>70.080905</ele>
        <time>2022-12-16T13:30:01.927Z</time>
      </trkpt>
      <trkpt lat="47.29202" lon="-1.54909">
        <ele>69.77377</ele>
        <time>2022-12-16T13:30:03.946Z</time>
      </trkpt>
      <trkpt lat="47.2919" lon="-1.54912">
        <ele>69.460115</ele>
        <time>2022-12-16T13:30:05.939Z</time>
      </trkpt>
      <trkpt lat="47.29177" lon="-1.54912">
        <ele>69.148404</ele>
        <time>2022-12-16T13:30:07.948Z</time>
      </trkpt>
      <trkpt lat="47.29165" lon="-1.54913">
        <ele>68.828974</ele>
        <time>2022-12-16T13:30:09.948Z</time>
      </trkpt>
      <trkpt lat="47.29152" lon="-1.54913">
        <ele>68.507054</ele>
        <time>2022-12-16T13:30:11.950Z</time>
      </trkpt>
      <trkpt lat="47.29141" lon="-1.54914">
        <ele>68.225817</ele>
        <time>2022-12-16T13:30:13.948Z</time>
      </trkpt>
      <trkpt lat="47.29129" lon="-1.54916">
        <ele>67.903277</ele>
        <time>2022-12-16T13:30:15.954Z</time>
      </trkpt>
      <trkpt lat="47.29116" lon="-1.54916">
        <ele>67.570944</ele>
        <time>2022-12-16T13:30:17.950Z</time>
      </trkpt>
      <trkpt lat="47.29105" lon="-1.54917">
        <ele>67.292167</ele>
        <time>2022-12-16T13:30:19.943Z</time>
      </trkpt>
      <trkpt lat="47.29095" lon="-1.54917">
        <ele>67.033882</ele>
        <time>2022-12-16T13:30:21.933Z</time>
      </trkpt>
      <trkpt lat="47.29085" lon="-1.54917">
        <ele>66.796372</ele>
        <time>2022-12-16T13:30:23.946Z</time>
      </trkpt>
      <trkpt lat="47.29075" lon="-1.54917">
        <ele>66.535883</ele>
        <time>2022-12-16T13:30:25.949Z</time>
      </trkpt>
      <trkpt lat="47.29065" lon="-1.54916">
        <ele>66.566203</ele>
        <time>2022-12-16T13:30:27.947Z</time>
      </trkpt>
      <trkpt lat="47.29053" lon="-1.54917">
        <ele>66.754547</ele>
        <time>2022-12-16T13:30:30.932Z</time>
      </trkpt>
      <trkpt lat="47.29041" lon="-1.54921">
        <ele>66.933226</ele>
        <time>2022-12-16T13:30:34.943Z</time>
      </trkpt>
      <trkpt lat="47.29034" lon="-1.5493">
        <ele>67.082187</ele>
        <time>2022-12-16T13:30:41.950Z</time>
      </trkpt>
      <trkpt lat="47.29024" lon="-1.54933">
        <ele>67.237084</ele>
        <time>2022-12-16T13:30:46.931Z</time>
      </trkpt>
      <trkpt lat="47.29013" lon="-1.54934">
        <ele>67.413936</ele>
        <time>2022-12-16T13:30:49.952Z</time>
      </trkpt>
      <trkpt lat="47.29003" lon="-1.54941">
        <ele>67.58668</ele>
        <time>2022-12-16T13:30:52.932Z</time>
      </trkpt>
      <trkpt lat="47.28992" lon="-1.54939">
        <ele>67.7604</ele>
        <time>2022-12-16T13:30:56.943Z</time>
      </trkpt>
      <trkpt lat="47.28982" lon="-1.54932">
        <ele>67.931213</ele>
        <time>2022-12-16T13:30:59.926Z</time>
      </trkpt>
      <trkpt lat="47.28972" lon="-1.54929">
        <ele>68.093418</ele>
        <time>2022-12-16T13:31:02.939Z</time>
      </trkpt>
      <trkpt lat="47.28962" lon="-1.54927">
        <ele>68.245338</ele>
        <time>2022-12-16T13:31:06.954Z</time>
      </trkpt>
      <trkpt lat="47.2895" lon="-1.54925">
        <ele>68.427595</ele>
        <time>2022-12-16T13:31:10.932Z</time>
      </trkpt>
      <trkpt lat="47.28941" lon="-1.54925">
        <ele>68.57364</ele>
        <time>2022-12-16T13:31:13.951Z</time>
      </trkpt>
      <trkpt lat="47.28932" lon="-1.54926">
        <ele>68.718996</ele>
        <time>2022-12-16T13:31:16.954Z</time>
      </trkpt>
      <trkpt lat="47.2892" lon="-1.54929">
        <ele>68.905155</ele>
        <time>2022-12-16T13:31:20.938Z</time>
      </trkpt>
      <trkpt lat="47.2891" lon="-1.5493">
        <ele>69.056798</ele>
        <time>2022-12-16T13:31:23.939Z</time>
      </trkpt>
      <trkpt lat="47.289" lon="-1.54932">
        <ele>69.214729</ele>
        <time>2022-12-16T13:31:26.947Z</time>
      </trkpt>
      <trkpt lat="47.28889" lon="-1.54934">
        <ele>69.189707</ele>
        <time>2022-12-16T13:31:29.949Z</time>
      </trkpt>
      <trkpt lat="47.28878" lon="-1.54936">
        <ele>69.124167</ele>
        <time>2022-12-16T13:31:32.935Z</time>
      </trkpt>
      <trkpt lat="47.28867" lon="-1.54938">
        <ele>69.057901</ele>
        <time>2022-12-16T13:31:35.945Z</time>
      </trkpt>
      <trkpt lat="47.28856" lon="-1.54939">
        <ele>68.98686</ele>
        <time>2022-12-16T13:31:38.929Z</time>
      </trkpt>
      <trkpt lat="47.28844" lon="-1.54941">
        <ele>68.917438</ele>
        <time>2022-12-16T13:31:41.942Z</time>
      </trkpt>
      <trkpt lat="47.28832" lon="-1.54944">
        <ele>68.842293</ele>
        <time>2022-12-16T13:31:44.948Z</time>
      </trkpt>
      <trkpt lat="47.28819" lon="-1.54947">
        <ele>68.766162</ele>
        <time>2022-12-16T13:31:47.928Z</time>
      </trkpt>
      <trkpt lat="47.28808" lon="-1.54949">
        <ele>68.700492</ele>
        <time>2022-12-16T13:31:50.931Z</time>
      </trkpt>
      <trkpt lat="47.28797" lon="-1.5495">
        <ele>68.630292</ele>
        <time>2022-12-16T13:31:53.946Z</time>
      </trkpt>
      <trkpt lat="47.28786" lon="-1.54952">
        <ele>68.564095</ele>
        <time>2022-12-16T13:31:56.932Z</time>
      </trkpt>
      <trkpt lat="47.28775" lon="-1.54954">
        <ele>68.499577</ele>
        <time>2022-12-16T13:31:59.944Z</time>
      </trkpt>
      <trkpt lat="47.28763" lon="-1.54957">
        <ele>68.425358</ele>
        <time>2022-12-16T13:32:02.954Z</time>
      </trkpt>
      <trkpt lat="47.2875" lon="-1.54958">
        <ele>68.350286</ele>
        <time>2022-12-16T13:32:05.952Z</time>
      </trkpt>
      <trkpt lat="47.28739" lon="-1.54958">
        <ele>68.281942</ele>
        <time>2022-12-16T13:32:08.940Z</time>
      </trkpt>
      <trkpt lat="47.28727" lon="-1.54958">
        <ele>68.212397</ele>
        <time>2022-12-16T13:32:11.942Z</time>
      </trkpt>
      <trkpt lat="47.28717" lon="-1.54959">
        <ele>68.137693</ele>
        <time>2022-12-16T13:32:13.960Z</time>
      </trkpt>
      <trkpt lat="47.28706" lon="-1.54962">
        <ele>68.025216</ele>
        <time>2022-12-16T13:32:15.945Z</time>
      </trkpt>
      <trkpt lat="47.28695" lon="-1.54965">
        <ele>67.912343</ele>
        <time>2022-12-16T13:32:17.946Z</time>
      </trkpt>
      <trkpt lat="47.28685" lon="-1.54966">
        <ele>67.804489</ele>
        <time>2022-12-16T13:32:20.182Z</time>
      </trkpt>
      <trkpt lat="47.28674" lon="-1.54967">
        <ele>67.690665</ele>
        <time>2022-12-16T13:32:21.957Z</time>
      </trkpt>
      <trkpt lat="47.28663" lon="-1.54969">
        <ele>67.578774</ele>
        <time>2022-12-16T13:32:23.932Z</time>
      </trkpt>
      <trkpt lat="47.28653" lon="-1.5497">
        <ele>67.473452</ele>
        <time>2022-12-16T13:32:25.938Z</time>
      </trkpt>
      <trkpt lat="47.28643" lon="-1.54971">
        <ele>67.373049</ele>
        <time>2022-12-16T13:32:27.949Z</time>
      </trkpt>
      <trkpt lat="47.28631" lon="-1.54973">
        <ele>67.251638</ele>
        <time>2022-12-16T13:32:30.930Z</time>
      </trkpt>
      <trkpt lat="47.28623" lon="-1.54974">
        <ele>67.159159</ele>
        <time>2022-12-16T13:32:33.950Z</time>
      </trkpt>
      <trkpt lat="47.28613" lon="-1.54976">
        <ele>67.058228</ele>
        <time>2022-12-16T13:32:36.932Z</time>
      </trkpt>
      <trkpt lat="47.28603" lon="-1.54981">
        <ele>66.954323</ele>
        <time>2022-12-16T13:32:39.929Z</time>
      </trkpt>
      <trkpt lat="47.28596" lon="-1.54989">
        <ele>66.857561</ele>
        <time>2022-12-16T13:32:42.934Z</time>
      </trkpt>
      <trkpt lat="47.28588" lon="-1.55">
        <ele>66.747079</ele>
        <time>2022-12-16T13:32:46.942Z</time>
      </trkpt>
      <trkpt lat="47.28582" lon="-1.5501">
        <ele>66.652219</ele>
        <time>2022-12-16T13:32:50.929Z</time>
      </trkpt>
      <trkpt lat="47.28576" lon="-1.55025">
        <ele>66.530579</ele>
        <time>2022-12-16T13:32:54.930Z</time>
      </trkpt>
      <trkpt lat="47.2857" lon="-1.55039">
        <ele>66.415348</ele>
        <time>2022-12-16T13:32:58.929Z</time>
      </trkpt>
      <trkpt lat="47.28562" lon="-1.55047">
        <ele>66.315936</ele>
        <time>2022-12-16T13:33:02.931Z</time>
      </trkpt>
      <trkpt lat="47.28551" lon="-1.55049">
        <ele>66.448031</ele>
        <time>2022-12-16T13:33:07.948Z</time>
      </trkpt>
      <trkpt lat="47.28544" lon="-1.5504">
        <ele>66.565316</ele>
        <time>2022-12-16T13:33:10.932Z</time>
      </trkpt>
      <trkpt lat="47.28538" lon="-1.55028">
        <ele>66.704941</ele>
        <time>2022-12-16T13:33:14.938Z</time>
      </trkpt>
      <trkpt lat="47.2853" lon="-1.55021">
        <ele>66.82135</ele>
        <time>2022-12-16T13:33:18.943Z</time>
      </trkpt>
      <trkpt lat="47.28524" lon="-1.55009">
        <ele>66.95117</ele>
        <time>2022-12-16T13:33:22.933Z</time>
      </trkpt>
      <trkpt lat="47.28519" lon="-1.54995">
        <ele>67.084763</ele>
        <time>2022-12-16T13:33:26.953Z</time>
      </trkpt>
      <trkpt lat="47.28509" lon="-1.54985">
        <ele>67.240925</ele>
        <time>2022-12-16T13:33:30.934Z</time>
      </trkpt>
      <trkpt lat="47.28498" lon="-1.54982">
        <ele>67.38377</ele>
        <time>2022-12-16T13:33:33.939Z</time>
      </trkpt>
      <trkpt lat="47.28487" lon="-1.54984">
        <ele>67.528161</ele>
        <time>2022-12-16T13:33:36.930Z</time>
      </trkpt>
      <trkpt lat="47.28475" lon="-1.54984">
        <ele>67.679743</ele>
        <time>2022-12-16T13:33:39.932Z</time>
      </trkpt>
      <trkpt lat="47.28463" lon="-1.54984">
        <ele>67.83518</ele>
        <time>2022-12-16T13:33:42.950Z</time>
      </trkpt>
      <trkpt lat="47.28451" lon="-1.54984">
        <ele>67.997039</ele>
        <time>2022-12-16T13:33:45.960Z</time>
      </trkpt>
      <trkpt lat="47.28437" lon="-1.54984">
        <ele>68.170462</ele>
        <time>2022-12-16T13:33:48.946Z</time>
      </trkpt>
      <trkpt lat="47.28424" lon="-1.54983">
        <ele>68.341349</ele>
        <time>2022-12-16T13:33:51.948Z</time>
      </trkpt>
      <trkpt lat="47.28415" lon="-1.54982">
        <ele>68.459792</ele>
        <time>2022-12-16T13:33:53.956Z</time>
      </trkpt>
      <trkpt lat="47.28406" lon="-1.54981">
        <ele>68.576142</ele>
        <time>2022-12-16T13:33:55.942Z</time>
      </trkpt>
      <trkpt lat="47.28396" lon="-1.54981">
        <ele>68.637218</ele>
        <time>2022-12-16T13:33:57.945Z</time>
      </trkpt>
      <trkpt lat="47.28387" lon="-1.5498">
        <ele>68.664121</ele>
        <time>2022-12-16T13:33:59.932Z</time>
      </trkpt>
      <trkpt lat="47.28378" lon="-1.54979">
        <ele>68.689602</ele>
        <time>2022-12-16T13:34:01.952Z</time>
      </trkpt>
      <trkpt lat="47.28365" lon="-1.54978">
        <ele>68.725115</ele>
        <time>2022-12-16T13:34:04.951Z</time>
      </trkpt>
      <trkpt lat="47.28353" lon="-1.54977">
        <ele>68.75837</ele>
        <time>2022-12-16T13:34:07.954Z</time>
      </trkpt>
      <trkpt lat="47.28342" lon="-1.54976">
        <ele>68.788071</ele>
        <time>2022-12-16T13:34:10.927Z</time>
      </trkpt>
      <trkpt lat="47.28333" lon="-1.54975">
        <ele>68.814084</ele>
        <time>2022-12-16T13:34:13.948Z</time>
      </trkpt>
      <trkpt lat="47.28323" lon="-1.54975">
        <ele>68.841728</ele>
        <time>2022-12-16T13:34:16.950Z</time>
      </trkpt>
      <trkpt lat="47.28313" lon="-1.54976">
        <ele>68.869204</ele>
        <time>2022-12-16T13:34:19.959Z</time>
      </trkpt>
      <trkpt lat="47.28305" lon="-1.54985">
        <ele>68.897087</ele>
        <time>2022-12-16T13:34:22.929Z</time>
      </trkpt>
      <trkpt lat="47.28295" lon="-1.54989">
        <ele>68.926661</ele>
        <time>2022-12-16T13:34:26.928Z</time>
      </trkpt>
      <trkpt lat="47.28284" lon="-1.54984">
        <ele>68.959283</ele>
        <time>2022-12-16T13:34:30.945Z</time>
      </trkpt>
      <trkpt lat="47.28274" lon="-1.54977">
        <ele>68.990293</ele>
        <time>2022-12-16T13:34:33.930Z</time>
      </trkpt>
      <trkpt lat="47.28263" lon="-1.54973">
        <ele>69.02117</ele>
        <time>2022-12-16T13:34:36.928Z</time>
      </trkpt>
      <trkpt lat="47.28252" lon="-1.54972">
        <ele>69.052527</ele>
        <time>2022-12-16T13:34:39.931Z</time>
      </trkpt>
      <trkpt lat="47.2824" lon="-1.5497">
        <ele>69.085715</ele>
        <time>2022-12-16T13:34:42.948Z</time>
      </trkpt>
      <trkpt lat="47.28228" lon="-1.54968">
        <ele>69.11936</ele>
        <time>2022-12-16T13:34:45.964Z</time>
      </trkpt>
      <trkpt lat="47.28217" lon="-1.54966">
        <ele>69.093892</ele>
        <time>2022-12-16T13:34:48.944Z</time>
      </trkpt>
      <trkpt lat="47.28207" lon="-1.54965">
        <ele>69.062167</ele>
        <time>2022-12-16T13:34:51.952Z</time>
      </trkpt>
      <trkpt lat="47.28197" lon="-1.54962">
        <ele>69.032238</ele>
        <time>2022-12-16T13:34:54.958Z</time>
      </trkpt>
      <trkpt lat="47.28187" lon="-1.5496">
        <ele>69.002214</ele>
        <time>2022-12-16T13:34:57.941Z</time>
      </trkpt>
      <trkpt lat="47.28178" lon="-1.54958">
        <ele>68.973689</ele>
        <time>2022-12-16T13:35:00.928Z</time>
      </trkpt>
      <trkpt lat="47.28168" lon="-1.54956">
        <ele>68.942435</ele>
        <time>2022-12-16T13:35:03.947Z</time>
      </trkpt>
      <trkpt lat="47.28157" lon="-1.54953">
        <ele>68.908958</ele>
        <time>2022-12-16T13:35:06.940Z</time>
      </trkpt>
      <trkpt lat="47.28145" lon="-1.5495">
        <ele>68.872505</ele>
        <time>2022-12-16T13:35:09.947Z</time>
      </trkpt>
      <trkpt lat="47.28133" lon="-1.54946">
        <ele>68.834908</ele>
        <time>2022-12-16T13:35:12.952Z</time>
      </trkpt>
      <trkpt lat="47.28121" lon="-1.54942">
        <ele>68.797607</ele>
        <time>2022-12-16T13:35:15.964Z</time>
      </trkpt>
      <trkpt lat="47.28109" lon="-1.54938">
        <ele>68.760559</ele>
        <time>2022-12-16T13:35:18.953Z</time>
      </trkpt>
      <trkpt lat="47.28097" lon="-1.54934">
        <ele>68.72346</ele>
        <time>2022-12-16T13:35:21.943Z</time>
      </trkpt>
      <trkpt lat="47.28085" lon="-1.54931">
        <ele>68.685182</ele>
        <time>2022-12-16T13:35:24.954Z</time>
      </trkpt>
      <trkpt lat="47.28072" lon="-1.54927">
        <ele>68.646698</ele>
        <time>2022-12-16T13:35:27.947Z</time>
      </trkpt>
      <trkpt lat="47.2806" lon="-1.54923">
        <ele>68.609528</ele>
        <time>2022-12-16T13:35:30.931Z</time>
      </trkpt>
      <trkpt lat="47.28049" lon="-1.54919">
        <ele>68.614706</ele>
        <time>2022-12-16T13:35:33.939Z</time>
      </trkpt>
      <trkpt lat="47.28038" lon="-1.54916">
        <ele>68.923613</ele>
        <time>2022-12-16T13:35:36.941Z</time>
      </trkpt>
      <trkpt lat="47.28026" lon="-1.54912">
        <ele>69.236743</ele>
        <time>2022-12-16T13:35:39.948Z</time>
      </trkpt>
      <trkpt lat="47.28016" lon="-1.5491">
        <ele>69.505473</ele>
        <time>2022-12-16T13:35:42.966Z</time>
      </trkpt>
      <trkpt lat="47.28007" lon="-1.54907">
        <ele>69.753448</ele>
        <time>2022-12-16T13:35:45.934Z</time>
      </trkpt>
      <trkpt lat="47.27998" lon="-1.54904">
        <ele>70.015565</ele>
        <time>2022-12-16T13:35:48.952Z</time>
      </trkpt>
      <trkpt lat="47.27987" lon="-1.54901">
        <ele>70.308671</ele>
        <time>2022-12-16T13:35:52.942Z</time>
      </trkpt>
      <trkpt lat="47.27975" lon="-1.54897">
        <ele>70.631209</ele>
        <time>2022-12-16T13:35:56.946Z</time>
      </trkpt>
      <trkpt lat="47.27965" lon="-1.54895">
        <ele>70.895612</ele>
        <time>2022-12-16T13:35:59.959Z</time>
      </trkpt>
      <trkpt lat="47.27956" lon="-1.54892">
        <ele>71.154414</ele>
        <time>2022-12-16T13:36:02.955Z</time>
      </trkpt>
      <trkpt lat="47.27946" lon="-1.54889">
        <ele>71.418038</ele>
        <time>2022-12-16T13:36:05.948Z</time>
      </trkpt>
      <trkpt lat="47.27937" lon="-1.54886">
        <ele>71.681268</ele>
        <time>2022-12-16T13:36:08.952Z</time>
      </trkpt>
      <trkpt lat="47.27927" lon="-1.54883">
        <ele>71.932523</ele>
        <time>2022-12-16T13:36:11.945Z</time>
      </trkpt>
      <trkpt lat="47.27916" lon="-1.5488">
        <ele>72.237103</ele>
        <time>2022-12-16T13:36:15.960Z</time>
      </trkpt>
      <trkpt lat="47.27905" lon="-1.54877">
        <ele>72.54372</ele>
        <time>2022-12-16T13:36:19.945Z</time>
      </trkpt>
      <trkpt lat="47.27894" lon="-1.54875">
        <ele>72.827069</ele>
        <time>2022-12-16T13:36:23.943Z</time>
      </trkpt>
      <trkpt lat="47.27885" lon="-1.54873">
        <ele>73.07644</ele>
        <time>2022-12-16T13:36:27.948Z</time>
      </trkpt>
      <trkpt lat="47.27876" lon="-1.5487">
        <ele>73.340192</ele>
        <time>2022-12-16T13:36:31.964Z</time>
      </trkpt>
      <trkpt lat="47.27866" lon="-1.54866">
        <ele>73.670052</ele>
        <time>2022-12-16T13:36:35.956Z</time>
      </trkpt>
      <trkpt lat="47.27857" lon="-1.54864">
        <ele>74.021974</ele>
        <time>2022-12-16T13:36:39.941Z</time>
      </trkpt>
      <trkpt lat="47.27847" lon="-1.54861">
        <ele>74.392886</ele>
        <time>2022-12-16T13:36:43.935Z</time>
      </trkpt>
      <trkpt lat="47.27838" lon="-1.54858">
        <ele>74.753501</ele>
        <time>2022-12-16T13:36:47.948Z</time>
      </trkpt>
      <trkpt lat="47.27828" lon="-1.54856">
        <ele>75.114144</ele>
        <time>2022-12-16T13:36:51.938Z</time>
      </trkpt>
      <trkpt lat="47.27819" lon="-1.54852">
        <ele>75.448445</ele>
        <time>2022-12-16T13:36:55.957Z</time>
      </trkpt>
      <trkpt lat="47.2781" lon="-1.5485">
        <ele>75.79094</ele>
        <time>2022-12-16T13:36:59.930Z</time>
      </trkpt>
      <trkpt lat="47.27801" lon="-1.54847">
        <ele>76.133602</ele>
        <time>2022-12-16T13:37:03.952Z</time>
      </trkpt>
      <trkpt lat="47.27791" lon="-1.54845">
        <ele>76.481929</ele>
        <time>2022-12-16T13:37:07.954Z</time>
      </trkpt>
      <trkpt lat="47.27782" lon="-1.54842">
        <ele>76.824591</ele>
        <time>2022-12-16T13:37:11.950Z</time>
      </trkpt>
      <trkpt lat="47.27773" lon="-1.54839">
        <ele>77.163668</ele>
        <time>2022-12-16T13:37:15.939Z</time>
      </trkpt>
      <trkpt lat="47.27764" lon="-1.54837">
        <ele>77.517857</ele>
        <time>2022-12-16T13:37:19.951Z</time>
      </trkpt>
      <trkpt lat="47.27754" lon="-1.54833">
        <ele>77.883677</ele>
        <time>2022-12-16T13:37:23.950Z</time>
      </trkpt>
      <trkpt lat="47.27743" lon="-1.54831">
        <ele>78.278555</ele>
        <time>2022-12-16T13:37:27.949Z</time>
      </trkpt>
      <trkpt lat="47.27732" lon="-1.54827">
        <ele>78.699273</ele>
        <time>2022-12-16T13:37:31.949Z</time>
      </trkpt>
      <trkpt lat="47.27721" lon="-1.54825">
        <ele>79.12541</ele>
        <time>2022-12-16T13:37:35.948Z</time>
      </trkpt>
      <trkpt lat="47.27709" lon="-1.54822">
        <ele>79.546902</ele>
        <time>2022-12-16T13:37:39.930Z</time>
      </trkpt>
      <trkpt lat="47.27698" lon="-1.5482">
        <ele>79.955169</ele>
        <time>2022-12-16T13:37:43.948Z</time>
      </trkpt>
      <trkpt lat="47.27688" lon="-1.54817">
        <ele>79.917563</ele>
        <time>2022-12-16T13:37:47.944Z</time>
      </trkpt>
      <trkpt lat="47.27676" lon="-1.54815">
        <ele>79.806565</ele>
        <time>2022-12-16T13:37:51.947Z</time>
      </trkpt>
      <trkpt lat="47.27665" lon="-1.54814">
        <ele>79.693511</ele>
        <time>2022-12-16T13:37:55.953Z</time>
      </trkpt>
      <trkpt lat="47.27654" lon="-1.54814">
        <ele>79.591006</ele>
        <time>2022-12-16T13:37:59.960Z</time>
      </trkpt>
      <trkpt lat="47.27644" lon="-1.5482">
        <ele>79.488594</ele>
        <time>2022-12-16T13:38:04.931Z</time>
      </trkpt>
      <trkpt lat="47.27634" lon="-1.54824">
        <ele>79.391368</ele>
        <time>2022-12-16T13:38:09.951Z</time>
      </trkpt>
      <trkpt lat="47.27624" lon="-1.54828">
        <ele>79.291195</ele>
        <time>2022-12-16T13:38:13.930Z</time>
      </trkpt>
      <trkpt lat="47.27614" lon="-1.54829">
        <ele>79.201796</ele>
        <time>2022-12-16T13:38:16.949Z</time>
      </trkpt>
      <trkpt lat="47.27604" lon="-1.54824">
        <ele>79.100883</ele>
        <time>2022-12-16T13:38:20.936Z</time>
      </trkpt>
      <trkpt lat="47.27595" lon="-1.54815">
        <ele>79.003325</ele>
        <time>2022-12-16T13:38:24.934Z</time>
      </trkpt>
      <trkpt lat="47.27592" lon="-1.54802">
        <ele>78.911206</ele>
        <time>2022-12-16T13:38:28.938Z</time>
      </trkpt>
      <trkpt lat="47.27586" lon="-1.54787">
        <ele>78.799702</ele>
        <time>2022-12-16T13:38:32.938Z</time>
      </trkpt>
      <trkpt lat="47.27579" lon="-1.54778">
        <ele>78.711664</ele>
        <time>2022-12-16T13:38:35.928Z</time>
      </trkpt>
      <trkpt lat="47.27571" lon="-1.54772">
        <ele>78.623564</ele>
        <time>2022-12-16T13:38:38.933Z</time>
      </trkpt>
      <trkpt lat="47.27562" lon="-1.54769">
        <ele>78.537387</ele>
        <time>2022-12-16T13:38:41.938Z</time>
      </trkpt>
      <trkpt lat="47.27552" lon="-1.54767">
        <ele>78.446735</ele>
        <time>2022-12-16T13:38:44.931Z</time>
      </trkpt>
      <trkpt lat="47.27543" lon="-1.54764">
        <ele>78.352346</ele>
        <time>2022-12-16T13:38:47.939Z</time>
      </trkpt>
      <trkpt lat="47.27532" lon="-1.54761">
        <ele>78.112637</ele>
        <time>2022-12-16T13:38:50.930Z</time>
      </trkpt>
      <trkpt lat="47.27521" lon="-1.54759">
        <ele>77.673813</ele>
        <time>2022-12-16T13:38:53.954Z</time>
      </trkpt>
      <trkpt lat="47.27509" lon="-1.54755">
        <ele>77.215643</ele>
        <time>2022-12-16T13:38:56.950Z</time>
      </trkpt>
      <trkpt lat="47.27498" lon="-1.54753">
        <ele>76.788991</ele>
        <time>2022-12-16T13:38:59.951Z</time>
      </trkpt>
      <trkpt lat="47.27486" lon="-1.54751">
        <ele>76.325758</ele>
        <time>2022-12-16T13:39:02.955Z</time>
      </trkpt>
      <trkpt lat="47.27474" lon="-1.54749">
        <ele>75.853225</ele>
        <time>2022-12-16T13:39:05.947Z</time>
      </trkpt>
      <trkpt lat="47.27462" lon="-1.5475">
        <ele>75.407797</ele>
        <time>2022-12-16T13:39:08.940Z</time>
      </trkpt>
      <trkpt lat="47.27451" lon="-1.54756">
        <ele>74.954429</ele>
        <time>2022-12-16T13:39:11.933Z</time>
      </trkpt>
      <trkpt lat="47.27441" lon="-1.54766">
        <ele>74.496028</ele>
        <time>2022-12-16T13:39:14.933Z</time>
      </trkpt>
      <trkpt lat="47.27431" lon="-1.54773">
        <ele>74.048318</ele>
        <time>2022-12-16T13:39:17.937Z</time>
      </trkpt>
      <trkpt lat="47.27421" lon="-1.54779">
        <ele>73.643494</ele>
        <time>2022-12-16T13:39:20.932Z</time>
      </trkpt>
      <trkpt lat="47.27412" lon="-1.54779">
        <ele>73.290788</ele>
        <time>2022-12-16T13:39:23.942Z</time>
      </trkpt>
      <trkpt lat="47.27403" lon="-1.54772">
        <ele>72.900695</ele>
        <time>2022-12-16T13:39:26.933Z</time>
      </trkpt>
      <trkpt lat="47.27393" lon="-1.54762">
        <ele>72.451351</ele>
        <time>2022-12-16T13:39:29.928Z</time>
      </trkpt>
      <trkpt lat="47.27384" lon="-1.54749">
        <ele>71.976479</ele>
        <time>2022-12-16T13:39:32.933Z</time>
      </trkpt>
      <trkpt lat="47.27378" lon="-1.5474">
        <ele>71.628283</ele>
        <time>2022-12-16T13:39:34.946Z</time>
      </trkpt>
      <trkpt lat="47.27368" lon="-1.54728">
        <ele>71.323255</ele>
        <time>2022-12-16T13:39:37.948Z</time>
      </trkpt>
      <trkpt lat="47.27358" lon="-1.54719">
        <ele>71.18153</ele>
        <time>2022-12-16T13:39:40.927Z</time>
      </trkpt>
      <trkpt lat="47.27348" lon="-1.54714">
        <ele>71.06139</ele>
        <time>2022-12-16T13:39:42.933Z</time>
      </trkpt>
      <trkpt lat="47.27338" lon="-1.5471">
        <ele>70.934452</ele>
        <time>2022-12-16T13:39:44.932Z</time>
      </trkpt>
      <trkpt lat="47.27327" lon="-1.54706">
        <ele>70.798244</ele>
        <time>2022-12-16T13:39:46.956Z</time>
      </trkpt>
      <trkpt lat="47.27316" lon="-1.54703">
        <ele>70.671428</ele>
        <time>2022-12-16T13:39:48.931Z</time>
      </trkpt>
      <trkpt lat="47.27306" lon="-1.547">
        <ele>70.547114</ele>
        <time>2022-12-16T13:39:50.928Z</time>
      </trkpt>
      <trkpt lat="47.27296" lon="-1.54697">
        <ele>70.422801</ele>
        <time>2022-12-16T13:39:52.939Z</time>
      </trkpt>
      <trkpt lat="47.27286" lon="-1.54693">
        <ele>70.300688</ele>
        <time>2022-12-16T13:39:54.953Z</time>
      </trkpt>
      <trkpt lat="47.27277" lon="-1.54689">
        <ele>70.185913</ele>
        <time>2022-12-16T13:39:56.939Z</time>
      </trkpt>
      <trkpt lat="47.27267" lon="-1.54687">
        <ele>70.070184</ele>
        <time>2022-12-16T13:39:58.953Z</time>
      </trkpt>
      <trkpt lat="47.27258" lon="-1.54685">
        <ele>69.962722</ele>
        <time>2022-12-16T13:40:00.933Z</time>
      </trkpt>
      <trkpt lat="47.27249" lon="-1.54684">
        <ele>69.849773</ele>
        <time>2022-12-16T13:40:02.952Z</time>
      </trkpt>
      <trkpt lat="47.27236" lon="-1.54679">
        <ele>69.696557</ele>
        <time>2022-12-16T13:40:05.953Z</time>
      </trkpt>
      <trkpt lat="47.27225" lon="-1.54675">
        <ele>69.553191</ele>
        <time>2022-12-16T13:40:08.950Z</time>
      </trkpt>
      <trkpt lat="47.27214" lon="-1.54672">
        <ele>69.416531</ele>
        <time>2022-12-16T13:40:11.952Z</time>
      </trkpt>
      <trkpt lat="47.27202" lon="-1.54669">
        <ele>69.277401</ele>
        <time>2022-12-16T13:40:14.950Z</time>
      </trkpt>
      <trkpt lat="47.27189" lon="-1.54667">
        <ele>69.390301</ele>
        <time>2022-12-16T13:40:17.948Z</time>
      </trkpt>
      <trkpt lat="47.2718" lon="-1.54664">
        <ele>69.498187</ele>
        <time>2022-12-16T13:40:19.945Z</time>
      </trkpt>
      <trkpt lat="47.27168" lon="-1.54659">
        <ele>69.646793</ele>
        <time>2022-12-16T13:40:22.944Z</time>
      </trkpt>
      <trkpt lat="47.27155" lon="-1.54656">
        <ele>69.80155</ele>
        <time>2022-12-16T13:40:25.946Z</time>
      </trkpt>
      <trkpt lat="47.27142" lon="-1.5465">
        <ele>69.957687</ele>
        <time>2022-12-16T13:40:28.947Z</time>
      </trkpt>
      <trkpt lat="47.27128" lon="-1.54646">
        <ele>70.122704</ele>
        <time>2022-12-16T13:40:31.933Z</time>
      </trkpt>
      <trkpt lat="47.27118" lon="-1.54643">
        <ele>70.239456</ele>
        <time>2022-12-16T13:40:33.935Z</time>
      </trkpt>
      <trkpt lat="47.27108" lon="-1.5464">
        <ele>70.359125</ele>
        <time>2022-12-16T13:40:35.932Z</time>
      </trkpt>
      <trkpt lat="47.27099" lon="-1.54637">
        <ele>70.46887</ele>
        <time>2022-12-16T13:40:37.923Z</time>
      </trkpt>
      <trkpt lat="47.27089" lon="-1.54634">
        <ele>70.586248</ele>
        <time>2022-12-16T13:40:39.928Z</time>
      </trkpt>
      <trkpt lat="47.27079" lon="-1.54631">
        <ele>70.70401</ele>
        <time>2022-12-16T13:40:41.942Z</time>
      </trkpt>
      <trkpt lat="47.27066" lon="-1.54627">
        <ele>70.859213</ele>
        <time>2022-12-16T13:40:44.925Z</time>
      </trkpt>
      <trkpt lat="47.27054" lon="-1.54624">
        <ele>71.010751</ele>
        <time>2022-12-16T13:40:47.953Z</time>
      </trkpt>
      <trkpt lat="47.27042" lon="-1.54624">
        <ele>71.143167</ele>
        <time>2022-12-16T13:40:50.935Z</time>
      </trkpt>
      <trkpt lat="47.27032" lon="-1.54621">
        <ele>71.269914</ele>
        <time>2022-12-16T13:40:53.934Z</time>
      </trkpt>
      <trkpt lat="47.2702" lon="-1.54621">
        <ele>71.349512</ele>
        <time>2022-12-16T13:40:56.932Z</time>
      </trkpt>
      <trkpt lat="47.27008" lon="-1.5462">
        <ele>71.301216</ele>
        <time>2022-12-16T13:40:59.958Z</time>
      </trkpt>
      <trkpt lat="47.26996" lon="-1.5462">
        <ele>71.254513</ele>
        <time>2022-12-16T13:41:02.933Z</time>
      </trkpt>
      <trkpt lat="47.26983" lon="-1.54621">
        <ele>71.201114</ele>
        <time>2022-12-16T13:41:05.951Z</time>
      </trkpt>
      <trkpt lat="47.26973" lon="-1.54621">
        <ele>71.162349</ele>
        <time>2022-12-16T13:41:07.953Z</time>
      </trkpt>
      <trkpt lat="47.26964" lon="-1.54622">
        <ele>71.126312</ele>
        <time>2022-12-16T13:41:09.957Z</time>
      </trkpt>
      <trkpt lat="47.26955" lon="-1.54623">
        <ele>71.088498</ele>
        <time>2022-12-16T13:41:11.948Z</time>
      </trkpt>
      <trkpt lat="47.26941" lon="-1.54624">
        <ele>71.035108</ele>
        <time>2022-12-16T13:41:14.951Z</time>
      </trkpt>
      <trkpt lat="47.26931" lon="-1.54625">
        <ele>70.995036</ele>
        <time>2022-12-16T13:41:17.953Z</time>
      </trkpt>
      <trkpt lat="47.2692" lon="-1.54625">
        <ele>70.951139</ele>
        <time>2022-12-16T13:41:20.924Z</time>
      </trkpt>
      <trkpt lat="47.26908" lon="-1.54625">
        <ele>70.904866</ele>
        <time>2022-12-16T13:41:23.951Z</time>
      </trkpt>
      <trkpt lat="47.26897" lon="-1.54625">
        <ele>70.858978</ele>
        <time>2022-12-16T13:41:26.947Z</time>
      </trkpt>
      <trkpt lat="47.26885" lon="-1.54621">
        <ele>70.812593</ele>
        <time>2022-12-16T13:41:29.935Z</time>
      </trkpt>
      <trkpt lat="47.26872" lon="-1.54616">
        <ele>70.75946</ele>
        <time>2022-12-16T13:41:32.949Z</time>
      </trkpt>
      <trkpt lat="47.26863" lon="-1.54612">
        <ele>70.721039</ele>
        <time>2022-12-16T13:41:34.954Z</time>
      </trkpt>
      <trkpt lat="47.26854" lon="-1.54607">
        <ele>70.685229</ele>
        <time>2022-12-16T13:41:36.956Z</time>
      </trkpt>
      <trkpt lat="47.26842" lon="-1.54604">
        <ele>70.557298</ele>
        <time>2022-12-16T13:41:39.950Z</time>
      </trkpt>
      <trkpt lat="47.26829" lon="-1.54604">
        <ele>70.295976</ele>
        <time>2022-12-16T13:41:42.932Z</time>
      </trkpt>
      <trkpt lat="47.26819" lon="-1.54603">
        <ele>70.077587</ele>
        <time>2022-12-16T13:41:45.929Z</time>
      </trkpt>
      <trkpt lat="47.2681" lon="-1.54604">
        <ele>69.865378</ele>
        <time>2022-12-16T13:41:48.939Z</time>
      </trkpt>
      <trkpt lat="47.26798" lon="-1.54604">
        <ele>69.617007</ele>
        <time>2022-12-16T13:41:51.946Z</time>
      </trkpt>
      <trkpt lat="47.26787" lon="-1.54603">
        <ele>69.369607</ele>
        <time>2022-12-16T13:41:54.956Z</time>
      </trkpt>
      <trkpt lat="47.26775" lon="-1.54603">
        <ele>69.127672</ele>
        <time>2022-12-16T13:41:57.939Z</time>
      </trkpt>
      <trkpt lat="47.26763" lon="-1.54604">
        <ele>68.851204</ele>
        <time>2022-12-16T13:42:00.933Z</time>
      </trkpt>
      <trkpt lat="47.26754" lon="-1.54604">
        <ele>68.656875</ele>
        <time>2022-12-16T13:42:02.932Z</time>
      </trkpt>
      <trkpt lat="47.26744" lon="-1.54603">
        <ele>68.456026</ele>
        <time>2022-12-16T13:42:04.952Z</time>
      </trkpt>
      <trkpt lat="47.26732" lon="-1.54603">
        <ele>68.19477</ele>
        <time>2022-12-16T13:42:07.957Z</time>
      </trkpt>
      <trkpt lat="47.26721" lon="-1.54605">
        <ele>67.957782</ele>
        <time>2022-12-16T13:42:10.934Z</time>
      </trkpt>
      <trkpt lat="47.2671" lon="-1.54607">
        <ele>67.708234</ele>
        <time>2022-12-16T13:42:13.940Z</time>
      </trkpt>
      <trkpt lat="47.26698" lon="-1.54609">
        <ele>67.45392</ele>
        <time>2022-12-16T13:42:16.936Z</time>
      </trkpt>
      <trkpt lat="47.26686" lon="-1.54612">
        <ele>67.179006</ele>
        <time>2022-12-16T13:42:19.936Z</time>
      </trkpt>
      <trkpt lat="47.26672" lon="-1.54613">
        <ele>66.888847</ele>
        <time>2022-12-16T13:42:22.935Z</time>
      </trkpt>
      <trkpt lat="47.26658" lon="-1.54615">
        <ele>66.49267</ele>
        <time>2022-12-16T13:42:25.950Z</time>
      </trkpt>
      <trkpt lat="47.26646" lon="-1.54619">
        <ele>66.058152</ele>
        <time>2022-12-16T13:42:28.952Z</time>
      </trkpt>
      <trkpt lat="47.26636" lon="-1.54621">
        <ele>65.728261</ele>
        <time>2022-12-16T13:42:30.933Z</time>
      </trkpt>
      <trkpt lat="47.26622" lon="-1.54625">
        <ele>65.277387</ele>
        <time>2022-12-16T13:42:33.959Z</time>
      </trkpt>
      <trkpt lat="47.26609" lon="-1.54629">
        <ele>64.818225</ele>
        <time>2022-12-16T13:42:36.948Z</time>
      </trkpt>
      <trkpt lat="47.26599" lon="-1.54632">
        <ele>64.492021</ele>
        <time>2022-12-16T13:42:38.960Z</time>
      </trkpt>
      <trkpt lat="47.2659" lon="-1.54636">
        <ele>64.16089</ele>
        <time>2022-12-16T13:42:40.934Z</time>
      </trkpt>
      <trkpt lat="47.2658" lon="-1.5464">
        <ele>63.807188</ele>
        <time>2022-12-16T13:42:42.950Z</time>
      </trkpt>
      <trkpt lat="47.26569" lon="-1.54645">
        <ele>63.443467</ele>
        <time>2022-12-16T13:42:44.957Z</time>
      </trkpt>
      <trkpt lat="47.26558" lon="-1.5465">
        <ele>63.068147</ele>
        <time>2022-12-16T13:42:46.947Z</time>
      </trkpt>
      <trkpt lat="47.26548" lon="-1.54655">
        <ele>62.716374</ele>
        <time>2022-12-16T13:42:48.951Z</time>
      </trkpt>
      <trkpt lat="47.26538" lon="-1.5466">
        <ele>62.356834</ele>
        <time>2022-12-16T13:42:50.936Z</time>
      </trkpt>
      <trkpt lat="47.26529" lon="-1.54666">
        <ele>62.014285</ele>
        <time>2022-12-16T13:42:52.952Z</time>
      </trkpt>
      <trkpt lat="47.26518" lon="-1.54672">
        <ele>61.646975</ele>
        <time>2022-12-16T13:42:54.957Z</time>
      </trkpt>
      <trkpt lat="47.26509" lon="-1.54676">
        <ele>61.303664</ele>
        <time>2022-12-16T13:42:56.950Z</time>
      </trkpt>
      <trkpt lat="47.26498" lon="-1.54682">
        <ele>60.927001</ele>
        <time>2022-12-16T13:42:58.941Z</time>
      </trkpt>
      <trkpt lat="47.26488" lon="-1.54689">
        <ele>60.541831</ele>
        <time>2022-12-16T13:43:00.931Z</time>
      </trkpt>
      <trkpt lat="47.26479" lon="-1.54694">
        <ele>60.147935</ele>
        <time>2022-12-16T13:43:02.943Z</time>
      </trkpt>
      <trkpt lat="47.26469" lon="-1.547">
        <ele>59.763734</ele>
        <time>2022-12-16T13:43:04.953Z</time>
      </trkpt>
      <trkpt lat="47.2646" lon="-1.54706">
        <ele>59.366645</ele>
        <time>2022-12-16T13:43:06.936Z</time>
      </trkpt>
      <trkpt lat="47.26452" lon="-1.54714">
        <ele>58.989095</ele>
        <time>2022-12-16T13:43:08.951Z</time>
      </trkpt>
      <trkpt lat="47.26443" lon="-1.54721">
        <ele>58.612113</ele>
        <time>2022-12-16T13:43:10.935Z</time>
      </trkpt>
      <trkpt lat="47.26435" lon="-1.54729">
        <ele>58.243487</ele>
        <time>2022-12-16T13:43:12.950Z</time>
      </trkpt>
      <trkpt lat="47.26427" lon="-1.54737">
        <ele>57.850934</ele>
        <time>2022-12-16T13:43:14.950Z</time>
      </trkpt>
      <trkpt lat="47.26418" lon="-1.54745">
        <ele>57.479948</ele>
        <time>2022-12-16T13:43:16.932Z</time>
      </trkpt>
      <trkpt lat="47.26408" lon="-1.54757">
        <ele>56.982158</ele>
        <time>2022-12-16T13:43:19.949Z</time>
      </trkpt>
      <trkpt lat="47.26401" lon="-1.54766">
        <ele>56.608532</ele>
        <time>2022-12-16T13:43:21.946Z</time>
      </trkpt>
      <trkpt lat="47.26393" lon="-1.54776">
        <ele>56.226307</ele>
        <time>2022-12-16T13:43:23.951Z</time>
      </trkpt>
      <trkpt lat="47.26385" lon="-1.54785">
        <ele>55.839911</ele>
        <time>2022-12-16T13:43:25.943Z</time>
      </trkpt>
      <trkpt lat="47.26377" lon="-1.54794">
        <ele>55.464297</ele>
        <time>2022-12-16T13:43:27.937Z</time>
      </trkpt>
      <trkpt lat="47.2637" lon="-1.54802">
        <ele>55.100985</ele>
        <time>2022-12-16T13:43:29.957Z</time>
      </trkpt>
      <trkpt lat="47.26362" lon="-1.54812">
        <ele>54.714776</ele>
        <time>2022-12-16T13:43:31.935Z</time>
      </trkpt>
      <trkpt lat="47.26356" lon="-1.54823">
        <ele>54.350537</ele>
        <time>2022-12-16T13:43:33.931Z</time>
      </trkpt>
      <trkpt lat="47.26352" lon="-1.54838">
        <ele>53.935107</ele>
        <time>2022-12-16T13:43:36.938Z</time>
      </trkpt>
      <trkpt lat="47.26349" lon="-1.54853">
        <ele>53.726007</ele>
        <time>2022-12-16T13:43:40.933Z</time>
      </trkpt>
      <trkpt lat="47.26344" lon="-1.54866">
        <ele>53.550566</ele>
        <time>2022-12-16T13:43:44.962Z</time>
      </trkpt>
      <trkpt lat="47.26333" lon="-1.54868">
        <ele>53.360529</ele>
        <time>2022-12-16T13:43:48.940Z</time>
      </trkpt>
      <trkpt lat="47.26322" lon="-1.5487">
        <ele>53.154749</ele>
        <time>2022-12-16T13:43:52.938Z</time>
      </trkpt>
      <trkpt lat="47.26312" lon="-1.54876">
        <ele>52.974542</ele>
        <time>2022-12-16T13:43:55.945Z</time>
      </trkpt>
      <trkpt lat="47.26302" lon="-1.54884">
        <ele>52.779555</ele>
        <time>2022-12-16T13:43:58.935Z</time>
      </trkpt>
      <trkpt lat="47.26292" lon="-1.54895">
        <ele>52.569885</ele>
        <time>2022-12-16T13:44:01.944Z</time>
      </trkpt>
      <trkpt lat="47.26282" lon="-1.54908">
        <ele>52.336563</ele>
        <time>2022-12-16T13:44:04.929Z</time>
      </trkpt>
      <trkpt lat="47.26275" lon="-1.54916">
        <ele>52.173387</ele>
        <time>2022-12-16T13:44:06.937Z</time>
      </trkpt>
      <trkpt lat="47.26267" lon="-1.54926">
        <ele>52.002813</ele>
        <time>2022-12-16T13:44:08.928Z</time>
      </trkpt>
      <trkpt lat="47.2626" lon="-1.54936">
        <ele>51.825239</ele>
        <time>2022-12-16T13:44:10.933Z</time>
      </trkpt>
      <trkpt lat="47.26253" lon="-1.54946">
        <ele>51.654473</ele>
        <time>2022-12-16T13:44:12.950Z</time>
      </trkpt>
      <trkpt lat="47.26245" lon="-1.54956">
        <ele>51.47948</ele>
        <time>2022-12-16T13:44:14.959Z</time>
      </trkpt>
      <trkpt lat="47.26238" lon="-1.54967">
        <ele>51.304133</ele>
        <time>2022-12-16T13:44:16.946Z</time>
      </trkpt>
      <trkpt lat="47.26232" lon="-1.54978">
        <ele>51.138434</ele>
        <time>2022-12-16T13:44:18.950Z</time>
      </trkpt>
      <trkpt lat="47.26225" lon="-1.5499">
        <ele>50.954661</ele>
        <time>2022-12-16T13:44:20.931Z</time>
      </trkpt>
      <trkpt lat="47.2622" lon="-1.55003">
        <ele>50.785791</ele>
        <time>2022-12-16T13:44:22.953Z</time>
      </trkpt>
      <trkpt lat="47.26213" lon="-1.55014">
        <ele>50.784729</ele>
        <time>2022-12-16T13:44:24.959Z</time>
      </trkpt>
      <trkpt lat="47.26207" lon="-1.55026">
        <ele>50.783693</ele>
        <time>2022-12-16T13:44:26.942Z</time>
      </trkpt>
      <trkpt lat="47.26201" lon="-1.55037">
        <ele>50.782689</ele>
        <time>2022-12-16T13:44:28.946Z</time>
      </trkpt>
      <trkpt lat="47.26195" lon="-1.55049">
        <ele>50.781679</ele>
        <time>2022-12-16T13:44:30.928Z</time>
      </trkpt>
      <trkpt lat="47.2619" lon="-1.5506">
        <ele>50.780722</ele>
        <time>2022-12-16T13:44:32.932Z</time>
      </trkpt>
      <trkpt lat="47.26185" lon="-1.55071">
        <ele>50.77976</ele>
        <time>2022-12-16T13:44:34.930Z</time>
      </trkpt>
      <trkpt lat="47.2618" lon="-1.55082">
        <ele>50.778815</ele>
        <time>2022-12-16T13:44:36.939Z</time>
      </trkpt>
      <trkpt lat="47.26174" lon="-1.55093">
        <ele>50.777852</ele>
        <time>2022-12-16T13:44:38.956Z</time>
      </trkpt>
      <trkpt lat="47.26168" lon="-1.5511">
        <ele>50.776456</ele>
        <time>2022-12-16T13:44:41.960Z</time>
      </trkpt>
      <trkpt lat="47.26161" lon="-1.55127">
        <ele>50.775102</ele>
        <time>2022-12-16T13:44:44.954Z</time>
      </trkpt>
      <trkpt lat="47.26155" lon="-1.55143">
        <ele>50.773786</ele>
        <time>2022-12-16T13:44:47.955Z</time>
      </trkpt>
      <trkpt lat="47.26149" lon="-1.55159">
        <ele>50.772508</ele>
        <time>2022-12-16T13:44:50.932Z</time>
      </trkpt>
      <trkpt lat="47.26144" lon="-1.55174">
        <ele>50.771317</ele>
        <time>2022-12-16T13:44:53.942Z</time>
      </trkpt>
      <trkpt lat="47.26138" lon="-1.55189">
        <ele>50.770132</ele>
        <time>2022-12-16T13:44:56.949Z</time>
      </trkpt>
      <trkpt lat="47.26134" lon="-1.55203">
        <ele>50.76901</ele>
        <time>2022-12-16T13:44:59.940Z</time>
      </trkpt>
      <trkpt lat="47.2613" lon="-1.55216">
        <ele>50.768004</ele>
        <time>2022-12-16T13:45:02.952Z</time>
      </trkpt>
      <trkpt lat="47.26125" lon="-1.5523">
        <ele>50.75995</ele>
        <time>2022-12-16T13:45:05.953Z</time>
      </trkpt>
      <trkpt lat="47.26121" lon="-1.55244">
        <ele>50.725159</ele>
        <time>2022-12-16T13:45:08.951Z</time>
      </trkpt>
      <trkpt lat="47.26118" lon="-1.55259">
        <ele>50.687403</ele>
        <time>2022-12-16T13:45:11.949Z</time>
      </trkpt>
      <trkpt lat="47.26114" lon="-1.55274">
        <ele>50.650173</ele>
        <time>2022-12-16T13:45:14.938Z</time>
      </trkpt>
      <trkpt lat="47.26112" lon="-1.55287">
        <ele>50.619439</ele>
        <time>2022-12-16T13:45:17.941Z</time>
      </trkpt>
      <trkpt lat="47.26108" lon="-1.55301">
        <ele>50.58507</ele>
        <time>2022-12-16T13:45:21.944Z</time>
      </trkpt>
      <trkpt lat="47.26101" lon="-1.55314">
        <ele>50.547369</ele>
        <time>2022-12-16T13:45:26.940Z</time>
      </trkpt>
      <trkpt lat="47.26094" lon="-1.55328">
        <ele>50.506987</ele>
        <time>2022-12-16T13:45:30.928Z</time>
      </trkpt>
      <trkpt lat="47.26087" lon="-1.55341">
        <ele>50.468448</ele>
        <time>2022-12-16T13:45:33.953Z</time>
      </trkpt>
      <trkpt lat="47.26081" lon="-1.55356">
        <ele>50.428024</ele>
        <time>2022-12-16T13:45:36.951Z</time>
      </trkpt>
      <trkpt lat="47.26074" lon="-1.5537">
        <ele>50.388933</ele>
        <time>2022-12-16T13:45:39.956Z</time>
      </trkpt>
      <trkpt lat="47.26068" lon="-1.55383">
        <ele>50.351737</ele>
        <time>2022-12-16T13:45:42.948Z</time>
      </trkpt>
      <trkpt lat="47.26061" lon="-1.55396">
        <ele>50.314167</ele>
        <time>2022-12-16T13:45:45.953Z</time>
      </trkpt>
      <trkpt lat="47.26055" lon="-1.55409">
        <ele>50.277749</ele>
        <time>2022-12-16T13:45:48.949Z</time>
      </trkpt>
      <trkpt lat="47.26051" lon="-1.55422">
        <ele>50.244982</ele>
        <time>2022-12-16T13:45:51.952Z</time>
      </trkpt>
      <trkpt lat="47.26047" lon="-1.55435">
        <ele>50.211917</ele>
        <time>2022-12-16T13:45:54.934Z</time>
      </trkpt>
      <trkpt lat="47.26044" lon="-1.5545">
        <ele>50.176675</ele>
        <time>2022-12-16T13:45:57.932Z</time>
      </trkpt>
      <trkpt lat="47.26041" lon="-1.55463">
        <ele>50.226859</ele>
        <time>2022-12-16T13:46:00.934Z</time>
      </trkpt>
      <trkpt lat="47.26037" lon="-1.55475">
        <ele>50.41295</ele>
        <time>2022-12-16T13:46:03.936Z</time>
      </trkpt>
      <trkpt lat="47.26033" lon="-1.5549">
        <ele>50.625108</ele>
        <time>2022-12-16T13:46:06.938Z</time>
      </trkpt>
      <trkpt lat="47.26028" lon="-1.55505">
        <ele>50.850413</ele>
        <time>2022-12-16T13:46:09.942Z</time>
      </trkpt>
      <trkpt lat="47.26024" lon="-1.55517">
        <ele>51.037736</ele>
        <time>2022-12-16T13:46:12.951Z</time>
      </trkpt>
      <trkpt lat="47.26021" lon="-1.55522">
        <ele>51.120829</ele>
        <time>2022-12-16T13:46:32.521Z</time>
      </trkpt>
      <trkpt lat="47.26015" lon="-1.55543">
        <ele>51.42423</ele>
        <time>2022-12-16T13:48:10.932Z</time>
      </trkpt>
      <trkpt lat="47.2601" lon="-1.55556">
        <ele>51.632011</ele>
        <time>2022-12-16T13:48:14.933Z</time>
      </trkpt>
      <trkpt lat="47.26006" lon="-1.55572">
        <ele>51.865272</ele>
        <time>2022-12-16T13:48:18.929Z</time>
      </trkpt>
      <trkpt lat="47.26002" lon="-1.55587">
        <ele>52.084156</ele>
        <time>2022-12-16T13:48:22.951Z</time>
      </trkpt>
      <trkpt lat="47.26002" lon="-1.55603">
        <ele>52.296974</ele>
        <time>2022-12-16T13:48:27.938Z</time>
      </trkpt>
      <trkpt lat="47.26007" lon="-1.55615">
        <ele>52.484774</ele>
        <time>2022-12-16T13:48:33.936Z</time>
      </trkpt>
      <trkpt lat="47.26013" lon="-1.55626">
        <ele>52.67453</ele>
        <time>2022-12-16T13:48:49.933Z</time>
      </trkpt>
      <trkpt lat="47.26022" lon="-1.55634">
        <ele>52.892069</ele>
        <time>2022-12-16T13:48:54.934Z</time>
      </trkpt>
      <trkpt lat="47.2603" lon="-1.55641">
        <ele>53.075676</ele>
        <time>2022-12-16T13:48:58.955Z</time>
      </trkpt>
      <trkpt lat="47.26038" lon="-1.55651">
        <ele>53.289575</ele>
        <time>2022-12-16T13:49:04.932Z</time>
      </trkpt>
      <trkpt lat="47.26039" lon="-1.55665">
        <ele>53.483499</ele>
        <time>2022-12-16T13:49:08.936Z</time>
      </trkpt>
      <trkpt lat="47.26041" lon="-1.55681">
        <ele>53.706931</ele>
        <time>2022-12-16T13:49:12.928Z</time>
      </trkpt>
      <trkpt lat="47.26041" lon="-1.55694">
        <ele>53.782864</ele>
        <time>2022-12-16T13:49:15.931Z</time>
      </trkpt>
      <trkpt lat="47.26039" lon="-1.55709">
        <ele>53.832667</ele>
        <time>2022-12-16T13:49:19.937Z</time>
      </trkpt>
      <trkpt lat="47.26035" lon="-1.55722">
        <ele>53.878745</ele>
        <time>2022-12-16T13:49:23.932Z</time>
      </trkpt>
      <trkpt lat="47.26029" lon="-1.55735">
        <ele>53.931574</ele>
        <time>2022-12-16T13:49:27.942Z</time>
      </trkpt>
      <trkpt lat="47.26022" lon="-1.55745">
        <ele>53.975424</ele>
        <time>2022-12-16T13:49:30.932Z</time>
      </trkpt>
      <trkpt lat="47.26014" lon="-1.55753">
        <ele>54.023786</ele>
        <time>2022-12-16T13:49:34.950Z</time>
      </trkpt>
      <trkpt lat="47.26005" lon="-1.5576">
        <ele>54.072594</ele>
        <time>2022-12-16T13:49:38.931Z</time>
      </trkpt>
      <trkpt lat="47.25997" lon="-1.55767">
        <ele>54.116706</ele>
        <time>2022-12-16T13:49:48.946Z</time>
      </trkpt>
      <trkpt lat="47.25987" lon="-1.55768">
        <ele>54.16446</ele>
        <time>2022-12-16T13:49:54.932Z</time>
      </trkpt>
      <trkpt lat="47.25977" lon="-1.55767">
        <ele>54.215631</ele>
        <time>2022-12-16T13:49:58.934Z</time>
      </trkpt>
      <trkpt lat="47.25967" lon="-1.5576">
        <ele>54.266423</ele>
        <time>2022-12-16T13:50:02.934Z</time>
      </trkpt>
      <trkpt lat="47.25959" lon="-1.55751">
        <ele>54.316316</ele>
        <time>2022-12-16T13:50:06.954Z</time>
      </trkpt>
      <trkpt lat="47.25949" lon="-1.55745">
        <ele>54.368145</ele>
        <time>2022-12-16T13:50:10.931Z</time>
      </trkpt>
      <trkpt lat="47.25938" lon="-1.55743">
        <ele>54.422923</ele>
        <time>2022-12-16T13:50:14.938Z</time>
      </trkpt>
      <trkpt lat="47.25928" lon="-1.55741">
        <ele>54.469251</ele>
        <time>2022-12-16T13:50:17.942Z</time>
      </trkpt>
      <trkpt lat="47.25917" lon="-1.55739">
        <ele>54.523967</ele>
        <time>2022-12-16T13:50:20.929Z</time>
      </trkpt>
      <trkpt lat="47.25903" lon="-1.55737">
        <ele>54.593271</ele>
        <time>2022-12-16T13:50:23.933Z</time>
      </trkpt>
      <trkpt lat="47.25891" lon="-1.55737">
        <ele>54.667963</ele>
        <time>2022-12-16T13:50:25.947Z</time>
      </trkpt>
      <trkpt lat="47.25879" lon="-1.55736">
        <ele>54.752428</ele>
        <time>2022-12-16T13:50:27.954Z</time>
      </trkpt>
      <trkpt lat="47.25869" lon="-1.55734">
        <ele>54.825553</ele>
        <time>2022-12-16T13:50:29.956Z</time>
      </trkpt>
      <trkpt lat="47.25859" lon="-1.55733">
        <ele>54.898065</ele>
        <time>2022-12-16T13:50:31.951Z</time>
      </trkpt>
      <trkpt lat="47.2585" lon="-1.55731">
        <ele>54.962529</ele>
        <time>2022-12-16T13:50:33.934Z</time>
      </trkpt>
      <trkpt lat="47.25838" lon="-1.55729">
        <ele>55.046145</ele>
        <time>2022-12-16T13:50:36.949Z</time>
      </trkpt>
      <trkpt lat="47.25828" lon="-1.55727">
        <ele>55.117843</ele>
        <time>2022-12-16T13:50:39.937Z</time>
      </trkpt>
      <trkpt lat="47.25818" lon="-1.55724">
        <ele>55.19009</ele>
        <time>2022-12-16T13:50:42.950Z</time>
      </trkpt>
      <trkpt lat="47.25808" lon="-1.55721">
        <ele>55.26345</ele>
        <time>2022-12-16T13:50:45.944Z</time>
      </trkpt>
      <trkpt lat="47.25798" lon="-1.55717">
        <ele>55.337676</ele>
        <time>2022-12-16T13:50:48.938Z</time>
      </trkpt>
      <trkpt lat="47.25788" lon="-1.55712">
        <ele>55.411705</ele>
        <time>2022-12-16T13:50:51.948Z</time>
      </trkpt>
      <trkpt lat="47.2578" lon="-1.55707">
        <ele>55.477524</ele>
        <time>2022-12-16T13:50:54.945Z</time>
      </trkpt>
      <trkpt lat="47.25771" lon="-1.55701">
        <ele>55.547388</ele>
        <time>2022-12-16T13:50:57.931Z</time>
      </trkpt>
      <trkpt lat="47.25762" lon="-1.55694">
        <ele>55.621749</ele>
        <time>2022-12-16T13:51:00.933Z</time>
      </trkpt>
      <trkpt lat="47.25752" lon="-1.55686">
        <ele>55.701577</ele>
        <time>2022-12-16T13:51:03.951Z</time>
      </trkpt>
      <trkpt lat="47.25742" lon="-1.55676">
        <ele>55.783806</ele>
        <time>2022-12-16T13:51:06.953Z</time>
      </trkpt>
      <trkpt lat="47.25733" lon="-1.55666">
        <ele>55.867736</ele>
        <time>2022-12-16T13:51:09.947Z</time>
      </trkpt>
      <trkpt lat="47.25724" lon="-1.55655">
        <ele>55.975803</ele>
        <time>2022-12-16T13:51:12.945Z</time>
      </trkpt>
      <trkpt lat="47.25716" lon="-1.55643">
        <ele>56.102658</ele>
        <time>2022-12-16T13:51:15.947Z</time>
      </trkpt>
      <trkpt lat="47.25708" lon="-1.55631">
        <ele>56.230498</ele>
        <time>2022-12-16T13:51:18.956Z</time>
      </trkpt>
      <trkpt lat="47.257" lon="-1.55616">
        <ele>56.364961</ele>
        <time>2022-12-16T13:51:21.950Z</time>
      </trkpt>
      <trkpt lat="47.25692" lon="-1.55601">
        <ele>56.507232</ele>
        <time>2022-12-16T13:51:24.952Z</time>
      </trkpt>
      <trkpt lat="47.25686" lon="-1.55591">
        <ele>56.604352</ele>
        <time>2022-12-16T13:51:26.933Z</time>
      </trkpt>
      <trkpt lat="47.25679" lon="-1.55576">
        <ele>56.73858</ele>
        <time>2022-12-16T13:51:29.945Z</time>
      </trkpt>
      <trkpt lat="47.25672" lon="-1.55561">
        <ele>56.867795</ele>
        <time>2022-12-16T13:51:32.941Z</time>
      </trkpt>
      <trkpt lat="47.25665" lon="-1.55546">
        <ele>57.001277</ele>
        <time>2022-12-16T13:51:35.947Z</time>
      </trkpt>
      <trkpt lat="47.25658" lon="-1.55532">
        <ele>57.130558</ele>
        <time>2022-12-16T13:51:38.951Z</time>
      </trkpt>
      <trkpt lat="47.25652" lon="-1.55519">
        <ele>57.253087</ele>
        <time>2022-12-16T13:51:41.949Z</time>
      </trkpt>
      <trkpt lat="47.25646" lon="-1.55504">
        <ele>57.379266</ele>
        <time>2022-12-16T13:51:44.952Z</time>
      </trkpt>
      <trkpt lat="47.25639" lon="-1.55491">
        <ele>57.499995</ele>
        <time>2022-12-16T13:51:47.942Z</time>
      </trkpt>
      <trkpt lat="47.25632" lon="-1.55477">
        <ele>57.625617</ele>
        <time>2022-12-16T13:51:50.930Z</time>
      </trkpt>
      <trkpt lat="47.25626" lon="-1.55463">
        <ele>57.749347</ele>
        <time>2022-12-16T13:51:53.939Z</time>
      </trkpt>
      <trkpt lat="47.25619" lon="-1.5545">
        <ele>57.909089</ele>
        <time>2022-12-16T13:51:56.931Z</time>
      </trkpt>
      <trkpt lat="47.25612" lon="-1.55438">
        <ele>58.191225</ele>
        <time>2022-12-16T13:51:59.949Z</time>
      </trkpt>
      <trkpt lat="47.25606" lon="-1.55425">
        <ele>58.484767</ele>
        <time>2022-12-16T13:52:02.930Z</time>
      </trkpt>
      <trkpt lat="47.256" lon="-1.55412">
        <ele>58.767616</ele>
        <time>2022-12-16T13:52:05.945Z</time>
      </trkpt>
      <trkpt lat="47.25594" lon="-1.55399">
        <ele>59.059593</ele>
        <time>2022-12-16T13:52:08.956Z</time>
      </trkpt>
      <trkpt lat="47.25587" lon="-1.55386">
        <ele>59.361024</ele>
        <time>2022-12-16T13:52:11.936Z</time>
      </trkpt>
      <trkpt lat="47.2558" lon="-1.55373">
        <ele>59.664092</ele>
        <time>2022-12-16T13:52:14.929Z</time>
      </trkpt>
      <trkpt lat="47.25573" lon="-1.55361">
        <ele>59.95664</ele>
        <time>2022-12-16T13:52:17.940Z</time>
      </trkpt>
      <trkpt lat="47.25566" lon="-1.55352">
        <ele>60.217556</ele>
        <time>2022-12-16T13:52:20.929Z</time>
      </trkpt>
      <trkpt lat="47.25557" lon="-1.55339">
        <ele>60.540792</ele>
        <time>2022-12-16T13:52:24.950Z</time>
      </trkpt>
      <trkpt lat="47.2555" lon="-1.5533">
        <ele>60.798512</ele>
        <time>2022-12-16T13:52:27.944Z</time>
      </trkpt>
      <trkpt lat="47.25541" lon="-1.55322">
        <ele>61.084236</ele>
        <time>2022-12-16T13:52:30.934Z</time>
      </trkpt>
      <trkpt lat="47.25533" lon="-1.55313">
        <ele>61.362379</ele>
        <time>2022-12-16T13:52:33.950Z</time>
      </trkpt>
      <trkpt lat="47.25524" lon="-1.55306">
        <ele>61.635535</ele>
        <time>2022-12-16T13:52:36.930Z</time>
      </trkpt>
      <trkpt lat="47.25515" lon="-1.553">
        <ele>61.911788</ele>
        <time>2022-12-16T13:52:39.952Z</time>
      </trkpt>
      <trkpt lat="47.25505" lon="-1.55294">
        <ele>62.187482</ele>
        <time>2022-12-16T13:52:42.952Z</time>
      </trkpt>
      <trkpt lat="47.25496" lon="-1.55289">
        <ele>62.458698</ele>
        <time>2022-12-16T13:52:45.951Z</time>
      </trkpt>
      <trkpt lat="47.25486" lon="-1.55285">
        <ele>62.724995</ele>
        <time>2022-12-16T13:52:48.952Z</time>
      </trkpt>
      <trkpt lat="47.25476" lon="-1.55282">
        <ele>62.834043</ele>
        <time>2022-12-16T13:52:51.943Z</time>
      </trkpt>
      <trkpt lat="47.25467" lon="-1.5528">
        <ele>62.938516</ele>
        <time>2022-12-16T13:52:54.942Z</time>
      </trkpt>
      <trkpt lat="47.25457" lon="-1.55278">
        <ele>63.051381</ele>
        <time>2022-12-16T13:52:57.948Z</time>
      </trkpt>
      <trkpt lat="47.25446" lon="-1.55277">
        <ele>63.164518</ele>
        <time>2022-12-16T13:53:00.932Z</time>
      </trkpt>
      <trkpt lat="47.25435" lon="-1.55277">
        <ele>63.285108</ele>
        <time>2022-12-16T13:53:03.933Z</time>
      </trkpt>
      <trkpt lat="47.25425" lon="-1.55276">
        <ele>63.397027</ele>
        <time>2022-12-16T13:53:06.940Z</time>
      </trkpt>
      <trkpt lat="47.25414" lon="-1.55277">
        <ele>63.510164</ele>
        <time>2022-12-16T13:53:10.933Z</time>
      </trkpt>
      <trkpt lat="47.25406" lon="-1.5528">
        <ele>63.608881</ele>
        <time>2022-12-16T13:53:13.946Z</time>
      </trkpt>
      <trkpt lat="47.25396" lon="-1.55283">
        <ele>63.713215</ele>
        <time>2022-12-16T13:53:16.951Z</time>
      </trkpt>
      <trkpt lat="47.25387" lon="-1.55286">
        <ele>63.814853</ele>
        <time>2022-12-16T13:53:19.938Z</time>
      </trkpt>
      <trkpt lat="47.25378" lon="-1.55289">
        <ele>63.919824</ele>
        <time>2022-12-16T13:53:22.933Z</time>
      </trkpt>
      <trkpt lat="47.25366" lon="-1.55293">
        <ele>64.04928</ele>
        <time>2022-12-16T13:53:26.956Z</time>
      </trkpt>
      <trkpt lat="47.25357" lon="-1.55296">
        <ele>64.153051</ele>
        <time>2022-12-16T13:53:29.955Z</time>
      </trkpt>
      <trkpt lat="47.25347" lon="-1.55299">
        <ele>64.260577</ele>
        <time>2022-12-16T13:53:32.956Z</time>
      </trkpt>
      <trkpt lat="47.25336" lon="-1.55303">
        <ele>64.378399</ele>
        <time>2022-12-16T13:53:35.957Z</time>
      </trkpt>
      <trkpt lat="47.25325" lon="-1.55307">
        <ele>64.505958</ele>
        <time>2022-12-16T13:53:38.952Z</time>
      </trkpt>
      <trkpt lat="47.25314" lon="-1.55311">
        <ele>64.632173</ele>
        <time>2022-12-16T13:53:41.947Z</time>
      </trkpt>
      <trkpt lat="47.25302" lon="-1.55316">
        <ele>64.787974</ele>
        <time>2022-12-16T13:53:44.956Z</time>
      </trkpt>
      <trkpt lat="47.25291" lon="-1.5532">
        <ele>64.949298</ele>
        <time>2022-12-16T13:53:47.930Z</time>
      </trkpt>
      <trkpt lat="47.2528" lon="-1.55325">
        <ele>65.113479</ele>
        <time>2022-12-16T13:53:50.929Z</time>
      </trkpt>
      <trkpt lat="47.2527" lon="-1.5533">
        <ele>65.267297</ele>
        <time>2022-12-16T13:53:53.948Z</time>
      </trkpt>
      <trkpt lat="47.2526" lon="-1.55333">
        <ele>65.411407</ele>
        <time>2022-12-16T13:53:56.932Z</time>
      </trkpt>
      <trkpt lat="47.2525" lon="-1.55341">
        <ele>65.57297</ele>
        <time>2022-12-16T13:54:00.936Z</time>
      </trkpt>
      <trkpt lat="47.25242" lon="-1.5535">
        <ele>65.714038</ele>
        <time>2022-12-16T13:54:04.933Z</time>
      </trkpt>
      <trkpt lat="47.25232" lon="-1.55352">
        <ele>65.857729</ele>
        <time>2022-12-16T13:54:08.930Z</time>
      </trkpt>
      <trkpt lat="47.25223" lon="-1.55351">
        <ele>65.986054</ele>
        <time>2022-12-16T13:54:11.934Z</time>
      </trkpt>
      <trkpt lat="47.25214" lon="-1.55352">
        <ele>66.114495</ele>
        <time>2022-12-16T13:54:14.930Z</time>
      </trkpt>
      <trkpt lat="47.25205" lon="-1.55354">
        <ele>66.245499</ele>
        <time>2022-12-16T13:54:18.952Z</time>
      </trkpt>
      <trkpt lat="47.25196" lon="-1.55361">
        <ele>66.389607</ele>
        <time>2022-12-16T13:54:22.935Z</time>
      </trkpt>
      <trkpt lat="47.25186" lon="-1.55366">
        <ele>66.54372</ele>
        <time>2022-12-16T13:54:26.932Z</time>
      </trkpt>
      <trkpt lat="47.25176" lon="-1.5537">
        <ele>66.693148</ele>
        <time>2022-12-16T13:54:30.933Z</time>
      </trkpt>
      <trkpt lat="47.25166" lon="-1.55374">
        <ele>66.839314</ele>
        <time>2022-12-16T13:54:34.936Z</time>
      </trkpt>
      <trkpt lat="47.25156" lon="-1.55376">
        <ele>66.982536</ele>
        <time>2022-12-16T13:54:38.933Z</time>
      </trkpt>
      <trkpt lat="47.25145" lon="-1.5538">
        <ele>67.138579</ele>
        <time>2022-12-16T13:54:42.936Z</time>
      </trkpt>
      <trkpt lat="47.25135" lon="-1.55383">
        <ele>67.377211</ele>
        <time>2022-12-16T13:54:46.937Z</time>
      </trkpt>
      <trkpt lat="47.25126" lon="-1.55386">
        <ele>67.746517</ele>
        <time>2022-12-16T13:54:50.933Z</time>
      </trkpt>
      <trkpt lat="47.25115" lon="-1.55389">
        <ele>68.171793</ele>
        <time>2022-12-16T13:54:55.984Z</time>
      </trkpt>
      <trkpt lat="47.25107" lon="-1.55393">
        <ele>68.532703</ele>
        <time>2022-12-16T13:54:59.960Z</time>
      </trkpt>
      <trkpt lat="47.25096" lon="-1.55397">
        <ele>68.958183</ele>
        <time>2022-12-16T13:55:04.949Z</time>
      </trkpt>
      <trkpt lat="47.25086" lon="-1.55402">
        <ele>69.36333</ele>
        <time>2022-12-16T13:55:09.931Z</time>
      </trkpt>
      <trkpt lat="47.25076" lon="-1.55407">
        <ele>69.778653</ele>
        <time>2022-12-16T13:55:14.959Z</time>
      </trkpt>
      <trkpt lat="47.25068" lon="-1.55411">
        <ele>70.138026</ele>
        <time>2022-12-16T13:55:19.942Z</time>
      </trkpt>
      <trkpt lat="47.25058" lon="-1.55416">
        <ele>70.544712</ele>
        <time>2022-12-16T13:55:25.937Z</time>
      </trkpt>
      <trkpt lat="47.25048" lon="-1.5542">
        <ele>70.944607</ele>
        <time>2022-12-16T13:55:31.931Z</time>
      </trkpt>
      <trkpt lat="47.25038" lon="-1.55425">
        <ele>71.346272</ele>
        <time>2022-12-16T13:55:36.934Z</time>
      </trkpt>
      <trkpt lat="47.25028" lon="-1.55429">
        <ele>71.750827</ele>
        <time>2022-12-16T13:55:41.946Z</time>
      </trkpt>
      <trkpt lat="47.25019" lon="-1.55431">
        <ele>72.117524</ele>
        <time>2022-12-16T13:55:46.955Z</time>
      </trkpt>
      <trkpt lat="47.25009" lon="-1.55432">
        <ele>72.507674</ele>
        <time>2022-12-16T13:55:51.948Z</time>
      </trkpt>
      <trkpt lat="47.24999" lon="-1.55435">
        <ele>72.914008</ele>
        <time>2022-12-16T13:55:56.953Z</time>
      </trkpt>
      <trkpt lat="47.2499" lon="-1.55438">
        <ele>73.277741</ele>
        <time>2022-12-16T13:56:00.930Z</time>
      </trkpt>
      <trkpt lat="47.24981" lon="-1.55442">
        <ele>73.666591</ele>
        <time>2022-12-16T13:56:04.951Z</time>
      </trkpt>
      <trkpt lat="47.24971" lon="-1.55445">
        <ele>74.057979</ele>
        <time>2022-12-16T13:56:08.947Z</time>
      </trkpt>
      <trkpt lat="47.24962" lon="-1.55448">
        <ele>74.125641</ele>
        <time>2022-12-16T13:56:11.946Z</time>
      </trkpt>
      <trkpt lat="47.24952" lon="-1.55452">
        <ele>73.61995</ele>
        <time>2022-12-16T13:56:14.949Z</time>
      </trkpt>
      <trkpt lat="47.24942" lon="-1.55458">
        <ele>73.117052</ele>
        <time>2022-12-16T13:56:17.947Z</time>
      </trkpt>
      <trkpt lat="47.24935" lon="-1.55465">
        <ele>72.652044</ele>
        <time>2022-12-16T13:56:20.931Z</time>
      </trkpt>
      <trkpt lat="47.24924" lon="-1.5547">
        <ele>72.065264</ele>
        <time>2022-12-16T13:56:24.936Z</time>
      </trkpt>
      <trkpt lat="47.24913" lon="-1.55469">
        <ele>71.536799</ele>
        <time>2022-12-16T13:56:27.933Z</time>
      </trkpt>
      <trkpt lat="47.24904" lon="-1.55471">
        <ele>71.073273</ele>
        <time>2022-12-16T13:56:29.933Z</time>
      </trkpt>
      <trkpt lat="47.24891" lon="-1.55477">
        <ele>70.414308</ele>
        <time>2022-12-16T13:56:32.949Z</time>
      </trkpt>
      <trkpt lat="47.24882" lon="-1.55481">
        <ele>69.90468</ele>
        <time>2022-12-16T13:56:34.945Z</time>
      </trkpt>
      <trkpt lat="47.24872" lon="-1.55485">
        <ele>69.38447</ele>
        <time>2022-12-16T13:56:36.955Z</time>
      </trkpt>
      <trkpt lat="47.24861" lon="-1.5549">
        <ele>68.810316</ele>
        <time>2022-12-16T13:56:38.951Z</time>
      </trkpt>
      <trkpt lat="47.24849" lon="-1.55495">
        <ele>68.217981</ele>
        <time>2022-12-16T13:56:40.933Z</time>
      </trkpt>
      <trkpt lat="47.24839" lon="-1.555">
        <ele>67.674592</ele>
        <time>2022-12-16T13:56:42.944Z</time>
      </trkpt>
      <trkpt lat="47.24828" lon="-1.55503">
        <ele>67.088549</ele>
        <time>2022-12-16T13:56:44.947Z</time>
      </trkpt>
      <trkpt lat="47.24817" lon="-1.55506">
        <ele>66.528699</ele>
        <time>2022-12-16T13:56:46.942Z</time>
      </trkpt>
      <trkpt lat="47.24805" lon="-1.55509">
        <ele>65.952858</ele>
        <time>2022-12-16T13:56:48.942Z</time>
      </trkpt>
      <trkpt lat="47.24794" lon="-1.55513">
        <ele>65.37997</ele>
        <time>2022-12-16T13:56:50.930Z</time>
      </trkpt>
      <trkpt lat="47.24782" lon="-1.55517">
        <ele>64.868963</ele>
        <time>2022-12-16T13:56:52.952Z</time>
      </trkpt>
      <trkpt lat="47.24771" lon="-1.55522">
        <ele>64.399412</ele>
        <time>2022-12-16T13:56:54.951Z</time>
      </trkpt>
      <trkpt lat="47.24759" lon="-1.55526">
        <ele>63.896717</ele>
        <time>2022-12-16T13:56:56.947Z</time>
      </trkpt>
      <trkpt lat="47.24747" lon="-1.55529">
        <ele>63.423698</ele>
        <time>2022-12-16T13:56:58.953Z</time>
      </trkpt>
      <trkpt lat="47.24734" lon="-1.55534">
        <ele>62.908003</ele>
        <time>2022-12-16T13:57:00.934Z</time>
      </trkpt>
      <trkpt lat="47.24721" lon="-1.55537">
        <ele>62.385666</ele>
        <time>2022-12-16T13:57:02.958Z</time>
      </trkpt>
      <trkpt lat="47.24709" lon="-1.55542">
        <ele>61.869971</ele>
        <time>2022-12-16T13:57:04.958Z</time>
      </trkpt>
      <trkpt lat="47.24696" lon="-1.55545">
        <ele>61.35064</ele>
        <time>2022-12-16T13:57:06.925Z</time>
      </trkpt>
      <trkpt lat="47.24683" lon="-1.55549">
        <ele>60.828044</ele>
        <time>2022-12-16T13:57:08.950Z</time>
      </trkpt>
      <trkpt lat="47.24671" lon="-1.55554">
        <ele>60.358091</ele>
        <time>2022-12-16T13:57:10.933Z</time>
      </trkpt>
      <trkpt lat="47.24659" lon="-1.55555">
        <ele>59.863868</ele>
        <time>2022-12-16T13:57:12.952Z</time>
      </trkpt>
      <trkpt lat="47.24648" lon="-1.55557">
        <ele>59.410539</ele>
        <time>2022-12-16T13:57:14.930Z</time>
      </trkpt>
      <trkpt lat="47.24636" lon="-1.55556">
        <ele>58.962257</ele>
        <time>2022-12-16T13:57:16.936Z</time>
      </trkpt>
      <trkpt lat="47.24625" lon="-1.55558">
        <ele>58.500818</ele>
        <time>2022-12-16T13:57:18.938Z</time>
      </trkpt>
      <trkpt lat="47.24614" lon="-1.55559">
        <ele>58.131736</ele>
        <time>2022-12-16T13:57:20.933Z</time>
      </trkpt>
      <trkpt lat="47.24605" lon="-1.55562">
        <ele>58.119535</ele>
        <time>2022-12-16T13:57:22.930Z</time>
      </trkpt>
      <trkpt lat="47.24595" lon="-1.55566">
        <ele>58.106996</ele>
        <time>2022-12-16T13:57:24.935Z</time>
      </trkpt>
      <trkpt lat="47.24585" lon="-1.55569">
        <ele>58.094376</ele>
        <time>2022-12-16T13:57:26.936Z</time>
      </trkpt>
      <trkpt lat="47.24576" lon="-1.55573">
        <ele>58.082441</ele>
        <time>2022-12-16T13:57:28.935Z</time>
      </trkpt>
      <trkpt lat="47.24567" lon="-1.55579">
        <ele>58.069269</ele>
        <time>2022-12-16T13:57:30.933Z</time>
      </trkpt>
      <trkpt lat="47.24558" lon="-1.55586">
        <ele>58.056251</ele>
        <time>2022-12-16T13:57:32.933Z</time>
      </trkpt>
      <trkpt lat="47.24548" lon="-1.55593">
        <ele>58.042441</ele>
        <time>2022-12-16T13:57:34.928Z</time>
      </trkpt>
      <trkpt lat="47.24539" lon="-1.556">
        <ele>58.029277</ele>
        <time>2022-12-16T13:57:36.936Z</time>
      </trkpt>
      <trkpt lat="47.24529" lon="-1.55606">
        <ele>58.01645</ele>
        <time>2022-12-16T13:57:38.934Z</time>
      </trkpt>
      <trkpt lat="47.24521" lon="-1.55612">
        <ele>58.004535</ele>
        <time>2022-12-16T13:57:40.930Z</time>
      </trkpt>
      <trkpt lat="47.24509" lon="-1.55619">
        <ele>57.988355</ele>
        <time>2022-12-16T13:57:43.940Z</time>
      </trkpt>
      <trkpt lat="47.24498" lon="-1.55625">
        <ele>57.973549</ele>
        <time>2022-12-16T13:57:46.930Z</time>
      </trkpt>
      <trkpt lat="47.24488" lon="-1.5563">
        <ele>57.960493</ele>
        <time>2022-12-16T13:57:49.941Z</time>
      </trkpt>
      <trkpt lat="47.24478" lon="-1.55634">
        <ele>57.947584</ele>
        <time>2022-12-16T13:57:52.940Z</time>
      </trkpt>
      <trkpt lat="47.24468" lon="-1.55638">
        <ele>57.934569</ele>
        <time>2022-12-16T13:57:55.942Z</time>
      </trkpt>
      <trkpt lat="47.24459" lon="-1.5564">
        <ele>57.922084</ele>
        <time>2022-12-16T13:57:58.940Z</time>
      </trkpt>
      <trkpt lat="47.24449" lon="-1.55642">
        <ele>57.909552</ele>
        <time>2022-12-16T13:58:01.945Z</time>
      </trkpt>
      <trkpt lat="47.24439" lon="-1.55643">
        <ele>57.797204</ele>
        <time>2022-12-16T13:58:04.953Z</time>
      </trkpt>
      <trkpt lat="47.24428" lon="-1.55644">
        <ele>57.614496</ele>
        <time>2022-12-16T13:58:07.947Z</time>
      </trkpt>
      <trkpt lat="47.24416" lon="-1.55645">
        <ele>57.409496</ele>
        <time>2022-12-16T13:58:11.953Z</time>
      </trkpt>
      <trkpt lat="47.24405" lon="-1.55645">
        <ele>57.24378</ele>
        <time>2022-12-16T13:58:14.935Z</time>
      </trkpt>
      <trkpt lat="47.24392" lon="-1.55645">
        <ele>57.0342</ele>
        <time>2022-12-16T13:58:17.951Z</time>
      </trkpt>
      <trkpt lat="47.2438" lon="-1.55648">
        <ele>56.832324</ele>
        <time>2022-12-16T13:58:20.935Z</time>
      </trkpt>
      <trkpt lat="47.2437" lon="-1.55656">
        <ele>56.638727</ele>
        <time>2022-12-16T13:58:23.934Z</time>
      </trkpt>
      <trkpt lat="47.24361" lon="-1.55669">
        <ele>56.444372</ele>
        <time>2022-12-16T13:58:26.945Z</time>
      </trkpt>
      <trkpt lat="47.2435" lon="-1.55674">
        <ele>56.258359</ele>
        <time>2022-12-16T13:58:29.932Z</time>
      </trkpt>
      <trkpt lat="47.24337" lon="-1.55672">
        <ele>56.045365</ele>
        <time>2022-12-16T13:58:32.945Z</time>
      </trkpt>
      <trkpt lat="47.24328" lon="-1.55665">
        <ele>55.882984</ele>
        <time>2022-12-16T13:58:34.935Z</time>
      </trkpt>
      <trkpt lat="47.24319" lon="-1.55658">
        <ele>55.70893</ele>
        <time>2022-12-16T13:58:36.934Z</time>
      </trkpt>
      <trkpt lat="47.24309" lon="-1.55654">
        <ele>55.544038</ele>
        <time>2022-12-16T13:58:38.948Z</time>
      </trkpt>
      <trkpt lat="47.24299" lon="-1.55653">
        <ele>55.374559</ele>
        <time>2022-12-16T13:58:40.934Z</time>
      </trkpt>
      <trkpt lat="47.24283" lon="-1.55652">
        <ele>55.116184</ele>
        <time>2022-12-16T13:58:43.938Z</time>
      </trkpt>
      <trkpt lat="47.24271" lon="-1.55652">
        <ele>55.047937</ele>
        <time>2022-12-16T13:58:45.947Z</time>
      </trkpt>
      <trkpt lat="47.24259" lon="-1.55654">
        <ele>55.268388</ele>
        <time>2022-12-16T13:58:47.958Z</time>
      </trkpt>
      <trkpt lat="47.24248" lon="-1.55657">
        <ele>55.482544</ele>
        <time>2022-12-16T13:58:49.949Z</time>
      </trkpt>
      <trkpt lat="47.24235" lon="-1.55658">
        <ele>55.725724</ele>
        <time>2022-12-16T13:58:52.949Z</time>
      </trkpt>
      <trkpt lat="47.24225" lon="-1.55659">
        <ele>55.902468</ele>
        <time>2022-12-16T13:58:55.958Z</time>
      </trkpt>
      <trkpt lat="47.24214" lon="-1.5566">
        <ele>56.110443</ele>
        <time>2022-12-16T13:58:59.939Z</time>
      </trkpt>
      <trkpt lat="47.24203" lon="-1.5566">
        <ele>56.31827</ele>
        <time>2022-12-16T13:59:03.951Z</time>
      </trkpt>
      <trkpt lat="47.24193" lon="-1.55661">
        <ele>56.503898</ele>
        <time>2022-12-16T13:59:07.956Z</time>
      </trkpt>
      <trkpt lat="47.24183" lon="-1.55662">
        <ele>56.689889</ele>
        <time>2022-12-16T13:59:11.933Z</time>
      </trkpt>
      <trkpt lat="47.24174" lon="-1.55662">
        <ele>56.860525</ele>
        <time>2022-12-16T13:59:15.933Z</time>
      </trkpt>
      <trkpt lat="47.24165" lon="-1.55662">
        <ele>57.029325</ele>
        <time>2022-12-16T13:59:19.950Z</time>
      </trkpt>
      <trkpt lat="47.24155" lon="-1.55663">
        <ele>57.209675</ele>
        <time>2022-12-16T13:59:24.935Z</time>
      </trkpt>
      <trkpt lat="47.24144" lon="-1.55665">
        <ele>57.408048</ele>
        <time>2022-12-16T13:59:30.946Z</time>
      </trkpt>
      <trkpt lat="47.24135" lon="-1.55667">
        <ele>57.589083</ele>
        <time>2022-12-16T13:59:36.935Z</time>
      </trkpt>
      <trkpt lat="47.24126" lon="-1.55673">
        <ele>57.772988</ele>
        <time>2022-12-16T13:59:41.930Z</time>
      </trkpt>
      <trkpt lat="47.24117" lon="-1.55681">
        <ele>57.963214</ele>
        <time>2022-12-16T13:59:46.930Z</time>
      </trkpt>
      <trkpt lat="47.24109" lon="-1.5569">
        <ele>58.14528</ele>
        <time>2022-12-16T13:59:51.938Z</time>
      </trkpt>
      <trkpt lat="47.24104" lon="-1.55703">
        <ele>58.350502</ele>
        <time>2022-12-16T13:59:56.937Z</time>
      </trkpt>
      <trkpt lat="47.24099" lon="-1.55717">
        <ele>58.613267</ele>
        <time>2022-12-16T14:00:01.938Z</time>
      </trkpt>
      <trkpt lat="47.24095" lon="-1.55729">
        <ele>58.848285</ele>
        <time>2022-12-16T14:00:05.953Z</time>
      </trkpt>
      <trkpt lat="47.2409" lon="-1.55741">
        <ele>59.087527</ele>
        <time>2022-12-16T14:00:09.950Z</time>
      </trkpt>
      <trkpt lat="47.24086" lon="-1.55754">
        <ele>59.327665</ele>
        <time>2022-12-16T14:00:13.936Z</time>
      </trkpt>
      <trkpt lat="47.24082" lon="-1.55768">
        <ele>59.602421</ele>
        <time>2022-12-16T14:00:17.936Z</time>
      </trkpt>
      <trkpt lat="47.24077" lon="-1.55783">
        <ele>59.882943</ele>
        <time>2022-12-16T14:00:21.945Z</time>
      </trkpt>
      <trkpt lat="47.24073" lon="-1.55798">
        <ele>60.16396</ele>
        <time>2022-12-16T14:00:25.947Z</time>
      </trkpt>
      <trkpt lat="47.24069" lon="-1.5581">
        <ele>60.406297</ele>
        <time>2022-12-16T14:00:29.951Z</time>
      </trkpt>
      <trkpt lat="47.24065" lon="-1.55823">
        <ele>60.636465</ele>
        <time>2022-12-16T14:00:33.936Z</time>
      </trkpt>
      <trkpt lat="47.24061" lon="-1.55838">
        <ele>60.927142</ele>
        <time>2022-12-16T14:00:38.954Z</time>
      </trkpt>
      <trkpt lat="47.24056" lon="-1.5585">
        <ele>61.1676</ele>
        <time>2022-12-16T14:00:42.956Z</time>
      </trkpt>
      <trkpt lat="47.24051" lon="-1.55862">
        <ele>61.398812</ele>
        <time>2022-12-16T14:00:45.938Z</time>
      </trkpt>
      <trkpt lat="47.24046" lon="-1.55875">
        <ele>61.659523</ele>
        <time>2022-12-16T14:00:49.950Z</time>
      </trkpt>
      <trkpt lat="47.24042" lon="-1.55889">
        <ele>61.916991</ele>
        <time>2022-12-16T14:00:53.934Z</time>
      </trkpt>
      <trkpt lat="47.24037" lon="-1.55903">
        <ele>62.210526</ele>
        <time>2022-12-16T14:00:57.948Z</time>
      </trkpt>
      <trkpt lat="47.24032" lon="-1.55916">
        <ele>62.446685</ele>
        <time>2022-12-16T14:01:01.954Z</time>
      </trkpt>
      <trkpt lat="47.24027" lon="-1.5593">
        <ele>62.728621</ele>
        <time>2022-12-16T14:01:05.954Z</time>
      </trkpt>
      <trkpt lat="47.24022" lon="-1.55946">
        <ele>63.007217</ele>
        <time>2022-12-16T14:01:09.933Z</time>
      </trkpt>
      <trkpt lat="47.24019" lon="-1.55959">
        <ele>63.203285</ele>
        <time>2022-12-16T14:01:12.960Z</time>
      </trkpt>
      <trkpt lat="47.24015" lon="-1.55971">
        <ele>63.398692</ele>
        <time>2022-12-16T14:01:15.953Z</time>
      </trkpt>
      <trkpt lat="47.24011" lon="-1.55984">
        <ele>63.603551</ele>
        <time>2022-12-16T14:01:18.954Z</time>
      </trkpt>
      <trkpt lat="47.24006" lon="-1.55997">
        <ele>63.820884</ele>
        <time>2022-12-16T14:01:21.953Z</time>
      </trkpt>
      <trkpt lat="47.24002" lon="-1.5601">
        <ele>64.03338</ele>
        <time>2022-12-16T14:01:24.958Z</time>
      </trkpt>
      <trkpt lat="47.23997" lon="-1.56022">
        <ele>64.2379</ele>
        <time>2022-12-16T14:01:27.949Z</time>
      </trkpt>
      <trkpt lat="47.23991" lon="-1.56036">
        <ele>64.47517</ele>
        <time>2022-12-16T14:01:30.935Z</time>
      </trkpt>
      <trkpt lat="47.23985" lon="-1.5605">
        <ele>64.712357</ele>
        <time>2022-12-16T14:01:33.946Z</time>
      </trkpt>
      <trkpt lat="47.23979" lon="-1.56062">
        <ele>64.930337</ele>
        <time>2022-12-16T14:01:36.949Z</time>
      </trkpt>
      <trkpt lat="47.23972" lon="-1.56075">
        <ele>65.175369</ele>
        <time>2022-12-16T14:01:40.934Z</time>
      </trkpt>
      <trkpt lat="47.23966" lon="-1.56085">
        <ele>65.36853</ele>
        <time>2022-12-16T14:01:43.950Z</time>
      </trkpt>
      <trkpt lat="47.23959" lon="-1.56095">
        <ele>65.576199</ele>
        <time>2022-12-16T14:01:46.936Z</time>
      </trkpt>
      <trkpt lat="47.23951" lon="-1.56104">
        <ele>65.785921</ele>
        <time>2022-12-16T14:01:49.936Z</time>
      </trkpt>
      <trkpt lat="47.23943" lon="-1.56113">
        <ele>66.004997</ele>
        <time>2022-12-16T14:01:52.950Z</time>
      </trkpt>
      <trkpt lat="47.23934" lon="-1.56121">
        <ele>66.226162</ele>
        <time>2022-12-16T14:01:55.944Z</time>
      </trkpt>
      <trkpt lat="47.23925" lon="-1.56129">
        <ele>66.448782</ele>
        <time>2022-12-16T14:01:58.945Z</time>
      </trkpt>
      <trkpt lat="47.23916" lon="-1.56136">
        <ele>66.676692</ele>
        <time>2022-12-16T14:02:01.944Z</time>
      </trkpt>
      <trkpt lat="47.23907" lon="-1.56142">
        <ele>67.037156</ele>
        <time>2022-12-16T14:02:04.955Z</time>
      </trkpt>
      <trkpt lat="47.23899" lon="-1.5615">
        <ele>67.429458</ele>
        <time>2022-12-16T14:02:07.932Z</time>
      </trkpt>
      <trkpt lat="47.2389" lon="-1.5616">
        <ele>67.85952</ele>
        <time>2022-12-16T14:02:10.934Z</time>
      </trkpt>
      <trkpt lat="47.23882" lon="-1.56168">
        <ele>68.267044</ele>
        <time>2022-12-16T14:02:13.949Z</time>
      </trkpt>
      <trkpt lat="47.23874" lon="-1.56176">
        <ele>68.675667</ele>
        <time>2022-12-16T14:02:16.952Z</time>
      </trkpt>
      <trkpt lat="47.23867" lon="-1.56186">
        <ele>69.082072</ele>
        <time>2022-12-16T14:02:19.946Z</time>
      </trkpt>
      <trkpt lat="47.23858" lon="-1.56196">
        <ele>69.524064</ele>
        <time>2022-12-16T14:02:22.936Z</time>
      </trkpt>
      <trkpt lat="47.23849" lon="-1.56205">
        <ele>69.957667</ele>
        <time>2022-12-16T14:02:25.946Z</time>
      </trkpt>
      <trkpt lat="47.2384" lon="-1.56213">
        <ele>70.400376</ele>
        <time>2022-12-16T14:02:28.950Z</time>
      </trkpt>
      <trkpt lat="47.23832" lon="-1.56221">
        <ele>70.826239</ele>
        <time>2022-12-16T14:02:31.950Z</time>
      </trkpt>
      <trkpt lat="47.23823" lon="-1.5623">
        <ele>71.241565</ele>
        <time>2022-12-16T14:02:34.961Z</time>
      </trkpt>
      <trkpt lat="47.23816" lon="-1.56238">
        <ele>71.623937</ele>
        <time>2022-12-16T14:02:37.937Z</time>
      </trkpt>
      <trkpt lat="47.23807" lon="-1.56245">
        <ele>72.023471</ele>
        <time>2022-12-16T14:02:40.933Z</time>
      </trkpt>
      <trkpt lat="47.238" lon="-1.56253">
        <ele>72.402452</ele>
        <time>2022-12-16T14:02:43.953Z</time>
      </trkpt>
      <trkpt lat="47.23791" lon="-1.56262">
        <ele>72.837888</ele>
        <time>2022-12-16T14:02:47.933Z</time>
      </trkpt>
      <trkpt lat="47.23782" lon="-1.56271">
        <ele>73.27964</ele>
        <time>2022-12-16T14:02:51.942Z</time>
      </trkpt>
      <trkpt lat="47.23773" lon="-1.5628">
        <ele>73.735751</ele>
        <time>2022-12-16T14:02:55.958Z</time>
      </trkpt>
      <trkpt lat="47.23764" lon="-1.56289">
        <ele>74.111792</ele>
        <time>2022-12-16T14:02:59.953Z</time>
      </trkpt>
      <trkpt lat="47.23754" lon="-1.56299">
        <ele>74.076014</ele>
        <time>2022-12-16T14:03:03.933Z</time>
      </trkpt>
      <trkpt lat="47.23744" lon="-1.56308">
        <ele>74.040578</ele>
        <time>2022-12-16T14:03:07.953Z</time>
      </trkpt>
      <trkpt lat="47.23734" lon="-1.56317">
        <ele>74.007153</ele>
        <time>2022-12-16T14:03:11.944Z</time>
      </trkpt>
      <trkpt lat="47.23724" lon="-1.56325">
        <ele>73.97154</ele>
        <time>2022-12-16T14:03:15.956Z</time>
      </trkpt>
      <trkpt lat="47.23715" lon="-1.5633">
        <ele>73.943497</ele>
        <time>2022-12-16T14:03:18.958Z</time>
      </trkpt>
      <trkpt lat="47.23706" lon="-1.56334">
        <ele>73.915421</ele>
        <time>2022-12-16T14:03:21.933Z</time>
      </trkpt>
      <trkpt lat="47.23697" lon="-1.56338">
        <ele>73.88491</ele>
        <time>2022-12-16T14:03:24.925Z</time>
      </trkpt>
      <trkpt lat="47.23687" lon="-1.56341">
        <ele>73.854264</ele>
        <time>2022-12-16T14:03:27.959Z</time>
      </trkpt>
      <trkpt lat="47.23676" lon="-1.56342">
        <ele>73.823334</ele>
        <time>2022-12-16T14:03:30.942Z</time>
      </trkpt>
      <trkpt lat="47.23666" lon="-1.56343">
        <ele>73.792608</ele>
        <time>2022-12-16T14:03:33.952Z</time>
      </trkpt>
      <trkpt lat="47.23655" lon="-1.56343">
        <ele>73.760081</ele>
        <time>2022-12-16T14:03:36.935Z</time>
      </trkpt>
      <trkpt lat="47.23643" lon="-1.56343">
        <ele>73.72335</ele>
        <time>2022-12-16T14:03:39.954Z</time>
      </trkpt>
      <trkpt lat="47.2363" lon="-1.56344">
        <ele>73.684509</ele>
        <time>2022-12-16T14:03:42.937Z</time>
      </trkpt>
      <trkpt lat="47.23619" lon="-1.56343">
        <ele>73.649837</ele>
        <time>2022-12-16T14:03:45.953Z</time>
      </trkpt>
      <trkpt lat="47.23606" lon="-1.56343">
        <ele>73.611264</ele>
        <time>2022-12-16T14:03:48.931Z</time>
      </trkpt>
      <trkpt lat="47.23592" lon="-1.56343">
        <ele>73.540331</ele>
        <time>2022-12-16T14:03:51.946Z</time>
      </trkpt>
      <trkpt lat="47.23583" lon="-1.56343">
        <ele>73.357176</ele>
        <time>2022-12-16T14:03:53.947Z</time>
      </trkpt>
      <trkpt lat="47.23573" lon="-1.56343">
        <ele>73.170056</ele>
        <time>2022-12-16T14:03:55.941Z</time>
      </trkpt>
      <trkpt lat="47.23563" lon="-1.56342">
        <ele>72.96742</ele>
        <time>2022-12-16T14:03:57.938Z</time>
      </trkpt>
      <trkpt lat="47.23552" lon="-1.56342">
        <ele>72.766902</ele>
        <time>2022-12-16T14:03:59.935Z</time>
      </trkpt>
      <trkpt lat="47.23542" lon="-1.56342">
        <ele>72.574072</ele>
        <time>2022-12-16T14:04:01.942Z</time>
      </trkpt>
      <trkpt lat="47.23532" lon="-1.56342">
        <ele>72.367771</ele>
        <time>2022-12-16T14:04:03.932Z</time>
      </trkpt>
      <trkpt lat="47.23522" lon="-1.56342">
        <ele>72.178797</ele>
        <time>2022-12-16T14:04:05.942Z</time>
      </trkpt>
      <trkpt lat="47.23512" lon="-1.56342">
        <ele>71.989859</ele>
        <time>2022-12-16T14:04:07.959Z</time>
      </trkpt>
      <trkpt lat="47.23503" lon="-1.56342">
        <ele>71.806704</ele>
        <time>2022-12-16T14:04:09.948Z</time>
      </trkpt>
      <trkpt lat="47.23493" lon="-1.56342">
        <ele>71.629333</ele>
        <time>2022-12-16T14:04:11.947Z</time>
      </trkpt>
      <trkpt lat="47.23484" lon="-1.56342">
        <ele>71.442286</ele>
        <time>2022-12-16T14:04:14.000Z</time>
      </trkpt>
      <trkpt lat="47.23474" lon="-1.56342">
        <ele>71.261064</ele>
        <time>2022-12-16T14:04:15.951Z</time>
      </trkpt>
      <trkpt lat="47.23462" lon="-1.56341">
        <ele>71.015998</ele>
        <time>2022-12-16T14:04:18.929Z</time>
      </trkpt>
      <trkpt lat="47.23449" lon="-1.56341">
        <ele>70.778737</ele>
        <time>2022-12-16T14:04:21.939Z</time>
      </trkpt>
      <trkpt lat="47.23438" lon="-1.56342">
        <ele>70.562037</ele>
        <time>2022-12-16T14:04:24.934Z</time>
      </trkpt>
      <trkpt lat="47.23428" lon="-1.56345">
        <ele>70.367688</ele>
        <time>2022-12-16T14:04:29.953Z</time>
      </trkpt>
      <trkpt lat="47.23419" lon="-1.56349">
        <ele>70.186696</ele>
        <time>2022-12-16T14:04:56.931Z</time>
      </trkpt>
      <trkpt lat="47.2341" lon="-1.56342">
        <ele>70.043186</ele>
        <time>2022-12-16T14:05:03.929Z</time>
      </trkpt>
      <trkpt lat="47.23408" lon="-1.56325">
        <ele>69.924954</ele>
        <time>2022-12-16T14:05:07.947Z</time>
      </trkpt>
      <trkpt lat="47.23406" lon="-1.56311">
        <ele>69.823871</ele>
        <time>2022-12-16T14:05:10.932Z</time>
      </trkpt>
      <trkpt lat="47.23404" lon="-1.56297">
        <ele>69.727518</ele>
        <time>2022-12-16T14:05:12.929Z</time>
      </trkpt>
      <trkpt lat="47.23402" lon="-1.5628">
        <ele>69.602466</ele>
        <time>2022-12-16T14:05:15.946Z</time>
      </trkpt>
      <trkpt lat="47.23398" lon="-1.56263">
        <ele>69.475891</ele>
        <time>2022-12-16T14:05:18.955Z</time>
      </trkpt>
      <trkpt lat="47.23396" lon="-1.56249">
        <ele>69.378124</ele>
        <time>2022-12-16T14:05:20.972Z</time>
      </trkpt>
      <trkpt lat="47.23393" lon="-1.56231">
        <ele>69.246225</ele>
        <time>2022-12-16T14:05:23.958Z</time>
      </trkpt>
      <trkpt lat="47.23391" lon="-1.56213">
        <ele>69.118187</ele>
        <time>2022-12-16T14:05:26.943Z</time>
      </trkpt>
      <trkpt lat="47.23388" lon="-1.56195">
        <ele>68.987558</ele>
        <time>2022-12-16T14:05:29.939Z</time>
      </trkpt>
      <trkpt lat="47.23384" lon="-1.56176">
        <ele>68.853481</ele>
        <time>2022-12-16T14:05:32.938Z</time>
      </trkpt>
      <trkpt lat="47.2338" lon="-1.56163">
        <ele>68.752779</ele>
        <time>2022-12-16T14:05:34.956Z</time>
      </trkpt>
      <trkpt lat="47.23375" lon="-1.56144">
        <ele>68.60665</ele>
        <time>2022-12-16T14:05:37.951Z</time>
      </trkpt>
      <trkpt lat="47.23371" lon="-1.56125">
        <ele>68.469219</ele>
        <time>2022-12-16T14:05:40.932Z</time>
      </trkpt>
      <trkpt lat="47.23367" lon="-1.56107">
        <ele>68.334768</ele>
        <time>2022-12-16T14:05:43.944Z</time>
      </trkpt>
      <trkpt lat="47.23364" lon="-1.56094">
        <ele>68.255385</ele>
        <time>2022-12-16T14:05:45.951Z</time>
      </trkpt>
      <trkpt lat="47.2336" lon="-1.56081">
        <ele>68.273432</ele>
        <time>2022-12-16T14:05:47.942Z</time>
      </trkpt>
      <trkpt lat="47.23358" lon="-1.56068">
        <ele>68.290567</ele>
        <time>2022-12-16T14:05:49.948Z</time>
      </trkpt>
      <trkpt lat="47.23353" lon="-1.56051">
        <ele>68.314366</ele>
        <time>2022-12-16T14:05:52.936Z</time>
      </trkpt>
      <trkpt lat="47.23349" lon="-1.56033">
        <ele>68.338773</ele>
        <time>2022-12-16T14:05:55.938Z</time>
      </trkpt>
      <trkpt lat="47.23346" lon="-1.56016">
        <ele>68.361777</ele>
        <time>2022-12-16T14:05:58.946Z</time>
      </trkpt>
      <trkpt lat="47.23341" lon="-1.56">
        <ele>68.383867</ele>
        <time>2022-12-16T14:06:01.958Z</time>
      </trkpt>
      <trkpt lat="47.23336" lon="-1.55985">
        <ele>68.405051</ele>
        <time>2022-12-16T14:06:04.946Z</time>
      </trkpt>
      <trkpt lat="47.23332" lon="-1.5597">
        <ele>68.42671</ele>
        <time>2022-12-16T14:06:07.946Z</time>
      </trkpt>
      <trkpt lat="47.23328" lon="-1.55953">
        <ele>68.449157</ele>
        <time>2022-12-16T14:06:10.936Z</time>
      </trkpt>
      <trkpt lat="47.23325" lon="-1.55936">
        <ele>68.473118</ele>
        <time>2022-12-16T14:06:13.948Z</time>
      </trkpt>
      <trkpt lat="47.23322" lon="-1.55917">
        <ele>68.497352</ele>
        <time>2022-12-16T14:06:16.948Z</time>
      </trkpt>
      <trkpt lat="47.23319" lon="-1.55899">
        <ele>68.521239</ele>
        <time>2022-12-16T14:06:19.941Z</time>
      </trkpt>
      <trkpt lat="47.23315" lon="-1.55882">
        <ele>68.54467</ele>
        <time>2022-12-16T14:06:22.948Z</time>
      </trkpt>
      <trkpt lat="47.23311" lon="-1.55865">
        <ele>68.567797</ele>
        <time>2022-12-16T14:06:25.957Z</time>
      </trkpt>
      <trkpt lat="47.23307" lon="-1.5585">
        <ele>68.589273</ele>
        <time>2022-12-16T14:06:28.953Z</time>
      </trkpt>
      <trkpt lat="47.23305" lon="-1.55834">
        <ele>68.499066</ele>
        <time>2022-12-16T14:06:31.941Z</time>
      </trkpt>
      <trkpt lat="47.23302" lon="-1.55818">
        <ele>68.359233</ele>
        <time>2022-12-16T14:06:34.960Z</time>
      </trkpt>
      <trkpt lat="47.233" lon="-1.55801">
        <ele>68.211167</ele>
        <time>2022-12-16T14:06:37.944Z</time>
      </trkpt>
      <trkpt lat="47.23299" lon="-1.55783">
        <ele>68.061347</ele>
        <time>2022-12-16T14:06:40.933Z</time>
      </trkpt>
      <trkpt lat="47.23297" lon="-1.55765">
        <ele>67.907204</ele>
        <time>2022-12-16T14:06:43.955Z</time>
      </trkpt>
      <trkpt lat="47.23296" lon="-1.55752">
        <ele>67.794668</ele>
        <time>2022-12-16T14:06:45.952Z</time>
      </trkpt>
      <trkpt lat="47.23296" lon="-1.55733">
        <ele>67.638422</ele>
        <time>2022-12-16T14:06:48.938Z</time>
      </trkpt>
      <trkpt lat="47.23296" lon="-1.55715">
        <ele>67.486315</ele>
        <time>2022-12-16T14:06:51.949Z</time>
      </trkpt>
      <trkpt lat="47.23297" lon="-1.55697">
        <ele>67.338069</ele>
        <time>2022-12-16T14:06:54.939Z</time>
      </trkpt>
      <trkpt lat="47.23297" lon="-1.55682">
        <ele>67.209537</ele>
        <time>2022-12-16T14:06:57.935Z</time>
      </trkpt>
      <trkpt lat="47.23293" lon="-1.55667">
        <ele>67.075582</ele>
        <time>2022-12-16T14:07:02.939Z</time>
      </trkpt>
      <trkpt lat="47.2329" lon="-1.55654">
        <ele>66.957863</ele>
        <time>2022-12-16T14:07:06.937Z</time>
      </trkpt>
      <trkpt lat="47.23297" lon="-1.55638">
        <ele>66.805411</ele>
        <time>2022-12-16T14:07:10.945Z</time>
      </trkpt>
      <trkpt lat="47.23302" lon="-1.55621">
        <ele>66.650809</ele>
        <time>2022-12-16T14:07:13.947Z</time>
      </trkpt>
      <trkpt lat="47.23306" lon="-1.55603">
        <ele>66.488154</ele>
        <time>2022-12-16T14:07:16.934Z</time>
      </trkpt>
      <trkpt lat="47.23309" lon="-1.55585">
        <ele>66.297265</ele>
        <time>2022-12-16T14:07:19.940Z</time>
      </trkpt>
      <trkpt lat="47.23313" lon="-1.55568">
        <ele>66.01308</ele>
        <time>2022-12-16T14:07:22.945Z</time>
      </trkpt>
      <trkpt lat="47.23317" lon="-1.55551">
        <ele>65.731782</ele>
        <time>2022-12-16T14:07:25.936Z</time>
      </trkpt>
      <trkpt lat="47.23321" lon="-1.55534">
        <ele>65.453476</ele>
        <time>2022-12-16T14:07:28.935Z</time>
      </trkpt>
      <trkpt lat="47.23324" lon="-1.5552">
        <ele>65.217423</ele>
        <time>2022-12-16T14:07:31.948Z</time>
      </trkpt>
      <trkpt lat="47.23332" lon="-1.55507">
        <ele>64.947691</ele>
        <time>2022-12-16T14:07:35.948Z</time>
      </trkpt>
      <trkpt lat="47.23337" lon="-1.55494">
        <ele>64.70702</ele>
        <time>2022-12-16T14:07:38.939Z</time>
      </trkpt>
      <trkpt lat="47.23343" lon="-1.55479">
        <ele>64.441555</ele>
        <time>2022-12-16T14:07:41.948Z</time>
      </trkpt>
      <trkpt lat="47.2335" lon="-1.55464">
        <ele>64.160762</ele>
        <time>2022-12-16T14:07:44.932Z</time>
      </trkpt>
      <trkpt lat="47.23357" lon="-1.55449">
        <ele>63.865656</ele>
        <time>2022-12-16T14:07:47.935Z</time>
      </trkpt>
      <trkpt lat="47.23364" lon="-1.55433">
        <ele>63.559955</ele>
        <time>2022-12-16T14:07:50.935Z</time>
      </trkpt>
      <trkpt lat="47.23369" lon="-1.55421">
        <ele>63.350656</ele>
        <time>2022-12-16T14:07:52.937Z</time>
      </trkpt>
      <trkpt lat="47.23374" lon="-1.5541">
        <ele>63.130874</ele>
        <time>2022-12-16T14:07:54.951Z</time>
      </trkpt>
      <trkpt lat="47.2338" lon="-1.55398">
        <ele>62.912416</ele>
        <time>2022-12-16T14:07:56.953Z</time>
      </trkpt>
      <trkpt lat="47.23385" lon="-1.55386">
        <ele>62.683521</ele>
        <time>2022-12-16T14:07:58.933Z</time>
      </trkpt>
      <trkpt lat="47.23391" lon="-1.55373">
        <ele>62.437795</ele>
        <time>2022-12-16T14:08:00.933Z</time>
      </trkpt>
      <trkpt lat="47.23396" lon="-1.55361">
        <ele>62.21551</ele>
        <time>2022-12-16T14:08:02.930Z</time>
      </trkpt>
      <trkpt lat="47.23401" lon="-1.55348">
        <ele>61.814124</ele>
        <time>2022-12-16T14:08:04.941Z</time>
      </trkpt>
      <trkpt lat="47.23407" lon="-1.55336">
        <ele>61.434187</ele>
        <time>2022-12-16T14:08:06.950Z</time>
      </trkpt>
      <trkpt lat="47.23413" lon="-1.55323">
        <ele>61.018444</ele>
        <time>2022-12-16T14:08:08.934Z</time>
      </trkpt>
      <trkpt lat="47.23418" lon="-1.5531">
        <ele>60.620845</ele>
        <time>2022-12-16T14:08:10.934Z</time>
      </trkpt>
      <trkpt lat="47.23425" lon="-1.55297">
        <ele>60.194382</ele>
        <time>2022-12-16T14:08:12.956Z</time>
      </trkpt>
      <trkpt lat="47.23431" lon="-1.55283">
        <ele>59.742078</ele>
        <time>2022-12-16T14:08:14.953Z</time>
      </trkpt>
      <trkpt lat="47.23437" lon="-1.55268">
        <ele>59.267029</ele>
        <time>2022-12-16T14:08:16.950Z</time>
      </trkpt>
      <trkpt lat="47.23445" lon="-1.55254">
        <ele>58.79866</ele>
        <time>2022-12-16T14:08:18.957Z</time>
      </trkpt>
      <trkpt lat="47.23451" lon="-1.55239">
        <ele>58.337673</ele>
        <time>2022-12-16T14:08:20.935Z</time>
      </trkpt>
      <trkpt lat="47.23459" lon="-1.55223">
        <ele>57.819568</ele>
        <time>2022-12-16T14:08:22.951Z</time>
      </trkpt>
      <trkpt lat="47.23466" lon="-1.55209">
        <ele>57.331138</ele>
        <time>2022-12-16T14:08:24.944Z</time>
      </trkpt>
      <trkpt lat="47.23473" lon="-1.55192">
        <ele>56.81265</ele>
        <time>2022-12-16T14:08:26.939Z</time>
      </trkpt>
      <trkpt lat="47.2348" lon="-1.55176">
        <ele>56.314289</ele>
        <time>2022-12-16T14:08:28.943Z</time>
      </trkpt>
      <trkpt lat="47.23487" lon="-1.55158">
        <ele>55.775683</ele>
        <time>2022-12-16T14:08:30.938Z</time>
      </trkpt>
      <trkpt lat="47.23493" lon="-1.55139">
        <ele>55.213955</ele>
        <time>2022-12-16T14:08:32.940Z</time>
      </trkpt>
      <trkpt lat="47.23498" lon="-1.5512">
        <ele>54.936139</ele>
        <time>2022-12-16T14:08:34.931Z</time>
      </trkpt>
      <trkpt lat="47.23503" lon="-1.55101">
        <ele>54.677627</ele>
        <time>2022-12-16T14:08:36.930Z</time>
      </trkpt>
      <trkpt lat="47.23507" lon="-1.55081">
        <ele>54.417184</ele>
        <time>2022-12-16T14:08:38.931Z</time>
      </trkpt>
      <trkpt lat="47.2351" lon="-1.55061">
        <ele>54.161383</ele>
        <time>2022-12-16T14:08:40.937Z</time>
      </trkpt>
      <trkpt lat="47.23513" lon="-1.55042">
        <ele>53.923503</ele>
        <time>2022-12-16T14:08:42.936Z</time>
      </trkpt>
      <trkpt lat="47.23514" lon="-1.55026">
        <ele>53.719525</ele>
        <time>2022-12-16T14:08:44.932Z</time>
      </trkpt>
      <trkpt lat="47.23516" lon="-1.55012">
        <ele>53.534522</ele>
        <time>2022-12-16T14:08:46.941Z</time>
      </trkpt>
      <trkpt lat="47.23517" lon="-1.54998">
        <ele>53.363691</ele>
        <time>2022-12-16T14:08:48.937Z</time>
      </trkpt>
      <trkpt lat="47.23519" lon="-1.54982">
        <ele>53.153366</ele>
        <time>2022-12-16T14:08:51.943Z</time>
      </trkpt>
      <trkpt lat="47.2352" lon="-1.54966">
        <ele>52.958854</ele>
        <time>2022-12-16T14:08:54.951Z</time>
      </trkpt>
      <trkpt lat="47.23519" lon="-1.54949">
        <ele>52.738278</ele>
        <time>2022-12-16T14:08:58.933Z</time>
      </trkpt>
      <trkpt lat="47.23518" lon="-1.54933">
        <ele>52.536616</ele>
        <time>2022-12-16T14:09:01.944Z</time>
      </trkpt>
      <trkpt lat="47.2352" lon="-1.54917">
        <ele>52.342978</ele>
        <time>2022-12-16T14:09:04.935Z</time>
      </trkpt>
      <trkpt lat="47.23521" lon="-1.54904">
        <ele>52.172697</ele>
        <time>2022-12-16T14:09:07.933Z</time>
      </trkpt>
      <trkpt lat="47.23523" lon="-1.54891">
        <ele>52.006471</ele>
        <time>2022-12-16T14:09:10.931Z</time>
      </trkpt>
      <trkpt lat="47.23523" lon="-1.54877">
        <ele>51.85835</ele>
        <time>2022-12-16T14:09:13.953Z</time>
      </trkpt>
      <trkpt lat="47.23524" lon="-1.54862">
        <ele>51.843524</ele>
        <time>2022-12-16T14:09:16.938Z</time>
      </trkpt>
      <trkpt lat="47.23526" lon="-1.54845">
        <ele>51.826916</ele>
        <time>2022-12-16T14:09:19.954Z</time>
      </trkpt>
      <trkpt lat="47.23529" lon="-1.54829">
        <ele>51.810011</ele>
        <time>2022-12-16T14:09:22.933Z</time>
      </trkpt>
      <trkpt lat="47.23531" lon="-1.54811">
        <ele>51.793138</ele>
        <time>2022-12-16T14:09:25.954Z</time>
      </trkpt>
      <trkpt lat="47.23533" lon="-1.54795">
        <ele>51.777105</ele>
        <time>2022-12-16T14:09:28.939Z</time>
      </trkpt>
      <trkpt lat="47.23535" lon="-1.5478">
        <ele>51.762226</ele>
        <time>2022-12-16T14:09:31.944Z</time>
      </trkpt>
      <trkpt lat="47.23537" lon="-1.54765">
        <ele>51.746818</ele>
        <time>2022-12-16T14:09:34.951Z</time>
      </trkpt>
      <trkpt lat="47.23537" lon="-1.54749">
        <ele>51.731303</ele>
        <time>2022-12-16T14:09:37.935Z</time>
      </trkpt>
      <trkpt lat="47.23534" lon="-1.54733">
        <ele>51.714793</ele>
        <time>2022-12-16T14:09:41.936Z</time>
      </trkpt>
      <trkpt lat="47.23524" lon="-1.54734">
        <ele>51.700276</ele>
        <time>2022-12-16T14:09:44.936Z</time>
      </trkpt>
      <trkpt lat="47.23512" lon="-1.54742">
        <ele>51.681435</ele>
        <time>2022-12-16T14:09:47.937Z</time>
      </trkpt>
      <trkpt lat="47.23502" lon="-1.54753">
        <ele>51.663408</ele>
        <time>2022-12-16T14:09:50.932Z</time>
      </trkpt>
      <trkpt lat="47.23491" lon="-1.5476">
        <ele>51.646501</ele>
        <time>2022-12-16T14:09:53.931Z</time>
      </trkpt>
      <trkpt lat="47.23481" lon="-1.54763">
        <ele>51.631303</ele>
        <time>2022-12-16T14:09:58.942Z</time>
      </trkpt>
      <trkpt lat="47.2349" lon="-1.54757">
        <ele>51.616347</ele>
        <time>2022-12-16T14:10:09.934Z</time>
      </trkpt>
      <trkpt lat="47.23499" lon="-1.54749">
        <ele>51.60285</ele>
        <time>2022-12-16T14:10:13.938Z</time>
      </trkpt>
      <trkpt lat="47.23508" lon="-1.54741">
        <ele>51.625904</ele>
        <time>2022-12-16T14:10:17.935Z</time>
      </trkpt>
      <trkpt lat="47.23516" lon="-1.54733">
        <ele>51.645024</ele>
        <time>2022-12-16T14:10:20.932Z</time>
      </trkpt>
      <trkpt lat="47.23524" lon="-1.54726">
        <ele>51.665661</ele>
        <time>2022-12-16T14:10:23.933Z</time>
      </trkpt>
      <trkpt lat="47.23532" lon="-1.54719">
        <ele>51.685462</ele>
        <time>2022-12-16T14:10:27.954Z</time>
      </trkpt>
      <trkpt lat="47.23535" lon="-1.54706">
        <ele>51.705042</ele>
        <time>2022-12-16T14:10:31.936Z</time>
      </trkpt>
      <trkpt lat="47.23534" lon="-1.5469">
        <ele>51.727572</ele>
        <time>2022-12-16T14:10:35.945Z</time>
      </trkpt>
      <trkpt lat="47.23534" lon="-1.54677">
        <ele>51.746691</ele>
        <time>2022-12-16T14:10:38.935Z</time>
      </trkpt>
      <trkpt lat="47.23533" lon="-1.54662">
        <ele>51.766837</ele>
        <time>2022-12-16T14:10:41.943Z</time>
      </trkpt>
      <trkpt lat="47.23534" lon="-1.54648">
        <ele>51.787658</ele>
        <time>2022-12-16T14:10:44.936Z</time>
      </trkpt>
      <trkpt lat="47.23533" lon="-1.54632">
        <ele>51.809719</ele>
        <time>2022-12-16T14:10:48.939Z</time>
      </trkpt>
      <trkpt lat="47.23531" lon="-1.54619">
        <ele>51.82874</ele>
        <time>2022-12-16T14:10:51.934Z</time>
      </trkpt>
      <trkpt lat="47.23528" lon="-1.54604">
        <ele>51.850843</ele>
        <time>2022-12-16T14:10:55.935Z</time>
      </trkpt>
      <trkpt lat="47.23527" lon="-1.54588">
        <ele>51.874188</ele>
        <time>2022-12-16T14:11:00.934Z</time>
      </trkpt>
      <trkpt lat="47.23524" lon="-1.54571">
        <ele>51.899088</ele>
        <time>2022-12-16T14:11:04.955Z</time>
      </trkpt>
      <trkpt lat="47.23522" lon="-1.54556">
        <ele>51.921759</ele>
        <time>2022-12-16T14:11:08.955Z</time>
      </trkpt>
      <trkpt lat="47.2352" lon="-1.5454">
        <ele>51.944802</ele>
        <time>2022-12-16T14:11:12.943Z</time>
      </trkpt>
      <trkpt lat="47.23517" lon="-1.54523">
        <ele>51.968779</ele>
        <time>2022-12-16T14:11:16.936Z</time>
      </trkpt>
      <trkpt lat="47.23516" lon="-1.54507">
        <ele>52.362029</ele>
        <time>2022-12-16T14:11:20.935Z</time>
      </trkpt>
      <trkpt lat="47.23514" lon="-1.54492">
        <ele>53.070351</ele>
        <time>2022-12-16T14:11:23.954Z</time>
      </trkpt>
      <trkpt lat="47.23512" lon="-1.54476">
        <ele>53.814952</ele>
        <time>2022-12-16T14:11:27.931Z</time>
      </trkpt>
      <trkpt lat="47.2351" lon="-1.54461">
        <ele>54.473095</ele>
        <time>2022-12-16T14:11:31.953Z</time>
      </trkpt>
      <trkpt lat="47.23508" lon="-1.54446">
        <ele>55.187336</ele>
        <time>2022-12-16T14:11:35.950Z</time>
      </trkpt>
      <trkpt lat="47.23505" lon="-1.54432">
        <ele>55.887295</ele>
        <time>2022-12-16T14:11:39.950Z</time>
      </trkpt>
      <trkpt lat="47.23502" lon="-1.54418">
        <ele>56.531333</ele>
        <time>2022-12-16T14:11:43.948Z</time>
      </trkpt>
      <trkpt lat="47.23501" lon="-1.54405">
        <ele>57.149779</ele>
        <time>2022-12-16T14:11:47.933Z</time>
      </trkpt>
      <trkpt lat="47.235" lon="-1.54391">
        <ele>57.794599</ele>
        <time>2022-12-16T14:11:52.956Z</time>
      </trkpt>
      <trkpt lat="47.23498" lon="-1.54376">
        <ele>58.465262</ele>
        <time>2022-12-16T14:11:57.938Z</time>
      </trkpt>
      <trkpt lat="47.23495" lon="-1.54362">
        <ele>59.111353</ele>
        <time>2022-12-16T14:12:02.932Z</time>
      </trkpt>
      <trkpt lat="47.23493" lon="-1.54348">
        <ele>59.766511</ele>
        <time>2022-12-16T14:12:07.938Z</time>
      </trkpt>
      <trkpt lat="47.23492" lon="-1.54334">
        <ele>60.412861</ele>
        <time>2022-12-16T14:12:12.935Z</time>
      </trkpt>
      <trkpt lat="47.23489" lon="-1.54318">
        <ele>61.155386</ele>
        <time>2022-12-16T14:12:17.957Z</time>
      </trkpt>
      <trkpt lat="47.23487" lon="-1.54303">
        <ele>61.877036</ele>
        <time>2022-12-16T14:12:22.939Z</time>
      </trkpt>
      <trkpt lat="47.23485" lon="-1.54289">
        <ele>62.505525</ele>
        <time>2022-12-16T14:12:27.935Z</time>
      </trkpt>
      <trkpt lat="47.23483" lon="-1.54275">
        <ele>63.161312</ele>
        <time>2022-12-16T14:12:32.947Z</time>
      </trkpt>
      <trkpt lat="47.23481" lon="-1.54261">
        <ele>63.837475</ele>
        <time>2022-12-16T14:12:37.939Z</time>
      </trkpt>
      <trkpt lat="47.23477" lon="-1.54248">
        <ele>64.216862</ele>
        <time>2022-12-16T14:12:42.940Z</time>
      </trkpt>
      <trkpt lat="47.23475" lon="-1.54233">
        <ele>64.500436</ele>
        <time>2022-12-16T14:12:47.947Z</time>
      </trkpt>
      <trkpt lat="47.23473" lon="-1.54218">
        <ele>64.787719</ele>
        <time>2022-12-16T14:12:52.932Z</time>
      </trkpt>
      <trkpt lat="47.23473" lon="-1.54203">
        <ele>65.083116</ele>
        <time>2022-12-16T14:12:57.945Z</time>
      </trkpt>
      <trkpt lat="47.23472" lon="-1.54189">
        <ele>65.356153</ele>
        <time>2022-12-16T14:13:02.949Z</time>
      </trkpt>
      <trkpt lat="47.2347" lon="-1.54173">
        <ele>65.657058</ele>
        <time>2022-12-16T14:13:08.935Z</time>
      </trkpt>
      <trkpt lat="47.23469" lon="-1.54158">
        <ele>65.951421</ele>
        <time>2022-12-16T14:13:13.949Z</time>
      </trkpt>
      <trkpt lat="47.23468" lon="-1.54143">
        <ele>66.242531</ele>
        <time>2022-12-16T14:13:18.937Z</time>
      </trkpt>
      <trkpt lat="47.23461" lon="-1.5413">
        <ele>66.545591</ele>
        <time>2022-12-16T14:13:23.947Z</time>
      </trkpt>
      <trkpt lat="47.23458" lon="-1.54116">
        <ele>66.825362</ele>
        <time>2022-12-16T14:13:27.955Z</time>
      </trkpt>
      <trkpt lat="47.23455" lon="-1.54101">
        <ele>67.123963</ele>
        <time>2022-12-16T14:13:31.947Z</time>
      </trkpt>
      <trkpt lat="47.23453" lon="-1.54086">
        <ele>67.410299</ele>
        <time>2022-12-16T14:13:35.968Z</time>
      </trkpt>
      <trkpt lat="47.23451" lon="-1.54072">
        <ele>67.689625</ele>
        <time>2022-12-16T14:13:39.949Z</time>
      </trkpt>
      <trkpt lat="47.23449" lon="-1.54057">
        <ele>67.968991</ele>
        <time>2022-12-16T14:13:43.941Z</time>
      </trkpt>
      <trkpt lat="47.23447" lon="-1.54043">
        <ele>68.252638</ele>
        <time>2022-12-16T14:13:47.929Z</time>
      </trkpt>
      <trkpt lat="47.23446" lon="-1.54027">
        <ele>68.546776</ele>
        <time>2022-12-16T14:13:51.944Z</time>
      </trkpt>
      <trkpt lat="47.23445" lon="-1.54013">
        <ele>68.823747</ele>
        <time>2022-12-16T14:13:55.941Z</time>
      </trkpt>
      <trkpt lat="47.23444" lon="-1.53998">
        <ele>69.083736</ele>
        <time>2022-12-16T14:13:59.942Z</time>
      </trkpt>
      <trkpt lat="47.23443" lon="-1.53984">
        <ele>69.152559</ele>
        <time>2022-12-16T14:14:03.951Z</time>
      </trkpt>
      <trkpt lat="47.23441" lon="-1.53968">
        <ele>69.231042</ele>
        <time>2022-12-16T14:14:08.941Z</time>
      </trkpt>
      <trkpt lat="47.23439" lon="-1.53953">
        <ele>69.302643</ele>
        <time>2022-12-16T14:14:12.937Z</time>
      </trkpt>
      <trkpt lat="47.23436" lon="-1.53937">
        <ele>69.387357</ele>
        <time>2022-12-16T14:14:16.937Z</time>
      </trkpt>
      <trkpt lat="47.23433" lon="-1.53919">
        <ele>69.471857</ele>
        <time>2022-12-16T14:14:20.930Z</time>
      </trkpt>
      <trkpt lat="47.23431" lon="-1.53905">
        <ele>69.541731</ele>
        <time>2022-12-16T14:14:23.938Z</time>
      </trkpt>
      <trkpt lat="47.23428" lon="-1.53891">
        <ele>69.614024</ele>
        <time>2022-12-16T14:14:26.954Z</time>
      </trkpt>
      <trkpt lat="47.23427" lon="-1.53875">
        <ele>69.691807</ele>
        <time>2022-12-16T14:14:29.931Z</time>
      </trkpt>
      <trkpt lat="47.23426" lon="-1.53859">
        <ele>69.76908</ele>
        <time>2022-12-16T14:14:32.933Z</time>
      </trkpt>
      <trkpt lat="47.23423" lon="-1.53843">
        <ele>69.850452</ele>
        <time>2022-12-16T14:14:36.952Z</time>
      </trkpt>
      <trkpt lat="47.23421" lon="-1.53828">
        <ele>69.924714</ele>
        <time>2022-12-16T14:14:39.957Z</time>
      </trkpt>
      <trkpt lat="47.23419" lon="-1.53813">
        <ele>69.996461</ele>
        <time>2022-12-16T14:14:42.938Z</time>
      </trkpt>
      <trkpt lat="47.23417" lon="-1.53799">
        <ele>70.068684</ele>
        <time>2022-12-16T14:14:45.945Z</time>
      </trkpt>
      <trkpt lat="47.23415" lon="-1.53784">
        <ele>70.14335</ele>
        <time>2022-12-16T14:14:48.931Z</time>
      </trkpt>
      <trkpt lat="47.23413" lon="-1.53766">
        <ele>70.227319</ele>
        <time>2022-12-16T14:14:52.946Z</time>
      </trkpt>
      <trkpt lat="47.23411" lon="-1.53752">
        <ele>70.300556</ele>
        <time>2022-12-16T14:14:55.951Z</time>
      </trkpt>
      <trkpt lat="47.23408" lon="-1.53736">
        <ele>70.369964</ele>
        <time>2022-12-16T14:14:58.944Z</time>
      </trkpt>
      <trkpt lat="47.23403" lon="-1.5372">
        <ele>70.428784</ele>
        <time>2022-12-16T14:15:01.933Z</time>
      </trkpt>
      <trkpt lat="47.23399" lon="-1.53704">
        <ele>70.483795</ele>
        <time>2022-12-16T14:15:04.937Z</time>
      </trkpt>
      <trkpt lat="47.23396" lon="-1.53686">
        <ele>70.545302</ele>
        <time>2022-12-16T14:15:07.945Z</time>
      </trkpt>
      <trkpt lat="47.23394" lon="-1.53668">
        <ele>70.604741</ele>
        <time>2022-12-16T14:15:10.934Z</time>
      </trkpt>
      <trkpt lat="47.23392" lon="-1.53652">
        <ele>70.660672</ele>
        <time>2022-12-16T14:15:13.939Z</time>
      </trkpt>
      <trkpt lat="47.2339" lon="-1.53638">
        <ele>70.707822</ele>
        <time>2022-12-16T14:15:16.956Z</time>
      </trkpt>
      <trkpt lat="47.23387" lon="-1.53623">
        <ele>70.758426</ele>
        <time>2022-12-16T14:15:20.936Z</time>
      </trkpt>
      <trkpt lat="47.23377" lon="-1.53618">
        <ele>70.810355</ele>
        <time>2022-12-16T14:15:24.939Z</time>
      </trkpt>
      <trkpt lat="47.23366" lon="-1.53623">
        <ele>70.86787</ele>
        <time>2022-12-16T14:15:28.939Z</time>
      </trkpt>
      <trkpt lat="47.23357" lon="-1.53629">
        <ele>70.91468</ele>
        <time>2022-12-16T14:15:31.940Z</time>
      </trkpt>
      <trkpt lat="47.23346" lon="-1.53637">
        <ele>70.973518</ele>
        <time>2022-12-16T14:15:34.944Z</time>
      </trkpt>
      <trkpt lat="47.23338" lon="-1.53643">
        <ele>71.017928</ele>
        <time>2022-12-16T14:15:36.974Z</time>
      </trkpt>
      <trkpt lat="47.23328" lon="-1.53655">
        <ele>71.080134</ele>
        <time>2022-12-16T14:15:39.936Z</time>
      </trkpt>
      <trkpt lat="47.23317" lon="-1.53665">
        <ele>71.142629</ele>
        <time>2022-12-16T14:15:42.960Z</time>
      </trkpt>
      <trkpt lat="47.23306" lon="-1.53675">
        <ele>71.202784</ele>
        <time>2022-12-16T14:15:45.956Z</time>
      </trkpt>
      <trkpt lat="47.23296" lon="-1.53685">
        <ele>71.122477</ele>
        <time>2022-12-16T14:15:48.951Z</time>
      </trkpt>
      <trkpt lat="47.23286" lon="-1.53694">
        <ele>70.95089</ele>
        <time>2022-12-16T14:15:51.954Z</time>
      </trkpt>
      <trkpt lat="47.23277" lon="-1.53705">
        <ele>70.783109</ele>
        <time>2022-12-16T14:15:54.935Z</time>
      </trkpt>
      <trkpt lat="47.23267" lon="-1.53713">
        <ele>70.620933</ele>
        <time>2022-12-16T14:15:57.936Z</time>
      </trkpt>
      <trkpt lat="47.23258" lon="-1.53721">
        <ele>70.467401</ele>
        <time>2022-12-16T14:16:00.935Z</time>
      </trkpt>
      <trkpt lat="47.23248" lon="-1.53731">
        <ele>70.2981</ele>
        <time>2022-12-16T14:16:03.955Z</time>
      </trkpt>
      <trkpt lat="47.23239" lon="-1.53741">
        <ele>70.13291</ele>
        <time>2022-12-16T14:16:06.956Z</time>
      </trkpt>
      <trkpt lat="47.23229" lon="-1.53751">
        <ele>69.962976</ele>
        <time>2022-12-16T14:16:09.960Z</time>
      </trkpt>
      <trkpt lat="47.23218" lon="-1.53761">
        <ele>69.768354</ele>
        <time>2022-12-16T14:16:12.958Z</time>
      </trkpt>
      <trkpt lat="47.23209" lon="-1.53769">
        <ele>69.630898</ele>
        <time>2022-12-16T14:16:14.952Z</time>
      </trkpt>
      <trkpt lat="47.23199" lon="-1.53776">
        <ele>69.471188</ele>
        <time>2022-12-16T14:16:16.953Z</time>
      </trkpt>
      <trkpt lat="47.23191" lon="-1.53786">
        <ele>69.32142</ele>
        <time>2022-12-16T14:16:18.953Z</time>
      </trkpt>
      <trkpt lat="47.23184" lon="-1.53794">
        <ele>69.190305</ele>
        <time>2022-12-16T14:16:20.938Z</time>
      </trkpt>
      <trkpt lat="47.23174" lon="-1.53804">
        <ele>69.019822</ele>
        <time>2022-12-16T14:16:23.961Z</time>
      </trkpt>
      <trkpt lat="47.23163" lon="-1.53813">
        <ele>68.837124</ele>
        <time>2022-12-16T14:16:26.955Z</time>
      </trkpt>
      <trkpt lat="47.23153" lon="-1.53823">
        <ele>68.665455</ele>
        <time>2022-12-16T14:16:30.935Z</time>
      </trkpt>
      <trkpt lat="47.23144" lon="-1.53833">
        <ele>68.5566</ele>
        <time>2022-12-16T14:16:35.942Z</time>
      </trkpt>
      <trkpt lat="47.23137" lon="-1.53842">
        <ele>68.467831</ele>
        <time>2022-12-16T14:16:38.956Z</time>
      </trkpt>
      <trkpt lat="47.23127" lon="-1.53851">
        <ele>68.362705</ele>
        <time>2022-12-16T14:16:41.937Z</time>
      </trkpt>
      <trkpt lat="47.23119" lon="-1.53859">
        <ele>68.272136</ele>
        <time>2022-12-16T14:16:43.942Z</time>
      </trkpt>
      <trkpt lat="47.23111" lon="-1.53867">
        <ele>68.183362</ele>
        <time>2022-12-16T14:16:45.956Z</time>
      </trkpt>
      <trkpt lat="47.23103" lon="-1.53875">
        <ele>68.094669</ele>
        <time>2022-12-16T14:16:47.947Z</time>
      </trkpt>
      <trkpt lat="47.23094" lon="-1.53884">
        <ele>68.002177</ele>
        <time>2022-12-16T14:16:49.957Z</time>
      </trkpt>
      <trkpt lat="47.23087" lon="-1.53891">
        <ele>67.920057</ele>
        <time>2022-12-16T14:16:51.956Z</time>
      </trkpt>
      <trkpt lat="47.23079" lon="-1.53901">
        <ele>67.826568</ele>
        <time>2022-12-16T14:16:53.940Z</time>
      </trkpt>
      <trkpt lat="47.23071" lon="-1.53908">
        <ele>67.742636</ele>
        <time>2022-12-16T14:16:55.943Z</time>
      </trkpt>
      <trkpt lat="47.23063" lon="-1.53917">
        <ele>67.651715</ele>
        <time>2022-12-16T14:16:57.941Z</time>
      </trkpt>
      <trkpt lat="47.23054" lon="-1.53925">
        <ele>67.55383</ele>
        <time>2022-12-16T14:16:59.951Z</time>
      </trkpt>
      <trkpt lat="47.23045" lon="-1.53932">
        <ele>67.46505</ele>
        <time>2022-12-16T14:17:01.938Z</time>
      </trkpt>
      <trkpt lat="47.23037" lon="-1.5394">
        <ele>67.377781</ele>
        <time>2022-12-16T14:17:03.951Z</time>
      </trkpt>
      <trkpt lat="47.23029" lon="-1.53949">
        <ele>67.284526</ele>
        <time>2022-12-16T14:17:05.940Z</time>
      </trkpt>
      <trkpt lat="47.23021" lon="-1.53956">
        <ele>67.196851</ele>
        <time>2022-12-16T14:17:07.948Z</time>
      </trkpt>
      <trkpt lat="47.23014" lon="-1.53965">
        <ele>67.112904</ele>
        <time>2022-12-16T14:17:09.957Z</time>
      </trkpt>
      <trkpt lat="47.23006" lon="-1.53973">
        <ele>67.022748</ele>
        <time>2022-12-16T14:17:11.932Z</time>
      </trkpt>
      <trkpt lat="47.22997" lon="-1.53981">
        <ele>66.957279</ele>
        <time>2022-12-16T14:17:13.943Z</time>
      </trkpt>
      <trkpt lat="47.2299" lon="-1.53989">
        <ele>66.899567</ele>
        <time>2022-12-16T14:17:15.944Z</time>
      </trkpt>
      <trkpt lat="47.22982" lon="-1.53997">
        <ele>66.838812</ele>
        <time>2022-12-16T14:17:17.938Z</time>
      </trkpt>
      <trkpt lat="47.22972" lon="-1.54008">
        <ele>66.75865</ele>
        <time>2022-12-16T14:17:20.935Z</time>
      </trkpt>
      <trkpt lat="47.22961" lon="-1.54019">
        <ele>66.675143</ele>
        <time>2022-12-16T14:17:23.960Z</time>
      </trkpt>
      <trkpt lat="47.22951" lon="-1.54028">
        <ele>66.59831</ele>
        <time>2022-12-16T14:17:26.954Z</time>
      </trkpt>
      <trkpt lat="47.22941" lon="-1.54038">
        <ele>66.519891</ele>
        <time>2022-12-16T14:17:29.962Z</time>
      </trkpt>
      <trkpt lat="47.2293" lon="-1.54048">
        <ele>66.441069</ele>
        <time>2022-12-16T14:17:32.959Z</time>
      </trkpt>
      <trkpt lat="47.22921" lon="-1.54058">
        <ele>66.371372</ele>
        <time>2022-12-16T14:17:35.931Z</time>
      </trkpt>
      <trkpt lat="47.22912" lon="-1.54066">
        <ele>66.302813</ele>
        <time>2022-12-16T14:17:38.957Z</time>
      </trkpt>
      <trkpt lat="47.22904" lon="-1.54076">
        <ele>66.234892</ele>
        <time>2022-12-16T14:17:41.944Z</time>
      </trkpt>
      <trkpt lat="47.22894" lon="-1.54086">
        <ele>66.160849</ele>
        <time>2022-12-16T14:17:44.950Z</time>
      </trkpt>
      <trkpt lat="47.22884" lon="-1.54097">
        <ele>66.083495</ele>
        <time>2022-12-16T14:17:47.956Z</time>
      </trkpt>
      <trkpt lat="47.22874" lon="-1.54107">
        <ele>66.005621</ele>
        <time>2022-12-16T14:17:50.943Z</time>
      </trkpt>
      <trkpt lat="47.22864" lon="-1.54117">
        <ele>65.926392</ele>
        <time>2022-12-16T14:17:53.954Z</time>
      </trkpt>
      <trkpt lat="47.22854" lon="-1.54127">
        <ele>65.907808</ele>
        <time>2022-12-16T14:17:56.939Z</time>
      </trkpt>
      <trkpt lat="47.22845" lon="-1.54135">
        <ele>66.060306</ele>
        <time>2022-12-16T14:17:59.936Z</time>
      </trkpt>
      <trkpt lat="47.22836" lon="-1.54144">
        <ele>66.220453</ele>
        <time>2022-12-16T14:18:03.958Z</time>
      </trkpt>
      <trkpt lat="47.22827" lon="-1.54152">
        <ele>66.368552</ele>
        <time>2022-12-16T14:18:06.953Z</time>
      </trkpt>
      <trkpt lat="47.22817" lon="-1.5416">
        <ele>66.527823</ele>
        <time>2022-12-16T14:18:09.944Z</time>
      </trkpt>
      <trkpt lat="47.22808" lon="-1.54171">
        <ele>66.695356</ele>
        <time>2022-12-16T14:18:12.932Z</time>
      </trkpt>
      <trkpt lat="47.228" lon="-1.54179">
        <ele>66.844364</ele>
        <time>2022-12-16T14:18:15.952Z</time>
      </trkpt>
      <trkpt lat="47.22791" lon="-1.54188">
        <ele>67.001707</ele>
        <time>2022-12-16T14:18:18.941Z</time>
      </trkpt>
      <trkpt lat="47.22782" lon="-1.54196">
        <ele>67.144405</ele>
        <time>2022-12-16T14:18:21.955Z</time>
      </trkpt>
      <trkpt lat="47.22773" lon="-1.54205">
        <ele>67.306724</ele>
        <time>2022-12-16T14:18:25.942Z</time>
      </trkpt>
      <trkpt lat="47.22763" lon="-1.54215">
        <ele>67.476577</ele>
        <time>2022-12-16T14:18:29.952Z</time>
      </trkpt>
      <trkpt lat="47.22754" lon="-1.54225">
        <ele>67.646935</ele>
        <time>2022-12-16T14:18:32.953Z</time>
      </trkpt>
      <trkpt lat="47.22744" lon="-1.54237">
        <ele>67.827854</ele>
        <time>2022-12-16T14:18:35.951Z</time>
      </trkpt>
      <trkpt lat="47.22733" lon="-1.54247">
        <ele>68.016256</ele>
        <time>2022-12-16T14:18:38.935Z</time>
      </trkpt>
      <trkpt lat="47.22725" lon="-1.54258">
        <ele>68.182027</ele>
        <time>2022-12-16T14:18:41.944Z</time>
      </trkpt>
      <trkpt lat="47.22716" lon="-1.54267">
        <ele>68.329191</ele>
        <time>2022-12-16T14:18:44.951Z</time>
      </trkpt>
      <trkpt lat="47.22706" lon="-1.54272">
        <ele>68.4792</ele>
        <time>2022-12-16T14:18:47.932Z</time>
      </trkpt>
      <trkpt lat="47.22696" lon="-1.54278">
        <ele>68.645925</ele>
        <time>2022-12-16T14:18:50.933Z</time>
      </trkpt>
      <trkpt lat="47.22686" lon="-1.54285">
        <ele>68.815337</ele>
        <time>2022-12-16T14:18:53.955Z</time>
      </trkpt>
      <trkpt lat="47.22674" lon="-1.54293">
        <ele>69.002296</ele>
        <time>2022-12-16T14:18:56.942Z</time>
      </trkpt>
      <trkpt lat="47.22665" lon="-1.54298">
        <ele>69.140936</ele>
        <time>2022-12-16T14:18:58.936Z</time>
      </trkpt>
      <trkpt lat="47.22657" lon="-1.54304">
        <ele>69.282156</ele>
        <time>2022-12-16T14:19:00.934Z</time>
      </trkpt>
      <trkpt lat="47.22645" lon="-1.54314">
        <ele>69.482623</ele>
        <time>2022-12-16T14:19:03.954Z</time>
      </trkpt>
      <trkpt lat="47.22637" lon="-1.54322">
        <ele>69.619603</ele>
        <time>2022-12-16T14:19:05.948Z</time>
      </trkpt>
      <trkpt lat="47.22629" lon="-1.54328">
        <ele>69.754663</ele>
        <time>2022-12-16T14:19:07.954Z</time>
      </trkpt>
      <trkpt lat="47.22618" lon="-1.54338">
        <ele>69.944737</ele>
        <time>2022-12-16T14:19:10.934Z</time>
      </trkpt>
      <trkpt lat="47.2261" lon="-1.54346">
        <ele>70.090449</ele>
        <time>2022-12-16T14:19:12.942Z</time>
      </trkpt>
      <trkpt lat="47.22601" lon="-1.54354">
        <ele>70.245771</ele>
        <time>2022-12-16T14:19:14.956Z</time>
      </trkpt>
      <trkpt lat="47.2259" lon="-1.54358">
        <ele>70.407003</ele>
        <time>2022-12-16T14:19:16.954Z</time>
      </trkpt>
      <trkpt lat="47.22578" lon="-1.54366">
        <ele>70.605254</ele>
        <time>2022-12-16T14:19:19.955Z</time>
      </trkpt>
      <trkpt lat="47.22569" lon="-1.54372">
        <ele>70.743315</ele>
        <time>2022-12-16T14:19:21.941Z</time>
      </trkpt>
      <trkpt lat="47.22561" lon="-1.54378">
        <ele>70.881096</ele>
        <time>2022-12-16T14:19:23.950Z</time>
      </trkpt>
      <trkpt lat="47.2255" lon="-1.54386">
        <ele>71.062431</ele>
        <time>2022-12-16T14:19:26.935Z</time>
      </trkpt>
      <trkpt lat="47.22539" lon="-1.54394">
        <ele>71.088099</ele>
        <time>2022-12-16T14:19:29.937Z</time>
      </trkpt>
      <trkpt lat="47.22529" lon="-1.54403">
        <ele>71.048886</ele>
        <time>2022-12-16T14:19:32.933Z</time>
      </trkpt>
      <trkpt lat="47.22521" lon="-1.54413">
        <ele>71.010502</ele>
        <time>2022-12-16T14:19:35.958Z</time>
      </trkpt>
      <trkpt lat="47.22511" lon="-1.54422">
        <ele>70.971096</ele>
        <time>2022-12-16T14:19:38.952Z</time>
      </trkpt>
      <trkpt lat="47.22501" lon="-1.54431">
        <ele>70.930997</ele>
        <time>2022-12-16T14:19:41.946Z</time>
      </trkpt>
      <trkpt lat="47.2249" lon="-1.5444">
        <ele>70.886428</ele>
        <time>2022-12-16T14:19:44.955Z</time>
      </trkpt>
      <trkpt lat="47.22482" lon="-1.54447">
        <ele>70.853004</ele>
        <time>2022-12-16T14:19:46.942Z</time>
      </trkpt>
      <trkpt lat="47.22473" lon="-1.54453">
        <ele>70.820573</ele>
        <time>2022-12-16T14:19:48.951Z</time>
      </trkpt>
      <trkpt lat="47.22461" lon="-1.54462">
        <ele>70.774051</ele>
        <time>2022-12-16T14:19:51.944Z</time>
      </trkpt>
      <trkpt lat="47.22453" lon="-1.54471">
        <ele>70.737376</ele>
        <time>2022-12-16T14:19:53.938Z</time>
      </trkpt>
      <trkpt lat="47.22444" lon="-1.54479">
        <ele>70.703827</ele>
        <time>2022-12-16T14:19:55.945Z</time>
      </trkpt>
      <trkpt lat="47.22434" lon="-1.54487">
        <ele>70.661551</ele>
        <time>2022-12-16T14:19:58.947Z</time>
      </trkpt>
      <trkpt lat="47.22424" lon="-1.54495">
        <ele>70.623421</ele>
        <time>2022-12-16T14:20:01.946Z</time>
      </trkpt>
      <trkpt lat="47.22415" lon="-1.545">
        <ele>70.590927</ele>
        <time>2022-12-16T14:20:04.943Z</time>
      </trkpt>
      <trkpt lat="47.22406" lon="-1.54503">
        <ele>70.556946</ele>
        <time>2022-12-16T14:20:08.954Z</time>
      </trkpt>
      <trkpt lat="47.22397" lon="-1.54508">
        <ele>70.525016</ele>
        <time>2022-12-16T14:20:11.953Z</time>
      </trkpt>
      <trkpt lat="47.22388" lon="-1.54516">
        <ele>70.490211</ele>
        <time>2022-12-16T14:20:14.952Z</time>
      </trkpt>
      <trkpt lat="47.22379" lon="-1.54524">
        <ele>70.46521</ele>
        <time>2022-12-16T14:20:17.956Z</time>
      </trkpt>
      <trkpt lat="47.22369" lon="-1.54532">
        <ele>70.438528</ele>
        <time>2022-12-16T14:20:20.938Z</time>
      </trkpt>
      <trkpt lat="47.22359" lon="-1.5454">
        <ele>70.410311</ele>
        <time>2022-12-16T14:20:23.934Z</time>
      </trkpt>
      <trkpt lat="47.22348" lon="-1.54547">
        <ele>70.382543</ele>
        <time>2022-12-16T14:20:26.953Z</time>
      </trkpt>
      <trkpt lat="47.22338" lon="-1.54554">
        <ele>70.355717</ele>
        <time>2022-12-16T14:20:29.942Z</time>
      </trkpt>
      <trkpt lat="47.22329" lon="-1.54562">
        <ele>70.330122</ele>
        <time>2022-12-16T14:20:32.954Z</time>
      </trkpt>
      <trkpt lat="47.2232" lon="-1.5457">
        <ele>70.305315</ele>
        <time>2022-12-16T14:20:35.934Z</time>
      </trkpt>
      <trkpt lat="47.2231" lon="-1.54576">
        <ele>70.278755</ele>
        <time>2022-12-16T14:20:38.939Z</time>
      </trkpt>
      <trkpt lat="47.22299" lon="-1.54584">
        <ele>70.24967</ele>
        <time>2022-12-16T14:20:41.964Z</time>
      </trkpt>
      <trkpt lat="47.22288" lon="-1.54592">
        <ele>70.220687</ele>
        <time>2022-12-16T14:20:44.951Z</time>
      </trkpt>
      <trkpt lat="47.22278" lon="-1.54599">
        <ele>70.192999</ele>
        <time>2022-12-16T14:20:47.941Z</time>
      </trkpt>
      <trkpt lat="47.2227" lon="-1.54607">
        <ele>70.169886</ele>
        <time>2022-12-16T14:20:50.935Z</time>
      </trkpt>
      <trkpt lat="47.22262" lon="-1.54616">
        <ele>70.144772</ele>
        <time>2022-12-16T14:20:53.934Z</time>
      </trkpt>
      <trkpt lat="47.22253" lon="-1.54627">
        <ele>70.117395</ele>
        <time>2022-12-16T14:20:56.943Z</time>
      </trkpt>
      <trkpt lat="47.22245" lon="-1.54641">
        <ele>70.087687</ele>
        <time>2022-12-16T14:20:59.946Z</time>
      </trkpt>
      <trkpt lat="47.22237" lon="-1.54656">
        <ele>69.951788</ele>
        <time>2022-12-16T14:21:02.943Z</time>
      </trkpt>
      <trkpt lat="47.22229" lon="-1.54669">
        <ele>69.401809</ele>
        <time>2022-12-16T14:21:05.944Z</time>
      </trkpt>
      <trkpt lat="47.22221" lon="-1.54682">
        <ele>68.860325</ele>
        <time>2022-12-16T14:21:08.951Z</time>
      </trkpt>
      <trkpt lat="47.22211" lon="-1.54694">
        <ele>68.279717</ele>
        <time>2022-12-16T14:21:11.953Z</time>
      </trkpt>
      <trkpt lat="47.22202" lon="-1.54706">
        <ele>67.722769</ele>
        <time>2022-12-16T14:21:14.959Z</time>
      </trkpt>
      <trkpt lat="47.22192" lon="-1.54715">
        <ele>67.180864</ele>
        <time>2022-12-16T14:21:17.945Z</time>
      </trkpt>
      <trkpt lat="47.22183" lon="-1.54724">
        <ele>66.70004</ele>
        <time>2022-12-16T14:21:20.936Z</time>
      </trkpt>
      <trkpt lat="47.22177" lon="-1.54733">
        <ele>66.278293</ele>
        <time>2022-12-16T14:21:24.954Z</time>
      </trkpt>
      <trkpt lat="47.22169" lon="-1.54747">
        <ele>65.728416</ele>
        <time>2022-12-16T14:21:28.945Z</time>
      </trkpt>
      <trkpt lat="47.2216" lon="-1.54756">
        <ele>65.251222</ele>
        <time>2022-12-16T14:21:31.951Z</time>
      </trkpt>
      <trkpt lat="47.22151" lon="-1.54755">
        <ele>64.808094</ele>
        <time>2022-12-16T14:21:34.937Z</time>
      </trkpt>
      <trkpt lat="47.22143" lon="-1.5474">
        <ele>64.21598</ele>
        <time>2022-12-16T14:21:38.940Z</time>
      </trkpt>
      <trkpt lat="47.22137" lon="-1.54728">
        <ele>63.775118</ele>
        <time>2022-12-16T14:21:40.940Z</time>
      </trkpt>
      <trkpt lat="47.22131" lon="-1.54717">
        <ele>63.331776</ele>
        <time>2022-12-16T14:21:42.950Z</time>
      </trkpt>
      <trkpt lat="47.22126" lon="-1.54705">
        <ele>62.893805</ele>
        <time>2022-12-16T14:21:44.958Z</time>
      </trkpt>
      <trkpt lat="47.2212" lon="-1.54695">
        <ele>62.480594</ele>
        <time>2022-12-16T14:21:46.941Z</time>
      </trkpt>
      <trkpt lat="47.22112" lon="-1.54679">
        <ele>61.875579</ele>
        <time>2022-12-16T14:21:49.954Z</time>
      </trkpt>
      <trkpt lat="47.22106" lon="-1.54669">
        <ele>61.731381</ele>
        <time>2022-12-16T14:21:51.939Z</time>
      </trkpt>
      <trkpt lat="47.22099" lon="-1.54655">
        <ele>61.549148</ele>
        <time>2022-12-16T14:21:54.952Z</time>
      </trkpt>
      <trkpt lat="47.22093" lon="-1.54642">
        <ele>61.390138</ele>
        <time>2022-12-16T14:21:57.955Z</time>
      </trkpt>
      <trkpt lat="47.22088" lon="-1.54629">
        <ele>61.233477</ele>
        <time>2022-12-16T14:22:00.934Z</time>
      </trkpt>
      <trkpt lat="47.22082" lon="-1.54615">
        <ele>61.061742</ele>
        <time>2022-12-16T14:22:03.952Z</time>
      </trkpt>
      <trkpt lat="47.22075" lon="-1.546">
        <ele>60.87466</ele>
        <time>2022-12-16T14:22:06.950Z</time>
      </trkpt>
      <trkpt lat="47.22067" lon="-1.54588">
        <ele>60.69685</ele>
        <time>2022-12-16T14:22:09.942Z</time>
      </trkpt>
      <trkpt lat="47.2206" lon="-1.54575">
        <ele>60.525252</ele>
        <time>2022-12-16T14:22:12.955Z</time>
      </trkpt>
      <trkpt lat="47.22053" lon="-1.54563">
        <ele>60.370378</ele>
        <time>2022-12-16T14:22:15.947Z</time>
      </trkpt>
      <trkpt lat="47.22047" lon="-1.54552">
        <ele>60.225951</ele>
        <time>2022-12-16T14:22:18.966Z</time>
      </trkpt>
      <trkpt lat="47.2204" lon="-1.5454">
        <ele>60.065965</ele>
        <time>2022-12-16T14:22:21.935Z</time>
      </trkpt>
      <trkpt lat="47.22033" lon="-1.54531">
        <ele>59.918731</ele>
        <time>2022-12-16T14:22:24.938Z</time>
      </trkpt>
      <trkpt lat="47.22024" lon="-1.5452">
        <ele>59.737384</ele>
        <time>2022-12-16T14:22:28.954Z</time>
      </trkpt>
      <trkpt lat="47.22016" lon="-1.54512">
        <ele>59.597796</ele>
        <time>2022-12-16T14:22:31.947Z</time>
      </trkpt>
      <trkpt lat="47.22008" lon="-1.54505">
        <ele>59.455607</ele>
        <time>2022-12-16T14:22:34.960Z</time>
      </trkpt>
      <trkpt lat="47.22001" lon="-1.54496">
        <ele>59.308626</ele>
        <time>2022-12-16T14:22:37.944Z</time>
      </trkpt>
      <trkpt lat="47.21992" lon="-1.54487">
        <ele>59.148855</ele>
        <time>2022-12-16T14:22:40.938Z</time>
      </trkpt>
      <trkpt lat="47.21983" lon="-1.54477">
        <ele>58.766366</ele>
        <time>2022-12-16T14:22:43.934Z</time>
      </trkpt>
      <trkpt lat="47.21972" lon="-1.54466">
        <ele>58.334305</ele>
        <time>2022-12-16T14:22:46.929Z</time>
      </trkpt>
      <trkpt lat="47.21961" lon="-1.54457">
        <ele>57.890237</ele>
        <time>2022-12-16T14:22:49.951Z</time>
      </trkpt>
      <trkpt lat="47.21949" lon="-1.54449">
        <ele>57.438317</ele>
        <time>2022-12-16T14:22:52.936Z</time>
      </trkpt>
      <trkpt lat="47.2194" lon="-1.54442">
        <ele>57.108334</ele>
        <time>2022-12-16T14:22:54.938Z</time>
      </trkpt>
      <trkpt lat="47.21928" lon="-1.54433">
        <ele>56.647159</ele>
        <time>2022-12-16T14:22:57.937Z</time>
      </trkpt>
      <trkpt lat="47.2192" lon="-1.54426">
        <ele>56.304641</ele>
        <time>2022-12-16T14:22:59.936Z</time>
      </trkpt>
      <trkpt lat="47.2191" lon="-1.54418">
        <ele>55.933932</ele>
        <time>2022-12-16T14:23:01.936Z</time>
      </trkpt>
      <trkpt lat="47.21902" lon="-1.54411">
        <ele>55.583917</ele>
        <time>2022-12-16T14:23:03.954Z</time>
      </trkpt>
      <trkpt lat="47.21893" lon="-1.54404">
        <ele>55.238381</ele>
        <time>2022-12-16T14:23:05.948Z</time>
      </trkpt>
      <trkpt lat="47.21881" lon="-1.54393">
        <ele>54.76916</ele>
        <time>2022-12-16T14:23:08.958Z</time>
      </trkpt>
      <trkpt lat="47.21873" lon="-1.54386">
        <ele>54.452211</ele>
        <time>2022-12-16T14:23:10.937Z</time>
      </trkpt>
      <trkpt lat="47.21862" lon="-1.54376">
        <ele>54.007795</ele>
        <time>2022-12-16T14:23:13.939Z</time>
      </trkpt>
      <trkpt lat="47.2185" lon="-1.54367">
        <ele>53.546125</ele>
        <time>2022-12-16T14:23:16.957Z</time>
      </trkpt>
      <trkpt lat="47.21842" lon="-1.54359">
        <ele>53.227957</ele>
        <time>2022-12-16T14:23:18.956Z</time>
      </trkpt>
      <trkpt lat="47.21832" lon="-1.5435">
        <ele>52.932141</ele>
        <time>2022-12-16T14:23:21.945Z</time>
      </trkpt>
      <trkpt lat="47.21823" lon="-1.54344">
        <ele>52.853625</ele>
        <time>2022-12-16T14:23:25.937Z</time>
      </trkpt>
      <trkpt lat="47.21814" lon="-1.54337">
        <ele>52.773556</ele>
        <time>2022-12-16T14:23:30.937Z</time>
      </trkpt>
      <trkpt lat="47.21811" lon="-1.54324">
        <ele>52.69955</ele>
        <time>2022-12-16T14:23:45.941Z</time>
      </trkpt>
      <trkpt lat="47.21804" lon="-1.54311">
        <ele>52.607739</ele>
        <time>2022-12-16T14:23:50.932Z</time>
      </trkpt>
      <trkpt lat="47.21795" lon="-1.54307">
        <ele>52.5272</ele>
        <time>2022-12-16T14:23:54.942Z</time>
      </trkpt>
      <trkpt lat="47.21786" lon="-1.54315">
        <ele>52.447353</ele>
        <time>2022-12-16T14:23:59.939Z</time>
      </trkpt>
      <trkpt lat="47.21768" lon="-1.54312">
        <ele>52.298941</ele>
        <time>2022-12-16T14:24:46.943Z</time>
      </trkpt>
      <trkpt lat="47.21763" lon="-1.54325">
        <ele>52.209555</ele>
        <time>2022-12-16T14:24:50.937Z</time>
      </trkpt>
      <trkpt lat="47.21759" lon="-1.54341">
        <ele>52.120467</ele>
        <time>2022-12-16T14:24:54.941Z</time>
      </trkpt>
      <trkpt lat="47.21755" lon="-1.54352">
        <ele>52.047016</ele>
        <time>2022-12-16T14:24:57.954Z</time>
      </trkpt>
      <trkpt lat="47.2175" lon="-1.54365">
        <ele>51.964287</ele>
        <time>2022-12-16T14:25:00.935Z</time>
      </trkpt>
      <trkpt lat="47.21746" lon="-1.54381">
        <ele>51.873029</ele>
        <time>2022-12-16T14:25:03.942Z</time>
      </trkpt>
      <trkpt lat="47.2174" lon="-1.54396">
        <ele>51.776714</ele>
        <time>2022-12-16T14:25:06.944Z</time>
      </trkpt>
      <trkpt lat="47.21735" lon="-1.54411">
        <ele>51.686946</ele>
        <time>2022-12-16T14:25:09.953Z</time>
      </trkpt>
      <trkpt lat="47.21731" lon="-1.54425">
        <ele>51.599524</ele>
        <time>2022-12-16T14:25:12.954Z</time>
      </trkpt>
      <trkpt lat="47.21725" lon="-1.54439">
        <ele>51.50994</ele>
        <time>2022-12-16T14:25:15.956Z</time>
      </trkpt>
      <trkpt lat="47.2172" lon="-1.54453">
        <ele>51.430119</ele>
        <time>2022-12-16T14:25:19.956Z</time>
      </trkpt>
      <trkpt lat="47.21715" lon="-1.54466">
        <ele>51.353121</ele>
        <time>2022-12-16T14:25:25.940Z</time>
      </trkpt>
      <trkpt lat="47.21709" lon="-1.54478">
        <ele>51.282196</ele>
        <time>2022-12-16T14:25:29.941Z</time>
      </trkpt>
      <trkpt lat="47.217" lon="-1.54483">
        <ele>51.209635</ele>
        <time>2022-12-16T14:25:34.933Z</time>
      </trkpt>
      <trkpt lat="47.21696" lon="-1.54495">
        <ele>51.142355</ele>
        <time>2022-12-16T14:25:37.943Z</time>
      </trkpt>
      <trkpt lat="47.21691" lon="-1.54508">
        <ele>51.067007</ele>
        <time>2022-12-16T14:25:40.936Z</time>
      </trkpt>
      <trkpt lat="47.21682" lon="-1.5452">
        <ele>50.983348</ele>
        <time>2022-12-16T14:25:43.937Z</time>
      </trkpt>
      <trkpt lat="47.21674" lon="-1.54531">
        <ele>50.904027</ele>
        <time>2022-12-16T14:25:46.941Z</time>
      </trkpt>
      <trkpt lat="47.21667" lon="-1.54541">
        <ele>50.829131</ele>
        <time>2022-12-16T14:25:49.952Z</time>
      </trkpt>
      <trkpt lat="47.21657" lon="-1.54548">
        <ele>50.750621</ele>
        <time>2022-12-16T14:25:53.947Z</time>
      </trkpt>
      <trkpt lat="47.21646" lon="-1.54547">
        <ele>50.66539</ele>
        <time>2022-12-16T14:25:57.939Z</time>
      </trkpt>
      <trkpt lat="47.21635" lon="-1.54548">
        <ele>50.588303</ele>
        <time>2022-12-16T14:26:00.944Z</time>
      </trkpt>
      <trkpt lat="47.21627" lon="-1.54555">
        <ele>50.51747</ele>
        <time>2022-12-16T14:26:03.940Z</time>
      </trkpt>
      <trkpt lat="47.21622" lon="-1.54568">
        <ele>50.444787</ele>
        <time>2022-12-16T14:26:06.943Z</time>
      </trkpt>
      <trkpt lat="47.21618" lon="-1.5458">
        <ele>50.376478</ele>
        <time>2022-12-16T14:26:09.941Z</time>
      </trkpt>
      <trkpt lat="47.21614" lon="-1.54592">
        <ele>50.30774</ele>
        <time>2022-12-16T14:26:12.953Z</time>
      </trkpt>
      <trkpt lat="47.21607" lon="-1.54603">
        <ele>50.234457</ele>
        <time>2022-12-16T14:26:15.941Z</time>
      </trkpt>
      <trkpt lat="47.21599" lon="-1.54614">
        <ele>50.08282</ele>
        <time>2022-12-16T14:26:18.953Z</time>
      </trkpt>
      <trkpt lat="47.21592" lon="-1.54626">
        <ele>49.854036</ele>
        <time>2022-12-16T14:26:21.954Z</time>
      </trkpt>
      <trkpt lat="47.21585" lon="-1.54639">
        <ele>49.607409</ele>
        <time>2022-12-16T14:26:24.956Z</time>
      </trkpt>
      <trkpt lat="47.21578" lon="-1.54653">
        <ele>49.346135</ele>
        <time>2022-12-16T14:26:27.952Z</time>
      </trkpt>
      <trkpt lat="47.21572" lon="-1.54668">
        <ele>49.101665</ele>
        <time>2022-12-16T14:26:30.935Z</time>
      </trkpt>
      <trkpt lat="47.21568" lon="-1.54684">
        <ele>48.842612</ele>
        <time>2022-12-16T14:26:33.933Z</time>
      </trkpt>
      <trkpt lat="47.21562" lon="-1.547">
        <ele>48.571511</ele>
        <time>2022-12-16T14:26:36.960Z</time>
      </trkpt>
      <trkpt lat="47.21554" lon="-1.54714">
        <ele>48.304006</ele>
        <time>2022-12-16T14:26:39.951Z</time>
      </trkpt>
      <trkpt lat="47.21545" lon="-1.54724">
        <ele>48.069646</ele>
        <time>2022-12-16T14:26:42.945Z</time>
      </trkpt>
      <trkpt lat="47.21539" lon="-1.54735">
        <ele>47.861987</ele>
        <time>2022-12-16T14:26:45.939Z</time>
      </trkpt>
      <trkpt lat="47.21534" lon="-1.54746">
        <ele>47.652152</ele>
        <time>2022-12-16T14:26:48.936Z</time>
      </trkpt>
      <trkpt lat="47.21528" lon="-1.54757">
        <ele>47.450757</ele>
        <time>2022-12-16T14:26:51.953Z</time>
      </trkpt>
      <trkpt lat="47.21522" lon="-1.54771">
        <ele>47.207706</ele>
        <time>2022-12-16T14:26:54.935Z</time>
      </trkpt>
      <trkpt lat="47.21516" lon="-1.54786">
        <ele>46.948806</ele>
        <time>2022-12-16T14:26:57.944Z</time>
      </trkpt>
      <trkpt lat="47.21509" lon="-1.54803">
        <ele>46.659697</ele>
        <time>2022-12-16T14:27:00.934Z</time>
      </trkpt>
      <trkpt lat="47.21503" lon="-1.54814">
        <ele>46.450978</ele>
        <time>2022-12-16T14:27:02.958Z</time>
      </trkpt>
      <trkpt lat="47.21498" lon="-1.54825">
        <ele>46.281845</ele>
        <time>2022-12-16T14:27:04.939Z</time>
      </trkpt>
      <trkpt lat="47.2149" lon="-1.5484">
        <ele>46.256157</ele>
        <time>2022-12-16T14:27:07.952Z</time>
      </trkpt>
      <trkpt lat="47.21485" lon="-1.54851">
        <ele>46.23807</ele>
        <time>2022-12-16T14:27:09.947Z</time>
      </trkpt>
      <trkpt lat="47.21477" lon="-1.54866">
        <ele>46.212507</ele>
        <time>2022-12-16T14:27:12.937Z</time>
      </trkpt>
      <trkpt lat="47.21471" lon="-1.54876">
        <ele>46.194107</ele>
        <time>2022-12-16T14:27:14.953Z</time>
      </trkpt>
      <trkpt lat="47.21466" lon="-1.54888">
        <ele>46.175363</ele>
        <time>2022-12-16T14:27:16.947Z</time>
      </trkpt>
      <trkpt lat="47.21459" lon="-1.54903">
        <ele>46.150345</ele>
        <time>2022-12-16T14:27:19.947Z</time>
      </trkpt>
      <trkpt lat="47.21451" lon="-1.54919">
        <ele>46.123647</ele>
        <time>2022-12-16T14:27:22.955Z</time>
      </trkpt>
      <trkpt lat="47.21444" lon="-1.54934">
        <ele>46.098855</ele>
        <time>2022-12-16T14:27:25.935Z</time>
      </trkpt>
      <trkpt lat="47.21437" lon="-1.54948">
        <ele>46.074381</ele>
        <time>2022-12-16T14:27:28.946Z</time>
      </trkpt>
      <trkpt lat="47.2143" lon="-1.54962">
        <ele>46.051565</ele>
        <time>2022-12-16T14:27:31.949Z</time>
      </trkpt>
      <trkpt lat="47.21424" lon="-1.54974">
        <ele>46.031456</ele>
        <time>2022-12-16T14:27:34.948Z</time>
      </trkpt>
      <trkpt lat="47.21418" lon="-1.54988">
        <ele>46.009802</ele>
        <time>2022-12-16T14:27:37.938Z</time>
      </trkpt>
      <trkpt lat="47.21412" lon="-1.55001">
        <ele>45.987136</ele>
        <time>2022-12-16T14:27:40.936Z</time>
      </trkpt>
      <trkpt lat="47.21406" lon="-1.55016">
        <ele>45.9644</ele>
        <time>2022-12-16T14:27:43.954Z</time>
      </trkpt>
      <trkpt lat="47.21401" lon="-1.5503">
        <ele>45.942949</ele>
        <time>2022-12-16T14:27:46.936Z</time>
      </trkpt>
      <trkpt lat="47.21396" lon="-1.55043">
        <ele>45.935945</ele>
        <time>2022-12-16T14:27:49.947Z</time>
      </trkpt>
      <trkpt lat="47.2139" lon="-1.55056">
        <ele>45.995356</ele>
        <time>2022-12-16T14:27:52.937Z</time>
      </trkpt>
      <trkpt lat="47.21383" lon="-1.55071">
        <ele>46.066188</ele>
        <time>2022-12-16T14:27:55.953Z</time>
      </trkpt>
      <trkpt lat="47.21378" lon="-1.55084">
        <ele>46.121125</ele>
        <time>2022-12-16T14:27:57.950Z</time>
      </trkpt>
      <trkpt lat="47.21374" lon="-1.55095">
        <ele>46.17348</ele>
        <time>2022-12-16T14:27:59.956Z</time>
      </trkpt>
      <trkpt lat="47.21369" lon="-1.55108">
        <ele>46.230418</ele>
        <time>2022-12-16T14:28:01.949Z</time>
      </trkpt>
      <trkpt lat="47.21364" lon="-1.55119">
        <ele>46.282747</ele>
        <time>2022-12-16T14:28:03.955Z</time>
      </trkpt>
      <trkpt lat="47.21359" lon="-1.5513">
        <ele>46.334443</ele>
        <time>2022-12-16T14:28:05.958Z</time>
      </trkpt>
      <trkpt lat="47.21354" lon="-1.55143">
        <ele>46.389679</ele>
        <time>2022-12-16T14:28:07.936Z</time>
      </trkpt>
      <trkpt lat="47.21348" lon="-1.55155">
        <ele>46.447761</ele>
        <time>2022-12-16T14:28:09.946Z</time>
      </trkpt>
      <trkpt lat="47.21343" lon="-1.5517">
        <ele>46.514222</ele>
        <time>2022-12-16T14:28:12.953Z</time>
      </trkpt>
      <trkpt lat="47.21337" lon="-1.55184">
        <ele>46.579419</ele>
        <time>2022-12-16T14:28:15.945Z</time>
      </trkpt>
      <trkpt lat="47.21332" lon="-1.55198">
        <ele>46.637428</ele>
        <time>2022-12-16T14:28:18.956Z</time>
      </trkpt>
      <trkpt lat="47.21327" lon="-1.55211">
        <ele>46.69541</ele>
        <time>2022-12-16T14:28:22.946Z</time>
      </trkpt>
      <trkpt lat="47.21335" lon="-1.5522">
        <ele>46.752216</ele>
        <time>2022-12-16T14:29:00.947Z</time>
      </trkpt>
      <trkpt lat="47.21341" lon="-1.55233">
        <ele>46.813278</ele>
        <time>2022-12-16T14:29:13.937Z</time>
      </trkpt>
      <trkpt lat="47.21337" lon="-1.55248">
        <ele>46.873699</ele>
        <time>2022-12-16T14:29:20.940Z</time>
      </trkpt>
      <trkpt lat="47.21337" lon="-1.55262">
        <ele>46.929558</ele>
        <time>2022-12-16T14:29:26.943Z</time>
      </trkpt>
      <trkpt lat="47.21346" lon="-1.55272">
        <ele>47.081465</ele>
        <time>2022-12-16T14:29:31.933Z</time>
      </trkpt>
      <trkpt lat="47.21353" lon="-1.55284">
        <ele>47.260789</ele>
        <time>2022-12-16T14:29:36.941Z</time>
      </trkpt>
      <trkpt lat="47.21346" lon="-1.55294">
        <ele>47.433968</ele>
        <time>2022-12-16T14:29:41.941Z</time>
      </trkpt>
      <trkpt lat="47.21338" lon="-1.55303">
        <ele>47.60238</ele>
        <time>2022-12-16T14:29:45.936Z</time>
      </trkpt>
      <trkpt lat="47.21334" lon="-1.55318">
        <ele>47.800884</ele>
        <time>2022-12-16T14:29:50.948Z</time>
      </trkpt>
      <trkpt lat="47.21329" lon="-1.55333">
        <ele>48.00285</ele>
        <time>2022-12-16T14:29:54.955Z</time>
      </trkpt>
      <trkpt lat="47.21324" lon="-1.55344">
        <ele>48.167278</ele>
        <time>2022-12-16T14:29:57.948Z</time>
      </trkpt>
      <trkpt lat="47.21318" lon="-1.55357">
        <ele>48.348515</ele>
        <time>2022-12-16T14:30:00.935Z</time>
      </trkpt>
      <trkpt lat="47.21312" lon="-1.5537">
        <ele>48.541705</ele>
        <time>2022-12-16T14:30:03.955Z</time>
      </trkpt>
      <trkpt lat="47.21306" lon="-1.55384">
        <ele>48.737931</ele>
        <time>2022-12-16T14:30:06.950Z</time>
      </trkpt>
      <trkpt lat="47.21302" lon="-1.55399">
        <ele>48.925007</ele>
        <time>2022-12-16T14:30:10.947Z</time>
      </trkpt>
      <trkpt lat="47.21297" lon="-1.55412">
        <ele>49.103697</ele>
        <time>2022-12-16T14:30:18.945Z</time>
      </trkpt>
      <trkpt lat="47.21293" lon="-1.55425">
        <ele>49.276039</ele>
        <time>2022-12-16T14:30:24.936Z</time>
      </trkpt>
      <trkpt lat="47.21283" lon="-1.55426">
        <ele>49.447938</ele>
        <time>2022-12-16T14:30:29.943Z</time>
      </trkpt>
      <trkpt lat="47.21276" lon="-1.55418">
        <ele>49.615483</ele>
        <time>2022-12-16T14:30:35.939Z</time>
      </trkpt>
      <trkpt lat="47.21266" lon="-1.55411">
        <ele>49.806407</ele>
        <time>2022-12-16T14:30:43.939Z</time>
      </trkpt>
      <trkpt lat="47.21258" lon="-1.55405">
        <ele>49.966309</ele>
        <time>2022-12-16T14:30:47.941Z</time>
      </trkpt>
      <trkpt lat="47.2125" lon="-1.55396">
        <ele>50.11239</ele>
        <time>2022-12-16T14:30:51.946Z</time>
      </trkpt>
      <trkpt lat="47.21241" lon="-1.55384">
        <ele>50.032802</ele>
        <time>2022-12-16T14:30:55.940Z</time>
      </trkpt>
      <trkpt lat="47.21232" lon="-1.55373">
        <ele>49.950206</ele>
        <time>2022-12-16T14:30:59.955Z</time>
      </trkpt>
      <trkpt lat="47.21225" lon="-1.55364">
        <ele>49.886237</ele>
        <time>2022-12-16T14:31:02.937Z</time>
      </trkpt>
      <trkpt lat="47.21219" lon="-1.55354">
        <ele>49.820121</ele>
        <time>2022-12-16T14:31:05.961Z</time>
      </trkpt>
      <trkpt lat="47.21211" lon="-1.55346">
        <ele>49.756557</ele>
        <time>2022-12-16T14:31:08.944Z</time>
      </trkpt>
      <trkpt lat="47.21204" lon="-1.55338">
        <ele>49.693573</ele>
        <time>2022-12-16T14:31:11.946Z</time>
      </trkpt>
      <trkpt lat="47.21196" lon="-1.5533">
        <ele>49.623271</ele>
        <time>2022-12-16T14:31:14.953Z</time>
      </trkpt>
      <trkpt lat="47.21188" lon="-1.55322">
        <ele>49.559693</ele>
        <time>2022-12-16T14:31:17.946Z</time>
      </trkpt>
      <trkpt lat="47.21181" lon="-1.55314">
        <ele>49.495576</ele>
        <time>2022-12-16T14:31:20.939Z</time>
      </trkpt>
      <trkpt lat="47.21174" lon="-1.55306">
        <ele>49.431745</ele>
        <time>2022-12-16T14:31:23.960Z</time>
      </trkpt>
      <trkpt lat="47.21165" lon="-1.55296">
        <ele>49.354871</ele>
        <time>2022-12-16T14:31:26.934Z</time>
      </trkpt>
      <trkpt lat="47.21156" lon="-1.55285">
        <ele>49.276113</ele>
        <time>2022-12-16T14:31:29.955Z</time>
      </trkpt>
      <trkpt lat="47.21146" lon="-1.55274">
        <ele>49.184161</ele>
        <time>2022-12-16T14:31:32.957Z</time>
      </trkpt>
      <trkpt lat="47.21137" lon="-1.55261">
        <ele>49.095391</ele>
        <time>2022-12-16T14:31:35.935Z</time>
      </trkpt>
      <trkpt lat="47.21128" lon="-1.55251">
        <ele>49.016836</ele>
        <time>2022-12-16T14:31:38.945Z</time>
      </trkpt>
      <trkpt lat="47.21119" lon="-1.5524">
        <ele>48.935512</ele>
        <time>2022-12-16T14:31:41.954Z</time>
      </trkpt>
      <trkpt lat="47.2111" lon="-1.55229">
        <ele>48.861679</ele>
        <time>2022-12-16T14:31:44.952Z</time>
      </trkpt>
      <trkpt lat="47.21101" lon="-1.55218">
        <ele>48.816294</ele>
        <time>2022-12-16T14:31:47.951Z</time>
      </trkpt>
      <trkpt lat="47.21091" lon="-1.55207">
        <ele>48.770206</ele>
        <time>2022-12-16T14:31:50.939Z</time>
      </trkpt>
      <trkpt lat="47.21081" lon="-1.55196">
        <ele>48.724124</ele>
        <time>2022-12-16T14:31:53.955Z</time>
      </trkpt>
      <trkpt lat="47.21072" lon="-1.55185">
        <ele>48.679221</ele>
        <time>2022-12-16T14:31:56.957Z</time>
      </trkpt>
      <trkpt lat="47.21063" lon="-1.55174">
        <ele>48.634736</ele>
        <time>2022-12-16T14:31:59.935Z</time>
      </trkpt>
      <trkpt lat="47.21054" lon="-1.55166">
        <ele>48.598127</ele>
        <time>2022-12-16T14:32:02.952Z</time>
      </trkpt>
      <trkpt lat="47.21046" lon="-1.55157">
        <ele>48.55897</ele>
        <time>2022-12-16T14:32:05.955Z</time>
      </trkpt>
      <trkpt lat="47.21036" lon="-1.55146">
        <ele>48.512882</ele>
        <time>2022-12-16T14:32:08.959Z</time>
      </trkpt>
      <trkpt lat="47.21026" lon="-1.55133">
        <ele>48.462373</ele>
        <time>2022-12-16T14:32:11.965Z</time>
      </trkpt>
      <trkpt lat="47.21015" lon="-1.55122">
        <ele>48.412951</ele>
        <time>2022-12-16T14:32:14.956Z</time>
      </trkpt>
      <trkpt lat="47.21008" lon="-1.55114">
        <ele>48.378886</ele>
        <time>2022-12-16T14:32:16.953Z</time>
      </trkpt>
      <trkpt lat="47.20998" lon="-1.55102">
        <ele>48.331298</ele>
        <time>2022-12-16T14:32:19.956Z</time>
      </trkpt>
      <trkpt lat="47.20988" lon="-1.55091">
        <ele>48.284292</ele>
        <time>2022-12-16T14:32:22.948Z</time>
      </trkpt>
      <trkpt lat="47.20979" lon="-1.55081">
        <ele>48.242276</ele>
        <time>2022-12-16T14:32:25.944Z</time>
      </trkpt>
      <trkpt lat="47.2097" lon="-1.55073">
        <ele>48.202444</ele>
        <time>2022-12-16T14:32:28.942Z</time>
      </trkpt>
      <trkpt lat="47.20961" lon="-1.55065">
        <ele>48.057329</ele>
        <time>2022-12-16T14:32:32.946Z</time>
      </trkpt>
      <trkpt lat="47.20953" lon="-1.55057">
        <ele>47.899565</ele>
        <time>2022-12-16T14:32:36.933Z</time>
      </trkpt>
      <trkpt lat="47.20945" lon="-1.55048">
        <ele>47.737287</ele>
        <time>2022-12-16T14:32:41.957Z</time>
      </trkpt>
      <trkpt lat="47.20937" lon="-1.5504">
        <ele>47.582918</ele>
        <time>2022-12-16T14:32:45.947Z</time>
      </trkpt>
      <trkpt lat="47.2093" lon="-1.55032">
        <ele>47.435096</ele>
        <time>2022-12-16T14:32:48.956Z</time>
      </trkpt>
      <trkpt lat="47.20922" lon="-1.55023">
        <ele>47.279414</ele>
        <time>2022-12-16T14:32:51.955Z</time>
      </trkpt>
      <trkpt lat="47.20914" lon="-1.55015">
        <ele>47.11645</ele>
        <time>2022-12-16T14:32:54.939Z</time>
      </trkpt>
      <trkpt lat="47.20905" lon="-1.55004">
        <ele>46.929001</ele>
        <time>2022-12-16T14:32:58.959Z</time>
      </trkpt>
      <trkpt lat="47.20898" lon="-1.54994">
        <ele>46.765136</ele>
        <time>2022-12-16T14:33:02.946Z</time>
      </trkpt>
      <trkpt lat="47.20887" lon="-1.54994">
        <ele>46.595485</ele>
        <time>2022-12-16T14:33:16.948Z</time>
      </trkpt>
      <trkpt lat="47.20884" lon="-1.55009">
        <ele>46.42692</ele>
        <time>2022-12-16T14:33:21.937Z</time>
      </trkpt>
      <trkpt lat="47.20885" lon="-1.55023">
        <ele>46.269485</ele>
        <time>2022-12-16T14:33:24.947Z</time>
      </trkpt>
      <trkpt lat="47.20882" lon="-1.55036">
        <ele>46.112582</ele>
        <time>2022-12-16T14:33:27.954Z</time>
      </trkpt>
      <trkpt lat="47.20882" lon="-1.55053">
        <ele>45.930661</ele>
        <time>2022-12-16T14:33:30.945Z</time>
      </trkpt>
      <trkpt lat="47.20885" lon="-1.55068">
        <ele>45.759507</ele>
        <time>2022-12-16T14:33:33.946Z</time>
      </trkpt>
      <trkpt lat="47.20887" lon="-1.55081">
        <ele>45.604584</ele>
        <time>2022-12-16T14:33:36.952Z</time>
      </trkpt>
      <trkpt lat="47.20889" lon="-1.55097">
        <ele>45.433781</ele>
        <time>2022-12-16T14:33:39.954Z</time>
      </trkpt>
      <trkpt lat="47.20892" lon="-1.55111">
        <ele>45.263778</ele>
        <time>2022-12-16T14:33:43.949Z</time>
      </trkpt>
      <trkpt lat="47.20894" lon="-1.55127">
        <ele>45.482189</ele>
        <time>2022-12-16T14:33:48.940Z</time>
      </trkpt>
      <trkpt lat="47.20895" lon="-1.55143">
        <ele>45.69903</ele>
        <time>2022-12-16T14:33:53.950Z</time>
      </trkpt>
      <trkpt lat="47.20897" lon="-1.55157">
        <ele>45.897366</ele>
        <time>2022-12-16T14:33:56.942Z</time>
      </trkpt>
      <trkpt lat="47.209" lon="-1.55171">
        <ele>46.10272</ele>
        <time>2022-12-16T14:33:59.938Z</time>
      </trkpt>
      <trkpt lat="47.20902" lon="-1.55189">
        <ele>46.348846</ele>
        <time>2022-12-16T14:34:02.953Z</time>
      </trkpt>
      <trkpt lat="47.20904" lon="-1.55207">
        <ele>46.61009</ele>
        <time>2022-12-16T14:34:05.956Z</time>
      </trkpt>
      <trkpt lat="47.20905" lon="-1.55226">
        <ele>46.875408</ele>
        <time>2022-12-16T14:34:08.951Z</time>
      </trkpt>
      <trkpt lat="47.20906" lon="-1.55245">
        <ele>47.139061</ele>
        <time>2022-12-16T14:34:11.938Z</time>
      </trkpt>
      <trkpt lat="47.20907" lon="-1.55264">
        <ele>47.392519</ele>
        <time>2022-12-16T14:34:14.943Z</time>
      </trkpt>
      <trkpt lat="47.20909" lon="-1.55283">
        <ele>47.661133</ele>
        <time>2022-12-16T14:34:17.952Z</time>
      </trkpt>
      <trkpt lat="47.2091" lon="-1.553">
        <ele>47.903847</ele>
        <time>2022-12-16T14:34:20.935Z</time>
      </trkpt>
      <trkpt lat="47.20912" lon="-1.55316">
        <ele>48.117946</ele>
        <time>2022-12-16T14:34:23.953Z</time>
      </trkpt>
      <trkpt lat="47.20913" lon="-1.55329">
        <ele>48.30626</ele>
        <time>2022-12-16T14:34:26.956Z</time>
      </trkpt>
      <trkpt lat="47.20916" lon="-1.55344">
        <ele>48.517705</ele>
        <time>2022-12-16T14:34:29.956Z</time>
      </trkpt>
      <trkpt lat="47.20918" lon="-1.55359">
        <ele>48.734735</ele>
        <time>2022-12-16T14:34:32.934Z</time>
      </trkpt>
      <trkpt lat="47.2092" lon="-1.55375">
        <ele>48.963006</ele>
        <time>2022-12-16T14:34:35.946Z</time>
      </trkpt>
      <trkpt lat="47.20923" lon="-1.55392">
        <ele>49.236889</ele>
        <time>2022-12-16T14:34:38.941Z</time>
      </trkpt>
      <trkpt lat="47.20923" lon="-1.5541">
        <ele>49.526761</ele>
        <time>2022-12-16T14:34:41.944Z</time>
      </trkpt>
      <trkpt lat="47.20923" lon="-1.55426">
        <ele>49.785266</ele>
        <time>2022-12-16T14:34:44.944Z</time>
      </trkpt>
      <trkpt lat="47.20925" lon="-1.55439">
        <ele>49.996097</ele>
        <time>2022-12-16T14:34:47.950Z</time>
      </trkpt>
      <trkpt lat="47.20927" lon="-1.55453">
        <ele>50.223925</ele>
        <time>2022-12-16T14:34:51.947Z</time>
      </trkpt>
      <trkpt lat="47.20928" lon="-1.55468">
        <ele>50.469777</ele>
        <time>2022-12-16T14:34:54.949Z</time>
      </trkpt>
      <trkpt lat="47.2093" lon="-1.55483">
        <ele>50.712768</ele>
        <time>2022-12-16T14:34:58.941Z</time>
      </trkpt>
      <trkpt lat="47.20932" lon="-1.555">
        <ele>50.978614</ele>
        <time>2022-12-16T14:35:02.944Z</time>
      </trkpt>
      <trkpt lat="47.20933" lon="-1.55514">
        <ele>51.209408</ele>
        <time>2022-12-16T14:35:07.948Z</time>
      </trkpt>
      <trkpt lat="47.20929" lon="-1.55526">
        <ele>51.42125</ele>
        <time>2022-12-16T14:35:13.953Z</time>
      </trkpt>
      <trkpt lat="47.20919" lon="-1.55529">
        <ele>51.645176</ele>
        <time>2022-12-16T14:35:20.945Z</time>
      </trkpt>
      <trkpt lat="47.20911" lon="-1.55537">
        <ele>51.879296</ele>
        <time>2022-12-16T14:35:25.944Z</time>
      </trkpt>
      <trkpt lat="47.20897" lon="-1.55538">
        <ele>52.219344</ele>
        <time>2022-12-16T14:35:51.950Z</time>
      </trkpt>
      <trkpt lat="47.20891" lon="-1.55549">
        <ele>52.447951</ele>
        <time>2022-12-16T14:36:03.948Z</time>
      </trkpt>
      <trkpt lat="47.20882" lon="-1.55551">
        <ele>52.667264</ele>
        <time>2022-12-16T14:36:13.942Z</time>
      </trkpt>
      <trkpt lat="47.20872" lon="-1.55548">
        <ele>52.888159</ele>
        <time>2022-12-16T14:36:24.948Z</time>
      </trkpt>
      <trkpt lat="47.20863" lon="-1.55546">
        <ele>53.120316</ele>
        <time>2022-12-16T14:36:29.936Z</time>
      </trkpt>
      <trkpt lat="47.20851" lon="-1.55542">
        <ele>52.838814</ele>
        <time>2022-12-16T14:36:33.944Z</time>
      </trkpt>
      <trkpt lat="47.2084" lon="-1.55539">
        <ele>52.512998</ele>
        <time>2022-12-16T14:36:37.949Z</time>
      </trkpt>
      <trkpt lat="47.2083" lon="-1.55537">
        <ele>52.248041</ele>
        <time>2022-12-16T14:36:40.938Z</time>
      </trkpt>
      <trkpt lat="47.20821" lon="-1.55535">
        <ele>51.974714</ele>
        <time>2022-12-16T14:36:43.955Z</time>
      </trkpt>
      <trkpt lat="47.2081" lon="-1.55533">
        <ele>51.670146</ele>
        <time>2022-12-16T14:36:46.957Z</time>
      </trkpt>
      <trkpt lat="47.208" lon="-1.5553">
        <ele>51.369985</ele>
        <time>2022-12-16T14:36:49.958Z</time>
      </trkpt>
      <trkpt lat="47.20789" lon="-1.55528">
        <ele>51.062881</ele>
        <time>2022-12-16T14:36:52.939Z</time>
      </trkpt>
      <trkpt lat="47.20777" lon="-1.55526">
        <ele>50.732916</ele>
        <time>2022-12-16T14:36:55.947Z</time>
      </trkpt>
      <trkpt lat="47.20765" lon="-1.55523">
        <ele>50.381444</ele>
        <time>2022-12-16T14:36:58.950Z</time>
      </trkpt>
      <trkpt lat="47.20752" lon="-1.5552">
        <ele>50.02556</ele>
        <time>2022-12-16T14:37:01.950Z</time>
      </trkpt>
      <trkpt lat="47.20743" lon="-1.55518">
        <ele>49.746649</ele>
        <time>2022-12-16T14:37:04.948Z</time>
      </trkpt>
      <trkpt lat="47.20732" lon="-1.55514">
        <ele>49.431249</ele>
        <time>2022-12-16T14:37:07.937Z</time>
      </trkpt>
      <trkpt lat="47.20722" lon="-1.55512">
        <ele>49.152069</ele>
        <time>2022-12-16T14:37:09.947Z</time>
      </trkpt>
      <trkpt lat="47.20713" lon="-1.5551">
        <ele>48.884042</ele>
        <time>2022-12-16T14:37:11.936Z</time>
      </trkpt>
      <trkpt lat="47.20704" lon="-1.55507">
        <ele>48.626196</ele>
        <time>2022-12-16T14:37:13.955Z</time>
      </trkpt>
      <trkpt lat="47.20689" lon="-1.55504">
        <ele>48.19497</ele>
        <time>2022-12-16T14:37:16.944Z</time>
      </trkpt>
      <trkpt lat="47.20679" lon="-1.55502">
        <ele>48.035582</ele>
        <time>2022-12-16T14:37:18.958Z</time>
      </trkpt>
      <trkpt lat="47.2067" lon="-1.55499">
        <ele>47.965713</ele>
        <time>2022-12-16T14:37:21.950Z</time>
      </trkpt>
      <trkpt lat="47.20658" lon="-1.55497">
        <ele>47.879881</ele>
        <time>2022-12-16T14:37:24.937Z</time>
      </trkpt>
      <trkpt lat="47.20646" lon="-1.55495">
        <ele>47.796808</ele>
        <time>2022-12-16T14:37:27.946Z</time>
      </trkpt>
      <trkpt lat="47.20634" lon="-1.55492">
        <ele>47.704893</ele>
        <time>2022-12-16T14:37:30.936Z</time>
      </trkpt>
      <trkpt lat="47.20622" lon="-1.5549">
        <ele>47.617724</ele>
        <time>2022-12-16T14:37:33.954Z</time>
      </trkpt>
      <trkpt lat="47.20611" lon="-1.55487">
        <ele>47.535842</ele>
        <time>2022-12-16T14:37:36.947Z</time>
      </trkpt>
      <trkpt lat="47.20601" lon="-1.55484">
        <ele>47.46488</ele>
        <time>2022-12-16T14:37:39.947Z</time>
      </trkpt>
      <trkpt lat="47.20592" lon="-1.55481">
        <ele>47.396339</ele>
        <time>2022-12-16T14:37:42.940Z</time>
      </trkpt>
      <trkpt lat="47.20582" lon="-1.5548">
        <ele>47.327394</ele>
        <time>2022-12-16T14:37:45.953Z</time>
      </trkpt>
      <trkpt lat="47.20573" lon="-1.55484">
        <ele>47.255811</ele>
        <time>2022-12-16T14:37:48.945Z</time>
      </trkpt>
      <trkpt lat="47.20563" lon="-1.55492">
        <ele>47.174928</ele>
        <time>2022-12-16T14:37:51.941Z</time>
      </trkpt>
      <trkpt lat="47.20554" lon="-1.55499">
        <ele>47.099195</ele>
        <time>2022-12-16T14:37:54.957Z</time>
      </trkpt>
      <trkpt lat="47.20545" lon="-1.5551">
        <ele>47.013108</ele>
        <time>2022-12-16T14:37:58.951Z</time>
      </trkpt>
      <trkpt lat="47.20537" lon="-1.55518">
        <ele>46.946428</ele>
        <time>2022-12-16T14:38:01.956Z</time>
      </trkpt>
      <trkpt lat="47.20531" lon="-1.5553">
        <ele>46.872941</ele>
        <time>2022-12-16T14:38:04.946Z</time>
      </trkpt>
      <trkpt lat="47.20528" lon="-1.55547">
        <ele>46.787657</ele>
        <time>2022-12-16T14:38:07.952Z</time>
      </trkpt>
      <trkpt lat="47.20524" lon="-1.55564">
        <ele>46.886015</ele>
        <time>2022-12-16T14:38:10.935Z</time>
      </trkpt>
      <trkpt lat="47.20521" lon="-1.55581">
        <ele>47.022959</ele>
        <time>2022-12-16T14:38:13.935Z</time>
      </trkpt>
      <trkpt lat="47.20519" lon="-1.556">
        <ele>47.165956</ele>
        <time>2022-12-16T14:38:16.936Z</time>
      </trkpt>
      <trkpt lat="47.20516" lon="-1.55619">
        <ele>47.309284</ele>
        <time>2022-12-16T14:38:19.958Z</time>
      </trkpt>
      <trkpt lat="47.20516" lon="-1.55634">
        <ele>47.418728</ele>
        <time>2022-12-16T14:38:21.983Z</time>
      </trkpt>
      <trkpt lat="47.20514" lon="-1.55652">
        <ele>47.558171</ele>
        <time>2022-12-16T14:38:24.953Z</time>
      </trkpt>
      <trkpt lat="47.20511" lon="-1.55669">
        <ele>47.690695</ele>
        <time>2022-12-16T14:38:27.943Z</time>
      </trkpt>
      <trkpt lat="47.20509" lon="-1.55683">
        <ele>47.796174</ele>
        <time>2022-12-16T14:38:29.954Z</time>
      </trkpt>
      <trkpt lat="47.20507" lon="-1.55696">
        <ele>47.896316</ele>
        <time>2022-12-16T14:38:31.954Z</time>
      </trkpt>
      <trkpt lat="47.20505" lon="-1.5571">
        <ele>47.999616</ele>
        <time>2022-12-16T14:38:33.954Z</time>
      </trkpt>
      <trkpt lat="47.20504" lon="-1.55724">
        <ele>48.111736</ele>
        <time>2022-12-16T14:38:35.940Z</time>
      </trkpt>
      <trkpt lat="47.20503" lon="-1.55738">
        <ele>48.213104</ele>
        <time>2022-12-16T14:38:37.956Z</time>
      </trkpt>
      <trkpt lat="47.20501" lon="-1.55756">
        <ele>48.353488</ele>
        <time>2022-12-16T14:38:40.935Z</time>
      </trkpt>
      <trkpt lat="47.20499" lon="-1.55776">
        <ele>48.501252</ele>
        <time>2022-12-16T14:38:43.947Z</time>
      </trkpt>
      <trkpt lat="47.20497" lon="-1.55795">
        <ele>48.644746</ele>
        <time>2022-12-16T14:38:46.949Z</time>
      </trkpt>
      <trkpt lat="47.20495" lon="-1.55808">
        <ele>48.749095</ele>
        <time>2022-12-16T14:38:48.955Z</time>
      </trkpt>
      <trkpt lat="47.20493" lon="-1.55823">
        <ele>48.878693</ele>
        <time>2022-12-16T14:38:50.935Z</time>
      </trkpt>
      <trkpt lat="47.20492" lon="-1.55838">
        <ele>49.011401</ele>
        <time>2022-12-16T14:38:52.954Z</time>
      </trkpt>
      <trkpt lat="47.20491" lon="-1.55853">
        <ele>49.147735</ele>
        <time>2022-12-16T14:38:54.940Z</time>
      </trkpt>
      <trkpt lat="47.2049" lon="-1.55868">
        <ele>49.282293</ele>
        <time>2022-12-16T14:38:56.938Z</time>
      </trkpt>
      <trkpt lat="47.20489" lon="-1.55881">
        <ele>49.402276</ele>
        <time>2022-12-16T14:38:58.953Z</time>
      </trkpt>
      <trkpt lat="47.20488" lon="-1.55895">
        <ele>49.525154</ele>
        <time>2022-12-16T14:39:00.936Z</time>
      </trkpt>
      <trkpt lat="47.20486" lon="-1.55915">
        <ele>49.702612</ele>
        <time>2022-12-16T14:39:03.947Z</time>
      </trkpt>
      <trkpt lat="47.20486" lon="-1.55929">
        <ele>49.830709</ele>
        <time>2022-12-16T14:39:05.943Z</time>
      </trkpt>
      <trkpt lat="47.20484" lon="-1.55943">
        <ele>49.9558</ele>
        <time>2022-12-16T14:39:07.955Z</time>
      </trkpt>
      <trkpt lat="47.20483" lon="-1.55958">
        <ele>50.090358</ele>
        <time>2022-12-16T14:39:09.955Z</time>
      </trkpt>
      <trkpt lat="47.20481" lon="-1.55972">
        <ele>50.220441</ele>
        <time>2022-12-16T14:39:11.954Z</time>
      </trkpt>
      <trkpt lat="47.20479" lon="-1.55985">
        <ele>50.342052</ele>
        <time>2022-12-16T14:39:13.949Z</time>
      </trkpt>
      <trkpt lat="47.20477" lon="-1.56003">
        <ele>50.501816</ele>
        <time>2022-12-16T14:39:16.957Z</time>
      </trkpt>
      <trkpt lat="47.20476" lon="-1.56023">
        <ele>50.677196</ele>
        <time>2022-12-16T14:39:19.955Z</time>
      </trkpt>
      <trkpt lat="47.20474" lon="-1.56042">
        <ele>50.854141</ele>
        <time>2022-12-16T14:39:22.947Z</time>
      </trkpt>
      <trkpt lat="47.20471" lon="-1.56062">
        <ele>51.036411</ele>
        <time>2022-12-16T14:39:25.944Z</time>
      </trkpt>
      <trkpt lat="47.20469" lon="-1.56075">
        <ele>51.091828</ele>
        <time>2022-12-16T14:39:27.939Z</time>
      </trkpt>
      <trkpt lat="47.20468" lon="-1.56095">
        <ele>50.96272</ele>
        <time>2022-12-16T14:39:30.936Z</time>
      </trkpt>
      <trkpt lat="47.20466" lon="-1.56109">
        <ele>50.877413</ele>
        <time>2022-12-16T14:39:32.936Z</time>
      </trkpt>
      <trkpt lat="47.20463" lon="-1.56128">
        <ele>50.74938</ele>
        <time>2022-12-16T14:39:35.939Z</time>
      </trkpt>
      <trkpt lat="47.20462" lon="-1.56141">
        <ele>50.663591</ele>
        <time>2022-12-16T14:39:37.959Z</time>
      </trkpt>
      <trkpt lat="47.2046" lon="-1.56159">
        <ele>50.545974</ele>
        <time>2022-12-16T14:39:40.936Z</time>
      </trkpt>
      <trkpt lat="47.20459" lon="-1.56176">
        <ele>50.435256</ele>
        <time>2022-12-16T14:39:43.936Z</time>
      </trkpt>
      <trkpt lat="47.20457" lon="-1.56192">
        <ele>50.333014</ele>
        <time>2022-12-16T14:39:46.938Z</time>
      </trkpt>
      <trkpt lat="47.20456" lon="-1.56208">
        <ele>50.233195</ele>
        <time>2022-12-16T14:39:49.938Z</time>
      </trkpt>
      <trkpt lat="47.20456" lon="-1.56226">
        <ele>50.116932</ele>
        <time>2022-12-16T14:39:53.949Z</time>
      </trkpt>
      <trkpt lat="47.20459" lon="-1.56242">
        <ele>50.007949</ele>
        <time>2022-12-16T14:39:57.935Z</time>
      </trkpt>
      <trkpt lat="47.20458" lon="-1.56257">
        <ele>49.915638</ele>
        <time>2022-12-16T14:40:00.945Z</time>
      </trkpt>
      <trkpt lat="47.20454" lon="-1.56273">
        <ele>49.805148</ele>
        <time>2022-12-16T14:40:03.948Z</time>
      </trkpt>
      <trkpt lat="47.20452" lon="-1.5629">
        <ele>49.690188</ele>
        <time>2022-12-16T14:40:06.939Z</time>
      </trkpt>
      <trkpt lat="47.2045" lon="-1.56304">
        <ele>49.598061</ele>
        <time>2022-12-16T14:40:08.939Z</time>
      </trkpt>
      <trkpt lat="47.20447" lon="-1.56319">
        <ele>49.499836</ele>
        <time>2022-12-16T14:40:10.934Z</time>
      </trkpt>
      <trkpt lat="47.20445" lon="-1.56334">
        <ele>49.429047</ele>
        <time>2022-12-16T14:40:12.955Z</time>
      </trkpt>
      <trkpt lat="47.20444" lon="-1.56351">
        <ele>49.484902</ele>
        <time>2022-12-16T14:40:14.938Z</time>
      </trkpt>
      <trkpt lat="47.20442" lon="-1.56368">
        <ele>49.537512</ele>
        <time>2022-12-16T14:40:16.957Z</time>
      </trkpt>
      <trkpt lat="47.20439" lon="-1.56383">
        <ele>49.588635</ele>
        <time>2022-12-16T14:40:18.952Z</time>
      </trkpt>
      <trkpt lat="47.20434" lon="-1.56399">
        <ele>49.64632</ele>
        <time>2022-12-16T14:40:21.944Z</time>
      </trkpt>
      <trkpt lat="47.20431" lon="-1.56416">
        <ele>49.703017</ele>
        <time>2022-12-16T14:40:24.957Z</time>
      </trkpt>
      <trkpt lat="47.20431" lon="-1.5643">
        <ele>49.747633</ele>
        <time>2022-12-16T14:40:26.961Z</time>
      </trkpt>
      <trkpt lat="47.2043" lon="-1.56444">
        <ele>49.791759</ele>
        <time>2022-12-16T14:40:28.942Z</time>
      </trkpt>
      <trkpt lat="47.20428" lon="-1.56458">
        <ele>49.836685</ele>
        <time>2022-12-16T14:40:30.937Z</time>
      </trkpt>
      <trkpt lat="47.20427" lon="-1.56473">
        <ele>49.885791</ele>
        <time>2022-12-16T14:40:32.953Z</time>
      </trkpt>
      <trkpt lat="47.20426" lon="-1.56492">
        <ele>49.946946</ele>
        <time>2022-12-16T14:40:35.956Z</time>
      </trkpt>
      <trkpt lat="47.20425" lon="-1.56506">
        <ele>49.992547</ele>
        <time>2022-12-16T14:40:37.958Z</time>
      </trkpt>
      <trkpt lat="47.20423" lon="-1.56519">
        <ele>50.036678</ele>
        <time>2022-12-16T14:40:39.959Z</time>
      </trkpt>
      <trkpt lat="47.20422" lon="-1.56533">
        <ele>50.08037</ele>
        <time>2022-12-16T14:40:41.947Z</time>
      </trkpt>
      <trkpt lat="47.20421" lon="-1.56551">
        <ele>50.139925</ele>
        <time>2022-12-16T14:40:44.958Z</time>
      </trkpt>
      <trkpt lat="47.2042" lon="-1.56568">
        <ele>50.193405</ele>
        <time>2022-12-16T14:40:47.956Z</time>
      </trkpt>
      <trkpt lat="47.20417" lon="-1.56584">
        <ele>50.246856</ele>
        <time>2022-12-16T14:40:50.939Z</time>
      </trkpt>
      <trkpt lat="47.20414" lon="-1.56603">
        <ele>50.378393</ele>
        <time>2022-12-16T14:40:53.956Z</time>
      </trkpt>
      <trkpt lat="47.20412" lon="-1.56622">
        <ele>50.544288</ele>
        <time>2022-12-16T14:40:56.957Z</time>
      </trkpt>
      <trkpt lat="47.20409" lon="-1.5664">
        <ele>50.70641</ele>
        <time>2022-12-16T14:40:59.941Z</time>
      </trkpt>
      <trkpt lat="47.20408" lon="-1.56661">
        <ele>50.892445</ele>
        <time>2022-12-16T14:41:02.953Z</time>
      </trkpt>
      <trkpt lat="47.20408" lon="-1.56675">
        <ele>51.014513</ele>
        <time>2022-12-16T14:41:04.948Z</time>
      </trkpt>
      <trkpt lat="47.20408" lon="-1.56694">
        <ele>51.176699</ele>
        <time>2022-12-16T14:41:08.942Z</time>
      </trkpt>
      <trkpt lat="47.20406" lon="-1.56712">
        <ele>51.334037</ele>
        <time>2022-12-16T14:41:11.938Z</time>
      </trkpt>
      <trkpt lat="47.20405" lon="-1.56725">
        <ele>51.449682</ele>
        <time>2022-12-16T14:41:13.954Z</time>
      </trkpt>
      <trkpt lat="47.20402" lon="-1.56744">
        <ele>51.622434</ele>
        <time>2022-12-16T14:41:16.933Z</time>
      </trkpt>
      <trkpt lat="47.20397" lon="-1.5676">
        <ele>51.772796</ele>
        <time>2022-12-16T14:41:19.961Z</time>
      </trkpt>
      <trkpt lat="47.20391" lon="-1.56772">
        <ele>51.904794</ele>
        <time>2022-12-16T14:41:22.941Z</time>
      </trkpt>
      <trkpt lat="47.20389" lon="-1.56792">
        <ele>52.081837</ele>
        <time>2022-12-16T14:41:25.946Z</time>
      </trkpt>
      <trkpt lat="47.20388" lon="-1.56811">
        <ele>52.246838</ele>
        <time>2022-12-16T14:41:28.943Z</time>
      </trkpt>
      <trkpt lat="47.20385" lon="-1.56828">
        <ele>52.400792</ele>
        <time>2022-12-16T14:41:31.939Z</time>
      </trkpt>
      <trkpt lat="47.20383" lon="-1.56844">
        <ele>52.537715</ele>
        <time>2022-12-16T14:41:34.959Z</time>
      </trkpt>
      <trkpt lat="47.20382" lon="-1.56857">
        <ele>52.449401</ele>
        <time>2022-12-16T14:41:36.949Z</time>
      </trkpt>
      <trkpt lat="47.20383" lon="-1.56876">
        <ele>52.168723</ele>
        <time>2022-12-16T14:41:38.950Z</time>
      </trkpt>
      <trkpt lat="47.2038" lon="-1.56893">
        <ele>51.913585</ele>
        <time>2022-12-16T14:41:40.935Z</time>
      </trkpt>
      <trkpt lat="47.20378" lon="-1.56906">
        <ele>51.713539</ele>
        <time>2022-12-16T14:41:42.944Z</time>
      </trkpt>
      <trkpt lat="47.20379" lon="-1.56922">
        <ele>51.479414</ele>
        <time>2022-12-16T14:41:44.948Z</time>
      </trkpt>
      <trkpt lat="47.20377" lon="-1.5694">
        <ele>51.205657</ele>
        <time>2022-12-16T14:41:47.942Z</time>
      </trkpt>
      <trkpt lat="47.20376" lon="-1.56959">
        <ele>50.93142</ele>
        <time>2022-12-16T14:41:50.938Z</time>
      </trkpt>
      <trkpt lat="47.20375" lon="-1.56976">
        <ele>50.683531</ele>
        <time>2022-12-16T14:41:53.956Z</time>
      </trkpt>
      <trkpt lat="47.20373" lon="-1.56994">
        <ele>50.408747</ele>
        <time>2022-12-16T14:41:56.941Z</time>
      </trkpt>
      <trkpt lat="47.20372" lon="-1.57008">
        <ele>50.204689</ele>
        <time>2022-12-16T14:41:58.955Z</time>
      </trkpt>
      <trkpt lat="47.20369" lon="-1.57027">
        <ele>49.919005</ele>
        <time>2022-12-16T14:42:01.947Z</time>
      </trkpt>
      <trkpt lat="47.20365" lon="-1.57044">
        <ele>49.649662</ele>
        <time>2022-12-16T14:42:04.944Z</time>
      </trkpt>
      <trkpt lat="47.20361" lon="-1.57056">
        <ele>49.449662</ele>
        <time>2022-12-16T14:42:06.949Z</time>
      </trkpt>
      <trkpt lat="47.20356" lon="-1.57067">
        <ele>49.253383</ele>
        <time>2022-12-16T14:42:08.955Z</time>
      </trkpt>
      <trkpt lat="47.20349" lon="-1.57082">
        <ele>48.994032</ele>
        <time>2022-12-16T14:42:11.955Z</time>
      </trkpt>
      <trkpt lat="47.20341" lon="-1.57096">
        <ele>48.710037</ele>
        <time>2022-12-16T14:42:14.939Z</time>
      </trkpt>
      <trkpt lat="47.2033" lon="-1.57107">
        <ele>48.639555</ele>
        <time>2022-12-16T14:42:17.936Z</time>
      </trkpt>
      <trkpt lat="47.20322" lon="-1.57114">
        <ele>48.603812</ele>
        <time>2022-12-16T14:42:19.940Z</time>
      </trkpt>
      <trkpt lat="47.20312" lon="-1.57124">
        <ele>48.560688</ele>
        <time>2022-12-16T14:42:21.937Z</time>
      </trkpt>
      <trkpt lat="47.20303" lon="-1.57131">
        <ele>48.520674</ele>
        <time>2022-12-16T14:42:23.952Z</time>
      </trkpt>
      <trkpt lat="47.20293" lon="-1.57137">
        <ele>48.48198</ele>
        <time>2022-12-16T14:42:25.936Z</time>
      </trkpt>
      <trkpt lat="47.20285" lon="-1.57143">
        <ele>48.447979</ele>
        <time>2022-12-16T14:42:27.947Z</time>
      </trkpt>
      <trkpt lat="47.20275" lon="-1.57148">
        <ele>48.412288</ele>
        <time>2022-12-16T14:42:29.955Z</time>
      </trkpt>
      <trkpt lat="47.20267" lon="-1.57154">
        <ele>48.377457</ele>
        <time>2022-12-16T14:42:31.956Z</time>
      </trkpt>
      <trkpt lat="47.20258" lon="-1.5716">
        <ele>48.340861</ele>
        <time>2022-12-16T14:42:33.957Z</time>
      </trkpt>
      <trkpt lat="47.20248" lon="-1.57166">
        <ele>48.301521</ele>
        <time>2022-12-16T14:42:35.955Z</time>
      </trkpt>
      <trkpt lat="47.20238" lon="-1.57171">
        <ele>48.262779</ele>
        <time>2022-12-16T14:42:37.963Z</time>
      </trkpt>
      <trkpt lat="47.2023" lon="-1.57178">
        <ele>48.226821</ele>
        <time>2022-12-16T14:42:39.965Z</time>
      </trkpt>
      <trkpt lat="47.2022" lon="-1.57183">
        <ele>48.188881</ele>
        <time>2022-12-16T14:42:41.950Z</time>
      </trkpt>
      <trkpt lat="47.20211" lon="-1.57188">
        <ele>48.153764</ele>
        <time>2022-12-16T14:42:43.952Z</time>
      </trkpt>
      <trkpt lat="47.20202" lon="-1.57193">
        <ele>48.120061</ele>
        <time>2022-12-16T14:42:45.954Z</time>
      </trkpt>
      <trkpt lat="47.20194" lon="-1.57199">
        <ele>48.086523</ele>
        <time>2022-12-16T14:42:47.956Z</time>
      </trkpt>
      <trkpt lat="47.20185" lon="-1.57206">
        <ele>48.049597</ele>
        <time>2022-12-16T14:42:49.956Z</time>
      </trkpt>
      <trkpt lat="47.20177" lon="-1.57212">
        <ele>48.026289</ele>
        <time>2022-12-16T14:42:51.947Z</time>
      </trkpt>
      <trkpt lat="47.20167" lon="-1.57218">
        <ele>48.095951</ele>
        <time>2022-12-16T14:42:53.946Z</time>
      </trkpt>
      <trkpt lat="47.20158" lon="-1.57225">
        <ele>48.161836</ele>
        <time>2022-12-16T14:42:55.957Z</time>
      </trkpt>
      <trkpt lat="47.20149" lon="-1.57231">
        <ele>48.224954</ele>
        <time>2022-12-16T14:42:57.959Z</time>
      </trkpt>
      <trkpt lat="47.20141" lon="-1.57237">
        <ele>48.286497</ele>
        <time>2022-12-16T14:42:59.941Z</time>
      </trkpt>
      <trkpt lat="47.20132" lon="-1.57242">
        <ele>48.347929</ele>
        <time>2022-12-16T14:43:01.957Z</time>
      </trkpt>
      <trkpt lat="47.20123" lon="-1.57248">
        <ele>48.411957</ele>
        <time>2022-12-16T14:43:03.960Z</time>
      </trkpt>
      <trkpt lat="47.20112" lon="-1.57255">
        <ele>48.492611</ele>
        <time>2022-12-16T14:43:06.959Z</time>
      </trkpt>
      <trkpt lat="47.201" lon="-1.57263">
        <ele>48.578929</ele>
        <time>2022-12-16T14:43:09.946Z</time>
      </trkpt>
      <trkpt lat="47.20092" lon="-1.57269">
        <ele>48.638512</ele>
        <time>2022-12-16T14:43:11.956Z</time>
      </trkpt>
      <trkpt lat="47.20083" lon="-1.57274">
        <ele>48.699101</ele>
        <time>2022-12-16T14:43:13.946Z</time>
      </trkpt>
      <trkpt lat="47.20075" lon="-1.57282">
        <ele>48.763251</ele>
        <time>2022-12-16T14:43:15.956Z</time>
      </trkpt>
      <trkpt lat="47.20067" lon="-1.5729">
        <ele>48.82716</ele>
        <time>2022-12-16T14:43:17.936Z</time>
      </trkpt>
      <trkpt lat="47.20059" lon="-1.57297">
        <ele>48.887339</ele>
        <time>2022-12-16T14:43:19.940Z</time>
      </trkpt>
      <trkpt lat="47.20047" lon="-1.57305">
        <ele>48.97594</ele>
        <time>2022-12-16T14:43:22.935Z</time>
      </trkpt>
      <trkpt lat="47.20036" lon="-1.57313">
        <ele>49.05757</ele>
        <time>2022-12-16T14:43:25.956Z</time>
      </trkpt>
      <trkpt lat="47.20025" lon="-1.5732">
        <ele>49.131112</ele>
        <time>2022-12-16T14:43:28.962Z</time>
      </trkpt>
      <trkpt lat="47.20015" lon="-1.57326">
        <ele>49.200711</ele>
        <time>2022-12-16T14:43:32.955Z</time>
      </trkpt>
      <trkpt lat="47.20005" lon="-1.57333">
        <ele>49.216725</ele>
        <time>2022-12-16T14:43:36.940Z</time>
      </trkpt>
      <trkpt lat="47.19995" lon="-1.57334">
        <ele>49.232007</ele>
        <time>2022-12-16T14:43:40.940Z</time>
      </trkpt>
      <trkpt lat="47.19985" lon="-1.57328">
        <ele>49.247016</ele>
        <time>2022-12-16T14:43:44.953Z</time>
      </trkpt>
      <trkpt lat="47.19982" lon="-1.57316">
        <ele>49.26051</ele>
        <time>2022-12-16T14:43:48.938Z</time>
      </trkpt>
      <trkpt lat="47.1998" lon="-1.57299">
        <ele>49.277531</ele>
        <time>2022-12-16T14:43:52.956Z</time>
      </trkpt>
      <trkpt lat="47.19979" lon="-1.57285">
        <ele>49.291566</ele>
        <time>2022-12-16T14:43:55.951Z</time>
      </trkpt>
      <trkpt lat="47.19979" lon="-1.5727">
        <ele>49.306498</ele>
        <time>2022-12-16T14:43:58.957Z</time>
      </trkpt>
      <trkpt lat="47.19979" lon="-1.57254">
        <ele>49.322032</ele>
        <time>2022-12-16T14:44:01.954Z</time>
      </trkpt>
      <trkpt lat="47.19979" lon="-1.57238">
        <ele>49.337857</ele>
        <time>2022-12-16T14:44:04.959Z</time>
      </trkpt>
      <trkpt lat="47.19979" lon="-1.57221">
        <ele>49.354585</ele>
        <time>2022-12-16T14:44:07.957Z</time>
      </trkpt>
      <trkpt lat="47.19979" lon="-1.57205">
        <ele>49.371309</ele>
        <time>2022-12-16T14:44:10.938Z</time>
      </trkpt>
      <trkpt lat="47.19979" lon="-1.57187">
        <ele>49.388434</ele>
        <time>2022-12-16T14:44:13.950Z</time>
      </trkpt>
      <trkpt lat="47.19979" lon="-1.57172">
        <ele>49.404262</ele>
        <time>2022-12-16T14:44:16.950Z</time>
      </trkpt>
      <trkpt lat="47.19979" lon="-1.57157">
        <ele>49.419</ele>
        <time>2022-12-16T14:44:19.954Z</time>
      </trkpt>
      <trkpt lat="47.19976" lon="-1.5714">
        <ele>49.435665</ele>
        <time>2022-12-16T14:44:22.938Z</time>
      </trkpt>
      <trkpt lat="47.19973" lon="-1.57123">
        <ele>49.453549</ele>
        <time>2022-12-16T14:44:25.949Z</time>
      </trkpt>
      <trkpt lat="47.19969" lon="-1.57106">
        <ele>49.412076</ele>
        <time>2022-12-16T14:44:28.958Z</time>
      </trkpt>
      <trkpt lat="47.19965" lon="-1.57088">
        <ele>49.293489</ele>
        <time>2022-12-16T14:44:31.950Z</time>
      </trkpt>
      <trkpt lat="47.19961" lon="-1.57071">
        <ele>49.177523</ele>
        <time>2022-12-16T14:44:34.945Z</time>
      </trkpt>
      <trkpt lat="47.19956" lon="-1.57054">
        <ele>49.058483</ele>
        <time>2022-12-16T14:44:37.940Z</time>
      </trkpt>
      <trkpt lat="47.19952" lon="-1.57035">
        <ele>48.938102</ele>
        <time>2022-12-16T14:44:40.937Z</time>
      </trkpt>
      <trkpt lat="47.19951" lon="-1.57017">
        <ele>48.821496</ele>
        <time>2022-12-16T14:44:43.941Z</time>
      </trkpt>
      <trkpt lat="47.19951" lon="-1.56998">
        <ele>48.705006</ele>
        <time>2022-12-16T14:44:46.944Z</time>
      </trkpt>
      <trkpt lat="47.19951" lon="-1.56979">
        <ele>48.587901</ele>
        <time>2022-12-16T14:44:49.939Z</time>
      </trkpt>
      <trkpt lat="47.19951" lon="-1.5696">
        <ele>48.46828</ele>
        <time>2022-12-16T14:44:52.937Z</time>
      </trkpt>
      <trkpt lat="47.19951" lon="-1.56942">
        <ele>48.356754</ele>
        <time>2022-12-16T14:44:55.954Z</time>
      </trkpt>
      <trkpt lat="47.19951" lon="-1.56926">
        <ele>48.254644</ele>
        <time>2022-12-16T14:44:58.958Z</time>
      </trkpt>
      <trkpt lat="47.19951" lon="-1.56911">
        <ele>48.162587</ele>
        <time>2022-12-16T14:45:01.959Z</time>
      </trkpt>
      <trkpt lat="47.19951" lon="-1.56895">
        <ele>48.057993</ele>
        <time>2022-12-16T14:45:05.947Z</time>
      </trkpt>
      <trkpt lat="47.19952" lon="-1.56879">
        <ele>47.962165</ele>
        <time>2022-12-16T14:45:09.958Z</time>
      </trkpt>
      <trkpt lat="47.19952" lon="-1.56861">
        <ele>47.847535</ele>
        <time>2022-12-16T14:45:13.939Z</time>
      </trkpt>
      <trkpt lat="47.19952" lon="-1.56845">
        <ele>47.808481</ele>
        <time>2022-12-16T14:45:16.940Z</time>
      </trkpt>
      <trkpt lat="47.19952" lon="-1.56828">
        <ele>47.814366</ele>
        <time>2022-12-16T14:45:19.955Z</time>
      </trkpt>
      <trkpt lat="47.19952" lon="-1.5681">
        <ele>47.820522</ele>
        <time>2022-12-16T14:45:22.937Z</time>
      </trkpt>
      <trkpt lat="47.19952" lon="-1.56792">
        <ele>47.826718</ele>
        <time>2022-12-16T14:45:25.955Z</time>
      </trkpt>
      <trkpt lat="47.19952" lon="-1.56774">
        <ele>47.832908</ele>
        <time>2022-12-16T14:45:28.955Z</time>
      </trkpt>
      <trkpt lat="47.19952" lon="-1.56757">
        <ele>47.839029</ele>
        <time>2022-12-16T14:45:31.956Z</time>
      </trkpt>
      <trkpt lat="47.19952" lon="-1.56738">
        <ele>47.845322</ele>
        <time>2022-12-16T14:45:34.942Z</time>
      </trkpt>
      <trkpt lat="47.19952" lon="-1.56721">
        <ele>47.85127</ele>
        <time>2022-12-16T14:45:37.959Z</time>
      </trkpt>
      <trkpt lat="47.19952" lon="-1.56706">
        <ele>47.856566</ele>
        <time>2022-12-16T14:45:40.939Z</time>
      </trkpt>
      <trkpt lat="47.19951" lon="-1.56689">
        <ele>47.862208</ele>
        <time>2022-12-16T14:45:44.955Z</time>
      </trkpt>
      <trkpt lat="47.19952" lon="-1.56674">
        <ele>47.867519</ele>
        <time>2022-12-16T14:45:48.953Z</time>
      </trkpt>
      <trkpt lat="47.19953" lon="-1.56659">
        <ele>47.872511</ele>
        <time>2022-12-16T14:45:51.959Z</time>
      </trkpt>
      <trkpt lat="47.19952" lon="-1.56644">
        <ele>47.877773</ele>
        <time>2022-12-16T14:45:54.939Z</time>
      </trkpt>
      <trkpt lat="47.19952" lon="-1.56629">
        <ele>47.882966</ele>
        <time>2022-12-16T14:45:57.947Z</time>
      </trkpt>
      <trkpt lat="47.19953" lon="-1.56614">
        <ele>47.888193</ele>
        <time>2022-12-16T14:46:00.937Z</time>
      </trkpt>
      <trkpt lat="47.19953" lon="-1.56598">
        <ele>47.893729</ele>
        <time>2022-12-16T14:46:03.940Z</time>
      </trkpt>
      <trkpt lat="47.19953" lon="-1.56582">
        <ele>47.902477</ele>
        <time>2022-12-16T14:46:06.947Z</time>
      </trkpt>
      <trkpt lat="47.19953" lon="-1.56566">
        <ele>47.91438</ele>
        <time>2022-12-16T14:46:09.948Z</time>
      </trkpt>
      <trkpt lat="47.19953" lon="-1.5655">
        <ele>47.926663</ele>
        <time>2022-12-16T14:46:12.939Z</time>
      </trkpt>
      <trkpt lat="47.19953" lon="-1.56533">
        <ele>47.939175</ele>
        <time>2022-12-16T14:46:15.954Z</time>
      </trkpt>
      <trkpt lat="47.19954" lon="-1.56516">
        <ele>47.952233</ele>
        <time>2022-12-16T14:46:18.937Z</time>
      </trkpt>
      <trkpt lat="47.19955" lon="-1.56499">
        <ele>47.965256</ele>
        <time>2022-12-16T14:46:21.958Z</time>
      </trkpt>
      <trkpt lat="47.19955" lon="-1.56484">
        <ele>47.976856</ele>
        <time>2022-12-16T14:46:24.939Z</time>
      </trkpt>
      <trkpt lat="47.19956" lon="-1.56469">
        <ele>47.988145</ele>
        <time>2022-12-16T14:46:27.953Z</time>
      </trkpt>
      <trkpt lat="47.19959" lon="-1.56453">
        <ele>48.000423</ele>
        <time>2022-12-16T14:46:30.945Z</time>
      </trkpt>
      <trkpt lat="47.19963" lon="-1.56438">
        <ele>48.012813</ele>
        <time>2022-12-16T14:46:33.955Z</time>
      </trkpt>
      <trkpt lat="47.19966" lon="-1.56423">
        <ele>48.024623</ele>
        <time>2022-12-16T14:46:36.956Z</time>
      </trkpt>
      <trkpt lat="47.1997" lon="-1.56408">
        <ele>48.036756</ele>
        <time>2022-12-16T14:46:39.942Z</time>
      </trkpt>
      <trkpt lat="47.19971" lon="-1.56392">
        <ele>48.048902</ele>
        <time>2022-12-16T14:46:42.939Z</time>
      </trkpt>
      <trkpt lat="47.19972" lon="-1.56377">
        <ele>48.060773</ele>
        <time>2022-12-16T14:46:45.954Z</time>
      </trkpt>
      <trkpt lat="47.19973" lon="-1.56363">
        <ele>48.071553</ele>
        <time>2022-12-16T14:46:48.946Z</time>
      </trkpt>
      <trkpt lat="47.19974" lon="-1.56347">
        <ele>48.083381</ele>
        <time>2022-12-16T14:46:52.948Z</time>
      </trkpt>
      <trkpt lat="47.19975" lon="-1.56331">
        <ele>48.095373</ele>
        <time>2022-12-16T14:46:56.942Z</time>
      </trkpt>
      <trkpt lat="47.19976" lon="-1.56318">
        <ele>48.267899</ele>
        <time>2022-12-16T14:46:59.957Z</time>
      </trkpt>
      <trkpt lat="47.19977" lon="-1.56304">
        <ele>48.489458</ele>
        <time>2022-12-16T14:47:02.960Z</time>
      </trkpt>
      <trkpt lat="47.19978" lon="-1.5629">
        <ele>48.70422</ele>
        <time>2022-12-16T14:47:05.955Z</time>
      </trkpt>
      <trkpt lat="47.19978" lon="-1.56275">
        <ele>48.936689</ele>
        <time>2022-12-16T14:47:08.949Z</time>
      </trkpt>
      <trkpt lat="47.19978" lon="-1.56259">
        <ele>49.175704</ele>
        <time>2022-12-16T14:47:11.956Z</time>
      </trkpt>
      <trkpt lat="47.19977" lon="-1.56245">
        <ele>49.39702</ele>
        <time>2022-12-16T14:47:14.959Z</time>
      </trkpt>
      <trkpt lat="47.19976" lon="-1.56229">
        <ele>49.649666</ele>
        <time>2022-12-16T14:47:18.954Z</time>
      </trkpt>
      <trkpt lat="47.19977" lon="-1.56214">
        <ele>49.880173</ele>
        <time>2022-12-16T14:47:22.938Z</time>
      </trkpt>
      <trkpt lat="47.19977" lon="-1.56196">
        <ele>50.14809</ele>
        <time>2022-12-16T14:47:26.958Z</time>
      </trkpt>
      <trkpt lat="47.19977" lon="-1.56183">
        <ele>50.359116</ele>
        <time>2022-12-16T14:47:29.940Z</time>
      </trkpt>
      <trkpt lat="47.1997" lon="-1.56171">
        <ele>50.596945</ele>
        <time>2022-12-16T14:47:34.939Z</time>
      </trkpt>
      <trkpt lat="47.1996" lon="-1.56174">
        <ele>50.825666</ele>
        <time>2022-12-16T14:47:40.946Z</time>
      </trkpt>
      <trkpt lat="47.1994" lon="-1.56169">
        <ele>51.275552</ele>
        <time>2022-12-16T14:48:37.968Z</time>
      </trkpt>
      <trkpt lat="47.19929" lon="-1.56172">
        <ele>51.537691</ele>
        <time>2022-12-16T14:48:41.948Z</time>
      </trkpt>
      <trkpt lat="47.1992" lon="-1.56174">
        <ele>51.745511</ele>
        <time>2022-12-16T14:48:44.955Z</time>
      </trkpt>
      <trkpt lat="47.19911" lon="-1.56176">
        <ele>51.951112</ele>
        <time>2022-12-16T14:48:47.954Z</time>
      </trkpt>
      <trkpt lat="47.199" lon="-1.56178">
        <ele>52.175164</ele>
        <time>2022-12-16T14:48:51.960Z</time>
      </trkpt>
      <trkpt lat="47.19889" lon="-1.5618">
        <ele>52.190706</ele>
        <time>2022-12-16T14:48:55.947Z</time>
      </trkpt>
      <trkpt lat="47.19878" lon="-1.56182">
        <ele>52.206597</ele>
        <time>2022-12-16T14:48:59.958Z</time>
      </trkpt>
      <trkpt lat="47.19867" lon="-1.56184">
        <ele>52.222375</ele>
        <time>2022-12-16T14:49:03.957Z</time>
      </trkpt>
      <trkpt lat="47.19856" lon="-1.56186">
        <ele>52.237115</ele>
        <time>2022-12-16T14:49:07.957Z</time>
      </trkpt>
      <trkpt lat="47.19846" lon="-1.56189">
        <ele>52.252347</ele>
        <time>2022-12-16T14:49:11.956Z</time>
      </trkpt>
      <trkpt lat="47.19834" lon="-1.56191">
        <ele>52.268788</ele>
        <time>2022-12-16T14:49:15.956Z</time>
      </trkpt>
      <trkpt lat="47.19825" lon="-1.56192">
        <ele>52.281921</ele>
        <time>2022-12-16T14:49:18.946Z</time>
      </trkpt>
      <trkpt lat="47.19814" lon="-1.56195">
        <ele>52.297728</ele>
        <time>2022-12-16T14:49:22.942Z</time>
      </trkpt>
      <trkpt lat="47.19803" lon="-1.56196">
        <ele>52.312687</ele>
        <time>2022-12-16T14:49:26.947Z</time>
      </trkpt>
      <trkpt lat="47.19793" lon="-1.56199">
        <ele>52.327827</ele>
        <time>2022-12-16T14:49:30.938Z</time>
      </trkpt>
      <trkpt lat="47.19781" lon="-1.56201">
        <ele>52.34468</ele>
        <time>2022-12-16T14:49:34.959Z</time>
      </trkpt>
      <trkpt lat="47.19771" lon="-1.56202">
        <ele>52.359206</ele>
        <time>2022-12-16T14:49:37.956Z</time>
      </trkpt>
      <trkpt lat="47.1976" lon="-1.56204">
        <ele>52.37504</ele>
        <time>2022-12-16T14:49:40.937Z</time>
      </trkpt>
      <trkpt lat="47.19749" lon="-1.56207">
        <ele>52.391127</ele>
        <time>2022-12-16T14:49:43.955Z</time>
      </trkpt>
      <trkpt lat="47.19738" lon="-1.56209">
        <ele>52.406302</ele>
        <time>2022-12-16T14:49:46.948Z</time>
      </trkpt>
      <trkpt lat="47.19727" lon="-1.56211">
        <ele>52.422825</ele>
        <time>2022-12-16T14:49:49.950Z</time>
      </trkpt>
      <trkpt lat="47.19714" lon="-1.56214">
        <ele>52.125229</ele>
        <time>2022-12-16T14:49:52.963Z</time>
      </trkpt>
      <trkpt lat="47.19702" lon="-1.56216">
        <ele>51.71063</ele>
        <time>2022-12-16T14:49:55.961Z</time>
      </trkpt>
      <trkpt lat="47.1969" lon="-1.56218">
        <ele>51.32266</ele>
        <time>2022-12-16T14:49:58.977Z</time>
      </trkpt>
      <trkpt lat="47.1968" lon="-1.5622">
        <ele>50.964321</ele>
        <time>2022-12-16T14:50:01.958Z</time>
      </trkpt>
      <trkpt lat="47.19669" lon="-1.56224">
        <ele>50.597124</ele>
        <time>2022-12-16T14:50:04.939Z</time>
      </trkpt>
      <trkpt lat="47.19659" lon="-1.56228">
        <ele>50.252213</ele>
        <time>2022-12-16T14:50:07.947Z</time>
      </trkpt>
      <trkpt lat="47.1965" lon="-1.56229">
        <ele>49.949447</ele>
        <time>2022-12-16T14:50:10.939Z</time>
      </trkpt>
      <trkpt lat="47.19641" lon="-1.56236">
        <ele>49.616448</ele>
        <time>2022-12-16T14:50:14.945Z</time>
      </trkpt>
      <trkpt lat="47.1964" lon="-1.56239">
        <ele>49.544782</ele>
        <time>2022-12-16T14:50:31.302Z</time>
      </trkpt>
      <trkpt lat="47.19636" lon="-1.56255">
        <ele>49.134901</ele>
        <time>2022-12-16T14:55:28.986Z</time>
      </trkpt>
      <trkpt lat="47.19635" lon="-1.56269">
        <ele>48.823487</ele>
        <time>2022-12-16T14:55:32.950Z</time>
      </trkpt>
      <trkpt lat="47.19633" lon="-1.56285">
        <ele>48.461558</ele>
        <time>2022-12-16T14:55:36.945Z</time>
      </trkpt>
      <trkpt lat="47.19633" lon="-1.56298">
        <ele>48.15533</ele>
        <time>2022-12-16T14:55:39.960Z</time>
      </trkpt>
      <trkpt lat="47.19632" lon="-1.56313">
        <ele>47.817341</ele>
        <time>2022-12-16T14:55:42.944Z</time>
      </trkpt>
      <trkpt lat="47.19631" lon="-1.56328">
        <ele>47.472788</ele>
        <time>2022-12-16T14:55:45.956Z</time>
      </trkpt>
      <trkpt lat="47.19631" lon="-1.56343">
        <ele>47.135264</ele>
        <time>2022-12-16T14:55:48.950Z</time>
      </trkpt>
      <trkpt lat="47.19629" lon="-1.5636">
        <ele>46.745813</ele>
        <time>2022-12-16T14:55:51.950Z</time>
      </trkpt>
      <trkpt lat="47.1963" lon="-1.56378">
        <ele>46.453425</ele>
        <time>2022-12-16T14:55:54.996Z</time>
      </trkpt>
      <trkpt lat="47.1963" lon="-1.56398">
        <ele>46.758776</ele>
        <time>2022-12-16T14:55:57.944Z</time>
      </trkpt>
      <trkpt lat="47.1963" lon="-1.56418">
        <ele>47.068754</ele>
        <time>2022-12-16T14:56:00.943Z</time>
      </trkpt>
      <trkpt lat="47.1963" lon="-1.56437">
        <ele>47.370931</ele>
        <time>2022-12-16T14:56:03.959Z</time>
      </trkpt>
      <trkpt lat="47.19631" lon="-1.56456">
        <ele>47.672574</ele>
        <time>2022-12-16T14:56:06.953Z</time>
      </trkpt>
      <trkpt lat="47.19632" lon="-1.56474">
        <ele>47.960774</ele>
        <time>2022-12-16T14:56:09.950Z</time>
      </trkpt>
      <trkpt lat="47.19633" lon="-1.56494">
        <ele>48.266473</ele>
        <time>2022-12-16T14:56:12.965Z</time>
      </trkpt>
      <trkpt lat="47.19633" lon="-1.56514">
        <ele>48.57332</ele>
        <time>2022-12-16T14:56:15.953Z</time>
      </trkpt>
      <trkpt lat="47.19633" lon="-1.56528">
        <ele>48.795621</ele>
        <time>2022-12-16T14:56:17.951Z</time>
      </trkpt>
      <trkpt lat="47.19632" lon="-1.56541">
        <ele>49.010144</ele>
        <time>2022-12-16T14:56:19.955Z</time>
      </trkpt>
      <trkpt lat="47.19632" lon="-1.56556">
        <ele>49.237247</ele>
        <time>2022-12-16T14:56:21.940Z</time>
      </trkpt>
      <trkpt lat="47.19631" lon="-1.56571">
        <ele>49.469502</ele>
        <time>2022-12-16T14:56:23.954Z</time>
      </trkpt>
      <trkpt lat="47.19631" lon="-1.56585">
        <ele>49.692233</ele>
        <time>2022-12-16T14:56:25.965Z</time>
      </trkpt>
      <trkpt lat="47.19631" lon="-1.566">
        <ele>49.923973</ele>
        <time>2022-12-16T14:56:27.949Z</time>
      </trkpt>
      <trkpt lat="47.1963" lon="-1.56613">
        <ele>50.139447</ele>
        <time>2022-12-16T14:56:29.947Z</time>
      </trkpt>
      <trkpt lat="47.19629" lon="-1.56627">
        <ele>50.349426</ele>
        <time>2022-12-16T14:56:31.952Z</time>
      </trkpt>
      <trkpt lat="47.19629" lon="-1.5664">
        <ele>50.542719</ele>
        <time>2022-12-16T14:56:33.941Z</time>
      </trkpt>
      <trkpt lat="47.19629" lon="-1.56654">
        <ele>50.494338</ele>
        <time>2022-12-16T14:56:35.944Z</time>
      </trkpt>
      <trkpt lat="47.19627" lon="-1.56668">
        <ele>50.446869</ele>
        <time>2022-12-16T14:56:37.947Z</time>
      </trkpt>
      <trkpt lat="47.19626" lon="-1.56683">
        <ele>50.395543</ele>
        <time>2022-12-16T14:56:39.945Z</time>
      </trkpt>
      <trkpt lat="47.19625" lon="-1.56697">
        <ele>50.345412</ele>
        <time>2022-12-16T14:56:41.942Z</time>
      </trkpt>
      <trkpt lat="47.19624" lon="-1.56711">
        <ele>50.298257</ele>
        <time>2022-12-16T14:56:43.966Z</time>
      </trkpt>
      <trkpt lat="47.19622" lon="-1.56724">
        <ele>50.250003</ele>
        <time>2022-12-16T14:56:45.953Z</time>
      </trkpt>
      <trkpt lat="47.19621" lon="-1.56738">
        <ele>50.200828</ele>
        <time>2022-12-16T14:56:47.946Z</time>
      </trkpt>
      <trkpt lat="47.19619" lon="-1.56753">
        <ele>50.151104</ele>
        <time>2022-12-16T14:56:49.953Z</time>
      </trkpt>
      <trkpt lat="47.19619" lon="-1.56767">
        <ele>50.102766</ele>
        <time>2022-12-16T14:56:51.942Z</time>
      </trkpt>
      <trkpt lat="47.19618" lon="-1.56781">
        <ele>50.052759</ele>
        <time>2022-12-16T14:56:53.942Z</time>
      </trkpt>
      <trkpt lat="47.19617" lon="-1.56796">
        <ele>50.000527</ele>
        <time>2022-12-16T14:56:55.970Z</time>
      </trkpt>
      <trkpt lat="47.19617" lon="-1.56811">
        <ele>49.950051</ele>
        <time>2022-12-16T14:56:57.940Z</time>
      </trkpt>
      <trkpt lat="47.19616" lon="-1.56824">
        <ele>49.904269</ele>
        <time>2022-12-16T14:56:59.947Z</time>
      </trkpt>
      <trkpt lat="47.19614" lon="-1.56844">
        <ele>49.835571</ele>
        <time>2022-12-16T14:57:02.944Z</time>
      </trkpt>
      <trkpt lat="47.19614" lon="-1.56858">
        <ele>49.786198</ele>
        <time>2022-12-16T14:57:04.960Z</time>
      </trkpt>
      <trkpt lat="47.19613" lon="-1.56873">
        <ele>49.735306</ele>
        <time>2022-12-16T14:57:06.953Z</time>
      </trkpt>
      <trkpt lat="47.19612" lon="-1.56887">
        <ele>49.687698</ele>
        <time>2022-12-16T14:57:08.949Z</time>
      </trkpt>
      <trkpt lat="47.19611" lon="-1.56901">
        <ele>49.636462</ele>
        <time>2022-12-16T14:57:10.945Z</time>
      </trkpt>
      <trkpt lat="47.1961" lon="-1.56916">
        <ele>49.547052</ele>
        <time>2022-12-16T14:57:12.942Z</time>
      </trkpt>
      <trkpt lat="47.19609" lon="-1.56929">
        <ele>49.461483</ele>
        <time>2022-12-16T14:57:14.947Z</time>
      </trkpt>
      <trkpt lat="47.19607" lon="-1.56947">
        <ele>49.348285</ele>
        <time>2022-12-16T14:57:17.947Z</time>
      </trkpt>
      <trkpt lat="47.19607" lon="-1.56964">
        <ele>49.238519</ele>
        <time>2022-12-16T14:57:20.942Z</time>
      </trkpt>
      <trkpt lat="47.19608" lon="-1.56983">
        <ele>49.11845</ele>
        <time>2022-12-16T14:57:23.948Z</time>
      </trkpt>
      <trkpt lat="47.19607" lon="-1.56996">
        <ele>49.029978</ele>
        <time>2022-12-16T14:57:25.945Z</time>
      </trkpt>
      <trkpt lat="47.19606" lon="-1.5701">
        <ele>48.940038</ele>
        <time>2022-12-16T14:57:27.938Z</time>
      </trkpt>
      <trkpt lat="47.19604" lon="-1.57025">
        <ele>48.848469</ele>
        <time>2022-12-16T14:57:29.944Z</time>
      </trkpt>
      <trkpt lat="47.19604" lon="-1.57039">
        <ele>48.756819</ele>
        <time>2022-12-16T14:57:31.939Z</time>
      </trkpt>
      <trkpt lat="47.19602" lon="-1.57053">
        <ele>48.666513</ele>
        <time>2022-12-16T14:57:33.956Z</time>
      </trkpt>
      <trkpt lat="47.19602" lon="-1.57066">
        <ele>48.580869</ele>
        <time>2022-12-16T14:57:35.939Z</time>
      </trkpt>
      <trkpt lat="47.196" lon="-1.57085">
        <ele>48.458688</ele>
        <time>2022-12-16T14:57:38.947Z</time>
      </trkpt>
      <trkpt lat="47.19599" lon="-1.57102">
        <ele>48.350506</ele>
        <time>2022-12-16T14:57:41.945Z</time>
      </trkpt>
      <trkpt lat="47.19599" lon="-1.57117">
        <ele>48.256014</ele>
        <time>2022-12-16T14:57:44.947Z</time>
      </trkpt>
      <trkpt lat="47.19598" lon="-1.57132">
        <ele>48.157091</ele>
        <time>2022-12-16T14:57:47.947Z</time>
      </trkpt>
      <trkpt lat="47.19596" lon="-1.57151">
        <ele>48.040938</ele>
        <time>2022-12-16T14:57:50.941Z</time>
      </trkpt>
      <trkpt lat="47.19594" lon="-1.5717">
        <ele>47.935783</ele>
        <time>2022-12-16T14:57:53.958Z</time>
      </trkpt>
      <trkpt lat="47.19594" lon="-1.57184">
        <ele>47.91197</ele>
        <time>2022-12-16T14:57:55.964Z</time>
      </trkpt>
      <trkpt lat="47.19594" lon="-1.57198">
        <ele>47.888331</ele>
        <time>2022-12-16T14:57:57.945Z</time>
      </trkpt>
      <trkpt lat="47.19594" lon="-1.57213">
        <ele>47.863828</ele>
        <time>2022-12-16T14:57:59.944Z</time>
      </trkpt>
      <trkpt lat="47.19592" lon="-1.57226">
        <ele>47.84114</ele>
        <time>2022-12-16T14:58:01.942Z</time>
      </trkpt>
      <trkpt lat="47.19591" lon="-1.57239">
        <ele>47.818319</ele>
        <time>2022-12-16T14:58:03.940Z</time>
      </trkpt>
      <trkpt lat="47.1959" lon="-1.57254">
        <ele>47.793959</ele>
        <time>2022-12-16T14:58:05.943Z</time>
      </trkpt>
      <trkpt lat="47.19588" lon="-1.57268">
        <ele>47.769656</ele>
        <time>2022-12-16T14:58:07.943Z</time>
      </trkpt>
      <trkpt lat="47.19588" lon="-1.57282">
        <ele>47.745296</ele>
        <time>2022-12-16T14:58:09.940Z</time>
      </trkpt>
      <trkpt lat="47.19587" lon="-1.57296">
        <ele>47.721931</ele>
        <time>2022-12-16T14:58:11.947Z</time>
      </trkpt>
      <trkpt lat="47.19586" lon="-1.5731">
        <ele>47.697464</ele>
        <time>2022-12-16T14:58:13.949Z</time>
      </trkpt>
      <trkpt lat="47.19584" lon="-1.57325">
        <ele>47.672827</ele>
        <time>2022-12-16T14:58:15.945Z</time>
      </trkpt>
      <trkpt lat="47.19582" lon="-1.57338">
        <ele>47.649383</ele>
        <time>2022-12-16T14:58:17.962Z</time>
      </trkpt>
      <trkpt lat="47.19578" lon="-1.57357">
        <ele>47.616524</ele>
        <time>2022-12-16T14:58:20.943Z</time>
      </trkpt>
      <trkpt lat="47.19574" lon="-1.57376">
        <ele>47.582381</ele>
        <time>2022-12-16T14:58:23.942Z</time>
      </trkpt>
      <trkpt lat="47.19572" lon="-1.57389">
        <ele>47.559372</ele>
        <time>2022-12-16T14:58:25.951Z</time>
      </trkpt>
      <trkpt lat="47.19568" lon="-1.57403">
        <ele>47.534728</ele>
        <time>2022-12-16T14:58:27.943Z</time>
      </trkpt>
      <trkpt lat="47.19564" lon="-1.57416">
        <ele>47.511042</ele>
        <time>2022-12-16T14:58:29.950Z</time>
      </trkpt>
      <trkpt lat="47.19561" lon="-1.57431">
        <ele>47.46291</ele>
        <time>2022-12-16T14:58:31.953Z</time>
      </trkpt>
      <trkpt lat="47.19559" lon="-1.57447">
        <ele>47.385105</ele>
        <time>2022-12-16T14:58:33.952Z</time>
      </trkpt>
      <trkpt lat="47.19556" lon="-1.57461">
        <ele>47.313326</ele>
        <time>2022-12-16T14:58:35.946Z</time>
      </trkpt>
      <trkpt lat="47.19553" lon="-1.57476">
        <ele>47.240198</ele>
        <time>2022-12-16T14:58:37.943Z</time>
      </trkpt>
      <trkpt lat="47.1955" lon="-1.57491">
        <ele>47.165849</ele>
        <time>2022-12-16T14:58:39.952Z</time>
      </trkpt>
      <trkpt lat="47.19546" lon="-1.57507">
        <ele>47.086623</ele>
        <time>2022-12-16T14:58:41.942Z</time>
      </trkpt>
      <trkpt lat="47.19545" lon="-1.57524">
        <ele>47.004128</ele>
        <time>2022-12-16T14:58:43.947Z</time>
      </trkpt>
      <trkpt lat="47.19542" lon="-1.57537">
        <ele>46.937292</ele>
        <time>2022-12-16T14:58:45.948Z</time>
      </trkpt>
      <trkpt lat="47.19539" lon="-1.57551">
        <ele>46.865745</ele>
        <time>2022-12-16T14:58:47.957Z</time>
      </trkpt>
      <trkpt lat="47.19536" lon="-1.57567">
        <ele>46.787011</ele>
        <time>2022-12-16T14:58:49.947Z</time>
      </trkpt>
      <trkpt lat="47.19534" lon="-1.57583">
        <ele>46.711662</ele>
        <time>2022-12-16T14:58:51.947Z</time>
      </trkpt>
      <trkpt lat="47.19531" lon="-1.57598">
        <ele>46.636762</ele>
        <time>2022-12-16T14:58:53.953Z</time>
      </trkpt>
      <trkpt lat="47.19529" lon="-1.57612">
        <ele>46.567897</ele>
        <time>2022-12-16T14:58:55.961Z</time>
      </trkpt>
      <trkpt lat="47.19526" lon="-1.57625">
        <ele>46.504247</ele>
        <time>2022-12-16T14:58:57.945Z</time>
      </trkpt>
      <trkpt lat="47.19521" lon="-1.57644">
        <ele>46.408183</ele>
        <time>2022-12-16T14:59:00.949Z</time>
      </trkpt>
      <trkpt lat="47.19519" lon="-1.57657">
        <ele>46.340436</ele>
        <time>2022-12-16T14:59:02.941Z</time>
      </trkpt>
      <trkpt lat="47.19515" lon="-1.57672">
        <ele>46.265942</ele>
        <time>2022-12-16T14:59:04.955Z</time>
      </trkpt>
      <trkpt lat="47.19512" lon="-1.57687">
        <ele>46.259519</ele>
        <time>2022-12-16T14:59:06.939Z</time>
      </trkpt>
      <trkpt lat="47.19509" lon="-1.577">
        <ele>46.300952</ele>
        <time>2022-12-16T14:59:08.956Z</time>
      </trkpt>
      <trkpt lat="47.19506" lon="-1.57713">
        <ele>46.340316</ele>
        <time>2022-12-16T14:59:10.958Z</time>
      </trkpt>
      <trkpt lat="47.19503" lon="-1.57726">
        <ele>46.378598</ele>
        <time>2022-12-16T14:59:12.944Z</time>
      </trkpt>
      <trkpt lat="47.195" lon="-1.57745">
        <ele>46.433346</ele>
        <time>2022-12-16T14:59:15.940Z</time>
      </trkpt>
      <trkpt lat="47.19496" lon="-1.57761">
        <ele>46.485298</ele>
        <time>2022-12-16T14:59:18.941Z</time>
      </trkpt>
      <trkpt lat="47.19492" lon="-1.57778">
        <ele>46.535575</ele>
        <time>2022-12-16T14:59:21.945Z</time>
      </trkpt>
      <trkpt lat="47.19489" lon="-1.57795">
        <ele>46.586005</ele>
        <time>2022-12-16T14:59:24.940Z</time>
      </trkpt>
      <trkpt lat="47.19486" lon="-1.57812">
        <ele>46.636813</ele>
        <time>2022-12-16T14:59:27.943Z</time>
      </trkpt>
      <trkpt lat="47.19482" lon="-1.57827">
        <ele>46.683326</ele>
        <time>2022-12-16T14:59:30.940Z</time>
      </trkpt>
      <trkpt lat="47.19471" lon="-1.57833">
        <ele>46.730942</ele>
        <time>2022-12-16T14:59:34.947Z</time>
      </trkpt>
      <trkpt lat="47.19462" lon="-1.5783">
        <ele>46.772548</ele>
        <time>2022-12-16T14:59:37.938Z</time>
      </trkpt>
      <trkpt lat="47.19452" lon="-1.57826">
        <ele>46.814491</ele>
        <time>2022-12-16T14:59:40.940Z</time>
      </trkpt>
      <trkpt lat="47.19442" lon="-1.57823">
        <ele>46.859776</ele>
        <time>2022-12-16T14:59:43.940Z</time>
      </trkpt>
      <trkpt lat="47.1943" lon="-1.57821">
        <ele>46.907446</ele>
        <time>2022-12-16T14:59:46.941Z</time>
      </trkpt>
      <trkpt lat="47.1942" lon="-1.5782">
        <ele>46.951994</ele>
        <time>2022-12-16T14:59:49.952Z</time>
      </trkpt>
      <trkpt lat="47.19409" lon="-1.57817">
        <ele>46.994996</ele>
        <time>2022-12-16T14:59:52.942Z</time>
      </trkpt>
      <trkpt lat="47.194" lon="-1.57813">
        <ele>46.985368</ele>
        <time>2022-12-16T14:59:55.980Z</time>
      </trkpt>
      <trkpt lat="47.19391" lon="-1.57819">
        <ele>46.975875</ele>
        <time>2022-12-16T14:59:58.953Z</time>
      </trkpt>
      <trkpt lat="47.19387" lon="-1.57833">
        <ele>46.965036</ele>
        <time>2022-12-16T15:00:01.943Z</time>
      </trkpt>
      <trkpt lat="47.19383" lon="-1.5785">
        <ele>46.953444</ele>
        <time>2022-12-16T15:00:04.944Z</time>
      </trkpt>
      <trkpt lat="47.19379" lon="-1.57867">
        <ele>46.940914</ele>
        <time>2022-12-16T15:00:07.941Z</time>
      </trkpt>
      <trkpt lat="47.19375" lon="-1.57886">
        <ele>46.927282</ele>
        <time>2022-12-16T15:00:10.947Z</time>
      </trkpt>
      <trkpt lat="47.19372" lon="-1.57905">
        <ele>46.91399</ele>
        <time>2022-12-16T15:00:13.942Z</time>
      </trkpt>
      <trkpt lat="47.19369" lon="-1.57918">
        <ele>46.904828</ele>
        <time>2022-12-16T15:00:15.952Z</time>
      </trkpt>
      <trkpt lat="47.19367" lon="-1.57931">
        <ele>46.895712</ele>
        <time>2022-12-16T15:00:17.942Z</time>
      </trkpt>
      <trkpt lat="47.19364" lon="-1.57949">
        <ele>46.882814</ele>
        <time>2022-12-16T15:00:20.943Z</time>
      </trkpt>
      <trkpt lat="47.1936" lon="-1.57966">
        <ele>46.870153</ele>
        <time>2022-12-16T15:00:23.938Z</time>
      </trkpt>
      <trkpt lat="47.19358" lon="-1.5798">
        <ele>46.860858</ele>
        <time>2022-12-16T15:00:25.942Z</time>
      </trkpt>
      <trkpt lat="47.19356" lon="-1.57994">
        <ele>46.850997</ele>
        <time>2022-12-16T15:00:27.944Z</time>
      </trkpt>
      <trkpt lat="47.19355" lon="-1.58008">
        <ele>46.841333</ele>
        <time>2022-12-16T15:00:29.944Z</time>
      </trkpt>
      <trkpt lat="47.19353" lon="-1.58021">
        <ele>46.831928</ele>
        <time>2022-12-16T15:00:31.961Z</time>
      </trkpt>
      <trkpt lat="47.19351" lon="-1.58035">
        <ele>46.822404</ele>
        <time>2022-12-16T15:00:33.947Z</time>
      </trkpt>
      <trkpt lat="47.19349" lon="-1.58048">
        <ele>46.817924</ele>
        <time>2022-12-16T15:00:35.948Z</time>
      </trkpt>
      <trkpt lat="47.19345" lon="-1.58065">
        <ele>46.852366</ele>
        <time>2022-12-16T15:00:38.951Z</time>
      </trkpt>
      <trkpt lat="47.19342" lon="-1.58083">
        <ele>46.886303</ele>
        <time>2022-12-16T15:00:41.942Z</time>
      </trkpt>
      <trkpt lat="47.19339" lon="-1.58099">
        <ele>46.917931</ele>
        <time>2022-12-16T15:00:44.942Z</time>
      </trkpt>
      <trkpt lat="47.19334" lon="-1.58115">
        <ele>46.951159</ele>
        <time>2022-12-16T15:00:47.945Z</time>
      </trkpt>
      <trkpt lat="47.19329" lon="-1.58132">
        <ele>46.98677</ele>
        <time>2022-12-16T15:00:50.943Z</time>
      </trkpt>
      <trkpt lat="47.19325" lon="-1.58145">
        <ele>47.012662</ele>
        <time>2022-12-16T15:00:52.944Z</time>
      </trkpt>
      <trkpt lat="47.19322" lon="-1.58159">
        <ele>47.040292</ele>
        <time>2022-12-16T15:00:54.963Z</time>
      </trkpt>
      <trkpt lat="47.19318" lon="-1.58173">
        <ele>47.067406</ele>
        <time>2022-12-16T15:00:56.946Z</time>
      </trkpt>
      <trkpt lat="47.19315" lon="-1.58187">
        <ele>47.095496</ele>
        <time>2022-12-16T15:00:58.945Z</time>
      </trkpt>
      <trkpt lat="47.19312" lon="-1.58201">
        <ele>47.124192</ele>
        <time>2022-12-16T15:01:00.944Z</time>
      </trkpt>
      <trkpt lat="47.19308" lon="-1.58216">
        <ele>47.153422</ele>
        <time>2022-12-16T15:01:02.947Z</time>
      </trkpt>
      <trkpt lat="47.19304" lon="-1.58231">
        <ele>47.183561</ele>
        <time>2022-12-16T15:01:04.950Z</time>
      </trkpt>
      <trkpt lat="47.193" lon="-1.58245">
        <ele>47.211879</ele>
        <time>2022-12-16T15:01:06.946Z</time>
      </trkpt>
      <trkpt lat="47.19297" lon="-1.58258">
        <ele>47.238545</ele>
        <time>2022-12-16T15:01:08.954Z</time>
      </trkpt>
      <trkpt lat="47.19294" lon="-1.58271">
        <ele>47.263599</ele>
        <time>2022-12-16T15:01:10.962Z</time>
      </trkpt>
      <trkpt lat="47.19289" lon="-1.58288">
        <ele>47.299292</ele>
        <time>2022-12-16T15:01:13.963Z</time>
      </trkpt>
      <trkpt lat="47.19284" lon="-1.58305">
        <ele>47.316247</ele>
        <time>2022-12-16T15:01:16.952Z</time>
      </trkpt>
      <trkpt lat="47.1928" lon="-1.5832">
        <ele>47.323339</ele>
        <time>2022-12-16T15:01:19.942Z</time>
      </trkpt>
      <trkpt lat="47.19278" lon="-1.58333">
        <ele>47.329536</ele>
        <time>2022-12-16T15:01:22.944Z</time>
      </trkpt>
      <trkpt lat="47.19274" lon="-1.58348">
        <ele>47.336669</ele>
        <time>2022-12-16T15:01:26.952Z</time>
      </trkpt>
      <trkpt lat="47.19266" lon="-1.58357">
        <ele>47.343342</ele>
        <time>2022-12-16T15:01:29.965Z</time>
      </trkpt>
      <trkpt lat="47.19256" lon="-1.58365">
        <ele>47.350717</ele>
        <time>2022-12-16T15:01:32.945Z</time>
      </trkpt>
      <trkpt lat="47.19246" lon="-1.58374">
        <ele>47.358551</ele>
        <time>2022-12-16T15:01:35.955Z</time>
      </trkpt>
      <trkpt lat="47.19236" lon="-1.58384">
        <ele>47.366249</ele>
        <time>2022-12-16T15:01:38.951Z</time>
      </trkpt>
      <trkpt lat="47.19228" lon="-1.58392">
        <ele>47.372133</ele>
        <time>2022-12-16T15:01:41.966Z</time>
      </trkpt>
      <trkpt lat="47.1922" lon="-1.58401">
        <ele>47.378567</ele>
        <time>2022-12-16T15:01:45.952Z</time>
      </trkpt>
      <trkpt lat="47.19212" lon="-1.58407">
        <ele>47.384656</ele>
        <time>2022-12-16T15:01:48.955Z</time>
      </trkpt>
      <trkpt lat="47.19203" lon="-1.58416">
        <ele>47.391631</ele>
        <time>2022-12-16T15:01:51.954Z</time>
      </trkpt>
      <trkpt lat="47.19194" lon="-1.58424">
        <ele>47.398873</ele>
        <time>2022-12-16T15:01:54.962Z</time>
      </trkpt>
      <trkpt lat="47.19183" lon="-1.58434">
        <ele>47.406719</ele>
        <time>2022-12-16T15:01:57.942Z</time>
      </trkpt>
      <trkpt lat="47.19173" lon="-1.58443">
        <ele>47.414581</ele>
        <time>2022-12-16T15:02:00.940Z</time>
      </trkpt>
      <trkpt lat="47.19164" lon="-1.58452">
        <ele>47.421862</ele>
        <time>2022-12-16T15:02:03.955Z</time>
      </trkpt>
      <trkpt lat="47.19156" lon="-1.58463">
        <ele>47.431613</ele>
        <time>2022-12-16T15:02:06.948Z</time>
      </trkpt>
      <trkpt lat="47.19147" lon="-1.58472">
        <ele>47.460564</ele>
        <time>2022-12-16T15:02:09.940Z</time>
      </trkpt>
      <trkpt lat="47.19139" lon="-1.58478">
        <ele>47.487305</ele>
        <time>2022-12-16T15:02:12.947Z</time>
      </trkpt>
      <trkpt lat="47.1913" lon="-1.58486">
        <ele>47.515751</ele>
        <time>2022-12-16T15:02:15.952Z</time>
      </trkpt>
      <trkpt lat="47.1912" lon="-1.58495">
        <ele>47.548415</ele>
        <time>2022-12-16T15:02:18.944Z</time>
      </trkpt>
      <trkpt lat="47.1911" lon="-1.58504">
        <ele>47.582493</ele>
        <time>2022-12-16T15:02:21.947Z</time>
      </trkpt>
      <trkpt lat="47.19099" lon="-1.58514">
        <ele>47.616928</ele>
        <time>2022-12-16T15:02:24.940Z</time>
      </trkpt>
      <trkpt lat="47.19088" lon="-1.58525">
        <ele>47.654085</ele>
        <time>2022-12-16T15:02:27.948Z</time>
      </trkpt>
      <trkpt lat="47.19077" lon="-1.58534">
        <ele>47.690818</ele>
        <time>2022-12-16T15:02:30.940Z</time>
      </trkpt>
      <trkpt lat="47.19067" lon="-1.58545">
        <ele>47.724893</ele>
        <time>2022-12-16T15:02:33.945Z</time>
      </trkpt>
      <trkpt lat="47.19058" lon="-1.58556">
        <ele>47.757213</ele>
        <time>2022-12-16T15:02:36.947Z</time>
      </trkpt>
      <trkpt lat="47.19051" lon="-1.58565">
        <ele>47.7841</ele>
        <time>2022-12-16T15:02:39.943Z</time>
      </trkpt>
      <trkpt lat="47.19042" lon="-1.58574">
        <ele>47.814917</ele>
        <time>2022-12-16T15:02:43.949Z</time>
      </trkpt>
      <trkpt lat="47.19034" lon="-1.58582">
        <ele>47.840782</ele>
        <time>2022-12-16T15:02:46.957Z</time>
      </trkpt>
      <trkpt lat="47.19026" lon="-1.58592">
        <ele>47.871271</ele>
        <time>2022-12-16T15:02:49.946Z</time>
      </trkpt>
      <trkpt lat="47.19017" lon="-1.58602">
        <ele>47.902084</ele>
        <time>2022-12-16T15:02:52.946Z</time>
      </trkpt>
      <trkpt lat="47.19007" lon="-1.58612">
        <ele>47.9284</ele>
        <time>2022-12-16T15:02:55.961Z</time>
      </trkpt>
      <trkpt lat="47.18998" lon="-1.58621">
        <ele>47.914872</ele>
        <time>2022-12-16T15:02:58.964Z</time>
      </trkpt>
      <trkpt lat="47.1899" lon="-1.58628">
        <ele>47.902829</ele>
        <time>2022-12-16T15:03:01.951Z</time>
      </trkpt>
      <trkpt lat="47.18982" lon="-1.58636">
        <ele>47.890756</ele>
        <time>2022-12-16T15:03:04.957Z</time>
      </trkpt>
      <trkpt lat="47.18973" lon="-1.58644">
        <ele>47.877156</ele>
        <time>2022-12-16T15:03:07.952Z</time>
      </trkpt>
      <trkpt lat="47.18964" lon="-1.58653">
        <ele>47.863388</ele>
        <time>2022-12-16T15:03:10.956Z</time>
      </trkpt>
      <trkpt lat="47.18955" lon="-1.58662">
        <ele>47.850528</ele>
        <time>2022-12-16T15:03:13.953Z</time>
      </trkpt>
      <trkpt lat="47.18946" lon="-1.58671">
        <ele>47.837047</ele>
        <time>2022-12-16T15:03:16.960Z</time>
      </trkpt>
      <trkpt lat="47.18936" lon="-1.5868">
        <ele>47.822567</ele>
        <time>2022-12-16T15:03:19.944Z</time>
      </trkpt>
      <trkpt lat="47.18927" lon="-1.58689">
        <ele>47.808496</ele>
        <time>2022-12-16T15:03:22.952Z</time>
      </trkpt>
      <trkpt lat="47.18918" lon="-1.58698">
        <ele>47.795002</ele>
        <time>2022-12-16T15:03:25.955Z</time>
      </trkpt>
      <trkpt lat="47.18911" lon="-1.58705">
        <ele>47.783402</ele>
        <time>2022-12-16T15:03:28.958Z</time>
      </trkpt>
      <trkpt lat="47.18901" lon="-1.58712">
        <ele>47.769724</ele>
        <time>2022-12-16T15:03:32.956Z</time>
      </trkpt>
      <trkpt lat="47.1889" lon="-1.58718">
        <ele>47.755683</ele>
        <time>2022-12-16T15:03:36.939Z</time>
      </trkpt>
      <trkpt lat="47.18881" lon="-1.58724">
        <ele>47.743037</ele>
        <time>2022-12-16T15:03:40.942Z</time>
      </trkpt>
      <trkpt lat="47.18872" lon="-1.58728">
        <ele>47.731291</ele>
        <time>2022-12-16T15:03:44.975Z</time>
      </trkpt>
      <trkpt lat="47.18863" lon="-1.58734">
        <ele>47.719601</ele>
        <time>2022-12-16T15:03:48.944Z</time>
      </trkpt>
      <trkpt lat="47.18853" lon="-1.58738">
        <ele>47.705638</ele>
        <time>2022-12-16T15:03:53.939Z</time>
      </trkpt>
      <trkpt lat="47.18843" lon="-1.58743">
        <ele>47.605332</ele>
        <time>2022-12-16T15:03:57.947Z</time>
      </trkpt>
      <trkpt lat="47.18834" lon="-1.58751">
        <ele>47.4961</ele>
        <time>2022-12-16T15:04:01.941Z</time>
      </trkpt>
      <trkpt lat="47.18832" lon="-1.58769">
        <ele>47.372695</ele>
        <time>2022-12-16T15:04:05.946Z</time>
      </trkpt>
      <trkpt lat="47.18827" lon="-1.58784">
        <ele>47.256675</ele>
        <time>2022-12-16T15:04:09.976Z</time>
      </trkpt>
      <trkpt lat="47.1882" lon="-1.58796">
        <ele>47.145165</ele>
        <time>2022-12-16T15:04:13.939Z</time>
      </trkpt>
      <trkpt lat="47.18812" lon="-1.58804">
        <ele>47.048603</ele>
        <time>2022-12-16T15:04:17.948Z</time>
      </trkpt>
      <trkpt lat="47.18815" lon="-1.58809">
        <ele>47.004071</ele>
        <time>2022-12-16T15:05:03.233Z</time>
      </trkpt>
      <trkpt lat="47.18823" lon="-1.58824">
        <ele>46.875586</ele>
        <time>2022-12-16T16:19:26.341Z</time>
      </trkpt>
      <trkpt lat="47.18818" lon="-1.58838">
        <ele>46.767378</ele>
        <time>2022-12-16T16:20:21.040Z</time>
      </trkpt>
      <trkpt lat="47.18815" lon="-1.58852">
        <ele>46.666934</ele>
        <time>2022-12-16T16:20:25.939Z</time>
      </trkpt>
      <trkpt lat="47.18818" lon="-1.58867">
        <ele>46.560415</ele>
        <time>2022-12-16T16:20:32.944Z</time>
      </trkpt>
      <trkpt lat="47.18815" lon="-1.58881">
        <ele>46.458936</ele>
        <time>2022-12-16T16:20:36.945Z</time>
      </trkpt>
      <trkpt lat="47.1881" lon="-1.58893">
        <ele>46.361443</ele>
        <time>2022-12-16T16:20:39.939Z</time>
      </trkpt>
      <trkpt lat="47.18805" lon="-1.58905">
        <ele>46.260948</ele>
        <time>2022-12-16T16:20:42.949Z</time>
      </trkpt>
      <trkpt lat="47.188" lon="-1.58919">
        <ele>46.154692</ele>
        <time>2022-12-16T16:20:45.947Z</time>
      </trkpt>
      <trkpt lat="47.18795" lon="-1.58931">
        <ele>46.057955</ele>
        <time>2022-12-16T16:20:48.948Z</time>
      </trkpt>
      <trkpt lat="47.1879" lon="-1.58947">
        <ele>45.936481</ele>
        <time>2022-12-16T16:20:52.949Z</time>
      </trkpt>
      <trkpt lat="47.18786" lon="-1.58961">
        <ele>45.843323</ele>
        <time>2022-12-16T16:20:55.945Z</time>
      </trkpt>
      <trkpt lat="47.18783" lon="-1.58978">
        <ele>45.754793</ele>
        <time>2022-12-16T16:20:58.940Z</time>
      </trkpt>
      <trkpt lat="47.1878" lon="-1.58993">
        <ele>45.675185</ele>
        <time>2022-12-16T16:21:01.967Z</time>
      </trkpt>
      <trkpt lat="47.18779" lon="-1.59008">
        <ele>45.600132</ele>
        <time>2022-12-16T16:21:04.970Z</time>
      </trkpt>
      <trkpt lat="47.18779" lon="-1.59023">
        <ele>45.527379</ele>
        <time>2022-12-16T16:21:07.940Z</time>
      </trkpt>
      <trkpt lat="47.18778" lon="-1.5904">
        <ele>45.442533</ele>
        <time>2022-12-16T16:21:10.949Z</time>
      </trkpt>
      <trkpt lat="47.18776" lon="-1.59057">
        <ele>45.358769</ele>
        <time>2022-12-16T16:21:13.980Z</time>
      </trkpt>
      <trkpt lat="47.18775" lon="-1.59072">
        <ele>45.283223</ele>
        <time>2022-12-16T16:21:16.952Z</time>
      </trkpt>
      <trkpt lat="47.18773" lon="-1.59086">
        <ele>45.214852</ele>
        <time>2022-12-16T16:21:19.957Z</time>
      </trkpt>
      <trkpt lat="47.18772" lon="-1.59099">
        <ele>45.146888</ele>
        <time>2022-12-16T16:21:22.938Z</time>
      </trkpt>
      <trkpt lat="47.1877" lon="-1.59114">
        <ele>45.070432</ele>
        <time>2022-12-16T16:21:25.942Z</time>
      </trkpt>
      <trkpt lat="47.18769" lon="-1.59131">
        <ele>44.989531</ele>
        <time>2022-12-16T16:21:28.954Z</time>
      </trkpt>
      <trkpt lat="47.18768" lon="-1.59148">
        <ele>44.904236</ele>
        <time>2022-12-16T16:21:31.950Z</time>
      </trkpt>
      <trkpt lat="47.18766" lon="-1.59166">
        <ele>44.815101</ele>
        <time>2022-12-16T16:21:34.945Z</time>
      </trkpt>
      <trkpt lat="47.18764" lon="-1.59183">
        <ele>44.726669</ele>
        <time>2022-12-16T16:21:37.944Z</time>
      </trkpt>
      <trkpt lat="47.18763" lon="-1.59201">
        <ele>44.640883</ele>
        <time>2022-12-16T16:21:40.951Z</time>
      </trkpt>
      <trkpt lat="47.1876" lon="-1.59216">
        <ele>44.563365</ele>
        <time>2022-12-16T16:21:43.952Z</time>
      </trkpt>
      <trkpt lat="47.18758" lon="-1.5923">
        <ele>44.58257</ele>
        <time>2022-12-16T16:21:46.941Z</time>
      </trkpt>
      <trkpt lat="47.18757" lon="-1.59244">
        <ele>44.604975</ele>
        <time>2022-12-16T16:21:49.955Z</time>
      </trkpt>
      <trkpt lat="47.18756" lon="-1.59259">
        <ele>44.629063</ele>
        <time>2022-12-16T16:21:52.946Z</time>
      </trkpt>
      <trkpt lat="47.18754" lon="-1.59276">
        <ele>44.655494</ele>
        <time>2022-12-16T16:21:55.948Z</time>
      </trkpt>
      <trkpt lat="47.18752" lon="-1.59293">
        <ele>44.682971</ele>
        <time>2022-12-16T16:21:58.944Z</time>
      </trkpt>
      <trkpt lat="47.1875" lon="-1.59311">
        <ele>44.712307</ele>
        <time>2022-12-16T16:22:01.958Z</time>
      </trkpt>
      <trkpt lat="47.18747" lon="-1.5933">
        <ele>44.741656</ele>
        <time>2022-12-16T16:22:04.942Z</time>
      </trkpt>
      <trkpt lat="47.18745" lon="-1.59347">
        <ele>44.768978</ele>
        <time>2022-12-16T16:22:07.949Z</time>
      </trkpt>
      <trkpt lat="47.18744" lon="-1.59363">
        <ele>44.794373</ele>
        <time>2022-12-16T16:22:10.947Z</time>
      </trkpt>
      <trkpt lat="47.18742" lon="-1.5938">
        <ele>44.822185</ele>
        <time>2022-12-16T16:22:13.943Z</time>
      </trkpt>
      <trkpt lat="47.18741" lon="-1.59399">
        <ele>44.851538</ele>
        <time>2022-12-16T16:22:16.944Z</time>
      </trkpt>
      <trkpt lat="47.1874" lon="-1.59413">
        <ele>44.873073</ele>
        <time>2022-12-16T16:22:18.944Z</time>
      </trkpt>
      <trkpt lat="47.18739" lon="-1.59426">
        <ele>44.893931</ele>
        <time>2022-12-16T16:22:20.943Z</time>
      </trkpt>
      <trkpt lat="47.18737" lon="-1.59443">
        <ele>44.921793</ele>
        <time>2022-12-16T16:22:23.942Z</time>
      </trkpt>
      <trkpt lat="47.18736" lon="-1.59461">
        <ele>44.949292</ele>
        <time>2022-12-16T16:22:26.942Z</time>
      </trkpt>
      <trkpt lat="47.18734" lon="-1.59478">
        <ele>44.976599</ele>
        <time>2022-12-16T16:22:29.949Z</time>
      </trkpt>
      <trkpt lat="47.18733" lon="-1.59498">
        <ele>44.93792</ele>
        <time>2022-12-16T16:22:32.947Z</time>
      </trkpt>
      <trkpt lat="47.18732" lon="-1.59512">
        <ele>44.911782</ele>
        <time>2022-12-16T16:22:34.944Z</time>
      </trkpt>
      <trkpt lat="47.18731" lon="-1.59525">
        <ele>44.885454</ele>
        <time>2022-12-16T16:22:36.945Z</time>
      </trkpt>
      <trkpt lat="47.1873" lon="-1.59544">
        <ele>44.849609</ele>
        <time>2022-12-16T16:22:39.945Z</time>
      </trkpt>
      <trkpt lat="47.18729" lon="-1.59561">
        <ele>44.815824</ele>
        <time>2022-12-16T16:22:42.943Z</time>
      </trkpt>
      <trkpt lat="47.18727" lon="-1.5958">
        <ele>44.780424</ele>
        <time>2022-12-16T16:22:45.946Z</time>
      </trkpt>
      <trkpt lat="47.18724" lon="-1.59598">
        <ele>44.744114</ele>
        <time>2022-12-16T16:22:48.949Z</time>
      </trkpt>
      <trkpt lat="47.18722" lon="-1.59611">
        <ele>44.718218</ele>
        <time>2022-12-16T16:22:50.948Z</time>
      </trkpt>
      <trkpt lat="47.18721" lon="-1.59625">
        <ele>44.692237</ele>
        <time>2022-12-16T16:22:52.953Z</time>
      </trkpt>
      <trkpt lat="47.1872" lon="-1.59644">
        <ele>44.65558</ele>
        <time>2022-12-16T16:22:55.970Z</time>
      </trkpt>
      <trkpt lat="47.18718" lon="-1.59662">
        <ele>44.620783</ele>
        <time>2022-12-16T16:22:58.947Z</time>
      </trkpt>
      <trkpt lat="47.18717" lon="-1.5968">
        <ele>44.585383</ele>
        <time>2022-12-16T16:23:01.950Z</time>
      </trkpt>
      <trkpt lat="47.18716" lon="-1.59693">
        <ele>44.559818</ele>
        <time>2022-12-16T16:23:03.953Z</time>
      </trkpt>
      <trkpt lat="47.18715" lon="-1.59707">
        <ele>44.532883</ele>
        <time>2022-12-16T16:23:05.959Z</time>
      </trkpt>
      <trkpt lat="47.18713" lon="-1.59721">
        <ele>44.50652</ele>
        <time>2022-12-16T16:23:07.945Z</time>
      </trkpt>
      <trkpt lat="47.18712" lon="-1.59739">
        <ele>44.470323</ele>
        <time>2022-12-16T16:23:10.947Z</time>
      </trkpt>
      <trkpt lat="47.1871" lon="-1.59757">
        <ele>44.520617</ele>
        <time>2022-12-16T16:23:13.968Z</time>
      </trkpt>
      <trkpt lat="47.18708" lon="-1.59773">
        <ele>44.575191</ele>
        <time>2022-12-16T16:23:16.953Z</time>
      </trkpt>
      <trkpt lat="47.18706" lon="-1.59789">
        <ele>44.626648</ele>
        <time>2022-12-16T16:23:19.948Z</time>
      </trkpt>
      <trkpt lat="47.18706" lon="-1.59804">
        <ele>44.674642</ele>
        <time>2022-12-16T16:23:22.959Z</time>
      </trkpt>
      <trkpt lat="47.18705" lon="-1.59818">
        <ele>44.719181</ele>
        <time>2022-12-16T16:23:25.945Z</time>
      </trkpt>
      <trkpt lat="47.18706" lon="-1.59835">
        <ele>44.771713</ele>
        <time>2022-12-16T16:23:29.970Z</time>
      </trkpt>
      <trkpt lat="47.18708" lon="-1.5985">
        <ele>44.822353</ele>
        <time>2022-12-16T16:23:33.958Z</time>
      </trkpt>
      <trkpt lat="47.18704" lon="-1.59864">
        <ele>44.868784</ele>
        <time>2022-12-16T16:23:36.947Z</time>
      </trkpt>
      <trkpt lat="47.18701" lon="-1.59878">
        <ele>44.916654</ele>
        <time>2022-12-16T16:23:39.948Z</time>
      </trkpt>
      <trkpt lat="47.18699" lon="-1.59892">
        <ele>44.962907</ele>
        <time>2022-12-16T16:23:42.960Z</time>
      </trkpt>
      <trkpt lat="47.18691" lon="-1.59905">
        <ele>45.015174</ele>
        <time>2022-12-16T16:23:46.946Z</time>
      </trkpt>
      <trkpt lat="47.18681" lon="-1.59908">
        <ele>45.065393</ele>
        <time>2022-12-16T16:23:50.951Z</time>
      </trkpt>
      <trkpt lat="47.18672" lon="-1.59904">
        <ele>45.111233</ele>
        <time>2022-12-16T16:23:54.944Z</time>
      </trkpt>
      <trkpt lat="47.18661" lon="-1.59905">
        <ele>45.159108</ele>
        <time>2022-12-16T16:23:59.945Z</time>
      </trkpt>
      <trkpt lat="47.18654" lon="-1.59913">
        <ele>45.205066</ele>
        <time>2022-12-16T16:24:03.955Z</time>
      </trkpt>
      <trkpt lat="47.18649" lon="-1.59924">
        <ele>45.247546</ele>
        <time>2022-12-16T16:24:06.949Z</time>
      </trkpt>
      <trkpt lat="47.18643" lon="-1.59939">
        <ele>45.300344</ele>
        <time>2022-12-16T16:24:09.944Z</time>
      </trkpt>
      <trkpt lat="47.18638" lon="-1.59954">
        <ele>45.330917</ele>
        <time>2022-12-16T16:24:12.948Z</time>
      </trkpt>
      <trkpt lat="47.18633" lon="-1.59968">
        <ele>45.353409</ele>
        <time>2022-12-16T16:24:15.966Z</time>
      </trkpt>
      <trkpt lat="47.18629" lon="-1.5998">
        <ele>45.373944</ele>
        <time>2022-12-16T16:24:18.948Z</time>
      </trkpt>
      <trkpt lat="47.18624" lon="-1.59993">
        <ele>45.395134</ele>
        <time>2022-12-16T16:24:22.961Z</time>
      </trkpt>
      <trkpt lat="47.18627" lon="-1.60007">
        <ele>45.416513</ele>
        <time>2022-12-16T16:24:30.942Z</time>
      </trkpt>
      <trkpt lat="47.18621" lon="-1.60022">
        <ele>45.440573</ele>
        <time>2022-12-16T16:24:36.942Z</time>
      </trkpt>
      <trkpt lat="47.18617" lon="-1.60038">
        <ele>45.466355</ele>
        <time>2022-12-16T16:24:40.947Z</time>
      </trkpt>
      <trkpt lat="47.18613" lon="-1.60053">
        <ele>45.488892</ele>
        <time>2022-12-16T16:24:43.946Z</time>
      </trkpt>
      <trkpt lat="47.18607" lon="-1.60067">
        <ele>45.512599</ele>
        <time>2022-12-16T16:24:46.949Z</time>
      </trkpt>
      <trkpt lat="47.18603" lon="-1.60081">
        <ele>45.534783</ele>
        <time>2022-12-16T16:24:49.947Z</time>
      </trkpt>
      <trkpt lat="47.18598" lon="-1.60096">
        <ele>45.558058</ele>
        <time>2022-12-16T16:24:52.951Z</time>
      </trkpt>
      <trkpt lat="47.18593" lon="-1.60112">
        <ele>45.583176</ele>
        <time>2022-12-16T16:24:55.943Z</time>
      </trkpt>
      <trkpt lat="47.18588" lon="-1.60127">
        <ele>45.607982</ele>
        <time>2022-12-16T16:24:58.940Z</time>
      </trkpt>
      <trkpt lat="47.18583" lon="-1.60144">
        <ele>45.63414</ele>
        <time>2022-12-16T16:25:01.945Z</time>
      </trkpt>
      <trkpt lat="47.18578" lon="-1.6016">
        <ele>45.659821</ele>
        <time>2022-12-16T16:25:04.947Z</time>
      </trkpt>
      <trkpt lat="47.18573" lon="-1.60175">
        <ele>45.6835</ele>
        <time>2022-12-16T16:25:07.945Z</time>
      </trkpt>
      <trkpt lat="47.18567" lon="-1.6019">
        <ele>45.709206</ele>
        <time>2022-12-16T16:25:10.946Z</time>
      </trkpt>
      <trkpt lat="47.18562" lon="-1.60207">
        <ele>45.736286</ele>
        <time>2022-12-16T16:25:13.944Z</time>
      </trkpt>
      <trkpt lat="47.18556" lon="-1.60223">
        <ele>45.76363</ele>
        <time>2022-12-16T16:25:16.947Z</time>
      </trkpt>
      <trkpt lat="47.1855" lon="-1.6024">
        <ele>45.791436</ele>
        <time>2022-12-16T16:25:19.944Z</time>
      </trkpt>
      <trkpt lat="47.18543" lon="-1.60256">
        <ele>45.819704</ele>
        <time>2022-12-16T16:25:22.947Z</time>
      </trkpt>
      <trkpt lat="47.18538" lon="-1.60273">
        <ele>45.847772</ele>
        <time>2022-12-16T16:25:25.950Z</time>
      </trkpt>
      <trkpt lat="47.18531" lon="-1.6029">
        <ele>45.876548</ele>
        <time>2022-12-16T16:25:28.951Z</time>
      </trkpt>
      <trkpt lat="47.18526" lon="-1.60302">
        <ele>45.896389</ele>
        <time>2022-12-16T16:25:30.959Z</time>
      </trkpt>
      <trkpt lat="47.18522" lon="-1.60313">
        <ele>45.915885</ele>
        <time>2022-12-16T16:25:32.948Z</time>
      </trkpt>
      <trkpt lat="47.18517" lon="-1.60325">
        <ele>45.936583</ele>
        <time>2022-12-16T16:25:34.946Z</time>
      </trkpt>
      <trkpt lat="47.18513" lon="-1.60338">
        <ele>45.957848</ele>
        <time>2022-12-16T16:25:36.953Z</time>
      </trkpt>
      <trkpt lat="47.18509" lon="-1.60351">
        <ele>45.979288</ele>
        <time>2022-12-16T16:25:38.950Z</time>
      </trkpt>
      <trkpt lat="47.18504" lon="-1.60365">
        <ele>46.001872</ele>
        <time>2022-12-16T16:25:40.946Z</time>
      </trkpt>
      <trkpt lat="47.18499" lon="-1.60379">
        <ele>46.024642</ele>
        <time>2022-12-16T16:25:42.954Z</time>
      </trkpt>
      <trkpt lat="47.18494" lon="-1.60393">
        <ele>46.047521</ele>
        <time>2022-12-16T16:25:44.952Z</time>
      </trkpt>
      <trkpt lat="47.1849" lon="-1.60407">
        <ele>46.070668</ele>
        <time>2022-12-16T16:25:46.954Z</time>
      </trkpt>
      <trkpt lat="47.18486" lon="-1.60421">
        <ele>46.080472</ele>
        <time>2022-12-16T16:25:48.947Z</time>
      </trkpt>
      <trkpt lat="47.18482" lon="-1.60435">
        <ele>46.072292</ele>
        <time>2022-12-16T16:25:50.953Z</time>
      </trkpt>
      <trkpt lat="47.18478" lon="-1.60448">
        <ele>46.065047</ele>
        <time>2022-12-16T16:25:52.950Z</time>
      </trkpt>
      <trkpt lat="47.18475" lon="-1.60461">
        <ele>46.058082</ele>
        <time>2022-12-16T16:25:54.945Z</time>
      </trkpt>
      <trkpt lat="47.1847" lon="-1.60479">
        <ele>46.047539</ele>
        <time>2022-12-16T16:25:57.947Z</time>
      </trkpt>
      <trkpt lat="47.18467" lon="-1.60492">
        <ele>46.040578</ele>
        <time>2022-12-16T16:25:59.954Z</time>
      </trkpt>
      <trkpt lat="47.18464" lon="-1.60505">
        <ele>46.033294</ele>
        <time>2022-12-16T16:26:01.953Z</time>
      </trkpt>
      <trkpt lat="47.18461" lon="-1.60518">
        <ele>46.025935</ele>
        <time>2022-12-16T16:26:03.962Z</time>
      </trkpt>
      <trkpt lat="47.18458" lon="-1.60531">
        <ele>46.018624</ele>
        <time>2022-12-16T16:26:05.944Z</time>
      </trkpt>
      <trkpt lat="47.18455" lon="-1.60545">
        <ele>46.011017</ele>
        <time>2022-12-16T16:26:07.941Z</time>
      </trkpt>
      <trkpt lat="47.18451" lon="-1.60558">
        <ele>46.003657</ele>
        <time>2022-12-16T16:26:09.945Z</time>
      </trkpt>
      <trkpt lat="47.18448" lon="-1.60572">
        <ele>45.996099</ele>
        <time>2022-12-16T16:26:11.951Z</time>
      </trkpt>
      <trkpt lat="47.18446" lon="-1.60586">
        <ele>45.988447</ele>
        <time>2022-12-16T16:26:13.951Z</time>
      </trkpt>
      <trkpt lat="47.18443" lon="-1.606">
        <ele>45.980985</ele>
        <time>2022-12-16T16:26:15.955Z</time>
      </trkpt>
      <trkpt lat="47.18441" lon="-1.60614">
        <ele>45.973212</ele>
        <time>2022-12-16T16:26:17.947Z</time>
      </trkpt>
      <trkpt lat="47.18438" lon="-1.60629">
        <ele>45.965145</ele>
        <time>2022-12-16T16:26:19.947Z</time>
      </trkpt>
      <trkpt lat="47.18435" lon="-1.60643">
        <ele>45.957359</ele>
        <time>2022-12-16T16:26:21.949Z</time>
      </trkpt>
      <trkpt lat="47.18433" lon="-1.60658">
        <ele>45.94942</ele>
        <time>2022-12-16T16:26:23.949Z</time>
      </trkpt>
      <trkpt lat="47.18431" lon="-1.60672">
        <ele>45.940483</ele>
        <time>2022-12-16T16:26:25.952Z</time>
      </trkpt>
      <trkpt lat="47.18429" lon="-1.60687">
        <ele>45.930159</ele>
        <time>2022-12-16T16:26:27.942Z</time>
      </trkpt>
      <trkpt lat="47.18427" lon="-1.607">
        <ele>45.920276</ele>
        <time>2022-12-16T16:26:29.954Z</time>
      </trkpt>
      <trkpt lat="47.18424" lon="-1.6072">
        <ele>45.906278</ele>
        <time>2022-12-16T16:26:32.953Z</time>
      </trkpt>
      <trkpt lat="47.18423" lon="-1.60733">
        <ele>45.896807</ele>
        <time>2022-12-16T16:26:34.937Z</time>
      </trkpt>
      <trkpt lat="47.18422" lon="-1.60747">
        <ele>45.887142</ele>
        <time>2022-12-16T16:26:36.955Z</time>
      </trkpt>
      <trkpt lat="47.1842" lon="-1.60761">
        <ele>45.877272</ele>
        <time>2022-12-16T16:26:38.955Z</time>
      </trkpt>
      <trkpt lat="47.18419" lon="-1.60774">
        <ele>45.867703</ele>
        <time>2022-12-16T16:26:40.952Z</time>
      </trkpt>
      <trkpt lat="47.18418" lon="-1.60788">
        <ele>45.858122</ele>
        <time>2022-12-16T16:26:42.962Z</time>
      </trkpt>
      <trkpt lat="47.18416" lon="-1.60803">
        <ele>45.847397</ele>
        <time>2022-12-16T16:26:44.950Z</time>
      </trkpt>
      <trkpt lat="47.18416" lon="-1.60817">
        <ele>45.837588</ele>
        <time>2022-12-16T16:26:46.951Z</time>
      </trkpt>
      <trkpt lat="47.18414" lon="-1.60831">
        <ele>45.827597</ele>
        <time>2022-12-16T16:26:48.947Z</time>
      </trkpt>
      <trkpt lat="47.18413" lon="-1.60845">
        <ele>45.817387</ele>
        <time>2022-12-16T16:26:50.951Z</time>
      </trkpt>
      <trkpt lat="47.18413" lon="-1.60859">
        <ele>45.807459</ele>
        <time>2022-12-16T16:26:52.964Z</time>
      </trkpt>
      <trkpt lat="47.18412" lon="-1.60873">
        <ele>45.79758</ele>
        <time>2022-12-16T16:26:54.942Z</time>
      </trkpt>
      <trkpt lat="47.18411" lon="-1.60893">
        <ele>45.783843</ele>
        <time>2022-12-16T16:26:57.952Z</time>
      </trkpt>
      <trkpt lat="47.18411" lon="-1.60907">
        <ele>45.774056</ele>
        <time>2022-12-16T16:26:59.953Z</time>
      </trkpt>
      <trkpt lat="47.18411" lon="-1.60921">
        <ele>45.76399</ele>
        <time>2022-12-16T16:27:01.945Z</time>
      </trkpt>
      <trkpt lat="47.18411" lon="-1.60935">
        <ele>45.732374</ele>
        <time>2022-12-16T16:27:03.945Z</time>
      </trkpt>
      <trkpt lat="47.1841" lon="-1.60949">
        <ele>45.676937</ele>
        <time>2022-12-16T16:27:05.954Z</time>
      </trkpt>
      <trkpt lat="47.18411" lon="-1.60963">
        <ele>45.623488</ele>
        <time>2022-12-16T16:27:07.942Z</time>
      </trkpt>
      <trkpt lat="47.18411" lon="-1.60977">
        <ele>45.568422</ele>
        <time>2022-12-16T16:27:09.943Z</time>
      </trkpt>
      <trkpt lat="47.18411" lon="-1.60992">
        <ele>45.508285</ele>
        <time>2022-12-16T16:27:11.952Z</time>
      </trkpt>
      <trkpt lat="47.18412" lon="-1.61007">
        <ele>45.44966</ele>
        <time>2022-12-16T16:27:13.948Z</time>
      </trkpt>
      <trkpt lat="47.18412" lon="-1.61022">
        <ele>45.390642</ele>
        <time>2022-12-16T16:27:15.944Z</time>
      </trkpt>
      <trkpt lat="47.18413" lon="-1.61037">
        <ele>45.332409</ele>
        <time>2022-12-16T16:27:17.942Z</time>
      </trkpt>
      <trkpt lat="47.18413" lon="-1.61051">
        <ele>45.27538</ele>
        <time>2022-12-16T16:27:19.945Z</time>
      </trkpt>
      <trkpt lat="47.18413" lon="-1.61065">
        <ele>45.221121</ele>
        <time>2022-12-16T16:27:21.962Z</time>
      </trkpt>
      <trkpt lat="47.18415" lon="-1.61084">
        <ele>45.147123</ele>
        <time>2022-12-16T16:27:24.965Z</time>
      </trkpt>
      <trkpt lat="47.18416" lon="-1.61103">
        <ele>45.069882</ele>
        <time>2022-12-16T16:27:27.944Z</time>
      </trkpt>
      <trkpt lat="47.18417" lon="-1.61118">
        <ele>45.014325</ele>
        <time>2022-12-16T16:27:29.956Z</time>
      </trkpt>
      <trkpt lat="47.18418" lon="-1.61131">
        <ele>44.959331</ele>
        <time>2022-12-16T16:27:31.946Z</time>
      </trkpt>
      <trkpt lat="47.18418" lon="-1.61146">
        <ele>44.902553</ele>
        <time>2022-12-16T16:27:33.959Z</time>
      </trkpt>
      <trkpt lat="47.1842" lon="-1.61161">
        <ele>44.84359</ele>
        <time>2022-12-16T16:27:35.968Z</time>
      </trkpt>
      <trkpt lat="47.1842" lon="-1.61176">
        <ele>44.785325</ele>
        <time>2022-12-16T16:27:37.961Z</time>
      </trkpt>
      <trkpt lat="47.18421" lon="-1.6119">
        <ele>44.726589</ele>
        <time>2022-12-16T16:27:39.953Z</time>
      </trkpt>
      <trkpt lat="47.18422" lon="-1.61205">
        <ele>44.755597</ele>
        <time>2022-12-16T16:27:41.944Z</time>
      </trkpt>
      <trkpt lat="47.18423" lon="-1.61219">
        <ele>44.796175</ele>
        <time>2022-12-16T16:27:43.943Z</time>
      </trkpt>
      <trkpt lat="47.18424" lon="-1.61238">
        <ele>44.85347</ele>
        <time>2022-12-16T16:27:46.945Z</time>
      </trkpt>
      <trkpt lat="47.18425" lon="-1.61258">
        <ele>44.910633</ele>
        <time>2022-12-16T16:27:49.947Z</time>
      </trkpt>
      <trkpt lat="47.18426" lon="-1.61271">
        <ele>44.951568</ele>
        <time>2022-12-16T16:27:51.947Z</time>
      </trkpt>
      <trkpt lat="47.18427" lon="-1.61285">
        <ele>44.991665</ele>
        <time>2022-12-16T16:27:53.960Z</time>
      </trkpt>
      <trkpt lat="47.18428" lon="-1.61299">
        <ele>45.033769</ele>
        <time>2022-12-16T16:27:55.944Z</time>
      </trkpt>
      <trkpt lat="47.18429" lon="-1.61313">
        <ele>45.07436</ele>
        <time>2022-12-16T16:27:57.953Z</time>
      </trkpt>
      <trkpt lat="47.18431" lon="-1.61332">
        <ele>45.130541</ele>
        <time>2022-12-16T16:28:00.946Z</time>
      </trkpt>
      <trkpt lat="47.18432" lon="-1.6135">
        <ele>45.183281</ele>
        <time>2022-12-16T16:28:03.960Z</time>
      </trkpt>
      <trkpt lat="47.18432" lon="-1.61368">
        <ele>45.23763</ele>
        <time>2022-12-16T16:28:06.946Z</time>
      </trkpt>
      <trkpt lat="47.18433" lon="-1.61387">
        <ele>45.291685</ele>
        <time>2022-12-16T16:28:09.965Z</time>
      </trkpt>
      <trkpt lat="47.18434" lon="-1.61401">
        <ele>45.333756</ele>
        <time>2022-12-16T16:28:11.943Z</time>
      </trkpt>
      <trkpt lat="47.18434" lon="-1.61415">
        <ele>45.373163</ele>
        <time>2022-12-16T16:28:13.945Z</time>
      </trkpt>
      <trkpt lat="47.18437" lon="-1.61433">
        <ele>45.429173</ele>
        <time>2022-12-16T16:28:16.944Z</time>
      </trkpt>
      <trkpt lat="47.18438" lon="-1.61447">
        <ele>45.470773</ele>
        <time>2022-12-16T16:28:18.946Z</time>
      </trkpt>
      <trkpt lat="47.18439" lon="-1.61463">
        <ele>45.482424</ele>
        <time>2022-12-16T16:28:20.943Z</time>
      </trkpt>
      <trkpt lat="47.18439" lon="-1.61478">
        <ele>45.455835</ele>
        <time>2022-12-16T16:28:22.958Z</time>
      </trkpt>
      <trkpt lat="47.1844" lon="-1.61493">
        <ele>45.42883</ele>
        <time>2022-12-16T16:28:24.938Z</time>
      </trkpt>
      <trkpt lat="47.18441" lon="-1.61508">
        <ele>45.402576</ele>
        <time>2022-12-16T16:28:26.963Z</time>
      </trkpt>
      <trkpt lat="47.18442" lon="-1.61522">
        <ele>45.377945</ele>
        <time>2022-12-16T16:28:28.951Z</time>
      </trkpt>
      <trkpt lat="47.18442" lon="-1.61536">
        <ele>45.353706</ele>
        <time>2022-12-16T16:28:30.946Z</time>
      </trkpt>
      <trkpt lat="47.18444" lon="-1.61553">
        <ele>45.321668</ele>
        <time>2022-12-16T16:28:33.947Z</time>
      </trkpt>
      <trkpt lat="47.18445" lon="-1.6157">
        <ele>45.29222</ele>
        <time>2022-12-16T16:28:36.947Z</time>
      </trkpt>
      <trkpt lat="47.18446" lon="-1.61588">
        <ele>45.260588</ele>
        <time>2022-12-16T16:28:39.952Z</time>
      </trkpt>
      <trkpt lat="47.18447" lon="-1.61606">
        <ele>45.227593</ele>
        <time>2022-12-16T16:28:42.945Z</time>
      </trkpt>
      <trkpt lat="47.18448" lon="-1.61627">
        <ele>45.192002</ele>
        <time>2022-12-16T16:28:45.942Z</time>
      </trkpt>
      <trkpt lat="47.18449" lon="-1.6164">
        <ele>45.167838</ele>
        <time>2022-12-16T16:28:47.945Z</time>
      </trkpt>
      <trkpt lat="47.1845" lon="-1.61654">
        <ele>45.143587</ele>
        <time>2022-12-16T16:28:49.957Z</time>
      </trkpt>
      <trkpt lat="47.18451" lon="-1.61674">
        <ele>45.108384</ele>
        <time>2022-12-16T16:28:52.941Z</time>
      </trkpt>
      <trkpt lat="47.18452" lon="-1.61687">
        <ele>45.084841</ele>
        <time>2022-12-16T16:28:54.948Z</time>
      </trkpt>
      <trkpt lat="47.18453" lon="-1.61704">
        <ele>45.053649</ele>
        <time>2022-12-16T16:28:57.944Z</time>
      </trkpt>
      <trkpt lat="47.18454" lon="-1.61721">
        <ele>45.022123</ele>
        <time>2022-12-16T16:29:00.947Z</time>
      </trkpt>
      <trkpt lat="47.18454" lon="-1.61737">
        <ele>44.979782</ele>
        <time>2022-12-16T16:29:03.955Z</time>
      </trkpt>
      <trkpt lat="47.18455" lon="-1.61751">
        <ele>44.940939</ele>
        <time>2022-12-16T16:29:06.948Z</time>
      </trkpt>
      <trkpt lat="47.18455" lon="-1.61764">
        <ele>44.904773</ele>
        <time>2022-12-16T16:29:09.949Z</time>
      </trkpt>
      <trkpt lat="47.18456" lon="-1.61779">
        <ele>44.866068</ele>
        <time>2022-12-16T16:29:12.962Z</time>
      </trkpt>
      <trkpt lat="47.18457" lon="-1.61794">
        <ele>44.823114</ele>
        <time>2022-12-16T16:29:15.951Z</time>
      </trkpt>
      <trkpt lat="47.18458" lon="-1.61811">
        <ele>44.776669</ele>
        <time>2022-12-16T16:29:18.949Z</time>
      </trkpt>
      <trkpt lat="47.1846" lon="-1.61828">
        <ele>44.730428</ele>
        <time>2022-12-16T16:29:21.960Z</time>
      </trkpt>
      <trkpt lat="47.18461" lon="-1.61846">
        <ele>44.681531</ele>
        <time>2022-12-16T16:29:24.951Z</time>
      </trkpt>
      <trkpt lat="47.18463" lon="-1.61859">
        <ele>44.645157</ele>
        <time>2022-12-16T16:29:26.946Z</time>
      </trkpt>
      <trkpt lat="47.18463" lon="-1.61874">
        <ele>44.606797</ele>
        <time>2022-12-16T16:29:28.954Z</time>
      </trkpt>
      <trkpt lat="47.18465" lon="-1.61888">
        <ele>44.566656</ele>
        <time>2022-12-16T16:29:30.945Z</time>
      </trkpt>
      <trkpt lat="47.18465" lon="-1.61904">
        <ele>44.52286</ele>
        <time>2022-12-16T16:29:32.944Z</time>
      </trkpt>
      <trkpt lat="47.18467" lon="-1.61921">
        <ele>44.478096</ele>
        <time>2022-12-16T16:29:34.949Z</time>
      </trkpt>
      <trkpt lat="47.18468" lon="-1.61937">
        <ele>44.434766</ele>
        <time>2022-12-16T16:29:36.948Z</time>
      </trkpt>
      <trkpt lat="47.18469" lon="-1.61953">
        <ele>44.391124</ele>
        <time>2022-12-16T16:29:38.952Z</time>
      </trkpt>
      <trkpt lat="47.1847" lon="-1.61968">
        <ele>44.348064</ele>
        <time>2022-12-16T16:29:40.949Z</time>
      </trkpt>
      <trkpt lat="47.18471" lon="-1.61983">
        <ele>44.307701</ele>
        <time>2022-12-16T16:29:42.947Z</time>
      </trkpt>
      <trkpt lat="47.18473" lon="-1.62003">
        <ele>44.243373</ele>
        <time>2022-12-16T16:29:45.942Z</time>
      </trkpt>
      <trkpt lat="47.18474" lon="-1.62016">
        <ele>44.199945</ele>
        <time>2022-12-16T16:29:47.943Z</time>
      </trkpt>
      <trkpt lat="47.18474" lon="-1.62035">
        <ele>44.137515</ele>
        <time>2022-12-16T16:29:50.945Z</time>
      </trkpt>
      <trkpt lat="47.18475" lon="-1.62049">
        <ele>44.094132</ele>
        <time>2022-12-16T16:29:52.974Z</time>
      </trkpt>
      <trkpt lat="47.18476" lon="-1.62062">
        <ele>44.05075</ele>
        <time>2022-12-16T16:29:54.955Z</time>
      </trkpt>
      <trkpt lat="47.18477" lon="-1.62076">
        <ele>44.003071</ele>
        <time>2022-12-16T16:29:56.965Z</time>
      </trkpt>
      <trkpt lat="47.18477" lon="-1.62091">
        <ele>43.956871</ele>
        <time>2022-12-16T16:29:58.953Z</time>
      </trkpt>
      <trkpt lat="47.18478" lon="-1.62105">
        <ele>43.911546</ele>
        <time>2022-12-16T16:30:00.965Z</time>
      </trkpt>
      <trkpt lat="47.18478" lon="-1.62118">
        <ele>43.868332</ele>
        <time>2022-12-16T16:30:02.951Z</time>
      </trkpt>
      <trkpt lat="47.18479" lon="-1.62131">
        <ele>43.824581</ele>
        <time>2022-12-16T16:30:04.948Z</time>
      </trkpt>
      <trkpt lat="47.1848" lon="-1.6215">
        <ele>43.762801</ele>
        <time>2022-12-16T16:30:07.945Z</time>
      </trkpt>
      <trkpt lat="47.1848" lon="-1.62168">
        <ele>43.705614</ele>
        <time>2022-12-16T16:30:10.945Z</time>
      </trkpt>
      <trkpt lat="47.1848" lon="-1.62183">
        <ele>43.654917</ele>
        <time>2022-12-16T16:30:13.945Z</time>
      </trkpt>
      <trkpt lat="47.1848" lon="-1.62198">
        <ele>43.609042</ele>
        <time>2022-12-16T16:30:16.949Z</time>
      </trkpt>
      <trkpt lat="47.18481" lon="-1.62215">
        <ele>43.552758</ele>
        <time>2022-12-16T16:30:20.947Z</time>
      </trkpt>
      <trkpt lat="47.18481" lon="-1.6223">
        <ele>43.5027</ele>
        <time>2022-12-16T16:30:24.944Z</time>
      </trkpt>
      <trkpt lat="47.18481" lon="-1.62245">
        <ele>43.455825</ele>
        <time>2022-12-16T16:30:28.945Z</time>
      </trkpt>
      <trkpt lat="47.18474" lon="-1.62257">
        <ele>43.457908</ele>
        <time>2022-12-16T16:30:32.946Z</time>
      </trkpt>
      <trkpt lat="47.18464" lon="-1.62263">
        <ele>43.466474</ele>
        <time>2022-12-16T16:30:35.951Z</time>
      </trkpt>
      <trkpt lat="47.18454" lon="-1.6227">
        <ele>43.475747</ele>
        <time>2022-12-16T16:30:38.944Z</time>
      </trkpt>
      <trkpt lat="47.18443" lon="-1.62277">
        <ele>43.485459</ele>
        <time>2022-12-16T16:30:41.950Z</time>
      </trkpt>
      <trkpt lat="47.18434" lon="-1.62285">
        <ele>43.494764</ele>
        <time>2022-12-16T16:30:44.949Z</time>
      </trkpt>
      <trkpt lat="47.18425" lon="-1.62297">
        <ele>43.504527</ele>
        <time>2022-12-16T16:30:47.948Z</time>
      </trkpt>
      <trkpt lat="47.18417" lon="-1.62311">
        <ele>43.514467</ele>
        <time>2022-12-16T16:30:50.953Z</time>
      </trkpt>
      <trkpt lat="47.18411" lon="-1.62326">
        <ele>43.524605</ele>
        <time>2022-12-16T16:30:53.955Z</time>
      </trkpt>
      <trkpt lat="47.18407" lon="-1.62338">
        <ele>43.532139</ele>
        <time>2022-12-16T16:30:55.946Z</time>
      </trkpt>
      <trkpt lat="47.18399" lon="-1.62355">
        <ele>43.543231</ele>
        <time>2022-12-16T16:30:58.942Z</time>
      </trkpt>
      <trkpt lat="47.18391" lon="-1.62363">
        <ele>43.551243</ele>
        <time>2022-12-16T16:31:00.948Z</time>
      </trkpt>
      <trkpt lat="47.18382" lon="-1.62367">
        <ele>43.558971</ele>
        <time>2022-12-16T16:31:02.961Z</time>
      </trkpt>
      <trkpt lat="47.18373" lon="-1.62369">
        <ele>43.566785</ele>
        <time>2022-12-16T16:31:04.947Z</time>
      </trkpt>
      <trkpt lat="47.18364" lon="-1.62372">
        <ele>43.574771</ele>
        <time>2022-12-16T16:31:06.941Z</time>
      </trkpt>
      <trkpt lat="47.18354" lon="-1.62377">
        <ele>43.582792</ele>
        <time>2022-12-16T16:31:08.945Z</time>
      </trkpt>
      <trkpt lat="47.18342" lon="-1.62384">
        <ele>43.5935</ele>
        <time>2022-12-16T16:31:11.945Z</time>
      </trkpt>
      <trkpt lat="47.18333" lon="-1.62394">
        <ele>43.653887</ele>
        <time>2022-12-16T16:31:14.948Z</time>
      </trkpt>
      <trkpt lat="47.18324" lon="-1.62407">
        <ele>43.779263</ele>
        <time>2022-12-16T16:31:17.946Z</time>
      </trkpt>
      <trkpt lat="47.18315" lon="-1.6242">
        <ele>43.908438</ele>
        <time>2022-12-16T16:31:20.945Z</time>
      </trkpt>
      <trkpt lat="47.18306" lon="-1.62434">
        <ele>44.039998</ele>
        <time>2022-12-16T16:31:23.958Z</time>
      </trkpt>
      <trkpt lat="47.18296" lon="-1.62446">
        <ele>44.16787</ele>
        <time>2022-12-16T16:31:26.947Z</time>
      </trkpt>
      <trkpt lat="47.18286" lon="-1.62454">
        <ele>44.284979</ele>
        <time>2022-12-16T16:31:29.951Z</time>
      </trkpt>
      <trkpt lat="47.18276" lon="-1.62458">
        <ele>44.389779</ele>
        <time>2022-12-16T16:31:32.948Z</time>
      </trkpt>
      <trkpt lat="47.18267" lon="-1.62463">
        <ele>44.482559</ele>
        <time>2022-12-16T16:31:35.946Z</time>
      </trkpt>
      <trkpt lat="47.18258" lon="-1.62469">
        <ele>44.575848</ele>
        <time>2022-12-16T16:31:38.964Z</time>
      </trkpt>
      <trkpt lat="47.18249" lon="-1.62475">
        <ele>44.67977</ele>
        <time>2022-12-16T16:31:41.955Z</time>
      </trkpt>
      <trkpt lat="47.18239" lon="-1.62482">
        <ele>44.793876</ele>
        <time>2022-12-16T16:31:44.946Z</time>
      </trkpt>
      <trkpt lat="47.18228" lon="-1.62479">
        <ele>44.906112</ele>
        <time>2022-12-16T16:31:47.946Z</time>
      </trkpt>
      <trkpt lat="47.18218" lon="-1.62466">
        <ele>45.033081</ele>
        <time>2022-12-16T16:31:50.958Z</time>
      </trkpt>
      <trkpt lat="47.18212" lon="-1.62457">
        <ele>45.127871</ele>
        <time>2022-12-16T16:31:52.970Z</time>
      </trkpt>
      <trkpt lat="47.18206" lon="-1.62446">
        <ele>45.218813</ele>
        <time>2022-12-16T16:31:54.946Z</time>
      </trkpt>
      <trkpt lat="47.18202" lon="-1.62434">
        <ele>45.309403</ele>
        <time>2022-12-16T16:31:56.964Z</time>
      </trkpt>
      <trkpt lat="47.18197" lon="-1.62424">
        <ele>45.400797</ele>
        <time>2022-12-16T16:31:58.951Z</time>
      </trkpt>
      <trkpt lat="47.18191" lon="-1.62412">
        <ele>45.446683</ele>
        <time>2022-12-16T16:32:00.961Z</time>
      </trkpt>
      <trkpt lat="47.18184" lon="-1.62397">
        <ele>45.505306</ele>
        <time>2022-12-16T16:32:03.947Z</time>
      </trkpt>
      <trkpt lat="47.18177" lon="-1.62382">
        <ele>45.561021</ele>
        <time>2022-12-16T16:32:06.968Z</time>
      </trkpt>
      <trkpt lat="47.18171" lon="-1.62369">
        <ele>45.612687</ele>
        <time>2022-12-16T16:32:09.951Z</time>
      </trkpt>
      <trkpt lat="47.18163" lon="-1.62356">
        <ele>45.668749</ele>
        <time>2022-12-16T16:32:12.965Z</time>
      </trkpt>
      <trkpt lat="47.18155" lon="-1.62342">
        <ele>45.724855</ele>
        <time>2022-12-16T16:32:15.957Z</time>
      </trkpt>
      <trkpt lat="47.1815" lon="-1.62328">
        <ele>45.777018</ele>
        <time>2022-12-16T16:32:18.947Z</time>
      </trkpt>
      <trkpt lat="47.18148" lon="-1.62312">
        <ele>45.825904</ele>
        <time>2022-12-16T16:32:21.952Z</time>
      </trkpt>
      <trkpt lat="47.18149" lon="-1.62297">
        <ele>45.875213</ele>
        <time>2022-12-16T16:32:24.950Z</time>
      </trkpt>
      <trkpt lat="47.18151" lon="-1.62282">
        <ele>45.922324</ele>
        <time>2022-12-16T16:32:27.950Z</time>
      </trkpt>
      <trkpt lat="47.18152" lon="-1.62268">
        <ele>45.967164</ele>
        <time>2022-12-16T16:32:30.948Z</time>
      </trkpt>
      <trkpt lat="47.18148" lon="-1.62255">
        <ele>46.013246</ele>
        <time>2022-12-16T16:32:33.953Z</time>
      </trkpt>
      <trkpt lat="47.18139" lon="-1.62244">
        <ele>46.067511</ele>
        <time>2022-12-16T16:32:36.957Z</time>
      </trkpt>
      <trkpt lat="47.18129" lon="-1.62237">
        <ele>46.119002</ele>
        <time>2022-12-16T16:32:39.961Z</time>
      </trkpt>
      <trkpt lat="47.18121" lon="-1.62229">
        <ele>46.165325</ele>
        <time>2022-12-16T16:32:42.948Z</time>
      </trkpt>
      <trkpt lat="47.18117" lon="-1.62217">
        <ele>46.209537</ele>
        <time>2022-12-16T16:32:45.945Z</time>
      </trkpt>
      <trkpt lat="47.18114" lon="-1.62204">
        <ele>46.227867</ele>
        <time>2022-12-16T16:32:48.945Z</time>
      </trkpt>
      <trkpt lat="47.18111" lon="-1.62188">
        <ele>46.132079</ele>
        <time>2022-12-16T16:32:52.945Z</time>
      </trkpt>
      <trkpt lat="47.181" lon="-1.62188">
        <ele>46.041504</ele>
        <time>2022-12-16T16:32:56.945Z</time>
      </trkpt>
      <trkpt lat="47.18092" lon="-1.62198">
        <ele>45.948031</ele>
        <time>2022-12-16T16:33:00.952Z</time>
      </trkpt>
      <trkpt lat="47.18084" lon="-1.62207">
        <ele>45.862218</ele>
        <time>2022-12-16T16:33:04.944Z</time>
      </trkpt>
      <trkpt lat="47.18077" lon="-1.62219">
        <ele>45.765354</ele>
        <time>2022-12-16T16:33:08.949Z</time>
      </trkpt>
      <trkpt lat="47.18071" lon="-1.62233">
        <ele>45.673128</ele>
        <time>2022-12-16T16:33:13.947Z</time>
      </trkpt>
      <trkpt lat="47.18072" lon="-1.62248">
        <ele>45.582428</ele>
        <time>2022-12-16T16:33:18.951Z</time>
      </trkpt>
      <trkpt lat="47.18077" lon="-1.62261">
        <ele>45.4965</ele>
        <time>2022-12-16T16:33:21.947Z</time>
      </trkpt>
      <trkpt lat="47.18082" lon="-1.62276">
        <ele>45.398633</ele>
        <time>2022-12-16T16:33:24.949Z</time>
      </trkpt>
      <trkpt lat="47.18088" lon="-1.62291">
        <ele>45.295498</ele>
        <time>2022-12-16T16:33:27.954Z</time>
      </trkpt>
      <trkpt lat="47.18094" lon="-1.62305">
        <ele>45.196515</ele>
        <time>2022-12-16T16:33:30.950Z</time>
      </trkpt>
      <trkpt lat="47.18099" lon="-1.62319">
        <ele>45.104818</ele>
        <time>2022-12-16T16:33:33.948Z</time>
      </trkpt>
      <trkpt lat="47.18102" lon="-1.62334">
        <ele>45.015656</ele>
        <time>2022-12-16T16:33:36.957Z</time>
      </trkpt>
      <trkpt lat="47.18107" lon="-1.62348">
        <ele>44.920042</ele>
        <time>2022-12-16T16:33:39.948Z</time>
      </trkpt>
      <trkpt lat="47.18112" lon="-1.62364">
        <ele>44.821224</ele>
        <time>2022-12-16T16:33:42.951Z</time>
      </trkpt>
      <trkpt lat="47.18116" lon="-1.62381">
        <ele>44.715725</ele>
        <time>2022-12-16T16:33:45.960Z</time>
      </trkpt>
      <trkpt lat="47.1812" lon="-1.62397">
        <ele>44.758695</ele>
        <time>2022-12-16T16:33:48.958Z</time>
      </trkpt>
      <trkpt lat="47.18124" lon="-1.62413">
        <ele>44.841458</ele>
        <time>2022-12-16T16:33:51.950Z</time>
      </trkpt>
      <trkpt lat="47.18126" lon="-1.62428">
        <ele>44.91706</ele>
        <time>2022-12-16T16:33:54.956Z</time>
      </trkpt>
      <trkpt lat="47.18129" lon="-1.62444">
        <ele>44.995444</ele>
        <time>2022-12-16T16:33:57.946Z</time>
      </trkpt>
      <trkpt lat="47.1813" lon="-1.6246">
        <ele>45.074145</ele>
        <time>2022-12-16T16:34:00.954Z</time>
      </trkpt>
      <trkpt lat="47.1813" lon="-1.62478">
        <ele>45.163044</ele>
        <time>2022-12-16T16:34:03.950Z</time>
      </trkpt>
      <trkpt lat="47.18128" lon="-1.62498">
        <ele>45.260114</ele>
        <time>2022-12-16T16:34:06.951Z</time>
      </trkpt>
      <trkpt lat="47.18127" lon="-1.62511">
        <ele>45.325055</ele>
        <time>2022-12-16T16:34:08.944Z</time>
      </trkpt>
      <trkpt lat="47.18126" lon="-1.62525">
        <ele>45.392992</ele>
        <time>2022-12-16T16:34:10.953Z</time>
      </trkpt>
      <trkpt lat="47.18125" lon="-1.62538">
        <ele>45.459386</ele>
        <time>2022-12-16T16:34:12.943Z</time>
      </trkpt>
      <trkpt lat="47.18125" lon="-1.62552">
        <ele>45.525325</ele>
        <time>2022-12-16T16:34:14.949Z</time>
      </trkpt>
      <trkpt lat="47.18128" lon="-1.62565">
        <ele>45.591917</ele>
        <time>2022-12-16T16:34:16.949Z</time>
      </trkpt>
      <trkpt lat="47.18132" lon="-1.62577">
        <ele>45.660657</ele>
        <time>2022-12-16T16:34:18.954Z</time>
      </trkpt>
      <trkpt lat="47.18138" lon="-1.6259">
        <ele>45.736583</ele>
        <time>2022-12-16T16:34:20.944Z</time>
      </trkpt>
      <trkpt lat="47.18144" lon="-1.62603">
        <ele>45.811309</ele>
        <time>2022-12-16T16:34:22.945Z</time>
      </trkpt>
      <trkpt lat="47.18149" lon="-1.62617">
        <ele>45.888752</ele>
        <time>2022-12-16T16:34:24.952Z</time>
      </trkpt>
      <trkpt lat="47.18154" lon="-1.62631">
        <ele>45.968476</ele>
        <time>2022-12-16T16:34:26.944Z</time>
      </trkpt>
      <trkpt lat="47.18159" lon="-1.62647">
        <ele>45.980482</ele>
        <time>2022-12-16T16:34:28.943Z</time>
      </trkpt>
      <trkpt lat="47.18162" lon="-1.62662">
        <ele>45.975515</ele>
        <time>2022-12-16T16:34:30.943Z</time>
      </trkpt>
      <trkpt lat="47.18165" lon="-1.62677">
        <ele>45.9709</ele>
        <time>2022-12-16T16:34:32.965Z</time>
      </trkpt>
      <trkpt lat="47.18168" lon="-1.62691">
        <ele>45.966403</ele>
        <time>2022-12-16T16:34:34.954Z</time>
      </trkpt>
      <trkpt lat="47.18171" lon="-1.62705">
        <ele>45.961782</ele>
        <time>2022-12-16T16:34:36.962Z</time>
      </trkpt>
      <trkpt lat="47.18175" lon="-1.62724">
        <ele>45.95573</ele>
        <time>2022-12-16T16:34:39.942Z</time>
      </trkpt>
      <trkpt lat="47.18178" lon="-1.62738">
        <ele>45.951226</ele>
        <time>2022-12-16T16:34:41.948Z</time>
      </trkpt>
      <trkpt lat="47.18181" lon="-1.62753">
        <ele>45.946404</ele>
        <time>2022-12-16T16:34:43.951Z</time>
      </trkpt>
      <trkpt lat="47.18183" lon="-1.62768">
        <ele>45.941941</ele>
        <time>2022-12-16T16:34:45.951Z</time>
      </trkpt>
      <trkpt lat="47.18184" lon="-1.62782">
        <ele>45.937496</ele>
        <time>2022-12-16T16:34:47.941Z</time>
      </trkpt>
      <trkpt lat="47.18185" lon="-1.62797">
        <ele>45.932927</ele>
        <time>2022-12-16T16:34:49.953Z</time>
      </trkpt>
      <trkpt lat="47.18187" lon="-1.62811">
        <ele>45.92848</ele>
        <time>2022-12-16T16:34:51.945Z</time>
      </trkpt>
      <trkpt lat="47.18188" lon="-1.62826">
        <ele>45.923957</ele>
        <time>2022-12-16T16:34:53.947Z</time>
      </trkpt>
      <trkpt lat="47.1819" lon="-1.6284">
        <ele>45.919639</ele>
        <time>2022-12-16T16:34:55.966Z</time>
      </trkpt>
      <trkpt lat="47.18191" lon="-1.62854">
        <ele>45.915318</ele>
        <time>2022-12-16T16:34:57.941Z</time>
      </trkpt>
      <trkpt lat="47.18192" lon="-1.62867">
        <ele>45.91127</ele>
        <time>2022-12-16T16:34:59.945Z</time>
      </trkpt>
      <trkpt lat="47.18192" lon="-1.6288">
        <ele>45.907163</ele>
        <time>2022-12-16T16:35:01.943Z</time>
      </trkpt>
      <trkpt lat="47.18192" lon="-1.62899">
        <ele>45.887256</ele>
        <time>2022-12-16T16:35:04.950Z</time>
      </trkpt>
      <trkpt lat="47.1819" lon="-1.62918">
        <ele>45.847156</ele>
        <time>2022-12-16T16:35:07.943Z</time>
      </trkpt>
      <trkpt lat="47.18188" lon="-1.62931">
        <ele>45.818664</ele>
        <time>2022-12-16T16:35:09.946Z</time>
      </trkpt>
      <trkpt lat="47.18186" lon="-1.62944">
        <ele>45.789417</ele>
        <time>2022-12-16T16:35:11.943Z</time>
      </trkpt>
      <trkpt lat="47.18184" lon="-1.62958">
        <ele>45.759756</ele>
        <time>2022-12-16T16:35:13.950Z</time>
      </trkpt>
      <trkpt lat="47.18183" lon="-1.62973">
        <ele>45.728028</ele>
        <time>2022-12-16T16:35:15.955Z</time>
      </trkpt>
      <trkpt lat="47.18184" lon="-1.62988">
        <ele>45.694837</ele>
        <time>2022-12-16T16:35:17.947Z</time>
      </trkpt>
      <trkpt lat="47.18185" lon="-1.63003">
        <ele>45.6639</ele>
        <time>2022-12-16T16:35:19.944Z</time>
      </trkpt>
      <trkpt lat="47.18185" lon="-1.63017">
        <ele>45.632824</ele>
        <time>2022-12-16T16:35:21.943Z</time>
      </trkpt>
      <trkpt lat="47.18185" lon="-1.63031">
        <ele>45.604536</ele>
        <time>2022-12-16T16:35:23.955Z</time>
      </trkpt>
      <trkpt lat="47.18185" lon="-1.63044">
        <ele>45.575475</ele>
        <time>2022-12-16T16:35:25.950Z</time>
      </trkpt>
      <trkpt lat="47.18183" lon="-1.63064">
        <ele>45.532469</ele>
        <time>2022-12-16T16:35:28.953Z</time>
      </trkpt>
      <trkpt lat="47.18182" lon="-1.63078">
        <ele>45.502459</ele>
        <time>2022-12-16T16:35:30.947Z</time>
      </trkpt>
      <trkpt lat="47.18179" lon="-1.63091">
        <ele>45.473638</ele>
        <time>2022-12-16T16:35:32.954Z</time>
      </trkpt>
      <trkpt lat="47.18177" lon="-1.63104">
        <ele>45.444905</ele>
        <time>2022-12-16T16:35:34.955Z</time>
      </trkpt>
      <trkpt lat="47.18171" lon="-1.63121">
        <ele>45.405246</ele>
        <time>2022-12-16T16:35:37.946Z</time>
      </trkpt>
      <trkpt lat="47.18165" lon="-1.63135">
        <ele>45.370591</ele>
        <time>2022-12-16T16:35:40.952Z</time>
      </trkpt>
      <trkpt lat="47.1816" lon="-1.63149">
        <ele>45.357677</ele>
        <time>2022-12-16T16:35:43.952Z</time>
      </trkpt>
      <trkpt lat="47.18154" lon="-1.63165">
        <ele>45.472649</ele>
        <time>2022-12-16T16:35:46.955Z</time>
      </trkpt>
      <trkpt lat="47.18149" lon="-1.63181">
        <ele>45.586539</ele>
        <time>2022-12-16T16:35:49.957Z</time>
      </trkpt>
      <trkpt lat="47.18146" lon="-1.63198">
        <ele>45.702552</ele>
        <time>2022-12-16T16:35:52.947Z</time>
      </trkpt>
      <trkpt lat="47.18142" lon="-1.63214">
        <ele>45.816453</ele>
        <time>2022-12-16T16:35:55.965Z</time>
      </trkpt>
      <trkpt lat="47.18137" lon="-1.63229">
        <ele>45.919822</ele>
        <time>2022-12-16T16:35:58.946Z</time>
      </trkpt>
      <trkpt lat="47.18134" lon="-1.63242">
        <ele>46.012948</ele>
        <time>2022-12-16T16:36:01.958Z</time>
      </trkpt>
      <trkpt lat="47.18131" lon="-1.63256">
        <ele>46.109487</ele>
        <time>2022-12-16T16:36:04.967Z</time>
      </trkpt>
      <trkpt lat="47.18128" lon="-1.6327">
        <ele>46.205379</ele>
        <time>2022-12-16T16:36:07.947Z</time>
      </trkpt>
      <trkpt lat="47.18125" lon="-1.63283">
        <ele>46.293268</ele>
        <time>2022-12-16T16:36:10.954Z</time>
      </trkpt>
      <trkpt lat="47.18116" lon="-1.6329">
        <ele>46.386229</ele>
        <time>2022-12-16T16:36:15.964Z</time>
      </trkpt>
      <trkpt lat="47.18108" lon="-1.63279">
        <ele>46.492616</ele>
        <time>2022-12-16T16:36:21.954Z</time>
      </trkpt>
      <trkpt lat="47.18099" lon="-1.63271">
        <ele>46.591592</ele>
        <time>2022-12-16T16:36:25.949Z</time>
      </trkpt>
      <trkpt lat="47.18091" lon="-1.63262">
        <ele>46.687363</ele>
        <time>2022-12-16T16:36:29.946Z</time>
      </trkpt>
      <trkpt lat="47.18085" lon="-1.63252">
        <ele>46.776628</ele>
        <time>2022-12-16T16:36:33.950Z</time>
      </trkpt>
      <trkpt lat="47.18074" lon="-1.63261">
        <ele>46.906572</ele>
        <time>2022-12-16T16:37:21.997Z</time>
      </trkpt>
      <trkpt lat="47.18075" lon="-1.63274">
        <ele>46.993866</ele>
        <time>2022-12-16T16:37:28.962Z</time>
      </trkpt>
      <trkpt lat="47.18075" lon="-1.63259">
        <ele>47.033815</ele>
        <time>2022-12-16T16:37:51.956Z</time>
      </trkpt>
      <trkpt lat="47.1808" lon="-1.63247">
        <ele>46.903892</ele>
        <time>2022-12-16T16:37:56.963Z</time>
      </trkpt>
      <trkpt lat="47.18077" lon="-1.63232">
        <ele>46.762462</ele>
        <time>2022-12-16T16:38:01.954Z</time>
      </trkpt>
      <trkpt lat="47.18073" lon="-1.63217">
        <ele>46.610185</ele>
        <time>2022-12-16T16:38:05.951Z</time>
      </trkpt>
      <trkpt lat="47.18068" lon="-1.63203">
        <ele>46.461357</ele>
        <time>2022-12-16T16:38:09.948Z</time>
      </trkpt>
      <trkpt lat="47.18064" lon="-1.6319">
        <ele>46.326801</ele>
        <time>2022-12-16T16:38:13.947Z</time>
      </trkpt>
      <trkpt lat="47.18057" lon="-1.63177">
        <ele>46.174224</ele>
        <time>2022-12-16T16:38:18.946Z</time>
      </trkpt>
      <trkpt lat="47.18048" lon="-1.63177">
        <ele>46.04274</ele>
        <time>2022-12-16T16:38:23.947Z</time>
      </trkpt>
      <trkpt lat="47.1804" lon="-1.63188">
        <ele>45.888893</ele>
        <time>2022-12-16T16:38:28.940Z</time>
      </trkpt>
      <trkpt lat="47.18032" lon="-1.632">
        <ele>45.727487</ele>
        <time>2022-12-16T16:38:32.958Z</time>
      </trkpt>
      <trkpt lat="47.18025" lon="-1.63212">
        <ele>45.584285</ele>
        <time>2022-12-16T16:38:35.957Z</time>
      </trkpt>
      <trkpt lat="47.18018" lon="-1.63222">
        <ele>45.451548</ele>
        <time>2022-12-16T16:38:38.951Z</time>
      </trkpt>
      <trkpt lat="47.1801" lon="-1.63233">
        <ele>45.296106</ele>
        <time>2022-12-16T16:38:41.965Z</time>
      </trkpt>
      <trkpt lat="47.18" lon="-1.63244">
        <ele>45.123295</ele>
        <time>2022-12-16T16:38:44.960Z</time>
      </trkpt>
      <trkpt lat="47.17989" lon="-1.63254">
        <ele>44.953013</ele>
        <time>2022-12-16T16:38:47.948Z</time>
      </trkpt>
      <trkpt lat="47.17981" lon="-1.63263">
        <ele>44.806374</ele>
        <time>2022-12-16T16:38:50.951Z</time>
      </trkpt>
      <trkpt lat="47.17976" lon="-1.63277">
        <ele>44.654256</ele>
        <time>2022-12-16T16:38:54.949Z</time>
      </trkpt>
      <trkpt lat="47.17975" lon="-1.63291">
        <ele>44.596351</ele>
        <time>2022-12-16T16:38:58.950Z</time>
      </trkpt>
      <trkpt lat="47.1797" lon="-1.63306">
        <ele>44.639193</ele>
        <time>2022-12-16T16:39:01.955Z</time>
      </trkpt>
      <trkpt lat="47.17966" lon="-1.63323">
        <ele>44.687583</ele>
        <time>2022-12-16T16:39:04.957Z</time>
      </trkpt>
      <trkpt lat="47.17965" lon="-1.6334">
        <ele>44.732679</ele>
        <time>2022-12-16T16:39:07.947Z</time>
      </trkpt>
      <trkpt lat="47.17963" lon="-1.63359">
        <ele>44.780746</ele>
        <time>2022-12-16T16:39:10.947Z</time>
      </trkpt>
      <trkpt lat="47.1796" lon="-1.63378">
        <ele>44.833372</ele>
        <time>2022-12-16T16:39:13.953Z</time>
      </trkpt>
      <trkpt lat="47.17957" lon="-1.63391">
        <ele>44.869205</ele>
        <time>2022-12-16T16:39:15.957Z</time>
      </trkpt>
      <trkpt lat="47.17956" lon="-1.63409">
        <ele>44.915292</ele>
        <time>2022-12-16T16:39:18.956Z</time>
      </trkpt>
      <trkpt lat="47.17957" lon="-1.63422">
        <ele>44.952473</ele>
        <time>2022-12-16T16:39:21.947Z</time>
      </trkpt>
      <trkpt lat="47.17965" lon="-1.63435">
        <ele>44.996738</ele>
        <time>2022-12-16T16:39:24.953Z</time>
      </trkpt>
      <trkpt lat="47.17973" lon="-1.6345">
        <ele>45.04634</ele>
        <time>2022-12-16T16:39:27.956Z</time>
      </trkpt>
      <trkpt lat="47.17976" lon="-1.63466">
        <ele>45.089387</ele>
        <time>2022-12-16T16:39:30.953Z</time>
      </trkpt>
      <trkpt lat="47.17976" lon="-1.63483">
        <ele>45.135109</ele>
        <time>2022-12-16T16:39:33.963Z</time>
      </trkpt>
      <trkpt lat="47.17976" lon="-1.635">
        <ele>45.179523</ele>
        <time>2022-12-16T16:39:36.961Z</time>
      </trkpt>
      <trkpt lat="47.17976" lon="-1.63516">
        <ele>45.220783</ele>
        <time>2022-12-16T16:39:39.958Z</time>
      </trkpt>
      <trkpt lat="47.17981" lon="-1.63528">
        <ele>45.257736</ele>
        <time>2022-12-16T16:39:41.961Z</time>
      </trkpt>
      <trkpt lat="47.17987" lon="-1.63539">
        <ele>45.355613</ele>
        <time>2022-12-16T16:39:43.955Z</time>
      </trkpt>
      <trkpt lat="47.17992" lon="-1.63556">
        <ele>45.566564</ele>
        <time>2022-12-16T16:39:46.965Z</time>
      </trkpt>
      <trkpt lat="47.17995" lon="-1.6357">
        <ele>45.734328</ele>
        <time>2022-12-16T16:39:49.949Z</time>
      </trkpt>
      <trkpt lat="47.17987" lon="-1.6358">
        <ele>45.906898</ele>
        <time>2022-12-16T16:39:53.956Z</time>
      </trkpt>
      <trkpt lat="47.17979" lon="-1.63587">
        <ele>46.074754</ele>
        <time>2022-12-16T16:39:56.951Z</time>
      </trkpt>
      <trkpt lat="47.17969" lon="-1.63592">
        <ele>46.248505</ele>
        <time>2022-12-16T16:39:59.968Z</time>
      </trkpt>
      <trkpt lat="47.17957" lon="-1.63596">
        <ele>46.450339</ele>
        <time>2022-12-16T16:40:02.955Z</time>
      </trkpt>
      <trkpt lat="47.17946" lon="-1.63601">
        <ele>46.643583</ele>
        <time>2022-12-16T16:40:05.956Z</time>
      </trkpt>
      <trkpt lat="47.17936" lon="-1.63605">
        <ele>46.810681</ele>
        <time>2022-12-16T16:40:08.950Z</time>
      </trkpt>
      <trkpt lat="47.17927" lon="-1.63608">
        <ele>46.970203</ele>
        <time>2022-12-16T16:40:11.958Z</time>
      </trkpt>
      <trkpt lat="47.17916" lon="-1.63614">
        <ele>47.154614</ele>
        <time>2022-12-16T16:40:14.951Z</time>
      </trkpt>
      <trkpt lat="47.17906" lon="-1.63621">
        <ele>47.347418</ele>
        <time>2022-12-16T16:40:17.948Z</time>
      </trkpt>
      <trkpt lat="47.17898" lon="-1.63632">
        <ele>47.531872</ele>
        <time>2022-12-16T16:40:21.950Z</time>
      </trkpt>
      <trkpt lat="47.17891" lon="-1.63644">
        <ele>47.709339</ele>
        <time>2022-12-16T16:40:36.962Z</time>
      </trkpt>
      <trkpt lat="47.17883" lon="-1.63657">
        <ele>47.906394</ele>
        <time>2022-12-16T16:40:40.959Z</time>
      </trkpt>
      <trkpt lat="47.17876" lon="-1.63668">
        <ele>48.072171</ele>
        <time>2022-12-16T16:40:43.960Z</time>
      </trkpt>
      <trkpt lat="47.17868" lon="-1.63678">
        <ele>48.250923</ele>
        <time>2022-12-16T16:40:46.948Z</time>
      </trkpt>
      <trkpt lat="47.17857" lon="-1.63683">
        <ele>48.283414</ele>
        <time>2022-12-16T16:40:49.945Z</time>
      </trkpt>
      <trkpt lat="47.17847" lon="-1.63681">
        <ele>48.295102</ele>
        <time>2022-12-16T16:40:52.955Z</time>
      </trkpt>
      <trkpt lat="47.17837" lon="-1.63676">
        <ele>48.307991</ele>
        <time>2022-12-16T16:40:57.944Z</time>
      </trkpt>
      <trkpt lat="47.17828" lon="-1.63678">
        <ele>48.319003</ele>
        <time>2022-12-16T16:41:01.948Z</time>
      </trkpt>
      <trkpt lat="47.17819" lon="-1.63685">
        <ele>48.33169</ele>
        <time>2022-12-16T16:41:07.949Z</time>
      </trkpt>
      <trkpt lat="47.17813" lon="-1.63676">
        <ele>48.342753</ele>
        <time>2022-12-16T16:41:13.962Z</time>
      </trkpt>
      <trkpt lat="47.17807" lon="-1.63665">
        <ele>48.354637</ele>
        <time>2022-12-16T16:41:19.951Z</time>
      </trkpt>
      <trkpt lat="47.178" lon="-1.63654">
        <ele>48.36697</ele>
        <time>2022-12-16T16:41:25.954Z</time>
      </trkpt>
      <trkpt lat="47.17791" lon="-1.63661">
        <ele>48.379392</ele>
        <time>2022-12-16T16:41:33.957Z</time>
      </trkpt>
      <trkpt lat="47.17784" lon="-1.6367">
        <ele>48.39124</ele>
        <time>2022-12-16T16:41:38.948Z</time>
      </trkpt>
      <trkpt lat="47.17774" lon="-1.63669">
        <ele>48.403368</ele>
        <time>2022-12-16T16:41:44.943Z</time>
      </trkpt>
      <trkpt lat="47.17765" lon="-1.63662">
        <ele>48.415589</ele>
        <time>2022-12-16T16:41:48.951Z</time>
      </trkpt>
      <trkpt lat="47.17766" lon="-1.63646">
        <ele>48.428714</ele>
        <time>2022-12-16T16:41:51.952Z</time>
      </trkpt>
      <trkpt lat="47.17776" lon="-1.63633">
        <ele>48.444871</ele>
        <time>2022-12-16T16:41:54.949Z</time>
      </trkpt>
      <trkpt lat="47.17782" lon="-1.63623">
        <ele>48.456491</ele>
        <time>2022-12-16T16:41:56.948Z</time>
      </trkpt>
      <trkpt lat="47.17788" lon="-1.63611">
        <ele>48.468441</ele>
        <time>2022-12-16T16:41:58.944Z</time>
      </trkpt>
      <trkpt lat="47.17793" lon="-1.63599">
        <ele>48.479896</ele>
        <time>2022-12-16T16:42:00.949Z</time>
      </trkpt>
      <trkpt lat="47.17797" lon="-1.63587">
        <ele>48.510706</ele>
        <time>2022-12-16T16:42:02.956Z</time>
      </trkpt>
      <trkpt lat="47.17801" lon="-1.6357">
        <ele>48.714511</ele>
        <time>2022-12-16T16:42:05.956Z</time>
      </trkpt>
      <trkpt lat="47.17804" lon="-1.63555">
        <ele>48.891974</ele>
        <time>2022-12-16T16:42:08.944Z</time>
      </trkpt>
      <trkpt lat="47.17807" lon="-1.63542">
        <ele>49.04607</ele>
        <time>2022-12-16T16:42:11.947Z</time>
      </trkpt>
      <trkpt lat="47.1781" lon="-1.63528">
        <ele>49.218216</ele>
        <time>2022-12-16T16:42:15.960Z</time>
      </trkpt>
      <trkpt lat="47.17813" lon="-1.63511">
        <ele>49.413574</ele>
        <time>2022-12-16T16:42:19.947Z</time>
      </trkpt>
      <trkpt lat="47.17816" lon="-1.63495">
        <ele>49.606271</ele>
        <time>2022-12-16T16:42:23.946Z</time>
      </trkpt>
      <trkpt lat="47.17818" lon="-1.63481">
        <ele>49.770674</ele>
        <time>2022-12-16T16:42:27.944Z</time>
      </trkpt>
      <trkpt lat="47.17819" lon="-1.63464">
        <ele>49.966482</ele>
        <time>2022-12-16T16:42:31.967Z</time>
      </trkpt>
      <trkpt lat="47.17813" lon="-1.63451">
        <ele>50.136538</ele>
        <time>2022-12-16T16:42:34.954Z</time>
      </trkpt>
      <trkpt lat="47.17806" lon="-1.63443">
        <ele>50.289981</ele>
        <time>2022-12-16T16:42:37.947Z</time>
      </trkpt>
      <trkpt lat="47.17798" lon="-1.63435">
        <ele>50.456211</ele>
        <time>2022-12-16T16:42:41.956Z</time>
      </trkpt>
      <trkpt lat="47.17789" lon="-1.63426">
        <ele>50.637552</ele>
        <time>2022-12-16T16:42:45.956Z</time>
      </trkpt>
      <trkpt lat="47.17779" lon="-1.63421">
        <ele>50.814218</ele>
        <time>2022-12-16T16:42:49.944Z</time>
      </trkpt>
      <trkpt lat="47.17768" lon="-1.63417">
        <ele>50.996336</ele>
        <time>2022-12-16T16:42:53.944Z</time>
      </trkpt>
      <trkpt lat="47.17758" lon="-1.63413">
        <ele>51.177289</ele>
        <time>2022-12-16T16:42:57.943Z</time>
      </trkpt>
      <trkpt lat="47.17748" lon="-1.63409">
        <ele>51.338586</ele>
        <time>2022-12-16T16:43:01.956Z</time>
      </trkpt>
      <trkpt lat="47.17738" lon="-1.63411">
        <ele>51.494994</ele>
        <time>2022-12-16T16:43:06.946Z</time>
      </trkpt>
      <trkpt lat="47.17724" lon="-1.63418">
        <ele>51.494994</ele>
        <time>2022-12-16T16:43:28.957Z</time>
      </trkpt>
      <trkpt lat="47.17714" lon="-1.63419">
        <ele>51.494994</ele>
        <time>2022-12-16T16:43:32.960Z</time>
      </trkpt>
      <trkpt lat="47.17704" lon="-1.63424">
        <ele>51.494994</ele>
        <time>2022-12-16T16:43:37.958Z</time>
      </trkpt>
      <trkpt lat="47.17696" lon="-1.6343">
        <ele>51.494994</ele>
        <time>2022-12-16T16:43:42.948Z</time>
      </trkpt>
      <trkpt lat="47.17687" lon="-1.63433">
        <ele>51.494994</ele>
        <time>2022-12-16T16:43:47.949Z</time>
      </trkpt>
      <trkpt lat="47.17702" lon="-1.63431">
        <ele>51.494994</ele>
        <time>2022-12-16T16:47:31.981Z</time>
      </trkpt>
      <trkpt lat="47.17711" lon="-1.63424">
        <ele>51.494994</ele>
        <time>2022-12-16T16:48:08.970Z</time>
      </trkpt>
      <trkpt lat="47.17701" lon="-1.63425">
        <ele>51.494994</ele>
        <time>2022-12-16T16:48:19.970Z</time>
      </trkpt>
      <trkpt lat="47.17691" lon="-1.63428">
        <ele>51.494994</ele>
        <time>2022-12-16T16:48:32.944Z</time>
      </trkpt>
      <trkpt lat="47.17682" lon="-1.63434">
        <ele>51.494994</ele>
        <time>2022-12-16T16:48:42.033Z</time>
      </trkpt>
      <trkpt lat="47.17673" lon="-1.63431">
        <ele>51.494994</ele>
        <time>2022-12-16T16:49:04.940Z</time>
      </trkpt>
      <trkpt lat="47.17663" lon="-1.63434">
        <ele>51.494994</ele>
        <time>2022-12-16T16:49:11.944Z</time>
      </trkpt>
      <trkpt lat="47.17654" lon="-1.63432">
        <ele>51.494994</ele>
        <time>2022-12-16T17:06:07.123Z</time>
        <extensions>
          <visugpx:TrkExtension xmlns:visugpx="https://www.visugpx.com/editgpx/">
            <visugpx:node>1</visugpx:node>
            </visugpx:TrkExtension>
        </extensions>
      </trkpt>
    </trkseg>
  </trk>
  <trk>
    <name><![CDATA[Bouguenais - Saint-Jean de Monts]]></name>
    <extensions>
      <line xmlns="http://www.topografix.com/GPX/gpx_style/0/2">
        <color>0000ff</color>
        <width>4</width>
      </line>
    </extensions>
    <trkseg>
      <trkpt lat="47.17673" lon="-1.63437">
        <ele>60.157554</ele>
        <time>2022-12-17T09:58:41.246Z</time>
      </trkpt>
      <trkpt lat="47.17686" lon="-1.63431">
        <ele>60.157554</ele>
        <time>2022-12-17T09:58:50.343Z</time>
      </trkpt>
      <trkpt lat="47.17696" lon="-1.63425">
        <ele>60.157554</ele>
        <time>2022-12-17T09:58:54.342Z</time>
      </trkpt>
      <trkpt lat="47.17705" lon="-1.63421">
        <ele>60.157554</ele>
        <time>2022-12-17T09:58:57.340Z</time>
      </trkpt>
      <trkpt lat="47.17714" lon="-1.63415">
        <ele>60.157554</ele>
        <time>2022-12-17T09:59:00.340Z</time>
      </trkpt>
      <trkpt lat="47.17724" lon="-1.63411">
        <ele>60.157554</ele>
        <time>2022-12-17T09:59:03.342Z</time>
      </trkpt>
      <trkpt lat="47.17734" lon="-1.63404">
        <ele>60.157554</ele>
        <time>2022-12-17T09:59:07.356Z</time>
      </trkpt>
      <trkpt lat="47.17741" lon="-1.63396">
        <ele>60.157554</ele>
        <time>2022-12-17T09:59:10.341Z</time>
      </trkpt>
      <trkpt lat="47.17745" lon="-1.63379">
        <ele>60.157554</ele>
        <time>2022-12-17T09:59:14.343Z</time>
      </trkpt>
      <trkpt lat="47.17746" lon="-1.63363">
        <ele>60.30434</ele>
        <time>2022-12-17T09:59:19.355Z</time>
      </trkpt>
      <trkpt lat="47.1774" lon="-1.63351">
        <ele>60.525794</ele>
        <time>2022-12-17T09:59:23.342Z</time>
      </trkpt>
      <trkpt lat="47.17731" lon="-1.6334">
        <ele>60.754988</ele>
        <time>2022-12-17T09:59:27.359Z</time>
      </trkpt>
      <trkpt lat="47.17723" lon="-1.63331">
        <ele>60.97155</ele>
        <time>2022-12-17T09:59:31.343Z</time>
      </trkpt>
      <trkpt lat="47.17714" lon="-1.63321">
        <ele>61.188631</ele>
        <time>2022-12-17T09:59:35.356Z</time>
      </trkpt>
      <trkpt lat="47.17706" lon="-1.63312">
        <ele>61.404929</ele>
        <time>2022-12-17T09:59:39.351Z</time>
      </trkpt>
      <trkpt lat="47.17699" lon="-1.63303">
        <ele>61.591337</ele>
        <time>2022-12-17T09:59:44.348Z</time>
      </trkpt>
      <trkpt lat="47.17691" lon="-1.63293">
        <ele>61.818404</ele>
        <time>2022-12-17T09:59:50.364Z</time>
      </trkpt>
      <trkpt lat="47.17682" lon="-1.63288">
        <ele>62.006383</ele>
        <time>2022-12-17T09:59:53.341Z</time>
      </trkpt>
      <trkpt lat="47.17673" lon="-1.63289">
        <ele>62.20934</ele>
        <time>2022-12-17T09:59:57.349Z</time>
      </trkpt>
      <trkpt lat="47.17662" lon="-1.63289">
        <ele>62.417979</ele>
        <time>2022-12-17T10:00:02.346Z</time>
      </trkpt>
      <trkpt lat="47.17652" lon="-1.6329">
        <ele>62.637412</ele>
        <time>2022-12-17T10:00:07.341Z</time>
      </trkpt>
      <trkpt lat="47.17642" lon="-1.63291">
        <ele>62.840174</ele>
        <time>2022-12-17T10:00:11.350Z</time>
      </trkpt>
      <trkpt lat="47.17632" lon="-1.63292">
        <ele>63.043243</ele>
        <time>2022-12-17T10:00:15.360Z</time>
      </trkpt>
      <trkpt lat="47.17622" lon="-1.63292">
        <ele>63.258167</ele>
        <time>2022-12-17T10:00:19.345Z</time>
      </trkpt>
      <trkpt lat="47.17612" lon="-1.63292">
        <ele>63.470865</ele>
        <time>2022-12-17T10:00:23.343Z</time>
      </trkpt>
      <trkpt lat="47.17602" lon="-1.63292">
        <ele>63.671174</ele>
        <time>2022-12-17T10:00:27.358Z</time>
      </trkpt>
      <trkpt lat="47.17592" lon="-1.63294">
        <ele>63.86807</ele>
        <time>2022-12-17T10:00:31.351Z</time>
      </trkpt>
      <trkpt lat="47.17583" lon="-1.63296">
        <ele>64.259072</ele>
        <time>2022-12-17T10:00:35.343Z</time>
      </trkpt>
      <trkpt lat="47.17574" lon="-1.633">
        <ele>64.638265</ele>
        <time>2022-12-17T10:00:39.340Z</time>
      </trkpt>
      <trkpt lat="47.17565" lon="-1.63306">
        <ele>65.038997</ele>
        <time>2022-12-17T10:00:43.344Z</time>
      </trkpt>
      <trkpt lat="47.17556" lon="-1.6331">
        <ele>65.429826</ele>
        <time>2022-12-17T10:00:47.341Z</time>
      </trkpt>
      <trkpt lat="47.17548" lon="-1.63317">
        <ele>65.808379</ele>
        <time>2022-12-17T10:00:51.342Z</time>
      </trkpt>
      <trkpt lat="47.1754" lon="-1.63323">
        <ele>66.198676</ele>
        <time>2022-12-17T10:00:55.356Z</time>
      </trkpt>
      <trkpt lat="47.17532" lon="-1.63331">
        <ele>66.574136</ele>
        <time>2022-12-17T10:00:59.349Z</time>
      </trkpt>
      <trkpt lat="47.17524" lon="-1.63337">
        <ele>66.966651</ele>
        <time>2022-12-17T10:01:03.355Z</time>
      </trkpt>
      <trkpt lat="47.17515" lon="-1.63344">
        <ele>67.388587</ele>
        <time>2022-12-17T10:01:08.357Z</time>
      </trkpt>
      <trkpt lat="47.17507" lon="-1.63351">
        <ele>67.77343</ele>
        <time>2022-12-17T10:01:13.341Z</time>
      </trkpt>
      <trkpt lat="47.17499" lon="-1.63358">
        <ele>68.153768</ele>
        <time>2022-12-17T10:01:18.360Z</time>
      </trkpt>
      <trkpt lat="47.1749" lon="-1.63365">
        <ele>68.572067</ele>
        <time>2022-12-17T10:01:23.356Z</time>
      </trkpt>
      <trkpt lat="47.1748" lon="-1.63372">
        <ele>69.030829</ele>
        <time>2022-12-17T10:01:28.349Z</time>
      </trkpt>
      <trkpt lat="47.17472" lon="-1.63379">
        <ele>69.411167</ele>
        <time>2022-12-17T10:01:32.340Z</time>
      </trkpt>
      <trkpt lat="47.17464" lon="-1.63386">
        <ele>69.795743</ele>
        <time>2022-12-17T10:01:36.358Z</time>
      </trkpt>
      <trkpt lat="47.17455" lon="-1.63394">
        <ele>70.247611</ele>
        <time>2022-12-17T10:01:40.363Z</time>
      </trkpt>
      <trkpt lat="47.17446" lon="-1.634">
        <ele>70.631267</ele>
        <time>2022-12-17T10:01:43.342Z</time>
      </trkpt>
      <trkpt lat="47.17437" lon="-1.63404">
        <ele>71.016588</ele>
        <time>2022-12-17T10:01:46.361Z</time>
      </trkpt>
      <trkpt lat="47.17429" lon="-1.63408">
        <ele>71.336417</ele>
        <time>2022-12-17T10:01:49.360Z</time>
      </trkpt>
      <trkpt lat="47.1742" lon="-1.63412">
        <ele>71.468346</ele>
        <time>2022-12-17T10:01:52.342Z</time>
      </trkpt>
      <trkpt lat="47.1741" lon="-1.63418">
        <ele>71.614435</ele>
        <time>2022-12-17T10:01:55.344Z</time>
      </trkpt>
      <trkpt lat="47.174" lon="-1.63424">
        <ele>71.76852</ele>
        <time>2022-12-17T10:01:58.359Z</time>
      </trkpt>
      <trkpt lat="47.17391" lon="-1.6343">
        <ele>71.912895</ele>
        <time>2022-12-17T10:02:01.361Z</time>
      </trkpt>
      <trkpt lat="47.17381" lon="-1.6344">
        <ele>72.072078</ele>
        <time>2022-12-17T10:02:05.349Z</time>
      </trkpt>
      <trkpt lat="47.17374" lon="-1.63449">
        <ele>72.212287</ele>
        <time>2022-12-17T10:02:08.349Z</time>
      </trkpt>
      <trkpt lat="47.17366" lon="-1.63459">
        <ele>72.36296</ele>
        <time>2022-12-17T10:02:11.354Z</time>
      </trkpt>
      <trkpt lat="47.17358" lon="-1.6347">
        <ele>72.511878</ele>
        <time>2022-12-17T10:02:14.360Z</time>
      </trkpt>
      <trkpt lat="47.17351" lon="-1.6348">
        <ele>72.654302</ele>
        <time>2022-12-17T10:02:17.359Z</time>
      </trkpt>
      <trkpt lat="47.17344" lon="-1.6349">
        <ele>72.791664</ele>
        <time>2022-12-17T10:02:20.350Z</time>
      </trkpt>
      <trkpt lat="47.17336" lon="-1.63499">
        <ele>72.930178</ele>
        <time>2022-12-17T10:02:23.362Z</time>
      </trkpt>
      <trkpt lat="47.17328" lon="-1.63511">
        <ele>73.093298</ele>
        <time>2022-12-17T10:02:27.363Z</time>
      </trkpt>
      <trkpt lat="47.1732" lon="-1.63521">
        <ele>73.234404</ele>
        <time>2022-12-17T10:02:31.358Z</time>
      </trkpt>
      <trkpt lat="47.17313" lon="-1.6353">
        <ele>73.37951</ele>
        <time>2022-12-17T10:02:36.347Z</time>
      </trkpt>
      <trkpt lat="47.17302" lon="-1.63538">
        <ele>73.54169</ele>
        <time>2022-12-17T10:03:35.354Z</time>
      </trkpt>
      <trkpt lat="47.17294" lon="-1.63545">
        <ele>73.67144</ele>
        <time>2022-12-17T10:03:38.352Z</time>
      </trkpt>
      <trkpt lat="47.17287" lon="-1.63556">
        <ele>73.818899</ele>
        <time>2022-12-17T10:03:41.349Z</time>
      </trkpt>
      <trkpt lat="47.1728" lon="-1.63566">
        <ele>73.99077</ele>
        <time>2022-12-17T10:03:44.349Z</time>
      </trkpt>
      <trkpt lat="47.17273" lon="-1.63576">
        <ele>74.158802</ele>
        <time>2022-12-17T10:03:47.350Z</time>
      </trkpt>
      <trkpt lat="47.17265" lon="-1.63585">
        <ele>74.335267</ele>
        <time>2022-12-17T10:03:50.353Z</time>
      </trkpt>
      <trkpt lat="47.17257" lon="-1.63595">
        <ele>74.523994</ele>
        <time>2022-12-17T10:03:53.353Z</time>
      </trkpt>
      <trkpt lat="47.17248" lon="-1.63604">
        <ele>74.708096</ele>
        <time>2022-12-17T10:03:56.354Z</time>
      </trkpt>
      <trkpt lat="47.17239" lon="-1.63612">
        <ele>74.890505</ele>
        <time>2022-12-17T10:03:59.347Z</time>
      </trkpt>
      <trkpt lat="47.17232" lon="-1.6362">
        <ele>75.057786</ele>
        <time>2022-12-17T10:04:02.351Z</time>
      </trkpt>
      <trkpt lat="47.17224" lon="-1.63629">
        <ele>75.233562</ele>
        <time>2022-12-17T10:04:05.351Z</time>
      </trkpt>
      <trkpt lat="47.17216" lon="-1.63638">
        <ele>75.410004</ele>
        <time>2022-12-17T10:04:08.353Z</time>
      </trkpt>
      <trkpt lat="47.17205" lon="-1.63647">
        <ele>75.620746</ele>
        <time>2022-12-17T10:04:12.365Z</time>
      </trkpt>
      <trkpt lat="47.17198" lon="-1.63655">
        <ele>75.78867</ele>
        <time>2022-12-17T10:04:15.348Z</time>
      </trkpt>
      <trkpt lat="47.17189" lon="-1.63664">
        <ele>75.972275</ele>
        <time>2022-12-17T10:04:18.352Z</time>
      </trkpt>
      <trkpt lat="47.1718" lon="-1.63674">
        <ele>76.170682</ele>
        <time>2022-12-17T10:04:22.352Z</time>
      </trkpt>
      <trkpt lat="47.17172" lon="-1.63684">
        <ele>76.365767</ele>
        <time>2022-12-17T10:04:27.348Z</time>
      </trkpt>
      <trkpt lat="47.17165" lon="-1.63697">
        <ele>76.552902</ele>
        <time>2022-12-17T10:04:31.350Z</time>
      </trkpt>
      <trkpt lat="47.17158" lon="-1.63707">
        <ele>76.7246</ele>
        <time>2022-12-17T10:04:34.351Z</time>
      </trkpt>
      <trkpt lat="47.17148" lon="-1.63713">
        <ele>76.924995</ele>
        <time>2022-12-17T10:04:37.363Z</time>
      </trkpt>
      <trkpt lat="47.17138" lon="-1.6372">
        <ele>77.00437</ele>
        <time>2022-12-17T10:04:40.364Z</time>
      </trkpt>
      <trkpt lat="47.17129" lon="-1.6373">
        <ele>76.991429</ele>
        <time>2022-12-17T10:04:43.354Z</time>
      </trkpt>
      <trkpt lat="47.17119" lon="-1.6374">
        <ele>76.977941</ele>
        <time>2022-12-17T10:04:46.359Z</time>
      </trkpt>
      <trkpt lat="47.17109" lon="-1.6375">
        <ele>76.964542</ele>
        <time>2022-12-17T10:04:49.350Z</time>
      </trkpt>
      <trkpt lat="47.17099" lon="-1.6376">
        <ele>76.950991</ele>
        <time>2022-12-17T10:04:52.351Z</time>
      </trkpt>
      <trkpt lat="47.17089" lon="-1.63769">
        <ele>76.938003</ele>
        <time>2022-12-17T10:04:55.361Z</time>
      </trkpt>
      <trkpt lat="47.17081" lon="-1.63777">
        <ele>76.926655</ele>
        <time>2022-12-17T10:04:58.352Z</time>
      </trkpt>
      <trkpt lat="47.17073" lon="-1.63787">
        <ele>76.914808</ele>
        <time>2022-12-17T10:05:02.355Z</time>
      </trkpt>
      <trkpt lat="47.17064" lon="-1.63779">
        <ele>76.903009</ele>
        <time>2022-12-17T10:05:06.349Z</time>
      </trkpt>
      <trkpt lat="47.17056" lon="-1.6377">
        <ele>76.892147</ele>
        <time>2022-12-17T10:05:09.353Z</time>
      </trkpt>
      <trkpt lat="47.17047" lon="-1.63761">
        <ele>76.879542</ele>
        <time>2022-12-17T10:05:12.353Z</time>
      </trkpt>
      <trkpt lat="47.17036" lon="-1.63755">
        <ele>76.866271</ele>
        <time>2022-12-17T10:05:15.372Z</time>
      </trkpt>
      <trkpt lat="47.17024" lon="-1.63751">
        <ele>76.851985</ele>
        <time>2022-12-17T10:05:18.350Z</time>
      </trkpt>
      <trkpt lat="47.17011" lon="-1.63745">
        <ele>76.837269</ele>
        <time>2022-12-17T10:05:21.354Z</time>
      </trkpt>
      <trkpt lat="47.17002" lon="-1.63742">
        <ele>76.826738</ele>
        <time>2022-12-17T10:05:23.350Z</time>
      </trkpt>
      <trkpt lat="47.16993" lon="-1.63739">
        <ele>76.815713</ele>
        <time>2022-12-17T10:05:25.351Z</time>
      </trkpt>
      <trkpt lat="47.16984" lon="-1.63735">
        <ele>76.797374</ele>
        <time>2022-12-17T10:05:27.358Z</time>
      </trkpt>
      <trkpt lat="47.16971" lon="-1.63729">
        <ele>76.73475</ele>
        <time>2022-12-17T10:05:30.364Z</time>
      </trkpt>
      <trkpt lat="47.16962" lon="-1.63726">
        <ele>76.688921</ele>
        <time>2022-12-17T10:05:32.365Z</time>
      </trkpt>
      <trkpt lat="47.16952" lon="-1.63723">
        <ele>76.642983</ele>
        <time>2022-12-17T10:05:34.368Z</time>
      </trkpt>
      <trkpt lat="47.16942" lon="-1.63719">
        <ele>76.596751</ele>
        <time>2022-12-17T10:05:36.361Z</time>
      </trkpt>
      <trkpt lat="47.16933" lon="-1.63716">
        <ele>76.548949</ele>
        <time>2022-12-17T10:05:38.354Z</time>
      </trkpt>
      <trkpt lat="47.16922" lon="-1.63712">
        <ele>76.499925</ele>
        <time>2022-12-17T10:05:40.371Z</time>
      </trkpt>
      <trkpt lat="47.16912" lon="-1.63708">
        <ele>76.449617</ele>
        <time>2022-12-17T10:05:42.352Z</time>
      </trkpt>
      <trkpt lat="47.16902" lon="-1.63705">
        <ele>76.403477</ele>
        <time>2022-12-17T10:05:44.354Z</time>
      </trkpt>
      <trkpt lat="47.16893" lon="-1.63702">
        <ele>76.359693</ele>
        <time>2022-12-17T10:05:46.351Z</time>
      </trkpt>
      <trkpt lat="47.16881" lon="-1.63697">
        <ele>76.300736</ele>
        <time>2022-12-17T10:05:49.354Z</time>
      </trkpt>
      <trkpt lat="47.16869" lon="-1.63693">
        <ele>76.244207</ele>
        <time>2022-12-17T10:05:52.353Z</time>
      </trkpt>
      <trkpt lat="47.16857" lon="-1.63687">
        <ele>76.182864</ele>
        <time>2022-12-17T10:05:55.352Z</time>
      </trkpt>
      <trkpt lat="47.16844" lon="-1.63683">
        <ele>76.122305</ele>
        <time>2022-12-17T10:05:58.349Z</time>
      </trkpt>
      <trkpt lat="47.16831" lon="-1.63679">
        <ele>76.058791</ele>
        <time>2022-12-17T10:06:01.349Z</time>
      </trkpt>
      <trkpt lat="47.16818" lon="-1.63674">
        <ele>75.995725</ele>
        <time>2022-12-17T10:06:04.351Z</time>
      </trkpt>
      <trkpt lat="47.16809" lon="-1.63671">
        <ele>75.949029</ele>
        <time>2022-12-17T10:06:06.353Z</time>
      </trkpt>
      <trkpt lat="47.16797" lon="-1.63665">
        <ele>75.866175</ele>
        <time>2022-12-17T10:06:09.356Z</time>
      </trkpt>
      <trkpt lat="47.16786" lon="-1.63661">
        <ele>75.793199</ele>
        <time>2022-12-17T10:06:12.350Z</time>
      </trkpt>
      <trkpt lat="47.16777" lon="-1.63656">
        <ele>75.725084</ele>
        <time>2022-12-17T10:06:15.362Z</time>
      </trkpt>
      <trkpt lat="47.16767" lon="-1.63653">
        <ele>75.663035</ele>
        <time>2022-12-17T10:06:18.362Z</time>
      </trkpt>
      <trkpt lat="47.16758" lon="-1.6365">
        <ele>75.601006</ele>
        <time>2022-12-17T10:06:21.367Z</time>
      </trkpt>
      <trkpt lat="47.16749" lon="-1.63648">
        <ele>75.53962</ele>
        <time>2022-12-17T10:06:24.354Z</time>
      </trkpt>
      <trkpt lat="47.16739" lon="-1.63644">
        <ele>75.471197</ele>
        <time>2022-12-17T10:06:28.351Z</time>
      </trkpt>
      <trkpt lat="47.16727" lon="-1.6364">
        <ele>75.393025</ele>
        <time>2022-12-17T10:06:32.351Z</time>
      </trkpt>
      <trkpt lat="47.16716" lon="-1.63635">
        <ele>75.314696</ele>
        <time>2022-12-17T10:06:35.352Z</time>
      </trkpt>
      <trkpt lat="47.16703" lon="-1.63628">
        <ele>75.226895</ele>
        <time>2022-12-17T10:06:38.348Z</time>
      </trkpt>
      <trkpt lat="47.16692" lon="-1.63618">
        <ele>75.139462</ele>
        <time>2022-12-17T10:06:41.350Z</time>
      </trkpt>
      <trkpt lat="47.16684" lon="-1.63609">
        <ele>75.077617</ele>
        <time>2022-12-17T10:06:43.356Z</time>
      </trkpt>
      <trkpt lat="47.16676" lon="-1.636">
        <ele>75.009734</ele>
        <time>2022-12-17T10:06:46.358Z</time>
      </trkpt>
      <trkpt lat="47.16685" lon="-1.63604">
        <ele>74.948832</ele>
        <time>2022-12-17T10:06:58.352Z</time>
      </trkpt>
      <trkpt lat="47.16692" lon="-1.63615">
        <ele>74.881585</ele>
        <time>2022-12-17T10:07:02.352Z</time>
      </trkpt>
      <trkpt lat="47.16701" lon="-1.63621">
        <ele>74.814263</ele>
        <time>2022-12-17T10:07:05.365Z</time>
      </trkpt>
      <trkpt lat="47.16712" lon="-1.63628">
        <ele>74.81228</ele>
        <time>2022-12-17T10:07:08.349Z</time>
      </trkpt>
      <trkpt lat="47.16721" lon="-1.63633">
        <ele>74.849018</ele>
        <time>2022-12-17T10:07:11.349Z</time>
      </trkpt>
      <trkpt lat="47.16729" lon="-1.63643">
        <ele>74.886663</ele>
        <time>2022-12-17T10:07:15.381Z</time>
      </trkpt>
      <trkpt lat="47.1673" lon="-1.6366">
        <ele>74.928544</ele>
        <time>2022-12-17T10:07:19.367Z</time>
      </trkpt>
      <trkpt lat="47.16726" lon="-1.63675">
        <ele>74.968226</ele>
        <time>2022-12-17T10:07:22.357Z</time>
      </trkpt>
      <trkpt lat="47.1672" lon="-1.63691">
        <ele>75.011154</ele>
        <time>2022-12-17T10:07:25.362Z</time>
      </trkpt>
      <trkpt lat="47.16714" lon="-1.63708">
        <ele>75.059323</ele>
        <time>2022-12-17T10:07:28.345Z</time>
      </trkpt>
      <trkpt lat="47.16711" lon="-1.63721">
        <ele>75.093036</ele>
        <time>2022-12-17T10:07:30.355Z</time>
      </trkpt>
      <trkpt lat="47.16707" lon="-1.63739">
        <ele>75.139576</ele>
        <time>2022-12-17T10:07:33.358Z</time>
      </trkpt>
      <trkpt lat="47.16703" lon="-1.63754">
        <ele>75.179392</ele>
        <time>2022-12-17T10:07:36.351Z</time>
      </trkpt>
      <trkpt lat="47.16699" lon="-1.63769">
        <ele>75.217167</ele>
        <time>2022-12-17T10:07:39.355Z</time>
      </trkpt>
      <trkpt lat="47.16695" lon="-1.63784">
        <ele>75.256949</ele>
        <time>2022-12-17T10:07:42.353Z</time>
      </trkpt>
      <trkpt lat="47.16692" lon="-1.63796">
        <ele>75.290177</ele>
        <time>2022-12-17T10:07:45.356Z</time>
      </trkpt>
      <trkpt lat="47.16689" lon="-1.63809">
        <ele>75.322842</ele>
        <time>2022-12-17T10:07:48.359Z</time>
      </trkpt>
      <trkpt lat="47.16687" lon="-1.63823">
        <ele>75.35928</ele>
        <time>2022-12-17T10:07:51.353Z</time>
      </trkpt>
      <trkpt lat="47.16684" lon="-1.63839">
        <ele>75.399445</ele>
        <time>2022-12-17T10:07:54.359Z</time>
      </trkpt>
      <trkpt lat="47.16681" lon="-1.63856">
        <ele>75.464628</ele>
        <time>2022-12-17T10:07:57.365Z</time>
      </trkpt>
      <trkpt lat="47.16677" lon="-1.63873">
        <ele>75.738031</ele>
        <time>2022-12-17T10:08:00.354Z</time>
      </trkpt>
      <trkpt lat="47.16674" lon="-1.63891">
        <ele>76.015202</ele>
        <time>2022-12-17T10:08:03.354Z</time>
      </trkpt>
      <trkpt lat="47.16669" lon="-1.6391">
        <ele>76.307858</ele>
        <time>2022-12-17T10:08:06.353Z</time>
      </trkpt>
      <trkpt lat="47.16666" lon="-1.63922">
        <ele>76.507431</ele>
        <time>2022-12-17T10:08:08.349Z</time>
      </trkpt>
      <trkpt lat="47.16662" lon="-1.63941">
        <ele>76.794453</ele>
        <time>2022-12-17T10:08:11.355Z</time>
      </trkpt>
      <trkpt lat="47.16657" lon="-1.63957">
        <ele>77.060948</ele>
        <time>2022-12-17T10:08:14.349Z</time>
      </trkpt>
      <trkpt lat="47.16652" lon="-1.63973">
        <ele>77.323404</ele>
        <time>2022-12-17T10:08:17.346Z</time>
      </trkpt>
      <trkpt lat="47.16647" lon="-1.63987">
        <ele>77.566023</ele>
        <time>2022-12-17T10:08:20.351Z</time>
      </trkpt>
      <trkpt lat="47.16642" lon="-1.64001">
        <ele>77.793288</ele>
        <time>2022-12-17T10:08:23.356Z</time>
      </trkpt>
      <trkpt lat="47.16637" lon="-1.64014">
        <ele>78.023914</ele>
        <time>2022-12-17T10:08:26.360Z</time>
      </trkpt>
      <trkpt lat="47.16631" lon="-1.64028">
        <ele>78.26793</ele>
        <time>2022-12-17T10:08:29.348Z</time>
      </trkpt>
      <trkpt lat="47.16625" lon="-1.64041">
        <ele>78.510693</ele>
        <time>2022-12-17T10:08:32.356Z</time>
      </trkpt>
      <trkpt lat="47.16618" lon="-1.64055">
        <ele>78.762008</ele>
        <time>2022-12-17T10:08:35.365Z</time>
      </trkpt>
      <trkpt lat="47.16611" lon="-1.6407">
        <ele>79.018249</ele>
        <time>2022-12-17T10:08:38.355Z</time>
      </trkpt>
      <trkpt lat="47.16605" lon="-1.64084">
        <ele>79.280797</ele>
        <time>2022-12-17T10:08:41.352Z</time>
      </trkpt>
      <trkpt lat="47.16598" lon="-1.64099">
        <ele>79.19664</ele>
        <time>2022-12-17T10:08:44.356Z</time>
      </trkpt>
      <trkpt lat="47.16592" lon="-1.64113">
        <ele>78.903971</ele>
        <time>2022-12-17T10:08:47.352Z</time>
      </trkpt>
      <trkpt lat="47.16584" lon="-1.64128">
        <ele>78.587166</ele>
        <time>2022-12-17T10:08:50.352Z</time>
      </trkpt>
      <trkpt lat="47.16579" lon="-1.64139">
        <ele>78.343712</ele>
        <time>2022-12-17T10:08:52.352Z</time>
      </trkpt>
      <trkpt lat="47.16572" lon="-1.64151">
        <ele>78.087093</ele>
        <time>2022-12-17T10:08:54.367Z</time>
      </trkpt>
      <trkpt lat="47.16566" lon="-1.64164">
        <ele>77.815379</ele>
        <time>2022-12-17T10:08:56.370Z</time>
      </trkpt>
      <trkpt lat="47.16558" lon="-1.64178">
        <ele>77.520063</ele>
        <time>2022-12-17T10:08:58.349Z</time>
      </trkpt>
      <trkpt lat="47.16549" lon="-1.64191">
        <ele>77.197658</ele>
        <time>2022-12-17T10:09:00.355Z</time>
      </trkpt>
      <trkpt lat="47.16541" lon="-1.64205">
        <ele>76.87402</ele>
        <time>2022-12-17T10:09:02.352Z</time>
      </trkpt>
      <trkpt lat="47.16531" lon="-1.64219">
        <ele>76.532723</ele>
        <time>2022-12-17T10:09:04.359Z</time>
      </trkpt>
      <trkpt lat="47.16521" lon="-1.64234">
        <ele>76.181882</ele>
        <time>2022-12-17T10:09:06.352Z</time>
      </trkpt>
      <trkpt lat="47.1651" lon="-1.64247">
        <ele>75.826487</ele>
        <time>2022-12-17T10:09:08.352Z</time>
      </trkpt>
      <trkpt lat="47.165" lon="-1.64261">
        <ele>75.482709</ele>
        <time>2022-12-17T10:09:10.347Z</time>
      </trkpt>
      <trkpt lat="47.16489" lon="-1.64273">
        <ele>75.143338</ele>
        <time>2022-12-17T10:09:12.354Z</time>
      </trkpt>
      <trkpt lat="47.16479" lon="-1.64286">
        <ele>74.845917</ele>
        <time>2022-12-17T10:09:14.350Z</time>
      </trkpt>
      <trkpt lat="47.1647" lon="-1.64298">
        <ele>74.691055</ele>
        <time>2022-12-17T10:09:16.357Z</time>
      </trkpt>
      <trkpt lat="47.1646" lon="-1.6431">
        <ele>74.543811</ele>
        <time>2022-12-17T10:09:18.357Z</time>
      </trkpt>
      <trkpt lat="47.16452" lon="-1.64321">
        <ele>74.405418</ele>
        <time>2022-12-17T10:09:20.350Z</time>
      </trkpt>
      <trkpt lat="47.16443" lon="-1.64331">
        <ele>74.26752</ele>
        <time>2022-12-17T10:09:22.366Z</time>
      </trkpt>
      <trkpt lat="47.16435" lon="-1.64342">
        <ele>74.13296</ele>
        <time>2022-12-17T10:09:24.360Z</time>
      </trkpt>
      <trkpt lat="47.16427" lon="-1.64353">
        <ele>73.995677</ele>
        <time>2022-12-17T10:09:26.364Z</time>
      </trkpt>
      <trkpt lat="47.16419" lon="-1.64364">
        <ele>73.865484</ele>
        <time>2022-12-17T10:09:28.353Z</time>
      </trkpt>
      <trkpt lat="47.16412" lon="-1.64375">
        <ele>73.737565</ele>
        <time>2022-12-17T10:09:30.360Z</time>
      </trkpt>
      <trkpt lat="47.16405" lon="-1.64386">
        <ele>73.619467</ele>
        <time>2022-12-17T10:09:32.354Z</time>
      </trkpt>
      <trkpt lat="47.16399" lon="-1.64398">
        <ele>73.493724</ele>
        <time>2022-12-17T10:09:34.350Z</time>
      </trkpt>
      <trkpt lat="47.16393" lon="-1.64411">
        <ele>73.357834</ele>
        <time>2022-12-17T10:09:36.353Z</time>
      </trkpt>
      <trkpt lat="47.16386" lon="-1.64425">
        <ele>73.222628</ele>
        <time>2022-12-17T10:09:38.361Z</time>
      </trkpt>
      <trkpt lat="47.1638" lon="-1.64439">
        <ele>73.075745</ele>
        <time>2022-12-17T10:09:40.357Z</time>
      </trkpt>
      <trkpt lat="47.16373" lon="-1.64453">
        <ele>72.935041</ele>
        <time>2022-12-17T10:09:42.347Z</time>
      </trkpt>
      <trkpt lat="47.16366" lon="-1.64468">
        <ele>72.788857</ele>
        <time>2022-12-17T10:09:44.352Z</time>
      </trkpt>
      <trkpt lat="47.16359" lon="-1.64483">
        <ele>72.664795</ele>
        <time>2022-12-17T10:09:46.355Z</time>
      </trkpt>
      <trkpt lat="47.16352" lon="-1.64498">
        <ele>72.60275</ele>
        <time>2022-12-17T10:09:48.353Z</time>
      </trkpt>
      <trkpt lat="47.16345" lon="-1.64513">
        <ele>72.541564</ele>
        <time>2022-12-17T10:09:50.356Z</time>
      </trkpt>
      <trkpt lat="47.16337" lon="-1.64527">
        <ele>72.479137</ele>
        <time>2022-12-17T10:09:52.372Z</time>
      </trkpt>
      <trkpt lat="47.16329" lon="-1.64542">
        <ele>72.416406</ele>
        <time>2022-12-17T10:09:54.362Z</time>
      </trkpt>
      <trkpt lat="47.16321" lon="-1.64558">
        <ele>72.351255</ele>
        <time>2022-12-17T10:09:56.352Z</time>
      </trkpt>
      <trkpt lat="47.16313" lon="-1.64572">
        <ele>72.287997</ele>
        <time>2022-12-17T10:09:58.350Z</time>
      </trkpt>
      <trkpt lat="47.16306" lon="-1.64587">
        <ele>72.228062</ele>
        <time>2022-12-17T10:10:00.362Z</time>
      </trkpt>
      <trkpt lat="47.16299" lon="-1.64601">
        <ele>72.170172</ele>
        <time>2022-12-17T10:10:02.354Z</time>
      </trkpt>
      <trkpt lat="47.16293" lon="-1.64614">
        <ele>72.115348</ele>
        <time>2022-12-17T10:10:04.349Z</time>
      </trkpt>
      <trkpt lat="47.16285" lon="-1.64627">
        <ele>72.059987</ele>
        <time>2022-12-17T10:10:06.371Z</time>
      </trkpt>
      <trkpt lat="47.1628" lon="-1.64639">
        <ele>72.010428</ele>
        <time>2022-12-17T10:10:08.349Z</time>
      </trkpt>
      <trkpt lat="47.16273" lon="-1.6465">
        <ele>71.961191</ele>
        <time>2022-12-17T10:10:10.354Z</time>
      </trkpt>
      <trkpt lat="47.16267" lon="-1.64663">
        <ele>71.907333</ele>
        <time>2022-12-17T10:10:12.353Z</time>
      </trkpt>
      <trkpt lat="47.1626" lon="-1.64676">
        <ele>71.852719</ele>
        <time>2022-12-17T10:10:14.355Z</time>
      </trkpt>
      <trkpt lat="47.16254" lon="-1.64689">
        <ele>71.801772</ele>
        <time>2022-12-17T10:10:16.369Z</time>
      </trkpt>
      <trkpt lat="47.16248" lon="-1.647">
        <ele>71.827338</ele>
        <time>2022-12-17T10:10:18.354Z</time>
      </trkpt>
      <trkpt lat="47.16242" lon="-1.64711">
        <ele>71.860624</ele>
        <time>2022-12-17T10:10:20.351Z</time>
      </trkpt>
      <trkpt lat="47.16236" lon="-1.64724">
        <ele>71.896352</ele>
        <time>2022-12-17T10:10:22.345Z</time>
      </trkpt>
      <trkpt lat="47.16229" lon="-1.64736">
        <ele>71.933112</ele>
        <time>2022-12-17T10:10:24.359Z</time>
      </trkpt>
      <trkpt lat="47.16223" lon="-1.64749">
        <ele>71.969662</ele>
        <time>2022-12-17T10:10:26.361Z</time>
      </trkpt>
      <trkpt lat="47.16216" lon="-1.64761">
        <ele>72.005633</ele>
        <time>2022-12-17T10:10:28.362Z</time>
      </trkpt>
      <trkpt lat="47.1621" lon="-1.64774">
        <ele>72.043319</ele>
        <time>2022-12-17T10:10:30.358Z</time>
      </trkpt>
      <trkpt lat="47.16203" lon="-1.64786">
        <ele>72.080449</ele>
        <time>2022-12-17T10:10:32.357Z</time>
      </trkpt>
      <trkpt lat="47.16197" lon="-1.64799">
        <ele>72.116356</ele>
        <time>2022-12-17T10:10:34.354Z</time>
      </trkpt>
      <trkpt lat="47.1619" lon="-1.64811">
        <ele>72.153544</ele>
        <time>2022-12-17T10:10:36.359Z</time>
      </trkpt>
      <trkpt lat="47.16184" lon="-1.64823">
        <ele>72.188454</ele>
        <time>2022-12-17T10:10:38.349Z</time>
      </trkpt>
      <trkpt lat="47.16178" lon="-1.64835">
        <ele>72.222255</ele>
        <time>2022-12-17T10:10:40.353Z</time>
      </trkpt>
      <trkpt lat="47.16173" lon="-1.64847">
        <ele>72.255463</ele>
        <time>2022-12-17T10:10:42.352Z</time>
      </trkpt>
      <trkpt lat="47.16167" lon="-1.64858">
        <ele>72.289094</ele>
        <time>2022-12-17T10:10:44.358Z</time>
      </trkpt>
      <trkpt lat="47.16161" lon="-1.6487">
        <ele>72.324091</ele>
        <time>2022-12-17T10:10:46.361Z</time>
      </trkpt>
      <trkpt lat="47.16154" lon="-1.64883">
        <ele>72.361012</ele>
        <time>2022-12-17T10:10:48.351Z</time>
      </trkpt>
      <trkpt lat="47.16147" lon="-1.64895">
        <ele>72.398996</ele>
        <time>2022-12-17T10:10:50.350Z</time>
      </trkpt>
      <trkpt lat="47.16141" lon="-1.64908">
        <ele>72.392282</ele>
        <time>2022-12-17T10:10:52.355Z</time>
      </trkpt>
      <trkpt lat="47.16134" lon="-1.6492">
        <ele>72.355979</ele>
        <time>2022-12-17T10:10:54.353Z</time>
      </trkpt>
      <trkpt lat="47.16128" lon="-1.64933">
        <ele>72.320295</ele>
        <time>2022-12-17T10:10:56.362Z</time>
      </trkpt>
      <trkpt lat="47.16122" lon="-1.64944">
        <ele>72.287145</ele>
        <time>2022-12-17T10:10:58.353Z</time>
      </trkpt>
      <trkpt lat="47.16116" lon="-1.64956">
        <ele>72.254877</ele>
        <time>2022-12-17T10:11:00.353Z</time>
      </trkpt>
      <trkpt lat="47.16109" lon="-1.64971">
        <ele>72.210963</ele>
        <time>2022-12-17T10:11:03.353Z</time>
      </trkpt>
      <trkpt lat="47.161" lon="-1.64986">
        <ele>72.165044</ele>
        <time>2022-12-17T10:11:06.371Z</time>
      </trkpt>
      <trkpt lat="47.16093" lon="-1.64997">
        <ele>72.132621</ele>
        <time>2022-12-17T10:11:08.355Z</time>
      </trkpt>
      <trkpt lat="47.16087" lon="-1.65009">
        <ele>72.0988</ele>
        <time>2022-12-17T10:11:10.354Z</time>
      </trkpt>
      <trkpt lat="47.16082" lon="-1.6502">
        <ele>72.066716</ele>
        <time>2022-12-17T10:11:12.357Z</time>
      </trkpt>
      <trkpt lat="47.16076" lon="-1.65031">
        <ele>72.035541</ele>
        <time>2022-12-17T10:11:14.350Z</time>
      </trkpt>
      <trkpt lat="47.1607" lon="-1.65043">
        <ele>72.001312</ele>
        <time>2022-12-17T10:11:16.353Z</time>
      </trkpt>
      <trkpt lat="47.16064" lon="-1.65055">
        <ele>71.966937</ele>
        <time>2022-12-17T10:11:18.363Z</time>
      </trkpt>
      <trkpt lat="47.16057" lon="-1.65067">
        <ele>71.930728</ele>
        <time>2022-12-17T10:11:20.352Z</time>
      </trkpt>
      <trkpt lat="47.16051" lon="-1.6508">
        <ele>71.893489</ele>
        <time>2022-12-17T10:11:22.352Z</time>
      </trkpt>
      <trkpt lat="47.16044" lon="-1.65094">
        <ele>71.853615</ele>
        <time>2022-12-17T10:11:24.355Z</time>
      </trkpt>
      <trkpt lat="47.16037" lon="-1.65107">
        <ele>71.816402</ele>
        <time>2022-12-17T10:11:26.361Z</time>
      </trkpt>
      <trkpt lat="47.16032" lon="-1.6512">
        <ele>71.868558</ele>
        <time>2022-12-17T10:11:28.348Z</time>
      </trkpt>
      <trkpt lat="47.16025" lon="-1.65132">
        <ele>71.953982</ele>
        <time>2022-12-17T10:11:30.352Z</time>
      </trkpt>
      <trkpt lat="47.1602" lon="-1.65143">
        <ele>72.031953</ele>
        <time>2022-12-17T10:11:32.356Z</time>
      </trkpt>
      <trkpt lat="47.16014" lon="-1.65154">
        <ele>72.108502</ele>
        <time>2022-12-17T10:11:34.352Z</time>
      </trkpt>
      <trkpt lat="47.16006" lon="-1.6517">
        <ele>72.217643</ele>
        <time>2022-12-17T10:11:37.355Z</time>
      </trkpt>
      <trkpt lat="47.16001" lon="-1.6518">
        <ele>72.292649</ele>
        <time>2022-12-17T10:11:39.361Z</time>
      </trkpt>
      <trkpt lat="47.15994" lon="-1.65191">
        <ele>72.374086</ele>
        <time>2022-12-17T10:11:41.369Z</time>
      </trkpt>
      <trkpt lat="47.15989" lon="-1.65204">
        <ele>72.458499</ele>
        <time>2022-12-17T10:11:43.350Z</time>
      </trkpt>
      <trkpt lat="47.15983" lon="-1.65216">
        <ele>72.542009</ele>
        <time>2022-12-17T10:11:45.352Z</time>
      </trkpt>
      <trkpt lat="47.15977" lon="-1.65227">
        <ele>72.620587</ele>
        <time>2022-12-17T10:11:47.356Z</time>
      </trkpt>
      <trkpt lat="47.15972" lon="-1.65239">
        <ele>72.698534</ele>
        <time>2022-12-17T10:11:49.367Z</time>
      </trkpt>
      <trkpt lat="47.15966" lon="-1.6525">
        <ele>72.779242</ele>
        <time>2022-12-17T10:11:51.366Z</time>
      </trkpt>
      <trkpt lat="47.15961" lon="-1.65263">
        <ele>72.860952</ele>
        <time>2022-12-17T10:11:53.357Z</time>
      </trkpt>
      <trkpt lat="47.15955" lon="-1.65274">
        <ele>72.941708</ele>
        <time>2022-12-17T10:11:55.352Z</time>
      </trkpt>
      <trkpt lat="47.1595" lon="-1.65286">
        <ele>73.022409</ele>
        <time>2022-12-17T10:11:57.354Z</time>
      </trkpt>
      <trkpt lat="47.15945" lon="-1.65298">
        <ele>73.100917</ele>
        <time>2022-12-17T10:11:59.354Z</time>
      </trkpt>
      <trkpt lat="47.15939" lon="-1.6531">
        <ele>73.179877</ele>
        <time>2022-12-17T10:12:01.353Z</time>
      </trkpt>
      <trkpt lat="47.15933" lon="-1.65321">
        <ele>73.259241</ele>
        <time>2022-12-17T10:12:03.359Z</time>
      </trkpt>
      <trkpt lat="47.15928" lon="-1.65333">
        <ele>73.338911</ele>
        <time>2022-12-17T10:12:05.366Z</time>
      </trkpt>
      <trkpt lat="47.15923" lon="-1.65345">
        <ele>73.416822</ele>
        <time>2022-12-17T10:12:07.359Z</time>
      </trkpt>
      <trkpt lat="47.15917" lon="-1.65357">
        <ele>73.498809</ele>
        <time>2022-12-17T10:12:09.352Z</time>
      </trkpt>
      <trkpt lat="47.15912" lon="-1.65369">
        <ele>73.57805</ele>
        <time>2022-12-17T10:12:11.355Z</time>
      </trkpt>
      <trkpt lat="47.15907" lon="-1.65381">
        <ele>73.655529</ele>
        <time>2022-12-17T10:12:13.364Z</time>
      </trkpt>
      <trkpt lat="47.15902" lon="-1.65392">
        <ele>73.731111</ele>
        <time>2022-12-17T10:12:15.355Z</time>
      </trkpt>
      <trkpt lat="47.15896" lon="-1.65403">
        <ele>73.806736</ele>
        <time>2022-12-17T10:12:17.355Z</time>
      </trkpt>
      <trkpt lat="47.15891" lon="-1.65415">
        <ele>73.884143</ele>
        <time>2022-12-17T10:12:19.373Z</time>
      </trkpt>
      <trkpt lat="47.15885" lon="-1.65427">
        <ele>73.965238</ele>
        <time>2022-12-17T10:12:21.352Z</time>
      </trkpt>
      <trkpt lat="47.1588" lon="-1.65438">
        <ele>74.040812</ele>
        <time>2022-12-17T10:12:23.353Z</time>
      </trkpt>
      <trkpt lat="47.15875" lon="-1.6545">
        <ele>74.117821</ele>
        <time>2022-12-17T10:12:25.355Z</time>
      </trkpt>
      <trkpt lat="47.1587" lon="-1.65462">
        <ele>74.194777</ele>
        <time>2022-12-17T10:12:27.357Z</time>
      </trkpt>
      <trkpt lat="47.15865" lon="-1.65473">
        <ele>74.268619</ele>
        <time>2022-12-17T10:12:29.357Z</time>
      </trkpt>
      <trkpt lat="47.15858" lon="-1.65489">
        <ele>74.375868</ele>
        <time>2022-12-17T10:12:32.352Z</time>
      </trkpt>
      <trkpt lat="47.15853" lon="-1.65501">
        <ele>74.453276</ele>
        <time>2022-12-17T10:12:34.351Z</time>
      </trkpt>
      <trkpt lat="47.15845" lon="-1.65517">
        <ele>74.560912</ele>
        <time>2022-12-17T10:12:37.359Z</time>
      </trkpt>
      <trkpt lat="47.15838" lon="-1.65532">
        <ele>74.659848</ele>
        <time>2022-12-17T10:12:40.353Z</time>
      </trkpt>
      <trkpt lat="47.15833" lon="-1.65547">
        <ele>74.756407</ele>
        <time>2022-12-17T10:12:43.355Z</time>
      </trkpt>
      <trkpt lat="47.15827" lon="-1.65558">
        <ele>74.794532</ele>
        <time>2022-12-17T10:12:45.357Z</time>
      </trkpt>
      <trkpt lat="47.15821" lon="-1.65573">
        <ele>74.847345</ele>
        <time>2022-12-17T10:12:48.354Z</time>
      </trkpt>
      <trkpt lat="47.15814" lon="-1.65589">
        <ele>74.900868</ele>
        <time>2022-12-17T10:12:51.353Z</time>
      </trkpt>
      <trkpt lat="47.15806" lon="-1.65604">
        <ele>74.955112</ele>
        <time>2022-12-17T10:12:54.356Z</time>
      </trkpt>
      <trkpt lat="47.158" lon="-1.65618">
        <ele>75.003186</ele>
        <time>2022-12-17T10:12:57.353Z</time>
      </trkpt>
      <trkpt lat="47.15793" lon="-1.65634">
        <ele>75.054406</ele>
        <time>2022-12-17T10:13:00.359Z</time>
      </trkpt>
      <trkpt lat="47.15786" lon="-1.65649">
        <ele>75.107453</ele>
        <time>2022-12-17T10:13:03.352Z</time>
      </trkpt>
      <trkpt lat="47.15779" lon="-1.65662">
        <ele>75.155104</ele>
        <time>2022-12-17T10:13:06.366Z</time>
      </trkpt>
      <trkpt lat="47.15773" lon="-1.65675">
        <ele>75.199431</ele>
        <time>2022-12-17T10:13:09.359Z</time>
      </trkpt>
      <trkpt lat="47.15768" lon="-1.65687">
        <ele>75.240635</ele>
        <time>2022-12-17T10:13:12.354Z</time>
      </trkpt>
      <trkpt lat="47.15761" lon="-1.65701">
        <ele>75.291082</ele>
        <time>2022-12-17T10:13:16.366Z</time>
      </trkpt>
      <trkpt lat="47.15751" lon="-1.6571">
        <ele>75.341324</ele>
        <time>2022-12-17T10:13:19.464Z</time>
      </trkpt>
      <trkpt lat="47.15741" lon="-1.65721">
        <ele>75.392781</ele>
        <time>2022-12-17T10:13:22.357Z</time>
      </trkpt>
      <trkpt lat="47.15731" lon="-1.65733">
        <ele>75.445383</ele>
        <time>2022-12-17T10:13:25.354Z</time>
      </trkpt>
      <trkpt lat="47.15722" lon="-1.65743">
        <ele>75.49594</ele>
        <time>2022-12-17T10:13:28.371Z</time>
      </trkpt>
      <trkpt lat="47.15713" lon="-1.65754">
        <ele>75.47058</ele>
        <time>2022-12-17T10:13:31.370Z</time>
      </trkpt>
      <trkpt lat="47.15702" lon="-1.65765">
        <ele>75.395047</ele>
        <time>2022-12-17T10:13:34.374Z</time>
      </trkpt>
      <trkpt lat="47.15695" lon="-1.65774">
        <ele>75.341696</ele>
        <time>2022-12-17T10:13:36.423Z</time>
      </trkpt>
      <trkpt lat="47.15688" lon="-1.65783">
        <ele>75.284805</ele>
        <time>2022-12-17T10:13:38.376Z</time>
      </trkpt>
      <trkpt lat="47.15677" lon="-1.65795">
        <ele>75.206229</ele>
        <time>2022-12-17T10:13:41.361Z</time>
      </trkpt>
      <trkpt lat="47.15667" lon="-1.65806">
        <ele>75.133482</ele>
        <time>2022-12-17T10:13:44.374Z</time>
      </trkpt>
      <trkpt lat="47.1566" lon="-1.65815">
        <ele>75.079431</ele>
        <time>2022-12-17T10:13:46.373Z</time>
      </trkpt>
      <trkpt lat="47.15652" lon="-1.65822">
        <ele>75.025818</ele>
        <time>2022-12-17T10:13:48.374Z</time>
      </trkpt>
      <trkpt lat="47.15642" lon="-1.65835">
        <ele>74.948097</ele>
        <time>2022-12-17T10:13:51.370Z</time>
      </trkpt>
      <trkpt lat="47.15634" lon="-1.65843">
        <ele>74.893303</ele>
        <time>2022-12-17T10:13:53.420Z</time>
      </trkpt>
      <trkpt lat="47.15624" lon="-1.65856">
        <ele>74.814431</ele>
        <time>2022-12-17T10:13:56.374Z</time>
      </trkpt>
      <trkpt lat="47.15616" lon="-1.65864">
        <ele>74.761809</ele>
        <time>2022-12-17T10:13:58.375Z</time>
      </trkpt>
      <trkpt lat="47.15606" lon="-1.65875">
        <ele>74.684408</ele>
        <time>2022-12-17T10:14:01.373Z</time>
      </trkpt>
      <trkpt lat="47.15595" lon="-1.65887">
        <ele>74.609528</ele>
        <time>2022-12-17T10:14:04.355Z</time>
      </trkpt>
      <trkpt lat="47.15589" lon="-1.65896">
        <ele>74.556684</ele>
        <time>2022-12-17T10:14:06.363Z</time>
      </trkpt>
      <trkpt lat="47.15578" lon="-1.65908">
        <ele>74.47788</ele>
        <time>2022-12-17T10:14:09.431Z</time>
      </trkpt>
      <trkpt lat="47.1557" lon="-1.65916">
        <ele>74.50587</ele>
        <time>2022-12-17T10:14:11.371Z</time>
      </trkpt>
      <trkpt lat="47.15559" lon="-1.65928">
        <ele>74.56952</ele>
        <time>2022-12-17T10:14:14.371Z</time>
      </trkpt>
      <trkpt lat="47.15551" lon="-1.65936">
        <ele>74.61183</ele>
        <time>2022-12-17T10:14:16.354Z</time>
      </trkpt>
      <trkpt lat="47.15542" lon="-1.65947">
        <ele>74.669198</ele>
        <time>2022-12-17T10:14:19.370Z</time>
      </trkpt>
      <trkpt lat="47.15532" lon="-1.6596">
        <ele>74.728474</ele>
        <time>2022-12-17T10:14:22.352Z</time>
      </trkpt>
      <trkpt lat="47.15524" lon="-1.65969">
        <ele>74.774124</ele>
        <time>2022-12-17T10:14:24.372Z</time>
      </trkpt>
      <trkpt lat="47.15517" lon="-1.65978">
        <ele>74.816404</ele>
        <time>2022-12-17T10:14:26.371Z</time>
      </trkpt>
      <trkpt lat="47.1551" lon="-1.65986">
        <ele>74.857993</ele>
        <time>2022-12-17T10:14:28.371Z</time>
      </trkpt>
      <trkpt lat="47.155" lon="-1.65998">
        <ele>74.919083</ele>
        <time>2022-12-17T10:14:31.370Z</time>
      </trkpt>
      <trkpt lat="47.15492" lon="-1.66007">
        <ele>74.963283</ele>
        <time>2022-12-17T10:14:33.366Z</time>
      </trkpt>
      <trkpt lat="47.15484" lon="-1.66016">
        <ele>75.008762</ele>
        <time>2022-12-17T10:14:35.373Z</time>
      </trkpt>
      <trkpt lat="47.15477" lon="-1.66024">
        <ele>75.051815</ele>
        <time>2022-12-17T10:14:37.370Z</time>
      </trkpt>
      <trkpt lat="47.1547" lon="-1.66032">
        <ele>75.093959</ele>
        <time>2022-12-17T10:14:39.356Z</time>
      </trkpt>
      <trkpt lat="47.15462" lon="-1.66041">
        <ele>75.140352</ele>
        <time>2022-12-17T10:14:41.374Z</time>
      </trkpt>
      <trkpt lat="47.15454" lon="-1.6605">
        <ele>75.186024</ele>
        <time>2022-12-17T10:14:43.378Z</time>
      </trkpt>
      <trkpt lat="47.15443" lon="-1.66062">
        <ele>75.246172</ele>
        <time>2022-12-17T10:14:46.374Z</time>
      </trkpt>
      <trkpt lat="47.15436" lon="-1.6607">
        <ele>75.288482</ele>
        <time>2022-12-17T10:14:48.360Z</time>
      </trkpt>
      <trkpt lat="47.15426" lon="-1.66082">
        <ele>75.376185</ele>
        <time>2022-12-17T10:14:51.372Z</time>
      </trkpt>
      <trkpt lat="47.15416" lon="-1.66093">
        <ele>75.464091</ele>
        <time>2022-12-17T10:14:54.373Z</time>
      </trkpt>
      <trkpt lat="47.15406" lon="-1.66104">
        <ele>75.550219</ele>
        <time>2022-12-17T10:14:57.371Z</time>
      </trkpt>
      <trkpt lat="47.15396" lon="-1.66117">
        <ele>75.645552</ele>
        <time>2022-12-17T10:15:00.375Z</time>
      </trkpt>
      <trkpt lat="47.15389" lon="-1.66126">
        <ele>75.712096</ele>
        <time>2022-12-17T10:15:02.383Z</time>
      </trkpt>
      <trkpt lat="47.15381" lon="-1.66134">
        <ele>75.778336</ele>
        <time>2022-12-17T10:15:04.359Z</time>
      </trkpt>
      <trkpt lat="47.15374" lon="-1.66143">
        <ele>75.846478</ele>
        <time>2022-12-17T10:15:06.371Z</time>
      </trkpt>
      <trkpt lat="47.15364" lon="-1.66156">
        <ele>75.939848</ele>
        <time>2022-12-17T10:15:09.375Z</time>
      </trkpt>
      <trkpt lat="47.15354" lon="-1.66168">
        <ele>76.029589</ele>
        <time>2022-12-17T10:15:12.374Z</time>
      </trkpt>
      <trkpt lat="47.15344" lon="-1.66179">
        <ele>76.119125</ele>
        <time>2022-12-17T10:15:15.352Z</time>
      </trkpt>
      <trkpt lat="47.15336" lon="-1.6619">
        <ele>76.199582</ele>
        <time>2022-12-17T10:15:18.368Z</time>
      </trkpt>
      <trkpt lat="47.15328" lon="-1.66201">
        <ele>76.273139</ele>
        <time>2022-12-17T10:15:21.381Z</time>
      </trkpt>
      <trkpt lat="47.15321" lon="-1.66212">
        <ele>76.343402</ele>
        <time>2022-12-17T10:15:24.371Z</time>
      </trkpt>
      <trkpt lat="47.15315" lon="-1.66226">
        <ele>76.426357</ele>
        <time>2022-12-17T10:15:28.373Z</time>
      </trkpt>
      <trkpt lat="47.15309" lon="-1.66238">
        <ele>76.498564</ele>
        <time>2022-12-17T10:15:32.358Z</time>
      </trkpt>
      <trkpt lat="47.15305" lon="-1.66251">
        <ele>76.563093</ele>
        <time>2022-12-17T10:16:45.370Z</time>
      </trkpt>
      <trkpt lat="47.15297" lon="-1.66262">
        <ele>76.572408</ele>
        <time>2022-12-17T10:16:50.352Z</time>
      </trkpt>
      <trkpt lat="47.1529" lon="-1.66273">
        <ele>76.578193</ele>
        <time>2022-12-17T10:16:53.352Z</time>
      </trkpt>
      <trkpt lat="47.15283" lon="-1.66287">
        <ele>76.584986</ele>
        <time>2022-12-17T10:16:56.369Z</time>
      </trkpt>
      <trkpt lat="47.15276" lon="-1.66304">
        <ele>76.592456</ele>
        <time>2022-12-17T10:16:59.355Z</time>
      </trkpt>
      <trkpt lat="47.15271" lon="-1.66315">
        <ele>76.597657</ele>
        <time>2022-12-17T10:17:01.358Z</time>
      </trkpt>
      <trkpt lat="47.15263" lon="-1.66331">
        <ele>76.605265</ele>
        <time>2022-12-17T10:17:04.353Z</time>
      </trkpt>
      <trkpt lat="47.15255" lon="-1.66347">
        <ele>76.612721</ele>
        <time>2022-12-17T10:17:07.372Z</time>
      </trkpt>
      <trkpt lat="47.15248" lon="-1.66362">
        <ele>76.619922</ele>
        <time>2022-12-17T10:17:10.352Z</time>
      </trkpt>
      <trkpt lat="47.1524" lon="-1.66377">
        <ele>76.626964</ele>
        <time>2022-12-17T10:17:13.349Z</time>
      </trkpt>
      <trkpt lat="47.15232" lon="-1.66393">
        <ele>76.634479</ele>
        <time>2022-12-17T10:17:16.369Z</time>
      </trkpt>
      <trkpt lat="47.15225" lon="-1.66409">
        <ele>76.641837</ele>
        <time>2022-12-17T10:17:19.375Z</time>
      </trkpt>
      <trkpt lat="47.15217" lon="-1.66424">
        <ele>76.649411</ele>
        <time>2022-12-17T10:17:22.358Z</time>
      </trkpt>
      <trkpt lat="47.15209" lon="-1.6644">
        <ele>76.656962</ele>
        <time>2022-12-17T10:17:25.351Z</time>
      </trkpt>
      <trkpt lat="47.152" lon="-1.66456">
        <ele>76.66465</ele>
        <time>2022-12-17T10:17:28.362Z</time>
      </trkpt>
      <trkpt lat="47.15194" lon="-1.66469">
        <ele>76.606257</ele>
        <time>2022-12-17T10:17:31.353Z</time>
      </trkpt>
      <trkpt lat="47.15187" lon="-1.66485">
        <ele>76.476339</ele>
        <time>2022-12-17T10:17:34.352Z</time>
      </trkpt>
      <trkpt lat="47.1518" lon="-1.66498">
        <ele>76.357489</ele>
        <time>2022-12-17T10:17:37.351Z</time>
      </trkpt>
      <trkpt lat="47.15173" lon="-1.6651">
        <ele>76.249468</ele>
        <time>2022-12-17T10:17:40.352Z</time>
      </trkpt>
      <trkpt lat="47.15168" lon="-1.66522">
        <ele>76.150472</ele>
        <time>2022-12-17T10:17:43.358Z</time>
      </trkpt>
      <trkpt lat="47.15164" lon="-1.66537">
        <ele>76.032729</ele>
        <time>2022-12-17T10:17:46.354Z</time>
      </trkpt>
      <trkpt lat="47.15158" lon="-1.66554">
        <ele>75.897179</ele>
        <time>2022-12-17T10:17:49.373Z</time>
      </trkpt>
      <trkpt lat="47.15153" lon="-1.66566">
        <ele>75.796477</ele>
        <time>2022-12-17T10:17:51.373Z</time>
      </trkpt>
      <trkpt lat="47.15147" lon="-1.66577">
        <ele>75.696772</ele>
        <time>2022-12-17T10:17:53.351Z</time>
      </trkpt>
      <trkpt lat="47.1514" lon="-1.66593">
        <ele>75.560969</ele>
        <time>2022-12-17T10:17:56.351Z</time>
      </trkpt>
      <trkpt lat="47.15133" lon="-1.66609">
        <ele>75.431614</ele>
        <time>2022-12-17T10:17:59.354Z</time>
      </trkpt>
      <trkpt lat="47.15125" lon="-1.66624">
        <ele>75.29465</ele>
        <time>2022-12-17T10:18:02.356Z</time>
      </trkpt>
      <trkpt lat="47.15118" lon="-1.66641">
        <ele>75.154193</ele>
        <time>2022-12-17T10:18:05.365Z</time>
      </trkpt>
      <trkpt lat="47.15112" lon="-1.66652">
        <ele>75.057627</ele>
        <time>2022-12-17T10:18:07.362Z</time>
      </trkpt>
      <trkpt lat="47.15107" lon="-1.66664">
        <ele>74.957548</ele>
        <time>2022-12-17T10:18:09.352Z</time>
      </trkpt>
      <trkpt lat="47.15101" lon="-1.66676">
        <ele>74.855712</ele>
        <time>2022-12-17T10:18:11.351Z</time>
      </trkpt>
      <trkpt lat="47.15096" lon="-1.66687">
        <ele>74.738875</ele>
        <time>2022-12-17T10:18:13.352Z</time>
      </trkpt>
      <trkpt lat="47.15091" lon="-1.66699">
        <ele>74.595553</ele>
        <time>2022-12-17T10:18:15.352Z</time>
      </trkpt>
      <trkpt lat="47.15085" lon="-1.6671">
        <ele>74.451311</ele>
        <time>2022-12-17T10:18:17.352Z</time>
      </trkpt>
      <trkpt lat="47.1508" lon="-1.66721">
        <ele>74.313854</ele>
        <time>2022-12-17T10:18:19.352Z</time>
      </trkpt>
      <trkpt lat="47.15071" lon="-1.66734">
        <ele>74.1184</ele>
        <time>2022-12-17T10:18:22.355Z</time>
      </trkpt>
      <trkpt lat="47.15061" lon="-1.66746">
        <ele>73.933405</ele>
        <time>2022-12-17T10:18:25.359Z</time>
      </trkpt>
      <trkpt lat="47.15051" lon="-1.66754">
        <ele>73.752911</ele>
        <time>2022-12-17T10:18:28.356Z</time>
      </trkpt>
      <trkpt lat="47.15042" lon="-1.66763">
        <ele>73.58259</ele>
        <time>2022-12-17T10:18:31.353Z</time>
      </trkpt>
      <trkpt lat="47.15031" lon="-1.66773">
        <ele>73.397306</ele>
        <time>2022-12-17T10:18:34.356Z</time>
      </trkpt>
      <trkpt lat="47.15023" lon="-1.66789">
        <ele>73.1954</ele>
        <time>2022-12-17T10:18:37.353Z</time>
      </trkpt>
      <trkpt lat="47.15017" lon="-1.668">
        <ele>73.050991</ele>
        <time>2022-12-17T10:18:39.369Z</time>
      </trkpt>
      <trkpt lat="47.15012" lon="-1.6681">
        <ele>72.913532</ele>
        <time>2022-12-17T10:18:41.351Z</time>
      </trkpt>
      <trkpt lat="47.15006" lon="-1.66821">
        <ele>72.769123</ele>
        <time>2022-12-17T10:18:43.359Z</time>
      </trkpt>
      <trkpt lat="47.14999" lon="-1.66831">
        <ele>72.628521</ele>
        <time>2022-12-17T10:18:45.364Z</time>
      </trkpt>
      <trkpt lat="47.14988" lon="-1.6684">
        <ele>72.438142</ele>
        <time>2022-12-17T10:18:48.356Z</time>
      </trkpt>
      <trkpt lat="47.14977" lon="-1.66849">
        <ele>72.243196</ele>
        <time>2022-12-17T10:18:51.354Z</time>
      </trkpt>
      <trkpt lat="47.14965" lon="-1.66858">
        <ele>72.054574</ele>
        <time>2022-12-17T10:18:54.348Z</time>
      </trkpt>
      <trkpt lat="47.14954" lon="-1.66868">
        <ele>71.968046</ele>
        <time>2022-12-17T10:18:57.360Z</time>
      </trkpt>
      <trkpt lat="47.14943" lon="-1.66878">
        <ele>71.883625</ele>
        <time>2022-12-17T10:19:00.354Z</time>
      </trkpt>
      <trkpt lat="47.14935" lon="-1.66885">
        <ele>71.823104</ele>
        <time>2022-12-17T10:19:02.380Z</time>
      </trkpt>
      <trkpt lat="47.14924" lon="-1.66894">
        <ele>71.739257</ele>
        <time>2022-12-17T10:19:05.355Z</time>
      </trkpt>
      <trkpt lat="47.14912" lon="-1.669">
        <ele>71.654886</ele>
        <time>2022-12-17T10:19:08.354Z</time>
      </trkpt>
      <trkpt lat="47.14899" lon="-1.669">
        <ele>71.574934</ele>
        <time>2022-12-17T10:19:11.354Z</time>
      </trkpt>
      <trkpt lat="47.14888" lon="-1.669">
        <ele>71.498904</ele>
        <time>2022-12-17T10:19:14.370Z</time>
      </trkpt>
      <trkpt lat="47.14876" lon="-1.66902">
        <ele>71.422856</ele>
        <time>2022-12-17T10:19:17.350Z</time>
      </trkpt>
      <trkpt lat="47.14864" lon="-1.66907">
        <ele>71.340963</ele>
        <time>2022-12-17T10:19:20.353Z</time>
      </trkpt>
      <trkpt lat="47.14855" lon="-1.66911">
        <ele>71.279578</ele>
        <time>2022-12-17T10:19:22.355Z</time>
      </trkpt>
      <trkpt lat="47.14846" lon="-1.66915">
        <ele>71.218331</ele>
        <time>2022-12-17T10:19:24.353Z</time>
      </trkpt>
      <trkpt lat="47.14836" lon="-1.6692">
        <ele>71.150562</ele>
        <time>2022-12-17T10:19:26.368Z</time>
      </trkpt>
      <trkpt lat="47.14827" lon="-1.66924">
        <ele>71.086057</ele>
        <time>2022-12-17T10:19:28.355Z</time>
      </trkpt>
      <trkpt lat="47.14818" lon="-1.66927">
        <ele>71.025169</ele>
        <time>2022-12-17T10:19:30.355Z</time>
      </trkpt>
      <trkpt lat="47.14809" lon="-1.66932">
        <ele>70.962259</ele>
        <time>2022-12-17T10:19:32.359Z</time>
      </trkpt>
      <trkpt lat="47.14797" lon="-1.66938">
        <ele>70.878261</ele>
        <time>2022-12-17T10:19:35.370Z</time>
      </trkpt>
      <trkpt lat="47.14785" lon="-1.66943">
        <ele>70.789506</ele>
        <time>2022-12-17T10:19:38.353Z</time>
      </trkpt>
      <trkpt lat="47.14772" lon="-1.66948">
        <ele>70.698896</ele>
        <time>2022-12-17T10:19:41.354Z</time>
      </trkpt>
      <trkpt lat="47.14763" lon="-1.66951">
        <ele>70.632196</ele>
        <time>2022-12-17T10:19:43.358Z</time>
      </trkpt>
      <trkpt lat="47.14753" lon="-1.66955">
        <ele>70.56424</ele>
        <time>2022-12-17T10:19:45.359Z</time>
      </trkpt>
      <trkpt lat="47.14744" lon="-1.66958">
        <ele>70.499881</ele>
        <time>2022-12-17T10:19:47.358Z</time>
      </trkpt>
      <trkpt lat="47.14735" lon="-1.66962">
        <ele>70.433215</ele>
        <time>2022-12-17T10:19:49.354Z</time>
      </trkpt>
      <trkpt lat="47.14725" lon="-1.66967">
        <ele>70.362646</ele>
        <time>2022-12-17T10:19:51.360Z</time>
      </trkpt>
      <trkpt lat="47.14716" lon="-1.66971">
        <ele>70.29389</ele>
        <time>2022-12-17T10:19:53.358Z</time>
      </trkpt>
      <trkpt lat="47.14707" lon="-1.66976">
        <ele>70.226408</ele>
        <time>2022-12-17T10:19:55.354Z</time>
      </trkpt>
      <trkpt lat="47.14698" lon="-1.66979">
        <ele>70.160842</ele>
        <time>2022-12-17T10:19:57.376Z</time>
      </trkpt>
      <trkpt lat="47.14688" lon="-1.66985">
        <ele>70.087513</ele>
        <time>2022-12-17T10:19:59.357Z</time>
      </trkpt>
      <trkpt lat="47.14678" lon="-1.66989">
        <ele>70.019066</ele>
        <time>2022-12-17T10:20:01.350Z</time>
      </trkpt>
      <trkpt lat="47.14668" lon="-1.66994">
        <ele>69.945716</ele>
        <time>2022-12-17T10:20:03.356Z</time>
      </trkpt>
      <trkpt lat="47.14659" lon="-1.66999">
        <ele>69.879481</ele>
        <time>2022-12-17T10:20:05.377Z</time>
      </trkpt>
      <trkpt lat="47.14647" lon="-1.67004">
        <ele>69.791529</ele>
        <time>2022-12-17T10:20:08.355Z</time>
      </trkpt>
      <trkpt lat="47.14635" lon="-1.67009">
        <ele>69.707449</ele>
        <time>2022-12-17T10:20:11.352Z</time>
      </trkpt>
      <trkpt lat="47.14623" lon="-1.67011">
        <ele>69.599658</ele>
        <time>2022-12-17T10:20:14.353Z</time>
      </trkpt>
      <trkpt lat="47.14614" lon="-1.67006">
        <ele>69.430811</ele>
        <time>2022-12-17T10:20:17.354Z</time>
      </trkpt>
      <trkpt lat="47.14606" lon="-1.66999">
        <ele>69.282483</ele>
        <time>2022-12-17T10:20:20.355Z</time>
      </trkpt>
      <trkpt lat="47.146" lon="-1.66987">
        <ele>69.118933</ele>
        <time>2022-12-17T10:20:25.355Z</time>
      </trkpt>
      <trkpt lat="47.14595" lon="-1.66965">
        <ele>68.85248</ele>
        <time>2022-12-17T10:20:47.368Z</time>
      </trkpt>
      <trkpt lat="47.14591" lon="-1.66951">
        <ele>68.686636</ele>
        <time>2022-12-17T10:20:50.353Z</time>
      </trkpt>
      <trkpt lat="47.14587" lon="-1.66937">
        <ele>68.517538</ele>
        <time>2022-12-17T10:20:53.354Z</time>
      </trkpt>
      <trkpt lat="47.14582" lon="-1.66921">
        <ele>68.323734</ele>
        <time>2022-12-17T10:20:57.355Z</time>
      </trkpt>
      <trkpt lat="47.14573" lon="-1.66916">
        <ele>68.169781</ele>
        <time>2022-12-17T10:21:01.354Z</time>
      </trkpt>
      <trkpt lat="47.14563" lon="-1.6692">
        <ele>67.992301</ele>
        <time>2022-12-17T10:21:04.354Z</time>
      </trkpt>
      <trkpt lat="47.14551" lon="-1.66927">
        <ele>67.78333</ele>
        <time>2022-12-17T10:21:07.353Z</time>
      </trkpt>
      <trkpt lat="47.1454" lon="-1.66936">
        <ele>67.56935</ele>
        <time>2022-12-17T10:21:10.359Z</time>
      </trkpt>
      <trkpt lat="47.14528" lon="-1.66946">
        <ele>67.344489</ele>
        <time>2022-12-17T10:21:13.352Z</time>
      </trkpt>
      <trkpt lat="47.1452" lon="-1.66954">
        <ele>67.190172</ele>
        <time>2022-12-17T10:21:15.350Z</time>
      </trkpt>
      <trkpt lat="47.14513" lon="-1.66963">
        <ele>67.036132</ele>
        <time>2022-12-17T10:21:17.377Z</time>
      </trkpt>
      <trkpt lat="47.14505" lon="-1.66978">
        <ele>66.814298</ele>
        <time>2022-12-17T10:21:20.361Z</time>
      </trkpt>
      <trkpt lat="47.145" lon="-1.6699">
        <ele>66.667643</ele>
        <time>2022-12-17T10:21:22.356Z</time>
      </trkpt>
      <trkpt lat="47.14493" lon="-1.67006">
        <ele>66.61915</ele>
        <time>2022-12-17T10:21:25.357Z</time>
      </trkpt>
      <trkpt lat="47.14486" lon="-1.67022">
        <ele>66.569686</ele>
        <time>2022-12-17T10:21:28.350Z</time>
      </trkpt>
      <trkpt lat="47.14477" lon="-1.67037">
        <ele>66.520238</ele>
        <time>2022-12-17T10:21:31.352Z</time>
      </trkpt>
      <trkpt lat="47.14469" lon="-1.67046">
        <ele>66.48351</ele>
        <time>2022-12-17T10:21:33.350Z</time>
      </trkpt>
      <trkpt lat="47.14461" lon="-1.67055">
        <ele>66.445815</ele>
        <time>2022-12-17T10:21:35.353Z</time>
      </trkpt>
      <trkpt lat="47.1445" lon="-1.67065">
        <ele>66.39705</ele>
        <time>2022-12-17T10:21:38.370Z</time>
      </trkpt>
      <trkpt lat="47.14442" lon="-1.67071">
        <ele>66.362021</ele>
        <time>2022-12-17T10:21:40.359Z</time>
      </trkpt>
      <trkpt lat="47.14433" lon="-1.67078">
        <ele>66.325061</ele>
        <time>2022-12-17T10:21:42.389Z</time>
      </trkpt>
      <trkpt lat="47.14424" lon="-1.67085">
        <ele>66.28589</ele>
        <time>2022-12-17T10:21:44.353Z</time>
      </trkpt>
      <trkpt lat="47.14414" lon="-1.67091">
        <ele>66.247357</ele>
        <time>2022-12-17T10:21:46.350Z</time>
      </trkpt>
      <trkpt lat="47.14404" lon="-1.67097">
        <ele>66.20896</ele>
        <time>2022-12-17T10:21:48.352Z</time>
      </trkpt>
      <trkpt lat="47.14395" lon="-1.67104">
        <ele>66.16869</ele>
        <time>2022-12-17T10:21:50.360Z</time>
      </trkpt>
      <trkpt lat="47.14386" lon="-1.67111">
        <ele>66.130532</ele>
        <time>2022-12-17T10:21:52.365Z</time>
      </trkpt>
      <trkpt lat="47.14376" lon="-1.67117">
        <ele>66.092032</ele>
        <time>2022-12-17T10:21:54.362Z</time>
      </trkpt>
      <trkpt lat="47.14367" lon="-1.67124">
        <ele>66.052644</ele>
        <time>2022-12-17T10:21:56.356Z</time>
      </trkpt>
      <trkpt lat="47.14358" lon="-1.67131">
        <ele>66.015437</ele>
        <time>2022-12-17T10:21:58.359Z</time>
      </trkpt>
      <trkpt lat="47.14349" lon="-1.67138">
        <ele>65.914708</ele>
        <time>2022-12-17T10:22:00.360Z</time>
      </trkpt>
      <trkpt lat="47.1434" lon="-1.67144">
        <ele>65.778349</ele>
        <time>2022-12-17T10:22:02.366Z</time>
      </trkpt>
      <trkpt lat="47.14332" lon="-1.67151">
        <ele>65.641553</ele>
        <time>2022-12-17T10:22:04.354Z</time>
      </trkpt>
      <trkpt lat="47.14323" lon="-1.67157">
        <ele>65.500983</ele>
        <time>2022-12-17T10:22:06.356Z</time>
      </trkpt>
      <trkpt lat="47.14313" lon="-1.67164">
        <ele>65.357885</ele>
        <time>2022-12-17T10:22:08.360Z</time>
      </trkpt>
      <trkpt lat="47.14304" lon="-1.6717">
        <ele>65.218045</ele>
        <time>2022-12-17T10:22:10.371Z</time>
      </trkpt>
      <trkpt lat="47.14295" lon="-1.67175">
        <ele>65.077671</ele>
        <time>2022-12-17T10:22:12.359Z</time>
      </trkpt>
      <trkpt lat="47.14286" lon="-1.67181">
        <ele>64.942462</ele>
        <time>2022-12-17T10:22:14.361Z</time>
      </trkpt>
      <trkpt lat="47.14277" lon="-1.67188">
        <ele>64.80099</ele>
        <time>2022-12-17T10:22:16.357Z</time>
      </trkpt>
      <trkpt lat="47.14268" lon="-1.67194">
        <ele>64.658289</ele>
        <time>2022-12-17T10:22:18.361Z</time>
      </trkpt>
      <trkpt lat="47.1426" lon="-1.67201">
        <ele>64.527753</ele>
        <time>2022-12-17T10:22:20.362Z</time>
      </trkpt>
      <trkpt lat="47.1425" lon="-1.67209">
        <ele>64.363513</ele>
        <time>2022-12-17T10:22:23.360Z</time>
      </trkpt>
      <trkpt lat="47.14239" lon="-1.67215">
        <ele>64.204619</ele>
        <time>2022-12-17T10:22:26.355Z</time>
      </trkpt>
      <trkpt lat="47.14229" lon="-1.67222">
        <ele>64.044258</ele>
        <time>2022-12-17T10:22:29.362Z</time>
      </trkpt>
      <trkpt lat="47.14219" lon="-1.67229">
        <ele>63.883032</ele>
        <time>2022-12-17T10:22:32.403Z</time>
      </trkpt>
      <trkpt lat="47.1421" lon="-1.67239">
        <ele>63.736322</ele>
        <time>2022-12-17T10:22:35.373Z</time>
      </trkpt>
      <trkpt lat="47.1421" lon="-1.67252">
        <ele>63.603386</ele>
        <time>2022-12-17T10:22:38.368Z</time>
      </trkpt>
      <trkpt lat="47.14217" lon="-1.67268">
        <ele>63.485372</ele>
        <time>2022-12-17T10:22:41.354Z</time>
      </trkpt>
      <trkpt lat="47.14224" lon="-1.67285">
        <ele>63.546463</ele>
        <time>2022-12-17T10:22:44.366Z</time>
      </trkpt>
      <trkpt lat="47.14229" lon="-1.67297">
        <ele>63.588459</ele>
        <time>2022-12-17T10:22:46.353Z</time>
      </trkpt>
      <trkpt lat="47.14233" lon="-1.67308">
        <ele>63.629984</ele>
        <time>2022-12-17T10:22:48.360Z</time>
      </trkpt>
      <trkpt lat="47.14238" lon="-1.67321">
        <ele>63.674025</ele>
        <time>2022-12-17T10:22:50.370Z</time>
      </trkpt>
      <trkpt lat="47.14244" lon="-1.67333">
        <ele>63.717283</ele>
        <time>2022-12-17T10:22:52.373Z</time>
      </trkpt>
      <trkpt lat="47.14249" lon="-1.67345">
        <ele>63.7608</ele>
        <time>2022-12-17T10:22:54.361Z</time>
      </trkpt>
      <trkpt lat="47.14253" lon="-1.67357">
        <ele>63.802651</ele>
        <time>2022-12-17T10:22:56.361Z</time>
      </trkpt>
      <trkpt lat="47.14257" lon="-1.67368">
        <ele>63.843947</ele>
        <time>2022-12-17T10:22:58.370Z</time>
      </trkpt>
      <trkpt lat="47.14262" lon="-1.6738">
        <ele>63.886169</ele>
        <time>2022-12-17T10:23:00.361Z</time>
      </trkpt>
      <trkpt lat="47.14267" lon="-1.67391">
        <ele>63.927694</ele>
        <time>2022-12-17T10:23:02.365Z</time>
      </trkpt>
      <trkpt lat="47.14272" lon="-1.67404">
        <ele>63.971799</ele>
        <time>2022-12-17T10:23:04.360Z</time>
      </trkpt>
      <trkpt lat="47.14277" lon="-1.67416">
        <ele>64.014295</ele>
        <time>2022-12-17T10:23:06.357Z</time>
      </trkpt>
      <trkpt lat="47.14281" lon="-1.67428">
        <ele>64.056764</ele>
        <time>2022-12-17T10:23:08.356Z</time>
      </trkpt>
      <trkpt lat="47.14285" lon="-1.67441">
        <ele>64.100846</ele>
        <time>2022-12-17T10:23:10.369Z</time>
      </trkpt>
      <trkpt lat="47.14289" lon="-1.67454">
        <ele>64.144</ele>
        <time>2022-12-17T10:23:12.353Z</time>
      </trkpt>
      <trkpt lat="47.14294" lon="-1.67467">
        <ele>64.189189</ele>
        <time>2022-12-17T10:23:14.355Z</time>
      </trkpt>
      <trkpt lat="47.14298" lon="-1.6748">
        <ele>64.233818</ele>
        <time>2022-12-17T10:23:16.362Z</time>
      </trkpt>
      <trkpt lat="47.14302" lon="-1.67493">
        <ele>64.277419</ele>
        <time>2022-12-17T10:23:18.355Z</time>
      </trkpt>
      <trkpt lat="47.14304" lon="-1.67507">
        <ele>64.183047</ele>
        <time>2022-12-17T10:23:20.356Z</time>
      </trkpt>
      <trkpt lat="47.14306" lon="-1.67521">
        <ele>64.07151</ele>
        <time>2022-12-17T10:23:22.381Z</time>
      </trkpt>
      <trkpt lat="47.14308" lon="-1.67535">
        <ele>63.950902</ele>
        <time>2022-12-17T10:23:24.360Z</time>
      </trkpt>
      <trkpt lat="47.1431" lon="-1.67549">
        <ele>63.83296</ele>
        <time>2022-12-17T10:23:26.359Z</time>
      </trkpt>
      <trkpt lat="47.14313" lon="-1.67564">
        <ele>63.709709</ele>
        <time>2022-12-17T10:23:28.371Z</time>
      </trkpt>
      <trkpt lat="47.14314" lon="-1.67579">
        <ele>63.586701</ele>
        <time>2022-12-17T10:23:30.373Z</time>
      </trkpt>
      <trkpt lat="47.14314" lon="-1.67592">
        <ele>63.472855</ele>
        <time>2022-12-17T10:23:32.352Z</time>
      </trkpt>
      <trkpt lat="47.14315" lon="-1.67607">
        <ele>63.355142</ele>
        <time>2022-12-17T10:23:34.353Z</time>
      </trkpt>
      <trkpt lat="47.14317" lon="-1.6762">
        <ele>63.24251</ele>
        <time>2022-12-17T10:23:36.359Z</time>
      </trkpt>
      <trkpt lat="47.14317" lon="-1.67634">
        <ele>63.126952</ele>
        <time>2022-12-17T10:23:38.358Z</time>
      </trkpt>
      <trkpt lat="47.14318" lon="-1.67648">
        <ele>63.012364</ele>
        <time>2022-12-17T10:23:40.349Z</time>
      </trkpt>
      <trkpt lat="47.1432" lon="-1.67662">
        <ele>62.895224</ele>
        <time>2022-12-17T10:23:42.375Z</time>
      </trkpt>
      <trkpt lat="47.14323" lon="-1.67676">
        <ele>62.781551</ele>
        <time>2022-12-17T10:23:44.367Z</time>
      </trkpt>
      <trkpt lat="47.14326" lon="-1.67689">
        <ele>62.663323</ele>
        <time>2022-12-17T10:23:46.366Z</time>
      </trkpt>
      <trkpt lat="47.14329" lon="-1.67703">
        <ele>62.541596</ele>
        <time>2022-12-17T10:23:48.358Z</time>
      </trkpt>
      <trkpt lat="47.14332" lon="-1.67716">
        <ele>62.431879</ele>
        <time>2022-12-17T10:23:50.373Z</time>
      </trkpt>
      <trkpt lat="47.14337" lon="-1.67732">
        <ele>62.285682</ele>
        <time>2022-12-17T10:23:53.361Z</time>
      </trkpt>
      <trkpt lat="47.14342" lon="-1.67748">
        <ele>62.142987</ele>
        <time>2022-12-17T10:23:56.354Z</time>
      </trkpt>
      <trkpt lat="47.14346" lon="-1.67765">
        <ele>62.09018</ele>
        <time>2022-12-17T10:23:59.370Z</time>
      </trkpt>
      <trkpt lat="47.1435" lon="-1.6778">
        <ele>62.056305</ele>
        <time>2022-12-17T10:24:02.366Z</time>
      </trkpt>
      <trkpt lat="47.14355" lon="-1.67797">
        <ele>62.020665</ele>
        <time>2022-12-17T10:24:05.368Z</time>
      </trkpt>
      <trkpt lat="47.1436" lon="-1.67814">
        <ele>61.983624</ele>
        <time>2022-12-17T10:24:08.365Z</time>
      </trkpt>
      <trkpt lat="47.14363" lon="-1.67831">
        <ele>61.948282</ele>
        <time>2022-12-17T10:24:11.355Z</time>
      </trkpt>
      <trkpt lat="47.14369" lon="-1.67846">
        <ele>61.914344</ele>
        <time>2022-12-17T10:24:14.357Z</time>
      </trkpt>
      <trkpt lat="47.14377" lon="-1.67859">
        <ele>61.879121</ele>
        <time>2022-12-17T10:24:17.356Z</time>
      </trkpt>
      <trkpt lat="47.1438" lon="-1.67876">
        <ele>61.844851</ele>
        <time>2022-12-17T10:24:20.361Z</time>
      </trkpt>
      <trkpt lat="47.14376" lon="-1.67892">
        <ele>61.808974</ele>
        <time>2022-12-17T10:24:23.362Z</time>
      </trkpt>
      <trkpt lat="47.14366" lon="-1.67902">
        <ele>61.774102</ele>
        <time>2022-12-17T10:24:26.370Z</time>
      </trkpt>
      <trkpt lat="47.14354" lon="-1.67901">
        <ele>61.739733</ele>
        <time>2022-12-17T10:24:29.356Z</time>
      </trkpt>
      <trkpt lat="47.14343" lon="-1.67895">
        <ele>61.70502</ele>
        <time>2022-12-17T10:24:32.360Z</time>
      </trkpt>
      <trkpt lat="47.14331" lon="-1.67896">
        <ele>61.669913</ele>
        <time>2022-12-17T10:24:35.373Z</time>
      </trkpt>
      <trkpt lat="47.1432" lon="-1.67904">
        <ele>61.633508</ele>
        <time>2022-12-17T10:24:38.354Z</time>
      </trkpt>
      <trkpt lat="47.1431" lon="-1.67914">
        <ele>61.599002</ele>
        <time>2022-12-17T10:24:41.361Z</time>
      </trkpt>
      <trkpt lat="47.14303" lon="-1.67924">
        <ele>61.568151</ele>
        <time>2022-12-17T10:24:45.355Z</time>
      </trkpt>
      <trkpt lat="47.14298" lon="-1.67939">
        <ele>61.532573</ele>
        <time>2022-12-17T10:24:50.361Z</time>
      </trkpt>
      <trkpt lat="47.14298" lon="-1.67954">
        <ele>61.500736</ele>
        <time>2022-12-17T10:24:54.371Z</time>
      </trkpt>
      <trkpt lat="47.14299" lon="-1.67961">
        <ele>61.486025</ele>
        <time>2022-12-17T10:25:16.653Z</time>
      </trkpt>
      <trkpt lat="47.14293" lon="-1.67942">
        <ele>61.442394</ele>
        <time>2022-12-17T11:00:38.416Z</time>
      </trkpt>
      <trkpt lat="47.14296" lon="-1.6793">
        <ele>61.414039</ele>
        <time>2022-12-17T11:00:42.369Z</time>
      </trkpt>
      <trkpt lat="47.14301" lon="-1.67919">
        <ele>61.385837</ele>
        <time>2022-12-17T11:00:47.369Z</time>
      </trkpt>
      <trkpt lat="47.14309" lon="-1.67908">
        <ele>61.35152</ele>
        <time>2022-12-17T11:00:53.369Z</time>
      </trkpt>
      <trkpt lat="47.14317" lon="-1.67898">
        <ele>61.317889</ele>
        <time>2022-12-17T11:00:58.374Z</time>
      </trkpt>
      <trkpt lat="47.14326" lon="-1.67889">
        <ele>61.284177</ele>
        <time>2022-12-17T11:01:03.374Z</time>
      </trkpt>
      <trkpt lat="47.14335" lon="-1.67883">
        <ele>61.253686</ele>
        <time>2022-12-17T11:01:08.368Z</time>
      </trkpt>
      <trkpt lat="47.1434" lon="-1.6787">
        <ele>61.222004</ele>
        <time>2022-12-17T11:01:14.364Z</time>
      </trkpt>
      <trkpt lat="47.14343" lon="-1.67858">
        <ele>61.192818</ele>
        <time>2022-12-17T11:01:18.366Z</time>
      </trkpt>
      <trkpt lat="47.1435" lon="-1.67848">
        <ele>61.164184</ele>
        <time>2022-12-17T11:01:22.379Z</time>
      </trkpt>
      <trkpt lat="47.1436" lon="-1.67843">
        <ele>61.129003</ele>
        <time>2022-12-17T11:01:27.368Z</time>
      </trkpt>
      <trkpt lat="47.1437" lon="-1.67849">
        <ele>61.097296</ele>
        <time>2022-12-17T11:01:31.368Z</time>
      </trkpt>
      <trkpt lat="47.14377" lon="-1.67857">
        <ele>61.06709</ele>
        <time>2022-12-17T11:01:35.367Z</time>
      </trkpt>
      <trkpt lat="47.14381" lon="-1.6787">
        <ele>61.038162</ele>
        <time>2022-12-17T11:01:39.372Z</time>
      </trkpt>
      <trkpt lat="47.14379" lon="-1.67886">
        <ele>61.024665</ele>
        <time>2022-12-17T11:01:44.366Z</time>
      </trkpt>
      <trkpt lat="47.14373" lon="-1.67897">
        <ele>61.018765</ele>
        <time>2022-12-17T11:01:48.379Z</time>
      </trkpt>
      <trkpt lat="47.14364" lon="-1.67904">
        <ele>61.013337</ele>
        <time>2022-12-17T11:01:51.371Z</time>
      </trkpt>
      <trkpt lat="47.14354" lon="-1.67904">
        <ele>61.007406</ele>
        <time>2022-12-17T11:01:54.376Z</time>
      </trkpt>
      <trkpt lat="47.14345" lon="-1.67896">
        <ele>61.001312</ele>
        <time>2022-12-17T11:01:57.372Z</time>
      </trkpt>
      <trkpt lat="47.1434" lon="-1.67883">
        <ele>60.995373</ele>
        <time>2022-12-17T11:02:00.387Z</time>
      </trkpt>
      <trkpt lat="47.14338" lon="-1.67868">
        <ele>60.98942</ele>
        <time>2022-12-17T11:02:03.363Z</time>
      </trkpt>
      <trkpt lat="47.1434" lon="-1.67855">
        <ele>60.984174</ele>
        <time>2022-12-17T11:02:06.362Z</time>
      </trkpt>
      <trkpt lat="47.14343" lon="-1.67838">
        <ele>60.977185</ele>
        <time>2022-12-17T11:02:10.367Z</time>
      </trkpt>
      <trkpt lat="47.14344" lon="-1.67823">
        <ele>60.971489</ele>
        <time>2022-12-17T11:02:13.382Z</time>
      </trkpt>
      <trkpt lat="47.14343" lon="-1.67808">
        <ele>60.965606</ele>
        <time>2022-12-17T11:02:16.372Z</time>
      </trkpt>
      <trkpt lat="47.14343" lon="-1.67793">
        <ele>60.959605</ele>
        <time>2022-12-17T11:02:19.375Z</time>
      </trkpt>
      <trkpt lat="47.14341" lon="-1.67777">
        <ele>60.95334</ele>
        <time>2022-12-17T11:02:23.364Z</time>
      </trkpt>
      <trkpt lat="47.14337" lon="-1.67762">
        <ele>60.946945</ele>
        <time>2022-12-17T11:02:27.373Z</time>
      </trkpt>
      <trkpt lat="47.14334" lon="-1.67749">
        <ele>60.94144</ele>
        <time>2022-12-17T11:02:30.363Z</time>
      </trkpt>
      <trkpt lat="47.14331" lon="-1.67734">
        <ele>60.935355</ele>
        <time>2022-12-17T11:02:33.377Z</time>
      </trkpt>
      <trkpt lat="47.14328" lon="-1.67719">
        <ele>60.929498</ele>
        <time>2022-12-17T11:02:36.367Z</time>
      </trkpt>
      <trkpt lat="47.14323" lon="-1.67706">
        <ele>60.905832</ele>
        <time>2022-12-17T11:02:39.374Z</time>
      </trkpt>
      <trkpt lat="47.14318" lon="-1.67691">
        <ele>60.852952</ele>
        <time>2022-12-17T11:02:42.369Z</time>
      </trkpt>
      <trkpt lat="47.14314" lon="-1.67675">
        <ele>60.79873</ele>
        <time>2022-12-17T11:02:45.374Z</time>
      </trkpt>
      <trkpt lat="47.14312" lon="-1.67658">
        <ele>60.740882</ele>
        <time>2022-12-17T11:02:48.366Z</time>
      </trkpt>
      <trkpt lat="47.14311" lon="-1.67644">
        <ele>60.698034</ele>
        <time>2022-12-17T11:02:50.374Z</time>
      </trkpt>
      <trkpt lat="47.1431" lon="-1.67631">
        <ele>60.653831</ele>
        <time>2022-12-17T11:02:52.366Z</time>
      </trkpt>
      <trkpt lat="47.14309" lon="-1.67616">
        <ele>60.608056</ele>
        <time>2022-12-17T11:02:54.369Z</time>
      </trkpt>
      <trkpt lat="47.14308" lon="-1.67603">
        <ele>60.564093</ele>
        <time>2022-12-17T11:02:56.364Z</time>
      </trkpt>
      <trkpt lat="47.14307" lon="-1.67583">
        <ele>60.501138</ele>
        <time>2022-12-17T11:02:59.370Z</time>
      </trkpt>
      <trkpt lat="47.14305" lon="-1.67565">
        <ele>60.439996</ele>
        <time>2022-12-17T11:03:02.366Z</time>
      </trkpt>
      <trkpt lat="47.14303" lon="-1.67546">
        <ele>60.378303</ele>
        <time>2022-12-17T11:03:05.362Z</time>
      </trkpt>
      <trkpt lat="47.143" lon="-1.67526">
        <ele>60.314276</ele>
        <time>2022-12-17T11:03:08.366Z</time>
      </trkpt>
      <trkpt lat="47.14298" lon="-1.67513">
        <ele>60.271368</ele>
        <time>2022-12-17T11:03:10.375Z</time>
      </trkpt>
      <trkpt lat="47.14294" lon="-1.67495">
        <ele>60.208759</ele>
        <time>2022-12-17T11:03:13.371Z</time>
      </trkpt>
      <trkpt lat="47.14289" lon="-1.67477">
        <ele>60.147025</ele>
        <time>2022-12-17T11:03:16.375Z</time>
      </trkpt>
      <trkpt lat="47.14284" lon="-1.6746">
        <ele>60.087729</ele>
        <time>2022-12-17T11:03:19.366Z</time>
      </trkpt>
      <trkpt lat="47.14279" lon="-1.67444">
        <ele>59.840965</ele>
        <time>2022-12-17T11:03:22.368Z</time>
      </trkpt>
      <trkpt lat="47.14273" lon="-1.67427">
        <ele>59.546597</ele>
        <time>2022-12-17T11:03:25.379Z</time>
      </trkpt>
      <trkpt lat="47.14267" lon="-1.67412">
        <ele>59.255612</ele>
        <time>2022-12-17T11:03:28.377Z</time>
      </trkpt>
      <trkpt lat="47.14261" lon="-1.67398">
        <ele>58.978303</ele>
        <time>2022-12-17T11:03:31.382Z</time>
      </trkpt>
      <trkpt lat="47.14255" lon="-1.67384">
        <ele>58.714644</ele>
        <time>2022-12-17T11:03:34.385Z</time>
      </trkpt>
      <trkpt lat="47.1425" lon="-1.67369">
        <ele>58.438576</ele>
        <time>2022-12-17T11:03:37.379Z</time>
      </trkpt>
      <trkpt lat="47.14244" lon="-1.67354">
        <ele>58.153815</ele>
        <time>2022-12-17T11:03:40.372Z</time>
      </trkpt>
      <trkpt lat="47.14238" lon="-1.67338">
        <ele>57.856447</ele>
        <time>2022-12-17T11:03:43.381Z</time>
      </trkpt>
      <trkpt lat="47.14232" lon="-1.67323">
        <ele>57.568242</ele>
        <time>2022-12-17T11:03:46.378Z</time>
      </trkpt>
      <trkpt lat="47.14225" lon="-1.67308">
        <ele>57.272367</ele>
        <time>2022-12-17T11:03:49.367Z</time>
      </trkpt>
      <trkpt lat="47.14218" lon="-1.67293">
        <ele>56.975144</ele>
        <time>2022-12-17T11:03:52.388Z</time>
      </trkpt>
      <trkpt lat="47.14214" lon="-1.6728">
        <ele>56.73643</ele>
        <time>2022-12-17T11:03:55.370Z</time>
      </trkpt>
      <trkpt lat="47.14209" lon="-1.67266">
        <ele>56.476069</ele>
        <time>2022-12-17T11:03:58.368Z</time>
      </trkpt>
      <trkpt lat="47.14203" lon="-1.67254">
        <ele>56.242253</ele>
        <time>2022-12-17T11:04:01.379Z</time>
      </trkpt>
      <trkpt lat="47.14194" lon="-1.67247">
        <ele>55.986118</ele>
        <time>2022-12-17T11:04:04.364Z</time>
      </trkpt>
      <trkpt lat="47.14181" lon="-1.67247">
        <ele>55.728299</ele>
        <time>2022-12-17T11:04:07.364Z</time>
      </trkpt>
      <trkpt lat="47.14169" lon="-1.67248">
        <ele>55.600677</ele>
        <time>2022-12-17T11:04:10.362Z</time>
      </trkpt>
      <trkpt lat="47.14156" lon="-1.67249">
        <ele>55.466147</ele>
        <time>2022-12-17T11:04:13.376Z</time>
      </trkpt>
      <trkpt lat="47.14146" lon="-1.67253">
        <ele>55.359914</ele>
        <time>2022-12-17T11:04:15.365Z</time>
      </trkpt>
      <trkpt lat="47.14137" lon="-1.67255">
        <ele>55.268509</ele>
        <time>2022-12-17T11:04:17.362Z</time>
      </trkpt>
      <trkpt lat="47.14128" lon="-1.67255">
        <ele>55.173148</ele>
        <time>2022-12-17T11:04:19.364Z</time>
      </trkpt>
      <trkpt lat="47.14118" lon="-1.67256">
        <ele>55.078319</ele>
        <time>2022-12-17T11:04:21.365Z</time>
      </trkpt>
      <trkpt lat="47.14108" lon="-1.67257">
        <ele>54.975599</ele>
        <time>2022-12-17T11:04:23.370Z</time>
      </trkpt>
      <trkpt lat="47.14099" lon="-1.6726">
        <ele>54.875984</ele>
        <time>2022-12-17T11:04:25.366Z</time>
      </trkpt>
      <trkpt lat="47.14088" lon="-1.6726">
        <ele>54.76831</ele>
        <time>2022-12-17T11:04:27.368Z</time>
      </trkpt>
      <trkpt lat="47.14078" lon="-1.67262">
        <ele>54.663062</ele>
        <time>2022-12-17T11:04:29.370Z</time>
      </trkpt>
      <trkpt lat="47.14068" lon="-1.67262">
        <ele>54.556288</ele>
        <time>2022-12-17T11:04:31.368Z</time>
      </trkpt>
      <trkpt lat="47.14057" lon="-1.67264">
        <ele>54.448658</ele>
        <time>2022-12-17T11:04:33.370Z</time>
      </trkpt>
      <trkpt lat="47.14047" lon="-1.67265">
        <ele>54.337788</ele>
        <time>2022-12-17T11:04:35.364Z</time>
      </trkpt>
      <trkpt lat="47.14036" lon="-1.67267">
        <ele>54.227368</ele>
        <time>2022-12-17T11:04:37.358Z</time>
      </trkpt>
      <trkpt lat="47.14025" lon="-1.67269">
        <ele>54.1105</ele>
        <time>2022-12-17T11:04:39.366Z</time>
      </trkpt>
      <trkpt lat="47.14013" lon="-1.6727">
        <ele>53.995616</ele>
        <time>2022-12-17T11:04:41.363Z</time>
      </trkpt>
      <trkpt lat="47.14002" lon="-1.67272">
        <ele>53.895332</ele>
        <time>2022-12-17T11:04:43.391Z</time>
      </trkpt>
      <trkpt lat="47.13991" lon="-1.67273">
        <ele>53.838391</ele>
        <time>2022-12-17T11:04:45.368Z</time>
      </trkpt>
      <trkpt lat="47.1398" lon="-1.67274">
        <ele>53.78167</ele>
        <time>2022-12-17T11:04:47.367Z</time>
      </trkpt>
      <trkpt lat="47.13969" lon="-1.67274">
        <ele>53.723942</ele>
        <time>2022-12-17T11:04:49.374Z</time>
      </trkpt>
      <trkpt lat="47.13957" lon="-1.67276">
        <ele>53.664821</ele>
        <time>2022-12-17T11:04:51.369Z</time>
      </trkpt>
      <trkpt lat="47.13946" lon="-1.67278">
        <ele>53.605339</ele>
        <time>2022-12-17T11:04:53.368Z</time>
      </trkpt>
      <trkpt lat="47.13934" lon="-1.6728">
        <ele>53.546296</ele>
        <time>2022-12-17T11:04:55.364Z</time>
      </trkpt>
      <trkpt lat="47.13923" lon="-1.67282">
        <ele>53.489114</ele>
        <time>2022-12-17T11:04:57.370Z</time>
      </trkpt>
      <trkpt lat="47.13912" lon="-1.67286">
        <ele>53.430103</ele>
        <time>2022-12-17T11:04:59.380Z</time>
      </trkpt>
      <trkpt lat="47.13901" lon="-1.6729">
        <ele>53.375971</ele>
        <time>2022-12-17T11:05:01.370Z</time>
      </trkpt>
      <trkpt lat="47.13891" lon="-1.67292">
        <ele>53.321773</ele>
        <time>2022-12-17T11:05:03.365Z</time>
      </trkpt>
      <trkpt lat="47.13881" lon="-1.67296">
        <ele>53.268715</ele>
        <time>2022-12-17T11:05:05.374Z</time>
      </trkpt>
      <trkpt lat="47.1387" lon="-1.67297">
        <ele>53.213332</ele>
        <time>2022-12-17T11:05:07.373Z</time>
      </trkpt>
      <trkpt lat="47.1386" lon="-1.67301">
        <ele>53.163077</ele>
        <time>2022-12-17T11:05:09.381Z</time>
      </trkpt>
      <trkpt lat="47.13851" lon="-1.67303">
        <ele>53.113303</ele>
        <time>2022-12-17T11:05:11.374Z</time>
      </trkpt>
      <trkpt lat="47.13842" lon="-1.67305">
        <ele>53.065716</ele>
        <time>2022-12-17T11:05:13.367Z</time>
      </trkpt>
      <trkpt lat="47.1383" lon="-1.67308">
        <ele>53.005524</ele>
        <time>2022-12-17T11:05:16.381Z</time>
      </trkpt>
      <trkpt lat="47.13819" lon="-1.67312">
        <ele>53.072797</ele>
        <time>2022-12-17T11:05:19.371Z</time>
      </trkpt>
      <trkpt lat="47.13809" lon="-1.67315">
        <ele>53.177938</ele>
        <time>2022-12-17T11:05:22.371Z</time>
      </trkpt>
      <trkpt lat="47.13798" lon="-1.6732">
        <ele>53.287535</ele>
        <time>2022-12-17T11:05:25.374Z</time>
      </trkpt>
      <trkpt lat="47.13791" lon="-1.67334">
        <ele>53.398413</ele>
        <time>2022-12-17T11:05:28.371Z</time>
      </trkpt>
      <trkpt lat="47.13789" lon="-1.67353">
        <ele>53.52819</ele>
        <time>2022-12-17T11:05:31.368Z</time>
      </trkpt>
      <trkpt lat="47.13788" lon="-1.67367">
        <ele>53.618627</ele>
        <time>2022-12-17T11:05:33.370Z</time>
      </trkpt>
      <trkpt lat="47.13785" lon="-1.67386">
        <ele>53.747816</ele>
        <time>2022-12-17T11:05:36.385Z</time>
      </trkpt>
      <trkpt lat="47.13783" lon="-1.67405">
        <ele>53.871912</ele>
        <time>2022-12-17T11:05:39.365Z</time>
      </trkpt>
      <trkpt lat="47.13782" lon="-1.67418">
        <ele>53.95837</ele>
        <time>2022-12-17T11:05:41.371Z</time>
      </trkpt>
      <trkpt lat="47.1378" lon="-1.67438">
        <ele>54.086602</ele>
        <time>2022-12-17T11:05:44.385Z</time>
      </trkpt>
      <trkpt lat="47.13778" lon="-1.67457">
        <ele>54.21249</ele>
        <time>2022-12-17T11:05:47.371Z</time>
      </trkpt>
      <trkpt lat="47.13778" lon="-1.67475">
        <ele>54.334835</ele>
        <time>2022-12-17T11:05:50.362Z</time>
      </trkpt>
      <trkpt lat="47.13778" lon="-1.67495">
        <ele>54.460346</ele>
        <time>2022-12-17T11:05:53.366Z</time>
      </trkpt>
      <trkpt lat="47.13778" lon="-1.67514">
        <ele>54.585827</ele>
        <time>2022-12-17T11:05:56.364Z</time>
      </trkpt>
      <trkpt lat="47.13779" lon="-1.67533">
        <ele>54.708579</ele>
        <time>2022-12-17T11:05:59.365Z</time>
      </trkpt>
      <trkpt lat="47.13781" lon="-1.6755">
        <ele>54.813167</ele>
        <time>2022-12-17T11:06:02.367Z</time>
      </trkpt>
      <trkpt lat="47.13781" lon="-1.67566">
        <ele>54.907676</ele>
        <time>2022-12-17T11:06:05.376Z</time>
      </trkpt>
      <trkpt lat="47.13783" lon="-1.67583">
        <ele>55.00434</ele>
        <time>2022-12-17T11:06:08.366Z</time>
      </trkpt>
      <trkpt lat="47.13784" lon="-1.676">
        <ele>55.103817</ele>
        <time>2022-12-17T11:06:11.373Z</time>
      </trkpt>
      <trkpt lat="47.13785" lon="-1.67618">
        <ele>55.20844</ele>
        <time>2022-12-17T11:06:14.367Z</time>
      </trkpt>
      <trkpt lat="47.13786" lon="-1.67636">
        <ele>55.312415</ele>
        <time>2022-12-17T11:06:17.374Z</time>
      </trkpt>
      <trkpt lat="47.13787" lon="-1.67654">
        <ele>55.418272</ele>
        <time>2022-12-17T11:06:20.364Z</time>
      </trkpt>
      <trkpt lat="47.13788" lon="-1.6767">
        <ele>55.516095</ele>
        <time>2022-12-17T11:06:23.369Z</time>
      </trkpt>
      <trkpt lat="47.13789" lon="-1.67686">
        <ele>55.606212</ele>
        <time>2022-12-17T11:06:26.373Z</time>
      </trkpt>
      <trkpt lat="47.1379" lon="-1.67702">
        <ele>55.700139</ele>
        <time>2022-12-17T11:06:29.376Z</time>
      </trkpt>
      <trkpt lat="47.1379" lon="-1.67719">
        <ele>55.799931</ele>
        <time>2022-12-17T11:06:32.368Z</time>
      </trkpt>
      <trkpt lat="47.13792" lon="-1.67737">
        <ele>55.90489</ele>
        <time>2022-12-17T11:06:35.376Z</time>
      </trkpt>
      <trkpt lat="47.13793" lon="-1.67754">
        <ele>56.006017</ele>
        <time>2022-12-17T11:06:38.388Z</time>
      </trkpt>
      <trkpt lat="47.13794" lon="-1.67771">
        <ele>56.106737</ele>
        <time>2022-12-17T11:06:41.377Z</time>
      </trkpt>
      <trkpt lat="47.13795" lon="-1.67788">
        <ele>56.206716</ele>
        <time>2022-12-17T11:06:44.383Z</time>
      </trkpt>
      <trkpt lat="47.13796" lon="-1.67806">
        <ele>56.20288</ele>
        <time>2022-12-17T11:06:47.372Z</time>
      </trkpt>
      <trkpt lat="47.13798" lon="-1.67824">
        <ele>56.071782</ele>
        <time>2022-12-17T11:06:50.376Z</time>
      </trkpt>
      <trkpt lat="47.13799" lon="-1.67843">
        <ele>55.937634</ele>
        <time>2022-12-17T11:06:53.380Z</time>
      </trkpt>
      <trkpt lat="47.13799" lon="-1.67856">
        <ele>55.8439</ele>
        <time>2022-12-17T11:06:55.392Z</time>
      </trkpt>
      <trkpt lat="47.138" lon="-1.6787">
        <ele>55.747725</ele>
        <time>2022-12-17T11:06:57.373Z</time>
      </trkpt>
      <trkpt lat="47.13801" lon="-1.67884">
        <ele>55.645803</ele>
        <time>2022-12-17T11:06:59.364Z</time>
      </trkpt>
      <trkpt lat="47.13802" lon="-1.67898">
        <ele>55.542108</ele>
        <time>2022-12-17T11:07:01.372Z</time>
      </trkpt>
      <trkpt lat="47.13803" lon="-1.67912">
        <ele>55.445826</ele>
        <time>2022-12-17T11:07:03.370Z</time>
      </trkpt>
      <trkpt lat="47.13805" lon="-1.67925">
        <ele>55.350241</ele>
        <time>2022-12-17T11:07:05.370Z</time>
      </trkpt>
      <trkpt lat="47.13806" lon="-1.67939">
        <ele>55.250538</ele>
        <time>2022-12-17T11:07:07.394Z</time>
      </trkpt>
      <trkpt lat="47.13807" lon="-1.67952">
        <ele>55.155272</ele>
        <time>2022-12-17T11:07:09.384Z</time>
      </trkpt>
      <trkpt lat="47.13809" lon="-1.67966">
        <ele>55.054442</ele>
        <time>2022-12-17T11:07:11.373Z</time>
      </trkpt>
      <trkpt lat="47.1381" lon="-1.6798">
        <ele>54.958746</ele>
        <time>2022-12-17T11:07:13.379Z</time>
      </trkpt>
      <trkpt lat="47.13813" lon="-1.67993">
        <ele>54.861313</ele>
        <time>2022-12-17T11:07:15.386Z</time>
      </trkpt>
      <trkpt lat="47.13817" lon="-1.6801">
        <ele>54.732762</ele>
        <time>2022-12-17T11:07:18.370Z</time>
      </trkpt>
      <trkpt lat="47.13821" lon="-1.68027">
        <ele>54.606563</ele>
        <time>2022-12-17T11:07:21.370Z</time>
      </trkpt>
      <trkpt lat="47.13826" lon="-1.68042">
        <ele>54.482378</ele>
        <time>2022-12-17T11:07:24.366Z</time>
      </trkpt>
      <trkpt lat="47.13832" lon="-1.68055">
        <ele>54.386262</ele>
        <time>2022-12-17T11:07:27.376Z</time>
      </trkpt>
      <trkpt lat="47.13838" lon="-1.68067">
        <ele>54.390987</ele>
        <time>2022-12-17T11:07:30.377Z</time>
      </trkpt>
      <trkpt lat="47.13844" lon="-1.6808">
        <ele>54.396327</ele>
        <time>2022-12-17T11:07:33.385Z</time>
      </trkpt>
      <trkpt lat="47.13851" lon="-1.68095">
        <ele>54.402019</ele>
        <time>2022-12-17T11:07:36.382Z</time>
      </trkpt>
      <trkpt lat="47.13857" lon="-1.68112">
        <ele>54.408115</ele>
        <time>2022-12-17T11:07:39.366Z</time>
      </trkpt>
      <trkpt lat="47.13865" lon="-1.68128">
        <ele>54.414442</ele>
        <time>2022-12-17T11:07:42.379Z</time>
      </trkpt>
      <trkpt lat="47.13872" lon="-1.68145">
        <ele>54.420921</ele>
        <time>2022-12-17T11:07:45.373Z</time>
      </trkpt>
      <trkpt lat="47.13876" lon="-1.68157">
        <ele>54.425364</ele>
        <time>2022-12-17T11:07:47.388Z</time>
      </trkpt>
      <trkpt lat="47.13881" lon="-1.68168">
        <ele>54.429689</ele>
        <time>2022-12-17T11:07:49.368Z</time>
      </trkpt>
      <trkpt lat="47.13888" lon="-1.68184">
        <ele>54.435722</ele>
        <time>2022-12-17T11:07:52.368Z</time>
      </trkpt>
      <trkpt lat="47.13895" lon="-1.68198">
        <ele>54.441061</ele>
        <time>2022-12-17T11:07:55.370Z</time>
      </trkpt>
      <trkpt lat="47.139" lon="-1.68211">
        <ele>54.446145</ele>
        <time>2022-12-17T11:07:58.382Z</time>
      </trkpt>
      <trkpt lat="47.13906" lon="-1.68226">
        <ele>54.451676</ele>
        <time>2022-12-17T11:08:01.380Z</time>
      </trkpt>
      <trkpt lat="47.13912" lon="-1.68242">
        <ele>54.457597</ele>
        <time>2022-12-17T11:08:04.366Z</time>
      </trkpt>
      <trkpt lat="47.13918" lon="-1.68259">
        <ele>54.463865</ele>
        <time>2022-12-17T11:08:07.366Z</time>
      </trkpt>
      <trkpt lat="47.13924" lon="-1.68269">
        <ele>54.468182</ele>
        <time>2022-12-17T11:08:09.368Z</time>
      </trkpt>
      <trkpt lat="47.13931" lon="-1.68286">
        <ele>54.495248</ele>
        <time>2022-12-17T11:08:12.370Z</time>
      </trkpt>
      <trkpt lat="47.13936" lon="-1.68298">
        <ele>54.52774</ele>
        <time>2022-12-17T11:08:14.368Z</time>
      </trkpt>
      <trkpt lat="47.13942" lon="-1.68311">
        <ele>54.562337</ele>
        <time>2022-12-17T11:08:16.370Z</time>
      </trkpt>
      <trkpt lat="47.13947" lon="-1.68324">
        <ele>54.597287</ele>
        <time>2022-12-17T11:08:18.367Z</time>
      </trkpt>
      <trkpt lat="47.13952" lon="-1.68339">
        <ele>54.635276</ele>
        <time>2022-12-17T11:08:20.370Z</time>
      </trkpt>
      <trkpt lat="47.13959" lon="-1.68354">
        <ele>54.674931</ele>
        <time>2022-12-17T11:08:22.364Z</time>
      </trkpt>
      <trkpt lat="47.13965" lon="-1.68369">
        <ele>54.713529</ele>
        <time>2022-12-17T11:08:24.364Z</time>
      </trkpt>
      <trkpt lat="47.13971" lon="-1.68384">
        <ele>54.75357</ele>
        <time>2022-12-17T11:08:26.371Z</time>
      </trkpt>
      <trkpt lat="47.13977" lon="-1.68398">
        <ele>54.791346</ele>
        <time>2022-12-17T11:08:28.366Z</time>
      </trkpt>
      <trkpt lat="47.13983" lon="-1.6841">
        <ele>54.825392</ele>
        <time>2022-12-17T11:08:30.364Z</time>
      </trkpt>
      <trkpt lat="47.13993" lon="-1.68423">
        <ele>54.870704</ele>
        <time>2022-12-17T11:08:33.368Z</time>
      </trkpt>
      <trkpt lat="47.13999" lon="-1.68433">
        <ele>54.900515</ele>
        <time>2022-12-17T11:08:35.377Z</time>
      </trkpt>
      <trkpt lat="47.14005" lon="-1.68443">
        <ele>54.930972</ele>
        <time>2022-12-17T11:08:37.369Z</time>
      </trkpt>
      <trkpt lat="47.14012" lon="-1.68451">
        <ele>54.961288</ele>
        <time>2022-12-17T11:08:39.369Z</time>
      </trkpt>
      <trkpt lat="47.14021" lon="-1.68465">
        <ele>55.002904</ele>
        <time>2022-12-17T11:08:42.365Z</time>
      </trkpt>
      <trkpt lat="47.14029" lon="-1.68479">
        <ele>55.044607</ele>
        <time>2022-12-17T11:08:45.369Z</time>
      </trkpt>
      <trkpt lat="47.14036" lon="-1.68491">
        <ele>55.056387</ele>
        <time>2022-12-17T11:08:48.370Z</time>
      </trkpt>
      <trkpt lat="47.14042" lon="-1.68503">
        <ele>54.999869</ele>
        <time>2022-12-17T11:08:51.365Z</time>
      </trkpt>
      <trkpt lat="47.14049" lon="-1.68514">
        <ele>54.945476</ele>
        <time>2022-12-17T11:08:54.367Z</time>
      </trkpt>
      <trkpt lat="47.14057" lon="-1.68524">
        <ele>54.891211</ele>
        <time>2022-12-17T11:08:57.369Z</time>
      </trkpt>
      <trkpt lat="47.14066" lon="-1.68537">
        <ele>54.824822</ele>
        <time>2022-12-17T11:09:00.369Z</time>
      </trkpt>
      <trkpt lat="47.14075" lon="-1.68551">
        <ele>54.754313</ele>
        <time>2022-12-17T11:09:03.376Z</time>
      </trkpt>
      <trkpt lat="47.14084" lon="-1.68563">
        <ele>54.687129</ele>
        <time>2022-12-17T11:09:06.366Z</time>
      </trkpt>
      <trkpt lat="47.14093" lon="-1.68575">
        <ele>54.625508</ele>
        <time>2022-12-17T11:09:09.369Z</time>
      </trkpt>
      <trkpt lat="47.14103" lon="-1.68587">
        <ele>54.557646</ele>
        <time>2022-12-17T11:09:12.376Z</time>
      </trkpt>
      <trkpt lat="47.14109" lon="-1.68596">
        <ele>54.508627</ele>
        <time>2022-12-17T11:09:14.369Z</time>
      </trkpt>
      <trkpt lat="47.14115" lon="-1.68607">
        <ele>54.460213</ele>
        <time>2022-12-17T11:09:16.372Z</time>
      </trkpt>
      <trkpt lat="47.14122" lon="-1.68616">
        <ele>54.410915</ele>
        <time>2022-12-17T11:09:18.366Z</time>
      </trkpt>
      <trkpt lat="47.1413" lon="-1.68631">
        <ele>54.342833</ele>
        <time>2022-12-17T11:09:21.375Z</time>
      </trkpt>
      <trkpt lat="47.14138" lon="-1.68643">
        <ele>54.279333</ele>
        <time>2022-12-17T11:09:24.376Z</time>
      </trkpt>
      <trkpt lat="47.14147" lon="-1.68654">
        <ele>54.218201</ele>
        <time>2022-12-17T11:09:27.368Z</time>
      </trkpt>
      <trkpt lat="47.14154" lon="-1.68666">
        <ele>54.159907</ele>
        <time>2022-12-17T11:09:30.391Z</time>
      </trkpt>
      <trkpt lat="47.14161" lon="-1.68676">
        <ele>54.116132</ele>
        <time>2022-12-17T11:09:33.369Z</time>
      </trkpt>
      <trkpt lat="47.14167" lon="-1.6869">
        <ele>54.236511</ele>
        <time>2022-12-17T11:09:37.368Z</time>
      </trkpt>
      <trkpt lat="47.14173" lon="-1.68703">
        <ele>54.348805</ele>
        <time>2022-12-17T11:09:40.374Z</time>
      </trkpt>
      <trkpt lat="47.1418" lon="-1.68718">
        <ele>54.47431</ele>
        <time>2022-12-17T11:09:43.365Z</time>
      </trkpt>
      <trkpt lat="47.14187" lon="-1.68734">
        <ele>54.603541</ele>
        <time>2022-12-17T11:09:46.368Z</time>
      </trkpt>
      <trkpt lat="47.14192" lon="-1.68752">
        <ele>54.739658</ele>
        <time>2022-12-17T11:09:49.372Z</time>
      </trkpt>
      <trkpt lat="47.14198" lon="-1.6877">
        <ele>54.876832</ele>
        <time>2022-12-17T11:09:52.368Z</time>
      </trkpt>
      <trkpt lat="47.14203" lon="-1.68788">
        <ele>55.013391</ele>
        <time>2022-12-17T11:09:55.380Z</time>
      </trkpt>
      <trkpt lat="47.14206" lon="-1.68806">
        <ele>55.141317</ele>
        <time>2022-12-17T11:09:58.380Z</time>
      </trkpt>
      <trkpt lat="47.14208" lon="-1.68823">
        <ele>55.265724</ele>
        <time>2022-12-17T11:10:01.376Z</time>
      </trkpt>
      <trkpt lat="47.14211" lon="-1.68841">
        <ele>55.389349</ele>
        <time>2022-12-17T11:10:04.380Z</time>
      </trkpt>
      <trkpt lat="47.14214" lon="-1.68856">
        <ele>55.49993</ele>
        <time>2022-12-17T11:10:07.385Z</time>
      </trkpt>
      <trkpt lat="47.14217" lon="-1.6887">
        <ele>55.600449</ele>
        <time>2022-12-17T11:10:10.366Z</time>
      </trkpt>
      <trkpt lat="47.14219" lon="-1.68884">
        <ele>55.702047</ele>
        <time>2022-12-17T11:10:13.375Z</time>
      </trkpt>
      <trkpt lat="47.14223" lon="-1.68899">
        <ele>55.811138</ele>
        <time>2022-12-17T11:10:16.383Z</time>
      </trkpt>
      <trkpt lat="47.14226" lon="-1.68914">
        <ele>55.924844</ele>
        <time>2022-12-17T11:10:19.390Z</time>
      </trkpt>
      <trkpt lat="47.14229" lon="-1.68928">
        <ele>56.107607</ele>
        <time>2022-12-17T11:10:22.374Z</time>
      </trkpt>
      <trkpt lat="47.14222" lon="-1.68938">
        <ele>56.329299</ele>
        <time>2022-12-17T11:10:27.379Z</time>
      </trkpt>
      <trkpt lat="47.14212" lon="-1.68942">
        <ele>56.557178</ele>
        <time>2022-12-17T11:10:30.380Z</time>
      </trkpt>
      <trkpt lat="47.14202" lon="-1.68951">
        <ele>56.818217</ele>
        <time>2022-12-17T11:10:33.367Z</time>
      </trkpt>
      <trkpt lat="47.14194" lon="-1.68964">
        <ele>57.078479</ele>
        <time>2022-12-17T11:10:36.378Z</time>
      </trkpt>
      <trkpt lat="47.14188" lon="-1.68978">
        <ele>57.324103</ele>
        <time>2022-12-17T11:10:39.368Z</time>
      </trkpt>
      <trkpt lat="47.14182" lon="-1.68991">
        <ele>57.572229</ele>
        <time>2022-12-17T11:10:42.367Z</time>
      </trkpt>
      <trkpt lat="47.14176" lon="-1.69005">
        <ele>57.810659</ele>
        <time>2022-12-17T11:10:45.375Z</time>
      </trkpt>
      <trkpt lat="47.14171" lon="-1.69017">
        <ele>58.034342</ele>
        <time>2022-12-17T11:10:48.366Z</time>
      </trkpt>
      <trkpt lat="47.14167" lon="-1.69033">
        <ele>58.292154</ele>
        <time>2022-12-17T11:10:52.368Z</time>
      </trkpt>
      <trkpt lat="47.14164" lon="-1.69046">
        <ele>58.494192</ele>
        <time>2022-12-17T11:10:55.367Z</time>
      </trkpt>
      <trkpt lat="47.14162" lon="-1.6906">
        <ele>58.712324</ele>
        <time>2022-12-17T11:10:58.367Z</time>
      </trkpt>
      <trkpt lat="47.14159" lon="-1.69074">
        <ele>58.926049</ele>
        <time>2022-12-17T11:11:01.377Z</time>
      </trkpt>
      <trkpt lat="47.14158" lon="-1.69088">
        <ele>59.134333</ele>
        <time>2022-12-17T11:11:04.368Z</time>
      </trkpt>
      <trkpt lat="47.14156" lon="-1.69102">
        <ele>59.354927</ele>
        <time>2022-12-17T11:11:07.401Z</time>
      </trkpt>
      <trkpt lat="47.14153" lon="-1.69116">
        <ele>59.580576</ele>
        <time>2022-12-17T11:11:11.386Z</time>
      </trkpt>
      <trkpt lat="47.14151" lon="-1.69132">
        <ele>59.826286</ele>
        <time>2022-12-17T11:11:15.375Z</time>
      </trkpt>
      <trkpt lat="47.14149" lon="-1.69148">
        <ele>59.976274</ele>
        <time>2022-12-17T11:11:19.393Z</time>
      </trkpt>
      <trkpt lat="47.14148" lon="-1.69161">
        <ele>60.036909</ele>
        <time>2022-12-17T11:11:22.370Z</time>
      </trkpt>
      <trkpt lat="47.14146" lon="-1.69176">
        <ele>60.104625</ele>
        <time>2022-12-17T11:11:26.379Z</time>
      </trkpt>
      <trkpt lat="47.14143" lon="-1.6919">
        <ele>60.172871</ele>
        <time>2022-12-17T11:11:29.373Z</time>
      </trkpt>
      <trkpt lat="47.14141" lon="-1.69205">
        <ele>60.240524</ele>
        <time>2022-12-17T11:11:32.366Z</time>
      </trkpt>
      <trkpt lat="47.14139" lon="-1.69219">
        <ele>60.306855</ele>
        <time>2022-12-17T11:11:35.377Z</time>
      </trkpt>
      <trkpt lat="47.14136" lon="-1.69236">
        <ele>60.385181</ele>
        <time>2022-12-17T11:11:39.368Z</time>
      </trkpt>
      <trkpt lat="47.14134" lon="-1.69249">
        <ele>60.44683</ele>
        <time>2022-12-17T11:11:42.372Z</time>
      </trkpt>
      <trkpt lat="47.14131" lon="-1.69263">
        <ele>60.510024</ele>
        <time>2022-12-17T11:11:45.367Z</time>
      </trkpt>
      <trkpt lat="47.14128" lon="-1.6928">
        <ele>60.588861</ele>
        <time>2022-12-17T11:11:49.377Z</time>
      </trkpt>
      <trkpt lat="47.14126" lon="-1.69293">
        <ele>60.64876</ele>
        <time>2022-12-17T11:11:52.371Z</time>
      </trkpt>
      <trkpt lat="47.14124" lon="-1.69307">
        <ele>60.714704</ele>
        <time>2022-12-17T11:11:55.379Z</time>
      </trkpt>
      <trkpt lat="47.14122" lon="-1.69323">
        <ele>60.788879</ele>
        <time>2022-12-17T11:11:58.381Z</time>
      </trkpt>
      <trkpt lat="47.1412" lon="-1.69339">
        <ele>60.862235</ele>
        <time>2022-12-17T11:12:01.380Z</time>
      </trkpt>
      <trkpt lat="47.14118" lon="-1.69355">
        <ele>60.934129</ele>
        <time>2022-12-17T11:12:04.394Z</time>
      </trkpt>
      <trkpt lat="47.14114" lon="-1.69369">
        <ele>61.002586</ele>
        <time>2022-12-17T11:12:07.371Z</time>
      </trkpt>
      <trkpt lat="47.14112" lon="-1.69384">
        <ele>61.069358</ele>
        <time>2022-12-17T11:12:10.373Z</time>
      </trkpt>
      <trkpt lat="47.14111" lon="-1.69399">
        <ele>61.102437</ele>
        <time>2022-12-17T11:12:13.383Z</time>
      </trkpt>
      <trkpt lat="47.14109" lon="-1.69414">
        <ele>60.817385</ele>
        <time>2022-12-17T11:12:16.369Z</time>
      </trkpt>
      <trkpt lat="47.14109" lon="-1.69429">
        <ele>60.518304</ele>
        <time>2022-12-17T11:12:19.371Z</time>
      </trkpt>
      <trkpt lat="47.14107" lon="-1.69444">
        <ele>60.219827</ele>
        <time>2022-12-17T11:12:22.385Z</time>
      </trkpt>
      <trkpt lat="47.14105" lon="-1.69461">
        <ele>59.903142</ele>
        <time>2022-12-17T11:12:25.376Z</time>
      </trkpt>
      <trkpt lat="47.14104" lon="-1.69477">
        <ele>59.584159</ele>
        <time>2022-12-17T11:12:28.379Z</time>
      </trkpt>
      <trkpt lat="47.14103" lon="-1.69496">
        <ele>59.223224</ele>
        <time>2022-12-17T11:12:31.382Z</time>
      </trkpt>
      <trkpt lat="47.141" lon="-1.69509">
        <ele>58.950456</ele>
        <time>2022-12-17T11:12:33.362Z</time>
      </trkpt>
      <trkpt lat="47.14099" lon="-1.69523">
        <ele>58.676651</ele>
        <time>2022-12-17T11:12:35.378Z</time>
      </trkpt>
      <trkpt lat="47.14097" lon="-1.69539">
        <ele>58.377703</ele>
        <time>2022-12-17T11:12:37.365Z</time>
      </trkpt>
      <trkpt lat="47.14095" lon="-1.69555">
        <ele>58.064014</ele>
        <time>2022-12-17T11:12:39.374Z</time>
      </trkpt>
      <trkpt lat="47.14094" lon="-1.6957">
        <ele>57.777931</ele>
        <time>2022-12-17T11:12:41.381Z</time>
      </trkpt>
      <trkpt lat="47.14094" lon="-1.69583">
        <ele>57.513616</ele>
        <time>2022-12-17T11:12:43.365Z</time>
      </trkpt>
      <trkpt lat="47.14093" lon="-1.69597">
        <ele>57.246418</ele>
        <time>2022-12-17T11:12:45.382Z</time>
      </trkpt>
      <trkpt lat="47.14094" lon="-1.69617">
        <ele>56.871611</ele>
        <time>2022-12-17T11:12:48.373Z</time>
      </trkpt>
      <trkpt lat="47.14095" lon="-1.6963">
        <ele>56.603983</ele>
        <time>2022-12-17T11:12:50.375Z</time>
      </trkpt>
      <trkpt lat="47.14098" lon="-1.69648">
        <ele>56.252719</ele>
        <time>2022-12-17T11:12:53.377Z</time>
      </trkpt>
      <trkpt lat="47.141" lon="-1.69667">
        <ele>56.01783</ele>
        <time>2022-12-17T11:12:56.367Z</time>
      </trkpt>
      <trkpt lat="47.14102" lon="-1.6968">
        <ele>55.977937</ele>
        <time>2022-12-17T11:12:58.366Z</time>
      </trkpt>
      <trkpt lat="47.14103" lon="-1.69697">
        <ele>55.930764</ele>
        <time>2022-12-17T11:13:01.371Z</time>
      </trkpt>
      <trkpt lat="47.14105" lon="-1.6971">
        <ele>55.892634</ele>
        <time>2022-12-17T11:13:04.365Z</time>
      </trkpt>
      <trkpt lat="47.14105" lon="-1.69724">
        <ele>55.849863</ele>
        <time>2022-12-17T11:13:09.364Z</time>
      </trkpt>
      <trkpt lat="47.14095" lon="-1.69728">
        <ele>55.806992</ele>
        <time>2022-12-17T11:13:12.368Z</time>
      </trkpt>
      <trkpt lat="47.14085" lon="-1.69729">
        <ele>55.763482</ele>
        <time>2022-12-17T11:13:15.369Z</time>
      </trkpt>
      <trkpt lat="47.14075" lon="-1.69729">
        <ele>55.721753</ele>
        <time>2022-12-17T11:13:18.364Z</time>
      </trkpt>
      <trkpt lat="47.14063" lon="-1.6973">
        <ele>55.673211</ele>
        <time>2022-12-17T11:13:21.377Z</time>
      </trkpt>
      <trkpt lat="47.14051" lon="-1.6973">
        <ele>55.618833</ele>
        <time>2022-12-17T11:13:24.370Z</time>
      </trkpt>
      <trkpt lat="47.14038" lon="-1.69729">
        <ele>55.567313</ele>
        <time>2022-12-17T11:13:27.373Z</time>
      </trkpt>
      <trkpt lat="47.14026" lon="-1.69728">
        <ele>55.516194</ele>
        <time>2022-12-17T11:13:30.389Z</time>
      </trkpt>
      <trkpt lat="47.14014" lon="-1.69727">
        <ele>55.463899</ele>
        <time>2022-12-17T11:13:33.380Z</time>
      </trkpt>
      <trkpt lat="47.14001" lon="-1.69727">
        <ele>55.41121</ele>
        <time>2022-12-17T11:13:36.369Z</time>
      </trkpt>
      <trkpt lat="47.13988" lon="-1.69726">
        <ele>55.355382</ele>
        <time>2022-12-17T11:13:39.372Z</time>
      </trkpt>
      <trkpt lat="47.13975" lon="-1.69723">
        <ele>55.298482</ele>
        <time>2022-12-17T11:13:42.386Z</time>
      </trkpt>
      <trkpt lat="47.13966" lon="-1.69722">
        <ele>55.26985</ele>
        <time>2022-12-17T11:13:44.370Z</time>
      </trkpt>
      <trkpt lat="47.13956" lon="-1.69721">
        <ele>55.247204</ele>
        <time>2022-12-17T11:13:46.368Z</time>
      </trkpt>
      <trkpt lat="47.13946" lon="-1.6972">
        <ele>55.222432</ele>
        <time>2022-12-17T11:13:48.369Z</time>
      </trkpt>
      <trkpt lat="47.13934" lon="-1.69719">
        <ele>55.194758</ele>
        <time>2022-12-17T11:13:50.372Z</time>
      </trkpt>
      <trkpt lat="47.13922" lon="-1.69718">
        <ele>55.167191</ele>
        <time>2022-12-17T11:13:52.372Z</time>
      </trkpt>
      <trkpt lat="47.13911" lon="-1.69717">
        <ele>55.141487</ele>
        <time>2022-12-17T11:13:54.390Z</time>
      </trkpt>
      <trkpt lat="47.139" lon="-1.69718">
        <ele>55.115343</ele>
        <time>2022-12-17T11:13:56.375Z</time>
      </trkpt>
      <trkpt lat="47.1389" lon="-1.69719">
        <ele>55.09196</ele>
        <time>2022-12-17T11:13:58.372Z</time>
      </trkpt>
      <trkpt lat="47.13878" lon="-1.69724">
        <ele>55.062131</ele>
        <time>2022-12-17T11:14:01.372Z</time>
      </trkpt>
      <trkpt lat="47.13869" lon="-1.69726">
        <ele>55.040411</ele>
        <time>2022-12-17T11:14:03.369Z</time>
      </trkpt>
      <trkpt lat="47.13857" lon="-1.6973">
        <ele>55.011854</ele>
        <time>2022-12-17T11:14:06.377Z</time>
      </trkpt>
      <trkpt lat="47.13848" lon="-1.69731">
        <ele>54.990115</ele>
        <time>2022-12-17T11:14:08.378Z</time>
      </trkpt>
      <trkpt lat="47.13838" lon="-1.6973">
        <ele>54.966706</ele>
        <time>2022-12-17T11:14:10.370Z</time>
      </trkpt>
      <trkpt lat="47.13828" lon="-1.69728">
        <ele>54.942744</ele>
        <time>2022-12-17T11:14:12.369Z</time>
      </trkpt>
      <trkpt lat="47.13818" lon="-1.69728">
        <ele>54.918948</ele>
        <time>2022-12-17T11:14:14.372Z</time>
      </trkpt>
      <trkpt lat="47.13808" lon="-1.69727">
        <ele>54.895156</ele>
        <time>2022-12-17T11:14:16.367Z</time>
      </trkpt>
      <trkpt lat="47.13797" lon="-1.69728">
        <ele>54.869951</ele>
        <time>2022-12-17T11:14:18.372Z</time>
      </trkpt>
      <trkpt lat="47.13786" lon="-1.69727">
        <ele>54.749014</ele>
        <time>2022-12-17T11:14:20.383Z</time>
      </trkpt>
      <trkpt lat="47.13775" lon="-1.69725">
        <ele>54.525542</ele>
        <time>2022-12-17T11:14:22.382Z</time>
      </trkpt>
      <trkpt lat="47.13763" lon="-1.69726">
        <ele>54.307075</ele>
        <time>2022-12-17T11:14:24.369Z</time>
      </trkpt>
      <trkpt lat="47.13752" lon="-1.69729">
        <ele>54.091836</ele>
        <time>2022-12-17T11:14:26.379Z</time>
      </trkpt>
      <trkpt lat="47.1374" lon="-1.69732">
        <ele>53.873868</ele>
        <time>2022-12-17T11:14:28.374Z</time>
      </trkpt>
      <trkpt lat="47.13729" lon="-1.69734">
        <ele>53.665481</ele>
        <time>2022-12-17T11:14:30.386Z</time>
      </trkpt>
      <trkpt lat="47.1372" lon="-1.69736">
        <ele>53.486526</ele>
        <time>2022-12-17T11:14:32.373Z</time>
      </trkpt>
      <trkpt lat="47.1371" lon="-1.69738">
        <ele>53.30551</ele>
        <time>2022-12-17T11:14:34.366Z</time>
      </trkpt>
      <trkpt lat="47.13701" lon="-1.6974">
        <ele>53.126243</ele>
        <time>2022-12-17T11:14:36.379Z</time>
      </trkpt>
      <trkpt lat="47.13691" lon="-1.6974">
        <ele>52.947468</ele>
        <time>2022-12-17T11:14:38.375Z</time>
      </trkpt>
      <trkpt lat="47.13681" lon="-1.69741">
        <ele>52.759301</ele>
        <time>2022-12-17T11:14:40.376Z</time>
      </trkpt>
      <trkpt lat="47.13671" lon="-1.69741">
        <ele>52.563754</ele>
        <time>2022-12-17T11:14:42.369Z</time>
      </trkpt>
      <trkpt lat="47.13661" lon="-1.6974">
        <ele>52.365843</ele>
        <time>2022-12-17T11:14:44.399Z</time>
      </trkpt>
      <trkpt lat="47.1365" lon="-1.6974">
        <ele>52.158889</ele>
        <time>2022-12-17T11:14:46.378Z</time>
      </trkpt>
      <trkpt lat="47.13638" lon="-1.6974">
        <ele>51.950135</ele>
        <time>2022-12-17T11:14:48.383Z</time>
      </trkpt>
      <trkpt lat="47.13627" lon="-1.69739">
        <ele>51.733787</ele>
        <time>2022-12-17T11:14:50.381Z</time>
      </trkpt>
      <trkpt lat="47.13615" lon="-1.6974">
        <ele>51.507943</ele>
        <time>2022-12-17T11:14:52.369Z</time>
      </trkpt>
      <trkpt lat="47.13604" lon="-1.69739">
        <ele>51.332551</ele>
        <time>2022-12-17T11:14:54.376Z</time>
      </trkpt>
      <trkpt lat="47.13591" lon="-1.6974">
        <ele>51.152074</ele>
        <time>2022-12-17T11:14:56.377Z</time>
      </trkpt>
      <trkpt lat="47.1358" lon="-1.6974">
        <ele>50.977536</ele>
        <time>2022-12-17T11:14:58.391Z</time>
      </trkpt>
      <trkpt lat="47.13569" lon="-1.6974">
        <ele>50.814833</ele>
        <time>2022-12-17T11:15:00.378Z</time>
      </trkpt>
      <trkpt lat="47.13558" lon="-1.6974">
        <ele>50.659409</ele>
        <time>2022-12-17T11:15:02.371Z</time>
      </trkpt>
      <trkpt lat="47.13548" lon="-1.69741">
        <ele>50.508419</ele>
        <time>2022-12-17T11:15:04.367Z</time>
      </trkpt>
      <trkpt lat="47.13538" lon="-1.69741">
        <ele>50.364889</ele>
        <time>2022-12-17T11:15:06.374Z</time>
      </trkpt>
      <trkpt lat="47.13528" lon="-1.69741">
        <ele>50.218236</ele>
        <time>2022-12-17T11:15:08.380Z</time>
      </trkpt>
      <trkpt lat="47.13518" lon="-1.69741">
        <ele>50.073196</ele>
        <time>2022-12-17T11:15:10.369Z</time>
      </trkpt>
      <trkpt lat="47.13508" lon="-1.69741">
        <ele>49.923792</ele>
        <time>2022-12-17T11:15:12.368Z</time>
      </trkpt>
      <trkpt lat="47.13498" lon="-1.69742">
        <ele>49.769951</ele>
        <time>2022-12-17T11:15:14.379Z</time>
      </trkpt>
      <trkpt lat="47.13488" lon="-1.69742">
        <ele>49.627924</ele>
        <time>2022-12-17T11:15:16.389Z</time>
      </trkpt>
      <trkpt lat="47.13479" lon="-1.69742">
        <ele>49.484419</ele>
        <time>2022-12-17T11:15:18.382Z</time>
      </trkpt>
      <trkpt lat="47.13469" lon="-1.69746">
        <ele>49.33139</ele>
        <time>2022-12-17T11:15:20.371Z</time>
      </trkpt>
      <trkpt lat="47.13455" lon="-1.6975">
        <ele>49.122799</ele>
        <time>2022-12-17T11:15:23.389Z</time>
      </trkpt>
      <trkpt lat="47.13445" lon="-1.69753">
        <ele>48.974823</ele>
        <time>2022-12-17T11:15:25.368Z</time>
      </trkpt>
      <trkpt lat="47.13436" lon="-1.69757">
        <ele>48.832317</ele>
        <time>2022-12-17T11:15:27.374Z</time>
      </trkpt>
      <trkpt lat="47.13426" lon="-1.69761">
        <ele>48.921086</ele>
        <time>2022-12-17T11:15:29.374Z</time>
      </trkpt>
      <trkpt lat="47.13415" lon="-1.69767">
        <ele>49.050381</ele>
        <time>2022-12-17T11:15:31.374Z</time>
      </trkpt>
      <trkpt lat="47.13404" lon="-1.69773">
        <ele>49.184245</ele>
        <time>2022-12-17T11:15:33.371Z</time>
      </trkpt>
      <trkpt lat="47.13394" lon="-1.69777">
        <ele>49.304222</ele>
        <time>2022-12-17T11:15:35.380Z</time>
      </trkpt>
      <trkpt lat="47.13385" lon="-1.69783">
        <ele>49.412164</ele>
        <time>2022-12-17T11:15:37.383Z</time>
      </trkpt>
      <trkpt lat="47.13373" lon="-1.6979">
        <ele>49.562086</ele>
        <time>2022-12-17T11:15:40.382Z</time>
      </trkpt>
      <trkpt lat="47.1336" lon="-1.69798">
        <ele>49.711815</ele>
        <time>2022-12-17T11:15:43.368Z</time>
      </trkpt>
      <trkpt lat="47.13351" lon="-1.69802">
        <ele>49.818356</ele>
        <time>2022-12-17T11:15:45.374Z</time>
      </trkpt>
      <trkpt lat="47.13342" lon="-1.69807">
        <ele>49.929149</ele>
        <time>2022-12-17T11:15:47.384Z</time>
      </trkpt>
      <trkpt lat="47.13333" lon="-1.69812">
        <ele>50.039696</ele>
        <time>2022-12-17T11:15:49.373Z</time>
      </trkpt>
      <trkpt lat="47.1332" lon="-1.69818">
        <ele>50.18827</ele>
        <time>2022-12-17T11:15:52.376Z</time>
      </trkpt>
      <trkpt lat="47.13312" lon="-1.69824">
        <ele>50.290457</ele>
        <time>2022-12-17T11:15:54.370Z</time>
      </trkpt>
      <trkpt lat="47.13299" lon="-1.69831">
        <ele>50.443024</ele>
        <time>2022-12-17T11:15:57.370Z</time>
      </trkpt>
      <trkpt lat="47.13287" lon="-1.69836">
        <ele>50.585337</ele>
        <time>2022-12-17T11:16:00.372Z</time>
      </trkpt>
      <trkpt lat="47.13278" lon="-1.69842">
        <ele>50.695332</ele>
        <time>2022-12-17T11:16:02.371Z</time>
      </trkpt>
      <trkpt lat="47.13267" lon="-1.69847">
        <ele>50.824436</ele>
        <time>2022-12-17T11:16:05.374Z</time>
      </trkpt>
      <trkpt lat="47.13258" lon="-1.69851">
        <ele>50.794382</ele>
        <time>2022-12-17T11:16:08.373Z</time>
      </trkpt>
      <trkpt lat="47.1325" lon="-1.69855">
        <ele>50.736769</ele>
        <time>2022-12-17T11:16:11.374Z</time>
      </trkpt>
      <trkpt lat="47.1324" lon="-1.69861">
        <ele>50.675195</ele>
        <time>2022-12-17T11:16:14.369Z</time>
      </trkpt>
      <trkpt lat="47.13228" lon="-1.69867">
        <ele>50.59316</ele>
        <time>2022-12-17T11:16:17.368Z</time>
      </trkpt>
      <trkpt lat="47.13219" lon="-1.69873">
        <ele>50.531848</ele>
        <time>2022-12-17T11:16:19.369Z</time>
      </trkpt>
      <trkpt lat="47.1321" lon="-1.69877">
        <ele>50.470502</ele>
        <time>2022-12-17T11:16:21.381Z</time>
      </trkpt>
      <trkpt lat="47.13199" lon="-1.69883">
        <ele>50.401722</ele>
        <time>2022-12-17T11:16:23.368Z</time>
      </trkpt>
      <trkpt lat="47.13187" lon="-1.6989">
        <ele>50.32086</ele>
        <time>2022-12-17T11:16:25.379Z</time>
      </trkpt>
      <trkpt lat="47.13176" lon="-1.69896">
        <ele>50.243776</ele>
        <time>2022-12-17T11:16:27.381Z</time>
      </trkpt>
      <trkpt lat="47.13166" lon="-1.69901">
        <ele>50.17709</ele>
        <time>2022-12-17T11:16:29.381Z</time>
      </trkpt>
      <trkpt lat="47.13154" lon="-1.69907">
        <ele>50.104494</ele>
        <time>2022-12-17T11:16:31.380Z</time>
      </trkpt>
      <trkpt lat="47.13144" lon="-1.69912">
        <ele>50.036901</ele>
        <time>2022-12-17T11:16:33.375Z</time>
      </trkpt>
      <trkpt lat="47.13134" lon="-1.69917">
        <ele>49.9711</ele>
        <time>2022-12-17T11:16:35.373Z</time>
      </trkpt>
      <trkpt lat="47.13124" lon="-1.69922">
        <ele>49.905731</ele>
        <time>2022-12-17T11:16:37.376Z</time>
      </trkpt>
      <trkpt lat="47.13116" lon="-1.69928">
        <ele>49.848029</ele>
        <time>2022-12-17T11:16:39.386Z</time>
      </trkpt>
      <trkpt lat="47.13103" lon="-1.69935">
        <ele>49.763055</ele>
        <time>2022-12-17T11:16:42.371Z</time>
      </trkpt>
      <trkpt lat="47.13095" lon="-1.6994">
        <ele>49.69076</ele>
        <time>2022-12-17T11:16:44.368Z</time>
      </trkpt>
      <trkpt lat="47.13085" lon="-1.69946">
        <ele>49.573896</ele>
        <time>2022-12-17T11:16:46.389Z</time>
      </trkpt>
      <trkpt lat="47.13076" lon="-1.6995">
        <ele>49.458871</ele>
        <time>2022-12-17T11:16:48.383Z</time>
      </trkpt>
      <trkpt lat="47.13068" lon="-1.69955">
        <ele>49.350781</ele>
        <time>2022-12-17T11:16:50.374Z</time>
      </trkpt>
      <trkpt lat="47.13054" lon="-1.6996">
        <ele>49.186298</ele>
        <time>2022-12-17T11:16:53.382Z</time>
      </trkpt>
      <trkpt lat="47.13045" lon="-1.69964">
        <ele>49.07424</ele>
        <time>2022-12-17T11:16:55.380Z</time>
      </trkpt>
      <trkpt lat="47.13035" lon="-1.69969">
        <ele>48.954855</ele>
        <time>2022-12-17T11:16:57.396Z</time>
      </trkpt>
      <trkpt lat="47.13026" lon="-1.69974">
        <ele>48.835915</ele>
        <time>2022-12-17T11:16:59.375Z</time>
      </trkpt>
      <trkpt lat="47.13017" lon="-1.69978">
        <ele>48.725669</ele>
        <time>2022-12-17T11:17:01.393Z</time>
      </trkpt>
      <trkpt lat="47.13008" lon="-1.69983">
        <ele>48.617365</ele>
        <time>2022-12-17T11:17:03.379Z</time>
      </trkpt>
      <trkpt lat="47.13" lon="-1.69987">
        <ele>48.508679</ele>
        <time>2022-12-17T11:17:05.372Z</time>
      </trkpt>
      <trkpt lat="47.12987" lon="-1.69995">
        <ele>48.346447</ele>
        <time>2022-12-17T11:17:08.382Z</time>
      </trkpt>
      <trkpt lat="47.12978" lon="-1.70001">
        <ele>48.227191</ele>
        <time>2022-12-17T11:17:10.394Z</time>
      </trkpt>
      <trkpt lat="47.12969" lon="-1.70005">
        <ele>48.114471</ele>
        <time>2022-12-17T11:17:12.373Z</time>
      </trkpt>
      <trkpt lat="47.12959" lon="-1.70009">
        <ele>48.000387</ele>
        <time>2022-12-17T11:17:14.371Z</time>
      </trkpt>
      <trkpt lat="47.1295" lon="-1.70015">
        <ele>47.879933</ele>
        <time>2022-12-17T11:17:16.391Z</time>
      </trkpt>
      <trkpt lat="47.1294" lon="-1.7002">
        <ele>47.753399</ele>
        <time>2022-12-17T11:17:18.392Z</time>
      </trkpt>
      <trkpt lat="47.1293" lon="-1.70024">
        <ele>47.639244</ele>
        <time>2022-12-17T11:17:20.381Z</time>
      </trkpt>
      <trkpt lat="47.12922" lon="-1.70029">
        <ele>47.602107</ele>
        <time>2022-12-17T11:17:22.373Z</time>
      </trkpt>
      <trkpt lat="47.12911" lon="-1.70037">
        <ele>47.596957</ele>
        <time>2022-12-17T11:17:25.388Z</time>
      </trkpt>
      <trkpt lat="47.12898" lon="-1.70043">
        <ele>47.591474</ele>
        <time>2022-12-17T11:17:28.384Z</time>
      </trkpt>
      <trkpt lat="47.12889" lon="-1.70047">
        <ele>47.587755</ele>
        <time>2022-12-17T11:17:30.388Z</time>
      </trkpt>
      <trkpt lat="47.1288" lon="-1.70051">
        <ele>47.583965</ele>
        <time>2022-12-17T11:17:32.381Z</time>
      </trkpt>
      <trkpt lat="47.1287" lon="-1.70055">
        <ele>47.579684</ele>
        <time>2022-12-17T11:17:34.389Z</time>
      </trkpt>
      <trkpt lat="47.12858" lon="-1.70061">
        <ele>47.574332</ele>
        <time>2022-12-17T11:17:37.374Z</time>
      </trkpt>
      <trkpt lat="47.12849" lon="-1.70067">
        <ele>47.570181</ele>
        <time>2022-12-17T11:17:39.383Z</time>
      </trkpt>
      <trkpt lat="47.12839" lon="-1.70072">
        <ele>47.565991</ele>
        <time>2022-12-17T11:17:41.383Z</time>
      </trkpt>
      <trkpt lat="47.1283" lon="-1.70076">
        <ele>47.561877</ele>
        <time>2022-12-17T11:17:43.384Z</time>
      </trkpt>
      <trkpt lat="47.12821" lon="-1.7008">
        <ele>47.557909</ele>
        <time>2022-12-17T11:17:45.382Z</time>
      </trkpt>
      <trkpt lat="47.12812" lon="-1.70085">
        <ele>47.55398</ele>
        <time>2022-12-17T11:17:47.382Z</time>
      </trkpt>
      <trkpt lat="47.12801" lon="-1.70089">
        <ele>47.549588</ele>
        <time>2022-12-17T11:17:49.383Z</time>
      </trkpt>
      <trkpt lat="47.12792" lon="-1.70094">
        <ele>47.545582</ele>
        <time>2022-12-17T11:17:51.378Z</time>
      </trkpt>
      <trkpt lat="47.12783" lon="-1.70098">
        <ele>47.54171</ele>
        <time>2022-12-17T11:17:53.386Z</time>
      </trkpt>
      <trkpt lat="47.12774" lon="-1.70103">
        <ele>47.537577</ele>
        <time>2022-12-17T11:17:55.395Z</time>
      </trkpt>
      <trkpt lat="47.12765" lon="-1.70109">
        <ele>47.533736</ele>
        <time>2022-12-17T11:17:57.385Z</time>
      </trkpt>
      <trkpt lat="47.12755" lon="-1.70115">
        <ele>47.559242</ele>
        <time>2022-12-17T11:17:59.377Z</time>
      </trkpt>
      <trkpt lat="47.12745" lon="-1.7012">
        <ele>47.66261</ele>
        <time>2022-12-17T11:18:01.381Z</time>
      </trkpt>
      <trkpt lat="47.12735" lon="-1.70126">
        <ele>47.760446</ele>
        <time>2022-12-17T11:18:03.382Z</time>
      </trkpt>
      <trkpt lat="47.12726" lon="-1.7013">
        <ele>47.850292</ele>
        <time>2022-12-17T11:18:05.387Z</time>
      </trkpt>
      <trkpt lat="47.12716" lon="-1.70136">
        <ele>47.950987</ele>
        <time>2022-12-17T11:18:07.386Z</time>
      </trkpt>
      <trkpt lat="47.12706" lon="-1.70141">
        <ele>48.051904</ele>
        <time>2022-12-17T11:18:09.383Z</time>
      </trkpt>
      <trkpt lat="47.12697" lon="-1.70146">
        <ele>48.145487</ele>
        <time>2022-12-17T11:18:11.387Z</time>
      </trkpt>
      <trkpt lat="47.12687" lon="-1.70152">
        <ele>48.252041</ele>
        <time>2022-12-17T11:18:13.385Z</time>
      </trkpt>
      <trkpt lat="47.12677" lon="-1.70157">
        <ele>48.349297</ele>
        <time>2022-12-17T11:18:15.373Z</time>
      </trkpt>
      <trkpt lat="47.12667" lon="-1.70162">
        <ele>48.452459</ele>
        <time>2022-12-17T11:18:17.389Z</time>
      </trkpt>
      <trkpt lat="47.12657" lon="-1.70166">
        <ele>48.546619</ele>
        <time>2022-12-17T11:18:19.389Z</time>
      </trkpt>
      <trkpt lat="47.12648" lon="-1.70171">
        <ele>48.638466</ele>
        <time>2022-12-17T11:18:21.381Z</time>
      </trkpt>
      <trkpt lat="47.12635" lon="-1.70178">
        <ele>48.766116</ele>
        <time>2022-12-17T11:18:24.371Z</time>
      </trkpt>
      <trkpt lat="47.12627" lon="-1.70183">
        <ele>48.852142</ele>
        <time>2022-12-17T11:18:26.378Z</time>
      </trkpt>
      <trkpt lat="47.12616" lon="-1.70191">
        <ele>48.966704</ele>
        <time>2022-12-17T11:18:29.376Z</time>
      </trkpt>
      <trkpt lat="47.12606" lon="-1.70197">
        <ele>49.069019</ele>
        <time>2022-12-17T11:18:32.370Z</time>
      </trkpt>
      <trkpt lat="47.12597" lon="-1.702">
        <ele>49.158879</ele>
        <time>2022-12-17T11:18:37.388Z</time>
      </trkpt>
      <trkpt lat="47.12583" lon="-1.70204">
        <ele>49.164527</ele>
        <time>2022-12-17T11:19:17.372Z</time>
      </trkpt>
      <trkpt lat="47.12573" lon="-1.70209">
        <ele>49.054085</ele>
        <time>2022-12-17T11:19:21.386Z</time>
      </trkpt>
      <trkpt lat="47.12564" lon="-1.70214">
        <ele>48.946151</ele>
        <time>2022-12-17T11:19:24.362Z</time>
      </trkpt>
      <trkpt lat="47.12552" lon="-1.7022">
        <ele>48.81961</ele>
        <time>2022-12-17T11:19:27.360Z</time>
      </trkpt>
      <trkpt lat="47.12541" lon="-1.70227">
        <ele>48.686028</ele>
        <time>2022-12-17T11:19:30.368Z</time>
      </trkpt>
      <trkpt lat="47.12529" lon="-1.70233">
        <ele>48.549881</ele>
        <time>2022-12-17T11:19:33.375Z</time>
      </trkpt>
      <trkpt lat="47.12518" lon="-1.70239">
        <ele>48.426094</ele>
        <time>2022-12-17T11:19:36.374Z</time>
      </trkpt>
      <trkpt lat="47.12507" lon="-1.70246">
        <ele>48.295726</ele>
        <time>2022-12-17T11:19:39.386Z</time>
      </trkpt>
      <trkpt lat="47.12497" lon="-1.70251">
        <ele>48.187017</ele>
        <time>2022-12-17T11:19:41.377Z</time>
      </trkpt>
      <trkpt lat="47.12489" lon="-1.70257">
        <ele>48.08849</ele>
        <time>2022-12-17T11:19:43.381Z</time>
      </trkpt>
      <trkpt lat="47.1248" lon="-1.70261">
        <ele>47.983163</ele>
        <time>2022-12-17T11:19:45.383Z</time>
      </trkpt>
      <trkpt lat="47.12471" lon="-1.70266">
        <ele>47.88215</ele>
        <time>2022-12-17T11:19:47.366Z</time>
      </trkpt>
      <trkpt lat="47.12462" lon="-1.70272">
        <ele>47.778495</ele>
        <time>2022-12-17T11:19:49.364Z</time>
      </trkpt>
      <trkpt lat="47.12454" lon="-1.70278">
        <ele>47.678268</ele>
        <time>2022-12-17T11:19:51.395Z</time>
      </trkpt>
      <trkpt lat="47.12445" lon="-1.70288">
        <ele>47.5629</ele>
        <time>2022-12-17T11:19:53.384Z</time>
      </trkpt>
      <trkpt lat="47.12437" lon="-1.70298">
        <ele>47.449837</ele>
        <time>2022-12-17T11:19:55.383Z</time>
      </trkpt>
      <trkpt lat="47.12431" lon="-1.70308">
        <ele>47.350008</ele>
        <time>2022-12-17T11:19:57.365Z</time>
      </trkpt>
      <trkpt lat="47.12426" lon="-1.70319">
        <ele>47.296822</ele>
        <time>2022-12-17T11:19:59.382Z</time>
      </trkpt>
      <trkpt lat="47.12421" lon="-1.70332">
        <ele>47.278201</ele>
        <time>2022-12-17T11:20:01.366Z</time>
      </trkpt>
      <trkpt lat="47.12417" lon="-1.70344">
        <ele>47.260276</ele>
        <time>2022-12-17T11:20:03.369Z</time>
      </trkpt>
      <trkpt lat="47.12413" lon="-1.70361">
        <ele>47.238146</ele>
        <time>2022-12-17T11:20:06.367Z</time>
      </trkpt>
      <trkpt lat="47.1241" lon="-1.70373">
        <ele>47.22124</ele>
        <time>2022-12-17T11:20:08.389Z</time>
      </trkpt>
      <trkpt lat="47.12407" lon="-1.70387">
        <ele>47.202746</ele>
        <time>2022-12-17T11:20:10.384Z</time>
      </trkpt>
      <trkpt lat="47.12403" lon="-1.70401">
        <ele>47.183482</ele>
        <time>2022-12-17T11:20:12.363Z</time>
      </trkpt>
      <trkpt lat="47.12401" lon="-1.70414">
        <ele>47.166148</ele>
        <time>2022-12-17T11:20:14.366Z</time>
      </trkpt>
      <trkpt lat="47.12398" lon="-1.70429">
        <ele>47.146817</ele>
        <time>2022-12-17T11:20:16.368Z</time>
      </trkpt>
      <trkpt lat="47.12395" lon="-1.70443">
        <ele>47.127496</ele>
        <time>2022-12-17T11:20:18.385Z</time>
      </trkpt>
      <trkpt lat="47.12392" lon="-1.70458">
        <ele>47.107921</ele>
        <time>2022-12-17T11:20:20.388Z</time>
      </trkpt>
      <trkpt lat="47.12388" lon="-1.70471">
        <ele>47.089712</ele>
        <time>2022-12-17T11:20:22.364Z</time>
      </trkpt>
      <trkpt lat="47.12385" lon="-1.70484">
        <ele>47.07166</ele>
        <time>2022-12-17T11:20:24.383Z</time>
      </trkpt>
      <trkpt lat="47.12379" lon="-1.70503">
        <ele>47.046182</ele>
        <time>2022-12-17T11:20:27.368Z</time>
      </trkpt>
      <trkpt lat="47.12375" lon="-1.70515">
        <ele>47.027854</ele>
        <time>2022-12-17T11:20:29.364Z</time>
      </trkpt>
      <trkpt lat="47.12369" lon="-1.70527">
        <ele>47.00961</ele>
        <time>2022-12-17T11:20:31.393Z</time>
      </trkpt>
      <trkpt lat="47.12364" lon="-1.70539">
        <ele>46.991576</ele>
        <time>2022-12-17T11:20:33.399Z</time>
      </trkpt>
      <trkpt lat="47.12358" lon="-1.7055">
        <ele>46.973751</ele>
        <time>2022-12-17T11:20:35.397Z</time>
      </trkpt>
      <trkpt lat="47.12352" lon="-1.70561">
        <ele>47.096292</ele>
        <time>2022-12-17T11:20:37.377Z</time>
      </trkpt>
      <trkpt lat="47.12345" lon="-1.70573">
        <ele>47.281452</ele>
        <time>2022-12-17T11:20:39.383Z</time>
      </trkpt>
      <trkpt lat="47.12339" lon="-1.70583">
        <ele>47.454712</ele>
        <time>2022-12-17T11:20:41.364Z</time>
      </trkpt>
      <trkpt lat="47.12332" lon="-1.70593">
        <ele>47.63449</ele>
        <time>2022-12-17T11:20:43.391Z</time>
      </trkpt>
      <trkpt lat="47.12325" lon="-1.70604">
        <ele>47.815517</ele>
        <time>2022-12-17T11:20:45.387Z</time>
      </trkpt>
      <trkpt lat="47.12318" lon="-1.70615">
        <ele>47.9992</ele>
        <time>2022-12-17T11:20:47.383Z</time>
      </trkpt>
      <trkpt lat="47.12311" lon="-1.70625">
        <ele>48.176848</ele>
        <time>2022-12-17T11:20:49.383Z</time>
      </trkpt>
      <trkpt lat="47.12304" lon="-1.70635">
        <ele>48.352249</ele>
        <time>2022-12-17T11:20:51.390Z</time>
      </trkpt>
      <trkpt lat="47.12297" lon="-1.70645">
        <ele>48.530327</ele>
        <time>2022-12-17T11:20:53.374Z</time>
      </trkpt>
      <trkpt lat="47.1229" lon="-1.70656">
        <ele>48.713489</ele>
        <time>2022-12-17T11:20:55.373Z</time>
      </trkpt>
      <trkpt lat="47.12283" lon="-1.70666">
        <ele>48.891032</ele>
        <time>2022-12-17T11:20:57.388Z</time>
      </trkpt>
      <trkpt lat="47.12276" lon="-1.70677">
        <ele>49.076844</ele>
        <time>2022-12-17T11:20:59.383Z</time>
      </trkpt>
      <trkpt lat="47.12269" lon="-1.70687">
        <ele>49.251384</ele>
        <time>2022-12-17T11:21:01.386Z</time>
      </trkpt>
      <trkpt lat="47.12262" lon="-1.70697">
        <ele>49.422064</ele>
        <time>2022-12-17T11:21:03.382Z</time>
      </trkpt>
      <trkpt lat="47.12255" lon="-1.70706">
        <ele>49.594042</ele>
        <time>2022-12-17T11:21:05.372Z</time>
      </trkpt>
      <trkpt lat="47.12248" lon="-1.70715">
        <ele>49.761557</ele>
        <time>2022-12-17T11:21:07.384Z</time>
      </trkpt>
      <trkpt lat="47.12241" lon="-1.70723">
        <ele>49.925575</ele>
        <time>2022-12-17T11:21:09.368Z</time>
      </trkpt>
      <trkpt lat="47.1223" lon="-1.70735">
        <ele>50.164342</ele>
        <time>2022-12-17T11:21:12.366Z</time>
      </trkpt>
      <trkpt lat="47.12222" lon="-1.70743">
        <ele>50.2939</ele>
        <time>2022-12-17T11:21:14.365Z</time>
      </trkpt>
      <trkpt lat="47.12215" lon="-1.7075">
        <ele>50.408021</ele>
        <time>2022-12-17T11:21:16.369Z</time>
      </trkpt>
      <trkpt lat="47.12207" lon="-1.70756">
        <ele>50.521098</ele>
        <time>2022-12-17T11:21:18.388Z</time>
      </trkpt>
      <trkpt lat="47.12196" lon="-1.70763">
        <ele>50.663784</ele>
        <time>2022-12-17T11:21:21.393Z</time>
      </trkpt>
      <trkpt lat="47.12186" lon="-1.70771">
        <ele>50.804515</ele>
        <time>2022-12-17T11:21:24.389Z</time>
      </trkpt>
      <trkpt lat="47.12176" lon="-1.70779">
        <ele>50.950253</ele>
        <time>2022-12-17T11:21:27.381Z</time>
      </trkpt>
      <trkpt lat="47.12165" lon="-1.70787">
        <ele>51.105984</ele>
        <time>2022-12-17T11:21:30.388Z</time>
      </trkpt>
      <trkpt lat="47.12154" lon="-1.70795">
        <ele>51.263975</ele>
        <time>2022-12-17T11:21:33.387Z</time>
      </trkpt>
      <trkpt lat="47.12142" lon="-1.70802">
        <ele>51.423486</ele>
        <time>2022-12-17T11:21:36.385Z</time>
      </trkpt>
      <trkpt lat="47.1213" lon="-1.70809">
        <ele>51.581664</ele>
        <time>2022-12-17T11:21:39.393Z</time>
      </trkpt>
      <trkpt lat="47.12119" lon="-1.70816">
        <ele>51.738531</ele>
        <time>2022-12-17T11:21:42.364Z</time>
      </trkpt>
      <trkpt lat="47.12107" lon="-1.70824">
        <ele>51.896943</ele>
        <time>2022-12-17T11:21:45.394Z</time>
      </trkpt>
      <trkpt lat="47.12095" lon="-1.70832">
        <ele>52.059063</ele>
        <time>2022-12-17T11:21:48.396Z</time>
      </trkpt>
      <trkpt lat="47.12083" lon="-1.7084">
        <ele>52.225837</ele>
        <time>2022-12-17T11:21:51.381Z</time>
      </trkpt>
      <trkpt lat="47.12071" lon="-1.70847">
        <ele>52.391122</ele>
        <time>2022-12-17T11:21:54.383Z</time>
      </trkpt>
      <trkpt lat="47.12063" lon="-1.70853">
        <ele>52.414183</ele>
        <time>2022-12-17T11:21:56.395Z</time>
      </trkpt>
      <trkpt lat="47.12055" lon="-1.70859">
        <ele>52.284677</ele>
        <time>2022-12-17T11:21:58.369Z</time>
      </trkpt>
      <trkpt lat="47.12046" lon="-1.70864">
        <ele>52.152851</ele>
        <time>2022-12-17T11:22:00.367Z</time>
      </trkpt>
      <trkpt lat="47.12037" lon="-1.70869">
        <ele>52.018775</ele>
        <time>2022-12-17T11:22:02.361Z</time>
      </trkpt>
      <trkpt lat="47.12029" lon="-1.70875">
        <ele>51.890133</ele>
        <time>2022-12-17T11:22:04.385Z</time>
      </trkpt>
      <trkpt lat="47.12017" lon="-1.70883">
        <ele>51.70515</ele>
        <time>2022-12-17T11:22:07.373Z</time>
      </trkpt>
      <trkpt lat="47.12005" lon="-1.70891">
        <ele>51.515909</ele>
        <time>2022-12-17T11:22:10.368Z</time>
      </trkpt>
      <trkpt lat="47.11996" lon="-1.70897">
        <ele>51.38203</ele>
        <time>2022-12-17T11:22:12.364Z</time>
      </trkpt>
      <trkpt lat="47.11987" lon="-1.70903">
        <ele>51.245299</ele>
        <time>2022-12-17T11:22:14.395Z</time>
      </trkpt>
      <trkpt lat="47.11978" lon="-1.70909">
        <ele>51.099508</ele>
        <time>2022-12-17T11:22:16.379Z</time>
      </trkpt>
      <trkpt lat="47.11968" lon="-1.70915">
        <ele>50.942729</ele>
        <time>2022-12-17T11:22:18.394Z</time>
      </trkpt>
      <trkpt lat="47.11958" lon="-1.70922">
        <ele>50.787842</ele>
        <time>2022-12-17T11:22:20.364Z</time>
      </trkpt>
      <trkpt lat="47.11947" lon="-1.70929">
        <ele>50.621371</ele>
        <time>2022-12-17T11:22:22.361Z</time>
      </trkpt>
      <trkpt lat="47.11936" lon="-1.70936">
        <ele>50.447783</ele>
        <time>2022-12-17T11:22:24.366Z</time>
      </trkpt>
      <trkpt lat="47.11924" lon="-1.70944">
        <ele>50.266647</ele>
        <time>2022-12-17T11:22:26.366Z</time>
      </trkpt>
      <trkpt lat="47.11913" lon="-1.70952">
        <ele>50.090167</ele>
        <time>2022-12-17T11:22:28.383Z</time>
      </trkpt>
      <trkpt lat="47.11902" lon="-1.70959">
        <ele>49.924453</ele>
        <time>2022-12-17T11:22:30.388Z</time>
      </trkpt>
      <trkpt lat="47.11891" lon="-1.70965">
        <ele>49.992816</ele>
        <time>2022-12-17T11:22:32.364Z</time>
      </trkpt>
      <trkpt lat="47.11881" lon="-1.70971">
        <ele>50.0661</ele>
        <time>2022-12-17T11:22:34.372Z</time>
      </trkpt>
      <trkpt lat="47.11871" lon="-1.70978">
        <ele>50.133674</ele>
        <time>2022-12-17T11:22:36.404Z</time>
      </trkpt>
      <trkpt lat="47.11861" lon="-1.70985">
        <ele>50.205121</ele>
        <time>2022-12-17T11:22:38.388Z</time>
      </trkpt>
      <trkpt lat="47.11851" lon="-1.70991">
        <ele>50.276568</ele>
        <time>2022-12-17T11:22:40.385Z</time>
      </trkpt>
      <trkpt lat="47.1184" lon="-1.70997">
        <ele>50.348456</ele>
        <time>2022-12-17T11:22:42.365Z</time>
      </trkpt>
      <trkpt lat="47.1183" lon="-1.71004">
        <ele>50.421486</ele>
        <time>2022-12-17T11:22:44.389Z</time>
      </trkpt>
      <trkpt lat="47.1182" lon="-1.7101">
        <ele>50.491996</ele>
        <time>2022-12-17T11:22:46.387Z</time>
      </trkpt>
      <trkpt lat="47.11809" lon="-1.71016">
        <ele>50.563729</ele>
        <time>2022-12-17T11:22:48.378Z</time>
      </trkpt>
      <trkpt lat="47.11799" lon="-1.71024">
        <ele>50.635156</ele>
        <time>2022-12-17T11:22:50.388Z</time>
      </trkpt>
      <trkpt lat="47.11789" lon="-1.7103">
        <ele>50.70356</ele>
        <time>2022-12-17T11:22:52.365Z</time>
      </trkpt>
      <trkpt lat="47.1178" lon="-1.71037">
        <ele>50.770758</ele>
        <time>2022-12-17T11:22:54.384Z</time>
      </trkpt>
      <trkpt lat="47.1177" lon="-1.71043">
        <ele>50.838352</ele>
        <time>2022-12-17T11:22:56.380Z</time>
      </trkpt>
      <trkpt lat="47.11761" lon="-1.71048">
        <ele>50.901679</ele>
        <time>2022-12-17T11:22:58.383Z</time>
      </trkpt>
      <trkpt lat="47.11752" lon="-1.71054">
        <ele>50.967391</ele>
        <time>2022-12-17T11:23:00.392Z</time>
      </trkpt>
      <trkpt lat="47.11742" lon="-1.71061">
        <ele>51.03346</ele>
        <time>2022-12-17T11:23:02.365Z</time>
      </trkpt>
      <trkpt lat="47.11733" lon="-1.71067">
        <ele>51.050319</ele>
        <time>2022-12-17T11:23:04.386Z</time>
      </trkpt>
      <trkpt lat="47.11723" lon="-1.71074">
        <ele>51.005794</ele>
        <time>2022-12-17T11:23:06.388Z</time>
      </trkpt>
      <trkpt lat="47.11715" lon="-1.71079">
        <ele>50.966499</ele>
        <time>2022-12-17T11:23:08.370Z</time>
      </trkpt>
      <trkpt lat="47.11707" lon="-1.71085">
        <ele>50.927752</ele>
        <time>2022-12-17T11:23:10.381Z</time>
      </trkpt>
      <trkpt lat="47.11695" lon="-1.71092">
        <ele>50.872418</ele>
        <time>2022-12-17T11:23:13.390Z</time>
      </trkpt>
      <trkpt lat="47.11686" lon="-1.71098">
        <ele>50.832389</ele>
        <time>2022-12-17T11:23:15.380Z</time>
      </trkpt>
      <trkpt lat="47.11678" lon="-1.71103">
        <ele>50.793995</ele>
        <time>2022-12-17T11:23:17.393Z</time>
      </trkpt>
      <trkpt lat="47.1167" lon="-1.71109">
        <ele>50.753706</ele>
        <time>2022-12-17T11:23:19.393Z</time>
      </trkpt>
      <trkpt lat="47.11661" lon="-1.71115">
        <ele>50.712904</ele>
        <time>2022-12-17T11:23:21.394Z</time>
      </trkpt>
      <trkpt lat="47.11653" lon="-1.71123">
        <ele>50.671743</ele>
        <time>2022-12-17T11:23:23.391Z</time>
      </trkpt>
      <trkpt lat="47.11641" lon="-1.71132">
        <ele>50.613185</ele>
        <time>2022-12-17T11:23:26.387Z</time>
      </trkpt>
      <trkpt lat="47.11632" lon="-1.7114">
        <ele>50.570102</ele>
        <time>2022-12-17T11:23:28.380Z</time>
      </trkpt>
      <trkpt lat="47.11624" lon="-1.71147">
        <ele>50.527907</ele>
        <time>2022-12-17T11:23:30.388Z</time>
      </trkpt>
      <trkpt lat="47.11615" lon="-1.71155">
        <ele>50.484547</ele>
        <time>2022-12-17T11:23:32.364Z</time>
      </trkpt>
      <trkpt lat="47.11607" lon="-1.71164">
        <ele>50.440334</ele>
        <time>2022-12-17T11:23:34.395Z</time>
      </trkpt>
      <trkpt lat="47.11598" lon="-1.71174">
        <ele>50.394046</ele>
        <time>2022-12-17T11:23:36.393Z</time>
      </trkpt>
      <trkpt lat="47.1159" lon="-1.71184">
        <ele>50.347896</ele>
        <time>2022-12-17T11:23:38.386Z</time>
      </trkpt>
      <trkpt lat="47.11582" lon="-1.71194">
        <ele>50.30171</ele>
        <time>2022-12-17T11:23:40.378Z</time>
      </trkpt>
      <trkpt lat="47.11573" lon="-1.71205">
        <ele>50.122472</ele>
        <time>2022-12-17T11:23:42.362Z</time>
      </trkpt>
      <trkpt lat="47.11565" lon="-1.71217">
        <ele>49.924653</ele>
        <time>2022-12-17T11:23:44.371Z</time>
      </trkpt>
      <trkpt lat="47.11557" lon="-1.71228">
        <ele>49.732038</ele>
        <time>2022-12-17T11:23:46.385Z</time>
      </trkpt>
      <trkpt lat="47.11549" lon="-1.71241">
        <ele>49.537502</ele>
        <time>2022-12-17T11:23:48.385Z</time>
      </trkpt>
      <trkpt lat="47.11542" lon="-1.71254">
        <ele>49.344127</ele>
        <time>2022-12-17T11:23:50.385Z</time>
      </trkpt>
      <trkpt lat="47.11535" lon="-1.71266">
        <ele>49.164021</ele>
        <time>2022-12-17T11:23:52.366Z</time>
      </trkpt>
      <trkpt lat="47.11529" lon="-1.71278">
        <ele>48.999623</ele>
        <time>2022-12-17T11:23:54.384Z</time>
      </trkpt>
      <trkpt lat="47.11523" lon="-1.7129">
        <ele>48.828688</ele>
        <time>2022-12-17T11:23:56.364Z</time>
      </trkpt>
      <trkpt lat="47.11517" lon="-1.71302">
        <ele>48.662162</ele>
        <time>2022-12-17T11:23:58.366Z</time>
      </trkpt>
      <trkpt lat="47.11511" lon="-1.71314">
        <ele>48.487345</ele>
        <time>2022-12-17T11:24:00.372Z</time>
      </trkpt>
      <trkpt lat="47.11504" lon="-1.71326">
        <ele>48.31396</ele>
        <time>2022-12-17T11:24:02.365Z</time>
      </trkpt>
      <trkpt lat="47.11498" lon="-1.71338">
        <ele>48.131456</ele>
        <time>2022-12-17T11:24:04.380Z</time>
      </trkpt>
      <trkpt lat="47.11491" lon="-1.71351">
        <ele>47.948135</ele>
        <time>2022-12-17T11:24:06.385Z</time>
      </trkpt>
      <trkpt lat="47.11485" lon="-1.71364">
        <ele>47.761061</ele>
        <time>2022-12-17T11:24:08.382Z</time>
      </trkpt>
      <trkpt lat="47.11478" lon="-1.71378">
        <ele>47.574905</ele>
        <time>2022-12-17T11:24:10.385Z</time>
      </trkpt>
      <trkpt lat="47.11471" lon="-1.71391">
        <ele>47.384996</ele>
        <time>2022-12-17T11:24:12.368Z</time>
      </trkpt>
      <trkpt lat="47.11464" lon="-1.71405">
        <ele>47.260593</ele>
        <time>2022-12-17T11:24:14.369Z</time>
      </trkpt>
      <trkpt lat="47.11457" lon="-1.71418">
        <ele>47.22139</ele>
        <time>2022-12-17T11:24:16.366Z</time>
      </trkpt>
      <trkpt lat="47.1145" lon="-1.71431">
        <ele>47.180224</ele>
        <time>2022-12-17T11:24:18.380Z</time>
      </trkpt>
      <trkpt lat="47.11443" lon="-1.71445">
        <ele>47.140041</ele>
        <time>2022-12-17T11:24:20.369Z</time>
      </trkpt>
      <trkpt lat="47.11437" lon="-1.71458">
        <ele>47.099493</ele>
        <time>2022-12-17T11:24:22.367Z</time>
      </trkpt>
      <trkpt lat="47.1143" lon="-1.71472">
        <ele>47.057778</ele>
        <time>2022-12-17T11:24:24.370Z</time>
      </trkpt>
      <trkpt lat="47.11423" lon="-1.71486">
        <ele>47.016996</ele>
        <time>2022-12-17T11:24:26.375Z</time>
      </trkpt>
      <trkpt lat="47.11416" lon="-1.71499">
        <ele>46.975933</ele>
        <time>2022-12-17T11:24:28.369Z</time>
      </trkpt>
      <trkpt lat="47.11409" lon="-1.71513">
        <ele>46.934604</ele>
        <time>2022-12-17T11:24:30.388Z</time>
      </trkpt>
      <trkpt lat="47.11402" lon="-1.71527">
        <ele>46.892274</ele>
        <time>2022-12-17T11:24:32.365Z</time>
      </trkpt>
      <trkpt lat="47.11395" lon="-1.71542">
        <ele>46.84795</ele>
        <time>2022-12-17T11:24:34.382Z</time>
      </trkpt>
      <trkpt lat="47.11387" lon="-1.71556">
        <ele>46.804305</ele>
        <time>2022-12-17T11:24:36.367Z</time>
      </trkpt>
      <trkpt lat="47.1138" lon="-1.71569">
        <ele>46.764577</ele>
        <time>2022-12-17T11:24:38.376Z</time>
      </trkpt>
      <trkpt lat="47.11374" lon="-1.71582">
        <ele>46.725841</ele>
        <time>2022-12-17T11:24:40.380Z</time>
      </trkpt>
      <trkpt lat="47.11368" lon="-1.71595">
        <ele>46.689275</ele>
        <time>2022-12-17T11:24:42.366Z</time>
      </trkpt>
      <trkpt lat="47.11362" lon="-1.71605">
        <ele>46.656174</ele>
        <time>2022-12-17T11:24:44.366Z</time>
      </trkpt>
      <trkpt lat="47.11356" lon="-1.71616">
        <ele>46.72195</ele>
        <time>2022-12-17T11:24:46.368Z</time>
      </trkpt>
      <trkpt lat="47.11349" lon="-1.71632">
        <ele>46.918566</ele>
        <time>2022-12-17T11:24:49.375Z</time>
      </trkpt>
      <trkpt lat="47.11343" lon="-1.71643">
        <ele>47.058789</ele>
        <time>2022-12-17T11:24:51.383Z</time>
      </trkpt>
      <trkpt lat="47.11337" lon="-1.71654">
        <ele>47.201615</ele>
        <time>2022-12-17T11:24:53.373Z</time>
      </trkpt>
      <trkpt lat="47.11331" lon="-1.71666">
        <ele>47.347267</ele>
        <time>2022-12-17T11:24:55.371Z</time>
      </trkpt>
      <trkpt lat="47.11325" lon="-1.71677">
        <ele>47.491879</ele>
        <time>2022-12-17T11:24:57.394Z</time>
      </trkpt>
      <trkpt lat="47.11319" lon="-1.71689">
        <ele>47.642109</ele>
        <time>2022-12-17T11:24:59.380Z</time>
      </trkpt>
      <trkpt lat="47.11313" lon="-1.71701">
        <ele>47.791604</ele>
        <time>2022-12-17T11:25:01.385Z</time>
      </trkpt>
      <trkpt lat="47.11307" lon="-1.71713">
        <ele>47.945279</ele>
        <time>2022-12-17T11:25:03.369Z</time>
      </trkpt>
      <trkpt lat="47.11301" lon="-1.71725">
        <ele>48.092209</ele>
        <time>2022-12-17T11:25:05.390Z</time>
      </trkpt>
      <trkpt lat="47.11295" lon="-1.71737">
        <ele>48.236649</ele>
        <time>2022-12-17T11:25:07.379Z</time>
      </trkpt>
      <trkpt lat="47.11289" lon="-1.71749">
        <ele>48.388846</ele>
        <time>2022-12-17T11:25:09.384Z</time>
      </trkpt>
      <trkpt lat="47.11282" lon="-1.7176">
        <ele>48.538438</ele>
        <time>2022-12-17T11:25:11.381Z</time>
      </trkpt>
      <trkpt lat="47.11277" lon="-1.71772">
        <ele>48.680335</ele>
        <time>2022-12-17T11:25:13.387Z</time>
      </trkpt>
      <trkpt lat="47.11272" lon="-1.71783">
        <ele>48.816385</ele>
        <time>2022-12-17T11:25:15.383Z</time>
      </trkpt>
      <trkpt lat="47.11266" lon="-1.71794">
        <ele>48.948374</ele>
        <time>2022-12-17T11:25:17.376Z</time>
      </trkpt>
      <trkpt lat="47.1126" lon="-1.71809">
        <ele>49.131923</ele>
        <time>2022-12-17T11:25:20.378Z</time>
      </trkpt>
      <trkpt lat="47.11254" lon="-1.71823">
        <ele>49.304542</ele>
        <time>2022-12-17T11:25:23.382Z</time>
      </trkpt>
      <trkpt lat="47.11249" lon="-1.71837">
        <ele>49.730861</ele>
        <time>2022-12-17T11:25:26.369Z</time>
      </trkpt>
      <trkpt lat="47.11244" lon="-1.71851">
        <ele>50.132962</ele>
        <time>2022-12-17T11:25:29.386Z</time>
      </trkpt>
      <trkpt lat="47.1124" lon="-1.71865">
        <ele>50.530227</ele>
        <time>2022-12-17T11:25:32.365Z</time>
      </trkpt>
      <trkpt lat="47.11236" lon="-1.71878">
        <ele>50.920943</ele>
        <time>2022-12-17T11:25:35.363Z</time>
      </trkpt>
      <trkpt lat="47.11232" lon="-1.71892">
        <ele>51.323648</ele>
        <time>2022-12-17T11:25:38.364Z</time>
      </trkpt>
      <trkpt lat="47.11228" lon="-1.71906">
        <ele>51.727403</ele>
        <time>2022-12-17T11:25:41.384Z</time>
      </trkpt>
      <trkpt lat="47.11226" lon="-1.71919">
        <ele>52.100701</ele>
        <time>2022-12-17T11:25:44.383Z</time>
      </trkpt>
      <trkpt lat="47.11222" lon="-1.71932">
        <ele>52.482808</ele>
        <time>2022-12-17T11:25:47.385Z</time>
      </trkpt>
      <trkpt lat="47.11219" lon="-1.71946">
        <ele>52.881388</ele>
        <time>2022-12-17T11:25:50.371Z</time>
      </trkpt>
      <trkpt lat="47.11215" lon="-1.7196">
        <ele>53.266249</ele>
        <time>2022-12-17T11:25:53.390Z</time>
      </trkpt>
      <trkpt lat="47.11213" lon="-1.71973">
        <ele>53.628137</ele>
        <time>2022-12-17T11:25:56.370Z</time>
      </trkpt>
      <trkpt lat="47.11209" lon="-1.71988">
        <ele>54.067376</ele>
        <time>2022-12-17T11:26:00.387Z</time>
      </trkpt>
      <trkpt lat="47.11206" lon="-1.72001">
        <ele>54.425337</ele>
        <time>2022-12-17T11:26:03.385Z</time>
      </trkpt>
      <trkpt lat="47.11203" lon="-1.72015">
        <ele>54.82134</ele>
        <time>2022-12-17T11:26:06.387Z</time>
      </trkpt>
      <trkpt lat="47.112" lon="-1.72028">
        <ele>55.213551</ele>
        <time>2022-12-17T11:26:09.388Z</time>
      </trkpt>
      <trkpt lat="47.11196" lon="-1.72043">
        <ele>55.634985</ele>
        <time>2022-12-17T11:26:12.365Z</time>
      </trkpt>
      <trkpt lat="47.11192" lon="-1.72059">
        <ele>56.079217</ele>
        <time>2022-12-17T11:26:15.371Z</time>
      </trkpt>
      <trkpt lat="47.11189" lon="-1.72075">
        <ele>56.376302</ele>
        <time>2022-12-17T11:26:18.373Z</time>
      </trkpt>
      <trkpt lat="47.11185" lon="-1.72091">
        <ele>56.360544</ele>
        <time>2022-12-17T11:26:21.368Z</time>
      </trkpt>
      <trkpt lat="47.11181" lon="-1.72106">
        <ele>56.34457</ele>
        <time>2022-12-17T11:26:24.388Z</time>
      </trkpt>
      <trkpt lat="47.11177" lon="-1.72123">
        <ele>56.327963</ele>
        <time>2022-12-17T11:26:27.387Z</time>
      </trkpt>
      <trkpt lat="47.11173" lon="-1.72139">
        <ele>56.310917</ele>
        <time>2022-12-17T11:26:30.375Z</time>
      </trkpt>
      <trkpt lat="47.11168" lon="-1.72157">
        <ele>56.29322</ele>
        <time>2022-12-17T11:26:33.386Z</time>
      </trkpt>
      <trkpt lat="47.11164" lon="-1.72175">
        <ele>56.274929</ele>
        <time>2022-12-17T11:26:36.377Z</time>
      </trkpt>
      <trkpt lat="47.1116" lon="-1.72192">
        <ele>56.257325</ele>
        <time>2022-12-17T11:26:39.385Z</time>
      </trkpt>
      <trkpt lat="47.11156" lon="-1.72208">
        <ele>56.240935</ele>
        <time>2022-12-17T11:26:42.369Z</time>
      </trkpt>
      <trkpt lat="47.11152" lon="-1.72225">
        <ele>56.223693</ele>
        <time>2022-12-17T11:26:45.385Z</time>
      </trkpt>
      <trkpt lat="47.11148" lon="-1.72244">
        <ele>56.205092</ele>
        <time>2022-12-17T11:26:48.366Z</time>
      </trkpt>
      <trkpt lat="47.11144" lon="-1.72258">
        <ele>56.190287</ele>
        <time>2022-12-17T11:26:50.366Z</time>
      </trkpt>
      <trkpt lat="47.1114" lon="-1.72273">
        <ele>56.175382</ele>
        <time>2022-12-17T11:26:52.372Z</time>
      </trkpt>
      <trkpt lat="47.11137" lon="-1.72288">
        <ele>56.160404</ele>
        <time>2022-12-17T11:26:54.366Z</time>
      </trkpt>
      <trkpt lat="47.11133" lon="-1.72303">
        <ele>56.145103</ele>
        <time>2022-12-17T11:26:56.385Z</time>
      </trkpt>
      <trkpt lat="47.11128" lon="-1.72321">
        <ele>56.140175</ele>
        <time>2022-12-17T11:26:59.390Z</time>
      </trkpt>
      <trkpt lat="47.11125" lon="-1.72335">
        <ele>56.196215</ele>
        <time>2022-12-17T11:27:01.384Z</time>
      </trkpt>
      <trkpt lat="47.11122" lon="-1.72348">
        <ele>56.253727</ele>
        <time>2022-12-17T11:27:03.387Z</time>
      </trkpt>
      <trkpt lat="47.11118" lon="-1.72363">
        <ele>56.312615</ele>
        <time>2022-12-17T11:27:05.368Z</time>
      </trkpt>
      <trkpt lat="47.11115" lon="-1.72377">
        <ele>56.371868</ele>
        <time>2022-12-17T11:27:07.377Z</time>
      </trkpt>
      <trkpt lat="47.11112" lon="-1.72391">
        <ele>56.42912</ele>
        <time>2022-12-17T11:27:09.377Z</time>
      </trkpt>
      <trkpt lat="47.11109" lon="-1.72406">
        <ele>56.48878</ele>
        <time>2022-12-17T11:27:11.365Z</time>
      </trkpt>
      <trkpt lat="47.11105" lon="-1.72421">
        <ele>56.550063</ele>
        <time>2022-12-17T11:27:13.387Z</time>
      </trkpt>
      <trkpt lat="47.11102" lon="-1.72435">
        <ele>56.607484</ele>
        <time>2022-12-17T11:27:15.379Z</time>
      </trkpt>
      <trkpt lat="47.11099" lon="-1.72449">
        <ele>56.667144</ele>
        <time>2022-12-17T11:27:17.383Z</time>
      </trkpt>
      <trkpt lat="47.11096" lon="-1.72463">
        <ele>56.72382</ele>
        <time>2022-12-17T11:27:19.385Z</time>
      </trkpt>
      <trkpt lat="47.11093" lon="-1.72477">
        <ele>56.781793</ele>
        <time>2022-12-17T11:27:21.385Z</time>
      </trkpt>
      <trkpt lat="47.1109" lon="-1.72491">
        <ele>56.83852</ele>
        <time>2022-12-17T11:27:23.379Z</time>
      </trkpt>
      <trkpt lat="47.11087" lon="-1.72507">
        <ele>56.900487</ele>
        <time>2022-12-17T11:27:25.387Z</time>
      </trkpt>
      <trkpt lat="47.11085" lon="-1.72522">
        <ele>56.96102</ele>
        <time>2022-12-17T11:27:27.398Z</time>
      </trkpt>
      <trkpt lat="47.11084" lon="-1.72536">
        <ele>57.017738</ele>
        <time>2022-12-17T11:27:29.379Z</time>
      </trkpt>
      <trkpt lat="47.11084" lon="-1.7255">
        <ele>57.071245</ele>
        <time>2022-12-17T11:27:31.368Z</time>
      </trkpt>
      <trkpt lat="47.11086" lon="-1.72564">
        <ele>57.125979</ele>
        <time>2022-12-17T11:27:33.366Z</time>
      </trkpt>
      <trkpt lat="47.11088" lon="-1.72578">
        <ele>57.152173</ele>
        <time>2022-12-17T11:27:35.378Z</time>
      </trkpt>
      <trkpt lat="47.11091" lon="-1.72591">
        <ele>57.1433</ele>
        <time>2022-12-17T11:27:37.392Z</time>
      </trkpt>
      <trkpt lat="47.11097" lon="-1.72609">
        <ele>57.130286</ele>
        <time>2022-12-17T11:27:40.384Z</time>
      </trkpt>
      <trkpt lat="47.11099" lon="-1.72622">
        <ele>57.120877</ele>
        <time>2022-12-17T11:27:42.365Z</time>
      </trkpt>
      <trkpt lat="47.11103" lon="-1.72636">
        <ele>57.11123</ele>
        <time>2022-12-17T11:27:44.378Z</time>
      </trkpt>
      <trkpt lat="47.11106" lon="-1.72649">
        <ele>57.101989</ele>
        <time>2022-12-17T11:27:46.390Z</time>
      </trkpt>
      <trkpt lat="47.11109" lon="-1.72662">
        <ele>57.092838</ele>
        <time>2022-12-17T11:27:48.377Z</time>
      </trkpt>
      <trkpt lat="47.11112" lon="-1.72675">
        <ele>57.083754</ele>
        <time>2022-12-17T11:27:50.387Z</time>
      </trkpt>
      <trkpt lat="47.11116" lon="-1.72688">
        <ele>57.074517</ele>
        <time>2022-12-17T11:27:52.366Z</time>
      </trkpt>
      <trkpt lat="47.11119" lon="-1.72702">
        <ele>57.064693</ele>
        <time>2022-12-17T11:27:54.387Z</time>
      </trkpt>
      <trkpt lat="47.11123" lon="-1.72716">
        <ele>57.054921</ele>
        <time>2022-12-17T11:27:56.374Z</time>
      </trkpt>
      <trkpt lat="47.11127" lon="-1.72729">
        <ele>57.045257</ele>
        <time>2022-12-17T11:27:58.370Z</time>
      </trkpt>
      <trkpt lat="47.11131" lon="-1.72743">
        <ele>57.035357</ele>
        <time>2022-12-17T11:28:00.390Z</time>
      </trkpt>
      <trkpt lat="47.11135" lon="-1.72757">
        <ele>57.025456</ele>
        <time>2022-12-17T11:28:02.368Z</time>
      </trkpt>
      <trkpt lat="47.11138" lon="-1.72771">
        <ele>57.015275</ele>
        <time>2022-12-17T11:28:04.384Z</time>
      </trkpt>
      <trkpt lat="47.11141" lon="-1.72786">
        <ele>57.005254</ele>
        <time>2022-12-17T11:28:06.386Z</time>
      </trkpt>
      <trkpt lat="47.11145" lon="-1.728">
        <ele>56.99539</ele>
        <time>2022-12-17T11:28:08.382Z</time>
      </trkpt>
      <trkpt lat="47.11148" lon="-1.72813">
        <ele>56.986044</ele>
        <time>2022-12-17T11:28:10.385Z</time>
      </trkpt>
      <trkpt lat="47.11151" lon="-1.72827">
        <ele>56.975164</ele>
        <time>2022-12-17T11:28:12.371Z</time>
      </trkpt>
      <trkpt lat="47.11155" lon="-1.72839">
        <ele>56.963984</ele>
        <time>2022-12-17T11:28:14.386Z</time>
      </trkpt>
      <trkpt lat="47.11158" lon="-1.72853">
        <ele>56.952076</ele>
        <time>2022-12-17T11:28:16.370Z</time>
      </trkpt>
      <trkpt lat="47.1116" lon="-1.72868">
        <ele>56.939583</ele>
        <time>2022-12-17T11:28:18.371Z</time>
      </trkpt>
      <trkpt lat="47.11163" lon="-1.72882">
        <ele>56.927326</ele>
        <time>2022-12-17T11:28:20.390Z</time>
      </trkpt>
      <trkpt lat="47.11166" lon="-1.72896">
        <ele>56.915609</ele>
        <time>2022-12-17T11:28:22.371Z</time>
      </trkpt>
      <trkpt lat="47.1117" lon="-1.7291">
        <ele>56.903119</ele>
        <time>2022-12-17T11:28:24.372Z</time>
      </trkpt>
      <trkpt lat="47.11172" lon="-1.72924">
        <ele>56.891008</ele>
        <time>2022-12-17T11:28:26.370Z</time>
      </trkpt>
      <trkpt lat="47.11177" lon="-1.72943">
        <ele>56.874674</ele>
        <time>2022-12-17T11:28:29.381Z</time>
      </trkpt>
      <trkpt lat="47.1118" lon="-1.72956">
        <ele>56.863701</ele>
        <time>2022-12-17T11:28:31.384Z</time>
      </trkpt>
      <trkpt lat="47.11183" lon="-1.72975">
        <ele>56.847197</ele>
        <time>2022-12-17T11:28:34.377Z</time>
      </trkpt>
      <trkpt lat="47.11187" lon="-1.72988">
        <ele>56.835789</ele>
        <time>2022-12-17T11:28:36.382Z</time>
      </trkpt>
      <trkpt lat="47.1119" lon="-1.73001">
        <ele>56.824551</ele>
        <time>2022-12-17T11:28:38.389Z</time>
      </trkpt>
      <trkpt lat="47.11194" lon="-1.7302">
        <ele>56.808092</ele>
        <time>2022-12-17T11:28:41.384Z</time>
      </trkpt>
      <trkpt lat="47.11199" lon="-1.73037">
        <ele>56.792699</ele>
        <time>2022-12-17T11:28:44.380Z</time>
      </trkpt>
      <trkpt lat="47.11203" lon="-1.73054">
        <ele>56.778389</ele>
        <time>2022-12-17T11:28:47.386Z</time>
      </trkpt>
      <trkpt lat="47.11206" lon="-1.73071">
        <ele>56.745141</ele>
        <time>2022-12-17T11:28:50.380Z</time>
      </trkpt>
      <trkpt lat="47.1121" lon="-1.73087">
        <ele>56.47651</ele>
        <time>2022-12-17T11:28:53.377Z</time>
      </trkpt>
      <trkpt lat="47.11213" lon="-1.73103">
        <ele>56.213093</ele>
        <time>2022-12-17T11:28:56.389Z</time>
      </trkpt>
      <trkpt lat="47.11217" lon="-1.7312">
        <ele>55.934635</ele>
        <time>2022-12-17T11:29:00.387Z</time>
      </trkpt>
      <trkpt lat="47.11221" lon="-1.73135">
        <ele>55.68242</ele>
        <time>2022-12-17T11:29:03.374Z</time>
      </trkpt>
      <trkpt lat="47.11224" lon="-1.73152">
        <ele>55.395546</ele>
        <time>2022-12-17T11:29:06.365Z</time>
      </trkpt>
      <trkpt lat="47.11227" lon="-1.73165">
        <ele>55.180658</ele>
        <time>2022-12-17T11:29:08.386Z</time>
      </trkpt>
      <trkpt lat="47.11231" lon="-1.73178">
        <ele>54.957637</ele>
        <time>2022-12-17T11:29:10.388Z</time>
      </trkpt>
      <trkpt lat="47.11234" lon="-1.73191">
        <ele>54.748703</ele>
        <time>2022-12-17T11:29:12.367Z</time>
      </trkpt>
      <trkpt lat="47.11238" lon="-1.73203">
        <ele>54.537097</ele>
        <time>2022-12-17T11:29:14.381Z</time>
      </trkpt>
      <trkpt lat="47.1124" lon="-1.73217">
        <ele>54.307725</ele>
        <time>2022-12-17T11:29:16.383Z</time>
      </trkpt>
      <trkpt lat="47.11243" lon="-1.73231">
        <ele>54.077091</ele>
        <time>2022-12-17T11:29:18.368Z</time>
      </trkpt>
      <trkpt lat="47.11246" lon="-1.73244">
        <ele>53.86111</ele>
        <time>2022-12-17T11:29:20.387Z</time>
      </trkpt>
      <trkpt lat="47.1125" lon="-1.73259">
        <ele>53.614483</ele>
        <time>2022-12-17T11:29:22.365Z</time>
      </trkpt>
      <trkpt lat="47.11254" lon="-1.73273">
        <ele>53.375712</ele>
        <time>2022-12-17T11:29:24.383Z</time>
      </trkpt>
      <trkpt lat="47.11256" lon="-1.73287">
        <ele>53.143306</ele>
        <time>2022-12-17T11:29:26.387Z</time>
      </trkpt>
      <trkpt lat="47.11258" lon="-1.73303">
        <ele>52.89264</ele>
        <time>2022-12-17T11:29:28.369Z</time>
      </trkpt>
      <trkpt lat="47.11259" lon="-1.73318">
        <ele>52.644468</ele>
        <time>2022-12-17T11:29:30.391Z</time>
      </trkpt>
      <trkpt lat="47.1126" lon="-1.73334">
        <ele>52.485057</ele>
        <time>2022-12-17T11:29:32.370Z</time>
      </trkpt>
      <trkpt lat="47.11263" lon="-1.73354">
        <ele>52.31783</ele>
        <time>2022-12-17T11:29:35.376Z</time>
      </trkpt>
      <trkpt lat="47.11262" lon="-1.73369">
        <ele>52.187973</ele>
        <time>2022-12-17T11:29:37.384Z</time>
      </trkpt>
      <trkpt lat="47.11263" lon="-1.73383">
        <ele>52.063498</ele>
        <time>2022-12-17T11:29:39.386Z</time>
      </trkpt>
      <trkpt lat="47.11264" lon="-1.73398">
        <ele>51.935268</ele>
        <time>2022-12-17T11:29:41.386Z</time>
      </trkpt>
      <trkpt lat="47.11264" lon="-1.73412">
        <ele>51.817456</ele>
        <time>2022-12-17T11:29:43.391Z</time>
      </trkpt>
      <trkpt lat="47.11266" lon="-1.73428">
        <ele>51.675161</ele>
        <time>2022-12-17T11:29:45.391Z</time>
      </trkpt>
      <trkpt lat="47.11267" lon="-1.73441">
        <ele>51.557289</ele>
        <time>2022-12-17T11:29:47.383Z</time>
      </trkpt>
      <trkpt lat="47.11268" lon="-1.73455">
        <ele>51.437755</ele>
        <time>2022-12-17T11:29:49.386Z</time>
      </trkpt>
      <trkpt lat="47.1127" lon="-1.73469">
        <ele>51.319655</ele>
        <time>2022-12-17T11:29:51.378Z</time>
      </trkpt>
      <trkpt lat="47.1127" lon="-1.73488">
        <ele>51.156091</ele>
        <time>2022-12-17T11:29:54.389Z</time>
      </trkpt>
      <trkpt lat="47.11271" lon="-1.73501">
        <ele>51.040686</ele>
        <time>2022-12-17T11:29:56.392Z</time>
      </trkpt>
      <trkpt lat="47.11271" lon="-1.73519">
        <ele>50.890192</ele>
        <time>2022-12-17T11:29:59.385Z</time>
      </trkpt>
      <trkpt lat="47.11271" lon="-1.73534">
        <ele>50.761663</ele>
        <time>2022-12-17T11:30:02.368Z</time>
      </trkpt>
      <trkpt lat="47.11274" lon="-1.73547">
        <ele>50.639539</ele>
        <time>2022-12-17T11:30:06.370Z</time>
      </trkpt>
      <trkpt lat="47.11276" lon="-1.73561">
        <ele>50.519202</ele>
        <time>2022-12-17T11:30:11.386Z</time>
      </trkpt>
      <trkpt lat="47.11275" lon="-1.73563">
        <ele>50.50075</ele>
        <time>2022-12-17T11:30:23.291Z</time>
      </trkpt>
      <trkpt lat="47.11287" lon="-1.73578">
        <ele>50.322306</ele>
        <time>2022-12-17T11:34:00.381Z</time>
      </trkpt>
      <trkpt lat="47.11297" lon="-1.73586">
        <ele>50.297018</ele>
        <time>2022-12-17T11:34:05.379Z</time>
      </trkpt>
      <trkpt lat="47.11303" lon="-1.73597">
        <ele>50.276269</ele>
        <time>2022-12-17T11:34:08.391Z</time>
      </trkpt>
      <trkpt lat="47.1131" lon="-1.7361">
        <ele>50.253401</ele>
        <time>2022-12-17T11:34:11.391Z</time>
      </trkpt>
      <trkpt lat="47.11316" lon="-1.73621">
        <ele>50.231986</ele>
        <time>2022-12-17T11:34:14.382Z</time>
      </trkpt>
      <trkpt lat="47.11322" lon="-1.73633">
        <ele>50.209781</ele>
        <time>2022-12-17T11:34:17.371Z</time>
      </trkpt>
      <trkpt lat="47.11329" lon="-1.73647">
        <ele>50.184207</ele>
        <time>2022-12-17T11:34:20.728Z</time>
      </trkpt>
      <trkpt lat="47.11337" lon="-1.73662">
        <ele>50.157226</ele>
        <time>2022-12-17T11:34:23.376Z</time>
      </trkpt>
      <trkpt lat="47.11345" lon="-1.73677">
        <ele>50.128542</ele>
        <time>2022-12-17T11:34:26.380Z</time>
      </trkpt>
      <trkpt lat="47.11351" lon="-1.73689">
        <ele>50.10709</ele>
        <time>2022-12-17T11:34:28.376Z</time>
      </trkpt>
      <trkpt lat="47.11356" lon="-1.737">
        <ele>50.087444</ele>
        <time>2022-12-17T11:34:30.381Z</time>
      </trkpt>
      <trkpt lat="47.11364" lon="-1.73715">
        <ele>50.059301</ele>
        <time>2022-12-17T11:34:33.376Z</time>
      </trkpt>
      <trkpt lat="47.11371" lon="-1.73729">
        <ele>50.034079</ele>
        <time>2022-12-17T11:34:36.378Z</time>
      </trkpt>
      <trkpt lat="47.11378" lon="-1.73745">
        <ele>50.005234</ele>
        <time>2022-12-17T11:34:39.379Z</time>
      </trkpt>
      <trkpt lat="47.11382" lon="-1.73758">
        <ele>49.985251</ele>
        <time>2022-12-17T11:34:41.381Z</time>
      </trkpt>
      <trkpt lat="47.11386" lon="-1.7377">
        <ele>49.965599</ele>
        <time>2022-12-17T11:34:43.375Z</time>
      </trkpt>
      <trkpt lat="47.1139" lon="-1.73782">
        <ele>49.945747</ele>
        <time>2022-12-17T11:34:45.392Z</time>
      </trkpt>
      <trkpt lat="47.11395" lon="-1.73799">
        <ele>49.762219</ele>
        <time>2022-12-17T11:34:48.380Z</time>
      </trkpt>
      <trkpt lat="47.114" lon="-1.73814">
        <ele>49.555115</ele>
        <time>2022-12-17T11:34:51.380Z</time>
      </trkpt>
      <trkpt lat="47.11405" lon="-1.73831">
        <ele>49.310468</ele>
        <time>2022-12-17T11:34:54.391Z</time>
      </trkpt>
      <trkpt lat="47.11411" lon="-1.73848">
        <ele>49.070325</ele>
        <time>2022-12-17T11:34:57.380Z</time>
      </trkpt>
      <trkpt lat="47.11415" lon="-1.73863">
        <ele>48.84911</ele>
        <time>2022-12-17T11:35:00.383Z</time>
      </trkpt>
      <trkpt lat="47.1142" lon="-1.73878">
        <ele>48.645487</ele>
        <time>2022-12-17T11:35:03.375Z</time>
      </trkpt>
      <trkpt lat="47.11424" lon="-1.7389">
        <ele>48.464684</ele>
        <time>2022-12-17T11:35:06.385Z</time>
      </trkpt>
      <trkpt lat="47.11428" lon="-1.73902">
        <ele>48.291109</ele>
        <time>2022-12-17T11:35:09.387Z</time>
      </trkpt>
      <trkpt lat="47.11434" lon="-1.73917">
        <ele>48.069654</ele>
        <time>2022-12-17T11:35:12.380Z</time>
      </trkpt>
      <trkpt lat="47.11438" lon="-1.73931">
        <ele>47.877142</ele>
        <time>2022-12-17T11:35:14.398Z</time>
      </trkpt>
      <trkpt lat="47.11443" lon="-1.73943">
        <ele>47.691293</ele>
        <time>2022-12-17T11:35:16.387Z</time>
      </trkpt>
      <trkpt lat="47.1145" lon="-1.73955">
        <ele>47.492574</ele>
        <time>2022-12-17T11:35:18.396Z</time>
      </trkpt>
      <trkpt lat="47.11456" lon="-1.73966">
        <ele>47.311946</ele>
        <time>2022-12-17T11:35:20.395Z</time>
      </trkpt>
      <trkpt lat="47.11463" lon="-1.73974">
        <ele>47.136665</ele>
        <time>2022-12-17T11:35:22.374Z</time>
      </trkpt>
      <trkpt lat="47.11475" lon="-1.73983">
        <ele>46.88156</ele>
        <time>2022-12-17T11:35:25.378Z</time>
      </trkpt>
      <trkpt lat="47.11486" lon="-1.73991">
        <ele>46.656013</ele>
        <time>2022-12-17T11:35:28.391Z</time>
      </trkpt>
      <trkpt lat="47.11495" lon="-1.73994">
        <ele>46.573403</ele>
        <time>2022-12-17T11:35:31.377Z</time>
      </trkpt>
      <trkpt lat="47.11502" lon="-1.74003">
        <ele>46.735298</ele>
        <time>2022-12-17T11:35:49.378Z</time>
      </trkpt>
      <trkpt lat="47.11493" lon="-1.74001">
        <ele>46.895703</ele>
        <time>2022-12-17T11:36:08.383Z</time>
      </trkpt>
      <trkpt lat="47.11484" lon="-1.73997">
        <ele>47.06843</ele>
        <time>2022-12-17T11:36:13.392Z</time>
      </trkpt>
      <trkpt lat="47.11474" lon="-1.73993">
        <ele>47.247464</ele>
        <time>2022-12-17T11:36:17.386Z</time>
      </trkpt>
      <trkpt lat="47.11464" lon="-1.73985">
        <ele>47.441902</ele>
        <time>2022-12-17T11:36:21.389Z</time>
      </trkpt>
      <trkpt lat="47.11455" lon="-1.73976">
        <ele>47.626318</ele>
        <time>2022-12-17T11:36:25.390Z</time>
      </trkpt>
      <trkpt lat="47.11447" lon="-1.73966">
        <ele>47.823608</ele>
        <time>2022-12-17T11:36:29.392Z</time>
      </trkpt>
      <trkpt lat="47.11439" lon="-1.73954">
        <ele>48.019442</ele>
        <time>2022-12-17T11:36:33.390Z</time>
      </trkpt>
      <trkpt lat="47.11433" lon="-1.7394">
        <ele>48.220536</ele>
        <time>2022-12-17T11:36:37.386Z</time>
      </trkpt>
      <trkpt lat="47.11428" lon="-1.73927">
        <ele>48.395842</ele>
        <time>2022-12-17T11:36:41.382Z</time>
      </trkpt>
      <trkpt lat="47.11425" lon="-1.73914">
        <ele>48.56666</ele>
        <time>2022-12-17T11:36:45.377Z</time>
      </trkpt>
      <trkpt lat="47.11422" lon="-1.73899">
        <ele>48.749811</ele>
        <time>2022-12-17T11:36:49.390Z</time>
      </trkpt>
      <trkpt lat="47.11418" lon="-1.73887">
        <ele>48.912406</ele>
        <time>2022-12-17T11:36:53.390Z</time>
      </trkpt>
      <trkpt lat="47.11415" lon="-1.73871">
        <ele>49.112177</ele>
        <time>2022-12-17T11:36:58.374Z</time>
      </trkpt>
      <trkpt lat="47.1141" lon="-1.73857">
        <ele>49.302186</ele>
        <time>2022-12-17T11:37:02.380Z</time>
      </trkpt>
      <trkpt lat="47.11406" lon="-1.73844">
        <ele>49.467652</ele>
        <time>2022-12-17T11:37:05.374Z</time>
      </trkpt>
      <trkpt lat="47.11401" lon="-1.73831">
        <ele>49.646111</ele>
        <time>2022-12-17T11:37:08.377Z</time>
      </trkpt>
      <trkpt lat="47.11396" lon="-1.73817">
        <ele>49.874597</ele>
        <time>2022-12-17T11:37:11.379Z</time>
      </trkpt>
      <trkpt lat="47.11392" lon="-1.73803">
        <ele>50.119168</ele>
        <time>2022-12-17T11:37:14.403Z</time>
      </trkpt>
      <trkpt lat="47.11388" lon="-1.73789">
        <ele>50.369221</ele>
        <time>2022-12-17T11:37:17.376Z</time>
      </trkpt>
      <trkpt lat="47.11383" lon="-1.73775">
        <ele>50.611744</ele>
        <time>2022-12-17T11:37:20.379Z</time>
      </trkpt>
      <trkpt lat="47.11379" lon="-1.73761">
        <ele>50.863857</ele>
        <time>2022-12-17T11:37:23.392Z</time>
      </trkpt>
      <trkpt lat="47.11374" lon="-1.73746">
        <ele>51.117984</ele>
        <time>2022-12-17T11:37:26.381Z</time>
      </trkpt>
      <trkpt lat="47.11369" lon="-1.73732">
        <ele>51.371374</ele>
        <time>2022-12-17T11:37:29.389Z</time>
      </trkpt>
      <trkpt lat="47.11363" lon="-1.73721">
        <ele>51.592893</ele>
        <time>2022-12-17T11:37:32.376Z</time>
      </trkpt>
      <trkpt lat="47.11356" lon="-1.73707">
        <ele>51.868075</ele>
        <time>2022-12-17T11:37:36.379Z</time>
      </trkpt>
      <trkpt lat="47.1135" lon="-1.73694">
        <ele>52.109161</ele>
        <time>2022-12-17T11:37:39.374Z</time>
      </trkpt>
      <trkpt lat="47.11344" lon="-1.73681">
        <ele>52.369961</ele>
        <time>2022-12-17T11:37:42.374Z</time>
      </trkpt>
      <trkpt lat="47.11337" lon="-1.73668">
        <ele>52.629472</ele>
        <time>2022-12-17T11:37:45.394Z</time>
      </trkpt>
      <trkpt lat="47.11331" lon="-1.73656">
        <ele>52.863064</ele>
        <time>2022-12-17T11:37:48.382Z</time>
      </trkpt>
      <trkpt lat="47.11326" lon="-1.73645">
        <ele>53.081958</ele>
        <time>2022-12-17T11:37:51.380Z</time>
      </trkpt>
      <trkpt lat="47.11319" lon="-1.73632">
        <ele>53.330024</ele>
        <time>2022-12-17T11:37:54.382Z</time>
      </trkpt>
      <trkpt lat="47.11313" lon="-1.73619">
        <ele>53.585547</ele>
        <time>2022-12-17T11:37:57.389Z</time>
      </trkpt>
      <trkpt lat="47.11308" lon="-1.73606">
        <ele>53.828151</ele>
        <time>2022-12-17T11:38:00.389Z</time>
      </trkpt>
      <trkpt lat="47.11301" lon="-1.73595">
        <ele>53.718947</ele>
        <time>2022-12-17T11:38:03.377Z</time>
      </trkpt>
      <trkpt lat="47.11295" lon="-1.73582">
        <ele>53.487847</ele>
        <time>2022-12-17T11:38:07.380Z</time>
      </trkpt>
      <trkpt lat="47.11288" lon="-1.73569">
        <ele>53.261828</ele>
        <time>2022-12-17T11:38:11.395Z</time>
      </trkpt>
      <trkpt lat="47.11282" lon="-1.73559">
        <ele>53.067278</ele>
        <time>2022-12-17T11:38:15.380Z</time>
      </trkpt>
      <trkpt lat="47.11273" lon="-1.73556">
        <ele>52.86329</ele>
        <time>2022-12-17T11:38:19.369Z</time>
      </trkpt>
      <trkpt lat="47.11262" lon="-1.73557">
        <ele>52.639724</ele>
        <time>2022-12-17T11:38:23.379Z</time>
      </trkpt>
      <trkpt lat="47.11239" lon="-1.73559">
        <ele>52.136372</ele>
        <time>2022-12-17T11:38:49.381Z</time>
      </trkpt>
      <trkpt lat="47.11228" lon="-1.73559">
        <ele>51.901645</ele>
        <time>2022-12-17T11:38:52.381Z</time>
      </trkpt>
      <trkpt lat="47.11217" lon="-1.73559">
        <ele>51.669078</ele>
        <time>2022-12-17T11:38:55.376Z</time>
      </trkpt>
      <trkpt lat="47.11205" lon="-1.73558">
        <ele>51.432287</ele>
        <time>2022-12-17T11:38:58.407Z</time>
      </trkpt>
      <trkpt lat="47.11194" lon="-1.73557">
        <ele>51.193059</ele>
        <time>2022-12-17T11:39:01.398Z</time>
      </trkpt>
      <trkpt lat="47.11183" lon="-1.73558">
        <ele>50.966719</ele>
        <time>2022-12-17T11:39:04.375Z</time>
      </trkpt>
      <trkpt lat="47.11172" lon="-1.73557">
        <ele>50.733726</ele>
        <time>2022-12-17T11:39:07.378Z</time>
      </trkpt>
      <trkpt lat="47.1116" lon="-1.73558">
        <ele>50.465157</ele>
        <time>2022-12-17T11:39:10.395Z</time>
      </trkpt>
      <trkpt lat="47.1115" lon="-1.73557">
        <ele>50.264318</ele>
        <time>2022-12-17T11:39:12.383Z</time>
      </trkpt>
      <trkpt lat="47.11141" lon="-1.73557">
        <ele>50.080382</ele>
        <time>2022-12-17T11:39:14.400Z</time>
      </trkpt>
      <trkpt lat="47.11131" lon="-1.73556">
        <ele>50.10215</ele>
        <time>2022-12-17T11:39:16.375Z</time>
      </trkpt>
      <trkpt lat="47.11122" lon="-1.73556">
        <ele>50.123892</ele>
        <time>2022-12-17T11:39:18.382Z</time>
      </trkpt>
      <trkpt lat="47.1111" lon="-1.73551">
        <ele>50.153601</ele>
        <time>2022-12-17T11:39:21.403Z</time>
      </trkpt>
      <trkpt lat="47.11097" lon="-1.73548">
        <ele>50.182859</ele>
        <time>2022-12-17T11:39:24.396Z</time>
      </trkpt>
      <trkpt lat="47.11089" lon="-1.73544">
        <ele>50.203944</ele>
        <time>2022-12-17T11:39:26.376Z</time>
      </trkpt>
      <trkpt lat="47.11076" lon="-1.73538">
        <ele>50.234836</ele>
        <time>2022-12-17T11:39:29.400Z</time>
      </trkpt>
      <trkpt lat="47.11067" lon="-1.73535">
        <ele>50.256409</ele>
        <time>2022-12-17T11:39:31.390Z</time>
      </trkpt>
      <trkpt lat="47.11055" lon="-1.73529">
        <ele>50.286526</ele>
        <time>2022-12-17T11:39:34.379Z</time>
      </trkpt>
      <trkpt lat="47.11046" lon="-1.73525">
        <ele>50.307788</ele>
        <time>2022-12-17T11:39:36.375Z</time>
      </trkpt>
      <trkpt lat="47.11034" lon="-1.73519">
        <ele>50.338515</ele>
        <time>2022-12-17T11:39:39.377Z</time>
      </trkpt>
      <trkpt lat="47.11022" lon="-1.73513">
        <ele>50.368095</ele>
        <time>2022-12-17T11:39:42.378Z</time>
      </trkpt>
      <trkpt lat="47.1101" lon="-1.73507">
        <ele>50.396676</ele>
        <time>2022-12-17T11:39:45.382Z</time>
      </trkpt>
      <trkpt lat="47.11" lon="-1.73502">
        <ele>50.422514</ele>
        <time>2022-12-17T11:39:48.380Z</time>
      </trkpt>
      <trkpt lat="47.1099" lon="-1.73498">
        <ele>50.447566</ele>
        <time>2022-12-17T11:39:51.377Z</time>
      </trkpt>
      <trkpt lat="47.10978" lon="-1.73494">
        <ele>50.475874</ele>
        <time>2022-12-17T11:39:54.375Z</time>
      </trkpt>
      <trkpt lat="47.10965" lon="-1.73493">
        <ele>50.589686</ele>
        <time>2022-12-17T11:39:57.375Z</time>
      </trkpt>
      <trkpt lat="47.10955" lon="-1.73495">
        <ele>50.850383</ele>
        <time>2022-12-17T11:39:59.392Z</time>
      </trkpt>
      <trkpt lat="47.10942" lon="-1.73497">
        <ele>51.21826</ele>
        <time>2022-12-17T11:40:02.371Z</time>
      </trkpt>
      <trkpt lat="47.1093" lon="-1.73501">
        <ele>51.565731</ele>
        <time>2022-12-17T11:40:05.383Z</time>
      </trkpt>
      <trkpt lat="47.10918" lon="-1.73503">
        <ele>51.889935</ele>
        <time>2022-12-17T11:40:08.376Z</time>
      </trkpt>
      <trkpt lat="47.10907" lon="-1.73507">
        <ele>52.215745</ele>
        <time>2022-12-17T11:40:11.378Z</time>
      </trkpt>
      <trkpt lat="47.10895" lon="-1.7351">
        <ele>52.54717</ele>
        <time>2022-12-17T11:40:14.382Z</time>
      </trkpt>
      <trkpt lat="47.10883" lon="-1.73513">
        <ele>52.870416</ele>
        <time>2022-12-17T11:40:17.383Z</time>
      </trkpt>
      <trkpt lat="47.10872" lon="-1.73517">
        <ele>53.189094</ele>
        <time>2022-12-17T11:40:20.378Z</time>
      </trkpt>
      <trkpt lat="47.10862" lon="-1.73521">
        <ele>53.491513</ele>
        <time>2022-12-17T11:40:23.391Z</time>
      </trkpt>
      <trkpt lat="47.10851" lon="-1.73523">
        <ele>53.79552</ele>
        <time>2022-12-17T11:40:26.381Z</time>
      </trkpt>
      <trkpt lat="47.10841" lon="-1.73526">
        <ele>54.081078</ele>
        <time>2022-12-17T11:40:29.379Z</time>
      </trkpt>
      <trkpt lat="47.10829" lon="-1.73531">
        <ele>54.40681</ele>
        <time>2022-12-17T11:40:32.386Z</time>
      </trkpt>
      <trkpt lat="47.10819" lon="-1.73537">
        <ele>54.704386</ele>
        <time>2022-12-17T11:40:35.384Z</time>
      </trkpt>
      <trkpt lat="47.1081" lon="-1.73543">
        <ele>54.989547</ele>
        <time>2022-12-17T11:40:38.389Z</time>
      </trkpt>
      <trkpt lat="47.10801" lon="-1.7355">
        <ele>55.257153</ele>
        <time>2022-12-17T11:40:41.381Z</time>
      </trkpt>
      <trkpt lat="47.10792" lon="-1.73557">
        <ele>55.522097</ele>
        <time>2022-12-17T11:40:44.374Z</time>
      </trkpt>
      <trkpt lat="47.10784" lon="-1.73565">
        <ele>55.71243</ele>
        <time>2022-12-17T11:40:47.381Z</time>
      </trkpt>
      <trkpt lat="47.10775" lon="-1.73573">
        <ele>55.90186</ele>
        <time>2022-12-17T11:40:50.379Z</time>
      </trkpt>
      <trkpt lat="47.10766" lon="-1.73581">
        <ele>56.094723</ele>
        <time>2022-12-17T11:40:53.391Z</time>
      </trkpt>
      <trkpt lat="47.10759" lon="-1.73589">
        <ele>56.276206</ele>
        <time>2022-12-17T11:40:56.379Z</time>
      </trkpt>
      <trkpt lat="47.10751" lon="-1.73597">
        <ele>56.452023</ele>
        <time>2022-12-17T11:40:59.388Z</time>
      </trkpt>
      <trkpt lat="47.10743" lon="-1.73604">
        <ele>56.630344</ele>
        <time>2022-12-17T11:41:02.378Z</time>
      </trkpt>
      <trkpt lat="47.10733" lon="-1.73612">
        <ele>56.833881</ele>
        <time>2022-12-17T11:41:06.388Z</time>
      </trkpt>
      <trkpt lat="47.10724" lon="-1.73621">
        <ele>57.039026</ele>
        <time>2022-12-17T11:41:10.378Z</time>
      </trkpt>
      <trkpt lat="47.10715" lon="-1.7363">
        <ele>57.251629</ele>
        <time>2022-12-17T11:41:14.391Z</time>
      </trkpt>
      <trkpt lat="47.10705" lon="-1.73638">
        <ele>57.455369</ele>
        <time>2022-12-17T11:41:18.377Z</time>
      </trkpt>
      <trkpt lat="47.10696" lon="-1.73646">
        <ele>57.656101</ele>
        <time>2022-12-17T11:41:22.390Z</time>
      </trkpt>
      <trkpt lat="47.10687" lon="-1.73653">
        <ele>57.855185</ele>
        <time>2022-12-17T11:41:26.383Z</time>
      </trkpt>
      <trkpt lat="47.10676" lon="-1.7366">
        <ele>58.066056</ele>
        <time>2022-12-17T11:41:30.392Z</time>
      </trkpt>
      <trkpt lat="47.10668" lon="-1.73665">
        <ele>58.235888</ele>
        <time>2022-12-17T11:41:33.377Z</time>
      </trkpt>
      <trkpt lat="47.1066" lon="-1.7367">
        <ele>58.406779</ele>
        <time>2022-12-17T11:41:36.393Z</time>
      </trkpt>
      <trkpt lat="47.1065" lon="-1.73674">
        <ele>58.587951</ele>
        <time>2022-12-17T11:41:39.381Z</time>
      </trkpt>
      <trkpt lat="47.10642" lon="-1.7368">
        <ele>58.764366</ele>
        <time>2022-12-17T11:41:42.378Z</time>
      </trkpt>
      <trkpt lat="47.10634" lon="-1.73688">
        <ele>58.887145</ele>
        <time>2022-12-17T11:41:45.380Z</time>
      </trkpt>
      <trkpt lat="47.10626" lon="-1.73697">
        <ele>58.955842</ele>
        <time>2022-12-17T11:41:48.393Z</time>
      </trkpt>
      <trkpt lat="47.10615" lon="-1.73697">
        <ele>59.028228</ele>
        <time>2022-12-17T11:41:51.403Z</time>
      </trkpt>
      <trkpt lat="47.10605" lon="-1.73689">
        <ele>59.101845</ele>
        <time>2022-12-17T11:41:54.392Z</time>
      </trkpt>
      <trkpt lat="47.10595" lon="-1.73686">
        <ele>59.174781</ele>
        <time>2022-12-17T11:41:57.394Z</time>
      </trkpt>
      <trkpt lat="47.10583" lon="-1.73685">
        <ele>59.252683</ele>
        <time>2022-12-17T11:42:00.381Z</time>
      </trkpt>
      <trkpt lat="47.10571" lon="-1.73684">
        <ele>59.336644</ele>
        <time>2022-12-17T11:42:03.379Z</time>
      </trkpt>
      <trkpt lat="47.10559" lon="-1.73685">
        <ele>59.418495</ele>
        <time>2022-12-17T11:42:06.378Z</time>
      </trkpt>
      <trkpt lat="47.10546" lon="-1.73684">
        <ele>59.504484</ele>
        <time>2022-12-17T11:42:09.386Z</time>
      </trkpt>
      <trkpt lat="47.10533" lon="-1.73683">
        <ele>59.593157</ele>
        <time>2022-12-17T11:42:12.370Z</time>
      </trkpt>
      <trkpt lat="47.10521" lon="-1.73683">
        <ele>59.677733</ele>
        <time>2022-12-17T11:42:15.372Z</time>
      </trkpt>
      <trkpt lat="47.10507" lon="-1.73684">
        <ele>59.767083</ele>
        <time>2022-12-17T11:42:18.377Z</time>
      </trkpt>
      <trkpt lat="47.10498" lon="-1.73684">
        <ele>59.829993</ele>
        <time>2022-12-17T11:42:20.381Z</time>
      </trkpt>
      <trkpt lat="47.10488" lon="-1.73685">
        <ele>59.894973</ele>
        <time>2022-12-17T11:42:22.369Z</time>
      </trkpt>
      <trkpt lat="47.10479" lon="-1.73685">
        <ele>59.957249</ele>
        <time>2022-12-17T11:42:24.380Z</time>
      </trkpt>
      <trkpt lat="47.10469" lon="-1.73686">
        <ele>60.025832</ele>
        <time>2022-12-17T11:42:26.379Z</time>
      </trkpt>
      <trkpt lat="47.10459" lon="-1.73688">
        <ele>60.048367</ele>
        <time>2022-12-17T11:42:28.390Z</time>
      </trkpt>
      <trkpt lat="47.10449" lon="-1.7369">
        <ele>59.990546</ele>
        <time>2022-12-17T11:42:30.382Z</time>
      </trkpt>
      <trkpt lat="47.10439" lon="-1.73691">
        <ele>59.937059</ele>
        <time>2022-12-17T11:42:32.378Z</time>
      </trkpt>
      <trkpt lat="47.10429" lon="-1.73694">
        <ele>59.87879</ele>
        <time>2022-12-17T11:42:34.401Z</time>
      </trkpt>
      <trkpt lat="47.10418" lon="-1.73697">
        <ele>59.818291</ele>
        <time>2022-12-17T11:42:36.379Z</time>
      </trkpt>
      <trkpt lat="47.10407" lon="-1.737">
        <ele>59.759949</ele>
        <time>2022-12-17T11:42:38.380Z</time>
      </trkpt>
      <trkpt lat="47.10397" lon="-1.73705">
        <ele>59.70055</ele>
        <time>2022-12-17T11:42:40.390Z</time>
      </trkpt>
      <trkpt lat="47.10386" lon="-1.7371">
        <ele>59.63847</ele>
        <time>2022-12-17T11:42:42.372Z</time>
      </trkpt>
      <trkpt lat="47.10376" lon="-1.73714">
        <ele>59.580552</ele>
        <time>2022-12-17T11:42:44.375Z</time>
      </trkpt>
      <trkpt lat="47.10366" lon="-1.73719">
        <ele>59.524104</ele>
        <time>2022-12-17T11:42:46.387Z</time>
      </trkpt>
      <trkpt lat="47.10357" lon="-1.73723">
        <ele>59.468926</ele>
        <time>2022-12-17T11:42:48.379Z</time>
      </trkpt>
      <trkpt lat="47.10347" lon="-1.73727">
        <ele>59.416051</ele>
        <time>2022-12-17T11:42:50.380Z</time>
      </trkpt>
      <trkpt lat="47.10338" lon="-1.7373">
        <ele>59.363271</ele>
        <time>2022-12-17T11:42:52.371Z</time>
      </trkpt>
      <trkpt lat="47.10325" lon="-1.73736">
        <ele>59.289102</ele>
        <time>2022-12-17T11:42:55.409Z</time>
      </trkpt>
      <trkpt lat="47.10317" lon="-1.7374">
        <ele>59.238755</ele>
        <time>2022-12-17T11:42:57.380Z</time>
      </trkpt>
      <trkpt lat="47.10307" lon="-1.73744">
        <ele>59.185264</ele>
        <time>2022-12-17T11:42:59.397Z</time>
      </trkpt>
      <trkpt lat="47.10297" lon="-1.73748">
        <ele>59.129345</ele>
        <time>2022-12-17T11:43:01.389Z</time>
      </trkpt>
      <trkpt lat="47.10288" lon="-1.73752">
        <ele>59.074215</ele>
        <time>2022-12-17T11:43:03.375Z</time>
      </trkpt>
      <trkpt lat="47.10278" lon="-1.73755">
        <ele>59.030875</ele>
        <time>2022-12-17T11:43:05.386Z</time>
      </trkpt>
      <trkpt lat="47.10268" lon="-1.7376">
        <ele>58.984163</ele>
        <time>2022-12-17T11:43:07.388Z</time>
      </trkpt>
      <trkpt lat="47.10257" lon="-1.73763">
        <ele>58.935805</ele>
        <time>2022-12-17T11:43:09.377Z</time>
      </trkpt>
      <trkpt lat="47.10246" lon="-1.73765">
        <ele>58.887855</ele>
        <time>2022-12-17T11:43:11.376Z</time>
      </trkpt>
      <trkpt lat="47.10235" lon="-1.73767">
        <ele>58.838268</ele>
        <time>2022-12-17T11:43:13.390Z</time>
      </trkpt>
      <trkpt lat="47.10224" lon="-1.73768">
        <ele>58.789016</ele>
        <time>2022-12-17T11:43:15.369Z</time>
      </trkpt>
      <trkpt lat="47.10213" lon="-1.73769">
        <ele>58.738707</ele>
        <time>2022-12-17T11:43:17.391Z</time>
      </trkpt>
      <trkpt lat="47.10202" lon="-1.7377">
        <ele>58.689307</ele>
        <time>2022-12-17T11:43:19.395Z</time>
      </trkpt>
      <trkpt lat="47.10191" lon="-1.73772">
        <ele>58.642167</ele>
        <time>2022-12-17T11:43:21.374Z</time>
      </trkpt>
      <trkpt lat="47.10181" lon="-1.73773">
        <ele>58.596713</ele>
        <time>2022-12-17T11:43:23.377Z</time>
      </trkpt>
      <trkpt lat="47.10171" lon="-1.73775">
        <ele>58.553838</ele>
        <time>2022-12-17T11:43:25.387Z</time>
      </trkpt>
      <trkpt lat="47.10162" lon="-1.73778">
        <ele>58.512417</ele>
        <time>2022-12-17T11:43:27.399Z</time>
      </trkpt>
      <trkpt lat="47.10153" lon="-1.73782">
        <ele>58.469842</ele>
        <time>2022-12-17T11:43:29.392Z</time>
      </trkpt>
      <trkpt lat="47.10144" lon="-1.73787">
        <ele>58.424552</ele>
        <time>2022-12-17T11:43:31.365Z</time>
      </trkpt>
      <trkpt lat="47.10134" lon="-1.73794">
        <ele>58.378356</ele>
        <time>2022-12-17T11:43:33.381Z</time>
      </trkpt>
      <trkpt lat="47.10126" lon="-1.73801">
        <ele>58.33508</ele>
        <time>2022-12-17T11:43:35.373Z</time>
      </trkpt>
      <trkpt lat="47.10117" lon="-1.73809">
        <ele>58.290352</ele>
        <time>2022-12-17T11:43:37.369Z</time>
      </trkpt>
      <trkpt lat="47.10108" lon="-1.73817">
        <ele>58.158242</ele>
        <time>2022-12-17T11:43:39.377Z</time>
      </trkpt>
      <trkpt lat="47.101" lon="-1.73826">
        <ele>58.004946</ele>
        <time>2022-12-17T11:43:41.378Z</time>
      </trkpt>
      <trkpt lat="47.10091" lon="-1.73834">
        <ele>57.849167</ele>
        <time>2022-12-17T11:43:43.384Z</time>
      </trkpt>
      <trkpt lat="47.10082" lon="-1.73844">
        <ele>57.684588</ele>
        <time>2022-12-17T11:43:45.376Z</time>
      </trkpt>
      <trkpt lat="47.10073" lon="-1.73854">
        <ele>57.51414</ele>
        <time>2022-12-17T11:43:47.376Z</time>
      </trkpt>
      <trkpt lat="47.10064" lon="-1.73864">
        <ele>57.348975</ele>
        <time>2022-12-17T11:43:49.377Z</time>
      </trkpt>
      <trkpt lat="47.10055" lon="-1.73875">
        <ele>57.177262</ele>
        <time>2022-12-17T11:43:51.386Z</time>
      </trkpt>
      <trkpt lat="47.10045" lon="-1.73884">
        <ele>57.01211</ele>
        <time>2022-12-17T11:43:53.380Z</time>
      </trkpt>
      <trkpt lat="47.10037" lon="-1.73894">
        <ele>56.856864</ele>
        <time>2022-12-17T11:43:55.386Z</time>
      </trkpt>
      <trkpt lat="47.10029" lon="-1.73903">
        <ele>56.703493</ele>
        <time>2022-12-17T11:43:57.391Z</time>
      </trkpt>
      <trkpt lat="47.10021" lon="-1.73913">
        <ele>56.553667</ele>
        <time>2022-12-17T11:43:59.393Z</time>
      </trkpt>
      <trkpt lat="47.10013" lon="-1.73922">
        <ele>56.398421</ele>
        <time>2022-12-17T11:44:01.376Z</time>
      </trkpt>
      <trkpt lat="47.10005" lon="-1.73932">
        <ele>56.242542</ele>
        <time>2022-12-17T11:44:03.379Z</time>
      </trkpt>
      <trkpt lat="47.09996" lon="-1.73942">
        <ele>56.086243</ele>
        <time>2022-12-17T11:44:05.380Z</time>
      </trkpt>
      <trkpt lat="47.09988" lon="-1.73951">
        <ele>55.935328</ele>
        <time>2022-12-17T11:44:07.395Z</time>
      </trkpt>
      <trkpt lat="47.0998" lon="-1.7396">
        <ele>55.787161</ele>
        <time>2022-12-17T11:44:09.386Z</time>
      </trkpt>
      <trkpt lat="47.09973" lon="-1.73968">
        <ele>55.652781</ele>
        <time>2022-12-17T11:44:11.382Z</time>
      </trkpt>
      <trkpt lat="47.09965" lon="-1.73977">
        <ele>55.679608</ele>
        <time>2022-12-17T11:44:13.391Z</time>
      </trkpt>
      <trkpt lat="47.09958" lon="-1.73985">
        <ele>55.721099</ele>
        <time>2022-12-17T11:44:15.397Z</time>
      </trkpt>
      <trkpt lat="47.0995" lon="-1.73993">
        <ele>55.763295</ele>
        <time>2022-12-17T11:44:17.388Z</time>
      </trkpt>
      <trkpt lat="47.09942" lon="-1.74001">
        <ele>55.805338</ele>
        <time>2022-12-17T11:44:19.377Z</time>
      </trkpt>
      <trkpt lat="47.09934" lon="-1.74008">
        <ele>55.845864</ele>
        <time>2022-12-17T11:44:21.375Z</time>
      </trkpt>
      <trkpt lat="47.09926" lon="-1.74016">
        <ele>55.886764</ele>
        <time>2022-12-17T11:44:23.375Z</time>
      </trkpt>
      <trkpt lat="47.09918" lon="-1.74023">
        <ele>55.929549</ele>
        <time>2022-12-17T11:44:25.381Z</time>
      </trkpt>
      <trkpt lat="47.09909" lon="-1.74029">
        <ele>55.971212</ele>
        <time>2022-12-17T11:44:27.374Z</time>
      </trkpt>
      <trkpt lat="47.09901" lon="-1.74036">
        <ele>56.011785</ele>
        <time>2022-12-17T11:44:29.380Z</time>
      </trkpt>
      <trkpt lat="47.09893" lon="-1.74044">
        <ele>56.055293</ele>
        <time>2022-12-17T11:44:31.387Z</time>
      </trkpt>
      <trkpt lat="47.09884" lon="-1.74053">
        <ele>56.102096</ele>
        <time>2022-12-17T11:44:33.380Z</time>
      </trkpt>
      <trkpt lat="47.09876" lon="-1.74063">
        <ele>56.149423</ele>
        <time>2022-12-17T11:44:35.375Z</time>
      </trkpt>
      <trkpt lat="47.09869" lon="-1.74074">
        <ele>56.19479</ele>
        <time>2022-12-17T11:44:37.382Z</time>
      </trkpt>
      <trkpt lat="47.09862" lon="-1.74085">
        <ele>56.238866</ele>
        <time>2022-12-17T11:44:39.390Z</time>
      </trkpt>
      <trkpt lat="47.09855" lon="-1.74097">
        <ele>56.285658</ele>
        <time>2022-12-17T11:44:41.376Z</time>
      </trkpt>
      <trkpt lat="47.09848" lon="-1.74107">
        <ele>56.329767</ele>
        <time>2022-12-17T11:44:43.377Z</time>
      </trkpt>
      <trkpt lat="47.09841" lon="-1.74118">
        <ele>56.375081</ele>
        <time>2022-12-17T11:44:45.369Z</time>
      </trkpt>
      <trkpt lat="47.09834" lon="-1.74128">
        <ele>56.418146</ele>
        <time>2022-12-17T11:44:47.389Z</time>
      </trkpt>
      <trkpt lat="47.09827" lon="-1.74138">
        <ele>56.469388</ele>
        <time>2022-12-17T11:44:49.373Z</time>
      </trkpt>
      <trkpt lat="47.0982" lon="-1.74147">
        <ele>56.522177</ele>
        <time>2022-12-17T11:44:51.373Z</time>
      </trkpt>
      <trkpt lat="47.09812" lon="-1.74156">
        <ele>56.575873</ele>
        <time>2022-12-17T11:44:53.375Z</time>
      </trkpt>
      <trkpt lat="47.09805" lon="-1.74165">
        <ele>56.627452</ele>
        <time>2022-12-17T11:44:55.390Z</time>
      </trkpt>
      <trkpt lat="47.09798" lon="-1.74172">
        <ele>56.6778</ele>
        <time>2022-12-17T11:44:57.396Z</time>
      </trkpt>
      <trkpt lat="47.09787" lon="-1.74183">
        <ele>56.749147</ele>
        <time>2022-12-17T11:45:00.377Z</time>
      </trkpt>
      <trkpt lat="47.09775" lon="-1.74193">
        <ele>56.824201</ele>
        <time>2022-12-17T11:45:03.390Z</time>
      </trkpt>
      <trkpt lat="47.09764" lon="-1.74204">
        <ele>56.896614</ele>
        <time>2022-12-17T11:45:06.379Z</time>
      </trkpt>
      <trkpt lat="47.09754" lon="-1.74215">
        <ele>56.967686</ele>
        <time>2022-12-17T11:45:09.373Z</time>
      </trkpt>
      <trkpt lat="47.09743" lon="-1.74225">
        <ele>57.039668</ele>
        <time>2022-12-17T11:45:12.370Z</time>
      </trkpt>
      <trkpt lat="47.09733" lon="-1.74236">
        <ele>57.109639</ele>
        <time>2022-12-17T11:45:15.380Z</time>
      </trkpt>
      <trkpt lat="47.09722" lon="-1.74246">
        <ele>57.179489</ele>
        <time>2022-12-17T11:45:18.384Z</time>
      </trkpt>
      <trkpt lat="47.09712" lon="-1.74256">
        <ele>57.246141</ele>
        <time>2022-12-17T11:45:21.388Z</time>
      </trkpt>
      <trkpt lat="47.09702" lon="-1.74266">
        <ele>57.315321</ele>
        <time>2022-12-17T11:45:24.377Z</time>
      </trkpt>
      <trkpt lat="47.09691" lon="-1.74276">
        <ele>57.387339</ele>
        <time>2022-12-17T11:45:27.381Z</time>
      </trkpt>
      <trkpt lat="47.09681" lon="-1.74288">
        <ele>57.45916</ele>
        <time>2022-12-17T11:45:30.388Z</time>
      </trkpt>
      <trkpt lat="47.0967" lon="-1.74299">
        <ele>57.533709</ele>
        <time>2022-12-17T11:45:33.379Z</time>
      </trkpt>
      <trkpt lat="47.09661" lon="-1.74306">
        <ele>57.588627</ele>
        <time>2022-12-17T11:45:35.393Z</time>
      </trkpt>
      <trkpt lat="47.09653" lon="-1.74312">
        <ele>57.640538</ele>
        <time>2022-12-17T11:45:37.377Z</time>
      </trkpt>
      <trkpt lat="47.0964" lon="-1.7432">
        <ele>57.717619</ele>
        <time>2022-12-17T11:45:40.380Z</time>
      </trkpt>
      <trkpt lat="47.09628" lon="-1.74326">
        <ele>57.790551</ele>
        <time>2022-12-17T11:45:43.371Z</time>
      </trkpt>
      <trkpt lat="47.09616" lon="-1.74329">
        <ele>57.857249</ele>
        <time>2022-12-17T11:45:46.385Z</time>
      </trkpt>
      <trkpt lat="47.09605" lon="-1.74333">
        <ele>57.924404</ele>
        <time>2022-12-17T11:45:49.393Z</time>
      </trkpt>
      <trkpt lat="47.09592" lon="-1.74337">
        <ele>57.997855</ele>
        <time>2022-12-17T11:45:52.370Z</time>
      </trkpt>
      <trkpt lat="47.09582" lon="-1.74339">
        <ele>58.054286</ele>
        <time>2022-12-17T11:45:54.396Z</time>
      </trkpt>
      <trkpt lat="47.09573" lon="-1.74342">
        <ele>58.105844</ele>
        <time>2022-12-17T11:45:56.377Z</time>
      </trkpt>
      <trkpt lat="47.09559" lon="-1.74348">
        <ele>58.183819</ele>
        <time>2022-12-17T11:45:59.390Z</time>
      </trkpt>
      <trkpt lat="47.09551" lon="-1.74353">
        <ele>58.237086</ele>
        <time>2022-12-17T11:46:01.378Z</time>
      </trkpt>
      <trkpt lat="47.09541" lon="-1.74357">
        <ele>58.291551</ele>
        <time>2022-12-17T11:46:03.386Z</time>
      </trkpt>
      <trkpt lat="47.09532" lon="-1.74363">
        <ele>58.3493</ele>
        <time>2022-12-17T11:46:05.381Z</time>
      </trkpt>
      <trkpt lat="47.09522" lon="-1.74368">
        <ele>58.407475</ele>
        <time>2022-12-17T11:46:07.369Z</time>
      </trkpt>
      <trkpt lat="47.09512" lon="-1.74374">
        <ele>58.410908</ele>
        <time>2022-12-17T11:46:09.388Z</time>
      </trkpt>
      <trkpt lat="47.09503" lon="-1.74379">
        <ele>58.356053</ele>
        <time>2022-12-17T11:46:11.385Z</time>
      </trkpt>
      <trkpt lat="47.09493" lon="-1.74385">
        <ele>58.298847</ele>
        <time>2022-12-17T11:46:13.377Z</time>
      </trkpt>
      <trkpt lat="47.09483" lon="-1.74391">
        <ele>58.241642</ele>
        <time>2022-12-17T11:46:15.386Z</time>
      </trkpt>
      <trkpt lat="47.09474" lon="-1.74398">
        <ele>58.187214</ele>
        <time>2022-12-17T11:46:17.381Z</time>
      </trkpt>
      <trkpt lat="47.09466" lon="-1.74405">
        <ele>58.135669</ele>
        <time>2022-12-17T11:46:19.388Z</time>
      </trkpt>
      <trkpt lat="47.09458" lon="-1.74412">
        <ele>58.084264</ele>
        <time>2022-12-17T11:46:21.385Z</time>
      </trkpt>
      <trkpt lat="47.09449" lon="-1.74419">
        <ele>58.035126</ele>
        <time>2022-12-17T11:46:23.381Z</time>
      </trkpt>
      <trkpt lat="47.09442" lon="-1.74427">
        <ele>57.985832</ele>
        <time>2022-12-17T11:46:25.372Z</time>
      </trkpt>
      <trkpt lat="47.09435" lon="-1.74437">
        <ele>57.9337</ele>
        <time>2022-12-17T11:46:27.375Z</time>
      </trkpt>
      <trkpt lat="47.09428" lon="-1.74446">
        <ele>57.883888</ele>
        <time>2022-12-17T11:46:29.387Z</time>
      </trkpt>
      <trkpt lat="47.09421" lon="-1.74456">
        <ele>57.832815</ele>
        <time>2022-12-17T11:46:31.390Z</time>
      </trkpt>
      <trkpt lat="47.09415" lon="-1.74466">
        <ele>57.780386</ele>
        <time>2022-12-17T11:46:33.383Z</time>
      </trkpt>
      <trkpt lat="47.09408" lon="-1.74476">
        <ele>57.727612</ele>
        <time>2022-12-17T11:46:35.380Z</time>
      </trkpt>
      <trkpt lat="47.09398" lon="-1.74491">
        <ele>57.653899</ele>
        <time>2022-12-17T11:46:38.379Z</time>
      </trkpt>
      <trkpt lat="47.09391" lon="-1.74501">
        <ele>57.600657</ele>
        <time>2022-12-17T11:46:40.386Z</time>
      </trkpt>
      <trkpt lat="47.09385" lon="-1.74512">
        <ele>57.550476</ele>
        <time>2022-12-17T11:46:42.391Z</time>
      </trkpt>
      <trkpt lat="47.09376" lon="-1.74526">
        <ele>57.477569</ele>
        <time>2022-12-17T11:46:45.383Z</time>
      </trkpt>
      <trkpt lat="47.0937" lon="-1.74536">
        <ele>57.445473</ele>
        <time>2022-12-17T11:46:47.394Z</time>
      </trkpt>
      <trkpt lat="47.09363" lon="-1.74546">
        <ele>57.414598</ele>
        <time>2022-12-17T11:46:49.376Z</time>
      </trkpt>
      <trkpt lat="47.09357" lon="-1.74556">
        <ele>57.383556</ele>
        <time>2022-12-17T11:46:51.392Z</time>
      </trkpt>
      <trkpt lat="47.09348" lon="-1.74571">
        <ele>57.337954</ele>
        <time>2022-12-17T11:46:54.404Z</time>
      </trkpt>
      <trkpt lat="47.09341" lon="-1.74581">
        <ele>57.304843</ele>
        <time>2022-12-17T11:46:56.395Z</time>
      </trkpt>
      <trkpt lat="47.09334" lon="-1.74592">
        <ele>57.272003</ele>
        <time>2022-12-17T11:46:58.395Z</time>
      </trkpt>
      <trkpt lat="47.09327" lon="-1.74603">
        <ele>57.238777</ele>
        <time>2022-12-17T11:47:00.376Z</time>
      </trkpt>
      <trkpt lat="47.09321" lon="-1.74613">
        <ele>57.207008</ele>
        <time>2022-12-17T11:47:02.373Z</time>
      </trkpt>
      <trkpt lat="47.09312" lon="-1.74628">
        <ele>57.162376</ele>
        <time>2022-12-17T11:47:05.374Z</time>
      </trkpt>
      <trkpt lat="47.09306" lon="-1.74638">
        <ele>57.131765</ele>
        <time>2022-12-17T11:47:07.378Z</time>
      </trkpt>
      <trkpt lat="47.09299" lon="-1.74649">
        <ele>57.098758</ele>
        <time>2022-12-17T11:47:09.378Z</time>
      </trkpt>
      <trkpt lat="47.09292" lon="-1.74659">
        <ele>57.065382</ele>
        <time>2022-12-17T11:47:11.380Z</time>
      </trkpt>
      <trkpt lat="47.09285" lon="-1.74669">
        <ele>57.03136</ele>
        <time>2022-12-17T11:47:13.392Z</time>
      </trkpt>
      <trkpt lat="47.09277" lon="-1.74679">
        <ele>56.998775</ele>
        <time>2022-12-17T11:47:15.390Z</time>
      </trkpt>
      <trkpt lat="47.0927" lon="-1.7469">
        <ele>56.963891</ele>
        <time>2022-12-17T11:47:17.377Z</time>
      </trkpt>
      <trkpt lat="47.09263" lon="-1.747">
        <ele>56.93123</ele>
        <time>2022-12-17T11:47:19.378Z</time>
      </trkpt>
      <trkpt lat="47.09256" lon="-1.7471">
        <ele>56.899439</ele>
        <time>2022-12-17T11:47:21.380Z</time>
      </trkpt>
      <trkpt lat="47.09248" lon="-1.7472">
        <ele>56.889499</ele>
        <time>2022-12-17T11:47:23.387Z</time>
      </trkpt>
      <trkpt lat="47.09241" lon="-1.74731">
        <ele>56.940375</ele>
        <time>2022-12-17T11:47:25.383Z</time>
      </trkpt>
      <trkpt lat="47.09233" lon="-1.74741">
        <ele>56.990936</ele>
        <time>2022-12-17T11:47:27.373Z</time>
      </trkpt>
      <trkpt lat="47.09226" lon="-1.74751">
        <ele>57.039</ele>
        <time>2022-12-17T11:47:29.386Z</time>
      </trkpt>
      <trkpt lat="47.09219" lon="-1.7476">
        <ele>57.088521</ele>
        <time>2022-12-17T11:47:31.373Z</time>
      </trkpt>
      <trkpt lat="47.09209" lon="-1.74774">
        <ele>57.155753</ele>
        <time>2022-12-17T11:47:34.392Z</time>
      </trkpt>
      <trkpt lat="47.09199" lon="-1.74787">
        <ele>57.221215</ele>
        <time>2022-12-17T11:47:37.387Z</time>
      </trkpt>
      <trkpt lat="47.09189" lon="-1.748">
        <ele>57.286502</ele>
        <time>2022-12-17T11:47:40.373Z</time>
      </trkpt>
      <trkpt lat="47.09182" lon="-1.7481">
        <ele>57.333977</ele>
        <time>2022-12-17T11:47:42.375Z</time>
      </trkpt>
      <trkpt lat="47.09175" lon="-1.74819">
        <ele>57.379971</ele>
        <time>2022-12-17T11:47:44.392Z</time>
      </trkpt>
      <trkpt lat="47.09168" lon="-1.74826">
        <ele>57.424308</ele>
        <time>2022-12-17T11:47:46.383Z</time>
      </trkpt>
      <trkpt lat="47.0916" lon="-1.74835">
        <ele>57.472232</ele>
        <time>2022-12-17T11:47:48.381Z</time>
      </trkpt>
      <trkpt lat="47.09152" lon="-1.74843">
        <ele>57.520358</ele>
        <time>2022-12-17T11:47:50.381Z</time>
      </trkpt>
      <trkpt lat="47.09144" lon="-1.7485">
        <ele>57.565873</ele>
        <time>2022-12-17T11:47:52.372Z</time>
      </trkpt>
      <trkpt lat="47.09136" lon="-1.74857">
        <ele>57.613946</ele>
        <time>2022-12-17T11:47:54.374Z</time>
      </trkpt>
      <trkpt lat="47.09127" lon="-1.74865">
        <ele>57.662972</ele>
        <time>2022-12-17T11:47:56.390Z</time>
      </trkpt>
      <trkpt lat="47.09119" lon="-1.74872">
        <ele>57.711293</ele>
        <time>2022-12-17T11:47:58.378Z</time>
      </trkpt>
      <trkpt lat="47.0911" lon="-1.7488">
        <ele>57.760319</ele>
        <time>2022-12-17T11:48:00.394Z</time>
      </trkpt>
      <trkpt lat="47.09102" lon="-1.74888">
        <ele>57.569527</ele>
        <time>2022-12-17T11:48:02.385Z</time>
      </trkpt>
      <trkpt lat="47.09094" lon="-1.74894">
        <ele>57.381052</ele>
        <time>2022-12-17T11:48:04.390Z</time>
      </trkpt>
      <trkpt lat="47.09086" lon="-1.74901">
        <ele>57.179124</ele>
        <time>2022-12-17T11:48:06.386Z</time>
      </trkpt>
      <trkpt lat="47.09077" lon="-1.74909">
        <ele>56.97647</ele>
        <time>2022-12-17T11:48:08.371Z</time>
      </trkpt>
      <trkpt lat="47.09069" lon="-1.74917">
        <ele>56.767071</ele>
        <time>2022-12-17T11:48:10.395Z</time>
      </trkpt>
      <trkpt lat="47.09059" lon="-1.74925">
        <ele>56.545221</ele>
        <time>2022-12-17T11:48:12.371Z</time>
      </trkpt>
      <trkpt lat="47.0905" lon="-1.74933">
        <ele>56.32265</ele>
        <time>2022-12-17T11:48:14.366Z</time>
      </trkpt>
      <trkpt lat="47.09041" lon="-1.74942">
        <ele>56.089599</ele>
        <time>2022-12-17T11:48:16.377Z</time>
      </trkpt>
      <trkpt lat="47.09031" lon="-1.74951">
        <ele>55.855015</ele>
        <time>2022-12-17T11:48:18.374Z</time>
      </trkpt>
      <trkpt lat="47.09021" lon="-1.7496">
        <ele>55.613503</ele>
        <time>2022-12-17T11:48:20.398Z</time>
      </trkpt>
      <trkpt lat="47.09011" lon="-1.74968">
        <ele>55.377398</ele>
        <time>2022-12-17T11:48:22.373Z</time>
      </trkpt>
      <trkpt lat="47.09001" lon="-1.74977">
        <ele>55.132095</ele>
        <time>2022-12-17T11:48:24.378Z</time>
      </trkpt>
      <trkpt lat="47.08991" lon="-1.74986">
        <ele>54.885022</ele>
        <time>2022-12-17T11:48:26.390Z</time>
      </trkpt>
      <trkpt lat="47.0898" lon="-1.74996">
        <ele>54.621579</ele>
        <time>2022-12-17T11:48:28.376Z</time>
      </trkpt>
      <trkpt lat="47.08968" lon="-1.75005">
        <ele>54.351616</ele>
        <time>2022-12-17T11:48:30.409Z</time>
      </trkpt>
      <trkpt lat="47.08957" lon="-1.75014">
        <ele>54.086061</ele>
        <time>2022-12-17T11:48:32.365Z</time>
      </trkpt>
      <trkpt lat="47.08946" lon="-1.75024">
        <ele>53.884721</ele>
        <time>2022-12-17T11:48:34.386Z</time>
      </trkpt>
      <trkpt lat="47.08935" lon="-1.75034">
        <ele>53.686664</ele>
        <time>2022-12-17T11:48:36.384Z</time>
      </trkpt>
      <trkpt lat="47.08925" lon="-1.75044">
        <ele>53.494717</ele>
        <time>2022-12-17T11:48:38.386Z</time>
      </trkpt>
      <trkpt lat="47.08916" lon="-1.75056">
        <ele>53.306518</ele>
        <time>2022-12-17T11:48:40.381Z</time>
      </trkpt>
      <trkpt lat="47.08907" lon="-1.75067">
        <ele>53.126549</ele>
        <time>2022-12-17T11:48:42.367Z</time>
      </trkpt>
      <trkpt lat="47.08898" lon="-1.75079">
        <ele>52.950021</ele>
        <time>2022-12-17T11:48:44.376Z</time>
      </trkpt>
      <trkpt lat="47.08891" lon="-1.75091">
        <ele>52.786256</ele>
        <time>2022-12-17T11:48:46.380Z</time>
      </trkpt>
      <trkpt lat="47.08885" lon="-1.75103">
        <ele>52.625417</ele>
        <time>2022-12-17T11:48:48.385Z</time>
      </trkpt>
      <trkpt lat="47.08878" lon="-1.75115">
        <ele>52.466608</ele>
        <time>2022-12-17T11:48:50.386Z</time>
      </trkpt>
      <trkpt lat="47.08871" lon="-1.75126">
        <ele>52.312723</ele>
        <time>2022-12-17T11:48:52.377Z</time>
      </trkpt>
      <trkpt lat="47.08865" lon="-1.75138">
        <ele>52.148618</ele>
        <time>2022-12-17T11:48:54.400Z</time>
      </trkpt>
      <trkpt lat="47.08858" lon="-1.75151">
        <ele>51.978252</ele>
        <time>2022-12-17T11:48:56.380Z</time>
      </trkpt>
      <trkpt lat="47.08851" lon="-1.75163">
        <ele>51.805942</ele>
        <time>2022-12-17T11:48:58.391Z</time>
      </trkpt>
      <trkpt lat="47.08843" lon="-1.75176">
        <ele>51.63218</ele>
        <time>2022-12-17T11:49:00.379Z</time>
      </trkpt>
      <trkpt lat="47.08836" lon="-1.75189">
        <ele>51.454873</ele>
        <time>2022-12-17T11:49:02.368Z</time>
      </trkpt>
      <trkpt lat="47.08829" lon="-1.75203">
        <ele>51.301606</ele>
        <time>2022-12-17T11:49:04.375Z</time>
      </trkpt>
      <trkpt lat="47.08821" lon="-1.75216">
        <ele>51.316971</ele>
        <time>2022-12-17T11:49:06.389Z</time>
      </trkpt>
      <trkpt lat="47.08813" lon="-1.75229">
        <ele>51.332449</ele>
        <time>2022-12-17T11:49:08.392Z</time>
      </trkpt>
      <trkpt lat="47.08805" lon="-1.75242">
        <ele>51.348045</ele>
        <time>2022-12-17T11:49:10.388Z</time>
      </trkpt>
      <trkpt lat="47.08798" lon="-1.75256">
        <ele>51.363054</ele>
        <time>2022-12-17T11:49:12.370Z</time>
      </trkpt>
      <trkpt lat="47.08791" lon="-1.75268">
        <ele>51.377206</ele>
        <time>2022-12-17T11:49:14.394Z</time>
      </trkpt>
      <trkpt lat="47.08783" lon="-1.7528">
        <ele>51.392004</ele>
        <time>2022-12-17T11:49:16.388Z</time>
      </trkpt>
      <trkpt lat="47.08775" lon="-1.75292">
        <ele>51.406933</ele>
        <time>2022-12-17T11:49:18.394Z</time>
      </trkpt>
      <trkpt lat="47.08767" lon="-1.75304">
        <ele>51.421523</ele>
        <time>2022-12-17T11:49:20.379Z</time>
      </trkpt>
      <trkpt lat="47.08758" lon="-1.75316">
        <ele>51.437134</ele>
        <time>2022-12-17T11:49:22.383Z</time>
      </trkpt>
      <trkpt lat="47.08749" lon="-1.75326">
        <ele>51.451749</ele>
        <time>2022-12-17T11:49:24.381Z</time>
      </trkpt>
      <trkpt lat="47.0874" lon="-1.75335">
        <ele>51.466052</ele>
        <time>2022-12-17T11:49:26.381Z</time>
      </trkpt>
      <trkpt lat="47.08731" lon="-1.75344">
        <ele>51.480039</ele>
        <time>2022-12-17T11:49:28.390Z</time>
      </trkpt>
      <trkpt lat="47.08723" lon="-1.75353">
        <ele>51.493453</ele>
        <time>2022-12-17T11:49:30.386Z</time>
      </trkpt>
      <trkpt lat="47.08715" lon="-1.75362">
        <ele>51.506135</ele>
        <time>2022-12-17T11:49:32.369Z</time>
      </trkpt>
      <trkpt lat="47.08705" lon="-1.75369">
        <ele>51.520031</ele>
        <time>2022-12-17T11:49:34.382Z</time>
      </trkpt>
      <trkpt lat="47.08697" lon="-1.75379">
        <ele>51.535541</ele>
        <time>2022-12-17T11:49:36.381Z</time>
      </trkpt>
      <trkpt lat="47.08687" lon="-1.75386">
        <ele>51.562333</ele>
        <time>2022-12-17T11:49:38.396Z</time>
      </trkpt>
      <trkpt lat="47.08678" lon="-1.75393">
        <ele>51.590288</ele>
        <time>2022-12-17T11:49:40.387Z</time>
      </trkpt>
      <trkpt lat="47.08668" lon="-1.75401">
        <ele>51.618868</ele>
        <time>2022-12-17T11:49:42.374Z</time>
      </trkpt>
      <trkpt lat="47.08659" lon="-1.75407">
        <ele>51.646503</ele>
        <time>2022-12-17T11:49:44.384Z</time>
      </trkpt>
      <trkpt lat="47.08648" lon="-1.75414">
        <ele>51.675799</ele>
        <time>2022-12-17T11:49:46.376Z</time>
      </trkpt>
      <trkpt lat="47.08638" lon="-1.7542">
        <ele>51.704876</ele>
        <time>2022-12-17T11:49:48.390Z</time>
      </trkpt>
      <trkpt lat="47.08628" lon="-1.75424">
        <ele>51.73089</ele>
        <time>2022-12-17T11:49:50.389Z</time>
      </trkpt>
      <trkpt lat="47.08618" lon="-1.75429">
        <ele>51.758652</ele>
        <time>2022-12-17T11:49:52.372Z</time>
      </trkpt>
      <trkpt lat="47.08607" lon="-1.75434">
        <ele>51.788003</ele>
        <time>2022-12-17T11:49:54.386Z</time>
      </trkpt>
      <trkpt lat="47.08596" lon="-1.75438">
        <ele>51.817508</ele>
        <time>2022-12-17T11:49:56.389Z</time>
      </trkpt>
      <trkpt lat="47.08585" lon="-1.75442">
        <ele>51.846427</ele>
        <time>2022-12-17T11:49:58.376Z</time>
      </trkpt>
      <trkpt lat="47.08575" lon="-1.75445">
        <ele>51.874082</ele>
        <time>2022-12-17T11:50:00.391Z</time>
      </trkpt>
      <trkpt lat="47.08564" lon="-1.75449">
        <ele>51.901818</ele>
        <time>2022-12-17T11:50:02.375Z</time>
      </trkpt>
      <trkpt lat="47.08554" lon="-1.75452">
        <ele>51.92889</ele>
        <time>2022-12-17T11:50:04.388Z</time>
      </trkpt>
      <trkpt lat="47.08544" lon="-1.75455">
        <ele>51.956265</ele>
        <time>2022-12-17T11:50:06.385Z</time>
      </trkpt>
      <trkpt lat="47.08534" lon="-1.75458">
        <ele>51.983122</ele>
        <time>2022-12-17T11:50:08.380Z</time>
      </trkpt>
      <trkpt lat="47.08523" lon="-1.75462">
        <ele>52.042559</ele>
        <time>2022-12-17T11:50:10.382Z</time>
      </trkpt>
      <trkpt lat="47.08514" lon="-1.75464">
        <ele>52.131944</ele>
        <time>2022-12-17T11:50:12.373Z</time>
      </trkpt>
      <trkpt lat="47.08503" lon="-1.75467">
        <ele>52.226762</ele>
        <time>2022-12-17T11:50:14.380Z</time>
      </trkpt>
      <trkpt lat="47.08495" lon="-1.7547">
        <ele>52.31015</ele>
        <time>2022-12-17T11:50:16.390Z</time>
      </trkpt>
      <trkpt lat="47.08482" lon="-1.75472">
        <ele>52.425839</ele>
        <time>2022-12-17T11:50:19.393Z</time>
      </trkpt>
      <trkpt lat="47.0847" lon="-1.75475">
        <ele>52.537216</ele>
        <time>2022-12-17T11:50:22.370Z</time>
      </trkpt>
      <trkpt lat="47.08457" lon="-1.75477">
        <ele>52.654884</ele>
        <time>2022-12-17T11:50:25.393Z</time>
      </trkpt>
      <trkpt lat="47.08444" lon="-1.75478">
        <ele>52.77451</ele>
        <time>2022-12-17T11:50:28.382Z</time>
      </trkpt>
      <trkpt lat="47.08432" lon="-1.75477">
        <ele>52.88863</ele>
        <time>2022-12-17T11:50:31.382Z</time>
      </trkpt>
      <trkpt lat="47.08419" lon="-1.75476">
        <ele>53.005539</ele>
        <time>2022-12-17T11:50:34.383Z</time>
      </trkpt>
      <trkpt lat="47.08407" lon="-1.75475">
        <ele>53.118042</ele>
        <time>2022-12-17T11:50:37.390Z</time>
      </trkpt>
      <trkpt lat="47.08394" lon="-1.75474">
        <ele>53.237545</ele>
        <time>2022-12-17T11:50:40.393Z</time>
      </trkpt>
      <trkpt lat="47.08381" lon="-1.75474">
        <ele>53.353333</ele>
        <time>2022-12-17T11:50:43.378Z</time>
      </trkpt>
      <trkpt lat="47.08372" lon="-1.75475">
        <ele>53.439795</ele>
        <time>2022-12-17T11:50:45.381Z</time>
      </trkpt>
      <trkpt lat="47.08363" lon="-1.75476">
        <ele>53.526619</ele>
        <time>2022-12-17T11:50:47.375Z</time>
      </trkpt>
      <trkpt lat="47.0835" lon="-1.75479">
        <ele>53.645279</ele>
        <time>2022-12-17T11:50:50.388Z</time>
      </trkpt>
      <trkpt lat="47.08341" lon="-1.75479">
        <ele>53.556776</ele>
        <time>2022-12-17T11:50:52.371Z</time>
      </trkpt>
      <trkpt lat="47.08327" lon="-1.75481">
        <ele>53.405426</ele>
        <time>2022-12-17T11:50:55.385Z</time>
      </trkpt>
      <trkpt lat="47.08316" lon="-1.75482">
        <ele>53.273341</ele>
        <time>2022-12-17T11:50:58.389Z</time>
      </trkpt>
      <trkpt lat="47.08304" lon="-1.75483">
        <ele>53.138957</ele>
        <time>2022-12-17T11:51:01.377Z</time>
      </trkpt>
      <trkpt lat="47.08291" lon="-1.75485">
        <ele>52.99833</ele>
        <time>2022-12-17T11:51:04.384Z</time>
      </trkpt>
      <trkpt lat="47.08278" lon="-1.75486">
        <ele>52.849376</ele>
        <time>2022-12-17T11:51:07.369Z</time>
      </trkpt>
      <trkpt lat="47.08269" lon="-1.75487">
        <ele>52.747794</ele>
        <time>2022-12-17T11:51:09.385Z</time>
      </trkpt>
      <trkpt lat="47.08255" lon="-1.7549">
        <ele>52.592163</ele>
        <time>2022-12-17T11:51:12.372Z</time>
      </trkpt>
      <trkpt lat="47.08246" lon="-1.75491">
        <ele>52.489456</ele>
        <time>2022-12-17T11:51:14.370Z</time>
      </trkpt>
      <trkpt lat="47.08237" lon="-1.75492">
        <ele>52.385464</ele>
        <time>2022-12-17T11:51:16.395Z</time>
      </trkpt>
      <trkpt lat="47.08228" lon="-1.75492">
        <ele>52.280642</ele>
        <time>2022-12-17T11:51:18.384Z</time>
      </trkpt>
      <trkpt lat="47.08218" lon="-1.75492">
        <ele>52.174695</ele>
        <time>2022-12-17T11:51:20.382Z</time>
      </trkpt>
      <trkpt lat="47.08209" lon="-1.75493">
        <ele>52.066267</ele>
        <time>2022-12-17T11:51:22.369Z</time>
      </trkpt>
      <trkpt lat="47.08199" lon="-1.75495">
        <ele>51.956598</ele>
        <time>2022-12-17T11:51:24.381Z</time>
      </trkpt>
      <trkpt lat="47.0819" lon="-1.75495">
        <ele>51.849392</ele>
        <time>2022-12-17T11:51:26.401Z</time>
      </trkpt>
      <trkpt lat="47.0818" lon="-1.75497">
        <ele>51.734673</ele>
        <time>2022-12-17T11:51:28.376Z</time>
      </trkpt>
      <trkpt lat="47.0817" lon="-1.75498">
        <ele>51.625255</ele>
        <time>2022-12-17T11:51:30.389Z</time>
      </trkpt>
      <trkpt lat="47.0816" lon="-1.755">
        <ele>51.370973</ele>
        <time>2022-12-17T11:51:32.372Z</time>
      </trkpt>
      <trkpt lat="47.08151" lon="-1.75501">
        <ele>51.131993</ele>
        <time>2022-12-17T11:51:34.392Z</time>
      </trkpt>
      <trkpt lat="47.08142" lon="-1.75502">
        <ele>50.902728</ele>
        <time>2022-12-17T11:51:36.384Z</time>
      </trkpt>
      <trkpt lat="47.08131" lon="-1.75503">
        <ele>50.645914</ele>
        <time>2022-12-17T11:51:38.375Z</time>
      </trkpt>
      <trkpt lat="47.08121" lon="-1.75505">
        <ele>50.378729</ele>
        <time>2022-12-17T11:51:40.387Z</time>
      </trkpt>
      <trkpt lat="47.08111" lon="-1.75505">
        <ele>50.122211</ele>
        <time>2022-12-17T11:51:42.404Z</time>
      </trkpt>
      <trkpt lat="47.081" lon="-1.75507">
        <ele>49.836559</ele>
        <time>2022-12-17T11:51:44.378Z</time>
      </trkpt>
      <trkpt lat="47.08089" lon="-1.75508">
        <ele>49.554063</ele>
        <time>2022-12-17T11:51:46.384Z</time>
      </trkpt>
      <trkpt lat="47.08077" lon="-1.75509">
        <ele>49.266758</ele>
        <time>2022-12-17T11:51:48.388Z</time>
      </trkpt>
      <trkpt lat="47.08065" lon="-1.75509">
        <ele>48.96486</ele>
        <time>2022-12-17T11:51:50.380Z</time>
      </trkpt>
      <trkpt lat="47.08053" lon="-1.75508">
        <ele>48.644011</ele>
        <time>2022-12-17T11:51:52.370Z</time>
      </trkpt>
      <trkpt lat="47.0804" lon="-1.75504">
        <ele>48.326486</ele>
        <time>2022-12-17T11:51:54.378Z</time>
      </trkpt>
      <trkpt lat="47.08028" lon="-1.75499">
        <ele>47.992003</ele>
        <time>2022-12-17T11:51:56.379Z</time>
      </trkpt>
      <trkpt lat="47.08015" lon="-1.75493">
        <ele>47.653013</ele>
        <time>2022-12-17T11:51:58.374Z</time>
      </trkpt>
      <trkpt lat="47.08003" lon="-1.75485">
        <ele>47.320333</ele>
        <time>2022-12-17T11:52:00.367Z</time>
      </trkpt>
      <trkpt lat="47.07992" lon="-1.75476">
        <ele>47.107477</ele>
        <time>2022-12-17T11:52:02.383Z</time>
      </trkpt>
      <trkpt lat="47.07981" lon="-1.75468">
        <ele>47.303736</ele>
        <time>2022-12-17T11:52:04.396Z</time>
      </trkpt>
      <trkpt lat="47.0797" lon="-1.75458">
        <ele>47.504205</ele>
        <time>2022-12-17T11:52:06.393Z</time>
      </trkpt>
      <trkpt lat="47.07959" lon="-1.7545">
        <ele>47.703079</ele>
        <time>2022-12-17T11:52:08.377Z</time>
      </trkpt>
      <trkpt lat="47.07948" lon="-1.75442">
        <ele>47.894074</ele>
        <time>2022-12-17T11:52:10.377Z</time>
      </trkpt>
      <trkpt lat="47.07938" lon="-1.75434">
        <ele>48.080784</ele>
        <time>2022-12-17T11:52:12.373Z</time>
      </trkpt>
      <trkpt lat="47.07928" lon="-1.75427">
        <ele>48.258996</ele>
        <time>2022-12-17T11:52:14.382Z</time>
      </trkpt>
      <trkpt lat="47.07917" lon="-1.75422">
        <ele>48.436101</ele>
        <time>2022-12-17T11:52:16.377Z</time>
      </trkpt>
      <trkpt lat="47.07906" lon="-1.75418">
        <ele>48.615218</ele>
        <time>2022-12-17T11:52:18.373Z</time>
      </trkpt>
      <trkpt lat="47.07895" lon="-1.75415">
        <ele>48.796508</ele>
        <time>2022-12-17T11:52:20.389Z</time>
      </trkpt>
      <trkpt lat="47.07884" lon="-1.75412">
        <ele>48.974643</ele>
        <time>2022-12-17T11:52:22.376Z</time>
      </trkpt>
      <trkpt lat="47.07874" lon="-1.75411">
        <ele>49.146396</ele>
        <time>2022-12-17T11:52:24.389Z</time>
      </trkpt>
      <trkpt lat="47.07863" lon="-1.7541">
        <ele>49.312689</ele>
        <time>2022-12-17T11:52:26.382Z</time>
      </trkpt>
      <trkpt lat="47.07853" lon="-1.75412">
        <ele>49.484763</ele>
        <time>2022-12-17T11:52:28.397Z</time>
      </trkpt>
      <trkpt lat="47.07843" lon="-1.75414">
        <ele>49.641689</ele>
        <time>2022-12-17T11:52:30.382Z</time>
      </trkpt>
      <trkpt lat="47.07834" lon="-1.75416">
        <ele>49.791967</ele>
        <time>2022-12-17T11:52:32.375Z</time>
      </trkpt>
      <trkpt lat="47.07824" lon="-1.75419">
        <ele>49.94251</ele>
        <time>2022-12-17T11:52:34.375Z</time>
      </trkpt>
      <trkpt lat="47.07812" lon="-1.75424">
        <ele>50.221377</ele>
        <time>2022-12-17T11:52:37.381Z</time>
      </trkpt>
      <trkpt lat="47.07803" lon="-1.75427">
        <ele>50.41831</ele>
        <time>2022-12-17T11:52:39.379Z</time>
      </trkpt>
      <trkpt lat="47.0779" lon="-1.75432">
        <ele>50.708678</ele>
        <time>2022-12-17T11:52:42.372Z</time>
      </trkpt>
      <trkpt lat="47.07781" lon="-1.75435">
        <ele>50.907964</ele>
        <time>2022-12-17T11:52:44.384Z</time>
      </trkpt>
      <trkpt lat="47.07768" lon="-1.7544">
        <ele>51.194664</ele>
        <time>2022-12-17T11:52:47.387Z</time>
      </trkpt>
      <trkpt lat="47.07756" lon="-1.75445">
        <ele>51.46793</ele>
        <time>2022-12-17T11:52:50.392Z</time>
      </trkpt>
      <trkpt lat="47.07743" lon="-1.7545">
        <ele>51.749665</ele>
        <time>2022-12-17T11:52:53.372Z</time>
      </trkpt>
      <trkpt lat="47.07731" lon="-1.75456">
        <ele>52.024358</ele>
        <time>2022-12-17T11:52:56.389Z</time>
      </trkpt>
      <trkpt lat="47.07719" lon="-1.75461">
        <ele>52.290398</ele>
        <time>2022-12-17T11:52:59.387Z</time>
      </trkpt>
      <trkpt lat="47.07708" lon="-1.75466">
        <ele>52.542333</ele>
        <time>2022-12-17T11:53:02.376Z</time>
      </trkpt>
      <trkpt lat="47.07698" lon="-1.75469">
        <ele>52.7671</ele>
        <time>2022-12-17T11:53:05.390Z</time>
      </trkpt>
      <trkpt lat="47.07688" lon="-1.75473">
        <ele>52.987693</ele>
        <time>2022-12-17T11:53:08.373Z</time>
      </trkpt>
      <trkpt lat="47.07678" lon="-1.75476">
        <ele>53.214354</ele>
        <time>2022-12-17T11:53:11.369Z</time>
      </trkpt>
      <trkpt lat="47.07668" lon="-1.7548">
        <ele>53.427406</ele>
        <time>2022-12-17T11:53:14.392Z</time>
      </trkpt>
      <trkpt lat="47.07659" lon="-1.75484">
        <ele>53.625566</ele>
        <time>2022-12-17T11:53:17.370Z</time>
      </trkpt>
      <trkpt lat="47.0765" lon="-1.75488">
        <ele>53.832964</ele>
        <time>2022-12-17T11:53:20.372Z</time>
      </trkpt>
      <trkpt lat="47.07641" lon="-1.75491">
        <ele>54.077456</ele>
        <time>2022-12-17T11:53:23.378Z</time>
      </trkpt>
      <trkpt lat="47.07631" lon="-1.75494">
        <ele>54.316419</ele>
        <time>2022-12-17T11:53:26.387Z</time>
      </trkpt>
      <trkpt lat="47.0762" lon="-1.75498">
        <ele>54.601839</ele>
        <time>2022-12-17T11:53:30.383Z</time>
      </trkpt>
      <trkpt lat="47.07611" lon="-1.75502">
        <ele>54.826606</ele>
        <time>2022-12-17T11:53:33.375Z</time>
      </trkpt>
      <trkpt lat="47.07602" lon="-1.75506">
        <ele>55.059528</ele>
        <time>2022-12-17T11:53:36.372Z</time>
      </trkpt>
      <trkpt lat="47.07593" lon="-1.7551">
        <ele>55.290945</ele>
        <time>2022-12-17T11:53:39.371Z</time>
      </trkpt>
      <trkpt lat="47.07584" lon="-1.75513">
        <ele>55.518326</ele>
        <time>2022-12-17T11:53:42.372Z</time>
      </trkpt>
      <trkpt lat="47.07575" lon="-1.75517">
        <ele>55.751574</ele>
        <time>2022-12-17T11:53:45.376Z</time>
      </trkpt>
      <trkpt lat="47.07566" lon="-1.7552">
        <ele>55.979354</ele>
        <time>2022-12-17T11:53:48.379Z</time>
      </trkpt>
      <trkpt lat="47.07557" lon="-1.75524">
        <ele>56.206735</ele>
        <time>2022-12-17T11:53:51.378Z</time>
      </trkpt>
      <trkpt lat="47.07548" lon="-1.75527">
        <ele>56.432134</ele>
        <time>2022-12-17T11:53:54.385Z</time>
      </trkpt>
      <trkpt lat="47.07539" lon="-1.7553">
        <ele>56.667467</ele>
        <time>2022-12-17T11:53:58.393Z</time>
      </trkpt>
      <trkpt lat="47.07528" lon="-1.75535">
        <ele>56.932769</ele>
        <time>2022-12-17T11:54:02.372Z</time>
      </trkpt>
      <trkpt lat="47.07519" lon="-1.75538">
        <ele>57.154718</ele>
        <time>2022-12-17T11:54:05.379Z</time>
      </trkpt>
      <trkpt lat="47.07508" lon="-1.75543">
        <ele>57.442213</ele>
        <time>2022-12-17T11:54:09.371Z</time>
      </trkpt>
      <trkpt lat="47.07498" lon="-1.75547">
        <ele>57.714592</ele>
        <time>2022-12-17T11:54:13.371Z</time>
      </trkpt>
      <trkpt lat="47.07488" lon="-1.7555">
        <ele>57.960976</ele>
        <time>2022-12-17T11:54:17.379Z</time>
      </trkpt>
      <trkpt lat="47.07477" lon="-1.75553">
        <ele>58.223325</ele>
        <time>2022-12-17T11:54:21.378Z</time>
      </trkpt>
      <trkpt lat="47.07466" lon="-1.75557">
        <ele>58.510492</ele>
        <time>2022-12-17T11:54:25.397Z</time>
      </trkpt>
      <trkpt lat="47.07455" lon="-1.75561">
        <ele>58.800343</ele>
        <time>2022-12-17T11:54:29.387Z</time>
      </trkpt>
      <trkpt lat="47.07444" lon="-1.75566">
        <ele>59.078942</ele>
        <time>2022-12-17T11:54:33.372Z</time>
      </trkpt>
      <trkpt lat="47.07433" lon="-1.75571">
        <ele>59.375953</ele>
        <time>2022-12-17T11:54:37.386Z</time>
      </trkpt>
      <trkpt lat="47.07424" lon="-1.75576">
        <ele>59.616554</ele>
        <time>2022-12-17T11:54:40.384Z</time>
      </trkpt>
      <trkpt lat="47.07415" lon="-1.75579">
        <ele>59.848323</ele>
        <time>2022-12-17T11:54:43.390Z</time>
      </trkpt>
      <trkpt lat="47.07407" lon="-1.75582">
        <ele>60.077224</ele>
        <time>2022-12-17T11:54:46.379Z</time>
      </trkpt>
      <trkpt lat="47.07397" lon="-1.75585">
        <ele>60.313486</ele>
        <time>2022-12-17T11:54:49.378Z</time>
      </trkpt>
      <trkpt lat="47.07388" lon="-1.75589">
        <ele>60.55958</ele>
        <time>2022-12-17T11:54:52.374Z</time>
      </trkpt>
      <trkpt lat="47.07378" lon="-1.75592">
        <ele>60.809329</ele>
        <time>2022-12-17T11:54:55.374Z</time>
      </trkpt>
      <trkpt lat="47.07369" lon="-1.75596">
        <ele>61.050634</ele>
        <time>2022-12-17T11:54:58.392Z</time>
      </trkpt>
      <trkpt lat="47.0736" lon="-1.75599">
        <ele>61.283655</ele>
        <time>2022-12-17T11:55:01.373Z</time>
      </trkpt>
      <trkpt lat="47.07351" lon="-1.75602">
        <ele>61.528648</ele>
        <time>2022-12-17T11:55:04.386Z</time>
      </trkpt>
      <trkpt lat="47.07342" lon="-1.75605">
        <ele>61.767059</ele>
        <time>2022-12-17T11:55:07.386Z</time>
      </trkpt>
      <trkpt lat="47.07332" lon="-1.75609">
        <ele>62.009318</ele>
        <time>2022-12-17T11:55:10.398Z</time>
      </trkpt>
      <trkpt lat="47.07323" lon="-1.75613">
        <ele>62.250163</ele>
        <time>2022-12-17T11:55:13.376Z</time>
      </trkpt>
      <trkpt lat="47.07313" lon="-1.75618">
        <ele>62.510889</ele>
        <time>2022-12-17T11:55:16.393Z</time>
      </trkpt>
      <trkpt lat="47.07304" lon="-1.75623">
        <ele>62.761612</ele>
        <time>2022-12-17T11:55:19.373Z</time>
      </trkpt>
      <trkpt lat="47.07294" lon="-1.75629">
        <ele>62.885284</ele>
        <time>2022-12-17T11:55:22.373Z</time>
      </trkpt>
      <trkpt lat="47.07284" lon="-1.75636">
        <ele>63.006318</ele>
        <time>2022-12-17T11:55:25.372Z</time>
      </trkpt>
      <trkpt lat="47.07274" lon="-1.75644">
        <ele>63.129053</ele>
        <time>2022-12-17T11:55:28.376Z</time>
      </trkpt>
      <trkpt lat="47.07265" lon="-1.75653">
        <ele>63.253578</ele>
        <time>2022-12-17T11:55:31.386Z</time>
      </trkpt>
      <trkpt lat="47.07256" lon="-1.75662">
        <ele>63.373779</ele>
        <time>2022-12-17T11:55:34.370Z</time>
      </trkpt>
      <trkpt lat="47.07247" lon="-1.75671">
        <ele>63.493919</ele>
        <time>2022-12-17T11:55:37.385Z</time>
      </trkpt>
      <trkpt lat="47.07238" lon="-1.75681">
        <ele>63.612392</ele>
        <time>2022-12-17T11:55:40.374Z</time>
      </trkpt>
      <trkpt lat="47.07229" lon="-1.75691">
        <ele>63.737091</ele>
        <time>2022-12-17T11:55:43.371Z</time>
      </trkpt>
      <trkpt lat="47.07221" lon="-1.75702">
        <ele>63.860944</ele>
        <time>2022-12-17T11:55:46.371Z</time>
      </trkpt>
      <trkpt lat="47.07212" lon="-1.75712">
        <ele>63.977628</ele>
        <time>2022-12-17T11:55:49.378Z</time>
      </trkpt>
      <trkpt lat="47.07204" lon="-1.75721">
        <ele>64.092059</ele>
        <time>2022-12-17T11:55:52.369Z</time>
      </trkpt>
      <trkpt lat="47.07195" lon="-1.75732">
        <ele>64.216672</ele>
        <time>2022-12-17T11:55:55.383Z</time>
      </trkpt>
      <trkpt lat="47.07186" lon="-1.75743">
        <ele>64.346183</ele>
        <time>2022-12-17T11:55:58.373Z</time>
      </trkpt>
      <trkpt lat="47.07177" lon="-1.75753">
        <ele>64.46896</ele>
        <time>2022-12-17T11:56:01.373Z</time>
      </trkpt>
      <trkpt lat="47.07169" lon="-1.75761">
        <ele>64.579349</ele>
        <time>2022-12-17T11:56:04.377Z</time>
      </trkpt>
      <trkpt lat="47.07161" lon="-1.7577">
        <ele>64.686786</ele>
        <time>2022-12-17T11:56:07.378Z</time>
      </trkpt>
      <trkpt lat="47.07153" lon="-1.7578">
        <ele>64.775043</ele>
        <time>2022-12-17T11:56:10.371Z</time>
      </trkpt>
      <trkpt lat="47.07145" lon="-1.75791">
        <ele>64.841208</ele>
        <time>2022-12-17T11:56:13.378Z</time>
      </trkpt>
      <trkpt lat="47.07136" lon="-1.75802">
        <ele>64.911321</ele>
        <time>2022-12-17T11:56:16.372Z</time>
      </trkpt>
      <trkpt lat="47.07127" lon="-1.75812">
        <ele>64.979386</ele>
        <time>2022-12-17T11:56:19.381Z</time>
      </trkpt>
      <trkpt lat="47.07117" lon="-1.75824">
        <ele>65.052559</ele>
        <time>2022-12-17T11:56:22.373Z</time>
      </trkpt>
      <trkpt lat="47.07108" lon="-1.75834">
        <ele>65.120598</ele>
        <time>2022-12-17T11:56:25.390Z</time>
      </trkpt>
      <trkpt lat="47.07099" lon="-1.75845">
        <ele>65.190191</ele>
        <time>2022-12-17T11:56:28.379Z</time>
      </trkpt>
      <trkpt lat="47.0709" lon="-1.75854">
        <ele>65.253909</ele>
        <time>2022-12-17T11:56:31.376Z</time>
      </trkpt>
      <trkpt lat="47.07082" lon="-1.75863">
        <ele>65.31524</ele>
        <time>2022-12-17T11:56:34.390Z</time>
      </trkpt>
      <trkpt lat="47.07073" lon="-1.75874">
        <ele>65.383305</ele>
        <time>2022-12-17T11:56:37.378Z</time>
      </trkpt>
      <trkpt lat="47.07064" lon="-1.75884">
        <ele>65.454709</ele>
        <time>2022-12-17T11:56:40.384Z</time>
      </trkpt>
      <trkpt lat="47.07054" lon="-1.75895">
        <ele>65.525894</ele>
        <time>2022-12-17T11:56:43.398Z</time>
      </trkpt>
      <trkpt lat="47.07045" lon="-1.75905">
        <ele>65.596082</ele>
        <time>2022-12-17T11:56:46.390Z</time>
      </trkpt>
      <trkpt lat="47.07036" lon="-1.75917">
        <ele>65.666391</ele>
        <time>2022-12-17T11:56:49.382Z</time>
      </trkpt>
      <trkpt lat="47.07027" lon="-1.75927">
        <ele>65.733196</ele>
        <time>2022-12-17T11:56:52.368Z</time>
      </trkpt>
      <trkpt lat="47.07019" lon="-1.75937">
        <ele>65.798141</ele>
        <time>2022-12-17T11:56:55.394Z</time>
      </trkpt>
      <trkpt lat="47.0701" lon="-1.75947">
        <ele>65.993189</ele>
        <time>2022-12-17T11:56:58.383Z</time>
      </trkpt>
      <trkpt lat="47.07001" lon="-1.75958">
        <ele>66.236144</ele>
        <time>2022-12-17T11:57:01.386Z</time>
      </trkpt>
      <trkpt lat="47.06992" lon="-1.75968">
        <ele>66.481565</ele>
        <time>2022-12-17T11:57:04.371Z</time>
      </trkpt>
      <trkpt lat="47.06983" lon="-1.75979">
        <ele>66.728773</ele>
        <time>2022-12-17T11:57:07.379Z</time>
      </trkpt>
      <trkpt lat="47.06974" lon="-1.7599">
        <ele>66.980091</ele>
        <time>2022-12-17T11:57:10.387Z</time>
      </trkpt>
      <trkpt lat="47.06965" lon="-1.75999">
        <ele>67.215117</ele>
        <time>2022-12-17T11:57:13.379Z</time>
      </trkpt>
      <trkpt lat="47.06958" lon="-1.76008">
        <ele>67.414906</ele>
        <time>2022-12-17T11:57:16.378Z</time>
      </trkpt>
      <trkpt lat="47.0695" lon="-1.76017">
        <ele>67.626711</ele>
        <time>2022-12-17T11:57:20.377Z</time>
      </trkpt>
      <trkpt lat="47.06941" lon="-1.76024">
        <ele>67.851048</ele>
        <time>2022-12-17T11:57:24.377Z</time>
      </trkpt>
      <trkpt lat="47.06931" lon="-1.76034">
        <ele>68.097703</ele>
        <time>2022-12-17T11:57:28.375Z</time>
      </trkpt>
      <trkpt lat="47.06923" lon="-1.7604">
        <ele>68.291845</ele>
        <time>2022-12-17T11:57:31.385Z</time>
      </trkpt>
      <trkpt lat="47.06915" lon="-1.76046">
        <ele>68.484388</ele>
        <time>2022-12-17T11:57:34.382Z</time>
      </trkpt>
      <trkpt lat="47.06907" lon="-1.76052">
        <ele>68.677553</ele>
        <time>2022-12-17T11:57:37.389Z</time>
      </trkpt>
      <trkpt lat="47.06896" lon="-1.7606">
        <ele>68.935929</ele>
        <time>2022-12-17T11:57:41.377Z</time>
      </trkpt>
      <trkpt lat="47.06887" lon="-1.76065">
        <ele>69.147554</ele>
        <time>2022-12-17T11:57:44.390Z</time>
      </trkpt>
      <trkpt lat="47.06878" lon="-1.7607">
        <ele>69.345121</ele>
        <time>2022-12-17T11:57:47.393Z</time>
      </trkpt>
      <trkpt lat="47.06867" lon="-1.76075">
        <ele>69.59195</ele>
        <time>2022-12-17T11:57:51.382Z</time>
      </trkpt>
      <trkpt lat="47.06856" lon="-1.7608">
        <ele>69.893517</ele>
        <time>2022-12-17T11:57:55.373Z</time>
      </trkpt>
      <trkpt lat="47.06846" lon="-1.76085">
        <ele>70.178937</ele>
        <time>2022-12-17T11:57:59.382Z</time>
      </trkpt>
      <trkpt lat="47.06836" lon="-1.76089">
        <ele>70.467514</ele>
        <time>2022-12-17T11:58:03.389Z</time>
      </trkpt>
      <trkpt lat="47.06826" lon="-1.76094">
        <ele>70.760771</ele>
        <time>2022-12-17T11:58:07.374Z</time>
      </trkpt>
      <trkpt lat="47.06816" lon="-1.76097">
        <ele>71.022151</ele>
        <time>2022-12-17T11:58:11.403Z</time>
      </trkpt>
      <trkpt lat="47.06806" lon="-1.76101">
        <ele>71.322254</ele>
        <time>2022-12-17T11:58:15.374Z</time>
      </trkpt>
      <trkpt lat="47.06795" lon="-1.76106">
        <ele>71.621273</ele>
        <time>2022-12-17T11:58:19.383Z</time>
      </trkpt>
      <trkpt lat="47.06785" lon="-1.7611">
        <ele>71.921876</ele>
        <time>2022-12-17T11:58:23.385Z</time>
      </trkpt>
      <trkpt lat="47.06775" lon="-1.76115">
        <ele>72.21199</ele>
        <time>2022-12-17T11:58:27.418Z</time>
      </trkpt>
      <trkpt lat="47.06765" lon="-1.76119">
        <ele>72.489073</ele>
        <time>2022-12-17T11:58:31.376Z</time>
      </trkpt>
      <trkpt lat="47.06755" lon="-1.76123">
        <ele>72.757206</ele>
        <time>2022-12-17T11:58:35.368Z</time>
      </trkpt>
      <trkpt lat="47.06746" lon="-1.76127">
        <ele>73.019667</ele>
        <time>2022-12-17T11:58:39.395Z</time>
      </trkpt>
      <trkpt lat="47.06737" lon="-1.76131">
        <ele>73.284172</ele>
        <time>2022-12-17T11:58:43.394Z</time>
      </trkpt>
      <trkpt lat="47.06728" lon="-1.76135">
        <ele>73.550735</ele>
        <time>2022-12-17T11:58:47.369Z</time>
      </trkpt>
      <trkpt lat="47.06718" lon="-1.7614">
        <ele>73.830942</ele>
        <time>2022-12-17T11:58:51.379Z</time>
      </trkpt>
      <trkpt lat="47.06708" lon="-1.76145">
        <ele>74.12584</ele>
        <time>2022-12-17T11:58:55.376Z</time>
      </trkpt>
      <trkpt lat="47.06698" lon="-1.76149">
        <ele>74.411261</ele>
        <time>2022-12-17T11:58:59.375Z</time>
      </trkpt>
      <trkpt lat="47.06687" lon="-1.76154">
        <ele>74.643097</ele>
        <time>2022-12-17T11:59:03.384Z</time>
      </trkpt>
      <trkpt lat="47.06677" lon="-1.76158">
        <ele>74.810563</ele>
        <time>2022-12-17T11:59:07.387Z</time>
      </trkpt>
      <trkpt lat="47.06667" lon="-1.76164">
        <ele>74.978899</ele>
        <time>2022-12-17T11:59:11.374Z</time>
      </trkpt>
      <trkpt lat="47.06657" lon="-1.76168">
        <ele>75.142805</ele>
        <time>2022-12-17T11:59:15.370Z</time>
      </trkpt>
      <trkpt lat="47.06647" lon="-1.76172">
        <ele>75.303118</ele>
        <time>2022-12-17T11:59:19.385Z</time>
      </trkpt>
      <trkpt lat="47.06637" lon="-1.76177">
        <ele>75.470274</ele>
        <time>2022-12-17T11:59:23.373Z</time>
      </trkpt>
      <trkpt lat="47.06626" lon="-1.76181">
        <ele>75.645257</ele>
        <time>2022-12-17T11:59:27.380Z</time>
      </trkpt>
      <trkpt lat="47.06616" lon="-1.76185">
        <ele>75.814263</ele>
        <time>2022-12-17T11:59:31.373Z</time>
      </trkpt>
      <trkpt lat="47.06606" lon="-1.7619">
        <ele>75.97756</ele>
        <time>2022-12-17T11:59:35.393Z</time>
      </trkpt>
      <trkpt lat="47.06595" lon="-1.76196">
        <ele>76.153653</ele>
        <time>2022-12-17T11:59:39.384Z</time>
      </trkpt>
      <trkpt lat="47.06584" lon="-1.76201">
        <ele>76.340494</ele>
        <time>2022-12-17T11:59:43.390Z</time>
      </trkpt>
      <trkpt lat="47.06575" lon="-1.76206">
        <ele>76.492686</ele>
        <time>2022-12-17T11:59:46.372Z</time>
      </trkpt>
      <trkpt lat="47.06565" lon="-1.76209">
        <ele>76.653018</ele>
        <time>2022-12-17T11:59:49.373Z</time>
      </trkpt>
      <trkpt lat="47.06556" lon="-1.76213">
        <ele>76.802729</ele>
        <time>2022-12-17T11:59:52.370Z</time>
      </trkpt>
      <trkpt lat="47.06547" lon="-1.76218">
        <ele>76.947511</ele>
        <time>2022-12-17T11:59:55.373Z</time>
      </trkpt>
      <trkpt lat="47.06538" lon="-1.76222">
        <ele>77.095425</ele>
        <time>2022-12-17T11:59:58.390Z</time>
      </trkpt>
      <trkpt lat="47.06529" lon="-1.76226">
        <ele>77.244302</ele>
        <time>2022-12-17T12:00:01.383Z</time>
      </trkpt>
      <trkpt lat="47.06519" lon="-1.76232">
        <ele>77.347844</ele>
        <time>2022-12-17T12:00:04.370Z</time>
      </trkpt>
      <trkpt lat="47.06507" lon="-1.76237">
        <ele>77.098273</ele>
        <time>2022-12-17T12:00:07.371Z</time>
      </trkpt>
      <trkpt lat="47.06495" lon="-1.76243">
        <ele>76.8386</ele>
        <time>2022-12-17T12:00:10.371Z</time>
      </trkpt>
      <trkpt lat="47.06482" lon="-1.76249">
        <ele>76.563701</ele>
        <time>2022-12-17T12:00:13.369Z</time>
      </trkpt>
      <trkpt lat="47.06473" lon="-1.76253">
        <ele>76.375288</ele>
        <time>2022-12-17T12:00:15.382Z</time>
      </trkpt>
      <trkpt lat="47.06465" lon="-1.76258">
        <ele>76.181699</ele>
        <time>2022-12-17T12:00:17.377Z</time>
      </trkpt>
      <trkpt lat="47.06455" lon="-1.76262">
        <ele>75.987914</ele>
        <time>2022-12-17T12:00:19.387Z</time>
      </trkpt>
      <trkpt lat="47.06446" lon="-1.76266">
        <ele>75.79494</ele>
        <time>2022-12-17T12:00:21.391Z</time>
      </trkpt>
      <trkpt lat="47.06437" lon="-1.76272">
        <ele>75.591357</ele>
        <time>2022-12-17T12:00:23.391Z</time>
      </trkpt>
      <trkpt lat="47.06427" lon="-1.76277">
        <ele>75.374379</ele>
        <time>2022-12-17T12:00:25.380Z</time>
      </trkpt>
      <trkpt lat="47.06417" lon="-1.76282">
        <ele>75.160214</ele>
        <time>2022-12-17T12:00:27.380Z</time>
      </trkpt>
      <trkpt lat="47.06407" lon="-1.76287">
        <ele>74.943673</ele>
        <time>2022-12-17T12:00:29.382Z</time>
      </trkpt>
      <trkpt lat="47.06396" lon="-1.76292">
        <ele>74.720265</ele>
        <time>2022-12-17T12:00:31.389Z</time>
      </trkpt>
      <trkpt lat="47.06386" lon="-1.76297">
        <ele>74.491727</ele>
        <time>2022-12-17T12:00:33.379Z</time>
      </trkpt>
      <trkpt lat="47.06375" lon="-1.76302">
        <ele>74.265966</ele>
        <time>2022-12-17T12:00:35.384Z</time>
      </trkpt>
      <trkpt lat="47.06365" lon="-1.76309">
        <ele>74.038752</ele>
        <time>2022-12-17T12:00:37.396Z</time>
      </trkpt>
      <trkpt lat="47.06355" lon="-1.76314">
        <ele>73.816097</ele>
        <time>2022-12-17T12:00:39.380Z</time>
      </trkpt>
      <trkpt lat="47.06344" lon="-1.76319">
        <ele>73.627223</ele>
        <time>2022-12-17T12:00:41.374Z</time>
      </trkpt>
      <trkpt lat="47.06333" lon="-1.76325">
        <ele>73.442162</ele>
        <time>2022-12-17T12:00:43.368Z</time>
      </trkpt>
      <trkpt lat="47.06322" lon="-1.7633">
        <ele>73.268974</ele>
        <time>2022-12-17T12:00:45.383Z</time>
      </trkpt>
      <trkpt lat="47.06311" lon="-1.76335">
        <ele>73.09176</ele>
        <time>2022-12-17T12:00:47.387Z</time>
      </trkpt>
      <trkpt lat="47.06301" lon="-1.7634">
        <ele>72.919709</ele>
        <time>2022-12-17T12:00:49.373Z</time>
      </trkpt>
      <trkpt lat="47.0629" lon="-1.76345">
        <ele>72.755335</ele>
        <time>2022-12-17T12:00:51.383Z</time>
      </trkpt>
      <trkpt lat="47.0628" lon="-1.76349">
        <ele>72.586834</ele>
        <time>2022-12-17T12:00:53.372Z</time>
      </trkpt>
      <trkpt lat="47.0627" lon="-1.76353">
        <ele>72.425685</ele>
        <time>2022-12-17T12:00:55.376Z</time>
      </trkpt>
      <trkpt lat="47.0626" lon="-1.76357">
        <ele>72.263976</ele>
        <time>2022-12-17T12:00:57.395Z</time>
      </trkpt>
      <trkpt lat="47.0625" lon="-1.76362">
        <ele>72.106411</ele>
        <time>2022-12-17T12:00:59.383Z</time>
      </trkpt>
      <trkpt lat="47.0624" lon="-1.76366">
        <ele>71.947593</ele>
        <time>2022-12-17T12:01:01.391Z</time>
      </trkpt>
      <trkpt lat="47.0623" lon="-1.7637">
        <ele>71.794697</ele>
        <time>2022-12-17T12:01:03.375Z</time>
      </trkpt>
      <trkpt lat="47.06221" lon="-1.76375">
        <ele>71.643182</ele>
        <time>2022-12-17T12:01:05.393Z</time>
      </trkpt>
      <trkpt lat="47.06212" lon="-1.76379">
        <ele>71.491195</ele>
        <time>2022-12-17T12:01:07.390Z</time>
      </trkpt>
      <trkpt lat="47.06202" lon="-1.76384">
        <ele>71.3327</ele>
        <time>2022-12-17T12:01:09.380Z</time>
      </trkpt>
      <trkpt lat="47.06192" lon="-1.76389">
        <ele>71.162765</ele>
        <time>2022-12-17T12:01:11.390Z</time>
      </trkpt>
      <trkpt lat="47.06181" lon="-1.76394">
        <ele>70.986848</ele>
        <time>2022-12-17T12:01:13.378Z</time>
      </trkpt>
      <trkpt lat="47.0617" lon="-1.76399">
        <ele>70.864378</ele>
        <time>2022-12-17T12:01:15.377Z</time>
      </trkpt>
      <trkpt lat="47.0616" lon="-1.76404">
        <ele>70.750188</ele>
        <time>2022-12-17T12:01:17.389Z</time>
      </trkpt>
      <trkpt lat="47.06149" lon="-1.76409">
        <ele>70.631627</ele>
        <time>2022-12-17T12:01:19.390Z</time>
      </trkpt>
      <trkpt lat="47.06138" lon="-1.76414">
        <ele>70.510931</ele>
        <time>2022-12-17T12:01:21.382Z</time>
      </trkpt>
      <trkpt lat="47.06127" lon="-1.76419">
        <ele>70.392798</ele>
        <time>2022-12-17T12:01:23.388Z</time>
      </trkpt>
      <trkpt lat="47.06115" lon="-1.76424">
        <ele>70.271861</ele>
        <time>2022-12-17T12:01:25.380Z</time>
      </trkpt>
      <trkpt lat="47.06104" lon="-1.76429">
        <ele>70.150444</ele>
        <time>2022-12-17T12:01:27.384Z</time>
      </trkpt>
      <trkpt lat="47.06093" lon="-1.76435">
        <ele>70.027351</ele>
        <time>2022-12-17T12:01:29.392Z</time>
      </trkpt>
      <trkpt lat="47.06083" lon="-1.76439">
        <ele>69.91548</ele>
        <time>2022-12-17T12:01:31.380Z</time>
      </trkpt>
      <trkpt lat="47.06072" lon="-1.76444">
        <ele>69.797902</ele>
        <time>2022-12-17T12:01:33.395Z</time>
      </trkpt>
      <trkpt lat="47.06061" lon="-1.7645">
        <ele>69.683065</ele>
        <time>2022-12-17T12:01:35.372Z</time>
      </trkpt>
      <trkpt lat="47.0605" lon="-1.76455">
        <ele>69.561647</ele>
        <time>2022-12-17T12:01:37.381Z</time>
      </trkpt>
      <trkpt lat="47.0604" lon="-1.76459">
        <ele>69.450251</ele>
        <time>2022-12-17T12:01:39.381Z</time>
      </trkpt>
      <trkpt lat="47.0603" lon="-1.76464">
        <ele>69.343842</ele>
        <time>2022-12-17T12:01:41.393Z</time>
      </trkpt>
      <trkpt lat="47.0602" lon="-1.76469">
        <ele>69.235072</ele>
        <time>2022-12-17T12:01:43.376Z</time>
      </trkpt>
      <trkpt lat="47.0601" lon="-1.76474">
        <ele>69.124268</ele>
        <time>2022-12-17T12:01:45.385Z</time>
      </trkpt>
      <trkpt lat="47.06" lon="-1.76479">
        <ele>69.009476</ele>
        <time>2022-12-17T12:01:47.376Z</time>
      </trkpt>
      <trkpt lat="47.0599" lon="-1.76484">
        <ele>68.895274</ele>
        <time>2022-12-17T12:01:49.372Z</time>
      </trkpt>
      <trkpt lat="47.0598" lon="-1.76489">
        <ele>68.782828</ele>
        <time>2022-12-17T12:01:51.382Z</time>
      </trkpt>
      <trkpt lat="47.05971" lon="-1.76494">
        <ele>68.676276</ele>
        <time>2022-12-17T12:01:53.380Z</time>
      </trkpt>
      <trkpt lat="47.05962" lon="-1.76498">
        <ele>68.569556</ele>
        <time>2022-12-17T12:01:55.374Z</time>
      </trkpt>
      <trkpt lat="47.05952" lon="-1.76503">
        <ele>68.460542</ele>
        <time>2022-12-17T12:01:57.384Z</time>
      </trkpt>
      <trkpt lat="47.05942" lon="-1.76507">
        <ele>68.350391</ele>
        <time>2022-12-17T12:01:59.385Z</time>
      </trkpt>
      <trkpt lat="47.05932" lon="-1.76512">
        <ele>68.233457</ele>
        <time>2022-12-17T12:02:01.391Z</time>
      </trkpt>
      <trkpt lat="47.05922" lon="-1.76517">
        <ele>68.113099</ele>
        <time>2022-12-17T12:02:03.392Z</time>
      </trkpt>
      <trkpt lat="47.05911" lon="-1.76522">
        <ele>67.994085</ele>
        <time>2022-12-17T12:02:05.388Z</time>
      </trkpt>
      <trkpt lat="47.059" lon="-1.76527">
        <ele>67.86834</ele>
        <time>2022-12-17T12:02:07.372Z</time>
      </trkpt>
      <trkpt lat="47.05889" lon="-1.76533">
        <ele>67.742414</ele>
        <time>2022-12-17T12:02:09.383Z</time>
      </trkpt>
      <trkpt lat="47.05878" lon="-1.76538">
        <ele>67.614375</ele>
        <time>2022-12-17T12:02:11.382Z</time>
      </trkpt>
      <trkpt lat="47.05867" lon="-1.76544">
        <ele>67.487366</ele>
        <time>2022-12-17T12:02:13.376Z</time>
      </trkpt>
      <trkpt lat="47.05856" lon="-1.76549">
        <ele>67.360642</ele>
        <time>2022-12-17T12:02:15.382Z</time>
      </trkpt>
      <trkpt lat="47.05845" lon="-1.76554">
        <ele>67.23868</ele>
        <time>2022-12-17T12:02:17.387Z</time>
      </trkpt>
      <trkpt lat="47.05834" lon="-1.76559">
        <ele>67.089</ele>
        <time>2022-12-17T12:02:19.371Z</time>
      </trkpt>
      <trkpt lat="47.05823" lon="-1.76564">
        <ele>66.855234</ele>
        <time>2022-12-17T12:02:21.392Z</time>
      </trkpt>
      <trkpt lat="47.05813" lon="-1.76569">
        <ele>66.626835</ele>
        <time>2022-12-17T12:02:23.377Z</time>
      </trkpt>
      <trkpt lat="47.05802" lon="-1.76574">
        <ele>66.397803</ele>
        <time>2022-12-17T12:02:25.374Z</time>
      </trkpt>
      <trkpt lat="47.05791" lon="-1.7658">
        <ele>66.161229</ele>
        <time>2022-12-17T12:02:27.378Z</time>
      </trkpt>
      <trkpt lat="47.05781" lon="-1.76586">
        <ele>65.931413</ele>
        <time>2022-12-17T12:02:29.394Z</time>
      </trkpt>
      <trkpt lat="47.05769" lon="-1.76592">
        <ele>65.68725</ele>
        <time>2022-12-17T12:02:31.394Z</time>
      </trkpt>
      <trkpt lat="47.05758" lon="-1.76597">
        <ele>65.446528</ele>
        <time>2022-12-17T12:02:33.387Z</time>
      </trkpt>
      <trkpt lat="47.05747" lon="-1.76602">
        <ele>65.20457</ele>
        <time>2022-12-17T12:02:35.386Z</time>
      </trkpt>
      <trkpt lat="47.05735" lon="-1.76607">
        <ele>64.960668</ele>
        <time>2022-12-17T12:02:37.383Z</time>
      </trkpt>
      <trkpt lat="47.05724" lon="-1.76612">
        <ele>64.720343</ele>
        <time>2022-12-17T12:02:39.396Z</time>
      </trkpt>
      <trkpt lat="47.05713" lon="-1.76618">
        <ele>64.474706</ele>
        <time>2022-12-17T12:02:41.386Z</time>
      </trkpt>
      <trkpt lat="47.05701" lon="-1.76622">
        <ele>64.235154</ele>
        <time>2022-12-17T12:02:43.387Z</time>
      </trkpt>
      <trkpt lat="47.0569" lon="-1.76628">
        <ele>63.999446</ele>
        <time>2022-12-17T12:02:45.372Z</time>
      </trkpt>
      <trkpt lat="47.05679" lon="-1.76633">
        <ele>63.768048</ele>
        <time>2022-12-17T12:02:47.374Z</time>
      </trkpt>
      <trkpt lat="47.05669" lon="-1.76638">
        <ele>63.539015</ele>
        <time>2022-12-17T12:02:49.374Z</time>
      </trkpt>
      <trkpt lat="47.05659" lon="-1.76644">
        <ele>63.496653</ele>
        <time>2022-12-17T12:02:51.374Z</time>
      </trkpt>
      <trkpt lat="47.05648" lon="-1.7665">
        <ele>63.522015</ele>
        <time>2022-12-17T12:02:53.374Z</time>
      </trkpt>
      <trkpt lat="47.05639" lon="-1.76654">
        <ele>63.544715</ele>
        <time>2022-12-17T12:02:55.369Z</time>
      </trkpt>
      <trkpt lat="47.05629" lon="-1.76657">
        <ele>63.567186</ele>
        <time>2022-12-17T12:02:57.380Z</time>
      </trkpt>
      <trkpt lat="47.0562" lon="-1.76662">
        <ele>63.590723</ele>
        <time>2022-12-17T12:02:59.369Z</time>
      </trkpt>
      <trkpt lat="47.0561" lon="-1.76668">
        <ele>63.614856</ele>
        <time>2022-12-17T12:03:01.374Z</time>
      </trkpt>
      <trkpt lat="47.056" lon="-1.76672">
        <ele>63.639632</ele>
        <time>2022-12-17T12:03:03.381Z</time>
      </trkpt>
      <trkpt lat="47.0559" lon="-1.76676">
        <ele>63.663223</ele>
        <time>2022-12-17T12:03:05.394Z</time>
      </trkpt>
      <trkpt lat="47.05579" lon="-1.76682">
        <ele>63.690006</ele>
        <time>2022-12-17T12:03:07.371Z</time>
      </trkpt>
      <trkpt lat="47.05569" lon="-1.76687">
        <ele>63.71514</ele>
        <time>2022-12-17T12:03:09.394Z</time>
      </trkpt>
      <trkpt lat="47.05559" lon="-1.76691">
        <ele>63.737547</ele>
        <time>2022-12-17T12:03:11.382Z</time>
      </trkpt>
      <trkpt lat="47.0555" lon="-1.76695">
        <ele>63.760915</ele>
        <time>2022-12-17T12:03:13.376Z</time>
      </trkpt>
      <trkpt lat="47.05539" lon="-1.76699">
        <ele>63.785439</ele>
        <time>2022-12-17T12:03:15.378Z</time>
      </trkpt>
      <trkpt lat="47.05529" lon="-1.76704">
        <ele>63.809427</ele>
        <time>2022-12-17T12:03:17.369Z</time>
      </trkpt>
      <trkpt lat="47.0552" lon="-1.76708">
        <ele>63.83259</ele>
        <time>2022-12-17T12:03:19.386Z</time>
      </trkpt>
      <trkpt lat="47.0551" lon="-1.76714">
        <ele>63.856778</ele>
        <time>2022-12-17T12:03:21.374Z</time>
      </trkpt>
      <trkpt lat="47.05501" lon="-1.76718">
        <ele>63.878899</ele>
        <time>2022-12-17T12:03:23.399Z</time>
      </trkpt>
      <trkpt lat="47.05492" lon="-1.76722">
        <ele>63.921055</ele>
        <time>2022-12-17T12:03:25.376Z</time>
      </trkpt>
      <trkpt lat="47.05483" lon="-1.76726">
        <ele>63.995618</ele>
        <time>2022-12-17T12:03:27.382Z</time>
      </trkpt>
      <trkpt lat="47.05473" lon="-1.7673">
        <ele>64.075334</ele>
        <time>2022-12-17T12:03:29.383Z</time>
      </trkpt>
      <trkpt lat="47.05464" lon="-1.76734">
        <ele>64.149289</ele>
        <time>2022-12-17T12:03:31.376Z</time>
      </trkpt>
      <trkpt lat="47.05455" lon="-1.76738">
        <ele>64.224951</ele>
        <time>2022-12-17T12:03:33.416Z</time>
      </trkpt>
      <trkpt lat="47.05446" lon="-1.76743">
        <ele>64.299685</ele>
        <time>2022-12-17T12:03:35.381Z</time>
      </trkpt>
      <trkpt lat="47.05438" lon="-1.76747">
        <ele>64.373272</ele>
        <time>2022-12-17T12:03:37.374Z</time>
      </trkpt>
      <trkpt lat="47.05428" lon="-1.76753">
        <ele>64.451181</ele>
        <time>2022-12-17T12:03:39.379Z</time>
      </trkpt>
      <trkpt lat="47.05419" lon="-1.76757">
        <ele>64.527019</ele>
        <time>2022-12-17T12:03:41.376Z</time>
      </trkpt>
      <trkpt lat="47.05411" lon="-1.76761">
        <ele>64.60109</ele>
        <time>2022-12-17T12:03:43.385Z</time>
      </trkpt>
      <trkpt lat="47.05399" lon="-1.76768">
        <ele>64.696538</ele>
        <time>2022-12-17T12:03:46.374Z</time>
      </trkpt>
      <trkpt lat="47.05387" lon="-1.76773">
        <ele>64.802221</ele>
        <time>2022-12-17T12:03:49.378Z</time>
      </trkpt>
      <trkpt lat="47.05375" lon="-1.76779">
        <ele>64.901249</ele>
        <time>2022-12-17T12:03:52.373Z</time>
      </trkpt>
      <trkpt lat="47.05363" lon="-1.76785">
        <ele>65.000531</ele>
        <time>2022-12-17T12:03:55.388Z</time>
      </trkpt>
      <trkpt lat="47.05351" lon="-1.7679">
        <ele>65.097812</ele>
        <time>2022-12-17T12:03:58.385Z</time>
      </trkpt>
      <trkpt lat="47.05339" lon="-1.76795">
        <ele>65.199534</ele>
        <time>2022-12-17T12:04:01.383Z</time>
      </trkpt>
      <trkpt lat="47.05327" lon="-1.76801">
        <ele>65.300782</ele>
        <time>2022-12-17T12:04:04.388Z</time>
      </trkpt>
      <trkpt lat="47.05315" lon="-1.76807">
        <ele>65.320957</ele>
        <time>2022-12-17T12:04:07.388Z</time>
      </trkpt>
      <trkpt lat="47.05302" lon="-1.76813">
        <ele>65.316439</ele>
        <time>2022-12-17T12:04:10.391Z</time>
      </trkpt>
      <trkpt lat="47.05293" lon="-1.76817">
        <ele>65.313349</ele>
        <time>2022-12-17T12:04:12.372Z</time>
      </trkpt>
      <trkpt lat="47.05284" lon="-1.76821">
        <ele>65.310323</ele>
        <time>2022-12-17T12:04:14.380Z</time>
      </trkpt>
      <trkpt lat="47.05275" lon="-1.76825">
        <ele>65.307275</ele>
        <time>2022-12-17T12:04:16.377Z</time>
      </trkpt>
      <trkpt lat="47.05263" lon="-1.76832">
        <ele>65.302789</ele>
        <time>2022-12-17T12:04:19.379Z</time>
      </trkpt>
      <trkpt lat="47.0525" lon="-1.76837">
        <ele>65.298358</ele>
        <time>2022-12-17T12:04:22.374Z</time>
      </trkpt>
      <trkpt lat="47.05241" lon="-1.76841">
        <ele>65.295332</ele>
        <time>2022-12-17T12:04:24.378Z</time>
      </trkpt>
      <trkpt lat="47.05232" lon="-1.76846">
        <ele>65.292152</ele>
        <time>2022-12-17T12:04:26.382Z</time>
      </trkpt>
      <trkpt lat="47.05223" lon="-1.7685">
        <ele>65.289017</ele>
        <time>2022-12-17T12:04:28.375Z</time>
      </trkpt>
      <trkpt lat="47.05214" lon="-1.76855">
        <ele>65.285867</ele>
        <time>2022-12-17T12:04:30.387Z</time>
      </trkpt>
      <trkpt lat="47.05205" lon="-1.76859">
        <ele>65.282655</ele>
        <time>2022-12-17T12:04:32.374Z</time>
      </trkpt>
      <trkpt lat="47.05196" lon="-1.76863">
        <ele>65.27959</ele>
        <time>2022-12-17T12:04:34.379Z</time>
      </trkpt>
      <trkpt lat="47.05186" lon="-1.76867">
        <ele>65.276322</ele>
        <time>2022-12-17T12:04:36.394Z</time>
      </trkpt>
      <trkpt lat="47.05177" lon="-1.76872">
        <ele>65.273166</ele>
        <time>2022-12-17T12:04:38.388Z</time>
      </trkpt>
      <trkpt lat="47.05168" lon="-1.76876">
        <ele>65.269985</ele>
        <time>2022-12-17T12:04:40.384Z</time>
      </trkpt>
      <trkpt lat="47.05159" lon="-1.76881">
        <ele>65.266765</ele>
        <time>2022-12-17T12:04:42.375Z</time>
      </trkpt>
      <trkpt lat="47.0515" lon="-1.76885">
        <ele>65.314171</ele>
        <time>2022-12-17T12:04:44.376Z</time>
      </trkpt>
      <trkpt lat="47.05141" lon="-1.7689">
        <ele>65.470962</ele>
        <time>2022-12-17T12:04:46.393Z</time>
      </trkpt>
      <trkpt lat="47.05128" lon="-1.76896">
        <ele>65.681549</ele>
        <time>2022-12-17T12:04:49.381Z</time>
      </trkpt>
      <trkpt lat="47.05116" lon="-1.76901">
        <ele>65.868195</ele>
        <time>2022-12-17T12:04:52.373Z</time>
      </trkpt>
      <trkpt lat="47.05105" lon="-1.76907">
        <ele>66.061995</ele>
        <time>2022-12-17T12:04:55.387Z</time>
      </trkpt>
      <trkpt lat="47.05093" lon="-1.76913">
        <ele>66.252138</ele>
        <time>2022-12-17T12:04:58.382Z</time>
      </trkpt>
      <trkpt lat="47.05081" lon="-1.76919">
        <ele>66.448876</ele>
        <time>2022-12-17T12:05:01.389Z</time>
      </trkpt>
      <trkpt lat="47.05071" lon="-1.76924">
        <ele>66.617233</ele>
        <time>2022-12-17T12:05:04.392Z</time>
      </trkpt>
      <trkpt lat="47.05062" lon="-1.76928">
        <ele>66.759385</ele>
        <time>2022-12-17T12:05:06.383Z</time>
      </trkpt>
      <trkpt lat="47.0505" lon="-1.76934">
        <ele>66.962718</ele>
        <time>2022-12-17T12:05:09.380Z</time>
      </trkpt>
      <trkpt lat="47.05037" lon="-1.76941">
        <ele>67.17189</ele>
        <time>2022-12-17T12:05:12.372Z</time>
      </trkpt>
      <trkpt lat="47.05029" lon="-1.76945">
        <ele>67.314395</ele>
        <time>2022-12-17T12:05:14.378Z</time>
      </trkpt>
      <trkpt lat="47.0502" lon="-1.7695">
        <ele>67.459497</ele>
        <time>2022-12-17T12:05:16.377Z</time>
      </trkpt>
      <trkpt lat="47.05011" lon="-1.76953">
        <ele>67.603588</ele>
        <time>2022-12-17T12:05:18.388Z</time>
      </trkpt>
      <trkpt lat="47.05003" lon="-1.76958">
        <ele>67.744672</ele>
        <time>2022-12-17T12:05:20.372Z</time>
      </trkpt>
      <trkpt lat="47.04994" lon="-1.76963">
        <ele>67.885708</ele>
        <time>2022-12-17T12:05:22.373Z</time>
      </trkpt>
      <trkpt lat="47.04981" lon="-1.76969">
        <ele>68.087892</ele>
        <time>2022-12-17T12:05:25.374Z</time>
      </trkpt>
      <trkpt lat="47.04972" lon="-1.76974">
        <ele>68.186042</ele>
        <time>2022-12-17T12:05:27.376Z</time>
      </trkpt>
      <trkpt lat="47.04964" lon="-1.76978">
        <ele>68.281279</ele>
        <time>2022-12-17T12:05:29.379Z</time>
      </trkpt>
      <trkpt lat="47.04954" lon="-1.76982">
        <ele>68.380506</ele>
        <time>2022-12-17T12:05:31.378Z</time>
      </trkpt>
      <trkpt lat="47.04945" lon="-1.76986">
        <ele>68.47772</ele>
        <time>2022-12-17T12:05:33.386Z</time>
      </trkpt>
      <trkpt lat="47.04936" lon="-1.76991">
        <ele>68.578811</ele>
        <time>2022-12-17T12:05:35.382Z</time>
      </trkpt>
      <trkpt lat="47.04927" lon="-1.76995">
        <ele>68.67526</ele>
        <time>2022-12-17T12:05:37.383Z</time>
      </trkpt>
      <trkpt lat="47.04919" lon="-1.76999">
        <ele>68.769529</ele>
        <time>2022-12-17T12:05:39.376Z</time>
      </trkpt>
      <trkpt lat="47.0491" lon="-1.77004">
        <ele>68.862874</ele>
        <time>2022-12-17T12:05:41.379Z</time>
      </trkpt>
      <trkpt lat="47.04901" lon="-1.77008">
        <ele>68.963506</ele>
        <time>2022-12-17T12:05:43.383Z</time>
      </trkpt>
      <trkpt lat="47.04891" lon="-1.77011">
        <ele>69.062045</ele>
        <time>2022-12-17T12:05:45.393Z</time>
      </trkpt>
      <trkpt lat="47.04882" lon="-1.77016">
        <ele>69.159966</ele>
        <time>2022-12-17T12:05:47.380Z</time>
      </trkpt>
      <trkpt lat="47.04873" lon="-1.77021">
        <ele>69.261004</ele>
        <time>2022-12-17T12:05:49.380Z</time>
      </trkpt>
      <trkpt lat="47.04864" lon="-1.77025">
        <ele>69.364172</ele>
        <time>2022-12-17T12:05:51.373Z</time>
      </trkpt>
      <trkpt lat="47.04854" lon="-1.77029">
        <ele>69.462414</ele>
        <time>2022-12-17T12:05:53.383Z</time>
      </trkpt>
      <trkpt lat="47.04845" lon="-1.77033">
        <ele>69.562027</ele>
        <time>2022-12-17T12:05:55.395Z</time>
      </trkpt>
      <trkpt lat="47.04836" lon="-1.77037">
        <ele>69.659724</ele>
        <time>2022-12-17T12:05:57.432Z</time>
      </trkpt>
      <trkpt lat="47.04827" lon="-1.7704">
        <ele>69.755612</ele>
        <time>2022-12-17T12:05:59.385Z</time>
      </trkpt>
      <trkpt lat="47.04818" lon="-1.77046">
        <ele>69.8574</ele>
        <time>2022-12-17T12:06:01.377Z</time>
      </trkpt>
      <trkpt lat="47.04809" lon="-1.77051">
        <ele>69.907512</ele>
        <time>2022-12-17T12:06:03.383Z</time>
      </trkpt>
      <trkpt lat="47.048" lon="-1.77056">
        <ele>69.84932</ele>
        <time>2022-12-17T12:06:05.398Z</time>
      </trkpt>
      <trkpt lat="47.04791" lon="-1.7706">
        <ele>69.796325</ele>
        <time>2022-12-17T12:06:07.374Z</time>
      </trkpt>
      <trkpt lat="47.04782" lon="-1.77065">
        <ele>69.740147</ele>
        <time>2022-12-17T12:06:09.385Z</time>
      </trkpt>
      <trkpt lat="47.04772" lon="-1.7707">
        <ele>69.6826</ele>
        <time>2022-12-17T12:06:11.385Z</time>
      </trkpt>
      <trkpt lat="47.04763" lon="-1.77074">
        <ele>69.627604</ele>
        <time>2022-12-17T12:06:13.384Z</time>
      </trkpt>
      <trkpt lat="47.04754" lon="-1.77078">
        <ele>69.573509</ele>
        <time>2022-12-17T12:06:15.375Z</time>
      </trkpt>
      <trkpt lat="47.04742" lon="-1.77085">
        <ele>69.49965</ele>
        <time>2022-12-17T12:06:18.378Z</time>
      </trkpt>
      <trkpt lat="47.04731" lon="-1.7709">
        <ele>69.430368</ele>
        <time>2022-12-17T12:06:21.373Z</time>
      </trkpt>
      <trkpt lat="47.04719" lon="-1.77096">
        <ele>69.360666</ele>
        <time>2022-12-17T12:06:24.374Z</time>
      </trkpt>
      <trkpt lat="47.04707" lon="-1.77102">
        <ele>69.2887</ele>
        <time>2022-12-17T12:06:27.383Z</time>
      </trkpt>
      <trkpt lat="47.04695" lon="-1.77108">
        <ele>69.21638</ele>
        <time>2022-12-17T12:06:30.382Z</time>
      </trkpt>
      <trkpt lat="47.04684" lon="-1.77114">
        <ele>69.14449</ele>
        <time>2022-12-17T12:06:33.392Z</time>
      </trkpt>
      <trkpt lat="47.04671" lon="-1.77119">
        <ele>69.070837</ele>
        <time>2022-12-17T12:06:36.382Z</time>
      </trkpt>
      <trkpt lat="47.04659" lon="-1.77125">
        <ele>68.996396</ele>
        <time>2022-12-17T12:06:39.395Z</time>
      </trkpt>
      <trkpt lat="47.04647" lon="-1.77131">
        <ele>68.924263</ele>
        <time>2022-12-17T12:06:42.375Z</time>
      </trkpt>
      <trkpt lat="47.04636" lon="-1.77136">
        <ele>68.960133</ele>
        <time>2022-12-17T12:06:45.388Z</time>
      </trkpt>
      <trkpt lat="47.04624" lon="-1.77142">
        <ele>69.097582</ele>
        <time>2022-12-17T12:06:48.378Z</time>
      </trkpt>
      <trkpt lat="47.04613" lon="-1.77147">
        <ele>69.240477</ele>
        <time>2022-12-17T12:06:51.381Z</time>
      </trkpt>
      <trkpt lat="47.04601" lon="-1.77153">
        <ele>69.387489</ele>
        <time>2022-12-17T12:06:54.388Z</time>
      </trkpt>
      <trkpt lat="47.04589" lon="-1.77158">
        <ele>69.532183</ele>
        <time>2022-12-17T12:06:57.381Z</time>
      </trkpt>
      <trkpt lat="47.04576" lon="-1.77165">
        <ele>69.683259</ele>
        <time>2022-12-17T12:07:00.385Z</time>
      </trkpt>
      <trkpt lat="47.04564" lon="-1.77171">
        <ele>69.83514</ele>
        <time>2022-12-17T12:07:03.380Z</time>
      </trkpt>
      <trkpt lat="47.04552" lon="-1.77179">
        <ele>69.987416</ele>
        <time>2022-12-17T12:07:06.381Z</time>
      </trkpt>
      <trkpt lat="47.0454" lon="-1.77186">
        <ele>70.135729</ele>
        <time>2022-12-17T12:07:09.384Z</time>
      </trkpt>
      <trkpt lat="47.04529" lon="-1.77194">
        <ele>70.279036</ele>
        <time>2022-12-17T12:07:12.371Z</time>
      </trkpt>
      <trkpt lat="47.04518" lon="-1.77202">
        <ele>70.420609</ele>
        <time>2022-12-17T12:07:15.384Z</time>
      </trkpt>
      <trkpt lat="47.04507" lon="-1.7721">
        <ele>70.563949</ele>
        <time>2022-12-17T12:07:18.377Z</time>
      </trkpt>
      <trkpt lat="47.04496" lon="-1.77217">
        <ele>70.705522</ele>
        <time>2022-12-17T12:07:21.385Z</time>
      </trkpt>
      <trkpt lat="47.04486" lon="-1.77225">
        <ele>70.836706</ele>
        <time>2022-12-17T12:07:24.385Z</time>
      </trkpt>
      <trkpt lat="47.04476" lon="-1.77232">
        <ele>70.969235</ele>
        <time>2022-12-17T12:07:27.390Z</time>
      </trkpt>
      <trkpt lat="47.04465" lon="-1.7724">
        <ele>71.087511</ele>
        <time>2022-12-17T12:07:30.372Z</time>
      </trkpt>
      <trkpt lat="47.04454" lon="-1.77247">
        <ele>71.207485</ele>
        <time>2022-12-17T12:07:33.379Z</time>
      </trkpt>
      <trkpt lat="47.04443" lon="-1.77255">
        <ele>71.324217</ele>
        <time>2022-12-17T12:07:36.378Z</time>
      </trkpt>
      <trkpt lat="47.04432" lon="-1.77262">
        <ele>71.446583</ele>
        <time>2022-12-17T12:07:39.386Z</time>
      </trkpt>
      <trkpt lat="47.04421" lon="-1.7727">
        <ele>71.564496</ele>
        <time>2022-12-17T12:07:42.373Z</time>
      </trkpt>
      <trkpt lat="47.04411" lon="-1.77278">
        <ele>71.680653</ele>
        <time>2022-12-17T12:07:45.382Z</time>
      </trkpt>
      <trkpt lat="47.044" lon="-1.77286">
        <ele>71.802125</ele>
        <time>2022-12-17T12:07:48.374Z</time>
      </trkpt>
      <trkpt lat="47.04388" lon="-1.77294">
        <ele>71.929185</ele>
        <time>2022-12-17T12:07:51.386Z</time>
      </trkpt>
      <trkpt lat="47.04377" lon="-1.77302">
        <ele>72.047134</ele>
        <time>2022-12-17T12:07:54.386Z</time>
      </trkpt>
      <trkpt lat="47.04367" lon="-1.77309">
        <ele>72.156525</ele>
        <time>2022-12-17T12:07:57.387Z</time>
      </trkpt>
      <trkpt lat="47.04357" lon="-1.77316">
        <ele>72.272369</ele>
        <time>2022-12-17T12:08:00.391Z</time>
      </trkpt>
      <trkpt lat="47.04346" lon="-1.77324">
        <ele>72.391464</ele>
        <time>2022-12-17T12:08:03.385Z</time>
      </trkpt>
      <trkpt lat="47.04334" lon="-1.77332">
        <ele>72.514725</ele>
        <time>2022-12-17T12:08:06.382Z</time>
      </trkpt>
      <trkpt lat="47.04323" lon="-1.7734">
        <ele>72.642364</ele>
        <time>2022-12-17T12:08:09.380Z</time>
      </trkpt>
      <trkpt lat="47.04311" lon="-1.77349">
        <ele>72.725616</ele>
        <time>2022-12-17T12:08:12.375Z</time>
      </trkpt>
      <trkpt lat="47.04299" lon="-1.77357">
        <ele>72.594768</ele>
        <time>2022-12-17T12:08:15.377Z</time>
      </trkpt>
      <trkpt lat="47.04291" lon="-1.77363">
        <ele>72.501001</ele>
        <time>2022-12-17T12:08:17.381Z</time>
      </trkpt>
      <trkpt lat="47.04282" lon="-1.77369">
        <ele>72.403869</ele>
        <time>2022-12-17T12:08:19.380Z</time>
      </trkpt>
      <trkpt lat="47.04274" lon="-1.77375">
        <ele>72.309804</ele>
        <time>2022-12-17T12:08:21.376Z</time>
      </trkpt>
      <trkpt lat="47.04265" lon="-1.7738">
        <ele>72.219465</ele>
        <time>2022-12-17T12:08:23.376Z</time>
      </trkpt>
      <trkpt lat="47.04256" lon="-1.77385">
        <ele>72.123688</ele>
        <time>2022-12-17T12:08:25.386Z</time>
      </trkpt>
      <trkpt lat="47.04248" lon="-1.77391">
        <ele>72.032329</ele>
        <time>2022-12-17T12:08:27.391Z</time>
      </trkpt>
      <trkpt lat="47.0424" lon="-1.77397">
        <ele>71.940256</ele>
        <time>2022-12-17T12:08:29.392Z</time>
      </trkpt>
      <trkpt lat="47.04229" lon="-1.77405">
        <ele>71.813544</ele>
        <time>2022-12-17T12:08:32.372Z</time>
      </trkpt>
      <trkpt lat="47.04221" lon="-1.77411">
        <ele>71.721889</ele>
        <time>2022-12-17T12:08:34.390Z</time>
      </trkpt>
      <trkpt lat="47.04212" lon="-1.77417">
        <ele>71.629935</ele>
        <time>2022-12-17T12:08:36.370Z</time>
      </trkpt>
      <trkpt lat="47.04204" lon="-1.77423">
        <ele>71.535208</ele>
        <time>2022-12-17T12:08:38.397Z</time>
      </trkpt>
      <trkpt lat="47.04196" lon="-1.77429">
        <ele>71.443511</ele>
        <time>2022-12-17T12:08:40.388Z</time>
      </trkpt>
      <trkpt lat="47.04187" lon="-1.77435">
        <ele>71.349446</ele>
        <time>2022-12-17T12:08:42.372Z</time>
      </trkpt>
      <trkpt lat="47.04179" lon="-1.7744">
        <ele>71.254711</ele>
        <time>2022-12-17T12:08:44.385Z</time>
      </trkpt>
      <trkpt lat="47.0417" lon="-1.77446">
        <ele>71.156379</ele>
        <time>2022-12-17T12:08:46.385Z</time>
      </trkpt>
      <trkpt lat="47.04162" lon="-1.77452">
        <ele>71.063764</ele>
        <time>2022-12-17T12:08:48.379Z</time>
      </trkpt>
      <trkpt lat="47.04153" lon="-1.77457">
        <ele>70.969846</ele>
        <time>2022-12-17T12:08:50.398Z</time>
      </trkpt>
      <trkpt lat="47.04145" lon="-1.77463">
        <ele>70.876588</ele>
        <time>2022-12-17T12:08:52.380Z</time>
      </trkpt>
      <trkpt lat="47.04136" lon="-1.77468">
        <ele>70.781243</ele>
        <time>2022-12-17T12:08:54.374Z</time>
      </trkpt>
      <trkpt lat="47.04124" lon="-1.77476">
        <ele>70.649866</ele>
        <time>2022-12-17T12:08:57.376Z</time>
      </trkpt>
      <trkpt lat="47.04114" lon="-1.77483">
        <ele>70.532724</ele>
        <time>2022-12-17T12:09:00.373Z</time>
      </trkpt>
      <trkpt lat="47.04105" lon="-1.77491">
        <ele>70.425736</ele>
        <time>2022-12-17T12:09:03.388Z</time>
      </trkpt>
      <trkpt lat="47.04095" lon="-1.77499">
        <ele>70.311866</ele>
        <time>2022-12-17T12:09:06.381Z</time>
      </trkpt>
      <trkpt lat="47.04083" lon="-1.77505">
        <ele>70.18836</ele>
        <time>2022-12-17T12:09:09.379Z</time>
      </trkpt>
      <trkpt lat="47.04071" lon="-1.77513">
        <ele>70.05387</ele>
        <time>2022-12-17T12:09:12.373Z</time>
      </trkpt>
      <trkpt lat="47.04063" lon="-1.7752">
        <ele>69.958855</ele>
        <time>2022-12-17T12:09:14.382Z</time>
      </trkpt>
      <trkpt lat="47.04054" lon="-1.77526">
        <ele>69.858101</ele>
        <time>2022-12-17T12:09:16.374Z</time>
      </trkpt>
      <trkpt lat="47.04045" lon="-1.77532">
        <ele>69.757664</ele>
        <time>2022-12-17T12:09:18.367Z</time>
      </trkpt>
      <trkpt lat="47.04036" lon="-1.77539">
        <ele>69.654781</ele>
        <time>2022-12-17T12:09:20.394Z</time>
      </trkpt>
      <trkpt lat="47.04027" lon="-1.77545">
        <ele>69.558577</ele>
        <time>2022-12-17T12:09:22.374Z</time>
      </trkpt>
      <trkpt lat="47.04017" lon="-1.77552">
        <ele>69.448126</ele>
        <time>2022-12-17T12:09:24.395Z</time>
      </trkpt>
      <trkpt lat="47.04007" lon="-1.77559">
        <ele>69.328838</ele>
        <time>2022-12-17T12:09:26.395Z</time>
      </trkpt>
      <trkpt lat="47.03997" lon="-1.77567">
        <ele>69.212528</ele>
        <time>2022-12-17T12:09:28.382Z</time>
      </trkpt>
      <trkpt lat="47.03986" lon="-1.77574">
        <ele>69.074184</ele>
        <time>2022-12-17T12:09:30.380Z</time>
      </trkpt>
      <trkpt lat="47.03976" lon="-1.77582">
        <ele>68.850978</ele>
        <time>2022-12-17T12:09:32.370Z</time>
      </trkpt>
      <trkpt lat="47.03965" lon="-1.77589">
        <ele>68.629606</ele>
        <time>2022-12-17T12:09:34.377Z</time>
      </trkpt>
      <trkpt lat="47.03954" lon="-1.77596">
        <ele>68.400752</ele>
        <time>2022-12-17T12:09:36.386Z</time>
      </trkpt>
      <trkpt lat="47.03943" lon="-1.77604">
        <ele>68.166832</ele>
        <time>2022-12-17T12:09:38.404Z</time>
      </trkpt>
      <trkpt lat="47.03932" lon="-1.77612">
        <ele>67.934047</ele>
        <time>2022-12-17T12:09:40.394Z</time>
      </trkpt>
      <trkpt lat="47.0392" lon="-1.7762">
        <ele>67.679475</ele>
        <time>2022-12-17T12:09:42.375Z</time>
      </trkpt>
      <trkpt lat="47.03908" lon="-1.77629">
        <ele>67.422656</ele>
        <time>2022-12-17T12:09:44.383Z</time>
      </trkpt>
      <trkpt lat="47.03896" lon="-1.77639">
        <ele>67.152569</ele>
        <time>2022-12-17T12:09:46.388Z</time>
      </trkpt>
      <trkpt lat="47.03883" lon="-1.77648">
        <ele>66.886034</ele>
        <time>2022-12-17T12:09:48.390Z</time>
      </trkpt>
      <trkpt lat="47.03871" lon="-1.77656">
        <ele>66.624506</ele>
        <time>2022-12-17T12:09:50.392Z</time>
      </trkpt>
      <trkpt lat="47.03858" lon="-1.77664">
        <ele>66.360702</ele>
        <time>2022-12-17T12:09:52.391Z</time>
      </trkpt>
      <trkpt lat="47.03846" lon="-1.77673">
        <ele>66.100459</ele>
        <time>2022-12-17T12:09:54.382Z</time>
      </trkpt>
      <trkpt lat="47.03833" lon="-1.77681">
        <ele>65.831937</ele>
        <time>2022-12-17T12:09:56.384Z</time>
      </trkpt>
      <trkpt lat="47.03821" lon="-1.77689">
        <ele>65.664374</ele>
        <time>2022-12-17T12:09:58.383Z</time>
      </trkpt>
      <trkpt lat="47.03809" lon="-1.77697">
        <ele>65.627917</ele>
        <time>2022-12-17T12:10:00.388Z</time>
      </trkpt>
      <trkpt lat="47.03798" lon="-1.77706">
        <ele>65.591415</ele>
        <time>2022-12-17T12:10:02.376Z</time>
      </trkpt>
      <trkpt lat="47.03787" lon="-1.77714">
        <ele>65.554456</ele>
        <time>2022-12-17T12:10:04.390Z</time>
      </trkpt>
      <trkpt lat="47.03776" lon="-1.77722">
        <ele>65.520008</ele>
        <time>2022-12-17T12:10:06.395Z</time>
      </trkpt>
      <trkpt lat="47.03765" lon="-1.7773">
        <ele>65.485559</ele>
        <time>2022-12-17T12:10:08.379Z</time>
      </trkpt>
      <trkpt lat="47.03755" lon="-1.77737">
        <ele>65.452319</ele>
        <time>2022-12-17T12:10:10.375Z</time>
      </trkpt>
      <trkpt lat="47.03745" lon="-1.77742">
        <ele>65.423261</ele>
        <time>2022-12-17T12:10:12.374Z</time>
      </trkpt>
      <trkpt lat="47.03736" lon="-1.77749">
        <ele>65.392863</ele>
        <time>2022-12-17T12:10:14.397Z</time>
      </trkpt>
      <trkpt lat="47.03726" lon="-1.77756">
        <ele>65.36073</ele>
        <time>2022-12-17T12:10:16.396Z</time>
      </trkpt>
      <trkpt lat="47.03716" lon="-1.77764">
        <ele>65.328791</ele>
        <time>2022-12-17T12:10:18.375Z</time>
      </trkpt>
      <trkpt lat="47.03706" lon="-1.77772">
        <ele>65.295451</ele>
        <time>2022-12-17T12:10:20.381Z</time>
      </trkpt>
      <trkpt lat="47.03695" lon="-1.77779">
        <ele>65.261608</ele>
        <time>2022-12-17T12:10:22.371Z</time>
      </trkpt>
      <trkpt lat="47.03685" lon="-1.77786">
        <ele>65.228697</ele>
        <time>2022-12-17T12:10:24.392Z</time>
      </trkpt>
      <trkpt lat="47.03674" lon="-1.77793">
        <ele>65.194243</ele>
        <time>2022-12-17T12:10:26.397Z</time>
      </trkpt>
      <trkpt lat="47.03663" lon="-1.77802">
        <ele>65.152886</ele>
        <time>2022-12-17T12:10:28.388Z</time>
      </trkpt>
      <trkpt lat="47.03652" lon="-1.7781">
        <ele>65.041057</ele>
        <time>2022-12-17T12:10:30.380Z</time>
      </trkpt>
      <trkpt lat="47.0364" lon="-1.77818">
        <ele>64.928679</ele>
        <time>2022-12-17T12:10:32.381Z</time>
      </trkpt>
      <trkpt lat="47.03628" lon="-1.77826">
        <ele>64.812114</ele>
        <time>2022-12-17T12:10:34.399Z</time>
      </trkpt>
      <trkpt lat="47.03617" lon="-1.77835">
        <ele>64.699615</ele>
        <time>2022-12-17T12:10:36.389Z</time>
      </trkpt>
      <trkpt lat="47.03606" lon="-1.77843">
        <ele>64.590133</ele>
        <time>2022-12-17T12:10:38.389Z</time>
      </trkpt>
      <trkpt lat="47.03594" lon="-1.77851">
        <ele>64.480143</ele>
        <time>2022-12-17T12:10:40.396Z</time>
      </trkpt>
      <trkpt lat="47.03583" lon="-1.77859">
        <ele>64.37226</ele>
        <time>2022-12-17T12:10:42.375Z</time>
      </trkpt>
      <trkpt lat="47.03573" lon="-1.77866">
        <ele>64.273011</ele>
        <time>2022-12-17T12:10:44.378Z</time>
      </trkpt>
      <trkpt lat="47.03563" lon="-1.77874">
        <ele>64.17321</ele>
        <time>2022-12-17T12:10:46.387Z</time>
      </trkpt>
      <trkpt lat="47.03554" lon="-1.77881">
        <ele>64.078975</ele>
        <time>2022-12-17T12:10:48.386Z</time>
      </trkpt>
      <trkpt lat="47.03545" lon="-1.77889">
        <ele>63.987551</ele>
        <time>2022-12-17T12:10:50.389Z</time>
      </trkpt>
      <trkpt lat="47.03536" lon="-1.77896">
        <ele>63.897953</ele>
        <time>2022-12-17T12:10:52.378Z</time>
      </trkpt>
      <trkpt lat="47.03526" lon="-1.77904">
        <ele>63.805178</ele>
        <time>2022-12-17T12:10:54.377Z</time>
      </trkpt>
      <trkpt lat="47.03518" lon="-1.77911">
        <ele>63.716204</ele>
        <time>2022-12-17T12:10:56.390Z</time>
      </trkpt>
      <trkpt lat="47.03509" lon="-1.77919">
        <ele>63.626475</ele>
        <time>2022-12-17T12:10:58.395Z</time>
      </trkpt>
      <trkpt lat="47.03501" lon="-1.77927">
        <ele>63.544956</ele>
        <time>2022-12-17T12:11:00.394Z</time>
      </trkpt>
      <trkpt lat="47.03492" lon="-1.77937">
        <ele>63.464408</ele>
        <time>2022-12-17T12:11:02.376Z</time>
      </trkpt>
      <trkpt lat="47.03483" lon="-1.77946">
        <ele>63.381443</ele>
        <time>2022-12-17T12:11:04.380Z</time>
      </trkpt>
      <trkpt lat="47.03473" lon="-1.77956">
        <ele>63.297636</ele>
        <time>2022-12-17T12:11:06.391Z</time>
      </trkpt>
      <trkpt lat="47.03463" lon="-1.77966">
        <ele>63.207061</ele>
        <time>2022-12-17T12:11:08.404Z</time>
      </trkpt>
      <trkpt lat="47.03453" lon="-1.77975">
        <ele>63.119427</ele>
        <time>2022-12-17T12:11:10.381Z</time>
      </trkpt>
      <trkpt lat="47.03443" lon="-1.77985">
        <ele>63.027823</ele>
        <time>2022-12-17T12:11:12.374Z</time>
      </trkpt>
      <trkpt lat="47.03432" lon="-1.77994">
        <ele>62.937779</ele>
        <time>2022-12-17T12:11:14.395Z</time>
      </trkpt>
      <trkpt lat="47.03421" lon="-1.78005">
        <ele>62.842206</ele>
        <time>2022-12-17T12:11:16.403Z</time>
      </trkpt>
      <trkpt lat="47.03411" lon="-1.78014">
        <ele>62.75409</ele>
        <time>2022-12-17T12:11:18.390Z</time>
      </trkpt>
      <trkpt lat="47.03401" lon="-1.78024">
        <ele>62.663659</ele>
        <time>2022-12-17T12:11:20.385Z</time>
      </trkpt>
      <trkpt lat="47.0339" lon="-1.78033">
        <ele>62.571851</ele>
        <time>2022-12-17T12:11:22.377Z</time>
      </trkpt>
      <trkpt lat="47.0338" lon="-1.78043">
        <ele>62.481801</ele>
        <time>2022-12-17T12:11:24.379Z</time>
      </trkpt>
      <trkpt lat="47.0337" lon="-1.78053">
        <ele>62.390415</ele>
        <time>2022-12-17T12:11:26.383Z</time>
      </trkpt>
      <trkpt lat="47.03359" lon="-1.78063">
        <ele>62.297787</ele>
        <time>2022-12-17T12:11:28.385Z</time>
      </trkpt>
      <trkpt lat="47.03348" lon="-1.78073">
        <ele>62.199728</ele>
        <time>2022-12-17T12:11:30.384Z</time>
      </trkpt>
      <trkpt lat="47.03337" lon="-1.78084">
        <ele>62.09901</ele>
        <time>2022-12-17T12:11:32.373Z</time>
      </trkpt>
      <trkpt lat="47.03326" lon="-1.78094">
        <ele>61.99774</ele>
        <time>2022-12-17T12:11:34.377Z</time>
      </trkpt>
      <trkpt lat="47.03315" lon="-1.78104">
        <ele>61.897667</ele>
        <time>2022-12-17T12:11:36.390Z</time>
      </trkpt>
      <trkpt lat="47.03305" lon="-1.78115">
        <ele>61.798618</ele>
        <time>2022-12-17T12:11:38.388Z</time>
      </trkpt>
      <trkpt lat="47.03294" lon="-1.78124">
        <ele>61.702948</ele>
        <time>2022-12-17T12:11:40.381Z</time>
      </trkpt>
      <trkpt lat="47.03284" lon="-1.78134">
        <ele>61.609345</ele>
        <time>2022-12-17T12:11:42.375Z</time>
      </trkpt>
      <trkpt lat="47.03274" lon="-1.78144">
        <ele>61.515741</ele>
        <time>2022-12-17T12:11:44.382Z</time>
      </trkpt>
      <trkpt lat="47.03264" lon="-1.78154">
        <ele>61.418863</ele>
        <time>2022-12-17T12:11:46.375Z</time>
      </trkpt>
      <trkpt lat="47.03254" lon="-1.78165">
        <ele>61.324506</ele>
        <time>2022-12-17T12:11:48.389Z</time>
      </trkpt>
      <trkpt lat="47.03244" lon="-1.78172">
        <ele>61.240418</ele>
        <time>2022-12-17T12:11:50.372Z</time>
      </trkpt>
      <trkpt lat="47.03235" lon="-1.78182">
        <ele>61.152495</ele>
        <time>2022-12-17T12:11:52.374Z</time>
      </trkpt>
      <trkpt lat="47.03226" lon="-1.7819">
        <ele>61.07018</ele>
        <time>2022-12-17T12:11:54.381Z</time>
      </trkpt>
      <trkpt lat="47.03217" lon="-1.78199">
        <ele>60.990668</ele>
        <time>2022-12-17T12:11:56.392Z</time>
      </trkpt>
      <trkpt lat="47.03209" lon="-1.78207">
        <ele>60.911801</ele>
        <time>2022-12-17T12:11:58.389Z</time>
      </trkpt>
      <trkpt lat="47.032" lon="-1.78215">
        <ele>60.818216</ele>
        <time>2022-12-17T12:12:00.391Z</time>
      </trkpt>
      <trkpt lat="47.03192" lon="-1.78223">
        <ele>60.729478</ele>
        <time>2022-12-17T12:12:02.376Z</time>
      </trkpt>
      <trkpt lat="47.03183" lon="-1.7823">
        <ele>60.628981</ele>
        <time>2022-12-17T12:12:04.391Z</time>
      </trkpt>
      <trkpt lat="47.03175" lon="-1.78239">
        <ele>60.5343</ele>
        <time>2022-12-17T12:12:06.388Z</time>
      </trkpt>
      <trkpt lat="47.03164" lon="-1.78249">
        <ele>60.402775</ele>
        <time>2022-12-17T12:12:09.387Z</time>
      </trkpt>
      <trkpt lat="47.03156" lon="-1.78256">
        <ele>60.31079</ele>
        <time>2022-12-17T12:12:11.380Z</time>
      </trkpt>
      <trkpt lat="47.03148" lon="-1.78264">
        <ele>60.219174</ele>
        <time>2022-12-17T12:12:13.395Z</time>
      </trkpt>
      <trkpt lat="47.0314" lon="-1.78271">
        <ele>60.12781</ele>
        <time>2022-12-17T12:12:15.382Z</time>
      </trkpt>
      <trkpt lat="47.03133" lon="-1.78278">
        <ele>60.036798</ele>
        <time>2022-12-17T12:12:17.386Z</time>
      </trkpt>
      <trkpt lat="47.03125" lon="-1.78286">
        <ele>59.947559</ele>
        <time>2022-12-17T12:12:19.372Z</time>
      </trkpt>
      <trkpt lat="47.03117" lon="-1.78293">
        <ele>59.854652</ele>
        <time>2022-12-17T12:12:21.392Z</time>
      </trkpt>
      <trkpt lat="47.03106" lon="-1.78303">
        <ele>59.73038</ele>
        <time>2022-12-17T12:12:24.383Z</time>
      </trkpt>
      <trkpt lat="47.03095" lon="-1.78314">
        <ele>59.599979</ele>
        <time>2022-12-17T12:12:27.376Z</time>
      </trkpt>
      <trkpt lat="47.03084" lon="-1.78324">
        <ele>59.47416</ele>
        <time>2022-12-17T12:12:30.372Z</time>
      </trkpt>
      <trkpt lat="47.03074" lon="-1.78334">
        <ele>59.351326</ele>
        <time>2022-12-17T12:12:33.379Z</time>
      </trkpt>
      <trkpt lat="47.03063" lon="-1.78345">
        <ele>59.223594</ele>
        <time>2022-12-17T12:12:36.397Z</time>
      </trkpt>
      <trkpt lat="47.03056" lon="-1.78352">
        <ele>59.134956</ele>
        <time>2022-12-17T12:12:38.388Z</time>
      </trkpt>
      <trkpt lat="47.03047" lon="-1.7836">
        <ele>58.867517</ele>
        <time>2022-12-17T12:12:40.402Z</time>
      </trkpt>
      <trkpt lat="47.03039" lon="-1.78368">
        <ele>58.519948</ele>
        <time>2022-12-17T12:12:42.374Z</time>
      </trkpt>
      <trkpt lat="47.0303" lon="-1.78376">
        <ele>58.167422</ele>
        <time>2022-12-17T12:12:44.398Z</time>
      </trkpt>
      <trkpt lat="47.0302" lon="-1.78384">
        <ele>57.750004</ele>
        <time>2022-12-17T12:12:46.387Z</time>
      </trkpt>
      <trkpt lat="47.03009" lon="-1.78394">
        <ele>57.319363</ele>
        <time>2022-12-17T12:12:48.381Z</time>
      </trkpt>
      <trkpt lat="47.03" lon="-1.78405">
        <ele>56.901605</ele>
        <time>2022-12-17T12:12:50.385Z</time>
      </trkpt>
      <trkpt lat="47.02989" lon="-1.78416">
        <ele>56.441428</ele>
        <time>2022-12-17T12:12:52.372Z</time>
      </trkpt>
      <trkpt lat="47.02977" lon="-1.78426">
        <ele>55.965681</ele>
        <time>2022-12-17T12:12:54.397Z</time>
      </trkpt>
      <trkpt lat="47.02965" lon="-1.78438">
        <ele>55.463312</ele>
        <time>2022-12-17T12:12:56.404Z</time>
      </trkpt>
      <trkpt lat="47.02953" lon="-1.7845">
        <ele>54.946332</ele>
        <time>2022-12-17T12:12:58.375Z</time>
      </trkpt>
      <trkpt lat="47.02941" lon="-1.78461">
        <ele>54.450441</ele>
        <time>2022-12-17T12:13:00.372Z</time>
      </trkpt>
      <trkpt lat="47.02928" lon="-1.78474">
        <ele>53.918771</ele>
        <time>2022-12-17T12:13:02.375Z</time>
      </trkpt>
      <trkpt lat="47.02915" lon="-1.78485">
        <ele>53.390704</ele>
        <time>2022-12-17T12:13:04.371Z</time>
      </trkpt>
      <trkpt lat="47.02903" lon="-1.78498">
        <ele>52.852316</ele>
        <time>2022-12-17T12:13:06.376Z</time>
      </trkpt>
      <trkpt lat="47.0289" lon="-1.78511">
        <ele>52.756041</ele>
        <time>2022-12-17T12:13:08.383Z</time>
      </trkpt>
      <trkpt lat="47.02877" lon="-1.78523">
        <ele>52.684619</ele>
        <time>2022-12-17T12:13:10.380Z</time>
      </trkpt>
      <trkpt lat="47.02863" lon="-1.78536">
        <ele>52.606843</ele>
        <time>2022-12-17T12:13:12.374Z</time>
      </trkpt>
      <trkpt lat="47.0285" lon="-1.78548">
        <ele>52.533661</ele>
        <time>2022-12-17T12:13:14.379Z</time>
      </trkpt>
      <trkpt lat="47.02836" lon="-1.7856">
        <ele>52.456701</ele>
        <time>2022-12-17T12:13:16.378Z</time>
      </trkpt>
      <trkpt lat="47.02822" lon="-1.78571">
        <ele>52.381604</ele>
        <time>2022-12-17T12:13:18.373Z</time>
      </trkpt>
      <trkpt lat="47.02807" lon="-1.78582">
        <ele>52.302597</ele>
        <time>2022-12-17T12:13:20.373Z</time>
      </trkpt>
      <trkpt lat="47.02792" lon="-1.78592">
        <ele>52.22476</ele>
        <time>2022-12-17T12:13:22.373Z</time>
      </trkpt>
      <trkpt lat="47.02778" lon="-1.78601">
        <ele>52.149435</ele>
        <time>2022-12-17T12:13:24.403Z</time>
      </trkpt>
      <trkpt lat="47.02765" lon="-1.7861">
        <ele>52.082507</ele>
        <time>2022-12-17T12:13:26.384Z</time>
      </trkpt>
      <trkpt lat="47.02752" lon="-1.78619">
        <ele>52.014272</ele>
        <time>2022-12-17T12:13:28.369Z</time>
      </trkpt>
      <trkpt lat="47.0274" lon="-1.78627">
        <ele>51.980814</ele>
        <time>2022-12-17T12:13:30.383Z</time>
      </trkpt>
      <trkpt lat="47.02729" lon="-1.78634">
        <ele>52.003737</ele>
        <time>2022-12-17T12:13:32.371Z</time>
      </trkpt>
      <trkpt lat="47.02719" lon="-1.7864">
        <ele>52.024501</ele>
        <time>2022-12-17T12:13:34.371Z</time>
      </trkpt>
      <trkpt lat="47.02709" lon="-1.78646">
        <ele>52.044348</ele>
        <time>2022-12-17T12:13:36.371Z</time>
      </trkpt>
      <trkpt lat="47.02699" lon="-1.78652">
        <ele>52.065204</ele>
        <time>2022-12-17T12:13:38.392Z</time>
      </trkpt>
      <trkpt lat="47.0269" lon="-1.78659">
        <ele>52.084093</ele>
        <time>2022-12-17T12:13:40.388Z</time>
      </trkpt>
      <trkpt lat="47.0268" lon="-1.78666">
        <ele>52.103652</ele>
        <time>2022-12-17T12:13:42.372Z</time>
      </trkpt>
      <trkpt lat="47.02671" lon="-1.78671">
        <ele>52.121567</ele>
        <time>2022-12-17T12:13:44.391Z</time>
      </trkpt>
      <trkpt lat="47.02663" lon="-1.78676">
        <ele>52.138839</ele>
        <time>2022-12-17T12:13:46.381Z</time>
      </trkpt>
      <trkpt lat="47.02654" lon="-1.78682">
        <ele>52.157158</ele>
        <time>2022-12-17T12:13:48.387Z</time>
      </trkpt>
      <trkpt lat="47.02645" lon="-1.78688">
        <ele>52.176159</ele>
        <time>2022-12-17T12:13:50.378Z</time>
      </trkpt>
      <trkpt lat="47.02632" lon="-1.78697">
        <ele>52.20181</ele>
        <time>2022-12-17T12:13:53.391Z</time>
      </trkpt>
      <trkpt lat="47.02623" lon="-1.78704">
        <ele>52.220652</ele>
        <time>2022-12-17T12:13:55.375Z</time>
      </trkpt>
      <trkpt lat="47.02615" lon="-1.78709">
        <ele>52.238316</ele>
        <time>2022-12-17T12:13:57.380Z</time>
      </trkpt>
      <trkpt lat="47.02602" lon="-1.78717">
        <ele>52.263425</ele>
        <time>2022-12-17T12:14:00.395Z</time>
      </trkpt>
      <trkpt lat="47.02594" lon="-1.78722">
        <ele>52.280158</ele>
        <time>2022-12-17T12:14:02.374Z</time>
      </trkpt>
      <trkpt lat="47.02582" lon="-1.78731">
        <ele>52.304413</ele>
        <time>2022-12-17T12:14:05.400Z</time>
      </trkpt>
      <trkpt lat="47.0257" lon="-1.78738">
        <ele>52.239721</ele>
        <time>2022-12-17T12:14:08.400Z</time>
      </trkpt>
      <trkpt lat="47.02559" lon="-1.78745">
        <ele>52.156454</ele>
        <time>2022-12-17T12:14:11.387Z</time>
      </trkpt>
      <trkpt lat="47.02546" lon="-1.78752">
        <ele>52.068942</ele>
        <time>2022-12-17T12:14:14.380Z</time>
      </trkpt>
      <trkpt lat="47.02538" lon="-1.78759">
        <ele>52.006361</ele>
        <time>2022-12-17T12:14:16.384Z</time>
      </trkpt>
      <trkpt lat="47.02529" lon="-1.78765">
        <ele>51.946339</ele>
        <time>2022-12-17T12:14:18.386Z</time>
      </trkpt>
      <trkpt lat="47.02521" lon="-1.7877">
        <ele>51.886213</ele>
        <time>2022-12-17T12:14:20.379Z</time>
      </trkpt>
      <trkpt lat="47.02511" lon="-1.78775">
        <ele>51.821076</ele>
        <time>2022-12-17T12:14:22.375Z</time>
      </trkpt>
      <trkpt lat="47.025" lon="-1.78782">
        <ele>51.737293</ele>
        <time>2022-12-17T12:14:25.386Z</time>
      </trkpt>
      <trkpt lat="47.02488" lon="-1.78791">
        <ele>51.654133</ele>
        <time>2022-12-17T12:14:28.383Z</time>
      </trkpt>
      <trkpt lat="47.02477" lon="-1.78799">
        <ele>51.570449</ele>
        <time>2022-12-17T12:14:31.373Z</time>
      </trkpt>
      <trkpt lat="47.02468" lon="-1.78804">
        <ele>51.509765</ele>
        <time>2022-12-17T12:14:33.379Z</time>
      </trkpt>
      <trkpt lat="47.0246" lon="-1.7881">
        <ele>51.448962</ele>
        <time>2022-12-17T12:14:35.394Z</time>
      </trkpt>
      <trkpt lat="47.02452" lon="-1.78816">
        <ele>51.389334</ele>
        <time>2022-12-17T12:14:37.372Z</time>
      </trkpt>
      <trkpt lat="47.02439" lon="-1.78824">
        <ele>51.30227</ele>
        <time>2022-12-17T12:14:40.409Z</time>
      </trkpt>
      <trkpt lat="47.02431" lon="-1.78829">
        <ele>51.24102</ele>
        <time>2022-12-17T12:14:42.375Z</time>
      </trkpt>
      <trkpt lat="47.02422" lon="-1.78835">
        <ele>51.17863</ele>
        <time>2022-12-17T12:14:44.382Z</time>
      </trkpt>
      <trkpt lat="47.02414" lon="-1.7884">
        <ele>51.106727</ele>
        <time>2022-12-17T12:14:46.391Z</time>
      </trkpt>
      <trkpt lat="47.02403" lon="-1.78847">
        <ele>50.96158</ele>
        <time>2022-12-17T12:14:49.387Z</time>
      </trkpt>
      <trkpt lat="47.02393" lon="-1.78854">
        <ele>50.827958</ele>
        <time>2022-12-17T12:14:52.376Z</time>
      </trkpt>
      <trkpt lat="47.02382" lon="-1.78861">
        <ele>50.682175</ele>
        <time>2022-12-17T12:14:55.372Z</time>
      </trkpt>
      <trkpt lat="47.02371" lon="-1.78868">
        <ele>50.53906</ele>
        <time>2022-12-17T12:14:58.389Z</time>
      </trkpt>
      <trkpt lat="47.02359" lon="-1.78876">
        <ele>50.379099</ele>
        <time>2022-12-17T12:15:01.383Z</time>
      </trkpt>
      <trkpt lat="47.0235" lon="-1.78881">
        <ele>50.268195</ele>
        <time>2022-12-17T12:15:03.394Z</time>
      </trkpt>
      <trkpt lat="47.02338" lon="-1.7889">
        <ele>50.107408</ele>
        <time>2022-12-17T12:15:06.379Z</time>
      </trkpt>
      <trkpt lat="47.02327" lon="-1.78897">
        <ele>49.956206</ele>
        <time>2022-12-17T12:15:09.377Z</time>
      </trkpt>
      <trkpt lat="47.02316" lon="-1.78904">
        <ele>49.809172</ele>
        <time>2022-12-17T12:15:12.372Z</time>
      </trkpt>
      <trkpt lat="47.02305" lon="-1.78912">
        <ele>49.66029</ele>
        <time>2022-12-17T12:15:15.394Z</time>
      </trkpt>
      <trkpt lat="47.02296" lon="-1.78918">
        <ele>49.551293</ele>
        <time>2022-12-17T12:15:17.384Z</time>
      </trkpt>
      <trkpt lat="47.02288" lon="-1.78924">
        <ele>49.431432</ele>
        <time>2022-12-17T12:15:19.380Z</time>
      </trkpt>
      <trkpt lat="47.02279" lon="-1.78931">
        <ele>49.309011</ele>
        <time>2022-12-17T12:15:21.383Z</time>
      </trkpt>
      <trkpt lat="47.0227" lon="-1.78938">
        <ele>49.18635</ele>
        <time>2022-12-17T12:15:23.384Z</time>
      </trkpt>
      <trkpt lat="47.02261" lon="-1.78946">
        <ele>49.059312</ele>
        <time>2022-12-17T12:15:25.383Z</time>
      </trkpt>
      <trkpt lat="47.02252" lon="-1.78954">
        <ele>48.956563</ele>
        <time>2022-12-17T12:15:27.384Z</time>
      </trkpt>
      <trkpt lat="47.02243" lon="-1.78963">
        <ele>48.93962</ele>
        <time>2022-12-17T12:15:29.390Z</time>
      </trkpt>
      <trkpt lat="47.02235" lon="-1.78972">
        <ele>48.922926</ele>
        <time>2022-12-17T12:15:31.384Z</time>
      </trkpt>
      <trkpt lat="47.02227" lon="-1.78983">
        <ele>48.905754</ele>
        <time>2022-12-17T12:15:33.384Z</time>
      </trkpt>
      <trkpt lat="47.02219" lon="-1.78994">
        <ele>48.888393</ele>
        <time>2022-12-17T12:15:35.397Z</time>
      </trkpt>
      <trkpt lat="47.02212" lon="-1.79006">
        <ele>48.871122</ele>
        <time>2022-12-17T12:15:37.381Z</time>
      </trkpt>
      <trkpt lat="47.02205" lon="-1.79018">
        <ele>48.854383</ele>
        <time>2022-12-17T12:15:39.385Z</time>
      </trkpt>
      <trkpt lat="47.02198" lon="-1.7903">
        <ele>48.837431</ele>
        <time>2022-12-17T12:15:41.385Z</time>
      </trkpt>
      <trkpt lat="47.02192" lon="-1.79044">
        <ele>48.820159</ele>
        <time>2022-12-17T12:15:43.393Z</time>
      </trkpt>
      <trkpt lat="47.02187" lon="-1.79057">
        <ele>48.803594</ele>
        <time>2022-12-17T12:15:45.381Z</time>
      </trkpt>
      <trkpt lat="47.02182" lon="-1.79071">
        <ele>48.786098</ele>
        <time>2022-12-17T12:15:47.366Z</time>
      </trkpt>
      <trkpt lat="47.02178" lon="-1.79086">
        <ele>48.769654</ele>
        <time>2022-12-17T12:15:49.383Z</time>
      </trkpt>
      <trkpt lat="47.02174" lon="-1.79098">
        <ele>48.755242</ele>
        <time>2022-12-17T12:15:51.375Z</time>
      </trkpt>
      <trkpt lat="47.0217" lon="-1.79115">
        <ele>48.735749</ele>
        <time>2022-12-17T12:15:54.382Z</time>
      </trkpt>
      <trkpt lat="47.02166" lon="-1.7913">
        <ele>48.718168</ele>
        <time>2022-12-17T12:15:57.396Z</time>
      </trkpt>
      <trkpt lat="47.02162" lon="-1.79144">
        <ele>48.702501</ele>
        <time>2022-12-17T12:16:00.385Z</time>
      </trkpt>
      <trkpt lat="47.02159" lon="-1.79157">
        <ele>48.687051</ele>
        <time>2022-12-17T12:16:03.380Z</time>
      </trkpt>
      <trkpt lat="47.02155" lon="-1.7917">
        <ele>48.663354</ele>
        <time>2022-12-17T12:16:06.373Z</time>
      </trkpt>
      <trkpt lat="47.02152" lon="-1.79184">
        <ele>48.606942</ele>
        <time>2022-12-17T12:16:09.379Z</time>
      </trkpt>
      <trkpt lat="47.02147" lon="-1.79199">
        <ele>48.546656</ele>
        <time>2022-12-17T12:16:12.373Z</time>
      </trkpt>
      <trkpt lat="47.02143" lon="-1.79215">
        <ele>48.482788</ele>
        <time>2022-12-17T12:16:15.399Z</time>
      </trkpt>
      <trkpt lat="47.02139" lon="-1.79231">
        <ele>48.417229</ele>
        <time>2022-12-17T12:16:18.382Z</time>
      </trkpt>
      <trkpt lat="47.02135" lon="-1.79247">
        <ele>48.354673</ele>
        <time>2022-12-17T12:16:21.376Z</time>
      </trkpt>
      <trkpt lat="47.0213" lon="-1.79263">
        <ele>48.289403</ele>
        <time>2022-12-17T12:16:24.381Z</time>
      </trkpt>
      <trkpt lat="47.02126" lon="-1.79277">
        <ele>48.234314</ele>
        <time>2022-12-17T12:16:26.388Z</time>
      </trkpt>
      <trkpt lat="47.02123" lon="-1.79291">
        <ele>48.179707</ele>
        <time>2022-12-17T12:16:28.379Z</time>
      </trkpt>
      <trkpt lat="47.0212" lon="-1.79304">
        <ele>48.125987</ele>
        <time>2022-12-17T12:16:30.376Z</time>
      </trkpt>
      <trkpt lat="47.02117" lon="-1.79318">
        <ele>48.07279</ele>
        <time>2022-12-17T12:16:32.375Z</time>
      </trkpt>
      <trkpt lat="47.02114" lon="-1.79331">
        <ele>48.020482</ele>
        <time>2022-12-17T12:16:34.374Z</time>
      </trkpt>
      <trkpt lat="47.0211" lon="-1.79349">
        <ele>47.949267</ele>
        <time>2022-12-17T12:16:37.383Z</time>
      </trkpt>
      <trkpt lat="47.02106" lon="-1.79364">
        <ele>47.890581</ele>
        <time>2022-12-17T12:16:40.388Z</time>
      </trkpt>
      <trkpt lat="47.02103" lon="-1.79379">
        <ele>47.832929</ele>
        <time>2022-12-17T12:16:43.388Z</time>
      </trkpt>
      <trkpt lat="47.021" lon="-1.79392">
        <ele>47.782024</ele>
        <time>2022-12-17T12:16:46.393Z</time>
      </trkpt>
      <trkpt lat="47.02096" lon="-1.79403">
        <ele>47.732065</ele>
        <time>2022-12-17T12:16:49.387Z</time>
      </trkpt>
      <trkpt lat="47.02087" lon="-1.79411">
        <ele>47.712209</ele>
        <time>2022-12-17T12:16:52.385Z</time>
      </trkpt>
      <trkpt lat="47.02076" lon="-1.79411">
        <ele>47.804483</ele>
        <time>2022-12-17T12:16:55.393Z</time>
      </trkpt>
      <trkpt lat="47.02065" lon="-1.79408">
        <ele>47.902843</ele>
        <time>2022-12-17T12:16:58.387Z</time>
      </trkpt>
      <trkpt lat="47.02055" lon="-1.79405">
        <ele>47.985732</ele>
        <time>2022-12-17T12:17:01.384Z</time>
      </trkpt>
      <trkpt lat="47.02044" lon="-1.79405">
        <ele>48.074609</ele>
        <time>2022-12-17T12:17:04.400Z</time>
      </trkpt>
      <trkpt lat="47.02034" lon="-1.79405">
        <ele>48.162675</ele>
        <time>2022-12-17T12:17:07.381Z</time>
      </trkpt>
      <trkpt lat="47.02023" lon="-1.79408">
        <ele>48.25536</ele>
        <time>2022-12-17T12:17:10.388Z</time>
      </trkpt>
      <trkpt lat="47.02013" lon="-1.79412">
        <ele>48.344666</ele>
        <time>2022-12-17T12:17:13.384Z</time>
      </trkpt>
      <trkpt lat="47.02003" lon="-1.79415">
        <ele>48.430246</ele>
        <time>2022-12-17T12:17:16.385Z</time>
      </trkpt>
      <trkpt lat="47.01992" lon="-1.79418">
        <ele>48.51747</ele>
        <time>2022-12-17T12:17:19.389Z</time>
      </trkpt>
      <trkpt lat="47.01983" lon="-1.7942">
        <ele>48.598937</ele>
        <time>2022-12-17T12:17:22.374Z</time>
      </trkpt>
      <trkpt lat="47.01973" lon="-1.79422">
        <ele>48.678156</ele>
        <time>2022-12-17T12:17:25.393Z</time>
      </trkpt>
      <trkpt lat="47.01964" lon="-1.79425">
        <ele>48.762591</ele>
        <time>2022-12-17T12:17:28.374Z</time>
      </trkpt>
      <trkpt lat="47.01954" lon="-1.79429">
        <ele>48.847729</ele>
        <time>2022-12-17T12:17:31.392Z</time>
      </trkpt>
      <trkpt lat="47.01943" lon="-1.79435">
        <ele>48.946147</ele>
        <time>2022-12-17T12:17:35.381Z</time>
      </trkpt>
      <trkpt lat="47.01932" lon="-1.79441">
        <ele>49.041828</ele>
        <time>2022-12-17T12:17:39.379Z</time>
      </trkpt>
      <trkpt lat="47.01921" lon="-1.79447">
        <ele>49.138079</ele>
        <time>2022-12-17T12:17:43.393Z</time>
      </trkpt>
      <trkpt lat="47.01911" lon="-1.79454">
        <ele>49.419087</ele>
        <time>2022-12-17T12:17:47.381Z</time>
      </trkpt>
      <trkpt lat="47.01903" lon="-1.79461">
        <ele>49.863982</ele>
        <time>2022-12-17T12:17:50.376Z</time>
      </trkpt>
      <trkpt lat="47.01893" lon="-1.79468">
        <ele>50.396399</ele>
        <time>2022-12-17T12:17:54.380Z</time>
      </trkpt>
      <trkpt lat="47.01883" lon="-1.79475">
        <ele>50.898835</ele>
        <time>2022-12-17T12:17:58.383Z</time>
      </trkpt>
      <trkpt lat="47.01874" lon="-1.79483">
        <ele>51.40972</ele>
        <time>2022-12-17T12:18:02.374Z</time>
      </trkpt>
      <trkpt lat="47.01865" lon="-1.79492">
        <ele>51.935431</ele>
        <time>2022-12-17T12:18:06.393Z</time>
      </trkpt>
      <trkpt lat="47.01856" lon="-1.795">
        <ele>52.443171</ele>
        <time>2022-12-17T12:18:10.390Z</time>
      </trkpt>
      <trkpt lat="47.01847" lon="-1.79508">
        <ele>52.934228</ele>
        <time>2022-12-17T12:18:14.382Z</time>
      </trkpt>
      <trkpt lat="47.01838" lon="-1.79515">
        <ele>53.453744</ele>
        <time>2022-12-17T12:18:19.374Z</time>
      </trkpt>
      <trkpt lat="47.01829" lon="-1.79522">
        <ele>53.939013</ele>
        <time>2022-12-17T12:18:23.380Z</time>
      </trkpt>
      <trkpt lat="47.01819" lon="-1.79531">
        <ele>54.478087</ele>
        <time>2022-12-17T12:18:28.385Z</time>
      </trkpt>
      <trkpt lat="47.01811" lon="-1.79535">
        <ele>54.911304</ele>
        <time>2022-12-17T12:18:32.386Z</time>
      </trkpt>
      <trkpt lat="47.01802" lon="-1.79542">
        <ele>55.376444</ele>
        <time>2022-12-17T12:18:36.372Z</time>
      </trkpt>
      <trkpt lat="47.01793" lon="-1.79548">
        <ele>55.8415</ele>
        <time>2022-12-17T12:18:40.382Z</time>
      </trkpt>
      <trkpt lat="47.01784" lon="-1.79554">
        <ele>56.306898</ele>
        <time>2022-12-17T12:18:44.376Z</time>
      </trkpt>
      <trkpt lat="47.01776" lon="-1.7956">
        <ele>56.767577</ele>
        <time>2022-12-17T12:18:48.383Z</time>
      </trkpt>
      <trkpt lat="47.01767" lon="-1.79567">
        <ele>57.222713</ele>
        <time>2022-12-17T12:18:52.376Z</time>
      </trkpt>
      <trkpt lat="47.01758" lon="-1.79573">
        <ele>57.714956</ele>
        <time>2022-12-17T12:18:56.397Z</time>
      </trkpt>
      <trkpt lat="47.01749" lon="-1.79581">
        <ele>57.940007</ele>
        <time>2022-12-17T12:19:00.383Z</time>
      </trkpt>
      <trkpt lat="47.0174" lon="-1.79587">
        <ele>58.08694</ele>
        <time>2022-12-17T12:19:04.381Z</time>
      </trkpt>
      <trkpt lat="47.0173" lon="-1.79592">
        <ele>58.231664</ele>
        <time>2022-12-17T12:19:08.378Z</time>
      </trkpt>
      <trkpt lat="47.01721" lon="-1.79595">
        <ele>58.371114</ele>
        <time>2022-12-17T12:19:12.374Z</time>
      </trkpt>
      <trkpt lat="47.01711" lon="-1.79599">
        <ele>58.522794</ele>
        <time>2022-12-17T12:19:16.385Z</time>
      </trkpt>
      <trkpt lat="47.017" lon="-1.79604">
        <ele>58.691517</ele>
        <time>2022-12-17T12:19:20.377Z</time>
      </trkpt>
      <trkpt lat="47.01688" lon="-1.79607">
        <ele>58.867184</ele>
        <time>2022-12-17T12:19:24.375Z</time>
      </trkpt>
      <trkpt lat="47.01678" lon="-1.7961">
        <ele>59.004798</ele>
        <time>2022-12-17T12:19:27.384Z</time>
      </trkpt>
      <trkpt lat="47.01669" lon="-1.79615">
        <ele>59.15192</ele>
        <time>2022-12-17T12:19:30.398Z</time>
      </trkpt>
      <trkpt lat="47.01659" lon="-1.79619">
        <ele>59.297202</ele>
        <time>2022-12-17T12:19:33.386Z</time>
      </trkpt>
      <trkpt lat="47.0165" lon="-1.79624">
        <ele>59.440944</ele>
        <time>2022-12-17T12:19:36.384Z</time>
      </trkpt>
      <trkpt lat="47.0164" lon="-1.79629">
        <ele>59.588725</ele>
        <time>2022-12-17T12:19:39.395Z</time>
      </trkpt>
      <trkpt lat="47.0163" lon="-1.79635">
        <ele>59.748738</ele>
        <time>2022-12-17T12:19:42.377Z</time>
      </trkpt>
      <trkpt lat="47.01619" lon="-1.7964">
        <ele>59.916903</ele>
        <time>2022-12-17T12:19:45.374Z</time>
      </trkpt>
      <trkpt lat="47.01608" lon="-1.79647">
        <ele>60.091525</ele>
        <time>2022-12-17T12:19:48.391Z</time>
      </trkpt>
      <trkpt lat="47.01596" lon="-1.79653">
        <ele>60.270562</ele>
        <time>2022-12-17T12:19:51.393Z</time>
      </trkpt>
      <trkpt lat="47.01584" lon="-1.7966">
        <ele>60.446523</ele>
        <time>2022-12-17T12:19:54.376Z</time>
      </trkpt>
      <trkpt lat="47.01573" lon="-1.79669">
        <ele>60.601172</ele>
        <time>2022-12-17T12:19:57.384Z</time>
      </trkpt>
      <trkpt lat="47.01562" lon="-1.79679">
        <ele>60.758893</ele>
        <time>2022-12-17T12:20:00.377Z</time>
      </trkpt>
      <trkpt lat="47.01552" lon="-1.7969">
        <ele>60.915145</ele>
        <time>2022-12-17T12:20:03.385Z</time>
      </trkpt>
      <trkpt lat="47.01542" lon="-1.79704">
        <ele>61.076921</ele>
        <time>2022-12-17T12:20:06.387Z</time>
      </trkpt>
      <trkpt lat="47.01534" lon="-1.79717">
        <ele>61.223306</ele>
        <time>2022-12-17T12:20:09.381Z</time>
      </trkpt>
      <trkpt lat="47.01528" lon="-1.79729">
        <ele>61.349845</ele>
        <time>2022-12-17T12:20:12.375Z</time>
      </trkpt>
      <trkpt lat="47.01523" lon="-1.79742">
        <ele>61.472393</ele>
        <time>2022-12-17T12:20:15.374Z</time>
      </trkpt>
      <trkpt lat="47.01517" lon="-1.79755">
        <ele>61.601661</ele>
        <time>2022-12-17T12:20:18.375Z</time>
      </trkpt>
      <trkpt lat="47.01511" lon="-1.79768">
        <ele>61.735092</ele>
        <time>2022-12-17T12:20:21.381Z</time>
      </trkpt>
      <trkpt lat="47.01505" lon="-1.79782">
        <ele>61.871878</ele>
        <time>2022-12-17T12:20:24.396Z</time>
      </trkpt>
      <trkpt lat="47.01499" lon="-1.79796">
        <ele>62.008382</ele>
        <time>2022-12-17T12:20:27.381Z</time>
      </trkpt>
      <trkpt lat="47.01493" lon="-1.79811">
        <ele>62.148782</ele>
        <time>2022-12-17T12:20:30.385Z</time>
      </trkpt>
      <trkpt lat="47.01487" lon="-1.79826">
        <ele>62.294552</ele>
        <time>2022-12-17T12:20:33.375Z</time>
      </trkpt>
      <trkpt lat="47.0148" lon="-1.7984">
        <ele>62.437632</ele>
        <time>2022-12-17T12:20:36.382Z</time>
      </trkpt>
      <trkpt lat="47.01474" lon="-1.79855">
        <ele>62.584054</ele>
        <time>2022-12-17T12:20:39.373Z</time>
      </trkpt>
      <trkpt lat="47.01467" lon="-1.79871">
        <ele>62.46947</ele>
        <time>2022-12-17T12:20:42.372Z</time>
      </trkpt>
      <trkpt lat="47.0146" lon="-1.79885">
        <ele>62.315575</ele>
        <time>2022-12-17T12:20:45.394Z</time>
      </trkpt>
      <trkpt lat="47.01453" lon="-1.79899">
        <ele>62.166788</ele>
        <time>2022-12-17T12:20:48.385Z</time>
      </trkpt>
      <trkpt lat="47.01445" lon="-1.79912">
        <ele>62.015141</ele>
        <time>2022-12-17T12:20:51.383Z</time>
      </trkpt>
      <trkpt lat="47.01437" lon="-1.79926">
        <ele>61.855427</ele>
        <time>2022-12-17T12:20:54.380Z</time>
      </trkpt>
      <trkpt lat="47.01429" lon="-1.79942">
        <ele>61.684193</ele>
        <time>2022-12-17T12:20:57.386Z</time>
      </trkpt>
      <trkpt lat="47.01423" lon="-1.79953">
        <ele>61.562019</ele>
        <time>2022-12-17T12:20:59.380Z</time>
      </trkpt>
      <trkpt lat="47.01416" lon="-1.79964">
        <ele>61.437847</ele>
        <time>2022-12-17T12:21:01.386Z</time>
      </trkpt>
      <trkpt lat="47.0141" lon="-1.79975">
        <ele>61.308582</ele>
        <time>2022-12-17T12:21:03.385Z</time>
      </trkpt>
      <trkpt lat="47.01404" lon="-1.79987">
        <ele>61.182584</ele>
        <time>2022-12-17T12:21:05.380Z</time>
      </trkpt>
      <trkpt lat="47.01398" lon="-1.79998">
        <ele>61.059588</ele>
        <time>2022-12-17T12:21:07.389Z</time>
      </trkpt>
      <trkpt lat="47.01391" lon="-1.8001">
        <ele>60.923548</ele>
        <time>2022-12-17T12:21:09.394Z</time>
      </trkpt>
      <trkpt lat="47.01385" lon="-1.80021">
        <ele>60.799501</ele>
        <time>2022-12-17T12:21:11.376Z</time>
      </trkpt>
      <trkpt lat="47.01378" lon="-1.80033">
        <ele>60.670084</ele>
        <time>2022-12-17T12:21:13.393Z</time>
      </trkpt>
      <trkpt lat="47.01372" lon="-1.80043">
        <ele>60.544366</ele>
        <time>2022-12-17T12:21:15.376Z</time>
      </trkpt>
      <trkpt lat="47.01366" lon="-1.80055">
        <ele>60.419186</ele>
        <time>2022-12-17T12:21:17.376Z</time>
      </trkpt>
      <trkpt lat="47.0136" lon="-1.80066">
        <ele>60.274018</ele>
        <time>2022-12-17T12:21:19.376Z</time>
      </trkpt>
      <trkpt lat="47.01354" lon="-1.80078">
        <ele>60.042275</ele>
        <time>2022-12-17T12:21:21.388Z</time>
      </trkpt>
      <trkpt lat="47.01347" lon="-1.8009">
        <ele>59.797865</ele>
        <time>2022-12-17T12:21:23.398Z</time>
      </trkpt>
      <trkpt lat="47.01341" lon="-1.801">
        <ele>59.57302</ele>
        <time>2022-12-17T12:21:25.380Z</time>
      </trkpt>
      <trkpt lat="47.01335" lon="-1.80111">
        <ele>59.348719</ele>
        <time>2022-12-17T12:21:27.399Z</time>
      </trkpt>
      <trkpt lat="47.01329" lon="-1.80122">
        <ele>59.136171</ele>
        <time>2022-12-17T12:21:29.379Z</time>
      </trkpt>
      <trkpt lat="47.01323" lon="-1.80132">
        <ele>58.922148</ele>
        <time>2022-12-17T12:21:31.396Z</time>
      </trkpt>
      <trkpt lat="47.01317" lon="-1.80144">
        <ele>58.693311</ele>
        <time>2022-12-17T12:21:33.389Z</time>
      </trkpt>
      <trkpt lat="47.01311" lon="-1.80155">
        <ele>58.477408</ele>
        <time>2022-12-17T12:21:35.382Z</time>
      </trkpt>
      <trkpt lat="47.01306" lon="-1.80166">
        <ele>58.251122</ele>
        <time>2022-12-17T12:21:37.382Z</time>
      </trkpt>
      <trkpt lat="47.013" lon="-1.80177">
        <ele>58.028276</ele>
        <time>2022-12-17T12:21:39.398Z</time>
      </trkpt>
      <trkpt lat="47.01293" lon="-1.80188">
        <ele>57.799804</ele>
        <time>2022-12-17T12:21:41.403Z</time>
      </trkpt>
      <trkpt lat="47.01288" lon="-1.802">
        <ele>57.574787</ele>
        <time>2022-12-17T12:21:43.380Z</time>
      </trkpt>
      <trkpt lat="47.01282" lon="-1.80211">
        <ele>57.348501</ele>
        <time>2022-12-17T12:21:45.384Z</time>
      </trkpt>
      <trkpt lat="47.01276" lon="-1.80222">
        <ele>57.124417</ele>
        <time>2022-12-17T12:21:47.383Z</time>
      </trkpt>
      <trkpt lat="47.0127" lon="-1.80234">
        <ele>56.904782</ele>
        <time>2022-12-17T12:21:49.381Z</time>
      </trkpt>
      <trkpt lat="47.01265" lon="-1.80246">
        <ele>56.674683</ele>
        <time>2022-12-17T12:21:51.380Z</time>
      </trkpt>
      <trkpt lat="47.01259" lon="-1.80259">
        <ele>56.43283</ele>
        <time>2022-12-17T12:21:53.387Z</time>
      </trkpt>
      <trkpt lat="47.01254" lon="-1.80272">
        <ele>56.193366</ele>
        <time>2022-12-17T12:21:55.401Z</time>
      </trkpt>
      <trkpt lat="47.01249" lon="-1.80284">
        <ele>56.145003</ele>
        <time>2022-12-17T12:21:57.385Z</time>
      </trkpt>
      <trkpt lat="47.01244" lon="-1.80298">
        <ele>56.139725</ele>
        <time>2022-12-17T12:21:59.392Z</time>
      </trkpt>
      <trkpt lat="47.0124" lon="-1.80311">
        <ele>56.134476</ele>
        <time>2022-12-17T12:22:01.382Z</time>
      </trkpt>
      <trkpt lat="47.01237" lon="-1.80325">
        <ele>56.129306</ele>
        <time>2022-12-17T12:22:03.383Z</time>
      </trkpt>
      <trkpt lat="47.01234" lon="-1.80339">
        <ele>56.124372</ele>
        <time>2022-12-17T12:22:05.386Z</time>
      </trkpt>
      <trkpt lat="47.01231" lon="-1.80352">
        <ele>56.119464</ele>
        <time>2022-12-17T12:22:07.385Z</time>
      </trkpt>
      <trkpt lat="47.01229" lon="-1.80367">
        <ele>56.114074</ele>
        <time>2022-12-17T12:22:09.400Z</time>
      </trkpt>
      <trkpt lat="47.01226" lon="-1.80381">
        <ele>56.109167</ele>
        <time>2022-12-17T12:22:11.380Z</time>
      </trkpt>
      <trkpt lat="47.01224" lon="-1.80394">
        <ele>56.104289</ele>
        <time>2022-12-17T12:22:13.387Z</time>
      </trkpt>
      <trkpt lat="47.01221" lon="-1.80408">
        <ele>56.099464</ele>
        <time>2022-12-17T12:22:15.392Z</time>
      </trkpt>
      <trkpt lat="47.01219" lon="-1.80421">
        <ele>56.094625</ele>
        <time>2022-12-17T12:22:17.393Z</time>
      </trkpt>
      <trkpt lat="47.01216" lon="-1.80434">
        <ele>56.090001</ele>
        <time>2022-12-17T12:22:19.381Z</time>
      </trkpt>
      <trkpt lat="47.01214" lon="-1.80448">
        <ele>56.085013</ele>
        <time>2022-12-17T12:22:21.380Z</time>
      </trkpt>
      <trkpt lat="47.01211" lon="-1.8046">
        <ele>56.080384</ele>
        <time>2022-12-17T12:22:23.382Z</time>
      </trkpt>
      <trkpt lat="47.01208" lon="-1.80479">
        <ele>56.073575</ele>
        <time>2022-12-17T12:22:26.377Z</time>
      </trkpt>
      <trkpt lat="47.01205" lon="-1.80492">
        <ele>56.068946</ele>
        <time>2022-12-17T12:22:28.383Z</time>
      </trkpt>
      <trkpt lat="47.01202" lon="-1.8051">
        <ele>56.062395</ele>
        <time>2022-12-17T12:22:31.381Z</time>
      </trkpt>
      <trkpt lat="47.01199" lon="-1.8053">
        <ele>55.955097</ele>
        <time>2022-12-17T12:22:34.396Z</time>
      </trkpt>
      <trkpt lat="47.01197" lon="-1.80543">
        <ele>55.658632</ele>
        <time>2022-12-17T12:22:36.385Z</time>
      </trkpt>
      <trkpt lat="47.01195" lon="-1.80557">
        <ele>55.358204</ele>
        <time>2022-12-17T12:22:38.385Z</time>
      </trkpt>
      <trkpt lat="47.01192" lon="-1.8057">
        <ele>55.060483</ele>
        <time>2022-12-17T12:22:40.384Z</time>
      </trkpt>
      <trkpt lat="47.0119" lon="-1.80584">
        <ele>54.7552</ele>
        <time>2022-12-17T12:22:42.376Z</time>
      </trkpt>
      <trkpt lat="47.01186" lon="-1.80597">
        <ele>54.450097</ele>
        <time>2022-12-17T12:22:44.380Z</time>
      </trkpt>
      <trkpt lat="47.01183" lon="-1.80611">
        <ele>54.137435</ele>
        <time>2022-12-17T12:22:46.393Z</time>
      </trkpt>
      <trkpt lat="47.01179" lon="-1.80623">
        <ele>53.837421</ele>
        <time>2022-12-17T12:22:48.380Z</time>
      </trkpt>
      <trkpt lat="47.01174" lon="-1.80637">
        <ele>53.507331</ele>
        <time>2022-12-17T12:22:50.393Z</time>
      </trkpt>
      <trkpt lat="47.01169" lon="-1.80648">
        <ele>53.224724</ele>
        <time>2022-12-17T12:22:52.374Z</time>
      </trkpt>
      <trkpt lat="47.01164" lon="-1.80662">
        <ele>52.888968</ele>
        <time>2022-12-17T12:22:54.386Z</time>
      </trkpt>
      <trkpt lat="47.01157" lon="-1.80675">
        <ele>52.527922</ele>
        <time>2022-12-17T12:22:56.373Z</time>
      </trkpt>
      <trkpt lat="47.0115" lon="-1.80688">
        <ele>52.166875</ele>
        <time>2022-12-17T12:22:58.392Z</time>
      </trkpt>
      <trkpt lat="47.01142" lon="-1.80702">
        <ele>51.78643</ele>
        <time>2022-12-17T12:23:00.376Z</time>
      </trkpt>
      <trkpt lat="47.01134" lon="-1.80718">
        <ele>51.366544</ele>
        <time>2022-12-17T12:23:02.377Z</time>
      </trkpt>
      <trkpt lat="47.01125" lon="-1.80733">
        <ele>50.931387</ele>
        <time>2022-12-17T12:23:04.375Z</time>
      </trkpt>
      <trkpt lat="47.01116" lon="-1.80748">
        <ele>50.503626</ele>
        <time>2022-12-17T12:23:06.394Z</time>
      </trkpt>
      <trkpt lat="47.01108" lon="-1.80764">
        <ele>50.269714</ele>
        <time>2022-12-17T12:23:08.402Z</time>
      </trkpt>
      <trkpt lat="47.01099" lon="-1.80779">
        <ele>50.109683</ele>
        <time>2022-12-17T12:23:10.381Z</time>
      </trkpt>
      <trkpt lat="47.01091" lon="-1.80792">
        <ele>49.963632</ele>
        <time>2022-12-17T12:23:12.377Z</time>
      </trkpt>
      <trkpt lat="47.01083" lon="-1.80807">
        <ele>49.805749</ele>
        <time>2022-12-17T12:23:14.392Z</time>
      </trkpt>
      <trkpt lat="47.01074" lon="-1.80822">
        <ele>49.643839</ele>
        <time>2022-12-17T12:23:16.385Z</time>
      </trkpt>
      <trkpt lat="47.01065" lon="-1.80837">
        <ele>49.486078</ele>
        <time>2022-12-17T12:23:18.398Z</time>
      </trkpt>
      <trkpt lat="47.01058" lon="-1.80852">
        <ele>49.336489</ele>
        <time>2022-12-17T12:23:20.383Z</time>
      </trkpt>
      <trkpt lat="47.0105" lon="-1.80865">
        <ele>49.196584</ele>
        <time>2022-12-17T12:23:22.374Z</time>
      </trkpt>
      <trkpt lat="47.01043" lon="-1.80878">
        <ele>49.056533</ele>
        <time>2022-12-17T12:23:24.381Z</time>
      </trkpt>
      <trkpt lat="47.01035" lon="-1.80893">
        <ele>48.903092</ele>
        <time>2022-12-17T12:23:26.394Z</time>
      </trkpt>
      <trkpt lat="47.01027" lon="-1.80906">
        <ele>48.765867</ele>
        <time>2022-12-17T12:23:28.398Z</time>
      </trkpt>
      <trkpt lat="47.0102" lon="-1.80919">
        <ele>48.628474</ele>
        <time>2022-12-17T12:23:30.375Z</time>
      </trkpt>
      <trkpt lat="47.01013" lon="-1.8093">
        <ele>48.508066</ele>
        <time>2022-12-17T12:23:32.376Z</time>
      </trkpt>
      <trkpt lat="47.01007" lon="-1.80941">
        <ele>48.392902</ele>
        <time>2022-12-17T12:23:34.380Z</time>
      </trkpt>
      <trkpt lat="47.01001" lon="-1.80953">
        <ele>48.270895</ele>
        <time>2022-12-17T12:23:36.373Z</time>
      </trkpt>
      <trkpt lat="47.00994" lon="-1.80965">
        <ele>48.262127</ele>
        <time>2022-12-17T12:23:38.389Z</time>
      </trkpt>
      <trkpt lat="47.00988" lon="-1.80977">
        <ele>48.286828</ele>
        <time>2022-12-17T12:23:40.374Z</time>
      </trkpt>
      <trkpt lat="47.0098" lon="-1.8099">
        <ele>48.313696</ele>
        <time>2022-12-17T12:23:42.377Z</time>
      </trkpt>
      <trkpt lat="47.00974" lon="-1.81">
        <ele>48.335737</ele>
        <time>2022-12-17T12:23:44.378Z</time>
      </trkpt>
      <trkpt lat="47.00968" lon="-1.81012">
        <ele>48.359173</ele>
        <time>2022-12-17T12:23:46.390Z</time>
      </trkpt>
      <trkpt lat="47.00961" lon="-1.81023">
        <ele>48.382359</ele>
        <time>2022-12-17T12:23:48.396Z</time>
      </trkpt>
      <trkpt lat="47.00955" lon="-1.81034">
        <ele>48.406126</ele>
        <time>2022-12-17T12:23:50.391Z</time>
      </trkpt>
      <trkpt lat="47.00948" lon="-1.81046">
        <ele>48.431085</ele>
        <time>2022-12-17T12:23:52.376Z</time>
      </trkpt>
      <trkpt lat="47.00941" lon="-1.81058">
        <ele>48.455025</ele>
        <time>2022-12-17T12:23:54.384Z</time>
      </trkpt>
      <trkpt lat="47.00935" lon="-1.81069">
        <ele>48.478597</ele>
        <time>2022-12-17T12:23:56.385Z</time>
      </trkpt>
      <trkpt lat="47.00929" lon="-1.81082">
        <ele>48.502774</ele>
        <time>2022-12-17T12:23:58.382Z</time>
      </trkpt>
      <trkpt lat="47.00922" lon="-1.81094">
        <ele>48.527341</ele>
        <time>2022-12-17T12:24:00.375Z</time>
      </trkpt>
      <trkpt lat="47.00915" lon="-1.81105">
        <ele>48.551393</ele>
        <time>2022-12-17T12:24:02.385Z</time>
      </trkpt>
      <trkpt lat="47.00908" lon="-1.81117">
        <ele>48.576929</ele>
        <time>2022-12-17T12:24:04.389Z</time>
      </trkpt>
      <trkpt lat="47.00902" lon="-1.8113">
        <ele>48.601371</ele>
        <time>2022-12-17T12:24:06.391Z</time>
      </trkpt>
      <trkpt lat="47.00895" lon="-1.81142">
        <ele>48.627027</ele>
        <time>2022-12-17T12:24:08.384Z</time>
      </trkpt>
      <trkpt lat="47.00888" lon="-1.81154">
        <ele>48.651443</ele>
        <time>2022-12-17T12:24:10.390Z</time>
      </trkpt>
      <trkpt lat="47.00881" lon="-1.81165">
        <ele>48.663214</ele>
        <time>2022-12-17T12:24:12.382Z</time>
      </trkpt>
      <trkpt lat="47.00875" lon="-1.81177">
        <ele>48.664915</ele>
        <time>2022-12-17T12:24:14.374Z</time>
      </trkpt>
      <trkpt lat="47.00868" lon="-1.8119">
        <ele>48.666792</ele>
        <time>2022-12-17T12:24:16.397Z</time>
      </trkpt>
      <trkpt lat="47.00861" lon="-1.81203">
        <ele>48.668627</ele>
        <time>2022-12-17T12:24:18.392Z</time>
      </trkpt>
      <trkpt lat="47.00854" lon="-1.81215">
        <ele>48.670425</ele>
        <time>2022-12-17T12:24:20.397Z</time>
      </trkpt>
      <trkpt lat="47.00847" lon="-1.81227">
        <ele>48.672155</ele>
        <time>2022-12-17T12:24:22.374Z</time>
      </trkpt>
      <trkpt lat="47.00841" lon="-1.8124">
        <ele>48.674011</ele>
        <time>2022-12-17T12:24:24.381Z</time>
      </trkpt>
      <trkpt lat="47.00834" lon="-1.81253">
        <ele>48.675889</ele>
        <time>2022-12-17T12:24:26.384Z</time>
      </trkpt>
      <trkpt lat="47.00826" lon="-1.81266">
        <ele>48.67779</ele>
        <time>2022-12-17T12:24:28.386Z</time>
      </trkpt>
      <trkpt lat="47.00819" lon="-1.8128">
        <ele>48.679692</ele>
        <time>2022-12-17T12:24:30.380Z</time>
      </trkpt>
      <trkpt lat="47.00813" lon="-1.81294">
        <ele>48.681612</ele>
        <time>2022-12-17T12:24:32.375Z</time>
      </trkpt>
      <trkpt lat="47.00807" lon="-1.81308">
        <ele>48.683416</ele>
        <time>2022-12-17T12:24:34.381Z</time>
      </trkpt>
      <trkpt lat="47.00802" lon="-1.81322">
        <ele>48.685234</ele>
        <time>2022-12-17T12:24:36.384Z</time>
      </trkpt>
      <trkpt lat="47.00798" lon="-1.81336">
        <ele>48.686966</ele>
        <time>2022-12-17T12:24:38.385Z</time>
      </trkpt>
      <trkpt lat="47.00793" lon="-1.81349">
        <ele>48.688671</ele>
        <time>2022-12-17T12:24:40.392Z</time>
      </trkpt>
      <trkpt lat="47.00789" lon="-1.81363">
        <ele>48.690427</ele>
        <time>2022-12-17T12:24:42.376Z</time>
      </trkpt>
      <trkpt lat="47.00784" lon="-1.81378">
        <ele>48.698054</ele>
        <time>2022-12-17T12:24:44.389Z</time>
      </trkpt>
      <trkpt lat="47.0078" lon="-1.81393">
        <ele>48.756023</ele>
        <time>2022-12-17T12:24:46.382Z</time>
      </trkpt>
      <trkpt lat="47.00775" lon="-1.81407">
        <ele>48.811529</ele>
        <time>2022-12-17T12:24:48.415Z</time>
      </trkpt>
      <trkpt lat="47.00771" lon="-1.81422">
        <ele>48.86948</ele>
        <time>2022-12-17T12:24:50.398Z</time>
      </trkpt>
      <trkpt lat="47.00767" lon="-1.81436">
        <ele>48.923292</ele>
        <time>2022-12-17T12:24:52.377Z</time>
      </trkpt>
      <trkpt lat="47.00762" lon="-1.81449">
        <ele>48.972441</ele>
        <time>2022-12-17T12:24:54.386Z</time>
      </trkpt>
      <trkpt lat="47.00758" lon="-1.81461">
        <ele>49.01956</ele>
        <time>2022-12-17T12:24:56.378Z</time>
      </trkpt>
      <trkpt lat="47.00752" lon="-1.81478">
        <ele>49.087369</ele>
        <time>2022-12-17T12:24:59.387Z</time>
      </trkpt>
      <trkpt lat="47.00744" lon="-1.81495">
        <ele>49.157876</ele>
        <time>2022-12-17T12:25:02.379Z</time>
      </trkpt>
      <trkpt lat="47.00739" lon="-1.81507">
        <ele>49.208954</ele>
        <time>2022-12-17T12:25:04.387Z</time>
      </trkpt>
      <trkpt lat="47.00733" lon="-1.81519">
        <ele>49.260304</ele>
        <time>2022-12-17T12:25:06.383Z</time>
      </trkpt>
      <trkpt lat="47.00727" lon="-1.81531">
        <ele>49.313968</ele>
        <time>2022-12-17T12:25:08.403Z</time>
      </trkpt>
      <trkpt lat="47.00721" lon="-1.81542">
        <ele>49.364937</ele>
        <time>2022-12-17T12:25:10.398Z</time>
      </trkpt>
      <trkpt lat="47.00715" lon="-1.81553">
        <ele>49.413792</ele>
        <time>2022-12-17T12:25:12.374Z</time>
      </trkpt>
      <trkpt lat="47.00709" lon="-1.81565">
        <ele>49.465258</ele>
        <time>2022-12-17T12:25:14.402Z</time>
      </trkpt>
      <trkpt lat="47.00702" lon="-1.81576">
        <ele>49.517318</ele>
        <time>2022-12-17T12:25:16.389Z</time>
      </trkpt>
      <trkpt lat="47.00697" lon="-1.81588">
        <ele>49.566725</ele>
        <time>2022-12-17T12:25:18.388Z</time>
      </trkpt>
      <trkpt lat="47.0069" lon="-1.81599">
        <ele>49.614317</ele>
        <time>2022-12-17T12:25:20.380Z</time>
      </trkpt>
      <trkpt lat="47.00684" lon="-1.81612">
        <ele>49.519832</ele>
        <time>2022-12-17T12:25:22.377Z</time>
      </trkpt>
      <trkpt lat="47.00677" lon="-1.81624">
        <ele>49.421987</ele>
        <time>2022-12-17T12:25:24.378Z</time>
      </trkpt>
      <trkpt lat="47.00671" lon="-1.81635">
        <ele>49.329929</ele>
        <time>2022-12-17T12:25:26.391Z</time>
      </trkpt>
      <trkpt lat="47.00664" lon="-1.81646">
        <ele>49.232761</ele>
        <time>2022-12-17T12:25:28.400Z</time>
      </trkpt>
      <trkpt lat="47.00657" lon="-1.81657">
        <ele>49.139598</ele>
        <time>2022-12-17T12:25:30.383Z</time>
      </trkpt>
      <trkpt lat="47.0065" lon="-1.81667">
        <ele>49.050429</ele>
        <time>2022-12-17T12:25:32.372Z</time>
      </trkpt>
      <trkpt lat="47.00643" lon="-1.81677">
        <ele>48.963495</ele>
        <time>2022-12-17T12:25:34.386Z</time>
      </trkpt>
      <trkpt lat="47.00633" lon="-1.8169">
        <ele>48.838259</ele>
        <time>2022-12-17T12:25:37.391Z</time>
      </trkpt>
      <trkpt lat="47.00624" lon="-1.81703">
        <ele>48.721421</ele>
        <time>2022-12-17T12:25:40.382Z</time>
      </trkpt>
      <trkpt lat="47.00615" lon="-1.81716">
        <ele>48.60414</ele>
        <time>2022-12-17T12:25:43.379Z</time>
      </trkpt>
      <trkpt lat="47.00605" lon="-1.81729">
        <ele>48.481145</ele>
        <time>2022-12-17T12:25:46.382Z</time>
      </trkpt>
      <trkpt lat="47.00596" lon="-1.81743">
        <ele>48.357938</ele>
        <time>2022-12-17T12:25:49.376Z</time>
      </trkpt>
      <trkpt lat="47.00589" lon="-1.81753">
        <ele>48.271748</ele>
        <time>2022-12-17T12:25:51.378Z</time>
      </trkpt>
      <trkpt lat="47.00583" lon="-1.81763">
        <ele>48.184947</ele>
        <time>2022-12-17T12:25:53.387Z</time>
      </trkpt>
      <trkpt lat="47.00575" lon="-1.81773">
        <ele>48.092525</ele>
        <time>2022-12-17T12:25:55.391Z</time>
      </trkpt>
      <trkpt lat="47.00568" lon="-1.81783">
        <ele>47.998966</ele>
        <time>2022-12-17T12:25:57.399Z</time>
      </trkpt>
      <trkpt lat="47.00561" lon="-1.81793">
        <ele>47.958715</ele>
        <time>2022-12-17T12:25:59.388Z</time>
      </trkpt>
      <trkpt lat="47.00554" lon="-1.81803">
        <ele>47.955541</ele>
        <time>2022-12-17T12:26:01.394Z</time>
      </trkpt>
      <trkpt lat="47.00546" lon="-1.81813">
        <ele>47.952196</ele>
        <time>2022-12-17T12:26:03.390Z</time>
      </trkpt>
      <trkpt lat="47.0054" lon="-1.81822">
        <ele>47.948949</ele>
        <time>2022-12-17T12:26:05.386Z</time>
      </trkpt>
      <trkpt lat="47.00532" lon="-1.81831">
        <ele>47.945909</ele>
        <time>2022-12-17T12:26:07.386Z</time>
      </trkpt>
      <trkpt lat="47.00523" lon="-1.81845">
        <ele>47.941331</ele>
        <time>2022-12-17T12:26:10.398Z</time>
      </trkpt>
      <trkpt lat="47.00516" lon="-1.81855">
        <ele>47.938149</ele>
        <time>2022-12-17T12:26:12.376Z</time>
      </trkpt>
      <trkpt lat="47.00509" lon="-1.81864">
        <ele>47.934813</ele>
        <time>2022-12-17T12:26:14.407Z</time>
      </trkpt>
      <trkpt lat="47.00502" lon="-1.81874">
        <ele>47.931443</ele>
        <time>2022-12-17T12:26:16.382Z</time>
      </trkpt>
      <trkpt lat="47.00494" lon="-1.81884">
        <ele>47.928088</ele>
        <time>2022-12-17T12:26:18.390Z</time>
      </trkpt>
      <trkpt lat="47.00487" lon="-1.81894">
        <ele>47.92468</ele>
        <time>2022-12-17T12:26:20.389Z</time>
      </trkpt>
      <trkpt lat="47.0048" lon="-1.81904">
        <ele>47.921474</ele>
        <time>2022-12-17T12:26:22.378Z</time>
      </trkpt>
      <trkpt lat="47.00473" lon="-1.81913">
        <ele>47.918327</ele>
        <time>2022-12-17T12:26:24.384Z</time>
      </trkpt>
      <trkpt lat="47.00466" lon="-1.81923">
        <ele>47.915081</ele>
        <time>2022-12-17T12:26:26.396Z</time>
      </trkpt>
      <trkpt lat="47.00459" lon="-1.81932">
        <ele>47.911832</ele>
        <time>2022-12-17T12:26:28.393Z</time>
      </trkpt>
      <trkpt lat="47.00452" lon="-1.81942">
        <ele>47.908497</ele>
        <time>2022-12-17T12:26:30.390Z</time>
      </trkpt>
      <trkpt lat="47.00446" lon="-1.81952">
        <ele>47.905402</ele>
        <time>2022-12-17T12:26:32.377Z</time>
      </trkpt>
      <trkpt lat="47.00439" lon="-1.81961">
        <ele>47.902256</ele>
        <time>2022-12-17T12:26:34.395Z</time>
      </trkpt>
      <trkpt lat="47.00432" lon="-1.81971">
        <ele>47.941611</ele>
        <time>2022-12-17T12:26:36.383Z</time>
      </trkpt>
      <trkpt lat="47.00425" lon="-1.8198">
        <ele>48.082927</ele>
        <time>2022-12-17T12:26:38.389Z</time>
      </trkpt>
      <trkpt lat="47.00418" lon="-1.8199">
        <ele>48.223787</ele>
        <time>2022-12-17T12:26:40.395Z</time>
      </trkpt>
      <trkpt lat="47.00411" lon="-1.81998">
        <ele>48.36353</ele>
        <time>2022-12-17T12:26:42.373Z</time>
      </trkpt>
      <trkpt lat="47.00404" lon="-1.82008">
        <ele>48.506875</ele>
        <time>2022-12-17T12:26:44.394Z</time>
      </trkpt>
      <trkpt lat="47.00397" lon="-1.82017">
        <ele>48.644898</ele>
        <time>2022-12-17T12:26:46.396Z</time>
      </trkpt>
      <trkpt lat="47.00388" lon="-1.82029">
        <ele>48.834061</ele>
        <time>2022-12-17T12:26:49.397Z</time>
      </trkpt>
      <trkpt lat="47.00379" lon="-1.82042">
        <ele>49.020927</ele>
        <time>2022-12-17T12:26:52.377Z</time>
      </trkpt>
      <trkpt lat="47.0037" lon="-1.82055">
        <ele>49.210647</ele>
        <time>2022-12-17T12:26:55.381Z</time>
      </trkpt>
      <trkpt lat="47.00361" lon="-1.82069">
        <ele>49.404727</ele>
        <time>2022-12-17T12:26:58.384Z</time>
      </trkpt>
      <trkpt lat="47.00351" lon="-1.82081">
        <ele>49.595261</ele>
        <time>2022-12-17T12:27:01.387Z</time>
      </trkpt>
      <trkpt lat="47.00342" lon="-1.82094">
        <ele>49.780419</ele>
        <time>2022-12-17T12:27:04.376Z</time>
      </trkpt>
      <trkpt lat="47.00333" lon="-1.82105">
        <ele>49.958566</ele>
        <time>2022-12-17T12:27:07.381Z</time>
      </trkpt>
      <trkpt lat="47.00325" lon="-1.82118">
        <ele>50.141507</ele>
        <time>2022-12-17T12:27:10.389Z</time>
      </trkpt>
      <trkpt lat="47.00315" lon="-1.8213">
        <ele>50.329149</ele>
        <time>2022-12-17T12:27:13.385Z</time>
      </trkpt>
      <trkpt lat="47.00306" lon="-1.82143">
        <ele>50.518313</ele>
        <time>2022-12-17T12:27:16.380Z</time>
      </trkpt>
      <trkpt lat="47.00297" lon="-1.82155">
        <ele>50.580818</ele>
        <time>2022-12-17T12:27:19.383Z</time>
      </trkpt>
      <trkpt lat="47.00289" lon="-1.82166">
        <ele>50.566578</ele>
        <time>2022-12-17T12:27:22.375Z</time>
      </trkpt>
      <trkpt lat="47.00286" lon="-1.82179">
        <ele>50.554088</ele>
        <time>2022-12-17T12:27:25.378Z</time>
      </trkpt>
      <trkpt lat="47.00282" lon="-1.8219">
        <ele>50.541921</ele>
        <time>2022-12-17T12:27:28.384Z</time>
      </trkpt>
      <trkpt lat="47.00272" lon="-1.82196">
        <ele>50.528673</ele>
        <time>2022-12-17T12:27:31.375Z</time>
      </trkpt>
      <trkpt lat="47.00264" lon="-1.82207">
        <ele>50.513281</ele>
        <time>2022-12-17T12:27:34.379Z</time>
      </trkpt>
      <trkpt lat="47.00255" lon="-1.8222">
        <ele>50.496227</ele>
        <time>2022-12-17T12:27:37.392Z</time>
      </trkpt>
      <trkpt lat="47.00246" lon="-1.82234">
        <ele>50.478468</ele>
        <time>2022-12-17T12:27:40.390Z</time>
      </trkpt>
      <trkpt lat="47.00236" lon="-1.82247">
        <ele>50.460997</ele>
        <time>2022-12-17T12:27:43.393Z</time>
      </trkpt>
      <trkpt lat="47.00228" lon="-1.82261">
        <ele>50.444125</ele>
        <time>2022-12-17T12:27:46.386Z</time>
      </trkpt>
      <trkpt lat="47.0022" lon="-1.82275">
        <ele>50.427846</ele>
        <time>2022-12-17T12:27:49.379Z</time>
      </trkpt>
      <trkpt lat="47.00213" lon="-1.82288">
        <ele>50.412157</ele>
        <time>2022-12-17T12:27:52.378Z</time>
      </trkpt>
      <trkpt lat="47.00206" lon="-1.82302">
        <ele>50.397013</ele>
        <time>2022-12-17T12:27:55.377Z</time>
      </trkpt>
      <trkpt lat="47.00204" lon="-1.82316">
        <ele>50.383054</ele>
        <time>2022-12-17T12:27:58.377Z</time>
      </trkpt>
      <trkpt lat="47.00208" lon="-1.82332">
        <ele>50.367934</ele>
        <time>2022-12-17T12:28:01.386Z</time>
      </trkpt>
      <trkpt lat="47.00209" lon="-1.82347">
        <ele>50.353991</ele>
        <time>2022-12-17T12:28:04.382Z</time>
      </trkpt>
      <trkpt lat="47.00208" lon="-1.82363">
        <ele>50.211675</ele>
        <time>2022-12-17T12:28:07.387Z</time>
      </trkpt>
      <trkpt lat="47.002" lon="-1.82377">
        <ele>50.009737</ele>
        <time>2022-12-17T12:28:10.384Z</time>
      </trkpt>
      <trkpt lat="47.00189" lon="-1.82384">
        <ele>49.785802</ele>
        <time>2022-12-17T12:28:13.377Z</time>
      </trkpt>
      <trkpt lat="47.0018" lon="-1.82383">
        <ele>49.62671</ele>
        <time>2022-12-17T12:28:15.389Z</time>
      </trkpt>
      <trkpt lat="47.0017" lon="-1.82381">
        <ele>49.462997</ele>
        <time>2022-12-17T12:28:17.390Z</time>
      </trkpt>
      <trkpt lat="47.00161" lon="-1.82374">
        <ele>49.281408</ele>
        <time>2022-12-17T12:28:19.381Z</time>
      </trkpt>
      <trkpt lat="47.00151" lon="-1.82371">
        <ele>49.107446</ele>
        <time>2022-12-17T12:28:21.376Z</time>
      </trkpt>
      <trkpt lat="47.00141" lon="-1.82375">
        <ele>48.92689</ele>
        <time>2022-12-17T12:28:23.389Z</time>
      </trkpt>
      <trkpt lat="47.00132" lon="-1.82383">
        <ele>48.739535</ele>
        <time>2022-12-17T12:28:25.379Z</time>
      </trkpt>
      <trkpt lat="47.00124" lon="-1.82393">
        <ele>48.547407</ele>
        <time>2022-12-17T12:28:27.385Z</time>
      </trkpt>
      <trkpt lat="47.00116" lon="-1.82405">
        <ele>48.356269</ele>
        <time>2022-12-17T12:28:29.377Z</time>
      </trkpt>
      <trkpt lat="47.00109" lon="-1.82416">
        <ele>48.181286</ele>
        <time>2022-12-17T12:28:31.387Z</time>
      </trkpt>
      <trkpt lat="47.00102" lon="-1.82427">
        <ele>48.000454</ele>
        <time>2022-12-17T12:28:33.391Z</time>
      </trkpt>
      <trkpt lat="47.00095" lon="-1.82437">
        <ele>47.824308</ele>
        <time>2022-12-17T12:28:35.396Z</time>
      </trkpt>
      <trkpt lat="47.00087" lon="-1.82447">
        <ele>47.650247</ele>
        <time>2022-12-17T12:28:37.376Z</time>
      </trkpt>
      <trkpt lat="47.0008" lon="-1.82456">
        <ele>47.483698</ele>
        <time>2022-12-17T12:28:39.398Z</time>
      </trkpt>
      <trkpt lat="47.00073" lon="-1.82466">
        <ele>47.312845</ele>
        <time>2022-12-17T12:28:41.399Z</time>
      </trkpt>
      <trkpt lat="47.00066" lon="-1.82475">
        <ele>47.244208</ele>
        <time>2022-12-17T12:28:43.388Z</time>
      </trkpt>
      <trkpt lat="47.00058" lon="-1.82484">
        <ele>47.312976</ele>
        <time>2022-12-17T12:28:45.388Z</time>
      </trkpt>
      <trkpt lat="47.00051" lon="-1.82496">
        <ele>47.388251</ele>
        <time>2022-12-17T12:28:47.380Z</time>
      </trkpt>
      <trkpt lat="47.00044" lon="-1.82507">
        <ele>47.46113</ele>
        <time>2022-12-17T12:28:49.399Z</time>
      </trkpt>
      <trkpt lat="47.00037" lon="-1.82518">
        <ele>47.53252</ele>
        <time>2022-12-17T12:28:51.376Z</time>
      </trkpt>
      <trkpt lat="47.0003" lon="-1.82528">
        <ele>47.604231</ele>
        <time>2022-12-17T12:28:53.386Z</time>
      </trkpt>
      <trkpt lat="47.00022" lon="-1.82538">
        <ele>47.678187</ele>
        <time>2022-12-17T12:28:55.386Z</time>
      </trkpt>
      <trkpt lat="47.00015" lon="-1.82548">
        <ele>47.74806</ele>
        <time>2022-12-17T12:28:57.383Z</time>
      </trkpt>
      <trkpt lat="47.00007" lon="-1.82559">
        <ele>47.822541</ele>
        <time>2022-12-17T12:28:59.390Z</time>
      </trkpt>
      <trkpt lat="46.99998" lon="-1.82567">
        <ele>47.896522</ele>
        <time>2022-12-17T12:29:01.380Z</time>
      </trkpt>
      <trkpt lat="46.99989" lon="-1.82575">
        <ele>47.970787</ele>
        <time>2022-12-17T12:29:03.376Z</time>
      </trkpt>
      <trkpt lat="46.99979" lon="-1.82586">
        <ele>48.060625</ele>
        <time>2022-12-17T12:29:06.385Z</time>
      </trkpt>
      <trkpt lat="46.99969" lon="-1.82596">
        <ele>48.14525</ele>
        <time>2022-12-17T12:29:09.383Z</time>
      </trkpt>
      <trkpt lat="46.9996" lon="-1.82605">
        <ele>48.21856</ele>
        <time>2022-12-17T12:29:12.375Z</time>
      </trkpt>
      <trkpt lat="46.99952" lon="-1.82614">
        <ele>48.291158</ele>
        <time>2022-12-17T12:29:15.382Z</time>
      </trkpt>
      <trkpt lat="46.99943" lon="-1.82624">
        <ele>48.36929</ele>
        <time>2022-12-17T12:29:18.377Z</time>
      </trkpt>
      <trkpt lat="46.99933" lon="-1.82633">
        <ele>48.453574</ele>
        <time>2022-12-17T12:29:21.377Z</time>
      </trkpt>
      <trkpt lat="46.99923" lon="-1.82642">
        <ele>48.392175</ele>
        <time>2022-12-17T12:29:24.375Z</time>
      </trkpt>
      <trkpt lat="46.99912" lon="-1.8265">
        <ele>48.257921</ele>
        <time>2022-12-17T12:29:27.391Z</time>
      </trkpt>
      <trkpt lat="46.999" lon="-1.82654">
        <ele>48.114775</ele>
        <time>2022-12-17T12:29:30.387Z</time>
      </trkpt>
      <trkpt lat="46.99888" lon="-1.82657">
        <ele>47.979287</ele>
        <time>2022-12-17T12:29:33.381Z</time>
      </trkpt>
      <trkpt lat="46.99876" lon="-1.82659">
        <ele>47.843003</ele>
        <time>2022-12-17T12:29:36.383Z</time>
      </trkpt>
      <trkpt lat="46.99864" lon="-1.82662">
        <ele>47.705501</ele>
        <time>2022-12-17T12:29:39.380Z</time>
      </trkpt>
      <trkpt lat="46.99851" lon="-1.82663">
        <ele>47.560957</ele>
        <time>2022-12-17T12:29:42.377Z</time>
      </trkpt>
      <trkpt lat="46.99838" lon="-1.82665">
        <ele>47.411736</ele>
        <time>2022-12-17T12:29:45.389Z</time>
      </trkpt>
      <trkpt lat="46.99828" lon="-1.82665">
        <ele>47.306906</ele>
        <time>2022-12-17T12:29:47.385Z</time>
      </trkpt>
      <trkpt lat="46.99819" lon="-1.82666">
        <ele>47.197346</ele>
        <time>2022-12-17T12:29:49.382Z</time>
      </trkpt>
      <trkpt lat="46.99809" lon="-1.82667">
        <ele>47.08471</ele>
        <time>2022-12-17T12:29:51.385Z</time>
      </trkpt>
      <trkpt lat="46.99798" lon="-1.82668">
        <ele>46.970599</ele>
        <time>2022-12-17T12:29:53.389Z</time>
      </trkpt>
      <trkpt lat="46.99787" lon="-1.82669">
        <ele>46.846323</ele>
        <time>2022-12-17T12:29:55.384Z</time>
      </trkpt>
      <trkpt lat="46.99777" lon="-1.8267">
        <ele>46.724663</ele>
        <time>2022-12-17T12:29:57.386Z</time>
      </trkpt>
      <trkpt lat="46.99766" lon="-1.82672">
        <ele>46.606544</ele>
        <time>2022-12-17T12:29:59.392Z</time>
      </trkpt>
      <trkpt lat="46.99756" lon="-1.82674">
        <ele>46.491873</ele>
        <time>2022-12-17T12:30:01.385Z</time>
      </trkpt>
      <trkpt lat="46.99746" lon="-1.82675">
        <ele>46.402615</ele>
        <time>2022-12-17T12:30:03.390Z</time>
      </trkpt>
      <trkpt lat="46.99737" lon="-1.82675">
        <ele>46.321905</ele>
        <time>2022-12-17T12:30:05.385Z</time>
      </trkpt>
      <trkpt lat="46.99723" lon="-1.82674">
        <ele>46.214347</ele>
        <time>2022-12-17T12:30:08.389Z</time>
      </trkpt>
      <trkpt lat="46.99714" lon="-1.82672">
        <ele>46.137453</ele>
        <time>2022-12-17T12:30:10.385Z</time>
      </trkpt>
      <trkpt lat="46.99701" lon="-1.82669">
        <ele>46.031899</ele>
        <time>2022-12-17T12:30:13.378Z</time>
      </trkpt>
      <trkpt lat="46.99688" lon="-1.82665">
        <ele>45.922026</ele>
        <time>2022-12-17T12:30:16.389Z</time>
      </trkpt>
      <trkpt lat="46.99679" lon="-1.82662">
        <ele>45.846194</ele>
        <time>2022-12-17T12:30:18.386Z</time>
      </trkpt>
      <trkpt lat="46.9967" lon="-1.82658">
        <ele>45.76986</ele>
        <time>2022-12-17T12:30:20.386Z</time>
      </trkpt>
      <trkpt lat="46.9966" lon="-1.82654">
        <ele>45.683235</ele>
        <time>2022-12-17T12:30:22.379Z</time>
      </trkpt>
      <trkpt lat="46.9965" lon="-1.82649">
        <ele>45.600267</ele>
        <time>2022-12-17T12:30:24.393Z</time>
      </trkpt>
      <trkpt lat="46.99641" lon="-1.82642">
        <ele>45.517494</ele>
        <time>2022-12-17T12:30:26.390Z</time>
      </trkpt>
      <trkpt lat="46.99632" lon="-1.82633">
        <ele>45.429239</ele>
        <time>2022-12-17T12:30:28.379Z</time>
      </trkpt>
      <trkpt lat="46.99623" lon="-1.82625">
        <ele>45.341078</ele>
        <time>2022-12-17T12:30:30.391Z</time>
      </trkpt>
      <trkpt lat="46.99614" lon="-1.82617">
        <ele>45.257343</ele>
        <time>2022-12-17T12:30:32.377Z</time>
      </trkpt>
      <trkpt lat="46.99606" lon="-1.8261">
        <ele>45.178812</ele>
        <time>2022-12-17T12:30:34.397Z</time>
      </trkpt>
      <trkpt lat="46.99599" lon="-1.82602">
        <ele>45.105249</ele>
        <time>2022-12-17T12:30:36.396Z</time>
      </trkpt>
      <trkpt lat="46.99589" lon="-1.8259">
        <ele>45.001433</ele>
        <time>2022-12-17T12:30:39.394Z</time>
      </trkpt>
      <trkpt lat="46.99582" lon="-1.82578">
        <ele>44.999879</ele>
        <time>2022-12-17T12:30:42.379Z</time>
      </trkpt>
      <trkpt lat="46.99576" lon="-1.82568">
        <ele>45.006909</ele>
        <time>2022-12-17T12:30:45.376Z</time>
      </trkpt>
      <trkpt lat="46.99568" lon="-1.82555">
        <ele>45.015679</ele>
        <time>2022-12-17T12:30:49.377Z</time>
      </trkpt>
      <trkpt lat="46.99561" lon="-1.82547">
        <ele>45.022445</ele>
        <time>2022-12-17T12:30:52.384Z</time>
      </trkpt>
      <trkpt lat="46.99555" lon="-1.82535">
        <ele>45.029704</ele>
        <time>2022-12-17T12:30:55.379Z</time>
      </trkpt>
      <trkpt lat="46.99551" lon="-1.82522">
        <ele>45.037254</ele>
        <time>2022-12-17T12:30:58.383Z</time>
      </trkpt>
      <trkpt lat="46.99546" lon="-1.82507">
        <ele>45.045939</ele>
        <time>2022-12-17T12:31:02.376Z</time>
      </trkpt>
      <trkpt lat="46.99544" lon="-1.82492">
        <ele>45.053499</ele>
        <time>2022-12-17T12:31:05.384Z</time>
      </trkpt>
      <trkpt lat="46.99541" lon="-1.82477">
        <ele>45.061913</ele>
        <time>2022-12-17T12:31:08.378Z</time>
      </trkpt>
      <trkpt lat="46.99536" lon="-1.82462">
        <ele>45.070159</ele>
        <time>2022-12-17T12:31:11.380Z</time>
      </trkpt>
      <trkpt lat="46.99531" lon="-1.82448">
        <ele>45.078349</ele>
        <time>2022-12-17T12:31:14.382Z</time>
      </trkpt>
      <trkpt lat="46.99526" lon="-1.82433">
        <ele>45.086941</ele>
        <time>2022-12-17T12:31:17.391Z</time>
      </trkpt>
      <trkpt lat="46.99521" lon="-1.82417">
        <ele>45.095943</ele>
        <time>2022-12-17T12:31:20.377Z</time>
      </trkpt>
      <trkpt lat="46.99516" lon="-1.82402">
        <ele>45.104599</ele>
        <time>2022-12-17T12:31:23.400Z</time>
      </trkpt>
      <trkpt lat="46.99511" lon="-1.82387">
        <ele>45.113395</ele>
        <time>2022-12-17T12:31:26.382Z</time>
      </trkpt>
      <trkpt lat="46.99505" lon="-1.82371">
        <ele>45.122327</ele>
        <time>2022-12-17T12:31:29.389Z</time>
      </trkpt>
      <trkpt lat="46.995" lon="-1.82356">
        <ele>45.103086</ele>
        <time>2022-12-17T12:31:32.376Z</time>
      </trkpt>
      <trkpt lat="46.99495" lon="-1.82341">
        <ele>45.034257</ele>
        <time>2022-12-17T12:31:35.398Z</time>
      </trkpt>
      <trkpt lat="46.99491" lon="-1.82327">
        <ele>44.974582</ele>
        <time>2022-12-17T12:31:38.383Z</time>
      </trkpt>
      <trkpt lat="46.99487" lon="-1.82315">
        <ele>44.918699</ele>
        <time>2022-12-17T12:31:41.392Z</time>
      </trkpt>
      <trkpt lat="46.9948" lon="-1.82302">
        <ele>44.852624</ele>
        <time>2022-12-17T12:31:44.383Z</time>
      </trkpt>
      <trkpt lat="46.99474" lon="-1.82287">
        <ele>44.779332</ele>
        <time>2022-12-17T12:31:47.388Z</time>
      </trkpt>
      <trkpt lat="46.99468" lon="-1.82272">
        <ele>44.7053</ele>
        <time>2022-12-17T12:31:50.390Z</time>
      </trkpt>
      <trkpt lat="46.99461" lon="-1.82257">
        <ele>44.631363</ele>
        <time>2022-12-17T12:31:53.394Z</time>
      </trkpt>
      <trkpt lat="46.99456" lon="-1.82244">
        <ele>44.568995</ele>
        <time>2022-12-17T12:31:56.388Z</time>
      </trkpt>
      <trkpt lat="46.99451" lon="-1.82229">
        <ele>44.501003</ele>
        <time>2022-12-17T12:32:00.401Z</time>
      </trkpt>
      <trkpt lat="46.99446" lon="-1.82215">
        <ele>44.437078</ele>
        <time>2022-12-17T12:32:04.373Z</time>
      </trkpt>
      <trkpt lat="46.99442" lon="-1.82203">
        <ele>44.381657</ele>
        <time>2022-12-17T12:32:08.377Z</time>
      </trkpt>
      <trkpt lat="46.99437" lon="-1.82188">
        <ele>44.31412</ele>
        <time>2022-12-17T12:32:12.377Z</time>
      </trkpt>
      <trkpt lat="46.99428" lon="-1.82179">
        <ele>44.247089</ele>
        <time>2022-12-17T12:32:16.386Z</time>
      </trkpt>
      <trkpt lat="46.99419" lon="-1.82179">
        <ele>44.189644</ele>
        <time>2022-12-17T12:32:19.389Z</time>
      </trkpt>
      <trkpt lat="46.99408" lon="-1.82182">
        <ele>44.124468</ele>
        <time>2022-12-17T12:32:22.374Z</time>
      </trkpt>
      <trkpt lat="46.99396" lon="-1.82186">
        <ele>44.051264</ele>
        <time>2022-12-17T12:32:25.389Z</time>
      </trkpt>
      <trkpt lat="46.99385" lon="-1.8219">
        <ele>44.074446</ele>
        <time>2022-12-17T12:32:28.379Z</time>
      </trkpt>
      <trkpt lat="46.99374" lon="-1.82193">
        <ele>44.110954</ele>
        <time>2022-12-17T12:32:31.388Z</time>
      </trkpt>
      <trkpt lat="46.99362" lon="-1.82196">
        <ele>44.150026</ele>
        <time>2022-12-17T12:32:34.386Z</time>
      </trkpt>
      <trkpt lat="46.99351" lon="-1.82197">
        <ele>44.184335</ele>
        <time>2022-12-17T12:32:37.388Z</time>
      </trkpt>
      <trkpt lat="46.9934" lon="-1.82201">
        <ele>44.221754</ele>
        <time>2022-12-17T12:32:40.383Z</time>
      </trkpt>
      <trkpt lat="46.99328" lon="-1.82204">
        <ele>44.26211</ele>
        <time>2022-12-17T12:32:43.392Z</time>
      </trkpt>
      <trkpt lat="46.99316" lon="-1.82206">
        <ele>44.302496</ele>
        <time>2022-12-17T12:32:46.387Z</time>
      </trkpt>
      <trkpt lat="46.99305" lon="-1.82209">
        <ele>44.338454</ele>
        <time>2022-12-17T12:32:49.385Z</time>
      </trkpt>
      <trkpt lat="46.99296" lon="-1.82213">
        <ele>44.369488</ele>
        <time>2022-12-17T12:32:52.379Z</time>
      </trkpt>
      <trkpt lat="46.99284" lon="-1.82215">
        <ele>44.408379</ele>
        <time>2022-12-17T12:32:56.383Z</time>
      </trkpt>
      <trkpt lat="46.99273" lon="-1.82217">
        <ele>44.444777</ele>
        <time>2022-12-17T12:32:59.394Z</time>
      </trkpt>
      <trkpt lat="46.99262" lon="-1.82219">
        <ele>44.480992</ele>
        <time>2022-12-17T12:33:02.375Z</time>
      </trkpt>
      <trkpt lat="46.9925" lon="-1.82222">
        <ele>44.519174</ele>
        <time>2022-12-17T12:33:05.397Z</time>
      </trkpt>
      <trkpt lat="46.99238" lon="-1.82223">
        <ele>44.558102</ele>
        <time>2022-12-17T12:33:08.397Z</time>
      </trkpt>
      <trkpt lat="46.99226" lon="-1.82225">
        <ele>44.599135</ele>
        <time>2022-12-17T12:33:11.389Z</time>
      </trkpt>
      <trkpt lat="46.99213" lon="-1.82228">
        <ele>44.631527</ele>
        <time>2022-12-17T12:33:14.410Z</time>
      </trkpt>
      <trkpt lat="46.99201" lon="-1.8223">
        <ele>44.644329</ele>
        <time>2022-12-17T12:33:17.385Z</time>
      </trkpt>
      <trkpt lat="46.99189" lon="-1.82232">
        <ele>44.656574</ele>
        <time>2022-12-17T12:33:20.375Z</time>
      </trkpt>
      <trkpt lat="46.99177" lon="-1.82235">
        <ele>44.668505</ele>
        <time>2022-12-17T12:33:23.378Z</time>
      </trkpt>
      <trkpt lat="46.99167" lon="-1.82236">
        <ele>44.679338</ele>
        <time>2022-12-17T12:33:26.399Z</time>
      </trkpt>
      <trkpt lat="46.99157" lon="-1.82238">
        <ele>44.689245</ele>
        <time>2022-12-17T12:33:29.391Z</time>
      </trkpt>
      <trkpt lat="46.99148" lon="-1.8224">
        <ele>44.698936</ele>
        <time>2022-12-17T12:33:32.374Z</time>
      </trkpt>
      <trkpt lat="46.99138" lon="-1.82244">
        <ele>44.709276</ele>
        <time>2022-12-17T12:33:35.381Z</time>
      </trkpt>
      <trkpt lat="46.99128" lon="-1.82248">
        <ele>44.720242</ele>
        <time>2022-12-17T12:33:38.396Z</time>
      </trkpt>
      <trkpt lat="46.99119" lon="-1.82251">
        <ele>44.729684</ele>
        <time>2022-12-17T12:33:41.389Z</time>
      </trkpt>
      <trkpt lat="46.99108" lon="-1.82256">
        <ele>44.741296</ele>
        <time>2022-12-17T12:33:45.386Z</time>
      </trkpt>
      <trkpt lat="46.99099" lon="-1.8226">
        <ele>44.751124</ele>
        <time>2022-12-17T12:33:49.387Z</time>
      </trkpt>
      <trkpt lat="46.99094" lon="-1.82246">
        <ele>44.762455</ele>
        <time>2022-12-17T12:33:54.390Z</time>
      </trkpt>
      <trkpt lat="46.99093" lon="-1.8223">
        <ele>44.773307</ele>
        <time>2022-12-17T12:33:57.376Z</time>
      </trkpt>
      <trkpt lat="46.99093" lon="-1.82215">
        <ele>44.784056</ele>
        <time>2022-12-17T12:34:00.388Z</time>
      </trkpt>
      <trkpt lat="46.99091" lon="-1.82199">
        <ele>44.795223</ele>
        <time>2022-12-17T12:34:03.390Z</time>
      </trkpt>
      <trkpt lat="46.9909" lon="-1.82183">
        <ele>44.80667</ele>
        <time>2022-12-17T12:34:06.395Z</time>
      </trkpt>
      <trkpt lat="46.99089" lon="-1.82166">
        <ele>44.780866</ele>
        <time>2022-12-17T12:34:09.378Z</time>
      </trkpt>
      <trkpt lat="46.99088" lon="-1.8215">
        <ele>44.726819</ele>
        <time>2022-12-17T12:34:12.378Z</time>
      </trkpt>
      <trkpt lat="46.99085" lon="-1.82133">
        <ele>44.669646</ele>
        <time>2022-12-17T12:34:15.387Z</time>
      </trkpt>
      <trkpt lat="46.99083" lon="-1.82116">
        <ele>44.61141</ele>
        <time>2022-12-17T12:34:18.394Z</time>
      </trkpt>
      <trkpt lat="46.9908" lon="-1.82098">
        <ele>44.551882</ele>
        <time>2022-12-17T12:34:21.392Z</time>
      </trkpt>
      <trkpt lat="46.9908" lon="-1.8208">
        <ele>44.491285</ele>
        <time>2022-12-17T12:34:24.384Z</time>
      </trkpt>
      <trkpt lat="46.99081" lon="-1.82062">
        <ele>44.432238</ele>
        <time>2022-12-17T12:34:27.387Z</time>
      </trkpt>
      <trkpt lat="46.99082" lon="-1.82043">
        <ele>44.372176</ele>
        <time>2022-12-17T12:34:30.384Z</time>
      </trkpt>
      <trkpt lat="46.99083" lon="-1.82025">
        <ele>44.310975</ele>
        <time>2022-12-17T12:34:33.386Z</time>
      </trkpt>
      <trkpt lat="46.99084" lon="-1.82007">
        <ele>44.250146</ele>
        <time>2022-12-17T12:34:36.383Z</time>
      </trkpt>
      <trkpt lat="46.99086" lon="-1.8199">
        <ele>44.195841</ele>
        <time>2022-12-17T12:34:39.394Z</time>
      </trkpt>
      <trkpt lat="46.99086" lon="-1.81976">
        <ele>44.149036</ele>
        <time>2022-12-17T12:34:42.376Z</time>
      </trkpt>
      <trkpt lat="46.99087" lon="-1.81963">
        <ele>44.10497</ele>
        <time>2022-12-17T12:34:45.384Z</time>
      </trkpt>
      <trkpt lat="46.99089" lon="-1.81948">
        <ele>44.056345</ele>
        <time>2022-12-17T12:34:48.388Z</time>
      </trkpt>
      <trkpt lat="46.9909" lon="-1.81932">
        <ele>44.003184</ele>
        <time>2022-12-17T12:34:51.382Z</time>
      </trkpt>
      <trkpt lat="46.99092" lon="-1.81916">
        <ele>43.948228</ele>
        <time>2022-12-17T12:34:54.397Z</time>
      </trkpt>
      <trkpt lat="46.99094" lon="-1.81899">
        <ele>43.942754</ele>
        <time>2022-12-17T12:34:57.386Z</time>
      </trkpt>
      <trkpt lat="46.99096" lon="-1.81882">
        <ele>43.941987</ele>
        <time>2022-12-17T12:35:00.382Z</time>
      </trkpt>
      <trkpt lat="46.991" lon="-1.81866">
        <ele>43.941262</ele>
        <time>2022-12-17T12:35:03.395Z</time>
      </trkpt>
      <trkpt lat="46.99104" lon="-1.8185">
        <ele>43.940514</ele>
        <time>2022-12-17T12:35:06.397Z</time>
      </trkpt>
      <trkpt lat="46.99109" lon="-1.81834">
        <ele>43.939742</ele>
        <time>2022-12-17T12:35:09.378Z</time>
      </trkpt>
      <trkpt lat="46.99114" lon="-1.81819">
        <ele>43.939028</ele>
        <time>2022-12-17T12:35:12.381Z</time>
      </trkpt>
      <trkpt lat="46.99121" lon="-1.81806">
        <ele>43.938292</ele>
        <time>2022-12-17T12:35:15.387Z</time>
      </trkpt>
      <trkpt lat="46.9913" lon="-1.81795">
        <ele>43.937542</ele>
        <time>2022-12-17T12:35:18.377Z</time>
      </trkpt>
      <trkpt lat="46.99139" lon="-1.81783">
        <ele>43.936744</ele>
        <time>2022-12-17T12:35:21.388Z</time>
      </trkpt>
      <trkpt lat="46.99148" lon="-1.81771">
        <ele>43.935955</ele>
        <time>2022-12-17T12:35:24.389Z</time>
      </trkpt>
      <trkpt lat="46.99157" lon="-1.81759">
        <ele>43.935184</ele>
        <time>2022-12-17T12:35:27.389Z</time>
      </trkpt>
      <trkpt lat="46.99166" lon="-1.81748">
        <ele>43.934454</ele>
        <time>2022-12-17T12:35:30.385Z</time>
      </trkpt>
      <trkpt lat="46.99173" lon="-1.81739">
        <ele>43.933834</ele>
        <time>2022-12-17T12:35:33.394Z</time>
      </trkpt>
      <trkpt lat="46.99181" lon="-1.81731">
        <ele>43.933255</ele>
        <time>2022-12-17T12:35:36.385Z</time>
      </trkpt>
      <trkpt lat="46.99189" lon="-1.81719">
        <ele>43.932518</ele>
        <time>2022-12-17T12:35:40.379Z</time>
      </trkpt>
      <trkpt lat="46.99187" lon="-1.81702">
        <ele>43.941516</ele>
        <time>2022-12-17T12:35:44.382Z</time>
      </trkpt>
      <trkpt lat="46.99178" lon="-1.81692">
        <ele>43.992053</ele>
        <time>2022-12-17T12:35:47.388Z</time>
      </trkpt>
      <trkpt lat="46.99168" lon="-1.81681">
        <ele>44.047143</ele>
        <time>2022-12-17T12:35:50.395Z</time>
      </trkpt>
      <trkpt lat="46.99159" lon="-1.81671">
        <ele>44.102414</ele>
        <time>2022-12-17T12:35:53.396Z</time>
      </trkpt>
      <trkpt lat="46.99149" lon="-1.81661">
        <ele>44.1557</ele>
        <time>2022-12-17T12:35:56.393Z</time>
      </trkpt>
      <trkpt lat="46.9914" lon="-1.81651">
        <ele>44.207148</ele>
        <time>2022-12-17T12:35:59.396Z</time>
      </trkpt>
      <trkpt lat="46.9913" lon="-1.81642">
        <ele>44.258101</ele>
        <time>2022-12-17T12:36:02.377Z</time>
      </trkpt>
      <trkpt lat="46.99121" lon="-1.81633">
        <ele>44.307717</ele>
        <time>2022-12-17T12:36:05.399Z</time>
      </trkpt>
      <trkpt lat="46.99113" lon="-1.81625">
        <ele>44.35429</ele>
        <time>2022-12-17T12:36:08.383Z</time>
      </trkpt>
      <trkpt lat="46.99103" lon="-1.81615">
        <ele>44.407204</ele>
        <time>2022-12-17T12:36:12.375Z</time>
      </trkpt>
      <trkpt lat="46.99092" lon="-1.81609">
        <ele>44.460203</ele>
        <time>2022-12-17T12:36:16.388Z</time>
      </trkpt>
      <trkpt lat="46.99083" lon="-1.81603">
        <ele>44.505087</ele>
        <time>2022-12-17T12:36:19.381Z</time>
      </trkpt>
      <trkpt lat="46.99074" lon="-1.81597">
        <ele>44.551553</ele>
        <time>2022-12-17T12:36:22.378Z</time>
      </trkpt>
      <trkpt lat="46.99063" lon="-1.8159">
        <ele>44.603601</ele>
        <time>2022-12-17T12:36:26.381Z</time>
      </trkpt>
      <trkpt lat="46.99055" lon="-1.81583">
        <ele>44.647154</ele>
        <time>2022-12-17T12:36:30.388Z</time>
      </trkpt>
      <trkpt lat="46.99046" lon="-1.81576">
        <ele>44.693216</ele>
        <time>2022-12-17T12:36:36.383Z</time>
      </trkpt>
      <trkpt lat="46.99033" lon="-1.81574">
        <ele>44.748341</ele>
        <time>2022-12-17T12:36:40.393Z</time>
      </trkpt>
      <trkpt lat="46.99023" lon="-1.81572">
        <ele>44.789074</ele>
        <time>2022-12-17T12:36:43.390Z</time>
      </trkpt>
      <trkpt lat="46.99012" lon="-1.81568">
        <ele>44.832164</ele>
        <time>2022-12-17T12:36:46.382Z</time>
      </trkpt>
      <trkpt lat="46.99" lon="-1.81565">
        <ele>44.878363</ele>
        <time>2022-12-17T12:36:49.387Z</time>
      </trkpt>
      <trkpt lat="46.98988" lon="-1.81561">
        <ele>44.926281</ele>
        <time>2022-12-17T12:36:52.377Z</time>
      </trkpt>
      <trkpt lat="46.98975" lon="-1.81556">
        <ele>44.975753</ele>
        <time>2022-12-17T12:36:55.389Z</time>
      </trkpt>
      <trkpt lat="46.98966" lon="-1.81552">
        <ele>45.012193</ele>
        <time>2022-12-17T12:36:57.383Z</time>
      </trkpt>
      <trkpt lat="46.98958" lon="-1.81547">
        <ele>45.048183</ele>
        <time>2022-12-17T12:36:59.395Z</time>
      </trkpt>
      <trkpt lat="46.98949" lon="-1.81542">
        <ele>45.085252</ele>
        <time>2022-12-17T12:37:01.383Z</time>
      </trkpt>
      <trkpt lat="46.98939" lon="-1.81536">
        <ele>45.123827</ele>
        <time>2022-12-17T12:37:03.390Z</time>
      </trkpt>
      <trkpt lat="46.9893" lon="-1.8153">
        <ele>45.161263</ele>
        <time>2022-12-17T12:37:05.385Z</time>
      </trkpt>
      <trkpt lat="46.98921" lon="-1.81524">
        <ele>45.199859</ele>
        <time>2022-12-17T12:37:07.377Z</time>
      </trkpt>
      <trkpt lat="46.98912" lon="-1.81518">
        <ele>45.238892</ele>
        <time>2022-12-17T12:37:09.393Z</time>
      </trkpt>
      <trkpt lat="46.98903" lon="-1.81511">
        <ele>45.278611</ele>
        <time>2022-12-17T12:37:11.390Z</time>
      </trkpt>
      <trkpt lat="46.98893" lon="-1.81505">
        <ele>45.317986</ele>
        <time>2022-12-17T12:37:13.377Z</time>
      </trkpt>
      <trkpt lat="46.98885" lon="-1.81498">
        <ele>45.356153</ele>
        <time>2022-12-17T12:37:15.382Z</time>
      </trkpt>
      <trkpt lat="46.98876" lon="-1.81492">
        <ele>45.393353</ele>
        <time>2022-12-17T12:37:17.393Z</time>
      </trkpt>
      <trkpt lat="46.98868" lon="-1.81485">
        <ele>45.429002</ele>
        <time>2022-12-17T12:37:19.395Z</time>
      </trkpt>
      <trkpt lat="46.9886" lon="-1.81478">
        <ele>45.463631</ele>
        <time>2022-12-17T12:37:21.390Z</time>
      </trkpt>
      <trkpt lat="46.98852" lon="-1.81472">
        <ele>45.497261</ele>
        <time>2022-12-17T12:37:23.389Z</time>
      </trkpt>
      <trkpt lat="46.98843" lon="-1.81466">
        <ele>45.532776</ele>
        <time>2022-12-17T12:37:25.383Z</time>
      </trkpt>
      <trkpt lat="46.98834" lon="-1.81459">
        <ele>45.569404</ele>
        <time>2022-12-17T12:37:27.386Z</time>
      </trkpt>
      <trkpt lat="46.98825" lon="-1.81452">
        <ele>45.609261</ele>
        <time>2022-12-17T12:37:29.388Z</time>
      </trkpt>
      <trkpt lat="46.98815" lon="-1.81446">
        <ele>45.64801</ele>
        <time>2022-12-17T12:37:31.388Z</time>
      </trkpt>
      <trkpt lat="46.98806" lon="-1.81439">
        <ele>45.685739</ele>
        <time>2022-12-17T12:37:33.386Z</time>
      </trkpt>
      <trkpt lat="46.98797" lon="-1.81432">
        <ele>45.723912</ele>
        <time>2022-12-17T12:37:35.388Z</time>
      </trkpt>
      <trkpt lat="46.98788" lon="-1.81425">
        <ele>45.761545</ele>
        <time>2022-12-17T12:37:37.396Z</time>
      </trkpt>
      <trkpt lat="46.98779" lon="-1.81418">
        <ele>45.799048</ele>
        <time>2022-12-17T12:37:39.391Z</time>
      </trkpt>
      <trkpt lat="46.98769" lon="-1.81411">
        <ele>45.839767</ele>
        <time>2022-12-17T12:37:41.397Z</time>
      </trkpt>
      <trkpt lat="46.9876" lon="-1.81404">
        <ele>45.878384</ele>
        <time>2022-12-17T12:37:43.387Z</time>
      </trkpt>
      <trkpt lat="46.9875" lon="-1.81397">
        <ele>45.915999</ele>
        <time>2022-12-17T12:37:45.396Z</time>
      </trkpt>
      <trkpt lat="46.98741" lon="-1.8139">
        <ele>45.955411</ele>
        <time>2022-12-17T12:37:47.381Z</time>
      </trkpt>
      <trkpt lat="46.98732" lon="-1.81383">
        <ele>45.99413</ele>
        <time>2022-12-17T12:37:49.382Z</time>
      </trkpt>
      <trkpt lat="46.98722" lon="-1.81375">
        <ele>46.034029</ele>
        <time>2022-12-17T12:37:51.400Z</time>
      </trkpt>
      <trkpt lat="46.98713" lon="-1.81368">
        <ele>46.072996</ele>
        <time>2022-12-17T12:37:53.394Z</time>
      </trkpt>
      <trkpt lat="46.98704" lon="-1.81361">
        <ele>46.100706</ele>
        <time>2022-12-17T12:37:55.384Z</time>
      </trkpt>
      <trkpt lat="46.98695" lon="-1.81354">
        <ele>46.105658</ele>
        <time>2022-12-17T12:37:57.389Z</time>
      </trkpt>
      <trkpt lat="46.98686" lon="-1.81347">
        <ele>46.110656</ele>
        <time>2022-12-17T12:37:59.388Z</time>
      </trkpt>
      <trkpt lat="46.98676" lon="-1.81341">
        <ele>46.11545</ele>
        <time>2022-12-17T12:38:01.382Z</time>
      </trkpt>
      <trkpt lat="46.98668" lon="-1.81335">
        <ele>46.120072</ele>
        <time>2022-12-17T12:38:03.386Z</time>
      </trkpt>
      <trkpt lat="46.9866" lon="-1.81329">
        <ele>46.124408</ele>
        <time>2022-12-17T12:38:05.384Z</time>
      </trkpt>
      <trkpt lat="46.98649" lon="-1.8132">
        <ele>46.130443</ele>
        <time>2022-12-17T12:38:08.394Z</time>
      </trkpt>
      <trkpt lat="46.98638" lon="-1.81311">
        <ele>46.136311</ele>
        <time>2022-12-17T12:38:11.382Z</time>
      </trkpt>
      <trkpt lat="46.98626" lon="-1.81303">
        <ele>46.14232</ele>
        <time>2022-12-17T12:38:14.390Z</time>
      </trkpt>
      <trkpt lat="46.98615" lon="-1.81294">
        <ele>46.148419</ele>
        <time>2022-12-17T12:38:17.395Z</time>
      </trkpt>
      <trkpt lat="46.98604" lon="-1.81286">
        <ele>46.154529</ele>
        <time>2022-12-17T12:38:20.374Z</time>
      </trkpt>
      <trkpt lat="46.98592" lon="-1.81276">
        <ele>46.160785</ele>
        <time>2022-12-17T12:38:23.378Z</time>
      </trkpt>
      <trkpt lat="46.98581" lon="-1.81267">
        <ele>46.167156</ele>
        <time>2022-12-17T12:38:26.392Z</time>
      </trkpt>
      <trkpt lat="46.98569" lon="-1.81259">
        <ele>46.173353</ele>
        <time>2022-12-17T12:38:29.398Z</time>
      </trkpt>
      <trkpt lat="46.98557" lon="-1.81251">
        <ele>46.179608</ele>
        <time>2022-12-17T12:38:32.382Z</time>
      </trkpt>
      <trkpt lat="46.98546" lon="-1.81243">
        <ele>46.186701</ele>
        <time>2022-12-17T12:38:35.387Z</time>
      </trkpt>
      <trkpt lat="46.98536" lon="-1.81237">
        <ele>46.265258</ele>
        <time>2022-12-17T12:38:38.377Z</time>
      </trkpt>
      <trkpt lat="46.98524" lon="-1.81234">
        <ele>46.346666</ele>
        <time>2022-12-17T12:38:41.388Z</time>
      </trkpt>
      <trkpt lat="46.98513" lon="-1.81233">
        <ele>46.42218</ele>
        <time>2022-12-17T12:38:44.379Z</time>
      </trkpt>
      <trkpt lat="46.98505" lon="-1.81222">
        <ele>46.500267</ele>
        <time>2022-12-17T12:38:47.379Z</time>
      </trkpt>
      <trkpt lat="46.98497" lon="-1.81209">
        <ele>46.581298</ele>
        <time>2022-12-17T12:38:50.381Z</time>
      </trkpt>
      <trkpt lat="46.98488" lon="-1.81198">
        <ele>46.661421</ele>
        <time>2022-12-17T12:38:53.398Z</time>
      </trkpt>
      <trkpt lat="46.98478" lon="-1.81189">
        <ele>46.74557</ele>
        <time>2022-12-17T12:38:56.384Z</time>
      </trkpt>
      <trkpt lat="46.98466" lon="-1.81182">
        <ele>46.833424</ele>
        <time>2022-12-17T12:38:59.388Z</time>
      </trkpt>
      <trkpt lat="46.98454" lon="-1.81173">
        <ele>46.923305</ele>
        <time>2022-12-17T12:39:02.378Z</time>
      </trkpt>
      <trkpt lat="46.98442" lon="-1.81165">
        <ele>47.014629</ele>
        <time>2022-12-17T12:39:05.394Z</time>
      </trkpt>
      <trkpt lat="46.9843" lon="-1.81156">
        <ele>47.107826</ele>
        <time>2022-12-17T12:39:08.394Z</time>
      </trkpt>
      <trkpt lat="46.98422" lon="-1.8115">
        <ele>47.171622</ele>
        <time>2022-12-17T12:39:10.391Z</time>
      </trkpt>
      <trkpt lat="46.98414" lon="-1.81144">
        <ele>47.234576</ele>
        <time>2022-12-17T12:39:12.380Z</time>
      </trkpt>
      <trkpt lat="46.98402" lon="-1.81135">
        <ele>47.327994</ele>
        <time>2022-12-17T12:39:15.387Z</time>
      </trkpt>
      <trkpt lat="46.98394" lon="-1.81129">
        <ele>47.392228</ele>
        <time>2022-12-17T12:39:17.385Z</time>
      </trkpt>
      <trkpt lat="46.98382" lon="-1.8112">
        <ele>47.464152</ele>
        <time>2022-12-17T12:39:20.384Z</time>
      </trkpt>
      <trkpt lat="46.98373" lon="-1.81114">
        <ele>47.502435</ele>
        <time>2022-12-17T12:39:22.378Z</time>
      </trkpt>
      <trkpt lat="46.98362" lon="-1.81105">
        <ele>47.557611</ele>
        <time>2022-12-17T12:39:25.382Z</time>
      </trkpt>
      <trkpt lat="46.98352" lon="-1.81097">
        <ele>47.603365</ele>
        <time>2022-12-17T12:39:28.380Z</time>
      </trkpt>
      <trkpt lat="46.98343" lon="-1.81091">
        <ele>47.64886</ele>
        <time>2022-12-17T12:39:31.387Z</time>
      </trkpt>
      <trkpt lat="46.98332" lon="-1.81083">
        <ele>47.699023</ele>
        <time>2022-12-17T12:39:34.378Z</time>
      </trkpt>
      <trkpt lat="46.98321" lon="-1.81074">
        <ele>47.750705</ele>
        <time>2022-12-17T12:39:37.387Z</time>
      </trkpt>
      <trkpt lat="46.9831" lon="-1.81066">
        <ele>47.804152</ele>
        <time>2022-12-17T12:39:40.390Z</time>
      </trkpt>
      <trkpt lat="46.98298" lon="-1.81057">
        <ele>47.859625</ele>
        <time>2022-12-17T12:39:43.380Z</time>
      </trkpt>
      <trkpt lat="46.98286" lon="-1.81049">
        <ele>47.915088</ele>
        <time>2022-12-17T12:39:46.390Z</time>
      </trkpt>
      <trkpt lat="46.98274" lon="-1.8104">
        <ele>47.971443</ele>
        <time>2022-12-17T12:39:49.384Z</time>
      </trkpt>
      <trkpt lat="46.98263" lon="-1.81031">
        <ele>48.02615</ele>
        <time>2022-12-17T12:39:52.377Z</time>
      </trkpt>
      <trkpt lat="46.98251" lon="-1.81023">
        <ele>48.082246</ele>
        <time>2022-12-17T12:39:55.383Z</time>
      </trkpt>
      <trkpt lat="46.98243" lon="-1.81016">
        <ele>48.121808</ele>
        <time>2022-12-17T12:39:57.391Z</time>
      </trkpt>
      <trkpt lat="46.98235" lon="-1.8101">
        <ele>48.160117</ele>
        <time>2022-12-17T12:39:59.390Z</time>
      </trkpt>
      <trkpt lat="46.98223" lon="-1.81001">
        <ele>48.291404</ele>
        <time>2022-12-17T12:40:02.375Z</time>
      </trkpt>
      <trkpt lat="46.98215" lon="-1.80995">
        <ele>48.432368</ele>
        <time>2022-12-17T12:40:04.390Z</time>
      </trkpt>
      <trkpt lat="46.98204" lon="-1.80987">
        <ele>48.627845</ele>
        <time>2022-12-17T12:40:07.389Z</time>
      </trkpt>
      <trkpt lat="46.98193" lon="-1.80979">
        <ele>48.807471</ele>
        <time>2022-12-17T12:40:10.393Z</time>
      </trkpt>
      <trkpt lat="46.98183" lon="-1.80973">
        <ele>48.978304</ele>
        <time>2022-12-17T12:40:13.378Z</time>
      </trkpt>
      <trkpt lat="46.98174" lon="-1.80965">
        <ele>49.142636</ele>
        <time>2022-12-17T12:40:16.390Z</time>
      </trkpt>
      <trkpt lat="46.98164" lon="-1.80958">
        <ele>49.311526</ele>
        <time>2022-12-17T12:40:19.391Z</time>
      </trkpt>
      <trkpt lat="46.98154" lon="-1.8095">
        <ele>49.487979</ele>
        <time>2022-12-17T12:40:22.378Z</time>
      </trkpt>
      <trkpt lat="46.98144" lon="-1.80943">
        <ele>49.663418</ele>
        <time>2022-12-17T12:40:25.402Z</time>
      </trkpt>
      <trkpt lat="46.98134" lon="-1.80937">
        <ele>49.841804</ele>
        <time>2022-12-17T12:40:28.397Z</time>
      </trkpt>
      <trkpt lat="46.98123" lon="-1.80931">
        <ele>50.019511</ele>
        <time>2022-12-17T12:40:31.385Z</time>
      </trkpt>
      <trkpt lat="46.98113" lon="-1.80926">
        <ele>50.184056</ele>
        <time>2022-12-17T12:40:34.384Z</time>
      </trkpt>
      <trkpt lat="46.98104" lon="-1.8092">
        <ele>50.337272</ele>
        <time>2022-12-17T12:40:37.390Z</time>
      </trkpt>
      <trkpt lat="46.98094" lon="-1.80915">
        <ele>50.495993</ele>
        <time>2022-12-17T12:40:40.388Z</time>
      </trkpt>
      <trkpt lat="46.98084" lon="-1.8091">
        <ele>50.659453</ele>
        <time>2022-12-17T12:40:43.389Z</time>
      </trkpt>
      <trkpt lat="46.98074" lon="-1.80905">
        <ele>50.826006</ele>
        <time>2022-12-17T12:40:46.415Z</time>
      </trkpt>
      <trkpt lat="46.98064" lon="-1.80901">
        <ele>50.98887</ele>
        <time>2022-12-17T12:40:49.389Z</time>
      </trkpt>
      <trkpt lat="46.98054" lon="-1.80896">
        <ele>50.970057</ele>
        <time>2022-12-17T12:40:52.376Z</time>
      </trkpt>
      <trkpt lat="46.98044" lon="-1.80892">
        <ele>50.950551</ele>
        <time>2022-12-17T12:40:55.378Z</time>
      </trkpt>
      <trkpt lat="46.98033" lon="-1.80887">
        <ele>50.929983</ele>
        <time>2022-12-17T12:40:58.384Z</time>
      </trkpt>
      <trkpt lat="46.98021" lon="-1.80882">
        <ele>50.907882</ele>
        <time>2022-12-17T12:41:01.391Z</time>
      </trkpt>
      <trkpt lat="46.98009" lon="-1.80876">
        <ele>50.884731</ele>
        <time>2022-12-17T12:41:04.382Z</time>
      </trkpt>
      <trkpt lat="46.97996" lon="-1.8087">
        <ele>50.860075</ele>
        <time>2022-12-17T12:41:07.390Z</time>
      </trkpt>
      <trkpt lat="46.97987" lon="-1.80867">
        <ele>50.84323</ele>
        <time>2022-12-17T12:41:09.392Z</time>
      </trkpt>
      <trkpt lat="46.97979" lon="-1.80863">
        <ele>50.826245</ele>
        <time>2022-12-17T12:41:11.396Z</time>
      </trkpt>
      <trkpt lat="46.9797" lon="-1.80859">
        <ele>50.809224</ele>
        <time>2022-12-17T12:41:13.386Z</time>
      </trkpt>
      <trkpt lat="46.97957" lon="-1.80853">
        <ele>50.785997</ele>
        <time>2022-12-17T12:41:16.396Z</time>
      </trkpt>
      <trkpt lat="46.97946" lon="-1.80849">
        <ele>50.764696</ele>
        <time>2022-12-17T12:41:19.395Z</time>
      </trkpt>
      <trkpt lat="46.97935" lon="-1.80846">
        <ele>50.744006</ele>
        <time>2022-12-17T12:41:22.375Z</time>
      </trkpt>
      <trkpt lat="46.97923" lon="-1.80842">
        <ele>50.721553</ele>
        <time>2022-12-17T12:41:25.380Z</time>
      </trkpt>
      <trkpt lat="46.9791" lon="-1.80837">
        <ele>50.697507</ele>
        <time>2022-12-17T12:41:28.381Z</time>
      </trkpt>
      <trkpt lat="46.97898" lon="-1.80833">
        <ele>50.674136</ele>
        <time>2022-12-17T12:41:31.393Z</time>
      </trkpt>
      <trkpt lat="46.97886" lon="-1.80828">
        <ele>50.612751</ele>
        <time>2022-12-17T12:41:34.389Z</time>
      </trkpt>
      <trkpt lat="46.97873" lon="-1.80823">
        <ele>50.49482</ele>
        <time>2022-12-17T12:41:37.392Z</time>
      </trkpt>
      <trkpt lat="46.97864" lon="-1.80821">
        <ele>50.408186</ele>
        <time>2022-12-17T12:41:39.390Z</time>
      </trkpt>
      <trkpt lat="46.97854" lon="-1.80819">
        <ele>50.318272</ele>
        <time>2022-12-17T12:41:41.385Z</time>
      </trkpt>
      <trkpt lat="46.97845" lon="-1.80816">
        <ele>50.231753</ele>
        <time>2022-12-17T12:41:43.383Z</time>
      </trkpt>
      <trkpt lat="46.97835" lon="-1.80814">
        <ele>50.136319</ele>
        <time>2022-12-17T12:41:45.400Z</time>
      </trkpt>
      <trkpt lat="46.97824" lon="-1.80813">
        <ele>50.037397</ele>
        <time>2022-12-17T12:41:47.379Z</time>
      </trkpt>
      <trkpt lat="46.97813" lon="-1.80811">
        <ele>49.938913</ele>
        <time>2022-12-17T12:41:49.399Z</time>
      </trkpt>
      <trkpt lat="46.97803" lon="-1.8081">
        <ele>49.843157</ele>
        <time>2022-12-17T12:41:51.400Z</time>
      </trkpt>
      <trkpt lat="46.97793" lon="-1.80809">
        <ele>49.749614</ele>
        <time>2022-12-17T12:41:53.397Z</time>
      </trkpt>
      <trkpt lat="46.97783" lon="-1.8081">
        <ele>49.661271</ele>
        <time>2022-12-17T12:41:55.391Z</time>
      </trkpt>
      <trkpt lat="46.97773" lon="-1.80811">
        <ele>49.572246</ele>
        <time>2022-12-17T12:41:57.380Z</time>
      </trkpt>
      <trkpt lat="46.9776" lon="-1.80813">
        <ele>49.447952</ele>
        <time>2022-12-17T12:42:00.387Z</time>
      </trkpt>
      <trkpt lat="46.9775" lon="-1.80815">
        <ele>49.354774</ele>
        <time>2022-12-17T12:42:02.381Z</time>
      </trkpt>
      <trkpt lat="46.97739" lon="-1.80816">
        <ele>49.260227</ele>
        <time>2022-12-17T12:42:04.396Z</time>
      </trkpt>
      <trkpt lat="46.97729" lon="-1.80818">
        <ele>49.165309</ele>
        <time>2022-12-17T12:42:06.408Z</time>
      </trkpt>
      <trkpt lat="46.97719" lon="-1.8082">
        <ele>49.069743</ele>
        <time>2022-12-17T12:42:08.381Z</time>
      </trkpt>
      <trkpt lat="46.97708" lon="-1.80822">
        <ele>48.985078</ele>
        <time>2022-12-17T12:42:10.380Z</time>
      </trkpt>
      <trkpt lat="46.97698" lon="-1.80824">
        <ele>48.920501</ele>
        <time>2022-12-17T12:42:12.390Z</time>
      </trkpt>
      <trkpt lat="46.97688" lon="-1.80826">
        <ele>48.854433</ele>
        <time>2022-12-17T12:42:14.396Z</time>
      </trkpt>
      <trkpt lat="46.97677" lon="-1.80828">
        <ele>48.786911</ele>
        <time>2022-12-17T12:42:16.409Z</time>
      </trkpt>
      <trkpt lat="46.97666" lon="-1.8083">
        <ele>48.717609</ele>
        <time>2022-12-17T12:42:18.395Z</time>
      </trkpt>
      <trkpt lat="46.97656" lon="-1.80832">
        <ele>48.652021</ele>
        <time>2022-12-17T12:42:20.394Z</time>
      </trkpt>
      <trkpt lat="46.97646" lon="-1.80834">
        <ele>48.586684</ele>
        <time>2022-12-17T12:42:22.380Z</time>
      </trkpt>
      <trkpt lat="46.97636" lon="-1.80836">
        <ele>48.522546</ele>
        <time>2022-12-17T12:42:24.389Z</time>
      </trkpt>
      <trkpt lat="46.97627" lon="-1.80838">
        <ele>48.465157</ele>
        <time>2022-12-17T12:42:26.387Z</time>
      </trkpt>
      <trkpt lat="46.97613" lon="-1.8084">
        <ele>48.380829</ele>
        <time>2022-12-17T12:42:29.393Z</time>
      </trkpt>
      <trkpt lat="46.97601" lon="-1.80843">
        <ele>48.303367</ele>
        <time>2022-12-17T12:42:32.380Z</time>
      </trkpt>
      <trkpt lat="46.97589" lon="-1.80846">
        <ele>48.227352</ele>
        <time>2022-12-17T12:42:35.400Z</time>
      </trkpt>
      <trkpt lat="46.97577" lon="-1.80849">
        <ele>48.145315</ele>
        <time>2022-12-17T12:42:38.411Z</time>
      </trkpt>
      <trkpt lat="46.97564" lon="-1.80851">
        <ele>48.063485</ele>
        <time>2022-12-17T12:42:41.388Z</time>
      </trkpt>
      <trkpt lat="46.97551" lon="-1.80853">
        <ele>47.982688</ele>
        <time>2022-12-17T12:42:44.377Z</time>
      </trkpt>
      <trkpt lat="46.97539" lon="-1.80855">
        <ele>47.907818</ele>
        <time>2022-12-17T12:42:47.399Z</time>
      </trkpt>
      <trkpt lat="46.97529" lon="-1.80855">
        <ele>47.840242</ele>
        <time>2022-12-17T12:42:50.392Z</time>
      </trkpt>
      <trkpt lat="46.9752" lon="-1.80849">
        <ele>47.776185</ele>
        <time>2022-12-17T12:42:53.381Z</time>
      </trkpt>
      <trkpt lat="46.97511" lon="-1.8084">
        <ele>47.699434</ele>
        <time>2022-12-17T12:42:57.388Z</time>
      </trkpt>
      <trkpt lat="46.97502" lon="-1.8083">
        <ele>47.622265</ele>
        <time>2022-12-17T12:43:01.401Z</time>
      </trkpt>
      <trkpt lat="46.97494" lon="-1.80825">
        <ele>47.559769</ele>
        <time>2022-12-17T12:43:04.380Z</time>
      </trkpt>
      <trkpt lat="46.97484" lon="-1.80831">
        <ele>47.487401</ele>
        <time>2022-12-17T12:43:07.380Z</time>
      </trkpt>
      <trkpt lat="46.97474" lon="-1.80841">
        <ele>47.403568</ele>
        <time>2022-12-17T12:43:10.390Z</time>
      </trkpt>
      <trkpt lat="46.97463" lon="-1.80852">
        <ele>47.314305</ele>
        <time>2022-12-17T12:43:13.392Z</time>
      </trkpt>
      <trkpt lat="46.97456" lon="-1.80859">
        <ele>47.251896</ele>
        <time>2022-12-17T12:43:15.401Z</time>
      </trkpt>
      <trkpt lat="46.97449" lon="-1.80868">
        <ele>47.18758</ele>
        <time>2022-12-17T12:43:17.397Z</time>
      </trkpt>
      <trkpt lat="46.97441" lon="-1.80877">
        <ele>47.120768</ele>
        <time>2022-12-17T12:43:19.393Z</time>
      </trkpt>
      <trkpt lat="46.97433" lon="-1.80885">
        <ele>47.054462</ele>
        <time>2022-12-17T12:43:21.386Z</time>
      </trkpt>
      <trkpt lat="46.97425" lon="-1.80892">
        <ele>46.990849</ele>
        <time>2022-12-17T12:43:23.397Z</time>
      </trkpt>
      <trkpt lat="46.97417" lon="-1.80899">
        <ele>46.926151</ele>
        <time>2022-12-17T12:43:25.382Z</time>
      </trkpt>
      <trkpt lat="46.9741" lon="-1.80908">
        <ele>46.860442</ele>
        <time>2022-12-17T12:43:27.380Z</time>
      </trkpt>
      <trkpt lat="46.97401" lon="-1.80916">
        <ele>46.791111</ele>
        <time>2022-12-17T12:43:29.402Z</time>
      </trkpt>
      <trkpt lat="46.97393" lon="-1.80924">
        <ele>46.722075</ele>
        <time>2022-12-17T12:43:31.390Z</time>
      </trkpt>
      <trkpt lat="46.97384" lon="-1.80933">
        <ele>46.651296</ele>
        <time>2022-12-17T12:43:33.392Z</time>
      </trkpt>
      <trkpt lat="46.97376" lon="-1.80941">
        <ele>46.608674</ele>
        <time>2022-12-17T12:43:35.396Z</time>
      </trkpt>
      <trkpt lat="46.97367" lon="-1.8095">
        <ele>46.572648</ele>
        <time>2022-12-17T12:43:37.393Z</time>
      </trkpt>
      <trkpt lat="46.97359" lon="-1.80959">
        <ele>46.535031</ele>
        <time>2022-12-17T12:43:39.390Z</time>
      </trkpt>
      <trkpt lat="46.9735" lon="-1.80967">
        <ele>46.499223</ele>
        <time>2022-12-17T12:43:41.397Z</time>
      </trkpt>
      <trkpt lat="46.97343" lon="-1.80974">
        <ele>46.465593</ele>
        <time>2022-12-17T12:43:43.389Z</time>
      </trkpt>
      <trkpt lat="46.97334" lon="-1.80982">
        <ele>46.43042</ele>
        <time>2022-12-17T12:43:45.394Z</time>
      </trkpt>
      <trkpt lat="46.97326" lon="-1.8099">
        <ele>46.394971</ele>
        <time>2022-12-17T12:43:47.388Z</time>
      </trkpt>
      <trkpt lat="46.97319" lon="-1.80999">
        <ele>46.360395</ele>
        <time>2022-12-17T12:43:49.389Z</time>
      </trkpt>
      <trkpt lat="46.97311" lon="-1.81007">
        <ele>46.324085</ele>
        <time>2022-12-17T12:43:51.389Z</time>
      </trkpt>
      <trkpt lat="46.97302" lon="-1.81016">
        <ele>46.286175</ele>
        <time>2022-12-17T12:43:53.400Z</time>
      </trkpt>
      <trkpt lat="46.97293" lon="-1.81025">
        <ele>46.249258</ele>
        <time>2022-12-17T12:43:55.397Z</time>
      </trkpt>
      <trkpt lat="46.97285" lon="-1.81034">
        <ele>46.211932</ele>
        <time>2022-12-17T12:43:57.384Z</time>
      </trkpt>
      <trkpt lat="46.97277" lon="-1.81044">
        <ele>46.173117</ele>
        <time>2022-12-17T12:43:59.394Z</time>
      </trkpt>
      <trkpt lat="46.97268" lon="-1.81053">
        <ele>46.133177</ele>
        <time>2022-12-17T12:44:01.384Z</time>
      </trkpt>
      <trkpt lat="46.97259" lon="-1.81062">
        <ele>46.094517</ele>
        <time>2022-12-17T12:44:03.403Z</time>
      </trkpt>
      <trkpt lat="46.9725" lon="-1.81072">
        <ele>46.053853</ele>
        <time>2022-12-17T12:44:05.385Z</time>
      </trkpt>
      <trkpt lat="46.97241" lon="-1.81081">
        <ele>46.014784</ele>
        <time>2022-12-17T12:44:07.396Z</time>
      </trkpt>
      <trkpt lat="46.97233" lon="-1.81091">
        <ele>46.026804</ele>
        <time>2022-12-17T12:44:09.385Z</time>
      </trkpt>
      <trkpt lat="46.97224" lon="-1.81101">
        <ele>46.092824</ele>
        <time>2022-12-17T12:44:11.397Z</time>
      </trkpt>
      <trkpt lat="46.97215" lon="-1.8111">
        <ele>46.157632</ele>
        <time>2022-12-17T12:44:13.388Z</time>
      </trkpt>
      <trkpt lat="46.97206" lon="-1.81119">
        <ele>46.22269</ele>
        <time>2022-12-17T12:44:15.395Z</time>
      </trkpt>
      <trkpt lat="46.97198" lon="-1.81128">
        <ele>46.285344</ele>
        <time>2022-12-17T12:44:17.389Z</time>
      </trkpt>
      <trkpt lat="46.97189" lon="-1.81137">
        <ele>46.346778</ele>
        <time>2022-12-17T12:44:19.385Z</time>
      </trkpt>
      <trkpt lat="46.97181" lon="-1.81146">
        <ele>46.41014</ele>
        <time>2022-12-17T12:44:21.394Z</time>
      </trkpt>
      <trkpt lat="46.97172" lon="-1.81155">
        <ele>46.472541</ele>
        <time>2022-12-17T12:44:23.393Z</time>
      </trkpt>
      <trkpt lat="46.97164" lon="-1.81165">
        <ele>46.536172</ele>
        <time>2022-12-17T12:44:25.382Z</time>
      </trkpt>
      <trkpt lat="46.97155" lon="-1.81173">
        <ele>46.59863</ele>
        <time>2022-12-17T12:44:27.388Z</time>
      </trkpt>
      <trkpt lat="46.97146" lon="-1.81181">
        <ele>46.658919</ele>
        <time>2022-12-17T12:44:29.390Z</time>
      </trkpt>
      <trkpt lat="46.97138" lon="-1.81189">
        <ele>46.718429</ele>
        <time>2022-12-17T12:44:31.389Z</time>
      </trkpt>
      <trkpt lat="46.9713" lon="-1.81197">
        <ele>46.775065</ele>
        <time>2022-12-17T12:44:33.394Z</time>
      </trkpt>
      <trkpt lat="46.97123" lon="-1.81206">
        <ele>46.835341</ele>
        <time>2022-12-17T12:44:35.403Z</time>
      </trkpt>
      <trkpt lat="46.97114" lon="-1.81215">
        <ele>46.895089</ele>
        <time>2022-12-17T12:44:37.387Z</time>
      </trkpt>
      <trkpt lat="46.97107" lon="-1.81223">
        <ele>46.951003</ele>
        <time>2022-12-17T12:44:39.392Z</time>
      </trkpt>
      <trkpt lat="46.97099" lon="-1.8123">
        <ele>47.005239</ele>
        <time>2022-12-17T12:44:41.386Z</time>
      </trkpt>
      <trkpt lat="46.97092" lon="-1.81238">
        <ele>47.060663</ele>
        <time>2022-12-17T12:44:43.393Z</time>
      </trkpt>
      <trkpt lat="46.97084" lon="-1.81246">
        <ele>47.135321</ele>
        <time>2022-12-17T12:44:45.393Z</time>
      </trkpt>
      <trkpt lat="46.97075" lon="-1.81253">
        <ele>47.21496</ele>
        <time>2022-12-17T12:44:47.392Z</time>
      </trkpt>
      <trkpt lat="46.97066" lon="-1.8126">
        <ele>47.29484</ele>
        <time>2022-12-17T12:44:49.395Z</time>
      </trkpt>
      <trkpt lat="46.97058" lon="-1.81266">
        <ele>47.367947</ele>
        <time>2022-12-17T12:44:51.400Z</time>
      </trkpt>
      <trkpt lat="46.9705" lon="-1.81272">
        <ele>47.441531</ele>
        <time>2022-12-17T12:44:53.393Z</time>
      </trkpt>
      <trkpt lat="46.97041" lon="-1.81278">
        <ele>47.518521</ele>
        <time>2022-12-17T12:44:55.392Z</time>
      </trkpt>
      <trkpt lat="46.97032" lon="-1.81283">
        <ele>47.596325</ele>
        <time>2022-12-17T12:44:57.397Z</time>
      </trkpt>
      <trkpt lat="46.97023" lon="-1.81289">
        <ele>47.678206</ele>
        <time>2022-12-17T12:44:59.391Z</time>
      </trkpt>
      <trkpt lat="46.97014" lon="-1.81293">
        <ele>47.756686</ele>
        <time>2022-12-17T12:45:01.394Z</time>
      </trkpt>
      <trkpt lat="46.97004" lon="-1.81299">
        <ele>47.838216</ele>
        <time>2022-12-17T12:45:03.411Z</time>
      </trkpt>
      <trkpt lat="46.96996" lon="-1.81303">
        <ele>47.910831</ele>
        <time>2022-12-17T12:45:05.399Z</time>
      </trkpt>
      <trkpt lat="46.96987" lon="-1.81308">
        <ele>47.988193</ele>
        <time>2022-12-17T12:45:07.395Z</time>
      </trkpt>
      <trkpt lat="46.96978" lon="-1.81312">
        <ele>48.06488</ele>
        <time>2022-12-17T12:45:09.388Z</time>
      </trkpt>
      <trkpt lat="46.96969" lon="-1.81316">
        <ele>48.13943</ele>
        <time>2022-12-17T12:45:11.396Z</time>
      </trkpt>
      <trkpt lat="46.96959" lon="-1.8132">
        <ele>48.21861</ele>
        <time>2022-12-17T12:45:13.382Z</time>
      </trkpt>
      <trkpt lat="46.9695" lon="-1.81323">
        <ele>48.294122</ele>
        <time>2022-12-17T12:45:15.389Z</time>
      </trkpt>
      <trkpt lat="46.96941" lon="-1.81327">
        <ele>48.371422</ele>
        <time>2022-12-17T12:45:17.395Z</time>
      </trkpt>
      <trkpt lat="46.96932" lon="-1.8133">
        <ele>48.446427</ele>
        <time>2022-12-17T12:45:19.399Z</time>
      </trkpt>
      <trkpt lat="46.96919" lon="-1.81334">
        <ele>48.528557</ele>
        <time>2022-12-17T12:45:22.379Z</time>
      </trkpt>
      <trkpt lat="46.96908" lon="-1.81338">
        <ele>48.556196</ele>
        <time>2022-12-17T12:45:25.395Z</time>
      </trkpt>
      <trkpt lat="46.96897" lon="-1.81341">
        <ele>48.582455</ele>
        <time>2022-12-17T12:45:28.383Z</time>
      </trkpt>
      <trkpt lat="46.96885" lon="-1.81345">
        <ele>48.610515</ele>
        <time>2022-12-17T12:45:31.391Z</time>
      </trkpt>
      <trkpt lat="46.96873" lon="-1.81349">
        <ele>48.639853</ele>
        <time>2022-12-17T12:45:34.381Z</time>
      </trkpt>
      <trkpt lat="46.9686" lon="-1.81353">
        <ele>48.670927</ele>
        <time>2022-12-17T12:45:37.397Z</time>
      </trkpt>
      <trkpt lat="46.96848" lon="-1.81356">
        <ele>48.701828</ele>
        <time>2022-12-17T12:45:40.390Z</time>
      </trkpt>
      <trkpt lat="46.96835" lon="-1.8136">
        <ele>48.733389</ele>
        <time>2022-12-17T12:45:43.386Z</time>
      </trkpt>
      <trkpt lat="46.96826" lon="-1.81363">
        <ele>48.755236</ele>
        <time>2022-12-17T12:45:45.394Z</time>
      </trkpt>
      <trkpt lat="46.96817" lon="-1.81366">
        <ele>48.776691</ele>
        <time>2022-12-17T12:45:47.397Z</time>
      </trkpt>
      <trkpt lat="46.96808" lon="-1.81369">
        <ele>48.798075</ele>
        <time>2022-12-17T12:45:49.395Z</time>
      </trkpt>
      <trkpt lat="46.96799" lon="-1.81371">
        <ele>48.819623</ele>
        <time>2022-12-17T12:45:51.399Z</time>
      </trkpt>
      <trkpt lat="46.96786" lon="-1.81376">
        <ele>48.85156</ele>
        <time>2022-12-17T12:45:54.401Z</time>
      </trkpt>
      <trkpt lat="46.96773" lon="-1.81381">
        <ele>48.883574</ele>
        <time>2022-12-17T12:45:57.386Z</time>
      </trkpt>
      <trkpt lat="46.96763" lon="-1.81385">
        <ele>48.906897</ele>
        <time>2022-12-17T12:45:59.394Z</time>
      </trkpt>
      <trkpt lat="46.9675" lon="-1.81391">
        <ele>48.938932</ele>
        <time>2022-12-17T12:46:02.382Z</time>
      </trkpt>
      <trkpt lat="46.96739" lon="-1.81395">
        <ele>48.911688</ele>
        <time>2022-12-17T12:46:05.382Z</time>
      </trkpt>
      <trkpt lat="46.96727" lon="-1.814">
        <ele>48.868445</ele>
        <time>2022-12-17T12:46:08.392Z</time>
      </trkpt>
      <trkpt lat="46.96714" lon="-1.81407">
        <ele>48.821604</ele>
        <time>2022-12-17T12:46:11.383Z</time>
      </trkpt>
      <trkpt lat="46.96706" lon="-1.81411">
        <ele>48.789729</ele>
        <time>2022-12-17T12:46:13.383Z</time>
      </trkpt>
      <trkpt lat="46.96697" lon="-1.81415">
        <ele>48.757927</ele>
        <time>2022-12-17T12:46:15.382Z</time>
      </trkpt>
      <trkpt lat="46.96688" lon="-1.81419">
        <ele>48.725792</ele>
        <time>2022-12-17T12:46:17.399Z</time>
      </trkpt>
      <trkpt lat="46.96679" lon="-1.81423">
        <ele>48.693125</ele>
        <time>2022-12-17T12:46:19.403Z</time>
      </trkpt>
      <trkpt lat="46.9667" lon="-1.81429">
        <ele>48.658792</ele>
        <time>2022-12-17T12:46:21.391Z</time>
      </trkpt>
      <trkpt lat="46.96661" lon="-1.81434">
        <ele>48.62481</ele>
        <time>2022-12-17T12:46:23.399Z</time>
      </trkpt>
      <trkpt lat="46.96652" lon="-1.81438">
        <ele>48.591719</ele>
        <time>2022-12-17T12:46:25.379Z</time>
      </trkpt>
      <trkpt lat="46.96643" lon="-1.81442">
        <ele>48.559619</ele>
        <time>2022-12-17T12:46:27.392Z</time>
      </trkpt>
      <trkpt lat="46.96635" lon="-1.81448">
        <ele>48.526849</ele>
        <time>2022-12-17T12:46:29.393Z</time>
      </trkpt>
      <trkpt lat="46.96623" lon="-1.81456">
        <ele>48.48015</ele>
        <time>2022-12-17T12:46:32.382Z</time>
      </trkpt>
      <trkpt lat="46.96611" lon="-1.81465">
        <ele>48.436246</ele>
        <time>2022-12-17T12:46:35.398Z</time>
      </trkpt>
      <trkpt lat="46.96604" lon="-1.81471">
        <ele>48.404646</ele>
        <time>2022-12-17T12:46:37.394Z</time>
      </trkpt>
      <trkpt lat="46.96595" lon="-1.81478">
        <ele>48.371603</ele>
        <time>2022-12-17T12:46:39.390Z</time>
      </trkpt>
      <trkpt lat="46.96587" lon="-1.81486">
        <ele>48.337341</ele>
        <time>2022-12-17T12:46:41.389Z</time>
      </trkpt>
      <trkpt lat="46.96579" lon="-1.81495">
        <ele>48.362096</ele>
        <time>2022-12-17T12:46:43.391Z</time>
      </trkpt>
      <trkpt lat="46.9657" lon="-1.81503">
        <ele>48.466194</ele>
        <time>2022-12-17T12:46:45.399Z</time>
      </trkpt>
      <trkpt lat="46.96562" lon="-1.81511">
        <ele>48.56192</ele>
        <time>2022-12-17T12:46:47.390Z</time>
      </trkpt>
      <trkpt lat="46.96555" lon="-1.81519">
        <ele>48.660092</ele>
        <time>2022-12-17T12:46:49.399Z</time>
      </trkpt>
      <trkpt lat="46.96547" lon="-1.81528">
        <ele>48.756231</ele>
        <time>2022-12-17T12:46:51.398Z</time>
      </trkpt>
      <trkpt lat="46.96539" lon="-1.81536">
        <ele>48.850325</ele>
        <time>2022-12-17T12:46:53.401Z</time>
      </trkpt>
      <trkpt lat="46.96529" lon="-1.81547">
        <ele>48.98028</ele>
        <time>2022-12-17T12:46:56.394Z</time>
      </trkpt>
      <trkpt lat="46.9652" lon="-1.81556">
        <ele>49.094333</ele>
        <time>2022-12-17T12:46:59.390Z</time>
      </trkpt>
      <trkpt lat="46.96511" lon="-1.81566">
        <ele>49.206353</ele>
        <time>2022-12-17T12:47:02.381Z</time>
      </trkpt>
      <trkpt lat="46.96502" lon="-1.81576">
        <ele>49.316342</ele>
        <time>2022-12-17T12:47:05.379Z</time>
      </trkpt>
      <trkpt lat="46.96494" lon="-1.81585">
        <ele>49.421842</ele>
        <time>2022-12-17T12:47:08.402Z</time>
      </trkpt>
      <trkpt lat="46.96486" lon="-1.81593">
        <ele>49.515581</ele>
        <time>2022-12-17T12:47:11.398Z</time>
      </trkpt>
      <trkpt lat="46.96477" lon="-1.81603">
        <ele>49.631288</ele>
        <time>2022-12-17T12:47:15.388Z</time>
      </trkpt>
      <trkpt lat="46.96469" lon="-1.81612">
        <ele>49.732332</ele>
        <time>2022-12-17T12:47:19.405Z</time>
      </trkpt>
      <trkpt lat="46.96462" lon="-1.81619">
        <ele>49.824869</ele>
        <time>2022-12-17T12:47:23.384Z</time>
      </trkpt>
      <trkpt lat="46.96452" lon="-1.81628">
        <ele>49.93988</ele>
        <time>2022-12-17T12:47:27.392Z</time>
      </trkpt>
      <trkpt lat="46.96444" lon="-1.81634">
        <ele>50.031045</ele>
        <time>2022-12-17T12:47:30.383Z</time>
      </trkpt>
      <trkpt lat="46.96433" lon="-1.81642">
        <ele>50.18972</ele>
        <time>2022-12-17T12:47:34.380Z</time>
      </trkpt>
      <trkpt lat="46.96424" lon="-1.81648">
        <ele>50.478116</ele>
        <time>2022-12-17T12:47:37.383Z</time>
      </trkpt>
      <trkpt lat="46.96416" lon="-1.81655">
        <ele>50.750949</ele>
        <time>2022-12-17T12:47:40.388Z</time>
      </trkpt>
      <trkpt lat="46.96408" lon="-1.81661">
        <ele>51.02613</ele>
        <time>2022-12-17T12:47:43.384Z</time>
      </trkpt>
      <trkpt lat="46.96399" lon="-1.81666">
        <ele>51.303168</ele>
        <time>2022-12-17T12:47:46.378Z</time>
      </trkpt>
      <trkpt lat="46.9639" lon="-1.81671">
        <ele>51.579588</ele>
        <time>2022-12-17T12:47:49.398Z</time>
      </trkpt>
      <trkpt lat="46.9638" lon="-1.81677">
        <ele>51.907887</ele>
        <time>2022-12-17T12:47:53.399Z</time>
      </trkpt>
      <trkpt lat="46.96369" lon="-1.81683">
        <ele>52.255561</ele>
        <time>2022-12-17T12:47:57.392Z</time>
      </trkpt>
      <trkpt lat="46.9636" lon="-1.81688">
        <ele>52.527927</ele>
        <time>2022-12-17T12:48:00.394Z</time>
      </trkpt>
      <trkpt lat="46.96351" lon="-1.81693">
        <ele>52.805084</ele>
        <time>2022-12-17T12:48:03.381Z</time>
      </trkpt>
      <trkpt lat="46.96343" lon="-1.81698">
        <ele>53.082211</ele>
        <time>2022-12-17T12:48:06.396Z</time>
      </trkpt>
      <trkpt lat="46.96333" lon="-1.81702">
        <ele>53.36625</ele>
        <time>2022-12-17T12:48:09.405Z</time>
      </trkpt>
      <trkpt lat="46.96324" lon="-1.81707">
        <ele>53.667546</ele>
        <time>2022-12-17T12:48:12.379Z</time>
      </trkpt>
      <trkpt lat="46.96314" lon="-1.81714">
        <ele>53.981779</ele>
        <time>2022-12-17T12:48:15.383Z</time>
      </trkpt>
      <trkpt lat="46.96304" lon="-1.8172">
        <ele>54.303368</ele>
        <time>2022-12-17T12:48:18.381Z</time>
      </trkpt>
      <trkpt lat="46.96294" lon="-1.81726">
        <ele>54.624958</ele>
        <time>2022-12-17T12:48:21.384Z</time>
      </trkpt>
      <trkpt lat="46.96283" lon="-1.81732">
        <ele>54.957464</ele>
        <time>2022-12-17T12:48:24.381Z</time>
      </trkpt>
      <trkpt lat="46.96273" lon="-1.81738">
        <ele>55.277112</ele>
        <time>2022-12-17T12:48:27.400Z</time>
      </trkpt>
      <trkpt lat="46.96263" lon="-1.81745">
        <ele>55.584951</ele>
        <time>2022-12-17T12:48:30.396Z</time>
      </trkpt>
      <trkpt lat="46.96253" lon="-1.81751">
        <ele>55.869198</ele>
        <time>2022-12-17T12:48:33.383Z</time>
      </trkpt>
      <trkpt lat="46.96244" lon="-1.81757">
        <ele>56.146142</ele>
        <time>2022-12-17T12:48:36.379Z</time>
      </trkpt>
      <trkpt lat="46.96235" lon="-1.81763">
        <ele>56.40784</ele>
        <time>2022-12-17T12:48:39.399Z</time>
      </trkpt>
      <trkpt lat="46.96226" lon="-1.81769">
        <ele>56.663227</ele>
        <time>2022-12-17T12:48:42.380Z</time>
      </trkpt>
      <trkpt lat="46.96217" lon="-1.81774">
        <ele>56.912597</ele>
        <time>2022-12-17T12:48:45.387Z</time>
      </trkpt>
      <trkpt lat="46.96209" lon="-1.8178">
        <ele>57.156849</ele>
        <time>2022-12-17T12:48:48.384Z</time>
      </trkpt>
      <trkpt lat="46.962" lon="-1.81785">
        <ele>57.399949</ele>
        <time>2022-12-17T12:48:51.383Z</time>
      </trkpt>
      <trkpt lat="46.96192" lon="-1.81791">
        <ele>57.655597</ele>
        <time>2022-12-17T12:48:54.389Z</time>
      </trkpt>
      <trkpt lat="46.96182" lon="-1.81795">
        <ele>57.912194</ele>
        <time>2022-12-17T12:48:57.388Z</time>
      </trkpt>
      <trkpt lat="46.96173" lon="-1.818">
        <ele>58.174492</ele>
        <time>2022-12-17T12:49:00.383Z</time>
      </trkpt>
      <trkpt lat="46.96164" lon="-1.81804">
        <ele>58.436102</ele>
        <time>2022-12-17T12:49:03.388Z</time>
      </trkpt>
      <trkpt lat="46.96154" lon="-1.81807">
        <ele>58.68379</ele>
        <time>2022-12-17T12:49:06.382Z</time>
      </trkpt>
      <trkpt lat="46.96145" lon="-1.8181">
        <ele>58.938412</ele>
        <time>2022-12-17T12:49:09.390Z</time>
      </trkpt>
      <trkpt lat="46.96135" lon="-1.81813">
        <ele>59.201177</ele>
        <time>2022-12-17T12:49:12.382Z</time>
      </trkpt>
      <trkpt lat="46.96125" lon="-1.81816">
        <ele>59.474048</ele>
        <time>2022-12-17T12:49:15.392Z</time>
      </trkpt>
      <trkpt lat="46.96115" lon="-1.81817">
        <ele>59.753846</ele>
        <time>2022-12-17T12:49:18.385Z</time>
      </trkpt>
      <trkpt lat="46.96103" lon="-1.81819">
        <ele>60.062055</ele>
        <time>2022-12-17T12:49:22.385Z</time>
      </trkpt>
      <trkpt lat="46.96092" lon="-1.81821">
        <ele>60.146644</ele>
        <time>2022-12-17T12:49:26.403Z</time>
      </trkpt>
      <trkpt lat="46.96082" lon="-1.81822">
        <ele>60.084984</ele>
        <time>2022-12-17T12:49:29.396Z</time>
      </trkpt>
      <trkpt lat="46.96072" lon="-1.81823">
        <ele>60.022661</ele>
        <time>2022-12-17T12:49:32.388Z</time>
      </trkpt>
      <trkpt lat="46.96061" lon="-1.81825">
        <ele>59.954501</ele>
        <time>2022-12-17T12:49:35.404Z</time>
      </trkpt>
      <trkpt lat="46.9605" lon="-1.81827">
        <ele>59.884522</ele>
        <time>2022-12-17T12:49:38.386Z</time>
      </trkpt>
      <trkpt lat="46.96039" lon="-1.81829">
        <ele>59.817552</ele>
        <time>2022-12-17T12:49:41.400Z</time>
      </trkpt>
      <trkpt lat="46.96029" lon="-1.81832">
        <ele>59.750752</ele>
        <time>2022-12-17T12:49:44.395Z</time>
      </trkpt>
      <trkpt lat="46.96017" lon="-1.81835">
        <ele>59.676941</ele>
        <time>2022-12-17T12:49:47.400Z</time>
      </trkpt>
      <trkpt lat="46.96005" lon="-1.81839">
        <ele>59.597646</ele>
        <time>2022-12-17T12:49:50.408Z</time>
      </trkpt>
      <trkpt lat="46.95992" lon="-1.81843">
        <ele>59.517473</ele>
        <time>2022-12-17T12:49:53.392Z</time>
      </trkpt>
      <trkpt lat="46.95979" lon="-1.81847">
        <ele>59.434178</ele>
        <time>2022-12-17T12:49:56.387Z</time>
      </trkpt>
      <trkpt lat="46.95971" lon="-1.81851">
        <ele>59.377258</ele>
        <time>2022-12-17T12:49:58.381Z</time>
      </trkpt>
      <trkpt lat="46.95962" lon="-1.81855">
        <ele>59.319587</ele>
        <time>2022-12-17T12:50:00.398Z</time>
      </trkpt>
      <trkpt lat="46.95953" lon="-1.81859">
        <ele>59.259405</ele>
        <time>2022-12-17T12:50:02.394Z</time>
      </trkpt>
      <trkpt lat="46.95943" lon="-1.81864">
        <ele>59.193788</ele>
        <time>2022-12-17T12:50:04.382Z</time>
      </trkpt>
      <trkpt lat="46.95935" lon="-1.8187">
        <ele>59.136349</ele>
        <time>2022-12-17T12:50:06.399Z</time>
      </trkpt>
      <trkpt lat="46.95925" lon="-1.81875">
        <ele>59.075154</ele>
        <time>2022-12-17T12:50:08.382Z</time>
      </trkpt>
      <trkpt lat="46.95917" lon="-1.8188">
        <ele>59.08827</ele>
        <time>2022-12-17T12:50:10.396Z</time>
      </trkpt>
      <trkpt lat="46.95908" lon="-1.81885">
        <ele>59.122103</ele>
        <time>2022-12-17T12:50:12.392Z</time>
      </trkpt>
      <trkpt lat="46.959" lon="-1.8189">
        <ele>59.154741</ele>
        <time>2022-12-17T12:50:14.383Z</time>
      </trkpt>
      <trkpt lat="46.95891" lon="-1.81895">
        <ele>59.187326</ele>
        <time>2022-12-17T12:50:16.381Z</time>
      </trkpt>
      <trkpt lat="46.95879" lon="-1.81903">
        <ele>59.233785</ele>
        <time>2022-12-17T12:50:19.396Z</time>
      </trkpt>
      <trkpt lat="46.95868" lon="-1.8191">
        <ele>59.277184</ele>
        <time>2022-12-17T12:50:22.382Z</time>
      </trkpt>
      <trkpt lat="46.95857" lon="-1.81917">
        <ele>59.320849</ele>
        <time>2022-12-17T12:50:25.382Z</time>
      </trkpt>
      <trkpt lat="46.95846" lon="-1.81925">
        <ele>59.364661</ele>
        <time>2022-12-17T12:50:28.380Z</time>
      </trkpt>
      <trkpt lat="46.95835" lon="-1.81934">
        <ele>59.411517</ele>
        <time>2022-12-17T12:50:31.382Z</time>
      </trkpt>
      <trkpt lat="46.95823" lon="-1.81943">
        <ele>59.459831</ele>
        <time>2022-12-17T12:50:34.382Z</time>
      </trkpt>
      <trkpt lat="46.95815" lon="-1.81949">
        <ele>59.492231</ele>
        <time>2022-12-17T12:50:36.388Z</time>
      </trkpt>
      <trkpt lat="46.95807" lon="-1.81956">
        <ele>59.524793</ele>
        <time>2022-12-17T12:50:38.386Z</time>
      </trkpt>
      <trkpt lat="46.95799" lon="-1.81963">
        <ele>59.55859</ele>
        <time>2022-12-17T12:50:40.398Z</time>
      </trkpt>
      <trkpt lat="46.95788" lon="-1.81972">
        <ele>59.604605</ele>
        <time>2022-12-17T12:50:43.402Z</time>
      </trkpt>
      <trkpt lat="46.95776" lon="-1.81982">
        <ele>59.653508</ele>
        <time>2022-12-17T12:50:46.381Z</time>
      </trkpt>
      <trkpt lat="46.95768" lon="-1.81988">
        <ele>59.686817</ele>
        <time>2022-12-17T12:50:48.391Z</time>
      </trkpt>
      <trkpt lat="46.95759" lon="-1.81995">
        <ele>59.746103</ele>
        <time>2022-12-17T12:50:50.393Z</time>
      </trkpt>
      <trkpt lat="46.95751" lon="-1.82001">
        <ele>59.839528</ele>
        <time>2022-12-17T12:50:52.384Z</time>
      </trkpt>
      <trkpt lat="46.95743" lon="-1.82008">
        <ele>59.9436</ele>
        <time>2022-12-17T12:50:54.392Z</time>
      </trkpt>
      <trkpt lat="46.95735" lon="-1.82015">
        <ele>60.040807</ele>
        <time>2022-12-17T12:50:56.390Z</time>
      </trkpt>
      <trkpt lat="46.95723" lon="-1.82024">
        <ele>60.173621</ele>
        <time>2022-12-17T12:50:59.402Z</time>
      </trkpt>
      <trkpt lat="46.95713" lon="-1.82033">
        <ele>60.299683</ele>
        <time>2022-12-17T12:51:02.381Z</time>
      </trkpt>
      <trkpt lat="46.95701" lon="-1.82042">
        <ele>60.438356</ele>
        <time>2022-12-17T12:51:05.403Z</time>
      </trkpt>
      <trkpt lat="46.95693" lon="-1.82049">
        <ele>60.535117</ele>
        <time>2022-12-17T12:51:07.400Z</time>
      </trkpt>
      <trkpt lat="46.95685" lon="-1.82055">
        <ele>60.637244</ele>
        <time>2022-12-17T12:51:09.386Z</time>
      </trkpt>
      <trkpt lat="46.95677" lon="-1.82063">
        <ele>60.735737</ele>
        <time>2022-12-17T12:51:11.392Z</time>
      </trkpt>
      <trkpt lat="46.95669" lon="-1.82069">
        <ele>60.831574</ele>
        <time>2022-12-17T12:51:13.400Z</time>
      </trkpt>
      <trkpt lat="46.9566" lon="-1.82075">
        <ele>60.931123</ele>
        <time>2022-12-17T12:51:15.390Z</time>
      </trkpt>
      <trkpt lat="46.95649" lon="-1.82086">
        <ele>61.069316</ele>
        <time>2022-12-17T12:51:18.400Z</time>
      </trkpt>
      <trkpt lat="46.95639" lon="-1.82095">
        <ele>61.19398</ele>
        <time>2022-12-17T12:51:21.404Z</time>
      </trkpt>
      <trkpt lat="46.9563" lon="-1.82104">
        <ele>61.306189</ele>
        <time>2022-12-17T12:51:24.396Z</time>
      </trkpt>
      <trkpt lat="46.9562" lon="-1.82114">
        <ele>61.428853</ele>
        <time>2022-12-17T12:51:27.398Z</time>
      </trkpt>
      <trkpt lat="46.9561" lon="-1.82124">
        <ele>61.562173</ele>
        <time>2022-12-17T12:51:30.402Z</time>
      </trkpt>
      <trkpt lat="46.95599" lon="-1.82135">
        <ele>61.436888</ele>
        <time>2022-12-17T12:51:33.399Z</time>
      </trkpt>
      <trkpt lat="46.95592" lon="-1.82143">
        <ele>61.302843</ele>
        <time>2022-12-17T12:51:35.396Z</time>
      </trkpt>
      <trkpt lat="46.95584" lon="-1.82151">
        <ele>61.170554</ele>
        <time>2022-12-17T12:51:37.390Z</time>
      </trkpt>
      <trkpt lat="46.95577" lon="-1.82159">
        <ele>61.037104</ele>
        <time>2022-12-17T12:51:39.389Z</time>
      </trkpt>
      <trkpt lat="46.95569" lon="-1.82166">
        <ele>60.905025</ele>
        <time>2022-12-17T12:51:41.389Z</time>
      </trkpt>
      <trkpt lat="46.95558" lon="-1.82178">
        <ele>60.708311</ele>
        <time>2022-12-17T12:51:44.403Z</time>
      </trkpt>
      <trkpt lat="46.9555" lon="-1.82186">
        <ele>60.570798</ele>
        <time>2022-12-17T12:51:46.401Z</time>
      </trkpt>
      <trkpt lat="46.95542" lon="-1.82194">
        <ele>60.437334</ele>
        <time>2022-12-17T12:51:48.396Z</time>
      </trkpt>
      <trkpt lat="46.95534" lon="-1.82202">
        <ele>60.298571</ele>
        <time>2022-12-17T12:51:50.399Z</time>
      </trkpt>
      <trkpt lat="46.95527" lon="-1.82209">
        <ele>60.163291</ele>
        <time>2022-12-17T12:51:52.386Z</time>
      </trkpt>
      <trkpt lat="46.95519" lon="-1.82217">
        <ele>60.025616</ele>
        <time>2022-12-17T12:51:54.393Z</time>
      </trkpt>
      <trkpt lat="46.95511" lon="-1.82226">
        <ele>59.885796</ele>
        <time>2022-12-17T12:51:56.396Z</time>
      </trkpt>
      <trkpt lat="46.95503" lon="-1.82234">
        <ele>59.747712</ele>
        <time>2022-12-17T12:51:58.393Z</time>
      </trkpt>
      <trkpt lat="46.95495" lon="-1.82242">
        <ele>59.612432</ele>
        <time>2022-12-17T12:52:00.392Z</time>
      </trkpt>
      <trkpt lat="46.95488" lon="-1.8225">
        <ele>59.475502</ele>
        <time>2022-12-17T12:52:02.382Z</time>
      </trkpt>
      <trkpt lat="46.95477" lon="-1.82261">
        <ele>59.293333</ele>
        <time>2022-12-17T12:52:05.397Z</time>
      </trkpt>
      <trkpt lat="46.95467" lon="-1.82273">
        <ele>59.101795</ele>
        <time>2022-12-17T12:52:08.395Z</time>
      </trkpt>
      <trkpt lat="46.9546" lon="-1.82282">
        <ele>59.011712</ele>
        <time>2022-12-17T12:52:10.406Z</time>
      </trkpt>
      <trkpt lat="46.95449" lon="-1.82295">
        <ele>59.073672</ele>
        <time>2022-12-17T12:52:13.381Z</time>
      </trkpt>
      <trkpt lat="46.95441" lon="-1.82305">
        <ele>59.119855</ele>
        <time>2022-12-17T12:52:15.382Z</time>
      </trkpt>
      <trkpt lat="46.95435" lon="-1.82315">
        <ele>59.16385</ele>
        <time>2022-12-17T12:52:17.384Z</time>
      </trkpt>
      <trkpt lat="46.95428" lon="-1.82325">
        <ele>59.206983</ele>
        <time>2022-12-17T12:52:19.398Z</time>
      </trkpt>
      <trkpt lat="46.95421" lon="-1.82336">
        <ele>59.251851</ele>
        <time>2022-12-17T12:52:21.399Z</time>
      </trkpt>
      <trkpt lat="46.95415" lon="-1.82348">
        <ele>59.298747</ele>
        <time>2022-12-17T12:52:23.394Z</time>
      </trkpt>
      <trkpt lat="46.95408" lon="-1.8236">
        <ele>59.343884</ele>
        <time>2022-12-17T12:52:25.389Z</time>
      </trkpt>
      <trkpt lat="46.95402" lon="-1.82371">
        <ele>59.38882</ele>
        <time>2022-12-17T12:52:27.389Z</time>
      </trkpt>
      <trkpt lat="46.95396" lon="-1.82382">
        <ele>59.432894</ele>
        <time>2022-12-17T12:52:29.387Z</time>
      </trkpt>
      <trkpt lat="46.9539" lon="-1.82394">
        <ele>59.477238</ele>
        <time>2022-12-17T12:52:31.399Z</time>
      </trkpt>
      <trkpt lat="46.95384" lon="-1.82406">
        <ele>59.523134</ele>
        <time>2022-12-17T12:52:33.391Z</time>
      </trkpt>
      <trkpt lat="46.95378" lon="-1.82416">
        <ele>59.564851</ele>
        <time>2022-12-17T12:52:35.387Z</time>
      </trkpt>
      <trkpt lat="46.95372" lon="-1.82427">
        <ele>59.608165</ele>
        <time>2022-12-17T12:52:37.398Z</time>
      </trkpt>
      <trkpt lat="46.95366" lon="-1.82438">
        <ele>59.651025</ele>
        <time>2022-12-17T12:52:39.391Z</time>
      </trkpt>
      <trkpt lat="46.9536" lon="-1.8245">
        <ele>59.694682</ele>
        <time>2022-12-17T12:52:41.395Z</time>
      </trkpt>
      <trkpt lat="46.95354" lon="-1.82461">
        <ele>59.738819</ele>
        <time>2022-12-17T12:52:43.409Z</time>
      </trkpt>
      <trkpt lat="46.95348" lon="-1.82472">
        <ele>59.780614</ele>
        <time>2022-12-17T12:52:45.386Z</time>
      </trkpt>
      <trkpt lat="46.95342" lon="-1.82483">
        <ele>59.796474</ele>
        <time>2022-12-17T12:52:47.386Z</time>
      </trkpt>
      <trkpt lat="46.95336" lon="-1.82494">
        <ele>59.76675</ele>
        <time>2022-12-17T12:52:49.392Z</time>
      </trkpt>
      <trkpt lat="46.9533" lon="-1.82505">
        <ele>59.737511</ele>
        <time>2022-12-17T12:52:51.398Z</time>
      </trkpt>
      <trkpt lat="46.95324" lon="-1.82516">
        <ele>59.70908</ele>
        <time>2022-12-17T12:52:53.382Z</time>
      </trkpt>
      <trkpt lat="46.95319" lon="-1.82526">
        <ele>59.681423</ele>
        <time>2022-12-17T12:52:55.397Z</time>
      </trkpt>
      <trkpt lat="46.9531" lon="-1.82541">
        <ele>59.642587</ele>
        <time>2022-12-17T12:52:58.397Z</time>
      </trkpt>
      <trkpt lat="46.95302" lon="-1.82553">
        <ele>59.606694</ele>
        <time>2022-12-17T12:53:01.392Z</time>
      </trkpt>
      <trkpt lat="46.95295" lon="-1.82566">
        <ele>59.571829</ele>
        <time>2022-12-17T12:53:04.403Z</time>
      </trkpt>
      <trkpt lat="46.95287" lon="-1.82579">
        <ele>59.535727</ele>
        <time>2022-12-17T12:53:07.394Z</time>
      </trkpt>
      <trkpt lat="46.95279" lon="-1.82591">
        <ele>59.498708</ele>
        <time>2022-12-17T12:53:10.403Z</time>
      </trkpt>
      <trkpt lat="46.95271" lon="-1.82605">
        <ele>59.462563</ele>
        <time>2022-12-17T12:53:13.390Z</time>
      </trkpt>
      <trkpt lat="46.95266" lon="-1.82619">
        <ele>59.42811</ele>
        <time>2022-12-17T12:53:16.387Z</time>
      </trkpt>
      <trkpt lat="46.95259" lon="-1.82631">
        <ele>59.396345</ele>
        <time>2022-12-17T12:53:19.382Z</time>
      </trkpt>
      <trkpt lat="46.95254" lon="-1.82642">
        <ele>59.368716</ele>
        <time>2022-12-17T12:53:22.387Z</time>
      </trkpt>
      <trkpt lat="46.95246" lon="-1.82651">
        <ele>59.337915</ele>
        <time>2022-12-17T12:53:26.402Z</time>
      </trkpt>
      <trkpt lat="46.9524" lon="-1.82661">
        <ele>59.31071</ele>
        <time>2022-12-17T12:53:51.605Z</time>
      </trkpt>
      <trkpt lat="46.95227" lon="-1.82666">
        <ele>59.268356</ele>
        <time>2022-12-17T13:06:30.398Z</time>
      </trkpt>
      <trkpt lat="46.95218" lon="-1.82678">
        <ele>59.291706</ele>
        <time>2022-12-17T13:06:34.398Z</time>
      </trkpt>
      <trkpt lat="46.9521" lon="-1.82686">
        <ele>59.326092</ele>
        <time>2022-12-17T13:06:37.390Z</time>
      </trkpt>
      <trkpt lat="46.952" lon="-1.82691">
        <ele>59.363889</ele>
        <time>2022-12-17T13:06:40.402Z</time>
      </trkpt>
      <trkpt lat="46.95191" lon="-1.82695">
        <ele>59.399186</ele>
        <time>2022-12-17T13:06:43.403Z</time>
      </trkpt>
      <trkpt lat="46.95182" lon="-1.82699">
        <ele>59.434975</ele>
        <time>2022-12-17T13:06:46.399Z</time>
      </trkpt>
      <trkpt lat="46.95172" lon="-1.82705">
        <ele>59.472716</ele>
        <time>2022-12-17T13:06:49.408Z</time>
      </trkpt>
      <trkpt lat="46.95162" lon="-1.82711">
        <ele>59.512376</ele>
        <time>2022-12-17T13:06:52.391Z</time>
      </trkpt>
      <trkpt lat="46.95152" lon="-1.82718">
        <ele>59.550589</ele>
        <time>2022-12-17T13:06:55.403Z</time>
      </trkpt>
      <trkpt lat="46.95142" lon="-1.82724">
        <ele>59.590151</ele>
        <time>2022-12-17T13:06:58.392Z</time>
      </trkpt>
      <trkpt lat="46.95132" lon="-1.82731">
        <ele>59.630716</ele>
        <time>2022-12-17T13:07:01.407Z</time>
      </trkpt>
      <trkpt lat="46.95122" lon="-1.82736">
        <ele>59.671927</ele>
        <time>2022-12-17T13:07:04.408Z</time>
      </trkpt>
      <trkpt lat="46.9511" lon="-1.82742">
        <ele>59.715787</ele>
        <time>2022-12-17T13:07:07.398Z</time>
      </trkpt>
      <trkpt lat="46.95099" lon="-1.82749">
        <ele>59.75905</ele>
        <time>2022-12-17T13:07:10.399Z</time>
      </trkpt>
      <trkpt lat="46.95088" lon="-1.82755">
        <ele>59.803586</ele>
        <time>2022-12-17T13:07:13.400Z</time>
      </trkpt>
      <trkpt lat="46.95076" lon="-1.82761">
        <ele>59.848474</ele>
        <time>2022-12-17T13:07:16.406Z</time>
      </trkpt>
      <trkpt lat="46.95065" lon="-1.82768">
        <ele>59.891675</ele>
        <time>2022-12-17T13:07:19.396Z</time>
      </trkpt>
      <trkpt lat="46.95054" lon="-1.82774">
        <ele>59.972731</ele>
        <time>2022-12-17T13:07:22.388Z</time>
      </trkpt>
      <trkpt lat="46.95044" lon="-1.82781">
        <ele>60.08988</ele>
        <time>2022-12-17T13:07:25.400Z</time>
      </trkpt>
      <trkpt lat="46.95034" lon="-1.82789">
        <ele>60.207006</ele>
        <time>2022-12-17T13:07:28.409Z</time>
      </trkpt>
      <trkpt lat="46.95024" lon="-1.82795">
        <ele>60.318587</ele>
        <time>2022-12-17T13:07:31.398Z</time>
      </trkpt>
      <trkpt lat="46.95015" lon="-1.82802">
        <ele>60.421902</ele>
        <time>2022-12-17T13:07:34.394Z</time>
      </trkpt>
      <trkpt lat="46.95007" lon="-1.82809">
        <ele>60.520366</ele>
        <time>2022-12-17T13:07:37.393Z</time>
      </trkpt>
      <trkpt lat="46.94999" lon="-1.82816">
        <ele>60.614076</ele>
        <time>2022-12-17T13:07:40.393Z</time>
      </trkpt>
      <trkpt lat="46.94991" lon="-1.82822">
        <ele>60.708613</ele>
        <time>2022-12-17T13:07:43.408Z</time>
      </trkpt>
      <trkpt lat="46.94983" lon="-1.82829">
        <ele>60.802796</ele>
        <time>2022-12-17T13:07:46.401Z</time>
      </trkpt>
      <trkpt lat="46.94975" lon="-1.82836">
        <ele>60.901609</ele>
        <time>2022-12-17T13:07:49.394Z</time>
      </trkpt>
      <trkpt lat="46.94966" lon="-1.82843">
        <ele>61.002913</ele>
        <time>2022-12-17T13:07:52.392Z</time>
      </trkpt>
      <trkpt lat="46.94958" lon="-1.8285">
        <ele>61.10408</ele>
        <time>2022-12-17T13:07:55.398Z</time>
      </trkpt>
      <trkpt lat="46.94949" lon="-1.82857">
        <ele>61.2073</ele>
        <time>2022-12-17T13:07:58.408Z</time>
      </trkpt>
      <trkpt lat="46.9494" lon="-1.82863">
        <ele>61.308467</ele>
        <time>2022-12-17T13:08:01.397Z</time>
      </trkpt>
      <trkpt lat="46.94932" lon="-1.82869">
        <ele>61.403981</ele>
        <time>2022-12-17T13:08:04.409Z</time>
      </trkpt>
      <trkpt lat="46.94923" lon="-1.82875">
        <ele>61.502311</ele>
        <time>2022-12-17T13:08:07.394Z</time>
      </trkpt>
      <trkpt lat="46.94913" lon="-1.82881">
        <ele>61.611363</ele>
        <time>2022-12-17T13:08:10.403Z</time>
      </trkpt>
      <trkpt lat="46.94904" lon="-1.82886">
        <ele>61.719194</ele>
        <time>2022-12-17T13:08:13.401Z</time>
      </trkpt>
      <trkpt lat="46.94893" lon="-1.82892">
        <ele>61.754945</ele>
        <time>2022-12-17T13:08:16.391Z</time>
      </trkpt>
      <trkpt lat="46.94883" lon="-1.82898">
        <ele>61.730988</ele>
        <time>2022-12-17T13:08:19.397Z</time>
      </trkpt>
      <trkpt lat="46.94871" lon="-1.82905">
        <ele>61.703889</ele>
        <time>2022-12-17T13:08:22.390Z</time>
      </trkpt>
      <trkpt lat="46.94859" lon="-1.82911">
        <ele>61.67543</ele>
        <time>2022-12-17T13:08:25.411Z</time>
      </trkpt>
      <trkpt lat="46.9485" lon="-1.82916">
        <ele>61.655062</ele>
        <time>2022-12-17T13:08:27.409Z</time>
      </trkpt>
      <trkpt lat="46.94841" lon="-1.82921">
        <ele>61.635502</ele>
        <time>2022-12-17T13:08:29.392Z</time>
      </trkpt>
      <trkpt lat="46.94833" lon="-1.82926">
        <ele>61.615782</ele>
        <time>2022-12-17T13:08:31.398Z</time>
      </trkpt>
      <trkpt lat="46.94824" lon="-1.8293">
        <ele>61.595652</ele>
        <time>2022-12-17T13:08:33.415Z</time>
      </trkpt>
      <trkpt lat="46.94815" lon="-1.82935">
        <ele>61.575732</ele>
        <time>2022-12-17T13:08:35.393Z</time>
      </trkpt>
      <trkpt lat="46.94806" lon="-1.8294">
        <ele>61.553495</ele>
        <time>2022-12-17T13:08:37.404Z</time>
      </trkpt>
      <trkpt lat="46.94797" lon="-1.82945">
        <ele>61.534037</ele>
        <time>2022-12-17T13:08:39.404Z</time>
      </trkpt>
      <trkpt lat="46.94788" lon="-1.82949">
        <ele>61.512541</ele>
        <time>2022-12-17T13:08:41.404Z</time>
      </trkpt>
      <trkpt lat="46.94779" lon="-1.82955">
        <ele>61.491944</ele>
        <time>2022-12-17T13:08:43.423Z</time>
      </trkpt>
      <trkpt lat="46.94769" lon="-1.8296">
        <ele>61.470211</ele>
        <time>2022-12-17T13:08:45.423Z</time>
      </trkpt>
      <trkpt lat="46.9476" lon="-1.82964">
        <ele>61.448121</ele>
        <time>2022-12-17T13:08:47.398Z</time>
      </trkpt>
      <trkpt lat="46.9475" lon="-1.82969">
        <ele>61.426486</ele>
        <time>2022-12-17T13:08:49.396Z</time>
      </trkpt>
      <trkpt lat="46.9474" lon="-1.82974">
        <ele>61.403738</ele>
        <time>2022-12-17T13:08:51.409Z</time>
      </trkpt>
      <trkpt lat="46.94732" lon="-1.82979">
        <ele>61.384028</ele>
        <time>2022-12-17T13:08:53.396Z</time>
      </trkpt>
      <trkpt lat="46.94722" lon="-1.82984">
        <ele>61.535222</ele>
        <time>2022-12-17T13:08:55.412Z</time>
      </trkpt>
      <trkpt lat="46.94713" lon="-1.82988">
        <ele>61.710633</ele>
        <time>2022-12-17T13:08:57.413Z</time>
      </trkpt>
      <trkpt lat="46.94704" lon="-1.82992">
        <ele>61.876487</ele>
        <time>2022-12-17T13:08:59.405Z</time>
      </trkpt>
      <trkpt lat="46.94692" lon="-1.82997">
        <ele>62.096413</ele>
        <time>2022-12-17T13:09:02.395Z</time>
      </trkpt>
      <trkpt lat="46.94681" lon="-1.83003">
        <ele>62.305451</ele>
        <time>2022-12-17T13:09:05.394Z</time>
      </trkpt>
      <trkpt lat="46.94669" lon="-1.83008">
        <ele>62.520984</ele>
        <time>2022-12-17T13:09:08.402Z</time>
      </trkpt>
      <trkpt lat="46.94657" lon="-1.83014">
        <ele>62.742613</ele>
        <time>2022-12-17T13:09:11.401Z</time>
      </trkpt>
      <trkpt lat="46.94646" lon="-1.83019">
        <ele>62.958145</ele>
        <time>2022-12-17T13:09:14.407Z</time>
      </trkpt>
      <trkpt lat="46.94634" lon="-1.83024">
        <ele>63.179119</ele>
        <time>2022-12-17T13:09:17.400Z</time>
      </trkpt>
      <trkpt lat="46.94621" lon="-1.8303">
        <ele>63.40723</ele>
        <time>2022-12-17T13:09:20.409Z</time>
      </trkpt>
      <trkpt lat="46.94609" lon="-1.83035">
        <ele>63.63499</ele>
        <time>2022-12-17T13:09:23.407Z</time>
      </trkpt>
      <trkpt lat="46.94596" lon="-1.83042">
        <ele>63.874894</ele>
        <time>2022-12-17T13:09:26.404Z</time>
      </trkpt>
      <trkpt lat="46.94587" lon="-1.83046">
        <ele>64.043576</ele>
        <time>2022-12-17T13:09:28.406Z</time>
      </trkpt>
      <trkpt lat="46.94578" lon="-1.8305">
        <ele>64.208353</ele>
        <time>2022-12-17T13:09:30.407Z</time>
      </trkpt>
      <trkpt lat="46.94566" lon="-1.83057">
        <ele>64.441205</ele>
        <time>2022-12-17T13:09:33.418Z</time>
      </trkpt>
      <trkpt lat="46.94554" lon="-1.83064">
        <ele>64.635319</ele>
        <time>2022-12-17T13:09:36.413Z</time>
      </trkpt>
      <trkpt lat="46.94545" lon="-1.83069">
        <ele>64.735497</ele>
        <time>2022-12-17T13:09:38.410Z</time>
      </trkpt>
      <trkpt lat="46.94537" lon="-1.83074">
        <ele>64.834385</ele>
        <time>2022-12-17T13:09:40.424Z</time>
      </trkpt>
      <trkpt lat="46.94528" lon="-1.8308">
        <ele>64.944192</ele>
        <time>2022-12-17T13:09:42.398Z</time>
      </trkpt>
      <trkpt lat="46.94516" lon="-1.83088">
        <ele>65.088197</ele>
        <time>2022-12-17T13:09:45.416Z</time>
      </trkpt>
      <trkpt lat="46.94505" lon="-1.83095">
        <ele>65.217755</ele>
        <time>2022-12-17T13:09:48.411Z</time>
      </trkpt>
      <trkpt lat="46.94495" lon="-1.83101">
        <ele>65.333848</ele>
        <time>2022-12-17T13:09:51.396Z</time>
      </trkpt>
      <trkpt lat="46.94484" lon="-1.83108">
        <ele>65.459002</ele>
        <time>2022-12-17T13:09:54.405Z</time>
      </trkpt>
      <trkpt lat="46.94474" lon="-1.83115">
        <ele>65.582176</ele>
        <time>2022-12-17T13:09:57.401Z</time>
      </trkpt>
      <trkpt lat="46.94464" lon="-1.83122">
        <ele>65.704991</ele>
        <time>2022-12-17T13:10:00.403Z</time>
      </trkpt>
      <trkpt lat="46.94453" lon="-1.83129">
        <ele>65.828475</ele>
        <time>2022-12-17T13:10:03.409Z</time>
      </trkpt>
      <trkpt lat="46.94443" lon="-1.83135">
        <ele>65.950739</ele>
        <time>2022-12-17T13:10:06.405Z</time>
      </trkpt>
      <trkpt lat="46.94433" lon="-1.83143">
        <ele>66.07192</ele>
        <time>2022-12-17T13:10:09.404Z</time>
      </trkpt>
      <trkpt lat="46.94423" lon="-1.83149">
        <ele>66.189012</ele>
        <time>2022-12-17T13:10:12.394Z</time>
      </trkpt>
      <trkpt lat="46.94413" lon="-1.83155">
        <ele>66.305402</ele>
        <time>2022-12-17T13:10:15.413Z</time>
      </trkpt>
      <trkpt lat="46.94404" lon="-1.83161">
        <ele>66.422494</ele>
        <time>2022-12-17T13:10:18.402Z</time>
      </trkpt>
      <trkpt lat="46.94395" lon="-1.83167">
        <ele>66.526142</ele>
        <time>2022-12-17T13:10:21.408Z</time>
      </trkpt>
      <trkpt lat="46.94385" lon="-1.83173">
        <ele>66.780304</ele>
        <time>2022-12-17T13:10:25.404Z</time>
      </trkpt>
      <trkpt lat="46.94374" lon="-1.83181">
        <ele>67.071691</ele>
        <time>2022-12-17T13:10:29.394Z</time>
      </trkpt>
      <trkpt lat="46.94364" lon="-1.83187">
        <ele>67.340925</ele>
        <time>2022-12-17T13:10:33.412Z</time>
      </trkpt>
      <trkpt lat="46.94355" lon="-1.83193">
        <ele>67.566182</ele>
        <time>2022-12-17T13:10:37.400Z</time>
      </trkpt>
      <trkpt lat="46.94346" lon="-1.83199">
        <ele>67.810089</ele>
        <time>2022-12-17T13:10:41.394Z</time>
      </trkpt>
      <trkpt lat="46.94337" lon="-1.83205">
        <ele>68.054357</ele>
        <time>2022-12-17T13:10:45.414Z</time>
      </trkpt>
      <trkpt lat="46.94328" lon="-1.83211">
        <ele>68.279085</ele>
        <time>2022-12-17T13:10:49.394Z</time>
      </trkpt>
      <trkpt lat="46.94319" lon="-1.83217">
        <ele>68.520128</ele>
        <time>2022-12-17T13:10:53.389Z</time>
      </trkpt>
      <trkpt lat="46.94309" lon="-1.83223">
        <ele>68.768534</ele>
        <time>2022-12-17T13:10:57.408Z</time>
      </trkpt>
      <trkpt lat="46.94299" lon="-1.8323">
        <ele>69.039689</ele>
        <time>2022-12-17T13:11:01.407Z</time>
      </trkpt>
      <trkpt lat="46.94288" lon="-1.83237">
        <ele>69.324056</ele>
        <time>2022-12-17T13:11:05.405Z</time>
      </trkpt>
      <trkpt lat="46.94279" lon="-1.83243">
        <ele>69.561073</ele>
        <time>2022-12-17T13:11:08.420Z</time>
      </trkpt>
      <trkpt lat="46.94269" lon="-1.83248">
        <ele>69.812401</ele>
        <time>2022-12-17T13:11:11.401Z</time>
      </trkpt>
      <trkpt lat="46.94258" lon="-1.83255">
        <ele>70.094659</ele>
        <time>2022-12-17T13:11:14.411Z</time>
      </trkpt>
      <trkpt lat="46.94247" lon="-1.83261">
        <ele>70.391509</ele>
        <time>2022-12-17T13:11:17.410Z</time>
      </trkpt>
      <trkpt lat="46.94235" lon="-1.83267">
        <ele>70.699187</ele>
        <time>2022-12-17T13:11:20.439Z</time>
      </trkpt>
      <trkpt lat="46.94222" lon="-1.83273">
        <ele>70.923704</ele>
        <time>2022-12-17T13:11:23.398Z</time>
      </trkpt>
      <trkpt lat="46.9421" lon="-1.83279">
        <ele>71.079461</ele>
        <time>2022-12-17T13:11:26.411Z</time>
      </trkpt>
      <trkpt lat="46.94198" lon="-1.83284">
        <ele>71.233988</ele>
        <time>2022-12-17T13:11:29.415Z</time>
      </trkpt>
      <trkpt lat="46.94186" lon="-1.83289">
        <ele>71.383441</ele>
        <time>2022-12-17T13:11:32.396Z</time>
      </trkpt>
      <trkpt lat="46.94174" lon="-1.83293">
        <ele>71.538181</ele>
        <time>2022-12-17T13:11:35.407Z</time>
      </trkpt>
      <trkpt lat="46.94161" lon="-1.83297">
        <ele>71.691934</ele>
        <time>2022-12-17T13:11:38.398Z</time>
      </trkpt>
      <trkpt lat="46.94148" lon="-1.83302">
        <ele>71.853974</ele>
        <time>2022-12-17T13:11:41.414Z</time>
      </trkpt>
      <trkpt lat="46.94135" lon="-1.83307">
        <ele>72.015813</ele>
        <time>2022-12-17T13:11:44.412Z</time>
      </trkpt>
      <trkpt lat="46.94123" lon="-1.83311">
        <ele>72.175662</ele>
        <time>2022-12-17T13:11:47.399Z</time>
      </trkpt>
      <trkpt lat="46.9411" lon="-1.83315">
        <ele>72.330213</ele>
        <time>2022-12-17T13:11:50.408Z</time>
      </trkpt>
      <trkpt lat="46.94098" lon="-1.83319">
        <ele>72.480148</ele>
        <time>2022-12-17T13:11:53.409Z</time>
      </trkpt>
      <trkpt lat="46.94087" lon="-1.83323">
        <ele>72.618026</ele>
        <time>2022-12-17T13:11:56.401Z</time>
      </trkpt>
      <trkpt lat="46.94076" lon="-1.83327">
        <ele>72.759801</ele>
        <time>2022-12-17T13:11:59.393Z</time>
      </trkpt>
      <trkpt lat="46.94064" lon="-1.83331">
        <ele>72.904515</ele>
        <time>2022-12-17T13:12:02.391Z</time>
      </trkpt>
      <trkpt lat="46.94052" lon="-1.83335">
        <ele>73.084496</ele>
        <time>2022-12-17T13:12:05.399Z</time>
      </trkpt>
      <trkpt lat="46.94041" lon="-1.83339">
        <ele>73.383456</ele>
        <time>2022-12-17T13:12:08.415Z</time>
      </trkpt>
      <trkpt lat="46.94029" lon="-1.83344">
        <ele>73.680222</ele>
        <time>2022-12-17T13:12:11.406Z</time>
      </trkpt>
      <trkpt lat="46.94018" lon="-1.83348">
        <ele>73.96757</ele>
        <time>2022-12-17T13:12:14.408Z</time>
      </trkpt>
      <trkpt lat="46.94007" lon="-1.83352">
        <ele>74.250861</ele>
        <time>2022-12-17T13:12:17.400Z</time>
      </trkpt>
      <trkpt lat="46.93996" lon="-1.83356">
        <ele>74.521694</ele>
        <time>2022-12-17T13:12:20.405Z</time>
      </trkpt>
      <trkpt lat="46.93985" lon="-1.8336">
        <ele>74.79775</ele>
        <time>2022-12-17T13:12:23.398Z</time>
      </trkpt>
      <trkpt lat="46.93975" lon="-1.83363">
        <ele>75.061488</ele>
        <time>2022-12-17T13:12:26.404Z</time>
      </trkpt>
      <trkpt lat="46.93965" lon="-1.83367">
        <ele>75.325579</ele>
        <time>2022-12-17T13:12:29.416Z</time>
      </trkpt>
      <trkpt lat="46.93954" lon="-1.8337">
        <ele>75.588641</ele>
        <time>2022-12-17T13:12:32.396Z</time>
      </trkpt>
      <trkpt lat="46.93944" lon="-1.83372">
        <ele>75.850197</ele>
        <time>2022-12-17T13:12:35.399Z</time>
      </trkpt>
      <trkpt lat="46.93933" lon="-1.83375">
        <ele>76.126776</ele>
        <time>2022-12-17T13:12:38.404Z</time>
      </trkpt>
      <trkpt lat="46.93922" lon="-1.83379">
        <ele>76.410642</ele>
        <time>2022-12-17T13:12:41.416Z</time>
      </trkpt>
      <trkpt lat="46.93911" lon="-1.83382">
        <ele>76.694507</ele>
        <time>2022-12-17T13:12:44.410Z</time>
      </trkpt>
      <trkpt lat="46.93899" lon="-1.83385">
        <ele>76.977704</ele>
        <time>2022-12-17T13:12:47.400Z</time>
      </trkpt>
      <trkpt lat="46.93888" lon="-1.83388">
        <ele>77.252643</ele>
        <time>2022-12-17T13:12:50.407Z</time>
      </trkpt>
      <trkpt lat="46.9388" lon="-1.83391">
        <ele>77.477546</ele>
        <time>2022-12-17T13:12:53.401Z</time>
      </trkpt>
      <trkpt lat="46.93868" lon="-1.83394">
        <ele>77.530521</ele>
        <time>2022-12-17T13:12:57.409Z</time>
      </trkpt>
      <trkpt lat="46.93859" lon="-1.83397">
        <ele>77.569332</ele>
        <time>2022-12-17T13:13:00.411Z</time>
      </trkpt>
      <trkpt lat="46.9385" lon="-1.834">
        <ele>77.608516</ele>
        <time>2022-12-17T13:13:03.407Z</time>
      </trkpt>
      <trkpt lat="46.93841" lon="-1.83403">
        <ele>77.647022</ele>
        <time>2022-12-17T13:13:06.393Z</time>
      </trkpt>
      <trkpt lat="46.93833" lon="-1.83407">
        <ele>77.685045</ele>
        <time>2022-12-17T13:13:09.407Z</time>
      </trkpt>
      <trkpt lat="46.93821" lon="-1.83411">
        <ele>77.73485</ele>
        <time>2022-12-17T13:13:13.407Z</time>
      </trkpt>
      <trkpt lat="46.93811" lon="-1.83417">
        <ele>77.781574</ele>
        <time>2022-12-17T13:13:17.407Z</time>
      </trkpt>
      <trkpt lat="46.93801" lon="-1.83423">
        <ele>77.827187</ele>
        <time>2022-12-17T13:13:21.409Z</time>
      </trkpt>
      <trkpt lat="46.93793" lon="-1.83429">
        <ele>77.86662</ele>
        <time>2022-12-17T13:13:24.389Z</time>
      </trkpt>
      <trkpt lat="46.93784" lon="-1.83435">
        <ele>77.9087</ele>
        <time>2022-12-17T13:13:27.408Z</time>
      </trkpt>
      <trkpt lat="46.93774" lon="-1.83442">
        <ele>77.953206</ele>
        <time>2022-12-17T13:13:30.411Z</time>
      </trkpt>
      <trkpt lat="46.93765" lon="-1.8345">
        <ele>77.999937</ele>
        <time>2022-12-17T13:13:33.400Z</time>
      </trkpt>
      <trkpt lat="46.93755" lon="-1.83458">
        <ele>78.0482</ele>
        <time>2022-12-17T13:13:36.401Z</time>
      </trkpt>
      <trkpt lat="46.93745" lon="-1.83468">
        <ele>78.097219</ele>
        <time>2022-12-17T13:13:39.407Z</time>
      </trkpt>
      <trkpt lat="46.93736" lon="-1.83478">
        <ele>78.147911</ele>
        <time>2022-12-17T13:13:42.396Z</time>
      </trkpt>
      <trkpt lat="46.93726" lon="-1.8349">
        <ele>78.201588</ele>
        <time>2022-12-17T13:13:45.397Z</time>
      </trkpt>
      <trkpt lat="46.93716" lon="-1.83504">
        <ele>78.259019</ele>
        <time>2022-12-17T13:13:48.399Z</time>
      </trkpt>
      <trkpt lat="46.93708" lon="-1.83517">
        <ele>78.317935</ele>
        <time>2022-12-17T13:13:51.407Z</time>
      </trkpt>
      <trkpt lat="46.937" lon="-1.8353">
        <ele>78.376215</ele>
        <time>2022-12-17T13:13:54.413Z</time>
      </trkpt>
      <trkpt lat="46.93692" lon="-1.83545">
        <ele>78.436071</ele>
        <time>2022-12-17T13:13:57.400Z</time>
      </trkpt>
      <trkpt lat="46.93685" lon="-1.83561">
        <ele>78.499542</ele>
        <time>2022-12-17T13:14:00.400Z</time>
      </trkpt>
      <trkpt lat="46.9368" lon="-1.83572">
        <ele>78.543653</ele>
        <time>2022-12-17T13:14:02.403Z</time>
      </trkpt>
      <trkpt lat="46.93674" lon="-1.83583">
        <ele>78.587761</ele>
        <time>2022-12-17T13:14:04.410Z</time>
      </trkpt>
      <trkpt lat="46.93668" lon="-1.836">
        <ele>78.649938</ele>
        <time>2022-12-17T13:14:07.398Z</time>
      </trkpt>
      <trkpt lat="46.93661" lon="-1.83614">
        <ele>78.708036</ele>
        <time>2022-12-17T13:14:10.408Z</time>
      </trkpt>
      <trkpt lat="46.93654" lon="-1.8363">
        <ele>78.767798</ele>
        <time>2022-12-17T13:14:13.411Z</time>
      </trkpt>
      <trkpt lat="46.93647" lon="-1.83646">
        <ele>78.830998</ele>
        <time>2022-12-17T13:14:16.411Z</time>
      </trkpt>
      <trkpt lat="46.93639" lon="-1.83662">
        <ele>78.893929</ele>
        <time>2022-12-17T13:14:19.427Z</time>
      </trkpt>
      <trkpt lat="46.93633" lon="-1.83676">
        <ele>78.950143</ele>
        <time>2022-12-17T13:14:22.393Z</time>
      </trkpt>
      <trkpt lat="46.93627" lon="-1.8369">
        <ele>79.002665</ele>
        <time>2022-12-17T13:14:25.404Z</time>
      </trkpt>
      <trkpt lat="46.93625" lon="-1.83706">
        <ele>79.054508</ele>
        <time>2022-12-17T13:14:28.410Z</time>
      </trkpt>
      <trkpt lat="46.93629" lon="-1.83722">
        <ele>79.090646</ele>
        <time>2022-12-17T13:14:31.396Z</time>
      </trkpt>
      <trkpt lat="46.93631" lon="-1.83739">
        <ele>79.01728</ele>
        <time>2022-12-17T13:14:34.417Z</time>
      </trkpt>
      <trkpt lat="46.93626" lon="-1.83754">
        <ele>78.946737</ele>
        <time>2022-12-17T13:14:37.396Z</time>
      </trkpt>
      <trkpt lat="46.93619" lon="-1.83768">
        <ele>78.877517</ele>
        <time>2022-12-17T13:14:40.403Z</time>
      </trkpt>
      <trkpt lat="46.93619" lon="-1.83783">
        <ele>78.814981</ele>
        <time>2022-12-17T13:14:43.401Z</time>
      </trkpt>
      <trkpt lat="46.93622" lon="-1.838">
        <ele>78.741667</ele>
        <time>2022-12-17T13:14:46.399Z</time>
      </trkpt>
      <trkpt lat="46.93626" lon="-1.83819">
        <ele>78.65801</ele>
        <time>2022-12-17T13:14:49.400Z</time>
      </trkpt>
      <trkpt lat="46.93629" lon="-1.83833">
        <ele>78.599188</ele>
        <time>2022-12-17T13:14:51.408Z</time>
      </trkpt>
      <trkpt lat="46.93631" lon="-1.83846">
        <ele>78.543224</ele>
        <time>2022-12-17T13:14:53.411Z</time>
      </trkpt>
      <trkpt lat="46.93634" lon="-1.83859">
        <ele>78.484576</ele>
        <time>2022-12-17T13:14:55.408Z</time>
      </trkpt>
      <trkpt lat="46.93637" lon="-1.83873">
        <ele>78.423019</ele>
        <time>2022-12-17T13:14:57.404Z</time>
      </trkpt>
      <trkpt lat="46.9364" lon="-1.83888">
        <ele>78.359885</ele>
        <time>2022-12-17T13:14:59.404Z</time>
      </trkpt>
      <trkpt lat="46.93643" lon="-1.83902">
        <ele>78.297914</ele>
        <time>2022-12-17T13:15:01.412Z</time>
      </trkpt>
      <trkpt lat="46.93646" lon="-1.83916">
        <ele>78.235323</ele>
        <time>2022-12-17T13:15:03.435Z</time>
      </trkpt>
      <trkpt lat="46.93649" lon="-1.83931">
        <ele>78.172331</ele>
        <time>2022-12-17T13:15:05.401Z</time>
      </trkpt>
      <trkpt lat="46.93652" lon="-1.83945">
        <ele>78.110574</ele>
        <time>2022-12-17T13:15:07.402Z</time>
      </trkpt>
      <trkpt lat="46.93655" lon="-1.83959">
        <ele>78.051608</ele>
        <time>2022-12-17T13:15:09.394Z</time>
      </trkpt>
      <trkpt lat="46.93658" lon="-1.83971">
        <ele>77.999269</ele>
        <time>2022-12-17T13:15:11.413Z</time>
      </trkpt>
      <trkpt lat="46.93661" lon="-1.83986">
        <ele>77.970972</ele>
        <time>2022-12-17T13:15:13.405Z</time>
      </trkpt>
      <trkpt lat="46.93664" lon="-1.84">
        <ele>77.941593</ele>
        <time>2022-12-17T13:15:15.407Z</time>
      </trkpt>
      <trkpt lat="46.93667" lon="-1.84015">
        <ele>77.912224</ele>
        <time>2022-12-17T13:15:17.404Z</time>
      </trkpt>
      <trkpt lat="46.93671" lon="-1.84029">
        <ele>77.882759</ele>
        <time>2022-12-17T13:15:19.409Z</time>
      </trkpt>
      <trkpt lat="46.93674" lon="-1.84044">
        <ele>77.853025</ele>
        <time>2022-12-17T13:15:21.409Z</time>
      </trkpt>
      <trkpt lat="46.93677" lon="-1.84059">
        <ele>77.823032</ele>
        <time>2022-12-17T13:15:23.408Z</time>
      </trkpt>
      <trkpt lat="46.9368" lon="-1.84074">
        <ele>77.792297</ele>
        <time>2022-12-17T13:15:25.427Z</time>
      </trkpt>
      <trkpt lat="46.93683" lon="-1.8409">
        <ele>77.760196</ele>
        <time>2022-12-17T13:15:27.410Z</time>
      </trkpt>
      <trkpt lat="46.93687" lon="-1.84106">
        <ele>77.728631</ele>
        <time>2022-12-17T13:15:29.410Z</time>
      </trkpt>
      <trkpt lat="46.93691" lon="-1.84122">
        <ele>77.69508</ele>
        <time>2022-12-17T13:15:31.412Z</time>
      </trkpt>
      <trkpt lat="46.93694" lon="-1.84138">
        <ele>77.664598</ele>
        <time>2022-12-17T13:15:33.410Z</time>
      </trkpt>
      <trkpt lat="46.93697" lon="-1.84153">
        <ele>77.632766</ele>
        <time>2022-12-17T13:15:35.397Z</time>
      </trkpt>
      <trkpt lat="46.937" lon="-1.84169">
        <ele>77.60191</ele>
        <time>2022-12-17T13:15:37.403Z</time>
      </trkpt>
      <trkpt lat="46.93702" lon="-1.84184">
        <ele>77.57173</ele>
        <time>2022-12-17T13:15:39.397Z</time>
      </trkpt>
      <trkpt lat="46.93705" lon="-1.84198">
        <ele>77.543618</ele>
        <time>2022-12-17T13:15:41.408Z</time>
      </trkpt>
      <trkpt lat="46.93708" lon="-1.84213">
        <ele>77.513997</ele>
        <time>2022-12-17T13:15:43.408Z</time>
      </trkpt>
      <trkpt lat="46.93711" lon="-1.84228">
        <ele>77.458395</ele>
        <time>2022-12-17T13:15:45.404Z</time>
      </trkpt>
      <trkpt lat="46.93714" lon="-1.84244">
        <ele>77.37101</ele>
        <time>2022-12-17T13:15:47.413Z</time>
      </trkpt>
      <trkpt lat="46.93717" lon="-1.84261">
        <ele>77.276829</ele>
        <time>2022-12-17T13:15:49.409Z</time>
      </trkpt>
      <trkpt lat="46.93719" lon="-1.84278">
        <ele>77.185799</ele>
        <time>2022-12-17T13:15:51.406Z</time>
      </trkpt>
      <trkpt lat="46.93721" lon="-1.84295">
        <ele>77.091266</ele>
        <time>2022-12-17T13:15:53.398Z</time>
      </trkpt>
      <trkpt lat="46.93723" lon="-1.84312">
        <ele>76.999735</ele>
        <time>2022-12-17T13:15:55.402Z</time>
      </trkpt>
      <trkpt lat="46.93724" lon="-1.8433">
        <ele>76.903518</ele>
        <time>2022-12-17T13:15:57.406Z</time>
      </trkpt>
      <trkpt lat="46.93725" lon="-1.84348">
        <ele>76.806748</ele>
        <time>2022-12-17T13:15:59.393Z</time>
      </trkpt>
      <trkpt lat="46.93725" lon="-1.84366">
        <ele>76.711255</ele>
        <time>2022-12-17T13:16:01.414Z</time>
      </trkpt>
      <trkpt lat="46.93725" lon="-1.84384">
        <ele>76.615175</ele>
        <time>2022-12-17T13:16:03.401Z</time>
      </trkpt>
      <trkpt lat="46.93725" lon="-1.84401">
        <ele>76.520206</ele>
        <time>2022-12-17T13:16:05.401Z</time>
      </trkpt>
      <trkpt lat="46.93724" lon="-1.84419">
        <ele>76.425042</ele>
        <time>2022-12-17T13:16:07.399Z</time>
      </trkpt>
      <trkpt lat="46.93724" lon="-1.84436">
        <ele>76.334256</ele>
        <time>2022-12-17T13:16:09.417Z</time>
      </trkpt>
      <trkpt lat="46.93723" lon="-1.84452">
        <ele>76.246992</ele>
        <time>2022-12-17T13:16:11.402Z</time>
      </trkpt>
      <trkpt lat="46.9372" lon="-1.84467">
        <ele>76.162072</ele>
        <time>2022-12-17T13:16:13.405Z</time>
      </trkpt>
      <trkpt lat="46.93718" lon="-1.84482">
        <ele>76.073655</ele>
        <time>2022-12-17T13:16:15.405Z</time>
      </trkpt>
      <trkpt lat="46.93714" lon="-1.84498">
        <ele>75.872654</ele>
        <time>2022-12-17T13:16:17.406Z</time>
      </trkpt>
      <trkpt lat="46.93711" lon="-1.84514">
        <ele>75.678044</ele>
        <time>2022-12-17T13:16:19.418Z</time>
      </trkpt>
      <trkpt lat="46.93707" lon="-1.84529">
        <ele>75.476581</ele>
        <time>2022-12-17T13:16:21.410Z</time>
      </trkpt>
      <trkpt lat="46.93704" lon="-1.84545">
        <ele>75.271686</ele>
        <time>2022-12-17T13:16:23.409Z</time>
      </trkpt>
      <trkpt lat="46.937" lon="-1.84562">
        <ele>75.053625</ele>
        <time>2022-12-17T13:16:25.416Z</time>
      </trkpt>
      <trkpt lat="46.93696" lon="-1.8458">
        <ele>74.833852</ele>
        <time>2022-12-17T13:16:27.406Z</time>
      </trkpt>
      <trkpt lat="46.93692" lon="-1.84596">
        <ele>74.619795</ele>
        <time>2022-12-17T13:16:29.422Z</time>
      </trkpt>
      <trkpt lat="46.93688" lon="-1.84612">
        <ele>74.413171</ele>
        <time>2022-12-17T13:16:31.413Z</time>
      </trkpt>
      <trkpt lat="46.93684" lon="-1.84629">
        <ele>74.200074</ele>
        <time>2022-12-17T13:16:33.403Z</time>
      </trkpt>
      <trkpt lat="46.93682" lon="-1.84645">
        <ele>74.001145</ele>
        <time>2022-12-17T13:16:35.412Z</time>
      </trkpt>
      <trkpt lat="46.9368" lon="-1.84661">
        <ele>73.804079</ele>
        <time>2022-12-17T13:16:37.405Z</time>
      </trkpt>
      <trkpt lat="46.93679" lon="-1.84677">
        <ele>73.609577</ele>
        <time>2022-12-17T13:16:39.408Z</time>
      </trkpt>
      <trkpt lat="46.93677" lon="-1.84693">
        <ele>73.414919</ele>
        <time>2022-12-17T13:16:41.397Z</time>
      </trkpt>
      <trkpt lat="46.93676" lon="-1.84708">
        <ele>73.23577</ele>
        <time>2022-12-17T13:16:43.405Z</time>
      </trkpt>
      <trkpt lat="46.93677" lon="-1.84724">
        <ele>73.046254</ele>
        <time>2022-12-17T13:16:45.401Z</time>
      </trkpt>
      <trkpt lat="46.93678" lon="-1.8474">
        <ele>72.891478</ele>
        <time>2022-12-17T13:16:47.400Z</time>
      </trkpt>
      <trkpt lat="46.93679" lon="-1.84755">
        <ele>72.865643</ele>
        <time>2022-12-17T13:16:49.412Z</time>
      </trkpt>
      <trkpt lat="46.9368" lon="-1.8477">
        <ele>72.83904</ele>
        <time>2022-12-17T13:16:51.409Z</time>
      </trkpt>
      <trkpt lat="46.93681" lon="-1.84786">
        <ele>72.812699</ele>
        <time>2022-12-17T13:16:53.415Z</time>
      </trkpt>
      <trkpt lat="46.93682" lon="-1.84801">
        <ele>72.786403</ele>
        <time>2022-12-17T13:16:55.404Z</time>
      </trkpt>
      <trkpt lat="46.93683" lon="-1.84817">
        <ele>72.759872</ele>
        <time>2022-12-17T13:16:57.408Z</time>
      </trkpt>
      <trkpt lat="46.93683" lon="-1.84833">
        <ele>72.732053</ele>
        <time>2022-12-17T13:16:59.403Z</time>
      </trkpt>
      <trkpt lat="46.93683" lon="-1.84849">
        <ele>72.705616</ele>
        <time>2022-12-17T13:17:01.427Z</time>
      </trkpt>
      <trkpt lat="46.93683" lon="-1.84865">
        <ele>72.678492</ele>
        <time>2022-12-17T13:17:03.413Z</time>
      </trkpt>
      <trkpt lat="46.93683" lon="-1.84881">
        <ele>72.651373</ele>
        <time>2022-12-17T13:17:05.407Z</time>
      </trkpt>
      <trkpt lat="46.93683" lon="-1.84898">
        <ele>72.623063</ele>
        <time>2022-12-17T13:17:07.413Z</time>
      </trkpt>
      <trkpt lat="46.93682" lon="-1.84915">
        <ele>72.594017</ele>
        <time>2022-12-17T13:17:09.410Z</time>
      </trkpt>
      <trkpt lat="46.93681" lon="-1.84932">
        <ele>72.563899</ele>
        <time>2022-12-17T13:17:11.410Z</time>
      </trkpt>
      <trkpt lat="46.9368" lon="-1.8495">
        <ele>72.534713</ele>
        <time>2022-12-17T13:17:13.399Z</time>
      </trkpt>
      <trkpt lat="46.93678" lon="-1.84968">
        <ele>72.503642</ele>
        <time>2022-12-17T13:17:15.440Z</time>
      </trkpt>
      <trkpt lat="46.93676" lon="-1.84985">
        <ele>72.473154</ele>
        <time>2022-12-17T13:17:17.413Z</time>
      </trkpt>
      <trkpt lat="46.93673" lon="-1.85004">
        <ele>72.413606</ele>
        <time>2022-12-17T13:17:19.397Z</time>
      </trkpt>
      <trkpt lat="46.9367" lon="-1.85021">
        <ele>72.298322</ele>
        <time>2022-12-17T13:17:21.412Z</time>
      </trkpt>
      <trkpt lat="46.93666" lon="-1.85038">
        <ele>72.184362</ele>
        <time>2022-12-17T13:17:23.413Z</time>
      </trkpt>
      <trkpt lat="46.93663" lon="-1.85055">
        <ele>72.071902</ele>
        <time>2022-12-17T13:17:25.419Z</time>
      </trkpt>
      <trkpt lat="46.9366" lon="-1.85072">
        <ele>71.955381</ele>
        <time>2022-12-17T13:17:27.409Z</time>
      </trkpt>
      <trkpt lat="46.93656" lon="-1.85088">
        <ele>71.845364</ele>
        <time>2022-12-17T13:17:29.398Z</time>
      </trkpt>
      <trkpt lat="46.93652" lon="-1.85104">
        <ele>71.737852</ele>
        <time>2022-12-17T13:17:31.407Z</time>
      </trkpt>
      <trkpt lat="46.93648" lon="-1.85119">
        <ele>71.634595</ele>
        <time>2022-12-17T13:17:33.416Z</time>
      </trkpt>
      <trkpt lat="46.93645" lon="-1.85135">
        <ele>71.527082</ele>
        <time>2022-12-17T13:17:35.403Z</time>
      </trkpt>
      <trkpt lat="46.93641" lon="-1.85151">
        <ele>71.418351</ele>
        <time>2022-12-17T13:17:37.409Z</time>
      </trkpt>
      <trkpt lat="46.93638" lon="-1.85168">
        <ele>71.30712</ele>
        <time>2022-12-17T13:17:39.415Z</time>
      </trkpt>
      <trkpt lat="46.93633" lon="-1.85185">
        <ele>71.1908</ele>
        <time>2022-12-17T13:17:41.400Z</time>
      </trkpt>
      <trkpt lat="46.9363" lon="-1.85202">
        <ele>71.076565</ele>
        <time>2022-12-17T13:17:43.403Z</time>
      </trkpt>
      <trkpt lat="46.93626" lon="-1.85217">
        <ele>70.971147</ele>
        <time>2022-12-17T13:17:45.413Z</time>
      </trkpt>
      <trkpt lat="46.93622" lon="-1.85234">
        <ele>70.855433</ele>
        <time>2022-12-17T13:17:47.404Z</time>
      </trkpt>
      <trkpt lat="46.93618" lon="-1.85251">
        <ele>70.734547</ele>
        <time>2022-12-17T13:17:49.408Z</time>
      </trkpt>
      <trkpt lat="46.93615" lon="-1.85268">
        <ele>70.578705</ele>
        <time>2022-12-17T13:17:51.402Z</time>
      </trkpt>
      <trkpt lat="46.93611" lon="-1.85284">
        <ele>70.427083</ele>
        <time>2022-12-17T13:17:53.399Z</time>
      </trkpt>
      <trkpt lat="46.93609" lon="-1.853">
        <ele>70.278607</ele>
        <time>2022-12-17T13:17:55.413Z</time>
      </trkpt>
      <trkpt lat="46.93606" lon="-1.85316">
        <ele>70.126841</ele>
        <time>2022-12-17T13:17:57.414Z</time>
      </trkpt>
      <trkpt lat="46.93605" lon="-1.85333">
        <ele>69.972565</ele>
        <time>2022-12-17T13:17:59.412Z</time>
      </trkpt>
      <trkpt lat="46.93604" lon="-1.85349">
        <ele>69.826691</ele>
        <time>2022-12-17T13:18:01.414Z</time>
      </trkpt>
      <trkpt lat="46.93604" lon="-1.85366">
        <ele>69.677441</ele>
        <time>2022-12-17T13:18:03.410Z</time>
      </trkpt>
      <trkpt lat="46.93605" lon="-1.85382">
        <ele>69.532547</ele>
        <time>2022-12-17T13:18:05.410Z</time>
      </trkpt>
      <trkpt lat="46.93607" lon="-1.85397">
        <ele>69.393054</ele>
        <time>2022-12-17T13:18:07.406Z</time>
      </trkpt>
      <trkpt lat="46.93609" lon="-1.85412">
        <ele>69.24953</ele>
        <time>2022-12-17T13:18:09.404Z</time>
      </trkpt>
      <trkpt lat="46.93611" lon="-1.8543">
        <ele>69.085929</ele>
        <time>2022-12-17T13:18:11.406Z</time>
      </trkpt>
      <trkpt lat="46.93613" lon="-1.85448">
        <ele>68.924785</ele>
        <time>2022-12-17T13:18:13.422Z</time>
      </trkpt>
      <trkpt lat="46.93616" lon="-1.85466">
        <ele>68.757539</ele>
        <time>2022-12-17T13:18:15.409Z</time>
      </trkpt>
      <trkpt lat="46.93618" lon="-1.85485">
        <ele>68.585488</ele>
        <time>2022-12-17T13:18:17.406Z</time>
      </trkpt>
      <trkpt lat="46.9362" lon="-1.85504">
        <ele>68.41059</ele>
        <time>2022-12-17T13:18:19.392Z</time>
      </trkpt>
      <trkpt lat="46.93621" lon="-1.85523">
        <ele>68.237534</ele>
        <time>2022-12-17T13:18:21.404Z</time>
      </trkpt>
      <trkpt lat="46.93623" lon="-1.85542">
        <ele>68.065997</ele>
        <time>2022-12-17T13:18:23.414Z</time>
      </trkpt>
      <trkpt lat="46.93625" lon="-1.85561">
        <ele>67.900839</ele>
        <time>2022-12-17T13:18:25.404Z</time>
      </trkpt>
      <trkpt lat="46.93626" lon="-1.85579">
        <ele>67.741116</ele>
        <time>2022-12-17T13:18:27.407Z</time>
      </trkpt>
      <trkpt lat="46.93627" lon="-1.85596">
        <ele>67.586102</ele>
        <time>2022-12-17T13:18:29.410Z</time>
      </trkpt>
      <trkpt lat="46.93628" lon="-1.85613">
        <ele>67.440027</ele>
        <time>2022-12-17T13:18:31.408Z</time>
      </trkpt>
      <trkpt lat="46.93629" lon="-1.8563">
        <ele>67.290444</ele>
        <time>2022-12-17T13:18:33.415Z</time>
      </trkpt>
      <trkpt lat="46.9363" lon="-1.85647">
        <ele>67.13622</ele>
        <time>2022-12-17T13:18:35.424Z</time>
      </trkpt>
      <trkpt lat="46.93632" lon="-1.85665">
        <ele>66.971239</ele>
        <time>2022-12-17T13:18:37.398Z</time>
      </trkpt>
      <trkpt lat="46.93633" lon="-1.85684">
        <ele>66.804835</ele>
        <time>2022-12-17T13:18:39.419Z</time>
      </trkpt>
      <trkpt lat="46.93634" lon="-1.85703">
        <ele>66.640328</ele>
        <time>2022-12-17T13:18:41.409Z</time>
      </trkpt>
      <trkpt lat="46.93635" lon="-1.85722">
        <ele>66.470039</ele>
        <time>2022-12-17T13:18:43.406Z</time>
      </trkpt>
      <trkpt lat="46.93637" lon="-1.85741">
        <ele>66.300678</ele>
        <time>2022-12-17T13:18:45.409Z</time>
      </trkpt>
      <trkpt lat="46.93638" lon="-1.8576">
        <ele>66.131374</ele>
        <time>2022-12-17T13:18:47.404Z</time>
      </trkpt>
      <trkpt lat="46.93638" lon="-1.85779">
        <ele>65.987617</ele>
        <time>2022-12-17T13:18:49.400Z</time>
      </trkpt>
      <trkpt lat="46.9364" lon="-1.85796">
        <ele>65.873751</ele>
        <time>2022-12-17T13:18:51.405Z</time>
      </trkpt>
      <trkpt lat="46.93641" lon="-1.85815">
        <ele>65.752514</ele>
        <time>2022-12-17T13:18:53.411Z</time>
      </trkpt>
      <trkpt lat="46.93643" lon="-1.85834">
        <ele>65.627412</ele>
        <time>2022-12-17T13:18:55.413Z</time>
      </trkpt>
      <trkpt lat="46.93644" lon="-1.85853">
        <ele>65.501743</ele>
        <time>2022-12-17T13:18:57.418Z</time>
      </trkpt>
      <trkpt lat="46.93645" lon="-1.85872">
        <ele>65.3742</ele>
        <time>2022-12-17T13:18:59.411Z</time>
      </trkpt>
      <trkpt lat="46.93645" lon="-1.85892">
        <ele>65.245002</ele>
        <time>2022-12-17T13:19:01.402Z</time>
      </trkpt>
      <trkpt lat="46.93646" lon="-1.85912">
        <ele>65.117383</ele>
        <time>2022-12-17T13:19:03.414Z</time>
      </trkpt>
      <trkpt lat="46.93648" lon="-1.8593">
        <ele>64.995363</ele>
        <time>2022-12-17T13:19:05.402Z</time>
      </trkpt>
      <trkpt lat="46.9365" lon="-1.85949">
        <ele>64.871795</ele>
        <time>2022-12-17T13:19:07.409Z</time>
      </trkpt>
      <trkpt lat="46.93651" lon="-1.85967">
        <ele>64.754484</ele>
        <time>2022-12-17T13:19:09.407Z</time>
      </trkpt>
      <trkpt lat="46.93652" lon="-1.85985">
        <ele>64.635467</ele>
        <time>2022-12-17T13:19:11.403Z</time>
      </trkpt>
      <trkpt lat="46.93652" lon="-1.86003">
        <ele>64.520575</ele>
        <time>2022-12-17T13:19:13.405Z</time>
      </trkpt>
      <trkpt lat="46.93653" lon="-1.8602">
        <ele>64.405303</ele>
        <time>2022-12-17T13:19:15.409Z</time>
      </trkpt>
      <trkpt lat="46.93655" lon="-1.86037">
        <ele>64.351186</ele>
        <time>2022-12-17T13:19:17.421Z</time>
      </trkpt>
      <trkpt lat="46.93655" lon="-1.86055">
        <ele>64.405881</ele>
        <time>2022-12-17T13:19:19.411Z</time>
      </trkpt>
      <trkpt lat="46.93657" lon="-1.86073">
        <ele>64.461372</ele>
        <time>2022-12-17T13:19:21.415Z</time>
      </trkpt>
      <trkpt lat="46.93658" lon="-1.86089">
        <ele>64.513826</ele>
        <time>2022-12-17T13:19:23.420Z</time>
      </trkpt>
      <trkpt lat="46.93659" lon="-1.86107">
        <ele>64.567689</ele>
        <time>2022-12-17T13:19:25.406Z</time>
      </trkpt>
      <trkpt lat="46.9366" lon="-1.86125">
        <ele>64.623947</ele>
        <time>2022-12-17T13:19:27.414Z</time>
      </trkpt>
      <trkpt lat="46.93662" lon="-1.86143">
        <ele>64.680364</ele>
        <time>2022-12-17T13:19:29.410Z</time>
      </trkpt>
      <trkpt lat="46.93663" lon="-1.86161">
        <ele>64.737667</ele>
        <time>2022-12-17T13:19:31.409Z</time>
      </trkpt>
      <trkpt lat="46.93664" lon="-1.86179">
        <ele>64.794084</ele>
        <time>2022-12-17T13:19:33.407Z</time>
      </trkpt>
      <trkpt lat="46.93665" lon="-1.86197">
        <ele>64.849184</ele>
        <time>2022-12-17T13:19:35.411Z</time>
      </trkpt>
      <trkpt lat="46.93666" lon="-1.86213">
        <ele>64.898865</ele>
        <time>2022-12-17T13:19:37.406Z</time>
      </trkpt>
      <trkpt lat="46.93667" lon="-1.8623">
        <ele>64.950915</ele>
        <time>2022-12-17T13:19:39.417Z</time>
      </trkpt>
      <trkpt lat="46.93668" lon="-1.86247">
        <ele>65.003997</ele>
        <time>2022-12-17T13:19:41.407Z</time>
      </trkpt>
      <trkpt lat="46.93669" lon="-1.86263">
        <ele>65.054152</ele>
        <time>2022-12-17T13:19:43.420Z</time>
      </trkpt>
      <trkpt lat="46.93669" lon="-1.86278">
        <ele>65.101077</ele>
        <time>2022-12-17T13:19:45.422Z</time>
      </trkpt>
      <trkpt lat="46.9367" lon="-1.86292">
        <ele>65.145215</ele>
        <time>2022-12-17T13:19:47.410Z</time>
      </trkpt>
      <trkpt lat="46.93671" lon="-1.86306">
        <ele>65.089142</ele>
        <time>2022-12-17T13:19:49.403Z</time>
      </trkpt>
      <trkpt lat="46.93672" lon="-1.86326">
        <ele>64.986461</ele>
        <time>2022-12-17T13:19:52.399Z</time>
      </trkpt>
      <trkpt lat="46.93673" lon="-1.86341">
        <ele>64.909265</ele>
        <time>2022-12-17T13:19:54.418Z</time>
      </trkpt>
      <trkpt lat="46.93674" lon="-1.86357">
        <ele>64.830843</ele>
        <time>2022-12-17T13:19:56.410Z</time>
      </trkpt>
      <trkpt lat="46.93675" lon="-1.86372">
        <ele>64.753728</ele>
        <time>2022-12-17T13:19:58.402Z</time>
      </trkpt>
      <trkpt lat="46.93676" lon="-1.86387">
        <ele>64.675028</ele>
        <time>2022-12-17T13:20:00.405Z</time>
      </trkpt>
      <trkpt lat="46.93678" lon="-1.86402">
        <ele>64.598434</ele>
        <time>2022-12-17T13:20:02.398Z</time>
      </trkpt>
      <trkpt lat="46.93679" lon="-1.86417">
        <ele>64.524909</ele>
        <time>2022-12-17T13:20:04.418Z</time>
      </trkpt>
      <trkpt lat="46.93681" lon="-1.86431">
        <ele>64.453578</ele>
        <time>2022-12-17T13:20:06.403Z</time>
      </trkpt>
      <trkpt lat="46.93683" lon="-1.86449">
        <ele>64.360078</ele>
        <time>2022-12-17T13:20:09.401Z</time>
      </trkpt>
      <trkpt lat="46.93684" lon="-1.86465">
        <ele>64.2766</ele>
        <time>2022-12-17T13:20:12.400Z</time>
      </trkpt>
      <trkpt lat="46.93687" lon="-1.86481">
        <ele>64.197546</ele>
        <time>2022-12-17T13:20:15.428Z</time>
      </trkpt>
      <trkpt lat="46.93691" lon="-1.86498">
        <ele>64.105153</ele>
        <time>2022-12-17T13:20:18.408Z</time>
      </trkpt>
      <trkpt lat="46.93694" lon="-1.86517">
        <ele>64.00733</ele>
        <time>2022-12-17T13:20:21.417Z</time>
      </trkpt>
      <trkpt lat="46.93697" lon="-1.86529">
        <ele>63.939291</ele>
        <time>2022-12-17T13:20:23.415Z</time>
      </trkpt>
      <trkpt lat="46.93699" lon="-1.86542">
        <ele>63.87221</ele>
        <time>2022-12-17T13:20:25.408Z</time>
      </trkpt>
      <trkpt lat="46.93702" lon="-1.86555">
        <ele>63.823376</ele>
        <time>2022-12-17T13:20:27.427Z</time>
      </trkpt>
      <trkpt lat="46.93705" lon="-1.86568">
        <ele>63.833974</ele>
        <time>2022-12-17T13:20:29.409Z</time>
      </trkpt>
      <trkpt lat="46.93707" lon="-1.86581">
        <ele>63.84433</ele>
        <time>2022-12-17T13:20:31.409Z</time>
      </trkpt>
      <trkpt lat="46.9371" lon="-1.86595">
        <ele>63.855992</ele>
        <time>2022-12-17T13:20:33.423Z</time>
      </trkpt>
      <trkpt lat="46.93714" lon="-1.8661">
        <ele>63.867684</ele>
        <time>2022-12-17T13:20:35.409Z</time>
      </trkpt>
      <trkpt lat="46.93716" lon="-1.86622">
        <ele>63.878029</ele>
        <time>2022-12-17T13:20:37.412Z</time>
      </trkpt>
      <trkpt lat="46.93719" lon="-1.86641">
        <ele>63.892661</ele>
        <time>2022-12-17T13:20:40.406Z</time>
      </trkpt>
      <trkpt lat="46.93723" lon="-1.86656">
        <ele>63.905279</ele>
        <time>2022-12-17T13:20:43.405Z</time>
      </trkpt>
      <trkpt lat="46.93726" lon="-1.86671">
        <ele>63.917668</ele>
        <time>2022-12-17T13:20:46.393Z</time>
      </trkpt>
      <trkpt lat="46.9373" lon="-1.86689">
        <ele>63.93157</ele>
        <time>2022-12-17T13:20:49.399Z</time>
      </trkpt>
      <trkpt lat="46.93734" lon="-1.86706">
        <ele>63.946012</ele>
        <time>2022-12-17T13:20:52.400Z</time>
      </trkpt>
      <trkpt lat="46.93738" lon="-1.86725">
        <ele>63.960754</ele>
        <time>2022-12-17T13:20:55.405Z</time>
      </trkpt>
      <trkpt lat="46.9374" lon="-1.86744">
        <ele>63.97591</ele>
        <time>2022-12-17T13:20:58.412Z</time>
      </trkpt>
      <trkpt lat="46.93744" lon="-1.86757">
        <ele>63.986734</ele>
        <time>2022-12-17T13:21:00.422Z</time>
      </trkpt>
      <trkpt lat="46.93747" lon="-1.8677">
        <ele>63.99773</ele>
        <time>2022-12-17T13:21:02.397Z</time>
      </trkpt>
      <trkpt lat="46.9375" lon="-1.86784">
        <ele>64.009019</ele>
        <time>2022-12-17T13:21:04.419Z</time>
      </trkpt>
      <trkpt lat="46.93753" lon="-1.86798">
        <ele>64.020714</ele>
        <time>2022-12-17T13:21:06.418Z</time>
      </trkpt>
      <trkpt lat="46.93756" lon="-1.86814">
        <ele>63.99035</ele>
        <time>2022-12-17T13:21:08.408Z</time>
      </trkpt>
      <trkpt lat="46.93759" lon="-1.86828">
        <ele>63.938716</ele>
        <time>2022-12-17T13:21:10.421Z</time>
      </trkpt>
      <trkpt lat="46.93761" lon="-1.86842">
        <ele>63.890159</ele>
        <time>2022-12-17T13:21:12.394Z</time>
      </trkpt>
      <trkpt lat="46.93764" lon="-1.86855">
        <ele>63.841841</ele>
        <time>2022-12-17T13:21:14.420Z</time>
      </trkpt>
      <trkpt lat="46.93767" lon="-1.86869">
        <ele>63.793838</ele>
        <time>2022-12-17T13:21:16.418Z</time>
      </trkpt>
      <trkpt lat="46.93771" lon="-1.86888">
        <ele>63.727516</ele>
        <time>2022-12-17T13:21:19.407Z</time>
      </trkpt>
      <trkpt lat="46.93774" lon="-1.86901">
        <ele>63.680199</ele>
        <time>2022-12-17T13:21:21.410Z</time>
      </trkpt>
      <trkpt lat="46.93776" lon="-1.86914">
        <ele>63.633926</ele>
        <time>2022-12-17T13:21:23.409Z</time>
      </trkpt>
      <trkpt lat="46.93779" lon="-1.86928">
        <ele>63.585498</ele>
        <time>2022-12-17T13:21:25.416Z</time>
      </trkpt>
      <trkpt lat="46.93782" lon="-1.86941">
        <ele>63.537988</ele>
        <time>2022-12-17T13:21:27.410Z</time>
      </trkpt>
      <trkpt lat="46.93784" lon="-1.86955">
        <ele>63.489921</ele>
        <time>2022-12-17T13:21:29.421Z</time>
      </trkpt>
      <trkpt lat="46.93787" lon="-1.86968">
        <ele>63.443507</ele>
        <time>2022-12-17T13:21:31.413Z</time>
      </trkpt>
      <trkpt lat="46.93789" lon="-1.86982">
        <ele>63.394295</ele>
        <time>2022-12-17T13:21:33.411Z</time>
      </trkpt>
      <trkpt lat="46.93791" lon="-1.86996">
        <ele>63.346007</ele>
        <time>2022-12-17T13:21:35.406Z</time>
      </trkpt>
      <trkpt lat="46.93794" lon="-1.8701">
        <ele>63.296176</ele>
        <time>2022-12-17T13:21:37.403Z</time>
      </trkpt>
      <trkpt lat="46.93795" lon="-1.87025">
        <ele>63.245426</ele>
        <time>2022-12-17T13:21:39.415Z</time>
      </trkpt>
      <trkpt lat="46.93797" lon="-1.87039">
        <ele>63.196254</ele>
        <time>2022-12-17T13:21:41.402Z</time>
      </trkpt>
      <trkpt lat="46.938" lon="-1.87053">
        <ele>63.148744</ele>
        <time>2022-12-17T13:21:43.407Z</time>
      </trkpt>
      <trkpt lat="46.93802" lon="-1.87067">
        <ele>63.040649</ele>
        <time>2022-12-17T13:21:45.412Z</time>
      </trkpt>
      <trkpt lat="46.93803" lon="-1.87081">
        <ele>62.89922</ele>
        <time>2022-12-17T13:21:47.411Z</time>
      </trkpt>
      <trkpt lat="46.93805" lon="-1.87095">
        <ele>62.758778</ele>
        <time>2022-12-17T13:21:49.405Z</time>
      </trkpt>
      <trkpt lat="46.93805" lon="-1.8711">
        <ele>62.608227</ele>
        <time>2022-12-17T13:21:51.415Z</time>
      </trkpt>
      <trkpt lat="46.93806" lon="-1.87126">
        <ele>62.450532</ele>
        <time>2022-12-17T13:21:53.406Z</time>
      </trkpt>
      <trkpt lat="46.93807" lon="-1.87142">
        <ele>62.287189</ele>
        <time>2022-12-17T13:21:55.407Z</time>
      </trkpt>
      <trkpt lat="46.93809" lon="-1.87159">
        <ele>62.115766</ele>
        <time>2022-12-17T13:21:57.403Z</time>
      </trkpt>
      <trkpt lat="46.93809" lon="-1.87176">
        <ele>61.943178</ele>
        <time>2022-12-17T13:21:59.402Z</time>
      </trkpt>
      <trkpt lat="46.93811" lon="-1.87194">
        <ele>61.768257</ele>
        <time>2022-12-17T13:22:01.423Z</time>
      </trkpt>
      <trkpt lat="46.93812" lon="-1.87212">
        <ele>61.582431</ele>
        <time>2022-12-17T13:22:03.401Z</time>
      </trkpt>
      <trkpt lat="46.93813" lon="-1.87231">
        <ele>61.397826</ele>
        <time>2022-12-17T13:22:05.399Z</time>
      </trkpt>
      <trkpt lat="46.93813" lon="-1.87248">
        <ele>61.225238</ele>
        <time>2022-12-17T13:22:07.404Z</time>
      </trkpt>
      <trkpt lat="46.93814" lon="-1.87266">
        <ele>61.046781</ele>
        <time>2022-12-17T13:22:09.408Z</time>
      </trkpt>
      <trkpt lat="46.93814" lon="-1.87283">
        <ele>60.875527</ele>
        <time>2022-12-17T13:22:11.420Z</time>
      </trkpt>
      <trkpt lat="46.93814" lon="-1.87301">
        <ele>60.695365</ele>
        <time>2022-12-17T13:22:13.406Z</time>
      </trkpt>
      <trkpt lat="46.93814" lon="-1.8732">
        <ele>60.512845</ele>
        <time>2022-12-17T13:22:15.407Z</time>
      </trkpt>
      <trkpt lat="46.93814" lon="-1.87338">
        <ele>60.382827</ele>
        <time>2022-12-17T13:22:17.409Z</time>
      </trkpt>
      <trkpt lat="46.93813" lon="-1.87355">
        <ele>60.257296</ele>
        <time>2022-12-17T13:22:19.406Z</time>
      </trkpt>
      <trkpt lat="46.93812" lon="-1.87374">
        <ele>60.12458</ele>
        <time>2022-12-17T13:22:21.418Z</time>
      </trkpt>
      <trkpt lat="46.9381" lon="-1.87392">
        <ele>59.993455</ele>
        <time>2022-12-17T13:22:23.406Z</time>
      </trkpt>
      <trkpt lat="46.93808" lon="-1.8741">
        <ele>59.862614</ele>
        <time>2022-12-17T13:22:25.416Z</time>
      </trkpt>
      <trkpt lat="46.93807" lon="-1.87428">
        <ele>59.735017</ele>
        <time>2022-12-17T13:22:27.428Z</time>
      </trkpt>
      <trkpt lat="46.93804" lon="-1.87446">
        <ele>59.606036</ele>
        <time>2022-12-17T13:22:29.403Z</time>
      </trkpt>
      <trkpt lat="46.93803" lon="-1.87465">
        <ele>59.470676</ele>
        <time>2022-12-17T13:22:31.407Z</time>
      </trkpt>
      <trkpt lat="46.93801" lon="-1.87482">
        <ele>59.344329</ele>
        <time>2022-12-17T13:22:33.405Z</time>
      </trkpt>
      <trkpt lat="46.93799" lon="-1.875">
        <ele>59.214616</ele>
        <time>2022-12-17T13:22:35.402Z</time>
      </trkpt>
      <trkpt lat="46.93797" lon="-1.87518">
        <ele>59.083774</ele>
        <time>2022-12-17T13:22:37.406Z</time>
      </trkpt>
      <trkpt lat="46.93796" lon="-1.87536">
        <ele>58.958997</ele>
        <time>2022-12-17T13:22:39.421Z</time>
      </trkpt>
      <trkpt lat="46.93793" lon="-1.87554">
        <ele>58.827911</ele>
        <time>2022-12-17T13:22:41.420Z</time>
      </trkpt>
      <trkpt lat="46.93791" lon="-1.87571">
        <ele>58.701396</ele>
        <time>2022-12-17T13:22:43.418Z</time>
      </trkpt>
      <trkpt lat="46.9379" lon="-1.87589">
        <ele>58.508865</ele>
        <time>2022-12-17T13:22:45.425Z</time>
      </trkpt>
      <trkpt lat="46.93788" lon="-1.87606">
        <ele>58.259918</ele>
        <time>2022-12-17T13:22:47.417Z</time>
      </trkpt>
      <trkpt lat="46.93786" lon="-1.87622">
        <ele>58.02312</ele>
        <time>2022-12-17T13:22:49.408Z</time>
      </trkpt>
      <trkpt lat="46.93785" lon="-1.87637">
        <ele>57.811208</ele>
        <time>2022-12-17T13:22:51.405Z</time>
      </trkpt>
      <trkpt lat="46.93787" lon="-1.87656">
        <ele>57.527044</ele>
        <time>2022-12-17T13:22:54.424Z</time>
      </trkpt>
      <trkpt lat="46.93786" lon="-1.8767">
        <ele>57.326864</ele>
        <time>2022-12-17T13:22:56.417Z</time>
      </trkpt>
      <trkpt lat="46.93783" lon="-1.87684">
        <ele>57.122025</ele>
        <time>2022-12-17T13:22:58.406Z</time>
      </trkpt>
      <trkpt lat="46.93781" lon="-1.87697">
        <ele>56.911095</ele>
        <time>2022-12-17T13:23:00.416Z</time>
      </trkpt>
      <trkpt lat="46.93777" lon="-1.87712">
        <ele>56.684433</ele>
        <time>2022-12-17T13:23:02.399Z</time>
      </trkpt>
      <trkpt lat="46.93772" lon="-1.87726">
        <ele>56.465393</ele>
        <time>2022-12-17T13:23:04.409Z</time>
      </trkpt>
      <trkpt lat="46.93768" lon="-1.8774">
        <ele>56.233463</ele>
        <time>2022-12-17T13:23:06.399Z</time>
      </trkpt>
      <trkpt lat="46.93764" lon="-1.87756">
        <ele>55.989146</ele>
        <time>2022-12-17T13:23:08.409Z</time>
      </trkpt>
      <trkpt lat="46.93759" lon="-1.8777">
        <ele>55.755917</ele>
        <time>2022-12-17T13:23:10.418Z</time>
      </trkpt>
      <trkpt lat="46.93754" lon="-1.87786">
        <ele>55.509525</ele>
        <time>2022-12-17T13:23:12.406Z</time>
      </trkpt>
      <trkpt lat="46.9375" lon="-1.87801">
        <ele>55.264873</ele>
        <time>2022-12-17T13:23:14.400Z</time>
      </trkpt>
      <trkpt lat="46.93746" lon="-1.87817">
        <ele>55.017865</ele>
        <time>2022-12-17T13:23:16.412Z</time>
      </trkpt>
      <trkpt lat="46.93741" lon="-1.87833">
        <ele>54.759211</ele>
        <time>2022-12-17T13:23:18.408Z</time>
      </trkpt>
      <trkpt lat="46.93738" lon="-1.8785">
        <ele>54.462311</ele>
        <time>2022-12-17T13:23:20.414Z</time>
      </trkpt>
      <trkpt lat="46.93735" lon="-1.87866">
        <ele>54.169381</ele>
        <time>2022-12-17T13:23:22.405Z</time>
      </trkpt>
      <trkpt lat="46.93733" lon="-1.87883">
        <ele>53.876205</ele>
        <time>2022-12-17T13:23:24.407Z</time>
      </trkpt>
      <trkpt lat="46.93732" lon="-1.879">
        <ele>53.596694</ele>
        <time>2022-12-17T13:23:26.419Z</time>
      </trkpt>
      <trkpt lat="46.93731" lon="-1.87916">
        <ele>53.313716</ele>
        <time>2022-12-17T13:23:28.408Z</time>
      </trkpt>
      <trkpt lat="46.93731" lon="-1.87932">
        <ele>53.044964</ele>
        <time>2022-12-17T13:23:30.408Z</time>
      </trkpt>
      <trkpt lat="46.93733" lon="-1.87947">
        <ele>52.775301</ele>
        <time>2022-12-17T13:23:32.401Z</time>
      </trkpt>
      <trkpt lat="46.93734" lon="-1.87962">
        <ele>52.517498</ele>
        <time>2022-12-17T13:23:34.420Z</time>
      </trkpt>
      <trkpt lat="46.93737" lon="-1.87976">
        <ele>52.271453</ele>
        <time>2022-12-17T13:23:36.404Z</time>
      </trkpt>
      <trkpt lat="46.93739" lon="-1.8799">
        <ele>52.027215</ele>
        <time>2022-12-17T13:23:38.411Z</time>
      </trkpt>
      <trkpt lat="46.93741" lon="-1.88005">
        <ele>51.775796</ele>
        <time>2022-12-17T13:23:40.405Z</time>
      </trkpt>
      <trkpt lat="46.93745" lon="-1.88023">
        <ele>51.446141</ele>
        <time>2022-12-17T13:23:43.405Z</time>
      </trkpt>
      <trkpt lat="46.93747" lon="-1.88039">
        <ele>51.164617</ele>
        <time>2022-12-17T13:23:46.411Z</time>
      </trkpt>
      <trkpt lat="46.9375" lon="-1.88056">
        <ele>50.854707</ele>
        <time>2022-12-17T13:23:49.420Z</time>
      </trkpt>
      <trkpt lat="46.93753" lon="-1.88076">
        <ele>50.517563</ele>
        <time>2022-12-17T13:23:52.398Z</time>
      </trkpt>
      <trkpt lat="46.93756" lon="-1.8809">
        <ele>50.262343</ele>
        <time>2022-12-17T13:23:54.423Z</time>
      </trkpt>
      <trkpt lat="46.93759" lon="-1.88105">
        <ele>50.055867</ele>
        <time>2022-12-17T13:23:56.426Z</time>
      </trkpt>
      <trkpt lat="46.93761" lon="-1.8812">
        <ele>49.851519</ele>
        <time>2022-12-17T13:23:58.423Z</time>
      </trkpt>
      <trkpt lat="46.93763" lon="-1.88136">
        <ele>49.633644</ele>
        <time>2022-12-17T13:24:00.408Z</time>
      </trkpt>
      <trkpt lat="46.93766" lon="-1.88152">
        <ele>49.403541</ele>
        <time>2022-12-17T13:24:02.399Z</time>
      </trkpt>
      <trkpt lat="46.93769" lon="-1.88169">
        <ele>49.172716</ele>
        <time>2022-12-17T13:24:04.412Z</time>
      </trkpt>
      <trkpt lat="46.93771" lon="-1.88187">
        <ele>48.930611</ele>
        <time>2022-12-17T13:24:06.413Z</time>
      </trkpt>
      <trkpt lat="46.93775" lon="-1.88203">
        <ele>48.695901</ele>
        <time>2022-12-17T13:24:08.418Z</time>
      </trkpt>
      <trkpt lat="46.93778" lon="-1.88221">
        <ele>48.448696</ele>
        <time>2022-12-17T13:24:10.408Z</time>
      </trkpt>
      <trkpt lat="46.9378" lon="-1.88239">
        <ele>48.208594</ele>
        <time>2022-12-17T13:24:12.404Z</time>
      </trkpt>
      <trkpt lat="46.93781" lon="-1.88256">
        <ele>47.975112</ele>
        <time>2022-12-17T13:24:14.403Z</time>
      </trkpt>
      <trkpt lat="46.93781" lon="-1.88274">
        <ele>47.74043</ele>
        <time>2022-12-17T13:24:16.419Z</time>
      </trkpt>
      <trkpt lat="46.93782" lon="-1.8829">
        <ele>47.521</ele>
        <time>2022-12-17T13:24:18.452Z</time>
      </trkpt>
      <trkpt lat="46.93781" lon="-1.88306">
        <ele>47.303447</ele>
        <time>2022-12-17T13:24:20.411Z</time>
      </trkpt>
      <trkpt lat="46.9378" lon="-1.88321">
        <ele>47.09411</ele>
        <time>2022-12-17T13:24:22.400Z</time>
      </trkpt>
      <trkpt lat="46.93779" lon="-1.88337">
        <ele>46.887455</ele>
        <time>2022-12-17T13:24:24.408Z</time>
      </trkpt>
      <trkpt lat="46.93778" lon="-1.88352">
        <ele>46.791797</ele>
        <time>2022-12-17T13:24:26.408Z</time>
      </trkpt>
      <trkpt lat="46.93777" lon="-1.88365">
        <ele>46.951428</ele>
        <time>2022-12-17T13:24:28.404Z</time>
      </trkpt>
      <trkpt lat="46.93776" lon="-1.88379">
        <ele>47.105804</ele>
        <time>2022-12-17T13:24:30.399Z</time>
      </trkpt>
      <trkpt lat="46.93775" lon="-1.88397">
        <ele>47.322819</ele>
        <time>2022-12-17T13:24:33.410Z</time>
      </trkpt>
      <trkpt lat="46.93775" lon="-1.88416">
        <ele>47.531487</ele>
        <time>2022-12-17T13:24:36.404Z</time>
      </trkpt>
      <trkpt lat="46.93777" lon="-1.88434">
        <ele>47.745641</ele>
        <time>2022-12-17T13:24:39.406Z</time>
      </trkpt>
      <trkpt lat="46.93778" lon="-1.88453">
        <ele>47.968582</ele>
        <time>2022-12-17T13:24:42.399Z</time>
      </trkpt>
      <trkpt lat="46.93778" lon="-1.88467">
        <ele>48.121742</ele>
        <time>2022-12-17T13:24:44.401Z</time>
      </trkpt>
      <trkpt lat="46.93778" lon="-1.88486">
        <ele>48.351196</ele>
        <time>2022-12-17T13:24:47.402Z</time>
      </trkpt>
      <trkpt lat="46.93777" lon="-1.885">
        <ele>48.507561</ele>
        <time>2022-12-17T13:24:49.418Z</time>
      </trkpt>
      <trkpt lat="46.93774" lon="-1.88513">
        <ele>48.664432</ele>
        <time>2022-12-17T13:24:51.414Z</time>
      </trkpt>
      <trkpt lat="46.93772" lon="-1.88526">
        <ele>48.820502</ele>
        <time>2022-12-17T13:24:53.417Z</time>
      </trkpt>
      <trkpt lat="46.93771" lon="-1.8854">
        <ele>48.974772</ele>
        <time>2022-12-17T13:24:55.422Z</time>
      </trkpt>
      <trkpt lat="46.9377" lon="-1.88554">
        <ele>49.138009</ele>
        <time>2022-12-17T13:24:57.400Z</time>
      </trkpt>
      <trkpt lat="46.9377" lon="-1.88571">
        <ele>49.331528</ele>
        <time>2022-12-17T13:25:00.400Z</time>
      </trkpt>
      <trkpt lat="46.93768" lon="-1.88584">
        <ele>49.493083</ele>
        <time>2022-12-17T13:25:03.414Z</time>
      </trkpt>
      <trkpt lat="46.93768" lon="-1.886">
        <ele>49.676173</ele>
        <time>2022-12-17T13:25:07.399Z</time>
      </trkpt>
      <trkpt lat="46.9377" lon="-1.88614">
        <ele>49.84203</ele>
        <time>2022-12-17T13:25:12.399Z</time>
      </trkpt>
      <trkpt lat="46.93767" lon="-1.88628">
        <ele>50.025404</ele>
        <time>2022-12-17T13:25:20.402Z</time>
      </trkpt>
      <trkpt lat="46.93757" lon="-1.88633">
        <ele>50.210832</ele>
        <time>2022-12-17T13:25:24.411Z</time>
      </trkpt>
      <trkpt lat="46.93745" lon="-1.88638">
        <ele>50.429157</ele>
        <time>2022-12-17T13:25:28.408Z</time>
      </trkpt>
      <trkpt lat="46.93736" lon="-1.8864">
        <ele>50.602804</ele>
        <time>2022-12-17T13:25:31.401Z</time>
      </trkpt>
      <trkpt lat="46.93727" lon="-1.88644">
        <ele>50.769684</ele>
        <time>2022-12-17T13:25:34.412Z</time>
      </trkpt>
      <trkpt lat="46.93717" lon="-1.88647">
        <ele>50.95085</ele>
        <time>2022-12-17T13:25:37.409Z</time>
      </trkpt>
      <trkpt lat="46.93708" lon="-1.8865">
        <ele>51.125994</ele>
        <time>2022-12-17T13:25:40.404Z</time>
      </trkpt>
      <trkpt lat="46.93698" lon="-1.88653">
        <ele>51.304223</ele>
        <time>2022-12-17T13:25:43.402Z</time>
      </trkpt>
      <trkpt lat="46.93686" lon="-1.88655">
        <ele>51.518781</ele>
        <time>2022-12-17T13:25:47.418Z</time>
      </trkpt>
      <trkpt lat="46.93676" lon="-1.88657">
        <ele>51.703714</ele>
        <time>2022-12-17T13:25:50.400Z</time>
      </trkpt>
      <trkpt lat="46.93667" lon="-1.88659">
        <ele>51.877952</ele>
        <time>2022-12-17T13:25:53.416Z</time>
      </trkpt>
      <trkpt lat="46.93658" lon="-1.88662">
        <ele>52.046016</ele>
        <time>2022-12-17T13:25:56.399Z</time>
      </trkpt>
      <trkpt lat="46.93648" lon="-1.88664">
        <ele>52.220048</ele>
        <time>2022-12-17T13:25:59.407Z</time>
      </trkpt>
      <trkpt lat="46.93639" lon="-1.88666">
        <ele>52.387647</ele>
        <time>2022-12-17T13:26:02.397Z</time>
      </trkpt>
      <trkpt lat="46.9363" lon="-1.88667">
        <ele>52.556498</ele>
        <time>2022-12-17T13:26:05.404Z</time>
      </trkpt>
      <trkpt lat="46.93618" lon="-1.88669">
        <ele>52.772852</ele>
        <time>2022-12-17T13:26:09.415Z</time>
      </trkpt>
      <trkpt lat="46.93609" lon="-1.8867">
        <ele>52.937552</ele>
        <time>2022-12-17T13:26:12.405Z</time>
      </trkpt>
      <trkpt lat="46.93597" lon="-1.88671">
        <ele>53.088538</ele>
        <time>2022-12-17T13:26:16.408Z</time>
      </trkpt>
      <trkpt lat="46.93588" lon="-1.88671">
        <ele>53.169076</ele>
        <time>2022-12-17T13:26:19.405Z</time>
      </trkpt>
      <trkpt lat="46.93578" lon="-1.88671">
        <ele>53.257701</ele>
        <time>2022-12-17T13:26:22.397Z</time>
      </trkpt>
      <trkpt lat="46.93568" lon="-1.88671">
        <ele>53.345432</ele>
        <time>2022-12-17T13:26:25.408Z</time>
      </trkpt>
      <trkpt lat="46.93559" lon="-1.88672">
        <ele>53.431515</ele>
        <time>2022-12-17T13:26:28.400Z</time>
      </trkpt>
      <trkpt lat="46.93548" lon="-1.88674">
        <ele>53.524973</ele>
        <time>2022-12-17T13:26:31.406Z</time>
      </trkpt>
      <trkpt lat="46.93538" lon="-1.88676">
        <ele>53.621051</ele>
        <time>2022-12-17T13:26:34.402Z</time>
      </trkpt>
      <trkpt lat="46.93527" lon="-1.88679">
        <ele>53.715905</ele>
        <time>2022-12-17T13:26:37.408Z</time>
      </trkpt>
      <trkpt lat="46.93516" lon="-1.88682">
        <ele>53.81483</ele>
        <time>2022-12-17T13:26:40.416Z</time>
      </trkpt>
      <trkpt lat="46.93505" lon="-1.88684">
        <ele>53.914263</ele>
        <time>2022-12-17T13:26:43.412Z</time>
      </trkpt>
      <trkpt lat="46.93494" lon="-1.88687">
        <ele>54.015499</ele>
        <time>2022-12-17T13:26:46.411Z</time>
      </trkpt>
      <trkpt lat="46.93482" lon="-1.88691">
        <ele>54.12224</ele>
        <time>2022-12-17T13:26:49.418Z</time>
      </trkpt>
      <trkpt lat="46.9347" lon="-1.88695">
        <ele>54.233806</ele>
        <time>2022-12-17T13:26:52.402Z</time>
      </trkpt>
      <trkpt lat="46.93458" lon="-1.88699">
        <ele>54.343202</ele>
        <time>2022-12-17T13:26:55.426Z</time>
      </trkpt>
      <trkpt lat="46.93447" lon="-1.88703">
        <ele>54.444808</ele>
        <time>2022-12-17T13:26:58.407Z</time>
      </trkpt>
      <trkpt lat="46.93436" lon="-1.88707">
        <ele>54.547178</ele>
        <time>2022-12-17T13:27:01.397Z</time>
      </trkpt>
      <trkpt lat="46.93425" lon="-1.88711">
        <ele>54.613577</ele>
        <time>2022-12-17T13:27:04.415Z</time>
      </trkpt>
      <trkpt lat="46.93413" lon="-1.88713">
        <ele>54.407621</ele>
        <time>2022-12-17T13:27:07.412Z</time>
      </trkpt>
      <trkpt lat="46.934" lon="-1.8871">
        <ele>54.17742</ele>
        <time>2022-12-17T13:27:10.413Z</time>
      </trkpt>
      <trkpt lat="46.93391" lon="-1.88707">
        <ele>54.021502</ele>
        <time>2022-12-17T13:27:12.401Z</time>
      </trkpt>
      <trkpt lat="46.93382" lon="-1.88704">
        <ele>53.857661</ele>
        <time>2022-12-17T13:27:14.408Z</time>
      </trkpt>
      <trkpt lat="46.93369" lon="-1.887">
        <ele>53.633184</ele>
        <time>2022-12-17T13:27:17.419Z</time>
      </trkpt>
      <trkpt lat="46.93357" lon="-1.88697">
        <ele>53.414256</ele>
        <time>2022-12-17T13:27:20.414Z</time>
      </trkpt>
      <trkpt lat="46.93343" lon="-1.88695">
        <ele>53.181691</ele>
        <time>2022-12-17T13:27:23.413Z</time>
      </trkpt>
      <trkpt lat="46.93334" lon="-1.88693">
        <ele>53.02354</ele>
        <time>2022-12-17T13:27:25.410Z</time>
      </trkpt>
      <trkpt lat="46.93325" lon="-1.88691">
        <ele>52.858874</ele>
        <time>2022-12-17T13:27:27.410Z</time>
      </trkpt>
      <trkpt lat="46.93315" lon="-1.88689">
        <ele>52.688633</ele>
        <time>2022-12-17T13:27:29.415Z</time>
      </trkpt>
      <trkpt lat="46.93305" lon="-1.88687">
        <ele>52.515285</ele>
        <time>2022-12-17T13:27:31.406Z</time>
      </trkpt>
      <trkpt lat="46.93295" lon="-1.88685">
        <ele>52.338378</ele>
        <time>2022-12-17T13:27:33.420Z</time>
      </trkpt>
      <trkpt lat="46.93284" lon="-1.88683">
        <ele>52.158934</ele>
        <time>2022-12-17T13:27:35.409Z</time>
      </trkpt>
      <trkpt lat="46.93274" lon="-1.88681">
        <ele>51.978754</ele>
        <time>2022-12-17T13:27:37.415Z</time>
      </trkpt>
      <trkpt lat="46.93264" lon="-1.88679">
        <ele>51.799665</ele>
        <time>2022-12-17T13:27:39.416Z</time>
      </trkpt>
      <trkpt lat="46.93254" lon="-1.88677">
        <ele>51.6338</ele>
        <time>2022-12-17T13:27:41.418Z</time>
      </trkpt>
      <trkpt lat="46.93244" lon="-1.88674">
        <ele>51.488732</ele>
        <time>2022-12-17T13:27:43.418Z</time>
      </trkpt>
      <trkpt lat="46.93233" lon="-1.88673">
        <ele>51.378413</ele>
        <time>2022-12-17T13:27:45.409Z</time>
      </trkpt>
      <trkpt lat="46.93224" lon="-1.88672">
        <ele>51.276454</ele>
        <time>2022-12-17T13:27:47.425Z</time>
      </trkpt>
      <trkpt lat="46.93213" lon="-1.88671">
        <ele>51.168112</ele>
        <time>2022-12-17T13:27:49.409Z</time>
      </trkpt>
      <trkpt lat="46.93203" lon="-1.88669">
        <ele>51.062137</ele>
        <time>2022-12-17T13:27:51.422Z</time>
      </trkpt>
      <trkpt lat="46.93193" lon="-1.88666">
        <ele>50.953756</ele>
        <time>2022-12-17T13:27:53.419Z</time>
      </trkpt>
      <trkpt lat="46.93183" lon="-1.88664">
        <ele>50.844007</ele>
        <time>2022-12-17T13:27:55.414Z</time>
      </trkpt>
      <trkpt lat="46.93173" lon="-1.88663">
        <ele>50.74171</ele>
        <time>2022-12-17T13:27:57.408Z</time>
      </trkpt>
      <trkpt lat="46.93163" lon="-1.88661">
        <ele>50.63656</ele>
        <time>2022-12-17T13:27:59.416Z</time>
      </trkpt>
      <trkpt lat="46.93153" lon="-1.88659">
        <ele>50.531827</ele>
        <time>2022-12-17T13:28:01.408Z</time>
      </trkpt>
      <trkpt lat="46.93143" lon="-1.88658">
        <ele>50.425111</ele>
        <time>2022-12-17T13:28:03.430Z</time>
      </trkpt>
      <trkpt lat="46.93133" lon="-1.88657">
        <ele>50.315971</ele>
        <time>2022-12-17T13:28:05.408Z</time>
      </trkpt>
      <trkpt lat="46.93121" lon="-1.88656">
        <ele>50.19842</ele>
        <time>2022-12-17T13:28:07.421Z</time>
      </trkpt>
      <trkpt lat="46.93111" lon="-1.88655">
        <ele>50.090418</ele>
        <time>2022-12-17T13:28:09.407Z</time>
      </trkpt>
      <trkpt lat="46.93101" lon="-1.88655">
        <ele>49.98562</ele>
        <time>2022-12-17T13:28:11.421Z</time>
      </trkpt>
      <trkpt lat="46.93091" lon="-1.88655">
        <ele>49.878726</ele>
        <time>2022-12-17T13:28:13.419Z</time>
      </trkpt>
      <trkpt lat="46.93081" lon="-1.88656">
        <ele>49.770724</ele>
        <time>2022-12-17T13:28:15.417Z</time>
      </trkpt>
      <trkpt lat="46.9307" lon="-1.88656">
        <ele>49.661696</ele>
        <time>2022-12-17T13:28:17.419Z</time>
      </trkpt>
      <trkpt lat="46.9306" lon="-1.88656">
        <ele>49.788903</ele>
        <time>2022-12-17T13:28:19.413Z</time>
      </trkpt>
      <trkpt lat="46.9305" lon="-1.88656">
        <ele>49.923297</ele>
        <time>2022-12-17T13:28:21.424Z</time>
      </trkpt>
      <trkpt lat="46.93039" lon="-1.88657">
        <ele>50.061678</ele>
        <time>2022-12-17T13:28:23.408Z</time>
      </trkpt>
      <trkpt lat="46.93029" lon="-1.88657">
        <ele>50.19738</ele>
        <time>2022-12-17T13:28:25.405Z</time>
      </trkpt>
      <trkpt lat="46.93019" lon="-1.88657">
        <ele>50.333225</ele>
        <time>2022-12-17T13:28:27.413Z</time>
      </trkpt>
      <trkpt lat="46.93007" lon="-1.88658">
        <ele>50.480916</ele>
        <time>2022-12-17T13:28:29.410Z</time>
      </trkpt>
      <trkpt lat="46.92997" lon="-1.88658">
        <ele>50.612675</ele>
        <time>2022-12-17T13:28:31.419Z</time>
      </trkpt>
      <trkpt lat="46.92987" lon="-1.88659">
        <ele>50.752352</ele>
        <time>2022-12-17T13:28:33.405Z</time>
      </trkpt>
      <trkpt lat="46.92977" lon="-1.88659">
        <ele>50.884127</ele>
        <time>2022-12-17T13:28:35.416Z</time>
      </trkpt>
      <trkpt lat="46.92967" lon="-1.88659">
        <ele>51.006654</ele>
        <time>2022-12-17T13:28:37.410Z</time>
      </trkpt>
      <trkpt lat="46.92958" lon="-1.88658">
        <ele>51.129298</ele>
        <time>2022-12-17T13:28:39.411Z</time>
      </trkpt>
      <trkpt lat="46.92945" lon="-1.88658">
        <ele>51.303205</ele>
        <time>2022-12-17T13:28:42.400Z</time>
      </trkpt>
      <trkpt lat="46.92933" lon="-1.88659">
        <ele>51.466772</ele>
        <time>2022-12-17T13:28:45.423Z</time>
      </trkpt>
      <trkpt lat="46.9292" lon="-1.8866">
        <ele>51.638328</ele>
        <time>2022-12-17T13:28:48.419Z</time>
      </trkpt>
      <trkpt lat="46.92907" lon="-1.8866">
        <ele>51.797782</ele>
        <time>2022-12-17T13:28:51.396Z</time>
      </trkpt>
      <trkpt lat="46.92896" lon="-1.88661">
        <ele>51.94535</ele>
        <time>2022-12-17T13:28:54.405Z</time>
      </trkpt>
      <trkpt lat="46.92885" lon="-1.8866">
        <ele>52.084261</ele>
        <time>2022-12-17T13:28:57.418Z</time>
      </trkpt>
      <trkpt lat="46.92875" lon="-1.8866">
        <ele>52.211981</ele>
        <time>2022-12-17T13:29:00.411Z</time>
      </trkpt>
      <trkpt lat="46.92864" lon="-1.88661">
        <ele>52.343434</ele>
        <time>2022-12-17T13:29:03.405Z</time>
      </trkpt>
      <trkpt lat="46.92853" lon="-1.88661">
        <ele>52.47605</ele>
        <time>2022-12-17T13:29:06.422Z</time>
      </trkpt>
      <trkpt lat="46.92843" lon="-1.88661">
        <ele>52.605</ele>
        <time>2022-12-17T13:29:09.414Z</time>
      </trkpt>
      <trkpt lat="46.92831" lon="-1.8866">
        <ele>52.74245</ele>
        <time>2022-12-17T13:29:12.400Z</time>
      </trkpt>
      <trkpt lat="46.9282" lon="-1.88661">
        <ele>52.881168</ele>
        <time>2022-12-17T13:29:15.404Z</time>
      </trkpt>
      <trkpt lat="46.92808" lon="-1.88662">
        <ele>53.023592</ele>
        <time>2022-12-17T13:29:18.392Z</time>
      </trkpt>
      <trkpt lat="46.92797" lon="-1.88662">
        <ele>53.164769</ele>
        <time>2022-12-17T13:29:21.413Z</time>
      </trkpt>
      <trkpt lat="46.92785" lon="-1.88663">
        <ele>53.29984</ele>
        <time>2022-12-17T13:29:24.402Z</time>
      </trkpt>
      <trkpt lat="46.92774" lon="-1.88662">
        <ele>53.44099</ele>
        <time>2022-12-17T13:29:27.423Z</time>
      </trkpt>
      <trkpt lat="46.92763" lon="-1.88663">
        <ele>53.578492</ele>
        <time>2022-12-17T13:29:30.405Z</time>
      </trkpt>
      <trkpt lat="46.92751" lon="-1.88663">
        <ele>53.72329</ele>
        <time>2022-12-17T13:29:33.410Z</time>
      </trkpt>
      <trkpt lat="46.92738" lon="-1.88664">
        <ele>53.87179</ele>
        <time>2022-12-17T13:29:36.429Z</time>
      </trkpt>
      <trkpt lat="46.92727" lon="-1.88664">
        <ele>54.014117</ele>
        <time>2022-12-17T13:29:39.410Z</time>
      </trkpt>
      <trkpt lat="46.92715" lon="-1.88665">
        <ele>54.15646</ele>
        <time>2022-12-17T13:29:42.403Z</time>
      </trkpt>
      <trkpt lat="46.92703" lon="-1.88665">
        <ele>54.258714</ele>
        <time>2022-12-17T13:29:45.397Z</time>
      </trkpt>
      <trkpt lat="46.92692" lon="-1.88665">
        <ele>54.330935</ele>
        <time>2022-12-17T13:29:48.398Z</time>
      </trkpt>
      <trkpt lat="46.92682" lon="-1.88665">
        <ele>54.391853</ele>
        <time>2022-12-17T13:29:51.408Z</time>
      </trkpt>
      <trkpt lat="46.92672" lon="-1.88664">
        <ele>54.455332</ele>
        <time>2022-12-17T13:29:54.402Z</time>
      </trkpt>
      <trkpt lat="46.92661" lon="-1.88665">
        <ele>54.525701</ele>
        <time>2022-12-17T13:29:57.399Z</time>
      </trkpt>
      <trkpt lat="46.92649" lon="-1.88665">
        <ele>54.596665</ele>
        <time>2022-12-17T13:30:00.400Z</time>
      </trkpt>
      <trkpt lat="46.92639" lon="-1.88664">
        <ele>54.663894</ele>
        <time>2022-12-17T13:30:03.421Z</time>
      </trkpt>
      <trkpt lat="46.92628" lon="-1.88664">
        <ele>54.729834</ele>
        <time>2022-12-17T13:30:06.412Z</time>
      </trkpt>
      <trkpt lat="46.92618" lon="-1.88664">
        <ele>54.794531</ele>
        <time>2022-12-17T13:30:09.423Z</time>
      </trkpt>
      <trkpt lat="46.92609" lon="-1.88664">
        <ele>54.852949</ele>
        <time>2022-12-17T13:30:12.401Z</time>
      </trkpt>
      <trkpt lat="46.92599" lon="-1.88665">
        <ele>54.912136</ele>
        <time>2022-12-17T13:30:15.402Z</time>
      </trkpt>
      <trkpt lat="46.9259" lon="-1.88666">
        <ele>54.97182</ele>
        <time>2022-12-17T13:30:18.402Z</time>
      </trkpt>
      <trkpt lat="46.9258" lon="-1.88666">
        <ele>55.035882</ele>
        <time>2022-12-17T13:30:21.421Z</time>
      </trkpt>
      <trkpt lat="46.9257" lon="-1.88666">
        <ele>55.098705</ele>
        <time>2022-12-17T13:30:24.419Z</time>
      </trkpt>
      <trkpt lat="46.9256" lon="-1.88667">
        <ele>55.159031</ele>
        <time>2022-12-17T13:30:27.421Z</time>
      </trkpt>
      <trkpt lat="46.92551" lon="-1.88666">
        <ele>55.21746</ele>
        <time>2022-12-17T13:30:30.416Z</time>
      </trkpt>
      <trkpt lat="46.92541" lon="-1.88667">
        <ele>55.27525</ele>
        <time>2022-12-17T13:30:33.412Z</time>
      </trkpt>
      <trkpt lat="46.9253" lon="-1.88667">
        <ele>55.345851</ele>
        <time>2022-12-17T13:30:37.414Z</time>
      </trkpt>
      <trkpt lat="46.9252" lon="-1.88667">
        <ele>55.397755</ele>
        <time>2022-12-17T13:30:41.416Z</time>
      </trkpt>
      <trkpt lat="46.9251" lon="-1.88668">
        <ele>55.444229</ele>
        <time>2022-12-17T13:30:44.411Z</time>
      </trkpt>
      <trkpt lat="46.92501" lon="-1.88668">
        <ele>55.491671</ele>
        <time>2022-12-17T13:30:47.408Z</time>
      </trkpt>
      <trkpt lat="46.92491" lon="-1.88667">
        <ele>55.540177</ele>
        <time>2022-12-17T13:30:50.410Z</time>
      </trkpt>
      <trkpt lat="46.92481" lon="-1.88666">
        <ele>55.590088</ele>
        <time>2022-12-17T13:30:53.425Z</time>
      </trkpt>
      <trkpt lat="46.92472" lon="-1.88666">
        <ele>55.638497</ele>
        <time>2022-12-17T13:30:56.412Z</time>
      </trkpt>
      <trkpt lat="46.9246" lon="-1.88667">
        <ele>55.694893</ele>
        <time>2022-12-17T13:30:59.414Z</time>
      </trkpt>
      <trkpt lat="46.92449" lon="-1.88667">
        <ele>55.750789</ele>
        <time>2022-12-17T13:31:02.401Z</time>
      </trkpt>
      <trkpt lat="46.92438" lon="-1.88667">
        <ele>55.804689</ele>
        <time>2022-12-17T13:31:05.399Z</time>
      </trkpt>
      <trkpt lat="46.92428" lon="-1.88668">
        <ele>55.856184</ele>
        <time>2022-12-17T13:31:08.403Z</time>
      </trkpt>
      <trkpt lat="46.92417" lon="-1.88668">
        <ele>55.913087</ele>
        <time>2022-12-17T13:31:11.404Z</time>
      </trkpt>
      <trkpt lat="46.92405" lon="-1.88668">
        <ele>55.969498</ele>
        <time>2022-12-17T13:31:14.407Z</time>
      </trkpt>
      <trkpt lat="46.92392" lon="-1.88669">
        <ele>56.035895</ele>
        <time>2022-12-17T13:31:17.400Z</time>
      </trkpt>
      <trkpt lat="46.92379" lon="-1.88669">
        <ele>56.099276</ele>
        <time>2022-12-17T13:31:20.401Z</time>
      </trkpt>
      <trkpt lat="46.92368" lon="-1.8867">
        <ele>56.157716</ele>
        <time>2022-12-17T13:31:23.409Z</time>
      </trkpt>
      <trkpt lat="46.92356" lon="-1.88669">
        <ele>56.215616</ele>
        <time>2022-12-17T13:31:26.406Z</time>
      </trkpt>
      <trkpt lat="46.92344" lon="-1.8867">
        <ele>56.193716</ele>
        <time>2022-12-17T13:31:29.408Z</time>
      </trkpt>
      <trkpt lat="46.92332" lon="-1.8867">
        <ele>56.106093</ele>
        <time>2022-12-17T13:31:32.398Z</time>
      </trkpt>
      <trkpt lat="46.9232" lon="-1.8867">
        <ele>56.016321</ele>
        <time>2022-12-17T13:31:35.402Z</time>
      </trkpt>
      <trkpt lat="46.92307" lon="-1.88671">
        <ele>55.928731</ele>
        <time>2022-12-17T13:31:38.411Z</time>
      </trkpt>
      <trkpt lat="46.92295" lon="-1.8867">
        <ele>55.838959</ele>
        <time>2022-12-17T13:31:41.427Z</time>
      </trkpt>
      <trkpt lat="46.92282" lon="-1.8867">
        <ele>55.747751</ele>
        <time>2022-12-17T13:31:44.408Z</time>
      </trkpt>
      <trkpt lat="46.92269" lon="-1.8867">
        <ele>55.650028</ele>
        <time>2022-12-17T13:31:47.402Z</time>
      </trkpt>
      <trkpt lat="46.92259" lon="-1.8867">
        <ele>55.579046</ele>
        <time>2022-12-17T13:31:49.398Z</time>
      </trkpt>
      <trkpt lat="46.92249" lon="-1.8867">
        <ele>55.505185</ele>
        <time>2022-12-17T13:31:51.408Z</time>
      </trkpt>
      <trkpt lat="46.92238" lon="-1.8867">
        <ele>55.425558</ele>
        <time>2022-12-17T13:31:53.421Z</time>
      </trkpt>
      <trkpt lat="46.92227" lon="-1.88671">
        <ele>55.345202</ele>
        <time>2022-12-17T13:31:55.418Z</time>
      </trkpt>
      <trkpt lat="46.92216" lon="-1.88671">
        <ele>55.267</ele>
        <time>2022-12-17T13:31:57.409Z</time>
      </trkpt>
      <trkpt lat="46.92205" lon="-1.88671">
        <ele>55.183742</ele>
        <time>2022-12-17T13:31:59.414Z</time>
      </trkpt>
      <trkpt lat="46.92193" lon="-1.88671">
        <ele>55.099047</ele>
        <time>2022-12-17T13:32:01.418Z</time>
      </trkpt>
      <trkpt lat="46.92181" lon="-1.88672">
        <ele>55.01575</ele>
        <time>2022-12-17T13:32:03.424Z</time>
      </trkpt>
      <trkpt lat="46.9217" lon="-1.88673">
        <ele>54.943445</ele>
        <time>2022-12-17T13:32:05.409Z</time>
      </trkpt>
      <trkpt lat="46.92158" lon="-1.88673">
        <ele>54.973859</ele>
        <time>2022-12-17T13:32:07.421Z</time>
      </trkpt>
      <trkpt lat="46.92147" lon="-1.88673">
        <ele>55.005079</ele>
        <time>2022-12-17T13:32:09.424Z</time>
      </trkpt>
      <trkpt lat="46.92136" lon="-1.88673">
        <ele>55.034962</ele>
        <time>2022-12-17T13:32:11.421Z</time>
      </trkpt>
      <trkpt lat="46.92124" lon="-1.88673">
        <ele>55.065653</ele>
        <time>2022-12-17T13:32:13.419Z</time>
      </trkpt>
      <trkpt lat="46.92113" lon="-1.88673">
        <ele>55.095527</ele>
        <time>2022-12-17T13:32:15.420Z</time>
      </trkpt>
      <trkpt lat="46.92102" lon="-1.88673">
        <ele>55.124868</ele>
        <time>2022-12-17T13:32:17.410Z</time>
      </trkpt>
      <trkpt lat="46.92091" lon="-1.88673">
        <ele>55.154204</ele>
        <time>2022-12-17T13:32:19.406Z</time>
      </trkpt>
      <trkpt lat="46.9208" lon="-1.88674">
        <ele>55.184672</ele>
        <time>2022-12-17T13:32:21.413Z</time>
      </trkpt>
      <trkpt lat="46.92069" lon="-1.88675">
        <ele>55.213238</ele>
        <time>2022-12-17T13:32:23.420Z</time>
      </trkpt>
      <trkpt lat="46.92058" lon="-1.88675">
        <ele>55.242579</ele>
        <time>2022-12-17T13:32:25.416Z</time>
      </trkpt>
      <trkpt lat="46.92048" lon="-1.88675">
        <ele>55.271915</ele>
        <time>2022-12-17T13:32:27.410Z</time>
      </trkpt>
      <trkpt lat="46.92038" lon="-1.88675">
        <ele>55.297494</ele>
        <time>2022-12-17T13:32:29.409Z</time>
      </trkpt>
      <trkpt lat="46.92025" lon="-1.88675">
        <ele>55.33223</ele>
        <time>2022-12-17T13:32:32.401Z</time>
      </trkpt>
      <trkpt lat="46.92013" lon="-1.88675">
        <ele>55.366145</ele>
        <time>2022-12-17T13:32:35.410Z</time>
      </trkpt>
      <trkpt lat="46.92" lon="-1.88675">
        <ele>55.398984</ele>
        <time>2022-12-17T13:32:38.418Z</time>
      </trkpt>
      <trkpt lat="46.91988" lon="-1.88675">
        <ele>55.419608</ele>
        <time>2022-12-17T13:32:41.415Z</time>
      </trkpt>
      <trkpt lat="46.91977" lon="-1.88675">
        <ele>55.401847</ele>
        <time>2022-12-17T13:32:44.415Z</time>
      </trkpt>
      <trkpt lat="46.91965" lon="-1.88675">
        <ele>55.384071</ele>
        <time>2022-12-17T13:32:47.426Z</time>
      </trkpt>
      <trkpt lat="46.91952" lon="-1.88675">
        <ele>55.364166</ele>
        <time>2022-12-17T13:32:50.408Z</time>
      </trkpt>
      <trkpt lat="46.91939" lon="-1.88674">
        <ele>55.344864</ele>
        <time>2022-12-17T13:32:53.419Z</time>
      </trkpt>
      <trkpt lat="46.91927" lon="-1.88675">
        <ele>55.325555</ele>
        <time>2022-12-17T13:32:56.408Z</time>
      </trkpt>
      <trkpt lat="46.91915" lon="-1.88676">
        <ele>55.306687</ele>
        <time>2022-12-17T13:32:59.419Z</time>
      </trkpt>
      <trkpt lat="46.91902" lon="-1.88676">
        <ele>55.287854</ele>
        <time>2022-12-17T13:33:02.400Z</time>
      </trkpt>
      <trkpt lat="46.9189" lon="-1.88676">
        <ele>55.269173</ele>
        <time>2022-12-17T13:33:05.406Z</time>
      </trkpt>
      <trkpt lat="46.91878" lon="-1.88677">
        <ele>55.251252</ele>
        <time>2022-12-17T13:33:08.401Z</time>
      </trkpt>
      <trkpt lat="46.91866" lon="-1.88676">
        <ele>55.232872</ele>
        <time>2022-12-17T13:33:11.417Z</time>
      </trkpt>
      <trkpt lat="46.91854" lon="-1.88676">
        <ele>55.214188</ele>
        <time>2022-12-17T13:33:14.411Z</time>
      </trkpt>
      <trkpt lat="46.91843" lon="-1.88677">
        <ele>55.196879</ele>
        <time>2022-12-17T13:33:17.414Z</time>
      </trkpt>
      <trkpt lat="46.91831" lon="-1.88677">
        <ele>55.17927</ele>
        <time>2022-12-17T13:33:20.411Z</time>
      </trkpt>
      <trkpt lat="46.9182" lon="-1.88678">
        <ele>55.161198</ele>
        <time>2022-12-17T13:33:23.414Z</time>
      </trkpt>
      <trkpt lat="46.91808" lon="-1.88678">
        <ele>55.201555</ele>
        <time>2022-12-17T13:33:26.407Z</time>
      </trkpt>
      <trkpt lat="46.91796" lon="-1.88678">
        <ele>55.370697</ele>
        <time>2022-12-17T13:33:29.422Z</time>
      </trkpt>
      <trkpt lat="46.91785" lon="-1.88678">
        <ele>55.548818</ele>
        <time>2022-12-17T13:33:32.395Z</time>
      </trkpt>
      <trkpt lat="46.91773" lon="-1.88679">
        <ele>55.718145</ele>
        <time>2022-12-17T13:33:35.399Z</time>
      </trkpt>
      <trkpt lat="46.91761" lon="-1.88679">
        <ele>55.894769</ele>
        <time>2022-12-17T13:33:38.402Z</time>
      </trkpt>
      <trkpt lat="46.9175" lon="-1.88678">
        <ele>56.067041</ele>
        <time>2022-12-17T13:33:41.417Z</time>
      </trkpt>
      <trkpt lat="46.9174" lon="-1.88678">
        <ele>56.215216</ele>
        <time>2022-12-17T13:33:44.413Z</time>
      </trkpt>
      <trkpt lat="46.91728" lon="-1.88678">
        <ele>56.39184</ele>
        <time>2022-12-17T13:33:48.404Z</time>
      </trkpt>
      <trkpt lat="46.91718" lon="-1.88678">
        <ele>56.538519</ele>
        <time>2022-12-17T13:33:51.401Z</time>
      </trkpt>
      <trkpt lat="46.91709" lon="-1.88679">
        <ele>56.68712</ele>
        <time>2022-12-17T13:33:54.400Z</time>
      </trkpt>
      <trkpt lat="46.91699" lon="-1.88679">
        <ele>56.836823</ele>
        <time>2022-12-17T13:33:57.417Z</time>
      </trkpt>
      <trkpt lat="46.91689" lon="-1.88679">
        <ele>56.980523</ele>
        <time>2022-12-17T13:34:00.415Z</time>
      </trkpt>
      <trkpt lat="46.91679" lon="-1.8868">
        <ele>57.133202</ele>
        <time>2022-12-17T13:34:03.410Z</time>
      </trkpt>
      <trkpt lat="46.91669" lon="-1.8868">
        <ele>57.28454</ele>
        <time>2022-12-17T13:34:06.414Z</time>
      </trkpt>
      <trkpt lat="46.91659" lon="-1.88681">
        <ele>57.434267</ele>
        <time>2022-12-17T13:34:09.410Z</time>
      </trkpt>
      <trkpt lat="46.91649" lon="-1.88681">
        <ele>57.579625</ele>
        <time>2022-12-17T13:34:12.400Z</time>
      </trkpt>
      <trkpt lat="46.9164" lon="-1.88682">
        <ele>57.718914</ele>
        <time>2022-12-17T13:34:15.422Z</time>
      </trkpt>
      <trkpt lat="46.91629" lon="-1.88682">
        <ele>57.848011</ele>
        <time>2022-12-17T13:34:18.401Z</time>
      </trkpt>
      <trkpt lat="46.91618" lon="-1.88682">
        <ele>57.87739</ele>
        <time>2022-12-17T13:34:21.398Z</time>
      </trkpt>
      <trkpt lat="46.91607" lon="-1.88682">
        <ele>57.908722</ele>
        <time>2022-12-17T13:34:24.409Z</time>
      </trkpt>
      <trkpt lat="46.91596" lon="-1.88683">
        <ele>57.940323</ele>
        <time>2022-12-17T13:34:27.412Z</time>
      </trkpt>
      <trkpt lat="46.91584" lon="-1.88683">
        <ele>57.972473</ele>
        <time>2022-12-17T13:34:30.420Z</time>
      </trkpt>
      <trkpt lat="46.91573" lon="-1.88683">
        <ele>58.001574</ele>
        <time>2022-12-17T13:34:33.404Z</time>
      </trkpt>
      <trkpt lat="46.91564" lon="-1.88682">
        <ele>58.029036</ele>
        <time>2022-12-17T13:34:36.403Z</time>
      </trkpt>
      <trkpt lat="46.91553" lon="-1.88683">
        <ele>58.059284</ele>
        <time>2022-12-17T13:34:40.405Z</time>
      </trkpt>
      <trkpt lat="46.91543" lon="-1.88683">
        <ele>58.084793</ele>
        <time>2022-12-17T13:34:44.402Z</time>
      </trkpt>
      <trkpt lat="46.91534" lon="-1.88684">
        <ele>58.110586</ele>
        <time>2022-12-17T13:34:49.424Z</time>
      </trkpt>
      <trkpt lat="46.91525" lon="-1.88683">
        <ele>58.135299</ele>
        <time>2022-12-17T13:34:53.406Z</time>
      </trkpt>
      <trkpt lat="46.91513" lon="-1.88683">
        <ele>58.1683</ele>
        <time>2022-12-17T13:34:57.409Z</time>
      </trkpt>
      <trkpt lat="46.91503" lon="-1.88684">
        <ele>58.196852</ele>
        <time>2022-12-17T13:35:00.414Z</time>
      </trkpt>
      <trkpt lat="46.91492" lon="-1.88684">
        <ele>58.228453</ele>
        <time>2022-12-17T13:35:03.427Z</time>
      </trkpt>
      <trkpt lat="46.91481" lon="-1.88685">
        <ele>58.257861</ele>
        <time>2022-12-17T13:35:06.425Z</time>
      </trkpt>
      <trkpt lat="46.9147" lon="-1.88684">
        <ele>58.287254</ele>
        <time>2022-12-17T13:35:09.421Z</time>
      </trkpt>
      <trkpt lat="46.91459" lon="-1.88684">
        <ele>58.319959</ele>
        <time>2022-12-17T13:35:12.404Z</time>
      </trkpt>
      <trkpt lat="46.91446" lon="-1.88685">
        <ele>58.392984</ele>
        <time>2022-12-17T13:35:15.425Z</time>
      </trkpt>
      <trkpt lat="46.91433" lon="-1.88686">
        <ele>58.522036</ele>
        <time>2022-12-17T13:35:18.424Z</time>
      </trkpt>
      <trkpt lat="46.91419" lon="-1.88686">
        <ele>58.649966</ele>
        <time>2022-12-17T13:35:21.424Z</time>
      </trkpt>
      <trkpt lat="46.9141" lon="-1.88686">
        <ele>58.737495</ele>
        <time>2022-12-17T13:35:23.409Z</time>
      </trkpt>
      <trkpt lat="46.91401" lon="-1.88686">
        <ele>58.830813</ele>
        <time>2022-12-17T13:35:25.412Z</time>
      </trkpt>
      <trkpt lat="46.91392" lon="-1.88686">
        <ele>58.918361</ele>
        <time>2022-12-17T13:35:27.426Z</time>
      </trkpt>
      <trkpt lat="46.91379" lon="-1.88686">
        <ele>59.043401</ele>
        <time>2022-12-17T13:35:30.409Z</time>
      </trkpt>
      <trkpt lat="46.91366" lon="-1.88686">
        <ele>59.164593</ele>
        <time>2022-12-17T13:35:33.405Z</time>
      </trkpt>
      <trkpt lat="46.91353" lon="-1.88687">
        <ele>59.292577</ele>
        <time>2022-12-17T13:35:36.411Z</time>
      </trkpt>
      <trkpt lat="46.91343" lon="-1.88687">
        <ele>59.381087</ele>
        <time>2022-12-17T13:35:38.425Z</time>
      </trkpt>
      <trkpt lat="46.91334" lon="-1.88687">
        <ele>59.469577</ele>
        <time>2022-12-17T13:35:40.413Z</time>
      </trkpt>
      <trkpt lat="46.91325" lon="-1.88688">
        <ele>59.557106</ele>
        <time>2022-12-17T13:35:42.402Z</time>
      </trkpt>
      <trkpt lat="46.91312" lon="-1.88688">
        <ele>59.686098</ele>
        <time>2022-12-17T13:35:45.424Z</time>
      </trkpt>
      <trkpt lat="46.91298" lon="-1.88688">
        <ele>59.816908</ele>
        <time>2022-12-17T13:35:48.416Z</time>
      </trkpt>
      <trkpt lat="46.91289" lon="-1.88688">
        <ele>59.905399</ele>
        <time>2022-12-17T13:35:50.417Z</time>
      </trkpt>
      <trkpt lat="46.9128" lon="-1.88689">
        <ele>59.994967</ele>
        <time>2022-12-17T13:35:52.400Z</time>
      </trkpt>
      <trkpt lat="46.9127" lon="-1.88689">
        <ele>60.041923</ele>
        <time>2022-12-17T13:35:54.422Z</time>
      </trkpt>
      <trkpt lat="46.91261" lon="-1.88689">
        <ele>59.886681</ele>
        <time>2022-12-17T13:35:56.402Z</time>
      </trkpt>
      <trkpt lat="46.91252" lon="-1.88689">
        <ele>59.729737</ele>
        <time>2022-12-17T13:35:58.425Z</time>
      </trkpt>
      <trkpt lat="46.91243" lon="-1.88689">
        <ele>59.576188</ele>
        <time>2022-12-17T13:36:00.402Z</time>
      </trkpt>
      <trkpt lat="46.91229" lon="-1.8869">
        <ele>59.340424</ele>
        <time>2022-12-17T13:36:03.411Z</time>
      </trkpt>
      <trkpt lat="46.9122" lon="-1.8869">
        <ele>59.178295</ele>
        <time>2022-12-17T13:36:05.411Z</time>
      </trkpt>
      <trkpt lat="46.9121" lon="-1.8869">
        <ele>59.009346</ele>
        <time>2022-12-17T13:36:07.412Z</time>
      </trkpt>
      <trkpt lat="46.912" lon="-1.88691">
        <ele>58.835281</ele>
        <time>2022-12-17T13:36:09.408Z</time>
      </trkpt>
      <trkpt lat="46.91189" lon="-1.88692">
        <ele>58.657007</ele>
        <time>2022-12-17T13:36:11.408Z</time>
      </trkpt>
      <trkpt lat="46.91178" lon="-1.88693">
        <ele>58.469227</ele>
        <time>2022-12-17T13:36:13.419Z</time>
      </trkpt>
      <trkpt lat="46.91167" lon="-1.88693">
        <ele>58.278166</ele>
        <time>2022-12-17T13:36:15.410Z</time>
      </trkpt>
      <trkpt lat="46.91156" lon="-1.88693">
        <ele>58.092207</ele>
        <time>2022-12-17T13:36:17.422Z</time>
      </trkpt>
      <trkpt lat="46.91144" lon="-1.88692">
        <ele>57.890879</ele>
        <time>2022-12-17T13:36:19.407Z</time>
      </trkpt>
      <trkpt lat="46.91132" lon="-1.88692">
        <ele>57.681023</ele>
        <time>2022-12-17T13:36:21.408Z</time>
      </trkpt>
      <trkpt lat="46.91119" lon="-1.88692">
        <ele>57.46605</ele>
        <time>2022-12-17T13:36:23.400Z</time>
      </trkpt>
      <trkpt lat="46.91106" lon="-1.88692">
        <ele>57.237432</ele>
        <time>2022-12-17T13:36:25.405Z</time>
      </trkpt>
      <trkpt lat="46.91092" lon="-1.88693">
        <ele>57.000229</ele>
        <time>2022-12-17T13:36:27.419Z</time>
      </trkpt>
      <trkpt lat="46.91078" lon="-1.88694">
        <ele>56.801331</ele>
        <time>2022-12-17T13:36:29.428Z</time>
      </trkpt>
      <trkpt lat="46.91065" lon="-1.88694">
        <ele>56.602673</ele>
        <time>2022-12-17T13:36:31.418Z</time>
      </trkpt>
      <trkpt lat="46.9105" lon="-1.88694">
        <ele>56.395379</ele>
        <time>2022-12-17T13:36:33.415Z</time>
      </trkpt>
      <trkpt lat="46.91036" lon="-1.88695">
        <ele>56.187938</ele>
        <time>2022-12-17T13:36:35.425Z</time>
      </trkpt>
      <trkpt lat="46.91022" lon="-1.88695">
        <ele>55.987844</ele>
        <time>2022-12-17T13:36:37.401Z</time>
      </trkpt>
      <trkpt lat="46.91009" lon="-1.88696">
        <ele>55.796134</ele>
        <time>2022-12-17T13:36:39.402Z</time>
      </trkpt>
      <trkpt lat="46.90996" lon="-1.88695">
        <ele>55.614538</ele>
        <time>2022-12-17T13:36:41.401Z</time>
      </trkpt>
      <trkpt lat="46.90983" lon="-1.88695">
        <ele>55.421641</ele>
        <time>2022-12-17T13:36:43.425Z</time>
      </trkpt>
      <trkpt lat="46.9097" lon="-1.88696">
        <ele>55.241483</ele>
        <time>2022-12-17T13:36:45.422Z</time>
      </trkpt>
      <trkpt lat="46.90958" lon="-1.88696">
        <ele>55.068695</ele>
        <time>2022-12-17T13:36:47.428Z</time>
      </trkpt>
      <trkpt lat="46.90947" lon="-1.88696">
        <ele>54.907441</ele>
        <time>2022-12-17T13:36:49.424Z</time>
      </trkpt>
      <trkpt lat="46.90936" lon="-1.88696">
        <ele>54.753333</ele>
        <time>2022-12-17T13:36:51.408Z</time>
      </trkpt>
      <trkpt lat="46.90925" lon="-1.88697">
        <ele>54.597711</ele>
        <time>2022-12-17T13:36:53.422Z</time>
      </trkpt>
      <trkpt lat="46.90915" lon="-1.88698">
        <ele>54.444739</ele>
        <time>2022-12-17T13:36:55.413Z</time>
      </trkpt>
      <trkpt lat="46.90904" lon="-1.88698">
        <ele>54.402977</ele>
        <time>2022-12-17T13:36:57.418Z</time>
      </trkpt>
      <trkpt lat="46.90893" lon="-1.88699">
        <ele>54.392395</ele>
        <time>2022-12-17T13:36:59.413Z</time>
      </trkpt>
      <trkpt lat="46.90882" lon="-1.88699">
        <ele>54.381519</ele>
        <time>2022-12-17T13:37:01.399Z</time>
      </trkpt>
      <trkpt lat="46.90871" lon="-1.88699">
        <ele>54.371039</ele>
        <time>2022-12-17T13:37:03.411Z</time>
      </trkpt>
      <trkpt lat="46.9086" lon="-1.88699">
        <ele>54.359472</ele>
        <time>2022-12-17T13:37:05.429Z</time>
      </trkpt>
      <trkpt lat="46.90849" lon="-1.88699">
        <ele>54.348397</ele>
        <time>2022-12-17T13:37:07.410Z</time>
      </trkpt>
      <trkpt lat="46.90837" lon="-1.88699">
        <ele>54.337321</ele>
        <time>2022-12-17T13:37:09.420Z</time>
      </trkpt>
      <trkpt lat="46.90825" lon="-1.88699">
        <ele>54.325451</ele>
        <time>2022-12-17T13:37:11.413Z</time>
      </trkpt>
      <trkpt lat="46.90814" lon="-1.88698">
        <ele>54.314078</ele>
        <time>2022-12-17T13:37:13.415Z</time>
      </trkpt>
      <trkpt lat="46.90802" lon="-1.88698">
        <ele>54.302214</ele>
        <time>2022-12-17T13:37:15.410Z</time>
      </trkpt>
      <trkpt lat="46.9079" lon="-1.887">
        <ele>54.290619</ele>
        <time>2022-12-17T13:37:17.414Z</time>
      </trkpt>
      <trkpt lat="46.90778" lon="-1.887">
        <ele>54.279051</ele>
        <time>2022-12-17T13:37:19.407Z</time>
      </trkpt>
      <trkpt lat="46.90767" lon="-1.88701">
        <ele>54.267658</ele>
        <time>2022-12-17T13:37:21.409Z</time>
      </trkpt>
      <trkpt lat="46.90756" lon="-1.887">
        <ele>54.256374</ele>
        <time>2022-12-17T13:37:23.409Z</time>
      </trkpt>
      <trkpt lat="46.90744" lon="-1.887">
        <ele>54.245104</ele>
        <time>2022-12-17T13:37:25.406Z</time>
      </trkpt>
      <trkpt lat="46.90733" lon="-1.887">
        <ele>54.23383</ele>
        <time>2022-12-17T13:37:27.416Z</time>
      </trkpt>
      <trkpt lat="46.90722" lon="-1.887">
        <ele>54.125125</ele>
        <time>2022-12-17T13:37:29.411Z</time>
      </trkpt>
      <trkpt lat="46.9071" lon="-1.887">
        <ele>54.01076</ele>
        <time>2022-12-17T13:37:31.404Z</time>
      </trkpt>
      <trkpt lat="46.90699" lon="-1.88701">
        <ele>53.89927</ele>
        <time>2022-12-17T13:37:33.420Z</time>
      </trkpt>
      <trkpt lat="46.90689" lon="-1.88701">
        <ele>53.790923</ele>
        <time>2022-12-17T13:37:35.404Z</time>
      </trkpt>
      <trkpt lat="46.90678" lon="-1.88701">
        <ele>53.688594</ele>
        <time>2022-12-17T13:37:37.406Z</time>
      </trkpt>
      <trkpt lat="46.90668" lon="-1.88701">
        <ele>53.589268</ele>
        <time>2022-12-17T13:37:39.423Z</time>
      </trkpt>
      <trkpt lat="46.90659" lon="-1.88702">
        <ele>53.498915</ele>
        <time>2022-12-17T13:37:41.408Z</time>
      </trkpt>
      <trkpt lat="46.9065" lon="-1.88702">
        <ele>53.408617</ele>
        <time>2022-12-17T13:37:43.425Z</time>
      </trkpt>
      <trkpt lat="46.90638" lon="-1.88702">
        <ele>53.2832</ele>
        <time>2022-12-17T13:37:46.413Z</time>
      </trkpt>
      <trkpt lat="46.90625" lon="-1.88703">
        <ele>53.152777</ele>
        <time>2022-12-17T13:37:49.412Z</time>
      </trkpt>
      <trkpt lat="46.90616" lon="-1.88702">
        <ele>53.058354</ele>
        <time>2022-12-17T13:37:51.413Z</time>
      </trkpt>
      <trkpt lat="46.90606" lon="-1.88702">
        <ele>52.962045</ele>
        <time>2022-12-17T13:37:53.401Z</time>
      </trkpt>
      <trkpt lat="46.90596" lon="-1.88703">
        <ele>52.863615</ele>
        <time>2022-12-17T13:37:55.403Z</time>
      </trkpt>
      <trkpt lat="46.90586" lon="-1.88703">
        <ele>52.763236</ele>
        <time>2022-12-17T13:37:57.410Z</time>
      </trkpt>
      <trkpt lat="46.90577" lon="-1.88704">
        <ele>52.669815</ele>
        <time>2022-12-17T13:37:59.427Z</time>
      </trkpt>
      <trkpt lat="46.90567" lon="-1.88704">
        <ele>52.568434</ele>
        <time>2022-12-17T13:38:01.418Z</time>
      </trkpt>
      <trkpt lat="46.90557" lon="-1.88704">
        <ele>52.470083</ele>
        <time>2022-12-17T13:38:03.409Z</time>
      </trkpt>
      <trkpt lat="46.90547" lon="-1.88705">
        <ele>52.471422</ele>
        <time>2022-12-17T13:38:05.413Z</time>
      </trkpt>
      <trkpt lat="46.90537" lon="-1.88705">
        <ele>52.544574</ele>
        <time>2022-12-17T13:38:07.407Z</time>
      </trkpt>
      <trkpt lat="46.90527" lon="-1.88705">
        <ele>52.615532</ele>
        <time>2022-12-17T13:38:09.409Z</time>
      </trkpt>
      <trkpt lat="46.90517" lon="-1.88705">
        <ele>52.689476</ele>
        <time>2022-12-17T13:38:11.410Z</time>
      </trkpt>
      <trkpt lat="46.90507" lon="-1.88705">
        <ele>52.761898</ele>
        <time>2022-12-17T13:38:13.400Z</time>
      </trkpt>
      <trkpt lat="46.90497" lon="-1.88705">
        <ele>52.835056</ele>
        <time>2022-12-17T13:38:15.428Z</time>
      </trkpt>
      <trkpt lat="46.90488" lon="-1.88706">
        <ele>52.906029</ele>
        <time>2022-12-17T13:38:17.428Z</time>
      </trkpt>
      <trkpt lat="46.90474" lon="-1.88706">
        <ele>53.003322</ele>
        <time>2022-12-17T13:38:20.421Z</time>
      </trkpt>
      <trkpt lat="46.90461" lon="-1.88707">
        <ele>53.102909</ele>
        <time>2022-12-17T13:38:23.421Z</time>
      </trkpt>
      <trkpt lat="46.90451" lon="-1.88707">
        <ele>53.176062</ele>
        <time>2022-12-17T13:38:25.411Z</time>
      </trkpt>
      <trkpt lat="46.90441" lon="-1.88707">
        <ele>53.248489</ele>
        <time>2022-12-17T13:38:27.420Z</time>
      </trkpt>
      <trkpt lat="46.90431" lon="-1.88707">
        <ele>53.324608</ele>
        <time>2022-12-17T13:38:29.408Z</time>
      </trkpt>
      <trkpt lat="46.9042" lon="-1.88707">
        <ele>53.404343</ele>
        <time>2022-12-17T13:38:31.400Z</time>
      </trkpt>
      <trkpt lat="46.90409" lon="-1.88708">
        <ele>53.479093</ele>
        <time>2022-12-17T13:38:33.422Z</time>
      </trkpt>
      <trkpt lat="46.90399" lon="-1.88709">
        <ele>53.558136</ele>
        <time>2022-12-17T13:38:35.414Z</time>
      </trkpt>
      <trkpt lat="46.90388" lon="-1.88709">
        <ele>53.634947</ele>
        <time>2022-12-17T13:38:37.408Z</time>
      </trkpt>
      <trkpt lat="46.90378" lon="-1.88709">
        <ele>53.712513</ele>
        <time>2022-12-17T13:38:39.417Z</time>
      </trkpt>
      <trkpt lat="46.90367" lon="-1.88709">
        <ele>53.742621</ele>
        <time>2022-12-17T13:38:41.428Z</time>
      </trkpt>
      <trkpt lat="46.90354" lon="-1.88708">
        <ele>53.737272</ele>
        <time>2022-12-17T13:38:44.422Z</time>
      </trkpt>
      <trkpt lat="46.90343" lon="-1.88708">
        <ele>53.73313</ele>
        <time>2022-12-17T13:38:46.404Z</time>
      </trkpt>
      <trkpt lat="46.90334" lon="-1.88708">
        <ele>53.72939</ele>
        <time>2022-12-17T13:38:48.423Z</time>
      </trkpt>
      <trkpt lat="46.90323" lon="-1.88709">
        <ele>53.725084</ele>
        <time>2022-12-17T13:38:50.414Z</time>
      </trkpt>
      <trkpt lat="46.90314" lon="-1.88709">
        <ele>53.72118</ele>
        <time>2022-12-17T13:38:52.406Z</time>
      </trkpt>
      <trkpt lat="46.90303" lon="-1.8871">
        <ele>53.716751</ele>
        <time>2022-12-17T13:38:54.425Z</time>
      </trkpt>
      <trkpt lat="46.90292" lon="-1.88711">
        <ele>53.712526</ele>
        <time>2022-12-17T13:38:56.423Z</time>
      </trkpt>
      <trkpt lat="46.90282" lon="-1.88711">
        <ele>53.708303</ele>
        <time>2022-12-17T13:38:58.405Z</time>
      </trkpt>
      <trkpt lat="46.90271" lon="-1.88711">
        <ele>53.704161</ele>
        <time>2022-12-17T13:39:00.413Z</time>
      </trkpt>
      <trkpt lat="46.90261" lon="-1.88711">
        <ele>53.69985</ele>
        <time>2022-12-17T13:39:02.408Z</time>
      </trkpt>
      <trkpt lat="46.9025" lon="-1.88712">
        <ele>53.695699</ele>
        <time>2022-12-17T13:39:04.421Z</time>
      </trkpt>
      <trkpt lat="46.9024" lon="-1.88713">
        <ele>53.691634</ele>
        <time>2022-12-17T13:39:06.413Z</time>
      </trkpt>
      <trkpt lat="46.9023" lon="-1.88713">
        <ele>53.687409</ele>
        <time>2022-12-17T13:39:08.412Z</time>
      </trkpt>
      <trkpt lat="46.9022" lon="-1.88713">
        <ele>53.683508</ele>
        <time>2022-12-17T13:39:10.409Z</time>
      </trkpt>
      <trkpt lat="46.90211" lon="-1.88713">
        <ele>53.679761</ele>
        <time>2022-12-17T13:39:12.406Z</time>
      </trkpt>
      <trkpt lat="46.90201" lon="-1.88713">
        <ele>53.675656</ele>
        <time>2022-12-17T13:39:14.424Z</time>
      </trkpt>
      <trkpt lat="46.90191" lon="-1.88713">
        <ele>53.612954</ele>
        <time>2022-12-17T13:39:16.416Z</time>
      </trkpt>
      <trkpt lat="46.90181" lon="-1.88714">
        <ele>53.361985</ele>
        <time>2022-12-17T13:39:18.410Z</time>
      </trkpt>
      <trkpt lat="46.9017" lon="-1.88714">
        <ele>53.100955</ele>
        <time>2022-12-17T13:39:20.417Z</time>
      </trkpt>
      <trkpt lat="46.9016" lon="-1.88715">
        <ele>52.849762</ele>
        <time>2022-12-17T13:39:22.408Z</time>
      </trkpt>
      <trkpt lat="46.9015" lon="-1.88715">
        <ele>52.60385</ele>
        <time>2022-12-17T13:39:24.421Z</time>
      </trkpt>
      <trkpt lat="46.9014" lon="-1.88715">
        <ele>52.355502</ele>
        <time>2022-12-17T13:39:26.402Z</time>
      </trkpt>
      <trkpt lat="46.9013" lon="-1.88715">
        <ele>52.107154</ele>
        <time>2022-12-17T13:39:28.415Z</time>
      </trkpt>
      <trkpt lat="46.90117" lon="-1.88715">
        <ele>51.766925</ele>
        <time>2022-12-17T13:39:31.422Z</time>
      </trkpt>
      <trkpt lat="46.90104" lon="-1.88716">
        <ele>51.444075</ele>
        <time>2022-12-17T13:39:34.408Z</time>
      </trkpt>
      <trkpt lat="46.90094" lon="-1.88716">
        <ele>51.212812</ele>
        <time>2022-12-17T13:39:36.424Z</time>
      </trkpt>
      <trkpt lat="46.90084" lon="-1.88716">
        <ele>50.964446</ele>
        <time>2022-12-17T13:39:38.404Z</time>
      </trkpt>
      <trkpt lat="46.90074" lon="-1.88717">
        <ele>50.718581</ele>
        <time>2022-12-17T13:39:40.415Z</time>
      </trkpt>
      <trkpt lat="46.90065" lon="-1.88717">
        <ele>50.482558</ele>
        <time>2022-12-17T13:39:42.410Z</time>
      </trkpt>
      <trkpt lat="46.90055" lon="-1.88717">
        <ele>50.22676</ele>
        <time>2022-12-17T13:39:44.408Z</time>
      </trkpt>
      <trkpt lat="46.90044" lon="-1.88717">
        <ele>49.958416</ele>
        <time>2022-12-17T13:39:46.420Z</time>
      </trkpt>
      <trkpt lat="46.90033" lon="-1.88718">
        <ele>49.682709</ele>
        <time>2022-12-17T13:39:48.408Z</time>
      </trkpt>
      <trkpt lat="46.90022" lon="-1.88717">
        <ele>49.416961</ele>
        <time>2022-12-17T13:39:50.419Z</time>
      </trkpt>
      <trkpt lat="46.90011" lon="-1.88718">
        <ele>49.209694</ele>
        <time>2022-12-17T13:39:52.409Z</time>
      </trkpt>
      <trkpt lat="46.9" lon="-1.88718">
        <ele>49.226033</ele>
        <time>2022-12-17T13:39:54.434Z</time>
      </trkpt>
      <trkpt lat="46.89988" lon="-1.88718">
        <ele>49.243267</ele>
        <time>2022-12-17T13:39:56.413Z</time>
      </trkpt>
      <trkpt lat="46.89977" lon="-1.88718">
        <ele>49.260053</ele>
        <time>2022-12-17T13:39:58.410Z</time>
      </trkpt>
      <trkpt lat="46.89966" lon="-1.88718">
        <ele>49.276102</ele>
        <time>2022-12-17T13:40:00.411Z</time>
      </trkpt>
      <trkpt lat="46.89956" lon="-1.88718">
        <ele>49.291848</ele>
        <time>2022-12-17T13:40:02.408Z</time>
      </trkpt>
      <trkpt lat="46.89945" lon="-1.88718">
        <ele>49.307746</ele>
        <time>2022-12-17T13:40:04.422Z</time>
      </trkpt>
      <trkpt lat="46.89934" lon="-1.88719">
        <ele>49.323937</ele>
        <time>2022-12-17T13:40:06.424Z</time>
      </trkpt>
      <trkpt lat="46.89924" lon="-1.88718">
        <ele>49.339396</ele>
        <time>2022-12-17T13:40:08.423Z</time>
      </trkpt>
      <trkpt lat="46.89913" lon="-1.88719">
        <ele>49.35531</ele>
        <time>2022-12-17T13:40:10.413Z</time>
      </trkpt>
      <trkpt lat="46.89903" lon="-1.88719">
        <ele>49.369718</ele>
        <time>2022-12-17T13:40:12.415Z</time>
      </trkpt>
      <trkpt lat="46.89894" lon="-1.88719">
        <ele>49.38368</ele>
        <time>2022-12-17T13:40:14.416Z</time>
      </trkpt>
      <trkpt lat="46.89885" lon="-1.88719">
        <ele>49.397048</ele>
        <time>2022-12-17T13:40:16.422Z</time>
      </trkpt>
      <trkpt lat="46.89872" lon="-1.88719">
        <ele>49.416515</ele>
        <time>2022-12-17T13:40:19.423Z</time>
      </trkpt>
      <trkpt lat="46.89862" lon="-1.8872">
        <ele>49.430486</ele>
        <time>2022-12-17T13:40:21.421Z</time>
      </trkpt>
      <trkpt lat="46.89849" lon="-1.8872">
        <ele>49.450538</ele>
        <time>2022-12-17T13:40:24.405Z</time>
      </trkpt>
      <trkpt lat="46.8984" lon="-1.8872">
        <ele>49.4645</ele>
        <time>2022-12-17T13:40:26.420Z</time>
      </trkpt>
      <trkpt lat="46.8983" lon="-1.8872">
        <ele>49.458646</ele>
        <time>2022-12-17T13:40:28.431Z</time>
      </trkpt>
      <trkpt lat="46.8982" lon="-1.8872">
        <ele>49.42258</ele>
        <time>2022-12-17T13:40:30.408Z</time>
      </trkpt>
      <trkpt lat="46.8981" lon="-1.88721">
        <ele>49.386465</ele>
        <time>2022-12-17T13:40:32.406Z</time>
      </trkpt>
      <trkpt lat="46.89801" lon="-1.88721">
        <ele>49.349642</ele>
        <time>2022-12-17T13:40:34.414Z</time>
      </trkpt>
      <trkpt lat="46.89791" lon="-1.88722">
        <ele>49.312836</ele>
        <time>2022-12-17T13:40:36.414Z</time>
      </trkpt>
      <trkpt lat="46.89781" lon="-1.88722">
        <ele>49.276375</ele>
        <time>2022-12-17T13:40:38.414Z</time>
      </trkpt>
      <trkpt lat="46.89771" lon="-1.88722">
        <ele>49.23957</ele>
        <time>2022-12-17T13:40:40.425Z</time>
      </trkpt>
      <trkpt lat="46.89761" lon="-1.88723">
        <ele>49.201632</ele>
        <time>2022-12-17T13:40:42.407Z</time>
      </trkpt>
      <trkpt lat="46.8975" lon="-1.88723">
        <ele>49.162968</ele>
        <time>2022-12-17T13:40:44.413Z</time>
      </trkpt>
      <trkpt lat="46.89741" lon="-1.88723">
        <ele>49.127653</ele>
        <time>2022-12-17T13:40:46.411Z</time>
      </trkpt>
      <trkpt lat="46.89727" lon="-1.88724">
        <ele>49.077056</ele>
        <time>2022-12-17T13:40:49.406Z</time>
      </trkpt>
      <trkpt lat="46.89718" lon="-1.88724">
        <ele>49.04247</ele>
        <time>2022-12-17T13:40:51.405Z</time>
      </trkpt>
      <trkpt lat="46.89708" lon="-1.88724">
        <ele>49.007141</ele>
        <time>2022-12-17T13:40:53.409Z</time>
      </trkpt>
      <trkpt lat="46.89699" lon="-1.88722">
        <ele>48.972827</ele>
        <time>2022-12-17T13:40:55.431Z</time>
      </trkpt>
      <trkpt lat="46.89689" lon="-1.88723">
        <ele>48.935612</ele>
        <time>2022-12-17T13:40:57.429Z</time>
      </trkpt>
      <trkpt lat="46.89679" lon="-1.88724">
        <ele>48.898333</ele>
        <time>2022-12-17T13:40:59.412Z</time>
      </trkpt>
      <trkpt lat="46.8967" lon="-1.88725">
        <ele>48.862633</ele>
        <time>2022-12-17T13:41:01.410Z</time>
      </trkpt>
      <trkpt lat="46.8966" lon="-1.88724">
        <ele>48.828047</ele>
        <time>2022-12-17T13:41:03.415Z</time>
      </trkpt>
      <trkpt lat="46.89651" lon="-1.88725">
        <ele>48.77381</ele>
        <time>2022-12-17T13:41:05.421Z</time>
      </trkpt>
      <trkpt lat="46.89641" lon="-1.88724">
        <ele>48.682722</ele>
        <time>2022-12-17T13:41:07.409Z</time>
      </trkpt>
      <trkpt lat="46.8963" lon="-1.88725">
        <ele>48.589802</ele>
        <time>2022-12-17T13:41:09.418Z</time>
      </trkpt>
      <trkpt lat="46.89621" lon="-1.88725">
        <ele>48.500536</ele>
        <time>2022-12-17T13:41:11.427Z</time>
      </trkpt>
      <trkpt lat="46.89611" lon="-1.88725">
        <ele>48.41583</ele>
        <time>2022-12-17T13:41:13.425Z</time>
      </trkpt>
      <trkpt lat="46.89602" lon="-1.88725">
        <ele>48.326537</ele>
        <time>2022-12-17T13:41:15.416Z</time>
      </trkpt>
      <trkpt lat="46.89592" lon="-1.88725">
        <ele>48.239099</ele>
        <time>2022-12-17T13:41:17.417Z</time>
      </trkpt>
      <trkpt lat="46.89583" lon="-1.88726">
        <ele>48.153475</ele>
        <time>2022-12-17T13:41:19.418Z</time>
      </trkpt>
      <trkpt lat="46.8957" lon="-1.88726">
        <ele>48.036892</ele>
        <time>2022-12-17T13:41:22.397Z</time>
      </trkpt>
      <trkpt lat="46.8956" lon="-1.88726">
        <ele>47.950346</ele>
        <time>2022-12-17T13:41:24.421Z</time>
      </trkpt>
      <trkpt lat="46.8955" lon="-1.88727">
        <ele>47.85901</ele>
        <time>2022-12-17T13:41:26.410Z</time>
      </trkpt>
      <trkpt lat="46.89541" lon="-1.88727">
        <ele>47.775196</ele>
        <time>2022-12-17T13:41:28.421Z</time>
      </trkpt>
      <trkpt lat="46.89531" lon="-1.88727">
        <ele>47.684108</ele>
        <time>2022-12-17T13:41:30.411Z</time>
      </trkpt>
      <trkpt lat="46.89521" lon="-1.88728">
        <ele>47.594712</ele>
        <time>2022-12-17T13:41:32.409Z</time>
      </trkpt>
      <trkpt lat="46.89511" lon="-1.88728">
        <ele>47.502722</ele>
        <time>2022-12-17T13:41:34.412Z</time>
      </trkpt>
      <trkpt lat="46.89501" lon="-1.88729">
        <ele>47.411589</ele>
        <time>2022-12-17T13:41:36.416Z</time>
      </trkpt>
      <trkpt lat="46.89491" lon="-1.88729">
        <ele>47.322329</ele>
        <time>2022-12-17T13:41:38.419Z</time>
      </trkpt>
      <trkpt lat="46.89482" lon="-1.88729">
        <ele>47.233071</ele>
        <time>2022-12-17T13:41:40.422Z</time>
      </trkpt>
      <trkpt lat="46.89472" lon="-1.88728">
        <ele>47.167956</ele>
        <time>2022-12-17T13:41:42.406Z</time>
      </trkpt>
      <trkpt lat="46.89461" lon="-1.88729">
        <ele>47.174212</ele>
        <time>2022-12-17T13:41:44.411Z</time>
      </trkpt>
      <trkpt lat="46.89451" lon="-1.88729">
        <ele>47.180651</ele>
        <time>2022-12-17T13:41:46.413Z</time>
      </trkpt>
      <trkpt lat="46.89441" lon="-1.88729">
        <ele>47.18666</ele>
        <time>2022-12-17T13:41:48.416Z</time>
      </trkpt>
      <trkpt lat="46.89426" lon="-1.88729">
        <ele>47.195612</ele>
        <time>2022-12-17T13:41:51.414Z</time>
      </trkpt>
      <trkpt lat="46.89416" lon="-1.88729">
        <ele>47.20205</ele>
        <time>2022-12-17T13:41:53.413Z</time>
      </trkpt>
      <trkpt lat="46.89406" lon="-1.88729">
        <ele>47.208182</ele>
        <time>2022-12-17T13:41:55.419Z</time>
      </trkpt>
      <trkpt lat="46.89397" lon="-1.8873">
        <ele>47.213949</ele>
        <time>2022-12-17T13:41:57.424Z</time>
      </trkpt>
      <trkpt lat="46.89386" lon="-1.8873">
        <ele>47.220204</ele>
        <time>2022-12-17T13:41:59.413Z</time>
      </trkpt>
      <trkpt lat="46.89377" lon="-1.8873">
        <ele>47.226213</ele>
        <time>2022-12-17T13:42:01.416Z</time>
      </trkpt>
      <trkpt lat="46.89367" lon="-1.8873">
        <ele>47.232039</ele>
        <time>2022-12-17T13:42:03.419Z</time>
      </trkpt>
      <trkpt lat="46.89357" lon="-1.8873">
        <ele>47.238174</ele>
        <time>2022-12-17T13:42:05.404Z</time>
      </trkpt>
      <trkpt lat="46.89347" lon="-1.88731">
        <ele>47.244251</ele>
        <time>2022-12-17T13:42:07.421Z</time>
      </trkpt>
      <trkpt lat="46.89336" lon="-1.88732">
        <ele>47.251086</ele>
        <time>2022-12-17T13:42:09.420Z</time>
      </trkpt>
      <trkpt lat="46.89326" lon="-1.88733">
        <ele>47.257096</ele>
        <time>2022-12-17T13:42:11.411Z</time>
      </trkpt>
      <trkpt lat="46.89316" lon="-1.88733">
        <ele>47.26323</ele>
        <time>2022-12-17T13:42:13.401Z</time>
      </trkpt>
      <trkpt lat="46.89307" lon="-1.88734">
        <ele>47.268999</ele>
        <time>2022-12-17T13:42:15.412Z</time>
      </trkpt>
      <trkpt lat="46.89294" lon="-1.88733">
        <ele>47.277394</ele>
        <time>2022-12-17T13:42:18.404Z</time>
      </trkpt>
      <trkpt lat="46.89283" lon="-1.88734">
        <ele>47.366179</ele>
        <time>2022-12-17T13:42:21.406Z</time>
      </trkpt>
      <trkpt lat="46.89271" lon="-1.88734">
        <ele>47.459701</ele>
        <time>2022-12-17T13:42:24.421Z</time>
      </trkpt>
      <trkpt lat="46.89259" lon="-1.88734">
        <ele>47.557914</ele>
        <time>2022-12-17T13:42:27.414Z</time>
      </trkpt>
      <trkpt lat="46.89246" lon="-1.88734">
        <ele>47.656934</ele>
        <time>2022-12-17T13:42:30.407Z</time>
      </trkpt>
      <trkpt lat="46.89233" lon="-1.88735">
        <ele>47.759143</ele>
        <time>2022-12-17T13:42:33.417Z</time>
      </trkpt>
      <trkpt lat="46.8922" lon="-1.88735">
        <ele>47.861289</ele>
        <time>2022-12-17T13:42:36.411Z</time>
      </trkpt>
      <trkpt lat="46.89208" lon="-1.88735">
        <ele>47.954025</ele>
        <time>2022-12-17T13:42:39.424Z</time>
      </trkpt>
      <trkpt lat="46.89199" lon="-1.88736">
        <ele>48.02952</ele>
        <time>2022-12-17T13:42:42.401Z</time>
      </trkpt>
      <trkpt lat="46.89188" lon="-1.88736">
        <ele>48.11439</ele>
        <time>2022-12-17T13:42:45.403Z</time>
      </trkpt>
      <trkpt lat="46.89176" lon="-1.88736">
        <ele>48.209497</ele>
        <time>2022-12-17T13:42:48.419Z</time>
      </trkpt>
      <trkpt lat="46.89164" lon="-1.88736">
        <ele>48.299067</ele>
        <time>2022-12-17T13:42:50.412Z</time>
      </trkpt>
      <trkpt lat="46.89155" lon="-1.88736">
        <ele>48.373716</ele>
        <time>2022-12-17T13:42:52.408Z</time>
      </trkpt>
      <trkpt lat="46.89144" lon="-1.88736">
        <ele>48.457006</ele>
        <time>2022-12-17T13:42:54.422Z</time>
      </trkpt>
      <trkpt lat="46.89134" lon="-1.88735">
        <ele>48.537163</ele>
        <time>2022-12-17T13:42:56.426Z</time>
      </trkpt>
      <trkpt lat="46.89124" lon="-1.88736">
        <ele>48.618105</ele>
        <time>2022-12-17T13:42:58.405Z</time>
      </trkpt>
      <trkpt lat="46.89113" lon="-1.88735">
        <ele>48.70984</ele>
        <time>2022-12-17T13:43:00.410Z</time>
      </trkpt>
      <trkpt lat="46.89103" lon="-1.88735">
        <ele>48.841936</ele>
        <time>2022-12-17T13:43:02.403Z</time>
      </trkpt>
      <trkpt lat="46.89093" lon="-1.88735">
        <ele>48.967826</ele>
        <time>2022-12-17T13:43:04.420Z</time>
      </trkpt>
      <trkpt lat="46.89083" lon="-1.88734">
        <ele>49.089836</ele>
        <time>2022-12-17T13:43:06.423Z</time>
      </trkpt>
      <trkpt lat="46.89073" lon="-1.88734">
        <ele>49.219415</ele>
        <time>2022-12-17T13:43:08.420Z</time>
      </trkpt>
      <trkpt lat="46.89063" lon="-1.88734">
        <ele>49.342694</ele>
        <time>2022-12-17T13:43:10.404Z</time>
      </trkpt>
      <trkpt lat="46.89054" lon="-1.88734">
        <ele>49.460931</ele>
        <time>2022-12-17T13:43:12.406Z</time>
      </trkpt>
      <trkpt lat="46.89044" lon="-1.88734">
        <ele>49.584146</ele>
        <time>2022-12-17T13:43:14.420Z</time>
      </trkpt>
      <trkpt lat="46.89034" lon="-1.88734">
        <ele>49.709937</ele>
        <time>2022-12-17T13:43:16.423Z</time>
      </trkpt>
      <trkpt lat="46.89022" lon="-1.88734">
        <ele>49.866163</ele>
        <time>2022-12-17T13:43:19.402Z</time>
      </trkpt>
      <trkpt lat="46.8901" lon="-1.88733">
        <ele>50.02118</ele>
        <time>2022-12-17T13:43:22.401Z</time>
      </trkpt>
      <trkpt lat="46.88997" lon="-1.88732">
        <ele>50.181451</ele>
        <time>2022-12-17T13:43:25.409Z</time>
      </trkpt>
      <trkpt lat="46.88987" lon="-1.88733">
        <ele>50.31613</ele>
        <time>2022-12-17T13:43:27.402Z</time>
      </trkpt>
      <trkpt lat="46.88974" lon="-1.8873">
        <ele>50.479928</ele>
        <time>2022-12-17T13:43:30.419Z</time>
      </trkpt>
      <trkpt lat="46.8896" lon="-1.88728">
        <ele>50.651396</ele>
        <time>2022-12-17T13:43:33.407Z</time>
      </trkpt>
      <trkpt lat="46.88949" lon="-1.88725">
        <ele>50.801577</ele>
        <time>2022-12-17T13:43:36.418Z</time>
      </trkpt>
      <trkpt lat="46.88937" lon="-1.88722">
        <ele>50.958564</ele>
        <time>2022-12-17T13:43:39.408Z</time>
      </trkpt>
      <trkpt lat="46.88925" lon="-1.88719">
        <ele>51.258178</ele>
        <time>2022-12-17T13:43:42.401Z</time>
      </trkpt>
      <trkpt lat="46.88911" lon="-1.88716">
        <ele>51.611265</ele>
        <time>2022-12-17T13:43:45.416Z</time>
      </trkpt>
      <trkpt lat="46.88901" lon="-1.88715">
        <ele>51.889917</ele>
        <time>2022-12-17T13:43:47.432Z</time>
      </trkpt>
      <trkpt lat="46.88892" lon="-1.88712">
        <ele>52.132467</ele>
        <time>2022-12-17T13:43:49.403Z</time>
      </trkpt>
      <trkpt lat="46.88878" lon="-1.8871">
        <ele>52.490711</ele>
        <time>2022-12-17T13:43:52.402Z</time>
      </trkpt>
      <trkpt lat="46.88869" lon="-1.88708">
        <ele>52.729455</ele>
        <time>2022-12-17T13:43:54.423Z</time>
      </trkpt>
      <trkpt lat="46.88856" lon="-1.88705">
        <ele>53.063867</ele>
        <time>2022-12-17T13:43:57.399Z</time>
      </trkpt>
      <trkpt lat="46.88844" lon="-1.88702">
        <ele>53.385358</ele>
        <time>2022-12-17T13:44:00.403Z</time>
      </trkpt>
      <trkpt lat="46.88833" lon="-1.887">
        <ele>53.697695</ele>
        <time>2022-12-17T13:44:03.405Z</time>
      </trkpt>
      <trkpt lat="46.88821" lon="-1.88698">
        <ele>53.991127</ele>
        <time>2022-12-17T13:44:06.401Z</time>
      </trkpt>
      <trkpt lat="46.8881" lon="-1.88695">
        <ele>54.292119</ele>
        <time>2022-12-17T13:44:09.421Z</time>
      </trkpt>
      <trkpt lat="46.88801" lon="-1.88694">
        <ele>54.529213</ele>
        <time>2022-12-17T13:44:11.416Z</time>
      </trkpt>
      <trkpt lat="46.88788" lon="-1.88692">
        <ele>54.88286</ele>
        <time>2022-12-17T13:44:14.410Z</time>
      </trkpt>
      <trkpt lat="46.88775" lon="-1.88689">
        <ele>55.212671</ele>
        <time>2022-12-17T13:44:17.422Z</time>
      </trkpt>
      <trkpt lat="46.88763" lon="-1.88686">
        <ele>55.541913</ele>
        <time>2022-12-17T13:44:20.412Z</time>
      </trkpt>
      <trkpt lat="46.88752" lon="-1.88684">
        <ele>55.75646</ele>
        <time>2022-12-17T13:44:23.420Z</time>
      </trkpt>
      <trkpt lat="46.88742" lon="-1.88682">
        <ele>55.907694</ele>
        <time>2022-12-17T13:44:26.405Z</time>
      </trkpt>
      <trkpt lat="46.88731" lon="-1.88682">
        <ele>56.062497</ele>
        <time>2022-12-17T13:44:29.421Z</time>
      </trkpt>
      <trkpt lat="46.8872" lon="-1.88681">
        <ele>56.218684</ele>
        <time>2022-12-17T13:44:32.430Z</time>
      </trkpt>
      <trkpt lat="46.8871" lon="-1.88679">
        <ele>56.362059</ele>
        <time>2022-12-17T13:44:35.402Z</time>
      </trkpt>
      <trkpt lat="46.88699" lon="-1.88677">
        <ele>56.524109</ele>
        <time>2022-12-17T13:44:39.417Z</time>
      </trkpt>
      <trkpt lat="46.88688" lon="-1.88674">
        <ele>56.675409</ele>
        <time>2022-12-17T13:44:43.406Z</time>
      </trkpt>
      <trkpt lat="46.88677" lon="-1.88672">
        <ele>56.828055</ele>
        <time>2022-12-17T13:44:47.426Z</time>
      </trkpt>
      <trkpt lat="46.88667" lon="-1.8867">
        <ele>56.984348</ele>
        <time>2022-12-17T13:44:51.401Z</time>
      </trkpt>
      <trkpt lat="46.88657" lon="-1.88668">
        <ele>57.121006</ele>
        <time>2022-12-17T13:44:55.415Z</time>
      </trkpt>
      <trkpt lat="46.88647" lon="-1.88666">
        <ele>57.262072</ele>
        <time>2022-12-17T13:44:59.410Z</time>
      </trkpt>
      <trkpt lat="46.88638" lon="-1.88665">
        <ele>57.392268</ele>
        <time>2022-12-17T13:45:03.434Z</time>
      </trkpt>
      <trkpt lat="46.88629" lon="-1.88663">
        <ele>57.528622</ele>
        <time>2022-12-17T13:45:07.545Z</time>
      </trkpt>
      <trkpt lat="46.88618" lon="-1.88661">
        <ele>57.683</ele>
        <time>2022-12-17T13:45:11.402Z</time>
      </trkpt>
      <trkpt lat="46.88608" lon="-1.88659">
        <ele>57.824581</ele>
        <time>2022-12-17T13:45:15.408Z</time>
      </trkpt>
      <trkpt lat="46.88598" lon="-1.88657">
        <ele>57.962066</ele>
        <time>2022-12-17T13:45:19.411Z</time>
      </trkpt>
      <trkpt lat="46.88587" lon="-1.88655">
        <ele>58.119764</ele>
        <time>2022-12-17T13:45:23.405Z</time>
      </trkpt>
      <trkpt lat="46.88578" lon="-1.88653">
        <ele>58.20662</ele>
        <time>2022-12-17T13:45:26.406Z</time>
      </trkpt>
      <trkpt lat="46.88568" lon="-1.8865">
        <ele>57.984109</ele>
        <time>2022-12-17T13:45:29.409Z</time>
      </trkpt>
      <trkpt lat="46.88558" lon="-1.88649">
        <ele>57.767635</ele>
        <time>2022-12-17T13:45:32.403Z</time>
      </trkpt>
      <trkpt lat="46.88547" lon="-1.88646">
        <ele>57.514829</ele>
        <time>2022-12-17T13:45:35.417Z</time>
      </trkpt>
      <trkpt lat="46.88535" lon="-1.88643">
        <ele>57.243335</ele>
        <time>2022-12-17T13:45:38.405Z</time>
      </trkpt>
      <trkpt lat="46.88525" lon="-1.88641">
        <ele>56.996258</ele>
        <time>2022-12-17T13:45:41.408Z</time>
      </trkpt>
      <trkpt lat="46.88513" lon="-1.88639">
        <ele>56.737075</ele>
        <time>2022-12-17T13:45:44.405Z</time>
      </trkpt>
      <trkpt lat="46.88503" lon="-1.88638">
        <ele>56.494464</ele>
        <time>2022-12-17T13:45:47.409Z</time>
      </trkpt>
      <trkpt lat="46.88492" lon="-1.88636">
        <ele>56.248608</ele>
        <time>2022-12-17T13:45:50.422Z</time>
      </trkpt>
      <trkpt lat="46.88479" lon="-1.88634">
        <ele>55.958972</ele>
        <time>2022-12-17T13:45:53.420Z</time>
      </trkpt>
      <trkpt lat="46.8847" lon="-1.88633">
        <ele>55.743544</ele>
        <time>2022-12-17T13:45:55.418Z</time>
      </trkpt>
      <trkpt lat="46.8846" lon="-1.88631">
        <ele>55.528697</ele>
        <time>2022-12-17T13:45:57.423Z</time>
      </trkpt>
      <trkpt lat="46.88451" lon="-1.88629">
        <ele>55.323818</ele>
        <time>2022-12-17T13:45:59.445Z</time>
      </trkpt>
      <trkpt lat="46.88442" lon="-1.88628">
        <ele>55.11202</ele>
        <time>2022-12-17T13:46:01.427Z</time>
      </trkpt>
      <trkpt lat="46.88431" lon="-1.88627">
        <ele>54.873921</ele>
        <time>2022-12-17T13:46:03.403Z</time>
      </trkpt>
      <trkpt lat="46.88421" lon="-1.88624">
        <ele>54.641413</ele>
        <time>2022-12-17T13:46:05.423Z</time>
      </trkpt>
      <trkpt lat="46.88411" lon="-1.88622">
        <ele>54.408645</ele>
        <time>2022-12-17T13:46:07.427Z</time>
      </trkpt>
      <trkpt lat="46.88401" lon="-1.8862">
        <ele>54.172981</ele>
        <time>2022-12-17T13:46:09.409Z</time>
      </trkpt>
      <trkpt lat="46.88391" lon="-1.88618">
        <ele>54.09971</ele>
        <time>2022-12-17T13:46:11.425Z</time>
      </trkpt>
      <trkpt lat="46.88381" lon="-1.88616">
        <ele>54.029687</ele>
        <time>2022-12-17T13:46:13.426Z</time>
      </trkpt>
      <trkpt lat="46.8837" lon="-1.88614">
        <ele>53.955429</ele>
        <time>2022-12-17T13:46:15.402Z</time>
      </trkpt>
      <trkpt lat="46.88361" lon="-1.88612">
        <ele>53.889116</ele>
        <time>2022-12-17T13:46:17.413Z</time>
      </trkpt>
      <trkpt lat="46.88351" lon="-1.8861">
        <ele>53.820349</ele>
        <time>2022-12-17T13:46:19.424Z</time>
      </trkpt>
      <trkpt lat="46.88342" lon="-1.88608">
        <ele>53.752345</ele>
        <time>2022-12-17T13:46:21.410Z</time>
      </trkpt>
      <trkpt lat="46.88328" lon="-1.88605">
        <ele>53.657349</ele>
        <time>2022-12-17T13:46:24.408Z</time>
      </trkpt>
      <trkpt lat="46.88319" lon="-1.88604">
        <ele>53.591915</ele>
        <time>2022-12-17T13:46:26.409Z</time>
      </trkpt>
      <trkpt lat="46.88309" lon="-1.88602">
        <ele>53.521067</ele>
        <time>2022-12-17T13:46:28.409Z</time>
      </trkpt>
      <trkpt lat="46.88298" lon="-1.886">
        <ele>53.446113</ele>
        <time>2022-12-17T13:46:30.433Z</time>
      </trkpt>
      <trkpt lat="46.88287" lon="-1.88598">
        <ele>53.367558</ele>
        <time>2022-12-17T13:46:32.427Z</time>
      </trkpt>
      <trkpt lat="46.88276" lon="-1.88595">
        <ele>53.288565</ele>
        <time>2022-12-17T13:46:34.414Z</time>
      </trkpt>
      <trkpt lat="46.88265" lon="-1.88592">
        <ele>53.206644</ele>
        <time>2022-12-17T13:46:36.416Z</time>
      </trkpt>
      <trkpt lat="46.88253" lon="-1.8859">
        <ele>53.122745</ele>
        <time>2022-12-17T13:46:38.422Z</time>
      </trkpt>
      <trkpt lat="46.88242" lon="-1.88588">
        <ele>53.046678</ele>
        <time>2022-12-17T13:46:40.419Z</time>
      </trkpt>
      <trkpt lat="46.88232" lon="-1.88585">
        <ele>52.975531</ele>
        <time>2022-12-17T13:46:42.406Z</time>
      </trkpt>
      <trkpt lat="46.88222" lon="-1.88583">
        <ele>52.908669</ele>
        <time>2022-12-17T13:46:44.433Z</time>
      </trkpt>
      <trkpt lat="46.88213" lon="-1.88581">
        <ele>52.898845</ele>
        <time>2022-12-17T13:46:46.484Z</time>
      </trkpt>
      <trkpt lat="46.88203" lon="-1.8858">
        <ele>52.888922</ele>
        <time>2022-12-17T13:46:48.420Z</time>
      </trkpt>
      <trkpt lat="46.88193" lon="-1.88579">
        <ele>52.87835</ele>
        <time>2022-12-17T13:46:50.424Z</time>
      </trkpt>
      <trkpt lat="46.88182" lon="-1.88577">
        <ele>52.867146</ele>
        <time>2022-12-17T13:46:52.448Z</time>
      </trkpt>
      <trkpt lat="46.88171" lon="-1.88575">
        <ele>52.855848</ele>
        <time>2022-12-17T13:46:54.420Z</time>
      </trkpt>
      <trkpt lat="46.8816" lon="-1.88573">
        <ele>52.84505</ele>
        <time>2022-12-17T13:46:56.423Z</time>
      </trkpt>
      <trkpt lat="46.88149" lon="-1.88571">
        <ele>52.833759</ele>
        <time>2022-12-17T13:46:58.424Z</time>
      </trkpt>
      <trkpt lat="46.88138" lon="-1.88569">
        <ele>52.82253</ele>
        <time>2022-12-17T13:47:00.423Z</time>
      </trkpt>
      <trkpt lat="46.88128" lon="-1.88566">
        <ele>52.811765</ele>
        <time>2022-12-17T13:47:02.421Z</time>
      </trkpt>
      <trkpt lat="46.88117" lon="-1.88565">
        <ele>52.800684</ele>
        <time>2022-12-17T13:47:04.427Z</time>
      </trkpt>
      <trkpt lat="46.88106" lon="-1.88562">
        <ele>52.78909</ele>
        <time>2022-12-17T13:47:06.437Z</time>
      </trkpt>
      <trkpt lat="46.88095" lon="-1.8856">
        <ele>52.77798</ele>
        <time>2022-12-17T13:47:08.445Z</time>
      </trkpt>
      <trkpt lat="46.88084" lon="-1.88558">
        <ele>52.76687</ele>
        <time>2022-12-17T13:47:10.426Z</time>
      </trkpt>
      <trkpt lat="46.88074" lon="-1.88556">
        <ele>52.756165</ele>
        <time>2022-12-17T13:47:12.432Z</time>
      </trkpt>
      <trkpt lat="46.88063" lon="-1.88553">
        <ele>52.744547</ele>
        <time>2022-12-17T13:47:14.429Z</time>
      </trkpt>
      <trkpt lat="46.88051" lon="-1.88552">
        <ele>52.73247</ele>
        <time>2022-12-17T13:47:16.432Z</time>
      </trkpt>
      <trkpt lat="46.8804" lon="-1.8855">
        <ele>52.67221</ele>
        <time>2022-12-17T13:47:18.429Z</time>
      </trkpt>
      <trkpt lat="46.88028" lon="-1.88547">
        <ele>52.539368</ele>
        <time>2022-12-17T13:47:20.428Z</time>
      </trkpt>
      <trkpt lat="46.88017" lon="-1.88544">
        <ele>52.408694</ele>
        <time>2022-12-17T13:47:22.411Z</time>
      </trkpt>
      <trkpt lat="46.88006" lon="-1.88542">
        <ele>52.278235</ele>
        <time>2022-12-17T13:47:24.428Z</time>
      </trkpt>
      <trkpt lat="46.87995" lon="-1.88541">
        <ele>52.156502</ele>
        <time>2022-12-17T13:47:26.413Z</time>
      </trkpt>
      <trkpt lat="46.87984" lon="-1.88539">
        <ele>52.035605</ele>
        <time>2022-12-17T13:47:28.423Z</time>
      </trkpt>
      <trkpt lat="46.87975" lon="-1.88536">
        <ele>51.920211</ele>
        <time>2022-12-17T13:47:30.485Z</time>
      </trkpt>
      <trkpt lat="46.87965" lon="-1.88534">
        <ele>51.809239</ele>
        <time>2022-12-17T13:47:32.435Z</time>
      </trkpt>
      <trkpt lat="46.87956" lon="-1.88533">
        <ele>51.702247</ele>
        <time>2022-12-17T13:47:34.421Z</time>
      </trkpt>
      <trkpt lat="46.87943" lon="-1.88531">
        <ele>51.556834</ele>
        <time>2022-12-17T13:47:37.412Z</time>
      </trkpt>
      <trkpt lat="46.87933" lon="-1.88529">
        <ele>51.443009</ele>
        <time>2022-12-17T13:47:39.424Z</time>
      </trkpt>
      <trkpt lat="46.87923" lon="-1.88527">
        <ele>51.323393</ele>
        <time>2022-12-17T13:47:41.417Z</time>
      </trkpt>
      <trkpt lat="46.87913" lon="-1.88525">
        <ele>51.212631</ele>
        <time>2022-12-17T13:47:43.433Z</time>
      </trkpt>
      <trkpt lat="46.87903" lon="-1.88523">
        <ele>51.094639</ele>
        <time>2022-12-17T13:47:45.421Z</time>
      </trkpt>
      <trkpt lat="46.87893" lon="-1.88521">
        <ele>50.981401</ele>
        <time>2022-12-17T13:47:47.422Z</time>
      </trkpt>
      <trkpt lat="46.87884" lon="-1.88519">
        <ele>50.869775</ele>
        <time>2022-12-17T13:47:49.427Z</time>
      </trkpt>
      <trkpt lat="46.87873" lon="-1.88517">
        <ele>50.747462</ele>
        <time>2022-12-17T13:47:51.419Z</time>
      </trkpt>
      <trkpt lat="46.87863" lon="-1.88515">
        <ele>50.693766</ele>
        <time>2022-12-17T13:47:53.424Z</time>
      </trkpt>
      <trkpt lat="46.87853" lon="-1.88514">
        <ele>50.777156</ele>
        <time>2022-12-17T13:47:55.433Z</time>
      </trkpt>
      <trkpt lat="46.87843" lon="-1.88511">
        <ele>50.858685</ele>
        <time>2022-12-17T13:47:57.426Z</time>
      </trkpt>
      <trkpt lat="46.87832" lon="-1.88509">
        <ele>50.945351</ele>
        <time>2022-12-17T13:47:59.435Z</time>
      </trkpt>
      <trkpt lat="46.87821" lon="-1.88506">
        <ele>51.037781</ele>
        <time>2022-12-17T13:48:01.421Z</time>
      </trkpt>
      <trkpt lat="46.87811" lon="-1.88504">
        <ele>51.123205</ele>
        <time>2022-12-17T13:48:03.482Z</time>
      </trkpt>
      <trkpt lat="46.87801" lon="-1.88501">
        <ele>51.209062</ele>
        <time>2022-12-17T13:48:05.436Z</time>
      </trkpt>
      <trkpt lat="46.87792" lon="-1.885">
        <ele>51.284349</ele>
        <time>2022-12-17T13:48:07.423Z</time>
      </trkpt>
      <trkpt lat="46.87783" lon="-1.88498">
        <ele>51.358694</ele>
        <time>2022-12-17T13:48:09.427Z</time>
      </trkpt>
      <trkpt lat="46.87774" lon="-1.88497">
        <ele>51.434051</ele>
        <time>2022-12-17T13:48:11.429Z</time>
      </trkpt>
      <trkpt lat="46.87765" lon="-1.88495">
        <ele>51.508102</ele>
        <time>2022-12-17T13:48:13.424Z</time>
      </trkpt>
      <trkpt lat="46.87755" lon="-1.88493">
        <ele>51.58735</ele>
        <time>2022-12-17T13:48:15.427Z</time>
      </trkpt>
      <trkpt lat="46.87746" lon="-1.88492">
        <ele>51.663389</ele>
        <time>2022-12-17T13:48:17.427Z</time>
      </trkpt>
      <trkpt lat="46.87737" lon="-1.8849">
        <ele>51.737861</ele>
        <time>2022-12-17T13:48:19.422Z</time>
      </trkpt>
      <trkpt lat="46.87727" lon="-1.88488">
        <ele>51.818924</ele>
        <time>2022-12-17T13:48:21.424Z</time>
      </trkpt>
      <trkpt lat="46.87718" lon="-1.88487">
        <ele>51.896797</ele>
        <time>2022-12-17T13:48:23.414Z</time>
      </trkpt>
      <trkpt lat="46.87709" lon="-1.88485">
        <ele>51.972019</ele>
        <time>2022-12-17T13:48:25.469Z</time>
      </trkpt>
      <trkpt lat="46.87696" lon="-1.88483">
        <ele>52.073949</ele>
        <time>2022-12-17T13:48:28.436Z</time>
      </trkpt>
      <trkpt lat="46.87684" lon="-1.8848">
        <ele>52.186318</ele>
        <time>2022-12-17T13:48:31.410Z</time>
      </trkpt>
      <trkpt lat="46.87672" lon="-1.88477">
        <ele>52.306184</ele>
        <time>2022-12-17T13:48:34.429Z</time>
      </trkpt>
      <trkpt lat="46.8766" lon="-1.88474">
        <ele>52.432508</ele>
        <time>2022-12-17T13:48:37.414Z</time>
      </trkpt>
      <trkpt lat="46.87647" lon="-1.88472">
        <ele>52.560932</ele>
        <time>2022-12-17T13:48:40.408Z</time>
      </trkpt>
      <trkpt lat="46.87638" lon="-1.8847">
        <ele>52.651513</ele>
        <time>2022-12-17T13:48:42.413Z</time>
      </trkpt>
      <trkpt lat="46.87629" lon="-1.88468">
        <ele>52.74498</ele>
        <time>2022-12-17T13:48:44.430Z</time>
      </trkpt>
      <trkpt lat="46.87619" lon="-1.88466">
        <ele>52.839263</ele>
        <time>2022-12-17T13:48:46.424Z</time>
      </trkpt>
      <trkpt lat="46.8761" lon="-1.88464">
        <ele>52.934033</ele>
        <time>2022-12-17T13:48:48.419Z</time>
      </trkpt>
      <trkpt lat="46.87598" lon="-1.88462">
        <ele>53.054695</ele>
        <time>2022-12-17T13:48:51.436Z</time>
      </trkpt>
      <trkpt lat="46.87588" lon="-1.8846">
        <ele>53.162894</ele>
        <time>2022-12-17T13:48:54.417Z</time>
      </trkpt>
      <trkpt lat="46.87577" lon="-1.88458">
        <ele>53.271791</ele>
        <time>2022-12-17T13:48:57.404Z</time>
      </trkpt>
      <trkpt lat="46.87566" lon="-1.88455">
        <ele>53.381682</ele>
        <time>2022-12-17T13:49:00.407Z</time>
      </trkpt>
      <trkpt lat="46.87554" lon="-1.88453">
        <ele>53.502179</ele>
        <time>2022-12-17T13:49:03.421Z</time>
      </trkpt>
      <trkpt lat="46.87542" lon="-1.88452">
        <ele>53.629082</ele>
        <time>2022-12-17T13:49:06.401Z</time>
      </trkpt>
      <trkpt lat="46.87528" lon="-1.8845">
        <ele>53.762263</ele>
        <time>2022-12-17T13:49:09.425Z</time>
      </trkpt>
      <trkpt lat="46.87516" lon="-1.88447">
        <ele>53.884729</ele>
        <time>2022-12-17T13:49:12.408Z</time>
      </trkpt>
      <trkpt lat="46.87504" lon="-1.88444">
        <ele>53.883719</ele>
        <time>2022-12-17T13:49:15.420Z</time>
      </trkpt>
      <trkpt lat="46.8749" lon="-1.88443">
        <ele>53.728488</ele>
        <time>2022-12-17T13:49:18.429Z</time>
      </trkpt>
      <trkpt lat="46.87481" lon="-1.88441">
        <ele>53.616314</ele>
        <time>2022-12-17T13:49:20.433Z</time>
      </trkpt>
      <trkpt lat="46.87471" lon="-1.88439">
        <ele>53.501473</ele>
        <time>2022-12-17T13:49:22.432Z</time>
      </trkpt>
      <trkpt lat="46.87461" lon="-1.88437">
        <ele>53.383237</ele>
        <time>2022-12-17T13:49:24.419Z</time>
      </trkpt>
      <trkpt lat="46.87451" lon="-1.88435">
        <ele>53.271641</ele>
        <time>2022-12-17T13:49:26.422Z</time>
      </trkpt>
      <trkpt lat="46.87442" lon="-1.88433">
        <ele>53.155328</ele>
        <time>2022-12-17T13:49:28.429Z</time>
      </trkpt>
      <trkpt lat="46.87432" lon="-1.8843">
        <ele>53.04151</ele>
        <time>2022-12-17T13:49:30.420Z</time>
      </trkpt>
      <trkpt lat="46.87422" lon="-1.88428">
        <ele>52.929336</ele>
        <time>2022-12-17T13:49:32.407Z</time>
      </trkpt>
      <trkpt lat="46.87412" lon="-1.88426">
        <ele>52.808189</ele>
        <time>2022-12-17T13:49:34.420Z</time>
      </trkpt>
      <trkpt lat="46.87402" lon="-1.88424">
        <ele>52.69151</ele>
        <time>2022-12-17T13:49:36.420Z</time>
      </trkpt>
      <trkpt lat="46.87392" lon="-1.88422">
        <ele>52.57508</ele>
        <time>2022-12-17T13:49:38.405Z</time>
      </trkpt>
      <trkpt lat="46.87383" lon="-1.8842">
        <ele>52.462982</ele>
        <time>2022-12-17T13:49:40.482Z</time>
      </trkpt>
      <trkpt lat="46.87373" lon="-1.88418">
        <ele>52.34458</ele>
        <time>2022-12-17T13:49:42.433Z</time>
      </trkpt>
      <trkpt lat="46.87362" lon="-1.88416">
        <ele>52.222718</ele>
        <time>2022-12-17T13:49:44.419Z</time>
      </trkpt>
      <trkpt lat="46.87352" lon="-1.88414">
        <ele>52.100649</ele>
        <time>2022-12-17T13:49:46.439Z</time>
      </trkpt>
      <trkpt lat="46.87341" lon="-1.88413">
        <ele>51.976573</ele>
        <time>2022-12-17T13:49:48.421Z</time>
      </trkpt>
      <trkpt lat="46.87331" lon="-1.8841">
        <ele>51.862558</ele>
        <time>2022-12-17T13:49:50.429Z</time>
      </trkpt>
      <trkpt lat="46.87321" lon="-1.88409">
        <ele>51.902157</ele>
        <time>2022-12-17T13:49:52.410Z</time>
      </trkpt>
      <trkpt lat="46.87311" lon="-1.88408">
        <ele>51.939183</ele>
        <time>2022-12-17T13:49:54.423Z</time>
      </trkpt>
      <trkpt lat="46.87301" lon="-1.88405">
        <ele>51.975789</ele>
        <time>2022-12-17T13:49:56.426Z</time>
      </trkpt>
      <trkpt lat="46.87292" lon="-1.88404">
        <ele>52.009989</ele>
        <time>2022-12-17T13:49:58.436Z</time>
      </trkpt>
      <trkpt lat="46.87283" lon="-1.88402">
        <ele>52.043563</ele>
        <time>2022-12-17T13:50:00.436Z</time>
      </trkpt>
      <trkpt lat="46.87273" lon="-1.884">
        <ele>52.080823</ele>
        <time>2022-12-17T13:50:02.436Z</time>
      </trkpt>
      <trkpt lat="46.87263" lon="-1.88397">
        <ele>52.116987</ele>
        <time>2022-12-17T13:50:04.407Z</time>
      </trkpt>
      <trkpt lat="46.87253" lon="-1.88395">
        <ele>52.153152</ele>
        <time>2022-12-17T13:50:06.423Z</time>
      </trkpt>
      <trkpt lat="46.87243" lon="-1.88393">
        <ele>52.19144</ele>
        <time>2022-12-17T13:50:08.411Z</time>
      </trkpt>
      <trkpt lat="46.87232" lon="-1.88391">
        <ele>52.232094</ele>
        <time>2022-12-17T13:50:10.404Z</time>
      </trkpt>
      <trkpt lat="46.87221" lon="-1.88389">
        <ele>52.272863</ele>
        <time>2022-12-17T13:50:12.406Z</time>
      </trkpt>
      <trkpt lat="46.8721" lon="-1.88387">
        <ele>52.312867</ele>
        <time>2022-12-17T13:50:14.421Z</time>
      </trkpt>
      <trkpt lat="46.872" lon="-1.88386">
        <ele>52.353181</ele>
        <time>2022-12-17T13:50:16.420Z</time>
      </trkpt>
      <trkpt lat="46.87189" lon="-1.88384">
        <ele>52.391536</ele>
        <time>2022-12-17T13:50:18.411Z</time>
      </trkpt>
      <trkpt lat="46.87179" lon="-1.88382">
        <ele>52.430104</ele>
        <time>2022-12-17T13:50:20.421Z</time>
      </trkpt>
      <trkpt lat="46.87168" lon="-1.8838">
        <ele>52.46919</ele>
        <time>2022-12-17T13:50:22.429Z</time>
      </trkpt>
      <trkpt lat="46.87158" lon="-1.88378">
        <ele>52.508712</ele>
        <time>2022-12-17T13:50:24.411Z</time>
      </trkpt>
      <trkpt lat="46.87147" lon="-1.88376">
        <ele>52.543907</ele>
        <time>2022-12-17T13:50:26.418Z</time>
      </trkpt>
      <trkpt lat="46.87136" lon="-1.88374">
        <ele>52.576935</ele>
        <time>2022-12-17T13:50:28.467Z</time>
      </trkpt>
      <trkpt lat="46.87126" lon="-1.88372">
        <ele>52.61004</ele>
        <time>2022-12-17T13:50:30.431Z</time>
      </trkpt>
      <trkpt lat="46.87115" lon="-1.88369">
        <ele>52.6417</ele>
        <time>2022-12-17T13:50:32.409Z</time>
      </trkpt>
      <trkpt lat="46.87105" lon="-1.88367">
        <ele>52.674753</ele>
        <time>2022-12-17T13:50:34.412Z</time>
      </trkpt>
      <trkpt lat="46.87095" lon="-1.88365">
        <ele>52.705432</ele>
        <time>2022-12-17T13:50:36.432Z</time>
      </trkpt>
      <trkpt lat="46.87085" lon="-1.88363">
        <ele>52.735745</ele>
        <time>2022-12-17T13:50:38.416Z</time>
      </trkpt>
      <trkpt lat="46.87076" lon="-1.88361">
        <ele>52.763571</ele>
        <time>2022-12-17T13:50:40.425Z</time>
      </trkpt>
      <trkpt lat="46.87062" lon="-1.88359">
        <ele>52.804459</ele>
        <time>2022-12-17T13:50:43.426Z</time>
      </trkpt>
      <trkpt lat="46.87053" lon="-1.88358">
        <ele>52.831939</ele>
        <time>2022-12-17T13:50:45.416Z</time>
      </trkpt>
      <trkpt lat="46.87044" lon="-1.88356">
        <ele>52.8602</ele>
        <time>2022-12-17T13:50:47.410Z</time>
      </trkpt>
      <trkpt lat="46.87035" lon="-1.88354">
        <ele>52.888132</ele>
        <time>2022-12-17T13:50:49.419Z</time>
      </trkpt>
      <trkpt lat="46.87026" lon="-1.88352">
        <ele>52.915432</ele>
        <time>2022-12-17T13:50:51.411Z</time>
      </trkpt>
      <trkpt lat="46.87016" lon="-1.88351">
        <ele>52.945977</ele>
        <time>2022-12-17T13:50:53.433Z</time>
      </trkpt>
      <trkpt lat="46.87006" lon="-1.88348">
        <ele>52.975905</ele>
        <time>2022-12-17T13:50:55.432Z</time>
      </trkpt>
      <trkpt lat="46.86997" lon="-1.88346">
        <ele>53.004768</ele>
        <time>2022-12-17T13:50:57.412Z</time>
      </trkpt>
      <trkpt lat="46.86987" lon="-1.88344">
        <ele>53.034294</ele>
        <time>2022-12-17T13:50:59.418Z</time>
      </trkpt>
      <trkpt lat="46.86978" lon="-1.88343">
        <ele>53.063979</ele>
        <time>2022-12-17T13:51:01.487Z</time>
      </trkpt>
      <trkpt lat="46.86968" lon="-1.88341">
        <ele>53.010656</ele>
        <time>2022-12-17T13:51:03.426Z</time>
      </trkpt>
      <trkpt lat="46.86955" lon="-1.88339">
        <ele>52.892099</ele>
        <time>2022-12-17T13:51:06.428Z</time>
      </trkpt>
      <trkpt lat="46.86943" lon="-1.88336">
        <ele>52.779892</ele>
        <time>2022-12-17T13:51:09.413Z</time>
      </trkpt>
      <trkpt lat="46.86929" lon="-1.88333">
        <ele>52.661593</ele>
        <time>2022-12-17T13:51:12.413Z</time>
      </trkpt>
      <trkpt lat="46.86916" lon="-1.88332">
        <ele>52.541295</ele>
        <time>2022-12-17T13:51:15.407Z</time>
      </trkpt>
      <trkpt lat="46.86903" lon="-1.88329">
        <ele>52.421057</ele>
        <time>2022-12-17T13:51:18.410Z</time>
      </trkpt>
      <trkpt lat="46.8689" lon="-1.88326">
        <ele>52.303893</ele>
        <time>2022-12-17T13:51:21.434Z</time>
      </trkpt>
      <trkpt lat="46.8688" lon="-1.88325">
        <ele>52.219285</ele>
        <time>2022-12-17T13:51:23.421Z</time>
      </trkpt>
      <trkpt lat="46.86871" lon="-1.88323">
        <ele>52.134543</ele>
        <time>2022-12-17T13:51:25.435Z</time>
      </trkpt>
      <trkpt lat="46.86862" lon="-1.88321">
        <ele>52.049299</ele>
        <time>2022-12-17T13:51:27.431Z</time>
      </trkpt>
      <trkpt lat="46.86852" lon="-1.88319">
        <ele>51.959631</ele>
        <time>2022-12-17T13:51:29.424Z</time>
      </trkpt>
      <trkpt lat="46.86842" lon="-1.88316">
        <ele>51.870654</ele>
        <time>2022-12-17T13:51:31.422Z</time>
      </trkpt>
      <trkpt lat="46.86832" lon="-1.88315">
        <ele>51.780505</ele>
        <time>2022-12-17T13:51:33.438Z</time>
      </trkpt>
      <trkpt lat="46.86823" lon="-1.88313">
        <ele>51.698277</ele>
        <time>2022-12-17T13:51:35.435Z</time>
      </trkpt>
      <trkpt lat="46.86813" lon="-1.88311">
        <ele>51.612714</ele>
        <time>2022-12-17T13:51:37.430Z</time>
      </trkpt>
      <trkpt lat="46.868" lon="-1.8831">
        <ele>51.496731</ele>
        <time>2022-12-17T13:51:40.412Z</time>
      </trkpt>
      <trkpt lat="46.86788" lon="-1.88306">
        <ele>51.25885</ele>
        <time>2022-12-17T13:51:43.436Z</time>
      </trkpt>
      <trkpt lat="46.86776" lon="-1.88304">
        <ele>50.995989</ele>
        <time>2022-12-17T13:51:46.436Z</time>
      </trkpt>
      <trkpt lat="46.86764" lon="-1.88302">
        <ele>50.716904</ele>
        <time>2022-12-17T13:51:49.424Z</time>
      </trkpt>
      <trkpt lat="46.8675" lon="-1.883">
        <ele>50.404837</ele>
        <time>2022-12-17T13:51:52.433Z</time>
      </trkpt>
      <trkpt lat="46.86741" lon="-1.88298">
        <ele>50.200038</ele>
        <time>2022-12-17T13:51:54.436Z</time>
      </trkpt>
      <trkpt lat="46.86732" lon="-1.88296">
        <ele>49.983004</ele>
        <time>2022-12-17T13:51:56.409Z</time>
      </trkpt>
      <trkpt lat="46.86722" lon="-1.88295">
        <ele>49.754101</ele>
        <time>2022-12-17T13:51:58.421Z</time>
      </trkpt>
      <trkpt lat="46.86711" lon="-1.88292">
        <ele>49.517161</ele>
        <time>2022-12-17T13:52:00.483Z</time>
      </trkpt>
      <trkpt lat="46.867" lon="-1.88289">
        <ele>49.254968</ele>
        <time>2022-12-17T13:52:02.413Z</time>
      </trkpt>
      <trkpt lat="46.86688" lon="-1.88287">
        <ele>48.990536</ele>
        <time>2022-12-17T13:52:04.439Z</time>
      </trkpt>
      <trkpt lat="46.86676" lon="-1.88285">
        <ele>48.708377</ele>
        <time>2022-12-17T13:52:06.438Z</time>
      </trkpt>
      <trkpt lat="46.86663" lon="-1.88282">
        <ele>48.418907</ele>
        <time>2022-12-17T13:52:08.430Z</time>
      </trkpt>
      <trkpt lat="46.86651" lon="-1.8828">
        <ele>48.133479</ele>
        <time>2022-12-17T13:52:10.424Z</time>
      </trkpt>
      <trkpt lat="46.86638" lon="-1.88277">
        <ele>47.836653</ele>
        <time>2022-12-17T13:52:12.415Z</time>
      </trkpt>
      <trkpt lat="46.86624" lon="-1.88274">
        <ele>47.521266</ele>
        <time>2022-12-17T13:52:14.429Z</time>
      </trkpt>
      <trkpt lat="46.8661" lon="-1.88271">
        <ele>47.475996</ele>
        <time>2022-12-17T13:52:16.436Z</time>
      </trkpt>
      <trkpt lat="46.86596" lon="-1.88269">
        <ele>47.604017</ele>
        <time>2022-12-17T13:52:18.440Z</time>
      </trkpt>
      <trkpt lat="46.86581" lon="-1.88265">
        <ele>47.73764</ele>
        <time>2022-12-17T13:52:20.424Z</time>
      </trkpt>
      <trkpt lat="46.86567" lon="-1.88263">
        <ele>47.870042</ele>
        <time>2022-12-17T13:52:22.448Z</time>
      </trkpt>
      <trkpt lat="46.86553" lon="-1.8826">
        <ele>47.992395</ele>
        <time>2022-12-17T13:52:24.435Z</time>
      </trkpt>
      <trkpt lat="46.8654" lon="-1.88258">
        <ele>48.113931</ele>
        <time>2022-12-17T13:52:26.429Z</time>
      </trkpt>
      <trkpt lat="46.86527" lon="-1.88255">
        <ele>48.22744</ele>
        <time>2022-12-17T13:52:28.427Z</time>
      </trkpt>
      <trkpt lat="46.86515" lon="-1.88254">
        <ele>48.334004</ele>
        <time>2022-12-17T13:52:30.424Z</time>
      </trkpt>
      <trkpt lat="46.86505" lon="-1.88252">
        <ele>48.425405</ele>
        <time>2022-12-17T13:52:32.426Z</time>
      </trkpt>
      <trkpt lat="46.86496" lon="-1.8825">
        <ele>48.511053</ele>
        <time>2022-12-17T13:52:34.438Z</time>
      </trkpt>
      <trkpt lat="46.86483" lon="-1.88248">
        <ele>48.628866</ele>
        <time>2022-12-17T13:52:37.410Z</time>
      </trkpt>
      <trkpt lat="46.86471" lon="-1.88246">
        <ele>48.73306</ele>
        <time>2022-12-17T13:52:40.431Z</time>
      </trkpt>
      <trkpt lat="46.86461" lon="-1.88244">
        <ele>48.822976</ele>
        <time>2022-12-17T13:52:43.495Z</time>
      </trkpt>
      <trkpt lat="46.8645" lon="-1.88241">
        <ele>48.930161</ele>
        <time>2022-12-17T13:52:47.426Z</time>
      </trkpt>
      <trkpt lat="46.86441" lon="-1.88239">
        <ele>49.011973</ele>
        <time>2022-12-17T13:52:50.414Z</time>
      </trkpt>
      <trkpt lat="46.86431" lon="-1.88238">
        <ele>49.088639</ele>
        <time>2022-12-17T13:52:53.436Z</time>
      </trkpt>
      <trkpt lat="46.86421" lon="-1.88236">
        <ele>49.160744</ele>
        <time>2022-12-17T13:52:56.417Z</time>
      </trkpt>
      <trkpt lat="46.86411" lon="-1.88234">
        <ele>49.23266</ele>
        <time>2022-12-17T13:52:59.479Z</time>
      </trkpt>
      <trkpt lat="46.86402" lon="-1.88232">
        <ele>49.304986</ele>
        <time>2022-12-17T13:53:02.410Z</time>
      </trkpt>
      <trkpt lat="46.86392" lon="-1.8823">
        <ele>49.379373</ele>
        <time>2022-12-17T13:53:05.411Z</time>
      </trkpt>
      <trkpt lat="46.86382" lon="-1.88227">
        <ele>49.452683</ele>
        <time>2022-12-17T13:53:08.431Z</time>
      </trkpt>
      <trkpt lat="46.86372" lon="-1.88225">
        <ele>49.52648</ele>
        <time>2022-12-17T13:53:11.425Z</time>
      </trkpt>
      <trkpt lat="46.86362" lon="-1.88223">
        <ele>49.603149</ele>
        <time>2022-12-17T13:53:14.418Z</time>
      </trkpt>
      <trkpt lat="46.86351" lon="-1.88221">
        <ele>49.684176</ele>
        <time>2022-12-17T13:53:17.427Z</time>
      </trkpt>
      <trkpt lat="46.86341" lon="-1.88219">
        <ele>49.761513</ele>
        <time>2022-12-17T13:53:20.421Z</time>
      </trkpt>
      <trkpt lat="46.86331" lon="-1.88218">
        <ele>49.839124</ele>
        <time>2022-12-17T13:53:23.405Z</time>
      </trkpt>
      <trkpt lat="46.86319" lon="-1.88216">
        <ele>49.922883</ele>
        <time>2022-12-17T13:53:26.410Z</time>
      </trkpt>
      <trkpt lat="46.86308" lon="-1.88214">
        <ele>50.012161</ele>
        <time>2022-12-17T13:53:29.407Z</time>
      </trkpt>
      <trkpt lat="46.86295" lon="-1.88212">
        <ele>50.103047</ele>
        <time>2022-12-17T13:53:32.425Z</time>
      </trkpt>
      <trkpt lat="46.86283" lon="-1.88209">
        <ele>50.199456</ele>
        <time>2022-12-17T13:53:35.430Z</time>
      </trkpt>
      <trkpt lat="46.86274" lon="-1.88208">
        <ele>50.266677</ele>
        <time>2022-12-17T13:53:37.440Z</time>
      </trkpt>
      <trkpt lat="46.86264" lon="-1.88206">
        <ele>50.340661</ele>
        <time>2022-12-17T13:53:39.415Z</time>
      </trkpt>
      <trkpt lat="46.86253" lon="-1.88204">
        <ele>50.304432</ele>
        <time>2022-12-17T13:53:41.421Z</time>
      </trkpt>
      <trkpt lat="46.86242" lon="-1.88202">
        <ele>50.235894</ele>
        <time>2022-12-17T13:53:43.430Z</time>
      </trkpt>
      <trkpt lat="46.86231" lon="-1.88199">
        <ele>50.167648</ele>
        <time>2022-12-17T13:53:45.429Z</time>
      </trkpt>
      <trkpt lat="46.8622" lon="-1.88197">
        <ele>50.097177</ele>
        <time>2022-12-17T13:53:47.411Z</time>
      </trkpt>
      <trkpt lat="46.86208" lon="-1.88195">
        <ele>50.025606</ele>
        <time>2022-12-17T13:53:49.429Z</time>
      </trkpt>
      <trkpt lat="46.86196" lon="-1.88191">
        <ele>49.947285</ele>
        <time>2022-12-17T13:53:51.430Z</time>
      </trkpt>
      <trkpt lat="46.86184" lon="-1.88189">
        <ele>49.876208</ele>
        <time>2022-12-17T13:53:53.440Z</time>
      </trkpt>
      <trkpt lat="46.86172" lon="-1.88187">
        <ele>49.803572</ele>
        <time>2022-12-17T13:53:55.429Z</time>
      </trkpt>
      <trkpt lat="46.86161" lon="-1.88185">
        <ele>49.733765</ele>
        <time>2022-12-17T13:53:57.501Z</time>
      </trkpt>
      <trkpt lat="46.86151" lon="-1.88183">
        <ele>49.668422</ele>
        <time>2022-12-17T13:53:59.425Z</time>
      </trkpt>
      <trkpt lat="46.8614" lon="-1.88181">
        <ele>49.602082</ele>
        <time>2022-12-17T13:54:01.433Z</time>
      </trkpt>
      <trkpt lat="46.86129" lon="-1.88179">
        <ele>49.538392</ele>
        <time>2022-12-17T13:54:03.440Z</time>
      </trkpt>
      <trkpt lat="46.8612" lon="-1.88178">
        <ele>49.479319</ele>
        <time>2022-12-17T13:54:05.436Z</time>
      </trkpt>
      <trkpt lat="46.8611" lon="-1.88175">
        <ele>49.416171</ele>
        <time>2022-12-17T13:54:07.432Z</time>
      </trkpt>
      <trkpt lat="46.861" lon="-1.88173">
        <ele>49.353193</ele>
        <time>2022-12-17T13:54:09.423Z</time>
      </trkpt>
      <trkpt lat="46.8609" lon="-1.8817">
        <ele>49.293738</ele>
        <time>2022-12-17T13:54:11.427Z</time>
      </trkpt>
      <trkpt lat="46.86081" lon="-1.88169">
        <ele>49.251883</ele>
        <time>2022-12-17T13:54:13.483Z</time>
      </trkpt>
      <trkpt lat="46.86072" lon="-1.88167">
        <ele>49.240772</ele>
        <time>2022-12-17T13:54:15.413Z</time>
      </trkpt>
      <trkpt lat="46.86063" lon="-1.88166">
        <ele>49.22984</ele>
        <time>2022-12-17T13:54:17.436Z</time>
      </trkpt>
      <trkpt lat="46.8605" lon="-1.88162">
        <ele>49.213987</ele>
        <time>2022-12-17T13:54:20.427Z</time>
      </trkpt>
      <trkpt lat="46.86038" lon="-1.8816">
        <ele>49.198718</ele>
        <time>2022-12-17T13:54:23.415Z</time>
      </trkpt>
      <trkpt lat="46.86026" lon="-1.88157">
        <ele>49.184026</ele>
        <time>2022-12-17T13:54:26.416Z</time>
      </trkpt>
      <trkpt lat="46.86014" lon="-1.88155">
        <ele>49.169368</ele>
        <time>2022-12-17T13:54:29.428Z</time>
      </trkpt>
      <trkpt lat="46.86001" lon="-1.88153">
        <ele>49.154517</ele>
        <time>2022-12-17T13:54:32.426Z</time>
      </trkpt>
      <trkpt lat="46.85989" lon="-1.88152">
        <ele>49.139476</ele>
        <time>2022-12-17T13:54:35.439Z</time>
      </trkpt>
      <trkpt lat="46.85978" lon="-1.88152">
        <ele>49.125911</ele>
        <time>2022-12-17T13:54:38.438Z</time>
      </trkpt>
      <trkpt lat="46.85967" lon="-1.88153">
        <ele>49.112693</ele>
        <time>2022-12-17T13:54:41.411Z</time>
      </trkpt>
      <trkpt lat="46.85956" lon="-1.88155">
        <ele>49.099167</ele>
        <time>2022-12-17T13:54:44.429Z</time>
      </trkpt>
      <trkpt lat="46.85945" lon="-1.8816">
        <ele>49.08524</ele>
        <time>2022-12-17T13:54:47.416Z</time>
      </trkpt>
      <trkpt lat="46.85936" lon="-1.88167">
        <ele>49.07307</ele>
        <time>2022-12-17T13:54:50.440Z</time>
      </trkpt>
      <trkpt lat="46.85926" lon="-1.88173">
        <ele>49.05979</ele>
        <time>2022-12-17T13:54:54.440Z</time>
      </trkpt>
      <trkpt lat="46.85916" lon="-1.88167">
        <ele>49.046565</ele>
        <time>2022-12-17T13:54:58.421Z</time>
      </trkpt>
      <trkpt lat="46.85904" lon="-1.88165">
        <ele>49.071525</ele>
        <time>2022-12-17T13:55:02.453Z</time>
      </trkpt>
      <trkpt lat="46.85892" lon="-1.88166">
        <ele>49.174474</ele>
        <time>2022-12-17T13:55:06.425Z</time>
      </trkpt>
      <trkpt lat="46.85881" lon="-1.88165">
        <ele>49.276523</ele>
        <time>2022-12-17T13:55:10.432Z</time>
      </trkpt>
      <trkpt lat="46.85872" lon="-1.88163">
        <ele>49.357317</ele>
        <time>2022-12-17T13:55:13.425Z</time>
      </trkpt>
      <trkpt lat="46.8586" lon="-1.88161">
        <ele>49.461377</ele>
        <time>2022-12-17T13:55:17.417Z</time>
      </trkpt>
      <trkpt lat="46.85851" lon="-1.88158">
        <ele>49.541084</ele>
        <time>2022-12-17T13:55:20.430Z</time>
      </trkpt>
      <trkpt lat="46.85842" lon="-1.88155">
        <ele>49.620236</ele>
        <time>2022-12-17T13:55:23.476Z</time>
      </trkpt>
      <trkpt lat="46.85833" lon="-1.88152">
        <ele>49.69883</ele>
        <time>2022-12-17T13:55:26.407Z</time>
      </trkpt>
      <trkpt lat="46.85822" lon="-1.88147">
        <ele>49.803883</ele>
        <time>2022-12-17T13:55:30.412Z</time>
      </trkpt>
      <trkpt lat="46.8581" lon="-1.88142">
        <ele>49.907917</ele>
        <time>2022-12-17T13:55:34.420Z</time>
      </trkpt>
      <trkpt lat="46.85801" lon="-1.88138">
        <ele>49.993728</ele>
        <time>2022-12-17T13:55:37.407Z</time>
      </trkpt>
      <trkpt lat="46.85791" lon="-1.88135">
        <ele>50.080364</ele>
        <time>2022-12-17T13:55:40.419Z</time>
      </trkpt>
      <trkpt lat="46.85782" lon="-1.88131">
        <ele>50.161818</ele>
        <time>2022-12-17T13:55:43.424Z</time>
      </trkpt>
      <trkpt lat="46.85773" lon="-1.88128">
        <ele>50.240927</ele>
        <time>2022-12-17T13:55:46.412Z</time>
      </trkpt>
      <trkpt lat="46.85764" lon="-1.88125">
        <ele>50.320973</ele>
        <time>2022-12-17T13:55:49.436Z</time>
      </trkpt>
      <trkpt lat="46.85753" lon="-1.8812">
        <ele>50.425849</ele>
        <time>2022-12-17T13:55:53.432Z</time>
      </trkpt>
      <trkpt lat="46.85744" lon="-1.88116">
        <ele>50.505131</ele>
        <time>2022-12-17T13:55:56.436Z</time>
      </trkpt>
      <trkpt lat="46.85733" lon="-1.8812">
        <ele>50.603888</ele>
        <time>2022-12-17T13:56:00.492Z</time>
      </trkpt>
      <trkpt lat="46.85731" lon="-1.88127">
        <ele>50.498451</ele>
        <time>2022-12-17T13:56:24.551Z</time>
      </trkpt>
      <trkpt lat="46.85717" lon="-1.88136">
        <ele>50.187098</ele>
        <time>2022-12-17T13:57:50.424Z</time>
      </trkpt>
      <trkpt lat="46.85707" lon="-1.88134">
        <ele>49.974482</ele>
        <time>2022-12-17T13:57:53.421Z</time>
      </trkpt>
      <trkpt lat="46.85695" lon="-1.88136">
        <ele>49.738462</ele>
        <time>2022-12-17T13:57:56.413Z</time>
      </trkpt>
      <trkpt lat="46.85683" lon="-1.88143">
        <ele>49.480876</ele>
        <time>2022-12-17T13:57:59.415Z</time>
      </trkpt>
      <trkpt lat="46.85671" lon="-1.88144">
        <ele>49.224168</ele>
        <time>2022-12-17T13:58:02.412Z</time>
      </trkpt>
      <trkpt lat="46.85657" lon="-1.88146">
        <ele>48.952004</ele>
        <time>2022-12-17T13:58:05.426Z</time>
      </trkpt>
      <trkpt lat="46.85648" lon="-1.8815">
        <ele>48.758194</ele>
        <time>2022-12-17T13:58:07.408Z</time>
      </trkpt>
      <trkpt lat="46.85639" lon="-1.88158">
        <ele>48.544747</ele>
        <time>2022-12-17T13:58:09.405Z</time>
      </trkpt>
      <trkpt lat="46.85632" lon="-1.88171">
        <ele>48.317431</ele>
        <time>2022-12-17T13:58:11.416Z</time>
      </trkpt>
      <trkpt lat="46.85626" lon="-1.88186">
        <ele>48.082875</ele>
        <time>2022-12-17T13:58:13.415Z</time>
      </trkpt>
      <trkpt lat="46.85622" lon="-1.88202">
        <ele>47.849536</ele>
        <time>2022-12-17T13:58:15.409Z</time>
      </trkpt>
      <trkpt lat="46.85618" lon="-1.88217">
        <ele>47.626815</ele>
        <time>2022-12-17T13:58:17.411Z</time>
      </trkpt>
      <trkpt lat="46.85614" lon="-1.88233">
        <ele>47.392738</ele>
        <time>2022-12-17T13:58:19.415Z</time>
      </trkpt>
      <trkpt lat="46.85609" lon="-1.88247">
        <ele>47.171488</ele>
        <time>2022-12-17T13:58:21.416Z</time>
      </trkpt>
      <trkpt lat="46.85604" lon="-1.88259">
        <ele>46.980838</ele>
        <time>2022-12-17T13:58:23.416Z</time>
      </trkpt>
      <trkpt lat="46.85599" lon="-1.8827">
        <ele>46.859874</ele>
        <time>2022-12-17T13:58:25.412Z</time>
      </trkpt>
      <trkpt lat="46.85592" lon="-1.88281">
        <ele>46.73517</ele>
        <time>2022-12-17T13:58:27.414Z</time>
      </trkpt>
      <trkpt lat="46.85586" lon="-1.88292">
        <ele>46.607218</ele>
        <time>2022-12-17T13:58:29.409Z</time>
      </trkpt>
      <trkpt lat="46.85579" lon="-1.88301">
        <ele>46.48355</ele>
        <time>2022-12-17T13:58:31.431Z</time>
      </trkpt>
      <trkpt lat="46.85572" lon="-1.88312">
        <ele>46.35166</ele>
        <time>2022-12-17T13:58:33.417Z</time>
      </trkpt>
      <trkpt lat="46.85566" lon="-1.88323">
        <ele>46.226955</ele>
        <time>2022-12-17T13:58:35.412Z</time>
      </trkpt>
      <trkpt lat="46.8556" lon="-1.88335">
        <ele>46.099417</ele>
        <time>2022-12-17T13:58:37.418Z</time>
      </trkpt>
      <trkpt lat="46.85555" lon="-1.88346">
        <ele>45.971878</ele>
        <time>2022-12-17T13:58:39.407Z</time>
      </trkpt>
      <trkpt lat="46.85549" lon="-1.88359">
        <ele>45.839086</ele>
        <time>2022-12-17T13:58:41.419Z</time>
      </trkpt>
      <trkpt lat="46.85544" lon="-1.88372">
        <ele>45.707899</ele>
        <time>2022-12-17T13:58:43.410Z</time>
      </trkpt>
      <trkpt lat="46.85541" lon="-1.88385">
        <ele>45.583685</ele>
        <time>2022-12-17T13:58:45.423Z</time>
      </trkpt>
      <trkpt lat="46.85537" lon="-1.88398">
        <ele>45.461277</ele>
        <time>2022-12-17T13:58:47.435Z</time>
      </trkpt>
      <trkpt lat="46.85533" lon="-1.88416">
        <ele>45.287352</ele>
        <time>2022-12-17T13:58:50.424Z</time>
      </trkpt>
      <trkpt lat="46.85531" lon="-1.88434">
        <ele>45.130743</ele>
        <time>2022-12-17T13:58:53.410Z</time>
      </trkpt>
      <trkpt lat="46.8553" lon="-1.8845">
        <ele>44.98521</ele>
        <time>2022-12-17T13:58:56.430Z</time>
      </trkpt>
      <trkpt lat="46.85529" lon="-1.88464">
        <ele>44.858172</ele>
        <time>2022-12-17T13:58:59.410Z</time>
      </trkpt>
      <trkpt lat="46.85529" lon="-1.8848">
        <ele>44.719625</ele>
        <time>2022-12-17T13:59:02.415Z</time>
      </trkpt>
      <trkpt lat="46.8553" lon="-1.88497">
        <ele>44.68329</ele>
        <time>2022-12-17T13:59:05.411Z</time>
      </trkpt>
      <trkpt lat="46.85533" lon="-1.88515">
        <ele>44.74997</ele>
        <time>2022-12-17T13:59:08.406Z</time>
      </trkpt>
      <trkpt lat="46.85539" lon="-1.88531">
        <ele>44.814669</ele>
        <time>2022-12-17T13:59:11.426Z</time>
      </trkpt>
      <trkpt lat="46.85546" lon="-1.88547">
        <ele>44.884658</ele>
        <time>2022-12-17T13:59:14.409Z</time>
      </trkpt>
      <trkpt lat="46.85551" lon="-1.8856">
        <ele>44.935128</ele>
        <time>2022-12-17T13:59:16.412Z</time>
      </trkpt>
      <trkpt lat="46.85556" lon="-1.88573">
        <ele>44.989465</ele>
        <time>2022-12-17T13:59:18.431Z</time>
      </trkpt>
      <trkpt lat="46.85561" lon="-1.88586">
        <ele>45.043539</ele>
        <time>2022-12-17T13:59:20.412Z</time>
      </trkpt>
      <trkpt lat="46.85567" lon="-1.88598">
        <ele>45.098935</ele>
        <time>2022-12-17T13:59:22.409Z</time>
      </trkpt>
      <trkpt lat="46.85572" lon="-1.88611">
        <ele>45.151989</ele>
        <time>2022-12-17T13:59:24.411Z</time>
      </trkpt>
      <trkpt lat="46.85576" lon="-1.88625">
        <ele>45.2055</ele>
        <time>2022-12-17T13:59:26.432Z</time>
      </trkpt>
      <trkpt lat="46.85578" lon="-1.88638">
        <ele>45.254396</ele>
        <time>2022-12-17T13:59:28.411Z</time>
      </trkpt>
      <trkpt lat="46.85579" lon="-1.88657">
        <ele>45.323326</ele>
        <time>2022-12-17T13:59:31.421Z</time>
      </trkpt>
      <trkpt lat="46.85577" lon="-1.88676">
        <ele>45.391914</ele>
        <time>2022-12-17T13:59:34.421Z</time>
      </trkpt>
      <trkpt lat="46.85573" lon="-1.88693">
        <ele>45.458406</ele>
        <time>2022-12-17T13:59:37.417Z</time>
      </trkpt>
      <trkpt lat="46.85567" lon="-1.88709">
        <ele>45.523817</ele>
        <time>2022-12-17T13:59:40.415Z</time>
      </trkpt>
      <trkpt lat="46.85561" lon="-1.88723">
        <ele>45.583457</ele>
        <time>2022-12-17T13:59:43.423Z</time>
      </trkpt>
      <trkpt lat="46.85554" lon="-1.88734">
        <ele>45.56626</ele>
        <time>2022-12-17T13:59:46.422Z</time>
      </trkpt>
      <trkpt lat="46.85548" lon="-1.88745">
        <ele>45.527152</ele>
        <time>2022-12-17T13:59:49.415Z</time>
      </trkpt>
      <trkpt lat="46.85544" lon="-1.88757">
        <ele>45.487966</ele>
        <time>2022-12-17T13:59:52.413Z</time>
      </trkpt>
      <trkpt lat="46.85532" lon="-1.88754">
        <ele>45.438475</ele>
        <time>2022-12-17T13:59:56.413Z</time>
      </trkpt>
      <trkpt lat="46.85522" lon="-1.88748">
        <ele>45.393767</ele>
        <time>2022-12-17T13:59:59.409Z</time>
      </trkpt>
      <trkpt lat="46.8551" lon="-1.88749">
        <ele>45.345599</ele>
        <time>2022-12-17T14:00:02.411Z</time>
      </trkpt>
      <trkpt lat="46.85499" lon="-1.88755">
        <ele>45.295947</ele>
        <time>2022-12-17T14:00:05.429Z</time>
      </trkpt>
      <trkpt lat="46.85489" lon="-1.88766">
        <ele>45.243367</ele>
        <time>2022-12-17T14:00:08.412Z</time>
      </trkpt>
      <trkpt lat="46.85478" lon="-1.88774">
        <ele>45.193077</ele>
        <time>2022-12-17T14:00:11.414Z</time>
      </trkpt>
      <trkpt lat="46.85468" lon="-1.88784">
        <ele>45.143195</ele>
        <time>2022-12-17T14:00:14.430Z</time>
      </trkpt>
      <trkpt lat="46.85458" lon="-1.88794">
        <ele>45.093626</ele>
        <time>2022-12-17T14:00:17.424Z</time>
      </trkpt>
      <trkpt lat="46.85448" lon="-1.88803">
        <ele>45.042313</ele>
        <time>2022-12-17T14:00:20.406Z</time>
      </trkpt>
      <trkpt lat="46.85437" lon="-1.88814">
        <ele>44.98788</ele>
        <time>2022-12-17T14:00:23.412Z</time>
      </trkpt>
      <trkpt lat="46.85426" lon="-1.88825">
        <ele>44.93266</ele>
        <time>2022-12-17T14:00:26.417Z</time>
      </trkpt>
      <trkpt lat="46.85415" lon="-1.88834">
        <ele>44.880581</ele>
        <time>2022-12-17T14:00:29.411Z</time>
      </trkpt>
      <trkpt lat="46.85404" lon="-1.88843">
        <ele>44.900717</ele>
        <time>2022-12-17T14:00:32.412Z</time>
      </trkpt>
      <trkpt lat="46.85394" lon="-1.88852">
        <ele>45.015695</ele>
        <time>2022-12-17T14:00:35.414Z</time>
      </trkpt>
      <trkpt lat="46.85383" lon="-1.88862">
        <ele>45.134568</ele>
        <time>2022-12-17T14:00:38.407Z</time>
      </trkpt>
      <trkpt lat="46.85372" lon="-1.88869">
        <ele>45.25057</ele>
        <time>2022-12-17T14:00:41.410Z</time>
      </trkpt>
      <trkpt lat="46.8536" lon="-1.88876">
        <ele>45.368929</ele>
        <time>2022-12-17T14:00:44.411Z</time>
      </trkpt>
      <trkpt lat="46.85349" lon="-1.88882">
        <ele>45.482774</ele>
        <time>2022-12-17T14:00:47.410Z</time>
      </trkpt>
      <trkpt lat="46.85339" lon="-1.88887">
        <ele>45.585536</ele>
        <time>2022-12-17T14:00:50.411Z</time>
      </trkpt>
      <trkpt lat="46.85329" lon="-1.88893">
        <ele>45.679445</ele>
        <time>2022-12-17T14:00:53.411Z</time>
      </trkpt>
      <trkpt lat="46.8532" lon="-1.88898">
        <ele>45.771363</ele>
        <time>2022-12-17T14:00:56.412Z</time>
      </trkpt>
      <trkpt lat="46.85313" lon="-1.88906">
        <ele>45.85978</ele>
        <time>2022-12-17T14:00:59.412Z</time>
      </trkpt>
      <trkpt lat="46.85308" lon="-1.88919">
        <ele>45.952075</ele>
        <time>2022-12-17T14:01:02.409Z</time>
      </trkpt>
      <trkpt lat="46.85301" lon="-1.88931">
        <ele>46.054424</ele>
        <time>2022-12-17T14:01:05.408Z</time>
      </trkpt>
      <trkpt lat="46.85292" lon="-1.88942">
        <ele>46.171272</ele>
        <time>2022-12-17T14:01:08.413Z</time>
      </trkpt>
      <trkpt lat="46.85286" lon="-1.88957">
        <ele>46.278122</ele>
        <time>2022-12-17T14:01:11.417Z</time>
      </trkpt>
      <trkpt lat="46.85281" lon="-1.88972">
        <ele>46.382394</ele>
        <time>2022-12-17T14:01:14.413Z</time>
      </trkpt>
      <trkpt lat="46.85277" lon="-1.88987">
        <ele>46.492</ele>
        <time>2022-12-17T14:01:17.407Z</time>
      </trkpt>
      <trkpt lat="46.85276" lon="-1.89005">
        <ele>46.688537</ele>
        <time>2022-12-17T14:01:20.410Z</time>
      </trkpt>
      <trkpt lat="46.85278" lon="-1.89024">
        <ele>46.978182</ele>
        <time>2022-12-17T14:01:23.405Z</time>
      </trkpt>
      <trkpt lat="46.8528" lon="-1.89037">
        <ele>47.175775</ele>
        <time>2022-12-17T14:01:25.411Z</time>
      </trkpt>
      <trkpt lat="46.85283" lon="-1.89056">
        <ele>47.461926</ele>
        <time>2022-12-17T14:01:28.424Z</time>
      </trkpt>
      <trkpt lat="46.85286" lon="-1.89074">
        <ele>47.747628</ele>
        <time>2022-12-17T14:01:31.406Z</time>
      </trkpt>
      <trkpt lat="46.85288" lon="-1.89092">
        <ele>48.01517</ele>
        <time>2022-12-17T14:01:34.405Z</time>
      </trkpt>
      <trkpt lat="46.85291" lon="-1.89109">
        <ele>48.282854</ele>
        <time>2022-12-17T14:01:37.412Z</time>
      </trkpt>
      <trkpt lat="46.85294" lon="-1.89126">
        <ele>48.551365</ele>
        <time>2022-12-17T14:01:40.412Z</time>
      </trkpt>
      <trkpt lat="46.85297" lon="-1.89143">
        <ele>48.803759</ele>
        <time>2022-12-17T14:01:43.410Z</time>
      </trkpt>
      <trkpt lat="46.85299" lon="-1.89158">
        <ele>49.041991</ele>
        <time>2022-12-17T14:01:46.410Z</time>
      </trkpt>
      <trkpt lat="46.85301" lon="-1.89173">
        <ele>49.26404</ele>
        <time>2022-12-17T14:01:49.416Z</time>
      </trkpt>
      <trkpt lat="46.85303" lon="-1.89188">
        <ele>49.502729</ele>
        <time>2022-12-17T14:01:53.411Z</time>
      </trkpt>
      <trkpt lat="46.85305" lon="-1.89202">
        <ele>49.718425</ele>
        <time>2022-12-17T14:01:57.430Z</time>
      </trkpt>
      <trkpt lat="46.85306" lon="-1.89216">
        <ele>49.921531</ele>
        <time>2022-12-17T14:02:01.437Z</time>
      </trkpt>
      <trkpt lat="46.85304" lon="-1.89231">
        <ele>50.15581</ele>
        <time>2022-12-17T14:02:06.418Z</time>
      </trkpt>
      <trkpt lat="46.853" lon="-1.89242">
        <ele>50.357605</ele>
        <time>2022-12-17T14:02:10.433Z</time>
      </trkpt>
      <trkpt lat="46.85292" lon="-1.89252">
        <ele>50.485368</ele>
        <time>2022-12-17T14:02:14.438Z</time>
      </trkpt>
      <trkpt lat="46.85286" lon="-1.89266">
        <ele>50.413787</ele>
        <time>2022-12-17T14:02:19.430Z</time>
      </trkpt>
      <trkpt lat="46.85286" lon="-1.89279">
        <ele>50.352419</ele>
        <time>2022-12-17T14:02:23.420Z</time>
      </trkpt>
      <trkpt lat="46.85287" lon="-1.89293">
        <ele>50.290853</ele>
        <time>2022-12-17T14:02:26.429Z</time>
      </trkpt>
      <trkpt lat="46.85292" lon="-1.89306">
        <ele>50.220322</ele>
        <time>2022-12-17T14:02:29.410Z</time>
      </trkpt>
      <trkpt lat="46.853" lon="-1.89319">
        <ele>50.144621</ele>
        <time>2022-12-17T14:02:32.411Z</time>
      </trkpt>
      <trkpt lat="46.85307" lon="-1.89332">
        <ele>50.065757</ele>
        <time>2022-12-17T14:02:35.406Z</time>
      </trkpt>
      <trkpt lat="46.85315" lon="-1.89346">
        <ele>49.984242</ele>
        <time>2022-12-17T14:02:38.417Z</time>
      </trkpt>
      <trkpt lat="46.85324" lon="-1.8936">
        <ele>49.902299</ele>
        <time>2022-12-17T14:02:41.415Z</time>
      </trkpt>
      <trkpt lat="46.85332" lon="-1.89374">
        <ele>49.81813</ele>
        <time>2022-12-17T14:02:44.414Z</time>
      </trkpt>
      <trkpt lat="46.8534" lon="-1.89389">
        <ele>49.730622</ele>
        <time>2022-12-17T14:02:47.413Z</time>
      </trkpt>
      <trkpt lat="46.85346" lon="-1.89399">
        <ele>49.668968</ele>
        <time>2022-12-17T14:02:49.413Z</time>
      </trkpt>
      <trkpt lat="46.85352" lon="-1.8941">
        <ele>49.606332</ele>
        <time>2022-12-17T14:02:51.420Z</time>
      </trkpt>
      <trkpt lat="46.85359" lon="-1.89422">
        <ele>49.539374</ele>
        <time>2022-12-17T14:02:53.411Z</time>
      </trkpt>
      <trkpt lat="46.85365" lon="-1.89433">
        <ele>49.471866</ele>
        <time>2022-12-17T14:02:55.421Z</time>
      </trkpt>
      <trkpt lat="46.85372" lon="-1.89445">
        <ele>49.403025</ele>
        <time>2022-12-17T14:02:57.415Z</time>
      </trkpt>
      <trkpt lat="46.85379" lon="-1.89457">
        <ele>49.334049</ele>
        <time>2022-12-17T14:02:59.411Z</time>
      </trkpt>
      <trkpt lat="46.85385" lon="-1.89468">
        <ele>49.192306</ele>
        <time>2022-12-17T14:03:01.420Z</time>
      </trkpt>
      <trkpt lat="46.85392" lon="-1.89479">
        <ele>49.045928</ele>
        <time>2022-12-17T14:03:03.416Z</time>
      </trkpt>
      <trkpt lat="46.85397" lon="-1.8949">
        <ele>48.901303</ele>
        <time>2022-12-17T14:03:05.426Z</time>
      </trkpt>
      <trkpt lat="46.85406" lon="-1.89504">
        <ele>48.703845</ele>
        <time>2022-12-17T14:03:08.410Z</time>
      </trkpt>
      <trkpt lat="46.85415" lon="-1.89518">
        <ele>48.505613</ele>
        <time>2022-12-17T14:03:11.414Z</time>
      </trkpt>
      <trkpt lat="46.85421" lon="-1.89527">
        <ele>48.367355</ele>
        <time>2022-12-17T14:03:14.413Z</time>
      </trkpt>
      <trkpt lat="46.85425" lon="-1.89543">
        <ele>48.186867</ele>
        <time>2022-12-17T14:03:18.436Z</time>
      </trkpt>
      <trkpt lat="46.85419" lon="-1.89555">
        <ele>48.031495</ele>
        <time>2022-12-17T14:03:21.413Z</time>
      </trkpt>
      <trkpt lat="46.8541" lon="-1.89562">
        <ele>47.881493</ele>
        <time>2022-12-17T14:03:24.413Z</time>
      </trkpt>
      <trkpt lat="46.85403" lon="-1.8957">
        <ele>47.739696</ele>
        <time>2022-12-17T14:03:27.423Z</time>
      </trkpt>
      <trkpt lat="46.85396" lon="-1.89581">
        <ele>47.592546</ele>
        <time>2022-12-17T14:03:30.409Z</time>
      </trkpt>
      <trkpt lat="46.85392" lon="-1.89596">
        <ele>47.418051</ele>
        <time>2022-12-17T14:03:34.408Z</time>
      </trkpt>
      <trkpt lat="46.85394" lon="-1.89611">
        <ele>47.259005</ele>
        <time>2022-12-17T14:03:38.426Z</time>
      </trkpt>
      <trkpt lat="46.85403" lon="-1.89616">
        <ele>47.11344</ele>
        <time>2022-12-17T14:03:44.430Z</time>
      </trkpt>
      <trkpt lat="46.85408" lon="-1.89605">
        <ele>46.966392</ele>
        <time>2022-12-17T14:03:49.407Z</time>
      </trkpt>
      <trkpt lat="46.85418" lon="-1.89611">
        <ele>46.796721</ele>
        <time>2022-12-17T14:03:54.414Z</time>
      </trkpt>
      <trkpt lat="46.85427" lon="-1.89615">
        <ele>46.647877</ele>
        <time>2022-12-17T14:03:59.415Z</time>
      </trkpt>
      <trkpt lat="46.85431" lon="-1.89618">
        <ele>46.58542</ele>
        <time>2022-12-17T14:04:15.836Z</time>
      </trkpt>
      <trkpt lat="46.85419" lon="-1.89613">
        <ele>46.524824</ele>
        <time>2022-12-17T15:01:01.422Z</time>
      </trkpt>
      <trkpt lat="46.85409" lon="-1.89611">
        <ele>46.486591</ele>
        <time>2022-12-17T15:01:07.412Z</time>
      </trkpt>
      <trkpt lat="46.85401" lon="-1.89618">
        <ele>46.452836</ele>
        <time>2022-12-17T15:01:17.455Z</time>
      </trkpt>
      <trkpt lat="46.85392" lon="-1.89623">
        <ele>46.418204</ele>
        <time>2022-12-17T15:01:29.426Z</time>
      </trkpt>
      <trkpt lat="46.85381" lon="-1.89622">
        <ele>46.378235</ele>
        <time>2022-12-17T15:01:34.421Z</time>
      </trkpt>
      <trkpt lat="46.85374" lon="-1.89612">
        <ele>46.341787</ele>
        <time>2022-12-17T15:01:38.425Z</time>
      </trkpt>
      <trkpt lat="46.85366" lon="-1.89603">
        <ele>46.304947</ele>
        <time>2022-12-17T15:01:44.420Z</time>
      </trkpt>
      <trkpt lat="46.85367" lon="-1.89589">
        <ele>46.268387</ele>
        <time>2022-12-17T15:01:58.427Z</time>
      </trkpt>
      <trkpt lat="46.85376" lon="-1.89579">
        <ele>46.229189</ele>
        <time>2022-12-17T15:02:05.423Z</time>
      </trkpt>
      <trkpt lat="46.85387" lon="-1.8958">
        <ele>46.188628</ele>
        <time>2022-12-17T15:02:10.420Z</time>
      </trkpt>
      <trkpt lat="46.85395" lon="-1.89572">
        <ele>46.154588</ele>
        <time>2022-12-17T15:02:14.422Z</time>
      </trkpt>
      <trkpt lat="46.85402" lon="-1.8956">
        <ele>46.113571</ele>
        <time>2022-12-17T15:02:18.457Z</time>
      </trkpt>
      <trkpt lat="46.85407" lon="-1.89548">
        <ele>46.079721</ele>
        <time>2022-12-17T15:02:22.430Z</time>
      </trkpt>
      <trkpt lat="46.85413" lon="-1.89537">
        <ele>46.045684</ele>
        <time>2022-12-17T15:02:27.426Z</time>
      </trkpt>
      <trkpt lat="46.85423" lon="-1.89535">
        <ele>46.008245</ele>
        <time>2022-12-17T15:02:31.505Z</time>
      </trkpt>
      <trkpt lat="46.85432" lon="-1.89549">
        <ele>45.958747</ele>
        <time>2022-12-17T15:02:34.426Z</time>
      </trkpt>
      <trkpt lat="46.85438" lon="-1.89559">
        <ele>45.924302</ele>
        <time>2022-12-17T15:02:36.441Z</time>
      </trkpt>
      <trkpt lat="46.85447" lon="-1.89572">
        <ele>45.783406</ele>
        <time>2022-12-17T15:02:39.425Z</time>
      </trkpt>
      <trkpt lat="46.85454" lon="-1.89582">
        <ele>45.648778</ele>
        <time>2022-12-17T15:02:41.419Z</time>
      </trkpt>
      <trkpt lat="46.85463" lon="-1.89595">
        <ele>45.457826</ele>
        <time>2022-12-17T15:02:44.428Z</time>
      </trkpt>
      <trkpt lat="46.85472" lon="-1.89606">
        <ele>45.280506</ele>
        <time>2022-12-17T15:02:47.428Z</time>
      </trkpt>
      <trkpt lat="46.85482" lon="-1.89612">
        <ele>45.121063</ele>
        <time>2022-12-17T15:02:50.430Z</time>
      </trkpt>
      <trkpt lat="46.85493" lon="-1.89614">
        <ele>44.962564</ele>
        <time>2022-12-17T15:02:54.425Z</time>
      </trkpt>
      <trkpt lat="46.85506" lon="-1.8961">
        <ele>44.757615</ele>
        <time>2022-12-17T15:03:24.427Z</time>
      </trkpt>
      <trkpt lat="46.85515" lon="-1.896">
        <ele>44.590414</ele>
        <time>2022-12-17T15:03:28.422Z</time>
      </trkpt>
      <trkpt lat="46.85524" lon="-1.89593">
        <ele>44.447916</ele>
        <time>2022-12-17T15:03:31.446Z</time>
      </trkpt>
      <trkpt lat="46.85533" lon="-1.89591">
        <ele>44.31341</ele>
        <time>2022-12-17T15:03:34.419Z</time>
      </trkpt>
      <trkpt lat="46.85545" lon="-1.89596">
        <ele>44.124807</ele>
        <time>2022-12-17T15:03:37.432Z</time>
      </trkpt>
      <trkpt lat="46.85553" lon="-1.89605">
        <ele>43.975043</ele>
        <time>2022-12-17T15:03:40.417Z</time>
      </trkpt>
      <trkpt lat="46.85558" lon="-1.89617">
        <ele>43.824123</ele>
        <time>2022-12-17T15:03:43.434Z</time>
      </trkpt>
      <trkpt lat="46.85561" lon="-1.89632">
        <ele>43.673156</ele>
        <time>2022-12-17T15:03:46.437Z</time>
      </trkpt>
      <trkpt lat="46.85561" lon="-1.89645">
        <ele>43.537026</ele>
        <time>2022-12-17T15:03:49.423Z</time>
      </trkpt>
      <trkpt lat="46.85558" lon="-1.8966">
        <ele>43.378408</ele>
        <time>2022-12-17T15:03:53.449Z</time>
      </trkpt>
      <trkpt lat="46.85552" lon="-1.89675">
        <ele>43.258007</ele>
        <time>2022-12-17T15:03:57.425Z</time>
      </trkpt>
      <trkpt lat="46.85551" lon="-1.8969">
        <ele>43.340206</ele>
        <time>2022-12-17T15:04:00.430Z</time>
      </trkpt>
      <trkpt lat="46.8555" lon="-1.89704">
        <ele>43.416331</ele>
        <time>2022-12-17T15:04:03.427Z</time>
      </trkpt>
      <trkpt lat="46.85548" lon="-1.89718">
        <ele>43.498656</ele>
        <time>2022-12-17T15:04:07.425Z</time>
      </trkpt>
      <trkpt lat="46.85545" lon="-1.89734">
        <ele>43.591475</ele>
        <time>2022-12-17T15:04:11.429Z</time>
      </trkpt>
      <trkpt lat="46.85543" lon="-1.89752">
        <ele>43.690905</ele>
        <time>2022-12-17T15:04:14.440Z</time>
      </trkpt>
      <trkpt lat="46.85541" lon="-1.89766">
        <ele>43.768345</ele>
        <time>2022-12-17T15:04:16.437Z</time>
      </trkpt>
      <trkpt lat="46.85539" lon="-1.89779">
        <ele>43.844029</ele>
        <time>2022-12-17T15:04:18.432Z</time>
      </trkpt>
      <trkpt lat="46.85538" lon="-1.89793">
        <ele>43.920946</ele>
        <time>2022-12-17T15:04:20.436Z</time>
      </trkpt>
      <trkpt lat="46.85536" lon="-1.89807">
        <ele>43.999076</ele>
        <time>2022-12-17T15:04:22.423Z</time>
      </trkpt>
      <trkpt lat="46.85534" lon="-1.8982">
        <ele>44.073676</ele>
        <time>2022-12-17T15:04:24.430Z</time>
      </trkpt>
      <trkpt lat="46.85532" lon="-1.89839">
        <ele>44.177648</ele>
        <time>2022-12-17T15:04:27.442Z</time>
      </trkpt>
      <trkpt lat="46.85529" lon="-1.89855">
        <ele>44.272962</ele>
        <time>2022-12-17T15:04:30.427Z</time>
      </trkpt>
      <trkpt lat="46.85525" lon="-1.89871">
        <ele>44.366085</ele>
        <time>2022-12-17T15:04:33.431Z</time>
      </trkpt>
      <trkpt lat="46.85521" lon="-1.89888">
        <ele>44.459756</ele>
        <time>2022-12-17T15:04:36.422Z</time>
      </trkpt>
      <trkpt lat="46.85518" lon="-1.89904">
        <ele>44.552376</ele>
        <time>2022-12-17T15:04:39.429Z</time>
      </trkpt>
      <trkpt lat="46.85515" lon="-1.89919">
        <ele>44.642935</ele>
        <time>2022-12-17T15:04:42.428Z</time>
      </trkpt>
      <trkpt lat="46.8551" lon="-1.89936">
        <ele>44.621126</ele>
        <time>2022-12-17T15:04:45.426Z</time>
      </trkpt>
      <trkpt lat="46.85507" lon="-1.89951">
        <ele>44.501694</ele>
        <time>2022-12-17T15:04:48.419Z</time>
      </trkpt>
      <trkpt lat="46.85503" lon="-1.89966">
        <ele>44.378996</ele>
        <time>2022-12-17T15:04:51.443Z</time>
      </trkpt>
      <trkpt lat="46.85499" lon="-1.89982">
        <ele>44.250272</ele>
        <time>2022-12-17T15:04:54.425Z</time>
      </trkpt>
      <trkpt lat="46.85493" lon="-1.9">
        <ele>44.098931</ele>
        <time>2022-12-17T15:04:57.432Z</time>
      </trkpt>
      <trkpt lat="46.8549" lon="-1.90013">
        <ele>43.991527</ele>
        <time>2022-12-17T15:04:59.422Z</time>
      </trkpt>
      <trkpt lat="46.85486" lon="-1.90028">
        <ele>43.875675</ele>
        <time>2022-12-17T15:05:01.437Z</time>
      </trkpt>
      <trkpt lat="46.85482" lon="-1.90043">
        <ele>43.754447</ele>
        <time>2022-12-17T15:05:03.421Z</time>
      </trkpt>
      <trkpt lat="46.85478" lon="-1.90059">
        <ele>43.623695</ele>
        <time>2022-12-17T15:05:05.449Z</time>
      </trkpt>
      <trkpt lat="46.85472" lon="-1.90076">
        <ele>43.479719</ele>
        <time>2022-12-17T15:05:07.430Z</time>
      </trkpt>
      <trkpt lat="46.85467" lon="-1.90092">
        <ele>43.344869</ele>
        <time>2022-12-17T15:05:09.423Z</time>
      </trkpt>
      <trkpt lat="46.85462" lon="-1.90108">
        <ele>43.212345</ele>
        <time>2022-12-17T15:05:11.437Z</time>
      </trkpt>
      <trkpt lat="46.85457" lon="-1.90123">
        <ele>43.085547</ele>
        <time>2022-12-17T15:05:13.419Z</time>
      </trkpt>
      <trkpt lat="46.85451" lon="-1.90137">
        <ele>42.957525</ele>
        <time>2022-12-17T15:05:15.422Z</time>
      </trkpt>
      <trkpt lat="46.85446" lon="-1.90151">
        <ele>42.837989</ele>
        <time>2022-12-17T15:05:17.421Z</time>
      </trkpt>
      <trkpt lat="46.85441" lon="-1.90165">
        <ele>42.724669</ele>
        <time>2022-12-17T15:05:19.424Z</time>
      </trkpt>
      <trkpt lat="46.85437" lon="-1.90177">
        <ele>42.699844</ele>
        <time>2022-12-17T15:05:21.420Z</time>
      </trkpt>
      <trkpt lat="46.85431" lon="-1.90194">
        <ele>42.696913</ele>
        <time>2022-12-17T15:05:24.431Z</time>
      </trkpt>
      <trkpt lat="46.85425" lon="-1.9021">
        <ele>42.694012</ele>
        <time>2022-12-17T15:05:27.454Z</time>
      </trkpt>
      <trkpt lat="46.85418" lon="-1.90227">
        <ele>42.690976</ele>
        <time>2022-12-17T15:05:30.447Z</time>
      </trkpt>
      <trkpt lat="46.85414" lon="-1.90239">
        <ele>42.688765</ele>
        <time>2022-12-17T15:05:32.441Z</time>
      </trkpt>
      <trkpt lat="46.8541" lon="-1.90252">
        <ele>42.686595</ele>
        <time>2022-12-17T15:05:34.426Z</time>
      </trkpt>
      <trkpt lat="46.85406" lon="-1.90264">
        <ele>42.684495</ele>
        <time>2022-12-17T15:05:36.434Z</time>
      </trkpt>
      <trkpt lat="46.85401" lon="-1.90276">
        <ele>42.682246</ele>
        <time>2022-12-17T15:05:38.435Z</time>
      </trkpt>
      <trkpt lat="46.85397" lon="-1.90288">
        <ele>42.679978</ele>
        <time>2022-12-17T15:05:40.425Z</time>
      </trkpt>
      <trkpt lat="46.85391" lon="-1.90301">
        <ele>42.677643</ele>
        <time>2022-12-17T15:05:42.425Z</time>
      </trkpt>
      <trkpt lat="46.85386" lon="-1.90314">
        <ele>42.675302</ele>
        <time>2022-12-17T15:05:44.428Z</time>
      </trkpt>
      <trkpt lat="46.85381" lon="-1.90327">
        <ele>42.672885</ele>
        <time>2022-12-17T15:05:46.425Z</time>
      </trkpt>
      <trkpt lat="46.85375" lon="-1.9034">
        <ele>42.67038</ele>
        <time>2022-12-17T15:05:48.429Z</time>
      </trkpt>
      <trkpt lat="46.85369" lon="-1.90353">
        <ele>42.667823</ele>
        <time>2022-12-17T15:05:50.428Z</time>
      </trkpt>
      <trkpt lat="46.85363" lon="-1.90366">
        <ele>42.665435</ele>
        <time>2022-12-17T15:05:52.419Z</time>
      </trkpt>
      <trkpt lat="46.85357" lon="-1.90378">
        <ele>42.6631</ele>
        <time>2022-12-17T15:05:54.424Z</time>
      </trkpt>
      <trkpt lat="46.85352" lon="-1.90391">
        <ele>42.660646</ele>
        <time>2022-12-17T15:05:56.426Z</time>
      </trkpt>
      <trkpt lat="46.85346" lon="-1.90404">
        <ele>42.652438</ele>
        <time>2022-12-17T15:05:58.422Z</time>
      </trkpt>
      <trkpt lat="46.85339" lon="-1.90416">
        <ele>42.642035</ele>
        <time>2022-12-17T15:06:00.424Z</time>
      </trkpt>
      <trkpt lat="46.85333" lon="-1.90429">
        <ele>42.631207</ele>
        <time>2022-12-17T15:06:02.438Z</time>
      </trkpt>
      <trkpt lat="46.85327" lon="-1.90442">
        <ele>42.620666</ele>
        <time>2022-12-17T15:06:04.439Z</time>
      </trkpt>
      <trkpt lat="46.85321" lon="-1.90455">
        <ele>42.610013</ele>
        <time>2022-12-17T15:06:06.430Z</time>
      </trkpt>
      <trkpt lat="46.85314" lon="-1.90468">
        <ele>42.599164</ele>
        <time>2022-12-17T15:06:08.428Z</time>
      </trkpt>
      <trkpt lat="46.85307" lon="-1.90481">
        <ele>42.588394</ele>
        <time>2022-12-17T15:06:10.430Z</time>
      </trkpt>
      <trkpt lat="46.853" lon="-1.90494">
        <ele>42.577233</ele>
        <time>2022-12-17T15:06:12.423Z</time>
      </trkpt>
      <trkpt lat="46.85294" lon="-1.90506">
        <ele>42.567025</ele>
        <time>2022-12-17T15:06:14.441Z</time>
      </trkpt>
      <trkpt lat="46.85288" lon="-1.90519">
        <ele>42.556367</ele>
        <time>2022-12-17T15:06:16.424Z</time>
      </trkpt>
      <trkpt lat="46.85282" lon="-1.90532">
        <ele>42.545603</ele>
        <time>2022-12-17T15:06:18.428Z</time>
      </trkpt>
      <trkpt lat="46.85274" lon="-1.90545">
        <ele>42.534338</ele>
        <time>2022-12-17T15:06:20.424Z</time>
      </trkpt>
      <trkpt lat="46.85267" lon="-1.90558">
        <ele>42.522752</ele>
        <time>2022-12-17T15:06:22.430Z</time>
      </trkpt>
      <trkpt lat="46.85259" lon="-1.9057">
        <ele>42.511891</ele>
        <time>2022-12-17T15:06:24.425Z</time>
      </trkpt>
      <trkpt lat="46.85252" lon="-1.90583">
        <ele>42.500689</ele>
        <time>2022-12-17T15:06:26.429Z</time>
      </trkpt>
      <trkpt lat="46.85246" lon="-1.90594">
        <ele>42.490982</ele>
        <time>2022-12-17T15:06:28.425Z</time>
      </trkpt>
      <trkpt lat="46.85239" lon="-1.90605">
        <ele>42.474318</ele>
        <time>2022-12-17T15:06:30.427Z</time>
      </trkpt>
      <trkpt lat="46.85232" lon="-1.90617">
        <ele>42.430227</ele>
        <time>2022-12-17T15:06:32.429Z</time>
      </trkpt>
      <trkpt lat="46.85226" lon="-1.90627">
        <ele>42.390878</ele>
        <time>2022-12-17T15:06:34.427Z</time>
      </trkpt>
      <trkpt lat="46.85219" lon="-1.90639">
        <ele>42.346723</ele>
        <time>2022-12-17T15:06:36.440Z</time>
      </trkpt>
      <trkpt lat="46.85212" lon="-1.9065">
        <ele>42.302849</ele>
        <time>2022-12-17T15:06:38.429Z</time>
      </trkpt>
      <trkpt lat="46.85206" lon="-1.90661">
        <ele>42.261039</ele>
        <time>2022-12-17T15:06:40.445Z</time>
      </trkpt>
      <trkpt lat="46.85199" lon="-1.90672">
        <ele>42.216669</ele>
        <time>2022-12-17T15:06:42.425Z</time>
      </trkpt>
      <trkpt lat="46.85193" lon="-1.90684">
        <ele>42.174292</ele>
        <time>2022-12-17T15:06:44.452Z</time>
      </trkpt>
      <trkpt lat="46.85186" lon="-1.90696">
        <ele>42.130359</ele>
        <time>2022-12-17T15:06:46.438Z</time>
      </trkpt>
      <trkpt lat="46.8518" lon="-1.90706">
        <ele>42.090813</ele>
        <time>2022-12-17T15:06:48.433Z</time>
      </trkpt>
      <trkpt lat="46.85174" lon="-1.90717">
        <ele>42.051753</ele>
        <time>2022-12-17T15:06:50.438Z</time>
      </trkpt>
      <trkpt lat="46.85169" lon="-1.90728">
        <ele>42.012251</ele>
        <time>2022-12-17T15:06:52.426Z</time>
      </trkpt>
      <trkpt lat="46.85161" lon="-1.90742">
        <ele>41.958656</ele>
        <time>2022-12-17T15:06:55.430Z</time>
      </trkpt>
      <trkpt lat="46.85154" lon="-1.90756">
        <ele>41.908936</ele>
        <time>2022-12-17T15:06:58.426Z</time>
      </trkpt>
      <trkpt lat="46.85156" lon="-1.9077">
        <ele>41.86716</ele>
        <time>2022-12-17T15:07:01.460Z</time>
      </trkpt>
      <trkpt lat="46.8516" lon="-1.90783">
        <ele>41.827698</ele>
        <time>2022-12-17T15:07:04.426Z</time>
      </trkpt>
      <trkpt lat="46.85151" lon="-1.90793">
        <ele>41.78136</ele>
        <time>2022-12-17T15:07:09.437Z</time>
      </trkpt>
      <trkpt lat="46.85144" lon="-1.90802">
        <ele>41.743052</ele>
        <time>2022-12-17T15:07:12.421Z</time>
      </trkpt>
      <trkpt lat="46.85137" lon="-1.90813">
        <ele>41.762786</ele>
        <time>2022-12-17T15:07:15.429Z</time>
      </trkpt>
      <trkpt lat="46.85128" lon="-1.90826">
        <ele>41.832911</ele>
        <time>2022-12-17T15:07:18.423Z</time>
      </trkpt>
      <trkpt lat="46.8512" lon="-1.90841">
        <ele>41.906343</ele>
        <time>2022-12-17T15:07:21.432Z</time>
      </trkpt>
      <trkpt lat="46.85114" lon="-1.90851">
        <ele>41.959043</ele>
        <time>2022-12-17T15:07:23.429Z</time>
      </trkpt>
      <trkpt lat="46.85105" lon="-1.90866">
        <ele>42.033541</ele>
        <time>2022-12-17T15:07:26.427Z</time>
      </trkpt>
      <trkpt lat="46.85098" lon="-1.90876">
        <ele>42.090988</ele>
        <time>2022-12-17T15:07:28.424Z</time>
      </trkpt>
      <trkpt lat="46.85092" lon="-1.90887">
        <ele>42.145767</ele>
        <time>2022-12-17T15:07:30.445Z</time>
      </trkpt>
      <trkpt lat="46.85085" lon="-1.90898">
        <ele>42.201262</ele>
        <time>2022-12-17T15:07:32.426Z</time>
      </trkpt>
      <trkpt lat="46.85078" lon="-1.90909">
        <ele>42.259479</ele>
        <time>2022-12-17T15:07:34.448Z</time>
      </trkpt>
      <trkpt lat="46.85071" lon="-1.90921">
        <ele>42.319605</ele>
        <time>2022-12-17T15:07:36.423Z</time>
      </trkpt>
      <trkpt lat="46.85064" lon="-1.90933">
        <ele>42.380609</ele>
        <time>2022-12-17T15:07:38.450Z</time>
      </trkpt>
      <trkpt lat="46.85058" lon="-1.90946">
        <ele>42.443042</ele>
        <time>2022-12-17T15:07:40.426Z</time>
      </trkpt>
      <trkpt lat="46.85051" lon="-1.90957">
        <ele>42.502302</ele>
        <time>2022-12-17T15:07:42.433Z</time>
      </trkpt>
      <trkpt lat="46.85044" lon="-1.9097">
        <ele>42.563347</ele>
        <time>2022-12-17T15:07:44.429Z</time>
      </trkpt>
      <trkpt lat="46.85037" lon="-1.90982">
        <ele>42.625091</ele>
        <time>2022-12-17T15:07:46.449Z</time>
      </trkpt>
      <trkpt lat="46.85032" lon="-1.90994">
        <ele>42.680338</ele>
        <time>2022-12-17T15:07:48.449Z</time>
      </trkpt>
      <trkpt lat="46.85026" lon="-1.91004">
        <ele>42.733451</ele>
        <time>2022-12-17T15:07:50.452Z</time>
      </trkpt>
      <trkpt lat="46.85018" lon="-1.91019">
        <ele>42.668311</ele>
        <time>2022-12-17T15:07:53.444Z</time>
      </trkpt>
      <trkpt lat="46.85009" lon="-1.91029">
        <ele>42.593105</ele>
        <time>2022-12-17T15:07:56.428Z</time>
      </trkpt>
      <trkpt lat="46.84998" lon="-1.91036">
        <ele>42.512884</ele>
        <time>2022-12-17T15:07:59.426Z</time>
      </trkpt>
      <trkpt lat="46.84989" lon="-1.91041">
        <ele>42.450676</ele>
        <time>2022-12-17T15:08:01.423Z</time>
      </trkpt>
      <trkpt lat="46.8498" lon="-1.91047">
        <ele>42.387092</ele>
        <time>2022-12-17T15:08:03.424Z</time>
      </trkpt>
      <trkpt lat="46.84972" lon="-1.91055">
        <ele>42.324118</ele>
        <time>2022-12-17T15:08:05.428Z</time>
      </trkpt>
      <trkpt lat="46.84965" lon="-1.91063">
        <ele>42.26321</ele>
        <time>2022-12-17T15:08:07.427Z</time>
      </trkpt>
      <trkpt lat="46.84957" lon="-1.91073">
        <ele>42.196652</ele>
        <time>2022-12-17T15:08:09.428Z</time>
      </trkpt>
      <trkpt lat="46.84949" lon="-1.91083">
        <ele>42.128417</ele>
        <time>2022-12-17T15:08:11.432Z</time>
      </trkpt>
      <trkpt lat="46.84941" lon="-1.91093">
        <ele>42.05541</ele>
        <time>2022-12-17T15:08:13.428Z</time>
      </trkpt>
      <trkpt lat="46.84933" lon="-1.91104">
        <ele>41.980971</ele>
        <time>2022-12-17T15:08:15.450Z</time>
      </trkpt>
      <trkpt lat="46.84924" lon="-1.91114">
        <ele>41.908382</ele>
        <time>2022-12-17T15:08:17.438Z</time>
      </trkpt>
      <trkpt lat="46.84915" lon="-1.91125">
        <ele>41.831975</ele>
        <time>2022-12-17T15:08:19.428Z</time>
      </trkpt>
      <trkpt lat="46.84906" lon="-1.91134">
        <ele>41.759969</ele>
        <time>2022-12-17T15:08:21.461Z</time>
      </trkpt>
      <trkpt lat="46.84898" lon="-1.91144">
        <ele>41.686341</ele>
        <time>2022-12-17T15:08:23.451Z</time>
      </trkpt>
      <trkpt lat="46.84889" lon="-1.91154">
        <ele>41.612989</ele>
        <time>2022-12-17T15:08:25.428Z</time>
      </trkpt>
      <trkpt lat="46.8488" lon="-1.91164">
        <ele>41.557726</ele>
        <time>2022-12-17T15:08:27.428Z</time>
      </trkpt>
      <trkpt lat="46.84871" lon="-1.91175">
        <ele>41.575275</ele>
        <time>2022-12-17T15:08:29.423Z</time>
      </trkpt>
      <trkpt lat="46.84862" lon="-1.91184">
        <ele>41.591337</ele>
        <time>2022-12-17T15:08:31.448Z</time>
      </trkpt>
      <trkpt lat="46.84852" lon="-1.91194">
        <ele>41.608469</ele>
        <time>2022-12-17T15:08:33.425Z</time>
      </trkpt>
      <trkpt lat="46.84843" lon="-1.91204">
        <ele>41.624531</ele>
        <time>2022-12-17T15:08:35.423Z</time>
      </trkpt>
      <trkpt lat="46.84834" lon="-1.91213">
        <ele>41.64095</ele>
        <time>2022-12-17T15:08:37.456Z</time>
      </trkpt>
      <trkpt lat="46.84825" lon="-1.91223">
        <ele>41.658089</ele>
        <time>2022-12-17T15:08:39.423Z</time>
      </trkpt>
      <trkpt lat="46.84815" lon="-1.91231">
        <ele>41.674398</ele>
        <time>2022-12-17T15:08:41.416Z</time>
      </trkpt>
      <trkpt lat="46.84806" lon="-1.9124">
        <ele>41.691368</ele>
        <time>2022-12-17T15:08:43.434Z</time>
      </trkpt>
      <trkpt lat="46.84796" lon="-1.91249">
        <ele>41.707859</ele>
        <time>2022-12-17T15:08:45.421Z</time>
      </trkpt>
      <trkpt lat="46.84787" lon="-1.91258">
        <ele>41.724702</ele>
        <time>2022-12-17T15:08:47.442Z</time>
      </trkpt>
      <trkpt lat="46.84778" lon="-1.91266">
        <ele>41.740079</ele>
        <time>2022-12-17T15:08:49.426Z</time>
      </trkpt>
      <trkpt lat="46.84769" lon="-1.91274">
        <ele>41.755528</ele>
        <time>2022-12-17T15:08:51.422Z</time>
      </trkpt>
      <trkpt lat="46.84761" lon="-1.91281">
        <ele>41.76975</ele>
        <time>2022-12-17T15:08:53.431Z</time>
      </trkpt>
      <trkpt lat="46.84752" lon="-1.91289">
        <ele>41.785066</ele>
        <time>2022-12-17T15:08:55.422Z</time>
      </trkpt>
      <trkpt lat="46.84743" lon="-1.91295">
        <ele>41.799505</ele>
        <time>2022-12-17T15:08:57.423Z</time>
      </trkpt>
      <trkpt lat="46.84733" lon="-1.91302">
        <ele>41.815096</ele>
        <time>2022-12-17T15:08:59.424Z</time>
      </trkpt>
      <trkpt lat="46.84724" lon="-1.9131">
        <ele>41.89327</ele>
        <time>2022-12-17T15:09:01.437Z</time>
      </trkpt>
      <trkpt lat="46.84715" lon="-1.91318">
        <ele>41.996535</ele>
        <time>2022-12-17T15:09:03.425Z</time>
      </trkpt>
      <trkpt lat="46.84706" lon="-1.91325">
        <ele>42.10076</ele>
        <time>2022-12-17T15:09:05.423Z</time>
      </trkpt>
      <trkpt lat="46.84697" lon="-1.91332">
        <ele>42.204882</ele>
        <time>2022-12-17T15:09:07.420Z</time>
      </trkpt>
      <trkpt lat="46.84687" lon="-1.9134">
        <ele>42.313875</ele>
        <time>2022-12-17T15:09:09.422Z</time>
      </trkpt>
      <trkpt lat="46.84677" lon="-1.91347">
        <ele>42.425556</ele>
        <time>2022-12-17T15:09:11.429Z</time>
      </trkpt>
      <trkpt lat="46.84667" lon="-1.91355">
        <ele>42.535115</ele>
        <time>2022-12-17T15:09:13.418Z</time>
      </trkpt>
      <trkpt lat="46.84657" lon="-1.91363">
        <ele>42.643009</ele>
        <time>2022-12-17T15:09:15.429Z</time>
      </trkpt>
      <trkpt lat="46.84647" lon="-1.91371">
        <ele>42.757505</ele>
        <time>2022-12-17T15:09:17.431Z</time>
      </trkpt>
      <trkpt lat="46.84637" lon="-1.91378">
        <ele>42.86734</ele>
        <time>2022-12-17T15:09:19.427Z</time>
      </trkpt>
      <trkpt lat="46.84627" lon="-1.91385">
        <ele>42.977524</ele>
        <time>2022-12-17T15:09:21.424Z</time>
      </trkpt>
      <trkpt lat="46.84617" lon="-1.91393">
        <ele>43.089974</ele>
        <time>2022-12-17T15:09:23.430Z</time>
      </trkpt>
      <trkpt lat="46.84607" lon="-1.91402">
        <ele>43.20685</ele>
        <time>2022-12-17T15:09:25.424Z</time>
      </trkpt>
      <trkpt lat="46.84597" lon="-1.91409">
        <ele>43.314323</ele>
        <time>2022-12-17T15:09:27.450Z</time>
      </trkpt>
      <trkpt lat="46.84588" lon="-1.91415">
        <ele>43.416482</ele>
        <time>2022-12-17T15:09:29.439Z</time>
      </trkpt>
      <trkpt lat="46.84578" lon="-1.91424">
        <ele>43.525531</ele>
        <time>2022-12-17T15:09:31.423Z</time>
      </trkpt>
      <trkpt lat="46.8457" lon="-1.91431">
        <ele>43.601627</ele>
        <time>2022-12-17T15:09:33.434Z</time>
      </trkpt>
      <trkpt lat="46.8456" lon="-1.91439">
        <ele>43.634804</ele>
        <time>2022-12-17T15:09:35.436Z</time>
      </trkpt>
      <trkpt lat="46.8455" lon="-1.91447">
        <ele>43.668889</ele>
        <time>2022-12-17T15:09:37.425Z</time>
      </trkpt>
      <trkpt lat="46.8454" lon="-1.91454">
        <ele>43.703041</ele>
        <time>2022-12-17T15:09:39.428Z</time>
      </trkpt>
      <trkpt lat="46.8453" lon="-1.91462">
        <ele>43.736935</ele>
        <time>2022-12-17T15:09:41.451Z</time>
      </trkpt>
      <trkpt lat="46.8452" lon="-1.9147">
        <ele>43.771202</ele>
        <time>2022-12-17T15:09:43.428Z</time>
      </trkpt>
      <trkpt lat="46.8451" lon="-1.91478">
        <ele>43.804105</ele>
        <time>2022-12-17T15:09:45.432Z</time>
      </trkpt>
      <trkpt lat="46.84501" lon="-1.91486">
        <ele>43.837541</ele>
        <time>2022-12-17T15:09:47.445Z</time>
      </trkpt>
      <trkpt lat="46.8449" lon="-1.91494">
        <ele>43.872425</ele>
        <time>2022-12-17T15:09:49.429Z</time>
      </trkpt>
      <trkpt lat="46.84481" lon="-1.91502">
        <ele>43.906179</ele>
        <time>2022-12-17T15:09:51.435Z</time>
      </trkpt>
      <trkpt lat="46.8447" lon="-1.9151">
        <ele>43.941647</ele>
        <time>2022-12-17T15:09:53.431Z</time>
      </trkpt>
      <trkpt lat="46.84461" lon="-1.91518">
        <ele>43.974676</ele>
        <time>2022-12-17T15:09:55.426Z</time>
      </trkpt>
      <trkpt lat="46.84452" lon="-1.91525">
        <ele>44.005504</ele>
        <time>2022-12-17T15:09:57.445Z</time>
      </trkpt>
      <trkpt lat="46.84442" lon="-1.91533">
        <ele>44.038865</ele>
        <time>2022-12-17T15:09:59.427Z</time>
      </trkpt>
      <trkpt lat="46.84432" lon="-1.91541">
        <ele>44.071678</ele>
        <time>2022-12-17T15:10:01.426Z</time>
      </trkpt>
      <trkpt lat="46.84423" lon="-1.91548">
        <ele>44.103558</ele>
        <time>2022-12-17T15:10:03.425Z</time>
      </trkpt>
      <trkpt lat="46.84414" lon="-1.91556">
        <ele>44.127457</ele>
        <time>2022-12-17T15:10:05.426Z</time>
      </trkpt>
      <trkpt lat="46.84404" lon="-1.91564">
        <ele>44.080265</ele>
        <time>2022-12-17T15:10:07.426Z</time>
      </trkpt>
      <trkpt lat="46.84395" lon="-1.91572">
        <ele>44.037509</ele>
        <time>2022-12-17T15:10:09.427Z</time>
      </trkpt>
      <trkpt lat="46.84386" lon="-1.91578">
        <ele>43.994938</ele>
        <time>2022-12-17T15:10:11.434Z</time>
      </trkpt>
      <trkpt lat="46.84378" lon="-1.91584">
        <ele>43.957344</ele>
        <time>2022-12-17T15:10:13.432Z</time>
      </trkpt>
      <trkpt lat="46.84369" lon="-1.91591">
        <ele>43.918595</ele>
        <time>2022-12-17T15:10:15.426Z</time>
      </trkpt>
      <trkpt lat="46.84361" lon="-1.91598">
        <ele>43.879362</ele>
        <time>2022-12-17T15:10:17.423Z</time>
      </trkpt>
      <trkpt lat="46.84353" lon="-1.91604">
        <ele>43.838276</ele>
        <time>2022-12-17T15:10:19.428Z</time>
      </trkpt>
      <trkpt lat="46.84344" lon="-1.91611">
        <ele>43.797294</ele>
        <time>2022-12-17T15:10:21.429Z</time>
      </trkpt>
      <trkpt lat="46.84335" lon="-1.91618">
        <ele>43.756844</ele>
        <time>2022-12-17T15:10:23.440Z</time>
      </trkpt>
      <trkpt lat="46.84327" lon="-1.91624">
        <ele>43.717258</ele>
        <time>2022-12-17T15:10:25.440Z</time>
      </trkpt>
      <trkpt lat="46.84318" lon="-1.91631">
        <ele>43.676541</ele>
        <time>2022-12-17T15:10:27.431Z</time>
      </trkpt>
      <trkpt lat="46.8431" lon="-1.91637">
        <ele>43.638292</ele>
        <time>2022-12-17T15:10:29.430Z</time>
      </trkpt>
      <trkpt lat="46.84301" lon="-1.91645">
        <ele>43.59625</ele>
        <time>2022-12-17T15:10:31.444Z</time>
      </trkpt>
      <trkpt lat="46.84293" lon="-1.91652">
        <ele>43.554401</ele>
        <time>2022-12-17T15:10:33.454Z</time>
      </trkpt>
      <trkpt lat="46.84283" lon="-1.91659">
        <ele>43.511051</ele>
        <time>2022-12-17T15:10:35.437Z</time>
      </trkpt>
      <trkpt lat="46.84274" lon="-1.91666">
        <ele>43.469466</ele>
        <time>2022-12-17T15:10:37.428Z</time>
      </trkpt>
      <trkpt lat="46.84266" lon="-1.91673">
        <ele>43.42788</ele>
        <time>2022-12-17T15:10:39.431Z</time>
      </trkpt>
      <trkpt lat="46.84256" lon="-1.91679">
        <ele>43.385391</ele>
        <time>2022-12-17T15:10:41.446Z</time>
      </trkpt>
      <trkpt lat="46.84248" lon="-1.91687">
        <ele>43.393813</ele>
        <time>2022-12-17T15:10:43.426Z</time>
      </trkpt>
      <trkpt lat="46.8424" lon="-1.91693">
        <ele>43.402049</ele>
        <time>2022-12-17T15:10:45.426Z</time>
      </trkpt>
      <trkpt lat="46.84231" lon="-1.91699">
        <ele>43.410097</ele>
        <time>2022-12-17T15:10:47.428Z</time>
      </trkpt>
      <trkpt lat="46.84223" lon="-1.91706">
        <ele>43.418946</ele>
        <time>2022-12-17T15:10:49.431Z</time>
      </trkpt>
      <trkpt lat="46.84214" lon="-1.91713">
        <ele>43.427679</ele>
        <time>2022-12-17T15:10:51.451Z</time>
      </trkpt>
      <trkpt lat="46.84205" lon="-1.9172">
        <ele>43.436614</ele>
        <time>2022-12-17T15:10:53.428Z</time>
      </trkpt>
      <trkpt lat="46.84195" lon="-1.91727">
        <ele>43.44575</ele>
        <time>2022-12-17T15:10:55.436Z</time>
      </trkpt>
      <trkpt lat="46.84187" lon="-1.91734">
        <ele>43.454014</ele>
        <time>2022-12-17T15:10:57.446Z</time>
      </trkpt>
      <trkpt lat="46.84177" lon="-1.91741">
        <ele>43.463552</ele>
        <time>2022-12-17T15:10:59.448Z</time>
      </trkpt>
      <trkpt lat="46.84168" lon="-1.91749">
        <ele>43.472935</ele>
        <time>2022-12-17T15:11:01.435Z</time>
      </trkpt>
      <trkpt lat="46.84159" lon="-1.91756">
        <ele>43.482242</ele>
        <time>2022-12-17T15:11:03.429Z</time>
      </trkpt>
      <trkpt lat="46.84149" lon="-1.91764">
        <ele>43.491912</ele>
        <time>2022-12-17T15:11:05.435Z</time>
      </trkpt>
      <trkpt lat="46.84139" lon="-1.91772">
        <ele>43.502117</ele>
        <time>2022-12-17T15:11:07.452Z</time>
      </trkpt>
      <trkpt lat="46.84129" lon="-1.9178">
        <ele>43.511628</ele>
        <time>2022-12-17T15:11:09.429Z</time>
      </trkpt>
      <trkpt lat="46.8412" lon="-1.91789">
        <ele>43.521337</ele>
        <time>2022-12-17T15:11:11.429Z</time>
      </trkpt>
      <trkpt lat="46.8411" lon="-1.91797">
        <ele>43.531141</ele>
        <time>2022-12-17T15:11:13.428Z</time>
      </trkpt>
      <trkpt lat="46.84101" lon="-1.91803">
        <ele>43.539943</ele>
        <time>2022-12-17T15:11:15.432Z</time>
      </trkpt>
      <trkpt lat="46.84093" lon="-1.9181">
        <ele>43.534343</ele>
        <time>2022-12-17T15:11:17.437Z</time>
      </trkpt>
      <trkpt lat="46.84085" lon="-1.91817">
        <ele>43.523657</ele>
        <time>2022-12-17T15:11:19.433Z</time>
      </trkpt>
      <trkpt lat="46.84076" lon="-1.91823">
        <ele>43.511925</ele>
        <time>2022-12-17T15:11:21.429Z</time>
      </trkpt>
      <trkpt lat="46.84067" lon="-1.91831">
        <ele>43.499653</ele>
        <time>2022-12-17T15:11:23.435Z</time>
      </trkpt>
      <trkpt lat="46.84058" lon="-1.91838">
        <ele>43.487071</ele>
        <time>2022-12-17T15:11:25.446Z</time>
      </trkpt>
      <trkpt lat="46.84048" lon="-1.91845">
        <ele>43.47428</ele>
        <time>2022-12-17T15:11:27.430Z</time>
      </trkpt>
      <trkpt lat="46.84039" lon="-1.91853">
        <ele>43.461594</ele>
        <time>2022-12-17T15:11:29.433Z</time>
      </trkpt>
      <trkpt lat="46.84029" lon="-1.9186">
        <ele>43.449512</ele>
        <time>2022-12-17T15:11:31.430Z</time>
      </trkpt>
      <trkpt lat="46.8402" lon="-1.91868">
        <ele>43.436307</ele>
        <time>2022-12-17T15:11:33.431Z</time>
      </trkpt>
      <trkpt lat="46.84011" lon="-1.91874">
        <ele>43.424508</ele>
        <time>2022-12-17T15:11:35.433Z</time>
      </trkpt>
      <trkpt lat="46.84002" lon="-1.91881">
        <ele>43.412788</ele>
        <time>2022-12-17T15:11:37.430Z</time>
      </trkpt>
      <trkpt lat="46.83994" lon="-1.91888">
        <ele>43.401445</ele>
        <time>2022-12-17T15:11:39.431Z</time>
      </trkpt>
      <trkpt lat="46.83984" lon="-1.91895">
        <ele>43.389251</ele>
        <time>2022-12-17T15:11:41.448Z</time>
      </trkpt>
      <trkpt lat="46.83975" lon="-1.91902">
        <ele>43.376534</ele>
        <time>2022-12-17T15:11:43.449Z</time>
      </trkpt>
      <trkpt lat="46.83965" lon="-1.91909">
        <ele>43.36343</ele>
        <time>2022-12-17T15:11:45.449Z</time>
      </trkpt>
      <trkpt lat="46.83955" lon="-1.91916">
        <ele>43.35099</ele>
        <time>2022-12-17T15:11:47.437Z</time>
      </trkpt>
      <trkpt lat="46.83946" lon="-1.91924">
        <ele>43.338415</ele>
        <time>2022-12-17T15:11:49.439Z</time>
      </trkpt>
      <trkpt lat="46.83936" lon="-1.91931">
        <ele>43.296355</ele>
        <time>2022-12-17T15:11:51.445Z</time>
      </trkpt>
      <trkpt lat="46.83926" lon="-1.91937">
        <ele>43.199363</ele>
        <time>2022-12-17T15:11:53.428Z</time>
      </trkpt>
      <trkpt lat="46.83916" lon="-1.91944">
        <ele>43.098563</ele>
        <time>2022-12-17T15:11:55.426Z</time>
      </trkpt>
      <trkpt lat="46.83906" lon="-1.9195">
        <ele>43.005218</ele>
        <time>2022-12-17T15:11:57.426Z</time>
      </trkpt>
      <trkpt lat="46.83897" lon="-1.91955">
        <ele>42.918751</ele>
        <time>2022-12-17T15:11:59.451Z</time>
      </trkpt>
      <trkpt lat="46.83889" lon="-1.91961">
        <ele>42.836082</ele>
        <time>2022-12-17T15:12:01.428Z</time>
      </trkpt>
      <trkpt lat="46.8388" lon="-1.91967">
        <ele>42.752358</ele>
        <time>2022-12-17T15:12:03.438Z</time>
      </trkpt>
      <trkpt lat="46.83871" lon="-1.91971">
        <ele>42.669109</ele>
        <time>2022-12-17T15:12:05.436Z</time>
      </trkpt>
      <trkpt lat="46.83862" lon="-1.91976">
        <ele>42.586906</ele>
        <time>2022-12-17T15:12:07.422Z</time>
      </trkpt>
      <trkpt lat="46.83853" lon="-1.91981">
        <ele>42.49971</ele>
        <time>2022-12-17T15:12:09.429Z</time>
      </trkpt>
      <trkpt lat="46.83844" lon="-1.91987">
        <ele>42.41169</ele>
        <time>2022-12-17T15:12:11.438Z</time>
      </trkpt>
      <trkpt lat="46.83835" lon="-1.91992">
        <ele>42.324923</ele>
        <time>2022-12-17T15:12:13.424Z</time>
      </trkpt>
      <trkpt lat="46.83825" lon="-1.91996">
        <ele>42.236456</ele>
        <time>2022-12-17T15:12:15.431Z</time>
      </trkpt>
      <trkpt lat="46.83815" lon="-1.92001">
        <ele>42.143665</ele>
        <time>2022-12-17T15:12:17.429Z</time>
      </trkpt>
      <trkpt lat="46.83806" lon="-1.92005">
        <ele>42.060331</ele>
        <time>2022-12-17T15:12:19.425Z</time>
      </trkpt>
      <trkpt lat="46.83794" lon="-1.92011">
        <ele>41.943067</ele>
        <time>2022-12-17T15:12:22.426Z</time>
      </trkpt>
      <trkpt lat="46.83783" lon="-1.92016">
        <ele>41.846474</ele>
        <time>2022-12-17T15:12:25.424Z</time>
      </trkpt>
      <trkpt lat="46.83774" lon="-1.9202">
        <ele>41.763989</ele>
        <time>2022-12-17T15:12:28.428Z</time>
      </trkpt>
      <trkpt lat="46.83765" lon="-1.92024">
        <ele>41.746567</ele>
        <time>2022-12-17T15:12:31.425Z</time>
      </trkpt>
      <trkpt lat="46.83755" lon="-1.92029">
        <ele>41.756635</ele>
        <time>2022-12-17T15:12:34.426Z</time>
      </trkpt>
      <trkpt lat="46.83743" lon="-1.92035">
        <ele>41.767684</ele>
        <time>2022-12-17T15:12:37.428Z</time>
      </trkpt>
      <trkpt lat="46.83731" lon="-1.92039">
        <ele>41.779621</ele>
        <time>2022-12-17T15:12:40.429Z</time>
      </trkpt>
      <trkpt lat="46.83717" lon="-1.92043">
        <ele>41.792062</ele>
        <time>2022-12-17T15:12:43.429Z</time>
      </trkpt>
      <trkpt lat="46.83708" lon="-1.92047">
        <ele>41.800925</ele>
        <time>2022-12-17T15:12:45.428Z</time>
      </trkpt>
      <trkpt lat="46.83699" lon="-1.92051">
        <ele>41.809911</ele>
        <time>2022-12-17T15:12:47.449Z</time>
      </trkpt>
      <trkpt lat="46.83689" lon="-1.92055">
        <ele>41.819081</ele>
        <time>2022-12-17T15:12:49.436Z</time>
      </trkpt>
      <trkpt lat="46.8368" lon="-1.92058">
        <ele>41.827969</ele>
        <time>2022-12-17T15:12:51.427Z</time>
      </trkpt>
      <trkpt lat="46.8367" lon="-1.92061">
        <ele>41.836954</ele>
        <time>2022-12-17T15:12:53.434Z</time>
      </trkpt>
      <trkpt lat="46.8366" lon="-1.92064">
        <ele>41.846422</ele>
        <time>2022-12-17T15:12:55.432Z</time>
      </trkpt>
      <trkpt lat="46.83651" lon="-1.92068">
        <ele>41.855266</ele>
        <time>2022-12-17T15:12:57.432Z</time>
      </trkpt>
      <trkpt lat="46.83641" lon="-1.9207">
        <ele>41.864467</ele>
        <time>2022-12-17T15:12:59.432Z</time>
      </trkpt>
      <trkpt lat="46.83631" lon="-1.92073">
        <ele>41.873902</ele>
        <time>2022-12-17T15:13:01.425Z</time>
      </trkpt>
      <trkpt lat="46.8362" lon="-1.92075">
        <ele>41.883704</ele>
        <time>2022-12-17T15:13:03.425Z</time>
      </trkpt>
      <trkpt lat="46.83609" lon="-1.92077">
        <ele>41.89354</ele>
        <time>2022-12-17T15:13:05.427Z</time>
      </trkpt>
      <trkpt lat="46.83599" lon="-1.92079">
        <ele>41.903586</ele>
        <time>2022-12-17T15:13:07.441Z</time>
      </trkpt>
      <trkpt lat="46.83589" lon="-1.92081">
        <ele>41.85273</ele>
        <time>2022-12-17T15:13:09.423Z</time>
      </trkpt>
      <trkpt lat="46.8358" lon="-1.92083">
        <ele>41.787475</ele>
        <time>2022-12-17T15:13:11.428Z</time>
      </trkpt>
      <trkpt lat="46.83571" lon="-1.92085">
        <ele>41.725858</ele>
        <time>2022-12-17T15:13:13.443Z</time>
      </trkpt>
      <trkpt lat="46.83559" lon="-1.92088">
        <ele>41.644844</ele>
        <time>2022-12-17T15:13:16.428Z</time>
      </trkpt>
      <trkpt lat="46.83548" lon="-1.92093">
        <ele>41.564799</ele>
        <time>2022-12-17T15:13:19.437Z</time>
      </trkpt>
      <trkpt lat="46.83538" lon="-1.92093">
        <ele>41.496804</ele>
        <time>2022-12-17T15:13:23.430Z</time>
      </trkpt>
      <trkpt lat="46.83522" lon="-1.92077">
        <ele>41.370534</ele>
        <time>2022-12-17T15:14:22.434Z</time>
      </trkpt>
      <trkpt lat="46.83511" lon="-1.92074">
        <ele>41.29521</ele>
        <time>2022-12-17T15:14:25.447Z</time>
      </trkpt>
      <trkpt lat="46.83499" lon="-1.92076">
        <ele>41.209813</ele>
        <time>2022-12-17T15:14:28.445Z</time>
      </trkpt>
      <trkpt lat="46.8349" lon="-1.92076">
        <ele>41.147201</ele>
        <time>2022-12-17T15:14:30.448Z</time>
      </trkpt>
      <trkpt lat="46.83481" lon="-1.92077">
        <ele>41.084624</ele>
        <time>2022-12-17T15:14:32.430Z</time>
      </trkpt>
      <trkpt lat="46.83471" lon="-1.92078">
        <ele>41.016368</ele>
        <time>2022-12-17T15:14:34.428Z</time>
      </trkpt>
      <trkpt lat="46.8346" lon="-1.92079">
        <ele>40.946264</ele>
        <time>2022-12-17T15:14:36.461Z</time>
      </trkpt>
      <trkpt lat="46.83451" lon="-1.92078">
        <ele>40.880256</ele>
        <time>2022-12-17T15:14:38.449Z</time>
      </trkpt>
      <trkpt lat="46.83441" lon="-1.92079">
        <ele>40.818275</ele>
        <time>2022-12-17T15:14:40.430Z</time>
      </trkpt>
      <trkpt lat="46.83429" lon="-1.9208">
        <ele>40.730447</ele>
        <time>2022-12-17T15:14:43.432Z</time>
      </trkpt>
      <trkpt lat="46.83417" lon="-1.92081">
        <ele>40.698797</ele>
        <time>2022-12-17T15:14:46.452Z</time>
      </trkpt>
      <trkpt lat="46.83406" lon="-1.9208">
        <ele>40.74476</ele>
        <time>2022-12-17T15:14:49.422Z</time>
      </trkpt>
      <trkpt lat="46.83395" lon="-1.9208">
        <ele>40.791922</ele>
        <time>2022-12-17T15:14:52.426Z</time>
      </trkpt>
      <trkpt lat="46.83383" lon="-1.92079">
        <ele>40.837601</ele>
        <time>2022-12-17T15:14:55.453Z</time>
      </trkpt>
      <trkpt lat="46.83371" lon="-1.92079">
        <ele>40.88639</ele>
        <time>2022-12-17T15:14:58.454Z</time>
      </trkpt>
      <trkpt lat="46.83358" lon="-1.92082">
        <ele>40.940257</ele>
        <time>2022-12-17T15:15:01.428Z</time>
      </trkpt>
      <trkpt lat="46.83349" lon="-1.92083">
        <ele>40.979387</ele>
        <time>2022-12-17T15:15:03.464Z</time>
      </trkpt>
      <trkpt lat="46.83339" lon="-1.92083">
        <ele>41.019645</ele>
        <time>2022-12-17T15:15:05.445Z</time>
      </trkpt>
      <trkpt lat="46.83329" lon="-1.92082">
        <ele>41.059551</ele>
        <time>2022-12-17T15:15:07.428Z</time>
      </trkpt>
      <trkpt lat="46.8332" lon="-1.92083">
        <ele>41.096575</ele>
        <time>2022-12-17T15:15:09.427Z</time>
      </trkpt>
      <trkpt lat="46.83307" lon="-1.92082">
        <ele>41.149128</ele>
        <time>2022-12-17T15:15:12.428Z</time>
      </trkpt>
      <trkpt lat="46.83296" lon="-1.92079">
        <ele>41.193675</ele>
        <time>2022-12-17T15:15:15.453Z</time>
      </trkpt>
      <trkpt lat="46.83285" lon="-1.92077">
        <ele>41.238892</ele>
        <time>2022-12-17T15:15:19.425Z</time>
      </trkpt>
      <trkpt lat="46.83278" lon="-1.92066">
        <ele>41.279388</ele>
        <time>2022-12-17T15:15:26.428Z</time>
      </trkpt>
      <trkpt lat="46.8327" lon="-1.92057">
        <ele>41.320912</ele>
        <time>2022-12-17T15:15:33.431Z</time>
      </trkpt>
      <trkpt lat="46.83263" lon="-1.9207">
        <ele>41.365717</ele>
        <time>2022-12-17T15:15:39.424Z</time>
      </trkpt>
      <trkpt lat="46.83262" lon="-1.92083">
        <ele>41.402531</ele>
        <time>2022-12-17T15:15:42.442Z</time>
      </trkpt>
      <trkpt lat="46.83259" lon="-1.921">
        <ele>41.511841</ele>
        <time>2022-12-17T15:15:46.417Z</time>
      </trkpt>
      <trkpt lat="46.83257" lon="-1.92114">
        <ele>41.624989</ele>
        <time>2022-12-17T15:15:49.422Z</time>
      </trkpt>
      <trkpt lat="46.83255" lon="-1.92131">
        <ele>41.748315</ele>
        <time>2022-12-17T15:15:52.431Z</time>
      </trkpt>
      <trkpt lat="46.83253" lon="-1.92147">
        <ele>41.876384</ele>
        <time>2022-12-17T15:15:55.419Z</time>
      </trkpt>
      <trkpt lat="46.83249" lon="-1.92164">
        <ele>42.011489</ele>
        <time>2022-12-17T15:15:58.440Z</time>
      </trkpt>
      <trkpt lat="46.83246" lon="-1.92181">
        <ele>42.144452</ele>
        <time>2022-12-17T15:16:01.423Z</time>
      </trkpt>
      <trkpt lat="46.83242" lon="-1.92198">
        <ele>42.278123</ele>
        <time>2022-12-17T15:16:04.429Z</time>
      </trkpt>
      <trkpt lat="46.8324" lon="-1.92214">
        <ele>42.399833</ele>
        <time>2022-12-17T15:16:07.425Z</time>
      </trkpt>
      <trkpt lat="46.83237" lon="-1.92228">
        <ele>42.508704</ele>
        <time>2022-12-17T15:16:10.431Z</time>
      </trkpt>
      <trkpt lat="46.83235" lon="-1.92243">
        <ele>42.623645</ele>
        <time>2022-12-17T15:16:13.429Z</time>
      </trkpt>
      <trkpt lat="46.83233" lon="-1.9226">
        <ele>42.757608</ele>
        <time>2022-12-17T15:16:16.426Z</time>
      </trkpt>
      <trkpt lat="46.8323" lon="-1.92278">
        <ele>42.893356</ele>
        <time>2022-12-17T15:16:19.424Z</time>
      </trkpt>
      <trkpt lat="46.83227" lon="-1.92296">
        <ele>43.034943</ele>
        <time>2022-12-17T15:16:22.429Z</time>
      </trkpt>
      <trkpt lat="46.83223" lon="-1.92315">
        <ele>43.18567</ele>
        <time>2022-12-17T15:16:25.426Z</time>
      </trkpt>
      <trkpt lat="46.83221" lon="-1.92328">
        <ele>43.286691</ele>
        <time>2022-12-17T15:16:27.430Z</time>
      </trkpt>
      <trkpt lat="46.83218" lon="-1.92341">
        <ele>43.390616</ele>
        <time>2022-12-17T15:16:29.425Z</time>
      </trkpt>
      <trkpt lat="46.83216" lon="-1.92355">
        <ele>43.397001</ele>
        <time>2022-12-17T15:16:31.434Z</time>
      </trkpt>
      <trkpt lat="46.83214" lon="-1.92368">
        <ele>43.399411</ele>
        <time>2022-12-17T15:16:33.428Z</time>
      </trkpt>
      <trkpt lat="46.83212" lon="-1.92381">
        <ele>43.401965</ele>
        <time>2022-12-17T15:16:35.429Z</time>
      </trkpt>
      <trkpt lat="46.8321" lon="-1.92395">
        <ele>43.404601</ele>
        <time>2022-12-17T15:16:37.446Z</time>
      </trkpt>
      <trkpt lat="46.83207" lon="-1.9241">
        <ele>43.407375</ele>
        <time>2022-12-17T15:16:39.441Z</time>
      </trkpt>
      <trkpt lat="46.83204" lon="-1.92424">
        <ele>43.410024</ele>
        <time>2022-12-17T15:16:41.430Z</time>
      </trkpt>
      <trkpt lat="46.83202" lon="-1.92438">
        <ele>43.41266</ele>
        <time>2022-12-17T15:16:43.452Z</time>
      </trkpt>
      <trkpt lat="46.83199" lon="-1.92451">
        <ele>43.415233</ele>
        <time>2022-12-17T15:16:45.435Z</time>
      </trkpt>
      <trkpt lat="46.83196" lon="-1.92465">
        <ele>43.417814</ele>
        <time>2022-12-17T15:16:47.438Z</time>
      </trkpt>
      <trkpt lat="46.83193" lon="-1.92479">
        <ele>43.420613</ele>
        <time>2022-12-17T15:16:49.436Z</time>
      </trkpt>
      <trkpt lat="46.8319" lon="-1.92494">
        <ele>43.423457</ele>
        <time>2022-12-17T15:16:51.421Z</time>
      </trkpt>
      <trkpt lat="46.83187" lon="-1.92509">
        <ele>43.426248</ele>
        <time>2022-12-17T15:16:53.430Z</time>
      </trkpt>
      <trkpt lat="46.83185" lon="-1.92523">
        <ele>43.428964</ele>
        <time>2022-12-17T15:16:55.432Z</time>
      </trkpt>
      <trkpt lat="46.83182" lon="-1.92538">
        <ele>43.431821</ele>
        <time>2022-12-17T15:16:57.425Z</time>
      </trkpt>
      <trkpt lat="46.83179" lon="-1.92553">
        <ele>43.43468</ele>
        <time>2022-12-17T15:16:59.427Z</time>
      </trkpt>
      <trkpt lat="46.83177" lon="-1.92566">
        <ele>43.437135</ele>
        <time>2022-12-17T15:17:01.431Z</time>
      </trkpt>
      <trkpt lat="46.83176" lon="-1.9258">
        <ele>43.439625</ele>
        <time>2022-12-17T15:17:03.425Z</time>
      </trkpt>
      <trkpt lat="46.83173" lon="-1.92593">
        <ele>43.44209</ele>
        <time>2022-12-17T15:17:05.428Z</time>
      </trkpt>
      <trkpt lat="46.8317" lon="-1.92611">
        <ele>43.508871</ele>
        <time>2022-12-17T15:17:08.433Z</time>
      </trkpt>
      <trkpt lat="46.83167" lon="-1.9263">
        <ele>43.592351</ele>
        <time>2022-12-17T15:17:11.426Z</time>
      </trkpt>
      <trkpt lat="46.83164" lon="-1.92643">
        <ele>43.649422</ele>
        <time>2022-12-17T15:17:13.435Z</time>
      </trkpt>
      <trkpt lat="46.83162" lon="-1.92657">
        <ele>43.707943</ele>
        <time>2022-12-17T15:17:15.428Z</time>
      </trkpt>
      <trkpt lat="46.83159" lon="-1.92671">
        <ele>43.769214</ele>
        <time>2022-12-17T15:17:17.427Z</time>
      </trkpt>
      <trkpt lat="46.83156" lon="-1.92685">
        <ele>43.833061</ele>
        <time>2022-12-17T15:17:19.428Z</time>
      </trkpt>
      <trkpt lat="46.83153" lon="-1.927">
        <ele>43.898467</ele>
        <time>2022-12-17T15:17:21.425Z</time>
      </trkpt>
      <trkpt lat="46.83151" lon="-1.92715">
        <ele>43.962606</ele>
        <time>2022-12-17T15:17:23.448Z</time>
      </trkpt>
      <trkpt lat="46.83147" lon="-1.9273">
        <ele>44.029438</ele>
        <time>2022-12-17T15:17:25.448Z</time>
      </trkpt>
      <trkpt lat="46.83144" lon="-1.92744">
        <ele>44.092914</ele>
        <time>2022-12-17T15:17:27.426Z</time>
      </trkpt>
      <trkpt lat="46.83142" lon="-1.92759">
        <ele>44.156284</ele>
        <time>2022-12-17T15:17:29.454Z</time>
      </trkpt>
      <trkpt lat="46.83139" lon="-1.92774">
        <ele>44.219739</ele>
        <time>2022-12-17T15:17:31.428Z</time>
      </trkpt>
      <trkpt lat="46.83136" lon="-1.92788">
        <ele>44.285235</ele>
        <time>2022-12-17T15:17:33.428Z</time>
      </trkpt>
      <trkpt lat="46.83133" lon="-1.92804">
        <ele>44.353689</ele>
        <time>2022-12-17T15:17:35.430Z</time>
      </trkpt>
      <trkpt lat="46.8313" lon="-1.9282">
        <ele>44.423984</ele>
        <time>2022-12-17T15:17:37.427Z</time>
      </trkpt>
      <trkpt lat="46.83127" lon="-1.92836">
        <ele>44.495571</ele>
        <time>2022-12-17T15:17:39.425Z</time>
      </trkpt>
      <trkpt lat="46.83124" lon="-1.92853">
        <ele>44.5322</ele>
        <time>2022-12-17T15:17:41.440Z</time>
      </trkpt>
      <trkpt lat="46.8312" lon="-1.92869">
        <ele>44.446412</ele>
        <time>2022-12-17T15:17:43.432Z</time>
      </trkpt>
      <trkpt lat="46.83117" lon="-1.92884">
        <ele>44.364439</ele>
        <time>2022-12-17T15:17:45.439Z</time>
      </trkpt>
      <trkpt lat="46.83114" lon="-1.929">
        <ele>44.285436</ele>
        <time>2022-12-17T15:17:47.444Z</time>
      </trkpt>
      <trkpt lat="46.83112" lon="-1.92914">
        <ele>44.211694</ele>
        <time>2022-12-17T15:17:49.436Z</time>
      </trkpt>
      <trkpt lat="46.83109" lon="-1.92928">
        <ele>44.138497</ele>
        <time>2022-12-17T15:17:51.424Z</time>
      </trkpt>
      <trkpt lat="46.83107" lon="-1.92941">
        <ele>44.068647</ele>
        <time>2022-12-17T15:17:53.427Z</time>
      </trkpt>
      <trkpt lat="46.83102" lon="-1.92959">
        <ele>43.972226</ele>
        <time>2022-12-17T15:17:56.425Z</time>
      </trkpt>
      <trkpt lat="46.83098" lon="-1.92977">
        <ele>43.87801</ele>
        <time>2022-12-17T15:17:59.449Z</time>
      </trkpt>
      <trkpt lat="46.83095" lon="-1.92995">
        <ele>43.780851</ele>
        <time>2022-12-17T15:18:02.426Z</time>
      </trkpt>
      <trkpt lat="46.83093" lon="-1.93009">
        <ele>43.709954</ele>
        <time>2022-12-17T15:18:04.425Z</time>
      </trkpt>
      <trkpt lat="46.83091" lon="-1.93022">
        <ele>43.642147</ele>
        <time>2022-12-17T15:18:06.448Z</time>
      </trkpt>
      <trkpt lat="46.83089" lon="-1.93036">
        <ele>43.572068</ele>
        <time>2022-12-17T15:18:08.431Z</time>
      </trkpt>
      <trkpt lat="46.83086" lon="-1.93049">
        <ele>43.499443</ele>
        <time>2022-12-17T15:18:10.426Z</time>
      </trkpt>
      <trkpt lat="46.83083" lon="-1.93064">
        <ele>43.423949</ele>
        <time>2022-12-17T15:18:12.425Z</time>
      </trkpt>
      <trkpt lat="46.8308" lon="-1.93079">
        <ele>43.342674</ele>
        <time>2022-12-17T15:18:14.447Z</time>
      </trkpt>
      <trkpt lat="46.83078" lon="-1.93094">
        <ele>43.263373</ele>
        <time>2022-12-17T15:18:16.425Z</time>
      </trkpt>
      <trkpt lat="46.83075" lon="-1.9311">
        <ele>43.246565</ele>
        <time>2022-12-17T15:18:18.425Z</time>
      </trkpt>
      <trkpt lat="46.83072" lon="-1.93127">
        <ele>43.294814</ele>
        <time>2022-12-17T15:18:20.424Z</time>
      </trkpt>
      <trkpt lat="46.83069" lon="-1.93143">
        <ele>43.341568</ele>
        <time>2022-12-17T15:18:22.426Z</time>
      </trkpt>
      <trkpt lat="46.83066" lon="-1.9316">
        <ele>43.389423</ele>
        <time>2022-12-17T15:18:24.435Z</time>
      </trkpt>
      <trkpt lat="46.83062" lon="-1.93174">
        <ele>43.431576</ele>
        <time>2022-12-17T15:18:26.430Z</time>
      </trkpt>
      <trkpt lat="46.8306" lon="-1.93189">
        <ele>43.475224</ele>
        <time>2022-12-17T15:18:28.438Z</time>
      </trkpt>
      <trkpt lat="46.83058" lon="-1.93204">
        <ele>43.516889</ele>
        <time>2022-12-17T15:18:30.434Z</time>
      </trkpt>
      <trkpt lat="46.83056" lon="-1.93218">
        <ele>43.556221</ele>
        <time>2022-12-17T15:18:32.426Z</time>
      </trkpt>
      <trkpt lat="46.83053" lon="-1.93232">
        <ele>43.596279</ele>
        <time>2022-12-17T15:18:34.436Z</time>
      </trkpt>
      <trkpt lat="46.8305" lon="-1.93246">
        <ele>43.637502</ele>
        <time>2022-12-17T15:18:36.428Z</time>
      </trkpt>
      <trkpt lat="46.83048" lon="-1.93261">
        <ele>43.679443</ele>
        <time>2022-12-17T15:18:38.451Z</time>
      </trkpt>
      <trkpt lat="46.83045" lon="-1.93276">
        <ele>43.721895</ele>
        <time>2022-12-17T15:18:40.439Z</time>
      </trkpt>
      <trkpt lat="46.83042" lon="-1.9329">
        <ele>43.763281</ele>
        <time>2022-12-17T15:18:42.429Z</time>
      </trkpt>
      <trkpt lat="46.8304" lon="-1.93305">
        <ele>43.806051</ele>
        <time>2022-12-17T15:18:44.442Z</time>
      </trkpt>
      <trkpt lat="46.83036" lon="-1.9332">
        <ele>43.850953</ele>
        <time>2022-12-17T15:18:46.429Z</time>
      </trkpt>
      <trkpt lat="46.83033" lon="-1.93335">
        <ele>43.894698</ele>
        <time>2022-12-17T15:18:48.438Z</time>
      </trkpt>
      <trkpt lat="46.8303" lon="-1.93351">
        <ele>43.938913</ele>
        <time>2022-12-17T15:18:50.437Z</time>
      </trkpt>
      <trkpt lat="46.83027" lon="-1.93366">
        <ele>43.954669</ele>
        <time>2022-12-17T15:18:52.429Z</time>
      </trkpt>
      <trkpt lat="46.83024" lon="-1.93382">
        <ele>43.956785</ele>
        <time>2022-12-17T15:18:54.432Z</time>
      </trkpt>
      <trkpt lat="46.83021" lon="-1.93398">
        <ele>43.95886</ele>
        <time>2022-12-17T15:18:56.429Z</time>
      </trkpt>
      <trkpt lat="46.83018" lon="-1.93415">
        <ele>43.961022</ele>
        <time>2022-12-17T15:18:58.430Z</time>
      </trkpt>
      <trkpt lat="46.83015" lon="-1.93431">
        <ele>43.963172</ele>
        <time>2022-12-17T15:19:00.429Z</time>
      </trkpt>
      <trkpt lat="46.83012" lon="-1.93446">
        <ele>43.965238</ele>
        <time>2022-12-17T15:19:02.428Z</time>
      </trkpt>
      <trkpt lat="46.83009" lon="-1.93461">
        <ele>43.967257</ele>
        <time>2022-12-17T15:19:04.453Z</time>
      </trkpt>
      <trkpt lat="46.83006" lon="-1.93477">
        <ele>43.969281</ele>
        <time>2022-12-17T15:19:06.433Z</time>
      </trkpt>
      <trkpt lat="46.83004" lon="-1.93492">
        <ele>43.971285</ele>
        <time>2022-12-17T15:19:08.450Z</time>
      </trkpt>
      <trkpt lat="46.83001" lon="-1.93507">
        <ele>43.973272</ele>
        <time>2022-12-17T15:19:10.430Z</time>
      </trkpt>
      <trkpt lat="46.82998" lon="-1.93523">
        <ele>43.975356</ele>
        <time>2022-12-17T15:19:12.444Z</time>
      </trkpt>
      <trkpt lat="46.82995" lon="-1.93538">
        <ele>43.977372</ele>
        <time>2022-12-17T15:19:14.436Z</time>
      </trkpt>
      <trkpt lat="46.82992" lon="-1.93554">
        <ele>43.979426</ele>
        <time>2022-12-17T15:19:16.430Z</time>
      </trkpt>
      <trkpt lat="46.82989" lon="-1.93569">
        <ele>43.981439</ele>
        <time>2022-12-17T15:19:18.432Z</time>
      </trkpt>
      <trkpt lat="46.82987" lon="-1.93584">
        <ele>43.983411</ele>
        <time>2022-12-17T15:19:20.429Z</time>
      </trkpt>
      <trkpt lat="46.82984" lon="-1.93598">
        <ele>43.985329</ele>
        <time>2022-12-17T15:19:22.450Z</time>
      </trkpt>
      <trkpt lat="46.82981" lon="-1.93612">
        <ele>43.981035</ele>
        <time>2022-12-17T15:19:24.433Z</time>
      </trkpt>
      <trkpt lat="46.82979" lon="-1.93625">
        <ele>43.9588</ele>
        <time>2022-12-17T15:19:26.447Z</time>
      </trkpt>
      <trkpt lat="46.82976" lon="-1.93638">
        <ele>43.936004</ele>
        <time>2022-12-17T15:19:28.437Z</time>
      </trkpt>
      <trkpt lat="46.82973" lon="-1.93651">
        <ele>43.913847</ele>
        <time>2022-12-17T15:19:30.457Z</time>
      </trkpt>
      <trkpt lat="46.82971" lon="-1.93664">
        <ele>43.891397</ele>
        <time>2022-12-17T15:19:32.422Z</time>
      </trkpt>
      <trkpt lat="46.82969" lon="-1.93677">
        <ele>43.868193</ele>
        <time>2022-12-17T15:19:34.467Z</time>
      </trkpt>
      <trkpt lat="46.82966" lon="-1.93691">
        <ele>43.84541</ele>
        <time>2022-12-17T15:19:36.442Z</time>
      </trkpt>
      <trkpt lat="46.82964" lon="-1.93704">
        <ele>43.821469</ele>
        <time>2022-12-17T15:19:38.423Z</time>
      </trkpt>
      <trkpt lat="46.82961" lon="-1.93718">
        <ele>43.797333</ele>
        <time>2022-12-17T15:19:40.448Z</time>
      </trkpt>
      <trkpt lat="46.82958" lon="-1.93733">
        <ele>43.771835</ele>
        <time>2022-12-17T15:19:42.429Z</time>
      </trkpt>
      <trkpt lat="46.82955" lon="-1.93748">
        <ele>43.746017</ele>
        <time>2022-12-17T15:19:44.443Z</time>
      </trkpt>
      <trkpt lat="46.82953" lon="-1.93763">
        <ele>43.719925</ele>
        <time>2022-12-17T15:19:46.438Z</time>
      </trkpt>
      <trkpt lat="46.8295" lon="-1.93778">
        <ele>43.693876</ele>
        <time>2022-12-17T15:19:48.431Z</time>
      </trkpt>
      <trkpt lat="46.82947" lon="-1.93791">
        <ele>43.670528</ele>
        <time>2022-12-17T15:19:50.457Z</time>
      </trkpt>
      <trkpt lat="46.82945" lon="-1.93805">
        <ele>43.647403</ele>
        <time>2022-12-17T15:19:52.443Z</time>
      </trkpt>
      <trkpt lat="46.82942" lon="-1.93818">
        <ele>43.624288</ele>
        <time>2022-12-17T15:19:54.442Z</time>
      </trkpt>
      <trkpt lat="46.82939" lon="-1.93835">
        <ele>43.594182</ele>
        <time>2022-12-17T15:19:57.425Z</time>
      </trkpt>
      <trkpt lat="46.82936" lon="-1.93852">
        <ele>43.565464</ele>
        <time>2022-12-17T15:20:00.428Z</time>
      </trkpt>
      <trkpt lat="46.82932" lon="-1.93869">
        <ele>43.53575</ele>
        <time>2022-12-17T15:20:03.424Z</time>
      </trkpt>
      <trkpt lat="46.82928" lon="-1.93886">
        <ele>43.50691</ele>
        <time>2022-12-17T15:20:06.429Z</time>
      </trkpt>
      <trkpt lat="46.82925" lon="-1.93904">
        <ele>43.477154</ele>
        <time>2022-12-17T15:20:09.428Z</time>
      </trkpt>
      <trkpt lat="46.82922" lon="-1.93917">
        <ele>43.455301</ele>
        <time>2022-12-17T15:20:11.430Z</time>
      </trkpt>
      <trkpt lat="46.8292" lon="-1.9393">
        <ele>43.433323</ele>
        <time>2022-12-17T15:20:13.427Z</time>
      </trkpt>
      <trkpt lat="46.82917" lon="-1.93944">
        <ele>43.410446</ele>
        <time>2022-12-17T15:20:15.426Z</time>
      </trkpt>
      <trkpt lat="46.82915" lon="-1.93958">
        <ele>43.387664</ele>
        <time>2022-12-17T15:20:17.427Z</time>
      </trkpt>
      <trkpt lat="46.82912" lon="-1.93972">
        <ele>43.363693</ele>
        <time>2022-12-17T15:20:19.424Z</time>
      </trkpt>
      <trkpt lat="46.8291" lon="-1.93986">
        <ele>43.340852</ele>
        <time>2022-12-17T15:20:21.427Z</time>
      </trkpt>
      <trkpt lat="46.82907" lon="-1.94001">
        <ele>43.317178</ele>
        <time>2022-12-17T15:20:23.438Z</time>
      </trkpt>
      <trkpt lat="46.82905" lon="-1.94015">
        <ele>43.293905</ele>
        <time>2022-12-17T15:20:25.427Z</time>
      </trkpt>
      <trkpt lat="46.82902" lon="-1.94028">
        <ele>43.271836</ele>
        <time>2022-12-17T15:20:27.428Z</time>
      </trkpt>
      <trkpt lat="46.829" lon="-1.94041">
        <ele>43.249613</ele>
        <time>2022-12-17T15:20:29.423Z</time>
      </trkpt>
      <trkpt lat="46.82895" lon="-1.9406">
        <ele>43.218804</ele>
        <time>2022-12-17T15:20:32.448Z</time>
      </trkpt>
      <trkpt lat="46.82894" lon="-1.94073">
        <ele>43.197115</ele>
        <time>2022-12-17T15:20:34.426Z</time>
      </trkpt>
      <trkpt lat="46.82892" lon="-1.94086">
        <ele>43.175355</ele>
        <time>2022-12-17T15:20:36.426Z</time>
      </trkpt>
      <trkpt lat="46.8289" lon="-1.94099">
        <ele>43.154085</ele>
        <time>2022-12-17T15:20:38.429Z</time>
      </trkpt>
      <trkpt lat="46.82888" lon="-1.94113">
        <ele>43.130621</ele>
        <time>2022-12-17T15:20:40.425Z</time>
      </trkpt>
      <trkpt lat="46.82885" lon="-1.94128">
        <ele>43.067975</ele>
        <time>2022-12-17T15:20:42.425Z</time>
      </trkpt>
      <trkpt lat="46.82882" lon="-1.94142">
        <ele>42.998657</ele>
        <time>2022-12-17T15:20:44.430Z</time>
      </trkpt>
      <trkpt lat="46.8288" lon="-1.94157">
        <ele>42.928704</ele>
        <time>2022-12-17T15:20:46.430Z</time>
      </trkpt>
      <trkpt lat="46.82876" lon="-1.94172">
        <ele>42.855966</ele>
        <time>2022-12-17T15:20:48.429Z</time>
      </trkpt>
      <trkpt lat="46.82873" lon="-1.94185">
        <ele>42.788978</ele>
        <time>2022-12-17T15:20:50.428Z</time>
      </trkpt>
      <trkpt lat="46.82871" lon="-1.94201">
        <ele>42.712893</ele>
        <time>2022-12-17T15:20:52.426Z</time>
      </trkpt>
      <trkpt lat="46.82868" lon="-1.94216">
        <ele>42.638633</ele>
        <time>2022-12-17T15:20:54.426Z</time>
      </trkpt>
      <trkpt lat="46.82864" lon="-1.94231">
        <ele>42.564085</ele>
        <time>2022-12-17T15:20:56.425Z</time>
      </trkpt>
      <trkpt lat="46.8286" lon="-1.94246">
        <ele>42.492235</ele>
        <time>2022-12-17T15:20:58.449Z</time>
      </trkpt>
      <trkpt lat="46.82857" lon="-1.9426">
        <ele>42.420385</ele>
        <time>2022-12-17T15:21:00.436Z</time>
      </trkpt>
      <trkpt lat="46.82855" lon="-1.94274">
        <ele>42.35385</ele>
        <time>2022-12-17T15:21:02.454Z</time>
      </trkpt>
      <trkpt lat="46.82853" lon="-1.94287">
        <ele>42.290818</ele>
        <time>2022-12-17T15:21:04.450Z</time>
      </trkpt>
      <trkpt lat="46.82849" lon="-1.94305">
        <ele>42.203187</ele>
        <time>2022-12-17T15:21:07.426Z</time>
      </trkpt>
      <trkpt lat="46.82846" lon="-1.94322">
        <ele>42.123947</ele>
        <time>2022-12-17T15:21:10.450Z</time>
      </trkpt>
      <trkpt lat="46.82842" lon="-1.94337">
        <ele>42.048784</ele>
        <time>2022-12-17T15:21:13.434Z</time>
      </trkpt>
      <trkpt lat="46.8284" lon="-1.94351">
        <ele>41.981206</ele>
        <time>2022-12-17T15:21:16.421Z</time>
      </trkpt>
      <trkpt lat="46.82838" lon="-1.94365">
        <ele>41.914181</ele>
        <time>2022-12-17T15:21:19.420Z</time>
      </trkpt>
      <trkpt lat="46.82836" lon="-1.94379">
        <ele>41.924845</ele>
        <time>2022-12-17T15:21:22.427Z</time>
      </trkpt>
      <trkpt lat="46.82834" lon="-1.94392">
        <ele>41.958942</ele>
        <time>2022-12-17T15:21:26.420Z</time>
      </trkpt>
      <trkpt lat="46.82831" lon="-1.94405">
        <ele>41.995685</ele>
        <time>2022-12-17T15:21:34.426Z</time>
      </trkpt>
      <trkpt lat="46.82825" lon="-1.94427">
        <ele>42.056154</ele>
        <time>2022-12-17T15:22:59.446Z</time>
      </trkpt>
      <trkpt lat="46.82823" lon="-1.94444">
        <ele>42.098995</ele>
        <time>2022-12-17T15:23:03.426Z</time>
      </trkpt>
      <trkpt lat="46.8282" lon="-1.94458">
        <ele>42.137413</ele>
        <time>2022-12-17T15:23:06.426Z</time>
      </trkpt>
      <trkpt lat="46.82818" lon="-1.94475">
        <ele>42.180942</ele>
        <time>2022-12-17T15:23:09.436Z</time>
      </trkpt>
      <trkpt lat="46.82814" lon="-1.94493">
        <ele>42.228652</ele>
        <time>2022-12-17T15:23:12.430Z</time>
      </trkpt>
      <trkpt lat="46.82811" lon="-1.94511">
        <ele>42.277702</ele>
        <time>2022-12-17T15:23:15.443Z</time>
      </trkpt>
      <trkpt lat="46.82808" lon="-1.9453">
        <ele>42.326698</ele>
        <time>2022-12-17T15:23:18.443Z</time>
      </trkpt>
      <trkpt lat="46.82804" lon="-1.94549">
        <ele>42.376151</ele>
        <time>2022-12-17T15:23:21.429Z</time>
      </trkpt>
      <trkpt lat="46.82802" lon="-1.94562">
        <ele>42.411912</ele>
        <time>2022-12-17T15:23:23.435Z</time>
      </trkpt>
      <trkpt lat="46.82798" lon="-1.94581">
        <ele>42.461746</ele>
        <time>2022-12-17T15:23:26.428Z</time>
      </trkpt>
      <trkpt lat="46.82796" lon="-1.94595">
        <ele>42.49814</ele>
        <time>2022-12-17T15:23:28.430Z</time>
      </trkpt>
      <trkpt lat="46.82793" lon="-1.94608">
        <ele>42.53413</ele>
        <time>2022-12-17T15:23:30.449Z</time>
      </trkpt>
      <trkpt lat="46.82791" lon="-1.94621">
        <ele>42.568315</ele>
        <time>2022-12-17T15:23:32.427Z</time>
      </trkpt>
      <trkpt lat="46.82788" lon="-1.94634">
        <ele>42.559435</ele>
        <time>2022-12-17T15:23:34.419Z</time>
      </trkpt>
      <trkpt lat="46.82786" lon="-1.94648">
        <ele>42.549575</ele>
        <time>2022-12-17T15:23:36.429Z</time>
      </trkpt>
      <trkpt lat="46.82783" lon="-1.94668">
        <ele>42.534766</ele>
        <time>2022-12-17T15:23:39.433Z</time>
      </trkpt>
      <trkpt lat="46.82781" lon="-1.94682">
        <ele>42.524578</ele>
        <time>2022-12-17T15:23:41.432Z</time>
      </trkpt>
      <trkpt lat="46.82778" lon="-1.94695">
        <ele>42.514513</ele>
        <time>2022-12-17T15:23:43.440Z</time>
      </trkpt>
      <trkpt lat="46.82775" lon="-1.94709">
        <ele>42.504418</ele>
        <time>2022-12-17T15:23:45.426Z</time>
      </trkpt>
      <trkpt lat="46.82773" lon="-1.94724">
        <ele>42.49327</ele>
        <time>2022-12-17T15:23:47.430Z</time>
      </trkpt>
      <trkpt lat="46.82769" lon="-1.94738">
        <ele>42.482049</ele>
        <time>2022-12-17T15:23:49.428Z</time>
      </trkpt>
      <trkpt lat="46.82767" lon="-1.94753">
        <ele>42.47097</ele>
        <time>2022-12-17T15:23:51.430Z</time>
      </trkpt>
      <trkpt lat="46.82764" lon="-1.94769">
        <ele>42.459613</ele>
        <time>2022-12-17T15:23:53.426Z</time>
      </trkpt>
      <trkpt lat="46.82761" lon="-1.94784">
        <ele>42.448447</ele>
        <time>2022-12-17T15:23:55.430Z</time>
      </trkpt>
      <trkpt lat="46.82758" lon="-1.94798">
        <ele>42.437352</ele>
        <time>2022-12-17T15:23:57.431Z</time>
      </trkpt>
      <trkpt lat="46.82756" lon="-1.94814">
        <ele>42.426135</ele>
        <time>2022-12-17T15:23:59.427Z</time>
      </trkpt>
      <trkpt lat="46.82753" lon="-1.94828">
        <ele>42.415361</ele>
        <time>2022-12-17T15:24:01.445Z</time>
      </trkpt>
      <trkpt lat="46.8275" lon="-1.94843">
        <ele>42.404236</ele>
        <time>2022-12-17T15:24:03.434Z</time>
      </trkpt>
      <trkpt lat="46.82747" lon="-1.94858">
        <ele>42.392853</ele>
        <time>2022-12-17T15:24:05.426Z</time>
      </trkpt>
      <trkpt lat="46.82744" lon="-1.94873">
        <ele>42.38159</ele>
        <time>2022-12-17T15:24:07.428Z</time>
      </trkpt>
      <trkpt lat="46.82741" lon="-1.94888">
        <ele>42.398055</ele>
        <time>2022-12-17T15:24:09.435Z</time>
      </trkpt>
      <trkpt lat="46.82738" lon="-1.94903">
        <ele>42.418828</ele>
        <time>2022-12-17T15:24:11.428Z</time>
      </trkpt>
      <trkpt lat="46.82736" lon="-1.94918">
        <ele>42.438413</ele>
        <time>2022-12-17T15:24:13.435Z</time>
      </trkpt>
      <trkpt lat="46.82733" lon="-1.94933">
        <ele>42.459134</ele>
        <time>2022-12-17T15:24:15.446Z</time>
      </trkpt>
      <trkpt lat="46.8273" lon="-1.94948">
        <ele>42.480508</ele>
        <time>2022-12-17T15:24:17.445Z</time>
      </trkpt>
      <trkpt lat="46.82726" lon="-1.94963">
        <ele>42.50175</ele>
        <time>2022-12-17T15:24:19.435Z</time>
      </trkpt>
      <trkpt lat="46.82724" lon="-1.94978">
        <ele>42.522343</ele>
        <time>2022-12-17T15:24:21.444Z</time>
      </trkpt>
      <trkpt lat="46.82721" lon="-1.94994">
        <ele>42.543177</ele>
        <time>2022-12-17T15:24:23.430Z</time>
      </trkpt>
      <trkpt lat="46.82718" lon="-1.95008">
        <ele>42.563209</ele>
        <time>2022-12-17T15:24:25.426Z</time>
      </trkpt>
      <trkpt lat="46.82715" lon="-1.95023">
        <ele>42.583388</ele>
        <time>2022-12-17T15:24:27.436Z</time>
      </trkpt>
      <trkpt lat="46.82713" lon="-1.95037">
        <ele>42.603242</ele>
        <time>2022-12-17T15:24:29.431Z</time>
      </trkpt>
      <trkpt lat="46.8271" lon="-1.95052">
        <ele>42.62358</ele>
        <time>2022-12-17T15:24:31.437Z</time>
      </trkpt>
      <trkpt lat="46.82707" lon="-1.95067">
        <ele>42.644278</ele>
        <time>2022-12-17T15:24:33.432Z</time>
      </trkpt>
      <trkpt lat="46.82704" lon="-1.95082">
        <ele>42.664234</ele>
        <time>2022-12-17T15:24:35.431Z</time>
      </trkpt>
      <trkpt lat="46.82701" lon="-1.95096">
        <ele>42.684216</ele>
        <time>2022-12-17T15:24:37.430Z</time>
      </trkpt>
      <trkpt lat="46.82699" lon="-1.95111">
        <ele>42.704375</ele>
        <time>2022-12-17T15:24:39.439Z</time>
      </trkpt>
      <trkpt lat="46.82696" lon="-1.95125">
        <ele>42.724229</ele>
        <time>2022-12-17T15:24:41.434Z</time>
      </trkpt>
      <trkpt lat="46.82694" lon="-1.9514">
        <ele>42.748961</ele>
        <time>2022-12-17T15:24:43.434Z</time>
      </trkpt>
      <trkpt lat="46.8269" lon="-1.95154">
        <ele>42.775869</ele>
        <time>2022-12-17T15:24:45.432Z</time>
      </trkpt>
      <trkpt lat="46.82688" lon="-1.95169">
        <ele>42.802897</ele>
        <time>2022-12-17T15:24:47.431Z</time>
      </trkpt>
      <trkpt lat="46.82686" lon="-1.95183">
        <ele>42.829984</ele>
        <time>2022-12-17T15:24:49.434Z</time>
      </trkpt>
      <trkpt lat="46.82683" lon="-1.95198">
        <ele>42.857324</ele>
        <time>2022-12-17T15:24:51.428Z</time>
      </trkpt>
      <trkpt lat="46.8268" lon="-1.95212">
        <ele>42.884245</ele>
        <time>2022-12-17T15:24:53.443Z</time>
      </trkpt>
      <trkpt lat="46.82677" lon="-1.95227">
        <ele>42.911337</ele>
        <time>2022-12-17T15:24:55.432Z</time>
      </trkpt>
      <trkpt lat="46.82675" lon="-1.95242">
        <ele>42.938774</ele>
        <time>2022-12-17T15:24:57.443Z</time>
      </trkpt>
      <trkpt lat="46.82672" lon="-1.95257">
        <ele>42.967618</ele>
        <time>2022-12-17T15:24:59.458Z</time>
      </trkpt>
      <trkpt lat="46.82669" lon="-1.95273">
        <ele>42.996231</ele>
        <time>2022-12-17T15:25:01.429Z</time>
      </trkpt>
      <trkpt lat="46.82666" lon="-1.95287">
        <ele>43.023148</ele>
        <time>2022-12-17T15:25:03.438Z</time>
      </trkpt>
      <trkpt lat="46.82664" lon="-1.95302">
        <ele>43.05076</ele>
        <time>2022-12-17T15:25:05.429Z</time>
      </trkpt>
      <trkpt lat="46.82661" lon="-1.95317">
        <ele>43.07785</ele>
        <time>2022-12-17T15:25:07.438Z</time>
      </trkpt>
      <trkpt lat="46.82659" lon="-1.95332">
        <ele>43.104994</ele>
        <time>2022-12-17T15:25:09.439Z</time>
      </trkpt>
      <trkpt lat="46.82656" lon="-1.95347">
        <ele>43.13356</ele>
        <time>2022-12-17T15:25:11.428Z</time>
      </trkpt>
      <trkpt lat="46.82653" lon="-1.95363">
        <ele>43.162763</ele>
        <time>2022-12-17T15:25:13.433Z</time>
      </trkpt>
      <trkpt lat="46.8265" lon="-1.95378">
        <ele>43.190676</ele>
        <time>2022-12-17T15:25:15.437Z</time>
      </trkpt>
      <trkpt lat="46.82647" lon="-1.95392">
        <ele>43.236781</ele>
        <time>2022-12-17T15:25:17.434Z</time>
      </trkpt>
      <trkpt lat="46.82645" lon="-1.95406">
        <ele>43.286426</ele>
        <time>2022-12-17T15:25:19.429Z</time>
      </trkpt>
      <trkpt lat="46.82642" lon="-1.9542">
        <ele>43.33824</ele>
        <time>2022-12-17T15:25:21.450Z</time>
      </trkpt>
      <trkpt lat="46.8264" lon="-1.95433">
        <ele>43.387843</ele>
        <time>2022-12-17T15:25:23.426Z</time>
      </trkpt>
      <trkpt lat="46.82637" lon="-1.95447">
        <ele>43.440521</ele>
        <time>2022-12-17T15:25:25.442Z</time>
      </trkpt>
      <trkpt lat="46.82634" lon="-1.95461">
        <ele>43.495375</ele>
        <time>2022-12-17T15:25:27.449Z</time>
      </trkpt>
      <trkpt lat="46.82631" lon="-1.95475">
        <ele>43.548092</ele>
        <time>2022-12-17T15:25:29.451Z</time>
      </trkpt>
      <trkpt lat="46.82629" lon="-1.9549">
        <ele>43.603242</ele>
        <time>2022-12-17T15:25:31.448Z</time>
      </trkpt>
      <trkpt lat="46.82626" lon="-1.95505">
        <ele>43.657989</ele>
        <time>2022-12-17T15:25:33.443Z</time>
      </trkpt>
      <trkpt lat="46.82623" lon="-1.95519">
        <ele>43.712791</ele>
        <time>2022-12-17T15:25:35.430Z</time>
      </trkpt>
      <trkpt lat="46.8262" lon="-1.95535">
        <ele>43.770772</ele>
        <time>2022-12-17T15:25:37.448Z</time>
      </trkpt>
      <trkpt lat="46.82617" lon="-1.9555">
        <ele>43.826967</ele>
        <time>2022-12-17T15:25:39.429Z</time>
      </trkpt>
      <trkpt lat="46.82614" lon="-1.95565">
        <ele>43.883861</ele>
        <time>2022-12-17T15:25:41.427Z</time>
      </trkpt>
      <trkpt lat="46.82612" lon="-1.9558">
        <ele>43.939155</ele>
        <time>2022-12-17T15:25:43.441Z</time>
      </trkpt>
      <trkpt lat="46.82609" lon="-1.95595">
        <ele>43.995492</ele>
        <time>2022-12-17T15:25:45.428Z</time>
      </trkpt>
      <trkpt lat="46.82606" lon="-1.9561">
        <ele>44.05212</ele>
        <time>2022-12-17T15:25:47.426Z</time>
      </trkpt>
      <trkpt lat="46.82604" lon="-1.95625">
        <ele>44.11038</ele>
        <time>2022-12-17T15:25:49.436Z</time>
      </trkpt>
      <trkpt lat="46.826" lon="-1.95641">
        <ele>44.161961</ele>
        <time>2022-12-17T15:25:51.434Z</time>
      </trkpt>
      <trkpt lat="46.82597" lon="-1.95656">
        <ele>44.200754</ele>
        <time>2022-12-17T15:25:53.430Z</time>
      </trkpt>
      <trkpt lat="46.82594" lon="-1.95672">
        <ele>44.239202</ele>
        <time>2022-12-17T15:25:55.427Z</time>
      </trkpt>
      <trkpt lat="46.82591" lon="-1.95687">
        <ele>44.277042</ele>
        <time>2022-12-17T15:25:57.425Z</time>
      </trkpt>
      <trkpt lat="46.82589" lon="-1.95702">
        <ele>44.313921</ele>
        <time>2022-12-17T15:25:59.462Z</time>
      </trkpt>
      <trkpt lat="46.82586" lon="-1.95717">
        <ele>44.351968</ele>
        <time>2022-12-17T15:26:01.430Z</time>
      </trkpt>
      <trkpt lat="46.82584" lon="-1.95733">
        <ele>44.390417</ele>
        <time>2022-12-17T15:26:03.449Z</time>
      </trkpt>
      <trkpt lat="46.8258" lon="-1.95749">
        <ele>44.430588</ele>
        <time>2022-12-17T15:26:05.433Z</time>
      </trkpt>
      <trkpt lat="46.82577" lon="-1.95765">
        <ele>44.470633</ele>
        <time>2022-12-17T15:26:07.445Z</time>
      </trkpt>
      <trkpt lat="46.82574" lon="-1.95781">
        <ele>44.511265</ele>
        <time>2022-12-17T15:26:09.434Z</time>
      </trkpt>
      <trkpt lat="46.82571" lon="-1.95797">
        <ele>44.551645</ele>
        <time>2022-12-17T15:26:11.436Z</time>
      </trkpt>
      <trkpt lat="46.82568" lon="-1.95813">
        <ele>44.591112</ele>
        <time>2022-12-17T15:26:13.434Z</time>
      </trkpt>
      <trkpt lat="46.82564" lon="-1.95829">
        <ele>44.632515</ele>
        <time>2022-12-17T15:26:15.422Z</time>
      </trkpt>
      <trkpt lat="46.82562" lon="-1.95845">
        <ele>44.671345</ele>
        <time>2022-12-17T15:26:17.426Z</time>
      </trkpt>
      <trkpt lat="46.82559" lon="-1.95861">
        <ele>44.71026</ele>
        <time>2022-12-17T15:26:19.430Z</time>
      </trkpt>
      <trkpt lat="46.82556" lon="-1.95876">
        <ele>44.749175</ele>
        <time>2022-12-17T15:26:21.430Z</time>
      </trkpt>
      <trkpt lat="46.82553" lon="-1.95891">
        <ele>44.778082</ele>
        <time>2022-12-17T15:26:23.425Z</time>
      </trkpt>
      <trkpt lat="46.82551" lon="-1.95905">
        <ele>44.759805</ele>
        <time>2022-12-17T15:26:25.428Z</time>
      </trkpt>
      <trkpt lat="46.82548" lon="-1.95919">
        <ele>44.742171</ele>
        <time>2022-12-17T15:26:27.439Z</time>
      </trkpt>
      <trkpt lat="46.82544" lon="-1.95935">
        <ele>44.722532</ele>
        <time>2022-12-17T15:26:29.428Z</time>
      </trkpt>
      <trkpt lat="46.82541" lon="-1.9595">
        <ele>44.703604</ele>
        <time>2022-12-17T15:26:31.435Z</time>
      </trkpt>
      <trkpt lat="46.82539" lon="-1.95965">
        <ele>44.685398</ele>
        <time>2022-12-17T15:26:33.445Z</time>
      </trkpt>
      <trkpt lat="46.82536" lon="-1.9598">
        <ele>44.666191</ele>
        <time>2022-12-17T15:26:35.446Z</time>
      </trkpt>
      <trkpt lat="46.82534" lon="-1.95995">
        <ele>44.647425</ele>
        <time>2022-12-17T15:26:37.437Z</time>
      </trkpt>
      <trkpt lat="46.82532" lon="-1.96009">
        <ele>44.629801</ele>
        <time>2022-12-17T15:26:39.441Z</time>
      </trkpt>
      <trkpt lat="46.82529" lon="-1.96024">
        <ele>44.611737</ele>
        <time>2022-12-17T15:26:41.460Z</time>
      </trkpt>
      <trkpt lat="46.82526" lon="-1.96038">
        <ele>44.593304</ele>
        <time>2022-12-17T15:26:43.441Z</time>
      </trkpt>
      <trkpt lat="46.82523" lon="-1.96053">
        <ele>44.575138</ele>
        <time>2022-12-17T15:26:45.440Z</time>
      </trkpt>
      <trkpt lat="46.8252" lon="-1.96068">
        <ele>44.556114</ele>
        <time>2022-12-17T15:26:47.440Z</time>
      </trkpt>
      <trkpt lat="46.82518" lon="-1.96083">
        <ele>44.53742</ele>
        <time>2022-12-17T15:26:49.441Z</time>
      </trkpt>
      <trkpt lat="46.82515" lon="-1.96098">
        <ele>44.517582</ele>
        <time>2022-12-17T15:26:51.444Z</time>
      </trkpt>
      <trkpt lat="46.82512" lon="-1.96114">
        <ele>44.498465</ele>
        <time>2022-12-17T15:26:53.461Z</time>
      </trkpt>
      <trkpt lat="46.82509" lon="-1.96129">
        <ele>44.479209</ele>
        <time>2022-12-17T15:26:55.460Z</time>
      </trkpt>
      <trkpt lat="46.82506" lon="-1.96144">
        <ele>44.466202</ele>
        <time>2022-12-17T15:26:57.430Z</time>
      </trkpt>
      <trkpt lat="46.82503" lon="-1.96159">
        <ele>44.500336</ele>
        <time>2022-12-17T15:26:59.429Z</time>
      </trkpt>
      <trkpt lat="46.825" lon="-1.96175">
        <ele>44.535643</ele>
        <time>2022-12-17T15:27:01.462Z</time>
      </trkpt>
      <trkpt lat="46.82497" lon="-1.96191">
        <ele>44.571905</ele>
        <time>2022-12-17T15:27:03.435Z</time>
      </trkpt>
      <trkpt lat="46.82494" lon="-1.96207">
        <ele>44.608083</ele>
        <time>2022-12-17T15:27:05.428Z</time>
      </trkpt>
      <trkpt lat="46.82491" lon="-1.96223">
        <ele>44.645165</ele>
        <time>2022-12-17T15:27:07.446Z</time>
      </trkpt>
      <trkpt lat="46.82489" lon="-1.96238">
        <ele>44.679656</ele>
        <time>2022-12-17T15:27:09.430Z</time>
      </trkpt>
      <trkpt lat="46.82486" lon="-1.96254">
        <ele>44.71475</ele>
        <time>2022-12-17T15:27:11.431Z</time>
      </trkpt>
      <trkpt lat="46.82483" lon="-1.96269">
        <ele>44.749418</ele>
        <time>2022-12-17T15:27:13.430Z</time>
      </trkpt>
      <trkpt lat="46.82481" lon="-1.96283">
        <ele>44.781527</ele>
        <time>2022-12-17T15:27:15.437Z</time>
      </trkpt>
      <trkpt lat="46.82479" lon="-1.96297">
        <ele>44.811745</ele>
        <time>2022-12-17T15:27:17.437Z</time>
      </trkpt>
      <trkpt lat="46.82475" lon="-1.96316">
        <ele>44.855012</ele>
        <time>2022-12-17T15:27:20.426Z</time>
      </trkpt>
      <trkpt lat="46.82471" lon="-1.96333">
        <ele>44.893588</ele>
        <time>2022-12-17T15:27:23.439Z</time>
      </trkpt>
      <trkpt lat="46.82468" lon="-1.96351">
        <ele>44.934371</ele>
        <time>2022-12-17T15:27:26.430Z</time>
      </trkpt>
      <trkpt lat="46.82464" lon="-1.9637">
        <ele>44.978148</ele>
        <time>2022-12-17T15:27:29.433Z</time>
      </trkpt>
      <trkpt lat="46.82462" lon="-1.96383">
        <ele>45.008563</ele>
        <time>2022-12-17T15:27:31.438Z</time>
      </trkpt>
      <trkpt lat="46.82459" lon="-1.96397">
        <ele>45.035986</ele>
        <time>2022-12-17T15:27:33.424Z</time>
      </trkpt>
      <trkpt lat="46.82457" lon="-1.9641">
        <ele>45.017906</ele>
        <time>2022-12-17T15:27:35.430Z</time>
      </trkpt>
      <trkpt lat="46.82454" lon="-1.96424">
        <ele>44.999101</ele>
        <time>2022-12-17T15:27:37.427Z</time>
      </trkpt>
      <trkpt lat="46.82451" lon="-1.96439">
        <ele>44.979585</ele>
        <time>2022-12-17T15:27:39.427Z</time>
      </trkpt>
      <trkpt lat="46.82449" lon="-1.96453">
        <ele>44.960888</ele>
        <time>2022-12-17T15:27:41.429Z</time>
      </trkpt>
      <trkpt lat="46.82446" lon="-1.96467">
        <ele>44.941234</ele>
        <time>2022-12-17T15:27:43.427Z</time>
      </trkpt>
      <trkpt lat="46.82443" lon="-1.96481">
        <ele>44.922579</ele>
        <time>2022-12-17T15:27:45.438Z</time>
      </trkpt>
      <trkpt lat="46.8244" lon="-1.96495">
        <ele>44.903372</ele>
        <time>2022-12-17T15:27:47.442Z</time>
      </trkpt>
      <trkpt lat="46.82437" lon="-1.96509">
        <ele>44.884226</ele>
        <time>2022-12-17T15:27:49.423Z</time>
      </trkpt>
      <trkpt lat="46.82435" lon="-1.96524">
        <ele>44.865356</ele>
        <time>2022-12-17T15:27:51.429Z</time>
      </trkpt>
      <trkpt lat="46.82432" lon="-1.96538">
        <ele>44.846427</ele>
        <time>2022-12-17T15:27:53.421Z</time>
      </trkpt>
      <trkpt lat="46.8243" lon="-1.96552">
        <ele>44.827975</ele>
        <time>2022-12-17T15:27:55.429Z</time>
      </trkpt>
      <trkpt lat="46.82427" lon="-1.96565">
        <ele>44.809624</ele>
        <time>2022-12-17T15:27:57.430Z</time>
      </trkpt>
      <trkpt lat="46.82425" lon="-1.96578">
        <ele>44.792042</ele>
        <time>2022-12-17T15:27:59.427Z</time>
      </trkpt>
      <trkpt lat="46.82421" lon="-1.96598">
        <ele>44.76613</ele>
        <time>2022-12-17T15:28:02.429Z</time>
      </trkpt>
      <trkpt lat="46.82418" lon="-1.96612">
        <ele>44.747574</ele>
        <time>2022-12-17T15:28:04.428Z</time>
      </trkpt>
      <trkpt lat="46.82415" lon="-1.96627">
        <ele>44.727246</ele>
        <time>2022-12-17T15:28:06.448Z</time>
      </trkpt>
      <trkpt lat="46.82413" lon="-1.96641">
        <ele>44.708415</ele>
        <time>2022-12-17T15:28:08.434Z</time>
      </trkpt>
      <trkpt lat="46.8241" lon="-1.96657">
        <ele>44.696216</ele>
        <time>2022-12-17T15:28:10.430Z</time>
      </trkpt>
      <trkpt lat="46.82407" lon="-1.96672">
        <ele>44.694495</ele>
        <time>2022-12-17T15:28:12.437Z</time>
      </trkpt>
      <trkpt lat="46.82404" lon="-1.96687">
        <ele>44.692651</ele>
        <time>2022-12-17T15:28:14.446Z</time>
      </trkpt>
      <trkpt lat="46.82401" lon="-1.96702">
        <ele>44.690819</ele>
        <time>2022-12-17T15:28:16.431Z</time>
      </trkpt>
      <trkpt lat="46.82398" lon="-1.96717">
        <ele>44.689031</ele>
        <time>2022-12-17T15:28:18.434Z</time>
      </trkpt>
      <trkpt lat="46.82395" lon="-1.96731">
        <ele>44.687418</ele>
        <time>2022-12-17T15:28:20.430Z</time>
      </trkpt>
      <trkpt lat="46.82393" lon="-1.96745">
        <ele>44.685701</ele>
        <time>2022-12-17T15:28:22.441Z</time>
      </trkpt>
      <trkpt lat="46.82391" lon="-1.96759">
        <ele>44.684059</ele>
        <time>2022-12-17T15:28:24.437Z</time>
      </trkpt>
      <trkpt lat="46.82389" lon="-1.96774">
        <ele>44.682382</ele>
        <time>2022-12-17T15:28:26.441Z</time>
      </trkpt>
      <trkpt lat="46.82387" lon="-1.96789">
        <ele>44.680594</ele>
        <time>2022-12-17T15:28:28.433Z</time>
      </trkpt>
      <trkpt lat="46.82384" lon="-1.96804">
        <ele>44.678758</ele>
        <time>2022-12-17T15:28:30.437Z</time>
      </trkpt>
      <trkpt lat="46.82381" lon="-1.96819">
        <ele>44.676961</ele>
        <time>2022-12-17T15:28:32.426Z</time>
      </trkpt>
      <trkpt lat="46.82378" lon="-1.96835">
        <ele>44.675067</ele>
        <time>2022-12-17T15:28:34.428Z</time>
      </trkpt>
      <trkpt lat="46.82375" lon="-1.96851">
        <ele>44.67317</ele>
        <time>2022-12-17T15:28:36.427Z</time>
      </trkpt>
      <trkpt lat="46.82372" lon="-1.96867">
        <ele>44.671229</ele>
        <time>2022-12-17T15:28:38.436Z</time>
      </trkpt>
      <trkpt lat="46.82369" lon="-1.96883">
        <ele>44.669333</ele>
        <time>2022-12-17T15:28:40.425Z</time>
      </trkpt>
      <trkpt lat="46.82365" lon="-1.969">
        <ele>44.667285</ele>
        <time>2022-12-17T15:28:42.437Z</time>
      </trkpt>
      <trkpt lat="46.82362" lon="-1.96917">
        <ele>44.702585</ele>
        <time>2022-12-17T15:28:44.447Z</time>
      </trkpt>
      <trkpt lat="46.82359" lon="-1.96934">
        <ele>44.746181</ele>
        <time>2022-12-17T15:28:46.453Z</time>
      </trkpt>
      <trkpt lat="46.82356" lon="-1.96951">
        <ele>44.790977</ele>
        <time>2022-12-17T15:28:48.439Z</time>
      </trkpt>
      <trkpt lat="46.82353" lon="-1.96968">
        <ele>44.834055</ele>
        <time>2022-12-17T15:28:50.438Z</time>
      </trkpt>
      <trkpt lat="46.8235" lon="-1.96985">
        <ele>44.877647</ele>
        <time>2022-12-17T15:28:52.437Z</time>
      </trkpt>
      <trkpt lat="46.82347" lon="-1.97001">
        <ele>44.918012</ele>
        <time>2022-12-17T15:28:54.440Z</time>
      </trkpt>
      <trkpt lat="46.82344" lon="-1.97016">
        <ele>44.957665</ele>
        <time>2022-12-17T15:28:56.429Z</time>
      </trkpt>
      <trkpt lat="46.82342" lon="-1.97031">
        <ele>44.994595</ele>
        <time>2022-12-17T15:28:58.464Z</time>
      </trkpt>
      <trkpt lat="46.82339" lon="-1.97045">
        <ele>45.029477</ele>
        <time>2022-12-17T15:29:00.435Z</time>
      </trkpt>
      <trkpt lat="46.82337" lon="-1.97058">
        <ele>45.062596</ele>
        <time>2022-12-17T15:29:02.432Z</time>
      </trkpt>
      <trkpt lat="46.82333" lon="-1.97076">
        <ele>45.109024</ele>
        <time>2022-12-17T15:29:05.435Z</time>
      </trkpt>
      <trkpt lat="46.82329" lon="-1.97094">
        <ele>45.157298</ele>
        <time>2022-12-17T15:29:08.433Z</time>
      </trkpt>
      <trkpt lat="46.82327" lon="-1.97108">
        <ele>45.191369</ele>
        <time>2022-12-17T15:29:10.449Z</time>
      </trkpt>
      <trkpt lat="46.82324" lon="-1.97121">
        <ele>45.2253</ele>
        <time>2022-12-17T15:29:12.442Z</time>
      </trkpt>
      <trkpt lat="46.82321" lon="-1.97135">
        <ele>45.26212</ele>
        <time>2022-12-17T15:29:14.432Z</time>
      </trkpt>
      <trkpt lat="46.82319" lon="-1.9715">
        <ele>45.298909</ele>
        <time>2022-12-17T15:29:16.452Z</time>
      </trkpt>
      <trkpt lat="46.82316" lon="-1.97164">
        <ele>45.326022</ele>
        <time>2022-12-17T15:29:18.439Z</time>
      </trkpt>
      <trkpt lat="46.82313" lon="-1.97178">
        <ele>45.343811</ele>
        <time>2022-12-17T15:29:20.437Z</time>
      </trkpt>
      <trkpt lat="46.82311" lon="-1.97193">
        <ele>45.361792</ele>
        <time>2022-12-17T15:29:22.434Z</time>
      </trkpt>
      <trkpt lat="46.82307" lon="-1.97209">
        <ele>45.382186</ele>
        <time>2022-12-17T15:29:24.435Z</time>
      </trkpt>
      <trkpt lat="46.82304" lon="-1.97224">
        <ele>45.400906</ele>
        <time>2022-12-17T15:29:26.439Z</time>
      </trkpt>
      <trkpt lat="46.82302" lon="-1.9724">
        <ele>45.419558</ele>
        <time>2022-12-17T15:29:28.440Z</time>
      </trkpt>
      <trkpt lat="46.82299" lon="-1.97255">
        <ele>45.438436</ele>
        <time>2022-12-17T15:29:30.428Z</time>
      </trkpt>
      <trkpt lat="46.82296" lon="-1.9727">
        <ele>45.457815</ele>
        <time>2022-12-17T15:29:32.453Z</time>
      </trkpt>
      <trkpt lat="46.82293" lon="-1.97285">
        <ele>45.476643</ele>
        <time>2022-12-17T15:29:34.428Z</time>
      </trkpt>
      <trkpt lat="46.8229" lon="-1.97299">
        <ele>45.493506</ele>
        <time>2022-12-17T15:29:36.433Z</time>
      </trkpt>
      <trkpt lat="46.82287" lon="-1.97312">
        <ele>45.510513</ele>
        <time>2022-12-17T15:29:38.441Z</time>
      </trkpt>
      <trkpt lat="46.82283" lon="-1.9733">
        <ele>45.533344</ele>
        <time>2022-12-17T15:29:41.430Z</time>
      </trkpt>
      <trkpt lat="46.82281" lon="-1.97349">
        <ele>45.555842</ele>
        <time>2022-12-17T15:29:44.427Z</time>
      </trkpt>
      <trkpt lat="46.82278" lon="-1.97362">
        <ele>45.572914</ele>
        <time>2022-12-17T15:29:46.427Z</time>
      </trkpt>
      <trkpt lat="46.82276" lon="-1.97376">
        <ele>45.589726</ele>
        <time>2022-12-17T15:29:48.437Z</time>
      </trkpt>
      <trkpt lat="46.82273" lon="-1.97391">
        <ele>45.607707</ele>
        <time>2022-12-17T15:29:50.423Z</time>
      </trkpt>
      <trkpt lat="46.82271" lon="-1.97405">
        <ele>45.625518</ele>
        <time>2022-12-17T15:29:52.451Z</time>
      </trkpt>
      <trkpt lat="46.82267" lon="-1.97421">
        <ele>45.670768</ele>
        <time>2022-12-17T15:29:54.432Z</time>
      </trkpt>
      <trkpt lat="46.82264" lon="-1.97436">
        <ele>45.721266</ele>
        <time>2022-12-17T15:29:56.432Z</time>
      </trkpt>
      <trkpt lat="46.82262" lon="-1.9745">
        <ele>45.771775</ele>
        <time>2022-12-17T15:29:58.432Z</time>
      </trkpt>
      <trkpt lat="46.8226" lon="-1.97466">
        <ele>45.823784</ele>
        <time>2022-12-17T15:30:00.451Z</time>
      </trkpt>
      <trkpt lat="46.82257" lon="-1.97481">
        <ele>45.87595</ele>
        <time>2022-12-17T15:30:02.452Z</time>
      </trkpt>
      <trkpt lat="46.82254" lon="-1.97496">
        <ele>45.927767</ele>
        <time>2022-12-17T15:30:04.439Z</time>
      </trkpt>
      <trkpt lat="46.82251" lon="-1.97511">
        <ele>45.979263</ele>
        <time>2022-12-17T15:30:06.448Z</time>
      </trkpt>
      <trkpt lat="46.82249" lon="-1.97526">
        <ele>46.031055</ele>
        <time>2022-12-17T15:30:08.440Z</time>
      </trkpt>
      <trkpt lat="46.82246" lon="-1.97542">
        <ele>46.085047</ele>
        <time>2022-12-17T15:30:10.455Z</time>
      </trkpt>
      <trkpt lat="46.82244" lon="-1.97557">
        <ele>46.135982</ele>
        <time>2022-12-17T15:30:12.428Z</time>
      </trkpt>
      <trkpt lat="46.8224" lon="-1.97572">
        <ele>46.190537</ele>
        <time>2022-12-17T15:30:14.433Z</time>
      </trkpt>
      <trkpt lat="46.82236" lon="-1.97588">
        <ele>46.244895</ele>
        <time>2022-12-17T15:30:16.459Z</time>
      </trkpt>
      <trkpt lat="46.82233" lon="-1.97603">
        <ele>46.297286</ele>
        <time>2022-12-17T15:30:18.426Z</time>
      </trkpt>
      <trkpt lat="46.8223" lon="-1.97618">
        <ele>46.351477</ele>
        <time>2022-12-17T15:30:20.465Z</time>
      </trkpt>
      <trkpt lat="46.82227" lon="-1.97634">
        <ele>46.404595</ele>
        <time>2022-12-17T15:30:22.449Z</time>
      </trkpt>
      <trkpt lat="46.82224" lon="-1.97649">
        <ele>46.457179</ele>
        <time>2022-12-17T15:30:24.458Z</time>
      </trkpt>
      <trkpt lat="46.82222" lon="-1.97663">
        <ele>46.503722</ele>
        <time>2022-12-17T15:30:26.425Z</time>
      </trkpt>
      <trkpt lat="46.82219" lon="-1.97677">
        <ele>46.49644</ele>
        <time>2022-12-17T15:30:28.427Z</time>
      </trkpt>
      <trkpt lat="46.82216" lon="-1.97691">
        <ele>46.48952</ele>
        <time>2022-12-17T15:30:30.427Z</time>
      </trkpt>
      <trkpt lat="46.82213" lon="-1.97705">
        <ele>46.482474</ele>
        <time>2022-12-17T15:30:32.431Z</time>
      </trkpt>
      <trkpt lat="46.8221" lon="-1.97723">
        <ele>46.473417</ele>
        <time>2022-12-17T15:30:35.443Z</time>
      </trkpt>
      <trkpt lat="46.82207" lon="-1.97741">
        <ele>46.464583</ele>
        <time>2022-12-17T15:30:38.458Z</time>
      </trkpt>
      <trkpt lat="46.82204" lon="-1.97759">
        <ele>46.455582</ele>
        <time>2022-12-17T15:30:41.432Z</time>
      </trkpt>
      <trkpt lat="46.82201" lon="-1.97772">
        <ele>46.448868</ele>
        <time>2022-12-17T15:30:43.432Z</time>
      </trkpt>
      <trkpt lat="46.82198" lon="-1.97792">
        <ele>46.439251</ele>
        <time>2022-12-17T15:30:46.442Z</time>
      </trkpt>
      <trkpt lat="46.82195" lon="-1.97805">
        <ele>46.432279</ele>
        <time>2022-12-17T15:30:48.444Z</time>
      </trkpt>
      <trkpt lat="46.82192" lon="-1.9782">
        <ele>46.425111</ele>
        <time>2022-12-17T15:30:50.433Z</time>
      </trkpt>
      <trkpt lat="46.8219" lon="-1.97834">
        <ele>46.417859</ele>
        <time>2022-12-17T15:30:52.424Z</time>
      </trkpt>
      <trkpt lat="46.82186" lon="-1.97849">
        <ele>46.410554</ele>
        <time>2022-12-17T15:30:54.433Z</time>
      </trkpt>
      <trkpt lat="46.82184" lon="-1.97864">
        <ele>46.403136</ele>
        <time>2022-12-17T15:30:56.426Z</time>
      </trkpt>
      <trkpt lat="46.82182" lon="-1.97879">
        <ele>46.395763</ele>
        <time>2022-12-17T15:30:58.432Z</time>
      </trkpt>
      <trkpt lat="46.82179" lon="-1.97893">
        <ele>46.388288</ele>
        <time>2022-12-17T15:31:00.441Z</time>
      </trkpt>
      <trkpt lat="46.82176" lon="-1.97908">
        <ele>46.38086</ele>
        <time>2022-12-17T15:31:02.428Z</time>
      </trkpt>
      <trkpt lat="46.82173" lon="-1.97924">
        <ele>46.328249</ele>
        <time>2022-12-17T15:31:04.438Z</time>
      </trkpt>
      <trkpt lat="46.8217" lon="-1.97939">
        <ele>46.240635</ele>
        <time>2022-12-17T15:31:06.444Z</time>
      </trkpt>
      <trkpt lat="46.82168" lon="-1.97955">
        <ele>46.146978</ele>
        <time>2022-12-17T15:31:08.431Z</time>
      </trkpt>
      <trkpt lat="46.82164" lon="-1.9797">
        <ele>46.054003</ele>
        <time>2022-12-17T15:31:10.427Z</time>
      </trkpt>
      <trkpt lat="46.82161" lon="-1.97986">
        <ele>45.960285</ele>
        <time>2022-12-17T15:31:12.427Z</time>
      </trkpt>
      <trkpt lat="46.82158" lon="-1.98001">
        <ele>45.867123</ele>
        <time>2022-12-17T15:31:14.448Z</time>
      </trkpt>
      <trkpt lat="46.82154" lon="-1.98018">
        <ele>45.767866</ele>
        <time>2022-12-17T15:31:16.443Z</time>
      </trkpt>
      <trkpt lat="46.82152" lon="-1.98033">
        <ele>45.674572</ele>
        <time>2022-12-17T15:31:18.448Z</time>
      </trkpt>
      <trkpt lat="46.82149" lon="-1.98048">
        <ele>45.588299</ele>
        <time>2022-12-17T15:31:20.434Z</time>
      </trkpt>
      <trkpt lat="46.82147" lon="-1.98062">
        <ele>45.503642</ele>
        <time>2022-12-17T15:31:22.427Z</time>
      </trkpt>
      <trkpt lat="46.82144" lon="-1.98078">
        <ele>45.406581</ele>
        <time>2022-12-17T15:31:24.446Z</time>
      </trkpt>
      <trkpt lat="46.82141" lon="-1.98093">
        <ele>45.317681</ele>
        <time>2022-12-17T15:31:26.430Z</time>
      </trkpt>
      <trkpt lat="46.82137" lon="-1.98109">
        <ele>45.223825</ele>
        <time>2022-12-17T15:31:28.451Z</time>
      </trkpt>
      <trkpt lat="46.82134" lon="-1.98124">
        <ele>45.132101</ele>
        <time>2022-12-17T15:31:30.464Z</time>
      </trkpt>
      <trkpt lat="46.82132" lon="-1.9814">
        <ele>45.036367</ele>
        <time>2022-12-17T15:31:32.445Z</time>
      </trkpt>
      <trkpt lat="46.82129" lon="-1.98156">
        <ele>44.942425</ele>
        <time>2022-12-17T15:31:34.438Z</time>
      </trkpt>
      <trkpt lat="46.82125" lon="-1.98172">
        <ele>44.858743</ele>
        <time>2022-12-17T15:31:36.431Z</time>
      </trkpt>
      <trkpt lat="46.82123" lon="-1.98188">
        <ele>44.837167</ele>
        <time>2022-12-17T15:31:38.442Z</time>
      </trkpt>
      <trkpt lat="46.8212" lon="-1.98203">
        <ele>44.817139</ele>
        <time>2022-12-17T15:31:40.437Z</time>
      </trkpt>
      <trkpt lat="46.82118" lon="-1.98218">
        <ele>44.797488</ele>
        <time>2022-12-17T15:31:42.432Z</time>
      </trkpt>
      <trkpt lat="46.82117" lon="-1.98232">
        <ele>44.779667</ele>
        <time>2022-12-17T15:31:44.442Z</time>
      </trkpt>
      <trkpt lat="46.82114" lon="-1.98245">
        <ele>44.761395</ele>
        <time>2022-12-17T15:31:46.446Z</time>
      </trkpt>
      <trkpt lat="46.82111" lon="-1.98258">
        <ele>44.744414</ele>
        <time>2022-12-17T15:31:48.458Z</time>
      </trkpt>
      <trkpt lat="46.82109" lon="-1.98271">
        <ele>44.72731</ele>
        <time>2022-12-17T15:31:50.444Z</time>
      </trkpt>
      <trkpt lat="46.82105" lon="-1.98284">
        <ele>44.709098</ele>
        <time>2022-12-17T15:31:52.453Z</time>
      </trkpt>
      <trkpt lat="46.82102" lon="-1.98297">
        <ele>44.691508</ele>
        <time>2022-12-17T15:31:54.448Z</time>
      </trkpt>
      <trkpt lat="46.821" lon="-1.98311">
        <ele>44.673017</ele>
        <time>2022-12-17T15:31:56.438Z</time>
      </trkpt>
      <trkpt lat="46.82098" lon="-1.98325">
        <ele>44.654402</ele>
        <time>2022-12-17T15:31:58.433Z</time>
      </trkpt>
      <trkpt lat="46.82094" lon="-1.98339">
        <ele>44.635716</ele>
        <time>2022-12-17T15:32:00.459Z</time>
      </trkpt>
      <trkpt lat="46.82092" lon="-1.98353">
        <ele>44.617277</ele>
        <time>2022-12-17T15:32:02.431Z</time>
      </trkpt>
      <trkpt lat="46.8209" lon="-1.98367">
        <ele>44.597646</ele>
        <time>2022-12-17T15:32:04.436Z</time>
      </trkpt>
      <trkpt lat="46.82087" lon="-1.98382">
        <ele>44.578262</ele>
        <time>2022-12-17T15:32:06.468Z</time>
      </trkpt>
      <trkpt lat="46.82085" lon="-1.98396">
        <ele>44.559697</ele>
        <time>2022-12-17T15:32:08.431Z</time>
      </trkpt>
      <trkpt lat="46.82082" lon="-1.98411">
        <ele>44.539767</ele>
        <time>2022-12-17T15:32:10.431Z</time>
      </trkpt>
      <trkpt lat="46.82079" lon="-1.98426">
        <ele>44.521491</ele>
        <time>2022-12-17T15:32:12.430Z</time>
      </trkpt>
      <trkpt lat="46.82076" lon="-1.98441">
        <ele>44.510926</ele>
        <time>2022-12-17T15:32:14.436Z</time>
      </trkpt>
      <trkpt lat="46.82073" lon="-1.98457">
        <ele>44.500365</ele>
        <time>2022-12-17T15:32:16.439Z</time>
      </trkpt>
      <trkpt lat="46.82071" lon="-1.98472">
        <ele>44.489882</ele>
        <time>2022-12-17T15:32:18.436Z</time>
      </trkpt>
      <trkpt lat="46.82068" lon="-1.98487">
        <ele>44.479036</ele>
        <time>2022-12-17T15:32:20.449Z</time>
      </trkpt>
      <trkpt lat="46.82065" lon="-1.98503">
        <ele>44.46821</ele>
        <time>2022-12-17T15:32:22.447Z</time>
      </trkpt>
      <trkpt lat="46.82062" lon="-1.98517">
        <ele>44.458155</ele>
        <time>2022-12-17T15:32:24.457Z</time>
      </trkpt>
      <trkpt lat="46.82059" lon="-1.98532">
        <ele>44.447574</ele>
        <time>2022-12-17T15:32:26.438Z</time>
      </trkpt>
      <trkpt lat="46.82057" lon="-1.98545">
        <ele>44.43871</ele>
        <time>2022-12-17T15:32:28.448Z</time>
      </trkpt>
      <trkpt lat="46.82053" lon="-1.98558">
        <ele>44.429425</ele>
        <time>2022-12-17T15:32:30.465Z</time>
      </trkpt>
      <trkpt lat="46.82051" lon="-1.98571">
        <ele>44.420252</ele>
        <time>2022-12-17T15:32:32.448Z</time>
      </trkpt>
      <trkpt lat="46.82047" lon="-1.98589">
        <ele>44.407476</ele>
        <time>2022-12-17T15:32:35.435Z</time>
      </trkpt>
      <trkpt lat="46.82046" lon="-1.98602">
        <ele>44.398652</ele>
        <time>2022-12-17T15:32:37.439Z</time>
      </trkpt>
      <trkpt lat="46.82043" lon="-1.98616">
        <ele>44.389021</ele>
        <time>2022-12-17T15:32:39.452Z</time>
      </trkpt>
      <trkpt lat="46.8204" lon="-1.9863">
        <ele>44.379277</ele>
        <time>2022-12-17T15:32:41.445Z</time>
      </trkpt>
      <trkpt lat="46.82038" lon="-1.98643">
        <ele>44.370051</ele>
        <time>2022-12-17T15:32:43.450Z</time>
      </trkpt>
      <trkpt lat="46.82035" lon="-1.98657">
        <ele>44.360423</ele>
        <time>2022-12-17T15:32:45.446Z</time>
      </trkpt>
      <trkpt lat="46.82033" lon="-1.9867">
        <ele>44.351197</ele>
        <time>2022-12-17T15:32:47.440Z</time>
      </trkpt>
      <trkpt lat="46.82031" lon="-1.98684">
        <ele>44.360615</ele>
        <time>2022-12-17T15:32:49.442Z</time>
      </trkpt>
      <trkpt lat="46.82028" lon="-1.98697">
        <ele>44.381971</ele>
        <time>2022-12-17T15:32:51.444Z</time>
      </trkpt>
      <trkpt lat="46.82025" lon="-1.98716">
        <ele>44.412183</ele>
        <time>2022-12-17T15:32:54.434Z</time>
      </trkpt>
      <trkpt lat="46.82022" lon="-1.98734">
        <ele>44.441864</ele>
        <time>2022-12-17T15:32:57.438Z</time>
      </trkpt>
      <trkpt lat="46.82018" lon="-1.98753">
        <ele>44.472881</ele>
        <time>2022-12-17T15:33:00.428Z</time>
      </trkpt>
      <trkpt lat="46.82015" lon="-1.98766">
        <ele>44.494199</ele>
        <time>2022-12-17T15:33:02.456Z</time>
      </trkpt>
      <trkpt lat="46.82013" lon="-1.98779">
        <ele>44.515489</ele>
        <time>2022-12-17T15:33:04.435Z</time>
      </trkpt>
      <trkpt lat="46.82009" lon="-1.98798">
        <ele>44.546513</ele>
        <time>2022-12-17T15:33:07.457Z</time>
      </trkpt>
      <trkpt lat="46.82006" lon="-1.98812">
        <ele>44.56968</ele>
        <time>2022-12-17T15:33:09.437Z</time>
      </trkpt>
      <trkpt lat="46.82003" lon="-1.98832">
        <ele>44.60105</ele>
        <time>2022-12-17T15:33:12.437Z</time>
      </trkpt>
      <trkpt lat="46.81999" lon="-1.9885">
        <ele>44.631618</ele>
        <time>2022-12-17T15:33:15.441Z</time>
      </trkpt>
      <trkpt lat="46.81996" lon="-1.98868">
        <ele>44.660585</ele>
        <time>2022-12-17T15:33:18.432Z</time>
      </trkpt>
      <trkpt lat="46.81993" lon="-1.98884">
        <ele>44.687253</ele>
        <time>2022-12-17T15:33:21.437Z</time>
      </trkpt>
      <trkpt lat="46.81991" lon="-1.989">
        <ele>44.712453</ele>
        <time>2022-12-17T15:33:24.426Z</time>
      </trkpt>
      <trkpt lat="46.81988" lon="-1.98914">
        <ele>44.735444</ele>
        <time>2022-12-17T15:33:27.434Z</time>
      </trkpt>
      <trkpt lat="46.81987" lon="-1.98928">
        <ele>44.75764</ele>
        <time>2022-12-17T15:33:30.432Z</time>
      </trkpt>
      <trkpt lat="46.81985" lon="-1.98942">
        <ele>44.753203</ele>
        <time>2022-12-17T15:33:33.431Z</time>
      </trkpt>
      <trkpt lat="46.81985" lon="-1.98959">
        <ele>44.742365</ele>
        <time>2022-12-17T15:33:37.432Z</time>
      </trkpt>
      <trkpt lat="46.81984" lon="-1.98976">
        <ele>44.73178</ele>
        <time>2022-12-17T15:33:41.435Z</time>
      </trkpt>
      <trkpt lat="46.81979" lon="-1.98991">
        <ele>44.721127</ele>
        <time>2022-12-17T15:33:45.429Z</time>
      </trkpt>
      <trkpt lat="46.81976" lon="-1.99004">
        <ele>44.712507</ele>
        <time>2022-12-17T15:33:48.425Z</time>
      </trkpt>
      <trkpt lat="46.81972" lon="-1.99019">
        <ele>44.702702</ele>
        <time>2022-12-17T15:33:51.456Z</time>
      </trkpt>
      <trkpt lat="46.81968" lon="-1.99033">
        <ele>44.692843</ele>
        <time>2022-12-17T15:33:54.435Z</time>
      </trkpt>
      <trkpt lat="46.81965" lon="-1.99048">
        <ele>44.68295</ele>
        <time>2022-12-17T15:33:57.434Z</time>
      </trkpt>
      <trkpt lat="46.81961" lon="-1.99063">
        <ele>44.673369</ele>
        <time>2022-12-17T15:34:00.443Z</time>
      </trkpt>
      <trkpt lat="46.81957" lon="-1.99076">
        <ele>44.664064</ele>
        <time>2022-12-17T15:34:03.438Z</time>
      </trkpt>
      <trkpt lat="46.81953" lon="-1.99092">
        <ele>44.653958</ele>
        <time>2022-12-17T15:34:06.449Z</time>
      </trkpt>
      <trkpt lat="46.8195" lon="-1.99108">
        <ele>44.643195</ele>
        <time>2022-12-17T15:34:09.430Z</time>
      </trkpt>
      <trkpt lat="46.81947" lon="-1.99125">
        <ele>44.632371</ele>
        <time>2022-12-17T15:34:12.429Z</time>
      </trkpt>
      <trkpt lat="46.81943" lon="-1.9914">
        <ele>44.622174</ele>
        <time>2022-12-17T15:34:15.433Z</time>
      </trkpt>
      <trkpt lat="46.81941" lon="-1.99157">
        <ele>44.611591</ele>
        <time>2022-12-17T15:34:18.439Z</time>
      </trkpt>
      <trkpt lat="46.81937" lon="-1.99174">
        <ele>44.60008</ele>
        <time>2022-12-17T15:34:21.433Z</time>
      </trkpt>
      <trkpt lat="46.81934" lon="-1.99192">
        <ele>44.582997</ele>
        <time>2022-12-17T15:34:24.449Z</time>
      </trkpt>
      <trkpt lat="46.81931" lon="-1.99209">
        <ele>44.564282</ele>
        <time>2022-12-17T15:34:27.437Z</time>
      </trkpt>
      <trkpt lat="46.81928" lon="-1.99225">
        <ele>44.546259</ele>
        <time>2022-12-17T15:34:30.431Z</time>
      </trkpt>
      <trkpt lat="46.81925" lon="-1.99241">
        <ele>44.529316</ele>
        <time>2022-12-17T15:34:33.442Z</time>
      </trkpt>
      <trkpt lat="46.81923" lon="-1.99254">
        <ele>44.514007</ele>
        <time>2022-12-17T15:34:36.446Z</time>
      </trkpt>
      <trkpt lat="46.8192" lon="-1.9927">
        <ele>44.497104</ele>
        <time>2022-12-17T15:34:40.458Z</time>
      </trkpt>
      <trkpt lat="46.81918" lon="-1.99283">
        <ele>44.482497</ele>
        <time>2022-12-17T15:34:44.426Z</time>
      </trkpt>
      <trkpt lat="46.81918" lon="-1.99297">
        <ele>44.467584</ele>
        <time>2022-12-17T15:34:48.438Z</time>
      </trkpt>
      <trkpt lat="46.81915" lon="-1.99311">
        <ele>44.451796</ele>
        <time>2022-12-17T15:34:52.428Z</time>
      </trkpt>
      <trkpt lat="46.81906" lon="-1.99322">
        <ele>44.433357</ele>
        <time>2022-12-17T15:34:56.431Z</time>
      </trkpt>
      <trkpt lat="46.819" lon="-1.99333">
        <ele>44.418465</ele>
        <time>2022-12-17T15:34:59.424Z</time>
      </trkpt>
      <trkpt lat="46.81895" lon="-1.99345">
        <ele>44.403143</ele>
        <time>2022-12-17T15:35:02.442Z</time>
      </trkpt>
      <trkpt lat="46.8189" lon="-1.99359">
        <ele>44.386638</ele>
        <time>2022-12-17T15:35:05.429Z</time>
      </trkpt>
      <trkpt lat="46.81885" lon="-1.99372">
        <ele>44.370261</ele>
        <time>2022-12-17T15:35:08.447Z</time>
      </trkpt>
      <trkpt lat="46.81879" lon="-1.99384">
        <ele>44.353965</ele>
        <time>2022-12-17T15:35:11.440Z</time>
      </trkpt>
      <trkpt lat="46.81873" lon="-1.99396">
        <ele>44.338378</ele>
        <time>2022-12-17T15:35:14.431Z</time>
      </trkpt>
      <trkpt lat="46.81868" lon="-1.99408">
        <ele>44.323472</ele>
        <time>2022-12-17T15:35:17.447Z</time>
      </trkpt>
      <trkpt lat="46.81862" lon="-1.99423">
        <ele>44.248392</ele>
        <time>2022-12-17T15:35:21.428Z</time>
      </trkpt>
      <trkpt lat="46.81856" lon="-1.99437">
        <ele>44.1344</ele>
        <time>2022-12-17T15:35:24.444Z</time>
      </trkpt>
      <trkpt lat="46.81849" lon="-1.99452">
        <ele>44.004596</ele>
        <time>2022-12-17T15:35:27.425Z</time>
      </trkpt>
      <trkpt lat="46.81842" lon="-1.99467">
        <ele>43.874214</ele>
        <time>2022-12-17T15:35:30.446Z</time>
      </trkpt>
      <trkpt lat="46.81835" lon="-1.9948">
        <ele>43.757907</ele>
        <time>2022-12-17T15:35:33.428Z</time>
      </trkpt>
      <trkpt lat="46.8183" lon="-1.99493">
        <ele>43.648591</ele>
        <time>2022-12-17T15:35:36.444Z</time>
      </trkpt>
      <trkpt lat="46.81826" lon="-1.99507">
        <ele>43.540036</ele>
        <time>2022-12-17T15:35:39.430Z</time>
      </trkpt>
      <trkpt lat="46.81821" lon="-1.9952">
        <ele>43.435796</ele>
        <time>2022-12-17T15:35:42.440Z</time>
      </trkpt>
      <trkpt lat="46.81816" lon="-1.99533">
        <ele>43.332231</ele>
        <time>2022-12-17T15:35:45.440Z</time>
      </trkpt>
      <trkpt lat="46.81811" lon="-1.99544">
        <ele>43.238847</ele>
        <time>2022-12-17T15:35:48.453Z</time>
      </trkpt>
      <trkpt lat="46.81806" lon="-1.99559">
        <ele>43.118496</ele>
        <time>2022-12-17T15:35:52.451Z</time>
      </trkpt>
      <trkpt lat="46.81806" lon="-1.99575">
        <ele>43.005346</ele>
        <time>2022-12-17T15:35:57.428Z</time>
      </trkpt>
      <trkpt lat="46.8181" lon="-1.9959">
        <ele>42.889739</ele>
        <time>2022-12-17T15:36:01.434Z</time>
      </trkpt>
      <trkpt lat="46.81813" lon="-1.99605">
        <ele>42.778231</ele>
        <time>2022-12-17T15:36:04.429Z</time>
      </trkpt>
      <trkpt lat="46.81814" lon="-1.99621">
        <ele>42.661671</ele>
        <time>2022-12-17T15:36:07.432Z</time>
      </trkpt>
      <trkpt lat="46.8181" lon="-1.99637">
        <ele>42.544165</ele>
        <time>2022-12-17T15:36:10.430Z</time>
      </trkpt>
      <trkpt lat="46.81805" lon="-1.99653">
        <ele>42.451988</ele>
        <time>2022-12-17T15:36:13.446Z</time>
      </trkpt>
      <trkpt lat="46.81799" lon="-1.9967">
        <ele>42.488698</ele>
        <time>2022-12-17T15:36:16.425Z</time>
      </trkpt>
      <trkpt lat="46.81794" lon="-1.99687">
        <ele>42.525198</ele>
        <time>2022-12-17T15:36:19.440Z</time>
      </trkpt>
      <trkpt lat="46.81788" lon="-1.99703">
        <ele>42.560997</ele>
        <time>2022-12-17T15:36:22.436Z</time>
      </trkpt>
      <trkpt lat="46.81782" lon="-1.9972">
        <ele>42.597623</ele>
        <time>2022-12-17T15:36:25.458Z</time>
      </trkpt>
      <trkpt lat="46.81777" lon="-1.99736">
        <ele>42.632771</ele>
        <time>2022-12-17T15:36:28.439Z</time>
      </trkpt>
      <trkpt lat="46.81772" lon="-1.99753">
        <ele>42.668134</ele>
        <time>2022-12-17T15:36:31.447Z</time>
      </trkpt>
      <trkpt lat="46.81767" lon="-1.99769">
        <ele>42.70303</ele>
        <time>2022-12-17T15:36:34.441Z</time>
      </trkpt>
      <trkpt lat="46.81761" lon="-1.99785">
        <ele>42.738481</ele>
        <time>2022-12-17T15:36:37.446Z</time>
      </trkpt>
      <trkpt lat="46.81755" lon="-1.998">
        <ele>42.771482</ele>
        <time>2022-12-17T15:36:40.447Z</time>
      </trkpt>
      <trkpt lat="46.81749" lon="-1.99813">
        <ele>42.802597</ele>
        <time>2022-12-17T15:36:43.448Z</time>
      </trkpt>
      <trkpt lat="46.81743" lon="-1.99828">
        <ele>42.836793</ele>
        <time>2022-12-17T15:36:46.427Z</time>
      </trkpt>
      <trkpt lat="46.81737" lon="-1.99844">
        <ele>42.873252</ele>
        <time>2022-12-17T15:36:49.442Z</time>
      </trkpt>
      <trkpt lat="46.81731" lon="-1.99861">
        <ele>42.910832</ele>
        <time>2022-12-17T15:36:52.422Z</time>
      </trkpt>
      <trkpt lat="46.81724" lon="-1.99878">
        <ele>42.948048</ele>
        <time>2022-12-17T15:36:55.429Z</time>
      </trkpt>
      <trkpt lat="46.81719" lon="-1.99893">
        <ele>42.94948</ele>
        <time>2022-12-17T15:36:58.424Z</time>
      </trkpt>
      <trkpt lat="46.81715" lon="-1.99906">
        <ele>42.940176</ele>
        <time>2022-12-17T15:37:01.428Z</time>
      </trkpt>
      <trkpt lat="46.81709" lon="-1.99921">
        <ele>42.929649</ele>
        <time>2022-12-17T15:37:05.438Z</time>
      </trkpt>
      <trkpt lat="46.81703" lon="-1.99933">
        <ele>42.919994</ele>
        <time>2022-12-17T15:37:09.423Z</time>
      </trkpt>
      <trkpt lat="46.81695" lon="-1.99944">
        <ele>42.910008</ele>
        <time>2022-12-17T15:37:14.455Z</time>
      </trkpt>
      <trkpt lat="46.81687" lon="-1.99955">
        <ele>42.899738</ele>
        <time>2022-12-17T15:37:18.430Z</time>
      </trkpt>
      <trkpt lat="46.81679" lon="-1.99964">
        <ele>42.890786</ele>
        <time>2022-12-17T15:37:22.449Z</time>
      </trkpt>
      <trkpt lat="46.81668" lon="-1.99963">
        <ele>42.880307</ele>
        <time>2022-12-17T15:37:27.436Z</time>
      </trkpt>
      <trkpt lat="46.81657" lon="-1.99957">
        <ele>42.869547</ele>
        <time>2022-12-17T15:37:31.428Z</time>
      </trkpt>
      <trkpt lat="46.81647" lon="-1.99952">
        <ele>42.860212</ele>
        <time>2022-12-17T15:37:35.444Z</time>
      </trkpt>
      <trkpt lat="46.81639" lon="-1.9996">
        <ele>42.851498</ele>
        <time>2022-12-17T15:37:39.434Z</time>
      </trkpt>
      <trkpt lat="46.81634" lon="-1.99971">
        <ele>42.843244</ele>
        <time>2022-12-17T15:37:42.453Z</time>
      </trkpt>
      <trkpt lat="46.81629" lon="-1.99983">
        <ele>42.834359</ele>
        <time>2022-12-17T15:37:45.442Z</time>
      </trkpt>
      <trkpt lat="46.81623" lon="-1.99996">
        <ele>42.824393</ele>
        <time>2022-12-17T15:37:48.439Z</time>
      </trkpt>
      <trkpt lat="46.81617" lon="-2.00009">
        <ele>42.81427</ele>
        <time>2022-12-17T15:37:51.429Z</time>
      </trkpt>
      <trkpt lat="46.8161" lon="-2.00024">
        <ele>42.803262</ele>
        <time>2022-12-17T15:37:54.426Z</time>
      </trkpt>
      <trkpt lat="46.81604" lon="-2.0004">
        <ele>42.790405</ele>
        <time>2022-12-17T15:37:57.445Z</time>
      </trkpt>
      <trkpt lat="46.81597" lon="-2.00056">
        <ele>42.738323</ele>
        <time>2022-12-17T15:38:00.426Z</time>
      </trkpt>
      <trkpt lat="46.81592" lon="-2.00068">
        <ele>42.701387</ele>
        <time>2022-12-17T15:38:02.428Z</time>
      </trkpt>
      <trkpt lat="46.81586" lon="-2.0008">
        <ele>42.662761</ele>
        <time>2022-12-17T15:38:04.429Z</time>
      </trkpt>
      <trkpt lat="46.81581" lon="-2.00092">
        <ele>42.623464</ele>
        <time>2022-12-17T15:38:06.429Z</time>
      </trkpt>
      <trkpt lat="46.81576" lon="-2.00104">
        <ele>42.585249</ele>
        <time>2022-12-17T15:38:08.452Z</time>
      </trkpt>
      <trkpt lat="46.81571" lon="-2.00116">
        <ele>42.546545</ele>
        <time>2022-12-17T15:38:10.433Z</time>
      </trkpt>
      <trkpt lat="46.81566" lon="-2.00128">
        <ele>42.510275</ele>
        <time>2022-12-17T15:38:12.440Z</time>
      </trkpt>
      <trkpt lat="46.81561" lon="-2.0014">
        <ele>42.472672</ele>
        <time>2022-12-17T15:38:14.442Z</time>
      </trkpt>
      <trkpt lat="46.81557" lon="-2.00151">
        <ele>42.436869</ele>
        <time>2022-12-17T15:38:16.445Z</time>
      </trkpt>
      <trkpt lat="46.81552" lon="-2.00164">
        <ele>42.39633</ele>
        <time>2022-12-17T15:38:18.442Z</time>
      </trkpt>
      <trkpt lat="46.81546" lon="-2.00177">
        <ele>42.355473</ele>
        <time>2022-12-17T15:38:20.428Z</time>
      </trkpt>
      <trkpt lat="46.81541" lon="-2.00189">
        <ele>42.315939</ele>
        <time>2022-12-17T15:38:22.430Z</time>
      </trkpt>
      <trkpt lat="46.81535" lon="-2.00203">
        <ele>42.272735</ele>
        <time>2022-12-17T15:38:24.442Z</time>
      </trkpt>
      <trkpt lat="46.8153" lon="-2.00215">
        <ele>42.233641</ele>
        <time>2022-12-17T15:38:26.428Z</time>
      </trkpt>
      <trkpt lat="46.81525" lon="-2.00226">
        <ele>42.197403</ele>
        <time>2022-12-17T15:38:28.430Z</time>
      </trkpt>
      <trkpt lat="46.81518" lon="-2.00243">
        <ele>42.143932</ele>
        <time>2022-12-17T15:38:31.423Z</time>
      </trkpt>
      <trkpt lat="46.81511" lon="-2.0026">
        <ele>42.090973</ele>
        <time>2022-12-17T15:38:34.427Z</time>
      </trkpt>
      <trkpt lat="46.81506" lon="-2.00271">
        <ele>42.110275</ele>
        <time>2022-12-17T15:38:36.431Z</time>
      </trkpt>
      <trkpt lat="46.81501" lon="-2.00283">
        <ele>42.153035</ele>
        <time>2022-12-17T15:38:38.438Z</time>
      </trkpt>
      <trkpt lat="46.81496" lon="-2.00295">
        <ele>42.197851</ele>
        <time>2022-12-17T15:38:40.435Z</time>
      </trkpt>
      <trkpt lat="46.81491" lon="-2.00308">
        <ele>42.243456</ele>
        <time>2022-12-17T15:38:42.445Z</time>
      </trkpt>
      <trkpt lat="46.81485" lon="-2.0032">
        <ele>42.289827</ele>
        <time>2022-12-17T15:38:44.434Z</time>
      </trkpt>
      <trkpt lat="46.81479" lon="-2.00333">
        <ele>42.339242</ele>
        <time>2022-12-17T15:38:46.428Z</time>
      </trkpt>
      <trkpt lat="46.81473" lon="-2.00347">
        <ele>42.388415</ele>
        <time>2022-12-17T15:38:48.442Z</time>
      </trkpt>
      <trkpt lat="46.81468" lon="-2.00359">
        <ele>42.434048</ele>
        <time>2022-12-17T15:38:50.431Z</time>
      </trkpt>
      <trkpt lat="46.81462" lon="-2.00373">
        <ele>42.485541</ele>
        <time>2022-12-17T15:38:52.430Z</time>
      </trkpt>
      <trkpt lat="46.81456" lon="-2.00387">
        <ele>42.535481</ele>
        <time>2022-12-17T15:38:54.435Z</time>
      </trkpt>
      <trkpt lat="46.8145" lon="-2.00401">
        <ele>42.584741</ele>
        <time>2022-12-17T15:38:56.433Z</time>
      </trkpt>
      <trkpt lat="46.81445" lon="-2.00414">
        <ele>42.632683</ele>
        <time>2022-12-17T15:38:58.429Z</time>
      </trkpt>
      <trkpt lat="46.8144" lon="-2.00426">
        <ele>42.676211</ele>
        <time>2022-12-17T15:39:00.434Z</time>
      </trkpt>
      <trkpt lat="46.81433" lon="-2.00443">
        <ele>42.738275</ele>
        <time>2022-12-17T15:39:03.438Z</time>
      </trkpt>
      <trkpt lat="46.81428" lon="-2.00456">
        <ele>42.783984</ele>
        <time>2022-12-17T15:39:05.441Z</time>
      </trkpt>
      <trkpt lat="46.81423" lon="-2.00468">
        <ele>42.828785</ele>
        <time>2022-12-17T15:39:07.445Z</time>
      </trkpt>
      <trkpt lat="46.81417" lon="-2.0048">
        <ele>42.874107</ele>
        <time>2022-12-17T15:39:09.439Z</time>
      </trkpt>
      <trkpt lat="46.81412" lon="-2.00494">
        <ele>42.894804</ele>
        <time>2022-12-17T15:39:11.434Z</time>
      </trkpt>
      <trkpt lat="46.81407" lon="-2.00507">
        <ele>42.892866</ele>
        <time>2022-12-17T15:39:13.429Z</time>
      </trkpt>
      <trkpt lat="46.81401" lon="-2.00519">
        <ele>42.890984</ele>
        <time>2022-12-17T15:39:15.429Z</time>
      </trkpt>
      <trkpt lat="46.81397" lon="-2.00532">
        <ele>42.889158</ele>
        <time>2022-12-17T15:39:17.434Z</time>
      </trkpt>
      <trkpt lat="46.81391" lon="-2.00545">
        <ele>42.887242</ele>
        <time>2022-12-17T15:39:19.434Z</time>
      </trkpt>
      <trkpt lat="46.81385" lon="-2.00559">
        <ele>42.88517</ele>
        <time>2022-12-17T15:39:21.441Z</time>
      </trkpt>
      <trkpt lat="46.8138" lon="-2.00572">
        <ele>42.8832</ele>
        <time>2022-12-17T15:39:23.440Z</time>
      </trkpt>
      <trkpt lat="46.81375" lon="-2.00585">
        <ele>42.88125</ele>
        <time>2022-12-17T15:39:25.433Z</time>
      </trkpt>
      <trkpt lat="46.81369" lon="-2.00597">
        <ele>42.879504</ele>
        <time>2022-12-17T15:39:27.437Z</time>
      </trkpt>
      <trkpt lat="46.81364" lon="-2.00608">
        <ele>42.877768</ele>
        <time>2022-12-17T15:39:29.438Z</time>
      </trkpt>
      <trkpt lat="46.81358" lon="-2.0062">
        <ele>42.875969</ele>
        <time>2022-12-17T15:39:31.440Z</time>
      </trkpt>
      <trkpt lat="46.81354" lon="-2.00631">
        <ele>42.874262</ele>
        <time>2022-12-17T15:39:33.447Z</time>
      </trkpt>
      <trkpt lat="46.81348" lon="-2.00644">
        <ele>42.872369</ele>
        <time>2022-12-17T15:39:35.431Z</time>
      </trkpt>
      <trkpt lat="46.81343" lon="-2.00656">
        <ele>42.870555</ele>
        <time>2022-12-17T15:39:37.442Z</time>
      </trkpt>
      <trkpt lat="46.81338" lon="-2.00669">
        <ele>42.868703</ele>
        <time>2022-12-17T15:39:39.452Z</time>
      </trkpt>
      <trkpt lat="46.81333" lon="-2.0068">
        <ele>42.866991</ele>
        <time>2022-12-17T15:39:41.437Z</time>
      </trkpt>
      <trkpt lat="46.81327" lon="-2.00697">
        <ele>42.864566</ele>
        <time>2022-12-17T15:39:44.435Z</time>
      </trkpt>
      <trkpt lat="46.81322" lon="-2.00709">
        <ele>42.86284</ele>
        <time>2022-12-17T15:39:46.457Z</time>
      </trkpt>
      <trkpt lat="46.81314" lon="-2.00725">
        <ele>42.738129</ele>
        <time>2022-12-17T15:39:49.438Z</time>
      </trkpt>
      <trkpt lat="46.81309" lon="-2.00737">
        <ele>42.638437</ele>
        <time>2022-12-17T15:39:51.457Z</time>
      </trkpt>
      <trkpt lat="46.81305" lon="-2.0075">
        <ele>42.537656</ele>
        <time>2022-12-17T15:39:53.427Z</time>
      </trkpt>
      <trkpt lat="46.813" lon="-2.00764">
        <ele>42.43066</ele>
        <time>2022-12-17T15:39:55.442Z</time>
      </trkpt>
      <trkpt lat="46.81295" lon="-2.00776">
        <ele>42.326437</ele>
        <time>2022-12-17T15:39:57.437Z</time>
      </trkpt>
      <trkpt lat="46.81289" lon="-2.00789">
        <ele>42.21879</ele>
        <time>2022-12-17T15:39:59.433Z</time>
      </trkpt>
      <trkpt lat="46.81283" lon="-2.00803">
        <ele>42.103646</ele>
        <time>2022-12-17T15:40:01.442Z</time>
      </trkpt>
      <trkpt lat="46.81277" lon="-2.00817">
        <ele>41.988916</ele>
        <time>2022-12-17T15:40:03.435Z</time>
      </trkpt>
      <trkpt lat="46.81271" lon="-2.0083">
        <ele>41.878774</ele>
        <time>2022-12-17T15:40:05.450Z</time>
      </trkpt>
      <trkpt lat="46.81265" lon="-2.00844">
        <ele>41.768247</ele>
        <time>2022-12-17T15:40:07.438Z</time>
      </trkpt>
      <trkpt lat="46.8126" lon="-2.00858">
        <ele>41.651625</ele>
        <time>2022-12-17T15:40:09.444Z</time>
      </trkpt>
      <trkpt lat="46.81254" lon="-2.00872">
        <ele>41.532899</ele>
        <time>2022-12-17T15:40:11.456Z</time>
      </trkpt>
      <trkpt lat="46.81248" lon="-2.00887">
        <ele>41.414709</ele>
        <time>2022-12-17T15:40:13.454Z</time>
      </trkpt>
      <trkpt lat="46.81242" lon="-2.009">
        <ele>41.307021</ele>
        <time>2022-12-17T15:40:15.441Z</time>
      </trkpt>
      <trkpt lat="46.81237" lon="-2.00913">
        <ele>41.19981</ele>
        <time>2022-12-17T15:40:17.442Z</time>
      </trkpt>
      <trkpt lat="46.81231" lon="-2.00926">
        <ele>41.094447</ele>
        <time>2022-12-17T15:40:19.437Z</time>
      </trkpt>
      <trkpt lat="46.81226" lon="-2.00938">
        <ele>41.009058</ele>
        <time>2022-12-17T15:40:21.455Z</time>
      </trkpt>
      <trkpt lat="46.81221" lon="-2.0095">
        <ele>40.969057</ele>
        <time>2022-12-17T15:40:23.441Z</time>
      </trkpt>
      <trkpt lat="46.81215" lon="-2.00963">
        <ele>40.928585</ele>
        <time>2022-12-17T15:40:25.436Z</time>
      </trkpt>
      <trkpt lat="46.8121" lon="-2.00976">
        <ele>40.886991</ele>
        <time>2022-12-17T15:40:27.433Z</time>
      </trkpt>
      <trkpt lat="46.81205" lon="-2.00989">
        <ele>40.844953</ele>
        <time>2022-12-17T15:40:29.441Z</time>
      </trkpt>
      <trkpt lat="46.81199" lon="-2.01002">
        <ele>40.801942</ele>
        <time>2022-12-17T15:40:31.433Z</time>
      </trkpt>
      <trkpt lat="46.81194" lon="-2.01016">
        <ele>40.759199</ele>
        <time>2022-12-17T15:40:33.441Z</time>
      </trkpt>
      <trkpt lat="46.81187" lon="-2.01029">
        <ele>40.715615</ele>
        <time>2022-12-17T15:40:35.431Z</time>
      </trkpt>
      <trkpt lat="46.81181" lon="-2.01043">
        <ele>40.669747</ele>
        <time>2022-12-17T15:40:37.437Z</time>
      </trkpt>
      <trkpt lat="46.81176" lon="-2.01056">
        <ele>40.627728</ele>
        <time>2022-12-17T15:40:39.439Z</time>
      </trkpt>
      <trkpt lat="46.81171" lon="-2.01068">
        <ele>40.588062</ele>
        <time>2022-12-17T15:40:41.439Z</time>
      </trkpt>
      <trkpt lat="46.81166" lon="-2.0108">
        <ele>40.550541</ele>
        <time>2022-12-17T15:40:43.430Z</time>
      </trkpt>
      <trkpt lat="46.81159" lon="-2.01096">
        <ele>40.49986</ele>
        <time>2022-12-17T15:40:46.431Z</time>
      </trkpt>
      <trkpt lat="46.81155" lon="-2.01107">
        <ele>40.462102</ele>
        <time>2022-12-17T15:40:48.462Z</time>
      </trkpt>
      <trkpt lat="46.81147" lon="-2.01125">
        <ele>40.405937</ele>
        <time>2022-12-17T15:40:51.443Z</time>
      </trkpt>
      <trkpt lat="46.81142" lon="-2.01138">
        <ele>40.363326</ele>
        <time>2022-12-17T15:40:53.435Z</time>
      </trkpt>
      <trkpt lat="46.81137" lon="-2.01151">
        <ele>40.32269</ele>
        <time>2022-12-17T15:40:55.433Z</time>
      </trkpt>
      <trkpt lat="46.81131" lon="-2.01163">
        <ele>40.326659</ele>
        <time>2022-12-17T15:40:57.437Z</time>
      </trkpt>
      <trkpt lat="46.81126" lon="-2.01176">
        <ele>40.41548</ele>
        <time>2022-12-17T15:40:59.434Z</time>
      </trkpt>
      <trkpt lat="46.8112" lon="-2.0119">
        <ele>40.506066</ele>
        <time>2022-12-17T15:41:01.442Z</time>
      </trkpt>
      <trkpt lat="46.81114" lon="-2.01203">
        <ele>40.593727</ele>
        <time>2022-12-17T15:41:03.449Z</time>
      </trkpt>
      <trkpt lat="46.81109" lon="-2.01217">
        <ele>40.686903</ele>
        <time>2022-12-17T15:41:05.432Z</time>
      </trkpt>
      <trkpt lat="46.81103" lon="-2.0123">
        <ele>40.774745</ele>
        <time>2022-12-17T15:41:07.427Z</time>
      </trkpt>
      <trkpt lat="46.81098" lon="-2.01243">
        <ele>40.859451</ele>
        <time>2022-12-17T15:41:09.445Z</time>
      </trkpt>
      <trkpt lat="46.81093" lon="-2.01255">
        <ele>40.9401</ele>
        <time>2022-12-17T15:41:11.433Z</time>
      </trkpt>
      <trkpt lat="46.81088" lon="-2.01267">
        <ele>41.019374</ele>
        <time>2022-12-17T15:41:13.436Z</time>
      </trkpt>
      <trkpt lat="46.81083" lon="-2.01279">
        <ele>41.099237</ele>
        <time>2022-12-17T15:41:15.456Z</time>
      </trkpt>
      <trkpt lat="46.81078" lon="-2.01291">
        <ele>41.180989</ele>
        <time>2022-12-17T15:41:17.429Z</time>
      </trkpt>
      <trkpt lat="46.81073" lon="-2.01304">
        <ele>41.265436</ele>
        <time>2022-12-17T15:41:19.443Z</time>
      </trkpt>
      <trkpt lat="46.81067" lon="-2.01317">
        <ele>41.351878</ele>
        <time>2022-12-17T15:41:21.439Z</time>
      </trkpt>
      <trkpt lat="46.81062" lon="-2.0133">
        <ele>41.436089</ele>
        <time>2022-12-17T15:41:23.430Z</time>
      </trkpt>
      <trkpt lat="46.81057" lon="-2.01344">
        <ele>41.524495</ele>
        <time>2022-12-17T15:41:25.428Z</time>
      </trkpt>
      <trkpt lat="46.81052" lon="-2.01356">
        <ele>41.607479</ele>
        <time>2022-12-17T15:41:27.435Z</time>
      </trkpt>
      <trkpt lat="46.81046" lon="-2.01369">
        <ele>41.692521</ele>
        <time>2022-12-17T15:41:29.439Z</time>
      </trkpt>
      <trkpt lat="46.81041" lon="-2.01381">
        <ele>41.775128</ele>
        <time>2022-12-17T15:41:31.433Z</time>
      </trkpt>
      <trkpt lat="46.81035" lon="-2.01396">
        <ele>41.745299</ele>
        <time>2022-12-17T15:41:34.432Z</time>
      </trkpt>
      <trkpt lat="46.81028" lon="-2.01411">
        <ele>41.690162</ele>
        <time>2022-12-17T15:41:37.442Z</time>
      </trkpt>
      <trkpt lat="46.81021" lon="-2.01427">
        <ele>41.634964</ele>
        <time>2022-12-17T15:41:40.433Z</time>
      </trkpt>
      <trkpt lat="46.81015" lon="-2.01443">
        <ele>41.577538</ele>
        <time>2022-12-17T15:41:43.440Z</time>
      </trkpt>
      <trkpt lat="46.81009" lon="-2.01456">
        <ele>41.53146</ele>
        <time>2022-12-17T15:41:45.429Z</time>
      </trkpt>
      <trkpt lat="46.81005" lon="-2.01468">
        <ele>41.490649</ele>
        <time>2022-12-17T15:41:47.431Z</time>
      </trkpt>
      <trkpt lat="46.81" lon="-2.01479">
        <ele>41.450896</ele>
        <time>2022-12-17T15:41:49.429Z</time>
      </trkpt>
      <trkpt lat="46.80995" lon="-2.01491">
        <ele>41.408602</ele>
        <time>2022-12-17T15:41:51.429Z</time>
      </trkpt>
      <trkpt lat="46.80988" lon="-2.01508">
        <ele>41.349498</ele>
        <time>2022-12-17T15:41:54.439Z</time>
      </trkpt>
      <trkpt lat="46.80982" lon="-2.01519">
        <ele>41.308517</ele>
        <time>2022-12-17T15:41:56.429Z</time>
      </trkpt>
      <trkpt lat="46.80975" lon="-2.01536">
        <ele>41.2478</ele>
        <time>2022-12-17T15:41:59.436Z</time>
      </trkpt>
      <trkpt lat="46.8097" lon="-2.01548">
        <ele>41.205506</ele>
        <time>2022-12-17T15:42:01.431Z</time>
      </trkpt>
      <trkpt lat="46.80965" lon="-2.01561">
        <ele>41.160272</ele>
        <time>2022-12-17T15:42:03.446Z</time>
      </trkpt>
      <trkpt lat="46.8096" lon="-2.01574">
        <ele>41.115235</ele>
        <time>2022-12-17T15:42:05.433Z</time>
      </trkpt>
      <trkpt lat="46.80955" lon="-2.01587">
        <ele>41.070973</ele>
        <time>2022-12-17T15:42:07.432Z</time>
      </trkpt>
      <trkpt lat="46.80949" lon="-2.01599">
        <ele>41.027453</ele>
        <time>2022-12-17T15:42:09.439Z</time>
      </trkpt>
      <trkpt lat="46.80944" lon="-2.01612">
        <ele>41.025582</ele>
        <time>2022-12-17T15:42:11.426Z</time>
      </trkpt>
      <trkpt lat="46.80937" lon="-2.01629">
        <ele>41.115601</ele>
        <time>2022-12-17T15:42:14.450Z</time>
      </trkpt>
      <trkpt lat="46.80932" lon="-2.01641">
        <ele>41.180407</ele>
        <time>2022-12-17T15:42:16.427Z</time>
      </trkpt>
      <trkpt lat="46.80925" lon="-2.01656">
        <ele>41.263551</ele>
        <time>2022-12-17T15:42:19.438Z</time>
      </trkpt>
      <trkpt lat="46.8092" lon="-2.0167">
        <ele>41.338943</ele>
        <time>2022-12-17T15:42:22.433Z</time>
      </trkpt>
      <trkpt lat="46.80914" lon="-2.01684">
        <ele>41.414278</ele>
        <time>2022-12-17T15:42:25.438Z</time>
      </trkpt>
      <trkpt lat="46.80907" lon="-2.01698">
        <ele>41.491788</ele>
        <time>2022-12-17T15:42:28.442Z</time>
      </trkpt>
      <trkpt lat="46.80901" lon="-2.01714">
        <ele>41.577383</ele>
        <time>2022-12-17T15:42:31.451Z</time>
      </trkpt>
      <trkpt lat="46.80894" lon="-2.0173">
        <ele>41.667516</ele>
        <time>2022-12-17T15:42:34.432Z</time>
      </trkpt>
      <trkpt lat="46.80889" lon="-2.01742">
        <ele>41.729926</ele>
        <time>2022-12-17T15:42:36.453Z</time>
      </trkpt>
      <trkpt lat="46.80884" lon="-2.01753">
        <ele>41.791499</ele>
        <time>2022-12-17T15:42:38.441Z</time>
      </trkpt>
      <trkpt lat="46.80879" lon="-2.01766">
        <ele>41.857227</ele>
        <time>2022-12-17T15:42:40.436Z</time>
      </trkpt>
      <trkpt lat="46.80874" lon="-2.01777">
        <ele>41.919128</ele>
        <time>2022-12-17T15:42:42.461Z</time>
      </trkpt>
      <trkpt lat="46.80869" lon="-2.01789">
        <ele>41.983533</ele>
        <time>2022-12-17T15:42:44.442Z</time>
      </trkpt>
      <trkpt lat="46.80864" lon="-2.01801">
        <ele>42.050738</ele>
        <time>2022-12-17T15:42:46.439Z</time>
      </trkpt>
      <trkpt lat="46.80859" lon="-2.01813">
        <ele>42.114282</ele>
        <time>2022-12-17T15:42:48.468Z</time>
      </trkpt>
      <trkpt lat="46.80852" lon="-2.0183">
        <ele>42.205899</ele>
        <time>2022-12-17T15:42:51.439Z</time>
      </trkpt>
      <trkpt lat="46.80847" lon="-2.01846">
        <ele>42.130427</ele>
        <time>2022-12-17T15:42:54.438Z</time>
      </trkpt>
      <trkpt lat="46.80844" lon="-2.0186">
        <ele>42.06294</ele>
        <time>2022-12-17T15:42:57.439Z</time>
      </trkpt>
      <trkpt lat="46.80843" lon="-2.01874">
        <ele>41.99952</ele>
        <time>2022-12-17T15:43:00.437Z</time>
      </trkpt>
      <trkpt lat="46.80846" lon="-2.01887">
        <ele>41.935036</ele>
        <time>2022-12-17T15:43:03.442Z</time>
      </trkpt>
      <trkpt lat="46.80842" lon="-2.01904">
        <ele>41.857681</ele>
        <time>2022-12-17T15:43:07.439Z</time>
      </trkpt>
      <trkpt lat="46.80834" lon="-2.01908">
        <ele>41.797336</ele>
        <time>2022-12-17T15:43:10.436Z</time>
      </trkpt>
      <trkpt lat="46.80823" lon="-2.01915">
        <ele>41.720494</ele>
        <time>2022-12-17T15:43:14.442Z</time>
      </trkpt>
      <trkpt lat="46.80816" lon="-2.01929">
        <ele>41.643303</ele>
        <time>2022-12-17T15:43:18.443Z</time>
      </trkpt>
      <trkpt lat="46.80809" lon="-2.01945">
        <ele>41.555618</ele>
        <time>2022-12-17T15:43:21.463Z</time>
      </trkpt>
      <trkpt lat="46.80803" lon="-2.01956">
        <ele>41.487745</ele>
        <time>2022-12-17T15:43:23.444Z</time>
      </trkpt>
      <trkpt lat="46.80798" lon="-2.01968">
        <ele>41.42483</ele>
        <time>2022-12-17T15:43:25.441Z</time>
      </trkpt>
      <trkpt lat="46.80792" lon="-2.01981">
        <ele>41.355195</ele>
        <time>2022-12-17T15:43:27.436Z</time>
      </trkpt>
      <trkpt lat="46.80787" lon="-2.01993">
        <ele>41.289732</ele>
        <time>2022-12-17T15:43:29.443Z</time>
      </trkpt>
      <trkpt lat="46.80782" lon="-2.02005">
        <ele>41.224615</ele>
        <time>2022-12-17T15:43:31.435Z</time>
      </trkpt>
      <trkpt lat="46.80778" lon="-2.02017">
        <ele>41.164748</ele>
        <time>2022-12-17T15:43:33.427Z</time>
      </trkpt>
      <trkpt lat="46.80772" lon="-2.02027">
        <ele>41.103837</ele>
        <time>2022-12-17T15:43:35.437Z</time>
      </trkpt>
      <trkpt lat="46.80764" lon="-2.02041">
        <ele>41.01961</ele>
        <time>2022-12-17T15:43:38.455Z</time>
      </trkpt>
      <trkpt lat="46.80758" lon="-2.02054">
        <ele>40.998615</ele>
        <time>2022-12-17T15:43:41.451Z</time>
      </trkpt>
      <trkpt lat="46.80753" lon="-2.02067">
        <ele>40.990205</ele>
        <time>2022-12-17T15:43:44.437Z</time>
      </trkpt>
      <trkpt lat="46.80746" lon="-2.02083">
        <ele>40.980589</ele>
        <time>2022-12-17T15:43:47.450Z</time>
      </trkpt>
      <trkpt lat="46.80741" lon="-2.02095">
        <ele>40.973043</ele>
        <time>2022-12-17T15:43:49.442Z</time>
      </trkpt>
      <trkpt lat="46.80735" lon="-2.02108">
        <ele>40.965212</ele>
        <time>2022-12-17T15:43:51.446Z</time>
      </trkpt>
      <trkpt lat="46.8073" lon="-2.02121">
        <ele>40.957158</ele>
        <time>2022-12-17T15:43:53.446Z</time>
      </trkpt>
      <trkpt lat="46.80725" lon="-2.02133">
        <ele>40.949669</ele>
        <time>2022-12-17T15:43:55.441Z</time>
      </trkpt>
      <trkpt lat="46.8072" lon="-2.02145">
        <ele>40.942375</ele>
        <time>2022-12-17T15:43:57.438Z</time>
      </trkpt>
      <trkpt lat="46.80715" lon="-2.02157">
        <ele>40.934544</ele>
        <time>2022-12-17T15:43:59.441Z</time>
      </trkpt>
      <trkpt lat="46.8071" lon="-2.0217">
        <ele>40.92697</ele>
        <time>2022-12-17T15:44:01.463Z</time>
      </trkpt>
      <trkpt lat="46.80704" lon="-2.02182">
        <ele>40.919229</ele>
        <time>2022-12-17T15:44:03.439Z</time>
      </trkpt>
      <trkpt lat="46.80699" lon="-2.02193">
        <ele>40.912265</ele>
        <time>2022-12-17T15:44:05.433Z</time>
      </trkpt>
      <trkpt lat="46.80694" lon="-2.02206">
        <ele>40.904589</ele>
        <time>2022-12-17T15:44:07.431Z</time>
      </trkpt>
      <trkpt lat="46.80688" lon="-2.02218">
        <ele>40.896631</ele>
        <time>2022-12-17T15:44:09.448Z</time>
      </trkpt>
      <trkpt lat="46.80683" lon="-2.02231">
        <ele>40.888689</ele>
        <time>2022-12-17T15:44:11.432Z</time>
      </trkpt>
      <trkpt lat="46.80678" lon="-2.02244">
        <ele>40.880708</ele>
        <time>2022-12-17T15:44:13.441Z</time>
      </trkpt>
      <trkpt lat="46.80672" lon="-2.02258">
        <ele>40.872349</ele>
        <time>2022-12-17T15:44:15.442Z</time>
      </trkpt>
      <trkpt lat="46.80667" lon="-2.02271">
        <ele>40.855172</ele>
        <time>2022-12-17T15:44:17.433Z</time>
      </trkpt>
      <trkpt lat="46.80662" lon="-2.02284">
        <ele>40.819867</ele>
        <time>2022-12-17T15:44:19.435Z</time>
      </trkpt>
      <trkpt lat="46.80655" lon="-2.023">
        <ele>40.772955</ele>
        <time>2022-12-17T15:44:22.432Z</time>
      </trkpt>
      <trkpt lat="46.8065" lon="-2.02316">
        <ele>40.727038</ele>
        <time>2022-12-17T15:44:25.429Z</time>
      </trkpt>
      <trkpt lat="46.80645" lon="-2.02328">
        <ele>40.694164</ele>
        <time>2022-12-17T15:44:27.431Z</time>
      </trkpt>
      <trkpt lat="46.8064" lon="-2.0234">
        <ele>40.660631</ele>
        <time>2022-12-17T15:44:29.440Z</time>
      </trkpt>
      <trkpt lat="46.80635" lon="-2.02351">
        <ele>40.627322</ele>
        <time>2022-12-17T15:44:31.465Z</time>
      </trkpt>
      <trkpt lat="46.80631" lon="-2.02362">
        <ele>40.593999</ele>
        <time>2022-12-17T15:44:33.433Z</time>
      </trkpt>
      <trkpt lat="46.80623" lon="-2.02379">
        <ele>40.545155</ele>
        <time>2022-12-17T15:44:36.439Z</time>
      </trkpt>
      <trkpt lat="46.80617" lon="-2.02391">
        <ele>40.508587</ele>
        <time>2022-12-17T15:44:38.439Z</time>
      </trkpt>
      <trkpt lat="46.80611" lon="-2.02408">
        <ele>40.459689</ele>
        <time>2022-12-17T15:44:41.434Z</time>
      </trkpt>
      <trkpt lat="46.80604" lon="-2.02425">
        <ele>40.410244</ele>
        <time>2022-12-17T15:44:44.432Z</time>
      </trkpt>
      <trkpt lat="46.80598" lon="-2.02437">
        <ele>40.375098</ele>
        <time>2022-12-17T15:44:46.463Z</time>
      </trkpt>
      <trkpt lat="46.80593" lon="-2.02449">
        <ele>40.340149</ele>
        <time>2022-12-17T15:44:48.445Z</time>
      </trkpt>
      <trkpt lat="46.80588" lon="-2.02462">
        <ele>40.303302</ele>
        <time>2022-12-17T15:44:50.440Z</time>
      </trkpt>
      <trkpt lat="46.80583" lon="-2.02474">
        <ele>40.268525</ele>
        <time>2022-12-17T15:44:52.450Z</time>
      </trkpt>
      <trkpt lat="46.80578" lon="-2.02485">
        <ele>40.235552</ele>
        <time>2022-12-17T15:44:54.443Z</time>
      </trkpt>
      <trkpt lat="46.80573" lon="-2.02497">
        <ele>40.240644</ele>
        <time>2022-12-17T15:44:56.444Z</time>
      </trkpt>
      <trkpt lat="46.80568" lon="-2.02508">
        <ele>40.29275</ele>
        <time>2022-12-17T15:44:58.442Z</time>
      </trkpt>
      <trkpt lat="46.80564" lon="-2.0252">
        <ele>40.346983</ele>
        <time>2022-12-17T15:45:00.460Z</time>
      </trkpt>
      <trkpt lat="46.80559" lon="-2.02532">
        <ele>40.401331</ele>
        <time>2022-12-17T15:45:02.429Z</time>
      </trkpt>
      <trkpt lat="46.80553" lon="-2.02544">
        <ele>40.456326</ele>
        <time>2022-12-17T15:45:04.448Z</time>
      </trkpt>
      <trkpt lat="46.80548" lon="-2.02556">
        <ele>40.512104</ele>
        <time>2022-12-17T15:45:06.449Z</time>
      </trkpt>
      <trkpt lat="46.80543" lon="-2.02568">
        <ele>40.572306</ele>
        <time>2022-12-17T15:45:08.434Z</time>
      </trkpt>
      <trkpt lat="46.80537" lon="-2.02582">
        <ele>40.634016</ele>
        <time>2022-12-17T15:45:10.429Z</time>
      </trkpt>
      <trkpt lat="46.80532" lon="-2.02594">
        <ele>40.689162</ele>
        <time>2022-12-17T15:45:12.439Z</time>
      </trkpt>
      <trkpt lat="46.80528" lon="-2.02606">
        <ele>40.744022</ele>
        <time>2022-12-17T15:45:14.443Z</time>
      </trkpt>
      <trkpt lat="46.80521" lon="-2.0262">
        <ele>40.808776</ele>
        <time>2022-12-17T15:45:17.444Z</time>
      </trkpt>
      <trkpt lat="46.80516" lon="-2.02632">
        <ele>40.86443</ele>
        <time>2022-12-17T15:45:20.449Z</time>
      </trkpt>
      <trkpt lat="46.80511" lon="-2.02644">
        <ele>40.921981</ele>
        <time>2022-12-17T15:45:23.435Z</time>
      </trkpt>
      <trkpt lat="46.80506" lon="-2.02659">
        <ele>40.985758</ele>
        <time>2022-12-17T15:45:26.435Z</time>
      </trkpt>
      <trkpt lat="46.805" lon="-2.02673">
        <ele>41.053791</ele>
        <time>2022-12-17T15:45:29.433Z</time>
      </trkpt>
      <trkpt lat="46.80493" lon="-2.02688">
        <ele>41.124497</ele>
        <time>2022-12-17T15:45:32.436Z</time>
      </trkpt>
      <trkpt lat="46.80488" lon="-2.02704">
        <ele>41.192912</ele>
        <time>2022-12-17T15:45:35.433Z</time>
      </trkpt>
      <trkpt lat="46.80481" lon="-2.02719">
        <ele>41.258747</ele>
        <time>2022-12-17T15:45:38.431Z</time>
      </trkpt>
      <trkpt lat="46.80475" lon="-2.02735">
        <ele>41.30264</ele>
        <time>2022-12-17T15:45:41.432Z</time>
      </trkpt>
      <trkpt lat="46.80468" lon="-2.0275">
        <ele>41.345733</ele>
        <time>2022-12-17T15:45:44.445Z</time>
      </trkpt>
      <trkpt lat="46.80461" lon="-2.02765">
        <ele>41.389225</ele>
        <time>2022-12-17T15:45:47.431Z</time>
      </trkpt>
      <trkpt lat="46.80455" lon="-2.02779">
        <ele>41.428966</ele>
        <time>2022-12-17T15:45:50.440Z</time>
      </trkpt>
      <trkpt lat="46.80448" lon="-2.02794">
        <ele>41.472069</ele>
        <time>2022-12-17T15:45:53.429Z</time>
      </trkpt>
      <trkpt lat="46.80444" lon="-2.02806">
        <ele>41.504538</ele>
        <time>2022-12-17T15:45:56.459Z</time>
      </trkpt>
      <trkpt lat="46.80439" lon="-2.02819">
        <ele>41.539189</ele>
        <time>2022-12-17T15:45:59.427Z</time>
      </trkpt>
      <trkpt lat="46.80433" lon="-2.02833">
        <ele>41.579178</ele>
        <time>2022-12-17T15:46:02.426Z</time>
      </trkpt>
      <trkpt lat="46.80426" lon="-2.02848">
        <ele>41.622067</ele>
        <time>2022-12-17T15:46:05.435Z</time>
      </trkpt>
      <trkpt lat="46.80419" lon="-2.02864">
        <ele>41.66819</ele>
        <time>2022-12-17T15:46:08.441Z</time>
      </trkpt>
      <trkpt lat="46.80414" lon="-2.02876">
        <ele>41.69968</ele>
        <time>2022-12-17T15:46:10.432Z</time>
      </trkpt>
      <trkpt lat="46.80407" lon="-2.02892">
        <ele>41.745154</ele>
        <time>2022-12-17T15:46:13.459Z</time>
      </trkpt>
      <trkpt lat="46.80401" lon="-2.02906">
        <ele>41.786301</ele>
        <time>2022-12-17T15:46:16.434Z</time>
      </trkpt>
      <trkpt lat="46.80396" lon="-2.02919">
        <ele>41.822406</ele>
        <time>2022-12-17T15:46:19.438Z</time>
      </trkpt>
      <trkpt lat="46.8039" lon="-2.02933">
        <ele>41.861989</ele>
        <time>2022-12-17T15:46:22.431Z</time>
      </trkpt>
      <trkpt lat="46.80383" lon="-2.02949">
        <ele>41.835061</ele>
        <time>2022-12-17T15:46:25.446Z</time>
      </trkpt>
      <trkpt lat="46.80377" lon="-2.02965">
        <ele>41.764827</ele>
        <time>2022-12-17T15:46:28.435Z</time>
      </trkpt>
      <trkpt lat="46.8037" lon="-2.0298">
        <ele>41.69639</ele>
        <time>2022-12-17T15:46:31.442Z</time>
      </trkpt>
      <trkpt lat="46.80364" lon="-2.02995">
        <ele>41.635216</ele>
        <time>2022-12-17T15:46:34.447Z</time>
      </trkpt>
      <trkpt lat="46.80358" lon="-2.03008">
        <ele>41.574839</ele>
        <time>2022-12-17T15:46:37.437Z</time>
      </trkpt>
      <trkpt lat="46.80352" lon="-2.03023">
        <ele>41.50911</ele>
        <time>2022-12-17T15:46:40.463Z</time>
      </trkpt>
      <trkpt lat="46.80345" lon="-2.03039">
        <ele>41.437246</ele>
        <time>2022-12-17T15:46:43.467Z</time>
      </trkpt>
      <trkpt lat="46.80338" lon="-2.03054">
        <ele>41.368116</ele>
        <time>2022-12-17T15:46:46.468Z</time>
      </trkpt>
      <trkpt lat="46.80331" lon="-2.03071">
        <ele>41.295005</ele>
        <time>2022-12-17T15:46:49.437Z</time>
      </trkpt>
      <trkpt lat="46.80325" lon="-2.03084">
        <ele>41.236492</ele>
        <time>2022-12-17T15:46:52.435Z</time>
      </trkpt>
      <trkpt lat="46.8032" lon="-2.03097">
        <ele>41.180337</ele>
        <time>2022-12-17T15:46:55.436Z</time>
      </trkpt>
      <trkpt lat="46.80315" lon="-2.0311">
        <ele>41.120142</ele>
        <time>2022-12-17T15:46:58.435Z</time>
      </trkpt>
      <trkpt lat="46.80308" lon="-2.03126">
        <ele>41.051676</ele>
        <time>2022-12-17T15:47:01.440Z</time>
      </trkpt>
      <trkpt lat="46.80303" lon="-2.03137">
        <ele>41.002184</ele>
        <time>2022-12-17T15:47:03.443Z</time>
      </trkpt>
      <trkpt lat="46.80297" lon="-2.03149">
        <ele>40.94584</ele>
        <time>2022-12-17T15:47:05.437Z</time>
      </trkpt>
      <trkpt lat="46.80293" lon="-2.0316">
        <ele>40.896113</ele>
        <time>2022-12-17T15:47:07.430Z</time>
      </trkpt>
      <trkpt lat="46.80288" lon="-2.03172">
        <ele>40.873316</ele>
        <time>2022-12-17T15:47:09.440Z</time>
      </trkpt>
      <trkpt lat="46.80283" lon="-2.03184">
        <ele>40.855818</ele>
        <time>2022-12-17T15:47:11.425Z</time>
      </trkpt>
      <trkpt lat="46.80276" lon="-2.032">
        <ele>40.831223</ele>
        <time>2022-12-17T15:47:14.431Z</time>
      </trkpt>
      <trkpt lat="46.80272" lon="-2.03212">
        <ele>40.813866</ele>
        <time>2022-12-17T15:47:16.446Z</time>
      </trkpt>
      <trkpt lat="46.80267" lon="-2.03223">
        <ele>40.79693</ele>
        <time>2022-12-17T15:47:18.456Z</time>
      </trkpt>
      <trkpt lat="46.8026" lon="-2.03239">
        <ele>40.771913</ele>
        <time>2022-12-17T15:47:21.434Z</time>
      </trkpt>
      <trkpt lat="46.80253" lon="-2.03255">
        <ele>40.747914</ele>
        <time>2022-12-17T15:47:24.441Z</time>
      </trkpt>
      <trkpt lat="46.80248" lon="-2.03268">
        <ele>40.728217</ele>
        <time>2022-12-17T15:47:26.449Z</time>
      </trkpt>
      <trkpt lat="46.80242" lon="-2.0328">
        <ele>40.709368</ele>
        <time>2022-12-17T15:47:28.438Z</time>
      </trkpt>
      <trkpt lat="46.80235" lon="-2.03296">
        <ele>40.685223</ele>
        <time>2022-12-17T15:47:31.430Z</time>
      </trkpt>
      <trkpt lat="46.8023" lon="-2.03311">
        <ele>40.662776</ele>
        <time>2022-12-17T15:47:34.462Z</time>
      </trkpt>
      <trkpt lat="46.80225" lon="-2.03323">
        <ele>40.645484</ele>
        <time>2022-12-17T15:47:36.434Z</time>
      </trkpt>
      <trkpt lat="46.80218" lon="-2.0334">
        <ele>40.619906</ele>
        <time>2022-12-17T15:47:39.444Z</time>
      </trkpt>
      <trkpt lat="46.80211" lon="-2.03356">
        <ele>40.595573</ele>
        <time>2022-12-17T15:47:42.434Z</time>
      </trkpt>
      <trkpt lat="46.80206" lon="-2.03368">
        <ele>40.577049</ele>
        <time>2022-12-17T15:47:44.434Z</time>
      </trkpt>
      <trkpt lat="46.80201" lon="-2.0338">
        <ele>40.559122</ele>
        <time>2022-12-17T15:47:46.445Z</time>
      </trkpt>
      <trkpt lat="46.80197" lon="-2.03391">
        <ele>40.541561</ele>
        <time>2022-12-17T15:47:48.437Z</time>
      </trkpt>
      <trkpt lat="46.80191" lon="-2.03404">
        <ele>40.521534</ele>
        <time>2022-12-17T15:47:50.437Z</time>
      </trkpt>
      <trkpt lat="46.80186" lon="-2.03416">
        <ele>40.502379</ele>
        <time>2022-12-17T15:47:52.435Z</time>
      </trkpt>
      <trkpt lat="46.80181" lon="-2.03429">
        <ele>40.481428</ele>
        <time>2022-12-17T15:47:54.442Z</time>
      </trkpt>
      <trkpt lat="46.80175" lon="-2.03441">
        <ele>40.46128</ele>
        <time>2022-12-17T15:47:56.431Z</time>
      </trkpt>
      <trkpt lat="46.8017" lon="-2.03454">
        <ele>40.44069</ele>
        <time>2022-12-17T15:47:58.432Z</time>
      </trkpt>
      <trkpt lat="46.80164" lon="-2.03467">
        <ele>40.41905</ele>
        <time>2022-12-17T15:48:00.434Z</time>
      </trkpt>
      <trkpt lat="46.80159" lon="-2.03481">
        <ele>40.397694</ele>
        <time>2022-12-17T15:48:02.445Z</time>
      </trkpt>
      <trkpt lat="46.80153" lon="-2.03494">
        <ele>40.376425</ele>
        <time>2022-12-17T15:48:04.444Z</time>
      </trkpt>
      <trkpt lat="46.80148" lon="-2.03507">
        <ele>40.354652</ele>
        <time>2022-12-17T15:48:06.437Z</time>
      </trkpt>
      <trkpt lat="46.80143" lon="-2.0352">
        <ele>40.334567</ele>
        <time>2022-12-17T15:48:08.454Z</time>
      </trkpt>
      <trkpt lat="46.80135" lon="-2.03536">
        <ele>40.307756</ele>
        <time>2022-12-17T15:48:11.439Z</time>
      </trkpt>
      <trkpt lat="46.80128" lon="-2.0355">
        <ele>40.284338</ele>
        <time>2022-12-17T15:48:14.462Z</time>
      </trkpt>
      <trkpt lat="46.80123" lon="-2.03564">
        <ele>40.26258</ele>
        <time>2022-12-17T15:48:17.440Z</time>
      </trkpt>
      <trkpt lat="46.80116" lon="-2.03579">
        <ele>40.238337</ele>
        <time>2022-12-17T15:48:20.456Z</time>
      </trkpt>
      <trkpt lat="46.80109" lon="-2.03596">
        <ele>40.211036</ele>
        <time>2022-12-17T15:48:23.447Z</time>
      </trkpt>
      <trkpt lat="46.80103" lon="-2.03613">
        <ele>40.200211</ele>
        <time>2022-12-17T15:48:26.455Z</time>
      </trkpt>
      <trkpt lat="46.80097" lon="-2.03626">
        <ele>40.250917</ele>
        <time>2022-12-17T15:48:28.459Z</time>
      </trkpt>
      <trkpt lat="46.80092" lon="-2.03638">
        <ele>40.297045</ele>
        <time>2022-12-17T15:48:30.439Z</time>
      </trkpt>
      <trkpt lat="46.80087" lon="-2.03651">
        <ele>40.347244</ele>
        <time>2022-12-17T15:48:32.438Z</time>
      </trkpt>
      <trkpt lat="46.80081" lon="-2.03663">
        <ele>40.397374</ele>
        <time>2022-12-17T15:48:34.437Z</time>
      </trkpt>
      <trkpt lat="46.80076" lon="-2.03675">
        <ele>40.44464</ele>
        <time>2022-12-17T15:48:36.443Z</time>
      </trkpt>
      <trkpt lat="46.80069" lon="-2.03691">
        <ele>40.506346</ele>
        <time>2022-12-17T15:48:39.439Z</time>
      </trkpt>
      <trkpt lat="46.80062" lon="-2.03708">
        <ele>40.569644</ele>
        <time>2022-12-17T15:48:42.459Z</time>
      </trkpt>
      <trkpt lat="46.80055" lon="-2.03724">
        <ele>40.635024</ele>
        <time>2022-12-17T15:48:45.445Z</time>
      </trkpt>
      <trkpt lat="46.80048" lon="-2.03742">
        <ele>40.701506</ele>
        <time>2022-12-17T15:48:48.462Z</time>
      </trkpt>
      <trkpt lat="46.80042" lon="-2.03753">
        <ele>40.749572</ele>
        <time>2022-12-17T15:48:50.431Z</time>
      </trkpt>
      <trkpt lat="46.80037" lon="-2.03765">
        <ele>40.793589</ele>
        <time>2022-12-17T15:48:52.431Z</time>
      </trkpt>
      <trkpt lat="46.80033" lon="-2.03777">
        <ele>40.839112</ele>
        <time>2022-12-17T15:48:54.456Z</time>
      </trkpt>
      <trkpt lat="46.80028" lon="-2.03789">
        <ele>40.886907</ele>
        <time>2022-12-17T15:48:56.435Z</time>
      </trkpt>
      <trkpt lat="46.80023" lon="-2.03801">
        <ele>40.933284</ele>
        <time>2022-12-17T15:48:58.435Z</time>
      </trkpt>
      <trkpt lat="46.80018" lon="-2.03813">
        <ele>40.979354</ele>
        <time>2022-12-17T15:49:00.434Z</time>
      </trkpt>
      <trkpt lat="46.80012" lon="-2.03825">
        <ele>41.027029</ele>
        <time>2022-12-17T15:49:02.439Z</time>
      </trkpt>
      <trkpt lat="46.80006" lon="-2.03842">
        <ele>41.025648</ele>
        <time>2022-12-17T15:49:05.444Z</time>
      </trkpt>
      <trkpt lat="46.79999" lon="-2.03858">
        <ele>40.970991</ele>
        <time>2022-12-17T15:49:08.466Z</time>
      </trkpt>
      <trkpt lat="46.79992" lon="-2.03872">
        <ele>40.918168</ele>
        <time>2022-12-17T15:49:11.432Z</time>
      </trkpt>
      <trkpt lat="46.79986" lon="-2.03886">
        <ele>40.868488</ele>
        <time>2022-12-17T15:49:14.437Z</time>
      </trkpt>
      <trkpt lat="46.7998" lon="-2.03899">
        <ele>40.822291</ele>
        <time>2022-12-17T15:49:17.441Z</time>
      </trkpt>
      <trkpt lat="46.79974" lon="-2.03913">
        <ele>40.773116</ele>
        <time>2022-12-17T15:49:20.435Z</time>
      </trkpt>
      <trkpt lat="46.79969" lon="-2.03927">
        <ele>40.724585</ele>
        <time>2022-12-17T15:49:23.429Z</time>
      </trkpt>
      <trkpt lat="46.79964" lon="-2.0394">
        <ele>40.681292</ele>
        <time>2022-12-17T15:49:26.443Z</time>
      </trkpt>
      <trkpt lat="46.79958" lon="-2.03953">
        <ele>40.636723</ele>
        <time>2022-12-17T15:49:29.450Z</time>
      </trkpt>
      <trkpt lat="46.79953" lon="-2.03967">
        <ele>40.586426</ele>
        <time>2022-12-17T15:49:32.467Z</time>
      </trkpt>
      <trkpt lat="46.79947" lon="-2.03982">
        <ele>40.536646</ele>
        <time>2022-12-17T15:49:35.439Z</time>
      </trkpt>
      <trkpt lat="46.79941" lon="-2.03996">
        <ele>40.487192</ele>
        <time>2022-12-17T15:49:38.433Z</time>
      </trkpt>
      <trkpt lat="46.79936" lon="-2.04009">
        <ele>40.442488</ele>
        <time>2022-12-17T15:49:41.434Z</time>
      </trkpt>
      <trkpt lat="46.7993" lon="-2.04023">
        <ele>40.393096</ele>
        <time>2022-12-17T15:49:44.436Z</time>
      </trkpt>
      <trkpt lat="46.79924" lon="-2.04037">
        <ele>40.344656</ele>
        <time>2022-12-17T15:49:47.438Z</time>
      </trkpt>
      <trkpt lat="46.79919" lon="-2.04048">
        <ele>40.305084</ele>
        <time>2022-12-17T15:49:50.436Z</time>
      </trkpt>
      <trkpt lat="46.79912" lon="-2.04064">
        <ele>40.271959</ele>
        <time>2022-12-17T15:50:11.442Z</time>
      </trkpt>
      <trkpt lat="46.79906" lon="-2.04079">
        <ele>40.267568</ele>
        <time>2022-12-17T15:50:15.439Z</time>
      </trkpt>
      <trkpt lat="46.799" lon="-2.04093">
        <ele>40.263664</ele>
        <time>2022-12-17T15:50:18.451Z</time>
      </trkpt>
      <trkpt lat="46.79894" lon="-2.04107">
        <ele>40.259489</ele>
        <time>2022-12-17T15:50:21.437Z</time>
      </trkpt>
      <trkpt lat="46.79888" lon="-2.04123">
        <ele>40.254933</ele>
        <time>2022-12-17T15:50:24.433Z</time>
      </trkpt>
      <trkpt lat="46.79881" lon="-2.04139">
        <ele>40.250192</ele>
        <time>2022-12-17T15:50:27.431Z</time>
      </trkpt>
      <trkpt lat="46.79874" lon="-2.04156">
        <ele>40.245248</ele>
        <time>2022-12-17T15:50:30.432Z</time>
      </trkpt>
      <trkpt lat="46.7987" lon="-2.04169">
        <ele>40.241682</ele>
        <time>2022-12-17T15:50:32.456Z</time>
      </trkpt>
      <trkpt lat="46.79865" lon="-2.0418">
        <ele>40.238295</ele>
        <time>2022-12-17T15:50:34.432Z</time>
      </trkpt>
      <trkpt lat="46.7986" lon="-2.04192">
        <ele>40.234895</ele>
        <time>2022-12-17T15:50:36.434Z</time>
      </trkpt>
      <trkpt lat="46.79853" lon="-2.04208">
        <ele>40.230006</ele>
        <time>2022-12-17T15:50:39.436Z</time>
      </trkpt>
      <trkpt lat="46.79846" lon="-2.04224">
        <ele>40.225449</ele>
        <time>2022-12-17T15:50:42.434Z</time>
      </trkpt>
      <trkpt lat="46.7984" lon="-2.04237">
        <ele>40.22149</ele>
        <time>2022-12-17T15:50:45.436Z</time>
      </trkpt>
      <trkpt lat="46.79834" lon="-2.0425">
        <ele>40.217508</ele>
        <time>2022-12-17T15:50:48.431Z</time>
      </trkpt>
      <trkpt lat="46.79829" lon="-2.04263">
        <ele>40.21373</ele>
        <time>2022-12-17T15:50:51.436Z</time>
      </trkpt>
      <trkpt lat="46.79823" lon="-2.04275">
        <ele>40.210269</ele>
        <time>2022-12-17T15:50:54.431Z</time>
      </trkpt>
      <trkpt lat="46.79818" lon="-2.04287">
        <ele>40.240564</ele>
        <time>2022-12-17T15:50:57.443Z</time>
      </trkpt>
      <trkpt lat="46.79812" lon="-2.04302">
        <ele>40.302842</ele>
        <time>2022-12-17T15:51:00.440Z</time>
      </trkpt>
      <trkpt lat="46.79806" lon="-2.04317">
        <ele>40.371264</ele>
        <time>2022-12-17T15:51:03.436Z</time>
      </trkpt>
      <trkpt lat="46.79799" lon="-2.04334">
        <ele>40.443461</ele>
        <time>2022-12-17T15:51:06.437Z</time>
      </trkpt>
      <trkpt lat="46.79792" lon="-2.0435">
        <ele>40.517184</ele>
        <time>2022-12-17T15:51:09.442Z</time>
      </trkpt>
      <trkpt lat="46.79786" lon="-2.04362">
        <ele>40.572228</ele>
        <time>2022-12-17T15:51:11.440Z</time>
      </trkpt>
      <trkpt lat="46.79781" lon="-2.04374">
        <ele>40.623633</ele>
        <time>2022-12-17T15:51:13.447Z</time>
      </trkpt>
      <trkpt lat="46.79777" lon="-2.04386">
        <ele>40.675197</ele>
        <time>2022-12-17T15:51:15.440Z</time>
      </trkpt>
      <trkpt lat="46.79769" lon="-2.04401">
        <ele>40.74579</ele>
        <time>2022-12-17T15:51:18.438Z</time>
      </trkpt>
      <trkpt lat="46.79763" lon="-2.04417">
        <ele>40.814937</ele>
        <time>2022-12-17T15:51:21.433Z</time>
      </trkpt>
      <trkpt lat="46.79757" lon="-2.04432">
        <ele>40.878832</ele>
        <time>2022-12-17T15:51:24.448Z</time>
      </trkpt>
      <trkpt lat="46.79751" lon="-2.04446">
        <ele>40.940825</ele>
        <time>2022-12-17T15:51:27.447Z</time>
      </trkpt>
      <trkpt lat="46.79745" lon="-2.04461">
        <ele>41.008859</ele>
        <time>2022-12-17T15:51:30.437Z</time>
      </trkpt>
      <trkpt lat="46.79739" lon="-2.04477">
        <ele>41.077041</ele>
        <time>2022-12-17T15:51:33.438Z</time>
      </trkpt>
      <trkpt lat="46.79733" lon="-2.04492">
        <ele>41.142514</ele>
        <time>2022-12-17T15:51:36.435Z</time>
      </trkpt>
      <trkpt lat="46.79727" lon="-2.04505">
        <ele>41.199187</ele>
        <time>2022-12-17T15:51:39.449Z</time>
      </trkpt>
      <trkpt lat="46.79721" lon="-2.04517">
        <ele>41.213091</ele>
        <time>2022-12-17T15:51:42.434Z</time>
      </trkpt>
      <trkpt lat="46.79716" lon="-2.0453">
        <ele>41.227998</ele>
        <time>2022-12-17T15:51:45.434Z</time>
      </trkpt>
      <trkpt lat="46.7971" lon="-2.04545">
        <ele>41.24405</ele>
        <time>2022-12-17T15:51:48.435Z</time>
      </trkpt>
      <trkpt lat="46.79704" lon="-2.04559">
        <ele>41.260357</ele>
        <time>2022-12-17T15:51:51.448Z</time>
      </trkpt>
      <trkpt lat="46.797" lon="-2.04573">
        <ele>41.274868</ele>
        <time>2022-12-17T15:51:54.461Z</time>
      </trkpt>
      <trkpt lat="46.797" lon="-2.04587">
        <ele>41.287704</ele>
        <time>2022-12-17T15:51:57.439Z</time>
      </trkpt>
      <trkpt lat="46.79703" lon="-2.046">
        <ele>41.301391</ele>
        <time>2022-12-17T15:52:00.451Z</time>
      </trkpt>
      <trkpt lat="46.79706" lon="-2.04614">
        <ele>41.315564</ele>
        <time>2022-12-17T15:52:03.449Z</time>
      </trkpt>
      <trkpt lat="46.7971" lon="-2.04628">
        <ele>41.329977</ele>
        <time>2022-12-17T15:52:06.444Z</time>
      </trkpt>
      <trkpt lat="46.79712" lon="-2.04642">
        <ele>41.343383</ele>
        <time>2022-12-17T15:52:09.464Z</time>
      </trkpt>
      <trkpt lat="46.79714" lon="-2.04657">
        <ele>41.358328</ele>
        <time>2022-12-17T15:52:13.439Z</time>
      </trkpt>
      <trkpt lat="46.79714" lon="-2.04672">
        <ele>41.372779</ele>
        <time>2022-12-17T15:52:17.438Z</time>
      </trkpt>
      <trkpt lat="46.79711" lon="-2.04685">
        <ele>41.385757</ele>
        <time>2022-12-17T15:52:21.444Z</time>
      </trkpt>
      <trkpt lat="46.79704" lon="-2.04693">
        <ele>41.398966</ele>
        <time>2022-12-17T15:52:26.447Z</time>
      </trkpt>
      <trkpt lat="46.79697" lon="-2.04704">
        <ele>41.413061</ele>
        <time>2022-12-17T15:52:31.441Z</time>
      </trkpt>
      <trkpt lat="46.79686" lon="-2.04708">
        <ele>41.428306</ele>
        <time>2022-12-17T15:52:35.436Z</time>
      </trkpt>
      <trkpt lat="46.79676" lon="-2.0471">
        <ele>41.441975</ele>
        <time>2022-12-17T15:52:38.435Z</time>
      </trkpt>
      <trkpt lat="46.79667" lon="-2.04713">
        <ele>41.487174</ele>
        <time>2022-12-17T15:52:41.434Z</time>
      </trkpt>
      <trkpt lat="46.79656" lon="-2.04718">
        <ele>41.611236</ele>
        <time>2022-12-17T15:52:45.432Z</time>
      </trkpt>
      <trkpt lat="46.79647" lon="-2.04725">
        <ele>41.715882</ele>
        <time>2022-12-17T15:52:48.434Z</time>
      </trkpt>
      <trkpt lat="46.79641" lon="-2.04736">
        <ele>41.817874</ele>
        <time>2022-12-17T15:52:51.431Z</time>
      </trkpt>
      <trkpt lat="46.79634" lon="-2.04748">
        <ele>41.93725</ele>
        <time>2022-12-17T15:52:54.433Z</time>
      </trkpt>
      <trkpt lat="46.79628" lon="-2.04762">
        <ele>42.052792</ele>
        <time>2022-12-17T15:52:57.435Z</time>
      </trkpt>
      <trkpt lat="46.79622" lon="-2.04775">
        <ele>42.166808</ele>
        <time>2022-12-17T15:53:00.455Z</time>
      </trkpt>
      <trkpt lat="46.79617" lon="-2.0479">
        <ele>42.285031</ele>
        <time>2022-12-17T15:53:03.432Z</time>
      </trkpt>
      <trkpt lat="46.79612" lon="-2.04805">
        <ele>42.403421</ele>
        <time>2022-12-17T15:53:06.446Z</time>
      </trkpt>
      <trkpt lat="46.79609" lon="-2.04817">
        <ele>42.501537</ele>
        <time>2022-12-17T15:53:09.438Z</time>
      </trkpt>
      <trkpt lat="46.79601" lon="-2.04825">
        <ele>42.610827</ele>
        <time>2022-12-17T15:53:14.441Z</time>
      </trkpt>
      <trkpt lat="46.79591" lon="-2.04822">
        <ele>42.713073</ele>
        <time>2022-12-17T15:53:20.441Z</time>
      </trkpt>
      <trkpt lat="46.79585" lon="-2.04836">
        <ele>42.835179</ele>
        <time>2022-12-17T15:53:25.446Z</time>
      </trkpt>
      <trkpt lat="46.79585" lon="-2.0485">
        <ele>42.933083</ele>
        <time>2022-12-17T15:53:28.455Z</time>
      </trkpt>
      <trkpt lat="46.79585" lon="-2.04866">
        <ele>43.051298</ele>
        <time>2022-12-17T15:53:32.435Z</time>
      </trkpt>
      <trkpt lat="46.79578" lon="-2.04878">
        <ele>43.161919</ele>
        <time>2022-12-17T15:53:36.447Z</time>
      </trkpt>
      <trkpt lat="46.79567" lon="-2.0488">
        <ele>43.28718</ele>
        <time>2022-12-17T15:53:40.463Z</time>
      </trkpt>
      <trkpt lat="46.79557" lon="-2.04872">
        <ele>43.352594</ele>
        <time>2022-12-17T15:53:44.433Z</time>
      </trkpt>
      <trkpt lat="46.79546" lon="-2.04874">
        <ele>43.345739</ele>
        <time>2022-12-17T15:53:47.455Z</time>
      </trkpt>
      <trkpt lat="46.79538" lon="-2.0488">
        <ele>43.339822</ele>
        <time>2022-12-17T15:53:49.438Z</time>
      </trkpt>
      <trkpt lat="46.79529" lon="-2.04886">
        <ele>43.333656</ele>
        <time>2022-12-17T15:53:51.453Z</time>
      </trkpt>
      <trkpt lat="46.79521" lon="-2.04891">
        <ele>43.327562</ele>
        <time>2022-12-17T15:53:53.448Z</time>
      </trkpt>
      <trkpt lat="46.79509" lon="-2.04899">
        <ele>43.319082</ele>
        <time>2022-12-17T15:53:56.475Z</time>
      </trkpt>
      <trkpt lat="46.79497" lon="-2.04905">
        <ele>43.311181</ele>
        <time>2022-12-17T15:53:59.442Z</time>
      </trkpt>
      <trkpt lat="46.79486" lon="-2.0491">
        <ele>43.303979</ele>
        <time>2022-12-17T15:54:02.444Z</time>
      </trkpt>
      <trkpt lat="46.79477" lon="-2.04916">
        <ele>43.297216</ele>
        <time>2022-12-17T15:54:05.453Z</time>
      </trkpt>
      <trkpt lat="46.79467" lon="-2.04921">
        <ele>43.290687</ele>
        <time>2022-12-17T15:54:08.452Z</time>
      </trkpt>
      <trkpt lat="46.79456" lon="-2.04924">
        <ele>43.283572</ele>
        <time>2022-12-17T15:54:11.458Z</time>
      </trkpt>
      <trkpt lat="46.79445" lon="-2.04928">
        <ele>43.276093</ele>
        <time>2022-12-17T15:54:14.439Z</time>
      </trkpt>
      <trkpt lat="46.79433" lon="-2.04933">
        <ele>43.268327</ele>
        <time>2022-12-17T15:54:17.441Z</time>
      </trkpt>
      <trkpt lat="46.79422" lon="-2.04936">
        <ele>43.260829</ele>
        <time>2022-12-17T15:54:20.436Z</time>
      </trkpt>
      <trkpt lat="46.7941" lon="-2.0494">
        <ele>43.253017</ele>
        <time>2022-12-17T15:54:23.442Z</time>
      </trkpt>
      <trkpt lat="46.79398" lon="-2.04945">
        <ele>43.244968</ele>
        <time>2022-12-17T15:54:26.447Z</time>
      </trkpt>
      <trkpt lat="46.79385" lon="-2.0495">
        <ele>43.263301</ele>
        <time>2022-12-17T15:54:29.436Z</time>
      </trkpt>
      <trkpt lat="46.79376" lon="-2.04953">
        <ele>43.300256</ele>
        <time>2022-12-17T15:54:31.436Z</time>
      </trkpt>
      <trkpt lat="46.79367" lon="-2.04956">
        <ele>43.336994</ele>
        <time>2022-12-17T15:54:33.430Z</time>
      </trkpt>
      <trkpt lat="46.79354" lon="-2.0496">
        <ele>43.392231</ele>
        <time>2022-12-17T15:54:36.435Z</time>
      </trkpt>
      <trkpt lat="46.79345" lon="-2.04963">
        <ele>43.430951</ele>
        <time>2022-12-17T15:54:38.432Z</time>
      </trkpt>
      <trkpt lat="46.79335" lon="-2.04967">
        <ele>43.469336</ele>
        <time>2022-12-17T15:54:40.433Z</time>
      </trkpt>
      <trkpt lat="46.79326" lon="-2.0497">
        <ele>43.508851</ele>
        <time>2022-12-17T15:54:42.439Z</time>
      </trkpt>
      <trkpt lat="46.79317" lon="-2.04973">
        <ele>43.546904</ele>
        <time>2022-12-17T15:54:44.441Z</time>
      </trkpt>
      <trkpt lat="46.79307" lon="-2.04974">
        <ele>43.585348</ele>
        <time>2022-12-17T15:54:46.438Z</time>
      </trkpt>
      <trkpt lat="46.79298" lon="-2.04975">
        <ele>43.622875</ele>
        <time>2022-12-17T15:54:48.460Z</time>
      </trkpt>
      <trkpt lat="46.79289" lon="-2.04977">
        <ele>43.659886</ele>
        <time>2022-12-17T15:54:50.432Z</time>
      </trkpt>
      <trkpt lat="46.79276" lon="-2.04979">
        <ele>43.712862</ele>
        <time>2022-12-17T15:54:53.440Z</time>
      </trkpt>
      <trkpt lat="46.79266" lon="-2.04981">
        <ele>43.755667</ele>
        <time>2022-12-17T15:54:56.433Z</time>
      </trkpt>
      <trkpt lat="46.79257" lon="-2.04982">
        <ele>43.792363</ele>
        <time>2022-12-17T15:54:59.443Z</time>
      </trkpt>
      <trkpt lat="46.79245" lon="-2.04981">
        <ele>43.838811</ele>
        <time>2022-12-17T15:55:03.445Z</time>
      </trkpt>
      <trkpt lat="46.79234" lon="-2.04983">
        <ele>43.885234</ele>
        <time>2022-12-17T15:55:06.447Z</time>
      </trkpt>
      <trkpt lat="46.79223" lon="-2.04989">
        <ele>43.934405</ele>
        <time>2022-12-17T15:55:09.442Z</time>
      </trkpt>
      <trkpt lat="46.79212" lon="-2.04997">
        <ele>43.953836</ele>
        <time>2022-12-17T15:55:12.468Z</time>
      </trkpt>
      <trkpt lat="46.79201" lon="-2.05003">
        <ele>43.885337</ele>
        <time>2022-12-17T15:55:15.438Z</time>
      </trkpt>
      <trkpt lat="46.79192" lon="-2.05009">
        <ele>43.825417</ele>
        <time>2022-12-17T15:55:18.435Z</time>
      </trkpt>
      <trkpt lat="46.79181" lon="-2.05016">
        <ele>43.754518</ele>
        <time>2022-12-17T15:55:22.449Z</time>
      </trkpt>
      <trkpt lat="46.79173" lon="-2.05023">
        <ele>43.698724</ele>
        <time>2022-12-17T15:55:26.440Z</time>
      </trkpt>
      <trkpt lat="46.79163" lon="-2.05025">
        <ele>43.635712</ele>
        <time>2022-12-17T15:55:32.452Z</time>
      </trkpt>
      <trkpt lat="46.79157" lon="-2.05011">
        <ele>43.566822</ele>
        <time>2022-12-17T15:55:36.449Z</time>
      </trkpt>
      <trkpt lat="46.7915" lon="-2.05">
        <ele>43.507101</ele>
        <time>2022-12-17T15:55:40.453Z</time>
      </trkpt>
      <trkpt lat="46.7914" lon="-2.05">
        <ele>43.445567</ele>
        <time>2022-12-17T15:55:44.436Z</time>
      </trkpt>
      <trkpt lat="46.7913" lon="-2.05002">
        <ele>43.388457</ele>
        <time>2022-12-17T15:55:47.450Z</time>
      </trkpt>
      <trkpt lat="46.79121" lon="-2.05003">
        <ele>43.330916</ele>
        <time>2022-12-17T15:55:50.453Z</time>
      </trkpt>
      <trkpt lat="46.79111" lon="-2.05004">
        <ele>43.273548</ele>
        <time>2022-12-17T15:55:53.437Z</time>
      </trkpt>
      <trkpt lat="46.79102" lon="-2.05005">
        <ele>43.217077</ele>
        <time>2022-12-17T15:55:56.445Z</time>
      </trkpt>
      <trkpt lat="46.79091" lon="-2.05007">
        <ele>43.150381</ele>
        <time>2022-12-17T15:55:59.446Z</time>
      </trkpt>
      <trkpt lat="46.7908" lon="-2.05008">
        <ele>43.085101</ele>
        <time>2022-12-17T15:56:02.440Z</time>
      </trkpt>
      <trkpt lat="46.79068" lon="-2.05008">
        <ele>43.017597</ele>
        <time>2022-12-17T15:56:05.442Z</time>
      </trkpt>
      <trkpt lat="46.79056" lon="-2.05009">
        <ele>42.945294</ele>
        <time>2022-12-17T15:56:08.461Z</time>
      </trkpt>
      <trkpt lat="46.79043" lon="-2.05009">
        <ele>42.853558</ele>
        <time>2022-12-17T15:56:11.441Z</time>
      </trkpt>
      <trkpt lat="46.7903" lon="-2.05011">
        <ele>42.745826</ele>
        <time>2022-12-17T15:56:14.443Z</time>
      </trkpt>
      <trkpt lat="46.79021" lon="-2.05012">
        <ele>42.669896</ele>
        <time>2022-12-17T15:56:16.465Z</time>
      </trkpt>
      <trkpt lat="46.79009" lon="-2.05015">
        <ele>42.568241</ele>
        <time>2022-12-17T15:56:19.444Z</time>
      </trkpt>
      <trkpt lat="46.78997" lon="-2.05018">
        <ele>42.465682</ele>
        <time>2022-12-17T15:56:22.436Z</time>
      </trkpt>
      <trkpt lat="46.78988" lon="-2.05019">
        <ele>42.390883</ele>
        <time>2022-12-17T15:56:24.440Z</time>
      </trkpt>
      <trkpt lat="46.78978" lon="-2.05022">
        <ele>42.306711</ele>
        <time>2022-12-17T15:56:26.440Z</time>
      </trkpt>
      <trkpt lat="46.78969" lon="-2.05027">
        <ele>42.229684</ele>
        <time>2022-12-17T15:56:28.435Z</time>
      </trkpt>
      <trkpt lat="46.78961" lon="-2.05037">
        <ele>42.136511</ele>
        <time>2022-12-17T15:56:31.448Z</time>
      </trkpt>
      <trkpt lat="46.78954" lon="-2.05046">
        <ele>42.061254</ele>
        <time>2022-12-17T15:56:34.442Z</time>
      </trkpt>
      <trkpt lat="46.78944" lon="-2.05052">
        <ele>41.973637</ele>
        <time>2022-12-17T15:56:38.445Z</time>
      </trkpt>
      <trkpt lat="46.78935" lon="-2.05061">
        <ele>41.884202</ele>
        <time>2022-12-17T15:56:42.435Z</time>
      </trkpt>
      <trkpt lat="46.78925" lon="-2.05061">
        <ele>41.800119</ele>
        <time>2022-12-17T15:56:46.436Z</time>
      </trkpt>
      <trkpt lat="46.78916" lon="-2.0505">
        <ele>41.700568</ele>
        <time>2022-12-17T15:56:50.461Z</time>
      </trkpt>
      <trkpt lat="46.78911" lon="-2.05037">
        <ele>41.614913</ele>
        <time>2022-12-17T15:56:53.442Z</time>
      </trkpt>
      <trkpt lat="46.78906" lon="-2.05025">
        <ele>41.533</ele>
        <time>2022-12-17T15:56:56.449Z</time>
      </trkpt>
      <trkpt lat="46.789" lon="-2.05011">
        <ele>41.445701</ele>
        <time>2022-12-17T15:56:59.464Z</time>
      </trkpt>
      <trkpt lat="46.78895" lon="-2.04998">
        <ele>41.370241</ele>
        <time>2022-12-17T15:57:02.440Z</time>
      </trkpt>
      <trkpt lat="46.78889" lon="-2.04984">
        <ele>41.306876</ele>
        <time>2022-12-17T15:57:05.450Z</time>
      </trkpt>
      <trkpt lat="46.78882" lon="-2.04968">
        <ele>41.23615</ele>
        <time>2022-12-17T15:57:08.437Z</time>
      </trkpt>
      <trkpt lat="46.78875" lon="-2.04952">
        <ele>41.163799</ele>
        <time>2022-12-17T15:57:11.437Z</time>
      </trkpt>
      <trkpt lat="46.78869" lon="-2.04938">
        <ele>41.099627</ele>
        <time>2022-12-17T15:57:14.436Z</time>
      </trkpt>
      <trkpt lat="46.78863" lon="-2.04925">
        <ele>41.039326</ele>
        <time>2022-12-17T15:57:17.442Z</time>
      </trkpt>
      <trkpt lat="46.78859" lon="-2.04911">
        <ele>40.982976</ele>
        <time>2022-12-17T15:57:20.444Z</time>
      </trkpt>
      <trkpt lat="46.78855" lon="-2.04898">
        <ele>40.927489</ele>
        <time>2022-12-17T15:57:23.443Z</time>
      </trkpt>
      <trkpt lat="46.78851" lon="-2.04883">
        <ele>40.865268</ele>
        <time>2022-12-17T15:57:26.449Z</time>
      </trkpt>
      <trkpt lat="46.78847" lon="-2.04866">
        <ele>40.795189</ele>
        <time>2022-12-17T15:57:29.432Z</time>
      </trkpt>
      <trkpt lat="46.78843" lon="-2.04848">
        <ele>40.724596</ele>
        <time>2022-12-17T15:57:32.437Z</time>
      </trkpt>
      <trkpt lat="46.78838" lon="-2.0483">
        <ele>40.649706</ele>
        <time>2022-12-17T15:57:35.450Z</time>
      </trkpt>
      <trkpt lat="46.78832" lon="-2.04813">
        <ele>40.578234</ele>
        <time>2022-12-17T15:57:38.466Z</time>
      </trkpt>
      <trkpt lat="46.78825" lon="-2.04795">
        <ele>40.499081</ele>
        <time>2022-12-17T15:57:41.454Z</time>
      </trkpt>
      <trkpt lat="46.78821" lon="-2.04782">
        <ele>40.443968</ele>
        <time>2022-12-17T15:57:43.448Z</time>
      </trkpt>
      <trkpt lat="46.78817" lon="-2.0477">
        <ele>40.394739</ele>
        <time>2022-12-17T15:57:45.439Z</time>
      </trkpt>
      <trkpt lat="46.78813" lon="-2.04758">
        <ele>40.397878</ele>
        <time>2022-12-17T15:57:47.451Z</time>
      </trkpt>
      <trkpt lat="46.78809" lon="-2.04745">
        <ele>40.401121</ele>
        <time>2022-12-17T15:57:49.442Z</time>
      </trkpt>
      <trkpt lat="46.78806" lon="-2.04732">
        <ele>40.404171</ele>
        <time>2022-12-17T15:57:51.440Z</time>
      </trkpt>
      <trkpt lat="46.78802" lon="-2.0472">
        <ele>40.407292</ele>
        <time>2022-12-17T15:57:53.438Z</time>
      </trkpt>
      <trkpt lat="46.78796" lon="-2.04702">
        <ele>40.41193</ele>
        <time>2022-12-17T15:57:56.454Z</time>
      </trkpt>
      <trkpt lat="46.78791" lon="-2.0469">
        <ele>40.415123</ele>
        <time>2022-12-17T15:57:58.454Z</time>
      </trkpt>
      <trkpt lat="46.78786" lon="-2.04677">
        <ele>40.418558</ele>
        <time>2022-12-17T15:58:00.442Z</time>
      </trkpt>
      <trkpt lat="46.78782" lon="-2.04664">
        <ele>40.421885</ele>
        <time>2022-12-17T15:58:02.452Z</time>
      </trkpt>
      <trkpt lat="46.78776" lon="-2.04651">
        <ele>40.425429</ele>
        <time>2022-12-17T15:58:04.443Z</time>
      </trkpt>
      <trkpt lat="46.78771" lon="-2.04638">
        <ele>40.428726</ele>
        <time>2022-12-17T15:58:06.468Z</time>
      </trkpt>
      <trkpt lat="46.78766" lon="-2.04624">
        <ele>40.432348</ele>
        <time>2022-12-17T15:58:08.442Z</time>
      </trkpt>
      <trkpt lat="46.78761" lon="-2.04613">
        <ele>40.435402</ele>
        <time>2022-12-17T15:58:10.448Z</time>
      </trkpt>
      <trkpt lat="46.78756" lon="-2.046">
        <ele>40.438831</ele>
        <time>2022-12-17T15:58:12.460Z</time>
      </trkpt>
      <trkpt lat="46.7875" lon="-2.04588">
        <ele>40.442203</ele>
        <time>2022-12-17T15:58:14.467Z</time>
      </trkpt>
      <trkpt lat="46.78744" lon="-2.04575">
        <ele>40.445762</ele>
        <time>2022-12-17T15:58:16.446Z</time>
      </trkpt>
      <trkpt lat="46.78739" lon="-2.04562">
        <ele>40.449308</ele>
        <time>2022-12-17T15:58:18.468Z</time>
      </trkpt>
      <trkpt lat="46.78734" lon="-2.04548">
        <ele>40.452739</ele>
        <time>2022-12-17T15:58:20.465Z</time>
      </trkpt>
      <trkpt lat="46.78729" lon="-2.04537">
        <ele>40.440439</ele>
        <time>2022-12-17T15:58:22.450Z</time>
      </trkpt>
      <trkpt lat="46.78723" lon="-2.04525">
        <ele>40.396946</ele>
        <time>2022-12-17T15:58:24.468Z</time>
      </trkpt>
      <trkpt lat="46.78717" lon="-2.0451">
        <ele>40.347036</ele>
        <time>2022-12-17T15:58:27.452Z</time>
      </trkpt>
      <trkpt lat="46.78712" lon="-2.04499">
        <ele>40.307437</ele>
        <time>2022-12-17T15:58:30.466Z</time>
      </trkpt>
      <trkpt lat="46.78706" lon="-2.04478">
        <ele>40.240007</ele>
        <time>2022-12-17T15:59:12.437Z</time>
      </trkpt>
      <trkpt lat="46.78701" lon="-2.04466">
        <ele>40.199174</ele>
        <time>2022-12-17T15:59:15.442Z</time>
      </trkpt>
      <trkpt lat="46.78695" lon="-2.04453">
        <ele>40.152275</ele>
        <time>2022-12-17T15:59:18.438Z</time>
      </trkpt>
      <trkpt lat="46.78689" lon="-2.04442">
        <ele>40.109732</ele>
        <time>2022-12-17T15:59:21.436Z</time>
      </trkpt>
      <trkpt lat="46.78683" lon="-2.04429">
        <ele>40.065763</ele>
        <time>2022-12-17T15:59:24.451Z</time>
      </trkpt>
      <trkpt lat="46.78677" lon="-2.04414">
        <ele>40.013893</ele>
        <time>2022-12-17T15:59:27.436Z</time>
      </trkpt>
      <trkpt lat="46.78672" lon="-2.04399">
        <ele>39.963869</ele>
        <time>2022-12-17T15:59:30.477Z</time>
      </trkpt>
      <trkpt lat="46.78666" lon="-2.04381">
        <ele>39.907533</ele>
        <time>2022-12-17T15:59:33.443Z</time>
      </trkpt>
      <trkpt lat="46.78661" lon="-2.04362">
        <ele>39.846781</ele>
        <time>2022-12-17T15:59:36.450Z</time>
      </trkpt>
      <trkpt lat="46.78657" lon="-2.04349">
        <ele>39.802718</ele>
        <time>2022-12-17T15:59:38.439Z</time>
      </trkpt>
      <trkpt lat="46.78653" lon="-2.04336">
        <ele>39.760393</ele>
        <time>2022-12-17T15:59:40.435Z</time>
      </trkpt>
      <trkpt lat="46.78648" lon="-2.04323">
        <ele>39.71691</ele>
        <time>2022-12-17T15:59:42.436Z</time>
      </trkpt>
      <trkpt lat="46.78643" lon="-2.0431">
        <ele>39.710466</ele>
        <time>2022-12-17T15:59:44.437Z</time>
      </trkpt>
      <trkpt lat="46.78639" lon="-2.04296">
        <ele>39.881</ele>
        <time>2022-12-17T15:59:46.446Z</time>
      </trkpt>
      <trkpt lat="46.78634" lon="-2.04281">
        <ele>40.062112</ele>
        <time>2022-12-17T15:59:48.441Z</time>
      </trkpt>
      <trkpt lat="46.78629" lon="-2.04266">
        <ele>40.255243</ele>
        <time>2022-12-17T15:59:50.440Z</time>
      </trkpt>
      <trkpt lat="46.78624" lon="-2.04252">
        <ele>40.429092</ele>
        <time>2022-12-17T15:59:52.436Z</time>
      </trkpt>
      <trkpt lat="46.7862" lon="-2.04239">
        <ele>40.590692</ele>
        <time>2022-12-17T15:59:54.448Z</time>
      </trkpt>
      <trkpt lat="46.78615" lon="-2.04227">
        <ele>40.750308</ele>
        <time>2022-12-17T15:59:56.450Z</time>
      </trkpt>
      <trkpt lat="46.7861" lon="-2.04214">
        <ele>40.914722</ele>
        <time>2022-12-17T15:59:58.451Z</time>
      </trkpt>
      <trkpt lat="46.78605" lon="-2.04201">
        <ele>41.084064</ele>
        <time>2022-12-17T16:00:00.460Z</time>
      </trkpt>
      <trkpt lat="46.78599" lon="-2.04188">
        <ele>41.259097</ele>
        <time>2022-12-17T16:00:02.459Z</time>
      </trkpt>
      <trkpt lat="46.78594" lon="-2.04175">
        <ele>41.429866</ele>
        <time>2022-12-17T16:00:04.462Z</time>
      </trkpt>
      <trkpt lat="46.78588" lon="-2.04162">
        <ele>41.606203</ele>
        <time>2022-12-17T16:00:06.439Z</time>
      </trkpt>
      <trkpt lat="46.78582" lon="-2.04149">
        <ele>41.782778</ele>
        <time>2022-12-17T16:00:08.448Z</time>
      </trkpt>
      <trkpt lat="46.78577" lon="-2.04135">
        <ele>41.954637</ele>
        <time>2022-12-17T16:00:10.440Z</time>
      </trkpt>
      <trkpt lat="46.78572" lon="-2.04121">
        <ele>42.130312</ele>
        <time>2022-12-17T16:00:12.443Z</time>
      </trkpt>
      <trkpt lat="46.78568" lon="-2.04108">
        <ele>42.300516</ele>
        <time>2022-12-17T16:00:14.447Z</time>
      </trkpt>
      <trkpt lat="46.78564" lon="-2.04094">
        <ele>42.463549</ele>
        <time>2022-12-17T16:00:16.448Z</time>
      </trkpt>
      <trkpt lat="46.78561" lon="-2.04081">
        <ele>42.616511</ele>
        <time>2022-12-17T16:00:18.439Z</time>
      </trkpt>
      <trkpt lat="46.78557" lon="-2.04064">
        <ele>42.571097</ele>
        <time>2022-12-17T16:00:21.442Z</time>
      </trkpt>
      <trkpt lat="46.78552" lon="-2.04045">
        <ele>42.496162</ele>
        <time>2022-12-17T16:00:24.460Z</time>
      </trkpt>
      <trkpt lat="46.78548" lon="-2.04032">
        <ele>42.44436</ele>
        <time>2022-12-17T16:00:26.453Z</time>
      </trkpt>
      <trkpt lat="46.78545" lon="-2.04019">
        <ele>42.391176</ele>
        <time>2022-12-17T16:00:28.461Z</time>
      </trkpt>
      <trkpt lat="46.78541" lon="-2.04006">
        <ele>42.338267</ele>
        <time>2022-12-17T16:00:30.447Z</time>
      </trkpt>
      <trkpt lat="46.78536" lon="-2.03993">
        <ele>42.28162</ele>
        <time>2022-12-17T16:00:32.466Z</time>
      </trkpt>
      <trkpt lat="46.78533" lon="-2.03979">
        <ele>42.225795</ele>
        <time>2022-12-17T16:00:34.445Z</time>
      </trkpt>
      <trkpt lat="46.78528" lon="-2.03966">
        <ele>42.172488</ele>
        <time>2022-12-17T16:00:36.450Z</time>
      </trkpt>
      <trkpt lat="46.78524" lon="-2.03953">
        <ele>42.117508</ele>
        <time>2022-12-17T16:00:38.466Z</time>
      </trkpt>
      <trkpt lat="46.78518" lon="-2.0394">
        <ele>42.059048</ele>
        <time>2022-12-17T16:00:40.448Z</time>
      </trkpt>
      <trkpt lat="46.78513" lon="-2.03928">
        <ele>42.00605</ele>
        <time>2022-12-17T16:00:42.439Z</time>
      </trkpt>
      <trkpt lat="46.78509" lon="-2.03916">
        <ele>41.95338</ele>
        <time>2022-12-17T16:00:44.460Z</time>
      </trkpt>
      <trkpt lat="46.78503" lon="-2.03903">
        <ele>41.895883</ele>
        <time>2022-12-17T16:00:46.449Z</time>
      </trkpt>
      <trkpt lat="46.78498" lon="-2.03891">
        <ele>41.843672</ele>
        <time>2022-12-17T16:00:48.448Z</time>
      </trkpt>
      <trkpt lat="46.78492" lon="-2.03875">
        <ele>41.774632</ele>
        <time>2022-12-17T16:00:51.436Z</time>
      </trkpt>
      <trkpt lat="46.78489" lon="-2.03858">
        <ele>41.70856</ele>
        <time>2022-12-17T16:00:54.440Z</time>
      </trkpt>
      <trkpt lat="46.78483" lon="-2.03841">
        <ele>41.654968</ele>
        <time>2022-12-17T16:00:57.446Z</time>
      </trkpt>
      <trkpt lat="46.7848" lon="-2.03829">
        <ele>41.701636</ele>
        <time>2022-12-17T16:00:59.441Z</time>
      </trkpt>
      <trkpt lat="46.78474" lon="-2.03811">
        <ele>41.771362</ele>
        <time>2022-12-17T16:01:02.446Z</time>
      </trkpt>
      <trkpt lat="46.7847" lon="-2.03799">
        <ele>41.820693</ele>
        <time>2022-12-17T16:01:04.450Z</time>
      </trkpt>
      <trkpt lat="46.78465" lon="-2.03786">
        <ele>41.873079</ele>
        <time>2022-12-17T16:01:06.434Z</time>
      </trkpt>
      <trkpt lat="46.7846" lon="-2.03773">
        <ele>41.925515</ele>
        <time>2022-12-17T16:01:08.434Z</time>
      </trkpt>
      <trkpt lat="46.78455" lon="-2.0376">
        <ele>41.978163</ele>
        <time>2022-12-17T16:01:10.441Z</time>
      </trkpt>
      <trkpt lat="46.78449" lon="-2.03747">
        <ele>42.03147</ele>
        <time>2022-12-17T16:01:12.448Z</time>
      </trkpt>
      <trkpt lat="46.78444" lon="-2.03736">
        <ele>42.08139</ele>
        <time>2022-12-17T16:01:14.454Z</time>
      </trkpt>
      <trkpt lat="46.78439" lon="-2.03724">
        <ele>42.129638</ele>
        <time>2022-12-17T16:01:16.450Z</time>
      </trkpt>
      <trkpt lat="46.78435" lon="-2.03712">
        <ele>42.17661</ele>
        <time>2022-12-17T16:01:18.438Z</time>
      </trkpt>
      <trkpt lat="46.78429" lon="-2.03697">
        <ele>42.241208</ele>
        <time>2022-12-17T16:01:21.436Z</time>
      </trkpt>
      <trkpt lat="46.78423" lon="-2.03683">
        <ele>42.298141</ele>
        <time>2022-12-17T16:01:24.437Z</time>
      </trkpt>
      <trkpt lat="46.78418" lon="-2.0367">
        <ele>42.350885</ele>
        <time>2022-12-17T16:01:27.437Z</time>
      </trkpt>
      <trkpt lat="46.78412" lon="-2.03657">
        <ele>42.404592</ele>
        <time>2022-12-17T16:01:30.444Z</time>
      </trkpt>
      <trkpt lat="46.78404" lon="-2.03645">
        <ele>42.463851</ele>
        <time>2022-12-17T16:01:33.439Z</time>
      </trkpt>
      <trkpt lat="46.78395" lon="-2.0364">
        <ele>42.516625</ele>
        <time>2022-12-17T16:01:36.439Z</time>
      </trkpt>
      <trkpt lat="46.78384" lon="-2.03644">
        <ele>42.573684</ele>
        <time>2022-12-17T16:01:39.449Z</time>
      </trkpt>
      <trkpt lat="46.78373" lon="-2.0365">
        <ele>42.743477</ele>
        <time>2022-12-17T16:01:42.436Z</time>
      </trkpt>
      <trkpt lat="46.78362" lon="-2.03659">
        <ele>42.942405</ele>
        <time>2022-12-17T16:01:45.450Z</time>
      </trkpt>
      <trkpt lat="46.7835" lon="-2.03669">
        <ele>43.14103</ele>
        <time>2022-12-17T16:01:48.451Z</time>
      </trkpt>
      <trkpt lat="46.78343" lon="-2.03677">
        <ele>43.279842</ele>
        <time>2022-12-17T16:01:50.440Z</time>
      </trkpt>
      <trkpt lat="46.78333" lon="-2.03687">
        <ele>43.45958</ele>
        <time>2022-12-17T16:01:53.435Z</time>
      </trkpt>
      <trkpt lat="46.78324" lon="-2.03695">
        <ele>43.62689</ele>
        <time>2022-12-17T16:01:56.437Z</time>
      </trkpt>
      <trkpt lat="46.78314" lon="-2.03704">
        <ele>43.795715</ele>
        <time>2022-12-17T16:01:59.444Z</time>
      </trkpt>
      <trkpt lat="46.78305" lon="-2.03712">
        <ele>43.959744</ele>
        <time>2022-12-17T16:02:02.460Z</time>
      </trkpt>
      <trkpt lat="46.78296" lon="-2.03721">
        <ele>44.11998</ele>
        <time>2022-12-17T16:02:05.457Z</time>
      </trkpt>
      <trkpt lat="46.78287" lon="-2.03731">
        <ele>44.296675</ele>
        <time>2022-12-17T16:02:08.444Z</time>
      </trkpt>
      <trkpt lat="46.78278" lon="-2.03741">
        <ele>44.472091</ele>
        <time>2022-12-17T16:02:11.457Z</time>
      </trkpt>
      <trkpt lat="46.78269" lon="-2.03751">
        <ele>44.643295</ele>
        <time>2022-12-17T16:02:14.455Z</time>
      </trkpt>
      <trkpt lat="46.78259" lon="-2.03763">
        <ele>44.829367</ele>
        <time>2022-12-17T16:02:17.437Z</time>
      </trkpt>
      <trkpt lat="46.7825" lon="-2.03773">
        <ele>45.007472</ele>
        <time>2022-12-17T16:02:20.465Z</time>
      </trkpt>
      <trkpt lat="46.78242" lon="-2.03783">
        <ele>45.161566</ele>
        <time>2022-12-17T16:02:23.439Z</time>
      </trkpt>
      <trkpt lat="46.78236" lon="-2.03793">
        <ele>45.294447</ele>
        <time>2022-12-17T16:02:26.442Z</time>
      </trkpt>
      <trkpt lat="46.78228" lon="-2.03801">
        <ele>45.24852</ele>
        <time>2022-12-17T16:02:29.453Z</time>
      </trkpt>
      <trkpt lat="46.78217" lon="-2.03801">
        <ele>45.194739</ele>
        <time>2022-12-17T16:02:32.450Z</time>
      </trkpt>
      <trkpt lat="46.78206" lon="-2.03804">
        <ele>45.137575</ele>
        <time>2022-12-17T16:02:35.447Z</time>
      </trkpt>
      <trkpt lat="46.78195" lon="-2.0381">
        <ele>45.081115</ele>
        <time>2022-12-17T16:02:38.444Z</time>
      </trkpt>
      <trkpt lat="46.78184" lon="-2.03816">
        <ele>45.023842</ele>
        <time>2022-12-17T16:02:41.445Z</time>
      </trkpt>
      <trkpt lat="46.78174" lon="-2.0382">
        <ele>44.970234</ele>
        <time>2022-12-17T16:02:44.448Z</time>
      </trkpt>
      <trkpt lat="46.78164" lon="-2.03825">
        <ele>44.916149</ele>
        <time>2022-12-17T16:02:47.447Z</time>
      </trkpt>
      <trkpt lat="46.78155" lon="-2.03831">
        <ele>44.870801</ele>
        <time>2022-12-17T16:02:50.436Z</time>
      </trkpt>
      <trkpt lat="46.78147" lon="-2.03837">
        <ele>44.824259</ele>
        <time>2022-12-17T16:02:53.455Z</time>
      </trkpt>
      <trkpt lat="46.78136" lon="-2.03842">
        <ele>44.764713</ele>
        <time>2022-12-17T16:02:57.442Z</time>
      </trkpt>
      <trkpt lat="46.78127" lon="-2.03847">
        <ele>44.719245</ele>
        <time>2022-12-17T16:03:00.452Z</time>
      </trkpt>
      <trkpt lat="46.78117" lon="-2.03851">
        <ele>44.669166</ele>
        <time>2022-12-17T16:03:03.469Z</time>
      </trkpt>
      <trkpt lat="46.78107" lon="-2.03852">
        <ele>44.619337</ele>
        <time>2022-12-17T16:03:06.451Z</time>
      </trkpt>
      <trkpt lat="46.781" lon="-2.03839">
        <ele>44.561699</ele>
        <time>2022-12-17T16:03:09.450Z</time>
      </trkpt>
      <trkpt lat="46.7809" lon="-2.03828">
        <ele>44.498911</ele>
        <time>2022-12-17T16:03:12.450Z</time>
      </trkpt>
      <trkpt lat="46.78077" lon="-2.03821">
        <ele>44.433223</ele>
        <time>2022-12-17T16:03:15.446Z</time>
      </trkpt>
      <trkpt lat="46.78065" lon="-2.03813">
        <ele>44.242448</ele>
        <time>2022-12-17T16:03:18.449Z</time>
      </trkpt>
      <trkpt lat="46.78056" lon="-2.0381">
        <ele>44.044062</ele>
        <time>2022-12-17T16:03:20.444Z</time>
      </trkpt>
      <trkpt lat="46.78043" lon="-2.03804">
        <ele>43.755352</ele>
        <time>2022-12-17T16:03:23.437Z</time>
      </trkpt>
      <trkpt lat="46.78035" lon="-2.03799">
        <ele>43.55442</ele>
        <time>2022-12-17T16:03:25.449Z</time>
      </trkpt>
      <trkpt lat="46.78026" lon="-2.03793">
        <ele>43.339078</ele>
        <time>2022-12-17T16:03:27.442Z</time>
      </trkpt>
      <trkpt lat="46.78016" lon="-2.03788">
        <ele>43.119177</ele>
        <time>2022-12-17T16:03:29.449Z</time>
      </trkpt>
      <trkpt lat="46.78003" lon="-2.03781">
        <ele>42.826389</ele>
        <time>2022-12-17T16:03:32.439Z</time>
      </trkpt>
      <trkpt lat="46.77994" lon="-2.03776">
        <ele>42.614815</ele>
        <time>2022-12-17T16:03:34.448Z</time>
      </trkpt>
      <trkpt lat="46.77985" lon="-2.03771">
        <ele>42.409994</ele>
        <time>2022-12-17T16:03:36.464Z</time>
      </trkpt>
      <trkpt lat="46.77977" lon="-2.03767">
        <ele>42.211307</ele>
        <time>2022-12-17T16:03:38.455Z</time>
      </trkpt>
      <trkpt lat="46.77964" lon="-2.03761">
        <ele>41.927939</ele>
        <time>2022-12-17T16:03:41.439Z</time>
      </trkpt>
      <trkpt lat="46.77953" lon="-2.03757">
        <ele>41.671093</ele>
        <time>2022-12-17T16:03:44.451Z</time>
      </trkpt>
      <trkpt lat="46.77941" lon="-2.03753">
        <ele>41.407973</ele>
        <time>2022-12-17T16:03:47.444Z</time>
      </trkpt>
      <trkpt lat="46.7793" lon="-2.03748">
        <ele>41.159934</ele>
        <time>2022-12-17T16:03:50.439Z</time>
      </trkpt>
      <trkpt lat="46.77917" lon="-2.03746">
        <ele>40.880098</ele>
        <time>2022-12-17T16:03:53.438Z</time>
      </trkpt>
      <trkpt lat="46.77907" lon="-2.03743">
        <ele>40.661031</ele>
        <time>2022-12-17T16:03:55.444Z</time>
      </trkpt>
      <trkpt lat="46.77898" lon="-2.0374">
        <ele>40.534161</ele>
        <time>2022-12-17T16:03:57.440Z</time>
      </trkpt>
      <trkpt lat="46.77889" lon="-2.03736">
        <ele>40.590333</ele>
        <time>2022-12-17T16:03:59.440Z</time>
      </trkpt>
      <trkpt lat="46.77881" lon="-2.03732">
        <ele>40.647204</ele>
        <time>2022-12-17T16:04:01.466Z</time>
      </trkpt>
      <trkpt lat="46.77869" lon="-2.03728">
        <ele>40.723034</ele>
        <time>2022-12-17T16:04:04.458Z</time>
      </trkpt>
      <trkpt lat="46.77858" lon="-2.03722">
        <ele>40.795419</ele>
        <time>2022-12-17T16:04:07.437Z</time>
      </trkpt>
      <trkpt lat="46.77846" lon="-2.03715">
        <ele>40.876655</ele>
        <time>2022-12-17T16:04:10.433Z</time>
      </trkpt>
      <trkpt lat="46.77837" lon="-2.0371">
        <ele>40.934189</ele>
        <time>2022-12-17T16:04:12.467Z</time>
      </trkpt>
      <trkpt lat="46.77828" lon="-2.03705">
        <ele>40.995684</ele>
        <time>2022-12-17T16:04:14.439Z</time>
      </trkpt>
      <trkpt lat="46.77819" lon="-2.03703">
        <ele>41.053712</ele>
        <time>2022-12-17T16:04:16.439Z</time>
      </trkpt>
      <trkpt lat="46.77806" lon="-2.03696">
        <ele>41.140035</ele>
        <time>2022-12-17T16:04:19.460Z</time>
      </trkpt>
      <trkpt lat="46.77797" lon="-2.0369">
        <ele>41.19922</ele>
        <time>2022-12-17T16:04:21.442Z</time>
      </trkpt>
      <trkpt lat="46.77789" lon="-2.03683">
        <ele>41.258904</ele>
        <time>2022-12-17T16:04:23.440Z</time>
      </trkpt>
      <trkpt lat="46.77781" lon="-2.03676">
        <ele>41.316508</ele>
        <time>2022-12-17T16:04:25.442Z</time>
      </trkpt>
      <trkpt lat="46.77773" lon="-2.03669">
        <ele>41.374354</ele>
        <time>2022-12-17T16:04:27.482Z</time>
      </trkpt>
      <trkpt lat="46.77763" lon="-2.03659">
        <ele>41.451886</ele>
        <time>2022-12-17T16:04:30.438Z</time>
      </trkpt>
      <trkpt lat="46.77754" lon="-2.03653">
        <ele>41.513361</ele>
        <time>2022-12-17T16:04:33.436Z</time>
      </trkpt>
      <trkpt lat="46.77746" lon="-2.03644">
        <ele>41.574779</ele>
        <time>2022-12-17T16:04:37.093Z</time>
      </trkpt>
      <trkpt lat="46.77738" lon="-2.03635">
        <ele>41.640914</ele>
        <time>2022-12-17T16:04:39.437Z</time>
      </trkpt>
      <trkpt lat="46.77728" lon="-2.03625">
        <ele>41.666032</ele>
        <time>2022-12-17T16:04:42.436Z</time>
      </trkpt>
      <trkpt lat="46.77717" lon="-2.03615">
        <ele>41.693237</ele>
        <time>2022-12-17T16:04:45.442Z</time>
      </trkpt>
      <trkpt lat="46.77709" lon="-2.03607">
        <ele>41.713343</ele>
        <time>2022-12-17T16:04:47.440Z</time>
      </trkpt>
      <trkpt lat="46.77701" lon="-2.03599">
        <ele>41.733779</ele>
        <time>2022-12-17T16:04:49.443Z</time>
      </trkpt>
      <trkpt lat="46.77693" lon="-2.0359">
        <ele>41.754536</ele>
        <time>2022-12-17T16:04:51.443Z</time>
      </trkpt>
      <trkpt lat="46.77684" lon="-2.03583">
        <ele>41.775367</ele>
        <time>2022-12-17T16:04:53.440Z</time>
      </trkpt>
      <trkpt lat="46.77675" lon="-2.03575">
        <ele>41.797526</ele>
        <time>2022-12-17T16:04:55.443Z</time>
      </trkpt>
      <trkpt lat="46.77667" lon="-2.03566">
        <ele>41.818365</ele>
        <time>2022-12-17T16:04:57.445Z</time>
      </trkpt>
      <trkpt lat="46.77659" lon="-2.03557">
        <ele>41.838893</ele>
        <time>2022-12-17T16:04:59.439Z</time>
      </trkpt>
      <trkpt lat="46.77651" lon="-2.03548">
        <ele>41.859648</ele>
        <time>2022-12-17T16:05:01.440Z</time>
      </trkpt>
      <trkpt lat="46.77643" lon="-2.03539">
        <ele>41.88088</ele>
        <time>2022-12-17T16:05:03.447Z</time>
      </trkpt>
      <trkpt lat="46.77636" lon="-2.03529">
        <ele>41.901891</ele>
        <time>2022-12-17T16:05:05.437Z</time>
      </trkpt>
      <trkpt lat="46.77628" lon="-2.03519">
        <ele>41.923282</ele>
        <time>2022-12-17T16:05:07.442Z</time>
      </trkpt>
      <trkpt lat="46.77621" lon="-2.03507">
        <ele>41.94547</ele>
        <time>2022-12-17T16:05:09.449Z</time>
      </trkpt>
      <trkpt lat="46.77613" lon="-2.03497">
        <ele>41.965912</ele>
        <time>2022-12-17T16:05:11.442Z</time>
      </trkpt>
      <trkpt lat="46.77607" lon="-2.03487">
        <ele>41.9853</ele>
        <time>2022-12-17T16:05:13.464Z</time>
      </trkpt>
      <trkpt lat="46.77599" lon="-2.03473">
        <ele>42.012415</ele>
        <time>2022-12-17T16:05:16.469Z</time>
      </trkpt>
      <trkpt lat="46.77591" lon="-2.03464">
        <ele>42.014272</ele>
        <time>2022-12-17T16:05:18.443Z</time>
      </trkpt>
      <trkpt lat="46.77583" lon="-2.03453">
        <ele>42.014272</ele>
        <time>2022-12-17T16:05:21.442Z</time>
      </trkpt>
      <trkpt lat="46.77573" lon="-2.03441">
        <ele>42.014272</ele>
        <time>2022-12-17T16:05:24.464Z</time>
      </trkpt>
      <trkpt lat="46.77564" lon="-2.03428">
        <ele>42.014272</ele>
        <time>2022-12-17T16:05:27.449Z</time>
      </trkpt>
      <trkpt lat="46.77557" lon="-2.03418">
        <ele>42.014272</ele>
        <time>2022-12-17T16:05:29.451Z</time>
      </trkpt>
      <trkpt lat="46.77548" lon="-2.03407">
        <ele>42.014272</ele>
        <time>2022-12-17T16:05:32.470Z</time>
      </trkpt>
      <trkpt lat="46.77539" lon="-2.03396">
        <ele>42.014272</ele>
        <time>2022-12-17T16:05:35.447Z</time>
      </trkpt>
      <trkpt lat="46.77529" lon="-2.03385">
        <ele>42.014272</ele>
        <time>2022-12-17T16:05:38.472Z</time>
      </trkpt>
      <trkpt lat="46.77519" lon="-2.03373">
        <ele>42.014272</ele>
        <time>2022-12-17T16:05:41.459Z</time>
      </trkpt>
      <trkpt lat="46.77511" lon="-2.03363">
        <ele>42.014272</ele>
        <time>2022-12-17T16:05:44.442Z</time>
      </trkpt>
      <trkpt lat="46.77505" lon="-2.03352">
        <ele>42.014272</ele>
        <time>2022-12-17T16:05:47.441Z</time>
      </trkpt>
      <trkpt lat="46.77498" lon="-2.03341">
        <ele>42.014272</ele>
        <time>2022-12-17T16:05:51.442Z</time>
      </trkpt>
      <trkpt lat="46.77491" lon="-2.03331">
        <ele>42.014272</ele>
        <time>2022-12-17T16:05:55.445Z</time>
      </trkpt>
      <trkpt lat="46.77485" lon="-2.03323">
        <ele>42.014272</ele>
        <time>2022-12-17T16:06:03.475Z</time>
        <extensions>
          <visugpx:TrkExtension xmlns:visugpx="https://www.visugpx.com/editgpx/">
            <visugpx:node>1</visugpx:node>
            </visugpx:TrkExtension>
        </extensions>
      </trkpt>
    </trkseg>
  </trk>
  <trk>
    <name><![CDATA[St-Jean de Monts - Jard sur mer]]></name>
    <extensions>
      <line xmlns="http://www.topografix.com/GPX/gpx_style/0/2">
        <color>ff0000</color>
        <width>4</width>
      </line>
    </extensions>
    <trkseg>
      <trkpt lat="46.76889" lon="-2.02664">
        <ele>48.599157</ele>
        <time>2022-12-18T10:49:34.599Z</time>
      </trkpt>
      <trkpt lat="46.76881" lon="-2.02654">
        <ele>48.599157</ele>
        <time>2022-12-18T10:49:39.594Z</time>
      </trkpt>
      <trkpt lat="46.76874" lon="-2.02645">
        <ele>48.599157</ele>
        <time>2022-12-18T10:49:42.601Z</time>
      </trkpt>
      <trkpt lat="46.76865" lon="-2.02638">
        <ele>48.599157</ele>
        <time>2022-12-18T10:49:45.603Z</time>
      </trkpt>
      <trkpt lat="46.76857" lon="-2.02632">
        <ele>48.599157</ele>
        <time>2022-12-18T10:49:48.597Z</time>
      </trkpt>
      <trkpt lat="46.76848" lon="-2.02626">
        <ele>48.599157</ele>
        <time>2022-12-18T10:49:51.603Z</time>
      </trkpt>
      <trkpt lat="46.76838" lon="-2.0262">
        <ele>48.599157</ele>
        <time>2022-12-18T10:49:54.584Z</time>
      </trkpt>
      <trkpt lat="46.76828" lon="-2.02614">
        <ele>48.599157</ele>
        <time>2022-12-18T10:49:57.590Z</time>
      </trkpt>
      <trkpt lat="46.76818" lon="-2.02608">
        <ele>48.599157</ele>
        <time>2022-12-18T10:50:00.596Z</time>
      </trkpt>
      <trkpt lat="46.76807" lon="-2.026">
        <ele>48.613974</ele>
        <time>2022-12-18T10:50:03.603Z</time>
      </trkpt>
      <trkpt lat="46.76797" lon="-2.02593">
        <ele>48.660334</ele>
        <time>2022-12-18T10:50:06.604Z</time>
      </trkpt>
      <trkpt lat="46.76787" lon="-2.02584">
        <ele>48.704809</ele>
        <time>2022-12-18T10:50:09.586Z</time>
      </trkpt>
      <trkpt lat="46.76778" lon="-2.02576">
        <ele>48.746118</ele>
        <time>2022-12-18T10:50:12.603Z</time>
      </trkpt>
      <trkpt lat="46.7677" lon="-2.02568">
        <ele>48.787041</ele>
        <time>2022-12-18T10:50:15.614Z</time>
      </trkpt>
      <trkpt lat="46.7676" lon="-2.02559">
        <ele>48.830481</ele>
        <time>2022-12-18T10:50:18.619Z</time>
      </trkpt>
      <trkpt lat="46.76751" lon="-2.02549">
        <ele>48.876291</ele>
        <time>2022-12-18T10:50:21.588Z</time>
      </trkpt>
      <trkpt lat="46.76742" lon="-2.02538">
        <ele>48.923799</ele>
        <time>2022-12-18T10:50:24.585Z</time>
      </trkpt>
      <trkpt lat="46.76732" lon="-2.02525">
        <ele>48.976009</ele>
        <time>2022-12-18T10:50:27.594Z</time>
      </trkpt>
      <trkpt lat="46.76722" lon="-2.02512">
        <ele>49.02941</ele>
        <time>2022-12-18T10:50:30.612Z</time>
      </trkpt>
      <trkpt lat="46.76712" lon="-2.02499">
        <ele>49.082842</ele>
        <time>2022-12-18T10:50:33.603Z</time>
      </trkpt>
      <trkpt lat="46.76706" lon="-2.02489">
        <ele>49.119039</ele>
        <time>2022-12-18T10:50:35.600Z</time>
      </trkpt>
      <trkpt lat="46.76696" lon="-2.02475">
        <ele>49.172565</ele>
        <time>2022-12-18T10:50:38.600Z</time>
      </trkpt>
      <trkpt lat="46.76687" lon="-2.02461">
        <ele>49.225989</ele>
        <time>2022-12-18T10:50:41.602Z</time>
      </trkpt>
      <trkpt lat="46.76678" lon="-2.02447">
        <ele>49.278194</ele>
        <time>2022-12-18T10:50:44.611Z</time>
      </trkpt>
      <trkpt lat="46.76669" lon="-2.02434">
        <ele>49.339032</ele>
        <time>2022-12-18T10:50:47.592Z</time>
      </trkpt>
      <trkpt lat="46.76662" lon="-2.02422">
        <ele>49.43046</ele>
        <time>2022-12-18T10:50:50.604Z</time>
      </trkpt>
      <trkpt lat="46.76654" lon="-2.02408">
        <ele>49.526637</ele>
        <time>2022-12-18T10:50:53.610Z</time>
      </trkpt>
      <trkpt lat="46.76646" lon="-2.02394">
        <ele>49.621386</ele>
        <time>2022-12-18T10:50:56.603Z</time>
      </trkpt>
      <trkpt lat="46.76639" lon="-2.02379">
        <ele>49.718715</ele>
        <time>2022-12-18T10:50:59.604Z</time>
      </trkpt>
      <trkpt lat="46.76632" lon="-2.02364">
        <ele>49.81559</ele>
        <time>2022-12-18T10:51:02.601Z</time>
      </trkpt>
      <trkpt lat="46.76625" lon="-2.02349">
        <ele>49.913336</ele>
        <time>2022-12-18T10:51:05.603Z</time>
      </trkpt>
      <trkpt lat="46.76617" lon="-2.02334">
        <ele>50.011533</ele>
        <time>2022-12-18T10:51:08.613Z</time>
      </trkpt>
      <trkpt lat="46.76609" lon="-2.02319">
        <ele>50.113789</ele>
        <time>2022-12-18T10:51:11.591Z</time>
      </trkpt>
      <trkpt lat="46.766" lon="-2.02305">
        <ele>50.2169</ele>
        <time>2022-12-18T10:51:14.598Z</time>
      </trkpt>
      <trkpt lat="46.76591" lon="-2.0229">
        <ele>50.321489</ele>
        <time>2022-12-18T10:51:17.611Z</time>
      </trkpt>
      <trkpt lat="46.76585" lon="-2.0228">
        <ele>50.392837</ele>
        <time>2022-12-18T10:51:19.602Z</time>
      </trkpt>
      <trkpt lat="46.76577" lon="-2.02266">
        <ele>50.492052</ele>
        <time>2022-12-18T10:51:22.603Z</time>
      </trkpt>
      <trkpt lat="46.76569" lon="-2.02252">
        <ele>50.589951</ele>
        <time>2022-12-18T10:51:25.603Z</time>
      </trkpt>
      <trkpt lat="46.7656" lon="-2.02238">
        <ele>50.691297</ele>
        <time>2022-12-18T10:51:28.606Z</time>
      </trkpt>
      <trkpt lat="46.76552" lon="-2.02223">
        <ele>50.72159</ele>
        <time>2022-12-18T10:51:31.598Z</time>
      </trkpt>
      <trkpt lat="46.76544" lon="-2.02208">
        <ele>50.731651</ele>
        <time>2022-12-18T10:51:34.605Z</time>
      </trkpt>
      <trkpt lat="46.76535" lon="-2.02194">
        <ele>50.741514</ele>
        <time>2022-12-18T10:51:37.601Z</time>
      </trkpt>
      <trkpt lat="46.76527" lon="-2.0218">
        <ele>50.751182</ele>
        <time>2022-12-18T10:51:40.602Z</time>
      </trkpt>
      <trkpt lat="46.76518" lon="-2.02167">
        <ele>50.760719</ele>
        <time>2022-12-18T10:51:43.605Z</time>
      </trkpt>
      <trkpt lat="46.76508" lon="-2.02153">
        <ele>50.77049</ele>
        <time>2022-12-18T10:51:46.607Z</time>
      </trkpt>
      <trkpt lat="46.76499" lon="-2.02142">
        <ele>50.780087</ele>
        <time>2022-12-18T10:51:49.605Z</time>
      </trkpt>
      <trkpt lat="46.76489" lon="-2.02131">
        <ele>50.789265</ele>
        <time>2022-12-18T10:51:52.602Z</time>
      </trkpt>
      <trkpt lat="46.76479" lon="-2.02121">
        <ele>50.798727</ele>
        <time>2022-12-18T10:51:55.604Z</time>
      </trkpt>
      <trkpt lat="46.76468" lon="-2.0211">
        <ele>50.808334</ele>
        <time>2022-12-18T10:51:58.602Z</time>
      </trkpt>
      <trkpt lat="46.76457" lon="-2.021">
        <ele>50.818554</ele>
        <time>2022-12-18T10:52:01.589Z</time>
      </trkpt>
      <trkpt lat="46.76449" lon="-2.02093">
        <ele>50.825572</ele>
        <time>2022-12-18T10:52:03.617Z</time>
      </trkpt>
      <trkpt lat="46.76441" lon="-2.02085">
        <ele>50.832527</ele>
        <time>2022-12-18T10:52:05.605Z</time>
      </trkpt>
      <trkpt lat="46.76433" lon="-2.02079">
        <ele>50.83957</ele>
        <time>2022-12-18T10:52:07.614Z</time>
      </trkpt>
      <trkpt lat="46.76421" lon="-2.02069">
        <ele>50.849737</ele>
        <time>2022-12-18T10:52:10.609Z</time>
      </trkpt>
      <trkpt lat="46.7641" lon="-2.02059">
        <ele>50.647191</ele>
        <time>2022-12-18T10:52:13.602Z</time>
      </trkpt>
      <trkpt lat="46.76399" lon="-2.02051">
        <ele>50.444079</ele>
        <time>2022-12-18T10:52:16.603Z</time>
      </trkpt>
      <trkpt lat="46.76388" lon="-2.02042">
        <ele>50.248595</ele>
        <time>2022-12-18T10:52:19.604Z</time>
      </trkpt>
      <trkpt lat="46.76379" lon="-2.02037">
        <ele>50.090119</ele>
        <time>2022-12-18T10:52:22.605Z</time>
      </trkpt>
      <trkpt lat="46.76366" lon="-2.02031">
        <ele>49.873568</ele>
        <time>2022-12-18T10:52:25.604Z</time>
      </trkpt>
      <trkpt lat="46.76357" lon="-2.02027">
        <ele>49.714733</ele>
        <time>2022-12-18T10:52:27.600Z</time>
      </trkpt>
      <trkpt lat="46.76348" lon="-2.02023">
        <ele>49.567072</ele>
        <time>2022-12-18T10:52:29.589Z</time>
      </trkpt>
      <trkpt lat="46.76339" lon="-2.02019">
        <ele>49.417867</ele>
        <time>2022-12-18T10:52:31.604Z</time>
      </trkpt>
      <trkpt lat="46.76327" lon="-2.02013">
        <ele>49.200163</ele>
        <time>2022-12-18T10:52:34.604Z</time>
      </trkpt>
      <trkpt lat="46.76314" lon="-2.02006">
        <ele>48.982879</ele>
        <time>2022-12-18T10:52:37.591Z</time>
      </trkpt>
      <trkpt lat="46.76302" lon="-2.01998">
        <ele>48.770611</ele>
        <time>2022-12-18T10:52:40.602Z</time>
      </trkpt>
      <trkpt lat="46.76293" lon="-2.01993">
        <ele>48.623237</ele>
        <time>2022-12-18T10:52:42.604Z</time>
      </trkpt>
      <trkpt lat="46.76285" lon="-2.01989">
        <ele>48.475086</ele>
        <time>2022-12-18T10:52:44.609Z</time>
      </trkpt>
      <trkpt lat="46.76272" lon="-2.01982">
        <ele>48.254761</ele>
        <time>2022-12-18T10:52:47.599Z</time>
      </trkpt>
      <trkpt lat="46.7626" lon="-2.01975">
        <ele>48.056334</ele>
        <time>2022-12-18T10:52:50.603Z</time>
      </trkpt>
      <trkpt lat="46.7625" lon="-2.01967">
        <ele>47.960657</ele>
        <time>2022-12-18T10:52:53.595Z</time>
      </trkpt>
      <trkpt lat="46.76238" lon="-2.0196">
        <ele>47.970623</ele>
        <time>2022-12-18T10:52:56.596Z</time>
      </trkpt>
      <trkpt lat="46.76227" lon="-2.01952">
        <ele>47.980758</ele>
        <time>2022-12-18T10:52:59.614Z</time>
      </trkpt>
      <trkpt lat="46.76215" lon="-2.01945">
        <ele>47.99104</ele>
        <time>2022-12-18T10:53:02.605Z</time>
      </trkpt>
      <trkpt lat="46.76203" lon="-2.01939">
        <ele>48.000818</ele>
        <time>2022-12-18T10:53:05.603Z</time>
      </trkpt>
      <trkpt lat="46.76193" lon="-2.01931">
        <ele>48.009773</ele>
        <time>2022-12-18T10:53:08.617Z</time>
      </trkpt>
      <trkpt lat="46.76183" lon="-2.01925">
        <ele>48.019004</ele>
        <time>2022-12-18T10:53:11.611Z</time>
      </trkpt>
      <trkpt lat="46.76171" lon="-2.01918">
        <ele>48.028949</ele>
        <time>2022-12-18T10:53:14.613Z</time>
      </trkpt>
      <trkpt lat="46.76159" lon="-2.0191">
        <ele>48.039369</ele>
        <time>2022-12-18T10:53:17.603Z</time>
      </trkpt>
      <trkpt lat="46.76147" lon="-2.01903">
        <ele>48.049925</ele>
        <time>2022-12-18T10:53:20.611Z</time>
      </trkpt>
      <trkpt lat="46.76135" lon="-2.01896">
        <ele>48.060191</ele>
        <time>2022-12-18T10:53:23.603Z</time>
      </trkpt>
      <trkpt lat="46.76124" lon="-2.0189">
        <ele>48.069706</ele>
        <time>2022-12-18T10:53:26.603Z</time>
      </trkpt>
      <trkpt lat="46.76112" lon="-2.01884">
        <ele>48.079709</ele>
        <time>2022-12-18T10:53:29.596Z</time>
      </trkpt>
      <trkpt lat="46.76101" lon="-2.01877">
        <ele>48.089527</ele>
        <time>2022-12-18T10:53:32.665Z</time>
      </trkpt>
      <trkpt lat="46.76088" lon="-2.01871">
        <ele>48.102509</ele>
        <time>2022-12-18T10:53:35.606Z</time>
      </trkpt>
      <trkpt lat="46.76077" lon="-2.01866">
        <ele>48.234679</ele>
        <time>2022-12-18T10:53:38.607Z</time>
      </trkpt>
      <trkpt lat="46.76067" lon="-2.0186">
        <ele>48.354784</ele>
        <time>2022-12-18T10:53:41.606Z</time>
      </trkpt>
      <trkpt lat="46.76055" lon="-2.01855">
        <ele>48.490546</ele>
        <time>2022-12-18T10:53:44.602Z</time>
      </trkpt>
      <trkpt lat="46.76044" lon="-2.01849">
        <ele>48.622124</ele>
        <time>2022-12-18T10:53:47.593Z</time>
      </trkpt>
      <trkpt lat="46.76033" lon="-2.01845">
        <ele>48.743883</ele>
        <time>2022-12-18T10:53:50.602Z</time>
      </trkpt>
      <trkpt lat="46.76023" lon="-2.01841">
        <ele>48.861822</ele>
        <time>2022-12-18T10:53:53.604Z</time>
      </trkpt>
      <trkpt lat="46.76012" lon="-2.01837">
        <ele>48.990144</ele>
        <time>2022-12-18T10:53:56.604Z</time>
      </trkpt>
      <trkpt lat="46.76" lon="-2.01832">
        <ele>49.12293</ele>
        <time>2022-12-18T10:53:59.590Z</time>
      </trkpt>
      <trkpt lat="46.75988" lon="-2.01828">
        <ele>49.257337</ele>
        <time>2022-12-18T10:54:02.595Z</time>
      </trkpt>
      <trkpt lat="46.75976" lon="-2.01823">
        <ele>49.397579</ele>
        <time>2022-12-18T10:54:05.598Z</time>
      </trkpt>
      <trkpt lat="46.75965" lon="-2.01819">
        <ele>49.525734</ele>
        <time>2022-12-18T10:54:08.602Z</time>
      </trkpt>
      <trkpt lat="46.75954" lon="-2.01814">
        <ele>49.652633</ele>
        <time>2022-12-18T10:54:11.586Z</time>
      </trkpt>
      <trkpt lat="46.75942" lon="-2.01808">
        <ele>49.789076</ele>
        <time>2022-12-18T10:54:14.603Z</time>
      </trkpt>
      <trkpt lat="46.75931" lon="-2.01802">
        <ele>49.928152</ele>
        <time>2022-12-18T10:54:17.604Z</time>
      </trkpt>
      <trkpt lat="46.75918" lon="-2.01795">
        <ele>50.072398</ele>
        <time>2022-12-18T10:54:20.602Z</time>
      </trkpt>
      <trkpt lat="46.75906" lon="-2.01789">
        <ele>49.986174</ele>
        <time>2022-12-18T10:54:23.595Z</time>
      </trkpt>
      <trkpt lat="46.75893" lon="-2.01782">
        <ele>49.868392</ele>
        <time>2022-12-18T10:54:26.579Z</time>
      </trkpt>
      <trkpt lat="46.75882" lon="-2.01777">
        <ele>49.763324</ele>
        <time>2022-12-18T10:54:29.596Z</time>
      </trkpt>
      <trkpt lat="46.75872" lon="-2.01772">
        <ele>49.665612</ele>
        <time>2022-12-18T10:54:32.579Z</time>
      </trkpt>
      <trkpt lat="46.75863" lon="-2.01767">
        <ele>49.580516</ele>
        <time>2022-12-18T10:54:35.602Z</time>
      </trkpt>
      <trkpt lat="46.75853" lon="-2.01762">
        <ele>49.490591</ele>
        <time>2022-12-18T10:54:38.596Z</time>
      </trkpt>
      <trkpt lat="46.75843" lon="-2.01757">
        <ele>49.390022</ele>
        <time>2022-12-18T10:54:41.590Z</time>
      </trkpt>
      <trkpt lat="46.75831" lon="-2.01755">
        <ele>49.286266</ele>
        <time>2022-12-18T10:54:44.602Z</time>
      </trkpt>
      <trkpt lat="46.75818" lon="-2.01754">
        <ele>49.170952</ele>
        <time>2022-12-18T10:54:47.583Z</time>
      </trkpt>
      <trkpt lat="46.75809" lon="-2.01756">
        <ele>49.085897</ele>
        <time>2022-12-18T10:54:49.605Z</time>
      </trkpt>
      <trkpt lat="46.75796" lon="-2.01754">
        <ele>48.974755</ele>
        <time>2022-12-18T10:54:52.607Z</time>
      </trkpt>
      <trkpt lat="46.75785" lon="-2.01753">
        <ele>48.877293</ele>
        <time>2022-12-18T10:54:55.601Z</time>
      </trkpt>
      <trkpt lat="46.75775" lon="-2.01751">
        <ele>48.781028</ele>
        <time>2022-12-18T10:54:58.600Z</time>
      </trkpt>
      <trkpt lat="46.75766" lon="-2.01751">
        <ele>48.699819</ele>
        <time>2022-12-18T10:55:01.602Z</time>
      </trkpt>
      <trkpt lat="46.75756" lon="-2.0175">
        <ele>48.616645</ele>
        <time>2022-12-18T10:55:04.585Z</time>
      </trkpt>
      <trkpt lat="46.75745" lon="-2.01748">
        <ele>48.51483</ele>
        <time>2022-12-18T10:55:07.584Z</time>
      </trkpt>
      <trkpt lat="46.75733" lon="-2.01745">
        <ele>48.485649</ele>
        <time>2022-12-18T10:55:10.589Z</time>
      </trkpt>
      <trkpt lat="46.7572" lon="-2.01742">
        <ele>48.486196</ele>
        <time>2022-12-18T10:55:13.606Z</time>
      </trkpt>
      <trkpt lat="46.75711" lon="-2.01739">
        <ele>48.486578</ele>
        <time>2022-12-18T10:55:15.600Z</time>
      </trkpt>
      <trkpt lat="46.75702" lon="-2.01737">
        <ele>48.486972</ele>
        <time>2022-12-18T10:55:17.600Z</time>
      </trkpt>
      <trkpt lat="46.75693" lon="-2.01736">
        <ele>48.487366</ele>
        <time>2022-12-18T10:55:19.616Z</time>
      </trkpt>
      <trkpt lat="46.75684" lon="-2.01733">
        <ele>48.487748</ele>
        <time>2022-12-18T10:55:21.605Z</time>
      </trkpt>
      <trkpt lat="46.75672" lon="-2.01731">
        <ele>48.488245</ele>
        <time>2022-12-18T10:55:24.605Z</time>
      </trkpt>
      <trkpt lat="46.7566" lon="-2.01729">
        <ele>48.488759</ele>
        <time>2022-12-18T10:55:27.599Z</time>
      </trkpt>
      <trkpt lat="46.75648" lon="-2.01728">
        <ele>48.489293</ele>
        <time>2022-12-18T10:55:30.597Z</time>
      </trkpt>
      <trkpt lat="46.75636" lon="-2.01726">
        <ele>48.4898</ele>
        <time>2022-12-18T10:55:33.602Z</time>
      </trkpt>
      <trkpt lat="46.75623" lon="-2.01723">
        <ele>48.490323</ele>
        <time>2022-12-18T10:55:36.616Z</time>
      </trkpt>
      <trkpt lat="46.7561" lon="-2.0172">
        <ele>48.490901</ele>
        <time>2022-12-18T10:55:39.595Z</time>
      </trkpt>
      <trkpt lat="46.75597" lon="-2.01716">
        <ele>48.491463</ele>
        <time>2022-12-18T10:55:42.610Z</time>
      </trkpt>
      <trkpt lat="46.75585" lon="-2.01711">
        <ele>48.492005</ele>
        <time>2022-12-18T10:55:45.603Z</time>
      </trkpt>
      <trkpt lat="46.75572" lon="-2.01704">
        <ele>48.492563</ele>
        <time>2022-12-18T10:55:48.585Z</time>
      </trkpt>
      <trkpt lat="46.75561" lon="-2.01695">
        <ele>48.503679</ele>
        <time>2022-12-18T10:55:51.603Z</time>
      </trkpt>
      <trkpt lat="46.75551" lon="-2.01684">
        <ele>48.526707</ele>
        <time>2022-12-18T10:55:54.593Z</time>
      </trkpt>
      <trkpt lat="46.75544" lon="-2.01674">
        <ele>48.546636</ele>
        <time>2022-12-18T10:55:57.612Z</time>
      </trkpt>
      <trkpt lat="46.75536" lon="-2.01663">
        <ele>48.567577</ele>
        <time>2022-12-18T10:56:00.596Z</time>
      </trkpt>
      <trkpt lat="46.75528" lon="-2.01651">
        <ele>48.589692</ele>
        <time>2022-12-18T10:56:03.601Z</time>
      </trkpt>
      <trkpt lat="46.75519" lon="-2.01639">
        <ele>48.612336</ele>
        <time>2022-12-18T10:56:06.593Z</time>
      </trkpt>
      <trkpt lat="46.7551" lon="-2.01627">
        <ele>48.635954</ele>
        <time>2022-12-18T10:56:09.604Z</time>
      </trkpt>
      <trkpt lat="46.75502" lon="-2.01614">
        <ele>48.660082</ele>
        <time>2022-12-18T10:56:12.606Z</time>
      </trkpt>
      <trkpt lat="46.75493" lon="-2.016">
        <ele>48.684134</ele>
        <time>2022-12-18T10:56:15.604Z</time>
      </trkpt>
      <trkpt lat="46.75485" lon="-2.01587">
        <ele>48.707924</ele>
        <time>2022-12-18T10:56:18.604Z</time>
      </trkpt>
      <trkpt lat="46.75476" lon="-2.01574">
        <ele>48.731865</ele>
        <time>2022-12-18T10:56:21.610Z</time>
      </trkpt>
      <trkpt lat="46.75469" lon="-2.01559">
        <ele>48.755759</ele>
        <time>2022-12-18T10:56:24.605Z</time>
      </trkpt>
      <trkpt lat="46.75462" lon="-2.01545">
        <ele>48.778978</ele>
        <time>2022-12-18T10:56:27.602Z</time>
      </trkpt>
      <trkpt lat="46.75455" lon="-2.01531">
        <ele>48.80134</ele>
        <time>2022-12-18T10:56:30.603Z</time>
      </trkpt>
      <trkpt lat="46.75448" lon="-2.01517">
        <ele>48.823691</ele>
        <time>2022-12-18T10:56:33.603Z</time>
      </trkpt>
      <trkpt lat="46.75441" lon="-2.01503">
        <ele>48.84078</ele>
        <time>2022-12-18T10:56:36.604Z</time>
      </trkpt>
      <trkpt lat="46.75435" lon="-2.01488">
        <ele>48.84823</ele>
        <time>2022-12-18T10:56:39.606Z</time>
      </trkpt>
      <trkpt lat="46.75428" lon="-2.01474">
        <ele>48.855397</ele>
        <time>2022-12-18T10:56:42.606Z</time>
      </trkpt>
      <trkpt lat="46.7542" lon="-2.01463">
        <ele>48.862282</ele>
        <time>2022-12-18T10:56:45.595Z</time>
      </trkpt>
      <trkpt lat="46.75412" lon="-2.01453">
        <ele>48.869073</ele>
        <time>2022-12-18T10:56:48.599Z</time>
      </trkpt>
      <trkpt lat="46.75402" lon="-2.01446">
        <ele>48.875383</ele>
        <time>2022-12-18T10:56:51.592Z</time>
      </trkpt>
      <trkpt lat="46.75393" lon="-2.0144">
        <ele>48.881609</ele>
        <time>2022-12-18T10:56:54.615Z</time>
      </trkpt>
      <trkpt lat="46.75383" lon="-2.01433">
        <ele>48.888306</ele>
        <time>2022-12-18T10:56:58.601Z</time>
      </trkpt>
      <trkpt lat="46.75374" lon="-2.01432">
        <ele>48.894081</ele>
        <time>2022-12-18T10:57:02.613Z</time>
      </trkpt>
      <trkpt lat="46.75365" lon="-2.01435">
        <ele>48.899934</ele>
        <time>2022-12-18T10:57:05.587Z</time>
      </trkpt>
      <trkpt lat="46.75355" lon="-2.01441">
        <ele>48.906282</ele>
        <time>2022-12-18T10:57:08.600Z</time>
      </trkpt>
      <trkpt lat="46.75346" lon="-2.01447">
        <ele>48.912751</ele>
        <time>2022-12-18T10:57:11.596Z</time>
      </trkpt>
      <trkpt lat="46.75335" lon="-2.01452">
        <ele>48.919735</ele>
        <time>2022-12-18T10:57:14.609Z</time>
      </trkpt>
      <trkpt lat="46.75324" lon="-2.01459">
        <ele>48.927196</ele>
        <time>2022-12-18T10:57:17.607Z</time>
      </trkpt>
      <trkpt lat="46.75312" lon="-2.01465">
        <ele>48.934786</ele>
        <time>2022-12-18T10:57:20.618Z</time>
      </trkpt>
      <trkpt lat="46.75301" lon="-2.01472">
        <ele>48.942489</ele>
        <time>2022-12-18T10:57:23.615Z</time>
      </trkpt>
      <trkpt lat="46.7529" lon="-2.01478">
        <ele>48.949732</ele>
        <time>2022-12-18T10:57:26.609Z</time>
      </trkpt>
      <trkpt lat="46.75279" lon="-2.01485">
        <ele>48.95866</ele>
        <time>2022-12-18T10:57:30.611Z</time>
      </trkpt>
      <trkpt lat="46.7527" lon="-2.0149">
        <ele>48.966363</ele>
        <time>2022-12-18T10:57:34.606Z</time>
      </trkpt>
      <trkpt lat="46.75254" lon="-2.01498">
        <ele>48.979808</ele>
        <time>2022-12-18T10:58:44.594Z</time>
      </trkpt>
      <trkpt lat="46.75244" lon="-2.01503">
        <ele>48.987639</ele>
        <time>2022-12-18T10:58:47.585Z</time>
      </trkpt>
      <trkpt lat="46.75234" lon="-2.01509">
        <ele>48.996374</ele>
        <time>2022-12-18T10:58:50.590Z</time>
      </trkpt>
      <trkpt lat="46.75223" lon="-2.01515">
        <ele>49.005518</ele>
        <time>2022-12-18T10:58:53.607Z</time>
      </trkpt>
      <trkpt lat="46.75212" lon="-2.01522">
        <ele>49.015107</ele>
        <time>2022-12-18T10:58:56.600Z</time>
      </trkpt>
      <trkpt lat="46.752" lon="-2.0153">
        <ele>49.025149</ele>
        <time>2022-12-18T10:58:59.600Z</time>
      </trkpt>
      <trkpt lat="46.75189" lon="-2.01538">
        <ele>49.034981</ele>
        <time>2022-12-18T10:59:02.582Z</time>
      </trkpt>
      <trkpt lat="46.75179" lon="-2.01545">
        <ele>49.043994</ele>
        <time>2022-12-18T10:59:05.614Z</time>
      </trkpt>
      <trkpt lat="46.75169" lon="-2.01553">
        <ele>49.05289</ele>
        <time>2022-12-18T10:59:08.610Z</time>
      </trkpt>
      <trkpt lat="46.75158" lon="-2.01562">
        <ele>49.062342</ele>
        <time>2022-12-18T10:59:11.601Z</time>
      </trkpt>
      <trkpt lat="46.75148" lon="-2.01572">
        <ele>49.071807</ele>
        <time>2022-12-18T10:59:14.591Z</time>
      </trkpt>
      <trkpt lat="46.75139" lon="-2.01582">
        <ele>49.080475</ele>
        <time>2022-12-18T10:59:17.586Z</time>
      </trkpt>
      <trkpt lat="46.75135" lon="-2.01598">
        <ele>49.090724</ele>
        <time>2022-12-18T10:59:21.581Z</time>
      </trkpt>
      <trkpt lat="46.75133" lon="-2.01612">
        <ele>49.142487</ele>
        <time>2022-12-18T10:59:24.608Z</time>
      </trkpt>
      <trkpt lat="46.75129" lon="-2.01624">
        <ele>49.191243</ele>
        <time>2022-12-18T10:59:27.587Z</time>
      </trkpt>
      <trkpt lat="46.75119" lon="-2.01627">
        <ele>49.245116</ele>
        <time>2022-12-18T10:59:31.594Z</time>
      </trkpt>
      <trkpt lat="46.7511" lon="-2.01617">
        <ele>49.302584</ele>
        <time>2022-12-18T10:59:35.592Z</time>
      </trkpt>
      <trkpt lat="46.75106" lon="-2.01603">
        <ele>49.355188</ele>
        <time>2022-12-18T10:59:38.594Z</time>
      </trkpt>
      <trkpt lat="46.75102" lon="-2.01589">
        <ele>49.411653</ele>
        <time>2022-12-18T10:59:41.601Z</time>
      </trkpt>
      <trkpt lat="46.75093" lon="-2.01578">
        <ele>49.471019</ele>
        <time>2022-12-18T10:59:44.595Z</time>
      </trkpt>
      <trkpt lat="46.75084" lon="-2.01568">
        <ele>49.530991</ele>
        <time>2022-12-18T10:59:47.609Z</time>
      </trkpt>
      <trkpt lat="46.75075" lon="-2.01558">
        <ele>49.591385</ele>
        <time>2022-12-18T10:59:50.605Z</time>
      </trkpt>
      <trkpt lat="46.75066" lon="-2.01547">
        <ele>49.653278</ele>
        <time>2022-12-18T10:59:53.606Z</time>
      </trkpt>
      <trkpt lat="46.75057" lon="-2.01535">
        <ele>49.716084</ele>
        <time>2022-12-18T10:59:56.602Z</time>
      </trkpt>
      <trkpt lat="46.75049" lon="-2.01522">
        <ele>49.78053</ele>
        <time>2022-12-18T10:59:59.603Z</time>
      </trkpt>
      <trkpt lat="46.7504" lon="-2.01509">
        <ele>49.844052</ele>
        <time>2022-12-18T11:00:02.600Z</time>
      </trkpt>
      <trkpt lat="46.75033" lon="-2.01496">
        <ele>49.904747</ele>
        <time>2022-12-18T11:00:05.605Z</time>
      </trkpt>
      <trkpt lat="46.75025" lon="-2.01486">
        <ele>49.960027</ele>
        <time>2022-12-18T11:00:08.614Z</time>
      </trkpt>
      <trkpt lat="46.75015" lon="-2.0148">
        <ele>50.014757</ele>
        <time>2022-12-18T11:00:11.593Z</time>
      </trkpt>
      <trkpt lat="46.75007" lon="-2.01471">
        <ele>50.118576</ele>
        <time>2022-12-18T11:00:15.602Z</time>
      </trkpt>
      <trkpt lat="46.75003" lon="-2.01458">
        <ele>50.224205</ele>
        <time>2022-12-18T11:00:18.605Z</time>
      </trkpt>
      <trkpt lat="46.74997" lon="-2.01448">
        <ele>50.338573</ele>
        <time>2022-12-18T11:00:21.588Z</time>
      </trkpt>
      <trkpt lat="46.74991" lon="-2.01436">
        <ele>50.458755</ele>
        <time>2022-12-18T11:00:24.612Z</time>
      </trkpt>
      <trkpt lat="46.74983" lon="-2.01424">
        <ele>50.586681</ele>
        <time>2022-12-18T11:00:27.611Z</time>
      </trkpt>
      <trkpt lat="46.74976" lon="-2.01411">
        <ele>50.722688</ele>
        <time>2022-12-18T11:00:30.605Z</time>
      </trkpt>
      <trkpt lat="46.74968" lon="-2.01398">
        <ele>50.861162</ele>
        <time>2022-12-18T11:00:33.585Z</time>
      </trkpt>
      <trkpt lat="46.74962" lon="-2.01384">
        <ele>50.994957</ele>
        <time>2022-12-18T11:00:36.606Z</time>
      </trkpt>
      <trkpt lat="46.74954" lon="-2.01375">
        <ele>51.114018</ele>
        <time>2022-12-18T11:00:39.592Z</time>
      </trkpt>
      <trkpt lat="46.74946" lon="-2.01361">
        <ele>51.252913</ele>
        <time>2022-12-18T11:00:43.595Z</time>
      </trkpt>
      <trkpt lat="46.74939" lon="-2.01353">
        <ele>51.36592</ele>
        <time>2022-12-18T11:00:46.596Z</time>
      </trkpt>
      <trkpt lat="46.74929" lon="-2.01346">
        <ele>51.488019</ele>
        <time>2022-12-18T11:00:49.585Z</time>
      </trkpt>
      <trkpt lat="46.74919" lon="-2.01341">
        <ele>51.610632</ele>
        <time>2022-12-18T11:00:52.604Z</time>
      </trkpt>
      <trkpt lat="46.74909" lon="-2.01336">
        <ele>51.735833</ele>
        <time>2022-12-18T11:00:55.586Z</time>
      </trkpt>
      <trkpt lat="46.74899" lon="-2.0133">
        <ele>51.861002</ele>
        <time>2022-12-18T11:00:58.598Z</time>
      </trkpt>
      <trkpt lat="46.74889" lon="-2.01325">
        <ele>51.991855</ele>
        <time>2022-12-18T11:01:01.606Z</time>
      </trkpt>
      <trkpt lat="46.74878" lon="-2.01319">
        <ele>52.128756</ele>
        <time>2022-12-18T11:01:04.607Z</time>
      </trkpt>
      <trkpt lat="46.74867" lon="-2.01313">
        <ele>52.163275</ele>
        <time>2022-12-18T11:01:07.607Z</time>
      </trkpt>
      <trkpt lat="46.74856" lon="-2.01307">
        <ele>52.190128</ele>
        <time>2022-12-18T11:01:10.605Z</time>
      </trkpt>
      <trkpt lat="46.74844" lon="-2.01301">
        <ele>52.217564</ele>
        <time>2022-12-18T11:01:13.611Z</time>
      </trkpt>
      <trkpt lat="46.74833" lon="-2.01294">
        <ele>52.246301</ele>
        <time>2022-12-18T11:01:16.604Z</time>
      </trkpt>
      <trkpt lat="46.74821" lon="-2.01288">
        <ele>52.27523</ele>
        <time>2022-12-18T11:01:19.612Z</time>
      </trkpt>
      <trkpt lat="46.74809" lon="-2.0128">
        <ele>52.304625</ele>
        <time>2022-12-18T11:01:22.613Z</time>
      </trkpt>
      <trkpt lat="46.74797" lon="-2.01273">
        <ele>52.334145</ele>
        <time>2022-12-18T11:01:25.588Z</time>
      </trkpt>
      <trkpt lat="46.74784" lon="-2.01265">
        <ele>52.364799</ele>
        <time>2022-12-18T11:01:28.602Z</time>
      </trkpt>
      <trkpt lat="46.74776" lon="-2.01261">
        <ele>52.3853</ele>
        <time>2022-12-18T11:01:30.605Z</time>
      </trkpt>
      <trkpt lat="46.74764" lon="-2.01254">
        <ele>52.413908</ele>
        <time>2022-12-18T11:01:33.615Z</time>
      </trkpt>
      <trkpt lat="46.74752" lon="-2.01247">
        <ele>52.443219</ele>
        <time>2022-12-18T11:01:36.614Z</time>
      </trkpt>
      <trkpt lat="46.7474" lon="-2.01239">
        <ele>52.472947</ele>
        <time>2022-12-18T11:01:39.628Z</time>
      </trkpt>
      <trkpt lat="46.74729" lon="-2.01232">
        <ele>52.501624</ele>
        <time>2022-12-18T11:01:42.596Z</time>
      </trkpt>
      <trkpt lat="46.74718" lon="-2.01225">
        <ele>52.529085</ele>
        <time>2022-12-18T11:01:45.614Z</time>
      </trkpt>
      <trkpt lat="46.74707" lon="-2.01217">
        <ele>52.488601</ele>
        <time>2022-12-18T11:01:48.603Z</time>
      </trkpt>
      <trkpt lat="46.74695" lon="-2.01209">
        <ele>52.303922</ele>
        <time>2022-12-18T11:01:51.602Z</time>
      </trkpt>
      <trkpt lat="46.74687" lon="-2.01204">
        <ele>52.177123</ele>
        <time>2022-12-18T11:01:53.589Z</time>
      </trkpt>
      <trkpt lat="46.74675" lon="-2.01195">
        <ele>51.98601</ele>
        <time>2022-12-18T11:01:56.603Z</time>
      </trkpt>
      <trkpt lat="46.74667" lon="-2.01189">
        <ele>51.85498</ele>
        <time>2022-12-18T11:01:58.602Z</time>
      </trkpt>
      <trkpt lat="46.74659" lon="-2.01182">
        <ele>51.726444</ele>
        <time>2022-12-18T11:02:00.589Z</time>
      </trkpt>
      <trkpt lat="46.74648" lon="-2.01171">
        <ele>51.544201</ele>
        <time>2022-12-18T11:02:03.610Z</time>
      </trkpt>
      <trkpt lat="46.74638" lon="-2.01161">
        <ele>51.370106</ele>
        <time>2022-12-18T11:02:06.589Z</time>
      </trkpt>
      <trkpt lat="46.7463" lon="-2.0115">
        <ele>51.210423</ele>
        <time>2022-12-18T11:02:09.601Z</time>
      </trkpt>
      <trkpt lat="46.74622" lon="-2.01139">
        <ele>51.051019</ele>
        <time>2022-12-18T11:02:12.603Z</time>
      </trkpt>
      <trkpt lat="46.74612" lon="-2.01128">
        <ele>50.877992</ele>
        <time>2022-12-18T11:02:15.596Z</time>
      </trkpt>
      <trkpt lat="46.74602" lon="-2.01116">
        <ele>50.69444</ele>
        <time>2022-12-18T11:02:18.605Z</time>
      </trkpt>
      <trkpt lat="46.74595" lon="-2.01107">
        <ele>50.56385</ele>
        <time>2022-12-18T11:02:20.603Z</time>
      </trkpt>
      <trkpt lat="46.74588" lon="-2.01098">
        <ele>50.430494</ele>
        <time>2022-12-18T11:02:22.600Z</time>
      </trkpt>
      <trkpt lat="46.74581" lon="-2.0109">
        <ele>50.292014</ele>
        <time>2022-12-18T11:02:24.584Z</time>
      </trkpt>
      <trkpt lat="46.74573" lon="-2.01081">
        <ele>50.157155</ele>
        <time>2022-12-18T11:02:26.604Z</time>
      </trkpt>
      <trkpt lat="46.74566" lon="-2.01072">
        <ele>50.023082</ele>
        <time>2022-12-18T11:02:28.588Z</time>
      </trkpt>
      <trkpt lat="46.74558" lon="-2.01063">
        <ele>49.908326</ele>
        <time>2022-12-18T11:02:30.605Z</time>
      </trkpt>
      <trkpt lat="46.74548" lon="-2.01051">
        <ele>49.760096</ele>
        <time>2022-12-18T11:02:33.607Z</time>
      </trkpt>
      <trkpt lat="46.74539" lon="-2.01039">
        <ele>49.623336</ele>
        <time>2022-12-18T11:02:36.604Z</time>
      </trkpt>
      <trkpt lat="46.7453" lon="-2.0103">
        <ele>49.498739</ele>
        <time>2022-12-18T11:02:39.609Z</time>
      </trkpt>
      <trkpt lat="46.74519" lon="-2.01021">
        <ele>49.361223</ele>
        <time>2022-12-18T11:02:42.605Z</time>
      </trkpt>
      <trkpt lat="46.74508" lon="-2.01011">
        <ele>49.216922</ele>
        <time>2022-12-18T11:02:45.604Z</time>
      </trkpt>
      <trkpt lat="46.74497" lon="-2.01001">
        <ele>49.06745</ele>
        <time>2022-12-18T11:02:48.591Z</time>
      </trkpt>
      <trkpt lat="46.74489" lon="-2.00995">
        <ele>48.967536</ele>
        <time>2022-12-18T11:02:50.600Z</time>
      </trkpt>
      <trkpt lat="46.74477" lon="-2.00985">
        <ele>48.820575</ele>
        <time>2022-12-18T11:02:53.612Z</time>
      </trkpt>
      <trkpt lat="46.7447" lon="-2.00978">
        <ele>48.719126</ele>
        <time>2022-12-18T11:02:55.604Z</time>
      </trkpt>
      <trkpt lat="46.74458" lon="-2.00969">
        <ele>48.571004</ele>
        <time>2022-12-18T11:02:58.604Z</time>
      </trkpt>
      <trkpt lat="46.7445" lon="-2.00961">
        <ele>48.464706</ele>
        <time>2022-12-18T11:03:00.604Z</time>
      </trkpt>
      <trkpt lat="46.74442" lon="-2.00955">
        <ele>48.358798</ele>
        <time>2022-12-18T11:03:02.598Z</time>
      </trkpt>
      <trkpt lat="46.74434" lon="-2.00948">
        <ele>48.256775</ele>
        <time>2022-12-18T11:03:04.615Z</time>
      </trkpt>
      <trkpt lat="46.74422" lon="-2.00938">
        <ele>48.102374</ele>
        <time>2022-12-18T11:03:07.608Z</time>
      </trkpt>
      <trkpt lat="46.74414" lon="-2.00931">
        <ele>47.996204</ele>
        <time>2022-12-18T11:03:09.614Z</time>
      </trkpt>
      <trkpt lat="46.74406" lon="-2.00924">
        <ele>47.992032</ele>
        <time>2022-12-18T11:03:11.603Z</time>
      </trkpt>
      <trkpt lat="46.74397" lon="-2.00916">
        <ele>48.005755</ele>
        <time>2022-12-18T11:03:13.605Z</time>
      </trkpt>
      <trkpt lat="46.74389" lon="-2.00909">
        <ele>48.019154</ele>
        <time>2022-12-18T11:03:15.604Z</time>
      </trkpt>
      <trkpt lat="46.74381" lon="-2.00902">
        <ele>48.032859</ele>
        <time>2022-12-18T11:03:17.614Z</time>
      </trkpt>
      <trkpt lat="46.7437" lon="-2.00893">
        <ele>48.051518</ele>
        <time>2022-12-18T11:03:20.591Z</time>
      </trkpt>
      <trkpt lat="46.7436" lon="-2.00883">
        <ele>48.067971</ele>
        <time>2022-12-18T11:03:23.586Z</time>
      </trkpt>
      <trkpt lat="46.74351" lon="-2.00873">
        <ele>48.084705</ele>
        <time>2022-12-18T11:03:26.604Z</time>
      </trkpt>
      <trkpt lat="46.74341" lon="-2.00862">
        <ele>48.102184</ele>
        <time>2022-12-18T11:03:29.606Z</time>
      </trkpt>
      <trkpt lat="46.74332" lon="-2.00848">
        <ele>48.120583</ele>
        <time>2022-12-18T11:03:32.585Z</time>
      </trkpt>
      <trkpt lat="46.74323" lon="-2.00835">
        <ele>48.139065</ele>
        <time>2022-12-18T11:03:35.586Z</time>
      </trkpt>
      <trkpt lat="46.74315" lon="-2.00821">
        <ele>48.157399</ele>
        <time>2022-12-18T11:03:38.604Z</time>
      </trkpt>
      <trkpt lat="46.74306" lon="-2.00807">
        <ele>48.175951</ele>
        <time>2022-12-18T11:03:41.615Z</time>
      </trkpt>
      <trkpt lat="46.74297" lon="-2.00794">
        <ele>48.19425</ele>
        <time>2022-12-18T11:03:44.606Z</time>
      </trkpt>
      <trkpt lat="46.74289" lon="-2.00779">
        <ele>48.212839</ele>
        <time>2022-12-18T11:03:47.607Z</time>
      </trkpt>
      <trkpt lat="46.74279" lon="-2.00765">
        <ele>48.231872</ele>
        <time>2022-12-18T11:03:50.612Z</time>
      </trkpt>
      <trkpt lat="46.74271" lon="-2.00751">
        <ele>48.314813</ele>
        <time>2022-12-18T11:03:53.603Z</time>
      </trkpt>
      <trkpt lat="46.74262" lon="-2.00736">
        <ele>48.423434</ele>
        <time>2022-12-18T11:03:56.602Z</time>
      </trkpt>
      <trkpt lat="46.74254" lon="-2.00722">
        <ele>48.533599</ele>
        <time>2022-12-18T11:03:59.604Z</time>
      </trkpt>
      <trkpt lat="46.74244" lon="-2.00708">
        <ele>48.646208</ele>
        <time>2022-12-18T11:04:02.603Z</time>
      </trkpt>
      <trkpt lat="46.74238" lon="-2.00698">
        <ele>48.723805</ele>
        <time>2022-12-18T11:04:04.606Z</time>
      </trkpt>
      <trkpt lat="46.74232" lon="-2.00688">
        <ele>48.801647</ele>
        <time>2022-12-18T11:04:06.590Z</time>
      </trkpt>
      <trkpt lat="46.74226" lon="-2.00678">
        <ele>48.879874</ele>
        <time>2022-12-18T11:04:08.602Z</time>
      </trkpt>
      <trkpt lat="46.74219" lon="-2.00668">
        <ele>48.958352</ele>
        <time>2022-12-18T11:04:10.606Z</time>
      </trkpt>
      <trkpt lat="46.74212" lon="-2.00659">
        <ele>49.037002</ele>
        <time>2022-12-18T11:04:12.589Z</time>
      </trkpt>
      <trkpt lat="46.74205" lon="-2.0065">
        <ele>49.114712</ele>
        <time>2022-12-18T11:04:14.615Z</time>
      </trkpt>
      <trkpt lat="46.74199" lon="-2.0064">
        <ele>49.192357</ele>
        <time>2022-12-18T11:04:16.605Z</time>
      </trkpt>
      <trkpt lat="46.74189" lon="-2.00627">
        <ele>49.305196</ele>
        <time>2022-12-18T11:04:19.605Z</time>
      </trkpt>
      <trkpt lat="46.74179" lon="-2.00614">
        <ele>49.415953</ele>
        <time>2022-12-18T11:04:22.609Z</time>
      </trkpt>
      <trkpt lat="46.7417" lon="-2.00601">
        <ele>49.521883</ele>
        <time>2022-12-18T11:04:25.602Z</time>
      </trkpt>
      <trkpt lat="46.74162" lon="-2.0059">
        <ele>49.612965</ele>
        <time>2022-12-18T11:04:28.601Z</time>
      </trkpt>
      <trkpt lat="46.74155" lon="-2.00579">
        <ele>49.702489</ele>
        <time>2022-12-18T11:04:31.592Z</time>
      </trkpt>
      <trkpt lat="46.74147" lon="-2.00568">
        <ele>49.778881</ele>
        <time>2022-12-18T11:04:34.587Z</time>
      </trkpt>
      <trkpt lat="46.74139" lon="-2.00557">
        <ele>49.845502</ele>
        <time>2022-12-18T11:04:37.614Z</time>
      </trkpt>
      <trkpt lat="46.7413" lon="-2.00544">
        <ele>49.916644</ele>
        <time>2022-12-18T11:04:40.602Z</time>
      </trkpt>
      <trkpt lat="46.74122" lon="-2.00531">
        <ele>49.989152</ele>
        <time>2022-12-18T11:04:43.605Z</time>
      </trkpt>
      <trkpt lat="46.74114" lon="-2.00518">
        <ele>50.060078</ele>
        <time>2022-12-18T11:04:46.605Z</time>
      </trkpt>
      <trkpt lat="46.74106" lon="-2.00506">
        <ele>50.126587</ele>
        <time>2022-12-18T11:04:49.610Z</time>
      </trkpt>
      <trkpt lat="46.741" lon="-2.00494">
        <ele>50.186427</ele>
        <time>2022-12-18T11:04:52.602Z</time>
      </trkpt>
      <trkpt lat="46.74094" lon="-2.00482">
        <ele>50.245734</ele>
        <time>2022-12-18T11:04:55.605Z</time>
      </trkpt>
      <trkpt lat="46.74088" lon="-2.00469">
        <ele>50.308738</ele>
        <time>2022-12-18T11:04:58.603Z</time>
      </trkpt>
      <trkpt lat="46.74083" lon="-2.00455">
        <ele>50.372879</ele>
        <time>2022-12-18T11:05:01.603Z</time>
      </trkpt>
      <trkpt lat="46.74077" lon="-2.00442">
        <ele>50.43585</ele>
        <time>2022-12-18T11:05:04.608Z</time>
      </trkpt>
      <trkpt lat="46.74071" lon="-2.00427">
        <ele>50.502259</ele>
        <time>2022-12-18T11:05:07.603Z</time>
      </trkpt>
      <trkpt lat="46.74067" lon="-2.00412">
        <ele>50.568497</ele>
        <time>2022-12-18T11:05:10.614Z</time>
      </trkpt>
      <trkpt lat="46.74064" lon="-2.00396">
        <ele>50.636948</ele>
        <time>2022-12-18T11:05:13.590Z</time>
      </trkpt>
      <trkpt lat="46.74063" lon="-2.00378">
        <ele>50.706886</ele>
        <time>2022-12-18T11:05:16.592Z</time>
      </trkpt>
      <trkpt lat="46.74063" lon="-2.0036">
        <ele>50.779604</ele>
        <time>2022-12-18T11:05:19.614Z</time>
      </trkpt>
      <trkpt lat="46.74066" lon="-2.00342">
        <ele>50.703206</ele>
        <time>2022-12-18T11:05:22.603Z</time>
      </trkpt>
      <trkpt lat="46.74071" lon="-2.00324">
        <ele>50.564616</ele>
        <time>2022-12-18T11:05:25.596Z</time>
      </trkpt>
      <trkpt lat="46.74075" lon="-2.00305">
        <ele>50.422949</ele>
        <time>2022-12-18T11:05:28.603Z</time>
      </trkpt>
      <trkpt lat="46.74078" lon="-2.00292">
        <ele>50.325299</ele>
        <time>2022-12-18T11:05:30.616Z</time>
      </trkpt>
      <trkpt lat="46.74082" lon="-2.00279">
        <ele>50.225557</ele>
        <time>2022-12-18T11:05:32.605Z</time>
      </trkpt>
      <trkpt lat="46.74085" lon="-2.00266">
        <ele>50.124371</ele>
        <time>2022-12-18T11:05:34.610Z</time>
      </trkpt>
      <trkpt lat="46.74089" lon="-2.00254">
        <ele>50.025446</ele>
        <time>2022-12-18T11:05:36.595Z</time>
      </trkpt>
      <trkpt lat="46.74093" lon="-2.00241">
        <ele>49.927597</ele>
        <time>2022-12-18T11:05:38.589Z</time>
      </trkpt>
      <trkpt lat="46.74097" lon="-2.00229">
        <ele>49.829137</ele>
        <time>2022-12-18T11:05:40.612Z</time>
      </trkpt>
      <trkpt lat="46.741" lon="-2.00215">
        <ele>49.724597</ele>
        <time>2022-12-18T11:05:42.608Z</time>
      </trkpt>
      <trkpt lat="46.74103" lon="-2.00203">
        <ele>49.629343</ele>
        <time>2022-12-18T11:05:44.610Z</time>
      </trkpt>
      <trkpt lat="46.74107" lon="-2.00191">
        <ele>49.533347</ele>
        <time>2022-12-18T11:05:46.602Z</time>
      </trkpt>
      <trkpt lat="46.74111" lon="-2.00174">
        <ele>49.402504</ele>
        <time>2022-12-18T11:05:49.602Z</time>
      </trkpt>
      <trkpt lat="46.74115" lon="-2.00157">
        <ele>49.275097</ele>
        <time>2022-12-18T11:05:52.589Z</time>
      </trkpt>
      <trkpt lat="46.74118" lon="-2.0014">
        <ele>49.146307</ele>
        <time>2022-12-18T11:05:55.603Z</time>
      </trkpt>
      <trkpt lat="46.74121" lon="-2.00122">
        <ele>49.01097</ele>
        <time>2022-12-18T11:05:58.587Z</time>
      </trkpt>
      <trkpt lat="46.74124" lon="-2.00103">
        <ele>48.939493</ele>
        <time>2022-12-18T11:06:01.607Z</time>
      </trkpt>
      <trkpt lat="46.74127" lon="-2.0009">
        <ele>49.023039</ele>
        <time>2022-12-18T11:06:03.603Z</time>
      </trkpt>
      <trkpt lat="46.74128" lon="-2.00076">
        <ele>49.106384</ele>
        <time>2022-12-18T11:06:05.612Z</time>
      </trkpt>
      <trkpt lat="46.7413" lon="-2.00062">
        <ele>49.196164</ele>
        <time>2022-12-18T11:06:07.594Z</time>
      </trkpt>
      <trkpt lat="46.74132" lon="-2.00049">
        <ele>49.281504</ele>
        <time>2022-12-18T11:06:09.604Z</time>
      </trkpt>
      <trkpt lat="46.74133" lon="-2.00034">
        <ele>49.370955</ele>
        <time>2022-12-18T11:06:11.609Z</time>
      </trkpt>
      <trkpt lat="46.74135" lon="-2.0002">
        <ele>49.459123</ele>
        <time>2022-12-18T11:06:13.604Z</time>
      </trkpt>
      <trkpt lat="46.74135" lon="-2.00006">
        <ele>49.547356</ele>
        <time>2022-12-18T11:06:15.614Z</time>
      </trkpt>
      <trkpt lat="46.74136" lon="-1.99993">
        <ele>49.629054</ele>
        <time>2022-12-18T11:06:17.615Z</time>
      </trkpt>
      <trkpt lat="46.74137" lon="-1.99974">
        <ele>49.746066</ele>
        <time>2022-12-18T11:06:20.603Z</time>
      </trkpt>
      <trkpt lat="46.74138" lon="-1.99957">
        <ele>49.854347</ele>
        <time>2022-12-18T11:06:23.604Z</time>
      </trkpt>
      <trkpt lat="46.74139" lon="-1.99938">
        <ele>49.968611</ele>
        <time>2022-12-18T11:06:26.611Z</time>
      </trkpt>
      <trkpt lat="46.7414" lon="-1.9992">
        <ele>50.082605</ele>
        <time>2022-12-18T11:06:29.601Z</time>
      </trkpt>
      <trkpt lat="46.74141" lon="-1.99901">
        <ele>50.198819</ele>
        <time>2022-12-18T11:06:32.591Z</time>
      </trkpt>
      <trkpt lat="46.74142" lon="-1.99882">
        <ele>50.319421</ele>
        <time>2022-12-18T11:06:35.606Z</time>
      </trkpt>
      <trkpt lat="46.74143" lon="-1.99862">
        <ele>50.442002</ele>
        <time>2022-12-18T11:06:38.608Z</time>
      </trkpt>
      <trkpt lat="46.74145" lon="-1.99844">
        <ele>50.533328</ele>
        <time>2022-12-18T11:06:41.614Z</time>
      </trkpt>
      <trkpt lat="46.74145" lon="-1.9983">
        <ele>50.523212</ele>
        <time>2022-12-18T11:06:43.590Z</time>
      </trkpt>
      <trkpt lat="46.74146" lon="-1.99811">
        <ele>50.509069</ele>
        <time>2022-12-18T11:06:46.614Z</time>
      </trkpt>
      <trkpt lat="46.74147" lon="-1.99798">
        <ele>50.498805</ele>
        <time>2022-12-18T11:06:48.614Z</time>
      </trkpt>
      <trkpt lat="46.74148" lon="-1.99785">
        <ele>50.488902</ele>
        <time>2022-12-18T11:06:50.608Z</time>
      </trkpt>
      <trkpt lat="46.74149" lon="-1.99771">
        <ele>50.478988</ele>
        <time>2022-12-18T11:06:52.598Z</time>
      </trkpt>
      <trkpt lat="46.7415" lon="-1.99758">
        <ele>50.469112</ele>
        <time>2022-12-18T11:06:54.606Z</time>
      </trkpt>
      <trkpt lat="46.74151" lon="-1.99739">
        <ele>50.454773</ele>
        <time>2022-12-18T11:06:57.606Z</time>
      </trkpt>
      <trkpt lat="46.74152" lon="-1.9972">
        <ele>50.440421</ele>
        <time>2022-12-18T11:07:00.604Z</time>
      </trkpt>
      <trkpt lat="46.74153" lon="-1.99706">
        <ele>50.429726</ele>
        <time>2022-12-18T11:07:02.615Z</time>
      </trkpt>
      <trkpt lat="46.74153" lon="-1.99691">
        <ele>50.418893</ele>
        <time>2022-12-18T11:07:04.610Z</time>
      </trkpt>
      <trkpt lat="46.74155" lon="-1.99677">
        <ele>50.408272</ele>
        <time>2022-12-18T11:07:06.600Z</time>
      </trkpt>
      <trkpt lat="46.74156" lon="-1.99661">
        <ele>50.396497</ele>
        <time>2022-12-18T11:07:08.604Z</time>
      </trkpt>
      <trkpt lat="46.74159" lon="-1.99648">
        <ele>50.385993</ele>
        <time>2022-12-18T11:07:10.588Z</time>
      </trkpt>
      <trkpt lat="46.74162" lon="-1.9963">
        <ele>50.372138</ele>
        <time>2022-12-18T11:07:13.603Z</time>
      </trkpt>
      <trkpt lat="46.74166" lon="-1.99613">
        <ele>50.35899</ele>
        <time>2022-12-18T11:07:16.605Z</time>
      </trkpt>
      <trkpt lat="46.74171" lon="-1.99596">
        <ele>50.345042</ele>
        <time>2022-12-18T11:07:19.585Z</time>
      </trkpt>
      <trkpt lat="46.74175" lon="-1.99578">
        <ele>50.31682</ele>
        <time>2022-12-18T11:07:22.604Z</time>
      </trkpt>
      <trkpt lat="46.7418" lon="-1.99562">
        <ele>50.282457</ele>
        <time>2022-12-18T11:07:25.613Z</time>
      </trkpt>
      <trkpt lat="46.74185" lon="-1.99546">
        <ele>50.248216</ele>
        <time>2022-12-18T11:07:28.602Z</time>
      </trkpt>
      <trkpt lat="46.74191" lon="-1.99528">
        <ele>50.210124</ele>
        <time>2022-12-18T11:07:31.614Z</time>
      </trkpt>
      <trkpt lat="46.74194" lon="-1.99515">
        <ele>50.184772</ele>
        <time>2022-12-18T11:07:33.601Z</time>
      </trkpt>
      <trkpt lat="46.74197" lon="-1.99502">
        <ele>50.158516</ele>
        <time>2022-12-18T11:07:35.610Z</time>
      </trkpt>
      <trkpt lat="46.74201" lon="-1.99485">
        <ele>50.123176</ele>
        <time>2022-12-18T11:07:38.611Z</time>
      </trkpt>
      <trkpt lat="46.74205" lon="-1.99467">
        <ele>50.086449</ele>
        <time>2022-12-18T11:07:41.593Z</time>
      </trkpt>
      <trkpt lat="46.74208" lon="-1.9945">
        <ele>50.05329</ele>
        <time>2022-12-18T11:07:44.607Z</time>
      </trkpt>
      <trkpt lat="46.74211" lon="-1.99433">
        <ele>50.019723</ele>
        <time>2022-12-18T11:07:47.606Z</time>
      </trkpt>
      <trkpt lat="46.74214" lon="-1.99415">
        <ele>49.984933</ele>
        <time>2022-12-18T11:07:50.588Z</time>
      </trkpt>
      <trkpt lat="46.74216" lon="-1.99397">
        <ele>49.949151</ele>
        <time>2022-12-18T11:07:53.616Z</time>
      </trkpt>
      <trkpt lat="46.74216" lon="-1.99377">
        <ele>49.911671</ele>
        <time>2022-12-18T11:07:56.609Z</time>
      </trkpt>
      <trkpt lat="46.74214" lon="-1.99359">
        <ele>49.876079</ele>
        <time>2022-12-18T11:07:59.589Z</time>
      </trkpt>
      <trkpt lat="46.7421" lon="-1.99345">
        <ele>49.846638</ele>
        <time>2022-12-18T11:08:02.588Z</time>
      </trkpt>
      <trkpt lat="46.74205" lon="-1.99333">
        <ele>49.831318</ele>
        <time>2022-12-18T11:08:05.597Z</time>
      </trkpt>
      <trkpt lat="46.74197" lon="-1.99325">
        <ele>49.824245</ele>
        <time>2022-12-18T11:08:08.591Z</time>
      </trkpt>
      <trkpt lat="46.74188" lon="-1.99317">
        <ele>49.816257</ele>
        <time>2022-12-18T11:08:11.614Z</time>
      </trkpt>
      <trkpt lat="46.74182" lon="-1.99304">
        <ele>49.808328</ele>
        <time>2022-12-18T11:08:14.591Z</time>
      </trkpt>
      <trkpt lat="46.74184" lon="-1.99288">
        <ele>49.800216</ele>
        <time>2022-12-18T11:08:17.591Z</time>
      </trkpt>
      <trkpt lat="46.74193" lon="-1.99278">
        <ele>49.791672</ele>
        <time>2022-12-18T11:08:20.593Z</time>
      </trkpt>
      <trkpt lat="46.74201" lon="-1.99263">
        <ele>49.7824</ele>
        <time>2022-12-18T11:08:23.596Z</time>
      </trkpt>
      <trkpt lat="46.74201" lon="-1.99244">
        <ele>49.772283</ele>
        <time>2022-12-18T11:08:26.595Z</time>
      </trkpt>
      <trkpt lat="46.74199" lon="-1.9923">
        <ele>49.765518</ele>
        <time>2022-12-18T11:08:28.596Z</time>
      </trkpt>
      <trkpt lat="46.74197" lon="-1.99218">
        <ele>49.758794</ele>
        <time>2022-12-18T11:08:30.611Z</time>
      </trkpt>
      <trkpt lat="46.74195" lon="-1.99198">
        <ele>49.748886</ele>
        <time>2022-12-18T11:08:33.595Z</time>
      </trkpt>
      <trkpt lat="46.74192" lon="-1.99185">
        <ele>49.74198</ele>
        <time>2022-12-18T11:08:35.591Z</time>
      </trkpt>
      <trkpt lat="46.74191" lon="-1.99172">
        <ele>49.735279</ele>
        <time>2022-12-18T11:08:37.598Z</time>
      </trkpt>
      <trkpt lat="46.74189" lon="-1.99153">
        <ele>49.725282</ele>
        <time>2022-12-18T11:08:40.606Z</time>
      </trkpt>
      <trkpt lat="46.74188" lon="-1.9914">
        <ele>49.71858</ele>
        <time>2022-12-18T11:08:42.602Z</time>
      </trkpt>
      <trkpt lat="46.74185" lon="-1.9912">
        <ele>49.708645</ele>
        <time>2022-12-18T11:08:45.616Z</time>
      </trkpt>
      <trkpt lat="46.74183" lon="-1.99102">
        <ele>49.764783</ele>
        <time>2022-12-18T11:08:48.604Z</time>
      </trkpt>
      <trkpt lat="46.74181" lon="-1.99085">
        <ele>49.920216</ele>
        <time>2022-12-18T11:08:51.600Z</time>
      </trkpt>
      <trkpt lat="46.74179" lon="-1.99069">
        <ele>50.071761</ele>
        <time>2022-12-18T11:08:54.615Z</time>
      </trkpt>
      <trkpt lat="46.74177" lon="-1.99053">
        <ele>50.226278</ele>
        <time>2022-12-18T11:08:57.608Z</time>
      </trkpt>
      <trkpt lat="46.74175" lon="-1.99035">
        <ele>50.393898</ele>
        <time>2022-12-18T11:09:00.615Z</time>
      </trkpt>
      <trkpt lat="46.74173" lon="-1.99017">
        <ele>50.561969</ele>
        <time>2022-12-18T11:09:03.604Z</time>
      </trkpt>
      <trkpt lat="46.74171" lon="-1.98999">
        <ele>50.733236</ele>
        <time>2022-12-18T11:09:06.589Z</time>
      </trkpt>
      <trkpt lat="46.74168" lon="-1.98981">
        <ele>50.906858</ele>
        <time>2022-12-18T11:09:09.616Z</time>
      </trkpt>
      <trkpt lat="46.74166" lon="-1.98962">
        <ele>51.088728</ele>
        <time>2022-12-18T11:09:12.590Z</time>
      </trkpt>
      <trkpt lat="46.74165" lon="-1.98948">
        <ele>51.217408</ele>
        <time>2022-12-18T11:09:14.591Z</time>
      </trkpt>
      <trkpt lat="46.74163" lon="-1.98928">
        <ele>51.402835</ele>
        <time>2022-12-18T11:09:17.589Z</time>
      </trkpt>
      <trkpt lat="46.74161" lon="-1.98914">
        <ele>51.533556</ele>
        <time>2022-12-18T11:09:19.621Z</time>
      </trkpt>
      <trkpt lat="46.7416" lon="-1.98901">
        <ele>51.660609</ele>
        <time>2022-12-18T11:09:21.600Z</time>
      </trkpt>
      <trkpt lat="46.74158" lon="-1.98887">
        <ele>51.788921</ele>
        <time>2022-12-18T11:09:23.614Z</time>
      </trkpt>
      <trkpt lat="46.74155" lon="-1.98869">
        <ele>51.961301</ele>
        <time>2022-12-18T11:09:26.605Z</time>
      </trkpt>
      <trkpt lat="46.74152" lon="-1.98853">
        <ele>52.117413</ele>
        <time>2022-12-18T11:09:29.605Z</time>
      </trkpt>
      <trkpt lat="46.74148" lon="-1.98837">
        <ele>52.072015</ele>
        <time>2022-12-18T11:09:32.588Z</time>
      </trkpt>
      <trkpt lat="46.74144" lon="-1.9882">
        <ele>51.988983</ele>
        <time>2022-12-18T11:09:35.620Z</time>
      </trkpt>
      <trkpt lat="46.74139" lon="-1.98803">
        <ele>51.899993</ele>
        <time>2022-12-18T11:09:38.618Z</time>
      </trkpt>
      <trkpt lat="46.74134" lon="-1.98791">
        <ele>51.836721</ele>
        <time>2022-12-18T11:09:40.601Z</time>
      </trkpt>
      <trkpt lat="46.7413" lon="-1.98779">
        <ele>51.772178</ele>
        <time>2022-12-18T11:09:42.587Z</time>
      </trkpt>
      <trkpt lat="46.74126" lon="-1.98767">
        <ele>51.709015</ele>
        <time>2022-12-18T11:09:44.594Z</time>
      </trkpt>
      <trkpt lat="46.74122" lon="-1.98754">
        <ele>51.643197</ele>
        <time>2022-12-18T11:09:46.593Z</time>
      </trkpt>
      <trkpt lat="46.74117" lon="-1.98742">
        <ele>51.576062</ele>
        <time>2022-12-18T11:09:48.587Z</time>
      </trkpt>
      <trkpt lat="46.74113" lon="-1.98729">
        <ele>51.509095</ele>
        <time>2022-12-18T11:09:50.586Z</time>
      </trkpt>
      <trkpt lat="46.74108" lon="-1.98716">
        <ele>51.439414</ele>
        <time>2022-12-18T11:09:52.596Z</time>
      </trkpt>
      <trkpt lat="46.74104" lon="-1.98703">
        <ele>51.371853</ele>
        <time>2022-12-18T11:09:54.592Z</time>
      </trkpt>
      <trkpt lat="46.741" lon="-1.98691">
        <ele>51.30638</ele>
        <time>2022-12-18T11:09:56.607Z</time>
      </trkpt>
      <trkpt lat="46.74094" lon="-1.98675">
        <ele>51.222153</ele>
        <time>2022-12-18T11:09:59.617Z</time>
      </trkpt>
      <trkpt lat="46.74088" lon="-1.98661">
        <ele>51.14101</ele>
        <time>2022-12-18T11:10:02.590Z</time>
      </trkpt>
      <trkpt lat="46.74081" lon="-1.98646">
        <ele>51.06002</ele>
        <time>2022-12-18T11:10:05.593Z</time>
      </trkpt>
      <trkpt lat="46.74074" lon="-1.98631">
        <ele>50.974378</ele>
        <time>2022-12-18T11:10:08.603Z</time>
      </trkpt>
      <trkpt lat="46.74067" lon="-1.98616">
        <ele>50.882552</ele>
        <time>2022-12-18T11:10:11.597Z</time>
      </trkpt>
      <trkpt lat="46.74061" lon="-1.986">
        <ele>50.772436</ele>
        <time>2022-12-18T11:10:14.591Z</time>
      </trkpt>
      <trkpt lat="46.74056" lon="-1.98588">
        <ele>50.694329</ele>
        <time>2022-12-18T11:10:16.610Z</time>
      </trkpt>
      <trkpt lat="46.74051" lon="-1.98576">
        <ele>50.614341</ele>
        <time>2022-12-18T11:10:18.597Z</time>
      </trkpt>
      <trkpt lat="46.74047" lon="-1.98565">
        <ele>50.536465</ele>
        <time>2022-12-18T11:10:20.587Z</time>
      </trkpt>
      <trkpt lat="46.74041" lon="-1.98546">
        <ele>50.415174</ele>
        <time>2022-12-18T11:10:23.605Z</time>
      </trkpt>
      <trkpt lat="46.74037" lon="-1.98533">
        <ele>50.330697</ele>
        <time>2022-12-18T11:10:25.602Z</time>
      </trkpt>
      <trkpt lat="46.74033" lon="-1.9852">
        <ele>50.245861</ele>
        <time>2022-12-18T11:10:27.609Z</time>
      </trkpt>
      <trkpt lat="46.74029" lon="-1.98507">
        <ele>50.162806</ele>
        <time>2022-12-18T11:10:29.615Z</time>
      </trkpt>
      <trkpt lat="46.74025" lon="-1.98494">
        <ele>50.079693</ele>
        <time>2022-12-18T11:10:31.614Z</time>
      </trkpt>
      <trkpt lat="46.74021" lon="-1.98482">
        <ele>50.001564</ele>
        <time>2022-12-18T11:10:33.599Z</time>
      </trkpt>
      <trkpt lat="46.74016" lon="-1.98465">
        <ele>49.892843</ele>
        <time>2022-12-18T11:10:36.615Z</time>
      </trkpt>
      <trkpt lat="46.74011" lon="-1.98448">
        <ele>49.783987</ele>
        <time>2022-12-18T11:10:39.605Z</time>
      </trkpt>
      <trkpt lat="46.74006" lon="-1.9843">
        <ele>49.67122</ele>
        <time>2022-12-18T11:10:42.615Z</time>
      </trkpt>
      <trkpt lat="46.74" lon="-1.98412">
        <ele>49.556424</ele>
        <time>2022-12-18T11:10:45.674Z</time>
      </trkpt>
      <trkpt lat="46.73997" lon="-1.984">
        <ele>49.477759</ele>
        <time>2022-12-18T11:10:47.602Z</time>
      </trkpt>
      <trkpt lat="46.73993" lon="-1.98387">
        <ele>49.400381</ele>
        <time>2022-12-18T11:10:49.604Z</time>
      </trkpt>
      <trkpt lat="46.73989" lon="-1.98376">
        <ele>49.360531</ele>
        <time>2022-12-18T11:10:51.607Z</time>
      </trkpt>
      <trkpt lat="46.73985" lon="-1.98363">
        <ele>49.356069</ele>
        <time>2022-12-18T11:10:53.606Z</time>
      </trkpt>
      <trkpt lat="46.7398" lon="-1.98346">
        <ele>49.349961</ele>
        <time>2022-12-18T11:10:56.604Z</time>
      </trkpt>
      <trkpt lat="46.73976" lon="-1.9833">
        <ele>49.344335</ele>
        <time>2022-12-18T11:10:59.611Z</time>
      </trkpt>
      <trkpt lat="46.73971" lon="-1.98314">
        <ele>49.338641</ele>
        <time>2022-12-18T11:11:02.601Z</time>
      </trkpt>
      <trkpt lat="46.73966" lon="-1.98297">
        <ele>49.33272</ele>
        <time>2022-12-18T11:11:05.605Z</time>
      </trkpt>
      <trkpt lat="46.73961" lon="-1.9828">
        <ele>49.326721</ele>
        <time>2022-12-18T11:11:08.604Z</time>
      </trkpt>
      <trkpt lat="46.73956" lon="-1.98263">
        <ele>49.320542</ele>
        <time>2022-12-18T11:11:11.615Z</time>
      </trkpt>
      <trkpt lat="46.7395" lon="-1.98245">
        <ele>49.314287</ele>
        <time>2022-12-18T11:11:14.608Z</time>
      </trkpt>
      <trkpt lat="46.73945" lon="-1.98228">
        <ele>49.307942</ele>
        <time>2022-12-18T11:11:17.609Z</time>
      </trkpt>
      <trkpt lat="46.7394" lon="-1.98211">
        <ele>49.302268</ele>
        <time>2022-12-18T11:11:20.620Z</time>
      </trkpt>
      <trkpt lat="46.73936" lon="-1.98196">
        <ele>49.297099</ele>
        <time>2022-12-18T11:11:23.608Z</time>
      </trkpt>
      <trkpt lat="46.73932" lon="-1.98181">
        <ele>49.29172</ele>
        <time>2022-12-18T11:11:27.612Z</time>
      </trkpt>
      <trkpt lat="46.73926" lon="-1.98168">
        <ele>49.286693</ele>
        <time>2022-12-18T11:11:30.595Z</time>
      </trkpt>
      <trkpt lat="46.73921" lon="-1.98153">
        <ele>49.281265</ele>
        <time>2022-12-18T11:11:33.614Z</time>
      </trkpt>
      <trkpt lat="46.73917" lon="-1.98137">
        <ele>49.37848</ele>
        <time>2022-12-18T11:11:36.585Z</time>
      </trkpt>
      <trkpt lat="46.73911" lon="-1.9812">
        <ele>49.719898</ele>
        <time>2022-12-18T11:11:39.591Z</time>
      </trkpt>
      <trkpt lat="46.73906" lon="-1.98103">
        <ele>50.068519</ele>
        <time>2022-12-18T11:11:42.607Z</time>
      </trkpt>
      <trkpt lat="46.73901" lon="-1.98085">
        <ele>50.416703</ele>
        <time>2022-12-18T11:11:45.611Z</time>
      </trkpt>
      <trkpt lat="46.73897" lon="-1.98073">
        <ele>50.660886</ele>
        <time>2022-12-18T11:11:47.602Z</time>
      </trkpt>
      <trkpt lat="46.73892" lon="-1.98057">
        <ele>50.98209</ele>
        <time>2022-12-18T11:11:50.611Z</time>
      </trkpt>
      <trkpt lat="46.73887" lon="-1.98041">
        <ele>51.304753</ele>
        <time>2022-12-18T11:11:53.614Z</time>
      </trkpt>
      <trkpt lat="46.73882" lon="-1.98024">
        <ele>51.639082</ele>
        <time>2022-12-18T11:11:56.609Z</time>
      </trkpt>
      <trkpt lat="46.73876" lon="-1.98006">
        <ele>51.991042</ele>
        <time>2022-12-18T11:11:59.613Z</time>
      </trkpt>
      <trkpt lat="46.73871" lon="-1.97989">
        <ele>52.341849</ele>
        <time>2022-12-18T11:12:02.606Z</time>
      </trkpt>
      <trkpt lat="46.73867" lon="-1.97977">
        <ele>52.579956</ele>
        <time>2022-12-18T11:12:04.608Z</time>
      </trkpt>
      <trkpt lat="46.73862" lon="-1.97959">
        <ele>52.933531</ele>
        <time>2022-12-18T11:12:07.600Z</time>
      </trkpt>
      <trkpt lat="46.73857" lon="-1.97943">
        <ele>53.251785</ele>
        <time>2022-12-18T11:12:10.607Z</time>
      </trkpt>
      <trkpt lat="46.73852" lon="-1.97928">
        <ele>53.562293</ele>
        <time>2022-12-18T11:12:13.606Z</time>
      </trkpt>
      <trkpt lat="46.73847" lon="-1.97911">
        <ele>53.896625</ele>
        <time>2022-12-18T11:12:16.609Z</time>
      </trkpt>
      <trkpt lat="46.7384" lon="-1.97895">
        <ele>54.141862</ele>
        <time>2022-12-18T11:12:19.627Z</time>
      </trkpt>
      <trkpt lat="46.73833" lon="-1.97879">
        <ele>54.298949</ele>
        <time>2022-12-18T11:12:22.614Z</time>
      </trkpt>
      <trkpt lat="46.73826" lon="-1.97864">
        <ele>54.450427</ele>
        <time>2022-12-18T11:12:25.610Z</time>
      </trkpt>
      <trkpt lat="46.73819" lon="-1.97851">
        <ele>54.582555</ele>
        <time>2022-12-18T11:12:28.594Z</time>
      </trkpt>
      <trkpt lat="46.73813" lon="-1.97841">
        <ele>54.69347</ele>
        <time>2022-12-18T11:12:31.604Z</time>
      </trkpt>
      <trkpt lat="46.73807" lon="-1.97831">
        <ele>54.808853</ele>
        <time>2022-12-18T11:12:34.603Z</time>
      </trkpt>
      <trkpt lat="46.738" lon="-1.97819">
        <ele>54.929217</ele>
        <time>2022-12-18T11:12:37.602Z</time>
      </trkpt>
      <trkpt lat="46.73795" lon="-1.97808">
        <ele>55.042741</ele>
        <time>2022-12-18T11:12:40.609Z</time>
      </trkpt>
      <trkpt lat="46.73787" lon="-1.97795">
        <ele>55.186695</ele>
        <time>2022-12-18T11:12:44.603Z</time>
      </trkpt>
      <trkpt lat="46.73779" lon="-1.97781">
        <ele>55.331914</ele>
        <time>2022-12-18T11:12:48.593Z</time>
      </trkpt>
      <trkpt lat="46.73774" lon="-1.9777">
        <ele>55.442092</ele>
        <time>2022-12-18T11:12:51.609Z</time>
      </trkpt>
      <trkpt lat="46.73767" lon="-1.97759">
        <ele>55.567752</ele>
        <time>2022-12-18T11:12:55.616Z</time>
      </trkpt>
      <trkpt lat="46.7376" lon="-1.97747">
        <ele>55.700137</ele>
        <time>2022-12-18T11:12:59.611Z</time>
      </trkpt>
      <trkpt lat="46.73752" lon="-1.97733">
        <ele>55.841289</ele>
        <time>2022-12-18T11:13:03.617Z</time>
      </trkpt>
      <trkpt lat="46.73746" lon="-1.97723">
        <ele>55.953107</ele>
        <time>2022-12-18T11:13:06.604Z</time>
      </trkpt>
      <trkpt lat="46.7374" lon="-1.97712">
        <ele>56.066708</ele>
        <time>2022-12-18T11:13:09.604Z</time>
      </trkpt>
      <trkpt lat="46.73734" lon="-1.97702">
        <ele>56.180181</ele>
        <time>2022-12-18T11:13:12.606Z</time>
      </trkpt>
      <trkpt lat="46.73727" lon="-1.97692">
        <ele>56.126191</ele>
        <time>2022-12-18T11:13:15.589Z</time>
      </trkpt>
      <trkpt lat="46.7372" lon="-1.97682">
        <ele>55.981689</ele>
        <time>2022-12-18T11:13:18.611Z</time>
      </trkpt>
      <trkpt lat="46.73713" lon="-1.97671">
        <ele>55.837503</ele>
        <time>2022-12-18T11:13:21.604Z</time>
      </trkpt>
      <trkpt lat="46.73705" lon="-1.97661">
        <ele>55.689607</ele>
        <time>2022-12-18T11:13:24.614Z</time>
      </trkpt>
      <trkpt lat="46.73696" lon="-1.97651">
        <ele>55.52747</ele>
        <time>2022-12-18T11:13:27.597Z</time>
      </trkpt>
      <trkpt lat="46.73686" lon="-1.9764">
        <ele>55.355785</ele>
        <time>2022-12-18T11:13:30.598Z</time>
      </trkpt>
      <trkpt lat="46.73677" lon="-1.97631">
        <ele>55.190774</ele>
        <time>2022-12-18T11:13:33.605Z</time>
      </trkpt>
      <trkpt lat="46.73667" lon="-1.97622">
        <ele>55.029452</ele>
        <time>2022-12-18T11:13:36.612Z</time>
      </trkpt>
      <trkpt lat="46.73657" lon="-1.97611">
        <ele>54.850853</ele>
        <time>2022-12-18T11:13:39.608Z</time>
      </trkpt>
      <trkpt lat="46.73646" lon="-1.97599">
        <ele>54.659002</ele>
        <time>2022-12-18T11:13:42.608Z</time>
      </trkpt>
      <trkpt lat="46.73639" lon="-1.97591">
        <ele>54.524745</ele>
        <time>2022-12-18T11:13:44.611Z</time>
      </trkpt>
      <trkpt lat="46.73631" lon="-1.97583">
        <ele>54.390508</ele>
        <time>2022-12-18T11:13:46.605Z</time>
      </trkpt>
      <trkpt lat="46.73623" lon="-1.97575">
        <ele>54.252236</ele>
        <time>2022-12-18T11:13:48.604Z</time>
      </trkpt>
      <trkpt lat="46.73615" lon="-1.97568">
        <ele>54.121907</ele>
        <time>2022-12-18T11:13:50.614Z</time>
      </trkpt>
      <trkpt lat="46.73607" lon="-1.9756">
        <ele>53.982291</ele>
        <time>2022-12-18T11:13:52.606Z</time>
      </trkpt>
      <trkpt lat="46.736" lon="-1.97552">
        <ele>53.845114</ele>
        <time>2022-12-18T11:13:54.606Z</time>
      </trkpt>
      <trkpt lat="46.73588" lon="-1.97541">
        <ele>53.651187</ele>
        <time>2022-12-18T11:13:57.604Z</time>
      </trkpt>
      <trkpt lat="46.73577" lon="-1.9753">
        <ele>53.545236</ele>
        <time>2022-12-18T11:14:00.608Z</time>
      </trkpt>
      <trkpt lat="46.7357" lon="-1.97522">
        <ele>53.472216</ele>
        <time>2022-12-18T11:14:02.583Z</time>
      </trkpt>
      <trkpt lat="46.73563" lon="-1.97514">
        <ele>53.398506</ele>
        <time>2022-12-18T11:14:04.606Z</time>
      </trkpt>
      <trkpt lat="46.73552" lon="-1.97503">
        <ele>53.291864</ele>
        <time>2022-12-18T11:14:07.608Z</time>
      </trkpt>
      <trkpt lat="46.73541" lon="-1.97492">
        <ele>53.188469</ele>
        <time>2022-12-18T11:14:10.603Z</time>
      </trkpt>
      <trkpt lat="46.73531" lon="-1.97482">
        <ele>53.087953</ele>
        <time>2022-12-18T11:14:13.595Z</time>
      </trkpt>
      <trkpt lat="46.73521" lon="-1.97472">
        <ele>52.989169</ele>
        <time>2022-12-18T11:14:16.589Z</time>
      </trkpt>
      <trkpt lat="46.73511" lon="-1.97461">
        <ele>52.887124</ele>
        <time>2022-12-18T11:14:19.604Z</time>
      </trkpt>
      <trkpt lat="46.735" lon="-1.9745">
        <ele>52.782788</ele>
        <time>2022-12-18T11:14:22.594Z</time>
      </trkpt>
      <trkpt lat="46.7349" lon="-1.9744">
        <ele>52.681702</ele>
        <time>2022-12-18T11:14:25.610Z</time>
      </trkpt>
      <trkpt lat="46.7348" lon="-1.97429">
        <ele>52.580616</ele>
        <time>2022-12-18T11:14:28.602Z</time>
      </trkpt>
      <trkpt lat="46.7347" lon="-1.97419">
        <ele>52.488359</ele>
        <time>2022-12-18T11:14:31.615Z</time>
      </trkpt>
      <trkpt lat="46.73461" lon="-1.97411">
        <ele>52.398603</ele>
        <time>2022-12-18T11:14:34.608Z</time>
      </trkpt>
      <trkpt lat="46.73451" lon="-1.97401">
        <ele>52.303071</ele>
        <time>2022-12-18T11:14:37.606Z</time>
      </trkpt>
      <trkpt lat="46.73441" lon="-1.97391">
        <ele>52.208049</ele>
        <time>2022-12-18T11:14:40.609Z</time>
      </trkpt>
      <trkpt lat="46.73431" lon="-1.97381">
        <ele>52.241488</ele>
        <time>2022-12-18T11:14:43.604Z</time>
      </trkpt>
      <trkpt lat="46.7342" lon="-1.97373">
        <ele>52.281933</ele>
        <time>2022-12-18T11:14:46.603Z</time>
      </trkpt>
      <trkpt lat="46.7341" lon="-1.97365">
        <ele>52.320269</ele>
        <time>2022-12-18T11:14:49.609Z</time>
      </trkpt>
      <trkpt lat="46.734" lon="-1.97358">
        <ele>52.356435</ele>
        <time>2022-12-18T11:14:52.589Z</time>
      </trkpt>
      <trkpt lat="46.7339" lon="-1.97352">
        <ele>52.390821</ele>
        <time>2022-12-18T11:14:55.591Z</time>
      </trkpt>
      <trkpt lat="46.73381" lon="-1.97348">
        <ele>52.423322</ele>
        <time>2022-12-18T11:14:58.605Z</time>
      </trkpt>
      <trkpt lat="46.7337" lon="-1.97343">
        <ele>52.458338</ele>
        <time>2022-12-18T11:15:01.616Z</time>
      </trkpt>
      <trkpt lat="46.7336" lon="-1.97338">
        <ele>52.495152</ele>
        <time>2022-12-18T11:15:04.605Z</time>
      </trkpt>
      <trkpt lat="46.73349" lon="-1.97332">
        <ele>52.532372</ele>
        <time>2022-12-18T11:15:07.615Z</time>
      </trkpt>
      <trkpt lat="46.73338" lon="-1.97327">
        <ele>52.569133</ele>
        <time>2022-12-18T11:15:10.595Z</time>
      </trkpt>
      <trkpt lat="46.73327" lon="-1.97321">
        <ele>52.60743</ele>
        <time>2022-12-18T11:15:13.607Z</time>
      </trkpt>
      <trkpt lat="46.73316" lon="-1.97316">
        <ele>52.646203</ele>
        <time>2022-12-18T11:15:16.596Z</time>
      </trkpt>
      <trkpt lat="46.73305" lon="-1.9731">
        <ele>52.685189</ele>
        <time>2022-12-18T11:15:19.619Z</time>
      </trkpt>
      <trkpt lat="46.73293" lon="-1.97305">
        <ele>52.723069</ele>
        <time>2022-12-18T11:15:22.617Z</time>
      </trkpt>
      <trkpt lat="46.73282" lon="-1.973">
        <ele>52.761084</ele>
        <time>2022-12-18T11:15:25.608Z</time>
      </trkpt>
      <trkpt lat="46.73273" lon="-1.97294">
        <ele>52.803075</ele>
        <time>2022-12-18T11:15:28.585Z</time>
      </trkpt>
      <trkpt lat="46.73264" lon="-1.97289">
        <ele>52.890476</ele>
        <time>2022-12-18T11:15:31.605Z</time>
      </trkpt>
      <trkpt lat="46.73254" lon="-1.97282">
        <ele>52.983422</ele>
        <time>2022-12-18T11:15:34.613Z</time>
      </trkpt>
      <trkpt lat="46.73244" lon="-1.97276">
        <ele>53.078617</ele>
        <time>2022-12-18T11:15:37.605Z</time>
      </trkpt>
      <trkpt lat="46.73234" lon="-1.97267">
        <ele>53.180679</ele>
        <time>2022-12-18T11:15:40.594Z</time>
      </trkpt>
      <trkpt lat="46.73224" lon="-1.97257">
        <ele>53.294513</ele>
        <time>2022-12-18T11:15:43.613Z</time>
      </trkpt>
      <trkpt lat="46.73216" lon="-1.9725">
        <ele>53.375951</ele>
        <time>2022-12-18T11:15:45.588Z</time>
      </trkpt>
      <trkpt lat="46.73209" lon="-1.97241">
        <ele>53.457932</ele>
        <time>2022-12-18T11:15:47.610Z</time>
      </trkpt>
      <trkpt lat="46.73202" lon="-1.97233">
        <ele>53.540358</ele>
        <time>2022-12-18T11:15:49.614Z</time>
      </trkpt>
      <trkpt lat="46.73194" lon="-1.97225">
        <ele>53.62057</ele>
        <time>2022-12-18T11:15:51.606Z</time>
      </trkpt>
      <trkpt lat="46.73187" lon="-1.97215">
        <ele>53.704844</ele>
        <time>2022-12-18T11:15:53.605Z</time>
      </trkpt>
      <trkpt lat="46.73177" lon="-1.97203">
        <ele>53.822841</ele>
        <time>2022-12-18T11:15:56.618Z</time>
      </trkpt>
      <trkpt lat="46.73167" lon="-1.9719">
        <ele>53.940168</ele>
        <time>2022-12-18T11:15:59.604Z</time>
      </trkpt>
      <trkpt lat="46.73158" lon="-1.97177">
        <ele>54.053241</ele>
        <time>2022-12-18T11:16:02.617Z</time>
      </trkpt>
      <trkpt lat="46.73149" lon="-1.97164">
        <ele>54.167331</ele>
        <time>2022-12-18T11:16:05.606Z</time>
      </trkpt>
      <trkpt lat="46.7314" lon="-1.97151">
        <ele>54.279132</ele>
        <time>2022-12-18T11:16:08.605Z</time>
      </trkpt>
      <trkpt lat="46.73131" lon="-1.97138">
        <ele>54.382741</ele>
        <time>2022-12-18T11:16:11.619Z</time>
      </trkpt>
      <trkpt lat="46.73121" lon="-1.97125">
        <ele>54.379742</ele>
        <time>2022-12-18T11:16:14.595Z</time>
      </trkpt>
      <trkpt lat="46.73115" lon="-1.97116">
        <ele>54.377635</ele>
        <time>2022-12-18T11:16:16.605Z</time>
      </trkpt>
      <trkpt lat="46.73105" lon="-1.97102">
        <ele>54.37457</ele>
        <time>2022-12-18T11:16:19.617Z</time>
      </trkpt>
      <trkpt lat="46.73098" lon="-1.97093">
        <ele>54.37246</ele>
        <time>2022-12-18T11:16:21.608Z</time>
      </trkpt>
      <trkpt lat="46.73091" lon="-1.97084">
        <ele>54.370365</ele>
        <time>2022-12-18T11:16:23.608Z</time>
      </trkpt>
      <trkpt lat="46.73084" lon="-1.97075">
        <ele>54.368196</ele>
        <time>2022-12-18T11:16:25.606Z</time>
      </trkpt>
      <trkpt lat="46.73078" lon="-1.97066">
        <ele>54.366127</ele>
        <time>2022-12-18T11:16:27.616Z</time>
      </trkpt>
      <trkpt lat="46.73071" lon="-1.97056">
        <ele>54.3639</ele>
        <time>2022-12-18T11:16:29.617Z</time>
      </trkpt>
      <trkpt lat="46.73064" lon="-1.97046">
        <ele>54.361749</ele>
        <time>2022-12-18T11:16:31.607Z</time>
      </trkpt>
      <trkpt lat="46.73056" lon="-1.97033">
        <ele>54.358906</ele>
        <time>2022-12-18T11:16:34.603Z</time>
      </trkpt>
      <trkpt lat="46.73047" lon="-1.97021">
        <ele>54.356153</ele>
        <time>2022-12-18T11:16:37.605Z</time>
      </trkpt>
      <trkpt lat="46.73037" lon="-1.97008">
        <ele>54.353079</ele>
        <time>2022-12-18T11:16:40.607Z</time>
      </trkpt>
      <trkpt lat="46.73031" lon="-1.96998">
        <ele>54.351001</ele>
        <time>2022-12-18T11:16:42.618Z</time>
      </trkpt>
      <trkpt lat="46.73024" lon="-1.96987">
        <ele>54.348772</ele>
        <time>2022-12-18T11:16:44.603Z</time>
      </trkpt>
      <trkpt lat="46.73018" lon="-1.96977">
        <ele>54.346609</ele>
        <time>2022-12-18T11:16:46.606Z</time>
      </trkpt>
      <trkpt lat="46.73008" lon="-1.96964">
        <ele>54.34349</ele>
        <time>2022-12-18T11:16:49.621Z</time>
      </trkpt>
      <trkpt lat="46.73002" lon="-1.96953">
        <ele>54.313041</ele>
        <time>2022-12-18T11:16:51.607Z</time>
      </trkpt>
      <trkpt lat="46.72994" lon="-1.96938">
        <ele>54.090625</ele>
        <time>2022-12-18T11:16:54.596Z</time>
      </trkpt>
      <trkpt lat="46.72986" lon="-1.9692">
        <ele>53.859857</ele>
        <time>2022-12-18T11:16:57.620Z</time>
      </trkpt>
      <trkpt lat="46.72981" lon="-1.96907">
        <ele>53.689615</ele>
        <time>2022-12-18T11:16:59.594Z</time>
      </trkpt>
      <trkpt lat="46.72976" lon="-1.96893">
        <ele>53.51143</ele>
        <time>2022-12-18T11:17:01.618Z</time>
      </trkpt>
      <trkpt lat="46.72971" lon="-1.9688">
        <ele>53.343325</ele>
        <time>2022-12-18T11:17:03.611Z</time>
      </trkpt>
      <trkpt lat="46.72966" lon="-1.96867">
        <ele>53.173084</ele>
        <time>2022-12-18T11:17:05.587Z</time>
      </trkpt>
      <trkpt lat="46.72961" lon="-1.96854">
        <ele>53.010116</ele>
        <time>2022-12-18T11:17:07.614Z</time>
      </trkpt>
      <trkpt lat="46.72956" lon="-1.96842">
        <ele>52.853215</ele>
        <time>2022-12-18T11:17:09.608Z</time>
      </trkpt>
      <trkpt lat="46.72949" lon="-1.96827">
        <ele>52.641155</ele>
        <time>2022-12-18T11:17:12.607Z</time>
      </trkpt>
      <trkpt lat="46.72941" lon="-1.96811">
        <ele>52.41985</ele>
        <time>2022-12-18T11:17:15.598Z</time>
      </trkpt>
      <trkpt lat="46.72935" lon="-1.96799">
        <ele>52.263404</ele>
        <time>2022-12-18T11:17:17.586Z</time>
      </trkpt>
      <trkpt lat="46.72927" lon="-1.96783">
        <ele>52.038293</ele>
        <time>2022-12-18T11:17:20.609Z</time>
      </trkpt>
      <trkpt lat="46.72922" lon="-1.96771">
        <ele>51.873473</ele>
        <time>2022-12-18T11:17:22.608Z</time>
      </trkpt>
      <trkpt lat="46.72915" lon="-1.9676">
        <ele>51.704465</ele>
        <time>2022-12-18T11:17:24.620Z</time>
      </trkpt>
      <trkpt lat="46.72909" lon="-1.96747">
        <ele>51.533168</ele>
        <time>2022-12-18T11:17:26.606Z</time>
      </trkpt>
      <trkpt lat="46.72903" lon="-1.96735">
        <ele>51.398089</ele>
        <time>2022-12-18T11:17:28.603Z</time>
      </trkpt>
      <trkpt lat="46.72898" lon="-1.96723">
        <ele>51.406582</ele>
        <time>2022-12-18T11:17:30.605Z</time>
      </trkpt>
      <trkpt lat="46.72892" lon="-1.96712">
        <ele>51.414786</ele>
        <time>2022-12-18T11:17:32.612Z</time>
      </trkpt>
      <trkpt lat="46.72886" lon="-1.96701">
        <ele>51.422892</ele>
        <time>2022-12-18T11:17:34.615Z</time>
      </trkpt>
      <trkpt lat="46.72879" lon="-1.96685">
        <ele>51.434086</ele>
        <time>2022-12-18T11:17:37.609Z</time>
      </trkpt>
      <trkpt lat="46.72874" lon="-1.96674">
        <ele>51.441812</ele>
        <time>2022-12-18T11:17:39.614Z</time>
      </trkpt>
      <trkpt lat="46.72868" lon="-1.96662">
        <ele>51.450126</ele>
        <time>2022-12-18T11:17:41.605Z</time>
      </trkpt>
      <trkpt lat="46.72863" lon="-1.96651">
        <ele>51.458376</ele>
        <time>2022-12-18T11:17:43.605Z</time>
      </trkpt>
      <trkpt lat="46.72858" lon="-1.9664">
        <ele>51.46624</ele>
        <time>2022-12-18T11:17:45.615Z</time>
      </trkpt>
      <trkpt lat="46.72852" lon="-1.96629">
        <ele>51.474157</ele>
        <time>2022-12-18T11:17:47.613Z</time>
      </trkpt>
      <trkpt lat="46.72846" lon="-1.96618">
        <ele>51.482327</ele>
        <time>2022-12-18T11:17:49.607Z</time>
      </trkpt>
      <trkpt lat="46.72841" lon="-1.96607">
        <ele>51.490346</ele>
        <time>2022-12-18T11:17:51.605Z</time>
      </trkpt>
      <trkpt lat="46.72834" lon="-1.96597">
        <ele>51.498205</ele>
        <time>2022-12-18T11:17:53.612Z</time>
      </trkpt>
      <trkpt lat="46.72828" lon="-1.96587">
        <ele>51.506135</ele>
        <time>2022-12-18T11:17:55.607Z</time>
      </trkpt>
      <trkpt lat="46.7282" lon="-1.96575">
        <ele>51.516154</ele>
        <time>2022-12-18T11:17:58.604Z</time>
      </trkpt>
      <trkpt lat="46.72813" lon="-1.96563">
        <ele>51.525251</ele>
        <time>2022-12-18T11:18:01.610Z</time>
      </trkpt>
      <trkpt lat="46.72805" lon="-1.9655">
        <ele>51.535235</ele>
        <time>2022-12-18T11:18:04.615Z</time>
      </trkpt>
      <trkpt lat="46.72797" lon="-1.96536">
        <ele>51.545896</ele>
        <time>2022-12-18T11:18:07.608Z</time>
      </trkpt>
      <trkpt lat="46.7279" lon="-1.9652">
        <ele>51.563886</ele>
        <time>2022-12-18T11:18:10.605Z</time>
      </trkpt>
      <trkpt lat="46.72784" lon="-1.9651">
        <ele>51.579405</ele>
        <time>2022-12-18T11:18:12.587Z</time>
      </trkpt>
      <trkpt lat="46.72779" lon="-1.96499">
        <ele>51.594819</ele>
        <time>2022-12-18T11:18:14.603Z</time>
      </trkpt>
      <trkpt lat="46.72772" lon="-1.96483">
        <ele>51.617364</ele>
        <time>2022-12-18T11:18:17.616Z</time>
      </trkpt>
      <trkpt lat="46.72765" lon="-1.96469">
        <ele>51.637219</ele>
        <time>2022-12-18T11:18:20.613Z</time>
      </trkpt>
      <trkpt lat="46.72759" lon="-1.96456">
        <ele>51.65544</ele>
        <time>2022-12-18T11:18:23.616Z</time>
      </trkpt>
      <trkpt lat="46.72753" lon="-1.96442">
        <ele>51.674446</ele>
        <time>2022-12-18T11:18:26.608Z</time>
      </trkpt>
      <trkpt lat="46.72747" lon="-1.96427">
        <ele>51.695264</ele>
        <time>2022-12-18T11:18:29.617Z</time>
      </trkpt>
      <trkpt lat="46.7274" lon="-1.96411">
        <ele>51.717074</ele>
        <time>2022-12-18T11:18:32.611Z</time>
      </trkpt>
      <trkpt lat="46.72735" lon="-1.96399">
        <ele>51.733177</ele>
        <time>2022-12-18T11:18:34.612Z</time>
      </trkpt>
      <trkpt lat="46.7273" lon="-1.96387">
        <ele>51.749606</ele>
        <time>2022-12-18T11:18:36.603Z</time>
      </trkpt>
      <trkpt lat="46.72726" lon="-1.96374">
        <ele>51.767083</ele>
        <time>2022-12-18T11:18:38.596Z</time>
      </trkpt>
      <trkpt lat="46.72721" lon="-1.96359">
        <ele>51.785784</ele>
        <time>2022-12-18T11:18:40.616Z</time>
      </trkpt>
      <trkpt lat="46.72716" lon="-1.96345">
        <ele>51.805055</ele>
        <time>2022-12-18T11:18:42.611Z</time>
      </trkpt>
      <trkpt lat="46.72711" lon="-1.96331">
        <ele>51.822454</ele>
        <time>2022-12-18T11:18:44.607Z</time>
      </trkpt>
      <trkpt lat="46.72707" lon="-1.96318">
        <ele>51.839632</ele>
        <time>2022-12-18T11:18:46.608Z</time>
      </trkpt>
      <trkpt lat="46.72703" lon="-1.96304">
        <ele>51.856596</ele>
        <time>2022-12-18T11:18:48.588Z</time>
      </trkpt>
      <trkpt lat="46.72699" lon="-1.96291">
        <ele>51.813428</ele>
        <time>2022-12-18T11:18:50.615Z</time>
      </trkpt>
      <trkpt lat="46.72695" lon="-1.96277">
        <ele>51.767952</ele>
        <time>2022-12-18T11:18:52.613Z</time>
      </trkpt>
      <trkpt lat="46.72692" lon="-1.96263">
        <ele>51.72522</ele>
        <time>2022-12-18T11:18:54.604Z</time>
      </trkpt>
      <trkpt lat="46.72688" lon="-1.96251">
        <ele>51.683182</ele>
        <time>2022-12-18T11:18:56.592Z</time>
      </trkpt>
      <trkpt lat="46.72683" lon="-1.96238">
        <ele>51.640685</ele>
        <time>2022-12-18T11:18:58.605Z</time>
      </trkpt>
      <trkpt lat="46.72678" lon="-1.96226">
        <ele>51.598874</ele>
        <time>2022-12-18T11:19:00.588Z</time>
      </trkpt>
      <trkpt lat="46.72673" lon="-1.96214">
        <ele>51.557236</ele>
        <time>2022-12-18T11:19:02.596Z</time>
      </trkpt>
      <trkpt lat="46.72667" lon="-1.96204">
        <ele>51.517553</ele>
        <time>2022-12-18T11:19:04.597Z</time>
      </trkpt>
      <trkpt lat="46.72661" lon="-1.96194">
        <ele>51.477586</ele>
        <time>2022-12-18T11:19:06.589Z</time>
      </trkpt>
      <trkpt lat="46.72652" lon="-1.9618">
        <ele>51.421611</ele>
        <time>2022-12-18T11:19:09.612Z</time>
      </trkpt>
      <trkpt lat="46.72646" lon="-1.9617">
        <ele>51.382274</ele>
        <time>2022-12-18T11:19:11.615Z</time>
      </trkpt>
      <trkpt lat="46.72636" lon="-1.96156">
        <ele>51.323747</ele>
        <time>2022-12-18T11:19:14.604Z</time>
      </trkpt>
      <trkpt lat="46.7263" lon="-1.96146">
        <ele>51.284797</ele>
        <time>2022-12-18T11:19:16.606Z</time>
      </trkpt>
      <trkpt lat="46.72622" lon="-1.96133">
        <ele>51.232194</ele>
        <time>2022-12-18T11:19:19.620Z</time>
      </trkpt>
      <trkpt lat="46.72614" lon="-1.96119">
        <ele>51.178078</ele>
        <time>2022-12-18T11:19:22.607Z</time>
      </trkpt>
      <trkpt lat="46.72607" lon="-1.96103">
        <ele>51.121504</ele>
        <time>2022-12-18T11:19:25.604Z</time>
      </trkpt>
      <trkpt lat="46.72602" lon="-1.96091">
        <ele>51.079378</ele>
        <time>2022-12-18T11:19:27.622Z</time>
      </trkpt>
      <trkpt lat="46.72597" lon="-1.9608">
        <ele>51.088754</ele>
        <time>2022-12-18T11:19:29.606Z</time>
      </trkpt>
      <trkpt lat="46.72592" lon="-1.96069">
        <ele>51.100954</ele>
        <time>2022-12-18T11:19:31.615Z</time>
      </trkpt>
      <trkpt lat="46.72587" lon="-1.96057">
        <ele>51.112742</ele>
        <time>2022-12-18T11:19:33.607Z</time>
      </trkpt>
      <trkpt lat="46.72582" lon="-1.96046">
        <ele>51.124436</ele>
        <time>2022-12-18T11:19:35.593Z</time>
      </trkpt>
      <trkpt lat="46.72575" lon="-1.96029">
        <ele>51.141363</ele>
        <time>2022-12-18T11:19:38.593Z</time>
      </trkpt>
      <trkpt lat="46.72568" lon="-1.96013">
        <ele>51.158666</ele>
        <time>2022-12-18T11:19:41.607Z</time>
      </trkpt>
      <trkpt lat="46.72562" lon="-1.95995">
        <ele>51.175943</ele>
        <time>2022-12-18T11:19:44.597Z</time>
      </trkpt>
      <trkpt lat="46.72556" lon="-1.95982">
        <ele>51.189921</ele>
        <time>2022-12-18T11:19:47.615Z</time>
      </trkpt>
      <trkpt lat="46.72551" lon="-1.95967">
        <ele>51.203964</ele>
        <time>2022-12-18T11:19:50.614Z</time>
      </trkpt>
      <trkpt lat="46.72547" lon="-1.95955">
        <ele>51.216045</ele>
        <time>2022-12-18T11:19:53.614Z</time>
      </trkpt>
      <trkpt lat="46.72542" lon="-1.95942">
        <ele>51.229234</ele>
        <time>2022-12-18T11:19:57.595Z</time>
      </trkpt>
      <trkpt lat="46.72536" lon="-1.95929">
        <ele>51.243609</ele>
        <time>2022-12-18T11:20:01.604Z</time>
      </trkpt>
      <trkpt lat="46.7253" lon="-1.95917">
        <ele>51.256234</ele>
        <time>2022-12-18T11:20:05.595Z</time>
      </trkpt>
      <trkpt lat="46.72524" lon="-1.95903">
        <ele>51.270457</ele>
        <time>2022-12-18T11:20:10.602Z</time>
      </trkpt>
      <trkpt lat="46.72519" lon="-1.95891">
        <ele>51.283686</ele>
        <time>2022-12-18T11:20:14.613Z</time>
      </trkpt>
      <trkpt lat="46.72513" lon="-1.95876">
        <ele>51.297909</ele>
        <time>2022-12-18T11:20:18.587Z</time>
      </trkpt>
      <trkpt lat="46.72508" lon="-1.95863">
        <ele>51.328696</ele>
        <time>2022-12-18T11:20:22.611Z</time>
      </trkpt>
      <trkpt lat="46.72502" lon="-1.95848">
        <ele>51.411884</ele>
        <time>2022-12-18T11:20:26.617Z</time>
      </trkpt>
      <trkpt lat="46.72498" lon="-1.95835">
        <ele>51.482321</ele>
        <time>2022-12-18T11:20:29.590Z</time>
      </trkpt>
      <trkpt lat="46.72493" lon="-1.95822">
        <ele>51.553963</ele>
        <time>2022-12-18T11:20:32.609Z</time>
      </trkpt>
      <trkpt lat="46.72489" lon="-1.95809">
        <ele>51.624376</ele>
        <time>2022-12-18T11:20:35.615Z</time>
      </trkpt>
      <trkpt lat="46.72485" lon="-1.95795">
        <ele>51.698697</ele>
        <time>2022-12-18T11:20:38.612Z</time>
      </trkpt>
      <trkpt lat="46.72481" lon="-1.95781">
        <ele>51.774483</ele>
        <time>2022-12-18T11:20:41.584Z</time>
      </trkpt>
      <trkpt lat="46.72478" lon="-1.95766">
        <ele>51.854219</ele>
        <time>2022-12-18T11:20:44.617Z</time>
      </trkpt>
      <trkpt lat="46.72474" lon="-1.95751">
        <ele>51.932372</ele>
        <time>2022-12-18T11:20:47.587Z</time>
      </trkpt>
      <trkpt lat="46.7247" lon="-1.95739">
        <ele>51.998307</ele>
        <time>2022-12-18T11:20:50.615Z</time>
      </trkpt>
      <trkpt lat="46.72467" lon="-1.95725">
        <ele>52.068966</ele>
        <time>2022-12-18T11:20:53.610Z</time>
      </trkpt>
      <trkpt lat="46.72463" lon="-1.9571">
        <ele>52.146811</ele>
        <time>2022-12-18T11:20:56.596Z</time>
      </trkpt>
      <trkpt lat="46.72459" lon="-1.95696">
        <ele>52.226816</ele>
        <time>2022-12-18T11:20:59.617Z</time>
      </trkpt>
      <trkpt lat="46.72454" lon="-1.9568">
        <ele>52.308348</ele>
        <time>2022-12-18T11:21:02.612Z</time>
      </trkpt>
      <trkpt lat="46.7245" lon="-1.95665">
        <ele>52.388691</ele>
        <time>2022-12-18T11:21:05.608Z</time>
      </trkpt>
      <trkpt lat="46.72447" lon="-1.95653">
        <ele>52.455084</ele>
        <time>2022-12-18T11:21:08.604Z</time>
      </trkpt>
      <trkpt lat="46.72444" lon="-1.9564">
        <ele>52.522409</ele>
        <time>2022-12-18T11:21:11.595Z</time>
      </trkpt>
      <trkpt lat="46.7244" lon="-1.95627">
        <ele>52.592807</ele>
        <time>2022-12-18T11:21:14.595Z</time>
      </trkpt>
      <trkpt lat="46.72436" lon="-1.95614">
        <ele>52.651441</ele>
        <time>2022-12-18T11:21:17.590Z</time>
      </trkpt>
      <trkpt lat="46.72431" lon="-1.95601">
        <ele>52.709337</ele>
        <time>2022-12-18T11:21:20.605Z</time>
      </trkpt>
      <trkpt lat="46.72426" lon="-1.95589">
        <ele>52.76626</ele>
        <time>2022-12-18T11:21:23.604Z</time>
      </trkpt>
      <trkpt lat="46.72423" lon="-1.95574">
        <ele>52.825476</ele>
        <time>2022-12-18T11:21:26.592Z</time>
      </trkpt>
      <trkpt lat="46.72426" lon="-1.95559">
        <ele>52.888365</ele>
        <time>2022-12-18T11:21:29.592Z</time>
      </trkpt>
      <trkpt lat="46.72431" lon="-1.95543">
        <ele>52.957689</ele>
        <time>2022-12-18T11:21:32.613Z</time>
      </trkpt>
      <trkpt lat="46.72436" lon="-1.95527">
        <ele>53.029897</ele>
        <time>2022-12-18T11:21:35.610Z</time>
      </trkpt>
      <trkpt lat="46.7244" lon="-1.95509">
        <ele>53.102498</ele>
        <time>2022-12-18T11:21:38.588Z</time>
      </trkpt>
      <trkpt lat="46.72442" lon="-1.95492">
        <ele>53.171296</ele>
        <time>2022-12-18T11:21:41.588Z</time>
      </trkpt>
      <trkpt lat="46.72442" lon="-1.95473">
        <ele>53.243814</ele>
        <time>2022-12-18T11:21:44.591Z</time>
      </trkpt>
      <trkpt lat="46.72441" lon="-1.95455">
        <ele>53.315599</ele>
        <time>2022-12-18T11:21:47.614Z</time>
      </trkpt>
      <trkpt lat="46.7244" lon="-1.95437">
        <ele>53.387164</ele>
        <time>2022-12-18T11:21:50.598Z</time>
      </trkpt>
      <trkpt lat="46.72439" lon="-1.95421">
        <ele>53.451979</ele>
        <time>2022-12-18T11:21:53.610Z</time>
      </trkpt>
      <trkpt lat="46.72438" lon="-1.95406">
        <ele>53.510982</ele>
        <time>2022-12-18T11:21:56.593Z</time>
      </trkpt>
      <trkpt lat="46.72436" lon="-1.95391">
        <ele>53.571588</ele>
        <time>2022-12-18T11:21:59.594Z</time>
      </trkpt>
      <trkpt lat="46.72435" lon="-1.95375">
        <ele>53.635232</ele>
        <time>2022-12-18T11:22:02.618Z</time>
      </trkpt>
      <trkpt lat="46.72433" lon="-1.95357">
        <ele>53.722416</ele>
        <time>2022-12-18T11:22:05.620Z</time>
      </trkpt>
      <trkpt lat="46.72431" lon="-1.95339">
        <ele>53.813911</ele>
        <time>2022-12-18T11:22:08.601Z</time>
      </trkpt>
      <trkpt lat="46.72429" lon="-1.9532">
        <ele>53.907673</ele>
        <time>2022-12-18T11:22:11.592Z</time>
      </trkpt>
      <trkpt lat="46.72427" lon="-1.95303">
        <ele>53.998296</ele>
        <time>2022-12-18T11:22:14.617Z</time>
      </trkpt>
      <trkpt lat="46.72426" lon="-1.95286">
        <ele>54.084037</ele>
        <time>2022-12-18T11:22:17.598Z</time>
      </trkpt>
      <trkpt lat="46.72423" lon="-1.95269">
        <ele>54.170765</ele>
        <time>2022-12-18T11:22:20.589Z</time>
      </trkpt>
      <trkpt lat="46.72421" lon="-1.95251">
        <ele>54.260576</ele>
        <time>2022-12-18T11:22:23.611Z</time>
      </trkpt>
      <trkpt lat="46.72418" lon="-1.95233">
        <ele>54.353138</ele>
        <time>2022-12-18T11:22:26.604Z</time>
      </trkpt>
      <trkpt lat="46.72414" lon="-1.95215">
        <ele>54.448419</ele>
        <time>2022-12-18T11:22:29.596Z</time>
      </trkpt>
      <trkpt lat="46.72411" lon="-1.95196">
        <ele>54.547152</ele>
        <time>2022-12-18T11:22:32.587Z</time>
      </trkpt>
      <trkpt lat="46.72408" lon="-1.95182">
        <ele>54.61539</ele>
        <time>2022-12-18T11:22:34.618Z</time>
      </trkpt>
      <trkpt lat="46.72405" lon="-1.95164">
        <ele>54.711393</ele>
        <time>2022-12-18T11:22:37.616Z</time>
      </trkpt>
      <trkpt lat="46.72401" lon="-1.95147">
        <ele>54.802627</ele>
        <time>2022-12-18T11:22:40.609Z</time>
      </trkpt>
      <trkpt lat="46.72398" lon="-1.9513">
        <ele>54.888597</ele>
        <time>2022-12-18T11:22:43.604Z</time>
      </trkpt>
      <trkpt lat="46.72395" lon="-1.95115">
        <ele>54.941164</ele>
        <time>2022-12-18T11:22:46.619Z</time>
      </trkpt>
      <trkpt lat="46.72391" lon="-1.95098">
        <ele>54.897503</ele>
        <time>2022-12-18T11:22:49.615Z</time>
      </trkpt>
      <trkpt lat="46.72385" lon="-1.95081">
        <ele>54.849988</ele>
        <time>2022-12-18T11:22:52.596Z</time>
      </trkpt>
      <trkpt lat="46.72381" lon="-1.95069">
        <ele>54.815367</ele>
        <time>2022-12-18T11:22:54.610Z</time>
      </trkpt>
      <trkpt lat="46.72378" lon="-1.95057">
        <ele>54.781535</ele>
        <time>2022-12-18T11:22:56.615Z</time>
      </trkpt>
      <trkpt lat="46.72374" lon="-1.95045">
        <ele>54.747468</ele>
        <time>2022-12-18T11:22:58.608Z</time>
      </trkpt>
      <trkpt lat="46.7237" lon="-1.95033">
        <ele>54.713785</ele>
        <time>2022-12-18T11:23:00.608Z</time>
      </trkpt>
      <trkpt lat="46.72364" lon="-1.95016">
        <ele>54.665666</ele>
        <time>2022-12-18T11:23:03.605Z</time>
      </trkpt>
      <trkpt lat="46.72358" lon="-1.94999">
        <ele>54.617607</ele>
        <time>2022-12-18T11:23:06.617Z</time>
      </trkpt>
      <trkpt lat="46.72353" lon="-1.94982">
        <ele>54.569935</ele>
        <time>2022-12-18T11:23:09.588Z</time>
      </trkpt>
      <trkpt lat="46.72348" lon="-1.94966">
        <ele>54.525509</ele>
        <time>2022-12-18T11:23:12.607Z</time>
      </trkpt>
      <trkpt lat="46.72344" lon="-1.94951">
        <ele>54.485535</ele>
        <time>2022-12-18T11:23:15.607Z</time>
      </trkpt>
      <trkpt lat="46.72341" lon="-1.94938">
        <ele>54.451709</ele>
        <time>2022-12-18T11:23:18.615Z</time>
      </trkpt>
      <trkpt lat="46.72337" lon="-1.94923">
        <ele>54.411025</ele>
        <time>2022-12-18T11:23:22.597Z</time>
      </trkpt>
      <trkpt lat="46.72333" lon="-1.94911">
        <ele>54.377117</ele>
        <time>2022-12-18T11:23:25.615Z</time>
      </trkpt>
      <trkpt lat="46.7233" lon="-1.94898">
        <ele>54.340052</ele>
        <time>2022-12-18T11:23:28.597Z</time>
      </trkpt>
      <trkpt lat="46.72327" lon="-1.94883">
        <ele>54.301668</ele>
        <time>2022-12-18T11:23:31.605Z</time>
      </trkpt>
      <trkpt lat="46.72322" lon="-1.94868">
        <ele>54.317283</ele>
        <time>2022-12-18T11:23:34.613Z</time>
      </trkpt>
      <trkpt lat="46.72318" lon="-1.94852">
        <ele>54.370705</ele>
        <time>2022-12-18T11:23:37.608Z</time>
      </trkpt>
      <trkpt lat="46.72314" lon="-1.94836">
        <ele>54.423486</ele>
        <time>2022-12-18T11:23:40.619Z</time>
      </trkpt>
      <trkpt lat="46.7231" lon="-1.9482">
        <ele>54.474636</ele>
        <time>2022-12-18T11:23:43.620Z</time>
      </trkpt>
      <trkpt lat="46.72307" lon="-1.94806">
        <ele>54.522993</ele>
        <time>2022-12-18T11:23:46.600Z</time>
      </trkpt>
      <trkpt lat="46.72303" lon="-1.94792">
        <ele>54.568781</ele>
        <time>2022-12-18T11:23:49.593Z</time>
      </trkpt>
      <trkpt lat="46.723" lon="-1.94779">
        <ele>54.612308</ele>
        <time>2022-12-18T11:23:52.594Z</time>
      </trkpt>
      <trkpt lat="46.72296" lon="-1.94763">
        <ele>54.665972</ele>
        <time>2022-12-18T11:23:56.603Z</time>
      </trkpt>
      <trkpt lat="46.72293" lon="-1.94747">
        <ele>54.718626</ele>
        <time>2022-12-18T11:24:00.613Z</time>
      </trkpt>
      <trkpt lat="46.72289" lon="-1.94732">
        <ele>54.768475</ele>
        <time>2022-12-18T11:24:04.590Z</time>
      </trkpt>
      <trkpt lat="46.72284" lon="-1.94717">
        <ele>54.819738</ele>
        <time>2022-12-18T11:24:08.611Z</time>
      </trkpt>
      <trkpt lat="46.7228" lon="-1.94704">
        <ele>54.86373</ele>
        <time>2022-12-18T11:24:12.613Z</time>
      </trkpt>
      <trkpt lat="46.72276" lon="-1.94692">
        <ele>54.906399</ele>
        <time>2022-12-18T11:24:17.591Z</time>
      </trkpt>
      <trkpt lat="46.72269" lon="-1.94679">
        <ele>54.957047</ele>
        <time>2022-12-18T11:24:22.606Z</time>
      </trkpt>
      <trkpt lat="46.72262" lon="-1.94668">
        <ele>55.004164</ele>
        <time>2022-12-18T11:24:26.603Z</time>
      </trkpt>
      <trkpt lat="46.72256" lon="-1.94658">
        <ele>55.046242</ele>
        <time>2022-12-18T11:24:29.610Z</time>
      </trkpt>
      <trkpt lat="46.72248" lon="-1.94647">
        <ele>55.096906</ele>
        <time>2022-12-18T11:24:32.616Z</time>
      </trkpt>
      <trkpt lat="46.7224" lon="-1.94635">
        <ele>55.215414</ele>
        <time>2022-12-18T11:24:35.609Z</time>
      </trkpt>
      <trkpt lat="46.72231" lon="-1.94625">
        <ele>55.342658</ele>
        <time>2022-12-18T11:24:38.613Z</time>
      </trkpt>
      <trkpt lat="46.72224" lon="-1.94613">
        <ele>55.464329</ele>
        <time>2022-12-18T11:24:41.589Z</time>
      </trkpt>
      <trkpt lat="46.72216" lon="-1.94603">
        <ele>55.582164</ele>
        <time>2022-12-18T11:24:44.611Z</time>
      </trkpt>
      <trkpt lat="46.72209" lon="-1.94593">
        <ele>55.696732</ele>
        <time>2022-12-18T11:24:47.616Z</time>
      </trkpt>
      <trkpt lat="46.72202" lon="-1.94583">
        <ele>55.810858</ele>
        <time>2022-12-18T11:24:50.608Z</time>
      </trkpt>
      <trkpt lat="46.72194" lon="-1.94571">
        <ele>55.936039</ele>
        <time>2022-12-18T11:24:54.609Z</time>
      </trkpt>
      <trkpt lat="46.72183" lon="-1.94567">
        <ele>56.065955</ele>
        <time>2022-12-18T11:24:58.595Z</time>
      </trkpt>
      <trkpt lat="46.72173" lon="-1.94572">
        <ele>56.184909</ele>
        <time>2022-12-18T11:25:01.615Z</time>
      </trkpt>
      <trkpt lat="46.72163" lon="-1.94577">
        <ele>56.31046</ele>
        <time>2022-12-18T11:25:04.608Z</time>
      </trkpt>
      <trkpt lat="46.72152" lon="-1.94581">
        <ele>56.434014</ele>
        <time>2022-12-18T11:25:07.604Z</time>
      </trkpt>
      <trkpt lat="46.72141" lon="-1.94585">
        <ele>56.567441</ele>
        <time>2022-12-18T11:25:10.586Z</time>
      </trkpt>
      <trkpt lat="46.7213" lon="-1.94588">
        <ele>56.698299</ele>
        <time>2022-12-18T11:25:13.612Z</time>
      </trkpt>
      <trkpt lat="46.72119" lon="-1.94592">
        <ele>56.827463</ele>
        <time>2022-12-18T11:25:16.615Z</time>
      </trkpt>
      <trkpt lat="46.72107" lon="-1.94595">
        <ele>56.957392</ele>
        <time>2022-12-18T11:25:19.608Z</time>
      </trkpt>
      <trkpt lat="46.72096" lon="-1.94597">
        <ele>57.093028</ele>
        <time>2022-12-18T11:25:22.605Z</time>
      </trkpt>
      <trkpt lat="46.72084" lon="-1.946">
        <ele>57.265333</ele>
        <time>2022-12-18T11:25:25.603Z</time>
      </trkpt>
      <trkpt lat="46.72074" lon="-1.94604">
        <ele>57.455301</ele>
        <time>2022-12-18T11:25:28.612Z</time>
      </trkpt>
      <trkpt lat="46.72063" lon="-1.94607">
        <ele>57.65439</ele>
        <time>2022-12-18T11:25:32.620Z</time>
      </trkpt>
      <trkpt lat="46.72054" lon="-1.94609">
        <ele>57.818043</ele>
        <time>2022-12-18T11:25:35.614Z</time>
      </trkpt>
      <trkpt lat="46.72043" lon="-1.94612">
        <ele>58.022705</ele>
        <time>2022-12-18T11:25:39.618Z</time>
      </trkpt>
      <trkpt lat="46.72032" lon="-1.94618">
        <ele>58.232216</ele>
        <time>2022-12-18T11:25:43.596Z</time>
      </trkpt>
      <trkpt lat="46.72023" lon="-1.94624">
        <ele>58.417583</ele>
        <time>2022-12-18T11:25:46.606Z</time>
      </trkpt>
      <trkpt lat="46.72014" lon="-1.94633">
        <ele>58.617438</ele>
        <time>2022-12-18T11:25:49.620Z</time>
      </trkpt>
      <trkpt lat="46.72004" lon="-1.94642">
        <ele>58.820608</ele>
        <time>2022-12-18T11:25:52.605Z</time>
      </trkpt>
      <trkpt lat="46.71996" lon="-1.9465">
        <ele>59.004864</ele>
        <time>2022-12-18T11:25:55.618Z</time>
      </trkpt>
      <trkpt lat="46.71988" lon="-1.94657">
        <ele>59.182343</ele>
        <time>2022-12-18T11:25:58.610Z</time>
      </trkpt>
      <trkpt lat="46.7198" lon="-1.94665">
        <ele>59.35496</ele>
        <time>2022-12-18T11:26:01.595Z</time>
      </trkpt>
      <trkpt lat="46.7197" lon="-1.94671">
        <ele>59.538693</ele>
        <time>2022-12-18T11:26:04.609Z</time>
      </trkpt>
      <trkpt lat="46.71961" lon="-1.94678">
        <ele>59.735544</ele>
        <time>2022-12-18T11:26:07.597Z</time>
      </trkpt>
      <trkpt lat="46.71951" lon="-1.94687">
        <ele>59.943183</ele>
        <time>2022-12-18T11:26:10.605Z</time>
      </trkpt>
      <trkpt lat="46.7194" lon="-1.94695">
        <ele>60.161167</ele>
        <time>2022-12-18T11:26:13.605Z</time>
      </trkpt>
      <trkpt lat="46.7193" lon="-1.94702">
        <ele>60.371608</ele>
        <time>2022-12-18T11:26:16.620Z</time>
      </trkpt>
      <trkpt lat="46.7192" lon="-1.94709">
        <ele>60.588484</ele>
        <time>2022-12-18T11:26:19.606Z</time>
      </trkpt>
      <trkpt lat="46.7191" lon="-1.94716">
        <ele>60.810524</ele>
        <time>2022-12-18T11:26:22.593Z</time>
      </trkpt>
      <trkpt lat="46.719" lon="-1.94722">
        <ele>61.03088</ele>
        <time>2022-12-18T11:26:25.605Z</time>
      </trkpt>
      <trkpt lat="46.7189" lon="-1.94729">
        <ele>61.249367</ele>
        <time>2022-12-18T11:26:28.608Z</time>
      </trkpt>
      <trkpt lat="46.71881" lon="-1.94735">
        <ele>61.460362</ele>
        <time>2022-12-18T11:26:31.620Z</time>
      </trkpt>
      <trkpt lat="46.71873" lon="-1.94742">
        <ele>61.659932</ele>
        <time>2022-12-18T11:26:34.616Z</time>
      </trkpt>
      <trkpt lat="46.71865" lon="-1.94749">
        <ele>61.847786</ele>
        <time>2022-12-18T11:26:37.601Z</time>
      </trkpt>
      <trkpt lat="46.71854" lon="-1.94757">
        <ele>62.087852</ele>
        <time>2022-12-18T11:26:41.608Z</time>
      </trkpt>
      <trkpt lat="46.71846" lon="-1.94764">
        <ele>62.281383</ele>
        <time>2022-12-18T11:26:44.592Z</time>
      </trkpt>
      <trkpt lat="46.71836" lon="-1.94772">
        <ele>62.512076</ele>
        <time>2022-12-18T11:26:48.605Z</time>
      </trkpt>
      <trkpt lat="46.71827" lon="-1.9478">
        <ele>62.735172</ele>
        <time>2022-12-18T11:26:52.616Z</time>
      </trkpt>
      <trkpt lat="46.71818" lon="-1.94787">
        <ele>62.929005</ele>
        <time>2022-12-18T11:26:56.590Z</time>
      </trkpt>
      <trkpt lat="46.7181" lon="-1.94794">
        <ele>63.129682</ele>
        <time>2022-12-18T11:27:03.602Z</time>
      </trkpt>
      <trkpt lat="46.71801" lon="-1.94801">
        <ele>63.333064</ele>
        <time>2022-12-18T11:27:10.593Z</time>
      </trkpt>
      <trkpt lat="46.71793" lon="-1.94809">
        <ele>63.540673</ele>
        <time>2022-12-18T11:27:14.590Z</time>
      </trkpt>
      <trkpt lat="46.71784" lon="-1.94815">
        <ele>63.740845</ele>
        <time>2022-12-18T11:27:17.592Z</time>
      </trkpt>
      <trkpt lat="46.71774" lon="-1.94821">
        <ele>63.9599</ele>
        <time>2022-12-18T11:27:20.617Z</time>
      </trkpt>
      <trkpt lat="46.71764" lon="-1.94827">
        <ele>64.100594</ele>
        <time>2022-12-18T11:27:23.615Z</time>
      </trkpt>
      <trkpt lat="46.71755" lon="-1.94833">
        <ele>64.135114</ele>
        <time>2022-12-18T11:27:26.617Z</time>
      </trkpt>
      <trkpt lat="46.71745" lon="-1.94837">
        <ele>64.170315</ele>
        <time>2022-12-18T11:27:29.599Z</time>
      </trkpt>
      <trkpt lat="46.71735" lon="-1.94842">
        <ele>64.204719</ele>
        <time>2022-12-18T11:27:32.610Z</time>
      </trkpt>
      <trkpt lat="46.71725" lon="-1.94847">
        <ele>64.240619</ele>
        <time>2022-12-18T11:27:35.605Z</time>
      </trkpt>
      <trkpt lat="46.71715" lon="-1.94852">
        <ele>64.274034</ele>
        <time>2022-12-18T11:27:38.609Z</time>
      </trkpt>
      <trkpt lat="46.71706" lon="-1.94856">
        <ele>64.306747</ele>
        <time>2022-12-18T11:27:41.605Z</time>
      </trkpt>
      <trkpt lat="46.71696" lon="-1.94859">
        <ele>64.340349</ele>
        <time>2022-12-18T11:27:44.616Z</time>
      </trkpt>
      <trkpt lat="46.71686" lon="-1.94861">
        <ele>64.374125</ele>
        <time>2022-12-18T11:27:47.614Z</time>
      </trkpt>
      <trkpt lat="46.71675" lon="-1.94863">
        <ele>64.409487</ele>
        <time>2022-12-18T11:27:51.617Z</time>
      </trkpt>
      <trkpt lat="46.71663" lon="-1.94864">
        <ele>64.448274</ele>
        <time>2022-12-18T11:27:55.620Z</time>
      </trkpt>
      <trkpt lat="46.71653" lon="-1.94865">
        <ele>64.481475</ele>
        <time>2022-12-18T11:27:58.611Z</time>
      </trkpt>
      <trkpt lat="46.71643" lon="-1.94864">
        <ele>64.516028</ele>
        <time>2022-12-18T11:28:01.592Z</time>
      </trkpt>
      <trkpt lat="46.71632" lon="-1.94861">
        <ele>64.552459</ele>
        <time>2022-12-18T11:28:04.606Z</time>
      </trkpt>
      <trkpt lat="46.71621" lon="-1.94858">
        <ele>64.588156</ele>
        <time>2022-12-18T11:28:07.609Z</time>
      </trkpt>
      <trkpt lat="46.71611" lon="-1.94856">
        <ele>64.623075</ele>
        <time>2022-12-18T11:28:10.601Z</time>
      </trkpt>
      <trkpt lat="46.716" lon="-1.94854">
        <ele>64.658949</ele>
        <time>2022-12-18T11:28:13.608Z</time>
      </trkpt>
      <trkpt lat="46.71589" lon="-1.94851">
        <ele>64.580733</ele>
        <time>2022-12-18T11:28:16.599Z</time>
      </trkpt>
      <trkpt lat="46.71577" lon="-1.94848">
        <ele>64.270851</ele>
        <time>2022-12-18T11:28:19.591Z</time>
      </trkpt>
      <trkpt lat="46.71564" lon="-1.94846">
        <ele>63.922333</ele>
        <time>2022-12-18T11:28:22.608Z</time>
      </trkpt>
      <trkpt lat="46.71551" lon="-1.94844">
        <ele>63.584878</ele>
        <time>2022-12-18T11:28:25.619Z</time>
      </trkpt>
      <trkpt lat="46.71539" lon="-1.94843">
        <ele>63.276948</ele>
        <time>2022-12-18T11:28:28.612Z</time>
      </trkpt>
      <trkpt lat="46.71528" lon="-1.94842">
        <ele>62.995477</ele>
        <time>2022-12-18T11:28:31.618Z</time>
      </trkpt>
      <trkpt lat="46.71518" lon="-1.94842">
        <ele>62.734597</ele>
        <time>2022-12-18T11:28:34.616Z</time>
      </trkpt>
      <trkpt lat="46.71509" lon="-1.94841">
        <ele>62.493867</ele>
        <time>2022-12-18T11:28:37.615Z</time>
      </trkpt>
      <trkpt lat="46.71499" lon="-1.9484">
        <ele>62.250975</ele>
        <time>2022-12-18T11:28:40.609Z</time>
      </trkpt>
      <trkpt lat="46.71489" lon="-1.9484">
        <ele>61.982495</ele>
        <time>2022-12-18T11:28:43.609Z</time>
      </trkpt>
      <trkpt lat="46.71476" lon="-1.9484">
        <ele>61.654474</ele>
        <time>2022-12-18T11:28:46.610Z</time>
      </trkpt>
      <trkpt lat="46.71466" lon="-1.94839">
        <ele>61.401265</ele>
        <time>2022-12-18T11:28:48.620Z</time>
      </trkpt>
      <trkpt lat="46.71456" lon="-1.94839">
        <ele>61.135367</ele>
        <time>2022-12-18T11:28:50.605Z</time>
      </trkpt>
      <trkpt lat="46.71445" lon="-1.94839">
        <ele>60.859057</ele>
        <time>2022-12-18T11:28:52.595Z</time>
      </trkpt>
      <trkpt lat="46.71434" lon="-1.94838">
        <ele>60.569665</ele>
        <time>2022-12-18T11:28:54.586Z</time>
      </trkpt>
      <trkpt lat="46.71422" lon="-1.94837">
        <ele>60.267444</ele>
        <time>2022-12-18T11:28:56.603Z</time>
      </trkpt>
      <trkpt lat="46.71411" lon="-1.94837">
        <ele>60.075953</ele>
        <time>2022-12-18T11:28:58.597Z</time>
      </trkpt>
      <trkpt lat="46.71399" lon="-1.94837">
        <ele>60.231855</ele>
        <time>2022-12-18T11:29:00.610Z</time>
      </trkpt>
      <trkpt lat="46.71387" lon="-1.9484">
        <ele>60.386697</ele>
        <time>2022-12-18T11:29:02.600Z</time>
      </trkpt>
      <trkpt lat="46.71376" lon="-1.94845">
        <ele>60.53434</ele>
        <time>2022-12-18T11:29:04.599Z</time>
      </trkpt>
      <trkpt lat="46.71366" lon="-1.94848">
        <ele>60.661179</ele>
        <time>2022-12-18T11:29:06.589Z</time>
      </trkpt>
      <trkpt lat="46.71357" lon="-1.94852">
        <ele>60.777968</ele>
        <time>2022-12-18T11:29:08.613Z</time>
      </trkpt>
      <trkpt lat="46.71345" lon="-1.94858">
        <ele>60.946233</ele>
        <time>2022-12-18T11:29:11.609Z</time>
      </trkpt>
      <trkpt lat="46.71333" lon="-1.94864">
        <ele>61.103747</ele>
        <time>2022-12-18T11:29:14.609Z</time>
      </trkpt>
      <trkpt lat="46.71322" lon="-1.94869">
        <ele>61.246327</ele>
        <time>2022-12-18T11:29:17.607Z</time>
      </trkpt>
      <trkpt lat="46.71313" lon="-1.94874">
        <ele>61.379839</ele>
        <time>2022-12-18T11:29:20.611Z</time>
      </trkpt>
      <trkpt lat="46.71303" lon="-1.94879">
        <ele>61.50375</ele>
        <time>2022-12-18T11:29:23.594Z</time>
      </trkpt>
      <trkpt lat="46.71293" lon="-1.94883">
        <ele>61.643546</ele>
        <time>2022-12-18T11:29:26.607Z</time>
      </trkpt>
      <trkpt lat="46.71283" lon="-1.94889">
        <ele>61.784271</ele>
        <time>2022-12-18T11:29:29.593Z</time>
      </trkpt>
      <trkpt lat="46.71272" lon="-1.94894">
        <ele>61.93023</ele>
        <time>2022-12-18T11:29:32.611Z</time>
      </trkpt>
      <trkpt lat="46.71261" lon="-1.94899">
        <ele>62.074542</ele>
        <time>2022-12-18T11:29:35.615Z</time>
      </trkpt>
      <trkpt lat="46.7125" lon="-1.94905">
        <ele>62.22217</ele>
        <time>2022-12-18T11:29:38.595Z</time>
      </trkpt>
      <trkpt lat="46.71239" lon="-1.94911">
        <ele>62.370988</ele>
        <time>2022-12-18T11:29:41.608Z</time>
      </trkpt>
      <trkpt lat="46.7123" lon="-1.94917">
        <ele>62.510394</ele>
        <time>2022-12-18T11:29:44.614Z</time>
      </trkpt>
      <trkpt lat="46.7122" lon="-1.94922">
        <ele>62.645264</ele>
        <time>2022-12-18T11:29:47.611Z</time>
      </trkpt>
      <trkpt lat="46.71211" lon="-1.94928">
        <ele>62.778781</ele>
        <time>2022-12-18T11:29:50.608Z</time>
      </trkpt>
      <trkpt lat="46.71202" lon="-1.94935">
        <ele>62.916679</ele>
        <time>2022-12-18T11:29:53.605Z</time>
      </trkpt>
      <trkpt lat="46.71192" lon="-1.94942">
        <ele>63.054507</ele>
        <time>2022-12-18T11:29:56.608Z</time>
      </trkpt>
      <trkpt lat="46.71184" lon="-1.94948">
        <ele>63.176494</ele>
        <time>2022-12-18T11:29:59.605Z</time>
      </trkpt>
      <trkpt lat="46.71175" lon="-1.94954">
        <ele>63.312732</ele>
        <time>2022-12-18T11:30:02.616Z</time>
      </trkpt>
      <trkpt lat="46.71165" lon="-1.9496">
        <ele>63.453897</ele>
        <time>2022-12-18T11:30:05.615Z</time>
      </trkpt>
      <trkpt lat="46.71155" lon="-1.94967">
        <ele>63.596914</ele>
        <time>2022-12-18T11:30:08.605Z</time>
      </trkpt>
      <trkpt lat="46.71146" lon="-1.94974">
        <ele>63.739923</ele>
        <time>2022-12-18T11:30:11.618Z</time>
      </trkpt>
      <trkpt lat="46.71136" lon="-1.9498">
        <ele>63.883181</ele>
        <time>2022-12-18T11:30:14.602Z</time>
      </trkpt>
      <trkpt lat="46.71126" lon="-1.94987">
        <ele>64.027354</ele>
        <time>2022-12-18T11:30:17.606Z</time>
      </trkpt>
      <trkpt lat="46.71116" lon="-1.94993">
        <ele>64.171313</ele>
        <time>2022-12-18T11:30:20.597Z</time>
      </trkpt>
      <trkpt lat="46.71106" lon="-1.94999">
        <ele>64.304962</ele>
        <time>2022-12-18T11:30:23.618Z</time>
      </trkpt>
      <trkpt lat="46.71097" lon="-1.95005">
        <ele>64.441985</ele>
        <time>2022-12-18T11:30:26.620Z</time>
      </trkpt>
      <trkpt lat="46.71088" lon="-1.95011">
        <ele>64.570918</ele>
        <time>2022-12-18T11:30:29.619Z</time>
      </trkpt>
      <trkpt lat="46.71079" lon="-1.95016">
        <ele>64.696039</ele>
        <time>2022-12-18T11:30:32.596Z</time>
      </trkpt>
      <trkpt lat="46.7107" lon="-1.95021">
        <ele>64.71277</ele>
        <time>2022-12-18T11:30:35.611Z</time>
      </trkpt>
      <trkpt lat="46.71061" lon="-1.95026">
        <ele>64.702784</ele>
        <time>2022-12-18T11:30:38.620Z</time>
      </trkpt>
      <trkpt lat="46.71052" lon="-1.95031">
        <ele>64.693131</ele>
        <time>2022-12-18T11:30:41.609Z</time>
      </trkpt>
      <trkpt lat="46.71043" lon="-1.95035">
        <ele>64.682929</ele>
        <time>2022-12-18T11:30:44.612Z</time>
      </trkpt>
      <trkpt lat="46.71033" lon="-1.9504">
        <ele>64.672317</ele>
        <time>2022-12-18T11:30:47.626Z</time>
      </trkpt>
      <trkpt lat="46.71022" lon="-1.95043">
        <ele>64.661687</ele>
        <time>2022-12-18T11:30:50.608Z</time>
      </trkpt>
      <trkpt lat="46.71012" lon="-1.95046">
        <ele>64.651245</ele>
        <time>2022-12-18T11:30:53.617Z</time>
      </trkpt>
      <trkpt lat="46.71001" lon="-1.95048">
        <ele>64.640227</ele>
        <time>2022-12-18T11:30:56.596Z</time>
      </trkpt>
      <trkpt lat="46.7099" lon="-1.95051">
        <ele>64.628403</ele>
        <time>2022-12-18T11:30:59.619Z</time>
      </trkpt>
      <trkpt lat="46.70978" lon="-1.95053">
        <ele>64.616427</ele>
        <time>2022-12-18T11:31:02.608Z</time>
      </trkpt>
      <trkpt lat="46.70966" lon="-1.95054">
        <ele>64.604168</ele>
        <time>2022-12-18T11:31:05.595Z</time>
      </trkpt>
      <trkpt lat="46.70953" lon="-1.95055">
        <ele>64.590686</ele>
        <time>2022-12-18T11:31:08.610Z</time>
      </trkpt>
      <trkpt lat="46.70944" lon="-1.95056">
        <ele>64.581317</ele>
        <time>2022-12-18T11:31:10.609Z</time>
      </trkpt>
      <trkpt lat="46.70934" lon="-1.95056">
        <ele>64.571904</ele>
        <time>2022-12-18T11:31:12.614Z</time>
      </trkpt>
      <trkpt lat="46.70925" lon="-1.95057">
        <ele>64.562786</ele>
        <time>2022-12-18T11:31:14.612Z</time>
      </trkpt>
      <trkpt lat="46.70916" lon="-1.95057">
        <ele>64.553066</ele>
        <time>2022-12-18T11:31:16.606Z</time>
      </trkpt>
      <trkpt lat="46.70906" lon="-1.95057">
        <ele>64.543553</ele>
        <time>2022-12-18T11:31:18.615Z</time>
      </trkpt>
      <trkpt lat="46.70897" lon="-1.95057">
        <ele>64.506945</ele>
        <time>2022-12-18T11:31:20.614Z</time>
      </trkpt>
      <trkpt lat="46.70884" lon="-1.95058">
        <ele>64.410357</ele>
        <time>2022-12-18T11:31:23.610Z</time>
      </trkpt>
      <trkpt lat="46.70871" lon="-1.95058">
        <ele>64.315996</ele>
        <time>2022-12-18T11:31:26.604Z</time>
      </trkpt>
      <trkpt lat="46.70862" lon="-1.95058">
        <ele>64.248698</ele>
        <time>2022-12-18T11:31:28.618Z</time>
      </trkpt>
      <trkpt lat="46.70852" lon="-1.95057">
        <ele>64.179192</ele>
        <time>2022-12-18T11:31:30.614Z</time>
      </trkpt>
      <trkpt lat="46.70843" lon="-1.95058">
        <ele>64.108906</ele>
        <time>2022-12-18T11:31:32.616Z</time>
      </trkpt>
      <trkpt lat="46.70833" lon="-1.9506">
        <ele>64.036773</ele>
        <time>2022-12-18T11:31:34.604Z</time>
      </trkpt>
      <trkpt lat="46.70823" lon="-1.95061">
        <ele>63.963454</ele>
        <time>2022-12-18T11:31:36.616Z</time>
      </trkpt>
      <trkpt lat="46.70813" lon="-1.95062">
        <ele>63.891139</ele>
        <time>2022-12-18T11:31:38.616Z</time>
      </trkpt>
      <trkpt lat="46.70803" lon="-1.95066">
        <ele>63.819216</ele>
        <time>2022-12-18T11:31:40.614Z</time>
      </trkpt>
      <trkpt lat="46.70794" lon="-1.95069">
        <ele>63.750246</ele>
        <time>2022-12-18T11:31:42.614Z</time>
      </trkpt>
      <trkpt lat="46.70785" lon="-1.95072">
        <ele>63.679523</ele>
        <time>2022-12-18T11:31:44.617Z</time>
      </trkpt>
      <trkpt lat="46.70776" lon="-1.95077">
        <ele>63.609395</ele>
        <time>2022-12-18T11:31:46.609Z</time>
      </trkpt>
      <trkpt lat="46.70766" lon="-1.95081">
        <ele>63.536224</ele>
        <time>2022-12-18T11:31:48.592Z</time>
      </trkpt>
      <trkpt lat="46.70757" lon="-1.95085">
        <ele>63.462066</ele>
        <time>2022-12-18T11:31:50.612Z</time>
      </trkpt>
      <trkpt lat="46.70746" lon="-1.9509">
        <ele>63.382659</ele>
        <time>2022-12-18T11:31:52.599Z</time>
      </trkpt>
      <trkpt lat="46.70736" lon="-1.95095">
        <ele>63.305493</ele>
        <time>2022-12-18T11:31:54.606Z</time>
      </trkpt>
      <trkpt lat="46.70725" lon="-1.95101">
        <ele>63.217695</ele>
        <time>2022-12-18T11:31:56.604Z</time>
      </trkpt>
      <trkpt lat="46.70714" lon="-1.95105">
        <ele>63.118818</ele>
        <time>2022-12-18T11:31:58.607Z</time>
      </trkpt>
      <trkpt lat="46.70704" lon="-1.9511">
        <ele>63.026833</ele>
        <time>2022-12-18T11:32:00.618Z</time>
      </trkpt>
      <trkpt lat="46.70694" lon="-1.95113">
        <ele>62.940604</ele>
        <time>2022-12-18T11:32:02.618Z</time>
      </trkpt>
      <trkpt lat="46.70685" lon="-1.95117">
        <ele>62.85195</ele>
        <time>2022-12-18T11:32:04.608Z</time>
      </trkpt>
      <trkpt lat="46.70676" lon="-1.9512">
        <ele>62.771362</ele>
        <time>2022-12-18T11:32:06.610Z</time>
      </trkpt>
      <trkpt lat="46.70663" lon="-1.95123">
        <ele>62.660888</ele>
        <time>2022-12-18T11:32:09.617Z</time>
      </trkpt>
      <trkpt lat="46.70654" lon="-1.95125">
        <ele>62.580603</ele>
        <time>2022-12-18T11:32:11.620Z</time>
      </trkpt>
      <trkpt lat="46.70641" lon="-1.95128">
        <ele>62.467717</ele>
        <time>2022-12-18T11:32:14.615Z</time>
      </trkpt>
      <trkpt lat="46.70628" lon="-1.95131">
        <ele>62.351346</ele>
        <time>2022-12-18T11:32:17.610Z</time>
      </trkpt>
      <trkpt lat="46.70619" lon="-1.95132">
        <ele>62.271465</ele>
        <time>2022-12-18T11:32:19.610Z</time>
      </trkpt>
      <trkpt lat="46.7061" lon="-1.95131">
        <ele>62.192725</ele>
        <time>2022-12-18T11:32:21.617Z</time>
      </trkpt>
      <trkpt lat="46.70601" lon="-1.95131">
        <ele>62.109565</ele>
        <time>2022-12-18T11:32:23.590Z</time>
      </trkpt>
      <trkpt lat="46.70591" lon="-1.9513">
        <ele>62.027245</ele>
        <time>2022-12-18T11:32:25.605Z</time>
      </trkpt>
      <trkpt lat="46.70582" lon="-1.9513">
        <ele>61.945057</ele>
        <time>2022-12-18T11:32:27.612Z</time>
      </trkpt>
      <trkpt lat="46.70572" lon="-1.95129">
        <ele>61.862798</ele>
        <time>2022-12-18T11:32:29.614Z</time>
      </trkpt>
      <trkpt lat="46.70559" lon="-1.95128">
        <ele>61.74732</ele>
        <time>2022-12-18T11:32:32.606Z</time>
      </trkpt>
      <trkpt lat="46.70547" lon="-1.95128">
        <ele>61.618965</ele>
        <time>2022-12-18T11:32:35.619Z</time>
      </trkpt>
      <trkpt lat="46.70535" lon="-1.95127">
        <ele>61.354002</ele>
        <time>2022-12-18T11:32:38.619Z</time>
      </trkpt>
      <trkpt lat="46.70522" lon="-1.95124">
        <ele>61.076269</ele>
        <time>2022-12-18T11:32:41.600Z</time>
      </trkpt>
      <trkpt lat="46.70513" lon="-1.95123">
        <ele>60.877043</ele>
        <time>2022-12-18T11:32:43.615Z</time>
      </trkpt>
      <trkpt lat="46.70504" lon="-1.95121">
        <ele>60.669499</ele>
        <time>2022-12-18T11:32:45.609Z</time>
      </trkpt>
      <trkpt lat="46.70495" lon="-1.95119">
        <ele>60.460845</ele>
        <time>2022-12-18T11:32:47.618Z</time>
      </trkpt>
      <trkpt lat="46.70481" lon="-1.95116">
        <ele>60.163257</ele>
        <time>2022-12-18T11:32:50.592Z</time>
      </trkpt>
      <trkpt lat="46.70468" lon="-1.95115">
        <ele>59.867206</ele>
        <time>2022-12-18T11:32:53.616Z</time>
      </trkpt>
      <trkpt lat="46.70459" lon="-1.95113">
        <ele>59.665662</ele>
        <time>2022-12-18T11:32:55.618Z</time>
      </trkpt>
      <trkpt lat="46.70449" lon="-1.95111">
        <ele>59.459376</ele>
        <time>2022-12-18T11:32:57.607Z</time>
      </trkpt>
      <trkpt lat="46.7044" lon="-1.9511">
        <ele>59.256034</ele>
        <time>2022-12-18T11:32:59.622Z</time>
      </trkpt>
      <trkpt lat="46.70431" lon="-1.95109">
        <ele>59.042096</ele>
        <time>2022-12-18T11:33:01.592Z</time>
      </trkpt>
      <trkpt lat="46.70421" lon="-1.95108">
        <ele>58.823261</ele>
        <time>2022-12-18T11:33:03.620Z</time>
      </trkpt>
      <trkpt lat="46.7041" lon="-1.95106">
        <ele>58.595239</ele>
        <time>2022-12-18T11:33:05.617Z</time>
      </trkpt>
      <trkpt lat="46.70401" lon="-1.95105">
        <ele>58.380025</ele>
        <time>2022-12-18T11:33:07.608Z</time>
      </trkpt>
      <trkpt lat="46.70392" lon="-1.95103">
        <ele>58.177301</ele>
        <time>2022-12-18T11:33:09.619Z</time>
      </trkpt>
      <trkpt lat="46.70378" lon="-1.95101">
        <ele>57.885643</ele>
        <time>2022-12-18T11:33:12.606Z</time>
      </trkpt>
      <trkpt lat="46.70366" lon="-1.95099">
        <ele>57.598494</ele>
        <time>2022-12-18T11:33:15.591Z</time>
      </trkpt>
      <trkpt lat="46.70354" lon="-1.95096">
        <ele>57.24008</ele>
        <time>2022-12-18T11:33:18.594Z</time>
      </trkpt>
      <trkpt lat="46.70341" lon="-1.95094">
        <ele>56.878615</ele>
        <time>2022-12-18T11:33:21.614Z</time>
      </trkpt>
      <trkpt lat="46.70328" lon="-1.95091">
        <ele>56.514848</ele>
        <time>2022-12-18T11:33:24.619Z</time>
      </trkpt>
      <trkpt lat="46.70316" lon="-1.95088">
        <ele>56.151962</ele>
        <time>2022-12-18T11:33:27.616Z</time>
      </trkpt>
      <trkpt lat="46.70303" lon="-1.95085">
        <ele>55.782209</ele>
        <time>2022-12-18T11:33:30.616Z</time>
      </trkpt>
      <trkpt lat="46.70289" lon="-1.95083">
        <ele>55.394222</ele>
        <time>2022-12-18T11:33:33.595Z</time>
      </trkpt>
      <trkpt lat="46.7028" lon="-1.95082">
        <ele>55.127707</ele>
        <time>2022-12-18T11:33:35.612Z</time>
      </trkpt>
      <trkpt lat="46.7027" lon="-1.95081">
        <ele>54.850856</ele>
        <time>2022-12-18T11:33:37.612Z</time>
      </trkpt>
      <trkpt lat="46.7026" lon="-1.9508">
        <ele>54.562629</ele>
        <time>2022-12-18T11:33:39.628Z</time>
      </trkpt>
      <trkpt lat="46.7025" lon="-1.95078">
        <ele>54.286032</ele>
        <time>2022-12-18T11:33:41.608Z</time>
      </trkpt>
      <trkpt lat="46.70239" lon="-1.95077">
        <ele>53.985993</ele>
        <time>2022-12-18T11:33:43.618Z</time>
      </trkpt>
      <trkpt lat="46.70229" lon="-1.95075">
        <ele>53.696632</ele>
        <time>2022-12-18T11:33:45.624Z</time>
      </trkpt>
      <trkpt lat="46.70219" lon="-1.95072">
        <ele>53.39623</ele>
        <time>2022-12-18T11:33:47.619Z</time>
      </trkpt>
      <trkpt lat="46.70207" lon="-1.95071">
        <ele>53.075811</ele>
        <time>2022-12-18T11:33:49.611Z</time>
      </trkpt>
      <trkpt lat="46.70196" lon="-1.9507">
        <ele>52.764678</ele>
        <time>2022-12-18T11:33:51.615Z</time>
      </trkpt>
      <trkpt lat="46.70187" lon="-1.95067">
        <ele>52.662369</ele>
        <time>2022-12-18T11:33:53.609Z</time>
      </trkpt>
      <trkpt lat="46.70177" lon="-1.95066">
        <ele>52.758339</ele>
        <time>2022-12-18T11:33:55.606Z</time>
      </trkpt>
      <trkpt lat="46.70167" lon="-1.95065">
        <ele>52.868103</ele>
        <time>2022-12-18T11:33:58.606Z</time>
      </trkpt>
      <trkpt lat="46.70155" lon="-1.95065">
        <ele>52.991988</ele>
        <time>2022-12-18T11:34:02.590Z</time>
      </trkpt>
      <trkpt lat="46.70145" lon="-1.95063">
        <ele>53.09585</ele>
        <time>2022-12-18T11:34:05.598Z</time>
      </trkpt>
      <trkpt lat="46.70134" lon="-1.95061">
        <ele>53.213426</ele>
        <time>2022-12-18T11:34:08.616Z</time>
      </trkpt>
      <trkpt lat="46.70123" lon="-1.95059">
        <ele>53.333704</ele>
        <time>2022-12-18T11:34:11.614Z</time>
      </trkpt>
      <trkpt lat="46.70112" lon="-1.95057">
        <ele>53.449883</ele>
        <time>2022-12-18T11:34:14.610Z</time>
      </trkpt>
      <trkpt lat="46.70101" lon="-1.95055">
        <ele>53.567274</ele>
        <time>2022-12-18T11:34:17.600Z</time>
      </trkpt>
      <trkpt lat="46.7009" lon="-1.95054">
        <ele>53.679125</ele>
        <time>2022-12-18T11:34:20.606Z</time>
      </trkpt>
      <trkpt lat="46.7008" lon="-1.95051">
        <ele>53.788387</ele>
        <time>2022-12-18T11:34:23.622Z</time>
      </trkpt>
      <trkpt lat="46.70069" lon="-1.95049">
        <ele>53.908458</ele>
        <time>2022-12-18T11:34:27.615Z</time>
      </trkpt>
      <trkpt lat="46.70058" lon="-1.95046">
        <ele>54.023592</ele>
        <time>2022-12-18T11:34:31.609Z</time>
      </trkpt>
      <trkpt lat="46.70047" lon="-1.95044">
        <ele>54.137009</ele>
        <time>2022-12-18T11:34:35.619Z</time>
      </trkpt>
      <trkpt lat="46.70036" lon="-1.95041">
        <ele>54.255007</ele>
        <time>2022-12-18T11:34:39.616Z</time>
      </trkpt>
      <trkpt lat="46.70026" lon="-1.95039">
        <ele>54.358396</ele>
        <time>2022-12-18T11:34:43.605Z</time>
      </trkpt>
      <trkpt lat="46.70017" lon="-1.95034">
        <ele>54.464807</ele>
        <time>2022-12-18T11:34:47.609Z</time>
      </trkpt>
      <trkpt lat="46.70007" lon="-1.95029">
        <ele>54.410685</ele>
        <time>2022-12-18T11:34:51.616Z</time>
      </trkpt>
      <trkpt lat="46.69998" lon="-1.95022">
        <ele>54.269728</ele>
        <time>2022-12-18T11:34:55.615Z</time>
      </trkpt>
      <trkpt lat="46.69991" lon="-1.95014">
        <ele>54.144362</ele>
        <time>2022-12-18T11:34:58.608Z</time>
      </trkpt>
      <trkpt lat="46.69982" lon="-1.95006">
        <ele>54.000072</ele>
        <time>2022-12-18T11:35:01.596Z</time>
      </trkpt>
      <trkpt lat="46.69973" lon="-1.94996">
        <ele>53.850251</ele>
        <time>2022-12-18T11:35:04.613Z</time>
      </trkpt>
      <trkpt lat="46.69964" lon="-1.94987">
        <ele>53.696533</ele>
        <time>2022-12-18T11:35:07.606Z</time>
      </trkpt>
      <trkpt lat="46.69955" lon="-1.94977">
        <ele>53.538913</ele>
        <time>2022-12-18T11:35:10.617Z</time>
      </trkpt>
      <trkpt lat="46.69946" lon="-1.94967">
        <ele>53.382864</ele>
        <time>2022-12-18T11:35:13.618Z</time>
      </trkpt>
      <trkpt lat="46.69938" lon="-1.94955">
        <ele>53.222727</ele>
        <time>2022-12-18T11:35:16.616Z</time>
      </trkpt>
      <trkpt lat="46.69928" lon="-1.94943">
        <ele>53.049644</ele>
        <time>2022-12-18T11:35:19.618Z</time>
      </trkpt>
      <trkpt lat="46.69919" lon="-1.94931">
        <ele>52.881527</ele>
        <time>2022-12-18T11:35:22.616Z</time>
      </trkpt>
      <trkpt lat="46.69909" lon="-1.94918">
        <ele>52.69913</ele>
        <time>2022-12-18T11:35:25.591Z</time>
      </trkpt>
      <trkpt lat="46.69903" lon="-1.94908">
        <ele>52.566346</ele>
        <time>2022-12-18T11:35:27.608Z</time>
      </trkpt>
      <trkpt lat="46.69895" lon="-1.94898">
        <ele>52.433508</ele>
        <time>2022-12-18T11:35:29.621Z</time>
      </trkpt>
      <trkpt lat="46.69889" lon="-1.94887">
        <ele>52.293</ele>
        <time>2022-12-18T11:35:31.616Z</time>
      </trkpt>
      <trkpt lat="46.69882" lon="-1.94876">
        <ele>52.148542</ele>
        <time>2022-12-18T11:35:33.620Z</time>
      </trkpt>
      <trkpt lat="46.69875" lon="-1.94864">
        <ele>52.038076</ele>
        <time>2022-12-18T11:35:35.620Z</time>
      </trkpt>
      <trkpt lat="46.69869" lon="-1.94853">
        <ele>52.139626</ele>
        <time>2022-12-18T11:35:37.620Z</time>
      </trkpt>
      <trkpt lat="46.69864" lon="-1.94842">
        <ele>52.23387</ele>
        <time>2022-12-18T11:35:39.618Z</time>
      </trkpt>
      <trkpt lat="46.69857" lon="-1.94827">
        <ele>52.360492</ele>
        <time>2022-12-18T11:35:42.611Z</time>
      </trkpt>
      <trkpt lat="46.6985" lon="-1.94812">
        <ele>52.480179</ele>
        <time>2022-12-18T11:35:45.617Z</time>
      </trkpt>
      <trkpt lat="46.69844" lon="-1.94798">
        <ele>52.597173</ele>
        <time>2022-12-18T11:35:48.613Z</time>
      </trkpt>
      <trkpt lat="46.69839" lon="-1.94784">
        <ele>52.709895</ele>
        <time>2022-12-18T11:35:51.619Z</time>
      </trkpt>
      <trkpt lat="46.69835" lon="-1.94771">
        <ele>52.813183</ele>
        <time>2022-12-18T11:35:54.613Z</time>
      </trkpt>
      <trkpt lat="46.6983" lon="-1.94758">
        <ele>52.917063</ele>
        <time>2022-12-18T11:35:58.617Z</time>
      </trkpt>
      <trkpt lat="46.69826" lon="-1.94745">
        <ele>53.010421</ele>
        <time>2022-12-18T11:36:05.617Z</time>
      </trkpt>
      <trkpt lat="46.69823" lon="-1.94733">
        <ele>53.108448</ele>
        <time>2022-12-18T11:36:11.589Z</time>
      </trkpt>
      <trkpt lat="46.69818" lon="-1.94719">
        <ele>53.214662</ele>
        <time>2022-12-18T11:36:15.589Z</time>
      </trkpt>
      <trkpt lat="46.69813" lon="-1.94703">
        <ele>53.33888</ele>
        <time>2022-12-18T11:36:19.611Z</time>
      </trkpt>
      <trkpt lat="46.6981" lon="-1.94688">
        <ele>53.445986</ele>
        <time>2022-12-18T11:36:22.612Z</time>
      </trkpt>
      <trkpt lat="46.69806" lon="-1.94673">
        <ele>53.558723</ele>
        <time>2022-12-18T11:36:25.611Z</time>
      </trkpt>
      <trkpt lat="46.69802" lon="-1.94658">
        <ele>53.674782</ele>
        <time>2022-12-18T11:36:28.605Z</time>
      </trkpt>
      <trkpt lat="46.69799" lon="-1.94642">
        <ele>53.792883</ele>
        <time>2022-12-18T11:36:31.595Z</time>
      </trkpt>
      <trkpt lat="46.69796" lon="-1.94625">
        <ele>53.93628</ele>
        <time>2022-12-18T11:36:34.609Z</time>
      </trkpt>
      <trkpt lat="46.69794" lon="-1.94612">
        <ele>54.091188</ele>
        <time>2022-12-18T11:36:37.589Z</time>
      </trkpt>
      <trkpt lat="46.6979" lon="-1.94597">
        <ele>54.261236</ele>
        <time>2022-12-18T11:36:40.593Z</time>
      </trkpt>
      <trkpt lat="46.69787" lon="-1.94581">
        <ele>54.442725</ele>
        <time>2022-12-18T11:36:43.592Z</time>
      </trkpt>
      <trkpt lat="46.69783" lon="-1.94565">
        <ele>54.623169</ele>
        <time>2022-12-18T11:36:46.609Z</time>
      </trkpt>
      <trkpt lat="46.69779" lon="-1.94549">
        <ele>54.805842</ele>
        <time>2022-12-18T11:36:49.610Z</time>
      </trkpt>
      <trkpt lat="46.69775" lon="-1.94534">
        <ele>54.987904</ele>
        <time>2022-12-18T11:36:52.594Z</time>
      </trkpt>
      <trkpt lat="46.69769" lon="-1.94519">
        <ele>55.171552</ele>
        <time>2022-12-18T11:36:55.608Z</time>
      </trkpt>
      <trkpt lat="46.69764" lon="-1.94502">
        <ele>55.367331</ele>
        <time>2022-12-18T11:36:58.603Z</time>
      </trkpt>
      <trkpt lat="46.69759" lon="-1.94486">
        <ele>55.566436</ele>
        <time>2022-12-18T11:37:01.612Z</time>
      </trkpt>
      <trkpt lat="46.69753" lon="-1.94472">
        <ele>55.743271</ele>
        <time>2022-12-18T11:37:04.592Z</time>
      </trkpt>
      <trkpt lat="46.69748" lon="-1.94458">
        <ele>55.910772</ele>
        <time>2022-12-18T11:37:07.603Z</time>
      </trkpt>
      <trkpt lat="46.69744" lon="-1.94444">
        <ele>56.079603</ele>
        <time>2022-12-18T11:37:10.607Z</time>
      </trkpt>
      <trkpt lat="46.69739" lon="-1.94429">
        <ele>56.252124</ele>
        <time>2022-12-18T11:37:13.606Z</time>
      </trkpt>
      <trkpt lat="46.69734" lon="-1.94414">
        <ele>56.432154</ele>
        <time>2022-12-18T11:37:16.607Z</time>
      </trkpt>
      <trkpt lat="46.69729" lon="-1.94399">
        <ele>56.613857</ele>
        <time>2022-12-18T11:37:19.611Z</time>
      </trkpt>
      <trkpt lat="46.69725" lon="-1.94385">
        <ele>56.712636</ele>
        <time>2022-12-18T11:37:22.603Z</time>
      </trkpt>
      <trkpt lat="46.6972" lon="-1.94374">
        <ele>56.721196</ele>
        <time>2022-12-18T11:37:25.603Z</time>
      </trkpt>
      <trkpt lat="46.69716" lon="-1.94361">
        <ele>56.730041</ele>
        <time>2022-12-18T11:37:28.618Z</time>
      </trkpt>
      <trkpt lat="46.69711" lon="-1.94348">
        <ele>56.739591</ele>
        <time>2022-12-18T11:37:31.588Z</time>
      </trkpt>
      <trkpt lat="46.69707" lon="-1.94333">
        <ele>56.749812</ele>
        <time>2022-12-18T11:37:34.609Z</time>
      </trkpt>
      <trkpt lat="46.69701" lon="-1.94318">
        <ele>56.760427</ele>
        <time>2022-12-18T11:37:37.615Z</time>
      </trkpt>
      <trkpt lat="46.69696" lon="-1.94303">
        <ele>56.771202</ele>
        <time>2022-12-18T11:37:40.599Z</time>
      </trkpt>
      <trkpt lat="46.69692" lon="-1.94287">
        <ele>56.781875</ele>
        <time>2022-12-18T11:37:43.597Z</time>
      </trkpt>
      <trkpt lat="46.69688" lon="-1.94272">
        <ele>56.791551</ele>
        <time>2022-12-18T11:37:46.598Z</time>
      </trkpt>
      <trkpt lat="46.69685" lon="-1.94257">
        <ele>56.801616</ele>
        <time>2022-12-18T11:37:49.614Z</time>
      </trkpt>
      <trkpt lat="46.69681" lon="-1.94242">
        <ele>56.811977</ele>
        <time>2022-12-18T11:37:52.612Z</time>
      </trkpt>
      <trkpt lat="46.69677" lon="-1.94226">
        <ele>56.822548</ele>
        <time>2022-12-18T11:37:55.615Z</time>
      </trkpt>
      <trkpt lat="46.69674" lon="-1.9421">
        <ele>56.833208</ele>
        <time>2022-12-18T11:37:58.602Z</time>
      </trkpt>
      <trkpt lat="46.6967" lon="-1.94194">
        <ele>56.843779</ele>
        <time>2022-12-18T11:38:01.605Z</time>
      </trkpt>
      <trkpt lat="46.69666" lon="-1.94179">
        <ele>56.853781</ele>
        <time>2022-12-18T11:38:04.605Z</time>
      </trkpt>
      <trkpt lat="46.69663" lon="-1.94165">
        <ele>56.86343</ele>
        <time>2022-12-18T11:38:07.609Z</time>
      </trkpt>
      <trkpt lat="46.6966" lon="-1.94149">
        <ele>56.873676</ele>
        <time>2022-12-18T11:38:10.602Z</time>
      </trkpt>
      <trkpt lat="46.69656" lon="-1.94134">
        <ele>56.706362</ele>
        <time>2022-12-18T11:38:13.618Z</time>
      </trkpt>
      <trkpt lat="46.69652" lon="-1.94119">
        <ele>56.525917</ele>
        <time>2022-12-18T11:38:17.620Z</time>
      </trkpt>
      <trkpt lat="46.69646" lon="-1.94109">
        <ele>56.379962</ele>
        <time>2022-12-18T11:38:21.601Z</time>
      </trkpt>
      <trkpt lat="46.69634" lon="-1.94111">
        <ele>56.191096</ele>
        <time>2022-12-18T11:38:25.600Z</time>
      </trkpt>
      <trkpt lat="46.69624" lon="-1.94115">
        <ele>56.02857</ele>
        <time>2022-12-18T11:38:28.604Z</time>
      </trkpt>
      <trkpt lat="46.69614" lon="-1.94114">
        <ele>55.862305</ele>
        <time>2022-12-18T11:38:31.594Z</time>
      </trkpt>
      <trkpt lat="46.69606" lon="-1.94105">
        <ele>55.702125</ele>
        <time>2022-12-18T11:38:34.589Z</time>
      </trkpt>
      <trkpt lat="46.696" lon="-1.94092">
        <ele>55.529763</ele>
        <time>2022-12-18T11:38:37.598Z</time>
      </trkpt>
      <trkpt lat="46.69594" lon="-1.94077">
        <ele>55.348416</ele>
        <time>2022-12-18T11:38:40.619Z</time>
      </trkpt>
      <trkpt lat="46.69587" lon="-1.94063">
        <ele>55.16239</ele>
        <time>2022-12-18T11:38:43.614Z</time>
      </trkpt>
      <trkpt lat="46.69581" lon="-1.94049">
        <ele>54.976664</ele>
        <time>2022-12-18T11:38:46.597Z</time>
      </trkpt>
      <trkpt lat="46.69575" lon="-1.94034">
        <ele>54.793408</ele>
        <time>2022-12-18T11:38:49.614Z</time>
      </trkpt>
      <trkpt lat="46.69568" lon="-1.9402">
        <ele>54.60671</ele>
        <time>2022-12-18T11:38:52.605Z</time>
      </trkpt>
      <trkpt lat="46.69562" lon="-1.94006">
        <ele>54.420093</ele>
        <time>2022-12-18T11:38:55.607Z</time>
      </trkpt>
      <trkpt lat="46.69555" lon="-1.93991">
        <ele>54.229897</ele>
        <time>2022-12-18T11:38:58.612Z</time>
      </trkpt>
      <trkpt lat="46.69548" lon="-1.93976">
        <ele>54.034413</ele>
        <time>2022-12-18T11:39:01.608Z</time>
      </trkpt>
      <trkpt lat="46.69541" lon="-1.9396">
        <ele>54.030814</ele>
        <time>2022-12-18T11:39:04.611Z</time>
      </trkpt>
      <trkpt lat="46.69535" lon="-1.93943">
        <ele>54.027133</ele>
        <time>2022-12-18T11:39:07.618Z</time>
      </trkpt>
      <trkpt lat="46.69531" lon="-1.93931">
        <ele>54.024582</ele>
        <time>2022-12-18T11:39:09.634Z</time>
      </trkpt>
      <trkpt lat="46.69525" lon="-1.93914">
        <ele>54.020837</ele>
        <time>2022-12-18T11:39:12.608Z</time>
      </trkpt>
      <trkpt lat="46.69518" lon="-1.93899">
        <ele>54.017225</ele>
        <time>2022-12-18T11:39:15.596Z</time>
      </trkpt>
      <trkpt lat="46.6951" lon="-1.93883">
        <ele>54.013612</ele>
        <time>2022-12-18T11:39:18.610Z</time>
      </trkpt>
      <trkpt lat="46.69503" lon="-1.93868">
        <ele>54.009937</ele>
        <time>2022-12-18T11:39:21.617Z</time>
      </trkpt>
      <trkpt lat="46.69496" lon="-1.93853">
        <ele>54.006434</ele>
        <time>2022-12-18T11:39:24.596Z</time>
      </trkpt>
      <trkpt lat="46.69489" lon="-1.93839">
        <ele>54.003218</ele>
        <time>2022-12-18T11:39:27.619Z</time>
      </trkpt>
      <trkpt lat="46.69481" lon="-1.93826">
        <ele>53.999783</ele>
        <time>2022-12-18T11:39:30.618Z</time>
      </trkpt>
      <trkpt lat="46.69473" lon="-1.9381">
        <ele>53.996122</ele>
        <time>2022-12-18T11:39:33.616Z</time>
      </trkpt>
      <trkpt lat="46.69466" lon="-1.93795">
        <ele>53.992477</ele>
        <time>2022-12-18T11:39:36.590Z</time>
      </trkpt>
      <trkpt lat="46.69459" lon="-1.93781">
        <ele>53.989022</ele>
        <time>2022-12-18T11:39:39.615Z</time>
      </trkpt>
      <trkpt lat="46.69451" lon="-1.93766">
        <ele>53.985566</ele>
        <time>2022-12-18T11:39:42.611Z</time>
      </trkpt>
      <trkpt lat="46.69445" lon="-1.9375">
        <ele>53.858853</ele>
        <time>2022-12-18T11:39:45.593Z</time>
      </trkpt>
      <trkpt lat="46.6944" lon="-1.93734">
        <ele>53.63268</ele>
        <time>2022-12-18T11:39:48.616Z</time>
      </trkpt>
      <trkpt lat="46.69435" lon="-1.93719">
        <ele>53.41875</ele>
        <time>2022-12-18T11:39:51.597Z</time>
      </trkpt>
      <trkpt lat="46.69432" lon="-1.93704">
        <ele>53.212264</ele>
        <time>2022-12-18T11:39:54.616Z</time>
      </trkpt>
      <trkpt lat="46.69428" lon="-1.9369">
        <ele>53.028276</ele>
        <time>2022-12-18T11:39:57.596Z</time>
      </trkpt>
      <trkpt lat="46.69425" lon="-1.93677">
        <ele>52.850979</ele>
        <time>2022-12-18T11:40:00.611Z</time>
      </trkpt>
      <trkpt lat="46.69421" lon="-1.93664">
        <ele>52.663062</ele>
        <time>2022-12-18T11:40:03.621Z</time>
      </trkpt>
      <trkpt lat="46.69419" lon="-1.93649">
        <ele>52.469279</ele>
        <time>2022-12-18T11:40:06.613Z</time>
      </trkpt>
      <trkpt lat="46.69419" lon="-1.93634">
        <ele>52.26796</ele>
        <time>2022-12-18T11:40:09.600Z</time>
      </trkpt>
      <trkpt lat="46.69422" lon="-1.93618">
        <ele>52.06327</ele>
        <time>2022-12-18T11:40:12.591Z</time>
      </trkpt>
      <trkpt lat="46.69428" lon="-1.93605">
        <ele>51.860312</ele>
        <time>2022-12-18T11:40:15.595Z</time>
      </trkpt>
      <trkpt lat="46.69438" lon="-1.93595">
        <ele>51.639475</ele>
        <time>2022-12-18T11:40:18.601Z</time>
      </trkpt>
      <trkpt lat="46.6945" lon="-1.93589">
        <ele>51.401338</ele>
        <time>2022-12-18T11:40:21.603Z</time>
      </trkpt>
      <trkpt lat="46.69463" lon="-1.93585">
        <ele>51.149784</ele>
        <time>2022-12-18T11:40:24.595Z</time>
      </trkpt>
      <trkpt lat="46.69476" lon="-1.93581">
        <ele>50.9019</ele>
        <time>2022-12-18T11:40:27.616Z</time>
      </trkpt>
      <trkpt lat="46.69489" lon="-1.93577">
        <ele>50.650006</ele>
        <time>2022-12-18T11:40:30.621Z</time>
      </trkpt>
      <trkpt lat="46.69501" lon="-1.93575">
        <ele>50.685495</ele>
        <time>2022-12-18T11:40:33.607Z</time>
      </trkpt>
      <trkpt lat="46.69513" lon="-1.93574">
        <ele>50.786772</ele>
        <time>2022-12-18T11:40:36.598Z</time>
      </trkpt>
      <trkpt lat="46.69525" lon="-1.93575">
        <ele>50.888309</ele>
        <time>2022-12-18T11:40:39.592Z</time>
      </trkpt>
      <trkpt lat="46.69539" lon="-1.93579">
        <ele>51.003211</ele>
        <time>2022-12-18T11:40:42.597Z</time>
      </trkpt>
      <trkpt lat="46.69548" lon="-1.9358">
        <ele>51.077196</ele>
        <time>2022-12-18T11:40:44.614Z</time>
      </trkpt>
      <trkpt lat="46.6956" lon="-1.93581">
        <ele>51.175219</ele>
        <time>2022-12-18T11:40:47.598Z</time>
      </trkpt>
      <trkpt lat="46.6957" lon="-1.9358">
        <ele>51.254536</ele>
        <time>2022-12-18T11:40:50.615Z</time>
      </trkpt>
      <trkpt lat="46.69579" lon="-1.93578">
        <ele>51.329027</ele>
        <time>2022-12-18T11:40:53.598Z</time>
      </trkpt>
      <trkpt lat="46.69589" lon="-1.93574">
        <ele>51.410579</ele>
        <time>2022-12-18T11:40:56.605Z</time>
      </trkpt>
      <trkpt lat="46.69596" lon="-1.93565">
        <ele>51.492658</ele>
        <time>2022-12-18T11:40:59.598Z</time>
      </trkpt>
      <trkpt lat="46.69601" lon="-1.93551">
        <ele>51.579639</ele>
        <time>2022-12-18T11:41:02.601Z</time>
      </trkpt>
      <trkpt lat="46.69603" lon="-1.93536">
        <ele>51.664861</ele>
        <time>2022-12-18T11:41:05.605Z</time>
      </trkpt>
      <trkpt lat="46.69605" lon="-1.93521">
        <ele>51.75063</ele>
        <time>2022-12-18T11:41:08.604Z</time>
      </trkpt>
      <trkpt lat="46.69607" lon="-1.93507">
        <ele>51.827129</ele>
        <time>2022-12-18T11:41:11.608Z</time>
      </trkpt>
      <trkpt lat="46.69609" lon="-1.93495">
        <ele>51.900371</ele>
        <time>2022-12-18T11:41:14.594Z</time>
      </trkpt>
      <trkpt lat="46.69612" lon="-1.93482">
        <ele>51.973944</ele>
        <time>2022-12-18T11:41:17.612Z</time>
      </trkpt>
      <trkpt lat="46.69615" lon="-1.93467">
        <ele>52.061344</ele>
        <time>2022-12-18T11:41:21.616Z</time>
      </trkpt>
      <trkpt lat="46.69617" lon="-1.93454">
        <ele>51.987627</ele>
        <time>2022-12-18T11:41:25.603Z</time>
      </trkpt>
      <trkpt lat="46.69619" lon="-1.93439">
        <ele>51.88165</ele>
        <time>2022-12-18T11:41:30.606Z</time>
      </trkpt>
      <trkpt lat="46.69614" lon="-1.93425">
        <ele>51.763703</ele>
        <time>2022-12-18T11:41:36.596Z</time>
      </trkpt>
      <trkpt lat="46.69605" lon="-1.93416">
        <ele>51.645709</ele>
        <time>2022-12-18T11:41:40.594Z</time>
      </trkpt>
      <trkpt lat="46.69595" lon="-1.93411">
        <ele>51.52921</ele>
        <time>2022-12-18T11:41:43.600Z</time>
      </trkpt>
      <trkpt lat="46.69583" lon="-1.93407">
        <ele>51.401486</ele>
        <time>2022-12-18T11:41:46.591Z</time>
      </trkpt>
      <trkpt lat="46.69572" lon="-1.93402">
        <ele>51.278598</ele>
        <time>2022-12-18T11:41:49.598Z</time>
      </trkpt>
      <trkpt lat="46.69561" lon="-1.93398">
        <ele>51.154475</ele>
        <time>2022-12-18T11:41:52.604Z</time>
      </trkpt>
      <trkpt lat="46.69549" lon="-1.93392">
        <ele>51.023728</ele>
        <time>2022-12-18T11:41:55.617Z</time>
      </trkpt>
      <trkpt lat="46.69538" lon="-1.93387">
        <ele>50.892762</ele>
        <time>2022-12-18T11:41:58.606Z</time>
      </trkpt>
      <trkpt lat="46.69526" lon="-1.93382">
        <ele>50.754581</ele>
        <time>2022-12-18T11:42:01.607Z</time>
      </trkpt>
      <trkpt lat="46.69514" lon="-1.93377">
        <ele>50.623017</ele>
        <time>2022-12-18T11:42:04.612Z</time>
      </trkpt>
      <trkpt lat="46.69502" lon="-1.93372">
        <ele>50.493516</ele>
        <time>2022-12-18T11:42:07.616Z</time>
      </trkpt>
      <trkpt lat="46.6949" lon="-1.93367">
        <ele>50.356144</ele>
        <time>2022-12-18T11:42:10.604Z</time>
      </trkpt>
      <trkpt lat="46.69478" lon="-1.93362">
        <ele>50.221044</ele>
        <time>2022-12-18T11:42:13.613Z</time>
      </trkpt>
      <trkpt lat="46.69467" lon="-1.93357">
        <ele>50.144691</ele>
        <time>2022-12-18T11:42:16.606Z</time>
      </trkpt>
      <trkpt lat="46.69455" lon="-1.93352">
        <ele>50.173891</ele>
        <time>2022-12-18T11:42:19.609Z</time>
      </trkpt>
      <trkpt lat="46.69444" lon="-1.93347">
        <ele>50.201689</ele>
        <time>2022-12-18T11:42:22.607Z</time>
      </trkpt>
      <trkpt lat="46.69435" lon="-1.93344">
        <ele>50.22494</ele>
        <time>2022-12-18T11:42:25.600Z</time>
      </trkpt>
      <trkpt lat="46.69425" lon="-1.9334">
        <ele>50.250171</ele>
        <time>2022-12-18T11:42:28.592Z</time>
      </trkpt>
      <trkpt lat="46.69414" lon="-1.93337">
        <ele>50.276238</ele>
        <time>2022-12-18T11:42:31.614Z</time>
      </trkpt>
      <trkpt lat="46.69404" lon="-1.93335">
        <ele>50.300716</ele>
        <time>2022-12-18T11:42:34.620Z</time>
      </trkpt>
      <trkpt lat="46.69394" lon="-1.93336">
        <ele>50.325535</ele>
        <time>2022-12-18T11:42:37.600Z</time>
      </trkpt>
      <trkpt lat="46.69384" lon="-1.93334">
        <ele>50.350422</ele>
        <time>2022-12-18T11:42:40.605Z</time>
      </trkpt>
      <trkpt lat="46.69373" lon="-1.93331">
        <ele>50.377782</ele>
        <time>2022-12-18T11:42:43.594Z</time>
      </trkpt>
      <trkpt lat="46.69361" lon="-1.93328">
        <ele>50.406419</ele>
        <time>2022-12-18T11:42:46.591Z</time>
      </trkpt>
      <trkpt lat="46.69351" lon="-1.93329">
        <ele>50.43149</ele>
        <time>2022-12-18T11:42:49.601Z</time>
      </trkpt>
      <trkpt lat="46.69342" lon="-1.93328">
        <ele>50.45487</ele>
        <time>2022-12-18T11:42:52.611Z</time>
      </trkpt>
      <trkpt lat="46.69331" lon="-1.93326">
        <ele>50.481059</ele>
        <time>2022-12-18T11:42:55.595Z</time>
      </trkpt>
      <trkpt lat="46.6932" lon="-1.93325">
        <ele>50.506472</ele>
        <time>2022-12-18T11:42:58.609Z</time>
      </trkpt>
      <trkpt lat="46.6931" lon="-1.93322">
        <ele>50.533054</ele>
        <time>2022-12-18T11:43:01.617Z</time>
      </trkpt>
      <trkpt lat="46.69299" lon="-1.93321">
        <ele>50.559969</ele>
        <time>2022-12-18T11:43:04.607Z</time>
      </trkpt>
      <trkpt lat="46.69289" lon="-1.93318">
        <ele>50.555048</ele>
        <time>2022-12-18T11:43:07.606Z</time>
      </trkpt>
      <trkpt lat="46.69277" lon="-1.93317">
        <ele>50.512912</ele>
        <time>2022-12-18T11:43:11.590Z</time>
      </trkpt>
      <trkpt lat="46.69267" lon="-1.93315">
        <ele>50.473717</ele>
        <time>2022-12-18T11:43:14.615Z</time>
      </trkpt>
      <trkpt lat="46.69256" lon="-1.93313">
        <ele>50.433839</ele>
        <time>2022-12-18T11:43:17.616Z</time>
      </trkpt>
      <trkpt lat="46.69245" lon="-1.93311">
        <ele>50.392474</ele>
        <time>2022-12-18T11:43:20.607Z</time>
      </trkpt>
      <trkpt lat="46.69234" lon="-1.93308">
        <ele>50.350211</ele>
        <time>2022-12-18T11:43:23.589Z</time>
      </trkpt>
      <trkpt lat="46.69223" lon="-1.93306">
        <ele>50.308355</ele>
        <time>2022-12-18T11:43:26.616Z</time>
      </trkpt>
      <trkpt lat="46.69213" lon="-1.93304">
        <ele>50.268876</ele>
        <time>2022-12-18T11:43:29.617Z</time>
      </trkpt>
      <trkpt lat="46.69202" lon="-1.93303">
        <ele>50.227083</ele>
        <time>2022-12-18T11:43:33.614Z</time>
      </trkpt>
      <trkpt lat="46.69191" lon="-1.93302">
        <ele>50.187443</ele>
        <time>2022-12-18T11:43:37.610Z</time>
      </trkpt>
      <trkpt lat="46.69182" lon="-1.93308">
        <ele>50.152563</ele>
        <time>2022-12-18T11:43:40.600Z</time>
      </trkpt>
      <trkpt lat="46.69173" lon="-1.93311">
        <ele>50.117134</ele>
        <time>2022-12-18T11:43:43.606Z</time>
      </trkpt>
      <trkpt lat="46.69164" lon="-1.93302">
        <ele>50.075882</ele>
        <time>2022-12-18T11:43:47.598Z</time>
      </trkpt>
      <trkpt lat="46.69157" lon="-1.93289">
        <ele>50.031718</ele>
        <time>2022-12-18T11:43:51.617Z</time>
      </trkpt>
      <trkpt lat="46.69148" lon="-1.9328">
        <ele>49.990453</ele>
        <time>2022-12-18T11:43:55.596Z</time>
      </trkpt>
      <trkpt lat="46.69145" lon="-1.93275">
        <ele>49.974721</ele>
        <time>2022-12-18T11:44:14.879Z</time>
      </trkpt>
      <trkpt lat="46.69138" lon="-1.93262">
        <ele>49.9326</ele>
        <time>2022-12-18T11:49:36.605Z</time>
      </trkpt>
      <trkpt lat="46.6913" lon="-1.9325">
        <ele>49.88553</ele>
        <time>2022-12-18T11:49:40.612Z</time>
      </trkpt>
      <trkpt lat="46.69123" lon="-1.93238">
        <ele>49.829894</ele>
        <time>2022-12-18T11:49:43.600Z</time>
      </trkpt>
      <trkpt lat="46.69116" lon="-1.93225">
        <ele>49.77128</ele>
        <time>2022-12-18T11:49:46.596Z</time>
      </trkpt>
      <trkpt lat="46.69109" lon="-1.93212">
        <ele>49.712299</ele>
        <time>2022-12-18T11:49:49.609Z</time>
      </trkpt>
      <trkpt lat="46.69101" lon="-1.93199">
        <ele>49.651853</ele>
        <time>2022-12-18T11:49:52.609Z</time>
      </trkpt>
      <trkpt lat="46.69092" lon="-1.93186">
        <ele>49.589328</ele>
        <time>2022-12-18T11:49:55.622Z</time>
      </trkpt>
      <trkpt lat="46.69082" lon="-1.93176">
        <ele>49.527079</ele>
        <time>2022-12-18T11:49:58.602Z</time>
      </trkpt>
      <trkpt lat="46.69072" lon="-1.93169">
        <ele>49.467196</ele>
        <time>2022-12-18T11:50:01.600Z</time>
      </trkpt>
      <trkpt lat="46.69062" lon="-1.93165">
        <ele>49.416773</ele>
        <time>2022-12-18T11:50:04.605Z</time>
      </trkpt>
      <trkpt lat="46.69052" lon="-1.93164">
        <ele>49.363429</ele>
        <time>2022-12-18T11:50:07.617Z</time>
      </trkpt>
      <trkpt lat="46.69041" lon="-1.93163">
        <ele>49.309085</ele>
        <time>2022-12-18T11:50:10.608Z</time>
      </trkpt>
      <trkpt lat="46.6903" lon="-1.93163">
        <ele>49.253804</ele>
        <time>2022-12-18T11:50:13.607Z</time>
      </trkpt>
      <trkpt lat="46.69019" lon="-1.93164">
        <ele>49.195431</ele>
        <time>2022-12-18T11:50:16.611Z</time>
      </trkpt>
      <trkpt lat="46.69007" lon="-1.93163">
        <ele>49.135499</ele>
        <time>2022-12-18T11:50:19.611Z</time>
      </trkpt>
      <trkpt lat="46.68996" lon="-1.93163">
        <ele>49.078158</ele>
        <time>2022-12-18T11:50:22.598Z</time>
      </trkpt>
      <trkpt lat="46.68984" lon="-1.93163">
        <ele>49.018787</ele>
        <time>2022-12-18T11:50:25.628Z</time>
      </trkpt>
      <trkpt lat="46.68973" lon="-1.93164">
        <ele>49.000234</ele>
        <time>2022-12-18T11:50:28.609Z</time>
      </trkpt>
      <trkpt lat="46.68962" lon="-1.93166">
        <ele>49.059729</ele>
        <time>2022-12-18T11:50:31.603Z</time>
      </trkpt>
      <trkpt lat="46.68951" lon="-1.93168">
        <ele>49.117426</ele>
        <time>2022-12-18T11:50:34.607Z</time>
      </trkpt>
      <trkpt lat="46.6894" lon="-1.93171">
        <ele>49.172753</ele>
        <time>2022-12-18T11:50:37.605Z</time>
      </trkpt>
      <trkpt lat="46.68929" lon="-1.93174">
        <ele>49.232527</ele>
        <time>2022-12-18T11:50:40.620Z</time>
      </trkpt>
      <trkpt lat="46.68919" lon="-1.93177">
        <ele>49.289003</ele>
        <time>2022-12-18T11:50:43.622Z</time>
      </trkpt>
      <trkpt lat="46.68909" lon="-1.93183">
        <ele>49.345661</ele>
        <time>2022-12-18T11:50:46.617Z</time>
      </trkpt>
      <trkpt lat="46.68898" lon="-1.93189">
        <ele>49.405474</ele>
        <time>2022-12-18T11:50:49.603Z</time>
      </trkpt>
      <trkpt lat="46.68887" lon="-1.93197">
        <ele>49.468827</ele>
        <time>2022-12-18T11:50:52.609Z</time>
      </trkpt>
      <trkpt lat="46.68875" lon="-1.93204">
        <ele>49.536323</ele>
        <time>2022-12-18T11:50:55.614Z</time>
      </trkpt>
      <trkpt lat="46.68864" lon="-1.93211">
        <ele>49.601528</ele>
        <time>2022-12-18T11:50:58.607Z</time>
      </trkpt>
      <trkpt lat="46.68853" lon="-1.93218">
        <ele>49.664176</ele>
        <time>2022-12-18T11:51:01.622Z</time>
      </trkpt>
      <trkpt lat="46.68842" lon="-1.93225">
        <ele>49.72586</ele>
        <time>2022-12-18T11:51:04.604Z</time>
      </trkpt>
      <trkpt lat="46.68831" lon="-1.93232">
        <ele>49.787063</ele>
        <time>2022-12-18T11:51:07.598Z</time>
      </trkpt>
      <trkpt lat="46.68821" lon="-1.93238">
        <ele>49.848605</ele>
        <time>2022-12-18T11:51:10.593Z</time>
      </trkpt>
      <trkpt lat="46.68809" lon="-1.93242">
        <ele>49.908518</ele>
        <time>2022-12-18T11:51:13.597Z</time>
      </trkpt>
      <trkpt lat="46.68798" lon="-1.93243">
        <ele>49.891767</ele>
        <time>2022-12-18T11:51:16.610Z</time>
      </trkpt>
      <trkpt lat="46.68787" lon="-1.93244">
        <ele>49.850197</ele>
        <time>2022-12-18T11:51:19.600Z</time>
      </trkpt>
      <trkpt lat="46.68776" lon="-1.93243">
        <ele>49.812092</ele>
        <time>2022-12-18T11:51:22.596Z</time>
      </trkpt>
      <trkpt lat="46.68767" lon="-1.9324">
        <ele>49.775866</ele>
        <time>2022-12-18T11:51:25.604Z</time>
      </trkpt>
      <trkpt lat="46.68756" lon="-1.93237">
        <ele>49.736702</ele>
        <time>2022-12-18T11:51:28.606Z</time>
      </trkpt>
      <trkpt lat="46.68744" lon="-1.93234">
        <ele>49.692729</ele>
        <time>2022-12-18T11:51:31.601Z</time>
      </trkpt>
      <trkpt lat="46.68733" lon="-1.93231">
        <ele>49.650275</ele>
        <time>2022-12-18T11:51:34.595Z</time>
      </trkpt>
      <trkpt lat="46.68722" lon="-1.93228">
        <ele>49.610098</ele>
        <time>2022-12-18T11:51:37.604Z</time>
      </trkpt>
      <trkpt lat="46.6871" lon="-1.93227">
        <ele>49.566607</ele>
        <time>2022-12-18T11:51:40.607Z</time>
      </trkpt>
      <trkpt lat="46.68698" lon="-1.93225">
        <ele>49.523115</ele>
        <time>2022-12-18T11:51:43.603Z</time>
      </trkpt>
      <trkpt lat="46.68686" lon="-1.93222">
        <ele>49.479457</ele>
        <time>2022-12-18T11:51:46.598Z</time>
      </trkpt>
      <trkpt lat="46.68675" lon="-1.93217">
        <ele>49.438062</ele>
        <time>2022-12-18T11:51:49.602Z</time>
      </trkpt>
      <trkpt lat="46.68667" lon="-1.93211">
        <ele>49.403632</ele>
        <time>2022-12-18T11:51:52.604Z</time>
      </trkpt>
      <trkpt lat="46.68657" lon="-1.93206">
        <ele>49.36677</ele>
        <time>2022-12-18T11:51:55.619Z</time>
      </trkpt>
      <trkpt lat="46.68649" lon="-1.93201">
        <ele>49.333488</ele>
        <time>2022-12-18T11:51:58.601Z</time>
      </trkpt>
      <trkpt lat="46.68639" lon="-1.93194">
        <ele>49.293301</ele>
        <time>2022-12-18T11:52:02.599Z</time>
      </trkpt>
      <trkpt lat="46.68632" lon="-1.93185">
        <ele>49.287793</ele>
        <time>2022-12-18T11:52:05.627Z</time>
      </trkpt>
      <trkpt lat="46.68623" lon="-1.93178">
        <ele>49.365931</ele>
        <time>2022-12-18T11:52:08.607Z</time>
      </trkpt>
      <trkpt lat="46.68613" lon="-1.93171">
        <ele>49.445013</ele>
        <time>2022-12-18T11:52:11.599Z</time>
      </trkpt>
      <trkpt lat="46.68604" lon="-1.93164">
        <ele>49.527313</ele>
        <time>2022-12-18T11:52:14.597Z</time>
      </trkpt>
      <trkpt lat="46.68595" lon="-1.93155">
        <ele>49.609108</ele>
        <time>2022-12-18T11:52:17.611Z</time>
      </trkpt>
      <trkpt lat="46.68586" lon="-1.93147">
        <ele>49.689779</ele>
        <time>2022-12-18T11:52:20.616Z</time>
      </trkpt>
      <trkpt lat="46.68577" lon="-1.93138">
        <ele>49.773657</ele>
        <time>2022-12-18T11:52:23.608Z</time>
      </trkpt>
      <trkpt lat="46.68567" lon="-1.9313">
        <ele>49.856002</ele>
        <time>2022-12-18T11:52:26.630Z</time>
      </trkpt>
      <trkpt lat="46.68558" lon="-1.93121">
        <ele>49.941198</ele>
        <time>2022-12-18T11:52:29.597Z</time>
      </trkpt>
      <trkpt lat="46.68549" lon="-1.93112">
        <ele>50.025077</ele>
        <time>2022-12-18T11:52:32.618Z</time>
      </trkpt>
      <trkpt lat="46.6854" lon="-1.93103">
        <ele>50.108371</ele>
        <time>2022-12-18T11:52:35.617Z</time>
      </trkpt>
      <trkpt lat="46.6853" lon="-1.93094">
        <ele>50.193218</ele>
        <time>2022-12-18T11:52:38.605Z</time>
      </trkpt>
      <trkpt lat="46.68521" lon="-1.93084">
        <ele>50.28118</ele>
        <time>2022-12-18T11:52:41.599Z</time>
      </trkpt>
      <trkpt lat="46.68511" lon="-1.93075">
        <ele>50.370062</ele>
        <time>2022-12-18T11:52:44.618Z</time>
      </trkpt>
      <trkpt lat="46.68501" lon="-1.93066">
        <ele>50.457628</ele>
        <time>2022-12-18T11:52:47.626Z</time>
      </trkpt>
      <trkpt lat="46.68492" lon="-1.93057">
        <ele>50.542135</ele>
        <time>2022-12-18T11:52:50.618Z</time>
      </trkpt>
      <trkpt lat="46.68483" lon="-1.93047">
        <ele>50.628194</ele>
        <time>2022-12-18T11:52:53.611Z</time>
      </trkpt>
      <trkpt lat="46.68473" lon="-1.93038">
        <ele>50.699985</ele>
        <time>2022-12-18T11:52:56.597Z</time>
      </trkpt>
      <trkpt lat="46.68464" lon="-1.9303">
        <ele>50.767831</ele>
        <time>2022-12-18T11:52:59.601Z</time>
      </trkpt>
      <trkpt lat="46.68456" lon="-1.9302">
        <ele>50.835301</ele>
        <time>2022-12-18T11:53:02.606Z</time>
      </trkpt>
      <trkpt lat="46.68448" lon="-1.9301">
        <ele>50.898809</ele>
        <time>2022-12-18T11:53:05.593Z</time>
      </trkpt>
      <trkpt lat="46.68441" lon="-1.93">
        <ele>50.959012</ele>
        <time>2022-12-18T11:53:08.604Z</time>
      </trkpt>
      <trkpt lat="46.68434" lon="-1.9299">
        <ele>51.017617</ele>
        <time>2022-12-18T11:53:11.602Z</time>
      </trkpt>
      <trkpt lat="46.68428" lon="-1.9298">
        <ele>51.077469</ele>
        <time>2022-12-18T11:53:14.596Z</time>
      </trkpt>
      <trkpt lat="46.68422" lon="-1.9297">
        <ele>51.135763</ele>
        <time>2022-12-18T11:53:17.599Z</time>
      </trkpt>
      <trkpt lat="46.68415" lon="-1.9296">
        <ele>51.194763</ele>
        <time>2022-12-18T11:53:20.599Z</time>
      </trkpt>
      <trkpt lat="46.68408" lon="-1.9295">
        <ele>51.254529</ele>
        <time>2022-12-18T11:53:23.604Z</time>
      </trkpt>
      <trkpt lat="46.684" lon="-1.92941">
        <ele>51.317639</ele>
        <time>2022-12-18T11:53:26.616Z</time>
      </trkpt>
      <trkpt lat="46.68392" lon="-1.92932">
        <ele>51.381807</ele>
        <time>2022-12-18T11:53:29.625Z</time>
      </trkpt>
      <trkpt lat="46.68384" lon="-1.92921">
        <ele>51.447194</ele>
        <time>2022-12-18T11:53:32.600Z</time>
      </trkpt>
      <trkpt lat="46.68377" lon="-1.92911">
        <ele>51.511546</ele>
        <time>2022-12-18T11:53:35.629Z</time>
      </trkpt>
      <trkpt lat="46.68369" lon="-1.92901">
        <ele>51.574006</ele>
        <time>2022-12-18T11:53:38.610Z</time>
      </trkpt>
      <trkpt lat="46.68361" lon="-1.9289">
        <ele>51.640124</ele>
        <time>2022-12-18T11:53:41.602Z</time>
      </trkpt>
      <trkpt lat="46.68355" lon="-1.9288">
        <ele>51.700631</ele>
        <time>2022-12-18T11:53:44.603Z</time>
      </trkpt>
      <trkpt lat="46.68347" lon="-1.9287">
        <ele>51.749892</ele>
        <time>2022-12-18T11:53:48.618Z</time>
      </trkpt>
      <trkpt lat="46.6834" lon="-1.92859">
        <ele>51.745875</ele>
        <time>2022-12-18T11:53:52.618Z</time>
      </trkpt>
      <trkpt lat="46.68331" lon="-1.92847">
        <ele>51.741452</ele>
        <time>2022-12-18T11:53:56.602Z</time>
      </trkpt>
      <trkpt lat="46.68325" lon="-1.92838">
        <ele>51.738019</ele>
        <time>2022-12-18T11:53:59.617Z</time>
      </trkpt>
      <trkpt lat="46.68318" lon="-1.92827">
        <ele>51.734396</ele>
        <time>2022-12-18T11:54:02.598Z</time>
      </trkpt>
      <trkpt lat="46.68312" lon="-1.92817">
        <ele>51.730804</ele>
        <time>2022-12-18T11:54:05.615Z</time>
      </trkpt>
      <trkpt lat="46.68306" lon="-1.92806">
        <ele>51.727167</ele>
        <time>2022-12-18T11:54:08.599Z</time>
      </trkpt>
      <trkpt lat="46.683" lon="-1.92795">
        <ele>51.723655</ele>
        <time>2022-12-18T11:54:11.608Z</time>
      </trkpt>
      <trkpt lat="46.68294" lon="-1.92785">
        <ele>51.72019</ele>
        <time>2022-12-18T11:54:14.602Z</time>
      </trkpt>
      <trkpt lat="46.68288" lon="-1.92774">
        <ele>51.716673</ele>
        <time>2022-12-18T11:54:17.619Z</time>
      </trkpt>
      <trkpt lat="46.68282" lon="-1.92764">
        <ele>51.712993</ele>
        <time>2022-12-18T11:54:20.616Z</time>
      </trkpt>
      <trkpt lat="46.68275" lon="-1.92752">
        <ele>51.709038</ele>
        <time>2022-12-18T11:54:23.624Z</time>
      </trkpt>
      <trkpt lat="46.68267" lon="-1.9274">
        <ele>51.704841</ele>
        <time>2022-12-18T11:54:26.603Z</time>
      </trkpt>
      <trkpt lat="46.68259" lon="-1.9273">
        <ele>51.700783</ele>
        <time>2022-12-18T11:54:29.616Z</time>
      </trkpt>
      <trkpt lat="46.6825" lon="-1.9272">
        <ele>51.696586</ele>
        <time>2022-12-18T11:54:32.601Z</time>
      </trkpt>
      <trkpt lat="46.68241" lon="-1.92709">
        <ele>51.692132</ele>
        <time>2022-12-18T11:54:35.608Z</time>
      </trkpt>
      <trkpt lat="46.68231" lon="-1.92699">
        <ele>51.687696</ele>
        <time>2022-12-18T11:54:38.622Z</time>
      </trkpt>
      <trkpt lat="46.68222" lon="-1.92689">
        <ele>51.683367</ele>
        <time>2022-12-18T11:54:41.627Z</time>
      </trkpt>
      <trkpt lat="46.68214" lon="-1.92678">
        <ele>51.809278</ele>
        <time>2022-12-18T11:54:44.600Z</time>
      </trkpt>
      <trkpt lat="46.68206" lon="-1.92666">
        <ele>51.951028</ele>
        <time>2022-12-18T11:54:47.620Z</time>
      </trkpt>
      <trkpt lat="46.68198" lon="-1.92654">
        <ele>52.095619</ele>
        <time>2022-12-18T11:54:50.605Z</time>
      </trkpt>
      <trkpt lat="46.68191" lon="-1.9264">
        <ele>52.247305</ele>
        <time>2022-12-18T11:54:53.601Z</time>
      </trkpt>
      <trkpt lat="46.68184" lon="-1.92626">
        <ele>52.395271</ele>
        <time>2022-12-18T11:54:56.604Z</time>
      </trkpt>
      <trkpt lat="46.68178" lon="-1.92613">
        <ele>52.522156</ele>
        <time>2022-12-18T11:54:59.623Z</time>
      </trkpt>
      <trkpt lat="46.68173" lon="-1.92601">
        <ele>52.641478</ele>
        <time>2022-12-18T11:55:11.609Z</time>
      </trkpt>
      <trkpt lat="46.68167" lon="-1.92591">
        <ele>52.764234</ele>
        <time>2022-12-18T11:55:16.609Z</time>
      </trkpt>
      <trkpt lat="46.68159" lon="-1.92581">
        <ele>52.887427</ele>
        <time>2022-12-18T11:55:20.615Z</time>
      </trkpt>
      <trkpt lat="46.68152" lon="-1.9257">
        <ele>53.021365</ele>
        <time>2022-12-18T11:55:24.651Z</time>
      </trkpt>
      <trkpt lat="46.68143" lon="-1.92559">
        <ele>53.166809</ele>
        <time>2022-12-18T11:55:28.630Z</time>
      </trkpt>
      <trkpt lat="46.68136" lon="-1.9255">
        <ele>53.287765</ele>
        <time>2022-12-18T11:55:31.618Z</time>
      </trkpt>
      <trkpt lat="46.68129" lon="-1.9254">
        <ele>53.406863</ele>
        <time>2022-12-18T11:55:34.614Z</time>
      </trkpt>
      <trkpt lat="46.68122" lon="-1.92531">
        <ele>53.524491</ele>
        <time>2022-12-18T11:55:37.600Z</time>
      </trkpt>
      <trkpt lat="46.68116" lon="-1.9252">
        <ele>53.646133</ele>
        <time>2022-12-18T11:55:40.613Z</time>
      </trkpt>
      <trkpt lat="46.6811" lon="-1.92508">
        <ele>53.773062</ele>
        <time>2022-12-18T11:55:43.611Z</time>
      </trkpt>
      <trkpt lat="46.68104" lon="-1.92495">
        <ele>53.904825</ele>
        <time>2022-12-18T11:55:46.601Z</time>
      </trkpt>
      <trkpt lat="46.68098" lon="-1.92481">
        <ele>53.65598</ele>
        <time>2022-12-18T11:55:49.607Z</time>
      </trkpt>
      <trkpt lat="46.68093" lon="-1.92469">
        <ele>53.364394</ele>
        <time>2022-12-18T11:55:52.604Z</time>
      </trkpt>
      <trkpt lat="46.68087" lon="-1.92456">
        <ele>53.057479</ele>
        <time>2022-12-18T11:55:55.615Z</time>
      </trkpt>
      <trkpt lat="46.68082" lon="-1.92442">
        <ele>52.73894</ele>
        <time>2022-12-18T11:55:58.622Z</time>
      </trkpt>
      <trkpt lat="46.68076" lon="-1.92428">
        <ele>52.426893</ele>
        <time>2022-12-18T11:56:01.617Z</time>
      </trkpt>
      <trkpt lat="46.68072" lon="-1.92414">
        <ele>52.115763</ele>
        <time>2022-12-18T11:56:04.602Z</time>
      </trkpt>
      <trkpt lat="46.68067" lon="-1.92402">
        <ele>51.832482</ele>
        <time>2022-12-18T11:56:07.623Z</time>
      </trkpt>
      <trkpt lat="46.68062" lon="-1.92388">
        <ele>51.535427</ele>
        <time>2022-12-18T11:56:11.617Z</time>
      </trkpt>
      <trkpt lat="46.68057" lon="-1.92377">
        <ele>51.257916</ele>
        <time>2022-12-18T11:56:15.605Z</time>
      </trkpt>
      <trkpt lat="46.68048" lon="-1.9237">
        <ele>50.975886</ele>
        <time>2022-12-18T11:56:20.627Z</time>
      </trkpt>
      <trkpt lat="46.68041" lon="-1.92361">
        <ele>50.700447</ele>
        <time>2022-12-18T11:56:23.618Z</time>
      </trkpt>
      <trkpt lat="46.68032" lon="-1.92352">
        <ele>50.379807</ele>
        <time>2022-12-18T11:56:26.605Z</time>
      </trkpt>
      <trkpt lat="46.68022" lon="-1.92342">
        <ele>50.029462</ele>
        <time>2022-12-18T11:56:29.602Z</time>
      </trkpt>
      <trkpt lat="46.68012" lon="-1.92331">
        <ele>49.680827</ele>
        <time>2022-12-18T11:56:32.599Z</time>
      </trkpt>
      <trkpt lat="46.68002" lon="-1.9232">
        <ele>49.312227</ele>
        <time>2022-12-18T11:56:35.611Z</time>
      </trkpt>
      <trkpt lat="46.67992" lon="-1.92308">
        <ele>48.934984</ele>
        <time>2022-12-18T11:56:38.598Z</time>
      </trkpt>
      <trkpt lat="46.67985" lon="-1.92299">
        <ele>48.717815</ele>
        <time>2022-12-18T11:56:40.626Z</time>
      </trkpt>
      <trkpt lat="46.67976" lon="-1.92287">
        <ele>48.627536</ele>
        <time>2022-12-18T11:56:43.603Z</time>
      </trkpt>
      <trkpt lat="46.67966" lon="-1.92276">
        <ele>48.538019</ele>
        <time>2022-12-18T11:56:46.621Z</time>
      </trkpt>
      <trkpt lat="46.67956" lon="-1.92265">
        <ele>48.448556</ele>
        <time>2022-12-18T11:56:49.601Z</time>
      </trkpt>
      <trkpt lat="46.67947" lon="-1.92256">
        <ele>48.367306</ele>
        <time>2022-12-18T11:56:52.607Z</time>
      </trkpt>
      <trkpt lat="46.67938" lon="-1.92247">
        <ele>48.288582</ele>
        <time>2022-12-18T11:56:55.615Z</time>
      </trkpt>
      <trkpt lat="46.67928" lon="-1.92238">
        <ele>48.200894</ele>
        <time>2022-12-18T11:56:58.604Z</time>
      </trkpt>
      <trkpt lat="46.67918" lon="-1.9223">
        <ele>48.11833</ele>
        <time>2022-12-18T11:57:01.618Z</time>
      </trkpt>
      <trkpt lat="46.67909" lon="-1.92226">
        <ele>48.049424</ele>
        <time>2022-12-18T11:57:04.601Z</time>
      </trkpt>
      <trkpt lat="46.679" lon="-1.92222">
        <ele>47.981269</ele>
        <time>2022-12-18T11:57:07.601Z</time>
      </trkpt>
      <trkpt lat="46.67889" lon="-1.92216">
        <ele>47.898062</ele>
        <time>2022-12-18T11:57:10.602Z</time>
      </trkpt>
      <trkpt lat="46.67879" lon="-1.92207">
        <ele>47.810012</ele>
        <time>2022-12-18T11:57:13.619Z</time>
      </trkpt>
      <trkpt lat="46.67868" lon="-1.92201">
        <ele>47.726811</ele>
        <time>2022-12-18T11:57:16.620Z</time>
      </trkpt>
      <trkpt lat="46.6786" lon="-1.92191">
        <ele>47.648398</ele>
        <time>2022-12-18T11:57:19.620Z</time>
      </trkpt>
      <trkpt lat="46.67852" lon="-1.92179">
        <ele>47.569435</ele>
        <time>2022-12-18T11:57:22.610Z</time>
      </trkpt>
      <trkpt lat="46.67844" lon="-1.92167">
        <ele>47.481222</ele>
        <time>2022-12-18T11:57:25.607Z</time>
      </trkpt>
      <trkpt lat="46.67838" lon="-1.9215">
        <ele>47.460966</ele>
        <time>2022-12-18T11:57:28.608Z</time>
      </trkpt>
      <trkpt lat="46.67833" lon="-1.92133">
        <ele>47.541728</ele>
        <time>2022-12-18T11:57:31.613Z</time>
      </trkpt>
      <trkpt lat="46.67831" lon="-1.92115">
        <ele>47.620854</ele>
        <time>2022-12-18T11:57:34.598Z</time>
      </trkpt>
      <trkpt lat="46.67827" lon="-1.92099">
        <ele>47.695433</ele>
        <time>2022-12-18T11:57:37.614Z</time>
      </trkpt>
      <trkpt lat="46.67824" lon="-1.92083">
        <ele>47.765254</ele>
        <time>2022-12-18T11:57:40.624Z</time>
      </trkpt>
      <trkpt lat="46.6782" lon="-1.9207">
        <ele>47.828819</ele>
        <time>2022-12-18T11:57:43.625Z</time>
      </trkpt>
      <trkpt lat="46.67815" lon="-1.92056">
        <ele>47.897021</ele>
        <time>2022-12-18T11:57:46.626Z</time>
      </trkpt>
      <trkpt lat="46.67809" lon="-1.92044">
        <ele>47.96204</ele>
        <time>2022-12-18T11:57:49.621Z</time>
      </trkpt>
      <trkpt lat="46.67802" lon="-1.92031">
        <ele>48.035449</ele>
        <time>2022-12-18T11:57:53.596Z</time>
      </trkpt>
      <trkpt lat="46.67796" lon="-1.92021">
        <ele>48.09502</ele>
        <time>2022-12-18T11:57:56.614Z</time>
      </trkpt>
      <trkpt lat="46.67789" lon="-1.9201">
        <ele>48.158796</ele>
        <time>2022-12-18T11:57:59.599Z</time>
      </trkpt>
      <trkpt lat="46.67782" lon="-1.91999">
        <ele>48.224838</ele>
        <time>2022-12-18T11:58:02.625Z</time>
      </trkpt>
      <trkpt lat="46.67775" lon="-1.91988">
        <ele>48.290559</ele>
        <time>2022-12-18T11:58:05.599Z</time>
      </trkpt>
      <trkpt lat="46.67767" lon="-1.91976">
        <ele>48.358607</ele>
        <time>2022-12-18T11:58:08.621Z</time>
      </trkpt>
      <trkpt lat="46.6776" lon="-1.91965">
        <ele>48.426027</ele>
        <time>2022-12-18T11:58:11.609Z</time>
      </trkpt>
      <trkpt lat="46.67754" lon="-1.91955">
        <ele>48.484887</ele>
        <time>2022-12-18T11:58:14.623Z</time>
      </trkpt>
      <trkpt lat="46.67748" lon="-1.91945">
        <ele>48.543746</ele>
        <time>2022-12-18T11:58:17.603Z</time>
      </trkpt>
      <trkpt lat="46.67742" lon="-1.91935">
        <ele>48.540366</ele>
        <time>2022-12-18T11:58:20.601Z</time>
      </trkpt>
      <trkpt lat="46.67735" lon="-1.91924">
        <ele>48.489439</ele>
        <time>2022-12-18T11:58:23.601Z</time>
      </trkpt>
      <trkpt lat="46.67729" lon="-1.91912">
        <ele>48.436616</ele>
        <time>2022-12-18T11:58:26.627Z</time>
      </trkpt>
      <trkpt lat="46.67723" lon="-1.919">
        <ele>48.379713</ele>
        <time>2022-12-18T11:58:29.630Z</time>
      </trkpt>
      <trkpt lat="46.67716" lon="-1.9189">
        <ele>48.326748</ele>
        <time>2022-12-18T11:58:32.614Z</time>
      </trkpt>
      <trkpt lat="46.6771" lon="-1.91879">
        <ele>48.27436</ele>
        <time>2022-12-18T11:58:35.613Z</time>
      </trkpt>
      <trkpt lat="46.67704" lon="-1.91868">
        <ele>48.225301</ele>
        <time>2022-12-18T11:58:38.617Z</time>
      </trkpt>
      <trkpt lat="46.67697" lon="-1.91858">
        <ele>48.173125</ele>
        <time>2022-12-18T11:58:41.603Z</time>
      </trkpt>
      <trkpt lat="46.67691" lon="-1.91847">
        <ele>48.120793</ele>
        <time>2022-12-18T11:58:44.601Z</time>
      </trkpt>
      <trkpt lat="46.67685" lon="-1.91836">
        <ele>48.071735</ele>
        <time>2022-12-18T11:58:47.599Z</time>
      </trkpt>
      <trkpt lat="46.67678" lon="-1.91824">
        <ele>48.011648</ele>
        <time>2022-12-18T11:58:51.604Z</time>
      </trkpt>
      <trkpt lat="46.67672" lon="-1.91812">
        <ele>47.960996</ele>
        <time>2022-12-18T11:58:55.609Z</time>
      </trkpt>
      <trkpt lat="46.67669" lon="-1.91798">
        <ele>47.904245</ele>
        <time>2022-12-18T11:59:01.601Z</time>
      </trkpt>
      <trkpt lat="46.67674" lon="-1.91785">
        <ele>47.851291</ele>
        <time>2022-12-18T11:59:06.601Z</time>
      </trkpt>
      <trkpt lat="46.67682" lon="-1.91781">
        <ele>47.802958</ele>
        <time>2022-12-18T11:59:10.598Z</time>
      </trkpt>
      <trkpt lat="46.67692" lon="-1.91776">
        <ele>47.74862</ele>
        <time>2022-12-18T11:59:15.628Z</time>
      </trkpt>
      <trkpt lat="46.67702" lon="-1.91771">
        <ele>47.692009</ele>
        <time>2022-12-18T11:59:21.614Z</time>
      </trkpt>
      <trkpt lat="46.6771" lon="-1.91764">
        <ele>47.642441</ele>
        <time>2022-12-18T11:59:26.605Z</time>
      </trkpt>
      <trkpt lat="46.67718" lon="-1.91758">
        <ele>47.676764</ele>
        <time>2022-12-18T11:59:32.629Z</time>
      </trkpt>
      <trkpt lat="46.67727" lon="-1.91752">
        <ele>47.851987</ele>
        <time>2022-12-18T11:59:42.621Z</time>
      </trkpt>
      <trkpt lat="46.67734" lon="-1.91745">
        <ele>48.027051</ele>
        <time>2022-12-18T11:59:58.627Z</time>
      </trkpt>
      <trkpt lat="46.67741" lon="-1.91736">
        <ele>48.197629</ele>
        <time>2022-12-18T12:00:09.612Z</time>
      </trkpt>
      <trkpt lat="46.67748" lon="-1.91728">
        <ele>48.368408</ele>
        <time>2022-12-18T12:00:23.670Z</time>
      </trkpt>
      <trkpt lat="46.67755" lon="-1.91719">
        <ele>48.550265</ele>
        <time>2022-12-18T12:00:29.604Z</time>
      </trkpt>
      <trkpt lat="46.67763" lon="-1.9171">
        <ele>48.736032</ele>
        <time>2022-12-18T12:00:34.602Z</time>
      </trkpt>
      <trkpt lat="46.6777" lon="-1.917">
        <ele>48.91962</ele>
        <time>2022-12-18T12:00:42.627Z</time>
      </trkpt>
      <trkpt lat="46.67777" lon="-1.91692">
        <ele>49.090197</ele>
        <time>2022-12-18T12:00:53.616Z</time>
      </trkpt>
      <trkpt lat="46.67785" lon="-1.91684">
        <ele>49.27443</ele>
        <time>2022-12-18T12:01:04.615Z</time>
      </trkpt>
      <trkpt lat="46.67792" lon="-1.91675">
        <ele>49.451451</ele>
        <time>2022-12-18T12:01:14.609Z</time>
      </trkpt>
      <trkpt lat="46.678" lon="-1.91666">
        <ele>49.631839</ele>
        <time>2022-12-18T12:01:24.610Z</time>
      </trkpt>
      <trkpt lat="46.67807" lon="-1.91658">
        <ele>49.811557</ele>
        <time>2022-12-18T12:01:35.603Z</time>
      </trkpt>
      <trkpt lat="46.67814" lon="-1.91649">
        <ele>49.984872</ele>
        <time>2022-12-18T12:01:46.626Z</time>
      </trkpt>
      <trkpt lat="46.67822" lon="-1.91641">
        <ele>50.168959</ele>
        <time>2022-12-18T12:01:57.630Z</time>
      </trkpt>
      <trkpt lat="46.67829" lon="-1.91632">
        <ele>50.345406</ele>
        <time>2022-12-18T12:02:08.615Z</time>
      </trkpt>
      <trkpt lat="46.67836" lon="-1.91622">
        <ele>50.52218</ele>
        <time>2022-12-18T12:02:20.606Z</time>
      </trkpt>
      <trkpt lat="46.67843" lon="-1.91613">
        <ele>50.707022</ele>
        <time>2022-12-18T12:02:31.628Z</time>
      </trkpt>
      <trkpt lat="46.6785" lon="-1.91602">
        <ele>50.894284</ele>
        <time>2022-12-18T12:02:42.628Z</time>
      </trkpt>
      <trkpt lat="46.67857" lon="-1.91592">
        <ele>51.026238</ele>
        <time>2022-12-18T12:02:53.618Z</time>
      </trkpt>
      <trkpt lat="46.67856" lon="-1.91578">
        <ele>51.066562</ele>
        <time>2022-12-18T12:03:06.605Z</time>
      </trkpt>
      <trkpt lat="46.67848" lon="-1.91569">
        <ele>51.10824</ele>
        <time>2022-12-18T12:03:10.622Z</time>
      </trkpt>
      <trkpt lat="46.67839" lon="-1.91558">
        <ele>51.155136</ele>
        <time>2022-12-18T12:03:14.601Z</time>
      </trkpt>
      <trkpt lat="46.67833" lon="-1.91549">
        <ele>51.193074</ele>
        <time>2022-12-18T12:03:17.605Z</time>
      </trkpt>
      <trkpt lat="46.67826" lon="-1.9154">
        <ele>51.233318</ele>
        <time>2022-12-18T12:03:20.624Z</time>
      </trkpt>
      <trkpt lat="46.67819" lon="-1.91529">
        <ele>51.275846</ele>
        <time>2022-12-18T12:03:23.627Z</time>
      </trkpt>
      <trkpt lat="46.67811" lon="-1.91519">
        <ele>51.319987</ele>
        <time>2022-12-18T12:03:26.627Z</time>
      </trkpt>
      <trkpt lat="46.67803" lon="-1.91508">
        <ele>51.364121</ele>
        <time>2022-12-18T12:03:29.601Z</time>
      </trkpt>
      <trkpt lat="46.67796" lon="-1.91497">
        <ele>51.408242</ele>
        <time>2022-12-18T12:03:32.613Z</time>
      </trkpt>
      <trkpt lat="46.67788" lon="-1.91487">
        <ele>51.45177</ele>
        <time>2022-12-18T12:03:35.615Z</time>
      </trkpt>
      <trkpt lat="46.67781" lon="-1.91476">
        <ele>51.494194</ele>
        <time>2022-12-18T12:03:38.697Z</time>
      </trkpt>
      <trkpt lat="46.67774" lon="-1.91466">
        <ele>51.536723</ele>
        <time>2022-12-18T12:03:41.621Z</time>
      </trkpt>
      <trkpt lat="46.67766" lon="-1.91455">
        <ele>51.581043</ele>
        <time>2022-12-18T12:03:44.604Z</time>
      </trkpt>
      <trkpt lat="46.67758" lon="-1.91444">
        <ele>51.627384</ele>
        <time>2022-12-18T12:03:47.610Z</time>
      </trkpt>
      <trkpt lat="46.6775" lon="-1.91433">
        <ele>51.675004</ele>
        <time>2022-12-18T12:03:50.606Z</time>
      </trkpt>
      <trkpt lat="46.67741" lon="-1.91421">
        <ele>51.72252</ele>
        <time>2022-12-18T12:03:53.623Z</time>
      </trkpt>
      <trkpt lat="46.67733" lon="-1.91409">
        <ele>51.729777</ele>
        <time>2022-12-18T12:03:56.598Z</time>
      </trkpt>
      <trkpt lat="46.67725" lon="-1.91398">
        <ele>51.550127</ele>
        <time>2022-12-18T12:03:59.616Z</time>
      </trkpt>
      <trkpt lat="46.67717" lon="-1.91386">
        <ele>51.36167</ele>
        <time>2022-12-18T12:04:02.629Z</time>
      </trkpt>
      <trkpt lat="46.67708" lon="-1.91374">
        <ele>51.166662</ele>
        <time>2022-12-18T12:04:05.623Z</time>
      </trkpt>
      <trkpt lat="46.67699" lon="-1.91361">
        <ele>50.974317</ele>
        <time>2022-12-18T12:04:08.622Z</time>
      </trkpt>
      <trkpt lat="46.6769" lon="-1.91349">
        <ele>50.775767</ele>
        <time>2022-12-18T12:04:11.629Z</time>
      </trkpt>
      <trkpt lat="46.67681" lon="-1.91337">
        <ele>50.576969</ele>
        <time>2022-12-18T12:04:14.629Z</time>
      </trkpt>
      <trkpt lat="46.67673" lon="-1.91324">
        <ele>50.390339</ele>
        <time>2022-12-18T12:04:17.625Z</time>
      </trkpt>
      <trkpt lat="46.67665" lon="-1.91312">
        <ele>50.200733</ele>
        <time>2022-12-18T12:04:20.619Z</time>
      </trkpt>
      <trkpt lat="46.67656" lon="-1.913">
        <ele>49.999958</ele>
        <time>2022-12-18T12:04:23.628Z</time>
      </trkpt>
      <trkpt lat="46.67647" lon="-1.91287">
        <ele>49.797709</ele>
        <time>2022-12-18T12:04:26.610Z</time>
      </trkpt>
      <trkpt lat="46.67638" lon="-1.91275">
        <ele>49.610744</ele>
        <time>2022-12-18T12:04:29.623Z</time>
      </trkpt>
      <trkpt lat="46.6763" lon="-1.91264">
        <ele>49.435588</ele>
        <time>2022-12-18T12:04:32.626Z</time>
      </trkpt>
      <trkpt lat="46.67623" lon="-1.91254">
        <ele>49.276235</ele>
        <time>2022-12-18T12:04:35.595Z</time>
      </trkpt>
      <trkpt lat="46.67616" lon="-1.91244">
        <ele>49.109992</ele>
        <time>2022-12-18T12:04:38.602Z</time>
      </trkpt>
      <trkpt lat="46.67608" lon="-1.91233">
        <ele>48.937238</ele>
        <time>2022-12-18T12:04:41.623Z</time>
      </trkpt>
      <trkpt lat="46.676" lon="-1.91221">
        <ele>48.812457</ele>
        <time>2022-12-18T12:04:44.627Z</time>
      </trkpt>
      <trkpt lat="46.67592" lon="-1.9121">
        <ele>48.712489</ele>
        <time>2022-12-18T12:04:47.600Z</time>
      </trkpt>
      <trkpt lat="46.67584" lon="-1.91199">
        <ele>48.615582</ele>
        <time>2022-12-18T12:04:50.635Z</time>
      </trkpt>
      <trkpt lat="46.67577" lon="-1.91188">
        <ele>48.521937</ele>
        <time>2022-12-18T12:04:53.605Z</time>
      </trkpt>
      <trkpt lat="46.67569" lon="-1.91177">
        <ele>48.42853</ele>
        <time>2022-12-18T12:04:56.608Z</time>
      </trkpt>
      <trkpt lat="46.67561" lon="-1.91166">
        <ele>48.331475</ele>
        <time>2022-12-18T12:04:59.626Z</time>
      </trkpt>
      <trkpt lat="46.67553" lon="-1.91155">
        <ele>48.233097</ele>
        <time>2022-12-18T12:05:02.614Z</time>
      </trkpt>
      <trkpt lat="46.67545" lon="-1.91144">
        <ele>48.13226</ele>
        <time>2022-12-18T12:05:05.605Z</time>
      </trkpt>
      <trkpt lat="46.67536" lon="-1.91132">
        <ele>48.025683</ele>
        <time>2022-12-18T12:05:08.624Z</time>
      </trkpt>
      <trkpt lat="46.67527" lon="-1.9112">
        <ele>47.917855</ele>
        <time>2022-12-18T12:05:11.622Z</time>
      </trkpt>
      <trkpt lat="46.67518" lon="-1.91108">
        <ele>47.809382</ele>
        <time>2022-12-18T12:05:14.695Z</time>
      </trkpt>
      <trkpt lat="46.6751" lon="-1.91095">
        <ele>47.700688</ele>
        <time>2022-12-18T12:05:17.611Z</time>
      </trkpt>
      <trkpt lat="46.675" lon="-1.91082">
        <ele>47.58606</ele>
        <time>2022-12-18T12:05:20.628Z</time>
      </trkpt>
      <trkpt lat="46.67491" lon="-1.91069">
        <ele>47.469721</ele>
        <time>2022-12-18T12:05:23.614Z</time>
      </trkpt>
      <trkpt lat="46.67482" lon="-1.91055">
        <ele>47.35447</ele>
        <time>2022-12-18T12:05:26.628Z</time>
      </trkpt>
      <trkpt lat="46.67473" lon="-1.91042">
        <ele>47.232003</ele>
        <time>2022-12-18T12:05:29.613Z</time>
      </trkpt>
      <trkpt lat="46.67463" lon="-1.9103">
        <ele>47.104849</ele>
        <time>2022-12-18T12:05:32.625Z</time>
      </trkpt>
      <trkpt lat="46.67456" lon="-1.91018">
        <ele>46.986909</ele>
        <time>2022-12-18T12:05:35.671Z</time>
      </trkpt>
      <trkpt lat="46.67449" lon="-1.91005">
        <ele>46.869438</ele>
        <time>2022-12-18T12:05:38.603Z</time>
      </trkpt>
      <trkpt lat="46.67442" lon="-1.90992">
        <ele>46.748451</ele>
        <time>2022-12-18T12:05:41.599Z</time>
      </trkpt>
      <trkpt lat="46.67434" lon="-1.90979">
        <ele>46.627844</ele>
        <time>2022-12-18T12:05:44.611Z</time>
      </trkpt>
      <trkpt lat="46.67426" lon="-1.90969">
        <ele>46.511206</ele>
        <time>2022-12-18T12:05:47.620Z</time>
      </trkpt>
      <trkpt lat="46.67419" lon="-1.90958">
        <ele>46.398569</ele>
        <time>2022-12-18T12:05:50.599Z</time>
      </trkpt>
      <trkpt lat="46.67412" lon="-1.90944">
        <ele>46.277627</ele>
        <time>2022-12-18T12:05:53.628Z</time>
      </trkpt>
      <trkpt lat="46.67404" lon="-1.90931">
        <ele>46.15661</ele>
        <time>2022-12-18T12:05:56.603Z</time>
      </trkpt>
      <trkpt lat="46.67396" lon="-1.9092">
        <ele>46.037314</ele>
        <time>2022-12-18T12:05:59.625Z</time>
      </trkpt>
      <trkpt lat="46.67387" lon="-1.9091">
        <ele>45.918676</ele>
        <time>2022-12-18T12:06:02.612Z</time>
      </trkpt>
      <trkpt lat="46.67378" lon="-1.90899">
        <ele>45.797944</ele>
        <time>2022-12-18T12:06:05.606Z</time>
      </trkpt>
      <trkpt lat="46.67369" lon="-1.90888">
        <ele>45.673138</ele>
        <time>2022-12-18T12:06:08.607Z</time>
      </trkpt>
      <trkpt lat="46.6736" lon="-1.90877">
        <ele>45.549354</ele>
        <time>2022-12-18T12:06:11.617Z</time>
      </trkpt>
      <trkpt lat="46.6735" lon="-1.90866">
        <ele>45.42294</ele>
        <time>2022-12-18T12:06:14.625Z</time>
      </trkpt>
      <trkpt lat="46.67341" lon="-1.90855">
        <ele>45.580888</ele>
        <time>2022-12-18T12:06:17.611Z</time>
      </trkpt>
      <trkpt lat="46.67333" lon="-1.90844">
        <ele>45.8027</ele>
        <time>2022-12-18T12:06:20.615Z</time>
      </trkpt>
      <trkpt lat="46.67324" lon="-1.90833">
        <ele>46.027473</ele>
        <time>2022-12-18T12:06:23.675Z</time>
      </trkpt>
      <trkpt lat="46.67316" lon="-1.90821">
        <ele>46.257729</ele>
        <time>2022-12-18T12:06:26.628Z</time>
      </trkpt>
      <trkpt lat="46.67306" lon="-1.90808">
        <ele>46.499059</ele>
        <time>2022-12-18T12:06:29.611Z</time>
      </trkpt>
      <trkpt lat="46.67298" lon="-1.90796">
        <ele>46.733876</ele>
        <time>2022-12-18T12:06:32.602Z</time>
      </trkpt>
      <trkpt lat="46.67289" lon="-1.90784">
        <ele>46.953035</ele>
        <time>2022-12-18T12:06:35.606Z</time>
      </trkpt>
      <trkpt lat="46.67282" lon="-1.90773">
        <ele>47.150315</ele>
        <time>2022-12-18T12:06:38.629Z</time>
      </trkpt>
      <trkpt lat="46.67276" lon="-1.90764">
        <ele>47.330811</ele>
        <time>2022-12-18T12:06:41.600Z</time>
      </trkpt>
      <trkpt lat="46.67269" lon="-1.90755">
        <ele>47.506232</ele>
        <time>2022-12-18T12:06:44.625Z</time>
      </trkpt>
      <trkpt lat="46.67262" lon="-1.90745">
        <ele>47.688107</ele>
        <time>2022-12-18T12:06:47.624Z</time>
      </trkpt>
      <trkpt lat="46.67255" lon="-1.90736">
        <ele>47.871646</ele>
        <time>2022-12-18T12:06:50.634Z</time>
      </trkpt>
      <trkpt lat="46.67248" lon="-1.90726">
        <ele>48.065637</ele>
        <time>2022-12-18T12:06:53.613Z</time>
      </trkpt>
      <trkpt lat="46.6724" lon="-1.90716">
        <ele>48.258198</ele>
        <time>2022-12-18T12:06:56.621Z</time>
      </trkpt>
      <trkpt lat="46.67233" lon="-1.90707">
        <ele>48.446524</ele>
        <time>2022-12-18T12:06:59.616Z</time>
      </trkpt>
      <trkpt lat="46.67226" lon="-1.90696">
        <ele>48.635402</ele>
        <time>2022-12-18T12:07:02.606Z</time>
      </trkpt>
      <trkpt lat="46.67219" lon="-1.90687">
        <ele>48.822822</ele>
        <time>2022-12-18T12:07:05.627Z</time>
      </trkpt>
      <trkpt lat="46.67211" lon="-1.90677">
        <ele>49.001326</ele>
        <time>2022-12-18T12:07:08.630Z</time>
      </trkpt>
      <trkpt lat="46.67205" lon="-1.90667">
        <ele>49.155548</ele>
        <time>2022-12-18T12:07:11.626Z</time>
      </trkpt>
      <trkpt lat="46.67198" lon="-1.90658">
        <ele>49.311426</ele>
        <time>2022-12-18T12:07:14.605Z</time>
      </trkpt>
      <trkpt lat="46.67191" lon="-1.90648">
        <ele>49.471638</ele>
        <time>2022-12-18T12:07:17.629Z</time>
      </trkpt>
      <trkpt lat="46.67183" lon="-1.90639">
        <ele>49.644557</ele>
        <time>2022-12-18T12:07:20.625Z</time>
      </trkpt>
      <trkpt lat="46.67175" lon="-1.90628">
        <ele>49.821236</ele>
        <time>2022-12-18T12:07:23.622Z</time>
      </trkpt>
      <trkpt lat="46.67169" lon="-1.90618">
        <ele>49.978803</ele>
        <time>2022-12-18T12:07:26.630Z</time>
      </trkpt>
      <trkpt lat="46.67162" lon="-1.90609">
        <ele>50.129444</ele>
        <time>2022-12-18T12:07:29.627Z</time>
      </trkpt>
      <trkpt lat="46.67156" lon="-1.90599">
        <ele>50.286052</ele>
        <time>2022-12-18T12:07:32.670Z</time>
      </trkpt>
      <trkpt lat="46.67149" lon="-1.9059">
        <ele>50.43993</ele>
        <time>2022-12-18T12:07:35.623Z</time>
      </trkpt>
      <trkpt lat="46.67143" lon="-1.90579">
        <ele>50.600978</ele>
        <time>2022-12-18T12:07:38.614Z</time>
      </trkpt>
      <trkpt lat="46.67136" lon="-1.90569">
        <ele>50.770395</ele>
        <time>2022-12-18T12:07:41.618Z</time>
      </trkpt>
      <trkpt lat="46.67129" lon="-1.90558">
        <ele>50.936569</ele>
        <time>2022-12-18T12:07:44.617Z</time>
      </trkpt>
      <trkpt lat="46.6712" lon="-1.90548">
        <ele>51.114998</ele>
        <time>2022-12-18T12:07:47.630Z</time>
      </trkpt>
      <trkpt lat="46.67112" lon="-1.90537">
        <ele>51.304316</ele>
        <time>2022-12-18T12:07:50.634Z</time>
      </trkpt>
      <trkpt lat="46.67104" lon="-1.90525">
        <ele>51.491709</ele>
        <time>2022-12-18T12:07:53.605Z</time>
      </trkpt>
      <trkpt lat="46.67096" lon="-1.90514">
        <ele>51.673162</ele>
        <time>2022-12-18T12:07:56.624Z</time>
      </trkpt>
      <trkpt lat="46.67088" lon="-1.90504">
        <ele>51.857384</ele>
        <time>2022-12-18T12:07:59.610Z</time>
      </trkpt>
      <trkpt lat="46.6708" lon="-1.90493">
        <ele>51.757199</ele>
        <time>2022-12-18T12:08:02.630Z</time>
      </trkpt>
      <trkpt lat="46.67072" lon="-1.90484">
        <ele>51.655745</ele>
        <time>2022-12-18T12:08:05.623Z</time>
      </trkpt>
      <trkpt lat="46.67066" lon="-1.90474">
        <ele>51.564947</ele>
        <time>2022-12-18T12:08:08.609Z</time>
      </trkpt>
      <trkpt lat="46.67058" lon="-1.90464">
        <ele>51.453288</ele>
        <time>2022-12-18T12:08:12.627Z</time>
      </trkpt>
      <trkpt lat="46.67049" lon="-1.90458">
        <ele>51.355541</ele>
        <time>2022-12-18T12:08:18.630Z</time>
      </trkpt>
      <trkpt lat="46.67039" lon="-1.90451">
        <ele>51.249736</ele>
        <time>2022-12-18T12:08:23.609Z</time>
      </trkpt>
      <trkpt lat="46.67032" lon="-1.90441">
        <ele>51.15412</ele>
        <time>2022-12-18T12:08:26.604Z</time>
      </trkpt>
      <trkpt lat="46.67025" lon="-1.90431">
        <ele>51.05472</ele>
        <time>2022-12-18T12:08:29.635Z</time>
      </trkpt>
      <trkpt lat="46.67018" lon="-1.90421">
        <ele>50.956297</ele>
        <time>2022-12-18T12:08:32.602Z</time>
      </trkpt>
      <trkpt lat="46.67011" lon="-1.90412">
        <ele>50.862612</ele>
        <time>2022-12-18T12:08:35.625Z</time>
      </trkpt>
      <trkpt lat="46.67003" lon="-1.90402">
        <ele>50.753805</ele>
        <time>2022-12-18T12:08:38.623Z</time>
      </trkpt>
      <trkpt lat="46.66994" lon="-1.90391">
        <ele>50.644694</ele>
        <time>2022-12-18T12:08:41.626Z</time>
      </trkpt>
      <trkpt lat="46.66986" lon="-1.90381">
        <ele>50.538213</ele>
        <time>2022-12-18T12:08:44.618Z</time>
      </trkpt>
      <trkpt lat="46.66977" lon="-1.90375">
        <ele>50.438361</ele>
        <time>2022-12-18T12:08:47.614Z</time>
      </trkpt>
      <trkpt lat="46.66968" lon="-1.90369">
        <ele>50.335155</ele>
        <time>2022-12-18T12:08:50.607Z</time>
      </trkpt>
      <trkpt lat="46.66964" lon="-1.90355">
        <ele>50.231805</ele>
        <time>2022-12-18T12:08:54.608Z</time>
      </trkpt>
      <trkpt lat="46.66963" lon="-1.90339">
        <ele>50.127034</ele>
        <time>2022-12-18T12:08:58.613Z</time>
      </trkpt>
      <trkpt lat="46.66957" lon="-1.90325">
        <ele>50.068124</ele>
        <time>2022-12-18T12:09:02.614Z</time>
      </trkpt>
      <trkpt lat="46.66951" lon="-1.90314">
        <ele>50.068892</ele>
        <time>2022-12-18T12:09:05.602Z</time>
      </trkpt>
      <trkpt lat="46.66943" lon="-1.90304">
        <ele>50.069735</ele>
        <time>2022-12-18T12:09:08.611Z</time>
      </trkpt>
      <trkpt lat="46.66934" lon="-1.90295">
        <ele>50.070608</ele>
        <time>2022-12-18T12:09:11.612Z</time>
      </trkpt>
      <trkpt lat="46.66923" lon="-1.90286">
        <ele>50.071593</ele>
        <time>2022-12-18T12:09:14.673Z</time>
      </trkpt>
      <trkpt lat="46.66912" lon="-1.90277">
        <ele>50.072584</ele>
        <time>2022-12-18T12:09:17.604Z</time>
      </trkpt>
      <trkpt lat="46.669" lon="-1.90268">
        <ele>50.073637</ele>
        <time>2022-12-18T12:09:20.604Z</time>
      </trkpt>
      <trkpt lat="46.66892" lon="-1.90263">
        <ele>50.074362</ele>
        <time>2022-12-18T12:09:22.617Z</time>
      </trkpt>
      <trkpt lat="46.66884" lon="-1.90257">
        <ele>50.075085</ele>
        <time>2022-12-18T12:09:24.631Z</time>
      </trkpt>
      <trkpt lat="46.66875" lon="-1.90253">
        <ele>50.075818</ele>
        <time>2022-12-18T12:09:26.630Z</time>
      </trkpt>
      <trkpt lat="46.66863" lon="-1.90247">
        <ele>50.076852</ele>
        <time>2022-12-18T12:09:29.616Z</time>
      </trkpt>
      <trkpt lat="46.6685" lon="-1.90241">
        <ele>50.077909</ele>
        <time>2022-12-18T12:09:32.613Z</time>
      </trkpt>
      <trkpt lat="46.66837" lon="-1.90236">
        <ele>50.078934</ele>
        <time>2022-12-18T12:09:35.613Z</time>
      </trkpt>
      <trkpt lat="46.66825" lon="-1.90233">
        <ele>50.079951</ele>
        <time>2022-12-18T12:09:38.620Z</time>
      </trkpt>
      <trkpt lat="46.66812" lon="-1.90231">
        <ele>50.080969</ele>
        <time>2022-12-18T12:09:41.620Z</time>
      </trkpt>
      <trkpt lat="46.668" lon="-1.90228">
        <ele>50.08055</ele>
        <time>2022-12-18T12:09:44.629Z</time>
      </trkpt>
      <trkpt lat="46.66788" lon="-1.90225">
        <ele>50.016997</ele>
        <time>2022-12-18T12:09:47.613Z</time>
      </trkpt>
      <trkpt lat="46.66775" lon="-1.90222">
        <ele>49.951999</ele>
        <time>2022-12-18T12:09:50.609Z</time>
      </trkpt>
      <trkpt lat="46.66764" lon="-1.9022">
        <ele>49.891593</ele>
        <time>2022-12-18T12:09:53.611Z</time>
      </trkpt>
      <trkpt lat="46.66753" lon="-1.90217">
        <ele>49.833711</ele>
        <time>2022-12-18T12:09:56.606Z</time>
      </trkpt>
      <trkpt lat="46.66742" lon="-1.90214">
        <ele>49.776025</ele>
        <time>2022-12-18T12:09:59.618Z</time>
      </trkpt>
      <trkpt lat="46.66731" lon="-1.90212">
        <ele>49.718974</ele>
        <time>2022-12-18T12:10:02.596Z</time>
      </trkpt>
      <trkpt lat="46.6672" lon="-1.9021">
        <ele>49.660119</ele>
        <time>2022-12-18T12:10:05.627Z</time>
      </trkpt>
      <trkpt lat="46.66709" lon="-1.90207">
        <ele>49.599678</ele>
        <time>2022-12-18T12:10:08.627Z</time>
      </trkpt>
      <trkpt lat="46.66697" lon="-1.90203">
        <ele>49.539681</ele>
        <time>2022-12-18T12:10:11.627Z</time>
      </trkpt>
      <trkpt lat="46.66685" lon="-1.902">
        <ele>49.475136</ele>
        <time>2022-12-18T12:10:14.629Z</time>
      </trkpt>
      <trkpt lat="46.66673" lon="-1.90198">
        <ele>49.411337</ele>
        <time>2022-12-18T12:10:17.634Z</time>
      </trkpt>
      <trkpt lat="46.66661" lon="-1.90194">
        <ele>49.347756</ele>
        <time>2022-12-18T12:10:20.616Z</time>
      </trkpt>
      <trkpt lat="46.66649" lon="-1.90191">
        <ele>49.283844</ele>
        <time>2022-12-18T12:10:23.628Z</time>
      </trkpt>
      <trkpt lat="46.66637" lon="-1.90188">
        <ele>49.219618</ele>
        <time>2022-12-18T12:10:26.628Z</time>
      </trkpt>
      <trkpt lat="46.66624" lon="-1.90185">
        <ele>49.154325</ele>
        <time>2022-12-18T12:10:29.627Z</time>
      </trkpt>
      <trkpt lat="46.66612" lon="-1.90182">
        <ele>49.087985</ele>
        <time>2022-12-18T12:10:32.625Z</time>
      </trkpt>
      <trkpt lat="46.666" lon="-1.9018">
        <ele>49.021061</ele>
        <time>2022-12-18T12:10:35.621Z</time>
      </trkpt>
      <trkpt lat="46.66587" lon="-1.90177">
        <ele>48.951608</ele>
        <time>2022-12-18T12:10:38.628Z</time>
      </trkpt>
      <trkpt lat="46.66575" lon="-1.90174">
        <ele>48.88706</ele>
        <time>2022-12-18T12:10:41.631Z</time>
      </trkpt>
      <trkpt lat="46.66562" lon="-1.90171">
        <ele>48.81533</ele>
        <time>2022-12-18T12:10:44.627Z</time>
      </trkpt>
      <trkpt lat="46.66549" lon="-1.90167">
        <ele>48.741469</ele>
        <time>2022-12-18T12:10:47.629Z</time>
      </trkpt>
      <trkpt lat="46.6654" lon="-1.90165">
        <ele>48.69276</ele>
        <time>2022-12-18T12:10:49.631Z</time>
      </trkpt>
      <trkpt lat="46.66531" lon="-1.90162">
        <ele>48.643917</ele>
        <time>2022-12-18T12:10:51.611Z</time>
      </trkpt>
      <trkpt lat="46.66522" lon="-1.9016">
        <ele>48.592358</ele>
        <time>2022-12-18T12:10:53.625Z</time>
      </trkpt>
      <trkpt lat="46.66513" lon="-1.90158">
        <ele>48.543298</ele>
        <time>2022-12-18T12:10:55.631Z</time>
      </trkpt>
      <trkpt lat="46.66503" lon="-1.90156">
        <ele>48.492107</ele>
        <time>2022-12-18T12:10:57.621Z</time>
      </trkpt>
      <trkpt lat="46.66494" lon="-1.90153">
        <ele>48.441675</ele>
        <time>2022-12-18T12:10:59.628Z</time>
      </trkpt>
      <trkpt lat="46.66481" lon="-1.9015">
        <ele>48.372158</ele>
        <time>2022-12-18T12:11:02.626Z</time>
      </trkpt>
      <trkpt lat="46.66468" lon="-1.90147">
        <ele>48.300222</ele>
        <time>2022-12-18T12:11:05.627Z</time>
      </trkpt>
      <trkpt lat="46.66459" lon="-1.90145">
        <ele>48.250097</ele>
        <time>2022-12-18T12:11:07.629Z</time>
      </trkpt>
      <trkpt lat="46.66446" lon="-1.90141">
        <ele>48.178045</ele>
        <time>2022-12-18T12:11:10.622Z</time>
      </trkpt>
      <trkpt lat="46.66436" lon="-1.90139">
        <ele>48.22168</ele>
        <time>2022-12-18T12:11:12.630Z</time>
      </trkpt>
      <trkpt lat="46.66426" lon="-1.90137">
        <ele>48.271448</ele>
        <time>2022-12-18T12:11:14.627Z</time>
      </trkpt>
      <trkpt lat="46.66416" lon="-1.90134">
        <ele>48.324813</ele>
        <time>2022-12-18T12:11:16.631Z</time>
      </trkpt>
      <trkpt lat="46.66406" lon="-1.90132">
        <ele>48.372116</ele>
        <time>2022-12-18T12:11:18.634Z</time>
      </trkpt>
      <trkpt lat="46.66397" lon="-1.9013">
        <ele>48.419579</ele>
        <time>2022-12-18T12:11:20.630Z</time>
      </trkpt>
      <trkpt lat="46.66387" lon="-1.90128">
        <ele>48.467533</ele>
        <time>2022-12-18T12:11:22.627Z</time>
      </trkpt>
      <trkpt lat="46.66374" lon="-1.90124">
        <ele>48.534772</ele>
        <time>2022-12-18T12:11:25.629Z</time>
      </trkpt>
      <trkpt lat="46.66361" lon="-1.90122">
        <ele>48.599174</ele>
        <time>2022-12-18T12:11:28.675Z</time>
      </trkpt>
      <trkpt lat="46.66349" lon="-1.90119">
        <ele>48.66084</ele>
        <time>2022-12-18T12:11:31.625Z</time>
      </trkpt>
      <trkpt lat="46.66338" lon="-1.90116">
        <ele>48.716014</ele>
        <time>2022-12-18T12:11:34.628Z</time>
      </trkpt>
      <trkpt lat="46.66328" lon="-1.90113">
        <ele>48.767898</ele>
        <time>2022-12-18T12:11:37.618Z</time>
      </trkpt>
      <trkpt lat="46.66319" lon="-1.9011">
        <ele>48.814379</ele>
        <time>2022-12-18T12:11:40.626Z</time>
      </trkpt>
      <trkpt lat="46.66307" lon="-1.90107">
        <ele>48.870964</ele>
        <time>2022-12-18T12:11:44.672Z</time>
      </trkpt>
      <trkpt lat="46.66295" lon="-1.90105">
        <ele>48.931534</ele>
        <time>2022-12-18T12:11:48.631Z</time>
      </trkpt>
      <trkpt lat="46.66285" lon="-1.90102">
        <ele>48.984803</ele>
        <time>2022-12-18T12:11:51.636Z</time>
      </trkpt>
      <trkpt lat="46.66273" lon="-1.90099">
        <ele>49.046298</ele>
        <time>2022-12-18T12:11:54.630Z</time>
      </trkpt>
      <trkpt lat="46.66259" lon="-1.90095">
        <ele>49.145243</ele>
        <time>2022-12-18T12:11:57.634Z</time>
      </trkpt>
      <trkpt lat="46.6625" lon="-1.90093">
        <ele>49.227691</ele>
        <time>2022-12-18T12:11:59.623Z</time>
      </trkpt>
      <trkpt lat="46.66241" lon="-1.90088">
        <ele>49.310696</ele>
        <time>2022-12-18T12:12:01.629Z</time>
      </trkpt>
      <trkpt lat="46.66232" lon="-1.90084">
        <ele>49.396717</ele>
        <time>2022-12-18T12:12:03.627Z</time>
      </trkpt>
      <trkpt lat="46.66222" lon="-1.9008">
        <ele>49.481427</ele>
        <time>2022-12-18T12:12:05.627Z</time>
      </trkpt>
      <trkpt lat="46.66213" lon="-1.90074">
        <ele>49.564457</ele>
        <time>2022-12-18T12:12:07.631Z</time>
      </trkpt>
      <trkpt lat="46.66201" lon="-1.90067">
        <ele>49.681962</ele>
        <time>2022-12-18T12:12:10.628Z</time>
      </trkpt>
      <trkpt lat="46.66192" lon="-1.90062">
        <ele>49.76177</ele>
        <time>2022-12-18T12:12:12.633Z</time>
      </trkpt>
      <trkpt lat="46.66183" lon="-1.90057">
        <ele>49.844372</ele>
        <time>2022-12-18T12:12:14.613Z</time>
      </trkpt>
      <trkpt lat="46.66172" lon="-1.9005">
        <ele>49.955439</ele>
        <time>2022-12-18T12:12:17.627Z</time>
      </trkpt>
      <trkpt lat="46.6616" lon="-1.90043">
        <ele>50.066176</ele>
        <time>2022-12-18T12:12:20.628Z</time>
      </trkpt>
      <trkpt lat="46.66149" lon="-1.90036">
        <ele>50.17182</ele>
        <time>2022-12-18T12:12:23.627Z</time>
      </trkpt>
      <trkpt lat="46.66137" lon="-1.90029">
        <ele>50.281523</ele>
        <time>2022-12-18T12:12:26.667Z</time>
      </trkpt>
      <trkpt lat="46.66126" lon="-1.90022">
        <ele>50.386219</ele>
        <time>2022-12-18T12:12:29.623Z</time>
      </trkpt>
      <trkpt lat="46.66116" lon="-1.90015">
        <ele>50.482079</ele>
        <time>2022-12-18T12:12:32.605Z</time>
      </trkpt>
      <trkpt lat="46.66106" lon="-1.9001">
        <ele>50.570793</ele>
        <time>2022-12-18T12:12:35.631Z</time>
      </trkpt>
      <trkpt lat="46.66096" lon="-1.90003">
        <ele>50.653947</ele>
        <time>2022-12-18T12:12:38.631Z</time>
      </trkpt>
      <trkpt lat="46.66085" lon="-1.89996">
        <ele>50.711888</ele>
        <time>2022-12-18T12:12:41.628Z</time>
      </trkpt>
      <trkpt lat="46.66074" lon="-1.89989">
        <ele>50.770692</ele>
        <time>2022-12-18T12:12:44.629Z</time>
      </trkpt>
      <trkpt lat="46.66062" lon="-1.89981">
        <ele>50.833761</ele>
        <time>2022-12-18T12:12:47.603Z</time>
      </trkpt>
      <trkpt lat="46.6605" lon="-1.89974">
        <ele>50.897248</ele>
        <time>2022-12-18T12:12:50.632Z</time>
      </trkpt>
      <trkpt lat="46.6604" lon="-1.89967">
        <ele>50.954655</ele>
        <time>2022-12-18T12:12:53.603Z</time>
      </trkpt>
      <trkpt lat="46.66029" lon="-1.8996">
        <ele>51.01433</ele>
        <time>2022-12-18T12:12:56.629Z</time>
      </trkpt>
      <trkpt lat="46.66018" lon="-1.89952">
        <ele>51.073276</ele>
        <time>2022-12-18T12:12:59.631Z</time>
      </trkpt>
      <trkpt lat="46.66007" lon="-1.89945">
        <ele>51.131334</ele>
        <time>2022-12-18T12:13:02.628Z</time>
      </trkpt>
      <trkpt lat="46.65996" lon="-1.89938">
        <ele>51.191716</ele>
        <time>2022-12-18T12:13:05.604Z</time>
      </trkpt>
      <trkpt lat="46.65985" lon="-1.89931">
        <ele>51.251322</ele>
        <time>2022-12-18T12:13:08.626Z</time>
      </trkpt>
      <trkpt lat="46.65974" lon="-1.89924">
        <ele>51.30796</ele>
        <time>2022-12-18T12:13:11.604Z</time>
      </trkpt>
      <trkpt lat="46.65964" lon="-1.89918">
        <ele>51.360018</ele>
        <time>2022-12-18T12:13:14.667Z</time>
      </trkpt>
      <trkpt lat="46.65954" lon="-1.89912">
        <ele>51.413872</ele>
        <time>2022-12-18T12:13:17.627Z</time>
      </trkpt>
      <trkpt lat="46.65944" lon="-1.89905">
        <ele>51.468717</ele>
        <time>2022-12-18T12:13:20.626Z</time>
      </trkpt>
      <trkpt lat="46.65933" lon="-1.89898">
        <ele>51.508585</ele>
        <time>2022-12-18T12:13:23.605Z</time>
      </trkpt>
      <trkpt lat="46.65922" lon="-1.89892">
        <ele>51.484659</ele>
        <time>2022-12-18T12:13:26.616Z</time>
      </trkpt>
      <trkpt lat="46.6591" lon="-1.89885">
        <ele>51.459177</ele>
        <time>2022-12-18T12:13:29.599Z</time>
      </trkpt>
      <trkpt lat="46.65899" lon="-1.89878">
        <ele>51.434647</ele>
        <time>2022-12-18T12:13:32.627Z</time>
      </trkpt>
      <trkpt lat="46.65889" lon="-1.8987">
        <ele>51.411146</ele>
        <time>2022-12-18T12:13:35.624Z</time>
      </trkpt>
      <trkpt lat="46.65877" lon="-1.89863">
        <ele>51.385677</ele>
        <time>2022-12-18T12:13:38.615Z</time>
      </trkpt>
      <trkpt lat="46.65866" lon="-1.89857">
        <ele>51.36146</ele>
        <time>2022-12-18T12:13:41.660Z</time>
      </trkpt>
      <trkpt lat="46.65855" lon="-1.89849">
        <ele>51.337285</ele>
        <time>2022-12-18T12:13:44.622Z</time>
      </trkpt>
      <trkpt lat="46.65844" lon="-1.89842">
        <ele>51.312001</ele>
        <time>2022-12-18T12:13:47.631Z</time>
      </trkpt>
      <trkpt lat="46.65832" lon="-1.89834">
        <ele>51.286865</ele>
        <time>2022-12-18T12:13:50.634Z</time>
      </trkpt>
      <trkpt lat="46.6582" lon="-1.89827">
        <ele>51.260598</ele>
        <time>2022-12-18T12:13:53.624Z</time>
      </trkpt>
      <trkpt lat="46.65809" lon="-1.89819">
        <ele>51.234849</ele>
        <time>2022-12-18T12:13:56.629Z</time>
      </trkpt>
      <trkpt lat="46.65796" lon="-1.89812">
        <ele>51.208021</ele>
        <time>2022-12-18T12:13:59.604Z</time>
      </trkpt>
      <trkpt lat="46.65785" lon="-1.89805">
        <ele>51.181939</ele>
        <time>2022-12-18T12:14:02.641Z</time>
      </trkpt>
      <trkpt lat="46.65773" lon="-1.89797">
        <ele>51.155224</ele>
        <time>2022-12-18T12:14:05.617Z</time>
      </trkpt>
      <trkpt lat="46.65764" lon="-1.89791">
        <ele>51.183028</ele>
        <time>2022-12-18T12:14:07.674Z</time>
      </trkpt>
      <trkpt lat="46.65755" lon="-1.89786">
        <ele>51.22639</ele>
        <time>2022-12-18T12:14:09.618Z</time>
      </trkpt>
      <trkpt lat="46.65743" lon="-1.89778">
        <ele>51.285305</ele>
        <time>2022-12-18T12:14:12.625Z</time>
      </trkpt>
      <trkpt lat="46.65731" lon="-1.8977">
        <ele>51.344699</ele>
        <time>2022-12-18T12:14:15.612Z</time>
      </trkpt>
      <trkpt lat="46.65723" lon="-1.89765">
        <ele>51.385881</ele>
        <time>2022-12-18T12:14:17.630Z</time>
      </trkpt>
      <trkpt lat="46.6571" lon="-1.89756">
        <ele>51.447218</ele>
        <time>2022-12-18T12:14:20.631Z</time>
      </trkpt>
      <trkpt lat="46.65702" lon="-1.8975">
        <ele>51.489725</ele>
        <time>2022-12-18T12:14:22.630Z</time>
      </trkpt>
      <trkpt lat="46.65693" lon="-1.89745">
        <ele>51.530216</ele>
        <time>2022-12-18T12:14:24.629Z</time>
      </trkpt>
      <trkpt lat="46.65685" lon="-1.8974">
        <ele>51.571809</ele>
        <time>2022-12-18T12:14:26.627Z</time>
      </trkpt>
      <trkpt lat="46.65676" lon="-1.89734">
        <ele>51.613693</ele>
        <time>2022-12-18T12:14:28.628Z</time>
      </trkpt>
      <trkpt lat="46.65668" lon="-1.89728">
        <ele>51.656607</ele>
        <time>2022-12-18T12:14:30.626Z</time>
      </trkpt>
      <trkpt lat="46.65659" lon="-1.89723">
        <ele>51.700149</ele>
        <time>2022-12-18T12:14:32.626Z</time>
      </trkpt>
      <trkpt lat="46.65647" lon="-1.89715">
        <ele>51.75933</ele>
        <time>2022-12-18T12:14:35.629Z</time>
      </trkpt>
      <trkpt lat="46.65639" lon="-1.89709">
        <ele>51.799949</ele>
        <time>2022-12-18T12:14:37.629Z</time>
      </trkpt>
      <trkpt lat="46.65626" lon="-1.89701">
        <ele>51.860171</ele>
        <time>2022-12-18T12:14:40.622Z</time>
      </trkpt>
      <trkpt lat="46.65617" lon="-1.89696">
        <ele>51.902538</ele>
        <time>2022-12-18T12:14:42.627Z</time>
      </trkpt>
      <trkpt lat="46.65605" lon="-1.89689">
        <ele>51.947709</ele>
        <time>2022-12-18T12:14:45.675Z</time>
      </trkpt>
      <trkpt lat="46.65593" lon="-1.89681">
        <ele>51.830442</ele>
        <time>2022-12-18T12:14:48.614Z</time>
      </trkpt>
      <trkpt lat="46.65581" lon="-1.89674">
        <ele>51.719134</ele>
        <time>2022-12-18T12:14:51.602Z</time>
      </trkpt>
      <trkpt lat="46.65572" lon="-1.89667">
        <ele>51.628605</ele>
        <time>2022-12-18T12:14:54.628Z</time>
      </trkpt>
      <trkpt lat="46.65562" lon="-1.89661">
        <ele>51.535168</ele>
        <time>2022-12-18T12:14:58.606Z</time>
      </trkpt>
      <trkpt lat="46.65553" lon="-1.89655">
        <ele>51.445114</ele>
        <time>2022-12-18T12:15:02.623Z</time>
      </trkpt>
      <trkpt lat="46.65541" lon="-1.89648">
        <ele>51.339158</ele>
        <time>2022-12-18T12:15:06.632Z</time>
      </trkpt>
      <trkpt lat="46.65532" lon="-1.89641">
        <ele>51.245742</ele>
        <time>2022-12-18T12:15:09.634Z</time>
      </trkpt>
      <trkpt lat="46.65522" lon="-1.89634">
        <ele>51.144972</ele>
        <time>2022-12-18T12:15:12.609Z</time>
      </trkpt>
      <trkpt lat="46.65511" lon="-1.89625">
        <ele>51.042729</ele>
        <time>2022-12-18T12:15:15.614Z</time>
      </trkpt>
      <trkpt lat="46.65501" lon="-1.89618">
        <ele>50.940391</ele>
        <time>2022-12-18T12:15:18.633Z</time>
      </trkpt>
      <trkpt lat="46.65489" lon="-1.8961">
        <ele>50.828584</ele>
        <time>2022-12-18T12:15:21.602Z</time>
      </trkpt>
      <trkpt lat="46.65479" lon="-1.89602">
        <ele>50.726218</ele>
        <time>2022-12-18T12:15:24.627Z</time>
      </trkpt>
      <trkpt lat="46.65468" lon="-1.89595">
        <ele>50.622773</ele>
        <time>2022-12-18T12:15:27.606Z</time>
      </trkpt>
      <trkpt lat="46.65457" lon="-1.89587">
        <ele>50.518575</ele>
        <time>2022-12-18T12:15:30.617Z</time>
      </trkpt>
      <trkpt lat="46.65447" lon="-1.89579">
        <ele>50.411151</ele>
        <time>2022-12-18T12:15:33.608Z</time>
      </trkpt>
      <trkpt lat="46.65436" lon="-1.8957">
        <ele>50.43935</ele>
        <time>2022-12-18T12:15:36.622Z</time>
      </trkpt>
      <trkpt lat="46.65425" lon="-1.89561">
        <ele>50.515303</ele>
        <time>2022-12-18T12:15:39.629Z</time>
      </trkpt>
      <trkpt lat="46.65415" lon="-1.89552">
        <ele>50.591884</ele>
        <time>2022-12-18T12:15:42.635Z</time>
      </trkpt>
      <trkpt lat="46.65405" lon="-1.89543">
        <ele>50.664095</ele>
        <time>2022-12-18T12:15:45.680Z</time>
      </trkpt>
      <trkpt lat="46.65394" lon="-1.89533">
        <ele>50.739903</ele>
        <time>2022-12-18T12:15:48.629Z</time>
      </trkpt>
      <trkpt lat="46.65384" lon="-1.89524">
        <ele>50.814054</ele>
        <time>2022-12-18T12:15:51.618Z</time>
      </trkpt>
      <trkpt lat="46.65375" lon="-1.89516">
        <ele>50.881099</ele>
        <time>2022-12-18T12:15:54.611Z</time>
      </trkpt>
      <trkpt lat="46.65366" lon="-1.89506">
        <ele>50.953312</ele>
        <time>2022-12-18T12:15:57.605Z</time>
      </trkpt>
      <trkpt lat="46.65356" lon="-1.89497">
        <ele>51.022557</ele>
        <time>2022-12-18T12:16:00.625Z</time>
      </trkpt>
      <trkpt lat="46.65348" lon="-1.89489">
        <ele>51.081784</ele>
        <time>2022-12-18T12:16:03.617Z</time>
      </trkpt>
      <trkpt lat="46.6534" lon="-1.8948">
        <ele>51.148487</ele>
        <time>2022-12-18T12:16:07.629Z</time>
      </trkpt>
      <trkpt lat="46.6533" lon="-1.8947">
        <ele>51.219681</ele>
        <time>2022-12-18T12:16:11.628Z</time>
      </trkpt>
      <trkpt lat="46.65323" lon="-1.89461">
        <ele>51.279911</ele>
        <time>2022-12-18T12:16:14.620Z</time>
      </trkpt>
      <trkpt lat="46.65314" lon="-1.89452">
        <ele>51.344374</ele>
        <time>2022-12-18T12:16:17.674Z</time>
      </trkpt>
      <trkpt lat="46.65306" lon="-1.89442">
        <ele>51.40898</ele>
        <time>2022-12-18T12:16:20.631Z</time>
      </trkpt>
      <trkpt lat="46.65298" lon="-1.89432">
        <ele>51.477047</ele>
        <time>2022-12-18T12:16:23.624Z</time>
      </trkpt>
      <trkpt lat="46.65289" lon="-1.89422">
        <ele>51.541522</ele>
        <time>2022-12-18T12:16:26.627Z</time>
      </trkpt>
      <trkpt lat="46.6528" lon="-1.89413">
        <ele>51.607261</ele>
        <time>2022-12-18T12:16:29.611Z</time>
      </trkpt>
      <trkpt lat="46.65271" lon="-1.89403">
        <ele>51.674201</ele>
        <time>2022-12-18T12:16:32.625Z</time>
      </trkpt>
      <trkpt lat="46.65263" lon="-1.89394">
        <ele>51.738733</ele>
        <time>2022-12-18T12:16:35.607Z</time>
      </trkpt>
      <trkpt lat="46.65254" lon="-1.89385">
        <ele>51.804093</ele>
        <time>2022-12-18T12:16:38.641Z</time>
      </trkpt>
      <trkpt lat="46.65244" lon="-1.89377">
        <ele>51.869453</ele>
        <time>2022-12-18T12:16:41.630Z</time>
      </trkpt>
      <trkpt lat="46.65235" lon="-1.89369">
        <ele>51.932417</ele>
        <time>2022-12-18T12:16:44.630Z</time>
      </trkpt>
      <trkpt lat="46.65226" lon="-1.89362">
        <ele>51.993401</ele>
        <time>2022-12-18T12:16:47.634Z</time>
      </trkpt>
      <trkpt lat="46.65218" lon="-1.89357">
        <ele>52.048266</ele>
        <time>2022-12-18T12:16:50.670Z</time>
      </trkpt>
      <trkpt lat="46.65209" lon="-1.89351">
        <ele>52.104045</ele>
        <time>2022-12-18T12:16:53.629Z</time>
      </trkpt>
      <trkpt lat="46.65201" lon="-1.89346">
        <ele>52.160523</ele>
        <time>2022-12-18T12:16:56.611Z</time>
      </trkpt>
      <trkpt lat="46.65192" lon="-1.89341">
        <ele>52.21849</ele>
        <time>2022-12-18T12:16:59.631Z</time>
      </trkpt>
      <trkpt lat="46.65183" lon="-1.89335">
        <ele>52.276295</ele>
        <time>2022-12-18T12:17:02.628Z</time>
      </trkpt>
      <trkpt lat="46.65173" lon="-1.8933">
        <ele>52.335153</ele>
        <time>2022-12-18T12:17:05.626Z</time>
      </trkpt>
      <trkpt lat="46.65165" lon="-1.89326">
        <ele>52.391757</ele>
        <time>2022-12-18T12:17:08.627Z</time>
      </trkpt>
      <trkpt lat="46.65156" lon="-1.89319">
        <ele>52.452378</ele>
        <time>2022-12-18T12:17:12.627Z</time>
      </trkpt>
      <trkpt lat="46.65145" lon="-1.89314">
        <ele>52.517293</ele>
        <time>2022-12-18T12:17:16.628Z</time>
      </trkpt>
      <trkpt lat="46.65137" lon="-1.89309">
        <ele>52.575912</ele>
        <time>2022-12-18T12:17:19.614Z</time>
      </trkpt>
      <trkpt lat="46.65125" lon="-1.89304">
        <ele>52.759641</ele>
        <time>2022-12-18T12:17:23.629Z</time>
      </trkpt>
      <trkpt lat="46.65116" lon="-1.89299">
        <ele>52.897413</ele>
        <time>2022-12-18T12:17:26.601Z</time>
      </trkpt>
      <trkpt lat="46.65108" lon="-1.89294">
        <ele>53.040536</ele>
        <time>2022-12-18T12:17:29.614Z</time>
      </trkpt>
      <trkpt lat="46.65099" lon="-1.8929">
        <ele>53.184716</ele>
        <time>2022-12-18T12:17:32.631Z</time>
      </trkpt>
      <trkpt lat="46.6509" lon="-1.89285">
        <ele>53.325679</ele>
        <time>2022-12-18T12:17:35.618Z</time>
      </trkpt>
      <trkpt lat="46.65079" lon="-1.89278">
        <ele>53.50674</ele>
        <time>2022-12-18T12:17:39.633Z</time>
      </trkpt>
      <trkpt lat="46.65068" lon="-1.89272">
        <ele>53.685835</ele>
        <time>2022-12-18T12:17:43.627Z</time>
      </trkpt>
      <trkpt lat="46.65059" lon="-1.89267">
        <ele>53.82968</ele>
        <time>2022-12-18T12:17:46.625Z</time>
      </trkpt>
      <trkpt lat="46.65049" lon="-1.89263">
        <ele>53.983813</ele>
        <time>2022-12-18T12:17:49.636Z</time>
      </trkpt>
      <trkpt lat="46.6504" lon="-1.89257">
        <ele>54.137224</ele>
        <time>2022-12-18T12:17:52.611Z</time>
      </trkpt>
      <trkpt lat="46.65031" lon="-1.89252">
        <ele>54.284962</ele>
        <time>2022-12-18T12:17:55.627Z</time>
      </trkpt>
      <trkpt lat="46.65022" lon="-1.89248">
        <ele>54.424509</ele>
        <time>2022-12-18T12:17:58.628Z</time>
      </trkpt>
      <trkpt lat="46.65013" lon="-1.89244">
        <ele>54.56419</ele>
        <time>2022-12-18T12:18:01.630Z</time>
      </trkpt>
      <trkpt lat="46.65003" lon="-1.89238">
        <ele>54.732195</ele>
        <time>2022-12-18T12:18:05.610Z</time>
      </trkpt>
      <trkpt lat="46.64993" lon="-1.89231">
        <ele>54.90367</ele>
        <time>2022-12-18T12:18:09.628Z</time>
      </trkpt>
      <trkpt lat="46.64981" lon="-1.89226">
        <ele>55.082707</ele>
        <time>2022-12-18T12:18:13.624Z</time>
      </trkpt>
      <trkpt lat="46.64972" lon="-1.8922">
        <ele>55.229413</ele>
        <time>2022-12-18T12:18:16.638Z</time>
      </trkpt>
      <trkpt lat="46.64963" lon="-1.89216">
        <ele>55.41492</ele>
        <time>2022-12-18T12:18:19.626Z</time>
      </trkpt>
      <trkpt lat="46.64954" lon="-1.89211">
        <ele>55.631906</ele>
        <time>2022-12-18T12:18:23.630Z</time>
      </trkpt>
      <trkpt lat="46.64943" lon="-1.89205">
        <ele>55.887701</ele>
        <time>2022-12-18T12:18:27.618Z</time>
      </trkpt>
      <trkpt lat="46.64933" lon="-1.89199">
        <ele>56.141883</ele>
        <time>2022-12-18T12:18:31.619Z</time>
      </trkpt>
      <trkpt lat="46.64922" lon="-1.89193">
        <ele>56.395543</ele>
        <time>2022-12-18T12:18:35.628Z</time>
      </trkpt>
      <trkpt lat="46.64912" lon="-1.89188">
        <ele>56.629849</ele>
        <time>2022-12-18T12:18:39.628Z</time>
      </trkpt>
      <trkpt lat="46.64902" lon="-1.89182">
        <ele>56.878299</ele>
        <time>2022-12-18T12:18:43.628Z</time>
      </trkpt>
      <trkpt lat="46.64891" lon="-1.89176">
        <ele>57.126205</ele>
        <time>2022-12-18T12:18:48.618Z</time>
      </trkpt>
      <trkpt lat="46.64882" lon="-1.89172">
        <ele>57.34744</ele>
        <time>2022-12-18T12:18:52.684Z</time>
      </trkpt>
      <trkpt lat="46.64872" lon="-1.89167">
        <ele>57.582826</ele>
        <time>2022-12-18T12:18:56.607Z</time>
      </trkpt>
      <trkpt lat="46.64862" lon="-1.89163">
        <ele>57.818021</ele>
        <time>2022-12-18T12:19:00.625Z</time>
      </trkpt>
      <trkpt lat="46.64852" lon="-1.89157">
        <ele>58.058054</ele>
        <time>2022-12-18T12:19:04.629Z</time>
      </trkpt>
      <trkpt lat="46.64842" lon="-1.89151">
        <ele>58.292217</ele>
        <time>2022-12-18T12:19:08.616Z</time>
      </trkpt>
      <trkpt lat="46.64832" lon="-1.89145">
        <ele>58.541219</ele>
        <time>2022-12-18T12:19:12.603Z</time>
      </trkpt>
      <trkpt lat="46.64822" lon="-1.89139">
        <ele>58.786499</ele>
        <time>2022-12-18T12:19:16.623Z</time>
      </trkpt>
      <trkpt lat="46.64812" lon="-1.89134">
        <ele>59.023439</ele>
        <time>2022-12-18T12:19:20.602Z</time>
      </trkpt>
      <trkpt lat="46.64801" lon="-1.89128">
        <ele>59.279718</ele>
        <time>2022-12-18T12:19:24.632Z</time>
      </trkpt>
      <trkpt lat="46.64792" lon="-1.89123">
        <ele>59.306742</ele>
        <time>2022-12-18T12:19:27.631Z</time>
      </trkpt>
      <trkpt lat="46.64783" lon="-1.89119">
        <ele>59.304219</ele>
        <time>2022-12-18T12:19:30.627Z</time>
      </trkpt>
      <trkpt lat="46.64775" lon="-1.89115">
        <ele>59.30169</ele>
        <time>2022-12-18T12:19:33.679Z</time>
      </trkpt>
      <trkpt lat="46.64764" lon="-1.89109">
        <ele>59.298508</ele>
        <time>2022-12-18T12:19:37.628Z</time>
      </trkpt>
      <trkpt lat="46.64755" lon="-1.89104">
        <ele>59.296025</ele>
        <time>2022-12-18T12:19:40.628Z</time>
      </trkpt>
      <trkpt lat="46.64746" lon="-1.89099">
        <ele>59.293458</ele>
        <time>2022-12-18T12:19:43.631Z</time>
      </trkpt>
      <trkpt lat="46.64737" lon="-1.89095">
        <ele>59.29091</ele>
        <time>2022-12-18T12:19:46.623Z</time>
      </trkpt>
      <trkpt lat="46.64729" lon="-1.8909">
        <ele>59.28842</ele>
        <time>2022-12-18T12:19:49.672Z</time>
      </trkpt>
      <trkpt lat="46.6472" lon="-1.89086">
        <ele>59.285909</ele>
        <time>2022-12-18T12:19:52.630Z</time>
      </trkpt>
      <trkpt lat="46.64711" lon="-1.89081">
        <ele>59.283188</ele>
        <time>2022-12-18T12:19:55.611Z</time>
      </trkpt>
      <trkpt lat="46.64701" lon="-1.89076">
        <ele>59.280321</ele>
        <time>2022-12-18T12:19:58.630Z</time>
      </trkpt>
      <trkpt lat="46.64691" lon="-1.89071">
        <ele>59.277511</ele>
        <time>2022-12-18T12:20:01.630Z</time>
      </trkpt>
      <trkpt lat="46.64681" lon="-1.89066">
        <ele>59.274676</ele>
        <time>2022-12-18T12:20:04.628Z</time>
      </trkpt>
      <trkpt lat="46.64672" lon="-1.8906">
        <ele>59.271883</ele>
        <time>2022-12-18T12:20:07.621Z</time>
      </trkpt>
      <trkpt lat="46.64663" lon="-1.89055">
        <ele>59.269259</ele>
        <time>2022-12-18T12:20:10.617Z</time>
      </trkpt>
      <trkpt lat="46.64653" lon="-1.89049">
        <ele>59.26643</ele>
        <time>2022-12-18T12:20:14.630Z</time>
      </trkpt>
      <trkpt lat="46.64643" lon="-1.89044">
        <ele>59.263498</ele>
        <time>2022-12-18T12:20:18.631Z</time>
      </trkpt>
      <trkpt lat="46.64634" lon="-1.8904">
        <ele>59.260995</ele>
        <time>2022-12-18T12:20:21.615Z</time>
      </trkpt>
      <trkpt lat="46.64626" lon="-1.89034">
        <ele>59.229</ele>
        <time>2022-12-18T12:20:24.634Z</time>
      </trkpt>
      <trkpt lat="46.64617" lon="-1.89029">
        <ele>59.175793</ele>
        <time>2022-12-18T12:20:27.612Z</time>
      </trkpt>
      <trkpt lat="46.64607" lon="-1.89026">
        <ele>59.119126</ele>
        <time>2022-12-18T12:20:30.601Z</time>
      </trkpt>
      <trkpt lat="46.64596" lon="-1.8902">
        <ele>59.057388</ele>
        <time>2022-12-18T12:20:33.629Z</time>
      </trkpt>
      <trkpt lat="46.64591" lon="-1.89009">
        <ele>59.004345</ele>
        <time>2022-12-18T12:20:36.639Z</time>
      </trkpt>
      <trkpt lat="46.64592" lon="-1.88995">
        <ele>58.949867</ele>
        <time>2022-12-18T12:20:39.629Z</time>
      </trkpt>
      <trkpt lat="46.64591" lon="-1.8898">
        <ele>58.894272</ele>
        <time>2022-12-18T12:20:42.624Z</time>
      </trkpt>
      <trkpt lat="46.64586" lon="-1.88966">
        <ele>58.832645</ele>
        <time>2022-12-18T12:20:45.660Z</time>
      </trkpt>
      <trkpt lat="46.6458" lon="-1.88953">
        <ele>58.772344</ele>
        <time>2022-12-18T12:20:48.609Z</time>
      </trkpt>
      <trkpt lat="46.64573" lon="-1.8894">
        <ele>58.710775</ele>
        <time>2022-12-18T12:20:51.628Z</time>
      </trkpt>
      <trkpt lat="46.64567" lon="-1.88925">
        <ele>58.644091</ele>
        <time>2022-12-18T12:20:54.617Z</time>
      </trkpt>
      <trkpt lat="46.6456" lon="-1.8891">
        <ele>58.574247</ele>
        <time>2022-12-18T12:20:57.611Z</time>
      </trkpt>
      <trkpt lat="46.64556" lon="-1.88898">
        <ele>58.523604</ele>
        <time>2022-12-18T12:20:59.638Z</time>
      </trkpt>
      <trkpt lat="46.64551" lon="-1.88887">
        <ele>58.471829</ele>
        <time>2022-12-18T12:21:01.627Z</time>
      </trkpt>
      <trkpt lat="46.64545" lon="-1.88876">
        <ele>58.419923</ele>
        <time>2022-12-18T12:21:03.674Z</time>
      </trkpt>
      <trkpt lat="46.64539" lon="-1.88866">
        <ele>58.36529</ele>
        <time>2022-12-18T12:21:05.627Z</time>
      </trkpt>
      <trkpt lat="46.64533" lon="-1.88855">
        <ele>58.31291</ele>
        <time>2022-12-18T12:21:07.629Z</time>
      </trkpt>
      <trkpt lat="46.64526" lon="-1.88847">
        <ele>58.262077</ele>
        <time>2022-12-18T12:21:09.632Z</time>
      </trkpt>
      <trkpt lat="46.64516" lon="-1.88835">
        <ele>58.252393</ele>
        <time>2022-12-18T12:21:12.629Z</time>
      </trkpt>
      <trkpt lat="46.64506" lon="-1.88825">
        <ele>58.248272</ele>
        <time>2022-12-18T12:21:15.623Z</time>
      </trkpt>
      <trkpt lat="46.64498" lon="-1.88816">
        <ele>58.244616</ele>
        <time>2022-12-18T12:21:18.629Z</time>
      </trkpt>
      <trkpt lat="46.64489" lon="-1.88807">
        <ele>58.240612</ele>
        <time>2022-12-18T12:21:21.603Z</time>
      </trkpt>
      <trkpt lat="46.6448" lon="-1.88796">
        <ele>58.236483</ele>
        <time>2022-12-18T12:21:24.604Z</time>
      </trkpt>
      <trkpt lat="46.64471" lon="-1.88785">
        <ele>58.232145</ele>
        <time>2022-12-18T12:21:27.601Z</time>
      </trkpt>
      <trkpt lat="46.64461" lon="-1.88774">
        <ele>58.227833</ele>
        <time>2022-12-18T12:21:30.619Z</time>
      </trkpt>
      <trkpt lat="46.64452" lon="-1.88763">
        <ele>58.22358</ele>
        <time>2022-12-18T12:21:33.604Z</time>
      </trkpt>
      <trkpt lat="46.64444" lon="-1.88752">
        <ele>58.219486</ele>
        <time>2022-12-18T12:21:36.641Z</time>
      </trkpt>
      <trkpt lat="46.64436" lon="-1.8874">
        <ele>58.215414</ele>
        <time>2022-12-18T12:21:39.626Z</time>
      </trkpt>
      <trkpt lat="46.64429" lon="-1.88728">
        <ele>58.211415</ele>
        <time>2022-12-18T12:21:42.622Z</time>
      </trkpt>
      <trkpt lat="46.64421" lon="-1.88716">
        <ele>58.20735</ele>
        <time>2022-12-18T12:21:45.612Z</time>
      </trkpt>
      <trkpt lat="46.64414" lon="-1.88703">
        <ele>58.203345</ele>
        <time>2022-12-18T12:21:48.626Z</time>
      </trkpt>
      <trkpt lat="46.64407" lon="-1.88689">
        <ele>58.199191</ele>
        <time>2022-12-18T12:21:51.630Z</time>
      </trkpt>
      <trkpt lat="46.64401" lon="-1.88677">
        <ele>58.195268</ele>
        <time>2022-12-18T12:21:54.615Z</time>
      </trkpt>
      <trkpt lat="46.64394" lon="-1.88664">
        <ele>58.193722</ele>
        <time>2022-12-18T12:21:57.674Z</time>
      </trkpt>
      <trkpt lat="46.64388" lon="-1.88651">
        <ele>58.202495</ele>
        <time>2022-12-18T12:22:00.629Z</time>
      </trkpt>
      <trkpt lat="46.64381" lon="-1.88638">
        <ele>58.211472</ele>
        <time>2022-12-18T12:22:03.628Z</time>
      </trkpt>
      <trkpt lat="46.64375" lon="-1.88626">
        <ele>58.220106</ele>
        <time>2022-12-18T12:22:06.633Z</time>
      </trkpt>
      <trkpt lat="46.64369" lon="-1.88615">
        <ele>58.227656</ele>
        <time>2022-12-18T12:22:09.606Z</time>
      </trkpt>
      <trkpt lat="46.64363" lon="-1.88602">
        <ele>58.236652</ele>
        <time>2022-12-18T12:22:13.626Z</time>
      </trkpt>
      <trkpt lat="46.64357" lon="-1.88591">
        <ele>58.243967</ele>
        <time>2022-12-18T12:22:16.618Z</time>
      </trkpt>
      <trkpt lat="46.64352" lon="-1.8858">
        <ele>58.251501</ele>
        <time>2022-12-18T12:22:19.720Z</time>
      </trkpt>
      <trkpt lat="46.64346" lon="-1.88569">
        <ele>58.259145</ele>
        <time>2022-12-18T12:22:22.625Z</time>
      </trkpt>
      <trkpt lat="46.6434" lon="-1.88558">
        <ele>58.266915</ele>
        <time>2022-12-18T12:22:25.611Z</time>
      </trkpt>
      <trkpt lat="46.64334" lon="-1.88546">
        <ele>58.274819</ele>
        <time>2022-12-18T12:22:28.638Z</time>
      </trkpt>
      <trkpt lat="46.64329" lon="-1.88535">
        <ele>58.28281</ele>
        <time>2022-12-18T12:22:31.627Z</time>
      </trkpt>
      <trkpt lat="46.64321" lon="-1.88522">
        <ele>58.292099</ele>
        <time>2022-12-18T12:22:35.631Z</time>
      </trkpt>
      <trkpt lat="46.64315" lon="-1.88508">
        <ele>58.301283</ele>
        <time>2022-12-18T12:22:39.631Z</time>
      </trkpt>
      <trkpt lat="46.64309" lon="-1.88495">
        <ele>58.309822</ele>
        <time>2022-12-18T12:22:43.635Z</time>
      </trkpt>
      <trkpt lat="46.64303" lon="-1.88484">
        <ele>58.317965</ele>
        <time>2022-12-18T12:22:47.640Z</time>
      </trkpt>
      <trkpt lat="46.64296" lon="-1.8847">
        <ele>58.327097</ele>
        <time>2022-12-18T12:22:51.635Z</time>
      </trkpt>
      <trkpt lat="46.6429" lon="-1.8846">
        <ele>58.334423</ele>
        <time>2022-12-18T12:22:54.624Z</time>
      </trkpt>
      <trkpt lat="46.64284" lon="-1.88448">
        <ele>58.366493</ele>
        <time>2022-12-18T12:22:57.676Z</time>
      </trkpt>
      <trkpt lat="46.64278" lon="-1.88436">
        <ele>58.414069</ele>
        <time>2022-12-18T12:23:00.612Z</time>
      </trkpt>
      <trkpt lat="46.64271" lon="-1.88423">
        <ele>58.461622</ele>
        <time>2022-12-18T12:23:03.606Z</time>
      </trkpt>
      <trkpt lat="46.64264" lon="-1.88411">
        <ele>58.509629</ele>
        <time>2022-12-18T12:23:06.639Z</time>
      </trkpt>
      <trkpt lat="46.64258" lon="-1.88399">
        <ele>58.556406</ele>
        <time>2022-12-18T12:23:09.617Z</time>
      </trkpt>
      <trkpt lat="46.64252" lon="-1.88387">
        <ele>58.600498</ele>
        <time>2022-12-18T12:23:12.628Z</time>
      </trkpt>
      <trkpt lat="46.64246" lon="-1.88375">
        <ele>58.646957</ele>
        <time>2022-12-18T12:23:15.607Z</time>
      </trkpt>
      <trkpt lat="46.64239" lon="-1.88363">
        <ele>58.695345</ele>
        <time>2022-12-18T12:23:18.616Z</time>
      </trkpt>
      <trkpt lat="46.64232" lon="-1.8835">
        <ele>58.742392</ele>
        <time>2022-12-18T12:23:21.607Z</time>
      </trkpt>
      <trkpt lat="46.64226" lon="-1.88338">
        <ele>58.788225</ele>
        <time>2022-12-18T12:23:24.630Z</time>
      </trkpt>
      <trkpt lat="46.6422" lon="-1.88326">
        <ele>58.833549</ele>
        <time>2022-12-18T12:23:27.627Z</time>
      </trkpt>
      <trkpt lat="46.64214" lon="-1.88313">
        <ele>58.882076</ele>
        <time>2022-12-18T12:23:30.627Z</time>
      </trkpt>
      <trkpt lat="46.64207" lon="-1.883">
        <ele>58.933405</ele>
        <time>2022-12-18T12:23:33.607Z</time>
      </trkpt>
      <trkpt lat="46.642" lon="-1.88286">
        <ele>58.984733</ele>
        <time>2022-12-18T12:23:36.610Z</time>
      </trkpt>
      <trkpt lat="46.64193" lon="-1.88274">
        <ele>59.032552</ele>
        <time>2022-12-18T12:23:39.632Z</time>
      </trkpt>
      <trkpt lat="46.64188" lon="-1.88261">
        <ele>59.077088</ele>
        <time>2022-12-18T12:23:42.617Z</time>
      </trkpt>
      <trkpt lat="46.64182" lon="-1.88248">
        <ele>59.124144</ele>
        <time>2022-12-18T12:23:45.627Z</time>
      </trkpt>
      <trkpt lat="46.64176" lon="-1.88235">
        <ele>59.202429</ele>
        <time>2022-12-18T12:23:48.630Z</time>
      </trkpt>
      <trkpt lat="46.64171" lon="-1.88222">
        <ele>59.279107</ele>
        <time>2022-12-18T12:23:51.637Z</time>
      </trkpt>
      <trkpt lat="46.64165" lon="-1.8821">
        <ele>59.355696</ele>
        <time>2022-12-18T12:23:54.640Z</time>
      </trkpt>
      <trkpt lat="46.64158" lon="-1.88197">
        <ele>59.439562</ele>
        <time>2022-12-18T12:23:57.633Z</time>
      </trkpt>
      <trkpt lat="46.64151" lon="-1.88184">
        <ele>59.525157</ele>
        <time>2022-12-18T12:24:00.613Z</time>
      </trkpt>
      <trkpt lat="46.64145" lon="-1.88171">
        <ele>59.608547</ele>
        <time>2022-12-18T12:24:03.631Z</time>
      </trkpt>
      <trkpt lat="46.64138" lon="-1.88158">
        <ele>59.690644</ele>
        <time>2022-12-18T12:24:06.630Z</time>
      </trkpt>
      <trkpt lat="46.64132" lon="-1.88146">
        <ele>59.768173</ele>
        <time>2022-12-18T12:24:09.636Z</time>
      </trkpt>
      <trkpt lat="46.64126" lon="-1.88133">
        <ele>59.847761</ele>
        <time>2022-12-18T12:24:12.623Z</time>
      </trkpt>
      <trkpt lat="46.6412" lon="-1.88121">
        <ele>59.926874</ele>
        <time>2022-12-18T12:24:15.626Z</time>
      </trkpt>
      <trkpt lat="46.64113" lon="-1.88109">
        <ele>60.0058</ele>
        <time>2022-12-18T12:24:19.628Z</time>
      </trkpt>
      <trkpt lat="46.64107" lon="-1.88097">
        <ele>60.080234</ele>
        <time>2022-12-18T12:24:23.626Z</time>
      </trkpt>
      <trkpt lat="46.64101" lon="-1.88083">
        <ele>60.168706</ele>
        <time>2022-12-18T12:24:27.608Z</time>
      </trkpt>
      <trkpt lat="46.64095" lon="-1.88072">
        <ele>60.24019</ele>
        <time>2022-12-18T12:24:30.630Z</time>
      </trkpt>
      <trkpt lat="46.6409" lon="-1.8806">
        <ele>60.312119</ele>
        <time>2022-12-18T12:24:33.633Z</time>
      </trkpt>
      <trkpt lat="46.64084" lon="-1.88049">
        <ele>60.384009</ele>
        <time>2022-12-18T12:24:36.630Z</time>
      </trkpt>
      <trkpt lat="46.64078" lon="-1.88037">
        <ele>60.457664</ele>
        <time>2022-12-18T12:24:39.632Z</time>
      </trkpt>
      <trkpt lat="46.64072" lon="-1.88026">
        <ele>60.571263</ele>
        <time>2022-12-18T12:24:42.634Z</time>
      </trkpt>
      <trkpt lat="46.64067" lon="-1.88014">
        <ele>60.698201</ele>
        <time>2022-12-18T12:24:45.629Z</time>
      </trkpt>
      <trkpt lat="46.64061" lon="-1.88003">
        <ele>60.827357</ele>
        <time>2022-12-18T12:24:48.637Z</time>
      </trkpt>
      <trkpt lat="46.64056" lon="-1.87989">
        <ele>60.978058</ele>
        <time>2022-12-18T12:24:52.628Z</time>
      </trkpt>
      <trkpt lat="46.64051" lon="-1.87977">
        <ele>61.099799</ele>
        <time>2022-12-18T12:24:55.694Z</time>
      </trkpt>
      <trkpt lat="46.64046" lon="-1.87966">
        <ele>61.223202</ele>
        <time>2022-12-18T12:24:58.628Z</time>
      </trkpt>
      <trkpt lat="46.64041" lon="-1.87954">
        <ele>61.349547</ele>
        <time>2022-12-18T12:25:01.606Z</time>
      </trkpt>
      <trkpt lat="46.64037" lon="-1.87941">
        <ele>61.477294</ele>
        <time>2022-12-18T12:25:04.622Z</time>
      </trkpt>
      <trkpt lat="46.64033" lon="-1.87928">
        <ele>61.612847</ele>
        <time>2022-12-18T12:25:07.612Z</time>
      </trkpt>
      <trkpt lat="46.64029" lon="-1.87914">
        <ele>61.751983</ele>
        <time>2022-12-18T12:25:10.630Z</time>
      </trkpt>
      <trkpt lat="46.64025" lon="-1.87899">
        <ele>61.893708</ele>
        <time>2022-12-18T12:25:13.630Z</time>
      </trkpt>
      <trkpt lat="46.64021" lon="-1.87886">
        <ele>62.028741</ele>
        <time>2022-12-18T12:25:16.618Z</time>
      </trkpt>
      <trkpt lat="46.64017" lon="-1.87873">
        <ele>62.160095</ele>
        <time>2022-12-18T12:25:19.629Z</time>
      </trkpt>
      <trkpt lat="46.64013" lon="-1.87859">
        <ele>62.293667</ele>
        <time>2022-12-18T12:25:22.620Z</time>
      </trkpt>
      <trkpt lat="46.6401" lon="-1.87846">
        <ele>62.428919</ele>
        <time>2022-12-18T12:25:25.624Z</time>
      </trkpt>
      <trkpt lat="46.64005" lon="-1.87831">
        <ele>62.571948</ele>
        <time>2022-12-18T12:25:28.604Z</time>
      </trkpt>
      <trkpt lat="46.64001" lon="-1.87817">
        <ele>62.712571</ele>
        <time>2022-12-18T12:25:31.635Z</time>
      </trkpt>
      <trkpt lat="46.63997" lon="-1.87803">
        <ele>62.858083</ele>
        <time>2022-12-18T12:25:34.618Z</time>
      </trkpt>
      <trkpt lat="46.63992" lon="-1.87789">
        <ele>62.806412</ele>
        <time>2022-12-18T12:25:37.610Z</time>
      </trkpt>
      <trkpt lat="46.63988" lon="-1.87774">
        <ele>62.707397</ele>
        <time>2022-12-18T12:25:41.620Z</time>
      </trkpt>
      <trkpt lat="46.63984" lon="-1.87761">
        <ele>62.624203</ele>
        <time>2022-12-18T12:25:44.628Z</time>
      </trkpt>
      <trkpt lat="46.6398" lon="-1.87748">
        <ele>62.537868</ele>
        <time>2022-12-18T12:25:47.630Z</time>
      </trkpt>
      <trkpt lat="46.63975" lon="-1.87735">
        <ele>62.443861</ele>
        <time>2022-12-18T12:25:50.633Z</time>
      </trkpt>
      <trkpt lat="46.6397" lon="-1.87721">
        <ele>62.348163</ele>
        <time>2022-12-18T12:25:53.628Z</time>
      </trkpt>
      <trkpt lat="46.63965" lon="-1.87706">
        <ele>62.247931</ele>
        <time>2022-12-18T12:25:56.618Z</time>
      </trkpt>
      <trkpt lat="46.63959" lon="-1.87692">
        <ele>62.148612</ele>
        <time>2022-12-18T12:25:59.616Z</time>
      </trkpt>
      <trkpt lat="46.63954" lon="-1.87677">
        <ele>62.044322</ele>
        <time>2022-12-18T12:26:02.635Z</time>
      </trkpt>
      <trkpt lat="46.63949" lon="-1.87661">
        <ele>61.936593</ele>
        <time>2022-12-18T12:26:05.609Z</time>
      </trkpt>
      <trkpt lat="46.63943" lon="-1.87645">
        <ele>61.828924</ele>
        <time>2022-12-18T12:26:08.613Z</time>
      </trkpt>
      <trkpt lat="46.63938" lon="-1.87628">
        <ele>61.718804</ele>
        <time>2022-12-18T12:26:11.631Z</time>
      </trkpt>
      <trkpt lat="46.63933" lon="-1.87612">
        <ele>61.610144</ele>
        <time>2022-12-18T12:26:14.620Z</time>
      </trkpt>
      <trkpt lat="46.63927" lon="-1.87596">
        <ele>61.499615</ele>
        <time>2022-12-18T12:26:17.626Z</time>
      </trkpt>
      <trkpt lat="46.63922" lon="-1.87579">
        <ele>61.388204</ele>
        <time>2022-12-18T12:26:20.607Z</time>
      </trkpt>
      <trkpt lat="46.63917" lon="-1.87563">
        <ele>61.291588</ele>
        <time>2022-12-18T12:26:23.627Z</time>
      </trkpt>
      <trkpt lat="46.63912" lon="-1.87548">
        <ele>61.311985</ele>
        <time>2022-12-18T12:26:26.613Z</time>
      </trkpt>
      <trkpt lat="46.63907" lon="-1.87535">
        <ele>61.330321</ele>
        <time>2022-12-18T12:26:29.634Z</time>
      </trkpt>
      <trkpt lat="46.63903" lon="-1.8752">
        <ele>61.350112</ele>
        <time>2022-12-18T12:26:32.624Z</time>
      </trkpt>
      <trkpt lat="46.63898" lon="-1.87505">
        <ele>61.371144</ele>
        <time>2022-12-18T12:26:35.631Z</time>
      </trkpt>
      <trkpt lat="46.63892" lon="-1.8749">
        <ele>61.392528</ele>
        <time>2022-12-18T12:26:38.628Z</time>
      </trkpt>
      <trkpt lat="46.63887" lon="-1.87475">
        <ele>61.413448</ele>
        <time>2022-12-18T12:26:41.634Z</time>
      </trkpt>
      <trkpt lat="46.63881" lon="-1.87461">
        <ele>61.434045</ele>
        <time>2022-12-18T12:26:44.608Z</time>
      </trkpt>
      <trkpt lat="46.63874" lon="-1.87448">
        <ele>61.454463</ele>
        <time>2022-12-18T12:26:47.672Z</time>
      </trkpt>
      <trkpt lat="46.63866" lon="-1.87436">
        <ele>61.474409</ele>
        <time>2022-12-18T12:26:50.610Z</time>
      </trkpt>
      <trkpt lat="46.63858" lon="-1.87424">
        <ele>61.495058</ele>
        <time>2022-12-18T12:26:53.641Z</time>
      </trkpt>
      <trkpt lat="46.6385" lon="-1.87412">
        <ele>61.516602</ele>
        <time>2022-12-18T12:26:56.628Z</time>
      </trkpt>
      <trkpt lat="46.6384" lon="-1.874">
        <ele>61.538736</ele>
        <time>2022-12-18T12:26:59.608Z</time>
      </trkpt>
      <trkpt lat="46.63831" lon="-1.87388">
        <ele>61.560581</ele>
        <time>2022-12-18T12:27:02.623Z</time>
      </trkpt>
      <trkpt lat="46.63823" lon="-1.87376">
        <ele>61.582125</ele>
        <time>2022-12-18T12:27:05.609Z</time>
      </trkpt>
      <trkpt lat="46.63814" lon="-1.87365">
        <ele>61.602471</ele>
        <time>2022-12-18T12:27:08.633Z</time>
      </trkpt>
      <trkpt lat="46.63806" lon="-1.87354">
        <ele>61.588239</ele>
        <time>2022-12-18T12:27:11.617Z</time>
      </trkpt>
      <trkpt lat="46.63799" lon="-1.87341">
        <ele>61.528449</ele>
        <time>2022-12-18T12:27:14.619Z</time>
      </trkpt>
      <trkpt lat="46.63793" lon="-1.87326">
        <ele>61.467359</ele>
        <time>2022-12-18T12:27:17.628Z</time>
      </trkpt>
      <trkpt lat="46.63787" lon="-1.8731">
        <ele>61.401513</ele>
        <time>2022-12-18T12:27:20.633Z</time>
      </trkpt>
      <trkpt lat="46.63783" lon="-1.87292">
        <ele>61.333996</ele>
        <time>2022-12-18T12:27:23.609Z</time>
      </trkpt>
      <trkpt lat="46.63781" lon="-1.87273">
        <ele>61.26652</ele>
        <time>2022-12-18T12:27:26.625Z</time>
      </trkpt>
      <trkpt lat="46.63778" lon="-1.87254">
        <ele>61.196517</ele>
        <time>2022-12-18T12:27:29.607Z</time>
      </trkpt>
      <trkpt lat="46.63778" lon="-1.8724">
        <ele>61.145952</ele>
        <time>2022-12-18T12:27:31.614Z</time>
      </trkpt>
      <trkpt lat="46.63778" lon="-1.87227">
        <ele>61.099287</ele>
        <time>2022-12-18T12:27:33.634Z</time>
      </trkpt>
      <trkpt lat="46.63778" lon="-1.87213">
        <ele>61.051934</ele>
        <time>2022-12-18T12:27:35.630Z</time>
      </trkpt>
      <trkpt lat="46.63777" lon="-1.87195">
        <ele>60.986353</ele>
        <time>2022-12-18T12:27:38.640Z</time>
      </trkpt>
      <trkpt lat="46.63777" lon="-1.87177">
        <ele>60.92298</ele>
        <time>2022-12-18T12:27:41.627Z</time>
      </trkpt>
      <trkpt lat="46.63777" lon="-1.8716">
        <ele>60.862793</ele>
        <time>2022-12-18T12:27:44.621Z</time>
      </trkpt>
      <trkpt lat="46.63777" lon="-1.87144">
        <ele>60.805821</ele>
        <time>2022-12-18T12:27:47.640Z</time>
      </trkpt>
      <trkpt lat="46.63776" lon="-1.87127">
        <ele>60.744012</ele>
        <time>2022-12-18T12:27:50.633Z</time>
      </trkpt>
      <trkpt lat="46.63775" lon="-1.87113">
        <ele>60.69537</ele>
        <time>2022-12-18T12:27:52.624Z</time>
      </trkpt>
      <trkpt lat="46.63774" lon="-1.87099">
        <ele>60.60929</ele>
        <time>2022-12-18T12:27:54.611Z</time>
      </trkpt>
      <trkpt lat="46.63772" lon="-1.87085">
        <ele>60.504316</ele>
        <time>2022-12-18T12:27:56.628Z</time>
      </trkpt>
      <trkpt lat="46.6377" lon="-1.8707">
        <ele>60.389878</ele>
        <time>2022-12-18T12:27:58.629Z</time>
      </trkpt>
      <trkpt lat="46.63768" lon="-1.87054">
        <ele>60.272583</ele>
        <time>2022-12-18T12:28:00.629Z</time>
      </trkpt>
      <trkpt lat="46.63765" lon="-1.87039">
        <ele>60.159337</ele>
        <time>2022-12-18T12:28:02.682Z</time>
      </trkpt>
      <trkpt lat="46.63763" lon="-1.87024">
        <ele>60.042045</ele>
        <time>2022-12-18T12:28:04.643Z</time>
      </trkpt>
      <trkpt lat="46.6376" lon="-1.87008">
        <ele>59.928553</ele>
        <time>2022-12-18T12:28:06.635Z</time>
      </trkpt>
      <trkpt lat="46.63758" lon="-1.86993">
        <ele>59.810084</ele>
        <time>2022-12-18T12:28:08.633Z</time>
      </trkpt>
      <trkpt lat="46.63755" lon="-1.86978">
        <ele>59.699211</ele>
        <time>2022-12-18T12:28:10.631Z</time>
      </trkpt>
      <trkpt lat="46.63753" lon="-1.86962">
        <ele>59.584059</ele>
        <time>2022-12-18T12:28:12.622Z</time>
      </trkpt>
      <trkpt lat="46.63751" lon="-1.86947">
        <ele>59.467963</ele>
        <time>2022-12-18T12:28:14.606Z</time>
      </trkpt>
      <trkpt lat="46.63749" lon="-1.86932">
        <ele>59.357356</ele>
        <time>2022-12-18T12:28:16.633Z</time>
      </trkpt>
      <trkpt lat="46.63748" lon="-1.86917">
        <ele>59.247016</ele>
        <time>2022-12-18T12:28:18.628Z</time>
      </trkpt>
      <trkpt lat="46.63747" lon="-1.86903">
        <ele>59.142718</ele>
        <time>2022-12-18T12:28:20.628Z</time>
      </trkpt>
      <trkpt lat="46.63746" lon="-1.86888">
        <ele>59.032702</ele>
        <time>2022-12-18T12:28:22.631Z</time>
      </trkpt>
      <trkpt lat="46.63745" lon="-1.86873">
        <ele>58.925133</ele>
        <time>2022-12-18T12:28:24.680Z</time>
      </trkpt>
      <trkpt lat="46.63745" lon="-1.86859">
        <ele>58.822791</ele>
        <time>2022-12-18T12:28:26.613Z</time>
      </trkpt>
      <trkpt lat="46.63744" lon="-1.8684">
        <ele>58.860868</ele>
        <time>2022-12-18T12:28:29.630Z</time>
      </trkpt>
      <trkpt lat="46.63743" lon="-1.86826">
        <ele>58.967081</ele>
        <time>2022-12-18T12:28:31.630Z</time>
      </trkpt>
      <trkpt lat="46.63742" lon="-1.86813">
        <ele>59.07603</ele>
        <time>2022-12-18T12:28:33.625Z</time>
      </trkpt>
      <trkpt lat="46.63742" lon="-1.86799">
        <ele>59.186924</ele>
        <time>2022-12-18T12:28:35.612Z</time>
      </trkpt>
      <trkpt lat="46.63742" lon="-1.86785">
        <ele>59.299507</ele>
        <time>2022-12-18T12:28:37.631Z</time>
      </trkpt>
      <trkpt lat="46.63741" lon="-1.86771">
        <ele>59.410401</ele>
        <time>2022-12-18T12:28:39.649Z</time>
      </trkpt>
      <trkpt lat="46.63741" lon="-1.86758">
        <ele>59.516614</ele>
        <time>2022-12-18T12:28:41.688Z</time>
      </trkpt>
      <trkpt lat="46.6374" lon="-1.86744">
        <ele>59.623075</ele>
        <time>2022-12-18T12:28:43.622Z</time>
      </trkpt>
      <trkpt lat="46.63738" lon="-1.86731">
        <ele>59.734301</ele>
        <time>2022-12-18T12:28:45.623Z</time>
      </trkpt>
      <trkpt lat="46.63733" lon="-1.86713">
        <ele>59.886481</ele>
        <time>2022-12-18T12:28:48.632Z</time>
      </trkpt>
      <trkpt lat="46.63727" lon="-1.86699">
        <ele>60.019995</ele>
        <time>2022-12-18T12:28:51.624Z</time>
      </trkpt>
      <trkpt lat="46.6372" lon="-1.86687">
        <ele>60.149802</ele>
        <time>2022-12-18T12:28:54.628Z</time>
      </trkpt>
      <trkpt lat="46.6371" lon="-1.86679">
        <ele>60.27865</ele>
        <time>2022-12-18T12:28:57.609Z</time>
      </trkpt>
      <trkpt lat="46.63701" lon="-1.8667">
        <ele>60.405951</ele>
        <time>2022-12-18T12:29:00.632Z</time>
      </trkpt>
      <trkpt lat="46.63692" lon="-1.86662">
        <ele>60.530325</ele>
        <time>2022-12-18T12:29:03.629Z</time>
      </trkpt>
      <trkpt lat="46.63682" lon="-1.86655">
        <ele>60.653783</ele>
        <time>2022-12-18T12:29:06.610Z</time>
      </trkpt>
      <trkpt lat="46.63673" lon="-1.86648">
        <ele>60.776858</ele>
        <time>2022-12-18T12:29:09.617Z</time>
      </trkpt>
      <trkpt lat="46.63664" lon="-1.8664">
        <ele>60.786418</ele>
        <time>2022-12-18T12:29:12.622Z</time>
      </trkpt>
      <trkpt lat="46.63655" lon="-1.86633">
        <ele>60.57512</ele>
        <time>2022-12-18T12:29:15.626Z</time>
      </trkpt>
      <trkpt lat="46.63646" lon="-1.86625">
        <ele>60.364211</ele>
        <time>2022-12-18T12:29:18.630Z</time>
      </trkpt>
      <trkpt lat="46.63637" lon="-1.86617">
        <ele>60.154636</ele>
        <time>2022-12-18T12:29:21.629Z</time>
      </trkpt>
      <trkpt lat="46.63628" lon="-1.86609">
        <ele>59.949395</ele>
        <time>2022-12-18T12:29:24.604Z</time>
      </trkpt>
      <trkpt lat="46.63619" lon="-1.866">
        <ele>59.744331</ele>
        <time>2022-12-18T12:29:27.606Z</time>
      </trkpt>
      <trkpt lat="46.6361" lon="-1.86591">
        <ele>59.52981</ele>
        <time>2022-12-18T12:29:30.633Z</time>
      </trkpt>
      <trkpt lat="46.63601" lon="-1.86582">
        <ele>59.308759</ele>
        <time>2022-12-18T12:29:33.629Z</time>
      </trkpt>
      <trkpt lat="46.63592" lon="-1.86573">
        <ele>59.079419</ele>
        <time>2022-12-18T12:29:36.631Z</time>
      </trkpt>
      <trkpt lat="46.63581" lon="-1.86565">
        <ele>58.845155</ele>
        <time>2022-12-18T12:29:39.631Z</time>
      </trkpt>
      <trkpt lat="46.63571" lon="-1.86557">
        <ele>58.615053</ele>
        <time>2022-12-18T12:29:42.620Z</time>
      </trkpt>
      <trkpt lat="46.6356" lon="-1.86552">
        <ele>58.387642</ele>
        <time>2022-12-18T12:29:45.629Z</time>
      </trkpt>
      <trkpt lat="46.63549" lon="-1.86547">
        <ele>58.16239</ele>
        <time>2022-12-18T12:29:48.631Z</time>
      </trkpt>
      <trkpt lat="46.63539" lon="-1.86542">
        <ele>57.941341</ele>
        <time>2022-12-18T12:29:51.633Z</time>
      </trkpt>
      <trkpt lat="46.63527" lon="-1.86538">
        <ele>57.710767</ele>
        <time>2022-12-18T12:29:54.629Z</time>
      </trkpt>
      <trkpt lat="46.63516" lon="-1.86533">
        <ele>57.468787</ele>
        <time>2022-12-18T12:29:57.626Z</time>
      </trkpt>
      <trkpt lat="46.63504" lon="-1.86529">
        <ele>57.256332</ele>
        <time>2022-12-18T12:30:00.634Z</time>
      </trkpt>
      <trkpt lat="46.63493" lon="-1.86523">
        <ele>57.149731</ele>
        <time>2022-12-18T12:30:03.604Z</time>
      </trkpt>
      <trkpt lat="46.63483" lon="-1.86516">
        <ele>57.047408</ele>
        <time>2022-12-18T12:30:06.647Z</time>
      </trkpt>
      <trkpt lat="46.63474" lon="-1.86508">
        <ele>56.953705</ele>
        <time>2022-12-18T12:30:09.638Z</time>
      </trkpt>
      <trkpt lat="46.63465" lon="-1.86496">
        <ele>56.843394</ele>
        <time>2022-12-18T12:30:12.607Z</time>
      </trkpt>
      <trkpt lat="46.63456" lon="-1.86481">
        <ele>56.72221</ele>
        <time>2022-12-18T12:30:15.627Z</time>
      </trkpt>
      <trkpt lat="46.63452" lon="-1.8647">
        <ele>56.639944</ele>
        <time>2022-12-18T12:30:17.629Z</time>
      </trkpt>
      <trkpt lat="46.63448" lon="-1.86457">
        <ele>56.553623</ele>
        <time>2022-12-18T12:30:19.634Z</time>
      </trkpt>
      <trkpt lat="46.63444" lon="-1.86444">
        <ele>56.463707</ele>
        <time>2022-12-18T12:30:21.628Z</time>
      </trkpt>
      <trkpt lat="46.63441" lon="-1.8643">
        <ele>56.372937</ele>
        <time>2022-12-18T12:30:23.629Z</time>
      </trkpt>
      <trkpt lat="46.63438" lon="-1.86416">
        <ele>56.280091</ele>
        <time>2022-12-18T12:30:25.627Z</time>
      </trkpt>
      <trkpt lat="46.63434" lon="-1.86402">
        <ele>56.188023</ele>
        <time>2022-12-18T12:30:27.626Z</time>
      </trkpt>
      <trkpt lat="46.6343" lon="-1.86388">
        <ele>56.092267</ele>
        <time>2022-12-18T12:30:29.631Z</time>
      </trkpt>
      <trkpt lat="46.63425" lon="-1.86375">
        <ele>55.997669</ele>
        <time>2022-12-18T12:30:31.642Z</time>
      </trkpt>
      <trkpt lat="46.63419" lon="-1.86362">
        <ele>55.903097</ele>
        <time>2022-12-18T12:30:33.696Z</time>
      </trkpt>
      <trkpt lat="46.63412" lon="-1.8635">
        <ele>55.804394</ele>
        <time>2022-12-18T12:30:35.626Z</time>
      </trkpt>
      <trkpt lat="46.63405" lon="-1.8634">
        <ele>55.716058</ele>
        <time>2022-12-18T12:30:37.610Z</time>
      </trkpt>
      <trkpt lat="46.63398" lon="-1.8633">
        <ele>55.695187</ele>
        <time>2022-12-18T12:30:39.641Z</time>
      </trkpt>
      <trkpt lat="46.6339" lon="-1.86321">
        <ele>55.882444</ele>
        <time>2022-12-18T12:30:41.637Z</time>
      </trkpt>
      <trkpt lat="46.63382" lon="-1.86312">
        <ele>56.072506</ele>
        <time>2022-12-18T12:30:43.638Z</time>
      </trkpt>
      <trkpt lat="46.63375" lon="-1.86302">
        <ele>56.256036</ele>
        <time>2022-12-18T12:30:45.642Z</time>
      </trkpt>
      <trkpt lat="46.63364" lon="-1.8629">
        <ele>56.511948</ele>
        <time>2022-12-18T12:30:48.628Z</time>
      </trkpt>
      <trkpt lat="46.63354" lon="-1.8628">
        <ele>56.753418</ele>
        <time>2022-12-18T12:30:51.616Z</time>
      </trkpt>
      <trkpt lat="46.63344" lon="-1.86271">
        <ele>56.966459</ele>
        <time>2022-12-18T12:30:54.632Z</time>
      </trkpt>
      <trkpt lat="46.63336" lon="-1.86263">
        <ele>57.15967</ele>
        <time>2022-12-18T12:30:57.611Z</time>
      </trkpt>
      <trkpt lat="46.63327" lon="-1.86255">
        <ele>57.348161</ele>
        <time>2022-12-18T12:31:00.613Z</time>
      </trkpt>
      <trkpt lat="46.63319" lon="-1.86248">
        <ele>57.529873</ele>
        <time>2022-12-18T12:31:03.623Z</time>
      </trkpt>
      <trkpt lat="46.63312" lon="-1.8624">
        <ele>57.702273</ele>
        <time>2022-12-18T12:31:06.630Z</time>
      </trkpt>
      <trkpt lat="46.63303" lon="-1.86231">
        <ele>57.913864</ele>
        <time>2022-12-18T12:31:10.611Z</time>
      </trkpt>
      <trkpt lat="46.63292" lon="-1.86226">
        <ele>58.11997</ele>
        <time>2022-12-18T12:31:14.619Z</time>
      </trkpt>
      <trkpt lat="46.63286" lon="-1.86214">
        <ele>58.313781</ele>
        <time>2022-12-18T12:31:18.627Z</time>
      </trkpt>
      <trkpt lat="46.63284" lon="-1.86199">
        <ele>58.515037</ele>
        <time>2022-12-18T12:31:22.638Z</time>
      </trkpt>
      <trkpt lat="46.63281" lon="-1.86186">
        <ele>58.693047</ele>
        <time>2022-12-18T12:31:25.623Z</time>
      </trkpt>
      <trkpt lat="46.63278" lon="-1.86173">
        <ele>58.865575</ele>
        <time>2022-12-18T12:31:28.641Z</time>
      </trkpt>
      <trkpt lat="46.63275" lon="-1.86161">
        <ele>59.037284</ele>
        <time>2022-12-18T12:31:31.616Z</time>
      </trkpt>
      <trkpt lat="46.63271" lon="-1.86149">
        <ele>59.064676</ele>
        <time>2022-12-18T12:31:34.630Z</time>
      </trkpt>
      <trkpt lat="46.63267" lon="-1.86136">
        <ele>59.07356</ele>
        <time>2022-12-18T12:31:37.625Z</time>
      </trkpt>
      <trkpt lat="46.63262" lon="-1.86125">
        <ele>59.082556</ele>
        <time>2022-12-18T12:31:40.613Z</time>
      </trkpt>
      <trkpt lat="46.63257" lon="-1.86113">
        <ele>59.09131</ele>
        <time>2022-12-18T12:31:43.614Z</time>
      </trkpt>
      <trkpt lat="46.63252" lon="-1.86103">
        <ele>59.100068</ele>
        <time>2022-12-18T12:31:46.608Z</time>
      </trkpt>
      <trkpt lat="46.63247" lon="-1.86092">
        <ele>59.108658</ele>
        <time>2022-12-18T12:31:49.661Z</time>
      </trkpt>
      <trkpt lat="46.63241" lon="-1.86081">
        <ele>59.117447</ele>
        <time>2022-12-18T12:31:52.636Z</time>
      </trkpt>
      <trkpt lat="46.63234" lon="-1.86072">
        <ele>59.126302</ele>
        <time>2022-12-18T12:31:55.637Z</time>
      </trkpt>
      <trkpt lat="46.63227" lon="-1.86064">
        <ele>59.134958</ele>
        <time>2022-12-18T12:31:58.625Z</time>
      </trkpt>
      <trkpt lat="46.6322" lon="-1.86055">
        <ele>59.144265</ele>
        <time>2022-12-18T12:32:01.632Z</time>
      </trkpt>
      <trkpt lat="46.63212" lon="-1.86045">
        <ele>59.153837</ele>
        <time>2022-12-18T12:32:04.616Z</time>
      </trkpt>
      <trkpt lat="46.63204" lon="-1.86034">
        <ele>59.16461</ele>
        <time>2022-12-18T12:32:08.629Z</time>
      </trkpt>
      <trkpt lat="46.63195" lon="-1.86022">
        <ele>59.175849</ele>
        <time>2022-12-18T12:32:12.628Z</time>
      </trkpt>
      <trkpt lat="46.63187" lon="-1.86015">
        <ele>59.185118</ele>
        <time>2022-12-18T12:32:15.616Z</time>
      </trkpt>
      <trkpt lat="46.63178" lon="-1.86008">
        <ele>59.194802</ele>
        <time>2022-12-18T12:32:18.627Z</time>
      </trkpt>
      <trkpt lat="46.63168" lon="-1.86003">
        <ele>59.204849</ele>
        <time>2022-12-18T12:32:21.629Z</time>
      </trkpt>
      <trkpt lat="46.63157" lon="-1.86">
        <ele>59.215159</ele>
        <time>2022-12-18T12:32:24.629Z</time>
      </trkpt>
      <trkpt lat="46.63146" lon="-1.85997">
        <ele>59.226086</ele>
        <time>2022-12-18T12:32:27.612Z</time>
      </trkpt>
      <trkpt lat="46.63134" lon="-1.85994">
        <ele>59.122253</ele>
        <time>2022-12-18T12:32:30.635Z</time>
      </trkpt>
      <trkpt lat="46.63123" lon="-1.85992">
        <ele>58.99734</ele>
        <time>2022-12-18T12:32:33.610Z</time>
      </trkpt>
      <trkpt lat="46.63112" lon="-1.85989">
        <ele>58.875837</ele>
        <time>2022-12-18T12:32:36.621Z</time>
      </trkpt>
      <trkpt lat="46.631" lon="-1.85985">
        <ele>58.73455</ele>
        <time>2022-12-18T12:32:39.679Z</time>
      </trkpt>
      <trkpt lat="46.63091" lon="-1.85983">
        <ele>58.631617</ele>
        <time>2022-12-18T12:32:41.626Z</time>
      </trkpt>
      <trkpt lat="46.63082" lon="-1.85979">
        <ele>58.52909</ele>
        <time>2022-12-18T12:32:43.624Z</time>
      </trkpt>
      <trkpt lat="46.63073" lon="-1.85975">
        <ele>58.428439</ele>
        <time>2022-12-18T12:32:45.639Z</time>
      </trkpt>
      <trkpt lat="46.63065" lon="-1.85969">
        <ele>58.326104</ele>
        <time>2022-12-18T12:32:47.622Z</time>
      </trkpt>
      <trkpt lat="46.63053" lon="-1.85961">
        <ele>58.182635</ele>
        <time>2022-12-18T12:32:50.631Z</time>
      </trkpt>
      <trkpt lat="46.63042" lon="-1.85952">
        <ele>58.039308</ele>
        <time>2022-12-18T12:32:53.630Z</time>
      </trkpt>
      <trkpt lat="46.63031" lon="-1.85943">
        <ele>57.903444</ele>
        <time>2022-12-18T12:32:56.618Z</time>
      </trkpt>
      <trkpt lat="46.63022" lon="-1.85934">
        <ele>57.778155</ele>
        <time>2022-12-18T12:32:59.619Z</time>
      </trkpt>
      <trkpt lat="46.63013" lon="-1.85928">
        <ele>57.664306</ele>
        <time>2022-12-18T12:33:02.617Z</time>
      </trkpt>
      <trkpt lat="46.63005" lon="-1.85921">
        <ele>57.559186</ele>
        <time>2022-12-18T12:33:05.631Z</time>
      </trkpt>
      <trkpt lat="46.62996" lon="-1.85912">
        <ele>57.440206</ele>
        <time>2022-12-18T12:33:08.624Z</time>
      </trkpt>
      <trkpt lat="46.62986" lon="-1.85902">
        <ele>57.306747</ele>
        <time>2022-12-18T12:33:11.608Z</time>
      </trkpt>
      <trkpt lat="46.62975" lon="-1.85893">
        <ele>57.307308</ele>
        <time>2022-12-18T12:33:14.630Z</time>
      </trkpt>
      <trkpt lat="46.62965" lon="-1.85882">
        <ele>57.476078</ele>
        <time>2022-12-18T12:33:17.631Z</time>
      </trkpt>
      <trkpt lat="46.62955" lon="-1.85872">
        <ele>57.640417</ele>
        <time>2022-12-18T12:33:20.634Z</time>
      </trkpt>
      <trkpt lat="46.62946" lon="-1.85863">
        <ele>57.799793</ele>
        <time>2022-12-18T12:33:23.640Z</time>
      </trkpt>
      <trkpt lat="46.62936" lon="-1.85854">
        <ele>57.954379</ele>
        <time>2022-12-18T12:33:26.619Z</time>
      </trkpt>
      <trkpt lat="46.62927" lon="-1.85846">
        <ele>58.105066</ele>
        <time>2022-12-18T12:33:29.612Z</time>
      </trkpt>
      <trkpt lat="46.62917" lon="-1.85839">
        <ele>58.248635</ele>
        <time>2022-12-18T12:33:32.629Z</time>
      </trkpt>
      <trkpt lat="46.62907" lon="-1.85834">
        <ele>58.394438</ele>
        <time>2022-12-18T12:33:35.616Z</time>
      </trkpt>
      <trkpt lat="46.629" lon="-1.85823">
        <ele>58.536289</ele>
        <time>2022-12-18T12:33:38.631Z</time>
      </trkpt>
      <trkpt lat="46.62893" lon="-1.85812">
        <ele>58.676564</ele>
        <time>2022-12-18T12:33:41.633Z</time>
      </trkpt>
      <trkpt lat="46.62885" lon="-1.85804">
        <ele>58.813295</ele>
        <time>2022-12-18T12:33:44.605Z</time>
      </trkpt>
      <trkpt lat="46.62876" lon="-1.85796">
        <ele>58.946379</ele>
        <time>2022-12-18T12:33:47.623Z</time>
      </trkpt>
      <trkpt lat="46.62868" lon="-1.85788">
        <ele>59.078749</ele>
        <time>2022-12-18T12:33:50.633Z</time>
      </trkpt>
      <trkpt lat="46.6286" lon="-1.8578">
        <ele>59.210332</ele>
        <time>2022-12-18T12:33:53.618Z</time>
      </trkpt>
      <trkpt lat="46.62851" lon="-1.85773">
        <ele>59.355537</ele>
        <time>2022-12-18T12:33:56.631Z</time>
      </trkpt>
      <trkpt lat="46.62842" lon="-1.85764">
        <ele>59.502882</ele>
        <time>2022-12-18T12:33:59.633Z</time>
      </trkpt>
      <trkpt lat="46.62833" lon="-1.85754">
        <ele>59.650117</ele>
        <time>2022-12-18T12:34:02.642Z</time>
      </trkpt>
      <trkpt lat="46.62825" lon="-1.85746">
        <ele>59.677041</ele>
        <time>2022-12-18T12:34:05.626Z</time>
      </trkpt>
      <trkpt lat="46.62817" lon="-1.85738">
        <ele>59.667067</ele>
        <time>2022-12-18T12:34:08.630Z</time>
      </trkpt>
      <trkpt lat="46.62808" lon="-1.85728">
        <ele>59.655255</ele>
        <time>2022-12-18T12:34:12.628Z</time>
      </trkpt>
      <trkpt lat="46.628" lon="-1.85717">
        <ele>59.644165</ele>
        <time>2022-12-18T12:34:16.625Z</time>
      </trkpt>
      <trkpt lat="46.62789" lon="-1.85711">
        <ele>59.631967</ele>
        <time>2022-12-18T12:34:20.629Z</time>
      </trkpt>
      <trkpt lat="46.62779" lon="-1.85707">
        <ele>59.621183</ele>
        <time>2022-12-18T12:34:23.632Z</time>
      </trkpt>
      <trkpt lat="46.6277" lon="-1.85698">
        <ele>59.610122</ele>
        <time>2022-12-18T12:34:26.613Z</time>
      </trkpt>
      <trkpt lat="46.62762" lon="-1.85687">
        <ele>59.599184</ele>
        <time>2022-12-18T12:34:29.635Z</time>
      </trkpt>
      <trkpt lat="46.62754" lon="-1.85676">
        <ele>59.587775</ele>
        <time>2022-12-18T12:34:32.626Z</time>
      </trkpt>
      <trkpt lat="46.62745" lon="-1.85665">
        <ele>59.575627</ele>
        <time>2022-12-18T12:34:35.622Z</time>
      </trkpt>
      <trkpt lat="46.62735" lon="-1.85655">
        <ele>59.563316</ele>
        <time>2022-12-18T12:34:38.619Z</time>
      </trkpt>
      <trkpt lat="46.62725" lon="-1.85646">
        <ele>59.550541</ele>
        <time>2022-12-18T12:34:41.611Z</time>
      </trkpt>
      <trkpt lat="46.62714" lon="-1.85636">
        <ele>59.537377</ele>
        <time>2022-12-18T12:34:44.634Z</time>
      </trkpt>
      <trkpt lat="46.62704" lon="-1.85625">
        <ele>59.5244</ele>
        <time>2022-12-18T12:34:47.610Z</time>
      </trkpt>
      <trkpt lat="46.62694" lon="-1.85614">
        <ele>59.511339</ele>
        <time>2022-12-18T12:34:50.612Z</time>
      </trkpt>
      <trkpt lat="46.62683" lon="-1.85603">
        <ele>59.49668</ele>
        <time>2022-12-18T12:34:53.612Z</time>
      </trkpt>
      <trkpt lat="46.62673" lon="-1.85595">
        <ele>59.472737</ele>
        <time>2022-12-18T12:34:56.639Z</time>
      </trkpt>
      <trkpt lat="46.62665" lon="-1.85586">
        <ele>59.452159</ele>
        <time>2022-12-18T12:34:59.631Z</time>
      </trkpt>
      <trkpt lat="46.62658" lon="-1.85575">
        <ele>59.430535</ele>
        <time>2022-12-18T12:35:02.634Z</time>
      </trkpt>
      <trkpt lat="46.62649" lon="-1.85565">
        <ele>59.407537</ele>
        <time>2022-12-18T12:35:05.640Z</time>
      </trkpt>
      <trkpt lat="46.62641" lon="-1.85556">
        <ele>59.385715</ele>
        <time>2022-12-18T12:35:08.685Z</time>
      </trkpt>
      <trkpt lat="46.62633" lon="-1.85548">
        <ele>59.365954</ele>
        <time>2022-12-18T12:35:11.634Z</time>
      </trkpt>
      <trkpt lat="46.62622" lon="-1.85538">
        <ele>59.340716</ele>
        <time>2022-12-18T12:35:15.617Z</time>
      </trkpt>
      <trkpt lat="46.62614" lon="-1.85529">
        <ele>59.319469</ele>
        <time>2022-12-18T12:35:18.638Z</time>
      </trkpt>
      <trkpt lat="46.62606" lon="-1.8552">
        <ele>59.297732</ele>
        <time>2022-12-18T12:35:21.641Z</time>
      </trkpt>
      <trkpt lat="46.62597" lon="-1.8551">
        <ele>59.27475</ele>
        <time>2022-12-18T12:35:24.699Z</time>
      </trkpt>
      <trkpt lat="46.62587" lon="-1.855">
        <ele>59.250437</ele>
        <time>2022-12-18T12:35:27.634Z</time>
      </trkpt>
      <trkpt lat="46.62577" lon="-1.8549">
        <ele>59.226459</ele>
        <time>2022-12-18T12:35:30.621Z</time>
      </trkpt>
      <trkpt lat="46.62568" lon="-1.8548">
        <ele>59.202716</ele>
        <time>2022-12-18T12:35:33.631Z</time>
      </trkpt>
      <trkpt lat="46.62559" lon="-1.85469">
        <ele>59.179294</ele>
        <time>2022-12-18T12:35:36.623Z</time>
      </trkpt>
      <trkpt lat="46.6255" lon="-1.8546">
        <ele>59.156394</ele>
        <time>2022-12-18T12:35:39.643Z</time>
      </trkpt>
      <trkpt lat="46.62541" lon="-1.8545">
        <ele>59.133483</ele>
        <time>2022-12-18T12:35:42.630Z</time>
      </trkpt>
      <trkpt lat="46.62532" lon="-1.8544">
        <ele>59.28591</ele>
        <time>2022-12-18T12:35:45.634Z</time>
      </trkpt>
      <trkpt lat="46.62524" lon="-1.8543">
        <ele>59.450271</ele>
        <time>2022-12-18T12:35:48.634Z</time>
      </trkpt>
      <trkpt lat="46.62515" lon="-1.85421">
        <ele>59.620164</ele>
        <time>2022-12-18T12:35:52.642Z</time>
      </trkpt>
      <trkpt lat="46.62506" lon="-1.8541">
        <ele>59.79161</ele>
        <time>2022-12-18T12:35:57.641Z</time>
      </trkpt>
      <trkpt lat="46.62499" lon="-1.85402">
        <ele>59.933789</ele>
        <time>2022-12-18T12:36:01.635Z</time>
      </trkpt>
      <trkpt lat="46.62492" lon="-1.85393">
        <ele>60.07798</ele>
        <time>2022-12-18T12:36:05.624Z</time>
      </trkpt>
      <trkpt lat="46.62485" lon="-1.85384">
        <ele>60.21668</ele>
        <time>2022-12-18T12:36:09.627Z</time>
      </trkpt>
      <trkpt lat="46.62478" lon="-1.85372">
        <ele>60.38894</ele>
        <time>2022-12-18T12:36:14.639Z</time>
      </trkpt>
      <trkpt lat="46.62472" lon="-1.85361">
        <ele>60.533263</ele>
        <time>2022-12-18T12:36:18.628Z</time>
      </trkpt>
      <trkpt lat="46.62465" lon="-1.85349">
        <ele>60.695365</ele>
        <time>2022-12-18T12:36:22.635Z</time>
      </trkpt>
      <trkpt lat="46.62458" lon="-1.85338">
        <ele>60.854248</ele>
        <time>2022-12-18T12:36:26.643Z</time>
      </trkpt>
      <trkpt lat="46.62449" lon="-1.85329">
        <ele>61.026041</ele>
        <time>2022-12-18T12:36:30.627Z</time>
      </trkpt>
      <trkpt lat="46.62439" lon="-1.8532">
        <ele>61.197298</ele>
        <time>2022-12-18T12:36:34.630Z</time>
      </trkpt>
      <trkpt lat="46.6243" lon="-1.85311">
        <ele>61.371724</ele>
        <time>2022-12-18T12:36:39.630Z</time>
      </trkpt>
      <trkpt lat="46.62422" lon="-1.85303">
        <ele>61.527353</ele>
        <time>2022-12-18T12:36:43.613Z</time>
      </trkpt>
      <trkpt lat="46.62413" lon="-1.85294">
        <ele>61.686121</ele>
        <time>2022-12-18T12:36:47.622Z</time>
      </trkpt>
      <trkpt lat="46.62405" lon="-1.85286">
        <ele>61.841535</ele>
        <time>2022-12-18T12:36:51.624Z</time>
      </trkpt>
      <trkpt lat="46.62396" lon="-1.85277">
        <ele>61.974329</ele>
        <time>2022-12-18T12:36:55.613Z</time>
      </trkpt>
      <trkpt lat="46.62386" lon="-1.85268">
        <ele>62.10328</ele>
        <time>2022-12-18T12:36:59.629Z</time>
      </trkpt>
      <trkpt lat="46.62377" lon="-1.85259">
        <ele>62.23045</ele>
        <time>2022-12-18T12:37:03.614Z</time>
      </trkpt>
      <trkpt lat="46.62367" lon="-1.85249">
        <ele>62.362541</ele>
        <time>2022-12-18T12:37:07.624Z</time>
      </trkpt>
      <trkpt lat="46.62357" lon="-1.8524">
        <ele>62.493611</ele>
        <time>2022-12-18T12:37:11.642Z</time>
      </trkpt>
      <trkpt lat="46.62348" lon="-1.85231">
        <ele>62.617023</ele>
        <time>2022-12-18T12:37:15.631Z</time>
      </trkpt>
      <trkpt lat="46.62341" lon="-1.85223">
        <ele>62.718295</ele>
        <time>2022-12-18T12:37:19.615Z</time>
      </trkpt>
      <trkpt lat="46.62332" lon="-1.85214">
        <ele>62.838093</ele>
        <time>2022-12-18T12:37:23.635Z</time>
      </trkpt>
      <trkpt lat="46.62322" lon="-1.85205">
        <ele>62.973227</ele>
        <time>2022-12-18T12:37:27.631Z</time>
      </trkpt>
      <trkpt lat="46.62313" lon="-1.85198">
        <ele>63.08267</ele>
        <time>2022-12-18T12:37:30.634Z</time>
      </trkpt>
      <trkpt lat="46.62304" lon="-1.85191">
        <ele>63.19188</ele>
        <time>2022-12-18T12:37:33.645Z</time>
      </trkpt>
      <trkpt lat="46.62295" lon="-1.85186">
        <ele>63.30329</ele>
        <time>2022-12-18T12:37:36.636Z</time>
      </trkpt>
      <trkpt lat="46.62285" lon="-1.85182">
        <ele>63.422838</ele>
        <time>2022-12-18T12:37:39.628Z</time>
      </trkpt>
      <trkpt lat="46.62278" lon="-1.85171">
        <ele>63.540704</ele>
        <time>2022-12-18T12:37:42.632Z</time>
      </trkpt>
      <trkpt lat="46.62271" lon="-1.85158">
        <ele>63.664808</ele>
        <time>2022-12-18T12:37:45.634Z</time>
      </trkpt>
      <trkpt lat="46.62263" lon="-1.85148">
        <ele>63.785778</ele>
        <time>2022-12-18T12:37:48.685Z</time>
      </trkpt>
      <trkpt lat="46.62254" lon="-1.85139">
        <ele>63.896807</ele>
        <time>2022-12-18T12:37:51.625Z</time>
      </trkpt>
      <trkpt lat="46.62244" lon="-1.85131">
        <ele>63.832149</ele>
        <time>2022-12-18T12:37:54.617Z</time>
      </trkpt>
      <trkpt lat="46.62235" lon="-1.85123">
        <ele>63.769986</ele>
        <time>2022-12-18T12:37:57.628Z</time>
      </trkpt>
      <trkpt lat="46.62226" lon="-1.85114">
        <ele>63.708402</ele>
        <time>2022-12-18T12:38:00.629Z</time>
      </trkpt>
      <trkpt lat="46.62217" lon="-1.85106">
        <ele>63.642954</ele>
        <time>2022-12-18T12:38:03.631Z</time>
      </trkpt>
      <trkpt lat="46.62208" lon="-1.851">
        <ele>63.583986</ele>
        <time>2022-12-18T12:38:06.615Z</time>
      </trkpt>
      <trkpt lat="46.62198" lon="-1.85094">
        <ele>63.525861</ele>
        <time>2022-12-18T12:38:09.670Z</time>
      </trkpt>
      <trkpt lat="46.62188" lon="-1.85088">
        <ele>63.461707</ele>
        <time>2022-12-18T12:38:12.614Z</time>
      </trkpt>
      <trkpt lat="46.62177" lon="-1.85083">
        <ele>63.394224</ele>
        <time>2022-12-18T12:38:15.625Z</time>
      </trkpt>
      <trkpt lat="46.62166" lon="-1.85078">
        <ele>63.326061</ele>
        <time>2022-12-18T12:38:18.631Z</time>
      </trkpt>
      <trkpt lat="46.62155" lon="-1.85072">
        <ele>63.256411</ele>
        <time>2022-12-18T12:38:21.644Z</time>
      </trkpt>
      <trkpt lat="46.62143" lon="-1.85067">
        <ele>63.182123</ele>
        <time>2022-12-18T12:38:24.613Z</time>
      </trkpt>
      <trkpt lat="46.6213" lon="-1.85061">
        <ele>63.10409</ele>
        <time>2022-12-18T12:38:27.625Z</time>
      </trkpt>
      <trkpt lat="46.62121" lon="-1.85057">
        <ele>63.049858</ele>
        <time>2022-12-18T12:38:29.631Z</time>
      </trkpt>
      <trkpt lat="46.62112" lon="-1.85053">
        <ele>62.996741</ele>
        <time>2022-12-18T12:38:31.646Z</time>
      </trkpt>
      <trkpt lat="46.62103" lon="-1.85048">
        <ele>62.940401</ele>
        <time>2022-12-18T12:38:33.633Z</time>
      </trkpt>
      <trkpt lat="46.62094" lon="-1.85044">
        <ele>62.881675</ele>
        <time>2022-12-18T12:38:35.646Z</time>
      </trkpt>
      <trkpt lat="46.62085" lon="-1.8504">
        <ele>62.834787</ele>
        <time>2022-12-18T12:38:37.640Z</time>
      </trkpt>
      <trkpt lat="46.62072" lon="-1.85035">
        <ele>62.779116</ele>
        <time>2022-12-18T12:38:40.626Z</time>
      </trkpt>
      <trkpt lat="46.62061" lon="-1.8503">
        <ele>62.72811</ele>
        <time>2022-12-18T12:38:43.624Z</time>
      </trkpt>
      <trkpt lat="46.6205" lon="-1.85025">
        <ele>62.678812</ele>
        <time>2022-12-18T12:38:46.615Z</time>
      </trkpt>
      <trkpt lat="46.62038" lon="-1.8502">
        <ele>62.627362</ele>
        <time>2022-12-18T12:38:49.630Z</time>
      </trkpt>
      <trkpt lat="46.62026" lon="-1.85014">
        <ele>62.573403</ele>
        <time>2022-12-18T12:38:52.675Z</time>
      </trkpt>
      <trkpt lat="46.62014" lon="-1.85008">
        <ele>62.518054</ele>
        <time>2022-12-18T12:38:55.634Z</time>
      </trkpt>
      <trkpt lat="46.62001" lon="-1.85001">
        <ele>62.463128</ele>
        <time>2022-12-18T12:38:58.611Z</time>
      </trkpt>
      <trkpt lat="46.61989" lon="-1.84994">
        <ele>62.407948</ele>
        <time>2022-12-18T12:39:01.614Z</time>
      </trkpt>
      <trkpt lat="46.61978" lon="-1.84987">
        <ele>62.355677</ele>
        <time>2022-12-18T12:39:04.611Z</time>
      </trkpt>
      <trkpt lat="46.61968" lon="-1.84981">
        <ele>62.308276</ele>
        <time>2022-12-18T12:39:07.612Z</time>
      </trkpt>
      <trkpt lat="46.61958" lon="-1.84974">
        <ele>62.261151</ele>
        <time>2022-12-18T12:39:10.629Z</time>
      </trkpt>
      <trkpt lat="46.61947" lon="-1.84968">
        <ele>62.21375</ele>
        <time>2022-12-18T12:39:13.640Z</time>
      </trkpt>
      <trkpt lat="46.61937" lon="-1.84961">
        <ele>62.167429</ele>
        <time>2022-12-18T12:39:16.630Z</time>
      </trkpt>
      <trkpt lat="46.61927" lon="-1.84954">
        <ele>62.119456</ele>
        <time>2022-12-18T12:39:19.663Z</time>
      </trkpt>
      <trkpt lat="46.61918" lon="-1.84947">
        <ele>62.093441</ele>
        <time>2022-12-18T12:39:22.627Z</time>
      </trkpt>
      <trkpt lat="46.61907" lon="-1.8494">
        <ele>62.116105</ele>
        <time>2022-12-18T12:39:26.632Z</time>
      </trkpt>
      <trkpt lat="46.61898" lon="-1.84934">
        <ele>62.135201</ele>
        <time>2022-12-18T12:39:29.641Z</time>
      </trkpt>
      <trkpt lat="46.61889" lon="-1.84928">
        <ele>62.154212</ele>
        <time>2022-12-18T12:39:32.635Z</time>
      </trkpt>
      <trkpt lat="46.6188" lon="-1.84922">
        <ele>62.172906</ele>
        <time>2022-12-18T12:39:35.652Z</time>
      </trkpt>
      <trkpt lat="46.61871" lon="-1.84916">
        <ele>62.191551</ele>
        <time>2022-12-18T12:39:38.643Z</time>
      </trkpt>
      <trkpt lat="46.61862" lon="-1.8491">
        <ele>62.210991</ele>
        <time>2022-12-18T12:39:41.696Z</time>
      </trkpt>
      <trkpt lat="46.61852" lon="-1.84903">
        <ele>62.230592</ele>
        <time>2022-12-18T12:39:44.611Z</time>
      </trkpt>
      <trkpt lat="46.61843" lon="-1.84897">
        <ele>62.249808</ele>
        <time>2022-12-18T12:39:47.632Z</time>
      </trkpt>
      <trkpt lat="46.61834" lon="-1.84891">
        <ele>62.269023</ele>
        <time>2022-12-18T12:39:50.641Z</time>
      </trkpt>
      <trkpt lat="46.61825" lon="-1.84885">
        <ele>62.287605</ele>
        <time>2022-12-18T12:39:53.641Z</time>
      </trkpt>
      <trkpt lat="46.61816" lon="-1.84879">
        <ele>62.305337</ele>
        <time>2022-12-18T12:39:56.635Z</time>
      </trkpt>
      <trkpt lat="46.61808" lon="-1.84873">
        <ele>62.323634</ele>
        <time>2022-12-18T12:39:59.628Z</time>
      </trkpt>
      <trkpt lat="46.61799" lon="-1.84867">
        <ele>62.342333</ele>
        <time>2022-12-18T12:40:02.625Z</time>
      </trkpt>
      <trkpt lat="46.61789" lon="-1.8486">
        <ele>62.362446</ele>
        <time>2022-12-18T12:40:06.619Z</time>
      </trkpt>
      <trkpt lat="46.6178" lon="-1.84855">
        <ele>62.381089</ele>
        <time>2022-12-18T12:40:10.628Z</time>
      </trkpt>
      <trkpt lat="46.6177" lon="-1.84848">
        <ele>62.402275</ele>
        <time>2022-12-18T12:40:14.673Z</time>
      </trkpt>
      <trkpt lat="46.61761" lon="-1.84842">
        <ele>62.419866</ele>
        <time>2022-12-18T12:40:17.637Z</time>
      </trkpt>
      <trkpt lat="46.61753" lon="-1.84837">
        <ele>62.4251</ele>
        <time>2022-12-18T12:40:20.634Z</time>
      </trkpt>
      <trkpt lat="46.61745" lon="-1.84831">
        <ele>62.419532</ele>
        <time>2022-12-18T12:40:23.629Z</time>
      </trkpt>
      <trkpt lat="46.61736" lon="-1.84826">
        <ele>62.414007</ele>
        <time>2022-12-18T12:40:26.624Z</time>
      </trkpt>
      <trkpt lat="46.61728" lon="-1.84821">
        <ele>62.408498</ele>
        <time>2022-12-18T12:40:29.633Z</time>
      </trkpt>
      <trkpt lat="46.61716" lon="-1.84816">
        <ele>62.401504</ele>
        <time>2022-12-18T12:40:33.634Z</time>
      </trkpt>
      <trkpt lat="46.61708" lon="-1.84811">
        <ele>62.396055</ele>
        <time>2022-12-18T12:40:36.632Z</time>
      </trkpt>
      <trkpt lat="46.61699" lon="-1.84808">
        <ele>62.390551</ele>
        <time>2022-12-18T12:40:39.634Z</time>
      </trkpt>
      <trkpt lat="46.6169" lon="-1.84805">
        <ele>62.385067</ele>
        <time>2022-12-18T12:40:42.644Z</time>
      </trkpt>
      <trkpt lat="46.61679" lon="-1.84802">
        <ele>62.378478</ele>
        <time>2022-12-18T12:40:46.676Z</time>
      </trkpt>
      <trkpt lat="46.6167" lon="-1.848">
        <ele>62.372959</ele>
        <time>2022-12-18T12:40:49.634Z</time>
      </trkpt>
      <trkpt lat="46.61661" lon="-1.84799">
        <ele>62.367272</ele>
        <time>2022-12-18T12:40:52.641Z</time>
      </trkpt>
      <trkpt lat="46.61652" lon="-1.84797">
        <ele>62.361774</ele>
        <time>2022-12-18T12:40:55.629Z</time>
      </trkpt>
      <trkpt lat="46.61642" lon="-1.84797">
        <ele>62.355945</ele>
        <time>2022-12-18T12:40:58.629Z</time>
      </trkpt>
      <trkpt lat="46.61632" lon="-1.84796">
        <ele>62.349931</ele>
        <time>2022-12-18T12:41:01.629Z</time>
      </trkpt>
      <trkpt lat="46.61622" lon="-1.84797">
        <ele>62.34362</ele>
        <time>2022-12-18T12:41:04.627Z</time>
      </trkpt>
      <trkpt lat="46.61611" lon="-1.84798">
        <ele>62.336918</ele>
        <time>2022-12-18T12:41:07.626Z</time>
      </trkpt>
      <trkpt lat="46.61599" lon="-1.848">
        <ele>62.330147</ele>
        <time>2022-12-18T12:41:10.614Z</time>
      </trkpt>
      <trkpt lat="46.61589" lon="-1.84802">
        <ele>62.323605</ele>
        <time>2022-12-18T12:41:13.617Z</time>
      </trkpt>
      <trkpt lat="46.61578" lon="-1.84804">
        <ele>62.351012</ele>
        <time>2022-12-18T12:41:16.610Z</time>
      </trkpt>
      <trkpt lat="46.61567" lon="-1.84805">
        <ele>62.43481</ele>
        <time>2022-12-18T12:41:19.618Z</time>
      </trkpt>
      <trkpt lat="46.61556" lon="-1.84807">
        <ele>62.522396</ele>
        <time>2022-12-18T12:41:22.618Z</time>
      </trkpt>
      <trkpt lat="46.61543" lon="-1.84809">
        <ele>62.614573</ele>
        <time>2022-12-18T12:41:25.637Z</time>
      </trkpt>
      <trkpt lat="46.61531" lon="-1.8481">
        <ele>62.708626</ele>
        <time>2022-12-18T12:41:28.636Z</time>
      </trkpt>
      <trkpt lat="46.61519" lon="-1.84812">
        <ele>62.800747</ele>
        <time>2022-12-18T12:41:31.642Z</time>
      </trkpt>
      <trkpt lat="46.61508" lon="-1.84814">
        <ele>62.885145</ele>
        <time>2022-12-18T12:41:34.619Z</time>
      </trkpt>
      <trkpt lat="46.61497" lon="-1.84815">
        <ele>62.962768</ele>
        <time>2022-12-18T12:41:37.633Z</time>
      </trkpt>
      <trkpt lat="46.61486" lon="-1.84816">
        <ele>63.047708</ele>
        <time>2022-12-18T12:41:40.621Z</time>
      </trkpt>
      <trkpt lat="46.61474" lon="-1.84816">
        <ele>63.13634</ele>
        <time>2022-12-18T12:41:43.633Z</time>
      </trkpt>
      <trkpt lat="46.61462" lon="-1.84817">
        <ele>63.228055</ele>
        <time>2022-12-18T12:41:46.610Z</time>
      </trkpt>
      <trkpt lat="46.61449" lon="-1.84817">
        <ele>63.323419</ele>
        <time>2022-12-18T12:41:49.630Z</time>
      </trkpt>
      <trkpt lat="46.61436" lon="-1.84816">
        <ele>63.420504</ele>
        <time>2022-12-18T12:41:52.615Z</time>
      </trkpt>
      <trkpt lat="46.61424" lon="-1.84813">
        <ele>63.516529</ele>
        <time>2022-12-18T12:41:55.624Z</time>
      </trkpt>
      <trkpt lat="46.61411" lon="-1.84812">
        <ele>63.610089</ele>
        <time>2022-12-18T12:41:58.642Z</time>
      </trkpt>
      <trkpt lat="46.614" lon="-1.84811">
        <ele>63.659905</ele>
        <time>2022-12-18T12:42:01.644Z</time>
      </trkpt>
      <trkpt lat="46.61389" lon="-1.84808">
        <ele>63.624664</ele>
        <time>2022-12-18T12:42:04.639Z</time>
      </trkpt>
      <trkpt lat="46.61379" lon="-1.84806">
        <ele>63.589452</ele>
        <time>2022-12-18T12:42:07.615Z</time>
      </trkpt>
      <trkpt lat="46.61368" lon="-1.84804">
        <ele>63.553502</ele>
        <time>2022-12-18T12:42:10.635Z</time>
      </trkpt>
      <trkpt lat="46.61357" lon="-1.84802">
        <ele>63.517696</ele>
        <time>2022-12-18T12:42:13.614Z</time>
      </trkpt>
      <trkpt lat="46.61346" lon="-1.84802">
        <ele>63.483397</ele>
        <time>2022-12-18T12:42:16.624Z</time>
      </trkpt>
      <trkpt lat="46.61336" lon="-1.848">
        <ele>63.448537</ele>
        <time>2022-12-18T12:42:19.631Z</time>
      </trkpt>
      <trkpt lat="46.61324" lon="-1.84798">
        <ele>63.410324</ele>
        <time>2022-12-18T12:42:22.675Z</time>
      </trkpt>
      <trkpt lat="46.61312" lon="-1.84796">
        <ele>63.369302</ele>
        <time>2022-12-18T12:42:25.632Z</time>
      </trkpt>
      <trkpt lat="46.613" lon="-1.84794">
        <ele>63.329602</ele>
        <time>2022-12-18T12:42:28.635Z</time>
      </trkpt>
      <trkpt lat="46.61288" lon="-1.84791">
        <ele>63.292509</ele>
        <time>2022-12-18T12:42:31.631Z</time>
      </trkpt>
      <trkpt lat="46.61276" lon="-1.84789">
        <ele>63.253003</ele>
        <time>2022-12-18T12:42:34.638Z</time>
      </trkpt>
      <trkpt lat="46.61263" lon="-1.84787">
        <ele>63.209312</ele>
        <time>2022-12-18T12:42:37.641Z</time>
      </trkpt>
      <trkpt lat="46.6125" lon="-1.84784">
        <ele>63.16477</ele>
        <time>2022-12-18T12:42:40.640Z</time>
      </trkpt>
      <trkpt lat="46.61236" lon="-1.84782">
        <ele>63.121799</ele>
        <time>2022-12-18T12:42:43.614Z</time>
      </trkpt>
      <trkpt lat="46.61224" lon="-1.8478">
        <ele>63.083061</ele>
        <time>2022-12-18T12:42:46.632Z</time>
      </trkpt>
      <trkpt lat="46.61212" lon="-1.84778">
        <ele>63.080222</ele>
        <time>2022-12-18T12:42:49.638Z</time>
      </trkpt>
      <trkpt lat="46.61202" lon="-1.84777">
        <ele>63.077702</ele>
        <time>2022-12-18T12:42:52.631Z</time>
      </trkpt>
      <trkpt lat="46.61192" lon="-1.84776">
        <ele>63.075302</ele>
        <time>2022-12-18T12:42:55.613Z</time>
      </trkpt>
      <trkpt lat="46.61181" lon="-1.84775">
        <ele>63.072742</ele>
        <time>2022-12-18T12:42:58.639Z</time>
      </trkpt>
      <trkpt lat="46.6117" lon="-1.84775">
        <ele>63.070112</ele>
        <time>2022-12-18T12:43:01.613Z</time>
      </trkpt>
      <trkpt lat="46.6116" lon="-1.84776">
        <ele>63.067576</ele>
        <time>2022-12-18T12:43:04.627Z</time>
      </trkpt>
      <trkpt lat="46.6115" lon="-1.8478">
        <ele>63.065173</ele>
        <time>2022-12-18T12:43:07.629Z</time>
      </trkpt>
      <trkpt lat="46.61145" lon="-1.84792">
        <ele>63.062919</ele>
        <time>2022-12-18T12:43:10.683Z</time>
      </trkpt>
      <trkpt lat="46.61137" lon="-1.84804">
        <ele>63.060038</ele>
        <time>2022-12-18T12:43:14.626Z</time>
      </trkpt>
      <trkpt lat="46.61127" lon="-1.84807">
        <ele>63.057545</ele>
        <time>2022-12-18T12:43:17.628Z</time>
      </trkpt>
      <trkpt lat="46.61116" lon="-1.84801">
        <ele>63.05482</ele>
        <time>2022-12-18T12:43:20.617Z</time>
      </trkpt>
      <trkpt lat="46.61109" lon="-1.84787">
        <ele>63.051978</ele>
        <time>2022-12-18T12:43:23.615Z</time>
      </trkpt>
      <trkpt lat="46.61106" lon="-1.8477">
        <ele>63.049197</ele>
        <time>2022-12-18T12:43:26.631Z</time>
      </trkpt>
      <trkpt lat="46.61105" lon="-1.84755">
        <ele>63.046603</ele>
        <time>2022-12-18T12:43:29.634Z</time>
      </trkpt>
      <trkpt lat="46.61102" lon="-1.84741">
        <ele>63.044279</ele>
        <time>2022-12-18T12:43:32.622Z</time>
      </trkpt>
      <trkpt lat="46.61097" lon="-1.8473">
        <ele>63.041996</ele>
        <time>2022-12-18T12:43:35.626Z</time>
      </trkpt>
      <trkpt lat="46.61091" lon="-1.8472">
        <ele>63.034258</ele>
        <time>2022-12-18T12:43:38.638Z</time>
      </trkpt>
      <trkpt lat="46.61084" lon="-1.84709">
        <ele>62.819026</ele>
        <time>2022-12-18T12:43:41.624Z</time>
      </trkpt>
      <trkpt lat="46.61074" lon="-1.84697">
        <ele>62.568154</ele>
        <time>2022-12-18T12:43:44.630Z</time>
      </trkpt>
      <trkpt lat="46.61063" lon="-1.84687">
        <ele>62.304472</ele>
        <time>2022-12-18T12:43:47.619Z</time>
      </trkpt>
      <trkpt lat="46.61052" lon="-1.84677">
        <ele>62.034864</ele>
        <time>2022-12-18T12:43:50.624Z</time>
      </trkpt>
      <trkpt lat="46.6104" lon="-1.84668">
        <ele>61.769784</ele>
        <time>2022-12-18T12:43:53.626Z</time>
      </trkpt>
      <trkpt lat="46.61029" lon="-1.84658">
        <ele>61.510274</ele>
        <time>2022-12-18T12:43:56.631Z</time>
      </trkpt>
      <trkpt lat="46.61019" lon="-1.8465">
        <ele>61.273133</ele>
        <time>2022-12-18T12:43:59.633Z</time>
      </trkpt>
      <trkpt lat="46.61009" lon="-1.84641">
        <ele>61.026602</ele>
        <time>2022-12-18T12:44:02.620Z</time>
      </trkpt>
      <trkpt lat="46.60998" lon="-1.84631">
        <ele>60.778648</ele>
        <time>2022-12-18T12:44:05.639Z</time>
      </trkpt>
      <trkpt lat="46.60988" lon="-1.84622">
        <ele>60.530235</ele>
        <time>2022-12-18T12:44:08.626Z</time>
      </trkpt>
      <trkpt lat="46.60977" lon="-1.84614">
        <ele>60.281993</ele>
        <time>2022-12-18T12:44:11.630Z</time>
      </trkpt>
      <trkpt lat="46.60966" lon="-1.84605">
        <ele>60.024248</ele>
        <time>2022-12-18T12:44:14.629Z</time>
      </trkpt>
      <trkpt lat="46.60958" lon="-1.84598">
        <ele>59.840879</ele>
        <time>2022-12-18T12:44:16.624Z</time>
      </trkpt>
      <trkpt lat="46.6095" lon="-1.84592">
        <ele>59.653929</ele>
        <time>2022-12-18T12:44:18.631Z</time>
      </trkpt>
      <trkpt lat="46.60941" lon="-1.84585">
        <ele>59.457729</ele>
        <time>2022-12-18T12:44:20.627Z</time>
      </trkpt>
      <trkpt lat="46.60932" lon="-1.84578">
        <ele>59.101918</ele>
        <time>2022-12-18T12:44:22.639Z</time>
      </trkpt>
      <trkpt lat="46.60923" lon="-1.8457">
        <ele>58.661193</ele>
        <time>2022-12-18T12:44:24.632Z</time>
      </trkpt>
      <trkpt lat="46.60913" lon="-1.84563">
        <ele>58.217562</ele>
        <time>2022-12-18T12:44:26.640Z</time>
      </trkpt>
      <trkpt lat="46.60904" lon="-1.84554">
        <ele>57.770353</ele>
        <time>2022-12-18T12:44:28.633Z</time>
      </trkpt>
      <trkpt lat="46.60895" lon="-1.84545">
        <ele>57.320821</ele>
        <time>2022-12-18T12:44:30.628Z</time>
      </trkpt>
      <trkpt lat="46.60887" lon="-1.84535">
        <ele>56.8792</ele>
        <time>2022-12-18T12:44:32.645Z</time>
      </trkpt>
      <trkpt lat="46.60878" lon="-1.84525">
        <ele>56.438476</ele>
        <time>2022-12-18T12:44:34.629Z</time>
      </trkpt>
      <trkpt lat="46.6087" lon="-1.84515">
        <ele>56.00085</ele>
        <time>2022-12-18T12:44:36.676Z</time>
      </trkpt>
      <trkpt lat="46.60864" lon="-1.84504">
        <ele>55.583974</ele>
        <time>2022-12-18T12:44:38.643Z</time>
      </trkpt>
      <trkpt lat="46.60857" lon="-1.84493">
        <ele>55.167636</ele>
        <time>2022-12-18T12:44:40.636Z</time>
      </trkpt>
      <trkpt lat="46.60851" lon="-1.84481">
        <ele>54.750634</ele>
        <time>2022-12-18T12:44:42.641Z</time>
      </trkpt>
      <trkpt lat="46.60844" lon="-1.8447">
        <ele>54.331063</ele>
        <time>2022-12-18T12:44:44.642Z</time>
      </trkpt>
      <trkpt lat="46.60838" lon="-1.84457">
        <ele>53.909897</ele>
        <time>2022-12-18T12:44:46.638Z</time>
      </trkpt>
      <trkpt lat="46.60832" lon="-1.84445">
        <ele>53.479501</ele>
        <time>2022-12-18T12:44:48.643Z</time>
      </trkpt>
      <trkpt lat="46.60827" lon="-1.84432">
        <ele>53.050328</ele>
        <time>2022-12-18T12:44:50.639Z</time>
      </trkpt>
      <trkpt lat="46.6082" lon="-1.84418">
        <ele>52.592055</ele>
        <time>2022-12-18T12:44:52.636Z</time>
      </trkpt>
      <trkpt lat="46.60815" lon="-1.84404">
        <ele>52.132447</ele>
        <time>2022-12-18T12:44:54.618Z</time>
      </trkpt>
      <trkpt lat="46.6081" lon="-1.84388">
        <ele>52.309527</ele>
        <time>2022-12-18T12:44:56.635Z</time>
      </trkpt>
      <trkpt lat="46.60806" lon="-1.84373">
        <ele>52.634443</ele>
        <time>2022-12-18T12:44:58.629Z</time>
      </trkpt>
      <trkpt lat="46.60802" lon="-1.84356">
        <ele>52.953312</ele>
        <time>2022-12-18T12:45:00.628Z</time>
      </trkpt>
      <trkpt lat="46.60798" lon="-1.84343">
        <ele>53.239836</ele>
        <time>2022-12-18T12:45:02.634Z</time>
      </trkpt>
      <trkpt lat="46.60795" lon="-1.84329">
        <ele>53.511473</ele>
        <time>2022-12-18T12:45:04.642Z</time>
      </trkpt>
      <trkpt lat="46.6079" lon="-1.84312">
        <ele>53.856129</ele>
        <time>2022-12-18T12:45:07.644Z</time>
      </trkpt>
      <trkpt lat="46.60787" lon="-1.84296">
        <ele>54.176738</ele>
        <time>2022-12-18T12:45:10.620Z</time>
      </trkpt>
      <trkpt lat="46.60783" lon="-1.84282">
        <ele>54.45924</ele>
        <time>2022-12-18T12:45:13.644Z</time>
      </trkpt>
      <trkpt lat="46.60779" lon="-1.84268">
        <ele>54.729229</ele>
        <time>2022-12-18T12:45:17.626Z</time>
      </trkpt>
      <trkpt lat="46.60774" lon="-1.84258">
        <ele>54.977902</ele>
        <time>2022-12-18T12:45:21.620Z</time>
      </trkpt>
      <trkpt lat="46.60769" lon="-1.84243">
        <ele>55.275278</ele>
        <time>2022-12-18T12:45:26.626Z</time>
      </trkpt>
      <trkpt lat="46.60766" lon="-1.84231">
        <ele>55.538551</ele>
        <time>2022-12-18T12:45:30.678Z</time>
      </trkpt>
      <trkpt lat="46.60762" lon="-1.84217">
        <ele>55.825173</ele>
        <time>2022-12-18T12:45:35.637Z</time>
      </trkpt>
      <trkpt lat="46.60759" lon="-1.84204">
        <ele>56.081756</ele>
        <time>2022-12-18T12:45:39.636Z</time>
      </trkpt>
      <trkpt lat="46.60755" lon="-1.84189">
        <ele>56.374652</ele>
        <time>2022-12-18T12:45:44.632Z</time>
      </trkpt>
      <trkpt lat="46.60751" lon="-1.84176">
        <ele>56.646303</ele>
        <time>2022-12-18T12:45:49.634Z</time>
      </trkpt>
      <trkpt lat="46.60747" lon="-1.84162">
        <ele>56.937192</ele>
        <time>2022-12-18T12:45:54.627Z</time>
      </trkpt>
      <trkpt lat="46.60744" lon="-1.84147">
        <ele>57.227518</ele>
        <time>2022-12-18T12:45:59.629Z</time>
      </trkpt>
      <trkpt lat="46.6074" lon="-1.84134">
        <ele>57.508567</ele>
        <time>2022-12-18T12:46:04.639Z</time>
      </trkpt>
      <trkpt lat="46.60736" lon="-1.84121">
        <ele>57.775903</ele>
        <time>2022-12-18T12:46:09.635Z</time>
      </trkpt>
      <trkpt lat="46.60732" lon="-1.84107">
        <ele>58.059752</ele>
        <time>2022-12-18T12:46:14.620Z</time>
      </trkpt>
      <trkpt lat="46.60728" lon="-1.84094">
        <ele>58.334087</ele>
        <time>2022-12-18T12:46:19.635Z</time>
      </trkpt>
      <trkpt lat="46.60725" lon="-1.84081">
        <ele>58.59395</ele>
        <time>2022-12-18T12:46:24.695Z</time>
      </trkpt>
      <trkpt lat="46.6072" lon="-1.84068">
        <ele>58.881519</ele>
        <time>2022-12-18T12:46:29.634Z</time>
      </trkpt>
      <trkpt lat="46.60717" lon="-1.84055">
        <ele>59.135246</ele>
        <time>2022-12-18T12:46:33.643Z</time>
      </trkpt>
      <trkpt lat="46.60713" lon="-1.84041">
        <ele>59.43381</ele>
        <time>2022-12-18T12:46:38.640Z</time>
      </trkpt>
      <trkpt lat="46.6071" lon="-1.84028">
        <ele>59.690215</ele>
        <time>2022-12-18T12:46:42.641Z</time>
      </trkpt>
      <trkpt lat="46.60707" lon="-1.84012">
        <ele>59.999878</ele>
        <time>2022-12-18T12:46:46.643Z</time>
      </trkpt>
      <trkpt lat="46.60704" lon="-1.83996">
        <ele>60.31858</ele>
        <time>2022-12-18T12:46:50.618Z</time>
      </trkpt>
      <trkpt lat="46.60701" lon="-1.83983">
        <ele>60.576728</ele>
        <time>2022-12-18T12:46:53.641Z</time>
      </trkpt>
      <trkpt lat="46.60699" lon="-1.8397">
        <ele>60.841319</ele>
        <time>2022-12-18T12:46:56.686Z</time>
      </trkpt>
      <trkpt lat="46.60696" lon="-1.83956">
        <ele>61.114214</ele>
        <time>2022-12-18T12:46:59.618Z</time>
      </trkpt>
      <trkpt lat="46.60693" lon="-1.83942">
        <ele>61.395912</ele>
        <time>2022-12-18T12:47:02.616Z</time>
      </trkpt>
      <trkpt lat="46.6069" lon="-1.83928">
        <ele>61.680178</ele>
        <time>2022-12-18T12:47:05.637Z</time>
      </trkpt>
      <trkpt lat="46.60687" lon="-1.83913">
        <ele>61.981147</ele>
        <time>2022-12-18T12:47:08.622Z</time>
      </trkpt>
      <trkpt lat="46.60684" lon="-1.83898">
        <ele>62.059503</ele>
        <time>2022-12-18T12:47:11.613Z</time>
      </trkpt>
      <trkpt lat="46.60681" lon="-1.83883">
        <ele>62.1363</ele>
        <time>2022-12-18T12:47:14.645Z</time>
      </trkpt>
      <trkpt lat="46.60678" lon="-1.83869">
        <ele>62.21374</ele>
        <time>2022-12-18T12:47:17.632Z</time>
      </trkpt>
      <trkpt lat="46.60674" lon="-1.83853">
        <ele>62.295706</ele>
        <time>2022-12-18T12:47:20.615Z</time>
      </trkpt>
      <trkpt lat="46.60671" lon="-1.83839">
        <ele>62.374863</ele>
        <time>2022-12-18T12:47:23.632Z</time>
      </trkpt>
      <trkpt lat="46.60667" lon="-1.83825">
        <ele>62.449333</ele>
        <time>2022-12-18T12:47:26.641Z</time>
      </trkpt>
      <trkpt lat="46.60664" lon="-1.83812">
        <ele>62.518868</ele>
        <time>2022-12-18T12:47:29.636Z</time>
      </trkpt>
      <trkpt lat="46.60661" lon="-1.83799">
        <ele>62.589125</ele>
        <time>2022-12-18T12:47:32.647Z</time>
      </trkpt>
      <trkpt lat="46.60657" lon="-1.83785">
        <ele>62.665833</ele>
        <time>2022-12-18T12:47:35.629Z</time>
      </trkpt>
      <trkpt lat="46.60654" lon="-1.8377">
        <ele>62.742776</ele>
        <time>2022-12-18T12:47:38.625Z</time>
      </trkpt>
      <trkpt lat="46.6065" lon="-1.83755">
        <ele>62.825462</ele>
        <time>2022-12-18T12:47:41.608Z</time>
      </trkpt>
      <trkpt lat="46.60646" lon="-1.83738">
        <ele>62.91746</ele>
        <time>2022-12-18T12:47:44.622Z</time>
      </trkpt>
      <trkpt lat="46.60642" lon="-1.83721">
        <ele>63.007841</ele>
        <time>2022-12-18T12:47:47.637Z</time>
      </trkpt>
      <trkpt lat="46.60637" lon="-1.83704">
        <ele>63.098694</ele>
        <time>2022-12-18T12:47:50.630Z</time>
      </trkpt>
      <trkpt lat="46.60633" lon="-1.83688">
        <ele>63.18496</ele>
        <time>2022-12-18T12:47:53.679Z</time>
      </trkpt>
      <trkpt lat="46.60629" lon="-1.83673">
        <ele>63.265747</ele>
        <time>2022-12-18T12:47:56.630Z</time>
      </trkpt>
      <trkpt lat="46.60626" lon="-1.83658">
        <ele>63.325496</ele>
        <time>2022-12-18T12:47:59.631Z</time>
      </trkpt>
      <trkpt lat="46.60622" lon="-1.83644">
        <ele>63.366219</ele>
        <time>2022-12-18T12:48:02.637Z</time>
      </trkpt>
      <trkpt lat="46.60619" lon="-1.8363">
        <ele>63.404896</ele>
        <time>2022-12-18T12:48:05.614Z</time>
      </trkpt>
      <trkpt lat="46.60615" lon="-1.83618">
        <ele>63.441945</ele>
        <time>2022-12-18T12:48:08.641Z</time>
      </trkpt>
      <trkpt lat="46.60611" lon="-1.83603">
        <ele>63.484293</ele>
        <time>2022-12-18T12:48:12.637Z</time>
      </trkpt>
      <trkpt lat="46.60607" lon="-1.83589">
        <ele>63.52615</ele>
        <time>2022-12-18T12:48:16.612Z</time>
      </trkpt>
      <trkpt lat="46.60603" lon="-1.83574">
        <ele>63.56724</ele>
        <time>2022-12-18T12:48:20.616Z</time>
      </trkpt>
      <trkpt lat="46.606" lon="-1.83562">
        <ele>63.60349</ele>
        <time>2022-12-18T12:48:23.643Z</time>
      </trkpt>
      <trkpt lat="46.60595" lon="-1.83549">
        <ele>63.64139</ele>
        <time>2022-12-18T12:48:26.615Z</time>
      </trkpt>
      <trkpt lat="46.60592" lon="-1.83534">
        <ele>63.685048</ele>
        <time>2022-12-18T12:48:29.640Z</time>
      </trkpt>
      <trkpt lat="46.60592" lon="-1.83518">
        <ele>63.728038</ele>
        <time>2022-12-18T12:48:32.618Z</time>
      </trkpt>
      <trkpt lat="46.60591" lon="-1.83503">
        <ele>63.767915</ele>
        <time>2022-12-18T12:48:35.622Z</time>
      </trkpt>
      <trkpt lat="46.60589" lon="-1.83488">
        <ele>63.80686</ele>
        <time>2022-12-18T12:48:38.639Z</time>
      </trkpt>
      <trkpt lat="46.60587" lon="-1.83474">
        <ele>63.846427</ele>
        <time>2022-12-18T12:48:41.616Z</time>
      </trkpt>
      <trkpt lat="46.60584" lon="-1.83459">
        <ele>63.887895</ele>
        <time>2022-12-18T12:48:44.640Z</time>
      </trkpt>
      <trkpt lat="46.60581" lon="-1.83445">
        <ele>63.927721</ele>
        <time>2022-12-18T12:48:47.627Z</time>
      </trkpt>
      <trkpt lat="46.6058" lon="-1.83429">
        <ele>63.969592</ele>
        <time>2022-12-18T12:48:50.644Z</time>
      </trkpt>
      <trkpt lat="46.60577" lon="-1.83413">
        <ele>63.93351</ele>
        <time>2022-12-18T12:48:53.634Z</time>
      </trkpt>
      <trkpt lat="46.60574" lon="-1.83396">
        <ele>63.607009</ele>
        <time>2022-12-18T12:48:56.632Z</time>
      </trkpt>
      <trkpt lat="46.60571" lon="-1.83381">
        <ele>63.289976</ele>
        <time>2022-12-18T12:48:59.634Z</time>
      </trkpt>
      <trkpt lat="46.60566" lon="-1.83366">
        <ele>62.972336</ele>
        <time>2022-12-18T12:49:02.636Z</time>
      </trkpt>
      <trkpt lat="46.60562" lon="-1.8335">
        <ele>62.64413</ele>
        <time>2022-12-18T12:49:05.622Z</time>
      </trkpt>
      <trkpt lat="46.60558" lon="-1.83336">
        <ele>62.344312</ele>
        <time>2022-12-18T12:49:08.639Z</time>
      </trkpt>
      <trkpt lat="46.60551" lon="-1.83322">
        <ele>62.022335</ele>
        <time>2022-12-18T12:49:12.625Z</time>
      </trkpt>
      <trkpt lat="46.60545" lon="-1.83312">
        <ele>61.749504</ele>
        <time>2022-12-18T12:49:16.637Z</time>
      </trkpt>
      <trkpt lat="46.60538" lon="-1.83301">
        <ele>61.459557</ele>
        <time>2022-12-18T12:49:20.636Z</time>
      </trkpt>
      <trkpt lat="46.60531" lon="-1.83292">
        <ele>61.196189</ele>
        <time>2022-12-18T12:49:23.639Z</time>
      </trkpt>
      <trkpt lat="46.60522" lon="-1.83283">
        <ele>60.890873</ele>
        <time>2022-12-18T12:49:26.637Z</time>
      </trkpt>
      <trkpt lat="46.60511" lon="-1.83274">
        <ele>60.526054</ele>
        <time>2022-12-18T12:49:29.686Z</time>
      </trkpt>
      <trkpt lat="46.60502" lon="-1.83269">
        <ele>60.2492</ele>
        <time>2022-12-18T12:49:31.617Z</time>
      </trkpt>
      <trkpt lat="46.60492" lon="-1.83263">
        <ele>59.964047</ele>
        <time>2022-12-18T12:49:33.628Z</time>
      </trkpt>
      <trkpt lat="46.60482" lon="-1.83256">
        <ele>59.655057</ele>
        <time>2022-12-18T12:49:35.628Z</time>
      </trkpt>
      <trkpt lat="46.60473" lon="-1.83251">
        <ele>59.357696</ele>
        <time>2022-12-18T12:49:37.637Z</time>
      </trkpt>
      <trkpt lat="46.60463" lon="-1.83245">
        <ele>59.069221</ele>
        <time>2022-12-18T12:49:39.636Z</time>
      </trkpt>
      <trkpt lat="46.60454" lon="-1.8324">
        <ele>59.001824</ele>
        <time>2022-12-18T12:49:41.639Z</time>
      </trkpt>
      <trkpt lat="46.60445" lon="-1.83232">
        <ele>59.173605</ele>
        <time>2022-12-18T12:49:43.630Z</time>
      </trkpt>
      <trkpt lat="46.60437" lon="-1.83224">
        <ele>59.340992</ele>
        <time>2022-12-18T12:49:45.618Z</time>
      </trkpt>
      <trkpt lat="46.6043" lon="-1.83215">
        <ele>59.503012</ele>
        <time>2022-12-18T12:49:47.633Z</time>
      </trkpt>
      <trkpt lat="46.60421" lon="-1.83202">
        <ele>59.727992</ele>
        <time>2022-12-18T12:49:50.643Z</time>
      </trkpt>
      <trkpt lat="46.60414" lon="-1.83188">
        <ele>59.927294</ele>
        <time>2022-12-18T12:49:53.615Z</time>
      </trkpt>
      <trkpt lat="46.60408" lon="-1.83174">
        <ele>60.120882</ele>
        <time>2022-12-18T12:49:56.630Z</time>
      </trkpt>
      <trkpt lat="46.60404" lon="-1.8316">
        <ele>60.316315</ele>
        <time>2022-12-18T12:49:59.635Z</time>
      </trkpt>
      <trkpt lat="46.60399" lon="-1.83145">
        <ele>60.506408</ele>
        <time>2022-12-18T12:50:02.635Z</time>
      </trkpt>
      <trkpt lat="46.60394" lon="-1.83131">
        <ele>60.694912</ele>
        <time>2022-12-18T12:50:05.631Z</time>
      </trkpt>
      <trkpt lat="46.60389" lon="-1.83118">
        <ele>60.871585</ele>
        <time>2022-12-18T12:50:08.619Z</time>
      </trkpt>
      <trkpt lat="46.60385" lon="-1.83105">
        <ele>61.040331</ele>
        <time>2022-12-18T12:50:11.641Z</time>
      </trkpt>
      <trkpt lat="46.60381" lon="-1.83091">
        <ele>61.221725</ele>
        <time>2022-12-18T12:50:14.635Z</time>
      </trkpt>
      <trkpt lat="46.60376" lon="-1.83077">
        <ele>61.402362</ele>
        <time>2022-12-18T12:50:17.620Z</time>
      </trkpt>
      <trkpt lat="46.60372" lon="-1.83064">
        <ele>61.583459</ele>
        <time>2022-12-18T12:50:20.614Z</time>
      </trkpt>
      <trkpt lat="46.60366" lon="-1.83052">
        <ele>61.753162</ele>
        <time>2022-12-18T12:50:23.614Z</time>
      </trkpt>
      <trkpt lat="46.60361" lon="-1.83038">
        <ele>61.948801</ele>
        <time>2022-12-18T12:50:27.641Z</time>
      </trkpt>
      <trkpt lat="46.60357" lon="-1.83022">
        <ele>62.073829</ele>
        <time>2022-12-18T12:50:32.636Z</time>
      </trkpt>
      <trkpt lat="46.60353" lon="-1.83007">
        <ele>62.146384</ele>
        <time>2022-12-18T12:50:37.628Z</time>
      </trkpt>
      <trkpt lat="46.60346" lon="-1.82995">
        <ele>62.22115</ele>
        <time>2022-12-18T12:50:41.640Z</time>
      </trkpt>
      <trkpt lat="46.60341" lon="-1.8298">
        <ele>62.297512</ele>
        <time>2022-12-18T12:50:45.646Z</time>
      </trkpt>
      <trkpt lat="46.60336" lon="-1.82967">
        <ele>62.364934</ele>
        <time>2022-12-18T12:50:48.628Z</time>
      </trkpt>
      <trkpt lat="46.60331" lon="-1.82956">
        <ele>62.426636</ele>
        <time>2022-12-18T12:50:51.628Z</time>
      </trkpt>
      <trkpt lat="46.60325" lon="-1.82945">
        <ele>62.489798</ele>
        <time>2022-12-18T12:50:54.616Z</time>
      </trkpt>
      <trkpt lat="46.60319" lon="-1.82935">
        <ele>62.551404</ele>
        <time>2022-12-18T12:50:57.644Z</time>
      </trkpt>
      <trkpt lat="46.60313" lon="-1.82925">
        <ele>62.611034</ele>
        <time>2022-12-18T12:51:00.619Z</time>
      </trkpt>
      <trkpt lat="46.60305" lon="-1.82912">
        <ele>62.690211</ele>
        <time>2022-12-18T12:51:04.629Z</time>
      </trkpt>
      <trkpt lat="46.60298" lon="-1.82902">
        <ele>62.753567</ele>
        <time>2022-12-18T12:51:07.641Z</time>
      </trkpt>
      <trkpt lat="46.60292" lon="-1.82892">
        <ele>62.815802</ele>
        <time>2022-12-18T12:51:10.626Z</time>
      </trkpt>
      <trkpt lat="46.60285" lon="-1.82881">
        <ele>62.883791</ele>
        <time>2022-12-18T12:51:13.634Z</time>
      </trkpt>
      <trkpt lat="46.60278" lon="-1.8287">
        <ele>62.95526</ele>
        <time>2022-12-18T12:51:16.618Z</time>
      </trkpt>
      <trkpt lat="46.60271" lon="-1.82857">
        <ele>63.028633</ele>
        <time>2022-12-18T12:51:19.634Z</time>
      </trkpt>
      <trkpt lat="46.60263" lon="-1.82845">
        <ele>63.104689</ele>
        <time>2022-12-18T12:51:22.627Z</time>
      </trkpt>
      <trkpt lat="46.60255" lon="-1.82832">
        <ele>63.184198</ele>
        <time>2022-12-18T12:51:25.643Z</time>
      </trkpt>
      <trkpt lat="46.60247" lon="-1.82819">
        <ele>63.124231</ele>
        <time>2022-12-18T12:51:28.612Z</time>
      </trkpt>
      <trkpt lat="46.60239" lon="-1.82806">
        <ele>62.913892</ele>
        <time>2022-12-18T12:51:31.636Z</time>
      </trkpt>
      <trkpt lat="46.60232" lon="-1.82795">
        <ele>62.718773</ele>
        <time>2022-12-18T12:51:34.630Z</time>
      </trkpt>
      <trkpt lat="46.60226" lon="-1.82784">
        <ele>62.544681</ele>
        <time>2022-12-18T12:51:37.638Z</time>
      </trkpt>
      <trkpt lat="46.60219" lon="-1.82771">
        <ele>62.351841</ele>
        <time>2022-12-18T12:51:40.609Z</time>
      </trkpt>
      <trkpt lat="46.60213" lon="-1.82758">
        <ele>62.150102</ele>
        <time>2022-12-18T12:51:43.621Z</time>
      </trkpt>
      <trkpt lat="46.60206" lon="-1.82744">
        <ele>61.935146</ele>
        <time>2022-12-18T12:51:46.635Z</time>
      </trkpt>
      <trkpt lat="46.60199" lon="-1.82731">
        <ele>61.727082</ele>
        <time>2022-12-18T12:51:49.638Z</time>
      </trkpt>
      <trkpt lat="46.60192" lon="-1.82719">
        <ele>61.536767</ele>
        <time>2022-12-18T12:51:52.636Z</time>
      </trkpt>
      <trkpt lat="46.60184" lon="-1.82706">
        <ele>61.318659</ele>
        <time>2022-12-18T12:51:55.639Z</time>
      </trkpt>
      <trkpt lat="46.60176" lon="-1.82691">
        <ele>61.085011</ele>
        <time>2022-12-18T12:51:58.632Z</time>
      </trkpt>
      <trkpt lat="46.6017" lon="-1.82681">
        <ele>60.917308</ele>
        <time>2022-12-18T12:52:00.635Z</time>
      </trkpt>
      <trkpt lat="46.60164" lon="-1.82671">
        <ele>60.74631</ele>
        <time>2022-12-18T12:52:02.647Z</time>
      </trkpt>
      <trkpt lat="46.60157" lon="-1.82659">
        <ele>60.560414</ele>
        <time>2022-12-18T12:52:04.651Z</time>
      </trkpt>
      <trkpt lat="46.60151" lon="-1.82647">
        <ele>60.367573</ele>
        <time>2022-12-18T12:52:06.644Z</time>
      </trkpt>
      <trkpt lat="46.60145" lon="-1.82634">
        <ele>60.171015</ele>
        <time>2022-12-18T12:52:08.643Z</time>
      </trkpt>
      <trkpt lat="46.60138" lon="-1.82618">
        <ele>59.969078</ele>
        <time>2022-12-18T12:52:10.629Z</time>
      </trkpt>
      <trkpt lat="46.60133" lon="-1.82603">
        <ele>59.91598</ele>
        <time>2022-12-18T12:52:12.643Z</time>
      </trkpt>
      <trkpt lat="46.60128" lon="-1.82587">
        <ele>59.863397</ele>
        <time>2022-12-18T12:52:14.641Z</time>
      </trkpt>
      <trkpt lat="46.60123" lon="-1.82573">
        <ele>59.816077</ele>
        <time>2022-12-18T12:52:16.628Z</time>
      </trkpt>
      <trkpt lat="46.60119" lon="-1.8256">
        <ele>59.771613</ele>
        <time>2022-12-18T12:52:18.642Z</time>
      </trkpt>
      <trkpt lat="46.60114" lon="-1.82542">
        <ele>59.712845</ele>
        <time>2022-12-18T12:52:21.654Z</time>
      </trkpt>
      <trkpt lat="46.60111" lon="-1.82529">
        <ele>59.670814</ele>
        <time>2022-12-18T12:52:23.640Z</time>
      </trkpt>
      <trkpt lat="46.60107" lon="-1.82511">
        <ele>59.614238</ele>
        <time>2022-12-18T12:52:26.639Z</time>
      </trkpt>
      <trkpt lat="46.60104" lon="-1.82494">
        <ele>59.559003</ele>
        <time>2022-12-18T12:52:29.619Z</time>
      </trkpt>
      <trkpt lat="46.601" lon="-1.82477">
        <ele>59.505234</ele>
        <time>2022-12-18T12:52:32.637Z</time>
      </trkpt>
      <trkpt lat="46.60097" lon="-1.8246">
        <ele>59.453873</ele>
        <time>2022-12-18T12:52:35.629Z</time>
      </trkpt>
      <trkpt lat="46.60094" lon="-1.82443">
        <ele>59.398271</ele>
        <time>2022-12-18T12:52:38.639Z</time>
      </trkpt>
      <trkpt lat="46.60091" lon="-1.82424">
        <ele>59.341004</ele>
        <time>2022-12-18T12:52:41.645Z</time>
      </trkpt>
      <trkpt lat="46.60089" lon="-1.82407">
        <ele>59.286688</ele>
        <time>2022-12-18T12:52:44.633Z</time>
      </trkpt>
      <trkpt lat="46.60085" lon="-1.8239">
        <ele>59.232505</ele>
        <time>2022-12-18T12:52:47.634Z</time>
      </trkpt>
      <trkpt lat="46.60082" lon="-1.82373">
        <ele>59.17919</ele>
        <time>2022-12-18T12:52:50.625Z</time>
      </trkpt>
      <trkpt lat="46.60079" lon="-1.82355">
        <ele>58.885235</ele>
        <time>2022-12-18T12:52:53.622Z</time>
      </trkpt>
      <trkpt lat="46.60074" lon="-1.82337">
        <ele>58.576986</ele>
        <time>2022-12-18T12:52:56.646Z</time>
      </trkpt>
      <trkpt lat="46.60068" lon="-1.82326">
        <ele>58.358819</ele>
        <time>2022-12-18T12:52:58.649Z</time>
      </trkpt>
      <trkpt lat="46.60061" lon="-1.82318">
        <ele>58.142802</ele>
        <time>2022-12-18T12:53:00.630Z</time>
      </trkpt>
      <trkpt lat="46.60052" lon="-1.82311">
        <ele>57.906395</ele>
        <time>2022-12-18T12:53:02.613Z</time>
      </trkpt>
      <trkpt lat="46.60044" lon="-1.82303">
        <ele>57.665178</ele>
        <time>2022-12-18T12:53:04.638Z</time>
      </trkpt>
      <trkpt lat="46.60035" lon="-1.82293">
        <ele>57.404812</ele>
        <time>2022-12-18T12:53:06.646Z</time>
      </trkpt>
      <trkpt lat="46.60028" lon="-1.82279">
        <ele>57.133972</ele>
        <time>2022-12-18T12:53:08.643Z</time>
      </trkpt>
      <trkpt lat="46.60025" lon="-1.82262">
        <ele>56.860967</ele>
        <time>2022-12-18T12:53:10.648Z</time>
      </trkpt>
      <trkpt lat="46.60025" lon="-1.82244">
        <ele>56.567475</ele>
        <time>2022-12-18T12:53:12.640Z</time>
      </trkpt>
      <trkpt lat="46.60028" lon="-1.82227">
        <ele>56.290182</ele>
        <time>2022-12-18T12:53:14.644Z</time>
      </trkpt>
      <trkpt lat="46.60033" lon="-1.82212">
        <ele>56.005875</ele>
        <time>2022-12-18T12:53:16.644Z</time>
      </trkpt>
      <trkpt lat="46.60039" lon="-1.82197">
        <ele>55.729036</ele>
        <time>2022-12-18T12:53:18.643Z</time>
      </trkpt>
      <trkpt lat="46.60044" lon="-1.82181">
        <ele>55.451294</ele>
        <time>2022-12-18T12:53:20.644Z</time>
      </trkpt>
      <trkpt lat="46.60045" lon="-1.82164">
        <ele>55.177793</ele>
        <time>2022-12-18T12:53:22.624Z</time>
      </trkpt>
      <trkpt lat="46.60043" lon="-1.82147">
        <ele>55.103503</ele>
        <time>2022-12-18T12:53:24.646Z</time>
      </trkpt>
      <trkpt lat="46.60041" lon="-1.82134">
        <ele>55.505033</ele>
        <time>2022-12-18T12:53:26.641Z</time>
      </trkpt>
      <trkpt lat="46.60038" lon="-1.82121">
        <ele>55.928764</ele>
        <time>2022-12-18T12:53:29.619Z</time>
      </trkpt>
      <trkpt lat="46.60034" lon="-1.82107">
        <ele>56.373961</ele>
        <time>2022-12-18T12:53:33.636Z</time>
      </trkpt>
      <trkpt lat="46.6003" lon="-1.82092">
        <ele>56.844048</ele>
        <time>2022-12-18T12:53:37.616Z</time>
      </trkpt>
      <trkpt lat="46.60027" lon="-1.82078">
        <ele>57.283167</ele>
        <time>2022-12-18T12:53:41.626Z</time>
      </trkpt>
      <trkpt lat="46.60022" lon="-1.82063">
        <ele>57.765832</ele>
        <time>2022-12-18T12:53:45.630Z</time>
      </trkpt>
      <trkpt lat="46.60019" lon="-1.82048">
        <ele>58.232839</ele>
        <time>2022-12-18T12:53:49.625Z</time>
      </trkpt>
      <trkpt lat="46.60016" lon="-1.82035">
        <ele>58.647967</ele>
        <time>2022-12-18T12:53:53.634Z</time>
      </trkpt>
      <trkpt lat="46.60012" lon="-1.8202">
        <ele>59.104334</ele>
        <time>2022-12-18T12:54:00.634Z</time>
      </trkpt>
      <trkpt lat="46.60008" lon="-1.82007">
        <ele>59.541034</ele>
        <time>2022-12-18T12:54:06.643Z</time>
      </trkpt>
      <trkpt lat="46.60004" lon="-1.81993">
        <ele>59.994665</ele>
        <time>2022-12-18T12:54:12.660Z</time>
      </trkpt>
      <trkpt lat="46.60001" lon="-1.81978">
        <ele>60.442012</ele>
        <time>2022-12-18T12:54:18.624Z</time>
      </trkpt>
      <trkpt lat="46.59997" lon="-1.81965">
        <ele>60.864127</ele>
        <time>2022-12-18T12:54:23.678Z</time>
      </trkpt>
      <trkpt lat="46.59994" lon="-1.81952">
        <ele>61.26388</ele>
        <time>2022-12-18T12:54:28.640Z</time>
      </trkpt>
      <trkpt lat="46.5999" lon="-1.81939">
        <ele>61.67952</ele>
        <time>2022-12-18T12:54:33.638Z</time>
      </trkpt>
      <trkpt lat="46.59987" lon="-1.81926">
        <ele>62.090477</ele>
        <time>2022-12-18T12:54:38.648Z</time>
      </trkpt>
      <trkpt lat="46.59983" lon="-1.81913">
        <ele>62.517908</ele>
        <time>2022-12-18T12:54:43.636Z</time>
      </trkpt>
      <trkpt lat="46.5998" lon="-1.81899">
        <ele>62.827854</ele>
        <time>2022-12-18T12:54:48.644Z</time>
      </trkpt>
      <trkpt lat="46.59977" lon="-1.81886">
        <ele>63.032685</ele>
        <time>2022-12-18T12:54:53.634Z</time>
      </trkpt>
      <trkpt lat="46.59974" lon="-1.81872">
        <ele>63.250789</ele>
        <time>2022-12-18T12:54:58.640Z</time>
      </trkpt>
      <trkpt lat="46.59971" lon="-1.81858">
        <ele>63.471565</ele>
        <time>2022-12-18T12:55:03.638Z</time>
      </trkpt>
      <trkpt lat="46.59969" lon="-1.81844">
        <ele>63.673584</ele>
        <time>2022-12-18T12:55:07.632Z</time>
      </trkpt>
      <trkpt lat="46.59967" lon="-1.81831">
        <ele>63.870329</ele>
        <time>2022-12-18T12:55:11.644Z</time>
      </trkpt>
      <trkpt lat="46.59965" lon="-1.81818">
        <ele>64.073347</ele>
        <time>2022-12-18T12:55:15.625Z</time>
      </trkpt>
      <trkpt lat="46.59965" lon="-1.81804">
        <ele>64.273813</ele>
        <time>2022-12-18T12:55:19.626Z</time>
      </trkpt>
      <trkpt lat="46.59965" lon="-1.81789">
        <ele>64.489004</ele>
        <time>2022-12-18T12:55:23.620Z</time>
      </trkpt>
      <trkpt lat="46.59964" lon="-1.81773">
        <ele>64.738574</ele>
        <time>2022-12-18T12:55:27.648Z</time>
      </trkpt>
      <trkpt lat="46.59963" lon="-1.81756">
        <ele>64.980956</ele>
        <time>2022-12-18T12:55:31.644Z</time>
      </trkpt>
      <trkpt lat="46.59962" lon="-1.81739">
        <ele>65.238028</ele>
        <time>2022-12-18T12:55:35.639Z</time>
      </trkpt>
      <trkpt lat="46.59961" lon="-1.81725">
        <ele>65.442059</ele>
        <time>2022-12-18T12:55:38.613Z</time>
      </trkpt>
      <trkpt lat="46.59961" lon="-1.81711">
        <ele>65.647391</ele>
        <time>2022-12-18T12:55:41.629Z</time>
      </trkpt>
      <trkpt lat="46.5996" lon="-1.81696">
        <ele>65.871827</ele>
        <time>2022-12-18T12:55:44.633Z</time>
      </trkpt>
      <trkpt lat="46.59959" lon="-1.81679">
        <ele>66.115679</ele>
        <time>2022-12-18T12:55:47.645Z</time>
      </trkpt>
      <trkpt lat="46.59958" lon="-1.81662">
        <ele>66.368516</ele>
        <time>2022-12-18T12:55:50.643Z</time>
      </trkpt>
      <trkpt lat="46.59957" lon="-1.81645">
        <ele>66.584962</ele>
        <time>2022-12-18T12:55:53.614Z</time>
      </trkpt>
      <trkpt lat="46.59956" lon="-1.81627">
        <ele>66.623826</ele>
        <time>2022-12-18T12:55:56.642Z</time>
      </trkpt>
      <trkpt lat="46.59955" lon="-1.81611">
        <ele>66.660408</ele>
        <time>2022-12-18T12:55:59.678Z</time>
      </trkpt>
      <trkpt lat="46.59954" lon="-1.81595">
        <ele>66.69594</ele>
        <time>2022-12-18T12:56:02.618Z</time>
      </trkpt>
      <trkpt lat="46.59953" lon="-1.81578">
        <ele>66.732301</ele>
        <time>2022-12-18T12:56:05.646Z</time>
      </trkpt>
      <trkpt lat="46.59952" lon="-1.81561">
        <ele>66.770036</ele>
        <time>2022-12-18T12:56:08.616Z</time>
      </trkpt>
      <trkpt lat="46.59951" lon="-1.81544">
        <ele>66.807524</ele>
        <time>2022-12-18T12:56:11.640Z</time>
      </trkpt>
      <trkpt lat="46.5995" lon="-1.81527">
        <ele>66.84583</ele>
        <time>2022-12-18T12:56:14.638Z</time>
      </trkpt>
      <trkpt lat="46.59949" lon="-1.8151">
        <ele>66.884666</ele>
        <time>2022-12-18T12:56:17.624Z</time>
      </trkpt>
      <trkpt lat="46.59948" lon="-1.81492">
        <ele>66.924097</ele>
        <time>2022-12-18T12:56:20.632Z</time>
      </trkpt>
      <trkpt lat="46.59947" lon="-1.81474">
        <ele>66.963307</ele>
        <time>2022-12-18T12:56:23.648Z</time>
      </trkpt>
      <trkpt lat="46.59946" lon="-1.81457">
        <ele>67.00085</ele>
        <time>2022-12-18T12:56:26.637Z</time>
      </trkpt>
      <trkpt lat="46.59945" lon="-1.81443">
        <ele>67.033049</ele>
        <time>2022-12-18T12:56:29.636Z</time>
      </trkpt>
      <trkpt lat="46.59944" lon="-1.81427">
        <ele>67.067039</ele>
        <time>2022-12-18T12:56:32.619Z</time>
      </trkpt>
      <trkpt lat="46.59943" lon="-1.81411">
        <ele>67.104283</ele>
        <time>2022-12-18T12:56:35.624Z</time>
      </trkpt>
      <trkpt lat="46.59943" lon="-1.81393">
        <ele>67.143714</ele>
        <time>2022-12-18T12:56:38.628Z</time>
      </trkpt>
      <trkpt lat="46.59942" lon="-1.81375">
        <ele>66.848244</ele>
        <time>2022-12-18T12:56:41.644Z</time>
      </trkpt>
      <trkpt lat="46.59941" lon="-1.81356">
        <ele>66.411063</ele>
        <time>2022-12-18T12:56:44.644Z</time>
      </trkpt>
      <trkpt lat="46.5994" lon="-1.8134">
        <ele>66.013523</ele>
        <time>2022-12-18T12:56:47.641Z</time>
      </trkpt>
      <trkpt lat="46.59939" lon="-1.81324">
        <ele>65.629615</ele>
        <time>2022-12-18T12:56:50.693Z</time>
      </trkpt>
      <trkpt lat="46.59938" lon="-1.81308">
        <ele>65.24499</ele>
        <time>2022-12-18T12:56:53.644Z</time>
      </trkpt>
      <trkpt lat="46.59937" lon="-1.81292">
        <ele>64.85796</ele>
        <time>2022-12-18T12:56:56.635Z</time>
      </trkpt>
      <trkpt lat="46.59937" lon="-1.81276">
        <ele>64.452269</ele>
        <time>2022-12-18T12:56:59.623Z</time>
      </trkpt>
      <trkpt lat="46.59936" lon="-1.81257">
        <ele>64.001559</ele>
        <time>2022-12-18T12:57:02.640Z</time>
      </trkpt>
      <trkpt lat="46.59934" lon="-1.81243">
        <ele>63.663918</ele>
        <time>2022-12-18T12:57:04.635Z</time>
      </trkpt>
      <trkpt lat="46.59932" lon="-1.81229">
        <ele>63.321519</ele>
        <time>2022-12-18T12:57:06.630Z</time>
      </trkpt>
      <trkpt lat="46.59929" lon="-1.81215">
        <ele>62.95285</ele>
        <time>2022-12-18T12:57:08.642Z</time>
      </trkpt>
      <trkpt lat="46.59925" lon="-1.81199">
        <ele>62.546381</ele>
        <time>2022-12-18T12:57:10.644Z</time>
      </trkpt>
      <trkpt lat="46.59919" lon="-1.81182">
        <ele>62.091195</ele>
        <time>2022-12-18T12:57:12.645Z</time>
      </trkpt>
      <trkpt lat="46.59912" lon="-1.81165">
        <ele>61.609945</ele>
        <time>2022-12-18T12:57:14.623Z</time>
      </trkpt>
      <trkpt lat="46.59902" lon="-1.81149">
        <ele>61.082782</ele>
        <time>2022-12-18T12:57:16.650Z</time>
      </trkpt>
      <trkpt lat="46.59891" lon="-1.81132">
        <ele>60.365267</ele>
        <time>2022-12-18T12:57:18.640Z</time>
      </trkpt>
      <trkpt lat="46.5988" lon="-1.81116">
        <ele>59.555034</ele>
        <time>2022-12-18T12:57:20.618Z</time>
      </trkpt>
      <trkpt lat="46.59868" lon="-1.811">
        <ele>58.685056</ele>
        <time>2022-12-18T12:57:22.689Z</time>
      </trkpt>
      <trkpt lat="46.59855" lon="-1.81083">
        <ele>57.807199</ele>
        <time>2022-12-18T12:57:24.640Z</time>
      </trkpt>
      <trkpt lat="46.59843" lon="-1.81067">
        <ele>56.926915</ele>
        <time>2022-12-18T12:57:26.625Z</time>
      </trkpt>
      <trkpt lat="46.5983" lon="-1.8105">
        <ele>56.027798</ele>
        <time>2022-12-18T12:57:28.633Z</time>
      </trkpt>
      <trkpt lat="46.59819" lon="-1.81033">
        <ele>55.176063</ele>
        <time>2022-12-18T12:57:30.647Z</time>
      </trkpt>
      <trkpt lat="46.59806" lon="-1.81015">
        <ele>54.287312</ele>
        <time>2022-12-18T12:57:32.643Z</time>
      </trkpt>
      <trkpt lat="46.59799" lon="-1.81007">
        <ele>53.804017</ele>
        <time>2022-12-18T12:57:33.710Z</time>
      </trkpt>
      <trkpt lat="46.59793" lon="-1.80998">
        <ele>53.329365</ele>
        <time>2022-12-18T12:57:34.645Z</time>
      </trkpt>
      <trkpt lat="46.59786" lon="-1.80989">
        <ele>52.850011</ele>
        <time>2022-12-18T12:57:35.645Z</time>
      </trkpt>
      <trkpt lat="46.59779" lon="-1.8098">
        <ele>52.378466</ele>
        <time>2022-12-18T12:57:36.646Z</time>
      </trkpt>
      <trkpt lat="46.59766" lon="-1.80963">
        <ele>51.459498</ele>
        <time>2022-12-18T12:57:38.646Z</time>
      </trkpt>
      <trkpt lat="46.59759" lon="-1.80954">
        <ele>51.305284</ele>
        <time>2022-12-18T12:57:39.636Z</time>
      </trkpt>
      <trkpt lat="46.59746" lon="-1.80938">
        <ele>51.033996</ele>
        <time>2022-12-18T12:57:41.639Z</time>
      </trkpt>
      <trkpt lat="46.59734" lon="-1.80923">
        <ele>50.776519</ele>
        <time>2022-12-18T12:57:43.645Z</time>
      </trkpt>
      <trkpt lat="46.59723" lon="-1.80908">
        <ele>50.538925</ele>
        <time>2022-12-18T12:57:45.636Z</time>
      </trkpt>
      <trkpt lat="46.59711" lon="-1.80894">
        <ele>50.299026</ele>
        <time>2022-12-18T12:57:47.643Z</time>
      </trkpt>
      <trkpt lat="46.59701" lon="-1.8088">
        <ele>50.084895</ele>
        <time>2022-12-18T12:57:49.697Z</time>
      </trkpt>
      <trkpt lat="46.59692" lon="-1.80867">
        <ele>49.874144</ele>
        <time>2022-12-18T12:57:51.638Z</time>
      </trkpt>
      <trkpt lat="46.59682" lon="-1.80855">
        <ele>49.672901</ele>
        <time>2022-12-18T12:57:53.632Z</time>
      </trkpt>
      <trkpt lat="46.59674" lon="-1.80842">
        <ele>49.481163</ele>
        <time>2022-12-18T12:57:55.633Z</time>
      </trkpt>
      <trkpt lat="46.59665" lon="-1.80831">
        <ele>49.291474</ele>
        <time>2022-12-18T12:57:57.651Z</time>
      </trkpt>
      <trkpt lat="46.59657" lon="-1.80819">
        <ele>49.121089</ele>
        <time>2022-12-18T12:57:59.636Z</time>
      </trkpt>
      <trkpt lat="46.5965" lon="-1.80808">
        <ele>48.951716</ele>
        <time>2022-12-18T12:58:01.643Z</time>
      </trkpt>
      <trkpt lat="46.59642" lon="-1.80797">
        <ele>48.777402</ele>
        <time>2022-12-18T12:58:03.647Z</time>
      </trkpt>
      <trkpt lat="46.59633" lon="-1.80786">
        <ele>48.598734</ele>
        <time>2022-12-18T12:58:05.644Z</time>
      </trkpt>
      <trkpt lat="46.59624" lon="-1.80774">
        <ele>48.784296</ele>
        <time>2022-12-18T12:58:07.644Z</time>
      </trkpt>
      <trkpt lat="46.59616" lon="-1.80763">
        <ele>48.961604</ele>
        <time>2022-12-18T12:58:09.648Z</time>
      </trkpt>
      <trkpt lat="46.59607" lon="-1.80751">
        <ele>49.146455</ele>
        <time>2022-12-18T12:58:11.662Z</time>
      </trkpt>
      <trkpt lat="46.59598" lon="-1.80739">
        <ele>49.336028</ele>
        <time>2022-12-18T12:58:13.646Z</time>
      </trkpt>
      <trkpt lat="46.59589" lon="-1.80728">
        <ele>49.512291</ele>
        <time>2022-12-18T12:58:15.641Z</time>
      </trkpt>
      <trkpt lat="46.59581" lon="-1.80717">
        <ele>49.689274</ele>
        <time>2022-12-18T12:58:17.649Z</time>
      </trkpt>
      <trkpt lat="46.59573" lon="-1.80706">
        <ele>49.854731</ele>
        <time>2022-12-18T12:58:19.647Z</time>
      </trkpt>
      <trkpt lat="46.59566" lon="-1.80696">
        <ele>50.003549</ele>
        <time>2022-12-18T12:58:21.646Z</time>
      </trkpt>
      <trkpt lat="46.59557" lon="-1.80683">
        <ele>50.204935</ele>
        <time>2022-12-18T12:58:24.645Z</time>
      </trkpt>
      <trkpt lat="46.59549" lon="-1.80671">
        <ele>50.384648</ele>
        <time>2022-12-18T12:58:27.694Z</time>
      </trkpt>
      <trkpt lat="46.59541" lon="-1.80662">
        <ele>50.534594</ele>
        <time>2022-12-18T12:58:30.634Z</time>
      </trkpt>
      <trkpt lat="46.59533" lon="-1.80651">
        <ele>50.706422</ele>
        <time>2022-12-18T12:58:34.633Z</time>
      </trkpt>
      <trkpt lat="46.59526" lon="-1.8064">
        <ele>50.867481</ele>
        <time>2022-12-18T12:58:38.679Z</time>
      </trkpt>
      <trkpt lat="46.59518" lon="-1.8063">
        <ele>51.03345</ele>
        <time>2022-12-18T12:58:42.650Z</time>
      </trkpt>
      <trkpt lat="46.5951" lon="-1.80619">
        <ele>51.196711</ele>
        <time>2022-12-18T12:58:46.639Z</time>
      </trkpt>
      <trkpt lat="46.59503" lon="-1.80611">
        <ele>51.340582</ele>
        <time>2022-12-18T12:58:50.647Z</time>
      </trkpt>
      <trkpt lat="46.59494" lon="-1.806">
        <ele>51.44882</ele>
        <time>2022-12-18T12:58:55.645Z</time>
      </trkpt>
      <trkpt lat="46.59487" lon="-1.80591">
        <ele>51.526745</ele>
        <time>2022-12-18T12:58:59.647Z</time>
      </trkpt>
      <trkpt lat="46.59479" lon="-1.80581">
        <ele>51.609391</ele>
        <time>2022-12-18T12:59:04.649Z</time>
      </trkpt>
      <trkpt lat="46.59472" lon="-1.80572">
        <ele>51.685101</ele>
        <time>2022-12-18T12:59:08.641Z</time>
      </trkpt>
      <trkpt lat="46.59464" lon="-1.80562">
        <ele>51.773759</ele>
        <time>2022-12-18T12:59:12.644Z</time>
      </trkpt>
      <trkpt lat="46.59457" lon="-1.80553">
        <ele>51.852655</ele>
        <time>2022-12-18T12:59:15.622Z</time>
      </trkpt>
      <trkpt lat="46.59449" lon="-1.80542">
        <ele>51.939443</ele>
        <time>2022-12-18T12:59:18.652Z</time>
      </trkpt>
      <trkpt lat="46.59441" lon="-1.80531">
        <ele>52.02723</ele>
        <time>2022-12-18T12:59:21.634Z</time>
      </trkpt>
      <trkpt lat="46.59433" lon="-1.8052">
        <ele>52.119059</ele>
        <time>2022-12-18T12:59:24.639Z</time>
      </trkpt>
      <trkpt lat="46.59424" lon="-1.80508">
        <ele>52.212807</ele>
        <time>2022-12-18T12:59:27.639Z</time>
      </trkpt>
      <trkpt lat="46.59416" lon="-1.80497">
        <ele>52.304636</ele>
        <time>2022-12-18T12:59:30.648Z</time>
      </trkpt>
      <trkpt lat="46.59408" lon="-1.80486">
        <ele>52.393019</ele>
        <time>2022-12-18T12:59:33.638Z</time>
      </trkpt>
      <trkpt lat="46.594" lon="-1.80474">
        <ele>52.484447</ele>
        <time>2022-12-18T12:59:36.628Z</time>
      </trkpt>
      <trkpt lat="46.59392" lon="-1.80463">
        <ele>52.57472</ele>
        <time>2022-12-18T12:59:39.636Z</time>
      </trkpt>
      <trkpt lat="46.59384" lon="-1.80452">
        <ele>52.660021</ele>
        <time>2022-12-18T12:59:42.647Z</time>
      </trkpt>
      <trkpt lat="46.59377" lon="-1.80442">
        <ele>52.741786</ele>
        <time>2022-12-18T12:59:45.650Z</time>
      </trkpt>
      <trkpt lat="46.5937" lon="-1.80432">
        <ele>52.821058</ele>
        <time>2022-12-18T12:59:48.646Z</time>
      </trkpt>
      <trkpt lat="46.59363" lon="-1.80422">
        <ele>52.844699</ele>
        <time>2022-12-18T12:59:51.630Z</time>
      </trkpt>
      <trkpt lat="46.59355" lon="-1.80412">
        <ele>52.861969</ele>
        <time>2022-12-18T12:59:54.637Z</time>
      </trkpt>
      <trkpt lat="46.59348" lon="-1.80402">
        <ele>52.878635</ele>
        <time>2022-12-18T12:59:57.635Z</time>
      </trkpt>
      <trkpt lat="46.5934" lon="-1.80392">
        <ele>52.894935</ele>
        <time>2022-12-18T13:00:00.641Z</time>
      </trkpt>
      <trkpt lat="46.59333" lon="-1.80383">
        <ele>52.910566</ele>
        <time>2022-12-18T13:00:03.639Z</time>
      </trkpt>
      <trkpt lat="46.59326" lon="-1.80374">
        <ele>52.926099</ele>
        <time>2022-12-18T13:00:06.621Z</time>
      </trkpt>
      <trkpt lat="46.59319" lon="-1.80365">
        <ele>52.941804</ele>
        <time>2022-12-18T13:00:09.630Z</time>
      </trkpt>
      <trkpt lat="46.59312" lon="-1.80356">
        <ele>52.957064</ele>
        <time>2022-12-18T13:00:12.621Z</time>
      </trkpt>
      <trkpt lat="46.59305" lon="-1.80347">
        <ele>52.972469</ele>
        <time>2022-12-18T13:00:15.645Z</time>
      </trkpt>
      <trkpt lat="46.59298" lon="-1.80337">
        <ele>52.988429</ele>
        <time>2022-12-18T13:00:18.642Z</time>
      </trkpt>
      <trkpt lat="46.5929" lon="-1.80328">
        <ele>53.004855</ele>
        <time>2022-12-18T13:00:21.648Z</time>
      </trkpt>
      <trkpt lat="46.59283" lon="-1.80318">
        <ele>53.021531</ele>
        <time>2022-12-18T13:00:24.635Z</time>
      </trkpt>
      <trkpt lat="46.59276" lon="-1.80307">
        <ele>53.038275</ele>
        <time>2022-12-18T13:00:27.647Z</time>
      </trkpt>
      <trkpt lat="46.59268" lon="-1.80297">
        <ele>53.054744</ele>
        <time>2022-12-18T13:00:30.628Z</time>
      </trkpt>
      <trkpt lat="46.59261" lon="-1.80287">
        <ele>53.071255</ele>
        <time>2022-12-18T13:00:33.622Z</time>
      </trkpt>
      <trkpt lat="46.59253" lon="-1.80278">
        <ele>53.088277</ele>
        <time>2022-12-18T13:00:36.647Z</time>
      </trkpt>
      <trkpt lat="46.59246" lon="-1.80268">
        <ele>53.104273</ele>
        <time>2022-12-18T13:00:39.637Z</time>
      </trkpt>
      <trkpt lat="46.59239" lon="-1.80259">
        <ele>53.119613</ele>
        <time>2022-12-18T13:00:42.637Z</time>
      </trkpt>
      <trkpt lat="46.59231" lon="-1.80247">
        <ele>53.13769</ele>
        <time>2022-12-18T13:00:46.647Z</time>
      </trkpt>
      <trkpt lat="46.59223" lon="-1.80238">
        <ele>53.151919</ele>
        <time>2022-12-18T13:00:49.695Z</time>
      </trkpt>
      <trkpt lat="46.59216" lon="-1.80226">
        <ele>53.168246</ele>
        <time>2022-12-18T13:00:52.652Z</time>
      </trkpt>
      <trkpt lat="46.59206" lon="-1.80214">
        <ele>53.186033</ele>
        <time>2022-12-18T13:00:55.631Z</time>
      </trkpt>
      <trkpt lat="46.592" lon="-1.80205">
        <ele>53.199424</ele>
        <time>2022-12-18T13:00:57.632Z</time>
      </trkpt>
      <trkpt lat="46.59192" lon="-1.80195">
        <ele>53.214736</ele>
        <time>2022-12-18T13:00:59.646Z</time>
      </trkpt>
      <trkpt lat="46.59184" lon="-1.80184">
        <ele>53.231343</ele>
        <time>2022-12-18T13:01:01.616Z</time>
      </trkpt>
      <trkpt lat="46.59175" lon="-1.80172">
        <ele>53.248274</ele>
        <time>2022-12-18T13:01:03.646Z</time>
      </trkpt>
      <trkpt lat="46.59167" lon="-1.80162">
        <ele>53.263761</ele>
        <time>2022-12-18T13:01:05.694Z</time>
      </trkpt>
      <trkpt lat="46.5916" lon="-1.80152">
        <ele>53.277543</ele>
        <time>2022-12-18T13:01:07.645Z</time>
      </trkpt>
      <trkpt lat="46.59153" lon="-1.80142">
        <ele>53.293381</ele>
        <time>2022-12-18T13:01:10.626Z</time>
      </trkpt>
      <trkpt lat="46.59145" lon="-1.80131">
        <ele>53.308482</ele>
        <time>2022-12-18T13:01:13.648Z</time>
      </trkpt>
      <trkpt lat="46.59138" lon="-1.8012">
        <ele>53.323796</ele>
        <time>2022-12-18T13:01:16.661Z</time>
      </trkpt>
      <trkpt lat="46.59131" lon="-1.80109">
        <ele>53.33917</ele>
        <time>2022-12-18T13:01:19.634Z</time>
      </trkpt>
      <trkpt lat="46.59124" lon="-1.80099">
        <ele>53.353757</ele>
        <time>2022-12-18T13:01:22.626Z</time>
      </trkpt>
      <trkpt lat="46.59117" lon="-1.80088">
        <ele>53.368218</ele>
        <time>2022-12-18T13:01:25.631Z</time>
      </trkpt>
      <trkpt lat="46.5911" lon="-1.80077">
        <ele>53.382655</ele>
        <time>2022-12-18T13:01:28.637Z</time>
      </trkpt>
      <trkpt lat="46.59104" lon="-1.80067">
        <ele>53.346087</ele>
        <time>2022-12-18T13:01:31.638Z</time>
      </trkpt>
      <trkpt lat="46.59098" lon="-1.80056">
        <ele>53.272374</ele>
        <time>2022-12-18T13:01:34.646Z</time>
      </trkpt>
      <trkpt lat="46.5909" lon="-1.80044">
        <ele>53.180789</ele>
        <time>2022-12-18T13:01:38.626Z</time>
      </trkpt>
      <trkpt lat="46.59083" lon="-1.80032">
        <ele>53.08768</ele>
        <time>2022-12-18T13:01:42.620Z</time>
      </trkpt>
      <trkpt lat="46.59077" lon="-1.80021">
        <ele>53.012178</ele>
        <time>2022-12-18T13:01:45.638Z</time>
      </trkpt>
      <trkpt lat="46.5907" lon="-1.8001">
        <ele>52.93105</ele>
        <time>2022-12-18T13:01:49.643Z</time>
      </trkpt>
      <trkpt lat="46.59063" lon="-1.79998">
        <ele>52.842752</ele>
        <time>2022-12-18T13:01:53.619Z</time>
      </trkpt>
      <trkpt lat="46.59056" lon="-1.79988">
        <ele>52.765841</ele>
        <time>2022-12-18T13:01:56.645Z</time>
      </trkpt>
      <trkpt lat="46.59049" lon="-1.79977">
        <ele>52.683043</ele>
        <time>2022-12-18T13:01:59.619Z</time>
      </trkpt>
      <trkpt lat="46.59042" lon="-1.79965">
        <ele>52.594745</ele>
        <time>2022-12-18T13:02:02.642Z</time>
      </trkpt>
      <trkpt lat="46.59034" lon="-1.79953">
        <ele>52.50422</ele>
        <time>2022-12-18T13:02:05.630Z</time>
      </trkpt>
      <trkpt lat="46.59027" lon="-1.79941">
        <ele>52.414803</ele>
        <time>2022-12-18T13:02:08.627Z</time>
      </trkpt>
      <trkpt lat="46.5902" lon="-1.79931">
        <ele>52.333123</ele>
        <time>2022-12-18T13:02:11.639Z</time>
      </trkpt>
      <trkpt lat="46.59013" lon="-1.7992">
        <ele>52.256347</ele>
        <time>2022-12-18T13:02:14.650Z</time>
      </trkpt>
      <trkpt lat="46.59006" lon="-1.7991">
        <ele>52.176719</ele>
        <time>2022-12-18T13:02:17.644Z</time>
      </trkpt>
      <trkpt lat="46.58999" lon="-1.79898">
        <ele>52.091924</ele>
        <time>2022-12-18T13:02:20.696Z</time>
      </trkpt>
      <trkpt lat="46.58992" lon="-1.79887">
        <ele>52.004413</ele>
        <time>2022-12-18T13:02:23.647Z</time>
      </trkpt>
      <trkpt lat="46.58984" lon="-1.79874">
        <ele>51.861356</ele>
        <time>2022-12-18T13:02:26.647Z</time>
      </trkpt>
      <trkpt lat="46.58976" lon="-1.79862">
        <ele>51.611984</ele>
        <time>2022-12-18T13:02:29.638Z</time>
      </trkpt>
      <trkpt lat="46.58968" lon="-1.7985">
        <ele>51.350831</ele>
        <time>2022-12-18T13:02:32.637Z</time>
      </trkpt>
      <trkpt lat="46.58958" lon="-1.79837">
        <ele>51.072952</ele>
        <time>2022-12-18T13:02:35.627Z</time>
      </trkpt>
      <trkpt lat="46.58948" lon="-1.79825">
        <ele>50.773294</ele>
        <time>2022-12-18T13:02:38.636Z</time>
      </trkpt>
      <trkpt lat="46.5894" lon="-1.79817">
        <ele>50.571969</ele>
        <time>2022-12-18T13:02:40.646Z</time>
      </trkpt>
      <trkpt lat="46.58931" lon="-1.79808">
        <ele>50.334228</ele>
        <time>2022-12-18T13:02:42.648Z</time>
      </trkpt>
      <trkpt lat="46.58921" lon="-1.798">
        <ele>50.092811</ele>
        <time>2022-12-18T13:02:44.647Z</time>
      </trkpt>
      <trkpt lat="46.58911" lon="-1.79793">
        <ele>49.849312</ele>
        <time>2022-12-18T13:02:46.633Z</time>
      </trkpt>
      <trkpt lat="46.58901" lon="-1.79786">
        <ele>49.612957</ele>
        <time>2022-12-18T13:02:48.643Z</time>
      </trkpt>
      <trkpt lat="46.58891" lon="-1.7978">
        <ele>49.376232</ele>
        <time>2022-12-18T13:02:50.647Z</time>
      </trkpt>
      <trkpt lat="46.58881" lon="-1.79775">
        <ele>49.146833</ele>
        <time>2022-12-18T13:02:52.623Z</time>
      </trkpt>
      <trkpt lat="46.58872" lon="-1.79769">
        <ele>48.935734</ele>
        <time>2022-12-18T13:02:54.632Z</time>
      </trkpt>
      <trkpt lat="46.58864" lon="-1.79764">
        <ele>48.737055</ele>
        <time>2022-12-18T13:02:56.643Z</time>
      </trkpt>
      <trkpt lat="46.58852" lon="-1.79755">
        <ele>48.461</ele>
        <time>2022-12-18T13:02:59.627Z</time>
      </trkpt>
      <trkpt lat="46.58842" lon="-1.79748">
        <ele>48.206846</ele>
        <time>2022-12-18T13:03:02.657Z</time>
      </trkpt>
      <trkpt lat="46.58832" lon="-1.79742">
        <ele>48.12624</ele>
        <time>2022-12-18T13:03:05.647Z</time>
      </trkpt>
      <trkpt lat="46.58823" lon="-1.79736">
        <ele>48.344069</ele>
        <time>2022-12-18T13:03:08.646Z</time>
      </trkpt>
      <trkpt lat="46.58813" lon="-1.7973">
        <ele>48.598215</ele>
        <time>2022-12-18T13:03:12.628Z</time>
      </trkpt>
      <trkpt lat="46.58802" lon="-1.79724">
        <ele>48.859506</ele>
        <time>2022-12-18T13:03:16.650Z</time>
      </trkpt>
      <trkpt lat="46.58792" lon="-1.79718">
        <ele>49.116919</ele>
        <time>2022-12-18T13:03:20.643Z</time>
      </trkpt>
      <trkpt lat="46.58782" lon="-1.79711">
        <ele>49.35866</ele>
        <time>2022-12-18T13:03:24.647Z</time>
      </trkpt>
      <trkpt lat="46.58771" lon="-1.79706">
        <ele>49.613276</ele>
        <time>2022-12-18T13:03:28.637Z</time>
      </trkpt>
      <trkpt lat="46.58762" lon="-1.797">
        <ele>49.855959</ele>
        <time>2022-12-18T13:03:32.643Z</time>
      </trkpt>
      <trkpt lat="46.58752" lon="-1.79694">
        <ele>50.095674</ele>
        <time>2022-12-18T13:03:36.644Z</time>
      </trkpt>
      <trkpt lat="46.58742" lon="-1.79689">
        <ele>50.332698</ele>
        <time>2022-12-18T13:03:40.628Z</time>
      </trkpt>
      <trkpt lat="46.58733" lon="-1.79683">
        <ele>50.567871</ele>
        <time>2022-12-18T13:03:44.635Z</time>
      </trkpt>
      <trkpt lat="46.58722" lon="-1.79676">
        <ele>50.830184</ele>
        <time>2022-12-18T13:03:48.635Z</time>
      </trkpt>
      <trkpt lat="46.58712" lon="-1.7967">
        <ele>51.07678</ele>
        <time>2022-12-18T13:03:52.650Z</time>
      </trkpt>
      <trkpt lat="46.58703" lon="-1.79665">
        <ele>51.299372</ele>
        <time>2022-12-18T13:03:57.646Z</time>
      </trkpt>
      <trkpt lat="46.58693" lon="-1.7966">
        <ele>51.534854</ele>
        <time>2022-12-18T13:04:02.627Z</time>
      </trkpt>
      <trkpt lat="46.58683" lon="-1.79653">
        <ele>51.788638</ele>
        <time>2022-12-18T13:04:07.622Z</time>
      </trkpt>
      <trkpt lat="46.58674" lon="-1.79647">
        <ele>52.019479</ele>
        <time>2022-12-18T13:04:12.640Z</time>
      </trkpt>
      <trkpt lat="46.58664" lon="-1.79641">
        <ele>52.375483</ele>
        <time>2022-12-18T13:04:17.691Z</time>
      </trkpt>
      <trkpt lat="46.58654" lon="-1.79635">
        <ele>52.83676</ele>
        <time>2022-12-18T13:04:22.629Z</time>
      </trkpt>
      <trkpt lat="46.58644" lon="-1.79629">
        <ele>53.287385</ele>
        <time>2022-12-18T13:04:27.643Z</time>
      </trkpt>
      <trkpt lat="46.58634" lon="-1.79623">
        <ele>53.743047</ele>
        <time>2022-12-18T13:04:32.643Z</time>
      </trkpt>
      <trkpt lat="46.58625" lon="-1.79616">
        <ele>54.171519</ele>
        <time>2022-12-18T13:04:37.638Z</time>
      </trkpt>
      <trkpt lat="46.58616" lon="-1.7961">
        <ele>54.596469</ele>
        <time>2022-12-18T13:04:42.636Z</time>
      </trkpt>
      <trkpt lat="46.58607" lon="-1.79606">
        <ele>54.993929</ele>
        <time>2022-12-18T13:04:47.648Z</time>
      </trkpt>
      <trkpt lat="46.58597" lon="-1.79601">
        <ele>55.419125</ele>
        <time>2022-12-18T13:04:52.641Z</time>
      </trkpt>
      <trkpt lat="46.58589" lon="-1.79596">
        <ele>55.811639</ele>
        <time>2022-12-18T13:04:57.640Z</time>
      </trkpt>
      <trkpt lat="46.5858" lon="-1.79591">
        <ele>56.224898</ele>
        <time>2022-12-18T13:05:02.636Z</time>
      </trkpt>
      <trkpt lat="46.58571" lon="-1.79586">
        <ele>56.611797</ele>
        <time>2022-12-18T13:05:07.625Z</time>
      </trkpt>
      <trkpt lat="46.58562" lon="-1.7958">
        <ele>57.020054</ele>
        <time>2022-12-18T13:05:12.648Z</time>
      </trkpt>
      <trkpt lat="46.58554" lon="-1.79575">
        <ele>57.4198</ele>
        <time>2022-12-18T13:05:17.639Z</time>
      </trkpt>
      <trkpt lat="46.58545" lon="-1.7957">
        <ele>57.819546</ele>
        <time>2022-12-18T13:05:22.638Z</time>
      </trkpt>
      <trkpt lat="46.58537" lon="-1.79563">
        <ele>58.207892</ele>
        <time>2022-12-18T13:05:27.623Z</time>
      </trkpt>
      <trkpt lat="46.58528" lon="-1.79558">
        <ele>58.608773</ele>
        <time>2022-12-18T13:05:32.637Z</time>
      </trkpt>
      <trkpt lat="46.58518" lon="-1.79552">
        <ele>59.069476</ele>
        <time>2022-12-18T13:05:37.651Z</time>
      </trkpt>
      <trkpt lat="46.58508" lon="-1.79546">
        <ele>59.53449</ele>
        <time>2022-12-18T13:05:42.646Z</time>
      </trkpt>
      <trkpt lat="46.58498" lon="-1.7954">
        <ele>59.698577</ele>
        <time>2022-12-18T13:05:47.648Z</time>
      </trkpt>
      <trkpt lat="46.5849" lon="-1.79535">
        <ele>59.578643</ele>
        <time>2022-12-18T13:05:51.657Z</time>
      </trkpt>
      <trkpt lat="46.5848" lon="-1.79529">
        <ele>59.450027</ele>
        <time>2022-12-18T13:05:55.630Z</time>
      </trkpt>
      <trkpt lat="46.5847" lon="-1.79524">
        <ele>59.30809</ele>
        <time>2022-12-18T13:05:59.629Z</time>
      </trkpt>
      <trkpt lat="46.58461" lon="-1.79517">
        <ele>59.171185</ele>
        <time>2022-12-18T13:06:03.641Z</time>
      </trkpt>
      <trkpt lat="46.58451" lon="-1.79511">
        <ele>59.039271</ele>
        <time>2022-12-18T13:06:07.621Z</time>
      </trkpt>
      <trkpt lat="46.58441" lon="-1.79505">
        <ele>58.895471</ele>
        <time>2022-12-18T13:06:11.630Z</time>
      </trkpt>
      <trkpt lat="46.5843" lon="-1.79498">
        <ele>58.738346</ele>
        <time>2022-12-18T13:06:15.620Z</time>
      </trkpt>
      <trkpt lat="46.5842" lon="-1.79493">
        <ele>58.608305</ele>
        <time>2022-12-18T13:06:18.649Z</time>
      </trkpt>
      <trkpt lat="46.58411" lon="-1.79486">
        <ele>58.472931</ele>
        <time>2022-12-18T13:06:21.627Z</time>
      </trkpt>
      <trkpt lat="46.58402" lon="-1.79482">
        <ele>58.351089</ele>
        <time>2022-12-18T13:06:24.648Z</time>
      </trkpt>
      <trkpt lat="46.58392" lon="-1.79474">
        <ele>58.204876</ele>
        <time>2022-12-18T13:06:28.621Z</time>
      </trkpt>
      <trkpt lat="46.58383" lon="-1.79469">
        <ele>58.085023</ele>
        <time>2022-12-18T13:06:31.692Z</time>
      </trkpt>
      <trkpt lat="46.58373" lon="-1.79462">
        <ele>57.944111</ele>
        <time>2022-12-18T13:06:34.628Z</time>
      </trkpt>
      <trkpt lat="46.58363" lon="-1.79455">
        <ele>57.792406</ele>
        <time>2022-12-18T13:06:37.653Z</time>
      </trkpt>
      <trkpt lat="46.58351" lon="-1.79448">
        <ele>57.622334</ele>
        <time>2022-12-18T13:06:40.636Z</time>
      </trkpt>
      <trkpt lat="46.58342" lon="-1.79442">
        <ele>57.498954</ele>
        <time>2022-12-18T13:06:42.630Z</time>
      </trkpt>
      <trkpt lat="46.58333" lon="-1.79436">
        <ele>57.403107</ele>
        <time>2022-12-18T13:06:44.651Z</time>
      </trkpt>
      <trkpt lat="46.58324" lon="-1.7943">
        <ele>57.326421</ele>
        <time>2022-12-18T13:06:46.646Z</time>
      </trkpt>
      <trkpt lat="46.58314" lon="-1.79424">
        <ele>57.25221</ele>
        <time>2022-12-18T13:06:48.648Z</time>
      </trkpt>
      <trkpt lat="46.58304" lon="-1.79418">
        <ele>57.173949</ele>
        <time>2022-12-18T13:06:50.646Z</time>
      </trkpt>
      <trkpt lat="46.58294" lon="-1.79411">
        <ele>57.091391</ele>
        <time>2022-12-18T13:06:52.647Z</time>
      </trkpt>
      <trkpt lat="46.58283" lon="-1.79405">
        <ele>57.004531</ele>
        <time>2022-12-18T13:06:54.645Z</time>
      </trkpt>
      <trkpt lat="46.58272" lon="-1.79398">
        <ele>56.916168</ele>
        <time>2022-12-18T13:06:56.644Z</time>
      </trkpt>
      <trkpt lat="46.58261" lon="-1.79392">
        <ele>56.826897</ele>
        <time>2022-12-18T13:06:58.647Z</time>
      </trkpt>
      <trkpt lat="46.58249" lon="-1.79384">
        <ele>56.730015</ele>
        <time>2022-12-18T13:07:00.647Z</time>
      </trkpt>
      <trkpt lat="46.58237" lon="-1.79377">
        <ele>56.640633</ele>
        <time>2022-12-18T13:07:02.649Z</time>
      </trkpt>
      <trkpt lat="46.58226" lon="-1.7937">
        <ele>56.550726</ele>
        <time>2022-12-18T13:07:04.646Z</time>
      </trkpt>
      <trkpt lat="46.58216" lon="-1.79363">
        <ele>56.467666</ele>
        <time>2022-12-18T13:07:06.652Z</time>
      </trkpt>
      <trkpt lat="46.58206" lon="-1.79357">
        <ele>56.388765</ele>
        <time>2022-12-18T13:07:08.644Z</time>
      </trkpt>
      <trkpt lat="46.58197" lon="-1.79351">
        <ele>56.318284</ele>
        <time>2022-12-18T13:07:10.642Z</time>
      </trkpt>
      <trkpt lat="46.58189" lon="-1.79345">
        <ele>56.252196</ele>
        <time>2022-12-18T13:07:12.647Z</time>
      </trkpt>
      <trkpt lat="46.58178" lon="-1.79339">
        <ele>56.163102</ele>
        <time>2022-12-18T13:07:15.639Z</time>
      </trkpt>
      <trkpt lat="46.58166" lon="-1.79332">
        <ele>55.983209</ele>
        <time>2022-12-18T13:07:18.631Z</time>
      </trkpt>
      <trkpt lat="46.58154" lon="-1.79324">
        <ele>55.721218</ele>
        <time>2022-12-18T13:07:21.649Z</time>
      </trkpt>
      <trkpt lat="46.58142" lon="-1.79317">
        <ele>55.463105</ele>
        <time>2022-12-18T13:07:24.629Z</time>
      </trkpt>
      <trkpt lat="46.5813" lon="-1.7931">
        <ele>55.216378</ele>
        <time>2022-12-18T13:07:27.629Z</time>
      </trkpt>
      <trkpt lat="46.58119" lon="-1.79303">
        <ele>54.971457</ele>
        <time>2022-12-18T13:07:30.656Z</time>
      </trkpt>
      <trkpt lat="46.58107" lon="-1.79296">
        <ele>54.720804</ele>
        <time>2022-12-18T13:07:33.627Z</time>
      </trkpt>
      <trkpt lat="46.58095" lon="-1.7929">
        <ele>54.48307</ele>
        <time>2022-12-18T13:07:36.651Z</time>
      </trkpt>
      <trkpt lat="46.58084" lon="-1.79283">
        <ele>54.246665</ele>
        <time>2022-12-18T13:07:39.637Z</time>
      </trkpt>
      <trkpt lat="46.58073" lon="-1.79276">
        <ele>54.014867</ele>
        <time>2022-12-18T13:07:42.624Z</time>
      </trkpt>
      <trkpt lat="46.58063" lon="-1.7927">
        <ele>53.784684</ele>
        <time>2022-12-18T13:07:45.646Z</time>
      </trkpt>
      <trkpt lat="46.58052" lon="-1.79264">
        <ele>53.564965</ele>
        <time>2022-12-18T13:07:48.618Z</time>
      </trkpt>
      <trkpt lat="46.58043" lon="-1.79261">
        <ele>53.381477</ele>
        <time>2022-12-18T13:07:51.646Z</time>
      </trkpt>
      <trkpt lat="46.58038" lon="-1.79255">
        <ele>53.25762</ele>
        <time>2022-12-18T13:08:36.013Z</time>
      </trkpt>
      <trkpt lat="46.58027" lon="-1.79247">
        <ele>53.018874</ele>
        <time>2022-12-18T13:19:03.631Z</time>
      </trkpt>
      <trkpt lat="46.58017" lon="-1.79241">
        <ele>52.800512</ele>
        <time>2022-12-18T13:19:07.650Z</time>
      </trkpt>
      <trkpt lat="46.58005" lon="-1.79234">
        <ele>52.580643</ele>
        <time>2022-12-18T13:19:10.617Z</time>
      </trkpt>
      <trkpt lat="46.57997" lon="-1.79229">
        <ele>52.507306</ele>
        <time>2022-12-18T13:19:12.632Z</time>
      </trkpt>
      <trkpt lat="46.57988" lon="-1.79224">
        <ele>52.430093</ele>
        <time>2022-12-18T13:19:14.650Z</time>
      </trkpt>
      <trkpt lat="46.5798" lon="-1.79219">
        <ele>52.35897</ele>
        <time>2022-12-18T13:19:16.649Z</time>
      </trkpt>
      <trkpt lat="46.57971" lon="-1.79213">
        <ele>52.284595</ele>
        <time>2022-12-18T13:19:18.650Z</time>
      </trkpt>
      <trkpt lat="46.57963" lon="-1.79208">
        <ele>52.211894</ele>
        <time>2022-12-18T13:19:20.652Z</time>
      </trkpt>
      <trkpt lat="46.57954" lon="-1.79203">
        <ele>52.137945</ele>
        <time>2022-12-18T13:19:22.649Z</time>
      </trkpt>
      <trkpt lat="46.57942" lon="-1.79195">
        <ele>52.033393</ele>
        <time>2022-12-18T13:19:25.624Z</time>
      </trkpt>
      <trkpt lat="46.57931" lon="-1.79187">
        <ele>51.934272</ele>
        <time>2022-12-18T13:19:28.628Z</time>
      </trkpt>
      <trkpt lat="46.5792" lon="-1.79181">
        <ele>51.843666</ele>
        <time>2022-12-18T13:19:31.630Z</time>
      </trkpt>
      <trkpt lat="46.5791" lon="-1.79174">
        <ele>51.752405</ele>
        <time>2022-12-18T13:19:34.629Z</time>
      </trkpt>
      <trkpt lat="46.57899" lon="-1.79168">
        <ele>51.662631</ele>
        <time>2022-12-18T13:19:37.624Z</time>
      </trkpt>
      <trkpt lat="46.57889" lon="-1.79162">
        <ele>51.577351</ele>
        <time>2022-12-18T13:19:40.625Z</time>
      </trkpt>
      <trkpt lat="46.5788" lon="-1.79156">
        <ele>51.493951</ele>
        <time>2022-12-18T13:19:43.636Z</time>
      </trkpt>
      <trkpt lat="46.57869" lon="-1.7915">
        <ele>51.405963</ele>
        <time>2022-12-18T13:19:46.640Z</time>
      </trkpt>
      <trkpt lat="46.57859" lon="-1.79143">
        <ele>51.318397</ele>
        <time>2022-12-18T13:19:49.634Z</time>
      </trkpt>
      <trkpt lat="46.5785" lon="-1.79137">
        <ele>51.233598</ele>
        <time>2022-12-18T13:19:52.637Z</time>
      </trkpt>
      <trkpt lat="46.5784" lon="-1.79131">
        <ele>51.155123</ele>
        <time>2022-12-18T13:19:55.628Z</time>
      </trkpt>
      <trkpt lat="46.57831" lon="-1.79126">
        <ele>51.082989</ele>
        <time>2022-12-18T13:19:58.649Z</time>
      </trkpt>
      <trkpt lat="46.57821" lon="-1.7912">
        <ele>51.008239</ele>
        <time>2022-12-18T13:20:01.625Z</time>
      </trkpt>
      <trkpt lat="46.57812" lon="-1.79113">
        <ele>50.931189</ele>
        <time>2022-12-18T13:20:04.626Z</time>
      </trkpt>
      <trkpt lat="46.57802" lon="-1.79107">
        <ele>50.855392</ele>
        <time>2022-12-18T13:20:07.649Z</time>
      </trkpt>
      <trkpt lat="46.57791" lon="-1.79101">
        <ele>50.774111</ele>
        <time>2022-12-18T13:20:10.648Z</time>
      </trkpt>
      <trkpt lat="46.57781" lon="-1.79095">
        <ele>50.694891</ele>
        <time>2022-12-18T13:20:13.645Z</time>
      </trkpt>
      <trkpt lat="46.57771" lon="-1.79089">
        <ele>50.618239</ele>
        <time>2022-12-18T13:20:16.646Z</time>
      </trkpt>
      <trkpt lat="46.57761" lon="-1.79082">
        <ele>50.537311</ele>
        <time>2022-12-18T13:20:19.634Z</time>
      </trkpt>
      <trkpt lat="46.57751" lon="-1.79076">
        <ele>50.457358</ele>
        <time>2022-12-18T13:20:22.631Z</time>
      </trkpt>
      <trkpt lat="46.57741" lon="-1.79069">
        <ele>50.377113</ele>
        <time>2022-12-18T13:20:25.642Z</time>
      </trkpt>
      <trkpt lat="46.5773" lon="-1.79063">
        <ele>50.294873</ele>
        <time>2022-12-18T13:20:28.641Z</time>
      </trkpt>
      <trkpt lat="46.57719" lon="-1.79056">
        <ele>50.210722</ele>
        <time>2022-12-18T13:20:31.630Z</time>
      </trkpt>
      <trkpt lat="46.57708" lon="-1.79048">
        <ele>50.122038</ele>
        <time>2022-12-18T13:20:34.652Z</time>
      </trkpt>
      <trkpt lat="46.57697" lon="-1.79041">
        <ele>50.032623</ele>
        <time>2022-12-18T13:20:37.631Z</time>
      </trkpt>
      <trkpt lat="46.57684" lon="-1.79034">
        <ele>49.937623</ele>
        <time>2022-12-18T13:20:40.644Z</time>
      </trkpt>
      <trkpt lat="46.57672" lon="-1.79026">
        <ele>49.829574</ele>
        <time>2022-12-18T13:20:43.641Z</time>
      </trkpt>
      <trkpt lat="46.5766" lon="-1.79018">
        <ele>49.700891</ele>
        <time>2022-12-18T13:20:46.627Z</time>
      </trkpt>
      <trkpt lat="46.57648" lon="-1.79011">
        <ele>49.57093</ele>
        <time>2022-12-18T13:20:49.647Z</time>
      </trkpt>
      <trkpt lat="46.57639" lon="-1.79005">
        <ele>49.473296</ele>
        <time>2022-12-18T13:20:51.632Z</time>
      </trkpt>
      <trkpt lat="46.57629" lon="-1.79">
        <ele>49.375526</ele>
        <time>2022-12-18T13:20:53.628Z</time>
      </trkpt>
      <trkpt lat="46.5762" lon="-1.78994">
        <ele>49.271531</ele>
        <time>2022-12-18T13:20:55.645Z</time>
      </trkpt>
      <trkpt lat="46.57609" lon="-1.78987">
        <ele>49.158687</ele>
        <time>2022-12-18T13:20:57.646Z</time>
      </trkpt>
      <trkpt lat="46.57599" lon="-1.7898">
        <ele>49.046738</ele>
        <time>2022-12-18T13:20:59.638Z</time>
      </trkpt>
      <trkpt lat="46.57587" lon="-1.78974">
        <ele>48.928095</ele>
        <time>2022-12-18T13:21:01.648Z</time>
      </trkpt>
      <trkpt lat="46.57576" lon="-1.78966">
        <ele>48.806209</ele>
        <time>2022-12-18T13:21:03.646Z</time>
      </trkpt>
      <trkpt lat="46.57565" lon="-1.7896">
        <ele>48.692992</ele>
        <time>2022-12-18T13:21:05.646Z</time>
      </trkpt>
      <trkpt lat="46.57555" lon="-1.78954">
        <ele>48.586856</ele>
        <time>2022-12-18T13:21:07.644Z</time>
      </trkpt>
      <trkpt lat="46.57546" lon="-1.78948">
        <ele>48.490487</ele>
        <time>2022-12-18T13:21:09.646Z</time>
      </trkpt>
      <trkpt lat="46.57537" lon="-1.78943">
        <ele>48.397997</ele>
        <time>2022-12-18T13:21:11.645Z</time>
      </trkpt>
      <trkpt lat="46.57529" lon="-1.78938">
        <ele>48.309494</ele>
        <time>2022-12-18T13:21:13.635Z</time>
      </trkpt>
      <trkpt lat="46.57517" lon="-1.78931">
        <ele>48.185069</ele>
        <time>2022-12-18T13:21:16.626Z</time>
      </trkpt>
      <trkpt lat="46.57506" lon="-1.78924">
        <ele>48.16542</ele>
        <time>2022-12-18T13:21:19.636Z</time>
      </trkpt>
      <trkpt lat="46.57495" lon="-1.78917">
        <ele>48.247652</ele>
        <time>2022-12-18T13:21:22.630Z</time>
      </trkpt>
      <trkpt lat="46.57484" lon="-1.7891">
        <ele>48.330993</ele>
        <time>2022-12-18T13:21:25.638Z</time>
      </trkpt>
      <trkpt lat="46.57473" lon="-1.78904">
        <ele>48.418637</ele>
        <time>2022-12-18T13:21:28.631Z</time>
      </trkpt>
      <trkpt lat="46.57462" lon="-1.78897">
        <ele>48.50657</ele>
        <time>2022-12-18T13:21:31.625Z</time>
      </trkpt>
      <trkpt lat="46.5745" lon="-1.7889">
        <ele>48.596744</ele>
        <time>2022-12-18T13:21:34.636Z</time>
      </trkpt>
      <trkpt lat="46.57438" lon="-1.78883">
        <ele>48.686836</ele>
        <time>2022-12-18T13:21:37.627Z</time>
      </trkpt>
      <trkpt lat="46.57426" lon="-1.78876">
        <ele>48.777291</ele>
        <time>2022-12-18T13:21:40.624Z</time>
      </trkpt>
      <trkpt lat="46.57414" lon="-1.78869">
        <ele>48.867564</ele>
        <time>2022-12-18T13:21:43.645Z</time>
      </trkpt>
      <trkpt lat="46.57403" lon="-1.78861">
        <ele>48.95933</ele>
        <time>2022-12-18T13:21:46.624Z</time>
      </trkpt>
      <trkpt lat="46.57391" lon="-1.78853">
        <ele>49.049836</ele>
        <time>2022-12-18T13:21:49.629Z</time>
      </trkpt>
      <trkpt lat="46.57379" lon="-1.78846">
        <ele>49.140591</ele>
        <time>2022-12-18T13:21:52.629Z</time>
      </trkpt>
      <trkpt lat="46.57367" lon="-1.78838">
        <ele>49.234934</ele>
        <time>2022-12-18T13:21:55.639Z</time>
      </trkpt>
      <trkpt lat="46.57359" lon="-1.78833">
        <ele>49.298334</ele>
        <time>2022-12-18T13:21:57.645Z</time>
      </trkpt>
      <trkpt lat="46.57347" lon="-1.78825">
        <ele>49.391236</ele>
        <time>2022-12-18T13:22:00.646Z</time>
      </trkpt>
      <trkpt lat="46.57336" lon="-1.78818">
        <ele>49.232014</ele>
        <time>2022-12-18T13:22:03.650Z</time>
      </trkpt>
      <trkpt lat="46.57323" lon="-1.7881">
        <ele>49.033023</ele>
        <time>2022-12-18T13:22:06.646Z</time>
      </trkpt>
      <trkpt lat="46.57311" lon="-1.78802">
        <ele>48.83593</ele>
        <time>2022-12-18T13:22:09.648Z</time>
      </trkpt>
      <trkpt lat="46.573" lon="-1.78793">
        <ele>48.641041</ele>
        <time>2022-12-18T13:22:12.634Z</time>
      </trkpt>
      <trkpt lat="46.57288" lon="-1.78784">
        <ele>48.440875</ele>
        <time>2022-12-18T13:22:15.650Z</time>
      </trkpt>
      <trkpt lat="46.57276" lon="-1.78776">
        <ele>48.248249</ele>
        <time>2022-12-18T13:22:18.623Z</time>
      </trkpt>
      <trkpt lat="46.57265" lon="-1.78767">
        <ele>48.055814</ele>
        <time>2022-12-18T13:22:21.625Z</time>
      </trkpt>
      <trkpt lat="46.57253" lon="-1.78757">
        <ele>47.856469</ele>
        <time>2022-12-18T13:22:24.626Z</time>
      </trkpt>
      <trkpt lat="46.57242" lon="-1.78746">
        <ele>47.657524</ele>
        <time>2022-12-18T13:22:27.627Z</time>
      </trkpt>
      <trkpt lat="46.57231" lon="-1.78734">
        <ele>47.452615</ele>
        <time>2022-12-18T13:22:30.646Z</time>
      </trkpt>
      <trkpt lat="46.57222" lon="-1.78725">
        <ele>47.292166</ele>
        <time>2022-12-18T13:22:32.636Z</time>
      </trkpt>
      <trkpt lat="46.57214" lon="-1.78716">
        <ele>47.137718</ele>
        <time>2022-12-18T13:22:34.630Z</time>
      </trkpt>
      <trkpt lat="46.57205" lon="-1.78706">
        <ele>46.974824</ele>
        <time>2022-12-18T13:22:36.628Z</time>
      </trkpt>
      <trkpt lat="46.57196" lon="-1.78696">
        <ele>46.80116</ele>
        <time>2022-12-18T13:22:38.629Z</time>
      </trkpt>
      <trkpt lat="46.57186" lon="-1.78687">
        <ele>46.757071</ele>
        <time>2022-12-18T13:22:40.650Z</time>
      </trkpt>
      <trkpt lat="46.57176" lon="-1.78676">
        <ele>46.807505</ele>
        <time>2022-12-18T13:22:42.627Z</time>
      </trkpt>
      <trkpt lat="46.57167" lon="-1.78666">
        <ele>46.857693</ele>
        <time>2022-12-18T13:22:44.638Z</time>
      </trkpt>
      <trkpt lat="46.57158" lon="-1.78655">
        <ele>46.907577</ele>
        <time>2022-12-18T13:22:46.631Z</time>
      </trkpt>
      <trkpt lat="46.57149" lon="-1.78645">
        <ele>46.954558</ele>
        <time>2022-12-18T13:22:48.652Z</time>
      </trkpt>
      <trkpt lat="46.5714" lon="-1.78636">
        <ele>47.001496</ele>
        <time>2022-12-18T13:22:50.644Z</time>
      </trkpt>
      <trkpt lat="46.57131" lon="-1.78627">
        <ele>47.046872</ele>
        <time>2022-12-18T13:22:52.651Z</time>
      </trkpt>
      <trkpt lat="46.57123" lon="-1.78618">
        <ele>47.091397</ele>
        <time>2022-12-18T13:22:54.649Z</time>
      </trkpt>
      <trkpt lat="46.57115" lon="-1.7861">
        <ele>47.131787</ele>
        <time>2022-12-18T13:22:56.633Z</time>
      </trkpt>
      <trkpt lat="46.57107" lon="-1.78601">
        <ele>47.172714</ele>
        <time>2022-12-18T13:22:58.633Z</time>
      </trkpt>
      <trkpt lat="46.571" lon="-1.78592">
        <ele>47.213388</ele>
        <time>2022-12-18T13:23:00.650Z</time>
      </trkpt>
      <trkpt lat="46.57092" lon="-1.78584">
        <ele>47.253786</ele>
        <time>2022-12-18T13:23:02.653Z</time>
      </trkpt>
      <trkpt lat="46.57085" lon="-1.78576">
        <ele>47.292357</ele>
        <time>2022-12-18T13:23:04.627Z</time>
      </trkpt>
      <trkpt lat="46.57078" lon="-1.78569">
        <ele>47.330552</ele>
        <time>2022-12-18T13:23:06.647Z</time>
      </trkpt>
      <trkpt lat="46.57068" lon="-1.78557">
        <ele>47.385585</ele>
        <time>2022-12-18T13:23:09.630Z</time>
      </trkpt>
      <trkpt lat="46.57058" lon="-1.78547">
        <ele>47.437329</ele>
        <time>2022-12-18T13:23:12.628Z</time>
      </trkpt>
      <trkpt lat="46.57048" lon="-1.78536">
        <ele>47.490958</ele>
        <time>2022-12-18T13:23:15.622Z</time>
      </trkpt>
      <trkpt lat="46.57038" lon="-1.78526">
        <ele>47.577935</ele>
        <time>2022-12-18T13:23:18.626Z</time>
      </trkpt>
      <trkpt lat="46.57028" lon="-1.78515">
        <ele>47.666416</ele>
        <time>2022-12-18T13:23:21.633Z</time>
      </trkpt>
      <trkpt lat="46.57017" lon="-1.78505">
        <ele>47.757508</ele>
        <time>2022-12-18T13:23:24.637Z</time>
      </trkpt>
      <trkpt lat="46.57007" lon="-1.78494">
        <ele>47.846573</ele>
        <time>2022-12-18T13:23:27.634Z</time>
      </trkpt>
      <trkpt lat="46.56997" lon="-1.78484">
        <ele>47.933987</ele>
        <time>2022-12-18T13:23:30.621Z</time>
      </trkpt>
      <trkpt lat="46.56987" lon="-1.78473">
        <ele>48.02218</ele>
        <time>2022-12-18T13:23:33.639Z</time>
      </trkpt>
      <trkpt lat="46.56977" lon="-1.78462">
        <ele>48.111265</ele>
        <time>2022-12-18T13:23:36.655Z</time>
      </trkpt>
      <trkpt lat="46.56967" lon="-1.78452">
        <ele>48.203509</ele>
        <time>2022-12-18T13:23:39.640Z</time>
      </trkpt>
      <trkpt lat="46.56956" lon="-1.78441">
        <ele>48.296922</ele>
        <time>2022-12-18T13:23:42.620Z</time>
      </trkpt>
      <trkpt lat="46.56945" lon="-1.78429">
        <ele>48.390323</ele>
        <time>2022-12-18T13:23:45.648Z</time>
      </trkpt>
      <trkpt lat="46.56935" lon="-1.78418">
        <ele>48.48434</ele>
        <time>2022-12-18T13:23:48.649Z</time>
      </trkpt>
      <trkpt lat="46.56925" lon="-1.78407">
        <ele>48.575433</ele>
        <time>2022-12-18T13:23:51.646Z</time>
      </trkpt>
      <trkpt lat="46.56914" lon="-1.78396">
        <ele>48.666807</ele>
        <time>2022-12-18T13:23:54.657Z</time>
      </trkpt>
      <trkpt lat="46.56905" lon="-1.78385">
        <ele>48.755026</ele>
        <time>2022-12-18T13:23:57.640Z</time>
      </trkpt>
      <trkpt lat="46.56895" lon="-1.78375">
        <ele>48.656566</ele>
        <time>2022-12-18T13:24:00.631Z</time>
      </trkpt>
      <trkpt lat="46.56886" lon="-1.78365">
        <ele>48.493592</ele>
        <time>2022-12-18T13:24:03.649Z</time>
      </trkpt>
      <trkpt lat="46.56877" lon="-1.78356">
        <ele>48.338106</ele>
        <time>2022-12-18T13:24:06.625Z</time>
      </trkpt>
      <trkpt lat="46.56868" lon="-1.78347">
        <ele>48.185288</ele>
        <time>2022-12-18T13:24:09.643Z</time>
      </trkpt>
      <trkpt lat="46.56859" lon="-1.78338">
        <ele>48.036105</ele>
        <time>2022-12-18T13:24:12.645Z</time>
      </trkpt>
      <trkpt lat="46.56851" lon="-1.7833">
        <ele>47.885193</ele>
        <time>2022-12-18T13:24:15.631Z</time>
      </trkpt>
      <trkpt lat="46.56842" lon="-1.7832">
        <ele>47.730285</ele>
        <time>2022-12-18T13:24:18.647Z</time>
      </trkpt>
      <trkpt lat="46.56833" lon="-1.78311">
        <ele>47.573632</ele>
        <time>2022-12-18T13:24:21.636Z</time>
      </trkpt>
      <trkpt lat="46.56824" lon="-1.78301">
        <ele>47.41179</ele>
        <time>2022-12-18T13:24:24.650Z</time>
      </trkpt>
      <trkpt lat="46.56815" lon="-1.78291">
        <ele>47.24705</ele>
        <time>2022-12-18T13:24:27.642Z</time>
      </trkpt>
      <trkpt lat="46.56806" lon="-1.7828">
        <ele>47.08213</ele>
        <time>2022-12-18T13:24:30.627Z</time>
      </trkpt>
      <trkpt lat="46.56796" lon="-1.7827">
        <ele>46.909814</ele>
        <time>2022-12-18T13:24:33.643Z</time>
      </trkpt>
      <trkpt lat="46.56786" lon="-1.78258">
        <ele>46.730356</ele>
        <time>2022-12-18T13:24:36.621Z</time>
      </trkpt>
      <trkpt lat="46.56776" lon="-1.78246">
        <ele>46.543851</ele>
        <time>2022-12-18T13:24:39.634Z</time>
      </trkpt>
      <trkpt lat="46.5677" lon="-1.78237">
        <ele>46.413577</ele>
        <time>2022-12-18T13:24:41.629Z</time>
      </trkpt>
      <trkpt lat="46.56762" lon="-1.78228">
        <ele>46.280898</ele>
        <time>2022-12-18T13:24:43.631Z</time>
      </trkpt>
      <trkpt lat="46.56755" lon="-1.78219">
        <ele>46.109172</ele>
        <time>2022-12-18T13:24:45.634Z</time>
      </trkpt>
      <trkpt lat="46.56747" lon="-1.7821">
        <ele>45.913471</ele>
        <time>2022-12-18T13:24:47.653Z</time>
      </trkpt>
      <trkpt lat="46.5674" lon="-1.78203">
        <ele>45.721631</ele>
        <time>2022-12-18T13:24:49.637Z</time>
      </trkpt>
      <trkpt lat="46.56732" lon="-1.78195">
        <ele>45.526662</ele>
        <time>2022-12-18T13:24:51.636Z</time>
      </trkpt>
      <trkpt lat="46.56724" lon="-1.78186">
        <ele>45.327357</ele>
        <time>2022-12-18T13:24:53.651Z</time>
      </trkpt>
      <trkpt lat="46.56717" lon="-1.78177">
        <ele>45.134617</ele>
        <time>2022-12-18T13:24:55.630Z</time>
      </trkpt>
      <trkpt lat="46.56709" lon="-1.78169">
        <ele>44.941307</ele>
        <time>2022-12-18T13:24:57.634Z</time>
      </trkpt>
      <trkpt lat="46.56702" lon="-1.78161">
        <ele>44.754624</ele>
        <time>2022-12-18T13:24:59.638Z</time>
      </trkpt>
      <trkpt lat="46.56691" lon="-1.7815">
        <ele>44.481624</ele>
        <time>2022-12-18T13:25:02.637Z</time>
      </trkpt>
      <trkpt lat="46.56681" lon="-1.78141">
        <ele>44.232358</ele>
        <time>2022-12-18T13:25:05.633Z</time>
      </trkpt>
      <trkpt lat="46.5667" lon="-1.78131">
        <ele>43.967757</ele>
        <time>2022-12-18T13:25:08.646Z</time>
      </trkpt>
      <trkpt lat="46.56657" lon="-1.78123">
        <ele>43.688865</ele>
        <time>2022-12-18T13:25:11.648Z</time>
      </trkpt>
      <trkpt lat="46.56649" lon="-1.78118">
        <ele>43.499671</ele>
        <time>2022-12-18T13:25:13.635Z</time>
      </trkpt>
      <trkpt lat="46.5664" lon="-1.78113">
        <ele>43.312153</ele>
        <time>2022-12-18T13:25:15.651Z</time>
      </trkpt>
      <trkpt lat="46.56631" lon="-1.78109">
        <ele>43.116892</ele>
        <time>2022-12-18T13:25:17.653Z</time>
      </trkpt>
      <trkpt lat="46.56622" lon="-1.78105">
        <ele>42.909244</ele>
        <time>2022-12-18T13:25:19.634Z</time>
      </trkpt>
      <trkpt lat="46.56613" lon="-1.78101">
        <ele>42.716822</ele>
        <time>2022-12-18T13:25:21.631Z</time>
      </trkpt>
      <trkpt lat="46.56603" lon="-1.78098">
        <ele>42.528378</ele>
        <time>2022-12-18T13:25:23.649Z</time>
      </trkpt>
      <trkpt lat="46.56594" lon="-1.78095">
        <ele>42.645679</ele>
        <time>2022-12-18T13:25:25.651Z</time>
      </trkpt>
      <trkpt lat="46.56585" lon="-1.78091">
        <ele>42.766039</ele>
        <time>2022-12-18T13:25:27.654Z</time>
      </trkpt>
      <trkpt lat="46.56576" lon="-1.78087">
        <ele>42.885659</ele>
        <time>2022-12-18T13:25:29.626Z</time>
      </trkpt>
      <trkpt lat="46.56566" lon="-1.78083">
        <ele>43.010092</ele>
        <time>2022-12-18T13:25:31.633Z</time>
      </trkpt>
      <trkpt lat="46.56557" lon="-1.78079">
        <ele>43.12848</ele>
        <time>2022-12-18T13:25:33.642Z</time>
      </trkpt>
      <trkpt lat="46.56548" lon="-1.78076">
        <ele>43.250492</ele>
        <time>2022-12-18T13:25:35.650Z</time>
      </trkpt>
      <trkpt lat="46.56538" lon="-1.78072">
        <ele>43.377568</ele>
        <time>2022-12-18T13:25:37.646Z</time>
      </trkpt>
      <trkpt lat="46.56529" lon="-1.78068">
        <ele>43.496929</ele>
        <time>2022-12-18T13:25:39.639Z</time>
      </trkpt>
      <trkpt lat="46.5652" lon="-1.78064">
        <ele>43.609797</ele>
        <time>2022-12-18T13:25:41.641Z</time>
      </trkpt>
      <trkpt lat="46.56512" lon="-1.78061">
        <ele>43.723243</ele>
        <time>2022-12-18T13:25:43.630Z</time>
      </trkpt>
      <trkpt lat="46.56499" lon="-1.78057">
        <ele>43.885015</ele>
        <time>2022-12-18T13:25:46.638Z</time>
      </trkpt>
      <trkpt lat="46.56486" lon="-1.78052">
        <ele>44.048884</ele>
        <time>2022-12-18T13:25:49.633Z</time>
      </trkpt>
      <trkpt lat="46.56474" lon="-1.78046">
        <ele>44.212986</ele>
        <time>2022-12-18T13:25:52.630Z</time>
      </trkpt>
      <trkpt lat="46.56461" lon="-1.78041">
        <ele>44.375647</ele>
        <time>2022-12-18T13:25:55.642Z</time>
      </trkpt>
      <trkpt lat="46.56449" lon="-1.78037">
        <ele>44.536419</ele>
        <time>2022-12-18T13:25:58.625Z</time>
      </trkpt>
      <trkpt lat="46.56437" lon="-1.78032">
        <ele>44.695981</ele>
        <time>2022-12-18T13:26:01.626Z</time>
      </trkpt>
      <trkpt lat="46.56424" lon="-1.78027">
        <ele>44.750417</ele>
        <time>2022-12-18T13:26:04.640Z</time>
      </trkpt>
      <trkpt lat="46.56411" lon="-1.78022">
        <ele>44.691984</ele>
        <time>2022-12-18T13:26:07.628Z</time>
      </trkpt>
      <trkpt lat="46.56402" lon="-1.78019">
        <ele>44.65196</ele>
        <time>2022-12-18T13:26:09.640Z</time>
      </trkpt>
      <trkpt lat="46.5639" lon="-1.78014">
        <ele>44.594732</ele>
        <time>2022-12-18T13:26:12.625Z</time>
      </trkpt>
      <trkpt lat="46.56377" lon="-1.78009">
        <ele>44.539291</ele>
        <time>2022-12-18T13:26:15.649Z</time>
      </trkpt>
      <trkpt lat="46.56365" lon="-1.78004">
        <ele>44.48315</ele>
        <time>2022-12-18T13:26:18.630Z</time>
      </trkpt>
      <trkpt lat="46.56353" lon="-1.78">
        <ele>44.428904</ele>
        <time>2022-12-18T13:26:21.628Z</time>
      </trkpt>
      <trkpt lat="46.56343" lon="-1.77995">
        <ele>44.380685</ele>
        <time>2022-12-18T13:26:24.655Z</time>
      </trkpt>
      <trkpt lat="46.56332" lon="-1.77991">
        <ele>44.329631</ele>
        <time>2022-12-18T13:26:27.630Z</time>
      </trkpt>
      <trkpt lat="46.5632" lon="-1.77986">
        <ele>44.275123</ele>
        <time>2022-12-18T13:26:30.623Z</time>
      </trkpt>
      <trkpt lat="46.56308" lon="-1.77982">
        <ele>44.222906</ele>
        <time>2022-12-18T13:26:33.623Z</time>
      </trkpt>
      <trkpt lat="46.56297" lon="-1.77977">
        <ele>44.169337</ele>
        <time>2022-12-18T13:26:36.630Z</time>
      </trkpt>
      <trkpt lat="46.56285" lon="-1.77971">
        <ele>44.11231</ele>
        <time>2022-12-18T13:26:39.637Z</time>
      </trkpt>
      <trkpt lat="46.56273" lon="-1.77963">
        <ele>44.056357</ele>
        <time>2022-12-18T13:26:42.625Z</time>
      </trkpt>
      <trkpt lat="46.56262" lon="-1.77954">
        <ele>43.999334</ele>
        <time>2022-12-18T13:26:45.635Z</time>
      </trkpt>
      <trkpt lat="46.56251" lon="-1.77946">
        <ele>44.097046</ele>
        <time>2022-12-18T13:26:48.638Z</time>
      </trkpt>
      <trkpt lat="46.56241" lon="-1.77939">
        <ele>44.241813</ele>
        <time>2022-12-18T13:26:51.622Z</time>
      </trkpt>
      <trkpt lat="46.56231" lon="-1.77931">
        <ele>44.386989</ele>
        <time>2022-12-18T13:26:54.654Z</time>
      </trkpt>
      <trkpt lat="46.56221" lon="-1.77926">
        <ele>44.523049</ele>
        <time>2022-12-18T13:26:57.634Z</time>
      </trkpt>
      <trkpt lat="46.56211" lon="-1.77921">
        <ele>44.659339</ele>
        <time>2022-12-18T13:27:00.623Z</time>
      </trkpt>
      <trkpt lat="46.56202" lon="-1.77913">
        <ele>44.790874</ele>
        <time>2022-12-18T13:27:03.630Z</time>
      </trkpt>
      <trkpt lat="46.56192" lon="-1.77906">
        <ele>44.931004</ele>
        <time>2022-12-18T13:27:06.637Z</time>
      </trkpt>
      <trkpt lat="46.56182" lon="-1.779">
        <ele>45.075702</ele>
        <time>2022-12-18T13:27:09.634Z</time>
      </trkpt>
      <trkpt lat="46.56171" lon="-1.77895">
        <ele>45.225234</ele>
        <time>2022-12-18T13:27:12.637Z</time>
      </trkpt>
      <trkpt lat="46.56159" lon="-1.77889">
        <ele>45.379904</ele>
        <time>2022-12-18T13:27:15.619Z</time>
      </trkpt>
      <trkpt lat="46.56148" lon="-1.77884">
        <ele>45.536873</ele>
        <time>2022-12-18T13:27:18.649Z</time>
      </trkpt>
      <trkpt lat="46.56136" lon="-1.77879">
        <ele>45.698758</ele>
        <time>2022-12-18T13:27:21.627Z</time>
      </trkpt>
      <trkpt lat="46.56124" lon="-1.77873">
        <ele>45.857073</ele>
        <time>2022-12-18T13:27:24.628Z</time>
      </trkpt>
      <trkpt lat="46.56112" lon="-1.77867">
        <ele>46.012032</ele>
        <time>2022-12-18T13:27:27.634Z</time>
      </trkpt>
      <trkpt lat="46.56101" lon="-1.77862">
        <ele>46.163704</ele>
        <time>2022-12-18T13:27:30.636Z</time>
      </trkpt>
      <trkpt lat="46.5609" lon="-1.77857">
        <ele>46.308202</ele>
        <time>2022-12-18T13:27:33.627Z</time>
      </trkpt>
      <trkpt lat="46.56079" lon="-1.77851">
        <ele>46.412323</ele>
        <time>2022-12-18T13:27:36.630Z</time>
      </trkpt>
      <trkpt lat="46.56068" lon="-1.77845">
        <ele>46.517715</ele>
        <time>2022-12-18T13:27:39.634Z</time>
      </trkpt>
      <trkpt lat="46.56056" lon="-1.77839">
        <ele>46.622663</ele>
        <time>2022-12-18T13:27:42.641Z</time>
      </trkpt>
      <trkpt lat="46.56046" lon="-1.77834">
        <ele>46.717025</ele>
        <time>2022-12-18T13:27:45.631Z</time>
      </trkpt>
      <trkpt lat="46.56037" lon="-1.7783">
        <ele>46.807738</ele>
        <time>2022-12-18T13:27:48.633Z</time>
      </trkpt>
      <trkpt lat="46.56026" lon="-1.77825">
        <ele>46.906111</ele>
        <time>2022-12-18T13:27:51.622Z</time>
      </trkpt>
      <trkpt lat="46.56015" lon="-1.7782">
        <ele>47.003947</ele>
        <time>2022-12-18T13:27:54.625Z</time>
      </trkpt>
      <trkpt lat="46.56005" lon="-1.77815">
        <ele>47.105155</ele>
        <time>2022-12-18T13:27:57.646Z</time>
      </trkpt>
      <trkpt lat="46.55993" lon="-1.77809">
        <ele>47.21259</ele>
        <time>2022-12-18T13:28:00.638Z</time>
      </trkpt>
      <trkpt lat="46.55982" lon="-1.77804">
        <ele>47.313495</ele>
        <time>2022-12-18T13:28:03.651Z</time>
      </trkpt>
      <trkpt lat="46.55971" lon="-1.77798">
        <ele>47.421554</ele>
        <time>2022-12-18T13:28:06.642Z</time>
      </trkpt>
      <trkpt lat="46.55959" lon="-1.77792">
        <ele>47.531079</ele>
        <time>2022-12-18T13:28:09.636Z</time>
      </trkpt>
      <trkpt lat="46.55947" lon="-1.77787">
        <ele>47.641824</ele>
        <time>2022-12-18T13:28:12.626Z</time>
      </trkpt>
      <trkpt lat="46.55935" lon="-1.77781">
        <ele>47.749548</ele>
        <time>2022-12-18T13:28:15.651Z</time>
      </trkpt>
      <trkpt lat="46.55925" lon="-1.77775">
        <ele>47.852241</ele>
        <time>2022-12-18T13:28:18.650Z</time>
      </trkpt>
      <trkpt lat="46.55914" lon="-1.77769">
        <ele>47.906119</ele>
        <time>2022-12-18T13:28:21.632Z</time>
      </trkpt>
      <trkpt lat="46.55904" lon="-1.77763">
        <ele>47.939751</ele>
        <time>2022-12-18T13:28:24.627Z</time>
      </trkpt>
      <trkpt lat="46.55892" lon="-1.77756">
        <ele>47.975944</ele>
        <time>2022-12-18T13:28:27.646Z</time>
      </trkpt>
      <trkpt lat="46.55881" lon="-1.77749">
        <ele>48.011823</ele>
        <time>2022-12-18T13:28:30.632Z</time>
      </trkpt>
      <trkpt lat="46.5587" lon="-1.77742">
        <ele>48.045969</ele>
        <time>2022-12-18T13:28:33.639Z</time>
      </trkpt>
      <trkpt lat="46.5586" lon="-1.77737">
        <ele>48.077678</ele>
        <time>2022-12-18T13:28:36.624Z</time>
      </trkpt>
      <trkpt lat="46.55849" lon="-1.7773">
        <ele>48.112017</ele>
        <time>2022-12-18T13:28:39.637Z</time>
      </trkpt>
      <trkpt lat="46.55839" lon="-1.77724">
        <ele>48.146</ele>
        <time>2022-12-18T13:28:42.630Z</time>
      </trkpt>
      <trkpt lat="46.55828" lon="-1.77717">
        <ele>48.179282</ele>
        <time>2022-12-18T13:28:45.629Z</time>
      </trkpt>
      <trkpt lat="46.55818" lon="-1.7771">
        <ele>48.213767</ele>
        <time>2022-12-18T13:28:48.626Z</time>
      </trkpt>
      <trkpt lat="46.55808" lon="-1.77703">
        <ele>48.246055</ele>
        <time>2022-12-18T13:28:51.638Z</time>
      </trkpt>
      <trkpt lat="46.55798" lon="-1.77698">
        <ele>48.276319</ele>
        <time>2022-12-18T13:28:54.619Z</time>
      </trkpt>
      <trkpt lat="46.55788" lon="-1.77691">
        <ele>48.308281</ele>
        <time>2022-12-18T13:28:57.651Z</time>
      </trkpt>
      <trkpt lat="46.55778" lon="-1.77685">
        <ele>48.342105</ele>
        <time>2022-12-18T13:29:00.636Z</time>
      </trkpt>
      <trkpt lat="46.55767" lon="-1.77678">
        <ele>48.377408</ele>
        <time>2022-12-18T13:29:03.653Z</time>
      </trkpt>
      <trkpt lat="46.55756" lon="-1.77671">
        <ele>48.41077</ele>
        <time>2022-12-18T13:29:06.646Z</time>
      </trkpt>
      <trkpt lat="46.55747" lon="-1.77666">
        <ele>48.221024</ele>
        <time>2022-12-18T13:29:09.638Z</time>
      </trkpt>
      <trkpt lat="46.55738" lon="-1.7766">
        <ele>48.031591</ele>
        <time>2022-12-18T13:29:12.639Z</time>
      </trkpt>
      <trkpt lat="46.55729" lon="-1.77655">
        <ele>47.852527</ele>
        <time>2022-12-18T13:29:15.632Z</time>
      </trkpt>
      <trkpt lat="46.5572" lon="-1.77649">
        <ele>47.67417</ele>
        <time>2022-12-18T13:29:18.651Z</time>
      </trkpt>
      <trkpt lat="46.55711" lon="-1.77643">
        <ele>47.483694</ele>
        <time>2022-12-18T13:29:21.644Z</time>
      </trkpt>
      <trkpt lat="46.55702" lon="-1.77637">
        <ele>47.287562</ele>
        <time>2022-12-18T13:29:24.627Z</time>
      </trkpt>
      <trkpt lat="46.5569" lon="-1.7763">
        <ele>47.037863</ele>
        <time>2022-12-18T13:29:27.640Z</time>
      </trkpt>
      <trkpt lat="46.55682" lon="-1.77625">
        <ele>46.862083</ele>
        <time>2022-12-18T13:29:29.639Z</time>
      </trkpt>
      <trkpt lat="46.55673" lon="-1.77619">
        <ele>46.675757</ele>
        <time>2022-12-18T13:29:31.647Z</time>
      </trkpt>
      <trkpt lat="46.55664" lon="-1.77612">
        <ele>46.487134</ele>
        <time>2022-12-18T13:29:33.633Z</time>
      </trkpt>
      <trkpt lat="46.55655" lon="-1.77607">
        <ele>46.292391</ele>
        <time>2022-12-18T13:29:35.636Z</time>
      </trkpt>
      <trkpt lat="46.55645" lon="-1.77601">
        <ele>46.093272</ele>
        <time>2022-12-18T13:29:37.648Z</time>
      </trkpt>
      <trkpt lat="46.55635" lon="-1.77596">
        <ele>45.893978</ele>
        <time>2022-12-18T13:29:39.639Z</time>
      </trkpt>
      <trkpt lat="46.55626" lon="-1.77589">
        <ele>45.689839</ele>
        <time>2022-12-18T13:29:41.636Z</time>
      </trkpt>
      <trkpt lat="46.55617" lon="-1.77584">
        <ele>45.503808</ele>
        <time>2022-12-18T13:29:43.628Z</time>
      </trkpt>
      <trkpt lat="46.55608" lon="-1.77578">
        <ele>45.319199</ele>
        <time>2022-12-18T13:29:45.638Z</time>
      </trkpt>
      <trkpt lat="46.55596" lon="-1.7757">
        <ele>45.075826</ele>
        <time>2022-12-18T13:29:48.639Z</time>
      </trkpt>
      <trkpt lat="46.55585" lon="-1.7756">
        <ele>44.946291</ele>
        <time>2022-12-18T13:29:51.631Z</time>
      </trkpt>
      <trkpt lat="46.55574" lon="-1.77551">
        <ele>44.913809</ele>
        <time>2022-12-18T13:29:54.627Z</time>
      </trkpt>
      <trkpt lat="46.55563" lon="-1.7754">
        <ele>44.880673</ele>
        <time>2022-12-18T13:29:57.636Z</time>
      </trkpt>
      <trkpt lat="46.55555" lon="-1.77532">
        <ele>44.858134</ele>
        <time>2022-12-18T13:29:59.641Z</time>
      </trkpt>
      <trkpt lat="46.55546" lon="-1.7752">
        <ele>44.827031</ele>
        <time>2022-12-18T13:30:02.628Z</time>
      </trkpt>
      <trkpt lat="46.55536" lon="-1.77508">
        <ele>44.794702</ele>
        <time>2022-12-18T13:30:05.650Z</time>
      </trkpt>
      <trkpt lat="46.55526" lon="-1.77495">
        <ele>44.763451</ele>
        <time>2022-12-18T13:30:08.651Z</time>
      </trkpt>
      <trkpt lat="46.55518" lon="-1.77484">
        <ele>44.734709</ele>
        <time>2022-12-18T13:30:11.643Z</time>
      </trkpt>
      <trkpt lat="46.55509" lon="-1.77472">
        <ele>44.705911</ele>
        <time>2022-12-18T13:30:14.631Z</time>
      </trkpt>
      <trkpt lat="46.55501" lon="-1.7746">
        <ele>44.67664</ele>
        <time>2022-12-18T13:30:17.652Z</time>
      </trkpt>
      <trkpt lat="46.55492" lon="-1.77448">
        <ele>44.646721</ele>
        <time>2022-12-18T13:30:20.626Z</time>
      </trkpt>
      <trkpt lat="46.55483" lon="-1.77435">
        <ele>44.616205</ele>
        <time>2022-12-18T13:30:23.646Z</time>
      </trkpt>
      <trkpt lat="46.55475" lon="-1.77422">
        <ele>44.585983</ele>
        <time>2022-12-18T13:30:26.632Z</time>
      </trkpt>
      <trkpt lat="46.55466" lon="-1.7741">
        <ele>44.555707</ele>
        <time>2022-12-18T13:30:29.634Z</time>
      </trkpt>
      <trkpt lat="46.55457" lon="-1.77397">
        <ele>44.525788</ele>
        <time>2022-12-18T13:30:32.624Z</time>
      </trkpt>
      <trkpt lat="46.55449" lon="-1.77385">
        <ele>44.731626</ele>
        <time>2022-12-18T13:30:35.633Z</time>
      </trkpt>
      <trkpt lat="46.55441" lon="-1.77372">
        <ele>44.995692</ele>
        <time>2022-12-18T13:30:38.645Z</time>
      </trkpt>
      <trkpt lat="46.55433" lon="-1.77358">
        <ele>45.263899</ele>
        <time>2022-12-18T13:30:41.631Z</time>
      </trkpt>
      <trkpt lat="46.55425" lon="-1.77344">
        <ele>45.51787</ele>
        <time>2022-12-18T13:30:44.630Z</time>
      </trkpt>
      <trkpt lat="46.5542" lon="-1.77331">
        <ele>45.741444</ele>
        <time>2022-12-18T13:30:47.649Z</time>
      </trkpt>
      <trkpt lat="46.55415" lon="-1.77318">
        <ele>45.953066</ele>
        <time>2022-12-18T13:30:50.633Z</time>
      </trkpt>
      <trkpt lat="46.55411" lon="-1.77304">
        <ele>46.184681</ele>
        <time>2022-12-18T13:30:53.637Z</time>
      </trkpt>
      <trkpt lat="46.55407" lon="-1.77288">
        <ele>46.433865</ele>
        <time>2022-12-18T13:30:56.617Z</time>
      </trkpt>
      <trkpt lat="46.55404" lon="-1.77271">
        <ele>46.687082</ele>
        <time>2022-12-18T13:30:59.641Z</time>
      </trkpt>
      <trkpt lat="46.55401" lon="-1.77255">
        <ele>46.938034</ele>
        <time>2022-12-18T13:31:02.644Z</time>
      </trkpt>
      <trkpt lat="46.55398" lon="-1.77239">
        <ele>47.180746</ele>
        <time>2022-12-18T13:31:05.625Z</time>
      </trkpt>
      <trkpt lat="46.55395" lon="-1.77223">
        <ele>47.429141</ele>
        <time>2022-12-18T13:31:08.643Z</time>
      </trkpt>
      <trkpt lat="46.55392" lon="-1.77206">
        <ele>47.678817</ele>
        <time>2022-12-18T13:31:11.621Z</time>
      </trkpt>
      <trkpt lat="46.5539" lon="-1.77191">
        <ele>47.910804</ele>
        <time>2022-12-18T13:31:14.634Z</time>
      </trkpt>
      <trkpt lat="46.55388" lon="-1.77178">
        <ele>48.110745</ele>
        <time>2022-12-18T13:31:17.628Z</time>
      </trkpt>
      <trkpt lat="46.55386" lon="-1.77164">
        <ele>48.310686</ele>
        <time>2022-12-18T13:31:20.628Z</time>
      </trkpt>
      <trkpt lat="46.55383" lon="-1.77151">
        <ele>48.521107</ele>
        <time>2022-12-18T13:31:23.626Z</time>
      </trkpt>
      <trkpt lat="46.5538" lon="-1.77137">
        <ele>48.740485</ele>
        <time>2022-12-18T13:31:26.637Z</time>
      </trkpt>
      <trkpt lat="46.55378" lon="-1.77123">
        <ele>48.965161</ele>
        <time>2022-12-18T13:31:29.638Z</time>
      </trkpt>
      <trkpt lat="46.55376" lon="-1.77108">
        <ele>49.184382</ele>
        <time>2022-12-18T13:31:32.634Z</time>
      </trkpt>
      <trkpt lat="46.55373" lon="-1.77094">
        <ele>49.41097</ele>
        <time>2022-12-18T13:31:35.630Z</time>
      </trkpt>
      <trkpt lat="46.55371" lon="-1.77079">
        <ele>49.635646</ele>
        <time>2022-12-18T13:31:38.644Z</time>
      </trkpt>
      <trkpt lat="46.55369" lon="-1.77065">
        <ele>49.856341</ele>
        <time>2022-12-18T13:31:41.641Z</time>
      </trkpt>
      <trkpt lat="46.55366" lon="-1.77051">
        <ele>50.078641</ele>
        <time>2022-12-18T13:31:44.634Z</time>
      </trkpt>
      <trkpt lat="46.55364" lon="-1.77037">
        <ele>50.302789</ele>
        <time>2022-12-18T13:31:47.628Z</time>
      </trkpt>
      <trkpt lat="46.55361" lon="-1.77023">
        <ele>50.517598</ele>
        <time>2022-12-18T13:31:50.634Z</time>
      </trkpt>
      <trkpt lat="46.55359" lon="-1.77009">
        <ele>50.725031</ele>
        <time>2022-12-18T13:31:53.634Z</time>
      </trkpt>
      <trkpt lat="46.55356" lon="-1.76994">
        <ele>50.971861</ele>
        <time>2022-12-18T13:31:57.660Z</time>
      </trkpt>
      <trkpt lat="46.55353" lon="-1.76977">
        <ele>51.226843</ele>
        <time>2022-12-18T13:32:01.651Z</time>
      </trkpt>
      <trkpt lat="46.5535" lon="-1.76962">
        <ele>51.472771</ele>
        <time>2022-12-18T13:32:05.641Z</time>
      </trkpt>
      <trkpt lat="46.55348" lon="-1.76949">
        <ele>51.671843</ele>
        <time>2022-12-18T13:32:08.650Z</time>
      </trkpt>
      <trkpt lat="46.55345" lon="-1.76932">
        <ele>51.928941</ele>
        <time>2022-12-18T13:32:12.644Z</time>
      </trkpt>
      <trkpt lat="46.55343" lon="-1.76919">
        <ele>52.145992</ele>
        <time>2022-12-18T13:32:15.629Z</time>
      </trkpt>
      <trkpt lat="46.5534" lon="-1.76904">
        <ele>52.33133</ele>
        <time>2022-12-18T13:32:18.636Z</time>
      </trkpt>
      <trkpt lat="46.55338" lon="-1.76892">
        <ele>52.350535</ele>
        <time>2022-12-18T13:32:21.644Z</time>
      </trkpt>
      <trkpt lat="46.55337" lon="-1.76878">
        <ele>52.370277</ele>
        <time>2022-12-18T13:32:24.634Z</time>
      </trkpt>
      <trkpt lat="46.55334" lon="-1.76864">
        <ele>52.390704</ele>
        <time>2022-12-18T13:32:27.632Z</time>
      </trkpt>
      <trkpt lat="46.55332" lon="-1.7685">
        <ele>52.412057</ele>
        <time>2022-12-18T13:32:30.623Z</time>
      </trkpt>
      <trkpt lat="46.55329" lon="-1.76834">
        <ele>52.43505</ele>
        <time>2022-12-18T13:32:33.632Z</time>
      </trkpt>
      <trkpt lat="46.55326" lon="-1.76818">
        <ele>52.459367</ele>
        <time>2022-12-18T13:32:36.625Z</time>
      </trkpt>
      <trkpt lat="46.55323" lon="-1.76801">
        <ele>52.48502</ele>
        <time>2022-12-18T13:32:39.626Z</time>
      </trkpt>
      <trkpt lat="46.55319" lon="-1.76782">
        <ele>52.513005</ele>
        <time>2022-12-18T13:32:42.642Z</time>
      </trkpt>
      <trkpt lat="46.55317" lon="-1.76769">
        <ele>52.531934</ele>
        <time>2022-12-18T13:32:44.630Z</time>
      </trkpt>
      <trkpt lat="46.55314" lon="-1.76756">
        <ele>52.551768</ele>
        <time>2022-12-18T13:32:46.632Z</time>
      </trkpt>
      <trkpt lat="46.55312" lon="-1.76743">
        <ele>52.571061</ele>
        <time>2022-12-18T13:32:48.650Z</time>
      </trkpt>
      <trkpt lat="46.5531" lon="-1.7673">
        <ele>52.590599</ele>
        <time>2022-12-18T13:32:50.639Z</time>
      </trkpt>
      <trkpt lat="46.55307" lon="-1.76712">
        <ele>52.618421</ele>
        <time>2022-12-18T13:32:53.645Z</time>
      </trkpt>
      <trkpt lat="46.55303" lon="-1.76694">
        <ele>52.645102</ele>
        <time>2022-12-18T13:32:56.652Z</time>
      </trkpt>
      <trkpt lat="46.553" lon="-1.76677">
        <ele>52.670574</ele>
        <time>2022-12-18T13:32:59.639Z</time>
      </trkpt>
      <trkpt lat="46.55297" lon="-1.76662">
        <ele>52.692475</ele>
        <time>2022-12-18T13:33:02.648Z</time>
      </trkpt>
      <trkpt lat="46.55295" lon="-1.76649">
        <ele>52.559296</ele>
        <time>2022-12-18T13:33:05.647Z</time>
      </trkpt>
      <trkpt lat="46.55293" lon="-1.76632">
        <ele>52.086176</ele>
        <time>2022-12-18T13:33:09.632Z</time>
      </trkpt>
      <trkpt lat="46.5529" lon="-1.7662">
        <ele>51.716657</ele>
        <time>2022-12-18T13:33:12.629Z</time>
      </trkpt>
      <trkpt lat="46.55288" lon="-1.76607">
        <ele>51.341048</ele>
        <time>2022-12-18T13:33:15.647Z</time>
      </trkpt>
      <trkpt lat="46.55286" lon="-1.76593">
        <ele>50.950842</ele>
        <time>2022-12-18T13:33:18.647Z</time>
      </trkpt>
      <trkpt lat="46.55283" lon="-1.7658">
        <ele>50.567156</ele>
        <time>2022-12-18T13:33:21.648Z</time>
      </trkpt>
      <trkpt lat="46.55279" lon="-1.76565">
        <ele>50.102676</ele>
        <time>2022-12-18T13:33:25.640Z</time>
      </trkpt>
      <trkpt lat="46.55274" lon="-1.7655">
        <ele>49.660537</ele>
        <time>2022-12-18T13:33:29.638Z</time>
      </trkpt>
      <trkpt lat="46.55266" lon="-1.7654">
        <ele>49.206789</ele>
        <time>2022-12-18T13:33:34.634Z</time>
      </trkpt>
      <trkpt lat="46.5526" lon="-1.76532">
        <ele>48.892285</ele>
        <time>2022-12-18T13:34:13.883Z</time>
      </trkpt>
      <trkpt lat="46.55255" lon="-1.76519">
        <ele>48.471539</ele>
        <time>2022-12-18T13:36:24.637Z</time>
      </trkpt>
      <trkpt lat="46.55246" lon="-1.76506">
        <ele>47.973852</ele>
        <time>2022-12-18T13:36:28.634Z</time>
      </trkpt>
      <trkpt lat="46.55235" lon="-1.765">
        <ele>47.48245</ele>
        <time>2022-12-18T13:36:31.630Z</time>
      </trkpt>
      <trkpt lat="46.55226" lon="-1.76496">
        <ele>47.08988</ele>
        <time>2022-12-18T13:36:33.636Z</time>
      </trkpt>
      <trkpt lat="46.55216" lon="-1.7649">
        <ele>46.669527</ele>
        <time>2022-12-18T13:36:35.645Z</time>
      </trkpt>
      <trkpt lat="46.55206" lon="-1.76484">
        <ele>46.212014</ele>
        <time>2022-12-18T13:36:37.652Z</time>
      </trkpt>
      <trkpt lat="46.55196" lon="-1.76478">
        <ele>45.752768</ele>
        <time>2022-12-18T13:36:39.640Z</time>
      </trkpt>
      <trkpt lat="46.55185" lon="-1.76472">
        <ele>45.347078</ele>
        <time>2022-12-18T13:36:41.655Z</time>
      </trkpt>
      <trkpt lat="46.55176" lon="-1.76467">
        <ele>45.209248</ele>
        <time>2022-12-18T13:36:43.659Z</time>
      </trkpt>
      <trkpt lat="46.55167" lon="-1.76462">
        <ele>45.087814</ele>
        <time>2022-12-18T13:36:45.634Z</time>
      </trkpt>
      <trkpt lat="46.55155" lon="-1.76455">
        <ele>44.913696</ele>
        <time>2022-12-18T13:36:48.652Z</time>
      </trkpt>
      <trkpt lat="46.55143" lon="-1.76448">
        <ele>44.743045</ele>
        <time>2022-12-18T13:36:51.630Z</time>
      </trkpt>
      <trkpt lat="46.5513" lon="-1.7644">
        <ele>44.560533</ele>
        <time>2022-12-18T13:36:54.633Z</time>
      </trkpt>
      <trkpt lat="46.55122" lon="-1.76435">
        <ele>44.439454</ele>
        <time>2022-12-18T13:36:56.653Z</time>
      </trkpt>
      <trkpt lat="46.55109" lon="-1.76431">
        <ele>44.261217</ele>
        <time>2022-12-18T13:36:59.637Z</time>
      </trkpt>
      <trkpt lat="46.551" lon="-1.7643">
        <ele>44.138269</ele>
        <time>2022-12-18T13:37:01.636Z</time>
      </trkpt>
      <trkpt lat="46.5509" lon="-1.76429">
        <ele>44.007801</ele>
        <time>2022-12-18T13:37:03.640Z</time>
      </trkpt>
      <trkpt lat="46.5508" lon="-1.76433">
        <ele>43.866457</ele>
        <time>2022-12-18T13:37:05.637Z</time>
      </trkpt>
      <trkpt lat="46.55069" lon="-1.7644">
        <ele>43.71484</ele>
        <time>2022-12-18T13:37:07.639Z</time>
      </trkpt>
      <trkpt lat="46.55061" lon="-1.7645">
        <ele>43.567331</ele>
        <time>2022-12-18T13:37:09.635Z</time>
      </trkpt>
      <trkpt lat="46.55053" lon="-1.7646">
        <ele>43.431981</ele>
        <time>2022-12-18T13:37:11.638Z</time>
      </trkpt>
      <trkpt lat="46.55046" lon="-1.76472">
        <ele>43.28904</ele>
        <time>2022-12-18T13:37:13.636Z</time>
      </trkpt>
      <trkpt lat="46.5504" lon="-1.76484">
        <ele>43.151841</ele>
        <time>2022-12-18T13:37:15.629Z</time>
      </trkpt>
      <trkpt lat="46.55034" lon="-1.76498">
        <ele>43.004037</ele>
        <time>2022-12-18T13:37:17.635Z</time>
      </trkpt>
      <trkpt lat="46.55029" lon="-1.76511">
        <ele>43.101399</ele>
        <time>2022-12-18T13:37:19.639Z</time>
      </trkpt>
      <trkpt lat="46.55023" lon="-1.76526">
        <ele>43.275157</ele>
        <time>2022-12-18T13:37:21.647Z</time>
      </trkpt>
      <trkpt lat="46.55017" lon="-1.7654">
        <ele>43.445117</ele>
        <time>2022-12-18T13:37:23.635Z</time>
      </trkpt>
      <trkpt lat="46.55011" lon="-1.76553">
        <ele>43.602715</ele>
        <time>2022-12-18T13:37:25.644Z</time>
      </trkpt>
      <trkpt lat="46.55006" lon="-1.76566">
        <ele>43.758442</ele>
        <time>2022-12-18T13:37:27.649Z</time>
      </trkpt>
      <trkpt lat="46.55002" lon="-1.76578">
        <ele>43.899286</ele>
        <time>2022-12-18T13:37:29.641Z</time>
      </trkpt>
      <trkpt lat="46.54995" lon="-1.76595">
        <ele>44.101337</ele>
        <time>2022-12-18T13:37:32.647Z</time>
      </trkpt>
      <trkpt lat="46.5499" lon="-1.7661">
        <ele>44.274596</ele>
        <time>2022-12-18T13:37:35.626Z</time>
      </trkpt>
      <trkpt lat="46.54985" lon="-1.76626">
        <ele>44.45152</ele>
        <time>2022-12-18T13:37:38.651Z</time>
      </trkpt>
      <trkpt lat="46.54979" lon="-1.76641">
        <ele>44.625694</ele>
        <time>2022-12-18T13:37:41.647Z</time>
      </trkpt>
      <trkpt lat="46.54974" lon="-1.76656">
        <ele>44.795308</ele>
        <time>2022-12-18T13:37:44.624Z</time>
      </trkpt>
      <trkpt lat="46.54968" lon="-1.7667">
        <ele>44.964375</ele>
        <time>2022-12-18T13:37:47.652Z</time>
      </trkpt>
      <trkpt lat="46.54962" lon="-1.76684">
        <ele>45.138235</ele>
        <time>2022-12-18T13:37:50.624Z</time>
      </trkpt>
      <trkpt lat="46.54956" lon="-1.76698">
        <ele>45.308504</ele>
        <time>2022-12-18T13:37:53.628Z</time>
      </trkpt>
      <trkpt lat="46.54948" lon="-1.7671">
        <ele>45.475632</ele>
        <time>2022-12-18T13:37:56.631Z</time>
      </trkpt>
      <trkpt lat="46.54941" lon="-1.76721">
        <ele>45.634746</ele>
        <time>2022-12-18T13:37:59.634Z</time>
      </trkpt>
      <trkpt lat="46.54932" lon="-1.7673">
        <ele>45.771366</ele>
        <time>2022-12-18T13:38:02.626Z</time>
      </trkpt>
      <trkpt lat="46.54923" lon="-1.76738">
        <ele>45.906708</ele>
        <time>2022-12-18T13:38:05.629Z</time>
      </trkpt>
      <trkpt lat="46.54914" lon="-1.76747">
        <ele>46.045105</ele>
        <time>2022-12-18T13:38:08.627Z</time>
      </trkpt>
      <trkpt lat="46.54905" lon="-1.76756">
        <ele>46.182235</ele>
        <time>2022-12-18T13:38:11.644Z</time>
      </trkpt>
      <trkpt lat="46.54898" lon="-1.76767">
        <ele>46.3113</ele>
        <time>2022-12-18T13:38:14.642Z</time>
      </trkpt>
      <trkpt lat="46.54892" lon="-1.76777">
        <ele>46.427122</ele>
        <time>2022-12-18T13:38:17.622Z</time>
      </trkpt>
      <trkpt lat="46.54886" lon="-1.76788">
        <ele>46.55434</ele>
        <time>2022-12-18T13:38:20.630Z</time>
      </trkpt>
      <trkpt lat="46.54878" lon="-1.768">
        <ele>46.693809</ele>
        <time>2022-12-18T13:38:23.627Z</time>
      </trkpt>
      <trkpt lat="46.54869" lon="-1.76811">
        <ele>46.839104</ele>
        <time>2022-12-18T13:38:26.634Z</time>
      </trkpt>
      <trkpt lat="46.54859" lon="-1.76817">
        <ele>46.981269</ele>
        <time>2022-12-18T13:38:29.650Z</time>
      </trkpt>
      <trkpt lat="46.54848" lon="-1.76817">
        <ele>47.113606</ele>
        <time>2022-12-18T13:38:32.634Z</time>
      </trkpt>
      <trkpt lat="46.54838" lon="-1.76814">
        <ele>47.244551</ele>
        <time>2022-12-18T13:38:35.631Z</time>
      </trkpt>
      <trkpt lat="46.5483" lon="-1.76809">
        <ele>47.358583</ele>
        <time>2022-12-18T13:38:38.640Z</time>
      </trkpt>
      <trkpt lat="46.54821" lon="-1.76804">
        <ele>47.478485</ele>
        <time>2022-12-18T13:38:41.643Z</time>
      </trkpt>
      <trkpt lat="46.54812" lon="-1.768">
        <ele>47.601179</ele>
        <time>2022-12-18T13:38:44.638Z</time>
      </trkpt>
      <trkpt lat="46.54802" lon="-1.76798">
        <ele>47.721883</ele>
        <time>2022-12-18T13:38:47.641Z</time>
      </trkpt>
      <trkpt lat="46.54792" lon="-1.76801">
        <ele>47.854693</ele>
        <time>2022-12-18T13:38:50.622Z</time>
      </trkpt>
      <trkpt lat="46.54781" lon="-1.76804">
        <ele>47.953678</ele>
        <time>2022-12-18T13:38:53.632Z</time>
      </trkpt>
      <trkpt lat="46.54771" lon="-1.76808">
        <ele>48.013218</ele>
        <time>2022-12-18T13:38:56.645Z</time>
      </trkpt>
      <trkpt lat="46.5476" lon="-1.76813">
        <ele>48.07445</ele>
        <time>2022-12-18T13:38:59.638Z</time>
      </trkpt>
      <trkpt lat="46.5475" lon="-1.76818">
        <ele>48.136002</ele>
        <time>2022-12-18T13:39:02.630Z</time>
      </trkpt>
      <trkpt lat="46.5474" lon="-1.76822">
        <ele>48.19332</ele>
        <time>2022-12-18T13:39:05.639Z</time>
      </trkpt>
      <trkpt lat="46.54728" lon="-1.76826">
        <ele>48.259</ele>
        <time>2022-12-18T13:39:09.628Z</time>
      </trkpt>
      <trkpt lat="46.54718" lon="-1.7683">
        <ele>48.318337</ele>
        <time>2022-12-18T13:39:12.627Z</time>
      </trkpt>
      <trkpt lat="46.54706" lon="-1.76834">
        <ele>48.382742</ele>
        <time>2022-12-18T13:39:15.626Z</time>
      </trkpt>
      <trkpt lat="46.54695" lon="-1.76839">
        <ele>48.447993</ele>
        <time>2022-12-18T13:39:18.644Z</time>
      </trkpt>
      <trkpt lat="46.54683" lon="-1.76845">
        <ele>48.517749</ele>
        <time>2022-12-18T13:39:21.627Z</time>
      </trkpt>
      <trkpt lat="46.5467" lon="-1.7685">
        <ele>48.590833</ele>
        <time>2022-12-18T13:39:24.632Z</time>
      </trkpt>
      <trkpt lat="46.54658" lon="-1.76855">
        <ele>48.662224</ele>
        <time>2022-12-18T13:39:27.642Z</time>
      </trkpt>
      <trkpt lat="46.54645" lon="-1.7686">
        <ele>48.733855</ele>
        <time>2022-12-18T13:39:30.636Z</time>
      </trkpt>
      <trkpt lat="46.54633" lon="-1.76865">
        <ele>48.803125</ele>
        <time>2022-12-18T13:39:33.640Z</time>
      </trkpt>
      <trkpt lat="46.54621" lon="-1.76869">
        <ele>48.87113</ele>
        <time>2022-12-18T13:39:36.643Z</time>
      </trkpt>
      <trkpt lat="46.5461" lon="-1.76875">
        <ele>48.986568</ele>
        <time>2022-12-18T13:39:39.638Z</time>
      </trkpt>
      <trkpt lat="46.54599" lon="-1.76879">
        <ele>49.209075</ele>
        <time>2022-12-18T13:39:42.636Z</time>
      </trkpt>
      <trkpt lat="46.54587" lon="-1.76884">
        <ele>49.447519</ele>
        <time>2022-12-18T13:39:45.654Z</time>
      </trkpt>
      <trkpt lat="46.54575" lon="-1.76888">
        <ele>49.691391</ele>
        <time>2022-12-18T13:39:48.635Z</time>
      </trkpt>
      <trkpt lat="46.54563" lon="-1.76894">
        <ele>49.93494</ele>
        <time>2022-12-18T13:39:51.635Z</time>
      </trkpt>
      <trkpt lat="46.5455" lon="-1.76899">
        <ele>50.182493</ele>
        <time>2022-12-18T13:39:54.649Z</time>
      </trkpt>
      <trkpt lat="46.54538" lon="-1.76905">
        <ele>50.437183</ele>
        <time>2022-12-18T13:39:57.642Z</time>
      </trkpt>
      <trkpt lat="46.54526" lon="-1.7691">
        <ele>50.686983</ele>
        <time>2022-12-18T13:40:00.635Z</time>
      </trkpt>
      <trkpt lat="46.54514" lon="-1.76915">
        <ele>50.92521</ele>
        <time>2022-12-18T13:40:03.625Z</time>
      </trkpt>
      <trkpt lat="46.54504" lon="-1.76919">
        <ele>51.12991</ele>
        <time>2022-12-18T13:40:06.630Z</time>
      </trkpt>
      <trkpt lat="46.54494" lon="-1.76922">
        <ele>51.319494</ele>
        <time>2022-12-18T13:40:09.631Z</time>
      </trkpt>
      <trkpt lat="46.54485" lon="-1.76925">
        <ele>51.51189</ele>
        <time>2022-12-18T13:40:12.631Z</time>
      </trkpt>
      <trkpt lat="46.54475" lon="-1.7693">
        <ele>51.711605</ele>
        <time>2022-12-18T13:40:15.646Z</time>
      </trkpt>
      <trkpt lat="46.54464" lon="-1.76934">
        <ele>51.923275</ele>
        <time>2022-12-18T13:40:18.626Z</time>
      </trkpt>
      <trkpt lat="46.54454" lon="-1.76939">
        <ele>52.132694</ele>
        <time>2022-12-18T13:40:21.645Z</time>
      </trkpt>
      <trkpt lat="46.54444" lon="-1.76943">
        <ele>52.345846</ele>
        <time>2022-12-18T13:40:24.652Z</time>
      </trkpt>
      <trkpt lat="46.54433" lon="-1.76947">
        <ele>52.437748</ele>
        <time>2022-12-18T13:40:27.645Z</time>
      </trkpt>
      <trkpt lat="46.54423" lon="-1.76952">
        <ele>52.463542</ele>
        <time>2022-12-18T13:40:30.625Z</time>
      </trkpt>
      <trkpt lat="46.54413" lon="-1.76956">
        <ele>52.490002</ele>
        <time>2022-12-18T13:40:33.637Z</time>
      </trkpt>
      <trkpt lat="46.54402" lon="-1.7696">
        <ele>52.515769</ele>
        <time>2022-12-18T13:40:36.629Z</time>
      </trkpt>
      <trkpt lat="46.54392" lon="-1.76964">
        <ele>52.541695</ele>
        <time>2022-12-18T13:40:39.632Z</time>
      </trkpt>
      <trkpt lat="46.54382" lon="-1.76968">
        <ele>52.568478</ele>
        <time>2022-12-18T13:40:42.637Z</time>
      </trkpt>
      <trkpt lat="46.54371" lon="-1.76972">
        <ele>52.596311</ele>
        <time>2022-12-18T13:40:45.632Z</time>
      </trkpt>
      <trkpt lat="46.54359" lon="-1.76976">
        <ele>52.625571</ele>
        <time>2022-12-18T13:40:48.629Z</time>
      </trkpt>
      <trkpt lat="46.54348" lon="-1.7698">
        <ele>52.654355</ele>
        <time>2022-12-18T13:40:51.628Z</time>
      </trkpt>
      <trkpt lat="46.54338" lon="-1.76985">
        <ele>52.678719</ele>
        <time>2022-12-18T13:40:54.638Z</time>
      </trkpt>
      <trkpt lat="46.54327" lon="-1.76989">
        <ele>52.707349</ele>
        <time>2022-12-18T13:40:58.628Z</time>
      </trkpt>
      <trkpt lat="46.54318" lon="-1.76993">
        <ele>52.730745</ele>
        <time>2022-12-18T13:41:01.634Z</time>
      </trkpt>
      <trkpt lat="46.54308" lon="-1.76997">
        <ele>52.754895</ele>
        <time>2022-12-18T13:41:04.646Z</time>
      </trkpt>
      <trkpt lat="46.54299" lon="-1.77001">
        <ele>52.77874</ele>
        <time>2022-12-18T13:41:07.640Z</time>
      </trkpt>
      <trkpt lat="46.54288" lon="-1.77007">
        <ele>52.807144</ele>
        <time>2022-12-18T13:41:11.628Z</time>
      </trkpt>
      <trkpt lat="46.54277" lon="-1.77013">
        <ele>52.835192</ele>
        <time>2022-12-18T13:41:15.637Z</time>
      </trkpt>
      <trkpt lat="46.54267" lon="-1.7702">
        <ele>52.867723</ele>
        <time>2022-12-18T13:41:19.631Z</time>
      </trkpt>
      <trkpt lat="46.54259" lon="-1.7703">
        <ele>52.974056</ele>
        <time>2022-12-18T13:41:23.640Z</time>
      </trkpt>
      <trkpt lat="46.54251" lon="-1.77043">
        <ele>53.095363</ele>
        <time>2022-12-18T13:41:27.634Z</time>
      </trkpt>
      <trkpt lat="46.54241" lon="-1.77046">
        <ele>53.195664</ele>
        <time>2022-12-18T13:41:30.633Z</time>
      </trkpt>
      <trkpt lat="46.54231" lon="-1.77043">
        <ele>53.294826</ele>
        <time>2022-12-18T13:41:33.630Z</time>
      </trkpt>
      <trkpt lat="46.54223" lon="-1.7704">
        <ele>53.385697</ele>
        <time>2022-12-18T13:41:36.634Z</time>
      </trkpt>
      <trkpt lat="46.54213" lon="-1.77041">
        <ele>53.478285</ele>
        <time>2022-12-18T13:41:39.636Z</time>
      </trkpt>
      <trkpt lat="46.54204" lon="-1.77044">
        <ele>53.575704</ele>
        <time>2022-12-18T13:41:42.647Z</time>
      </trkpt>
      <trkpt lat="46.54195" lon="-1.77047">
        <ele>53.672753</ele>
        <time>2022-12-18T13:41:45.630Z</time>
      </trkpt>
      <trkpt lat="46.54185" lon="-1.7705">
        <ele>53.770308</ele>
        <time>2022-12-18T13:41:48.646Z</time>
      </trkpt>
      <trkpt lat="46.54175" lon="-1.77055">
        <ele>53.877085</ele>
        <time>2022-12-18T13:41:52.632Z</time>
      </trkpt>
      <trkpt lat="46.54164" lon="-1.77058">
        <ele>53.987307</ele>
        <time>2022-12-18T13:41:56.641Z</time>
      </trkpt>
      <trkpt lat="46.54154" lon="-1.77063">
        <ele>54.097363</ele>
        <time>2022-12-18T13:42:00.648Z</time>
      </trkpt>
      <trkpt lat="46.54144" lon="-1.77067">
        <ele>54.202419</ele>
        <time>2022-12-18T13:42:04.638Z</time>
      </trkpt>
      <trkpt lat="46.54134" lon="-1.77072">
        <ele>54.303353</ele>
        <time>2022-12-18T13:42:08.650Z</time>
      </trkpt>
      <trkpt lat="46.54125" lon="-1.77076">
        <ele>54.401457</ele>
        <time>2022-12-18T13:42:12.626Z</time>
      </trkpt>
      <trkpt lat="46.54115" lon="-1.7708">
        <ele>54.501217</ele>
        <time>2022-12-18T13:42:16.646Z</time>
      </trkpt>
      <trkpt lat="46.54106" lon="-1.77083">
        <ele>54.594566</ele>
        <time>2022-12-18T13:42:20.637Z</time>
      </trkpt>
      <trkpt lat="46.54096" lon="-1.77088">
        <ele>54.85769</ele>
        <time>2022-12-18T13:42:25.634Z</time>
      </trkpt>
      <trkpt lat="46.54085" lon="-1.77092">
        <ele>55.40569</ele>
        <time>2022-12-18T13:42:30.631Z</time>
      </trkpt>
      <trkpt lat="46.54075" lon="-1.77097">
        <ele>55.952716</ele>
        <time>2022-12-18T13:42:35.630Z</time>
      </trkpt>
      <trkpt lat="46.54065" lon="-1.77101">
        <ele>56.476312</ele>
        <time>2022-12-18T13:42:40.628Z</time>
      </trkpt>
      <trkpt lat="46.54056" lon="-1.77104">
        <ele>56.94406</ele>
        <time>2022-12-18T13:42:45.640Z</time>
      </trkpt>
      <trkpt lat="46.54046" lon="-1.77109">
        <ele>57.425395</ele>
        <time>2022-12-18T13:42:50.636Z</time>
      </trkpt>
      <trkpt lat="46.54036" lon="-1.77112">
        <ele>57.938478</ele>
        <time>2022-12-18T13:42:56.635Z</time>
      </trkpt>
      <trkpt lat="46.54026" lon="-1.77116">
        <ele>58.468544</ele>
        <time>2022-12-18T13:43:02.637Z</time>
      </trkpt>
      <trkpt lat="46.54017" lon="-1.7712">
        <ele>58.974627</ele>
        <time>2022-12-18T13:43:08.641Z</time>
      </trkpt>
      <trkpt lat="46.54007" lon="-1.77123">
        <ele>59.480575</ele>
        <time>2022-12-18T13:43:14.638Z</time>
      </trkpt>
      <trkpt lat="46.53997" lon="-1.77127">
        <ele>59.988197</ele>
        <time>2022-12-18T13:43:20.629Z</time>
      </trkpt>
      <trkpt lat="46.53987" lon="-1.77132">
        <ele>60.497665</ele>
        <time>2022-12-18T13:43:27.629Z</time>
      </trkpt>
      <trkpt lat="46.53978" lon="-1.77134">
        <ele>60.960996</ele>
        <time>2022-12-18T13:43:32.629Z</time>
      </trkpt>
      <trkpt lat="46.53968" lon="-1.77139">
        <ele>61.488759</ele>
        <time>2022-12-18T13:43:38.640Z</time>
      </trkpt>
      <trkpt lat="46.53958" lon="-1.77143">
        <ele>62.024146</ele>
        <time>2022-12-18T13:43:44.637Z</time>
      </trkpt>
      <trkpt lat="46.53948" lon="-1.77147">
        <ele>62.534587</ele>
        <time>2022-12-18T13:43:50.642Z</time>
      </trkpt>
      <trkpt lat="46.53939" lon="-1.77148">
        <ele>62.991763</ele>
        <time>2022-12-18T13:43:55.632Z</time>
      </trkpt>
      <trkpt lat="46.53929" lon="-1.77153">
        <ele>63.486196</ele>
        <time>2022-12-18T13:44:00.627Z</time>
      </trkpt>
      <trkpt lat="46.5392" lon="-1.77157">
        <ele>63.933729</ele>
        <time>2022-12-18T13:44:05.634Z</time>
      </trkpt>
      <trkpt lat="46.53911" lon="-1.7716">
        <ele>64.348276</ele>
        <time>2022-12-18T13:44:10.654Z</time>
      </trkpt>
      <trkpt lat="46.53902" lon="-1.77164">
        <ele>64.757375</ele>
        <time>2022-12-18T13:44:15.650Z</time>
      </trkpt>
      <trkpt lat="46.53892" lon="-1.77167">
        <ele>65.197437</ele>
        <time>2022-12-18T13:44:20.647Z</time>
      </trkpt>
      <trkpt lat="46.53883" lon="-1.77172">
        <ele>65.648907</ele>
        <time>2022-12-18T13:44:25.646Z</time>
      </trkpt>
      <trkpt lat="46.53873" lon="-1.77176">
        <ele>66.068192</ele>
        <time>2022-12-18T13:44:30.636Z</time>
      </trkpt>
      <trkpt lat="46.53864" lon="-1.7718">
        <ele>66.490842</ele>
        <time>2022-12-18T13:44:35.649Z</time>
      </trkpt>
      <trkpt lat="46.53856" lon="-1.77185">
        <ele>66.889446</ele>
        <time>2022-12-18T13:44:40.647Z</time>
      </trkpt>
      <trkpt lat="46.53846" lon="-1.77188">
        <ele>67.325222</ele>
        <time>2022-12-18T13:44:45.631Z</time>
      </trkpt>
      <trkpt lat="46.53837" lon="-1.77193">
        <ele>67.764042</ele>
        <time>2022-12-18T13:44:50.629Z</time>
      </trkpt>
      <trkpt lat="46.53826" lon="-1.77196">
        <ele>68.242782</ele>
        <time>2022-12-18T13:44:55.645Z</time>
      </trkpt>
      <trkpt lat="46.53817" lon="-1.772">
        <ele>68.650213</ele>
        <time>2022-12-18T13:44:59.626Z</time>
      </trkpt>
      <trkpt lat="46.53808" lon="-1.77203">
        <ele>69.077425</ele>
        <time>2022-12-18T13:45:03.638Z</time>
      </trkpt>
      <trkpt lat="46.53798" lon="-1.77208">
        <ele>69.551</ele>
        <time>2022-12-18T13:45:07.640Z</time>
      </trkpt>
      <trkpt lat="46.53787" lon="-1.77215">
        <ele>70.064232</ele>
        <time>2022-12-18T13:45:11.631Z</time>
      </trkpt>
      <trkpt lat="46.53778" lon="-1.77219">
        <ele>70.48952</ele>
        <time>2022-12-18T13:45:14.634Z</time>
      </trkpt>
      <trkpt lat="46.53769" lon="-1.77222">
        <ele>70.909011</ele>
        <time>2022-12-18T13:45:17.652Z</time>
      </trkpt>
      <trkpt lat="46.53759" lon="-1.77224">
        <ele>71.353822</ele>
        <time>2022-12-18T13:45:20.631Z</time>
      </trkpt>
      <trkpt lat="46.53749" lon="-1.77228">
        <ele>71.634453</ele>
        <time>2022-12-18T13:45:23.637Z</time>
      </trkpt>
      <trkpt lat="46.5374" lon="-1.77231">
        <ele>71.741337</ele>
        <time>2022-12-18T13:45:26.653Z</time>
      </trkpt>
      <trkpt lat="46.5373" lon="-1.77234">
        <ele>71.85051</ele>
        <time>2022-12-18T13:45:29.646Z</time>
      </trkpt>
      <trkpt lat="46.5372" lon="-1.77237">
        <ele>71.957538</ele>
        <time>2022-12-18T13:45:32.637Z</time>
      </trkpt>
      <trkpt lat="46.53711" lon="-1.77239">
        <ele>72.055551</ele>
        <time>2022-12-18T13:45:35.662Z</time>
      </trkpt>
      <trkpt lat="46.53703" lon="-1.77244">
        <ele>72.154487</ele>
        <time>2022-12-18T13:45:38.652Z</time>
      </trkpt>
      <trkpt lat="46.53694" lon="-1.77247">
        <ele>72.253718</ele>
        <time>2022-12-18T13:45:41.637Z</time>
      </trkpt>
      <trkpt lat="46.53683" lon="-1.7725">
        <ele>72.376343</ele>
        <time>2022-12-18T13:45:46.628Z</time>
      </trkpt>
      <trkpt lat="46.53673" lon="-1.77254">
        <ele>72.488684</ele>
        <time>2022-12-18T13:45:52.632Z</time>
      </trkpt>
      <trkpt lat="46.53653" lon="-1.77262">
        <ele>72.717823</ele>
        <time>2022-12-18T13:46:28.634Z</time>
      </trkpt>
      <trkpt lat="46.53643" lon="-1.77267">
        <ele>72.839569</ele>
        <time>2022-12-18T13:46:31.633Z</time>
      </trkpt>
      <trkpt lat="46.53633" lon="-1.77272">
        <ele>72.955164</ele>
        <time>2022-12-18T13:46:34.646Z</time>
      </trkpt>
      <trkpt lat="46.53621" lon="-1.77277">
        <ele>73.084095</ele>
        <time>2022-12-18T13:46:37.627Z</time>
      </trkpt>
      <trkpt lat="46.53609" lon="-1.77282">
        <ele>73.223113</ele>
        <time>2022-12-18T13:46:40.630Z</time>
      </trkpt>
      <trkpt lat="46.53596" lon="-1.77286">
        <ele>73.371317</ele>
        <time>2022-12-18T13:46:43.645Z</time>
      </trkpt>
      <trkpt lat="46.53587" lon="-1.77289">
        <ele>73.469601</ele>
        <time>2022-12-18T13:46:45.649Z</time>
      </trkpt>
      <trkpt lat="46.53578" lon="-1.77293">
        <ele>73.442427</ele>
        <time>2022-12-18T13:46:47.632Z</time>
      </trkpt>
      <trkpt lat="46.53565" lon="-1.77297">
        <ele>72.803379</ele>
        <time>2022-12-18T13:46:50.629Z</time>
      </trkpt>
      <trkpt lat="46.53553" lon="-1.773">
        <ele>72.24195</ele>
        <time>2022-12-18T13:46:53.626Z</time>
      </trkpt>
      <trkpt lat="46.53542" lon="-1.77305">
        <ele>71.693729</ele>
        <time>2022-12-18T13:46:56.635Z</time>
      </trkpt>
      <trkpt lat="46.53531" lon="-1.7731">
        <ele>71.112334</ele>
        <time>2022-12-18T13:46:59.633Z</time>
      </trkpt>
      <trkpt lat="46.53519" lon="-1.77315">
        <ele>70.519835</ele>
        <time>2022-12-18T13:47:02.656Z</time>
      </trkpt>
      <trkpt lat="46.53505" lon="-1.7732">
        <ele>69.861337</ele>
        <time>2022-12-18T13:47:05.642Z</time>
      </trkpt>
      <trkpt lat="46.53496" lon="-1.77323">
        <ele>69.389584</ele>
        <time>2022-12-18T13:47:07.635Z</time>
      </trkpt>
      <trkpt lat="46.53486" lon="-1.77326">
        <ele>68.920344</ele>
        <time>2022-12-18T13:47:09.636Z</time>
      </trkpt>
      <trkpt lat="46.53476" lon="-1.7733">
        <ele>68.404239</ele>
        <time>2022-12-18T13:47:11.648Z</time>
      </trkpt>
      <trkpt lat="46.53466" lon="-1.77333">
        <ele>67.915497</ele>
        <time>2022-12-18T13:47:13.632Z</time>
      </trkpt>
      <trkpt lat="46.53455" lon="-1.77337">
        <ele>67.367253</ele>
        <time>2022-12-18T13:47:15.650Z</time>
      </trkpt>
      <trkpt lat="46.53444" lon="-1.77342">
        <ele>66.805119</ele>
        <time>2022-12-18T13:47:17.652Z</time>
      </trkpt>
      <trkpt lat="46.53433" lon="-1.77346">
        <ele>66.245864</ele>
        <time>2022-12-18T13:47:19.636Z</time>
      </trkpt>
      <trkpt lat="46.53421" lon="-1.77351">
        <ele>65.682866</ele>
        <time>2022-12-18T13:47:21.637Z</time>
      </trkpt>
      <trkpt lat="46.5341" lon="-1.77356">
        <ele>65.102148</ele>
        <time>2022-12-18T13:47:23.653Z</time>
      </trkpt>
      <trkpt lat="46.53398" lon="-1.77361">
        <ele>64.605502</ele>
        <time>2022-12-18T13:47:25.655Z</time>
      </trkpt>
      <trkpt lat="46.53386" lon="-1.77365">
        <ele>64.134912</ele>
        <time>2022-12-18T13:47:27.662Z</time>
      </trkpt>
      <trkpt lat="46.53375" lon="-1.7737">
        <ele>63.676046</ele>
        <time>2022-12-18T13:47:29.646Z</time>
      </trkpt>
      <trkpt lat="46.53362" lon="-1.77375">
        <ele>63.187709</ele>
        <time>2022-12-18T13:47:31.650Z</time>
      </trkpt>
      <trkpt lat="46.5335" lon="-1.77378">
        <ele>62.717119</ele>
        <time>2022-12-18T13:47:33.638Z</time>
      </trkpt>
      <trkpt lat="46.53338" lon="-1.77382">
        <ele>62.253939</ele>
        <time>2022-12-18T13:47:35.643Z</time>
      </trkpt>
      <trkpt lat="46.53326" lon="-1.77386">
        <ele>61.782274</ele>
        <time>2022-12-18T13:47:37.649Z</time>
      </trkpt>
      <trkpt lat="46.53313" lon="-1.77388">
        <ele>61.307633</ele>
        <time>2022-12-18T13:47:39.634Z</time>
      </trkpt>
      <trkpt lat="46.53301" lon="-1.7739">
        <ele>60.819354</ele>
        <time>2022-12-18T13:47:41.635Z</time>
      </trkpt>
      <trkpt lat="46.53288" lon="-1.77392">
        <ele>60.321448</ele>
        <time>2022-12-18T13:47:43.649Z</time>
      </trkpt>
      <trkpt lat="46.53274" lon="-1.77394">
        <ele>59.814504</ele>
        <time>2022-12-18T13:47:45.631Z</time>
      </trkpt>
      <trkpt lat="46.53262" lon="-1.77397">
        <ele>59.327889</ele>
        <time>2022-12-18T13:47:47.662Z</time>
      </trkpt>
      <trkpt lat="46.53249" lon="-1.77399">
        <ele>58.842565</ele>
        <time>2022-12-18T13:47:49.639Z</time>
      </trkpt>
      <trkpt lat="46.53236" lon="-1.77399">
        <ele>58.359899</ele>
        <time>2022-12-18T13:47:51.651Z</time>
      </trkpt>
      <trkpt lat="46.53224" lon="-1.77401">
        <ele>58.083888</ele>
        <time>2022-12-18T13:47:53.651Z</time>
      </trkpt>
      <trkpt lat="46.53211" lon="-1.77403">
        <ele>58.096828</ele>
        <time>2022-12-18T13:47:55.631Z</time>
      </trkpt>
      <trkpt lat="46.53199" lon="-1.77405">
        <ele>58.108832</ele>
        <time>2022-12-18T13:47:57.655Z</time>
      </trkpt>
      <trkpt lat="46.53188" lon="-1.77406">
        <ele>58.120586</ele>
        <time>2022-12-18T13:47:59.638Z</time>
      </trkpt>
      <trkpt lat="46.53177" lon="-1.77408">
        <ele>58.13237</ele>
        <time>2022-12-18T13:48:01.642Z</time>
      </trkpt>
      <trkpt lat="46.53166" lon="-1.77409">
        <ele>58.142906</ele>
        <time>2022-12-18T13:48:03.627Z</time>
      </trkpt>
      <trkpt lat="46.53154" lon="-1.77412">
        <ele>58.156076</ele>
        <time>2022-12-18T13:48:06.639Z</time>
      </trkpt>
      <trkpt lat="46.53143" lon="-1.77414">
        <ele>58.167446</ele>
        <time>2022-12-18T13:48:09.627Z</time>
      </trkpt>
      <trkpt lat="46.53132" lon="-1.77416">
        <ele>58.178917</ele>
        <time>2022-12-18T13:48:12.647Z</time>
      </trkpt>
      <trkpt lat="46.53121" lon="-1.77417">
        <ele>58.190358</ele>
        <time>2022-12-18T13:48:15.638Z</time>
      </trkpt>
      <trkpt lat="46.53109" lon="-1.77419">
        <ele>58.202136</ele>
        <time>2022-12-18T13:48:18.650Z</time>
      </trkpt>
      <trkpt lat="46.53097" lon="-1.7742">
        <ele>58.214413</ele>
        <time>2022-12-18T13:48:21.646Z</time>
      </trkpt>
      <trkpt lat="46.53085" lon="-1.77423">
        <ele>58.226768</ele>
        <time>2022-12-18T13:48:24.642Z</time>
      </trkpt>
      <trkpt lat="46.53074" lon="-1.77424">
        <ele>58.238829</ele>
        <time>2022-12-18T13:48:27.649Z</time>
      </trkpt>
      <trkpt lat="46.53062" lon="-1.77426">
        <ele>58.250535</ele>
        <time>2022-12-18T13:48:30.634Z</time>
      </trkpt>
      <trkpt lat="46.53052" lon="-1.77426">
        <ele>58.260925</ele>
        <time>2022-12-18T13:48:33.632Z</time>
      </trkpt>
      <trkpt lat="46.53043" lon="-1.77427">
        <ele>58.398362</ele>
        <time>2022-12-18T13:48:36.647Z</time>
      </trkpt>
      <trkpt lat="46.53034" lon="-1.77428">
        <ele>58.578068</ele>
        <time>2022-12-18T13:48:39.631Z</time>
      </trkpt>
      <trkpt lat="46.53025" lon="-1.7743">
        <ele>58.756967</ele>
        <time>2022-12-18T13:48:42.635Z</time>
      </trkpt>
      <trkpt lat="46.53015" lon="-1.77432">
        <ele>58.948754</ele>
        <time>2022-12-18T13:48:45.651Z</time>
      </trkpt>
      <trkpt lat="46.53006" lon="-1.77433">
        <ele>59.136723</ele>
        <time>2022-12-18T13:48:48.649Z</time>
      </trkpt>
      <trkpt lat="46.52996" lon="-1.77435">
        <ele>59.331114</ele>
        <time>2022-12-18T13:48:51.659Z</time>
      </trkpt>
      <trkpt lat="46.52986" lon="-1.77436">
        <ele>59.525827</ele>
        <time>2022-12-18T13:48:54.634Z</time>
      </trkpt>
      <trkpt lat="46.52976" lon="-1.77437">
        <ele>59.723244</ele>
        <time>2022-12-18T13:48:57.638Z</time>
      </trkpt>
      <trkpt lat="46.52966" lon="-1.77438">
        <ele>59.926729</ele>
        <time>2022-12-18T13:49:00.644Z</time>
      </trkpt>
      <trkpt lat="46.52956" lon="-1.7744">
        <ele>60.12476</ele>
        <time>2022-12-18T13:49:03.649Z</time>
      </trkpt>
      <trkpt lat="46.52946" lon="-1.77441">
        <ele>60.326716</ele>
        <time>2022-12-18T13:49:06.632Z</time>
      </trkpt>
      <trkpt lat="46.52936" lon="-1.77443">
        <ele>60.529422</ele>
        <time>2022-12-18T13:49:09.627Z</time>
      </trkpt>
      <trkpt lat="46.52925" lon="-1.77444">
        <ele>60.736933</ele>
        <time>2022-12-18T13:49:12.630Z</time>
      </trkpt>
      <trkpt lat="46.52915" lon="-1.77446">
        <ele>60.935729</ele>
        <time>2022-12-18T13:49:15.634Z</time>
      </trkpt>
      <trkpt lat="46.52904" lon="-1.77448">
        <ele>61.164371</ele>
        <time>2022-12-18T13:49:19.640Z</time>
      </trkpt>
      <trkpt lat="46.52892" lon="-1.77449">
        <ele>61.399604</ele>
        <time>2022-12-18T13:49:23.635Z</time>
      </trkpt>
      <trkpt lat="46.5288" lon="-1.77451">
        <ele>61.633482</ele>
        <time>2022-12-18T13:49:27.651Z</time>
      </trkpt>
      <trkpt lat="46.5287" lon="-1.77453">
        <ele>61.813151</ele>
        <time>2022-12-18T13:49:30.635Z</time>
      </trkpt>
      <trkpt lat="46.52861" lon="-1.77454">
        <ele>61.877679</ele>
        <time>2022-12-18T13:49:33.648Z</time>
      </trkpt>
      <trkpt lat="46.52851" lon="-1.77455">
        <ele>61.942702</ele>
        <time>2022-12-18T13:49:36.626Z</time>
      </trkpt>
      <trkpt lat="46.52841" lon="-1.77456">
        <ele>62.00766</ele>
        <time>2022-12-18T13:49:39.637Z</time>
      </trkpt>
      <trkpt lat="46.52832" lon="-1.77457">
        <ele>62.071351</ele>
        <time>2022-12-18T13:49:42.644Z</time>
      </trkpt>
      <trkpt lat="46.5282" lon="-1.77459">
        <ele>62.152022</ele>
        <time>2022-12-18T13:49:46.637Z</time>
      </trkpt>
      <trkpt lat="46.52808" lon="-1.77461">
        <ele>62.230518</ele>
        <time>2022-12-18T13:49:50.637Z</time>
      </trkpt>
      <trkpt lat="46.52799" lon="-1.77462">
        <ele>62.290919</ele>
        <time>2022-12-18T13:49:53.652Z</time>
      </trkpt>
      <trkpt lat="46.52788" lon="-1.77463">
        <ele>62.368083</ele>
        <time>2022-12-18T13:49:57.660Z</time>
      </trkpt>
      <trkpt lat="46.52779" lon="-1.77464">
        <ele>62.429073</ele>
        <time>2022-12-18T13:50:00.664Z</time>
      </trkpt>
      <trkpt lat="46.52769" lon="-1.77465">
        <ele>62.491921</ele>
        <time>2022-12-18T13:50:03.631Z</time>
      </trkpt>
      <trkpt lat="46.5276" lon="-1.77466">
        <ele>62.556401</ele>
        <time>2022-12-18T13:50:06.641Z</time>
      </trkpt>
      <trkpt lat="46.52749" lon="-1.77467">
        <ele>62.627494</ele>
        <time>2022-12-18T13:50:09.635Z</time>
      </trkpt>
      <trkpt lat="46.52739" lon="-1.77469">
        <ele>62.69335</ele>
        <time>2022-12-18T13:50:12.650Z</time>
      </trkpt>
      <trkpt lat="46.52727" lon="-1.7747">
        <ele>62.773219</ele>
        <time>2022-12-18T13:50:16.652Z</time>
      </trkpt>
      <trkpt lat="46.52716" lon="-1.77472">
        <ele>62.849052</ele>
        <time>2022-12-18T13:50:20.628Z</time>
      </trkpt>
      <trkpt lat="46.52707" lon="-1.77473">
        <ele>62.909544</ele>
        <time>2022-12-18T13:50:23.642Z</time>
      </trkpt>
      <trkpt lat="46.52698" lon="-1.77475">
        <ele>62.972694</ele>
        <time>2022-12-18T13:50:26.629Z</time>
      </trkpt>
      <trkpt lat="46.52688" lon="-1.77476">
        <ele>62.999525</ele>
        <time>2022-12-18T13:50:29.641Z</time>
      </trkpt>
      <trkpt lat="46.52678" lon="-1.77478">
        <ele>62.971851</ele>
        <time>2022-12-18T13:50:32.651Z</time>
      </trkpt>
      <trkpt lat="46.52668" lon="-1.77479">
        <ele>62.944977</ele>
        <time>2022-12-18T13:50:35.648Z</time>
      </trkpt>
      <trkpt lat="46.52658" lon="-1.7748">
        <ele>62.916114</ele>
        <time>2022-12-18T13:50:38.640Z</time>
      </trkpt>
      <trkpt lat="46.52647" lon="-1.77482">
        <ele>62.886399</ele>
        <time>2022-12-18T13:50:41.641Z</time>
      </trkpt>
      <trkpt lat="46.52637" lon="-1.77483">
        <ele>62.859478</ele>
        <time>2022-12-18T13:50:44.651Z</time>
      </trkpt>
      <trkpt lat="46.52627" lon="-1.77484">
        <ele>62.832268</ele>
        <time>2022-12-18T13:50:47.640Z</time>
      </trkpt>
      <trkpt lat="46.52616" lon="-1.77487">
        <ele>62.802074</ele>
        <time>2022-12-18T13:50:50.632Z</time>
      </trkpt>
      <trkpt lat="46.52605" lon="-1.77488">
        <ele>62.771041</ele>
        <time>2022-12-18T13:50:53.645Z</time>
      </trkpt>
      <trkpt lat="46.52595" lon="-1.77488">
        <ele>62.742828</ele>
        <time>2022-12-18T13:50:56.639Z</time>
      </trkpt>
      <trkpt lat="46.52585" lon="-1.7749">
        <ele>62.717722</ele>
        <time>2022-12-18T13:50:59.632Z</time>
      </trkpt>
      <trkpt lat="46.52576" lon="-1.7749">
        <ele>62.692205</ele>
        <time>2022-12-18T13:51:02.641Z</time>
      </trkpt>
      <trkpt lat="46.52566" lon="-1.77492">
        <ele>62.663496</ele>
        <time>2022-12-18T13:51:05.644Z</time>
      </trkpt>
      <trkpt lat="46.52554" lon="-1.77494">
        <ele>62.632434</ele>
        <time>2022-12-18T13:51:08.634Z</time>
      </trkpt>
      <trkpt lat="46.52543" lon="-1.77495">
        <ele>62.600793</ele>
        <time>2022-12-18T13:51:11.647Z</time>
      </trkpt>
      <trkpt lat="46.52532" lon="-1.77497">
        <ele>62.570452</ele>
        <time>2022-12-18T13:51:14.636Z</time>
      </trkpt>
      <trkpt lat="46.52522" lon="-1.77499">
        <ele>62.5421</ele>
        <time>2022-12-18T13:51:17.644Z</time>
      </trkpt>
      <trkpt lat="46.5251" lon="-1.77501">
        <ele>62.471072</ele>
        <time>2022-12-18T13:51:21.641Z</time>
      </trkpt>
      <trkpt lat="46.525" lon="-1.77502">
        <ele>62.339121</ele>
        <time>2022-12-18T13:51:24.629Z</time>
      </trkpt>
      <trkpt lat="46.52491" lon="-1.77502">
        <ele>62.210619</ele>
        <time>2022-12-18T13:51:27.635Z</time>
      </trkpt>
      <trkpt lat="46.52482" lon="-1.77503">
        <ele>62.083182</ele>
        <time>2022-12-18T13:51:30.650Z</time>
      </trkpt>
      <trkpt lat="46.52472" lon="-1.77504">
        <ele>61.944773</ele>
        <time>2022-12-18T13:51:34.637Z</time>
      </trkpt>
      <trkpt lat="46.52461" lon="-1.77506">
        <ele>61.783482</ele>
        <time>2022-12-18T13:51:39.627Z</time>
      </trkpt>
      <trkpt lat="46.52451" lon="-1.77507">
        <ele>61.643441</ele>
        <time>2022-12-18T13:51:42.631Z</time>
      </trkpt>
      <trkpt lat="46.5244" lon="-1.77509">
        <ele>61.495801</ele>
        <time>2022-12-18T13:51:45.639Z</time>
      </trkpt>
      <trkpt lat="46.52429" lon="-1.77512">
        <ele>61.339231</ele>
        <time>2022-12-18T13:51:48.658Z</time>
      </trkpt>
      <trkpt lat="46.52419" lon="-1.77512">
        <ele>61.199378</ele>
        <time>2022-12-18T13:51:51.644Z</time>
      </trkpt>
      <trkpt lat="46.52409" lon="-1.77514">
        <ele>61.056904</ele>
        <time>2022-12-18T13:51:54.645Z</time>
      </trkpt>
      <trkpt lat="46.52398" lon="-1.77516">
        <ele>60.901141</ele>
        <time>2022-12-18T13:51:57.632Z</time>
      </trkpt>
      <trkpt lat="46.52387" lon="-1.77518">
        <ele>60.743989</ele>
        <time>2022-12-18T13:52:00.630Z</time>
      </trkpt>
      <trkpt lat="46.52376" lon="-1.77519">
        <ele>60.594128</ele>
        <time>2022-12-18T13:52:03.631Z</time>
      </trkpt>
      <trkpt lat="46.52364" lon="-1.7752">
        <ele>60.433193</ele>
        <time>2022-12-18T13:52:06.639Z</time>
      </trkpt>
      <trkpt lat="46.52352" lon="-1.77521">
        <ele>60.259821</ele>
        <time>2022-12-18T13:52:09.636Z</time>
      </trkpt>
      <trkpt lat="46.52343" lon="-1.77522">
        <ele>60.128133</ele>
        <time>2022-12-18T13:52:11.628Z</time>
      </trkpt>
      <trkpt lat="46.52333" lon="-1.77523">
        <ele>60.002838</ele>
        <time>2022-12-18T13:52:13.639Z</time>
      </trkpt>
      <trkpt lat="46.5232" lon="-1.77525">
        <ele>59.907331</ele>
        <time>2022-12-18T13:52:16.636Z</time>
      </trkpt>
      <trkpt lat="46.52308" lon="-1.77526">
        <ele>59.814716</ele>
        <time>2022-12-18T13:52:19.638Z</time>
      </trkpt>
      <trkpt lat="46.52296" lon="-1.77528">
        <ele>59.727667</ele>
        <time>2022-12-18T13:52:22.639Z</time>
      </trkpt>
      <trkpt lat="46.52284" lon="-1.77529">
        <ele>59.643251</ele>
        <time>2022-12-18T13:52:25.644Z</time>
      </trkpt>
      <trkpt lat="46.52272" lon="-1.77532">
        <ele>59.554039</ele>
        <time>2022-12-18T13:52:28.633Z</time>
      </trkpt>
      <trkpt lat="46.52259" lon="-1.77533">
        <ele>59.460229</ele>
        <time>2022-12-18T13:52:31.637Z</time>
      </trkpt>
      <trkpt lat="46.52248" lon="-1.77535">
        <ele>59.376124</ele>
        <time>2022-12-18T13:52:34.644Z</time>
      </trkpt>
      <trkpt lat="46.52236" lon="-1.77536">
        <ele>59.290984</ele>
        <time>2022-12-18T13:52:37.631Z</time>
      </trkpt>
      <trkpt lat="46.52223" lon="-1.77538">
        <ele>59.197326</ele>
        <time>2022-12-18T13:52:40.652Z</time>
      </trkpt>
      <trkpt lat="46.5221" lon="-1.77539">
        <ele>59.102858</ele>
        <time>2022-12-18T13:52:43.647Z</time>
      </trkpt>
      <trkpt lat="46.52196" lon="-1.7754">
        <ele>59.003851</ele>
        <time>2022-12-18T13:52:46.628Z</time>
      </trkpt>
      <trkpt lat="46.52183" lon="-1.77542">
        <ele>58.908751</ele>
        <time>2022-12-18T13:52:49.631Z</time>
      </trkpt>
      <trkpt lat="46.52174" lon="-1.77544">
        <ele>58.842967</ele>
        <time>2022-12-18T13:52:51.636Z</time>
      </trkpt>
      <trkpt lat="46.52162" lon="-1.77546">
        <ele>58.752423</ele>
        <time>2022-12-18T13:52:54.632Z</time>
      </trkpt>
      <trkpt lat="46.52149" lon="-1.77545">
        <ele>58.628718</ele>
        <time>2022-12-18T13:52:57.634Z</time>
      </trkpt>
      <trkpt lat="46.52137" lon="-1.77548">
        <ele>58.480723</ele>
        <time>2022-12-18T13:53:00.630Z</time>
      </trkpt>
      <trkpt lat="46.52124" lon="-1.7755">
        <ele>58.317944</ele>
        <time>2022-12-18T13:53:03.650Z</time>
      </trkpt>
      <trkpt lat="46.52111" lon="-1.77552">
        <ele>58.160504</ele>
        <time>2022-12-18T13:53:06.655Z</time>
      </trkpt>
      <trkpt lat="46.52098" lon="-1.77552">
        <ele>57.998424</ele>
        <time>2022-12-18T13:53:09.637Z</time>
      </trkpt>
      <trkpt lat="46.52085" lon="-1.77555">
        <ele>57.840016</ele>
        <time>2022-12-18T13:53:12.631Z</time>
      </trkpt>
      <trkpt lat="46.52072" lon="-1.77558">
        <ele>57.680419</ele>
        <time>2022-12-18T13:53:15.647Z</time>
      </trkpt>
      <trkpt lat="46.52061" lon="-1.77561">
        <ele>57.535117</ele>
        <time>2022-12-18T13:53:18.649Z</time>
      </trkpt>
      <trkpt lat="46.5205" lon="-1.77562">
        <ele>57.402327</ele>
        <time>2022-12-18T13:53:21.650Z</time>
      </trkpt>
      <trkpt lat="46.52038" lon="-1.77564">
        <ele>57.256801</ele>
        <time>2022-12-18T13:53:24.648Z</time>
      </trkpt>
      <trkpt lat="46.52026" lon="-1.77565">
        <ele>57.105476</ele>
        <time>2022-12-18T13:53:27.645Z</time>
      </trkpt>
      <trkpt lat="46.52014" lon="-1.77567">
        <ele>56.956011</ele>
        <time>2022-12-18T13:53:30.644Z</time>
      </trkpt>
      <trkpt lat="46.52002" lon="-1.77569">
        <ele>56.818202</ele>
        <time>2022-12-18T13:53:33.632Z</time>
      </trkpt>
      <trkpt lat="46.51991" lon="-1.77569">
        <ele>56.679478</ele>
        <time>2022-12-18T13:53:36.640Z</time>
      </trkpt>
      <trkpt lat="46.5198" lon="-1.77571">
        <ele>56.536778</ele>
        <time>2022-12-18T13:53:39.636Z</time>
      </trkpt>
      <trkpt lat="46.51971" lon="-1.77572">
        <ele>56.415094</ele>
        <time>2022-12-18T13:53:41.645Z</time>
      </trkpt>
      <trkpt lat="46.51962" lon="-1.77573">
        <ele>56.287797</ele>
        <time>2022-12-18T13:53:43.632Z</time>
      </trkpt>
      <trkpt lat="46.51949" lon="-1.77575">
        <ele>56.10463</ele>
        <time>2022-12-18T13:53:46.640Z</time>
      </trkpt>
      <trkpt lat="46.51937" lon="-1.77577">
        <ele>55.9343</ele>
        <time>2022-12-18T13:53:49.631Z</time>
      </trkpt>
      <trkpt lat="46.51925" lon="-1.77577">
        <ele>55.774845</ele>
        <time>2022-12-18T13:53:52.651Z</time>
      </trkpt>
      <trkpt lat="46.51915" lon="-1.77577">
        <ele>55.629502</ele>
        <time>2022-12-18T13:53:55.648Z</time>
      </trkpt>
      <trkpt lat="46.51904" lon="-1.77576">
        <ele>55.476797</ele>
        <time>2022-12-18T13:53:58.634Z</time>
      </trkpt>
      <trkpt lat="46.51892" lon="-1.77578">
        <ele>55.309655</ele>
        <time>2022-12-18T13:54:01.630Z</time>
      </trkpt>
      <trkpt lat="46.5188" lon="-1.7758">
        <ele>55.1294</ele>
        <time>2022-12-18T13:54:04.637Z</time>
      </trkpt>
      <trkpt lat="46.5187" lon="-1.77581">
        <ele>54.997468</ele>
        <time>2022-12-18T13:54:06.631Z</time>
      </trkpt>
      <trkpt lat="46.51861" lon="-1.77582">
        <ele>54.869846</ele>
        <time>2022-12-18T13:54:08.634Z</time>
      </trkpt>
      <trkpt lat="46.51849" lon="-1.77583">
        <ele>54.689061</ele>
        <time>2022-12-18T13:54:11.633Z</time>
      </trkpt>
      <trkpt lat="46.5184" lon="-1.77585">
        <ele>54.560868</ele>
        <time>2022-12-18T13:54:13.650Z</time>
      </trkpt>
      <trkpt lat="46.5183" lon="-1.77586">
        <ele>54.419197</ele>
        <time>2022-12-18T13:54:15.636Z</time>
      </trkpt>
      <trkpt lat="46.51819" lon="-1.77588">
        <ele>54.273129</ele>
        <time>2022-12-18T13:54:17.633Z</time>
      </trkpt>
      <trkpt lat="46.51809" lon="-1.77589">
        <ele>54.131368</ele>
        <time>2022-12-18T13:54:19.637Z</time>
      </trkpt>
      <trkpt lat="46.51799" lon="-1.7759">
        <ele>53.984155</ele>
        <time>2022-12-18T13:54:21.639Z</time>
      </trkpt>
      <trkpt lat="46.51789" lon="-1.77592">
        <ele>53.978661</ele>
        <time>2022-12-18T13:54:23.654Z</time>
      </trkpt>
      <trkpt lat="46.51778" lon="-1.77593">
        <ele>54.005565</ele>
        <time>2022-12-18T13:54:25.659Z</time>
      </trkpt>
      <trkpt lat="46.51769" lon="-1.77593">
        <ele>54.030327</ele>
        <time>2022-12-18T13:54:27.656Z</time>
      </trkpt>
      <trkpt lat="46.5176" lon="-1.77595">
        <ele>54.055256</ele>
        <time>2022-12-18T13:54:29.638Z</time>
      </trkpt>
      <trkpt lat="46.51751" lon="-1.77597">
        <ele>54.079118</ele>
        <time>2022-12-18T13:54:31.662Z</time>
      </trkpt>
      <trkpt lat="46.51738" lon="-1.77599">
        <ele>54.113018</ele>
        <time>2022-12-18T13:54:34.738Z</time>
      </trkpt>
      <trkpt lat="46.51725" lon="-1.77602">
        <ele>54.147399</ele>
        <time>2022-12-18T13:54:37.650Z</time>
      </trkpt>
      <trkpt lat="46.51715" lon="-1.77603">
        <ele>54.173314</ele>
        <time>2022-12-18T13:54:39.635Z</time>
      </trkpt>
      <trkpt lat="46.51705" lon="-1.77605">
        <ele>54.200313</ele>
        <time>2022-12-18T13:54:41.645Z</time>
      </trkpt>
      <trkpt lat="46.51695" lon="-1.77606">
        <ele>54.227538</ele>
        <time>2022-12-18T13:54:43.662Z</time>
      </trkpt>
      <trkpt lat="46.51685" lon="-1.77608">
        <ele>54.253774</ele>
        <time>2022-12-18T13:54:45.631Z</time>
      </trkpt>
      <trkpt lat="46.51676" lon="-1.7761">
        <ele>54.278082</ele>
        <time>2022-12-18T13:54:47.646Z</time>
      </trkpt>
      <trkpt lat="46.51666" lon="-1.77614">
        <ele>54.303109</ele>
        <time>2022-12-18T13:54:49.636Z</time>
      </trkpt>
      <trkpt lat="46.51654" lon="-1.77617">
        <ele>54.336318</ele>
        <time>2022-12-18T13:54:52.652Z</time>
      </trkpt>
      <trkpt lat="46.51643" lon="-1.77619">
        <ele>54.365754</ele>
        <time>2022-12-18T13:54:55.633Z</time>
      </trkpt>
      <trkpt lat="46.51633" lon="-1.77621">
        <ele>54.39223</ele>
        <time>2022-12-18T13:54:58.635Z</time>
      </trkpt>
      <trkpt lat="46.51623" lon="-1.77622">
        <ele>54.417943</ele>
        <time>2022-12-18T13:55:01.650Z</time>
      </trkpt>
      <trkpt lat="46.51614" lon="-1.77625">
        <ele>54.556739</ele>
        <time>2022-12-18T13:55:04.647Z</time>
      </trkpt>
      <trkpt lat="46.51605" lon="-1.77626">
        <ele>54.793561</ele>
        <time>2022-12-18T13:55:07.637Z</time>
      </trkpt>
      <trkpt lat="46.51594" lon="-1.77627">
        <ele>55.05405</ele>
        <time>2022-12-18T13:55:10.636Z</time>
      </trkpt>
      <trkpt lat="46.51584" lon="-1.77628">
        <ele>55.310591</ele>
        <time>2022-12-18T13:55:13.638Z</time>
      </trkpt>
      <trkpt lat="46.51574" lon="-1.7763">
        <ele>55.569409</ele>
        <time>2022-12-18T13:55:16.650Z</time>
      </trkpt>
      <trkpt lat="46.51565" lon="-1.77633">
        <ele>55.811936</ele>
        <time>2022-12-18T13:55:19.638Z</time>
      </trkpt>
      <trkpt lat="46.51556" lon="-1.77634">
        <ele>56.044976</ele>
        <time>2022-12-18T13:55:22.637Z</time>
      </trkpt>
      <trkpt lat="46.51547" lon="-1.77636">
        <ele>56.282025</ele>
        <time>2022-12-18T13:55:25.654Z</time>
      </trkpt>
      <trkpt lat="46.51538" lon="-1.77637">
        <ele>56.515522</ele>
        <time>2022-12-18T13:55:28.633Z</time>
      </trkpt>
      <trkpt lat="46.51527" lon="-1.77639">
        <ele>56.780039</ele>
        <time>2022-12-18T13:55:32.654Z</time>
      </trkpt>
      <trkpt lat="46.51517" lon="-1.77641">
        <ele>57.052991</ele>
        <time>2022-12-18T13:55:36.649Z</time>
      </trkpt>
      <trkpt lat="46.51505" lon="-1.77642">
        <ele>57.349541</ele>
        <time>2022-12-18T13:55:40.629Z</time>
      </trkpt>
      <trkpt lat="46.51494" lon="-1.77644">
        <ele>57.645512</ele>
        <time>2022-12-18T13:55:44.627Z</time>
      </trkpt>
      <trkpt lat="46.51485" lon="-1.77645">
        <ele>57.879009</ele>
        <time>2022-12-18T13:55:47.630Z</time>
      </trkpt>
      <trkpt lat="46.51473" lon="-1.77647">
        <ele>58.17879</ele>
        <time>2022-12-18T13:55:51.644Z</time>
      </trkpt>
      <trkpt lat="46.51464" lon="-1.77649">
        <ele>58.409211</ele>
        <time>2022-12-18T13:55:56.642Z</time>
      </trkpt>
      <trkpt lat="46.51463" lon="-1.77663">
        <ele>58.643823</ele>
        <time>2022-12-18T13:56:04.632Z</time>
      </trkpt>
      <trkpt lat="46.51466" lon="-1.77679">
        <ele>58.929876</ele>
        <time>2022-12-18T13:56:08.624Z</time>
      </trkpt>
      <trkpt lat="46.51468" lon="-1.77694">
        <ele>59.022848</ele>
        <time>2022-12-18T13:56:12.639Z</time>
      </trkpt>
      <trkpt lat="46.51472" lon="-1.77708">
        <ele>59.023064</ele>
        <time>2022-12-18T13:56:16.631Z</time>
      </trkpt>
      <trkpt lat="46.51473" lon="-1.77721">
        <ele>59.023258</ele>
        <time>2022-12-18T13:56:19.639Z</time>
      </trkpt>
      <trkpt lat="46.51476" lon="-1.77736">
        <ele>59.02348</ele>
        <time>2022-12-18T13:56:22.652Z</time>
      </trkpt>
      <trkpt lat="46.51477" lon="-1.77749">
        <ele>59.023679</ele>
        <time>2022-12-18T13:56:25.632Z</time>
      </trkpt>
      <trkpt lat="46.51479" lon="-1.77765">
        <ele>59.02391</ele>
        <time>2022-12-18T13:56:29.638Z</time>
      </trkpt>
      <trkpt lat="46.51481" lon="-1.7778">
        <ele>59.024127</ele>
        <time>2022-12-18T13:56:32.630Z</time>
      </trkpt>
      <trkpt lat="46.51483" lon="-1.77794">
        <ele>59.024343</ele>
        <time>2022-12-18T13:56:35.647Z</time>
      </trkpt>
      <trkpt lat="46.51485" lon="-1.77809">
        <ele>59.024555</ele>
        <time>2022-12-18T13:56:38.638Z</time>
      </trkpt>
      <trkpt lat="46.51486" lon="-1.77823">
        <ele>59.024764</ele>
        <time>2022-12-18T13:56:41.626Z</time>
      </trkpt>
      <trkpt lat="46.51484" lon="-1.77836">
        <ele>59.024956</ele>
        <time>2022-12-18T13:56:44.633Z</time>
      </trkpt>
      <trkpt lat="46.51474" lon="-1.77843">
        <ele>59.025197</ele>
        <time>2022-12-18T13:56:47.638Z</time>
      </trkpt>
      <trkpt lat="46.51462" lon="-1.77846">
        <ele>59.025438</ele>
        <time>2022-12-18T13:56:50.655Z</time>
      </trkpt>
      <trkpt lat="46.51453" lon="-1.77847">
        <ele>59.02564</ele>
        <time>2022-12-18T13:56:53.630Z</time>
      </trkpt>
      <trkpt lat="46.51444" lon="-1.7785">
        <ele>59.025835</ele>
        <time>2022-12-18T13:56:56.628Z</time>
      </trkpt>
      <trkpt lat="46.51435" lon="-1.7786">
        <ele>59.026067</ele>
        <time>2022-12-18T13:57:01.630Z</time>
      </trkpt>
      <trkpt lat="46.51434" lon="-1.77873">
        <ele>59.026261</ele>
        <time>2022-12-18T13:57:05.635Z</time>
      </trkpt>
      <trkpt lat="46.51433" lon="-1.77887">
        <ele>59.026463</ele>
        <time>2022-12-18T13:57:09.649Z</time>
      </trkpt>
      <trkpt lat="46.51433" lon="-1.779">
        <ele>58.889365</ele>
        <time>2022-12-18T13:57:12.625Z</time>
      </trkpt>
      <trkpt lat="46.51435" lon="-1.77914">
        <ele>58.712153</ele>
        <time>2022-12-18T13:57:15.622Z</time>
      </trkpt>
      <trkpt lat="46.51438" lon="-1.77928">
        <ele>58.544294</ele>
        <time>2022-12-18T13:57:18.630Z</time>
      </trkpt>
      <trkpt lat="46.51441" lon="-1.77942">
        <ele>58.357617</ele>
        <time>2022-12-18T13:57:22.637Z</time>
      </trkpt>
      <trkpt lat="46.51443" lon="-1.77955">
        <ele>58.196793</ele>
        <time>2022-12-18T13:57:27.639Z</time>
      </trkpt>
      <trkpt lat="46.51443" lon="-1.77956">
        <ele>58.18056</ele>
        <time>2022-12-18T13:58:08.035Z</time>
      </trkpt>
      <trkpt lat="46.51437" lon="-1.77944">
        <ele>57.992963</ele>
        <time>2022-12-18T14:01:43.636Z</time>
      </trkpt>
      <trkpt lat="46.51435" lon="-1.77926">
        <ele>57.77967</ele>
        <time>2022-12-18T14:01:47.629Z</time>
      </trkpt>
      <trkpt lat="46.51433" lon="-1.77911">
        <ele>57.593649</ele>
        <time>2022-12-18T14:01:50.632Z</time>
      </trkpt>
      <trkpt lat="46.5143" lon="-1.77896">
        <ele>57.401007</ele>
        <time>2022-12-18T14:01:53.645Z</time>
      </trkpt>
      <trkpt lat="46.51425" lon="-1.77881">
        <ele>57.195981</ele>
        <time>2022-12-18T14:01:56.635Z</time>
      </trkpt>
      <trkpt lat="46.51421" lon="-1.77868">
        <ele>57.022606</ele>
        <time>2022-12-18T14:01:59.634Z</time>
      </trkpt>
      <trkpt lat="46.51422" lon="-1.77854">
        <ele>56.856563</ele>
        <time>2022-12-18T14:02:02.635Z</time>
      </trkpt>
      <trkpt lat="46.51421" lon="-1.77841">
        <ele>56.68732</ele>
        <time>2022-12-18T14:02:05.641Z</time>
      </trkpt>
      <trkpt lat="46.5142" lon="-1.77825">
        <ele>56.501311</ele>
        <time>2022-12-18T14:02:08.631Z</time>
      </trkpt>
      <trkpt lat="46.51418" lon="-1.77811">
        <ele>56.328227</ele>
        <time>2022-12-18T14:02:11.642Z</time>
      </trkpt>
      <trkpt lat="46.51416" lon="-1.77799">
        <ele>56.166706</ele>
        <time>2022-12-18T14:02:14.638Z</time>
      </trkpt>
      <trkpt lat="46.51414" lon="-1.77785">
        <ele>56.000957</ele>
        <time>2022-12-18T14:02:17.639Z</time>
      </trkpt>
      <trkpt lat="46.51411" lon="-1.77772">
        <ele>55.855593</ele>
        <time>2022-12-18T14:02:20.640Z</time>
      </trkpt>
      <trkpt lat="46.51406" lon="-1.77759">
        <ele>55.988573</ele>
        <time>2022-12-18T14:02:23.639Z</time>
      </trkpt>
      <trkpt lat="46.514" lon="-1.77746">
        <ele>56.122764</ele>
        <time>2022-12-18T14:02:26.638Z</time>
      </trkpt>
      <trkpt lat="46.51393" lon="-1.77735">
        <ele>56.259451</ele>
        <time>2022-12-18T14:02:29.635Z</time>
      </trkpt>
      <trkpt lat="46.51384" lon="-1.77726">
        <ele>56.406788</ele>
        <time>2022-12-18T14:02:32.643Z</time>
      </trkpt>
      <trkpt lat="46.51375" lon="-1.77718">
        <ele>56.54932</ele>
        <time>2022-12-18T14:02:35.640Z</time>
      </trkpt>
      <trkpt lat="46.51366" lon="-1.7771">
        <ele>56.684198</ele>
        <time>2022-12-18T14:02:38.637Z</time>
      </trkpt>
      <trkpt lat="46.51357" lon="-1.77704">
        <ele>56.806773</ele>
        <time>2022-12-18T14:02:41.632Z</time>
      </trkpt>
      <trkpt lat="46.51346" lon="-1.77701">
        <ele>56.951954</ele>
        <time>2022-12-18T14:02:46.633Z</time>
      </trkpt>
      <trkpt lat="46.51335" lon="-1.77701">
        <ele>57.09756</ele>
        <time>2022-12-18T14:02:50.627Z</time>
      </trkpt>
      <trkpt lat="46.51326" lon="-1.77695">
        <ele>57.223181</ele>
        <time>2022-12-18T14:02:53.643Z</time>
      </trkpt>
      <trkpt lat="46.51319" lon="-1.77684">
        <ele>57.35876</ele>
        <time>2022-12-18T14:02:56.634Z</time>
      </trkpt>
      <trkpt lat="46.51318" lon="-1.7767">
        <ele>57.487494</ele>
        <time>2022-12-18T14:02:59.638Z</time>
      </trkpt>
      <trkpt lat="46.51319" lon="-1.77655">
        <ele>57.614769</ele>
        <time>2022-12-18T14:03:02.637Z</time>
      </trkpt>
      <trkpt lat="46.5132" lon="-1.7764">
        <ele>57.750369</ele>
        <time>2022-12-18T14:03:05.639Z</time>
      </trkpt>
      <trkpt lat="46.51319" lon="-1.77626">
        <ele>57.88177</ele>
        <time>2022-12-18T14:03:08.639Z</time>
      </trkpt>
      <trkpt lat="46.51316" lon="-1.77613">
        <ele>58.002889</ele>
        <time>2022-12-18T14:03:11.632Z</time>
      </trkpt>
      <trkpt lat="46.51313" lon="-1.77598">
        <ele>58.141074</ele>
        <time>2022-12-18T14:03:14.632Z</time>
      </trkpt>
      <trkpt lat="46.51311" lon="-1.77582">
        <ele>58.298862</ele>
        <time>2022-12-18T14:03:17.632Z</time>
      </trkpt>
      <trkpt lat="46.51309" lon="-1.77566">
        <ele>58.474524</ele>
        <time>2022-12-18T14:03:20.634Z</time>
      </trkpt>
      <trkpt lat="46.51307" lon="-1.77549">
        <ele>58.653031</ele>
        <time>2022-12-18T14:03:23.634Z</time>
      </trkpt>
      <trkpt lat="46.51305" lon="-1.77532">
        <ele>58.835951</ele>
        <time>2022-12-18T14:03:26.631Z</time>
      </trkpt>
      <trkpt lat="46.51303" lon="-1.77516">
        <ele>59.010341</ele>
        <time>2022-12-18T14:03:29.635Z</time>
      </trkpt>
      <trkpt lat="46.51302" lon="-1.77499">
        <ele>59.191801</ele>
        <time>2022-12-18T14:03:32.634Z</time>
      </trkpt>
      <trkpt lat="46.51299" lon="-1.77481">
        <ele>59.380171</ele>
        <time>2022-12-18T14:03:35.650Z</time>
      </trkpt>
      <trkpt lat="46.51297" lon="-1.77463">
        <ele>59.577326</ele>
        <time>2022-12-18T14:03:38.642Z</time>
      </trkpt>
      <trkpt lat="46.51295" lon="-1.77444">
        <ele>59.774735</ele>
        <time>2022-12-18T14:03:41.637Z</time>
      </trkpt>
      <trkpt lat="46.51293" lon="-1.77426">
        <ele>59.964632</ele>
        <time>2022-12-18T14:03:44.640Z</time>
      </trkpt>
      <trkpt lat="46.51292" lon="-1.77409">
        <ele>60.152152</ele>
        <time>2022-12-18T14:03:47.634Z</time>
      </trkpt>
      <trkpt lat="46.5129" lon="-1.77393">
        <ele>60.320549</ele>
        <time>2022-12-18T14:03:50.636Z</time>
      </trkpt>
      <trkpt lat="46.51288" lon="-1.77376">
        <ele>60.502437</ele>
        <time>2022-12-18T14:03:53.630Z</time>
      </trkpt>
      <trkpt lat="46.51285" lon="-1.77358">
        <ele>60.69648</ele>
        <time>2022-12-18T14:03:56.631Z</time>
      </trkpt>
      <trkpt lat="46.51283" lon="-1.77339">
        <ele>60.893636</ele>
        <time>2022-12-18T14:03:59.642Z</time>
      </trkpt>
      <trkpt lat="46.51281" lon="-1.7732">
        <ele>60.94665</ele>
        <time>2022-12-18T14:04:02.635Z</time>
      </trkpt>
      <trkpt lat="46.5128" lon="-1.77307">
        <ele>60.959714</ele>
        <time>2022-12-18T14:04:04.634Z</time>
      </trkpt>
      <trkpt lat="46.51279" lon="-1.77294">
        <ele>60.972739</ele>
        <time>2022-12-18T14:04:06.633Z</time>
      </trkpt>
      <trkpt lat="46.51278" lon="-1.77281">
        <ele>60.985685</ele>
        <time>2022-12-18T14:04:08.631Z</time>
      </trkpt>
      <trkpt lat="46.51276" lon="-1.77267">
        <ele>60.999023</ele>
        <time>2022-12-18T14:04:10.640Z</time>
      </trkpt>
      <trkpt lat="46.51276" lon="-1.77253">
        <ele>61.012582</ele>
        <time>2022-12-18T14:04:12.632Z</time>
      </trkpt>
      <trkpt lat="46.51275" lon="-1.77234">
        <ele>61.031863</ele>
        <time>2022-12-18T14:04:15.646Z</time>
      </trkpt>
      <trkpt lat="46.51275" lon="-1.77221">
        <ele>61.044894</ele>
        <time>2022-12-18T14:04:17.633Z</time>
      </trkpt>
      <trkpt lat="46.51276" lon="-1.77208">
        <ele>61.057844</ele>
        <time>2022-12-18T14:04:19.636Z</time>
      </trkpt>
      <trkpt lat="46.51277" lon="-1.77188">
        <ele>61.077195</ele>
        <time>2022-12-18T14:04:22.639Z</time>
      </trkpt>
      <trkpt lat="46.51278" lon="-1.77175">
        <ele>61.090357</ele>
        <time>2022-12-18T14:04:24.640Z</time>
      </trkpt>
      <trkpt lat="46.51281" lon="-1.77157">
        <ele>61.108317</ele>
        <time>2022-12-18T14:04:27.637Z</time>
      </trkpt>
      <trkpt lat="46.51284" lon="-1.77138">
        <ele>61.127782</ele>
        <time>2022-12-18T14:04:30.635Z</time>
      </trkpt>
      <trkpt lat="46.51287" lon="-1.77124">
        <ele>61.141922</ele>
        <time>2022-12-18T14:04:32.650Z</time>
      </trkpt>
      <trkpt lat="46.51291" lon="-1.77111">
        <ele>61.155976</ele>
        <time>2022-12-18T14:04:34.635Z</time>
      </trkpt>
      <trkpt lat="46.51295" lon="-1.77098">
        <ele>61.170782</ele>
        <time>2022-12-18T14:04:36.634Z</time>
      </trkpt>
      <trkpt lat="46.513" lon="-1.77085">
        <ele>61.184947</ele>
        <time>2022-12-18T14:04:38.639Z</time>
      </trkpt>
      <trkpt lat="46.51305" lon="-1.77072">
        <ele>61.140781</ele>
        <time>2022-12-18T14:04:40.634Z</time>
      </trkpt>
      <trkpt lat="46.5131" lon="-1.7706">
        <ele>61.075232</ele>
        <time>2022-12-18T14:04:42.638Z</time>
      </trkpt>
      <trkpt lat="46.51315" lon="-1.77048">
        <ele>61.012749</ele>
        <time>2022-12-18T14:04:44.633Z</time>
      </trkpt>
      <trkpt lat="46.5132" lon="-1.77035">
        <ele>60.9472</ele>
        <time>2022-12-18T14:04:46.637Z</time>
      </trkpt>
      <trkpt lat="46.51325" lon="-1.77023">
        <ele>60.882871</ele>
        <time>2022-12-18T14:04:48.640Z</time>
      </trkpt>
      <trkpt lat="46.5133" lon="-1.77011">
        <ele>60.815606</ele>
        <time>2022-12-18T14:04:50.640Z</time>
      </trkpt>
      <trkpt lat="46.51336" lon="-1.76998">
        <ele>60.746886</ele>
        <time>2022-12-18T14:04:52.633Z</time>
      </trkpt>
      <trkpt lat="46.51342" lon="-1.76986">
        <ele>60.678472</ele>
        <time>2022-12-18T14:04:54.635Z</time>
      </trkpt>
      <trkpt lat="46.51347" lon="-1.76974">
        <ele>60.616827</ele>
        <time>2022-12-18T14:04:56.639Z</time>
      </trkpt>
      <trkpt lat="46.51352" lon="-1.76963">
        <ele>60.557039</ele>
        <time>2022-12-18T14:04:58.629Z</time>
      </trkpt>
      <trkpt lat="46.51357" lon="-1.76951">
        <ele>60.492036</ele>
        <time>2022-12-18T14:05:00.631Z</time>
      </trkpt>
      <trkpt lat="46.51362" lon="-1.76939">
        <ele>60.42766</ele>
        <time>2022-12-18T14:05:02.647Z</time>
      </trkpt>
      <trkpt lat="46.51369" lon="-1.76922">
        <ele>60.337631</ele>
        <time>2022-12-18T14:05:05.640Z</time>
      </trkpt>
      <trkpt lat="46.51377" lon="-1.76907">
        <ele>60.255092</ele>
        <time>2022-12-18T14:05:08.636Z</time>
      </trkpt>
      <trkpt lat="46.51384" lon="-1.76894">
        <ele>60.179494</ele>
        <time>2022-12-18T14:05:11.638Z</time>
      </trkpt>
      <trkpt lat="46.51391" lon="-1.7688">
        <ele>60.098652</ele>
        <time>2022-12-18T14:05:14.639Z</time>
      </trkpt>
      <trkpt lat="46.51398" lon="-1.76867">
        <ele>60.021656</ele>
        <time>2022-12-18T14:05:17.637Z</time>
      </trkpt>
      <trkpt lat="46.51404" lon="-1.76853">
        <ele>59.892791</ele>
        <time>2022-12-18T14:05:20.637Z</time>
      </trkpt>
      <trkpt lat="46.51408" lon="-1.76836">
        <ele>59.726016</ele>
        <time>2022-12-18T14:05:23.633Z</time>
      </trkpt>
      <trkpt lat="46.51413" lon="-1.7682">
        <ele>59.552841</ele>
        <time>2022-12-18T14:05:26.629Z</time>
      </trkpt>
      <trkpt lat="46.51423" lon="-1.76816">
        <ele>59.410316</ele>
        <time>2022-12-18T14:05:29.637Z</time>
      </trkpt>
      <trkpt lat="46.51432" lon="-1.76826">
        <ele>59.256042</ele>
        <time>2022-12-18T14:05:32.635Z</time>
      </trkpt>
      <trkpt lat="46.5144" lon="-1.7684">
        <ele>59.081759</ele>
        <time>2022-12-18T14:05:35.638Z</time>
      </trkpt>
      <trkpt lat="46.51445" lon="-1.76851">
        <ele>58.955892</ele>
        <time>2022-12-18T14:05:38.641Z</time>
      </trkpt>
      <trkpt lat="46.51453" lon="-1.76859">
        <ele>58.828939</ele>
        <time>2022-12-18T14:05:42.641Z</time>
      </trkpt>
      <trkpt lat="46.51461" lon="-1.76867">
        <ele>58.696377</ele>
        <time>2022-12-18T14:05:45.627Z</time>
      </trkpt>
      <trkpt lat="46.5147" lon="-1.76875">
        <ele>58.552078</ele>
        <time>2022-12-18T14:05:48.636Z</time>
      </trkpt>
      <trkpt lat="46.51478" lon="-1.76884">
        <ele>58.414592</ele>
        <time>2022-12-18T14:05:51.644Z</time>
      </trkpt>
      <trkpt lat="46.51486" lon="-1.76894">
        <ele>58.273058</ele>
        <time>2022-12-18T14:05:54.634Z</time>
      </trkpt>
      <trkpt lat="46.51494" lon="-1.76905">
        <ele>58.115194</ele>
        <time>2022-12-18T14:05:58.634Z</time>
      </trkpt>
      <trkpt lat="46.51498" lon="-1.76917">
        <ele>57.989303</ele>
        <time>2022-12-18T14:06:02.635Z</time>
      </trkpt>
      <trkpt lat="46.51494" lon="-1.7693">
        <ele>57.859504</ele>
        <time>2022-12-18T14:06:06.636Z</time>
      </trkpt>
      <trkpt lat="46.51491" lon="-1.76943">
        <ele>57.734113</ele>
        <time>2022-12-18T14:06:09.634Z</time>
      </trkpt>
      <trkpt lat="46.51485" lon="-1.76957">
        <ele>57.570902</ele>
        <time>2022-12-18T14:06:13.632Z</time>
      </trkpt>
      <trkpt lat="46.51474" lon="-1.7696">
        <ele>57.571026</ele>
        <time>2022-12-18T14:06:17.644Z</time>
      </trkpt>
      <trkpt lat="46.51465" lon="-1.76952">
        <ele>57.613609</ele>
        <time>2022-12-18T14:06:22.635Z</time>
      </trkpt>
      <trkpt lat="46.51455" lon="-1.76953">
        <ele>57.652546</ele>
        <time>2022-12-18T14:06:27.628Z</time>
      </trkpt>
      <trkpt lat="46.51448" lon="-1.76966">
        <ele>57.696949</ele>
        <time>2022-12-18T14:06:31.628Z</time>
      </trkpt>
      <trkpt lat="46.51443" lon="-1.76978">
        <ele>57.734018</ele>
        <time>2022-12-18T14:06:35.638Z</time>
      </trkpt>
      <trkpt lat="46.51435" lon="-1.76987">
        <ele>57.773686</ele>
        <time>2022-12-18T14:06:41.628Z</time>
      </trkpt>
      <trkpt lat="46.51428" lon="-1.76995">
        <ele>57.809479</ele>
        <time>2022-12-18T14:06:47.628Z</time>
      </trkpt>
      <trkpt lat="46.51429" lon="-1.76995">
        <ele>57.81325</ele>
        <time>2022-12-18T14:07:06.231Z</time>
      </trkpt>
      <trkpt lat="46.51422" lon="-1.7697">
        <ele>57.886855</ele>
        <time>2022-12-18T14:53:46.981Z</time>
      </trkpt>
      <trkpt lat="46.51421" lon="-1.76987">
        <ele>57.93255</ele>
        <time>2022-12-18T14:54:20.640Z</time>
      </trkpt>
      <trkpt lat="46.51433" lon="-1.76987">
        <ele>57.979545</ele>
        <time>2022-12-18T14:55:18.656Z</time>
      </trkpt>
      <trkpt lat="46.51442" lon="-1.76991">
        <ele>58.018735</ele>
        <time>2022-12-18T14:55:22.632Z</time>
      </trkpt>
      <trkpt lat="46.51451" lon="-1.76997">
        <ele>58.057633</ele>
        <time>2022-12-18T14:55:26.633Z</time>
      </trkpt>
      <trkpt lat="46.51457" lon="-1.77007">
        <ele>58.093181</ele>
        <time>2022-12-18T14:55:30.629Z</time>
      </trkpt>
      <trkpt lat="46.51466" lon="-1.77004">
        <ele>58.128896</ele>
        <time>2022-12-18T14:55:35.657Z</time>
      </trkpt>
      <trkpt lat="46.5147" lon="-1.7699">
        <ele>58.169053</ele>
        <time>2022-12-18T14:55:39.643Z</time>
      </trkpt>
      <trkpt lat="46.51474" lon="-1.76978">
        <ele>58.205978</ele>
        <time>2022-12-18T14:55:42.636Z</time>
      </trkpt>
      <trkpt lat="46.51479" lon="-1.76966">
        <ele>58.238149</ele>
        <time>2022-12-18T14:55:45.626Z</time>
      </trkpt>
      <trkpt lat="46.51485" lon="-1.76951">
        <ele>58.130276</ele>
        <time>2022-12-18T14:55:49.644Z</time>
      </trkpt>
      <trkpt lat="46.51492" lon="-1.76939">
        <ele>58.029523</ele>
        <time>2022-12-18T14:55:53.634Z</time>
      </trkpt>
      <trkpt lat="46.51497" lon="-1.76925">
        <ele>57.931623</ele>
        <time>2022-12-18T14:55:57.648Z</time>
      </trkpt>
      <trkpt lat="46.51497" lon="-1.76912">
        <ele>57.844727</ele>
        <time>2022-12-18T14:56:01.649Z</time>
      </trkpt>
      <trkpt lat="46.51488" lon="-1.76902">
        <ele>57.742027</ele>
        <time>2022-12-18T14:56:05.637Z</time>
      </trkpt>
      <trkpt lat="46.5148" lon="-1.76894">
        <ele>57.646598</ele>
        <time>2022-12-18T14:56:08.645Z</time>
      </trkpt>
      <trkpt lat="46.51471" lon="-1.76885">
        <ele>57.54671</ele>
        <time>2022-12-18T14:56:11.665Z</time>
      </trkpt>
      <trkpt lat="46.51463" lon="-1.76876">
        <ele>57.453605</ele>
        <time>2022-12-18T14:56:14.667Z</time>
      </trkpt>
      <trkpt lat="46.51454" lon="-1.76869">
        <ele>57.35511</ele>
        <time>2022-12-18T14:56:18.638Z</time>
      </trkpt>
      <trkpt lat="46.51443" lon="-1.7686">
        <ele>57.244635</ele>
        <time>2022-12-18T14:56:22.648Z</time>
      </trkpt>
      <trkpt lat="46.51435" lon="-1.76854">
        <ele>57.15905</ele>
        <time>2022-12-18T14:56:25.660Z</time>
      </trkpt>
      <trkpt lat="46.51425" lon="-1.7685">
        <ele>57.059711</ele>
        <time>2022-12-18T14:56:30.646Z</time>
      </trkpt>
      <trkpt lat="46.51415" lon="-1.76851">
        <ele>56.965134</ele>
        <time>2022-12-18T14:56:34.651Z</time>
      </trkpt>
      <trkpt lat="46.51406" lon="-1.7684">
        <ele>56.858396</ele>
        <time>2022-12-18T14:56:38.636Z</time>
      </trkpt>
      <trkpt lat="46.51403" lon="-1.76825">
        <ele>56.756246</ele>
        <time>2022-12-18T14:56:41.636Z</time>
      </trkpt>
      <trkpt lat="46.51401" lon="-1.76809">
        <ele>56.650425</ele>
        <time>2022-12-18T14:56:44.644Z</time>
      </trkpt>
      <trkpt lat="46.51399" lon="-1.76792">
        <ele>56.567421</ele>
        <time>2022-12-18T14:56:47.648Z</time>
      </trkpt>
      <trkpt lat="46.51399" lon="-1.76774">
        <ele>56.609729</ele>
        <time>2022-12-18T14:56:50.642Z</time>
      </trkpt>
      <trkpt lat="46.51399" lon="-1.76759">
        <ele>56.646744</ele>
        <time>2022-12-18T14:56:53.649Z</time>
      </trkpt>
      <trkpt lat="46.51398" lon="-1.76744">
        <ele>56.682215</ele>
        <time>2022-12-18T14:56:56.641Z</time>
      </trkpt>
      <trkpt lat="46.51395" lon="-1.76729">
        <ele>56.721337</ele>
        <time>2022-12-18T14:56:59.626Z</time>
      </trkpt>
      <trkpt lat="46.51393" lon="-1.76713">
        <ele>56.759428</ele>
        <time>2022-12-18T14:57:02.632Z</time>
      </trkpt>
      <trkpt lat="46.51389" lon="-1.767">
        <ele>56.793949</ele>
        <time>2022-12-18T14:57:05.629Z</time>
      </trkpt>
      <trkpt lat="46.51384" lon="-1.76688">
        <ele>56.828597</ele>
        <time>2022-12-18T14:57:08.646Z</time>
      </trkpt>
      <trkpt lat="46.51376" lon="-1.7668">
        <ele>56.861791</ele>
        <time>2022-12-18T14:57:11.632Z</time>
      </trkpt>
      <trkpt lat="46.51365" lon="-1.76677">
        <ele>56.901636</ele>
        <time>2022-12-18T14:57:15.643Z</time>
      </trkpt>
      <trkpt lat="46.51355" lon="-1.76682">
        <ele>56.938264</ele>
        <time>2022-12-18T14:57:18.645Z</time>
      </trkpt>
      <trkpt lat="46.51345" lon="-1.7669">
        <ele>56.977168</ele>
        <time>2022-12-18T14:57:21.649Z</time>
      </trkpt>
      <trkpt lat="46.51338" lon="-1.76701">
        <ele>57.013377</ele>
        <time>2022-12-18T14:57:24.637Z</time>
      </trkpt>
      <trkpt lat="46.51333" lon="-1.76714">
        <ele>57.04902</ele>
        <time>2022-12-18T14:57:27.636Z</time>
      </trkpt>
      <trkpt lat="46.51327" lon="-1.76726">
        <ele>57.086642</ele>
        <time>2022-12-18T14:57:30.642Z</time>
      </trkpt>
      <trkpt lat="46.51321" lon="-1.76738">
        <ele>57.121091</ele>
        <time>2022-12-18T14:57:33.639Z</time>
      </trkpt>
      <trkpt lat="46.51316" lon="-1.76749">
        <ele>57.152711</ele>
        <time>2022-12-18T14:57:36.633Z</time>
      </trkpt>
      <trkpt lat="46.5131" lon="-1.76762">
        <ele>57.18989</ele>
        <time>2022-12-18T14:57:40.646Z</time>
      </trkpt>
      <trkpt lat="46.51303" lon="-1.76773">
        <ele>57.203466</ele>
        <time>2022-12-18T14:57:43.632Z</time>
      </trkpt>
      <trkpt lat="46.51296" lon="-1.7678">
        <ele>57.216328</ele>
        <time>2022-12-18T14:57:46.640Z</time>
      </trkpt>
      <trkpt lat="46.51286" lon="-1.76782">
        <ele>57.229949</ele>
        <time>2022-12-18T14:57:49.631Z</time>
      </trkpt>
      <trkpt lat="46.51277" lon="-1.76774">
        <ele>57.244733</ele>
        <time>2022-12-18T14:57:52.628Z</time>
      </trkpt>
      <trkpt lat="46.51271" lon="-1.76762">
        <ele>57.259356</ele>
        <time>2022-12-18T14:57:55.632Z</time>
      </trkpt>
      <trkpt lat="46.51264" lon="-1.7675">
        <ele>57.274158</ele>
        <time>2022-12-18T14:57:58.664Z</time>
      </trkpt>
      <trkpt lat="46.51257" lon="-1.76738">
        <ele>57.289278</ele>
        <time>2022-12-18T14:58:01.629Z</time>
      </trkpt>
      <trkpt lat="46.51249" lon="-1.76727">
        <ele>57.304907</ele>
        <time>2022-12-18T14:58:04.653Z</time>
      </trkpt>
      <trkpt lat="46.51241" lon="-1.76716">
        <ele>57.320284</ele>
        <time>2022-12-18T14:58:07.642Z</time>
      </trkpt>
      <trkpt lat="46.51235" lon="-1.76705">
        <ele>57.334292</ele>
        <time>2022-12-18T14:58:10.632Z</time>
      </trkpt>
      <trkpt lat="46.51228" lon="-1.76695">
        <ele>57.347815</ele>
        <time>2022-12-18T14:58:13.661Z</time>
      </trkpt>
      <trkpt lat="46.51218" lon="-1.76686">
        <ele>57.363959</ele>
        <time>2022-12-18T14:58:17.639Z</time>
      </trkpt>
      <trkpt lat="46.51207" lon="-1.76684">
        <ele>57.37932</ele>
        <time>2022-12-18T14:58:21.635Z</time>
      </trkpt>
      <trkpt lat="46.51198" lon="-1.76687">
        <ele>57.392855</ele>
        <time>2022-12-18T14:58:25.639Z</time>
      </trkpt>
      <trkpt lat="46.51187" lon="-1.76687">
        <ele>57.408772</ele>
        <time>2022-12-18T14:58:29.642Z</time>
      </trkpt>
      <trkpt lat="46.51175" lon="-1.7669">
        <ele>57.425224</ele>
        <time>2022-12-18T14:58:33.643Z</time>
      </trkpt>
      <trkpt lat="46.51167" lon="-1.76698">
        <ele>57.438805</ele>
        <time>2022-12-18T14:58:36.643Z</time>
      </trkpt>
      <trkpt lat="46.5116" lon="-1.76706">
        <ele>57.377013</ele>
        <time>2022-12-18T14:58:39.645Z</time>
      </trkpt>
      <trkpt lat="46.51152" lon="-1.76714">
        <ele>57.292644</ele>
        <time>2022-12-18T14:58:42.637Z</time>
      </trkpt>
      <trkpt lat="46.51145" lon="-1.76723">
        <ele>57.206713</ele>
        <time>2022-12-18T14:58:45.650Z</time>
      </trkpt>
      <trkpt lat="46.51138" lon="-1.76731">
        <ele>57.123485</ele>
        <time>2022-12-18T14:58:48.633Z</time>
      </trkpt>
      <trkpt lat="46.5113" lon="-1.76738">
        <ele>57.03865</ele>
        <time>2022-12-18T14:58:51.634Z</time>
      </trkpt>
      <trkpt lat="46.51122" lon="-1.76746">
        <ele>56.949877</ele>
        <time>2022-12-18T14:58:54.635Z</time>
      </trkpt>
      <trkpt lat="46.51114" lon="-1.76754">
        <ele>56.865042</ele>
        <time>2022-12-18T14:58:57.630Z</time>
      </trkpt>
      <trkpt lat="46.51106" lon="-1.76761">
        <ele>56.778996</ele>
        <time>2022-12-18T14:59:00.634Z</time>
      </trkpt>
      <trkpt lat="46.51098" lon="-1.76768">
        <ele>56.685711</ele>
        <time>2022-12-18T14:59:03.642Z</time>
      </trkpt>
      <trkpt lat="46.51088" lon="-1.76776">
        <ele>56.587151</ele>
        <time>2022-12-18T14:59:06.627Z</time>
      </trkpt>
      <trkpt lat="46.51079" lon="-1.76784">
        <ele>56.487377</ele>
        <time>2022-12-18T14:59:09.649Z</time>
      </trkpt>
      <trkpt lat="46.51069" lon="-1.76791">
        <ele>56.387201</ele>
        <time>2022-12-18T14:59:12.639Z</time>
      </trkpt>
      <trkpt lat="46.51059" lon="-1.76798">
        <ele>56.287025</ele>
        <time>2022-12-18T14:59:15.632Z</time>
      </trkpt>
      <trkpt lat="46.51049" lon="-1.76806">
        <ele>56.186613</ele>
        <time>2022-12-18T14:59:18.658Z</time>
      </trkpt>
      <trkpt lat="46.5104" lon="-1.76813">
        <ele>56.087582</ele>
        <time>2022-12-18T14:59:21.630Z</time>
      </trkpt>
      <trkpt lat="46.5103" lon="-1.7682">
        <ele>55.986884</ele>
        <time>2022-12-18T14:59:25.642Z</time>
      </trkpt>
      <trkpt lat="46.51024" lon="-1.7683">
        <ele>55.903036</ele>
        <time>2022-12-18T14:59:39.630Z</time>
      </trkpt>
      <trkpt lat="46.51012" lon="-1.76837">
        <ele>55.789096</ele>
        <time>2022-12-18T15:01:11.685Z</time>
      </trkpt>
      <trkpt lat="46.51001" lon="-1.76846">
        <ele>55.725495</ele>
        <time>2022-12-18T15:01:15.636Z</time>
      </trkpt>
      <trkpt lat="46.5099" lon="-1.76853">
        <ele>55.666665</ele>
        <time>2022-12-18T15:01:18.635Z</time>
      </trkpt>
      <trkpt lat="46.5098" lon="-1.76861">
        <ele>55.608145</ele>
        <time>2022-12-18T15:01:21.654Z</time>
      </trkpt>
      <trkpt lat="46.5097" lon="-1.76868">
        <ele>55.550099</ele>
        <time>2022-12-18T15:01:24.635Z</time>
      </trkpt>
      <trkpt lat="46.5096" lon="-1.76875">
        <ele>55.493733</ele>
        <time>2022-12-18T15:01:27.635Z</time>
      </trkpt>
      <trkpt lat="46.5095" lon="-1.76881">
        <ele>55.441746</ele>
        <time>2022-12-18T15:01:33.652Z</time>
      </trkpt>
      <trkpt lat="46.5094" lon="-1.76888">
        <ele>55.383408</ele>
        <time>2022-12-18T15:01:38.635Z</time>
      </trkpt>
      <trkpt lat="46.50932" lon="-1.76894">
        <ele>55.337051</ele>
        <time>2022-12-18T15:01:41.632Z</time>
      </trkpt>
      <trkpt lat="46.50923" lon="-1.769">
        <ele>55.287542</ele>
        <time>2022-12-18T15:01:44.653Z</time>
      </trkpt>
      <trkpt lat="46.50913" lon="-1.76907">
        <ele>55.232252</ele>
        <time>2022-12-18T15:01:47.647Z</time>
      </trkpt>
      <trkpt lat="46.50903" lon="-1.76914">
        <ele>55.17435</ele>
        <time>2022-12-18T15:01:50.646Z</time>
      </trkpt>
      <trkpt lat="46.50892" lon="-1.7692">
        <ele>55.114729</ele>
        <time>2022-12-18T15:01:53.642Z</time>
      </trkpt>
      <trkpt lat="46.50881" lon="-1.76927">
        <ele>55.053618</ele>
        <time>2022-12-18T15:01:56.646Z</time>
      </trkpt>
      <trkpt lat="46.50871" lon="-1.76935">
        <ele>54.995124</ele>
        <time>2022-12-18T15:01:59.647Z</time>
      </trkpt>
      <trkpt lat="46.50861" lon="-1.76941">
        <ele>54.938576</ele>
        <time>2022-12-18T15:02:02.648Z</time>
      </trkpt>
      <trkpt lat="46.50851" lon="-1.76948">
        <ele>54.883871</ele>
        <time>2022-12-18T15:02:05.661Z</time>
      </trkpt>
      <trkpt lat="46.50841" lon="-1.76955">
        <ele>54.821375</ele>
        <time>2022-12-18T15:02:08.642Z</time>
      </trkpt>
      <trkpt lat="46.50831" lon="-1.76962">
        <ele>54.761387</ele>
        <time>2022-12-18T15:02:11.657Z</time>
      </trkpt>
      <trkpt lat="46.50822" lon="-1.76969">
        <ele>54.701226</ele>
        <time>2022-12-18T15:02:14.644Z</time>
      </trkpt>
      <trkpt lat="46.50812" lon="-1.76976">
        <ele>54.644092</ele>
        <time>2022-12-18T15:02:17.644Z</time>
      </trkpt>
      <trkpt lat="46.50804" lon="-1.76982">
        <ele>54.589303</ele>
        <time>2022-12-18T15:02:20.656Z</time>
      </trkpt>
      <trkpt lat="46.50795" lon="-1.76989">
        <ele>54.532963</ele>
        <time>2022-12-18T15:02:23.637Z</time>
      </trkpt>
      <trkpt lat="46.50784" lon="-1.76997">
        <ele>54.466615</ele>
        <time>2022-12-18T15:02:26.639Z</time>
      </trkpt>
      <trkpt lat="46.50772" lon="-1.77004">
        <ele>54.394683</ele>
        <time>2022-12-18T15:02:29.639Z</time>
      </trkpt>
      <trkpt lat="46.5076" lon="-1.77012">
        <ele>54.321127</ele>
        <time>2022-12-18T15:02:32.665Z</time>
      </trkpt>
      <trkpt lat="46.50749" lon="-1.77021">
        <ele>54.25123</ele>
        <time>2022-12-18T15:02:35.643Z</time>
      </trkpt>
      <trkpt lat="46.50738" lon="-1.77028">
        <ele>54.183371</ele>
        <time>2022-12-18T15:02:38.645Z</time>
      </trkpt>
      <trkpt lat="46.50727" lon="-1.77036">
        <ele>54.116847</ele>
        <time>2022-12-18T15:02:41.642Z</time>
      </trkpt>
      <trkpt lat="46.50717" lon="-1.77043">
        <ele>54.051168</ele>
        <time>2022-12-18T15:02:44.635Z</time>
      </trkpt>
      <trkpt lat="46.50707" lon="-1.7705">
        <ele>53.988166</ele>
        <time>2022-12-18T15:02:47.641Z</time>
      </trkpt>
      <trkpt lat="46.50696" lon="-1.77059">
        <ele>53.920951</ele>
        <time>2022-12-18T15:02:50.662Z</time>
      </trkpt>
      <trkpt lat="46.50685" lon="-1.77068">
        <ele>53.862863</ele>
        <time>2022-12-18T15:02:53.641Z</time>
      </trkpt>
      <trkpt lat="46.50674" lon="-1.77075">
        <ele>53.823795</ele>
        <time>2022-12-18T15:02:56.650Z</time>
      </trkpt>
      <trkpt lat="46.50664" lon="-1.77082">
        <ele>53.786397</ele>
        <time>2022-12-18T15:02:59.663Z</time>
      </trkpt>
      <trkpt lat="46.50655" lon="-1.77091">
        <ele>53.751409</ele>
        <time>2022-12-18T15:03:02.648Z</time>
      </trkpt>
      <trkpt lat="46.50645" lon="-1.77099">
        <ele>53.715952</ele>
        <time>2022-12-18T15:03:05.633Z</time>
      </trkpt>
      <trkpt lat="46.50634" lon="-1.77102">
        <ele>53.678463</ele>
        <time>2022-12-18T15:03:08.650Z</time>
      </trkpt>
      <trkpt lat="46.50623" lon="-1.77109">
        <ele>53.639879</ele>
        <time>2022-12-18T15:03:11.635Z</time>
      </trkpt>
      <trkpt lat="46.50613" lon="-1.77119">
        <ele>53.599211</ele>
        <time>2022-12-18T15:03:14.643Z</time>
      </trkpt>
      <trkpt lat="46.50602" lon="-1.7713">
        <ele>53.556229</ele>
        <time>2022-12-18T15:03:17.640Z</time>
      </trkpt>
      <trkpt lat="46.50595" lon="-1.77139">
        <ele>53.526341</ele>
        <time>2022-12-18T15:03:19.635Z</time>
      </trkpt>
      <trkpt lat="46.50586" lon="-1.77152">
        <ele>53.486163</ele>
        <time>2022-12-18T15:03:22.645Z</time>
      </trkpt>
      <trkpt lat="46.50578" lon="-1.77164">
        <ele>53.447054</ele>
        <time>2022-12-18T15:03:25.636Z</time>
      </trkpt>
      <trkpt lat="46.5057" lon="-1.77177">
        <ele>53.409766</ele>
        <time>2022-12-18T15:03:28.637Z</time>
      </trkpt>
      <trkpt lat="46.50563" lon="-1.77188">
        <ele>53.374829</ele>
        <time>2022-12-18T15:03:31.663Z</time>
      </trkpt>
      <trkpt lat="46.50555" lon="-1.772">
        <ele>53.339345</ele>
        <time>2022-12-18T15:03:34.643Z</time>
      </trkpt>
      <trkpt lat="46.50547" lon="-1.77211">
        <ele>53.301417</ele>
        <time>2022-12-18T15:03:37.645Z</time>
      </trkpt>
      <trkpt lat="46.50538" lon="-1.77224">
        <ele>53.352729</ele>
        <time>2022-12-18T15:03:40.635Z</time>
      </trkpt>
      <trkpt lat="46.50529" lon="-1.77236">
        <ele>53.41557</ele>
        <time>2022-12-18T15:03:43.657Z</time>
      </trkpt>
      <trkpt lat="46.50521" lon="-1.77249">
        <ele>53.476467</ele>
        <time>2022-12-18T15:03:46.648Z</time>
      </trkpt>
      <trkpt lat="46.50513" lon="-1.77261">
        <ele>53.535593</ele>
        <time>2022-12-18T15:03:49.644Z</time>
      </trkpt>
      <trkpt lat="46.50505" lon="-1.77272">
        <ele>53.592336</ele>
        <time>2022-12-18T15:03:52.634Z</time>
      </trkpt>
      <trkpt lat="46.50498" lon="-1.77283">
        <ele>53.644642</ele>
        <time>2022-12-18T15:03:55.628Z</time>
      </trkpt>
      <trkpt lat="46.50492" lon="-1.77295">
        <ele>53.69613</ele>
        <time>2022-12-18T15:03:58.635Z</time>
      </trkpt>
      <trkpt lat="46.50485" lon="-1.77306">
        <ele>53.747238</ele>
        <time>2022-12-18T15:04:01.645Z</time>
      </trkpt>
      <trkpt lat="46.50478" lon="-1.77317">
        <ele>53.800843</ele>
        <time>2022-12-18T15:04:04.631Z</time>
      </trkpt>
      <trkpt lat="46.5047" lon="-1.77329">
        <ele>53.858759</ele>
        <time>2022-12-18T15:04:07.637Z</time>
      </trkpt>
      <trkpt lat="46.50463" lon="-1.77341">
        <ele>53.913656</ele>
        <time>2022-12-18T15:04:10.626Z</time>
      </trkpt>
      <trkpt lat="46.50456" lon="-1.77351">
        <ele>53.963061</ele>
        <time>2022-12-18T15:04:13.636Z</time>
      </trkpt>
      <trkpt lat="46.5045" lon="-1.7736">
        <ele>54.009153</ele>
        <time>2022-12-18T15:04:16.646Z</time>
      </trkpt>
      <trkpt lat="46.50441" lon="-1.7737">
        <ele>54.066063</ele>
        <time>2022-12-18T15:04:20.645Z</time>
      </trkpt>
      <trkpt lat="46.50433" lon="-1.77382">
        <ele>54.126711</ele>
        <time>2022-12-18T15:04:24.636Z</time>
      </trkpt>
      <trkpt lat="46.50426" lon="-1.77393">
        <ele>54.180414</ele>
        <time>2022-12-18T15:04:27.652Z</time>
      </trkpt>
      <trkpt lat="46.50418" lon="-1.77404">
        <ele>54.180641</ele>
        <time>2022-12-18T15:04:30.649Z</time>
      </trkpt>
      <trkpt lat="46.50409" lon="-1.77416">
        <ele>54.0821</ele>
        <time>2022-12-18T15:04:33.641Z</time>
      </trkpt>
      <trkpt lat="46.50401" lon="-1.77427">
        <ele>53.985032</ele>
        <time>2022-12-18T15:04:36.643Z</time>
      </trkpt>
      <trkpt lat="46.50393" lon="-1.77438">
        <ele>53.893451</ele>
        <time>2022-12-18T15:04:39.643Z</time>
      </trkpt>
      <trkpt lat="46.50386" lon="-1.77449">
        <ele>53.806092</ele>
        <time>2022-12-18T15:04:42.652Z</time>
      </trkpt>
      <trkpt lat="46.50378" lon="-1.77461">
        <ele>53.708962</ele>
        <time>2022-12-18T15:04:45.642Z</time>
      </trkpt>
      <trkpt lat="46.5037" lon="-1.77473">
        <ele>53.60661</ele>
        <time>2022-12-18T15:04:48.651Z</time>
      </trkpt>
      <trkpt lat="46.50361" lon="-1.77485">
        <ele>53.504113</ele>
        <time>2022-12-18T15:04:51.644Z</time>
      </trkpt>
      <trkpt lat="46.50352" lon="-1.77498">
        <ele>53.395846</ele>
        <time>2022-12-18T15:04:54.639Z</time>
      </trkpt>
      <trkpt lat="46.50342" lon="-1.77512">
        <ele>53.278635</ele>
        <time>2022-12-18T15:04:57.640Z</time>
      </trkpt>
      <trkpt lat="46.50335" lon="-1.77521">
        <ele>53.199269</ele>
        <time>2022-12-18T15:04:59.640Z</time>
      </trkpt>
      <trkpt lat="46.50326" lon="-1.77536">
        <ele>53.083751</ele>
        <time>2022-12-18T15:05:02.664Z</time>
      </trkpt>
      <trkpt lat="46.50319" lon="-1.77545">
        <ele>53.007443</ele>
        <time>2022-12-18T15:05:04.652Z</time>
      </trkpt>
      <trkpt lat="46.5031" lon="-1.77558">
        <ele>52.895325</ele>
        <time>2022-12-18T15:05:07.639Z</time>
      </trkpt>
      <trkpt lat="46.50304" lon="-1.77568">
        <ele>52.817602</ele>
        <time>2022-12-18T15:05:09.639Z</time>
      </trkpt>
      <trkpt lat="46.50294" lon="-1.77582">
        <ele>52.703847</ele>
        <time>2022-12-18T15:05:12.648Z</time>
      </trkpt>
      <trkpt lat="46.50286" lon="-1.77595">
        <ele>52.563368</ele>
        <time>2022-12-18T15:05:15.653Z</time>
      </trkpt>
      <trkpt lat="46.50278" lon="-1.77607">
        <ele>52.406062</ele>
        <time>2022-12-18T15:05:18.654Z</time>
      </trkpt>
      <trkpt lat="46.50268" lon="-1.77621">
        <ele>52.237473</ele>
        <time>2022-12-18T15:05:21.659Z</time>
      </trkpt>
      <trkpt lat="46.50262" lon="-1.77632">
        <ele>52.116422</ele>
        <time>2022-12-18T15:05:23.641Z</time>
      </trkpt>
      <trkpt lat="46.50255" lon="-1.7764">
        <ele>51.995845</ele>
        <time>2022-12-18T15:05:25.643Z</time>
      </trkpt>
      <trkpt lat="46.50246" lon="-1.77653">
        <ele>51.828456</ele>
        <time>2022-12-18T15:05:28.653Z</time>
      </trkpt>
      <trkpt lat="46.50237" lon="-1.77665">
        <ele>51.679421</ele>
        <time>2022-12-18T15:05:31.637Z</time>
      </trkpt>
      <trkpt lat="46.50228" lon="-1.77679">
        <ele>51.510597</ele>
        <time>2022-12-18T15:05:34.653Z</time>
      </trkpt>
      <trkpt lat="46.50222" lon="-1.77689">
        <ele>51.38833</ele>
        <time>2022-12-18T15:05:36.652Z</time>
      </trkpt>
      <trkpt lat="46.50215" lon="-1.77699">
        <ele>51.267063</ele>
        <time>2022-12-18T15:05:38.644Z</time>
      </trkpt>
      <trkpt lat="46.50208" lon="-1.77709">
        <ele>51.146125</ele>
        <time>2022-12-18T15:05:40.664Z</time>
      </trkpt>
      <trkpt lat="46.502" lon="-1.77723">
        <ele>50.980728</ele>
        <time>2022-12-18T15:05:43.652Z</time>
      </trkpt>
      <trkpt lat="46.5019" lon="-1.77736">
        <ele>50.814894</ele>
        <time>2022-12-18T15:05:46.665Z</time>
      </trkpt>
      <trkpt lat="46.50182" lon="-1.77748">
        <ele>50.667962</ele>
        <time>2022-12-18T15:05:49.652Z</time>
      </trkpt>
      <trkpt lat="46.50174" lon="-1.7776">
        <ele>50.524571</ele>
        <time>2022-12-18T15:05:52.652Z</time>
      </trkpt>
      <trkpt lat="46.50167" lon="-1.77772">
        <ele>50.387261</ele>
        <time>2022-12-18T15:05:55.662Z</time>
      </trkpt>
      <trkpt lat="46.50159" lon="-1.77785">
        <ele>50.329923</ele>
        <time>2022-12-18T15:05:58.638Z</time>
      </trkpt>
      <trkpt lat="46.50152" lon="-1.77797">
        <ele>50.277598</ele>
        <time>2022-12-18T15:06:02.645Z</time>
      </trkpt>
      <trkpt lat="46.50147" lon="-1.77809">
        <ele>50.230999</ele>
        <time>2022-12-18T15:06:06.660Z</time>
      </trkpt>
      <trkpt lat="46.50137" lon="-1.77818">
        <ele>50.172391</ele>
        <time>2022-12-18T15:06:10.631Z</time>
      </trkpt>
      <trkpt lat="46.50128" lon="-1.77829">
        <ele>50.115835</ele>
        <time>2022-12-18T15:06:13.630Z</time>
      </trkpt>
      <trkpt lat="46.50118" lon="-1.77841">
        <ele>50.052925</ele>
        <time>2022-12-18T15:06:16.645Z</time>
      </trkpt>
      <trkpt lat="46.50107" lon="-1.77853">
        <ele>49.986568</ele>
        <time>2022-12-18T15:06:19.642Z</time>
      </trkpt>
      <trkpt lat="46.501" lon="-1.77861">
        <ele>49.942656</ele>
        <time>2022-12-18T15:06:21.635Z</time>
      </trkpt>
      <trkpt lat="46.50093" lon="-1.77869">
        <ele>49.898155</ele>
        <time>2022-12-18T15:06:23.639Z</time>
      </trkpt>
      <trkpt lat="46.50082" lon="-1.7788">
        <ele>49.83436</ele>
        <time>2022-12-18T15:06:26.636Z</time>
      </trkpt>
      <trkpt lat="46.50072" lon="-1.77893">
        <ele>49.766783</ele>
        <time>2022-12-18T15:06:29.639Z</time>
      </trkpt>
      <trkpt lat="46.50064" lon="-1.77903">
        <ele>49.717085</ele>
        <time>2022-12-18T15:06:31.639Z</time>
      </trkpt>
      <trkpt lat="46.50056" lon="-1.77912">
        <ele>49.66894</ele>
        <time>2022-12-18T15:06:33.639Z</time>
      </trkpt>
      <trkpt lat="46.50049" lon="-1.7792">
        <ele>49.623577</ele>
        <time>2022-12-18T15:06:35.639Z</time>
      </trkpt>
      <trkpt lat="46.5004" lon="-1.77931">
        <ele>49.565963</ele>
        <time>2022-12-18T15:06:38.641Z</time>
      </trkpt>
      <trkpt lat="46.50032" lon="-1.77938">
        <ele>49.521561</ele>
        <time>2022-12-18T15:06:41.644Z</time>
      </trkpt>
      <trkpt lat="46.50022" lon="-1.77929">
        <ele>49.285787</ele>
        <time>2022-12-18T15:06:45.637Z</time>
      </trkpt>
      <trkpt lat="46.50015" lon="-1.77919">
        <ele>49.068476</ele>
        <time>2022-12-18T15:06:48.637Z</time>
      </trkpt>
      <trkpt lat="46.50008" lon="-1.77905">
        <ele>48.801939</ele>
        <time>2022-12-18T15:06:51.657Z</time>
      </trkpt>
      <trkpt lat="46.5" lon="-1.77891">
        <ele>48.521352</ele>
        <time>2022-12-18T15:06:54.651Z</time>
      </trkpt>
      <trkpt lat="46.49994" lon="-1.77881">
        <ele>48.32107</ele>
        <time>2022-12-18T15:06:56.649Z</time>
      </trkpt>
      <trkpt lat="46.49986" lon="-1.77866">
        <ele>48.028208</ele>
        <time>2022-12-18T15:06:59.644Z</time>
      </trkpt>
      <trkpt lat="46.49979" lon="-1.77852">
        <ele>47.778478</ele>
        <time>2022-12-18T15:07:02.665Z</time>
      </trkpt>
      <trkpt lat="46.49972" lon="-1.77839">
        <ele>47.523757</ele>
        <time>2022-12-18T15:07:05.647Z</time>
      </trkpt>
      <trkpt lat="46.49966" lon="-1.77823">
        <ele>47.238587</ele>
        <time>2022-12-18T15:07:08.648Z</time>
      </trkpt>
      <trkpt lat="46.49961" lon="-1.77812">
        <ele>47.035319</ele>
        <time>2022-12-18T15:07:10.632Z</time>
      </trkpt>
      <trkpt lat="46.49955" lon="-1.77801">
        <ele>46.834519</ele>
        <time>2022-12-18T15:07:12.645Z</time>
      </trkpt>
      <trkpt lat="46.49948" lon="-1.77786">
        <ele>46.544746</ele>
        <time>2022-12-18T15:07:15.630Z</time>
      </trkpt>
      <trkpt lat="46.49941" lon="-1.77773">
        <ele>46.298677</ele>
        <time>2022-12-18T15:07:18.635Z</time>
      </trkpt>
      <trkpt lat="46.49935" lon="-1.7776">
        <ele>46.072909</ele>
        <time>2022-12-18T15:07:21.631Z</time>
      </trkpt>
      <trkpt lat="46.49927" lon="-1.7775">
        <ele>45.827079</ele>
        <time>2022-12-18T15:07:25.643Z</time>
      </trkpt>
      <trkpt lat="46.49916" lon="-1.77743">
        <ele>45.571367</ele>
        <time>2022-12-18T15:07:29.647Z</time>
      </trkpt>
      <trkpt lat="46.49905" lon="-1.77738">
        <ele>45.735745</ele>
        <time>2022-12-18T15:07:33.631Z</time>
      </trkpt>
      <trkpt lat="46.49893" lon="-1.77733">
        <ele>45.967654</ele>
        <time>2022-12-18T15:07:36.649Z</time>
      </trkpt>
      <trkpt lat="46.49882" lon="-1.77729">
        <ele>46.178589</ele>
        <time>2022-12-18T15:07:39.634Z</time>
      </trkpt>
      <trkpt lat="46.49872" lon="-1.77726">
        <ele>46.365309</ele>
        <time>2022-12-18T15:07:42.637Z</time>
      </trkpt>
      <trkpt lat="46.49863" lon="-1.77723">
        <ele>46.541081</ele>
        <time>2022-12-18T15:07:45.658Z</time>
      </trkpt>
      <trkpt lat="46.49853" lon="-1.77723">
        <ele>46.733843</ele>
        <time>2022-12-18T15:07:49.652Z</time>
      </trkpt>
      <trkpt lat="46.49845" lon="-1.77729">
        <ele>46.909029</ele>
        <time>2022-12-18T15:07:54.664Z</time>
      </trkpt>
      <trkpt lat="46.49836" lon="-1.77736">
        <ele>47.103002</ele>
        <time>2022-12-18T15:07:59.656Z</time>
      </trkpt>
      <trkpt lat="46.49826" lon="-1.77736">
        <ele>47.278859</ele>
        <time>2022-12-18T15:08:12.636Z</time>
      </trkpt>
      <trkpt lat="46.49816" lon="-1.77726">
        <ele>47.513817</ele>
        <time>2022-12-18T15:08:16.633Z</time>
      </trkpt>
      <trkpt lat="46.49806" lon="-1.77719">
        <ele>47.71738</ele>
        <time>2022-12-18T15:08:19.637Z</time>
      </trkpt>
      <trkpt lat="46.49796" lon="-1.77717">
        <ele>47.915451</ele>
        <time>2022-12-18T15:08:22.634Z</time>
      </trkpt>
      <trkpt lat="46.49785" lon="-1.7772">
        <ele>48.121907</ele>
        <time>2022-12-18T15:08:25.634Z</time>
      </trkpt>
      <trkpt lat="46.49776" lon="-1.77722">
        <ele>48.305169</ele>
        <time>2022-12-18T15:08:28.632Z</time>
      </trkpt>
      <trkpt lat="46.49765" lon="-1.77724">
        <ele>48.503581</ele>
        <time>2022-12-18T15:08:31.646Z</time>
      </trkpt>
      <trkpt lat="46.49755" lon="-1.77726">
        <ele>48.698251</ele>
        <time>2022-12-18T15:08:34.659Z</time>
      </trkpt>
      <trkpt lat="46.49745" lon="-1.77728">
        <ele>48.886341</ele>
        <time>2022-12-18T15:08:37.649Z</time>
      </trkpt>
      <trkpt lat="46.49733" lon="-1.7773">
        <ele>49.153022</ele>
        <time>2022-12-18T15:08:41.645Z</time>
      </trkpt>
      <trkpt lat="46.49722" lon="-1.77732">
        <ele>49.417606</ele>
        <time>2022-12-18T15:08:45.639Z</time>
      </trkpt>
      <trkpt lat="46.49712" lon="-1.77734">
        <ele>49.659962</ele>
        <time>2022-12-18T15:08:49.637Z</time>
      </trkpt>
      <trkpt lat="46.49702" lon="-1.77737">
        <ele>49.88676</ele>
        <time>2022-12-18T15:08:53.647Z</time>
      </trkpt>
      <trkpt lat="46.49692" lon="-1.77739">
        <ele>50.121408</ele>
        <time>2022-12-18T15:08:57.646Z</time>
      </trkpt>
      <trkpt lat="46.49683" lon="-1.77741">
        <ele>50.350729</ele>
        <time>2022-12-18T15:09:01.641Z</time>
      </trkpt>
      <trkpt lat="46.49673" lon="-1.77744">
        <ele>50.592822</ele>
        <time>2022-12-18T15:09:06.649Z</time>
      </trkpt>
      <trkpt lat="46.49662" lon="-1.77746">
        <ele>50.844687</ele>
        <time>2022-12-18T15:09:11.653Z</time>
      </trkpt>
      <trkpt lat="46.49653" lon="-1.77749">
        <ele>51.063405</ele>
        <time>2022-12-18T15:09:15.658Z</time>
      </trkpt>
      <trkpt lat="46.49644" lon="-1.7775">
        <ele>51.276044</ele>
        <time>2022-12-18T15:09:19.655Z</time>
      </trkpt>
      <trkpt lat="46.49634" lon="-1.77752">
        <ele>51.516979</ele>
        <time>2022-12-18T15:09:24.641Z</time>
      </trkpt>
      <trkpt lat="46.49623" lon="-1.77754">
        <ele>51.758819</ele>
        <time>2022-12-18T15:09:29.645Z</time>
      </trkpt>
      <trkpt lat="46.49613" lon="-1.77757">
        <ele>52.000351</ele>
        <time>2022-12-18T15:09:36.643Z</time>
      </trkpt>
      <trkpt lat="46.49604" lon="-1.77758">
        <ele>52.22574</ele>
        <time>2022-12-18T15:09:42.642Z</time>
      </trkpt>
      <trkpt lat="46.49593" lon="-1.77755">
        <ele>52.47646</ele>
        <time>2022-12-18T15:09:49.640Z</time>
      </trkpt>
      <trkpt lat="46.49586" lon="-1.77746">
        <ele>52.69481</ele>
        <time>2022-12-18T15:09:53.630Z</time>
      </trkpt>
      <trkpt lat="46.49578" lon="-1.77734">
        <ele>52.973684</ele>
        <time>2022-12-18T15:09:57.633Z</time>
      </trkpt>
      <trkpt lat="46.4957" lon="-1.77726">
        <ele>53.137609</ele>
        <time>2022-12-18T15:10:00.631Z</time>
      </trkpt>
      <trkpt lat="46.49561" lon="-1.77714">
        <ele>53.059196</ele>
        <time>2022-12-18T15:10:04.637Z</time>
      </trkpt>
      <trkpt lat="46.49554" lon="-1.77704">
        <ele>52.991726</ele>
        <time>2022-12-18T15:10:07.656Z</time>
      </trkpt>
      <trkpt lat="46.49547" lon="-1.77693">
        <ele>52.920099</ele>
        <time>2022-12-18T15:10:10.639Z</time>
      </trkpt>
      <trkpt lat="46.49539" lon="-1.77681">
        <ele>52.843983</ele>
        <time>2022-12-18T15:10:13.635Z</time>
      </trkpt>
      <trkpt lat="46.4953" lon="-1.7767">
        <ele>52.768978</ele>
        <time>2022-12-18T15:10:16.638Z</time>
      </trkpt>
      <trkpt lat="46.49522" lon="-1.77659">
        <ele>52.694462</ele>
        <time>2022-12-18T15:10:19.663Z</time>
      </trkpt>
      <trkpt lat="46.49513" lon="-1.77647">
        <ele>52.614255</ele>
        <time>2022-12-18T15:10:22.642Z</time>
      </trkpt>
      <trkpt lat="46.49503" lon="-1.77636">
        <ele>52.531612</ele>
        <time>2022-12-18T15:10:25.656Z</time>
      </trkpt>
      <trkpt lat="46.49495" lon="-1.77624">
        <ele>52.451061</ele>
        <time>2022-12-18T15:10:28.646Z</time>
      </trkpt>
      <trkpt lat="46.49488" lon="-1.77614">
        <ele>52.39026</ele>
        <time>2022-12-18T15:10:30.666Z</time>
      </trkpt>
      <trkpt lat="46.49479" lon="-1.77601">
        <ele>52.304697</ele>
        <time>2022-12-18T15:10:33.638Z</time>
      </trkpt>
      <trkpt lat="46.49471" lon="-1.77589">
        <ele>52.228946</ele>
        <time>2022-12-18T15:10:36.644Z</time>
      </trkpt>
      <trkpt lat="46.49462" lon="-1.77578">
        <ele>52.151229</ele>
        <time>2022-12-18T15:10:39.656Z</time>
      </trkpt>
      <trkpt lat="46.49454" lon="-1.77566">
        <ele>52.072589</ele>
        <time>2022-12-18T15:10:42.641Z</time>
      </trkpt>
      <trkpt lat="46.49445" lon="-1.77555">
        <ele>51.994258</ele>
        <time>2022-12-18T15:10:45.637Z</time>
      </trkpt>
      <trkpt lat="46.49437" lon="-1.77545">
        <ele>51.893457</ele>
        <time>2022-12-18T15:10:48.648Z</time>
      </trkpt>
      <trkpt lat="46.49429" lon="-1.77536">
        <ele>51.772538</ele>
        <time>2022-12-18T15:10:51.639Z</time>
      </trkpt>
      <trkpt lat="46.49421" lon="-1.77526">
        <ele>51.636955</ele>
        <time>2022-12-18T15:10:54.655Z</time>
      </trkpt>
      <trkpt lat="46.49413" lon="-1.77514">
        <ele>51.488236</ele>
        <time>2022-12-18T15:10:57.660Z</time>
      </trkpt>
      <trkpt lat="46.49404" lon="-1.77503">
        <ele>51.343914</ele>
        <time>2022-12-18T15:11:00.654Z</time>
      </trkpt>
      <trkpt lat="46.49397" lon="-1.77492">
        <ele>51.211708</ele>
        <time>2022-12-18T15:11:03.658Z</time>
      </trkpt>
      <trkpt lat="46.49388" lon="-1.77482">
        <ele>51.069158</ele>
        <time>2022-12-18T15:11:06.643Z</time>
      </trkpt>
      <trkpt lat="46.49378" lon="-1.77476">
        <ele>50.928967</ele>
        <time>2022-12-18T15:11:09.649Z</time>
      </trkpt>
      <trkpt lat="46.49367" lon="-1.7747">
        <ele>50.777101</ele>
        <time>2022-12-18T15:11:12.661Z</time>
      </trkpt>
      <trkpt lat="46.49356" lon="-1.77464">
        <ele>50.631307</ele>
        <time>2022-12-18T15:11:15.640Z</time>
      </trkpt>
      <trkpt lat="46.49347" lon="-1.77459">
        <ele>50.512887</ele>
        <time>2022-12-18T15:11:18.646Z</time>
      </trkpt>
      <trkpt lat="46.49337" lon="-1.77451">
        <ele>50.367716</ele>
        <time>2022-12-18T15:11:22.658Z</time>
      </trkpt>
      <trkpt lat="46.49329" lon="-1.77445">
        <ele>50.250964</ele>
        <time>2022-12-18T15:11:25.649Z</time>
      </trkpt>
      <trkpt lat="46.49318" lon="-1.77438">
        <ele>50.102732</ele>
        <time>2022-12-18T15:11:28.636Z</time>
      </trkpt>
      <trkpt lat="46.49307" lon="-1.77431">
        <ele>49.949694</ele>
        <time>2022-12-18T15:11:31.645Z</time>
      </trkpt>
      <trkpt lat="46.49295" lon="-1.77424">
        <ele>49.788632</ele>
        <time>2022-12-18T15:11:34.637Z</time>
      </trkpt>
      <trkpt lat="46.49284" lon="-1.77417">
        <ele>49.658527</ele>
        <time>2022-12-18T15:11:37.663Z</time>
      </trkpt>
      <trkpt lat="46.49275" lon="-1.77411">
        <ele>49.596579</ele>
        <time>2022-12-18T15:11:40.654Z</time>
      </trkpt>
      <trkpt lat="46.49266" lon="-1.77405">
        <ele>49.542024</ele>
        <time>2022-12-18T15:11:43.647Z</time>
      </trkpt>
      <trkpt lat="46.49257" lon="-1.77399">
        <ele>49.483565</ele>
        <time>2022-12-18T15:11:46.660Z</time>
      </trkpt>
      <trkpt lat="46.49248" lon="-1.77392">
        <ele>49.426274</ele>
        <time>2022-12-18T15:11:49.636Z</time>
      </trkpt>
      <trkpt lat="46.49238" lon="-1.77385">
        <ele>49.361205</ele>
        <time>2022-12-18T15:11:53.637Z</time>
      </trkpt>
      <trkpt lat="46.49227" lon="-1.77378">
        <ele>49.289352</ele>
        <time>2022-12-18T15:11:56.662Z</time>
      </trkpt>
      <trkpt lat="46.49215" lon="-1.77371">
        <ele>49.217579</ele>
        <time>2022-12-18T15:11:59.647Z</time>
      </trkpt>
      <trkpt lat="46.49204" lon="-1.77365">
        <ele>49.150322</ele>
        <time>2022-12-18T15:12:02.640Z</time>
      </trkpt>
      <trkpt lat="46.49195" lon="-1.7736">
        <ele>49.088997</ele>
        <time>2022-12-18T15:12:05.657Z</time>
      </trkpt>
      <trkpt lat="46.49186" lon="-1.77354">
        <ele>49.034133</ele>
        <time>2022-12-18T15:12:08.641Z</time>
      </trkpt>
      <trkpt lat="46.49177" lon="-1.77348">
        <ele>48.979502</ele>
        <time>2022-12-18T15:12:11.639Z</time>
      </trkpt>
      <trkpt lat="46.49167" lon="-1.77339">
        <ele>48.909504</ele>
        <time>2022-12-18T15:12:15.642Z</time>
      </trkpt>
      <trkpt lat="46.49159" lon="-1.77333">
        <ele>48.855396</ele>
        <time>2022-12-18T15:12:18.659Z</time>
      </trkpt>
      <trkpt lat="46.49148" lon="-1.77326">
        <ele>48.785264</ele>
        <time>2022-12-18T15:12:21.661Z</time>
      </trkpt>
      <trkpt lat="46.49136" lon="-1.77318">
        <ele>48.708696</ele>
        <time>2022-12-18T15:12:24.658Z</time>
      </trkpt>
      <trkpt lat="46.49126" lon="-1.77313">
        <ele>48.650315</ele>
        <time>2022-12-18T15:12:26.643Z</time>
      </trkpt>
      <trkpt lat="46.49117" lon="-1.77308">
        <ele>48.791282</ele>
        <time>2022-12-18T15:12:28.641Z</time>
      </trkpt>
      <trkpt lat="46.49109" lon="-1.77302">
        <ele>49.016956</ele>
        <time>2022-12-18T15:12:30.656Z</time>
      </trkpt>
      <trkpt lat="46.49098" lon="-1.77295">
        <ele>49.310235</ele>
        <time>2022-12-18T15:12:33.650Z</time>
      </trkpt>
      <trkpt lat="46.49088" lon="-1.77289">
        <ele>49.560486</ele>
        <time>2022-12-18T15:12:36.637Z</time>
      </trkpt>
      <trkpt lat="46.49079" lon="-1.77284">
        <ele>49.783922</ele>
        <time>2022-12-18T15:12:39.652Z</time>
      </trkpt>
      <trkpt lat="46.4907" lon="-1.77278">
        <ele>50.013975</ele>
        <time>2022-12-18T15:12:42.643Z</time>
      </trkpt>
      <trkpt lat="46.49061" lon="-1.77276">
        <ele>50.254311</ele>
        <time>2022-12-18T15:12:45.635Z</time>
      </trkpt>
      <trkpt lat="46.49051" lon="-1.7727">
        <ele>50.498223</ele>
        <time>2022-12-18T15:12:48.638Z</time>
      </trkpt>
      <trkpt lat="46.49043" lon="-1.77262">
        <ele>50.73277</ele>
        <time>2022-12-18T15:12:51.660Z</time>
      </trkpt>
      <trkpt lat="46.49037" lon="-1.77252">
        <ele>50.959565</ele>
        <time>2022-12-18T15:12:54.666Z</time>
      </trkpt>
      <trkpt lat="46.49032" lon="-1.77241">
        <ele>51.175534</ele>
        <time>2022-12-18T15:12:57.645Z</time>
      </trkpt>
      <trkpt lat="46.49026" lon="-1.77229">
        <ele>51.410453</ele>
        <time>2022-12-18T15:13:00.648Z</time>
      </trkpt>
      <trkpt lat="46.49021" lon="-1.77217">
        <ele>51.645602</ele>
        <time>2022-12-18T15:13:03.636Z</time>
      </trkpt>
      <trkpt lat="46.49016" lon="-1.77205">
        <ele>51.882735</ele>
        <time>2022-12-18T15:13:06.646Z</time>
      </trkpt>
      <trkpt lat="46.49011" lon="-1.77193">
        <ele>52.118033</ele>
        <time>2022-12-18T15:13:09.641Z</time>
      </trkpt>
      <trkpt lat="46.49005" lon="-1.77181">
        <ele>52.352979</ele>
        <time>2022-12-18T15:13:12.646Z</time>
      </trkpt>
      <trkpt lat="46.49" lon="-1.77169">
        <ele>52.59201</ele>
        <time>2022-12-18T15:13:15.639Z</time>
      </trkpt>
      <trkpt lat="46.48994" lon="-1.77156">
        <ele>52.839183</ele>
        <time>2022-12-18T15:13:18.645Z</time>
      </trkpt>
      <trkpt lat="46.48988" lon="-1.77145">
        <ele>52.955547</ele>
        <time>2022-12-18T15:13:21.651Z</time>
      </trkpt>
      <trkpt lat="46.48983" lon="-1.77132">
        <ele>52.983344</ele>
        <time>2022-12-18T15:13:24.636Z</time>
      </trkpt>
      <trkpt lat="46.48978" lon="-1.77121">
        <ele>53.009444</ele>
        <time>2022-12-18T15:13:27.648Z</time>
      </trkpt>
      <trkpt lat="46.48972" lon="-1.77109">
        <ele>53.035664</ele>
        <time>2022-12-18T15:13:30.645Z</time>
      </trkpt>
      <trkpt lat="46.48967" lon="-1.77097">
        <ele>53.062853</ele>
        <time>2022-12-18T15:13:33.650Z</time>
      </trkpt>
      <trkpt lat="46.48962" lon="-1.77085">
        <ele>53.089867</ele>
        <time>2022-12-18T15:13:36.643Z</time>
      </trkpt>
      <trkpt lat="46.48955" lon="-1.77071">
        <ele>53.121833</ele>
        <time>2022-12-18T15:13:40.648Z</time>
      </trkpt>
      <trkpt lat="46.4895" lon="-1.7706">
        <ele>53.147294</ele>
        <time>2022-12-18T15:13:43.660Z</time>
      </trkpt>
      <trkpt lat="46.48945" lon="-1.77048">
        <ele>53.173073</ele>
        <time>2022-12-18T15:13:46.660Z</time>
      </trkpt>
      <trkpt lat="46.4894" lon="-1.77036">
        <ele>53.199297</ele>
        <time>2022-12-18T15:13:49.655Z</time>
      </trkpt>
      <trkpt lat="46.48934" lon="-1.77024">
        <ele>53.227559</ele>
        <time>2022-12-18T15:13:53.638Z</time>
      </trkpt>
      <trkpt lat="46.48929" lon="-1.77012">
        <ele>53.255022</ele>
        <time>2022-12-18T15:13:57.642Z</time>
      </trkpt>
      <trkpt lat="46.48923" lon="-1.77">
        <ele>53.282333</ele>
        <time>2022-12-18T15:14:01.663Z</time>
      </trkpt>
      <trkpt lat="46.48913" lon="-1.7698">
        <ele>53.32795</ele>
        <time>2022-12-18T15:16:49.630Z</time>
      </trkpt>
      <trkpt lat="46.48907" lon="-1.76968">
        <ele>53.356098</ele>
        <time>2022-12-18T15:16:53.656Z</time>
      </trkpt>
      <trkpt lat="46.48901" lon="-1.76959">
        <ele>53.380892</ele>
        <time>2022-12-18T15:16:56.652Z</time>
      </trkpt>
      <trkpt lat="46.48894" lon="-1.76949">
        <ele>53.406775</ele>
        <time>2022-12-18T15:16:59.649Z</time>
      </trkpt>
      <trkpt lat="46.48886" lon="-1.76941">
        <ele>53.43548</ele>
        <time>2022-12-18T15:17:02.648Z</time>
      </trkpt>
      <trkpt lat="46.48878" lon="-1.76933">
        <ele>53.530392</ele>
        <time>2022-12-18T15:17:05.649Z</time>
      </trkpt>
      <trkpt lat="46.4887" lon="-1.76926">
        <ele>53.620059</ele>
        <time>2022-12-18T15:17:08.634Z</time>
      </trkpt>
      <trkpt lat="46.48861" lon="-1.76917">
        <ele>53.726185</ele>
        <time>2022-12-18T15:17:12.653Z</time>
      </trkpt>
      <trkpt lat="46.48851" lon="-1.76907">
        <ele>53.834944</ele>
        <time>2022-12-18T15:17:17.662Z</time>
      </trkpt>
      <trkpt lat="46.48843" lon="-1.76898">
        <ele>53.941407</ele>
        <time>2022-12-18T15:17:21.651Z</time>
      </trkpt>
      <trkpt lat="46.48833" lon="-1.76889">
        <ele>54.051678</ele>
        <time>2022-12-18T15:17:25.654Z</time>
      </trkpt>
      <trkpt lat="46.48824" lon="-1.7688">
        <ele>54.153943</ele>
        <time>2022-12-18T15:17:29.651Z</time>
      </trkpt>
      <trkpt lat="46.48815" lon="-1.7687">
        <ele>54.261216</ele>
        <time>2022-12-18T15:17:33.646Z</time>
      </trkpt>
      <trkpt lat="46.48805" lon="-1.76861">
        <ele>54.374979</ele>
        <time>2022-12-18T15:17:37.650Z</time>
      </trkpt>
      <trkpt lat="46.48797" lon="-1.76855">
        <ele>54.46232</ele>
        <time>2022-12-18T15:17:40.657Z</time>
      </trkpt>
      <trkpt lat="46.48787" lon="-1.76844">
        <ele>54.578072</ele>
        <time>2022-12-18T15:17:44.655Z</time>
      </trkpt>
      <trkpt lat="46.4878" lon="-1.76836">
        <ele>54.668968</ele>
        <time>2022-12-18T15:17:47.654Z</time>
      </trkpt>
      <trkpt lat="46.48772" lon="-1.76828">
        <ele>54.764141</ele>
        <time>2022-12-18T15:17:50.639Z</time>
      </trkpt>
      <trkpt lat="46.48763" lon="-1.7682">
        <ele>54.866956</ele>
        <time>2022-12-18T15:17:53.631Z</time>
      </trkpt>
      <trkpt lat="46.48753" lon="-1.76813">
        <ele>54.96729</ele>
        <time>2022-12-18T15:17:56.654Z</time>
      </trkpt>
      <trkpt lat="46.48745" lon="-1.76804">
        <ele>55.065698</ele>
        <time>2022-12-18T15:17:59.660Z</time>
      </trkpt>
      <trkpt lat="46.48736" lon="-1.76796">
        <ele>55.138501</ele>
        <time>2022-12-18T15:18:02.656Z</time>
      </trkpt>
      <trkpt lat="46.48728" lon="-1.76788">
        <ele>54.946792</ele>
        <time>2022-12-18T15:18:05.634Z</time>
      </trkpt>
      <trkpt lat="46.48718" lon="-1.76779">
        <ele>54.691444</ele>
        <time>2022-12-18T15:18:09.648Z</time>
      </trkpt>
      <trkpt lat="46.48709" lon="-1.76771">
        <ele>54.466976</ele>
        <time>2022-12-18T15:18:12.652Z</time>
      </trkpt>
      <trkpt lat="46.48699" lon="-1.76762">
        <ele>54.230883</ele>
        <time>2022-12-18T15:18:15.649Z</time>
      </trkpt>
      <trkpt lat="46.48689" lon="-1.76753">
        <ele>53.995254</ele>
        <time>2022-12-18T15:18:18.655Z</time>
      </trkpt>
      <trkpt lat="46.4868" lon="-1.76745">
        <ele>53.756357</ele>
        <time>2022-12-18T15:18:21.661Z</time>
      </trkpt>
      <trkpt lat="46.48671" lon="-1.76736">
        <ele>53.536645</ele>
        <time>2022-12-18T15:18:24.660Z</time>
      </trkpt>
      <trkpt lat="46.48662" lon="-1.76728">
        <ele>53.31281</ele>
        <time>2022-12-18T15:18:27.658Z</time>
      </trkpt>
      <trkpt lat="46.48653" lon="-1.76719">
        <ele>53.08724</ele>
        <time>2022-12-18T15:18:30.653Z</time>
      </trkpt>
      <trkpt lat="46.48644" lon="-1.7671">
        <ele>52.855903</ele>
        <time>2022-12-18T15:18:33.654Z</time>
      </trkpt>
      <trkpt lat="46.48635" lon="-1.76701">
        <ele>52.628403</ele>
        <time>2022-12-18T15:18:36.653Z</time>
      </trkpt>
      <trkpt lat="46.48626" lon="-1.76693">
        <ele>52.402833</ele>
        <time>2022-12-18T15:18:39.656Z</time>
      </trkpt>
      <trkpt lat="46.48616" lon="-1.76684">
        <ele>52.176861</ele>
        <time>2022-12-18T15:18:42.636Z</time>
      </trkpt>
      <trkpt lat="46.48607" lon="-1.76675">
        <ele>51.94299</ele>
        <time>2022-12-18T15:18:45.653Z</time>
      </trkpt>
      <trkpt lat="46.48598" lon="-1.76666">
        <ele>51.717537</ele>
        <time>2022-12-18T15:18:48.650Z</time>
      </trkpt>
      <trkpt lat="46.4859" lon="-1.76657">
        <ele>51.495531</ele>
        <time>2022-12-18T15:18:51.646Z</time>
      </trkpt>
      <trkpt lat="46.48581" lon="-1.76648">
        <ele>51.320386</ele>
        <time>2022-12-18T15:18:54.649Z</time>
      </trkpt>
      <trkpt lat="46.48573" lon="-1.7664">
        <ele>51.174511</ele>
        <time>2022-12-18T15:18:57.644Z</time>
      </trkpt>
      <trkpt lat="46.48564" lon="-1.76631">
        <ele>51.028016</ele>
        <time>2022-12-18T15:19:00.652Z</time>
      </trkpt>
      <trkpt lat="46.48555" lon="-1.76622">
        <ele>50.869034</ele>
        <time>2022-12-18T15:19:03.638Z</time>
      </trkpt>
      <trkpt lat="46.48546" lon="-1.76613">
        <ele>50.718468</ele>
        <time>2022-12-18T15:19:06.655Z</time>
      </trkpt>
      <trkpt lat="46.48538" lon="-1.76605">
        <ele>50.580007</ele>
        <time>2022-12-18T15:19:09.657Z</time>
      </trkpt>
      <trkpt lat="46.4853" lon="-1.76598">
        <ele>50.445938</ele>
        <time>2022-12-18T15:19:12.656Z</time>
      </trkpt>
      <trkpt lat="46.48522" lon="-1.7659">
        <ele>50.309247</ele>
        <time>2022-12-18T15:19:15.648Z</time>
      </trkpt>
      <trkpt lat="46.48514" lon="-1.76582">
        <ele>50.166076</ele>
        <time>2022-12-18T15:19:18.660Z</time>
      </trkpt>
      <trkpt lat="46.48505" lon="-1.76574">
        <ele>50.023562</ele>
        <time>2022-12-18T15:19:21.652Z</time>
      </trkpt>
      <trkpt lat="46.48497" lon="-1.76566">
        <ele>49.880917</ele>
        <time>2022-12-18T15:19:24.630Z</time>
      </trkpt>
      <trkpt lat="46.48488" lon="-1.76559">
        <ele>49.735192</ele>
        <time>2022-12-18T15:19:27.646Z</time>
      </trkpt>
      <trkpt lat="46.48479" lon="-1.76551">
        <ele>49.589953</ele>
        <time>2022-12-18T15:19:30.654Z</time>
      </trkpt>
      <trkpt lat="46.4847" lon="-1.76543">
        <ele>49.443456</ele>
        <time>2022-12-18T15:19:33.650Z</time>
      </trkpt>
      <trkpt lat="46.48462" lon="-1.76534">
        <ele>49.294752</ele>
        <time>2022-12-18T15:19:36.656Z</time>
      </trkpt>
      <trkpt lat="46.48453" lon="-1.76526">
        <ele>49.146803</ele>
        <time>2022-12-18T15:19:39.657Z</time>
      </trkpt>
      <trkpt lat="46.48444" lon="-1.76518">
        <ele>49.007171</ele>
        <time>2022-12-18T15:19:42.646Z</time>
      </trkpt>
      <trkpt lat="46.48437" lon="-1.7651">
        <ele>48.869347</ele>
        <time>2022-12-18T15:19:45.647Z</time>
      </trkpt>
      <trkpt lat="46.48429" lon="-1.76502">
        <ele>48.813624</ele>
        <time>2022-12-18T15:19:48.654Z</time>
      </trkpt>
      <trkpt lat="46.4842" lon="-1.76492">
        <ele>48.747526</ele>
        <time>2022-12-18T15:19:52.643Z</time>
      </trkpt>
      <trkpt lat="46.48413" lon="-1.76483">
        <ele>48.694021</ele>
        <time>2022-12-18T15:19:55.649Z</time>
      </trkpt>
      <trkpt lat="46.48406" lon="-1.76474">
        <ele>48.638317</ele>
        <time>2022-12-18T15:19:58.657Z</time>
      </trkpt>
      <trkpt lat="46.48398" lon="-1.76465">
        <ele>48.581025</ele>
        <time>2022-12-18T15:20:01.658Z</time>
      </trkpt>
      <trkpt lat="46.4839" lon="-1.76456">
        <ele>48.524877</ele>
        <time>2022-12-18T15:20:04.651Z</time>
      </trkpt>
      <trkpt lat="46.48383" lon="-1.76447">
        <ele>48.468533</ele>
        <time>2022-12-18T15:20:07.650Z</time>
      </trkpt>
      <trkpt lat="46.48375" lon="-1.76438">
        <ele>48.412131</ele>
        <time>2022-12-18T15:20:10.653Z</time>
      </trkpt>
      <trkpt lat="46.48367" lon="-1.7643">
        <ele>48.355372</ele>
        <time>2022-12-18T15:20:13.654Z</time>
      </trkpt>
      <trkpt lat="46.4836" lon="-1.76421">
        <ele>48.299976</ele>
        <time>2022-12-18T15:20:16.658Z</time>
      </trkpt>
      <trkpt lat="46.48352" lon="-1.76411">
        <ele>48.242542</ele>
        <time>2022-12-18T15:20:19.657Z</time>
      </trkpt>
      <trkpt lat="46.48344" lon="-1.76403">
        <ele>48.185331</ele>
        <time>2022-12-18T15:20:22.638Z</time>
      </trkpt>
      <trkpt lat="46.48337" lon="-1.76394">
        <ele>48.12759</ele>
        <time>2022-12-18T15:20:25.656Z</time>
      </trkpt>
      <trkpt lat="46.48329" lon="-1.76385">
        <ele>48.069188</ele>
        <time>2022-12-18T15:20:28.631Z</time>
      </trkpt>
      <trkpt lat="46.48321" lon="-1.76375">
        <ele>48.010182</ele>
        <time>2022-12-18T15:20:31.654Z</time>
      </trkpt>
      <trkpt lat="46.48313" lon="-1.76366">
        <ele>47.951291</ele>
        <time>2022-12-18T15:20:34.648Z</time>
      </trkpt>
      <trkpt lat="46.48305" lon="-1.76357">
        <ele>47.892399</ele>
        <time>2022-12-18T15:20:37.634Z</time>
      </trkpt>
      <trkpt lat="46.48297" lon="-1.76348">
        <ele>47.833507</ele>
        <time>2022-12-18T15:20:40.646Z</time>
      </trkpt>
      <trkpt lat="46.48288" lon="-1.76339">
        <ele>47.81062</ele>
        <time>2022-12-18T15:20:43.643Z</time>
      </trkpt>
      <trkpt lat="46.4828" lon="-1.76329">
        <ele>47.792777</ele>
        <time>2022-12-18T15:20:46.643Z</time>
      </trkpt>
      <trkpt lat="46.48271" lon="-1.7632">
        <ele>47.774533</ele>
        <time>2022-12-18T15:20:49.655Z</time>
      </trkpt>
      <trkpt lat="46.48263" lon="-1.7631">
        <ele>47.756267</ele>
        <time>2022-12-18T15:20:52.648Z</time>
      </trkpt>
      <trkpt lat="46.48255" lon="-1.763">
        <ele>47.738014</ele>
        <time>2022-12-18T15:20:55.658Z</time>
      </trkpt>
      <trkpt lat="46.48246" lon="-1.76291">
        <ele>47.719894</ele>
        <time>2022-12-18T15:20:58.649Z</time>
      </trkpt>
      <trkpt lat="46.48238" lon="-1.76281">
        <ele>47.701437</ele>
        <time>2022-12-18T15:21:01.634Z</time>
      </trkpt>
      <trkpt lat="46.48229" lon="-1.76271">
        <ele>47.683398</ele>
        <time>2022-12-18T15:21:04.659Z</time>
      </trkpt>
      <trkpt lat="46.48222" lon="-1.76263">
        <ele>47.667689</ele>
        <time>2022-12-18T15:21:07.650Z</time>
      </trkpt>
      <trkpt lat="46.48214" lon="-1.76254">
        <ele>47.651349</ele>
        <time>2022-12-18T15:21:10.658Z</time>
      </trkpt>
      <trkpt lat="46.48207" lon="-1.76245">
        <ele>47.634792</ele>
        <time>2022-12-18T15:21:13.663Z</time>
      </trkpt>
      <trkpt lat="46.48199" lon="-1.76236">
        <ele>47.617562</ele>
        <time>2022-12-18T15:21:16.654Z</time>
      </trkpt>
      <trkpt lat="46.48191" lon="-1.76226">
        <ele>47.600318</ele>
        <time>2022-12-18T15:21:19.654Z</time>
      </trkpt>
      <trkpt lat="46.48183" lon="-1.76217">
        <ele>47.582329</ele>
        <time>2022-12-18T15:21:22.647Z</time>
      </trkpt>
      <trkpt lat="46.48174" lon="-1.76206">
        <ele>47.563507</ele>
        <time>2022-12-18T15:21:25.656Z</time>
      </trkpt>
      <trkpt lat="46.48165" lon="-1.76196">
        <ele>47.544833</ele>
        <time>2022-12-18T15:21:28.649Z</time>
      </trkpt>
      <trkpt lat="46.48158" lon="-1.76186">
        <ele>47.527365</ele>
        <time>2022-12-18T15:21:31.658Z</time>
      </trkpt>
      <trkpt lat="46.4815" lon="-1.76177">
        <ele>47.711547</ele>
        <time>2022-12-18T15:21:34.648Z</time>
      </trkpt>
      <trkpt lat="46.48143" lon="-1.76168">
        <ele>47.952582</ele>
        <time>2022-12-18T15:21:37.655Z</time>
      </trkpt>
      <trkpt lat="46.48134" lon="-1.76159">
        <ele>48.234281</ele>
        <time>2022-12-18T15:21:41.657Z</time>
      </trkpt>
      <trkpt lat="46.48126" lon="-1.76148">
        <ele>48.529745</ele>
        <time>2022-12-18T15:21:45.641Z</time>
      </trkpt>
      <trkpt lat="46.48118" lon="-1.7614">
        <ele>48.772288</ele>
        <time>2022-12-18T15:21:48.632Z</time>
      </trkpt>
      <trkpt lat="46.48111" lon="-1.76131">
        <ele>49.024801</ele>
        <time>2022-12-18T15:21:51.654Z</time>
      </trkpt>
      <trkpt lat="46.48103" lon="-1.76122">
        <ele>49.274798</ele>
        <time>2022-12-18T15:21:54.649Z</time>
      </trkpt>
      <trkpt lat="46.48096" lon="-1.76114">
        <ele>49.529916</ele>
        <time>2022-12-18T15:21:57.657Z</time>
      </trkpt>
      <trkpt lat="46.48088" lon="-1.76105">
        <ele>49.781827</ele>
        <time>2022-12-18T15:22:00.656Z</time>
      </trkpt>
      <trkpt lat="46.4808" lon="-1.76098">
        <ele>50.02438</ele>
        <time>2022-12-18T15:22:03.645Z</time>
      </trkpt>
      <trkpt lat="46.48072" lon="-1.76092">
        <ele>50.270886</ele>
        <time>2022-12-18T15:22:06.659Z</time>
      </trkpt>
      <trkpt lat="46.48063" lon="-1.76086">
        <ele>50.516721</ele>
        <time>2022-12-18T15:22:09.661Z</time>
      </trkpt>
      <trkpt lat="46.48054" lon="-1.76083">
        <ele>50.761422</ele>
        <time>2022-12-18T15:22:12.646Z</time>
      </trkpt>
      <trkpt lat="46.48044" lon="-1.76077">
        <ele>51.047339</ele>
        <time>2022-12-18T15:22:16.661Z</time>
      </trkpt>
      <trkpt lat="46.48033" lon="-1.76072">
        <ele>51.351349</ele>
        <time>2022-12-18T15:22:20.654Z</time>
      </trkpt>
      <trkpt lat="46.48023" lon="-1.7607">
        <ele>51.603611</ele>
        <time>2022-12-18T15:22:23.654Z</time>
      </trkpt>
      <trkpt lat="46.48013" lon="-1.76067">
        <ele>51.86934</ele>
        <time>2022-12-18T15:22:26.649Z</time>
      </trkpt>
      <trkpt lat="46.48004" lon="-1.76063">
        <ele>52.126191</ele>
        <time>2022-12-18T15:22:29.658Z</time>
      </trkpt>
      <trkpt lat="46.47994" lon="-1.7606">
        <ele>52.223086</ele>
        <time>2022-12-18T15:22:32.656Z</time>
      </trkpt>
      <trkpt lat="46.47984" lon="-1.76057">
        <ele>52.215081</ele>
        <time>2022-12-18T15:22:35.650Z</time>
      </trkpt>
      <trkpt lat="46.47974" lon="-1.76054">
        <ele>52.207381</ele>
        <time>2022-12-18T15:22:38.654Z</time>
      </trkpt>
      <trkpt lat="46.47965" lon="-1.76051">
        <ele>52.200137</ele>
        <time>2022-12-18T15:22:41.643Z</time>
      </trkpt>
      <trkpt lat="46.47954" lon="-1.76047">
        <ele>52.191484</ele>
        <time>2022-12-18T15:22:45.642Z</time>
      </trkpt>
      <trkpt lat="46.47943" lon="-1.76047">
        <ele>52.182927</ele>
        <time>2022-12-18T15:22:49.667Z</time>
      </trkpt>
      <trkpt lat="46.47933" lon="-1.76045">
        <ele>52.174594</ele>
        <time>2022-12-18T15:22:53.656Z</time>
      </trkpt>
      <trkpt lat="46.47921" lon="-1.7604">
        <ele>52.165374</ele>
        <time>2022-12-18T15:22:57.654Z</time>
      </trkpt>
      <trkpt lat="46.47911" lon="-1.76038">
        <ele>52.156988</ele>
        <time>2022-12-18T15:23:01.658Z</time>
      </trkpt>
      <trkpt lat="46.479" lon="-1.76034">
        <ele>52.148178</ele>
        <time>2022-12-18T15:23:05.636Z</time>
      </trkpt>
      <trkpt lat="46.4789" lon="-1.76031">
        <ele>52.140304</ele>
        <time>2022-12-18T15:23:09.648Z</time>
      </trkpt>
      <trkpt lat="46.47881" lon="-1.76028">
        <ele>52.133006</ele>
        <time>2022-12-18T15:23:13.638Z</time>
      </trkpt>
      <trkpt lat="46.4787" lon="-1.76023">
        <ele>52.124541</ele>
        <time>2022-12-18T15:23:18.654Z</time>
      </trkpt>
      <trkpt lat="46.47861" lon="-1.76026">
        <ele>52.116743</ele>
        <time>2022-12-18T15:23:22.648Z</time>
      </trkpt>
      <trkpt lat="46.47852" lon="-1.76029">
        <ele>52.109614</ele>
        <time>2022-12-18T15:23:25.645Z</time>
      </trkpt>
      <trkpt lat="46.47842" lon="-1.76025">
        <ele>52.101918</ele>
        <time>2022-12-18T15:23:28.659Z</time>
      </trkpt>
      <trkpt lat="46.47834" lon="-1.7602">
        <ele>52.09494</ele>
        <time>2022-12-18T15:23:31.646Z</time>
      </trkpt>
      <trkpt lat="46.47825" lon="-1.76015">
        <ele>52.08176</ele>
        <time>2022-12-18T15:23:34.649Z</time>
      </trkpt>
      <trkpt lat="46.47817" lon="-1.76008">
        <ele>51.967984</ele>
        <time>2022-12-18T15:23:37.633Z</time>
      </trkpt>
      <trkpt lat="46.47809" lon="-1.76001">
        <ele>51.8549</ele>
        <time>2022-12-18T15:23:40.654Z</time>
      </trkpt>
      <trkpt lat="46.478" lon="-1.75993">
        <ele>51.734924</ele>
        <time>2022-12-18T15:23:43.643Z</time>
      </trkpt>
      <trkpt lat="46.47791" lon="-1.75986">
        <ele>51.608515</ele>
        <time>2022-12-18T15:23:46.656Z</time>
      </trkpt>
      <trkpt lat="46.47783" lon="-1.75978">
        <ele>51.491068</ele>
        <time>2022-12-18T15:23:49.645Z</time>
      </trkpt>
      <trkpt lat="46.47774" lon="-1.75966">
        <ele>51.3519</ele>
        <time>2022-12-18T15:23:53.657Z</time>
      </trkpt>
      <trkpt lat="46.47768" lon="-1.75955">
        <ele>51.234488</ele>
        <time>2022-12-18T15:23:56.654Z</time>
      </trkpt>
      <trkpt lat="46.47764" lon="-1.75942">
        <ele>51.110758</ele>
        <time>2022-12-18T15:23:59.659Z</time>
      </trkpt>
      <trkpt lat="46.47761" lon="-1.75929">
        <ele>50.99725</ele>
        <time>2022-12-18T15:24:02.655Z</time>
      </trkpt>
      <trkpt lat="46.47756" lon="-1.75913">
        <ele>50.853783</ele>
        <time>2022-12-18T15:24:06.651Z</time>
      </trkpt>
      <trkpt lat="46.47749" lon="-1.75901">
        <ele>50.730126</ele>
        <time>2022-12-18T15:24:09.648Z</time>
      </trkpt>
      <trkpt lat="46.47742" lon="-1.7589">
        <ele>50.600638</ele>
        <time>2022-12-18T15:24:12.657Z</time>
      </trkpt>
      <trkpt lat="46.47734" lon="-1.75878">
        <ele>50.466123</ele>
        <time>2022-12-18T15:24:15.663Z</time>
      </trkpt>
      <trkpt lat="46.47727" lon="-1.75866">
        <ele>50.332603</ele>
        <time>2022-12-18T15:24:18.648Z</time>
      </trkpt>
      <trkpt lat="46.47719" lon="-1.75854">
        <ele>50.200718</ele>
        <time>2022-12-18T15:24:21.645Z</time>
      </trkpt>
      <trkpt lat="46.47711" lon="-1.75843">
        <ele>50.066111</ele>
        <time>2022-12-18T15:24:24.626Z</time>
      </trkpt>
      <trkpt lat="46.47704" lon="-1.75831">
        <ele>49.933145</ele>
        <time>2022-12-18T15:24:27.655Z</time>
      </trkpt>
      <trkpt lat="46.47697" lon="-1.75819">
        <ele>50.013599</ele>
        <time>2022-12-18T15:24:30.645Z</time>
      </trkpt>
      <trkpt lat="46.47689" lon="-1.75808">
        <ele>50.091355</ele>
        <time>2022-12-18T15:24:33.656Z</time>
      </trkpt>
      <trkpt lat="46.47681" lon="-1.75798">
        <ele>50.172315</ele>
        <time>2022-12-18T15:24:36.643Z</time>
      </trkpt>
      <trkpt lat="46.47672" lon="-1.75789">
        <ele>50.253656</ele>
        <time>2022-12-18T15:24:39.646Z</time>
      </trkpt>
      <trkpt lat="46.47663" lon="-1.7578">
        <ele>50.335475</ele>
        <time>2022-12-18T15:24:42.658Z</time>
      </trkpt>
      <trkpt lat="46.47655" lon="-1.75772">
        <ele>50.406875</ele>
        <time>2022-12-18T15:24:45.653Z</time>
      </trkpt>
      <trkpt lat="46.47645" lon="-1.75763">
        <ele>50.490501</ele>
        <time>2022-12-18T15:24:49.639Z</time>
      </trkpt>
      <trkpt lat="46.47636" lon="-1.75756">
        <ele>50.573712</ele>
        <time>2022-12-18T15:24:53.645Z</time>
      </trkpt>
      <trkpt lat="46.47627" lon="-1.75745">
        <ele>50.655004</ele>
        <time>2022-12-18T15:24:57.654Z</time>
      </trkpt>
      <trkpt lat="46.4762" lon="-1.75735">
        <ele>50.732575</ele>
        <time>2022-12-18T15:25:01.660Z</time>
      </trkpt>
      <trkpt lat="46.47613" lon="-1.75724">
        <ele>50.805469</ele>
        <time>2022-12-18T15:25:05.648Z</time>
      </trkpt>
      <trkpt lat="46.47606" lon="-1.75713">
        <ele>50.88319</ele>
        <time>2022-12-18T15:25:09.661Z</time>
      </trkpt>
      <trkpt lat="46.47599" lon="-1.757">
        <ele>50.968691</ele>
        <time>2022-12-18T15:25:13.659Z</time>
      </trkpt>
      <trkpt lat="46.47591" lon="-1.75689">
        <ele>51.055178</ele>
        <time>2022-12-18T15:25:17.651Z</time>
      </trkpt>
      <trkpt lat="46.47581" lon="-1.75679">
        <ele>51.14015</ele>
        <time>2022-12-18T15:25:21.645Z</time>
      </trkpt>
      <trkpt lat="46.47572" lon="-1.75668">
        <ele>51.229043</ele>
        <time>2022-12-18T15:25:25.659Z</time>
      </trkpt>
      <trkpt lat="46.47564" lon="-1.75659">
        <ele>51.288908</ele>
        <time>2022-12-18T15:25:28.645Z</time>
      </trkpt>
      <trkpt lat="46.47557" lon="-1.75649">
        <ele>51.332543</ele>
        <time>2022-12-18T15:25:31.643Z</time>
      </trkpt>
      <trkpt lat="46.47549" lon="-1.75639">
        <ele>51.377705</ele>
        <time>2022-12-18T15:25:34.636Z</time>
      </trkpt>
      <trkpt lat="46.47541" lon="-1.75628">
        <ele>51.423443</ele>
        <time>2022-12-18T15:25:37.633Z</time>
      </trkpt>
      <trkpt lat="46.47534" lon="-1.75616">
        <ele>51.469464</ele>
        <time>2022-12-18T15:25:40.645Z</time>
      </trkpt>
      <trkpt lat="46.47527" lon="-1.75603">
        <ele>51.51554</ele>
        <time>2022-12-18T15:25:43.655Z</time>
      </trkpt>
      <trkpt lat="46.47521" lon="-1.7559">
        <ele>51.561826</ele>
        <time>2022-12-18T15:25:46.639Z</time>
      </trkpt>
      <trkpt lat="46.47517" lon="-1.75576">
        <ele>51.606514</ele>
        <time>2022-12-18T15:25:49.648Z</time>
      </trkpt>
      <trkpt lat="46.47514" lon="-1.75562">
        <ele>51.649566</ele>
        <time>2022-12-18T15:25:52.633Z</time>
      </trkpt>
      <trkpt lat="46.47512" lon="-1.75546">
        <ele>51.694867</ele>
        <time>2022-12-18T15:25:55.643Z</time>
      </trkpt>
      <trkpt lat="46.4751" lon="-1.75532">
        <ele>51.737884</ele>
        <time>2022-12-18T15:25:58.636Z</time>
      </trkpt>
      <trkpt lat="46.47508" lon="-1.75515">
        <ele>51.787765</ele>
        <time>2022-12-18T15:26:02.657Z</time>
      </trkpt>
      <trkpt lat="46.47506" lon="-1.75499">
        <ele>51.835855</ele>
        <time>2022-12-18T15:26:06.653Z</time>
      </trkpt>
      <trkpt lat="46.47503" lon="-1.75484">
        <ele>51.879336</ele>
        <time>2022-12-18T15:26:10.661Z</time>
      </trkpt>
      <trkpt lat="46.47502" lon="-1.75471">
        <ele>51.918125</ele>
        <time>2022-12-18T15:26:14.662Z</time>
      </trkpt>
      <trkpt lat="46.47499" lon="-1.75456">
        <ele>51.963841</ele>
        <time>2022-12-18T15:26:18.658Z</time>
      </trkpt>
      <trkpt lat="46.47496" lon="-1.75442">
        <ele>52.006583</ele>
        <time>2022-12-18T15:26:21.654Z</time>
      </trkpt>
      <trkpt lat="46.47493" lon="-1.75428">
        <ele>52.050782</ele>
        <time>2022-12-18T15:26:24.652Z</time>
      </trkpt>
      <trkpt lat="46.4749" lon="-1.75415">
        <ele>52.091337</ele>
        <time>2022-12-18T15:26:27.635Z</time>
      </trkpt>
      <trkpt lat="46.47482" lon="-1.75406">
        <ele>52.13751</ele>
        <time>2022-12-18T15:26:30.645Z</time>
      </trkpt>
      <trkpt lat="46.47476" lon="-1.7539">
        <ele>52.191644</ele>
        <time>2022-12-18T15:26:33.640Z</time>
      </trkpt>
      <trkpt lat="46.47473" lon="-1.75374">
        <ele>52.245268</ele>
        <time>2022-12-18T15:26:36.660Z</time>
      </trkpt>
      <trkpt lat="46.47471" lon="-1.75358">
        <ele>52.29427</ele>
        <time>2022-12-18T15:26:39.659Z</time>
      </trkpt>
      <trkpt lat="46.47466" lon="-1.75345">
        <ele>52.340645</ele>
        <time>2022-12-18T15:26:42.638Z</time>
      </trkpt>
      <trkpt lat="46.47458" lon="-1.75337">
        <ele>52.383403</ele>
        <time>2022-12-18T15:26:45.655Z</time>
      </trkpt>
      <trkpt lat="46.47453" lon="-1.75326">
        <ele>52.423707</ele>
        <time>2022-12-18T15:26:48.661Z</time>
      </trkpt>
      <trkpt lat="46.47451" lon="-1.75313">
        <ele>52.464983</ele>
        <time>2022-12-18T15:26:51.664Z</time>
      </trkpt>
      <trkpt lat="46.47449" lon="-1.753">
        <ele>52.505725</ele>
        <time>2022-12-18T15:26:54.635Z</time>
      </trkpt>
      <trkpt lat="46.47447" lon="-1.75284">
        <ele>52.556686</ele>
        <time>2022-12-18T15:26:58.652Z</time>
      </trkpt>
      <trkpt lat="46.47446" lon="-1.75268">
        <ele>52.606202</ele>
        <time>2022-12-18T15:27:02.639Z</time>
      </trkpt>
      <trkpt lat="46.47443" lon="-1.75256">
        <ele>52.647226</ele>
        <time>2022-12-18T15:27:05.662Z</time>
      </trkpt>
      <trkpt lat="46.4744" lon="-1.75243">
        <ele>52.689106</ele>
        <time>2022-12-18T15:27:08.656Z</time>
      </trkpt>
      <trkpt lat="46.47437" lon="-1.7523">
        <ele>52.729654</ele>
        <time>2022-12-18T15:27:11.644Z</time>
      </trkpt>
      <trkpt lat="46.47435" lon="-1.75215">
        <ele>52.778787</ele>
        <time>2022-12-18T15:27:15.636Z</time>
      </trkpt>
      <trkpt lat="46.47441" lon="-1.75203">
        <ele>52.823214</ele>
        <time>2022-12-18T15:27:19.643Z</time>
      </trkpt>
      <trkpt lat="46.47445" lon="-1.75191">
        <ele>52.887519</ele>
        <time>2022-12-18T15:27:23.626Z</time>
      </trkpt>
      <trkpt lat="46.47443" lon="-1.75177">
        <ele>52.967218</ele>
        <time>2022-12-18T15:27:27.657Z</time>
      </trkpt>
      <trkpt lat="46.4744" lon="-1.75163">
        <ele>53.049756</ele>
        <time>2022-12-18T15:27:31.661Z</time>
      </trkpt>
      <trkpt lat="46.47438" lon="-1.75148">
        <ele>53.134539</ele>
        <time>2022-12-18T15:27:35.662Z</time>
      </trkpt>
      <trkpt lat="46.47435" lon="-1.75133">
        <ele>53.220525</ele>
        <time>2022-12-18T15:27:39.646Z</time>
      </trkpt>
      <trkpt lat="46.47433" lon="-1.75118">
        <ele>53.308785</ele>
        <time>2022-12-18T15:27:43.655Z</time>
      </trkpt>
      <trkpt lat="46.4743" lon="-1.75101">
        <ele>53.406111</ele>
        <time>2022-12-18T15:27:47.649Z</time>
      </trkpt>
      <trkpt lat="46.47426" lon="-1.75088">
        <ele>53.484838</ele>
        <time>2022-12-18T15:27:50.651Z</time>
      </trkpt>
      <trkpt lat="46.47424" lon="-1.75074">
        <ele>53.562554</ele>
        <time>2022-12-18T15:27:53.662Z</time>
      </trkpt>
      <trkpt lat="46.47421" lon="-1.75061">
        <ele>53.639183</ele>
        <time>2022-12-18T15:27:56.658Z</time>
      </trkpt>
      <trkpt lat="46.47418" lon="-1.75046">
        <ele>53.726098</ele>
        <time>2022-12-18T15:28:00.660Z</time>
      </trkpt>
      <trkpt lat="46.47415" lon="-1.75032">
        <ele>53.81231</ele>
        <time>2022-12-18T15:28:04.648Z</time>
      </trkpt>
      <trkpt lat="46.47413" lon="-1.75019">
        <ele>53.88549</ele>
        <time>2022-12-18T15:28:07.661Z</time>
      </trkpt>
      <trkpt lat="46.4741" lon="-1.75002">
        <ele>53.983221</ele>
        <time>2022-12-18T15:28:11.655Z</time>
      </trkpt>
      <trkpt lat="46.47407" lon="-1.74988">
        <ele>54.065541</ele>
        <time>2022-12-18T15:28:14.659Z</time>
      </trkpt>
      <trkpt lat="46.47404" lon="-1.74973">
        <ele>54.148618</ele>
        <time>2022-12-18T15:28:17.643Z</time>
      </trkpt>
      <trkpt lat="46.47401" lon="-1.74959">
        <ele>54.232393</ele>
        <time>2022-12-18T15:28:20.655Z</time>
      </trkpt>
      <trkpt lat="46.47398" lon="-1.74945">
        <ele>54.293012</ele>
        <time>2022-12-18T15:28:23.659Z</time>
      </trkpt>
      <trkpt lat="46.47395" lon="-1.7493">
        <ele>54.256518</ele>
        <time>2022-12-18T15:28:26.655Z</time>
      </trkpt>
      <trkpt lat="46.47392" lon="-1.74915">
        <ele>54.220735</ele>
        <time>2022-12-18T15:28:29.660Z</time>
      </trkpt>
      <trkpt lat="46.47388" lon="-1.749">
        <ele>54.185444</ele>
        <time>2022-12-18T15:28:32.657Z</time>
      </trkpt>
      <trkpt lat="46.47385" lon="-1.74886">
        <ele>54.149826</ele>
        <time>2022-12-18T15:28:35.635Z</time>
      </trkpt>
      <trkpt lat="46.47382" lon="-1.74871">
        <ele>54.114837</ele>
        <time>2022-12-18T15:28:38.661Z</time>
      </trkpt>
      <trkpt lat="46.47378" lon="-1.74857">
        <ele>54.079808</ele>
        <time>2022-12-18T15:28:41.660Z</time>
      </trkpt>
      <trkpt lat="46.47373" lon="-1.74845">
        <ele>54.047982</ele>
        <time>2022-12-18T15:28:44.656Z</time>
      </trkpt>
      <trkpt lat="46.47369" lon="-1.7483">
        <ele>54.010804</ele>
        <time>2022-12-18T15:28:48.652Z</time>
      </trkpt>
      <trkpt lat="46.47364" lon="-1.74816">
        <ele>53.975309</ele>
        <time>2022-12-18T15:28:51.648Z</time>
      </trkpt>
      <trkpt lat="46.47358" lon="-1.74801">
        <ele>53.933884</ele>
        <time>2022-12-18T15:28:54.658Z</time>
      </trkpt>
      <trkpt lat="46.47351" lon="-1.74786">
        <ele>53.892196</ele>
        <time>2022-12-18T15:28:57.654Z</time>
      </trkpt>
      <trkpt lat="46.47344" lon="-1.74772">
        <ele>53.851614</ele>
        <time>2022-12-18T15:29:00.660Z</time>
      </trkpt>
      <trkpt lat="46.47337" lon="-1.74758">
        <ele>53.811765</ele>
        <time>2022-12-18T15:29:03.661Z</time>
      </trkpt>
      <trkpt lat="46.47329" lon="-1.74745">
        <ele>53.771963</ele>
        <time>2022-12-18T15:29:06.657Z</time>
      </trkpt>
      <trkpt lat="46.4732" lon="-1.74732">
        <ele>53.729065</ele>
        <time>2022-12-18T15:29:09.650Z</time>
      </trkpt>
      <trkpt lat="46.47312" lon="-1.74719">
        <ele>53.691048</ele>
        <time>2022-12-18T15:29:12.646Z</time>
      </trkpt>
      <trkpt lat="46.47304" lon="-1.74707">
        <ele>53.665276</ele>
        <time>2022-12-18T15:29:15.638Z</time>
      </trkpt>
      <trkpt lat="46.47296" lon="-1.74696">
        <ele>53.640067</ele>
        <time>2022-12-18T15:29:18.657Z</time>
      </trkpt>
      <trkpt lat="46.47289" lon="-1.74686">
        <ele>53.615914</ele>
        <time>2022-12-18T15:29:21.660Z</time>
      </trkpt>
      <trkpt lat="46.47282" lon="-1.74675">
        <ele>53.592207</ele>
        <time>2022-12-18T15:29:24.654Z</time>
      </trkpt>
      <trkpt lat="46.47275" lon="-1.74664">
        <ele>53.56916</ele>
        <time>2022-12-18T15:29:27.657Z</time>
      </trkpt>
      <trkpt lat="46.47268" lon="-1.74653">
        <ele>53.545182</ele>
        <time>2022-12-18T15:29:30.638Z</time>
      </trkpt>
      <trkpt lat="46.47261" lon="-1.74642">
        <ele>53.521669</ele>
        <time>2022-12-18T15:29:33.668Z</time>
      </trkpt>
      <trkpt lat="46.47251" lon="-1.74634">
        <ele>53.496201</ele>
        <time>2022-12-18T15:29:37.650Z</time>
      </trkpt>
      <trkpt lat="46.47247" lon="-1.74621">
        <ele>53.4739</ele>
        <time>2022-12-18T15:29:42.661Z</time>
      </trkpt>
      <trkpt lat="46.4724" lon="-1.74611">
        <ele>53.451205</ele>
        <time>2022-12-18T15:29:47.650Z</time>
      </trkpt>
      <trkpt lat="46.47234" lon="-1.74601">
        <ele>53.430275</ele>
        <time>2022-12-18T15:29:50.659Z</time>
      </trkpt>
      <trkpt lat="46.47228" lon="-1.74589">
        <ele>53.406756</ele>
        <time>2022-12-18T15:29:53.649Z</time>
      </trkpt>
      <trkpt lat="46.47222" lon="-1.74576">
        <ele>53.382198</ele>
        <time>2022-12-18T15:29:56.627Z</time>
      </trkpt>
      <trkpt lat="46.47215" lon="-1.74563">
        <ele>53.356201</ele>
        <time>2022-12-18T15:29:59.662Z</time>
      </trkpt>
      <trkpt lat="46.47208" lon="-1.74549">
        <ele>53.327813</ele>
        <time>2022-12-18T15:30:02.649Z</time>
      </trkpt>
      <trkpt lat="46.47201" lon="-1.74534">
        <ele>53.298826</ele>
        <time>2022-12-18T15:30:05.659Z</time>
      </trkpt>
      <trkpt lat="46.47193" lon="-1.74519">
        <ele>53.263367</ele>
        <time>2022-12-18T15:30:08.660Z</time>
      </trkpt>
      <trkpt lat="46.47186" lon="-1.74505">
        <ele>53.221519</ele>
        <time>2022-12-18T15:30:11.661Z</time>
      </trkpt>
      <trkpt lat="46.4718" lon="-1.74492">
        <ele>53.183448</ele>
        <time>2022-12-18T15:30:14.641Z</time>
      </trkpt>
      <trkpt lat="46.47173" lon="-1.74479">
        <ele>53.144989</ele>
        <time>2022-12-18T15:30:17.654Z</time>
      </trkpt>
      <trkpt lat="46.47166" lon="-1.74466">
        <ele>53.103121</ele>
        <time>2022-12-18T15:30:20.658Z</time>
      </trkpt>
      <trkpt lat="46.47158" lon="-1.74452">
        <ele>53.060824</ele>
        <time>2022-12-18T15:30:23.640Z</time>
      </trkpt>
      <trkpt lat="46.47151" lon="-1.74438">
        <ele>53.018609</ele>
        <time>2022-12-18T15:30:26.662Z</time>
      </trkpt>
      <trkpt lat="46.47143" lon="-1.74425">
        <ele>52.977124</ele>
        <time>2022-12-18T15:30:29.657Z</time>
      </trkpt>
      <trkpt lat="46.47135" lon="-1.74413">
        <ele>52.936824</ele>
        <time>2022-12-18T15:30:32.657Z</time>
      </trkpt>
      <trkpt lat="46.47127" lon="-1.74399">
        <ele>52.893925</ele>
        <time>2022-12-18T15:30:35.664Z</time>
      </trkpt>
      <trkpt lat="46.47119" lon="-1.74386">
        <ele>52.850663</ele>
        <time>2022-12-18T15:30:38.654Z</time>
      </trkpt>
      <trkpt lat="46.47111" lon="-1.74373">
        <ele>52.810311</ele>
        <time>2022-12-18T15:30:41.661Z</time>
      </trkpt>
      <trkpt lat="46.47104" lon="-1.74361">
        <ele>52.771425</ele>
        <time>2022-12-18T15:30:44.653Z</time>
      </trkpt>
      <trkpt lat="46.47098" lon="-1.74351">
        <ele>52.738966</ele>
        <time>2022-12-18T15:30:47.652Z</time>
      </trkpt>
      <trkpt lat="46.4709" lon="-1.74338">
        <ele>52.697376</ele>
        <time>2022-12-18T15:30:51.661Z</time>
      </trkpt>
      <trkpt lat="46.47083" lon="-1.74327">
        <ele>52.662866</ele>
        <time>2022-12-18T15:30:54.647Z</time>
      </trkpt>
      <trkpt lat="46.47077" lon="-1.74317">
        <ele>52.658327</ele>
        <time>2022-12-18T15:30:57.645Z</time>
      </trkpt>
      <trkpt lat="46.4707" lon="-1.74306">
        <ele>52.66429</ele>
        <time>2022-12-18T15:31:00.654Z</time>
      </trkpt>
      <trkpt lat="46.47062" lon="-1.74295">
        <ele>52.670259</ele>
        <time>2022-12-18T15:31:03.669Z</time>
      </trkpt>
      <trkpt lat="46.47055" lon="-1.74284">
        <ele>52.676401</ele>
        <time>2022-12-18T15:31:06.651Z</time>
      </trkpt>
      <trkpt lat="46.47048" lon="-1.74274">
        <ele>52.682009</ele>
        <time>2022-12-18T15:31:09.644Z</time>
      </trkpt>
      <trkpt lat="46.47042" lon="-1.74265">
        <ele>52.68742</ele>
        <time>2022-12-18T15:31:12.634Z</time>
      </trkpt>
      <trkpt lat="46.47033" lon="-1.74253">
        <ele>52.694384</ele>
        <time>2022-12-18T15:31:16.658Z</time>
      </trkpt>
      <trkpt lat="46.47025" lon="-1.7424">
        <ele>52.701333</ele>
        <time>2022-12-18T15:31:20.660Z</time>
      </trkpt>
      <trkpt lat="46.47019" lon="-1.7423">
        <ele>52.706843</ele>
        <time>2022-12-18T15:31:23.644Z</time>
      </trkpt>
      <trkpt lat="46.47012" lon="-1.74221">
        <ele>52.712222</ele>
        <time>2022-12-18T15:31:26.647Z</time>
      </trkpt>
      <trkpt lat="46.47004" lon="-1.74213">
        <ele>52.717844</ele>
        <time>2022-12-18T15:31:29.660Z</time>
      </trkpt>
      <trkpt lat="46.46996" lon="-1.74205">
        <ele>52.723514</ele>
        <time>2022-12-18T15:31:32.656Z</time>
      </trkpt>
      <trkpt lat="46.46988" lon="-1.74198">
        <ele>52.729129</ele>
        <time>2022-12-18T15:31:35.656Z</time>
      </trkpt>
      <trkpt lat="46.46979" lon="-1.74192">
        <ele>52.734807</ele>
        <time>2022-12-18T15:31:38.658Z</time>
      </trkpt>
      <trkpt lat="46.46969" lon="-1.74187">
        <ele>52.740777</ele>
        <time>2022-12-18T15:31:41.658Z</time>
      </trkpt>
      <trkpt lat="46.4696" lon="-1.74182">
        <ele>52.746597</ele>
        <time>2022-12-18T15:31:44.654Z</time>
      </trkpt>
      <trkpt lat="46.4695" lon="-1.74177">
        <ele>52.752538</ele>
        <time>2022-12-18T15:31:47.662Z</time>
      </trkpt>
      <trkpt lat="46.46941" lon="-1.74172">
        <ele>52.758519</ele>
        <time>2022-12-18T15:31:50.659Z</time>
      </trkpt>
      <trkpt lat="46.46931" lon="-1.74166">
        <ele>52.782719</ele>
        <time>2022-12-18T15:31:53.650Z</time>
      </trkpt>
      <trkpt lat="46.4692" lon="-1.7416">
        <ele>52.809859</ele>
        <time>2022-12-18T15:31:56.650Z</time>
      </trkpt>
      <trkpt lat="46.4691" lon="-1.74152">
        <ele>52.836829</ele>
        <time>2022-12-18T15:31:59.633Z</time>
      </trkpt>
      <trkpt lat="46.46901" lon="-1.74144">
        <ele>52.863499</ele>
        <time>2022-12-18T15:32:02.656Z</time>
      </trkpt>
      <trkpt lat="46.46892" lon="-1.74135">
        <ele>52.889432</ele>
        <time>2022-12-18T15:32:05.661Z</time>
      </trkpt>
      <trkpt lat="46.46885" lon="-1.74125">
        <ele>52.912337</ele>
        <time>2022-12-18T15:32:08.662Z</time>
      </trkpt>
      <trkpt lat="46.46879" lon="-1.74115">
        <ele>52.935509</ele>
        <time>2022-12-18T15:32:12.657Z</time>
      </trkpt>
      <trkpt lat="46.46873" lon="-1.74103">
        <ele>52.960816</ele>
        <time>2022-12-18T15:32:16.663Z</time>
      </trkpt>
      <trkpt lat="46.46867" lon="-1.74088">
        <ele>52.988857</ele>
        <time>2022-12-18T15:32:20.630Z</time>
      </trkpt>
      <trkpt lat="46.46863" lon="-1.74075">
        <ele>53.01263</ele>
        <time>2022-12-18T15:32:23.635Z</time>
      </trkpt>
      <trkpt lat="46.46859" lon="-1.74062">
        <ele>53.03676</ele>
        <time>2022-12-18T15:32:26.659Z</time>
      </trkpt>
      <trkpt lat="46.46855" lon="-1.74048">
        <ele>53.060339</ele>
        <time>2022-12-18T15:32:29.654Z</time>
      </trkpt>
      <trkpt lat="46.46853" lon="-1.74034">
        <ele>53.084431</ele>
        <time>2022-12-18T15:32:32.642Z</time>
      </trkpt>
      <trkpt lat="46.46851" lon="-1.7402">
        <ele>53.108261</ele>
        <time>2022-12-18T15:32:35.660Z</time>
      </trkpt>
      <trkpt lat="46.4685" lon="-1.74006">
        <ele>53.132207</ele>
        <time>2022-12-18T15:32:38.645Z</time>
      </trkpt>
      <trkpt lat="46.46849" lon="-1.73991">
        <ele>53.15742</ele>
        <time>2022-12-18T15:32:41.661Z</time>
      </trkpt>
      <trkpt lat="46.46849" lon="-1.73977">
        <ele>53.180151</ele>
        <time>2022-12-18T15:32:44.661Z</time>
      </trkpt>
      <trkpt lat="46.46848" lon="-1.7396">
        <ele>53.039305</ele>
        <time>2022-12-18T15:32:48.661Z</time>
      </trkpt>
      <trkpt lat="46.46846" lon="-1.73947">
        <ele>52.840143</ele>
        <time>2022-12-18T15:32:51.659Z</time>
      </trkpt>
      <trkpt lat="46.46844" lon="-1.73934">
        <ele>52.630665</ele>
        <time>2022-12-18T15:32:54.656Z</time>
      </trkpt>
      <trkpt lat="46.46841" lon="-1.73919">
        <ele>52.391542</ele>
        <time>2022-12-18T15:32:57.660Z</time>
      </trkpt>
      <trkpt lat="46.46837" lon="-1.73904">
        <ele>52.146585</ele>
        <time>2022-12-18T15:33:00.658Z</time>
      </trkpt>
      <trkpt lat="46.46834" lon="-1.73889">
        <ele>51.912094</ele>
        <time>2022-12-18T15:33:03.658Z</time>
      </trkpt>
      <trkpt lat="46.46831" lon="-1.73874">
        <ele>51.674823</ele>
        <time>2022-12-18T15:33:06.661Z</time>
      </trkpt>
      <trkpt lat="46.46833" lon="-1.73857">
        <ele>51.421091</ele>
        <time>2022-12-18T15:33:09.661Z</time>
      </trkpt>
      <trkpt lat="46.46835" lon="-1.7384">
        <ele>51.146537</ele>
        <time>2022-12-18T15:33:12.660Z</time>
      </trkpt>
      <trkpt lat="46.46838" lon="-1.73821">
        <ele>50.853131</ele>
        <time>2022-12-18T15:33:15.663Z</time>
      </trkpt>
      <trkpt lat="46.46841" lon="-1.73808">
        <ele>50.641304</ele>
        <time>2022-12-18T15:33:17.661Z</time>
      </trkpt>
      <trkpt lat="46.46844" lon="-1.73794">
        <ele>50.411455</ele>
        <time>2022-12-18T15:33:19.661Z</time>
      </trkpt>
      <trkpt lat="46.46847" lon="-1.73779">
        <ele>50.174587</ele>
        <time>2022-12-18T15:33:21.655Z</time>
      </trkpt>
      <trkpt lat="46.46849" lon="-1.73763">
        <ele>49.932425</ele>
        <time>2022-12-18T15:33:23.639Z</time>
      </trkpt>
      <trkpt lat="46.46847" lon="-1.73747">
        <ele>49.681179</ele>
        <time>2022-12-18T15:33:25.652Z</time>
      </trkpt>
      <trkpt lat="46.46843" lon="-1.73732">
        <ele>49.437459</ele>
        <time>2022-12-18T15:33:27.655Z</time>
      </trkpt>
      <trkpt lat="46.46837" lon="-1.73717">
        <ele>49.213481</ele>
        <time>2022-12-18T15:33:29.660Z</time>
      </trkpt>
      <trkpt lat="46.46832" lon="-1.73705">
        <ele>49.314311</ele>
        <time>2022-12-18T15:33:31.657Z</time>
      </trkpt>
      <trkpt lat="46.46822" lon="-1.73695">
        <ele>49.436687</ele>
        <time>2022-12-18T15:33:34.631Z</time>
      </trkpt>
      <trkpt lat="46.46814" lon="-1.73689">
        <ele>49.529806</ele>
        <time>2022-12-18T15:33:37.658Z</time>
      </trkpt>
      <trkpt lat="46.46804" lon="-1.73685">
        <ele>49.638637</ele>
        <time>2022-12-18T15:33:41.635Z</time>
      </trkpt>
      <trkpt lat="46.46792" lon="-1.73685">
        <ele>49.761217</ele>
        <time>2022-12-18T15:33:45.658Z</time>
      </trkpt>
      <trkpt lat="46.4678" lon="-1.73685">
        <ele>49.875592</ele>
        <time>2022-12-18T15:33:49.663Z</time>
      </trkpt>
      <trkpt lat="46.46769" lon="-1.73685">
        <ele>49.990961</ele>
        <time>2022-12-18T15:33:53.637Z</time>
      </trkpt>
      <trkpt lat="46.46759" lon="-1.73682">
        <ele>50.097208</ele>
        <time>2022-12-18T15:33:58.664Z</time>
      </trkpt>
      <trkpt lat="46.4675" lon="-1.73675">
        <ele>50.198413</ele>
        <time>2022-12-18T15:34:03.636Z</time>
      </trkpt>
      <trkpt lat="46.46744" lon="-1.73666">
        <ele>50.29011</ele>
        <time>2022-12-18T15:34:07.661Z</time>
      </trkpt>
      <trkpt lat="46.46738" lon="-1.73656">
        <ele>50.383769</ele>
        <time>2022-12-18T15:34:11.661Z</time>
      </trkpt>
      <trkpt lat="46.4673" lon="-1.73645">
        <ele>50.492096</ele>
        <time>2022-12-18T15:34:16.656Z</time>
      </trkpt>
      <trkpt lat="46.46724" lon="-1.73636">
        <ele>50.585147</ele>
        <time>2022-12-18T15:34:20.662Z</time>
      </trkpt>
      <trkpt lat="46.46716" lon="-1.73624">
        <ele>50.699138</ele>
        <time>2022-12-18T15:34:25.659Z</time>
      </trkpt>
      <trkpt lat="46.46711" lon="-1.73613">
        <ele>50.794718</ele>
        <time>2022-12-18T15:34:29.662Z</time>
      </trkpt>
      <trkpt lat="46.46704" lon="-1.73602">
        <ele>50.896506</ele>
        <time>2022-12-18T15:34:33.661Z</time>
      </trkpt>
      <trkpt lat="46.46699" lon="-1.73591">
        <ele>50.990325</ele>
        <time>2022-12-18T15:34:37.654Z</time>
      </trkpt>
      <trkpt lat="46.46693" lon="-1.7358">
        <ele>51.109719</ele>
        <time>2022-12-18T15:34:41.659Z</time>
      </trkpt>
      <trkpt lat="46.46686" lon="-1.73568">
        <ele>51.256875</ele>
        <time>2022-12-18T15:34:45.656Z</time>
      </trkpt>
      <trkpt lat="46.4668" lon="-1.73556">
        <ele>51.400899</ele>
        <time>2022-12-18T15:34:49.649Z</time>
      </trkpt>
      <trkpt lat="46.46673" lon="-1.73543">
        <ele>51.566433</ele>
        <time>2022-12-18T15:34:53.662Z</time>
      </trkpt>
      <trkpt lat="46.46669" lon="-1.73531">
        <ele>51.693508</ele>
        <time>2022-12-18T15:34:56.636Z</time>
      </trkpt>
      <trkpt lat="46.46665" lon="-1.73516">
        <ele>51.85305</ele>
        <time>2022-12-18T15:35:00.660Z</time>
      </trkpt>
      <trkpt lat="46.46661" lon="-1.73501">
        <ele>52.008226</ele>
        <time>2022-12-18T15:35:04.657Z</time>
      </trkpt>
      <trkpt lat="46.46657" lon="-1.73485">
        <ele>52.169844</ele>
        <time>2022-12-18T15:35:08.640Z</time>
      </trkpt>
      <trkpt lat="46.46654" lon="-1.73469">
        <ele>52.328035</ele>
        <time>2022-12-18T15:35:12.631Z</time>
      </trkpt>
      <trkpt lat="46.46651" lon="-1.73454">
        <ele>52.483699</ele>
        <time>2022-12-18T15:35:17.656Z</time>
      </trkpt>
      <trkpt lat="46.46648" lon="-1.73439">
        <ele>52.633215</ele>
        <time>2022-12-18T15:35:22.660Z</time>
      </trkpt>
      <trkpt lat="46.46644" lon="-1.73423">
        <ele>52.803714</ele>
        <time>2022-12-18T15:35:26.662Z</time>
      </trkpt>
      <trkpt lat="46.46641" lon="-1.73409">
        <ele>52.946996</ele>
        <time>2022-12-18T15:35:29.659Z</time>
      </trkpt>
      <trkpt lat="46.46638" lon="-1.73396">
        <ele>53.080566</ele>
        <time>2022-12-18T15:35:32.650Z</time>
      </trkpt>
      <trkpt lat="46.46634" lon="-1.7338">
        <ele>53.241223</ele>
        <time>2022-12-18T15:35:36.659Z</time>
      </trkpt>
      <trkpt lat="46.46631" lon="-1.73363">
        <ele>53.410933</ele>
        <time>2022-12-18T15:35:40.659Z</time>
      </trkpt>
      <trkpt lat="46.46628" lon="-1.7335">
        <ele>53.544049</ele>
        <time>2022-12-18T15:35:43.659Z</time>
      </trkpt>
      <trkpt lat="46.46625" lon="-1.73336">
        <ele>53.493401</ele>
        <time>2022-12-18T15:35:46.659Z</time>
      </trkpt>
      <trkpt lat="46.46622" lon="-1.73322">
        <ele>53.387439</ele>
        <time>2022-12-18T15:35:49.658Z</time>
      </trkpt>
      <trkpt lat="46.46619" lon="-1.73308">
        <ele>53.282509</ele>
        <time>2022-12-18T15:35:52.657Z</time>
      </trkpt>
      <trkpt lat="46.46616" lon="-1.73294">
        <ele>53.178488</ele>
        <time>2022-12-18T15:35:55.653Z</time>
      </trkpt>
      <trkpt lat="46.46612" lon="-1.73281">
        <ele>53.077763</ele>
        <time>2022-12-18T15:35:58.660Z</time>
      </trkpt>
      <trkpt lat="46.46609" lon="-1.73266">
        <ele>52.961047</ele>
        <time>2022-12-18T15:36:02.658Z</time>
      </trkpt>
      <trkpt lat="46.46605" lon="-1.7325">
        <ele>52.843655</ele>
        <time>2022-12-18T15:36:06.639Z</time>
      </trkpt>
      <trkpt lat="46.46601" lon="-1.73234">
        <ele>52.720063</ele>
        <time>2022-12-18T15:36:10.652Z</time>
      </trkpt>
      <trkpt lat="46.46597" lon="-1.73222">
        <ele>52.623446</ele>
        <time>2022-12-18T15:36:13.657Z</time>
      </trkpt>
      <trkpt lat="46.46591" lon="-1.73207">
        <ele>52.502136</ele>
        <time>2022-12-18T15:36:17.659Z</time>
      </trkpt>
      <trkpt lat="46.46584" lon="-1.73198">
        <ele>52.408243</ele>
        <time>2022-12-18T15:36:20.654Z</time>
      </trkpt>
      <trkpt lat="46.46576" lon="-1.73193">
        <ele>52.314022</ele>
        <time>2022-12-18T15:36:23.639Z</time>
      </trkpt>
      <trkpt lat="46.46567" lon="-1.73189">
        <ele>52.220296</ele>
        <time>2022-12-18T15:36:26.658Z</time>
      </trkpt>
      <trkpt lat="46.46557" lon="-1.73185">
        <ele>52.113204</ele>
        <time>2022-12-18T15:36:29.659Z</time>
      </trkpt>
      <trkpt lat="46.46547" lon="-1.73181">
        <ele>51.998995</ele>
        <time>2022-12-18T15:36:32.659Z</time>
      </trkpt>
      <trkpt lat="46.46537" lon="-1.73174">
        <ele>51.888632</ele>
        <time>2022-12-18T15:36:35.661Z</time>
      </trkpt>
      <trkpt lat="46.46526" lon="-1.73169">
        <ele>51.770302</ele>
        <time>2022-12-18T15:36:38.652Z</time>
      </trkpt>
      <trkpt lat="46.46513" lon="-1.73164">
        <ele>51.801546</ele>
        <time>2022-12-18T15:36:41.659Z</time>
      </trkpt>
      <trkpt lat="46.46503" lon="-1.73162">
        <ele>51.923077</ele>
        <time>2022-12-18T15:36:43.661Z</time>
      </trkpt>
      <trkpt lat="46.46493" lon="-1.73159">
        <ele>52.043165</ele>
        <time>2022-12-18T15:36:45.634Z</time>
      </trkpt>
      <trkpt lat="46.46483" lon="-1.73156">
        <ele>52.160762</ele>
        <time>2022-12-18T15:36:47.660Z</time>
      </trkpt>
      <trkpt lat="46.46473" lon="-1.73151">
        <ele>52.280441</ele>
        <time>2022-12-18T15:36:49.657Z</time>
      </trkpt>
      <trkpt lat="46.46462" lon="-1.73141">
        <ele>52.432117</ele>
        <time>2022-12-18T15:36:52.659Z</time>
      </trkpt>
      <trkpt lat="46.46456" lon="-1.73127">
        <ele>52.565024</ele>
        <time>2022-12-18T15:36:55.654Z</time>
      </trkpt>
      <trkpt lat="46.46451" lon="-1.73113">
        <ele>52.69471</ele>
        <time>2022-12-18T15:36:59.659Z</time>
      </trkpt>
      <trkpt lat="46.46445" lon="-1.731">
        <ele>52.816917</ele>
        <time>2022-12-18T15:37:03.652Z</time>
      </trkpt>
      <trkpt lat="46.46441" lon="-1.73088">
        <ele>52.927334</ele>
        <time>2022-12-18T15:37:07.660Z</time>
      </trkpt>
      <trkpt lat="46.46433" lon="-1.73076">
        <ele>53.058879</ele>
        <time>2022-12-18T15:37:12.650Z</time>
      </trkpt>
      <trkpt lat="46.46427" lon="-1.73066">
        <ele>53.166433</ele>
        <time>2022-12-18T15:37:16.659Z</time>
      </trkpt>
      <trkpt lat="46.46423" lon="-1.73052">
        <ele>53.28911</ele>
        <time>2022-12-18T15:37:20.669Z</time>
      </trkpt>
      <trkpt lat="46.4642" lon="-1.73038">
        <ele>53.409962</ele>
        <time>2022-12-18T15:37:24.650Z</time>
      </trkpt>
      <trkpt lat="46.46417" lon="-1.73025">
        <ele>53.519581</ele>
        <time>2022-12-18T15:37:28.660Z</time>
      </trkpt>
      <trkpt lat="46.46414" lon="-1.73011">
        <ele>53.633204</ele>
        <time>2022-12-18T15:37:32.660Z</time>
      </trkpt>
      <trkpt lat="46.46411" lon="-1.72999">
        <ele>53.743511</ele>
        <time>2022-12-18T15:37:36.662Z</time>
      </trkpt>
      <trkpt lat="46.46408" lon="-1.72985">
        <ele>53.947843</ele>
        <time>2022-12-18T15:37:40.657Z</time>
      </trkpt>
      <trkpt lat="46.46406" lon="-1.72971">
        <ele>54.309071</ele>
        <time>2022-12-18T15:37:45.649Z</time>
      </trkpt>
      <trkpt lat="46.46403" lon="-1.72958">
        <ele>54.636996</ele>
        <time>2022-12-18T15:37:49.660Z</time>
      </trkpt>
      <trkpt lat="46.46399" lon="-1.72946">
        <ele>54.968285</ele>
        <time>2022-12-18T15:37:53.656Z</time>
      </trkpt>
      <trkpt lat="46.46397" lon="-1.72931">
        <ele>55.338846</ele>
        <time>2022-12-18T15:37:57.666Z</time>
      </trkpt>
      <trkpt lat="46.46393" lon="-1.72915">
        <ele>55.748735</ele>
        <time>2022-12-18T15:38:01.645Z</time>
      </trkpt>
      <trkpt lat="46.46391" lon="-1.72902">
        <ele>56.104859</ele>
        <time>2022-12-18T15:38:05.660Z</time>
      </trkpt>
      <trkpt lat="46.46388" lon="-1.72889">
        <ele>56.435633</ele>
        <time>2022-12-18T15:38:09.660Z</time>
      </trkpt>
      <trkpt lat="46.46384" lon="-1.72876">
        <ele>56.786305</ele>
        <time>2022-12-18T15:38:13.656Z</time>
      </trkpt>
      <trkpt lat="46.46381" lon="-1.72861">
        <ele>57.174673</ele>
        <time>2022-12-18T15:38:18.650Z</time>
      </trkpt>
      <trkpt lat="46.46378" lon="-1.72847">
        <ele>57.517948</ele>
        <time>2022-12-18T15:38:22.666Z</time>
      </trkpt>
      <trkpt lat="46.46376" lon="-1.72834">
        <ele>57.850768</ele>
        <time>2022-12-18T15:38:26.656Z</time>
      </trkpt>
      <trkpt lat="46.46374" lon="-1.7282">
        <ele>58.221261</ele>
        <time>2022-12-18T15:38:30.660Z</time>
      </trkpt>
      <trkpt lat="46.46373" lon="-1.72804">
        <ele>58.594595</ele>
        <time>2022-12-18T15:38:35.661Z</time>
      </trkpt>
      <trkpt lat="46.46373" lon="-1.72788">
        <ele>58.997073</ele>
        <time>2022-12-18T15:38:40.659Z</time>
      </trkpt>
      <trkpt lat="46.46374" lon="-1.72775">
        <ele>59.330167</ele>
        <time>2022-12-18T15:38:44.660Z</time>
      </trkpt>
      <trkpt lat="46.46375" lon="-1.72759">
        <ele>59.711136</ele>
        <time>2022-12-18T15:38:48.658Z</time>
      </trkpt>
      <trkpt lat="46.46377" lon="-1.72745">
        <ele>60.078968</ele>
        <time>2022-12-18T15:38:53.631Z</time>
      </trkpt>
      <trkpt lat="46.46378" lon="-1.72731">
        <ele>60.333747</ele>
        <time>2022-12-18T15:38:57.658Z</time>
      </trkpt>
      <trkpt lat="46.46378" lon="-1.72716">
        <ele>60.507319</ele>
        <time>2022-12-18T15:39:02.659Z</time>
      </trkpt>
      <trkpt lat="46.4638" lon="-1.727">
        <ele>60.68081</ele>
        <time>2022-12-18T15:39:06.660Z</time>
      </trkpt>
      <trkpt lat="46.46382" lon="-1.72684">
        <ele>60.866235</ele>
        <time>2022-12-18T15:39:10.658Z</time>
      </trkpt>
      <trkpt lat="46.46383" lon="-1.72668">
        <ele>61.0513</ele>
        <time>2022-12-18T15:39:14.658Z</time>
      </trkpt>
      <trkpt lat="46.46383" lon="-1.72653">
        <ele>61.221549</ele>
        <time>2022-12-18T15:39:17.662Z</time>
      </trkpt>
      <trkpt lat="46.46381" lon="-1.72637">
        <ele>61.401677</ele>
        <time>2022-12-18T15:39:21.652Z</time>
      </trkpt>
      <trkpt lat="46.46378" lon="-1.72622">
        <ele>61.579621</ele>
        <time>2022-12-18T15:39:25.657Z</time>
      </trkpt>
      <trkpt lat="46.46376" lon="-1.72607">
        <ele>61.755087</ele>
        <time>2022-12-18T15:39:28.659Z</time>
      </trkpt>
      <trkpt lat="46.46376" lon="-1.72591">
        <ele>61.92859</ele>
        <time>2022-12-18T15:39:31.660Z</time>
      </trkpt>
      <trkpt lat="46.46375" lon="-1.72578">
        <ele>62.077273</ele>
        <time>2022-12-18T15:39:34.634Z</time>
      </trkpt>
      <trkpt lat="46.46374" lon="-1.72562">
        <ele>62.263665</ele>
        <time>2022-12-18T15:39:38.658Z</time>
      </trkpt>
      <trkpt lat="46.46372" lon="-1.72548">
        <ele>62.415504</ele>
        <time>2022-12-18T15:39:41.658Z</time>
      </trkpt>
      <trkpt lat="46.4637" lon="-1.72531">
        <ele>62.611199</ele>
        <time>2022-12-18T15:39:45.660Z</time>
      </trkpt>
      <trkpt lat="46.46369" lon="-1.72517">
        <ele>62.775281</ele>
        <time>2022-12-18T15:39:48.639Z</time>
      </trkpt>
      <trkpt lat="46.46367" lon="-1.72503">
        <ele>62.931625</ele>
        <time>2022-12-18T15:39:51.659Z</time>
      </trkpt>
      <trkpt lat="46.46365" lon="-1.72489">
        <ele>63.092623</ele>
        <time>2022-12-18T15:39:54.657Z</time>
      </trkpt>
      <trkpt lat="46.46365" lon="-1.72474">
        <ele>63.162448</ele>
        <time>2022-12-18T15:39:57.657Z</time>
      </trkpt>
      <trkpt lat="46.46364" lon="-1.72461">
        <ele>63.059168</ele>
        <time>2022-12-18T15:40:00.657Z</time>
      </trkpt>
      <trkpt lat="46.46363" lon="-1.72447">
        <ele>62.954407</ele>
        <time>2022-12-18T15:40:03.659Z</time>
      </trkpt>
      <trkpt lat="46.46363" lon="-1.7243">
        <ele>62.825803</ele>
        <time>2022-12-18T15:40:06.657Z</time>
      </trkpt>
      <trkpt lat="46.46362" lon="-1.72414">
        <ele>62.697807</ele>
        <time>2022-12-18T15:40:09.658Z</time>
      </trkpt>
      <trkpt lat="46.46361" lon="-1.72398">
        <ele>62.575024</ele>
        <time>2022-12-18T15:40:12.638Z</time>
      </trkpt>
      <trkpt lat="46.4636" lon="-1.72382">
        <ele>62.453949</ele>
        <time>2022-12-18T15:40:15.639Z</time>
      </trkpt>
      <trkpt lat="46.46358" lon="-1.72369">
        <ele>62.347765</ele>
        <time>2022-12-18T15:40:18.654Z</time>
      </trkpt>
      <trkpt lat="46.46357" lon="-1.72354">
        <ele>62.23644</ele>
        <time>2022-12-18T15:40:21.660Z</time>
      </trkpt>
      <trkpt lat="46.46356" lon="-1.7234">
        <ele>62.125412</ele>
        <time>2022-12-18T15:40:24.660Z</time>
      </trkpt>
      <trkpt lat="46.46354" lon="-1.72323">
        <ele>61.990919</ele>
        <time>2022-12-18T15:40:28.659Z</time>
      </trkpt>
      <trkpt lat="46.46351" lon="-1.7231">
        <ele>61.881523</ele>
        <time>2022-12-18T15:40:31.659Z</time>
      </trkpt>
      <trkpt lat="46.46347" lon="-1.72294">
        <ele>61.755271</ele>
        <time>2022-12-18T15:40:34.645Z</time>
      </trkpt>
      <trkpt lat="46.46343" lon="-1.72278">
        <ele>61.622065</ele>
        <time>2022-12-18T15:40:37.661Z</time>
      </trkpt>
      <trkpt lat="46.4634" lon="-1.72262">
        <ele>61.49794</ele>
        <time>2022-12-18T15:40:40.635Z</time>
      </trkpt>
      <trkpt lat="46.46336" lon="-1.72246">
        <ele>61.363317</ele>
        <time>2022-12-18T15:40:43.662Z</time>
      </trkpt>
      <trkpt lat="46.46333" lon="-1.72231">
        <ele>61.245194</ele>
        <time>2022-12-18T15:40:46.663Z</time>
      </trkpt>
      <trkpt lat="46.4633" lon="-1.72214">
        <ele>60.799962</ele>
        <time>2022-12-18T15:40:50.659Z</time>
      </trkpt>
      <trkpt lat="46.46328" lon="-1.72199">
        <ele>60.25616</ele>
        <time>2022-12-18T15:40:53.663Z</time>
      </trkpt>
      <trkpt lat="46.46325" lon="-1.7218">
        <ele>59.572486</ele>
        <time>2022-12-18T15:40:56.662Z</time>
      </trkpt>
      <trkpt lat="46.46322" lon="-1.72162">
        <ele>58.897081</ele>
        <time>2022-12-18T15:40:59.659Z</time>
      </trkpt>
      <trkpt lat="46.46319" lon="-1.72148">
        <ele>58.353133</ele>
        <time>2022-12-18T15:41:02.660Z</time>
      </trkpt>
      <trkpt lat="46.46316" lon="-1.72133">
        <ele>57.796731</ele>
        <time>2022-12-18T15:41:06.659Z</time>
      </trkpt>
      <trkpt lat="46.46312" lon="-1.7212">
        <ele>57.310219</ele>
        <time>2022-12-18T15:41:09.658Z</time>
      </trkpt>
      <trkpt lat="46.46309" lon="-1.72106">
        <ele>56.78649</ele>
        <time>2022-12-18T15:41:13.658Z</time>
      </trkpt>
      <trkpt lat="46.46305" lon="-1.72093">
        <ele>56.276178</ele>
        <time>2022-12-18T15:41:17.660Z</time>
      </trkpt>
      <trkpt lat="46.46302" lon="-1.7208">
        <ele>55.7687</ele>
        <time>2022-12-18T15:41:20.660Z</time>
      </trkpt>
      <trkpt lat="46.46297" lon="-1.72067">
        <ele>55.263167</ele>
        <time>2022-12-18T15:41:23.639Z</time>
      </trkpt>
      <trkpt lat="46.46293" lon="-1.72055">
        <ele>54.755202</ele>
        <time>2022-12-18T15:41:26.659Z</time>
      </trkpt>
      <trkpt lat="46.46286" lon="-1.72043">
        <ele>54.232115</ele>
        <time>2022-12-18T15:41:30.634Z</time>
      </trkpt>
      <trkpt lat="46.46281" lon="-1.72031">
        <ele>53.700796</ele>
        <time>2022-12-18T15:41:33.652Z</time>
      </trkpt>
      <trkpt lat="46.46275" lon="-1.72018">
        <ele>53.151227</ele>
        <time>2022-12-18T15:41:36.640Z</time>
      </trkpt>
      <trkpt lat="46.46269" lon="-1.72006">
        <ele>52.611051</ele>
        <time>2022-12-18T15:41:39.660Z</time>
      </trkpt>
      <trkpt lat="46.46264" lon="-1.71993">
        <ele>52.085227</ele>
        <time>2022-12-18T15:41:42.658Z</time>
      </trkpt>
      <trkpt lat="46.46258" lon="-1.7198">
        <ele>51.900044</ele>
        <time>2022-12-18T15:41:46.653Z</time>
      </trkpt>
      <trkpt lat="46.46252" lon="-1.7197">
        <ele>51.995314</ele>
        <time>2022-12-18T15:41:50.658Z</time>
      </trkpt>
      <trkpt lat="46.46245" lon="-1.71956">
        <ele>52.112375</ele>
        <time>2022-12-18T15:41:54.657Z</time>
      </trkpt>
      <trkpt lat="46.4624" lon="-1.71941">
        <ele>52.229279</ele>
        <time>2022-12-18T15:41:57.660Z</time>
      </trkpt>
      <trkpt lat="46.46236" lon="-1.7193">
        <ele>52.326154</ele>
        <time>2022-12-18T15:42:00.660Z</time>
      </trkpt>
      <trkpt lat="46.46229" lon="-1.7192">
        <ele>52.423872</ele>
        <time>2022-12-18T15:42:04.659Z</time>
      </trkpt>
      <trkpt lat="46.46222" lon="-1.71908">
        <ele>52.532943</ele>
        <time>2022-12-18T15:42:08.660Z</time>
      </trkpt>
      <trkpt lat="46.46215" lon="-1.71898">
        <ele>52.638471</ele>
        <time>2022-12-18T15:42:11.653Z</time>
      </trkpt>
      <trkpt lat="46.46206" lon="-1.71884">
        <ele>52.773535</ele>
        <time>2022-12-18T15:42:14.657Z</time>
      </trkpt>
      <trkpt lat="46.46199" lon="-1.71874">
        <ele>52.874634</ele>
        <time>2022-12-18T15:42:17.662Z</time>
      </trkpt>
      <trkpt lat="46.46191" lon="-1.71864">
        <ele>52.977221</ele>
        <time>2022-12-18T15:42:20.663Z</time>
      </trkpt>
      <trkpt lat="46.46182" lon="-1.71854">
        <ele>53.10128</ele>
        <time>2022-12-18T15:42:23.647Z</time>
      </trkpt>
      <trkpt lat="46.46173" lon="-1.71842">
        <ele>53.224051</ele>
        <time>2022-12-18T15:42:26.657Z</time>
      </trkpt>
      <trkpt lat="46.46165" lon="-1.71835">
        <ele>53.31904</ele>
        <time>2022-12-18T15:42:29.652Z</time>
      </trkpt>
      <trkpt lat="46.46155" lon="-1.71825">
        <ele>53.442633</ele>
        <time>2022-12-18T15:42:33.638Z</time>
      </trkpt>
      <trkpt lat="46.46148" lon="-1.71816">
        <ele>53.539513</ele>
        <time>2022-12-18T15:42:36.658Z</time>
      </trkpt>
      <trkpt lat="46.4614" lon="-1.71807">
        <ele>53.650157</ele>
        <time>2022-12-18T15:42:40.656Z</time>
      </trkpt>
      <trkpt lat="46.46131" lon="-1.718">
        <ele>53.614914</ele>
        <time>2022-12-18T15:42:44.635Z</time>
      </trkpt>
      <trkpt lat="46.46123" lon="-1.71791">
        <ele>53.488977</ele>
        <time>2022-12-18T15:42:49.635Z</time>
      </trkpt>
      <trkpt lat="46.46116" lon="-1.71781">
        <ele>53.365453</ele>
        <time>2022-12-18T15:42:53.654Z</time>
      </trkpt>
      <trkpt lat="46.46108" lon="-1.71769">
        <ele>53.220737</ele>
        <time>2022-12-18T15:42:57.645Z</time>
      </trkpt>
      <trkpt lat="46.46098" lon="-1.71762">
        <ele>53.073587</ele>
        <time>2022-12-18T15:43:01.649Z</time>
      </trkpt>
      <trkpt lat="46.46092" lon="-1.71752">
        <ele>52.958286</ele>
        <time>2022-12-18T15:43:03.656Z</time>
      </trkpt>
      <trkpt lat="46.46086" lon="-1.71741">
        <ele>52.838952</ele>
        <time>2022-12-18T15:43:05.661Z</time>
      </trkpt>
      <trkpt lat="46.4608" lon="-1.7173">
        <ele>52.722053</ele>
        <time>2022-12-18T15:43:07.659Z</time>
      </trkpt>
      <trkpt lat="46.46072" lon="-1.71716">
        <ele>52.555747</ele>
        <time>2022-12-18T15:43:10.658Z</time>
      </trkpt>
      <trkpt lat="46.46061" lon="-1.71703">
        <ele>52.380696</ele>
        <time>2022-12-18T15:43:13.661Z</time>
      </trkpt>
      <trkpt lat="46.46054" lon="-1.71693">
        <ele>52.253233</ele>
        <time>2022-12-18T15:43:15.659Z</time>
      </trkpt>
      <trkpt lat="46.46044" lon="-1.7168">
        <ele>52.089868</ele>
        <time>2022-12-18T15:43:17.659Z</time>
      </trkpt>
      <trkpt lat="46.46035" lon="-1.71668">
        <ele>51.935998</ele>
        <time>2022-12-18T15:43:19.637Z</time>
      </trkpt>
      <trkpt lat="46.46027" lon="-1.71656">
        <ele>51.784312</ele>
        <time>2022-12-18T15:43:21.656Z</time>
      </trkpt>
      <trkpt lat="46.46018" lon="-1.71647">
        <ele>51.646178</ele>
        <time>2022-12-18T15:43:23.637Z</time>
      </trkpt>
      <trkpt lat="46.46009" lon="-1.71637">
        <ele>51.50581</ele>
        <time>2022-12-18T15:43:25.656Z</time>
      </trkpt>
      <trkpt lat="46.46001" lon="-1.71625">
        <ele>51.299829</ele>
        <time>2022-12-18T15:43:27.656Z</time>
      </trkpt>
      <trkpt lat="46.45993" lon="-1.71612">
        <ele>50.989197</ele>
        <time>2022-12-18T15:43:29.655Z</time>
      </trkpt>
      <trkpt lat="46.45986" lon="-1.716">
        <ele>50.69145</ele>
        <time>2022-12-18T15:43:31.655Z</time>
      </trkpt>
      <trkpt lat="46.4598" lon="-1.71587">
        <ele>50.403388</ele>
        <time>2022-12-18T15:43:33.659Z</time>
      </trkpt>
      <trkpt lat="46.45974" lon="-1.71574">
        <ele>50.116603</ele>
        <time>2022-12-18T15:43:35.662Z</time>
      </trkpt>
      <trkpt lat="46.45967" lon="-1.71562">
        <ele>49.841961</ele>
        <time>2022-12-18T15:43:37.658Z</time>
      </trkpt>
      <trkpt lat="46.45961" lon="-1.71551">
        <ele>49.591722</ele>
        <time>2022-12-18T15:43:39.660Z</time>
      </trkpt>
      <trkpt lat="46.45955" lon="-1.7154">
        <ele>49.33303</ele>
        <time>2022-12-18T15:43:41.659Z</time>
      </trkpt>
      <trkpt lat="46.45947" lon="-1.71526">
        <ele>48.996159</ele>
        <time>2022-12-18T15:43:44.655Z</time>
      </trkpt>
      <trkpt lat="46.45938" lon="-1.71514">
        <ele>48.676845</ele>
        <time>2022-12-18T15:43:47.664Z</time>
      </trkpt>
      <trkpt lat="46.45931" lon="-1.71504">
        <ele>48.4227</ele>
        <time>2022-12-18T15:43:49.658Z</time>
      </trkpt>
      <trkpt lat="46.45925" lon="-1.71493">
        <ele>48.164007</ele>
        <time>2022-12-18T15:43:51.663Z</time>
      </trkpt>
      <trkpt lat="46.4592" lon="-1.71478">
        <ele>47.856034</ele>
        <time>2022-12-18T15:43:53.662Z</time>
      </trkpt>
      <trkpt lat="46.45915" lon="-1.71461">
        <ele>47.513204</ele>
        <time>2022-12-18T15:43:55.646Z</time>
      </trkpt>
      <trkpt lat="46.4591" lon="-1.71441">
        <ele>47.124763</ele>
        <time>2022-12-18T15:43:57.661Z</time>
      </trkpt>
      <trkpt lat="46.45904" lon="-1.7142">
        <ele>46.715946</ele>
        <time>2022-12-18T15:43:59.660Z</time>
      </trkpt>
      <trkpt lat="46.45896" lon="-1.71403">
        <ele>46.872656</ele>
        <time>2022-12-18T15:44:01.661Z</time>
      </trkpt>
      <trkpt lat="46.45887" lon="-1.71392">
        <ele>47.083958</ele>
        <time>2022-12-18T15:44:03.655Z</time>
      </trkpt>
      <trkpt lat="46.45877" lon="-1.71384">
        <ele>47.282061</ele>
        <time>2022-12-18T15:44:05.662Z</time>
      </trkpt>
      <trkpt lat="46.45867" lon="-1.71378">
        <ele>47.459068</ele>
        <time>2022-12-18T15:44:07.659Z</time>
      </trkpt>
      <trkpt lat="46.45855" lon="-1.71372">
        <ele>47.69804</ele>
        <time>2022-12-18T15:44:10.661Z</time>
      </trkpt>
      <trkpt lat="46.45844" lon="-1.71366">
        <ele>47.895522</ele>
        <time>2022-12-18T15:44:13.655Z</time>
      </trkpt>
      <trkpt lat="46.45835" lon="-1.71362">
        <ele>48.062273</ele>
        <time>2022-12-18T15:44:16.649Z</time>
      </trkpt>
      <trkpt lat="46.45825" lon="-1.71357">
        <ele>48.246475</ele>
        <time>2022-12-18T15:44:20.658Z</time>
      </trkpt>
      <trkpt lat="46.45815" lon="-1.71352">
        <ele>48.430319</ele>
        <time>2022-12-18T15:44:25.660Z</time>
      </trkpt>
      <trkpt lat="46.45805" lon="-1.71345">
        <ele>48.626189</ele>
        <time>2022-12-18T15:44:30.662Z</time>
      </trkpt>
      <trkpt lat="46.45795" lon="-1.71338">
        <ele>48.81508</ele>
        <time>2022-12-18T15:44:35.661Z</time>
      </trkpt>
      <trkpt lat="46.45788" lon="-1.71331">
        <ele>48.97408</ele>
        <time>2022-12-18T15:44:40.639Z</time>
      </trkpt>
      <trkpt lat="46.45779" lon="-1.71322">
        <ele>49.150565</ele>
        <time>2022-12-18T15:44:45.652Z</time>
      </trkpt>
      <trkpt lat="46.45772" lon="-1.71315">
        <ele>49.31072</ele>
        <time>2022-12-18T15:44:50.659Z</time>
      </trkpt>
      <trkpt lat="46.45763" lon="-1.71308">
        <ele>49.486176</ele>
        <time>2022-12-18T15:44:56.650Z</time>
      </trkpt>
      <trkpt lat="46.45754" lon="-1.71301">
        <ele>49.659634</ele>
        <time>2022-12-18T15:45:02.663Z</time>
      </trkpt>
      <trkpt lat="46.45746" lon="-1.71292">
        <ele>49.83219</ele>
        <time>2022-12-18T15:45:08.636Z</time>
      </trkpt>
      <trkpt lat="46.45738" lon="-1.71285">
        <ele>49.93932</ele>
        <time>2022-12-18T15:45:13.658Z</time>
      </trkpt>
      <trkpt lat="46.45728" lon="-1.71276">
        <ele>50.068963</ele>
        <time>2022-12-18T15:45:18.650Z</time>
      </trkpt>
      <trkpt lat="46.45719" lon="-1.71268">
        <ele>50.185907</ele>
        <time>2022-12-18T15:45:22.655Z</time>
      </trkpt>
      <trkpt lat="46.4571" lon="-1.7126">
        <ele>50.313889</ele>
        <time>2022-12-18T15:45:26.660Z</time>
      </trkpt>
      <trkpt lat="46.457" lon="-1.71251">
        <ele>50.446983</ele>
        <time>2022-12-18T15:45:30.659Z</time>
      </trkpt>
      <trkpt lat="46.4569" lon="-1.71242">
        <ele>50.575534</ele>
        <time>2022-12-18T15:45:34.651Z</time>
      </trkpt>
      <trkpt lat="46.45682" lon="-1.71236">
        <ele>50.680263</ele>
        <time>2022-12-18T15:45:37.652Z</time>
      </trkpt>
      <trkpt lat="46.45672" lon="-1.71228">
        <ele>50.816337</ele>
        <time>2022-12-18T15:45:41.658Z</time>
      </trkpt>
      <trkpt lat="46.45663" lon="-1.71223">
        <ele>50.922832</ele>
        <time>2022-12-18T15:45:44.664Z</time>
      </trkpt>
      <trkpt lat="46.45654" lon="-1.71217">
        <ele>51.029168</ele>
        <time>2022-12-18T15:45:47.657Z</time>
      </trkpt>
      <trkpt lat="46.45645" lon="-1.71212">
        <ele>51.140189</ele>
        <time>2022-12-18T15:45:50.664Z</time>
      </trkpt>
      <trkpt lat="46.45636" lon="-1.71208">
        <ele>51.245867</ele>
        <time>2022-12-18T15:45:53.659Z</time>
      </trkpt>
      <trkpt lat="46.45625" lon="-1.71204">
        <ele>51.37935</ele>
        <time>2022-12-18T15:45:57.657Z</time>
      </trkpt>
      <trkpt lat="46.45614" lon="-1.712">
        <ele>51.502704</ele>
        <time>2022-12-18T15:46:01.661Z</time>
      </trkpt>
      <trkpt lat="46.45604" lon="-1.71205">
        <ele>51.630804</ele>
        <time>2022-12-18T15:46:06.660Z</time>
      </trkpt>
      <trkpt lat="46.45594" lon="-1.71205">
        <ele>51.736793</ele>
        <time>2022-12-18T15:46:09.662Z</time>
      </trkpt>
      <trkpt lat="46.45584" lon="-1.71203">
        <ele>51.848433</ele>
        <time>2022-12-18T15:46:12.659Z</time>
      </trkpt>
      <trkpt lat="46.45573" lon="-1.71201">
        <ele>51.700838</ele>
        <time>2022-12-18T15:46:15.646Z</time>
      </trkpt>
      <trkpt lat="46.45562" lon="-1.71199">
        <ele>51.55176</ele>
        <time>2022-12-18T15:46:18.660Z</time>
      </trkpt>
      <trkpt lat="46.45552" lon="-1.71194">
        <ele>51.411693</ele>
        <time>2022-12-18T15:46:21.656Z</time>
      </trkpt>
      <trkpt lat="46.45542" lon="-1.71187">
        <ele>51.249517</ele>
        <time>2022-12-18T15:46:25.661Z</time>
      </trkpt>
      <trkpt lat="46.45531" lon="-1.71186">
        <ele>51.105543</ele>
        <time>2022-12-18T15:46:28.668Z</time>
      </trkpt>
      <trkpt lat="46.45519" lon="-1.71183">
        <ele>50.93725</ele>
        <time>2022-12-18T15:46:31.635Z</time>
      </trkpt>
      <trkpt lat="46.45507" lon="-1.7118">
        <ele>50.772802</ele>
        <time>2022-12-18T15:46:34.661Z</time>
      </trkpt>
      <trkpt lat="46.45496" lon="-1.71177">
        <ele>50.616553</ele>
        <time>2022-12-18T15:46:37.667Z</time>
      </trkpt>
      <trkpt lat="46.45486" lon="-1.71176">
        <ele>50.483394</ele>
        <time>2022-12-18T15:46:40.658Z</time>
      </trkpt>
      <trkpt lat="46.45472" lon="-1.71169">
        <ele>50.275386</ele>
        <time>2022-12-18T15:47:36.643Z</time>
      </trkpt>
      <trkpt lat="46.45461" lon="-1.71164">
        <ele>50.127594</ele>
        <time>2022-12-18T15:47:43.656Z</time>
      </trkpt>
      <trkpt lat="46.45451" lon="-1.71158">
        <ele>49.972742</ele>
        <time>2022-12-18T15:47:47.655Z</time>
      </trkpt>
      <trkpt lat="46.45442" lon="-1.71152">
        <ele>49.841267</ele>
        <time>2022-12-18T15:47:50.661Z</time>
      </trkpt>
      <trkpt lat="46.45434" lon="-1.71143">
        <ele>49.704615</ele>
        <time>2022-12-18T15:47:53.656Z</time>
      </trkpt>
      <trkpt lat="46.45426" lon="-1.71133">
        <ele>49.556165</ele>
        <time>2022-12-18T15:47:56.657Z</time>
      </trkpt>
      <trkpt lat="46.45419" lon="-1.71121">
        <ele>49.404278</ele>
        <time>2022-12-18T15:47:59.661Z</time>
      </trkpt>
      <trkpt lat="46.45411" lon="-1.71108">
        <ele>49.605753</ele>
        <time>2022-12-18T15:48:02.660Z</time>
      </trkpt>
      <trkpt lat="46.45403" lon="-1.71093">
        <ele>49.845324</ele>
        <time>2022-12-18T15:48:05.662Z</time>
      </trkpt>
      <trkpt lat="46.45397" lon="-1.71082">
        <ele>50.019465</ele>
        <time>2022-12-18T15:48:07.654Z</time>
      </trkpt>
      <trkpt lat="46.4539" lon="-1.71072">
        <ele>50.197371</ele>
        <time>2022-12-18T15:48:09.663Z</time>
      </trkpt>
      <trkpt lat="46.45383" lon="-1.71062">
        <ele>50.38082</ele>
        <time>2022-12-18T15:48:11.661Z</time>
      </trkpt>
      <trkpt lat="46.45374" lon="-1.7105">
        <ele>50.592508</ele>
        <time>2022-12-18T15:48:14.661Z</time>
      </trkpt>
      <trkpt lat="46.45366" lon="-1.71042">
        <ele>50.776413</ele>
        <time>2022-12-18T15:48:17.658Z</time>
      </trkpt>
      <trkpt lat="46.45359" lon="-1.71033">
        <ele>50.957411</ele>
        <time>2022-12-18T15:48:20.659Z</time>
      </trkpt>
      <trkpt lat="46.4535" lon="-1.71023">
        <ele>51.159175</ele>
        <time>2022-12-18T15:48:24.659Z</time>
      </trkpt>
      <trkpt lat="46.45344" lon="-1.71011">
        <ele>51.347609</ele>
        <time>2022-12-18T15:48:28.659Z</time>
      </trkpt>
      <trkpt lat="46.45339" lon="-1.70996">
        <ele>51.550353</ele>
        <time>2022-12-18T15:48:32.655Z</time>
      </trkpt>
      <trkpt lat="46.45336" lon="-1.70982">
        <ele>51.742863</ele>
        <time>2022-12-18T15:48:36.659Z</time>
      </trkpt>
      <trkpt lat="46.45334" lon="-1.70967">
        <ele>51.930764</ele>
        <time>2022-12-18T15:48:40.662Z</time>
      </trkpt>
      <trkpt lat="46.45331" lon="-1.70951">
        <ele>52.139493</ele>
        <time>2022-12-18T15:48:44.661Z</time>
      </trkpt>
      <trkpt lat="46.45329" lon="-1.70937">
        <ele>52.327754</ele>
        <time>2022-12-18T15:48:48.658Z</time>
      </trkpt>
      <trkpt lat="46.45326" lon="-1.70922">
        <ele>52.523696</ele>
        <time>2022-12-18T15:48:53.670Z</time>
      </trkpt>
      <trkpt lat="46.45324" lon="-1.70907">
        <ele>52.683549</ele>
        <time>2022-12-18T15:48:57.661Z</time>
      </trkpt>
      <trkpt lat="46.45321" lon="-1.70892">
        <ele>52.596815</ele>
        <time>2022-12-18T15:49:01.663Z</time>
      </trkpt>
      <trkpt lat="46.45319" lon="-1.70878">
        <ele>52.512521</ele>
        <time>2022-12-18T15:49:05.661Z</time>
      </trkpt>
      <trkpt lat="46.45317" lon="-1.70862">
        <ele>52.42207</ele>
        <time>2022-12-18T15:49:09.660Z</time>
      </trkpt>
      <trkpt lat="46.45314" lon="-1.70847">
        <ele>52.331517</ele>
        <time>2022-12-18T15:49:13.638Z</time>
      </trkpt>
      <trkpt lat="46.45312" lon="-1.70834">
        <ele>52.257526</ele>
        <time>2022-12-18T15:49:16.642Z</time>
      </trkpt>
      <trkpt lat="46.4531" lon="-1.70821">
        <ele>52.182699</ele>
        <time>2022-12-18T15:49:19.661Z</time>
      </trkpt>
      <trkpt lat="46.45307" lon="-1.70808">
        <ele>52.105287</ele>
        <time>2022-12-18T15:49:22.653Z</time>
      </trkpt>
      <trkpt lat="46.45304" lon="-1.70795">
        <ele>52.027888</ele>
        <time>2022-12-18T15:49:25.662Z</time>
      </trkpt>
      <trkpt lat="46.45301" lon="-1.70782">
        <ele>51.950756</ele>
        <time>2022-12-18T15:49:28.657Z</time>
      </trkpt>
      <trkpt lat="46.45298" lon="-1.70765">
        <ele>51.849488</ele>
        <time>2022-12-18T15:49:32.659Z</time>
      </trkpt>
      <trkpt lat="46.45295" lon="-1.70751">
        <ele>51.767006</ele>
        <time>2022-12-18T15:49:35.648Z</time>
      </trkpt>
      <trkpt lat="46.45293" lon="-1.70737">
        <ele>51.682124</ele>
        <time>2022-12-18T15:49:38.660Z</time>
      </trkpt>
      <trkpt lat="46.4529" lon="-1.70724">
        <ele>51.604725</ele>
        <time>2022-12-18T15:49:41.661Z</time>
      </trkpt>
      <trkpt lat="46.45286" lon="-1.70707">
        <ele>51.504552</ele>
        <time>2022-12-18T15:49:44.662Z</time>
      </trkpt>
      <trkpt lat="46.45283" lon="-1.70693">
        <ele>51.421262</ele>
        <time>2022-12-18T15:49:47.666Z</time>
      </trkpt>
      <trkpt lat="46.4528" lon="-1.70677">
        <ele>51.326557</ele>
        <time>2022-12-18T15:49:50.653Z</time>
      </trkpt>
      <trkpt lat="46.45278" lon="-1.70661">
        <ele>51.234516</ele>
        <time>2022-12-18T15:49:53.660Z</time>
      </trkpt>
      <trkpt lat="46.45276" lon="-1.70643">
        <ele>51.386417</ele>
        <time>2022-12-18T15:49:57.661Z</time>
      </trkpt>
      <trkpt lat="46.45274" lon="-1.70627">
        <ele>51.593856</ele>
        <time>2022-12-18T15:50:00.664Z</time>
      </trkpt>
      <trkpt lat="46.45272" lon="-1.70609">
        <ele>51.820294</ele>
        <time>2022-12-18T15:50:03.656Z</time>
      </trkpt>
      <trkpt lat="46.4527" lon="-1.70593">
        <ele>52.025752</ele>
        <time>2022-12-18T15:50:06.660Z</time>
      </trkpt>
      <trkpt lat="46.45268" lon="-1.70578">
        <ele>52.227789</ele>
        <time>2022-12-18T15:50:09.664Z</time>
      </trkpt>
      <trkpt lat="46.45265" lon="-1.70562">
        <ele>52.432828</ele>
        <time>2022-12-18T15:50:12.660Z</time>
      </trkpt>
      <trkpt lat="46.45262" lon="-1.70546">
        <ele>52.642243</ele>
        <time>2022-12-18T15:50:15.647Z</time>
      </trkpt>
      <trkpt lat="46.45261" lon="-1.70532">
        <ele>52.823133</ele>
        <time>2022-12-18T15:50:18.636Z</time>
      </trkpt>
      <trkpt lat="46.45257" lon="-1.70518">
        <ele>52.999649</ele>
        <time>2022-12-18T15:50:21.660Z</time>
      </trkpt>
      <trkpt lat="46.45254" lon="-1.70506">
        <ele>53.170551</ele>
        <time>2022-12-18T15:50:24.656Z</time>
      </trkpt>
      <trkpt lat="46.45251" lon="-1.70493">
        <ele>53.339104</ele>
        <time>2022-12-18T15:50:27.642Z</time>
      </trkpt>
      <trkpt lat="46.45248" lon="-1.70479">
        <ele>53.521605</ele>
        <time>2022-12-18T15:50:30.643Z</time>
      </trkpt>
      <trkpt lat="46.45245" lon="-1.70465">
        <ele>53.716915</ele>
        <time>2022-12-18T15:50:33.658Z</time>
      </trkpt>
      <trkpt lat="46.45242" lon="-1.70448">
        <ele>53.930219</ele>
        <time>2022-12-18T15:50:36.645Z</time>
      </trkpt>
      <trkpt lat="46.45239" lon="-1.70431">
        <ele>54.149915</ele>
        <time>2022-12-18T15:50:39.648Z</time>
      </trkpt>
      <trkpt lat="46.45236" lon="-1.70416">
        <ele>54.351792</ele>
        <time>2022-12-18T15:50:42.640Z</time>
      </trkpt>
      <trkpt lat="46.45233" lon="-1.70403">
        <ele>54.532443</ele>
        <time>2022-12-18T15:50:45.658Z</time>
      </trkpt>
      <trkpt lat="46.4523" lon="-1.70388">
        <ele>54.799585</ele>
        <time>2022-12-18T15:50:48.663Z</time>
      </trkpt>
      <trkpt lat="46.45226" lon="-1.70376">
        <ele>55.030407</ele>
        <time>2022-12-18T15:50:51.662Z</time>
      </trkpt>
      <trkpt lat="46.45223" lon="-1.70362">
        <ele>55.278283</ele>
        <time>2022-12-18T15:50:54.661Z</time>
      </trkpt>
      <trkpt lat="46.4522" lon="-1.7035">
        <ele>55.505769</ele>
        <time>2022-12-18T15:50:57.663Z</time>
      </trkpt>
      <trkpt lat="46.45217" lon="-1.70336">
        <ele>55.751923</ele>
        <time>2022-12-18T15:51:00.654Z</time>
      </trkpt>
      <trkpt lat="46.45213" lon="-1.70321">
        <ele>56.026351</ele>
        <time>2022-12-18T15:51:03.661Z</time>
      </trkpt>
      <trkpt lat="46.45211" lon="-1.70307">
        <ele>56.274464</ele>
        <time>2022-12-18T15:51:06.661Z</time>
      </trkpt>
      <trkpt lat="46.45207" lon="-1.70293">
        <ele>56.529531</ele>
        <time>2022-12-18T15:51:09.659Z</time>
      </trkpt>
      <trkpt lat="46.45205" lon="-1.70276">
        <ele>56.827714</ele>
        <time>2022-12-18T15:51:12.660Z</time>
      </trkpt>
      <trkpt lat="46.45201" lon="-1.7026">
        <ele>57.114343</ele>
        <time>2022-12-18T15:51:15.660Z</time>
      </trkpt>
      <trkpt lat="46.45195" lon="-1.70247">
        <ele>57.380859</ele>
        <time>2022-12-18T15:51:18.661Z</time>
      </trkpt>
      <trkpt lat="46.45187" lon="-1.70236">
        <ele>57.657109</ele>
        <time>2022-12-18T15:51:21.658Z</time>
      </trkpt>
      <trkpt lat="46.45183" lon="-1.70219">
        <ele>57.957459</ele>
        <time>2022-12-18T15:51:24.662Z</time>
      </trkpt>
      <trkpt lat="46.45185" lon="-1.70203">
        <ele>58.236722</ele>
        <time>2022-12-18T15:51:27.656Z</time>
      </trkpt>
      <trkpt lat="46.45189" lon="-1.70191">
        <ele>58.470695</ele>
        <time>2022-12-18T15:51:31.643Z</time>
      </trkpt>
      <trkpt lat="46.45192" lon="-1.70177">
        <ele>58.720116</ele>
        <time>2022-12-18T15:51:35.640Z</time>
      </trkpt>
      <trkpt lat="46.45194" lon="-1.70163">
        <ele>58.974088</ele>
        <time>2022-12-18T15:51:38.663Z</time>
      </trkpt>
      <trkpt lat="46.45195" lon="-1.70147">
        <ele>58.895416</ele>
        <time>2022-12-18T15:51:41.647Z</time>
      </trkpt>
      <trkpt lat="46.45196" lon="-1.7013">
        <ele>58.809489</ele>
        <time>2022-12-18T15:51:44.660Z</time>
      </trkpt>
      <trkpt lat="46.45197" lon="-1.70113">
        <ele>58.722331</ele>
        <time>2022-12-18T15:51:47.656Z</time>
      </trkpt>
      <trkpt lat="46.45198" lon="-1.70096">
        <ele>58.635464</ele>
        <time>2022-12-18T15:51:50.668Z</time>
      </trkpt>
      <trkpt lat="46.45199" lon="-1.70079">
        <ele>58.548469</ele>
        <time>2022-12-18T15:51:53.660Z</time>
      </trkpt>
      <trkpt lat="46.452" lon="-1.70063">
        <ele>58.464479</ele>
        <time>2022-12-18T15:51:56.656Z</time>
      </trkpt>
      <trkpt lat="46.45202" lon="-1.70047">
        <ele>58.380489</ele>
        <time>2022-12-18T15:51:59.645Z</time>
      </trkpt>
      <trkpt lat="46.45203" lon="-1.70031">
        <ele>58.29599</ele>
        <time>2022-12-18T15:52:02.650Z</time>
      </trkpt>
      <trkpt lat="46.45205" lon="-1.70015">
        <ele>58.213019</ele>
        <time>2022-12-18T15:52:05.651Z</time>
      </trkpt>
      <trkpt lat="46.45207" lon="-1.69998">
        <ele>58.12831</ele>
        <time>2022-12-18T15:52:08.664Z</time>
      </trkpt>
      <trkpt lat="46.45209" lon="-1.69982">
        <ele>58.044248</ele>
        <time>2022-12-18T15:52:11.662Z</time>
      </trkpt>
      <trkpt lat="46.4521" lon="-1.69966">
        <ele>57.957202</ele>
        <time>2022-12-18T15:52:14.658Z</time>
      </trkpt>
      <trkpt lat="46.45212" lon="-1.69948">
        <ele>57.863847</ele>
        <time>2022-12-18T15:52:17.640Z</time>
      </trkpt>
      <trkpt lat="46.45213" lon="-1.6993">
        <ele>57.77128</ele>
        <time>2022-12-18T15:52:20.636Z</time>
      </trkpt>
      <trkpt lat="46.45215" lon="-1.69914">
        <ele>57.688095</ele>
        <time>2022-12-18T15:52:23.667Z</time>
      </trkpt>
      <trkpt lat="46.45215" lon="-1.69899">
        <ele>57.577448</ele>
        <time>2022-12-18T15:52:26.658Z</time>
      </trkpt>
      <trkpt lat="46.45217" lon="-1.69889">
        <ele>57.423798</ele>
        <time>2022-12-18T15:52:51.979Z</time>
      </trkpt>
      <trkpt lat="46.45218" lon="-1.69873">
        <ele>57.191729</ele>
        <time>2022-12-18T15:59:29.647Z</time>
      </trkpt>
      <trkpt lat="46.4522" lon="-1.69859">
        <ele>56.984584</ele>
        <time>2022-12-18T15:59:32.664Z</time>
      </trkpt>
      <trkpt lat="46.45222" lon="-1.6984">
        <ele>56.706954</ele>
        <time>2022-12-18T15:59:35.664Z</time>
      </trkpt>
      <trkpt lat="46.45225" lon="-1.69826">
        <ele>56.502467</ele>
        <time>2022-12-18T15:59:37.666Z</time>
      </trkpt>
      <trkpt lat="46.45227" lon="-1.69813">
        <ele>56.307487</ele>
        <time>2022-12-18T15:59:39.663Z</time>
      </trkpt>
      <trkpt lat="46.45232" lon="-1.69796">
        <ele>56.035022</ele>
        <time>2022-12-18T15:59:42.664Z</time>
      </trkpt>
      <trkpt lat="46.45239" lon="-1.69783">
        <ele>55.796827</ele>
        <time>2022-12-18T15:59:45.658Z</time>
      </trkpt>
      <trkpt lat="46.45246" lon="-1.6977">
        <ele>55.56724</ele>
        <time>2022-12-18T15:59:48.664Z</time>
      </trkpt>
      <trkpt lat="46.45253" lon="-1.69758">
        <ele>55.320132</ele>
        <time>2022-12-18T15:59:51.665Z</time>
      </trkpt>
      <trkpt lat="46.45261" lon="-1.69743">
        <ele>55.063929</ele>
        <time>2022-12-18T15:59:54.662Z</time>
      </trkpt>
      <trkpt lat="46.45267" lon="-1.6973">
        <ele>54.829262</ele>
        <time>2022-12-18T15:59:57.665Z</time>
      </trkpt>
      <trkpt lat="46.45271" lon="-1.69715">
        <ele>54.594783</ele>
        <time>2022-12-18T16:00:00.665Z</time>
      </trkpt>
      <trkpt lat="46.45272" lon="-1.69698">
        <ele>54.34607</ele>
        <time>2022-12-18T16:00:03.665Z</time>
      </trkpt>
      <trkpt lat="46.45271" lon="-1.6968">
        <ele>54.087002</ele>
        <time>2022-12-18T16:00:06.666Z</time>
      </trkpt>
      <trkpt lat="46.45266" lon="-1.69662">
        <ele>53.824766</ele>
        <time>2022-12-18T16:00:09.639Z</time>
      </trkpt>
      <trkpt lat="46.45262" lon="-1.69651">
        <ele>53.655475</ele>
        <time>2022-12-18T16:00:11.664Z</time>
      </trkpt>
      <trkpt lat="46.45254" lon="-1.69636">
        <ele>53.418485</ele>
        <time>2022-12-18T16:00:14.669Z</time>
      </trkpt>
      <trkpt lat="46.45247" lon="-1.69621">
        <ele>53.184745</ele>
        <time>2022-12-18T16:00:17.712Z</time>
      </trkpt>
      <trkpt lat="46.45248" lon="-1.69604">
        <ele>52.971446</ele>
        <time>2022-12-18T16:00:20.645Z</time>
      </trkpt>
      <trkpt lat="46.45247" lon="-1.69586">
        <ele>52.752163</ele>
        <time>2022-12-18T16:00:23.641Z</time>
      </trkpt>
      <trkpt lat="46.45244" lon="-1.69567">
        <ele>52.504849</ele>
        <time>2022-12-18T16:00:26.665Z</time>
      </trkpt>
      <trkpt lat="46.45241" lon="-1.69555">
        <ele>52.338445</ele>
        <time>2022-12-18T16:00:28.644Z</time>
      </trkpt>
      <trkpt lat="46.45237" lon="-1.69536">
        <ele>52.095436</ele>
        <time>2022-12-18T16:00:31.655Z</time>
      </trkpt>
      <trkpt lat="46.45234" lon="-1.69524">
        <ele>51.929862</ele>
        <time>2022-12-18T16:00:33.648Z</time>
      </trkpt>
      <trkpt lat="46.4523" lon="-1.69505">
        <ele>51.685076</ele>
        <time>2022-12-18T16:00:36.665Z</time>
      </trkpt>
      <trkpt lat="46.45227" lon="-1.69492">
        <ele>51.512924</ele>
        <time>2022-12-18T16:00:38.650Z</time>
      </trkpt>
      <trkpt lat="46.45224" lon="-1.69479">
        <ele>51.338373</ele>
        <time>2022-12-18T16:00:40.642Z</time>
      </trkpt>
      <trkpt lat="46.45221" lon="-1.69466">
        <ele>51.161462</ele>
        <time>2022-12-18T16:00:42.676Z</time>
      </trkpt>
      <trkpt lat="46.45218" lon="-1.69454">
        <ele>50.995272</ele>
        <time>2022-12-18T16:00:44.640Z</time>
      </trkpt>
      <trkpt lat="46.45215" lon="-1.69441">
        <ele>50.829101</ele>
        <time>2022-12-18T16:00:46.660Z</time>
      </trkpt>
      <trkpt lat="46.45212" lon="-1.69428">
        <ele>50.66045</ele>
        <time>2022-12-18T16:00:48.664Z</time>
      </trkpt>
      <trkpt lat="46.45208" lon="-1.6941">
        <ele>50.534437</ele>
        <time>2022-12-18T16:00:51.666Z</time>
      </trkpt>
      <trkpt lat="46.45203" lon="-1.69393">
        <ele>50.477463</ele>
        <time>2022-12-18T16:00:54.666Z</time>
      </trkpt>
      <trkpt lat="46.452" lon="-1.69375">
        <ele>50.422273</ele>
        <time>2022-12-18T16:00:57.661Z</time>
      </trkpt>
      <trkpt lat="46.45195" lon="-1.69357">
        <ele>50.364997</ele>
        <time>2022-12-18T16:01:00.661Z</time>
      </trkpt>
      <trkpt lat="46.45192" lon="-1.69344">
        <ele>50.322124</ele>
        <time>2022-12-18T16:01:02.668Z</time>
      </trkpt>
      <trkpt lat="46.45189" lon="-1.6933">
        <ele>50.278827</ele>
        <time>2022-12-18T16:01:04.661Z</time>
      </trkpt>
      <trkpt lat="46.45186" lon="-1.69317">
        <ele>50.23695</ele>
        <time>2022-12-18T16:01:06.666Z</time>
      </trkpt>
      <trkpt lat="46.45182" lon="-1.69304">
        <ele>50.195075</ele>
        <time>2022-12-18T16:01:08.666Z</time>
      </trkpt>
      <trkpt lat="46.45179" lon="-1.69291">
        <ele>50.153768</ele>
        <time>2022-12-18T16:01:10.665Z</time>
      </trkpt>
      <trkpt lat="46.45175" lon="-1.69273">
        <ele>50.097083</ele>
        <time>2022-12-18T16:01:13.661Z</time>
      </trkpt>
      <trkpt lat="46.45171" lon="-1.69257">
        <ele>50.045524</ele>
        <time>2022-12-18T16:01:16.662Z</time>
      </trkpt>
      <trkpt lat="46.45168" lon="-1.69241">
        <ele>49.993798</ele>
        <time>2022-12-18T16:01:19.667Z</time>
      </trkpt>
      <trkpt lat="46.45164" lon="-1.69224">
        <ele>49.941383</ele>
        <time>2022-12-18T16:01:22.668Z</time>
      </trkpt>
      <trkpt lat="46.4516" lon="-1.69208">
        <ele>49.890386</ele>
        <time>2022-12-18T16:01:25.660Z</time>
      </trkpt>
      <trkpt lat="46.45156" lon="-1.69193">
        <ele>49.840964</ele>
        <time>2022-12-18T16:01:28.666Z</time>
      </trkpt>
      <trkpt lat="46.45153" lon="-1.69178">
        <ele>49.79467</ele>
        <time>2022-12-18T16:01:31.669Z</time>
      </trkpt>
      <trkpt lat="46.4515" lon="-1.69164">
        <ele>49.916539</ele>
        <time>2022-12-18T16:01:34.661Z</time>
      </trkpt>
      <trkpt lat="46.45147" lon="-1.6915">
        <ele>50.089217</ele>
        <time>2022-12-18T16:01:37.669Z</time>
      </trkpt>
      <trkpt lat="46.45143" lon="-1.69136">
        <ele>50.258132</ele>
        <time>2022-12-18T16:01:40.665Z</time>
      </trkpt>
      <trkpt lat="46.4514" lon="-1.69123">
        <ele>50.422481</ele>
        <time>2022-12-18T16:01:43.665Z</time>
      </trkpt>
      <trkpt lat="46.45137" lon="-1.6911">
        <ele>50.580222</ele>
        <time>2022-12-18T16:01:46.662Z</time>
      </trkpt>
      <trkpt lat="46.45134" lon="-1.69097">
        <ele>50.737411</ele>
        <time>2022-12-18T16:01:49.667Z</time>
      </trkpt>
      <trkpt lat="46.4513" lon="-1.69085">
        <ele>50.891356</ele>
        <time>2022-12-18T16:01:52.662Z</time>
      </trkpt>
      <trkpt lat="46.45126" lon="-1.69069">
        <ele>51.092005</ele>
        <time>2022-12-18T16:01:56.665Z</time>
      </trkpt>
      <trkpt lat="46.45122" lon="-1.69053">
        <ele>51.290985</ele>
        <time>2022-12-18T16:02:00.666Z</time>
      </trkpt>
      <trkpt lat="46.45118" lon="-1.69037">
        <ele>51.483355</ele>
        <time>2022-12-18T16:02:04.646Z</time>
      </trkpt>
      <trkpt lat="46.45115" lon="-1.69022">
        <ele>51.669681</ele>
        <time>2022-12-18T16:02:08.665Z</time>
      </trkpt>
      <trkpt lat="46.45112" lon="-1.69009">
        <ele>51.831817</ele>
        <time>2022-12-18T16:02:12.668Z</time>
      </trkpt>
      <trkpt lat="46.45109" lon="-1.68994">
        <ele>52.007216</ele>
        <time>2022-12-18T16:02:16.665Z</time>
      </trkpt>
      <trkpt lat="46.45106" lon="-1.6898">
        <ele>52.184989</ele>
        <time>2022-12-18T16:02:20.644Z</time>
      </trkpt>
      <trkpt lat="46.45102" lon="-1.68966">
        <ele>52.355956</ele>
        <time>2022-12-18T16:02:24.663Z</time>
      </trkpt>
      <trkpt lat="46.45099" lon="-1.68951">
        <ele>52.53568</ele>
        <time>2022-12-18T16:02:28.665Z</time>
      </trkpt>
      <trkpt lat="46.45095" lon="-1.68937">
        <ele>52.713779</ele>
        <time>2022-12-18T16:02:32.666Z</time>
      </trkpt>
      <trkpt lat="46.45091" lon="-1.68922">
        <ele>52.909348</ele>
        <time>2022-12-18T16:02:36.666Z</time>
      </trkpt>
      <trkpt lat="46.45088" lon="-1.68907">
        <ele>53.119135</ele>
        <time>2022-12-18T16:02:40.664Z</time>
      </trkpt>
      <trkpt lat="46.45085" lon="-1.68893">
        <ele>53.325056</ele>
        <time>2022-12-18T16:02:44.650Z</time>
      </trkpt>
      <trkpt lat="46.45081" lon="-1.68878">
        <ele>53.536097</ele>
        <time>2022-12-18T16:02:48.648Z</time>
      </trkpt>
      <trkpt lat="46.45078" lon="-1.68864">
        <ele>53.740731</ele>
        <time>2022-12-18T16:02:52.659Z</time>
      </trkpt>
      <trkpt lat="46.45075" lon="-1.68849">
        <ele>53.951809</ele>
        <time>2022-12-18T16:02:56.663Z</time>
      </trkpt>
      <trkpt lat="46.45071" lon="-1.68834">
        <ele>54.172533</ele>
        <time>2022-12-18T16:03:00.661Z</time>
      </trkpt>
      <trkpt lat="46.45068" lon="-1.68818">
        <ele>54.393422</ele>
        <time>2022-12-18T16:03:04.669Z</time>
      </trkpt>
      <trkpt lat="46.45066" lon="-1.68803">
        <ele>54.59979</ele>
        <time>2022-12-18T16:03:08.668Z</time>
      </trkpt>
      <trkpt lat="46.45064" lon="-1.68788">
        <ele>54.806983</ele>
        <time>2022-12-18T16:03:12.666Z</time>
      </trkpt>
      <trkpt lat="46.45062" lon="-1.68773">
        <ele>55.021333</ele>
        <time>2022-12-18T16:03:16.664Z</time>
      </trkpt>
      <trkpt lat="46.4506" lon="-1.68757">
        <ele>55.239976</ele>
        <time>2022-12-18T16:03:20.667Z</time>
      </trkpt>
      <trkpt lat="46.45058" lon="-1.68741">
        <ele>55.457281</ele>
        <time>2022-12-18T16:03:24.665Z</time>
      </trkpt>
      <trkpt lat="46.45056" lon="-1.68726">
        <ele>55.668964</ele>
        <time>2022-12-18T16:03:28.668Z</time>
      </trkpt>
      <trkpt lat="46.45051" lon="-1.68711">
        <ele>55.887411</ele>
        <time>2022-12-18T16:03:32.651Z</time>
      </trkpt>
      <trkpt lat="46.45047" lon="-1.68696">
        <ele>56.108373</ele>
        <time>2022-12-18T16:03:36.670Z</time>
      </trkpt>
      <trkpt lat="46.45042" lon="-1.68682">
        <ele>56.317059</ele>
        <time>2022-12-18T16:03:40.667Z</time>
      </trkpt>
      <trkpt lat="46.45036" lon="-1.68669">
        <ele>56.501512</ele>
        <time>2022-12-18T16:03:44.663Z</time>
      </trkpt>
      <trkpt lat="46.45029" lon="-1.68657">
        <ele>56.681292</ele>
        <time>2022-12-18T16:03:48.663Z</time>
      </trkpt>
      <trkpt lat="46.45021" lon="-1.68646">
        <ele>56.870013</ele>
        <time>2022-12-18T16:03:52.660Z</time>
      </trkpt>
      <trkpt lat="46.45012" lon="-1.68635">
        <ele>57.057826</ele>
        <time>2022-12-18T16:03:56.660Z</time>
      </trkpt>
      <trkpt lat="46.45004" lon="-1.68625">
        <ele>57.241009</ele>
        <time>2022-12-18T16:04:00.661Z</time>
      </trkpt>
      <trkpt lat="46.44994" lon="-1.68616">
        <ele>57.428172</ele>
        <time>2022-12-18T16:04:04.645Z</time>
      </trkpt>
      <trkpt lat="46.44984" lon="-1.68607">
        <ele>57.628985</ele>
        <time>2022-12-18T16:04:08.662Z</time>
      </trkpt>
      <trkpt lat="46.44975" lon="-1.686">
        <ele>57.787279</ele>
        <time>2022-12-18T16:04:11.668Z</time>
      </trkpt>
      <trkpt lat="46.44968" lon="-1.68593">
        <ele>57.94256</ele>
        <time>2022-12-18T16:04:14.667Z</time>
      </trkpt>
      <trkpt lat="46.44959" lon="-1.68585">
        <ele>58.100023</ele>
        <time>2022-12-18T16:04:17.656Z</time>
      </trkpt>
      <trkpt lat="46.4495" lon="-1.68577">
        <ele>58.281989</ele>
        <time>2022-12-18T16:04:21.665Z</time>
      </trkpt>
      <trkpt lat="46.44941" lon="-1.68568">
        <ele>58.466299</ele>
        <time>2022-12-18T16:04:25.666Z</time>
      </trkpt>
      <trkpt lat="46.44931" lon="-1.68558">
        <ele>58.666312</ele>
        <time>2022-12-18T16:04:29.660Z</time>
      </trkpt>
      <trkpt lat="46.44921" lon="-1.6855">
        <ele>58.860861</ele>
        <time>2022-12-18T16:04:33.669Z</time>
      </trkpt>
      <trkpt lat="46.44913" lon="-1.68543">
        <ele>59.009717</ele>
        <time>2022-12-18T16:04:36.664Z</time>
      </trkpt>
      <trkpt lat="46.44905" lon="-1.68536">
        <ele>59.159769</ele>
        <time>2022-12-18T16:04:39.665Z</time>
      </trkpt>
      <trkpt lat="46.44898" lon="-1.68528">
        <ele>59.312813</ele>
        <time>2022-12-18T16:04:42.637Z</time>
      </trkpt>
      <trkpt lat="46.44889" lon="-1.68521">
        <ele>59.406767</ele>
        <time>2022-12-18T16:04:45.635Z</time>
      </trkpt>
      <trkpt lat="46.44882" lon="-1.68513">
        <ele>59.489277</ele>
        <time>2022-12-18T16:04:48.635Z</time>
      </trkpt>
      <trkpt lat="46.44871" lon="-1.68504">
        <ele>59.594878</ele>
        <time>2022-12-18T16:04:52.663Z</time>
      </trkpt>
      <trkpt lat="46.44862" lon="-1.68496">
        <ele>59.684641</ele>
        <time>2022-12-18T16:04:55.645Z</time>
      </trkpt>
      <trkpt lat="46.44854" lon="-1.68488">
        <ele>59.775465</ele>
        <time>2022-12-18T16:04:58.669Z</time>
      </trkpt>
      <trkpt lat="46.44845" lon="-1.6848">
        <ele>59.864909</ele>
        <time>2022-12-18T16:05:01.665Z</time>
      </trkpt>
      <trkpt lat="46.44836" lon="-1.68472">
        <ele>59.957537</ele>
        <time>2022-12-18T16:05:04.661Z</time>
      </trkpt>
      <trkpt lat="46.44827" lon="-1.68464">
        <ele>60.053347</ele>
        <time>2022-12-18T16:05:07.645Z</time>
      </trkpt>
      <trkpt lat="46.44817" lon="-1.68455">
        <ele>60.148738</ele>
        <time>2022-12-18T16:05:10.644Z</time>
      </trkpt>
      <trkpt lat="46.44809" lon="-1.68446">
        <ele>60.24327</ele>
        <time>2022-12-18T16:05:13.665Z</time>
      </trkpt>
      <trkpt lat="46.448" lon="-1.68436">
        <ele>60.340984</ele>
        <time>2022-12-18T16:05:16.647Z</time>
      </trkpt>
      <trkpt lat="46.44791" lon="-1.68425">
        <ele>60.443513</ele>
        <time>2022-12-18T16:05:19.661Z</time>
      </trkpt>
      <trkpt lat="46.44783" lon="-1.68414">
        <ele>60.542425</ele>
        <time>2022-12-18T16:05:22.668Z</time>
      </trkpt>
      <trkpt lat="46.44775" lon="-1.68402">
        <ele>60.640808</ele>
        <time>2022-12-18T16:05:25.662Z</time>
      </trkpt>
      <trkpt lat="46.44768" lon="-1.68388">
        <ele>60.743833</ele>
        <time>2022-12-18T16:05:28.663Z</time>
      </trkpt>
      <trkpt lat="46.44761" lon="-1.68375">
        <ele>60.848684</ele>
        <time>2022-12-18T16:05:31.663Z</time>
      </trkpt>
      <trkpt lat="46.44754" lon="-1.6836">
        <ele>60.892142</ele>
        <time>2022-12-18T16:05:34.661Z</time>
      </trkpt>
      <trkpt lat="46.44748" lon="-1.68345">
        <ele>60.864557</ele>
        <time>2022-12-18T16:05:37.664Z</time>
      </trkpt>
      <trkpt lat="46.44743" lon="-1.68329">
        <ele>60.836722</ele>
        <time>2022-12-18T16:05:40.662Z</time>
      </trkpt>
      <trkpt lat="46.44738" lon="-1.68313">
        <ele>60.809272</ele>
        <time>2022-12-18T16:05:43.657Z</time>
      </trkpt>
      <trkpt lat="46.44734" lon="-1.68298">
        <ele>60.782383</ele>
        <time>2022-12-18T16:05:46.666Z</time>
      </trkpt>
      <trkpt lat="46.4473" lon="-1.68282">
        <ele>60.755663</ele>
        <time>2022-12-18T16:05:49.662Z</time>
      </trkpt>
      <trkpt lat="46.44726" lon="-1.68267">
        <ele>60.729391</ele>
        <time>2022-12-18T16:05:52.663Z</time>
      </trkpt>
      <trkpt lat="46.44722" lon="-1.6825">
        <ele>60.701774</ele>
        <time>2022-12-18T16:05:55.667Z</time>
      </trkpt>
      <trkpt lat="46.44719" lon="-1.68235">
        <ele>60.675284</ele>
        <time>2022-12-18T16:05:58.658Z</time>
      </trkpt>
      <trkpt lat="46.44715" lon="-1.68218">
        <ele>60.647481</ele>
        <time>2022-12-18T16:06:01.665Z</time>
      </trkpt>
      <trkpt lat="46.44712" lon="-1.68201">
        <ele>60.620049</ele>
        <time>2022-12-18T16:06:04.670Z</time>
      </trkpt>
      <trkpt lat="46.4471" lon="-1.68185">
        <ele>60.594</ele>
        <time>2022-12-18T16:06:07.669Z</time>
      </trkpt>
      <trkpt lat="46.44708" lon="-1.68168">
        <ele>60.565491</ele>
        <time>2022-12-18T16:06:10.665Z</time>
      </trkpt>
      <trkpt lat="46.44706" lon="-1.68149">
        <ele>60.535406</ele>
        <time>2022-12-18T16:06:13.664Z</time>
      </trkpt>
      <trkpt lat="46.44704" lon="-1.68131">
        <ele>60.505631</ele>
        <time>2022-12-18T16:06:16.649Z</time>
      </trkpt>
      <trkpt lat="46.44703" lon="-1.68114">
        <ele>60.475589</ele>
        <time>2022-12-18T16:06:19.661Z</time>
      </trkpt>
      <trkpt lat="46.44701" lon="-1.68097">
        <ele>60.442976</ele>
        <time>2022-12-18T16:06:22.662Z</time>
      </trkpt>
      <trkpt lat="46.447" lon="-1.68081">
        <ele>60.412833</ele>
        <time>2022-12-18T16:06:25.665Z</time>
      </trkpt>
      <trkpt lat="46.44699" lon="-1.68064">
        <ele>60.379745</ele>
        <time>2022-12-18T16:06:28.667Z</time>
      </trkpt>
      <trkpt lat="46.44699" lon="-1.6805">
        <ele>60.353074</ele>
        <time>2022-12-18T16:06:30.662Z</time>
      </trkpt>
      <trkpt lat="46.44698" lon="-1.68037">
        <ele>60.326738</ele>
        <time>2022-12-18T16:06:32.668Z</time>
      </trkpt>
      <trkpt lat="46.44699" lon="-1.68022">
        <ele>60.298114</ele>
        <time>2022-12-18T16:06:34.666Z</time>
      </trkpt>
      <trkpt lat="46.44698" lon="-1.68008">
        <ele>60.270473</ele>
        <time>2022-12-18T16:06:36.664Z</time>
      </trkpt>
      <trkpt lat="46.44698" lon="-1.67994">
        <ele>60.244184</ele>
        <time>2022-12-18T16:06:38.636Z</time>
      </trkpt>
      <trkpt lat="46.44698" lon="-1.67981">
        <ele>60.218867</ele>
        <time>2022-12-18T16:06:40.666Z</time>
      </trkpt>
      <trkpt lat="46.44698" lon="-1.67967">
        <ele>60.192583</ele>
        <time>2022-12-18T16:06:42.668Z</time>
      </trkpt>
      <trkpt lat="46.447" lon="-1.67949">
        <ele>60.155748</ele>
        <time>2022-12-18T16:06:45.665Z</time>
      </trkpt>
      <trkpt lat="46.44702" lon="-1.6793">
        <ele>60.119367</ele>
        <time>2022-12-18T16:06:48.666Z</time>
      </trkpt>
      <trkpt lat="46.44703" lon="-1.67912">
        <ele>60.084444</ele>
        <time>2022-12-18T16:06:51.668Z</time>
      </trkpt>
      <trkpt lat="46.44705" lon="-1.67894">
        <ele>60.049333</ele>
        <time>2022-12-18T16:06:54.667Z</time>
      </trkpt>
      <trkpt lat="46.44708" lon="-1.67879">
        <ele>60.019067</ele>
        <time>2022-12-18T16:06:57.666Z</time>
      </trkpt>
      <trkpt lat="46.44709" lon="-1.67862">
        <ele>59.985404</ele>
        <time>2022-12-18T16:07:00.644Z</time>
      </trkpt>
      <trkpt lat="46.4471" lon="-1.67848">
        <ele>59.885557</ele>
        <time>2022-12-18T16:07:02.662Z</time>
      </trkpt>
      <trkpt lat="46.44711" lon="-1.67828">
        <ele>59.726153</ele>
        <time>2022-12-18T16:07:05.667Z</time>
      </trkpt>
      <trkpt lat="46.44712" lon="-1.67814">
        <ele>59.612282</ele>
        <time>2022-12-18T16:07:07.663Z</time>
      </trkpt>
      <trkpt lat="46.44713" lon="-1.678">
        <ele>59.507057</ele>
        <time>2022-12-18T16:07:09.660Z</time>
      </trkpt>
      <trkpt lat="46.44713" lon="-1.67787">
        <ele>59.398631</ele>
        <time>2022-12-18T16:07:11.667Z</time>
      </trkpt>
      <trkpt lat="46.44712" lon="-1.67774">
        <ele>59.294067</ele>
        <time>2022-12-18T16:07:13.646Z</time>
      </trkpt>
      <trkpt lat="46.44712" lon="-1.67754">
        <ele>59.138849</ele>
        <time>2022-12-18T16:07:16.675Z</time>
      </trkpt>
      <trkpt lat="46.44711" lon="-1.67741">
        <ele>59.033088</ele>
        <time>2022-12-18T16:07:18.647Z</time>
      </trkpt>
      <trkpt lat="46.4471" lon="-1.67727">
        <ele>58.925996</ele>
        <time>2022-12-18T16:07:20.666Z</time>
      </trkpt>
      <trkpt lat="46.44708" lon="-1.67713">
        <ele>58.809512</ele>
        <time>2022-12-18T16:07:22.665Z</time>
      </trkpt>
      <trkpt lat="46.44705" lon="-1.67698">
        <ele>58.691496</ele>
        <time>2022-12-18T16:07:24.664Z</time>
      </trkpt>
      <trkpt lat="46.44702" lon="-1.67684">
        <ele>58.573847</ele>
        <time>2022-12-18T16:07:26.662Z</time>
      </trkpt>
      <trkpt lat="46.447" lon="-1.6767">
        <ele>58.455436</ele>
        <time>2022-12-18T16:07:28.659Z</time>
      </trkpt>
      <trkpt lat="46.44696" lon="-1.67655">
        <ele>58.329701</ele>
        <time>2022-12-18T16:07:30.660Z</time>
      </trkpt>
      <trkpt lat="46.44692" lon="-1.6764">
        <ele>58.201674</ele>
        <time>2022-12-18T16:07:32.664Z</time>
      </trkpt>
      <trkpt lat="46.44687" lon="-1.67625">
        <ele>58.070546</ele>
        <time>2022-12-18T16:07:34.673Z</time>
      </trkpt>
      <trkpt lat="46.44682" lon="-1.6761">
        <ele>57.942736</ele>
        <time>2022-12-18T16:07:36.666Z</time>
      </trkpt>
      <trkpt lat="46.44677" lon="-1.67595">
        <ele>57.799358</ele>
        <time>2022-12-18T16:07:38.667Z</time>
      </trkpt>
      <trkpt lat="46.44671" lon="-1.6758">
        <ele>57.645271</ele>
        <time>2022-12-18T16:07:40.663Z</time>
      </trkpt>
      <trkpt lat="46.44665" lon="-1.67567">
        <ele>57.497613</ele>
        <time>2022-12-18T16:07:42.663Z</time>
      </trkpt>
      <trkpt lat="46.44658" lon="-1.67553">
        <ele>57.351403</ele>
        <time>2022-12-18T16:07:44.662Z</time>
      </trkpt>
      <trkpt lat="46.44652" lon="-1.6754">
        <ele>57.208129</ele>
        <time>2022-12-18T16:07:46.651Z</time>
      </trkpt>
      <trkpt lat="46.44646" lon="-1.67527">
        <ele>57.075036</ele>
        <time>2022-12-18T16:07:48.662Z</time>
      </trkpt>
      <trkpt lat="46.4464" lon="-1.67516">
        <ele>56.946119</ele>
        <time>2022-12-18T16:07:50.663Z</time>
      </trkpt>
      <trkpt lat="46.44635" lon="-1.67505">
        <ele>56.827699</ele>
        <time>2022-12-18T16:07:52.664Z</time>
      </trkpt>
      <trkpt lat="46.44629" lon="-1.67492">
        <ele>56.692472</ele>
        <time>2022-12-18T16:07:54.680Z</time>
      </trkpt>
      <trkpt lat="46.44623" lon="-1.6748">
        <ele>56.557225</ele>
        <time>2022-12-18T16:07:56.668Z</time>
      </trkpt>
      <trkpt lat="46.44617" lon="-1.67467">
        <ele>56.415402</ele>
        <time>2022-12-18T16:07:58.662Z</time>
      </trkpt>
      <trkpt lat="46.4461" lon="-1.67453">
        <ele>56.264769</ele>
        <time>2022-12-18T16:08:00.666Z</time>
      </trkpt>
      <trkpt lat="46.44603" lon="-1.67439">
        <ele>56.115611</ele>
        <time>2022-12-18T16:08:02.668Z</time>
      </trkpt>
      <trkpt lat="46.44597" lon="-1.67426">
        <ele>55.974532</ele>
        <time>2022-12-18T16:08:04.666Z</time>
      </trkpt>
      <trkpt lat="46.4459" lon="-1.67414">
        <ele>55.836372</ele>
        <time>2022-12-18T16:08:06.649Z</time>
      </trkpt>
      <trkpt lat="46.44584" lon="-1.67401">
        <ele>55.697421</ele>
        <time>2022-12-18T16:08:08.660Z</time>
      </trkpt>
      <trkpt lat="46.44578" lon="-1.67389">
        <ele>55.573804</ele>
        <time>2022-12-18T16:08:10.663Z</time>
      </trkpt>
      <trkpt lat="46.44572" lon="-1.67377">
        <ele>55.485559</ele>
        <time>2022-12-18T16:08:12.665Z</time>
      </trkpt>
      <trkpt lat="46.44566" lon="-1.67366">
        <ele>55.399905</ele>
        <time>2022-12-18T16:08:14.671Z</time>
      </trkpt>
      <trkpt lat="46.4456" lon="-1.67351">
        <ele>55.292962</ele>
        <time>2022-12-18T16:08:17.647Z</time>
      </trkpt>
      <trkpt lat="46.44554" lon="-1.67339">
        <ele>55.202197</ele>
        <time>2022-12-18T16:08:20.662Z</time>
      </trkpt>
      <trkpt lat="46.44547" lon="-1.67329">
        <ele>55.111652</ele>
        <time>2022-12-18T16:08:23.671Z</time>
      </trkpt>
      <trkpt lat="46.44539" lon="-1.67319">
        <ele>55.018022</ele>
        <time>2022-12-18T16:08:26.649Z</time>
      </trkpt>
      <trkpt lat="46.4453" lon="-1.67311">
        <ele>54.925768</ele>
        <time>2022-12-18T16:08:29.650Z</time>
      </trkpt>
      <trkpt lat="46.44526" lon="-1.67297">
        <ele>54.829871</ele>
        <time>2022-12-18T16:08:32.636Z</time>
      </trkpt>
      <trkpt lat="46.44523" lon="-1.67282">
        <ele>54.733486</ele>
        <time>2022-12-18T16:08:35.661Z</time>
      </trkpt>
      <trkpt lat="46.44517" lon="-1.67265">
        <ele>54.61673</ele>
        <time>2022-12-18T16:08:38.667Z</time>
      </trkpt>
      <trkpt lat="46.44512" lon="-1.67253">
        <ele>54.528834</ele>
        <time>2022-12-18T16:08:40.660Z</time>
      </trkpt>
      <trkpt lat="46.44505" lon="-1.6724">
        <ele>54.435036</ele>
        <time>2022-12-18T16:08:42.667Z</time>
      </trkpt>
      <trkpt lat="46.44499" lon="-1.67228">
        <ele>54.338232</ele>
        <time>2022-12-18T16:08:44.641Z</time>
      </trkpt>
      <trkpt lat="46.44494" lon="-1.67214">
        <ele>54.244201</ele>
        <time>2022-12-18T16:08:46.668Z</time>
      </trkpt>
      <trkpt lat="46.44489" lon="-1.67203">
        <ele>54.159048</ele>
        <time>2022-12-18T16:08:48.662Z</time>
      </trkpt>
      <trkpt lat="46.44483" lon="-1.67192">
        <ele>54.077417</ele>
        <time>2022-12-18T16:08:50.661Z</time>
      </trkpt>
      <trkpt lat="46.44476" lon="-1.67177">
        <ele>53.949889</ele>
        <time>2022-12-18T16:08:53.648Z</time>
      </trkpt>
      <trkpt lat="46.44469" lon="-1.67163">
        <ele>53.788928</ele>
        <time>2022-12-18T16:08:56.662Z</time>
      </trkpt>
      <trkpt lat="46.44463" lon="-1.67147">
        <ele>53.618895</ele>
        <time>2022-12-18T16:08:59.651Z</time>
      </trkpt>
      <trkpt lat="46.44459" lon="-1.67135">
        <ele>53.498537</ele>
        <time>2022-12-18T16:09:01.645Z</time>
      </trkpt>
      <trkpt lat="46.44456" lon="-1.67122">
        <ele>53.376185</ele>
        <time>2022-12-18T16:09:03.662Z</time>
      </trkpt>
      <trkpt lat="46.44452" lon="-1.6711">
        <ele>53.254978</ele>
        <time>2022-12-18T16:09:05.662Z</time>
      </trkpt>
      <trkpt lat="46.44448" lon="-1.67092">
        <ele>53.078452</ele>
        <time>2022-12-18T16:09:08.663Z</time>
      </trkpt>
      <trkpt lat="46.44446" lon="-1.67075">
        <ele>52.915213</ele>
        <time>2022-12-18T16:09:11.665Z</time>
      </trkpt>
      <trkpt lat="46.44444" lon="-1.67059">
        <ele>52.770915</ele>
        <time>2022-12-18T16:09:14.661Z</time>
      </trkpt>
      <trkpt lat="46.44443" lon="-1.67045">
        <ele>52.634829</ele>
        <time>2022-12-18T16:09:17.664Z</time>
      </trkpt>
      <trkpt lat="46.44439" lon="-1.67031">
        <ele>52.499662</ele>
        <time>2022-12-18T16:09:20.638Z</time>
      </trkpt>
      <trkpt lat="46.44431" lon="-1.67023">
        <ele>52.374443</ele>
        <time>2022-12-18T16:09:23.664Z</time>
      </trkpt>
      <trkpt lat="46.4442" lon="-1.67018">
        <ele>52.220734</ele>
        <time>2022-12-18T16:09:27.662Z</time>
      </trkpt>
      <trkpt lat="46.4441" lon="-1.67019">
        <ele>52.08545</ele>
        <time>2022-12-18T16:09:30.651Z</time>
      </trkpt>
      <trkpt lat="46.444" lon="-1.67025">
        <ele>51.938</ele>
        <time>2022-12-18T16:09:33.662Z</time>
      </trkpt>
      <trkpt lat="46.44391" lon="-1.67036">
        <ele>51.779683</ele>
        <time>2022-12-18T16:09:36.661Z</time>
      </trkpt>
      <trkpt lat="46.44381" lon="-1.6705">
        <ele>51.603078</ele>
        <time>2022-12-18T16:09:39.659Z</time>
      </trkpt>
      <trkpt lat="46.44375" lon="-1.67059">
        <ele>51.612325</ele>
        <time>2022-12-18T16:09:41.658Z</time>
      </trkpt>
      <trkpt lat="46.44365" lon="-1.67072">
        <ele>51.654669</ele>
        <time>2022-12-18T16:09:44.662Z</time>
      </trkpt>
      <trkpt lat="46.44359" lon="-1.67082">
        <ele>51.68399</ele>
        <time>2022-12-18T16:09:46.649Z</time>
      </trkpt>
      <trkpt lat="46.44352" lon="-1.67092">
        <ele>51.713655</ele>
        <time>2022-12-18T16:09:48.660Z</time>
      </trkpt>
      <trkpt lat="46.44346" lon="-1.67101">
        <ele>51.74211</ele>
        <time>2022-12-18T16:09:50.655Z</time>
      </trkpt>
      <trkpt lat="46.44337" lon="-1.67114">
        <ele>51.781519</ele>
        <time>2022-12-18T16:09:53.664Z</time>
      </trkpt>
      <trkpt lat="46.44332" lon="-1.67127">
        <ele>51.812523</ele>
        <time>2022-12-18T16:09:58.665Z</time>
      </trkpt>
      <trkpt lat="46.44337" lon="-1.67114">
        <ele>51.84266</ele>
        <time>2022-12-18T16:10:07.645Z</time>
      </trkpt>
      <trkpt lat="46.44346" lon="-1.67099">
        <ele>51.886891</ele>
        <time>2022-12-18T16:10:41.679Z</time>
      </trkpt>
      <trkpt lat="46.44352" lon="-1.67088">
        <ele>51.917498</ele>
        <time>2022-12-18T16:10:44.665Z</time>
      </trkpt>
      <trkpt lat="46.44359" lon="-1.67076">
        <ele>51.951903</ele>
        <time>2022-12-18T16:10:47.671Z</time>
      </trkpt>
      <trkpt lat="46.44367" lon="-1.67063">
        <ele>51.989654</ele>
        <time>2022-12-18T16:10:50.654Z</time>
      </trkpt>
      <trkpt lat="46.44377" lon="-1.67051">
        <ele>52.029622</ele>
        <time>2022-12-18T16:10:53.671Z</time>
      </trkpt>
      <trkpt lat="46.44387" lon="-1.67039">
        <ele>52.070302</ele>
        <time>2022-12-18T16:10:56.660Z</time>
      </trkpt>
      <trkpt lat="46.44396" lon="-1.67026">
        <ele>52.111362</ele>
        <time>2022-12-18T16:10:59.662Z</time>
      </trkpt>
      <trkpt lat="46.44407" lon="-1.67016">
        <ele>52.151609</ele>
        <time>2022-12-18T16:11:02.662Z</time>
      </trkpt>
      <trkpt lat="46.44417" lon="-1.67007">
        <ele>52.358497</ele>
        <time>2022-12-18T16:11:05.663Z</time>
      </trkpt>
      <trkpt lat="46.44426" lon="-1.66997">
        <ele>52.554358</ele>
        <time>2022-12-18T16:11:08.662Z</time>
      </trkpt>
      <trkpt lat="46.44431" lon="-1.66982">
        <ele>52.76089</ele>
        <time>2022-12-18T16:11:12.673Z</time>
      </trkpt>
      <trkpt lat="46.44433" lon="-1.66966">
        <ele>52.963958</ele>
        <time>2022-12-18T16:11:16.669Z</time>
      </trkpt>
      <trkpt lat="46.44432" lon="-1.6695">
        <ele>53.167569</ele>
        <time>2022-12-18T16:11:20.656Z</time>
      </trkpt>
      <trkpt lat="46.4443" lon="-1.66935">
        <ele>53.355327</ele>
        <time>2022-12-18T16:11:58.655Z</time>
      </trkpt>
      <trkpt lat="46.44424" lon="-1.66924">
        <ele>53.526355</ele>
        <time>2022-12-18T16:12:02.667Z</time>
      </trkpt>
      <trkpt lat="46.44419" lon="-1.66911">
        <ele>53.717064</ele>
        <time>2022-12-18T16:12:06.663Z</time>
      </trkpt>
      <trkpt lat="46.44407" lon="-1.66887">
        <ele>54.084574</ele>
        <time>2022-12-18T16:12:45.644Z</time>
      </trkpt>
      <trkpt lat="46.444" lon="-1.66877">
        <ele>54.26267</ele>
        <time>2022-12-18T16:12:49.665Z</time>
      </trkpt>
      <trkpt lat="46.44393" lon="-1.66863">
        <ele>54.476873</ele>
        <time>2022-12-18T16:12:53.661Z</time>
      </trkpt>
      <trkpt lat="46.44387" lon="-1.66852">
        <ele>54.652262</ele>
        <time>2022-12-18T16:12:56.666Z</time>
      </trkpt>
      <trkpt lat="46.44381" lon="-1.6684">
        <ele>54.834661</ele>
        <time>2022-12-18T16:12:59.710Z</time>
      </trkpt>
      <trkpt lat="46.44374" lon="-1.66827">
        <ele>55.033412</ele>
        <time>2022-12-18T16:13:02.662Z</time>
      </trkpt>
      <trkpt lat="46.44368" lon="-1.66814">
        <ele>55.23822</ele>
        <time>2022-12-18T16:13:05.728Z</time>
      </trkpt>
      <trkpt lat="46.44362" lon="-1.668">
        <ele>55.371751</ele>
        <time>2022-12-18T16:13:08.662Z</time>
      </trkpt>
      <trkpt lat="46.44354" lon="-1.66787">
        <ele>55.250439</ele>
        <time>2022-12-18T16:13:11.733Z</time>
      </trkpt>
      <trkpt lat="46.44346" lon="-1.66774">
        <ele>55.122249</ele>
        <time>2022-12-18T16:13:14.664Z</time>
      </trkpt>
      <trkpt lat="46.44338" lon="-1.6676">
        <ele>54.995082</ele>
        <time>2022-12-18T16:13:17.699Z</time>
      </trkpt>
      <trkpt lat="46.44331" lon="-1.66748">
        <ele>54.871342</ele>
        <time>2022-12-18T16:13:20.662Z</time>
      </trkpt>
      <trkpt lat="46.44322" lon="-1.66734">
        <ele>54.740828</ele>
        <time>2022-12-18T16:13:23.714Z</time>
      </trkpt>
      <trkpt lat="46.44313" lon="-1.66721">
        <ele>54.604723</ele>
        <time>2022-12-18T16:13:26.664Z</time>
      </trkpt>
      <trkpt lat="46.44305" lon="-1.66707">
        <ele>54.468306</ele>
        <time>2022-12-18T16:13:29.720Z</time>
      </trkpt>
      <trkpt lat="46.44296" lon="-1.66694">
        <ele>54.335295</ele>
        <time>2022-12-18T16:13:32.663Z</time>
      </trkpt>
      <trkpt lat="46.44287" lon="-1.66681">
        <ele>54.203543</ele>
        <time>2022-12-18T16:13:35.709Z</time>
      </trkpt>
      <trkpt lat="46.44279" lon="-1.66667">
        <ele>54.071068</ele>
        <time>2022-12-18T16:13:38.661Z</time>
      </trkpt>
      <trkpt lat="46.44271" lon="-1.66655">
        <ele>53.947842</ele>
        <time>2022-12-18T16:13:41.661Z</time>
      </trkpt>
      <trkpt lat="46.44264" lon="-1.66643">
        <ele>53.832246</ele>
        <time>2022-12-18T16:13:44.656Z</time>
      </trkpt>
      <trkpt lat="46.44256" lon="-1.6663">
        <ele>53.70857</ele>
        <time>2022-12-18T16:13:47.670Z</time>
      </trkpt>
      <trkpt lat="46.4425" lon="-1.66615">
        <ele>53.581155</ele>
        <time>2022-12-18T16:13:50.665Z</time>
      </trkpt>
      <trkpt lat="46.44246" lon="-1.66597">
        <ele>53.364305</ele>
        <time>2022-12-18T16:13:53.666Z</time>
      </trkpt>
      <trkpt lat="46.44243" lon="-1.66579">
        <ele>53.009905</ele>
        <time>2022-12-18T16:13:56.662Z</time>
      </trkpt>
      <trkpt lat="46.4424" lon="-1.6656">
        <ele>52.659691</ele>
        <time>2022-12-18T16:13:59.662Z</time>
      </trkpt>
      <trkpt lat="46.44239" lon="-1.66542">
        <ele>52.312757</ele>
        <time>2022-12-18T16:14:02.665Z</time>
      </trkpt>
      <trkpt lat="46.44237" lon="-1.66526">
        <ele>52.016977</ele>
        <time>2022-12-18T16:14:05.665Z</time>
      </trkpt>
      <trkpt lat="46.44238" lon="-1.66513">
        <ele>51.767699</ele>
        <time>2022-12-18T16:14:08.665Z</time>
      </trkpt>
      <trkpt lat="46.44243" lon="-1.665">
        <ele>51.491021</ele>
        <time>2022-12-18T16:14:12.678Z</time>
      </trkpt>
      <trkpt lat="46.44239" lon="-1.66484">
        <ele>51.171824</ele>
        <time>2022-12-18T16:14:16.717Z</time>
      </trkpt>
      <trkpt lat="46.44234" lon="-1.66472">
        <ele>50.905888</ele>
        <time>2022-12-18T16:14:19.664Z</time>
      </trkpt>
      <trkpt lat="46.44226" lon="-1.6646">
        <ele>50.602521</ele>
        <time>2022-12-18T16:14:22.721Z</time>
      </trkpt>
      <trkpt lat="46.44218" lon="-1.66448">
        <ele>50.292749</ele>
        <time>2022-12-18T16:14:25.664Z</time>
      </trkpt>
      <trkpt lat="46.44211" lon="-1.66436">
        <ele>49.999838</ele>
        <time>2022-12-18T16:14:28.713Z</time>
      </trkpt>
      <trkpt lat="46.44201" lon="-1.66428">
        <ele>49.70076</ele>
        <time>2022-12-18T16:14:32.663Z</time>
      </trkpt>
      <trkpt lat="46.44193" lon="-1.66421">
        <ele>49.445139</ele>
        <time>2022-12-18T16:14:35.662Z</time>
      </trkpt>
      <trkpt lat="46.44184" lon="-1.66411">
        <ele>49.135043</ele>
        <time>2022-12-18T16:14:38.670Z</time>
      </trkpt>
      <trkpt lat="46.44172" lon="-1.66403">
        <ele>48.78379</ele>
        <time>2022-12-18T16:14:41.666Z</time>
      </trkpt>
      <trkpt lat="46.4416" lon="-1.66395">
        <ele>48.575341</ele>
        <time>2022-12-18T16:14:44.676Z</time>
      </trkpt>
      <trkpt lat="46.44149" lon="-1.66386">
        <ele>48.463309</ele>
        <time>2022-12-18T16:14:47.669Z</time>
      </trkpt>
      <trkpt lat="46.44138" lon="-1.66378">
        <ele>48.3507</ele>
        <time>2022-12-18T16:14:50.675Z</time>
      </trkpt>
      <trkpt lat="46.44125" lon="-1.6637">
        <ele>48.233303</ele>
        <time>2022-12-18T16:14:53.663Z</time>
      </trkpt>
      <trkpt lat="46.44116" lon="-1.66361">
        <ele>48.131572</ele>
        <time>2022-12-18T16:14:56.650Z</time>
      </trkpt>
      <trkpt lat="46.44108" lon="-1.66354">
        <ele>48.045821</ele>
        <time>2022-12-18T16:14:59.665Z</time>
      </trkpt>
      <trkpt lat="46.44098" lon="-1.66356">
        <ele>47.958004</ele>
        <time>2022-12-18T16:15:03.661Z</time>
      </trkpt>
      <trkpt lat="46.44089" lon="-1.66357">
        <ele>47.871114</ele>
        <time>2022-12-18T16:15:06.658Z</time>
      </trkpt>
      <trkpt lat="46.44078" lon="-1.66352">
        <ele>47.770135</ele>
        <time>2022-12-18T16:15:09.669Z</time>
      </trkpt>
      <trkpt lat="46.44068" lon="-1.66344">
        <ele>47.668151</ele>
        <time>2022-12-18T16:15:12.667Z</time>
      </trkpt>
      <trkpt lat="46.44059" lon="-1.66335">
        <ele>47.572186</ele>
        <time>2022-12-18T16:15:15.663Z</time>
      </trkpt>
      <trkpt lat="46.4405" lon="-1.66328">
        <ele>47.484961</ele>
        <time>2022-12-18T16:15:18.662Z</time>
      </trkpt>
      <trkpt lat="46.44043" lon="-1.66321">
        <ele>47.403642</ele>
        <time>2022-12-18T16:15:22.650Z</time>
      </trkpt>
      <trkpt lat="46.44052" lon="-1.66327">
        <ele>47.313298</ele>
        <time>2022-12-18T16:15:29.647Z</time>
      </trkpt>
      <trkpt lat="46.44061" lon="-1.66336">
        <ele>47.21297</ele>
        <time>2022-12-18T16:15:33.731Z</time>
      </trkpt>
      <trkpt lat="46.4407" lon="-1.66343">
        <ele>47.126252</ele>
        <time>2022-12-18T16:15:36.666Z</time>
      </trkpt>
      <trkpt lat="46.44078" lon="-1.66349">
        <ele>47.050818</ele>
        <time>2022-12-18T16:15:39.730Z</time>
      </trkpt>
      <trkpt lat="46.44088" lon="-1.66356">
        <ele>47.171934</ele>
        <time>2022-12-18T16:15:43.665Z</time>
      </trkpt>
      <trkpt lat="46.44098" lon="-1.66357">
        <ele>47.293767</ele>
        <time>2022-12-18T16:15:48.665Z</time>
      </trkpt>
      <trkpt lat="46.44089" lon="-1.66359">
        <ele>47.403007</ele>
        <time>2022-12-18T16:15:58.662Z</time>
      </trkpt>
      <trkpt lat="46.44079" lon="-1.66352">
        <ele>47.530616</ele>
        <time>2022-12-18T16:16:01.675Z</time>
      </trkpt>
      <trkpt lat="46.44067" lon="-1.66345">
        <ele>47.675875</ele>
        <time>2022-12-18T16:16:04.666Z</time>
      </trkpt>
      <trkpt lat="46.44056" lon="-1.66335">
        <ele>47.828665</ele>
        <time>2022-12-18T16:16:07.665Z</time>
      </trkpt>
      <trkpt lat="46.44045" lon="-1.66326">
        <ele>47.975405</ele>
        <time>2022-12-18T16:16:10.654Z</time>
      </trkpt>
      <trkpt lat="46.44035" lon="-1.66316">
        <ele>48.117983</ele>
        <time>2022-12-18T16:16:13.664Z</time>
      </trkpt>
      <trkpt lat="46.44025" lon="-1.66305">
        <ele>48.260078</ele>
        <time>2022-12-18T16:16:16.643Z</time>
      </trkpt>
      <trkpt lat="46.44016" lon="-1.66294">
        <ele>48.402083</ele>
        <time>2022-12-18T16:16:19.675Z</time>
      </trkpt>
      <trkpt lat="46.44008" lon="-1.66282">
        <ele>48.535963</ele>
        <time>2022-12-18T16:16:22.671Z</time>
      </trkpt>
      <trkpt lat="46.44001" lon="-1.6627">
        <ele>48.661278</ele>
        <time>2022-12-18T16:16:25.667Z</time>
      </trkpt>
      <trkpt lat="46.43994" lon="-1.66258">
        <ele>48.782708</ele>
        <time>2022-12-18T16:16:28.665Z</time>
      </trkpt>
      <trkpt lat="46.43989" lon="-1.66247">
        <ele>48.894683</ele>
        <time>2022-12-18T16:16:31.663Z</time>
      </trkpt>
      <trkpt lat="46.43992" lon="-1.66233">
        <ele>49.012533</ele>
        <time>2022-12-18T16:16:35.665Z</time>
      </trkpt>
      <trkpt lat="46.44" lon="-1.66226">
        <ele>49.125485</ele>
        <time>2022-12-18T16:16:41.637Z</time>
      </trkpt>
      <trkpt lat="46.44004" lon="-1.66214">
        <ele>49.119787</ele>
        <time>2022-12-18T16:16:45.664Z</time>
      </trkpt>
      <trkpt lat="46.44009" lon="-1.66197">
        <ele>49.079129</ele>
        <time>2022-12-18T16:16:48.680Z</time>
      </trkpt>
      <trkpt lat="46.44014" lon="-1.66181">
        <ele>49.039479</ele>
        <time>2022-12-18T16:16:51.665Z</time>
      </trkpt>
      <trkpt lat="46.44018" lon="-1.66166">
        <ele>49.005075</ele>
        <time>2022-12-18T16:16:55.664Z</time>
      </trkpt>
      <trkpt lat="46.44022" lon="-1.66152">
        <ele>48.971245</ele>
        <time>2022-12-18T16:16:58.663Z</time>
      </trkpt>
      <trkpt lat="46.44025" lon="-1.66136">
        <ele>48.934521</ele>
        <time>2022-12-18T16:17:01.667Z</time>
      </trkpt>
      <trkpt lat="46.44026" lon="-1.66123">
        <ele>48.905202</ele>
        <time>2022-12-18T16:17:03.663Z</time>
      </trkpt>
      <trkpt lat="46.4403" lon="-1.66108">
        <ele>48.870171</ele>
        <time>2022-12-18T16:17:06.652Z</time>
      </trkpt>
      <trkpt lat="46.44033" lon="-1.66095">
        <ele>48.838698</ele>
        <time>2022-12-18T16:17:09.666Z</time>
      </trkpt>
      <trkpt lat="46.44036" lon="-1.66079">
        <ele>48.802947</ele>
        <time>2022-12-18T16:17:12.664Z</time>
      </trkpt>
      <trkpt lat="46.44038" lon="-1.66061">
        <ele>48.76186</ele>
        <time>2022-12-18T16:17:15.646Z</time>
      </trkpt>
      <trkpt lat="46.4404" lon="-1.66048">
        <ele>48.732159</ele>
        <time>2022-12-18T16:17:17.666Z</time>
      </trkpt>
      <trkpt lat="46.44042" lon="-1.66032">
        <ele>48.695715</ele>
        <time>2022-12-18T16:17:20.665Z</time>
      </trkpt>
      <trkpt lat="46.44043" lon="-1.66013">
        <ele>48.655009</ele>
        <time>2022-12-18T16:17:23.665Z</time>
      </trkpt>
      <trkpt lat="46.44043" lon="-1.65995">
        <ele>48.614408</ele>
        <time>2022-12-18T16:17:26.711Z</time>
      </trkpt>
      <trkpt lat="46.44042" lon="-1.6598">
        <ele>48.579945</ele>
        <time>2022-12-18T16:17:29.652Z</time>
      </trkpt>
      <trkpt lat="46.44039" lon="-1.65963">
        <ele>48.510095</ele>
        <time>2022-12-18T16:17:32.712Z</time>
      </trkpt>
      <trkpt lat="46.44036" lon="-1.65947">
        <ele>48.427023</ele>
        <time>2022-12-18T16:17:35.641Z</time>
      </trkpt>
      <trkpt lat="46.44032" lon="-1.65932">
        <ele>48.349957</ele>
        <time>2022-12-18T16:17:38.692Z</time>
      </trkpt>
      <trkpt lat="46.44028" lon="-1.65917">
        <ele>48.269844</ele>
        <time>2022-12-18T16:17:41.668Z</time>
      </trkpt>
      <trkpt lat="46.44024" lon="-1.65902">
        <ele>48.190729</ele>
        <time>2022-12-18T16:17:44.710Z</time>
      </trkpt>
      <trkpt lat="46.44021" lon="-1.65888">
        <ele>48.117029</ele>
        <time>2022-12-18T16:17:47.663Z</time>
      </trkpt>
      <trkpt lat="46.44018" lon="-1.65872">
        <ele>48.031363</ele>
        <time>2022-12-18T16:17:51.663Z</time>
      </trkpt>
      <trkpt lat="46.44017" lon="-1.65855">
        <ele>47.949561</ele>
        <time>2022-12-18T16:17:56.713Z</time>
      </trkpt>
      <trkpt lat="46.44017" lon="-1.6584">
        <ele>47.87584</ele>
        <time>2022-12-18T16:17:59.674Z</time>
      </trkpt>
      <trkpt lat="46.44016" lon="-1.65825">
        <ele>47.798298</ele>
        <time>2022-12-18T16:18:02.662Z</time>
      </trkpt>
      <trkpt lat="46.44015" lon="-1.6581">
        <ele>47.721748</ele>
        <time>2022-12-18T16:18:05.667Z</time>
      </trkpt>
      <trkpt lat="46.44014" lon="-1.65792">
        <ele>47.635966</ele>
        <time>2022-12-18T16:18:08.672Z</time>
      </trkpt>
      <trkpt lat="46.44014" lon="-1.65776">
        <ele>47.554266</ele>
        <time>2022-12-18T16:18:11.646Z</time>
      </trkpt>
      <trkpt lat="46.44014" lon="-1.65759">
        <ele>47.469015</ele>
        <time>2022-12-18T16:18:14.669Z</time>
      </trkpt>
      <trkpt lat="46.44013" lon="-1.65741">
        <ele>47.380328</ele>
        <time>2022-12-18T16:18:17.669Z</time>
      </trkpt>
      <trkpt lat="46.44013" lon="-1.65722">
        <ele>47.28452</ele>
        <time>2022-12-18T16:18:20.648Z</time>
      </trkpt>
      <trkpt lat="46.44012" lon="-1.65709">
        <ele>47.410825</ele>
        <time>2022-12-18T16:18:22.664Z</time>
      </trkpt>
      <trkpt lat="46.44011" lon="-1.65691">
        <ele>47.695866</ele>
        <time>2022-12-18T16:18:25.715Z</time>
      </trkpt>
      <trkpt lat="46.4401" lon="-1.65673">
        <ele>47.978356</ele>
        <time>2022-12-18T16:18:28.663Z</time>
      </trkpt>
      <trkpt lat="46.4401" lon="-1.65654">
        <ele>48.266441</ele>
        <time>2022-12-18T16:18:31.649Z</time>
      </trkpt>
      <trkpt lat="46.4401" lon="-1.65636">
        <ele>48.559054</ele>
        <time>2022-12-18T16:18:34.663Z</time>
      </trkpt>
      <trkpt lat="46.44009" lon="-1.65617">
        <ele>48.853638</ele>
        <time>2022-12-18T16:18:37.669Z</time>
      </trkpt>
      <trkpt lat="46.44009" lon="-1.65601">
        <ele>49.110036</ele>
        <time>2022-12-18T16:18:40.662Z</time>
      </trkpt>
      <trkpt lat="46.4401" lon="-1.65587">
        <ele>49.328981</ele>
        <time>2022-12-18T16:18:43.653Z</time>
      </trkpt>
      <trkpt lat="46.44009" lon="-1.65572">
        <ele>49.564974</ele>
        <time>2022-12-18T16:18:46.664Z</time>
      </trkpt>
      <trkpt lat="46.4401" lon="-1.65557">
        <ele>49.807484</ele>
        <time>2022-12-18T16:18:49.656Z</time>
      </trkpt>
      <trkpt lat="46.44011" lon="-1.65541">
        <ele>50.050113</ele>
        <time>2022-12-18T16:18:52.657Z</time>
      </trkpt>
      <trkpt lat="46.44013" lon="-1.65527">
        <ele>50.278189</ele>
        <time>2022-12-18T16:18:55.652Z</time>
      </trkpt>
      <trkpt lat="46.44015" lon="-1.65514">
        <ele>50.49449</ele>
        <time>2022-12-18T16:18:58.663Z</time>
      </trkpt>
      <trkpt lat="46.44016" lon="-1.65499">
        <ele>50.720826</ele>
        <time>2022-12-18T16:19:01.667Z</time>
      </trkpt>
      <trkpt lat="46.44018" lon="-1.65482">
        <ele>50.991363</ele>
        <time>2022-12-18T16:19:05.662Z</time>
      </trkpt>
      <trkpt lat="46.4402" lon="-1.65467">
        <ele>51.240554</ele>
        <time>2022-12-18T16:19:09.663Z</time>
      </trkpt>
      <trkpt lat="46.44022" lon="-1.65452">
        <ele>51.284497</ele>
        <time>2022-12-18T16:19:12.717Z</time>
      </trkpt>
      <trkpt lat="46.44023" lon="-1.65438">
        <ele>51.087297</ele>
        <time>2022-12-18T16:19:15.664Z</time>
      </trkpt>
      <trkpt lat="46.44025" lon="-1.65424">
        <ele>50.889427</ele>
        <time>2022-12-18T16:19:18.725Z</time>
      </trkpt>
      <trkpt lat="46.44027" lon="-1.65409">
        <ele>50.693561</ele>
        <time>2022-12-18T16:19:22.663Z</time>
      </trkpt>
      <trkpt lat="46.44028" lon="-1.65391">
        <ele>50.445341</ele>
        <time>2022-12-18T16:19:25.663Z</time>
      </trkpt>
      <trkpt lat="46.4403" lon="-1.65372">
        <ele>50.174609</ele>
        <time>2022-12-18T16:19:28.665Z</time>
      </trkpt>
      <trkpt lat="46.44031" lon="-1.65357">
        <ele>49.97097</ele>
        <time>2022-12-18T16:19:30.661Z</time>
      </trkpt>
      <trkpt lat="46.44031" lon="-1.65343">
        <ele>49.791513</ele>
        <time>2022-12-18T16:19:32.650Z</time>
      </trkpt>
      <trkpt lat="46.44031" lon="-1.6533">
        <ele>49.606924</ele>
        <time>2022-12-18T16:19:34.664Z</time>
      </trkpt>
      <trkpt lat="46.44032" lon="-1.65311">
        <ele>49.35297</ele>
        <time>2022-12-18T16:19:37.666Z</time>
      </trkpt>
      <trkpt lat="46.44032" lon="-1.65293">
        <ele>49.114139</ele>
        <time>2022-12-18T16:19:40.669Z</time>
      </trkpt>
      <trkpt lat="46.44032" lon="-1.65277">
        <ele>48.888638</ele>
        <time>2022-12-18T16:19:43.671Z</time>
      </trkpt>
      <trkpt lat="46.44037" lon="-1.65264">
        <ele>48.696681</ele>
        <time>2022-12-18T16:19:46.670Z</time>
      </trkpt>
      <trkpt lat="46.44047" lon="-1.65256">
        <ele>48.464469</ele>
        <time>2022-12-18T16:19:49.667Z</time>
      </trkpt>
      <trkpt lat="46.44058" lon="-1.65254">
        <ele>48.248184</ele>
        <time>2022-12-18T16:19:51.668Z</time>
      </trkpt>
      <trkpt lat="46.44071" lon="-1.65251">
        <ele>47.997044</ele>
        <time>2022-12-18T16:19:53.717Z</time>
      </trkpt>
      <trkpt lat="46.44083" lon="-1.65244">
        <ele>47.79885</ele>
        <time>2022-12-18T16:19:55.671Z</time>
      </trkpt>
      <trkpt lat="46.44095" lon="-1.65235">
        <ele>47.714367</ele>
        <time>2022-12-18T16:19:57.667Z</time>
      </trkpt>
      <trkpt lat="46.44106" lon="-1.65226">
        <ele>47.63413</ele>
        <time>2022-12-18T16:19:59.715Z</time>
      </trkpt>
      <trkpt lat="46.44117" lon="-1.65217">
        <ele>47.553337</ele>
        <time>2022-12-18T16:20:01.667Z</time>
      </trkpt>
      <trkpt lat="46.44126" lon="-1.65208">
        <ele>47.479974</ele>
        <time>2022-12-18T16:20:03.667Z</time>
      </trkpt>
      <trkpt lat="46.44135" lon="-1.65199">
        <ele>47.410317</ele>
        <time>2022-12-18T16:20:05.735Z</time>
      </trkpt>
      <trkpt lat="46.44143" lon="-1.6519">
        <ele>47.344735</ele>
        <time>2022-12-18T16:20:07.665Z</time>
      </trkpt>
      <trkpt lat="46.44151" lon="-1.65182">
        <ele>47.282294</ele>
        <time>2022-12-18T16:20:09.671Z</time>
      </trkpt>
      <trkpt lat="46.44159" lon="-1.65174">
        <ele>47.221184</ele>
        <time>2022-12-18T16:20:11.664Z</time>
      </trkpt>
      <trkpt lat="46.44168" lon="-1.65168">
        <ele>47.162622</ele>
        <time>2022-12-18T16:20:13.668Z</time>
      </trkpt>
      <trkpt lat="46.44179" lon="-1.65161">
        <ele>47.084863</ele>
        <time>2022-12-18T16:20:16.719Z</time>
      </trkpt>
      <trkpt lat="46.44189" lon="-1.65154">
        <ele>47.012293</ele>
        <time>2022-12-18T16:20:19.662Z</time>
      </trkpt>
      <trkpt lat="46.44199" lon="-1.65145">
        <ele>46.938805</ele>
        <time>2022-12-18T16:20:22.724Z</time>
      </trkpt>
      <trkpt lat="46.4421" lon="-1.65137">
        <ele>46.860655</ele>
        <time>2022-12-18T16:20:25.675Z</time>
      </trkpt>
      <trkpt lat="46.4422" lon="-1.65127">
        <ele>46.782145</ele>
        <time>2022-12-18T16:20:28.730Z</time>
      </trkpt>
      <trkpt lat="46.44228" lon="-1.65117">
        <ele>46.712402</ele>
        <time>2022-12-18T16:20:31.644Z</time>
      </trkpt>
      <trkpt lat="46.44233" lon="-1.65104">
        <ele>46.666155</ele>
        <time>2022-12-18T16:20:34.719Z</time>
      </trkpt>
      <trkpt lat="46.44239" lon="-1.65091">
        <ele>46.63921</ele>
        <time>2022-12-18T16:20:37.675Z</time>
      </trkpt>
      <trkpt lat="46.44247" lon="-1.65082">
        <ele>46.614372</ele>
        <time>2022-12-18T16:20:40.723Z</time>
      </trkpt>
      <trkpt lat="46.44255" lon="-1.65074">
        <ele>46.591001</ele>
        <time>2022-12-18T16:20:44.663Z</time>
      </trkpt>
      <trkpt lat="46.4426" lon="-1.65061">
        <ele>46.566361</ele>
        <time>2022-12-18T16:20:49.673Z</time>
      </trkpt>
      <trkpt lat="46.44261" lon="-1.65046">
        <ele>46.539272</ele>
        <time>2022-12-18T16:20:53.663Z</time>
      </trkpt>
      <trkpt lat="46.44262" lon="-1.65032">
        <ele>46.516176</ele>
        <time>2022-12-18T16:20:56.669Z</time>
      </trkpt>
      <trkpt lat="46.44265" lon="-1.65019">
        <ele>46.493339</ele>
        <time>2022-12-18T16:20:59.662Z</time>
      </trkpt>
      <trkpt lat="46.4427" lon="-1.65005">
        <ele>46.465618</ele>
        <time>2022-12-18T16:21:03.665Z</time>
      </trkpt>
      <trkpt lat="46.44275" lon="-1.64991">
        <ele>46.439199</ele>
        <time>2022-12-18T16:21:07.665Z</time>
      </trkpt>
      <trkpt lat="46.44278" lon="-1.64983">
        <ele>46.423875</ele>
        <time>2022-12-18T16:22:25.401Z</time>
      </trkpt>
      <trkpt lat="46.44278" lon="-1.64983">
        <ele>46.423114</ele>
        <time>2022-12-18T16:23:06.250Z</time>
      </trkpt>
      <trkpt lat="46.44283" lon="-1.64966">
        <ele>46.391048</ele>
        <time>2022-12-18T16:23:44.652Z</time>
      </trkpt>
      <trkpt lat="46.44289" lon="-1.64952">
        <ele>46.362895</ele>
        <time>2022-12-18T16:23:47.646Z</time>
      </trkpt>
      <trkpt lat="46.44294" lon="-1.64938">
        <ele>46.336836</ele>
        <time>2022-12-18T16:23:50.667Z</time>
      </trkpt>
      <trkpt lat="46.44299" lon="-1.64925">
        <ele>46.31125</ele>
        <time>2022-12-18T16:23:54.665Z</time>
      </trkpt>
      <trkpt lat="46.44303" lon="-1.6491">
        <ele>46.284262</ele>
        <time>2022-12-18T16:23:59.651Z</time>
      </trkpt>
      <trkpt lat="46.44306" lon="-1.64896">
        <ele>46.258644</ele>
        <time>2022-12-18T16:24:03.676Z</time>
      </trkpt>
      <trkpt lat="46.44308" lon="-1.64882">
        <ele>46.232085</ele>
        <time>2022-12-18T16:24:06.646Z</time>
      </trkpt>
      <trkpt lat="46.44309" lon="-1.64865">
        <ele>46.148807</ele>
        <time>2022-12-18T16:24:09.662Z</time>
      </trkpt>
      <trkpt lat="46.44309" lon="-1.6485">
        <ele>46.066773</ele>
        <time>2022-12-18T16:24:12.664Z</time>
      </trkpt>
      <trkpt lat="46.44309" lon="-1.64832">
        <ele>45.977001</ele>
        <time>2022-12-18T16:24:15.649Z</time>
      </trkpt>
      <trkpt lat="46.4431" lon="-1.64816">
        <ele>45.89216</ele>
        <time>2022-12-18T16:24:18.672Z</time>
      </trkpt>
      <trkpt lat="46.44318" lon="-1.64806">
        <ele>45.817705</ele>
        <time>2022-12-18T16:24:21.655Z</time>
      </trkpt>
      <trkpt lat="46.44328" lon="-1.64807">
        <ele>45.738848</ele>
        <time>2022-12-18T16:24:24.648Z</time>
      </trkpt>
      <trkpt lat="46.44339" lon="-1.64811">
        <ele>45.65346</ele>
        <time>2022-12-18T16:24:27.665Z</time>
      </trkpt>
      <trkpt lat="46.44351" lon="-1.64815">
        <ele>45.564547</ele>
        <time>2022-12-18T16:24:30.667Z</time>
      </trkpt>
      <trkpt lat="46.44363" lon="-1.64818">
        <ele>45.474027</ele>
        <time>2022-12-18T16:24:33.669Z</time>
      </trkpt>
      <trkpt lat="46.44374" lon="-1.64821">
        <ele>45.386806</ele>
        <time>2022-12-18T16:24:36.658Z</time>
      </trkpt>
      <trkpt lat="46.44385" lon="-1.64825">
        <ele>45.306259</ele>
        <time>2022-12-18T16:24:39.663Z</time>
      </trkpt>
      <trkpt lat="46.44396" lon="-1.64828">
        <ele>45.221945</ele>
        <time>2022-12-18T16:24:42.674Z</time>
      </trkpt>
      <trkpt lat="46.44407" lon="-1.64831">
        <ele>45.135843</ele>
        <time>2022-12-18T16:24:45.670Z</time>
      </trkpt>
      <trkpt lat="46.44418" lon="-1.64836">
        <ele>45.051715</ele>
        <time>2022-12-18T16:24:48.667Z</time>
      </trkpt>
      <trkpt lat="46.44429" lon="-1.6484">
        <ele>44.967279</ele>
        <time>2022-12-18T16:24:51.663Z</time>
      </trkpt>
      <trkpt lat="46.4444" lon="-1.64845">
        <ele>44.880633</ele>
        <time>2022-12-18T16:24:54.664Z</time>
      </trkpt>
      <trkpt lat="46.44451" lon="-1.64849">
        <ele>44.791102</ele>
        <time>2022-12-18T16:24:57.664Z</time>
      </trkpt>
      <trkpt lat="46.44463" lon="-1.64854">
        <ele>44.700413</ele>
        <time>2022-12-18T16:25:00.666Z</time>
      </trkpt>
      <trkpt lat="46.44473" lon="-1.64858">
        <ele>44.617541</ele>
        <time>2022-12-18T16:25:03.672Z</time>
      </trkpt>
      <trkpt lat="46.44483" lon="-1.64862">
        <ele>44.540787</ele>
        <time>2022-12-18T16:25:06.668Z</time>
      </trkpt>
      <trkpt lat="46.44493" lon="-1.64865">
        <ele>44.462093</ele>
        <time>2022-12-18T16:25:09.665Z</time>
      </trkpt>
      <trkpt lat="46.44504" lon="-1.64868">
        <ele>44.383318</ele>
        <time>2022-12-18T16:25:12.665Z</time>
      </trkpt>
      <trkpt lat="46.44515" lon="-1.64868">
        <ele>44.296277</ele>
        <time>2022-12-18T16:25:15.655Z</time>
      </trkpt>
      <trkpt lat="46.44528" lon="-1.64868">
        <ele>44.197877</ele>
        <time>2022-12-18T16:25:18.663Z</time>
      </trkpt>
      <trkpt lat="46.44541" lon="-1.64867">
        <ele>44.09949</ele>
        <time>2022-12-18T16:25:21.661Z</time>
      </trkpt>
      <trkpt lat="46.44554" lon="-1.64866">
        <ele>44.002497</ele>
        <time>2022-12-18T16:25:24.657Z</time>
      </trkpt>
      <trkpt lat="46.44566" lon="-1.64864">
        <ele>43.907091</ele>
        <time>2022-12-18T16:25:27.666Z</time>
      </trkpt>
      <trkpt lat="46.44579" lon="-1.64862">
        <ele>43.811065</ele>
        <time>2022-12-18T16:25:30.664Z</time>
      </trkpt>
      <trkpt lat="46.44592" lon="-1.64859">
        <ele>43.712844</ele>
        <time>2022-12-18T16:25:33.645Z</time>
      </trkpt>
      <trkpt lat="46.44605" lon="-1.64859">
        <ele>43.614466</ele>
        <time>2022-12-18T16:25:36.673Z</time>
      </trkpt>
      <trkpt lat="46.44616" lon="-1.6486">
        <ele>43.532687</ele>
        <time>2022-12-18T16:25:39.664Z</time>
      </trkpt>
      <trkpt lat="46.44625" lon="-1.6486">
        <ele>43.590006</ele>
        <time>2022-12-18T16:25:42.667Z</time>
      </trkpt>
      <trkpt lat="46.44634" lon="-1.64861">
        <ele>43.659928</ele>
        <time>2022-12-18T16:25:45.668Z</time>
      </trkpt>
      <trkpt lat="46.44645" lon="-1.64859">
        <ele>43.745312</ele>
        <time>2022-12-18T16:25:49.655Z</time>
      </trkpt>
      <trkpt lat="46.44655" lon="-1.64855">
        <ele>43.821196</ele>
        <time>2022-12-18T16:25:53.657Z</time>
      </trkpt>
      <trkpt lat="46.44663" lon="-1.64847">
        <ele>43.892731</ele>
        <time>2022-12-18T16:25:58.664Z</time>
      </trkpt>
      <trkpt lat="46.44663" lon="-1.64827">
        <ele>43.998308</ele>
        <time>2022-12-18T16:26:16.656Z</time>
      </trkpt>
      <trkpt lat="46.44653" lon="-1.6482">
        <ele>44.079907</ele>
        <time>2022-12-18T16:26:20.655Z</time>
      </trkpt>
      <trkpt lat="46.44645" lon="-1.64811">
        <ele>44.159847</ele>
        <time>2022-12-18T16:26:23.652Z</time>
      </trkpt>
      <trkpt lat="46.44637" lon="-1.64798">
        <ele>44.249555</ele>
        <time>2022-12-18T16:26:26.649Z</time>
      </trkpt>
      <trkpt lat="46.4463" lon="-1.64786">
        <ele>44.32896</ele>
        <time>2022-12-18T16:26:29.666Z</time>
      </trkpt>
      <trkpt lat="46.44623" lon="-1.64773">
        <ele>44.412003</ele>
        <time>2022-12-18T16:26:34.668Z</time>
      </trkpt>
      <trkpt lat="46.44617" lon="-1.64763">
        <ele>44.480137</ele>
        <time>2022-12-18T16:26:37.647Z</time>
      </trkpt>
      <trkpt lat="46.44612" lon="-1.64753">
        <ele>44.551412</ele>
        <time>2022-12-18T16:26:40.647Z</time>
      </trkpt>
      <trkpt lat="46.44605" lon="-1.64742">
        <ele>44.622977</ele>
        <time>2022-12-18T16:26:43.649Z</time>
      </trkpt>
      <trkpt lat="46.446" lon="-1.64731">
        <ele>44.694663</ele>
        <time>2022-12-18T16:26:46.668Z</time>
      </trkpt>
      <trkpt lat="46.44594" lon="-1.6472">
        <ele>44.765851</ele>
        <time>2022-12-18T16:26:49.677Z</time>
      </trkpt>
      <trkpt lat="46.44591" lon="-1.64706">
        <ele>44.84024</ele>
        <time>2022-12-18T16:26:52.652Z</time>
      </trkpt>
      <trkpt lat="46.44589" lon="-1.64692">
        <ele>44.927048</ele>
        <time>2022-12-18T16:26:55.664Z</time>
      </trkpt>
      <trkpt lat="46.44588" lon="-1.64678">
        <ele>45.027727</ele>
        <time>2022-12-18T16:26:58.667Z</time>
      </trkpt>
      <trkpt lat="46.44586" lon="-1.64664">
        <ele>45.125665</ele>
        <time>2022-12-18T16:27:01.666Z</time>
      </trkpt>
      <trkpt lat="46.44586" lon="-1.64649">
        <ele>45.225604</ele>
        <time>2022-12-18T16:27:04.677Z</time>
      </trkpt>
      <trkpt lat="46.44586" lon="-1.64635">
        <ele>45.325993</ele>
        <time>2022-12-18T16:27:07.668Z</time>
      </trkpt>
      <trkpt lat="46.44587" lon="-1.6462">
        <ele>45.425987</ele>
        <time>2022-12-18T16:27:10.658Z</time>
      </trkpt>
      <trkpt lat="46.44591" lon="-1.64605">
        <ele>45.536286</ele>
        <time>2022-12-18T16:27:14.668Z</time>
      </trkpt>
      <trkpt lat="46.44595" lon="-1.6459">
        <ele>45.650584</ele>
        <time>2022-12-18T16:27:18.664Z</time>
      </trkpt>
      <trkpt lat="46.44598" lon="-1.64576">
        <ele>45.755906</ele>
        <time>2022-12-18T16:27:21.667Z</time>
      </trkpt>
      <trkpt lat="46.446" lon="-1.6456">
        <ele>45.867458</ele>
        <time>2022-12-18T16:27:24.650Z</time>
      </trkpt>
      <trkpt lat="46.44602" lon="-1.64544">
        <ele>45.979256</ele>
        <time>2022-12-18T16:27:27.666Z</time>
      </trkpt>
      <trkpt lat="46.44603" lon="-1.64527">
        <ele>46.093662</ele>
        <time>2022-12-18T16:27:30.667Z</time>
      </trkpt>
      <trkpt lat="46.44605" lon="-1.64511">
        <ele>46.2076</ele>
        <time>2022-12-18T16:27:33.665Z</time>
      </trkpt>
      <trkpt lat="46.44608" lon="-1.64495">
        <ele>46.322316</ele>
        <time>2022-12-18T16:27:36.653Z</time>
      </trkpt>
      <trkpt lat="46.4461" lon="-1.64479">
        <ele>46.435078</ele>
        <time>2022-12-18T16:27:39.664Z</time>
      </trkpt>
      <trkpt lat="46.44614" lon="-1.64467">
        <ele>46.530637</ele>
        <time>2022-12-18T16:27:42.654Z</time>
      </trkpt>
      <trkpt lat="46.44621" lon="-1.64454">
        <ele>46.642061</ele>
        <time>2022-12-18T16:27:46.681Z</time>
      </trkpt>
      <trkpt lat="46.44627" lon="-1.64443">
        <ele>46.815155</ele>
        <time>2022-12-18T16:27:50.646Z</time>
      </trkpt>
      <trkpt lat="46.44637" lon="-1.64441">
        <ele>47.045004</ele>
        <time>2022-12-18T16:27:56.659Z</time>
      </trkpt>
      <trkpt lat="46.44647" lon="-1.64445">
        <ele>47.28211</ele>
        <time>2022-12-18T16:28:00.656Z</time>
      </trkpt>
      <trkpt lat="46.44657" lon="-1.64449">
        <ele>47.531934</ele>
        <time>2022-12-18T16:28:04.676Z</time>
      </trkpt>
      <trkpt lat="46.44667" lon="-1.64448">
        <ele>47.767844</ele>
        <time>2022-12-18T16:28:08.647Z</time>
      </trkpt>
      <trkpt lat="46.44677" lon="-1.64441">
        <ele>48.010083</ele>
        <time>2022-12-18T16:28:13.652Z</time>
      </trkpt>
      <trkpt lat="46.44676" lon="-1.64428">
        <ele>48.231938</ele>
        <time>2022-12-18T16:28:17.653Z</time>
      </trkpt>
      <trkpt lat="46.44675" lon="-1.64412">
        <ele>48.482678</ele>
        <time>2022-12-18T16:28:21.664Z</time>
      </trkpt>
      <trkpt lat="46.44675" lon="-1.64397">
        <ele>48.733457</ele>
        <time>2022-12-18T16:28:26.663Z</time>
      </trkpt>
      <trkpt lat="46.44676" lon="-1.64383">
        <ele>48.958655</ele>
        <time>2022-12-18T16:28:31.648Z</time>
      </trkpt>
      <trkpt lat="46.44677" lon="-1.64367">
        <ele>49.203049</ele>
        <time>2022-12-18T16:28:37.674Z</time>
      </trkpt>
      <trkpt lat="46.44676" lon="-1.64353">
        <ele>49.434831</ele>
        <time>2022-12-18T16:28:43.647Z</time>
      </trkpt>
      <trkpt lat="46.44676" lon="-1.64337">
        <ele>49.685708</ele>
        <time>2022-12-18T16:28:49.658Z</time>
      </trkpt>
      <trkpt lat="46.44676" lon="-1.64324">
        <ele>49.899526</ele>
        <time>2022-12-18T16:28:54.657Z</time>
      </trkpt>
      <trkpt lat="46.44676" lon="-1.64309">
        <ele>50.143886</ele>
        <time>2022-12-18T16:29:00.650Z</time>
      </trkpt>
      <trkpt lat="46.44676" lon="-1.64295">
        <ele>50.360957</ele>
        <time>2022-12-18T16:29:05.654Z</time>
      </trkpt>
      <trkpt lat="46.44676" lon="-1.6428">
        <ele>50.615047</ele>
        <time>2022-12-18T16:29:11.650Z</time>
      </trkpt>
      <trkpt lat="46.44676" lon="-1.64264">
        <ele>50.859575</ele>
        <time>2022-12-18T16:29:16.662Z</time>
      </trkpt>
      <trkpt lat="46.44675" lon="-1.6425">
        <ele>50.928712</ele>
        <time>2022-12-18T16:29:20.649Z</time>
      </trkpt>
      <trkpt lat="46.44676" lon="-1.64234">
        <ele>50.984445</ele>
        <time>2022-12-18T16:29:24.664Z</time>
      </trkpt>
      <trkpt lat="46.44675" lon="-1.64217">
        <ele>51.042367</ele>
        <time>2022-12-18T16:29:28.667Z</time>
      </trkpt>
      <trkpt lat="46.44674" lon="-1.64202">
        <ele>51.097445</ele>
        <time>2022-12-18T16:29:32.665Z</time>
      </trkpt>
      <trkpt lat="46.44674" lon="-1.64188">
        <ele>51.146118</ele>
        <time>2022-12-18T16:29:36.648Z</time>
      </trkpt>
      <trkpt lat="46.4468" lon="-1.64174">
        <ele>51.20226</ele>
        <time>2022-12-18T16:29:41.659Z</time>
      </trkpt>
      <trkpt lat="46.4469" lon="-1.6417">
        <ele>51.25791</ele>
        <time>2022-12-18T16:29:45.666Z</time>
      </trkpt>
      <trkpt lat="46.44698" lon="-1.64159">
        <ele>51.311933</ele>
        <time>2022-12-18T16:29:49.650Z</time>
      </trkpt>
      <trkpt lat="46.44702" lon="-1.64147">
        <ele>51.359173</ele>
        <time>2022-12-18T16:29:52.652Z</time>
      </trkpt>
      <trkpt lat="46.44705" lon="-1.64132">
        <ele>51.412191</ele>
        <time>2022-12-18T16:29:55.665Z</time>
      </trkpt>
      <trkpt lat="46.44708" lon="-1.64117">
        <ele>51.468022</ele>
        <time>2022-12-18T16:29:58.666Z</time>
      </trkpt>
      <trkpt lat="46.44711" lon="-1.64101">
        <ele>51.527074</ele>
        <time>2022-12-18T16:30:01.669Z</time>
      </trkpt>
      <trkpt lat="46.44715" lon="-1.64084">
        <ele>51.589843</ele>
        <time>2022-12-18T16:30:04.676Z</time>
      </trkpt>
      <trkpt lat="46.44718" lon="-1.64067">
        <ele>51.654066</ele>
        <time>2022-12-18T16:30:07.670Z</time>
      </trkpt>
      <trkpt lat="46.44722" lon="-1.6405">
        <ele>51.716762</ele>
        <time>2022-12-18T16:30:10.674Z</time>
      </trkpt>
      <trkpt lat="46.44726" lon="-1.64032">
        <ele>51.780888</ele>
        <time>2022-12-18T16:30:13.665Z</time>
      </trkpt>
      <trkpt lat="46.44729" lon="-1.64016">
        <ele>51.813006</ele>
        <time>2022-12-18T16:30:16.666Z</time>
      </trkpt>
      <trkpt lat="46.44733" lon="-1.64">
        <ele>51.829358</ele>
        <time>2022-12-18T16:30:19.667Z</time>
      </trkpt>
      <trkpt lat="46.44737" lon="-1.63984">
        <ele>51.845848</ele>
        <time>2022-12-18T16:30:22.657Z</time>
      </trkpt>
      <trkpt lat="46.4474" lon="-1.63968">
        <ele>51.862549</ele>
        <time>2022-12-18T16:30:25.666Z</time>
      </trkpt>
      <trkpt lat="46.44744" lon="-1.63952">
        <ele>51.879209</ele>
        <time>2022-12-18T16:30:28.673Z</time>
      </trkpt>
      <trkpt lat="46.44747" lon="-1.63936">
        <ele>51.895395</ele>
        <time>2022-12-18T16:30:31.675Z</time>
      </trkpt>
      <trkpt lat="46.4475" lon="-1.6392">
        <ele>51.9117</ele>
        <time>2022-12-18T16:30:34.677Z</time>
      </trkpt>
      <trkpt lat="46.44753" lon="-1.63904">
        <ele>51.9276</ele>
        <time>2022-12-18T16:30:37.668Z</time>
      </trkpt>
      <trkpt lat="46.44757" lon="-1.63889">
        <ele>51.9437</ele>
        <time>2022-12-18T16:30:40.648Z</time>
      </trkpt>
      <trkpt lat="46.4476" lon="-1.63873">
        <ele>51.959716</ele>
        <time>2022-12-18T16:30:43.673Z</time>
      </trkpt>
      <trkpt lat="46.44764" lon="-1.63856">
        <ele>51.976604</ele>
        <time>2022-12-18T16:30:46.672Z</time>
      </trkpt>
      <trkpt lat="46.44768" lon="-1.6384">
        <ele>51.993622</ele>
        <time>2022-12-18T16:30:49.670Z</time>
      </trkpt>
      <trkpt lat="46.44772" lon="-1.63824">
        <ele>52.010188</ele>
        <time>2022-12-18T16:30:52.665Z</time>
      </trkpt>
      <trkpt lat="46.44775" lon="-1.63807">
        <ele>52.027721</ele>
        <time>2022-12-18T16:30:55.670Z</time>
      </trkpt>
      <trkpt lat="46.44779" lon="-1.6379">
        <ele>52.045132</ele>
        <time>2022-12-18T16:30:58.665Z</time>
      </trkpt>
      <trkpt lat="46.44782" lon="-1.63774">
        <ele>52.020327</ele>
        <time>2022-12-18T16:31:01.658Z</time>
      </trkpt>
      <trkpt lat="46.44786" lon="-1.63757">
        <ele>51.879446</ele>
        <time>2022-12-18T16:31:04.676Z</time>
      </trkpt>
      <trkpt lat="46.4479" lon="-1.6374">
        <ele>51.738224</ele>
        <time>2022-12-18T16:31:07.652Z</time>
      </trkpt>
      <trkpt lat="46.44793" lon="-1.63725">
        <ele>51.615389</ele>
        <time>2022-12-18T16:31:10.665Z</time>
      </trkpt>
      <trkpt lat="46.44796" lon="-1.63712">
        <ele>51.51091</ele>
        <time>2022-12-18T16:31:13.667Z</time>
      </trkpt>
      <trkpt lat="46.44799" lon="-1.63695">
        <ele>51.369478</ele>
        <time>2022-12-18T16:31:16.655Z</time>
      </trkpt>
      <trkpt lat="46.44803" lon="-1.63677">
        <ele>51.218405</ele>
        <time>2022-12-18T16:31:19.681Z</time>
      </trkpt>
      <trkpt lat="46.44806" lon="-1.63664">
        <ele>51.109799</ele>
        <time>2022-12-18T16:31:21.666Z</time>
      </trkpt>
      <trkpt lat="46.4481" lon="-1.63647">
        <ele>50.969676</ele>
        <time>2022-12-18T16:31:24.668Z</time>
      </trkpt>
      <trkpt lat="46.44813" lon="-1.6363">
        <ele>50.831908</ele>
        <time>2022-12-18T16:31:27.678Z</time>
      </trkpt>
      <trkpt lat="46.44816" lon="-1.63613">
        <ele>50.68728</ele>
        <time>2022-12-18T16:31:30.672Z</time>
      </trkpt>
      <trkpt lat="46.44818" lon="-1.63595">
        <ele>50.546163</ele>
        <time>2022-12-18T16:31:33.667Z</time>
      </trkpt>
      <trkpt lat="46.44819" lon="-1.63576">
        <ele>50.39933</ele>
        <time>2022-12-18T16:31:36.648Z</time>
      </trkpt>
      <trkpt lat="46.44817" lon="-1.63558">
        <ele>50.248873</ele>
        <time>2022-12-18T16:31:39.656Z</time>
      </trkpt>
      <trkpt lat="46.44814" lon="-1.63542">
        <ele>50.117333</ele>
        <time>2022-12-18T16:31:42.644Z</time>
      </trkpt>
      <trkpt lat="46.44809" lon="-1.63526">
        <ele>49.983979</ele>
        <time>2022-12-18T16:31:45.658Z</time>
      </trkpt>
      <trkpt lat="46.44805" lon="-1.63511">
        <ele>49.782097</ele>
        <time>2022-12-18T16:31:48.664Z</time>
      </trkpt>
      <trkpt lat="46.44801" lon="-1.63494">
        <ele>49.568457</ele>
        <time>2022-12-18T16:31:51.670Z</time>
      </trkpt>
      <trkpt lat="46.44796" lon="-1.63476">
        <ele>49.339588</ele>
        <time>2022-12-18T16:31:54.675Z</time>
      </trkpt>
      <trkpt lat="46.44792" lon="-1.63464">
        <ele>49.179397</ele>
        <time>2022-12-18T16:31:56.682Z</time>
      </trkpt>
      <trkpt lat="46.44789" lon="-1.63451">
        <ele>49.013208</ele>
        <time>2022-12-18T16:31:58.667Z</time>
      </trkpt>
      <trkpt lat="46.44785" lon="-1.63438">
        <ele>48.847649</ele>
        <time>2022-12-18T16:32:00.666Z</time>
      </trkpt>
      <trkpt lat="46.44782" lon="-1.63426">
        <ele>48.683688</ele>
        <time>2022-12-18T16:32:02.679Z</time>
      </trkpt>
      <trkpt lat="46.44779" lon="-1.63413">
        <ele>48.527047</ele>
        <time>2022-12-18T16:32:04.666Z</time>
      </trkpt>
      <trkpt lat="46.44775" lon="-1.63401">
        <ele>48.361763</ele>
        <time>2022-12-18T16:32:06.669Z</time>
      </trkpt>
      <trkpt lat="46.44772" lon="-1.63388">
        <ele>48.205357</ele>
        <time>2022-12-18T16:32:08.666Z</time>
      </trkpt>
      <trkpt lat="46.44768" lon="-1.63376">
        <ele>48.045166</ele>
        <time>2022-12-18T16:32:10.665Z</time>
      </trkpt>
      <trkpt lat="46.44763" lon="-1.63359">
        <ele>47.824397</ele>
        <time>2022-12-18T16:32:13.673Z</time>
      </trkpt>
      <trkpt lat="46.44759" lon="-1.63343">
        <ele>47.616779</ele>
        <time>2022-12-18T16:32:16.670Z</time>
      </trkpt>
      <trkpt lat="46.44754" lon="-1.63326">
        <ele>47.397413</ele>
        <time>2022-12-18T16:32:19.665Z</time>
      </trkpt>
      <trkpt lat="46.44748" lon="-1.63309">
        <ele>47.165373</ele>
        <time>2022-12-18T16:32:22.660Z</time>
      </trkpt>
      <trkpt lat="46.44743" lon="-1.63291">
        <ele>46.933617</ele>
        <time>2022-12-18T16:32:25.663Z</time>
      </trkpt>
      <trkpt lat="46.44739" lon="-1.63276">
        <ele>46.75504</ele>
        <time>2022-12-18T16:32:28.671Z</time>
      </trkpt>
      <trkpt lat="46.44735" lon="-1.63262">
        <ele>46.603711</ele>
        <time>2022-12-18T16:32:31.654Z</time>
      </trkpt>
      <trkpt lat="46.44729" lon="-1.63249">
        <ele>46.433702</ele>
        <time>2022-12-18T16:32:35.646Z</time>
      </trkpt>
      <trkpt lat="46.44719" lon="-1.63248">
        <ele>46.289558</ele>
        <time>2022-12-18T16:32:39.664Z</time>
      </trkpt>
      <trkpt lat="46.4471" lon="-1.63248">
        <ele>46.147271</ele>
        <time>2022-12-18T16:32:42.670Z</time>
      </trkpt>
      <trkpt lat="46.44699" lon="-1.63247">
        <ele>45.972927</ele>
        <time>2022-12-18T16:32:45.662Z</time>
      </trkpt>
      <trkpt lat="46.44687" lon="-1.63246">
        <ele>45.795671</ele>
        <time>2022-12-18T16:32:48.651Z</time>
      </trkpt>
      <trkpt lat="46.44674" lon="-1.63246">
        <ele>45.595901</ele>
        <time>2022-12-18T16:32:51.666Z</time>
      </trkpt>
      <trkpt lat="46.44664" lon="-1.63246">
        <ele>45.455162</ele>
        <time>2022-12-18T16:32:53.667Z</time>
      </trkpt>
      <trkpt lat="46.44655" lon="-1.63245">
        <ele>45.31713</ele>
        <time>2022-12-18T16:32:55.672Z</time>
      </trkpt>
      <trkpt lat="46.44645" lon="-1.63244">
        <ele>45.16859</ele>
        <time>2022-12-18T16:32:57.671Z</time>
      </trkpt>
      <trkpt lat="46.44635" lon="-1.63243">
        <ele>45.016652</ele>
        <time>2022-12-18T16:32:59.668Z</time>
      </trkpt>
      <trkpt lat="46.44626" lon="-1.63243">
        <ele>44.869844</ele>
        <time>2022-12-18T16:33:01.667Z</time>
      </trkpt>
      <trkpt lat="46.44615" lon="-1.63242">
        <ele>44.712113</ele>
        <time>2022-12-18T16:33:03.670Z</time>
      </trkpt>
      <trkpt lat="46.44605" lon="-1.63242">
        <ele>44.553129</ele>
        <time>2022-12-18T16:33:05.664Z</time>
      </trkpt>
      <trkpt lat="46.44595" lon="-1.63241">
        <ele>44.401739</ele>
        <time>2022-12-18T16:33:07.667Z</time>
      </trkpt>
      <trkpt lat="46.44586" lon="-1.63239">
        <ele>44.258606</ele>
        <time>2022-12-18T16:33:09.651Z</time>
      </trkpt>
      <trkpt lat="46.44576" lon="-1.63239">
        <ele>44.140136</ele>
        <time>2022-12-18T16:33:11.679Z</time>
      </trkpt>
      <trkpt lat="46.44564" lon="-1.63233">
        <ele>44.152904</ele>
        <time>2022-12-18T16:33:14.653Z</time>
      </trkpt>
      <trkpt lat="46.44557" lon="-1.6322">
        <ele>44.164476</ele>
        <time>2022-12-18T16:33:17.655Z</time>
      </trkpt>
      <trkpt lat="46.44554" lon="-1.63206">
        <ele>44.175057</ele>
        <time>2022-12-18T16:33:20.657Z</time>
      </trkpt>
      <trkpt lat="46.4455" lon="-1.63191">
        <ele>44.186284</ele>
        <time>2022-12-18T16:33:23.651Z</time>
      </trkpt>
      <trkpt lat="46.44545" lon="-1.63176">
        <ele>44.198173</ele>
        <time>2022-12-18T16:33:26.669Z</time>
      </trkpt>
      <trkpt lat="46.44538" lon="-1.63164">
        <ele>44.209603</ele>
        <time>2022-12-18T16:33:29.658Z</time>
      </trkpt>
      <trkpt lat="46.4453" lon="-1.63151">
        <ele>44.221619</ele>
        <time>2022-12-18T16:33:32.665Z</time>
      </trkpt>
      <trkpt lat="46.4452" lon="-1.6314">
        <ele>44.234456</ele>
        <time>2022-12-18T16:33:35.649Z</time>
      </trkpt>
      <trkpt lat="46.44509" lon="-1.63129">
        <ele>44.247734</ele>
        <time>2022-12-18T16:33:38.667Z</time>
      </trkpt>
      <trkpt lat="46.44499" lon="-1.63119">
        <ele>44.260384</ele>
        <time>2022-12-18T16:33:41.666Z</time>
      </trkpt>
      <trkpt lat="46.4449" lon="-1.6311">
        <ele>44.271514</ele>
        <time>2022-12-18T16:33:44.665Z</time>
      </trkpt>
      <trkpt lat="46.44481" lon="-1.631">
        <ele>44.283169</ele>
        <time>2022-12-18T16:33:47.670Z</time>
      </trkpt>
      <trkpt lat="46.44472" lon="-1.63091">
        <ele>44.294783</ele>
        <time>2022-12-18T16:33:50.666Z</time>
      </trkpt>
      <trkpt lat="46.44462" lon="-1.63081">
        <ele>44.306659</ele>
        <time>2022-12-18T16:33:53.667Z</time>
      </trkpt>
      <trkpt lat="46.44453" lon="-1.63072">
        <ele>44.3179</ele>
        <time>2022-12-18T16:33:56.665Z</time>
      </trkpt>
      <trkpt lat="46.44446" lon="-1.63063">
        <ele>44.343135</ele>
        <time>2022-12-18T16:33:59.657Z</time>
      </trkpt>
      <trkpt lat="46.4444" lon="-1.63051">
        <ele>44.385062</ele>
        <time>2022-12-18T16:34:02.651Z</time>
      </trkpt>
      <trkpt lat="46.44433" lon="-1.63039">
        <ele>44.433597</ele>
        <time>2022-12-18T16:34:06.671Z</time>
      </trkpt>
      <trkpt lat="46.44427" lon="-1.63024">
        <ele>44.482699</ele>
        <time>2022-12-18T16:34:10.646Z</time>
      </trkpt>
      <trkpt lat="46.44422" lon="-1.63012">
        <ele>44.521928</ele>
        <time>2022-12-18T16:34:13.667Z</time>
      </trkpt>
      <trkpt lat="46.44416" lon="-1.62998">
        <ele>44.570882</ele>
        <time>2022-12-18T16:34:17.665Z</time>
      </trkpt>
      <trkpt lat="46.44412" lon="-1.62984">
        <ele>44.613302</ele>
        <time>2022-12-18T16:34:21.650Z</time>
      </trkpt>
      <trkpt lat="46.44408" lon="-1.62973">
        <ele>44.651643</ele>
        <time>2022-12-18T16:34:25.663Z</time>
      </trkpt>
      <trkpt lat="46.44402" lon="-1.62962">
        <ele>44.691418</ele>
        <time>2022-12-18T16:34:30.647Z</time>
      </trkpt>
      <trkpt lat="46.44393" lon="-1.62962">
        <ele>44.731049</ele>
        <time>2022-12-18T16:34:34.652Z</time>
      </trkpt>
      <trkpt lat="46.4438" lon="-1.62962">
        <ele>44.782058</ele>
        <time>2022-12-18T16:34:38.674Z</time>
      </trkpt>
      <trkpt lat="46.4437" lon="-1.62961">
        <ele>44.826767</ele>
        <time>2022-12-18T16:34:41.667Z</time>
      </trkpt>
      <trkpt lat="46.44358" lon="-1.62961">
        <ele>44.876159</ele>
        <time>2022-12-18T16:34:44.672Z</time>
      </trkpt>
      <trkpt lat="46.44346" lon="-1.6296">
        <ele>44.926333</ele>
        <time>2022-12-18T16:34:47.675Z</time>
      </trkpt>
      <trkpt lat="46.44335" lon="-1.6296">
        <ele>44.973973</ele>
        <time>2022-12-18T16:34:50.678Z</time>
      </trkpt>
      <trkpt lat="46.44324" lon="-1.62961">
        <ele>45.019084</ele>
        <time>2022-12-18T16:34:53.665Z</time>
      </trkpt>
      <trkpt lat="46.44315" lon="-1.6296">
        <ele>45.059591</ele>
        <time>2022-12-18T16:34:56.677Z</time>
      </trkpt>
      <trkpt lat="46.44304" lon="-1.6296">
        <ele>45.087344</ele>
        <time>2022-12-18T16:35:00.678Z</time>
      </trkpt>
      <trkpt lat="46.44295" lon="-1.62959">
        <ele>45.097997</ele>
        <time>2022-12-18T16:35:03.651Z</time>
      </trkpt>
      <trkpt lat="46.44285" lon="-1.62957">
        <ele>45.1097</ele>
        <time>2022-12-18T16:35:06.651Z</time>
      </trkpt>
      <trkpt lat="46.44276" lon="-1.62952">
        <ele>45.121766</ele>
        <time>2022-12-18T16:35:09.653Z</time>
      </trkpt>
      <trkpt lat="46.44267" lon="-1.62946">
        <ele>45.132958</ele>
        <time>2022-12-18T16:35:12.653Z</time>
      </trkpt>
      <trkpt lat="46.44259" lon="-1.62939">
        <ele>45.143697</ele>
        <time>2022-12-18T16:35:16.659Z</time>
      </trkpt>
      <trkpt lat="46.4425" lon="-1.62935">
        <ele>45.155097</ele>
        <time>2022-12-18T16:35:20.655Z</time>
      </trkpt>
      <trkpt lat="46.44241" lon="-1.62931">
        <ele>45.166229</ele>
        <time>2022-12-18T16:35:23.672Z</time>
      </trkpt>
      <trkpt lat="46.44231" lon="-1.62933">
        <ele>45.178633</ele>
        <time>2022-12-18T16:35:26.651Z</time>
      </trkpt>
      <trkpt lat="46.44219" lon="-1.62934">
        <ele>45.192568</ele>
        <time>2022-12-18T16:35:29.647Z</time>
      </trkpt>
      <trkpt lat="46.44207" lon="-1.62934">
        <ele>45.206142</ele>
        <time>2022-12-18T16:35:32.670Z</time>
      </trkpt>
      <trkpt lat="46.44197" lon="-1.62933">
        <ele>45.218548</ele>
        <time>2022-12-18T16:35:35.654Z</time>
      </trkpt>
      <trkpt lat="46.44187" lon="-1.62931">
        <ele>45.230264</ele>
        <time>2022-12-18T16:35:38.646Z</time>
      </trkpt>
      <trkpt lat="46.44177" lon="-1.62926">
        <ele>45.243049</ele>
        <time>2022-12-18T16:35:42.664Z</time>
      </trkpt>
      <trkpt lat="46.44174" lon="-1.62913">
        <ele>45.25423</ele>
        <time>2022-12-18T16:35:48.644Z</time>
      </trkpt>
      <trkpt lat="46.44173" lon="-1.62899">
        <ele>45.265205</ele>
        <time>2022-12-18T16:35:53.656Z</time>
      </trkpt>
      <trkpt lat="46.44169" lon="-1.62884">
        <ele>45.278708</ele>
        <time>2022-12-18T16:35:57.653Z</time>
      </trkpt>
      <trkpt lat="46.44165" lon="-1.6287">
        <ele>45.290599</ele>
        <time>2022-12-18T16:36:00.664Z</time>
      </trkpt>
      <trkpt lat="46.44162" lon="-1.62856">
        <ele>45.345885</ele>
        <time>2022-12-18T16:36:03.647Z</time>
      </trkpt>
      <trkpt lat="46.44159" lon="-1.62841">
        <ele>45.416262</ele>
        <time>2022-12-18T16:36:06.663Z</time>
      </trkpt>
      <trkpt lat="46.44157" lon="-1.62827">
        <ele>45.480795</ele>
        <time>2022-12-18T16:36:09.655Z</time>
      </trkpt>
      <trkpt lat="46.44156" lon="-1.62813">
        <ele>45.543935</ele>
        <time>2022-12-18T16:36:13.650Z</time>
      </trkpt>
      <trkpt lat="46.44156" lon="-1.62809">
        <ele>45.559579</ele>
        <time>2022-12-18T16:36:32.920Z</time>
      </trkpt>
      <trkpt lat="46.44158" lon="-1.62796">
        <ele>45.621037</ele>
        <time>2022-12-18T16:38:34.652Z</time>
      </trkpt>
      <trkpt lat="46.44165" lon="-1.62787">
        <ele>45.681643</ele>
        <time>2022-12-18T16:38:38.648Z</time>
      </trkpt>
      <trkpt lat="46.44174" lon="-1.62776">
        <ele>45.757796</ele>
        <time>2022-12-18T16:38:42.669Z</time>
      </trkpt>
      <trkpt lat="46.44182" lon="-1.62768">
        <ele>45.820794</ele>
        <time>2022-12-18T16:38:45.676Z</time>
      </trkpt>
      <trkpt lat="46.4419" lon="-1.6276">
        <ele>45.881955</ele>
        <time>2022-12-18T16:38:48.669Z</time>
      </trkpt>
      <trkpt lat="46.44198" lon="-1.62752">
        <ele>45.942608</ele>
        <time>2022-12-18T16:38:51.651Z</time>
      </trkpt>
      <trkpt lat="46.44204" lon="-1.62741">
        <ele>46.008762</ele>
        <time>2022-12-18T16:38:54.660Z</time>
      </trkpt>
      <trkpt lat="46.44208" lon="-1.62726">
        <ele>46.082319</ele>
        <time>2022-12-18T16:38:57.657Z</time>
      </trkpt>
      <trkpt lat="46.44209" lon="-1.62709">
        <ele>46.156112</ele>
        <time>2022-12-18T16:39:00.649Z</time>
      </trkpt>
      <trkpt lat="46.44207" lon="-1.62693">
        <ele>46.230881</ele>
        <time>2022-12-18T16:39:03.663Z</time>
      </trkpt>
      <trkpt lat="46.44205" lon="-1.62676">
        <ele>46.309394</ele>
        <time>2022-12-18T16:39:06.668Z</time>
      </trkpt>
      <trkpt lat="46.44204" lon="-1.62659">
        <ele>46.385398</ele>
        <time>2022-12-18T16:39:09.668Z</time>
      </trkpt>
      <trkpt lat="46.44202" lon="-1.62642">
        <ele>46.458738</ele>
        <time>2022-12-18T16:39:12.665Z</time>
      </trkpt>
      <trkpt lat="46.44201" lon="-1.62627">
        <ele>46.390462</ele>
        <time>2022-12-18T16:39:15.680Z</time>
      </trkpt>
      <trkpt lat="46.44199" lon="-1.6261">
        <ele>46.316647</ele>
        <time>2022-12-18T16:39:18.678Z</time>
      </trkpt>
      <trkpt lat="46.44196" lon="-1.62594">
        <ele>46.244024</ele>
        <time>2022-12-18T16:39:21.672Z</time>
      </trkpt>
      <trkpt lat="46.44192" lon="-1.62577">
        <ele>46.164827</ele>
        <time>2022-12-18T16:39:24.655Z</time>
      </trkpt>
      <trkpt lat="46.44189" lon="-1.62561">
        <ele>46.089582</ele>
        <time>2022-12-18T16:39:27.663Z</time>
      </trkpt>
      <trkpt lat="46.44185" lon="-1.62544">
        <ele>46.007655</ele>
        <time>2022-12-18T16:39:30.671Z</time>
      </trkpt>
      <trkpt lat="46.4418" lon="-1.62528">
        <ele>45.93016</ele>
        <time>2022-12-18T16:39:33.675Z</time>
      </trkpt>
      <trkpt lat="46.44173" lon="-1.62512">
        <ele>45.850535</ele>
        <time>2022-12-18T16:39:36.668Z</time>
      </trkpt>
      <trkpt lat="46.44168" lon="-1.62497">
        <ele>45.77373</ele>
        <time>2022-12-18T16:39:39.665Z</time>
      </trkpt>
      <trkpt lat="46.44166" lon="-1.6248">
        <ele>45.699245</ele>
        <time>2022-12-18T16:39:42.658Z</time>
      </trkpt>
      <trkpt lat="46.44167" lon="-1.62465">
        <ele>45.629421</ele>
        <time>2022-12-18T16:39:45.647Z</time>
      </trkpt>
      <trkpt lat="46.44169" lon="-1.62449">
        <ele>45.560593</ele>
        <time>2022-12-18T16:39:48.658Z</time>
      </trkpt>
      <trkpt lat="46.44171" lon="-1.62435">
        <ele>45.496715</ele>
        <time>2022-12-18T16:39:51.669Z</time>
      </trkpt>
      <trkpt lat="46.44174" lon="-1.62421">
        <ele>45.43288</ele>
        <time>2022-12-18T16:39:54.647Z</time>
      </trkpt>
      <trkpt lat="46.44176" lon="-1.62407">
        <ele>45.366046</ele>
        <time>2022-12-18T16:39:57.666Z</time>
      </trkpt>
      <trkpt lat="46.44178" lon="-1.62392">
        <ele>45.304602</ele>
        <time>2022-12-18T16:40:00.668Z</time>
      </trkpt>
      <trkpt lat="46.4418" lon="-1.62377">
        <ele>45.40899</ele>
        <time>2022-12-18T16:40:03.667Z</time>
      </trkpt>
      <trkpt lat="46.4418" lon="-1.62362">
        <ele>45.514004</ele>
        <time>2022-12-18T16:40:06.667Z</time>
      </trkpt>
      <trkpt lat="46.44179" lon="-1.62346">
        <ele>45.62561</ele>
        <time>2022-12-18T16:40:09.657Z</time>
      </trkpt>
      <trkpt lat="46.44175" lon="-1.6233">
        <ele>45.7407</ele>
        <time>2022-12-18T16:40:12.659Z</time>
      </trkpt>
      <trkpt lat="46.44171" lon="-1.62315">
        <ele>45.855147</ele>
        <time>2022-12-18T16:40:15.650Z</time>
      </trkpt>
      <trkpt lat="46.44167" lon="-1.62299">
        <ele>45.969068</ele>
        <time>2022-12-18T16:40:18.668Z</time>
      </trkpt>
      <trkpt lat="46.44162" lon="-1.62284">
        <ele>46.084634</ele>
        <time>2022-12-18T16:40:21.651Z</time>
      </trkpt>
      <trkpt lat="46.44159" lon="-1.62269">
        <ele>46.192588</ele>
        <time>2022-12-18T16:40:24.655Z</time>
      </trkpt>
      <trkpt lat="46.44154" lon="-1.62254">
        <ele>46.299745</ele>
        <time>2022-12-18T16:40:28.668Z</time>
      </trkpt>
      <trkpt lat="46.44152" lon="-1.62239">
        <ele>46.409357</ele>
        <time>2022-12-18T16:40:32.652Z</time>
      </trkpt>
      <trkpt lat="46.44149" lon="-1.62226">
        <ele>46.504416</ele>
        <time>2022-12-18T16:40:35.667Z</time>
      </trkpt>
      <trkpt lat="46.44145" lon="-1.62211">
        <ele>46.610426</ele>
        <time>2022-12-18T16:40:38.665Z</time>
      </trkpt>
      <trkpt lat="46.44141" lon="-1.62197">
        <ele>46.714089</ele>
        <time>2022-12-18T16:40:41.666Z</time>
      </trkpt>
      <trkpt lat="46.44137" lon="-1.62183">
        <ele>46.821927</ele>
        <time>2022-12-18T16:40:44.667Z</time>
      </trkpt>
      <trkpt lat="46.44133" lon="-1.62168">
        <ele>46.932679</ele>
        <time>2022-12-18T16:40:47.671Z</time>
      </trkpt>
      <trkpt lat="46.44128" lon="-1.62153">
        <ele>47.041708</ele>
        <time>2022-12-18T16:40:50.672Z</time>
      </trkpt>
      <trkpt lat="46.44123" lon="-1.62138">
        <ele>47.053495</ele>
        <time>2022-12-18T16:40:53.665Z</time>
      </trkpt>
      <trkpt lat="46.44118" lon="-1.62122">
        <ele>46.976741</ele>
        <time>2022-12-18T16:40:56.668Z</time>
      </trkpt>
      <trkpt lat="46.44112" lon="-1.62105">
        <ele>46.895022</ele>
        <time>2022-12-18T16:40:59.665Z</time>
      </trkpt>
      <trkpt lat="46.44108" lon="-1.62093">
        <ele>46.837982</ele>
        <time>2022-12-18T16:41:01.668Z</time>
      </trkpt>
      <trkpt lat="46.44104" lon="-1.62081">
        <ele>46.779904</ele>
        <time>2022-12-18T16:41:03.669Z</time>
      </trkpt>
      <trkpt lat="46.441" lon="-1.62068">
        <ele>46.721212</ele>
        <time>2022-12-18T16:41:05.664Z</time>
      </trkpt>
      <trkpt lat="46.44096" lon="-1.62055">
        <ele>46.658944</ele>
        <time>2022-12-18T16:41:07.648Z</time>
      </trkpt>
      <trkpt lat="46.44093" lon="-1.62042">
        <ele>46.599945</ele>
        <time>2022-12-18T16:41:09.654Z</time>
      </trkpt>
      <trkpt lat="46.4409" lon="-1.62028">
        <ele>46.537213</ele>
        <time>2022-12-18T16:41:11.669Z</time>
      </trkpt>
      <trkpt lat="46.44088" lon="-1.62013">
        <ele>46.474016</ele>
        <time>2022-12-18T16:41:13.657Z</time>
      </trkpt>
      <trkpt lat="46.44088" lon="-1.61998">
        <ele>46.409663</ele>
        <time>2022-12-18T16:41:15.659Z</time>
      </trkpt>
      <trkpt lat="46.44089" lon="-1.61983">
        <ele>46.345423</ele>
        <time>2022-12-18T16:41:17.655Z</time>
      </trkpt>
      <trkpt lat="46.44091" lon="-1.61968">
        <ele>46.283402</ele>
        <time>2022-12-18T16:41:19.663Z</time>
      </trkpt>
      <trkpt lat="46.44093" lon="-1.61955">
        <ele>46.225419</ele>
        <time>2022-12-18T16:41:21.669Z</time>
      </trkpt>
      <trkpt lat="46.44097" lon="-1.61938">
        <ele>46.147464</ele>
        <time>2022-12-18T16:41:24.655Z</time>
      </trkpt>
      <trkpt lat="46.44101" lon="-1.6192">
        <ele>46.06895</ele>
        <time>2022-12-18T16:41:27.668Z</time>
      </trkpt>
      <trkpt lat="46.44105" lon="-1.61902">
        <ele>45.986208</ele>
        <time>2022-12-18T16:41:30.667Z</time>
      </trkpt>
      <trkpt lat="46.44107" lon="-1.61889">
        <ele>46.021496</ele>
        <time>2022-12-18T16:41:32.651Z</time>
      </trkpt>
      <trkpt lat="46.4411" lon="-1.6187">
        <ele>46.085182</ele>
        <time>2022-12-18T16:41:35.668Z</time>
      </trkpt>
      <trkpt lat="46.44113" lon="-1.61857">
        <ele>46.131884</ele>
        <time>2022-12-18T16:41:37.671Z</time>
      </trkpt>
      <trkpt lat="46.44114" lon="-1.61843">
        <ele>46.180153</ele>
        <time>2022-12-18T16:41:39.665Z</time>
      </trkpt>
      <trkpt lat="46.44116" lon="-1.61828">
        <ele>46.228183</ele>
        <time>2022-12-18T16:41:41.664Z</time>
      </trkpt>
      <trkpt lat="46.4412" lon="-1.61816">
        <ele>46.274185</ele>
        <time>2022-12-18T16:41:43.669Z</time>
      </trkpt>
      <trkpt lat="46.44122" lon="-1.61802">
        <ele>46.321316</ele>
        <time>2022-12-18T16:41:45.668Z</time>
      </trkpt>
      <trkpt lat="46.44125" lon="-1.61784">
        <ele>46.382574</ele>
        <time>2022-12-18T16:41:48.675Z</time>
      </trkpt>
      <trkpt lat="46.44128" lon="-1.6177">
        <ele>46.433238</ele>
        <time>2022-12-18T16:41:51.666Z</time>
      </trkpt>
      <trkpt lat="46.44131" lon="-1.61753">
        <ele>46.489074</ele>
        <time>2022-12-18T16:41:55.657Z</time>
      </trkpt>
      <trkpt lat="46.44134" lon="-1.61734">
        <ele>46.555535</ele>
        <time>2022-12-18T16:42:35.679Z</time>
      </trkpt>
      <trkpt lat="46.44136" lon="-1.61718">
        <ele>46.61197</ele>
        <time>2022-12-18T16:42:39.663Z</time>
      </trkpt>
      <trkpt lat="46.44139" lon="-1.61704">
        <ele>46.658287</ele>
        <time>2022-12-18T16:42:42.660Z</time>
      </trkpt>
      <trkpt lat="46.44142" lon="-1.61691">
        <ele>46.704437</ele>
        <time>2022-12-18T16:42:45.667Z</time>
      </trkpt>
      <trkpt lat="46.44145" lon="-1.61678">
        <ele>46.750976</ele>
        <time>2022-12-18T16:42:48.677Z</time>
      </trkpt>
      <trkpt lat="46.44146" lon="-1.61663">
        <ele>46.802125</ele>
        <time>2022-12-18T16:42:51.665Z</time>
      </trkpt>
      <trkpt lat="46.44149" lon="-1.61645">
        <ele>46.841191</ele>
        <time>2022-12-18T16:42:54.658Z</time>
      </trkpt>
      <trkpt lat="46.44153" lon="-1.61627">
        <ele>46.754588</ele>
        <time>2022-12-18T16:42:57.653Z</time>
      </trkpt>
      <trkpt lat="46.44157" lon="-1.61609">
        <ele>46.668571</ele>
        <time>2022-12-18T16:43:00.651Z</time>
      </trkpt>
      <trkpt lat="46.4416" lon="-1.61597">
        <ele>46.609096</ele>
        <time>2022-12-18T16:43:02.674Z</time>
      </trkpt>
      <trkpt lat="46.44162" lon="-1.61584">
        <ele>46.54893</ele>
        <time>2022-12-18T16:43:04.646Z</time>
      </trkpt>
      <trkpt lat="46.44164" lon="-1.6157">
        <ele>46.485834</ele>
        <time>2022-12-18T16:43:06.667Z</time>
      </trkpt>
      <trkpt lat="46.44165" lon="-1.61557">
        <ele>46.424351</ele>
        <time>2022-12-18T16:43:08.663Z</time>
      </trkpt>
      <trkpt lat="46.44166" lon="-1.61543">
        <ele>46.359382</ele>
        <time>2022-12-18T16:43:10.676Z</time>
      </trkpt>
      <trkpt lat="46.44165" lon="-1.61528">
        <ele>46.292859</ele>
        <time>2022-12-18T16:43:12.667Z</time>
      </trkpt>
      <trkpt lat="46.44164" lon="-1.61514">
        <ele>46.228583</ele>
        <time>2022-12-18T16:43:14.664Z</time>
      </trkpt>
      <trkpt lat="46.44162" lon="-1.615">
        <ele>46.16462</ele>
        <time>2022-12-18T16:43:16.665Z</time>
      </trkpt>
      <trkpt lat="46.4416" lon="-1.61487">
        <ele>46.103628</ele>
        <time>2022-12-18T16:43:18.661Z</time>
      </trkpt>
      <trkpt lat="46.44157" lon="-1.61474">
        <ele>46.041806</ele>
        <time>2022-12-18T16:43:20.663Z</time>
      </trkpt>
      <trkpt lat="46.44153" lon="-1.61461">
        <ele>45.97639</ele>
        <time>2022-12-18T16:43:22.663Z</time>
      </trkpt>
      <trkpt lat="46.44148" lon="-1.61448">
        <ele>45.910213</ele>
        <time>2022-12-18T16:43:24.661Z</time>
      </trkpt>
      <trkpt lat="46.44144" lon="-1.61436">
        <ele>45.845489</ele>
        <time>2022-12-18T16:43:26.662Z</time>
      </trkpt>
      <trkpt lat="46.4414" lon="-1.61423">
        <ele>45.782283</ele>
        <time>2022-12-18T16:43:28.666Z</time>
      </trkpt>
      <trkpt lat="46.44136" lon="-1.61411">
        <ele>45.718835</ele>
        <time>2022-12-18T16:43:30.675Z</time>
      </trkpt>
      <trkpt lat="46.44131" lon="-1.61398">
        <ele>45.666559</ele>
        <time>2022-12-18T16:43:32.658Z</time>
      </trkpt>
      <trkpt lat="46.44127" lon="-1.61385">
        <ele>45.681893</ele>
        <time>2022-12-18T16:43:34.664Z</time>
      </trkpt>
      <trkpt lat="46.44124" lon="-1.61372">
        <ele>45.696837</ele>
        <time>2022-12-18T16:43:36.660Z</time>
      </trkpt>
      <trkpt lat="46.44121" lon="-1.61358">
        <ele>45.712097</ele>
        <time>2022-12-18T16:43:38.650Z</time>
      </trkpt>
      <trkpt lat="46.4412" lon="-1.61343">
        <ele>45.728053</ele>
        <time>2022-12-18T16:43:40.665Z</time>
      </trkpt>
      <trkpt lat="46.4412" lon="-1.61328">
        <ele>45.743492</ele>
        <time>2022-12-18T16:43:42.667Z</time>
      </trkpt>
      <trkpt lat="46.4412" lon="-1.61314">
        <ele>45.7585</ele>
        <time>2022-12-18T16:43:44.666Z</time>
      </trkpt>
      <trkpt lat="46.44122" lon="-1.61299">
        <ele>45.77438</ele>
        <time>2022-12-18T16:43:46.650Z</time>
      </trkpt>
      <trkpt lat="46.44124" lon="-1.61285">
        <ele>45.789969</ele>
        <time>2022-12-18T16:43:48.664Z</time>
      </trkpt>
      <trkpt lat="46.44127" lon="-1.61271">
        <ele>45.805755</ele>
        <time>2022-12-18T16:43:50.667Z</time>
      </trkpt>
      <trkpt lat="46.44132" lon="-1.61258">
        <ele>45.820894</ele>
        <time>2022-12-18T16:43:52.664Z</time>
      </trkpt>
      <trkpt lat="46.44138" lon="-1.61246">
        <ele>45.836382</ele>
        <time>2022-12-18T16:43:54.663Z</time>
      </trkpt>
      <trkpt lat="46.44145" lon="-1.61236">
        <ele>45.851959</ele>
        <time>2022-12-18T16:43:56.652Z</time>
      </trkpt>
      <trkpt lat="46.44153" lon="-1.61227">
        <ele>45.867039</ele>
        <time>2022-12-18T16:43:58.664Z</time>
      </trkpt>
      <trkpt lat="46.44161" lon="-1.6122">
        <ele>45.8812</ele>
        <time>2022-12-18T16:44:00.661Z</time>
      </trkpt>
      <trkpt lat="46.44169" lon="-1.61213">
        <ele>45.895764</ele>
        <time>2022-12-18T16:44:02.664Z</time>
      </trkpt>
      <trkpt lat="46.44177" lon="-1.61206">
        <ele>45.910297</ele>
        <time>2022-12-18T16:44:04.667Z</time>
      </trkpt>
      <trkpt lat="46.44184" lon="-1.61196">
        <ele>45.925192</ele>
        <time>2022-12-18T16:44:06.667Z</time>
      </trkpt>
      <trkpt lat="46.4419" lon="-1.61185">
        <ele>45.939897</ele>
        <time>2022-12-18T16:44:08.675Z</time>
      </trkpt>
      <trkpt lat="46.44192" lon="-1.61171">
        <ele>46.057657</ele>
        <time>2022-12-18T16:44:10.664Z</time>
      </trkpt>
      <trkpt lat="46.44193" lon="-1.61157">
        <ele>46.173845</ele>
        <time>2022-12-18T16:44:12.665Z</time>
      </trkpt>
      <trkpt lat="46.44194" lon="-1.61139">
        <ele>46.325405</ele>
        <time>2022-12-18T16:44:15.655Z</time>
      </trkpt>
      <trkpt lat="46.44192" lon="-1.61122">
        <ele>46.476131</ele>
        <time>2022-12-18T16:44:18.668Z</time>
      </trkpt>
      <trkpt lat="46.4419" lon="-1.61104">
        <ele>46.630761</ele>
        <time>2022-12-18T16:44:21.664Z</time>
      </trkpt>
      <trkpt lat="46.44187" lon="-1.61085">
        <ele>46.79068</ele>
        <time>2022-12-18T16:44:24.666Z</time>
      </trkpt>
      <trkpt lat="46.44185" lon="-1.61066">
        <ele>46.951177</ele>
        <time>2022-12-18T16:44:27.665Z</time>
      </trkpt>
      <trkpt lat="46.44182" lon="-1.61048">
        <ele>47.107309</ele>
        <time>2022-12-18T16:44:30.674Z</time>
      </trkpt>
      <trkpt lat="46.4418" lon="-1.61032">
        <ele>47.240807</ele>
        <time>2022-12-18T16:44:33.667Z</time>
      </trkpt>
      <trkpt lat="46.44179" lon="-1.61019">
        <ele>47.352738</ele>
        <time>2022-12-18T16:44:36.662Z</time>
      </trkpt>
      <trkpt lat="46.44177" lon="-1.61005">
        <ele>47.473281</ele>
        <time>2022-12-18T16:44:40.662Z</time>
      </trkpt>
      <trkpt lat="46.44174" lon="-1.6099">
        <ele>47.6023</ele>
        <time>2022-12-18T16:44:45.665Z</time>
      </trkpt>
      <trkpt lat="46.44172" lon="-1.60976">
        <ele>47.730501</ele>
        <time>2022-12-18T16:44:50.666Z</time>
      </trkpt>
      <trkpt lat="46.4417" lon="-1.6096">
        <ele>47.865872</ele>
        <time>2022-12-18T16:44:55.667Z</time>
      </trkpt>
      <trkpt lat="46.44169" lon="-1.60945">
        <ele>47.988892</ele>
        <time>2022-12-18T16:45:00.665Z</time>
      </trkpt>
      <trkpt lat="46.44168" lon="-1.60931">
        <ele>48.109948</ele>
        <time>2022-12-18T16:45:04.666Z</time>
      </trkpt>
      <trkpt lat="46.44166" lon="-1.60916">
        <ele>48.05894</ele>
        <time>2022-12-18T16:45:08.664Z</time>
      </trkpt>
      <trkpt lat="46.44166" lon="-1.60899">
        <ele>47.957211</ele>
        <time>2022-12-18T16:45:12.663Z</time>
      </trkpt>
      <trkpt lat="46.44166" lon="-1.60882">
        <ele>47.851772</ele>
        <time>2022-12-18T16:45:16.667Z</time>
      </trkpt>
      <trkpt lat="46.44168" lon="-1.60866">
        <ele>47.748558</ele>
        <time>2022-12-18T16:45:20.662Z</time>
      </trkpt>
      <trkpt lat="46.44168" lon="-1.60853">
        <ele>47.666705</ele>
        <time>2022-12-18T16:45:23.668Z</time>
      </trkpt>
      <trkpt lat="46.4417" lon="-1.60839">
        <ele>47.576014</ele>
        <time>2022-12-18T16:45:26.663Z</time>
      </trkpt>
      <trkpt lat="46.44172" lon="-1.60824">
        <ele>47.482165</ele>
        <time>2022-12-18T16:45:29.666Z</time>
      </trkpt>
      <trkpt lat="46.44174" lon="-1.60809">
        <ele>47.389469</ele>
        <time>2022-12-18T16:45:32.670Z</time>
      </trkpt>
      <trkpt lat="46.44177" lon="-1.60794">
        <ele>47.289376</ele>
        <time>2022-12-18T16:45:35.665Z</time>
      </trkpt>
      <trkpt lat="46.44179" lon="-1.60777">
        <ele>47.182397</ele>
        <time>2022-12-18T16:45:38.682Z</time>
      </trkpt>
      <trkpt lat="46.44182" lon="-1.6076">
        <ele>47.076382</ele>
        <time>2022-12-18T16:45:41.646Z</time>
      </trkpt>
      <trkpt lat="46.44184" lon="-1.60744">
        <ele>46.971393</ele>
        <time>2022-12-18T16:45:44.669Z</time>
      </trkpt>
      <trkpt lat="46.44187" lon="-1.60727">
        <ele>46.864353</ele>
        <time>2022-12-18T16:45:47.668Z</time>
      </trkpt>
      <trkpt lat="46.4419" lon="-1.60709">
        <ele>46.750242</ele>
        <time>2022-12-18T16:45:50.664Z</time>
      </trkpt>
      <trkpt lat="46.44191" lon="-1.60696">
        <ele>46.667854</ele>
        <time>2022-12-18T16:45:52.667Z</time>
      </trkpt>
      <trkpt lat="46.44192" lon="-1.60683">
        <ele>46.58106</ele>
        <time>2022-12-18T16:45:54.666Z</time>
      </trkpt>
      <trkpt lat="46.44191" lon="-1.60668">
        <ele>46.482439</ele>
        <time>2022-12-18T16:45:56.666Z</time>
      </trkpt>
      <trkpt lat="46.44189" lon="-1.60652">
        <ele>46.358203</ele>
        <time>2022-12-18T16:45:58.646Z</time>
      </trkpt>
      <trkpt lat="46.44186" lon="-1.60637">
        <ele>46.231331</ele>
        <time>2022-12-18T16:46:00.663Z</time>
      </trkpt>
      <trkpt lat="46.44182" lon="-1.60624">
        <ele>46.116287</ele>
        <time>2022-12-18T16:46:02.664Z</time>
      </trkpt>
      <trkpt lat="46.44179" lon="-1.6061">
        <ele>46.003857</ele>
        <time>2022-12-18T16:46:04.664Z</time>
      </trkpt>
      <trkpt lat="46.44176" lon="-1.60597">
        <ele>45.895171</ele>
        <time>2022-12-18T16:46:06.668Z</time>
      </trkpt>
      <trkpt lat="46.44172" lon="-1.60585">
        <ele>45.787035</ele>
        <time>2022-12-18T16:46:08.661Z</time>
      </trkpt>
      <trkpt lat="46.44169" lon="-1.60571">
        <ele>45.675354</ele>
        <time>2022-12-18T16:46:10.663Z</time>
      </trkpt>
      <trkpt lat="46.44164" lon="-1.60554">
        <ele>45.528364</ele>
        <time>2022-12-18T16:46:13.677Z</time>
      </trkpt>
      <trkpt lat="46.44158" lon="-1.60538">
        <ele>45.383634</ele>
        <time>2022-12-18T16:46:16.665Z</time>
      </trkpt>
      <trkpt lat="46.44154" lon="-1.60526">
        <ele>45.279167</ele>
        <time>2022-12-18T16:46:18.669Z</time>
      </trkpt>
      <trkpt lat="46.44149" lon="-1.60515">
        <ele>45.175327</ele>
        <time>2022-12-18T16:46:20.663Z</time>
      </trkpt>
      <trkpt lat="46.44143" lon="-1.60504">
        <ele>45.060588</ele>
        <time>2022-12-18T16:46:22.657Z</time>
      </trkpt>
      <trkpt lat="46.44137" lon="-1.60493">
        <ele>44.951838</ele>
        <time>2022-12-18T16:46:24.664Z</time>
      </trkpt>
      <trkpt lat="46.4413" lon="-1.60483">
        <ele>44.842475</ele>
        <time>2022-12-18T16:46:26.667Z</time>
      </trkpt>
      <trkpt lat="46.44124" lon="-1.60473">
        <ele>44.733112</ele>
        <time>2022-12-18T16:46:28.666Z</time>
      </trkpt>
      <trkpt lat="46.44118" lon="-1.60462">
        <ele>44.624688</ele>
        <time>2022-12-18T16:46:30.674Z</time>
      </trkpt>
      <trkpt lat="46.44114" lon="-1.6045">
        <ele>44.516057</ele>
        <time>2022-12-18T16:46:32.662Z</time>
      </trkpt>
      <trkpt lat="46.4411" lon="-1.60438">
        <ele>44.431282</ele>
        <time>2022-12-18T16:46:34.650Z</time>
      </trkpt>
      <trkpt lat="46.44106" lon="-1.60425">
        <ele>44.403965</ele>
        <time>2022-12-18T16:46:36.665Z</time>
      </trkpt>
      <trkpt lat="46.44103" lon="-1.60412">
        <ele>44.377347</ele>
        <time>2022-12-18T16:46:38.669Z</time>
      </trkpt>
      <trkpt lat="46.44101" lon="-1.60394">
        <ele>44.340051</ele>
        <time>2022-12-18T16:46:41.648Z</time>
      </trkpt>
      <trkpt lat="46.441" lon="-1.60376">
        <ele>44.305514</ele>
        <time>2022-12-18T16:46:44.670Z</time>
      </trkpt>
      <trkpt lat="46.44098" lon="-1.60362">
        <ele>44.276151</ele>
        <time>2022-12-18T16:46:47.665Z</time>
      </trkpt>
      <trkpt lat="46.44099" lon="-1.60334">
        <ele>44.220998</ele>
        <time>2022-12-18T16:47:34.658Z</time>
      </trkpt>
      <trkpt lat="46.44099" lon="-1.60319">
        <ele>44.193247</ele>
        <time>2022-12-18T16:47:37.660Z</time>
      </trkpt>
      <trkpt lat="46.44101" lon="-1.60304">
        <ele>44.162354</ele>
        <time>2022-12-18T16:47:40.666Z</time>
      </trkpt>
      <trkpt lat="46.44102" lon="-1.60287">
        <ele>44.129474</ele>
        <time>2022-12-18T16:47:43.653Z</time>
      </trkpt>
      <trkpt lat="46.44103" lon="-1.6027">
        <ele>44.095029</ele>
        <time>2022-12-18T16:47:46.671Z</time>
      </trkpt>
      <trkpt lat="46.44104" lon="-1.60252">
        <ele>44.059334</ele>
        <time>2022-12-18T16:47:49.674Z</time>
      </trkpt>
      <trkpt lat="46.44101" lon="-1.60234">
        <ele>44.02301</ele>
        <time>2022-12-18T16:47:52.650Z</time>
      </trkpt>
      <trkpt lat="46.44093" lon="-1.6022">
        <ele>43.98676</ele>
        <time>2022-12-18T16:47:55.649Z</time>
      </trkpt>
      <trkpt lat="46.44081" lon="-1.60214">
        <ele>43.95076</ele>
        <time>2022-12-18T16:47:58.648Z</time>
      </trkpt>
      <trkpt lat="46.44069" lon="-1.60212">
        <ele>43.889033</ele>
        <time>2022-12-18T16:48:01.651Z</time>
      </trkpt>
      <trkpt lat="46.44056" lon="-1.60212">
        <ele>43.750021</ele>
        <time>2022-12-18T16:48:04.674Z</time>
      </trkpt>
      <trkpt lat="46.44043" lon="-1.60213">
        <ele>43.611001</ele>
        <time>2022-12-18T16:48:07.660Z</time>
      </trkpt>
      <trkpt lat="46.44032" lon="-1.60212">
        <ele>43.485146</ele>
        <time>2022-12-18T16:48:10.667Z</time>
      </trkpt>
      <trkpt lat="46.4402" lon="-1.60212">
        <ele>43.351642</ele>
        <time>2022-12-18T16:48:13.650Z</time>
      </trkpt>
      <trkpt lat="46.44006" lon="-1.60212">
        <ele>43.200487</ele>
        <time>2022-12-18T16:48:16.664Z</time>
      </trkpt>
      <trkpt lat="46.43997" lon="-1.60212">
        <ele>43.095677</ele>
        <time>2022-12-18T16:48:18.655Z</time>
      </trkpt>
      <trkpt lat="46.43988" lon="-1.60211">
        <ele>42.995233</ele>
        <time>2022-12-18T16:48:20.648Z</time>
      </trkpt>
      <trkpt lat="46.43974" lon="-1.60212">
        <ele>42.843964</ele>
        <time>2022-12-18T16:48:23.651Z</time>
      </trkpt>
      <trkpt lat="46.43961" lon="-1.60212">
        <ele>42.697221</ele>
        <time>2022-12-18T16:48:26.657Z</time>
      </trkpt>
      <trkpt lat="46.43948" lon="-1.60212">
        <ele>42.553789</ele>
        <time>2022-12-18T16:48:29.655Z</time>
      </trkpt>
      <trkpt lat="46.43935" lon="-1.60211">
        <ele>42.420032</ele>
        <time>2022-12-18T16:48:32.667Z</time>
      </trkpt>
      <trkpt lat="46.43924" lon="-1.60212">
        <ele>42.296351</ele>
        <time>2022-12-18T16:48:35.651Z</time>
      </trkpt>
      <trkpt lat="46.43912" lon="-1.60217">
        <ele>42.15202</ele>
        <time>2022-12-18T16:48:38.661Z</time>
      </trkpt>
      <trkpt lat="46.43904" lon="-1.60224">
        <ele>42.049902</ele>
        <time>2022-12-18T16:48:40.659Z</time>
      </trkpt>
      <trkpt lat="46.43897" lon="-1.60233">
        <ele>41.944885</ele>
        <time>2022-12-18T16:48:42.666Z</time>
      </trkpt>
      <trkpt lat="46.43889" lon="-1.60242">
        <ele>42.02023</ele>
        <time>2022-12-18T16:48:44.664Z</time>
      </trkpt>
      <trkpt lat="46.43881" lon="-1.60252">
        <ele>42.10457</ele>
        <time>2022-12-18T16:48:46.664Z</time>
      </trkpt>
      <trkpt lat="46.43873" lon="-1.60261">
        <ele>42.192463</ele>
        <time>2022-12-18T16:48:48.667Z</time>
      </trkpt>
      <trkpt lat="46.43865" lon="-1.60269">
        <ele>42.27728</ele>
        <time>2022-12-18T16:48:50.667Z</time>
      </trkpt>
      <trkpt lat="46.43856" lon="-1.60278">
        <ele>42.363153</ele>
        <time>2022-12-18T16:48:52.665Z</time>
      </trkpt>
      <trkpt lat="46.43848" lon="-1.60288">
        <ele>42.456985</ele>
        <time>2022-12-18T16:48:54.665Z</time>
      </trkpt>
      <trkpt lat="46.4384" lon="-1.60298">
        <ele>42.542974</ele>
        <time>2022-12-18T16:48:56.649Z</time>
      </trkpt>
      <trkpt lat="46.43833" lon="-1.60309">
        <ele>42.630944</ele>
        <time>2022-12-18T16:48:58.665Z</time>
      </trkpt>
      <trkpt lat="46.43825" lon="-1.6032">
        <ele>42.723113</ele>
        <time>2022-12-18T16:49:00.665Z</time>
      </trkpt>
      <trkpt lat="46.43816" lon="-1.60331">
        <ele>42.816941</ele>
        <time>2022-12-18T16:49:02.674Z</time>
      </trkpt>
      <trkpt lat="46.43808" lon="-1.60341">
        <ele>42.907594</ele>
        <time>2022-12-18T16:49:04.666Z</time>
      </trkpt>
      <trkpt lat="46.438" lon="-1.60351">
        <ele>42.999133</ele>
        <time>2022-12-18T16:49:06.663Z</time>
      </trkpt>
      <trkpt lat="46.43791" lon="-1.6036">
        <ele>43.089371</ele>
        <time>2022-12-18T16:49:08.665Z</time>
      </trkpt>
      <trkpt lat="46.4378" lon="-1.6037">
        <ele>43.198169</ele>
        <time>2022-12-18T16:49:11.662Z</time>
      </trkpt>
      <trkpt lat="46.4377" lon="-1.60381">
        <ele>43.305417</ele>
        <time>2022-12-18T16:49:14.660Z</time>
      </trkpt>
      <trkpt lat="46.43761" lon="-1.60385">
        <ele>43.384312</ele>
        <time>2022-12-18T16:49:16.667Z</time>
      </trkpt>
      <trkpt lat="46.43748" lon="-1.60391">
        <ele>43.449945</ele>
        <time>2022-12-18T16:49:19.667Z</time>
      </trkpt>
      <trkpt lat="46.43734" lon="-1.60389">
        <ele>43.454542</ele>
        <time>2022-12-18T16:49:22.651Z</time>
      </trkpt>
      <trkpt lat="46.43727" lon="-1.60381">
        <ele>43.457692</ele>
        <time>2022-12-18T16:49:24.666Z</time>
      </trkpt>
      <trkpt lat="46.43722" lon="-1.60369">
        <ele>43.460986</ele>
        <time>2022-12-18T16:49:26.664Z</time>
      </trkpt>
      <trkpt lat="46.4372" lon="-1.60355">
        <ele>43.46418</ele>
        <time>2022-12-18T16:49:28.668Z</time>
      </trkpt>
      <trkpt lat="46.4372" lon="-1.60342">
        <ele>43.467285</ele>
        <time>2022-12-18T16:49:30.666Z</time>
      </trkpt>
      <trkpt lat="46.43721" lon="-1.60324">
        <ele>43.471582</ele>
        <time>2022-12-18T16:49:33.675Z</time>
      </trkpt>
      <trkpt lat="46.43722" lon="-1.60309">
        <ele>43.475233</ele>
        <time>2022-12-18T16:49:36.668Z</time>
      </trkpt>
      <trkpt lat="46.43722" lon="-1.60294">
        <ele>43.478745</ele>
        <time>2022-12-18T16:49:39.666Z</time>
      </trkpt>
      <trkpt lat="46.43712" lon="-1.6029">
        <ele>43.482339</ele>
        <time>2022-12-18T16:49:54.647Z</time>
      </trkpt>
      <trkpt lat="46.43701" lon="-1.60292">
        <ele>43.4863</ele>
        <time>2022-12-18T16:49:58.665Z</time>
      </trkpt>
      <trkpt lat="46.4369" lon="-1.60294">
        <ele>43.490105</ele>
        <time>2022-12-18T16:50:01.663Z</time>
      </trkpt>
      <trkpt lat="46.43678" lon="-1.60294">
        <ele>43.494033</ele>
        <time>2022-12-18T16:50:04.648Z</time>
      </trkpt>
      <trkpt lat="46.43666" lon="-1.60295">
        <ele>43.498167</ele>
        <time>2022-12-18T16:50:07.651Z</time>
      </trkpt>
      <trkpt lat="46.43655" lon="-1.60296">
        <ele>43.501887</ele>
        <time>2022-12-18T16:50:10.664Z</time>
      </trkpt>
      <trkpt lat="46.43646" lon="-1.60298">
        <ele>43.505032</ele>
        <time>2022-12-18T16:50:13.657Z</time>
      </trkpt>
      <trkpt lat="46.43637" lon="-1.60298">
        <ele>43.508172</ele>
        <time>2022-12-18T16:50:18.659Z</time>
      </trkpt>
      <trkpt lat="46.43628" lon="-1.60299">
        <ele>43.520468</ele>
        <time>2022-12-18T16:50:22.676Z</time>
      </trkpt>
      <trkpt lat="46.43615" lon="-1.603">
        <ele>43.543185</ele>
        <time>2022-12-18T16:50:26.663Z</time>
      </trkpt>
      <trkpt lat="46.43605" lon="-1.60301">
        <ele>43.562991</ele>
        <time>2022-12-18T16:50:29.662Z</time>
      </trkpt>
      <trkpt lat="46.43593" lon="-1.60301">
        <ele>43.584598</ele>
        <time>2022-12-18T16:50:32.666Z</time>
      </trkpt>
      <trkpt lat="46.43581" lon="-1.60302">
        <ele>43.607186</ele>
        <time>2022-12-18T16:50:35.665Z</time>
      </trkpt>
      <trkpt lat="46.43568" lon="-1.60303">
        <ele>43.630452</ele>
        <time>2022-12-18T16:50:38.652Z</time>
      </trkpt>
      <trkpt lat="46.43557" lon="-1.60293">
        <ele>43.653324</ele>
        <time>2022-12-18T16:50:41.662Z</time>
      </trkpt>
      <trkpt lat="46.43552" lon="-1.60279">
        <ele>43.673503</ele>
        <time>2022-12-18T16:50:44.665Z</time>
      </trkpt>
      <trkpt lat="46.43547" lon="-1.60267">
        <ele>43.692782</ele>
        <time>2022-12-18T16:50:47.663Z</time>
      </trkpt>
      <trkpt lat="46.4354" lon="-1.60254">
        <ele>43.713125</ele>
        <time>2022-12-18T16:50:50.664Z</time>
      </trkpt>
      <trkpt lat="46.43532" lon="-1.60241">
        <ele>43.734818</ele>
        <time>2022-12-18T16:50:53.668Z</time>
      </trkpt>
      <trkpt lat="46.43524" lon="-1.60228">
        <ele>43.756838</ele>
        <time>2022-12-18T16:50:56.664Z</time>
      </trkpt>
      <trkpt lat="46.43516" lon="-1.60216">
        <ele>43.778914</ele>
        <time>2022-12-18T16:50:59.672Z</time>
      </trkpt>
      <trkpt lat="46.43508" lon="-1.60203">
        <ele>43.800841</ele>
        <time>2022-12-18T16:51:02.665Z</time>
      </trkpt>
      <trkpt lat="46.43501" lon="-1.6019">
        <ele>43.822755</ele>
        <time>2022-12-18T16:51:05.664Z</time>
      </trkpt>
      <trkpt lat="46.43493" lon="-1.60177">
        <ele>43.83709</ele>
        <time>2022-12-18T16:51:08.667Z</time>
      </trkpt>
      <trkpt lat="46.43484" lon="-1.6017">
        <ele>43.79896</ele>
        <time>2022-12-18T16:51:11.664Z</time>
      </trkpt>
      <trkpt lat="46.43474" lon="-1.60168">
        <ele>43.766232</ele>
        <time>2022-12-18T16:51:14.665Z</time>
      </trkpt>
      <trkpt lat="46.43464" lon="-1.60162">
        <ele>43.726966</ele>
        <time>2022-12-18T16:51:18.666Z</time>
      </trkpt>
      <trkpt lat="46.4346" lon="-1.60139">
        <ele>43.668003</ele>
        <time>2022-12-18T16:51:58.668Z</time>
      </trkpt>
      <trkpt lat="46.43457" lon="-1.60126">
        <ele>43.635121</ele>
        <time>2022-12-18T16:52:02.662Z</time>
      </trkpt>
      <trkpt lat="46.43456" lon="-1.60109">
        <ele>43.595052</ele>
        <time>2022-12-18T16:52:06.669Z</time>
      </trkpt>
      <trkpt lat="46.43455" lon="-1.60094">
        <ele>43.558597</ele>
        <time>2022-12-18T16:52:09.673Z</time>
      </trkpt>
      <trkpt lat="46.43453" lon="-1.60078">
        <ele>43.518903</ele>
        <time>2022-12-18T16:52:12.677Z</time>
      </trkpt>
      <trkpt lat="46.43452" lon="-1.60062">
        <ele>43.479501</ele>
        <time>2022-12-18T16:52:15.654Z</time>
      </trkpt>
      <trkpt lat="46.43448" lon="-1.60046">
        <ele>43.439431</ele>
        <time>2022-12-18T16:52:18.662Z</time>
      </trkpt>
      <trkpt lat="46.43444" lon="-1.60031">
        <ele>43.399969</ele>
        <time>2022-12-18T16:52:21.650Z</time>
      </trkpt>
      <trkpt lat="46.43441" lon="-1.60016">
        <ele>43.361864</ele>
        <time>2022-12-18T16:52:24.666Z</time>
      </trkpt>
      <trkpt lat="46.43436" lon="-1.60002">
        <ele>43.325668</ele>
        <time>2022-12-18T16:52:27.666Z</time>
      </trkpt>
      <trkpt lat="46.43432" lon="-1.59989">
        <ele>43.289453</ele>
        <time>2022-12-18T16:52:30.663Z</time>
      </trkpt>
      <trkpt lat="46.43426" lon="-1.59976">
        <ele>43.252803</ele>
        <time>2022-12-18T16:52:33.660Z</time>
      </trkpt>
      <trkpt lat="46.4342" lon="-1.59965">
        <ele>43.218315</ele>
        <time>2022-12-18T16:52:36.668Z</time>
      </trkpt>
      <trkpt lat="46.43415" lon="-1.59952">
        <ele>43.212677</ele>
        <time>2022-12-18T16:52:39.663Z</time>
      </trkpt>
      <trkpt lat="46.43411" lon="-1.59938">
        <ele>43.216242</ele>
        <time>2022-12-18T16:52:42.667Z</time>
      </trkpt>
      <trkpt lat="46.43408" lon="-1.59924">
        <ele>43.219869</ele>
        <time>2022-12-18T16:52:45.665Z</time>
      </trkpt>
      <trkpt lat="46.43404" lon="-1.59909">
        <ele>43.223443</ele>
        <time>2022-12-18T16:52:48.652Z</time>
      </trkpt>
      <trkpt lat="46.43401" lon="-1.59895">
        <ele>43.226911</ele>
        <time>2022-12-18T16:52:51.666Z</time>
      </trkpt>
      <trkpt lat="46.43401" lon="-1.5988">
        <ele>43.230394</ele>
        <time>2022-12-18T16:52:54.668Z</time>
      </trkpt>
      <trkpt lat="46.43399" lon="-1.59864">
        <ele>43.234128</ele>
        <time>2022-12-18T16:52:57.665Z</time>
      </trkpt>
      <trkpt lat="46.43395" lon="-1.5985">
        <ele>43.237833</ele>
        <time>2022-12-18T16:53:00.647Z</time>
      </trkpt>
      <trkpt lat="46.43391" lon="-1.59835">
        <ele>43.241536</ele>
        <time>2022-12-18T16:53:03.668Z</time>
      </trkpt>
      <trkpt lat="46.43386" lon="-1.59821">
        <ele>43.245371</ele>
        <time>2022-12-18T16:53:06.666Z</time>
      </trkpt>
      <trkpt lat="46.4338" lon="-1.59805">
        <ele>43.24943</ele>
        <time>2022-12-18T16:53:09.664Z</time>
      </trkpt>
      <trkpt lat="46.43375" lon="-1.5979">
        <ele>43.253454</ele>
        <time>2022-12-18T16:53:12.679Z</time>
      </trkpt>
      <trkpt lat="46.43371" lon="-1.59774">
        <ele>43.257439</ele>
        <time>2022-12-18T16:53:15.676Z</time>
      </trkpt>
      <trkpt lat="46.43367" lon="-1.59758">
        <ele>43.261387</ele>
        <time>2022-12-18T16:53:18.671Z</time>
      </trkpt>
      <trkpt lat="46.43364" lon="-1.59741">
        <ele>43.265511</ele>
        <time>2022-12-18T16:53:21.644Z</time>
      </trkpt>
      <trkpt lat="46.43362" lon="-1.59725">
        <ele>43.269299</ele>
        <time>2022-12-18T16:53:24.667Z</time>
      </trkpt>
      <trkpt lat="46.43359" lon="-1.59711">
        <ele>43.257205</ele>
        <time>2022-12-18T16:53:27.651Z</time>
      </trkpt>
      <trkpt lat="46.43356" lon="-1.59698">
        <ele>43.226209</ele>
        <time>2022-12-18T16:53:30.669Z</time>
      </trkpt>
      <trkpt lat="46.4335" lon="-1.59684">
        <ele>43.191447</ele>
        <time>2022-12-18T16:53:33.671Z</time>
      </trkpt>
      <trkpt lat="46.43344" lon="-1.59671">
        <ele>43.15693</ele>
        <time>2022-12-18T16:53:36.654Z</time>
      </trkpt>
      <trkpt lat="46.43339" lon="-1.5966">
        <ele>43.126401</ele>
        <time>2022-12-18T16:53:39.674Z</time>
      </trkpt>
      <trkpt lat="46.43333" lon="-1.59645">
        <ele>43.089538</ele>
        <time>2022-12-18T16:53:43.678Z</time>
      </trkpt>
      <trkpt lat="46.43327" lon="-1.59632">
        <ele>43.054253</ele>
        <time>2022-12-18T16:53:47.671Z</time>
      </trkpt>
      <trkpt lat="46.43319" lon="-1.59619">
        <ele>43.015454</ele>
        <time>2022-12-18T16:53:51.672Z</time>
      </trkpt>
      <trkpt lat="46.43313" lon="-1.59608">
        <ele>42.986511</ele>
        <time>2022-12-18T16:53:54.665Z</time>
      </trkpt>
      <trkpt lat="46.43307" lon="-1.59597">
        <ele>42.955295</ele>
        <time>2022-12-18T16:53:57.674Z</time>
      </trkpt>
      <trkpt lat="46.433" lon="-1.59587">
        <ele>42.923285</ele>
        <time>2022-12-18T16:54:00.677Z</time>
      </trkpt>
      <trkpt lat="46.43294" lon="-1.59576">
        <ele>42.893324</ele>
        <time>2022-12-18T16:54:03.669Z</time>
      </trkpt>
      <trkpt lat="46.43288" lon="-1.59564">
        <ele>42.85928</ele>
        <time>2022-12-18T16:54:06.665Z</time>
      </trkpt>
      <trkpt lat="46.4328" lon="-1.59551">
        <ele>42.821322</ele>
        <time>2022-12-18T16:54:09.664Z</time>
      </trkpt>
      <trkpt lat="46.43272" lon="-1.59541">
        <ele>42.787723</ele>
        <time>2022-12-18T16:54:12.666Z</time>
      </trkpt>
      <trkpt lat="46.43264" lon="-1.59532">
        <ele>42.756109</ele>
        <time>2022-12-18T16:54:15.672Z</time>
      </trkpt>
      <trkpt lat="46.43257" lon="-1.59525">
        <ele>42.726276</ele>
        <time>2022-12-18T16:54:18.664Z</time>
      </trkpt>
      <trkpt lat="46.43249" lon="-1.59516">
        <ele>42.695662</ele>
        <time>2022-12-18T16:54:21.672Z</time>
      </trkpt>
      <trkpt lat="46.43241" lon="-1.59505">
        <ele>42.698096</ele>
        <time>2022-12-18T16:54:24.666Z</time>
      </trkpt>
      <trkpt lat="46.43233" lon="-1.59495">
        <ele>42.700627</ele>
        <time>2022-12-18T16:54:27.666Z</time>
      </trkpt>
      <trkpt lat="46.43225" lon="-1.59484">
        <ele>42.70315</ele>
        <time>2022-12-18T16:54:30.670Z</time>
      </trkpt>
      <trkpt lat="46.43217" lon="-1.59474">
        <ele>42.70567</ele>
        <time>2022-12-18T16:54:33.678Z</time>
      </trkpt>
      <trkpt lat="46.43209" lon="-1.59463">
        <ele>42.708161</ele>
        <time>2022-12-18T16:54:36.664Z</time>
      </trkpt>
      <trkpt lat="46.432" lon="-1.59452">
        <ele>42.71078</ele>
        <time>2022-12-18T16:54:39.676Z</time>
      </trkpt>
      <trkpt lat="46.43193" lon="-1.5944">
        <ele>42.713464</ele>
        <time>2022-12-18T16:54:42.665Z</time>
      </trkpt>
      <trkpt lat="46.43186" lon="-1.59427">
        <ele>42.716129</ele>
        <time>2022-12-18T16:54:45.670Z</time>
      </trkpt>
      <trkpt lat="46.4318" lon="-1.59414">
        <ele>42.718459</ele>
        <time>2022-12-18T16:54:48.662Z</time>
      </trkpt>
      <trkpt lat="46.43175" lon="-1.59401">
        <ele>42.720914</ele>
        <time>2022-12-18T16:54:51.669Z</time>
      </trkpt>
      <trkpt lat="46.43169" lon="-1.59388">
        <ele>42.72339</ele>
        <time>2022-12-18T16:54:54.659Z</time>
      </trkpt>
      <trkpt lat="46.43163" lon="-1.59375">
        <ele>42.725906</ele>
        <time>2022-12-18T16:54:57.666Z</time>
      </trkpt>
      <trkpt lat="46.43157" lon="-1.59362">
        <ele>42.728513</ele>
        <time>2022-12-18T16:55:00.668Z</time>
      </trkpt>
      <trkpt lat="46.43151" lon="-1.5935">
        <ele>42.73083</ele>
        <time>2022-12-18T16:55:03.667Z</time>
      </trkpt>
      <trkpt lat="46.43144" lon="-1.59338">
        <ele>42.733272</ele>
        <time>2022-12-18T16:55:06.664Z</time>
      </trkpt>
      <trkpt lat="46.43137" lon="-1.59326">
        <ele>42.735747</ele>
        <time>2022-12-18T16:55:09.663Z</time>
      </trkpt>
      <trkpt lat="46.43129" lon="-1.59315">
        <ele>42.750361</ele>
        <time>2022-12-18T16:55:12.669Z</time>
      </trkpt>
      <trkpt lat="46.43121" lon="-1.59305">
        <ele>42.78043</ele>
        <time>2022-12-18T16:55:15.665Z</time>
      </trkpt>
      <trkpt lat="46.43113" lon="-1.59295">
        <ele>42.809899</ele>
        <time>2022-12-18T16:55:18.653Z</time>
      </trkpt>
      <trkpt lat="46.43105" lon="-1.59285">
        <ele>42.840501</ele>
        <time>2022-12-18T16:55:21.673Z</time>
      </trkpt>
      <trkpt lat="46.43096" lon="-1.59276">
        <ele>42.87129</ele>
        <time>2022-12-18T16:55:24.675Z</time>
      </trkpt>
      <trkpt lat="46.43088" lon="-1.59267">
        <ele>42.902192</ele>
        <time>2022-12-18T16:55:27.666Z</time>
      </trkpt>
      <trkpt lat="46.43078" lon="-1.59258">
        <ele>42.933944</ele>
        <time>2022-12-18T16:55:30.678Z</time>
      </trkpt>
      <trkpt lat="46.43069" lon="-1.59251">
        <ele>42.965563</ele>
        <time>2022-12-18T16:55:33.664Z</time>
      </trkpt>
      <trkpt lat="46.4306" lon="-1.59244">
        <ele>42.994054</ele>
        <time>2022-12-18T16:55:36.656Z</time>
      </trkpt>
      <trkpt lat="46.43051" lon="-1.59238">
        <ele>43.022063</ele>
        <time>2022-12-18T16:55:39.679Z</time>
      </trkpt>
      <trkpt lat="46.43043" lon="-1.59228">
        <ele>43.051059</ele>
        <time>2022-12-18T16:55:42.674Z</time>
      </trkpt>
      <trkpt lat="46.43036" lon="-1.59219">
        <ele>43.079238</ele>
        <time>2022-12-18T16:55:45.671Z</time>
      </trkpt>
      <trkpt lat="46.43029" lon="-1.59209">
        <ele>43.106244</ele>
        <time>2022-12-18T16:55:48.667Z</time>
      </trkpt>
      <trkpt lat="46.43022" lon="-1.59198">
        <ele>43.136197</ele>
        <time>2022-12-18T16:55:51.674Z</time>
      </trkpt>
      <trkpt lat="46.43017" lon="-1.59184">
        <ele>43.167931</ele>
        <time>2022-12-18T16:55:54.666Z</time>
      </trkpt>
      <trkpt lat="46.43014" lon="-1.59169">
        <ele>43.197655</ele>
        <time>2022-12-18T16:55:57.666Z</time>
      </trkpt>
      <trkpt lat="46.43012" lon="-1.59155">
        <ele>43.225585</ele>
        <time>2022-12-18T16:56:00.666Z</time>
      </trkpt>
      <trkpt lat="46.43009" lon="-1.59141">
        <ele>43.281151</ele>
        <time>2022-12-18T16:56:03.672Z</time>
      </trkpt>
      <trkpt lat="46.43005" lon="-1.59127">
        <ele>43.536421</ele>
        <time>2022-12-18T16:56:06.670Z</time>
      </trkpt>
      <trkpt lat="46.43" lon="-1.59114">
        <ele>43.791667</ele>
        <time>2022-12-18T16:56:09.673Z</time>
      </trkpt>
      <trkpt lat="46.42994" lon="-1.59102">
        <ele>44.044062</ele>
        <time>2022-12-18T16:56:12.665Z</time>
      </trkpt>
      <trkpt lat="46.42986" lon="-1.59092">
        <ele>44.306835</ele>
        <time>2022-12-18T16:56:15.672Z</time>
      </trkpt>
      <trkpt lat="46.42978" lon="-1.5908">
        <ele>44.586186</ele>
        <time>2022-12-18T16:56:18.655Z</time>
      </trkpt>
      <trkpt lat="46.4297" lon="-1.59069">
        <ele>44.859611</ele>
        <time>2022-12-18T16:56:21.666Z</time>
      </trkpt>
      <trkpt lat="46.42964" lon="-1.59057">
        <ele>45.117569</ele>
        <time>2022-12-18T16:56:24.672Z</time>
      </trkpt>
      <trkpt lat="46.4296" lon="-1.59041">
        <ele>45.400943</ele>
        <time>2022-12-18T16:56:27.669Z</time>
      </trkpt>
      <trkpt lat="46.42957" lon="-1.59025">
        <ele>45.68458</ele>
        <time>2022-12-18T16:56:30.665Z</time>
      </trkpt>
      <trkpt lat="46.42954" lon="-1.59011">
        <ele>45.936725</ele>
        <time>2022-12-18T16:56:33.664Z</time>
      </trkpt>
      <trkpt lat="46.4295" lon="-1.58999">
        <ele>46.166734</ele>
        <time>2022-12-18T16:56:36.675Z</time>
      </trkpt>
      <trkpt lat="46.42944" lon="-1.58988">
        <ele>46.393176</ele>
        <time>2022-12-18T16:56:39.665Z</time>
      </trkpt>
      <trkpt lat="46.42938" lon="-1.58979">
        <ele>46.618401</ele>
        <time>2022-12-18T16:56:42.664Z</time>
      </trkpt>
      <trkpt lat="46.42931" lon="-1.58966">
        <ele>46.885524</ele>
        <time>2022-12-18T16:56:47.659Z</time>
      </trkpt>
      <trkpt lat="46.42925" lon="-1.58956">
        <ele>47.119104</ele>
        <time>2022-12-18T16:56:53.668Z</time>
      </trkpt>
      <trkpt lat="46.42925" lon="-1.58956">
        <ele>47.12913</ele>
        <time>2022-12-18T16:57:06.213Z</time>
      </trkpt>
      <trkpt lat="46.4292" lon="-1.58944">
        <ele>47.371258</ele>
        <time>2022-12-18T17:02:51.660Z</time>
      </trkpt>
      <trkpt lat="46.42914" lon="-1.58932">
        <ele>47.610982</ele>
        <time>2022-12-18T17:03:12.658Z</time>
      </trkpt>
      <trkpt lat="46.42905" lon="-1.58926">
        <ele>47.87171</ele>
        <time>2022-12-18T17:03:23.661Z</time>
      </trkpt>
      <trkpt lat="46.42897" lon="-1.5892">
        <ele>48.128754</ele>
        <time>2022-12-18T17:03:35.658Z</time>
      </trkpt>
      <trkpt lat="46.42888" lon="-1.58915">
        <ele>48.36893</ele>
        <time>2022-12-18T17:03:44.664Z</time>
      </trkpt>
      <trkpt lat="46.42881" lon="-1.58907">
        <ele>48.611301</ele>
        <time>2022-12-18T17:03:53.659Z</time>
      </trkpt>
      <trkpt lat="46.42872" lon="-1.58903">
        <ele>48.865286</ele>
        <time>2022-12-18T17:04:12.658Z</time>
      </trkpt>
      <trkpt lat="46.42863" lon="-1.58897">
        <ele>49.13503</ele>
        <time>2022-12-18T17:04:23.658Z</time>
      </trkpt>
      <trkpt lat="46.42854" lon="-1.58889">
        <ele>49.399881</ele>
        <time>2022-12-18T17:04:32.658Z</time>
      </trkpt>
      <trkpt lat="46.42859" lon="-1.58853">
        <ele>50.083725</ele>
        <time>2022-12-18T17:04:59.666Z</time>
      </trkpt>
      <trkpt lat="46.42862" lon="-1.5884">
        <ele>50.329759</ele>
        <time>2022-12-18T17:05:02.676Z</time>
      </trkpt>
      <trkpt lat="46.42865" lon="-1.58824">
        <ele>50.640716</ele>
        <time>2022-12-18T17:05:05.674Z</time>
      </trkpt>
      <trkpt lat="46.42868" lon="-1.58804">
        <ele>51.005468</ele>
        <time>2022-12-18T17:05:08.662Z</time>
      </trkpt>
      <trkpt lat="46.42869" lon="-1.58791">
        <ele>51.254321</ele>
        <time>2022-12-18T17:05:10.666Z</time>
      </trkpt>
      <trkpt lat="46.42871" lon="-1.58772">
        <ele>51.600507</ele>
        <time>2022-12-18T17:05:13.676Z</time>
      </trkpt>
      <trkpt lat="46.42874" lon="-1.58754">
        <ele>51.946692</ele>
        <time>2022-12-18T17:05:16.659Z</time>
      </trkpt>
      <trkpt lat="46.42875" lon="-1.5874">
        <ele>52.200042</ele>
        <time>2022-12-18T17:05:18.651Z</time>
      </trkpt>
      <trkpt lat="46.42876" lon="-1.58721">
        <ele>52.462322</ele>
        <time>2022-12-18T17:05:21.656Z</time>
      </trkpt>
      <trkpt lat="46.42877" lon="-1.58704">
        <ele>52.322565</ele>
        <time>2022-12-18T17:05:23.667Z</time>
      </trkpt>
      <trkpt lat="46.42879" lon="-1.58689">
        <ele>52.192311</ele>
        <time>2022-12-18T17:05:25.657Z</time>
      </trkpt>
      <trkpt lat="46.4288" lon="-1.58675">
        <ele>52.067685</ele>
        <time>2022-12-18T17:05:27.667Z</time>
      </trkpt>
      <trkpt lat="46.42883" lon="-1.58661">
        <ele>51.941939</ele>
        <time>2022-12-18T17:05:29.650Z</time>
      </trkpt>
      <trkpt lat="46.42885" lon="-1.58648">
        <ele>51.827883</ele>
        <time>2022-12-18T17:05:31.671Z</time>
      </trkpt>
      <trkpt lat="46.42886" lon="-1.58634">
        <ele>51.713949</ele>
        <time>2022-12-18T17:05:33.665Z</time>
      </trkpt>
      <trkpt lat="46.42887" lon="-1.5862">
        <ele>51.592962</ele>
        <time>2022-12-18T17:05:35.655Z</time>
      </trkpt>
      <trkpt lat="46.42889" lon="-1.58607">
        <ele>51.476178</ele>
        <time>2022-12-18T17:05:37.663Z</time>
      </trkpt>
      <trkpt lat="46.42891" lon="-1.58591">
        <ele>51.339075</ele>
        <time>2022-12-18T17:05:39.660Z</time>
      </trkpt>
      <trkpt lat="46.42896" lon="-1.58574">
        <ele>51.18054</ele>
        <time>2022-12-18T17:05:42.659Z</time>
      </trkpt>
      <trkpt lat="46.42898" lon="-1.58555">
        <ele>51.017967</ele>
        <time>2022-12-18T17:05:45.656Z</time>
      </trkpt>
      <trkpt lat="46.429" lon="-1.58542">
        <ele>50.906072</ele>
        <time>2022-12-18T17:05:47.660Z</time>
      </trkpt>
      <trkpt lat="46.42902" lon="-1.58529">
        <ele>50.79075</ele>
        <time>2022-12-18T17:05:49.675Z</time>
      </trkpt>
      <trkpt lat="46.42904" lon="-1.5851">
        <ele>50.623095</ele>
        <time>2022-12-18T17:05:52.672Z</time>
      </trkpt>
      <trkpt lat="46.42907" lon="-1.58491">
        <ele>50.458851</ele>
        <time>2022-12-18T17:05:55.651Z</time>
      </trkpt>
      <trkpt lat="46.4291" lon="-1.58471">
        <ele>50.28701</ele>
        <time>2022-12-18T17:05:58.676Z</time>
      </trkpt>
      <trkpt lat="46.42911" lon="-1.58452">
        <ele>50.327148</ele>
        <time>2022-12-18T17:06:01.672Z</time>
      </trkpt>
      <trkpt lat="46.42913" lon="-1.58438">
        <ele>50.374052</ele>
        <time>2022-12-18T17:06:03.666Z</time>
      </trkpt>
      <trkpt lat="46.42915" lon="-1.58425">
        <ele>50.421093</ele>
        <time>2022-12-18T17:06:05.660Z</time>
      </trkpt>
      <trkpt lat="46.42916" lon="-1.5841">
        <ele>50.471677</ele>
        <time>2022-12-18T17:06:07.658Z</time>
      </trkpt>
      <trkpt lat="46.42918" lon="-1.58395">
        <ele>50.524187</ele>
        <time>2022-12-18T17:06:09.654Z</time>
      </trkpt>
      <trkpt lat="46.4292" lon="-1.58382">
        <ele>50.570454</ele>
        <time>2022-12-18T17:06:11.657Z</time>
      </trkpt>
      <trkpt lat="46.42923" lon="-1.58366">
        <ele>50.626471</ele>
        <time>2022-12-18T17:06:13.653Z</time>
      </trkpt>
      <trkpt lat="46.42923" lon="-1.58353">
        <ele>50.673063</ele>
        <time>2022-12-18T17:06:15.656Z</time>
      </trkpt>
      <trkpt lat="46.42924" lon="-1.58335">
        <ele>50.733345</ele>
        <time>2022-12-18T17:06:18.673Z</time>
      </trkpt>
      <trkpt lat="46.42927" lon="-1.58321">
        <ele>50.784339</ele>
        <time>2022-12-18T17:06:21.690Z</time>
      </trkpt>
      <trkpt lat="46.42929" lon="-1.58307">
        <ele>50.830916</ele>
        <time>2022-12-18T17:06:24.688Z</time>
      </trkpt>
      <trkpt lat="46.42931" lon="-1.5829">
        <ele>50.89101</ele>
        <time>2022-12-18T17:06:28.660Z</time>
      </trkpt>
      <trkpt lat="46.42934" lon="-1.58277">
        <ele>50.939036</ele>
        <time>2022-12-18T17:06:31.653Z</time>
      </trkpt>
      <trkpt lat="46.42935" lon="-1.58261">
        <ele>50.991565</ele>
        <time>2022-12-18T17:06:34.660Z</time>
      </trkpt>
      <trkpt lat="46.42937" lon="-1.58244">
        <ele>51.051684</ele>
        <time>2022-12-18T17:06:37.660Z</time>
      </trkpt>
      <trkpt lat="46.42939" lon="-1.58228">
        <ele>51.109039</ele>
        <time>2022-12-18T17:06:40.673Z</time>
      </trkpt>
      <trkpt lat="46.42941" lon="-1.58211">
        <ele>51.159119</ele>
        <time>2022-12-18T17:06:43.662Z</time>
      </trkpt>
      <trkpt lat="46.42943" lon="-1.58194">
        <ele>51.135005</ele>
        <time>2022-12-18T17:06:46.686Z</time>
      </trkpt>
      <trkpt lat="46.42944" lon="-1.58177">
        <ele>51.109254</ele>
        <time>2022-12-18T17:06:49.658Z</time>
      </trkpt>
      <trkpt lat="46.42946" lon="-1.58159">
        <ele>51.083199</ele>
        <time>2022-12-18T17:06:52.653Z</time>
      </trkpt>
      <trkpt lat="46.42949" lon="-1.58141">
        <ele>51.056652</ele>
        <time>2022-12-18T17:06:55.652Z</time>
      </trkpt>
      <trkpt lat="46.42951" lon="-1.58124">
        <ele>51.03187</ele>
        <time>2022-12-18T17:06:58.659Z</time>
      </trkpt>
      <trkpt lat="46.42953" lon="-1.58108">
        <ele>51.008901</ele>
        <time>2022-12-18T17:07:01.657Z</time>
      </trkpt>
      <trkpt lat="46.42956" lon="-1.58093">
        <ele>50.98582</ele>
        <time>2022-12-18T17:07:04.651Z</time>
      </trkpt>
      <trkpt lat="46.42959" lon="-1.58077">
        <ele>50.961891</ele>
        <time>2022-12-18T17:07:07.658Z</time>
      </trkpt>
      <trkpt lat="46.42961" lon="-1.58059">
        <ele>50.936724</ele>
        <time>2022-12-18T17:07:10.670Z</time>
      </trkpt>
      <trkpt lat="46.42964" lon="-1.58042">
        <ele>50.911094</ele>
        <time>2022-12-18T17:07:13.660Z</time>
      </trkpt>
      <trkpt lat="46.42966" lon="-1.58027">
        <ele>50.889012</ele>
        <time>2022-12-18T17:07:16.661Z</time>
      </trkpt>
      <trkpt lat="46.42967" lon="-1.58013">
        <ele>50.868597</ele>
        <time>2022-12-18T17:07:20.667Z</time>
      </trkpt>
      <trkpt lat="46.42965" lon="-1.58">
        <ele>50.849676</ele>
        <time>2022-12-18T17:07:27.656Z</time>
      </trkpt>
      <trkpt lat="46.42972" lon="-1.57992">
        <ele>50.830278</ele>
        <time>2022-12-18T17:07:33.660Z</time>
      </trkpt>
      <trkpt lat="46.42975" lon="-1.57976">
        <ele>50.807226</ele>
        <time>2022-12-18T17:07:38.674Z</time>
      </trkpt>
      <trkpt lat="46.42991" lon="-1.57958">
        <ele>50.793283</ele>
        <time>2022-12-18T17:09:32.651Z</time>
      </trkpt>
      <trkpt lat="46.43002" lon="-1.57953">
        <ele>50.801153</ele>
        <time>2022-12-18T17:09:35.666Z</time>
      </trkpt>
      <trkpt lat="46.43011" lon="-1.57939">
        <ele>50.810481</ele>
        <time>2022-12-18T17:09:38.647Z</time>
      </trkpt>
      <trkpt lat="46.43015" lon="-1.57922">
        <ele>50.819534</ele>
        <time>2022-12-18T17:09:41.650Z</time>
      </trkpt>
      <trkpt lat="46.43016" lon="-1.57908">
        <ele>50.826355</ele>
        <time>2022-12-18T17:09:43.651Z</time>
      </trkpt>
      <trkpt lat="46.43017" lon="-1.57894">
        <ele>50.833397</ele>
        <time>2022-12-18T17:09:45.658Z</time>
      </trkpt>
      <trkpt lat="46.43019" lon="-1.57879">
        <ele>50.840402</ele>
        <time>2022-12-18T17:09:47.671Z</time>
      </trkpt>
      <trkpt lat="46.4302" lon="-1.57866">
        <ele>50.847165</ele>
        <time>2022-12-18T17:09:49.666Z</time>
      </trkpt>
      <trkpt lat="46.43021" lon="-1.57852">
        <ele>50.853946</ele>
        <time>2022-12-18T17:09:51.667Z</time>
      </trkpt>
      <trkpt lat="46.43024" lon="-1.57834">
        <ele>50.863188</ele>
        <time>2022-12-18T17:09:54.677Z</time>
      </trkpt>
      <trkpt lat="46.43026" lon="-1.57816">
        <ele>50.872058</ele>
        <time>2022-12-18T17:09:57.678Z</time>
      </trkpt>
      <trkpt lat="46.43027" lon="-1.57796">
        <ele>50.881621</ele>
        <time>2022-12-18T17:10:00.674Z</time>
      </trkpt>
      <trkpt lat="46.43028" lon="-1.57784">
        <ele>50.888012</ele>
        <time>2022-12-18T17:10:02.666Z</time>
      </trkpt>
      <trkpt lat="46.43033" lon="-1.57766">
        <ele>50.897416</ele>
        <time>2022-12-18T17:10:05.652Z</time>
      </trkpt>
      <trkpt lat="46.4304" lon="-1.57749">
        <ele>50.906934</ele>
        <time>2022-12-18T17:10:08.655Z</time>
      </trkpt>
      <trkpt lat="46.43046" lon="-1.57737">
        <ele>50.913927</ele>
        <time>2022-12-18T17:10:10.651Z</time>
      </trkpt>
      <trkpt lat="46.4305" lon="-1.57726">
        <ele>51.031173</ele>
        <time>2022-12-18T17:10:12.658Z</time>
      </trkpt>
      <trkpt lat="46.43055" lon="-1.57709">
        <ele>51.19752</ele>
        <time>2022-12-18T17:10:15.664Z</time>
      </trkpt>
      <trkpt lat="46.43058" lon="-1.57695">
        <ele>51.325293</ele>
        <time>2022-12-18T17:10:18.668Z</time>
      </trkpt>
      <trkpt lat="46.43052" lon="-1.57684">
        <ele>51.448137</ele>
        <time>2022-12-18T17:10:24.648Z</time>
      </trkpt>
      <trkpt lat="46.43042" lon="-1.57681">
        <ele>51.57983</ele>
        <time>2022-12-18T17:10:29.655Z</time>
      </trkpt>
      <trkpt lat="46.43031" lon="-1.57678">
        <ele>51.724908</ele>
        <time>2022-12-18T17:10:33.651Z</time>
      </trkpt>
      <trkpt lat="46.43023" lon="-1.57674">
        <ele>51.844534</ele>
        <time>2022-12-18T17:10:36.667Z</time>
      </trkpt>
      <trkpt lat="46.43014" lon="-1.5767">
        <ele>51.96717</ele>
        <time>2022-12-18T17:10:39.666Z</time>
      </trkpt>
      <trkpt lat="46.43004" lon="-1.57666">
        <ele>52.09737</ele>
        <time>2022-12-18T17:10:42.670Z</time>
      </trkpt>
      <trkpt lat="46.42995" lon="-1.57662">
        <ele>52.224038</ele>
        <time>2022-12-18T17:10:45.676Z</time>
      </trkpt>
      <trkpt lat="46.42986" lon="-1.57659">
        <ele>52.345665</ele>
        <time>2022-12-18T17:10:48.656Z</time>
      </trkpt>
      <trkpt lat="46.42975" lon="-1.57654">
        <ele>52.497775</ele>
        <time>2022-12-18T17:10:52.668Z</time>
      </trkpt>
      <trkpt lat="46.42965" lon="-1.57649">
        <ele>52.633966</ele>
        <time>2022-12-18T17:10:56.655Z</time>
      </trkpt>
      <trkpt lat="46.42955" lon="-1.57644">
        <ele>52.770812</ele>
        <time>2022-12-18T17:11:00.672Z</time>
      </trkpt>
      <trkpt lat="46.42945" lon="-1.5764">
        <ele>52.914095</ele>
        <time>2022-12-18T17:11:04.656Z</time>
      </trkpt>
      <trkpt lat="46.42934" lon="-1.57635">
        <ele>53.054609</ele>
        <time>2022-12-18T17:11:08.656Z</time>
      </trkpt>
      <trkpt lat="46.42924" lon="-1.5763">
        <ele>53.194814</ele>
        <time>2022-12-18T17:11:12.661Z</time>
      </trkpt>
      <trkpt lat="46.42915" lon="-1.57624">
        <ele>53.256014</ele>
        <time>2022-12-18T17:11:16.655Z</time>
      </trkpt>
      <trkpt lat="46.42906" lon="-1.57617">
        <ele>53.219312</ele>
        <time>2022-12-18T17:11:20.652Z</time>
      </trkpt>
      <trkpt lat="46.42897" lon="-1.57608">
        <ele>53.180621</ele>
        <time>2022-12-18T17:11:24.651Z</time>
      </trkpt>
      <trkpt lat="46.42888" lon="-1.57598">
        <ele>53.141473</ele>
        <time>2022-12-18T17:11:28.652Z</time>
      </trkpt>
      <trkpt lat="46.42879" lon="-1.57587">
        <ele>53.099349</ele>
        <time>2022-12-18T17:11:32.655Z</time>
      </trkpt>
      <trkpt lat="46.42872" lon="-1.57578">
        <ele>53.066649</ele>
        <time>2022-12-18T17:11:35.660Z</time>
      </trkpt>
      <trkpt lat="46.42863" lon="-1.57569">
        <ele>53.026151</ele>
        <time>2022-12-18T17:11:39.654Z</time>
      </trkpt>
      <trkpt lat="46.42851" lon="-1.57555">
        <ele>52.97248</ele>
        <time>2022-12-18T17:12:04.656Z</time>
      </trkpt>
      <trkpt lat="46.42841" lon="-1.57546">
        <ele>52.928995</ele>
        <time>2022-12-18T17:12:08.653Z</time>
      </trkpt>
      <trkpt lat="46.42831" lon="-1.57538">
        <ele>52.889557</ele>
        <time>2022-12-18T17:12:11.658Z</time>
      </trkpt>
      <trkpt lat="46.42821" lon="-1.57531">
        <ele>52.851721</ele>
        <time>2022-12-18T17:12:14.658Z</time>
      </trkpt>
      <trkpt lat="46.42812" lon="-1.57526">
        <ele>52.817661</ele>
        <time>2022-12-18T17:12:17.653Z</time>
      </trkpt>
      <trkpt lat="46.42803" lon="-1.57522">
        <ele>52.781629</ele>
        <time>2022-12-18T17:12:20.649Z</time>
      </trkpt>
      <trkpt lat="46.42792" lon="-1.5752">
        <ele>52.744535</ele>
        <time>2022-12-18T17:12:23.652Z</time>
      </trkpt>
      <trkpt lat="46.42781" lon="-1.57517">
        <ele>52.704552</ele>
        <time>2022-12-18T17:12:26.650Z</time>
      </trkpt>
      <trkpt lat="46.4277" lon="-1.57515">
        <ele>52.665092</ele>
        <time>2022-12-18T17:12:29.651Z</time>
      </trkpt>
      <trkpt lat="46.42759" lon="-1.57512">
        <ele>52.627874</ele>
        <time>2022-12-18T17:12:32.662Z</time>
      </trkpt>
      <trkpt lat="46.42748" lon="-1.57511">
        <ele>52.601067</ele>
        <time>2022-12-18T17:12:35.651Z</time>
      </trkpt>
      <trkpt lat="46.42735" lon="-1.57509">
        <ele>52.57248</ele>
        <time>2022-12-18T17:12:38.663Z</time>
      </trkpt>
      <trkpt lat="46.42722" lon="-1.57507">
        <ele>52.542911</ele>
        <time>2022-12-18T17:12:41.648Z</time>
      </trkpt>
      <trkpt lat="46.42709" lon="-1.57505">
        <ele>52.513775</ele>
        <time>2022-12-18T17:12:44.651Z</time>
      </trkpt>
      <trkpt lat="46.42696" lon="-1.57503">
        <ele>52.48438</ele>
        <time>2022-12-18T17:12:47.657Z</time>
      </trkpt>
      <trkpt lat="46.42684" lon="-1.57501">
        <ele>52.455416</ele>
        <time>2022-12-18T17:12:50.656Z</time>
      </trkpt>
      <trkpt lat="46.42671" lon="-1.57498">
        <ele>52.42686</ele>
        <time>2022-12-18T17:12:53.666Z</time>
      </trkpt>
      <trkpt lat="46.42659" lon="-1.57496">
        <ele>52.398793</ele>
        <time>2022-12-18T17:12:56.664Z</time>
      </trkpt>
      <trkpt lat="46.42646" lon="-1.57494">
        <ele>52.37035</ele>
        <time>2022-12-18T17:12:59.659Z</time>
      </trkpt>
      <trkpt lat="46.42634" lon="-1.57492">
        <ele>52.342771</ele>
        <time>2022-12-18T17:13:02.647Z</time>
      </trkpt>
      <trkpt lat="46.42623" lon="-1.57491">
        <ele>52.316215</ele>
        <time>2022-12-18T17:13:05.653Z</time>
      </trkpt>
      <trkpt lat="46.42611" lon="-1.57489">
        <ele>52.289495</ele>
        <time>2022-12-18T17:13:08.665Z</time>
      </trkpt>
      <trkpt lat="46.42599" lon="-1.57485">
        <ele>52.262801</ele>
        <time>2022-12-18T17:13:11.654Z</time>
      </trkpt>
      <trkpt lat="46.42588" lon="-1.57484">
        <ele>52.236607</ele>
        <time>2022-12-18T17:13:14.654Z</time>
      </trkpt>
      <trkpt lat="46.42576" lon="-1.57481">
        <ele>52.224369</ele>
        <time>2022-12-18T17:13:17.651Z</time>
      </trkpt>
      <trkpt lat="46.42564" lon="-1.5748">
        <ele>52.223592</ele>
        <time>2022-12-18T17:13:20.658Z</time>
      </trkpt>
      <trkpt lat="46.42551" lon="-1.57478">
        <ele>52.222819</ele>
        <time>2022-12-18T17:13:23.655Z</time>
      </trkpt>
      <trkpt lat="46.42539" lon="-1.57475">
        <ele>52.222046</ele>
        <time>2022-12-18T17:13:26.656Z</time>
      </trkpt>
      <trkpt lat="46.42527" lon="-1.57473">
        <ele>52.221241</ele>
        <time>2022-12-18T17:13:29.647Z</time>
      </trkpt>
      <trkpt lat="46.42514" lon="-1.57471">
        <ele>52.220455</ele>
        <time>2022-12-18T17:13:32.653Z</time>
      </trkpt>
      <trkpt lat="46.42503" lon="-1.57468">
        <ele>52.219723</ele>
        <time>2022-12-18T17:13:35.661Z</time>
      </trkpt>
      <trkpt lat="46.42491" lon="-1.57467">
        <ele>52.218984</ele>
        <time>2022-12-18T17:13:38.652Z</time>
      </trkpt>
      <trkpt lat="46.42479" lon="-1.57466">
        <ele>52.218235</ele>
        <time>2022-12-18T17:13:41.652Z</time>
      </trkpt>
      <trkpt lat="46.42467" lon="-1.57467">
        <ele>52.217489</ele>
        <time>2022-12-18T17:13:44.652Z</time>
      </trkpt>
      <trkpt lat="46.42456" lon="-1.57471">
        <ele>52.216754</ele>
        <time>2022-12-18T17:13:47.666Z</time>
      </trkpt>
      <trkpt lat="46.42444" lon="-1.57466">
        <ele>52.215991</ele>
        <time>2022-12-18T17:13:50.658Z</time>
      </trkpt>
      <trkpt lat="46.42434" lon="-1.57459">
        <ele>52.215243</ele>
        <time>2022-12-18T17:13:53.657Z</time>
      </trkpt>
      <trkpt lat="46.42423" lon="-1.57458">
        <ele>52.21455</ele>
        <time>2022-12-18T17:13:56.659Z</time>
      </trkpt>
      <trkpt lat="46.42413" lon="-1.57458">
        <ele>52.213946</ele>
        <time>2022-12-18T17:13:59.655Z</time>
      </trkpt>
      <trkpt lat="46.42403" lon="-1.57457">
        <ele>52.229811</ele>
        <time>2022-12-18T17:14:02.652Z</time>
      </trkpt>
      <trkpt lat="46.42392" lon="-1.57455">
        <ele>52.292703</ele>
        <time>2022-12-18T17:14:05.649Z</time>
      </trkpt>
      <trkpt lat="46.42381" lon="-1.57454">
        <ele>52.358753</ele>
        <time>2022-12-18T17:14:08.658Z</time>
      </trkpt>
      <trkpt lat="46.42369" lon="-1.57451">
        <ele>52.427637</ele>
        <time>2022-12-18T17:14:11.652Z</time>
      </trkpt>
      <trkpt lat="46.42357" lon="-1.57449">
        <ele>52.498051</ele>
        <time>2022-12-18T17:14:14.650Z</time>
      </trkpt>
      <trkpt lat="46.42345" lon="-1.57447">
        <ele>52.570348</ele>
        <time>2022-12-18T17:14:17.654Z</time>
      </trkpt>
      <trkpt lat="46.42333" lon="-1.57445">
        <ele>52.640095</ele>
        <time>2022-12-18T17:14:20.651Z</time>
      </trkpt>
      <trkpt lat="46.42321" lon="-1.57443">
        <ele>52.708683</ele>
        <time>2022-12-18T17:14:23.653Z</time>
      </trkpt>
      <trkpt lat="46.4231" lon="-1.57442">
        <ele>52.77603</ele>
        <time>2022-12-18T17:14:26.658Z</time>
      </trkpt>
      <trkpt lat="46.42298" lon="-1.57439">
        <ele>52.843942</ele>
        <time>2022-12-18T17:14:29.659Z</time>
      </trkpt>
      <trkpt lat="46.42287" lon="-1.57436">
        <ele>52.908337</ele>
        <time>2022-12-18T17:14:32.649Z</time>
      </trkpt>
      <trkpt lat="46.42277" lon="-1.57434">
        <ele>52.969665</ele>
        <time>2022-12-18T17:14:35.657Z</time>
      </trkpt>
      <trkpt lat="46.42266" lon="-1.57433">
        <ele>53.032197</ele>
        <time>2022-12-18T17:14:38.684Z</time>
      </trkpt>
      <trkpt lat="46.42256" lon="-1.5743">
        <ele>53.095314</ele>
        <time>2022-12-18T17:14:41.674Z</time>
      </trkpt>
      <trkpt lat="46.42246" lon="-1.57428">
        <ele>53.153123</ele>
        <time>2022-12-18T17:14:44.656Z</time>
      </trkpt>
      <trkpt lat="46.42234" lon="-1.57426">
        <ele>53.22225</ele>
        <time>2022-12-18T17:14:47.657Z</time>
      </trkpt>
      <trkpt lat="46.42225" lon="-1.57425">
        <ele>53.265135</ele>
        <time>2022-12-18T17:14:50.658Z</time>
      </trkpt>
      <trkpt lat="46.42213" lon="-1.5742">
        <ele>53.279204</ele>
        <time>2022-12-18T17:14:54.665Z</time>
      </trkpt>
      <trkpt lat="46.42204" lon="-1.57417">
        <ele>53.291383</ele>
        <time>2022-12-18T17:14:57.649Z</time>
      </trkpt>
      <trkpt lat="46.42192" lon="-1.57415">
        <ele>53.305046</ele>
        <time>2022-12-18T17:15:00.657Z</time>
      </trkpt>
      <trkpt lat="46.4218" lon="-1.57414">
        <ele>53.319564</ele>
        <time>2022-12-18T17:15:03.663Z</time>
      </trkpt>
      <trkpt lat="46.42168" lon="-1.57411">
        <ele>53.334696</ele>
        <time>2022-12-18T17:15:06.656Z</time>
      </trkpt>
      <trkpt lat="46.42155" lon="-1.57408">
        <ele>53.350291</ele>
        <time>2022-12-18T17:15:09.652Z</time>
      </trkpt>
      <trkpt lat="46.42142" lon="-1.57406">
        <ele>53.366016</ele>
        <time>2022-12-18T17:15:12.648Z</time>
      </trkpt>
      <trkpt lat="46.42129" lon="-1.57405">
        <ele>53.381207</ele>
        <time>2022-12-18T17:15:15.650Z</time>
      </trkpt>
      <trkpt lat="46.42118" lon="-1.57404">
        <ele>53.39461</ele>
        <time>2022-12-18T17:15:18.654Z</time>
      </trkpt>
      <trkpt lat="46.42108" lon="-1.57404">
        <ele>53.407622</ele>
        <time>2022-12-18T17:15:21.659Z</time>
      </trkpt>
      <trkpt lat="46.42097" lon="-1.57405">
        <ele>53.420402</ele>
        <time>2022-12-18T17:15:24.666Z</time>
      </trkpt>
      <trkpt lat="46.42087" lon="-1.57406">
        <ele>53.43225</ele>
        <time>2022-12-18T17:15:27.662Z</time>
      </trkpt>
      <trkpt lat="46.42078" lon="-1.57406">
        <ele>53.443339</ele>
        <time>2022-12-18T17:15:30.666Z</time>
      </trkpt>
      <trkpt lat="46.42067" lon="-1.57409">
        <ele>53.456766</ele>
        <time>2022-12-18T17:15:34.647Z</time>
      </trkpt>
      <trkpt lat="46.42057" lon="-1.57414">
        <ele>53.469479</ele>
        <time>2022-12-18T17:15:38.655Z</time>
      </trkpt>
      <trkpt lat="46.42047" lon="-1.57425">
        <ele>53.424806</ele>
        <time>2022-12-18T17:15:42.662Z</time>
      </trkpt>
      <trkpt lat="46.4204" lon="-1.57436">
        <ele>53.288358</ele>
        <time>2022-12-18T17:15:46.663Z</time>
      </trkpt>
      <trkpt lat="46.42038" lon="-1.57452">
        <ele>53.159666</ele>
        <time>2022-12-18T17:15:51.654Z</time>
      </trkpt>
      <trkpt lat="46.42038" lon="-1.57468">
        <ele>53.024196</ele>
        <time>2022-12-18T17:15:54.651Z</time>
      </trkpt>
      <trkpt lat="46.42038" lon="-1.57484">
        <ele>52.884564</ele>
        <time>2022-12-18T17:15:57.668Z</time>
      </trkpt>
      <trkpt lat="46.42039" lon="-1.57501">
        <ele>52.742829</ele>
        <time>2022-12-18T17:16:00.655Z</time>
      </trkpt>
      <trkpt lat="46.4204" lon="-1.57519">
        <ele>52.591558</ele>
        <time>2022-12-18T17:16:03.659Z</time>
      </trkpt>
      <trkpt lat="46.42042" lon="-1.57537">
        <ele>52.438742</ele>
        <time>2022-12-18T17:16:06.648Z</time>
      </trkpt>
      <trkpt lat="46.42044" lon="-1.57554">
        <ele>52.292757</ele>
        <time>2022-12-18T17:16:09.658Z</time>
      </trkpt>
      <trkpt lat="46.42046" lon="-1.57572">
        <ele>52.139822</ele>
        <time>2022-12-18T17:16:12.663Z</time>
      </trkpt>
      <trkpt lat="46.42047" lon="-1.5759">
        <ele>51.986173</ele>
        <time>2022-12-18T17:16:15.667Z</time>
      </trkpt>
      <trkpt lat="46.42049" lon="-1.57607">
        <ele>51.843168</ele>
        <time>2022-12-18T17:16:18.658Z</time>
      </trkpt>
      <trkpt lat="46.42051" lon="-1.57622">
        <ele>51.715172</ele>
        <time>2022-12-18T17:16:21.663Z</time>
      </trkpt>
      <trkpt lat="46.42051" lon="-1.57636">
        <ele>51.594496</ele>
        <time>2022-12-18T17:16:24.656Z</time>
      </trkpt>
      <trkpt lat="46.42052" lon="-1.57652">
        <ele>51.458631</ele>
        <time>2022-12-18T17:16:27.649Z</time>
      </trkpt>
      <trkpt lat="46.42053" lon="-1.5767">
        <ele>51.308311</ele>
        <time>2022-12-18T17:16:30.649Z</time>
      </trkpt>
      <trkpt lat="46.42055" lon="-1.57688">
        <ele>51.43766</ele>
        <time>2022-12-18T17:16:33.672Z</time>
      </trkpt>
      <trkpt lat="46.42055" lon="-1.57704">
        <ele>51.603647</ele>
        <time>2022-12-18T17:16:36.650Z</time>
      </trkpt>
      <trkpt lat="46.42056" lon="-1.57721">
        <ele>51.777042</ele>
        <time>2022-12-18T17:16:39.659Z</time>
      </trkpt>
      <trkpt lat="46.42056" lon="-1.57736">
        <ele>51.928795</ele>
        <time>2022-12-18T17:16:42.651Z</time>
      </trkpt>
      <trkpt lat="46.42056" lon="-1.57752">
        <ele>52.089834</ele>
        <time>2022-12-18T17:16:45.658Z</time>
      </trkpt>
      <trkpt lat="46.42054" lon="-1.57769">
        <ele>52.273053</ele>
        <time>2022-12-18T17:16:48.655Z</time>
      </trkpt>
      <trkpt lat="46.42053" lon="-1.57788">
        <ele>52.467336</ele>
        <time>2022-12-18T17:16:51.663Z</time>
      </trkpt>
      <trkpt lat="46.42052" lon="-1.57805">
        <ele>52.642596</ele>
        <time>2022-12-18T17:16:54.661Z</time>
      </trkpt>
      <trkpt lat="46.4205" lon="-1.57821">
        <ele>52.80201</ele>
        <time>2022-12-18T17:16:57.663Z</time>
      </trkpt>
      <trkpt lat="46.4205" lon="-1.57835">
        <ele>52.952946</ele>
        <time>2022-12-18T17:17:00.649Z</time>
      </trkpt>
      <trkpt lat="46.42049" lon="-1.57849">
        <ele>53.095143</ele>
        <time>2022-12-18T17:17:03.650Z</time>
      </trkpt>
      <trkpt lat="46.42048" lon="-1.57864">
        <ele>53.243682</ele>
        <time>2022-12-18T17:17:06.654Z</time>
      </trkpt>
      <trkpt lat="46.42048" lon="-1.57877">
        <ele>53.380876</ele>
        <time>2022-12-18T17:17:09.651Z</time>
      </trkpt>
      <trkpt lat="46.42048" lon="-1.57891">
        <ele>53.52263</ele>
        <time>2022-12-18T17:17:21.657Z</time>
      </trkpt>
      <trkpt lat="46.42046" lon="-1.57904">
        <ele>53.662095</ele>
        <time>2022-12-18T17:17:25.658Z</time>
      </trkpt>
      <trkpt lat="46.42044" lon="-1.57921">
        <ele>53.833876</ele>
        <time>2022-12-18T17:17:29.657Z</time>
      </trkpt>
      <trkpt lat="46.42043" lon="-1.57937">
        <ele>53.944951</ele>
        <time>2022-12-18T17:17:32.652Z</time>
      </trkpt>
      <trkpt lat="46.42043" lon="-1.57954">
        <ele>53.905922</ele>
        <time>2022-12-18T17:17:35.654Z</time>
      </trkpt>
      <trkpt lat="46.42042" lon="-1.57971">
        <ele>53.86732</ele>
        <time>2022-12-18T17:17:38.651Z</time>
      </trkpt>
      <trkpt lat="46.4204" lon="-1.57987">
        <ele>53.831633</ele>
        <time>2022-12-18T17:17:41.667Z</time>
      </trkpt>
      <trkpt lat="46.42039" lon="-1.58002">
        <ele>53.796508</ele>
        <time>2022-12-18T17:17:44.654Z</time>
      </trkpt>
      <trkpt lat="46.42038" lon="-1.58016">
        <ele>53.763638</ele>
        <time>2022-12-18T17:17:47.659Z</time>
      </trkpt>
      <trkpt lat="46.42038" lon="-1.5803">
        <ele>53.732231</ele>
        <time>2022-12-18T17:17:50.655Z</time>
      </trkpt>
      <trkpt lat="46.42037" lon="-1.58044">
        <ele>53.699909</ele>
        <time>2022-12-18T17:17:53.658Z</time>
      </trkpt>
      <trkpt lat="46.42037" lon="-1.58057">
        <ele>53.670094</ele>
        <time>2022-12-18T17:17:56.649Z</time>
      </trkpt>
      <trkpt lat="46.42036" lon="-1.58074">
        <ele>53.632752</ele>
        <time>2022-12-18T17:18:00.656Z</time>
      </trkpt>
      <trkpt lat="46.42035" lon="-1.58088">
        <ele>53.600911</ele>
        <time>2022-12-18T17:18:03.652Z</time>
      </trkpt>
      <trkpt lat="46.42034" lon="-1.58103">
        <ele>53.566645</ele>
        <time>2022-12-18T17:18:06.661Z</time>
      </trkpt>
      <trkpt lat="46.42034" lon="-1.58117">
        <ele>53.533859</ele>
        <time>2022-12-18T17:18:09.655Z</time>
      </trkpt>
      <trkpt lat="46.42034" lon="-1.58131">
        <ele>53.501756</ele>
        <time>2022-12-18T17:18:12.656Z</time>
      </trkpt>
      <trkpt lat="46.42032" lon="-1.58148">
        <ele>53.463318</ele>
        <time>2022-12-18T17:18:16.655Z</time>
      </trkpt>
      <trkpt lat="46.42032" lon="-1.58163">
        <ele>53.427802</ele>
        <time>2022-12-18T17:18:20.659Z</time>
      </trkpt>
      <trkpt lat="46.42031" lon="-1.58179">
        <ele>53.393154</ele>
        <time>2022-12-18T17:18:24.650Z</time>
      </trkpt>
      <trkpt lat="46.42029" lon="-1.58194">
        <ele>53.363181</ele>
        <time>2022-12-18T17:18:28.652Z</time>
      </trkpt>
      <trkpt lat="46.42022" lon="-1.58205">
        <ele>53.384876</ele>
        <time>2022-12-18T17:18:32.649Z</time>
      </trkpt>
      <trkpt lat="46.42014" lon="-1.58212">
        <ele>53.405641</ele>
        <time>2022-12-18T17:18:35.651Z</time>
      </trkpt>
      <trkpt lat="46.42004" lon="-1.58218">
        <ele>53.428194</ele>
        <time>2022-12-18T17:18:38.655Z</time>
      </trkpt>
      <trkpt lat="46.41993" lon="-1.58222">
        <ele>53.452906</ele>
        <time>2022-12-18T17:18:41.655Z</time>
      </trkpt>
      <trkpt lat="46.41983" lon="-1.58229">
        <ele>53.477848</ele>
        <time>2022-12-18T17:18:44.649Z</time>
      </trkpt>
      <trkpt lat="46.41972" lon="-1.58234">
        <ele>53.501351</ele>
        <time>2022-12-18T17:18:47.652Z</time>
      </trkpt>
      <trkpt lat="46.41963" lon="-1.58238">
        <ele>53.521799</ele>
        <time>2022-12-18T17:18:50.650Z</time>
      </trkpt>
      <trkpt lat="46.41954" lon="-1.58242">
        <ele>53.542952</ele>
        <time>2022-12-18T17:18:53.649Z</time>
      </trkpt>
      <trkpt lat="46.41944" lon="-1.58249">
        <ele>53.566169</ele>
        <time>2022-12-18T17:18:56.657Z</time>
      </trkpt>
      <trkpt lat="46.41935" lon="-1.58256">
        <ele>53.588626</ele>
        <time>2022-12-18T17:18:59.652Z</time>
      </trkpt>
      <trkpt lat="46.41926" lon="-1.58262">
        <ele>53.609264</ele>
        <time>2022-12-18T17:19:02.655Z</time>
      </trkpt>
      <trkpt lat="46.41915" lon="-1.5827">
        <ele>53.636038</ele>
        <time>2022-12-18T17:19:06.660Z</time>
      </trkpt>
      <trkpt lat="46.41906" lon="-1.58277">
        <ele>53.658235</ele>
        <time>2022-12-18T17:19:09.654Z</time>
      </trkpt>
      <trkpt lat="46.41896" lon="-1.58285">
        <ele>53.682765</ele>
        <time>2022-12-18T17:19:13.652Z</time>
      </trkpt>
      <trkpt lat="46.41889" lon="-1.58299">
        <ele>53.709092</ele>
        <time>2022-12-18T17:19:17.648Z</time>
      </trkpt>
      <trkpt lat="46.41884" lon="-1.58313">
        <ele>53.731693</ele>
        <time>2022-12-18T17:19:20.647Z</time>
      </trkpt>
      <trkpt lat="46.41883" lon="-1.58329">
        <ele>53.730674</ele>
        <time>2022-12-18T17:19:23.651Z</time>
      </trkpt>
      <trkpt lat="46.41884" lon="-1.58344">
        <ele>53.66693</ele>
        <time>2022-12-18T17:19:26.657Z</time>
      </trkpt>
      <trkpt lat="46.41884" lon="-1.5836">
        <ele>53.6026</ele>
        <time>2022-12-18T17:19:29.648Z</time>
      </trkpt>
      <trkpt lat="46.41885" lon="-1.58378">
        <ele>53.528653</ele>
        <time>2022-12-18T17:19:32.647Z</time>
      </trkpt>
      <trkpt lat="46.41885" lon="-1.58398">
        <ele>53.448191</ele>
        <time>2022-12-18T17:19:35.659Z</time>
      </trkpt>
      <trkpt lat="46.41885" lon="-1.58412">
        <ele>53.391429</ele>
        <time>2022-12-18T17:19:37.652Z</time>
      </trkpt>
      <trkpt lat="46.41885" lon="-1.58425">
        <ele>53.338342</ele>
        <time>2022-12-18T17:19:39.659Z</time>
      </trkpt>
      <trkpt lat="46.41884" lon="-1.58438">
        <ele>53.28439</ele>
        <time>2022-12-18T17:19:41.650Z</time>
      </trkpt>
      <trkpt lat="46.41885" lon="-1.58457">
        <ele>53.205933</ele>
        <time>2022-12-18T17:19:44.652Z</time>
      </trkpt>
      <trkpt lat="46.41885" lon="-1.5847">
        <ele>53.151612</ele>
        <time>2022-12-18T17:19:46.653Z</time>
      </trkpt>
      <trkpt lat="46.41885" lon="-1.58484">
        <ele>53.095233</ele>
        <time>2022-12-18T17:19:48.651Z</time>
      </trkpt>
      <trkpt lat="46.41884" lon="-1.58503">
        <ele>53.018354</ele>
        <time>2022-12-18T17:19:51.655Z</time>
      </trkpt>
      <trkpt lat="46.41885" lon="-1.58522">
        <ele>52.941578</ele>
        <time>2022-12-18T17:19:54.649Z</time>
      </trkpt>
      <trkpt lat="46.41885" lon="-1.5854">
        <ele>52.865887</ele>
        <time>2022-12-18T17:19:57.658Z</time>
      </trkpt>
      <trkpt lat="46.41885" lon="-1.58556">
        <ele>52.80083</ele>
        <time>2022-12-18T17:20:00.648Z</time>
      </trkpt>
      <trkpt lat="46.41885" lon="-1.58572">
        <ele>52.73588</ele>
        <time>2022-12-18T17:20:03.647Z</time>
      </trkpt>
      <trkpt lat="46.41885" lon="-1.58586">
        <ele>52.687383</ele>
        <time>2022-12-18T17:20:06.660Z</time>
      </trkpt>
      <trkpt lat="46.41885" lon="-1.586">
        <ele>52.759259</ele>
        <time>2022-12-18T17:20:10.660Z</time>
      </trkpt>
      <trkpt lat="46.41886" lon="-1.58614">
        <ele>52.832755</ele>
        <time>2022-12-18T17:20:14.652Z</time>
      </trkpt>
      <trkpt lat="46.41886" lon="-1.58631">
        <ele>52.918121</ele>
        <time>2022-12-18T17:20:18.650Z</time>
      </trkpt>
      <trkpt lat="46.41887" lon="-1.58647">
        <ele>53.000332</ele>
        <time>2022-12-18T17:20:22.657Z</time>
      </trkpt>
      <trkpt lat="46.41881" lon="-1.58658">
        <ele>53.071467</ele>
        <time>2022-12-18T17:20:26.649Z</time>
      </trkpt>
      <trkpt lat="46.41869" lon="-1.58662">
        <ele>53.162312</ele>
        <time>2022-12-18T17:20:30.658Z</time>
      </trkpt>
      <trkpt lat="46.4186" lon="-1.58666">
        <ele>53.231537</ele>
        <time>2022-12-18T17:20:33.663Z</time>
      </trkpt>
      <trkpt lat="46.41851" lon="-1.5867">
        <ele>53.303762</ele>
        <time>2022-12-18T17:20:36.649Z</time>
      </trkpt>
      <trkpt lat="46.41841" lon="-1.58676">
        <ele>53.382001</ele>
        <time>2022-12-18T17:20:39.651Z</time>
      </trkpt>
      <trkpt lat="46.41832" lon="-1.5868">
        <ele>53.457607</ele>
        <time>2022-12-18T17:20:42.668Z</time>
      </trkpt>
      <trkpt lat="46.41822" lon="-1.58686">
        <ele>53.535482</ele>
        <time>2022-12-18T17:20:45.654Z</time>
      </trkpt>
      <trkpt lat="46.41811" lon="-1.58692">
        <ele>53.618629</ele>
        <time>2022-12-18T17:20:48.663Z</time>
      </trkpt>
      <trkpt lat="46.41801" lon="-1.58697">
        <ele>53.702982</ele>
        <time>2022-12-18T17:20:51.658Z</time>
      </trkpt>
      <trkpt lat="46.41792" lon="-1.58704">
        <ele>53.778282</ele>
        <time>2022-12-18T17:20:54.654Z</time>
      </trkpt>
      <trkpt lat="46.41783" lon="-1.58711">
        <ele>53.851314</ele>
        <time>2022-12-18T17:20:59.657Z</time>
      </trkpt>
      <trkpt lat="46.41774" lon="-1.58716">
        <ele>53.924138</ele>
        <time>2022-12-18T17:21:04.658Z</time>
      </trkpt>
      <trkpt lat="46.41764" lon="-1.58722">
        <ele>54.007285</ele>
        <time>2022-12-18T17:21:08.667Z</time>
      </trkpt>
      <trkpt lat="46.41754" lon="-1.58728">
        <ele>54.219663</ele>
        <time>2022-12-18T17:21:11.651Z</time>
      </trkpt>
      <trkpt lat="46.41745" lon="-1.58735">
        <ele>54.442973</ele>
        <time>2022-12-18T17:21:14.656Z</time>
      </trkpt>
      <trkpt lat="46.41738" lon="-1.58743">
        <ele>54.649459</ele>
        <time>2022-12-18T17:21:17.657Z</time>
      </trkpt>
      <trkpt lat="46.41728" lon="-1.58754">
        <ele>54.917188</ele>
        <time>2022-12-18T17:21:21.658Z</time>
      </trkpt>
      <trkpt lat="46.41721" lon="-1.58764">
        <ele>55.14395</ele>
        <time>2022-12-18T17:21:24.656Z</time>
      </trkpt>
      <trkpt lat="46.41714" lon="-1.58774">
        <ele>55.369137</ele>
        <time>2022-12-18T17:21:27.659Z</time>
      </trkpt>
      <trkpt lat="46.41707" lon="-1.58785">
        <ele>55.601774</ele>
        <time>2022-12-18T17:21:30.667Z</time>
      </trkpt>
      <trkpt lat="46.41699" lon="-1.58797">
        <ele>55.851216</ele>
        <time>2022-12-18T17:21:33.660Z</time>
      </trkpt>
      <trkpt lat="46.41691" lon="-1.58808">
        <ele>56.096243</ele>
        <time>2022-12-18T17:21:37.659Z</time>
      </trkpt>
      <trkpt lat="46.41684" lon="-1.58817">
        <ele>56.311878</ele>
        <time>2022-12-18T17:21:41.655Z</time>
      </trkpt>
      <trkpt lat="46.41677" lon="-1.58831">
        <ele>56.586313</ele>
        <time>2022-12-18T17:21:45.653Z</time>
      </trkpt>
      <trkpt lat="46.4167" lon="-1.58844">
        <ele>56.832618</ele>
        <time>2022-12-18T17:21:48.658Z</time>
      </trkpt>
      <trkpt lat="46.41664" lon="-1.58858">
        <ele>57.105641</ele>
        <time>2022-12-18T17:21:51.651Z</time>
      </trkpt>
      <trkpt lat="46.41659" lon="-1.5887">
        <ele>57.318367</ele>
        <time>2022-12-18T17:21:54.658Z</time>
      </trkpt>
      <trkpt lat="46.41653" lon="-1.58883">
        <ele>57.563295</ele>
        <time>2022-12-18T17:21:57.651Z</time>
      </trkpt>
      <trkpt lat="46.41646" lon="-1.58897">
        <ele>57.823773</ele>
        <time>2022-12-18T17:22:00.654Z</time>
      </trkpt>
      <trkpt lat="46.41638" lon="-1.58911">
        <ele>58.024274</ele>
        <time>2022-12-18T17:22:03.646Z</time>
      </trkpt>
      <trkpt lat="46.41633" lon="-1.58922">
        <ele>57.782942</ele>
        <time>2022-12-18T17:22:05.654Z</time>
      </trkpt>
      <trkpt lat="46.41627" lon="-1.58933">
        <ele>57.558387</ele>
        <time>2022-12-18T17:22:07.667Z</time>
      </trkpt>
      <trkpt lat="46.41621" lon="-1.58948">
        <ele>57.254341</ele>
        <time>2022-12-18T17:22:10.655Z</time>
      </trkpt>
      <trkpt lat="46.41614" lon="-1.58963">
        <ele>56.935023</ele>
        <time>2022-12-18T17:22:11.559Z</time>
      </trkpt>
      <trkpt lat="46.41606" lon="-1.58979">
        <ele>56.607058</ele>
        <time>2022-12-18T17:22:14.563Z</time>
      </trkpt>
      <trkpt lat="46.41599" lon="-1.58995">
        <ele>56.279093</ele>
        <time>2022-12-18T17:22:17.574Z</time>
      </trkpt>
      <trkpt lat="46.41592" lon="-1.59011">
        <ele>55.948395</ele>
        <time>2022-12-18T17:22:20.554Z</time>
      </trkpt>
      <trkpt lat="46.41585" lon="-1.59025">
        <ele>55.658825</ele>
        <time>2022-12-18T17:22:23.561Z</time>
      </trkpt>
      <trkpt lat="46.4158" lon="-1.59038">
        <ele>55.403123</ele>
        <time>2022-12-18T17:22:26.563Z</time>
      </trkpt>
      <trkpt lat="46.41576" lon="-1.5905">
        <ele>55.167973</ele>
        <time>2022-12-18T17:22:29.561Z</time>
      </trkpt>
      <trkpt lat="46.41571" lon="-1.59061">
        <ele>54.929383</ele>
        <time>2022-12-18T17:22:32.563Z</time>
      </trkpt>
      <trkpt lat="46.41565" lon="-1.59072">
        <ele>54.698072</ele>
        <time>2022-12-18T17:22:35.556Z</time>
      </trkpt>
      <trkpt lat="46.4156" lon="-1.59083">
        <ele>54.471016</ele>
        <time>2022-12-18T17:22:38.559Z</time>
      </trkpt>
      <trkpt lat="46.41554" lon="-1.59095">
        <ele>54.218029</ele>
        <time>2022-12-18T17:22:41.545Z</time>
      </trkpt>
      <trkpt lat="46.41546" lon="-1.59109">
        <ele>53.89778</ele>
        <time>2022-12-18T17:22:44.560Z</time>
      </trkpt>
      <trkpt lat="46.41536" lon="-1.59121">
        <ele>53.586588</ele>
        <time>2022-12-18T17:22:47.558Z</time>
      </trkpt>
      <trkpt lat="46.41527" lon="-1.59132">
        <ele>53.642479</ele>
        <time>2022-12-18T17:22:50.554Z</time>
      </trkpt>
      <trkpt lat="46.41518" lon="-1.59143">
        <ele>53.71764</ele>
        <time>2022-12-18T17:22:53.552Z</time>
      </trkpt>
      <trkpt lat="46.41508" lon="-1.59152">
        <ele>53.790868</ele>
        <time>2022-12-18T17:22:56.565Z</time>
      </trkpt>
      <trkpt lat="46.41498" lon="-1.5916">
        <ele>53.865649</ele>
        <time>2022-12-18T17:22:59.552Z</time>
      </trkpt>
      <trkpt lat="46.41487" lon="-1.59168">
        <ele>53.942828</ele>
        <time>2022-12-18T17:23:02.568Z</time>
      </trkpt>
      <trkpt lat="46.41477" lon="-1.59178">
        <ele>54.018804</ele>
        <time>2022-12-18T17:23:05.549Z</time>
      </trkpt>
      <trkpt lat="46.41467" lon="-1.59187">
        <ele>54.098245</ele>
        <time>2022-12-18T17:23:08.567Z</time>
      </trkpt>
      <trkpt lat="46.41455" lon="-1.59197">
        <ele>54.181841</ele>
        <time>2022-12-18T17:23:11.562Z</time>
      </trkpt>
      <trkpt lat="46.41445" lon="-1.59206">
        <ele>54.261783</ele>
        <time>2022-12-18T17:23:14.559Z</time>
      </trkpt>
      <trkpt lat="46.41434" lon="-1.59215">
        <ele>54.341303</ele>
        <time>2022-12-18T17:23:17.561Z</time>
      </trkpt>
      <trkpt lat="46.41424" lon="-1.59224">
        <ele>54.415162</ele>
        <time>2022-12-18T17:23:20.568Z</time>
      </trkpt>
      <trkpt lat="46.41416" lon="-1.59231">
        <ele>54.473869</ele>
        <time>2022-12-18T17:23:23.562Z</time>
      </trkpt>
      <trkpt lat="46.41407" lon="-1.5924">
        <ele>54.544117</ele>
        <time>2022-12-18T17:23:26.580Z</time>
      </trkpt>
      <trkpt lat="46.41397" lon="-1.59246">
        <ele>54.614075</ele>
        <time>2022-12-18T17:23:29.582Z</time>
      </trkpt>
      <trkpt lat="46.41387" lon="-1.59253">
        <ele>54.688601</ele>
        <time>2022-12-18T17:23:32.567Z</time>
      </trkpt>
      <trkpt lat="46.41377" lon="-1.5926">
        <ele>54.610441</ele>
        <time>2022-12-18T17:23:35.580Z</time>
      </trkpt>
      <trkpt lat="46.41366" lon="-1.59267">
        <ele>54.387045</ele>
        <time>2022-12-18T17:23:38.561Z</time>
      </trkpt>
      <trkpt lat="46.41356" lon="-1.59275">
        <ele>54.165354</ele>
        <time>2022-12-18T17:23:41.568Z</time>
      </trkpt>
      <trkpt lat="46.41344" lon="-1.59282">
        <ele>53.931179</ele>
        <time>2022-12-18T17:23:44.584Z</time>
      </trkpt>
      <trkpt lat="46.41333" lon="-1.5929">
        <ele>53.7022</ele>
        <time>2022-12-18T17:23:47.550Z</time>
      </trkpt>
      <trkpt lat="46.41323" lon="-1.59298">
        <ele>53.49219</ele>
        <time>2022-12-18T17:23:50.594Z</time>
      </trkpt>
      <trkpt lat="46.41313" lon="-1.59304">
        <ele>53.29325</ele>
        <time>2022-12-18T17:23:53.568Z</time>
      </trkpt>
      <trkpt lat="46.41305" lon="-1.59311">
        <ele>53.106394</ele>
        <time>2022-12-18T17:23:56.558Z</time>
      </trkpt>
      <trkpt lat="46.41294" lon="-1.59319">
        <ele>52.882701</ele>
        <time>2022-12-18T17:23:59.569Z</time>
      </trkpt>
      <trkpt lat="46.41284" lon="-1.59328">
        <ele>52.655455</ele>
        <time>2022-12-18T17:24:02.583Z</time>
      </trkpt>
      <trkpt lat="46.41274" lon="-1.59337">
        <ele>52.434996</ele>
        <time>2022-12-18T17:24:05.572Z</time>
      </trkpt>
      <trkpt lat="46.41263" lon="-1.59348">
        <ele>52.203184</ele>
        <time>2022-12-18T17:24:08.580Z</time>
      </trkpt>
      <trkpt lat="46.41254" lon="-1.59359">
        <ele>51.972018</ele>
        <time>2022-12-18T17:24:11.551Z</time>
      </trkpt>
      <trkpt lat="46.41243" lon="-1.5937">
        <ele>51.725092</ele>
        <time>2022-12-18T17:24:14.560Z</time>
      </trkpt>
      <trkpt lat="46.41232" lon="-1.59382">
        <ele>51.48035</ele>
        <time>2022-12-18T17:24:17.570Z</time>
      </trkpt>
      <trkpt lat="46.41222" lon="-1.59392">
        <ele>51.363705</ele>
        <time>2022-12-18T17:24:20.560Z</time>
      </trkpt>
      <trkpt lat="46.41212" lon="-1.59405">
        <ele>51.363705</ele>
        <time>2022-12-18T17:24:23.558Z</time>
      </trkpt>
      <trkpt lat="46.41203" lon="-1.59415">
        <ele>51.363705</ele>
        <time>2022-12-18T17:24:26.560Z</time>
      </trkpt>
      <trkpt lat="46.41193" lon="-1.59425">
        <ele>51.363705</ele>
        <time>2022-12-18T17:24:29.576Z</time>
      </trkpt>
      <trkpt lat="46.41183" lon="-1.59436">
        <ele>51.363705</ele>
        <time>2022-12-18T17:24:32.563Z</time>
      </trkpt>
      <trkpt lat="46.41174" lon="-1.59446">
        <ele>51.363705</ele>
        <time>2022-12-18T17:24:35.558Z</time>
      </trkpt>
      <trkpt lat="46.41166" lon="-1.59454">
        <ele>51.363705</ele>
        <time>2022-12-18T17:24:38.561Z</time>
      </trkpt>
      <trkpt lat="46.41157" lon="-1.59464">
        <ele>51.363705</ele>
        <time>2022-12-18T17:24:42.564Z</time>
      </trkpt>
      <trkpt lat="46.41148" lon="-1.59473">
        <ele>51.363705</ele>
        <time>2022-12-18T17:24:46.562Z</time>
      </trkpt>
      <trkpt lat="46.41141" lon="-1.59483">
        <ele>51.363705</ele>
        <time>2022-12-18T17:24:50.571Z</time>
      </trkpt>
      <trkpt lat="46.41133" lon="-1.59492">
        <ele>51.363705</ele>
        <time>2022-12-18T17:24:54.556Z</time>
      </trkpt>
      <trkpt lat="46.41125" lon="-1.595">
        <ele>51.363705</ele>
        <time>2022-12-18T17:24:59.560Z</time>
      </trkpt>
      <trkpt lat="46.41118" lon="-1.59489">
        <ele>51.363705</ele>
        <time>2022-12-18T17:25:05.572Z</time>
      </trkpt>
      <trkpt lat="46.41113" lon="-1.59475">
        <ele>51.363705</ele>
        <time>2022-12-18T17:25:09.562Z</time>
      </trkpt>
      <trkpt lat="46.41109" lon="-1.5946">
        <ele>51.363705</ele>
        <time>2022-12-18T17:25:13.576Z</time>
      </trkpt>
      <trkpt lat="46.41104" lon="-1.59448">
        <ele>51.363705</ele>
        <time>2022-12-18T17:25:16.562Z</time>
      </trkpt>
      <trkpt lat="46.411" lon="-1.59435">
        <ele>51.363705</ele>
        <time>2022-12-18T17:25:19.571Z</time>
      </trkpt>
      <trkpt lat="46.41096" lon="-1.59423">
        <ele>51.363705</ele>
        <time>2022-12-18T17:25:22.561Z</time>
      </trkpt>
      <trkpt lat="46.41092" lon="-1.5941">
        <ele>51.363705</ele>
        <time>2022-12-18T17:25:25.577Z</time>
      </trkpt>
      <trkpt lat="46.41089" lon="-1.59398">
        <ele>51.363705</ele>
        <time>2022-12-18T17:25:28.562Z</time>
      </trkpt>
      <trkpt lat="46.41086" lon="-1.59384">
        <ele>51.363705</ele>
        <time>2022-12-18T17:25:32.572Z</time>
      </trkpt>
      <trkpt lat="46.41082" lon="-1.5937">
        <ele>51.363705</ele>
        <time>2022-12-18T17:25:38.572Z</time>
      </trkpt>
      <trkpt lat="46.41079" lon="-1.59357">
        <ele>51.363705</ele>
        <time>2022-12-18T17:25:44.570Z</time>
      </trkpt>
      <trkpt lat="46.41075" lon="-1.59345">
        <ele>51.363705</ele>
        <time>2022-12-18T17:25:51.556Z</time>
      </trkpt>
      <trkpt lat="46.41074" lon="-1.59339">
        <ele>51.363705</ele>
        <time>2022-12-18T17:26:43.988Z</time>
        <extensions>
          <visugpx:TrkExtension xmlns:visugpx="https://www.visugpx.com/editgpx/">
            <visugpx:node>1</visugpx:node>
            </visugpx:TrkExtension>
        </extensions>
      </trkpt>
    </trkseg>
  </trk>
  <trk>
    <name><![CDATA[Jard sur mer - La Rochelle]]></name>
    <extensions>
      <line xmlns="http://www.topografix.com/GPX/gpx_style/0/2">
        <color>0000ff</color>
        <width>4</width>
      </line>
    </extensions>
    <trkseg>
      <trkpt lat="46.41205" lon="-1.58247">
        <ele>61.469893</ele>
        <time>2022-12-19T08:17:10.875Z</time>
      </trkpt>
      <trkpt lat="46.41215" lon="-1.58232">
        <ele>61.469893</ele>
        <time>2022-12-19T08:17:26.315Z</time>
      </trkpt>
      <trkpt lat="46.4122" lon="-1.58221">
        <ele>61.469893</ele>
        <time>2022-12-19T08:17:30.324Z</time>
      </trkpt>
      <trkpt lat="46.41224" lon="-1.58206">
        <ele>61.469893</ele>
        <time>2022-12-19T08:17:35.304Z</time>
      </trkpt>
      <trkpt lat="46.41227" lon="-1.58192">
        <ele>61.469893</ele>
        <time>2022-12-19T08:17:39.314Z</time>
      </trkpt>
      <trkpt lat="46.41229" lon="-1.58176">
        <ele>61.469893</ele>
        <time>2022-12-19T08:17:43.328Z</time>
      </trkpt>
      <trkpt lat="46.41231" lon="-1.5816">
        <ele>61.469893</ele>
        <time>2022-12-19T08:17:47.323Z</time>
      </trkpt>
      <trkpt lat="46.41233" lon="-1.58143">
        <ele>61.469893</ele>
        <time>2022-12-19T08:17:51.315Z</time>
      </trkpt>
      <trkpt lat="46.41234" lon="-1.58129">
        <ele>61.469893</ele>
        <time>2022-12-19T08:17:54.312Z</time>
      </trkpt>
      <trkpt lat="46.41234" lon="-1.58115">
        <ele>61.492567</ele>
        <time>2022-12-19T08:17:57.327Z</time>
      </trkpt>
      <trkpt lat="46.41234" lon="-1.58101">
        <ele>61.517782</ele>
        <time>2022-12-19T08:18:00.318Z</time>
      </trkpt>
      <trkpt lat="46.41244" lon="-1.58096">
        <ele>61.547379</ele>
        <time>2022-12-19T08:18:09.303Z</time>
      </trkpt>
      <trkpt lat="46.41252" lon="-1.58089">
        <ele>61.572354</ele>
        <time>2022-12-19T08:18:13.306Z</time>
      </trkpt>
      <trkpt lat="46.4126" lon="-1.58079">
        <ele>61.600707</ele>
        <time>2022-12-19T08:18:17.308Z</time>
      </trkpt>
      <trkpt lat="46.41269" lon="-1.5807">
        <ele>61.63032</ele>
        <time>2022-12-19T08:18:21.304Z</time>
      </trkpt>
      <trkpt lat="46.41278" lon="-1.5806">
        <ele>61.659911</ele>
        <time>2022-12-19T08:18:25.323Z</time>
      </trkpt>
      <trkpt lat="46.41286" lon="-1.58051">
        <ele>61.686882</ele>
        <time>2022-12-19T08:18:29.302Z</time>
      </trkpt>
      <trkpt lat="46.41293" lon="-1.58043">
        <ele>61.712966</ele>
        <time>2022-12-19T08:18:33.321Z</time>
      </trkpt>
      <trkpt lat="46.41303" lon="-1.58034">
        <ele>61.743486</ele>
        <time>2022-12-19T08:18:38.299Z</time>
      </trkpt>
      <trkpt lat="46.4131" lon="-1.58025">
        <ele>61.769344</ele>
        <time>2022-12-19T08:18:42.318Z</time>
      </trkpt>
      <trkpt lat="46.41318" lon="-1.58017">
        <ele>61.795888</ele>
        <time>2022-12-19T08:18:46.295Z</time>
      </trkpt>
      <trkpt lat="46.41326" lon="-1.58007">
        <ele>61.824933</ele>
        <time>2022-12-19T08:18:50.317Z</time>
      </trkpt>
      <trkpt lat="46.41336" lon="-1.57999">
        <ele>61.853745</ele>
        <time>2022-12-19T08:18:54.318Z</time>
      </trkpt>
      <trkpt lat="46.41344" lon="-1.57993">
        <ele>61.878573</ele>
        <time>2022-12-19T08:18:57.309Z</time>
      </trkpt>
      <trkpt lat="46.41353" lon="-1.57983">
        <ele>61.910593</ele>
        <time>2022-12-19T08:19:00.314Z</time>
      </trkpt>
      <trkpt lat="46.41364" lon="-1.57974">
        <ele>61.944464</ele>
        <time>2022-12-19T08:19:03.324Z</time>
      </trkpt>
      <trkpt lat="46.41372" lon="-1.57967">
        <ele>61.934795</ele>
        <time>2022-12-19T08:19:05.316Z</time>
      </trkpt>
      <trkpt lat="46.4138" lon="-1.5796">
        <ele>61.884893</ele>
        <time>2022-12-19T08:19:07.324Z</time>
      </trkpt>
      <trkpt lat="46.41389" lon="-1.57953">
        <ele>61.836984</ele>
        <time>2022-12-19T08:19:09.313Z</time>
      </trkpt>
      <trkpt lat="46.41397" lon="-1.57947">
        <ele>61.790769</ele>
        <time>2022-12-19T08:19:11.306Z</time>
      </trkpt>
      <trkpt lat="46.41409" lon="-1.57939">
        <ele>61.72687</ele>
        <time>2022-12-19T08:19:14.324Z</time>
      </trkpt>
      <trkpt lat="46.41419" lon="-1.57931">
        <ele>61.668641</ele>
        <time>2022-12-19T08:19:17.314Z</time>
      </trkpt>
      <trkpt lat="46.41428" lon="-1.57925">
        <ele>61.618395</ele>
        <time>2022-12-19T08:19:20.322Z</time>
      </trkpt>
      <trkpt lat="46.41436" lon="-1.57918">
        <ele>61.571255</ele>
        <time>2022-12-19T08:19:23.310Z</time>
      </trkpt>
      <trkpt lat="46.41444" lon="-1.57911">
        <ele>61.524068</ele>
        <time>2022-12-19T08:19:26.317Z</time>
      </trkpt>
      <trkpt lat="46.41452" lon="-1.57903">
        <ele>61.476882</ele>
        <time>2022-12-19T08:19:29.324Z</time>
      </trkpt>
      <trkpt lat="46.41459" lon="-1.57894">
        <ele>61.430655</ele>
        <time>2022-12-19T08:19:32.305Z</time>
      </trkpt>
      <trkpt lat="46.41466" lon="-1.57882">
        <ele>61.374001</ele>
        <time>2022-12-19T08:19:36.326Z</time>
      </trkpt>
      <trkpt lat="46.41473" lon="-1.57871">
        <ele>61.322334</ele>
        <time>2022-12-19T08:19:41.324Z</time>
      </trkpt>
      <trkpt lat="46.41481" lon="-1.57864">
        <ele>61.277155</ele>
        <time>2022-12-19T08:19:48.305Z</time>
      </trkpt>
      <trkpt lat="46.41486" lon="-1.57879">
        <ele>61.220177</ele>
        <time>2022-12-19T08:19:54.304Z</time>
      </trkpt>
      <trkpt lat="46.41493" lon="-1.57892">
        <ele>61.162274</ele>
        <time>2022-12-19T08:19:58.326Z</time>
      </trkpt>
      <trkpt lat="46.41501" lon="-1.57904">
        <ele>61.103949</ele>
        <time>2022-12-19T08:20:02.325Z</time>
      </trkpt>
      <trkpt lat="46.41508" lon="-1.57911">
        <ele>61.059001</ele>
        <time>2022-12-19T08:20:05.298Z</time>
      </trkpt>
      <trkpt lat="46.41517" lon="-1.57917">
        <ele>61.057304</ele>
        <time>2022-12-19T08:20:08.297Z</time>
      </trkpt>
      <trkpt lat="46.41527" lon="-1.57923">
        <ele>61.056538</ele>
        <time>2022-12-19T08:20:11.315Z</time>
      </trkpt>
      <trkpt lat="46.41537" lon="-1.57928">
        <ele>61.055792</ele>
        <time>2022-12-19T08:20:14.324Z</time>
      </trkpt>
      <trkpt lat="46.41545" lon="-1.57933">
        <ele>61.0551</ele>
        <time>2022-12-19T08:20:17.319Z</time>
      </trkpt>
      <trkpt lat="46.41555" lon="-1.57938">
        <ele>61.054359</ele>
        <time>2022-12-19T08:20:21.325Z</time>
      </trkpt>
      <trkpt lat="46.41565" lon="-1.57945">
        <ele>61.053564</ele>
        <time>2022-12-19T08:20:25.304Z</time>
      </trkpt>
      <trkpt lat="46.41576" lon="-1.57952">
        <ele>61.052704</ele>
        <time>2022-12-19T08:20:29.324Z</time>
      </trkpt>
      <trkpt lat="46.41586" lon="-1.57956">
        <ele>61.051888</ele>
        <time>2022-12-19T08:20:33.323Z</time>
      </trkpt>
      <trkpt lat="46.41597" lon="-1.57963">
        <ele>61.051057</ele>
        <time>2022-12-19T08:20:37.327Z</time>
      </trkpt>
      <trkpt lat="46.41605" lon="-1.5797">
        <ele>61.050344</ele>
        <time>2022-12-19T08:20:41.301Z</time>
      </trkpt>
      <trkpt lat="46.41613" lon="-1.57978">
        <ele>61.049675</ele>
        <time>2022-12-19T08:20:45.306Z</time>
      </trkpt>
      <trkpt lat="46.4162" lon="-1.57988">
        <ele>61.048907</ele>
        <time>2022-12-19T08:20:50.317Z</time>
      </trkpt>
      <trkpt lat="46.41627" lon="-1.57998">
        <ele>61.048204</ele>
        <time>2022-12-19T08:20:54.324Z</time>
      </trkpt>
      <trkpt lat="46.41634" lon="-1.58008">
        <ele>61.047487</ele>
        <time>2022-12-19T08:20:57.320Z</time>
      </trkpt>
      <trkpt lat="46.41642" lon="-1.58021">
        <ele>61.04663</ele>
        <time>2022-12-19T08:21:00.315Z</time>
      </trkpt>
      <trkpt lat="46.41651" lon="-1.58034">
        <ele>61.045679</ele>
        <time>2022-12-19T08:21:03.321Z</time>
      </trkpt>
      <trkpt lat="46.41657" lon="-1.58044">
        <ele>61.045005</ele>
        <time>2022-12-19T08:21:05.325Z</time>
      </trkpt>
      <trkpt lat="46.41665" lon="-1.58054">
        <ele>61.002367</ele>
        <time>2022-12-19T08:21:07.311Z</time>
      </trkpt>
      <trkpt lat="46.41672" lon="-1.58065">
        <ele>60.947433</ele>
        <time>2022-12-19T08:21:09.317Z</time>
      </trkpt>
      <trkpt lat="46.41679" lon="-1.58076">
        <ele>60.892651</ele>
        <time>2022-12-19T08:21:11.318Z</time>
      </trkpt>
      <trkpt lat="46.41687" lon="-1.58087">
        <ele>60.835389</ele>
        <time>2022-12-19T08:21:13.317Z</time>
      </trkpt>
      <trkpt lat="46.41695" lon="-1.58098">
        <ele>60.778622</ele>
        <time>2022-12-19T08:21:15.324Z</time>
      </trkpt>
      <trkpt lat="46.41703" lon="-1.58109">
        <ele>60.722099</ele>
        <time>2022-12-19T08:21:17.330Z</time>
      </trkpt>
      <trkpt lat="46.41711" lon="-1.5812">
        <ele>60.663225</ele>
        <time>2022-12-19T08:21:19.322Z</time>
      </trkpt>
      <trkpt lat="46.41719" lon="-1.58131">
        <ele>60.605934</ele>
        <time>2022-12-19T08:21:21.325Z</time>
      </trkpt>
      <trkpt lat="46.41727" lon="-1.58142">
        <ele>60.549292</ele>
        <time>2022-12-19T08:21:23.312Z</time>
      </trkpt>
      <trkpt lat="46.41735" lon="-1.58152">
        <ele>60.497098</ele>
        <time>2022-12-19T08:21:25.301Z</time>
      </trkpt>
      <trkpt lat="46.41742" lon="-1.58162">
        <ele>60.445567</ele>
        <time>2022-12-19T08:21:27.324Z</time>
      </trkpt>
      <trkpt lat="46.41749" lon="-1.58171">
        <ele>60.396398</ele>
        <time>2022-12-19T08:21:29.317Z</time>
      </trkpt>
      <trkpt lat="46.41756" lon="-1.58179">
        <ele>60.349507</ele>
        <time>2022-12-19T08:21:31.325Z</time>
      </trkpt>
      <trkpt lat="46.41767" lon="-1.58188">
        <ele>60.282022</ele>
        <time>2022-12-19T08:21:34.305Z</time>
      </trkpt>
      <trkpt lat="46.41776" lon="-1.58193">
        <ele>60.234297</ele>
        <time>2022-12-19T08:21:36.298Z</time>
      </trkpt>
      <trkpt lat="46.41788" lon="-1.58199">
        <ele>60.167334</ele>
        <time>2022-12-19T08:21:39.310Z</time>
      </trkpt>
      <trkpt lat="46.41801" lon="-1.58205">
        <ele>60.128777</ele>
        <time>2022-12-19T08:21:42.322Z</time>
      </trkpt>
      <trkpt lat="46.41813" lon="-1.58213">
        <ele>60.230763</ele>
        <time>2022-12-19T08:21:45.327Z</time>
      </trkpt>
      <trkpt lat="46.41821" lon="-1.58218">
        <ele>60.301279</ele>
        <time>2022-12-19T08:21:47.309Z</time>
      </trkpt>
      <trkpt lat="46.41829" lon="-1.58225">
        <ele>60.372518</ele>
        <time>2022-12-19T08:21:49.299Z</time>
      </trkpt>
      <trkpt lat="46.4184" lon="-1.58234">
        <ele>60.470483</ele>
        <time>2022-12-19T08:21:52.325Z</time>
      </trkpt>
      <trkpt lat="46.4185" lon="-1.58243">
        <ele>60.558177</ele>
        <time>2022-12-19T08:21:55.325Z</time>
      </trkpt>
      <trkpt lat="46.41861" lon="-1.58247">
        <ele>60.645781</ele>
        <time>2022-12-19T08:21:58.304Z</time>
      </trkpt>
      <trkpt lat="46.41871" lon="-1.5825">
        <ele>60.721774</ele>
        <time>2022-12-19T08:22:01.301Z</time>
      </trkpt>
      <trkpt lat="46.41876" lon="-1.58261">
        <ele>60.796595</ele>
        <time>2022-12-19T08:22:04.311Z</time>
      </trkpt>
      <trkpt lat="46.41881" lon="-1.58274">
        <ele>60.872681</ele>
        <time>2022-12-19T08:22:07.302Z</time>
      </trkpt>
      <trkpt lat="46.41889" lon="-1.58282">
        <ele>60.94694</ele>
        <time>2022-12-19T08:22:10.302Z</time>
      </trkpt>
      <trkpt lat="46.41898" lon="-1.5828">
        <ele>61.017006</ele>
        <time>2022-12-19T08:22:13.306Z</time>
      </trkpt>
      <trkpt lat="46.41907" lon="-1.58273">
        <ele>61.090857</ele>
        <time>2022-12-19T08:22:16.296Z</time>
      </trkpt>
      <trkpt lat="46.41916" lon="-1.58265">
        <ele>61.17455</ele>
        <time>2022-12-19T08:22:19.324Z</time>
      </trkpt>
      <trkpt lat="46.41926" lon="-1.58257">
        <ele>61.264241</ele>
        <time>2022-12-19T08:22:22.316Z</time>
      </trkpt>
      <trkpt lat="46.41934" lon="-1.58248">
        <ele>61.342513</ele>
        <time>2022-12-19T08:22:25.306Z</time>
      </trkpt>
      <trkpt lat="46.41944" lon="-1.58241">
        <ele>61.42323</ele>
        <time>2022-12-19T08:22:28.323Z</time>
      </trkpt>
      <trkpt lat="46.41954" lon="-1.58236">
        <ele>61.497245</ele>
        <time>2022-12-19T08:22:31.312Z</time>
      </trkpt>
      <trkpt lat="46.41965" lon="-1.58231">
        <ele>61.504996</ele>
        <time>2022-12-19T08:22:34.299Z</time>
      </trkpt>
      <trkpt lat="46.41975" lon="-1.58227">
        <ele>61.512439</ele>
        <time>2022-12-19T08:22:37.315Z</time>
      </trkpt>
      <trkpt lat="46.41984" lon="-1.58223">
        <ele>61.519347</ele>
        <time>2022-12-19T08:22:40.305Z</time>
      </trkpt>
      <trkpt lat="46.41993" lon="-1.58219">
        <ele>61.525893</ele>
        <time>2022-12-19T08:22:43.327Z</time>
      </trkpt>
      <trkpt lat="46.42004" lon="-1.58215">
        <ele>61.533925</ele>
        <time>2022-12-19T08:22:47.324Z</time>
      </trkpt>
      <trkpt lat="46.42014" lon="-1.58211">
        <ele>61.540462</ele>
        <time>2022-12-19T08:22:50.322Z</time>
      </trkpt>
      <trkpt lat="46.42022" lon="-1.58205">
        <ele>61.547155</ele>
        <time>2022-12-19T08:22:53.299Z</time>
      </trkpt>
      <trkpt lat="46.42029" lon="-1.58196">
        <ele>61.553534</ele>
        <time>2022-12-19T08:22:56.302Z</time>
      </trkpt>
      <trkpt lat="46.42036" lon="-1.58185">
        <ele>61.560976</ele>
        <time>2022-12-19T08:23:00.321Z</time>
      </trkpt>
      <trkpt lat="46.42037" lon="-1.5817">
        <ele>61.567869</ele>
        <time>2022-12-19T08:23:04.306Z</time>
      </trkpt>
      <trkpt lat="46.42038" lon="-1.58157">
        <ele>61.574438</ele>
        <time>2022-12-19T08:23:07.324Z</time>
      </trkpt>
      <trkpt lat="46.42038" lon="-1.58143">
        <ele>61.581212</ele>
        <time>2022-12-19T08:23:10.326Z</time>
      </trkpt>
      <trkpt lat="46.42039" lon="-1.58128">
        <ele>61.588239</ele>
        <time>2022-12-19T08:23:13.323Z</time>
      </trkpt>
      <trkpt lat="46.4204" lon="-1.58113">
        <ele>61.595425</ele>
        <time>2022-12-19T08:23:16.327Z</time>
      </trkpt>
      <trkpt lat="46.42041" lon="-1.58098">
        <ele>61.602592</ele>
        <time>2022-12-19T08:23:19.328Z</time>
      </trkpt>
      <trkpt lat="46.42042" lon="-1.58083">
        <ele>61.609859</ele>
        <time>2022-12-19T08:23:22.321Z</time>
      </trkpt>
      <trkpt lat="46.42043" lon="-1.58068">
        <ele>61.617018</ele>
        <time>2022-12-19T08:23:25.321Z</time>
      </trkpt>
      <trkpt lat="46.42044" lon="-1.58054">
        <ele>61.641936</ele>
        <time>2022-12-19T08:23:28.314Z</time>
      </trkpt>
      <trkpt lat="46.42045" lon="-1.58039">
        <ele>61.698285</ele>
        <time>2022-12-19T08:23:31.325Z</time>
      </trkpt>
      <trkpt lat="46.42045" lon="-1.58026">
        <ele>61.748493</ele>
        <time>2022-12-19T08:23:34.326Z</time>
      </trkpt>
      <trkpt lat="46.42046" lon="-1.58011">
        <ele>61.804079</ele>
        <time>2022-12-19T08:23:38.323Z</time>
      </trkpt>
      <trkpt lat="46.42047" lon="-1.57998">
        <ele>61.856327</ele>
        <time>2022-12-19T08:23:42.309Z</time>
      </trkpt>
      <trkpt lat="46.42047" lon="-1.57984">
        <ele>61.910656</ele>
        <time>2022-12-19T08:23:46.301Z</time>
      </trkpt>
      <trkpt lat="46.42048" lon="-1.57969">
        <ele>61.966624</ele>
        <time>2022-12-19T08:23:50.305Z</time>
      </trkpt>
      <trkpt lat="46.4205" lon="-1.57955">
        <ele>62.022316</ele>
        <time>2022-12-19T08:23:55.327Z</time>
      </trkpt>
      <trkpt lat="46.42048" lon="-1.57939">
        <ele>62.082086</ele>
        <time>2022-12-19T08:24:00.306Z</time>
      </trkpt>
      <trkpt lat="46.42045" lon="-1.57925">
        <ele>62.138199</ele>
        <time>2022-12-19T08:24:04.309Z</time>
      </trkpt>
      <trkpt lat="46.42045" lon="-1.57912">
        <ele>62.188691</ele>
        <time>2022-12-19T08:24:07.301Z</time>
      </trkpt>
      <trkpt lat="46.42045" lon="-1.57898">
        <ele>62.241155</ele>
        <time>2022-12-19T08:24:10.328Z</time>
      </trkpt>
      <trkpt lat="46.42047" lon="-1.57885">
        <ele>62.292451</ele>
        <time>2022-12-19T08:24:13.322Z</time>
      </trkpt>
      <trkpt lat="46.42047" lon="-1.57871">
        <ele>62.34762</ele>
        <time>2022-12-19T08:24:17.326Z</time>
      </trkpt>
      <trkpt lat="46.42046" lon="-1.57857">
        <ele>62.398293</ele>
        <time>2022-12-19T08:24:21.301Z</time>
      </trkpt>
      <trkpt lat="46.42048" lon="-1.57844">
        <ele>62.450123</ele>
        <time>2022-12-19T08:24:24.309Z</time>
      </trkpt>
      <trkpt lat="46.42049" lon="-1.5783">
        <ele>62.505357</ele>
        <time>2022-12-19T08:24:27.323Z</time>
      </trkpt>
      <trkpt lat="46.4205" lon="-1.57815">
        <ele>62.563044</ele>
        <time>2022-12-19T08:24:30.323Z</time>
      </trkpt>
      <trkpt lat="46.42052" lon="-1.57799">
        <ele>62.619101</ele>
        <time>2022-12-19T08:24:33.331Z</time>
      </trkpt>
      <trkpt lat="46.42054" lon="-1.57783">
        <ele>62.615269</ele>
        <time>2022-12-19T08:24:36.326Z</time>
      </trkpt>
      <trkpt lat="46.42055" lon="-1.57765">
        <ele>62.611204</ele>
        <time>2022-12-19T08:24:39.323Z</time>
      </trkpt>
      <trkpt lat="46.42057" lon="-1.57749">
        <ele>62.607498</ele>
        <time>2022-12-19T08:24:42.325Z</time>
      </trkpt>
      <trkpt lat="46.42057" lon="-1.57734">
        <ele>62.603998</ele>
        <time>2022-12-19T08:24:45.306Z</time>
      </trkpt>
      <trkpt lat="46.42056" lon="-1.57719">
        <ele>62.600447</ele>
        <time>2022-12-19T08:24:48.312Z</time>
      </trkpt>
      <trkpt lat="46.42055" lon="-1.57704">
        <ele>62.597076</ele>
        <time>2022-12-19T08:24:51.319Z</time>
      </trkpt>
      <trkpt lat="46.42054" lon="-1.57688">
        <ele>62.593269</ele>
        <time>2022-12-19T08:24:54.305Z</time>
      </trkpt>
      <trkpt lat="46.42053" lon="-1.57671">
        <ele>62.589373</ele>
        <time>2022-12-19T08:24:57.306Z</time>
      </trkpt>
      <trkpt lat="46.42051" lon="-1.57656">
        <ele>62.585716</ele>
        <time>2022-12-19T08:25:00.325Z</time>
      </trkpt>
      <trkpt lat="46.4205" lon="-1.57641">
        <ele>62.582212</ele>
        <time>2022-12-19T08:25:03.327Z</time>
      </trkpt>
      <trkpt lat="46.42049" lon="-1.57626">
        <ele>62.578744</ele>
        <time>2022-12-19T08:25:06.323Z</time>
      </trkpt>
      <trkpt lat="46.42048" lon="-1.57611">
        <ele>62.575317</ele>
        <time>2022-12-19T08:25:09.320Z</time>
      </trkpt>
      <trkpt lat="46.42047" lon="-1.57598">
        <ele>62.572223</ele>
        <time>2022-12-19T08:25:12.322Z</time>
      </trkpt>
      <trkpt lat="46.42045" lon="-1.57582">
        <ele>62.568574</ele>
        <time>2022-12-19T08:25:15.322Z</time>
      </trkpt>
      <trkpt lat="46.42044" lon="-1.57565">
        <ele>62.564498</ele>
        <time>2022-12-19T08:25:18.321Z</time>
      </trkpt>
      <trkpt lat="46.42042" lon="-1.57548">
        <ele>62.560567</ele>
        <time>2022-12-19T08:25:21.326Z</time>
      </trkpt>
      <trkpt lat="46.42041" lon="-1.57532">
        <ele>62.634691</ele>
        <time>2022-12-19T08:25:24.313Z</time>
      </trkpt>
      <trkpt lat="46.42039" lon="-1.57518">
        <ele>62.754737</ele>
        <time>2022-12-19T08:25:27.306Z</time>
      </trkpt>
      <trkpt lat="46.42037" lon="-1.57504">
        <ele>62.865671</ele>
        <time>2022-12-19T08:25:30.303Z</time>
      </trkpt>
      <trkpt lat="46.42035" lon="-1.57491">
        <ele>62.978089</ele>
        <time>2022-12-19T08:25:33.323Z</time>
      </trkpt>
      <trkpt lat="46.42041" lon="-1.57479">
        <ele>63.101181</ele>
        <time>2022-12-19T08:25:37.308Z</time>
      </trkpt>
      <trkpt lat="46.4205" lon="-1.57473">
        <ele>63.212628</ele>
        <time>2022-12-19T08:25:40.310Z</time>
      </trkpt>
      <trkpt lat="46.42061" lon="-1.57467">
        <ele>63.353704</ele>
        <time>2022-12-19T08:25:44.322Z</time>
      </trkpt>
      <trkpt lat="46.4207" lon="-1.57459">
        <ele>63.488011</ele>
        <time>2022-12-19T08:25:48.311Z</time>
      </trkpt>
      <trkpt lat="46.42075" lon="-1.57446">
        <ele>63.603572</ele>
        <time>2022-12-19T08:25:52.318Z</time>
      </trkpt>
      <trkpt lat="46.42077" lon="-1.57431">
        <ele>63.732013</ele>
        <time>2022-12-19T08:25:56.320Z</time>
      </trkpt>
      <trkpt lat="46.42082" lon="-1.57418">
        <ele>63.860547</ele>
        <time>2022-12-19T08:26:00.303Z</time>
      </trkpt>
      <trkpt lat="46.42093" lon="-1.57415">
        <ele>63.989926</ele>
        <time>2022-12-19T08:26:03.301Z</time>
      </trkpt>
      <trkpt lat="46.42105" lon="-1.57414">
        <ele>64.13144</ele>
        <time>2022-12-19T08:26:06.326Z</time>
      </trkpt>
      <trkpt lat="46.42115" lon="-1.57413">
        <ele>64.254178</ele>
        <time>2022-12-19T08:26:09.323Z</time>
      </trkpt>
      <trkpt lat="46.42125" lon="-1.57414">
        <ele>64.374384</ele>
        <time>2022-12-19T08:26:12.302Z</time>
      </trkpt>
      <trkpt lat="46.42135" lon="-1.57416">
        <ele>64.489157</ele>
        <time>2022-12-19T08:26:15.324Z</time>
      </trkpt>
      <trkpt lat="46.42145" lon="-1.57421">
        <ele>64.626359</ele>
        <time>2022-12-19T08:26:19.320Z</time>
      </trkpt>
      <trkpt lat="46.42156" lon="-1.57427">
        <ele>64.657474</ele>
        <time>2022-12-19T08:26:23.328Z</time>
      </trkpt>
      <trkpt lat="46.42165" lon="-1.57432">
        <ele>64.513599</ele>
        <time>2022-12-19T08:26:26.326Z</time>
      </trkpt>
      <trkpt lat="46.42175" lon="-1.57438">
        <ele>64.337424</ele>
        <time>2022-12-19T08:26:30.327Z</time>
      </trkpt>
      <trkpt lat="46.42185" lon="-1.57437">
        <ele>64.194369</ele>
        <time>2022-12-19T08:26:35.304Z</time>
      </trkpt>
      <trkpt lat="46.42187" lon="-1.57423">
        <ele>64.043452</ele>
        <time>2022-12-19T08:26:39.305Z</time>
      </trkpt>
      <trkpt lat="46.42197" lon="-1.57419">
        <ele>63.880882</ele>
        <time>2022-12-19T08:26:44.304Z</time>
      </trkpt>
      <trkpt lat="46.42208" lon="-1.57421">
        <ele>63.712976</ele>
        <time>2022-12-19T08:26:48.306Z</time>
      </trkpt>
      <trkpt lat="46.4222" lon="-1.57422">
        <ele>63.539398</ele>
        <time>2022-12-19T08:26:52.328Z</time>
      </trkpt>
      <trkpt lat="46.42232" lon="-1.57425">
        <ele>63.352686</ele>
        <time>2022-12-19T08:26:56.322Z</time>
      </trkpt>
      <trkpt lat="46.42242" lon="-1.57427">
        <ele>63.199581</ele>
        <time>2022-12-19T08:26:59.319Z</time>
      </trkpt>
      <trkpt lat="46.42252" lon="-1.57428">
        <ele>63.056227</ele>
        <time>2022-12-19T08:27:02.325Z</time>
      </trkpt>
      <trkpt lat="46.42261" lon="-1.5743">
        <ele>62.920141</ele>
        <time>2022-12-19T08:27:05.328Z</time>
      </trkpt>
      <trkpt lat="46.4227" lon="-1.57432">
        <ele>62.771999</ele>
        <time>2022-12-19T08:27:09.311Z</time>
      </trkpt>
      <trkpt lat="46.42279" lon="-1.5744">
        <ele>62.61715</ele>
        <time>2022-12-19T08:27:16.322Z</time>
      </trkpt>
      <trkpt lat="46.42287" lon="-1.57445">
        <ele>62.478654</ele>
        <time>2022-12-19T08:27:22.300Z</time>
      </trkpt>
      <trkpt lat="46.42289" lon="-1.57459">
        <ele>62.331342</ele>
        <time>2022-12-19T08:27:35.300Z</time>
      </trkpt>
      <trkpt lat="46.42289" lon="-1.57475">
        <ele>62.168474</ele>
        <time>2022-12-19T08:27:40.309Z</time>
      </trkpt>
      <trkpt lat="46.4229" lon="-1.57489">
        <ele>62.026893</ele>
        <time>2022-12-19T08:27:45.304Z</time>
      </trkpt>
      <trkpt lat="46.42289" lon="-1.57504">
        <ele>61.857236</ele>
        <time>2022-12-19T08:27:50.306Z</time>
      </trkpt>
      <trkpt lat="46.42293" lon="-1.57517">
        <ele>61.707545</ele>
        <time>2022-12-19T08:27:56.303Z</time>
      </trkpt>
      <trkpt lat="46.42287" lon="-1.57519">
        <ele>61.616006</ele>
        <time>2022-12-19T08:28:17.432Z</time>
      </trkpt>
      <trkpt lat="46.42289" lon="-1.57523">
        <ele>61.56028</ele>
        <time>2022-12-19T09:36:03.675Z</time>
      </trkpt>
      <trkpt lat="46.42289" lon="-1.57523">
        <ele>61.56028</ele>
        <time>2022-12-19T09:36:03.938Z</time>
      </trkpt>
      <trkpt lat="46.42287" lon="-1.57509">
        <ele>61.402372</ele>
        <time>2022-12-19T09:38:22.330Z</time>
      </trkpt>
      <trkpt lat="46.42287" lon="-1.57495">
        <ele>61.242402</ele>
        <time>2022-12-19T09:38:26.328Z</time>
      </trkpt>
      <trkpt lat="46.42288" lon="-1.57481">
        <ele>61.088496</ele>
        <time>2022-12-19T09:38:30.347Z</time>
      </trkpt>
      <trkpt lat="46.42289" lon="-1.5745">
        <ele>60.74724</ele>
        <time>2022-12-19T09:39:02.335Z</time>
      </trkpt>
      <trkpt lat="46.42284" lon="-1.57439">
        <ele>60.591818</ele>
        <time>2022-12-19T09:39:07.327Z</time>
      </trkpt>
      <trkpt lat="46.42274" lon="-1.57435">
        <ele>60.434713</ele>
        <time>2022-12-19T09:39:13.339Z</time>
      </trkpt>
      <trkpt lat="46.42266" lon="-1.5743">
        <ele>60.285175</ele>
        <time>2022-12-19T09:39:20.329Z</time>
      </trkpt>
      <trkpt lat="46.42256" lon="-1.57428">
        <ele>60.121252</ele>
        <time>2022-12-19T09:39:25.332Z</time>
      </trkpt>
      <trkpt lat="46.42246" lon="-1.57426">
        <ele>59.971979</ele>
        <time>2022-12-19T09:39:29.322Z</time>
      </trkpt>
      <trkpt lat="46.42235" lon="-1.57424">
        <ele>59.789128</ele>
        <time>2022-12-19T09:39:33.322Z</time>
      </trkpt>
      <trkpt lat="46.42224" lon="-1.57422">
        <ele>59.605149</ele>
        <time>2022-12-19T09:39:37.327Z</time>
      </trkpt>
      <trkpt lat="46.42213" lon="-1.57418">
        <ele>59.432798</ele>
        <time>2022-12-19T09:39:41.330Z</time>
      </trkpt>
      <trkpt lat="46.42202" lon="-1.57415">
        <ele>59.240168</ele>
        <time>2022-12-19T09:39:45.326Z</time>
      </trkpt>
      <trkpt lat="46.42192" lon="-1.57414">
        <ele>59.128387</ele>
        <time>2022-12-19T09:39:48.325Z</time>
      </trkpt>
      <trkpt lat="46.42182" lon="-1.57412">
        <ele>59.195064</ele>
        <time>2022-12-19T09:39:51.328Z</time>
      </trkpt>
      <trkpt lat="46.42172" lon="-1.5741">
        <ele>59.260142</ele>
        <time>2022-12-19T09:39:54.329Z</time>
      </trkpt>
      <trkpt lat="46.42163" lon="-1.57409">
        <ele>59.322546</ele>
        <time>2022-12-19T09:39:57.348Z</time>
      </trkpt>
      <trkpt lat="46.42152" lon="-1.57407">
        <ele>59.39147</ele>
        <time>2022-12-19T09:40:00.327Z</time>
      </trkpt>
      <trkpt lat="46.42141" lon="-1.57406">
        <ele>59.465579</ele>
        <time>2022-12-19T09:40:03.345Z</time>
      </trkpt>
      <trkpt lat="46.4213" lon="-1.57404">
        <ele>59.539188</ele>
        <time>2022-12-19T09:40:06.334Z</time>
      </trkpt>
      <trkpt lat="46.42119" lon="-1.57403">
        <ele>59.611398</ele>
        <time>2022-12-19T09:40:09.327Z</time>
      </trkpt>
      <trkpt lat="46.42108" lon="-1.57403">
        <ele>59.682008</ele>
        <time>2022-12-19T09:40:12.328Z</time>
      </trkpt>
      <trkpt lat="46.42098" lon="-1.57403">
        <ele>59.750001</ele>
        <time>2022-12-19T09:40:15.322Z</time>
      </trkpt>
      <trkpt lat="46.42088" lon="-1.57404">
        <ele>59.814172</ele>
        <time>2022-12-19T09:40:18.331Z</time>
      </trkpt>
      <trkpt lat="46.42079" lon="-1.57404">
        <ele>59.874889</ele>
        <time>2022-12-19T09:40:21.328Z</time>
      </trkpt>
      <trkpt lat="46.42067" lon="-1.57406">
        <ele>59.952631</ele>
        <time>2022-12-19T09:40:25.326Z</time>
      </trkpt>
      <trkpt lat="46.42056" lon="-1.57405">
        <ele>60.028255</ele>
        <time>2022-12-19T09:40:29.318Z</time>
      </trkpt>
      <trkpt lat="46.42051" lon="-1.57393">
        <ele>60.090105</ele>
        <time>2022-12-19T09:40:32.332Z</time>
      </trkpt>
      <trkpt lat="46.42047" lon="-1.57381">
        <ele>60.153655</ele>
        <time>2022-12-19T09:40:35.319Z</time>
      </trkpt>
      <trkpt lat="46.42042" lon="-1.5737">
        <ele>60.212526</ele>
        <time>2022-12-19T09:40:38.345Z</time>
      </trkpt>
      <trkpt lat="46.42036" lon="-1.57356">
        <ele>60.285196</ele>
        <time>2022-12-19T09:40:42.322Z</time>
      </trkpt>
      <trkpt lat="46.4203" lon="-1.57343">
        <ele>60.25054</ele>
        <time>2022-12-19T09:40:46.342Z</time>
      </trkpt>
      <trkpt lat="46.42024" lon="-1.5733">
        <ele>60.18606</ele>
        <time>2022-12-19T09:40:50.335Z</time>
      </trkpt>
      <trkpt lat="46.42019" lon="-1.57318">
        <ele>60.12478</ele>
        <time>2022-12-19T09:40:53.325Z</time>
      </trkpt>
      <trkpt lat="46.42015" lon="-1.57303">
        <ele>60.056254</ele>
        <time>2022-12-19T09:40:56.330Z</time>
      </trkpt>
      <trkpt lat="46.42014" lon="-1.57285">
        <ele>59.983548</ele>
        <time>2022-12-19T09:40:59.323Z</time>
      </trkpt>
      <trkpt lat="46.42018" lon="-1.5727">
        <ele>59.91247</ele>
        <time>2022-12-19T09:41:02.320Z</time>
      </trkpt>
      <trkpt lat="46.42024" lon="-1.57256">
        <ele>59.8455</ele>
        <time>2022-12-19T09:41:05.325Z</time>
      </trkpt>
      <trkpt lat="46.42029" lon="-1.57244">
        <ele>59.788432</ele>
        <time>2022-12-19T09:41:08.358Z</time>
      </trkpt>
      <trkpt lat="46.42036" lon="-1.57232">
        <ele>59.722374</ele>
        <time>2022-12-19T09:41:12.327Z</time>
      </trkpt>
      <trkpt lat="46.42044" lon="-1.57224">
        <ele>59.661252</ele>
        <time>2022-12-19T09:41:15.346Z</time>
      </trkpt>
      <trkpt lat="46.42054" lon="-1.57215">
        <ele>59.592331</ele>
        <time>2022-12-19T09:41:18.320Z</time>
      </trkpt>
      <trkpt lat="46.42062" lon="-1.57208">
        <ele>59.531345</ele>
        <time>2022-12-19T09:41:21.330Z</time>
      </trkpt>
      <trkpt lat="46.42071" lon="-1.572">
        <ele>59.470391</ele>
        <time>2022-12-19T09:41:24.329Z</time>
      </trkpt>
      <trkpt lat="46.42078" lon="-1.57188">
        <ele>59.40383</ele>
        <time>2022-12-19T09:41:27.318Z</time>
      </trkpt>
      <trkpt lat="46.42082" lon="-1.57174">
        <ele>59.339745</ele>
        <time>2022-12-19T09:41:30.328Z</time>
      </trkpt>
      <trkpt lat="46.42085" lon="-1.57159">
        <ele>59.275653</ele>
        <time>2022-12-19T09:41:33.327Z</time>
      </trkpt>
      <trkpt lat="46.42088" lon="-1.57145">
        <ele>59.211765</ele>
        <time>2022-12-19T09:41:36.334Z</time>
      </trkpt>
      <trkpt lat="46.42092" lon="-1.5713">
        <ele>59.079277</ele>
        <time>2022-12-19T09:41:39.319Z</time>
      </trkpt>
      <trkpt lat="46.42095" lon="-1.57115">
        <ele>58.942045</ele>
        <time>2022-12-19T09:41:42.320Z</time>
      </trkpt>
      <trkpt lat="46.42099" lon="-1.57099">
        <ele>58.798854</ele>
        <time>2022-12-19T09:41:45.336Z</time>
      </trkpt>
      <trkpt lat="46.421" lon="-1.57081">
        <ele>58.647185</ele>
        <time>2022-12-19T09:41:48.339Z</time>
      </trkpt>
      <trkpt lat="46.421" lon="-1.57065">
        <ele>58.502329</ele>
        <time>2022-12-19T09:41:51.327Z</time>
      </trkpt>
      <trkpt lat="46.42101" lon="-1.57047">
        <ele>58.350631</ele>
        <time>2022-12-19T09:41:54.337Z</time>
      </trkpt>
      <trkpt lat="46.421" lon="-1.57029">
        <ele>58.193372</ele>
        <time>2022-12-19T09:41:57.323Z</time>
      </trkpt>
      <trkpt lat="46.421" lon="-1.57012">
        <ele>58.046897</ele>
        <time>2022-12-19T09:42:00.358Z</time>
      </trkpt>
      <trkpt lat="46.42099" lon="-1.56997">
        <ele>57.913296</ele>
        <time>2022-12-19T09:42:03.344Z</time>
      </trkpt>
      <trkpt lat="46.42098" lon="-1.56983">
        <ele>57.789145</ele>
        <time>2022-12-19T09:42:06.354Z</time>
      </trkpt>
      <trkpt lat="46.42098" lon="-1.56968">
        <ele>57.660835</ele>
        <time>2022-12-19T09:42:09.338Z</time>
      </trkpt>
      <trkpt lat="46.42097" lon="-1.56952">
        <ele>57.522768</ele>
        <time>2022-12-19T09:42:12.326Z</time>
      </trkpt>
      <trkpt lat="46.42097" lon="-1.56934">
        <ele>57.369362</ele>
        <time>2022-12-19T09:42:15.331Z</time>
      </trkpt>
      <trkpt lat="46.42097" lon="-1.56915">
        <ele>57.202935</ele>
        <time>2022-12-19T09:42:18.326Z</time>
      </trkpt>
      <trkpt lat="46.42096" lon="-1.56902">
        <ele>57.089072</ele>
        <time>2022-12-19T09:42:20.337Z</time>
      </trkpt>
      <trkpt lat="46.42096" lon="-1.56888">
        <ele>56.970244</ele>
        <time>2022-12-19T09:42:22.331Z</time>
      </trkpt>
      <trkpt lat="46.42095" lon="-1.56875">
        <ele>56.968878</ele>
        <time>2022-12-19T09:42:24.356Z</time>
      </trkpt>
      <trkpt lat="46.42095" lon="-1.56861">
        <ele>56.999139</ele>
        <time>2022-12-19T09:42:26.338Z</time>
      </trkpt>
      <trkpt lat="46.42094" lon="-1.56847">
        <ele>57.029213</ele>
        <time>2022-12-19T09:42:28.332Z</time>
      </trkpt>
      <trkpt lat="46.42093" lon="-1.56834">
        <ele>57.059508</ele>
        <time>2022-12-19T09:42:30.338Z</time>
      </trkpt>
      <trkpt lat="46.42093" lon="-1.56821">
        <ele>57.088667</ele>
        <time>2022-12-19T09:42:32.336Z</time>
      </trkpt>
      <trkpt lat="46.42092" lon="-1.56801">
        <ele>57.131137</ele>
        <time>2022-12-19T09:42:35.347Z</time>
      </trkpt>
      <trkpt lat="46.42092" lon="-1.56782">
        <ele>57.173289</ele>
        <time>2022-12-19T09:42:38.341Z</time>
      </trkpt>
      <trkpt lat="46.42091" lon="-1.56763">
        <ele>57.214857</ele>
        <time>2022-12-19T09:42:41.342Z</time>
      </trkpt>
      <trkpt lat="46.4209" lon="-1.56745">
        <ele>57.256006</ele>
        <time>2022-12-19T09:42:44.340Z</time>
      </trkpt>
      <trkpt lat="46.42089" lon="-1.56727">
        <ele>57.295858</ele>
        <time>2022-12-19T09:42:47.347Z</time>
      </trkpt>
      <trkpt lat="46.42088" lon="-1.56709">
        <ele>57.335003</ele>
        <time>2022-12-19T09:42:50.329Z</time>
      </trkpt>
      <trkpt lat="46.42088" lon="-1.5669">
        <ele>57.376537</ele>
        <time>2022-12-19T09:42:53.319Z</time>
      </trkpt>
      <trkpt lat="46.42087" lon="-1.56671">
        <ele>57.419206</ele>
        <time>2022-12-19T09:42:56.321Z</time>
      </trkpt>
      <trkpt lat="46.42087" lon="-1.56658">
        <ele>57.448144</ele>
        <time>2022-12-19T09:42:58.328Z</time>
      </trkpt>
      <trkpt lat="46.42086" lon="-1.5664">
        <ele>57.488611</ele>
        <time>2022-12-19T09:43:01.333Z</time>
      </trkpt>
      <trkpt lat="46.42085" lon="-1.56621">
        <ele>57.541472</ele>
        <time>2022-12-19T09:43:04.338Z</time>
      </trkpt>
      <trkpt lat="46.42084" lon="-1.56602">
        <ele>57.63868</ele>
        <time>2022-12-19T09:43:07.333Z</time>
      </trkpt>
      <trkpt lat="46.42083" lon="-1.56583">
        <ele>57.738872</ele>
        <time>2022-12-19T09:43:10.342Z</time>
      </trkpt>
      <trkpt lat="46.42083" lon="-1.56564">
        <ele>57.834788</ele>
        <time>2022-12-19T09:43:13.324Z</time>
      </trkpt>
      <trkpt lat="46.42082" lon="-1.56546">
        <ele>57.928398</ele>
        <time>2022-12-19T09:43:16.326Z</time>
      </trkpt>
      <trkpt lat="46.42081" lon="-1.56528">
        <ele>58.021952</ele>
        <time>2022-12-19T09:43:19.325Z</time>
      </trkpt>
      <trkpt lat="46.4208" lon="-1.5651">
        <ele>58.116077</ele>
        <time>2022-12-19T09:43:22.334Z</time>
      </trkpt>
      <trkpt lat="46.42078" lon="-1.56492">
        <ele>58.210865</ele>
        <time>2022-12-19T09:43:25.337Z</time>
      </trkpt>
      <trkpt lat="46.42076" lon="-1.56473">
        <ele>58.30719</ele>
        <time>2022-12-19T09:43:28.363Z</time>
      </trkpt>
      <trkpt lat="46.42073" lon="-1.56455">
        <ele>58.405842</ele>
        <time>2022-12-19T09:43:31.323Z</time>
      </trkpt>
      <trkpt lat="46.4207" lon="-1.56442">
        <ele>58.477246</ele>
        <time>2022-12-19T09:43:33.343Z</time>
      </trkpt>
      <trkpt lat="46.42066" lon="-1.56429">
        <ele>58.54454</ele>
        <time>2022-12-19T09:43:35.321Z</time>
      </trkpt>
      <trkpt lat="46.42062" lon="-1.56417">
        <ele>58.613721</ele>
        <time>2022-12-19T09:43:37.334Z</time>
      </trkpt>
      <trkpt lat="46.42056" lon="-1.56399">
        <ele>58.715869</ele>
        <time>2022-12-19T09:43:40.341Z</time>
      </trkpt>
      <trkpt lat="46.42052" lon="-1.56388">
        <ele>58.78494</ele>
        <time>2022-12-19T09:43:42.338Z</time>
      </trkpt>
      <trkpt lat="46.42047" lon="-1.56376">
        <ele>58.853561</ele>
        <time>2022-12-19T09:43:44.325Z</time>
      </trkpt>
      <trkpt lat="46.42041" lon="-1.56359">
        <ele>58.848848</ele>
        <time>2022-12-19T09:43:47.334Z</time>
      </trkpt>
      <trkpt lat="46.42035" lon="-1.56343">
        <ele>58.829503</ele>
        <time>2022-12-19T09:43:50.328Z</time>
      </trkpt>
      <trkpt lat="46.42029" lon="-1.56328">
        <ele>58.811396</ele>
        <time>2022-12-19T09:43:53.338Z</time>
      </trkpt>
      <trkpt lat="46.42023" lon="-1.56312">
        <ele>58.792595</ele>
        <time>2022-12-19T09:43:56.328Z</time>
      </trkpt>
      <trkpt lat="46.42018" lon="-1.56297">
        <ele>58.774599</ele>
        <time>2022-12-19T09:43:59.345Z</time>
      </trkpt>
      <trkpt lat="46.42012" lon="-1.5628">
        <ele>58.755457</ele>
        <time>2022-12-19T09:44:02.324Z</time>
      </trkpt>
      <trkpt lat="46.42007" lon="-1.56263">
        <ele>58.735846</ele>
        <time>2022-12-19T09:44:05.325Z</time>
      </trkpt>
      <trkpt lat="46.42002" lon="-1.56246">
        <ele>58.717005</ele>
        <time>2022-12-19T09:44:08.325Z</time>
      </trkpt>
      <trkpt lat="46.41998" lon="-1.56229">
        <ele>58.698183</ele>
        <time>2022-12-19T09:44:11.325Z</time>
      </trkpt>
      <trkpt lat="46.41995" lon="-1.56211">
        <ele>58.679322</ele>
        <time>2022-12-19T09:44:14.340Z</time>
      </trkpt>
      <trkpt lat="46.41992" lon="-1.56194">
        <ele>58.660628</ele>
        <time>2022-12-19T09:44:17.331Z</time>
      </trkpt>
      <trkpt lat="46.4199" lon="-1.56176">
        <ele>58.64153</ele>
        <time>2022-12-19T09:44:20.334Z</time>
      </trkpt>
      <trkpt lat="46.41987" lon="-1.56158">
        <ele>58.622494</ele>
        <time>2022-12-19T09:44:23.320Z</time>
      </trkpt>
      <trkpt lat="46.41984" lon="-1.5614">
        <ele>58.603261</ele>
        <time>2022-12-19T09:44:26.355Z</time>
      </trkpt>
      <trkpt lat="46.41981" lon="-1.56122">
        <ele>58.570224</ele>
        <time>2022-12-19T09:44:29.331Z</time>
      </trkpt>
      <trkpt lat="46.41978" lon="-1.56103">
        <ele>58.52598</ele>
        <time>2022-12-19T09:44:32.337Z</time>
      </trkpt>
      <trkpt lat="46.41975" lon="-1.56085">
        <ele>58.483212</ele>
        <time>2022-12-19T09:44:35.327Z</time>
      </trkpt>
      <trkpt lat="46.41972" lon="-1.56067">
        <ele>58.4412</ele>
        <time>2022-12-19T09:44:38.331Z</time>
      </trkpt>
      <trkpt lat="46.41969" lon="-1.5605">
        <ele>58.40045</ele>
        <time>2022-12-19T09:44:41.331Z</time>
      </trkpt>
      <trkpt lat="46.41967" lon="-1.56032">
        <ele>58.360074</ele>
        <time>2022-12-19T09:44:44.329Z</time>
      </trkpt>
      <trkpt lat="46.41964" lon="-1.56015">
        <ele>58.319624</ele>
        <time>2022-12-19T09:44:47.326Z</time>
      </trkpt>
      <trkpt lat="46.41961" lon="-1.55997">
        <ele>58.276699</ele>
        <time>2022-12-19T09:44:50.359Z</time>
      </trkpt>
      <trkpt lat="46.41959" lon="-1.55978">
        <ele>58.232969</ele>
        <time>2022-12-19T09:44:53.323Z</time>
      </trkpt>
      <trkpt lat="46.41956" lon="-1.55959">
        <ele>58.18917</ele>
        <time>2022-12-19T09:44:56.351Z</time>
      </trkpt>
      <trkpt lat="46.41953" lon="-1.55942">
        <ele>58.147944</ele>
        <time>2022-12-19T09:44:59.344Z</time>
      </trkpt>
      <trkpt lat="46.4195" lon="-1.55925">
        <ele>58.108749</ele>
        <time>2022-12-19T09:45:02.325Z</time>
      </trkpt>
      <trkpt lat="46.41948" lon="-1.55908">
        <ele>58.067774</ele>
        <time>2022-12-19T09:45:05.327Z</time>
      </trkpt>
      <trkpt lat="46.41945" lon="-1.55889">
        <ele>58.023372</ele>
        <time>2022-12-19T09:45:08.328Z</time>
      </trkpt>
      <trkpt lat="46.41942" lon="-1.5587">
        <ele>57.998987</ele>
        <time>2022-12-19T09:45:11.322Z</time>
      </trkpt>
      <trkpt lat="46.4194" lon="-1.55852">
        <ele>58.003065</ele>
        <time>2022-12-19T09:45:14.327Z</time>
      </trkpt>
      <trkpt lat="46.41936" lon="-1.55836">
        <ele>58.00694</ele>
        <time>2022-12-19T09:45:17.334Z</time>
      </trkpt>
      <trkpt lat="46.41931" lon="-1.55821">
        <ele>58.010725</ele>
        <time>2022-12-19T09:45:20.326Z</time>
      </trkpt>
      <trkpt lat="46.41923" lon="-1.5581">
        <ele>58.014428</ele>
        <time>2022-12-19T09:45:23.324Z</time>
      </trkpt>
      <trkpt lat="46.41912" lon="-1.55801">
        <ele>58.018518</ele>
        <time>2022-12-19T09:45:26.341Z</time>
      </trkpt>
      <trkpt lat="46.419" lon="-1.55795">
        <ele>58.022533</ele>
        <time>2022-12-19T09:45:29.334Z</time>
      </trkpt>
      <trkpt lat="46.41891" lon="-1.55787">
        <ele>58.026115</ele>
        <time>2022-12-19T09:45:32.325Z</time>
      </trkpt>
      <trkpt lat="46.41886" lon="-1.55775">
        <ele>58.029194</ele>
        <time>2022-12-19T09:45:35.324Z</time>
      </trkpt>
      <trkpt lat="46.41891" lon="-1.55763">
        <ele>58.032337</ele>
        <time>2022-12-19T09:45:39.342Z</time>
      </trkpt>
      <trkpt lat="46.419" lon="-1.55758">
        <ele>58.035639</ele>
        <time>2022-12-19T09:45:43.328Z</time>
      </trkpt>
      <trkpt lat="46.41905" lon="-1.55744">
        <ele>58.039304</ele>
        <time>2022-12-19T09:45:47.328Z</time>
      </trkpt>
      <trkpt lat="46.41904" lon="-1.55729">
        <ele>58.0426</ele>
        <time>2022-12-19T09:45:50.329Z</time>
      </trkpt>
      <trkpt lat="46.419" lon="-1.55714">
        <ele>58.046219</ele>
        <time>2022-12-19T09:45:53.332Z</time>
      </trkpt>
      <trkpt lat="46.41896" lon="-1.55699">
        <ele>58.049922</ele>
        <time>2022-12-19T09:45:56.325Z</time>
      </trkpt>
      <trkpt lat="46.4189" lon="-1.55683">
        <ele>58.053968</ele>
        <time>2022-12-19T09:45:59.336Z</time>
      </trkpt>
      <trkpt lat="46.41887" lon="-1.5567">
        <ele>58.065479</ele>
        <time>2022-12-19T09:46:01.325Z</time>
      </trkpt>
      <trkpt lat="46.41883" lon="-1.55657">
        <ele>58.092325</ele>
        <time>2022-12-19T09:46:03.324Z</time>
      </trkpt>
      <trkpt lat="46.4188" lon="-1.55645">
        <ele>58.11818</ele>
        <time>2022-12-19T09:46:05.323Z</time>
      </trkpt>
      <trkpt lat="46.41876" lon="-1.55632">
        <ele>58.144146</ele>
        <time>2022-12-19T09:46:07.343Z</time>
      </trkpt>
      <trkpt lat="46.41872" lon="-1.55615">
        <ele>58.179404</ele>
        <time>2022-12-19T09:46:10.331Z</time>
      </trkpt>
      <trkpt lat="46.41868" lon="-1.55599">
        <ele>58.212864</ele>
        <time>2022-12-19T09:46:13.328Z</time>
      </trkpt>
      <trkpt lat="46.41863" lon="-1.55583">
        <ele>58.245692</ele>
        <time>2022-12-19T09:46:16.333Z</time>
      </trkpt>
      <trkpt lat="46.41857" lon="-1.55571">
        <ele>58.273539</ele>
        <time>2022-12-19T09:46:19.321Z</time>
      </trkpt>
      <trkpt lat="46.41853" lon="-1.55559">
        <ele>58.299925</ele>
        <time>2022-12-19T09:46:23.329Z</time>
      </trkpt>
      <trkpt lat="46.41849" lon="-1.55546">
        <ele>58.326883</ele>
        <time>2022-12-19T09:46:27.335Z</time>
      </trkpt>
      <trkpt lat="46.41845" lon="-1.55531">
        <ele>58.358041</ele>
        <time>2022-12-19T09:46:31.333Z</time>
      </trkpt>
      <trkpt lat="46.41842" lon="-1.55518">
        <ele>58.384386</ele>
        <time>2022-12-19T09:46:34.328Z</time>
      </trkpt>
      <trkpt lat="46.41838" lon="-1.55502">
        <ele>58.416828</ele>
        <time>2022-12-19T09:46:38.341Z</time>
      </trkpt>
      <trkpt lat="46.41834" lon="-1.55486">
        <ele>58.448911</ele>
        <time>2022-12-19T09:46:42.324Z</time>
      </trkpt>
      <trkpt lat="46.4183" lon="-1.55472">
        <ele>58.479071</ele>
        <time>2022-12-19T09:46:45.344Z</time>
      </trkpt>
      <trkpt lat="46.41826" lon="-1.55457">
        <ele>58.508764</ele>
        <time>2022-12-19T09:46:48.355Z</time>
      </trkpt>
      <trkpt lat="46.41823" lon="-1.55444">
        <ele>58.535839</ele>
        <time>2022-12-19T09:46:51.322Z</time>
      </trkpt>
      <trkpt lat="46.4182" lon="-1.55428">
        <ele>58.548668</ele>
        <time>2022-12-19T09:46:55.324Z</time>
      </trkpt>
      <trkpt lat="46.41816" lon="-1.55414">
        <ele>58.521241</ele>
        <time>2022-12-19T09:46:59.325Z</time>
      </trkpt>
      <trkpt lat="46.41812" lon="-1.554">
        <ele>58.495711</ele>
        <time>2022-12-19T09:47:02.324Z</time>
      </trkpt>
      <trkpt lat="46.41808" lon="-1.55386">
        <ele>58.469443</ele>
        <time>2022-12-19T09:47:05.361Z</time>
      </trkpt>
      <trkpt lat="46.41805" lon="-1.55373">
        <ele>58.444655</ele>
        <time>2022-12-19T09:47:08.323Z</time>
      </trkpt>
      <trkpt lat="46.41802" lon="-1.55359">
        <ele>58.419641</ele>
        <time>2022-12-19T09:47:12.347Z</time>
      </trkpt>
      <trkpt lat="46.41798" lon="-1.55345">
        <ele>58.392055</ele>
        <time>2022-12-19T09:47:17.355Z</time>
      </trkpt>
      <trkpt lat="46.41802" lon="-1.55331">
        <ele>58.366788</ele>
        <time>2022-12-19T09:47:22.332Z</time>
      </trkpt>
      <trkpt lat="46.418" lon="-1.55316">
        <ele>58.340085</ele>
        <time>2022-12-19T09:47:26.330Z</time>
      </trkpt>
      <trkpt lat="46.41796" lon="-1.55302">
        <ele>58.313982</ele>
        <time>2022-12-19T09:47:29.343Z</time>
      </trkpt>
      <trkpt lat="46.41793" lon="-1.55287">
        <ele>58.28649</ele>
        <time>2022-12-19T09:47:32.336Z</time>
      </trkpt>
      <trkpt lat="46.41789" lon="-1.55271">
        <ele>58.257002</ele>
        <time>2022-12-19T09:47:35.335Z</time>
      </trkpt>
      <trkpt lat="46.41786" lon="-1.55254">
        <ele>58.227015</ele>
        <time>2022-12-19T09:47:38.335Z</time>
      </trkpt>
      <trkpt lat="46.41782" lon="-1.55238">
        <ele>58.196147</ele>
        <time>2022-12-19T09:47:41.334Z</time>
      </trkpt>
      <trkpt lat="46.41778" lon="-1.55221">
        <ele>58.164618</ele>
        <time>2022-12-19T09:47:44.345Z</time>
      </trkpt>
      <trkpt lat="46.41773" lon="-1.55205">
        <ele>58.134132</ele>
        <time>2022-12-19T09:47:47.321Z</time>
      </trkpt>
      <trkpt lat="46.41769" lon="-1.5519">
        <ele>58.105545</ele>
        <time>2022-12-19T09:47:50.339Z</time>
      </trkpt>
      <trkpt lat="46.41764" lon="-1.55176">
        <ele>58.117082</ele>
        <time>2022-12-19T09:47:53.322Z</time>
      </trkpt>
      <trkpt lat="46.41759" lon="-1.55161">
        <ele>58.134023</ele>
        <time>2022-12-19T09:47:56.324Z</time>
      </trkpt>
      <trkpt lat="46.41756" lon="-1.55145">
        <ele>58.150571</ele>
        <time>2022-12-19T09:47:59.319Z</time>
      </trkpt>
      <trkpt lat="46.41751" lon="-1.5513">
        <ele>58.167525</ele>
        <time>2022-12-19T09:48:02.343Z</time>
      </trkpt>
      <trkpt lat="46.41746" lon="-1.55113">
        <ele>58.185788</ele>
        <time>2022-12-19T09:48:05.323Z</time>
      </trkpt>
      <trkpt lat="46.41739" lon="-1.55098">
        <ele>58.204264</ele>
        <time>2022-12-19T09:48:08.330Z</time>
      </trkpt>
      <trkpt lat="46.41732" lon="-1.55082">
        <ele>58.223086</ele>
        <time>2022-12-19T09:48:11.321Z</time>
      </trkpt>
      <trkpt lat="46.41725" lon="-1.55067">
        <ele>58.242072</ele>
        <time>2022-12-19T09:48:14.327Z</time>
      </trkpt>
      <trkpt lat="46.41717" lon="-1.55051">
        <ele>58.261683</ele>
        <time>2022-12-19T09:48:17.327Z</time>
      </trkpt>
      <trkpt lat="46.41708" lon="-1.55036">
        <ele>58.281045</ele>
        <time>2022-12-19T09:48:20.337Z</time>
      </trkpt>
      <trkpt lat="46.417" lon="-1.55021">
        <ele>58.300226</ele>
        <time>2022-12-19T09:48:23.328Z</time>
      </trkpt>
      <trkpt lat="46.41692" lon="-1.55007">
        <ele>58.318618</ele>
        <time>2022-12-19T09:48:26.318Z</time>
      </trkpt>
      <trkpt lat="46.41685" lon="-1.54993">
        <ele>58.33706</ele>
        <time>2022-12-19T09:48:29.327Z</time>
      </trkpt>
      <trkpt lat="46.41677" lon="-1.54979">
        <ele>58.355492</ele>
        <time>2022-12-19T09:48:32.327Z</time>
      </trkpt>
      <trkpt lat="46.4167" lon="-1.54964">
        <ele>58.314969</ele>
        <time>2022-12-19T09:48:35.328Z</time>
      </trkpt>
      <trkpt lat="46.41662" lon="-1.54951">
        <ele>58.178272</ele>
        <time>2022-12-19T09:48:38.334Z</time>
      </trkpt>
      <trkpt lat="46.41655" lon="-1.54937">
        <ele>58.046319</ele>
        <time>2022-12-19T09:48:41.325Z</time>
      </trkpt>
      <trkpt lat="46.41649" lon="-1.54926">
        <ele>57.931563</ele>
        <time>2022-12-19T09:48:44.324Z</time>
      </trkpt>
      <trkpt lat="46.41641" lon="-1.54915">
        <ele>57.808424</ele>
        <time>2022-12-19T09:48:47.343Z</time>
      </trkpt>
      <trkpt lat="46.41633" lon="-1.54904">
        <ele>57.677964</ele>
        <time>2022-12-19T09:48:50.412Z</time>
      </trkpt>
      <trkpt lat="46.41626" lon="-1.54891">
        <ele>57.547951</ele>
        <time>2022-12-19T09:48:53.345Z</time>
      </trkpt>
      <trkpt lat="46.4162" lon="-1.54876">
        <ele>57.414509</ele>
        <time>2022-12-19T09:48:56.329Z</time>
      </trkpt>
      <trkpt lat="46.41613" lon="-1.54863">
        <ele>57.285473</ele>
        <time>2022-12-19T09:48:59.338Z</time>
      </trkpt>
      <trkpt lat="46.41607" lon="-1.54851">
        <ele>57.165064</ele>
        <time>2022-12-19T09:49:02.325Z</time>
      </trkpt>
      <trkpt lat="46.41599" lon="-1.54838">
        <ele>57.033255</ele>
        <time>2022-12-19T09:49:05.568Z</time>
      </trkpt>
      <trkpt lat="46.41593" lon="-1.54824">
        <ele>56.900628</ele>
        <time>2022-12-19T09:49:08.332Z</time>
      </trkpt>
      <trkpt lat="46.41583" lon="-1.54816">
        <ele>56.775083</ele>
        <time>2022-12-19T09:49:11.340Z</time>
      </trkpt>
      <trkpt lat="46.41573" lon="-1.54813">
        <ele>56.662702</ele>
        <time>2022-12-19T09:49:15.335Z</time>
      </trkpt>
      <trkpt lat="46.41564" lon="-1.54818">
        <ele>56.556316</ele>
        <time>2022-12-19T09:49:19.333Z</time>
      </trkpt>
      <trkpt lat="46.41555" lon="-1.54822">
        <ele>56.446196</ele>
        <time>2022-12-19T09:49:23.331Z</time>
      </trkpt>
      <trkpt lat="46.41547" lon="-1.54829">
        <ele>56.336601</ele>
        <time>2022-12-19T09:49:28.325Z</time>
      </trkpt>
      <trkpt lat="46.41536" lon="-1.54826">
        <ele>56.01681</ele>
        <time>2022-12-19T09:50:20.333Z</time>
      </trkpt>
      <trkpt lat="46.41528" lon="-1.54833">
        <ele>55.710037</ele>
        <time>2022-12-19T09:50:30.333Z</time>
      </trkpt>
      <trkpt lat="46.41531" lon="-1.54825">
        <ele>55.494533</ele>
        <time>2022-12-19T09:51:07.191Z</time>
      </trkpt>
      <trkpt lat="46.41548" lon="-1.5483">
        <ele>54.934578</ele>
        <time>2022-12-19T10:02:27.338Z</time>
      </trkpt>
      <trkpt lat="46.41572" lon="-1.54811">
        <ele>54.066454</ele>
        <time>2022-12-19T10:02:48.333Z</time>
      </trkpt>
      <trkpt lat="46.41568" lon="-1.54796">
        <ele>53.714494</ele>
        <time>2022-12-19T10:02:53.334Z</time>
      </trkpt>
      <trkpt lat="46.41564" lon="-1.54783">
        <ele>53.395563</ele>
        <time>2022-12-19T10:02:56.342Z</time>
      </trkpt>
      <trkpt lat="46.41561" lon="-1.54767">
        <ele>53.019509</ele>
        <time>2022-12-19T10:02:59.331Z</time>
      </trkpt>
      <trkpt lat="46.41558" lon="-1.54749">
        <ele>52.622999</ele>
        <time>2022-12-19T10:03:02.336Z</time>
      </trkpt>
      <trkpt lat="46.41558" lon="-1.54733">
        <ele>52.265829</ele>
        <time>2022-12-19T10:03:05.321Z</time>
      </trkpt>
      <trkpt lat="46.41556" lon="-1.54719">
        <ele>51.934594</ele>
        <time>2022-12-19T10:03:07.331Z</time>
      </trkpt>
      <trkpt lat="46.41555" lon="-1.54704">
        <ele>51.595398</ele>
        <time>2022-12-19T10:03:09.319Z</time>
      </trkpt>
      <trkpt lat="46.41554" lon="-1.54688">
        <ele>51.253577</ele>
        <time>2022-12-19T10:03:11.331Z</time>
      </trkpt>
      <trkpt lat="46.41552" lon="-1.54672">
        <ele>50.883909</ele>
        <time>2022-12-19T10:03:13.328Z</time>
      </trkpt>
      <trkpt lat="46.41551" lon="-1.54657">
        <ele>50.551392</ele>
        <time>2022-12-19T10:03:15.326Z</time>
      </trkpt>
      <trkpt lat="46.4155" lon="-1.54641">
        <ele>50.29273</ele>
        <time>2022-12-19T10:03:17.336Z</time>
      </trkpt>
      <trkpt lat="46.41548" lon="-1.54626">
        <ele>50.060114</ele>
        <time>2022-12-19T10:03:19.323Z</time>
      </trkpt>
      <trkpt lat="46.41547" lon="-1.54611">
        <ele>49.825138</ele>
        <time>2022-12-19T10:03:21.323Z</time>
      </trkpt>
      <trkpt lat="46.41545" lon="-1.54598">
        <ele>49.616391</ele>
        <time>2022-12-19T10:03:23.329Z</time>
      </trkpt>
      <trkpt lat="46.41544" lon="-1.54584">
        <ele>49.404257</ele>
        <time>2022-12-19T10:03:25.325Z</time>
      </trkpt>
      <trkpt lat="46.41541" lon="-1.5457">
        <ele>49.174912</ele>
        <time>2022-12-19T10:03:27.312Z</time>
      </trkpt>
      <trkpt lat="46.4154" lon="-1.54553">
        <ele>48.915373</ele>
        <time>2022-12-19T10:03:30.322Z</time>
      </trkpt>
      <trkpt lat="46.41539" lon="-1.54537">
        <ele>48.659826</ele>
        <time>2022-12-19T10:03:33.371Z</time>
      </trkpt>
      <trkpt lat="46.41537" lon="-1.54521">
        <ele>48.409594</ele>
        <time>2022-12-19T10:03:36.329Z</time>
      </trkpt>
      <trkpt lat="46.41536" lon="-1.54507">
        <ele>48.197801</ele>
        <time>2022-12-19T10:03:39.327Z</time>
      </trkpt>
      <trkpt lat="46.41534" lon="-1.54494">
        <ele>47.986017</ele>
        <time>2022-12-19T10:03:42.323Z</time>
      </trkpt>
      <trkpt lat="46.41532" lon="-1.54477">
        <ele>47.722316</ele>
        <time>2022-12-19T10:03:46.316Z</time>
      </trkpt>
      <trkpt lat="46.41531" lon="-1.54463">
        <ele>47.512664</ele>
        <time>2022-12-19T10:03:49.342Z</time>
      </trkpt>
      <trkpt lat="46.41531" lon="-1.54449">
        <ele>47.294929</ele>
        <time>2022-12-19T10:03:52.333Z</time>
      </trkpt>
      <trkpt lat="46.41529" lon="-1.54436">
        <ele>47.084658</ele>
        <time>2022-12-19T10:03:55.333Z</time>
      </trkpt>
      <trkpt lat="46.41528" lon="-1.5442">
        <ele>46.846193</ele>
        <time>2022-12-19T10:03:58.329Z</time>
      </trkpt>
      <trkpt lat="46.41527" lon="-1.54404">
        <ele>46.600835</ele>
        <time>2022-12-19T10:04:01.329Z</time>
      </trkpt>
      <trkpt lat="46.41525" lon="-1.54389">
        <ele>46.672782</ele>
        <time>2022-12-19T10:04:04.334Z</time>
      </trkpt>
      <trkpt lat="46.41523" lon="-1.54375">
        <ele>47.015461</ele>
        <time>2022-12-19T10:04:07.331Z</time>
      </trkpt>
      <trkpt lat="46.41521" lon="-1.5436">
        <ele>47.371559</ele>
        <time>2022-12-19T10:04:10.339Z</time>
      </trkpt>
      <trkpt lat="46.41519" lon="-1.54342">
        <ele>47.792427</ele>
        <time>2022-12-19T10:04:14.314Z</time>
      </trkpt>
      <trkpt lat="46.41519" lon="-1.54329">
        <ele>48.11656</ele>
        <time>2022-12-19T10:04:17.320Z</time>
      </trkpt>
      <trkpt lat="46.41519" lon="-1.54311">
        <ele>48.530521</ele>
        <time>2022-12-19T10:04:21.340Z</time>
      </trkpt>
      <trkpt lat="46.41519" lon="-1.54298">
        <ele>48.84542</ele>
        <time>2022-12-19T10:04:24.329Z</time>
      </trkpt>
      <trkpt lat="46.41519" lon="-1.54284">
        <ele>49.179225</ele>
        <time>2022-12-19T10:04:27.328Z</time>
      </trkpt>
      <trkpt lat="46.41521" lon="-1.54271">
        <ele>49.492211</ele>
        <time>2022-12-19T10:04:30.320Z</time>
      </trkpt>
      <trkpt lat="46.41521" lon="-1.54257">
        <ele>49.824007</ele>
        <time>2022-12-19T10:04:33.321Z</time>
      </trkpt>
      <trkpt lat="46.41523" lon="-1.54243">
        <ele>50.165654</ele>
        <time>2022-12-19T10:04:36.326Z</time>
      </trkpt>
      <trkpt lat="46.41525" lon="-1.54229">
        <ele>50.495319</ele>
        <time>2022-12-19T10:04:39.325Z</time>
      </trkpt>
      <trkpt lat="46.41527" lon="-1.54216">
        <ele>50.809656</ele>
        <time>2022-12-19T10:04:42.320Z</time>
      </trkpt>
      <trkpt lat="46.41529" lon="-1.54203">
        <ele>51.123991</ele>
        <time>2022-12-19T10:04:45.330Z</time>
      </trkpt>
      <trkpt lat="46.41531" lon="-1.54189">
        <ele>51.457551</ele>
        <time>2022-12-19T10:04:48.329Z</time>
      </trkpt>
      <trkpt lat="46.41533" lon="-1.54176">
        <ele>51.771079</ele>
        <time>2022-12-19T10:04:51.329Z</time>
      </trkpt>
      <trkpt lat="46.41536" lon="-1.5416">
        <ele>52.179734</ele>
        <time>2022-12-19T10:04:55.337Z</time>
      </trkpt>
      <trkpt lat="46.4154" lon="-1.54143">
        <ele>52.58973</ele>
        <time>2022-12-19T10:04:59.322Z</time>
      </trkpt>
      <trkpt lat="46.41543" lon="-1.5413">
        <ele>53.078628</ele>
        <time>2022-12-19T10:05:02.334Z</time>
      </trkpt>
      <trkpt lat="46.41546" lon="-1.54117">
        <ele>53.633322</ele>
        <time>2022-12-19T10:05:05.321Z</time>
      </trkpt>
      <trkpt lat="46.41549" lon="-1.54105">
        <ele>54.175008</ele>
        <time>2022-12-19T10:05:08.334Z</time>
      </trkpt>
      <trkpt lat="46.41553" lon="-1.54092">
        <ele>54.727567</ele>
        <time>2022-12-19T10:05:11.334Z</time>
      </trkpt>
      <trkpt lat="46.41558" lon="-1.54076">
        <ele>55.409385</ele>
        <time>2022-12-19T10:05:15.325Z</time>
      </trkpt>
      <trkpt lat="46.41561" lon="-1.54062">
        <ele>56.021051</ele>
        <time>2022-12-19T10:05:19.318Z</time>
      </trkpt>
      <trkpt lat="46.41564" lon="-1.54048">
        <ele>56.61436</ele>
        <time>2022-12-19T10:05:23.324Z</time>
      </trkpt>
      <trkpt lat="46.41569" lon="-1.54033">
        <ele>57.255037</ele>
        <time>2022-12-19T10:05:28.333Z</time>
      </trkpt>
      <trkpt lat="46.41574" lon="-1.5402">
        <ele>57.853385</ele>
        <time>2022-12-19T10:05:33.331Z</time>
      </trkpt>
      <trkpt lat="46.41581" lon="-1.54017">
        <ele>58.309362</ele>
        <time>2022-12-19T10:08:00.441Z</time>
      </trkpt>
      <trkpt lat="46.35243" lon="-1.37071">
        <ele>49.604271</ele>
        <time>2022-12-19T11:27:38.397Z</time>
      </trkpt>
      <trkpt lat="46.35242" lon="-1.37071">
        <ele>49.60481</ele>
        <time>2022-12-19T11:27:43.671Z</time>
      </trkpt>
      <trkpt lat="46.35235" lon="-1.3706">
        <ele>49.619777</ele>
        <time>2022-12-19T11:51:24.772Z</time>
      </trkpt>
      <trkpt lat="46.35237" lon="-1.37041">
        <ele>49.639458</ele>
        <time>2022-12-19T11:52:18.316Z</time>
      </trkpt>
      <trkpt lat="46.35234" lon="-1.37026">
        <ele>49.656141</ele>
        <time>2022-12-19T11:52:22.339Z</time>
      </trkpt>
      <trkpt lat="46.35233" lon="-1.37012">
        <ele>49.670324</ele>
        <time>2022-12-19T11:52:25.331Z</time>
      </trkpt>
      <trkpt lat="46.35231" lon="-1.36999">
        <ele>49.684787</ele>
        <time>2022-12-19T11:52:28.332Z</time>
      </trkpt>
      <trkpt lat="46.35229" lon="-1.36982">
        <ele>49.701856</ele>
        <time>2022-12-19T11:52:31.329Z</time>
      </trkpt>
      <trkpt lat="46.35226" lon="-1.36966">
        <ele>49.719448</ele>
        <time>2022-12-19T11:52:34.317Z</time>
      </trkpt>
      <trkpt lat="46.35224" lon="-1.36949">
        <ele>49.737174</ele>
        <time>2022-12-19T11:52:37.329Z</time>
      </trkpt>
      <trkpt lat="46.35221" lon="-1.36932">
        <ele>49.776689</ele>
        <time>2022-12-19T11:52:40.330Z</time>
      </trkpt>
      <trkpt lat="46.3522" lon="-1.36915">
        <ele>49.839277</ele>
        <time>2022-12-19T11:52:43.329Z</time>
      </trkpt>
      <trkpt lat="46.35218" lon="-1.36898">
        <ele>49.902006</ele>
        <time>2022-12-19T11:52:46.325Z</time>
      </trkpt>
      <trkpt lat="46.35217" lon="-1.36882">
        <ele>49.959304</ele>
        <time>2022-12-19T11:52:49.335Z</time>
      </trkpt>
      <trkpt lat="46.35216" lon="-1.36868">
        <ele>50.010829</ele>
        <time>2022-12-19T11:52:52.332Z</time>
      </trkpt>
      <trkpt lat="46.35214" lon="-1.36854">
        <ele>50.062354</ele>
        <time>2022-12-19T11:52:55.325Z</time>
      </trkpt>
      <trkpt lat="46.3521" lon="-1.36841">
        <ele>50.115055</ele>
        <time>2022-12-19T11:52:58.319Z</time>
      </trkpt>
      <trkpt lat="46.35204" lon="-1.36829">
        <ele>50.169975</ele>
        <time>2022-12-19T11:53:01.334Z</time>
      </trkpt>
      <trkpt lat="46.35196" lon="-1.3682">
        <ele>50.222307</ele>
        <time>2022-12-19T11:53:04.331Z</time>
      </trkpt>
      <trkpt lat="46.35191" lon="-1.36809">
        <ele>50.269832</ele>
        <time>2022-12-19T11:53:07.346Z</time>
      </trkpt>
      <trkpt lat="46.35185" lon="-1.36799">
        <ele>50.318379</ele>
        <time>2022-12-19T11:53:10.319Z</time>
      </trkpt>
      <trkpt lat="46.35177" lon="-1.36792">
        <ele>50.370175</ele>
        <time>2022-12-19T11:53:13.319Z</time>
      </trkpt>
      <trkpt lat="46.35167" lon="-1.36786">
        <ele>50.424089</ele>
        <time>2022-12-19T11:53:16.333Z</time>
      </trkpt>
      <trkpt lat="46.35156" lon="-1.36782">
        <ele>50.48273</ele>
        <time>2022-12-19T11:53:19.334Z</time>
      </trkpt>
      <trkpt lat="46.35145" lon="-1.36778">
        <ele>50.543969</ele>
        <time>2022-12-19T11:53:22.332Z</time>
      </trkpt>
      <trkpt lat="46.35134" lon="-1.36772">
        <ele>50.605919</ele>
        <time>2022-12-19T11:53:25.332Z</time>
      </trkpt>
      <trkpt lat="46.35123" lon="-1.36767">
        <ele>50.667631</ele>
        <time>2022-12-19T11:53:28.334Z</time>
      </trkpt>
      <trkpt lat="46.35112" lon="-1.36761">
        <ele>50.723311</ele>
        <time>2022-12-19T11:53:31.332Z</time>
      </trkpt>
      <trkpt lat="46.35103" lon="-1.36755">
        <ele>50.771328</ele>
        <time>2022-12-19T11:53:34.343Z</time>
      </trkpt>
      <trkpt lat="46.35092" lon="-1.3675">
        <ele>50.824104</ele>
        <time>2022-12-19T11:53:37.317Z</time>
      </trkpt>
      <trkpt lat="46.35081" lon="-1.36744">
        <ele>50.880677</ele>
        <time>2022-12-19T11:53:40.312Z</time>
      </trkpt>
      <trkpt lat="46.35069" lon="-1.36738">
        <ele>50.938902</ele>
        <time>2022-12-19T11:53:43.337Z</time>
      </trkpt>
      <trkpt lat="46.35057" lon="-1.36732">
        <ele>50.998442</ele>
        <time>2022-12-19T11:53:46.329Z</time>
      </trkpt>
      <trkpt lat="46.35045" lon="-1.36725">
        <ele>51.059755</ele>
        <time>2022-12-19T11:53:49.336Z</time>
      </trkpt>
      <trkpt lat="46.35033" lon="-1.36719">
        <ele>51.119628</ele>
        <time>2022-12-19T11:53:52.334Z</time>
      </trkpt>
      <trkpt lat="46.35023" lon="-1.36713">
        <ele>51.171992</ele>
        <time>2022-12-19T11:53:55.339Z</time>
      </trkpt>
      <trkpt lat="46.35014" lon="-1.36708">
        <ele>51.217793</ele>
        <time>2022-12-19T11:53:58.337Z</time>
      </trkpt>
      <trkpt lat="46.35004" lon="-1.36704">
        <ele>51.264457</ele>
        <time>2022-12-19T11:54:01.333Z</time>
      </trkpt>
      <trkpt lat="46.34995" lon="-1.36703">
        <ele>51.307823</ele>
        <time>2022-12-19T11:54:04.329Z</time>
      </trkpt>
      <trkpt lat="46.34986" lon="-1.36703">
        <ele>51.35365</ele>
        <time>2022-12-19T11:54:08.331Z</time>
      </trkpt>
      <trkpt lat="46.34976" lon="-1.36701">
        <ele>51.398389</ele>
        <time>2022-12-19T11:54:13.334Z</time>
      </trkpt>
      <trkpt lat="46.34966" lon="-1.36701">
        <ele>51.448413</ele>
        <time>2022-12-19T11:54:21.314Z</time>
      </trkpt>
      <trkpt lat="46.34959" lon="-1.36713">
        <ele>51.49618</ele>
        <time>2022-12-19T11:54:25.335Z</time>
      </trkpt>
      <trkpt lat="46.34954" lon="-1.36727">
        <ele>51.536305</ele>
        <time>2022-12-19T11:54:29.315Z</time>
      </trkpt>
      <trkpt lat="46.34945" lon="-1.36733">
        <ele>51.513254</ele>
        <time>2022-12-19T11:54:33.330Z</time>
      </trkpt>
      <trkpt lat="46.34936" lon="-1.36727">
        <ele>51.490392</ele>
        <time>2022-12-19T11:54:38.332Z</time>
      </trkpt>
      <trkpt lat="46.34931" lon="-1.36715">
        <ele>51.468817</ele>
        <time>2022-12-19T11:54:42.330Z</time>
      </trkpt>
      <trkpt lat="46.34928" lon="-1.367">
        <ele>51.442631</ele>
        <time>2022-12-19T11:54:46.336Z</time>
      </trkpt>
      <trkpt lat="46.34925" lon="-1.36687">
        <ele>51.421611</ele>
        <time>2022-12-19T11:54:49.330Z</time>
      </trkpt>
      <trkpt lat="46.34921" lon="-1.36674">
        <ele>51.398795</ele>
        <time>2022-12-19T11:54:52.333Z</time>
      </trkpt>
      <trkpt lat="46.34916" lon="-1.3666">
        <ele>51.37377</ele>
        <time>2022-12-19T11:54:55.331Z</time>
      </trkpt>
      <trkpt lat="46.3491" lon="-1.36647">
        <ele>51.348215</ele>
        <time>2022-12-19T11:54:58.328Z</time>
      </trkpt>
      <trkpt lat="46.34905" lon="-1.36633">
        <ele>51.324037</ele>
        <time>2022-12-19T11:55:01.333Z</time>
      </trkpt>
      <trkpt lat="46.34902" lon="-1.3662">
        <ele>51.301476</ele>
        <time>2022-12-19T11:55:04.332Z</time>
      </trkpt>
      <trkpt lat="46.34901" lon="-1.36606">
        <ele>51.279874</ele>
        <time>2022-12-19T11:55:07.331Z</time>
      </trkpt>
      <trkpt lat="46.349" lon="-1.36591">
        <ele>51.256185</ele>
        <time>2022-12-19T11:55:10.328Z</time>
      </trkpt>
      <trkpt lat="46.34899" lon="-1.36575">
        <ele>51.229171</ele>
        <time>2022-12-19T11:55:13.335Z</time>
      </trkpt>
      <trkpt lat="46.34898" lon="-1.36557">
        <ele>51.20088</ele>
        <time>2022-12-19T11:55:16.337Z</time>
      </trkpt>
      <trkpt lat="46.34898" lon="-1.36541">
        <ele>51.175488</ele>
        <time>2022-12-19T11:55:19.330Z</time>
      </trkpt>
      <trkpt lat="46.34898" lon="-1.36525">
        <ele>51.149782</ele>
        <time>2022-12-19T11:55:22.324Z</time>
      </trkpt>
      <trkpt lat="46.34899" lon="-1.36509">
        <ele>51.123331</ele>
        <time>2022-12-19T11:55:25.341Z</time>
      </trkpt>
      <trkpt lat="46.34899" lon="-1.36491">
        <ele>51.059263</ele>
        <time>2022-12-19T11:55:28.313Z</time>
      </trkpt>
      <trkpt lat="46.34898" lon="-1.36473">
        <ele>50.992549</ele>
        <time>2022-12-19T11:55:31.323Z</time>
      </trkpt>
      <trkpt lat="46.34897" lon="-1.36454">
        <ele>50.923119</ele>
        <time>2022-12-19T11:55:34.328Z</time>
      </trkpt>
      <trkpt lat="46.34897" lon="-1.36434">
        <ele>50.852234</ele>
        <time>2022-12-19T11:55:37.334Z</time>
      </trkpt>
      <trkpt lat="46.34897" lon="-1.36415">
        <ele>50.78135</ele>
        <time>2022-12-19T11:55:40.334Z</time>
      </trkpt>
      <trkpt lat="46.34897" lon="-1.36402">
        <ele>50.733013</ele>
        <time>2022-12-19T11:55:42.331Z</time>
      </trkpt>
      <trkpt lat="46.34896" lon="-1.36384">
        <ele>50.667703</ele>
        <time>2022-12-19T11:55:45.331Z</time>
      </trkpt>
      <trkpt lat="46.34896" lon="-1.3637">
        <ele>50.618616</ele>
        <time>2022-12-19T11:55:47.312Z</time>
      </trkpt>
      <trkpt lat="46.34895" lon="-1.36357">
        <ele>50.570573</ele>
        <time>2022-12-19T11:55:49.317Z</time>
      </trkpt>
      <trkpt lat="46.34895" lon="-1.36338">
        <ele>50.503289</ele>
        <time>2022-12-19T11:55:52.331Z</time>
      </trkpt>
      <trkpt lat="46.34895" lon="-1.3632">
        <ele>50.437865</ele>
        <time>2022-12-19T11:55:55.339Z</time>
      </trkpt>
      <trkpt lat="46.34895" lon="-1.36302">
        <ele>50.369171</ele>
        <time>2022-12-19T11:55:58.335Z</time>
      </trkpt>
      <trkpt lat="46.34894" lon="-1.36283">
        <ele>50.300775</ele>
        <time>2022-12-19T11:56:01.332Z</time>
      </trkpt>
      <trkpt lat="46.34894" lon="-1.36263">
        <ele>50.229891</ele>
        <time>2022-12-19T11:56:04.326Z</time>
      </trkpt>
      <trkpt lat="46.34894" lon="-1.3625">
        <ele>50.182283</ele>
        <time>2022-12-19T11:56:06.330Z</time>
      </trkpt>
      <trkpt lat="46.34894" lon="-1.36237">
        <ele>50.262443</ele>
        <time>2022-12-19T11:56:08.342Z</time>
      </trkpt>
      <trkpt lat="46.34893" lon="-1.36222">
        <ele>50.362071</ele>
        <time>2022-12-19T11:56:10.331Z</time>
      </trkpt>
      <trkpt lat="46.34893" lon="-1.36208">
        <ele>50.462392</ele>
        <time>2022-12-19T11:56:12.337Z</time>
      </trkpt>
      <trkpt lat="46.34892" lon="-1.36188">
        <ele>50.598606</ele>
        <time>2022-12-19T11:56:15.331Z</time>
      </trkpt>
      <trkpt lat="46.34892" lon="-1.3617">
        <ele>50.725231</ele>
        <time>2022-12-19T11:56:18.335Z</time>
      </trkpt>
      <trkpt lat="46.34891" lon="-1.36154">
        <ele>50.841224</ele>
        <time>2022-12-19T11:56:21.329Z</time>
      </trkpt>
      <trkpt lat="46.3489" lon="-1.36137">
        <ele>50.958409</ele>
        <time>2022-12-19T11:56:24.332Z</time>
      </trkpt>
      <trkpt lat="46.34889" lon="-1.3612">
        <ele>51.078364</ele>
        <time>2022-12-19T11:56:27.332Z</time>
      </trkpt>
      <trkpt lat="46.34888" lon="-1.36102">
        <ele>51.199554</ele>
        <time>2022-12-19T11:56:30.315Z</time>
      </trkpt>
      <trkpt lat="46.34886" lon="-1.36082">
        <ele>51.340053</ele>
        <time>2022-12-19T11:56:33.317Z</time>
      </trkpt>
      <trkpt lat="46.34885" lon="-1.36065">
        <ele>51.462173</ele>
        <time>2022-12-19T11:56:36.331Z</time>
      </trkpt>
      <trkpt lat="46.34884" lon="-1.36047">
        <ele>51.585591</ele>
        <time>2022-12-19T11:56:39.332Z</time>
      </trkpt>
      <trkpt lat="46.34883" lon="-1.36029">
        <ele>51.712404</ele>
        <time>2022-12-19T11:56:42.332Z</time>
      </trkpt>
      <trkpt lat="46.34881" lon="-1.36011">
        <ele>51.838287</ele>
        <time>2022-12-19T11:56:45.327Z</time>
      </trkpt>
      <trkpt lat="46.3488" lon="-1.35992">
        <ele>51.968315</ele>
        <time>2022-12-19T11:56:48.330Z</time>
      </trkpt>
      <trkpt lat="46.34878" lon="-1.35973">
        <ele>51.906964</ele>
        <time>2022-12-19T11:56:51.313Z</time>
      </trkpt>
      <trkpt lat="46.34877" lon="-1.3596">
        <ele>51.838456</ele>
        <time>2022-12-19T11:56:53.318Z</time>
      </trkpt>
      <trkpt lat="46.34876" lon="-1.35943">
        <ele>51.751013</ele>
        <time>2022-12-19T11:56:56.324Z</time>
      </trkpt>
      <trkpt lat="46.34875" lon="-1.35927">
        <ele>51.669035</ele>
        <time>2022-12-19T11:56:59.342Z</time>
      </trkpt>
      <trkpt lat="46.34872" lon="-1.35908">
        <ele>51.570623</ele>
        <time>2022-12-19T11:57:02.315Z</time>
      </trkpt>
      <trkpt lat="46.34868" lon="-1.35894">
        <ele>51.495186</ele>
        <time>2022-12-19T11:57:04.315Z</time>
      </trkpt>
      <trkpt lat="46.34864" lon="-1.35874">
        <ele>51.389712</ele>
        <time>2022-12-19T11:57:07.316Z</time>
      </trkpt>
      <trkpt lat="46.34861" lon="-1.35857">
        <ele>51.301363</ele>
        <time>2022-12-19T11:57:10.333Z</time>
      </trkpt>
      <trkpt lat="46.34859" lon="-1.35845">
        <ele>51.234815</ele>
        <time>2022-12-19T11:57:12.331Z</time>
      </trkpt>
      <trkpt lat="46.34854" lon="-1.35828">
        <ele>51.14322</ele>
        <time>2022-12-19T11:57:15.346Z</time>
      </trkpt>
      <trkpt lat="46.34849" lon="-1.35811">
        <ele>51.046758</ele>
        <time>2022-12-19T11:57:18.333Z</time>
      </trkpt>
      <trkpt lat="46.34845" lon="-1.35797">
        <ele>50.973399</ele>
        <time>2022-12-19T11:57:20.330Z</time>
      </trkpt>
      <trkpt lat="46.34841" lon="-1.35785">
        <ele>50.902746</ele>
        <time>2022-12-19T11:57:22.316Z</time>
      </trkpt>
      <trkpt lat="46.34837" lon="-1.35768">
        <ele>50.810936</ele>
        <time>2022-12-19T11:57:25.331Z</time>
      </trkpt>
      <trkpt lat="46.34832" lon="-1.35751">
        <ele>50.718233</ele>
        <time>2022-12-19T11:57:28.331Z</time>
      </trkpt>
      <trkpt lat="46.34828" lon="-1.35738">
        <ele>50.664216</ele>
        <time>2022-12-19T11:57:31.337Z</time>
      </trkpt>
      <trkpt lat="46.34823" lon="-1.35721">
        <ele>50.664216</ele>
        <time>2022-12-19T11:57:34.332Z</time>
      </trkpt>
      <trkpt lat="46.34819" lon="-1.35703">
        <ele>50.664216</ele>
        <time>2022-12-19T11:57:37.333Z</time>
      </trkpt>
      <trkpt lat="46.34814" lon="-1.35686">
        <ele>50.664216</ele>
        <time>2022-12-19T11:57:40.331Z</time>
      </trkpt>
      <trkpt lat="46.3481" lon="-1.35669">
        <ele>50.664216</ele>
        <time>2022-12-19T11:57:43.333Z</time>
      </trkpt>
      <trkpt lat="46.34806" lon="-1.35654">
        <ele>50.664216</ele>
        <time>2022-12-19T11:57:46.324Z</time>
      </trkpt>
      <trkpt lat="46.34802" lon="-1.35638">
        <ele>50.664216</ele>
        <time>2022-12-19T11:57:49.341Z</time>
      </trkpt>
      <trkpt lat="46.34798" lon="-1.35624">
        <ele>50.664216</ele>
        <time>2022-12-19T11:57:52.342Z</time>
      </trkpt>
      <trkpt lat="46.34795" lon="-1.35611">
        <ele>50.664216</ele>
        <time>2022-12-19T11:57:55.334Z</time>
      </trkpt>
      <trkpt lat="46.34789" lon="-1.35598">
        <ele>50.664216</ele>
        <time>2022-12-19T11:57:59.343Z</time>
      </trkpt>
      <trkpt lat="46.34788" lon="-1.35593">
        <ele>50.664216</ele>
        <time>2022-12-19T11:58:39.170Z</time>
      </trkpt>
      <trkpt lat="46.34788" lon="-1.35594">
        <ele>48.210512</ele>
        <time>2022-12-19T12:00:04.380Z</time>
      </trkpt>
      <trkpt lat="46.34785" lon="-1.35574">
        <ele>48.210512</ele>
        <time>2022-12-19T12:00:16.319Z</time>
      </trkpt>
      <trkpt lat="46.3478" lon="-1.35558">
        <ele>48.210512</ele>
        <time>2022-12-19T12:00:20.334Z</time>
      </trkpt>
      <trkpt lat="46.34776" lon="-1.35544">
        <ele>48.210512</ele>
        <time>2022-12-19T12:00:23.338Z</time>
      </trkpt>
      <trkpt lat="46.34772" lon="-1.35529">
        <ele>48.210512</ele>
        <time>2022-12-19T12:00:26.337Z</time>
      </trkpt>
      <trkpt lat="46.34768" lon="-1.35513">
        <ele>48.210512</ele>
        <time>2022-12-19T12:00:29.312Z</time>
      </trkpt>
      <trkpt lat="46.34763" lon="-1.35497">
        <ele>48.210512</ele>
        <time>2022-12-19T12:00:32.339Z</time>
      </trkpt>
      <trkpt lat="46.34759" lon="-1.35481">
        <ele>48.210512</ele>
        <time>2022-12-19T12:00:35.337Z</time>
      </trkpt>
      <trkpt lat="46.34755" lon="-1.35466">
        <ele>48.201448</ele>
        <time>2022-12-19T12:00:38.331Z</time>
      </trkpt>
      <trkpt lat="46.34751" lon="-1.35452">
        <ele>48.181213</ele>
        <time>2022-12-19T12:00:41.335Z</time>
      </trkpt>
      <trkpt lat="46.34747" lon="-1.35437">
        <ele>48.160474</ele>
        <time>2022-12-19T12:00:44.322Z</time>
      </trkpt>
      <trkpt lat="46.34742" lon="-1.35422">
        <ele>48.138403</ele>
        <time>2022-12-19T12:00:47.317Z</time>
      </trkpt>
      <trkpt lat="46.34738" lon="-1.35407">
        <ele>48.11761</ele>
        <time>2022-12-19T12:00:50.330Z</time>
      </trkpt>
      <trkpt lat="46.34735" lon="-1.35392">
        <ele>48.09751</ele>
        <time>2022-12-19T12:00:53.326Z</time>
      </trkpt>
      <trkpt lat="46.34731" lon="-1.35378">
        <ele>48.077655</ele>
        <time>2022-12-19T12:00:56.342Z</time>
      </trkpt>
      <trkpt lat="46.34728" lon="-1.35364">
        <ele>48.057741</ele>
        <time>2022-12-19T12:00:59.335Z</time>
      </trkpt>
      <trkpt lat="46.34724" lon="-1.35348">
        <ele>48.036275</ele>
        <time>2022-12-19T12:01:02.331Z</time>
      </trkpt>
      <trkpt lat="46.3472" lon="-1.35332">
        <ele>48.012946</ele>
        <time>2022-12-19T12:01:05.331Z</time>
      </trkpt>
      <trkpt lat="46.34715" lon="-1.35315">
        <ele>47.988716</ele>
        <time>2022-12-19T12:01:08.345Z</time>
      </trkpt>
      <trkpt lat="46.3471" lon="-1.35302">
        <ele>47.969827</ele>
        <time>2022-12-19T12:01:10.340Z</time>
      </trkpt>
      <trkpt lat="46.34707" lon="-1.3529">
        <ele>47.952436</ele>
        <time>2022-12-19T12:01:12.333Z</time>
      </trkpt>
      <trkpt lat="46.34703" lon="-1.35278">
        <ele>47.935264</ele>
        <time>2022-12-19T12:01:14.328Z</time>
      </trkpt>
      <trkpt lat="46.34698" lon="-1.35266">
        <ele>47.916877</ele>
        <time>2022-12-19T12:01:16.332Z</time>
      </trkpt>
      <trkpt lat="46.34693" lon="-1.35253">
        <ele>47.897398</ele>
        <time>2022-12-19T12:01:18.330Z</time>
      </trkpt>
      <trkpt lat="46.34688" lon="-1.35242">
        <ele>47.879357</ele>
        <time>2022-12-19T12:01:20.329Z</time>
      </trkpt>
      <trkpt lat="46.34682" lon="-1.35229">
        <ele>47.873305</ele>
        <time>2022-12-19T12:01:22.343Z</time>
      </trkpt>
      <trkpt lat="46.34676" lon="-1.35218">
        <ele>47.884797</ele>
        <time>2022-12-19T12:01:24.342Z</time>
      </trkpt>
      <trkpt lat="46.34671" lon="-1.35206">
        <ele>47.896158</ele>
        <time>2022-12-19T12:01:26.334Z</time>
      </trkpt>
      <trkpt lat="46.34662" lon="-1.3519">
        <ele>47.91145</ele>
        <time>2022-12-19T12:01:29.325Z</time>
      </trkpt>
      <trkpt lat="46.34656" lon="-1.35179">
        <ele>47.922492</ele>
        <time>2022-12-19T12:01:31.332Z</time>
      </trkpt>
      <trkpt lat="46.34647" lon="-1.35164">
        <ele>47.93845</ele>
        <time>2022-12-19T12:01:34.334Z</time>
      </trkpt>
      <trkpt lat="46.34641" lon="-1.35152">
        <ele>47.949939</ele>
        <time>2022-12-19T12:01:36.330Z</time>
      </trkpt>
      <trkpt lat="46.34635" lon="-1.35138">
        <ele>47.962778</ele>
        <time>2022-12-19T12:01:38.320Z</time>
      </trkpt>
      <trkpt lat="46.34629" lon="-1.35127">
        <ele>47.973827</ele>
        <time>2022-12-19T12:01:40.324Z</time>
      </trkpt>
      <trkpt lat="46.34623" lon="-1.35116">
        <ele>47.984418</ele>
        <time>2022-12-19T12:01:42.333Z</time>
      </trkpt>
      <trkpt lat="46.34617" lon="-1.35104">
        <ele>47.996243</ele>
        <time>2022-12-19T12:01:44.330Z</time>
      </trkpt>
      <trkpt lat="46.3461" lon="-1.35094">
        <ele>48.007376</ele>
        <time>2022-12-19T12:01:46.335Z</time>
      </trkpt>
      <trkpt lat="46.34603" lon="-1.35083">
        <ele>48.018817</ele>
        <time>2022-12-19T12:01:48.328Z</time>
      </trkpt>
      <trkpt lat="46.34597" lon="-1.35071">
        <ele>48.030085</ele>
        <time>2022-12-19T12:01:50.338Z</time>
      </trkpt>
      <trkpt lat="46.34591" lon="-1.3506">
        <ele>48.04165</ele>
        <time>2022-12-19T12:01:52.330Z</time>
      </trkpt>
      <trkpt lat="46.34585" lon="-1.35048">
        <ele>48.05269</ele>
        <time>2022-12-19T12:01:54.338Z</time>
      </trkpt>
      <trkpt lat="46.3458" lon="-1.35037">
        <ele>48.063025</ele>
        <time>2022-12-19T12:01:56.325Z</time>
      </trkpt>
      <trkpt lat="46.34574" lon="-1.35025">
        <ele>48.052292</ele>
        <time>2022-12-19T12:01:58.330Z</time>
      </trkpt>
      <trkpt lat="46.34569" lon="-1.35014">
        <ele>47.979858</ele>
        <time>2022-12-19T12:02:00.329Z</time>
      </trkpt>
      <trkpt lat="46.34562" lon="-1.35004">
        <ele>47.905753</ele>
        <time>2022-12-19T12:02:02.335Z</time>
      </trkpt>
      <trkpt lat="46.34556" lon="-1.34994">
        <ele>47.832461</ele>
        <time>2022-12-19T12:02:04.337Z</time>
      </trkpt>
      <trkpt lat="46.3455" lon="-1.34983">
        <ele>47.757833</ele>
        <time>2022-12-19T12:02:06.314Z</time>
      </trkpt>
      <trkpt lat="46.34542" lon="-1.34968">
        <ele>47.653354</ele>
        <time>2022-12-19T12:02:09.331Z</time>
      </trkpt>
      <trkpt lat="46.34535" lon="-1.34953">
        <ele>47.554276</ele>
        <time>2022-12-19T12:02:12.323Z</time>
      </trkpt>
      <trkpt lat="46.34527" lon="-1.34938">
        <ele>47.452705</ele>
        <time>2022-12-19T12:02:15.334Z</time>
      </trkpt>
      <trkpt lat="46.34521" lon="-1.34926">
        <ele>47.369991</ele>
        <time>2022-12-19T12:02:17.344Z</time>
      </trkpt>
      <trkpt lat="46.34511" lon="-1.3491">
        <ele>47.257073</ele>
        <time>2022-12-19T12:02:20.345Z</time>
      </trkpt>
      <trkpt lat="46.34506" lon="-1.34899">
        <ele>47.183782</ele>
        <time>2022-12-19T12:02:22.330Z</time>
      </trkpt>
      <trkpt lat="46.345" lon="-1.34888">
        <ele>47.109234</ele>
        <time>2022-12-19T12:02:24.335Z</time>
      </trkpt>
      <trkpt lat="46.34492" lon="-1.34873">
        <ele>47.00541</ele>
        <time>2022-12-19T12:02:27.331Z</time>
      </trkpt>
      <trkpt lat="46.34486" lon="-1.34863">
        <ele>46.934076</ele>
        <time>2022-12-19T12:02:29.322Z</time>
      </trkpt>
      <trkpt lat="46.3448" lon="-1.34853">
        <ele>46.861818</ele>
        <time>2022-12-19T12:02:31.323Z</time>
      </trkpt>
      <trkpt lat="46.34472" lon="-1.34839">
        <ele>46.76151</ele>
        <time>2022-12-19T12:02:34.318Z</time>
      </trkpt>
      <trkpt lat="46.34464" lon="-1.34823">
        <ele>46.655899</ele>
        <time>2022-12-19T12:02:37.334Z</time>
      </trkpt>
      <trkpt lat="46.34458" lon="-1.34812">
        <ele>46.597559</ele>
        <time>2022-12-19T12:02:39.327Z</time>
      </trkpt>
      <trkpt lat="46.34451" lon="-1.34798">
        <ele>46.524333</ele>
        <time>2022-12-19T12:02:42.344Z</time>
      </trkpt>
      <trkpt lat="46.34445" lon="-1.34783">
        <ele>46.448637</ele>
        <time>2022-12-19T12:02:45.332Z</time>
      </trkpt>
      <trkpt lat="46.34438" lon="-1.34768">
        <ele>46.369401</ele>
        <time>2022-12-19T12:02:48.335Z</time>
      </trkpt>
      <trkpt lat="46.34431" lon="-1.34753">
        <ele>46.290554</ele>
        <time>2022-12-19T12:02:51.323Z</time>
      </trkpt>
      <trkpt lat="46.34424" lon="-1.34736">
        <ele>46.209052</ele>
        <time>2022-12-19T12:02:54.314Z</time>
      </trkpt>
      <trkpt lat="46.34418" lon="-1.34719">
        <ele>46.126258</ele>
        <time>2022-12-19T12:02:57.318Z</time>
      </trkpt>
      <trkpt lat="46.34414" lon="-1.34707">
        <ele>46.06901</ele>
        <time>2022-12-19T12:02:59.332Z</time>
      </trkpt>
      <trkpt lat="46.34411" lon="-1.34694">
        <ele>46.010488</ele>
        <time>2022-12-19T12:03:01.331Z</time>
      </trkpt>
      <trkpt lat="46.34408" lon="-1.34681">
        <ele>45.949557</ele>
        <time>2022-12-19T12:03:03.332Z</time>
      </trkpt>
      <trkpt lat="46.34404" lon="-1.34668">
        <ele>45.889778</ele>
        <time>2022-12-19T12:03:05.325Z</time>
      </trkpt>
      <trkpt lat="46.344" lon="-1.34655">
        <ele>45.828003</ele>
        <time>2022-12-19T12:03:07.330Z</time>
      </trkpt>
      <trkpt lat="46.34398" lon="-1.34642">
        <ele>45.768676</ele>
        <time>2022-12-19T12:03:09.341Z</time>
      </trkpt>
      <trkpt lat="46.34395" lon="-1.34629">
        <ele>45.711765</ele>
        <time>2022-12-19T12:03:11.328Z</time>
      </trkpt>
      <trkpt lat="46.34392" lon="-1.34616">
        <ele>45.654703</ele>
        <time>2022-12-19T12:03:13.336Z</time>
      </trkpt>
      <trkpt lat="46.34389" lon="-1.34599">
        <ele>45.575841</ele>
        <time>2022-12-19T12:03:16.336Z</time>
      </trkpt>
      <trkpt lat="46.34386" lon="-1.34581">
        <ele>45.549148</ele>
        <time>2022-12-19T12:03:19.337Z</time>
      </trkpt>
      <trkpt lat="46.34382" lon="-1.34564">
        <ele>45.566997</ele>
        <time>2022-12-19T12:03:22.342Z</time>
      </trkpt>
      <trkpt lat="46.34378" lon="-1.34547">
        <ele>45.585888</ele>
        <time>2022-12-19T12:03:25.332Z</time>
      </trkpt>
      <trkpt lat="46.34374" lon="-1.34529">
        <ele>45.604927</ele>
        <time>2022-12-19T12:03:28.319Z</time>
      </trkpt>
      <trkpt lat="46.3437" lon="-1.3451">
        <ele>45.624746</ele>
        <time>2022-12-19T12:03:31.313Z</time>
      </trkpt>
      <trkpt lat="46.34367" lon="-1.34498">
        <ele>45.638383</ele>
        <time>2022-12-19T12:03:33.321Z</time>
      </trkpt>
      <trkpt lat="46.34364" lon="-1.34485">
        <ele>45.652409</ele>
        <time>2022-12-19T12:03:35.331Z</time>
      </trkpt>
      <trkpt lat="46.34361" lon="-1.34472">
        <ele>45.666288</ele>
        <time>2022-12-19T12:03:37.340Z</time>
      </trkpt>
      <trkpt lat="46.34358" lon="-1.34459">
        <ele>45.679783</ele>
        <time>2022-12-19T12:03:39.343Z</time>
      </trkpt>
      <trkpt lat="46.34355" lon="-1.34442">
        <ele>45.698486</ele>
        <time>2022-12-19T12:03:42.342Z</time>
      </trkpt>
      <trkpt lat="46.3435" lon="-1.34425">
        <ele>45.71659</ele>
        <time>2022-12-19T12:03:45.329Z</time>
      </trkpt>
      <trkpt lat="46.34345" lon="-1.34409">
        <ele>45.735267</ele>
        <time>2022-12-19T12:03:48.340Z</time>
      </trkpt>
      <trkpt lat="46.34339" lon="-1.34392">
        <ele>45.754692</ele>
        <time>2022-12-19T12:03:51.324Z</time>
      </trkpt>
      <trkpt lat="46.34332" lon="-1.34376">
        <ele>45.773597</ele>
        <time>2022-12-19T12:03:54.342Z</time>
      </trkpt>
      <trkpt lat="46.34326" lon="-1.34363">
        <ele>45.789037</ele>
        <time>2022-12-19T12:03:57.331Z</time>
      </trkpt>
      <trkpt lat="46.3432" lon="-1.34352">
        <ele>45.804176</ele>
        <time>2022-12-19T12:04:00.327Z</time>
      </trkpt>
      <trkpt lat="46.34314" lon="-1.34341">
        <ele>45.904021</ele>
        <time>2022-12-19T12:04:03.337Z</time>
      </trkpt>
      <trkpt lat="46.34307" lon="-1.34328">
        <ele>46.037642</ele>
        <time>2022-12-19T12:04:07.337Z</time>
      </trkpt>
      <trkpt lat="46.343" lon="-1.34318">
        <ele>46.151158</ele>
        <time>2022-12-19T12:04:10.333Z</time>
      </trkpt>
      <trkpt lat="46.34293" lon="-1.34307">
        <ele>46.267263</ele>
        <time>2022-12-19T12:04:13.333Z</time>
      </trkpt>
      <trkpt lat="46.34286" lon="-1.34297">
        <ele>46.377081</ele>
        <time>2022-12-19T12:04:16.330Z</time>
      </trkpt>
      <trkpt lat="46.34279" lon="-1.34288">
        <ele>46.489101</ele>
        <time>2022-12-19T12:04:19.321Z</time>
      </trkpt>
      <trkpt lat="46.34272" lon="-1.34277">
        <ele>46.606112</ele>
        <time>2022-12-19T12:04:22.332Z</time>
      </trkpt>
      <trkpt lat="46.34265" lon="-1.34266">
        <ele>46.725652</ele>
        <time>2022-12-19T12:04:25.331Z</time>
      </trkpt>
      <trkpt lat="46.34258" lon="-1.34253">
        <ele>46.850005</ele>
        <time>2022-12-19T12:04:28.337Z</time>
      </trkpt>
      <trkpt lat="46.34251" lon="-1.34241">
        <ele>46.977636</ele>
        <time>2022-12-19T12:04:31.342Z</time>
      </trkpt>
      <trkpt lat="46.34243" lon="-1.34229">
        <ele>47.106441</ele>
        <time>2022-12-19T12:04:34.340Z</time>
      </trkpt>
      <trkpt lat="46.34236" lon="-1.34216">
        <ele>47.236276</ele>
        <time>2022-12-19T12:04:37.343Z</time>
      </trkpt>
      <trkpt lat="46.34229" lon="-1.34204">
        <ele>47.36002</ele>
        <time>2022-12-19T12:04:40.333Z</time>
      </trkpt>
      <trkpt lat="46.34224" lon="-1.34192">
        <ele>47.475013</ele>
        <time>2022-12-19T12:04:43.342Z</time>
      </trkpt>
      <trkpt lat="46.34218" lon="-1.3418">
        <ele>47.587985</ele>
        <time>2022-12-19T12:04:46.335Z</time>
      </trkpt>
      <trkpt lat="46.3421" lon="-1.34169">
        <ele>47.713874</ele>
        <time>2022-12-19T12:04:49.331Z</time>
      </trkpt>
      <trkpt lat="46.34203" lon="-1.34157">
        <ele>47.840923</ele>
        <time>2022-12-19T12:04:52.316Z</time>
      </trkpt>
      <trkpt lat="46.34196" lon="-1.34144">
        <ele>47.840702</ele>
        <time>2022-12-19T12:04:55.332Z</time>
      </trkpt>
      <trkpt lat="46.34189" lon="-1.34132">
        <ele>47.819278</ele>
        <time>2022-12-19T12:04:58.335Z</time>
      </trkpt>
      <trkpt lat="46.34181" lon="-1.3412">
        <ele>47.797395</ele>
        <time>2022-12-19T12:05:01.343Z</time>
      </trkpt>
      <trkpt lat="46.34174" lon="-1.34108">
        <ele>47.775842</ele>
        <time>2022-12-19T12:05:04.317Z</time>
      </trkpt>
      <trkpt lat="46.34167" lon="-1.34096">
        <ele>47.75479</ele>
        <time>2022-12-19T12:05:07.313Z</time>
      </trkpt>
      <trkpt lat="46.3416" lon="-1.34084">
        <ele>47.732997</ele>
        <time>2022-12-19T12:05:10.331Z</time>
      </trkpt>
      <trkpt lat="46.34152" lon="-1.34072">
        <ele>47.711084</ele>
        <time>2022-12-19T12:05:13.341Z</time>
      </trkpt>
      <trkpt lat="46.34145" lon="-1.34061">
        <ele>47.691648</ele>
        <time>2022-12-19T12:05:16.330Z</time>
      </trkpt>
      <trkpt lat="46.34139" lon="-1.34051">
        <ele>47.673767</ele>
        <time>2022-12-19T12:05:19.324Z</time>
      </trkpt>
      <trkpt lat="46.34132" lon="-1.3404">
        <ele>47.653938</ele>
        <time>2022-12-19T12:05:22.340Z</time>
      </trkpt>
      <trkpt lat="46.34125" lon="-1.34028">
        <ele>47.632665</ele>
        <time>2022-12-19T12:05:25.343Z</time>
      </trkpt>
      <trkpt lat="46.34118" lon="-1.34016">
        <ele>47.611495</ele>
        <time>2022-12-19T12:05:28.341Z</time>
      </trkpt>
      <trkpt lat="46.34111" lon="-1.34004">
        <ele>47.589558</ele>
        <time>2022-12-19T12:05:31.328Z</time>
      </trkpt>
      <trkpt lat="46.34104" lon="-1.33992">
        <ele>47.567745</ele>
        <time>2022-12-19T12:05:34.335Z</time>
      </trkpt>
      <trkpt lat="46.34096" lon="-1.33981">
        <ele>47.546449</ele>
        <time>2022-12-19T12:05:37.320Z</time>
      </trkpt>
      <trkpt lat="46.34088" lon="-1.33969">
        <ele>47.52397</ele>
        <time>2022-12-19T12:05:40.332Z</time>
      </trkpt>
      <trkpt lat="46.34079" lon="-1.33958">
        <ele>47.457706</ele>
        <time>2022-12-19T12:05:43.330Z</time>
      </trkpt>
      <trkpt lat="46.34072" lon="-1.33947">
        <ele>47.291837</ele>
        <time>2022-12-19T12:05:46.338Z</time>
      </trkpt>
      <trkpt lat="46.34064" lon="-1.33936">
        <ele>47.121325</ele>
        <time>2022-12-19T12:05:50.339Z</time>
      </trkpt>
      <trkpt lat="46.34055" lon="-1.33933">
        <ele>46.975613</ele>
        <time>2022-12-19T12:05:55.321Z</time>
      </trkpt>
      <trkpt lat="46.34048" lon="-1.33926">
        <ele>46.831128</ele>
        <time>2022-12-19T12:05:59.310Z</time>
      </trkpt>
      <trkpt lat="46.34041" lon="-1.33917">
        <ele>46.684238</ele>
        <time>2022-12-19T12:06:02.334Z</time>
      </trkpt>
      <trkpt lat="46.34033" lon="-1.33908">
        <ele>46.523097</ele>
        <time>2022-12-19T12:06:05.315Z</time>
      </trkpt>
      <trkpt lat="46.34025" lon="-1.33897">
        <ele>46.349244</ele>
        <time>2022-12-19T12:06:08.334Z</time>
      </trkpt>
      <trkpt lat="46.34016" lon="-1.33886">
        <ele>46.168236</ele>
        <time>2022-12-19T12:06:11.339Z</time>
      </trkpt>
      <trkpt lat="46.34008" lon="-1.33876">
        <ele>45.989681</ele>
        <time>2022-12-19T12:06:14.329Z</time>
      </trkpt>
      <trkpt lat="46.33999" lon="-1.33866">
        <ele>45.816559</ele>
        <time>2022-12-19T12:06:17.329Z</time>
      </trkpt>
      <trkpt lat="46.3399" lon="-1.33856">
        <ele>45.64143</ele>
        <time>2022-12-19T12:06:20.319Z</time>
      </trkpt>
      <trkpt lat="46.33981" lon="-1.33846">
        <ele>45.459187</ele>
        <time>2022-12-19T12:06:23.318Z</time>
      </trkpt>
      <trkpt lat="46.33972" lon="-1.33834">
        <ele>45.265123</ele>
        <time>2022-12-19T12:06:26.313Z</time>
      </trkpt>
      <trkpt lat="46.33963" lon="-1.33823">
        <ele>45.07588</ele>
        <time>2022-12-19T12:06:29.340Z</time>
      </trkpt>
      <trkpt lat="46.33954" lon="-1.33813">
        <ele>44.90096</ele>
        <time>2022-12-19T12:06:32.336Z</time>
      </trkpt>
      <trkpt lat="46.33945" lon="-1.33802">
        <ele>44.715053</ele>
        <time>2022-12-19T12:06:35.341Z</time>
      </trkpt>
      <trkpt lat="46.33936" lon="-1.3379">
        <ele>44.618105</ele>
        <time>2022-12-19T12:06:38.327Z</time>
      </trkpt>
      <trkpt lat="46.33927" lon="-1.33779">
        <ele>44.557994</ele>
        <time>2022-12-19T12:06:41.327Z</time>
      </trkpt>
      <trkpt lat="46.33917" lon="-1.33767">
        <ele>44.497974</ele>
        <time>2022-12-19T12:06:44.339Z</time>
      </trkpt>
      <trkpt lat="46.33908" lon="-1.33757">
        <ele>44.439748</ele>
        <time>2022-12-19T12:06:47.339Z</time>
      </trkpt>
      <trkpt lat="46.33899" lon="-1.33746">
        <ele>44.38521</ele>
        <time>2022-12-19T12:06:50.333Z</time>
      </trkpt>
      <trkpt lat="46.3389" lon="-1.33735">
        <ele>44.326145</ele>
        <time>2022-12-19T12:06:53.321Z</time>
      </trkpt>
      <trkpt lat="46.3388" lon="-1.33724">
        <ele>44.26594</ele>
        <time>2022-12-19T12:06:56.337Z</time>
      </trkpt>
      <trkpt lat="46.33871" lon="-1.33712">
        <ele>44.204665</ele>
        <time>2022-12-19T12:06:59.317Z</time>
      </trkpt>
      <trkpt lat="46.33861" lon="-1.33702">
        <ele>44.146259</ele>
        <time>2022-12-19T12:07:02.324Z</time>
      </trkpt>
      <trkpt lat="46.33853" lon="-1.33691">
        <ele>44.090944</ele>
        <time>2022-12-19T12:07:05.333Z</time>
      </trkpt>
      <trkpt lat="46.33844" lon="-1.33679">
        <ele>44.03274</ele>
        <time>2022-12-19T12:07:08.332Z</time>
      </trkpt>
      <trkpt lat="46.33834" lon="-1.33668">
        <ele>43.973305</ele>
        <time>2022-12-19T12:07:11.314Z</time>
      </trkpt>
      <trkpt lat="46.33825" lon="-1.33657">
        <ele>43.914634</ele>
        <time>2022-12-19T12:07:14.326Z</time>
      </trkpt>
      <trkpt lat="46.33815" lon="-1.33647">
        <ele>43.855636</ele>
        <time>2022-12-19T12:07:17.320Z</time>
      </trkpt>
      <trkpt lat="46.33807" lon="-1.33636">
        <ele>43.802671</ele>
        <time>2022-12-19T12:07:20.337Z</time>
      </trkpt>
      <trkpt lat="46.338" lon="-1.33627">
        <ele>43.801174</ele>
        <time>2022-12-19T12:07:23.333Z</time>
      </trkpt>
      <trkpt lat="46.33792" lon="-1.33614">
        <ele>43.834766</ele>
        <time>2022-12-19T12:07:27.316Z</time>
      </trkpt>
      <trkpt lat="46.33785" lon="-1.33606">
        <ele>43.860872</ele>
        <time>2022-12-19T12:07:30.342Z</time>
      </trkpt>
      <trkpt lat="46.33778" lon="-1.33597">
        <ele>43.889056</ele>
        <time>2022-12-19T12:07:33.315Z</time>
      </trkpt>
      <trkpt lat="46.3377" lon="-1.33586">
        <ele>43.920093</ele>
        <time>2022-12-19T12:07:36.329Z</time>
      </trkpt>
      <trkpt lat="46.33761" lon="-1.33575">
        <ele>43.952159</ele>
        <time>2022-12-19T12:07:39.328Z</time>
      </trkpt>
      <trkpt lat="46.33753" lon="-1.33564">
        <ele>43.984692</ele>
        <time>2022-12-19T12:07:42.332Z</time>
      </trkpt>
      <trkpt lat="46.33744" lon="-1.33552">
        <ele>44.018664</ele>
        <time>2022-12-19T12:07:45.327Z</time>
      </trkpt>
      <trkpt lat="46.33736" lon="-1.3354">
        <ele>44.052701</ele>
        <time>2022-12-19T12:07:48.331Z</time>
      </trkpt>
      <trkpt lat="46.33727" lon="-1.33527">
        <ele>44.088448</ele>
        <time>2022-12-19T12:07:51.331Z</time>
      </trkpt>
      <trkpt lat="46.33717" lon="-1.33515">
        <ele>44.124879</ele>
        <time>2022-12-19T12:07:54.331Z</time>
      </trkpt>
      <trkpt lat="46.33708" lon="-1.33502">
        <ele>44.160356</ele>
        <time>2022-12-19T12:07:57.347Z</time>
      </trkpt>
      <trkpt lat="46.33699" lon="-1.3349">
        <ele>44.194671</ele>
        <time>2022-12-19T12:08:00.314Z</time>
      </trkpt>
      <trkpt lat="46.33692" lon="-1.3348">
        <ele>44.222973</ele>
        <time>2022-12-19T12:08:03.326Z</time>
      </trkpt>
      <trkpt lat="46.33684" lon="-1.33468">
        <ele>44.256198</ele>
        <time>2022-12-19T12:08:07.341Z</time>
      </trkpt>
      <trkpt lat="46.33676" lon="-1.33455">
        <ele>44.290174</ele>
        <time>2022-12-19T12:08:11.315Z</time>
      </trkpt>
      <trkpt lat="46.33668" lon="-1.33445">
        <ele>44.296529</ele>
        <time>2022-12-19T12:08:14.333Z</time>
      </trkpt>
      <trkpt lat="46.3366" lon="-1.33434">
        <ele>44.295212</ele>
        <time>2022-12-19T12:08:17.329Z</time>
      </trkpt>
      <trkpt lat="46.33651" lon="-1.33422">
        <ele>44.293808</ele>
        <time>2022-12-19T12:08:20.332Z</time>
      </trkpt>
      <trkpt lat="46.33642" lon="-1.33409">
        <ele>44.292393</ele>
        <time>2022-12-19T12:08:23.337Z</time>
      </trkpt>
      <trkpt lat="46.33633" lon="-1.33396">
        <ele>44.290932</ele>
        <time>2022-12-19T12:08:26.338Z</time>
      </trkpt>
      <trkpt lat="46.33624" lon="-1.33385">
        <ele>44.289602</ele>
        <time>2022-12-19T12:08:29.331Z</time>
      </trkpt>
      <trkpt lat="46.33617" lon="-1.33374">
        <ele>44.288449</ele>
        <time>2022-12-19T12:08:32.330Z</time>
      </trkpt>
      <trkpt lat="46.33609" lon="-1.33362">
        <ele>44.28712</ele>
        <time>2022-12-19T12:08:36.336Z</time>
      </trkpt>
      <trkpt lat="46.33603" lon="-1.33351">
        <ele>44.286044</ele>
        <time>2022-12-19T12:08:40.331Z</time>
      </trkpt>
      <trkpt lat="46.33595" lon="-1.33341">
        <ele>44.284788</ele>
        <time>2022-12-19T12:08:45.314Z</time>
      </trkpt>
      <trkpt lat="46.33589" lon="-1.3333">
        <ele>44.283726</ele>
        <time>2022-12-19T12:08:49.314Z</time>
      </trkpt>
      <trkpt lat="46.33591" lon="-1.33314">
        <ele>44.282471</ele>
        <time>2022-12-19T12:08:53.315Z</time>
      </trkpt>
      <trkpt lat="46.33593" lon="-1.33299">
        <ele>44.281256</ele>
        <time>2022-12-19T12:08:56.323Z</time>
      </trkpt>
      <trkpt lat="46.33595" lon="-1.33283">
        <ele>44.279971</ele>
        <time>2022-12-19T12:08:59.340Z</time>
      </trkpt>
      <trkpt lat="46.33596" lon="-1.33267">
        <ele>44.278708</ele>
        <time>2022-12-19T12:09:02.347Z</time>
      </trkpt>
      <trkpt lat="46.33598" lon="-1.3325">
        <ele>44.277385</ele>
        <time>2022-12-19T12:09:05.340Z</time>
      </trkpt>
      <trkpt lat="46.336" lon="-1.33233">
        <ele>44.23644</ele>
        <time>2022-12-19T12:09:08.333Z</time>
      </trkpt>
      <trkpt lat="46.33603" lon="-1.33214">
        <ele>44.175503</ele>
        <time>2022-12-19T12:09:11.336Z</time>
      </trkpt>
      <trkpt lat="46.33605" lon="-1.33202">
        <ele>44.133126</ele>
        <time>2022-12-19T12:09:13.338Z</time>
      </trkpt>
      <trkpt lat="46.33607" lon="-1.33183">
        <ele>44.072919</ele>
        <time>2022-12-19T12:09:16.324Z</time>
      </trkpt>
      <trkpt lat="46.3361" lon="-1.33166">
        <ele>44.015979</ele>
        <time>2022-12-19T12:09:19.333Z</time>
      </trkpt>
      <trkpt lat="46.33613" lon="-1.33149">
        <ele>43.957364</ele>
        <time>2022-12-19T12:09:22.341Z</time>
      </trkpt>
      <trkpt lat="46.33616" lon="-1.3313">
        <ele>43.89675</ele>
        <time>2022-12-19T12:09:25.320Z</time>
      </trkpt>
      <trkpt lat="46.33617" lon="-1.33118">
        <ele>43.854751</ele>
        <time>2022-12-19T12:09:27.318Z</time>
      </trkpt>
      <trkpt lat="46.3362" lon="-1.33099">
        <ele>43.792322</ele>
        <time>2022-12-19T12:09:30.327Z</time>
      </trkpt>
      <trkpt lat="46.33623" lon="-1.33082">
        <ele>43.736736</ele>
        <time>2022-12-19T12:09:33.338Z</time>
      </trkpt>
      <trkpt lat="46.33625" lon="-1.33067">
        <ele>43.684962</ele>
        <time>2022-12-19T12:09:36.316Z</time>
      </trkpt>
      <trkpt lat="46.33627" lon="-1.3305">
        <ele>43.630208</ele>
        <time>2022-12-19T12:09:39.325Z</time>
      </trkpt>
      <trkpt lat="46.33627" lon="-1.33032">
        <ele>43.571234</ele>
        <time>2022-12-19T12:09:42.318Z</time>
      </trkpt>
      <trkpt lat="46.33627" lon="-1.33013">
        <ele>43.511156</ele>
        <time>2022-12-19T12:09:45.329Z</time>
      </trkpt>
      <trkpt lat="46.33624" lon="-1.32995">
        <ele>43.450982</ele>
        <time>2022-12-19T12:09:48.315Z</time>
      </trkpt>
      <trkpt lat="46.33621" lon="-1.32978">
        <ele>43.427646</ele>
        <time>2022-12-19T12:09:51.318Z</time>
      </trkpt>
      <trkpt lat="46.33616" lon="-1.32963">
        <ele>43.419841</ele>
        <time>2022-12-19T12:09:54.334Z</time>
      </trkpt>
      <trkpt lat="46.3361" lon="-1.32949">
        <ele>43.412058</ele>
        <time>2022-12-19T12:09:57.316Z</time>
      </trkpt>
      <trkpt lat="46.33603" lon="-1.32934">
        <ele>43.403878</ele>
        <time>2022-12-19T12:10:00.340Z</time>
      </trkpt>
      <trkpt lat="46.33597" lon="-1.32919">
        <ele>43.395505</ele>
        <time>2022-12-19T12:10:03.340Z</time>
      </trkpt>
      <trkpt lat="46.3359" lon="-1.32903">
        <ele>43.386889</ele>
        <time>2022-12-19T12:10:06.338Z</time>
      </trkpt>
      <trkpt lat="46.33583" lon="-1.32887">
        <ele>43.378135</ele>
        <time>2022-12-19T12:10:09.331Z</time>
      </trkpt>
      <trkpt lat="46.33575" lon="-1.32871">
        <ele>43.369189</ele>
        <time>2022-12-19T12:10:12.336Z</time>
      </trkpt>
      <trkpt lat="46.33568" lon="-1.32856">
        <ele>43.360396</ele>
        <time>2022-12-19T12:10:15.343Z</time>
      </trkpt>
      <trkpt lat="46.33561" lon="-1.32841">
        <ele>43.351872</ele>
        <time>2022-12-19T12:10:18.327Z</time>
      </trkpt>
      <trkpt lat="46.33554" lon="-1.32826">
        <ele>43.34384</ele>
        <time>2022-12-19T12:10:21.331Z</time>
      </trkpt>
      <trkpt lat="46.33548" lon="-1.32811">
        <ele>43.335542</ele>
        <time>2022-12-19T12:10:24.343Z</time>
      </trkpt>
      <trkpt lat="46.33543" lon="-1.328">
        <ele>43.329465</ele>
        <time>2022-12-19T12:10:26.327Z</time>
      </trkpt>
      <trkpt lat="46.33536" lon="-1.32785">
        <ele>43.32113</ele>
        <time>2022-12-19T12:10:29.318Z</time>
      </trkpt>
      <trkpt lat="46.3353" lon="-1.32772">
        <ele>43.313561</ele>
        <time>2022-12-19T12:10:32.333Z</time>
      </trkpt>
      <trkpt lat="46.33524" lon="-1.32758">
        <ele>43.271937</ele>
        <time>2022-12-19T12:10:35.329Z</time>
      </trkpt>
      <trkpt lat="46.33517" lon="-1.32744">
        <ele>43.221111</ele>
        <time>2022-12-19T12:10:38.334Z</time>
      </trkpt>
      <trkpt lat="46.33511" lon="-1.3273">
        <ele>43.170042</ele>
        <time>2022-12-19T12:10:41.321Z</time>
      </trkpt>
      <trkpt lat="46.33504" lon="-1.32716">
        <ele>43.118228</ele>
        <time>2022-12-19T12:10:44.339Z</time>
      </trkpt>
      <trkpt lat="46.33498" lon="-1.32702">
        <ele>43.065653</ele>
        <time>2022-12-19T12:10:47.335Z</time>
      </trkpt>
      <trkpt lat="46.33492" lon="-1.32688">
        <ele>43.014327</ele>
        <time>2022-12-19T12:10:50.341Z</time>
      </trkpt>
      <trkpt lat="46.33485" lon="-1.32673">
        <ele>42.961651</ele>
        <time>2022-12-19T12:10:53.335Z</time>
      </trkpt>
      <trkpt lat="46.33478" lon="-1.32658">
        <ele>42.905792</ele>
        <time>2022-12-19T12:10:56.331Z</time>
      </trkpt>
      <trkpt lat="46.33471" lon="-1.32643">
        <ele>42.848148</ele>
        <time>2022-12-19T12:10:59.333Z</time>
      </trkpt>
      <trkpt lat="46.33464" lon="-1.32627">
        <ele>42.791246</ele>
        <time>2022-12-19T12:11:02.331Z</time>
      </trkpt>
      <trkpt lat="46.33457" lon="-1.32612">
        <ele>42.735134</ele>
        <time>2022-12-19T12:11:05.328Z</time>
      </trkpt>
      <trkpt lat="46.3345" lon="-1.32596">
        <ele>42.676459</ele>
        <time>2022-12-19T12:11:08.346Z</time>
      </trkpt>
      <trkpt lat="46.33443" lon="-1.3258">
        <ele>42.618281</ele>
        <time>2022-12-19T12:11:11.331Z</time>
      </trkpt>
      <trkpt lat="46.33437" lon="-1.32565">
        <ele>42.565661</ele>
        <time>2022-12-19T12:11:14.311Z</time>
      </trkpt>
      <trkpt lat="46.33431" lon="-1.32552">
        <ele>42.516364</ele>
        <time>2022-12-19T12:11:17.326Z</time>
      </trkpt>
      <trkpt lat="46.33424" lon="-1.32538">
        <ele>42.561926</ele>
        <time>2022-12-19T12:11:20.338Z</time>
      </trkpt>
      <trkpt lat="46.33417" lon="-1.32522">
        <ele>42.620229</ele>
        <time>2022-12-19T12:11:23.339Z</time>
      </trkpt>
      <trkpt lat="46.3341" lon="-1.32506">
        <ele>42.677493</ele>
        <time>2022-12-19T12:11:26.341Z</time>
      </trkpt>
      <trkpt lat="46.33403" lon="-1.32491">
        <ele>42.734012</ele>
        <time>2022-12-19T12:11:29.330Z</time>
      </trkpt>
      <trkpt lat="46.33396" lon="-1.32475">
        <ele>42.79178</ele>
        <time>2022-12-19T12:11:32.335Z</time>
      </trkpt>
      <trkpt lat="46.33389" lon="-1.32459">
        <ele>42.849321</ele>
        <time>2022-12-19T12:11:35.310Z</time>
      </trkpt>
      <trkpt lat="46.33382" lon="-1.32444">
        <ele>42.905579</ele>
        <time>2022-12-19T12:11:38.332Z</time>
      </trkpt>
      <trkpt lat="46.33375" lon="-1.3243">
        <ele>42.957486</ele>
        <time>2022-12-19T12:11:41.339Z</time>
      </trkpt>
      <trkpt lat="46.33369" lon="-1.32418">
        <ele>43.005105</ele>
        <time>2022-12-19T12:11:44.315Z</time>
      </trkpt>
      <trkpt lat="46.33365" lon="-1.32406">
        <ele>43.046297</ele>
        <time>2022-12-19T12:11:47.335Z</time>
      </trkpt>
      <trkpt lat="46.3336" lon="-1.32395">
        <ele>43.087976</ele>
        <time>2022-12-19T12:11:50.328Z</time>
      </trkpt>
      <trkpt lat="46.33355" lon="-1.32383">
        <ele>43.132004</ele>
        <time>2022-12-19T12:11:53.346Z</time>
      </trkpt>
      <trkpt lat="46.3335" lon="-1.3237">
        <ele>43.176596</ele>
        <time>2022-12-19T12:11:56.314Z</time>
      </trkpt>
      <trkpt lat="46.33344" lon="-1.32359">
        <ele>43.221906</ele>
        <time>2022-12-19T12:11:59.317Z</time>
      </trkpt>
      <trkpt lat="46.33338" lon="-1.32345">
        <ele>43.270334</ele>
        <time>2022-12-19T12:12:02.333Z</time>
      </trkpt>
      <trkpt lat="46.33331" lon="-1.32331">
        <ele>43.320207</ele>
        <time>2022-12-19T12:12:05.315Z</time>
      </trkpt>
      <trkpt lat="46.33324" lon="-1.32316">
        <ele>43.352727</ele>
        <time>2022-12-19T12:12:08.329Z</time>
      </trkpt>
      <trkpt lat="46.33318" lon="-1.32302">
        <ele>43.383912</ele>
        <time>2022-12-19T12:12:11.361Z</time>
      </trkpt>
      <trkpt lat="46.33311" lon="-1.32288">
        <ele>43.414206</ele>
        <time>2022-12-19T12:12:14.341Z</time>
      </trkpt>
      <trkpt lat="46.33305" lon="-1.32274">
        <ele>43.444201</ele>
        <time>2022-12-19T12:12:17.321Z</time>
      </trkpt>
      <trkpt lat="46.33299" lon="-1.3226">
        <ele>43.473993</ele>
        <time>2022-12-19T12:12:20.342Z</time>
      </trkpt>
      <trkpt lat="46.33295" lon="-1.32246">
        <ele>43.501272</ele>
        <time>2022-12-19T12:12:23.319Z</time>
      </trkpt>
      <trkpt lat="46.3329" lon="-1.32231">
        <ele>43.530843</ele>
        <time>2022-12-19T12:12:27.316Z</time>
      </trkpt>
      <trkpt lat="46.33285" lon="-1.32217">
        <ele>43.55988</ele>
        <time>2022-12-19T12:12:31.306Z</time>
      </trkpt>
      <trkpt lat="46.33277" lon="-1.32205">
        <ele>43.589931</ele>
        <time>2022-12-19T12:12:35.317Z</time>
      </trkpt>
      <trkpt lat="46.33273" lon="-1.3219">
        <ele>43.619711</ele>
        <time>2022-12-19T12:12:39.321Z</time>
      </trkpt>
      <trkpt lat="46.33277" lon="-1.32174">
        <ele>43.65024</ele>
        <time>2022-12-19T12:12:43.312Z</time>
      </trkpt>
      <trkpt lat="46.33281" lon="-1.32161">
        <ele>43.674998</ele>
        <time>2022-12-19T12:12:46.311Z</time>
      </trkpt>
      <trkpt lat="46.33285" lon="-1.32148">
        <ele>43.701773</ele>
        <time>2022-12-19T12:12:49.314Z</time>
      </trkpt>
      <trkpt lat="46.33289" lon="-1.32133">
        <ele>43.730114</ele>
        <time>2022-12-19T12:12:52.325Z</time>
      </trkpt>
      <trkpt lat="46.33293" lon="-1.32118">
        <ele>43.759486</ele>
        <time>2022-12-19T12:12:55.318Z</time>
      </trkpt>
      <trkpt lat="46.33298" lon="-1.32102">
        <ele>43.792348</ele>
        <time>2022-12-19T12:12:58.317Z</time>
      </trkpt>
      <trkpt lat="46.33304" lon="-1.32087">
        <ele>43.843585</ele>
        <time>2022-12-19T12:13:01.343Z</time>
      </trkpt>
      <trkpt lat="46.33309" lon="-1.32071">
        <ele>43.892888</ele>
        <time>2022-12-19T12:13:04.342Z</time>
      </trkpt>
      <trkpt lat="46.33313" lon="-1.32058">
        <ele>43.936391</ele>
        <time>2022-12-19T12:13:07.323Z</time>
      </trkpt>
      <trkpt lat="46.33317" lon="-1.32046">
        <ele>43.974794</ele>
        <time>2022-12-19T12:13:10.311Z</time>
      </trkpt>
      <trkpt lat="46.33321" lon="-1.32033">
        <ele>44.015321</ele>
        <time>2022-12-19T12:13:14.317Z</time>
      </trkpt>
      <trkpt lat="46.33326" lon="-1.32021">
        <ele>44.05507</ele>
        <time>2022-12-19T12:13:18.324Z</time>
      </trkpt>
      <trkpt lat="46.33329" lon="-1.32005">
        <ele>44.102937</ele>
        <time>2022-12-19T12:13:22.320Z</time>
      </trkpt>
      <trkpt lat="46.33333" lon="-1.31989">
        <ele>44.15261</ele>
        <time>2022-12-19T12:13:26.330Z</time>
      </trkpt>
      <trkpt lat="46.33335" lon="-1.31974">
        <ele>44.198209</ele>
        <time>2022-12-19T12:13:30.312Z</time>
      </trkpt>
      <trkpt lat="46.33331" lon="-1.3196">
        <ele>44.24171</ele>
        <time>2022-12-19T12:13:34.311Z</time>
      </trkpt>
      <trkpt lat="46.3333" lon="-1.31945">
        <ele>44.285982</ele>
        <time>2022-12-19T12:13:38.312Z</time>
      </trkpt>
      <trkpt lat="46.33337" lon="-1.31931">
        <ele>44.333512</ele>
        <time>2022-12-19T12:13:42.318Z</time>
      </trkpt>
      <trkpt lat="46.33346" lon="-1.31929">
        <ele>44.37244</ele>
        <time>2022-12-19T12:13:45.313Z</time>
      </trkpt>
      <trkpt lat="46.33356" lon="-1.31926">
        <ele>44.417537</ele>
        <time>2022-12-19T12:13:48.318Z</time>
      </trkpt>
      <trkpt lat="46.33366" lon="-1.31917">
        <ele>44.464266</ele>
        <time>2022-12-19T12:13:51.314Z</time>
      </trkpt>
      <trkpt lat="46.33374" lon="-1.31905">
        <ele>44.512758</ele>
        <time>2022-12-19T12:13:54.315Z</time>
      </trkpt>
      <trkpt lat="46.3338" lon="-1.31892">
        <ele>44.584394</ele>
        <time>2022-12-19T12:13:57.314Z</time>
      </trkpt>
      <trkpt lat="46.33387" lon="-1.31878">
        <ele>44.707451</ele>
        <time>2022-12-19T12:14:00.320Z</time>
      </trkpt>
      <trkpt lat="46.33393" lon="-1.31864">
        <ele>44.831773</ele>
        <time>2022-12-19T12:14:03.317Z</time>
      </trkpt>
      <trkpt lat="46.334" lon="-1.3185">
        <ele>44.96035</ele>
        <time>2022-12-19T12:14:06.332Z</time>
      </trkpt>
      <trkpt lat="46.33407" lon="-1.31835">
        <ele>45.086439</ele>
        <time>2022-12-19T12:14:09.334Z</time>
      </trkpt>
      <trkpt lat="46.33414" lon="-1.31821">
        <ele>45.211291</ele>
        <time>2022-12-19T12:14:12.321Z</time>
      </trkpt>
      <trkpt lat="46.33421" lon="-1.31808">
        <ele>45.335572</ele>
        <time>2022-12-19T12:14:15.314Z</time>
      </trkpt>
      <trkpt lat="46.33426" lon="-1.31794">
        <ele>45.45649</ele>
        <time>2022-12-19T12:14:18.343Z</time>
      </trkpt>
      <trkpt lat="46.33433" lon="-1.31779">
        <ele>45.583162</ele>
        <time>2022-12-19T12:14:21.331Z</time>
      </trkpt>
      <trkpt lat="46.3344" lon="-1.31765">
        <ele>45.712845</ele>
        <time>2022-12-19T12:14:24.324Z</time>
      </trkpt>
      <trkpt lat="46.33447" lon="-1.31751">
        <ele>45.837754</ele>
        <time>2022-12-19T12:14:27.330Z</time>
      </trkpt>
      <trkpt lat="46.33454" lon="-1.31738">
        <ele>45.956015</ele>
        <time>2022-12-19T12:14:30.332Z</time>
      </trkpt>
      <trkpt lat="46.33459" lon="-1.31727">
        <ele>46.055527</ele>
        <time>2022-12-19T12:14:33.335Z</time>
      </trkpt>
      <trkpt lat="46.33464" lon="-1.31715">
        <ele>46.159928</ele>
        <time>2022-12-19T12:14:36.344Z</time>
      </trkpt>
      <trkpt lat="46.33471" lon="-1.31702">
        <ele>46.27573</ele>
        <time>2022-12-19T12:14:39.331Z</time>
      </trkpt>
      <trkpt lat="46.33477" lon="-1.31689">
        <ele>46.395144</ele>
        <time>2022-12-19T12:14:42.333Z</time>
      </trkpt>
      <trkpt lat="46.33483" lon="-1.31674">
        <ele>46.466817</ele>
        <time>2022-12-19T12:14:45.311Z</time>
      </trkpt>
      <trkpt lat="46.33489" lon="-1.31659">
        <ele>46.495643</ele>
        <time>2022-12-19T12:14:48.329Z</time>
      </trkpt>
      <trkpt lat="46.33496" lon="-1.31644">
        <ele>46.523684</ele>
        <time>2022-12-19T12:14:51.321Z</time>
      </trkpt>
      <trkpt lat="46.33503" lon="-1.31631">
        <ele>46.550539</ele>
        <time>2022-12-19T12:14:54.323Z</time>
      </trkpt>
      <trkpt lat="46.33509" lon="-1.31619">
        <ele>46.575918</ele>
        <time>2022-12-19T12:14:57.314Z</time>
      </trkpt>
      <trkpt lat="46.33516" lon="-1.31606">
        <ele>46.600621</ele>
        <time>2022-12-19T12:15:00.340Z</time>
      </trkpt>
      <trkpt lat="46.33521" lon="-1.31594">
        <ele>46.623724</ele>
        <time>2022-12-19T12:15:03.319Z</time>
      </trkpt>
      <trkpt lat="46.33526" lon="-1.31582">
        <ele>46.646339</ele>
        <time>2022-12-19T12:15:06.331Z</time>
      </trkpt>
      <trkpt lat="46.33531" lon="-1.3157">
        <ele>46.669062</ele>
        <time>2022-12-19T12:15:09.344Z</time>
      </trkpt>
      <trkpt lat="46.33536" lon="-1.31559">
        <ele>46.691661</ele>
        <time>2022-12-19T12:15:12.335Z</time>
      </trkpt>
      <trkpt lat="46.33542" lon="-1.31546">
        <ele>46.714658</ele>
        <time>2022-12-19T12:15:15.330Z</time>
      </trkpt>
      <trkpt lat="46.33547" lon="-1.31535">
        <ele>46.737636</ele>
        <time>2022-12-19T12:15:18.342Z</time>
      </trkpt>
      <trkpt lat="46.33554" lon="-1.31522">
        <ele>46.762997</ele>
        <time>2022-12-19T12:15:21.339Z</time>
      </trkpt>
      <trkpt lat="46.3356" lon="-1.31507">
        <ele>46.791983</ele>
        <time>2022-12-19T12:15:24.329Z</time>
      </trkpt>
      <trkpt lat="46.33565" lon="-1.31491">
        <ele>46.820662</ele>
        <time>2022-12-19T12:15:27.324Z</time>
      </trkpt>
      <trkpt lat="46.33569" lon="-1.31474">
        <ele>46.849155</ele>
        <time>2022-12-19T12:15:30.340Z</time>
      </trkpt>
      <trkpt lat="46.33569" lon="-1.31457">
        <ele>46.866182</ele>
        <time>2022-12-19T12:15:33.338Z</time>
      </trkpt>
      <trkpt lat="46.3357" lon="-1.31441">
        <ele>46.803034</ele>
        <time>2022-12-19T12:15:36.340Z</time>
      </trkpt>
      <trkpt lat="46.3357" lon="-1.31423">
        <ele>46.73465</ele>
        <time>2022-12-19T12:15:39.337Z</time>
      </trkpt>
      <trkpt lat="46.33567" lon="-1.31406">
        <ele>46.666457</ele>
        <time>2022-12-19T12:15:42.330Z</time>
      </trkpt>
      <trkpt lat="46.33561" lon="-1.3139">
        <ele>46.596447</ele>
        <time>2022-12-19T12:15:45.334Z</time>
      </trkpt>
      <trkpt lat="46.33554" lon="-1.31375">
        <ele>46.524961</ele>
        <time>2022-12-19T12:15:48.337Z</time>
      </trkpt>
      <trkpt lat="46.33545" lon="-1.31361">
        <ele>46.453968</ele>
        <time>2022-12-19T12:15:51.335Z</time>
      </trkpt>
      <trkpt lat="46.33538" lon="-1.31346">
        <ele>46.384414</ele>
        <time>2022-12-19T12:15:54.340Z</time>
      </trkpt>
      <trkpt lat="46.33532" lon="-1.3133">
        <ele>46.313109</ele>
        <time>2022-12-19T12:15:57.341Z</time>
      </trkpt>
      <trkpt lat="46.33524" lon="-1.31315">
        <ele>46.241967</ele>
        <time>2022-12-19T12:16:00.317Z</time>
      </trkpt>
      <trkpt lat="46.33517" lon="-1.31301">
        <ele>46.173621</ele>
        <time>2022-12-19T12:16:03.345Z</time>
      </trkpt>
      <trkpt lat="46.33509" lon="-1.31288">
        <ele>46.107297</ele>
        <time>2022-12-19T12:16:06.334Z</time>
      </trkpt>
      <trkpt lat="46.33502" lon="-1.31274">
        <ele>46.041193</ele>
        <time>2022-12-19T12:16:09.352Z</time>
      </trkpt>
      <trkpt lat="46.33497" lon="-1.3126">
        <ele>45.979423</ele>
        <time>2022-12-19T12:16:12.324Z</time>
      </trkpt>
      <trkpt lat="46.33491" lon="-1.31247">
        <ele>45.921827</ele>
        <time>2022-12-19T12:16:15.342Z</time>
      </trkpt>
      <trkpt lat="46.33489" lon="-1.31233">
        <ele>45.863251</ele>
        <time>2022-12-19T12:16:18.342Z</time>
      </trkpt>
      <trkpt lat="46.33485" lon="-1.31218">
        <ele>45.786631</ele>
        <time>2022-12-19T12:16:21.341Z</time>
      </trkpt>
      <trkpt lat="46.33482" lon="-1.31202">
        <ele>45.709159</ele>
        <time>2022-12-19T12:16:24.339Z</time>
      </trkpt>
      <trkpt lat="46.33479" lon="-1.31186">
        <ele>45.627621</ele>
        <time>2022-12-19T12:16:27.331Z</time>
      </trkpt>
      <trkpt lat="46.33475" lon="-1.31169">
        <ele>45.542174</ele>
        <time>2022-12-19T12:16:30.342Z</time>
      </trkpt>
      <trkpt lat="46.33469" lon="-1.31153">
        <ele>45.456464</ele>
        <time>2022-12-19T12:16:33.341Z</time>
      </trkpt>
      <trkpt lat="46.33464" lon="-1.31139">
        <ele>45.37694</ele>
        <time>2022-12-19T12:16:36.331Z</time>
      </trkpt>
      <trkpt lat="46.33461" lon="-1.31126">
        <ele>45.313908</ele>
        <time>2022-12-19T12:16:39.342Z</time>
      </trkpt>
      <trkpt lat="46.33456" lon="-1.31112">
        <ele>45.238639</ele>
        <time>2022-12-19T12:16:43.333Z</time>
      </trkpt>
      <trkpt lat="46.33451" lon="-1.31098">
        <ele>45.161224</ele>
        <time>2022-12-19T12:16:47.333Z</time>
      </trkpt>
      <trkpt lat="46.33446" lon="-1.31082">
        <ele>45.080043</ele>
        <time>2022-12-19T12:16:51.335Z</time>
      </trkpt>
      <trkpt lat="46.3344" lon="-1.31068">
        <ele>44.999268</ele>
        <time>2022-12-19T12:16:55.342Z</time>
      </trkpt>
      <trkpt lat="46.33433" lon="-1.31054">
        <ele>44.916322</ele>
        <time>2022-12-19T12:16:59.348Z</time>
      </trkpt>
      <trkpt lat="46.33426" lon="-1.31044">
        <ele>44.848861</ele>
        <time>2022-12-19T12:17:02.341Z</time>
      </trkpt>
      <trkpt lat="46.3342" lon="-1.31033">
        <ele>44.780829</ele>
        <time>2022-12-19T12:17:05.343Z</time>
      </trkpt>
      <trkpt lat="46.33414" lon="-1.31022">
        <ele>44.713692</ele>
        <time>2022-12-19T12:17:08.338Z</time>
      </trkpt>
      <trkpt lat="46.33408" lon="-1.31008">
        <ele>44.633583</ele>
        <time>2022-12-19T12:17:12.341Z</time>
      </trkpt>
      <trkpt lat="46.33401" lon="-1.30995">
        <ele>44.631781</ele>
        <time>2022-12-19T12:17:16.322Z</time>
      </trkpt>
      <trkpt lat="46.33394" lon="-1.30981">
        <ele>44.649478</ele>
        <time>2022-12-19T12:17:20.345Z</time>
      </trkpt>
      <trkpt lat="46.33389" lon="-1.3097">
        <ele>44.662963</ele>
        <time>2022-12-19T12:17:23.342Z</time>
      </trkpt>
      <trkpt lat="46.33382" lon="-1.30958">
        <ele>44.678963</ele>
        <time>2022-12-19T12:17:27.337Z</time>
      </trkpt>
      <trkpt lat="46.33376" lon="-1.30945">
        <ele>44.695316</ele>
        <time>2022-12-19T12:17:31.341Z</time>
      </trkpt>
      <trkpt lat="46.3337" lon="-1.30934">
        <ele>44.709299</ele>
        <time>2022-12-19T12:17:35.343Z</time>
      </trkpt>
      <trkpt lat="46.33364" lon="-1.30921">
        <ele>44.72505</ele>
        <time>2022-12-19T12:17:40.341Z</time>
      </trkpt>
      <trkpt lat="46.33358" lon="-1.30909">
        <ele>44.74023</ele>
        <time>2022-12-19T12:17:45.341Z</time>
      </trkpt>
      <trkpt lat="46.33354" lon="-1.30895">
        <ele>44.755812</ele>
        <time>2022-12-19T12:17:50.341Z</time>
      </trkpt>
      <trkpt lat="46.33349" lon="-1.30882">
        <ele>44.771184</ele>
        <time>2022-12-19T12:17:56.334Z</time>
      </trkpt>
      <trkpt lat="46.33342" lon="-1.30871">
        <ele>44.786817</ele>
        <time>2022-12-19T12:18:00.337Z</time>
      </trkpt>
      <trkpt lat="46.33336" lon="-1.30857">
        <ele>44.803743</ele>
        <time>2022-12-19T12:18:04.338Z</time>
      </trkpt>
      <trkpt lat="46.33329" lon="-1.30842">
        <ele>44.82177</ele>
        <time>2022-12-19T12:18:08.344Z</time>
      </trkpt>
      <trkpt lat="46.33323" lon="-1.30829">
        <ele>44.83737</ele>
        <time>2022-12-19T12:18:11.336Z</time>
      </trkpt>
      <trkpt lat="46.33318" lon="-1.30817">
        <ele>44.852697</ele>
        <time>2022-12-19T12:18:14.339Z</time>
      </trkpt>
      <trkpt lat="46.33312" lon="-1.30805">
        <ele>44.868196</ele>
        <time>2022-12-19T12:18:17.332Z</time>
      </trkpt>
      <trkpt lat="46.33306" lon="-1.30793">
        <ele>44.883018</ele>
        <time>2022-12-19T12:18:20.342Z</time>
      </trkpt>
      <trkpt lat="46.333" lon="-1.30782">
        <ele>44.831044</ele>
        <time>2022-12-19T12:18:23.343Z</time>
      </trkpt>
      <trkpt lat="46.33295" lon="-1.30769">
        <ele>44.766477</ele>
        <time>2022-12-19T12:18:26.339Z</time>
      </trkpt>
      <trkpt lat="46.33289" lon="-1.30756">
        <ele>44.696845</ele>
        <time>2022-12-19T12:18:29.341Z</time>
      </trkpt>
      <trkpt lat="46.33282" lon="-1.30743">
        <ele>44.625321</ele>
        <time>2022-12-19T12:18:32.343Z</time>
      </trkpt>
      <trkpt lat="46.33275" lon="-1.30731">
        <ele>44.553216</ele>
        <time>2022-12-19T12:18:35.340Z</time>
      </trkpt>
      <trkpt lat="46.33269" lon="-1.30718">
        <ele>44.483601</ele>
        <time>2022-12-19T12:18:38.345Z</time>
      </trkpt>
      <trkpt lat="46.3326" lon="-1.30706">
        <ele>44.407709</ele>
        <time>2022-12-19T12:18:41.337Z</time>
      </trkpt>
      <trkpt lat="46.33251" lon="-1.30695">
        <ele>44.326551</ele>
        <time>2022-12-19T12:18:44.345Z</time>
      </trkpt>
      <trkpt lat="46.33242" lon="-1.30682">
        <ele>44.249102</ele>
        <time>2022-12-19T12:18:47.346Z</time>
      </trkpt>
      <trkpt lat="46.33234" lon="-1.3067">
        <ele>44.173249</ele>
        <time>2022-12-19T12:18:50.340Z</time>
      </trkpt>
      <trkpt lat="46.33226" lon="-1.30658">
        <ele>44.098486</ele>
        <time>2022-12-19T12:18:53.345Z</time>
      </trkpt>
      <trkpt lat="46.33218" lon="-1.30645">
        <ele>44.021103</ele>
        <time>2022-12-19T12:18:56.343Z</time>
      </trkpt>
      <trkpt lat="46.3321" lon="-1.30632">
        <ele>43.945686</ele>
        <time>2022-12-19T12:18:59.342Z</time>
      </trkpt>
      <trkpt lat="46.33202" lon="-1.30621">
        <ele>43.874073</ele>
        <time>2022-12-19T12:19:02.335Z</time>
      </trkpt>
      <trkpt lat="46.33195" lon="-1.30609">
        <ele>43.800511</ele>
        <time>2022-12-19T12:19:05.343Z</time>
      </trkpt>
      <trkpt lat="46.33188" lon="-1.30598">
        <ele>43.73523</ele>
        <time>2022-12-19T12:19:08.336Z</time>
      </trkpt>
      <trkpt lat="46.3318" lon="-1.30584">
        <ele>43.75402</ele>
        <time>2022-12-19T12:19:12.339Z</time>
      </trkpt>
      <trkpt lat="46.33174" lon="-1.30574">
        <ele>43.780284</ele>
        <time>2022-12-19T12:19:15.330Z</time>
      </trkpt>
      <trkpt lat="46.33167" lon="-1.30563">
        <ele>43.808086</ele>
        <time>2022-12-19T12:19:18.341Z</time>
      </trkpt>
      <trkpt lat="46.33161" lon="-1.30552">
        <ele>43.83551</ele>
        <time>2022-12-19T12:19:21.335Z</time>
      </trkpt>
      <trkpt lat="46.33153" lon="-1.30541">
        <ele>43.864328</ele>
        <time>2022-12-19T12:19:24.345Z</time>
      </trkpt>
      <trkpt lat="46.33146" lon="-1.30529">
        <ele>43.895101</ele>
        <time>2022-12-19T12:19:27.330Z</time>
      </trkpt>
      <trkpt lat="46.33138" lon="-1.30517">
        <ele>43.92722</ele>
        <time>2022-12-19T12:19:30.337Z</time>
      </trkpt>
      <trkpt lat="46.33129" lon="-1.30506">
        <ele>43.958637</ele>
        <time>2022-12-19T12:19:33.339Z</time>
      </trkpt>
      <trkpt lat="46.33121" lon="-1.30494">
        <ele>43.98979</ele>
        <time>2022-12-19T12:19:36.341Z</time>
      </trkpt>
      <trkpt lat="46.33114" lon="-1.30481">
        <ele>44.021825</ele>
        <time>2022-12-19T12:19:39.342Z</time>
      </trkpt>
      <trkpt lat="46.33105" lon="-1.3047">
        <ele>44.054274</ele>
        <time>2022-12-19T12:19:42.339Z</time>
      </trkpt>
      <trkpt lat="46.33097" lon="-1.30458">
        <ele>44.086006</ele>
        <time>2022-12-19T12:19:45.331Z</time>
      </trkpt>
      <trkpt lat="46.33089" lon="-1.3045">
        <ele>44.112411</ele>
        <time>2022-12-19T12:19:48.340Z</time>
      </trkpt>
      <trkpt lat="46.33083" lon="-1.30441">
        <ele>44.137295</ele>
        <time>2022-12-19T12:19:51.343Z</time>
      </trkpt>
      <trkpt lat="46.33076" lon="-1.3043">
        <ele>44.164225</ele>
        <time>2022-12-19T12:19:54.346Z</time>
      </trkpt>
      <trkpt lat="46.33068" lon="-1.30421">
        <ele>44.19109</ele>
        <time>2022-12-19T12:19:57.319Z</time>
      </trkpt>
      <trkpt lat="46.33061" lon="-1.30411">
        <ele>44.219292</ele>
        <time>2022-12-19T12:20:01.340Z</time>
      </trkpt>
      <trkpt lat="46.33052" lon="-1.30399">
        <ele>44.218045</ele>
        <time>2022-12-19T12:20:05.339Z</time>
      </trkpt>
      <trkpt lat="46.33045" lon="-1.3039">
        <ele>44.216989</ele>
        <time>2022-12-19T12:20:08.343Z</time>
      </trkpt>
      <trkpt lat="46.33037" lon="-1.3038">
        <ele>44.215848</ele>
        <time>2022-12-19T12:20:11.342Z</time>
      </trkpt>
      <trkpt lat="46.33028" lon="-1.3037">
        <ele>44.214653</ele>
        <time>2022-12-19T12:20:14.318Z</time>
      </trkpt>
      <trkpt lat="46.33019" lon="-1.3036">
        <ele>44.21343</ele>
        <time>2022-12-19T12:20:17.322Z</time>
      </trkpt>
      <trkpt lat="46.3301" lon="-1.30349">
        <ele>44.212207</ele>
        <time>2022-12-19T12:20:20.337Z</time>
      </trkpt>
      <trkpt lat="46.33002" lon="-1.30337">
        <ele>44.210951</ele>
        <time>2022-12-19T12:20:23.341Z</time>
      </trkpt>
      <trkpt lat="46.32993" lon="-1.30325">
        <ele>44.209639</ele>
        <time>2022-12-19T12:20:26.348Z</time>
      </trkpt>
      <trkpt lat="46.32984" lon="-1.30311">
        <ele>44.208259</ele>
        <time>2022-12-19T12:20:29.342Z</time>
      </trkpt>
      <trkpt lat="46.32977" lon="-1.30297">
        <ele>44.206919</ele>
        <time>2022-12-19T12:20:32.320Z</time>
      </trkpt>
      <trkpt lat="46.3297" lon="-1.30283">
        <ele>44.205636</ele>
        <time>2022-12-19T12:20:35.338Z</time>
      </trkpt>
      <trkpt lat="46.32963" lon="-1.30268">
        <ele>44.204365</ele>
        <time>2022-12-19T12:20:38.336Z</time>
      </trkpt>
      <trkpt lat="46.32956" lon="-1.30254">
        <ele>44.203081</ele>
        <time>2022-12-19T12:20:41.342Z</time>
      </trkpt>
      <trkpt lat="46.32949" lon="-1.30239">
        <ele>44.201779</ele>
        <time>2022-12-19T12:20:44.319Z</time>
      </trkpt>
      <trkpt lat="46.32943" lon="-1.30224">
        <ele>44.200475</ele>
        <time>2022-12-19T12:20:47.343Z</time>
      </trkpt>
      <trkpt lat="46.32936" lon="-1.3021">
        <ele>44.201552</ele>
        <time>2022-12-19T12:20:50.341Z</time>
      </trkpt>
      <trkpt lat="46.32929" lon="-1.30195">
        <ele>44.203692</ele>
        <time>2022-12-19T12:20:53.344Z</time>
      </trkpt>
      <trkpt lat="46.32922" lon="-1.30184">
        <ele>44.205634</ele>
        <time>2022-12-19T12:20:56.343Z</time>
      </trkpt>
      <trkpt lat="46.32914" lon="-1.30171">
        <ele>44.20765</ele>
        <time>2022-12-19T12:20:59.341Z</time>
      </trkpt>
      <trkpt lat="46.32907" lon="-1.30158">
        <ele>44.209753</ele>
        <time>2022-12-19T12:21:02.331Z</time>
      </trkpt>
      <trkpt lat="46.32901" lon="-1.30143">
        <ele>44.211895</ele>
        <time>2022-12-19T12:21:05.335Z</time>
      </trkpt>
      <trkpt lat="46.32893" lon="-1.3013">
        <ele>44.214039</ele>
        <time>2022-12-19T12:21:08.341Z</time>
      </trkpt>
      <trkpt lat="46.32884" lon="-1.30117">
        <ele>44.216231</ele>
        <time>2022-12-19T12:21:11.344Z</time>
      </trkpt>
      <trkpt lat="46.32876" lon="-1.30105">
        <ele>44.218332</ele>
        <time>2022-12-19T12:21:14.340Z</time>
      </trkpt>
      <trkpt lat="46.32869" lon="-1.30093">
        <ele>44.220351</ele>
        <time>2022-12-19T12:21:17.339Z</time>
      </trkpt>
      <trkpt lat="46.32862" lon="-1.30082">
        <ele>44.22209</ele>
        <time>2022-12-19T12:21:20.343Z</time>
      </trkpt>
      <trkpt lat="46.32855" lon="-1.30073">
        <ele>44.22373</ele>
        <time>2022-12-19T12:21:23.343Z</time>
      </trkpt>
      <trkpt lat="46.32849" lon="-1.30064">
        <ele>44.225384</ele>
        <time>2022-12-19T12:21:26.342Z</time>
      </trkpt>
      <trkpt lat="46.32842" lon="-1.30053">
        <ele>44.227149</ele>
        <time>2022-12-19T12:21:29.346Z</time>
      </trkpt>
      <trkpt lat="46.32835" lon="-1.30043">
        <ele>44.228965</ele>
        <time>2022-12-19T12:21:32.343Z</time>
      </trkpt>
      <trkpt lat="46.32828" lon="-1.30033">
        <ele>44.230763</ele>
        <time>2022-12-19T12:21:35.345Z</time>
      </trkpt>
      <trkpt lat="46.32821" lon="-1.30024">
        <ele>44.245812</ele>
        <time>2022-12-19T12:21:38.344Z</time>
      </trkpt>
      <trkpt lat="46.32813" lon="-1.30014">
        <ele>44.340012</ele>
        <time>2022-12-19T12:21:42.332Z</time>
      </trkpt>
      <trkpt lat="46.32805" lon="-1.30006">
        <ele>44.424966</ele>
        <time>2022-12-19T12:21:46.339Z</time>
      </trkpt>
      <trkpt lat="46.32798" lon="-1.29995">
        <ele>44.517353</ele>
        <time>2022-12-19T12:21:51.333Z</time>
      </trkpt>
      <trkpt lat="46.32805" lon="-1.29983">
        <ele>44.607641</ele>
        <time>2022-12-19T12:21:56.329Z</time>
      </trkpt>
      <trkpt lat="46.32814" lon="-1.29978">
        <ele>44.696416</ele>
        <time>2022-12-19T12:21:59.343Z</time>
      </trkpt>
      <trkpt lat="46.32824" lon="-1.2997">
        <ele>44.798887</ele>
        <time>2022-12-19T12:22:02.343Z</time>
      </trkpt>
      <trkpt lat="46.32834" lon="-1.29961">
        <ele>44.907071</ele>
        <time>2022-12-19T12:22:05.343Z</time>
      </trkpt>
      <trkpt lat="46.32845" lon="-1.29951">
        <ele>45.023435</ele>
        <time>2022-12-19T12:22:08.342Z</time>
      </trkpt>
      <trkpt lat="46.32855" lon="-1.29941">
        <ele>45.137414</ele>
        <time>2022-12-19T12:22:11.324Z</time>
      </trkpt>
      <trkpt lat="46.32865" lon="-1.29931">
        <ele>45.240257</ele>
        <time>2022-12-19T12:22:14.341Z</time>
      </trkpt>
      <trkpt lat="46.32872" lon="-1.29923">
        <ele>45.325211</ele>
        <time>2022-12-19T12:22:17.345Z</time>
      </trkpt>
      <trkpt lat="46.32882" lon="-1.29913">
        <ele>45.430667</ele>
        <time>2022-12-19T12:22:21.332Z</time>
      </trkpt>
      <trkpt lat="46.3289" lon="-1.29905">
        <ele>45.521503</ele>
        <time>2022-12-19T12:22:24.343Z</time>
      </trkpt>
      <trkpt lat="46.329" lon="-1.29896">
        <ele>45.622899</ele>
        <time>2022-12-19T12:22:27.331Z</time>
      </trkpt>
      <trkpt lat="46.32909" lon="-1.29887">
        <ele>45.726537</ele>
        <time>2022-12-19T12:22:30.347Z</time>
      </trkpt>
      <trkpt lat="46.32919" lon="-1.29877">
        <ele>45.831185</ele>
        <time>2022-12-19T12:22:33.344Z</time>
      </trkpt>
      <trkpt lat="46.32928" lon="-1.29867">
        <ele>45.871626</ele>
        <time>2022-12-19T12:22:36.341Z</time>
      </trkpt>
      <trkpt lat="46.32939" lon="-1.29856">
        <ele>45.898408</ele>
        <time>2022-12-19T12:22:39.343Z</time>
      </trkpt>
      <trkpt lat="46.32949" lon="-1.29845">
        <ele>45.924353</ele>
        <time>2022-12-19T12:22:42.317Z</time>
      </trkpt>
      <trkpt lat="46.3296" lon="-1.29835">
        <ele>45.9498</ele>
        <time>2022-12-19T12:22:45.332Z</time>
      </trkpt>
      <trkpt lat="46.32969" lon="-1.29824">
        <ele>45.974271</ele>
        <time>2022-12-19T12:22:48.337Z</time>
      </trkpt>
      <trkpt lat="46.32977" lon="-1.29814">
        <ele>45.996333</ele>
        <time>2022-12-19T12:22:51.344Z</time>
      </trkpt>
      <trkpt lat="46.32985" lon="-1.29805">
        <ele>46.017081</ele>
        <time>2022-12-19T12:22:54.339Z</time>
      </trkpt>
      <trkpt lat="46.32993" lon="-1.29793">
        <ele>46.040696</ele>
        <time>2022-12-19T12:22:57.343Z</time>
      </trkpt>
      <trkpt lat="46.33002" lon="-1.2978">
        <ele>46.067203</ele>
        <time>2022-12-19T12:23:00.321Z</time>
      </trkpt>
      <trkpt lat="46.33012" lon="-1.29768">
        <ele>46.093873</ele>
        <time>2022-12-19T12:23:03.330Z</time>
      </trkpt>
      <trkpt lat="46.33023" lon="-1.29756">
        <ele>46.120569</ele>
        <time>2022-12-19T12:23:06.341Z</time>
      </trkpt>
      <trkpt lat="46.3303" lon="-1.29748">
        <ele>46.139053</ele>
        <time>2022-12-19T12:23:08.344Z</time>
      </trkpt>
      <trkpt lat="46.33041" lon="-1.29737">
        <ele>46.166244</ele>
        <time>2022-12-19T12:23:11.343Z</time>
      </trkpt>
      <trkpt lat="46.33051" lon="-1.29726">
        <ele>46.193446</ele>
        <time>2022-12-19T12:23:14.339Z</time>
      </trkpt>
      <trkpt lat="46.33062" lon="-1.29715">
        <ele>46.218059</ele>
        <time>2022-12-19T12:23:17.343Z</time>
      </trkpt>
      <trkpt lat="46.33072" lon="-1.29704">
        <ele>46.088957</ele>
        <time>2022-12-19T12:23:20.348Z</time>
      </trkpt>
      <trkpt lat="46.33082" lon="-1.29694">
        <ele>45.967162</ele>
        <time>2022-12-19T12:23:23.320Z</time>
      </trkpt>
      <trkpt lat="46.33091" lon="-1.29683">
        <ele>45.845788</ele>
        <time>2022-12-19T12:23:26.326Z</time>
      </trkpt>
      <trkpt lat="46.33101" lon="-1.29672">
        <ele>45.719851</ele>
        <time>2022-12-19T12:23:29.334Z</time>
      </trkpt>
      <trkpt lat="46.33111" lon="-1.29661">
        <ele>45.590714</ele>
        <time>2022-12-19T12:23:32.325Z</time>
      </trkpt>
      <trkpt lat="46.33121" lon="-1.2965">
        <ele>45.464414</ele>
        <time>2022-12-19T12:23:35.336Z</time>
      </trkpt>
      <trkpt lat="46.3313" lon="-1.29639">
        <ele>45.346089</ele>
        <time>2022-12-19T12:23:38.331Z</time>
      </trkpt>
      <trkpt lat="46.33138" lon="-1.29627">
        <ele>45.223611</ele>
        <time>2022-12-19T12:23:41.338Z</time>
      </trkpt>
      <trkpt lat="46.33147" lon="-1.29613">
        <ele>45.091738</ele>
        <time>2022-12-19T12:23:44.315Z</time>
      </trkpt>
      <trkpt lat="46.33154" lon="-1.29603">
        <ele>44.993137</ele>
        <time>2022-12-19T12:23:46.349Z</time>
      </trkpt>
      <trkpt lat="46.33161" lon="-1.29592">
        <ele>44.887727</ele>
        <time>2022-12-19T12:23:48.329Z</time>
      </trkpt>
      <trkpt lat="46.33169" lon="-1.29581">
        <ele>44.778177</ele>
        <time>2022-12-19T12:23:50.338Z</time>
      </trkpt>
      <trkpt lat="46.33177" lon="-1.2957">
        <ele>44.662758</ele>
        <time>2022-12-19T12:23:52.326Z</time>
      </trkpt>
      <trkpt lat="46.33184" lon="-1.29559">
        <ele>44.556005</ele>
        <time>2022-12-19T12:23:54.334Z</time>
      </trkpt>
      <trkpt lat="46.33191" lon="-1.29548">
        <ele>44.451662</ele>
        <time>2022-12-19T12:23:56.337Z</time>
      </trkpt>
      <trkpt lat="46.33198" lon="-1.29537">
        <ele>44.403439</ele>
        <time>2022-12-19T12:23:58.343Z</time>
      </trkpt>
      <trkpt lat="46.33205" lon="-1.29527">
        <ele>44.424759</ele>
        <time>2022-12-19T12:24:00.342Z</time>
      </trkpt>
      <trkpt lat="46.33211" lon="-1.29517">
        <ele>44.445896</ele>
        <time>2022-12-19T12:24:02.344Z</time>
      </trkpt>
      <trkpt lat="46.33219" lon="-1.29502">
        <ele>44.475376</ele>
        <time>2022-12-19T12:24:05.341Z</time>
      </trkpt>
      <trkpt lat="46.33227" lon="-1.29488">
        <ele>44.503535</ele>
        <time>2022-12-19T12:24:08.342Z</time>
      </trkpt>
      <trkpt lat="46.33234" lon="-1.29475">
        <ele>44.530117</ele>
        <time>2022-12-19T12:24:11.344Z</time>
      </trkpt>
      <trkpt lat="46.33241" lon="-1.29461">
        <ele>44.557996</ele>
        <time>2022-12-19T12:24:14.337Z</time>
      </trkpt>
      <trkpt lat="46.33248" lon="-1.29445">
        <ele>44.587931</ele>
        <time>2022-12-19T12:24:17.344Z</time>
      </trkpt>
      <trkpt lat="46.33253" lon="-1.29433">
        <ele>44.609208</ele>
        <time>2022-12-19T12:24:19.343Z</time>
      </trkpt>
      <trkpt lat="46.33258" lon="-1.29421">
        <ele>44.630845</ele>
        <time>2022-12-19T12:24:21.344Z</time>
      </trkpt>
      <trkpt lat="46.33263" lon="-1.29409">
        <ele>44.652817</ele>
        <time>2022-12-19T12:24:23.344Z</time>
      </trkpt>
      <trkpt lat="46.33267" lon="-1.29397">
        <ele>44.673408</ele>
        <time>2022-12-19T12:24:25.334Z</time>
      </trkpt>
      <trkpt lat="46.33274" lon="-1.29382">
        <ele>44.702032</ele>
        <time>2022-12-19T12:24:28.321Z</time>
      </trkpt>
      <trkpt lat="46.3328" lon="-1.29368">
        <ele>44.727831</ele>
        <time>2022-12-19T12:24:31.368Z</time>
      </trkpt>
      <trkpt lat="46.33285" lon="-1.29354">
        <ele>44.752702</ele>
        <time>2022-12-19T12:24:34.343Z</time>
      </trkpt>
      <trkpt lat="46.33288" lon="-1.29341">
        <ele>44.774394</ele>
        <time>2022-12-19T12:24:37.342Z</time>
      </trkpt>
      <trkpt lat="46.33288" lon="-1.29326">
        <ele>44.798073</ele>
        <time>2022-12-19T12:24:40.333Z</time>
      </trkpt>
      <trkpt lat="46.3329" lon="-1.29311">
        <ele>44.803964</ele>
        <time>2022-12-19T12:24:43.352Z</time>
      </trkpt>
      <trkpt lat="46.33299" lon="-1.29301">
        <ele>44.806785</ele>
        <time>2022-12-19T12:24:46.344Z</time>
      </trkpt>
      <trkpt lat="46.33308" lon="-1.2929">
        <ele>44.80985</ele>
        <time>2022-12-19T12:24:49.346Z</time>
      </trkpt>
      <trkpt lat="46.33316" lon="-1.29275">
        <ele>44.813078</ele>
        <time>2022-12-19T12:24:52.343Z</time>
      </trkpt>
      <trkpt lat="46.33321" lon="-1.29258">
        <ele>44.816266</ele>
        <time>2022-12-19T12:24:55.341Z</time>
      </trkpt>
      <trkpt lat="46.33327" lon="-1.29243">
        <ele>44.819384</ele>
        <time>2022-12-19T12:24:58.344Z</time>
      </trkpt>
      <trkpt lat="46.33333" lon="-1.29226">
        <ele>44.822575</ele>
        <time>2022-12-19T12:25:01.347Z</time>
      </trkpt>
      <trkpt lat="46.33339" lon="-1.2921">
        <ele>44.82583</ele>
        <time>2022-12-19T12:25:04.343Z</time>
      </trkpt>
      <trkpt lat="46.33346" lon="-1.29194">
        <ele>44.829049</ele>
        <time>2022-12-19T12:25:07.346Z</time>
      </trkpt>
      <trkpt lat="46.33352" lon="-1.29178">
        <ele>44.832334</ele>
        <time>2022-12-19T12:25:10.334Z</time>
      </trkpt>
      <trkpt lat="46.33358" lon="-1.29161">
        <ele>44.835648</ele>
        <time>2022-12-19T12:25:13.344Z</time>
      </trkpt>
      <trkpt lat="46.33365" lon="-1.29144">
        <ele>44.838976</ele>
        <time>2022-12-19T12:25:16.345Z</time>
      </trkpt>
      <trkpt lat="46.33369" lon="-1.29132">
        <ele>44.841289</ele>
        <time>2022-12-19T12:25:18.320Z</time>
      </trkpt>
      <trkpt lat="46.33373" lon="-1.2912">
        <ele>44.84359</ele>
        <time>2022-12-19T12:25:20.337Z</time>
      </trkpt>
      <trkpt lat="46.33379" lon="-1.29103">
        <ele>44.846911</ele>
        <time>2022-12-19T12:25:23.341Z</time>
      </trkpt>
      <trkpt lat="46.33386" lon="-1.29087">
        <ele>44.848121</ele>
        <time>2022-12-19T12:25:26.347Z</time>
      </trkpt>
      <trkpt lat="46.33393" lon="-1.2907">
        <ele>44.849367</ele>
        <time>2022-12-19T12:25:29.336Z</time>
      </trkpt>
      <trkpt lat="46.33397" lon="-1.29058">
        <ele>44.85022</ele>
        <time>2022-12-19T12:25:31.346Z</time>
      </trkpt>
      <trkpt lat="46.33402" lon="-1.29047">
        <ele>44.851051</ele>
        <time>2022-12-19T12:25:33.344Z</time>
      </trkpt>
      <trkpt lat="46.33408" lon="-1.2903">
        <ele>44.852293</ele>
        <time>2022-12-19T12:25:36.324Z</time>
      </trkpt>
      <trkpt lat="46.33415" lon="-1.29013">
        <ele>44.853501</ele>
        <time>2022-12-19T12:25:39.341Z</time>
      </trkpt>
      <trkpt lat="46.33421" lon="-1.28997">
        <ele>44.854668</ele>
        <time>2022-12-19T12:25:42.343Z</time>
      </trkpt>
      <trkpt lat="46.33425" lon="-1.28986">
        <ele>44.855516</ele>
        <time>2022-12-19T12:25:44.345Z</time>
      </trkpt>
      <trkpt lat="46.33432" lon="-1.28969">
        <ele>44.856732</ele>
        <time>2022-12-19T12:25:47.342Z</time>
      </trkpt>
      <trkpt lat="46.33439" lon="-1.28953">
        <ele>44.857966</ele>
        <time>2022-12-19T12:25:50.343Z</time>
      </trkpt>
      <trkpt lat="46.33443" lon="-1.28941">
        <ele>44.858816</ele>
        <time>2022-12-19T12:25:52.330Z</time>
      </trkpt>
      <trkpt lat="46.33448" lon="-1.28929">
        <ele>44.859701</ele>
        <time>2022-12-19T12:25:54.325Z</time>
      </trkpt>
      <trkpt lat="46.33453" lon="-1.28918">
        <ele>44.860541</ele>
        <time>2022-12-19T12:25:56.336Z</time>
      </trkpt>
      <trkpt lat="46.33458" lon="-1.28907">
        <ele>44.861419</ele>
        <time>2022-12-19T12:25:58.335Z</time>
      </trkpt>
      <trkpt lat="46.33463" lon="-1.28895">
        <ele>44.862282</ele>
        <time>2022-12-19T12:26:00.339Z</time>
      </trkpt>
      <trkpt lat="46.33467" lon="-1.28882">
        <ele>44.863196</ele>
        <time>2022-12-19T12:26:02.342Z</time>
      </trkpt>
      <trkpt lat="46.33472" lon="-1.2887">
        <ele>44.863921</ele>
        <time>2022-12-19T12:26:04.345Z</time>
      </trkpt>
      <trkpt lat="46.33477" lon="-1.28858">
        <ele>44.864577</ele>
        <time>2022-12-19T12:26:06.321Z</time>
      </trkpt>
      <trkpt lat="46.33482" lon="-1.28846">
        <ele>44.865222</ele>
        <time>2022-12-19T12:26:08.344Z</time>
      </trkpt>
      <trkpt lat="46.33487" lon="-1.28835">
        <ele>44.865864</ele>
        <time>2022-12-19T12:26:10.343Z</time>
      </trkpt>
      <trkpt lat="46.33492" lon="-1.28823">
        <ele>44.866504</ele>
        <time>2022-12-19T12:26:12.341Z</time>
      </trkpt>
      <trkpt lat="46.33496" lon="-1.28811">
        <ele>44.867128</ele>
        <time>2022-12-19T12:26:14.343Z</time>
      </trkpt>
      <trkpt lat="46.33501" lon="-1.28799">
        <ele>44.867742</ele>
        <time>2022-12-19T12:26:16.333Z</time>
      </trkpt>
      <trkpt lat="46.33507" lon="-1.28783">
        <ele>44.868603</ele>
        <time>2022-12-19T12:26:19.343Z</time>
      </trkpt>
      <trkpt lat="46.33511" lon="-1.28772">
        <ele>44.869213</ele>
        <time>2022-12-19T12:26:21.343Z</time>
      </trkpt>
      <trkpt lat="46.33518" lon="-1.28755">
        <ele>44.870123</ele>
        <time>2022-12-19T12:26:24.339Z</time>
      </trkpt>
      <trkpt lat="46.33524" lon="-1.28743">
        <ele>44.870757</ele>
        <time>2022-12-19T12:26:26.345Z</time>
      </trkpt>
      <trkpt lat="46.33529" lon="-1.28732">
        <ele>44.871391</ele>
        <time>2022-12-19T12:26:28.344Z</time>
      </trkpt>
      <trkpt lat="46.33533" lon="-1.2872">
        <ele>44.87202</ele>
        <time>2022-12-19T12:26:30.335Z</time>
      </trkpt>
      <trkpt lat="46.33538" lon="-1.28708">
        <ele>44.872666</ele>
        <time>2022-12-19T12:26:32.343Z</time>
      </trkpt>
      <trkpt lat="46.33543" lon="-1.28696">
        <ele>44.873297</ele>
        <time>2022-12-19T12:26:34.339Z</time>
      </trkpt>
      <trkpt lat="46.33548" lon="-1.28684">
        <ele>44.873958</ele>
        <time>2022-12-19T12:26:36.341Z</time>
      </trkpt>
      <trkpt lat="46.33553" lon="-1.28672">
        <ele>44.874597</ele>
        <time>2022-12-19T12:26:38.316Z</time>
      </trkpt>
      <trkpt lat="46.33558" lon="-1.2866">
        <ele>44.875258</ele>
        <time>2022-12-19T12:26:40.345Z</time>
      </trkpt>
      <trkpt lat="46.33563" lon="-1.28649">
        <ele>44.867764</ele>
        <time>2022-12-19T12:26:42.344Z</time>
      </trkpt>
      <trkpt lat="46.33569" lon="-1.28632">
        <ele>44.843956</ele>
        <time>2022-12-19T12:26:45.344Z</time>
      </trkpt>
      <trkpt lat="46.33575" lon="-1.28617">
        <ele>44.821552</ele>
        <time>2022-12-19T12:26:48.336Z</time>
      </trkpt>
      <trkpt lat="46.33581" lon="-1.28602">
        <ele>44.799088</ele>
        <time>2022-12-19T12:26:51.345Z</time>
      </trkpt>
      <trkpt lat="46.33588" lon="-1.28585">
        <ele>44.773942</ele>
        <time>2022-12-19T12:26:54.347Z</time>
      </trkpt>
      <trkpt lat="46.33593" lon="-1.28573">
        <ele>44.757112</ele>
        <time>2022-12-19T12:26:56.345Z</time>
      </trkpt>
      <trkpt lat="46.33597" lon="-1.28562">
        <ele>44.74027</ele>
        <time>2022-12-19T12:26:58.333Z</time>
      </trkpt>
      <trkpt lat="46.33602" lon="-1.28551">
        <ele>44.723209</ele>
        <time>2022-12-19T12:27:00.340Z</time>
      </trkpt>
      <trkpt lat="46.33607" lon="-1.28539">
        <ele>44.706161</ele>
        <time>2022-12-19T12:27:02.324Z</time>
      </trkpt>
      <trkpt lat="46.33614" lon="-1.28522">
        <ele>44.681189</ele>
        <time>2022-12-19T12:27:05.343Z</time>
      </trkpt>
      <trkpt lat="46.33619" lon="-1.2851">
        <ele>44.663416</ele>
        <time>2022-12-19T12:27:07.343Z</time>
      </trkpt>
      <trkpt lat="46.33624" lon="-1.28499">
        <ele>44.645913</ele>
        <time>2022-12-19T12:27:09.355Z</time>
      </trkpt>
      <trkpt lat="46.33628" lon="-1.28487">
        <ele>44.628851</ele>
        <time>2022-12-19T12:27:11.347Z</time>
      </trkpt>
      <trkpt lat="46.33633" lon="-1.28476">
        <ele>44.611824</ele>
        <time>2022-12-19T12:27:13.343Z</time>
      </trkpt>
      <trkpt lat="46.33639" lon="-1.28458">
        <ele>44.586826</ele>
        <time>2022-12-19T12:27:16.339Z</time>
      </trkpt>
      <trkpt lat="46.33646" lon="-1.28444">
        <ele>44.564865</ele>
        <time>2022-12-19T12:27:19.347Z</time>
      </trkpt>
      <trkpt lat="46.33652" lon="-1.28429">
        <ele>44.543118</ele>
        <time>2022-12-19T12:27:22.345Z</time>
      </trkpt>
      <trkpt lat="46.33658" lon="-1.28413">
        <ele>44.548218</ele>
        <time>2022-12-19T12:27:25.343Z</time>
      </trkpt>
      <trkpt lat="46.33665" lon="-1.28397">
        <ele>44.553624</ele>
        <time>2022-12-19T12:27:28.336Z</time>
      </trkpt>
      <trkpt lat="46.3367" lon="-1.28385">
        <ele>44.557272</ele>
        <time>2022-12-19T12:27:30.340Z</time>
      </trkpt>
      <trkpt lat="46.33677" lon="-1.28369">
        <ele>44.562728</ele>
        <time>2022-12-19T12:27:33.329Z</time>
      </trkpt>
      <trkpt lat="46.33682" lon="-1.28358">
        <ele>44.566428</ele>
        <time>2022-12-19T12:27:35.339Z</time>
      </trkpt>
      <trkpt lat="46.33687" lon="-1.28347">
        <ele>44.570244</ele>
        <time>2022-12-19T12:27:37.347Z</time>
      </trkpt>
      <trkpt lat="46.33693" lon="-1.28335">
        <ele>44.574245</ele>
        <time>2022-12-19T12:27:39.345Z</time>
      </trkpt>
      <trkpt lat="46.33699" lon="-1.28325">
        <ele>44.577983</ele>
        <time>2022-12-19T12:27:41.347Z</time>
      </trkpt>
      <trkpt lat="46.33706" lon="-1.28314">
        <ele>44.58191</ele>
        <time>2022-12-19T12:27:43.344Z</time>
      </trkpt>
      <trkpt lat="46.33712" lon="-1.28303">
        <ele>44.585825</ele>
        <time>2022-12-19T12:27:45.344Z</time>
      </trkpt>
      <trkpt lat="46.3372" lon="-1.28289">
        <ele>44.591164</ele>
        <time>2022-12-19T12:27:48.339Z</time>
      </trkpt>
      <trkpt lat="46.33727" lon="-1.28275">
        <ele>44.595906</ele>
        <time>2022-12-19T12:27:51.341Z</time>
      </trkpt>
      <trkpt lat="46.33735" lon="-1.28264">
        <ele>44.600369</ele>
        <time>2022-12-19T12:27:54.343Z</time>
      </trkpt>
      <trkpt lat="46.33742" lon="-1.28252">
        <ele>44.604666</ele>
        <time>2022-12-19T12:27:57.344Z</time>
      </trkpt>
      <trkpt lat="46.33749" lon="-1.28239">
        <ele>44.609274</ele>
        <time>2022-12-19T12:28:00.334Z</time>
      </trkpt>
      <trkpt lat="46.33757" lon="-1.28227">
        <ele>44.614041</ele>
        <time>2022-12-19T12:28:03.341Z</time>
      </trkpt>
      <trkpt lat="46.33766" lon="-1.28214">
        <ele>44.672664</ele>
        <time>2022-12-19T12:28:06.344Z</time>
      </trkpt>
      <trkpt lat="46.33775" lon="-1.28201">
        <ele>44.762534</ele>
        <time>2022-12-19T12:28:09.343Z</time>
      </trkpt>
      <trkpt lat="46.33783" lon="-1.28188">
        <ele>44.850503</ele>
        <time>2022-12-19T12:28:12.342Z</time>
      </trkpt>
      <trkpt lat="46.33791" lon="-1.28175">
        <ele>44.93613</ele>
        <time>2022-12-19T12:28:15.345Z</time>
      </trkpt>
      <trkpt lat="46.33795" lon="-1.28159">
        <ele>45.02258</ele>
        <time>2022-12-19T12:28:18.346Z</time>
      </trkpt>
      <trkpt lat="46.33796" lon="-1.28141">
        <ele>45.110698</ele>
        <time>2022-12-19T12:28:21.321Z</time>
      </trkpt>
      <trkpt lat="46.33799" lon="-1.28124">
        <ele>45.19813</ele>
        <time>2022-12-19T12:28:24.346Z</time>
      </trkpt>
      <trkpt lat="46.33802" lon="-1.28106">
        <ele>45.288495</ele>
        <time>2022-12-19T12:28:27.342Z</time>
      </trkpt>
      <trkpt lat="46.33801" lon="-1.28092">
        <ele>45.353715</ele>
        <time>2022-12-19T12:28:29.347Z</time>
      </trkpt>
      <trkpt lat="46.33798" lon="-1.2808">
        <ele>45.417645</ele>
        <time>2022-12-19T12:28:31.328Z</time>
      </trkpt>
      <trkpt lat="46.33795" lon="-1.28067">
        <ele>45.484866</ele>
        <time>2022-12-19T12:28:33.341Z</time>
      </trkpt>
      <trkpt lat="46.33791" lon="-1.28049">
        <ele>45.579036</ele>
        <time>2022-12-19T12:28:36.339Z</time>
      </trkpt>
      <trkpt lat="46.33789" lon="-1.28031">
        <ele>45.66966</ele>
        <time>2022-12-19T12:28:39.345Z</time>
      </trkpt>
      <trkpt lat="46.33787" lon="-1.28012">
        <ele>45.760166</ele>
        <time>2022-12-19T12:28:42.324Z</time>
      </trkpt>
      <trkpt lat="46.33786" lon="-1.27994">
        <ele>45.851266</ele>
        <time>2022-12-19T12:28:45.342Z</time>
      </trkpt>
      <trkpt lat="46.33784" lon="-1.27976">
        <ele>45.899688</ele>
        <time>2022-12-19T12:28:48.340Z</time>
      </trkpt>
      <trkpt lat="46.33783" lon="-1.27961">
        <ele>45.905175</ele>
        <time>2022-12-19T12:28:51.344Z</time>
      </trkpt>
      <trkpt lat="46.33782" lon="-1.27945">
        <ele>45.910695</ele>
        <time>2022-12-19T12:28:54.330Z</time>
      </trkpt>
      <trkpt lat="46.3378" lon="-1.27928">
        <ele>45.916671</ele>
        <time>2022-12-19T12:28:57.323Z</time>
      </trkpt>
      <trkpt lat="46.33779" lon="-1.27911">
        <ele>45.92275</ele>
        <time>2022-12-19T12:29:00.337Z</time>
      </trkpt>
      <trkpt lat="46.33777" lon="-1.27893">
        <ele>45.928845</ele>
        <time>2022-12-19T12:29:03.332Z</time>
      </trkpt>
      <trkpt lat="46.33776" lon="-1.27876">
        <ele>45.934941</ele>
        <time>2022-12-19T12:29:06.344Z</time>
      </trkpt>
      <trkpt lat="46.33775" lon="-1.27858">
        <ele>45.941022</ele>
        <time>2022-12-19T12:29:09.350Z</time>
      </trkpt>
      <trkpt lat="46.33774" lon="-1.27842">
        <ele>45.946777</ele>
        <time>2022-12-19T12:29:12.342Z</time>
      </trkpt>
      <trkpt lat="46.33773" lon="-1.27827">
        <ele>45.952135</ele>
        <time>2022-12-19T12:29:15.323Z</time>
      </trkpt>
      <trkpt lat="46.33772" lon="-1.27812">
        <ele>45.95734</ele>
        <time>2022-12-19T12:29:18.345Z</time>
      </trkpt>
      <trkpt lat="46.3377" lon="-1.27795">
        <ele>45.963192</ele>
        <time>2022-12-19T12:29:21.343Z</time>
      </trkpt>
      <trkpt lat="46.33769" lon="-1.27778">
        <ele>45.96919</ele>
        <time>2022-12-19T12:29:24.346Z</time>
      </trkpt>
      <trkpt lat="46.33768" lon="-1.27761">
        <ele>45.97534</ele>
        <time>2022-12-19T12:29:27.346Z</time>
      </trkpt>
      <trkpt lat="46.33766" lon="-1.27743">
        <ele>45.98142</ele>
        <time>2022-12-19T12:29:30.344Z</time>
      </trkpt>
      <trkpt lat="46.33764" lon="-1.27726">
        <ele>45.98743</ele>
        <time>2022-12-19T12:29:33.347Z</time>
      </trkpt>
      <trkpt lat="46.33763" lon="-1.27709">
        <ele>46.007517</ele>
        <time>2022-12-19T12:29:36.344Z</time>
      </trkpt>
      <trkpt lat="46.33761" lon="-1.27693">
        <ele>46.026596</ele>
        <time>2022-12-19T12:29:39.342Z</time>
      </trkpt>
      <trkpt lat="46.3376" lon="-1.27678">
        <ele>46.044132</ele>
        <time>2022-12-19T12:29:42.344Z</time>
      </trkpt>
      <trkpt lat="46.33758" lon="-1.27662">
        <ele>46.062864</ele>
        <time>2022-12-19T12:29:45.330Z</time>
      </trkpt>
      <trkpt lat="46.33756" lon="-1.27646">
        <ele>46.082344</ele>
        <time>2022-12-19T12:29:48.342Z</time>
      </trkpt>
      <trkpt lat="46.33754" lon="-1.27629">
        <ele>46.102953</ele>
        <time>2022-12-19T12:29:51.343Z</time>
      </trkpt>
      <trkpt lat="46.33752" lon="-1.27611">
        <ele>46.123394</ele>
        <time>2022-12-19T12:29:54.343Z</time>
      </trkpt>
      <trkpt lat="46.3375" lon="-1.27594">
        <ele>46.143863</ele>
        <time>2022-12-19T12:29:57.342Z</time>
      </trkpt>
      <trkpt lat="46.33748" lon="-1.27577">
        <ele>46.164469</ele>
        <time>2022-12-19T12:30:00.346Z</time>
      </trkpt>
      <trkpt lat="46.33746" lon="-1.27559">
        <ele>46.185402</ele>
        <time>2022-12-19T12:30:03.344Z</time>
      </trkpt>
      <trkpt lat="46.33743" lon="-1.27541">
        <ele>46.207244</ele>
        <time>2022-12-19T12:30:06.341Z</time>
      </trkpt>
      <trkpt lat="46.3374" lon="-1.27523">
        <ele>46.229429</ele>
        <time>2022-12-19T12:30:09.321Z</time>
      </trkpt>
      <trkpt lat="46.33737" lon="-1.27505">
        <ele>46.250933</ele>
        <time>2022-12-19T12:30:12.331Z</time>
      </trkpt>
      <trkpt lat="46.33734" lon="-1.27487">
        <ele>46.272775</ele>
        <time>2022-12-19T12:30:15.334Z</time>
      </trkpt>
      <trkpt lat="46.33732" lon="-1.27468">
        <ele>46.293614</ele>
        <time>2022-12-19T12:30:18.343Z</time>
      </trkpt>
      <trkpt lat="46.3373" lon="-1.27449">
        <ele>46.303359</ele>
        <time>2022-12-19T12:30:21.347Z</time>
      </trkpt>
      <trkpt lat="46.33728" lon="-1.27431">
        <ele>46.31279</ele>
        <time>2022-12-19T12:30:24.331Z</time>
      </trkpt>
      <trkpt lat="46.33726" lon="-1.27412">
        <ele>46.322213</ele>
        <time>2022-12-19T12:30:27.341Z</time>
      </trkpt>
      <trkpt lat="46.33725" lon="-1.27394">
        <ele>46.331484</ele>
        <time>2022-12-19T12:30:30.344Z</time>
      </trkpt>
      <trkpt lat="46.33724" lon="-1.27378">
        <ele>46.339771</ele>
        <time>2022-12-19T12:30:33.344Z</time>
      </trkpt>
      <trkpt lat="46.33723" lon="-1.27362">
        <ele>46.347942</ele>
        <time>2022-12-19T12:30:36.343Z</time>
      </trkpt>
      <trkpt lat="46.33722" lon="-1.27346">
        <ele>46.356159</ele>
        <time>2022-12-19T12:30:39.346Z</time>
      </trkpt>
      <trkpt lat="46.33721" lon="-1.27329">
        <ele>46.364641</ele>
        <time>2022-12-19T12:30:42.327Z</time>
      </trkpt>
      <trkpt lat="46.33721" lon="-1.27313">
        <ele>46.373094</ele>
        <time>2022-12-19T12:30:45.344Z</time>
      </trkpt>
      <trkpt lat="46.3372" lon="-1.27297">
        <ele>46.381412</ele>
        <time>2022-12-19T12:30:48.343Z</time>
      </trkpt>
      <trkpt lat="46.33719" lon="-1.2728">
        <ele>46.390031</ele>
        <time>2022-12-19T12:30:51.342Z</time>
      </trkpt>
      <trkpt lat="46.33718" lon="-1.27263">
        <ele>46.398672</ele>
        <time>2022-12-19T12:30:54.334Z</time>
      </trkpt>
      <trkpt lat="46.33718" lon="-1.27246">
        <ele>46.407432</ele>
        <time>2022-12-19T12:30:57.343Z</time>
      </trkpt>
      <trkpt lat="46.33717" lon="-1.27229">
        <ele>46.416111</ele>
        <time>2022-12-19T12:31:00.342Z</time>
      </trkpt>
      <trkpt lat="46.33716" lon="-1.27212">
        <ele>46.424734</ele>
        <time>2022-12-19T12:31:03.340Z</time>
      </trkpt>
      <trkpt lat="46.33716" lon="-1.27194">
        <ele>46.439785</ele>
        <time>2022-12-19T12:31:06.342Z</time>
      </trkpt>
      <trkpt lat="46.33716" lon="-1.27176">
        <ele>46.455388</ele>
        <time>2022-12-19T12:31:09.341Z</time>
      </trkpt>
      <trkpt lat="46.33715" lon="-1.27158">
        <ele>46.471263</ele>
        <time>2022-12-19T12:31:12.344Z</time>
      </trkpt>
      <trkpt lat="46.33715" lon="-1.27141">
        <ele>46.48635</ele>
        <time>2022-12-19T12:31:15.344Z</time>
      </trkpt>
      <trkpt lat="46.33714" lon="-1.27125">
        <ele>46.500834</ele>
        <time>2022-12-19T12:31:18.345Z</time>
      </trkpt>
      <trkpt lat="46.33714" lon="-1.27109">
        <ele>46.515292</ele>
        <time>2022-12-19T12:31:21.346Z</time>
      </trkpt>
      <trkpt lat="46.33714" lon="-1.27092">
        <ele>46.530015</ele>
        <time>2022-12-19T12:31:24.343Z</time>
      </trkpt>
      <trkpt lat="46.33714" lon="-1.27075">
        <ele>46.545273</ele>
        <time>2022-12-19T12:31:27.335Z</time>
      </trkpt>
      <trkpt lat="46.33714" lon="-1.2706">
        <ele>46.558502</ele>
        <time>2022-12-19T12:31:30.349Z</time>
      </trkpt>
      <trkpt lat="46.33715" lon="-1.27044">
        <ele>46.572439</ele>
        <time>2022-12-19T12:31:33.340Z</time>
      </trkpt>
      <trkpt lat="46.33715" lon="-1.27027">
        <ele>46.587257</ele>
        <time>2022-12-19T12:31:36.342Z</time>
      </trkpt>
      <trkpt lat="46.33716" lon="-1.2701">
        <ele>46.60235</ele>
        <time>2022-12-19T12:31:39.344Z</time>
      </trkpt>
      <trkpt lat="46.33716" lon="-1.26992">
        <ele>46.61781</ele>
        <time>2022-12-19T12:31:42.344Z</time>
      </trkpt>
      <trkpt lat="46.33717" lon="-1.26975">
        <ele>46.632991</ele>
        <time>2022-12-19T12:31:45.334Z</time>
      </trkpt>
      <trkpt lat="46.33718" lon="-1.26958">
        <ele>46.648258</ele>
        <time>2022-12-19T12:31:48.343Z</time>
      </trkpt>
      <trkpt lat="46.33719" lon="-1.2694">
        <ele>46.640217</ele>
        <time>2022-12-19T12:31:51.346Z</time>
      </trkpt>
      <trkpt lat="46.3372" lon="-1.26924">
        <ele>46.616455</ele>
        <time>2022-12-19T12:31:54.346Z</time>
      </trkpt>
      <trkpt lat="46.3372" lon="-1.26909">
        <ele>46.595692</ele>
        <time>2022-12-19T12:31:57.349Z</time>
      </trkpt>
      <trkpt lat="46.33721" lon="-1.26894">
        <ele>46.573896</ele>
        <time>2022-12-19T12:32:00.347Z</time>
      </trkpt>
      <trkpt lat="46.33722" lon="-1.26878">
        <ele>46.550234</ele>
        <time>2022-12-19T12:32:03.339Z</time>
      </trkpt>
      <trkpt lat="46.33723" lon="-1.26861">
        <ele>46.525838</ele>
        <time>2022-12-19T12:32:06.346Z</time>
      </trkpt>
      <trkpt lat="46.33724" lon="-1.26843">
        <ele>46.500582</ele>
        <time>2022-12-19T12:32:09.345Z</time>
      </trkpt>
      <trkpt lat="46.33725" lon="-1.26826">
        <ele>46.474985</ele>
        <time>2022-12-19T12:32:12.345Z</time>
      </trkpt>
      <trkpt lat="46.33726" lon="-1.26808">
        <ele>46.449694</ele>
        <time>2022-12-19T12:32:15.345Z</time>
      </trkpt>
      <trkpt lat="46.33727" lon="-1.26791">
        <ele>46.424294</ele>
        <time>2022-12-19T12:32:18.342Z</time>
      </trkpt>
      <trkpt lat="46.33728" lon="-1.26773">
        <ele>46.398463</ele>
        <time>2022-12-19T12:32:21.342Z</time>
      </trkpt>
      <trkpt lat="46.33729" lon="-1.26754">
        <ele>46.371863</ele>
        <time>2022-12-19T12:32:24.347Z</time>
      </trkpt>
      <trkpt lat="46.3373" lon="-1.26738">
        <ele>46.348508</ele>
        <time>2022-12-19T12:32:27.346Z</time>
      </trkpt>
      <trkpt lat="46.33732" lon="-1.26725">
        <ele>46.328576</ele>
        <time>2022-12-19T12:32:30.342Z</time>
      </trkpt>
      <trkpt lat="46.33733" lon="-1.26711">
        <ele>46.309464</ele>
        <time>2022-12-19T12:32:33.342Z</time>
      </trkpt>
      <trkpt lat="46.33734" lon="-1.26697">
        <ele>46.287964</ele>
        <time>2022-12-19T12:32:36.340Z</time>
      </trkpt>
      <trkpt lat="46.33736" lon="-1.26681">
        <ele>46.274308</ele>
        <time>2022-12-19T12:32:39.331Z</time>
      </trkpt>
      <trkpt lat="46.33738" lon="-1.26664">
        <ele>46.265178</ele>
        <time>2022-12-19T12:32:42.343Z</time>
      </trkpt>
      <trkpt lat="46.3374" lon="-1.26647">
        <ele>46.255781</ele>
        <time>2022-12-19T12:32:45.351Z</time>
      </trkpt>
      <trkpt lat="46.33743" lon="-1.2663">
        <ele>46.246238</ele>
        <time>2022-12-19T12:32:48.344Z</time>
      </trkpt>
      <trkpt lat="46.33747" lon="-1.26613">
        <ele>46.236614</ele>
        <time>2022-12-19T12:32:51.343Z</time>
      </trkpt>
      <trkpt lat="46.33753" lon="-1.26596">
        <ele>46.226778</ele>
        <time>2022-12-19T12:32:54.344Z</time>
      </trkpt>
      <trkpt lat="46.33758" lon="-1.26579">
        <ele>46.216828</ele>
        <time>2022-12-19T12:32:57.337Z</time>
      </trkpt>
      <trkpt lat="46.33763" lon="-1.26565">
        <ele>46.207847</ele>
        <time>2022-12-19T12:33:00.344Z</time>
      </trkpt>
      <trkpt lat="46.33769" lon="-1.26551">
        <ele>46.199357</ele>
        <time>2022-12-19T12:33:03.346Z</time>
      </trkpt>
      <trkpt lat="46.33775" lon="-1.26536">
        <ele>46.190042</ele>
        <time>2022-12-19T12:33:06.346Z</time>
      </trkpt>
      <trkpt lat="46.33783" lon="-1.26522">
        <ele>46.180085</ele>
        <time>2022-12-19T12:33:09.344Z</time>
      </trkpt>
      <trkpt lat="46.33791" lon="-1.26508">
        <ele>46.170114</ele>
        <time>2022-12-19T12:33:12.345Z</time>
      </trkpt>
      <trkpt lat="46.33799" lon="-1.26494">
        <ele>46.160183</ele>
        <time>2022-12-19T12:33:15.342Z</time>
      </trkpt>
      <trkpt lat="46.3381" lon="-1.26481">
        <ele>46.149783</ele>
        <time>2022-12-19T12:33:18.320Z</time>
      </trkpt>
      <trkpt lat="46.33817" lon="-1.26472">
        <ele>46.142398</ele>
        <time>2022-12-19T12:33:20.339Z</time>
      </trkpt>
      <trkpt lat="46.33824" lon="-1.26463">
        <ele>46.148407</ele>
        <time>2022-12-19T12:33:22.328Z</time>
      </trkpt>
      <trkpt lat="46.33832" lon="-1.26455">
        <ele>46.162491</ele>
        <time>2022-12-19T12:33:24.321Z</time>
      </trkpt>
      <trkpt lat="46.3384" lon="-1.26447">
        <ele>46.177363</ele>
        <time>2022-12-19T12:33:26.342Z</time>
      </trkpt>
      <trkpt lat="46.33849" lon="-1.26439">
        <ele>46.191691</ele>
        <time>2022-12-19T12:33:28.345Z</time>
      </trkpt>
      <trkpt lat="46.33857" lon="-1.26432">
        <ele>46.206098</ele>
        <time>2022-12-19T12:33:30.345Z</time>
      </trkpt>
      <trkpt lat="46.33866" lon="-1.26426">
        <ele>46.22074</ele>
        <time>2022-12-19T12:33:32.338Z</time>
      </trkpt>
      <trkpt lat="46.33875" lon="-1.26421">
        <ele>46.235141</ele>
        <time>2022-12-19T12:33:34.334Z</time>
      </trkpt>
      <trkpt lat="46.33885" lon="-1.26417">
        <ele>46.249169</ele>
        <time>2022-12-19T12:33:36.347Z</time>
      </trkpt>
      <trkpt lat="46.33893" lon="-1.26412">
        <ele>46.262938</ele>
        <time>2022-12-19T12:33:38.346Z</time>
      </trkpt>
      <trkpt lat="46.33902" lon="-1.26407">
        <ele>46.276499</ele>
        <time>2022-12-19T12:33:40.323Z</time>
      </trkpt>
      <trkpt lat="46.33911" lon="-1.26403">
        <ele>46.290031</ele>
        <time>2022-12-19T12:33:42.349Z</time>
      </trkpt>
      <trkpt lat="46.3392" lon="-1.26399">
        <ele>46.303862</ele>
        <time>2022-12-19T12:33:44.324Z</time>
      </trkpt>
      <trkpt lat="46.33929" lon="-1.26394">
        <ele>46.318556</ele>
        <time>2022-12-19T12:33:46.346Z</time>
      </trkpt>
      <trkpt lat="46.3394" lon="-1.2639">
        <ele>46.334268</ele>
        <time>2022-12-19T12:33:48.344Z</time>
      </trkpt>
      <trkpt lat="46.3395" lon="-1.26386">
        <ele>46.35005</ele>
        <time>2022-12-19T12:33:50.393Z</time>
      </trkpt>
      <trkpt lat="46.33961" lon="-1.26382">
        <ele>46.365765</ele>
        <time>2022-12-19T12:33:52.342Z</time>
      </trkpt>
      <trkpt lat="46.33971" lon="-1.26378">
        <ele>46.380889</ele>
        <time>2022-12-19T12:33:54.345Z</time>
      </trkpt>
      <trkpt lat="46.33981" lon="-1.26373">
        <ele>46.396352</ele>
        <time>2022-12-19T12:33:56.396Z</time>
      </trkpt>
      <trkpt lat="46.33992" lon="-1.26369">
        <ele>46.419306</ele>
        <time>2022-12-19T12:33:58.348Z</time>
      </trkpt>
      <trkpt lat="46.34003" lon="-1.26365">
        <ele>46.446991</ele>
        <time>2022-12-19T12:34:00.346Z</time>
      </trkpt>
      <trkpt lat="46.34014" lon="-1.26362">
        <ele>46.473184</ele>
        <time>2022-12-19T12:34:02.428Z</time>
      </trkpt>
      <trkpt lat="46.34024" lon="-1.26358">
        <ele>46.498271</ele>
        <time>2022-12-19T12:34:04.345Z</time>
      </trkpt>
      <trkpt lat="46.34034" lon="-1.26354">
        <ele>46.522591</ele>
        <time>2022-12-19T12:34:06.345Z</time>
      </trkpt>
      <trkpt lat="46.34043" lon="-1.2635">
        <ele>46.545489</ele>
        <time>2022-12-19T12:34:08.390Z</time>
      </trkpt>
      <trkpt lat="46.34053" lon="-1.26347">
        <ele>46.569351</ele>
        <time>2022-12-19T12:34:10.346Z</time>
      </trkpt>
      <trkpt lat="46.34063" lon="-1.26343">
        <ele>46.593254</ele>
        <time>2022-12-19T12:34:12.345Z</time>
      </trkpt>
      <trkpt lat="46.34072" lon="-1.2634">
        <ele>46.615015</ele>
        <time>2022-12-19T12:34:14.358Z</time>
      </trkpt>
      <trkpt lat="46.34081" lon="-1.26337">
        <ele>46.637425</ele>
        <time>2022-12-19T12:34:16.320Z</time>
      </trkpt>
      <trkpt lat="46.34094" lon="-1.26331">
        <ele>46.66921</ele>
        <time>2022-12-19T12:34:19.346Z</time>
      </trkpt>
      <trkpt lat="46.34104" lon="-1.26328">
        <ele>46.692957</ele>
        <time>2022-12-19T12:34:21.347Z</time>
      </trkpt>
      <trkpt lat="46.34114" lon="-1.26324">
        <ele>46.717172</ele>
        <time>2022-12-19T12:34:23.344Z</time>
      </trkpt>
      <trkpt lat="46.34123" lon="-1.26321">
        <ele>46.740206</ele>
        <time>2022-12-19T12:34:25.346Z</time>
      </trkpt>
      <trkpt lat="46.34133" lon="-1.26317">
        <ele>46.764509</ele>
        <time>2022-12-19T12:34:27.327Z</time>
      </trkpt>
      <trkpt lat="46.34144" lon="-1.26313">
        <ele>46.791008</ele>
        <time>2022-12-19T12:34:29.332Z</time>
      </trkpt>
      <trkpt lat="46.34154" lon="-1.26309">
        <ele>46.816016</ele>
        <time>2022-12-19T12:34:31.345Z</time>
      </trkpt>
      <trkpt lat="46.34165" lon="-1.26305">
        <ele>46.842596</ele>
        <time>2022-12-19T12:34:33.346Z</time>
      </trkpt>
      <trkpt lat="46.34176" lon="-1.26302">
        <ele>46.868653</ele>
        <time>2022-12-19T12:34:35.345Z</time>
      </trkpt>
      <trkpt lat="46.34186" lon="-1.26299">
        <ele>46.894821</ele>
        <time>2022-12-19T12:34:37.346Z</time>
      </trkpt>
      <trkpt lat="46.34197" lon="-1.26295">
        <ele>46.9215</ele>
        <time>2022-12-19T12:34:39.345Z</time>
      </trkpt>
      <trkpt lat="46.34208" lon="-1.26291">
        <ele>46.949241</ele>
        <time>2022-12-19T12:34:41.345Z</time>
      </trkpt>
      <trkpt lat="46.34219" lon="-1.26286">
        <ele>46.977384</ele>
        <time>2022-12-19T12:34:43.345Z</time>
      </trkpt>
      <trkpt lat="46.3423" lon="-1.26283">
        <ele>47.004153</ele>
        <time>2022-12-19T12:34:45.344Z</time>
      </trkpt>
      <trkpt lat="46.3424" lon="-1.26279">
        <ele>47.028757</ele>
        <time>2022-12-19T12:34:47.347Z</time>
      </trkpt>
      <trkpt lat="46.3425" lon="-1.26276">
        <ele>47.053831</ele>
        <time>2022-12-19T12:34:49.347Z</time>
      </trkpt>
      <trkpt lat="46.3426" lon="-1.26273">
        <ele>47.077839</ele>
        <time>2022-12-19T12:34:51.347Z</time>
      </trkpt>
      <trkpt lat="46.34269" lon="-1.26269">
        <ele>47.101377</ele>
        <time>2022-12-19T12:34:53.342Z</time>
      </trkpt>
      <trkpt lat="46.34279" lon="-1.26265">
        <ele>47.125513</ele>
        <time>2022-12-19T12:34:55.363Z</time>
      </trkpt>
      <trkpt lat="46.34289" lon="-1.26261">
        <ele>47.151609</ele>
        <time>2022-12-19T12:34:57.322Z</time>
      </trkpt>
      <trkpt lat="46.343" lon="-1.26258">
        <ele>47.178344</ele>
        <time>2022-12-19T12:34:59.347Z</time>
      </trkpt>
      <trkpt lat="46.3431" lon="-1.26255">
        <ele>47.204748</ele>
        <time>2022-12-19T12:35:01.344Z</time>
      </trkpt>
      <trkpt lat="46.34322" lon="-1.26251">
        <ele>47.232646</ele>
        <time>2022-12-19T12:35:03.347Z</time>
      </trkpt>
      <trkpt lat="46.34332" lon="-1.26247">
        <ele>47.259254</ele>
        <time>2022-12-19T12:35:05.346Z</time>
      </trkpt>
      <trkpt lat="46.34343" lon="-1.26243">
        <ele>47.257836</ele>
        <time>2022-12-19T12:35:07.344Z</time>
      </trkpt>
      <trkpt lat="46.34354" lon="-1.26239">
        <ele>47.251847</ele>
        <time>2022-12-19T12:35:09.340Z</time>
      </trkpt>
      <trkpt lat="46.34364" lon="-1.26236">
        <ele>47.24625</ele>
        <time>2022-12-19T12:35:11.344Z</time>
      </trkpt>
      <trkpt lat="46.34374" lon="-1.26233">
        <ele>47.24063</ele>
        <time>2022-12-19T12:35:13.346Z</time>
      </trkpt>
      <trkpt lat="46.34384" lon="-1.2623">
        <ele>47.235411</ele>
        <time>2022-12-19T12:35:15.344Z</time>
      </trkpt>
      <trkpt lat="46.34396" lon="-1.26225">
        <ele>47.228502</ele>
        <time>2022-12-19T12:35:18.346Z</time>
      </trkpt>
      <trkpt lat="46.34409" lon="-1.26223">
        <ele>47.221594</ele>
        <time>2022-12-19T12:35:21.347Z</time>
      </trkpt>
      <trkpt lat="46.34418" lon="-1.26219">
        <ele>47.216686</ele>
        <time>2022-12-19T12:35:23.345Z</time>
      </trkpt>
      <trkpt lat="46.34427" lon="-1.26215">
        <ele>47.211645</ele>
        <time>2022-12-19T12:35:25.345Z</time>
      </trkpt>
      <trkpt lat="46.34437" lon="-1.26212">
        <ele>47.206085</ele>
        <time>2022-12-19T12:35:27.330Z</time>
      </trkpt>
      <trkpt lat="46.34446" lon="-1.26209">
        <ele>47.201038</ele>
        <time>2022-12-19T12:35:29.345Z</time>
      </trkpt>
      <trkpt lat="46.34456" lon="-1.26206">
        <ele>47.19561</ele>
        <time>2022-12-19T12:35:31.346Z</time>
      </trkpt>
      <trkpt lat="46.34466" lon="-1.26203">
        <ele>47.190208</ele>
        <time>2022-12-19T12:35:33.348Z</time>
      </trkpt>
      <trkpt lat="46.34476" lon="-1.262">
        <ele>47.184744</ele>
        <time>2022-12-19T12:35:35.327Z</time>
      </trkpt>
      <trkpt lat="46.34485" lon="-1.26197">
        <ele>47.179325</ele>
        <time>2022-12-19T12:35:37.345Z</time>
      </trkpt>
      <trkpt lat="46.34496" lon="-1.26194">
        <ele>47.173682</ele>
        <time>2022-12-19T12:35:39.332Z</time>
      </trkpt>
      <trkpt lat="46.34506" lon="-1.2619">
        <ele>47.16815</ele>
        <time>2022-12-19T12:35:41.345Z</time>
      </trkpt>
      <trkpt lat="46.34516" lon="-1.26187">
        <ele>47.169761</ele>
        <time>2022-12-19T12:35:43.400Z</time>
      </trkpt>
      <trkpt lat="46.34526" lon="-1.26185">
        <ele>47.174869</ele>
        <time>2022-12-19T12:35:45.345Z</time>
      </trkpt>
      <trkpt lat="46.34536" lon="-1.26181">
        <ele>47.180033</ele>
        <time>2022-12-19T12:35:47.346Z</time>
      </trkpt>
      <trkpt lat="46.34546" lon="-1.26177">
        <ele>47.18544</ele>
        <time>2022-12-19T12:35:49.397Z</time>
      </trkpt>
      <trkpt lat="46.34557" lon="-1.26174">
        <ele>47.190591</ele>
        <time>2022-12-19T12:35:51.346Z</time>
      </trkpt>
      <trkpt lat="46.34566" lon="-1.26171">
        <ele>47.195504</ele>
        <time>2022-12-19T12:35:53.343Z</time>
      </trkpt>
      <trkpt lat="46.34575" lon="-1.26169">
        <ele>47.200236</ele>
        <time>2022-12-19T12:35:55.410Z</time>
      </trkpt>
      <trkpt lat="46.34585" lon="-1.26165">
        <ele>47.204922</ele>
        <time>2022-12-19T12:35:57.345Z</time>
      </trkpt>
      <trkpt lat="46.34597" lon="-1.26161">
        <ele>47.211138</ele>
        <time>2022-12-19T12:36:00.334Z</time>
      </trkpt>
      <trkpt lat="46.34606" lon="-1.26158">
        <ele>47.215808</ele>
        <time>2022-12-19T12:36:02.344Z</time>
      </trkpt>
      <trkpt lat="46.34615" lon="-1.26155">
        <ele>47.220491</ele>
        <time>2022-12-19T12:36:04.348Z</time>
      </trkpt>
      <trkpt lat="46.34625" lon="-1.26153">
        <ele>47.225432</ele>
        <time>2022-12-19T12:36:06.345Z</time>
      </trkpt>
      <trkpt lat="46.34634" lon="-1.2615">
        <ele>47.230206</ele>
        <time>2022-12-19T12:36:08.348Z</time>
      </trkpt>
      <trkpt lat="46.34644" lon="-1.26147">
        <ele>47.235079</ele>
        <time>2022-12-19T12:36:10.349Z</time>
      </trkpt>
      <trkpt lat="46.34653" lon="-1.26144">
        <ele>47.239805</ele>
        <time>2022-12-19T12:36:12.346Z</time>
      </trkpt>
      <trkpt lat="46.34666" lon="-1.26139">
        <ele>47.246808</ele>
        <time>2022-12-19T12:36:15.341Z</time>
      </trkpt>
      <trkpt lat="46.34676" lon="-1.26136">
        <ele>47.25194</ele>
        <time>2022-12-19T12:36:17.319Z</time>
      </trkpt>
      <trkpt lat="46.34686" lon="-1.26133">
        <ele>47.25337</ele>
        <time>2022-12-19T12:36:19.391Z</time>
      </trkpt>
      <trkpt lat="46.34696" lon="-1.2613">
        <ele>47.237171</ele>
        <time>2022-12-19T12:36:21.344Z</time>
      </trkpt>
      <trkpt lat="46.34705" lon="-1.26127">
        <ele>47.221779</ele>
        <time>2022-12-19T12:36:23.345Z</time>
      </trkpt>
      <trkpt lat="46.34714" lon="-1.26125">
        <ele>47.205867</ele>
        <time>2022-12-19T12:36:25.397Z</time>
      </trkpt>
      <trkpt lat="46.34726" lon="-1.26121">
        <ele>47.184729</ele>
        <time>2022-12-19T12:36:28.345Z</time>
      </trkpt>
      <trkpt lat="46.34738" lon="-1.26117">
        <ele>47.164721</ele>
        <time>2022-12-19T12:36:31.399Z</time>
      </trkpt>
      <trkpt lat="46.34749" lon="-1.26114">
        <ele>47.145971</ele>
        <time>2022-12-19T12:36:34.346Z</time>
      </trkpt>
      <trkpt lat="46.3476" lon="-1.2611">
        <ele>47.126869</ele>
        <time>2022-12-19T12:36:37.394Z</time>
      </trkpt>
      <trkpt lat="46.34772" lon="-1.26106">
        <ele>47.106599</ele>
        <time>2022-12-19T12:36:40.329Z</time>
      </trkpt>
      <trkpt lat="46.34785" lon="-1.26102">
        <ele>47.085068</ele>
        <time>2022-12-19T12:36:43.396Z</time>
      </trkpt>
      <trkpt lat="46.34798" lon="-1.26098">
        <ele>47.06281</ele>
        <time>2022-12-19T12:36:46.345Z</time>
      </trkpt>
      <trkpt lat="46.34806" lon="-1.26096">
        <ele>47.047768</ele>
        <time>2022-12-19T12:36:48.344Z</time>
      </trkpt>
      <trkpt lat="46.34819" lon="-1.26091">
        <ele>47.026278</ele>
        <time>2022-12-19T12:36:51.352Z</time>
      </trkpt>
      <trkpt lat="46.34831" lon="-1.26086">
        <ele>47.005688</ele>
        <time>2022-12-19T12:36:54.345Z</time>
      </trkpt>
      <trkpt lat="46.34841" lon="-1.26078">
        <ele>46.985746</ele>
        <time>2022-12-19T12:36:57.344Z</time>
      </trkpt>
      <trkpt lat="46.34849" lon="-1.26064">
        <ele>46.96502</ele>
        <time>2022-12-19T12:37:00.341Z</time>
      </trkpt>
      <trkpt lat="46.34855" lon="-1.26047">
        <ele>47.002209</ele>
        <time>2022-12-19T12:37:03.342Z</time>
      </trkpt>
      <trkpt lat="46.3486" lon="-1.26029">
        <ele>47.088864</ele>
        <time>2022-12-19T12:37:06.391Z</time>
      </trkpt>
      <trkpt lat="46.34864" lon="-1.26011">
        <ele>47.176041</ele>
        <time>2022-12-19T12:37:09.343Z</time>
      </trkpt>
      <trkpt lat="46.34867" lon="-1.25997">
        <ele>47.239671</ele>
        <time>2022-12-19T12:37:11.345Z</time>
      </trkpt>
      <trkpt lat="46.34871" lon="-1.25984">
        <ele>47.303362</ele>
        <time>2022-12-19T12:37:13.344Z</time>
      </trkpt>
      <trkpt lat="46.34874" lon="-1.2597">
        <ele>47.370245</ele>
        <time>2022-12-19T12:37:15.341Z</time>
      </trkpt>
      <trkpt lat="46.34876" lon="-1.25956">
        <ele>47.433141</ele>
        <time>2022-12-19T12:37:17.344Z</time>
      </trkpt>
      <trkpt lat="46.34878" lon="-1.25943">
        <ele>47.493211</ele>
        <time>2022-12-19T12:37:19.347Z</time>
      </trkpt>
      <trkpt lat="46.34881" lon="-1.2593">
        <ele>47.552841</ele>
        <time>2022-12-19T12:37:21.344Z</time>
      </trkpt>
      <trkpt lat="46.34883" lon="-1.25917">
        <ele>47.612629</ele>
        <time>2022-12-19T12:37:23.330Z</time>
      </trkpt>
      <trkpt lat="46.34886" lon="-1.25899">
        <ele>47.694555</ele>
        <time>2022-12-19T12:37:26.345Z</time>
      </trkpt>
      <trkpt lat="46.34888" lon="-1.25883">
        <ele>47.771675</ele>
        <time>2022-12-19T12:37:29.392Z</time>
      </trkpt>
      <trkpt lat="46.34891" lon="-1.25866">
        <ele>47.850422</ele>
        <time>2022-12-19T12:37:32.344Z</time>
      </trkpt>
      <trkpt lat="46.34893" lon="-1.25847">
        <ele>47.932895</ele>
        <time>2022-12-19T12:37:35.396Z</time>
      </trkpt>
      <trkpt lat="46.34895" lon="-1.25829">
        <ele>48.01825</ele>
        <time>2022-12-19T12:37:38.348Z</time>
      </trkpt>
      <trkpt lat="46.34898" lon="-1.2581">
        <ele>48.102972</ele>
        <time>2022-12-19T12:37:41.395Z</time>
      </trkpt>
      <trkpt lat="46.349" lon="-1.25792">
        <ele>48.104258</ele>
        <time>2022-12-19T12:37:44.345Z</time>
      </trkpt>
      <trkpt lat="46.34902" lon="-1.25775">
        <ele>48.078451</ele>
        <time>2022-12-19T12:37:47.399Z</time>
      </trkpt>
      <trkpt lat="46.34904" lon="-1.25759">
        <ele>48.055214</ele>
        <time>2022-12-19T12:37:50.346Z</time>
      </trkpt>
      <trkpt lat="46.34906" lon="-1.25743">
        <ele>48.031782</ele>
        <time>2022-12-19T12:37:53.415Z</time>
      </trkpt>
      <trkpt lat="46.34907" lon="-1.25727">
        <ele>48.006804</ele>
        <time>2022-12-19T12:37:56.345Z</time>
      </trkpt>
      <trkpt lat="46.3491" lon="-1.25709">
        <ele>47.979909</ele>
        <time>2022-12-19T12:37:59.404Z</time>
      </trkpt>
      <trkpt lat="46.34913" lon="-1.2569">
        <ele>47.951464</ele>
        <time>2022-12-19T12:38:02.344Z</time>
      </trkpt>
      <trkpt lat="46.34915" lon="-1.25672">
        <ele>47.925078</ele>
        <time>2022-12-19T12:38:05.397Z</time>
      </trkpt>
      <trkpt lat="46.34917" lon="-1.25655">
        <ele>47.899729</ele>
        <time>2022-12-19T12:38:08.344Z</time>
      </trkpt>
      <trkpt lat="46.3492" lon="-1.25639">
        <ele>47.874714</ele>
        <time>2022-12-19T12:38:11.399Z</time>
      </trkpt>
      <trkpt lat="46.34923" lon="-1.25622">
        <ele>47.849898</ele>
        <time>2022-12-19T12:38:14.345Z</time>
      </trkpt>
      <trkpt lat="46.34926" lon="-1.25605">
        <ele>47.823409</ele>
        <time>2022-12-19T12:38:17.363Z</time>
      </trkpt>
      <trkpt lat="46.34929" lon="-1.25585">
        <ele>47.793819</ele>
        <time>2022-12-19T12:38:20.344Z</time>
      </trkpt>
      <trkpt lat="46.34932" lon="-1.25568">
        <ele>47.768015</ele>
        <time>2022-12-19T12:38:23.333Z</time>
      </trkpt>
      <trkpt lat="46.34935" lon="-1.25551">
        <ele>47.742353</ele>
        <time>2022-12-19T12:38:26.346Z</time>
      </trkpt>
      <trkpt lat="46.34938" lon="-1.25535">
        <ele>47.767001</ele>
        <time>2022-12-19T12:38:29.345Z</time>
      </trkpt>
      <trkpt lat="46.3494" lon="-1.25518">
        <ele>47.795518</ele>
        <time>2022-12-19T12:38:32.347Z</time>
      </trkpt>
      <trkpt lat="46.34943" lon="-1.255">
        <ele>47.824717</ele>
        <time>2022-12-19T12:38:35.344Z</time>
      </trkpt>
      <trkpt lat="46.34946" lon="-1.25483">
        <ele>47.854185</ele>
        <time>2022-12-19T12:38:38.345Z</time>
      </trkpt>
      <trkpt lat="46.3495" lon="-1.25466">
        <ele>47.882371</ele>
        <time>2022-12-19T12:38:41.343Z</time>
      </trkpt>
      <trkpt lat="46.34951" lon="-1.2545">
        <ele>47.909009</ele>
        <time>2022-12-19T12:38:44.345Z</time>
      </trkpt>
      <trkpt lat="46.34954" lon="-1.25436">
        <ele>47.932248</ele>
        <time>2022-12-19T12:38:47.343Z</time>
      </trkpt>
      <trkpt lat="46.34956" lon="-1.2542">
        <ele>47.957674</ele>
        <time>2022-12-19T12:38:50.347Z</time>
      </trkpt>
      <trkpt lat="46.34959" lon="-1.25403">
        <ele>47.985833</ele>
        <time>2022-12-19T12:38:53.345Z</time>
      </trkpt>
      <trkpt lat="46.34962" lon="-1.25385">
        <ele>48.01614</ele>
        <time>2022-12-19T12:38:56.345Z</time>
      </trkpt>
      <trkpt lat="46.34964" lon="-1.25372">
        <ele>48.03725</ele>
        <time>2022-12-19T12:38:58.396Z</time>
      </trkpt>
      <trkpt lat="46.34966" lon="-1.25359">
        <ele>48.059121</ele>
        <time>2022-12-19T12:39:00.340Z</time>
      </trkpt>
      <trkpt lat="46.34968" lon="-1.25346">
        <ele>48.081086</ele>
        <time>2022-12-19T12:39:02.345Z</time>
      </trkpt>
      <trkpt lat="46.3497" lon="-1.25333">
        <ele>48.102946</ele>
        <time>2022-12-19T12:39:04.346Z</time>
      </trkpt>
      <trkpt lat="46.34972" lon="-1.2532">
        <ele>48.124194</ele>
        <time>2022-12-19T12:39:06.347Z</time>
      </trkpt>
      <trkpt lat="46.34975" lon="-1.25306">
        <ele>48.147495</ele>
        <time>2022-12-19T12:39:08.345Z</time>
      </trkpt>
      <trkpt lat="46.34978" lon="-1.25292">
        <ele>48.182035</ele>
        <time>2022-12-19T12:39:10.345Z</time>
      </trkpt>
      <trkpt lat="46.3498" lon="-1.25272">
        <ele>48.258397</ele>
        <time>2022-12-19T12:39:13.345Z</time>
      </trkpt>
      <trkpt lat="46.34982" lon="-1.25258">
        <ele>48.312832</ele>
        <time>2022-12-19T12:39:15.395Z</time>
      </trkpt>
      <trkpt lat="46.34985" lon="-1.25245">
        <ele>48.362501</ele>
        <time>2022-12-19T12:39:17.347Z</time>
      </trkpt>
      <trkpt lat="46.34987" lon="-1.25227">
        <ele>48.430054</ele>
        <time>2022-12-19T12:39:20.345Z</time>
      </trkpt>
      <trkpt lat="46.3499" lon="-1.25211">
        <ele>48.491111</ele>
        <time>2022-12-19T12:39:23.346Z</time>
      </trkpt>
      <trkpt lat="46.34991" lon="-1.25195">
        <ele>48.551141</ele>
        <time>2022-12-19T12:39:26.347Z</time>
      </trkpt>
      <trkpt lat="46.34994" lon="-1.25177">
        <ele>48.618582</ele>
        <time>2022-12-19T12:39:29.348Z</time>
      </trkpt>
      <trkpt lat="46.34997" lon="-1.25164">
        <ele>48.669589</ele>
        <time>2022-12-19T12:39:31.345Z</time>
      </trkpt>
      <trkpt lat="46.35001" lon="-1.25152">
        <ele>48.718734</ele>
        <time>2022-12-19T12:39:33.398Z</time>
      </trkpt>
      <trkpt lat="46.35007" lon="-1.25135">
        <ele>48.789933</ele>
        <time>2022-12-19T12:39:36.346Z</time>
      </trkpt>
      <trkpt lat="46.35012" lon="-1.25124">
        <ele>48.841368</ele>
        <time>2022-12-19T12:39:38.345Z</time>
      </trkpt>
      <trkpt lat="46.35018" lon="-1.25112">
        <ele>48.895865</ele>
        <time>2022-12-19T12:39:40.352Z</time>
      </trkpt>
      <trkpt lat="46.35024" lon="-1.251">
        <ele>48.951593</ele>
        <time>2022-12-19T12:39:42.346Z</time>
      </trkpt>
      <trkpt lat="46.35029" lon="-1.25089">
        <ele>49.000888</ele>
        <time>2022-12-19T12:39:44.346Z</time>
      </trkpt>
      <trkpt lat="46.35037" lon="-1.25073">
        <ele>49.071917</ele>
        <time>2022-12-19T12:39:47.344Z</time>
      </trkpt>
      <trkpt lat="46.35044" lon="-1.25057">
        <ele>49.15052</ele>
        <time>2022-12-19T12:39:50.330Z</time>
      </trkpt>
      <trkpt lat="46.35051" lon="-1.25042">
        <ele>49.271541</ele>
        <time>2022-12-19T12:39:53.348Z</time>
      </trkpt>
      <trkpt lat="46.35058" lon="-1.25027">
        <ele>49.387204</ele>
        <time>2022-12-19T12:39:56.349Z</time>
      </trkpt>
      <trkpt lat="46.35065" lon="-1.25012">
        <ele>49.505029</ele>
        <time>2022-12-19T12:39:59.342Z</time>
      </trkpt>
      <trkpt lat="46.35073" lon="-1.24996">
        <ele>49.63082</ele>
        <time>2022-12-19T12:40:02.346Z</time>
      </trkpt>
      <trkpt lat="46.35078" lon="-1.24985">
        <ele>49.716154</ele>
        <time>2022-12-19T12:40:04.345Z</time>
      </trkpt>
      <trkpt lat="46.35085" lon="-1.2497">
        <ele>49.834544</ele>
        <time>2022-12-19T12:40:07.348Z</time>
      </trkpt>
      <trkpt lat="46.35094" lon="-1.24956">
        <ele>49.958289</ele>
        <time>2022-12-19T12:40:10.335Z</time>
      </trkpt>
      <trkpt lat="46.35101" lon="-1.24947">
        <ele>50.04471</ele>
        <time>2022-12-19T12:40:12.319Z</time>
      </trkpt>
      <trkpt lat="46.3511" lon="-1.24933">
        <ele>50.166389</ele>
        <time>2022-12-19T12:40:15.347Z</time>
      </trkpt>
      <trkpt lat="46.35119" lon="-1.24921">
        <ele>50.286917</ele>
        <time>2022-12-19T12:40:18.342Z</time>
      </trkpt>
      <trkpt lat="46.35127" lon="-1.24911">
        <ele>50.38535</ele>
        <time>2022-12-19T12:40:21.346Z</time>
      </trkpt>
      <trkpt lat="46.35134" lon="-1.24901">
        <ele>50.477384</ele>
        <time>2022-12-19T12:40:24.346Z</time>
      </trkpt>
      <trkpt lat="46.35141" lon="-1.24889">
        <ele>50.577345</ele>
        <time>2022-12-19T12:40:27.352Z</time>
      </trkpt>
      <trkpt lat="46.35148" lon="-1.24876">
        <ele>50.683191</ele>
        <time>2022-12-19T12:40:30.339Z</time>
      </trkpt>
      <trkpt lat="46.35155" lon="-1.24863">
        <ele>50.791326</ele>
        <time>2022-12-19T12:40:33.350Z</time>
      </trkpt>
      <trkpt lat="46.35163" lon="-1.24852">
        <ele>50.796583</ele>
        <time>2022-12-19T12:40:36.345Z</time>
      </trkpt>
      <trkpt lat="46.35174" lon="-1.24849">
        <ele>50.768707</ele>
        <time>2022-12-19T12:40:39.346Z</time>
      </trkpt>
      <trkpt lat="46.35184" lon="-1.24856">
        <ele>50.738897</ele>
        <time>2022-12-19T12:40:42.344Z</time>
      </trkpt>
      <trkpt lat="46.35192" lon="-1.24865">
        <ele>50.710801</ele>
        <time>2022-12-19T12:40:45.343Z</time>
      </trkpt>
      <trkpt lat="46.35199" lon="-1.24876">
        <ele>50.682348</ele>
        <time>2022-12-19T12:40:48.345Z</time>
      </trkpt>
      <trkpt lat="46.35206" lon="-1.24887">
        <ele>50.655085</ele>
        <time>2022-12-19T12:40:51.343Z</time>
      </trkpt>
      <trkpt lat="46.35213" lon="-1.24899">
        <ele>50.625818</ele>
        <time>2022-12-19T12:40:54.351Z</time>
      </trkpt>
      <trkpt lat="46.35221" lon="-1.24911">
        <ele>50.595313</ele>
        <time>2022-12-19T12:40:57.344Z</time>
      </trkpt>
      <trkpt lat="46.35228" lon="-1.24923">
        <ele>50.565175</ele>
        <time>2022-12-19T12:41:00.347Z</time>
      </trkpt>
      <trkpt lat="46.35236" lon="-1.24935">
        <ele>50.535909</ele>
        <time>2022-12-19T12:41:03.340Z</time>
      </trkpt>
      <trkpt lat="46.35243" lon="-1.24947">
        <ele>50.506264</ele>
        <time>2022-12-19T12:41:06.343Z</time>
      </trkpt>
      <trkpt lat="46.35251" lon="-1.24957">
        <ele>50.47719</ele>
        <time>2022-12-19T12:41:09.343Z</time>
      </trkpt>
      <trkpt lat="46.35258" lon="-1.24968">
        <ele>50.450499</ele>
        <time>2022-12-19T12:41:12.323Z</time>
      </trkpt>
      <trkpt lat="46.35265" lon="-1.24979">
        <ele>50.421486</ele>
        <time>2022-12-19T12:41:16.344Z</time>
      </trkpt>
      <trkpt lat="46.35272" lon="-1.24989">
        <ele>50.396346</ele>
        <time>2022-12-19T12:41:19.400Z</time>
      </trkpt>
      <trkpt lat="46.35279" lon="-1.25">
        <ele>50.368296</ele>
        <time>2022-12-19T12:41:22.347Z</time>
      </trkpt>
      <trkpt lat="46.35286" lon="-1.2501">
        <ele>50.341926</ele>
        <time>2022-12-19T12:41:25.385Z</time>
      </trkpt>
      <trkpt lat="46.35292" lon="-1.25019">
        <ele>50.40211</ele>
        <time>2022-12-19T12:41:28.327Z</time>
      </trkpt>
      <trkpt lat="46.35299" lon="-1.25032">
        <ele>50.511293</ele>
        <time>2022-12-19T12:41:32.345Z</time>
      </trkpt>
      <trkpt lat="46.35306" lon="-1.2504">
        <ele>50.605836</ele>
        <time>2022-12-19T12:41:36.400Z</time>
      </trkpt>
      <trkpt lat="46.35316" lon="-1.25049">
        <ele>50.726592</ele>
        <time>2022-12-19T12:41:40.346Z</time>
      </trkpt>
      <trkpt lat="46.35324" lon="-1.25061">
        <ele>50.843687</ele>
        <time>2022-12-19T12:41:44.353Z</time>
      </trkpt>
      <trkpt lat="46.35333" lon="-1.2507">
        <ele>50.947684</ele>
        <time>2022-12-19T12:41:48.414Z</time>
      </trkpt>
      <trkpt lat="46.35342" lon="-1.25074">
        <ele>51.04477</ele>
        <time>2022-12-19T12:41:52.341Z</time>
      </trkpt>
      <trkpt lat="46.35351" lon="-1.25068">
        <ele>51.150171</ele>
        <time>2022-12-19T12:41:56.345Z</time>
      </trkpt>
      <trkpt lat="46.3536" lon="-1.25059">
        <ele>51.259873</ele>
        <time>2022-12-19T12:41:59.348Z</time>
      </trkpt>
      <trkpt lat="46.3537" lon="-1.25046">
        <ele>51.390053</ele>
        <time>2022-12-19T12:42:02.346Z</time>
      </trkpt>
      <trkpt lat="46.35379" lon="-1.25033">
        <ele>51.519714</ele>
        <time>2022-12-19T12:42:05.348Z</time>
      </trkpt>
      <trkpt lat="46.35388" lon="-1.25021">
        <ele>51.644034</ele>
        <time>2022-12-19T12:42:08.346Z</time>
      </trkpt>
      <trkpt lat="46.35396" lon="-1.2501">
        <ele>51.760634</ele>
        <time>2022-12-19T12:42:11.345Z</time>
      </trkpt>
      <trkpt lat="46.35404" lon="-1.24999">
        <ele>51.870654</ele>
        <time>2022-12-19T12:42:14.350Z</time>
      </trkpt>
      <trkpt lat="46.35411" lon="-1.24989">
        <ele>51.966864</ele>
        <time>2022-12-19T12:42:17.337Z</time>
      </trkpt>
      <trkpt lat="46.35416" lon="-1.24977">
        <ele>52.06512</ele>
        <time>2022-12-19T12:42:20.343Z</time>
      </trkpt>
      <trkpt lat="46.35419" lon="-1.24963">
        <ele>52.171236</ele>
        <time>2022-12-19T12:42:23.345Z</time>
      </trkpt>
      <trkpt lat="46.35421" lon="-1.24949">
        <ele>52.317578</ele>
        <time>2022-12-19T12:42:26.345Z</time>
      </trkpt>
      <trkpt lat="46.35422" lon="-1.24934">
        <ele>52.463928</ele>
        <time>2022-12-19T12:42:29.344Z</time>
      </trkpt>
      <trkpt lat="46.35423" lon="-1.24919">
        <ele>52.607817</ele>
        <time>2022-12-19T12:42:32.348Z</time>
      </trkpt>
      <trkpt lat="46.35424" lon="-1.24903">
        <ele>52.766383</ele>
        <time>2022-12-19T12:42:35.331Z</time>
      </trkpt>
      <trkpt lat="46.35427" lon="-1.24889">
        <ele>52.916531</ele>
        <time>2022-12-19T12:42:38.340Z</time>
      </trkpt>
      <trkpt lat="46.35431" lon="-1.24874">
        <ele>53.069143</ele>
        <time>2022-12-19T12:42:41.395Z</time>
      </trkpt>
      <trkpt lat="46.35435" lon="-1.24859">
        <ele>53.229947</ele>
        <time>2022-12-19T12:42:44.346Z</time>
      </trkpt>
      <trkpt lat="46.35441" lon="-1.24845">
        <ele>53.39245</ele>
        <time>2022-12-19T12:42:47.399Z</time>
      </trkpt>
      <trkpt lat="46.35447" lon="-1.2483">
        <ele>53.555119</ele>
        <time>2022-12-19T12:42:50.347Z</time>
      </trkpt>
      <trkpt lat="46.35453" lon="-1.24816">
        <ele>53.723024</ele>
        <time>2022-12-19T12:42:53.409Z</time>
      </trkpt>
      <trkpt lat="46.35458" lon="-1.24801">
        <ele>53.887242</ele>
        <time>2022-12-19T12:42:56.345Z</time>
      </trkpt>
      <trkpt lat="46.35463" lon="-1.24786">
        <ele>54.053071</ele>
        <time>2022-12-19T12:42:59.395Z</time>
      </trkpt>
      <trkpt lat="46.35468" lon="-1.24773">
        <ele>54.198251</ele>
        <time>2022-12-19T12:43:02.349Z</time>
      </trkpt>
      <trkpt lat="46.35476" lon="-1.2476">
        <ele>54.367255</ele>
        <time>2022-12-19T12:43:06.331Z</time>
      </trkpt>
      <trkpt lat="46.35483" lon="-1.24749">
        <ele>54.51078</ele>
        <time>2022-12-19T12:43:09.345Z</time>
      </trkpt>
      <trkpt lat="46.35491" lon="-1.24739">
        <ele>54.668635</ele>
        <time>2022-12-19T12:43:12.347Z</time>
      </trkpt>
      <trkpt lat="46.355" lon="-1.24728">
        <ele>54.649564</ele>
        <time>2022-12-19T12:43:15.344Z</time>
      </trkpt>
      <trkpt lat="46.35509" lon="-1.24717">
        <ele>54.560789</ele>
        <time>2022-12-19T12:43:18.342Z</time>
      </trkpt>
      <trkpt lat="46.35518" lon="-1.24705">
        <ele>54.468751</ele>
        <time>2022-12-19T12:43:21.344Z</time>
      </trkpt>
      <trkpt lat="46.35527" lon="-1.24693">
        <ele>54.373581</ele>
        <time>2022-12-19T12:43:24.323Z</time>
      </trkpt>
      <trkpt lat="46.35534" lon="-1.24678">
        <ele>54.27692</ele>
        <time>2022-12-19T12:43:27.324Z</time>
      </trkpt>
      <trkpt lat="46.35542" lon="-1.24664">
        <ele>54.181654</ele>
        <time>2022-12-19T12:43:30.349Z</time>
      </trkpt>
      <trkpt lat="46.3555" lon="-1.24651">
        <ele>54.090023</ele>
        <time>2022-12-19T12:43:33.344Z</time>
      </trkpt>
      <trkpt lat="46.35558" lon="-1.24641">
        <ele>54.006231</ele>
        <time>2022-12-19T12:43:36.346Z</time>
      </trkpt>
      <trkpt lat="46.35569" lon="-1.24635">
        <ele>53.918652</ele>
        <time>2022-12-19T12:43:39.345Z</time>
      </trkpt>
      <trkpt lat="46.35579" lon="-1.24629">
        <ele>53.830766</ele>
        <time>2022-12-19T12:43:42.348Z</time>
      </trkpt>
      <trkpt lat="46.35591" lon="-1.24622">
        <ele>53.738317</ele>
        <time>2022-12-19T12:43:45.346Z</time>
      </trkpt>
      <trkpt lat="46.35602" lon="-1.24616">
        <ele>53.646663</ele>
        <time>2022-12-19T12:43:48.348Z</time>
      </trkpt>
      <trkpt lat="46.35613" lon="-1.24609">
        <ele>53.555009</ele>
        <time>2022-12-19T12:43:51.400Z</time>
      </trkpt>
      <trkpt lat="46.35623" lon="-1.24602">
        <ele>53.464081</ele>
        <time>2022-12-19T12:43:54.346Z</time>
      </trkpt>
      <trkpt lat="46.35632" lon="-1.24592">
        <ele>53.378471</ele>
        <time>2022-12-19T12:43:57.407Z</time>
      </trkpt>
      <trkpt lat="46.35641" lon="-1.24582">
        <ele>53.22957</ele>
        <time>2022-12-19T12:44:00.341Z</time>
      </trkpt>
      <trkpt lat="46.3565" lon="-1.24571">
        <ele>53.003252</ele>
        <time>2022-12-19T12:44:03.328Z</time>
      </trkpt>
      <trkpt lat="46.35657" lon="-1.24562">
        <ele>52.80811</ele>
        <time>2022-12-19T12:44:06.343Z</time>
      </trkpt>
      <trkpt lat="46.35664" lon="-1.24553">
        <ele>52.626176</ele>
        <time>2022-12-19T12:44:09.345Z</time>
      </trkpt>
      <trkpt lat="46.35672" lon="-1.24543">
        <ele>52.424877</ele>
        <time>2022-12-19T12:44:12.346Z</time>
      </trkpt>
      <trkpt lat="46.3568" lon="-1.24532">
        <ele>52.20314</ele>
        <time>2022-12-19T12:44:15.345Z</time>
      </trkpt>
      <trkpt lat="46.35689" lon="-1.24521">
        <ele>51.974651</ele>
        <time>2022-12-19T12:44:18.328Z</time>
      </trkpt>
      <trkpt lat="46.35699" lon="-1.24511">
        <ele>51.737956</ele>
        <time>2022-12-19T12:44:21.346Z</time>
      </trkpt>
      <trkpt lat="46.35708" lon="-1.245">
        <ele>51.507825</ele>
        <time>2022-12-19T12:44:24.328Z</time>
      </trkpt>
      <trkpt lat="46.35718" lon="-1.24489">
        <ele>51.267208</ele>
        <time>2022-12-19T12:44:27.347Z</time>
      </trkpt>
      <trkpt lat="46.35727" lon="-1.24477">
        <ele>51.020912</ele>
        <time>2022-12-19T12:44:30.348Z</time>
      </trkpt>
      <trkpt lat="46.35737" lon="-1.24465">
        <ele>50.764231</ele>
        <time>2022-12-19T12:44:33.348Z</time>
      </trkpt>
      <trkpt lat="46.35746" lon="-1.24452">
        <ele>50.511121</ele>
        <time>2022-12-19T12:44:36.397Z</time>
      </trkpt>
      <trkpt lat="46.35752" lon="-1.24442">
        <ele>50.330306</ele>
        <time>2022-12-19T12:44:38.335Z</time>
      </trkpt>
      <trkpt lat="46.35761" lon="-1.24427">
        <ele>50.063186</ele>
        <time>2022-12-19T12:44:41.346Z</time>
      </trkpt>
      <trkpt lat="46.35766" lon="-1.24416">
        <ele>49.882273</ele>
        <time>2022-12-19T12:44:43.349Z</time>
      </trkpt>
      <trkpt lat="46.35774" lon="-1.244">
        <ele>49.72976</ele>
        <time>2022-12-19T12:44:46.346Z</time>
      </trkpt>
      <trkpt lat="46.35779" lon="-1.24389">
        <ele>49.660928</ele>
        <time>2022-12-19T12:44:48.386Z</time>
      </trkpt>
      <trkpt lat="46.35784" lon="-1.24377">
        <ele>49.590283</ele>
        <time>2022-12-19T12:44:50.345Z</time>
      </trkpt>
      <trkpt lat="46.35789" lon="-1.24365">
        <ele>49.51724</ele>
        <time>2022-12-19T12:44:52.345Z</time>
      </trkpt>
      <trkpt lat="46.35794" lon="-1.24353">
        <ele>49.443631</ele>
        <time>2022-12-19T12:44:54.396Z</time>
      </trkpt>
      <trkpt lat="46.358" lon="-1.24341">
        <ele>49.367632</ele>
        <time>2022-12-19T12:44:56.329Z</time>
      </trkpt>
      <trkpt lat="46.35807" lon="-1.24329">
        <ele>49.287585</ele>
        <time>2022-12-19T12:44:58.346Z</time>
      </trkpt>
      <trkpt lat="46.35814" lon="-1.24316">
        <ele>49.20599</ele>
        <time>2022-12-19T12:45:00.413Z</time>
      </trkpt>
      <trkpt lat="46.35821" lon="-1.24304">
        <ele>49.122772</ele>
        <time>2022-12-19T12:45:02.348Z</time>
      </trkpt>
      <trkpt lat="46.35829" lon="-1.24293">
        <ele>49.039196</ele>
        <time>2022-12-19T12:45:04.354Z</time>
      </trkpt>
      <trkpt lat="46.35838" lon="-1.24282">
        <ele>48.955036</ele>
        <time>2022-12-19T12:45:06.426Z</time>
      </trkpt>
      <trkpt lat="46.35846" lon="-1.24272">
        <ele>48.873902</ele>
        <time>2022-12-19T12:45:08.347Z</time>
      </trkpt>
      <trkpt lat="46.35856" lon="-1.24263">
        <ele>48.789874</ele>
        <time>2022-12-19T12:45:10.346Z</time>
      </trkpt>
      <trkpt lat="46.35866" lon="-1.24255">
        <ele>48.706518</ele>
        <time>2022-12-19T12:45:12.403Z</time>
      </trkpt>
      <trkpt lat="46.35875" lon="-1.24248">
        <ele>48.625517</ele>
        <time>2022-12-19T12:45:14.346Z</time>
      </trkpt>
      <trkpt lat="46.35886" lon="-1.24246">
        <ele>48.545608</ele>
        <time>2022-12-19T12:45:16.351Z</time>
      </trkpt>
      <trkpt lat="46.35896" lon="-1.24243">
        <ele>48.468145</ele>
        <time>2022-12-19T12:45:18.395Z</time>
      </trkpt>
      <trkpt lat="46.35906" lon="-1.24242">
        <ele>48.447546</ele>
        <time>2022-12-19T12:45:20.345Z</time>
      </trkpt>
      <trkpt lat="46.35915" lon="-1.24239">
        <ele>48.433596</ele>
        <time>2022-12-19T12:45:22.345Z</time>
      </trkpt>
      <trkpt lat="46.35925" lon="-1.24237">
        <ele>48.419561</ele>
        <time>2022-12-19T12:45:24.410Z</time>
      </trkpt>
      <trkpt lat="46.35934" lon="-1.24233">
        <ele>48.406489</ele>
        <time>2022-12-19T12:45:26.346Z</time>
      </trkpt>
      <trkpt lat="46.35946" lon="-1.24225">
        <ele>48.387481</ele>
        <time>2022-12-19T12:45:29.344Z</time>
      </trkpt>
      <trkpt lat="46.35954" lon="-1.2422">
        <ele>48.37447</ele>
        <time>2022-12-19T12:45:31.350Z</time>
      </trkpt>
      <trkpt lat="46.35964" lon="-1.24212">
        <ele>48.358027</ele>
        <time>2022-12-19T12:45:34.347Z</time>
      </trkpt>
      <trkpt lat="46.35976" lon="-1.24203">
        <ele>48.339441</ele>
        <time>2022-12-19T12:45:37.348Z</time>
      </trkpt>
      <trkpt lat="46.35987" lon="-1.24194">
        <ele>48.320555</ele>
        <time>2022-12-19T12:45:40.339Z</time>
      </trkpt>
      <trkpt lat="46.35996" lon="-1.24188">
        <ele>48.306724</ele>
        <time>2022-12-19T12:45:42.393Z</time>
      </trkpt>
      <trkpt lat="46.36008" lon="-1.2418">
        <ele>48.287551</ele>
        <time>2022-12-19T12:45:45.326Z</time>
      </trkpt>
      <trkpt lat="46.36017" lon="-1.24176">
        <ele>48.27375</ele>
        <time>2022-12-19T12:45:47.344Z</time>
      </trkpt>
      <trkpt lat="46.36027" lon="-1.24173">
        <ele>48.259589</ele>
        <time>2022-12-19T12:45:49.346Z</time>
      </trkpt>
      <trkpt lat="46.36037" lon="-1.24171">
        <ele>48.24516</ele>
        <time>2022-12-19T12:45:51.351Z</time>
      </trkpt>
      <trkpt lat="46.36046" lon="-1.24172">
        <ele>48.231372</ele>
        <time>2022-12-19T12:45:53.349Z</time>
      </trkpt>
      <trkpt lat="46.36059" lon="-1.24174">
        <ele>48.212635</ele>
        <time>2022-12-19T12:45:56.347Z</time>
      </trkpt>
      <trkpt lat="46.36069" lon="-1.24176">
        <ele>48.198159</ele>
        <time>2022-12-19T12:45:58.334Z</time>
      </trkpt>
      <trkpt lat="46.36078" lon="-1.24179">
        <ele>48.176362</ele>
        <time>2022-12-19T12:46:00.337Z</time>
      </trkpt>
      <trkpt lat="46.36088" lon="-1.24183">
        <ele>48.15453</ele>
        <time>2022-12-19T12:46:02.347Z</time>
      </trkpt>
      <trkpt lat="46.36096" lon="-1.24187">
        <ele>48.134481</ele>
        <time>2022-12-19T12:46:04.346Z</time>
      </trkpt>
      <trkpt lat="46.36106" lon="-1.24191">
        <ele>48.113218</ele>
        <time>2022-12-19T12:46:06.349Z</time>
      </trkpt>
      <trkpt lat="46.36115" lon="-1.24196">
        <ele>48.091299</ele>
        <time>2022-12-19T12:46:08.350Z</time>
      </trkpt>
      <trkpt lat="46.36124" lon="-1.242">
        <ele>48.071089</ele>
        <time>2022-12-19T12:46:10.353Z</time>
      </trkpt>
      <trkpt lat="46.36133" lon="-1.24205">
        <ele>48.049175</ele>
        <time>2022-12-19T12:46:12.345Z</time>
      </trkpt>
      <trkpt lat="46.36142" lon="-1.24209">
        <ele>48.02824</ele>
        <time>2022-12-19T12:46:14.344Z</time>
      </trkpt>
      <trkpt lat="46.36151" lon="-1.24214">
        <ele>48.006533</ele>
        <time>2022-12-19T12:46:16.346Z</time>
      </trkpt>
      <trkpt lat="46.3616" lon="-1.24218">
        <ele>47.985781</ele>
        <time>2022-12-19T12:46:18.346Z</time>
      </trkpt>
      <trkpt lat="46.36172" lon="-1.24225">
        <ele>47.956959</ele>
        <time>2022-12-19T12:46:21.349Z</time>
      </trkpt>
      <trkpt lat="46.36185" lon="-1.2423">
        <ele>47.928099</ele>
        <time>2022-12-19T12:46:24.347Z</time>
      </trkpt>
      <trkpt lat="46.36198" lon="-1.24235">
        <ele>47.899026</ele>
        <time>2022-12-19T12:46:27.348Z</time>
      </trkpt>
      <trkpt lat="46.3621" lon="-1.24237">
        <ele>47.870788</ele>
        <time>2022-12-19T12:46:30.344Z</time>
      </trkpt>
      <trkpt lat="46.36224" lon="-1.24236">
        <ele>47.841292</ele>
        <time>2022-12-19T12:46:33.340Z</time>
      </trkpt>
      <trkpt lat="46.36232" lon="-1.24232">
        <ele>47.821345</ele>
        <time>2022-12-19T12:46:35.415Z</time>
      </trkpt>
      <trkpt lat="46.3624" lon="-1.24225">
        <ele>47.790803</ele>
        <time>2022-12-19T12:46:37.345Z</time>
      </trkpt>
      <trkpt lat="46.36247" lon="-1.24217">
        <ele>47.705017</ele>
        <time>2022-12-19T12:46:39.350Z</time>
      </trkpt>
      <trkpt lat="46.36254" lon="-1.24207">
        <ele>47.615989</ele>
        <time>2022-12-19T12:46:41.421Z</time>
      </trkpt>
      <trkpt lat="46.3626" lon="-1.24196">
        <ele>47.525773</ele>
        <time>2022-12-19T12:46:43.340Z</time>
      </trkpt>
      <trkpt lat="46.36265" lon="-1.24185">
        <ele>47.437223</ele>
        <time>2022-12-19T12:46:45.347Z</time>
      </trkpt>
      <trkpt lat="46.3627" lon="-1.24173">
        <ele>47.347427</ele>
        <time>2022-12-19T12:46:47.343Z</time>
      </trkpt>
      <trkpt lat="46.36277" lon="-1.24157">
        <ele>47.222185</ele>
        <time>2022-12-19T12:46:50.346Z</time>
      </trkpt>
      <trkpt lat="46.36283" lon="-1.24142">
        <ele>47.10619</ele>
        <time>2022-12-19T12:46:53.346Z</time>
      </trkpt>
      <trkpt lat="46.36289" lon="-1.24126">
        <ele>46.989625</ele>
        <time>2022-12-19T12:46:56.328Z</time>
      </trkpt>
      <trkpt lat="46.36293" lon="-1.2411">
        <ele>46.876719</ele>
        <time>2022-12-19T12:46:59.349Z</time>
      </trkpt>
      <trkpt lat="46.36295" lon="-1.24091">
        <ele>46.756075</ele>
        <time>2022-12-19T12:47:02.346Z</time>
      </trkpt>
      <trkpt lat="46.36304" lon="-1.24078">
        <ele>46.632916</ele>
        <time>2022-12-19T12:47:05.348Z</time>
      </trkpt>
      <trkpt lat="46.36311" lon="-1.24068">
        <ele>46.544801</ele>
        <time>2022-12-19T12:47:07.338Z</time>
      </trkpt>
      <trkpt lat="46.36317" lon="-1.24058">
        <ele>46.45234</ele>
        <time>2022-12-19T12:47:09.346Z</time>
      </trkpt>
      <trkpt lat="46.36323" lon="-1.24047">
        <ele>46.365345</ele>
        <time>2022-12-19T12:47:11.386Z</time>
      </trkpt>
      <trkpt lat="46.36327" lon="-1.24035">
        <ele>46.276664</ele>
        <time>2022-12-19T12:47:13.347Z</time>
      </trkpt>
      <trkpt lat="46.36332" lon="-1.24024">
        <ele>46.189645</ele>
        <time>2022-12-19T12:47:15.347Z</time>
      </trkpt>
      <trkpt lat="46.36337" lon="-1.24012">
        <ele>46.103946</ele>
        <time>2022-12-19T12:47:17.395Z</time>
      </trkpt>
      <trkpt lat="46.36344" lon="-1.23995">
        <ele>46.075448</ele>
        <time>2022-12-19T12:47:20.346Z</time>
      </trkpt>
      <trkpt lat="46.36349" lon="-1.23983">
        <ele>46.056032</ele>
        <time>2022-12-19T12:47:22.361Z</time>
      </trkpt>
      <trkpt lat="46.36354" lon="-1.23972">
        <ele>46.036749</ele>
        <time>2022-12-19T12:47:24.347Z</time>
      </trkpt>
      <trkpt lat="46.36359" lon="-1.2396">
        <ele>46.016295</ele>
        <time>2022-12-19T12:47:26.346Z</time>
      </trkpt>
      <trkpt lat="46.36364" lon="-1.23949">
        <ele>45.99631</ele>
        <time>2022-12-19T12:47:28.392Z</time>
      </trkpt>
      <trkpt lat="46.3637" lon="-1.23937">
        <ele>45.976084</ele>
        <time>2022-12-19T12:47:30.346Z</time>
      </trkpt>
      <trkpt lat="46.36375" lon="-1.23925">
        <ele>45.95607</ele>
        <time>2022-12-19T12:47:32.344Z</time>
      </trkpt>
      <trkpt lat="46.3638" lon="-1.23913">
        <ele>45.935604</ele>
        <time>2022-12-19T12:47:34.395Z</time>
      </trkpt>
      <trkpt lat="46.36385" lon="-1.23901">
        <ele>45.914783</ele>
        <time>2022-12-19T12:47:36.352Z</time>
      </trkpt>
      <trkpt lat="46.36391" lon="-1.2389">
        <ele>45.894801</ele>
        <time>2022-12-19T12:47:38.335Z</time>
      </trkpt>
      <trkpt lat="46.36396" lon="-1.23877">
        <ele>45.874274</ele>
        <time>2022-12-19T12:47:40.397Z</time>
      </trkpt>
      <trkpt lat="46.36401" lon="-1.23865">
        <ele>45.853077</ele>
        <time>2022-12-19T12:47:42.349Z</time>
      </trkpt>
      <trkpt lat="46.36406" lon="-1.23851">
        <ele>45.831242</ele>
        <time>2022-12-19T12:47:44.335Z</time>
      </trkpt>
      <trkpt lat="46.36411" lon="-1.23838">
        <ele>45.810062</ele>
        <time>2022-12-19T12:47:46.335Z</time>
      </trkpt>
      <trkpt lat="46.36416" lon="-1.23826">
        <ele>45.789202</ele>
        <time>2022-12-19T12:47:48.344Z</time>
      </trkpt>
      <trkpt lat="46.36421" lon="-1.23814">
        <ele>45.769935</ele>
        <time>2022-12-19T12:47:50.347Z</time>
      </trkpt>
      <trkpt lat="46.36428" lon="-1.23799">
        <ele>45.743568</ele>
        <time>2022-12-19T12:47:53.348Z</time>
      </trkpt>
      <trkpt lat="46.36434" lon="-1.23783">
        <ele>45.747615</ele>
        <time>2022-12-19T12:47:56.345Z</time>
      </trkpt>
      <trkpt lat="46.3644" lon="-1.23768">
        <ele>45.782395</ele>
        <time>2022-12-19T12:47:59.357Z</time>
      </trkpt>
      <trkpt lat="46.36447" lon="-1.23752">
        <ele>45.819227</ele>
        <time>2022-12-19T12:48:02.346Z</time>
      </trkpt>
      <trkpt lat="46.36455" lon="-1.23736">
        <ele>45.858333</ele>
        <time>2022-12-19T12:48:05.347Z</time>
      </trkpt>
      <trkpt lat="46.36459" lon="-1.23724">
        <ele>45.884829</ele>
        <time>2022-12-19T12:48:07.342Z</time>
      </trkpt>
      <trkpt lat="46.36464" lon="-1.23713">
        <ele>45.911105</ele>
        <time>2022-12-19T12:48:09.399Z</time>
      </trkpt>
      <trkpt lat="46.36469" lon="-1.23701">
        <ele>45.939202</ele>
        <time>2022-12-19T12:48:11.346Z</time>
      </trkpt>
      <trkpt lat="46.36474" lon="-1.23689">
        <ele>45.966381</ele>
        <time>2022-12-19T12:48:13.342Z</time>
      </trkpt>
      <trkpt lat="46.3648" lon="-1.23676">
        <ele>45.995402</ele>
        <time>2022-12-19T12:48:15.419Z</time>
      </trkpt>
      <trkpt lat="46.36485" lon="-1.23664">
        <ele>46.024234</ele>
        <time>2022-12-19T12:48:17.343Z</time>
      </trkpt>
      <trkpt lat="46.36492" lon="-1.23647">
        <ele>46.062051</ele>
        <time>2022-12-19T12:48:20.345Z</time>
      </trkpt>
      <trkpt lat="46.36497" lon="-1.23637">
        <ele>46.087861</ele>
        <time>2022-12-19T12:48:22.346Z</time>
      </trkpt>
      <trkpt lat="46.36505" lon="-1.23621">
        <ele>46.125817</ele>
        <time>2022-12-19T12:48:25.345Z</time>
      </trkpt>
      <trkpt lat="46.36514" lon="-1.23608">
        <ele>46.163755</ele>
        <time>2022-12-19T12:48:28.337Z</time>
      </trkpt>
      <trkpt lat="46.36524" lon="-1.23595">
        <ele>46.201546</ele>
        <time>2022-12-19T12:48:31.351Z</time>
      </trkpt>
      <trkpt lat="46.36534" lon="-1.23583">
        <ele>46.238387</ele>
        <time>2022-12-19T12:48:34.347Z</time>
      </trkpt>
      <trkpt lat="46.36545" lon="-1.23571">
        <ele>46.347175</ele>
        <time>2022-12-19T12:48:37.345Z</time>
      </trkpt>
      <trkpt lat="46.36553" lon="-1.23563">
        <ele>46.43471</ele>
        <time>2022-12-19T12:48:39.349Z</time>
      </trkpt>
      <trkpt lat="46.36562" lon="-1.23554">
        <ele>46.528442</ele>
        <time>2022-12-19T12:48:41.349Z</time>
      </trkpt>
      <trkpt lat="46.3657" lon="-1.23545">
        <ele>46.624306</ele>
        <time>2022-12-19T12:48:43.344Z</time>
      </trkpt>
      <trkpt lat="46.36579" lon="-1.23538">
        <ele>46.714887</ele>
        <time>2022-12-19T12:48:45.350Z</time>
      </trkpt>
      <trkpt lat="46.36588" lon="-1.2353">
        <ele>46.807935</ele>
        <time>2022-12-19T12:48:47.347Z</time>
      </trkpt>
      <trkpt lat="46.36596" lon="-1.23522">
        <ele>46.896306</ele>
        <time>2022-12-19T12:48:49.347Z</time>
      </trkpt>
      <trkpt lat="46.36605" lon="-1.23514">
        <ele>46.986937</ele>
        <time>2022-12-19T12:48:51.358Z</time>
      </trkpt>
      <trkpt lat="46.36613" lon="-1.23507">
        <ele>47.072805</ele>
        <time>2022-12-19T12:48:53.348Z</time>
      </trkpt>
      <trkpt lat="46.36621" lon="-1.23499">
        <ele>47.155342</ele>
        <time>2022-12-19T12:48:55.348Z</time>
      </trkpt>
      <trkpt lat="46.36631" lon="-1.2349">
        <ele>47.263656</ele>
        <time>2022-12-19T12:48:58.354Z</time>
      </trkpt>
      <trkpt lat="46.3664" lon="-1.2348">
        <ele>47.36502</ele>
        <time>2022-12-19T12:49:01.344Z</time>
      </trkpt>
      <trkpt lat="46.36648" lon="-1.23468">
        <ele>47.467826</ele>
        <time>2022-12-19T12:49:04.346Z</time>
      </trkpt>
      <trkpt lat="46.36656" lon="-1.23456">
        <ele>47.57459</ele>
        <time>2022-12-19T12:49:07.350Z</time>
      </trkpt>
      <trkpt lat="46.36664" lon="-1.23442">
        <ele>47.684949</ele>
        <time>2022-12-19T12:49:10.347Z</time>
      </trkpt>
      <trkpt lat="46.36671" lon="-1.23426">
        <ele>47.799612</ele>
        <time>2022-12-19T12:49:13.345Z</time>
      </trkpt>
      <trkpt lat="46.36678" lon="-1.2341">
        <ele>47.88071</ele>
        <time>2022-12-19T12:49:16.345Z</time>
      </trkpt>
      <trkpt lat="46.36683" lon="-1.23399">
        <ele>47.917899</ele>
        <time>2022-12-19T12:49:18.337Z</time>
      </trkpt>
      <trkpt lat="46.36687" lon="-1.23388">
        <ele>47.95541</ele>
        <time>2022-12-19T12:49:20.414Z</time>
      </trkpt>
      <trkpt lat="46.36692" lon="-1.23375">
        <ele>47.995505</ele>
        <time>2022-12-19T12:49:22.345Z</time>
      </trkpt>
      <trkpt lat="46.36697" lon="-1.23363">
        <ele>48.035536</ele>
        <time>2022-12-19T12:49:24.345Z</time>
      </trkpt>
      <trkpt lat="46.36703" lon="-1.23351">
        <ele>48.076691</ele>
        <time>2022-12-19T12:49:26.396Z</time>
      </trkpt>
      <trkpt lat="46.36708" lon="-1.23339">
        <ele>48.117525</ele>
        <time>2022-12-19T12:49:28.328Z</time>
      </trkpt>
      <trkpt lat="46.36713" lon="-1.23326">
        <ele>48.158406</ele>
        <time>2022-12-19T12:49:30.347Z</time>
      </trkpt>
      <trkpt lat="46.36717" lon="-1.23315">
        <ele>48.196253</ele>
        <time>2022-12-19T12:49:32.396Z</time>
      </trkpt>
      <trkpt lat="46.36722" lon="-1.23303">
        <ele>48.235343</ele>
        <time>2022-12-19T12:49:34.347Z</time>
      </trkpt>
      <trkpt lat="46.36726" lon="-1.23291">
        <ele>48.274635</ele>
        <time>2022-12-19T12:49:36.327Z</time>
      </trkpt>
      <trkpt lat="46.36732" lon="-1.23273">
        <ele>48.328332</ele>
        <time>2022-12-19T12:49:39.345Z</time>
      </trkpt>
      <trkpt lat="46.36738" lon="-1.23257">
        <ele>48.381056</ele>
        <time>2022-12-19T12:49:42.344Z</time>
      </trkpt>
      <trkpt lat="46.36742" lon="-1.2324">
        <ele>48.43213</ele>
        <time>2022-12-19T12:49:45.346Z</time>
      </trkpt>
      <trkpt lat="46.36747" lon="-1.23224">
        <ele>48.482639</ele>
        <time>2022-12-19T12:49:48.347Z</time>
      </trkpt>
      <trkpt lat="46.36751" lon="-1.23207">
        <ele>48.533944</ele>
        <time>2022-12-19T12:49:51.345Z</time>
      </trkpt>
      <trkpt lat="46.36755" lon="-1.2319">
        <ele>48.583245</ele>
        <time>2022-12-19T12:49:54.346Z</time>
      </trkpt>
      <trkpt lat="46.3676" lon="-1.23175">
        <ele>48.579122</ele>
        <time>2022-12-19T12:49:57.347Z</time>
      </trkpt>
      <trkpt lat="46.36764" lon="-1.23158">
        <ele>48.565056</ele>
        <time>2022-12-19T12:50:00.347Z</time>
      </trkpt>
      <trkpt lat="46.36768" lon="-1.23142">
        <ele>48.551034</ele>
        <time>2022-12-19T12:50:03.349Z</time>
      </trkpt>
      <trkpt lat="46.36772" lon="-1.23127">
        <ele>48.537455</ele>
        <time>2022-12-19T12:50:06.335Z</time>
      </trkpt>
      <trkpt lat="46.36776" lon="-1.23111">
        <ele>48.523852</ele>
        <time>2022-12-19T12:50:09.347Z</time>
      </trkpt>
      <trkpt lat="46.3678" lon="-1.23096">
        <ele>48.511235</ele>
        <time>2022-12-19T12:50:12.339Z</time>
      </trkpt>
      <trkpt lat="46.36784" lon="-1.23082">
        <ele>48.499015</ele>
        <time>2022-12-19T12:50:15.341Z</time>
      </trkpt>
      <trkpt lat="46.36787" lon="-1.23067">
        <ele>48.485758</ele>
        <time>2022-12-19T12:50:18.388Z</time>
      </trkpt>
      <trkpt lat="46.36791" lon="-1.2305">
        <ele>48.471579</ele>
        <time>2022-12-19T12:50:21.339Z</time>
      </trkpt>
      <trkpt lat="46.36794" lon="-1.23032">
        <ele>48.456318</ele>
        <time>2022-12-19T12:50:24.346Z</time>
      </trkpt>
      <trkpt lat="46.36796" lon="-1.23013">
        <ele>48.440972</ele>
        <time>2022-12-19T12:50:27.327Z</time>
      </trkpt>
      <trkpt lat="46.36798" lon="-1.22994">
        <ele>48.425287</ele>
        <time>2022-12-19T12:50:30.346Z</time>
      </trkpt>
      <trkpt lat="46.36798" lon="-1.22981">
        <ele>48.414558</ele>
        <time>2022-12-19T12:50:32.349Z</time>
      </trkpt>
      <trkpt lat="46.36798" lon="-1.22967">
        <ele>48.403392</ele>
        <time>2022-12-19T12:50:34.346Z</time>
      </trkpt>
      <trkpt lat="46.36798" lon="-1.22953">
        <ele>48.391926</ele>
        <time>2022-12-19T12:50:36.341Z</time>
      </trkpt>
      <trkpt lat="46.36798" lon="-1.22939">
        <ele>48.380628</ele>
        <time>2022-12-19T12:50:38.341Z</time>
      </trkpt>
      <trkpt lat="46.36798" lon="-1.22925">
        <ele>48.337026</ele>
        <time>2022-12-19T12:50:40.343Z</time>
      </trkpt>
      <trkpt lat="46.36799" lon="-1.22911">
        <ele>48.28753</ele>
        <time>2022-12-19T12:50:42.345Z</time>
      </trkpt>
      <trkpt lat="46.36799" lon="-1.22897">
        <ele>48.237024</ele>
        <time>2022-12-19T12:50:44.344Z</time>
      </trkpt>
      <trkpt lat="46.36799" lon="-1.22882">
        <ele>48.186165</ele>
        <time>2022-12-19T12:50:46.347Z</time>
      </trkpt>
      <trkpt lat="46.36799" lon="-1.22868">
        <ele>48.134596</ele>
        <time>2022-12-19T12:50:48.349Z</time>
      </trkpt>
      <trkpt lat="46.368" lon="-1.22854">
        <ele>48.086277</ele>
        <time>2022-12-19T12:50:50.347Z</time>
      </trkpt>
      <trkpt lat="46.368" lon="-1.2284">
        <ele>48.037163</ele>
        <time>2022-12-19T12:50:52.396Z</time>
      </trkpt>
      <trkpt lat="46.368" lon="-1.22826">
        <ele>47.987667</ele>
        <time>2022-12-19T12:50:54.329Z</time>
      </trkpt>
      <trkpt lat="46.368" lon="-1.22812">
        <ele>47.938171</ele>
        <time>2022-12-19T12:50:56.345Z</time>
      </trkpt>
      <trkpt lat="46.368" lon="-1.22792">
        <ele>47.86977</ele>
        <time>2022-12-19T12:50:59.356Z</time>
      </trkpt>
      <trkpt lat="46.368" lon="-1.22779">
        <ele>47.82276</ele>
        <time>2022-12-19T12:51:01.359Z</time>
      </trkpt>
      <trkpt lat="46.36801" lon="-1.22765">
        <ele>47.774315</ele>
        <time>2022-12-19T12:51:03.347Z</time>
      </trkpt>
      <trkpt lat="46.36801" lon="-1.22752">
        <ele>47.728323</ele>
        <time>2022-12-19T12:51:05.356Z</time>
      </trkpt>
      <trkpt lat="46.36802" lon="-1.22733">
        <ele>47.661635</ele>
        <time>2022-12-19T12:51:08.349Z</time>
      </trkpt>
      <trkpt lat="46.36802" lon="-1.22719">
        <ele>47.613932</ele>
        <time>2022-12-19T12:51:10.401Z</time>
      </trkpt>
      <trkpt lat="46.36801" lon="-1.22706">
        <ele>47.565856</ele>
        <time>2022-12-19T12:51:12.343Z</time>
      </trkpt>
      <trkpt lat="46.36802" lon="-1.22686">
        <ele>47.49702</ele>
        <time>2022-12-19T12:51:15.346Z</time>
      </trkpt>
      <trkpt lat="46.36802" lon="-1.22673">
        <ele>47.465308</ele>
        <time>2022-12-19T12:51:17.358Z</time>
      </trkpt>
      <trkpt lat="46.36803" lon="-1.22659">
        <ele>47.467158</ele>
        <time>2022-12-19T12:51:19.346Z</time>
      </trkpt>
      <trkpt lat="46.36803" lon="-1.22644">
        <ele>47.469076</ele>
        <time>2022-12-19T12:51:21.346Z</time>
      </trkpt>
      <trkpt lat="46.36803" lon="-1.2263">
        <ele>47.470953</ele>
        <time>2022-12-19T12:51:23.327Z</time>
      </trkpt>
      <trkpt lat="46.36803" lon="-1.22616">
        <ele>47.472896</ele>
        <time>2022-12-19T12:51:25.345Z</time>
      </trkpt>
      <trkpt lat="46.36803" lon="-1.22602">
        <ele>47.474813</ele>
        <time>2022-12-19T12:51:27.348Z</time>
      </trkpt>
      <trkpt lat="46.36804" lon="-1.22588">
        <ele>47.476654</ele>
        <time>2022-12-19T12:51:29.330Z</time>
      </trkpt>
      <trkpt lat="46.36804" lon="-1.22575">
        <ele>47.478423</ele>
        <time>2022-12-19T12:51:31.342Z</time>
      </trkpt>
      <trkpt lat="46.36803" lon="-1.22556">
        <ele>47.480875</ele>
        <time>2022-12-19T12:51:34.417Z</time>
      </trkpt>
      <trkpt lat="46.36804" lon="-1.22539">
        <ele>47.483194</ele>
        <time>2022-12-19T12:51:37.347Z</time>
      </trkpt>
      <trkpt lat="46.36804" lon="-1.22521">
        <ele>47.485633</ele>
        <time>2022-12-19T12:51:40.408Z</time>
      </trkpt>
      <trkpt lat="46.36804" lon="-1.22508">
        <ele>47.487388</ele>
        <time>2022-12-19T12:51:42.349Z</time>
      </trkpt>
      <trkpt lat="46.36804" lon="-1.22494">
        <ele>47.489198</ele>
        <time>2022-12-19T12:51:44.332Z</time>
      </trkpt>
      <trkpt lat="46.36805" lon="-1.22476">
        <ele>47.491661</ele>
        <time>2022-12-19T12:51:47.344Z</time>
      </trkpt>
      <trkpt lat="46.36806" lon="-1.22457">
        <ele>47.494226</ele>
        <time>2022-12-19T12:51:50.346Z</time>
      </trkpt>
      <trkpt lat="46.36806" lon="-1.22443">
        <ele>47.49609</ele>
        <time>2022-12-19T12:51:52.331Z</time>
      </trkpt>
      <trkpt lat="46.36806" lon="-1.22428">
        <ele>47.49806</ele>
        <time>2022-12-19T12:51:54.347Z</time>
      </trkpt>
      <trkpt lat="46.36806" lon="-1.22415">
        <ele>47.504853</ele>
        <time>2022-12-19T12:51:56.347Z</time>
      </trkpt>
      <trkpt lat="46.36806" lon="-1.224">
        <ele>47.544767</ele>
        <time>2022-12-19T12:51:58.345Z</time>
      </trkpt>
      <trkpt lat="46.36806" lon="-1.22386">
        <ele>47.58412</ele>
        <time>2022-12-19T12:52:00.350Z</time>
      </trkpt>
      <trkpt lat="46.36806" lon="-1.22372">
        <ele>47.624362</ele>
        <time>2022-12-19T12:52:02.350Z</time>
      </trkpt>
      <trkpt lat="46.36807" lon="-1.22358">
        <ele>47.663292</ele>
        <time>2022-12-19T12:52:04.357Z</time>
      </trkpt>
      <trkpt lat="46.36807" lon="-1.22343">
        <ele>47.704059</ele>
        <time>2022-12-19T12:52:06.346Z</time>
      </trkpt>
      <trkpt lat="46.36807" lon="-1.22329">
        <ele>47.743136</ele>
        <time>2022-12-19T12:52:08.349Z</time>
      </trkpt>
      <trkpt lat="46.36808" lon="-1.22315">
        <ele>47.784013</ele>
        <time>2022-12-19T12:52:10.348Z</time>
      </trkpt>
      <trkpt lat="46.36808" lon="-1.223">
        <ele>47.825049</ele>
        <time>2022-12-19T12:52:12.347Z</time>
      </trkpt>
      <trkpt lat="46.36808" lon="-1.22287">
        <ele>47.861611</ele>
        <time>2022-12-19T12:52:14.348Z</time>
      </trkpt>
      <trkpt lat="46.36809" lon="-1.22268">
        <ele>47.914401</ele>
        <time>2022-12-19T12:52:17.345Z</time>
      </trkpt>
      <trkpt lat="46.36809" lon="-1.2225">
        <ele>47.965762</ele>
        <time>2022-12-19T12:52:20.348Z</time>
      </trkpt>
      <trkpt lat="46.36809" lon="-1.22231">
        <ele>48.017435</ele>
        <time>2022-12-19T12:52:23.344Z</time>
      </trkpt>
      <trkpt lat="46.36809" lon="-1.22212">
        <ele>48.071587</ele>
        <time>2022-12-19T12:52:26.348Z</time>
      </trkpt>
      <trkpt lat="46.3681" lon="-1.22198">
        <ele>48.109007</ele>
        <time>2022-12-19T12:52:28.346Z</time>
      </trkpt>
      <trkpt lat="46.36809" lon="-1.22185">
        <ele>48.145868</ele>
        <time>2022-12-19T12:52:30.351Z</time>
      </trkpt>
      <trkpt lat="46.3681" lon="-1.22166">
        <ele>48.200626</ele>
        <time>2022-12-19T12:52:33.403Z</time>
      </trkpt>
      <trkpt lat="46.3681" lon="-1.22152">
        <ele>48.245459</ele>
        <time>2022-12-19T12:52:35.346Z</time>
      </trkpt>
      <trkpt lat="46.3681" lon="-1.22138">
        <ele>48.307837</ele>
        <time>2022-12-19T12:52:37.347Z</time>
      </trkpt>
      <trkpt lat="46.3681" lon="-1.22124">
        <ele>48.366776</ele>
        <time>2022-12-19T12:52:39.397Z</time>
      </trkpt>
      <trkpt lat="46.3681" lon="-1.2211">
        <ele>48.426536</ele>
        <time>2022-12-19T12:52:41.346Z</time>
      </trkpt>
      <trkpt lat="46.3681" lon="-1.22097">
        <ele>48.484604</ele>
        <time>2022-12-19T12:52:43.350Z</time>
      </trkpt>
      <trkpt lat="46.36811" lon="-1.22078">
        <ele>48.567917</ele>
        <time>2022-12-19T12:52:46.348Z</time>
      </trkpt>
      <trkpt lat="46.36811" lon="-1.22059">
        <ele>48.650039</ele>
        <time>2022-12-19T12:52:49.349Z</time>
      </trkpt>
      <trkpt lat="46.36811" lon="-1.22046">
        <ele>48.708978</ele>
        <time>2022-12-19T12:52:51.408Z</time>
      </trkpt>
      <trkpt lat="46.36811" lon="-1.22026">
        <ele>48.794491</ele>
        <time>2022-12-19T12:52:54.352Z</time>
      </trkpt>
      <trkpt lat="46.36811" lon="-1.22012">
        <ele>48.856458</ele>
        <time>2022-12-19T12:52:56.346Z</time>
      </trkpt>
      <trkpt lat="46.36812" lon="-1.21998">
        <ele>48.917989</ele>
        <time>2022-12-19T12:52:58.340Z</time>
      </trkpt>
      <trkpt lat="46.36812" lon="-1.21983">
        <ele>48.980812</ele>
        <time>2022-12-19T12:53:00.360Z</time>
      </trkpt>
      <trkpt lat="46.36812" lon="-1.21969">
        <ele>49.041881</ele>
        <time>2022-12-19T12:53:02.347Z</time>
      </trkpt>
      <trkpt lat="46.36812" lon="-1.21956">
        <ele>49.10082</ele>
        <time>2022-12-19T12:53:04.345Z</time>
      </trkpt>
      <trkpt lat="46.36813" lon="-1.21942">
        <ele>49.159354</ele>
        <time>2022-12-19T12:53:06.347Z</time>
      </trkpt>
      <trkpt lat="46.36813" lon="-1.21926">
        <ele>49.232658</ele>
        <time>2022-12-19T12:53:09.395Z</time>
      </trkpt>
      <trkpt lat="46.36814" lon="-1.21907">
        <ele>49.31351</ele>
        <time>2022-12-19T12:53:12.345Z</time>
      </trkpt>
      <trkpt lat="46.36815" lon="-1.21889">
        <ele>49.328593</ele>
        <time>2022-12-19T12:53:15.323Z</time>
      </trkpt>
      <trkpt lat="46.36815" lon="-1.21869">
        <ele>49.228214</ele>
        <time>2022-12-19T12:53:18.327Z</time>
      </trkpt>
      <trkpt lat="46.36816" lon="-1.21856">
        <ele>49.15887</ele>
        <time>2022-12-19T12:53:20.333Z</time>
      </trkpt>
      <trkpt lat="46.36817" lon="-1.21842">
        <ele>49.0843</ele>
        <time>2022-12-19T12:53:22.333Z</time>
      </trkpt>
      <trkpt lat="46.36819" lon="-1.21828">
        <ele>49.009614</ele>
        <time>2022-12-19T12:53:24.349Z</time>
      </trkpt>
      <trkpt lat="46.36821" lon="-1.21814">
        <ele>48.937113</ele>
        <time>2022-12-19T12:53:26.335Z</time>
      </trkpt>
      <trkpt lat="46.36824" lon="-1.218">
        <ele>48.862437</ele>
        <time>2022-12-19T12:53:28.335Z</time>
      </trkpt>
      <trkpt lat="46.36827" lon="-1.21787">
        <ele>48.790914</ele>
        <time>2022-12-19T12:53:30.339Z</time>
      </trkpt>
      <trkpt lat="46.36831" lon="-1.21775">
        <ele>48.7221</ele>
        <time>2022-12-19T12:53:32.350Z</time>
      </trkpt>
      <trkpt lat="46.36835" lon="-1.21763">
        <ele>48.650996</ele>
        <time>2022-12-19T12:53:34.346Z</time>
      </trkpt>
      <trkpt lat="46.36841" lon="-1.21752">
        <ele>48.579107</ele>
        <time>2022-12-19T12:53:36.329Z</time>
      </trkpt>
      <trkpt lat="46.36846" lon="-1.2174">
        <ele>48.506363</ele>
        <time>2022-12-19T12:53:38.327Z</time>
      </trkpt>
      <trkpt lat="46.36852" lon="-1.21729">
        <ele>48.431054</ele>
        <time>2022-12-19T12:53:40.325Z</time>
      </trkpt>
      <trkpt lat="46.36857" lon="-1.21716">
        <ele>48.353984</ele>
        <time>2022-12-19T12:53:42.402Z</time>
      </trkpt>
      <trkpt lat="46.36863" lon="-1.21704">
        <ele>48.278676</ele>
        <time>2022-12-19T12:53:44.351Z</time>
      </trkpt>
      <trkpt lat="46.36869" lon="-1.21691">
        <ele>48.199446</ele>
        <time>2022-12-19T12:53:46.333Z</time>
      </trkpt>
      <trkpt lat="46.36874" lon="-1.21678">
        <ele>48.121842</ele>
        <time>2022-12-19T12:53:48.399Z</time>
      </trkpt>
      <trkpt lat="46.3688" lon="-1.21666">
        <ele>48.043952</ele>
        <time>2022-12-19T12:53:50.349Z</time>
      </trkpt>
      <trkpt lat="46.36886" lon="-1.21654">
        <ele>48.043525</ele>
        <time>2022-12-19T12:53:52.346Z</time>
      </trkpt>
      <trkpt lat="46.36891" lon="-1.2164">
        <ele>48.109739</ele>
        <time>2022-12-19T12:53:54.405Z</time>
      </trkpt>
      <trkpt lat="46.36896" lon="-1.21627">
        <ele>48.174793</ele>
        <time>2022-12-19T12:53:56.350Z</time>
      </trkpt>
      <trkpt lat="46.36901" lon="-1.21614">
        <ele>48.239462</ele>
        <time>2022-12-19T12:53:58.355Z</time>
      </trkpt>
      <trkpt lat="46.36907" lon="-1.216">
        <ele>48.306862</ele>
        <time>2022-12-19T12:54:00.397Z</time>
      </trkpt>
      <trkpt lat="46.36912" lon="-1.21587">
        <ele>48.370175</ele>
        <time>2022-12-19T12:54:02.344Z</time>
      </trkpt>
      <trkpt lat="46.36916" lon="-1.21574">
        <ele>48.433431</ele>
        <time>2022-12-19T12:54:04.346Z</time>
      </trkpt>
      <trkpt lat="46.36921" lon="-1.21561">
        <ele>48.497557</ele>
        <time>2022-12-19T12:54:06.423Z</time>
      </trkpt>
      <trkpt lat="46.36926" lon="-1.21547">
        <ele>48.561675</ele>
        <time>2022-12-19T12:54:08.345Z</time>
      </trkpt>
      <trkpt lat="46.36931" lon="-1.21533">
        <ele>48.628933</ele>
        <time>2022-12-19T12:54:10.349Z</time>
      </trkpt>
      <trkpt lat="46.36936" lon="-1.21519">
        <ele>48.697307</ele>
        <time>2022-12-19T12:54:12.382Z</time>
      </trkpt>
      <trkpt lat="46.36941" lon="-1.21505">
        <ele>48.764349</ele>
        <time>2022-12-19T12:54:14.320Z</time>
      </trkpt>
      <trkpt lat="46.36946" lon="-1.21491">
        <ele>48.829615</ele>
        <time>2022-12-19T12:54:16.327Z</time>
      </trkpt>
      <trkpt lat="46.36951" lon="-1.21478">
        <ele>48.893155</ele>
        <time>2022-12-19T12:54:18.391Z</time>
      </trkpt>
      <trkpt lat="46.36955" lon="-1.21466">
        <ele>48.951025</ele>
        <time>2022-12-19T12:54:20.348Z</time>
      </trkpt>
      <trkpt lat="46.36959" lon="-1.21452">
        <ele>49.015119</ele>
        <time>2022-12-19T12:54:22.342Z</time>
      </trkpt>
      <trkpt lat="46.36964" lon="-1.2144">
        <ele>49.076017</ele>
        <time>2022-12-19T12:54:24.348Z</time>
      </trkpt>
      <trkpt lat="46.36969" lon="-1.21426">
        <ele>49.121479</ele>
        <time>2022-12-19T12:54:26.349Z</time>
      </trkpt>
      <trkpt lat="46.36973" lon="-1.21413">
        <ele>49.128193</ele>
        <time>2022-12-19T12:54:28.331Z</time>
      </trkpt>
      <trkpt lat="46.36978" lon="-1.214">
        <ele>49.135023</ele>
        <time>2022-12-19T12:54:30.348Z</time>
      </trkpt>
      <trkpt lat="46.36982" lon="-1.21388">
        <ele>49.141543</ele>
        <time>2022-12-19T12:54:32.346Z</time>
      </trkpt>
      <trkpt lat="46.36986" lon="-1.21375">
        <ele>49.148309</ele>
        <time>2022-12-19T12:54:34.348Z</time>
      </trkpt>
      <trkpt lat="46.36991" lon="-1.21362">
        <ele>49.155011</ele>
        <time>2022-12-19T12:54:36.349Z</time>
      </trkpt>
      <trkpt lat="46.36995" lon="-1.21349">
        <ele>49.161717</ele>
        <time>2022-12-19T12:54:38.354Z</time>
      </trkpt>
      <trkpt lat="46.37" lon="-1.21337">
        <ele>49.168334</ele>
        <time>2022-12-19T12:54:40.348Z</time>
      </trkpt>
      <trkpt lat="46.37004" lon="-1.21323">
        <ele>49.175249</ele>
        <time>2022-12-19T12:54:42.346Z</time>
      </trkpt>
      <trkpt lat="46.37009" lon="-1.2131">
        <ele>49.182109</ele>
        <time>2022-12-19T12:54:44.345Z</time>
      </trkpt>
      <trkpt lat="46.37013" lon="-1.21296">
        <ele>49.189057</ele>
        <time>2022-12-19T12:54:46.347Z</time>
      </trkpt>
      <trkpt lat="46.37017" lon="-1.21282">
        <ele>49.196298</ele>
        <time>2022-12-19T12:54:48.347Z</time>
      </trkpt>
      <trkpt lat="46.37021" lon="-1.21267">
        <ele>49.203505</ele>
        <time>2022-12-19T12:54:50.343Z</time>
      </trkpt>
      <trkpt lat="46.37024" lon="-1.21253">
        <ele>49.210445</ele>
        <time>2022-12-19T12:54:52.394Z</time>
      </trkpt>
      <trkpt lat="46.37027" lon="-1.21238">
        <ele>49.217804</ele>
        <time>2022-12-19T12:54:54.344Z</time>
      </trkpt>
      <trkpt lat="46.3703" lon="-1.21224">
        <ele>49.224704</ele>
        <time>2022-12-19T12:54:56.344Z</time>
      </trkpt>
      <trkpt lat="46.37033" lon="-1.21211">
        <ele>49.231118</ele>
        <time>2022-12-19T12:54:58.413Z</time>
      </trkpt>
      <trkpt lat="46.37036" lon="-1.21193">
        <ele>49.239504</ele>
        <time>2022-12-19T12:55:01.347Z</time>
      </trkpt>
      <trkpt lat="46.37039" lon="-1.21176">
        <ele>49.086691</ele>
        <time>2022-12-19T12:55:04.422Z</time>
      </trkpt>
      <trkpt lat="46.37043" lon="-1.21157">
        <ele>48.898984</ele>
        <time>2022-12-19T12:55:07.347Z</time>
      </trkpt>
      <trkpt lat="46.37046" lon="-1.21139">
        <ele>48.710334</ele>
        <time>2022-12-19T12:55:10.402Z</time>
      </trkpt>
      <trkpt lat="46.37049" lon="-1.21121">
        <ele>48.527145</ele>
        <time>2022-12-19T12:55:13.349Z</time>
      </trkpt>
      <trkpt lat="46.37052" lon="-1.21108">
        <ele>48.396032</ele>
        <time>2022-12-19T12:55:15.347Z</time>
      </trkpt>
      <trkpt lat="46.37054" lon="-1.21094">
        <ele>48.260203</ele>
        <time>2022-12-19T12:55:17.350Z</time>
      </trkpt>
      <trkpt lat="46.37058" lon="-1.21076">
        <ele>48.071678</ele>
        <time>2022-12-19T12:55:20.345Z</time>
      </trkpt>
      <trkpt lat="46.3706" lon="-1.21063">
        <ele>47.937989</ele>
        <time>2022-12-19T12:55:22.403Z</time>
      </trkpt>
      <trkpt lat="46.37063" lon="-1.21049">
        <ele>47.800628</ele>
        <time>2022-12-19T12:55:24.347Z</time>
      </trkpt>
      <trkpt lat="46.37066" lon="-1.21037">
        <ele>47.67203</ele>
        <time>2022-12-19T12:55:26.357Z</time>
      </trkpt>
      <trkpt lat="46.37069" lon="-1.21017">
        <ele>47.476222</ele>
        <time>2022-12-19T12:55:29.352Z</time>
      </trkpt>
      <trkpt lat="46.37071" lon="-1.21004">
        <ele>47.344315</ele>
        <time>2022-12-19T12:55:31.348Z</time>
      </trkpt>
      <trkpt lat="46.37074" lon="-1.20991">
        <ele>47.211873</ele>
        <time>2022-12-19T12:55:33.361Z</time>
      </trkpt>
      <trkpt lat="46.37077" lon="-1.20978">
        <ele>47.075808</ele>
        <time>2022-12-19T12:55:35.334Z</time>
      </trkpt>
      <trkpt lat="46.3708" lon="-1.20959">
        <ele>46.889418</ele>
        <time>2022-12-19T12:55:38.349Z</time>
      </trkpt>
      <trkpt lat="46.37083" lon="-1.20943">
        <ele>46.719824</ele>
        <time>2022-12-19T12:55:41.347Z</time>
      </trkpt>
      <trkpt lat="46.37087" lon="-1.20928">
        <ele>46.617384</ele>
        <time>2022-12-19T12:55:44.333Z</time>
      </trkpt>
      <trkpt lat="46.3709" lon="-1.20915">
        <ele>46.539576</ele>
        <time>2022-12-19T12:55:47.347Z</time>
      </trkpt>
      <trkpt lat="46.37091" lon="-1.20903">
        <ele>46.467595</ele>
        <time>2022-12-19T12:56:24.979Z</time>
      </trkpt>
      <trkpt lat="46.37091" lon="-1.20905">
        <ele>46.455423</ele>
        <time>2022-12-19T13:10:21.338Z</time>
      </trkpt>
      <trkpt lat="46.37097" lon="-1.20889">
        <ele>46.349757</ele>
        <time>2022-12-19T13:10:38.342Z</time>
      </trkpt>
      <trkpt lat="46.37101" lon="-1.20877">
        <ele>46.271641</ele>
        <time>2022-12-19T13:10:42.336Z</time>
      </trkpt>
      <trkpt lat="46.37107" lon="-1.20862">
        <ele>46.170641</ele>
        <time>2022-12-19T13:10:46.341Z</time>
      </trkpt>
      <trkpt lat="46.37111" lon="-1.20849">
        <ele>46.089037</ele>
        <time>2022-12-19T13:10:49.352Z</time>
      </trkpt>
      <trkpt lat="46.37118" lon="-1.20837">
        <ele>46.002097</ele>
        <time>2022-12-19T13:10:52.330Z</time>
      </trkpt>
      <trkpt lat="46.37124" lon="-1.20824">
        <ele>45.909045</ele>
        <time>2022-12-19T13:10:55.345Z</time>
      </trkpt>
      <trkpt lat="46.3713" lon="-1.2081">
        <ele>45.812666</ele>
        <time>2022-12-19T13:10:58.332Z</time>
      </trkpt>
      <trkpt lat="46.37137" lon="-1.20796">
        <ele>45.712384</ele>
        <time>2022-12-19T13:11:01.350Z</time>
      </trkpt>
      <trkpt lat="46.37145" lon="-1.20782">
        <ele>45.60627</ele>
        <time>2022-12-19T13:11:04.326Z</time>
      </trkpt>
      <trkpt lat="46.37153" lon="-1.20767">
        <ele>45.502197</ele>
        <time>2022-12-19T13:11:07.338Z</time>
      </trkpt>
      <trkpt lat="46.37161" lon="-1.20753">
        <ele>45.395938</ele>
        <time>2022-12-19T13:11:10.340Z</time>
      </trkpt>
      <trkpt lat="46.37169" lon="-1.20739">
        <ele>45.287625</ele>
        <time>2022-12-19T13:11:13.341Z</time>
      </trkpt>
      <trkpt lat="46.37178" lon="-1.20725">
        <ele>45.181124</ele>
        <time>2022-12-19T13:11:16.344Z</time>
      </trkpt>
      <trkpt lat="46.37186" lon="-1.20712">
        <ele>45.201584</ele>
        <time>2022-12-19T13:11:19.348Z</time>
      </trkpt>
      <trkpt lat="46.37195" lon="-1.20698">
        <ele>45.225226</ele>
        <time>2022-12-19T13:11:22.347Z</time>
      </trkpt>
      <trkpt lat="46.37201" lon="-1.20688">
        <ele>45.241638</ele>
        <time>2022-12-19T13:11:24.348Z</time>
      </trkpt>
      <trkpt lat="46.37209" lon="-1.20674">
        <ele>45.265374</ele>
        <time>2022-12-19T13:11:27.346Z</time>
      </trkpt>
      <trkpt lat="46.37218" lon="-1.20659">
        <ele>45.289043</ele>
        <time>2022-12-19T13:11:30.344Z</time>
      </trkpt>
      <trkpt lat="46.37227" lon="-1.20645">
        <ele>45.313452</ele>
        <time>2022-12-19T13:11:33.348Z</time>
      </trkpt>
      <trkpt lat="46.37235" lon="-1.2063">
        <ele>45.337878</ele>
        <time>2022-12-19T13:11:36.363Z</time>
      </trkpt>
      <trkpt lat="46.37241" lon="-1.2062">
        <ele>45.354407</ele>
        <time>2022-12-19T13:11:38.346Z</time>
      </trkpt>
      <trkpt lat="46.37247" lon="-1.2061">
        <ele>45.371175</ele>
        <time>2022-12-19T13:11:40.348Z</time>
      </trkpt>
      <trkpt lat="46.37253" lon="-1.206">
        <ele>45.387665</ele>
        <time>2022-12-19T13:11:42.349Z</time>
      </trkpt>
      <trkpt lat="46.3726" lon="-1.2059">
        <ele>45.404833</ele>
        <time>2022-12-19T13:11:44.349Z</time>
      </trkpt>
      <trkpt lat="46.37266" lon="-1.20579">
        <ele>45.422057</ele>
        <time>2022-12-19T13:11:46.333Z</time>
      </trkpt>
      <trkpt lat="46.37272" lon="-1.20568">
        <ele>45.440211</ele>
        <time>2022-12-19T13:11:48.350Z</time>
      </trkpt>
      <trkpt lat="46.37279" lon="-1.20557">
        <ele>45.458363</ele>
        <time>2022-12-19T13:11:50.347Z</time>
      </trkpt>
      <trkpt lat="46.37285" lon="-1.20547">
        <ele>45.475131</ele>
        <time>2022-12-19T13:11:52.350Z</time>
      </trkpt>
      <trkpt lat="46.37291" lon="-1.20537">
        <ele>45.492667</ele>
        <time>2022-12-19T13:11:54.360Z</time>
      </trkpt>
      <trkpt lat="46.37298" lon="-1.20527">
        <ele>45.528457</ele>
        <time>2022-12-19T13:11:56.347Z</time>
      </trkpt>
      <trkpt lat="46.37304" lon="-1.20516">
        <ele>45.620953</ele>
        <time>2022-12-19T13:11:58.336Z</time>
      </trkpt>
      <trkpt lat="46.3731" lon="-1.20506">
        <ele>45.71146</ele>
        <time>2022-12-19T13:12:00.334Z</time>
      </trkpt>
      <trkpt lat="46.37319" lon="-1.20493">
        <ele>45.831658</ele>
        <time>2022-12-19T13:12:03.332Z</time>
      </trkpt>
      <trkpt lat="46.37328" lon="-1.20479">
        <ele>45.959413</ele>
        <time>2022-12-19T13:12:06.347Z</time>
      </trkpt>
      <trkpt lat="46.37338" lon="-1.20465">
        <ele>46.089215</ele>
        <time>2022-12-19T13:12:09.349Z</time>
      </trkpt>
      <trkpt lat="46.37345" lon="-1.20457">
        <ele>46.177326</ele>
        <time>2022-12-19T13:12:11.349Z</time>
      </trkpt>
      <trkpt lat="46.37352" lon="-1.20447">
        <ele>46.272741</ele>
        <time>2022-12-19T13:12:13.331Z</time>
      </trkpt>
      <trkpt lat="46.3736" lon="-1.20438">
        <ele>46.366803</ele>
        <time>2022-12-19T13:12:15.347Z</time>
      </trkpt>
      <trkpt lat="46.37368" lon="-1.2043">
        <ele>46.462392</ele>
        <time>2022-12-19T13:12:17.342Z</time>
      </trkpt>
      <trkpt lat="46.37375" lon="-1.20423">
        <ele>46.55078</ele>
        <time>2022-12-19T13:12:19.338Z</time>
      </trkpt>
      <trkpt lat="46.37387" lon="-1.20412">
        <ele>46.679853</ele>
        <time>2022-12-19T13:12:22.339Z</time>
      </trkpt>
      <trkpt lat="46.37399" lon="-1.20403">
        <ele>46.809172</ele>
        <time>2022-12-19T13:12:25.337Z</time>
      </trkpt>
      <trkpt lat="46.37407" lon="-1.20398">
        <ele>46.898814</ele>
        <time>2022-12-19T13:12:27.329Z</time>
      </trkpt>
      <trkpt lat="46.37416" lon="-1.20391">
        <ele>46.996563</ele>
        <time>2022-12-19T13:12:29.348Z</time>
      </trkpt>
      <trkpt lat="46.37425" lon="-1.20387">
        <ele>47.088985</ele>
        <time>2022-12-19T13:12:31.333Z</time>
      </trkpt>
      <trkpt lat="46.37435" lon="-1.20383">
        <ele>47.181914</ele>
        <time>2022-12-19T13:12:33.335Z</time>
      </trkpt>
      <trkpt lat="46.37443" lon="-1.20378">
        <ele>47.254206</ele>
        <time>2022-12-19T13:12:35.343Z</time>
      </trkpt>
      <trkpt lat="46.37456" lon="-1.20372">
        <ele>47.32229</ele>
        <time>2022-12-19T13:12:38.358Z</time>
      </trkpt>
      <trkpt lat="46.37465" lon="-1.20369">
        <ele>47.367186</ele>
        <time>2022-12-19T13:12:40.330Z</time>
      </trkpt>
      <trkpt lat="46.37477" lon="-1.20366">
        <ele>47.428804</ele>
        <time>2022-12-19T13:12:43.349Z</time>
      </trkpt>
      <trkpt lat="46.37487" lon="-1.20363">
        <ele>47.480515</ele>
        <time>2022-12-19T13:12:47.350Z</time>
      </trkpt>
      <trkpt lat="46.37501" lon="-1.20361">
        <ele>47.547847</ele>
        <time>2022-12-19T13:14:19.331Z</time>
      </trkpt>
      <trkpt lat="46.3751" lon="-1.2036">
        <ele>47.594078</ele>
        <time>2022-12-19T13:14:22.351Z</time>
      </trkpt>
      <trkpt lat="46.37521" lon="-1.20357">
        <ele>47.649524</ele>
        <time>2022-12-19T13:14:25.337Z</time>
      </trkpt>
      <trkpt lat="46.37533" lon="-1.20355">
        <ele>47.711952</ele>
        <time>2022-12-19T13:14:28.349Z</time>
      </trkpt>
      <trkpt lat="46.37546" lon="-1.20353">
        <ele>47.777685</ele>
        <time>2022-12-19T13:14:31.332Z</time>
      </trkpt>
      <trkpt lat="46.3756" lon="-1.20351">
        <ele>47.845161</ele>
        <time>2022-12-19T13:14:34.360Z</time>
      </trkpt>
      <trkpt lat="46.37569" lon="-1.2035">
        <ele>47.892601</ele>
        <time>2022-12-19T13:14:36.350Z</time>
      </trkpt>
      <trkpt lat="46.37579" lon="-1.20348">
        <ele>47.942238</ele>
        <time>2022-12-19T13:14:38.346Z</time>
      </trkpt>
      <trkpt lat="46.37589" lon="-1.20347">
        <ele>47.992541</ele>
        <time>2022-12-19T13:14:40.336Z</time>
      </trkpt>
      <trkpt lat="46.37599" lon="-1.20346">
        <ele>48.040655</ele>
        <time>2022-12-19T13:14:42.350Z</time>
      </trkpt>
      <trkpt lat="46.37609" lon="-1.20344">
        <ele>48.090669</ele>
        <time>2022-12-19T13:14:44.345Z</time>
      </trkpt>
      <trkpt lat="46.37619" lon="-1.20343">
        <ele>48.120738</ele>
        <time>2022-12-19T13:14:46.349Z</time>
      </trkpt>
      <trkpt lat="46.37629" lon="-1.20341">
        <ele>48.002238</ele>
        <time>2022-12-19T13:14:48.359Z</time>
      </trkpt>
      <trkpt lat="46.37638" lon="-1.2034">
        <ele>47.88697</ele>
        <time>2022-12-19T13:14:50.331Z</time>
      </trkpt>
      <trkpt lat="46.37649" lon="-1.20338">
        <ele>47.762606</ele>
        <time>2022-12-19T13:14:52.329Z</time>
      </trkpt>
      <trkpt lat="46.3766" lon="-1.20336">
        <ele>47.6369</ele>
        <time>2022-12-19T13:14:54.344Z</time>
      </trkpt>
      <trkpt lat="46.37671" lon="-1.20335">
        <ele>47.506812</ele>
        <time>2022-12-19T13:14:56.348Z</time>
      </trkpt>
      <trkpt lat="46.37681" lon="-1.20333">
        <ele>47.381015</ele>
        <time>2022-12-19T13:14:58.345Z</time>
      </trkpt>
      <trkpt lat="46.37692" lon="-1.20332">
        <ele>47.252165</ele>
        <time>2022-12-19T13:15:00.351Z</time>
      </trkpt>
      <trkpt lat="46.37703" lon="-1.20331">
        <ele>47.125455</ele>
        <time>2022-12-19T13:15:02.335Z</time>
      </trkpt>
      <trkpt lat="46.37713" lon="-1.2033">
        <ele>47.007304</ele>
        <time>2022-12-19T13:15:04.347Z</time>
      </trkpt>
      <trkpt lat="46.37722" lon="-1.20327">
        <ele>46.891701</ele>
        <time>2022-12-19T13:15:06.368Z</time>
      </trkpt>
      <trkpt lat="46.37732" lon="-1.20326">
        <ele>46.777602</ele>
        <time>2022-12-19T13:15:08.352Z</time>
      </trkpt>
      <trkpt lat="46.37742" lon="-1.20324">
        <ele>46.660187</ele>
        <time>2022-12-19T13:15:10.348Z</time>
      </trkpt>
      <trkpt lat="46.37752" lon="-1.20323">
        <ele>46.546375</ele>
        <time>2022-12-19T13:15:12.346Z</time>
      </trkpt>
      <trkpt lat="46.37762" lon="-1.20321">
        <ele>46.427875</ele>
        <time>2022-12-19T13:15:14.348Z</time>
      </trkpt>
      <trkpt lat="46.37772" lon="-1.20319">
        <ele>46.304601</ele>
        <time>2022-12-19T13:15:16.347Z</time>
      </trkpt>
      <trkpt lat="46.37782" lon="-1.20317">
        <ele>46.183166</ele>
        <time>2022-12-19T13:15:18.347Z</time>
      </trkpt>
      <trkpt lat="46.37793" lon="-1.20316">
        <ele>46.058632</ele>
        <time>2022-12-19T13:15:20.349Z</time>
      </trkpt>
      <trkpt lat="46.37803" lon="-1.20314">
        <ele>45.96565</ele>
        <time>2022-12-19T13:15:22.340Z</time>
      </trkpt>
      <trkpt lat="46.37814" lon="-1.20313">
        <ele>45.886878</ele>
        <time>2022-12-19T13:15:24.340Z</time>
      </trkpt>
      <trkpt lat="46.37825" lon="-1.20311">
        <ele>45.813382</ele>
        <time>2022-12-19T13:15:26.342Z</time>
      </trkpt>
      <trkpt lat="46.37836" lon="-1.2031">
        <ele>45.738144</ele>
        <time>2022-12-19T13:15:28.346Z</time>
      </trkpt>
      <trkpt lat="46.37847" lon="-1.20308">
        <ele>45.659071</ele>
        <time>2022-12-19T13:15:30.349Z</time>
      </trkpt>
      <trkpt lat="46.37859" lon="-1.20306">
        <ele>45.575813</ele>
        <time>2022-12-19T13:15:32.348Z</time>
      </trkpt>
      <trkpt lat="46.3787" lon="-1.20305">
        <ele>45.492603</ele>
        <time>2022-12-19T13:15:34.343Z</time>
      </trkpt>
      <trkpt lat="46.37882" lon="-1.20303">
        <ele>45.409345</ele>
        <time>2022-12-19T13:15:36.346Z</time>
      </trkpt>
      <trkpt lat="46.37894" lon="-1.20301">
        <ele>45.326086</ele>
        <time>2022-12-19T13:15:38.347Z</time>
      </trkpt>
      <trkpt lat="46.37905" lon="-1.20299">
        <ele>45.246776</ele>
        <time>2022-12-19T13:15:40.347Z</time>
      </trkpt>
      <trkpt lat="46.37916" lon="-1.20298">
        <ele>45.17372</ele>
        <time>2022-12-19T13:15:42.350Z</time>
      </trkpt>
      <trkpt lat="46.37925" lon="-1.20296">
        <ele>45.10344</ele>
        <time>2022-12-19T13:15:44.345Z</time>
      </trkpt>
      <trkpt lat="46.37935" lon="-1.20294">
        <ele>45.03406</ele>
        <time>2022-12-19T13:15:46.349Z</time>
      </trkpt>
      <trkpt lat="46.37945" lon="-1.20293">
        <ele>44.963515</ele>
        <time>2022-12-19T13:15:48.343Z</time>
      </trkpt>
      <trkpt lat="46.37956" lon="-1.20291">
        <ele>44.887336</ele>
        <time>2022-12-19T13:15:50.346Z</time>
      </trkpt>
      <trkpt lat="46.37966" lon="-1.2029">
        <ele>44.814164</ele>
        <time>2022-12-19T13:15:52.346Z</time>
      </trkpt>
      <trkpt lat="46.37978" lon="-1.20288">
        <ele>44.736797</ele>
        <time>2022-12-19T13:15:54.351Z</time>
      </trkpt>
      <trkpt lat="46.37989" lon="-1.20287">
        <ele>44.662514</ele>
        <time>2022-12-19T13:15:56.324Z</time>
      </trkpt>
      <trkpt lat="46.38" lon="-1.20285">
        <ele>44.589648</ele>
        <time>2022-12-19T13:15:58.349Z</time>
      </trkpt>
      <trkpt lat="46.38011" lon="-1.20283">
        <ele>44.513049</ele>
        <time>2022-12-19T13:16:00.346Z</time>
      </trkpt>
      <trkpt lat="46.38022" lon="-1.20282">
        <ele>44.439791</ele>
        <time>2022-12-19T13:16:02.330Z</time>
      </trkpt>
      <trkpt lat="46.38034" lon="-1.2028">
        <ele>44.359455</ele>
        <time>2022-12-19T13:16:04.332Z</time>
      </trkpt>
      <trkpt lat="46.38046" lon="-1.20279">
        <ele>44.279372</ele>
        <time>2022-12-19T13:16:06.348Z</time>
      </trkpt>
      <trkpt lat="46.38058" lon="-1.20277">
        <ele>44.197713</ele>
        <time>2022-12-19T13:16:08.348Z</time>
      </trkpt>
      <trkpt lat="46.3807" lon="-1.20275">
        <ele>44.116763</ele>
        <time>2022-12-19T13:16:10.346Z</time>
      </trkpt>
      <trkpt lat="46.38082" lon="-1.20274">
        <ele>44.040396</ele>
        <time>2022-12-19T13:16:12.347Z</time>
      </trkpt>
      <trkpt lat="46.38094" lon="-1.20271">
        <ele>43.959779</ele>
        <time>2022-12-19T13:16:14.348Z</time>
      </trkpt>
      <trkpt lat="46.38106" lon="-1.20269">
        <ele>43.877961</ele>
        <time>2022-12-19T13:16:16.348Z</time>
      </trkpt>
      <trkpt lat="46.38118" lon="-1.20267">
        <ele>43.796143</ele>
        <time>2022-12-19T13:16:18.348Z</time>
      </trkpt>
      <trkpt lat="46.38129" lon="-1.20265">
        <ele>43.721811</ele>
        <time>2022-12-19T13:16:20.348Z</time>
      </trkpt>
      <trkpt lat="46.3814" lon="-1.20264">
        <ele>43.649126</ele>
        <time>2022-12-19T13:16:22.328Z</time>
      </trkpt>
      <trkpt lat="46.38151" lon="-1.20262">
        <ele>43.572648</ele>
        <time>2022-12-19T13:16:24.350Z</time>
      </trkpt>
      <trkpt lat="46.38163" lon="-1.2026">
        <ele>43.538878</ele>
        <time>2022-12-19T13:16:26.347Z</time>
      </trkpt>
      <trkpt lat="46.38174" lon="-1.20259">
        <ele>43.51709</ele>
        <time>2022-12-19T13:16:28.347Z</time>
      </trkpt>
      <trkpt lat="46.38186" lon="-1.20257">
        <ele>43.49581</ele>
        <time>2022-12-19T13:16:30.349Z</time>
      </trkpt>
      <trkpt lat="46.38197" lon="-1.20256">
        <ele>43.475345</ele>
        <time>2022-12-19T13:16:32.347Z</time>
      </trkpt>
      <trkpt lat="46.38209" lon="-1.20254">
        <ele>43.453285</ele>
        <time>2022-12-19T13:16:34.329Z</time>
      </trkpt>
      <trkpt lat="46.3822" lon="-1.20253">
        <ele>43.431266</ele>
        <time>2022-12-19T13:16:36.334Z</time>
      </trkpt>
      <trkpt lat="46.38232" lon="-1.20251">
        <ele>43.410171</ele>
        <time>2022-12-19T13:16:38.347Z</time>
      </trkpt>
      <trkpt lat="46.38244" lon="-1.20249">
        <ele>43.387756</ele>
        <time>2022-12-19T13:16:40.348Z</time>
      </trkpt>
      <trkpt lat="46.38256" lon="-1.20246">
        <ele>43.365043</ele>
        <time>2022-12-19T13:16:42.337Z</time>
      </trkpt>
      <trkpt lat="46.38267" lon="-1.20245">
        <ele>43.343254</ele>
        <time>2022-12-19T13:16:44.347Z</time>
      </trkpt>
      <trkpt lat="46.38279" lon="-1.20244">
        <ele>43.322021</ele>
        <time>2022-12-19T13:16:46.351Z</time>
      </trkpt>
      <trkpt lat="46.3829" lon="-1.20242">
        <ele>43.300714</ele>
        <time>2022-12-19T13:16:48.348Z</time>
      </trkpt>
      <trkpt lat="46.38302" lon="-1.2024">
        <ele>43.278838</ele>
        <time>2022-12-19T13:16:50.333Z</time>
      </trkpt>
      <trkpt lat="46.38313" lon="-1.20238">
        <ele>43.257571</ele>
        <time>2022-12-19T13:16:52.348Z</time>
      </trkpt>
      <trkpt lat="46.38324" lon="-1.20236">
        <ele>43.23789</ele>
        <time>2022-12-19T13:16:54.350Z</time>
      </trkpt>
      <trkpt lat="46.38334" lon="-1.20235">
        <ele>43.225667</ele>
        <time>2022-12-19T13:16:56.347Z</time>
      </trkpt>
      <trkpt lat="46.38345" lon="-1.20233">
        <ele>43.275611</ele>
        <time>2022-12-19T13:16:58.353Z</time>
      </trkpt>
      <trkpt lat="46.38356" lon="-1.20231">
        <ele>43.325061</ele>
        <time>2022-12-19T13:17:00.343Z</time>
      </trkpt>
      <trkpt lat="46.38366" lon="-1.20229">
        <ele>43.37546</ele>
        <time>2022-12-19T13:17:02.347Z</time>
      </trkpt>
      <trkpt lat="46.38378" lon="-1.20227">
        <ele>43.428952</ele>
        <time>2022-12-19T13:17:04.346Z</time>
      </trkpt>
      <trkpt lat="46.38389" lon="-1.20225">
        <ele>43.481707</ele>
        <time>2022-12-19T13:17:06.346Z</time>
      </trkpt>
      <trkpt lat="46.38401" lon="-1.20224">
        <ele>43.534686</ele>
        <time>2022-12-19T13:17:08.349Z</time>
      </trkpt>
      <trkpt lat="46.38413" lon="-1.20222">
        <ele>43.589123</ele>
        <time>2022-12-19T13:17:10.348Z</time>
      </trkpt>
      <trkpt lat="46.38425" lon="-1.20221">
        <ele>43.643426</ele>
        <time>2022-12-19T13:17:12.347Z</time>
      </trkpt>
      <trkpt lat="46.38436" lon="-1.20219">
        <ele>43.697406</ele>
        <time>2022-12-19T13:17:14.355Z</time>
      </trkpt>
      <trkpt lat="46.38448" lon="-1.20218">
        <ele>43.752727</ele>
        <time>2022-12-19T13:17:16.332Z</time>
      </trkpt>
      <trkpt lat="46.3846" lon="-1.20216">
        <ele>43.808215</ele>
        <time>2022-12-19T13:17:18.342Z</time>
      </trkpt>
      <trkpt lat="46.38472" lon="-1.20214">
        <ele>43.860337</ele>
        <time>2022-12-19T13:17:20.346Z</time>
      </trkpt>
      <trkpt lat="46.38483" lon="-1.20212">
        <ele>43.912223</ele>
        <time>2022-12-19T13:17:22.349Z</time>
      </trkpt>
      <trkpt lat="46.38493" lon="-1.20211">
        <ele>43.957741</ele>
        <time>2022-12-19T13:17:24.347Z</time>
      </trkpt>
      <trkpt lat="46.38503" lon="-1.2021">
        <ele>44.006119</ele>
        <time>2022-12-19T13:17:26.345Z</time>
      </trkpt>
      <trkpt lat="46.38513" lon="-1.20208">
        <ele>44.037303</ele>
        <time>2022-12-19T13:17:28.351Z</time>
      </trkpt>
      <trkpt lat="46.38524" lon="-1.20206">
        <ele>43.969539</ele>
        <time>2022-12-19T13:17:30.352Z</time>
      </trkpt>
      <trkpt lat="46.38535" lon="-1.20204">
        <ele>43.899676</ele>
        <time>2022-12-19T13:17:32.348Z</time>
      </trkpt>
      <trkpt lat="46.38547" lon="-1.20203">
        <ele>43.828762</ele>
        <time>2022-12-19T13:17:34.344Z</time>
      </trkpt>
      <trkpt lat="46.38558" lon="-1.20201">
        <ele>43.755849</ele>
        <time>2022-12-19T13:17:36.354Z</time>
      </trkpt>
      <trkpt lat="46.3857" lon="-1.20199">
        <ele>43.681645</ele>
        <time>2022-12-19T13:17:38.347Z</time>
      </trkpt>
      <trkpt lat="46.38581" lon="-1.20198">
        <ele>43.612155</ele>
        <time>2022-12-19T13:17:40.348Z</time>
      </trkpt>
      <trkpt lat="46.38592" lon="-1.20196">
        <ele>43.542344</ele>
        <time>2022-12-19T13:17:42.350Z</time>
      </trkpt>
      <trkpt lat="46.38603" lon="-1.20194">
        <ele>43.47325</ele>
        <time>2022-12-19T13:17:44.347Z</time>
      </trkpt>
      <trkpt lat="46.38614" lon="-1.20193">
        <ele>43.406686</ele>
        <time>2022-12-19T13:17:46.346Z</time>
      </trkpt>
      <trkpt lat="46.38625" lon="-1.20191">
        <ele>43.337787</ele>
        <time>2022-12-19T13:17:48.346Z</time>
      </trkpt>
      <trkpt lat="46.38636" lon="-1.2019">
        <ele>43.267405</ele>
        <time>2022-12-19T13:17:50.347Z</time>
      </trkpt>
      <trkpt lat="46.38647" lon="-1.20188">
        <ele>43.198355</ele>
        <time>2022-12-19T13:17:52.354Z</time>
      </trkpt>
      <trkpt lat="46.38658" lon="-1.20186">
        <ele>43.131124</ele>
        <time>2022-12-19T13:17:54.330Z</time>
      </trkpt>
      <trkpt lat="46.38669" lon="-1.20185">
        <ele>43.060911</ele>
        <time>2022-12-19T13:17:56.349Z</time>
      </trkpt>
      <trkpt lat="46.3868" lon="-1.20183">
        <ele>42.991721</ele>
        <time>2022-12-19T13:17:58.350Z</time>
      </trkpt>
      <trkpt lat="46.3869" lon="-1.20181">
        <ele>42.926302</ele>
        <time>2022-12-19T13:18:00.348Z</time>
      </trkpt>
      <trkpt lat="46.38701" lon="-1.20179">
        <ele>43.015305</ele>
        <time>2022-12-19T13:18:02.349Z</time>
      </trkpt>
      <trkpt lat="46.38711" lon="-1.20178">
        <ele>43.103107</ele>
        <time>2022-12-19T13:18:04.330Z</time>
      </trkpt>
      <trkpt lat="46.38723" lon="-1.20176">
        <ele>43.218633</ele>
        <time>2022-12-19T13:18:07.349Z</time>
      </trkpt>
      <trkpt lat="46.38733" lon="-1.20174">
        <ele>43.302648</ele>
        <time>2022-12-19T13:18:09.350Z</time>
      </trkpt>
      <trkpt lat="46.38746" lon="-1.20173">
        <ele>43.418795</ele>
        <time>2022-12-19T13:18:12.344Z</time>
      </trkpt>
      <trkpt lat="46.38756" lon="-1.20171">
        <ele>43.509195</ele>
        <time>2022-12-19T13:18:14.349Z</time>
      </trkpt>
      <trkpt lat="46.38765" lon="-1.20169">
        <ele>43.596274</ele>
        <time>2022-12-19T13:18:16.346Z</time>
      </trkpt>
      <trkpt lat="46.38775" lon="-1.20167">
        <ele>43.683109</ele>
        <time>2022-12-19T13:18:18.349Z</time>
      </trkpt>
      <trkpt lat="46.38785" lon="-1.20166">
        <ele>43.776053</ele>
        <time>2022-12-19T13:18:20.340Z</time>
      </trkpt>
      <trkpt lat="46.38795" lon="-1.20164">
        <ele>43.869061</ele>
        <time>2022-12-19T13:18:22.346Z</time>
      </trkpt>
      <trkpt lat="46.38806" lon="-1.20163">
        <ele>43.960101</ele>
        <time>2022-12-19T13:18:24.347Z</time>
      </trkpt>
      <trkpt lat="46.38816" lon="-1.20162">
        <ele>44.05114</ele>
        <time>2022-12-19T13:18:26.352Z</time>
      </trkpt>
      <trkpt lat="46.38826" lon="-1.2016">
        <ele>44.147928</ele>
        <time>2022-12-19T13:18:28.352Z</time>
      </trkpt>
      <trkpt lat="46.38837" lon="-1.20158">
        <ele>44.242601</ele>
        <time>2022-12-19T13:18:30.346Z</time>
      </trkpt>
      <trkpt lat="46.38847" lon="-1.20156">
        <ele>44.333236</ele>
        <time>2022-12-19T13:18:32.345Z</time>
      </trkpt>
      <trkpt lat="46.38857" lon="-1.20156">
        <ele>44.421332</ele>
        <time>2022-12-19T13:18:34.345Z</time>
      </trkpt>
      <trkpt lat="46.3887" lon="-1.20153">
        <ele>44.540904</ele>
        <time>2022-12-19T13:18:37.347Z</time>
      </trkpt>
      <trkpt lat="46.38882" lon="-1.20149">
        <ele>44.657809</ele>
        <time>2022-12-19T13:18:40.348Z</time>
      </trkpt>
      <trkpt lat="46.38895" lon="-1.20144">
        <ele>44.773423</ele>
        <time>2022-12-19T13:18:43.345Z</time>
      </trkpt>
      <trkpt lat="46.38907" lon="-1.20138">
        <ele>44.8932</ele>
        <time>2022-12-19T13:18:46.348Z</time>
      </trkpt>
      <trkpt lat="46.38919" lon="-1.20129">
        <ele>45.016548</ele>
        <time>2022-12-19T13:18:49.347Z</time>
      </trkpt>
      <trkpt lat="46.3893" lon="-1.20119">
        <ele>45.138447</ele>
        <time>2022-12-19T13:18:52.326Z</time>
      </trkpt>
      <trkpt lat="46.38938" lon="-1.20111">
        <ele>45.225033</ele>
        <time>2022-12-19T13:18:54.350Z</time>
      </trkpt>
      <trkpt lat="46.38947" lon="-1.20103">
        <ele>45.318784</ele>
        <time>2022-12-19T13:18:56.346Z</time>
      </trkpt>
      <trkpt lat="46.38955" lon="-1.20095">
        <ele>45.407539</ele>
        <time>2022-12-19T13:18:58.349Z</time>
      </trkpt>
      <trkpt lat="46.38963" lon="-1.20087">
        <ele>45.4983</ele>
        <time>2022-12-19T13:19:00.368Z</time>
      </trkpt>
      <trkpt lat="46.38972" lon="-1.20079">
        <ele>45.594712</ele>
        <time>2022-12-19T13:19:02.350Z</time>
      </trkpt>
      <trkpt lat="46.38981" lon="-1.20071">
        <ele>45.691355</ele>
        <time>2022-12-19T13:19:04.349Z</time>
      </trkpt>
      <trkpt lat="46.3899" lon="-1.20063">
        <ele>45.785781</ele>
        <time>2022-12-19T13:19:06.355Z</time>
      </trkpt>
      <trkpt lat="46.38999" lon="-1.20055">
        <ele>45.881315</ele>
        <time>2022-12-19T13:19:08.348Z</time>
      </trkpt>
      <trkpt lat="46.39007" lon="-1.20047">
        <ele>45.973295</ele>
        <time>2022-12-19T13:19:10.348Z</time>
      </trkpt>
      <trkpt lat="46.39014" lon="-1.20039">
        <ele>46.056195</ele>
        <time>2022-12-19T13:19:12.348Z</time>
      </trkpt>
      <trkpt lat="46.39022" lon="-1.20032">
        <ele>46.138293</ele>
        <time>2022-12-19T13:19:14.348Z</time>
      </trkpt>
      <trkpt lat="46.39032" lon="-1.20022">
        <ele>46.265126</ele>
        <time>2022-12-19T13:19:17.349Z</time>
      </trkpt>
      <trkpt lat="46.39042" lon="-1.20012">
        <ele>46.394167</ele>
        <time>2022-12-19T13:19:20.349Z</time>
      </trkpt>
      <trkpt lat="46.39051" lon="-1.20001">
        <ele>46.519004</ele>
        <time>2022-12-19T13:19:23.334Z</time>
      </trkpt>
      <trkpt lat="46.3906" lon="-1.19988">
        <ele>46.66097</ele>
        <time>2022-12-19T13:19:26.345Z</time>
      </trkpt>
      <trkpt lat="46.39067" lon="-1.19978">
        <ele>46.761781</ele>
        <time>2022-12-19T13:19:28.347Z</time>
      </trkpt>
      <trkpt lat="46.39074" lon="-1.19968">
        <ele>46.867299</ele>
        <time>2022-12-19T13:19:30.352Z</time>
      </trkpt>
      <trkpt lat="46.3908" lon="-1.19958">
        <ele>46.966641</ele>
        <time>2022-12-19T13:19:32.349Z</time>
      </trkpt>
      <trkpt lat="46.39086" lon="-1.19948">
        <ele>47.063618</ele>
        <time>2022-12-19T13:19:34.350Z</time>
      </trkpt>
      <trkpt lat="46.39093" lon="-1.19939">
        <ele>47.164034</ele>
        <time>2022-12-19T13:19:36.348Z</time>
      </trkpt>
      <trkpt lat="46.39099" lon="-1.19929">
        <ele>47.261905</ele>
        <time>2022-12-19T13:19:38.349Z</time>
      </trkpt>
      <trkpt lat="46.39105" lon="-1.19919">
        <ele>47.36032</ele>
        <time>2022-12-19T13:19:40.352Z</time>
      </trkpt>
      <trkpt lat="46.39114" lon="-1.19905">
        <ele>47.50068</ele>
        <time>2022-12-19T13:19:43.348Z</time>
      </trkpt>
      <trkpt lat="46.39122" lon="-1.19892">
        <ele>47.629964</ele>
        <time>2022-12-19T13:19:46.348Z</time>
      </trkpt>
      <trkpt lat="46.3913" lon="-1.19881">
        <ele>47.749643</ele>
        <time>2022-12-19T13:19:49.348Z</time>
      </trkpt>
      <trkpt lat="46.39137" lon="-1.1987">
        <ele>47.856047</ele>
        <time>2022-12-19T13:19:52.346Z</time>
      </trkpt>
      <trkpt lat="46.39144" lon="-1.1986">
        <ele>47.960215</ele>
        <time>2022-12-19T13:19:55.350Z</time>
      </trkpt>
      <trkpt lat="46.39155" lon="-1.19859">
        <ele>48.083105</ele>
        <time>2022-12-19T13:19:58.328Z</time>
      </trkpt>
      <trkpt lat="46.39168" lon="-1.19857">
        <ele>48.235849</ele>
        <time>2022-12-19T13:20:01.347Z</time>
      </trkpt>
      <trkpt lat="46.39178" lon="-1.19856">
        <ele>48.351521</ele>
        <time>2022-12-19T13:20:03.349Z</time>
      </trkpt>
      <trkpt lat="46.39188" lon="-1.19854">
        <ele>48.466327</ele>
        <time>2022-12-19T13:20:05.352Z</time>
      </trkpt>
      <trkpt lat="46.39197" lon="-1.1985">
        <ele>48.580106</ele>
        <time>2022-12-19T13:20:07.350Z</time>
      </trkpt>
      <trkpt lat="46.39206" lon="-1.19843">
        <ele>48.698735</ele>
        <time>2022-12-19T13:20:09.351Z</time>
      </trkpt>
      <trkpt lat="46.39215" lon="-1.19838">
        <ele>48.805049</ele>
        <time>2022-12-19T13:20:11.337Z</time>
      </trkpt>
      <trkpt lat="46.39225" lon="-1.19831">
        <ele>48.933258</ele>
        <time>2022-12-19T13:20:13.346Z</time>
      </trkpt>
      <trkpt lat="46.39233" lon="-1.19825">
        <ele>49.048723</ele>
        <time>2022-12-19T13:20:15.330Z</time>
      </trkpt>
      <trkpt lat="46.39243" lon="-1.1982">
        <ele>49.165316</ele>
        <time>2022-12-19T13:20:17.347Z</time>
      </trkpt>
      <trkpt lat="46.39254" lon="-1.19812">
        <ele>49.315164</ele>
        <time>2022-12-19T13:20:20.351Z</time>
      </trkpt>
      <trkpt lat="46.39265" lon="-1.19806">
        <ele>49.455741</ele>
        <time>2022-12-19T13:20:23.347Z</time>
      </trkpt>
      <trkpt lat="46.39274" lon="-1.19801">
        <ele>49.562157</ele>
        <time>2022-12-19T13:20:26.331Z</time>
      </trkpt>
      <trkpt lat="46.39284" lon="-1.19795">
        <ele>49.693276</ele>
        <time>2022-12-19T13:20:29.332Z</time>
      </trkpt>
      <trkpt lat="46.39293" lon="-1.19789">
        <ele>49.803468</ele>
        <time>2022-12-19T13:20:31.347Z</time>
      </trkpt>
      <trkpt lat="46.39305" lon="-1.1978">
        <ele>49.961882</ele>
        <time>2022-12-19T13:20:34.348Z</time>
      </trkpt>
      <trkpt lat="46.39314" lon="-1.19776">
        <ele>50.077912</ele>
        <time>2022-12-19T13:20:36.350Z</time>
      </trkpt>
      <trkpt lat="46.39325" lon="-1.19766">
        <ele>50.222039</ele>
        <time>2022-12-19T13:20:39.349Z</time>
      </trkpt>
      <trkpt lat="46.39334" lon="-1.19758">
        <ele>50.271342</ele>
        <time>2022-12-19T13:20:42.347Z</time>
      </trkpt>
      <trkpt lat="46.39343" lon="-1.19752">
        <ele>50.312791</ele>
        <time>2022-12-19T13:20:45.348Z</time>
      </trkpt>
      <trkpt lat="46.39351" lon="-1.19745">
        <ele>50.353826</ele>
        <time>2022-12-19T13:20:48.347Z</time>
      </trkpt>
      <trkpt lat="46.3936" lon="-1.19738">
        <ele>50.402977</ele>
        <time>2022-12-19T13:20:52.347Z</time>
      </trkpt>
      <trkpt lat="46.39368" lon="-1.19731">
        <ele>50.444539</ele>
        <time>2022-12-19T13:20:55.349Z</time>
      </trkpt>
      <trkpt lat="46.39378" lon="-1.19724">
        <ele>50.492221</ele>
        <time>2022-12-19T13:20:59.347Z</time>
      </trkpt>
      <trkpt lat="46.39386" lon="-1.19718">
        <ele>50.533108</ele>
        <time>2022-12-19T13:21:02.346Z</time>
      </trkpt>
      <trkpt lat="46.39396" lon="-1.19714">
        <ele>50.578839</ele>
        <time>2022-12-19T13:21:05.350Z</time>
      </trkpt>
      <trkpt lat="46.39406" lon="-1.19705">
        <ele>50.631951</ele>
        <time>2022-12-19T13:21:08.353Z</time>
      </trkpt>
      <trkpt lat="46.39411" lon="-1.19693">
        <ele>50.6726</ele>
        <time>2022-12-19T13:21:10.330Z</time>
      </trkpt>
      <trkpt lat="46.3941" lon="-1.19675">
        <ele>50.728729</ele>
        <time>2022-12-19T13:21:13.350Z</time>
      </trkpt>
      <trkpt lat="46.39408" lon="-1.19657">
        <ele>50.78391</ele>
        <time>2022-12-19T13:21:16.349Z</time>
      </trkpt>
      <trkpt lat="46.39405" lon="-1.1964">
        <ele>50.83855</ele>
        <time>2022-12-19T13:21:19.348Z</time>
      </trkpt>
      <trkpt lat="46.39402" lon="-1.1962">
        <ele>50.90133</ele>
        <time>2022-12-19T13:21:22.335Z</time>
      </trkpt>
      <trkpt lat="46.39399" lon="-1.19607">
        <ele>50.943448</ele>
        <time>2022-12-19T13:21:24.353Z</time>
      </trkpt>
      <trkpt lat="46.39396" lon="-1.19594">
        <ele>50.984552</ele>
        <time>2022-12-19T13:21:26.352Z</time>
      </trkpt>
      <trkpt lat="46.39394" lon="-1.19576">
        <ele>50.957211</ele>
        <time>2022-12-19T13:21:29.339Z</time>
      </trkpt>
      <trkpt lat="46.39391" lon="-1.19563">
        <ele>50.807553</ele>
        <time>2022-12-19T13:21:31.346Z</time>
      </trkpt>
      <trkpt lat="46.39389" lon="-1.19544">
        <ele>50.593542</ele>
        <time>2022-12-19T13:21:34.347Z</time>
      </trkpt>
      <trkpt lat="46.39387" lon="-1.19528">
        <ele>50.40852</ele>
        <time>2022-12-19T13:21:37.353Z</time>
      </trkpt>
      <trkpt lat="46.39384" lon="-1.19513">
        <ele>50.23186</ele>
        <time>2022-12-19T13:21:40.334Z</time>
      </trkpt>
      <trkpt lat="46.39383" lon="-1.19498">
        <ele>50.067461</ele>
        <time>2022-12-19T13:21:43.346Z</time>
      </trkpt>
      <trkpt lat="46.39379" lon="-1.19485">
        <ele>49.911339</ele>
        <time>2022-12-19T13:21:46.350Z</time>
      </trkpt>
      <trkpt lat="46.39377" lon="-1.19469">
        <ele>49.737183</ele>
        <time>2022-12-19T13:21:49.347Z</time>
      </trkpt>
      <trkpt lat="46.39372" lon="-1.19453">
        <ele>49.539686</ele>
        <time>2022-12-19T13:21:52.333Z</time>
      </trkpt>
      <trkpt lat="46.39368" lon="-1.19436">
        <ele>49.342009</ele>
        <time>2022-12-19T13:21:55.348Z</time>
      </trkpt>
      <trkpt lat="46.39363" lon="-1.19421">
        <ele>49.157434</ele>
        <time>2022-12-19T13:21:58.329Z</time>
      </trkpt>
      <trkpt lat="46.39357" lon="-1.19406">
        <ele>48.956398</ele>
        <time>2022-12-19T13:22:01.346Z</time>
      </trkpt>
      <trkpt lat="46.3935" lon="-1.1939">
        <ele>48.754403</ele>
        <time>2022-12-19T13:22:04.347Z</time>
      </trkpt>
      <trkpt lat="46.39344" lon="-1.19374">
        <ele>48.541471</ele>
        <time>2022-12-19T13:22:07.359Z</time>
      </trkpt>
      <trkpt lat="46.39337" lon="-1.19357">
        <ele>48.32758</ele>
        <time>2022-12-19T13:22:10.346Z</time>
      </trkpt>
      <trkpt lat="46.3933" lon="-1.19341">
        <ele>48.115372</ele>
        <time>2022-12-19T13:22:13.348Z</time>
      </trkpt>
      <trkpt lat="46.39322" lon="-1.19326">
        <ele>47.8086</ele>
        <time>2022-12-19T13:22:16.346Z</time>
      </trkpt>
      <trkpt lat="46.39314" lon="-1.19311">
        <ele>47.496393</ele>
        <time>2022-12-19T13:22:19.349Z</time>
      </trkpt>
      <trkpt lat="46.39306" lon="-1.19296">
        <ele>47.187011</ele>
        <time>2022-12-19T13:22:22.349Z</time>
      </trkpt>
      <trkpt lat="46.39298" lon="-1.1928">
        <ele>46.874661</ele>
        <time>2022-12-19T13:22:25.347Z</time>
      </trkpt>
      <trkpt lat="46.39292" lon="-1.1927">
        <ele>46.654182</ele>
        <time>2022-12-19T13:22:27.351Z</time>
      </trkpt>
      <trkpt lat="46.39283" lon="-1.19255">
        <ele>46.338888</ele>
        <time>2022-12-19T13:22:30.338Z</time>
      </trkpt>
      <trkpt lat="46.39274" lon="-1.19241">
        <ele>46.016474</ele>
        <time>2022-12-19T13:22:33.351Z</time>
      </trkpt>
      <trkpt lat="46.39268" lon="-1.1923">
        <ele>45.800251</ele>
        <time>2022-12-19T13:22:35.349Z</time>
      </trkpt>
      <trkpt lat="46.3926" lon="-1.19215">
        <ele>45.484313</ele>
        <time>2022-12-19T13:22:38.348Z</time>
      </trkpt>
      <trkpt lat="46.39254" lon="-1.19205">
        <ele>45.266007</ele>
        <time>2022-12-19T13:22:40.349Z</time>
      </trkpt>
      <trkpt lat="46.39245" lon="-1.1919">
        <ele>44.951813</ele>
        <time>2022-12-19T13:22:43.340Z</time>
      </trkpt>
      <trkpt lat="46.39237" lon="-1.19176">
        <ele>44.640517</ele>
        <time>2022-12-19T13:22:46.354Z</time>
      </trkpt>
      <trkpt lat="46.39229" lon="-1.19163">
        <ele>44.370766</ele>
        <time>2022-12-19T13:22:49.345Z</time>
      </trkpt>
      <trkpt lat="46.39221" lon="-1.19151">
        <ele>44.101852</ele>
        <time>2022-12-19T13:22:52.348Z</time>
      </trkpt>
      <trkpt lat="46.39213" lon="-1.1914">
        <ele>43.88799</ele>
        <time>2022-12-19T13:22:55.348Z</time>
      </trkpt>
      <trkpt lat="46.39203" lon="-1.19128">
        <ele>43.915166</ele>
        <time>2022-12-19T13:22:58.350Z</time>
      </trkpt>
      <trkpt lat="46.39196" lon="-1.1912">
        <ele>43.934157</ele>
        <time>2022-12-19T13:23:00.351Z</time>
      </trkpt>
      <trkpt lat="46.39185" lon="-1.19109">
        <ele>43.962585</ele>
        <time>2022-12-19T13:23:03.352Z</time>
      </trkpt>
      <trkpt lat="46.39177" lon="-1.19102">
        <ele>43.981857</ele>
        <time>2022-12-19T13:23:05.346Z</time>
      </trkpt>
      <trkpt lat="46.39169" lon="-1.19096">
        <ele>44.0014</ele>
        <time>2022-12-19T13:23:07.350Z</time>
      </trkpt>
      <trkpt lat="46.39161" lon="-1.19089">
        <ele>44.021544</ele>
        <time>2022-12-19T13:23:09.348Z</time>
      </trkpt>
      <trkpt lat="46.39152" lon="-1.19083">
        <ele>44.041527</ele>
        <time>2022-12-19T13:23:11.358Z</time>
      </trkpt>
      <trkpt lat="46.39144" lon="-1.19077">
        <ele>44.061649</ele>
        <time>2022-12-19T13:23:13.350Z</time>
      </trkpt>
      <trkpt lat="46.39136" lon="-1.19071">
        <ele>44.080748</ele>
        <time>2022-12-19T13:23:15.339Z</time>
      </trkpt>
      <trkpt lat="46.39124" lon="-1.19061">
        <ele>44.108742</ele>
        <time>2022-12-19T13:23:18.359Z</time>
      </trkpt>
      <trkpt lat="46.39114" lon="-1.19051">
        <ele>44.13407</ele>
        <time>2022-12-19T13:23:21.357Z</time>
      </trkpt>
      <trkpt lat="46.39105" lon="-1.19042">
        <ele>44.158634</ele>
        <time>2022-12-19T13:23:24.349Z</time>
      </trkpt>
      <trkpt lat="46.39095" lon="-1.19032">
        <ele>44.184228</ele>
        <time>2022-12-19T13:23:27.352Z</time>
      </trkpt>
      <trkpt lat="46.39085" lon="-1.19022">
        <ele>44.209985</ele>
        <time>2022-12-19T13:23:30.346Z</time>
      </trkpt>
      <trkpt lat="46.39076" lon="-1.19011">
        <ele>44.235228</ele>
        <time>2022-12-19T13:23:33.348Z</time>
      </trkpt>
      <trkpt lat="46.39065" lon="-1.19001">
        <ele>44.261595</ele>
        <time>2022-12-19T13:23:36.359Z</time>
      </trkpt>
      <trkpt lat="46.39056" lon="-1.1899">
        <ele>44.298763</ele>
        <time>2022-12-19T13:23:39.349Z</time>
      </trkpt>
      <trkpt lat="46.39049" lon="-1.18981">
        <ele>44.331782</ele>
        <time>2022-12-19T13:23:42.332Z</time>
      </trkpt>
      <trkpt lat="46.39041" lon="-1.18971">
        <ele>44.365439</ele>
        <time>2022-12-19T13:23:45.346Z</time>
      </trkpt>
      <trkpt lat="46.39034" lon="-1.18959">
        <ele>44.401274</ele>
        <time>2022-12-19T13:23:48.346Z</time>
      </trkpt>
      <trkpt lat="46.39026" lon="-1.18946">
        <ele>44.44031</ele>
        <time>2022-12-19T13:23:51.334Z</time>
      </trkpt>
      <trkpt lat="46.39018" lon="-1.18931">
        <ele>44.481612</ele>
        <time>2022-12-19T13:23:54.353Z</time>
      </trkpt>
      <trkpt lat="46.39011" lon="-1.18915">
        <ele>44.525463</ele>
        <time>2022-12-19T13:23:57.347Z</time>
      </trkpt>
      <trkpt lat="46.39006" lon="-1.18904">
        <ele>44.555036</ele>
        <time>2022-12-19T13:23:59.356Z</time>
      </trkpt>
      <trkpt lat="46.39001" lon="-1.18893">
        <ele>44.584746</ele>
        <time>2022-12-19T13:24:01.346Z</time>
      </trkpt>
      <trkpt lat="46.38994" lon="-1.18878">
        <ele>44.624859</ele>
        <time>2022-12-19T13:24:04.349Z</time>
      </trkpt>
      <trkpt lat="46.38988" lon="-1.18864">
        <ele>44.662279</ele>
        <time>2022-12-19T13:24:07.348Z</time>
      </trkpt>
      <trkpt lat="46.38982" lon="-1.18849">
        <ele>44.700745</ele>
        <time>2022-12-19T13:24:10.347Z</time>
      </trkpt>
      <trkpt lat="46.38976" lon="-1.18834">
        <ele>44.740915</ele>
        <time>2022-12-19T13:24:13.357Z</time>
      </trkpt>
      <trkpt lat="46.38969" lon="-1.18818">
        <ele>44.782718</ele>
        <time>2022-12-19T13:24:16.359Z</time>
      </trkpt>
      <trkpt lat="46.38962" lon="-1.18802">
        <ele>44.825667</ele>
        <time>2022-12-19T13:24:19.478Z</time>
      </trkpt>
      <trkpt lat="46.38955" lon="-1.18786">
        <ele>44.896762</ele>
        <time>2022-12-19T13:24:22.349Z</time>
      </trkpt>
      <trkpt lat="46.38948" lon="-1.1877">
        <ele>45.019384</ele>
        <time>2022-12-19T13:24:25.416Z</time>
      </trkpt>
      <trkpt lat="46.38941" lon="-1.18754">
        <ele>45.140401</ele>
        <time>2022-12-19T13:24:28.359Z</time>
      </trkpt>
      <trkpt lat="46.38933" lon="-1.18738">
        <ele>45.260855</ele>
        <time>2022-12-19T13:24:31.483Z</time>
      </trkpt>
      <trkpt lat="46.38928" lon="-1.18727">
        <ele>45.346375</ele>
        <time>2022-12-19T13:24:33.363Z</time>
      </trkpt>
      <trkpt lat="46.38921" lon="-1.18711">
        <ele>45.466952</ele>
        <time>2022-12-19T13:24:36.351Z</time>
      </trkpt>
      <trkpt lat="46.38915" lon="-1.18695">
        <ele>45.578712</ele>
        <time>2022-12-19T13:24:39.351Z</time>
      </trkpt>
      <trkpt lat="46.38909" lon="-1.18682">
        <ele>45.679886</ele>
        <time>2022-12-19T13:24:42.400Z</time>
      </trkpt>
      <trkpt lat="46.38903" lon="-1.18669">
        <ele>45.780503</ele>
        <time>2022-12-19T13:24:45.351Z</time>
      </trkpt>
      <trkpt lat="46.38897" lon="-1.18654">
        <ele>45.889767</ele>
        <time>2022-12-19T13:24:48.423Z</time>
      </trkpt>
      <trkpt lat="46.3889" lon="-1.18638">
        <ele>46.007224</ele>
        <time>2022-12-19T13:24:51.356Z</time>
      </trkpt>
      <trkpt lat="46.38883" lon="-1.18622">
        <ele>46.131051</ele>
        <time>2022-12-19T13:24:54.399Z</time>
      </trkpt>
      <trkpt lat="46.38878" lon="-1.1861">
        <ele>46.216072</ele>
        <time>2022-12-19T13:24:56.359Z</time>
      </trkpt>
      <trkpt lat="46.38872" lon="-1.18593">
        <ele>46.341721</ele>
        <time>2022-12-19T13:24:59.350Z</time>
      </trkpt>
      <trkpt lat="46.38867" lon="-1.18581">
        <ele>46.430456</ele>
        <time>2022-12-19T13:25:01.363Z</time>
      </trkpt>
      <trkpt lat="46.38862" lon="-1.18569">
        <ele>46.508654</ele>
        <time>2022-12-19T13:25:03.352Z</time>
      </trkpt>
      <trkpt lat="46.38858" lon="-1.18557">
        <ele>46.54459</ele>
        <time>2022-12-19T13:25:05.359Z</time>
      </trkpt>
      <trkpt lat="46.38854" lon="-1.18544">
        <ele>46.579722</ele>
        <time>2022-12-19T13:25:07.349Z</time>
      </trkpt>
      <trkpt lat="46.38849" lon="-1.18532">
        <ele>46.616696</ele>
        <time>2022-12-19T13:25:09.359Z</time>
      </trkpt>
      <trkpt lat="46.38844" lon="-1.18519">
        <ele>46.653643</ele>
        <time>2022-12-19T13:25:11.360Z</time>
      </trkpt>
      <trkpt lat="46.3884" lon="-1.18507">
        <ele>46.690255</ele>
        <time>2022-12-19T13:25:13.352Z</time>
      </trkpt>
      <trkpt lat="46.38835" lon="-1.18494">
        <ele>46.725659</ele>
        <time>2022-12-19T13:25:15.354Z</time>
      </trkpt>
      <trkpt lat="46.3883" lon="-1.18482">
        <ele>46.763127</ele>
        <time>2022-12-19T13:25:17.351Z</time>
      </trkpt>
      <trkpt lat="46.38826" lon="-1.18469">
        <ele>46.798422</ele>
        <time>2022-12-19T13:25:19.357Z</time>
      </trkpt>
      <trkpt lat="46.3882" lon="-1.18453">
        <ele>46.845534</ele>
        <time>2022-12-19T13:25:22.363Z</time>
      </trkpt>
      <trkpt lat="46.38814" lon="-1.18437">
        <ele>46.892874</ele>
        <time>2022-12-19T13:25:25.352Z</time>
      </trkpt>
      <trkpt lat="46.38808" lon="-1.1842">
        <ele>46.942503</ele>
        <time>2022-12-19T13:25:28.349Z</time>
      </trkpt>
      <trkpt lat="46.38803" lon="-1.18408">
        <ele>46.978034</ele>
        <time>2022-12-19T13:25:30.348Z</time>
      </trkpt>
      <trkpt lat="46.38799" lon="-1.18395">
        <ele>47.014254</ele>
        <time>2022-12-19T13:25:32.354Z</time>
      </trkpt>
      <trkpt lat="46.38795" lon="-1.18382">
        <ele>47.050866</ele>
        <time>2022-12-19T13:25:34.354Z</time>
      </trkpt>
      <trkpt lat="46.3879" lon="-1.1837">
        <ele>47.087395</ele>
        <time>2022-12-19T13:25:36.351Z</time>
      </trkpt>
      <trkpt lat="46.38785" lon="-1.18358">
        <ele>47.123547</ele>
        <time>2022-12-19T13:25:38.349Z</time>
      </trkpt>
      <trkpt lat="46.38781" lon="-1.18346">
        <ele>47.157868</ele>
        <time>2022-12-19T13:25:40.351Z</time>
      </trkpt>
      <trkpt lat="46.38776" lon="-1.18333">
        <ele>47.21201</ele>
        <time>2022-12-19T13:25:42.350Z</time>
      </trkpt>
      <trkpt lat="46.38772" lon="-1.1832">
        <ele>47.278029</ele>
        <time>2022-12-19T13:25:44.353Z</time>
      </trkpt>
      <trkpt lat="46.38767" lon="-1.18308">
        <ele>47.342606</ele>
        <time>2022-12-19T13:25:46.345Z</time>
      </trkpt>
      <trkpt lat="46.38763" lon="-1.18295">
        <ele>47.410055</ele>
        <time>2022-12-19T13:25:48.350Z</time>
      </trkpt>
      <trkpt lat="46.38759" lon="-1.18283">
        <ele>47.470538</ele>
        <time>2022-12-19T13:25:50.352Z</time>
      </trkpt>
      <trkpt lat="46.38753" lon="-1.18267">
        <ele>47.554156</ele>
        <time>2022-12-19T13:25:53.343Z</time>
      </trkpt>
      <trkpt lat="46.38747" lon="-1.18251">
        <ele>47.638084</ele>
        <time>2022-12-19T13:25:56.364Z</time>
      </trkpt>
      <trkpt lat="46.38741" lon="-1.18233">
        <ele>47.727566</ele>
        <time>2022-12-19T13:25:59.362Z</time>
      </trkpt>
      <trkpt lat="46.38738" lon="-1.1822">
        <ele>47.791956</ele>
        <time>2022-12-19T13:26:01.351Z</time>
      </trkpt>
      <trkpt lat="46.38734" lon="-1.18203">
        <ele>47.873795</ele>
        <time>2022-12-19T13:26:04.358Z</time>
      </trkpt>
      <trkpt lat="46.3873" lon="-1.18185">
        <ele>47.961161</ele>
        <time>2022-12-19T13:26:07.361Z</time>
      </trkpt>
      <trkpt lat="46.38727" lon="-1.18168">
        <ele>48.045666</ele>
        <time>2022-12-19T13:26:10.344Z</time>
      </trkpt>
      <trkpt lat="46.38724" lon="-1.1815">
        <ele>48.129215</ele>
        <time>2022-12-19T13:26:13.345Z</time>
      </trkpt>
      <trkpt lat="46.38721" lon="-1.18133">
        <ele>48.206924</ele>
        <time>2022-12-19T13:26:16.350Z</time>
      </trkpt>
      <trkpt lat="46.38719" lon="-1.18117">
        <ele>48.287188</ele>
        <time>2022-12-19T13:26:19.358Z</time>
      </trkpt>
      <trkpt lat="46.38715" lon="-1.18099">
        <ele>48.36974</ele>
        <time>2022-12-19T13:26:22.355Z</time>
      </trkpt>
      <trkpt lat="46.38712" lon="-1.18081">
        <ele>48.404686</ele>
        <time>2022-12-19T13:26:25.373Z</time>
      </trkpt>
      <trkpt lat="46.38708" lon="-1.18062">
        <ele>48.437116</ele>
        <time>2022-12-19T13:26:28.350Z</time>
      </trkpt>
      <trkpt lat="46.38705" lon="-1.18043">
        <ele>48.46917</ele>
        <time>2022-12-19T13:26:31.349Z</time>
      </trkpt>
      <trkpt lat="46.38703" lon="-1.1803">
        <ele>48.491586</ele>
        <time>2022-12-19T13:26:33.361Z</time>
      </trkpt>
      <trkpt lat="46.387" lon="-1.18011">
        <ele>48.523857</ele>
        <time>2022-12-19T13:26:36.351Z</time>
      </trkpt>
      <trkpt lat="46.38698" lon="-1.17998">
        <ele>48.545704</ele>
        <time>2022-12-19T13:26:38.361Z</time>
      </trkpt>
      <trkpt lat="46.38696" lon="-1.17985">
        <ele>48.567267</ele>
        <time>2022-12-19T13:26:40.352Z</time>
      </trkpt>
      <trkpt lat="46.38693" lon="-1.17971">
        <ele>48.589924</ele>
        <time>2022-12-19T13:26:42.351Z</time>
      </trkpt>
      <trkpt lat="46.38692" lon="-1.17958">
        <ele>48.612415</ele>
        <time>2022-12-19T13:26:44.367Z</time>
      </trkpt>
      <trkpt lat="46.3869" lon="-1.17945">
        <ele>48.634355</ele>
        <time>2022-12-19T13:26:46.365Z</time>
      </trkpt>
      <trkpt lat="46.38688" lon="-1.17931">
        <ele>48.656876</ele>
        <time>2022-12-19T13:26:48.351Z</time>
      </trkpt>
      <trkpt lat="46.38685" lon="-1.17918">
        <ele>48.679284</ele>
        <time>2022-12-19T13:26:50.362Z</time>
      </trkpt>
      <trkpt lat="46.38683" lon="-1.17905">
        <ele>48.701114</ele>
        <time>2022-12-19T13:26:52.361Z</time>
      </trkpt>
      <trkpt lat="46.38681" lon="-1.17892">
        <ele>48.723745</ele>
        <time>2022-12-19T13:26:54.345Z</time>
      </trkpt>
      <trkpt lat="46.38678" lon="-1.17873">
        <ele>48.755564</ele>
        <time>2022-12-19T13:26:57.361Z</time>
      </trkpt>
      <trkpt lat="46.38676" lon="-1.17859">
        <ele>48.778307</ele>
        <time>2022-12-19T13:26:59.414Z</time>
      </trkpt>
      <trkpt lat="46.38673" lon="-1.17841">
        <ele>48.807955</ele>
        <time>2022-12-19T13:27:02.363Z</time>
      </trkpt>
      <trkpt lat="46.38671" lon="-1.17828">
        <ele>48.826251</ele>
        <time>2022-12-19T13:27:04.355Z</time>
      </trkpt>
      <trkpt lat="46.3867" lon="-1.17815">
        <ele>48.844447</ele>
        <time>2022-12-19T13:27:06.338Z</time>
      </trkpt>
      <trkpt lat="46.38668" lon="-1.17801">
        <ele>48.862847</ele>
        <time>2022-12-19T13:27:08.363Z</time>
      </trkpt>
      <trkpt lat="46.38667" lon="-1.17782">
        <ele>48.888833</ele>
        <time>2022-12-19T13:27:11.397Z</time>
      </trkpt>
      <trkpt lat="46.38666" lon="-1.17768">
        <ele>48.908212</ele>
        <time>2022-12-19T13:27:13.359Z</time>
      </trkpt>
      <trkpt lat="46.38664" lon="-1.17755">
        <ele>48.926584</ele>
        <time>2022-12-19T13:27:15.349Z</time>
      </trkpt>
      <trkpt lat="46.38663" lon="-1.17737">
        <ele>48.951358</ele>
        <time>2022-12-19T13:27:18.356Z</time>
      </trkpt>
      <trkpt lat="46.38661" lon="-1.1772">
        <ele>48.974471</ele>
        <time>2022-12-19T13:27:21.351Z</time>
      </trkpt>
      <trkpt lat="46.38659" lon="-1.17704">
        <ele>48.996124</ele>
        <time>2022-12-19T13:27:24.362Z</time>
      </trkpt>
      <trkpt lat="46.38658" lon="-1.17688">
        <ele>49.018559</ele>
        <time>2022-12-19T13:27:27.363Z</time>
      </trkpt>
      <trkpt lat="46.38656" lon="-1.1767">
        <ele>49.042745</ele>
        <time>2022-12-19T13:27:30.335Z</time>
      </trkpt>
      <trkpt lat="46.38655" lon="-1.17651">
        <ele>49.068417</ele>
        <time>2022-12-19T13:27:33.351Z</time>
      </trkpt>
      <trkpt lat="46.38653" lon="-1.17632">
        <ele>49.095055</ele>
        <time>2022-12-19T13:27:36.358Z</time>
      </trkpt>
      <trkpt lat="46.38652" lon="-1.17618">
        <ele>49.113511</ele>
        <time>2022-12-19T13:27:38.359Z</time>
      </trkpt>
      <trkpt lat="46.3865" lon="-1.17605">
        <ele>49.131539</ele>
        <time>2022-12-19T13:27:40.359Z</time>
      </trkpt>
      <trkpt lat="46.38649" lon="-1.17592">
        <ele>49.149615</ele>
        <time>2022-12-19T13:27:42.350Z</time>
      </trkpt>
      <trkpt lat="46.38648" lon="-1.17578">
        <ele>49.179271</ele>
        <time>2022-12-19T13:27:44.360Z</time>
      </trkpt>
      <trkpt lat="46.38646" lon="-1.17561">
        <ele>49.228118</ele>
        <time>2022-12-19T13:27:47.398Z</time>
      </trkpt>
      <trkpt lat="46.38645" lon="-1.17544">
        <ele>49.274941</ele>
        <time>2022-12-19T13:27:50.349Z</time>
      </trkpt>
      <trkpt lat="46.38644" lon="-1.17527">
        <ele>49.323825</ele>
        <time>2022-12-19T13:27:53.414Z</time>
      </trkpt>
      <trkpt lat="46.38642" lon="-1.17508">
        <ele>49.374674</ele>
        <time>2022-12-19T13:27:56.359Z</time>
      </trkpt>
      <trkpt lat="46.38641" lon="-1.17495">
        <ele>49.411201</ele>
        <time>2022-12-19T13:27:58.358Z</time>
      </trkpt>
      <trkpt lat="46.3864" lon="-1.17481">
        <ele>49.449972</ele>
        <time>2022-12-19T13:28:00.351Z</time>
      </trkpt>
      <trkpt lat="46.38639" lon="-1.17468">
        <ele>49.487116</ele>
        <time>2022-12-19T13:28:02.350Z</time>
      </trkpt>
      <trkpt lat="46.38638" lon="-1.17455">
        <ele>49.524141</ele>
        <time>2022-12-19T13:28:04.360Z</time>
      </trkpt>
      <trkpt lat="46.38636" lon="-1.17436">
        <ele>49.577531</ele>
        <time>2022-12-19T13:28:07.351Z</time>
      </trkpt>
      <trkpt lat="46.38634" lon="-1.17416">
        <ele>49.630814</ele>
        <time>2022-12-19T13:28:10.370Z</time>
      </trkpt>
      <trkpt lat="46.38632" lon="-1.17398">
        <ele>49.682948</ele>
        <time>2022-12-19T13:28:13.353Z</time>
      </trkpt>
      <trkpt lat="46.38631" lon="-1.17379">
        <ele>49.733886</ele>
        <time>2022-12-19T13:28:16.332Z</time>
      </trkpt>
      <trkpt lat="46.3863" lon="-1.1736">
        <ele>49.786555</ele>
        <time>2022-12-19T13:28:19.354Z</time>
      </trkpt>
      <trkpt lat="46.38628" lon="-1.17347">
        <ele>49.823082</ele>
        <time>2022-12-19T13:28:21.422Z</time>
      </trkpt>
      <trkpt lat="46.38626" lon="-1.17328">
        <ele>49.87736</ele>
        <time>2022-12-19T13:28:24.347Z</time>
      </trkpt>
      <trkpt lat="46.38625" lon="-1.17315">
        <ele>49.777333</ele>
        <time>2022-12-19T13:28:26.353Z</time>
      </trkpt>
      <trkpt lat="46.38624" lon="-1.17302">
        <ele>49.673313</ele>
        <time>2022-12-19T13:28:28.355Z</time>
      </trkpt>
      <trkpt lat="46.38622" lon="-1.17283">
        <ele>49.525736</ele>
        <time>2022-12-19T13:28:31.361Z</time>
      </trkpt>
      <trkpt lat="46.38621" lon="-1.17266">
        <ele>49.389539</ele>
        <time>2022-12-19T13:28:34.339Z</time>
      </trkpt>
      <trkpt lat="46.38619" lon="-1.17249">
        <ele>49.25634</ele>
        <time>2022-12-19T13:28:37.351Z</time>
      </trkpt>
      <trkpt lat="46.38618" lon="-1.17231">
        <ele>49.111143</ele>
        <time>2022-12-19T13:28:40.358Z</time>
      </trkpt>
      <trkpt lat="46.38616" lon="-1.17212">
        <ele>48.962523</ele>
        <time>2022-12-19T13:28:43.323Z</time>
      </trkpt>
      <trkpt lat="46.38614" lon="-1.17194">
        <ele>48.817801</ele>
        <time>2022-12-19T13:28:46.360Z</time>
      </trkpt>
      <trkpt lat="46.38613" lon="-1.17176">
        <ele>48.675745</ele>
        <time>2022-12-19T13:28:49.362Z</time>
      </trkpt>
      <trkpt lat="46.38612" lon="-1.17159">
        <ele>48.53881</ele>
        <time>2022-12-19T13:28:52.357Z</time>
      </trkpt>
      <trkpt lat="46.3861" lon="-1.17142">
        <ele>48.407306</ele>
        <time>2022-12-19T13:28:55.359Z</time>
      </trkpt>
      <trkpt lat="46.38609" lon="-1.17126">
        <ele>48.278931</ele>
        <time>2022-12-19T13:28:58.349Z</time>
      </trkpt>
      <trkpt lat="46.38608" lon="-1.17109">
        <ele>48.14573</ele>
        <time>2022-12-19T13:29:01.352Z</time>
      </trkpt>
      <trkpt lat="46.38609" lon="-1.17093">
        <ele>48.020493</ele>
        <time>2022-12-19T13:29:04.361Z</time>
      </trkpt>
      <trkpt lat="46.3861" lon="-1.17079">
        <ele>47.909132</ele>
        <time>2022-12-19T13:29:07.361Z</time>
      </trkpt>
      <trkpt lat="46.38611" lon="-1.17063">
        <ele>47.840727</ele>
        <time>2022-12-19T13:29:11.369Z</time>
      </trkpt>
      <trkpt lat="46.38613" lon="-1.17049">
        <ele>47.87754</ele>
        <time>2022-12-19T13:29:14.411Z</time>
      </trkpt>
      <trkpt lat="46.38616" lon="-1.17034">
        <ele>47.918462</ele>
        <time>2022-12-19T13:29:17.354Z</time>
      </trkpt>
      <trkpt lat="46.3862" lon="-1.17018">
        <ele>47.961778</ele>
        <time>2022-12-19T13:29:20.398Z</time>
      </trkpt>
      <trkpt lat="46.38623" lon="-1.17002">
        <ele>48.006312</ele>
        <time>2022-12-19T13:29:23.363Z</time>
      </trkpt>
      <trkpt lat="46.38627" lon="-1.16986">
        <ele>48.051967</ele>
        <time>2022-12-19T13:29:26.411Z</time>
      </trkpt>
      <trkpt lat="46.38631" lon="-1.16969">
        <ele>48.098619</ele>
        <time>2022-12-19T13:29:29.359Z</time>
      </trkpt>
      <trkpt lat="46.38634" lon="-1.16951">
        <ele>48.146654</ele>
        <time>2022-12-19T13:29:32.422Z</time>
      </trkpt>
      <trkpt lat="46.38637" lon="-1.16933">
        <ele>48.196322</ele>
        <time>2022-12-19T13:29:35.339Z</time>
      </trkpt>
      <trkpt lat="46.38638" lon="-1.16914">
        <ele>48.245734</ele>
        <time>2022-12-19T13:29:38.359Z</time>
      </trkpt>
      <trkpt lat="46.38637" lon="-1.16896">
        <ele>48.292473</ele>
        <time>2022-12-19T13:29:41.363Z</time>
      </trkpt>
      <trkpt lat="46.38635" lon="-1.16881">
        <ele>48.332713</ele>
        <time>2022-12-19T13:29:44.353Z</time>
      </trkpt>
      <trkpt lat="46.38633" lon="-1.16867">
        <ele>48.369452</ele>
        <time>2022-12-19T13:29:47.350Z</time>
      </trkpt>
      <trkpt lat="46.38631" lon="-1.16853">
        <ele>48.407541</ele>
        <time>2022-12-19T13:29:50.353Z</time>
      </trkpt>
      <trkpt lat="46.38628" lon="-1.16838">
        <ele>48.448522</ele>
        <time>2022-12-19T13:29:53.417Z</time>
      </trkpt>
      <trkpt lat="46.38625" lon="-1.16822">
        <ele>48.491009</ele>
        <time>2022-12-19T13:29:56.357Z</time>
      </trkpt>
      <trkpt lat="46.38621" lon="-1.16805">
        <ele>48.370346</ele>
        <time>2022-12-19T13:29:59.394Z</time>
      </trkpt>
      <trkpt lat="46.38618" lon="-1.16787">
        <ele>48.158801</ele>
        <time>2022-12-19T13:30:02.361Z</time>
      </trkpt>
      <trkpt lat="46.38614" lon="-1.1677">
        <ele>47.942478</ele>
        <time>2022-12-19T13:30:05.362Z</time>
      </trkpt>
      <trkpt lat="46.38611" lon="-1.16751">
        <ele>47.717756</ele>
        <time>2022-12-19T13:30:08.351Z</time>
      </trkpt>
      <trkpt lat="46.38608" lon="-1.16733">
        <ele>47.499063</ele>
        <time>2022-12-19T13:30:11.354Z</time>
      </trkpt>
      <trkpt lat="46.38605" lon="-1.16715">
        <ele>47.285798</ele>
        <time>2022-12-19T13:30:14.349Z</time>
      </trkpt>
      <trkpt lat="46.38603" lon="-1.16698">
        <ele>47.085467</ele>
        <time>2022-12-19T13:30:17.363Z</time>
      </trkpt>
      <trkpt lat="46.386" lon="-1.16681">
        <ele>46.873663</ele>
        <time>2022-12-19T13:30:20.360Z</time>
      </trkpt>
      <trkpt lat="46.38597" lon="-1.16668">
        <ele>46.719298</ele>
        <time>2022-12-19T13:30:22.413Z</time>
      </trkpt>
      <trkpt lat="46.38595" lon="-1.16655">
        <ele>46.562383</ele>
        <time>2022-12-19T13:30:24.346Z</time>
      </trkpt>
      <trkpt lat="46.38592" lon="-1.16636">
        <ele>46.328173</ele>
        <time>2022-12-19T13:30:27.339Z</time>
      </trkpt>
      <trkpt lat="46.3859" lon="-1.16622">
        <ele>46.164744</ele>
        <time>2022-12-19T13:30:29.345Z</time>
      </trkpt>
      <trkpt lat="46.38586" lon="-1.1661">
        <ele>46.010267</ele>
        <time>2022-12-19T13:30:31.352Z</time>
      </trkpt>
      <trkpt lat="46.38584" lon="-1.16596">
        <ele>45.845371</ele>
        <time>2022-12-19T13:30:33.349Z</time>
      </trkpt>
      <trkpt lat="46.38582" lon="-1.16582">
        <ele>45.673616</ele>
        <time>2022-12-19T13:30:35.351Z</time>
      </trkpt>
      <trkpt lat="46.38579" lon="-1.16569">
        <ele>45.510887</ele>
        <time>2022-12-19T13:30:37.352Z</time>
      </trkpt>
      <trkpt lat="46.38576" lon="-1.16555">
        <ele>45.386255</ele>
        <time>2022-12-19T13:30:39.407Z</time>
      </trkpt>
      <trkpt lat="46.38574" lon="-1.16541">
        <ele>45.287702</ele>
        <time>2022-12-19T13:30:41.358Z</time>
      </trkpt>
      <trkpt lat="46.38571" lon="-1.16528">
        <ele>45.191166</ele>
        <time>2022-12-19T13:30:43.354Z</time>
      </trkpt>
      <trkpt lat="46.38569" lon="-1.16514">
        <ele>45.092592</ele>
        <time>2022-12-19T13:30:45.340Z</time>
      </trkpt>
      <trkpt lat="46.38567" lon="-1.165">
        <ele>44.988782</ele>
        <time>2022-12-19T13:30:47.362Z</time>
      </trkpt>
      <trkpt lat="46.38564" lon="-1.16485">
        <ele>44.883403</ele>
        <time>2022-12-19T13:30:49.366Z</time>
      </trkpt>
      <trkpt lat="46.38562" lon="-1.16471">
        <ele>44.782766</ele>
        <time>2022-12-19T13:30:51.362Z</time>
      </trkpt>
      <trkpt lat="46.38559" lon="-1.16453">
        <ele>44.652023</ele>
        <time>2022-12-19T13:30:54.363Z</time>
      </trkpt>
      <trkpt lat="46.38556" lon="-1.16437">
        <ele>44.536623</ele>
        <time>2022-12-19T13:30:57.369Z</time>
      </trkpt>
      <trkpt lat="46.38553" lon="-1.1642">
        <ele>44.414433</ele>
        <time>2022-12-19T13:31:00.353Z</time>
      </trkpt>
      <trkpt lat="46.3855" lon="-1.16402">
        <ele>44.285653</ele>
        <time>2022-12-19T13:31:03.334Z</time>
      </trkpt>
      <trkpt lat="46.38547" lon="-1.16384">
        <ele>44.153915</ele>
        <time>2022-12-19T13:31:06.353Z</time>
      </trkpt>
      <trkpt lat="46.38544" lon="-1.16366">
        <ele>44.023327</ele>
        <time>2022-12-19T13:31:09.343Z</time>
      </trkpt>
      <trkpt lat="46.38542" lon="-1.16347">
        <ele>43.892058</ele>
        <time>2022-12-19T13:31:12.361Z</time>
      </trkpt>
      <trkpt lat="46.38538" lon="-1.16329">
        <ele>43.759821</ele>
        <time>2022-12-19T13:31:15.356Z</time>
      </trkpt>
      <trkpt lat="46.38536" lon="-1.16316">
        <ele>43.666235</ele>
        <time>2022-12-19T13:31:17.351Z</time>
      </trkpt>
      <trkpt lat="46.38534" lon="-1.16303">
        <ele>43.683625</ele>
        <time>2022-12-19T13:31:19.397Z</time>
      </trkpt>
      <trkpt lat="46.38532" lon="-1.1629">
        <ele>43.780743</ele>
        <time>2022-12-19T13:31:21.356Z</time>
      </trkpt>
      <trkpt lat="46.38529" lon="-1.16277">
        <ele>43.875812</ele>
        <time>2022-12-19T13:31:23.354Z</time>
      </trkpt>
      <trkpt lat="46.38527" lon="-1.16264">
        <ele>43.970595</ele>
        <time>2022-12-19T13:31:25.344Z</time>
      </trkpt>
      <trkpt lat="46.38525" lon="-1.1625">
        <ele>44.067029</ele>
        <time>2022-12-19T13:31:27.353Z</time>
      </trkpt>
      <trkpt lat="46.38523" lon="-1.16238">
        <ele>44.159744</ele>
        <time>2022-12-19T13:31:29.360Z</time>
      </trkpt>
      <trkpt lat="46.38521" lon="-1.16225">
        <ele>44.254991</ele>
        <time>2022-12-19T13:31:31.345Z</time>
      </trkpt>
      <trkpt lat="46.38518" lon="-1.16206">
        <ele>44.389728</ele>
        <time>2022-12-19T13:31:34.360Z</time>
      </trkpt>
      <trkpt lat="46.38514" lon="-1.16187">
        <ele>44.528242</ele>
        <time>2022-12-19T13:31:37.356Z</time>
      </trkpt>
      <trkpt lat="46.3851" lon="-1.16168">
        <ele>44.668799</ele>
        <time>2022-12-19T13:31:40.340Z</time>
      </trkpt>
      <trkpt lat="46.38508" lon="-1.16149">
        <ele>44.803075</ele>
        <time>2022-12-19T13:31:43.352Z</time>
      </trkpt>
      <trkpt lat="46.38505" lon="-1.16132">
        <ele>44.930314</ele>
        <time>2022-12-19T13:31:46.358Z</time>
      </trkpt>
      <trkpt lat="46.38503" lon="-1.16115">
        <ele>45.050112</ele>
        <time>2022-12-19T13:31:49.345Z</time>
      </trkpt>
      <trkpt lat="46.385" lon="-1.16098">
        <ele>45.175196</ele>
        <time>2022-12-19T13:31:52.352Z</time>
      </trkpt>
      <trkpt lat="46.38497" lon="-1.16079">
        <ele>45.312924</ele>
        <time>2022-12-19T13:31:55.360Z</time>
      </trkpt>
      <trkpt lat="46.38494" lon="-1.16066">
        <ele>45.406559</ele>
        <time>2022-12-19T13:31:57.355Z</time>
      </trkpt>
      <trkpt lat="46.38492" lon="-1.16053">
        <ele>45.484927</ele>
        <time>2022-12-19T13:31:59.352Z</time>
      </trkpt>
      <trkpt lat="46.3849" lon="-1.16039">
        <ele>45.533095</ele>
        <time>2022-12-19T13:32:01.356Z</time>
      </trkpt>
      <trkpt lat="46.38488" lon="-1.16026">
        <ele>45.578968</ele>
        <time>2022-12-19T13:32:03.359Z</time>
      </trkpt>
      <trkpt lat="46.38485" lon="-1.16013">
        <ele>45.624455</ele>
        <time>2022-12-19T13:32:05.349Z</time>
      </trkpt>
      <trkpt lat="46.38483" lon="-1.16">
        <ele>45.671625</ele>
        <time>2022-12-19T13:32:07.358Z</time>
      </trkpt>
      <trkpt lat="46.38482" lon="-1.15986">
        <ele>45.717073</ele>
        <time>2022-12-19T13:32:09.358Z</time>
      </trkpt>
      <trkpt lat="46.38479" lon="-1.15973">
        <ele>45.763947</ele>
        <time>2022-12-19T13:32:11.400Z</time>
      </trkpt>
      <trkpt lat="46.38477" lon="-1.1596">
        <ele>45.808924</ele>
        <time>2022-12-19T13:32:13.350Z</time>
      </trkpt>
      <trkpt lat="46.38474" lon="-1.15946">
        <ele>45.857542</ele>
        <time>2022-12-19T13:32:15.352Z</time>
      </trkpt>
      <trkpt lat="46.38471" lon="-1.15928">
        <ele>45.922084</ele>
        <time>2022-12-19T13:32:18.352Z</time>
      </trkpt>
      <trkpt lat="46.38468" lon="-1.15909">
        <ele>45.986405</ele>
        <time>2022-12-19T13:32:21.359Z</time>
      </trkpt>
      <trkpt lat="46.38465" lon="-1.1589">
        <ele>46.054026</ele>
        <time>2022-12-19T13:32:24.359Z</time>
      </trkpt>
      <trkpt lat="46.38463" lon="-1.15877">
        <ele>46.098921</ele>
        <time>2022-12-19T13:32:26.343Z</time>
      </trkpt>
      <trkpt lat="46.38459" lon="-1.15858">
        <ele>46.166263</ele>
        <time>2022-12-19T13:32:29.362Z</time>
      </trkpt>
      <trkpt lat="46.38457" lon="-1.15845">
        <ele>46.212443</ele>
        <time>2022-12-19T13:32:31.352Z</time>
      </trkpt>
      <trkpt lat="46.38455" lon="-1.15827">
        <ele>46.274588</ele>
        <time>2022-12-19T13:32:34.422Z</time>
      </trkpt>
      <trkpt lat="46.38451" lon="-1.1581">
        <ele>46.334599</ele>
        <time>2022-12-19T13:32:37.360Z</time>
      </trkpt>
      <trkpt lat="46.38448" lon="-1.15793">
        <ele>46.322357</ele>
        <time>2022-12-19T13:32:40.415Z</time>
      </trkpt>
      <trkpt lat="46.38444" lon="-1.15775">
        <ele>46.275315</ele>
        <time>2022-12-19T13:32:43.363Z</time>
      </trkpt>
      <trkpt lat="46.38439" lon="-1.15756">
        <ele>46.224695</ele>
        <time>2022-12-19T13:32:46.410Z</time>
      </trkpt>
      <trkpt lat="46.38436" lon="-1.15743">
        <ele>46.19035</ele>
        <time>2022-12-19T13:32:48.350Z</time>
      </trkpt>
      <trkpt lat="46.38431" lon="-1.15725">
        <ele>46.141859</ele>
        <time>2022-12-19T13:32:51.361Z</time>
      </trkpt>
      <trkpt lat="46.38428" lon="-1.15713">
        <ele>46.108341</ele>
        <time>2022-12-19T13:32:53.357Z</time>
      </trkpt>
      <trkpt lat="46.38424" lon="-1.15696">
        <ele>46.063824</ele>
        <time>2022-12-19T13:32:56.352Z</time>
      </trkpt>
      <trkpt lat="46.3842" lon="-1.1568">
        <ele>46.019534</ele>
        <time>2022-12-19T13:32:59.365Z</time>
      </trkpt>
      <trkpt lat="46.38415" lon="-1.15662">
        <ele>45.971989</ele>
        <time>2022-12-19T13:33:02.352Z</time>
      </trkpt>
      <trkpt lat="46.38412" lon="-1.15645">
        <ele>45.925298</ele>
        <time>2022-12-19T13:33:05.359Z</time>
      </trkpt>
      <trkpt lat="46.38407" lon="-1.15627">
        <ele>45.877012</ele>
        <time>2022-12-19T13:33:08.399Z</time>
      </trkpt>
      <trkpt lat="46.38403" lon="-1.15614">
        <ele>45.841076</ele>
        <time>2022-12-19T13:33:10.350Z</time>
      </trkpt>
      <trkpt lat="46.384" lon="-1.15601">
        <ele>45.805877</ele>
        <time>2022-12-19T13:33:12.350Z</time>
      </trkpt>
      <trkpt lat="46.38396" lon="-1.15588">
        <ele>45.770693</ele>
        <time>2022-12-19T13:33:14.416Z</time>
      </trkpt>
      <trkpt lat="46.38393" lon="-1.15576">
        <ele>45.73738</ele>
        <time>2022-12-19T13:33:16.351Z</time>
      </trkpt>
      <trkpt lat="46.3839" lon="-1.15563">
        <ele>45.70346</ele>
        <time>2022-12-19T13:33:18.360Z</time>
      </trkpt>
      <trkpt lat="46.38386" lon="-1.15551">
        <ele>45.690443</ele>
        <time>2022-12-19T13:33:20.381Z</time>
      </trkpt>
      <trkpt lat="46.38383" lon="-1.15538">
        <ele>45.686529</ele>
        <time>2022-12-19T13:33:22.358Z</time>
      </trkpt>
      <trkpt lat="46.3838" lon="-1.15525">
        <ele>45.682547</ele>
        <time>2022-12-19T13:33:24.366Z</time>
      </trkpt>
      <trkpt lat="46.38377" lon="-1.15511">
        <ele>45.678389</ele>
        <time>2022-12-19T13:33:26.417Z</time>
      </trkpt>
      <trkpt lat="46.38373" lon="-1.15493">
        <ele>45.673012</ele>
        <time>2022-12-19T13:33:29.359Z</time>
      </trkpt>
      <trkpt lat="46.38369" lon="-1.15478">
        <ele>45.668378</ele>
        <time>2022-12-19T13:33:32.335Z</time>
      </trkpt>
      <trkpt lat="46.38365" lon="-1.15462">
        <ele>45.663489</ele>
        <time>2022-12-19T13:33:35.346Z</time>
      </trkpt>
      <trkpt lat="46.3836" lon="-1.15447">
        <ele>45.65875</ele>
        <time>2022-12-19T13:33:38.361Z</time>
      </trkpt>
      <trkpt lat="46.38356" lon="-1.15431">
        <ele>45.653711</ele>
        <time>2022-12-19T13:33:41.363Z</time>
      </trkpt>
      <trkpt lat="46.38351" lon="-1.15413">
        <ele>45.648441</ele>
        <time>2022-12-19T13:33:44.367Z</time>
      </trkpt>
      <trkpt lat="46.38347" lon="-1.15396">
        <ele>45.643076</ele>
        <time>2022-12-19T13:33:47.359Z</time>
      </trkpt>
      <trkpt lat="46.38342" lon="-1.15377">
        <ele>45.637454</ele>
        <time>2022-12-19T13:33:50.348Z</time>
      </trkpt>
      <trkpt lat="46.38339" lon="-1.15365">
        <ele>45.633684</ele>
        <time>2022-12-19T13:33:52.360Z</time>
      </trkpt>
      <trkpt lat="46.38336" lon="-1.15353">
        <ele>45.629811</ele>
        <time>2022-12-19T13:33:54.361Z</time>
      </trkpt>
      <trkpt lat="46.38332" lon="-1.15334">
        <ele>45.62437</ele>
        <time>2022-12-19T13:33:57.363Z</time>
      </trkpt>
      <trkpt lat="46.38329" lon="-1.15321">
        <ele>45.620523</ele>
        <time>2022-12-19T13:33:59.353Z</time>
      </trkpt>
      <trkpt lat="46.38325" lon="-1.15302">
        <ele>45.709251</ele>
        <time>2022-12-19T13:34:02.356Z</time>
      </trkpt>
      <trkpt lat="46.38323" lon="-1.15289">
        <ele>45.814317</ele>
        <time>2022-12-19T13:34:04.355Z</time>
      </trkpt>
      <trkpt lat="46.38321" lon="-1.15276">
        <ele>45.912415</ele>
        <time>2022-12-19T13:34:06.338Z</time>
      </trkpt>
      <trkpt lat="46.3832" lon="-1.15262">
        <ele>46.017455</ele>
        <time>2022-12-19T13:34:08.355Z</time>
      </trkpt>
      <trkpt lat="46.38318" lon="-1.15248">
        <ele>46.122666</ele>
        <time>2022-12-19T13:34:10.336Z</time>
      </trkpt>
      <trkpt lat="46.38317" lon="-1.15234">
        <ele>46.227877</ele>
        <time>2022-12-19T13:34:12.354Z</time>
      </trkpt>
      <trkpt lat="46.38315" lon="-1.1522">
        <ele>46.332184</ele>
        <time>2022-12-19T13:34:14.367Z</time>
      </trkpt>
      <trkpt lat="46.38314" lon="-1.15202">
        <ele>46.466996</ele>
        <time>2022-12-19T13:34:17.358Z</time>
      </trkpt>
      <trkpt lat="46.38312" lon="-1.15184">
        <ele>46.596891</ele>
        <time>2022-12-19T13:34:20.359Z</time>
      </trkpt>
      <trkpt lat="46.3831" lon="-1.15168">
        <ele>46.719162</ele>
        <time>2022-12-19T13:34:23.356Z</time>
      </trkpt>
      <trkpt lat="46.38309" lon="-1.15152">
        <ele>46.842696</ele>
        <time>2022-12-19T13:34:26.378Z</time>
      </trkpt>
      <trkpt lat="46.38307" lon="-1.15134">
        <ele>46.975646</ele>
        <time>2022-12-19T13:34:29.366Z</time>
      </trkpt>
      <trkpt lat="46.38306" lon="-1.15115">
        <ele>47.113879</ele>
        <time>2022-12-19T13:34:32.421Z</time>
      </trkpt>
      <trkpt lat="46.38304" lon="-1.15096">
        <ele>47.256401</ele>
        <time>2022-12-19T13:34:35.349Z</time>
      </trkpt>
      <trkpt lat="46.38304" lon="-1.15077">
        <ele>47.39875</ele>
        <time>2022-12-19T13:34:38.363Z</time>
      </trkpt>
      <trkpt lat="46.38304" lon="-1.15058">
        <ele>47.539621</ele>
        <time>2022-12-19T13:34:41.344Z</time>
      </trkpt>
      <trkpt lat="46.38305" lon="-1.15041">
        <ele>47.64981</ele>
        <time>2022-12-19T13:34:44.365Z</time>
      </trkpt>
      <trkpt lat="46.38307" lon="-1.15024">
        <ele>47.753523</ele>
        <time>2022-12-19T13:34:47.346Z</time>
      </trkpt>
      <trkpt lat="46.3831" lon="-1.15007">
        <ele>47.864687</ele>
        <time>2022-12-19T13:34:50.373Z</time>
      </trkpt>
      <trkpt lat="46.38315" lon="-1.1499">
        <ele>47.979476</ele>
        <time>2022-12-19T13:34:53.352Z</time>
      </trkpt>
      <trkpt lat="46.38321" lon="-1.14972">
        <ele>48.101145</ele>
        <time>2022-12-19T13:34:56.353Z</time>
      </trkpt>
      <trkpt lat="46.38325" lon="-1.1496">
        <ele>48.185133</ele>
        <time>2022-12-19T13:34:58.355Z</time>
      </trkpt>
      <trkpt lat="46.3833" lon="-1.14948">
        <ele>48.269512</ele>
        <time>2022-12-19T13:35:00.418Z</time>
      </trkpt>
      <trkpt lat="46.38334" lon="-1.14936">
        <ele>48.356395</ele>
        <time>2022-12-19T13:35:02.364Z</time>
      </trkpt>
      <trkpt lat="46.38339" lon="-1.14924">
        <ele>48.440617</ele>
        <time>2022-12-19T13:35:04.354Z</time>
      </trkpt>
      <trkpt lat="46.38343" lon="-1.14912">
        <ele>48.525337</ele>
        <time>2022-12-19T13:35:06.362Z</time>
      </trkpt>
      <trkpt lat="46.38348" lon="-1.149">
        <ele>48.612878</ele>
        <time>2022-12-19T13:35:08.352Z</time>
      </trkpt>
      <trkpt lat="46.38352" lon="-1.14888">
        <ele>48.695855</ele>
        <time>2022-12-19T13:35:10.350Z</time>
      </trkpt>
      <trkpt lat="46.38359" lon="-1.14872">
        <ele>48.814667</ele>
        <time>2022-12-19T13:35:13.350Z</time>
      </trkpt>
      <trkpt lat="46.38366" lon="-1.14858">
        <ele>48.91652</ele>
        <time>2022-12-19T13:35:16.357Z</time>
      </trkpt>
      <trkpt lat="46.38372" lon="-1.14845">
        <ele>49.014839</ele>
        <time>2022-12-19T13:35:19.364Z</time>
      </trkpt>
      <trkpt lat="46.38379" lon="-1.14834">
        <ele>49.10867</ele>
        <time>2022-12-19T13:35:22.451Z</time>
      </trkpt>
      <trkpt lat="46.38384" lon="-1.14821">
        <ele>49.198333</ele>
        <time>2022-12-19T13:35:25.360Z</time>
      </trkpt>
      <trkpt lat="46.38389" lon="-1.14809">
        <ele>49.27907</ele>
        <time>2022-12-19T13:35:28.341Z</time>
      </trkpt>
      <trkpt lat="46.38394" lon="-1.14792">
        <ele>49.380413</ele>
        <time>2022-12-19T13:35:31.359Z</time>
      </trkpt>
      <trkpt lat="46.38398" lon="-1.14779">
        <ele>49.453071</ele>
        <time>2022-12-19T13:35:33.427Z</time>
      </trkpt>
      <trkpt lat="46.384" lon="-1.14766">
        <ele>49.528371</ele>
        <time>2022-12-19T13:35:35.352Z</time>
      </trkpt>
      <trkpt lat="46.38402" lon="-1.14752">
        <ele>49.602787</ele>
        <time>2022-12-19T13:35:37.354Z</time>
      </trkpt>
      <trkpt lat="46.38403" lon="-1.14739">
        <ele>49.675161</ele>
        <time>2022-12-19T13:35:39.406Z</time>
      </trkpt>
      <trkpt lat="46.38402" lon="-1.14719">
        <ele>49.784053</ele>
        <time>2022-12-19T13:35:42.360Z</time>
      </trkpt>
      <trkpt lat="46.38401" lon="-1.14706">
        <ele>49.858742</ele>
        <time>2022-12-19T13:35:44.359Z</time>
      </trkpt>
      <trkpt lat="46.384" lon="-1.14693">
        <ele>49.931094</ele>
        <time>2022-12-19T13:35:46.358Z</time>
      </trkpt>
      <trkpt lat="46.38398" lon="-1.14679">
        <ele>50.00719</ele>
        <time>2022-12-19T13:35:48.356Z</time>
      </trkpt>
      <trkpt lat="46.38396" lon="-1.14666">
        <ele>50.080896</ele>
        <time>2022-12-19T13:35:50.352Z</time>
      </trkpt>
      <trkpt lat="46.38392" lon="-1.14649">
        <ele>50.177358</ele>
        <time>2022-12-19T13:35:53.341Z</time>
      </trkpt>
      <trkpt lat="46.38389" lon="-1.14634">
        <ele>50.261914</ele>
        <time>2022-12-19T13:35:56.363Z</time>
      </trkpt>
      <trkpt lat="46.38386" lon="-1.1462">
        <ele>50.345661</ele>
        <time>2022-12-19T13:35:59.338Z</time>
      </trkpt>
      <trkpt lat="46.38383" lon="-1.14605">
        <ele>50.432483</ele>
        <time>2022-12-19T13:36:02.362Z</time>
      </trkpt>
      <trkpt lat="46.3838" lon="-1.14591">
        <ele>50.50898</ele>
        <time>2022-12-19T13:36:05.356Z</time>
      </trkpt>
      <trkpt lat="46.38375" lon="-1.14576">
        <ele>50.596467</ele>
        <time>2022-12-19T13:36:09.427Z</time>
      </trkpt>
      <trkpt lat="46.38372" lon="-1.14564">
        <ele>50.459786</ele>
        <time>2022-12-19T13:36:13.356Z</time>
      </trkpt>
      <trkpt lat="46.38365" lon="-1.1454">
        <ele>50.179755</ele>
        <time>2022-12-19T13:37:09.365Z</time>
      </trkpt>
      <trkpt lat="46.38361" lon="-1.14528">
        <ele>50.038124</ele>
        <time>2022-12-19T13:37:12.362Z</time>
      </trkpt>
      <trkpt lat="46.38357" lon="-1.14515">
        <ele>49.879651</ele>
        <time>2022-12-19T13:37:15.354Z</time>
      </trkpt>
      <trkpt lat="46.38353" lon="-1.145">
        <ele>49.710378</ele>
        <time>2022-12-19T13:37:18.355Z</time>
      </trkpt>
      <trkpt lat="46.38348" lon="-1.14484">
        <ele>49.528568</ele>
        <time>2022-12-19T13:37:21.350Z</time>
      </trkpt>
      <trkpt lat="46.38343" lon="-1.14469">
        <ele>49.344445</ele>
        <time>2022-12-19T13:37:24.364Z</time>
      </trkpt>
      <trkpt lat="46.38338" lon="-1.14452">
        <ele>49.154793</ele>
        <time>2022-12-19T13:37:27.354Z</time>
      </trkpt>
      <trkpt lat="46.38333" lon="-1.14436">
        <ele>48.960025</ele>
        <time>2022-12-19T13:37:30.359Z</time>
      </trkpt>
      <trkpt lat="46.38328" lon="-1.14418">
        <ele>48.753174</ele>
        <time>2022-12-19T13:37:33.361Z</time>
      </trkpt>
      <trkpt lat="46.38323" lon="-1.14401">
        <ele>48.548655</ele>
        <time>2022-12-19T13:37:36.362Z</time>
      </trkpt>
      <trkpt lat="46.38317" lon="-1.14383">
        <ele>48.339627</ele>
        <time>2022-12-19T13:37:39.362Z</time>
      </trkpt>
      <trkpt lat="46.38311" lon="-1.14365">
        <ele>48.130916</ele>
        <time>2022-12-19T13:37:42.355Z</time>
      </trkpt>
      <trkpt lat="46.38306" lon="-1.14347">
        <ele>47.927234</ele>
        <time>2022-12-19T13:37:45.366Z</time>
      </trkpt>
      <trkpt lat="46.38301" lon="-1.1433">
        <ele>47.790412</ele>
        <time>2022-12-19T13:37:48.352Z</time>
      </trkpt>
      <trkpt lat="46.38296" lon="-1.14313">
        <ele>47.748609</ele>
        <time>2022-12-19T13:37:51.339Z</time>
      </trkpt>
      <trkpt lat="46.38291" lon="-1.14295">
        <ele>47.70701</ele>
        <time>2022-12-19T13:37:54.433Z</time>
      </trkpt>
      <trkpt lat="46.38286" lon="-1.14279">
        <ele>47.666906</ele>
        <time>2022-12-19T13:37:57.354Z</time>
      </trkpt>
      <trkpt lat="46.38281" lon="-1.14262">
        <ele>47.626931</ele>
        <time>2022-12-19T13:38:00.396Z</time>
      </trkpt>
      <trkpt lat="46.38276" lon="-1.14247">
        <ele>47.590098</ele>
        <time>2022-12-19T13:38:03.362Z</time>
      </trkpt>
      <trkpt lat="46.38272" lon="-1.14233">
        <ele>47.555811</ele>
        <time>2022-12-19T13:38:06.342Z</time>
      </trkpt>
      <trkpt lat="46.38267" lon="-1.14218">
        <ele>47.519838</ele>
        <time>2022-12-19T13:38:09.361Z</time>
      </trkpt>
      <trkpt lat="46.38263" lon="-1.14203">
        <ele>47.484069</ele>
        <time>2022-12-19T13:38:12.363Z</time>
      </trkpt>
      <trkpt lat="46.38258" lon="-1.14187">
        <ele>47.447308</ele>
        <time>2022-12-19T13:38:15.364Z</time>
      </trkpt>
      <trkpt lat="46.38254" lon="-1.14171">
        <ele>47.408561</ele>
        <time>2022-12-19T13:38:18.363Z</time>
      </trkpt>
      <trkpt lat="46.38249" lon="-1.14157">
        <ele>47.373338</ele>
        <time>2022-12-19T13:38:21.349Z</time>
      </trkpt>
      <trkpt lat="46.38245" lon="-1.14143">
        <ele>47.339651</ele>
        <time>2022-12-19T13:38:24.365Z</time>
      </trkpt>
      <trkpt lat="46.3824" lon="-1.14128">
        <ele>47.304561</ele>
        <time>2022-12-19T13:38:27.352Z</time>
      </trkpt>
      <trkpt lat="46.38236" lon="-1.14113">
        <ele>47.268588</ele>
        <time>2022-12-19T13:38:30.353Z</time>
      </trkpt>
      <trkpt lat="46.38231" lon="-1.14098">
        <ele>47.233179</ele>
        <time>2022-12-19T13:38:33.360Z</time>
      </trkpt>
      <trkpt lat="46.38226" lon="-1.14082">
        <ele>47.274087</ele>
        <time>2022-12-19T13:38:36.347Z</time>
      </trkpt>
      <trkpt lat="46.38221" lon="-1.14066">
        <ele>47.314225</ele>
        <time>2022-12-19T13:38:39.366Z</time>
      </trkpt>
      <trkpt lat="46.38216" lon="-1.1405">
        <ele>47.355967</ele>
        <time>2022-12-19T13:38:42.352Z</time>
      </trkpt>
      <trkpt lat="46.38211" lon="-1.14033">
        <ele>47.398341</ele>
        <time>2022-12-19T13:38:45.363Z</time>
      </trkpt>
      <trkpt lat="46.38206" lon="-1.14017">
        <ele>47.439385</ele>
        <time>2022-12-19T13:38:48.360Z</time>
      </trkpt>
      <trkpt lat="46.38202" lon="-1.14001">
        <ele>47.478424</ele>
        <time>2022-12-19T13:38:51.355Z</time>
      </trkpt>
      <trkpt lat="46.38198" lon="-1.13986">
        <ele>47.515138</ele>
        <time>2022-12-19T13:38:54.359Z</time>
      </trkpt>
      <trkpt lat="46.38194" lon="-1.13971">
        <ele>47.551652</ele>
        <time>2022-12-19T13:38:57.353Z</time>
      </trkpt>
      <trkpt lat="46.38192" lon="-1.13955">
        <ele>47.589676</ele>
        <time>2022-12-19T13:39:00.362Z</time>
      </trkpt>
      <trkpt lat="46.3819" lon="-1.13937">
        <ele>47.631895</ele>
        <time>2022-12-19T13:39:03.363Z</time>
      </trkpt>
      <trkpt lat="46.38188" lon="-1.13919">
        <ele>47.674465</ele>
        <time>2022-12-19T13:39:06.340Z</time>
      </trkpt>
      <trkpt lat="46.38186" lon="-1.13902">
        <ele>47.714878</ele>
        <time>2022-12-19T13:39:09.356Z</time>
      </trkpt>
      <trkpt lat="46.38185" lon="-1.13885">
        <ele>47.753095</ele>
        <time>2022-12-19T13:39:12.362Z</time>
      </trkpt>
      <trkpt lat="46.38183" lon="-1.13869">
        <ele>47.792001</ele>
        <time>2022-12-19T13:39:15.364Z</time>
      </trkpt>
      <trkpt lat="46.38182" lon="-1.13852">
        <ele>47.831681</ele>
        <time>2022-12-19T13:39:18.347Z</time>
      </trkpt>
      <trkpt lat="46.38179" lon="-1.13834">
        <ele>47.836606</ele>
        <time>2022-12-19T13:39:21.366Z</time>
      </trkpt>
      <trkpt lat="46.38177" lon="-1.13815">
        <ele>47.837876</ele>
        <time>2022-12-19T13:39:24.363Z</time>
      </trkpt>
      <trkpt lat="46.38175" lon="-1.13795">
        <ele>47.839258</ele>
        <time>2022-12-19T13:39:27.359Z</time>
      </trkpt>
      <trkpt lat="46.38172" lon="-1.13777">
        <ele>47.84051</ele>
        <time>2022-12-19T13:39:30.351Z</time>
      </trkpt>
      <trkpt lat="46.3817" lon="-1.1376">
        <ele>47.841675</ele>
        <time>2022-12-19T13:39:33.361Z</time>
      </trkpt>
      <trkpt lat="46.38166" lon="-1.13744">
        <ele>47.842825</ele>
        <time>2022-12-19T13:39:36.360Z</time>
      </trkpt>
      <trkpt lat="46.38161" lon="-1.13727">
        <ele>47.84407</ele>
        <time>2022-12-19T13:39:39.363Z</time>
      </trkpt>
      <trkpt lat="46.38154" lon="-1.1371">
        <ele>47.845352</ele>
        <time>2022-12-19T13:39:42.360Z</time>
      </trkpt>
      <trkpt lat="46.38145" lon="-1.13697">
        <ele>47.846596</ele>
        <time>2022-12-19T13:39:45.352Z</time>
      </trkpt>
      <trkpt lat="46.38144" lon="-1.1368">
        <ele>47.847793</ele>
        <time>2022-12-19T13:39:48.351Z</time>
      </trkpt>
      <trkpt lat="46.38147" lon="-1.13662">
        <ele>47.849077</ele>
        <time>2022-12-19T13:39:51.404Z</time>
      </trkpt>
      <trkpt lat="46.38151" lon="-1.13643">
        <ele>47.850397</ele>
        <time>2022-12-19T13:39:54.365Z</time>
      </trkpt>
      <trkpt lat="46.38153" lon="-1.1363">
        <ele>47.851279</ele>
        <time>2022-12-19T13:39:56.343Z</time>
      </trkpt>
      <trkpt lat="46.38153" lon="-1.13617">
        <ele>47.852171</ele>
        <time>2022-12-19T13:39:58.363Z</time>
      </trkpt>
      <trkpt lat="46.38154" lon="-1.13598">
        <ele>47.851959</ele>
        <time>2022-12-19T13:40:01.366Z</time>
      </trkpt>
      <trkpt lat="46.38155" lon="-1.13579">
        <ele>47.848454</ele>
        <time>2022-12-19T13:40:04.356Z</time>
      </trkpt>
      <trkpt lat="46.38157" lon="-1.1356">
        <ele>47.844954</ele>
        <time>2022-12-19T13:40:07.360Z</time>
      </trkpt>
      <trkpt lat="46.3816" lon="-1.13543">
        <ele>47.84153</ele>
        <time>2022-12-19T13:40:10.362Z</time>
      </trkpt>
      <trkpt lat="46.38162" lon="-1.13525">
        <ele>47.838256</ele>
        <time>2022-12-19T13:40:13.397Z</time>
      </trkpt>
      <trkpt lat="46.38164" lon="-1.13509">
        <ele>47.83516</ele>
        <time>2022-12-19T13:40:16.354Z</time>
      </trkpt>
      <trkpt lat="46.38167" lon="-1.13492">
        <ele>47.831919</ele>
        <time>2022-12-19T13:40:19.363Z</time>
      </trkpt>
      <trkpt lat="46.3817" lon="-1.13474">
        <ele>47.828453</ele>
        <time>2022-12-19T13:40:22.353Z</time>
      </trkpt>
      <trkpt lat="46.38172" lon="-1.13456">
        <ele>47.824906</ele>
        <time>2022-12-19T13:40:25.361Z</time>
      </trkpt>
      <trkpt lat="46.38174" lon="-1.13437">
        <ele>47.821346</ele>
        <time>2022-12-19T13:40:28.351Z</time>
      </trkpt>
      <trkpt lat="46.38177" lon="-1.13418">
        <ele>47.817805</ele>
        <time>2022-12-19T13:40:31.362Z</time>
      </trkpt>
      <trkpt lat="46.38179" lon="-1.134">
        <ele>47.814253</ele>
        <time>2022-12-19T13:40:34.353Z</time>
      </trkpt>
      <trkpt lat="46.38182" lon="-1.13381">
        <ele>47.810677</ele>
        <time>2022-12-19T13:40:37.336Z</time>
      </trkpt>
      <trkpt lat="46.38184" lon="-1.13368">
        <ele>47.808227</ele>
        <time>2022-12-19T13:40:39.363Z</time>
      </trkpt>
      <trkpt lat="46.38186" lon="-1.13355">
        <ele>47.805721</ele>
        <time>2022-12-19T13:40:41.361Z</time>
      </trkpt>
      <trkpt lat="46.38188" lon="-1.13342">
        <ele>47.839402</ele>
        <time>2022-12-19T13:40:43.362Z</time>
      </trkpt>
      <trkpt lat="46.3819" lon="-1.13329">
        <ele>47.92159</ele>
        <time>2022-12-19T13:40:45.355Z</time>
      </trkpt>
      <trkpt lat="46.38192" lon="-1.13316">
        <ele>48.001511</ele>
        <time>2022-12-19T13:40:47.341Z</time>
      </trkpt>
      <trkpt lat="46.38195" lon="-1.13303">
        <ele>48.08285</ele>
        <time>2022-12-19T13:40:49.353Z</time>
      </trkpt>
      <trkpt lat="46.38197" lon="-1.13291">
        <ele>48.163707</ele>
        <time>2022-12-19T13:40:51.440Z</time>
      </trkpt>
      <trkpt lat="46.38202" lon="-1.13272">
        <ele>48.282233</ele>
        <time>2022-12-19T13:40:54.353Z</time>
      </trkpt>
      <trkpt lat="46.38206" lon="-1.13257">
        <ele>48.384565</ele>
        <time>2022-12-19T13:40:57.412Z</time>
      </trkpt>
      <trkpt lat="46.38211" lon="-1.13241">
        <ele>48.489976</ele>
        <time>2022-12-19T13:41:00.363Z</time>
      </trkpt>
      <trkpt lat="46.38216" lon="-1.13224">
        <ele>48.60263</ele>
        <time>2022-12-19T13:41:03.431Z</time>
      </trkpt>
      <trkpt lat="46.38223" lon="-1.13208">
        <ele>48.716628</ele>
        <time>2022-12-19T13:41:06.361Z</time>
      </trkpt>
      <trkpt lat="46.38229" lon="-1.13191">
        <ele>48.830957</ele>
        <time>2022-12-19T13:41:09.409Z</time>
      </trkpt>
      <trkpt lat="46.38233" lon="-1.1318">
        <ele>48.912613</ele>
        <time>2022-12-19T13:41:11.367Z</time>
      </trkpt>
      <trkpt lat="46.38239" lon="-1.13168">
        <ele>48.994419</ele>
        <time>2022-12-19T13:41:13.362Z</time>
      </trkpt>
      <trkpt lat="46.38244" lon="-1.13157">
        <ele>49.082229</ele>
        <time>2022-12-19T13:41:15.422Z</time>
      </trkpt>
      <trkpt lat="46.3825" lon="-1.13145">
        <ele>49.171066</ele>
        <time>2022-12-19T13:41:17.363Z</time>
      </trkpt>
      <trkpt lat="46.38256" lon="-1.13132">
        <ele>49.261898</ele>
        <time>2022-12-19T13:41:19.364Z</time>
      </trkpt>
      <trkpt lat="46.38261" lon="-1.1312">
        <ele>49.350229</ele>
        <time>2022-12-19T13:41:21.414Z</time>
      </trkpt>
      <trkpt lat="46.38266" lon="-1.13107">
        <ele>49.412083</ele>
        <time>2022-12-19T13:41:23.361Z</time>
      </trkpt>
      <trkpt lat="46.38269" lon="-1.13093">
        <ele>49.445185</ele>
        <time>2022-12-19T13:41:25.363Z</time>
      </trkpt>
      <trkpt lat="46.38271" lon="-1.13079">
        <ele>49.478219</ele>
        <time>2022-12-19T13:41:27.414Z</time>
      </trkpt>
      <trkpt lat="46.38273" lon="-1.13066">
        <ele>49.508855</ele>
        <time>2022-12-19T13:41:29.362Z</time>
      </trkpt>
      <trkpt lat="46.38274" lon="-1.13052">
        <ele>49.54086</ele>
        <time>2022-12-19T13:41:31.364Z</time>
      </trkpt>
      <trkpt lat="46.38272" lon="-1.13039">
        <ele>49.571267</ele>
        <time>2022-12-19T13:41:33.416Z</time>
      </trkpt>
      <trkpt lat="46.38269" lon="-1.13026">
        <ele>49.603403</ele>
        <time>2022-12-19T13:41:35.341Z</time>
      </trkpt>
      <trkpt lat="46.38267" lon="-1.13013">
        <ele>49.634281</ele>
        <time>2022-12-19T13:41:37.360Z</time>
      </trkpt>
      <trkpt lat="46.38264" lon="-1.13">
        <ele>49.665975</ele>
        <time>2022-12-19T13:41:39.392Z</time>
      </trkpt>
      <trkpt lat="46.38259" lon="-1.12982">
        <ele>49.710574</ele>
        <time>2022-12-19T13:41:42.362Z</time>
      </trkpt>
      <trkpt lat="46.38255" lon="-1.12965">
        <ele>49.753759</ele>
        <time>2022-12-19T13:41:45.445Z</time>
      </trkpt>
      <trkpt lat="46.38251" lon="-1.1295">
        <ele>49.789389</ele>
        <time>2022-12-19T13:41:48.352Z</time>
      </trkpt>
      <trkpt lat="46.38246" lon="-1.12937">
        <ele>49.824758</ele>
        <time>2022-12-19T13:41:51.364Z</time>
      </trkpt>
      <trkpt lat="46.3824" lon="-1.12922">
        <ele>49.864462</ele>
        <time>2022-12-19T13:41:54.361Z</time>
      </trkpt>
      <trkpt lat="46.38234" lon="-1.12906">
        <ele>49.906873</ele>
        <time>2022-12-19T13:41:57.365Z</time>
      </trkpt>
      <trkpt lat="46.38227" lon="-1.12889">
        <ele>49.951792</ele>
        <time>2022-12-19T13:42:00.341Z</time>
      </trkpt>
      <trkpt lat="46.38221" lon="-1.12872">
        <ele>49.995549</ele>
        <time>2022-12-19T13:42:03.354Z</time>
      </trkpt>
      <trkpt lat="46.38216" lon="-1.12861">
        <ele>49.916162</ele>
        <time>2022-12-19T13:42:05.362Z</time>
      </trkpt>
      <trkpt lat="46.38211" lon="-1.12849">
        <ele>49.830368</ele>
        <time>2022-12-19T13:42:07.361Z</time>
      </trkpt>
      <trkpt lat="46.38205" lon="-1.12832">
        <ele>49.717223</ele>
        <time>2022-12-19T13:42:10.351Z</time>
      </trkpt>
      <trkpt lat="46.38199" lon="-1.12816">
        <ele>49.605475</ele>
        <time>2022-12-19T13:42:13.421Z</time>
      </trkpt>
      <trkpt lat="46.38193" lon="-1.12799">
        <ele>49.488924</ele>
        <time>2022-12-19T13:42:16.363Z</time>
      </trkpt>
      <trkpt lat="46.38188" lon="-1.12786">
        <ele>49.400524</ele>
        <time>2022-12-19T13:42:18.361Z</time>
      </trkpt>
      <trkpt lat="46.38184" lon="-1.12772">
        <ele>49.309342</ele>
        <time>2022-12-19T13:42:20.359Z</time>
      </trkpt>
      <trkpt lat="46.38179" lon="-1.12759">
        <ele>49.220721</ele>
        <time>2022-12-19T13:42:22.351Z</time>
      </trkpt>
      <trkpt lat="46.38175" lon="-1.12747">
        <ele>49.137889</ele>
        <time>2022-12-19T13:42:24.361Z</time>
      </trkpt>
      <trkpt lat="46.3817" lon="-1.12735">
        <ele>49.049944</ele>
        <time>2022-12-19T13:42:26.364Z</time>
      </trkpt>
      <trkpt lat="46.38165" lon="-1.12722">
        <ele>48.964962</ele>
        <time>2022-12-19T13:42:28.366Z</time>
      </trkpt>
      <trkpt lat="46.38162" lon="-1.1271">
        <ele>48.883147</ele>
        <time>2022-12-19T13:42:30.338Z</time>
      </trkpt>
      <trkpt lat="46.38158" lon="-1.12698">
        <ele>48.802996</ele>
        <time>2022-12-19T13:42:32.342Z</time>
      </trkpt>
      <trkpt lat="46.38154" lon="-1.12685">
        <ele>48.716536</ele>
        <time>2022-12-19T13:42:34.351Z</time>
      </trkpt>
      <trkpt lat="46.3815" lon="-1.12673">
        <ele>48.6373</ele>
        <time>2022-12-19T13:42:36.361Z</time>
      </trkpt>
      <trkpt lat="46.38146" lon="-1.12661">
        <ele>48.558056</ele>
        <time>2022-12-19T13:42:38.362Z</time>
      </trkpt>
      <trkpt lat="46.38139" lon="-1.12644">
        <ele>48.440978</ele>
        <time>2022-12-19T13:42:41.356Z</time>
      </trkpt>
      <trkpt lat="46.38133" lon="-1.12628">
        <ele>48.555368</ele>
        <time>2022-12-19T13:42:44.356Z</time>
      </trkpt>
      <trkpt lat="46.38126" lon="-1.12612">
        <ele>48.724908</ele>
        <time>2022-12-19T13:42:47.343Z</time>
      </trkpt>
      <trkpt lat="46.38119" lon="-1.12596">
        <ele>48.898152</ele>
        <time>2022-12-19T13:42:50.341Z</time>
      </trkpt>
      <trkpt lat="46.38112" lon="-1.1258">
        <ele>49.073693</ele>
        <time>2022-12-19T13:42:53.364Z</time>
      </trkpt>
      <trkpt lat="46.38104" lon="-1.12565">
        <ele>49.244649</ele>
        <time>2022-12-19T13:42:56.359Z</time>
      </trkpt>
      <trkpt lat="46.381" lon="-1.12554">
        <ele>49.364815</ele>
        <time>2022-12-19T13:42:58.357Z</time>
      </trkpt>
      <trkpt lat="46.38095" lon="-1.12542">
        <ele>49.488358</ele>
        <time>2022-12-19T13:43:00.355Z</time>
      </trkpt>
      <trkpt lat="46.3809" lon="-1.12531">
        <ele>49.612802</ele>
        <time>2022-12-19T13:43:02.339Z</time>
      </trkpt>
      <trkpt lat="46.38084" lon="-1.12519">
        <ele>49.743134</ele>
        <time>2022-12-19T13:43:04.362Z</time>
      </trkpt>
      <trkpt lat="46.38079" lon="-1.12508">
        <ele>49.868276</ele>
        <time>2022-12-19T13:43:06.361Z</time>
      </trkpt>
      <trkpt lat="46.38073" lon="-1.12497">
        <ele>49.994144</ele>
        <time>2022-12-19T13:43:08.353Z</time>
      </trkpt>
      <trkpt lat="46.38067" lon="-1.12487">
        <ele>50.114708</ele>
        <time>2022-12-19T13:43:10.362Z</time>
      </trkpt>
      <trkpt lat="46.38061" lon="-1.12476">
        <ele>50.237194</ele>
        <time>2022-12-19T13:43:12.346Z</time>
      </trkpt>
      <trkpt lat="46.38054" lon="-1.12461">
        <ele>50.409727</ele>
        <time>2022-12-19T13:43:15.355Z</time>
      </trkpt>
      <trkpt lat="46.38047" lon="-1.12449">
        <ele>50.552841</ele>
        <time>2022-12-19T13:43:18.363Z</time>
      </trkpt>
      <trkpt lat="46.38041" lon="-1.12434">
        <ele>50.713253</ele>
        <time>2022-12-19T13:43:22.369Z</time>
      </trkpt>
      <trkpt lat="46.38035" lon="-1.12419">
        <ele>50.801317</ele>
        <time>2022-12-19T13:43:26.355Z</time>
      </trkpt>
      <trkpt lat="46.38032" lon="-1.12404">
        <ele>50.798399</ele>
        <time>2022-12-19T13:43:29.352Z</time>
      </trkpt>
      <trkpt lat="46.38029" lon="-1.12389">
        <ele>50.795592</ele>
        <time>2022-12-19T13:43:32.340Z</time>
      </trkpt>
      <trkpt lat="46.38026" lon="-1.12375">
        <ele>50.792916</ele>
        <time>2022-12-19T13:43:35.364Z</time>
      </trkpt>
      <trkpt lat="46.38021" lon="-1.12362">
        <ele>50.790177</ele>
        <time>2022-12-19T13:43:38.359Z</time>
      </trkpt>
      <trkpt lat="46.38018" lon="-1.12346">
        <ele>50.787198</ele>
        <time>2022-12-19T13:43:41.362Z</time>
      </trkpt>
      <trkpt lat="46.38014" lon="-1.1233">
        <ele>50.784115</ele>
        <time>2022-12-19T13:43:44.359Z</time>
      </trkpt>
      <trkpt lat="46.38011" lon="-1.12316">
        <ele>50.781272</ele>
        <time>2022-12-19T13:43:47.363Z</time>
      </trkpt>
      <trkpt lat="46.38009" lon="-1.12301">
        <ele>50.7786</ele>
        <time>2022-12-19T13:43:50.337Z</time>
      </trkpt>
      <trkpt lat="46.38009" lon="-1.12286">
        <ele>50.775843</ele>
        <time>2022-12-19T13:43:53.421Z</time>
      </trkpt>
      <trkpt lat="46.38011" lon="-1.1227">
        <ele>50.772894</ele>
        <time>2022-12-19T13:43:56.361Z</time>
      </trkpt>
      <trkpt lat="46.38011" lon="-1.12254">
        <ele>50.769798</ele>
        <time>2022-12-19T13:43:59.389Z</time>
      </trkpt>
      <trkpt lat="46.38014" lon="-1.12236">
        <ele>50.766461</ele>
        <time>2022-12-19T13:44:02.357Z</time>
      </trkpt>
      <trkpt lat="46.38017" lon="-1.12217">
        <ele>50.762981</ele>
        <time>2022-12-19T13:44:05.340Z</time>
      </trkpt>
      <trkpt lat="46.38021" lon="-1.12198">
        <ele>50.759348</ele>
        <time>2022-12-19T13:44:08.363Z</time>
      </trkpt>
      <trkpt lat="46.38024" lon="-1.12186">
        <ele>50.756808</ele>
        <time>2022-12-19T13:44:10.338Z</time>
      </trkpt>
      <trkpt lat="46.38028" lon="-1.12173">
        <ele>50.74078</ele>
        <time>2022-12-19T13:44:12.337Z</time>
      </trkpt>
      <trkpt lat="46.38031" lon="-1.1216">
        <ele>50.670245</ele>
        <time>2022-12-19T13:44:14.364Z</time>
      </trkpt>
      <trkpt lat="46.38034" lon="-1.12146">
        <ele>50.598299</ele>
        <time>2022-12-19T13:44:16.353Z</time>
      </trkpt>
      <trkpt lat="46.38037" lon="-1.12134">
        <ele>50.529239</ele>
        <time>2022-12-19T13:44:18.348Z</time>
      </trkpt>
      <trkpt lat="46.38042" lon="-1.12116">
        <ele>50.431194</ele>
        <time>2022-12-19T13:44:21.353Z</time>
      </trkpt>
      <trkpt lat="46.38047" lon="-1.12098">
        <ele>50.335672</ele>
        <time>2022-12-19T13:44:24.344Z</time>
      </trkpt>
      <trkpt lat="46.38051" lon="-1.12082">
        <ele>50.247054</ele>
        <time>2022-12-19T13:44:27.362Z</time>
      </trkpt>
      <trkpt lat="46.38055" lon="-1.12067">
        <ele>50.164221</ele>
        <time>2022-12-19T13:44:30.361Z</time>
      </trkpt>
      <trkpt lat="46.38057" lon="-1.1205">
        <ele>50.077516</ele>
        <time>2022-12-19T13:44:33.360Z</time>
      </trkpt>
      <trkpt lat="46.38057" lon="-1.12032">
        <ele>49.985054</ele>
        <time>2022-12-19T13:44:36.363Z</time>
      </trkpt>
      <trkpt lat="46.38054" lon="-1.12013">
        <ele>49.88566</ele>
        <time>2022-12-19T13:44:39.364Z</time>
      </trkpt>
      <trkpt lat="46.38051" lon="-1.12001">
        <ele>49.817813</ele>
        <time>2022-12-19T13:44:41.364Z</time>
      </trkpt>
      <trkpt lat="46.38047" lon="-1.11989">
        <ele>49.749198</ele>
        <time>2022-12-19T13:44:43.355Z</time>
      </trkpt>
      <trkpt lat="46.38042" lon="-1.11977">
        <ele>49.680583</ele>
        <time>2022-12-19T13:44:45.360Z</time>
      </trkpt>
      <trkpt lat="46.38038" lon="-1.11965">
        <ele>49.611588</ele>
        <time>2022-12-19T13:44:47.355Z</time>
      </trkpt>
      <trkpt lat="46.38033" lon="-1.11953">
        <ele>49.539545</ele>
        <time>2022-12-19T13:44:49.359Z</time>
      </trkpt>
      <trkpt lat="46.38028" lon="-1.1194">
        <ele>49.464603</ele>
        <time>2022-12-19T13:44:51.361Z</time>
      </trkpt>
      <trkpt lat="46.38023" lon="-1.11927">
        <ele>49.411707</ele>
        <time>2022-12-19T13:44:53.354Z</time>
      </trkpt>
      <trkpt lat="46.38018" lon="-1.11915">
        <ele>49.385058</ele>
        <time>2022-12-19T13:44:55.425Z</time>
      </trkpt>
      <trkpt lat="46.38012" lon="-1.11903">
        <ele>49.35826</ele>
        <time>2022-12-19T13:44:57.356Z</time>
      </trkpt>
      <trkpt lat="46.38005" lon="-1.11892">
        <ele>49.331982</ele>
        <time>2022-12-19T13:44:59.354Z</time>
      </trkpt>
      <trkpt lat="46.38" lon="-1.1188">
        <ele>49.306062</ele>
        <time>2022-12-19T13:45:01.398Z</time>
      </trkpt>
      <trkpt lat="46.37994" lon="-1.11869">
        <ele>49.281044</ele>
        <time>2022-12-19T13:45:03.358Z</time>
      </trkpt>
      <trkpt lat="46.37989" lon="-1.11858">
        <ele>49.257512</ele>
        <time>2022-12-19T13:45:05.353Z</time>
      </trkpt>
      <trkpt lat="46.37982" lon="-1.11843">
        <ele>49.224898</ele>
        <time>2022-12-19T13:45:08.348Z</time>
      </trkpt>
      <trkpt lat="46.37975" lon="-1.11829">
        <ele>49.193779</ele>
        <time>2022-12-19T13:45:11.365Z</time>
      </trkpt>
      <trkpt lat="46.37969" lon="-1.11815">
        <ele>49.163706</ele>
        <time>2022-12-19T13:45:14.362Z</time>
      </trkpt>
      <trkpt lat="46.37962" lon="-1.11802">
        <ele>49.132715</ele>
        <time>2022-12-19T13:45:17.365Z</time>
      </trkpt>
      <trkpt lat="46.37956" lon="-1.11787">
        <ele>49.102423</ele>
        <time>2022-12-19T13:45:20.345Z</time>
      </trkpt>
      <trkpt lat="46.3795" lon="-1.11772">
        <ele>49.071256</ele>
        <time>2022-12-19T13:45:23.343Z</time>
      </trkpt>
      <trkpt lat="46.37945" lon="-1.11757">
        <ele>49.04101</ele>
        <time>2022-12-19T13:45:26.356Z</time>
      </trkpt>
      <trkpt lat="46.37941" lon="-1.11741">
        <ele>49.009464</ele>
        <time>2022-12-19T13:45:29.450Z</time>
      </trkpt>
      <trkpt lat="46.37937" lon="-1.11724">
        <ele>48.977145</ele>
        <time>2022-12-19T13:45:32.364Z</time>
      </trkpt>
      <trkpt lat="46.37932" lon="-1.11707">
        <ele>48.943642</ele>
        <time>2022-12-19T13:45:35.341Z</time>
      </trkpt>
      <trkpt lat="46.37928" lon="-1.11689">
        <ele>48.910328</ele>
        <time>2022-12-19T13:45:38.363Z</time>
      </trkpt>
      <trkpt lat="46.37923" lon="-1.11673">
        <ele>48.877386</ele>
        <time>2022-12-19T13:45:41.362Z</time>
      </trkpt>
      <trkpt lat="46.37919" lon="-1.11656">
        <ele>48.844831</ele>
        <time>2022-12-19T13:45:44.365Z</time>
      </trkpt>
      <trkpt lat="46.37914" lon="-1.11639">
        <ele>48.812591</ele>
        <time>2022-12-19T13:45:47.362Z</time>
      </trkpt>
      <trkpt lat="46.37909" lon="-1.11623">
        <ele>48.781042</ele>
        <time>2022-12-19T13:45:50.354Z</time>
      </trkpt>
      <trkpt lat="46.37905" lon="-1.11607">
        <ele>48.750215</ele>
        <time>2022-12-19T13:45:53.353Z</time>
      </trkpt>
      <trkpt lat="46.37901" lon="-1.11591">
        <ele>48.718505</ele>
        <time>2022-12-19T13:45:56.427Z</time>
      </trkpt>
      <trkpt lat="46.37896" lon="-1.11575">
        <ele>48.686834</ele>
        <time>2022-12-19T13:45:59.362Z</time>
      </trkpt>
      <trkpt lat="46.37891" lon="-1.11559">
        <ele>48.655059</ele>
        <time>2022-12-19T13:46:02.425Z</time>
      </trkpt>
      <trkpt lat="46.37887" lon="-1.11542">
        <ele>48.623804</ele>
        <time>2022-12-19T13:46:05.342Z</time>
      </trkpt>
      <trkpt lat="46.37883" lon="-1.11526">
        <ele>48.5926</ele>
        <time>2022-12-19T13:46:08.337Z</time>
      </trkpt>
      <trkpt lat="46.37879" lon="-1.11511">
        <ele>48.562357</ele>
        <time>2022-12-19T13:46:11.359Z</time>
      </trkpt>
      <trkpt lat="46.37876" lon="-1.11497">
        <ele>48.536718</ele>
        <time>2022-12-19T13:46:14.362Z</time>
      </trkpt>
      <trkpt lat="46.37873" lon="-1.11481">
        <ele>48.506464</ele>
        <time>2022-12-19T13:46:18.411Z</time>
      </trkpt>
      <trkpt lat="46.37869" lon="-1.11466">
        <ele>48.487445</ele>
        <time>2022-12-19T13:46:22.354Z</time>
      </trkpt>
      <trkpt lat="46.37864" lon="-1.11455">
        <ele>48.558015</ele>
        <time>2022-12-19T13:46:25.362Z</time>
      </trkpt>
      <trkpt lat="46.37859" lon="-1.11441">
        <ele>48.643163</ele>
        <time>2022-12-19T13:46:28.363Z</time>
      </trkpt>
      <trkpt lat="46.37862" lon="-1.11424">
        <ele>48.734865</ele>
        <time>2022-12-19T13:46:31.343Z</time>
      </trkpt>
      <trkpt lat="46.37864" lon="-1.11408">
        <ele>48.824334</ele>
        <time>2022-12-19T13:46:34.337Z</time>
      </trkpt>
      <trkpt lat="46.37864" lon="-1.11391">
        <ele>48.91219</ele>
        <time>2022-12-19T13:46:37.366Z</time>
      </trkpt>
      <trkpt lat="46.37865" lon="-1.11374">
        <ele>49.002746</ele>
        <time>2022-12-19T13:46:40.357Z</time>
      </trkpt>
      <trkpt lat="46.37865" lon="-1.11356">
        <ele>49.099752</ele>
        <time>2022-12-19T13:46:43.347Z</time>
      </trkpt>
      <trkpt lat="46.37865" lon="-1.11338">
        <ele>49.195638</ele>
        <time>2022-12-19T13:46:46.364Z</time>
      </trkpt>
      <trkpt lat="46.37866" lon="-1.1132">
        <ele>49.294283</ele>
        <time>2022-12-19T13:46:49.372Z</time>
      </trkpt>
      <trkpt lat="46.37866" lon="-1.11301">
        <ele>49.394973</ele>
        <time>2022-12-19T13:46:52.362Z</time>
      </trkpt>
      <trkpt lat="46.37866" lon="-1.11282">
        <ele>49.496724</ele>
        <time>2022-12-19T13:46:55.364Z</time>
      </trkpt>
      <trkpt lat="46.37865" lon="-1.11263">
        <ele>49.599152</ele>
        <time>2022-12-19T13:46:58.364Z</time>
      </trkpt>
      <trkpt lat="46.37864" lon="-1.11244">
        <ele>49.701221</ele>
        <time>2022-12-19T13:47:01.347Z</time>
      </trkpt>
      <trkpt lat="46.37862" lon="-1.11231">
        <ele>49.771682</ele>
        <time>2022-12-19T13:47:03.364Z</time>
      </trkpt>
      <trkpt lat="46.3786" lon="-1.11213">
        <ele>49.871897</ele>
        <time>2022-12-19T13:47:06.366Z</time>
      </trkpt>
      <trkpt lat="46.37857" lon="-1.11195">
        <ele>49.731376</ele>
        <time>2022-12-19T13:47:09.367Z</time>
      </trkpt>
      <trkpt lat="46.37854" lon="-1.11178">
        <ele>49.587685</ele>
        <time>2022-12-19T13:47:12.362Z</time>
      </trkpt>
      <trkpt lat="46.3785" lon="-1.11161">
        <ele>49.44155</ele>
        <time>2022-12-19T13:47:15.362Z</time>
      </trkpt>
      <trkpt lat="46.37846" lon="-1.11145">
        <ele>49.296959</ele>
        <time>2022-12-19T13:47:18.344Z</time>
      </trkpt>
      <trkpt lat="46.3784" lon="-1.11129">
        <ele>49.149042</ele>
        <time>2022-12-19T13:47:21.363Z</time>
      </trkpt>
      <trkpt lat="46.37834" lon="-1.11113">
        <ele>49.00335</ele>
        <time>2022-12-19T13:47:24.363Z</time>
      </trkpt>
      <trkpt lat="46.37828" lon="-1.11099">
        <ele>48.862401</ele>
        <time>2022-12-19T13:47:27.361Z</time>
      </trkpt>
      <trkpt lat="46.37821" lon="-1.11084">
        <ele>48.714875</ele>
        <time>2022-12-19T13:47:30.346Z</time>
      </trkpt>
      <trkpt lat="46.37815" lon="-1.11069">
        <ele>48.56785</ele>
        <time>2022-12-19T13:47:33.367Z</time>
      </trkpt>
      <trkpt lat="46.37808" lon="-1.11053">
        <ele>48.420825</ele>
        <time>2022-12-19T13:47:36.343Z</time>
      </trkpt>
      <trkpt lat="46.37802" lon="-1.11037">
        <ele>48.269813</ele>
        <time>2022-12-19T13:47:39.365Z</time>
      </trkpt>
      <trkpt lat="46.37796" lon="-1.11022">
        <ele>48.122618</ele>
        <time>2022-12-19T13:47:42.365Z</time>
      </trkpt>
      <trkpt lat="46.37789" lon="-1.11006">
        <ele>47.972239</ele>
        <time>2022-12-19T13:47:45.363Z</time>
      </trkpt>
      <trkpt lat="46.37783" lon="-1.10992">
        <ele>47.835957</ele>
        <time>2022-12-19T13:47:48.351Z</time>
      </trkpt>
      <trkpt lat="46.37778" lon="-1.10979">
        <ele>47.735898</ele>
        <time>2022-12-19T13:47:51.345Z</time>
      </trkpt>
      <trkpt lat="46.37771" lon="-1.10965">
        <ele>47.758621</ele>
        <time>2022-12-19T13:47:54.361Z</time>
      </trkpt>
      <trkpt lat="46.37765" lon="-1.1095">
        <ele>47.781801</ele>
        <time>2022-12-19T13:47:57.423Z</time>
      </trkpt>
      <trkpt lat="46.37759" lon="-1.10936">
        <ele>47.805076</ele>
        <time>2022-12-19T13:48:00.348Z</time>
      </trkpt>
      <trkpt lat="46.37753" lon="-1.10921">
        <ele>47.828619</ele>
        <time>2022-12-19T13:48:03.362Z</time>
      </trkpt>
      <trkpt lat="46.37746" lon="-1.10906">
        <ele>47.852467</ele>
        <time>2022-12-19T13:48:06.362Z</time>
      </trkpt>
      <trkpt lat="46.3774" lon="-1.1089">
        <ele>47.876692</ele>
        <time>2022-12-19T13:48:09.364Z</time>
      </trkpt>
      <trkpt lat="46.37733" lon="-1.10874">
        <ele>47.901872</ele>
        <time>2022-12-19T13:48:12.359Z</time>
      </trkpt>
      <trkpt lat="46.37727" lon="-1.10858">
        <ele>47.92659</ele>
        <time>2022-12-19T13:48:15.362Z</time>
      </trkpt>
      <trkpt lat="46.37722" lon="-1.10844">
        <ele>47.947851</ele>
        <time>2022-12-19T13:48:18.363Z</time>
      </trkpt>
      <trkpt lat="46.37718" lon="-1.10831">
        <ele>47.968167</ele>
        <time>2022-12-19T13:48:21.344Z</time>
      </trkpt>
      <trkpt lat="46.37713" lon="-1.10817">
        <ele>47.989256</ele>
        <time>2022-12-19T13:48:24.364Z</time>
      </trkpt>
      <trkpt lat="46.37709" lon="-1.10802">
        <ele>48.010678</ele>
        <time>2022-12-19T13:48:27.358Z</time>
      </trkpt>
      <trkpt lat="46.37705" lon="-1.10788">
        <ele>48.030948</ele>
        <time>2022-12-19T13:48:30.374Z</time>
      </trkpt>
      <trkpt lat="46.37702" lon="-1.10774">
        <ele>48.050378</ele>
        <time>2022-12-19T13:48:33.357Z</time>
      </trkpt>
      <trkpt lat="46.37699" lon="-1.1076">
        <ele>48.070638</ele>
        <time>2022-12-19T13:48:36.364Z</time>
      </trkpt>
      <trkpt lat="46.37696" lon="-1.10746">
        <ele>48.098697</ele>
        <time>2022-12-19T13:48:39.344Z</time>
      </trkpt>
      <trkpt lat="46.37693" lon="-1.1073">
        <ele>48.145255</ele>
        <time>2022-12-19T13:48:42.363Z</time>
      </trkpt>
      <trkpt lat="46.37691" lon="-1.10715">
        <ele>48.191272</ele>
        <time>2022-12-19T13:48:45.364Z</time>
      </trkpt>
      <trkpt lat="46.37688" lon="-1.107">
        <ele>48.235942</ele>
        <time>2022-12-19T13:48:48.364Z</time>
      </trkpt>
      <trkpt lat="46.37687" lon="-1.10686">
        <ele>48.277267</ele>
        <time>2022-12-19T13:48:51.358Z</time>
      </trkpt>
      <trkpt lat="46.37686" lon="-1.10672">
        <ele>48.317941</ele>
        <time>2022-12-19T13:48:54.365Z</time>
      </trkpt>
      <trkpt lat="46.37684" lon="-1.10657">
        <ele>48.361024</ele>
        <time>2022-12-19T13:48:57.361Z</time>
      </trkpt>
      <trkpt lat="46.37683" lon="-1.10642">
        <ele>48.405664</ele>
        <time>2022-12-19T13:49:00.356Z</time>
      </trkpt>
      <trkpt lat="46.37683" lon="-1.10626">
        <ele>48.450465</ele>
        <time>2022-12-19T13:49:03.364Z</time>
      </trkpt>
      <trkpt lat="46.37682" lon="-1.10612">
        <ele>48.491561</ele>
        <time>2022-12-19T13:49:06.364Z</time>
      </trkpt>
      <trkpt lat="46.37682" lon="-1.10598">
        <ele>48.532554</ele>
        <time>2022-12-19T13:49:09.368Z</time>
      </trkpt>
      <trkpt lat="46.37682" lon="-1.10584">
        <ele>48.574725</ele>
        <time>2022-12-19T13:49:12.358Z</time>
      </trkpt>
      <trkpt lat="46.37682" lon="-1.10568">
        <ele>48.620384</ele>
        <time>2022-12-19T13:49:15.350Z</time>
      </trkpt>
      <trkpt lat="46.37682" lon="-1.10551">
        <ele>48.669821</ele>
        <time>2022-12-19T13:49:18.364Z</time>
      </trkpt>
      <trkpt lat="46.37682" lon="-1.10534">
        <ele>48.719532</ele>
        <time>2022-12-19T13:49:21.366Z</time>
      </trkpt>
      <trkpt lat="46.37682" lon="-1.10516">
        <ele>48.771585</ele>
        <time>2022-12-19T13:49:24.366Z</time>
      </trkpt>
      <trkpt lat="46.37682" lon="-1.10498">
        <ele>48.824521</ele>
        <time>2022-12-19T13:49:27.336Z</time>
      </trkpt>
      <trkpt lat="46.37682" lon="-1.10479">
        <ele>48.844088</ele>
        <time>2022-12-19T13:49:30.353Z</time>
      </trkpt>
      <trkpt lat="46.37681" lon="-1.1046">
        <ele>48.846692</ele>
        <time>2022-12-19T13:49:33.363Z</time>
      </trkpt>
      <trkpt lat="46.37681" lon="-1.10441">
        <ele>48.849229</ele>
        <time>2022-12-19T13:49:36.411Z</time>
      </trkpt>
      <trkpt lat="46.3768" lon="-1.10424">
        <ele>48.851494</ele>
        <time>2022-12-19T13:49:39.367Z</time>
      </trkpt>
      <trkpt lat="46.3768" lon="-1.10409">
        <ele>48.853539</ele>
        <time>2022-12-19T13:49:42.358Z</time>
      </trkpt>
      <trkpt lat="46.37679" lon="-1.10393">
        <ele>48.855681</ele>
        <time>2022-12-19T13:49:45.351Z</time>
      </trkpt>
      <trkpt lat="46.37678" lon="-1.10376">
        <ele>48.857998</ele>
        <time>2022-12-19T13:49:48.365Z</time>
      </trkpt>
      <trkpt lat="46.37677" lon="-1.10359">
        <ele>48.86039</ele>
        <time>2022-12-19T13:49:51.362Z</time>
      </trkpt>
      <trkpt lat="46.37677" lon="-1.10341">
        <ele>48.862843</ele>
        <time>2022-12-19T13:49:54.366Z</time>
      </trkpt>
      <trkpt lat="46.37676" lon="-1.10322">
        <ele>48.865403</ele>
        <time>2022-12-19T13:49:57.362Z</time>
      </trkpt>
      <trkpt lat="46.37676" lon="-1.10309">
        <ele>48.867178</ele>
        <time>2022-12-19T13:49:59.346Z</time>
      </trkpt>
      <trkpt lat="46.37675" lon="-1.10289">
        <ele>48.869787</ele>
        <time>2022-12-19T13:50:02.336Z</time>
      </trkpt>
      <trkpt lat="46.37674" lon="-1.1027">
        <ele>48.872349</ele>
        <time>2022-12-19T13:50:05.355Z</time>
      </trkpt>
      <trkpt lat="46.37673" lon="-1.10253">
        <ele>48.874683</ele>
        <time>2022-12-19T13:50:08.341Z</time>
      </trkpt>
      <trkpt lat="46.37672" lon="-1.10237">
        <ele>48.876935</ele>
        <time>2022-12-19T13:50:11.348Z</time>
      </trkpt>
      <trkpt lat="46.37671" lon="-1.10219">
        <ele>48.803894</ele>
        <time>2022-12-19T13:50:14.345Z</time>
      </trkpt>
      <trkpt lat="46.3767" lon="-1.102">
        <ele>48.694914</ele>
        <time>2022-12-19T13:50:17.363Z</time>
      </trkpt>
      <trkpt lat="46.37668" lon="-1.10182">
        <ele>48.588078</ele>
        <time>2022-12-19T13:50:20.418Z</time>
      </trkpt>
      <trkpt lat="46.37666" lon="-1.10163">
        <ele>48.480001</ele>
        <time>2022-12-19T13:50:23.362Z</time>
      </trkpt>
      <trkpt lat="46.37664" lon="-1.10145">
        <ele>48.370499</ele>
        <time>2022-12-19T13:50:26.409Z</time>
      </trkpt>
      <trkpt lat="46.37661" lon="-1.10126">
        <ele>48.259536</ele>
        <time>2022-12-19T13:50:29.349Z</time>
      </trkpt>
      <trkpt lat="46.37657" lon="-1.10108">
        <ele>48.150985</ele>
        <time>2022-12-19T13:50:32.422Z</time>
      </trkpt>
      <trkpt lat="46.37654" lon="-1.10091">
        <ele>48.048239</ele>
        <time>2022-12-19T13:50:35.338Z</time>
      </trkpt>
      <trkpt lat="46.37652" lon="-1.10074">
        <ele>47.947786</ele>
        <time>2022-12-19T13:50:38.363Z</time>
      </trkpt>
      <trkpt lat="46.37648" lon="-1.10057">
        <ele>47.848868</ele>
        <time>2022-12-19T13:50:41.361Z</time>
      </trkpt>
      <trkpt lat="46.37645" lon="-1.10042">
        <ele>47.753696</ele>
        <time>2022-12-19T13:50:44.361Z</time>
      </trkpt>
      <trkpt lat="46.37641" lon="-1.10026">
        <ele>47.659692</ele>
        <time>2022-12-19T13:50:47.357Z</time>
      </trkpt>
      <trkpt lat="46.37639" lon="-1.10011">
        <ele>47.571213</ele>
        <time>2022-12-19T13:50:50.361Z</time>
      </trkpt>
      <trkpt lat="46.37635" lon="-1.09997">
        <ele>47.483247</ele>
        <time>2022-12-19T13:50:53.364Z</time>
      </trkpt>
      <trkpt lat="46.37632" lon="-1.09982">
        <ele>47.393351</ele>
        <time>2022-12-19T13:50:56.348Z</time>
      </trkpt>
      <trkpt lat="46.37628" lon="-1.09968">
        <ele>47.375843</ele>
        <time>2022-12-19T13:50:59.366Z</time>
      </trkpt>
      <trkpt lat="46.37624" lon="-1.09953">
        <ele>47.382561</ele>
        <time>2022-12-19T13:51:02.357Z</time>
      </trkpt>
      <trkpt lat="46.3762" lon="-1.09938">
        <ele>47.389363</ele>
        <time>2022-12-19T13:51:05.362Z</time>
      </trkpt>
      <trkpt lat="46.37615" lon="-1.09924">
        <ele>47.395839</ele>
        <time>2022-12-19T13:51:08.359Z</time>
      </trkpt>
      <trkpt lat="46.37611" lon="-1.0991">
        <ele>47.402418</ele>
        <time>2022-12-19T13:51:11.365Z</time>
      </trkpt>
      <trkpt lat="46.37606" lon="-1.09896">
        <ele>47.408843</ele>
        <time>2022-12-19T13:51:14.364Z</time>
      </trkpt>
      <trkpt lat="46.37602" lon="-1.09882">
        <ele>47.415306</ele>
        <time>2022-12-19T13:51:17.363Z</time>
      </trkpt>
      <trkpt lat="46.37598" lon="-1.09868">
        <ele>47.421719</ele>
        <time>2022-12-19T13:51:20.364Z</time>
      </trkpt>
      <trkpt lat="46.37593" lon="-1.09854">
        <ele>47.428381</ele>
        <time>2022-12-19T13:51:23.362Z</time>
      </trkpt>
      <trkpt lat="46.37588" lon="-1.0984">
        <ele>47.435087</ele>
        <time>2022-12-19T13:51:26.360Z</time>
      </trkpt>
      <trkpt lat="46.37584" lon="-1.09826">
        <ele>47.441603</ele>
        <time>2022-12-19T13:51:29.365Z</time>
      </trkpt>
      <trkpt lat="46.3758" lon="-1.09813">
        <ele>47.447624</ele>
        <time>2022-12-19T13:51:32.362Z</time>
      </trkpt>
      <trkpt lat="46.37576" lon="-1.09799">
        <ele>47.453693</ele>
        <time>2022-12-19T13:51:35.349Z</time>
      </trkpt>
      <trkpt lat="46.37572" lon="-1.09786">
        <ele>47.45999</ele>
        <time>2022-12-19T13:51:38.365Z</time>
      </trkpt>
      <trkpt lat="46.37568" lon="-1.09772">
        <ele>47.466456</ele>
        <time>2022-12-19T13:51:41.345Z</time>
      </trkpt>
      <trkpt lat="46.37564" lon="-1.09759">
        <ele>47.472331</ele>
        <time>2022-12-19T13:51:44.346Z</time>
      </trkpt>
      <trkpt lat="46.3756" lon="-1.09747">
        <ele>47.477861</ele>
        <time>2022-12-19T13:51:47.361Z</time>
      </trkpt>
      <trkpt lat="46.37556" lon="-1.09734">
        <ele>47.511403</ele>
        <time>2022-12-19T13:51:50.355Z</time>
      </trkpt>
      <trkpt lat="46.37552" lon="-1.0972">
        <ele>47.580446</ele>
        <time>2022-12-19T13:51:53.427Z</time>
      </trkpt>
      <trkpt lat="46.37549" lon="-1.09706">
        <ele>47.651738</ele>
        <time>2022-12-19T13:51:56.365Z</time>
      </trkpt>
      <trkpt lat="46.37545" lon="-1.09692">
        <ele>47.721806</ele>
        <time>2022-12-19T13:51:59.375Z</time>
      </trkpt>
      <trkpt lat="46.37542" lon="-1.09678">
        <ele>47.789626</ele>
        <time>2022-12-19T13:52:02.353Z</time>
      </trkpt>
      <trkpt lat="46.37538" lon="-1.09663">
        <ele>47.861139</ele>
        <time>2022-12-19T13:52:05.363Z</time>
      </trkpt>
      <trkpt lat="46.37535" lon="-1.09648">
        <ele>47.934182</ele>
        <time>2022-12-19T13:52:08.352Z</time>
      </trkpt>
      <trkpt lat="46.37531" lon="-1.09633">
        <ele>48.00897</ele>
        <time>2022-12-19T13:52:11.359Z</time>
      </trkpt>
      <trkpt lat="46.37528" lon="-1.09616">
        <ele>48.087681</ele>
        <time>2022-12-19T13:52:14.362Z</time>
      </trkpt>
      <trkpt lat="46.37524" lon="-1.096">
        <ele>48.168567</ele>
        <time>2022-12-19T13:52:17.366Z</time>
      </trkpt>
      <trkpt lat="46.3752" lon="-1.09583">
        <ele>48.250542</ele>
        <time>2022-12-19T13:52:20.409Z</time>
      </trkpt>
      <trkpt lat="46.37516" lon="-1.09568">
        <ele>48.324285</ele>
        <time>2022-12-19T13:52:23.344Z</time>
      </trkpt>
      <trkpt lat="46.37514" lon="-1.09552">
        <ele>48.398759</ele>
        <time>2022-12-19T13:52:26.373Z</time>
      </trkpt>
      <trkpt lat="46.37511" lon="-1.09535">
        <ele>48.47654</ele>
        <time>2022-12-19T13:52:29.364Z</time>
      </trkpt>
      <trkpt lat="46.3751" lon="-1.09518">
        <ele>48.557239</ele>
        <time>2022-12-19T13:52:32.422Z</time>
      </trkpt>
      <trkpt lat="46.37509" lon="-1.095">
        <ele>48.641509</ele>
        <time>2022-12-19T13:52:35.366Z</time>
      </trkpt>
      <trkpt lat="46.37509" lon="-1.09481">
        <ele>48.680594</ele>
        <time>2022-12-19T13:52:38.417Z</time>
      </trkpt>
      <trkpt lat="46.37508" lon="-1.09462">
        <ele>48.67453</ele>
        <time>2022-12-19T13:52:41.366Z</time>
      </trkpt>
      <trkpt lat="46.37509" lon="-1.09444">
        <ele>48.669026</ele>
        <time>2022-12-19T13:52:44.416Z</time>
      </trkpt>
      <trkpt lat="46.3751" lon="-1.09427">
        <ele>48.66374</ele>
        <time>2022-12-19T13:52:47.384Z</time>
      </trkpt>
      <trkpt lat="46.37511" lon="-1.09412">
        <ele>48.658783</ele>
        <time>2022-12-19T13:52:50.409Z</time>
      </trkpt>
      <trkpt lat="46.37514" lon="-1.09396">
        <ele>48.653946</ele>
        <time>2022-12-19T13:52:53.363Z</time>
      </trkpt>
      <trkpt lat="46.37516" lon="-1.0938">
        <ele>48.648707</ele>
        <time>2022-12-19T13:52:56.418Z</time>
      </trkpt>
      <trkpt lat="46.37517" lon="-1.09362">
        <ele>48.643269</ele>
        <time>2022-12-19T13:52:59.363Z</time>
      </trkpt>
      <trkpt lat="46.37519" lon="-1.09345">
        <ele>48.637798</ele>
        <time>2022-12-19T13:53:02.420Z</time>
      </trkpt>
      <trkpt lat="46.3752" lon="-1.09327">
        <ele>48.632238</ele>
        <time>2022-12-19T13:53:05.353Z</time>
      </trkpt>
      <trkpt lat="46.3752" lon="-1.0931">
        <ele>48.626766</ele>
        <time>2022-12-19T13:53:08.424Z</time>
      </trkpt>
      <trkpt lat="46.37519" lon="-1.09293">
        <ele>48.621611</ele>
        <time>2022-12-19T13:53:11.363Z</time>
      </trkpt>
      <trkpt lat="46.37517" lon="-1.09279">
        <ele>48.617061</ele>
        <time>2022-12-19T13:53:14.439Z</time>
      </trkpt>
      <trkpt lat="46.37514" lon="-1.09266">
        <ele>48.61301</ele>
        <time>2022-12-19T13:53:17.363Z</time>
      </trkpt>
      <trkpt lat="46.37511" lon="-1.09253">
        <ele>48.608656</ele>
        <time>2022-12-19T13:53:20.432Z</time>
      </trkpt>
      <trkpt lat="46.37504" lon="-1.09242">
        <ele>48.604034</ele>
        <time>2022-12-19T13:53:23.356Z</time>
      </trkpt>
      <trkpt lat="46.37496" lon="-1.09232">
        <ele>48.569511</ele>
        <time>2022-12-19T13:53:26.366Z</time>
      </trkpt>
      <trkpt lat="46.37493" lon="-1.09219">
        <ele>48.521918</ele>
        <time>2022-12-19T13:53:29.355Z</time>
      </trkpt>
      <trkpt lat="46.37493" lon="-1.09206">
        <ele>48.477051</ele>
        <time>2022-12-19T13:53:32.346Z</time>
      </trkpt>
      <trkpt lat="46.37497" lon="-1.09194">
        <ele>48.430481</ele>
        <time>2022-12-19T13:53:35.357Z</time>
      </trkpt>
      <trkpt lat="46.37503" lon="-1.09183">
        <ele>48.383663</ele>
        <time>2022-12-19T13:53:38.363Z</time>
      </trkpt>
      <trkpt lat="46.37507" lon="-1.09172">
        <ele>48.338729</ele>
        <time>2022-12-19T13:53:41.363Z</time>
      </trkpt>
      <trkpt lat="46.37511" lon="-1.09159">
        <ele>48.292746</ele>
        <time>2022-12-19T13:53:44.360Z</time>
      </trkpt>
      <trkpt lat="46.37512" lon="-1.09146">
        <ele>48.246328</ele>
        <time>2022-12-19T13:53:47.350Z</time>
      </trkpt>
      <trkpt lat="46.37515" lon="-1.09133">
        <ele>48.200366</ele>
        <time>2022-12-19T13:53:50.356Z</time>
      </trkpt>
      <trkpt lat="46.37515" lon="-1.09117">
        <ele>48.147134</ele>
        <time>2022-12-19T13:53:54.359Z</time>
      </trkpt>
      <trkpt lat="46.37517" lon="-1.09103">
        <ele>48.097688</ele>
        <time>2022-12-19T13:53:59.417Z</time>
      </trkpt>
      <trkpt lat="46.37515" lon="-1.09087">
        <ele>48.040944</ele>
        <time>2022-12-19T13:54:04.364Z</time>
      </trkpt>
      <trkpt lat="46.3751" lon="-1.09071">
        <ele>47.983093</ele>
        <time>2022-12-19T13:54:08.360Z</time>
      </trkpt>
      <trkpt lat="46.37507" lon="-1.09059">
        <ele>47.937077</ele>
        <time>2022-12-19T13:54:11.358Z</time>
      </trkpt>
      <trkpt lat="46.37501" lon="-1.09044">
        <ele>47.881247</ele>
        <time>2022-12-19T13:54:15.377Z</time>
      </trkpt>
      <trkpt lat="46.37494" lon="-1.09036">
        <ele>47.835917</ele>
        <time>2022-12-19T13:54:19.365Z</time>
      </trkpt>
      <trkpt lat="46.37485" lon="-1.09031">
        <ele>47.785863</ele>
        <time>2022-12-19T13:54:24.363Z</time>
      </trkpt>
      <trkpt lat="46.37484" lon="-1.09017">
        <ele>47.738093</ele>
        <time>2022-12-19T13:54:29.364Z</time>
      </trkpt>
      <trkpt lat="46.37487" lon="-1.09006">
        <ele>47.719612</ele>
        <time>2022-12-19T13:54:58.492Z</time>
      </trkpt>
      <trkpt lat="46.37487" lon="-1.09012">
        <ele>47.734916</ele>
        <time>2022-12-19T14:25:26.728Z</time>
      </trkpt>
      <trkpt lat="46.37487" lon="-1.09025">
        <ele>47.768212</ele>
        <time>2022-12-19T14:26:27.341Z</time>
      </trkpt>
      <trkpt lat="46.37503" lon="-1.09036">
        <ele>47.832287</ele>
        <time>2022-12-19T14:26:55.358Z</time>
      </trkpt>
      <trkpt lat="46.37507" lon="-1.09048">
        <ele>47.864396</ele>
        <time>2022-12-19T14:26:58.354Z</time>
      </trkpt>
      <trkpt lat="46.3751" lon="-1.0906">
        <ele>47.897503</ele>
        <time>2022-12-19T14:27:01.346Z</time>
      </trkpt>
      <trkpt lat="46.37512" lon="-1.09074">
        <ele>47.931476</ele>
        <time>2022-12-19T14:27:04.357Z</time>
      </trkpt>
      <trkpt lat="46.37515" lon="-1.09087">
        <ele>47.965634</ele>
        <time>2022-12-19T14:27:07.363Z</time>
      </trkpt>
      <trkpt lat="46.37517" lon="-1.09101">
        <ele>47.999594</ele>
        <time>2022-12-19T14:27:10.346Z</time>
      </trkpt>
      <trkpt lat="46.37518" lon="-1.09115">
        <ele>48.035801</ele>
        <time>2022-12-19T14:27:13.345Z</time>
      </trkpt>
      <trkpt lat="46.37519" lon="-1.09131">
        <ele>48.074401</ele>
        <time>2022-12-19T14:27:16.364Z</time>
      </trkpt>
      <trkpt lat="46.3752" lon="-1.09145">
        <ele>48.110429</ele>
        <time>2022-12-19T14:27:19.342Z</time>
      </trkpt>
      <trkpt lat="46.3752" lon="-1.09159">
        <ele>48.145472</ele>
        <time>2022-12-19T14:27:22.368Z</time>
      </trkpt>
      <trkpt lat="46.37522" lon="-1.09174">
        <ele>48.18152</ele>
        <time>2022-12-19T14:27:26.366Z</time>
      </trkpt>
      <trkpt lat="46.37528" lon="-1.09185">
        <ele>48.217268</ele>
        <time>2022-12-19T14:27:31.343Z</time>
      </trkpt>
      <trkpt lat="46.37535" lon="-1.09198">
        <ele>48.257464</ele>
        <time>2022-12-19T14:27:35.364Z</time>
      </trkpt>
      <trkpt lat="46.37538" lon="-1.09212">
        <ele>48.292645</ele>
        <time>2022-12-19T14:27:38.352Z</time>
      </trkpt>
      <trkpt lat="46.37534" lon="-1.09226">
        <ele>48.328562</ele>
        <time>2022-12-19T14:27:41.350Z</time>
      </trkpt>
      <trkpt lat="46.37528" lon="-1.09238">
        <ele>48.343906</ele>
        <time>2022-12-19T14:27:44.344Z</time>
      </trkpt>
      <trkpt lat="46.37519" lon="-1.09245">
        <ele>48.319065</ele>
        <time>2022-12-19T14:27:47.353Z</time>
      </trkpt>
      <trkpt lat="46.37509" lon="-1.09245">
        <ele>48.296683</ele>
        <time>2022-12-19T14:27:50.355Z</time>
      </trkpt>
      <trkpt lat="46.375" lon="-1.09238">
        <ele>48.270738</ele>
        <time>2022-12-19T14:27:54.370Z</time>
      </trkpt>
      <trkpt lat="46.3749" lon="-1.09228">
        <ele>48.242207</ele>
        <time>2022-12-19T14:27:58.361Z</time>
      </trkpt>
      <trkpt lat="46.37481" lon="-1.09221">
        <ele>48.21789</ele>
        <time>2022-12-19T14:28:01.363Z</time>
      </trkpt>
      <trkpt lat="46.37471" lon="-1.09218">
        <ele>48.192473</ele>
        <time>2022-12-19T14:28:04.353Z</time>
      </trkpt>
      <trkpt lat="46.3746" lon="-1.09216">
        <ele>48.167556</ele>
        <time>2022-12-19T14:28:07.362Z</time>
      </trkpt>
      <trkpt lat="46.3745" lon="-1.09214">
        <ele>48.142458</ele>
        <time>2022-12-19T14:28:10.345Z</time>
      </trkpt>
      <trkpt lat="46.3744" lon="-1.09211">
        <ele>48.117883</ele>
        <time>2022-12-19T14:28:13.346Z</time>
      </trkpt>
      <trkpt lat="46.37429" lon="-1.09209">
        <ele>48.092201</ele>
        <time>2022-12-19T14:28:16.362Z</time>
      </trkpt>
      <trkpt lat="46.37419" lon="-1.09206">
        <ele>48.067221</ele>
        <time>2022-12-19T14:28:19.370Z</time>
      </trkpt>
      <trkpt lat="46.37409" lon="-1.09203">
        <ele>48.04334</ele>
        <time>2022-12-19T14:28:22.361Z</time>
      </trkpt>
      <trkpt lat="46.374" lon="-1.09199">
        <ele>48.02061</ele>
        <time>2022-12-19T14:28:25.363Z</time>
      </trkpt>
      <trkpt lat="46.37391" lon="-1.09194">
        <ele>47.997997</ele>
        <time>2022-12-19T14:28:28.365Z</time>
      </trkpt>
      <trkpt lat="46.37382" lon="-1.0919">
        <ele>47.975764</ele>
        <time>2022-12-19T14:28:31.370Z</time>
      </trkpt>
      <trkpt lat="46.37373" lon="-1.09184">
        <ele>47.95203</ele>
        <time>2022-12-19T14:28:34.347Z</time>
      </trkpt>
      <trkpt lat="46.37363" lon="-1.09179">
        <ele>47.928239</ele>
        <time>2022-12-19T14:28:37.364Z</time>
      </trkpt>
      <trkpt lat="46.37354" lon="-1.09172">
        <ele>47.881937</ele>
        <time>2022-12-19T14:28:40.375Z</time>
      </trkpt>
      <trkpt lat="46.37345" lon="-1.09164">
        <ele>47.829993</ele>
        <time>2022-12-19T14:28:43.353Z</time>
      </trkpt>
      <trkpt lat="46.37336" lon="-1.09156">
        <ele>47.778648</ele>
        <time>2022-12-19T14:28:46.368Z</time>
      </trkpt>
      <trkpt lat="46.37328" lon="-1.09148">
        <ele>47.726873</ele>
        <time>2022-12-19T14:28:49.374Z</time>
      </trkpt>
      <trkpt lat="46.37319" lon="-1.09139">
        <ele>47.675304</ele>
        <time>2022-12-19T14:28:52.360Z</time>
      </trkpt>
      <trkpt lat="46.37311" lon="-1.0913">
        <ele>47.622938</ele>
        <time>2022-12-19T14:28:55.374Z</time>
      </trkpt>
      <trkpt lat="46.37302" lon="-1.09121">
        <ele>47.570758</ele>
        <time>2022-12-19T14:28:58.363Z</time>
      </trkpt>
      <trkpt lat="46.37293" lon="-1.09112">
        <ele>47.517192</ele>
        <time>2022-12-19T14:29:01.363Z</time>
      </trkpt>
      <trkpt lat="46.37284" lon="-1.09102">
        <ele>47.461827</ele>
        <time>2022-12-19T14:29:04.361Z</time>
      </trkpt>
      <trkpt lat="46.37275" lon="-1.09093">
        <ele>47.408657</ele>
        <time>2022-12-19T14:29:07.375Z</time>
      </trkpt>
      <trkpt lat="46.37267" lon="-1.09084">
        <ele>47.355889</ele>
        <time>2022-12-19T14:29:10.364Z</time>
      </trkpt>
      <trkpt lat="46.37258" lon="-1.09074">
        <ele>47.301908</ele>
        <time>2022-12-19T14:29:13.348Z</time>
      </trkpt>
      <trkpt lat="46.37249" lon="-1.09065">
        <ele>47.247543</ele>
        <time>2022-12-19T14:29:16.376Z</time>
      </trkpt>
      <trkpt lat="46.3724" lon="-1.09056">
        <ele>47.194163</ele>
        <time>2022-12-19T14:29:19.364Z</time>
      </trkpt>
      <trkpt lat="46.37232" lon="-1.09047">
        <ele>47.140987</ele>
        <time>2022-12-19T14:29:22.361Z</time>
      </trkpt>
      <trkpt lat="46.37223" lon="-1.09038">
        <ele>47.08782</ele>
        <time>2022-12-19T14:29:25.363Z</time>
      </trkpt>
      <trkpt lat="46.37214" lon="-1.09028">
        <ele>47.038337</ele>
        <time>2022-12-19T14:29:28.345Z</time>
      </trkpt>
      <trkpt lat="46.37206" lon="-1.09019">
        <ele>47.094625</ele>
        <time>2022-12-19T14:29:31.362Z</time>
      </trkpt>
      <trkpt lat="46.37197" lon="-1.0901">
        <ele>47.150911</ele>
        <time>2022-12-19T14:29:34.361Z</time>
      </trkpt>
      <trkpt lat="46.37189" lon="-1.09002">
        <ele>47.206113</ele>
        <time>2022-12-19T14:29:37.352Z</time>
      </trkpt>
      <trkpt lat="46.37181" lon="-1.08993">
        <ele>47.261994</ele>
        <time>2022-12-19T14:29:40.346Z</time>
      </trkpt>
      <trkpt lat="46.37172" lon="-1.08985">
        <ele>47.319185</ele>
        <time>2022-12-19T14:29:43.363Z</time>
      </trkpt>
      <trkpt lat="46.37162" lon="-1.08977">
        <ele>47.377366</ele>
        <time>2022-12-19T14:29:46.363Z</time>
      </trkpt>
      <trkpt lat="46.37153" lon="-1.0897">
        <ele>47.435441</ele>
        <time>2022-12-19T14:29:49.374Z</time>
      </trkpt>
      <trkpt lat="46.37143" lon="-1.08964">
        <ele>47.49227</ele>
        <time>2022-12-19T14:29:52.353Z</time>
      </trkpt>
      <trkpt lat="46.37133" lon="-1.08959">
        <ele>47.54813</ele>
        <time>2022-12-19T14:29:55.360Z</time>
      </trkpt>
      <trkpt lat="46.37124" lon="-1.08954">
        <ele>47.603224</ele>
        <time>2022-12-19T14:29:58.368Z</time>
      </trkpt>
      <trkpt lat="46.37114" lon="-1.0895">
        <ele>47.659123</ele>
        <time>2022-12-19T14:30:01.346Z</time>
      </trkpt>
      <trkpt lat="46.37103" lon="-1.08946">
        <ele>47.716826</ele>
        <time>2022-12-19T14:30:04.368Z</time>
      </trkpt>
      <trkpt lat="46.37093" lon="-1.08943">
        <ele>47.773511</ele>
        <time>2022-12-19T14:30:07.364Z</time>
      </trkpt>
      <trkpt lat="46.37082" lon="-1.0894">
        <ele>47.832696</ele>
        <time>2022-12-19T14:30:10.371Z</time>
      </trkpt>
      <trkpt lat="46.37071" lon="-1.08937">
        <ele>47.891688</ele>
        <time>2022-12-19T14:30:13.373Z</time>
      </trkpt>
      <trkpt lat="46.37061" lon="-1.08935">
        <ele>47.951152</ele>
        <time>2022-12-19T14:30:16.363Z</time>
      </trkpt>
      <trkpt lat="46.37049" lon="-1.08933">
        <ele>48.011947</ele>
        <time>2022-12-19T14:30:19.363Z</time>
      </trkpt>
      <trkpt lat="46.37038" lon="-1.0893">
        <ele>48.06859</ele>
        <time>2022-12-19T14:30:22.359Z</time>
      </trkpt>
      <trkpt lat="46.37027" lon="-1.08927">
        <ele>48.121447</ele>
        <time>2022-12-19T14:30:25.363Z</time>
      </trkpt>
      <trkpt lat="46.37016" lon="-1.08925">
        <ele>48.173995</ele>
        <time>2022-12-19T14:30:28.347Z</time>
      </trkpt>
      <trkpt lat="46.37005" lon="-1.08923">
        <ele>48.229964</ele>
        <time>2022-12-19T14:30:31.361Z</time>
      </trkpt>
      <trkpt lat="46.36993" lon="-1.0892">
        <ele>48.287909</ele>
        <time>2022-12-19T14:30:34.353Z</time>
      </trkpt>
      <trkpt lat="46.36982" lon="-1.08917">
        <ele>48.34514</ele>
        <time>2022-12-19T14:30:37.366Z</time>
      </trkpt>
      <trkpt lat="46.3697" lon="-1.08915">
        <ele>48.4001</ele>
        <time>2022-12-19T14:30:40.364Z</time>
      </trkpt>
      <trkpt lat="46.36959" lon="-1.08912">
        <ele>48.455891</ele>
        <time>2022-12-19T14:30:43.368Z</time>
      </trkpt>
      <trkpt lat="46.36948" lon="-1.0891">
        <ele>48.511953</ele>
        <time>2022-12-19T14:30:46.362Z</time>
      </trkpt>
      <trkpt lat="46.36936" lon="-1.08907">
        <ele>48.568015</ele>
        <time>2022-12-19T14:30:49.361Z</time>
      </trkpt>
      <trkpt lat="46.36925" lon="-1.08906">
        <ele>48.622786</ele>
        <time>2022-12-19T14:30:52.351Z</time>
      </trkpt>
      <trkpt lat="46.36914" lon="-1.08903">
        <ele>48.678097</ele>
        <time>2022-12-19T14:30:55.373Z</time>
      </trkpt>
      <trkpt lat="46.36903" lon="-1.089">
        <ele>48.732285</ele>
        <time>2022-12-19T14:30:58.361Z</time>
      </trkpt>
      <trkpt lat="46.36892" lon="-1.08898">
        <ele>48.785798</ele>
        <time>2022-12-19T14:31:01.366Z</time>
      </trkpt>
      <trkpt lat="46.36881" lon="-1.08896">
        <ele>48.839793</ele>
        <time>2022-12-19T14:31:04.360Z</time>
      </trkpt>
      <trkpt lat="46.3687" lon="-1.08895">
        <ele>48.873125</ele>
        <time>2022-12-19T14:31:07.370Z</time>
      </trkpt>
      <trkpt lat="46.36859" lon="-1.08892">
        <ele>48.842946</ele>
        <time>2022-12-19T14:31:10.362Z</time>
      </trkpt>
      <trkpt lat="46.36848" lon="-1.08889">
        <ele>48.811764</ele>
        <time>2022-12-19T14:31:13.373Z</time>
      </trkpt>
      <trkpt lat="46.36836" lon="-1.08887">
        <ele>48.779569</ele>
        <time>2022-12-19T14:31:16.363Z</time>
      </trkpt>
      <trkpt lat="46.36825" lon="-1.08885">
        <ele>48.74771</ele>
        <time>2022-12-19T14:31:19.368Z</time>
      </trkpt>
      <trkpt lat="46.36813" lon="-1.08882">
        <ele>48.71591</ele>
        <time>2022-12-19T14:31:22.348Z</time>
      </trkpt>
      <trkpt lat="46.36801" lon="-1.0888">
        <ele>48.683054</ele>
        <time>2022-12-19T14:31:25.358Z</time>
      </trkpt>
      <trkpt lat="46.36789" lon="-1.08877">
        <ele>48.649062</ele>
        <time>2022-12-19T14:31:28.364Z</time>
      </trkpt>
      <trkpt lat="46.36777" lon="-1.08874">
        <ele>48.61534</ele>
        <time>2022-12-19T14:31:31.364Z</time>
      </trkpt>
      <trkpt lat="46.36766" lon="-1.08873">
        <ele>48.585398</ele>
        <time>2022-12-19T14:31:34.369Z</time>
      </trkpt>
      <trkpt lat="46.36755" lon="-1.0887">
        <ele>48.555999</ele>
        <time>2022-12-19T14:31:37.367Z</time>
      </trkpt>
      <trkpt lat="46.36744" lon="-1.08868">
        <ele>48.525929</ele>
        <time>2022-12-19T14:31:40.362Z</time>
      </trkpt>
      <trkpt lat="46.36733" lon="-1.08866">
        <ele>48.495906</ele>
        <time>2022-12-19T14:31:43.362Z</time>
      </trkpt>
      <trkpt lat="46.36723" lon="-1.08864">
        <ele>48.465967</ele>
        <time>2022-12-19T14:31:46.351Z</time>
      </trkpt>
      <trkpt lat="46.36712" lon="-1.08862">
        <ele>48.436464</ele>
        <time>2022-12-19T14:31:49.349Z</time>
      </trkpt>
      <trkpt lat="46.36701" lon="-1.08859">
        <ele>48.407154</ele>
        <time>2022-12-19T14:31:52.347Z</time>
      </trkpt>
      <trkpt lat="46.36691" lon="-1.08857">
        <ele>48.390971</ele>
        <time>2022-12-19T14:31:55.364Z</time>
      </trkpt>
      <trkpt lat="46.36681" lon="-1.08855">
        <ele>48.396754</ele>
        <time>2022-12-19T14:31:58.364Z</time>
      </trkpt>
      <trkpt lat="46.3667" lon="-1.08853">
        <ele>48.402346</ele>
        <time>2022-12-19T14:32:01.368Z</time>
      </trkpt>
      <trkpt lat="46.3666" lon="-1.08851">
        <ele>48.408222</ele>
        <time>2022-12-19T14:32:04.364Z</time>
      </trkpt>
      <trkpt lat="46.36648" lon="-1.08849">
        <ele>48.414373</ele>
        <time>2022-12-19T14:32:07.371Z</time>
      </trkpt>
      <trkpt lat="46.36637" lon="-1.08846">
        <ele>48.420491</ele>
        <time>2022-12-19T14:32:10.365Z</time>
      </trkpt>
      <trkpt lat="46.36626" lon="-1.08844">
        <ele>48.42648</ele>
        <time>2022-12-19T14:32:13.366Z</time>
      </trkpt>
      <trkpt lat="46.36616" lon="-1.08842">
        <ele>48.432302</ele>
        <time>2022-12-19T14:32:16.370Z</time>
      </trkpt>
      <trkpt lat="46.36605" lon="-1.08841">
        <ele>48.438052</ele>
        <time>2022-12-19T14:32:19.364Z</time>
      </trkpt>
      <trkpt lat="46.36594" lon="-1.08838">
        <ele>48.4441</ele>
        <time>2022-12-19T14:32:22.372Z</time>
      </trkpt>
      <trkpt lat="46.36583" lon="-1.08836">
        <ele>48.450457</ele>
        <time>2022-12-19T14:32:25.375Z</time>
      </trkpt>
      <trkpt lat="46.36571" lon="-1.08834">
        <ele>48.456928</ele>
        <time>2022-12-19T14:32:28.359Z</time>
      </trkpt>
      <trkpt lat="46.36559" lon="-1.08831">
        <ele>48.463403</ele>
        <time>2022-12-19T14:32:31.365Z</time>
      </trkpt>
      <trkpt lat="46.36548" lon="-1.08829">
        <ele>48.469688</ele>
        <time>2022-12-19T14:32:34.363Z</time>
      </trkpt>
      <trkpt lat="46.36537" lon="-1.08827">
        <ele>48.475834</ele>
        <time>2022-12-19T14:32:37.357Z</time>
      </trkpt>
      <trkpt lat="46.36525" lon="-1.08825">
        <ele>48.481975</ele>
        <time>2022-12-19T14:32:40.375Z</time>
      </trkpt>
      <trkpt lat="46.36514" lon="-1.08823">
        <ele>48.477767</ele>
        <time>2022-12-19T14:32:43.375Z</time>
      </trkpt>
      <trkpt lat="46.36503" lon="-1.0882">
        <ele>48.426181</ele>
        <time>2022-12-19T14:32:46.362Z</time>
      </trkpt>
      <trkpt lat="46.36492" lon="-1.08818">
        <ele>48.374639</ele>
        <time>2022-12-19T14:32:49.370Z</time>
      </trkpt>
      <trkpt lat="46.3648" lon="-1.08816">
        <ele>48.32229</ele>
        <time>2022-12-19T14:32:52.373Z</time>
      </trkpt>
      <trkpt lat="46.36469" lon="-1.08814">
        <ele>48.271756</ele>
        <time>2022-12-19T14:32:55.365Z</time>
      </trkpt>
      <trkpt lat="46.36458" lon="-1.08811">
        <ele>48.22101</ele>
        <time>2022-12-19T14:32:58.358Z</time>
      </trkpt>
      <trkpt lat="46.36446" lon="-1.08809">
        <ele>48.169954</ele>
        <time>2022-12-19T14:33:01.365Z</time>
      </trkpt>
      <trkpt lat="46.36435" lon="-1.08807">
        <ele>48.116752</ele>
        <time>2022-12-19T14:33:04.359Z</time>
      </trkpt>
      <trkpt lat="46.36423" lon="-1.08805">
        <ele>48.064323</ele>
        <time>2022-12-19T14:33:07.350Z</time>
      </trkpt>
      <trkpt lat="46.36411" lon="-1.08803">
        <ele>48.012558</ele>
        <time>2022-12-19T14:33:10.369Z</time>
      </trkpt>
      <trkpt lat="46.364" lon="-1.08801">
        <ele>47.962541</ele>
        <time>2022-12-19T14:33:13.361Z</time>
      </trkpt>
      <trkpt lat="46.3639" lon="-1.08799">
        <ele>47.914101</ele>
        <time>2022-12-19T14:33:16.361Z</time>
      </trkpt>
      <trkpt lat="46.36379" lon="-1.08797">
        <ele>47.864333</ele>
        <time>2022-12-19T14:33:19.368Z</time>
      </trkpt>
      <trkpt lat="46.36367" lon="-1.08794">
        <ele>47.813633</ele>
        <time>2022-12-19T14:33:22.367Z</time>
      </trkpt>
      <trkpt lat="46.36356" lon="-1.08792">
        <ele>47.761688</ele>
        <time>2022-12-19T14:33:25.375Z</time>
      </trkpt>
      <trkpt lat="46.36344" lon="-1.0879">
        <ele>47.709857</ele>
        <time>2022-12-19T14:33:28.376Z</time>
      </trkpt>
      <trkpt lat="46.36333" lon="-1.08788">
        <ele>47.677803</ele>
        <time>2022-12-19T14:33:31.373Z</time>
      </trkpt>
      <trkpt lat="46.36322" lon="-1.08785">
        <ele>47.669665</ele>
        <time>2022-12-19T14:33:34.345Z</time>
      </trkpt>
      <trkpt lat="46.3631" lon="-1.08784">
        <ele>47.661546</ele>
        <time>2022-12-19T14:33:37.375Z</time>
      </trkpt>
      <trkpt lat="46.36299" lon="-1.08781">
        <ele>47.653191</ele>
        <time>2022-12-19T14:33:40.360Z</time>
      </trkpt>
      <trkpt lat="46.36287" lon="-1.08779">
        <ele>47.644767</ele>
        <time>2022-12-19T14:33:43.368Z</time>
      </trkpt>
      <trkpt lat="46.36275" lon="-1.08777">
        <ele>47.636425</ele>
        <time>2022-12-19T14:33:46.359Z</time>
      </trkpt>
      <trkpt lat="46.36263" lon="-1.08774">
        <ele>47.628049</ele>
        <time>2022-12-19T14:33:49.364Z</time>
      </trkpt>
      <trkpt lat="46.36251" lon="-1.08772">
        <ele>47.619555</ele>
        <time>2022-12-19T14:33:52.373Z</time>
      </trkpt>
      <trkpt lat="46.3624" lon="-1.0877">
        <ele>47.611193</ele>
        <time>2022-12-19T14:33:55.366Z</time>
      </trkpt>
      <trkpt lat="46.36228" lon="-1.08767">
        <ele>47.603012</ele>
        <time>2022-12-19T14:33:58.364Z</time>
      </trkpt>
      <trkpt lat="46.36217" lon="-1.08764">
        <ele>47.594798</ele>
        <time>2022-12-19T14:34:01.367Z</time>
      </trkpt>
      <trkpt lat="46.36206" lon="-1.08763">
        <ele>47.586839</ele>
        <time>2022-12-19T14:34:04.371Z</time>
      </trkpt>
      <trkpt lat="46.36194" lon="-1.08761">
        <ele>47.578828</ele>
        <time>2022-12-19T14:34:07.365Z</time>
      </trkpt>
      <trkpt lat="46.36184" lon="-1.08759">
        <ele>47.571405</ele>
        <time>2022-12-19T14:34:10.351Z</time>
      </trkpt>
      <trkpt lat="46.36174" lon="-1.08757">
        <ele>47.564064</ele>
        <time>2022-12-19T14:34:13.364Z</time>
      </trkpt>
      <trkpt lat="46.36163" lon="-1.08755">
        <ele>47.556634</ele>
        <time>2022-12-19T14:34:16.376Z</time>
      </trkpt>
      <trkpt lat="46.36153" lon="-1.08753">
        <ele>47.586694</ele>
        <time>2022-12-19T14:34:19.365Z</time>
      </trkpt>
      <trkpt lat="46.36143" lon="-1.0875">
        <ele>47.636155</ele>
        <time>2022-12-19T14:34:22.363Z</time>
      </trkpt>
      <trkpt lat="46.36132" lon="-1.08748">
        <ele>47.685187</ele>
        <time>2022-12-19T14:34:25.373Z</time>
      </trkpt>
      <trkpt lat="46.36122" lon="-1.08746">
        <ele>47.735693</ele>
        <time>2022-12-19T14:34:28.366Z</time>
      </trkpt>
      <trkpt lat="46.36111" lon="-1.08744">
        <ele>47.785312</ele>
        <time>2022-12-19T14:34:31.365Z</time>
      </trkpt>
      <trkpt lat="46.36101" lon="-1.08742">
        <ele>47.834469</ele>
        <time>2022-12-19T14:34:34.367Z</time>
      </trkpt>
      <trkpt lat="46.3609" lon="-1.0874">
        <ele>47.886452</ele>
        <time>2022-12-19T14:34:37.376Z</time>
      </trkpt>
      <trkpt lat="46.36079" lon="-1.08738">
        <ele>47.936452</ele>
        <time>2022-12-19T14:34:40.363Z</time>
      </trkpt>
      <trkpt lat="46.36069" lon="-1.08737">
        <ele>47.983981</ele>
        <time>2022-12-19T14:34:43.373Z</time>
      </trkpt>
      <trkpt lat="46.36059" lon="-1.08734">
        <ele>48.032818</ele>
        <time>2022-12-19T14:34:46.351Z</time>
      </trkpt>
      <trkpt lat="46.36049" lon="-1.08732">
        <ele>48.079991</ele>
        <time>2022-12-19T14:34:49.365Z</time>
      </trkpt>
      <trkpt lat="46.36038" lon="-1.0873">
        <ele>48.129104</ele>
        <time>2022-12-19T14:34:52.367Z</time>
      </trkpt>
      <trkpt lat="46.36028" lon="-1.08729">
        <ele>48.179531</ele>
        <time>2022-12-19T14:34:55.356Z</time>
      </trkpt>
      <trkpt lat="46.36017" lon="-1.08726">
        <ele>48.228882</ele>
        <time>2022-12-19T14:34:58.372Z</time>
      </trkpt>
      <trkpt lat="46.36007" lon="-1.08724">
        <ele>48.276603</ele>
        <time>2022-12-19T14:35:01.364Z</time>
      </trkpt>
      <trkpt lat="46.35997" lon="-1.08723">
        <ele>48.325529</ele>
        <time>2022-12-19T14:35:04.375Z</time>
      </trkpt>
      <trkpt lat="46.35986" lon="-1.0872">
        <ele>48.376585</ele>
        <time>2022-12-19T14:35:07.366Z</time>
      </trkpt>
      <trkpt lat="46.35975" lon="-1.08719">
        <ele>48.416646</ele>
        <time>2022-12-19T14:35:10.373Z</time>
      </trkpt>
      <trkpt lat="46.35965" lon="-1.08716">
        <ele>48.449994</ele>
        <time>2022-12-19T14:35:13.351Z</time>
      </trkpt>
      <trkpt lat="46.35954" lon="-1.08714">
        <ele>48.483767</ele>
        <time>2022-12-19T14:35:16.365Z</time>
      </trkpt>
      <trkpt lat="46.35943" lon="-1.08712">
        <ele>48.516338</ele>
        <time>2022-12-19T14:35:19.370Z</time>
      </trkpt>
      <trkpt lat="46.35933" lon="-1.0871">
        <ele>48.547316</ele>
        <time>2022-12-19T14:35:22.363Z</time>
      </trkpt>
      <trkpt lat="46.35924" lon="-1.08709">
        <ele>48.575702</ele>
        <time>2022-12-19T14:35:25.376Z</time>
      </trkpt>
      <trkpt lat="46.35913" lon="-1.08706">
        <ele>48.61024</ele>
        <time>2022-12-19T14:35:29.374Z</time>
      </trkpt>
      <trkpt lat="46.35904" lon="-1.08704">
        <ele>48.639776</ele>
        <time>2022-12-19T14:35:32.378Z</time>
      </trkpt>
      <trkpt lat="46.35894" lon="-1.08702">
        <ele>48.672102</ele>
        <time>2022-12-19T14:35:35.373Z</time>
      </trkpt>
      <trkpt lat="46.35883" lon="-1.087">
        <ele>48.704522</ele>
        <time>2022-12-19T14:35:38.365Z</time>
      </trkpt>
      <trkpt lat="46.35873" lon="-1.08698">
        <ele>48.73637</ele>
        <time>2022-12-19T14:35:41.374Z</time>
      </trkpt>
      <trkpt lat="46.35863" lon="-1.08696">
        <ele>48.768801</ele>
        <time>2022-12-19T14:35:44.362Z</time>
      </trkpt>
      <trkpt lat="46.35852" lon="-1.08694">
        <ele>48.80129</ele>
        <time>2022-12-19T14:35:47.353Z</time>
      </trkpt>
      <trkpt lat="46.35842" lon="-1.08691">
        <ele>48.834944</ele>
        <time>2022-12-19T14:35:50.356Z</time>
      </trkpt>
      <trkpt lat="46.35831" lon="-1.08689">
        <ele>48.867823</ele>
        <time>2022-12-19T14:35:53.361Z</time>
      </trkpt>
      <trkpt lat="46.35821" lon="-1.08688">
        <ele>48.899933</ele>
        <time>2022-12-19T14:35:56.362Z</time>
      </trkpt>
      <trkpt lat="46.35809" lon="-1.08685">
        <ele>48.936344</ele>
        <time>2022-12-19T14:36:00.362Z</time>
      </trkpt>
      <trkpt lat="46.358" lon="-1.08683">
        <ele>48.959375</ele>
        <time>2022-12-19T14:36:03.378Z</time>
      </trkpt>
      <trkpt lat="46.3579" lon="-1.08681">
        <ele>48.974665</ele>
        <time>2022-12-19T14:36:06.372Z</time>
      </trkpt>
      <trkpt lat="46.3578" lon="-1.08679">
        <ele>48.990253</ele>
        <time>2022-12-19T14:36:09.345Z</time>
      </trkpt>
      <trkpt lat="46.35769" lon="-1.08677">
        <ele>49.006126</ele>
        <time>2022-12-19T14:36:12.360Z</time>
      </trkpt>
      <trkpt lat="46.35759" lon="-1.08675">
        <ele>49.022217</ele>
        <time>2022-12-19T14:36:15.382Z</time>
      </trkpt>
      <trkpt lat="46.35748" lon="-1.08673">
        <ele>49.038251</ele>
        <time>2022-12-19T14:36:18.375Z</time>
      </trkpt>
      <trkpt lat="46.35737" lon="-1.08671">
        <ele>49.054788</ele>
        <time>2022-12-19T14:36:21.367Z</time>
      </trkpt>
      <trkpt lat="46.35727" lon="-1.08669">
        <ele>49.070552</ele>
        <time>2022-12-19T14:36:24.369Z</time>
      </trkpt>
      <trkpt lat="46.35716" lon="-1.08666">
        <ele>49.086284</ele>
        <time>2022-12-19T14:36:27.366Z</time>
      </trkpt>
      <trkpt lat="46.35706" lon="-1.08664">
        <ele>49.102295</ele>
        <time>2022-12-19T14:36:30.372Z</time>
      </trkpt>
      <trkpt lat="46.35696" lon="-1.08662">
        <ele>49.117762</ele>
        <time>2022-12-19T14:36:33.375Z</time>
      </trkpt>
      <trkpt lat="46.35685" lon="-1.0866">
        <ele>49.133647</ele>
        <time>2022-12-19T14:36:36.359Z</time>
      </trkpt>
      <trkpt lat="46.35674" lon="-1.08658">
        <ele>49.150304</ele>
        <time>2022-12-19T14:36:39.373Z</time>
      </trkpt>
      <trkpt lat="46.35663" lon="-1.08656">
        <ele>49.166871</ele>
        <time>2022-12-19T14:36:42.364Z</time>
      </trkpt>
      <trkpt lat="46.35652" lon="-1.08653">
        <ele>49.183705</ele>
        <time>2022-12-19T14:36:45.364Z</time>
      </trkpt>
      <trkpt lat="46.35642" lon="-1.08651">
        <ele>49.19978</ele>
        <time>2022-12-19T14:36:48.352Z</time>
      </trkpt>
      <trkpt lat="46.35631" lon="-1.08649">
        <ele>49.215828</ele>
        <time>2022-12-19T14:36:51.365Z</time>
      </trkpt>
      <trkpt lat="46.35621" lon="-1.08647">
        <ele>49.257015</ele>
        <time>2022-12-19T14:36:54.349Z</time>
      </trkpt>
      <trkpt lat="46.35611" lon="-1.08645">
        <ele>49.326743</ele>
        <time>2022-12-19T14:36:57.363Z</time>
      </trkpt>
      <trkpt lat="46.35602" lon="-1.08644">
        <ele>49.388583</ele>
        <time>2022-12-19T14:37:00.364Z</time>
      </trkpt>
      <trkpt lat="46.35592" lon="-1.08642">
        <ele>49.453312</ele>
        <time>2022-12-19T14:37:03.363Z</time>
      </trkpt>
      <trkpt lat="46.35583" lon="-1.0864">
        <ele>49.518654</ele>
        <time>2022-12-19T14:37:06.362Z</time>
      </trkpt>
      <trkpt lat="46.35573" lon="-1.08638">
        <ele>49.585814</ele>
        <time>2022-12-19T14:37:09.370Z</time>
      </trkpt>
      <trkpt lat="46.35563" lon="-1.08636">
        <ele>49.655402</ele>
        <time>2022-12-19T14:37:12.370Z</time>
      </trkpt>
      <trkpt lat="46.35553" lon="-1.08635">
        <ele>49.724748</ele>
        <time>2022-12-19T14:37:15.353Z</time>
      </trkpt>
      <trkpt lat="46.35542" lon="-1.08634">
        <ele>49.795701</ele>
        <time>2022-12-19T14:37:18.357Z</time>
      </trkpt>
      <trkpt lat="46.35532" lon="-1.08633">
        <ele>49.868252</ele>
        <time>2022-12-19T14:37:21.363Z</time>
      </trkpt>
      <trkpt lat="46.35521" lon="-1.08631">
        <ele>49.939579</ele>
        <time>2022-12-19T14:37:24.364Z</time>
      </trkpt>
      <trkpt lat="46.35511" lon="-1.0863">
        <ele>50.008193</ele>
        <time>2022-12-19T14:37:27.368Z</time>
      </trkpt>
      <trkpt lat="46.35502" lon="-1.08629">
        <ele>50.070512</ele>
        <time>2022-12-19T14:37:30.376Z</time>
      </trkpt>
      <trkpt lat="46.35493" lon="-1.08628">
        <ele>50.133369</ele>
        <time>2022-12-19T14:37:34.365Z</time>
      </trkpt>
      <trkpt lat="46.35483" lon="-1.08624">
        <ele>50.203758</ele>
        <time>2022-12-19T14:37:38.361Z</time>
      </trkpt>
      <trkpt lat="46.35471" lon="-1.08621">
        <ele>50.284473</ele>
        <time>2022-12-19T14:37:42.368Z</time>
      </trkpt>
      <trkpt lat="46.35462" lon="-1.08619">
        <ele>50.34792</ele>
        <time>2022-12-19T14:37:45.376Z</time>
      </trkpt>
      <trkpt lat="46.35453" lon="-1.08617">
        <ele>50.414134</ele>
        <time>2022-12-19T14:37:48.361Z</time>
      </trkpt>
      <trkpt lat="46.35443" lon="-1.08614">
        <ele>50.433264</ele>
        <time>2022-12-19T14:37:51.369Z</time>
      </trkpt>
      <trkpt lat="46.35432" lon="-1.08611">
        <ele>50.391539</ele>
        <time>2022-12-19T14:37:54.365Z</time>
      </trkpt>
      <trkpt lat="46.35421" lon="-1.08608">
        <ele>50.350035</ele>
        <time>2022-12-19T14:37:57.364Z</time>
      </trkpt>
      <trkpt lat="46.3541" lon="-1.08605">
        <ele>50.306828</ele>
        <time>2022-12-19T14:38:00.368Z</time>
      </trkpt>
      <trkpt lat="46.35398" lon="-1.08603">
        <ele>50.264341</ele>
        <time>2022-12-19T14:38:03.348Z</time>
      </trkpt>
      <trkpt lat="46.35387" lon="-1.08601">
        <ele>50.221341</ele>
        <time>2022-12-19T14:38:06.374Z</time>
      </trkpt>
      <trkpt lat="46.35376" lon="-1.08599">
        <ele>50.179228</ele>
        <time>2022-12-19T14:38:09.363Z</time>
      </trkpt>
      <trkpt lat="46.35365" lon="-1.08596">
        <ele>50.136934</ele>
        <time>2022-12-19T14:38:12.376Z</time>
      </trkpt>
      <trkpt lat="46.35353" lon="-1.08594">
        <ele>50.09292</ele>
        <time>2022-12-19T14:38:15.382Z</time>
      </trkpt>
      <trkpt lat="46.35342" lon="-1.08592">
        <ele>50.048126</ele>
        <time>2022-12-19T14:38:18.362Z</time>
      </trkpt>
      <trkpt lat="46.3533" lon="-1.08589">
        <ele>50.003761</ele>
        <time>2022-12-19T14:38:21.349Z</time>
      </trkpt>
      <trkpt lat="46.35318" lon="-1.08586">
        <ele>49.958898</ele>
        <time>2022-12-19T14:38:24.372Z</time>
      </trkpt>
      <trkpt lat="46.35306" lon="-1.08585">
        <ele>49.913476</ele>
        <time>2022-12-19T14:38:27.365Z</time>
      </trkpt>
      <trkpt lat="46.35294" lon="-1.08582">
        <ele>49.868276</ele>
        <time>2022-12-19T14:38:30.376Z</time>
      </trkpt>
      <trkpt lat="46.35282" lon="-1.0858">
        <ele>49.822593</ele>
        <time>2022-12-19T14:38:33.364Z</time>
      </trkpt>
      <trkpt lat="46.3527" lon="-1.08577">
        <ele>49.775152</ele>
        <time>2022-12-19T14:38:36.350Z</time>
      </trkpt>
      <trkpt lat="46.35258" lon="-1.08575">
        <ele>49.731201</ele>
        <time>2022-12-19T14:38:39.366Z</time>
      </trkpt>
      <trkpt lat="46.35247" lon="-1.08572">
        <ele>49.68978</ele>
        <time>2022-12-19T14:38:42.369Z</time>
      </trkpt>
      <trkpt lat="46.35237" lon="-1.0857">
        <ele>49.653017</ele>
        <time>2022-12-19T14:38:45.358Z</time>
      </trkpt>
      <trkpt lat="46.35226" lon="-1.08568">
        <ele>49.613838</ele>
        <time>2022-12-19T14:38:48.379Z</time>
      </trkpt>
      <trkpt lat="46.35215" lon="-1.08565">
        <ele>49.574337</ele>
        <time>2022-12-19T14:38:51.366Z</time>
      </trkpt>
      <trkpt lat="46.35204" lon="-1.08564">
        <ele>49.532836</ele>
        <time>2022-12-19T14:38:54.355Z</time>
      </trkpt>
      <trkpt lat="46.35193" lon="-1.08562">
        <ele>49.493567</ele>
        <time>2022-12-19T14:38:57.363Z</time>
      </trkpt>
      <trkpt lat="46.35183" lon="-1.08559">
        <ele>49.455381</ele>
        <time>2022-12-19T14:39:00.374Z</time>
      </trkpt>
      <trkpt lat="46.35173" lon="-1.08557">
        <ele>49.417561</ele>
        <time>2022-12-19T14:39:03.367Z</time>
      </trkpt>
      <trkpt lat="46.35163" lon="-1.08555">
        <ele>49.37994</ele>
        <time>2022-12-19T14:39:06.368Z</time>
      </trkpt>
      <trkpt lat="46.35152" lon="-1.08553">
        <ele>49.342816</ele>
        <time>2022-12-19T14:39:09.365Z</time>
      </trkpt>
      <trkpt lat="46.35142" lon="-1.08551">
        <ele>49.303595</ele>
        <time>2022-12-19T14:39:12.364Z</time>
      </trkpt>
      <trkpt lat="46.35131" lon="-1.08549">
        <ele>49.263935</ele>
        <time>2022-12-19T14:39:15.379Z</time>
      </trkpt>
      <trkpt lat="46.35121" lon="-1.08546">
        <ele>49.224985</ele>
        <time>2022-12-19T14:39:18.373Z</time>
      </trkpt>
      <trkpt lat="46.3511" lon="-1.08545">
        <ele>49.187267</ele>
        <time>2022-12-19T14:39:21.364Z</time>
      </trkpt>
      <trkpt lat="46.351" lon="-1.08543">
        <ele>49.148923</ele>
        <time>2022-12-19T14:39:24.357Z</time>
      </trkpt>
      <trkpt lat="46.35089" lon="-1.08541">
        <ele>49.10878</ele>
        <time>2022-12-19T14:39:27.376Z</time>
      </trkpt>
      <trkpt lat="46.35078" lon="-1.08539">
        <ele>49.066075</ele>
        <time>2022-12-19T14:39:30.365Z</time>
      </trkpt>
      <trkpt lat="46.35067" lon="-1.08536">
        <ele>49.023297</ele>
        <time>2022-12-19T14:39:33.369Z</time>
      </trkpt>
      <trkpt lat="46.35056" lon="-1.08534">
        <ele>48.981241</ele>
        <time>2022-12-19T14:39:36.365Z</time>
      </trkpt>
      <trkpt lat="46.35045" lon="-1.08532">
        <ele>48.939398</ele>
        <time>2022-12-19T14:39:39.369Z</time>
      </trkpt>
      <trkpt lat="46.35034" lon="-1.0853">
        <ele>48.895858</ele>
        <time>2022-12-19T14:39:42.374Z</time>
      </trkpt>
      <trkpt lat="46.35023" lon="-1.08527">
        <ele>48.853</ele>
        <time>2022-12-19T14:39:45.371Z</time>
      </trkpt>
      <trkpt lat="46.35012" lon="-1.08525">
        <ele>48.810222</ele>
        <time>2022-12-19T14:39:48.373Z</time>
      </trkpt>
      <trkpt lat="46.35001" lon="-1.08523">
        <ele>48.766754</ele>
        <time>2022-12-19T14:39:51.357Z</time>
      </trkpt>
      <trkpt lat="46.3499" lon="-1.08521">
        <ele>48.724497</ele>
        <time>2022-12-19T14:39:54.363Z</time>
      </trkpt>
      <trkpt lat="46.34979" lon="-1.08519">
        <ele>48.681374</ele>
        <time>2022-12-19T14:39:57.362Z</time>
      </trkpt>
      <trkpt lat="46.34968" lon="-1.08517">
        <ele>48.637834</ele>
        <time>2022-12-19T14:40:00.368Z</time>
      </trkpt>
      <trkpt lat="46.34957" lon="-1.08514">
        <ele>48.595315</ele>
        <time>2022-12-19T14:40:03.350Z</time>
      </trkpt>
      <trkpt lat="46.34946" lon="-1.08512">
        <ele>48.551498</ele>
        <time>2022-12-19T14:40:06.366Z</time>
      </trkpt>
      <trkpt lat="46.34935" lon="-1.0851">
        <ele>48.508411</ele>
        <time>2022-12-19T14:40:09.352Z</time>
      </trkpt>
      <trkpt lat="46.34925" lon="-1.08508">
        <ele>48.471381</ele>
        <time>2022-12-19T14:40:12.353Z</time>
      </trkpt>
      <trkpt lat="46.34915" lon="-1.08506">
        <ele>48.432869</ele>
        <time>2022-12-19T14:40:15.370Z</time>
      </trkpt>
      <trkpt lat="46.34905" lon="-1.08504">
        <ele>48.465591</ele>
        <time>2022-12-19T14:40:18.363Z</time>
      </trkpt>
      <trkpt lat="46.34895" lon="-1.08502">
        <ele>48.514949</ele>
        <time>2022-12-19T14:40:21.350Z</time>
      </trkpt>
      <trkpt lat="46.34884" lon="-1.085">
        <ele>48.565414</ele>
        <time>2022-12-19T14:40:24.369Z</time>
      </trkpt>
      <trkpt lat="46.34874" lon="-1.08498">
        <ele>48.61467</ele>
        <time>2022-12-19T14:40:27.374Z</time>
      </trkpt>
      <trkpt lat="46.34864" lon="-1.08496">
        <ele>48.660433</ele>
        <time>2022-12-19T14:40:30.360Z</time>
      </trkpt>
      <trkpt lat="46.34855" lon="-1.08494">
        <ele>48.707617</ele>
        <time>2022-12-19T14:40:33.375Z</time>
      </trkpt>
      <trkpt lat="46.34844" lon="-1.08492">
        <ele>48.757818</ele>
        <time>2022-12-19T14:40:36.368Z</time>
      </trkpt>
      <trkpt lat="46.34834" lon="-1.0849">
        <ele>48.807973</ele>
        <time>2022-12-19T14:40:39.381Z</time>
      </trkpt>
      <trkpt lat="46.34823" lon="-1.08488">
        <ele>48.858084</ele>
        <time>2022-12-19T14:40:42.356Z</time>
      </trkpt>
      <trkpt lat="46.34813" lon="-1.08486">
        <ele>48.908112</ele>
        <time>2022-12-19T14:40:45.376Z</time>
      </trkpt>
      <trkpt lat="46.34802" lon="-1.08484">
        <ele>48.95874</ele>
        <time>2022-12-19T14:40:48.365Z</time>
      </trkpt>
      <trkpt lat="46.34791" lon="-1.08482">
        <ele>49.01462</ele>
        <time>2022-12-19T14:40:52.353Z</time>
      </trkpt>
      <trkpt lat="46.34779" lon="-1.08479">
        <ele>49.072784</ele>
        <time>2022-12-19T14:40:56.368Z</time>
      </trkpt>
      <trkpt lat="46.34769" lon="-1.08476">
        <ele>49.121568</ele>
        <time>2022-12-19T14:40:59.375Z</time>
      </trkpt>
      <trkpt lat="46.34758" lon="-1.08474">
        <ele>49.17267</ele>
        <time>2022-12-19T14:41:02.365Z</time>
      </trkpt>
      <trkpt lat="46.34747" lon="-1.08472">
        <ele>49.224634</ele>
        <time>2022-12-19T14:41:05.369Z</time>
      </trkpt>
      <trkpt lat="46.34736" lon="-1.08471">
        <ele>49.277377</ele>
        <time>2022-12-19T14:41:08.376Z</time>
      </trkpt>
      <trkpt lat="46.34725" lon="-1.08468">
        <ele>49.247091</ele>
        <time>2022-12-19T14:41:11.367Z</time>
      </trkpt>
      <trkpt lat="46.34714" lon="-1.08466">
        <ele>49.203434</ele>
        <time>2022-12-19T14:41:14.377Z</time>
      </trkpt>
      <trkpt lat="46.34703" lon="-1.08464">
        <ele>49.159703</ele>
        <time>2022-12-19T14:41:17.373Z</time>
      </trkpt>
      <trkpt lat="46.34692" lon="-1.08461">
        <ele>49.115627</ele>
        <time>2022-12-19T14:41:20.364Z</time>
      </trkpt>
      <trkpt lat="46.34681" lon="-1.08459">
        <ele>49.071934</ele>
        <time>2022-12-19T14:41:23.360Z</time>
      </trkpt>
      <trkpt lat="46.34669" lon="-1.08457">
        <ele>49.028053</ele>
        <time>2022-12-19T14:41:26.353Z</time>
      </trkpt>
      <trkpt lat="46.34658" lon="-1.08455">
        <ele>48.984959</ele>
        <time>2022-12-19T14:41:29.371Z</time>
      </trkpt>
      <trkpt lat="46.34649" lon="-1.08453">
        <ele>48.949026</ele>
        <time>2022-12-19T14:41:32.372Z</time>
      </trkpt>
      <trkpt lat="46.3464" lon="-1.08451">
        <ele>48.912553</ele>
        <time>2022-12-19T14:41:35.376Z</time>
      </trkpt>
      <trkpt lat="46.34629" lon="-1.08449">
        <ele>48.872638</ele>
        <time>2022-12-19T14:41:38.368Z</time>
      </trkpt>
      <trkpt lat="46.34619" lon="-1.08447">
        <ele>48.832533</ele>
        <time>2022-12-19T14:41:41.376Z</time>
      </trkpt>
      <trkpt lat="46.34609" lon="-1.08445">
        <ele>48.793577</ele>
        <time>2022-12-19T14:41:44.370Z</time>
      </trkpt>
      <trkpt lat="46.34599" lon="-1.08443">
        <ele>48.754271</ele>
        <time>2022-12-19T14:41:47.368Z</time>
      </trkpt>
      <trkpt lat="46.34589" lon="-1.08441">
        <ele>48.714513</ele>
        <time>2022-12-19T14:41:50.380Z</time>
      </trkpt>
      <trkpt lat="46.34578" lon="-1.08439">
        <ele>48.673608</ele>
        <time>2022-12-19T14:41:53.381Z</time>
      </trkpt>
      <trkpt lat="46.34567" lon="-1.08438">
        <ele>48.629698</ele>
        <time>2022-12-19T14:41:56.365Z</time>
      </trkpt>
      <trkpt lat="46.34556" lon="-1.08435">
        <ele>48.591984</ele>
        <time>2022-12-19T14:41:59.371Z</time>
      </trkpt>
      <trkpt lat="46.34546" lon="-1.08433">
        <ele>48.624074</ele>
        <time>2022-12-19T14:42:02.381Z</time>
      </trkpt>
      <trkpt lat="46.34536" lon="-1.08431">
        <ele>48.652772</ele>
        <time>2022-12-19T14:42:05.350Z</time>
      </trkpt>
      <trkpt lat="46.34527" lon="-1.08429">
        <ele>48.68339</ele>
        <time>2022-12-19T14:42:08.349Z</time>
      </trkpt>
      <trkpt lat="46.34516" lon="-1.08427">
        <ele>48.715773</ele>
        <time>2022-12-19T14:42:11.369Z</time>
      </trkpt>
      <trkpt lat="46.34506" lon="-1.08425">
        <ele>48.747827</ele>
        <time>2022-12-19T14:42:14.349Z</time>
      </trkpt>
      <trkpt lat="46.34495" lon="-1.08422">
        <ele>48.780756</ele>
        <time>2022-12-19T14:42:17.372Z</time>
      </trkpt>
      <trkpt lat="46.34484" lon="-1.0842">
        <ele>48.814201</ele>
        <time>2022-12-19T14:42:20.372Z</time>
      </trkpt>
      <trkpt lat="46.34474" lon="-1.08418">
        <ele>48.847675</ele>
        <time>2022-12-19T14:42:23.363Z</time>
      </trkpt>
      <trkpt lat="46.34463" lon="-1.08416">
        <ele>48.881018</ele>
        <time>2022-12-19T14:42:26.360Z</time>
      </trkpt>
      <trkpt lat="46.34452" lon="-1.08414">
        <ele>48.91441</ele>
        <time>2022-12-19T14:42:29.375Z</time>
      </trkpt>
      <trkpt lat="46.34442" lon="-1.08412">
        <ele>48.946365</ele>
        <time>2022-12-19T14:42:32.378Z</time>
      </trkpt>
      <trkpt lat="46.34433" lon="-1.0841">
        <ele>48.974681</ele>
        <time>2022-12-19T14:42:35.364Z</time>
      </trkpt>
      <trkpt lat="46.34423" lon="-1.08408">
        <ele>49.005001</ele>
        <time>2022-12-19T14:42:38.374Z</time>
      </trkpt>
      <trkpt lat="46.34413" lon="-1.08407">
        <ele>49.035226</ele>
        <time>2022-12-19T14:42:41.375Z</time>
      </trkpt>
      <trkpt lat="46.34403" lon="-1.08405">
        <ele>49.066978</ele>
        <time>2022-12-19T14:42:44.375Z</time>
      </trkpt>
      <trkpt lat="46.34392" lon="-1.08403">
        <ele>49.098997</ele>
        <time>2022-12-19T14:42:47.377Z</time>
      </trkpt>
      <trkpt lat="46.34382" lon="-1.08401">
        <ele>49.131097</ele>
        <time>2022-12-19T14:42:50.367Z</time>
      </trkpt>
      <trkpt lat="46.34371" lon="-1.084">
        <ele>49.123837</ele>
        <time>2022-12-19T14:42:53.377Z</time>
      </trkpt>
      <trkpt lat="46.34362" lon="-1.08399">
        <ele>49.099089</ele>
        <time>2022-12-19T14:42:56.368Z</time>
      </trkpt>
      <trkpt lat="46.34351" lon="-1.08398">
        <ele>49.073777</ele>
        <time>2022-12-19T14:42:59.368Z</time>
      </trkpt>
      <trkpt lat="46.34341" lon="-1.08397">
        <ele>49.047002</ele>
        <time>2022-12-19T14:43:02.375Z</time>
      </trkpt>
      <trkpt lat="46.3433" lon="-1.08395">
        <ele>49.021139</ele>
        <time>2022-12-19T14:43:05.377Z</time>
      </trkpt>
      <trkpt lat="46.3432" lon="-1.08393">
        <ele>48.995658</ele>
        <time>2022-12-19T14:43:08.369Z</time>
      </trkpt>
      <trkpt lat="46.3431" lon="-1.0839">
        <ele>48.970341</ele>
        <time>2022-12-19T14:43:11.355Z</time>
      </trkpt>
      <trkpt lat="46.343" lon="-1.08387">
        <ele>48.944409</ele>
        <time>2022-12-19T14:43:14.362Z</time>
      </trkpt>
      <trkpt lat="46.3429" lon="-1.08385">
        <ele>48.918655</ele>
        <time>2022-12-19T14:43:17.377Z</time>
      </trkpt>
      <trkpt lat="46.34279" lon="-1.08382">
        <ele>48.89205</ele>
        <time>2022-12-19T14:43:20.372Z</time>
      </trkpt>
      <trkpt lat="46.34269" lon="-1.0838">
        <ele>48.86566</ele>
        <time>2022-12-19T14:43:23.354Z</time>
      </trkpt>
      <trkpt lat="46.34259" lon="-1.08378">
        <ele>48.841216</ele>
        <time>2022-12-19T14:43:26.377Z</time>
      </trkpt>
      <trkpt lat="46.3425" lon="-1.08375">
        <ele>48.816666</ele>
        <time>2022-12-19T14:43:29.364Z</time>
      </trkpt>
      <trkpt lat="46.3424" lon="-1.08372">
        <ele>48.792128</ele>
        <time>2022-12-19T14:43:32.364Z</time>
      </trkpt>
      <trkpt lat="46.3423" lon="-1.0837">
        <ele>48.766621</ele>
        <time>2022-12-19T14:43:35.365Z</time>
      </trkpt>
      <trkpt lat="46.3422" lon="-1.08367">
        <ele>48.7417</ele>
        <time>2022-12-19T14:43:38.365Z</time>
      </trkpt>
      <trkpt lat="46.34211" lon="-1.08365">
        <ele>48.718022</ele>
        <time>2022-12-19T14:43:41.373Z</time>
      </trkpt>
      <trkpt lat="46.34201" lon="-1.08363">
        <ele>48.693377</ele>
        <time>2022-12-19T14:43:44.370Z</time>
      </trkpt>
      <trkpt lat="46.34191" lon="-1.08362">
        <ele>48.725775</ele>
        <time>2022-12-19T14:43:47.365Z</time>
      </trkpt>
      <trkpt lat="46.34182" lon="-1.0836">
        <ele>48.756457</ele>
        <time>2022-12-19T14:43:50.370Z</time>
      </trkpt>
      <trkpt lat="46.3417" lon="-1.08358">
        <ele>48.795075</ele>
        <time>2022-12-19T14:43:54.374Z</time>
      </trkpt>
      <trkpt lat="46.3416" lon="-1.08356">
        <ele>48.828407</ele>
        <time>2022-12-19T14:43:57.378Z</time>
      </trkpt>
      <trkpt lat="46.3415" lon="-1.08355">
        <ele>48.863066</ele>
        <time>2022-12-19T14:44:00.374Z</time>
      </trkpt>
      <trkpt lat="46.3414" lon="-1.08352">
        <ele>48.898838</ele>
        <time>2022-12-19T14:44:03.369Z</time>
      </trkpt>
      <trkpt lat="46.34129" lon="-1.08351">
        <ele>48.933497</ele>
        <time>2022-12-19T14:44:06.365Z</time>
      </trkpt>
      <trkpt lat="46.3412" lon="-1.08348">
        <ele>48.966297</ele>
        <time>2022-12-19T14:44:09.376Z</time>
      </trkpt>
      <trkpt lat="46.3411" lon="-1.08346">
        <ele>48.999028</ele>
        <time>2022-12-19T14:44:12.376Z</time>
      </trkpt>
      <trkpt lat="46.341" lon="-1.08345">
        <ele>49.033355</ele>
        <time>2022-12-19T14:44:15.377Z</time>
      </trkpt>
      <trkpt lat="46.34089" lon="-1.08342">
        <ele>49.068467</ele>
        <time>2022-12-19T14:44:18.376Z</time>
      </trkpt>
      <trkpt lat="46.34079" lon="-1.0834">
        <ele>49.104177</ele>
        <time>2022-12-19T14:44:21.378Z</time>
      </trkpt>
      <trkpt lat="46.34068" lon="-1.08338">
        <ele>49.139323</ele>
        <time>2022-12-19T14:44:24.365Z</time>
      </trkpt>
      <trkpt lat="46.34057" lon="-1.08336">
        <ele>49.175696</ele>
        <time>2022-12-19T14:44:27.368Z</time>
      </trkpt>
      <trkpt lat="46.34047" lon="-1.08334">
        <ele>49.211833</ele>
        <time>2022-12-19T14:44:30.370Z</time>
      </trkpt>
      <trkpt lat="46.34036" lon="-1.08332">
        <ele>49.247543</ele>
        <time>2022-12-19T14:44:33.377Z</time>
      </trkpt>
      <trkpt lat="46.34026" lon="-1.0833">
        <ele>49.283254</ele>
        <time>2022-12-19T14:44:36.359Z</time>
      </trkpt>
      <trkpt lat="46.34015" lon="-1.08327">
        <ele>49.242415</ele>
        <time>2022-12-19T14:44:39.376Z</time>
      </trkpt>
      <trkpt lat="46.34004" lon="-1.08326">
        <ele>49.171367</ele>
        <time>2022-12-19T14:44:42.361Z</time>
      </trkpt>
      <trkpt lat="46.33994" lon="-1.08323">
        <ele>49.100401</ele>
        <time>2022-12-19T14:44:45.372Z</time>
      </trkpt>
      <trkpt lat="46.33983" lon="-1.08321">
        <ele>49.031388</ele>
        <time>2022-12-19T14:44:48.377Z</time>
      </trkpt>
      <trkpt lat="46.33973" lon="-1.08319">
        <ele>48.960499</ele>
        <time>2022-12-19T14:44:51.376Z</time>
      </trkpt>
      <trkpt lat="46.33962" lon="-1.08317">
        <ele>48.889752</ele>
        <time>2022-12-19T14:44:54.377Z</time>
      </trkpt>
      <trkpt lat="46.33952" lon="-1.08315">
        <ele>48.820689</ele>
        <time>2022-12-19T14:44:57.377Z</time>
      </trkpt>
      <trkpt lat="46.33942" lon="-1.08312">
        <ele>48.748988</ele>
        <time>2022-12-19T14:45:00.366Z</time>
      </trkpt>
      <trkpt lat="46.3393" lon="-1.0831">
        <ele>48.674351</ele>
        <time>2022-12-19T14:45:03.375Z</time>
      </trkpt>
      <trkpt lat="46.3392" lon="-1.08307">
        <ele>48.601744</ele>
        <time>2022-12-19T14:45:06.363Z</time>
      </trkpt>
      <trkpt lat="46.33909" lon="-1.08305">
        <ele>48.530696</ele>
        <time>2022-12-19T14:45:09.343Z</time>
      </trkpt>
      <trkpt lat="46.33898" lon="-1.08303">
        <ele>48.457682</ele>
        <time>2022-12-19T14:45:12.350Z</time>
      </trkpt>
      <trkpt lat="46.33887" lon="-1.083">
        <ele>48.383045</ele>
        <time>2022-12-19T14:45:15.379Z</time>
      </trkpt>
      <trkpt lat="46.33877" lon="-1.08299">
        <ele>48.315912</ele>
        <time>2022-12-19T14:45:18.375Z</time>
      </trkpt>
      <trkpt lat="46.33868" lon="-1.08297">
        <ele>48.251014</ele>
        <time>2022-12-19T14:45:21.368Z</time>
      </trkpt>
      <trkpt lat="46.33857" lon="-1.08295">
        <ele>48.182243</ele>
        <time>2022-12-19T14:45:24.376Z</time>
      </trkpt>
      <trkpt lat="46.33847" lon="-1.08293">
        <ele>48.111804</ele>
        <time>2022-12-19T14:45:27.364Z</time>
      </trkpt>
      <trkpt lat="46.33836" lon="-1.08291">
        <ele>48.044436</ele>
        <time>2022-12-19T14:45:30.350Z</time>
      </trkpt>
      <trkpt lat="46.33826" lon="-1.08289">
        <ele>47.978849</ele>
        <time>2022-12-19T14:45:33.363Z</time>
      </trkpt>
      <trkpt lat="46.33815" lon="-1.08286">
        <ele>47.912026</ele>
        <time>2022-12-19T14:45:36.381Z</time>
      </trkpt>
      <trkpt lat="46.33805" lon="-1.08284">
        <ele>47.846499</ele>
        <time>2022-12-19T14:45:39.364Z</time>
      </trkpt>
      <trkpt lat="46.33795" lon="-1.08282">
        <ele>47.784122</ele>
        <time>2022-12-19T14:45:42.375Z</time>
      </trkpt>
      <trkpt lat="46.33785" lon="-1.08281">
        <ele>47.719479</ele>
        <time>2022-12-19T14:45:45.350Z</time>
      </trkpt>
      <trkpt lat="46.33775" lon="-1.08278">
        <ele>47.656294</ele>
        <time>2022-12-19T14:45:48.363Z</time>
      </trkpt>
      <trkpt lat="46.33764" lon="-1.08276">
        <ele>47.590767</ele>
        <time>2022-12-19T14:45:51.378Z</time>
      </trkpt>
      <trkpt lat="46.33754" lon="-1.08275">
        <ele>47.526249</ele>
        <time>2022-12-19T14:45:54.374Z</time>
      </trkpt>
      <trkpt lat="46.33743" lon="-1.08272">
        <ele>47.453478</ele>
        <time>2022-12-19T14:45:58.372Z</time>
      </trkpt>
      <trkpt lat="46.33733" lon="-1.0827">
        <ele>47.394928</ele>
        <time>2022-12-19T14:46:01.348Z</time>
      </trkpt>
      <trkpt lat="46.33724" lon="-1.08268">
        <ele>47.333659</ele>
        <time>2022-12-19T14:46:04.376Z</time>
      </trkpt>
      <trkpt lat="46.33713" lon="-1.08266">
        <ele>47.268689</ele>
        <time>2022-12-19T14:46:07.370Z</time>
      </trkpt>
      <trkpt lat="46.33703" lon="-1.08264">
        <ele>47.201249</ele>
        <time>2022-12-19T14:46:10.374Z</time>
      </trkpt>
      <trkpt lat="46.33692" lon="-1.08262">
        <ele>47.133978</ele>
        <time>2022-12-19T14:46:13.375Z</time>
      </trkpt>
      <trkpt lat="46.33682" lon="-1.0826">
        <ele>47.069999</ele>
        <time>2022-12-19T14:46:16.365Z</time>
      </trkpt>
      <trkpt lat="46.33671" lon="-1.08259">
        <ele>47.005824</ele>
        <time>2022-12-19T14:46:19.378Z</time>
      </trkpt>
      <trkpt lat="46.33661" lon="-1.08256">
        <ele>46.960129</ele>
        <time>2022-12-19T14:46:22.376Z</time>
      </trkpt>
      <trkpt lat="46.33651" lon="-1.08255">
        <ele>46.936504</ele>
        <time>2022-12-19T14:46:25.366Z</time>
      </trkpt>
      <trkpt lat="46.33641" lon="-1.08253">
        <ele>46.911856</ele>
        <time>2022-12-19T14:46:28.377Z</time>
      </trkpt>
      <trkpt lat="46.33631" lon="-1.08251">
        <ele>46.886706</ele>
        <time>2022-12-19T14:46:31.368Z</time>
      </trkpt>
      <trkpt lat="46.33621" lon="-1.08249">
        <ele>46.862101</ele>
        <time>2022-12-19T14:46:34.374Z</time>
      </trkpt>
      <trkpt lat="46.33611" lon="-1.08247">
        <ele>46.837453</ele>
        <time>2022-12-19T14:46:37.375Z</time>
      </trkpt>
      <trkpt lat="46.336" lon="-1.08245">
        <ele>46.812198</ele>
        <time>2022-12-19T14:46:40.358Z</time>
      </trkpt>
      <trkpt lat="46.3359" lon="-1.08242">
        <ele>46.787032</ele>
        <time>2022-12-19T14:46:43.359Z</time>
      </trkpt>
      <trkpt lat="46.3358" lon="-1.0824">
        <ele>46.763028</ele>
        <time>2022-12-19T14:46:46.370Z</time>
      </trkpt>
      <trkpt lat="46.3357" lon="-1.08239">
        <ele>46.739233</ele>
        <time>2022-12-19T14:46:49.367Z</time>
      </trkpt>
      <trkpt lat="46.3356" lon="-1.08237">
        <ele>46.713705</ele>
        <time>2022-12-19T14:46:52.349Z</time>
      </trkpt>
      <trkpt lat="46.33549" lon="-1.08235">
        <ele>46.687379</ele>
        <time>2022-12-19T14:46:55.379Z</time>
      </trkpt>
      <trkpt lat="46.33539" lon="-1.08233">
        <ele>46.662012</ele>
        <time>2022-12-19T14:46:58.375Z</time>
      </trkpt>
      <trkpt lat="46.33528" lon="-1.0823">
        <ele>46.634769</ele>
        <time>2022-12-19T14:47:02.352Z</time>
      </trkpt>
      <trkpt lat="46.33519" lon="-1.08228">
        <ele>46.612754</ele>
        <time>2022-12-19T14:47:05.364Z</time>
      </trkpt>
      <trkpt lat="46.33508" lon="-1.08227">
        <ele>46.586985</ele>
        <time>2022-12-19T14:47:08.376Z</time>
      </trkpt>
      <trkpt lat="46.33498" lon="-1.08225">
        <ele>46.56264</ele>
        <time>2022-12-19T14:47:11.365Z</time>
      </trkpt>
      <trkpt lat="46.33488" lon="-1.08223">
        <ele>46.536681</ele>
        <time>2022-12-19T14:47:14.367Z</time>
      </trkpt>
      <trkpt lat="46.33477" lon="-1.08221">
        <ele>46.474158</ele>
        <time>2022-12-19T14:47:17.379Z</time>
      </trkpt>
      <trkpt lat="46.33467" lon="-1.0822">
        <ele>46.412018</ele>
        <time>2022-12-19T14:47:20.365Z</time>
      </trkpt>
      <trkpt lat="46.33455" lon="-1.08218">
        <ele>46.344946</ele>
        <time>2022-12-19T14:47:23.352Z</time>
      </trkpt>
      <trkpt lat="46.33444" lon="-1.08218">
        <ele>46.281667</ele>
        <time>2022-12-19T14:47:26.365Z</time>
      </trkpt>
      <trkpt lat="46.33434" lon="-1.08217">
        <ele>46.218974</ele>
        <time>2022-12-19T14:47:29.380Z</time>
      </trkpt>
      <trkpt lat="46.33424" lon="-1.08217">
        <ele>46.159174</ele>
        <time>2022-12-19T14:47:32.380Z</time>
      </trkpt>
      <trkpt lat="46.33412" lon="-1.08217">
        <ele>46.09417</ele>
        <time>2022-12-19T14:47:36.351Z</time>
      </trkpt>
      <trkpt lat="46.33403" lon="-1.08216">
        <ele>46.041339</ele>
        <time>2022-12-19T14:47:39.377Z</time>
      </trkpt>
      <trkpt lat="46.33393" lon="-1.08214">
        <ele>45.982505</ele>
        <time>2022-12-19T14:47:42.380Z</time>
      </trkpt>
      <trkpt lat="46.33383" lon="-1.08213">
        <ele>45.921922</ele>
        <time>2022-12-19T14:47:45.371Z</time>
      </trkpt>
      <trkpt lat="46.33373" lon="-1.08211">
        <ele>45.860003</ele>
        <time>2022-12-19T14:47:48.378Z</time>
      </trkpt>
      <trkpt lat="46.33362" lon="-1.0821">
        <ele>45.798798</ele>
        <time>2022-12-19T14:47:51.376Z</time>
      </trkpt>
      <trkpt lat="46.33352" lon="-1.08208">
        <ele>45.738215</ele>
        <time>2022-12-19T14:47:54.363Z</time>
      </trkpt>
      <trkpt lat="46.33342" lon="-1.08206">
        <ele>45.679365</ele>
        <time>2022-12-19T14:47:57.374Z</time>
      </trkpt>
      <trkpt lat="46.33333" lon="-1.08203">
        <ele>45.624548</ele>
        <time>2022-12-19T14:48:00.366Z</time>
      </trkpt>
      <trkpt lat="46.33324" lon="-1.08201">
        <ele>45.569875</ele>
        <time>2022-12-19T14:48:03.375Z</time>
      </trkpt>
      <trkpt lat="46.33314" lon="-1.08198">
        <ele>45.513675</ele>
        <time>2022-12-19T14:48:06.356Z</time>
      </trkpt>
      <trkpt lat="46.33305" lon="-1.08196">
        <ele>45.478229</ele>
        <time>2022-12-19T14:48:09.349Z</time>
      </trkpt>
      <trkpt lat="46.33295" lon="-1.08194">
        <ele>45.464727</ele>
        <time>2022-12-19T14:48:12.358Z</time>
      </trkpt>
      <trkpt lat="46.33285" lon="-1.08191">
        <ele>45.450924</ele>
        <time>2022-12-19T14:48:15.380Z</time>
      </trkpt>
      <trkpt lat="46.33275" lon="-1.08189">
        <ele>45.43818</ele>
        <time>2022-12-19T14:48:18.364Z</time>
      </trkpt>
      <trkpt lat="46.33266" lon="-1.08187">
        <ele>45.425326</ele>
        <time>2022-12-19T14:48:21.352Z</time>
      </trkpt>
      <trkpt lat="46.33256" lon="-1.08185">
        <ele>45.411763</ele>
        <time>2022-12-19T14:48:24.373Z</time>
      </trkpt>
      <trkpt lat="46.33246" lon="-1.08183">
        <ele>45.39782</ele>
        <time>2022-12-19T14:48:27.377Z</time>
      </trkpt>
      <trkpt lat="46.33235" lon="-1.08181">
        <ele>45.383438</ele>
        <time>2022-12-19T14:48:30.371Z</time>
      </trkpt>
      <trkpt lat="46.33225" lon="-1.08179">
        <ele>45.369042</ele>
        <time>2022-12-19T14:48:33.371Z</time>
      </trkpt>
      <trkpt lat="46.33215" lon="-1.08178">
        <ele>45.354986</ele>
        <time>2022-12-19T14:48:36.377Z</time>
      </trkpt>
      <trkpt lat="46.33204" lon="-1.08176">
        <ele>45.341019</ele>
        <time>2022-12-19T14:48:39.373Z</time>
      </trkpt>
      <trkpt lat="46.33195" lon="-1.08174">
        <ele>45.327469</ele>
        <time>2022-12-19T14:48:42.376Z</time>
      </trkpt>
      <trkpt lat="46.33185" lon="-1.08172">
        <ele>45.314053</ele>
        <time>2022-12-19T14:48:45.379Z</time>
      </trkpt>
      <trkpt lat="46.33175" lon="-1.0817">
        <ele>45.300771</ele>
        <time>2022-12-19T14:48:48.374Z</time>
      </trkpt>
      <trkpt lat="46.33165" lon="-1.08168">
        <ele>45.28712</ele>
        <time>2022-12-19T14:48:51.375Z</time>
      </trkpt>
      <trkpt lat="46.33155" lon="-1.08166">
        <ele>45.273247</ele>
        <time>2022-12-19T14:48:54.368Z</time>
      </trkpt>
      <trkpt lat="46.33145" lon="-1.08164">
        <ele>45.259522</ele>
        <time>2022-12-19T14:48:57.378Z</time>
      </trkpt>
      <trkpt lat="46.33135" lon="-1.08162">
        <ele>45.245321</ele>
        <time>2022-12-19T14:49:00.378Z</time>
      </trkpt>
      <trkpt lat="46.33124" lon="-1.0816">
        <ele>45.252692</ele>
        <time>2022-12-19T14:49:03.370Z</time>
      </trkpt>
      <trkpt lat="46.33114" lon="-1.08158">
        <ele>45.270007</ele>
        <time>2022-12-19T14:49:06.377Z</time>
      </trkpt>
      <trkpt lat="46.33104" lon="-1.08157">
        <ele>45.287824</ele>
        <time>2022-12-19T14:49:09.381Z</time>
      </trkpt>
      <trkpt lat="46.33094" lon="-1.08155">
        <ele>45.306051</ele>
        <time>2022-12-19T14:49:12.369Z</time>
      </trkpt>
      <trkpt lat="46.33083" lon="-1.08153">
        <ele>45.324064</ele>
        <time>2022-12-19T14:49:15.378Z</time>
      </trkpt>
      <trkpt lat="46.33073" lon="-1.08151">
        <ele>45.342341</ele>
        <time>2022-12-19T14:49:18.380Z</time>
      </trkpt>
      <trkpt lat="46.33062" lon="-1.08149">
        <ele>45.36091</ele>
        <time>2022-12-19T14:49:21.366Z</time>
      </trkpt>
      <trkpt lat="46.33051" lon="-1.08146">
        <ele>45.379494</ele>
        <time>2022-12-19T14:49:24.360Z</time>
      </trkpt>
      <trkpt lat="46.33041" lon="-1.08144">
        <ele>45.398318</ele>
        <time>2022-12-19T14:49:27.374Z</time>
      </trkpt>
      <trkpt lat="46.3303" lon="-1.08142">
        <ele>45.417057</ele>
        <time>2022-12-19T14:49:30.377Z</time>
      </trkpt>
      <trkpt lat="46.3302" lon="-1.0814">
        <ele>45.433333</ele>
        <time>2022-12-19T14:49:33.361Z</time>
      </trkpt>
      <trkpt lat="46.33008" lon="-1.08138">
        <ele>45.454465</ele>
        <time>2022-12-19T14:49:37.375Z</time>
      </trkpt>
      <trkpt lat="46.32998" lon="-1.08136">
        <ele>45.471669</ele>
        <time>2022-12-19T14:49:40.369Z</time>
      </trkpt>
      <trkpt lat="46.32988" lon="-1.08135">
        <ele>45.489881</ele>
        <time>2022-12-19T14:49:43.368Z</time>
      </trkpt>
      <trkpt lat="46.32977" lon="-1.08133">
        <ele>45.508421</ele>
        <time>2022-12-19T14:49:46.356Z</time>
      </trkpt>
      <trkpt lat="46.32966" lon="-1.08131">
        <ele>45.527473</ele>
        <time>2022-12-19T14:49:49.372Z</time>
      </trkpt>
      <trkpt lat="46.32955" lon="-1.08129">
        <ele>45.546772</ele>
        <time>2022-12-19T14:49:52.377Z</time>
      </trkpt>
      <trkpt lat="46.32944" lon="-1.08127">
        <ele>45.57981</ele>
        <time>2022-12-19T14:49:55.375Z</time>
      </trkpt>
      <trkpt lat="46.32934" lon="-1.08125">
        <ele>45.614383</ele>
        <time>2022-12-19T14:49:58.375Z</time>
      </trkpt>
      <trkpt lat="46.32924" lon="-1.08123">
        <ele>45.645728</ele>
        <time>2022-12-19T14:50:01.389Z</time>
      </trkpt>
      <trkpt lat="46.32914" lon="-1.08121">
        <ele>45.680738</ele>
        <time>2022-12-19T14:50:05.356Z</time>
      </trkpt>
      <trkpt lat="46.32902" lon="-1.08119">
        <ele>45.719633</ele>
        <time>2022-12-19T14:50:09.377Z</time>
      </trkpt>
      <trkpt lat="46.32892" lon="-1.08117">
        <ele>45.753105</ele>
        <time>2022-12-19T14:50:12.354Z</time>
      </trkpt>
      <trkpt lat="46.32882" lon="-1.08115">
        <ele>45.787523</ele>
        <time>2022-12-19T14:50:15.353Z</time>
      </trkpt>
      <trkpt lat="46.32871" lon="-1.08113">
        <ele>45.822955</ele>
        <time>2022-12-19T14:50:18.375Z</time>
      </trkpt>
      <trkpt lat="46.32861" lon="-1.08111">
        <ele>45.858186</ele>
        <time>2022-12-19T14:50:21.376Z</time>
      </trkpt>
      <trkpt lat="46.3285" lon="-1.08109">
        <ele>45.893</ele>
        <time>2022-12-19T14:50:24.352Z</time>
      </trkpt>
      <trkpt lat="46.32839" lon="-1.08106">
        <ele>45.929447</ele>
        <time>2022-12-19T14:50:27.361Z</time>
      </trkpt>
      <trkpt lat="46.32828" lon="-1.08104">
        <ele>45.965828</ele>
        <time>2022-12-19T14:50:30.378Z</time>
      </trkpt>
      <trkpt lat="46.32818" lon="-1.08102">
        <ele>46.001036</ele>
        <time>2022-12-19T14:50:33.365Z</time>
      </trkpt>
      <trkpt lat="46.32807" lon="-1.081">
        <ele>46.037844</ele>
        <time>2022-12-19T14:50:37.375Z</time>
      </trkpt>
      <trkpt lat="46.32797" lon="-1.08099">
        <ele>46.071674</ele>
        <time>2022-12-19T14:50:41.377Z</time>
      </trkpt>
      <trkpt lat="46.32788" lon="-1.08096">
        <ele>46.10156</ele>
        <time>2022-12-19T14:50:44.377Z</time>
      </trkpt>
      <trkpt lat="46.32778" lon="-1.08095">
        <ele>46.133263</ele>
        <time>2022-12-19T14:50:47.386Z</time>
      </trkpt>
      <trkpt lat="46.32768" lon="-1.08093">
        <ele>46.131318</ele>
        <time>2022-12-19T14:50:50.374Z</time>
      </trkpt>
      <trkpt lat="46.32758" lon="-1.08092">
        <ele>46.109848</ele>
        <time>2022-12-19T14:50:53.371Z</time>
      </trkpt>
      <trkpt lat="46.32748" lon="-1.08091">
        <ele>46.088181</ele>
        <time>2022-12-19T14:50:56.369Z</time>
      </trkpt>
      <trkpt lat="46.32737" lon="-1.08089">
        <ele>46.066031</ele>
        <time>2022-12-19T14:50:59.381Z</time>
      </trkpt>
      <trkpt lat="46.32727" lon="-1.08089">
        <ele>46.045039</ele>
        <time>2022-12-19T14:51:02.369Z</time>
      </trkpt>
      <trkpt lat="46.32715" lon="-1.08088">
        <ele>46.020487</ele>
        <time>2022-12-19T14:51:06.372Z</time>
      </trkpt>
      <trkpt lat="46.32706" lon="-1.08088">
        <ele>46.001376</ele>
        <time>2022-12-19T14:51:09.363Z</time>
      </trkpt>
      <trkpt lat="46.32697" lon="-1.08088">
        <ele>45.981021</ele>
        <time>2022-12-19T14:51:12.356Z</time>
      </trkpt>
      <trkpt lat="46.32686" lon="-1.08088">
        <ele>45.959622</ele>
        <time>2022-12-19T14:51:15.343Z</time>
      </trkpt>
      <trkpt lat="46.32676" lon="-1.08089">
        <ele>45.937589</ele>
        <time>2022-12-19T14:51:18.355Z</time>
      </trkpt>
      <trkpt lat="46.32666" lon="-1.0809">
        <ele>45.916065</ele>
        <time>2022-12-19T14:51:21.355Z</time>
      </trkpt>
      <trkpt lat="46.32655" lon="-1.08092">
        <ele>45.893223</ele>
        <time>2022-12-19T14:51:24.379Z</time>
      </trkpt>
      <trkpt lat="46.32644" lon="-1.08095">
        <ele>45.869055</ele>
        <time>2022-12-19T14:51:27.357Z</time>
      </trkpt>
      <trkpt lat="46.32632" lon="-1.08097">
        <ele>45.844547</ele>
        <time>2022-12-19T14:51:30.375Z</time>
      </trkpt>
      <trkpt lat="46.32621" lon="-1.081">
        <ele>45.820304</ele>
        <time>2022-12-19T14:51:33.345Z</time>
      </trkpt>
      <trkpt lat="46.32609" lon="-1.08103">
        <ele>45.795709</ele>
        <time>2022-12-19T14:51:36.378Z</time>
      </trkpt>
      <trkpt lat="46.32598" lon="-1.08107">
        <ele>45.771576</ele>
        <time>2022-12-19T14:51:39.364Z</time>
      </trkpt>
      <trkpt lat="46.32587" lon="-1.08112">
        <ele>45.772843</ele>
        <time>2022-12-19T14:51:42.369Z</time>
      </trkpt>
      <trkpt lat="46.32576" lon="-1.08116">
        <ele>45.778738</ele>
        <time>2022-12-19T14:51:45.370Z</time>
      </trkpt>
      <trkpt lat="46.32565" lon="-1.08121">
        <ele>45.784614</ele>
        <time>2022-12-19T14:51:48.373Z</time>
      </trkpt>
      <trkpt lat="46.32555" lon="-1.08126">
        <ele>45.790349</ele>
        <time>2022-12-19T14:51:51.375Z</time>
      </trkpt>
      <trkpt lat="46.32545" lon="-1.08132">
        <ele>45.796309</ele>
        <time>2022-12-19T14:51:54.377Z</time>
      </trkpt>
      <trkpt lat="46.32535" lon="-1.08138">
        <ele>45.802293</ele>
        <time>2022-12-19T14:51:57.376Z</time>
      </trkpt>
      <trkpt lat="46.32524" lon="-1.08144">
        <ele>45.808214</ele>
        <time>2022-12-19T14:52:00.377Z</time>
      </trkpt>
      <trkpt lat="46.32514" lon="-1.08151">
        <ele>45.814072</ele>
        <time>2022-12-19T14:52:03.375Z</time>
      </trkpt>
      <trkpt lat="46.32504" lon="-1.08157">
        <ele>45.819929</ele>
        <time>2022-12-19T14:52:06.361Z</time>
      </trkpt>
      <trkpt lat="46.32495" lon="-1.08164">
        <ele>45.825541</ele>
        <time>2022-12-19T14:52:09.378Z</time>
      </trkpt>
      <trkpt lat="46.32485" lon="-1.0817">
        <ele>45.830964</ele>
        <time>2022-12-19T14:52:12.362Z</time>
      </trkpt>
      <trkpt lat="46.32476" lon="-1.08175">
        <ele>45.836162</ele>
        <time>2022-12-19T14:52:15.367Z</time>
      </trkpt>
      <trkpt lat="46.32468" lon="-1.0818">
        <ele>45.841042</ele>
        <time>2022-12-19T14:52:18.372Z</time>
      </trkpt>
      <trkpt lat="46.32457" lon="-1.08187">
        <ele>45.847511</ele>
        <time>2022-12-19T14:52:22.376Z</time>
      </trkpt>
      <trkpt lat="46.32448" lon="-1.08192">
        <ele>45.852695</ele>
        <time>2022-12-19T14:52:25.371Z</time>
      </trkpt>
      <trkpt lat="46.32438" lon="-1.08197">
        <ele>45.857961</ele>
        <time>2022-12-19T14:52:28.353Z</time>
      </trkpt>
      <trkpt lat="46.32429" lon="-1.08203">
        <ele>45.863645</ele>
        <time>2022-12-19T14:52:31.375Z</time>
      </trkpt>
      <trkpt lat="46.32418" lon="-1.08209">
        <ele>45.879641</ele>
        <time>2022-12-19T14:52:35.348Z</time>
      </trkpt>
      <trkpt lat="46.32406" lon="-1.08214">
        <ele>45.895635</ele>
        <time>2022-12-19T14:52:39.368Z</time>
      </trkpt>
      <trkpt lat="46.32397" lon="-1.08218">
        <ele>45.908342</ele>
        <time>2022-12-19T14:52:42.375Z</time>
      </trkpt>
      <trkpt lat="46.32388" lon="-1.08221">
        <ele>45.921387</ele>
        <time>2022-12-19T14:52:45.353Z</time>
      </trkpt>
      <trkpt lat="46.32378" lon="-1.08224">
        <ele>45.934433</ele>
        <time>2022-12-19T14:52:48.361Z</time>
      </trkpt>
      <trkpt lat="46.32368" lon="-1.08227">
        <ele>45.948248</ele>
        <time>2022-12-19T14:52:51.375Z</time>
      </trkpt>
      <trkpt lat="46.32359" lon="-1.0823">
        <ele>45.960921</ele>
        <time>2022-12-19T14:52:54.376Z</time>
      </trkpt>
      <trkpt lat="46.32347" lon="-1.08233">
        <ele>45.976863</ele>
        <time>2022-12-19T14:52:58.376Z</time>
      </trkpt>
      <trkpt lat="46.32337" lon="-1.08236">
        <ele>45.990494</ele>
        <time>2022-12-19T14:53:01.375Z</time>
      </trkpt>
      <trkpt lat="46.32327" lon="-1.08238">
        <ele>46.004425</ele>
        <time>2022-12-19T14:53:04.374Z</time>
      </trkpt>
      <trkpt lat="46.32316" lon="-1.08239">
        <ele>46.018734</ele>
        <time>2022-12-19T14:53:07.377Z</time>
      </trkpt>
      <trkpt lat="46.32305" lon="-1.08241">
        <ele>46.033408</ele>
        <time>2022-12-19T14:53:10.368Z</time>
      </trkpt>
      <trkpt lat="46.32294" lon="-1.08242">
        <ele>46.048061</ele>
        <time>2022-12-19T14:53:13.367Z</time>
      </trkpt>
      <trkpt lat="46.32283" lon="-1.08243">
        <ele>46.062855</ele>
        <time>2022-12-19T14:53:16.376Z</time>
      </trkpt>
      <trkpt lat="46.32272" lon="-1.08243">
        <ele>46.078691</ele>
        <time>2022-12-19T14:53:19.372Z</time>
      </trkpt>
      <trkpt lat="46.32259" lon="-1.08244">
        <ele>46.095475</ele>
        <time>2022-12-19T14:53:22.378Z</time>
      </trkpt>
      <trkpt lat="46.32248" lon="-1.08245">
        <ele>46.103169</ele>
        <time>2022-12-19T14:53:25.379Z</time>
      </trkpt>
      <trkpt lat="46.32239" lon="-1.08246">
        <ele>46.099273</ele>
        <time>2022-12-19T14:53:28.376Z</time>
      </trkpt>
      <trkpt lat="46.32228" lon="-1.08246">
        <ele>46.094939</ele>
        <time>2022-12-19T14:53:31.377Z</time>
      </trkpt>
      <trkpt lat="46.32216" lon="-1.08248">
        <ele>46.090271</ele>
        <time>2022-12-19T14:53:34.362Z</time>
      </trkpt>
      <trkpt lat="46.32204" lon="-1.08249">
        <ele>46.085533</ele>
        <time>2022-12-19T14:53:37.365Z</time>
      </trkpt>
      <trkpt lat="46.32193" lon="-1.08249">
        <ele>46.080876</ele>
        <time>2022-12-19T14:53:40.374Z</time>
      </trkpt>
      <trkpt lat="46.32182" lon="-1.0825">
        <ele>46.076382</ele>
        <time>2022-12-19T14:53:43.380Z</time>
      </trkpt>
      <trkpt lat="46.32171" lon="-1.08251">
        <ele>46.071961</ele>
        <time>2022-12-19T14:53:46.375Z</time>
      </trkpt>
      <trkpt lat="46.32159" lon="-1.08251">
        <ele>46.067309</ele>
        <time>2022-12-19T14:53:49.378Z</time>
      </trkpt>
      <trkpt lat="46.32148" lon="-1.08252">
        <ele>46.062733</ele>
        <time>2022-12-19T14:53:52.378Z</time>
      </trkpt>
      <trkpt lat="46.32138" lon="-1.08253">
        <ele>46.058711</ele>
        <time>2022-12-19T14:53:55.367Z</time>
      </trkpt>
      <trkpt lat="46.32128" lon="-1.08253">
        <ele>46.054942</ele>
        <time>2022-12-19T14:53:58.355Z</time>
      </trkpt>
      <trkpt lat="46.32119" lon="-1.08254">
        <ele>46.051165</ele>
        <time>2022-12-19T14:54:01.379Z</time>
      </trkpt>
      <trkpt lat="46.32109" lon="-1.08255">
        <ele>46.047105</ele>
        <time>2022-12-19T14:54:04.378Z</time>
      </trkpt>
      <trkpt lat="46.32098" lon="-1.08256">
        <ele>46.042802</ele>
        <time>2022-12-19T14:54:07.379Z</time>
      </trkpt>
      <trkpt lat="46.32087" lon="-1.08257">
        <ele>46.038507</ele>
        <time>2022-12-19T14:54:10.366Z</time>
      </trkpt>
      <trkpt lat="46.32077" lon="-1.08258">
        <ele>46.034326</ele>
        <time>2022-12-19T14:54:13.366Z</time>
      </trkpt>
      <trkpt lat="46.32066" lon="-1.08258">
        <ele>46.097833</ele>
        <time>2022-12-19T14:54:16.371Z</time>
      </trkpt>
      <trkpt lat="46.32055" lon="-1.08259">
        <ele>46.213321</ele>
        <time>2022-12-19T14:54:19.376Z</time>
      </trkpt>
      <trkpt lat="46.32044" lon="-1.0826">
        <ele>46.327825</ele>
        <time>2022-12-19T14:54:22.370Z</time>
      </trkpt>
      <trkpt lat="46.32032" lon="-1.08261">
        <ele>46.442438</ele>
        <time>2022-12-19T14:54:25.384Z</time>
      </trkpt>
      <trkpt lat="46.32021" lon="-1.08262">
        <ele>46.554066</ele>
        <time>2022-12-19T14:54:28.374Z</time>
      </trkpt>
      <trkpt lat="46.3201" lon="-1.08263">
        <ele>46.663627</ele>
        <time>2022-12-19T14:54:31.372Z</time>
      </trkpt>
      <trkpt lat="46.32" lon="-1.08263">
        <ele>46.765878</ele>
        <time>2022-12-19T14:54:34.349Z</time>
      </trkpt>
      <trkpt lat="46.3199" lon="-1.08263">
        <ele>46.870238</ele>
        <time>2022-12-19T14:54:37.385Z</time>
      </trkpt>
      <trkpt lat="46.3198" lon="-1.08265">
        <ele>46.973099</ele>
        <time>2022-12-19T14:54:40.360Z</time>
      </trkpt>
      <trkpt lat="46.31969" lon="-1.08266">
        <ele>47.081607</ele>
        <time>2022-12-19T14:54:43.378Z</time>
      </trkpt>
      <trkpt lat="46.31959" lon="-1.08267">
        <ele>47.18802</ele>
        <time>2022-12-19T14:54:46.375Z</time>
      </trkpt>
      <trkpt lat="46.31948" lon="-1.08268">
        <ele>47.29556</ele>
        <time>2022-12-19T14:54:49.369Z</time>
      </trkpt>
      <trkpt lat="46.31938" lon="-1.08268">
        <ele>47.400997</ele>
        <time>2022-12-19T14:54:52.376Z</time>
      </trkpt>
      <trkpt lat="46.31928" lon="-1.08269">
        <ele>47.503334</ele>
        <time>2022-12-19T14:54:55.355Z</time>
      </trkpt>
      <trkpt lat="46.31918" lon="-1.0827">
        <ele>47.605645</ele>
        <time>2022-12-19T14:54:58.428Z</time>
      </trkpt>
      <trkpt lat="46.31907" lon="-1.0827">
        <ele>47.716003</ele>
        <time>2022-12-19T14:55:02.348Z</time>
      </trkpt>
      <trkpt lat="46.31895" lon="-1.08271">
        <ele>47.836769</ele>
        <time>2022-12-19T14:55:06.375Z</time>
      </trkpt>
      <trkpt lat="46.31885" lon="-1.08272">
        <ele>47.958167</ele>
        <time>2022-12-19T14:55:09.348Z</time>
      </trkpt>
      <trkpt lat="46.31876" lon="-1.08272">
        <ele>48.085137</ele>
        <time>2022-12-19T14:55:12.350Z</time>
      </trkpt>
      <trkpt lat="46.31867" lon="-1.08273">
        <ele>48.21222</ele>
        <time>2022-12-19T14:55:15.354Z</time>
      </trkpt>
      <trkpt lat="46.31855" lon="-1.08274">
        <ele>48.375001</ele>
        <time>2022-12-19T14:55:19.354Z</time>
      </trkpt>
      <trkpt lat="46.31843" lon="-1.08273">
        <ele>48.534745</ele>
        <time>2022-12-19T14:55:23.376Z</time>
      </trkpt>
      <trkpt lat="46.31834" lon="-1.08273">
        <ele>48.663067</ele>
        <time>2022-12-19T14:55:26.380Z</time>
      </trkpt>
      <trkpt lat="46.31824" lon="-1.08274">
        <ele>48.797181</ele>
        <time>2022-12-19T14:55:29.351Z</time>
      </trkpt>
      <trkpt lat="46.31814" lon="-1.08275">
        <ele>48.937944</ele>
        <time>2022-12-19T14:55:32.382Z</time>
      </trkpt>
      <trkpt lat="46.31803" lon="-1.08276">
        <ele>49.082896</ele>
        <time>2022-12-19T14:55:35.358Z</time>
      </trkpt>
      <trkpt lat="46.31793" lon="-1.08277">
        <ele>49.222397</ele>
        <time>2022-12-19T14:55:38.381Z</time>
      </trkpt>
      <trkpt lat="46.31783" lon="-1.08278">
        <ele>49.353571</ele>
        <time>2022-12-19T14:55:41.353Z</time>
      </trkpt>
      <trkpt lat="46.31773" lon="-1.08279">
        <ele>49.489047</ele>
        <time>2022-12-19T14:55:44.378Z</time>
      </trkpt>
      <trkpt lat="46.31762" lon="-1.08279">
        <ele>49.64341</ele>
        <time>2022-12-19T14:55:48.376Z</time>
      </trkpt>
      <trkpt lat="46.31753" lon="-1.0828">
        <ele>49.774547</ele>
        <time>2022-12-19T14:55:52.362Z</time>
      </trkpt>
      <trkpt lat="46.31742" lon="-1.08281">
        <ele>49.920861</ele>
        <time>2022-12-19T14:55:56.379Z</time>
      </trkpt>
      <trkpt lat="46.3173" lon="-1.08281">
        <ele>50.08341</ele>
        <time>2022-12-19T14:56:00.374Z</time>
      </trkpt>
      <trkpt lat="46.3172" lon="-1.08281">
        <ele>50.213111</ele>
        <time>2022-12-19T14:56:03.381Z</time>
      </trkpt>
      <trkpt lat="46.3171" lon="-1.08282">
        <ele>50.271902</ele>
        <time>2022-12-19T14:56:06.370Z</time>
      </trkpt>
      <trkpt lat="46.317" lon="-1.08282">
        <ele>50.147038</ele>
        <time>2022-12-19T14:56:09.377Z</time>
      </trkpt>
      <trkpt lat="46.31691" lon="-1.08283">
        <ele>50.02806</ele>
        <time>2022-12-19T14:56:12.359Z</time>
      </trkpt>
      <trkpt lat="46.31681" lon="-1.08284">
        <ele>49.907849</ele>
        <time>2022-12-19T14:56:15.378Z</time>
      </trkpt>
      <trkpt lat="46.3167" lon="-1.08285">
        <ele>49.776417</ele>
        <time>2022-12-19T14:56:18.377Z</time>
      </trkpt>
      <trkpt lat="46.3166" lon="-1.08286">
        <ele>49.652774</ele>
        <time>2022-12-19T14:56:21.363Z</time>
      </trkpt>
      <trkpt lat="46.3165" lon="-1.08287">
        <ele>49.524967</ele>
        <time>2022-12-19T14:56:24.377Z</time>
      </trkpt>
      <trkpt lat="46.3164" lon="-1.08288">
        <ele>49.397411</ele>
        <time>2022-12-19T14:56:27.375Z</time>
      </trkpt>
      <trkpt lat="46.3163" lon="-1.08289">
        <ele>49.27691</ele>
        <time>2022-12-19T14:56:30.377Z</time>
      </trkpt>
      <trkpt lat="46.31619" lon="-1.08291">
        <ele>49.14048</ele>
        <time>2022-12-19T14:56:33.380Z</time>
      </trkpt>
      <trkpt lat="46.31607" lon="-1.08292">
        <ele>48.985725</ele>
        <time>2022-12-19T14:56:36.373Z</time>
      </trkpt>
      <trkpt lat="46.31594" lon="-1.08293">
        <ele>48.829779</ele>
        <time>2022-12-19T14:56:39.360Z</time>
      </trkpt>
      <trkpt lat="46.31581" lon="-1.08293">
        <ele>48.672599</ele>
        <time>2022-12-19T14:56:42.375Z</time>
      </trkpt>
      <trkpt lat="46.31569" lon="-1.08294">
        <ele>48.514185</ele>
        <time>2022-12-19T14:56:45.374Z</time>
      </trkpt>
      <trkpt lat="46.31555" lon="-1.08295">
        <ele>48.352138</ele>
        <time>2022-12-19T14:56:48.372Z</time>
      </trkpt>
      <trkpt lat="46.31543" lon="-1.08295">
        <ele>48.19638</ele>
        <time>2022-12-19T14:56:51.377Z</time>
      </trkpt>
      <trkpt lat="46.31531" lon="-1.08296">
        <ele>48.066972</ele>
        <time>2022-12-19T14:56:54.379Z</time>
      </trkpt>
      <trkpt lat="46.3152" lon="-1.08297">
        <ele>47.984468</ele>
        <time>2022-12-19T14:56:57.377Z</time>
      </trkpt>
      <trkpt lat="46.31507" lon="-1.08298">
        <ele>47.897721</ele>
        <time>2022-12-19T14:57:00.380Z</time>
      </trkpt>
      <trkpt lat="46.31495" lon="-1.083">
        <ele>47.810343</ele>
        <time>2022-12-19T14:57:03.373Z</time>
      </trkpt>
      <trkpt lat="46.31483" lon="-1.083">
        <ele>47.723813</ele>
        <time>2022-12-19T14:57:06.378Z</time>
      </trkpt>
      <trkpt lat="46.3147" lon="-1.08301">
        <ele>47.638627</ele>
        <time>2022-12-19T14:57:09.370Z</time>
      </trkpt>
      <trkpt lat="46.31459" lon="-1.08301">
        <ele>47.557747</ele>
        <time>2022-12-19T14:57:12.379Z</time>
      </trkpt>
      <trkpt lat="46.31448" lon="-1.08302">
        <ele>47.481012</ele>
        <time>2022-12-19T14:57:15.363Z</time>
      </trkpt>
      <trkpt lat="46.31438" lon="-1.08303">
        <ele>47.412639</ele>
        <time>2022-12-19T14:57:18.373Z</time>
      </trkpt>
      <trkpt lat="46.31429" lon="-1.08303">
        <ele>47.347251</ele>
        <time>2022-12-19T14:57:21.376Z</time>
      </trkpt>
      <trkpt lat="46.31418" lon="-1.08305">
        <ele>47.268869</ele>
        <time>2022-12-19T14:57:24.356Z</time>
      </trkpt>
      <trkpt lat="46.31406" lon="-1.08306">
        <ele>47.184384</ele>
        <time>2022-12-19T14:57:27.385Z</time>
      </trkpt>
      <trkpt lat="46.31394" lon="-1.08307">
        <ele>47.100575</ele>
        <time>2022-12-19T14:57:30.374Z</time>
      </trkpt>
      <trkpt lat="46.31382" lon="-1.08308">
        <ele>47.017495</ele>
        <time>2022-12-19T14:57:33.364Z</time>
      </trkpt>
      <trkpt lat="46.31371" lon="-1.08308">
        <ele>46.935844</ele>
        <time>2022-12-19T14:57:36.359Z</time>
      </trkpt>
      <trkpt lat="46.31359" lon="-1.08309">
        <ele>46.857024</ele>
        <time>2022-12-19T14:57:39.379Z</time>
      </trkpt>
      <trkpt lat="46.31348" lon="-1.0831">
        <ele>46.84775</ele>
        <time>2022-12-19T14:57:42.378Z</time>
      </trkpt>
      <trkpt lat="46.31336" lon="-1.08312">
        <ele>46.895627</ele>
        <time>2022-12-19T14:57:45.362Z</time>
      </trkpt>
      <trkpt lat="46.31325" lon="-1.08314">
        <ele>46.941888</ele>
        <time>2022-12-19T14:57:48.374Z</time>
      </trkpt>
      <trkpt lat="46.31314" lon="-1.08316">
        <ele>46.990139</ele>
        <time>2022-12-19T14:57:51.374Z</time>
      </trkpt>
      <trkpt lat="46.31302" lon="-1.08319">
        <ele>47.03818</ele>
        <time>2022-12-19T14:57:54.377Z</time>
      </trkpt>
      <trkpt lat="46.31291" lon="-1.08323">
        <ele>47.086568</ele>
        <time>2022-12-19T14:57:57.377Z</time>
      </trkpt>
      <trkpt lat="46.3128" lon="-1.08327">
        <ele>47.13113</ele>
        <time>2022-12-19T14:58:00.373Z</time>
      </trkpt>
      <trkpt lat="46.3127" lon="-1.0833">
        <ele>47.174423</ele>
        <time>2022-12-19T14:58:03.378Z</time>
      </trkpt>
      <trkpt lat="46.3126" lon="-1.08335">
        <ele>47.220492</ele>
        <time>2022-12-19T14:58:06.373Z</time>
      </trkpt>
      <trkpt lat="46.31248" lon="-1.0834">
        <ele>47.271496</ele>
        <time>2022-12-19T14:58:09.352Z</time>
      </trkpt>
      <trkpt lat="46.31236" lon="-1.08345">
        <ele>47.323627</ele>
        <time>2022-12-19T14:58:12.378Z</time>
      </trkpt>
      <trkpt lat="46.31224" lon="-1.08351">
        <ele>47.375846</ele>
        <time>2022-12-19T14:58:15.379Z</time>
      </trkpt>
      <trkpt lat="46.31211" lon="-1.08356">
        <ele>47.43083</ele>
        <time>2022-12-19T14:58:18.376Z</time>
      </trkpt>
      <trkpt lat="46.31199" lon="-1.08362">
        <ele>47.484407</ele>
        <time>2022-12-19T14:58:21.380Z</time>
      </trkpt>
      <trkpt lat="46.31187" lon="-1.08367">
        <ele>47.534392</ele>
        <time>2022-12-19T14:58:24.379Z</time>
      </trkpt>
      <trkpt lat="46.31177" lon="-1.08372">
        <ele>47.561984</ele>
        <time>2022-12-19T14:58:27.377Z</time>
      </trkpt>
      <trkpt lat="46.31168" lon="-1.08376">
        <ele>47.547415</ele>
        <time>2022-12-19T14:58:30.380Z</time>
      </trkpt>
      <trkpt lat="46.31157" lon="-1.08381">
        <ele>47.530869</ele>
        <time>2022-12-19T14:58:33.377Z</time>
      </trkpt>
      <trkpt lat="46.31146" lon="-1.08387">
        <ele>47.513649</ele>
        <time>2022-12-19T14:58:36.355Z</time>
      </trkpt>
      <trkpt lat="46.31135" lon="-1.08391">
        <ele>47.497056</ele>
        <time>2022-12-19T14:58:39.350Z</time>
      </trkpt>
      <trkpt lat="46.31123" lon="-1.08396">
        <ele>47.480105</ele>
        <time>2022-12-19T14:58:42.379Z</time>
      </trkpt>
      <trkpt lat="46.31112" lon="-1.08402">
        <ele>47.462613</ele>
        <time>2022-12-19T14:58:45.373Z</time>
      </trkpt>
      <trkpt lat="46.31099" lon="-1.08408">
        <ele>47.443899</ele>
        <time>2022-12-19T14:58:48.367Z</time>
      </trkpt>
      <trkpt lat="46.31087" lon="-1.08414">
        <ele>47.424953</ele>
        <time>2022-12-19T14:58:51.384Z</time>
      </trkpt>
      <trkpt lat="46.31075" lon="-1.08421">
        <ele>47.405996</ele>
        <time>2022-12-19T14:58:54.373Z</time>
      </trkpt>
      <trkpt lat="46.31064" lon="-1.08428">
        <ele>47.388314</ele>
        <time>2022-12-19T14:58:57.359Z</time>
      </trkpt>
      <trkpt lat="46.31054" lon="-1.08435">
        <ele>47.372558</ele>
        <time>2022-12-19T14:59:00.375Z</time>
      </trkpt>
      <trkpt lat="46.31043" lon="-1.08442">
        <ele>47.355677</ele>
        <time>2022-12-19T14:59:03.361Z</time>
      </trkpt>
      <trkpt lat="46.31032" lon="-1.0845">
        <ele>47.337756</ele>
        <time>2022-12-19T14:59:06.378Z</time>
      </trkpt>
      <trkpt lat="46.31021" lon="-1.08459">
        <ele>47.319462</ele>
        <time>2022-12-19T14:59:09.367Z</time>
      </trkpt>
      <trkpt lat="46.3101" lon="-1.08469">
        <ele>47.318512</ele>
        <time>2022-12-19T14:59:12.355Z</time>
      </trkpt>
      <trkpt lat="46.30999" lon="-1.08478">
        <ele>47.356322</ele>
        <time>2022-12-19T14:59:15.380Z</time>
      </trkpt>
      <trkpt lat="46.3099" lon="-1.08486">
        <ele>47.387524</ele>
        <time>2022-12-19T14:59:18.386Z</time>
      </trkpt>
      <trkpt lat="46.30982" lon="-1.08493">
        <ele>47.417551</ele>
        <time>2022-12-19T14:59:21.376Z</time>
      </trkpt>
      <trkpt lat="46.30973" lon="-1.08501">
        <ele>47.45005</ele>
        <time>2022-12-19T14:59:24.376Z</time>
      </trkpt>
      <trkpt lat="46.30962" lon="-1.0851">
        <ele>47.486899</ele>
        <time>2022-12-19T14:59:27.380Z</time>
      </trkpt>
      <trkpt lat="46.30951" lon="-1.08521">
        <ele>47.528319</ele>
        <time>2022-12-19T14:59:30.379Z</time>
      </trkpt>
      <trkpt lat="46.30943" lon="-1.08528">
        <ele>47.557419</ele>
        <time>2022-12-19T14:59:32.380Z</time>
      </trkpt>
      <trkpt lat="46.30935" lon="-1.08535">
        <ele>47.585972</ele>
        <time>2022-12-19T14:59:34.345Z</time>
      </trkpt>
      <trkpt lat="46.30927" lon="-1.08542">
        <ele>47.613822</ele>
        <time>2022-12-19T14:59:36.349Z</time>
      </trkpt>
      <trkpt lat="46.30916" lon="-1.08553">
        <ele>47.653115</ele>
        <time>2022-12-19T14:59:39.358Z</time>
      </trkpt>
      <trkpt lat="46.30906" lon="-1.08562">
        <ele>47.688744</ele>
        <time>2022-12-19T14:59:42.350Z</time>
      </trkpt>
      <trkpt lat="46.30896" lon="-1.08571">
        <ele>47.724519</ele>
        <time>2022-12-19T14:59:45.359Z</time>
      </trkpt>
      <trkpt lat="46.30886" lon="-1.0858">
        <ele>47.762507</ele>
        <time>2022-12-19T14:59:48.375Z</time>
      </trkpt>
      <trkpt lat="46.30875" lon="-1.0859">
        <ele>47.801422</ele>
        <time>2022-12-19T14:59:51.344Z</time>
      </trkpt>
      <trkpt lat="46.30863" lon="-1.086">
        <ele>47.841491</ele>
        <time>2022-12-19T14:59:54.377Z</time>
      </trkpt>
      <trkpt lat="46.30852" lon="-1.08609">
        <ele>47.827127</ele>
        <time>2022-12-19T14:59:57.369Z</time>
      </trkpt>
      <trkpt lat="46.30841" lon="-1.08618">
        <ele>47.79193</ele>
        <time>2022-12-19T15:00:00.347Z</time>
      </trkpt>
      <trkpt lat="46.3083" lon="-1.08626">
        <ele>47.757492</ele>
        <time>2022-12-19T15:00:03.376Z</time>
      </trkpt>
      <trkpt lat="46.30818" lon="-1.08634">
        <ele>47.722061</ele>
        <time>2022-12-19T15:00:06.377Z</time>
      </trkpt>
      <trkpt lat="46.30807" lon="-1.08642">
        <ele>47.68546</ele>
        <time>2022-12-19T15:00:09.377Z</time>
      </trkpt>
      <trkpt lat="46.30795" lon="-1.08649">
        <ele>47.650993</ele>
        <time>2022-12-19T15:00:12.375Z</time>
      </trkpt>
      <trkpt lat="46.30785" lon="-1.08656">
        <ele>47.620737</ele>
        <time>2022-12-19T15:00:15.362Z</time>
      </trkpt>
      <trkpt lat="46.30776" lon="-1.08662">
        <ele>47.592157</ele>
        <time>2022-12-19T15:00:18.356Z</time>
      </trkpt>
      <trkpt lat="46.30766" lon="-1.08668">
        <ele>47.562285</ele>
        <time>2022-12-19T15:00:21.378Z</time>
      </trkpt>
      <trkpt lat="46.30755" lon="-1.08674">
        <ele>47.529803</ele>
        <time>2022-12-19T15:00:24.374Z</time>
      </trkpt>
      <trkpt lat="46.30744" lon="-1.08681">
        <ele>47.496359</ele>
        <time>2022-12-19T15:00:27.379Z</time>
      </trkpt>
      <trkpt lat="46.30733" lon="-1.08688">
        <ele>47.462758</ele>
        <time>2022-12-19T15:00:30.373Z</time>
      </trkpt>
      <trkpt lat="46.30722" lon="-1.08695">
        <ele>47.428366</ele>
        <time>2022-12-19T15:00:33.375Z</time>
      </trkpt>
      <trkpt lat="46.30711" lon="-1.08702">
        <ele>47.395074</ele>
        <time>2022-12-19T15:00:36.369Z</time>
      </trkpt>
      <trkpt lat="46.30701" lon="-1.08709">
        <ele>47.364642</ele>
        <time>2022-12-19T15:00:39.377Z</time>
      </trkpt>
      <trkpt lat="46.30692" lon="-1.08714">
        <ele>47.459002</ele>
        <time>2022-12-19T15:00:42.373Z</time>
      </trkpt>
      <trkpt lat="46.30682" lon="-1.08719">
        <ele>47.655082</ele>
        <time>2022-12-19T15:00:45.377Z</time>
      </trkpt>
      <trkpt lat="46.30672" lon="-1.08726">
        <ele>47.868773</ele>
        <time>2022-12-19T15:00:48.356Z</time>
      </trkpt>
      <trkpt lat="46.30662" lon="-1.08732">
        <ele>48.077883</ele>
        <time>2022-12-19T15:00:51.346Z</time>
      </trkpt>
      <trkpt lat="46.30653" lon="-1.08737">
        <ele>48.267095</ele>
        <time>2022-12-19T15:00:54.365Z</time>
      </trkpt>
      <trkpt lat="46.30643" lon="-1.08745">
        <ele>48.480928</ele>
        <time>2022-12-19T15:00:58.361Z</time>
      </trkpt>
      <trkpt lat="46.30634" lon="-1.08754">
        <ele>48.697352</ele>
        <time>2022-12-19T15:01:03.362Z</time>
      </trkpt>
      <trkpt lat="46.30625" lon="-1.08759">
        <ele>48.876018</ele>
        <time>2022-12-19T15:01:07.353Z</time>
      </trkpt>
      <trkpt lat="46.30616" lon="-1.08763">
        <ele>49.06292</ele>
        <time>2022-12-19T15:01:11.371Z</time>
      </trkpt>
      <trkpt lat="46.30606" lon="-1.08767">
        <ele>49.269703</ele>
        <time>2022-12-19T15:01:15.361Z</time>
      </trkpt>
      <trkpt lat="46.30597" lon="-1.08774">
        <ele>49.468965</ele>
        <time>2022-12-19T15:01:20.368Z</time>
      </trkpt>
      <trkpt lat="46.30586" lon="-1.08774">
        <ele>49.673594</ele>
        <time>2022-12-19T15:01:25.357Z</time>
      </trkpt>
      <trkpt lat="46.30575" lon="-1.08774">
        <ele>49.884124</ele>
        <time>2022-12-19T15:01:30.377Z</time>
      </trkpt>
      <trkpt lat="46.30565" lon="-1.08778">
        <ele>50.082272</ele>
        <time>2022-12-19T15:01:34.351Z</time>
      </trkpt>
      <trkpt lat="46.30555" lon="-1.08783">
        <ele>50.291</ele>
        <time>2022-12-19T15:01:38.354Z</time>
      </trkpt>
      <trkpt lat="46.30547" lon="-1.08791">
        <ele>50.483218</ele>
        <time>2022-12-19T15:01:42.369Z</time>
      </trkpt>
      <trkpt lat="46.30539" lon="-1.08801">
        <ele>50.687109</ele>
        <time>2022-12-19T15:01:46.363Z</time>
      </trkpt>
      <trkpt lat="46.30529" lon="-1.08803">
        <ele>50.786143</ele>
        <time>2022-12-19T15:01:50.369Z</time>
      </trkpt>
      <trkpt lat="46.30519" lon="-1.08797">
        <ele>50.670046</ele>
        <time>2022-12-19T15:01:54.357Z</time>
      </trkpt>
      <trkpt lat="46.3051" lon="-1.0879">
        <ele>50.557697</ele>
        <time>2022-12-19T15:01:58.362Z</time>
      </trkpt>
      <trkpt lat="46.30501" lon="-1.08788">
        <ele>50.453488</ele>
        <time>2022-12-19T15:02:01.364Z</time>
      </trkpt>
      <trkpt lat="46.30491" lon="-1.08788">
        <ele>50.338116</ele>
        <time>2022-12-19T15:02:04.374Z</time>
      </trkpt>
      <trkpt lat="46.3048" lon="-1.08787">
        <ele>50.217156</ele>
        <time>2022-12-19T15:02:07.378Z</time>
      </trkpt>
      <trkpt lat="46.3047" lon="-1.08786">
        <ele>50.102965</ele>
        <time>2022-12-19T15:02:10.369Z</time>
      </trkpt>
      <trkpt lat="46.3046" lon="-1.08786">
        <ele>49.994257</ele>
        <time>2022-12-19T15:02:13.375Z</time>
      </trkpt>
      <trkpt lat="46.30449" lon="-1.08785">
        <ele>49.868654</ele>
        <time>2022-12-19T15:02:17.356Z</time>
      </trkpt>
      <trkpt lat="46.3044" lon="-1.08783">
        <ele>49.764977</ele>
        <time>2022-12-19T15:02:20.379Z</time>
      </trkpt>
      <trkpt lat="46.30429" lon="-1.08781">
        <ele>49.647377</ele>
        <time>2022-12-19T15:02:23.378Z</time>
      </trkpt>
      <trkpt lat="46.30418" lon="-1.08778">
        <ele>49.515049</ele>
        <time>2022-12-19T15:02:26.377Z</time>
      </trkpt>
      <trkpt lat="46.30406" lon="-1.08777">
        <ele>49.389125</ele>
        <time>2022-12-19T15:02:29.376Z</time>
      </trkpt>
      <trkpt lat="46.30396" lon="-1.08775">
        <ele>49.269881</ele>
        <time>2022-12-19T15:02:32.350Z</time>
      </trkpt>
      <trkpt lat="46.30386" lon="-1.08773">
        <ele>49.155601</ele>
        <time>2022-12-19T15:02:35.376Z</time>
      </trkpt>
      <trkpt lat="46.30375" lon="-1.08771">
        <ele>49.038111</ele>
        <time>2022-12-19T15:02:38.354Z</time>
      </trkpt>
      <trkpt lat="46.30365" lon="-1.08768">
        <ele>48.916961</ele>
        <time>2022-12-19T15:02:41.360Z</time>
      </trkpt>
      <trkpt lat="46.30354" lon="-1.08766">
        <ele>48.810531</ele>
        <time>2022-12-19T15:02:44.369Z</time>
      </trkpt>
      <trkpt lat="46.30344" lon="-1.08764">
        <ele>48.820474</ele>
        <time>2022-12-19T15:02:47.365Z</time>
      </trkpt>
      <trkpt lat="46.30334" lon="-1.08762">
        <ele>48.830495</ele>
        <time>2022-12-19T15:02:50.367Z</time>
      </trkpt>
      <trkpt lat="46.30322" lon="-1.0876">
        <ele>48.841387</ele>
        <time>2022-12-19T15:02:53.366Z</time>
      </trkpt>
      <trkpt lat="46.30312" lon="-1.08758">
        <ele>48.851791</ele>
        <time>2022-12-19T15:02:56.380Z</time>
      </trkpt>
      <trkpt lat="46.30301" lon="-1.08756">
        <ele>48.862404</ele>
        <time>2022-12-19T15:02:59.366Z</time>
      </trkpt>
      <trkpt lat="46.30289" lon="-1.08753">
        <ele>48.873713</ele>
        <time>2022-12-19T15:03:02.364Z</time>
      </trkpt>
      <trkpt lat="46.30278" lon="-1.08751">
        <ele>48.884996</ele>
        <time>2022-12-19T15:03:05.355Z</time>
      </trkpt>
      <trkpt lat="46.30268" lon="-1.08749">
        <ele>48.894739</ele>
        <time>2022-12-19T15:03:08.365Z</time>
      </trkpt>
      <trkpt lat="46.30258" lon="-1.08748">
        <ele>48.903937</ele>
        <time>2022-12-19T15:03:11.368Z</time>
      </trkpt>
      <trkpt lat="46.30248" lon="-1.08745">
        <ele>48.913648</ele>
        <time>2022-12-19T15:03:14.364Z</time>
      </trkpt>
      <trkpt lat="46.30238" lon="-1.08743">
        <ele>48.923782</ele>
        <time>2022-12-19T15:03:17.375Z</time>
      </trkpt>
      <trkpt lat="46.30228" lon="-1.08741">
        <ele>48.933716</ele>
        <time>2022-12-19T15:03:20.376Z</time>
      </trkpt>
      <trkpt lat="46.30217" lon="-1.08738">
        <ele>48.943997</ele>
        <time>2022-12-19T15:03:24.361Z</time>
      </trkpt>
      <trkpt lat="46.30208" lon="-1.0874">
        <ele>48.953044</ele>
        <time>2022-12-19T15:03:28.374Z</time>
      </trkpt>
      <trkpt lat="46.30202" lon="-1.08752">
        <ele>48.963305</ele>
        <time>2022-12-19T15:03:33.366Z</time>
      </trkpt>
      <trkpt lat="46.30197" lon="-1.08764">
        <ele>48.972093</ele>
        <time>2022-12-19T15:03:38.350Z</time>
      </trkpt>
      <trkpt lat="46.30186" lon="-1.08766">
        <ele>48.982724</ele>
        <time>2022-12-19T15:03:43.355Z</time>
      </trkpt>
      <trkpt lat="46.30177" lon="-1.08765">
        <ele>48.915624</ele>
        <time>2022-12-19T15:03:51.358Z</time>
      </trkpt>
      <trkpt lat="46.30167" lon="-1.08766">
        <ele>48.84579</ele>
        <time>2022-12-19T15:04:03.362Z</time>
      </trkpt>
      <trkpt lat="46.30158" lon="-1.08766">
        <ele>48.776801</ele>
        <time>2022-12-19T15:04:14.348Z</time>
      </trkpt>
      <trkpt lat="46.30148" lon="-1.08768">
        <ele>48.705745</ele>
        <time>2022-12-19T15:04:36.354Z</time>
      </trkpt>
      <trkpt lat="46.30139" lon="-1.08775">
        <ele>48.624744</ele>
        <time>2022-12-19T15:08:14.361Z</time>
      </trkpt>
      <trkpt lat="46.30145" lon="-1.08765">
        <ele>48.554748</ele>
        <time>2022-12-19T15:08:27.355Z</time>
      </trkpt>
      <trkpt lat="46.30157" lon="-1.08764">
        <ele>48.465376</ele>
        <time>2022-12-19T15:08:32.379Z</time>
      </trkpt>
      <trkpt lat="46.30166" lon="-1.08764">
        <ele>48.397879</ele>
        <time>2022-12-19T15:08:35.349Z</time>
      </trkpt>
      <trkpt lat="46.30176" lon="-1.08765">
        <ele>48.327978</ele>
        <time>2022-12-19T15:08:38.361Z</time>
      </trkpt>
      <trkpt lat="46.30186" lon="-1.08766">
        <ele>48.248517</ele>
        <time>2022-12-19T15:08:42.375Z</time>
      </trkpt>
      <trkpt lat="46.30196" lon="-1.08762">
        <ele>48.173287</ele>
        <time>2022-12-19T15:08:46.362Z</time>
      </trkpt>
      <trkpt lat="46.30202" lon="-1.08749">
        <ele>48.095182</ele>
        <time>2022-12-19T15:08:51.374Z</time>
      </trkpt>
      <trkpt lat="46.30198" lon="-1.08736">
        <ele>48.023696</ele>
        <time>2022-12-19T15:08:56.357Z</time>
      </trkpt>
      <trkpt lat="46.30187" lon="-1.08733">
        <ele>47.94256</ele>
        <time>2022-12-19T15:09:00.354Z</time>
      </trkpt>
      <trkpt lat="46.30178" lon="-1.08731">
        <ele>47.87396</ele>
        <time>2022-12-19T15:09:03.354Z</time>
      </trkpt>
      <trkpt lat="46.30169" lon="-1.08729">
        <ele>47.801665</ele>
        <time>2022-12-19T15:09:06.378Z</time>
      </trkpt>
      <trkpt lat="46.30159" lon="-1.08728">
        <ele>47.732207</ele>
        <time>2022-12-19T15:09:09.379Z</time>
      </trkpt>
      <trkpt lat="46.30147" lon="-1.08726">
        <ele>47.6423</ele>
        <time>2022-12-19T15:09:13.377Z</time>
      </trkpt>
      <trkpt lat="46.30137" lon="-1.08724">
        <ele>47.570347</ele>
        <time>2022-12-19T15:09:16.368Z</time>
      </trkpt>
      <trkpt lat="46.30127" lon="-1.08721">
        <ele>47.495285</ele>
        <time>2022-12-19T15:09:19.379Z</time>
      </trkpt>
      <trkpt lat="46.30117" lon="-1.08719">
        <ele>47.421185</ele>
        <time>2022-12-19T15:09:22.378Z</time>
      </trkpt>
      <trkpt lat="46.30107" lon="-1.08717">
        <ele>47.34443</ele>
        <time>2022-12-19T15:09:25.377Z</time>
      </trkpt>
      <trkpt lat="46.30096" lon="-1.08715">
        <ele>47.26309</ele>
        <time>2022-12-19T15:09:28.371Z</time>
      </trkpt>
      <trkpt lat="46.30084" lon="-1.08712">
        <ele>47.179526</ele>
        <time>2022-12-19T15:09:31.378Z</time>
      </trkpt>
      <trkpt lat="46.30073" lon="-1.0871">
        <ele>47.095455</ele>
        <time>2022-12-19T15:09:34.363Z</time>
      </trkpt>
      <trkpt lat="46.30061" lon="-1.08708">
        <ele>47.01347</ele>
        <time>2022-12-19T15:09:37.376Z</time>
      </trkpt>
      <trkpt lat="46.3005" lon="-1.08706">
        <ele>46.930508</ele>
        <time>2022-12-19T15:09:40.367Z</time>
      </trkpt>
      <trkpt lat="46.30038" lon="-1.08705">
        <ele>46.840366</ele>
        <time>2022-12-19T15:09:43.378Z</time>
      </trkpt>
      <trkpt lat="46.30025" lon="-1.08702">
        <ele>46.750415</ele>
        <time>2022-12-19T15:09:46.376Z</time>
      </trkpt>
      <trkpt lat="46.30013" lon="-1.087">
        <ele>46.661759</ele>
        <time>2022-12-19T15:09:49.380Z</time>
      </trkpt>
      <trkpt lat="46.30001" lon="-1.08697">
        <ele>46.572458</ele>
        <time>2022-12-19T15:09:52.382Z</time>
      </trkpt>
      <trkpt lat="46.29989" lon="-1.08695">
        <ele>46.483226</ele>
        <time>2022-12-19T15:09:55.374Z</time>
      </trkpt>
      <trkpt lat="46.29977" lon="-1.08692">
        <ele>46.393207</ele>
        <time>2022-12-19T15:09:58.380Z</time>
      </trkpt>
      <trkpt lat="46.29964" lon="-1.0869">
        <ele>46.402136</ele>
        <time>2022-12-19T15:10:01.379Z</time>
      </trkpt>
      <trkpt lat="46.29951" lon="-1.08688">
        <ele>46.519148</ele>
        <time>2022-12-19T15:10:04.375Z</time>
      </trkpt>
      <trkpt lat="46.29939" lon="-1.08685">
        <ele>46.636106</ele>
        <time>2022-12-19T15:10:07.371Z</time>
      </trkpt>
      <trkpt lat="46.29926" lon="-1.08683">
        <ele>46.754533</ele>
        <time>2022-12-19T15:10:10.377Z</time>
      </trkpt>
      <trkpt lat="46.29913" lon="-1.0868">
        <ele>46.876062</ele>
        <time>2022-12-19T15:10:13.375Z</time>
      </trkpt>
      <trkpt lat="46.299" lon="-1.08678">
        <ele>46.996583</ele>
        <time>2022-12-19T15:10:16.364Z</time>
      </trkpt>
      <trkpt lat="46.29887" lon="-1.08675">
        <ele>47.118306</ele>
        <time>2022-12-19T15:10:19.376Z</time>
      </trkpt>
      <trkpt lat="46.29874" lon="-1.08672">
        <ele>47.240569</ele>
        <time>2022-12-19T15:10:22.375Z</time>
      </trkpt>
      <trkpt lat="46.29861" lon="-1.08669">
        <ele>47.363206</ele>
        <time>2022-12-19T15:10:25.378Z</time>
      </trkpt>
      <trkpt lat="46.29848" lon="-1.08666">
        <ele>47.482906</ele>
        <time>2022-12-19T15:10:28.378Z</time>
      </trkpt>
      <trkpt lat="46.29836" lon="-1.08664">
        <ele>47.600417</ele>
        <time>2022-12-19T15:10:31.381Z</time>
      </trkpt>
      <trkpt lat="46.29823" lon="-1.08662">
        <ele>47.714864</ele>
        <time>2022-12-19T15:10:34.376Z</time>
      </trkpt>
      <trkpt lat="46.29811" lon="-1.08659">
        <ele>47.829803</ele>
        <time>2022-12-19T15:10:37.381Z</time>
      </trkpt>
      <trkpt lat="46.29799" lon="-1.08656">
        <ele>47.944836</ele>
        <time>2022-12-19T15:10:40.377Z</time>
      </trkpt>
      <trkpt lat="46.29787" lon="-1.08654">
        <ele>48.037607</ele>
        <time>2022-12-19T15:10:43.380Z</time>
      </trkpt>
      <trkpt lat="46.29775" lon="-1.08651">
        <ele>48.10084</ele>
        <time>2022-12-19T15:10:46.373Z</time>
      </trkpt>
      <trkpt lat="46.29764" lon="-1.08649">
        <ele>48.159913</ele>
        <time>2022-12-19T15:10:49.379Z</time>
      </trkpt>
      <trkpt lat="46.29754" lon="-1.08647">
        <ele>48.21442</ele>
        <time>2022-12-19T15:10:52.380Z</time>
      </trkpt>
      <trkpt lat="46.29744" lon="-1.08644">
        <ele>48.269509</ele>
        <time>2022-12-19T15:10:55.379Z</time>
      </trkpt>
      <trkpt lat="46.29733" lon="-1.08642">
        <ele>48.325127</ele>
        <time>2022-12-19T15:10:58.355Z</time>
      </trkpt>
      <trkpt lat="46.29723" lon="-1.0864">
        <ele>48.381912</ele>
        <time>2022-12-19T15:11:01.375Z</time>
      </trkpt>
      <trkpt lat="46.29712" lon="-1.08638">
        <ele>48.440517</ele>
        <time>2022-12-19T15:11:04.375Z</time>
      </trkpt>
      <trkpt lat="46.29701" lon="-1.08636">
        <ele>48.498302</ele>
        <time>2022-12-19T15:11:07.375Z</time>
      </trkpt>
      <trkpt lat="46.29691" lon="-1.08634">
        <ele>48.554396</ele>
        <time>2022-12-19T15:11:10.369Z</time>
      </trkpt>
      <trkpt lat="46.29681" lon="-1.08631">
        <ele>48.609485</ele>
        <time>2022-12-19T15:11:13.375Z</time>
      </trkpt>
      <trkpt lat="46.2967" lon="-1.0863">
        <ele>48.665925</ele>
        <time>2022-12-19T15:11:16.377Z</time>
      </trkpt>
      <trkpt lat="46.29659" lon="-1.08628">
        <ele>48.723512</ele>
        <time>2022-12-19T15:11:19.374Z</time>
      </trkpt>
      <trkpt lat="46.29648" lon="-1.08626">
        <ele>48.783178</ele>
        <time>2022-12-19T15:11:22.376Z</time>
      </trkpt>
      <trkpt lat="46.29637" lon="-1.08624">
        <ele>48.841871</ele>
        <time>2022-12-19T15:11:25.374Z</time>
      </trkpt>
      <trkpt lat="46.29627" lon="-1.08622">
        <ele>48.897823</ele>
        <time>2022-12-19T15:11:28.366Z</time>
      </trkpt>
      <trkpt lat="46.29616" lon="-1.0862">
        <ele>48.955608</ele>
        <time>2022-12-19T15:11:31.380Z</time>
      </trkpt>
      <trkpt lat="46.29606" lon="-1.08618">
        <ele>48.878836</ele>
        <time>2022-12-19T15:11:34.357Z</time>
      </trkpt>
      <trkpt lat="46.29595" lon="-1.08615">
        <ele>48.759812</ele>
        <time>2022-12-19T15:11:37.363Z</time>
      </trkpt>
      <trkpt lat="46.29584" lon="-1.08613">
        <ele>48.641008</ele>
        <time>2022-12-19T15:11:40.354Z</time>
      </trkpt>
      <trkpt lat="46.29573" lon="-1.08611">
        <ele>48.517089</ele>
        <time>2022-12-19T15:11:43.376Z</time>
      </trkpt>
      <trkpt lat="46.29561" lon="-1.08609">
        <ele>48.390628</ele>
        <time>2022-12-19T15:11:46.380Z</time>
      </trkpt>
      <trkpt lat="46.29549" lon="-1.08607">
        <ele>48.25896</ele>
        <time>2022-12-19T15:11:49.354Z</time>
      </trkpt>
      <trkpt lat="46.29537" lon="-1.08605">
        <ele>48.128372</ele>
        <time>2022-12-19T15:11:52.370Z</time>
      </trkpt>
      <trkpt lat="46.29525" lon="-1.08602">
        <ele>47.998465</ele>
        <time>2022-12-19T15:11:55.375Z</time>
      </trkpt>
      <trkpt lat="46.29513" lon="-1.086">
        <ele>47.85669</ele>
        <time>2022-12-19T15:11:58.377Z</time>
      </trkpt>
      <trkpt lat="46.29504" lon="-1.08598">
        <ele>47.758693</ele>
        <time>2022-12-19T15:12:00.375Z</time>
      </trkpt>
      <trkpt lat="46.29494" lon="-1.08595">
        <ele>47.654717</ele>
        <time>2022-12-19T15:12:02.369Z</time>
      </trkpt>
      <trkpt lat="46.29485" lon="-1.08593">
        <ele>47.552609</ele>
        <time>2022-12-19T15:12:04.375Z</time>
      </trkpt>
      <trkpt lat="46.29472" lon="-1.0859">
        <ele>47.405864</ele>
        <time>2022-12-19T15:12:07.376Z</time>
      </trkpt>
      <trkpt lat="46.2946" lon="-1.08587">
        <ele>47.277881</ele>
        <time>2022-12-19T15:12:10.378Z</time>
      </trkpt>
      <trkpt lat="46.29449" lon="-1.08584">
        <ele>47.151206</ele>
        <time>2022-12-19T15:12:13.377Z</time>
      </trkpt>
      <trkpt lat="46.29438" lon="-1.08582">
        <ele>47.02906</ele>
        <time>2022-12-19T15:12:16.379Z</time>
      </trkpt>
      <trkpt lat="46.29426" lon="-1.08579">
        <ele>46.991866</ele>
        <time>2022-12-19T15:12:19.374Z</time>
      </trkpt>
      <trkpt lat="46.29415" lon="-1.08575">
        <ele>46.968344</ele>
        <time>2022-12-19T15:12:22.374Z</time>
      </trkpt>
      <trkpt lat="46.29404" lon="-1.0857">
        <ele>46.945771</ele>
        <time>2022-12-19T15:12:25.386Z</time>
      </trkpt>
      <trkpt lat="46.29392" lon="-1.08563">
        <ele>46.922511</ele>
        <time>2022-12-19T15:12:28.380Z</time>
      </trkpt>
      <trkpt lat="46.29381" lon="-1.08556">
        <ele>46.898437</ele>
        <time>2022-12-19T15:12:31.377Z</time>
      </trkpt>
      <trkpt lat="46.29369" lon="-1.08549">
        <ele>46.873905</ele>
        <time>2022-12-19T15:12:34.377Z</time>
      </trkpt>
      <trkpt lat="46.29357" lon="-1.08542">
        <ele>46.848865</ele>
        <time>2022-12-19T15:12:37.378Z</time>
      </trkpt>
      <trkpt lat="46.29345" lon="-1.08535">
        <ele>46.823386</ele>
        <time>2022-12-19T15:12:40.376Z</time>
      </trkpt>
      <trkpt lat="46.29333" lon="-1.08528">
        <ele>46.798869</ele>
        <time>2022-12-19T15:12:43.377Z</time>
      </trkpt>
      <trkpt lat="46.29321" lon="-1.08521">
        <ele>46.774309</ele>
        <time>2022-12-19T15:12:46.367Z</time>
      </trkpt>
      <trkpt lat="46.29309" lon="-1.08514">
        <ele>46.749924</ele>
        <time>2022-12-19T15:12:49.376Z</time>
      </trkpt>
      <trkpt lat="46.29298" lon="-1.08506">
        <ele>46.725269</ele>
        <time>2022-12-19T15:12:52.367Z</time>
      </trkpt>
      <trkpt lat="46.29286" lon="-1.085">
        <ele>46.701064</ele>
        <time>2022-12-19T15:12:55.355Z</time>
      </trkpt>
      <trkpt lat="46.29275" lon="-1.08492">
        <ele>46.677386</ele>
        <time>2022-12-19T15:12:58.380Z</time>
      </trkpt>
      <trkpt lat="46.29264" lon="-1.08485">
        <ele>46.670304</ele>
        <time>2022-12-19T15:13:01.364Z</time>
      </trkpt>
      <trkpt lat="46.29252" lon="-1.08478">
        <ele>46.686723</ele>
        <time>2022-12-19T15:13:04.377Z</time>
      </trkpt>
      <trkpt lat="46.29241" lon="-1.08472">
        <ele>46.701737</ele>
        <time>2022-12-19T15:13:07.376Z</time>
      </trkpt>
      <trkpt lat="46.29231" lon="-1.08466">
        <ele>46.716651</ele>
        <time>2022-12-19T15:13:10.378Z</time>
      </trkpt>
      <trkpt lat="46.2922" lon="-1.0846">
        <ele>46.731821</ele>
        <time>2022-12-19T15:13:13.382Z</time>
      </trkpt>
      <trkpt lat="46.29209" lon="-1.08453">
        <ele>46.747676</ele>
        <time>2022-12-19T15:13:16.374Z</time>
      </trkpt>
      <trkpt lat="46.29198" lon="-1.08445">
        <ele>46.763964</ele>
        <time>2022-12-19T15:13:19.381Z</time>
      </trkpt>
      <trkpt lat="46.29186" lon="-1.08438">
        <ele>46.780312</ele>
        <time>2022-12-19T15:13:22.380Z</time>
      </trkpt>
      <trkpt lat="46.29175" lon="-1.08432">
        <ele>46.796958</ele>
        <time>2022-12-19T15:13:25.379Z</time>
      </trkpt>
      <trkpt lat="46.29163" lon="-1.08425">
        <ele>46.81336</ele>
        <time>2022-12-19T15:13:28.374Z</time>
      </trkpt>
      <trkpt lat="46.29152" lon="-1.08418">
        <ele>46.828514</ele>
        <time>2022-12-19T15:13:31.373Z</time>
      </trkpt>
      <trkpt lat="46.29142" lon="-1.08412">
        <ele>46.843706</ele>
        <time>2022-12-19T15:13:34.357Z</time>
      </trkpt>
      <trkpt lat="46.29131" lon="-1.08405">
        <ele>46.859523</ele>
        <time>2022-12-19T15:13:37.376Z</time>
      </trkpt>
      <trkpt lat="46.2912" lon="-1.08399">
        <ele>46.875232</ele>
        <time>2022-12-19T15:13:40.377Z</time>
      </trkpt>
      <trkpt lat="46.29108" lon="-1.08391">
        <ele>46.891446</ele>
        <time>2022-12-19T15:13:43.378Z</time>
      </trkpt>
      <trkpt lat="46.29098" lon="-1.08385">
        <ele>46.910897</ele>
        <time>2022-12-19T15:13:46.382Z</time>
      </trkpt>
      <trkpt lat="46.29088" lon="-1.08378">
        <ele>46.934131</ele>
        <time>2022-12-19T15:13:49.380Z</time>
      </trkpt>
      <trkpt lat="46.29078" lon="-1.08372">
        <ele>46.957442</ele>
        <time>2022-12-19T15:13:52.377Z</time>
      </trkpt>
      <trkpt lat="46.29066" lon="-1.08365">
        <ele>46.984142</ele>
        <time>2022-12-19T15:13:55.378Z</time>
      </trkpt>
      <trkpt lat="46.29055" lon="-1.08357">
        <ele>47.011583</ele>
        <time>2022-12-19T15:13:58.379Z</time>
      </trkpt>
      <trkpt lat="46.29042" lon="-1.0835">
        <ele>47.040241</ele>
        <time>2022-12-19T15:14:01.376Z</time>
      </trkpt>
      <trkpt lat="46.2903" lon="-1.08342">
        <ele>47.068368</ele>
        <time>2022-12-19T15:14:04.378Z</time>
      </trkpt>
      <trkpt lat="46.29019" lon="-1.08335">
        <ele>47.094987</ele>
        <time>2022-12-19T15:14:07.373Z</time>
      </trkpt>
      <trkpt lat="46.29007" lon="-1.08328">
        <ele>47.122711</ele>
        <time>2022-12-19T15:14:10.352Z</time>
      </trkpt>
      <trkpt lat="46.28995" lon="-1.08322">
        <ele>47.14933</ele>
        <time>2022-12-19T15:14:13.379Z</time>
      </trkpt>
      <trkpt lat="46.28984" lon="-1.08314">
        <ele>47.175983</ele>
        <time>2022-12-19T15:14:16.375Z</time>
      </trkpt>
      <trkpt lat="46.28973" lon="-1.08308">
        <ele>47.202348</ele>
        <time>2022-12-19T15:14:19.385Z</time>
      </trkpt>
      <trkpt lat="46.28962" lon="-1.08301">
        <ele>47.227921</ele>
        <time>2022-12-19T15:14:22.382Z</time>
      </trkpt>
      <trkpt lat="46.28951" lon="-1.08294">
        <ele>47.253611</ele>
        <time>2022-12-19T15:14:25.376Z</time>
      </trkpt>
      <trkpt lat="46.2894" lon="-1.08287">
        <ele>47.278907</ele>
        <time>2022-12-19T15:14:28.370Z</time>
      </trkpt>
      <trkpt lat="46.28929" lon="-1.0828">
        <ele>47.230229</ele>
        <time>2022-12-19T15:14:31.381Z</time>
      </trkpt>
      <trkpt lat="46.28918" lon="-1.08273">
        <ele>47.155819</ele>
        <time>2022-12-19T15:14:34.383Z</time>
      </trkpt>
      <trkpt lat="46.28906" lon="-1.08266">
        <ele>47.081022</ele>
        <time>2022-12-19T15:14:37.378Z</time>
      </trkpt>
      <trkpt lat="46.28895" lon="-1.08259">
        <ele>47.004311</ele>
        <time>2022-12-19T15:14:40.382Z</time>
      </trkpt>
      <trkpt lat="46.28883" lon="-1.08252">
        <ele>46.927758</ele>
        <time>2022-12-19T15:14:43.376Z</time>
      </trkpt>
      <trkpt lat="46.28871" lon="-1.08245">
        <ele>46.850727</ele>
        <time>2022-12-19T15:14:46.373Z</time>
      </trkpt>
      <trkpt lat="46.28859" lon="-1.08238">
        <ele>46.771751</ele>
        <time>2022-12-19T15:14:49.381Z</time>
      </trkpt>
      <trkpt lat="46.28848" lon="-1.08231">
        <ele>46.694881</ele>
        <time>2022-12-19T15:14:52.350Z</time>
      </trkpt>
      <trkpt lat="46.28836" lon="-1.08224">
        <ele>46.621136</ele>
        <time>2022-12-19T15:14:55.378Z</time>
      </trkpt>
      <trkpt lat="46.28825" lon="-1.08218">
        <ele>46.548177</ele>
        <time>2022-12-19T15:14:58.378Z</time>
      </trkpt>
      <trkpt lat="46.28814" lon="-1.08211">
        <ele>46.476108</ele>
        <time>2022-12-19T15:15:01.357Z</time>
      </trkpt>
      <trkpt lat="46.28804" lon="-1.08204">
        <ele>46.407325</ele>
        <time>2022-12-19T15:15:04.376Z</time>
      </trkpt>
      <trkpt lat="46.28793" lon="-1.08198">
        <ele>46.338708</ele>
        <time>2022-12-19T15:15:07.378Z</time>
      </trkpt>
      <trkpt lat="46.28783" lon="-1.08192">
        <ele>46.272418</ele>
        <time>2022-12-19T15:15:10.381Z</time>
      </trkpt>
      <trkpt lat="46.28773" lon="-1.08186">
        <ele>46.207006</ele>
        <time>2022-12-19T15:15:13.378Z</time>
      </trkpt>
      <trkpt lat="46.28763" lon="-1.0818">
        <ele>46.152718</ele>
        <time>2022-12-19T15:15:16.377Z</time>
      </trkpt>
      <trkpt lat="46.28753" lon="-1.08174">
        <ele>46.103946</ele>
        <time>2022-12-19T15:15:19.377Z</time>
      </trkpt>
      <trkpt lat="46.28744" lon="-1.08167">
        <ele>46.055123</ele>
        <time>2022-12-19T15:15:22.371Z</time>
      </trkpt>
      <trkpt lat="46.28734" lon="-1.08162">
        <ele>46.005185</ele>
        <time>2022-12-19T15:15:25.371Z</time>
      </trkpt>
      <trkpt lat="46.28724" lon="-1.08156">
        <ele>45.956291</ele>
        <time>2022-12-19T15:15:28.377Z</time>
      </trkpt>
      <trkpt lat="46.28714" lon="-1.0815">
        <ele>45.908492</ele>
        <time>2022-12-19T15:15:31.367Z</time>
      </trkpt>
      <trkpt lat="46.28704" lon="-1.08144">
        <ele>45.858801</ele>
        <time>2022-12-19T15:15:34.367Z</time>
      </trkpt>
      <trkpt lat="46.28695" lon="-1.08138">
        <ele>45.809721</ele>
        <time>2022-12-19T15:15:37.353Z</time>
      </trkpt>
      <trkpt lat="46.28685" lon="-1.08132">
        <ele>45.762971</ele>
        <time>2022-12-19T15:15:40.370Z</time>
      </trkpt>
      <trkpt lat="46.28676" lon="-1.08127">
        <ele>45.718517</ele>
        <time>2022-12-19T15:15:43.378Z</time>
      </trkpt>
      <trkpt lat="46.28668" lon="-1.08121">
        <ele>45.675157</ele>
        <time>2022-12-19T15:15:46.377Z</time>
      </trkpt>
      <trkpt lat="46.28659" lon="-1.08116">
        <ele>45.632554</ele>
        <time>2022-12-19T15:15:49.379Z</time>
      </trkpt>
      <trkpt lat="46.28651" lon="-1.0811">
        <ele>45.588981</ele>
        <time>2022-12-19T15:15:52.379Z</time>
      </trkpt>
      <trkpt lat="46.28642" lon="-1.08105">
        <ele>45.546169</ele>
        <time>2022-12-19T15:15:55.359Z</time>
      </trkpt>
      <trkpt lat="46.28633" lon="-1.08099">
        <ele>45.501774</ele>
        <time>2022-12-19T15:15:58.377Z</time>
      </trkpt>
      <trkpt lat="46.28625" lon="-1.08093">
        <ele>45.460002</ele>
        <time>2022-12-19T15:16:01.361Z</time>
      </trkpt>
      <trkpt lat="46.28617" lon="-1.08087">
        <ele>45.417265</ele>
        <time>2022-12-19T15:16:04.363Z</time>
      </trkpt>
      <trkpt lat="46.28608" lon="-1.0808">
        <ele>45.371571</ele>
        <time>2022-12-19T15:16:07.362Z</time>
      </trkpt>
      <trkpt lat="46.286" lon="-1.08072">
        <ele>45.336064</ele>
        <time>2022-12-19T15:16:10.380Z</time>
      </trkpt>
      <trkpt lat="46.28592" lon="-1.08063">
        <ele>45.299899</ele>
        <time>2022-12-19T15:16:13.378Z</time>
      </trkpt>
      <trkpt lat="46.28583" lon="-1.08054">
        <ele>45.261737</ele>
        <time>2022-12-19T15:16:16.376Z</time>
      </trkpt>
      <trkpt lat="46.28575" lon="-1.08043">
        <ele>45.223348</ele>
        <time>2022-12-19T15:16:19.377Z</time>
      </trkpt>
      <trkpt lat="46.28566" lon="-1.08033">
        <ele>45.184007</ele>
        <time>2022-12-19T15:16:22.372Z</time>
      </trkpt>
      <trkpt lat="46.28557" lon="-1.08022">
        <ele>45.143318</ele>
        <time>2022-12-19T15:16:25.353Z</time>
      </trkpt>
      <trkpt lat="46.28548" lon="-1.08011">
        <ele>45.102601</ele>
        <time>2022-12-19T15:16:28.374Z</time>
      </trkpt>
      <trkpt lat="46.28539" lon="-1.08">
        <ele>45.061005</ele>
        <time>2022-12-19T15:16:31.381Z</time>
      </trkpt>
      <trkpt lat="46.2853" lon="-1.0799">
        <ele>45.020976</ele>
        <time>2022-12-19T15:16:34.355Z</time>
      </trkpt>
      <trkpt lat="46.28521" lon="-1.07979">
        <ele>44.980067</ele>
        <time>2022-12-19T15:16:37.353Z</time>
      </trkpt>
      <trkpt lat="46.28512" lon="-1.07968">
        <ele>44.939731</ele>
        <time>2022-12-19T15:16:40.364Z</time>
      </trkpt>
      <trkpt lat="46.28503" lon="-1.07957">
        <ele>44.89955</ele>
        <time>2022-12-19T15:16:43.378Z</time>
      </trkpt>
      <trkpt lat="46.28494" lon="-1.07946">
        <ele>44.859113</ele>
        <time>2022-12-19T15:16:46.378Z</time>
      </trkpt>
      <trkpt lat="46.28485" lon="-1.07934">
        <ele>44.81658</ele>
        <time>2022-12-19T15:16:49.378Z</time>
      </trkpt>
      <trkpt lat="46.28477" lon="-1.07923">
        <ele>44.776498</ele>
        <time>2022-12-19T15:16:52.380Z</time>
      </trkpt>
      <trkpt lat="46.28468" lon="-1.07912">
        <ele>44.743349</ele>
        <time>2022-12-19T15:16:55.377Z</time>
      </trkpt>
      <trkpt lat="46.28458" lon="-1.07901">
        <ele>44.79315</ele>
        <time>2022-12-19T15:16:58.370Z</time>
      </trkpt>
      <trkpt lat="46.28449" lon="-1.0789">
        <ele>44.843861</ele>
        <time>2022-12-19T15:17:01.375Z</time>
      </trkpt>
      <trkpt lat="46.2844" lon="-1.07878">
        <ele>44.894757</ele>
        <time>2022-12-19T15:17:04.375Z</time>
      </trkpt>
      <trkpt lat="46.28431" lon="-1.07867">
        <ele>44.943122</ele>
        <time>2022-12-19T15:17:07.378Z</time>
      </trkpt>
      <trkpt lat="46.28422" lon="-1.07856">
        <ele>44.989326</ele>
        <time>2022-12-19T15:17:10.361Z</time>
      </trkpt>
      <trkpt lat="46.28414" lon="-1.07846">
        <ele>45.03467</ele>
        <time>2022-12-19T15:17:13.379Z</time>
      </trkpt>
      <trkpt lat="46.28405" lon="-1.07835">
        <ele>45.082231</ele>
        <time>2022-12-19T15:17:16.378Z</time>
      </trkpt>
      <trkpt lat="46.28396" lon="-1.07824">
        <ele>45.129113</ele>
        <time>2022-12-19T15:17:19.379Z</time>
      </trkpt>
      <trkpt lat="46.28387" lon="-1.07813">
        <ele>45.175134</ele>
        <time>2022-12-19T15:17:22.379Z</time>
      </trkpt>
      <trkpt lat="46.28378" lon="-1.07803">
        <ele>45.222737</ele>
        <time>2022-12-19T15:17:25.376Z</time>
      </trkpt>
      <trkpt lat="46.2837" lon="-1.07792">
        <ele>45.269188</ele>
        <time>2022-12-19T15:17:28.358Z</time>
      </trkpt>
      <trkpt lat="46.28361" lon="-1.07781">
        <ele>45.314772</ele>
        <time>2022-12-19T15:17:31.376Z</time>
      </trkpt>
      <trkpt lat="46.28353" lon="-1.07772">
        <ele>45.359222</ele>
        <time>2022-12-19T15:17:34.374Z</time>
      </trkpt>
      <trkpt lat="46.28345" lon="-1.07762">
        <ele>45.40191</ele>
        <time>2022-12-19T15:17:37.377Z</time>
      </trkpt>
      <trkpt lat="46.28337" lon="-1.07752">
        <ele>45.444103</ele>
        <time>2022-12-19T15:17:40.378Z</time>
      </trkpt>
      <trkpt lat="46.28329" lon="-1.07743">
        <ele>45.463996</ele>
        <time>2022-12-19T15:17:43.376Z</time>
      </trkpt>
      <trkpt lat="46.2832" lon="-1.07732">
        <ele>45.413408</ele>
        <time>2022-12-19T15:17:47.378Z</time>
      </trkpt>
      <trkpt lat="46.28313" lon="-1.07723">
        <ele>45.37414</ele>
        <time>2022-12-19T15:17:50.357Z</time>
      </trkpt>
      <trkpt lat="46.28306" lon="-1.07714">
        <ele>45.331909</ele>
        <time>2022-12-19T15:17:53.378Z</time>
      </trkpt>
      <trkpt lat="46.28298" lon="-1.07704">
        <ele>45.286067</ele>
        <time>2022-12-19T15:17:56.379Z</time>
      </trkpt>
      <trkpt lat="46.2829" lon="-1.07694">
        <ele>45.237786</ele>
        <time>2022-12-19T15:17:59.378Z</time>
      </trkpt>
      <trkpt lat="46.28281" lon="-1.07684">
        <ele>45.190752</ele>
        <time>2022-12-19T15:18:02.386Z</time>
      </trkpt>
      <trkpt lat="46.28273" lon="-1.07674">
        <ele>45.143524</ele>
        <time>2022-12-19T15:18:05.381Z</time>
      </trkpt>
      <trkpt lat="46.28265" lon="-1.07663">
        <ele>45.095315</ele>
        <time>2022-12-19T15:18:08.378Z</time>
      </trkpt>
      <trkpt lat="46.28257" lon="-1.07653">
        <ele>45.048663</ele>
        <time>2022-12-19T15:18:11.381Z</time>
      </trkpt>
      <trkpt lat="46.28248" lon="-1.07643">
        <ele>45.001242</ele>
        <time>2022-12-19T15:18:14.378Z</time>
      </trkpt>
      <trkpt lat="46.2824" lon="-1.07633">
        <ele>44.954927</ele>
        <time>2022-12-19T15:18:17.381Z</time>
      </trkpt>
      <trkpt lat="46.28232" lon="-1.07623">
        <ele>44.908226</ele>
        <time>2022-12-19T15:18:20.380Z</time>
      </trkpt>
      <trkpt lat="46.28223" lon="-1.07613">
        <ele>44.861047</ele>
        <time>2022-12-19T15:18:23.379Z</time>
      </trkpt>
      <trkpt lat="46.28215" lon="-1.07603">
        <ele>44.812903</ele>
        <time>2022-12-19T15:18:26.380Z</time>
      </trkpt>
      <trkpt lat="46.28207" lon="-1.07592">
        <ele>44.764527</ele>
        <time>2022-12-19T15:18:29.376Z</time>
      </trkpt>
      <trkpt lat="46.28199" lon="-1.07582">
        <ele>44.718099</ele>
        <time>2022-12-19T15:18:32.386Z</time>
      </trkpt>
      <trkpt lat="46.2819" lon="-1.07572">
        <ele>44.697982</ele>
        <time>2022-12-19T15:18:35.358Z</time>
      </trkpt>
      <trkpt lat="46.28181" lon="-1.07561">
        <ele>44.710383</ele>
        <time>2022-12-19T15:18:38.380Z</time>
      </trkpt>
      <trkpt lat="46.28173" lon="-1.07551">
        <ele>44.722246</ele>
        <time>2022-12-19T15:18:41.379Z</time>
      </trkpt>
      <trkpt lat="46.28165" lon="-1.0754">
        <ele>44.733769</ele>
        <time>2022-12-19T15:18:44.378Z</time>
      </trkpt>
      <trkpt lat="46.28157" lon="-1.07531">
        <ele>44.744852</ele>
        <time>2022-12-19T15:18:47.379Z</time>
      </trkpt>
      <trkpt lat="46.28149" lon="-1.07521">
        <ele>44.755971</ele>
        <time>2022-12-19T15:18:50.380Z</time>
      </trkpt>
      <trkpt lat="46.28141" lon="-1.07511">
        <ele>44.76728</ele>
        <time>2022-12-19T15:18:53.382Z</time>
      </trkpt>
      <trkpt lat="46.28133" lon="-1.07502">
        <ele>44.778576</ele>
        <time>2022-12-19T15:18:56.379Z</time>
      </trkpt>
      <trkpt lat="46.28125" lon="-1.07491">
        <ele>44.79065</ele>
        <time>2022-12-19T15:18:59.379Z</time>
      </trkpt>
      <trkpt lat="46.28117" lon="-1.07481">
        <ele>44.801764</ele>
        <time>2022-12-19T15:19:02.380Z</time>
      </trkpt>
      <trkpt lat="46.28108" lon="-1.07471">
        <ele>44.813875</ele>
        <time>2022-12-19T15:19:06.379Z</time>
      </trkpt>
      <trkpt lat="46.28101" lon="-1.07463">
        <ele>44.823962</ele>
        <time>2022-12-19T15:19:09.367Z</time>
      </trkpt>
      <trkpt lat="46.28094" lon="-1.07453">
        <ele>44.834604</ele>
        <time>2022-12-19T15:19:12.378Z</time>
      </trkpt>
      <trkpt lat="46.28086" lon="-1.07443">
        <ele>44.845868</ele>
        <time>2022-12-19T15:19:15.360Z</time>
      </trkpt>
      <trkpt lat="46.28078" lon="-1.07433">
        <ele>44.857241</ele>
        <time>2022-12-19T15:19:18.371Z</time>
      </trkpt>
      <trkpt lat="46.2807" lon="-1.07423">
        <ele>44.868613</ele>
        <time>2022-12-19T15:19:21.378Z</time>
      </trkpt>
      <trkpt lat="46.28062" lon="-1.07413">
        <ele>44.880508</ele>
        <time>2022-12-19T15:19:24.380Z</time>
      </trkpt>
      <trkpt lat="46.28053" lon="-1.07402">
        <ele>44.884104</ele>
        <time>2022-12-19T15:19:27.378Z</time>
      </trkpt>
      <trkpt lat="46.28045" lon="-1.07392">
        <ele>44.8801</ele>
        <time>2022-12-19T15:19:30.379Z</time>
      </trkpt>
      <trkpt lat="46.28037" lon="-1.07382">
        <ele>44.876026</ele>
        <time>2022-12-19T15:19:33.378Z</time>
      </trkpt>
      <trkpt lat="46.28029" lon="-1.07372">
        <ele>44.87197</ele>
        <time>2022-12-19T15:19:36.369Z</time>
      </trkpt>
      <trkpt lat="46.2802" lon="-1.07361">
        <ele>44.867691</ele>
        <time>2022-12-19T15:19:39.377Z</time>
      </trkpt>
      <trkpt lat="46.28012" lon="-1.0735">
        <ele>44.863337</ele>
        <time>2022-12-19T15:19:42.376Z</time>
      </trkpt>
      <trkpt lat="46.28003" lon="-1.0734">
        <ele>44.859095</ele>
        <time>2022-12-19T15:19:45.376Z</time>
      </trkpt>
      <trkpt lat="46.27994" lon="-1.0733">
        <ele>44.854946</ele>
        <time>2022-12-19T15:19:48.369Z</time>
      </trkpt>
      <trkpt lat="46.27986" lon="-1.0732">
        <ele>44.850839</ele>
        <time>2022-12-19T15:19:51.373Z</time>
      </trkpt>
      <trkpt lat="46.27978" lon="-1.0731">
        <ele>44.84676</ele>
        <time>2022-12-19T15:19:54.382Z</time>
      </trkpt>
      <trkpt lat="46.27969" lon="-1.07299">
        <ele>44.842377</ele>
        <time>2022-12-19T15:19:57.360Z</time>
      </trkpt>
      <trkpt lat="46.27961" lon="-1.07288">
        <ele>44.838149</ele>
        <time>2022-12-19T15:20:00.373Z</time>
      </trkpt>
      <trkpt lat="46.27954" lon="-1.0728">
        <ele>44.834743</ele>
        <time>2022-12-19T15:20:03.377Z</time>
      </trkpt>
      <trkpt lat="46.27945" lon="-1.0727">
        <ele>44.830658</ele>
        <time>2022-12-19T15:20:07.370Z</time>
      </trkpt>
      <trkpt lat="46.27938" lon="-1.07261">
        <ele>44.826926</ele>
        <time>2022-12-19T15:20:10.361Z</time>
      </trkpt>
      <trkpt lat="46.2793" lon="-1.07252">
        <ele>44.823127</ele>
        <time>2022-12-19T15:20:13.380Z</time>
      </trkpt>
      <trkpt lat="46.27922" lon="-1.07243">
        <ele>44.819299</ele>
        <time>2022-12-19T15:20:16.371Z</time>
      </trkpt>
      <trkpt lat="46.27914" lon="-1.07233">
        <ele>44.811903</ele>
        <time>2022-12-19T15:20:19.368Z</time>
      </trkpt>
      <trkpt lat="46.27906" lon="-1.07223">
        <ele>44.803343</ele>
        <time>2022-12-19T15:20:22.381Z</time>
      </trkpt>
      <trkpt lat="46.27898" lon="-1.07214">
        <ele>44.795202</ele>
        <time>2022-12-19T15:20:25.377Z</time>
      </trkpt>
      <trkpt lat="46.27891" lon="-1.07205">
        <ele>44.78697</ele>
        <time>2022-12-19T15:20:28.380Z</time>
      </trkpt>
      <trkpt lat="46.27883" lon="-1.07196">
        <ele>44.778954</ele>
        <time>2022-12-19T15:20:31.374Z</time>
      </trkpt>
      <trkpt lat="46.27875" lon="-1.07187">
        <ele>44.770423</ele>
        <time>2022-12-19T15:20:34.355Z</time>
      </trkpt>
      <trkpt lat="46.27867" lon="-1.07177">
        <ele>44.761628</ele>
        <time>2022-12-19T15:20:37.382Z</time>
      </trkpt>
      <trkpt lat="46.27859" lon="-1.07167">
        <ele>44.752905</ele>
        <time>2022-12-19T15:20:40.378Z</time>
      </trkpt>
      <trkpt lat="46.2785" lon="-1.07157">
        <ele>44.743968</ele>
        <time>2022-12-19T15:20:43.363Z</time>
      </trkpt>
      <trkpt lat="46.27842" lon="-1.07147">
        <ele>44.735428</ele>
        <time>2022-12-19T15:20:46.354Z</time>
      </trkpt>
      <trkpt lat="46.27834" lon="-1.07138">
        <ele>44.726634</ele>
        <time>2022-12-19T15:20:49.383Z</time>
      </trkpt>
      <trkpt lat="46.27826" lon="-1.07128">
        <ele>44.717932</ele>
        <time>2022-12-19T15:20:52.377Z</time>
      </trkpt>
      <trkpt lat="46.27818" lon="-1.07119">
        <ele>44.709779</ele>
        <time>2022-12-19T15:20:55.358Z</time>
      </trkpt>
      <trkpt lat="46.2781" lon="-1.07109">
        <ele>44.701013</ele>
        <time>2022-12-19T15:20:59.380Z</time>
      </trkpt>
      <trkpt lat="46.27801" lon="-1.07099">
        <ele>44.691954</ele>
        <time>2022-12-19T15:21:03.387Z</time>
      </trkpt>
      <trkpt lat="46.27794" lon="-1.07091">
        <ele>44.684355</ele>
        <time>2022-12-19T15:21:06.378Z</time>
      </trkpt>
      <trkpt lat="46.27787" lon="-1.07082">
        <ele>44.676674</ele>
        <time>2022-12-19T15:21:09.377Z</time>
      </trkpt>
      <trkpt lat="46.27779" lon="-1.07073">
        <ele>44.667593</ele>
        <time>2022-12-19T15:21:12.372Z</time>
      </trkpt>
      <trkpt lat="46.27772" lon="-1.07063">
        <ele>44.653723</ele>
        <time>2022-12-19T15:21:15.356Z</time>
      </trkpt>
      <trkpt lat="46.27764" lon="-1.07055">
        <ele>44.639889</ele>
        <time>2022-12-19T15:21:18.377Z</time>
      </trkpt>
      <trkpt lat="46.27757" lon="-1.07046">
        <ele>44.625981</ele>
        <time>2022-12-19T15:21:21.378Z</time>
      </trkpt>
      <trkpt lat="46.27749" lon="-1.07036">
        <ele>44.611622</ele>
        <time>2022-12-19T15:21:24.390Z</time>
      </trkpt>
      <trkpt lat="46.27741" lon="-1.07027">
        <ele>44.597263</ele>
        <time>2022-12-19T15:21:27.354Z</time>
      </trkpt>
      <trkpt lat="46.27733" lon="-1.07018">
        <ele>44.583489</ele>
        <time>2022-12-19T15:21:30.377Z</time>
      </trkpt>
      <trkpt lat="46.27725" lon="-1.07008">
        <ele>44.567454</ele>
        <time>2022-12-19T15:21:34.377Z</time>
      </trkpt>
      <trkpt lat="46.27717" lon="-1.06999">
        <ele>44.554253</ele>
        <time>2022-12-19T15:21:37.380Z</time>
      </trkpt>
      <trkpt lat="46.2771" lon="-1.0699">
        <ele>44.540298</ele>
        <time>2022-12-19T15:21:40.373Z</time>
      </trkpt>
      <trkpt lat="46.27702" lon="-1.06981">
        <ele>44.525797</ele>
        <time>2022-12-19T15:21:43.378Z</time>
      </trkpt>
      <trkpt lat="46.27694" lon="-1.0697">
        <ele>44.510657</ele>
        <time>2022-12-19T15:21:46.376Z</time>
      </trkpt>
      <trkpt lat="46.27686" lon="-1.06962">
        <ele>44.497556</ele>
        <time>2022-12-19T15:21:49.380Z</time>
      </trkpt>
      <trkpt lat="46.27677" lon="-1.06951">
        <ele>44.480401</ele>
        <time>2022-12-19T15:21:53.366Z</time>
      </trkpt>
      <trkpt lat="46.2767" lon="-1.06942">
        <ele>44.466835</ele>
        <time>2022-12-19T15:21:56.378Z</time>
      </trkpt>
      <trkpt lat="46.27662" lon="-1.06932">
        <ele>44.45244</ele>
        <time>2022-12-19T15:21:59.378Z</time>
      </trkpt>
      <trkpt lat="46.27654" lon="-1.06923">
        <ele>44.437507</ele>
        <time>2022-12-19T15:22:02.380Z</time>
      </trkpt>
      <trkpt lat="46.27645" lon="-1.06913">
        <ele>44.422476</ele>
        <time>2022-12-19T15:22:05.379Z</time>
      </trkpt>
      <trkpt lat="46.27637" lon="-1.06904">
        <ele>44.437785</ele>
        <time>2022-12-19T15:22:08.374Z</time>
      </trkpt>
      <trkpt lat="46.27628" lon="-1.06894">
        <ele>44.473128</ele>
        <time>2022-12-19T15:22:11.383Z</time>
      </trkpt>
      <trkpt lat="46.27619" lon="-1.06884">
        <ele>44.508832</ele>
        <time>2022-12-19T15:22:14.364Z</time>
      </trkpt>
      <trkpt lat="46.2761" lon="-1.06875">
        <ele>44.544407</ele>
        <time>2022-12-19T15:22:17.378Z</time>
      </trkpt>
      <trkpt lat="46.27601" lon="-1.06866">
        <ele>44.580506</ele>
        <time>2022-12-19T15:22:20.377Z</time>
      </trkpt>
      <trkpt lat="46.27591" lon="-1.06857">
        <ele>44.617301</ele>
        <time>2022-12-19T15:22:23.360Z</time>
      </trkpt>
      <trkpt lat="46.27581" lon="-1.06849">
        <ele>44.652631</ele>
        <time>2022-12-19T15:22:26.375Z</time>
      </trkpt>
      <trkpt lat="46.27573" lon="-1.06842">
        <ele>44.684591</ele>
        <time>2022-12-19T15:22:29.356Z</time>
      </trkpt>
      <trkpt lat="46.27563" lon="-1.06835">
        <ele>44.718066</ele>
        <time>2022-12-19T15:22:32.384Z</time>
      </trkpt>
      <trkpt lat="46.27553" lon="-1.06829">
        <ele>44.753225</ele>
        <time>2022-12-19T15:22:35.357Z</time>
      </trkpt>
      <trkpt lat="46.27542" lon="-1.06824">
        <ele>44.789483</ele>
        <time>2022-12-19T15:22:38.384Z</time>
      </trkpt>
      <trkpt lat="46.27532" lon="-1.06818">
        <ele>44.824993</ele>
        <time>2022-12-19T15:22:41.379Z</time>
      </trkpt>
      <trkpt lat="46.27521" lon="-1.06814">
        <ele>44.859917</ele>
        <time>2022-12-19T15:22:44.378Z</time>
      </trkpt>
      <trkpt lat="46.27511" lon="-1.0681">
        <ele>44.894088</ele>
        <time>2022-12-19T15:22:47.380Z</time>
      </trkpt>
      <trkpt lat="46.27501" lon="-1.06807">
        <ele>44.927552</ele>
        <time>2022-12-19T15:22:50.379Z</time>
      </trkpt>
      <trkpt lat="46.27491" lon="-1.06805">
        <ele>44.95929</ele>
        <time>2022-12-19T15:22:53.381Z</time>
      </trkpt>
      <trkpt lat="46.27481" lon="-1.06803">
        <ele>44.989856</ele>
        <time>2022-12-19T15:22:56.352Z</time>
      </trkpt>
      <trkpt lat="46.27472" lon="-1.06802">
        <ele>45.039669</ele>
        <time>2022-12-19T15:22:59.380Z</time>
      </trkpt>
      <trkpt lat="46.27462" lon="-1.06801">
        <ele>45.090416</ele>
        <time>2022-12-19T15:23:02.377Z</time>
      </trkpt>
      <trkpt lat="46.27452" lon="-1.068">
        <ele>45.142243</ele>
        <time>2022-12-19T15:23:05.380Z</time>
      </trkpt>
      <trkpt lat="46.27443" lon="-1.068">
        <ele>45.19231</ele>
        <time>2022-12-19T15:23:08.361Z</time>
      </trkpt>
      <trkpt lat="46.27433" lon="-1.06799">
        <ele>45.244511</ele>
        <time>2022-12-19T15:23:11.381Z</time>
      </trkpt>
      <trkpt lat="46.27423" lon="-1.06799">
        <ele>45.297309</ele>
        <time>2022-12-19T15:23:14.379Z</time>
      </trkpt>
      <trkpt lat="46.27413" lon="-1.06798">
        <ele>45.347962</ele>
        <time>2022-12-19T15:23:17.380Z</time>
      </trkpt>
      <trkpt lat="46.27404" lon="-1.06797">
        <ele>45.399636</ele>
        <time>2022-12-19T15:23:20.377Z</time>
      </trkpt>
      <trkpt lat="46.27394" lon="-1.06797">
        <ele>45.452394</ele>
        <time>2022-12-19T15:23:23.362Z</time>
      </trkpt>
      <trkpt lat="46.27384" lon="-1.06797">
        <ele>45.505622</ele>
        <time>2022-12-19T15:23:26.379Z</time>
      </trkpt>
      <trkpt lat="46.27374" lon="-1.06797">
        <ele>45.55727</ele>
        <time>2022-12-19T15:23:29.381Z</time>
      </trkpt>
      <trkpt lat="46.27364" lon="-1.06796">
        <ele>45.609067</ele>
        <time>2022-12-19T15:23:32.382Z</time>
      </trkpt>
      <trkpt lat="46.27353" lon="-1.06795">
        <ele>45.667652</ele>
        <time>2022-12-19T15:23:35.377Z</time>
      </trkpt>
      <trkpt lat="46.27343" lon="-1.06794">
        <ele>45.72045</ele>
        <time>2022-12-19T15:23:38.378Z</time>
      </trkpt>
      <trkpt lat="46.27332" lon="-1.06793">
        <ele>45.779525</ele>
        <time>2022-12-19T15:23:42.379Z</time>
      </trkpt>
      <trkpt lat="46.27322" lon="-1.06792">
        <ele>45.829746</ele>
        <time>2022-12-19T15:24:00.364Z</time>
      </trkpt>
      <trkpt lat="46.27312" lon="-1.0679">
        <ele>45.881759</ele>
        <time>2022-12-19T15:24:04.363Z</time>
      </trkpt>
      <trkpt lat="46.27303" lon="-1.0679">
        <ele>45.932886</ele>
        <time>2022-12-19T15:24:07.378Z</time>
      </trkpt>
      <trkpt lat="46.27292" lon="-1.06789">
        <ele>45.945682</ele>
        <time>2022-12-19T15:24:10.381Z</time>
      </trkpt>
      <trkpt lat="46.27282" lon="-1.06789">
        <ele>45.953516</ele>
        <time>2022-12-19T15:24:13.383Z</time>
      </trkpt>
      <trkpt lat="46.27272" lon="-1.06788">
        <ele>45.960755</ele>
        <time>2022-12-19T15:24:16.379Z</time>
      </trkpt>
      <trkpt lat="46.27261" lon="-1.06787">
        <ele>45.968822</ele>
        <time>2022-12-19T15:24:19.360Z</time>
      </trkpt>
      <trkpt lat="46.2725" lon="-1.06787">
        <ele>45.977174</ele>
        <time>2022-12-19T15:24:22.379Z</time>
      </trkpt>
      <trkpt lat="46.27239" lon="-1.06786">
        <ele>45.985303</ele>
        <time>2022-12-19T15:24:25.365Z</time>
      </trkpt>
      <trkpt lat="46.27228" lon="-1.06785">
        <ele>45.99345</ele>
        <time>2022-12-19T15:24:28.353Z</time>
      </trkpt>
      <trkpt lat="46.27217" lon="-1.06784">
        <ele>46.001362</ele>
        <time>2022-12-19T15:24:31.371Z</time>
      </trkpt>
      <trkpt lat="46.27206" lon="-1.06784">
        <ele>46.009275</ele>
        <time>2022-12-19T15:24:34.375Z</time>
      </trkpt>
      <trkpt lat="46.27197" lon="-1.06783">
        <ele>46.016532</ele>
        <time>2022-12-19T15:24:37.363Z</time>
      </trkpt>
      <trkpt lat="46.27186" lon="-1.06783">
        <ele>46.024213</ele>
        <time>2022-12-19T15:24:40.379Z</time>
      </trkpt>
      <trkpt lat="46.27176" lon="-1.06782">
        <ele>46.032127</ele>
        <time>2022-12-19T15:24:43.381Z</time>
      </trkpt>
      <trkpt lat="46.27165" lon="-1.06781">
        <ele>46.039884</ele>
        <time>2022-12-19T15:24:46.358Z</time>
      </trkpt>
      <trkpt lat="46.27155" lon="-1.0678">
        <ele>46.047516</ele>
        <time>2022-12-19T15:24:49.370Z</time>
      </trkpt>
      <trkpt lat="46.27144" lon="-1.0678">
        <ele>46.055204</ele>
        <time>2022-12-19T15:24:52.362Z</time>
      </trkpt>
      <trkpt lat="46.27134" lon="-1.06779">
        <ele>46.062826</ele>
        <time>2022-12-19T15:24:55.381Z</time>
      </trkpt>
      <trkpt lat="46.27123" lon="-1.06778">
        <ele>46.070739</ele>
        <time>2022-12-19T15:24:58.364Z</time>
      </trkpt>
      <trkpt lat="46.27114" lon="-1.06778">
        <ele>46.054783</ele>
        <time>2022-12-19T15:25:01.362Z</time>
      </trkpt>
      <trkpt lat="46.27104" lon="-1.06778">
        <ele>46.034201</ele>
        <time>2022-12-19T15:25:04.383Z</time>
      </trkpt>
      <trkpt lat="46.27094" lon="-1.06779">
        <ele>46.013269</ele>
        <time>2022-12-19T15:25:07.362Z</time>
      </trkpt>
      <trkpt lat="46.27085" lon="-1.06778">
        <ele>45.994037</ele>
        <time>2022-12-19T15:25:10.355Z</time>
      </trkpt>
      <trkpt lat="46.27072" lon="-1.06778">
        <ele>45.96888</ele>
        <time>2022-12-19T15:25:14.392Z</time>
      </trkpt>
      <trkpt lat="46.27063" lon="-1.06776">
        <ele>45.949106</ele>
        <time>2022-12-19T15:25:17.360Z</time>
      </trkpt>
      <trkpt lat="46.27054" lon="-1.06775">
        <ele>45.929926</ele>
        <time>2022-12-19T15:25:20.354Z</time>
      </trkpt>
      <trkpt lat="46.27044" lon="-1.06773">
        <ele>45.908404</ele>
        <time>2022-12-19T15:25:23.379Z</time>
      </trkpt>
      <trkpt lat="46.27033" lon="-1.06773">
        <ele>45.885535</ele>
        <time>2022-12-19T15:25:26.354Z</time>
      </trkpt>
      <trkpt lat="46.27021" lon="-1.06772">
        <ele>45.862015</ele>
        <time>2022-12-19T15:25:29.359Z</time>
      </trkpt>
      <trkpt lat="46.27011" lon="-1.06772">
        <ele>45.839747</ele>
        <time>2022-12-19T15:25:32.380Z</time>
      </trkpt>
      <trkpt lat="46.27001" lon="-1.06771">
        <ele>45.818918</ele>
        <time>2022-12-19T15:25:35.378Z</time>
      </trkpt>
      <trkpt lat="46.2699" lon="-1.0677">
        <ele>45.79622</ele>
        <time>2022-12-19T15:25:38.353Z</time>
      </trkpt>
      <trkpt lat="46.26979" lon="-1.06769">
        <ele>45.77333</ele>
        <time>2022-12-19T15:25:41.380Z</time>
      </trkpt>
      <trkpt lat="46.26967" lon="-1.06768">
        <ele>45.749763</ele>
        <time>2022-12-19T15:25:44.378Z</time>
      </trkpt>
      <trkpt lat="46.26956" lon="-1.06767">
        <ele>45.727091</ele>
        <time>2022-12-19T15:25:47.379Z</time>
      </trkpt>
      <trkpt lat="46.26946" lon="-1.06767">
        <ele>45.704419</ele>
        <time>2022-12-19T15:25:50.374Z</time>
      </trkpt>
      <trkpt lat="46.26935" lon="-1.06766">
        <ele>45.705649</ele>
        <time>2022-12-19T15:25:53.376Z</time>
      </trkpt>
      <trkpt lat="46.26925" lon="-1.06765">
        <ele>45.716417</ele>
        <time>2022-12-19T15:25:56.363Z</time>
      </trkpt>
      <trkpt lat="46.26915" lon="-1.06765">
        <ele>45.727082</ele>
        <time>2022-12-19T15:25:59.381Z</time>
      </trkpt>
      <trkpt lat="46.26905" lon="-1.06764">
        <ele>45.737323</ele>
        <time>2022-12-19T15:26:02.382Z</time>
      </trkpt>
      <trkpt lat="46.26895" lon="-1.06764">
        <ele>45.747784</ele>
        <time>2022-12-19T15:26:05.381Z</time>
      </trkpt>
      <trkpt lat="46.26883" lon="-1.06763">
        <ele>45.759804</ele>
        <time>2022-12-19T15:26:09.379Z</time>
      </trkpt>
      <trkpt lat="46.26874" lon="-1.06762">
        <ele>45.769878</ele>
        <time>2022-12-19T15:26:12.379Z</time>
      </trkpt>
      <trkpt lat="46.26863" lon="-1.06761">
        <ele>45.780759</ele>
        <time>2022-12-19T15:26:15.357Z</time>
      </trkpt>
      <trkpt lat="46.26853" lon="-1.0676">
        <ele>45.791857</ele>
        <time>2022-12-19T15:26:18.374Z</time>
      </trkpt>
      <trkpt lat="46.26842" lon="-1.06759">
        <ele>45.803358</ele>
        <time>2022-12-19T15:26:21.374Z</time>
      </trkpt>
      <trkpt lat="46.26831" lon="-1.06759">
        <ele>45.814761</ele>
        <time>2022-12-19T15:26:24.358Z</time>
      </trkpt>
      <trkpt lat="46.2682" lon="-1.06758">
        <ele>45.825959</ele>
        <time>2022-12-19T15:26:27.362Z</time>
      </trkpt>
      <trkpt lat="46.26809" lon="-1.06757">
        <ele>45.837271</ele>
        <time>2022-12-19T15:26:30.379Z</time>
      </trkpt>
      <trkpt lat="46.26798" lon="-1.06756">
        <ele>45.848667</ele>
        <time>2022-12-19T15:26:33.361Z</time>
      </trkpt>
      <trkpt lat="46.26787" lon="-1.06756">
        <ele>45.860162</ele>
        <time>2022-12-19T15:26:36.377Z</time>
      </trkpt>
      <trkpt lat="46.26777" lon="-1.06755">
        <ele>45.871474</ele>
        <time>2022-12-19T15:26:39.376Z</time>
      </trkpt>
      <trkpt lat="46.26766" lon="-1.06754">
        <ele>45.882994</ele>
        <time>2022-12-19T15:26:42.349Z</time>
      </trkpt>
      <trkpt lat="46.26754" lon="-1.06753">
        <ele>45.881369</ele>
        <time>2022-12-19T15:26:45.375Z</time>
      </trkpt>
      <trkpt lat="46.26742" lon="-1.06752">
        <ele>45.875499</ele>
        <time>2022-12-19T15:26:48.360Z</time>
      </trkpt>
      <trkpt lat="46.26731" lon="-1.06751">
        <ele>45.870026</ele>
        <time>2022-12-19T15:26:51.383Z</time>
      </trkpt>
      <trkpt lat="46.2672" lon="-1.06751">
        <ele>45.864605</ele>
        <time>2022-12-19T15:26:54.384Z</time>
      </trkpt>
      <trkpt lat="46.26709" lon="-1.06749">
        <ele>45.859223</ele>
        <time>2022-12-19T15:26:57.373Z</time>
      </trkpt>
      <trkpt lat="46.26698" lon="-1.06749">
        <ele>45.853802</ele>
        <time>2022-12-19T15:27:00.371Z</time>
      </trkpt>
      <trkpt lat="46.26689" lon="-1.06749">
        <ele>45.849231</ele>
        <time>2022-12-19T15:27:03.380Z</time>
      </trkpt>
      <trkpt lat="46.26678" lon="-1.06748">
        <ele>45.843565</ele>
        <time>2022-12-19T15:27:07.383Z</time>
      </trkpt>
      <trkpt lat="46.26669" lon="-1.06747">
        <ele>45.838916</ele>
        <time>2022-12-19T15:27:10.355Z</time>
      </trkpt>
      <trkpt lat="46.26659" lon="-1.06746">
        <ele>45.834045</ele>
        <time>2022-12-19T15:27:13.377Z</time>
      </trkpt>
      <trkpt lat="46.26648" lon="-1.06745">
        <ele>45.82887</ele>
        <time>2022-12-19T15:27:16.381Z</time>
      </trkpt>
      <trkpt lat="46.26637" lon="-1.06745">
        <ele>45.823453</ele>
        <time>2022-12-19T15:27:19.387Z</time>
      </trkpt>
      <trkpt lat="46.26626" lon="-1.06744">
        <ele>45.817975</ele>
        <time>2022-12-19T15:27:22.380Z</time>
      </trkpt>
      <trkpt lat="46.26616" lon="-1.06743">
        <ele>45.812552</ele>
        <time>2022-12-19T15:27:25.378Z</time>
      </trkpt>
      <trkpt lat="46.26605" lon="-1.06742">
        <ele>45.807281</ele>
        <time>2022-12-19T15:27:28.378Z</time>
      </trkpt>
      <trkpt lat="46.26595" lon="-1.06742">
        <ele>45.802163</ele>
        <time>2022-12-19T15:27:31.376Z</time>
      </trkpt>
      <trkpt lat="46.26584" lon="-1.06742">
        <ele>45.797043</ele>
        <time>2022-12-19T15:27:34.364Z</time>
      </trkpt>
      <trkpt lat="46.26574" lon="-1.06741">
        <ele>45.785803</ele>
        <time>2022-12-19T15:27:37.377Z</time>
      </trkpt>
      <trkpt lat="46.26565" lon="-1.06741">
        <ele>45.774839</ele>
        <time>2022-12-19T15:27:40.374Z</time>
      </trkpt>
      <trkpt lat="46.26554" lon="-1.0674">
        <ele>45.761855</ele>
        <time>2022-12-19T15:27:44.356Z</time>
      </trkpt>
      <trkpt lat="46.26542" lon="-1.06739">
        <ele>45.74783</ele>
        <time>2022-12-19T15:27:48.378Z</time>
      </trkpt>
      <trkpt lat="46.26532" lon="-1.06738">
        <ele>45.735885</ele>
        <time>2022-12-19T15:27:51.357Z</time>
      </trkpt>
      <trkpt lat="46.26521" lon="-1.06737">
        <ele>45.72338</ele>
        <time>2022-12-19T15:27:54.379Z</time>
      </trkpt>
      <trkpt lat="46.26511" lon="-1.06736">
        <ele>45.710876</ele>
        <time>2022-12-19T15:27:57.382Z</time>
      </trkpt>
      <trkpt lat="46.26499" lon="-1.06735">
        <ele>45.69694</ele>
        <time>2022-12-19T15:28:01.387Z</time>
      </trkpt>
      <trkpt lat="46.26487" lon="-1.06734">
        <ele>45.682992</ele>
        <time>2022-12-19T15:28:05.378Z</time>
      </trkpt>
      <trkpt lat="46.26477" lon="-1.06733">
        <ele>45.671641</ele>
        <time>2022-12-19T15:28:08.380Z</time>
      </trkpt>
      <trkpt lat="46.26467" lon="-1.06732">
        <ele>45.659846</ele>
        <time>2022-12-19T15:28:11.365Z</time>
      </trkpt>
      <trkpt lat="46.26457" lon="-1.06731">
        <ele>45.647588</ele>
        <time>2022-12-19T15:28:14.379Z</time>
      </trkpt>
      <trkpt lat="46.26446" lon="-1.06731">
        <ele>45.634858</ele>
        <time>2022-12-19T15:28:17.382Z</time>
      </trkpt>
      <trkpt lat="46.26436" lon="-1.0673">
        <ele>45.622584</ele>
        <time>2022-12-19T15:28:20.377Z</time>
      </trkpt>
      <trkpt lat="46.26426" lon="-1.0673">
        <ele>45.61045</ele>
        <time>2022-12-19T15:28:23.357Z</time>
      </trkpt>
      <trkpt lat="46.26416" lon="-1.0673">
        <ele>45.599018</ele>
        <time>2022-12-19T15:28:26.376Z</time>
      </trkpt>
      <trkpt lat="46.26406" lon="-1.06729">
        <ele>45.587327</ele>
        <time>2022-12-19T15:28:29.360Z</time>
      </trkpt>
      <trkpt lat="46.26396" lon="-1.06729">
        <ele>45.652722</ele>
        <time>2022-12-19T15:28:32.363Z</time>
      </trkpt>
      <trkpt lat="46.26386" lon="-1.06728">
        <ele>45.747363</ele>
        <time>2022-12-19T15:28:35.357Z</time>
      </trkpt>
      <trkpt lat="46.26375" lon="-1.06727">
        <ele>45.844765</ele>
        <time>2022-12-19T15:28:38.377Z</time>
      </trkpt>
      <trkpt lat="46.26364" lon="-1.06725">
        <ele>45.944246</ele>
        <time>2022-12-19T15:28:41.379Z</time>
      </trkpt>
      <trkpt lat="46.26353" lon="-1.06725">
        <ele>46.043359</ele>
        <time>2022-12-19T15:28:44.363Z</time>
      </trkpt>
      <trkpt lat="46.26342" lon="-1.06724">
        <ele>46.138103</ele>
        <time>2022-12-19T15:28:47.378Z</time>
      </trkpt>
      <trkpt lat="46.26332" lon="-1.06724">
        <ele>46.226343</ele>
        <time>2022-12-19T15:28:50.378Z</time>
      </trkpt>
      <trkpt lat="46.26322" lon="-1.06724">
        <ele>46.320901</ele>
        <time>2022-12-19T15:28:54.374Z</time>
      </trkpt>
      <trkpt lat="46.26307" lon="-1.06723">
        <ele>46.456281</ele>
        <time>2022-12-19T15:30:59.360Z</time>
      </trkpt>
      <trkpt lat="46.26298" lon="-1.06722">
        <ele>46.540999</ele>
        <time>2022-12-19T15:31:03.379Z</time>
      </trkpt>
      <trkpt lat="46.26289" lon="-1.06721">
        <ele>46.622322</ele>
        <time>2022-12-19T15:31:06.378Z</time>
      </trkpt>
      <trkpt lat="46.26279" lon="-1.0672">
        <ele>46.711772</ele>
        <time>2022-12-19T15:31:09.381Z</time>
      </trkpt>
      <trkpt lat="46.26268" lon="-1.06718">
        <ele>46.806008</ele>
        <time>2022-12-19T15:31:12.381Z</time>
      </trkpt>
      <trkpt lat="46.26257" lon="-1.06716">
        <ele>46.907616</ele>
        <time>2022-12-19T15:31:15.379Z</time>
      </trkpt>
      <trkpt lat="46.26245" lon="-1.06715">
        <ele>47.016818</ele>
        <time>2022-12-19T15:31:18.380Z</time>
      </trkpt>
      <trkpt lat="46.26233" lon="-1.06713">
        <ele>47.120782</ele>
        <time>2022-12-19T15:31:21.367Z</time>
      </trkpt>
      <trkpt lat="46.26223" lon="-1.06712">
        <ele>47.206825</ele>
        <time>2022-12-19T15:31:24.360Z</time>
      </trkpt>
      <trkpt lat="46.26212" lon="-1.06711">
        <ele>47.232047</ele>
        <time>2022-12-19T15:31:27.377Z</time>
      </trkpt>
      <trkpt lat="46.26201" lon="-1.0671">
        <ele>47.257509</ele>
        <time>2022-12-19T15:31:30.360Z</time>
      </trkpt>
      <trkpt lat="46.2619" lon="-1.06708">
        <ele>47.282319</ele>
        <time>2022-12-19T15:31:33.356Z</time>
      </trkpt>
      <trkpt lat="46.26181" lon="-1.06708">
        <ele>47.30519</ele>
        <time>2022-12-19T15:31:36.385Z</time>
      </trkpt>
      <trkpt lat="46.2617" lon="-1.06707">
        <ele>47.328592</ele>
        <time>2022-12-19T15:31:39.381Z</time>
      </trkpt>
      <trkpt lat="46.26161" lon="-1.06705">
        <ele>47.351385</ele>
        <time>2022-12-19T15:31:42.374Z</time>
      </trkpt>
      <trkpt lat="46.26151" lon="-1.06704">
        <ele>47.374801</ele>
        <time>2022-12-19T15:31:45.373Z</time>
      </trkpt>
      <trkpt lat="46.2614" lon="-1.06703">
        <ele>47.3991</ele>
        <time>2022-12-19T15:31:48.381Z</time>
      </trkpt>
      <trkpt lat="46.2613" lon="-1.06701">
        <ele>47.42283</ele>
        <time>2022-12-19T15:31:51.353Z</time>
      </trkpt>
      <trkpt lat="46.26119" lon="-1.06699">
        <ele>47.44764</ele>
        <time>2022-12-19T15:31:54.359Z</time>
      </trkpt>
      <trkpt lat="46.26109" lon="-1.06699">
        <ele>47.472136</ele>
        <time>2022-12-19T15:31:57.378Z</time>
      </trkpt>
      <trkpt lat="46.26098" lon="-1.06698">
        <ele>47.495999</ele>
        <time>2022-12-19T15:32:00.352Z</time>
      </trkpt>
      <trkpt lat="46.26088" lon="-1.06697">
        <ele>47.519838</ele>
        <time>2022-12-19T15:32:03.377Z</time>
      </trkpt>
      <trkpt lat="46.26078" lon="-1.06696">
        <ele>47.542514</ele>
        <time>2022-12-19T15:32:06.378Z</time>
      </trkpt>
      <trkpt lat="46.26068" lon="-1.06694">
        <ele>47.565715</ele>
        <time>2022-12-19T15:32:09.381Z</time>
      </trkpt>
      <trkpt lat="46.26058" lon="-1.06693">
        <ele>47.58936</ele>
        <time>2022-12-19T15:32:12.357Z</time>
      </trkpt>
      <trkpt lat="46.26048" lon="-1.06692">
        <ele>47.61298</ele>
        <time>2022-12-19T15:32:15.378Z</time>
      </trkpt>
      <trkpt lat="46.26037" lon="-1.0669">
        <ele>47.632113</ele>
        <time>2022-12-19T15:32:18.358Z</time>
      </trkpt>
      <trkpt lat="46.26027" lon="-1.0669">
        <ele>47.649048</ele>
        <time>2022-12-19T15:32:21.361Z</time>
      </trkpt>
      <trkpt lat="46.26017" lon="-1.06688">
        <ele>47.66547</ele>
        <time>2022-12-19T15:32:24.370Z</time>
      </trkpt>
      <trkpt lat="46.26007" lon="-1.06687">
        <ele>47.681442</ele>
        <time>2022-12-19T15:32:27.354Z</time>
      </trkpt>
      <trkpt lat="46.25996" lon="-1.06687">
        <ele>47.697906</ele>
        <time>2022-12-19T15:32:30.355Z</time>
      </trkpt>
      <trkpt lat="46.25986" lon="-1.06686">
        <ele>47.714085</ele>
        <time>2022-12-19T15:32:33.379Z</time>
      </trkpt>
      <trkpt lat="46.25976" lon="-1.06684">
        <ele>47.730605</ele>
        <time>2022-12-19T15:32:36.380Z</time>
      </trkpt>
      <trkpt lat="46.25966" lon="-1.06683">
        <ele>47.747249</ele>
        <time>2022-12-19T15:32:39.364Z</time>
      </trkpt>
      <trkpt lat="46.25956" lon="-1.06683">
        <ele>47.76306</ele>
        <time>2022-12-19T15:32:42.363Z</time>
      </trkpt>
      <trkpt lat="46.25946" lon="-1.06681">
        <ele>47.778974</ele>
        <time>2022-12-19T15:32:45.378Z</time>
      </trkpt>
      <trkpt lat="46.25937" lon="-1.0668">
        <ele>47.794485</ele>
        <time>2022-12-19T15:32:48.358Z</time>
      </trkpt>
      <trkpt lat="46.25926" lon="-1.06679">
        <ele>47.811594</ele>
        <time>2022-12-19T15:32:51.381Z</time>
      </trkpt>
      <trkpt lat="46.25915" lon="-1.06678">
        <ele>47.828875</ele>
        <time>2022-12-19T15:32:54.380Z</time>
      </trkpt>
      <trkpt lat="46.25905" lon="-1.06677">
        <ele>47.84634</ele>
        <time>2022-12-19T15:32:57.356Z</time>
      </trkpt>
      <trkpt lat="46.25894" lon="-1.06676">
        <ele>47.863974</ele>
        <time>2022-12-19T15:33:00.380Z</time>
      </trkpt>
      <trkpt lat="46.25883" lon="-1.06675">
        <ele>47.882074</ele>
        <time>2022-12-19T15:33:03.384Z</time>
      </trkpt>
      <trkpt lat="46.25872" lon="-1.06673">
        <ele>47.899899</ele>
        <time>2022-12-19T15:33:06.366Z</time>
      </trkpt>
      <trkpt lat="46.25861" lon="-1.06672">
        <ele>47.835687</ele>
        <time>2022-12-19T15:33:09.357Z</time>
      </trkpt>
      <trkpt lat="46.2585" lon="-1.0667">
        <ele>47.682442</ele>
        <time>2022-12-19T15:33:12.354Z</time>
      </trkpt>
      <trkpt lat="46.2584" lon="-1.06669">
        <ele>47.540124</ele>
        <time>2022-12-19T15:33:15.378Z</time>
      </trkpt>
      <trkpt lat="46.2583" lon="-1.06668">
        <ele>47.396237</ele>
        <time>2022-12-19T15:33:18.384Z</time>
      </trkpt>
      <trkpt lat="46.25819" lon="-1.06666">
        <ele>47.237519</ele>
        <time>2022-12-19T15:33:21.363Z</time>
      </trkpt>
      <trkpt lat="46.25808" lon="-1.06665">
        <ele>47.072097</ele>
        <time>2022-12-19T15:33:24.378Z</time>
      </trkpt>
      <trkpt lat="46.25796" lon="-1.06664">
        <ele>46.905311</ele>
        <time>2022-12-19T15:33:27.381Z</time>
      </trkpt>
      <trkpt lat="46.25784" lon="-1.06663">
        <ele>46.739648</ele>
        <time>2022-12-19T15:33:30.363Z</time>
      </trkpt>
      <trkpt lat="46.25773" lon="-1.06661">
        <ele>46.575582</ele>
        <time>2022-12-19T15:33:33.360Z</time>
      </trkpt>
      <trkpt lat="46.25761" lon="-1.0666">
        <ele>46.408575</ele>
        <time>2022-12-19T15:33:36.380Z</time>
      </trkpt>
      <trkpt lat="46.2575" lon="-1.06659">
        <ele>46.245858</ele>
        <time>2022-12-19T15:33:39.377Z</time>
      </trkpt>
      <trkpt lat="46.25739" lon="-1.06658">
        <ele>46.083431</ele>
        <time>2022-12-19T15:33:42.362Z</time>
      </trkpt>
      <trkpt lat="46.25728" lon="-1.06656">
        <ele>45.926242</ele>
        <time>2022-12-19T15:33:45.380Z</time>
      </trkpt>
      <trkpt lat="46.25717" lon="-1.06655">
        <ele>45.766383</ele>
        <time>2022-12-19T15:33:48.382Z</time>
      </trkpt>
      <trkpt lat="46.25706" lon="-1.06653">
        <ele>45.606435</ele>
        <time>2022-12-19T15:33:51.377Z</time>
      </trkpt>
      <trkpt lat="46.25695" lon="-1.06651">
        <ele>45.447717</ele>
        <time>2022-12-19T15:33:54.381Z</time>
      </trkpt>
      <trkpt lat="46.25684" lon="-1.0665">
        <ele>45.330263</ele>
        <time>2022-12-19T15:33:57.371Z</time>
      </trkpt>
      <trkpt lat="46.25673" lon="-1.06649">
        <ele>45.33671</ele>
        <time>2022-12-19T15:34:00.377Z</time>
      </trkpt>
      <trkpt lat="46.25662" lon="-1.06648">
        <ele>45.343041</ele>
        <time>2022-12-19T15:34:03.381Z</time>
      </trkpt>
      <trkpt lat="46.25651" lon="-1.06647">
        <ele>45.3495</ele>
        <time>2022-12-19T15:34:06.365Z</time>
      </trkpt>
      <trkpt lat="46.2564" lon="-1.06646">
        <ele>45.355947</ele>
        <time>2022-12-19T15:34:09.373Z</time>
      </trkpt>
      <trkpt lat="46.25629" lon="-1.06644">
        <ele>45.362321</ele>
        <time>2022-12-19T15:34:12.384Z</time>
      </trkpt>
      <trkpt lat="46.25618" lon="-1.06642">
        <ele>45.368719</ele>
        <time>2022-12-19T15:34:15.380Z</time>
      </trkpt>
      <trkpt lat="46.25607" lon="-1.06641">
        <ele>45.375304</ele>
        <time>2022-12-19T15:34:18.377Z</time>
      </trkpt>
      <trkpt lat="46.25595" lon="-1.06639">
        <ele>45.381875</ele>
        <time>2022-12-19T15:34:21.381Z</time>
      </trkpt>
      <trkpt lat="46.25584" lon="-1.06638">
        <ele>45.388559</ele>
        <time>2022-12-19T15:34:24.357Z</time>
      </trkpt>
      <trkpt lat="46.25572" lon="-1.06637">
        <ele>45.395293</ele>
        <time>2022-12-19T15:34:27.380Z</time>
      </trkpt>
      <trkpt lat="46.25561" lon="-1.06636">
        <ele>45.401918</ele>
        <time>2022-12-19T15:34:30.366Z</time>
      </trkpt>
      <trkpt lat="46.25551" lon="-1.06635">
        <ele>45.407838</ele>
        <time>2022-12-19T15:34:33.364Z</time>
      </trkpt>
      <trkpt lat="46.25541" lon="-1.06634">
        <ele>45.413528</ele>
        <time>2022-12-19T15:34:36.361Z</time>
      </trkpt>
      <trkpt lat="46.25531" lon="-1.06634">
        <ele>45.419328</ele>
        <time>2022-12-19T15:34:39.369Z</time>
      </trkpt>
      <trkpt lat="46.25521" lon="-1.06633">
        <ele>45.425136</ele>
        <time>2022-12-19T15:34:42.376Z</time>
      </trkpt>
      <trkpt lat="46.25511" lon="-1.06633">
        <ele>45.430817</ele>
        <time>2022-12-19T15:34:45.377Z</time>
      </trkpt>
      <trkpt lat="46.25502" lon="-1.06632">
        <ele>45.463423</ele>
        <time>2022-12-19T15:34:48.381Z</time>
      </trkpt>
      <trkpt lat="46.25492" lon="-1.06632">
        <ele>45.516378</ele>
        <time>2022-12-19T15:34:51.380Z</time>
      </trkpt>
      <trkpt lat="46.25482" lon="-1.06632">
        <ele>45.568762</ele>
        <time>2022-12-19T15:34:54.361Z</time>
      </trkpt>
      <trkpt lat="46.25473" lon="-1.06633">
        <ele>45.621718</ele>
        <time>2022-12-19T15:34:57.356Z</time>
      </trkpt>
      <trkpt lat="46.25463" lon="-1.06632">
        <ele>45.675192</ele>
        <time>2022-12-19T15:35:00.370Z</time>
      </trkpt>
      <trkpt lat="46.25453" lon="-1.06633">
        <ele>45.729254</ele>
        <time>2022-12-19T15:35:03.360Z</time>
      </trkpt>
      <trkpt lat="46.25443" lon="-1.06634">
        <ele>45.780614</ele>
        <time>2022-12-19T15:35:06.379Z</time>
      </trkpt>
      <trkpt lat="46.25434" lon="-1.06635">
        <ele>45.830422</ele>
        <time>2022-12-19T15:35:09.379Z</time>
      </trkpt>
      <trkpt lat="46.25423" lon="-1.06637">
        <ele>45.893945</ele>
        <time>2022-12-19T15:35:13.378Z</time>
      </trkpt>
      <trkpt lat="46.25411" lon="-1.06638">
        <ele>45.956861</ele>
        <time>2022-12-19T15:35:17.380Z</time>
      </trkpt>
      <trkpt lat="46.25402" lon="-1.06639">
        <ele>46.006861</ele>
        <time>2022-12-19T15:35:20.366Z</time>
      </trkpt>
      <trkpt lat="46.25391" lon="-1.06642">
        <ele>46.070776</ele>
        <time>2022-12-19T15:35:24.377Z</time>
      </trkpt>
      <trkpt lat="46.25379" lon="-1.06644">
        <ele>46.136037</ele>
        <time>2022-12-19T15:35:28.367Z</time>
      </trkpt>
      <trkpt lat="46.25369" lon="-1.06646">
        <ele>46.188887</ele>
        <time>2022-12-19T15:35:31.359Z</time>
      </trkpt>
      <trkpt lat="46.2536" lon="-1.06648">
        <ele>46.241018</ele>
        <time>2022-12-19T15:35:34.368Z</time>
      </trkpt>
      <trkpt lat="46.2535" lon="-1.0665">
        <ele>46.295708</ele>
        <time>2022-12-19T15:35:37.359Z</time>
      </trkpt>
      <trkpt lat="46.25341" lon="-1.06653">
        <ele>46.346632</ele>
        <time>2022-12-19T15:35:40.378Z</time>
      </trkpt>
      <trkpt lat="46.25332" lon="-1.06656">
        <ele>46.396725</ele>
        <time>2022-12-19T15:35:43.357Z</time>
      </trkpt>
      <trkpt lat="46.25323" lon="-1.0666">
        <ele>46.447691</ele>
        <time>2022-12-19T15:35:46.370Z</time>
      </trkpt>
      <trkpt lat="46.25314" lon="-1.06665">
        <ele>46.499413</ele>
        <time>2022-12-19T15:35:49.379Z</time>
      </trkpt>
      <trkpt lat="46.25305" lon="-1.0667">
        <ele>46.550435</ele>
        <time>2022-12-19T15:35:52.379Z</time>
      </trkpt>
      <trkpt lat="46.25296" lon="-1.06677">
        <ele>46.608368</ele>
        <time>2022-12-19T15:35:56.357Z</time>
      </trkpt>
      <trkpt lat="46.2529" lon="-1.06689">
        <ele>46.66707</ele>
        <time>2022-12-19T15:36:00.378Z</time>
      </trkpt>
      <trkpt lat="46.25282" lon="-1.06701">
        <ele>46.730592</ele>
        <time>2022-12-19T15:36:04.358Z</time>
      </trkpt>
      <trkpt lat="46.25272" lon="-1.06707">
        <ele>46.789839</ele>
        <time>2022-12-19T15:36:08.365Z</time>
      </trkpt>
      <trkpt lat="46.25261" lon="-1.06704">
        <ele>46.852013</ele>
        <time>2022-12-19T15:36:12.365Z</time>
      </trkpt>
      <trkpt lat="46.2525" lon="-1.06698">
        <ele>46.915837</ele>
        <time>2022-12-19T15:36:16.361Z</time>
      </trkpt>
      <trkpt lat="46.2524" lon="-1.06696">
        <ele>46.971977</ele>
        <time>2022-12-19T15:36:20.378Z</time>
      </trkpt>
      <trkpt lat="46.25231" lon="-1.06698">
        <ele>47.024117</ele>
        <time>2022-12-19T15:36:23.367Z</time>
      </trkpt>
      <trkpt lat="46.25221" lon="-1.06702">
        <ele>47.077526</ele>
        <time>2022-12-19T15:36:26.377Z</time>
      </trkpt>
      <trkpt lat="46.25212" lon="-1.06706">
        <ele>47.130064</ele>
        <time>2022-12-19T15:36:29.380Z</time>
      </trkpt>
      <trkpt lat="46.25203" lon="-1.06709">
        <ele>47.183829</ele>
        <time>2022-12-19T15:36:32.377Z</time>
      </trkpt>
      <trkpt lat="46.25193" lon="-1.06714">
        <ele>47.238003</ele>
        <time>2022-12-19T15:36:35.359Z</time>
      </trkpt>
      <trkpt lat="46.25185" lon="-1.0672">
        <ele>47.291152</ele>
        <time>2022-12-19T15:36:38.365Z</time>
      </trkpt>
      <trkpt lat="46.25176" lon="-1.06725">
        <ele>47.343551</ele>
        <time>2022-12-19T15:36:41.378Z</time>
      </trkpt>
      <trkpt lat="46.25167" lon="-1.0673">
        <ele>47.396813</ele>
        <time>2022-12-19T15:36:44.376Z</time>
      </trkpt>
      <trkpt lat="46.25158" lon="-1.06734">
        <ele>47.386823</ele>
        <time>2022-12-19T15:36:47.379Z</time>
      </trkpt>
      <trkpt lat="46.25148" lon="-1.06739">
        <ele>47.363613</ele>
        <time>2022-12-19T15:36:50.378Z</time>
      </trkpt>
      <trkpt lat="46.25139" lon="-1.06743">
        <ele>47.340479</ele>
        <time>2022-12-19T15:36:53.388Z</time>
      </trkpt>
      <trkpt lat="46.25128" lon="-1.06748">
        <ele>47.315179</ele>
        <time>2022-12-19T15:36:56.377Z</time>
      </trkpt>
      <trkpt lat="46.25118" lon="-1.06754">
        <ele>47.289714</ele>
        <time>2022-12-19T15:36:59.379Z</time>
      </trkpt>
      <trkpt lat="46.25107" lon="-1.0676">
        <ele>47.26343</ele>
        <time>2022-12-19T15:37:02.380Z</time>
      </trkpt>
      <trkpt lat="46.25097" lon="-1.06765">
        <ele>47.238887</ele>
        <time>2022-12-19T15:37:05.379Z</time>
      </trkpt>
      <trkpt lat="46.25089" lon="-1.0677">
        <ele>47.217711</ele>
        <time>2022-12-19T15:37:08.378Z</time>
      </trkpt>
      <trkpt lat="46.25078" lon="-1.06776">
        <ele>47.190506</ele>
        <time>2022-12-19T15:37:12.382Z</time>
      </trkpt>
      <trkpt lat="46.25068" lon="-1.06781">
        <ele>47.167051</ele>
        <time>2022-12-19T15:37:15.366Z</time>
      </trkpt>
      <trkpt lat="46.25058" lon="-1.06785">
        <ele>47.143055</ele>
        <time>2022-12-19T15:37:18.366Z</time>
      </trkpt>
      <trkpt lat="46.25048" lon="-1.06791">
        <ele>47.118027</ele>
        <time>2022-12-19T15:37:21.381Z</time>
      </trkpt>
      <trkpt lat="46.25038" lon="-1.06796">
        <ele>47.092445</ele>
        <time>2022-12-19T15:37:24.358Z</time>
      </trkpt>
      <trkpt lat="46.25027" lon="-1.06801">
        <ele>47.066819</ele>
        <time>2022-12-19T15:37:27.378Z</time>
      </trkpt>
      <trkpt lat="46.25017" lon="-1.06807">
        <ele>47.042276</ele>
        <time>2022-12-19T15:37:30.378Z</time>
      </trkpt>
      <trkpt lat="46.25008" lon="-1.06813">
        <ele>47.017435</ele>
        <time>2022-12-19T15:37:33.363Z</time>
      </trkpt>
      <trkpt lat="46.24997" lon="-1.06818">
        <ele>46.992122</ele>
        <time>2022-12-19T15:37:36.379Z</time>
      </trkpt>
      <trkpt lat="46.24987" lon="-1.06823">
        <ele>46.98528</ele>
        <time>2022-12-19T15:37:39.385Z</time>
      </trkpt>
      <trkpt lat="46.24977" lon="-1.06829">
        <ele>46.980684</ele>
        <time>2022-12-19T15:37:42.379Z</time>
      </trkpt>
      <trkpt lat="46.24967" lon="-1.06834">
        <ele>46.976239</ele>
        <time>2022-12-19T15:37:45.370Z</time>
      </trkpt>
      <trkpt lat="46.24957" lon="-1.06839">
        <ele>46.97198</ele>
        <time>2022-12-19T15:37:48.379Z</time>
      </trkpt>
      <trkpt lat="46.24947" lon="-1.06845">
        <ele>46.967533</ele>
        <time>2022-12-19T15:37:51.379Z</time>
      </trkpt>
      <trkpt lat="46.24937" lon="-1.0685">
        <ele>46.962881</ele>
        <time>2022-12-19T15:37:54.377Z</time>
      </trkpt>
      <trkpt lat="46.24927" lon="-1.06855">
        <ele>46.958375</ele>
        <time>2022-12-19T15:37:57.380Z</time>
      </trkpt>
      <trkpt lat="46.24916" lon="-1.0686">
        <ele>46.953811</ele>
        <time>2022-12-19T15:38:00.359Z</time>
      </trkpt>
      <trkpt lat="46.24906" lon="-1.06866">
        <ele>46.949155</ele>
        <time>2022-12-19T15:38:03.357Z</time>
      </trkpt>
      <trkpt lat="46.24895" lon="-1.06872">
        <ele>46.944444</ele>
        <time>2022-12-19T15:38:06.366Z</time>
      </trkpt>
      <trkpt lat="46.24885" lon="-1.06878">
        <ele>46.93977</ele>
        <time>2022-12-19T15:38:09.379Z</time>
      </trkpt>
      <trkpt lat="46.24874" lon="-1.06883">
        <ele>46.935039</ele>
        <time>2022-12-19T15:38:12.385Z</time>
      </trkpt>
      <trkpt lat="46.24864" lon="-1.06888">
        <ele>46.930356</ele>
        <time>2022-12-19T15:38:15.380Z</time>
      </trkpt>
      <trkpt lat="46.24853" lon="-1.06894">
        <ele>46.925516</ele>
        <time>2022-12-19T15:38:18.381Z</time>
      </trkpt>
      <trkpt lat="46.24842" lon="-1.069">
        <ele>46.920677</ele>
        <time>2022-12-19T15:38:21.379Z</time>
      </trkpt>
      <trkpt lat="46.24832" lon="-1.06906">
        <ele>46.915964</ele>
        <time>2022-12-19T15:38:24.378Z</time>
      </trkpt>
      <trkpt lat="46.24821" lon="-1.06912">
        <ele>46.942035</ele>
        <time>2022-12-19T15:38:27.381Z</time>
      </trkpt>
      <trkpt lat="46.24811" lon="-1.06918">
        <ele>46.98894</ele>
        <time>2022-12-19T15:38:30.376Z</time>
      </trkpt>
      <trkpt lat="46.24801" lon="-1.06924">
        <ele>47.035845</ele>
        <time>2022-12-19T15:38:33.377Z</time>
      </trkpt>
      <trkpt lat="46.24792" lon="-1.06931">
        <ele>47.081022</ele>
        <time>2022-12-19T15:38:36.361Z</time>
      </trkpt>
      <trkpt lat="46.24782" lon="-1.06937">
        <ele>47.125287</ele>
        <time>2022-12-19T15:38:39.370Z</time>
      </trkpt>
      <trkpt lat="46.24772" lon="-1.06943">
        <ele>47.172542</ele>
        <time>2022-12-19T15:38:43.375Z</time>
      </trkpt>
      <trkpt lat="46.24762" lon="-1.06952">
        <ele>47.22368</ele>
        <time>2022-12-19T15:38:47.384Z</time>
      </trkpt>
      <trkpt lat="46.24753" lon="-1.06957">
        <ele>47.263512</ele>
        <time>2022-12-19T15:38:50.379Z</time>
      </trkpt>
      <trkpt lat="46.24744" lon="-1.06963">
        <ele>47.306361</ele>
        <time>2022-12-19T15:38:53.382Z</time>
      </trkpt>
      <trkpt lat="46.24735" lon="-1.06971">
        <ele>47.350654</ele>
        <time>2022-12-19T15:38:56.381Z</time>
      </trkpt>
      <trkpt lat="46.24726" lon="-1.06978">
        <ele>47.396059</ele>
        <time>2022-12-19T15:38:59.373Z</time>
      </trkpt>
      <trkpt lat="46.24716" lon="-1.06986">
        <ele>47.44414</ele>
        <time>2022-12-19T15:39:02.378Z</time>
      </trkpt>
      <trkpt lat="46.24706" lon="-1.06994">
        <ele>47.493403</ele>
        <time>2022-12-19T15:39:05.380Z</time>
      </trkpt>
      <trkpt lat="46.24697" lon="-1.07003">
        <ele>47.541797</ele>
        <time>2022-12-19T15:39:08.380Z</time>
      </trkpt>
      <trkpt lat="46.24687" lon="-1.07012">
        <ele>47.58955</ele>
        <time>2022-12-19T15:39:11.381Z</time>
      </trkpt>
      <trkpt lat="46.24678" lon="-1.07021">
        <ele>47.638621</ele>
        <time>2022-12-19T15:39:14.378Z</time>
      </trkpt>
      <trkpt lat="46.24668" lon="-1.0703">
        <ele>47.686368</ele>
        <time>2022-12-19T15:39:17.377Z</time>
      </trkpt>
      <trkpt lat="46.24659" lon="-1.0704">
        <ele>47.71229</ele>
        <time>2022-12-19T15:39:20.378Z</time>
      </trkpt>
      <trkpt lat="46.24649" lon="-1.07051">
        <ele>47.739279</ele>
        <time>2022-12-19T15:39:23.383Z</time>
      </trkpt>
      <trkpt lat="46.24638" lon="-1.07061">
        <ele>47.766975</ele>
        <time>2022-12-19T15:39:26.378Z</time>
      </trkpt>
      <trkpt lat="46.24628" lon="-1.07073">
        <ele>47.79489</ele>
        <time>2022-12-19T15:39:29.379Z</time>
      </trkpt>
      <trkpt lat="46.24618" lon="-1.07084">
        <ele>47.822335</ele>
        <time>2022-12-19T15:39:32.389Z</time>
      </trkpt>
      <trkpt lat="46.24609" lon="-1.07095">
        <ele>47.849889</ele>
        <time>2022-12-19T15:39:35.378Z</time>
      </trkpt>
      <trkpt lat="46.246" lon="-1.07106">
        <ele>47.875108</ele>
        <time>2022-12-19T15:39:38.382Z</time>
      </trkpt>
      <trkpt lat="46.24592" lon="-1.07116">
        <ele>47.898414</ele>
        <time>2022-12-19T15:39:41.368Z</time>
      </trkpt>
      <trkpt lat="46.24584" lon="-1.07127">
        <ele>47.922449</ele>
        <time>2022-12-19T15:39:44.373Z</time>
      </trkpt>
      <trkpt lat="46.24575" lon="-1.07137">
        <ele>47.946609</ele>
        <time>2022-12-19T15:39:47.380Z</time>
      </trkpt>
      <trkpt lat="46.24567" lon="-1.07148">
        <ele>47.970953</ele>
        <time>2022-12-19T15:39:50.382Z</time>
      </trkpt>
      <trkpt lat="46.24559" lon="-1.0716">
        <ele>47.995574</ele>
        <time>2022-12-19T15:39:53.382Z</time>
      </trkpt>
      <trkpt lat="46.24553" lon="-1.0717">
        <ele>48.016714</ele>
        <time>2022-12-19T15:39:56.377Z</time>
      </trkpt>
      <trkpt lat="46.24545" lon="-1.07181">
        <ele>48.040442</ele>
        <time>2022-12-19T15:40:00.361Z</time>
      </trkpt>
      <trkpt lat="46.24537" lon="-1.07193">
        <ele>48.065574</ele>
        <time>2022-12-19T15:40:04.363Z</time>
      </trkpt>
      <trkpt lat="46.24531" lon="-1.07203">
        <ele>48.105645</ele>
        <time>2022-12-19T15:40:07.378Z</time>
      </trkpt>
      <trkpt lat="46.24524" lon="-1.07214">
        <ele>48.1857</ele>
        <time>2022-12-19T15:40:10.378Z</time>
      </trkpt>
      <trkpt lat="46.24516" lon="-1.07226">
        <ele>48.269526</ele>
        <time>2022-12-19T15:40:13.379Z</time>
      </trkpt>
      <trkpt lat="46.24509" lon="-1.07238">
        <ele>48.352448</ele>
        <time>2022-12-19T15:40:16.377Z</time>
      </trkpt>
      <trkpt lat="46.24502" lon="-1.0725">
        <ele>48.436671</ele>
        <time>2022-12-19T15:40:19.378Z</time>
      </trkpt>
      <trkpt lat="46.24495" lon="-1.07262">
        <ele>48.519484</ele>
        <time>2022-12-19T15:40:22.358Z</time>
      </trkpt>
      <trkpt lat="46.24488" lon="-1.07274">
        <ele>48.604166</ele>
        <time>2022-12-19T15:40:25.380Z</time>
      </trkpt>
      <trkpt lat="46.24481" lon="-1.07288">
        <ele>48.695271</ele>
        <time>2022-12-19T15:40:28.376Z</time>
      </trkpt>
      <trkpt lat="46.24473" lon="-1.07301">
        <ele>48.783694</ele>
        <time>2022-12-19T15:40:31.377Z</time>
      </trkpt>
      <trkpt lat="46.24467" lon="-1.07313">
        <ele>48.866017</ele>
        <time>2022-12-19T15:40:34.376Z</time>
      </trkpt>
      <trkpt lat="46.24461" lon="-1.07327">
        <ele>48.950983</ele>
        <time>2022-12-19T15:40:37.389Z</time>
      </trkpt>
      <trkpt lat="46.24454" lon="-1.0734">
        <ele>49.039386</ele>
        <time>2022-12-19T15:40:40.378Z</time>
      </trkpt>
      <trkpt lat="46.24448" lon="-1.07355">
        <ele>49.131295</ele>
        <time>2022-12-19T15:40:43.377Z</time>
      </trkpt>
      <trkpt lat="46.24441" lon="-1.0737">
        <ele>49.227222</ele>
        <time>2022-12-19T15:40:46.379Z</time>
      </trkpt>
      <trkpt lat="46.24435" lon="-1.07386">
        <ele>49.324954</ele>
        <time>2022-12-19T15:40:49.379Z</time>
      </trkpt>
      <trkpt lat="46.24428" lon="-1.07402">
        <ele>49.423085</ele>
        <time>2022-12-19T15:40:52.376Z</time>
      </trkpt>
      <trkpt lat="46.24421" lon="-1.07418">
        <ele>49.495258</ele>
        <time>2022-12-19T15:40:55.378Z</time>
      </trkpt>
      <trkpt lat="46.24415" lon="-1.07434">
        <ele>49.555828</ele>
        <time>2022-12-19T15:40:58.379Z</time>
      </trkpt>
      <trkpt lat="46.24409" lon="-1.0745">
        <ele>49.614138</ele>
        <time>2022-12-19T15:41:01.376Z</time>
      </trkpt>
      <trkpt lat="46.24404" lon="-1.07466">
        <ele>49.671175</ele>
        <time>2022-12-19T15:41:04.379Z</time>
      </trkpt>
      <trkpt lat="46.24398" lon="-1.07481">
        <ele>49.726396</ele>
        <time>2022-12-19T15:41:07.377Z</time>
      </trkpt>
      <trkpt lat="46.24393" lon="-1.07497">
        <ele>49.784503</ele>
        <time>2022-12-19T15:41:10.379Z</time>
      </trkpt>
      <trkpt lat="46.24388" lon="-1.07514">
        <ele>49.843201</ele>
        <time>2022-12-19T15:41:13.383Z</time>
      </trkpt>
      <trkpt lat="46.24383" lon="-1.07531">
        <ele>49.902717</ele>
        <time>2022-12-19T15:41:16.378Z</time>
      </trkpt>
      <trkpt lat="46.24378" lon="-1.07548">
        <ele>49.964053</ele>
        <time>2022-12-19T15:41:19.380Z</time>
      </trkpt>
      <trkpt lat="46.24373" lon="-1.07564">
        <ele>50.021121</ele>
        <time>2022-12-19T15:41:22.377Z</time>
      </trkpt>
      <trkpt lat="46.24369" lon="-1.0758">
        <ele>50.07604</ele>
        <time>2022-12-19T15:41:25.367Z</time>
      </trkpt>
      <trkpt lat="46.24364" lon="-1.07595">
        <ele>50.128036</ele>
        <time>2022-12-19T15:41:28.378Z</time>
      </trkpt>
      <trkpt lat="46.2436" lon="-1.0761">
        <ele>50.179519</ele>
        <time>2022-12-19T15:41:31.381Z</time>
      </trkpt>
      <trkpt lat="46.24356" lon="-1.07626">
        <ele>50.236289</ele>
        <time>2022-12-19T15:41:34.366Z</time>
      </trkpt>
      <trkpt lat="46.24351" lon="-1.07643">
        <ele>50.296226</ele>
        <time>2022-12-19T15:41:37.378Z</time>
      </trkpt>
      <trkpt lat="46.24346" lon="-1.07662">
        <ele>50.255729</ele>
        <time>2022-12-19T15:41:40.378Z</time>
      </trkpt>
      <trkpt lat="46.24343" lon="-1.07675">
        <ele>50.227283</ele>
        <time>2022-12-19T15:41:42.381Z</time>
      </trkpt>
      <trkpt lat="46.24338" lon="-1.07692">
        <ele>50.188309</ele>
        <time>2022-12-19T15:41:45.376Z</time>
      </trkpt>
      <trkpt lat="46.24334" lon="-1.07709">
        <ele>50.151785</ele>
        <time>2022-12-19T15:41:48.356Z</time>
      </trkpt>
      <trkpt lat="46.2433" lon="-1.07725">
        <ele>50.116887</ele>
        <time>2022-12-19T15:41:51.381Z</time>
      </trkpt>
      <trkpt lat="46.24325" lon="-1.07741">
        <ele>50.080977</ele>
        <time>2022-12-19T15:41:54.377Z</time>
      </trkpt>
      <trkpt lat="46.24321" lon="-1.07757">
        <ele>50.044321</ele>
        <time>2022-12-19T15:41:57.385Z</time>
      </trkpt>
      <trkpt lat="46.24315" lon="-1.07774">
        <ele>50.006348</ele>
        <time>2022-12-19T15:42:00.370Z</time>
      </trkpt>
      <trkpt lat="46.2431" lon="-1.0779">
        <ele>49.969995</ele>
        <time>2022-12-19T15:42:03.380Z</time>
      </trkpt>
      <trkpt lat="46.24306" lon="-1.07806">
        <ele>49.934445</ele>
        <time>2022-12-19T15:42:06.375Z</time>
      </trkpt>
      <trkpt lat="46.24303" lon="-1.07822">
        <ele>49.900163</ele>
        <time>2022-12-19T15:42:09.382Z</time>
      </trkpt>
      <trkpt lat="46.24299" lon="-1.07837">
        <ele>49.866955</ele>
        <time>2022-12-19T15:42:12.379Z</time>
      </trkpt>
      <trkpt lat="46.24296" lon="-1.07852">
        <ele>49.833969</ele>
        <time>2022-12-19T15:42:15.359Z</time>
      </trkpt>
      <trkpt lat="46.24294" lon="-1.07867">
        <ele>49.802821</ele>
        <time>2022-12-19T15:42:18.384Z</time>
      </trkpt>
      <trkpt lat="46.24294" lon="-1.07882">
        <ele>49.770787</ele>
        <time>2022-12-19T15:42:21.380Z</time>
      </trkpt>
      <trkpt lat="46.24299" lon="-1.07898">
        <ele>49.707621</ele>
        <time>2022-12-19T15:42:24.366Z</time>
      </trkpt>
      <trkpt lat="46.24305" lon="-1.07914">
        <ele>49.625289</ele>
        <time>2022-12-19T15:42:27.387Z</time>
      </trkpt>
      <trkpt lat="46.24305" lon="-1.07933">
        <ele>49.543576</ele>
        <time>2022-12-19T15:42:30.359Z</time>
      </trkpt>
      <trkpt lat="46.243" lon="-1.07949">
        <ele>49.464237</ele>
        <time>2022-12-19T15:42:33.376Z</time>
      </trkpt>
      <trkpt lat="46.24291" lon="-1.07961">
        <ele>49.384772</ele>
        <time>2022-12-19T15:42:36.359Z</time>
      </trkpt>
      <trkpt lat="46.24281" lon="-1.07971">
        <ele>49.306264</ele>
        <time>2022-12-19T15:42:39.363Z</time>
      </trkpt>
      <trkpt lat="46.24272" lon="-1.07982">
        <ele>49.228299</ele>
        <time>2022-12-19T15:42:42.383Z</time>
      </trkpt>
      <trkpt lat="46.24265" lon="-1.07997">
        <ele>49.14914</ele>
        <time>2022-12-19T15:42:45.360Z</time>
      </trkpt>
      <trkpt lat="46.24261" lon="-1.08013">
        <ele>49.071302</ele>
        <time>2022-12-19T15:42:48.362Z</time>
      </trkpt>
      <trkpt lat="46.24258" lon="-1.08029">
        <ele>49.000741</ele>
        <time>2022-12-19T15:42:51.370Z</time>
      </trkpt>
      <trkpt lat="46.24257" lon="-1.08042">
        <ele>48.937491</ele>
        <time>2022-12-19T15:42:54.357Z</time>
      </trkpt>
      <trkpt lat="46.24254" lon="-1.08056">
        <ele>48.873643</ele>
        <time>2022-12-19T15:42:57.384Z</time>
      </trkpt>
      <trkpt lat="46.24251" lon="-1.08071">
        <ele>48.803898</ele>
        <time>2022-12-19T15:43:00.381Z</time>
      </trkpt>
      <trkpt lat="46.24249" lon="-1.08088">
        <ele>48.728761</ele>
        <time>2022-12-19T15:43:03.378Z</time>
      </trkpt>
      <trkpt lat="46.24247" lon="-1.08105">
        <ele>48.649244</ele>
        <time>2022-12-19T15:43:06.379Z</time>
      </trkpt>
      <trkpt lat="46.24244" lon="-1.08124">
        <ele>48.622248</ele>
        <time>2022-12-19T15:43:09.378Z</time>
      </trkpt>
      <trkpt lat="46.24241" lon="-1.08143">
        <ele>48.684461</ele>
        <time>2022-12-19T15:43:12.380Z</time>
      </trkpt>
      <trkpt lat="46.24239" lon="-1.0816">
        <ele>48.741301</ele>
        <time>2022-12-19T15:43:15.380Z</time>
      </trkpt>
      <trkpt lat="46.24236" lon="-1.08175">
        <ele>48.792708</ele>
        <time>2022-12-19T15:43:18.381Z</time>
      </trkpt>
      <trkpt lat="46.24235" lon="-1.0819">
        <ele>48.841192</ele>
        <time>2022-12-19T15:43:21.377Z</time>
      </trkpt>
      <trkpt lat="46.24233" lon="-1.08206">
        <ele>48.893876</ele>
        <time>2022-12-19T15:43:24.378Z</time>
      </trkpt>
      <trkpt lat="46.24231" lon="-1.08222">
        <ele>48.947933</ele>
        <time>2022-12-19T15:43:27.379Z</time>
      </trkpt>
      <trkpt lat="46.24229" lon="-1.08238">
        <ele>49.002996</ele>
        <time>2022-12-19T15:43:30.378Z</time>
      </trkpt>
      <trkpt lat="46.24227" lon="-1.08256">
        <ele>49.059238</ele>
        <time>2022-12-19T15:43:33.359Z</time>
      </trkpt>
      <trkpt lat="46.24226" lon="-1.08273">
        <ele>49.116294</ele>
        <time>2022-12-19T15:43:36.364Z</time>
      </trkpt>
      <trkpt lat="46.24224" lon="-1.08291">
        <ele>49.175895</ele>
        <time>2022-12-19T15:43:39.376Z</time>
      </trkpt>
      <trkpt lat="46.24223" lon="-1.08309">
        <ele>49.2357</ele>
        <time>2022-12-19T15:43:42.357Z</time>
      </trkpt>
      <trkpt lat="46.24221" lon="-1.08327">
        <ele>49.295504</ele>
        <time>2022-12-19T15:43:45.360Z</time>
      </trkpt>
      <trkpt lat="46.2422" lon="-1.08346">
        <ele>49.357432</ele>
        <time>2022-12-19T15:43:48.379Z</time>
      </trkpt>
      <trkpt lat="46.24218" lon="-1.08365">
        <ele>49.418003</ele>
        <time>2022-12-19T15:43:51.380Z</time>
      </trkpt>
      <trkpt lat="46.24216" lon="-1.08382">
        <ele>49.510642</ele>
        <time>2022-12-19T15:43:54.373Z</time>
      </trkpt>
      <trkpt lat="46.24215" lon="-1.08401">
        <ele>49.637657</ele>
        <time>2022-12-19T15:43:57.387Z</time>
      </trkpt>
      <trkpt lat="46.24214" lon="-1.08419">
        <ele>49.767537</ele>
        <time>2022-12-19T15:44:00.379Z</time>
      </trkpt>
      <trkpt lat="46.24212" lon="-1.08438">
        <ele>49.901202</ele>
        <time>2022-12-19T15:44:03.381Z</time>
      </trkpt>
      <trkpt lat="46.2421" lon="-1.08458">
        <ele>50.036246</ele>
        <time>2022-12-19T15:44:06.378Z</time>
      </trkpt>
      <trkpt lat="46.24209" lon="-1.08471">
        <ele>50.127501</ele>
        <time>2022-12-19T15:44:08.375Z</time>
      </trkpt>
      <trkpt lat="46.24208" lon="-1.0849">
        <ele>50.26312</ele>
        <time>2022-12-19T15:44:11.378Z</time>
      </trkpt>
      <trkpt lat="46.24206" lon="-1.08509">
        <ele>50.394288</ele>
        <time>2022-12-19T15:44:14.374Z</time>
      </trkpt>
      <trkpt lat="46.24205" lon="-1.08526">
        <ele>50.516896</ele>
        <time>2022-12-19T15:44:17.380Z</time>
      </trkpt>
      <trkpt lat="46.24204" lon="-1.08543">
        <ele>50.634456</ele>
        <time>2022-12-19T15:44:20.375Z</time>
      </trkpt>
      <trkpt lat="46.24202" lon="-1.08561">
        <ele>50.758227</ele>
        <time>2022-12-19T15:44:23.378Z</time>
      </trkpt>
      <trkpt lat="46.242" lon="-1.0858">
        <ele>50.890374</ele>
        <time>2022-12-19T15:44:26.357Z</time>
      </trkpt>
      <trkpt lat="46.24199" lon="-1.08593">
        <ele>50.983432</ele>
        <time>2022-12-19T15:44:28.379Z</time>
      </trkpt>
      <trkpt lat="46.24198" lon="-1.08606">
        <ele>51.074891</ele>
        <time>2022-12-19T15:44:30.378Z</time>
      </trkpt>
      <trkpt lat="46.24197" lon="-1.08619">
        <ele>51.168356</ele>
        <time>2022-12-19T15:44:32.365Z</time>
      </trkpt>
      <trkpt lat="46.24195" lon="-1.08639">
        <ele>51.233765</ele>
        <time>2022-12-19T15:44:35.377Z</time>
      </trkpt>
      <trkpt lat="46.24194" lon="-1.08658">
        <ele>51.181728</ele>
        <time>2022-12-19T15:44:38.376Z</time>
      </trkpt>
      <trkpt lat="46.24192" lon="-1.08677">
        <ele>51.131632</ele>
        <time>2022-12-19T15:44:41.375Z</time>
      </trkpt>
      <trkpt lat="46.2419" lon="-1.08694">
        <ele>51.082882</ele>
        <time>2022-12-19T15:44:44.373Z</time>
      </trkpt>
      <trkpt lat="46.24188" lon="-1.08711">
        <ele>51.037963</ele>
        <time>2022-12-19T15:44:47.360Z</time>
      </trkpt>
      <trkpt lat="46.24187" lon="-1.08726">
        <ele>50.996628</ele>
        <time>2022-12-19T15:44:50.380Z</time>
      </trkpt>
      <trkpt lat="46.24185" lon="-1.08743">
        <ele>50.950986</ele>
        <time>2022-12-19T15:44:53.370Z</time>
      </trkpt>
      <trkpt lat="46.24184" lon="-1.08761">
        <ele>50.901924</ele>
        <time>2022-12-19T15:44:56.381Z</time>
      </trkpt>
      <trkpt lat="46.24182" lon="-1.0878">
        <ele>50.850551</ele>
        <time>2022-12-19T15:44:59.362Z</time>
      </trkpt>
      <trkpt lat="46.2418" lon="-1.08799">
        <ele>50.798861</ele>
        <time>2022-12-19T15:45:02.376Z</time>
      </trkpt>
      <trkpt lat="46.24179" lon="-1.08818">
        <ele>50.748234</ele>
        <time>2022-12-19T15:45:05.376Z</time>
      </trkpt>
      <trkpt lat="46.24177" lon="-1.08837">
        <ele>50.697872</ele>
        <time>2022-12-19T15:45:08.381Z</time>
      </trkpt>
      <trkpt lat="46.24175" lon="-1.08856">
        <ele>50.646277</ele>
        <time>2022-12-19T15:45:11.379Z</time>
      </trkpt>
      <trkpt lat="46.24174" lon="-1.08869">
        <ele>50.610212</ele>
        <time>2022-12-19T15:45:13.383Z</time>
      </trkpt>
      <trkpt lat="46.24172" lon="-1.08882">
        <ele>50.574471</ele>
        <time>2022-12-19T15:45:15.385Z</time>
      </trkpt>
      <trkpt lat="46.24171" lon="-1.08896">
        <ele>50.522292</ele>
        <time>2022-12-19T15:45:17.357Z</time>
      </trkpt>
      <trkpt lat="46.24171" lon="-1.0891">
        <ele>50.45222</ele>
        <time>2022-12-19T15:45:19.354Z</time>
      </trkpt>
      <trkpt lat="46.24169" lon="-1.08923">
        <ele>50.384946</ele>
        <time>2022-12-19T15:45:21.380Z</time>
      </trkpt>
      <trkpt lat="46.24168" lon="-1.08941">
        <ele>50.291518</ele>
        <time>2022-12-19T15:45:24.377Z</time>
      </trkpt>
      <trkpt lat="46.24167" lon="-1.08958">
        <ele>50.207824</ele>
        <time>2022-12-19T15:45:27.353Z</time>
      </trkpt>
      <trkpt lat="46.24166" lon="-1.08974">
        <ele>50.125023</ele>
        <time>2022-12-19T15:45:30.377Z</time>
      </trkpt>
      <trkpt lat="46.24164" lon="-1.08991">
        <ele>50.037502</ele>
        <time>2022-12-19T15:45:33.375Z</time>
      </trkpt>
      <trkpt lat="46.24162" lon="-1.09009">
        <ele>49.944474</ele>
        <time>2022-12-19T15:45:36.378Z</time>
      </trkpt>
      <trkpt lat="46.24161" lon="-1.09028">
        <ele>49.848036</ele>
        <time>2022-12-19T15:45:39.377Z</time>
      </trkpt>
      <trkpt lat="46.24159" lon="-1.09041">
        <ele>49.782175</ele>
        <time>2022-12-19T15:45:41.363Z</time>
      </trkpt>
      <trkpt lat="46.24157" lon="-1.0906">
        <ele>49.684316</ele>
        <time>2022-12-19T15:45:44.354Z</time>
      </trkpt>
      <trkpt lat="46.24156" lon="-1.09079">
        <ele>49.588785</ele>
        <time>2022-12-19T15:45:47.379Z</time>
      </trkpt>
      <trkpt lat="46.24155" lon="-1.09092">
        <ele>49.519817</ele>
        <time>2022-12-19T15:45:49.373Z</time>
      </trkpt>
      <trkpt lat="46.24153" lon="-1.09106">
        <ele>49.449242</ele>
        <time>2022-12-19T15:45:51.376Z</time>
      </trkpt>
      <trkpt lat="46.24152" lon="-1.0912">
        <ele>49.378269</ele>
        <time>2022-12-19T15:45:53.377Z</time>
      </trkpt>
      <trkpt lat="46.24151" lon="-1.09134">
        <ele>49.309066</ele>
        <time>2022-12-19T15:45:55.379Z</time>
      </trkpt>
      <trkpt lat="46.24149" lon="-1.09153">
        <ele>49.245181</ele>
        <time>2022-12-19T15:45:58.372Z</time>
      </trkpt>
      <trkpt lat="46.24148" lon="-1.09166">
        <ele>49.256722</ele>
        <time>2022-12-19T15:46:00.377Z</time>
      </trkpt>
      <trkpt lat="46.24147" lon="-1.0918">
        <ele>49.26865</ele>
        <time>2022-12-19T15:46:02.358Z</time>
      </trkpt>
      <trkpt lat="46.24146" lon="-1.09199">
        <ele>49.285155</ele>
        <time>2022-12-19T15:46:05.362Z</time>
      </trkpt>
      <trkpt lat="46.24144" lon="-1.09218">
        <ele>49.302002</ele>
        <time>2022-12-19T15:46:08.379Z</time>
      </trkpt>
      <trkpt lat="46.24142" lon="-1.09237">
        <ele>49.319004</ele>
        <time>2022-12-19T15:46:11.377Z</time>
      </trkpt>
      <trkpt lat="46.2414" lon="-1.09255">
        <ele>49.334485</ele>
        <time>2022-12-19T15:46:14.381Z</time>
      </trkpt>
      <trkpt lat="46.24138" lon="-1.09271">
        <ele>49.348709</ele>
        <time>2022-12-19T15:46:17.361Z</time>
      </trkpt>
      <trkpt lat="46.24137" lon="-1.09285">
        <ele>49.36169</ele>
        <time>2022-12-19T15:46:20.359Z</time>
      </trkpt>
      <trkpt lat="46.24136" lon="-1.09301">
        <ele>49.374932</ele>
        <time>2022-12-19T15:46:23.378Z</time>
      </trkpt>
      <trkpt lat="46.24135" lon="-1.09316">
        <ele>49.388668</ele>
        <time>2022-12-19T15:46:26.360Z</time>
      </trkpt>
      <trkpt lat="46.24133" lon="-1.09332">
        <ele>49.403084</ele>
        <time>2022-12-19T15:46:29.376Z</time>
      </trkpt>
      <trkpt lat="46.24132" lon="-1.0935">
        <ele>49.418161</ele>
        <time>2022-12-19T15:46:32.361Z</time>
      </trkpt>
      <trkpt lat="46.2413" lon="-1.09367">
        <ele>49.433487</ele>
        <time>2022-12-19T15:46:35.381Z</time>
      </trkpt>
      <trkpt lat="46.24128" lon="-1.09385">
        <ele>49.449003</ele>
        <time>2022-12-19T15:46:38.380Z</time>
      </trkpt>
      <trkpt lat="46.24126" lon="-1.09403">
        <ele>49.46483</ele>
        <time>2022-12-19T15:46:41.380Z</time>
      </trkpt>
      <trkpt lat="46.24125" lon="-1.09421">
        <ele>49.519778</ele>
        <time>2022-12-19T15:46:44.380Z</time>
      </trkpt>
      <trkpt lat="46.24123" lon="-1.09434">
        <ele>49.562675</ele>
        <time>2022-12-19T15:46:46.378Z</time>
      </trkpt>
      <trkpt lat="46.24122" lon="-1.09452">
        <ele>49.624474</ele>
        <time>2022-12-19T15:46:49.378Z</time>
      </trkpt>
      <trkpt lat="46.2412" lon="-1.09471">
        <ele>49.685692</ele>
        <time>2022-12-19T15:46:52.387Z</time>
      </trkpt>
      <trkpt lat="46.24119" lon="-1.09488">
        <ele>49.743608</ele>
        <time>2022-12-19T15:46:55.378Z</time>
      </trkpt>
      <trkpt lat="46.24117" lon="-1.09506">
        <ele>49.803326</ele>
        <time>2022-12-19T15:46:58.376Z</time>
      </trkpt>
      <trkpt lat="46.24116" lon="-1.09525">
        <ele>49.864085</ele>
        <time>2022-12-19T15:47:01.357Z</time>
      </trkpt>
      <trkpt lat="46.24114" lon="-1.09544">
        <ele>49.926864</ele>
        <time>2022-12-19T15:47:04.377Z</time>
      </trkpt>
      <trkpt lat="46.24112" lon="-1.09563">
        <ele>49.990233</ele>
        <time>2022-12-19T15:47:07.379Z</time>
      </trkpt>
      <trkpt lat="46.2411" lon="-1.09582">
        <ele>50.053012</ele>
        <time>2022-12-19T15:47:10.377Z</time>
      </trkpt>
      <trkpt lat="46.24108" lon="-1.096">
        <ele>50.115277</ele>
        <time>2022-12-19T15:47:13.380Z</time>
      </trkpt>
      <trkpt lat="46.24107" lon="-1.09619">
        <ele>50.17832</ele>
        <time>2022-12-19T15:47:16.369Z</time>
      </trkpt>
      <trkpt lat="46.24106" lon="-1.09633">
        <ele>50.22267</ele>
        <time>2022-12-19T15:47:18.379Z</time>
      </trkpt>
      <trkpt lat="46.24104" lon="-1.09646">
        <ele>50.26687</ele>
        <time>2022-12-19T15:47:20.380Z</time>
      </trkpt>
      <trkpt lat="46.24103" lon="-1.09665">
        <ele>50.314097</ele>
        <time>2022-12-19T15:47:23.378Z</time>
      </trkpt>
      <trkpt lat="46.24101" lon="-1.09681">
        <ele>50.249207</ele>
        <time>2022-12-19T15:47:26.380Z</time>
      </trkpt>
      <trkpt lat="46.241" lon="-1.09699">
        <ele>50.182774</ele>
        <time>2022-12-19T15:47:29.362Z</time>
      </trkpt>
      <trkpt lat="46.24098" lon="-1.09717">
        <ele>50.111633</ele>
        <time>2022-12-19T15:47:32.379Z</time>
      </trkpt>
      <trkpt lat="46.24096" lon="-1.09735">
        <ele>50.038496</ele>
        <time>2022-12-19T15:47:35.378Z</time>
      </trkpt>
      <trkpt lat="46.24095" lon="-1.09748">
        <ele>49.988006</ele>
        <time>2022-12-19T15:47:37.374Z</time>
      </trkpt>
      <trkpt lat="46.24093" lon="-1.09761">
        <ele>49.937238</ele>
        <time>2022-12-19T15:47:39.378Z</time>
      </trkpt>
      <trkpt lat="46.24092" lon="-1.09775">
        <ele>49.883975</ele>
        <time>2022-12-19T15:47:41.379Z</time>
      </trkpt>
      <trkpt lat="46.2409" lon="-1.09788">
        <ele>49.831746</ele>
        <time>2022-12-19T15:47:43.380Z</time>
      </trkpt>
      <trkpt lat="46.24088" lon="-1.09801">
        <ele>49.779517</ele>
        <time>2022-12-19T15:47:45.380Z</time>
      </trkpt>
      <trkpt lat="46.24085" lon="-1.0982">
        <ele>49.705737</ele>
        <time>2022-12-19T15:47:48.378Z</time>
      </trkpt>
      <trkpt lat="46.24083" lon="-1.09834">
        <ele>49.65074</ele>
        <time>2022-12-19T15:47:50.378Z</time>
      </trkpt>
      <trkpt lat="46.24081" lon="-1.09853">
        <ele>49.575601</ele>
        <time>2022-12-19T15:47:53.379Z</time>
      </trkpt>
      <trkpt lat="46.24079" lon="-1.09866">
        <ele>49.525214</ele>
        <time>2022-12-19T15:47:55.379Z</time>
      </trkpt>
      <trkpt lat="46.24076" lon="-1.09884">
        <ele>49.453866</ele>
        <time>2022-12-19T15:47:58.375Z</time>
      </trkpt>
      <trkpt lat="46.24074" lon="-1.09901">
        <ele>49.385543</ele>
        <time>2022-12-19T15:48:01.382Z</time>
      </trkpt>
      <trkpt lat="46.24072" lon="-1.09917">
        <ele>49.320453</ele>
        <time>2022-12-19T15:48:04.380Z</time>
      </trkpt>
      <trkpt lat="46.2407" lon="-1.09934">
        <ele>49.330396</ele>
        <time>2022-12-19T15:48:07.381Z</time>
      </trkpt>
      <trkpt lat="46.24068" lon="-1.09951">
        <ele>49.346382</ele>
        <time>2022-12-19T15:48:10.381Z</time>
      </trkpt>
      <trkpt lat="46.24066" lon="-1.09967">
        <ele>49.362014</ele>
        <time>2022-12-19T15:48:13.379Z</time>
      </trkpt>
      <trkpt lat="46.24064" lon="-1.09983">
        <ele>49.377159</ele>
        <time>2022-12-19T15:48:16.379Z</time>
      </trkpt>
      <trkpt lat="46.24062" lon="-1.09997">
        <ele>49.390691</ele>
        <time>2022-12-19T15:48:19.377Z</time>
      </trkpt>
      <trkpt lat="46.2406" lon="-1.10012">
        <ele>49.405065</ele>
        <time>2022-12-19T15:48:22.378Z</time>
      </trkpt>
      <trkpt lat="46.24058" lon="-1.10028">
        <ele>49.420091</ele>
        <time>2022-12-19T15:48:25.378Z</time>
      </trkpt>
      <trkpt lat="46.24057" lon="-1.10044">
        <ele>49.435349</ele>
        <time>2022-12-19T15:48:28.377Z</time>
      </trkpt>
      <trkpt lat="46.24055" lon="-1.1006">
        <ele>49.450724</ele>
        <time>2022-12-19T15:48:31.378Z</time>
      </trkpt>
      <trkpt lat="46.24052" lon="-1.10076">
        <ele>49.466293</ele>
        <time>2022-12-19T15:48:34.379Z</time>
      </trkpt>
      <trkpt lat="46.24051" lon="-1.10091">
        <ele>49.481303</ele>
        <time>2022-12-19T15:48:37.377Z</time>
      </trkpt>
      <trkpt lat="46.24049" lon="-1.10106">
        <ele>49.495302</ele>
        <time>2022-12-19T15:48:40.376Z</time>
      </trkpt>
      <trkpt lat="46.24047" lon="-1.10121">
        <ele>49.509796</ele>
        <time>2022-12-19T15:48:43.384Z</time>
      </trkpt>
      <trkpt lat="46.24045" lon="-1.10137">
        <ele>49.525406</ele>
        <time>2022-12-19T15:48:46.395Z</time>
      </trkpt>
      <trkpt lat="46.24043" lon="-1.10154">
        <ele>49.541341</ele>
        <time>2022-12-19T15:48:49.379Z</time>
      </trkpt>
      <trkpt lat="46.24041" lon="-1.1017">
        <ele>49.557281</ele>
        <time>2022-12-19T15:48:52.375Z</time>
      </trkpt>
      <trkpt lat="46.24039" lon="-1.10186">
        <ele>49.64287</ele>
        <time>2022-12-19T15:48:55.378Z</time>
      </trkpt>
      <trkpt lat="46.24037" lon="-1.102">
        <ele>49.741504</ele>
        <time>2022-12-19T15:48:58.362Z</time>
      </trkpt>
      <trkpt lat="46.24035" lon="-1.10218">
        <ele>49.86301</ele>
        <time>2022-12-19T15:49:02.380Z</time>
      </trkpt>
      <trkpt lat="46.24033" lon="-1.10233">
        <ele>49.966895</ele>
        <time>2022-12-19T15:49:05.380Z</time>
      </trkpt>
      <trkpt lat="46.24031" lon="-1.10248">
        <ele>50.072808</ele>
        <time>2022-12-19T15:49:08.379Z</time>
      </trkpt>
      <trkpt lat="46.24029" lon="-1.10264">
        <ele>50.182964</ele>
        <time>2022-12-19T15:49:11.384Z</time>
      </trkpt>
      <trkpt lat="46.24027" lon="-1.1028">
        <ele>50.296168</ele>
        <time>2022-12-19T15:49:14.377Z</time>
      </trkpt>
      <trkpt lat="46.24025" lon="-1.10296">
        <ele>50.40836</ele>
        <time>2022-12-19T15:49:17.384Z</time>
      </trkpt>
      <trkpt lat="46.24023" lon="-1.10312">
        <ele>50.52021</ele>
        <time>2022-12-19T15:49:20.380Z</time>
      </trkpt>
      <trkpt lat="46.24021" lon="-1.10327">
        <ele>50.629477</ele>
        <time>2022-12-19T15:49:23.365Z</time>
      </trkpt>
      <trkpt lat="46.24019" lon="-1.10343">
        <ele>50.74257</ele>
        <time>2022-12-19T15:49:26.380Z</time>
      </trkpt>
      <trkpt lat="46.24017" lon="-1.1036">
        <ele>50.855097</ele>
        <time>2022-12-19T15:49:29.364Z</time>
      </trkpt>
      <trkpt lat="46.24014" lon="-1.10375">
        <ele>50.967267</ele>
        <time>2022-12-19T15:49:32.377Z</time>
      </trkpt>
      <trkpt lat="46.24013" lon="-1.10391">
        <ele>51.076436</ele>
        <time>2022-12-19T15:49:35.378Z</time>
      </trkpt>
      <trkpt lat="46.24012" lon="-1.10405">
        <ele>51.172573</ele>
        <time>2022-12-19T15:49:38.358Z</time>
      </trkpt>
      <trkpt lat="46.24009" lon="-1.10421">
        <ele>51.282732</ele>
        <time>2022-12-19T15:49:42.361Z</time>
      </trkpt>
      <trkpt lat="46.24008" lon="-1.10434">
        <ele>51.387114</ele>
        <time>2022-12-19T15:49:45.357Z</time>
      </trkpt>
      <trkpt lat="46.24005" lon="-1.10447">
        <ele>51.534087</ele>
        <time>2022-12-19T15:49:48.377Z</time>
      </trkpt>
      <trkpt lat="46.24003" lon="-1.10462">
        <ele>51.684601</ele>
        <time>2022-12-19T15:49:51.360Z</time>
      </trkpt>
      <trkpt lat="46.24002" lon="-1.10477">
        <ele>51.848064</ele>
        <time>2022-12-19T15:49:54.361Z</time>
      </trkpt>
      <trkpt lat="46.23999" lon="-1.10492">
        <ele>52.01226</ele>
        <time>2022-12-19T15:49:57.376Z</time>
      </trkpt>
      <trkpt lat="46.23998" lon="-1.10508">
        <ele>52.179039</ele>
        <time>2022-12-19T15:50:00.362Z</time>
      </trkpt>
      <trkpt lat="46.23996" lon="-1.10524">
        <ele>52.340885</ele>
        <time>2022-12-19T15:50:03.380Z</time>
      </trkpt>
      <trkpt lat="46.23994" lon="-1.10539">
        <ele>52.50221</ele>
        <time>2022-12-19T15:50:06.380Z</time>
      </trkpt>
      <trkpt lat="46.23992" lon="-1.10554">
        <ele>52.665424</ele>
        <time>2022-12-19T15:50:09.377Z</time>
      </trkpt>
      <trkpt lat="46.2399" lon="-1.10569">
        <ele>52.829077</ele>
        <time>2022-12-19T15:50:12.359Z</time>
      </trkpt>
      <trkpt lat="46.23988" lon="-1.10583">
        <ele>52.975748</ele>
        <time>2022-12-19T15:50:15.387Z</time>
      </trkpt>
      <trkpt lat="46.23987" lon="-1.10597">
        <ele>53.116743</ele>
        <time>2022-12-19T15:50:18.378Z</time>
      </trkpt>
      <trkpt lat="46.23984" lon="-1.10611">
        <ele>53.268727</ele>
        <time>2022-12-19T15:50:21.358Z</time>
      </trkpt>
      <trkpt lat="46.23982" lon="-1.10626">
        <ele>53.427157</ele>
        <time>2022-12-19T15:50:24.381Z</time>
      </trkpt>
      <trkpt lat="46.2398" lon="-1.10641">
        <ele>53.593623</ele>
        <time>2022-12-19T15:50:27.359Z</time>
      </trkpt>
      <trkpt lat="46.23979" lon="-1.10657">
        <ele>53.758565</ele>
        <time>2022-12-19T15:50:30.380Z</time>
      </trkpt>
      <trkpt lat="46.23977" lon="-1.10672">
        <ele>53.924271</ele>
        <time>2022-12-19T15:50:33.386Z</time>
      </trkpt>
      <trkpt lat="46.23975" lon="-1.10688">
        <ele>54.071304</ele>
        <time>2022-12-19T15:50:36.389Z</time>
      </trkpt>
      <trkpt lat="46.23973" lon="-1.10704">
        <ele>54.105499</ele>
        <time>2022-12-19T15:50:39.357Z</time>
      </trkpt>
      <trkpt lat="46.23971" lon="-1.10719">
        <ele>54.138922</ele>
        <time>2022-12-19T15:50:42.382Z</time>
      </trkpt>
      <trkpt lat="46.23968" lon="-1.10734">
        <ele>54.17172</ele>
        <time>2022-12-19T15:50:45.381Z</time>
      </trkpt>
      <trkpt lat="46.23966" lon="-1.1075">
        <ele>54.20586</ele>
        <time>2022-12-19T15:50:48.360Z</time>
      </trkpt>
      <trkpt lat="46.23965" lon="-1.10766">
        <ele>54.239685</ele>
        <time>2022-12-19T15:50:51.380Z</time>
      </trkpt>
      <trkpt lat="46.23962" lon="-1.10781">
        <ele>54.273658</ele>
        <time>2022-12-19T15:50:54.378Z</time>
      </trkpt>
      <trkpt lat="46.2396" lon="-1.10795">
        <ele>54.303769</ele>
        <time>2022-12-19T15:50:57.357Z</time>
      </trkpt>
      <trkpt lat="46.23958" lon="-1.10809">
        <ele>54.333113</ele>
        <time>2022-12-19T15:51:00.378Z</time>
      </trkpt>
      <trkpt lat="46.23956" lon="-1.10823">
        <ele>54.363007</ele>
        <time>2022-12-19T15:51:03.366Z</time>
      </trkpt>
      <trkpt lat="46.23955" lon="-1.10837">
        <ele>54.393555</ele>
        <time>2022-12-19T15:51:06.359Z</time>
      </trkpt>
      <trkpt lat="46.23953" lon="-1.10852">
        <ele>54.42519</ele>
        <time>2022-12-19T15:51:09.369Z</time>
      </trkpt>
      <trkpt lat="46.23951" lon="-1.10867">
        <ele>54.45819</ele>
        <time>2022-12-19T15:51:12.375Z</time>
      </trkpt>
      <trkpt lat="46.23948" lon="-1.10881">
        <ele>54.490803</ele>
        <time>2022-12-19T15:51:15.359Z</time>
      </trkpt>
      <trkpt lat="46.23946" lon="-1.10896">
        <ele>54.523006</ele>
        <time>2022-12-19T15:51:18.360Z</time>
      </trkpt>
      <trkpt lat="46.23944" lon="-1.10911">
        <ele>54.555266</ele>
        <time>2022-12-19T15:51:21.362Z</time>
      </trkpt>
      <trkpt lat="46.23942" lon="-1.10926">
        <ele>54.58806</ele>
        <time>2022-12-19T15:51:24.375Z</time>
      </trkpt>
      <trkpt lat="46.23939" lon="-1.10941">
        <ele>54.625804</ele>
        <time>2022-12-19T15:51:27.383Z</time>
      </trkpt>
      <trkpt lat="46.23937" lon="-1.10955">
        <ele>54.729339</ele>
        <time>2022-12-19T15:51:30.366Z</time>
      </trkpt>
      <trkpt lat="46.23934" lon="-1.10969">
        <ele>54.834174</ele>
        <time>2022-12-19T15:51:33.375Z</time>
      </trkpt>
      <trkpt lat="46.23931" lon="-1.10984">
        <ele>54.941439</ele>
        <time>2022-12-19T15:51:36.382Z</time>
      </trkpt>
      <trkpt lat="46.23928" lon="-1.10997">
        <ele>55.044385</ele>
        <time>2022-12-19T15:51:39.358Z</time>
      </trkpt>
      <trkpt lat="46.23925" lon="-1.11014">
        <ele>55.165893</ele>
        <time>2022-12-19T15:51:43.381Z</time>
      </trkpt>
      <trkpt lat="46.23922" lon="-1.11027">
        <ele>55.262259</ele>
        <time>2022-12-19T15:51:46.378Z</time>
      </trkpt>
      <trkpt lat="46.23919" lon="-1.11041">
        <ele>55.369116</ele>
        <time>2022-12-19T15:51:49.378Z</time>
      </trkpt>
      <trkpt lat="46.23915" lon="-1.11055">
        <ele>55.480378</ele>
        <time>2022-12-19T15:51:52.378Z</time>
      </trkpt>
      <trkpt lat="46.23911" lon="-1.1107">
        <ele>55.594017</ele>
        <time>2022-12-19T15:51:55.378Z</time>
      </trkpt>
      <trkpt lat="46.23908" lon="-1.11085">
        <ele>55.710025</ele>
        <time>2022-12-19T15:51:58.379Z</time>
      </trkpt>
      <trkpt lat="46.23904" lon="-1.11101">
        <ele>55.828069</ele>
        <time>2022-12-19T15:52:01.381Z</time>
      </trkpt>
      <trkpt lat="46.239" lon="-1.11116">
        <ele>55.943098</ele>
        <time>2022-12-19T15:52:04.378Z</time>
      </trkpt>
      <trkpt lat="46.23896" lon="-1.11131">
        <ele>56.057827</ele>
        <time>2022-12-19T15:52:07.380Z</time>
      </trkpt>
      <trkpt lat="46.23893" lon="-1.11144">
        <ele>56.156628</ele>
        <time>2022-12-19T15:52:10.384Z</time>
      </trkpt>
      <trkpt lat="46.23889" lon="-1.11157">
        <ele>56.261916</ele>
        <time>2022-12-19T15:52:14.380Z</time>
      </trkpt>
      <trkpt lat="46.23884" lon="-1.11173">
        <ele>56.384479</ele>
        <time>2022-12-19T15:52:18.379Z</time>
      </trkpt>
      <trkpt lat="46.2388" lon="-1.11186">
        <ele>56.485387</ele>
        <time>2022-12-19T15:52:21.378Z</time>
      </trkpt>
      <trkpt lat="46.23876" lon="-1.11199">
        <ele>56.665529</ele>
        <time>2022-12-19T15:52:24.379Z</time>
      </trkpt>
      <trkpt lat="46.23872" lon="-1.11211">
        <ele>56.84085</ele>
        <time>2022-12-19T15:52:27.380Z</time>
      </trkpt>
      <trkpt lat="46.23869" lon="-1.11224">
        <ele>57.018537</ele>
        <time>2022-12-19T15:52:30.381Z</time>
      </trkpt>
      <trkpt lat="46.23865" lon="-1.11238">
        <ele>57.204714</ele>
        <time>2022-12-19T15:52:33.359Z</time>
      </trkpt>
      <trkpt lat="46.23861" lon="-1.11251">
        <ele>57.389241</ele>
        <time>2022-12-19T15:52:36.380Z</time>
      </trkpt>
      <trkpt lat="46.23857" lon="-1.11264">
        <ele>57.567169</ele>
        <time>2022-12-19T15:52:39.378Z</time>
      </trkpt>
      <trkpt lat="46.23854" lon="-1.11277">
        <ele>57.746555</ele>
        <time>2022-12-19T15:52:42.383Z</time>
      </trkpt>
      <trkpt lat="46.2385" lon="-1.1129">
        <ele>57.925427</ele>
        <time>2022-12-19T15:52:45.375Z</time>
      </trkpt>
      <trkpt lat="46.23846" lon="-1.11302">
        <ele>58.101359</ele>
        <time>2022-12-19T15:52:48.380Z</time>
      </trkpt>
      <trkpt lat="46.23843" lon="-1.11315">
        <ele>58.272266</ele>
        <time>2022-12-19T15:52:51.380Z</time>
      </trkpt>
      <trkpt lat="46.2384" lon="-1.11327">
        <ele>58.441326</ele>
        <time>2022-12-19T15:52:54.374Z</time>
      </trkpt>
      <trkpt lat="46.23836" lon="-1.11343">
        <ele>58.650919</ele>
        <time>2022-12-19T15:52:58.381Z</time>
      </trkpt>
      <trkpt lat="46.23833" lon="-1.11355">
        <ele>58.820545</ele>
        <time>2022-12-19T15:53:01.381Z</time>
      </trkpt>
      <trkpt lat="46.23829" lon="-1.11368">
        <ele>58.999931</ele>
        <time>2022-12-19T15:53:04.380Z</time>
      </trkpt>
      <trkpt lat="46.23825" lon="-1.11382">
        <ele>59.1871</ele>
        <time>2022-12-19T15:53:07.377Z</time>
      </trkpt>
      <trkpt lat="46.23821" lon="-1.11395">
        <ele>59.374968</ele>
        <time>2022-12-19T15:53:10.376Z</time>
      </trkpt>
      <trkpt lat="46.23817" lon="-1.11409">
        <ele>59.564475</ele>
        <time>2022-12-19T15:53:13.389Z</time>
      </trkpt>
      <trkpt lat="46.23814" lon="-1.11423">
        <ele>59.7504</ele>
        <time>2022-12-19T15:53:16.380Z</time>
      </trkpt>
      <trkpt lat="46.2381" lon="-1.11436">
        <ele>59.874696</ele>
        <time>2022-12-19T15:53:19.368Z</time>
      </trkpt>
      <trkpt lat="46.23806" lon="-1.1145">
        <ele>59.972953</ele>
        <time>2022-12-19T15:53:22.367Z</time>
      </trkpt>
      <trkpt lat="46.23802" lon="-1.11463">
        <ele>60.06618</ele>
        <time>2022-12-19T15:53:25.382Z</time>
      </trkpt>
      <trkpt lat="46.23799" lon="-1.11476">
        <ele>60.158652</ele>
        <time>2022-12-19T15:53:29.359Z</time>
      </trkpt>
      <trkpt lat="46.23794" lon="-1.11489">
        <ele>60.253469</ele>
        <time>2022-12-19T15:53:33.358Z</time>
      </trkpt>
      <trkpt lat="46.2379" lon="-1.11505">
        <ele>60.364101</ele>
        <time>2022-12-19T15:53:37.374Z</time>
      </trkpt>
      <trkpt lat="46.23786" lon="-1.11517">
        <ele>60.451202</ele>
        <time>2022-12-19T15:53:40.379Z</time>
      </trkpt>
      <trkpt lat="46.23783" lon="-1.1153">
        <ele>60.540018</ele>
        <time>2022-12-19T15:53:43.376Z</time>
      </trkpt>
      <trkpt lat="46.2378" lon="-1.11543">
        <ele>60.632238</ele>
        <time>2022-12-19T15:53:46.379Z</time>
      </trkpt>
      <trkpt lat="46.23776" lon="-1.11556">
        <ele>60.72409</ele>
        <time>2022-12-19T15:53:49.383Z</time>
      </trkpt>
      <trkpt lat="46.23772" lon="-1.11569">
        <ele>60.81971</ele>
        <time>2022-12-19T15:53:52.379Z</time>
      </trkpt>
      <trkpt lat="46.23768" lon="-1.11583">
        <ele>60.916031</ele>
        <time>2022-12-19T15:53:55.363Z</time>
      </trkpt>
      <trkpt lat="46.23765" lon="-1.11596">
        <ele>61.010169</ele>
        <time>2022-12-19T15:53:58.380Z</time>
      </trkpt>
      <trkpt lat="46.23761" lon="-1.1161">
        <ele>61.106613</ele>
        <time>2022-12-19T15:54:01.380Z</time>
      </trkpt>
      <trkpt lat="46.23757" lon="-1.11623">
        <ele>61.204266</ele>
        <time>2022-12-19T15:54:04.378Z</time>
      </trkpt>
      <trkpt lat="46.23753" lon="-1.11637">
        <ele>61.298404</ele>
        <time>2022-12-19T15:54:07.379Z</time>
      </trkpt>
      <trkpt lat="46.23749" lon="-1.1165">
        <ele>61.391326</ele>
        <time>2022-12-19T15:54:10.366Z</time>
      </trkpt>
      <trkpt lat="46.23745" lon="-1.11664">
        <ele>61.49019</ele>
        <time>2022-12-19T15:54:13.380Z</time>
      </trkpt>
      <trkpt lat="46.23741" lon="-1.11678">
        <ele>61.694823</ele>
        <time>2022-12-19T15:54:16.379Z</time>
      </trkpt>
      <trkpt lat="46.23737" lon="-1.11692">
        <ele>61.929031</ele>
        <time>2022-12-19T15:54:19.380Z</time>
      </trkpt>
      <trkpt lat="46.23733" lon="-1.11705">
        <ele>62.162345</ele>
        <time>2022-12-19T15:54:22.364Z</time>
      </trkpt>
      <trkpt lat="46.23729" lon="-1.11719">
        <ele>62.397087</ele>
        <time>2022-12-19T15:54:25.377Z</time>
      </trkpt>
      <trkpt lat="46.23725" lon="-1.11733">
        <ele>62.625792</ele>
        <time>2022-12-19T15:54:28.374Z</time>
      </trkpt>
      <trkpt lat="46.23722" lon="-1.11746">
        <ele>62.845287</ele>
        <time>2022-12-19T15:54:31.381Z</time>
      </trkpt>
      <trkpt lat="46.23718" lon="-1.1176">
        <ele>63.071125</ele>
        <time>2022-12-19T15:54:34.379Z</time>
      </trkpt>
      <trkpt lat="46.23714" lon="-1.11773">
        <ele>63.298787</ele>
        <time>2022-12-19T15:54:37.376Z</time>
      </trkpt>
      <trkpt lat="46.2371" lon="-1.11787">
        <ele>63.53496</ele>
        <time>2022-12-19T15:54:40.379Z</time>
      </trkpt>
      <trkpt lat="46.23706" lon="-1.11801">
        <ele>63.771132</ele>
        <time>2022-12-19T15:54:43.379Z</time>
      </trkpt>
      <trkpt lat="46.23702" lon="-1.11815">
        <ele>64.008599</ele>
        <time>2022-12-19T15:54:46.380Z</time>
      </trkpt>
      <trkpt lat="46.23698" lon="-1.11828">
        <ele>64.218087</ele>
        <time>2022-12-19T15:54:49.378Z</time>
      </trkpt>
      <trkpt lat="46.23694" lon="-1.11844">
        <ele>64.477997</ele>
        <time>2022-12-19T15:54:53.378Z</time>
      </trkpt>
      <trkpt lat="46.2369" lon="-1.11856">
        <ele>64.687264</ele>
        <time>2022-12-19T15:54:56.363Z</time>
      </trkpt>
      <trkpt lat="46.23687" lon="-1.11869">
        <ele>64.901915</ele>
        <time>2022-12-19T15:54:59.370Z</time>
      </trkpt>
      <trkpt lat="46.23683" lon="-1.11882">
        <ele>65.123466</ele>
        <time>2022-12-19T15:55:02.368Z</time>
      </trkpt>
      <trkpt lat="46.23679" lon="-1.11895">
        <ele>65.344719</ele>
        <time>2022-12-19T15:55:05.377Z</time>
      </trkpt>
      <trkpt lat="46.23675" lon="-1.11908">
        <ele>65.557989</ele>
        <time>2022-12-19T15:55:08.358Z</time>
      </trkpt>
      <trkpt lat="46.23672" lon="-1.11921">
        <ele>65.632202</ele>
        <time>2022-12-19T15:55:11.378Z</time>
      </trkpt>
      <trkpt lat="46.23668" lon="-1.11935">
        <ele>65.708145</ele>
        <time>2022-12-19T15:55:14.368Z</time>
      </trkpt>
      <trkpt lat="46.23665" lon="-1.11949">
        <ele>65.785064</ele>
        <time>2022-12-19T15:55:17.378Z</time>
      </trkpt>
      <trkpt lat="46.23661" lon="-1.11962">
        <ele>65.86031</ele>
        <time>2022-12-19T15:55:20.355Z</time>
      </trkpt>
      <trkpt lat="46.23657" lon="-1.11975">
        <ele>65.93499</ele>
        <time>2022-12-19T15:55:23.380Z</time>
      </trkpt>
      <trkpt lat="46.23653" lon="-1.11988">
        <ele>66.00734</ele>
        <time>2022-12-19T15:55:26.358Z</time>
      </trkpt>
      <trkpt lat="46.2365" lon="-1.12">
        <ele>66.076813</ele>
        <time>2022-12-19T15:55:29.357Z</time>
      </trkpt>
      <trkpt lat="46.23646" lon="-1.12013">
        <ele>66.148329</ele>
        <time>2022-12-19T15:55:32.365Z</time>
      </trkpt>
      <trkpt lat="46.23641" lon="-1.12026">
        <ele>66.224277</ele>
        <time>2022-12-19T15:55:35.376Z</time>
      </trkpt>
      <trkpt lat="46.23637" lon="-1.12038">
        <ele>66.297692</ele>
        <time>2022-12-19T15:55:38.372Z</time>
      </trkpt>
      <trkpt lat="46.23632" lon="-1.1205">
        <ele>66.369085</ele>
        <time>2022-12-19T15:55:41.367Z</time>
      </trkpt>
      <trkpt lat="46.23627" lon="-1.12063">
        <ele>66.443564</ele>
        <time>2022-12-19T15:55:44.379Z</time>
      </trkpt>
      <trkpt lat="46.23622" lon="-1.12075">
        <ele>66.519983</ele>
        <time>2022-12-19T15:55:47.362Z</time>
      </trkpt>
      <trkpt lat="46.23617" lon="-1.12087">
        <ele>66.596402</ele>
        <time>2022-12-19T15:55:50.368Z</time>
      </trkpt>
      <trkpt lat="46.23612" lon="-1.12098">
        <ele>66.664613</ele>
        <time>2022-12-19T15:55:53.363Z</time>
      </trkpt>
      <trkpt lat="46.23606" lon="-1.1211">
        <ele>66.737101</ele>
        <time>2022-12-19T15:55:57.375Z</time>
      </trkpt>
      <trkpt lat="46.236" lon="-1.12122">
        <ele>66.817466</ele>
        <time>2022-12-19T15:56:01.379Z</time>
      </trkpt>
      <trkpt lat="46.23594" lon="-1.12133">
        <ele>66.887901</ele>
        <time>2022-12-19T15:56:04.379Z</time>
      </trkpt>
      <trkpt lat="46.23588" lon="-1.12143">
        <ele>66.853038</ele>
        <time>2022-12-19T15:56:07.378Z</time>
      </trkpt>
      <trkpt lat="46.23582" lon="-1.12153">
        <ele>66.76684</ele>
        <time>2022-12-19T15:56:10.378Z</time>
      </trkpt>
      <trkpt lat="46.23575" lon="-1.12163">
        <ele>66.679821</ele>
        <time>2022-12-19T15:56:13.379Z</time>
      </trkpt>
      <trkpt lat="46.23568" lon="-1.12173">
        <ele>66.590067</ele>
        <time>2022-12-19T15:56:16.379Z</time>
      </trkpt>
      <trkpt lat="46.23561" lon="-1.12184">
        <ele>66.497554</ele>
        <time>2022-12-19T15:56:19.370Z</time>
      </trkpt>
      <trkpt lat="46.23554" lon="-1.12193">
        <ele>66.405455</ele>
        <time>2022-12-19T15:56:22.384Z</time>
      </trkpt>
      <trkpt lat="46.23546" lon="-1.12203">
        <ele>66.313374</ele>
        <time>2022-12-19T15:56:25.358Z</time>
      </trkpt>
      <trkpt lat="46.23537" lon="-1.12214">
        <ele>66.204997</ele>
        <time>2022-12-19T15:56:29.371Z</time>
      </trkpt>
      <trkpt lat="46.2353" lon="-1.12223">
        <ele>66.116749</ele>
        <time>2022-12-19T15:56:32.380Z</time>
      </trkpt>
      <trkpt lat="46.23521" lon="-1.12231">
        <ele>66.018436</ele>
        <time>2022-12-19T15:56:35.372Z</time>
      </trkpt>
      <trkpt lat="46.23512" lon="-1.12241">
        <ele>65.916826</ele>
        <time>2022-12-19T15:56:38.365Z</time>
      </trkpt>
      <trkpt lat="46.23503" lon="-1.1225">
        <ele>65.81551</ele>
        <time>2022-12-19T15:56:41.358Z</time>
      </trkpt>
      <trkpt lat="46.23493" lon="-1.12259">
        <ele>65.710572</ele>
        <time>2022-12-19T15:56:44.380Z</time>
      </trkpt>
      <trkpt lat="46.23484" lon="-1.12267">
        <ele>65.607449</ele>
        <time>2022-12-19T15:56:47.359Z</time>
      </trkpt>
      <trkpt lat="46.23474" lon="-1.12274">
        <ele>65.509339</ele>
        <time>2022-12-19T15:56:50.380Z</time>
      </trkpt>
      <trkpt lat="46.23464" lon="-1.12281">
        <ele>65.408198</ele>
        <time>2022-12-19T15:56:53.382Z</time>
      </trkpt>
      <trkpt lat="46.23454" lon="-1.12288">
        <ele>65.305641</ele>
        <time>2022-12-19T15:56:56.363Z</time>
      </trkpt>
      <trkpt lat="46.23444" lon="-1.12295">
        <ele>65.209543</ele>
        <time>2022-12-19T15:56:59.360Z</time>
      </trkpt>
      <trkpt lat="46.23434" lon="-1.123">
        <ele>65.129758</ele>
        <time>2022-12-19T15:57:02.367Z</time>
      </trkpt>
      <trkpt lat="46.23423" lon="-1.12306">
        <ele>65.037217</ele>
        <time>2022-12-19T15:57:06.380Z</time>
      </trkpt>
      <trkpt lat="46.23415" lon="-1.1231">
        <ele>64.963652</ele>
        <time>2022-12-19T15:57:09.384Z</time>
      </trkpt>
      <trkpt lat="46.23405" lon="-1.12314">
        <ele>64.882244</ele>
        <time>2022-12-19T15:57:12.374Z</time>
      </trkpt>
      <trkpt lat="46.23394" lon="-1.12319">
        <ele>64.792001</ele>
        <time>2022-12-19T15:57:15.377Z</time>
      </trkpt>
      <trkpt lat="46.23383" lon="-1.12323">
        <ele>64.700636</ele>
        <time>2022-12-19T15:57:18.378Z</time>
      </trkpt>
      <trkpt lat="46.23371" lon="-1.12327">
        <ele>64.605294</ele>
        <time>2022-12-19T15:57:21.378Z</time>
      </trkpt>
      <trkpt lat="46.23359" lon="-1.1233">
        <ele>64.510783</ele>
        <time>2022-12-19T15:57:24.377Z</time>
      </trkpt>
      <trkpt lat="46.23347" lon="-1.12334">
        <ele>64.413495</ele>
        <time>2022-12-19T15:57:27.379Z</time>
      </trkpt>
      <trkpt lat="46.23335" lon="-1.12337">
        <ele>64.312864</ele>
        <time>2022-12-19T15:57:30.366Z</time>
      </trkpt>
      <trkpt lat="46.23322" lon="-1.12341">
        <ele>64.210155</ele>
        <time>2022-12-19T15:57:33.367Z</time>
      </trkpt>
      <trkpt lat="46.23309" lon="-1.12344">
        <ele>64.104066</ele>
        <time>2022-12-19T15:57:36.369Z</time>
      </trkpt>
      <trkpt lat="46.233" lon="-1.12347">
        <ele>64.032465</ele>
        <time>2022-12-19T15:57:38.355Z</time>
      </trkpt>
      <trkpt lat="46.23287" lon="-1.12351">
        <ele>63.927498</ele>
        <time>2022-12-19T15:57:41.378Z</time>
      </trkpt>
      <trkpt lat="46.23276" lon="-1.12356">
        <ele>63.834729</ele>
        <time>2022-12-19T15:57:44.363Z</time>
      </trkpt>
      <trkpt lat="46.23266" lon="-1.12361">
        <ele>63.739822</ele>
        <time>2022-12-19T15:57:47.361Z</time>
      </trkpt>
      <trkpt lat="46.23258" lon="-1.12366">
        <ele>63.654692</ele>
        <time>2022-12-19T15:57:50.361Z</time>
      </trkpt>
      <trkpt lat="46.2325" lon="-1.12373">
        <ele>63.568879</ele>
        <time>2022-12-19T15:57:53.370Z</time>
      </trkpt>
      <trkpt lat="46.23244" lon="-1.12383">
        <ele>63.483946</ele>
        <time>2022-12-19T15:57:56.357Z</time>
      </trkpt>
      <trkpt lat="46.23241" lon="-1.12396">
        <ele>63.395022</ele>
        <time>2022-12-19T15:57:59.364Z</time>
      </trkpt>
      <trkpt lat="46.23237" lon="-1.12409">
        <ele>63.300595</ele>
        <time>2022-12-19T15:58:02.379Z</time>
      </trkpt>
      <trkpt lat="46.23228" lon="-1.12419">
        <ele>63.201968</ele>
        <time>2022-12-19T15:58:05.362Z</time>
      </trkpt>
      <trkpt lat="46.23218" lon="-1.12423">
        <ele>63.10674</ele>
        <time>2022-12-19T15:58:08.374Z</time>
      </trkpt>
      <trkpt lat="46.23208" lon="-1.12422">
        <ele>63.005918</ele>
        <time>2022-12-19T15:58:12.378Z</time>
      </trkpt>
      <trkpt lat="46.23199" lon="-1.12415">
        <ele>62.913853</ele>
        <time>2022-12-19T15:58:16.379Z</time>
      </trkpt>
      <trkpt lat="46.23191" lon="-1.12409">
        <ele>62.827719</ele>
        <time>2022-12-19T15:58:19.378Z</time>
      </trkpt>
      <trkpt lat="46.23182" lon="-1.12402">
        <ele>62.734453</ele>
        <time>2022-12-19T15:58:22.383Z</time>
      </trkpt>
      <trkpt lat="46.23172" lon="-1.12398">
        <ele>62.637541</ele>
        <time>2022-12-19T15:58:25.368Z</time>
      </trkpt>
      <trkpt lat="46.23161" lon="-1.12398">
        <ele>62.534122</ele>
        <time>2022-12-19T15:58:28.358Z</time>
      </trkpt>
      <trkpt lat="46.23151" lon="-1.12399">
        <ele>62.440879</ele>
        <time>2022-12-19T15:58:31.377Z</time>
      </trkpt>
      <trkpt lat="46.2314" lon="-1.124">
        <ele>62.342801</ele>
        <time>2022-12-19T15:58:34.380Z</time>
      </trkpt>
      <trkpt lat="46.2313" lon="-1.124">
        <ele>62.249558</ele>
        <time>2022-12-19T15:58:37.377Z</time>
      </trkpt>
      <trkpt lat="46.2312" lon="-1.12401">
        <ele>62.165385</ele>
        <time>2022-12-19T15:58:40.381Z</time>
      </trkpt>
      <trkpt lat="46.2311" lon="-1.12402">
        <ele>62.236586</ele>
        <time>2022-12-19T15:58:43.379Z</time>
      </trkpt>
      <trkpt lat="46.23101" lon="-1.12403">
        <ele>62.300819</ele>
        <time>2022-12-19T15:58:46.364Z</time>
      </trkpt>
      <trkpt lat="46.23091" lon="-1.12406">
        <ele>62.371557</ele>
        <time>2022-12-19T15:58:50.379Z</time>
      </trkpt>
      <trkpt lat="46.23081" lon="-1.12407">
        <ele>62.435789</ele>
        <time>2022-12-19T15:58:54.379Z</time>
      </trkpt>
      <trkpt lat="46.2308" lon="-1.12406">
        <ele>62.446029</ele>
        <time>2022-12-19T16:00:52.643Z</time>
      </trkpt>
      <trkpt lat="46.23087" lon="-1.12395">
        <ele>62.5171</ele>
        <time>2022-12-19T16:11:39.379Z</time>
      </trkpt>
      <trkpt lat="46.23096" lon="-1.12395">
        <ele>62.582479</ele>
        <time>2022-12-19T16:11:42.370Z</time>
      </trkpt>
      <trkpt lat="46.23106" lon="-1.12395">
        <ele>62.649971</ele>
        <time>2022-12-19T16:11:45.377Z</time>
      </trkpt>
      <trkpt lat="46.23117" lon="-1.12393">
        <ele>62.722805</ele>
        <time>2022-12-19T16:11:48.385Z</time>
      </trkpt>
      <trkpt lat="46.23128" lon="-1.12391">
        <ele>62.799838</ele>
        <time>2022-12-19T16:11:51.377Z</time>
      </trkpt>
      <trkpt lat="46.23139" lon="-1.12389">
        <ele>62.879122</ele>
        <time>2022-12-19T16:11:54.375Z</time>
      </trkpt>
      <trkpt lat="46.2315" lon="-1.12386">
        <ele>62.957925</ele>
        <time>2022-12-19T16:11:57.372Z</time>
      </trkpt>
      <trkpt lat="46.2316" lon="-1.12383">
        <ele>63.031763</ele>
        <time>2022-12-19T16:12:00.371Z</time>
      </trkpt>
      <trkpt lat="46.2317" lon="-1.12381">
        <ele>63.101046</ele>
        <time>2022-12-19T16:12:03.374Z</time>
      </trkpt>
      <trkpt lat="46.23179" lon="-1.12377">
        <ele>63.165576</ele>
        <time>2022-12-19T16:12:06.373Z</time>
      </trkpt>
      <trkpt lat="46.23187" lon="-1.12368">
        <ele>63.237502</ele>
        <time>2022-12-19T16:12:09.366Z</time>
      </trkpt>
      <trkpt lat="46.23195" lon="-1.12355">
        <ele>63.316941</ele>
        <time>2022-12-19T16:12:12.380Z</time>
      </trkpt>
      <trkpt lat="46.23204" lon="-1.12346">
        <ele>63.395002</ele>
        <time>2022-12-19T16:12:15.378Z</time>
      </trkpt>
      <trkpt lat="46.23214" lon="-1.12343">
        <ele>63.402868</ele>
        <time>2022-12-19T16:12:18.362Z</time>
      </trkpt>
      <trkpt lat="46.23224" lon="-1.12346">
        <ele>63.392112</ele>
        <time>2022-12-19T16:12:21.375Z</time>
      </trkpt>
      <trkpt lat="46.23234" lon="-1.12355">
        <ele>63.380102</ele>
        <time>2022-12-19T16:12:24.376Z</time>
      </trkpt>
      <trkpt lat="46.2324" lon="-1.12369">
        <ele>63.367816</ele>
        <time>2022-12-19T16:12:27.383Z</time>
      </trkpt>
      <trkpt lat="46.23241" lon="-1.12386">
        <ele>63.35516</ele>
        <time>2022-12-19T16:12:30.366Z</time>
      </trkpt>
      <trkpt lat="46.23238" lon="-1.12403">
        <ele>63.342657</ele>
        <time>2022-12-19T16:12:33.374Z</time>
      </trkpt>
      <trkpt lat="46.2323" lon="-1.12413">
        <ele>63.331383</ele>
        <time>2022-12-19T16:12:36.371Z</time>
      </trkpt>
      <trkpt lat="46.23222" lon="-1.12422">
        <ele>63.321224</ele>
        <time>2022-12-19T16:12:39.371Z</time>
      </trkpt>
      <trkpt lat="46.23214" lon="-1.12431">
        <ele>63.310465</ele>
        <time>2022-12-19T16:12:42.370Z</time>
      </trkpt>
      <trkpt lat="46.23209" lon="-1.12446">
        <ele>63.298485</ele>
        <time>2022-12-19T16:12:45.368Z</time>
      </trkpt>
      <trkpt lat="46.23206" lon="-1.12462">
        <ele>63.285791</ele>
        <time>2022-12-19T16:12:48.366Z</time>
      </trkpt>
      <trkpt lat="46.23204" lon="-1.12479">
        <ele>63.273478</ele>
        <time>2022-12-19T16:12:51.385Z</time>
      </trkpt>
      <trkpt lat="46.23202" lon="-1.12496">
        <ele>63.260916</ele>
        <time>2022-12-19T16:12:54.374Z</time>
      </trkpt>
      <trkpt lat="46.232" lon="-1.12513">
        <ele>63.24812</ele>
        <time>2022-12-19T16:12:57.386Z</time>
      </trkpt>
      <trkpt lat="46.23197" lon="-1.12531">
        <ele>63.234987</ele>
        <time>2022-12-19T16:13:00.375Z</time>
      </trkpt>
      <trkpt lat="46.23194" lon="-1.12549">
        <ele>63.221755</ele>
        <time>2022-12-19T16:13:03.389Z</time>
      </trkpt>
      <trkpt lat="46.23192" lon="-1.12565">
        <ele>63.237995</ele>
        <time>2022-12-19T16:13:06.386Z</time>
      </trkpt>
      <trkpt lat="46.23191" lon="-1.12582">
        <ele>63.254011</ele>
        <time>2022-12-19T16:13:09.374Z</time>
      </trkpt>
      <trkpt lat="46.23192" lon="-1.12599">
        <ele>63.270622</ele>
        <time>2022-12-19T16:13:12.370Z</time>
      </trkpt>
      <trkpt lat="46.23193" lon="-1.12616">
        <ele>63.287705</ele>
        <time>2022-12-19T16:13:15.392Z</time>
      </trkpt>
      <trkpt lat="46.23195" lon="-1.12634">
        <ele>63.305186</ele>
        <time>2022-12-19T16:13:18.388Z</time>
      </trkpt>
      <trkpt lat="46.23197" lon="-1.12653">
        <ele>63.323498</ele>
        <time>2022-12-19T16:13:21.397Z</time>
      </trkpt>
      <trkpt lat="46.23199" lon="-1.12671">
        <ele>63.341929</ele>
        <time>2022-12-19T16:13:24.372Z</time>
      </trkpt>
      <trkpt lat="46.23201" lon="-1.12689">
        <ele>63.359761</ele>
        <time>2022-12-19T16:13:27.373Z</time>
      </trkpt>
      <trkpt lat="46.23203" lon="-1.12706">
        <ele>63.376514</ele>
        <time>2022-12-19T16:13:30.370Z</time>
      </trkpt>
      <trkpt lat="46.23205" lon="-1.12723">
        <ele>63.393012</ele>
        <time>2022-12-19T16:13:33.377Z</time>
      </trkpt>
      <trkpt lat="46.23207" lon="-1.12738">
        <ele>63.407439</ele>
        <time>2022-12-19T16:13:36.385Z</time>
      </trkpt>
      <trkpt lat="46.23208" lon="-1.12755">
        <ele>63.424674</ele>
        <time>2022-12-19T16:13:40.373Z</time>
      </trkpt>
      <trkpt lat="46.2321" lon="-1.12771">
        <ele>63.440422</ele>
        <time>2022-12-19T16:13:43.372Z</time>
      </trkpt>
      <trkpt lat="46.23212" lon="-1.12787">
        <ele>63.45624</ele>
        <time>2022-12-19T16:13:46.373Z</time>
      </trkpt>
      <trkpt lat="46.23216" lon="-1.12803">
        <ele>63.472192</ele>
        <time>2022-12-19T16:13:49.378Z</time>
      </trkpt>
      <trkpt lat="46.23221" lon="-1.12817">
        <ele>63.512929</ele>
        <time>2022-12-19T16:13:52.379Z</time>
      </trkpt>
      <trkpt lat="46.23225" lon="-1.12832">
        <ele>63.561858</ele>
        <time>2022-12-19T16:13:55.375Z</time>
      </trkpt>
      <trkpt lat="46.23228" lon="-1.12848">
        <ele>63.611655</ele>
        <time>2022-12-19T16:13:58.374Z</time>
      </trkpt>
      <trkpt lat="46.2323" lon="-1.12863">
        <ele>63.658129</ele>
        <time>2022-12-19T16:14:01.360Z</time>
      </trkpt>
      <trkpt lat="46.23232" lon="-1.12878">
        <ele>63.70306</ele>
        <time>2022-12-19T16:14:04.374Z</time>
      </trkpt>
      <trkpt lat="46.23234" lon="-1.12892">
        <ele>63.7468</ele>
        <time>2022-12-19T16:14:07.373Z</time>
      </trkpt>
      <trkpt lat="46.23235" lon="-1.12907">
        <ele>63.790013</ele>
        <time>2022-12-19T16:14:10.382Z</time>
      </trkpt>
      <trkpt lat="46.23238" lon="-1.12923">
        <ele>63.838176</ele>
        <time>2022-12-19T16:14:13.363Z</time>
      </trkpt>
      <trkpt lat="46.23241" lon="-1.12939">
        <ele>63.886339</ele>
        <time>2022-12-19T16:14:16.369Z</time>
      </trkpt>
      <trkpt lat="46.23242" lon="-1.12955">
        <ele>63.934408</ele>
        <time>2022-12-19T16:14:19.374Z</time>
      </trkpt>
      <trkpt lat="46.23243" lon="-1.1297">
        <ele>63.979729</ele>
        <time>2022-12-19T16:14:22.375Z</time>
      </trkpt>
      <trkpt lat="46.2324" lon="-1.12985">
        <ele>64.028233</ele>
        <time>2022-12-19T16:14:26.364Z</time>
      </trkpt>
      <trkpt lat="46.23231" lon="-1.12988">
        <ele>64.067046</ele>
        <time>2022-12-19T16:14:29.368Z</time>
      </trkpt>
      <trkpt lat="46.23221" lon="-1.1299">
        <ele>64.107737</ele>
        <time>2022-12-19T16:14:32.377Z</time>
      </trkpt>
      <trkpt lat="46.23212" lon="-1.1299">
        <ele>64.147205</ele>
        <time>2022-12-19T16:14:35.367Z</time>
      </trkpt>
      <trkpt lat="46.23203" lon="-1.12992">
        <ele>64.18857</ele>
        <time>2022-12-19T16:14:38.363Z</time>
      </trkpt>
      <trkpt lat="46.23194" lon="-1.12996">
        <ele>64.228615</ele>
        <time>2022-12-19T16:14:41.375Z</time>
      </trkpt>
      <trkpt lat="46.23183" lon="-1.13">
        <ele>64.216958</ele>
        <time>2022-12-19T16:14:45.362Z</time>
      </trkpt>
      <trkpt lat="46.23171" lon="-1.13004">
        <ele>64.172471</ele>
        <time>2022-12-19T16:14:49.368Z</time>
      </trkpt>
      <trkpt lat="46.23161" lon="-1.13011">
        <ele>64.128034</ele>
        <time>2022-12-19T16:14:53.368Z</time>
      </trkpt>
      <trkpt lat="46.23151" lon="-1.13018">
        <ele>64.084946</ele>
        <time>2022-12-19T16:14:57.376Z</time>
      </trkpt>
      <trkpt lat="46.23142" lon="-1.13028">
        <ele>64.041461</ele>
        <time>2022-12-19T16:15:01.368Z</time>
      </trkpt>
      <trkpt lat="46.23133" lon="-1.13037">
        <ele>63.999177</ele>
        <time>2022-12-19T16:15:05.369Z</time>
      </trkpt>
      <trkpt lat="46.23124" lon="-1.13046">
        <ele>63.957214</ele>
        <time>2022-12-19T16:15:09.383Z</time>
      </trkpt>
      <trkpt lat="46.23113" lon="-1.13051">
        <ele>63.913316</ele>
        <time>2022-12-19T16:15:13.368Z</time>
      </trkpt>
      <trkpt lat="46.23102" lon="-1.13054">
        <ele>63.870913</ele>
        <time>2022-12-19T16:15:17.384Z</time>
      </trkpt>
      <trkpt lat="46.23091" lon="-1.13056">
        <ele>63.826144</ele>
        <time>2022-12-19T16:15:21.373Z</time>
      </trkpt>
      <trkpt lat="46.2308" lon="-1.1306">
        <ele>63.785448</ele>
        <time>2022-12-19T16:15:24.376Z</time>
      </trkpt>
      <trkpt lat="46.23069" lon="-1.13064">
        <ele>63.741478</ele>
        <time>2022-12-19T16:15:27.369Z</time>
      </trkpt>
      <trkpt lat="46.23059" lon="-1.13069">
        <ele>63.698542</ele>
        <time>2022-12-19T16:15:30.371Z</time>
      </trkpt>
      <trkpt lat="46.23048" lon="-1.13074">
        <ele>63.656309</ele>
        <time>2022-12-19T16:15:33.367Z</time>
      </trkpt>
      <trkpt lat="46.23039" lon="-1.1308">
        <ele>63.618018</ele>
        <time>2022-12-19T16:15:36.373Z</time>
      </trkpt>
      <trkpt lat="46.23029" lon="-1.13086">
        <ele>63.576575</ele>
        <time>2022-12-19T16:15:39.373Z</time>
      </trkpt>
      <trkpt lat="46.23019" lon="-1.13091">
        <ele>63.500496</ele>
        <time>2022-12-19T16:15:42.370Z</time>
      </trkpt>
      <trkpt lat="46.23009" lon="-1.13097">
        <ele>63.377712</ele>
        <time>2022-12-19T16:15:45.370Z</time>
      </trkpt>
      <trkpt lat="46.22999" lon="-1.13101">
        <ele>63.263237</ele>
        <time>2022-12-19T16:15:48.377Z</time>
      </trkpt>
      <trkpt lat="46.22987" lon="-1.13105">
        <ele>63.131186</ele>
        <time>2022-12-19T16:15:52.390Z</time>
      </trkpt>
      <trkpt lat="46.22976" lon="-1.13112">
        <ele>62.998887</ele>
        <time>2022-12-19T16:15:56.363Z</time>
      </trkpt>
      <trkpt lat="46.22972" lon="-1.13123">
        <ele>62.898725</ele>
        <time>2022-12-19T16:15:59.362Z</time>
      </trkpt>
      <trkpt lat="46.22969" lon="-1.1314">
        <ele>62.766287</ele>
        <time>2022-12-19T16:16:03.373Z</time>
      </trkpt>
      <trkpt lat="46.22968" lon="-1.13155">
        <ele>62.644192</ele>
        <time>2022-12-19T16:16:07.372Z</time>
      </trkpt>
      <trkpt lat="46.22968" lon="-1.13169">
        <ele>62.543083</ele>
        <time>2022-12-19T16:16:10.368Z</time>
      </trkpt>
      <trkpt lat="46.22967" lon="-1.13183">
        <ele>62.428662</ele>
        <time>2022-12-19T16:16:13.368Z</time>
      </trkpt>
      <trkpt lat="46.22966" lon="-1.13198">
        <ele>62.317971</ele>
        <time>2022-12-19T16:16:16.363Z</time>
      </trkpt>
      <trkpt lat="46.22964" lon="-1.13211">
        <ele>62.211148</ele>
        <time>2022-12-19T16:16:19.376Z</time>
      </trkpt>
      <trkpt lat="46.22962" lon="-1.13227">
        <ele>62.08627</ele>
        <time>2022-12-19T16:16:22.374Z</time>
      </trkpt>
      <trkpt lat="46.22956" lon="-1.13242">
        <ele>61.95271</ele>
        <time>2022-12-19T16:16:25.383Z</time>
      </trkpt>
      <trkpt lat="46.22951" lon="-1.13253">
        <ele>61.848202</ele>
        <time>2022-12-19T16:16:27.387Z</time>
      </trkpt>
      <trkpt lat="46.22946" lon="-1.13265">
        <ele>61.7411</ele>
        <time>2022-12-19T16:16:29.384Z</time>
      </trkpt>
      <trkpt lat="46.2294" lon="-1.13278">
        <ele>61.626441</ele>
        <time>2022-12-19T16:16:31.370Z</time>
      </trkpt>
      <trkpt lat="46.22934" lon="-1.13291">
        <ele>61.415882</ele>
        <time>2022-12-19T16:16:33.376Z</time>
      </trkpt>
      <trkpt lat="46.22928" lon="-1.13304">
        <ele>61.062732</ele>
        <time>2022-12-19T16:16:35.371Z</time>
      </trkpt>
      <trkpt lat="46.22922" lon="-1.13317">
        <ele>60.698406</ele>
        <time>2022-12-19T16:16:37.377Z</time>
      </trkpt>
      <trkpt lat="46.22917" lon="-1.13332">
        <ele>60.33577</ele>
        <time>2022-12-19T16:16:39.376Z</time>
      </trkpt>
      <trkpt lat="46.22912" lon="-1.13344">
        <ele>60.001656</ele>
        <time>2022-12-19T16:16:41.373Z</time>
      </trkpt>
      <trkpt lat="46.22907" lon="-1.13356">
        <ele>59.673609</ele>
        <time>2022-12-19T16:16:43.372Z</time>
      </trkpt>
      <trkpt lat="46.22903" lon="-1.13368">
        <ele>59.375949</ele>
        <time>2022-12-19T16:16:45.372Z</time>
      </trkpt>
      <trkpt lat="46.22897" lon="-1.13384">
        <ele>58.970862</ele>
        <time>2022-12-19T16:16:48.383Z</time>
      </trkpt>
      <trkpt lat="46.22892" lon="-1.13395">
        <ele>58.658514</ele>
        <time>2022-12-19T16:16:51.386Z</time>
      </trkpt>
      <trkpt lat="46.22885" lon="-1.1341">
        <ele>58.275498</ele>
        <time>2022-12-19T16:16:55.372Z</time>
      </trkpt>
      <trkpt lat="46.22879" lon="-1.13423">
        <ele>57.907806</ele>
        <time>2022-12-19T16:16:58.372Z</time>
      </trkpt>
      <trkpt lat="46.22871" lon="-1.13436">
        <ele>57.513814</ele>
        <time>2022-12-19T16:17:01.380Z</time>
      </trkpt>
      <trkpt lat="46.22862" lon="-1.13448">
        <ele>57.105756</ele>
        <time>2022-12-19T16:17:04.372Z</time>
      </trkpt>
      <trkpt lat="46.22853" lon="-1.1346">
        <ele>56.706473</ele>
        <time>2022-12-19T16:17:07.373Z</time>
      </trkpt>
      <trkpt lat="46.22845" lon="-1.13471">
        <ele>56.343126</ele>
        <time>2022-12-19T16:17:10.708Z</time>
      </trkpt>
      <trkpt lat="46.22837" lon="-1.13482">
        <ele>55.980104</ele>
        <time>2022-12-19T16:17:13.366Z</time>
      </trkpt>
      <trkpt lat="46.22827" lon="-1.13495">
        <ele>55.619754</ele>
        <time>2022-12-19T16:17:16.384Z</time>
      </trkpt>
      <trkpt lat="46.22818" lon="-1.13508">
        <ele>55.487622</ele>
        <time>2022-12-19T16:17:19.372Z</time>
      </trkpt>
      <trkpt lat="46.22809" lon="-1.13519">
        <ele>55.368459</ele>
        <time>2022-12-19T16:17:22.377Z</time>
      </trkpt>
      <trkpt lat="46.228" lon="-1.13528">
        <ele>55.257117</ele>
        <time>2022-12-19T16:17:25.389Z</time>
      </trkpt>
      <trkpt lat="46.22793" lon="-1.13539">
        <ele>55.150514</ele>
        <time>2022-12-19T16:17:28.377Z</time>
      </trkpt>
      <trkpt lat="46.22784" lon="-1.13549">
        <ele>55.035477</ele>
        <time>2022-12-19T16:17:31.369Z</time>
      </trkpt>
      <trkpt lat="46.22773" lon="-1.13559">
        <ele>54.910173</ele>
        <time>2022-12-19T16:17:34.375Z</time>
      </trkpt>
      <trkpt lat="46.22763" lon="-1.13569">
        <ele>54.78444</ele>
        <time>2022-12-19T16:17:37.378Z</time>
      </trkpt>
      <trkpt lat="46.22753" lon="-1.1358">
        <ele>54.659547</ele>
        <time>2022-12-19T16:17:40.386Z</time>
      </trkpt>
      <trkpt lat="46.22744" lon="-1.1359">
        <ele>54.538359</ele>
        <time>2022-12-19T16:17:43.367Z</time>
      </trkpt>
      <trkpt lat="46.22734" lon="-1.13599">
        <ele>54.419048</ele>
        <time>2022-12-19T16:17:46.374Z</time>
      </trkpt>
      <trkpt lat="46.22725" lon="-1.13608">
        <ele>54.313865</ele>
        <time>2022-12-19T16:17:49.371Z</time>
      </trkpt>
      <trkpt lat="46.22717" lon="-1.13616">
        <ele>54.210815</ele>
        <time>2022-12-19T16:17:52.369Z</time>
      </trkpt>
      <trkpt lat="46.22707" lon="-1.13623">
        <ele>54.101416</ele>
        <time>2022-12-19T16:17:55.373Z</time>
      </trkpt>
      <trkpt lat="46.22697" lon="-1.13631">
        <ele>53.986438</ele>
        <time>2022-12-19T16:17:58.382Z</time>
      </trkpt>
      <trkpt lat="46.22687" lon="-1.13639">
        <ele>53.86489</ele>
        <time>2022-12-19T16:18:01.372Z</time>
      </trkpt>
      <trkpt lat="46.22676" lon="-1.13648">
        <ele>53.761804</ele>
        <time>2022-12-19T16:18:04.388Z</time>
      </trkpt>
      <trkpt lat="46.22664" lon="-1.13655">
        <ele>53.670327</ele>
        <time>2022-12-19T16:18:07.388Z</time>
      </trkpt>
      <trkpt lat="46.22654" lon="-1.13662">
        <ele>53.583026</ele>
        <time>2022-12-19T16:18:10.391Z</time>
      </trkpt>
      <trkpt lat="46.22643" lon="-1.13669">
        <ele>53.494983</ele>
        <time>2022-12-19T16:18:13.384Z</time>
      </trkpt>
      <trkpt lat="46.22632" lon="-1.13676">
        <ele>53.409375</ele>
        <time>2022-12-19T16:18:16.394Z</time>
      </trkpt>
      <trkpt lat="46.22622" lon="-1.13681">
        <ele>53.332143</ele>
        <time>2022-12-19T16:18:19.379Z</time>
      </trkpt>
      <trkpt lat="46.22613" lon="-1.13686">
        <ele>53.261714</ele>
        <time>2022-12-19T16:18:22.367Z</time>
      </trkpt>
      <trkpt lat="46.22603" lon="-1.13694">
        <ele>53.175328</ele>
        <time>2022-12-19T16:18:26.372Z</time>
      </trkpt>
      <trkpt lat="46.22593" lon="-1.137">
        <ele>53.098185</ele>
        <time>2022-12-19T16:18:29.388Z</time>
      </trkpt>
      <trkpt lat="46.22583" lon="-1.13705">
        <ele>53.01997</ele>
        <time>2022-12-19T16:18:32.372Z</time>
      </trkpt>
      <trkpt lat="46.22573" lon="-1.13711">
        <ele>52.940109</ele>
        <time>2022-12-19T16:18:35.370Z</time>
      </trkpt>
      <trkpt lat="46.22563" lon="-1.13718">
        <ele>52.854363</ele>
        <time>2022-12-19T16:18:38.373Z</time>
      </trkpt>
      <trkpt lat="46.22551" lon="-1.13724">
        <ele>52.765533</ele>
        <time>2022-12-19T16:18:41.379Z</time>
      </trkpt>
      <trkpt lat="46.22541" lon="-1.13731">
        <ele>52.680479</ele>
        <time>2022-12-19T16:18:44.378Z</time>
      </trkpt>
      <trkpt lat="46.22532" lon="-1.13738">
        <ele>52.608323</ele>
        <time>2022-12-19T16:18:47.368Z</time>
      </trkpt>
      <trkpt lat="46.22524" lon="-1.13747">
        <ele>52.531373</ele>
        <time>2022-12-19T16:18:50.395Z</time>
      </trkpt>
      <trkpt lat="46.22514" lon="-1.13756">
        <ele>52.455076</ele>
        <time>2022-12-19T16:18:53.365Z</time>
      </trkpt>
      <trkpt lat="46.22505" lon="-1.13769">
        <ele>52.37527</ele>
        <time>2022-12-19T16:18:56.390Z</time>
      </trkpt>
      <trkpt lat="46.22495" lon="-1.13781">
        <ele>52.295185</ele>
        <time>2022-12-19T16:18:59.366Z</time>
      </trkpt>
      <trkpt lat="46.22487" lon="-1.13794">
        <ele>52.221027</ele>
        <time>2022-12-19T16:19:02.372Z</time>
      </trkpt>
      <trkpt lat="46.2248" lon="-1.13807">
        <ele>52.153974</ele>
        <time>2022-12-19T16:19:05.374Z</time>
      </trkpt>
      <trkpt lat="46.22474" lon="-1.13819">
        <ele>52.090422</ele>
        <time>2022-12-19T16:19:08.369Z</time>
      </trkpt>
      <trkpt lat="46.22467" lon="-1.13832">
        <ele>52.018092</ele>
        <time>2022-12-19T16:19:12.384Z</time>
      </trkpt>
      <trkpt lat="46.22456" lon="-1.13834">
        <ele>51.951141</ele>
        <time>2022-12-19T16:19:16.373Z</time>
      </trkpt>
      <trkpt lat="46.22447" lon="-1.13829">
        <ele>51.891247</ele>
        <time>2022-12-19T16:19:19.367Z</time>
      </trkpt>
      <trkpt lat="46.22439" lon="-1.13822">
        <ele>51.833232</ele>
        <time>2022-12-19T16:19:22.370Z</time>
      </trkpt>
      <trkpt lat="46.2243" lon="-1.13813">
        <ele>51.766696</ele>
        <time>2022-12-19T16:19:26.372Z</time>
      </trkpt>
      <trkpt lat="46.2244" lon="-1.13818">
        <ele>51.700539</ele>
        <time>2022-12-19T16:20:20.365Z</time>
      </trkpt>
      <trkpt lat="46.2245" lon="-1.13824">
        <ele>51.633565</ele>
        <time>2022-12-19T16:20:24.383Z</time>
      </trkpt>
      <trkpt lat="46.22458" lon="-1.13834">
        <ele>51.570436</ele>
        <time>2022-12-19T16:20:28.372Z</time>
      </trkpt>
      <trkpt lat="46.22457" lon="-1.13851">
        <ele>51.498975</ele>
        <time>2022-12-19T16:20:32.369Z</time>
      </trkpt>
      <trkpt lat="46.22452" lon="-1.13864">
        <ele>51.435777</ele>
        <time>2022-12-19T16:20:35.364Z</time>
      </trkpt>
      <trkpt lat="46.22447" lon="-1.13876">
        <ele>51.419569</ele>
        <time>2022-12-19T16:20:38.359Z</time>
      </trkpt>
      <trkpt lat="46.22441" lon="-1.13889">
        <ele>51.540957</ele>
        <time>2022-12-19T16:20:42.369Z</time>
      </trkpt>
      <trkpt lat="46.22436" lon="-1.13901">
        <ele>51.651014</ele>
        <time>2022-12-19T16:20:45.374Z</time>
      </trkpt>
      <trkpt lat="46.22431" lon="-1.13914">
        <ele>51.770801</ele>
        <time>2022-12-19T16:20:48.369Z</time>
      </trkpt>
      <trkpt lat="46.22426" lon="-1.13928">
        <ele>51.888365</ele>
        <time>2022-12-19T16:20:51.367Z</time>
      </trkpt>
      <trkpt lat="46.22422" lon="-1.1394">
        <ele>51.991584</ele>
        <time>2022-12-19T16:20:54.369Z</time>
      </trkpt>
      <trkpt lat="46.22419" lon="-1.13955">
        <ele>52.109039</ele>
        <time>2022-12-19T16:20:58.384Z</time>
      </trkpt>
      <trkpt lat="46.22416" lon="-1.13967">
        <ele>52.214399</ele>
        <time>2022-12-19T16:21:03.366Z</time>
      </trkpt>
      <trkpt lat="46.22408" lon="-1.13979">
        <ele>52.339495</ele>
        <time>2022-12-19T16:21:08.373Z</time>
      </trkpt>
      <trkpt lat="46.22398" lon="-1.13982">
        <ele>52.459666</ele>
        <time>2022-12-19T16:21:12.369Z</time>
      </trkpt>
      <trkpt lat="46.22386" lon="-1.13985">
        <ele>52.591154</ele>
        <time>2022-12-19T16:21:16.372Z</time>
      </trkpt>
      <trkpt lat="46.22375" lon="-1.13987">
        <ele>52.724547</ele>
        <time>2022-12-19T16:21:20.384Z</time>
      </trkpt>
      <trkpt lat="46.22363" lon="-1.13989">
        <ele>52.855805</ele>
        <time>2022-12-19T16:21:24.371Z</time>
      </trkpt>
      <trkpt lat="46.22351" lon="-1.13991">
        <ele>52.985316</ele>
        <time>2022-12-19T16:21:28.389Z</time>
      </trkpt>
      <trkpt lat="46.2234" lon="-1.13993">
        <ele>53.112221</ele>
        <time>2022-12-19T16:21:32.371Z</time>
      </trkpt>
      <trkpt lat="46.22329" lon="-1.13994">
        <ele>53.240895</ele>
        <time>2022-12-19T16:21:36.387Z</time>
      </trkpt>
      <trkpt lat="46.22319" lon="-1.13996">
        <ele>53.346916</ele>
        <time>2022-12-19T16:21:40.371Z</time>
      </trkpt>
      <trkpt lat="46.22308" lon="-1.13998">
        <ele>53.435191</ele>
        <time>2022-12-19T16:21:45.395Z</time>
      </trkpt>
      <trkpt lat="46.22297" lon="-1.14001">
        <ele>53.480405</ele>
        <time>2022-12-19T16:21:49.388Z</time>
      </trkpt>
      <trkpt lat="46.22287" lon="-1.14003">
        <ele>53.526906</ele>
        <time>2022-12-19T16:21:53.371Z</time>
      </trkpt>
      <trkpt lat="46.22276" lon="-1.14005">
        <ele>53.573657</ele>
        <time>2022-12-19T16:21:57.390Z</time>
      </trkpt>
      <trkpt lat="46.22264" lon="-1.14007">
        <ele>53.623962</ele>
        <time>2022-12-19T16:22:01.373Z</time>
      </trkpt>
      <trkpt lat="46.22254" lon="-1.14008">
        <ele>53.664714</ele>
        <time>2022-12-19T16:22:04.375Z</time>
      </trkpt>
      <trkpt lat="46.22244" lon="-1.1401">
        <ele>53.707465</ele>
        <time>2022-12-19T16:22:07.390Z</time>
      </trkpt>
      <trkpt lat="46.22233" lon="-1.14012">
        <ele>53.752211</ele>
        <time>2022-12-19T16:22:10.377Z</time>
      </trkpt>
      <trkpt lat="46.22223" lon="-1.14013">
        <ele>53.798271</ele>
        <time>2022-12-19T16:22:13.373Z</time>
      </trkpt>
      <trkpt lat="46.22212" lon="-1.14015">
        <ele>53.841224</ele>
        <time>2022-12-19T16:22:16.389Z</time>
      </trkpt>
      <trkpt lat="46.22201" lon="-1.14018">
        <ele>53.889852</ele>
        <time>2022-12-19T16:22:20.368Z</time>
      </trkpt>
      <trkpt lat="46.22192" lon="-1.14019">
        <ele>53.928381</ele>
        <time>2022-12-19T16:22:23.367Z</time>
      </trkpt>
      <trkpt lat="46.22182" lon="-1.14021">
        <ele>53.970323</ele>
        <time>2022-12-19T16:22:26.369Z</time>
      </trkpt>
      <trkpt lat="46.22172" lon="-1.14023">
        <ele>54.013866</ele>
        <time>2022-12-19T16:22:29.366Z</time>
      </trkpt>
      <trkpt lat="46.22161" lon="-1.14025">
        <ele>54.057875</ele>
        <time>2022-12-19T16:22:32.367Z</time>
      </trkpt>
      <trkpt lat="46.22151" lon="-1.14026">
        <ele>54.10159</ele>
        <time>2022-12-19T16:22:35.368Z</time>
      </trkpt>
      <trkpt lat="46.22141" lon="-1.14028">
        <ele>54.14405</ele>
        <time>2022-12-19T16:22:38.385Z</time>
      </trkpt>
      <trkpt lat="46.22131" lon="-1.1403">
        <ele>54.162403</ele>
        <time>2022-12-19T16:22:41.384Z</time>
      </trkpt>
      <trkpt lat="46.22121" lon="-1.14031">
        <ele>54.148937</ele>
        <time>2022-12-19T16:22:44.381Z</time>
      </trkpt>
      <trkpt lat="46.22111" lon="-1.14033">
        <ele>54.135471</ele>
        <time>2022-12-19T16:22:47.367Z</time>
      </trkpt>
      <trkpt lat="46.22101" lon="-1.14035">
        <ele>54.121957</ele>
        <time>2022-12-19T16:22:50.370Z</time>
      </trkpt>
      <trkpt lat="46.22091" lon="-1.14036">
        <ele>54.108272</ele>
        <time>2022-12-19T16:22:53.371Z</time>
      </trkpt>
      <trkpt lat="46.2208" lon="-1.14037">
        <ele>54.09395</ele>
        <time>2022-12-19T16:22:56.383Z</time>
      </trkpt>
      <trkpt lat="46.22069" lon="-1.14039">
        <ele>54.079244</ele>
        <time>2022-12-19T16:22:59.370Z</time>
      </trkpt>
      <trkpt lat="46.22057" lon="-1.14042">
        <ele>54.063276</ele>
        <time>2022-12-19T16:23:02.366Z</time>
      </trkpt>
      <trkpt lat="46.22045" lon="-1.14044">
        <ele>54.047457</ele>
        <time>2022-12-19T16:23:05.363Z</time>
      </trkpt>
      <trkpt lat="46.22033" lon="-1.14046">
        <ele>54.031054</ele>
        <time>2022-12-19T16:23:08.381Z</time>
      </trkpt>
      <trkpt lat="46.22022" lon="-1.14048">
        <ele>54.016372</ele>
        <time>2022-12-19T16:23:11.378Z</time>
      </trkpt>
      <trkpt lat="46.22012" lon="-1.14049">
        <ele>54.003057</ele>
        <time>2022-12-19T16:23:14.365Z</time>
      </trkpt>
      <trkpt lat="46.22002" lon="-1.14051">
        <ele>53.989831</ele>
        <time>2022-12-19T16:23:17.361Z</time>
      </trkpt>
      <trkpt lat="46.21992" lon="-1.14053">
        <ele>53.976566</ele>
        <time>2022-12-19T16:23:20.362Z</time>
      </trkpt>
      <trkpt lat="46.21982" lon="-1.14056">
        <ele>53.963183</ele>
        <time>2022-12-19T16:23:23.472Z</time>
      </trkpt>
      <trkpt lat="46.21972" lon="-1.14057">
        <ele>53.949695</ele>
        <time>2022-12-19T16:23:26.376Z</time>
      </trkpt>
      <trkpt lat="46.21962" lon="-1.1406">
        <ele>53.936168</ele>
        <time>2022-12-19T16:23:29.363Z</time>
      </trkpt>
      <trkpt lat="46.21952" lon="-1.14061">
        <ele>53.985871</ele>
        <time>2022-12-19T16:23:32.361Z</time>
      </trkpt>
      <trkpt lat="46.21941" lon="-1.14062">
        <ele>54.098036</ele>
        <time>2022-12-19T16:23:35.375Z</time>
      </trkpt>
      <trkpt lat="46.2193" lon="-1.14062">
        <ele>54.215031</ele>
        <time>2022-12-19T16:23:38.367Z</time>
      </trkpt>
      <trkpt lat="46.21919" lon="-1.14062">
        <ele>54.329938</ele>
        <time>2022-12-19T16:23:41.388Z</time>
      </trkpt>
      <trkpt lat="46.21908" lon="-1.14062">
        <ele>54.444851</ele>
        <time>2022-12-19T16:23:44.372Z</time>
      </trkpt>
      <trkpt lat="46.21897" lon="-1.14061">
        <ele>54.561954</ele>
        <time>2022-12-19T16:23:47.359Z</time>
      </trkpt>
      <trkpt lat="46.21885" lon="-1.14061">
        <ele>54.685217</ele>
        <time>2022-12-19T16:23:50.377Z</time>
      </trkpt>
      <trkpt lat="46.21873" lon="-1.14061">
        <ele>54.811631</ele>
        <time>2022-12-19T16:23:53.388Z</time>
      </trkpt>
      <trkpt lat="46.21861" lon="-1.14061">
        <ele>54.931767</ele>
        <time>2022-12-19T16:23:56.369Z</time>
      </trkpt>
      <trkpt lat="46.2185" lon="-1.1406">
        <ele>55.046728</ele>
        <time>2022-12-19T16:23:59.378Z</time>
      </trkpt>
      <trkpt lat="46.2184" lon="-1.1406">
        <ele>55.150182</ele>
        <time>2022-12-19T16:24:02.384Z</time>
      </trkpt>
      <trkpt lat="46.21831" lon="-1.1406">
        <ele>55.246309</ele>
        <time>2022-12-19T16:24:05.376Z</time>
      </trkpt>
      <trkpt lat="46.21821" lon="-1.1406">
        <ele>55.347644</ele>
        <time>2022-12-19T16:24:08.370Z</time>
      </trkpt>
      <trkpt lat="46.21812" lon="-1.14061">
        <ele>55.448051</ele>
        <time>2022-12-19T16:24:11.372Z</time>
      </trkpt>
      <trkpt lat="46.21802" lon="-1.1406">
        <ele>55.550461</ele>
        <time>2022-12-19T16:24:14.372Z</time>
      </trkpt>
      <trkpt lat="46.21792" lon="-1.1406">
        <ele>55.653875</ele>
        <time>2022-12-19T16:24:17.375Z</time>
      </trkpt>
      <trkpt lat="46.21782" lon="-1.14061">
        <ele>55.75944</ele>
        <time>2022-12-19T16:24:20.373Z</time>
      </trkpt>
      <trkpt lat="46.21772" lon="-1.14061">
        <ele>55.842213</ele>
        <time>2022-12-19T16:24:23.375Z</time>
      </trkpt>
      <trkpt lat="46.21762" lon="-1.14061">
        <ele>55.905</ele>
        <time>2022-12-19T16:24:26.384Z</time>
      </trkpt>
      <trkpt lat="46.21751" lon="-1.14061">
        <ele>55.973495</ele>
        <time>2022-12-19T16:24:29.366Z</time>
      </trkpt>
      <trkpt lat="46.21741" lon="-1.1406">
        <ele>56.040158</ele>
        <time>2022-12-19T16:24:32.368Z</time>
      </trkpt>
      <trkpt lat="46.21731" lon="-1.1406">
        <ele>56.100486</ele>
        <time>2022-12-19T16:24:35.368Z</time>
      </trkpt>
      <trkpt lat="46.21722" lon="-1.1406">
        <ele>56.161384</ele>
        <time>2022-12-19T16:24:38.375Z</time>
      </trkpt>
      <trkpt lat="46.21711" lon="-1.1406">
        <ele>56.227364</ele>
        <time>2022-12-19T16:24:41.368Z</time>
      </trkpt>
      <trkpt lat="46.21701" lon="-1.1406">
        <ele>56.294596</ele>
        <time>2022-12-19T16:24:44.367Z</time>
      </trkpt>
      <trkpt lat="46.2169" lon="-1.1406">
        <ele>56.363747</ele>
        <time>2022-12-19T16:24:47.375Z</time>
      </trkpt>
      <trkpt lat="46.21679" lon="-1.1406">
        <ele>56.434779</ele>
        <time>2022-12-19T16:24:50.399Z</time>
      </trkpt>
      <trkpt lat="46.21668" lon="-1.14061">
        <ele>56.50393</ele>
        <time>2022-12-19T16:24:53.369Z</time>
      </trkpt>
      <trkpt lat="46.21658" lon="-1.14061">
        <ele>56.567364</ele>
        <time>2022-12-19T16:24:56.370Z</time>
      </trkpt>
      <trkpt lat="46.21648" lon="-1.14061">
        <ele>56.628884</ele>
        <time>2022-12-19T16:24:59.373Z</time>
      </trkpt>
      <trkpt lat="46.21638" lon="-1.1406">
        <ele>56.691684</ele>
        <time>2022-12-19T16:25:02.369Z</time>
      </trkpt>
      <trkpt lat="46.21628" lon="-1.1406">
        <ele>56.754484</ele>
        <time>2022-12-19T16:25:05.366Z</time>
      </trkpt>
      <trkpt lat="46.21618" lon="-1.1406">
        <ele>56.819807</ele>
        <time>2022-12-19T16:25:08.367Z</time>
      </trkpt>
      <trkpt lat="46.21607" lon="-1.1406">
        <ele>56.887035</ele>
        <time>2022-12-19T16:25:11.383Z</time>
      </trkpt>
      <trkpt lat="46.21597" lon="-1.14059">
        <ele>56.96337</ele>
        <time>2022-12-19T16:25:14.389Z</time>
      </trkpt>
      <trkpt lat="46.21586" lon="-1.14059">
        <ele>57.14636</ele>
        <time>2022-12-19T16:25:17.371Z</time>
      </trkpt>
      <trkpt lat="46.21577" lon="-1.14059">
        <ele>57.317068</ele>
        <time>2022-12-19T16:25:20.368Z</time>
      </trkpt>
      <trkpt lat="46.21567" lon="-1.14059">
        <ele>57.491242</ele>
        <time>2022-12-19T16:25:23.389Z</time>
      </trkpt>
      <trkpt lat="46.21557" lon="-1.1406">
        <ele>57.656765</ele>
        <time>2022-12-19T16:25:26.375Z</time>
      </trkpt>
      <trkpt lat="46.21548" lon="-1.1406">
        <ele>57.82756</ele>
        <time>2022-12-19T16:25:29.367Z</time>
      </trkpt>
      <trkpt lat="46.21538" lon="-1.14062">
        <ele>58.0043</ele>
        <time>2022-12-19T16:25:32.390Z</time>
      </trkpt>
      <trkpt lat="46.21528" lon="-1.14064">
        <ele>58.181893</ele>
        <time>2022-12-19T16:25:35.402Z</time>
      </trkpt>
      <trkpt lat="46.21518" lon="-1.14068">
        <ele>58.364102</ele>
        <time>2022-12-19T16:25:38.370Z</time>
      </trkpt>
      <trkpt lat="46.21507" lon="-1.14072">
        <ele>58.548987</ele>
        <time>2022-12-19T16:25:41.390Z</time>
      </trkpt>
      <trkpt lat="46.21497" lon="-1.14077">
        <ele>58.741044</ele>
        <time>2022-12-19T16:25:44.368Z</time>
      </trkpt>
      <trkpt lat="46.21487" lon="-1.14081">
        <ele>58.923612</ele>
        <time>2022-12-19T16:25:47.386Z</time>
      </trkpt>
      <trkpt lat="46.21478" lon="-1.14086">
        <ele>59.091145</ele>
        <time>2022-12-19T16:25:50.385Z</time>
      </trkpt>
      <trkpt lat="46.21469" lon="-1.1409">
        <ele>59.26162</ele>
        <time>2022-12-19T16:25:53.368Z</time>
      </trkpt>
      <trkpt lat="46.2146" lon="-1.14094">
        <ele>59.425582</ele>
        <time>2022-12-19T16:25:56.368Z</time>
      </trkpt>
      <trkpt lat="46.21451" lon="-1.14098">
        <ele>59.58986</ele>
        <time>2022-12-19T16:25:59.372Z</time>
      </trkpt>
      <trkpt lat="46.21442" lon="-1.14102">
        <ele>59.749947</ele>
        <time>2022-12-19T16:26:02.378Z</time>
      </trkpt>
      <trkpt lat="46.21434" lon="-1.14105">
        <ele>59.910996</ele>
        <time>2022-12-19T16:26:05.369Z</time>
      </trkpt>
      <trkpt lat="46.21423" lon="-1.14109">
        <ele>60.10976</ele>
        <time>2022-12-19T16:26:09.374Z</time>
      </trkpt>
      <trkpt lat="46.21416" lon="-1.14118">
        <ele>59.999404</ele>
        <time>2022-12-19T16:26:15.389Z</time>
      </trkpt>
      <trkpt lat="46.21419" lon="-1.14132">
        <ele>59.873703</ele>
        <time>2022-12-19T16:26:19.397Z</time>
      </trkpt>
      <trkpt lat="46.21425" lon="-1.14146">
        <ele>59.729524</ele>
        <time>2022-12-19T16:26:23.397Z</time>
      </trkpt>
      <trkpt lat="46.21431" lon="-1.14161">
        <ele>59.581837</ele>
        <time>2022-12-19T16:26:27.387Z</time>
      </trkpt>
      <trkpt lat="46.21436" lon="-1.14172">
        <ele>59.462813</ele>
        <time>2022-12-19T16:26:30.394Z</time>
      </trkpt>
      <trkpt lat="46.21442" lon="-1.14184">
        <ele>59.334431</ele>
        <time>2022-12-19T16:26:33.374Z</time>
      </trkpt>
      <trkpt lat="46.21449" lon="-1.14195">
        <ele>59.200908</ele>
        <time>2022-12-19T16:26:36.382Z</time>
      </trkpt>
      <trkpt lat="46.21456" lon="-1.14207">
        <ele>59.069828</ele>
        <time>2022-12-19T16:26:39.393Z</time>
      </trkpt>
      <trkpt lat="46.21462" lon="-1.14217">
        <ele>58.951697</ele>
        <time>2022-12-19T16:26:42.395Z</time>
      </trkpt>
      <trkpt lat="46.21469" lon="-1.14231">
        <ele>58.799689</ele>
        <time>2022-12-19T16:26:46.387Z</time>
      </trkpt>
      <trkpt lat="46.21474" lon="-1.14245">
        <ele>58.669264</ele>
        <time>2022-12-19T16:26:49.389Z</time>
      </trkpt>
      <trkpt lat="46.21478" lon="-1.1426">
        <ele>58.523311</ele>
        <time>2022-12-19T16:26:52.384Z</time>
      </trkpt>
      <trkpt lat="46.21481" lon="-1.14277">
        <ele>58.370341</ele>
        <time>2022-12-19T16:26:55.372Z</time>
      </trkpt>
      <trkpt lat="46.21484" lon="-1.14295">
        <ele>58.208994</ele>
        <time>2022-12-19T16:26:58.372Z</time>
      </trkpt>
      <trkpt lat="46.21487" lon="-1.14314">
        <ele>58.04105</ele>
        <time>2022-12-19T16:27:01.383Z</time>
      </trkpt>
      <trkpt lat="46.2149" lon="-1.14327">
        <ele>57.921817</ele>
        <time>2022-12-19T16:27:03.369Z</time>
      </trkpt>
      <trkpt lat="46.21492" lon="-1.1434">
        <ele>57.810818</ele>
        <time>2022-12-19T16:27:05.369Z</time>
      </trkpt>
      <trkpt lat="46.21495" lon="-1.14353">
        <ele>57.703951</ele>
        <time>2022-12-19T16:27:07.384Z</time>
      </trkpt>
      <trkpt lat="46.21496" lon="-1.14366">
        <ele>57.597967</ele>
        <time>2022-12-19T16:27:09.367Z</time>
      </trkpt>
      <trkpt lat="46.21498" lon="-1.14379">
        <ele>57.491861</ele>
        <time>2022-12-19T16:27:11.386Z</time>
      </trkpt>
      <trkpt lat="46.21501" lon="-1.14393">
        <ele>57.380134</ele>
        <time>2022-12-19T16:27:13.371Z</time>
      </trkpt>
      <trkpt lat="46.21505" lon="-1.14406">
        <ele>57.271066</ele>
        <time>2022-12-19T16:27:15.369Z</time>
      </trkpt>
      <trkpt lat="46.21507" lon="-1.1442">
        <ele>57.157408</ele>
        <time>2022-12-19T16:27:17.375Z</time>
      </trkpt>
      <trkpt lat="46.2151" lon="-1.14433">
        <ele>57.04982</ele>
        <time>2022-12-19T16:27:19.371Z</time>
      </trkpt>
      <trkpt lat="46.21514" lon="-1.14446">
        <ele>56.94037</ele>
        <time>2022-12-19T16:27:21.369Z</time>
      </trkpt>
      <trkpt lat="46.21517" lon="-1.14458">
        <ele>56.836067</ele>
        <time>2022-12-19T16:27:23.372Z</time>
      </trkpt>
      <trkpt lat="46.2152" lon="-1.14471">
        <ele>56.733593</ele>
        <time>2022-12-19T16:27:25.383Z</time>
      </trkpt>
      <trkpt lat="46.21523" lon="-1.14489">
        <ele>56.587009</ele>
        <time>2022-12-19T16:27:28.370Z</time>
      </trkpt>
      <trkpt lat="46.21527" lon="-1.14506">
        <ele>56.442669</ele>
        <time>2022-12-19T16:27:31.367Z</time>
      </trkpt>
      <trkpt lat="46.21531" lon="-1.14519">
        <ele>56.334294</ele>
        <time>2022-12-19T16:27:33.374Z</time>
      </trkpt>
      <trkpt lat="46.21535" lon="-1.14532">
        <ele>56.2235</ele>
        <time>2022-12-19T16:27:35.388Z</time>
      </trkpt>
      <trkpt lat="46.21538" lon="-1.14546">
        <ele>56.106577</ele>
        <time>2022-12-19T16:27:37.385Z</time>
      </trkpt>
      <trkpt lat="46.21541" lon="-1.1456">
        <ele>55.990823</ele>
        <time>2022-12-19T16:27:39.375Z</time>
      </trkpt>
      <trkpt lat="46.21546" lon="-1.14575">
        <ele>55.864205</ele>
        <time>2022-12-19T16:27:41.394Z</time>
      </trkpt>
      <trkpt lat="46.21549" lon="-1.14589">
        <ele>55.869057</ele>
        <time>2022-12-19T16:27:43.376Z</time>
      </trkpt>
      <trkpt lat="46.21552" lon="-1.14603">
        <ele>55.987635</ele>
        <time>2022-12-19T16:27:45.399Z</time>
      </trkpt>
      <trkpt lat="46.21555" lon="-1.14616">
        <ele>56.095069</ele>
        <time>2022-12-19T16:27:47.390Z</time>
      </trkpt>
      <trkpt lat="46.21558" lon="-1.14628">
        <ele>56.200631</ele>
        <time>2022-12-19T16:27:49.381Z</time>
      </trkpt>
      <trkpt lat="46.21562" lon="-1.14645">
        <ele>56.346675</ele>
        <time>2022-12-19T16:27:52.373Z</time>
      </trkpt>
      <trkpt lat="46.21565" lon="-1.14661">
        <ele>56.477461</ele>
        <time>2022-12-19T16:27:55.377Z</time>
      </trkpt>
      <trkpt lat="46.21569" lon="-1.14676">
        <ele>56.60412</ele>
        <time>2022-12-19T16:27:58.372Z</time>
      </trkpt>
      <trkpt lat="46.21571" lon="-1.14691">
        <ele>56.736306</ele>
        <time>2022-12-19T16:28:01.376Z</time>
      </trkpt>
      <trkpt lat="46.21567" lon="-1.14705">
        <ele>56.856548</ele>
        <time>2022-12-19T16:28:04.367Z</time>
      </trkpt>
      <trkpt lat="46.21558" lon="-1.1471">
        <ele>56.964345</ele>
        <time>2022-12-19T16:28:07.373Z</time>
      </trkpt>
      <trkpt lat="46.21547" lon="-1.14712">
        <ele>57.097364</ele>
        <time>2022-12-19T16:28:11.407Z</time>
      </trkpt>
      <trkpt lat="46.21536" lon="-1.14715">
        <ele>57.233309</ele>
        <time>2022-12-19T16:28:15.374Z</time>
      </trkpt>
      <trkpt lat="46.21526" lon="-1.14717">
        <ele>57.345239</ele>
        <time>2022-12-19T16:28:18.377Z</time>
      </trkpt>
      <trkpt lat="46.21515" lon="-1.14719">
        <ele>57.470571</ele>
        <time>2022-12-19T16:28:21.361Z</time>
      </trkpt>
      <trkpt lat="46.21505" lon="-1.14722">
        <ele>57.598869</ele>
        <time>2022-12-19T16:28:24.368Z</time>
      </trkpt>
      <trkpt lat="46.21494" lon="-1.14725">
        <ele>57.728765</ele>
        <time>2022-12-19T16:28:27.370Z</time>
      </trkpt>
      <trkpt lat="46.21482" lon="-1.14728">
        <ele>57.868858</ele>
        <time>2022-12-19T16:28:30.389Z</time>
      </trkpt>
      <trkpt lat="46.21468" lon="-1.14731">
        <ele>57.681304</ele>
        <time>2022-12-19T16:28:33.359Z</time>
      </trkpt>
      <trkpt lat="46.21459" lon="-1.14732">
        <ele>57.473359</ele>
        <time>2022-12-19T16:28:35.374Z</time>
      </trkpt>
      <trkpt lat="46.21449" lon="-1.14734">
        <ele>57.256737</ele>
        <time>2022-12-19T16:28:37.371Z</time>
      </trkpt>
      <trkpt lat="46.21439" lon="-1.14736">
        <ele>57.026022</ele>
        <time>2022-12-19T16:28:39.389Z</time>
      </trkpt>
      <trkpt lat="46.2143" lon="-1.14739">
        <ele>56.809258</ele>
        <time>2022-12-19T16:28:41.390Z</time>
      </trkpt>
      <trkpt lat="46.2142" lon="-1.14741">
        <ele>56.586678</ele>
        <time>2022-12-19T16:28:43.388Z</time>
      </trkpt>
      <trkpt lat="46.21411" lon="-1.14743">
        <ele>56.386759</ele>
        <time>2022-12-19T16:28:45.377Z</time>
      </trkpt>
      <trkpt lat="46.21402" lon="-1.14746">
        <ele>56.186188</ele>
        <time>2022-12-19T16:28:47.371Z</time>
      </trkpt>
      <trkpt lat="46.21389" lon="-1.14749">
        <ele>55.902666</ele>
        <time>2022-12-19T16:28:50.381Z</time>
      </trkpt>
      <trkpt lat="46.21376" lon="-1.14752">
        <ele>55.601104</ele>
        <time>2022-12-19T16:28:53.388Z</time>
      </trkpt>
      <trkpt lat="46.21366" lon="-1.14754">
        <ele>55.386796</ele>
        <time>2022-12-19T16:28:55.375Z</time>
      </trkpt>
      <trkpt lat="46.21357" lon="-1.14757">
        <ele>55.164505</ele>
        <time>2022-12-19T16:28:57.369Z</time>
      </trkpt>
      <trkpt lat="46.21347" lon="-1.14759">
        <ele>54.946316</ele>
        <time>2022-12-19T16:28:59.386Z</time>
      </trkpt>
      <trkpt lat="46.21338" lon="-1.14762">
        <ele>54.736385</ele>
        <time>2022-12-19T16:29:01.372Z</time>
      </trkpt>
      <trkpt lat="46.21325" lon="-1.14766">
        <ele>54.449716</ele>
        <time>2022-12-19T16:29:04.362Z</time>
      </trkpt>
      <trkpt lat="46.21314" lon="-1.14767">
        <ele>54.202476</ele>
        <time>2022-12-19T16:29:07.373Z</time>
      </trkpt>
      <trkpt lat="46.21304" lon="-1.14769">
        <ele>53.968679</ele>
        <time>2022-12-19T16:29:10.372Z</time>
      </trkpt>
      <trkpt lat="46.21293" lon="-1.14772">
        <ele>53.852615</ele>
        <time>2022-12-19T16:29:13.365Z</time>
      </trkpt>
      <trkpt lat="46.21282" lon="-1.14775">
        <ele>53.776327</ele>
        <time>2022-12-19T16:29:16.375Z</time>
      </trkpt>
      <trkpt lat="46.21272" lon="-1.14777">
        <ele>53.702692</ele>
        <time>2022-12-19T16:29:19.368Z</time>
      </trkpt>
      <trkpt lat="46.21262" lon="-1.1478">
        <ele>53.626665</ele>
        <time>2022-12-19T16:29:22.395Z</time>
      </trkpt>
      <trkpt lat="46.21251" lon="-1.14783">
        <ele>53.551001</ele>
        <time>2022-12-19T16:29:25.388Z</time>
      </trkpt>
      <trkpt lat="46.21242" lon="-1.14787">
        <ele>53.478549</ele>
        <time>2022-12-19T16:29:28.383Z</time>
      </trkpt>
      <trkpt lat="46.21233" lon="-1.14789">
        <ele>53.41153</ele>
        <time>2022-12-19T16:29:31.380Z</time>
      </trkpt>
      <trkpt lat="46.21223" lon="-1.14791">
        <ele>53.345543</ele>
        <time>2022-12-19T16:29:34.369Z</time>
      </trkpt>
      <trkpt lat="46.21212" lon="-1.14795">
        <ele>53.2644</ele>
        <time>2022-12-19T16:29:38.387Z</time>
      </trkpt>
      <trkpt lat="46.21201" lon="-1.14798">
        <ele>53.181945</ele>
        <time>2022-12-19T16:29:42.390Z</time>
      </trkpt>
      <trkpt lat="46.2119" lon="-1.148">
        <ele>53.100066</ele>
        <time>2022-12-19T16:29:46.372Z</time>
      </trkpt>
      <trkpt lat="46.21178" lon="-1.14803">
        <ele>53.014495</ele>
        <time>2022-12-19T16:29:50.386Z</time>
      </trkpt>
      <trkpt lat="46.21169" lon="-1.14805">
        <ele>52.949766</ele>
        <time>2022-12-19T16:29:53.378Z</time>
      </trkpt>
      <trkpt lat="46.2116" lon="-1.14806">
        <ele>52.882021</ele>
        <time>2022-12-19T16:29:57.374Z</time>
      </trkpt>
      <trkpt lat="46.21151" lon="-1.14809">
        <ele>52.817901</ele>
        <time>2022-12-19T16:30:01.376Z</time>
      </trkpt>
      <trkpt lat="46.21141" lon="-1.14812">
        <ele>52.742766</ele>
        <time>2022-12-19T16:30:05.366Z</time>
      </trkpt>
      <trkpt lat="46.21129" lon="-1.14814">
        <ele>52.661668</ele>
        <time>2022-12-19T16:30:09.368Z</time>
      </trkpt>
      <trkpt lat="46.21121" lon="-1.14817">
        <ele>52.578749</ele>
        <time>2022-12-19T16:30:12.375Z</time>
      </trkpt>
      <trkpt lat="46.21109" lon="-1.1482">
        <ele>52.439616</ele>
        <time>2022-12-19T16:30:16.400Z</time>
      </trkpt>
      <trkpt lat="46.211" lon="-1.14825">
        <ele>52.31467</ele>
        <time>2022-12-19T16:30:21.375Z</time>
      </trkpt>
      <trkpt lat="46.21095" lon="-1.1484">
        <ele>52.178357</ele>
        <time>2022-12-19T16:30:25.373Z</time>
      </trkpt>
      <trkpt lat="46.21092" lon="-1.14855">
        <ele>52.043174</ele>
        <time>2022-12-19T16:30:28.377Z</time>
      </trkpt>
      <trkpt lat="46.21088" lon="-1.14872">
        <ele>51.895082</ele>
        <time>2022-12-19T16:30:31.368Z</time>
      </trkpt>
      <trkpt lat="46.21085" lon="-1.1489">
        <ele>51.736457</ele>
        <time>2022-12-19T16:30:34.365Z</time>
      </trkpt>
      <trkpt lat="46.21082" lon="-1.14908">
        <ele>51.581765</ele>
        <time>2022-12-19T16:30:37.368Z</time>
      </trkpt>
      <trkpt lat="46.2108" lon="-1.14925">
        <ele>51.438246</ele>
        <time>2022-12-19T16:30:40.384Z</time>
      </trkpt>
      <trkpt lat="46.21078" lon="-1.14941">
        <ele>51.295198</ele>
        <time>2022-12-19T16:30:43.367Z</time>
      </trkpt>
      <trkpt lat="46.21075" lon="-1.14959">
        <ele>51.145313</ele>
        <time>2022-12-19T16:30:46.382Z</time>
      </trkpt>
      <trkpt lat="46.21074" lon="-1.14977">
        <ele>50.989801</ele>
        <time>2022-12-19T16:30:49.372Z</time>
      </trkpt>
      <trkpt lat="46.21073" lon="-1.14995">
        <ele>50.836913</ele>
        <time>2022-12-19T16:30:52.387Z</time>
      </trkpt>
      <trkpt lat="46.21072" lon="-1.15013">
        <ele>50.684751</ele>
        <time>2022-12-19T16:30:55.371Z</time>
      </trkpt>
      <trkpt lat="46.21071" lon="-1.15031">
        <ele>50.53532</ele>
        <time>2022-12-19T16:30:58.385Z</time>
      </trkpt>
      <trkpt lat="46.21071" lon="-1.15048">
        <ele>50.42492</ele>
        <time>2022-12-19T16:31:01.370Z</time>
      </trkpt>
      <trkpt lat="46.21071" lon="-1.15061">
        <ele>50.39646</ele>
        <time>2022-12-19T16:31:04.376Z</time>
      </trkpt>
      <trkpt lat="46.21071" lon="-1.15075">
        <ele>50.364992</ele>
        <time>2022-12-19T16:31:08.384Z</time>
      </trkpt>
      <trkpt lat="46.2106" lon="-1.15078">
        <ele>50.329871</ele>
        <time>2022-12-19T16:31:13.383Z</time>
      </trkpt>
      <trkpt lat="46.2105" lon="-1.15079">
        <ele>50.297511</ele>
        <time>2022-12-19T16:31:17.375Z</time>
      </trkpt>
      <trkpt lat="46.21039" lon="-1.1508">
        <ele>50.262784</ele>
        <time>2022-12-19T16:31:21.380Z</time>
      </trkpt>
      <trkpt lat="46.21027" lon="-1.1508">
        <ele>50.226826</ele>
        <time>2022-12-19T16:31:26.383Z</time>
      </trkpt>
      <trkpt lat="46.21016" lon="-1.15081">
        <ele>50.191169</ele>
        <time>2022-12-19T16:31:30.367Z</time>
      </trkpt>
      <trkpt lat="46.21006" lon="-1.15082">
        <ele>50.160852</ele>
        <time>2022-12-19T16:31:33.370Z</time>
      </trkpt>
      <trkpt lat="46.20997" lon="-1.15082">
        <ele>50.13152</ele>
        <time>2022-12-19T16:31:36.367Z</time>
      </trkpt>
      <trkpt lat="46.20988" lon="-1.15081">
        <ele>50.102818</ele>
        <time>2022-12-19T16:31:39.372Z</time>
      </trkpt>
      <trkpt lat="46.20978" lon="-1.15082">
        <ele>50.069655</ele>
        <time>2022-12-19T16:31:43.369Z</time>
      </trkpt>
      <trkpt lat="46.20968" lon="-1.15082">
        <ele>50.039377</ele>
        <time>2022-12-19T16:31:47.365Z</time>
      </trkpt>
      <trkpt lat="46.20958" lon="-1.15083">
        <ele>50.007494</ele>
        <time>2022-12-19T16:31:51.383Z</time>
      </trkpt>
      <trkpt lat="46.20948" lon="-1.15083">
        <ele>49.976897</ele>
        <time>2022-12-19T16:31:55.386Z</time>
      </trkpt>
      <trkpt lat="46.20939" lon="-1.15083">
        <ele>49.947526</ele>
        <time>2022-12-19T16:31:59.372Z</time>
      </trkpt>
      <trkpt lat="46.20929" lon="-1.15084">
        <ele>49.915967</ele>
        <time>2022-12-19T16:32:03.368Z</time>
      </trkpt>
      <trkpt lat="46.20919" lon="-1.15083">
        <ele>49.88587</ele>
        <time>2022-12-19T16:32:07.382Z</time>
      </trkpt>
      <trkpt lat="46.20909" lon="-1.15082">
        <ele>49.788863</ele>
        <time>2022-12-19T16:32:11.367Z</time>
      </trkpt>
      <trkpt lat="46.209" lon="-1.1508">
        <ele>49.635077</ele>
        <time>2022-12-19T16:32:14.377Z</time>
      </trkpt>
      <trkpt lat="46.2089" lon="-1.1508">
        <ele>49.454895</ele>
        <time>2022-12-19T16:32:17.367Z</time>
      </trkpt>
      <trkpt lat="46.2088" lon="-1.15079">
        <ele>49.298436</ele>
        <time>2022-12-19T16:32:19.368Z</time>
      </trkpt>
      <trkpt lat="46.2087" lon="-1.1508">
        <ele>49.123348</ele>
        <time>2022-12-19T16:32:21.389Z</time>
      </trkpt>
      <trkpt lat="46.2086" lon="-1.15082">
        <ele>48.944422</ele>
        <time>2022-12-19T16:32:23.369Z</time>
      </trkpt>
      <trkpt lat="46.2085" lon="-1.15084">
        <ele>48.773878</ele>
        <time>2022-12-19T16:32:25.376Z</time>
      </trkpt>
      <trkpt lat="46.2084" lon="-1.15086">
        <ele>48.610067</ele>
        <time>2022-12-19T16:32:27.381Z</time>
      </trkpt>
      <trkpt lat="46.20827" lon="-1.15086">
        <ele>48.382409</ele>
        <time>2022-12-19T16:32:30.372Z</time>
      </trkpt>
      <trkpt lat="46.20816" lon="-1.15079">
        <ele>48.178932</ele>
        <time>2022-12-19T16:32:33.378Z</time>
      </trkpt>
      <trkpt lat="46.20808" lon="-1.15068">
        <ele>47.994978</ele>
        <time>2022-12-19T16:32:36.378Z</time>
      </trkpt>
      <trkpt lat="46.20803" lon="-1.15058">
        <ele>47.842178</ele>
        <time>2022-12-19T16:32:39.390Z</time>
      </trkpt>
      <trkpt lat="46.20797" lon="-1.15046">
        <ele>47.67201</ele>
        <time>2022-12-19T16:32:42.373Z</time>
      </trkpt>
      <trkpt lat="46.20791" lon="-1.15036">
        <ele>47.520503</ele>
        <time>2022-12-19T16:32:45.370Z</time>
      </trkpt>
      <trkpt lat="46.20781" lon="-1.15033">
        <ele>47.340555</ele>
        <time>2022-12-19T16:32:49.378Z</time>
      </trkpt>
      <trkpt lat="46.20771" lon="-1.15036">
        <ele>47.180638</ele>
        <time>2022-12-19T16:32:52.388Z</time>
      </trkpt>
      <trkpt lat="46.2076" lon="-1.15038">
        <ele>46.980833</ele>
        <time>2022-12-19T16:32:56.374Z</time>
      </trkpt>
      <trkpt lat="46.20748" lon="-1.15041">
        <ele>46.830014</ele>
        <time>2022-12-19T16:33:00.369Z</time>
      </trkpt>
      <trkpt lat="46.20737" lon="-1.15043">
        <ele>46.89966</ele>
        <time>2022-12-19T16:33:03.387Z</time>
      </trkpt>
      <trkpt lat="46.20727" lon="-1.15044">
        <ele>46.971301</ele>
        <time>2022-12-19T16:33:06.370Z</time>
      </trkpt>
      <trkpt lat="46.20717" lon="-1.15046">
        <ele>47.040705</ele>
        <time>2022-12-19T16:33:09.369Z</time>
      </trkpt>
      <trkpt lat="46.20708" lon="-1.15051">
        <ele>47.108246</ele>
        <time>2022-12-19T16:33:12.369Z</time>
      </trkpt>
      <trkpt lat="46.207" lon="-1.1506">
        <ele>47.17524</ele>
        <time>2022-12-19T16:33:15.372Z</time>
      </trkpt>
      <trkpt lat="46.20693" lon="-1.15072">
        <ele>47.250273</ele>
        <time>2022-12-19T16:33:18.376Z</time>
      </trkpt>
      <trkpt lat="46.20686" lon="-1.15083">
        <ele>47.318103</ele>
        <time>2022-12-19T16:33:21.367Z</time>
      </trkpt>
      <trkpt lat="46.20682" lon="-1.15096">
        <ele>47.384957</ele>
        <time>2022-12-19T16:33:24.365Z</time>
      </trkpt>
      <trkpt lat="46.20676" lon="-1.1511">
        <ele>47.46207</ele>
        <time>2022-12-19T16:33:28.371Z</time>
      </trkpt>
      <trkpt lat="46.20671" lon="-1.15124">
        <ele>47.53581</ele>
        <time>2022-12-19T16:33:32.371Z</time>
      </trkpt>
      <trkpt lat="46.20665" lon="-1.15137">
        <ele>47.60718</ele>
        <time>2022-12-19T16:33:35.390Z</time>
      </trkpt>
      <trkpt lat="46.20659" lon="-1.15149">
        <ele>47.678049</ele>
        <time>2022-12-19T16:33:38.386Z</time>
      </trkpt>
      <trkpt lat="46.20652" lon="-1.15159">
        <ele>47.747237</ele>
        <time>2022-12-19T16:33:41.387Z</time>
      </trkpt>
      <trkpt lat="46.20644" lon="-1.1517">
        <ele>47.820245</ele>
        <time>2022-12-19T16:33:44.370Z</time>
      </trkpt>
      <trkpt lat="46.20635" lon="-1.15182">
        <ele>47.903916</ele>
        <time>2022-12-19T16:33:47.371Z</time>
      </trkpt>
      <trkpt lat="46.20625" lon="-1.15193">
        <ele>47.987746</ele>
        <time>2022-12-19T16:33:50.381Z</time>
      </trkpt>
      <trkpt lat="46.20614" lon="-1.15202">
        <ele>47.977836</ele>
        <time>2022-12-19T16:33:53.372Z</time>
      </trkpt>
      <trkpt lat="46.20604" lon="-1.15209">
        <ele>47.862763</ele>
        <time>2022-12-19T16:33:56.395Z</time>
      </trkpt>
      <trkpt lat="46.20596" lon="-1.15212">
        <ele>47.766676</ele>
        <time>2022-12-19T16:33:59.401Z</time>
      </trkpt>
      <trkpt lat="46.20586" lon="-1.15216">
        <ele>47.662415</ele>
        <time>2022-12-19T16:34:02.387Z</time>
      </trkpt>
      <trkpt lat="46.20576" lon="-1.15219">
        <ele>47.556272</ele>
        <time>2022-12-19T16:34:05.379Z</time>
      </trkpt>
      <trkpt lat="46.20567" lon="-1.15223">
        <ele>47.451468</ele>
        <time>2022-12-19T16:34:08.387Z</time>
      </trkpt>
      <trkpt lat="46.20558" lon="-1.15227">
        <ele>47.355164</ele>
        <time>2022-12-19T16:34:11.388Z</time>
      </trkpt>
      <trkpt lat="46.20548" lon="-1.15231">
        <ele>47.250154</ele>
        <time>2022-12-19T16:34:15.371Z</time>
      </trkpt>
      <trkpt lat="46.20539" lon="-1.15233">
        <ele>47.149822</ele>
        <time>2022-12-19T16:34:20.391Z</time>
      </trkpt>
      <trkpt lat="46.20529" lon="-1.15237">
        <ele>47.042359</ele>
        <time>2022-12-19T16:34:25.374Z</time>
      </trkpt>
      <trkpt lat="46.2052" lon="-1.15241">
        <ele>46.944043</ele>
        <time>2022-12-19T16:34:29.386Z</time>
      </trkpt>
      <trkpt lat="46.2051" lon="-1.15247">
        <ele>46.828945</ele>
        <time>2022-12-19T16:34:33.382Z</time>
      </trkpt>
      <trkpt lat="46.20501" lon="-1.15249">
        <ele>46.73278</ele>
        <time>2022-12-19T16:34:36.385Z</time>
      </trkpt>
      <trkpt lat="46.20492" lon="-1.15253">
        <ele>46.635092</ele>
        <time>2022-12-19T16:34:39.371Z</time>
      </trkpt>
      <trkpt lat="46.20481" lon="-1.15257">
        <ele>46.511644</ele>
        <time>2022-12-19T16:34:43.370Z</time>
      </trkpt>
      <trkpt lat="46.20472" lon="-1.15261">
        <ele>46.413956</ele>
        <time>2022-12-19T16:34:46.371Z</time>
      </trkpt>
      <trkpt lat="46.20463" lon="-1.15264">
        <ele>46.317678</ele>
        <time>2022-12-19T16:34:49.379Z</time>
      </trkpt>
      <trkpt lat="46.20454" lon="-1.1527">
        <ele>46.213473</ele>
        <time>2022-12-19T16:34:53.370Z</time>
      </trkpt>
      <trkpt lat="46.20443" lon="-1.15273">
        <ele>46.331719</ele>
        <time>2022-12-19T16:34:57.371Z</time>
      </trkpt>
      <trkpt lat="46.20434" lon="-1.15275">
        <ele>46.751214</ele>
        <time>2022-12-19T16:35:00.371Z</time>
      </trkpt>
      <trkpt lat="46.20424" lon="-1.15277">
        <ele>47.176164</ele>
        <time>2022-12-19T16:35:03.376Z</time>
      </trkpt>
      <trkpt lat="46.20415" lon="-1.15281">
        <ele>47.592189</ele>
        <time>2022-12-19T16:35:06.368Z</time>
      </trkpt>
      <trkpt lat="46.20407" lon="-1.15285">
        <ele>47.998106</ele>
        <time>2022-12-19T16:35:09.378Z</time>
      </trkpt>
      <trkpt lat="46.20397" lon="-1.15289">
        <ele>48.423783</ele>
        <time>2022-12-19T16:35:12.380Z</time>
      </trkpt>
      <trkpt lat="46.20386" lon="-1.15294">
        <ele>48.955138</ele>
        <time>2022-12-19T16:35:16.372Z</time>
      </trkpt>
      <trkpt lat="46.20377" lon="-1.15297">
        <ele>49.353533</ele>
        <time>2022-12-19T16:35:19.373Z</time>
      </trkpt>
      <trkpt lat="46.20368" lon="-1.15302">
        <ele>49.802252</ele>
        <time>2022-12-19T16:35:23.377Z</time>
      </trkpt>
      <trkpt lat="46.20357" lon="-1.15304">
        <ele>50.274893</ele>
        <time>2022-12-19T16:35:29.389Z</time>
      </trkpt>
      <trkpt lat="46.20347" lon="-1.15308">
        <ele>50.738918</ele>
        <time>2022-12-19T16:35:34.368Z</time>
      </trkpt>
      <trkpt lat="46.20338" lon="-1.15311">
        <ele>51.165431</ele>
        <time>2022-12-19T16:35:39.376Z</time>
      </trkpt>
      <trkpt lat="46.20327" lon="-1.15313">
        <ele>51.645527</ele>
        <time>2022-12-19T16:35:45.371Z</time>
      </trkpt>
      <trkpt lat="46.20317" lon="-1.15315">
        <ele>52.093959</ele>
        <time>2022-12-19T16:35:50.370Z</time>
      </trkpt>
      <trkpt lat="46.20307" lon="-1.15317">
        <ele>52.563716</ele>
        <time>2022-12-19T16:35:55.365Z</time>
      </trkpt>
      <trkpt lat="46.20296" lon="-1.15318">
        <ele>53.023145</ele>
        <time>2022-12-19T16:36:00.369Z</time>
      </trkpt>
      <trkpt lat="46.20286" lon="-1.1532">
        <ele>53.467585</ele>
        <time>2022-12-19T16:36:05.392Z</time>
      </trkpt>
      <trkpt lat="46.20276" lon="-1.15322">
        <ele>53.912025</ele>
        <time>2022-12-19T16:36:10.372Z</time>
      </trkpt>
      <trkpt lat="46.20267" lon="-1.15324">
        <ele>54.299959</ele>
        <time>2022-12-19T16:36:17.369Z</time>
      </trkpt>
      <trkpt lat="46.20258" lon="-1.15324">
        <ele>54.64471</ele>
        <time>2022-12-19T16:36:23.374Z</time>
      </trkpt>
      <trkpt lat="46.20248" lon="-1.15326">
        <ele>54.996576</ele>
        <time>2022-12-19T16:36:29.371Z</time>
      </trkpt>
      <trkpt lat="46.20239" lon="-1.15328">
        <ele>55.359807</ele>
        <time>2022-12-19T16:36:36.371Z</time>
      </trkpt>
      <trkpt lat="46.20228" lon="-1.15329">
        <ele>55.741799</ele>
        <time>2022-12-19T16:36:42.371Z</time>
      </trkpt>
      <trkpt lat="46.20219" lon="-1.15331">
        <ele>56.100637</ele>
        <time>2022-12-19T16:36:48.367Z</time>
      </trkpt>
      <trkpt lat="46.20209" lon="-1.15332">
        <ele>56.467838</ele>
        <time>2022-12-19T16:36:54.370Z</time>
      </trkpt>
      <trkpt lat="46.20199" lon="-1.15335">
        <ele>56.824903</ele>
        <time>2022-12-19T16:37:00.372Z</time>
      </trkpt>
      <trkpt lat="46.20193" lon="-1.15344">
        <ele>57.168108</ele>
        <time>2022-12-19T16:37:06.366Z</time>
      </trkpt>
      <trkpt lat="46.20192" lon="-1.1536">
        <ele>57.558124</ele>
        <time>2022-12-19T16:37:12.381Z</time>
      </trkpt>
      <trkpt lat="46.20194" lon="-1.15373">
        <ele>57.916965</ele>
        <time>2022-12-19T16:37:17.369Z</time>
      </trkpt>
      <trkpt lat="46.20196" lon="-1.15386">
        <ele>58.263626</ele>
        <time>2022-12-19T16:37:22.385Z</time>
      </trkpt>
      <trkpt lat="46.20197" lon="-1.154">
        <ele>58.616723</ele>
        <time>2022-12-19T16:37:27.380Z</time>
      </trkpt>
      <trkpt lat="46.20199" lon="-1.15415">
        <ele>59.011332</ele>
        <time>2022-12-19T16:37:32.392Z</time>
      </trkpt>
      <trkpt lat="46.20196" lon="-1.15429">
        <ele>59.37347</ele>
        <time>2022-12-19T16:37:37.372Z</time>
      </trkpt>
      <trkpt lat="46.20188" lon="-1.15435">
        <ele>59.705875</ele>
        <time>2022-12-19T16:37:42.373Z</time>
      </trkpt>
      <trkpt lat="46.20177" lon="-1.15438">
        <ele>60.109439</ele>
        <time>2022-12-19T16:37:48.387Z</time>
      </trkpt>
      <trkpt lat="46.20168" lon="-1.15439">
        <ele>60.473268</ele>
        <time>2022-12-19T16:37:53.382Z</time>
      </trkpt>
      <trkpt lat="46.20158" lon="-1.1544">
        <ele>60.804191</ele>
        <time>2022-12-19T16:37:58.376Z</time>
      </trkpt>
      <trkpt lat="46.20148" lon="-1.15443">
        <ele>60.862865</ele>
        <time>2022-12-19T16:38:03.404Z</time>
      </trkpt>
      <trkpt lat="46.20138" lon="-1.15446">
        <ele>60.923814</ele>
        <time>2022-12-19T16:38:08.370Z</time>
      </trkpt>
      <trkpt lat="46.20128" lon="-1.15448">
        <ele>60.98321</ele>
        <time>2022-12-19T16:38:13.368Z</time>
      </trkpt>
      <trkpt lat="46.20118" lon="-1.15451">
        <ele>61.041817</ele>
        <time>2022-12-19T16:38:18.373Z</time>
      </trkpt>
      <trkpt lat="46.20108" lon="-1.15453">
        <ele>61.101466</ele>
        <time>2022-12-19T16:38:23.369Z</time>
      </trkpt>
      <trkpt lat="46.20098" lon="-1.15455">
        <ele>61.163186</ele>
        <time>2022-12-19T16:38:28.370Z</time>
      </trkpt>
      <trkpt lat="46.20088" lon="-1.15459">
        <ele>61.221058</ele>
        <time>2022-12-19T16:38:33.365Z</time>
      </trkpt>
      <trkpt lat="46.20078" lon="-1.15461">
        <ele>61.280184</ele>
        <time>2022-12-19T16:38:38.382Z</time>
      </trkpt>
      <trkpt lat="46.20069" lon="-1.15464">
        <ele>61.338574</ele>
        <time>2022-12-19T16:38:43.368Z</time>
      </trkpt>
      <trkpt lat="46.20059" lon="-1.15466">
        <ele>61.399391</ele>
        <time>2022-12-19T16:38:48.378Z</time>
      </trkpt>
      <trkpt lat="46.20049" lon="-1.15469">
        <ele>61.456792</ele>
        <time>2022-12-19T16:38:53.395Z</time>
      </trkpt>
      <trkpt lat="46.2004" lon="-1.15471">
        <ele>61.513721</ele>
        <time>2022-12-19T16:38:58.395Z</time>
      </trkpt>
      <trkpt lat="46.2003" lon="-1.15473">
        <ele>61.569641</ele>
        <time>2022-12-19T16:39:03.397Z</time>
      </trkpt>
      <trkpt lat="46.20021" lon="-1.15476">
        <ele>61.626214</ele>
        <time>2022-12-19T16:39:08.396Z</time>
      </trkpt>
      <trkpt lat="46.20011" lon="-1.15478">
        <ele>61.683467</ele>
        <time>2022-12-19T16:39:13.371Z</time>
      </trkpt>
      <trkpt lat="46.20001" lon="-1.1548">
        <ele>61.745701</ele>
        <time>2022-12-19T16:39:18.403Z</time>
      </trkpt>
      <trkpt lat="46.1999" lon="-1.15483">
        <ele>61.810779</ele>
        <time>2022-12-19T16:39:23.408Z</time>
      </trkpt>
      <trkpt lat="46.19979" lon="-1.15486">
        <ele>61.904975</ele>
        <time>2022-12-19T16:39:28.379Z</time>
      </trkpt>
      <trkpt lat="46.1997" lon="-1.15489">
        <ele>62.074694</ele>
        <time>2022-12-19T16:39:33.388Z</time>
      </trkpt>
      <trkpt lat="46.1996" lon="-1.15491">
        <ele>62.254589</ele>
        <time>2022-12-19T16:39:39.380Z</time>
      </trkpt>
      <trkpt lat="46.19951" lon="-1.15494">
        <ele>62.420358</ele>
        <time>2022-12-19T16:39:44.379Z</time>
      </trkpt>
      <trkpt lat="46.19941" lon="-1.15496">
        <ele>62.589157</ele>
        <time>2022-12-19T16:39:49.402Z</time>
      </trkpt>
      <trkpt lat="46.19931" lon="-1.155">
        <ele>62.777987</ele>
        <time>2022-12-19T16:39:55.390Z</time>
      </trkpt>
      <trkpt lat="46.19921" lon="-1.15503">
        <ele>62.958512</ele>
        <time>2022-12-19T16:40:01.383Z</time>
      </trkpt>
      <trkpt lat="46.19911" lon="-1.15507">
        <ele>63.145344</ele>
        <time>2022-12-19T16:40:07.383Z</time>
      </trkpt>
      <trkpt lat="46.199" lon="-1.1551">
        <ele>63.332644</ele>
        <time>2022-12-19T16:40:13.372Z</time>
      </trkpt>
      <trkpt lat="46.19891" lon="-1.15513">
        <ele>63.495443</ele>
        <time>2022-12-19T16:40:18.377Z</time>
      </trkpt>
      <trkpt lat="46.19882" lon="-1.15515">
        <ele>63.661452</ele>
        <time>2022-12-19T16:40:23.380Z</time>
      </trkpt>
      <trkpt lat="46.19873" lon="-1.15517">
        <ele>63.828096</ele>
        <time>2022-12-19T16:40:28.374Z</time>
      </trkpt>
      <trkpt lat="46.19863" lon="-1.15519">
        <ele>63.998982</ele>
        <time>2022-12-19T16:40:33.375Z</time>
      </trkpt>
      <trkpt lat="46.19854" lon="-1.15521">
        <ele>64.171265</ele>
        <time>2022-12-19T16:40:38.402Z</time>
      </trkpt>
      <trkpt lat="46.19844" lon="-1.15525">
        <ele>64.351016</ele>
        <time>2022-12-19T16:40:43.380Z</time>
      </trkpt>
      <trkpt lat="46.19835" lon="-1.15529">
        <ele>64.516632</ele>
        <time>2022-12-19T16:40:48.391Z</time>
      </trkpt>
      <trkpt lat="46.19825" lon="-1.15531">
        <ele>64.695504</ele>
        <time>2022-12-19T16:40:53.375Z</time>
      </trkpt>
      <trkpt lat="46.19815" lon="-1.15534">
        <ele>64.870003</ele>
        <time>2022-12-19T16:40:58.375Z</time>
      </trkpt>
      <trkpt lat="46.19806" lon="-1.15536">
        <ele>65.040938</ele>
        <time>2022-12-19T16:41:03.383Z</time>
      </trkpt>
      <trkpt lat="46.19796" lon="-1.1554">
        <ele>65.271648</ele>
        <time>2022-12-19T16:41:08.371Z</time>
      </trkpt>
      <trkpt lat="46.19786" lon="-1.15543">
        <ele>65.506112</ele>
        <time>2022-12-19T16:41:13.374Z</time>
      </trkpt>
      <trkpt lat="46.19776" lon="-1.15546">
        <ele>65.744716</ele>
        <time>2022-12-19T16:41:18.380Z</time>
      </trkpt>
      <trkpt lat="46.19766" lon="-1.15547">
        <ele>65.969829</ele>
        <time>2022-12-19T16:41:23.387Z</time>
      </trkpt>
      <trkpt lat="46.19761" lon="-1.15559">
        <ele>66.192029</ele>
        <time>2022-12-19T16:41:29.377Z</time>
      </trkpt>
      <trkpt lat="46.19759" lon="-1.15572">
        <ele>66.399033</ele>
        <time>2022-12-19T16:41:34.376Z</time>
      </trkpt>
      <trkpt lat="46.19756" lon="-1.15585">
        <ele>66.626877</ele>
        <time>2022-12-19T16:41:38.370Z</time>
      </trkpt>
      <trkpt lat="46.19754" lon="-1.15599">
        <ele>66.857247</ele>
        <time>2022-12-19T16:41:42.378Z</time>
      </trkpt>
      <trkpt lat="46.19752" lon="-1.15614">
        <ele>67.095924</ele>
        <time>2022-12-19T16:41:47.390Z</time>
      </trkpt>
      <trkpt lat="46.1975" lon="-1.15628">
        <ele>67.322566</ele>
        <time>2022-12-19T16:41:52.372Z</time>
      </trkpt>
      <trkpt lat="46.19748" lon="-1.15642">
        <ele>67.559665</ele>
        <time>2022-12-19T16:41:56.384Z</time>
      </trkpt>
      <trkpt lat="46.19747" lon="-1.15657">
        <ele>67.793045</ele>
        <time>2022-12-19T16:42:00.375Z</time>
      </trkpt>
      <trkpt lat="46.19746" lon="-1.15671">
        <ele>68.01108</ele>
        <time>2022-12-19T16:42:04.367Z</time>
      </trkpt>
      <trkpt lat="46.19745" lon="-1.15684">
        <ele>68.221588</ele>
        <time>2022-12-19T16:42:08.389Z</time>
      </trkpt>
      <trkpt lat="46.19744" lon="-1.15697">
        <ele>68.435533</ele>
        <time>2022-12-19T16:42:12.370Z</time>
      </trkpt>
      <trkpt lat="46.19743" lon="-1.15713">
        <ele>68.698303</ele>
        <time>2022-12-19T16:42:17.388Z</time>
      </trkpt>
      <trkpt lat="46.19742" lon="-1.15727">
        <ele>68.91542</ele>
        <time>2022-12-19T16:42:21.380Z</time>
      </trkpt>
      <trkpt lat="46.1974" lon="-1.15743">
        <ele>69.171429</ele>
        <time>2022-12-19T16:42:27.375Z</time>
      </trkpt>
      <trkpt lat="46.19741" lon="-1.15757">
        <ele>69.280621</ele>
        <time>2022-12-19T16:42:33.382Z</time>
      </trkpt>
      <trkpt lat="46.19734" lon="-1.15774">
        <ele>69.416823</ele>
        <time>2022-12-19T16:45:44.371Z</time>
      </trkpt>
      <trkpt lat="46.19725" lon="-1.1577">
        <ele>69.506011</ele>
        <time>2022-12-19T16:45:48.376Z</time>
      </trkpt>
      <trkpt lat="46.19715" lon="-1.15765">
        <ele>69.60367</ele>
        <time>2022-12-19T16:45:52.400Z</time>
      </trkpt>
      <trkpt lat="46.19704" lon="-1.1576">
        <ele>69.720483</ele>
        <time>2022-12-19T16:45:56.371Z</time>
      </trkpt>
      <trkpt lat="46.19695" lon="-1.15757">
        <ele>69.81336</ele>
        <time>2022-12-19T16:45:59.368Z</time>
      </trkpt>
      <trkpt lat="46.19685" lon="-1.15752">
        <ele>69.911925</ele>
        <time>2022-12-19T16:46:02.373Z</time>
      </trkpt>
      <trkpt lat="46.19675" lon="-1.15746">
        <ele>70.01467</ele>
        <time>2022-12-19T16:46:05.373Z</time>
      </trkpt>
      <trkpt lat="46.19666" lon="-1.15741">
        <ele>70.114382</ele>
        <time>2022-12-19T16:46:08.366Z</time>
      </trkpt>
      <trkpt lat="46.19655" lon="-1.15734">
        <ele>70.229324</ele>
        <time>2022-12-19T16:46:12.379Z</time>
      </trkpt>
      <trkpt lat="46.19645" lon="-1.15726">
        <ele>70.343344</ele>
        <time>2022-12-19T16:46:16.375Z</time>
      </trkpt>
      <trkpt lat="46.19637" lon="-1.15718">
        <ele>70.436463</ele>
        <time>2022-12-19T16:46:19.382Z</time>
      </trkpt>
      <trkpt lat="46.19629" lon="-1.1571">
        <ele>70.529098</ele>
        <time>2022-12-19T16:46:22.383Z</time>
      </trkpt>
      <trkpt lat="46.19622" lon="-1.157">
        <ele>70.623479</ele>
        <time>2022-12-19T16:46:25.373Z</time>
      </trkpt>
      <trkpt lat="46.19614" lon="-1.15691">
        <ele>70.72183</ele>
        <time>2022-12-19T16:46:28.376Z</time>
      </trkpt>
      <trkpt lat="46.19607" lon="-1.1568">
        <ele>70.821327</ele>
        <time>2022-12-19T16:46:31.371Z</time>
      </trkpt>
      <trkpt lat="46.196" lon="-1.15669">
        <ele>70.920611</ele>
        <time>2022-12-19T16:46:34.369Z</time>
      </trkpt>
      <trkpt lat="46.19593" lon="-1.15657">
        <ele>70.883756</ele>
        <time>2022-12-19T16:46:37.392Z</time>
      </trkpt>
      <trkpt lat="46.19587" lon="-1.15645">
        <ele>70.818158</ele>
        <time>2022-12-19T16:46:40.379Z</time>
      </trkpt>
      <trkpt lat="46.19581" lon="-1.15632">
        <ele>70.751516</ele>
        <time>2022-12-19T16:46:43.374Z</time>
      </trkpt>
      <trkpt lat="46.19575" lon="-1.15618">
        <ele>70.68341</ele>
        <time>2022-12-19T16:46:46.376Z</time>
      </trkpt>
      <trkpt lat="46.1957" lon="-1.15604">
        <ele>70.616386</ele>
        <time>2022-12-19T16:46:49.385Z</time>
      </trkpt>
      <trkpt lat="46.19565" lon="-1.1559">
        <ele>70.548144</ele>
        <time>2022-12-19T16:46:52.380Z</time>
      </trkpt>
      <trkpt lat="46.1956" lon="-1.15576">
        <ele>70.482153</ele>
        <time>2022-12-19T16:46:55.372Z</time>
      </trkpt>
      <trkpt lat="46.19555" lon="-1.15563">
        <ele>70.416087</ele>
        <time>2022-12-19T16:46:58.380Z</time>
      </trkpt>
      <trkpt lat="46.1955" lon="-1.15549">
        <ele>70.349062</ele>
        <time>2022-12-19T16:47:01.374Z</time>
      </trkpt>
      <trkpt lat="46.19545" lon="-1.15534">
        <ele>70.28034</ele>
        <time>2022-12-19T16:47:04.375Z</time>
      </trkpt>
      <trkpt lat="46.1954" lon="-1.15521">
        <ele>70.217573</ele>
        <time>2022-12-19T16:47:07.367Z</time>
      </trkpt>
      <trkpt lat="46.19536" lon="-1.15509">
        <ele>70.160398</ele>
        <time>2022-12-19T16:47:10.389Z</time>
      </trkpt>
      <trkpt lat="46.1953" lon="-1.15495">
        <ele>70.091053</ele>
        <time>2022-12-19T16:47:14.376Z</time>
      </trkpt>
      <trkpt lat="46.19526" lon="-1.15484">
        <ele>70.034253</ele>
        <time>2022-12-19T16:47:17.393Z</time>
      </trkpt>
      <trkpt lat="46.19521" lon="-1.1547">
        <ele>69.967897</ele>
        <time>2022-12-19T16:47:20.399Z</time>
      </trkpt>
      <trkpt lat="46.19516" lon="-1.15455">
        <ele>69.897373</ele>
        <time>2022-12-19T16:47:23.388Z</time>
      </trkpt>
      <trkpt lat="46.1951" lon="-1.1544">
        <ele>69.809151</ele>
        <time>2022-12-19T16:47:26.386Z</time>
      </trkpt>
      <trkpt lat="46.19505" lon="-1.15425">
        <ele>69.567959</ele>
        <time>2022-12-19T16:47:29.391Z</time>
      </trkpt>
      <trkpt lat="46.195" lon="-1.15409">
        <ele>69.328204</ele>
        <time>2022-12-19T16:47:32.375Z</time>
      </trkpt>
      <trkpt lat="46.19495" lon="-1.15394">
        <ele>69.094391</ele>
        <time>2022-12-19T16:47:35.368Z</time>
      </trkpt>
      <trkpt lat="46.19489" lon="-1.15379">
        <ele>68.856274</ele>
        <time>2022-12-19T16:47:38.368Z</time>
      </trkpt>
      <trkpt lat="46.19484" lon="-1.15364">
        <ele>68.617387</ele>
        <time>2022-12-19T16:47:41.380Z</time>
      </trkpt>
      <trkpt lat="46.19478" lon="-1.15349">
        <ele>68.37142</ele>
        <time>2022-12-19T16:47:44.374Z</time>
      </trkpt>
      <trkpt lat="46.19473" lon="-1.15333">
        <ele>68.121764</ele>
        <time>2022-12-19T16:47:47.381Z</time>
      </trkpt>
      <trkpt lat="46.19466" lon="-1.15317">
        <ele>67.86547</ele>
        <time>2022-12-19T16:47:50.381Z</time>
      </trkpt>
      <trkpt lat="46.1946" lon="-1.153">
        <ele>67.596159</ele>
        <time>2022-12-19T16:47:53.386Z</time>
      </trkpt>
      <trkpt lat="46.19456" lon="-1.15289">
        <ele>67.412595</ele>
        <time>2022-12-19T16:47:55.371Z</time>
      </trkpt>
      <trkpt lat="46.19451" lon="-1.15277">
        <ele>67.228488</ele>
        <time>2022-12-19T16:47:57.374Z</time>
      </trkpt>
      <trkpt lat="46.19447" lon="-1.15266">
        <ele>67.044182</ele>
        <time>2022-12-19T16:47:59.377Z</time>
      </trkpt>
      <trkpt lat="46.19443" lon="-1.15254">
        <ele>66.854596</ele>
        <time>2022-12-19T16:48:01.373Z</time>
      </trkpt>
      <trkpt lat="46.19439" lon="-1.15242">
        <ele>66.670954</ele>
        <time>2022-12-19T16:48:03.368Z</time>
      </trkpt>
      <trkpt lat="46.19435" lon="-1.1523">
        <ele>66.48049</ele>
        <time>2022-12-19T16:48:05.369Z</time>
      </trkpt>
      <trkpt lat="46.1943" lon="-1.15217">
        <ele>66.281369</ele>
        <time>2022-12-19T16:48:07.368Z</time>
      </trkpt>
      <trkpt lat="46.19426" lon="-1.15204">
        <ele>66.050293</ele>
        <time>2022-12-19T16:48:09.378Z</time>
      </trkpt>
      <trkpt lat="46.19422" lon="-1.15192">
        <ele>65.795257</ele>
        <time>2022-12-19T16:48:11.379Z</time>
      </trkpt>
      <trkpt lat="46.19417" lon="-1.1518">
        <ele>65.54005</ele>
        <time>2022-12-19T16:48:13.367Z</time>
      </trkpt>
      <trkpt lat="46.19412" lon="-1.15167">
        <ele>65.270739</ele>
        <time>2022-12-19T16:48:15.382Z</time>
      </trkpt>
      <trkpt lat="46.19407" lon="-1.15155">
        <ele>65.020309</ele>
        <time>2022-12-19T16:48:17.373Z</time>
      </trkpt>
      <trkpt lat="46.19403" lon="-1.15142">
        <ele>64.764396</ele>
        <time>2022-12-19T16:48:19.371Z</time>
      </trkpt>
      <trkpt lat="46.19398" lon="-1.1513">
        <ele>64.514935</ele>
        <time>2022-12-19T16:48:21.380Z</time>
      </trkpt>
      <trkpt lat="46.19394" lon="-1.15118">
        <ele>64.258609</ele>
        <time>2022-12-19T16:48:23.360Z</time>
      </trkpt>
      <trkpt lat="46.1939" lon="-1.15105">
        <ele>64.000652</ele>
        <time>2022-12-19T16:48:25.372Z</time>
      </trkpt>
      <trkpt lat="46.19385" lon="-1.15092">
        <ele>63.733292</ele>
        <time>2022-12-19T16:48:27.367Z</time>
      </trkpt>
      <trkpt lat="46.1938" lon="-1.15079">
        <ele>63.452175</ele>
        <time>2022-12-19T16:48:29.402Z</time>
      </trkpt>
      <trkpt lat="46.19375" lon="-1.15066">
        <ele>63.183526</ele>
        <time>2022-12-19T16:48:31.370Z</time>
      </trkpt>
      <trkpt lat="46.1937" lon="-1.15053">
        <ele>62.912599</ele>
        <time>2022-12-19T16:48:33.370Z</time>
      </trkpt>
      <trkpt lat="46.19366" lon="-1.15041">
        <ele>62.674932</ele>
        <time>2022-12-19T16:48:35.372Z</time>
      </trkpt>
      <trkpt lat="46.19361" lon="-1.15029">
        <ele>62.424201</ele>
        <time>2022-12-19T16:48:37.379Z</time>
      </trkpt>
      <trkpt lat="46.19357" lon="-1.15017">
        <ele>62.169904</ele>
        <time>2022-12-19T16:48:39.385Z</time>
      </trkpt>
      <trkpt lat="46.19353" lon="-1.15005">
        <ele>61.916527</ele>
        <time>2022-12-19T16:48:41.395Z</time>
      </trkpt>
      <trkpt lat="46.19348" lon="-1.14993">
        <ele>61.674393</ele>
        <time>2022-12-19T16:48:43.383Z</time>
      </trkpt>
      <trkpt lat="46.19344" lon="-1.14981">
        <ele>61.430043</ele>
        <time>2022-12-19T16:48:45.373Z</time>
      </trkpt>
      <trkpt lat="46.19337" lon="-1.14964">
        <ele>61.292349</ele>
        <time>2022-12-19T16:48:48.371Z</time>
      </trkpt>
      <trkpt lat="46.1933" lon="-1.14947">
        <ele>61.152277</ele>
        <time>2022-12-19T16:48:51.362Z</time>
      </trkpt>
      <trkpt lat="46.19326" lon="-1.14936">
        <ele>61.054442</ele>
        <time>2022-12-19T16:48:53.378Z</time>
      </trkpt>
      <trkpt lat="46.19321" lon="-1.14924">
        <ele>60.960553</ele>
        <time>2022-12-19T16:48:55.372Z</time>
      </trkpt>
      <trkpt lat="46.19314" lon="-1.14909">
        <ele>60.829814</ele>
        <time>2022-12-19T16:48:58.387Z</time>
      </trkpt>
      <trkpt lat="46.19307" lon="-1.14894">
        <ele>60.698044</ele>
        <time>2022-12-19T16:49:01.396Z</time>
      </trkpt>
      <trkpt lat="46.19299" lon="-1.14879">
        <ele>60.565295</ele>
        <time>2022-12-19T16:49:04.377Z</time>
      </trkpt>
      <trkpt lat="46.19291" lon="-1.14866">
        <ele>60.438064</ele>
        <time>2022-12-19T16:49:07.372Z</time>
      </trkpt>
      <trkpt lat="46.19282" lon="-1.14854">
        <ele>60.317203</ele>
        <time>2022-12-19T16:49:10.374Z</time>
      </trkpt>
      <trkpt lat="46.19274" lon="-1.14843">
        <ele>60.200053</ele>
        <time>2022-12-19T16:49:13.369Z</time>
      </trkpt>
      <trkpt lat="46.19267" lon="-1.14833">
        <ele>60.093039</ele>
        <time>2022-12-19T16:49:16.380Z</time>
      </trkpt>
      <trkpt lat="46.19259" lon="-1.14824">
        <ele>59.992372</ele>
        <time>2022-12-19T16:49:19.386Z</time>
      </trkpt>
      <trkpt lat="46.19251" lon="-1.14815">
        <ele>59.890896</ele>
        <time>2022-12-19T16:49:22.387Z</time>
      </trkpt>
      <trkpt lat="46.19243" lon="-1.14806">
        <ele>59.784487</ele>
        <time>2022-12-19T16:49:25.372Z</time>
      </trkpt>
      <trkpt lat="46.19234" lon="-1.14798">
        <ele>59.673421</ele>
        <time>2022-12-19T16:49:28.367Z</time>
      </trkpt>
      <trkpt lat="46.19225" lon="-1.14789">
        <ele>59.566396</ele>
        <time>2022-12-19T16:49:31.383Z</time>
      </trkpt>
      <trkpt lat="46.19215" lon="-1.14781">
        <ele>59.512772</ele>
        <time>2022-12-19T16:49:34.374Z</time>
      </trkpt>
      <trkpt lat="46.19206" lon="-1.14774">
        <ele>59.461292</ele>
        <time>2022-12-19T16:49:37.388Z</time>
      </trkpt>
      <trkpt lat="46.19198" lon="-1.14768">
        <ele>59.413152</ele>
        <time>2022-12-19T16:49:40.376Z</time>
      </trkpt>
      <trkpt lat="46.19188" lon="-1.14761">
        <ele>59.358594</ele>
        <time>2022-12-19T16:49:44.372Z</time>
      </trkpt>
      <trkpt lat="46.19178" lon="-1.14757">
        <ele>59.310337</ele>
        <time>2022-12-19T16:49:48.389Z</time>
      </trkpt>
      <trkpt lat="46.19161" lon="-1.1475">
        <ele>59.222616</ele>
        <time>2022-12-19T16:50:49.408Z</time>
      </trkpt>
      <trkpt lat="46.19154" lon="-1.14739">
        <ele>59.167839</ele>
        <time>2022-12-19T16:50:53.381Z</time>
      </trkpt>
      <trkpt lat="46.19145" lon="-1.14732">
        <ele>59.117115</ele>
        <time>2022-12-19T16:50:56.370Z</time>
      </trkpt>
      <trkpt lat="46.19135" lon="-1.14725">
        <ele>59.061822</ele>
        <time>2022-12-19T16:50:59.381Z</time>
      </trkpt>
      <trkpt lat="46.19125" lon="-1.14718">
        <ele>59.006232</ele>
        <time>2022-12-19T16:51:02.376Z</time>
      </trkpt>
      <trkpt lat="46.19115" lon="-1.14711">
        <ele>58.952365</ele>
        <time>2022-12-19T16:51:05.369Z</time>
      </trkpt>
      <trkpt lat="46.19105" lon="-1.14709">
        <ele>58.901751</ele>
        <time>2022-12-19T16:51:08.367Z</time>
      </trkpt>
      <trkpt lat="46.19094" lon="-1.14713">
        <ele>58.847115</ele>
        <time>2022-12-19T16:51:11.396Z</time>
      </trkpt>
      <trkpt lat="46.19086" lon="-1.14724">
        <ele>58.793013</ele>
        <time>2022-12-19T16:51:14.373Z</time>
      </trkpt>
      <trkpt lat="46.19078" lon="-1.14734">
        <ele>58.738113</ele>
        <time>2022-12-19T16:51:17.372Z</time>
      </trkpt>
      <trkpt lat="46.19067" lon="-1.1474">
        <ele>58.683036</ele>
        <time>2022-12-19T16:51:20.371Z</time>
      </trkpt>
      <trkpt lat="46.19056" lon="-1.1474">
        <ele>58.734158</ele>
        <time>2022-12-19T16:51:23.381Z</time>
      </trkpt>
      <trkpt lat="46.19046" lon="-1.14738">
        <ele>58.787424</ele>
        <time>2022-12-19T16:51:26.391Z</time>
      </trkpt>
      <trkpt lat="46.19036" lon="-1.14737">
        <ele>58.840565</ele>
        <time>2022-12-19T16:51:29.383Z</time>
      </trkpt>
      <trkpt lat="46.19026" lon="-1.14736">
        <ele>58.891369</ele>
        <time>2022-12-19T16:51:32.379Z</time>
      </trkpt>
      <trkpt lat="46.19016" lon="-1.1474">
        <ele>58.942247</ele>
        <time>2022-12-19T16:51:35.380Z</time>
      </trkpt>
      <trkpt lat="46.19008" lon="-1.14747">
        <ele>58.991469</ele>
        <time>2022-12-19T16:51:39.386Z</time>
      </trkpt>
      <trkpt lat="46.19003" lon="-1.1476">
        <ele>59.044266</ele>
        <time>2022-12-19T16:51:45.364Z</time>
      </trkpt>
      <trkpt lat="46.18995" lon="-1.14768">
        <ele>59.09605</ele>
        <time>2022-12-19T16:51:50.381Z</time>
      </trkpt>
      <trkpt lat="46.18986" lon="-1.14777">
        <ele>59.152623</ele>
        <time>2022-12-19T16:51:54.379Z</time>
      </trkpt>
      <trkpt lat="46.18978" lon="-1.14789">
        <ele>59.212396</ele>
        <time>2022-12-19T16:51:58.367Z</time>
      </trkpt>
      <trkpt lat="46.18969" lon="-1.14799">
        <ele>59.27041</ele>
        <time>2022-12-19T16:52:02.373Z</time>
      </trkpt>
      <trkpt lat="46.18959" lon="-1.14809">
        <ele>59.329464</ele>
        <time>2022-12-19T16:52:06.388Z</time>
      </trkpt>
      <trkpt lat="46.1895" lon="-1.14816">
        <ele>59.383878</ele>
        <time>2022-12-19T16:52:10.373Z</time>
      </trkpt>
      <trkpt lat="46.18941" lon="-1.14823">
        <ele>59.434605</ele>
        <time>2022-12-19T16:52:14.384Z</time>
      </trkpt>
      <trkpt lat="46.18931" lon="-1.14831">
        <ele>59.493073</ele>
        <time>2022-12-19T16:52:18.383Z</time>
      </trkpt>
      <trkpt lat="46.18923" lon="-1.14837">
        <ele>59.540264</ele>
        <time>2022-12-19T16:52:21.378Z</time>
      </trkpt>
      <trkpt lat="46.18914" lon="-1.14843">
        <ele>59.591877</ele>
        <time>2022-12-19T16:52:24.374Z</time>
      </trkpt>
      <trkpt lat="46.18905" lon="-1.1485">
        <ele>59.689045</ele>
        <time>2022-12-19T16:52:27.379Z</time>
      </trkpt>
      <trkpt lat="46.18896" lon="-1.14857">
        <ele>59.799397</ele>
        <time>2022-12-19T16:52:30.375Z</time>
      </trkpt>
      <trkpt lat="46.18887" lon="-1.14864">
        <ele>59.90924</ele>
        <time>2022-12-19T16:52:33.371Z</time>
      </trkpt>
      <trkpt lat="46.18878" lon="-1.14872">
        <ele>60.02308</ele>
        <time>2022-12-19T16:52:36.368Z</time>
      </trkpt>
      <trkpt lat="46.18868" lon="-1.1488">
        <ele>60.143908</ele>
        <time>2022-12-19T16:52:39.373Z</time>
      </trkpt>
      <trkpt lat="46.18859" lon="-1.14888">
        <ele>60.262298</ele>
        <time>2022-12-19T16:52:42.380Z</time>
      </trkpt>
      <trkpt lat="46.1885" lon="-1.14897">
        <ele>60.37795</ele>
        <time>2022-12-19T16:52:45.389Z</time>
      </trkpt>
      <trkpt lat="46.1884" lon="-1.14905">
        <ele>60.495817</ele>
        <time>2022-12-19T16:52:48.373Z</time>
      </trkpt>
      <trkpt lat="46.18831" lon="-1.14915">
        <ele>60.621265</ele>
        <time>2022-12-19T16:52:51.360Z</time>
      </trkpt>
      <trkpt lat="46.18821" lon="-1.14924">
        <ele>60.745557</ele>
        <time>2022-12-19T16:52:54.374Z</time>
      </trkpt>
      <trkpt lat="46.18812" lon="-1.14934">
        <ele>60.869698</ele>
        <time>2022-12-19T16:52:57.375Z</time>
      </trkpt>
      <trkpt lat="46.18802" lon="-1.14943">
        <ele>60.990476</ele>
        <time>2022-12-19T16:53:00.371Z</time>
      </trkpt>
      <trkpt lat="46.18793" lon="-1.14951">
        <ele>61.107434</ele>
        <time>2022-12-19T16:53:03.393Z</time>
      </trkpt>
      <trkpt lat="46.18784" lon="-1.14961">
        <ele>61.228681</ele>
        <time>2022-12-19T16:53:07.379Z</time>
      </trkpt>
      <trkpt lat="46.18775" lon="-1.14971">
        <ele>61.357191</ele>
        <time>2022-12-19T16:53:11.390Z</time>
      </trkpt>
      <trkpt lat="46.18766" lon="-1.14979">
        <ele>61.467518</ele>
        <time>2022-12-19T16:53:14.372Z</time>
      </trkpt>
      <trkpt lat="46.18757" lon="-1.14987">
        <ele>61.506585</ele>
        <time>2022-12-19T16:53:17.386Z</time>
      </trkpt>
      <trkpt lat="46.18747" lon="-1.14995">
        <ele>61.43696</ele>
        <time>2022-12-19T16:53:20.389Z</time>
      </trkpt>
      <trkpt lat="46.18738" lon="-1.15002">
        <ele>61.365268</ele>
        <time>2022-12-19T16:53:23.372Z</time>
      </trkpt>
      <trkpt lat="46.18727" lon="-1.1501">
        <ele>61.287546</ele>
        <time>2022-12-19T16:53:26.400Z</time>
      </trkpt>
      <trkpt lat="46.18717" lon="-1.1502">
        <ele>61.210047</ele>
        <time>2022-12-19T16:53:29.370Z</time>
      </trkpt>
      <trkpt lat="46.18708" lon="-1.15028">
        <ele>61.138641</ele>
        <time>2022-12-19T16:53:32.389Z</time>
      </trkpt>
      <trkpt lat="46.187" lon="-1.15036">
        <ele>61.07391</ele>
        <time>2022-12-19T16:53:35.393Z</time>
      </trkpt>
      <trkpt lat="46.18691" lon="-1.15045">
        <ele>61.004929</ele>
        <time>2022-12-19T16:53:38.378Z</time>
      </trkpt>
      <trkpt lat="46.18682" lon="-1.15053">
        <ele>60.938206</ele>
        <time>2022-12-19T16:53:41.385Z</time>
      </trkpt>
      <trkpt lat="46.18673" lon="-1.15062">
        <ele>60.866879</ele>
        <time>2022-12-19T16:53:44.375Z</time>
      </trkpt>
      <trkpt lat="46.18664" lon="-1.15071">
        <ele>60.793936</ele>
        <time>2022-12-19T16:53:47.371Z</time>
      </trkpt>
      <trkpt lat="46.18655" lon="-1.15079">
        <ele>60.726974</ele>
        <time>2022-12-19T16:53:50.369Z</time>
      </trkpt>
      <trkpt lat="46.18648" lon="-1.15086">
        <ele>60.667282</ele>
        <time>2022-12-19T16:53:53.372Z</time>
      </trkpt>
      <trkpt lat="46.18638" lon="-1.15096">
        <ele>60.590917</ele>
        <time>2022-12-19T16:53:57.372Z</time>
      </trkpt>
      <trkpt lat="46.1863" lon="-1.15104">
        <ele>60.526185</ele>
        <time>2022-12-19T16:54:01.390Z</time>
      </trkpt>
      <trkpt lat="46.18623" lon="-1.15113">
        <ele>60.464333</ele>
        <time>2022-12-19T16:54:07.397Z</time>
      </trkpt>
      <trkpt lat="46.18621" lon="-1.15129">
        <ele>60.392641</ele>
        <time>2022-12-19T16:54:12.372Z</time>
      </trkpt>
      <trkpt lat="46.18622" lon="-1.15142">
        <ele>60.360938</ele>
        <time>2022-12-19T16:54:15.402Z</time>
      </trkpt>
      <trkpt lat="46.18623" lon="-1.15157">
        <ele>60.354936</ele>
        <time>2022-12-19T16:54:18.370Z</time>
      </trkpt>
      <trkpt lat="46.18625" lon="-1.15175">
        <ele>60.347941</ele>
        <time>2022-12-19T16:54:21.371Z</time>
      </trkpt>
      <trkpt lat="46.18626" lon="-1.15192">
        <ele>60.340972</ele>
        <time>2022-12-19T16:54:24.386Z</time>
      </trkpt>
      <trkpt lat="46.18627" lon="-1.15208">
        <ele>60.334705</ele>
        <time>2022-12-19T16:54:27.375Z</time>
      </trkpt>
      <trkpt lat="46.18629" lon="-1.15224">
        <ele>60.328249</ele>
        <time>2022-12-19T16:54:30.365Z</time>
      </trkpt>
      <trkpt lat="46.18629" lon="-1.15241">
        <ele>60.32152</ele>
        <time>2022-12-19T16:54:33.373Z</time>
      </trkpt>
      <trkpt lat="46.1863" lon="-1.15258">
        <ele>60.314558</ele>
        <time>2022-12-19T16:54:36.375Z</time>
      </trkpt>
      <trkpt lat="46.18631" lon="-1.15277">
        <ele>60.307231</ele>
        <time>2022-12-19T16:54:39.387Z</time>
      </trkpt>
      <trkpt lat="46.1863" lon="-1.15294">
        <ele>60.300542</ele>
        <time>2022-12-19T16:54:42.371Z</time>
      </trkpt>
      <trkpt lat="46.18631" lon="-1.15308">
        <ele>60.29479</ele>
        <time>2022-12-19T16:54:45.372Z</time>
      </trkpt>
      <trkpt lat="46.18633" lon="-1.15325">
        <ele>60.288072</ele>
        <time>2022-12-19T16:54:49.366Z</time>
      </trkpt>
      <trkpt lat="46.18638" lon="-1.15337">
        <ele>60.282384</ele>
        <time>2022-12-19T16:54:52.369Z</time>
      </trkpt>
      <trkpt lat="46.1864" lon="-1.15352">
        <ele>60.276431</ele>
        <time>2022-12-19T16:54:55.378Z</time>
      </trkpt>
      <trkpt lat="46.18642" lon="-1.15367">
        <ele>60.270331</ele>
        <time>2022-12-19T16:54:58.373Z</time>
      </trkpt>
      <trkpt lat="46.18645" lon="-1.15381">
        <ele>60.264637</ele>
        <time>2022-12-19T16:55:01.373Z</time>
      </trkpt>
      <trkpt lat="46.18646" lon="-1.15396">
        <ele>60.206852</ele>
        <time>2022-12-19T16:55:05.371Z</time>
      </trkpt>
      <trkpt lat="46.18645" lon="-1.15411">
        <ele>60.047682</ele>
        <time>2022-12-19T16:55:10.383Z</time>
      </trkpt>
      <trkpt lat="46.18636" lon="-1.15419">
        <ele>59.88031</ele>
        <time>2022-12-19T16:55:15.372Z</time>
      </trkpt>
      <trkpt lat="46.18625" lon="-1.15423">
        <ele>59.715354</ele>
        <time>2022-12-19T16:55:19.383Z</time>
      </trkpt>
      <trkpt lat="46.18619" lon="-1.15435">
        <ele>59.552394</ele>
        <time>2022-12-19T16:55:23.390Z</time>
      </trkpt>
      <trkpt lat="46.18614" lon="-1.15447">
        <ele>59.406075</ele>
        <time>2022-12-19T16:55:26.378Z</time>
      </trkpt>
      <trkpt lat="46.18605" lon="-1.15456">
        <ele>59.243402</ele>
        <time>2022-12-19T16:55:29.381Z</time>
      </trkpt>
      <trkpt lat="46.18597" lon="-1.15465">
        <ele>59.077715</ele>
        <time>2022-12-19T16:55:32.379Z</time>
      </trkpt>
      <trkpt lat="46.18588" lon="-1.15475">
        <ele>58.909595</ele>
        <time>2022-12-19T16:55:35.380Z</time>
      </trkpt>
      <trkpt lat="46.18578" lon="-1.15484">
        <ele>58.736549</ele>
        <time>2022-12-19T16:55:38.382Z</time>
      </trkpt>
      <trkpt lat="46.18568" lon="-1.15494">
        <ele>58.547422</ele>
        <time>2022-12-19T16:55:41.400Z</time>
      </trkpt>
      <trkpt lat="46.18558" lon="-1.15507">
        <ele>58.347113</ele>
        <time>2022-12-19T16:55:44.374Z</time>
      </trkpt>
      <trkpt lat="46.18552" lon="-1.15517">
        <ele>58.205925</ele>
        <time>2022-12-19T16:55:46.374Z</time>
      </trkpt>
      <trkpt lat="46.18546" lon="-1.15526">
        <ele>58.06585</ele>
        <time>2022-12-19T16:55:48.365Z</time>
      </trkpt>
      <trkpt lat="46.18539" lon="-1.15536">
        <ele>57.925963</ele>
        <time>2022-12-19T16:55:50.371Z</time>
      </trkpt>
      <trkpt lat="46.18532" lon="-1.15546">
        <ele>57.782242</ele>
        <time>2022-12-19T16:55:52.378Z</time>
      </trkpt>
      <trkpt lat="46.18526" lon="-1.15556">
        <ele>57.632299</ele>
        <time>2022-12-19T16:55:54.388Z</time>
      </trkpt>
      <trkpt lat="46.1852" lon="-1.15567">
        <ele>57.523878</ele>
        <time>2022-12-19T16:55:56.373Z</time>
      </trkpt>
      <trkpt lat="46.18511" lon="-1.15582">
        <ele>57.501846</ele>
        <time>2022-12-19T16:55:59.388Z</time>
      </trkpt>
      <trkpt lat="46.18505" lon="-1.15594">
        <ele>57.485817</ele>
        <time>2022-12-19T16:56:01.379Z</time>
      </trkpt>
      <trkpt lat="46.185" lon="-1.15605">
        <ele>57.47119</ele>
        <time>2022-12-19T16:56:03.374Z</time>
      </trkpt>
      <trkpt lat="46.18493" lon="-1.1562">
        <ele>57.450991</ele>
        <time>2022-12-19T16:56:06.394Z</time>
      </trkpt>
      <trkpt lat="46.18487" lon="-1.15634">
        <ele>57.432456</ele>
        <time>2022-12-19T16:56:09.377Z</time>
      </trkpt>
      <trkpt lat="46.18482" lon="-1.15648">
        <ele>57.415291</ele>
        <time>2022-12-19T16:56:12.386Z</time>
      </trkpt>
      <trkpt lat="46.18477" lon="-1.15661">
        <ele>57.39886</ele>
        <time>2022-12-19T16:56:16.374Z</time>
      </trkpt>
      <trkpt lat="46.18469" lon="-1.1567">
        <ele>57.383472</ele>
        <time>2022-12-19T16:56:21.378Z</time>
      </trkpt>
      <trkpt lat="46.18459" lon="-1.15663">
        <ele>57.365735</ele>
        <time>2022-12-19T16:56:25.383Z</time>
      </trkpt>
      <trkpt lat="46.18451" lon="-1.15657">
        <ele>57.350772</ele>
        <time>2022-12-19T16:56:28.380Z</time>
      </trkpt>
      <trkpt lat="46.18443" lon="-1.15649">
        <ele>57.335492</ele>
        <time>2022-12-19T16:56:31.387Z</time>
      </trkpt>
      <trkpt lat="46.18434" lon="-1.15641">
        <ele>57.318081</ele>
        <time>2022-12-19T16:56:35.372Z</time>
      </trkpt>
      <trkpt lat="46.18424" lon="-1.15644">
        <ele>57.302406</ele>
        <time>2022-12-19T16:56:39.376Z</time>
      </trkpt>
      <trkpt lat="46.18419" lon="-1.15656">
        <ele>57.287688</ele>
        <time>2022-12-19T16:56:43.371Z</time>
      </trkpt>
      <trkpt lat="46.18414" lon="-1.1567">
        <ele>57.26996</ele>
        <time>2022-12-19T16:56:47.375Z</time>
      </trkpt>
      <trkpt lat="46.1841" lon="-1.15681">
        <ele>57.255617</ele>
        <time>2022-12-19T16:56:50.391Z</time>
      </trkpt>
      <trkpt lat="46.18405" lon="-1.15693">
        <ele>57.247645</ele>
        <time>2022-12-19T16:56:53.377Z</time>
      </trkpt>
      <trkpt lat="46.18401" lon="-1.15706">
        <ele>57.367738</ele>
        <time>2022-12-19T16:56:56.374Z</time>
      </trkpt>
      <trkpt lat="46.18389" lon="-1.15736">
        <ele>57.677021</ele>
        <time>2022-12-19T16:58:08.391Z</time>
      </trkpt>
      <trkpt lat="46.18385" lon="-1.1575">
        <ele>57.811843</ele>
        <time>2022-12-19T16:58:12.378Z</time>
      </trkpt>
      <trkpt lat="46.1838" lon="-1.15761">
        <ele>57.93125</ele>
        <time>2022-12-19T16:58:16.373Z</time>
      </trkpt>
      <trkpt lat="46.18375" lon="-1.15776">
        <ele>58.07169</ele>
        <time>2022-12-19T16:58:20.373Z</time>
      </trkpt>
      <trkpt lat="46.1837" lon="-1.1579">
        <ele>58.214384</ele>
        <time>2022-12-19T16:58:24.373Z</time>
      </trkpt>
      <trkpt lat="46.18364" lon="-1.15804">
        <ele>58.358632</ele>
        <time>2022-12-19T16:58:29.404Z</time>
      </trkpt>
      <trkpt lat="46.18359" lon="-1.15818">
        <ele>58.496379</ele>
        <time>2022-12-19T16:58:33.367Z</time>
      </trkpt>
      <trkpt lat="46.18356" lon="-1.15831">
        <ele>58.617791</ele>
        <time>2022-12-19T16:58:37.399Z</time>
      </trkpt>
      <trkpt lat="46.18356" lon="-1.15845">
        <ele>58.740006</ele>
        <time>2022-12-19T16:58:41.372Z</time>
      </trkpt>
      <trkpt lat="46.18356" lon="-1.15859">
        <ele>58.862541</ele>
        <time>2022-12-19T16:58:45.393Z</time>
      </trkpt>
      <trkpt lat="46.18352" lon="-1.15873">
        <ele>58.998113</ele>
        <time>2022-12-19T16:58:50.388Z</time>
      </trkpt>
      <trkpt lat="46.18343" lon="-1.15878">
        <ele>59.12504</ele>
        <time>2022-12-19T16:58:54.382Z</time>
      </trkpt>
      <trkpt lat="46.18333" lon="-1.15879">
        <ele>59.251978</ele>
        <time>2022-12-19T16:58:58.374Z</time>
      </trkpt>
      <trkpt lat="46.18324" lon="-1.15879">
        <ele>59.373519</ele>
        <time>2022-12-19T16:59:02.386Z</time>
      </trkpt>
      <trkpt lat="46.18312" lon="-1.15879">
        <ele>59.518122</ele>
        <time>2022-12-19T16:59:06.379Z</time>
      </trkpt>
      <trkpt lat="46.18303" lon="-1.15878">
        <ele>59.521629</ele>
        <time>2022-12-19T16:59:09.369Z</time>
      </trkpt>
      <trkpt lat="46.18292" lon="-1.15879">
        <ele>59.49178</ele>
        <time>2022-12-19T16:59:13.382Z</time>
      </trkpt>
      <trkpt lat="46.18281" lon="-1.15879">
        <ele>59.463303</ele>
        <time>2022-12-19T16:59:16.370Z</time>
      </trkpt>
      <trkpt lat="46.1827" lon="-1.15879">
        <ele>59.433482</ele>
        <time>2022-12-19T16:59:19.378Z</time>
      </trkpt>
      <trkpt lat="46.18259" lon="-1.15879">
        <ele>59.402578</ele>
        <time>2022-12-19T16:59:22.372Z</time>
      </trkpt>
      <trkpt lat="46.18247" lon="-1.15879">
        <ele>59.370067</ele>
        <time>2022-12-19T16:59:25.404Z</time>
      </trkpt>
      <trkpt lat="46.18234" lon="-1.1588">
        <ele>59.335671</ele>
        <time>2022-12-19T16:59:28.368Z</time>
      </trkpt>
      <trkpt lat="46.18225" lon="-1.1588">
        <ele>59.311493</ele>
        <time>2022-12-19T16:59:30.379Z</time>
      </trkpt>
      <trkpt lat="46.18212" lon="-1.1588">
        <ele>59.276824</ele>
        <time>2022-12-19T16:59:33.368Z</time>
      </trkpt>
      <trkpt lat="46.182" lon="-1.1588">
        <ele>59.245658</ele>
        <time>2022-12-19T16:59:36.369Z</time>
      </trkpt>
      <trkpt lat="46.18188" lon="-1.15881">
        <ele>59.213662</ele>
        <time>2022-12-19T16:59:39.377Z</time>
      </trkpt>
      <trkpt lat="46.18176" lon="-1.15881">
        <ele>59.181692</ele>
        <time>2022-12-19T16:59:42.372Z</time>
      </trkpt>
      <trkpt lat="46.18164" lon="-1.15881">
        <ele>59.149185</ele>
        <time>2022-12-19T16:59:45.375Z</time>
      </trkpt>
      <trkpt lat="46.18152" lon="-1.15882">
        <ele>59.117172</ele>
        <time>2022-12-19T16:59:48.375Z</time>
      </trkpt>
      <trkpt lat="46.18141" lon="-1.15883">
        <ele>59.08625</ele>
        <time>2022-12-19T16:59:51.379Z</time>
      </trkpt>
      <trkpt lat="46.18131" lon="-1.15884">
        <ele>59.058796</ele>
        <time>2022-12-19T16:59:54.381Z</time>
      </trkpt>
      <trkpt lat="46.1812" lon="-1.15884">
        <ele>59.209296</ele>
        <time>2022-12-19T16:59:57.411Z</time>
      </trkpt>
      <trkpt lat="46.18108" lon="-1.15886">
        <ele>59.36954</ele>
        <time>2022-12-19T17:00:00.374Z</time>
      </trkpt>
      <trkpt lat="46.18097" lon="-1.15888">
        <ele>59.529783</ele>
        <time>2022-12-19T17:00:03.381Z</time>
      </trkpt>
      <trkpt lat="46.18086" lon="-1.1589">
        <ele>59.688418</ele>
        <time>2022-12-19T17:00:06.400Z</time>
      </trkpt>
      <trkpt lat="46.18075" lon="-1.15892">
        <ele>59.841116</ele>
        <time>2022-12-19T17:00:09.374Z</time>
      </trkpt>
      <trkpt lat="46.18064" lon="-1.15893">
        <ele>59.989936</ele>
        <time>2022-12-19T17:00:12.372Z</time>
      </trkpt>
      <trkpt lat="46.18054" lon="-1.15895">
        <ele>60.134296</ele>
        <time>2022-12-19T17:00:15.378Z</time>
      </trkpt>
      <trkpt lat="46.18045" lon="-1.15896">
        <ele>60.263718</ele>
        <time>2022-12-19T17:00:18.387Z</time>
      </trkpt>
      <trkpt lat="46.18033" lon="-1.15899">
        <ele>60.42354</ele>
        <time>2022-12-19T17:00:22.395Z</time>
      </trkpt>
      <trkpt lat="46.18022" lon="-1.15902">
        <ele>60.580609</ele>
        <time>2022-12-19T17:00:26.381Z</time>
      </trkpt>
      <trkpt lat="46.18011" lon="-1.15904">
        <ele>60.738332</ele>
        <time>2022-12-19T17:00:30.364Z</time>
      </trkpt>
      <trkpt lat="46.18001" lon="-1.15906">
        <ele>60.885</ele>
        <time>2022-12-19T17:00:34.401Z</time>
      </trkpt>
      <trkpt lat="46.17991" lon="-1.1591">
        <ele>61.029045</ele>
        <time>2022-12-19T17:00:38.371Z</time>
      </trkpt>
      <trkpt lat="46.1798" lon="-1.15913">
        <ele>61.17941</ele>
        <time>2022-12-19T17:00:42.375Z</time>
      </trkpt>
      <trkpt lat="46.17971" lon="-1.15915">
        <ele>61.315702</ele>
        <time>2022-12-19T17:00:46.388Z</time>
      </trkpt>
      <trkpt lat="46.17961" lon="-1.15918">
        <ele>61.457839</ele>
        <time>2022-12-19T17:00:50.398Z</time>
      </trkpt>
      <trkpt lat="46.17951" lon="-1.15921">
        <ele>61.58006</ele>
        <time>2022-12-19T17:00:55.376Z</time>
      </trkpt>
      <trkpt lat="46.17938" lon="-1.15922">
        <ele>61.647244</ele>
        <time>2022-12-19T17:01:23.378Z</time>
      </trkpt>
      <trkpt lat="46.1793" lon="-1.1593">
        <ele>61.694259</ele>
        <time>2022-12-19T17:01:27.400Z</time>
      </trkpt>
      <trkpt lat="46.17929" lon="-1.15945">
        <ele>61.749051</ele>
        <time>2022-12-19T17:01:31.376Z</time>
      </trkpt>
      <trkpt lat="46.1793" lon="-1.15961">
        <ele>61.806456</ele>
        <time>2022-12-19T17:01:35.368Z</time>
      </trkpt>
      <trkpt lat="46.1793" lon="-1.15977">
        <ele>61.86299</ele>
        <time>2022-12-19T17:01:39.372Z</time>
      </trkpt>
      <trkpt lat="46.1793" lon="-1.15992">
        <ele>61.918105</ele>
        <time>2022-12-19T17:01:43.377Z</time>
      </trkpt>
      <trkpt lat="46.17931" lon="-1.16006">
        <ele>61.969326</ele>
        <time>2022-12-19T17:01:47.372Z</time>
      </trkpt>
      <trkpt lat="46.17932" lon="-1.16019">
        <ele>62.016601</ele>
        <time>2022-12-19T17:01:51.370Z</time>
      </trkpt>
      <trkpt lat="46.17931" lon="-1.16001">
        <ele>62.08254</ele>
        <time>2022-12-19T17:02:40.376Z</time>
      </trkpt>
      <trkpt lat="46.1793" lon="-1.15987">
        <ele>62.133696</ele>
        <time>2022-12-19T17:02:44.374Z</time>
      </trkpt>
      <trkpt lat="46.17929" lon="-1.15973">
        <ele>62.18349</ele>
        <time>2022-12-19T17:02:48.370Z</time>
      </trkpt>
      <trkpt lat="46.17926" lon="-1.15959">
        <ele>62.235963</ele>
        <time>2022-12-19T17:02:56.390Z</time>
      </trkpt>
      <trkpt lat="46.17918" lon="-1.15949">
        <ele>62.292978</ele>
        <time>2022-12-19T17:03:02.379Z</time>
      </trkpt>
      <trkpt lat="46.17911" lon="-1.1594">
        <ele>62.343213</ele>
        <time>2022-12-19T17:03:07.397Z</time>
      </trkpt>
      <trkpt lat="46.179" lon="-1.15939">
        <ele>62.396809</ele>
        <time>2022-12-19T17:03:13.387Z</time>
      </trkpt>
      <trkpt lat="46.17892" lon="-1.15945">
        <ele>62.444004</ele>
        <time>2022-12-19T17:03:17.375Z</time>
      </trkpt>
      <trkpt lat="46.17881" lon="-1.15949">
        <ele>62.501615</ele>
        <time>2022-12-19T17:03:21.372Z</time>
      </trkpt>
      <trkpt lat="46.1787" lon="-1.15952">
        <ele>62.366126</ele>
        <time>2022-12-19T17:03:25.401Z</time>
      </trkpt>
      <trkpt lat="46.17861" lon="-1.15956">
        <ele>62.237906</ele>
        <time>2022-12-19T17:03:30.372Z</time>
      </trkpt>
      <trkpt lat="46.17858" lon="-1.1597">
        <ele>62.10405</ele>
        <time>2022-12-19T17:03:35.373Z</time>
      </trkpt>
      <trkpt lat="46.1786" lon="-1.15985">
        <ele>61.969279</ele>
        <time>2022-12-19T17:03:39.368Z</time>
      </trkpt>
      <trkpt lat="46.17861" lon="-1.15999">
        <ele>61.847446</ele>
        <time>2022-12-19T17:03:43.389Z</time>
      </trkpt>
      <trkpt lat="46.17858" lon="-1.16012">
        <ele>61.731137</ele>
        <time>2022-12-19T17:03:48.369Z</time>
      </trkpt>
      <trkpt lat="46.17848" lon="-1.16016">
        <ele>61.590083</ele>
        <time>2022-12-19T17:03:52.380Z</time>
      </trkpt>
      <trkpt lat="46.17837" lon="-1.16018">
        <ele>61.456511</ele>
        <time>2022-12-19T17:03:56.379Z</time>
      </trkpt>
      <trkpt lat="46.17828" lon="-1.16018">
        <ele>61.341831</ele>
        <time>2022-12-19T17:04:06.400Z</time>
      </trkpt>
      <trkpt lat="46.17816" lon="-1.16024">
        <ele>61.174268</ele>
        <time>2022-12-19T17:07:45.421Z</time>
      </trkpt>
      <trkpt lat="46.17808" lon="-1.16033">
        <ele>61.048204</ele>
        <time>2022-12-19T17:07:49.379Z</time>
      </trkpt>
      <trkpt lat="46.17801" lon="-1.16042">
        <ele>60.92044</ele>
        <time>2022-12-19T17:07:53.386Z</time>
      </trkpt>
      <trkpt lat="46.17795" lon="-1.16056">
        <ele>60.784287</ele>
        <time>2022-12-19T17:07:57.376Z</time>
      </trkpt>
      <trkpt lat="46.17792" lon="-1.16071">
        <ele>60.643744</ele>
        <time>2022-12-19T17:08:00.372Z</time>
      </trkpt>
      <trkpt lat="46.17788" lon="-1.16086">
        <ele>60.501593</ele>
        <time>2022-12-19T17:08:03.371Z</time>
      </trkpt>
      <trkpt lat="46.17785" lon="-1.161">
        <ele>60.371853</ele>
        <time>2022-12-19T17:08:06.366Z</time>
      </trkpt>
      <trkpt lat="46.17781" lon="-1.16113">
        <ele>60.247628</ele>
        <time>2022-12-19T17:08:09.372Z</time>
      </trkpt>
      <trkpt lat="46.17778" lon="-1.16128">
        <ele>60.045442</ele>
        <time>2022-12-19T17:08:12.376Z</time>
      </trkpt>
      <trkpt lat="46.17775" lon="-1.16144">
        <ele>59.799208</ele>
        <time>2022-12-19T17:08:15.368Z</time>
      </trkpt>
      <trkpt lat="46.1777" lon="-1.16161">
        <ele>59.53701</ele>
        <time>2022-12-19T17:08:18.376Z</time>
      </trkpt>
      <trkpt lat="46.17767" lon="-1.16177">
        <ele>59.280319</ele>
        <time>2022-12-19T17:08:21.376Z</time>
      </trkpt>
      <trkpt lat="46.17763" lon="-1.16193">
        <ele>59.032028</ele>
        <time>2022-12-19T17:08:24.370Z</time>
      </trkpt>
      <trkpt lat="46.17759" lon="-1.16208">
        <ele>58.796593</ele>
        <time>2022-12-19T17:08:27.370Z</time>
      </trkpt>
      <trkpt lat="46.17755" lon="-1.16223">
        <ele>58.562209</ele>
        <time>2022-12-19T17:08:30.367Z</time>
      </trkpt>
      <trkpt lat="46.17752" lon="-1.16238">
        <ele>58.333201</ele>
        <time>2022-12-19T17:08:33.378Z</time>
      </trkpt>
      <trkpt lat="46.17749" lon="-1.16252">
        <ele>58.114671</ele>
        <time>2022-12-19T17:08:36.377Z</time>
      </trkpt>
      <trkpt lat="46.1775" lon="-1.16265">
        <ele>57.921097</ele>
        <time>2022-12-19T17:08:39.377Z</time>
      </trkpt>
      <trkpt lat="46.1775" lon="-1.16279">
        <ele>57.71169</ele>
        <time>2022-12-19T17:08:44.382Z</time>
      </trkpt>
      <trkpt lat="46.17742" lon="-1.1629">
        <ele>57.478724</ele>
        <time>2022-12-19T17:08:52.403Z</time>
      </trkpt>
      <trkpt lat="46.17737" lon="-1.16305">
        <ele>57.232156</ele>
        <time>2022-12-19T17:08:56.372Z</time>
      </trkpt>
      <trkpt lat="46.17734" lon="-1.16318">
        <ele>57.022489</ele>
        <time>2022-12-19T17:08:59.376Z</time>
      </trkpt>
      <trkpt lat="46.1773" lon="-1.16333">
        <ele>56.792259</ele>
        <time>2022-12-19T17:09:02.378Z</time>
      </trkpt>
      <trkpt lat="46.17727" lon="-1.1635">
        <ele>56.530961</ele>
        <time>2022-12-19T17:09:05.387Z</time>
      </trkpt>
      <trkpt lat="46.17724" lon="-1.16367">
        <ele>56.300595</ele>
        <time>2022-12-19T17:09:08.372Z</time>
      </trkpt>
      <trkpt lat="46.1772" lon="-1.16382">
        <ele>56.115134</ele>
        <time>2022-12-19T17:09:11.385Z</time>
      </trkpt>
      <trkpt lat="46.17717" lon="-1.164">
        <ele>55.910012</ele>
        <time>2022-12-19T17:09:14.376Z</time>
      </trkpt>
      <trkpt lat="46.17716" lon="-1.16415">
        <ele>55.733414</ele>
        <time>2022-12-19T17:09:17.373Z</time>
      </trkpt>
      <trkpt lat="46.1771" lon="-1.16427">
        <ele>55.567928</ele>
        <time>2022-12-19T17:09:21.375Z</time>
      </trkpt>
      <trkpt lat="46.17699" lon="-1.16423">
        <ele>55.392494</ele>
        <time>2022-12-19T17:09:25.377Z</time>
      </trkpt>
      <trkpt lat="46.17689" lon="-1.16419">
        <ele>55.208235</ele>
        <time>2022-12-19T17:09:29.384Z</time>
      </trkpt>
      <trkpt lat="46.17677" lon="-1.16413">
        <ele>55.013837</ele>
        <time>2022-12-19T17:09:34.389Z</time>
      </trkpt>
      <trkpt lat="46.17668" lon="-1.16409">
        <ele>54.853598</ele>
        <time>2022-12-19T17:09:37.370Z</time>
      </trkpt>
      <trkpt lat="46.17658" lon="-1.16409">
        <ele>54.682828</ele>
        <time>2022-12-19T17:09:40.372Z</time>
      </trkpt>
      <trkpt lat="46.17647" lon="-1.16412">
        <ele>54.500836</ele>
        <time>2022-12-19T17:09:43.376Z</time>
      </trkpt>
      <trkpt lat="46.17636" lon="-1.16416">
        <ele>54.312984</ele>
        <time>2022-12-19T17:09:46.379Z</time>
      </trkpt>
      <trkpt lat="46.17625" lon="-1.16418">
        <ele>54.141846</ele>
        <time>2022-12-19T17:09:49.371Z</time>
      </trkpt>
      <trkpt lat="46.17616" lon="-1.16421">
        <ele>53.984322</ele>
        <time>2022-12-19T17:09:52.386Z</time>
      </trkpt>
      <trkpt lat="46.17606" lon="-1.16424">
        <ele>53.811012</ele>
        <time>2022-12-19T17:09:55.379Z</time>
      </trkpt>
      <trkpt lat="46.17596" lon="-1.16428">
        <ele>53.64884</ele>
        <time>2022-12-19T17:09:58.367Z</time>
      </trkpt>
      <trkpt lat="46.17587" lon="-1.16432">
        <ele>53.485392</ele>
        <time>2022-12-19T17:10:01.375Z</time>
      </trkpt>
      <trkpt lat="46.17576" lon="-1.16435">
        <ele>53.444106</ele>
        <time>2022-12-19T17:10:04.378Z</time>
      </trkpt>
      <trkpt lat="46.17567" lon="-1.16438">
        <ele>53.456576</ele>
        <time>2022-12-19T17:10:07.370Z</time>
      </trkpt>
      <trkpt lat="46.17557" lon="-1.16442">
        <ele>53.46865</ele>
        <time>2022-12-19T17:10:10.366Z</time>
      </trkpt>
      <trkpt lat="46.17547" lon="-1.16446">
        <ele>53.482023</ele>
        <time>2022-12-19T17:10:14.377Z</time>
      </trkpt>
      <trkpt lat="46.17536" lon="-1.16448">
        <ele>53.495362</ele>
        <time>2022-12-19T17:10:19.372Z</time>
      </trkpt>
      <trkpt lat="46.17527" lon="-1.16452">
        <ele>53.507271</ele>
        <time>2022-12-19T17:10:24.369Z</time>
      </trkpt>
      <trkpt lat="46.17519" lon="-1.16441">
        <ele>53.520518</ele>
        <time>2022-12-19T17:10:29.370Z</time>
      </trkpt>
      <trkpt lat="46.17513" lon="-1.16428">
        <ele>53.534206</ele>
        <time>2022-12-19T17:10:33.387Z</time>
      </trkpt>
      <trkpt lat="46.17506" lon="-1.16419">
        <ele>53.545703</ele>
        <time>2022-12-19T17:10:36.376Z</time>
      </trkpt>
      <trkpt lat="46.17498" lon="-1.1641">
        <ele>53.558418</ele>
        <time>2022-12-19T17:10:41.391Z</time>
      </trkpt>
      <trkpt lat="46.17487" lon="-1.1641">
        <ele>53.571802</ele>
        <time>2022-12-19T17:10:45.375Z</time>
      </trkpt>
      <trkpt lat="46.17478" lon="-1.16412">
        <ele>53.582939</ele>
        <time>2022-12-19T17:10:48.375Z</time>
      </trkpt>
      <trkpt lat="46.17469" lon="-1.16414">
        <ele>53.594333</ele>
        <time>2022-12-19T17:10:51.375Z</time>
      </trkpt>
      <trkpt lat="46.17457" lon="-1.16416">
        <ele>53.608773</ele>
        <time>2022-12-19T17:10:55.379Z</time>
      </trkpt>
      <trkpt lat="46.17446" lon="-1.16419">
        <ele>53.623182</ele>
        <time>2022-12-19T17:10:59.373Z</time>
      </trkpt>
      <trkpt lat="46.17435" lon="-1.16422">
        <ele>53.636341</ele>
        <time>2022-12-19T17:11:03.374Z</time>
      </trkpt>
      <trkpt lat="46.17432" lon="-1.16436">
        <ele>53.649072</ele>
        <time>2022-12-19T17:11:08.376Z</time>
      </trkpt>
      <trkpt lat="46.17434" lon="-1.1645">
        <ele>53.723249</ele>
        <time>2022-12-19T17:11:13.380Z</time>
      </trkpt>
      <trkpt lat="46.17434" lon="-1.16463">
        <ele>53.928383</ele>
        <time>2022-12-19T17:11:17.378Z</time>
      </trkpt>
      <trkpt lat="46.17436" lon="-1.16479">
        <ele>54.178037</ele>
        <time>2022-12-19T17:11:22.375Z</time>
      </trkpt>
      <trkpt lat="46.17438" lon="-1.16493">
        <ele>54.402869</ele>
        <time>2022-12-19T17:11:26.380Z</time>
      </trkpt>
      <trkpt lat="46.17439" lon="-1.16507">
        <ele>54.62636</ele>
        <time>2022-12-19T17:11:30.367Z</time>
      </trkpt>
      <trkpt lat="46.17441" lon="-1.16521">
        <ele>54.846484</ele>
        <time>2022-12-19T17:11:34.383Z</time>
      </trkpt>
      <trkpt lat="46.17442" lon="-1.16535">
        <ele>55.067679</ele>
        <time>2022-12-19T17:11:38.376Z</time>
      </trkpt>
      <trkpt lat="46.17444" lon="-1.16548">
        <ele>55.278903</ele>
        <time>2022-12-19T17:11:42.373Z</time>
      </trkpt>
      <trkpt lat="46.17444" lon="-1.16561">
        <ele>55.490494</ele>
        <time>2022-12-19T17:11:51.380Z</time>
      </trkpt>
      <trkpt lat="46.17437" lon="-1.1657">
        <ele>55.708909</ele>
        <time>2022-12-19T17:11:56.377Z</time>
      </trkpt>
      <trkpt lat="46.17429" lon="-1.16578">
        <ele>55.932187</ele>
        <time>2022-12-19T17:12:01.370Z</time>
      </trkpt>
      <trkpt lat="46.17421" lon="-1.16586">
        <ele>56.149544</ele>
        <time>2022-12-19T17:12:06.400Z</time>
      </trkpt>
      <trkpt lat="46.17417" lon="-1.16598">
        <ele>56.365619</ele>
        <time>2022-12-19T17:12:11.400Z</time>
      </trkpt>
      <trkpt lat="46.17419" lon="-1.16612">
        <ele>56.586868</ele>
        <time>2022-12-19T17:12:16.388Z</time>
      </trkpt>
      <trkpt lat="46.17418" lon="-1.16627">
        <ele>56.827813</ele>
        <time>2022-12-19T17:12:22.410Z</time>
      </trkpt>
      <trkpt lat="46.17421" lon="-1.1664">
        <ele>57.047094</ele>
        <time>2022-12-19T17:12:27.375Z</time>
      </trkpt>
      <trkpt lat="46.17424" lon="-1.16654">
        <ele>57.269358</ele>
        <time>2022-12-19T17:12:33.376Z</time>
      </trkpt>
      <trkpt lat="46.17422" lon="-1.16668">
        <ele>57.497252</ele>
        <time>2022-12-19T17:12:39.371Z</time>
      </trkpt>
      <trkpt lat="46.17412" lon="-1.16675">
        <ele>57.734076</ele>
        <time>2022-12-19T17:12:45.381Z</time>
      </trkpt>
      <trkpt lat="46.17395" lon="-1.16679">
        <ele>57.763148</ele>
        <time>2022-12-19T17:13:27.384Z</time>
      </trkpt>
      <trkpt lat="46.17386" lon="-1.16673">
        <ele>57.77399</ele>
        <time>2022-12-19T17:13:32.382Z</time>
      </trkpt>
      <trkpt lat="46.17383" lon="-1.16659">
        <ele>57.78516</ele>
        <time>2022-12-19T17:13:37.370Z</time>
      </trkpt>
      <trkpt lat="46.17379" lon="-1.16646">
        <ele>57.795594</ele>
        <time>2022-12-19T17:13:42.404Z</time>
      </trkpt>
      <trkpt lat="46.17381" lon="-1.16632">
        <ele>57.807062</ele>
        <time>2022-12-19T17:13:47.374Z</time>
      </trkpt>
      <trkpt lat="46.17373" lon="-1.1662">
        <ele>57.819414</ele>
        <time>2022-12-19T17:13:53.377Z</time>
      </trkpt>
      <trkpt lat="46.17364" lon="-1.1661">
        <ele>57.83187</ele>
        <time>2022-12-19T17:13:57.394Z</time>
      </trkpt>
      <trkpt lat="46.17355" lon="-1.16601">
        <ele>57.843998</ele>
        <time>2022-12-19T17:14:01.381Z</time>
      </trkpt>
      <trkpt lat="46.17345" lon="-1.16591">
        <ele>57.857303</ele>
        <time>2022-12-19T17:14:05.382Z</time>
      </trkpt>
      <trkpt lat="46.17336" lon="-1.16584">
        <ele>57.868776</ele>
        <time>2022-12-19T17:14:08.388Z</time>
      </trkpt>
      <trkpt lat="46.17326" lon="-1.16577">
        <ele>57.880647</ele>
        <time>2022-12-19T17:14:11.395Z</time>
      </trkpt>
      <trkpt lat="46.17318" lon="-1.16568">
        <ele>57.891705</ele>
        <time>2022-12-19T17:14:14.385Z</time>
      </trkpt>
      <trkpt lat="46.17309" lon="-1.1656">
        <ele>57.903349</ele>
        <time>2022-12-19T17:14:17.371Z</time>
      </trkpt>
      <trkpt lat="46.17301" lon="-1.1655">
        <ele>57.915523</ele>
        <time>2022-12-19T17:14:20.376Z</time>
      </trkpt>
      <trkpt lat="46.17291" lon="-1.16542">
        <ele>57.92757</ele>
        <time>2022-12-19T17:14:23.390Z</time>
      </trkpt>
      <trkpt lat="46.17283" lon="-1.16533">
        <ele>57.938713</ele>
        <time>2022-12-19T17:14:26.368Z</time>
      </trkpt>
      <trkpt lat="46.17276" lon="-1.16526">
        <ele>58.029709</ele>
        <time>2022-12-19T17:14:29.377Z</time>
      </trkpt>
      <trkpt lat="46.17268" lon="-1.16518">
        <ele>58.190565</ele>
        <time>2022-12-19T17:14:32.378Z</time>
      </trkpt>
      <trkpt lat="46.17259" lon="-1.1651">
        <ele>58.356685</ele>
        <time>2022-12-19T17:14:35.366Z</time>
      </trkpt>
      <trkpt lat="46.1725" lon="-1.16501">
        <ele>58.528437</ele>
        <time>2022-12-19T17:14:38.373Z</time>
      </trkpt>
      <trkpt lat="46.17241" lon="-1.16492">
        <ele>58.707022</ele>
        <time>2022-12-19T17:14:41.373Z</time>
      </trkpt>
      <trkpt lat="46.17232" lon="-1.16484">
        <ele>58.877867</ele>
        <time>2022-12-19T17:14:44.370Z</time>
      </trkpt>
      <trkpt lat="46.17224" lon="-1.16476">
        <ele>59.03483</ele>
        <time>2022-12-19T17:14:47.365Z</time>
      </trkpt>
      <trkpt lat="46.17217" lon="-1.16468">
        <ele>59.183867</ele>
        <time>2022-12-19T17:14:50.372Z</time>
      </trkpt>
      <trkpt lat="46.17207" lon="-1.16461">
        <ele>59.363849</ele>
        <time>2022-12-19T17:14:54.378Z</time>
      </trkpt>
      <trkpt lat="46.17198" lon="-1.16455">
        <ele>59.523011</ele>
        <time>2022-12-19T17:14:59.373Z</time>
      </trkpt>
      <trkpt lat="46.17188" lon="-1.1646">
        <ele>59.697832</ele>
        <time>2022-12-19T17:15:06.373Z</time>
      </trkpt>
      <trkpt lat="46.17177" lon="-1.16461">
        <ele>59.880898</ele>
        <time>2022-12-19T17:15:11.379Z</time>
      </trkpt>
      <trkpt lat="46.17168" lon="-1.16471">
        <ele>60.068156</ele>
        <time>2022-12-19T17:15:15.370Z</time>
      </trkpt>
      <trkpt lat="46.17163" lon="-1.16483">
        <ele>60.225527</ele>
        <time>2022-12-19T17:15:18.372Z</time>
      </trkpt>
      <trkpt lat="46.17158" lon="-1.16495">
        <ele>60.383341</ele>
        <time>2022-12-19T17:15:21.375Z</time>
      </trkpt>
      <trkpt lat="46.17152" lon="-1.16508">
        <ele>60.551338</ele>
        <time>2022-12-19T17:15:24.376Z</time>
      </trkpt>
      <trkpt lat="46.17147" lon="-1.16521">
        <ele>60.725024</ele>
        <time>2022-12-19T17:15:27.374Z</time>
      </trkpt>
      <trkpt lat="46.17141" lon="-1.16534">
        <ele>60.867434</ele>
        <time>2022-12-19T17:15:30.377Z</time>
      </trkpt>
      <trkpt lat="46.17134" lon="-1.16548">
        <ele>60.913114</ele>
        <time>2022-12-19T17:15:33.376Z</time>
      </trkpt>
      <trkpt lat="46.17128" lon="-1.1656">
        <ele>60.954289</ele>
        <time>2022-12-19T17:15:36.366Z</time>
      </trkpt>
      <trkpt lat="46.17123" lon="-1.1657">
        <ele>60.99129</ele>
        <time>2022-12-19T17:15:39.369Z</time>
      </trkpt>
      <trkpt lat="46.17117" lon="-1.16583">
        <ele>61.03293</ele>
        <time>2022-12-19T17:15:42.374Z</time>
      </trkpt>
      <trkpt lat="46.17111" lon="-1.16596">
        <ele>61.075873</ele>
        <time>2022-12-19T17:15:45.376Z</time>
      </trkpt>
      <trkpt lat="46.17106" lon="-1.16608">
        <ele>61.116075</ele>
        <time>2022-12-19T17:15:48.374Z</time>
      </trkpt>
      <trkpt lat="46.17099" lon="-1.16618">
        <ele>61.15541</ele>
        <time>2022-12-19T17:15:51.375Z</time>
      </trkpt>
      <trkpt lat="46.17094" lon="-1.16631">
        <ele>61.195274</ele>
        <time>2022-12-19T17:15:54.383Z</time>
      </trkpt>
      <trkpt lat="46.17089" lon="-1.16644">
        <ele>61.236469</ele>
        <time>2022-12-19T17:15:57.380Z</time>
      </trkpt>
      <trkpt lat="46.17084" lon="-1.16656">
        <ele>61.277737</ele>
        <time>2022-12-19T17:16:00.374Z</time>
      </trkpt>
      <trkpt lat="46.17079" lon="-1.1667">
        <ele>61.319221</ele>
        <time>2022-12-19T17:16:03.375Z</time>
      </trkpt>
      <trkpt lat="46.17074" lon="-1.16685">
        <ele>61.366395</ele>
        <time>2022-12-19T17:16:07.377Z</time>
      </trkpt>
      <trkpt lat="46.1707" lon="-1.16699">
        <ele>61.407034</ele>
        <time>2022-12-19T17:16:10.375Z</time>
      </trkpt>
      <trkpt lat="46.17066" lon="-1.16712">
        <ele>61.448443</ele>
        <time>2022-12-19T17:16:13.376Z</time>
      </trkpt>
      <trkpt lat="46.17062" lon="-1.16726">
        <ele>61.49093</ele>
        <time>2022-12-19T17:16:16.381Z</time>
      </trkpt>
      <trkpt lat="46.17058" lon="-1.1674">
        <ele>61.531008</ele>
        <time>2022-12-19T17:16:19.376Z</time>
      </trkpt>
      <trkpt lat="46.17054" lon="-1.16753">
        <ele>61.56977</ele>
        <time>2022-12-19T17:16:22.373Z</time>
      </trkpt>
      <trkpt lat="46.1705" lon="-1.16766">
        <ele>61.642432</ele>
        <time>2022-12-19T17:16:25.374Z</time>
      </trkpt>
      <trkpt lat="46.17046" lon="-1.1678">
        <ele>61.727435</ele>
        <time>2022-12-19T17:16:28.377Z</time>
      </trkpt>
      <trkpt lat="46.17042" lon="-1.16793">
        <ele>61.812745</ele>
        <time>2022-12-19T17:16:31.368Z</time>
      </trkpt>
      <trkpt lat="46.17037" lon="-1.16807">
        <ele>61.897053</ele>
        <time>2022-12-19T17:16:34.376Z</time>
      </trkpt>
      <trkpt lat="46.17032" lon="-1.1682">
        <ele>61.982728</ele>
        <time>2022-12-19T17:16:37.372Z</time>
      </trkpt>
      <trkpt lat="46.17027" lon="-1.16833">
        <ele>62.062178</ele>
        <time>2022-12-19T17:16:40.374Z</time>
      </trkpt>
      <trkpt lat="46.17022" lon="-1.16846">
        <ele>62.147611</ele>
        <time>2022-12-19T17:16:43.378Z</time>
      </trkpt>
      <trkpt lat="46.17018" lon="-1.16861">
        <ele>62.236962</ele>
        <time>2022-12-19T17:16:46.372Z</time>
      </trkpt>
      <trkpt lat="46.17012" lon="-1.16874">
        <ele>62.32475</ele>
        <time>2022-12-19T17:16:49.371Z</time>
      </trkpt>
      <trkpt lat="46.17007" lon="-1.16887">
        <ele>62.409014</ele>
        <time>2022-12-19T17:16:52.370Z</time>
      </trkpt>
      <trkpt lat="46.17002" lon="-1.169">
        <ele>62.495627</ele>
        <time>2022-12-19T17:16:55.367Z</time>
      </trkpt>
      <trkpt lat="46.16996" lon="-1.16913">
        <ele>62.577542</ele>
        <time>2022-12-19T17:16:58.373Z</time>
      </trkpt>
      <trkpt lat="46.16991" lon="-1.16926">
        <ele>62.663109</ele>
        <time>2022-12-19T17:17:01.370Z</time>
      </trkpt>
      <trkpt lat="46.16986" lon="-1.16937">
        <ele>62.736992</ele>
        <time>2022-12-19T17:17:04.381Z</time>
      </trkpt>
      <trkpt lat="46.16981" lon="-1.16951">
        <ele>62.824188</ele>
        <time>2022-12-19T17:17:08.376Z</time>
      </trkpt>
      <trkpt lat="46.16975" lon="-1.16965">
        <ele>62.920857</ele>
        <time>2022-12-19T17:17:12.382Z</time>
      </trkpt>
      <trkpt lat="46.1697" lon="-1.16979">
        <ele>63.008544</ele>
        <time>2022-12-19T17:17:16.377Z</time>
      </trkpt>
      <trkpt lat="46.16965" lon="-1.16993">
        <ele>63.189207</ele>
        <time>2022-12-19T17:17:20.379Z</time>
      </trkpt>
      <trkpt lat="46.1696" lon="-1.17009">
        <ele>63.437988</ele>
        <time>2022-12-19T17:17:24.377Z</time>
      </trkpt>
      <trkpt lat="46.16956" lon="-1.17021">
        <ele>63.628865</ele>
        <time>2022-12-19T17:17:27.370Z</time>
      </trkpt>
      <trkpt lat="46.16952" lon="-1.17034">
        <ele>63.824906</ele>
        <time>2022-12-19T17:17:30.372Z</time>
      </trkpt>
      <trkpt lat="46.16948" lon="-1.17046">
        <ele>64.025281</ele>
        <time>2022-12-19T17:17:33.370Z</time>
      </trkpt>
      <trkpt lat="46.16944" lon="-1.17059">
        <ele>64.232079</ele>
        <time>2022-12-19T17:17:36.375Z</time>
      </trkpt>
      <trkpt lat="46.16939" lon="-1.17073">
        <ele>64.438446</ele>
        <time>2022-12-19T17:17:39.372Z</time>
      </trkpt>
      <trkpt lat="46.16935" lon="-1.17086">
        <ele>64.650172</ele>
        <time>2022-12-19T17:17:42.375Z</time>
      </trkpt>
      <trkpt lat="46.1693" lon="-1.17101">
        <ele>64.888933</ele>
        <time>2022-12-19T17:17:46.369Z</time>
      </trkpt>
      <trkpt lat="46.16927" lon="-1.17114">
        <ele>65.086569</ele>
        <time>2022-12-19T17:17:49.372Z</time>
      </trkpt>
      <trkpt lat="46.16922" lon="-1.17127">
        <ele>65.297685</ele>
        <time>2022-12-19T17:17:52.368Z</time>
      </trkpt>
      <trkpt lat="46.16918" lon="-1.17141">
        <ele>65.515326</ele>
        <time>2022-12-19T17:17:55.373Z</time>
      </trkpt>
      <trkpt lat="46.16914" lon="-1.17154">
        <ele>65.71825</ele>
        <time>2022-12-19T17:17:58.373Z</time>
      </trkpt>
      <trkpt lat="46.16911" lon="-1.17167">
        <ele>65.907017</ele>
        <time>2022-12-19T17:18:01.369Z</time>
      </trkpt>
      <trkpt lat="46.16909" lon="-1.1718">
        <ele>66.104456</ele>
        <time>2022-12-19T17:18:05.380Z</time>
      </trkpt>
      <trkpt lat="46.16907" lon="-1.17196">
        <ele>66.337432</ele>
        <time>2022-12-19T17:18:10.376Z</time>
      </trkpt>
      <trkpt lat="46.169" lon="-1.1721">
        <ele>66.570836</ele>
        <time>2022-12-19T17:18:14.372Z</time>
      </trkpt>
      <trkpt lat="46.16894" lon="-1.17219">
        <ele>66.73877</ele>
        <time>2022-12-19T17:18:17.369Z</time>
      </trkpt>
      <trkpt lat="46.16888" lon="-1.17231">
        <ele>66.725119</ele>
        <time>2022-12-19T17:18:20.375Z</time>
      </trkpt>
      <trkpt lat="46.16883" lon="-1.17245">
        <ele>66.711142</ele>
        <time>2022-12-19T17:18:23.377Z</time>
      </trkpt>
      <trkpt lat="46.16879" lon="-1.1726">
        <ele>66.69678</ele>
        <time>2022-12-19T17:18:26.382Z</time>
      </trkpt>
      <trkpt lat="46.16874" lon="-1.17275">
        <ele>66.682335</ele>
        <time>2022-12-19T17:18:29.368Z</time>
      </trkpt>
      <trkpt lat="46.1687" lon="-1.17288">
        <ele>66.669258</ele>
        <time>2022-12-19T17:18:32.372Z</time>
      </trkpt>
      <trkpt lat="46.16866" lon="-1.173">
        <ele>66.65752</ele>
        <time>2022-12-19T17:18:35.374Z</time>
      </trkpt>
      <trkpt lat="46.16863" lon="-1.17311">
        <ele>66.645836</ele>
        <time>2022-12-19T17:18:38.376Z</time>
      </trkpt>
      <trkpt lat="46.16859" lon="-1.17324">
        <ele>66.63377</ele>
        <time>2022-12-19T17:18:41.374Z</time>
      </trkpt>
      <trkpt lat="46.16855" lon="-1.17336">
        <ele>66.621676</ele>
        <time>2022-12-19T17:18:44.367Z</time>
      </trkpt>
      <trkpt lat="46.16851" lon="-1.17348">
        <ele>66.609362</ele>
        <time>2022-12-19T17:18:47.377Z</time>
      </trkpt>
      <trkpt lat="46.16846" lon="-1.17363">
        <ele>66.594728</ele>
        <time>2022-12-19T17:18:51.372Z</time>
      </trkpt>
      <trkpt lat="46.16842" lon="-1.17379">
        <ele>66.578816</ele>
        <time>2022-12-19T17:18:55.376Z</time>
      </trkpt>
      <trkpt lat="46.16837" lon="-1.17393">
        <ele>66.565467</ele>
        <time>2022-12-19T17:18:58.378Z</time>
      </trkpt>
      <trkpt lat="46.16833" lon="-1.17407">
        <ele>66.551626</ele>
        <time>2022-12-19T17:19:01.382Z</time>
      </trkpt>
      <trkpt lat="46.16829" lon="-1.17422">
        <ele>66.536649</ele>
        <time>2022-12-19T17:19:04.378Z</time>
      </trkpt>
      <trkpt lat="46.16824" lon="-1.17436">
        <ele>66.522234</ele>
        <time>2022-12-19T17:19:07.381Z</time>
      </trkpt>
      <trkpt lat="46.1682" lon="-1.17449">
        <ele>66.509688</ele>
        <time>2022-12-19T17:19:10.397Z</time>
      </trkpt>
      <trkpt lat="46.16816" lon="-1.17464">
        <ele>66.579884</ele>
        <time>2022-12-19T17:19:14.370Z</time>
      </trkpt>
      <trkpt lat="46.16812" lon="-1.17477">
        <ele>66.671775</ele>
        <time>2022-12-19T17:19:17.377Z</time>
      </trkpt>
      <trkpt lat="46.16808" lon="-1.1749">
        <ele>66.765039</ele>
        <time>2022-12-19T17:19:20.372Z</time>
      </trkpt>
      <trkpt lat="46.16803" lon="-1.17503">
        <ele>66.862446</ele>
        <time>2022-12-19T17:19:23.381Z</time>
      </trkpt>
      <trkpt lat="46.16799" lon="-1.17518">
        <ele>66.965156</ele>
        <time>2022-12-19T17:19:26.374Z</time>
      </trkpt>
      <trkpt lat="46.16795" lon="-1.17531">
        <ele>67.059805</ele>
        <time>2022-12-19T17:19:29.374Z</time>
      </trkpt>
      <trkpt lat="46.16791" lon="-1.17543">
        <ele>67.145001</ele>
        <time>2022-12-19T17:19:32.370Z</time>
      </trkpt>
      <trkpt lat="46.16786" lon="-1.17558">
        <ele>67.251448</ele>
        <time>2022-12-19T17:19:36.374Z</time>
      </trkpt>
      <trkpt lat="46.16782" lon="-1.17572">
        <ele>67.354549</ele>
        <time>2022-12-19T17:19:40.374Z</time>
      </trkpt>
      <trkpt lat="46.16778" lon="-1.17585">
        <ele>67.442307</ele>
        <time>2022-12-19T17:19:43.374Z</time>
      </trkpt>
      <trkpt lat="46.16774" lon="-1.17596">
        <ele>67.527901</ele>
        <time>2022-12-19T17:19:46.373Z</time>
      </trkpt>
      <trkpt lat="46.16771" lon="-1.17609">
        <ele>67.613911</ele>
        <time>2022-12-19T17:19:51.374Z</time>
      </trkpt>
      <trkpt lat="46.16767" lon="-1.17623">
        <ele>67.709256</ele>
        <time>2022-12-19T17:19:55.374Z</time>
      </trkpt>
      <trkpt lat="46.16763" lon="-1.17636">
        <ele>67.805274</ele>
        <time>2022-12-19T17:19:58.376Z</time>
      </trkpt>
      <trkpt lat="46.16758" lon="-1.1765">
        <ele>67.906426</ele>
        <time>2022-12-19T17:20:01.370Z</time>
      </trkpt>
      <trkpt lat="46.16754" lon="-1.17663">
        <ele>68.001669</ele>
        <time>2022-12-19T17:20:04.370Z</time>
      </trkpt>
      <trkpt lat="46.1675" lon="-1.17675">
        <ele>68.08826</ele>
        <time>2022-12-19T17:20:07.374Z</time>
      </trkpt>
      <trkpt lat="46.16745" lon="-1.1769">
        <ele>68.194225</ele>
        <time>2022-12-19T17:20:11.376Z</time>
      </trkpt>
      <trkpt lat="46.16741" lon="-1.17703">
        <ele>68.194225</ele>
        <time>2022-12-19T17:20:14.370Z</time>
      </trkpt>
      <trkpt lat="46.16737" lon="-1.17715">
        <ele>68.194225</ele>
        <time>2022-12-19T17:20:17.383Z</time>
      </trkpt>
      <trkpt lat="46.16732" lon="-1.1773">
        <ele>68.194225</ele>
        <time>2022-12-19T17:20:21.382Z</time>
      </trkpt>
      <trkpt lat="46.16727" lon="-1.17744">
        <ele>68.194225</ele>
        <time>2022-12-19T17:20:25.372Z</time>
      </trkpt>
      <trkpt lat="46.16725" lon="-1.17759">
        <ele>68.194225</ele>
        <time>2022-12-19T17:20:29.367Z</time>
      </trkpt>
      <trkpt lat="46.16727" lon="-1.17776">
        <ele>68.194225</ele>
        <time>2022-12-19T17:20:33.370Z</time>
      </trkpt>
      <trkpt lat="46.16729" lon="-1.1779">
        <ele>68.194225</ele>
        <time>2022-12-19T17:20:36.375Z</time>
      </trkpt>
      <trkpt lat="46.16731" lon="-1.17803">
        <ele>68.194225</ele>
        <time>2022-12-19T17:20:39.366Z</time>
      </trkpt>
      <trkpt lat="46.16732" lon="-1.17818">
        <ele>68.194225</ele>
        <time>2022-12-19T17:20:42.372Z</time>
      </trkpt>
      <trkpt lat="46.16732" lon="-1.17832">
        <ele>68.194225</ele>
        <time>2022-12-19T17:20:45.376Z</time>
      </trkpt>
      <trkpt lat="46.16732" lon="-1.17846">
        <ele>68.194225</ele>
        <time>2022-12-19T17:20:48.376Z</time>
      </trkpt>
      <trkpt lat="46.16735" lon="-1.1786">
        <ele>68.194225</ele>
        <time>2022-12-19T17:20:52.377Z</time>
      </trkpt>
      <trkpt lat="46.16732" lon="-1.17872">
        <ele>68.194225</ele>
        <time>2022-12-19T17:20:56.373Z</time>
      </trkpt>
      <trkpt lat="46.1672" lon="-1.17874">
        <ele>68.194225</ele>
        <time>2022-12-19T17:21:00.373Z</time>
      </trkpt>
      <trkpt lat="46.16709" lon="-1.17873">
        <ele>68.194225</ele>
        <time>2022-12-19T17:21:04.376Z</time>
      </trkpt>
      <trkpt lat="46.16699" lon="-1.1787">
        <ele>68.194225</ele>
        <time>2022-12-19T17:21:08.372Z</time>
      </trkpt>
      <trkpt lat="46.16689" lon="-1.17869">
        <ele>68.194225</ele>
        <time>2022-12-19T17:21:12.374Z</time>
      </trkpt>
      <trkpt lat="46.16681" lon="-1.17866">
        <ele>68.194225</ele>
        <time>2022-12-19T17:22:52.355Z</time>
        <extensions>
          <visugpx:TrkExtension xmlns:visugpx="https://www.visugpx.com/editgpx/">
            <visugpx:node>1</visugpx:node>
            </visugpx:TrkExtension>
        </extensions>
      </trkpt>
    </trkseg>
  </trk>
  <trk>
    <name><![CDATA[La Rochelle - St-Agnant]]></name>
    <extensions>
      <line xmlns="http://www.topografix.com/GPX/gpx_style/0/2">
        <color>ff0000</color>
        <width>4</width>
      </line>
    </extensions>
    <trkseg>
      <trkpt lat="46.16615" lon="-1.17898">
        <ele>63.543603</ele>
        <time>2022-12-21T09:55:16.324Z</time>
      </trkpt>
      <trkpt lat="46.1661" lon="-1.17879">
        <ele>63.543603</ele>
        <time>2022-12-21T09:56:16.309Z</time>
      </trkpt>
      <trkpt lat="46.16601" lon="-1.17881">
        <ele>63.543603</ele>
        <time>2022-12-21T09:56:27.327Z</time>
      </trkpt>
      <trkpt lat="46.16592" lon="-1.17888">
        <ele>63.543603</ele>
        <time>2022-12-21T09:56:39.306Z</time>
      </trkpt>
      <trkpt lat="46.16587" lon="-1.17901">
        <ele>63.543603</ele>
        <time>2022-12-21T09:57:00.313Z</time>
      </trkpt>
      <trkpt lat="46.16586" lon="-1.17914">
        <ele>63.543603</ele>
        <time>2022-12-21T09:57:05.307Z</time>
      </trkpt>
      <trkpt lat="46.16577" lon="-1.17911">
        <ele>63.543603</ele>
        <time>2022-12-21T09:57:10.315Z</time>
      </trkpt>
      <trkpt lat="46.16575" lon="-1.17895">
        <ele>63.543603</ele>
        <time>2022-12-21T09:57:15.328Z</time>
      </trkpt>
      <trkpt lat="46.16574" lon="-1.1788">
        <ele>63.543603</ele>
        <time>2022-12-21T09:57:19.338Z</time>
      </trkpt>
      <trkpt lat="46.16571" lon="-1.17863">
        <ele>63.553585</ele>
        <time>2022-12-21T09:57:23.330Z</time>
      </trkpt>
      <trkpt lat="46.16567" lon="-1.17851">
        <ele>63.568224</ele>
        <time>2022-12-21T09:57:27.315Z</time>
      </trkpt>
      <trkpt lat="46.16565" lon="-1.17837">
        <ele>63.584725</ele>
        <time>2022-12-21T09:57:31.312Z</time>
      </trkpt>
      <trkpt lat="46.16562" lon="-1.17825">
        <ele>63.599406</ele>
        <time>2022-12-21T09:57:34.320Z</time>
      </trkpt>
      <trkpt lat="46.16558" lon="-1.17808">
        <ele>63.618326</ele>
        <time>2022-12-21T09:57:38.308Z</time>
      </trkpt>
      <trkpt lat="46.16556" lon="-1.17792">
        <ele>63.636718</ele>
        <time>2022-12-21T09:57:42.321Z</time>
      </trkpt>
      <trkpt lat="46.16554" lon="-1.17775">
        <ele>63.655881</ele>
        <time>2022-12-21T09:57:46.317Z</time>
      </trkpt>
      <trkpt lat="46.16553" lon="-1.17761">
        <ele>63.672001</ele>
        <time>2022-12-21T09:57:49.325Z</time>
      </trkpt>
      <trkpt lat="46.16551" lon="-1.17744">
        <ele>63.690806</ele>
        <time>2022-12-21T09:57:53.312Z</time>
      </trkpt>
      <trkpt lat="46.16549" lon="-1.17731">
        <ele>63.705812</ele>
        <time>2022-12-21T09:57:56.311Z</time>
      </trkpt>
      <trkpt lat="46.16547" lon="-1.17716">
        <ele>63.723497</ele>
        <time>2022-12-21T09:57:59.334Z</time>
      </trkpt>
      <trkpt lat="46.16546" lon="-1.17703">
        <ele>63.738227</ele>
        <time>2022-12-21T09:58:02.313Z</time>
      </trkpt>
      <trkpt lat="46.16544" lon="-1.17688">
        <ele>63.754611</ele>
        <time>2022-12-21T09:58:05.335Z</time>
      </trkpt>
      <trkpt lat="46.16541" lon="-1.17675">
        <ele>63.769608</ele>
        <time>2022-12-21T09:58:08.318Z</time>
      </trkpt>
      <trkpt lat="46.1654" lon="-1.17662">
        <ele>63.784178</ele>
        <time>2022-12-21T09:58:11.341Z</time>
      </trkpt>
      <trkpt lat="46.16538" lon="-1.17648">
        <ele>63.800079</ele>
        <time>2022-12-21T09:58:14.324Z</time>
      </trkpt>
      <trkpt lat="46.16535" lon="-1.17635">
        <ele>63.815463</ele>
        <time>2022-12-21T09:58:17.334Z</time>
      </trkpt>
      <trkpt lat="46.16528" lon="-1.17624">
        <ele>63.832734</ele>
        <time>2022-12-21T09:58:21.324Z</time>
      </trkpt>
      <trkpt lat="46.16519" lon="-1.17624">
        <ele>63.877157</ele>
        <time>2022-12-21T09:58:24.312Z</time>
      </trkpt>
      <trkpt lat="46.16509" lon="-1.17626">
        <ele>63.925384</ele>
        <time>2022-12-21T09:58:27.321Z</time>
      </trkpt>
      <trkpt lat="46.16499" lon="-1.17628">
        <ele>63.978492</ele>
        <time>2022-12-21T09:58:30.315Z</time>
      </trkpt>
      <trkpt lat="46.16488" lon="-1.17629">
        <ele>64.031567</ele>
        <time>2022-12-21T09:58:33.323Z</time>
      </trkpt>
      <trkpt lat="46.16478" lon="-1.17632">
        <ele>64.083702</ele>
        <time>2022-12-21T09:58:36.309Z</time>
      </trkpt>
      <trkpt lat="46.16466" lon="-1.17634">
        <ele>64.14334</ele>
        <time>2022-12-21T09:58:40.321Z</time>
      </trkpt>
      <trkpt lat="46.16456" lon="-1.17637">
        <ele>64.194308</ele>
        <time>2022-12-21T09:58:43.336Z</time>
      </trkpt>
      <trkpt lat="46.16447" lon="-1.17639">
        <ele>64.244098</ele>
        <time>2022-12-21T09:58:46.339Z</time>
      </trkpt>
      <trkpt lat="46.16438" lon="-1.17643">
        <ele>64.290669</ele>
        <time>2022-12-21T09:58:49.319Z</time>
      </trkpt>
      <trkpt lat="46.16427" lon="-1.17646">
        <ele>64.34287</ele>
        <time>2022-12-21T09:58:53.314Z</time>
      </trkpt>
      <trkpt lat="46.1642" lon="-1.17636">
        <ele>64.394969</ele>
        <time>2022-12-21T09:58:58.341Z</time>
      </trkpt>
      <trkpt lat="46.16418" lon="-1.17622">
        <ele>64.442895</ele>
        <time>2022-12-21T09:59:02.308Z</time>
      </trkpt>
      <trkpt lat="46.16416" lon="-1.17609">
        <ele>64.488752</ele>
        <time>2022-12-21T09:59:07.316Z</time>
      </trkpt>
      <trkpt lat="46.16414" lon="-1.17595">
        <ele>64.539512</ele>
        <time>2022-12-21T09:59:11.311Z</time>
      </trkpt>
      <trkpt lat="46.16413" lon="-1.17578">
        <ele>64.600687</ele>
        <time>2022-12-21T09:59:15.314Z</time>
      </trkpt>
      <trkpt lat="46.16412" lon="-1.17563">
        <ele>64.651184</ele>
        <time>2022-12-21T09:59:18.329Z</time>
      </trkpt>
      <trkpt lat="46.1641" lon="-1.17548">
        <ele>64.704598</ele>
        <time>2022-12-21T09:59:21.319Z</time>
      </trkpt>
      <trkpt lat="46.16408" lon="-1.17533">
        <ele>64.656287</ele>
        <time>2022-12-21T09:59:24.312Z</time>
      </trkpt>
      <trkpt lat="46.16406" lon="-1.1752">
        <ele>64.438345</ele>
        <time>2022-12-21T09:59:27.305Z</time>
      </trkpt>
      <trkpt lat="46.16405" lon="-1.17503">
        <ele>64.166324</ele>
        <time>2022-12-21T09:59:31.311Z</time>
      </trkpt>
      <trkpt lat="46.16404" lon="-1.1749">
        <ele>63.951026</ele>
        <time>2022-12-21T09:59:34.317Z</time>
      </trkpt>
      <trkpt lat="46.16403" lon="-1.17475">
        <ele>63.711925</ele>
        <time>2022-12-21T09:59:37.316Z</time>
      </trkpt>
      <trkpt lat="46.16402" lon="-1.17461">
        <ele>63.470936</ele>
        <time>2022-12-21T09:59:40.323Z</time>
      </trkpt>
      <trkpt lat="46.164" lon="-1.17446">
        <ele>63.230191</ele>
        <time>2022-12-21T09:59:43.334Z</time>
      </trkpt>
      <trkpt lat="46.164" lon="-1.17432">
        <ele>63.009896</ele>
        <time>2022-12-21T09:59:46.338Z</time>
      </trkpt>
      <trkpt lat="46.16398" lon="-1.17419">
        <ele>62.789724</ele>
        <time>2022-12-21T09:59:49.317Z</time>
      </trkpt>
      <trkpt lat="46.16397" lon="-1.17404">
        <ele>62.552898</ele>
        <time>2022-12-21T09:59:52.330Z</time>
      </trkpt>
      <trkpt lat="46.16395" lon="-1.17388">
        <ele>62.283078</ele>
        <time>2022-12-21T09:59:55.328Z</time>
      </trkpt>
      <trkpt lat="46.16393" lon="-1.17374">
        <ele>62.049447</ele>
        <time>2022-12-21T09:59:58.314Z</time>
      </trkpt>
      <trkpt lat="46.16392" lon="-1.17356">
        <ele>61.77071</ele>
        <time>2022-12-21T10:00:02.321Z</time>
      </trkpt>
      <trkpt lat="46.16391" lon="-1.17341">
        <ele>61.515558</ele>
        <time>2022-12-21T10:00:05.314Z</time>
      </trkpt>
      <trkpt lat="46.16389" lon="-1.17324">
        <ele>61.235799</ele>
        <time>2022-12-21T10:00:08.319Z</time>
      </trkpt>
      <trkpt lat="46.16387" lon="-1.17307">
        <ele>60.957649</ele>
        <time>2022-12-21T10:00:11.319Z</time>
      </trkpt>
      <trkpt lat="46.16386" lon="-1.17289">
        <ele>60.670906</ele>
        <time>2022-12-21T10:00:14.317Z</time>
      </trkpt>
      <trkpt lat="46.16384" lon="-1.17271">
        <ele>60.290708</ele>
        <time>2022-12-21T10:00:17.313Z</time>
      </trkpt>
      <trkpt lat="46.16382" lon="-1.17254">
        <ele>59.859523</ele>
        <time>2022-12-21T10:00:20.313Z</time>
      </trkpt>
      <trkpt lat="46.1638" lon="-1.17238">
        <ele>59.442766</ele>
        <time>2022-12-21T10:00:23.329Z</time>
      </trkpt>
      <trkpt lat="46.1638" lon="-1.1722">
        <ele>59.004739</ele>
        <time>2022-12-21T10:00:26.340Z</time>
      </trkpt>
      <trkpt lat="46.16377" lon="-1.17202">
        <ele>58.553338</ele>
        <time>2022-12-21T10:00:29.313Z</time>
      </trkpt>
      <trkpt lat="46.16375" lon="-1.17184">
        <ele>58.085995</ele>
        <time>2022-12-21T10:00:32.316Z</time>
      </trkpt>
      <trkpt lat="46.16373" lon="-1.17165">
        <ele>57.61014</ele>
        <time>2022-12-21T10:00:35.330Z</time>
      </trkpt>
      <trkpt lat="46.16371" lon="-1.17146">
        <ele>57.11644</ele>
        <time>2022-12-21T10:00:38.317Z</time>
      </trkpt>
      <trkpt lat="46.16369" lon="-1.17129">
        <ele>56.684283</ele>
        <time>2022-12-21T10:00:41.317Z</time>
      </trkpt>
      <trkpt lat="46.16368" lon="-1.17115">
        <ele>56.332587</ele>
        <time>2022-12-21T10:00:44.338Z</time>
      </trkpt>
      <trkpt lat="46.16367" lon="-1.17099">
        <ele>55.951666</ele>
        <time>2022-12-21T10:00:47.317Z</time>
      </trkpt>
      <trkpt lat="46.16366" lon="-1.17083">
        <ele>55.531729</ele>
        <time>2022-12-21T10:00:50.316Z</time>
      </trkpt>
      <trkpt lat="46.16364" lon="-1.17065">
        <ele>55.07865</ele>
        <time>2022-12-21T10:00:53.314Z</time>
      </trkpt>
      <trkpt lat="46.16362" lon="-1.17052">
        <ele>54.749089</ele>
        <time>2022-12-21T10:00:55.317Z</time>
      </trkpt>
      <trkpt lat="46.1636" lon="-1.17038">
        <ele>54.388199</ele>
        <time>2022-12-21T10:00:57.329Z</time>
      </trkpt>
      <trkpt lat="46.16359" lon="-1.17024">
        <ele>54.05096</ele>
        <time>2022-12-21T10:00:59.341Z</time>
      </trkpt>
      <trkpt lat="46.16357" lon="-1.17009">
        <ele>53.986425</ele>
        <time>2022-12-21T10:01:01.338Z</time>
      </trkpt>
      <trkpt lat="46.16356" lon="-1.16994">
        <ele>53.919494</ele>
        <time>2022-12-21T10:01:03.309Z</time>
      </trkpt>
      <trkpt lat="46.16354" lon="-1.16978">
        <ele>53.853148</ele>
        <time>2022-12-21T10:01:05.329Z</time>
      </trkpt>
      <trkpt lat="46.16353" lon="-1.16965">
        <ele>53.796184</ele>
        <time>2022-12-21T10:01:07.317Z</time>
      </trkpt>
      <trkpt lat="46.16351" lon="-1.16949">
        <ele>53.722886</ele>
        <time>2022-12-21T10:01:10.307Z</time>
      </trkpt>
      <trkpt lat="46.1635" lon="-1.16934">
        <ele>53.659823</ele>
        <time>2022-12-21T10:01:13.312Z</time>
      </trkpt>
      <trkpt lat="46.16348" lon="-1.1692">
        <ele>53.597001</ele>
        <time>2022-12-21T10:01:16.304Z</time>
      </trkpt>
      <trkpt lat="46.16347" lon="-1.16904">
        <ele>53.526892</ele>
        <time>2022-12-21T10:01:19.318Z</time>
      </trkpt>
      <trkpt lat="46.16345" lon="-1.16887">
        <ele>53.452308</ele>
        <time>2022-12-21T10:01:22.323Z</time>
      </trkpt>
      <trkpt lat="46.16343" lon="-1.1687">
        <ele>53.377816</ele>
        <time>2022-12-21T10:01:25.310Z</time>
      </trkpt>
      <trkpt lat="46.16341" lon="-1.16853">
        <ele>53.302552</ele>
        <time>2022-12-21T10:01:28.307Z</time>
      </trkpt>
      <trkpt lat="46.1634" lon="-1.16836">
        <ele>53.229089</ele>
        <time>2022-12-21T10:01:31.321Z</time>
      </trkpt>
      <trkpt lat="46.16338" lon="-1.16819">
        <ele>53.155456</ele>
        <time>2022-12-21T10:01:34.331Z</time>
      </trkpt>
      <trkpt lat="46.16337" lon="-1.16803">
        <ele>53.083629</ele>
        <time>2022-12-21T10:01:37.314Z</time>
      </trkpt>
      <trkpt lat="46.16335" lon="-1.16789">
        <ele>53.021022</ele>
        <time>2022-12-21T10:01:40.323Z</time>
      </trkpt>
      <trkpt lat="46.16333" lon="-1.16773">
        <ele>52.951002</ele>
        <time>2022-12-21T10:01:44.320Z</time>
      </trkpt>
      <trkpt lat="46.16332" lon="-1.16755">
        <ele>52.833367</ele>
        <time>2022-12-21T10:01:48.309Z</time>
      </trkpt>
      <trkpt lat="46.16331" lon="-1.1674">
        <ele>52.71995</ele>
        <time>2022-12-21T10:01:51.315Z</time>
      </trkpt>
      <trkpt lat="46.1633" lon="-1.16725">
        <ele>52.604041</ele>
        <time>2022-12-21T10:01:54.322Z</time>
      </trkpt>
      <trkpt lat="46.16328" lon="-1.1671">
        <ele>52.487427</ele>
        <time>2022-12-21T10:01:57.323Z</time>
      </trkpt>
      <trkpt lat="46.16327" lon="-1.16695">
        <ele>52.367951</ele>
        <time>2022-12-21T10:02:00.314Z</time>
      </trkpt>
      <trkpt lat="46.16325" lon="-1.16679">
        <ele>52.247109</ele>
        <time>2022-12-21T10:02:03.325Z</time>
      </trkpt>
      <trkpt lat="46.16323" lon="-1.16664">
        <ele>52.133494</ele>
        <time>2022-12-21T10:02:07.315Z</time>
      </trkpt>
      <trkpt lat="46.16322" lon="-1.1665">
        <ele>52.019897</ele>
        <time>2022-12-21T10:02:12.324Z</time>
      </trkpt>
      <trkpt lat="46.1632" lon="-1.16633">
        <ele>51.892961</ele>
        <time>2022-12-21T10:02:16.316Z</time>
      </trkpt>
      <trkpt lat="46.16319" lon="-1.16616">
        <ele>51.762716</ele>
        <time>2022-12-21T10:02:20.310Z</time>
      </trkpt>
      <trkpt lat="46.16317" lon="-1.16602">
        <ele>51.652888</ele>
        <time>2022-12-21T10:02:24.317Z</time>
      </trkpt>
      <trkpt lat="46.16316" lon="-1.16587">
        <ele>51.53568</ele>
        <time>2022-12-21T10:02:28.310Z</time>
      </trkpt>
      <trkpt lat="46.16314" lon="-1.16574">
        <ele>51.436165</ele>
        <time>2022-12-21T10:02:31.315Z</time>
      </trkpt>
      <trkpt lat="46.16312" lon="-1.16561">
        <ele>51.331214</ele>
        <time>2022-12-21T10:02:34.332Z</time>
      </trkpt>
      <trkpt lat="46.16311" lon="-1.16544">
        <ele>51.206535</ele>
        <time>2022-12-21T10:02:38.339Z</time>
      </trkpt>
      <trkpt lat="46.16309" lon="-1.16531">
        <ele>51.099897</ele>
        <time>2022-12-21T10:02:42.340Z</time>
      </trkpt>
      <trkpt lat="46.16301" lon="-1.16521">
        <ele>50.989595</ele>
        <time>2022-12-21T10:02:47.311Z</time>
      </trkpt>
      <trkpt lat="46.16292" lon="-1.16523">
        <ele>50.85443</ele>
        <time>2022-12-21T10:02:50.328Z</time>
      </trkpt>
      <trkpt lat="46.16281" lon="-1.16526">
        <ele>50.677874</ele>
        <time>2022-12-21T10:02:53.339Z</time>
      </trkpt>
      <trkpt lat="46.16269" lon="-1.16529">
        <ele>50.480918</ele>
        <time>2022-12-21T10:02:56.309Z</time>
      </trkpt>
      <trkpt lat="46.16257" lon="-1.1653">
        <ele>50.282443</ele>
        <time>2022-12-21T10:02:59.314Z</time>
      </trkpt>
      <trkpt lat="46.16244" lon="-1.16532">
        <ele>50.077317</ele>
        <time>2022-12-21T10:03:02.324Z</time>
      </trkpt>
      <trkpt lat="46.16232" lon="-1.16534">
        <ele>49.87149</ele>
        <time>2022-12-21T10:03:05.329Z</time>
      </trkpt>
      <trkpt lat="46.16219" lon="-1.16536">
        <ele>49.668743</ele>
        <time>2022-12-21T10:03:08.333Z</time>
      </trkpt>
      <trkpt lat="46.16206" lon="-1.16538">
        <ele>49.455538</ele>
        <time>2022-12-21T10:03:11.311Z</time>
      </trkpt>
      <trkpt lat="46.16193" lon="-1.1654">
        <ele>49.24327</ele>
        <time>2022-12-21T10:03:14.316Z</time>
      </trkpt>
      <trkpt lat="46.16181" lon="-1.16542">
        <ele>49.035965</ele>
        <time>2022-12-21T10:03:17.311Z</time>
      </trkpt>
      <trkpt lat="46.16168" lon="-1.16544">
        <ele>48.823824</ele>
        <time>2022-12-21T10:03:20.309Z</time>
      </trkpt>
      <trkpt lat="46.16155" lon="-1.16546">
        <ele>48.623091</ele>
        <time>2022-12-21T10:03:23.319Z</time>
      </trkpt>
      <trkpt lat="46.16143" lon="-1.16548">
        <ele>48.424092</ele>
        <time>2022-12-21T10:03:26.307Z</time>
      </trkpt>
      <trkpt lat="46.16131" lon="-1.1655">
        <ele>48.231988</ele>
        <time>2022-12-21T10:03:29.309Z</time>
      </trkpt>
      <trkpt lat="46.1612" lon="-1.16552">
        <ele>48.040644</ele>
        <time>2022-12-21T10:03:32.315Z</time>
      </trkpt>
      <trkpt lat="46.16107" lon="-1.16554">
        <ele>47.998079</ele>
        <time>2022-12-21T10:03:35.328Z</time>
      </trkpt>
      <trkpt lat="46.16096" lon="-1.16556">
        <ele>47.965789</ele>
        <time>2022-12-21T10:03:38.308Z</time>
      </trkpt>
      <trkpt lat="46.16083" lon="-1.16559">
        <ele>47.931823</ele>
        <time>2022-12-21T10:03:41.316Z</time>
      </trkpt>
      <trkpt lat="46.16072" lon="-1.16561">
        <ele>47.900648</ele>
        <time>2022-12-21T10:03:44.323Z</time>
      </trkpt>
      <trkpt lat="46.16061" lon="-1.16562">
        <ele>47.870993</ele>
        <time>2022-12-21T10:03:47.315Z</time>
      </trkpt>
      <trkpt lat="46.1605" lon="-1.16564">
        <ele>47.841709</ele>
        <time>2022-12-21T10:03:50.334Z</time>
      </trkpt>
      <trkpt lat="46.16039" lon="-1.16565">
        <ele>47.811725</ele>
        <time>2022-12-21T10:03:53.317Z</time>
      </trkpt>
      <trkpt lat="46.16028" lon="-1.16568">
        <ele>47.783163</ele>
        <time>2022-12-21T10:03:56.324Z</time>
      </trkpt>
      <trkpt lat="46.16019" lon="-1.16568">
        <ele>47.757871</ele>
        <time>2022-12-21T10:03:59.320Z</time>
      </trkpt>
      <trkpt lat="46.16008" lon="-1.16569">
        <ele>47.728456</ele>
        <time>2022-12-21T10:04:03.317Z</time>
      </trkpt>
      <trkpt lat="46.15999" lon="-1.16572">
        <ele>47.702827</ele>
        <time>2022-12-21T10:04:07.318Z</time>
      </trkpt>
      <trkpt lat="46.15989" lon="-1.16576">
        <ele>47.676574</ele>
        <time>2022-12-21T10:04:12.320Z</time>
      </trkpt>
      <trkpt lat="46.1598" lon="-1.16577">
        <ele>47.651786</ele>
        <time>2022-12-21T10:04:17.321Z</time>
      </trkpt>
      <trkpt lat="46.15971" lon="-1.16572">
        <ele>47.62497</ele>
        <time>2022-12-21T10:04:25.311Z</time>
      </trkpt>
      <trkpt lat="46.15965" lon="-1.1656">
        <ele>47.598285</ele>
        <time>2022-12-21T10:04:29.311Z</time>
      </trkpt>
      <trkpt lat="46.15963" lon="-1.16546">
        <ele>47.571054</ele>
        <time>2022-12-21T10:04:32.306Z</time>
      </trkpt>
      <trkpt lat="46.15961" lon="-1.16531">
        <ele>47.553695</ele>
        <time>2022-12-21T10:04:35.317Z</time>
      </trkpt>
      <trkpt lat="46.15958" lon="-1.16515">
        <ele>47.638759</ele>
        <time>2022-12-21T10:04:38.326Z</time>
      </trkpt>
      <trkpt lat="46.15955" lon="-1.165">
        <ele>47.724983</ele>
        <time>2022-12-21T10:04:41.328Z</time>
      </trkpt>
      <trkpt lat="46.15953" lon="-1.16484">
        <ele>47.810736</ele>
        <time>2022-12-21T10:04:44.313Z</time>
      </trkpt>
      <trkpt lat="46.15951" lon="-1.16469">
        <ele>47.894007</ele>
        <time>2022-12-21T10:04:47.337Z</time>
      </trkpt>
      <trkpt lat="46.15948" lon="-1.16453">
        <ele>47.978863</ele>
        <time>2022-12-21T10:04:50.321Z</time>
      </trkpt>
      <trkpt lat="46.15946" lon="-1.16438">
        <ele>48.062834</ele>
        <time>2022-12-21T10:04:53.331Z</time>
      </trkpt>
      <trkpt lat="46.15944" lon="-1.16425">
        <ele>48.133834</ele>
        <time>2022-12-21T10:04:56.326Z</time>
      </trkpt>
      <trkpt lat="46.15941" lon="-1.16409">
        <ele>48.218322</ele>
        <time>2022-12-21T10:05:00.321Z</time>
      </trkpt>
      <trkpt lat="46.15939" lon="-1.16396">
        <ele>48.292949</ele>
        <time>2022-12-21T10:05:03.328Z</time>
      </trkpt>
      <trkpt lat="46.15937" lon="-1.1638">
        <ele>48.379167</ele>
        <time>2022-12-21T10:05:06.318Z</time>
      </trkpt>
      <trkpt lat="46.15934" lon="-1.16363">
        <ele>48.470233</ele>
        <time>2022-12-21T10:05:09.341Z</time>
      </trkpt>
      <trkpt lat="46.15932" lon="-1.16348">
        <ele>48.550987</ele>
        <time>2022-12-21T10:05:12.327Z</time>
      </trkpt>
      <trkpt lat="46.1593" lon="-1.16334">
        <ele>48.628382</ele>
        <time>2022-12-21T10:05:15.320Z</time>
      </trkpt>
      <trkpt lat="46.15928" lon="-1.16319">
        <ele>48.711373</ele>
        <time>2022-12-21T10:05:18.348Z</time>
      </trkpt>
      <trkpt lat="46.15925" lon="-1.16304">
        <ele>48.794126</ele>
        <time>2022-12-21T10:05:21.312Z</time>
      </trkpt>
      <trkpt lat="46.15924" lon="-1.16289">
        <ele>48.871462</ele>
        <time>2022-12-21T10:05:24.318Z</time>
      </trkpt>
      <trkpt lat="46.15922" lon="-1.16276">
        <ele>48.96851</ele>
        <time>2022-12-21T10:05:27.320Z</time>
      </trkpt>
      <trkpt lat="46.15921" lon="-1.16262">
        <ele>49.190319</ele>
        <time>2022-12-21T10:05:30.324Z</time>
      </trkpt>
      <trkpt lat="46.15918" lon="-1.16248">
        <ele>49.418394</ele>
        <time>2022-12-21T10:05:33.320Z</time>
      </trkpt>
      <trkpt lat="46.15915" lon="-1.16234">
        <ele>49.657548</ele>
        <time>2022-12-21T10:05:36.314Z</time>
      </trkpt>
      <trkpt lat="46.15913" lon="-1.1622">
        <ele>49.885086</ele>
        <time>2022-12-21T10:05:39.331Z</time>
      </trkpt>
      <trkpt lat="46.1591" lon="-1.16207">
        <ele>50.096683</ele>
        <time>2022-12-21T10:05:42.338Z</time>
      </trkpt>
      <trkpt lat="46.15908" lon="-1.16193">
        <ele>50.333463</ele>
        <time>2022-12-21T10:05:45.327Z</time>
      </trkpt>
      <trkpt lat="46.15905" lon="-1.16179">
        <ele>50.555979</ele>
        <time>2022-12-21T10:05:48.315Z</time>
      </trkpt>
      <trkpt lat="46.15903" lon="-1.16166">
        <ele>50.773243</ele>
        <time>2022-12-21T10:05:51.321Z</time>
      </trkpt>
      <trkpt lat="46.15901" lon="-1.16151">
        <ele>51.0147</ele>
        <time>2022-12-21T10:05:54.343Z</time>
      </trkpt>
      <trkpt lat="46.15898" lon="-1.16134">
        <ele>51.285384</ele>
        <time>2022-12-21T10:05:57.319Z</time>
      </trkpt>
      <trkpt lat="46.15895" lon="-1.16118">
        <ele>51.541762</ele>
        <time>2022-12-21T10:06:00.336Z</time>
      </trkpt>
      <trkpt lat="46.15893" lon="-1.16104">
        <ele>51.778047</ele>
        <time>2022-12-21T10:06:03.322Z</time>
      </trkpt>
      <trkpt lat="46.1589" lon="-1.16088">
        <ele>52.026643</ele>
        <time>2022-12-21T10:06:06.313Z</time>
      </trkpt>
      <trkpt lat="46.15888" lon="-1.16073">
        <ele>52.281503</ele>
        <time>2022-12-21T10:06:09.315Z</time>
      </trkpt>
      <trkpt lat="46.15887" lon="-1.16058">
        <ele>52.520993</ele>
        <time>2022-12-21T10:06:12.338Z</time>
      </trkpt>
      <trkpt lat="46.15885" lon="-1.16043">
        <ele>52.752954</ele>
        <time>2022-12-21T10:06:15.315Z</time>
      </trkpt>
      <trkpt lat="46.15882" lon="-1.1603">
        <ele>52.964584</ele>
        <time>2022-12-21T10:06:18.330Z</time>
      </trkpt>
      <trkpt lat="46.15881" lon="-1.16015">
        <ele>53.169426</ele>
        <time>2022-12-21T10:06:22.321Z</time>
      </trkpt>
      <trkpt lat="46.15878" lon="-1.16003">
        <ele>53.330876</ele>
        <time>2022-12-21T10:06:25.332Z</time>
      </trkpt>
      <trkpt lat="46.15876" lon="-1.15989">
        <ele>53.504294</ele>
        <time>2022-12-21T10:06:28.338Z</time>
      </trkpt>
      <trkpt lat="46.15874" lon="-1.15974">
        <ele>53.682646</ele>
        <time>2022-12-21T10:06:31.321Z</time>
      </trkpt>
      <trkpt lat="46.15872" lon="-1.1596">
        <ele>53.868658</ele>
        <time>2022-12-21T10:06:34.337Z</time>
      </trkpt>
      <trkpt lat="46.15869" lon="-1.15944">
        <ele>54.058119</ele>
        <time>2022-12-21T10:06:37.319Z</time>
      </trkpt>
      <trkpt lat="46.15867" lon="-1.15928">
        <ele>54.255947</ele>
        <time>2022-12-21T10:06:40.323Z</time>
      </trkpt>
      <trkpt lat="46.15865" lon="-1.15913">
        <ele>54.453775</ele>
        <time>2022-12-21T10:06:43.322Z</time>
      </trkpt>
      <trkpt lat="46.15863" lon="-1.15897">
        <ele>54.643604</ele>
        <time>2022-12-21T10:06:46.312Z</time>
      </trkpt>
      <trkpt lat="46.1586" lon="-1.15883">
        <ele>54.829157</ele>
        <time>2022-12-21T10:06:49.317Z</time>
      </trkpt>
      <trkpt lat="46.15857" lon="-1.15868">
        <ele>55.009542</ele>
        <time>2022-12-21T10:06:52.340Z</time>
      </trkpt>
      <trkpt lat="46.15855" lon="-1.15854">
        <ele>55.183123</ele>
        <time>2022-12-21T10:06:55.309Z</time>
      </trkpt>
      <trkpt lat="46.15853" lon="-1.1584">
        <ele>55.364617</ele>
        <time>2022-12-21T10:06:58.310Z</time>
      </trkpt>
      <trkpt lat="46.15851" lon="-1.15825">
        <ele>55.546202</ele>
        <time>2022-12-21T10:07:01.340Z</time>
      </trkpt>
      <trkpt lat="46.15848" lon="-1.15811">
        <ele>55.722339</ele>
        <time>2022-12-21T10:07:04.327Z</time>
      </trkpt>
      <trkpt lat="46.15846" lon="-1.15797">
        <ele>55.902002</ele>
        <time>2022-12-21T10:07:07.314Z</time>
      </trkpt>
      <trkpt lat="46.15843" lon="-1.15783">
        <ele>56.078623</ele>
        <time>2022-12-21T10:07:10.328Z</time>
      </trkpt>
      <trkpt lat="46.1584" lon="-1.1577">
        <ele>56.194319</ele>
        <time>2022-12-21T10:07:13.312Z</time>
      </trkpt>
      <trkpt lat="46.15837" lon="-1.15753">
        <ele>56.152485</ele>
        <time>2022-12-21T10:07:17.327Z</time>
      </trkpt>
      <trkpt lat="46.15834" lon="-1.15739">
        <ele>56.115946</ele>
        <time>2022-12-21T10:07:21.318Z</time>
      </trkpt>
      <trkpt lat="46.15831" lon="-1.15724">
        <ele>56.076737</ele>
        <time>2022-12-21T10:07:26.317Z</time>
      </trkpt>
      <trkpt lat="46.15828" lon="-1.15709">
        <ele>56.039807</ele>
        <time>2022-12-21T10:07:30.316Z</time>
      </trkpt>
      <trkpt lat="46.15826" lon="-1.15693">
        <ele>55.998695</ele>
        <time>2022-12-21T10:07:34.309Z</time>
      </trkpt>
      <trkpt lat="46.15824" lon="-1.15676">
        <ele>55.956452</ele>
        <time>2022-12-21T10:07:38.321Z</time>
      </trkpt>
      <trkpt lat="46.15821" lon="-1.1566">
        <ele>55.914681</ele>
        <time>2022-12-21T10:07:42.321Z</time>
      </trkpt>
      <trkpt lat="46.15817" lon="-1.15647">
        <ele>55.88268</ele>
        <time>2022-12-21T10:07:45.316Z</time>
      </trkpt>
      <trkpt lat="46.15813" lon="-1.15633">
        <ele>55.844473</ele>
        <time>2022-12-21T10:07:48.312Z</time>
      </trkpt>
      <trkpt lat="46.1581" lon="-1.15619">
        <ele>55.806397</ele>
        <time>2022-12-21T10:07:51.315Z</time>
      </trkpt>
      <trkpt lat="46.15806" lon="-1.15605">
        <ele>55.769103</ele>
        <time>2022-12-21T10:07:54.311Z</time>
      </trkpt>
      <trkpt lat="46.15802" lon="-1.15591">
        <ele>55.733536</ele>
        <time>2022-12-21T10:07:57.310Z</time>
      </trkpt>
      <trkpt lat="46.15798" lon="-1.15579">
        <ele>55.699921</ele>
        <time>2022-12-21T10:08:00.313Z</time>
      </trkpt>
      <trkpt lat="46.15794" lon="-1.15567">
        <ele>55.667335</ele>
        <time>2022-12-21T10:08:03.311Z</time>
      </trkpt>
      <trkpt lat="46.1579" lon="-1.15551">
        <ele>55.626029</ele>
        <time>2022-12-21T10:08:07.313Z</time>
      </trkpt>
      <trkpt lat="46.15786" lon="-1.15535">
        <ele>55.584371</ele>
        <time>2022-12-21T10:08:11.311Z</time>
      </trkpt>
      <trkpt lat="46.15784" lon="-1.15522">
        <ele>55.548559</ele>
        <time>2022-12-21T10:08:14.330Z</time>
      </trkpt>
      <trkpt lat="46.15783" lon="-1.15509">
        <ele>55.508471</ele>
        <time>2022-12-21T10:08:17.317Z</time>
      </trkpt>
      <trkpt lat="46.15781" lon="-1.15493">
        <ele>55.457004</ele>
        <time>2022-12-21T10:08:21.339Z</time>
      </trkpt>
      <trkpt lat="46.15781" lon="-1.15478">
        <ele>55.413174</ele>
        <time>2022-12-21T10:08:24.342Z</time>
      </trkpt>
      <trkpt lat="46.15782" lon="-1.15463">
        <ele>55.367065</ele>
        <time>2022-12-21T10:08:27.316Z</time>
      </trkpt>
      <trkpt lat="46.15784" lon="-1.15449">
        <ele>55.322525</ele>
        <time>2022-12-21T10:08:30.320Z</time>
      </trkpt>
      <trkpt lat="46.15788" lon="-1.15435">
        <ele>55.27662</ele>
        <time>2022-12-21T10:08:33.322Z</time>
      </trkpt>
      <trkpt lat="46.15792" lon="-1.15421">
        <ele>55.231105</ele>
        <time>2022-12-21T10:08:36.340Z</time>
      </trkpt>
      <trkpt lat="46.15796" lon="-1.15407">
        <ele>55.182504</ele>
        <time>2022-12-21T10:08:39.309Z</time>
      </trkpt>
      <trkpt lat="46.15801" lon="-1.15394">
        <ele>55.135375</ele>
        <time>2022-12-21T10:08:42.322Z</time>
      </trkpt>
      <trkpt lat="46.15806" lon="-1.15381">
        <ele>55.090833</ele>
        <time>2022-12-21T10:08:45.312Z</time>
      </trkpt>
      <trkpt lat="46.15809" lon="-1.15367">
        <ele>55.047473</ele>
        <time>2022-12-21T10:08:48.323Z</time>
      </trkpt>
      <trkpt lat="46.1581" lon="-1.15352">
        <ele>55.00005</ele>
        <time>2022-12-21T10:08:51.310Z</time>
      </trkpt>
      <trkpt lat="46.1581" lon="-1.15336">
        <ele>54.951623</ele>
        <time>2022-12-21T10:08:54.322Z</time>
      </trkpt>
      <trkpt lat="46.15811" lon="-1.1532">
        <ele>54.902536</ele>
        <time>2022-12-21T10:08:57.331Z</time>
      </trkpt>
      <trkpt lat="46.15812" lon="-1.15305">
        <ele>54.855844</ele>
        <time>2022-12-21T10:09:00.313Z</time>
      </trkpt>
      <trkpt lat="46.15813" lon="-1.15289">
        <ele>54.808652</ele>
        <time>2022-12-21T10:09:03.339Z</time>
      </trkpt>
      <trkpt lat="46.15814" lon="-1.15274">
        <ele>54.788365</ele>
        <time>2022-12-21T10:09:06.322Z</time>
      </trkpt>
      <trkpt lat="46.15816" lon="-1.1526">
        <ele>54.905798</ele>
        <time>2022-12-21T10:09:09.316Z</time>
      </trkpt>
      <trkpt lat="46.15816" lon="-1.15245">
        <ele>55.027383</ele>
        <time>2022-12-21T10:09:12.340Z</time>
      </trkpt>
      <trkpt lat="46.15816" lon="-1.15229">
        <ele>55.158874</ele>
        <time>2022-12-21T10:09:15.307Z</time>
      </trkpt>
      <trkpt lat="46.15817" lon="-1.15213">
        <ele>55.294678</ele>
        <time>2022-12-21T10:09:18.340Z</time>
      </trkpt>
      <trkpt lat="46.15817" lon="-1.15197">
        <ele>55.428591</ele>
        <time>2022-12-21T10:09:21.340Z</time>
      </trkpt>
      <trkpt lat="46.15817" lon="-1.15182">
        <ele>55.551141</ele>
        <time>2022-12-21T10:09:24.322Z</time>
      </trkpt>
      <trkpt lat="46.15816" lon="-1.15168">
        <ele>55.667127</ele>
        <time>2022-12-21T10:09:27.325Z</time>
      </trkpt>
      <trkpt lat="46.15816" lon="-1.15153">
        <ele>55.787896</ele>
        <time>2022-12-21T10:09:30.316Z</time>
      </trkpt>
      <trkpt lat="46.15816" lon="-1.15138">
        <ele>55.911175</ele>
        <time>2022-12-21T10:09:33.342Z</time>
      </trkpt>
      <trkpt lat="46.15816" lon="-1.15123">
        <ele>56.036889</ele>
        <time>2022-12-21T10:09:36.329Z</time>
      </trkpt>
      <trkpt lat="46.15816" lon="-1.15107">
        <ele>56.168418</ele>
        <time>2022-12-21T10:09:39.331Z</time>
      </trkpt>
      <trkpt lat="46.15815" lon="-1.15091">
        <ele>56.295891</ele>
        <time>2022-12-21T10:09:42.337Z</time>
      </trkpt>
      <trkpt lat="46.15811" lon="-1.15076">
        <ele>56.431428</ele>
        <time>2022-12-21T10:09:46.327Z</time>
      </trkpt>
      <trkpt lat="46.15803" lon="-1.15064">
        <ele>56.569667</ele>
        <time>2022-12-21T10:09:50.340Z</time>
      </trkpt>
      <trkpt lat="46.15794" lon="-1.15057">
        <ele>56.691898</ele>
        <time>2022-12-21T10:09:53.311Z</time>
      </trkpt>
      <trkpt lat="46.15784" lon="-1.15051">
        <ele>56.823049</ele>
        <time>2022-12-21T10:09:56.325Z</time>
      </trkpt>
      <trkpt lat="46.15773" lon="-1.15045">
        <ele>56.852786</ele>
        <time>2022-12-21T10:09:59.334Z</time>
      </trkpt>
      <trkpt lat="46.15763" lon="-1.15038">
        <ele>56.736845</ele>
        <time>2022-12-21T10:10:02.321Z</time>
      </trkpt>
      <trkpt lat="46.15753" lon="-1.15032">
        <ele>56.624982</ele>
        <time>2022-12-21T10:10:05.336Z</time>
      </trkpt>
      <trkpt lat="46.15742" lon="-1.15025">
        <ele>56.502492</ele>
        <time>2022-12-21T10:10:08.311Z</time>
      </trkpt>
      <trkpt lat="46.15732" lon="-1.15019">
        <ele>56.386266</ele>
        <time>2022-12-21T10:10:11.313Z</time>
      </trkpt>
      <trkpt lat="46.15722" lon="-1.15012">
        <ele>56.277873</ele>
        <time>2022-12-21T10:10:14.326Z</time>
      </trkpt>
      <trkpt lat="46.15713" lon="-1.15007">
        <ele>56.17531</ele>
        <time>2022-12-21T10:10:17.323Z</time>
      </trkpt>
      <trkpt lat="46.15705" lon="-1.15001">
        <ele>56.080581</ele>
        <time>2022-12-21T10:10:20.321Z</time>
      </trkpt>
      <trkpt lat="46.15696" lon="-1.14995">
        <ele>55.983035</ele>
        <time>2022-12-21T10:10:23.306Z</time>
      </trkpt>
      <trkpt lat="46.15688" lon="-1.14989">
        <ele>55.884244</ele>
        <time>2022-12-21T10:10:26.312Z</time>
      </trkpt>
      <trkpt lat="46.15679" lon="-1.14982">
        <ele>55.781712</ele>
        <time>2022-12-21T10:10:29.311Z</time>
      </trkpt>
      <trkpt lat="46.1567" lon="-1.14976">
        <ele>55.674558</ele>
        <time>2022-12-21T10:10:32.320Z</time>
      </trkpt>
      <trkpt lat="46.1566" lon="-1.14971">
        <ele>55.567787</ele>
        <time>2022-12-21T10:10:35.313Z</time>
      </trkpt>
      <trkpt lat="46.15649" lon="-1.14967">
        <ele>55.456689</ele>
        <time>2022-12-21T10:10:38.327Z</time>
      </trkpt>
      <trkpt lat="46.15639" lon="-1.14962">
        <ele>55.340406</ele>
        <time>2022-12-21T10:10:41.320Z</time>
      </trkpt>
      <trkpt lat="46.15629" lon="-1.14958">
        <ele>55.232119</ele>
        <time>2022-12-21T10:10:44.331Z</time>
      </trkpt>
      <trkpt lat="46.15617" lon="-1.14955">
        <ele>55.10929</ele>
        <time>2022-12-21T10:10:48.309Z</time>
      </trkpt>
      <trkpt lat="46.15607" lon="-1.14954">
        <ele>55.035626</ele>
        <time>2022-12-21T10:10:51.315Z</time>
      </trkpt>
      <trkpt lat="46.15596" lon="-1.14953">
        <ele>55.011584</ele>
        <time>2022-12-21T10:10:54.336Z</time>
      </trkpt>
      <trkpt lat="46.15584" lon="-1.14953">
        <ele>54.986064</ele>
        <time>2022-12-21T10:10:58.333Z</time>
      </trkpt>
      <trkpt lat="46.15574" lon="-1.14952">
        <ele>54.964824</ele>
        <time>2022-12-21T10:11:01.322Z</time>
      </trkpt>
      <trkpt lat="46.15564" lon="-1.14952">
        <ele>54.942074</ele>
        <time>2022-12-21T10:11:04.326Z</time>
      </trkpt>
      <trkpt lat="46.15553" lon="-1.14951">
        <ele>54.919525</ele>
        <time>2022-12-21T10:11:07.308Z</time>
      </trkpt>
      <trkpt lat="46.15543" lon="-1.1495">
        <ele>54.897411</ele>
        <time>2022-12-21T10:11:10.312Z</time>
      </trkpt>
      <trkpt lat="46.15533" lon="-1.14949">
        <ele>54.876789</ele>
        <time>2022-12-21T10:11:13.326Z</time>
      </trkpt>
      <trkpt lat="46.15524" lon="-1.14944">
        <ele>54.85464</ele>
        <time>2022-12-21T10:11:16.309Z</time>
      </trkpt>
      <trkpt lat="46.15515" lon="-1.14938">
        <ele>54.833317</ele>
        <time>2022-12-21T10:11:19.319Z</time>
      </trkpt>
      <trkpt lat="46.15506" lon="-1.14934">
        <ele>54.812986</ele>
        <time>2022-12-21T10:11:23.310Z</time>
      </trkpt>
      <trkpt lat="46.15498" lon="-1.14928">
        <ele>54.793532</ele>
        <time>2022-12-21T10:11:28.321Z</time>
      </trkpt>
      <trkpt lat="46.15488" lon="-1.14924">
        <ele>54.771674</ele>
        <time>2022-12-21T10:11:32.310Z</time>
      </trkpt>
      <trkpt lat="46.15478" lon="-1.14927">
        <ele>54.750357</ele>
        <time>2022-12-21T10:11:35.323Z</time>
      </trkpt>
      <trkpt lat="46.15469" lon="-1.1493">
        <ele>54.729803</ele>
        <time>2022-12-21T10:11:38.317Z</time>
      </trkpt>
      <trkpt lat="46.15459" lon="-1.14929">
        <ele>54.708571</ele>
        <time>2022-12-21T10:11:41.317Z</time>
      </trkpt>
      <trkpt lat="46.15449" lon="-1.1493">
        <ele>54.687529</ele>
        <time>2022-12-21T10:11:44.312Z</time>
      </trkpt>
      <trkpt lat="46.15437" lon="-1.14929">
        <ele>54.663052</ele>
        <time>2022-12-21T10:11:48.314Z</time>
      </trkpt>
      <trkpt lat="46.15426" lon="-1.14929">
        <ele>54.649878</ele>
        <time>2022-12-21T10:11:52.339Z</time>
      </trkpt>
      <trkpt lat="46.15416" lon="-1.14928">
        <ele>54.642208</ele>
        <time>2022-12-21T10:11:55.342Z</time>
      </trkpt>
      <trkpt lat="46.15406" lon="-1.14928">
        <ele>54.63399</ele>
        <time>2022-12-21T10:11:58.336Z</time>
      </trkpt>
      <trkpt lat="46.15396" lon="-1.14924">
        <ele>54.626273</ele>
        <time>2022-12-21T10:12:01.315Z</time>
      </trkpt>
      <trkpt lat="46.15387" lon="-1.14916">
        <ele>54.617894</ele>
        <time>2022-12-21T10:12:05.320Z</time>
      </trkpt>
      <trkpt lat="46.15378" lon="-1.14909">
        <ele>54.609498</ele>
        <time>2022-12-21T10:12:10.316Z</time>
      </trkpt>
      <trkpt lat="46.15368" lon="-1.14904">
        <ele>54.601642</ele>
        <time>2022-12-21T10:12:14.322Z</time>
      </trkpt>
      <trkpt lat="46.15359" lon="-1.14901">
        <ele>54.594391</ele>
        <time>2022-12-21T10:12:17.316Z</time>
      </trkpt>
      <trkpt lat="46.1535" lon="-1.14898">
        <ele>54.586937</ele>
        <time>2022-12-21T10:12:20.312Z</time>
      </trkpt>
      <trkpt lat="46.15341" lon="-1.14895">
        <ele>54.579186</ele>
        <time>2022-12-21T10:12:23.314Z</time>
      </trkpt>
      <trkpt lat="46.15331" lon="-1.14892">
        <ele>54.571732</ele>
        <time>2022-12-21T10:12:26.336Z</time>
      </trkpt>
      <trkpt lat="46.15322" lon="-1.14889">
        <ele>54.564277</ele>
        <time>2022-12-21T10:12:29.311Z</time>
      </trkpt>
      <trkpt lat="46.15313" lon="-1.14886">
        <ele>54.556968</ele>
        <time>2022-12-21T10:12:32.308Z</time>
      </trkpt>
      <trkpt lat="46.15302" lon="-1.14882">
        <ele>54.548094</ele>
        <time>2022-12-21T10:12:36.310Z</time>
      </trkpt>
      <trkpt lat="46.15292" lon="-1.14879">
        <ele>54.539655</ele>
        <time>2022-12-21T10:12:41.318Z</time>
      </trkpt>
      <trkpt lat="46.15282" lon="-1.14875">
        <ele>54.531329</ele>
        <time>2022-12-21T10:12:45.319Z</time>
      </trkpt>
      <trkpt lat="46.15273" lon="-1.14871">
        <ele>54.523926</ele>
        <time>2022-12-21T10:12:48.328Z</time>
      </trkpt>
      <trkpt lat="46.15261" lon="-1.14868">
        <ele>54.510023</ele>
        <time>2022-12-21T10:12:52.320Z</time>
      </trkpt>
      <trkpt lat="46.15252" lon="-1.14865">
        <ele>54.41933</ele>
        <time>2022-12-21T10:12:55.311Z</time>
      </trkpt>
      <trkpt lat="46.1524" lon="-1.1486">
        <ele>54.303697</ele>
        <time>2022-12-21T10:12:59.322Z</time>
      </trkpt>
      <trkpt lat="46.15231" lon="-1.14854">
        <ele>54.201663</ele>
        <time>2022-12-21T10:13:03.313Z</time>
      </trkpt>
      <trkpt lat="46.15221" lon="-1.14848">
        <ele>54.102211</ele>
        <time>2022-12-21T10:13:07.341Z</time>
      </trkpt>
      <trkpt lat="46.15213" lon="-1.14838">
        <ele>53.994254</ele>
        <time>2022-12-21T10:13:12.317Z</time>
      </trkpt>
      <trkpt lat="46.15205" lon="-1.14831">
        <ele>53.901487</ele>
        <time>2022-12-21T10:13:16.318Z</time>
      </trkpt>
      <trkpt lat="46.15197" lon="-1.14823">
        <ele>53.806057</ele>
        <time>2022-12-21T10:13:20.329Z</time>
      </trkpt>
      <trkpt lat="46.15188" lon="-1.14816">
        <ele>53.70963</ele>
        <time>2022-12-21T10:13:24.317Z</time>
      </trkpt>
      <trkpt lat="46.1518" lon="-1.14805">
        <ele>53.600548</ele>
        <time>2022-12-21T10:13:28.322Z</time>
      </trkpt>
      <trkpt lat="46.15172" lon="-1.14793">
        <ele>53.485536</ele>
        <time>2022-12-21T10:13:32.311Z</time>
      </trkpt>
      <trkpt lat="46.15164" lon="-1.1478">
        <ele>53.371384</ele>
        <time>2022-12-21T10:13:36.313Z</time>
      </trkpt>
      <trkpt lat="46.15158" lon="-1.14771">
        <ele>53.283245</ele>
        <time>2022-12-21T10:13:39.308Z</time>
      </trkpt>
      <trkpt lat="46.1515" lon="-1.14761">
        <ele>53.18588</ele>
        <time>2022-12-21T10:13:42.307Z</time>
      </trkpt>
      <trkpt lat="46.15142" lon="-1.1475">
        <ele>53.073206</ele>
        <time>2022-12-21T10:13:46.311Z</time>
      </trkpt>
      <trkpt lat="46.15134" lon="-1.14739">
        <ele>52.965051</ele>
        <time>2022-12-21T10:13:50.335Z</time>
      </trkpt>
      <trkpt lat="46.15125" lon="-1.14727">
        <ele>52.847707</ele>
        <time>2022-12-21T10:13:54.317Z</time>
      </trkpt>
      <trkpt lat="46.15118" lon="-1.14717">
        <ele>52.756399</ele>
        <time>2022-12-21T10:13:57.319Z</time>
      </trkpt>
      <trkpt lat="46.1511" lon="-1.14707">
        <ele>52.732885</ele>
        <time>2022-12-21T10:14:00.306Z</time>
      </trkpt>
      <trkpt lat="46.15103" lon="-1.14696">
        <ele>52.708512</ele>
        <time>2022-12-21T10:14:03.320Z</time>
      </trkpt>
      <trkpt lat="46.15094" lon="-1.14684">
        <ele>52.68221</ele>
        <time>2022-12-21T10:14:06.340Z</time>
      </trkpt>
      <trkpt lat="46.15086" lon="-1.14672">
        <ele>52.656163</ele>
        <time>2022-12-21T10:14:09.317Z</time>
      </trkpt>
      <trkpt lat="46.15079" lon="-1.1466">
        <ele>52.631484</ele>
        <time>2022-12-21T10:14:12.339Z</time>
      </trkpt>
      <trkpt lat="46.15071" lon="-1.1465">
        <ele>52.607926</ele>
        <time>2022-12-21T10:14:15.341Z</time>
      </trkpt>
      <trkpt lat="46.15064" lon="-1.1464">
        <ele>52.585328</ele>
        <time>2022-12-21T10:14:18.325Z</time>
      </trkpt>
      <trkpt lat="46.15056" lon="-1.14631">
        <ele>52.563289</ele>
        <time>2022-12-21T10:14:21.323Z</time>
      </trkpt>
      <trkpt lat="46.15046" lon="-1.14623">
        <ele>52.537782</ele>
        <time>2022-12-21T10:14:24.340Z</time>
      </trkpt>
      <trkpt lat="46.15038" lon="-1.14612">
        <ele>52.512121</ele>
        <time>2022-12-21T10:14:27.317Z</time>
      </trkpt>
      <trkpt lat="46.1503" lon="-1.146">
        <ele>52.485931</ele>
        <time>2022-12-21T10:14:30.340Z</time>
      </trkpt>
      <trkpt lat="46.15021" lon="-1.14584">
        <ele>52.455442</ele>
        <time>2022-12-21T10:14:33.311Z</time>
      </trkpt>
      <trkpt lat="46.15015" lon="-1.14574">
        <ele>52.433466</ele>
        <time>2022-12-21T10:14:35.308Z</time>
      </trkpt>
      <trkpt lat="46.15008" lon="-1.14563">
        <ele>52.41169</ele>
        <time>2022-12-21T10:14:37.329Z</time>
      </trkpt>
      <trkpt lat="46.15001" lon="-1.14554">
        <ele>52.390776</ele>
        <time>2022-12-21T10:14:39.326Z</time>
      </trkpt>
      <trkpt lat="46.14995" lon="-1.14545">
        <ele>52.370216</ele>
        <time>2022-12-21T10:14:41.330Z</time>
      </trkpt>
      <trkpt lat="46.14988" lon="-1.14536">
        <ele>52.31943</ele>
        <time>2022-12-21T10:14:43.331Z</time>
      </trkpt>
      <trkpt lat="46.14981" lon="-1.14526">
        <ele>52.189389</ele>
        <time>2022-12-21T10:14:45.315Z</time>
      </trkpt>
      <trkpt lat="46.14974" lon="-1.14516">
        <ele>52.056044</ele>
        <time>2022-12-21T10:14:47.330Z</time>
      </trkpt>
      <trkpt lat="46.14967" lon="-1.14508">
        <ele>51.933248</ele>
        <time>2022-12-21T10:14:49.331Z</time>
      </trkpt>
      <trkpt lat="46.14958" lon="-1.14496">
        <ele>51.760426</ele>
        <time>2022-12-21T10:14:52.335Z</time>
      </trkpt>
      <trkpt lat="46.14948" lon="-1.14483">
        <ele>51.577457</ele>
        <time>2022-12-21T10:14:55.320Z</time>
      </trkpt>
      <trkpt lat="46.1494" lon="-1.14476">
        <ele>51.454645</ele>
        <time>2022-12-21T10:14:57.310Z</time>
      </trkpt>
      <trkpt lat="46.14933" lon="-1.14467">
        <ele>51.324022</ele>
        <time>2022-12-21T10:14:59.337Z</time>
      </trkpt>
      <trkpt lat="46.14921" lon="-1.14456">
        <ele>51.135457</ele>
        <time>2022-12-21T10:15:02.335Z</time>
      </trkpt>
      <trkpt lat="46.14913" lon="-1.14449">
        <ele>51.006376</ele>
        <time>2022-12-21T10:15:04.326Z</time>
      </trkpt>
      <trkpt lat="46.14906" lon="-1.14441">
        <ele>50.877443</ele>
        <time>2022-12-21T10:15:06.311Z</time>
      </trkpt>
      <trkpt lat="46.14896" lon="-1.14432">
        <ele>50.71375</ele>
        <time>2022-12-21T10:15:09.319Z</time>
      </trkpt>
      <trkpt lat="46.14887" lon="-1.14424">
        <ele>50.571336</ele>
        <time>2022-12-21T10:15:12.319Z</time>
      </trkpt>
      <trkpt lat="46.14878" lon="-1.14418">
        <ele>50.440826</ele>
        <time>2022-12-21T10:15:15.314Z</time>
      </trkpt>
      <trkpt lat="46.14871" lon="-1.14411">
        <ele>50.314036</ele>
        <time>2022-12-21T10:15:18.343Z</time>
      </trkpt>
      <trkpt lat="46.14862" lon="-1.14399">
        <ele>50.149042</ele>
        <time>2022-12-21T10:15:22.338Z</time>
      </trkpt>
      <trkpt lat="46.14855" lon="-1.14388">
        <ele>50.008343</ele>
        <time>2022-12-21T10:15:25.321Z</time>
      </trkpt>
      <trkpt lat="46.14848" lon="-1.14376">
        <ele>49.893842</ele>
        <time>2022-12-21T10:15:28.340Z</time>
      </trkpt>
      <trkpt lat="46.14839" lon="-1.14366">
        <ele>49.921038</ele>
        <time>2022-12-21T10:15:31.337Z</time>
      </trkpt>
      <trkpt lat="46.1483" lon="-1.14357">
        <ele>49.949722</ele>
        <time>2022-12-21T10:15:34.310Z</time>
      </trkpt>
      <trkpt lat="46.14819" lon="-1.1435">
        <ele>49.978638</ele>
        <time>2022-12-21T10:15:37.344Z</time>
      </trkpt>
      <trkpt lat="46.14808" lon="-1.14345">
        <ele>50.00901</ele>
        <time>2022-12-21T10:15:40.317Z</time>
      </trkpt>
      <trkpt lat="46.14796" lon="-1.1434">
        <ele>50.039327</ele>
        <time>2022-12-21T10:15:43.338Z</time>
      </trkpt>
      <trkpt lat="46.14783" lon="-1.14337">
        <ele>50.070793</ele>
        <time>2022-12-21T10:15:46.315Z</time>
      </trkpt>
      <trkpt lat="46.14771" lon="-1.14335">
        <ele>50.102259</ele>
        <time>2022-12-21T10:15:49.313Z</time>
      </trkpt>
      <trkpt lat="46.14758" lon="-1.14333">
        <ele>50.133213</ele>
        <time>2022-12-21T10:15:52.337Z</time>
      </trkpt>
      <trkpt lat="46.14749" lon="-1.14331">
        <ele>50.155674</ele>
        <time>2022-12-21T10:15:54.339Z</time>
      </trkpt>
      <trkpt lat="46.14741" lon="-1.14329">
        <ele>50.178165</ele>
        <time>2022-12-21T10:15:56.333Z</time>
      </trkpt>
      <trkpt lat="46.14732" lon="-1.14327">
        <ele>50.200571</ele>
        <time>2022-12-21T10:15:58.313Z</time>
      </trkpt>
      <trkpt lat="46.14722" lon="-1.14326">
        <ele>50.224761</ele>
        <time>2022-12-21T10:16:00.340Z</time>
      </trkpt>
      <trkpt lat="46.14708" lon="-1.14324">
        <ele>50.258486</ele>
        <time>2022-12-21T10:16:03.309Z</time>
      </trkpt>
      <trkpt lat="46.14695" lon="-1.14322">
        <ele>50.291066</ele>
        <time>2022-12-21T10:16:06.339Z</time>
      </trkpt>
      <trkpt lat="46.14683" lon="-1.1432">
        <ele>50.322579</ele>
        <time>2022-12-21T10:16:09.316Z</time>
      </trkpt>
      <trkpt lat="46.14671" lon="-1.14318">
        <ele>50.309498</ele>
        <time>2022-12-21T10:16:12.312Z</time>
      </trkpt>
      <trkpt lat="46.14659" lon="-1.14317">
        <ele>50.258746</ele>
        <time>2022-12-21T10:16:15.313Z</time>
      </trkpt>
      <trkpt lat="46.14648" lon="-1.14315">
        <ele>50.207265</ele>
        <time>2022-12-21T10:16:18.315Z</time>
      </trkpt>
      <trkpt lat="46.14637" lon="-1.14311">
        <ele>50.159027</ele>
        <time>2022-12-21T10:16:21.320Z</time>
      </trkpt>
      <trkpt lat="46.14627" lon="-1.14305">
        <ele>50.111524</ele>
        <time>2022-12-21T10:16:24.325Z</time>
      </trkpt>
      <trkpt lat="46.14616" lon="-1.143">
        <ele>50.064551</ele>
        <time>2022-12-21T10:16:27.319Z</time>
      </trkpt>
      <trkpt lat="46.14607" lon="-1.14295">
        <ele>50.020998</ele>
        <time>2022-12-21T10:16:30.312Z</time>
      </trkpt>
      <trkpt lat="46.14597" lon="-1.14289">
        <ele>49.975152</ele>
        <time>2022-12-21T10:16:33.319Z</time>
      </trkpt>
      <trkpt lat="46.14586" lon="-1.14283">
        <ele>49.923248</ele>
        <time>2022-12-21T10:16:36.328Z</time>
      </trkpt>
      <trkpt lat="46.14576" lon="-1.14277">
        <ele>49.875963</ele>
        <time>2022-12-21T10:16:39.320Z</time>
      </trkpt>
      <trkpt lat="46.14564" lon="-1.14273">
        <ele>49.82525</ele>
        <time>2022-12-21T10:16:42.340Z</time>
      </trkpt>
      <trkpt lat="46.14553" lon="-1.14267">
        <ele>49.774495</ele>
        <time>2022-12-21T10:16:45.316Z</time>
      </trkpt>
      <trkpt lat="46.14543" lon="-1.14262">
        <ele>49.724565</ele>
        <time>2022-12-21T10:16:48.325Z</time>
      </trkpt>
      <trkpt lat="46.14532" lon="-1.14256">
        <ele>49.674432</ele>
        <time>2022-12-21T10:16:51.323Z</time>
      </trkpt>
      <trkpt lat="46.14521" lon="-1.1425">
        <ele>49.623791</ele>
        <time>2022-12-21T10:16:54.322Z</time>
      </trkpt>
      <trkpt lat="46.1451" lon="-1.14246">
        <ele>49.57407</ele>
        <time>2022-12-21T10:16:57.304Z</time>
      </trkpt>
      <trkpt lat="46.14499" lon="-1.1424">
        <ele>49.552802</ele>
        <time>2022-12-21T10:17:00.322Z</time>
      </trkpt>
      <trkpt lat="46.14489" lon="-1.14234">
        <ele>49.546192</ele>
        <time>2022-12-21T10:17:03.320Z</time>
      </trkpt>
      <trkpt lat="46.14479" lon="-1.14229">
        <ele>49.539949</ele>
        <time>2022-12-21T10:17:06.312Z</time>
      </trkpt>
      <trkpt lat="46.1447" lon="-1.14223">
        <ele>49.53376</ele>
        <time>2022-12-21T10:17:09.317Z</time>
      </trkpt>
      <trkpt lat="46.14461" lon="-1.14219">
        <ele>49.527774</ele>
        <time>2022-12-21T10:17:12.325Z</time>
      </trkpt>
      <trkpt lat="46.14451" lon="-1.14214">
        <ele>49.521668</ele>
        <time>2022-12-21T10:17:15.324Z</time>
      </trkpt>
      <trkpt lat="46.14442" lon="-1.14209">
        <ele>49.515495</ele>
        <time>2022-12-21T10:17:18.344Z</time>
      </trkpt>
      <trkpt lat="46.14432" lon="-1.14203">
        <ele>49.509218</ele>
        <time>2022-12-21T10:17:21.340Z</time>
      </trkpt>
      <trkpt lat="46.14422" lon="-1.14198">
        <ele>49.502932</ele>
        <time>2022-12-21T10:17:24.324Z</time>
      </trkpt>
      <trkpt lat="46.14413" lon="-1.14194">
        <ele>49.496934</ele>
        <time>2022-12-21T10:17:27.313Z</time>
      </trkpt>
      <trkpt lat="46.14403" lon="-1.14189">
        <ele>49.490847</ele>
        <time>2022-12-21T10:17:30.315Z</time>
      </trkpt>
      <trkpt lat="46.14394" lon="-1.14184">
        <ele>49.484883</ele>
        <time>2022-12-21T10:17:33.329Z</time>
      </trkpt>
      <trkpt lat="46.14385" lon="-1.14179">
        <ele>49.479024</ele>
        <time>2022-12-21T10:17:36.339Z</time>
      </trkpt>
      <trkpt lat="46.14376" lon="-1.14174">
        <ele>49.473208</ele>
        <time>2022-12-21T10:17:39.319Z</time>
      </trkpt>
      <trkpt lat="46.14367" lon="-1.14169">
        <ele>49.467363</ele>
        <time>2022-12-21T10:17:42.323Z</time>
      </trkpt>
      <trkpt lat="46.14357" lon="-1.14165">
        <ele>49.461033</ele>
        <time>2022-12-21T10:17:45.324Z</time>
      </trkpt>
      <trkpt lat="46.14348" lon="-1.14159">
        <ele>49.454817</ele>
        <time>2022-12-21T10:17:48.313Z</time>
      </trkpt>
      <trkpt lat="46.14337" lon="-1.14155">
        <ele>49.448385</ele>
        <time>2022-12-21T10:17:51.325Z</time>
      </trkpt>
      <trkpt lat="46.14327" lon="-1.1415">
        <ele>49.268749</ele>
        <time>2022-12-21T10:17:54.318Z</time>
      </trkpt>
      <trkpt lat="46.14317" lon="-1.14145">
        <ele>49.083857</ele>
        <time>2022-12-21T10:17:57.318Z</time>
      </trkpt>
      <trkpt lat="46.14307" lon="-1.1414">
        <ele>48.891233</ele>
        <time>2022-12-21T10:18:00.340Z</time>
      </trkpt>
      <trkpt lat="46.14296" lon="-1.14134">
        <ele>48.696147</ele>
        <time>2022-12-21T10:18:03.325Z</time>
      </trkpt>
      <trkpt lat="46.14286" lon="-1.14128">
        <ele>48.505698</ele>
        <time>2022-12-21T10:18:06.317Z</time>
      </trkpt>
      <trkpt lat="46.14276" lon="-1.14123">
        <ele>48.323698</ele>
        <time>2022-12-21T10:18:09.326Z</time>
      </trkpt>
      <trkpt lat="46.14266" lon="-1.14118">
        <ele>48.140281</ele>
        <time>2022-12-21T10:18:12.319Z</time>
      </trkpt>
      <trkpt lat="46.14256" lon="-1.14113">
        <ele>47.961464</ele>
        <time>2022-12-21T10:18:15.319Z</time>
      </trkpt>
      <trkpt lat="46.14247" lon="-1.14109">
        <ele>47.784667</ele>
        <time>2022-12-21T10:18:18.325Z</time>
      </trkpt>
      <trkpt lat="46.14237" lon="-1.14104">
        <ele>47.614464</ele>
        <time>2022-12-21T10:18:21.335Z</time>
      </trkpt>
      <trkpt lat="46.14229" lon="-1.14098">
        <ele>47.454569</ele>
        <time>2022-12-21T10:18:24.340Z</time>
      </trkpt>
      <trkpt lat="46.14222" lon="-1.14089">
        <ele>47.287975</ele>
        <time>2022-12-21T10:18:27.339Z</time>
      </trkpt>
      <trkpt lat="46.14216" lon="-1.14077">
        <ele>47.10792</ele>
        <time>2022-12-21T10:18:30.339Z</time>
      </trkpt>
      <trkpt lat="46.14211" lon="-1.14063">
        <ele>46.926275</ele>
        <time>2022-12-21T10:18:33.319Z</time>
      </trkpt>
      <trkpt lat="46.14207" lon="-1.14051">
        <ele>46.754911</ele>
        <time>2022-12-21T10:18:36.312Z</time>
      </trkpt>
      <trkpt lat="46.14203" lon="-1.14037">
        <ele>46.580632</ele>
        <time>2022-12-21T10:18:39.345Z</time>
      </trkpt>
      <trkpt lat="46.14198" lon="-1.14025">
        <ele>46.407527</ele>
        <time>2022-12-21T10:18:42.312Z</time>
      </trkpt>
      <trkpt lat="46.14191" lon="-1.14015">
        <ele>46.358086</ele>
        <time>2022-12-21T10:18:45.328Z</time>
      </trkpt>
      <trkpt lat="46.14185" lon="-1.14004">
        <ele>46.418343</ele>
        <time>2022-12-21T10:18:48.318Z</time>
      </trkpt>
      <trkpt lat="46.14182" lon="-1.1399">
        <ele>46.485115</ele>
        <time>2022-12-21T10:18:51.317Z</time>
      </trkpt>
      <trkpt lat="46.14178" lon="-1.13975">
        <ele>46.558209</ele>
        <time>2022-12-21T10:18:54.340Z</time>
      </trkpt>
      <trkpt lat="46.14173" lon="-1.13961">
        <ele>46.623092</ele>
        <time>2022-12-21T10:18:57.308Z</time>
      </trkpt>
      <trkpt lat="46.14168" lon="-1.13946">
        <ele>46.700439</ele>
        <time>2022-12-21T10:19:01.309Z</time>
      </trkpt>
      <trkpt lat="46.14163" lon="-1.13932">
        <ele>46.76545</ele>
        <time>2022-12-21T10:19:04.315Z</time>
      </trkpt>
      <trkpt lat="46.14158" lon="-1.13918">
        <ele>46.835082</ele>
        <time>2022-12-21T10:19:07.312Z</time>
      </trkpt>
      <trkpt lat="46.14153" lon="-1.13905">
        <ele>46.903081</ele>
        <time>2022-12-21T10:19:10.312Z</time>
      </trkpt>
      <trkpt lat="46.14149" lon="-1.13892">
        <ele>46.963981</ele>
        <time>2022-12-21T10:19:13.316Z</time>
      </trkpt>
      <trkpt lat="46.14145" lon="-1.13879">
        <ele>47.02621</ele>
        <time>2022-12-21T10:19:16.311Z</time>
      </trkpt>
      <trkpt lat="46.1414" lon="-1.13866">
        <ele>47.095286</ele>
        <time>2022-12-21T10:19:19.331Z</time>
      </trkpt>
      <trkpt lat="46.14135" lon="-1.13852">
        <ele>47.165017</ele>
        <time>2022-12-21T10:19:22.317Z</time>
      </trkpt>
      <trkpt lat="46.1413" lon="-1.13839">
        <ele>47.228497</ele>
        <time>2022-12-21T10:19:25.321Z</time>
      </trkpt>
      <trkpt lat="46.14125" lon="-1.13825">
        <ele>47.294332</ele>
        <time>2022-12-21T10:19:28.322Z</time>
      </trkpt>
      <trkpt lat="46.1412" lon="-1.13811">
        <ele>47.36504</ele>
        <time>2022-12-21T10:19:31.318Z</time>
      </trkpt>
      <trkpt lat="46.14115" lon="-1.13797">
        <ele>47.436236</ele>
        <time>2022-12-21T10:19:34.337Z</time>
      </trkpt>
      <trkpt lat="46.1411" lon="-1.13783">
        <ele>47.531969</ele>
        <time>2022-12-21T10:19:37.331Z</time>
      </trkpt>
      <trkpt lat="46.14106" lon="-1.13768">
        <ele>47.652328</ele>
        <time>2022-12-21T10:19:40.326Z</time>
      </trkpt>
      <trkpt lat="46.14101" lon="-1.13753">
        <ele>47.775425</ele>
        <time>2022-12-21T10:19:43.321Z</time>
      </trkpt>
      <trkpt lat="46.14096" lon="-1.13738">
        <ele>47.899663</ele>
        <time>2022-12-21T10:19:46.330Z</time>
      </trkpt>
      <trkpt lat="46.14091" lon="-1.13723">
        <ele>48.024791</ele>
        <time>2022-12-21T10:19:49.341Z</time>
      </trkpt>
      <trkpt lat="46.14086" lon="-1.13709">
        <ele>48.147816</ele>
        <time>2022-12-21T10:19:52.329Z</time>
      </trkpt>
      <trkpt lat="46.14081" lon="-1.13694">
        <ele>48.271379</ele>
        <time>2022-12-21T10:19:55.325Z</time>
      </trkpt>
      <trkpt lat="46.14076" lon="-1.13679">
        <ele>48.389693</ele>
        <time>2022-12-21T10:19:58.320Z</time>
      </trkpt>
      <trkpt lat="46.14071" lon="-1.13666">
        <ele>48.506728</ele>
        <time>2022-12-21T10:20:01.320Z</time>
      </trkpt>
      <trkpt lat="46.14067" lon="-1.13652">
        <ele>48.622122</ele>
        <time>2022-12-21T10:20:04.342Z</time>
      </trkpt>
      <trkpt lat="46.14062" lon="-1.13639">
        <ele>48.726503</ele>
        <time>2022-12-21T10:20:07.341Z</time>
      </trkpt>
      <trkpt lat="46.14058" lon="-1.13627">
        <ele>48.83105</ele>
        <time>2022-12-21T10:20:10.339Z</time>
      </trkpt>
      <trkpt lat="46.14053" lon="-1.13614">
        <ele>48.941931</ele>
        <time>2022-12-21T10:20:13.321Z</time>
      </trkpt>
      <trkpt lat="46.14048" lon="-1.136">
        <ele>49.058298</ele>
        <time>2022-12-21T10:20:16.326Z</time>
      </trkpt>
      <trkpt lat="46.14043" lon="-1.13586">
        <ele>49.175519</ele>
        <time>2022-12-21T10:20:19.317Z</time>
      </trkpt>
      <trkpt lat="46.14039" lon="-1.13573">
        <ele>49.2843</ele>
        <time>2022-12-21T10:20:22.312Z</time>
      </trkpt>
      <trkpt lat="46.14035" lon="-1.13559">
        <ele>49.400797</ele>
        <time>2022-12-21T10:20:26.331Z</time>
      </trkpt>
      <trkpt lat="46.14031" lon="-1.13544">
        <ele>49.39318</ele>
        <time>2022-12-21T10:20:30.322Z</time>
      </trkpt>
      <trkpt lat="46.14029" lon="-1.1353">
        <ele>49.367794</ele>
        <time>2022-12-21T10:20:33.340Z</time>
      </trkpt>
      <trkpt lat="46.14027" lon="-1.13515">
        <ele>49.339843</ele>
        <time>2022-12-21T10:20:36.312Z</time>
      </trkpt>
      <trkpt lat="46.14025" lon="-1.135">
        <ele>49.310843</ele>
        <time>2022-12-21T10:20:39.322Z</time>
      </trkpt>
      <trkpt lat="46.14024" lon="-1.13483">
        <ele>49.280176</ele>
        <time>2022-12-21T10:20:42.308Z</time>
      </trkpt>
      <trkpt lat="46.14022" lon="-1.13466">
        <ele>49.248346</ele>
        <time>2022-12-21T10:20:45.340Z</time>
      </trkpt>
      <trkpt lat="46.14021" lon="-1.1345">
        <ele>49.21817</ele>
        <time>2022-12-21T10:20:48.317Z</time>
      </trkpt>
      <trkpt lat="46.14019" lon="-1.13434">
        <ele>49.189908</ele>
        <time>2022-12-21T10:20:51.325Z</time>
      </trkpt>
      <trkpt lat="46.14017" lon="-1.13419">
        <ele>49.160871</ele>
        <time>2022-12-21T10:20:54.313Z</time>
      </trkpt>
      <trkpt lat="46.14015" lon="-1.13401">
        <ele>49.128778</ele>
        <time>2022-12-21T10:20:57.319Z</time>
      </trkpt>
      <trkpt lat="46.14014" lon="-1.13383">
        <ele>49.095453</ele>
        <time>2022-12-21T10:21:00.339Z</time>
      </trkpt>
      <trkpt lat="46.14011" lon="-1.13365">
        <ele>49.061732</ele>
        <time>2022-12-21T10:21:03.333Z</time>
      </trkpt>
      <trkpt lat="46.1401" lon="-1.13346">
        <ele>49.02704</ele>
        <time>2022-12-21T10:21:06.319Z</time>
      </trkpt>
      <trkpt lat="46.14008" lon="-1.13328">
        <ele>48.992637</ele>
        <time>2022-12-21T10:21:09.339Z</time>
      </trkpt>
      <trkpt lat="46.14006" lon="-1.13311">
        <ele>48.961098</ele>
        <time>2022-12-21T10:21:12.318Z</time>
      </trkpt>
      <trkpt lat="46.14005" lon="-1.13295">
        <ele>49.022157</ele>
        <time>2022-12-21T10:21:15.317Z</time>
      </trkpt>
      <trkpt lat="46.14003" lon="-1.13281">
        <ele>49.219382</ele>
        <time>2022-12-21T10:21:18.316Z</time>
      </trkpt>
      <trkpt lat="46.14002" lon="-1.13265">
        <ele>49.428276</ele>
        <time>2022-12-21T10:21:21.319Z</time>
      </trkpt>
      <trkpt lat="46.14" lon="-1.13249">
        <ele>49.645423</ele>
        <time>2022-12-21T10:21:24.318Z</time>
      </trkpt>
      <trkpt lat="46.13998" lon="-1.13233">
        <ele>49.8602</ele>
        <time>2022-12-21T10:21:27.310Z</time>
      </trkpt>
      <trkpt lat="46.13996" lon="-1.13219">
        <ele>50.062212</ele>
        <time>2022-12-21T10:21:30.319Z</time>
      </trkpt>
      <trkpt lat="46.13993" lon="-1.13205">
        <ele>50.251328</ele>
        <time>2022-12-21T10:21:33.312Z</time>
      </trkpt>
      <trkpt lat="46.13987" lon="-1.13191">
        <ele>50.4802</ele>
        <time>2022-12-21T10:21:37.307Z</time>
      </trkpt>
      <trkpt lat="46.13977" lon="-1.1318">
        <ele>50.711806</ele>
        <time>2022-12-21T10:21:41.315Z</time>
      </trkpt>
      <trkpt lat="46.13968" lon="-1.13173">
        <ele>50.912803</ele>
        <time>2022-12-21T10:21:44.314Z</time>
      </trkpt>
      <trkpt lat="46.13958" lon="-1.1317">
        <ele>51.109776</ele>
        <time>2022-12-21T10:21:47.309Z</time>
      </trkpt>
      <trkpt lat="46.13947" lon="-1.13169">
        <ele>51.330878</ele>
        <time>2022-12-21T10:21:51.319Z</time>
      </trkpt>
      <trkpt lat="46.13938" lon="-1.1317">
        <ele>51.513349</ele>
        <time>2022-12-21T10:21:54.326Z</time>
      </trkpt>
      <trkpt lat="46.13928" lon="-1.1317">
        <ele>51.693763</ele>
        <time>2022-12-21T10:21:57.318Z</time>
      </trkpt>
      <trkpt lat="46.13919" lon="-1.13169">
        <ele>51.877416</ele>
        <time>2022-12-21T10:22:00.322Z</time>
      </trkpt>
      <trkpt lat="46.13909" lon="-1.13165">
        <ele>52.072986</ele>
        <time>2022-12-21T10:22:03.326Z</time>
      </trkpt>
      <trkpt lat="46.139" lon="-1.13159">
        <ele>52.269259</ele>
        <time>2022-12-21T10:22:06.330Z</time>
      </trkpt>
      <trkpt lat="46.13891" lon="-1.1315">
        <ele>52.457079</ele>
        <time>2022-12-21T10:22:10.345Z</time>
      </trkpt>
      <trkpt lat="46.13884" lon="-1.13138">
        <ele>52.56795</ele>
        <time>2022-12-21T10:22:14.336Z</time>
      </trkpt>
      <trkpt lat="46.1388" lon="-1.13126">
        <ele>52.661556</ele>
        <time>2022-12-21T10:22:17.340Z</time>
      </trkpt>
      <trkpt lat="46.13876" lon="-1.13114">
        <ele>52.759781</ele>
        <time>2022-12-21T10:22:20.315Z</time>
      </trkpt>
      <trkpt lat="46.13872" lon="-1.13101">
        <ele>52.85627</ele>
        <time>2022-12-21T10:22:23.307Z</time>
      </trkpt>
      <trkpt lat="46.13868" lon="-1.13088">
        <ele>52.961649</ele>
        <time>2022-12-21T10:22:27.334Z</time>
      </trkpt>
      <trkpt lat="46.13862" lon="-1.13073">
        <ele>53.085716</ele>
        <time>2022-12-21T10:22:32.335Z</time>
      </trkpt>
      <trkpt lat="46.13857" lon="-1.13061">
        <ele>53.186556</ele>
        <time>2022-12-21T10:22:35.321Z</time>
      </trkpt>
      <trkpt lat="46.13851" lon="-1.13046">
        <ele>53.306721</ele>
        <time>2022-12-21T10:22:39.336Z</time>
      </trkpt>
      <trkpt lat="46.13846" lon="-1.13031">
        <ele>53.428987</ele>
        <time>2022-12-21T10:22:43.320Z</time>
      </trkpt>
      <trkpt lat="46.13841" lon="-1.13019">
        <ele>53.527621</ele>
        <time>2022-12-21T10:22:46.329Z</time>
      </trkpt>
      <trkpt lat="46.13837" lon="-1.13007">
        <ele>53.625991</ele>
        <time>2022-12-21T10:22:49.320Z</time>
      </trkpt>
      <trkpt lat="46.13832" lon="-1.12995">
        <ele>53.721847</ele>
        <time>2022-12-21T10:22:52.329Z</time>
      </trkpt>
      <trkpt lat="46.13828" lon="-1.12981">
        <ele>53.838254</ele>
        <time>2022-12-21T10:22:56.337Z</time>
      </trkpt>
      <trkpt lat="46.13823" lon="-1.12967">
        <ele>53.948057</ele>
        <time>2022-12-21T10:23:00.318Z</time>
      </trkpt>
      <trkpt lat="46.13817" lon="-1.12953">
        <ele>54.066133</ele>
        <time>2022-12-21T10:23:04.319Z</time>
      </trkpt>
      <trkpt lat="46.13811" lon="-1.12938">
        <ele>54.185949</ele>
        <time>2022-12-21T10:23:08.313Z</time>
      </trkpt>
      <trkpt lat="46.13807" lon="-1.12925">
        <ele>54.295462</ele>
        <time>2022-12-21T10:23:12.324Z</time>
      </trkpt>
      <trkpt lat="46.13802" lon="-1.12911">
        <ele>54.555232</ele>
        <time>2022-12-21T10:23:17.319Z</time>
      </trkpt>
      <trkpt lat="46.13798" lon="-1.12899">
        <ele>54.772767</ele>
        <time>2022-12-21T10:23:21.319Z</time>
      </trkpt>
      <trkpt lat="46.13794" lon="-1.12886">
        <ele>55.005943</ele>
        <time>2022-12-21T10:23:25.314Z</time>
      </trkpt>
      <trkpt lat="46.1379" lon="-1.12873">
        <ele>55.240621</ele>
        <time>2022-12-21T10:23:30.314Z</time>
      </trkpt>
      <trkpt lat="46.13785" lon="-1.12861">
        <ele>55.462924</ele>
        <time>2022-12-21T10:23:34.329Z</time>
      </trkpt>
      <trkpt lat="46.13781" lon="-1.12849">
        <ele>55.700403</ele>
        <time>2022-12-21T10:23:38.316Z</time>
      </trkpt>
      <trkpt lat="46.13776" lon="-1.12835">
        <ele>55.955596</ele>
        <time>2022-12-21T10:23:42.313Z</time>
      </trkpt>
      <trkpt lat="46.13772" lon="-1.12821">
        <ele>56.207793</ele>
        <time>2022-12-21T10:23:46.318Z</time>
      </trkpt>
      <trkpt lat="46.13766" lon="-1.12807">
        <ele>56.480357</ele>
        <time>2022-12-21T10:23:50.316Z</time>
      </trkpt>
      <trkpt lat="46.1376" lon="-1.12792">
        <ele>56.763905</ele>
        <time>2022-12-21T10:23:54.309Z</time>
      </trkpt>
      <trkpt lat="46.13755" lon="-1.12777">
        <ele>57.039148</ele>
        <time>2022-12-21T10:23:58.322Z</time>
      </trkpt>
      <trkpt lat="46.13749" lon="-1.12762">
        <ele>57.314566</ele>
        <time>2022-12-21T10:24:02.321Z</time>
      </trkpt>
      <trkpt lat="46.13744" lon="-1.12747">
        <ele>57.594462</ele>
        <time>2022-12-21T10:24:06.341Z</time>
      </trkpt>
      <trkpt lat="46.13739" lon="-1.12732">
        <ele>57.866169</ele>
        <time>2022-12-21T10:24:10.315Z</time>
      </trkpt>
      <trkpt lat="46.13734" lon="-1.12717">
        <ele>58.142416</ele>
        <time>2022-12-21T10:24:14.326Z</time>
      </trkpt>
      <trkpt lat="46.13729" lon="-1.12703">
        <ele>58.418284</ele>
        <time>2022-12-21T10:24:18.322Z</time>
      </trkpt>
      <trkpt lat="46.13723" lon="-1.12687">
        <ele>58.675273</ele>
        <time>2022-12-21T10:24:22.314Z</time>
      </trkpt>
      <trkpt lat="46.13718" lon="-1.12672">
        <ele>58.891506</ele>
        <time>2022-12-21T10:24:26.324Z</time>
      </trkpt>
      <trkpt lat="46.13713" lon="-1.12658">
        <ele>59.102268</ele>
        <time>2022-12-21T10:24:30.313Z</time>
      </trkpt>
      <trkpt lat="46.13708" lon="-1.12642">
        <ele>59.325134</ele>
        <time>2022-12-21T10:24:34.341Z</time>
      </trkpt>
      <trkpt lat="46.13703" lon="-1.12631">
        <ele>59.49949</ele>
        <time>2022-12-21T10:24:37.331Z</time>
      </trkpt>
      <trkpt lat="46.13697" lon="-1.12616">
        <ele>59.721224</ele>
        <time>2022-12-21T10:24:41.318Z</time>
      </trkpt>
      <trkpt lat="46.13692" lon="-1.12601">
        <ele>59.942619</ele>
        <time>2022-12-21T10:24:45.342Z</time>
      </trkpt>
      <trkpt lat="46.13688" lon="-1.12588">
        <ele>60.126992</ele>
        <time>2022-12-21T10:24:48.313Z</time>
      </trkpt>
      <trkpt lat="46.13683" lon="-1.12574">
        <ele>60.318016</ele>
        <time>2022-12-21T10:24:51.342Z</time>
      </trkpt>
      <trkpt lat="46.13679" lon="-1.12563">
        <ele>60.48911</ele>
        <time>2022-12-21T10:24:54.340Z</time>
      </trkpt>
      <trkpt lat="46.13674" lon="-1.12548">
        <ele>60.707052</ele>
        <time>2022-12-21T10:24:58.335Z</time>
      </trkpt>
      <trkpt lat="46.1367" lon="-1.12535">
        <ele>60.891123</ele>
        <time>2022-12-21T10:25:02.320Z</time>
      </trkpt>
      <trkpt lat="46.13665" lon="-1.12522">
        <ele>61.081176</ele>
        <time>2022-12-21T10:25:06.338Z</time>
      </trkpt>
      <trkpt lat="46.13661" lon="-1.12509">
        <ele>61.273246</ele>
        <time>2022-12-21T10:25:10.339Z</time>
      </trkpt>
      <trkpt lat="46.13652" lon="-1.12498">
        <ele>61.489601</ele>
        <time>2022-12-21T10:25:14.330Z</time>
      </trkpt>
      <trkpt lat="46.13643" lon="-1.12491">
        <ele>61.679193</ele>
        <time>2022-12-21T10:25:17.340Z</time>
      </trkpt>
      <trkpt lat="46.13637" lon="-1.12478">
        <ele>61.87948</ele>
        <time>2022-12-21T10:25:20.340Z</time>
      </trkpt>
      <trkpt lat="46.13638" lon="-1.12462">
        <ele>61.758542</ele>
        <time>2022-12-21T10:25:23.310Z</time>
      </trkpt>
      <trkpt lat="46.13638" lon="-1.12447">
        <ele>61.496081</ele>
        <time>2022-12-21T10:25:26.319Z</time>
      </trkpt>
      <trkpt lat="46.13633" lon="-1.12432">
        <ele>61.208476</ele>
        <time>2022-12-21T10:25:29.324Z</time>
      </trkpt>
      <trkpt lat="46.13627" lon="-1.12416">
        <ele>60.907278</ele>
        <time>2022-12-21T10:25:32.340Z</time>
      </trkpt>
      <trkpt lat="46.13621" lon="-1.12401">
        <ele>60.613523</ele>
        <time>2022-12-21T10:25:35.316Z</time>
      </trkpt>
      <trkpt lat="46.13617" lon="-1.12386">
        <ele>60.327091</ele>
        <time>2022-12-21T10:25:38.318Z</time>
      </trkpt>
      <trkpt lat="46.13611" lon="-1.12371">
        <ele>60.037603</ele>
        <time>2022-12-21T10:25:41.317Z</time>
      </trkpt>
      <trkpt lat="46.13606" lon="-1.12356">
        <ele>59.745084</ele>
        <time>2022-12-21T10:25:44.333Z</time>
      </trkpt>
      <trkpt lat="46.136" lon="-1.12341">
        <ele>59.457889</ele>
        <time>2022-12-21T10:25:47.325Z</time>
      </trkpt>
      <trkpt lat="46.13595" lon="-1.12326">
        <ele>59.171381</ele>
        <time>2022-12-21T10:25:50.320Z</time>
      </trkpt>
      <trkpt lat="46.1359" lon="-1.12312">
        <ele>58.898253</ele>
        <time>2022-12-21T10:25:53.310Z</time>
      </trkpt>
      <trkpt lat="46.13585" lon="-1.12297">
        <ele>58.611057</ele>
        <time>2022-12-21T10:25:56.341Z</time>
      </trkpt>
      <trkpt lat="46.1358" lon="-1.12283">
        <ele>58.335994</ele>
        <time>2022-12-21T10:25:59.338Z</time>
      </trkpt>
      <trkpt lat="46.13575" lon="-1.12269">
        <ele>58.073147</ele>
        <time>2022-12-21T10:26:02.320Z</time>
      </trkpt>
      <trkpt lat="46.13569" lon="-1.12256">
        <ele>57.820395</ele>
        <time>2022-12-21T10:26:05.324Z</time>
      </trkpt>
      <trkpt lat="46.13565" lon="-1.12243">
        <ele>57.566597</ele>
        <time>2022-12-21T10:26:08.323Z</time>
      </trkpt>
      <trkpt lat="46.13561" lon="-1.1223">
        <ele>57.486539</ele>
        <time>2022-12-21T10:26:11.324Z</time>
      </trkpt>
      <trkpt lat="46.13557" lon="-1.12218">
        <ele>57.475284</ele>
        <time>2022-12-21T10:26:14.329Z</time>
      </trkpt>
      <trkpt lat="46.13553" lon="-1.12206">
        <ele>57.464104</ele>
        <time>2022-12-21T10:26:17.325Z</time>
      </trkpt>
      <trkpt lat="46.13548" lon="-1.12192">
        <ele>57.450727</ele>
        <time>2022-12-21T10:26:20.319Z</time>
      </trkpt>
      <trkpt lat="46.13542" lon="-1.12177">
        <ele>57.436665</ele>
        <time>2022-12-21T10:26:23.317Z</time>
      </trkpt>
      <trkpt lat="46.13537" lon="-1.12161">
        <ele>57.422217</ele>
        <time>2022-12-21T10:26:26.316Z</time>
      </trkpt>
      <trkpt lat="46.13531" lon="-1.12146">
        <ele>57.407844</ele>
        <time>2022-12-21T10:26:29.310Z</time>
      </trkpt>
      <trkpt lat="46.13524" lon="-1.12132">
        <ele>57.393244</ele>
        <time>2022-12-21T10:26:32.339Z</time>
      </trkpt>
      <trkpt lat="46.13518" lon="-1.12118">
        <ele>57.379258</ele>
        <time>2022-12-21T10:26:35.314Z</time>
      </trkpt>
      <trkpt lat="46.1351" lon="-1.12106">
        <ele>57.365931</ele>
        <time>2022-12-21T10:26:38.323Z</time>
      </trkpt>
      <trkpt lat="46.135" lon="-1.12101">
        <ele>57.35362</ele>
        <time>2022-12-21T10:26:41.341Z</time>
      </trkpt>
      <trkpt lat="46.13491" lon="-1.12098">
        <ele>57.341959</ele>
        <time>2022-12-21T10:26:44.315Z</time>
      </trkpt>
      <trkpt lat="46.13482" lon="-1.12091">
        <ele>57.329889</ele>
        <time>2022-12-21T10:26:47.314Z</time>
      </trkpt>
      <trkpt lat="46.13475" lon="-1.12081">
        <ele>57.317979</ele>
        <time>2022-12-21T10:26:50.311Z</time>
      </trkpt>
      <trkpt lat="46.13466" lon="-1.12074">
        <ele>57.30549</ele>
        <time>2022-12-21T10:26:53.312Z</time>
      </trkpt>
      <trkpt lat="46.13457" lon="-1.12068">
        <ele>57.294031</ele>
        <time>2022-12-21T10:26:56.319Z</time>
      </trkpt>
      <trkpt lat="46.13449" lon="-1.12062">
        <ele>57.283142</ele>
        <time>2022-12-21T10:26:59.318Z</time>
      </trkpt>
      <trkpt lat="46.1344" lon="-1.12053">
        <ele>57.132212</ele>
        <time>2022-12-21T10:27:03.310Z</time>
      </trkpt>
      <trkpt lat="46.1343" lon="-1.12045">
        <ele>56.909839</ele>
        <time>2022-12-21T10:27:07.311Z</time>
      </trkpt>
      <trkpt lat="46.13422" lon="-1.12037">
        <ele>56.712099</ele>
        <time>2022-12-21T10:27:10.314Z</time>
      </trkpt>
      <trkpt lat="46.13413" lon="-1.1203">
        <ele>56.510993</ele>
        <time>2022-12-21T10:27:13.317Z</time>
      </trkpt>
      <trkpt lat="46.13404" lon="-1.12022">
        <ele>56.300955</ele>
        <time>2022-12-21T10:27:16.313Z</time>
      </trkpt>
      <trkpt lat="46.13394" lon="-1.12014">
        <ele>56.069176</ele>
        <time>2022-12-21T10:27:19.314Z</time>
      </trkpt>
      <trkpt lat="46.13384" lon="-1.12006">
        <ele>55.833689</ele>
        <time>2022-12-21T10:27:22.340Z</time>
      </trkpt>
      <trkpt lat="46.13374" lon="-1.11998">
        <ele>55.60996</ele>
        <time>2022-12-21T10:27:25.319Z</time>
      </trkpt>
      <trkpt lat="46.13365" lon="-1.11991">
        <ele>55.408551</ele>
        <time>2022-12-21T10:27:28.320Z</time>
      </trkpt>
      <trkpt lat="46.13356" lon="-1.11984">
        <ele>55.212601</ele>
        <time>2022-12-21T10:27:31.333Z</time>
      </trkpt>
      <trkpt lat="46.13348" lon="-1.11977">
        <ele>55.02811</ele>
        <time>2022-12-21T10:27:34.315Z</time>
      </trkpt>
      <trkpt lat="46.13338" lon="-1.11969">
        <ele>54.800242</ele>
        <time>2022-12-21T10:27:38.309Z</time>
      </trkpt>
      <trkpt lat="46.1333" lon="-1.11965">
        <ele>54.620272</ele>
        <time>2022-12-21T10:27:42.342Z</time>
      </trkpt>
      <trkpt lat="46.13321" lon="-1.11974">
        <ele>54.409894</ele>
        <time>2022-12-21T10:27:46.311Z</time>
      </trkpt>
      <trkpt lat="46.13315" lon="-1.11988">
        <ele>54.182176</ele>
        <time>2022-12-21T10:27:49.313Z</time>
      </trkpt>
      <trkpt lat="46.1331" lon="-1.12003">
        <ele>53.949713</ele>
        <time>2022-12-21T10:27:52.309Z</time>
      </trkpt>
      <trkpt lat="46.13303" lon="-1.12017">
        <ele>53.715216</ele>
        <time>2022-12-21T10:27:55.327Z</time>
      </trkpt>
      <trkpt lat="46.13298" lon="-1.12033">
        <ele>53.55818</ele>
        <time>2022-12-21T10:27:58.342Z</time>
      </trkpt>
      <trkpt lat="46.13292" lon="-1.1205">
        <ele>53.398266</ele>
        <time>2022-12-21T10:28:01.328Z</time>
      </trkpt>
      <trkpt lat="46.13286" lon="-1.12067">
        <ele>53.238912</ele>
        <time>2022-12-21T10:28:04.342Z</time>
      </trkpt>
      <trkpt lat="46.13282" lon="-1.12079">
        <ele>53.127774</ele>
        <time>2022-12-21T10:28:06.338Z</time>
      </trkpt>
      <trkpt lat="46.13277" lon="-1.12094">
        <ele>52.981658</ele>
        <time>2022-12-21T10:28:09.317Z</time>
      </trkpt>
      <trkpt lat="46.13273" lon="-1.12111">
        <ele>52.832226</ele>
        <time>2022-12-21T10:28:12.328Z</time>
      </trkpt>
      <trkpt lat="46.13268" lon="-1.12126">
        <ele>52.689832</ele>
        <time>2022-12-21T10:28:15.334Z</time>
      </trkpt>
      <trkpt lat="46.13264" lon="-1.1214">
        <ele>52.560624</ele>
        <time>2022-12-21T10:28:18.324Z</time>
      </trkpt>
      <trkpt lat="46.1326" lon="-1.12155">
        <ele>52.429064</ele>
        <time>2022-12-21T10:28:21.322Z</time>
      </trkpt>
      <trkpt lat="46.13258" lon="-1.12169">
        <ele>52.306712</ele>
        <time>2022-12-21T10:28:24.315Z</time>
      </trkpt>
      <trkpt lat="46.13258" lon="-1.12182">
        <ele>52.190246</ele>
        <time>2022-12-21T10:28:27.320Z</time>
      </trkpt>
      <trkpt lat="46.13254" lon="-1.12195">
        <ele>52.073427</ele>
        <time>2022-12-21T10:28:30.342Z</time>
      </trkpt>
      <trkpt lat="46.13243" lon="-1.12199">
        <ele>51.926919</ele>
        <time>2022-12-21T10:28:34.342Z</time>
      </trkpt>
      <trkpt lat="46.13233" lon="-1.12195">
        <ele>51.805241</ele>
        <time>2022-12-21T10:28:37.338Z</time>
      </trkpt>
      <trkpt lat="46.13223" lon="-1.12196">
        <ele>51.687462</ele>
        <time>2022-12-21T10:28:40.339Z</time>
      </trkpt>
      <trkpt lat="46.13213" lon="-1.12198">
        <ele>51.563371</ele>
        <time>2022-12-21T10:28:43.340Z</time>
      </trkpt>
      <trkpt lat="46.13203" lon="-1.122">
        <ele>51.490828</ele>
        <time>2022-12-21T10:28:46.331Z</time>
      </trkpt>
      <trkpt lat="46.13192" lon="-1.12203">
        <ele>51.475955</ele>
        <time>2022-12-21T10:28:49.318Z</time>
      </trkpt>
      <trkpt lat="46.13181" lon="-1.12206">
        <ele>51.461344</ele>
        <time>2022-12-21T10:28:52.317Z</time>
      </trkpt>
      <trkpt lat="46.1317" lon="-1.1221">
        <ele>51.446394</ele>
        <time>2022-12-21T10:28:55.326Z</time>
      </trkpt>
      <trkpt lat="46.1316" lon="-1.12215">
        <ele>51.431756</ele>
        <time>2022-12-21T10:28:58.333Z</time>
      </trkpt>
      <trkpt lat="46.1315" lon="-1.12221">
        <ele>51.416903</ele>
        <time>2022-12-21T10:29:01.312Z</time>
      </trkpt>
      <trkpt lat="46.1314" lon="-1.12227">
        <ele>51.402384</ele>
        <time>2022-12-21T10:29:04.325Z</time>
      </trkpt>
      <trkpt lat="46.1313" lon="-1.12231">
        <ele>51.388388</ele>
        <time>2022-12-21T10:29:07.307Z</time>
      </trkpt>
      <trkpt lat="46.1312" lon="-1.12237">
        <ele>51.374502</ele>
        <time>2022-12-21T10:29:10.315Z</time>
      </trkpt>
      <trkpt lat="46.1311" lon="-1.12243">
        <ele>51.359612</ele>
        <time>2022-12-21T10:29:13.313Z</time>
      </trkpt>
      <trkpt lat="46.131" lon="-1.12249">
        <ele>51.345211</ele>
        <time>2022-12-21T10:29:16.312Z</time>
      </trkpt>
      <trkpt lat="46.13091" lon="-1.12256">
        <ele>51.331212</ele>
        <time>2022-12-21T10:29:19.314Z</time>
      </trkpt>
      <trkpt lat="46.13082" lon="-1.12263">
        <ele>51.318226</ele>
        <time>2022-12-21T10:29:22.318Z</time>
      </trkpt>
      <trkpt lat="46.13073" lon="-1.1227">
        <ele>51.305024</ele>
        <time>2022-12-21T10:29:25.309Z</time>
      </trkpt>
      <trkpt lat="46.13064" lon="-1.12276">
        <ele>51.291373</ele>
        <time>2022-12-21T10:29:28.320Z</time>
      </trkpt>
      <trkpt lat="46.13054" lon="-1.12281">
        <ele>51.276765</ele>
        <time>2022-12-21T10:29:31.338Z</time>
      </trkpt>
      <trkpt lat="46.13044" lon="-1.12285">
        <ele>51.262924</ele>
        <time>2022-12-21T10:29:34.340Z</time>
      </trkpt>
      <trkpt lat="46.13034" lon="-1.12288">
        <ele>51.291731</ele>
        <time>2022-12-21T10:29:37.318Z</time>
      </trkpt>
      <trkpt lat="46.13024" lon="-1.1229">
        <ele>51.351472</ele>
        <time>2022-12-21T10:29:40.344Z</time>
      </trkpt>
      <trkpt lat="46.13014" lon="-1.12292">
        <ele>51.41093</ele>
        <time>2022-12-21T10:29:43.311Z</time>
      </trkpt>
      <trkpt lat="46.13004" lon="-1.12292">
        <ele>51.465466</ele>
        <time>2022-12-21T10:29:46.322Z</time>
      </trkpt>
      <trkpt lat="46.12997" lon="-1.123">
        <ele>51.521331</ele>
        <time>2022-12-21T10:29:50.338Z</time>
      </trkpt>
      <trkpt lat="46.12997" lon="-1.12318">
        <ele>51.593679</ele>
        <time>2022-12-21T10:29:54.340Z</time>
      </trkpt>
      <trkpt lat="46.12998" lon="-1.12333">
        <ele>51.658229</ele>
        <time>2022-12-21T10:29:57.328Z</time>
      </trkpt>
      <trkpt lat="46.12993" lon="-1.12345">
        <ele>51.713972</ele>
        <time>2022-12-21T10:30:00.334Z</time>
      </trkpt>
      <trkpt lat="46.12984" lon="-1.12347">
        <ele>51.768758</ele>
        <time>2022-12-21T10:30:03.329Z</time>
      </trkpt>
      <trkpt lat="46.12974" lon="-1.12342">
        <ele>51.83091</ele>
        <time>2022-12-21T10:30:06.337Z</time>
      </trkpt>
      <trkpt lat="46.12963" lon="-1.12336">
        <ele>51.895555</ele>
        <time>2022-12-21T10:30:09.315Z</time>
      </trkpt>
      <trkpt lat="46.12953" lon="-1.12334">
        <ele>51.959785</ele>
        <time>2022-12-21T10:30:12.313Z</time>
      </trkpt>
      <trkpt lat="46.12941" lon="-1.12333">
        <ele>52.026048</ele>
        <time>2022-12-21T10:30:15.320Z</time>
      </trkpt>
      <trkpt lat="46.1293" lon="-1.12333">
        <ele>52.093469</ele>
        <time>2022-12-21T10:30:18.320Z</time>
      </trkpt>
      <trkpt lat="46.12919" lon="-1.12334">
        <ele>52.159226</ele>
        <time>2022-12-21T10:30:21.316Z</time>
      </trkpt>
      <trkpt lat="46.12907" lon="-1.12335">
        <ele>52.22613</ele>
        <time>2022-12-21T10:30:24.323Z</time>
      </trkpt>
      <trkpt lat="46.12897" lon="-1.1234">
        <ele>52.288702</ele>
        <time>2022-12-21T10:30:27.312Z</time>
      </trkpt>
      <trkpt lat="46.12891" lon="-1.12353">
        <ele>52.320047</ele>
        <time>2022-12-21T10:30:30.337Z</time>
      </trkpt>
      <trkpt lat="46.12891" lon="-1.12368">
        <ele>52.334006</ele>
        <time>2022-12-21T10:30:33.341Z</time>
      </trkpt>
      <trkpt lat="46.12894" lon="-1.12384">
        <ele>52.349618</ele>
        <time>2022-12-21T10:30:36.323Z</time>
      </trkpt>
      <trkpt lat="46.12899" lon="-1.124">
        <ele>52.366112</ele>
        <time>2022-12-21T10:30:39.335Z</time>
      </trkpt>
      <trkpt lat="46.12905" lon="-1.12415">
        <ele>52.3821</ele>
        <time>2022-12-21T10:30:42.323Z</time>
      </trkpt>
      <trkpt lat="46.12909" lon="-1.12431">
        <ele>52.39776</ele>
        <time>2022-12-21T10:30:45.323Z</time>
      </trkpt>
      <trkpt lat="46.12911" lon="-1.12446">
        <ele>52.411977</ele>
        <time>2022-12-21T10:30:48.342Z</time>
      </trkpt>
      <trkpt lat="46.12906" lon="-1.1246">
        <ele>52.427286</ele>
        <time>2022-12-21T10:30:52.329Z</time>
      </trkpt>
      <trkpt lat="46.12898" lon="-1.12467">
        <ele>52.440113</ele>
        <time>2022-12-21T10:30:55.345Z</time>
      </trkpt>
      <trkpt lat="46.12888" lon="-1.12469">
        <ele>52.453399</ele>
        <time>2022-12-21T10:30:58.342Z</time>
      </trkpt>
      <trkpt lat="46.12878" lon="-1.1247">
        <ele>52.466875</ele>
        <time>2022-12-21T10:31:01.325Z</time>
      </trkpt>
      <trkpt lat="46.12868" lon="-1.12472">
        <ele>52.480543</ele>
        <time>2022-12-21T10:31:04.341Z</time>
      </trkpt>
      <trkpt lat="46.12858" lon="-1.12475">
        <ele>52.494509</ele>
        <time>2022-12-21T10:31:07.309Z</time>
      </trkpt>
      <trkpt lat="46.12848" lon="-1.12477">
        <ele>52.508412</ele>
        <time>2022-12-21T10:31:10.323Z</time>
      </trkpt>
      <trkpt lat="46.12838" lon="-1.1248">
        <ele>52.521681</ele>
        <time>2022-12-21T10:31:13.342Z</time>
      </trkpt>
      <trkpt lat="46.12828" lon="-1.12483">
        <ele>52.535154</ele>
        <time>2022-12-21T10:31:16.312Z</time>
      </trkpt>
      <trkpt lat="46.12818" lon="-1.12486">
        <ele>52.548909</ele>
        <time>2022-12-21T10:31:19.321Z</time>
      </trkpt>
      <trkpt lat="46.12808" lon="-1.12488">
        <ele>52.597707</ele>
        <time>2022-12-21T10:31:22.322Z</time>
      </trkpt>
      <trkpt lat="46.12798" lon="-1.12489">
        <ele>52.664908</ele>
        <time>2022-12-21T10:31:25.316Z</time>
      </trkpt>
      <trkpt lat="46.12788" lon="-1.12491">
        <ele>52.734184</ele>
        <time>2022-12-21T10:31:28.330Z</time>
      </trkpt>
      <trkpt lat="46.12778" lon="-1.12491">
        <ele>52.801225</ele>
        <time>2022-12-21T10:31:31.342Z</time>
      </trkpt>
      <trkpt lat="46.12768" lon="-1.12491">
        <ele>52.866254</ele>
        <time>2022-12-21T10:31:34.321Z</time>
      </trkpt>
      <trkpt lat="46.12759" lon="-1.12492">
        <ele>52.930749</ele>
        <time>2022-12-21T10:31:37.322Z</time>
      </trkpt>
      <trkpt lat="46.12747" lon="-1.12493">
        <ele>53.009383</ele>
        <time>2022-12-21T10:31:41.323Z</time>
      </trkpt>
      <trkpt lat="46.1274" lon="-1.12502">
        <ele>53.071121</ele>
        <time>2022-12-21T10:31:45.322Z</time>
      </trkpt>
      <trkpt lat="46.12743" lon="-1.12516">
        <ele>53.140795</ele>
        <time>2022-12-21T10:31:49.322Z</time>
      </trkpt>
      <trkpt lat="46.12747" lon="-1.12528">
        <ele>53.204629</ele>
        <time>2022-12-21T10:31:52.319Z</time>
      </trkpt>
      <trkpt lat="46.12751" lon="-1.12542">
        <ele>53.271648</ele>
        <time>2022-12-21T10:31:55.332Z</time>
      </trkpt>
      <trkpt lat="46.12755" lon="-1.12556">
        <ele>53.341699</ele>
        <time>2022-12-21T10:31:58.314Z</time>
      </trkpt>
      <trkpt lat="46.12757" lon="-1.12572">
        <ele>53.416546</ele>
        <time>2022-12-21T10:32:01.324Z</time>
      </trkpt>
      <trkpt lat="46.12759" lon="-1.12585">
        <ele>53.482051</ele>
        <time>2022-12-21T10:32:04.341Z</time>
      </trkpt>
      <trkpt lat="46.12761" lon="-1.12599">
        <ele>53.547871</ele>
        <time>2022-12-21T10:32:07.323Z</time>
      </trkpt>
      <trkpt lat="46.12762" lon="-1.12614">
        <ele>53.614798</ele>
        <time>2022-12-21T10:32:10.334Z</time>
      </trkpt>
      <trkpt lat="46.12763" lon="-1.12629">
        <ele>53.685624</ele>
        <time>2022-12-21T10:32:13.341Z</time>
      </trkpt>
      <trkpt lat="46.12763" lon="-1.12645">
        <ele>53.758573</ele>
        <time>2022-12-21T10:32:16.308Z</time>
      </trkpt>
      <trkpt lat="46.12763" lon="-1.1266">
        <ele>53.771337</ele>
        <time>2022-12-21T10:32:19.339Z</time>
      </trkpt>
      <trkpt lat="46.12763" lon="-1.12675">
        <ele>53.783015</ele>
        <time>2022-12-21T10:32:22.314Z</time>
      </trkpt>
      <trkpt lat="46.12763" lon="-1.12688">
        <ele>53.793734</ele>
        <time>2022-12-21T10:32:25.322Z</time>
      </trkpt>
      <trkpt lat="46.12762" lon="-1.12703">
        <ele>53.805748</ele>
        <time>2022-12-21T10:32:28.341Z</time>
      </trkpt>
      <trkpt lat="46.12761" lon="-1.12719">
        <ele>53.8185</ele>
        <time>2022-12-21T10:32:31.345Z</time>
      </trkpt>
      <trkpt lat="46.1276" lon="-1.12735">
        <ele>53.830831</ele>
        <time>2022-12-21T10:32:34.339Z</time>
      </trkpt>
      <trkpt lat="46.12761" lon="-1.1275">
        <ele>53.843327</ele>
        <time>2022-12-21T10:32:37.316Z</time>
      </trkpt>
      <trkpt lat="46.12763" lon="-1.12766">
        <ele>53.856066</ele>
        <time>2022-12-21T10:32:40.339Z</time>
      </trkpt>
      <trkpt lat="46.12766" lon="-1.12782">
        <ele>53.869438</ele>
        <time>2022-12-21T10:32:43.345Z</time>
      </trkpt>
      <trkpt lat="46.1277" lon="-1.12798">
        <ele>53.882641</ele>
        <time>2022-12-21T10:32:46.313Z</time>
      </trkpt>
      <trkpt lat="46.12773" lon="-1.12812">
        <ele>53.894406</ele>
        <time>2022-12-21T10:32:49.329Z</time>
      </trkpt>
      <trkpt lat="46.12774" lon="-1.12826">
        <ele>53.905591</ele>
        <time>2022-12-21T10:32:53.339Z</time>
      </trkpt>
      <trkpt lat="46.12768" lon="-1.12839">
        <ele>53.918053</ele>
        <time>2022-12-21T10:32:58.329Z</time>
      </trkpt>
      <trkpt lat="46.12761" lon="-1.12849">
        <ele>53.928899</ele>
        <time>2022-12-21T10:33:02.332Z</time>
      </trkpt>
      <trkpt lat="46.12752" lon="-1.12854">
        <ele>53.94032</ele>
        <time>2022-12-21T10:33:06.321Z</time>
      </trkpt>
      <trkpt lat="46.12744" lon="-1.12843">
        <ele>53.952785</ele>
        <time>2022-12-21T10:33:10.330Z</time>
      </trkpt>
      <trkpt lat="46.12737" lon="-1.12832">
        <ele>53.965069</ele>
        <time>2022-12-21T10:33:14.315Z</time>
      </trkpt>
      <trkpt lat="46.12728" lon="-1.1282">
        <ele>54.048359</ele>
        <time>2022-12-21T10:33:18.320Z</time>
      </trkpt>
      <trkpt lat="46.12721" lon="-1.12812">
        <ele>54.11184</ele>
        <time>2022-12-21T10:33:21.324Z</time>
      </trkpt>
      <trkpt lat="46.12713" lon="-1.12803">
        <ele>54.180718</ele>
        <time>2022-12-21T10:33:24.312Z</time>
      </trkpt>
      <trkpt lat="46.12706" lon="-1.12793">
        <ele>54.251826</ele>
        <time>2022-12-21T10:33:27.319Z</time>
      </trkpt>
      <trkpt lat="46.12698" lon="-1.12785">
        <ele>54.319927</ele>
        <time>2022-12-21T10:33:30.322Z</time>
      </trkpt>
      <trkpt lat="46.1269" lon="-1.12776">
        <ele>54.390906</ele>
        <time>2022-12-21T10:33:33.316Z</time>
      </trkpt>
      <trkpt lat="46.12682" lon="-1.12767">
        <ele>54.462438</ele>
        <time>2022-12-21T10:33:36.315Z</time>
      </trkpt>
      <trkpt lat="46.12673" lon="-1.12758">
        <ele>54.533084</ele>
        <time>2022-12-21T10:33:39.313Z</time>
      </trkpt>
      <trkpt lat="46.12665" lon="-1.1275">
        <ele>54.604046</ele>
        <time>2022-12-21T10:33:43.314Z</time>
      </trkpt>
      <trkpt lat="46.12656" lon="-1.12741">
        <ele>54.681237</ele>
        <time>2022-12-21T10:33:48.325Z</time>
      </trkpt>
      <trkpt lat="46.12647" lon="-1.12733">
        <ele>54.753109</ele>
        <time>2022-12-21T10:33:52.549Z</time>
      </trkpt>
      <trkpt lat="46.12638" lon="-1.12727">
        <ele>54.823552</ele>
        <time>2022-12-21T10:33:56.311Z</time>
      </trkpt>
      <trkpt lat="46.12628" lon="-1.1272">
        <ele>54.902016</ele>
        <time>2022-12-21T10:34:00.323Z</time>
      </trkpt>
      <trkpt lat="46.12618" lon="-1.12713">
        <ele>54.981708</ele>
        <time>2022-12-21T10:34:04.304Z</time>
      </trkpt>
      <trkpt lat="46.12607" lon="-1.12707">
        <ele>55.064696</ele>
        <time>2022-12-21T10:34:08.338Z</time>
      </trkpt>
      <trkpt lat="46.12596" lon="-1.127">
        <ele>55.145928</ele>
        <time>2022-12-21T10:34:12.328Z</time>
      </trkpt>
      <trkpt lat="46.12588" lon="-1.12693">
        <ele>55.209443</ele>
        <time>2022-12-21T10:34:15.315Z</time>
      </trkpt>
      <trkpt lat="46.12579" lon="-1.12684">
        <ele>55.150324</ele>
        <time>2022-12-21T10:34:19.335Z</time>
      </trkpt>
      <trkpt lat="46.12571" lon="-1.12678">
        <ele>55.079685</ele>
        <time>2022-12-21T10:34:22.341Z</time>
      </trkpt>
      <trkpt lat="46.12562" lon="-1.12672">
        <ele>55.004989</ele>
        <time>2022-12-21T10:34:25.322Z</time>
      </trkpt>
      <trkpt lat="46.12553" lon="-1.12666">
        <ele>54.929088</ele>
        <time>2022-12-21T10:34:28.325Z</time>
      </trkpt>
      <trkpt lat="46.12545" lon="-1.12659">
        <ele>54.857775</ele>
        <time>2022-12-21T10:34:31.322Z</time>
      </trkpt>
      <trkpt lat="46.12534" lon="-1.12653">
        <ele>54.769126</ele>
        <time>2022-12-21T10:34:35.324Z</time>
      </trkpt>
      <trkpt lat="46.12525" lon="-1.12648">
        <ele>54.692938</ele>
        <time>2022-12-21T10:34:38.320Z</time>
      </trkpt>
      <trkpt lat="46.12515" lon="-1.12641">
        <ele>54.609646</ele>
        <time>2022-12-21T10:34:41.330Z</time>
      </trkpt>
      <trkpt lat="46.12505" lon="-1.12634">
        <ele>54.52335</ele>
        <time>2022-12-21T10:34:44.323Z</time>
      </trkpt>
      <trkpt lat="46.12495" lon="-1.12627">
        <ele>54.43473</ele>
        <time>2022-12-21T10:34:47.316Z</time>
      </trkpt>
      <trkpt lat="46.12485" lon="-1.12621">
        <ele>54.347481</ele>
        <time>2022-12-21T10:34:50.313Z</time>
      </trkpt>
      <trkpt lat="46.12476" lon="-1.12616">
        <ele>54.272286</ele>
        <time>2022-12-21T10:34:53.321Z</time>
      </trkpt>
      <trkpt lat="46.12467" lon="-1.1261">
        <ele>54.201754</ele>
        <time>2022-12-21T10:34:56.310Z</time>
      </trkpt>
      <trkpt lat="46.12457" lon="-1.12603">
        <ele>54.116141</ele>
        <time>2022-12-21T10:35:00.317Z</time>
      </trkpt>
      <trkpt lat="46.12449" lon="-1.12597">
        <ele>54.046311</ele>
        <time>2022-12-21T10:35:03.313Z</time>
      </trkpt>
      <trkpt lat="46.12439" lon="-1.12592">
        <ele>53.963998</ele>
        <time>2022-12-21T10:35:06.321Z</time>
      </trkpt>
      <trkpt lat="46.12428" lon="-1.12585">
        <ele>53.870774</ele>
        <time>2022-12-21T10:35:09.317Z</time>
      </trkpt>
      <trkpt lat="46.12417" lon="-1.12577">
        <ele>53.782119</ele>
        <time>2022-12-21T10:35:12.322Z</time>
      </trkpt>
      <trkpt lat="46.12407" lon="-1.1257">
        <ele>53.698773</ele>
        <time>2022-12-21T10:35:15.311Z</time>
      </trkpt>
      <trkpt lat="46.12397" lon="-1.12563">
        <ele>53.620592</ele>
        <time>2022-12-21T10:35:18.342Z</time>
      </trkpt>
      <trkpt lat="46.12386" lon="-1.12558">
        <ele>53.536842</ele>
        <time>2022-12-21T10:35:21.322Z</time>
      </trkpt>
      <trkpt lat="46.12375" lon="-1.1255">
        <ele>53.447705</ele>
        <time>2022-12-21T10:35:24.308Z</time>
      </trkpt>
      <trkpt lat="46.12363" lon="-1.12544">
        <ele>53.360066</ele>
        <time>2022-12-21T10:35:27.316Z</time>
      </trkpt>
      <trkpt lat="46.12352" lon="-1.12537">
        <ele>53.274309</ele>
        <time>2022-12-21T10:35:30.310Z</time>
      </trkpt>
      <trkpt lat="46.12341" lon="-1.12531">
        <ele>53.192234</ele>
        <time>2022-12-21T10:35:33.310Z</time>
      </trkpt>
      <trkpt lat="46.12332" lon="-1.12527">
        <ele>53.124363</ele>
        <time>2022-12-21T10:35:36.310Z</time>
      </trkpt>
      <trkpt lat="46.12319" lon="-1.12517">
        <ele>53.016953</ele>
        <time>2022-12-21T10:36:38.325Z</time>
      </trkpt>
      <trkpt lat="46.1231" lon="-1.12512">
        <ele>52.949625</ele>
        <time>2022-12-21T10:36:41.319Z</time>
      </trkpt>
      <trkpt lat="46.12301" lon="-1.12506">
        <ele>52.87699</ele>
        <time>2022-12-21T10:36:44.322Z</time>
      </trkpt>
      <trkpt lat="46.12292" lon="-1.125">
        <ele>52.804171</ele>
        <time>2022-12-21T10:36:47.317Z</time>
      </trkpt>
      <trkpt lat="46.12283" lon="-1.12493">
        <ele>52.734124</ele>
        <time>2022-12-21T10:36:50.327Z</time>
      </trkpt>
      <trkpt lat="46.12274" lon="-1.12488">
        <ele>52.660939</ele>
        <time>2022-12-21T10:36:53.331Z</time>
      </trkpt>
      <trkpt lat="46.12264" lon="-1.12482">
        <ele>52.583696</ele>
        <time>2022-12-21T10:36:56.321Z</time>
      </trkpt>
      <trkpt lat="46.12254" lon="-1.12474">
        <ele>52.531609</ele>
        <time>2022-12-21T10:36:59.320Z</time>
      </trkpt>
      <trkpt lat="46.12244" lon="-1.12469">
        <ele>52.500496</ele>
        <time>2022-12-21T10:37:02.339Z</time>
      </trkpt>
      <trkpt lat="46.12234" lon="-1.12463">
        <ele>52.470592</ele>
        <time>2022-12-21T10:37:05.315Z</time>
      </trkpt>
      <trkpt lat="46.12225" lon="-1.12458">
        <ele>52.442312</ele>
        <time>2022-12-21T10:37:08.318Z</time>
      </trkpt>
      <trkpt lat="46.12216" lon="-1.12452">
        <ele>52.414863</ele>
        <time>2022-12-21T10:37:11.320Z</time>
      </trkpt>
      <trkpt lat="46.12207" lon="-1.12447">
        <ele>52.385638</ele>
        <time>2022-12-21T10:37:14.321Z</time>
      </trkpt>
      <trkpt lat="46.12197" lon="-1.12441">
        <ele>52.355794</ele>
        <time>2022-12-21T10:37:17.312Z</time>
      </trkpt>
      <trkpt lat="46.12187" lon="-1.12435">
        <ele>52.323881</ele>
        <time>2022-12-21T10:37:20.326Z</time>
      </trkpt>
      <trkpt lat="46.12176" lon="-1.1243">
        <ele>52.291628</ele>
        <time>2022-12-21T10:37:23.313Z</time>
      </trkpt>
      <trkpt lat="46.12166" lon="-1.12423">
        <ele>52.260756</ele>
        <time>2022-12-21T10:37:26.331Z</time>
      </trkpt>
      <trkpt lat="46.12156" lon="-1.12417">
        <ele>52.229153</ele>
        <time>2022-12-21T10:37:29.323Z</time>
      </trkpt>
      <trkpt lat="46.12146" lon="-1.12412">
        <ele>52.199733</ele>
        <time>2022-12-21T10:37:32.318Z</time>
      </trkpt>
      <trkpt lat="46.12136" lon="-1.12406">
        <ele>52.166749</ele>
        <time>2022-12-21T10:37:36.323Z</time>
      </trkpt>
      <trkpt lat="46.12127" lon="-1.12401">
        <ele>52.139945</ele>
        <time>2022-12-21T10:37:39.322Z</time>
      </trkpt>
      <trkpt lat="46.12117" lon="-1.12396">
        <ele>52.11053</ele>
        <time>2022-12-21T10:37:42.320Z</time>
      </trkpt>
      <trkpt lat="46.12107" lon="-1.12392">
        <ele>52.079784</ele>
        <time>2022-12-21T10:37:45.313Z</time>
      </trkpt>
      <trkpt lat="46.12097" lon="-1.12388">
        <ele>52.050579</ele>
        <time>2022-12-21T10:37:48.327Z</time>
      </trkpt>
      <trkpt lat="46.12087" lon="-1.12385">
        <ele>52.010444</ele>
        <time>2022-12-21T10:37:53.319Z</time>
      </trkpt>
      <trkpt lat="46.12077" lon="-1.12382">
        <ele>51.951368</ele>
        <time>2022-12-21T10:38:04.329Z</time>
      </trkpt>
      <trkpt lat="46.12067" lon="-1.12378">
        <ele>51.887816</ele>
        <time>2022-12-21T10:38:09.322Z</time>
      </trkpt>
      <trkpt lat="46.12057" lon="-1.12375">
        <ele>51.830817</ele>
        <time>2022-12-21T10:38:13.315Z</time>
      </trkpt>
      <trkpt lat="46.12046" lon="-1.12371">
        <ele>51.763327</ele>
        <time>2022-12-21T10:38:17.317Z</time>
      </trkpt>
      <trkpt lat="46.12037" lon="-1.12369">
        <ele>51.71015</ele>
        <time>2022-12-21T10:38:20.337Z</time>
      </trkpt>
      <trkpt lat="46.12028" lon="-1.12365">
        <ele>51.655093</ele>
        <time>2022-12-21T10:38:23.326Z</time>
      </trkpt>
      <trkpt lat="46.12018" lon="-1.12362">
        <ele>51.598837</ele>
        <time>2022-12-21T10:38:26.327Z</time>
      </trkpt>
      <trkpt lat="46.12009" lon="-1.12359">
        <ele>51.545394</ele>
        <time>2022-12-21T10:38:29.316Z</time>
      </trkpt>
      <trkpt lat="46.12" lon="-1.12355">
        <ele>51.492223</ele>
        <time>2022-12-21T10:38:32.316Z</time>
      </trkpt>
      <trkpt lat="46.11991" lon="-1.1235">
        <ele>51.435581</ele>
        <time>2022-12-21T10:38:35.319Z</time>
      </trkpt>
      <trkpt lat="46.11982" lon="-1.12346">
        <ele>51.379414</ele>
        <time>2022-12-21T10:38:38.316Z</time>
      </trkpt>
      <trkpt lat="46.11973" lon="-1.1234">
        <ele>51.321895</ele>
        <time>2022-12-21T10:38:41.308Z</time>
      </trkpt>
      <trkpt lat="46.11964" lon="-1.12336">
        <ele>51.27028</ele>
        <time>2022-12-21T10:38:44.318Z</time>
      </trkpt>
      <trkpt lat="46.11954" lon="-1.12332">
        <ele>51.207127</ele>
        <time>2022-12-21T10:38:48.314Z</time>
      </trkpt>
      <trkpt lat="46.11943" lon="-1.12328">
        <ele>51.143195</ele>
        <time>2022-12-21T10:38:52.313Z</time>
      </trkpt>
      <trkpt lat="46.11932" lon="-1.12324">
        <ele>51.076915</ele>
        <time>2022-12-21T10:38:56.338Z</time>
      </trkpt>
      <trkpt lat="46.1192" lon="-1.12319">
        <ele>51.008094</ele>
        <time>2022-12-21T10:39:00.313Z</time>
      </trkpt>
      <trkpt lat="46.1191" lon="-1.12317">
        <ele>50.99111</ele>
        <time>2022-12-21T10:39:03.347Z</time>
      </trkpt>
      <trkpt lat="46.11901" lon="-1.12314">
        <ele>50.985983</ele>
        <time>2022-12-21T10:39:06.315Z</time>
      </trkpt>
      <trkpt lat="46.11891" lon="-1.12311">
        <ele>50.980264</ele>
        <time>2022-12-21T10:39:10.323Z</time>
      </trkpt>
      <trkpt lat="46.11881" lon="-1.12307">
        <ele>50.974971</ele>
        <time>2022-12-21T10:39:14.338Z</time>
      </trkpt>
      <trkpt lat="46.1187" lon="-1.12304">
        <ele>50.968769</ele>
        <time>2022-12-21T10:39:18.316Z</time>
      </trkpt>
      <trkpt lat="46.11859" lon="-1.12302">
        <ele>50.963102</ele>
        <time>2022-12-21T10:39:22.309Z</time>
      </trkpt>
      <trkpt lat="46.11852" lon="-1.12312">
        <ele>50.957717</ele>
        <time>2022-12-21T10:39:28.324Z</time>
      </trkpt>
      <trkpt lat="46.1185" lon="-1.12342">
        <ele>50.946293</ele>
        <time>2022-12-21T10:41:06.312Z</time>
      </trkpt>
      <trkpt lat="46.11841" lon="-1.12352">
        <ele>50.940504</ele>
        <time>2022-12-21T10:41:11.313Z</time>
      </trkpt>
      <trkpt lat="46.1183" lon="-1.12351">
        <ele>50.934427</ele>
        <time>2022-12-21T10:41:15.310Z</time>
      </trkpt>
      <trkpt lat="46.11821" lon="-1.12349">
        <ele>50.929596</ele>
        <time>2022-12-21T10:41:18.337Z</time>
      </trkpt>
      <trkpt lat="46.11809" lon="-1.12346">
        <ele>50.92321</ele>
        <time>2022-12-21T10:41:22.331Z</time>
      </trkpt>
      <trkpt lat="46.11799" lon="-1.12343">
        <ele>50.917925</ele>
        <time>2022-12-21T10:41:25.330Z</time>
      </trkpt>
      <trkpt lat="46.1179" lon="-1.12341">
        <ele>50.912723</ele>
        <time>2022-12-21T10:41:28.332Z</time>
      </trkpt>
      <trkpt lat="46.11781" lon="-1.12339">
        <ele>50.907787</ele>
        <time>2022-12-21T10:41:31.313Z</time>
      </trkpt>
      <trkpt lat="46.11771" lon="-1.12336">
        <ele>50.902218</ele>
        <time>2022-12-21T10:41:34.336Z</time>
      </trkpt>
      <trkpt lat="46.1176" lon="-1.12334">
        <ele>50.835714</ele>
        <time>2022-12-21T10:41:37.322Z</time>
      </trkpt>
      <trkpt lat="46.11749" lon="-1.12332">
        <ele>50.696192</ele>
        <time>2022-12-21T10:41:40.327Z</time>
      </trkpt>
      <trkpt lat="46.1174" lon="-1.12332">
        <ele>50.565562</ele>
        <time>2022-12-21T10:41:43.330Z</time>
      </trkpt>
      <trkpt lat="46.1173" lon="-1.1233">
        <ele>50.431818</ele>
        <time>2022-12-21T10:41:46.316Z</time>
      </trkpt>
      <trkpt lat="46.1172" lon="-1.12329">
        <ele>50.29008</ele>
        <time>2022-12-21T10:41:50.337Z</time>
      </trkpt>
      <trkpt lat="46.1171" lon="-1.12326">
        <ele>50.155658</ele>
        <time>2022-12-21T10:41:55.334Z</time>
      </trkpt>
      <trkpt lat="46.11699" lon="-1.12323">
        <ele>50.008945</ele>
        <time>2022-12-21T10:41:59.332Z</time>
      </trkpt>
      <trkpt lat="46.1169" lon="-1.12323">
        <ele>49.878315</ele>
        <time>2022-12-21T10:42:02.325Z</time>
      </trkpt>
      <trkpt lat="46.1168" lon="-1.12321">
        <ele>49.739071</ele>
        <time>2022-12-21T10:42:05.329Z</time>
      </trkpt>
      <trkpt lat="46.1167" lon="-1.1232">
        <ele>49.610465</ele>
        <time>2022-12-21T10:42:08.328Z</time>
      </trkpt>
      <trkpt lat="46.11661" lon="-1.12318">
        <ele>49.480171</ele>
        <time>2022-12-21T10:42:11.333Z</time>
      </trkpt>
      <trkpt lat="46.11649" lon="-1.12318">
        <ele>49.323763</ele>
        <time>2022-12-21T10:42:15.323Z</time>
      </trkpt>
      <trkpt lat="46.1164" lon="-1.12319">
        <ele>49.196792</ele>
        <time>2022-12-21T10:42:18.326Z</time>
      </trkpt>
      <trkpt lat="46.1163" lon="-1.12322">
        <ele>49.064459</ele>
        <time>2022-12-21T10:42:21.333Z</time>
      </trkpt>
      <trkpt lat="46.11621" lon="-1.12325">
        <ele>48.93663</ele>
        <time>2022-12-21T10:42:24.314Z</time>
      </trkpt>
      <trkpt lat="46.11614" lon="-1.12334">
        <ele>48.801866</ele>
        <time>2022-12-21T10:42:27.333Z</time>
      </trkpt>
      <trkpt lat="46.11603" lon="-1.12342">
        <ele>48.641147</ele>
        <time>2022-12-21T10:42:31.320Z</time>
      </trkpt>
      <trkpt lat="46.11591" lon="-1.12343">
        <ele>48.481908</ele>
        <time>2022-12-21T10:42:35.329Z</time>
      </trkpt>
      <trkpt lat="46.11582" lon="-1.12343">
        <ele>48.447193</ele>
        <time>2022-12-21T10:42:38.331Z</time>
      </trkpt>
      <trkpt lat="46.11572" lon="-1.12342">
        <ele>48.43973</ele>
        <time>2022-12-21T10:42:41.325Z</time>
      </trkpt>
      <trkpt lat="46.11562" lon="-1.12341">
        <ele>48.431901</ele>
        <time>2022-12-21T10:42:44.310Z</time>
      </trkpt>
      <trkpt lat="46.11552" lon="-1.12343">
        <ele>48.424192</ele>
        <time>2022-12-21T10:42:47.334Z</time>
      </trkpt>
      <trkpt lat="46.11542" lon="-1.12344">
        <ele>48.416471</ele>
        <time>2022-12-21T10:42:50.326Z</time>
      </trkpt>
      <trkpt lat="46.11533" lon="-1.12346">
        <ele>48.409045</ele>
        <time>2022-12-21T10:42:53.334Z</time>
      </trkpt>
      <trkpt lat="46.11522" lon="-1.12348">
        <ele>48.400125</ele>
        <time>2022-12-21T10:42:57.318Z</time>
      </trkpt>
      <trkpt lat="46.11512" lon="-1.12346">
        <ele>48.39225</ele>
        <time>2022-12-21T10:43:02.323Z</time>
      </trkpt>
      <trkpt lat="46.1151" lon="-1.12333">
        <ele>48.385087</ele>
        <time>2022-12-21T10:43:07.311Z</time>
      </trkpt>
      <trkpt lat="46.11501" lon="-1.12331">
        <ele>48.378059</ele>
        <time>2022-12-21T10:43:11.313Z</time>
      </trkpt>
      <trkpt lat="46.11493" lon="-1.12327">
        <ele>48.37104</ele>
        <time>2022-12-21T10:43:14.316Z</time>
      </trkpt>
      <trkpt lat="46.11483" lon="-1.12322">
        <ele>48.363403</ele>
        <time>2022-12-21T10:43:17.331Z</time>
      </trkpt>
      <trkpt lat="46.11474" lon="-1.12319">
        <ele>48.355791</ele>
        <time>2022-12-21T10:43:20.332Z</time>
      </trkpt>
      <trkpt lat="46.11463" lon="-1.12317">
        <ele>48.347614</ele>
        <time>2022-12-21T10:43:23.311Z</time>
      </trkpt>
      <trkpt lat="46.11453" lon="-1.12317">
        <ele>48.339472</ele>
        <time>2022-12-21T10:43:26.333Z</time>
      </trkpt>
      <trkpt lat="46.11442" lon="-1.12316">
        <ele>48.331178</ele>
        <time>2022-12-21T10:43:29.335Z</time>
      </trkpt>
      <trkpt lat="46.11432" lon="-1.12317">
        <ele>48.323349</ele>
        <time>2022-12-21T10:43:32.336Z</time>
      </trkpt>
      <trkpt lat="46.11422" lon="-1.12316">
        <ele>48.315819</ele>
        <time>2022-12-21T10:43:35.331Z</time>
      </trkpt>
      <trkpt lat="46.11413" lon="-1.12315">
        <ele>48.395152</ele>
        <time>2022-12-21T10:43:38.336Z</time>
      </trkpt>
      <trkpt lat="46.11404" lon="-1.12315">
        <ele>48.519207</ele>
        <time>2022-12-21T10:43:41.335Z</time>
      </trkpt>
      <trkpt lat="46.11394" lon="-1.12316">
        <ele>48.644211</ele>
        <time>2022-12-21T10:43:44.323Z</time>
      </trkpt>
      <trkpt lat="46.11385" lon="-1.12319">
        <ele>48.762083</ele>
        <time>2022-12-21T10:43:47.308Z</time>
      </trkpt>
      <trkpt lat="46.11375" lon="-1.12325">
        <ele>48.906113</ele>
        <time>2022-12-21T10:43:51.330Z</time>
      </trkpt>
      <trkpt lat="46.11366" lon="-1.1233">
        <ele>49.036357</ele>
        <time>2022-12-21T10:43:55.333Z</time>
      </trkpt>
      <trkpt lat="46.11359" lon="-1.12341">
        <ele>49.167625</ele>
        <time>2022-12-21T10:44:02.311Z</time>
      </trkpt>
      <trkpt lat="46.11362" lon="-1.12355">
        <ele>49.303367</ele>
        <time>2022-12-21T10:44:07.315Z</time>
      </trkpt>
      <trkpt lat="46.11364" lon="-1.12369">
        <ele>49.429815</ele>
        <time>2022-12-21T10:44:11.311Z</time>
      </trkpt>
      <trkpt lat="46.11365" lon="-1.12383">
        <ele>49.559369</ele>
        <time>2022-12-21T10:44:16.307Z</time>
      </trkpt>
      <trkpt lat="46.11356" lon="-1.12386">
        <ele>49.686444</ele>
        <time>2022-12-21T10:44:21.312Z</time>
      </trkpt>
      <trkpt lat="46.11346" lon="-1.12389">
        <ele>49.822298</ele>
        <time>2022-12-21T10:44:25.321Z</time>
      </trkpt>
      <trkpt lat="46.11334" lon="-1.12391">
        <ele>49.976256</ele>
        <time>2022-12-21T10:44:29.312Z</time>
      </trkpt>
      <trkpt lat="46.11325" lon="-1.12394">
        <ele>50.095206</ele>
        <time>2022-12-21T10:44:32.338Z</time>
      </trkpt>
      <trkpt lat="46.11314" lon="-1.12397">
        <ele>50.237899</ele>
        <time>2022-12-21T10:44:36.331Z</time>
      </trkpt>
      <trkpt lat="46.11303" lon="-1.12398">
        <ele>50.389644</ele>
        <time>2022-12-21T10:44:40.332Z</time>
      </trkpt>
      <trkpt lat="46.11292" lon="-1.12402">
        <ele>50.538001</ele>
        <time>2022-12-21T10:44:44.333Z</time>
      </trkpt>
      <trkpt lat="46.1128" lon="-1.12405">
        <ele>50.678246</ele>
        <time>2022-12-21T10:44:48.306Z</time>
      </trkpt>
      <trkpt lat="46.11269" lon="-1.12407">
        <ele>50.763278</ele>
        <time>2022-12-21T10:44:52.311Z</time>
      </trkpt>
      <trkpt lat="46.1126" lon="-1.1241">
        <ele>50.829686</ele>
        <time>2022-12-21T10:44:55.311Z</time>
      </trkpt>
      <trkpt lat="46.11248" lon="-1.12413">
        <ele>50.912011</ele>
        <time>2022-12-21T10:44:59.332Z</time>
      </trkpt>
      <trkpt lat="46.11238" lon="-1.12416">
        <ele>50.990322</ele>
        <time>2022-12-21T10:45:03.317Z</time>
      </trkpt>
      <trkpt lat="46.11226" lon="-1.12419">
        <ele>51.073955</ele>
        <time>2022-12-21T10:45:07.336Z</time>
      </trkpt>
      <trkpt lat="46.11215" lon="-1.12424">
        <ele>51.157112</ele>
        <time>2022-12-21T10:45:11.325Z</time>
      </trkpt>
      <trkpt lat="46.11204" lon="-1.12429">
        <ele>51.239103</ele>
        <time>2022-12-21T10:45:15.332Z</time>
      </trkpt>
      <trkpt lat="46.11194" lon="-1.12434">
        <ele>51.320196</ele>
        <time>2022-12-21T10:45:19.310Z</time>
      </trkpt>
      <trkpt lat="46.11185" lon="-1.1244">
        <ele>51.387735</ele>
        <time>2022-12-21T10:45:22.310Z</time>
      </trkpt>
      <trkpt lat="46.11178" lon="-1.12449">
        <ele>51.457832</ele>
        <time>2022-12-21T10:45:25.329Z</time>
      </trkpt>
      <trkpt lat="46.11169" lon="-1.12457">
        <ele>51.531436</ele>
        <time>2022-12-21T10:45:28.310Z</time>
      </trkpt>
      <trkpt lat="46.11161" lon="-1.12465">
        <ele>51.603548</ele>
        <time>2022-12-21T10:45:31.331Z</time>
      </trkpt>
      <trkpt lat="46.11152" lon="-1.12472">
        <ele>51.675219</ele>
        <time>2022-12-21T10:45:34.310Z</time>
      </trkpt>
      <trkpt lat="46.11143" lon="-1.12479">
        <ele>51.75053</ele>
        <time>2022-12-21T10:45:37.335Z</time>
      </trkpt>
      <trkpt lat="46.11134" lon="-1.12487">
        <ele>51.825009</ele>
        <time>2022-12-21T10:45:40.309Z</time>
      </trkpt>
      <trkpt lat="46.11125" lon="-1.12495">
        <ele>51.902809</ele>
        <time>2022-12-21T10:45:43.309Z</time>
      </trkpt>
      <trkpt lat="46.11116" lon="-1.12504">
        <ele>51.978313</ele>
        <time>2022-12-21T10:45:46.331Z</time>
      </trkpt>
      <trkpt lat="46.11108" lon="-1.12513">
        <ele>52.049016</ele>
        <time>2022-12-21T10:45:49.337Z</time>
      </trkpt>
      <trkpt lat="46.111" lon="-1.12524">
        <ele>52.123536</ele>
        <time>2022-12-21T10:45:52.336Z</time>
      </trkpt>
      <trkpt lat="46.11092" lon="-1.12535">
        <ele>52.196845</ele>
        <time>2022-12-21T10:45:55.335Z</time>
      </trkpt>
      <trkpt lat="46.11086" lon="-1.12547">
        <ele>52.267299</ele>
        <time>2022-12-21T10:45:58.312Z</time>
      </trkpt>
      <trkpt lat="46.11081" lon="-1.12558">
        <ele>52.330376</ele>
        <time>2022-12-21T10:46:01.337Z</time>
      </trkpt>
      <trkpt lat="46.11078" lon="-1.12572">
        <ele>52.398028</ele>
        <time>2022-12-21T10:46:05.332Z</time>
      </trkpt>
      <trkpt lat="46.11077" lon="-1.12585">
        <ele>52.460424</ele>
        <time>2022-12-21T10:46:08.331Z</time>
      </trkpt>
      <trkpt lat="46.11077" lon="-1.12599">
        <ele>52.527651</ele>
        <time>2022-12-21T10:46:11.335Z</time>
      </trkpt>
      <trkpt lat="46.11078" lon="-1.12613">
        <ele>52.590796</ele>
        <time>2022-12-21T10:46:14.320Z</time>
      </trkpt>
      <trkpt lat="46.11079" lon="-1.12627">
        <ele>52.657139</ele>
        <time>2022-12-21T10:46:17.332Z</time>
      </trkpt>
      <trkpt lat="46.11078" lon="-1.12641">
        <ele>52.724503</ele>
        <time>2022-12-21T10:46:20.329Z</time>
      </trkpt>
      <trkpt lat="46.11076" lon="-1.12655">
        <ele>52.791641</ele>
        <time>2022-12-21T10:46:23.334Z</time>
      </trkpt>
      <trkpt lat="46.11074" lon="-1.1267">
        <ele>52.861738</ele>
        <time>2022-12-21T10:46:26.319Z</time>
      </trkpt>
      <trkpt lat="46.11071" lon="-1.12685">
        <ele>52.935761</ele>
        <time>2022-12-21T10:46:29.333Z</time>
      </trkpt>
      <trkpt lat="46.11069" lon="-1.12701">
        <ele>53.012685</ele>
        <time>2022-12-21T10:46:32.310Z</time>
      </trkpt>
      <trkpt lat="46.11066" lon="-1.12716">
        <ele>53.086949</ele>
        <time>2022-12-21T10:46:35.334Z</time>
      </trkpt>
      <trkpt lat="46.11063" lon="-1.12732">
        <ele>53.161137</ele>
        <time>2022-12-21T10:46:38.333Z</time>
      </trkpt>
      <trkpt lat="46.1106" lon="-1.12748">
        <ele>53.119131</ele>
        <time>2022-12-21T10:46:41.336Z</time>
      </trkpt>
      <trkpt lat="46.11056" lon="-1.12765">
        <ele>53.043429</ele>
        <time>2022-12-21T10:46:44.325Z</time>
      </trkpt>
      <trkpt lat="46.11053" lon="-1.12781">
        <ele>52.970601</ele>
        <time>2022-12-21T10:46:47.327Z</time>
      </trkpt>
      <trkpt lat="46.11048" lon="-1.12795">
        <ele>52.902161</ele>
        <time>2022-12-21T10:46:50.330Z</time>
      </trkpt>
      <trkpt lat="46.11043" lon="-1.12809">
        <ele>52.834213</ele>
        <time>2022-12-21T10:46:53.307Z</time>
      </trkpt>
      <trkpt lat="46.11038" lon="-1.12822">
        <ele>52.767625</ele>
        <time>2022-12-21T10:46:56.325Z</time>
      </trkpt>
      <trkpt lat="46.11032" lon="-1.12835">
        <ele>52.702896</ele>
        <time>2022-12-21T10:46:59.333Z</time>
      </trkpt>
      <trkpt lat="46.11027" lon="-1.12848">
        <ele>52.642381</ele>
        <time>2022-12-21T10:47:02.333Z</time>
      </trkpt>
      <trkpt lat="46.11022" lon="-1.1286">
        <ele>52.579076</ele>
        <time>2022-12-21T10:47:05.337Z</time>
      </trkpt>
      <trkpt lat="46.11017" lon="-1.12874">
        <ele>52.51174</ele>
        <time>2022-12-21T10:47:08.335Z</time>
      </trkpt>
      <trkpt lat="46.11012" lon="-1.12888">
        <ele>52.443949</ele>
        <time>2022-12-21T10:47:11.324Z</time>
      </trkpt>
      <trkpt lat="46.11006" lon="-1.12902">
        <ele>52.375862</ele>
        <time>2022-12-21T10:47:14.329Z</time>
      </trkpt>
      <trkpt lat="46.11001" lon="-1.12916">
        <ele>52.307983</ele>
        <time>2022-12-21T10:47:17.334Z</time>
      </trkpt>
      <trkpt lat="46.10996" lon="-1.12931">
        <ele>52.236581</ele>
        <time>2022-12-21T10:47:20.311Z</time>
      </trkpt>
      <trkpt lat="46.10991" lon="-1.12945">
        <ele>52.168412</ele>
        <time>2022-12-21T10:47:23.336Z</time>
      </trkpt>
      <trkpt lat="46.10984" lon="-1.12959">
        <ele>52.094926</ele>
        <time>2022-12-21T10:47:26.336Z</time>
      </trkpt>
      <trkpt lat="46.10978" lon="-1.12973">
        <ele>52.079335</ele>
        <time>2022-12-21T10:47:29.331Z</time>
      </trkpt>
      <trkpt lat="46.10972" lon="-1.12987">
        <ele>52.108141</ele>
        <time>2022-12-21T10:47:32.335Z</time>
      </trkpt>
      <trkpt lat="46.10965" lon="-1.12999">
        <ele>52.134028</ele>
        <time>2022-12-21T10:47:35.333Z</time>
      </trkpt>
      <trkpt lat="46.10957" lon="-1.1301">
        <ele>52.161089</ele>
        <time>2022-12-21T10:47:38.320Z</time>
      </trkpt>
      <trkpt lat="46.10949" lon="-1.13021">
        <ele>52.189214</ele>
        <time>2022-12-21T10:47:41.308Z</time>
      </trkpt>
      <trkpt lat="46.1094" lon="-1.1303">
        <ele>52.217603</ele>
        <time>2022-12-21T10:47:44.308Z</time>
      </trkpt>
      <trkpt lat="46.10931" lon="-1.13041">
        <ele>52.246047</ele>
        <time>2022-12-21T10:47:47.319Z</time>
      </trkpt>
      <trkpt lat="46.10923" lon="-1.13053">
        <ele>52.274246</ele>
        <time>2022-12-21T10:47:50.311Z</time>
      </trkpt>
      <trkpt lat="46.10916" lon="-1.13066">
        <ele>52.302773</ele>
        <time>2022-12-21T10:47:53.303Z</time>
      </trkpt>
      <trkpt lat="46.10912" lon="-1.1308">
        <ele>52.330316</ele>
        <time>2022-12-21T10:47:56.309Z</time>
      </trkpt>
      <trkpt lat="46.10908" lon="-1.13093">
        <ele>52.354932</ele>
        <time>2022-12-21T10:47:59.336Z</time>
      </trkpt>
      <trkpt lat="46.10902" lon="-1.13109">
        <ele>52.384975</ele>
        <time>2022-12-21T10:48:03.338Z</time>
      </trkpt>
      <trkpt lat="46.10898" lon="-1.13121">
        <ele>52.408122</ele>
        <time>2022-12-21T10:48:06.337Z</time>
      </trkpt>
      <trkpt lat="46.10895" lon="-1.13133">
        <ele>52.430849</ele>
        <time>2022-12-21T10:48:09.324Z</time>
      </trkpt>
      <trkpt lat="46.10891" lon="-1.13148">
        <ele>52.457364</ele>
        <time>2022-12-21T10:48:13.334Z</time>
      </trkpt>
      <trkpt lat="46.10891" lon="-1.13161">
        <ele>52.479861</ele>
        <time>2022-12-21T10:48:17.312Z</time>
      </trkpt>
      <trkpt lat="46.10891" lon="-1.13175">
        <ele>52.504208</ele>
        <time>2022-12-21T10:48:22.313Z</time>
      </trkpt>
      <trkpt lat="46.1089" lon="-1.13188">
        <ele>52.497616</ele>
        <time>2022-12-21T10:48:27.306Z</time>
      </trkpt>
      <trkpt lat="46.1089" lon="-1.13205">
        <ele>52.474364</ele>
        <time>2022-12-21T10:48:32.331Z</time>
      </trkpt>
      <trkpt lat="46.10893" lon="-1.13218">
        <ele>52.455356</ele>
        <time>2022-12-21T10:48:56.305Z</time>
      </trkpt>
      <trkpt lat="46.10896" lon="-1.13238">
        <ele>52.425831</ele>
        <time>2022-12-21T10:49:40.316Z</time>
      </trkpt>
      <trkpt lat="46.109" lon="-1.13251">
        <ele>52.407467</ele>
        <time>2022-12-21T10:49:46.313Z</time>
      </trkpt>
      <trkpt lat="46.10908" lon="-1.13263">
        <ele>52.382843</ele>
        <time>2022-12-21T10:49:51.311Z</time>
      </trkpt>
      <trkpt lat="46.10915" lon="-1.13274">
        <ele>52.363498</ele>
        <time>2022-12-21T10:49:54.331Z</time>
      </trkpt>
      <trkpt lat="46.10921" lon="-1.13283">
        <ele>52.345197</ele>
        <time>2022-12-21T10:49:57.337Z</time>
      </trkpt>
      <trkpt lat="46.10927" lon="-1.13294">
        <ele>52.325138</ele>
        <time>2022-12-21T10:50:00.310Z</time>
      </trkpt>
      <trkpt lat="46.10934" lon="-1.13307">
        <ele>52.303378</ele>
        <time>2022-12-21T10:50:03.336Z</time>
      </trkpt>
      <trkpt lat="46.10939" lon="-1.1332">
        <ele>52.281281</ele>
        <time>2022-12-21T10:50:06.335Z</time>
      </trkpt>
      <trkpt lat="46.10943" lon="-1.13335">
        <ele>52.258855</ele>
        <time>2022-12-21T10:50:09.336Z</time>
      </trkpt>
      <trkpt lat="46.10946" lon="-1.13351">
        <ele>52.236179</ele>
        <time>2022-12-21T10:50:12.307Z</time>
      </trkpt>
      <trkpt lat="46.10949" lon="-1.13366">
        <ele>52.213703</ele>
        <time>2022-12-21T10:50:15.334Z</time>
      </trkpt>
      <trkpt lat="46.10951" lon="-1.13382">
        <ele>52.191366</ele>
        <time>2022-12-21T10:50:18.334Z</time>
      </trkpt>
      <trkpt lat="46.10953" lon="-1.13398">
        <ele>52.168558</ele>
        <time>2022-12-21T10:50:21.333Z</time>
      </trkpt>
      <trkpt lat="46.10956" lon="-1.13415">
        <ele>52.163974</ele>
        <time>2022-12-21T10:50:24.335Z</time>
      </trkpt>
      <trkpt lat="46.10957" lon="-1.13431">
        <ele>52.295931</ele>
        <time>2022-12-21T10:50:27.310Z</time>
      </trkpt>
      <trkpt lat="46.10958" lon="-1.13447">
        <ele>52.426524</ele>
        <time>2022-12-21T10:50:30.336Z</time>
      </trkpt>
      <trkpt lat="46.10959" lon="-1.13464">
        <ele>52.557243</ele>
        <time>2022-12-21T10:50:33.337Z</time>
      </trkpt>
      <trkpt lat="46.1096" lon="-1.1348">
        <ele>52.686927</ele>
        <time>2022-12-21T10:50:36.330Z</time>
      </trkpt>
      <trkpt lat="46.1096" lon="-1.13496">
        <ele>52.815201</ele>
        <time>2022-12-21T10:50:39.336Z</time>
      </trkpt>
      <trkpt lat="46.1096" lon="-1.13511">
        <ele>52.937899</ele>
        <time>2022-12-21T10:50:42.336Z</time>
      </trkpt>
      <trkpt lat="46.1096" lon="-1.13527">
        <ele>53.062982</ele>
        <time>2022-12-21T10:50:45.335Z</time>
      </trkpt>
      <trkpt lat="46.1096" lon="-1.13543">
        <ele>53.19046</ele>
        <time>2022-12-21T10:50:48.339Z</time>
      </trkpt>
      <trkpt lat="46.1096" lon="-1.13559">
        <ele>53.318015</ele>
        <time>2022-12-21T10:50:51.336Z</time>
      </trkpt>
      <trkpt lat="46.10959" lon="-1.13574">
        <ele>53.441051</ele>
        <time>2022-12-21T10:50:54.330Z</time>
      </trkpt>
      <trkpt lat="46.10958" lon="-1.13589">
        <ele>53.554393</ele>
        <time>2022-12-21T10:50:57.335Z</time>
      </trkpt>
      <trkpt lat="46.10958" lon="-1.13602">
        <ele>53.663693</ele>
        <time>2022-12-21T10:51:00.336Z</time>
      </trkpt>
      <trkpt lat="46.10958" lon="-1.13617">
        <ele>53.781695</ele>
        <time>2022-12-21T10:51:03.339Z</time>
      </trkpt>
      <trkpt lat="46.10957" lon="-1.13632">
        <ele>53.903639</ele>
        <time>2022-12-21T10:51:06.337Z</time>
      </trkpt>
      <trkpt lat="46.10958" lon="-1.13648">
        <ele>54.031159</ele>
        <time>2022-12-21T10:51:09.327Z</time>
      </trkpt>
      <trkpt lat="46.10959" lon="-1.13665">
        <ele>54.162014</ele>
        <time>2022-12-21T10:51:12.330Z</time>
      </trkpt>
      <trkpt lat="46.10961" lon="-1.13681">
        <ele>54.161718</ele>
        <time>2022-12-21T10:51:15.312Z</time>
      </trkpt>
      <trkpt lat="46.10963" lon="-1.13696">
        <ele>54.077363</ele>
        <time>2022-12-21T10:51:18.335Z</time>
      </trkpt>
      <trkpt lat="46.10965" lon="-1.1371">
        <ele>54.00218</ele>
        <time>2022-12-21T10:51:21.336Z</time>
      </trkpt>
      <trkpt lat="46.10968" lon="-1.13722">
        <ele>53.931008</ele>
        <time>2022-12-21T10:51:24.326Z</time>
      </trkpt>
      <trkpt lat="46.10971" lon="-1.13738">
        <ele>53.840025</ele>
        <time>2022-12-21T10:51:28.338Z</time>
      </trkpt>
      <trkpt lat="46.10974" lon="-1.13753">
        <ele>53.756908</ele>
        <time>2022-12-21T10:51:32.324Z</time>
      </trkpt>
      <trkpt lat="46.10977" lon="-1.13765">
        <ele>53.686237</ele>
        <time>2022-12-21T10:51:36.322Z</time>
      </trkpt>
      <trkpt lat="46.10974" lon="-1.13781">
        <ele>53.59946</ele>
        <time>2022-12-21T10:51:41.323Z</time>
      </trkpt>
      <trkpt lat="46.10968" lon="-1.13793">
        <ele>53.519301</ele>
        <time>2022-12-21T10:51:46.322Z</time>
      </trkpt>
      <trkpt lat="46.10958" lon="-1.13799">
        <ele>53.436101</ele>
        <time>2022-12-21T10:51:50.306Z</time>
      </trkpt>
      <trkpt lat="46.10948" lon="-1.13802">
        <ele>53.356795</ele>
        <time>2022-12-21T10:51:52.314Z</time>
      </trkpt>
      <trkpt lat="46.10939" lon="-1.13807">
        <ele>53.280474</ele>
        <time>2022-12-21T10:51:54.329Z</time>
      </trkpt>
      <trkpt lat="46.10926" lon="-1.13811">
        <ele>53.181175</ele>
        <time>2022-12-21T10:51:57.333Z</time>
      </trkpt>
      <trkpt lat="46.10915" lon="-1.13812">
        <ele>53.094827</ele>
        <time>2022-12-21T10:52:00.311Z</time>
      </trkpt>
      <trkpt lat="46.10906" lon="-1.13813">
        <ele>53.024193</ele>
        <time>2022-12-21T10:52:03.335Z</time>
      </trkpt>
      <trkpt lat="46.10897" lon="-1.13813">
        <ele>52.953077</ele>
        <time>2022-12-21T10:52:06.331Z</time>
      </trkpt>
      <trkpt lat="46.10888" lon="-1.13815">
        <ele>52.877724</ele>
        <time>2022-12-21T10:52:09.331Z</time>
      </trkpt>
      <trkpt lat="46.10878" lon="-1.13817">
        <ele>52.807637</ele>
        <time>2022-12-21T10:52:12.329Z</time>
      </trkpt>
      <trkpt lat="46.10868" lon="-1.13818">
        <ele>52.78816</ele>
        <time>2022-12-21T10:52:15.338Z</time>
      </trkpt>
      <trkpt lat="46.10858" lon="-1.13821">
        <ele>52.768707</ele>
        <time>2022-12-21T10:52:18.334Z</time>
      </trkpt>
      <trkpt lat="46.10848" lon="-1.13823">
        <ele>52.749482</ele>
        <time>2022-12-21T10:52:21.318Z</time>
      </trkpt>
      <trkpt lat="46.10838" lon="-1.13826">
        <ele>52.730488</ele>
        <time>2022-12-21T10:52:24.328Z</time>
      </trkpt>
      <trkpt lat="46.10828" lon="-1.13829">
        <ele>52.711171</ele>
        <time>2022-12-21T10:52:27.333Z</time>
      </trkpt>
      <trkpt lat="46.10818" lon="-1.13834">
        <ele>52.691228</ele>
        <time>2022-12-21T10:52:30.334Z</time>
      </trkpt>
      <trkpt lat="46.10809" lon="-1.13843">
        <ele>52.671174</ele>
        <time>2022-12-21T10:52:33.311Z</time>
      </trkpt>
      <trkpt lat="46.10801" lon="-1.13854">
        <ele>52.651432</ele>
        <time>2022-12-21T10:52:36.307Z</time>
      </trkpt>
      <trkpt lat="46.10795" lon="-1.13866">
        <ele>52.63126</ele>
        <time>2022-12-21T10:52:39.309Z</time>
      </trkpt>
      <trkpt lat="46.10788" lon="-1.13878">
        <ele>52.611779</ele>
        <time>2022-12-21T10:52:42.312Z</time>
      </trkpt>
      <trkpt lat="46.1078" lon="-1.13886">
        <ele>52.592335</ele>
        <time>2022-12-21T10:52:45.307Z</time>
      </trkpt>
      <trkpt lat="46.1077" lon="-1.13891">
        <ele>52.573231</ele>
        <time>2022-12-21T10:52:48.317Z</time>
      </trkpt>
      <trkpt lat="46.1076" lon="-1.13895">
        <ele>52.553816</ele>
        <time>2022-12-21T10:52:51.337Z</time>
      </trkpt>
      <trkpt lat="46.10749" lon="-1.13895">
        <ele>52.533495</ele>
        <time>2022-12-21T10:52:54.311Z</time>
      </trkpt>
      <trkpt lat="46.10739" lon="-1.13895">
        <ele>52.514125</ele>
        <time>2022-12-21T10:52:57.334Z</time>
      </trkpt>
      <trkpt lat="46.10729" lon="-1.13897">
        <ele>52.495329</ele>
        <time>2022-12-21T10:53:00.335Z</time>
      </trkpt>
      <trkpt lat="46.10719" lon="-1.13898">
        <ele>52.47615</ele>
        <time>2022-12-21T10:53:03.339Z</time>
      </trkpt>
      <trkpt lat="46.10709" lon="-1.13897">
        <ele>52.479825</ele>
        <time>2022-12-21T10:53:06.330Z</time>
      </trkpt>
      <trkpt lat="46.10698" lon="-1.13897">
        <ele>52.492227</ele>
        <time>2022-12-21T10:53:09.337Z</time>
      </trkpt>
      <trkpt lat="46.10688" lon="-1.13897">
        <ele>52.504862</ele>
        <time>2022-12-21T10:53:12.335Z</time>
      </trkpt>
      <trkpt lat="46.10678" lon="-1.13898">
        <ele>52.516671</ele>
        <time>2022-12-21T10:53:15.334Z</time>
      </trkpt>
      <trkpt lat="46.10668" lon="-1.13899">
        <ele>52.529498</ele>
        <time>2022-12-21T10:53:19.334Z</time>
      </trkpt>
      <trkpt lat="46.10659" lon="-1.13897">
        <ele>52.540683</ele>
        <time>2022-12-21T10:53:22.308Z</time>
      </trkpt>
      <trkpt lat="46.1065" lon="-1.13891">
        <ele>52.552036</ele>
        <time>2022-12-21T10:53:25.332Z</time>
      </trkpt>
      <trkpt lat="46.10644" lon="-1.13879">
        <ele>52.564895</ele>
        <time>2022-12-21T10:53:29.330Z</time>
      </trkpt>
      <trkpt lat="46.10637" lon="-1.13868">
        <ele>52.577228</ele>
        <time>2022-12-21T10:53:35.316Z</time>
      </trkpt>
      <trkpt lat="46.10633" lon="-1.13856">
        <ele>52.588831</ele>
        <time>2022-12-21T10:53:40.319Z</time>
      </trkpt>
      <trkpt lat="46.10632" lon="-1.13842">
        <ele>52.600183</ele>
        <time>2022-12-21T10:53:44.313Z</time>
      </trkpt>
      <trkpt lat="46.10631" lon="-1.13828">
        <ele>52.612435</ele>
        <time>2022-12-21T10:53:49.333Z</time>
      </trkpt>
      <trkpt lat="46.10631" lon="-1.13812">
        <ele>52.625996</ele>
        <time>2022-12-21T10:53:53.320Z</time>
      </trkpt>
      <trkpt lat="46.10632" lon="-1.13794">
        <ele>52.640569</ele>
        <time>2022-12-21T10:53:57.318Z</time>
      </trkpt>
      <trkpt lat="46.10633" lon="-1.13781">
        <ele>52.651754</ele>
        <time>2022-12-21T10:54:00.326Z</time>
      </trkpt>
      <trkpt lat="46.10633" lon="-1.13766">
        <ele>52.664229</ele>
        <time>2022-12-21T10:54:04.333Z</time>
      </trkpt>
      <trkpt lat="46.10635" lon="-1.13754">
        <ele>52.675172</ele>
        <time>2022-12-21T10:54:07.326Z</time>
      </trkpt>
      <trkpt lat="46.10637" lon="-1.1374">
        <ele>52.687186</ele>
        <time>2022-12-21T10:54:10.335Z</time>
      </trkpt>
      <trkpt lat="46.10639" lon="-1.13725">
        <ele>52.667933</ele>
        <time>2022-12-21T10:54:13.342Z</time>
      </trkpt>
      <trkpt lat="46.10641" lon="-1.1371">
        <ele>52.641163</ele>
        <time>2022-12-21T10:54:16.310Z</time>
      </trkpt>
      <trkpt lat="46.1064" lon="-1.13694">
        <ele>52.612406</ele>
        <time>2022-12-21T10:54:19.327Z</time>
      </trkpt>
      <trkpt lat="46.10639" lon="-1.13678">
        <ele>52.583542</ele>
        <time>2022-12-21T10:54:22.310Z</time>
      </trkpt>
      <trkpt lat="46.10638" lon="-1.13662">
        <ele>52.555051</ele>
        <time>2022-12-21T10:54:25.329Z</time>
      </trkpt>
      <trkpt lat="46.10635" lon="-1.13646">
        <ele>52.525948</ele>
        <time>2022-12-21T10:54:28.310Z</time>
      </trkpt>
      <trkpt lat="46.10633" lon="-1.1363">
        <ele>52.496899</ele>
        <time>2022-12-21T10:54:31.336Z</time>
      </trkpt>
      <trkpt lat="46.1063" lon="-1.13615">
        <ele>52.470139</ele>
        <time>2022-12-21T10:54:34.333Z</time>
      </trkpt>
      <trkpt lat="46.10627" lon="-1.13603">
        <ele>52.446618</ele>
        <time>2022-12-21T10:54:37.329Z</time>
      </trkpt>
      <trkpt lat="46.10623" lon="-1.13591">
        <ele>52.423603</ele>
        <time>2022-12-21T10:54:40.315Z</time>
      </trkpt>
      <trkpt lat="46.10616" lon="-1.13579">
        <ele>52.397037</ele>
        <time>2022-12-21T10:54:43.335Z</time>
      </trkpt>
      <trkpt lat="46.10608" lon="-1.13568">
        <ele>52.369283</ele>
        <time>2022-12-21T10:54:46.313Z</time>
      </trkpt>
      <trkpt lat="46.10601" lon="-1.13557">
        <ele>52.340652</ele>
        <time>2022-12-21T10:54:49.327Z</time>
      </trkpt>
      <trkpt lat="46.10594" lon="-1.13544">
        <ele>52.312582</ele>
        <time>2022-12-21T10:54:52.336Z</time>
      </trkpt>
      <trkpt lat="46.10587" lon="-1.13531">
        <ele>52.28417</ele>
        <time>2022-12-21T10:54:55.312Z</time>
      </trkpt>
      <trkpt lat="46.1058" lon="-1.13519">
        <ele>52.255576</ele>
        <time>2022-12-21T10:54:58.329Z</time>
      </trkpt>
      <trkpt lat="46.10573" lon="-1.13506">
        <ele>52.23733</ele>
        <time>2022-12-21T10:55:01.336Z</time>
      </trkpt>
      <trkpt lat="46.10567" lon="-1.13492">
        <ele>52.273704</ele>
        <time>2022-12-21T10:55:04.334Z</time>
      </trkpt>
      <trkpt lat="46.1056" lon="-1.13479">
        <ele>52.310248</ele>
        <time>2022-12-21T10:55:07.333Z</time>
      </trkpt>
      <trkpt lat="46.10553" lon="-1.13466">
        <ele>52.3452</ele>
        <time>2022-12-21T10:55:10.306Z</time>
      </trkpt>
      <trkpt lat="46.10548" lon="-1.13454">
        <ele>52.375829</ele>
        <time>2022-12-21T10:55:13.333Z</time>
      </trkpt>
      <trkpt lat="46.10543" lon="-1.13443">
        <ele>52.40695</ele>
        <time>2022-12-21T10:55:16.335Z</time>
      </trkpt>
      <trkpt lat="46.10537" lon="-1.1343">
        <ele>52.440059</ele>
        <time>2022-12-21T10:55:19.335Z</time>
      </trkpt>
      <trkpt lat="46.1053" lon="-1.13418">
        <ele>52.473177</ele>
        <time>2022-12-21T10:55:22.327Z</time>
      </trkpt>
      <trkpt lat="46.10524" lon="-1.13407">
        <ele>52.505981</ele>
        <time>2022-12-21T10:55:25.333Z</time>
      </trkpt>
      <trkpt lat="46.10517" lon="-1.13395">
        <ele>52.540501</ele>
        <time>2022-12-21T10:55:28.336Z</time>
      </trkpt>
      <trkpt lat="46.1051" lon="-1.13382">
        <ele>52.576888</ele>
        <time>2022-12-21T10:55:31.335Z</time>
      </trkpt>
      <trkpt lat="46.10502" lon="-1.1337">
        <ele>52.612153</ele>
        <time>2022-12-21T10:55:34.312Z</time>
      </trkpt>
      <trkpt lat="46.10495" lon="-1.13358">
        <ele>52.647881</ele>
        <time>2022-12-21T10:55:37.334Z</time>
      </trkpt>
      <trkpt lat="46.10486" lon="-1.13347">
        <ele>52.683965</ele>
        <time>2022-12-21T10:55:40.336Z</time>
      </trkpt>
      <trkpt lat="46.10479" lon="-1.13335">
        <ele>52.719914</ele>
        <time>2022-12-21T10:55:43.328Z</time>
      </trkpt>
      <trkpt lat="46.1047" lon="-1.13324">
        <ele>52.75592</ele>
        <time>2022-12-21T10:55:46.331Z</time>
      </trkpt>
      <trkpt lat="46.10462" lon="-1.13312">
        <ele>52.79323</ele>
        <time>2022-12-21T10:55:49.336Z</time>
      </trkpt>
      <trkpt lat="46.10453" lon="-1.13301">
        <ele>52.851768</ele>
        <time>2022-12-21T10:55:52.334Z</time>
      </trkpt>
      <trkpt lat="46.10445" lon="-1.1329">
        <ele>52.917139</ele>
        <time>2022-12-21T10:55:55.336Z</time>
      </trkpt>
      <trkpt lat="46.10437" lon="-1.13278">
        <ele>52.981881</ele>
        <time>2022-12-21T10:55:58.332Z</time>
      </trkpt>
      <trkpt lat="46.10432" lon="-1.13263">
        <ele>53.049049</ele>
        <time>2022-12-21T10:56:01.307Z</time>
      </trkpt>
      <trkpt lat="46.10428" lon="-1.13247">
        <ele>53.116244</ele>
        <time>2022-12-21T10:56:04.333Z</time>
      </trkpt>
      <trkpt lat="46.10426" lon="-1.1323">
        <ele>53.184466</ele>
        <time>2022-12-21T10:56:07.324Z</time>
      </trkpt>
      <trkpt lat="46.10423" lon="-1.13215">
        <ele>53.247205</ele>
        <time>2022-12-21T10:56:10.333Z</time>
      </trkpt>
      <trkpt lat="46.1042" lon="-1.132">
        <ele>53.310109</ele>
        <time>2022-12-21T10:56:13.334Z</time>
      </trkpt>
      <trkpt lat="46.10418" lon="-1.13184">
        <ele>53.373248</ele>
        <time>2022-12-21T10:56:16.332Z</time>
      </trkpt>
      <trkpt lat="46.10415" lon="-1.1317">
        <ele>53.430695</ele>
        <time>2022-12-21T10:56:19.308Z</time>
      </trkpt>
      <trkpt lat="46.10413" lon="-1.13156">
        <ele>53.487642</ele>
        <time>2022-12-21T10:56:22.321Z</time>
      </trkpt>
      <trkpt lat="46.10412" lon="-1.13143">
        <ele>53.54147</ele>
        <time>2022-12-21T10:56:25.332Z</time>
      </trkpt>
      <trkpt lat="46.1041" lon="-1.1313">
        <ele>53.594789</ele>
        <time>2022-12-21T10:56:28.331Z</time>
      </trkpt>
      <trkpt lat="46.10408" lon="-1.13114">
        <ele>53.658709</ele>
        <time>2022-12-21T10:56:32.329Z</time>
      </trkpt>
      <trkpt lat="46.10405" lon="-1.13099">
        <ele>53.72336</ele>
        <time>2022-12-21T10:56:37.336Z</time>
      </trkpt>
      <trkpt lat="46.10402" lon="-1.13084">
        <ele>53.782494</ele>
        <time>2022-12-21T10:56:41.338Z</time>
      </trkpt>
      <trkpt lat="46.104" lon="-1.13069">
        <ele>53.813847</ele>
        <time>2022-12-21T10:56:45.335Z</time>
      </trkpt>
      <trkpt lat="46.10398" lon="-1.13053">
        <ele>53.617003</ele>
        <time>2022-12-21T10:56:49.315Z</time>
      </trkpt>
      <trkpt lat="46.10395" lon="-1.13037">
        <ele>53.425973</ele>
        <time>2022-12-21T10:56:52.326Z</time>
      </trkpt>
      <trkpt lat="46.10392" lon="-1.1302">
        <ele>53.209851</ele>
        <time>2022-12-21T10:56:55.332Z</time>
      </trkpt>
      <trkpt lat="46.10387" lon="-1.13001">
        <ele>52.972954</ele>
        <time>2022-12-21T10:56:58.311Z</time>
      </trkpt>
      <trkpt lat="46.10384" lon="-1.12988">
        <ele>52.816115</ele>
        <time>2022-12-21T10:57:00.315Z</time>
      </trkpt>
      <trkpt lat="46.10381" lon="-1.12975">
        <ele>52.654828</ele>
        <time>2022-12-21T10:57:02.313Z</time>
      </trkpt>
      <trkpt lat="46.10378" lon="-1.12962">
        <ele>52.491819</ele>
        <time>2022-12-21T10:57:04.333Z</time>
      </trkpt>
      <trkpt lat="46.10376" lon="-1.1295">
        <ele>52.335077</ele>
        <time>2022-12-21T10:57:06.335Z</time>
      </trkpt>
      <trkpt lat="46.10374" lon="-1.12936">
        <ele>52.168294</ele>
        <time>2022-12-21T10:57:08.334Z</time>
      </trkpt>
      <trkpt lat="46.10372" lon="-1.12923">
        <ele>52.007326</ele>
        <time>2022-12-21T10:57:10.334Z</time>
      </trkpt>
      <trkpt lat="46.1037" lon="-1.1291">
        <ele>51.849343</ele>
        <time>2022-12-21T10:57:12.334Z</time>
      </trkpt>
      <trkpt lat="46.10368" lon="-1.12896">
        <ele>51.68903</ele>
        <time>2022-12-21T10:57:14.333Z</time>
      </trkpt>
      <trkpt lat="46.10366" lon="-1.12883">
        <ele>51.53311</ele>
        <time>2022-12-21T10:57:16.335Z</time>
      </trkpt>
      <trkpt lat="46.10365" lon="-1.1287">
        <ele>51.372948</ele>
        <time>2022-12-21T10:57:18.316Z</time>
      </trkpt>
      <trkpt lat="46.10363" lon="-1.12857">
        <ele>51.217605</ele>
        <time>2022-12-21T10:57:20.326Z</time>
      </trkpt>
      <trkpt lat="46.10362" lon="-1.12839">
        <ele>50.996586</ele>
        <time>2022-12-21T10:57:23.324Z</time>
      </trkpt>
      <trkpt lat="46.10361" lon="-1.1282">
        <ele>50.771845</ele>
        <time>2022-12-21T10:57:26.333Z</time>
      </trkpt>
      <trkpt lat="46.10358" lon="-1.12802">
        <ele>50.745537</ele>
        <time>2022-12-21T10:57:29.335Z</time>
      </trkpt>
      <trkpt lat="46.10356" lon="-1.12786">
        <ele>50.730779</ele>
        <time>2022-12-21T10:57:32.331Z</time>
      </trkpt>
      <trkpt lat="46.10353" lon="-1.12771">
        <ele>50.717157</ele>
        <time>2022-12-21T10:57:35.333Z</time>
      </trkpt>
      <trkpt lat="46.10351" lon="-1.12757">
        <ele>50.703995</ele>
        <time>2022-12-21T10:57:38.334Z</time>
      </trkpt>
      <trkpt lat="46.10348" lon="-1.12742">
        <ele>50.690367</ele>
        <time>2022-12-21T10:57:41.329Z</time>
      </trkpt>
      <trkpt lat="46.10346" lon="-1.12726">
        <ele>50.675332</ele>
        <time>2022-12-21T10:57:44.310Z</time>
      </trkpt>
      <trkpt lat="46.10345" lon="-1.12708">
        <ele>50.659228</ele>
        <time>2022-12-21T10:57:47.324Z</time>
      </trkpt>
      <trkpt lat="46.10345" lon="-1.1269">
        <ele>50.643096</ele>
        <time>2022-12-21T10:57:50.307Z</time>
      </trkpt>
      <trkpt lat="46.10347" lon="-1.12674">
        <ele>50.628569</ele>
        <time>2022-12-21T10:57:53.311Z</time>
      </trkpt>
      <trkpt lat="46.10349" lon="-1.12658">
        <ele>50.614246</ele>
        <time>2022-12-21T10:57:56.331Z</time>
      </trkpt>
      <trkpt lat="46.10352" lon="-1.12642">
        <ele>50.599778</ele>
        <time>2022-12-21T10:57:59.333Z</time>
      </trkpt>
      <trkpt lat="46.10354" lon="-1.12626">
        <ele>50.584493</ele>
        <time>2022-12-21T10:58:02.340Z</time>
      </trkpt>
      <trkpt lat="46.10356" lon="-1.12609">
        <ele>50.569296</ele>
        <time>2022-12-21T10:58:05.321Z</time>
      </trkpt>
      <trkpt lat="46.10359" lon="-1.12593">
        <ele>50.554438</ele>
        <time>2022-12-21T10:58:08.328Z</time>
      </trkpt>
      <trkpt lat="46.10359" lon="-1.12578">
        <ele>50.541412</ele>
        <time>2022-12-21T10:58:11.328Z</time>
      </trkpt>
      <trkpt lat="46.10361" lon="-1.12562">
        <ele>50.545752</ele>
        <time>2022-12-21T10:58:15.329Z</time>
      </trkpt>
      <trkpt lat="46.10362" lon="-1.12548">
        <ele>50.691946</ele>
        <time>2022-12-21T10:58:20.333Z</time>
      </trkpt>
      <trkpt lat="46.10364" lon="-1.12533">
        <ele>50.85024</ele>
        <time>2022-12-21T10:58:24.326Z</time>
      </trkpt>
      <trkpt lat="46.10366" lon="-1.1252">
        <ele>50.984958</ele>
        <time>2022-12-21T10:58:27.329Z</time>
      </trkpt>
      <trkpt lat="46.1037" lon="-1.12505">
        <ele>51.143413</ele>
        <time>2022-12-21T10:58:31.333Z</time>
      </trkpt>
      <trkpt lat="46.10372" lon="-1.12492">
        <ele>51.275507</ele>
        <time>2022-12-21T10:58:35.324Z</time>
      </trkpt>
      <trkpt lat="46.10369" lon="-1.12476">
        <ele>51.441023</ele>
        <time>2022-12-21T10:58:39.307Z</time>
      </trkpt>
      <trkpt lat="46.10365" lon="-1.12464">
        <ele>51.580536</ele>
        <time>2022-12-21T10:58:42.307Z</time>
      </trkpt>
      <trkpt lat="46.10361" lon="-1.12451">
        <ele>51.725542</ele>
        <time>2022-12-21T10:58:45.324Z</time>
      </trkpt>
      <trkpt lat="46.10357" lon="-1.12437">
        <ele>51.87557</ele>
        <time>2022-12-21T10:58:48.307Z</time>
      </trkpt>
      <trkpt lat="46.10352" lon="-1.12424">
        <ele>52.023401</ele>
        <time>2022-12-21T10:58:51.332Z</time>
      </trkpt>
      <trkpt lat="46.1035" lon="-1.1241">
        <ele>52.168341</ele>
        <time>2022-12-21T10:58:54.322Z</time>
      </trkpt>
      <trkpt lat="46.10347" lon="-1.12396">
        <ele>52.313512</ele>
        <time>2022-12-21T10:58:57.315Z</time>
      </trkpt>
      <trkpt lat="46.10345" lon="-1.12383">
        <ele>52.450187</ele>
        <time>2022-12-21T10:59:00.321Z</time>
      </trkpt>
      <trkpt lat="46.10342" lon="-1.12366">
        <ele>52.623171</ele>
        <time>2022-12-21T10:59:04.329Z</time>
      </trkpt>
      <trkpt lat="46.10341" lon="-1.12353">
        <ele>52.761305</ele>
        <time>2022-12-21T10:59:07.334Z</time>
      </trkpt>
      <trkpt lat="46.1034" lon="-1.12339">
        <ele>52.902615</ele>
        <time>2022-12-21T10:59:10.332Z</time>
      </trkpt>
      <trkpt lat="46.10339" lon="-1.12325">
        <ele>53.041157</ele>
        <time>2022-12-21T10:59:13.309Z</time>
      </trkpt>
      <trkpt lat="46.10339" lon="-1.1231">
        <ele>53.165991</ele>
        <time>2022-12-21T10:59:16.334Z</time>
      </trkpt>
      <trkpt lat="46.1034" lon="-1.12296">
        <ele>53.242989</ele>
        <time>2022-12-21T10:59:19.331Z</time>
      </trkpt>
      <trkpt lat="46.10339" lon="-1.12281">
        <ele>53.324154</ele>
        <time>2022-12-21T10:59:22.334Z</time>
      </trkpt>
      <trkpt lat="46.10339" lon="-1.12265">
        <ele>53.409626</ele>
        <time>2022-12-21T10:59:25.324Z</time>
      </trkpt>
      <trkpt lat="46.10339" lon="-1.1225">
        <ele>53.491298</ele>
        <time>2022-12-21T10:59:28.336Z</time>
      </trkpt>
      <trkpt lat="46.1034" lon="-1.12235">
        <ele>53.572613</ele>
        <time>2022-12-21T10:59:31.326Z</time>
      </trkpt>
      <trkpt lat="46.10341" lon="-1.1222">
        <ele>53.655986</ele>
        <time>2022-12-21T10:59:34.326Z</time>
      </trkpt>
      <trkpt lat="46.10344" lon="-1.12205">
        <ele>53.741006</ele>
        <time>2022-12-21T10:59:37.334Z</time>
      </trkpt>
      <trkpt lat="46.10346" lon="-1.12189">
        <ele>53.824836</ele>
        <time>2022-12-21T10:59:40.336Z</time>
      </trkpt>
      <trkpt lat="46.10347" lon="-1.12174">
        <ele>53.907234</ele>
        <time>2022-12-21T10:59:43.314Z</time>
      </trkpt>
      <trkpt lat="46.10348" lon="-1.1216">
        <ele>53.984181</ele>
        <time>2022-12-21T10:59:46.335Z</time>
      </trkpt>
      <trkpt lat="46.10349" lon="-1.12143">
        <ele>54.07646</ele>
        <time>2022-12-21T10:59:50.332Z</time>
      </trkpt>
      <trkpt lat="46.10348" lon="-1.12128">
        <ele>54.155739</ele>
        <time>2022-12-21T10:59:53.311Z</time>
      </trkpt>
      <trkpt lat="46.10345" lon="-1.12113">
        <ele>54.241993</ele>
        <time>2022-12-21T10:59:56.322Z</time>
      </trkpt>
      <trkpt lat="46.10342" lon="-1.12097">
        <ele>54.331541</ele>
        <time>2022-12-21T10:59:59.307Z</time>
      </trkpt>
      <trkpt lat="46.1034" lon="-1.1208">
        <ele>54.425224</ele>
        <time>2022-12-21T11:00:02.311Z</time>
      </trkpt>
      <trkpt lat="46.10338" lon="-1.12062">
        <ele>54.522032</ele>
        <time>2022-12-21T11:00:05.314Z</time>
      </trkpt>
      <trkpt lat="46.10337" lon="-1.12044">
        <ele>54.576901</ele>
        <time>2022-12-21T11:00:08.332Z</time>
      </trkpt>
      <trkpt lat="46.10337" lon="-1.12026">
        <ele>54.618739</ele>
        <time>2022-12-21T11:00:11.322Z</time>
      </trkpt>
      <trkpt lat="46.10339" lon="-1.12009">
        <ele>54.658769</ele>
        <time>2022-12-21T11:00:14.332Z</time>
      </trkpt>
      <trkpt lat="46.1034" lon="-1.11993">
        <ele>54.695673</ele>
        <time>2022-12-21T11:00:17.334Z</time>
      </trkpt>
      <trkpt lat="46.10341" lon="-1.11977">
        <ele>54.731886</ele>
        <time>2022-12-21T11:00:20.329Z</time>
      </trkpt>
      <trkpt lat="46.10341" lon="-1.11961">
        <ele>54.769114</ele>
        <time>2022-12-21T11:00:23.327Z</time>
      </trkpt>
      <trkpt lat="46.10339" lon="-1.11944">
        <ele>54.808999</ele>
        <time>2022-12-21T11:00:26.310Z</time>
      </trkpt>
      <trkpt lat="46.10337" lon="-1.11927">
        <ele>54.848913</ele>
        <time>2022-12-21T11:00:29.334Z</time>
      </trkpt>
      <trkpt lat="46.10333" lon="-1.1191">
        <ele>54.890303</ele>
        <time>2022-12-21T11:00:32.333Z</time>
      </trkpt>
      <trkpt lat="46.1033" lon="-1.11893">
        <ele>54.932151</ele>
        <time>2022-12-21T11:00:35.335Z</time>
      </trkpt>
      <trkpt lat="46.10326" lon="-1.11878">
        <ele>54.968348</ele>
        <time>2022-12-21T11:00:38.312Z</time>
      </trkpt>
      <trkpt lat="46.10323" lon="-1.11864">
        <ele>55.002219</ele>
        <time>2022-12-21T11:00:41.333Z</time>
      </trkpt>
      <trkpt lat="46.1032" lon="-1.11849">
        <ele>55.037639</ele>
        <time>2022-12-21T11:00:44.336Z</time>
      </trkpt>
      <trkpt lat="46.10316" lon="-1.11835">
        <ele>55.072373</ele>
        <time>2022-12-21T11:00:47.335Z</time>
      </trkpt>
      <trkpt lat="46.10314" lon="-1.1182">
        <ele>55.109157</ele>
        <time>2022-12-21T11:00:50.319Z</time>
      </trkpt>
      <trkpt lat="46.10313" lon="-1.11803">
        <ele>55.137155</ele>
        <time>2022-12-21T11:00:53.308Z</time>
      </trkpt>
      <trkpt lat="46.10313" lon="-1.11788">
        <ele>55.085221</ele>
        <time>2022-12-21T11:00:56.333Z</time>
      </trkpt>
      <trkpt lat="46.10315" lon="-1.11772">
        <ele>55.03322</ele>
        <time>2022-12-21T11:00:59.311Z</time>
      </trkpt>
      <trkpt lat="46.10317" lon="-1.11757">
        <ele>54.98049</ele>
        <time>2022-12-21T11:01:02.307Z</time>
      </trkpt>
      <trkpt lat="46.10321" lon="-1.11741">
        <ele>54.92561</ele>
        <time>2022-12-21T11:01:05.311Z</time>
      </trkpt>
      <trkpt lat="46.10326" lon="-1.11726">
        <ele>54.868833</ele>
        <time>2022-12-21T11:01:08.314Z</time>
      </trkpt>
      <trkpt lat="46.10331" lon="-1.1171">
        <ele>54.811657</ele>
        <time>2022-12-21T11:01:11.329Z</time>
      </trkpt>
      <trkpt lat="46.10337" lon="-1.11696">
        <ele>54.756149</ele>
        <time>2022-12-21T11:01:14.331Z</time>
      </trkpt>
      <trkpt lat="46.10342" lon="-1.11682">
        <ele>54.704609</ele>
        <time>2022-12-21T11:01:17.332Z</time>
      </trkpt>
      <trkpt lat="46.10346" lon="-1.11668">
        <ele>54.653059</ele>
        <time>2022-12-21T11:01:20.324Z</time>
      </trkpt>
      <trkpt lat="46.10351" lon="-1.11652">
        <ele>54.596969</ele>
        <time>2022-12-21T11:01:23.306Z</time>
      </trkpt>
      <trkpt lat="46.10354" lon="-1.11636">
        <ele>54.540864</ele>
        <time>2022-12-21T11:01:26.317Z</time>
      </trkpt>
      <trkpt lat="46.10356" lon="-1.11619">
        <ele>54.483267</ele>
        <time>2022-12-21T11:01:29.311Z</time>
      </trkpt>
      <trkpt lat="46.10359" lon="-1.11603">
        <ele>54.426961</ele>
        <time>2022-12-21T11:01:32.327Z</time>
      </trkpt>
      <trkpt lat="46.10362" lon="-1.11585">
        <ele>54.368508</ele>
        <time>2022-12-21T11:01:35.316Z</time>
      </trkpt>
      <trkpt lat="46.10365" lon="-1.11569">
        <ele>54.310351</ele>
        <time>2022-12-21T11:01:38.335Z</time>
      </trkpt>
      <trkpt lat="46.10367" lon="-1.11552">
        <ele>54.288751</ele>
        <time>2022-12-21T11:01:41.335Z</time>
      </trkpt>
      <trkpt lat="46.10368" lon="-1.11536">
        <ele>54.307497</ele>
        <time>2022-12-21T11:01:44.333Z</time>
      </trkpt>
      <trkpt lat="46.10371" lon="-1.1152">
        <ele>54.326882</ele>
        <time>2022-12-21T11:01:47.325Z</time>
      </trkpt>
      <trkpt lat="46.10374" lon="-1.11503">
        <ele>54.347533</ele>
        <time>2022-12-21T11:01:50.312Z</time>
      </trkpt>
      <trkpt lat="46.10376" lon="-1.11486">
        <ele>54.368631</ele>
        <time>2022-12-21T11:01:53.332Z</time>
      </trkpt>
      <trkpt lat="46.1038" lon="-1.11469">
        <ele>54.38883</ele>
        <time>2022-12-21T11:01:56.306Z</time>
      </trkpt>
      <trkpt lat="46.10382" lon="-1.11452">
        <ele>54.409268</ele>
        <time>2022-12-21T11:01:59.334Z</time>
      </trkpt>
      <trkpt lat="46.10385" lon="-1.11435">
        <ele>54.429956</ele>
        <time>2022-12-21T11:02:02.322Z</time>
      </trkpt>
      <trkpt lat="46.10387" lon="-1.11419">
        <ele>54.449286</ele>
        <time>2022-12-21T11:02:05.310Z</time>
      </trkpt>
      <trkpt lat="46.10389" lon="-1.11405">
        <ele>54.466364</ele>
        <time>2022-12-21T11:02:08.330Z</time>
      </trkpt>
      <trkpt lat="46.10389" lon="-1.11389">
        <ele>54.484714</ele>
        <time>2022-12-21T11:02:12.326Z</time>
      </trkpt>
      <trkpt lat="46.10381" lon="-1.11379">
        <ele>54.503503</ele>
        <time>2022-12-21T11:02:17.314Z</time>
      </trkpt>
      <trkpt lat="46.1037" lon="-1.11374">
        <ele>54.522055</ele>
        <time>2022-12-21T11:02:20.330Z</time>
      </trkpt>
      <trkpt lat="46.10358" lon="-1.11368">
        <ele>54.543441</ele>
        <time>2022-12-21T11:02:23.334Z</time>
      </trkpt>
      <trkpt lat="46.10348" lon="-1.11361">
        <ele>54.563294</ele>
        <time>2022-12-21T11:02:26.309Z</time>
      </trkpt>
      <trkpt lat="46.10336" lon="-1.11355">
        <ele>54.583562</ele>
        <time>2022-12-21T11:02:29.333Z</time>
      </trkpt>
      <trkpt lat="46.10326" lon="-1.11349">
        <ele>54.730339</ele>
        <time>2022-12-21T11:02:32.335Z</time>
      </trkpt>
      <trkpt lat="46.10315" lon="-1.11343">
        <ele>54.883307</ele>
        <time>2022-12-21T11:02:35.313Z</time>
      </trkpt>
      <trkpt lat="46.10306" lon="-1.11338">
        <ele>55.019332</ele>
        <time>2022-12-21T11:02:38.332Z</time>
      </trkpt>
      <trkpt lat="46.10296" lon="-1.11331">
        <ele>55.170367</ele>
        <time>2022-12-21T11:02:43.336Z</time>
      </trkpt>
      <trkpt lat="46.10286" lon="-1.11325">
        <ele>55.306678</ele>
        <time>2022-12-21T11:02:47.311Z</time>
      </trkpt>
      <trkpt lat="46.10276" lon="-1.11317">
        <ele>55.465126</ele>
        <time>2022-12-21T11:02:51.307Z</time>
      </trkpt>
      <trkpt lat="46.10266" lon="-1.1131">
        <ele>55.617786</ele>
        <time>2022-12-21T11:02:55.333Z</time>
      </trkpt>
      <trkpt lat="46.10258" lon="-1.11303">
        <ele>55.744972</ele>
        <time>2022-12-21T11:02:58.337Z</time>
      </trkpt>
      <trkpt lat="46.10248" lon="-1.11294">
        <ele>55.904483</ele>
        <time>2022-12-21T11:03:02.336Z</time>
      </trkpt>
      <trkpt lat="46.1024" lon="-1.11287">
        <ele>56.036352</ele>
        <time>2022-12-21T11:03:05.313Z</time>
      </trkpt>
      <trkpt lat="46.10231" lon="-1.1128">
        <ele>56.169865</ele>
        <time>2022-12-21T11:03:08.337Z</time>
      </trkpt>
      <trkpt lat="46.10222" lon="-1.11272">
        <ele>56.311258</ele>
        <time>2022-12-21T11:03:12.323Z</time>
      </trkpt>
      <trkpt lat="46.10213" lon="-1.11261">
        <ele>56.465226</ele>
        <time>2022-12-21T11:03:17.313Z</time>
      </trkpt>
      <trkpt lat="46.10205" lon="-1.11254">
        <ele>56.599034</ele>
        <time>2022-12-21T11:03:21.315Z</time>
      </trkpt>
      <trkpt lat="46.10197" lon="-1.11246">
        <ele>56.727758</ele>
        <time>2022-12-21T11:03:25.324Z</time>
      </trkpt>
      <trkpt lat="46.10189" lon="-1.11239">
        <ele>56.857505</ele>
        <time>2022-12-21T11:03:30.311Z</time>
      </trkpt>
      <trkpt lat="46.10181" lon="-1.11232">
        <ele>56.980785</ele>
        <time>2022-12-21T11:03:34.334Z</time>
      </trkpt>
      <trkpt lat="46.10172" lon="-1.11222">
        <ele>57.004317</ele>
        <time>2022-12-21T11:03:38.326Z</time>
      </trkpt>
      <trkpt lat="46.10163" lon="-1.11212">
        <ele>56.980959</ele>
        <time>2022-12-21T11:03:42.333Z</time>
      </trkpt>
      <trkpt lat="46.10154" lon="-1.11202">
        <ele>56.956854</ele>
        <time>2022-12-21T11:03:46.339Z</time>
      </trkpt>
      <trkpt lat="46.10148" lon="-1.11193">
        <ele>56.938425</ele>
        <time>2022-12-21T11:03:49.332Z</time>
      </trkpt>
      <trkpt lat="46.1014" lon="-1.11185">
        <ele>56.919337</ele>
        <time>2022-12-21T11:03:52.312Z</time>
      </trkpt>
      <trkpt lat="46.10132" lon="-1.11174">
        <ele>56.897661</ele>
        <time>2022-12-21T11:03:56.316Z</time>
      </trkpt>
      <trkpt lat="46.10123" lon="-1.11164">
        <ele>56.873128</ele>
        <time>2022-12-21T11:04:00.308Z</time>
      </trkpt>
      <trkpt lat="46.10115" lon="-1.11152">
        <ele>56.849224</ele>
        <time>2022-12-21T11:04:04.334Z</time>
      </trkpt>
      <trkpt lat="46.10107" lon="-1.11142">
        <ele>56.828633</ele>
        <time>2022-12-21T11:04:08.321Z</time>
      </trkpt>
      <trkpt lat="46.10101" lon="-1.11133">
        <ele>56.809574</ele>
        <time>2022-12-21T11:04:11.333Z</time>
      </trkpt>
      <trkpt lat="46.10094" lon="-1.11123">
        <ele>56.789825</ele>
        <time>2022-12-21T11:04:14.326Z</time>
      </trkpt>
      <trkpt lat="46.10087" lon="-1.11113">
        <ele>56.768685</ele>
        <time>2022-12-21T11:04:17.332Z</time>
      </trkpt>
      <trkpt lat="46.10079" lon="-1.11101">
        <ele>56.745703</ele>
        <time>2022-12-21T11:04:20.312Z</time>
      </trkpt>
      <trkpt lat="46.10071" lon="-1.1109">
        <ele>56.722596</ele>
        <time>2022-12-21T11:04:23.341Z</time>
      </trkpt>
      <trkpt lat="46.10064" lon="-1.11078">
        <ele>56.70093</ele>
        <time>2022-12-21T11:04:26.311Z</time>
      </trkpt>
      <trkpt lat="46.10057" lon="-1.11068">
        <ele>56.681364</ele>
        <time>2022-12-21T11:04:29.333Z</time>
      </trkpt>
      <trkpt lat="46.1005" lon="-1.11057">
        <ele>56.658453</ele>
        <time>2022-12-21T11:04:33.330Z</time>
      </trkpt>
      <trkpt lat="46.10043" lon="-1.11043">
        <ele>56.741137</ele>
        <time>2022-12-21T11:04:37.335Z</time>
      </trkpt>
      <trkpt lat="46.10037" lon="-1.11032">
        <ele>56.842894</ele>
        <time>2022-12-21T11:04:40.337Z</time>
      </trkpt>
      <trkpt lat="46.10031" lon="-1.11021">
        <ele>56.94732</ele>
        <time>2022-12-21T11:04:43.325Z</time>
      </trkpt>
      <trkpt lat="46.10025" lon="-1.11009">
        <ele>57.052191</ele>
        <time>2022-12-21T11:04:46.330Z</time>
      </trkpt>
      <trkpt lat="46.10019" lon="-1.10998">
        <ele>57.164807</ele>
        <time>2022-12-21T11:04:49.339Z</time>
      </trkpt>
      <trkpt lat="46.10013" lon="-1.10986">
        <ele>57.270978</ele>
        <time>2022-12-21T11:04:52.332Z</time>
      </trkpt>
      <trkpt lat="46.10006" lon="-1.10972">
        <ele>57.39655</ele>
        <time>2022-12-21T11:04:56.312Z</time>
      </trkpt>
      <trkpt lat="46.10001" lon="-1.10961">
        <ele>57.495298</ele>
        <time>2022-12-21T11:04:59.335Z</time>
      </trkpt>
      <trkpt lat="46.09995" lon="-1.10951">
        <ele>57.594247</ele>
        <time>2022-12-21T11:05:02.324Z</time>
      </trkpt>
      <trkpt lat="46.09989" lon="-1.10941">
        <ele>57.69285</ele>
        <time>2022-12-21T11:05:05.314Z</time>
      </trkpt>
      <trkpt lat="46.09983" lon="-1.1093">
        <ele>57.795549</ele>
        <time>2022-12-21T11:05:08.324Z</time>
      </trkpt>
      <trkpt lat="46.09977" lon="-1.10919">
        <ele>57.898149</ele>
        <time>2022-12-21T11:05:11.316Z</time>
      </trkpt>
      <trkpt lat="46.09971" lon="-1.10906">
        <ele>58.01272</ele>
        <time>2022-12-21T11:05:15.332Z</time>
      </trkpt>
      <trkpt lat="46.09965" lon="-1.10895">
        <ele>58.123205</ele>
        <time>2022-12-21T11:05:19.323Z</time>
      </trkpt>
      <trkpt lat="46.09959" lon="-1.10884">
        <ele>58.220766</ele>
        <time>2022-12-21T11:05:22.331Z</time>
      </trkpt>
      <trkpt lat="46.09952" lon="-1.10875">
        <ele>58.324562</ele>
        <time>2022-12-21T11:05:25.328Z</time>
      </trkpt>
      <trkpt lat="46.09943" lon="-1.10867">
        <ele>58.437194</ele>
        <time>2022-12-21T11:05:28.320Z</time>
      </trkpt>
      <trkpt lat="46.09934" lon="-1.10861">
        <ele>58.542293</ele>
        <time>2022-12-21T11:05:31.311Z</time>
      </trkpt>
      <trkpt lat="46.09925" lon="-1.10855">
        <ele>58.605041</ele>
        <time>2022-12-21T11:05:35.326Z</time>
      </trkpt>
      <trkpt lat="46.09919" lon="-1.10843">
        <ele>58.649407</ele>
        <time>2022-12-21T11:05:40.317Z</time>
      </trkpt>
      <trkpt lat="46.09914" lon="-1.10831">
        <ele>58.692098</ele>
        <time>2022-12-21T11:05:44.333Z</time>
      </trkpt>
      <trkpt lat="46.09908" lon="-1.10817">
        <ele>58.739096</ele>
        <time>2022-12-21T11:05:48.336Z</time>
      </trkpt>
      <trkpt lat="46.09904" lon="-1.10801">
        <ele>58.788974</ele>
        <time>2022-12-21T11:05:52.329Z</time>
      </trkpt>
      <trkpt lat="46.09901" lon="-1.10786">
        <ele>58.836368</ele>
        <time>2022-12-21T11:05:56.336Z</time>
      </trkpt>
      <trkpt lat="46.09896" lon="-1.10772">
        <ele>58.886092</ele>
        <time>2022-12-21T11:06:00.321Z</time>
      </trkpt>
      <trkpt lat="46.09889" lon="-1.10762">
        <ele>58.926683</ele>
        <time>2022-12-21T11:06:03.317Z</time>
      </trkpt>
      <trkpt lat="46.09884" lon="-1.10751">
        <ele>58.968603</ele>
        <time>2022-12-21T11:06:06.334Z</time>
      </trkpt>
      <trkpt lat="46.09878" lon="-1.1074">
        <ele>59.009067</ele>
        <time>2022-12-21T11:06:09.333Z</time>
      </trkpt>
      <trkpt lat="46.09872" lon="-1.1073">
        <ele>59.049091</ele>
        <time>2022-12-21T11:06:12.337Z</time>
      </trkpt>
      <trkpt lat="46.09866" lon="-1.10718">
        <ele>59.091736</ele>
        <time>2022-12-21T11:06:15.329Z</time>
      </trkpt>
      <trkpt lat="46.0986" lon="-1.10707">
        <ele>59.13429</ele>
        <time>2022-12-21T11:06:18.336Z</time>
      </trkpt>
      <trkpt lat="46.09853" lon="-1.10694">
        <ele>59.183605</ele>
        <time>2022-12-21T11:06:22.316Z</time>
      </trkpt>
      <trkpt lat="46.09846" lon="-1.10681">
        <ele>59.231961</ele>
        <time>2022-12-21T11:06:26.328Z</time>
      </trkpt>
      <trkpt lat="46.09841" lon="-1.1067">
        <ele>59.272874</ele>
        <time>2022-12-21T11:06:29.337Z</time>
      </trkpt>
      <trkpt lat="46.09836" lon="-1.10657">
        <ele>59.317456</ele>
        <time>2022-12-21T11:06:32.305Z</time>
      </trkpt>
      <trkpt lat="46.0983" lon="-1.10645">
        <ele>59.334331</ele>
        <time>2022-12-21T11:06:35.336Z</time>
      </trkpt>
      <trkpt lat="46.09822" lon="-1.10632">
        <ele>59.248271</ele>
        <time>2022-12-21T11:06:38.317Z</time>
      </trkpt>
      <trkpt lat="46.09815" lon="-1.10618">
        <ele>59.162369</ele>
        <time>2022-12-21T11:06:41.323Z</time>
      </trkpt>
      <trkpt lat="46.09808" lon="-1.10606">
        <ele>59.078768</ele>
        <time>2022-12-21T11:06:44.337Z</time>
      </trkpt>
      <trkpt lat="46.09802" lon="-1.10594">
        <ele>59.002191</ele>
        <time>2022-12-21T11:06:47.333Z</time>
      </trkpt>
      <trkpt lat="46.09796" lon="-1.10582">
        <ele>58.926471</ele>
        <time>2022-12-21T11:06:50.314Z</time>
      </trkpt>
      <trkpt lat="46.0979" lon="-1.1057">
        <ele>58.847822</ele>
        <time>2022-12-21T11:06:53.349Z</time>
      </trkpt>
      <trkpt lat="46.09783" lon="-1.10557">
        <ele>58.765222</ele>
        <time>2022-12-21T11:06:56.324Z</time>
      </trkpt>
      <trkpt lat="46.09776" lon="-1.10544">
        <ele>58.680647</ele>
        <time>2022-12-21T11:06:59.331Z</time>
      </trkpt>
      <trkpt lat="46.09769" lon="-1.10531">
        <ele>58.595107</ele>
        <time>2022-12-21T11:07:02.304Z</time>
      </trkpt>
      <trkpt lat="46.09762" lon="-1.10519">
        <ele>58.517258</ele>
        <time>2022-12-21T11:07:05.330Z</time>
      </trkpt>
      <trkpt lat="46.09756" lon="-1.10507">
        <ele>58.439412</ele>
        <time>2022-12-21T11:07:08.319Z</time>
      </trkpt>
      <trkpt lat="46.09749" lon="-1.10494">
        <ele>58.354368</ele>
        <time>2022-12-21T11:07:11.336Z</time>
      </trkpt>
      <trkpt lat="46.09741" lon="-1.10482">
        <ele>58.268995</ele>
        <time>2022-12-21T11:07:14.334Z</time>
      </trkpt>
      <trkpt lat="46.09734" lon="-1.10468">
        <ele>58.182683</ele>
        <time>2022-12-21T11:07:17.345Z</time>
      </trkpt>
      <trkpt lat="46.09728" lon="-1.10457">
        <ele>58.106472</ele>
        <time>2022-12-21T11:07:20.336Z</time>
      </trkpt>
      <trkpt lat="46.09721" lon="-1.10445">
        <ele>58.027673</ele>
        <time>2022-12-21T11:07:23.337Z</time>
      </trkpt>
      <trkpt lat="46.09714" lon="-1.10432">
        <ele>57.896316</ele>
        <time>2022-12-21T11:07:26.331Z</time>
      </trkpt>
      <trkpt lat="46.09707" lon="-1.10418">
        <ele>57.748261</ele>
        <time>2022-12-21T11:07:29.336Z</time>
      </trkpt>
      <trkpt lat="46.09699" lon="-1.10406">
        <ele>57.610775</ele>
        <time>2022-12-21T11:07:32.334Z</time>
      </trkpt>
      <trkpt lat="46.09694" lon="-1.10394">
        <ele>57.485999</ele>
        <time>2022-12-21T11:07:35.325Z</time>
      </trkpt>
      <trkpt lat="46.09687" lon="-1.10382">
        <ele>57.361769</ele>
        <time>2022-12-21T11:07:38.335Z</time>
      </trkpt>
      <trkpt lat="46.09681" lon="-1.10371">
        <ele>57.235013</ele>
        <time>2022-12-21T11:07:41.334Z</time>
      </trkpt>
      <trkpt lat="46.09674" lon="-1.10359">
        <ele>57.104086</ele>
        <time>2022-12-21T11:07:44.323Z</time>
      </trkpt>
      <trkpt lat="46.09667" lon="-1.10347">
        <ele>56.972635</ele>
        <time>2022-12-21T11:07:47.334Z</time>
      </trkpt>
      <trkpt lat="46.09661" lon="-1.10336">
        <ele>56.847731</ele>
        <time>2022-12-21T11:07:50.335Z</time>
      </trkpt>
      <trkpt lat="46.09654" lon="-1.10325">
        <ele>56.726431</ele>
        <time>2022-12-21T11:07:53.339Z</time>
      </trkpt>
      <trkpt lat="46.09646" lon="-1.10315">
        <ele>56.599328</ele>
        <time>2022-12-21T11:07:56.312Z</time>
      </trkpt>
      <trkpt lat="46.09637" lon="-1.10306">
        <ele>56.461532</ele>
        <time>2022-12-21T11:07:59.314Z</time>
      </trkpt>
      <trkpt lat="46.09626" lon="-1.10298">
        <ele>56.310119</ele>
        <time>2022-12-21T11:08:02.312Z</time>
      </trkpt>
      <trkpt lat="46.09614" lon="-1.10292">
        <ele>56.155497</ele>
        <time>2022-12-21T11:08:05.304Z</time>
      </trkpt>
      <trkpt lat="46.09604" lon="-1.10282">
        <ele>56.002597</ele>
        <time>2022-12-21T11:08:08.306Z</time>
      </trkpt>
      <trkpt lat="46.09594" lon="-1.10272">
        <ele>55.856191</ele>
        <time>2022-12-21T11:08:11.334Z</time>
      </trkpt>
      <trkpt lat="46.09585" lon="-1.10259">
        <ele>55.724713</ele>
        <time>2022-12-21T11:08:14.337Z</time>
      </trkpt>
      <trkpt lat="46.09577" lon="-1.10246">
        <ele>55.605794</ele>
        <time>2022-12-21T11:08:17.337Z</time>
      </trkpt>
      <trkpt lat="46.09569" lon="-1.10232">
        <ele>55.48019</ele>
        <time>2022-12-21T11:08:20.327Z</time>
      </trkpt>
      <trkpt lat="46.09559" lon="-1.10218">
        <ele>55.350071</ele>
        <time>2022-12-21T11:08:23.331Z</time>
      </trkpt>
      <trkpt lat="46.09553" lon="-1.10208">
        <ele>55.261566</ele>
        <time>2022-12-21T11:08:25.334Z</time>
      </trkpt>
      <trkpt lat="46.09545" lon="-1.10195">
        <ele>55.139707</ele>
        <time>2022-12-21T11:08:28.328Z</time>
      </trkpt>
      <trkpt lat="46.09537" lon="-1.10179">
        <ele>55.011208</ele>
        <time>2022-12-21T11:08:31.308Z</time>
      </trkpt>
      <trkpt lat="46.09529" lon="-1.10165">
        <ele>54.884555</ele>
        <time>2022-12-21T11:08:34.329Z</time>
      </trkpt>
      <trkpt lat="46.09522" lon="-1.1015">
        <ele>54.760553</ele>
        <time>2022-12-21T11:08:37.325Z</time>
      </trkpt>
      <trkpt lat="46.09513" lon="-1.10138">
        <ele>54.639683</ele>
        <time>2022-12-21T11:08:40.311Z</time>
      </trkpt>
      <trkpt lat="46.09502" lon="-1.10133">
        <ele>54.530862</ele>
        <time>2022-12-21T11:08:43.315Z</time>
      </trkpt>
      <trkpt lat="46.09492" lon="-1.10129">
        <ele>54.429043</ele>
        <time>2022-12-21T11:08:46.308Z</time>
      </trkpt>
      <trkpt lat="46.09484" lon="-1.10119">
        <ele>54.322002</ele>
        <time>2022-12-21T11:08:49.307Z</time>
      </trkpt>
      <trkpt lat="46.09478" lon="-1.10104">
        <ele>54.20517</ele>
        <time>2022-12-21T11:08:52.312Z</time>
      </trkpt>
      <trkpt lat="46.09474" lon="-1.10088">
        <ele>54.08764</ele>
        <time>2022-12-21T11:08:55.316Z</time>
      </trkpt>
      <trkpt lat="46.09475" lon="-1.10071">
        <ele>54.024511</ele>
        <time>2022-12-21T11:08:58.316Z</time>
      </trkpt>
      <trkpt lat="46.0948" lon="-1.10057">
        <ele>53.983263</ele>
        <time>2022-12-21T11:09:02.319Z</time>
      </trkpt>
      <trkpt lat="46.09483" lon="-1.10042">
        <ele>53.944317</ele>
        <time>2022-12-21T11:09:06.320Z</time>
      </trkpt>
      <trkpt lat="46.09483" lon="-1.10029">
        <ele>53.911363</ele>
        <time>2022-12-21T11:09:09.315Z</time>
      </trkpt>
      <trkpt lat="46.09479" lon="-1.10016">
        <ele>53.877984</ele>
        <time>2022-12-21T11:09:12.317Z</time>
      </trkpt>
      <trkpt lat="46.09471" lon="-1.10011">
        <ele>53.845431</ele>
        <time>2022-12-21T11:09:15.314Z</time>
      </trkpt>
      <trkpt lat="46.0946" lon="-1.1001">
        <ele>53.805487</ele>
        <time>2022-12-21T11:09:19.334Z</time>
      </trkpt>
      <trkpt lat="46.09451" lon="-1.10009">
        <ele>53.770674</ele>
        <time>2022-12-21T11:09:22.318Z</time>
      </trkpt>
      <trkpt lat="46.0944" lon="-1.10006">
        <ele>53.730767</ele>
        <time>2022-12-21T11:09:25.311Z</time>
      </trkpt>
      <trkpt lat="46.09429" lon="-1.10002">
        <ele>53.689127</ele>
        <time>2022-12-21T11:09:28.336Z</time>
      </trkpt>
      <trkpt lat="46.09419" lon="-1.09998">
        <ele>53.650891</ele>
        <time>2022-12-21T11:09:31.318Z</time>
      </trkpt>
      <trkpt lat="46.09409" lon="-1.09994">
        <ele>53.615152</ele>
        <time>2022-12-21T11:09:34.337Z</time>
      </trkpt>
      <trkpt lat="46.09399" lon="-1.09991">
        <ele>53.578846</ele>
        <time>2022-12-21T11:09:37.336Z</time>
      </trkpt>
      <trkpt lat="46.0939" lon="-1.09986">
        <ele>53.543874</ele>
        <time>2022-12-21T11:09:40.323Z</time>
      </trkpt>
      <trkpt lat="46.09381" lon="-1.09983">
        <ele>53.508049</ele>
        <time>2022-12-21T11:09:43.318Z</time>
      </trkpt>
      <trkpt lat="46.09371" lon="-1.09979">
        <ele>53.472102</ele>
        <time>2022-12-21T11:09:46.333Z</time>
      </trkpt>
      <trkpt lat="46.09362" lon="-1.09975">
        <ele>53.436512</ele>
        <time>2022-12-21T11:09:49.335Z</time>
      </trkpt>
      <trkpt lat="46.09352" lon="-1.0997">
        <ele>53.410343</ele>
        <time>2022-12-21T11:09:52.314Z</time>
      </trkpt>
      <trkpt lat="46.09343" lon="-1.09965">
        <ele>53.482747</ele>
        <time>2022-12-21T11:09:55.337Z</time>
      </trkpt>
      <trkpt lat="46.09333" lon="-1.09962">
        <ele>53.554134</ele>
        <time>2022-12-21T11:09:58.336Z</time>
      </trkpt>
      <trkpt lat="46.09324" lon="-1.09959">
        <ele>53.624065</ele>
        <time>2022-12-21T11:10:01.332Z</time>
      </trkpt>
      <trkpt lat="46.09313" lon="-1.09956">
        <ele>53.704202</ele>
        <time>2022-12-21T11:10:05.335Z</time>
      </trkpt>
      <trkpt lat="46.09303" lon="-1.09955">
        <ele>53.779268</ele>
        <time>2022-12-21T11:10:09.335Z</time>
      </trkpt>
      <trkpt lat="46.09292" lon="-1.09952">
        <ele>53.859487</ele>
        <time>2022-12-21T11:10:13.308Z</time>
      </trkpt>
      <trkpt lat="46.09281" lon="-1.0995">
        <ele>53.943967</ele>
        <time>2022-12-21T11:10:17.331Z</time>
      </trkpt>
      <trkpt lat="46.09272" lon="-1.09948">
        <ele>54.010682</ele>
        <time>2022-12-21T11:10:20.330Z</time>
      </trkpt>
      <trkpt lat="46.09262" lon="-1.09946">
        <ele>54.080595</ele>
        <time>2022-12-21T11:10:23.336Z</time>
      </trkpt>
      <trkpt lat="46.09252" lon="-1.09944">
        <ele>54.160653</ele>
        <time>2022-12-21T11:10:27.327Z</time>
      </trkpt>
      <trkpt lat="46.09242" lon="-1.09942">
        <ele>54.229333</ele>
        <time>2022-12-21T11:10:30.338Z</time>
      </trkpt>
      <trkpt lat="46.09233" lon="-1.09941">
        <ele>54.298352</ele>
        <time>2022-12-21T11:10:33.314Z</time>
      </trkpt>
      <trkpt lat="46.09223" lon="-1.09939">
        <ele>54.370938</ele>
        <time>2022-12-21T11:10:36.338Z</time>
      </trkpt>
      <trkpt lat="46.09214" lon="-1.09937">
        <ele>54.44193</ele>
        <time>2022-12-21T11:10:39.337Z</time>
      </trkpt>
      <trkpt lat="46.09204" lon="-1.09935">
        <ele>54.512052</ele>
        <time>2022-12-21T11:10:42.309Z</time>
      </trkpt>
      <trkpt lat="46.09194" lon="-1.09931">
        <ele>54.585434</ele>
        <time>2022-12-21T11:10:45.310Z</time>
      </trkpt>
      <trkpt lat="46.09185" lon="-1.09928">
        <ele>54.657293</ele>
        <time>2022-12-21T11:10:48.331Z</time>
      </trkpt>
      <trkpt lat="46.09175" lon="-1.09925">
        <ele>54.727379</ele>
        <time>2022-12-21T11:10:51.310Z</time>
      </trkpt>
      <trkpt lat="46.09165" lon="-1.09921">
        <ele>54.776497</ele>
        <time>2022-12-21T11:10:54.332Z</time>
      </trkpt>
      <trkpt lat="46.09155" lon="-1.09917">
        <ele>54.828675</ele>
        <time>2022-12-21T11:10:57.334Z</time>
      </trkpt>
      <trkpt lat="46.09144" lon="-1.09914">
        <ele>54.880927</ele>
        <time>2022-12-21T11:11:00.329Z</time>
      </trkpt>
      <trkpt lat="46.09134" lon="-1.09911">
        <ele>54.931687</ele>
        <time>2022-12-21T11:11:03.335Z</time>
      </trkpt>
      <trkpt lat="46.09124" lon="-1.09907">
        <ele>54.984412</ele>
        <time>2022-12-21T11:11:06.328Z</time>
      </trkpt>
      <trkpt lat="46.09113" lon="-1.09904">
        <ele>55.037871</ele>
        <time>2022-12-21T11:11:09.324Z</time>
      </trkpt>
      <trkpt lat="46.09102" lon="-1.099">
        <ele>55.091222</ele>
        <time>2022-12-21T11:11:12.308Z</time>
      </trkpt>
      <trkpt lat="46.09092" lon="-1.09897">
        <ele>55.141981</ele>
        <time>2022-12-21T11:11:15.323Z</time>
      </trkpt>
      <trkpt lat="46.09082" lon="-1.09895">
        <ele>55.190235</ele>
        <time>2022-12-21T11:11:18.330Z</time>
      </trkpt>
      <trkpt lat="46.09073" lon="-1.09891">
        <ele>55.237661</ele>
        <time>2022-12-21T11:11:21.332Z</time>
      </trkpt>
      <trkpt lat="46.09062" lon="-1.09888">
        <ele>55.288678</ele>
        <time>2022-12-21T11:11:24.312Z</time>
      </trkpt>
      <trkpt lat="46.09051" lon="-1.09884">
        <ele>55.343295</ele>
        <time>2022-12-21T11:11:27.335Z</time>
      </trkpt>
      <trkpt lat="46.0904" lon="-1.09882">
        <ele>55.397514</ele>
        <time>2022-12-21T11:11:30.342Z</time>
      </trkpt>
      <trkpt lat="46.0903" lon="-1.09878">
        <ele>55.450171</ele>
        <time>2022-12-21T11:11:33.330Z</time>
      </trkpt>
      <trkpt lat="46.0902" lon="-1.09874">
        <ele>55.496528</ele>
        <time>2022-12-21T11:11:36.321Z</time>
      </trkpt>
      <trkpt lat="46.09011" lon="-1.09872">
        <ele>55.541801</ele>
        <time>2022-12-21T11:11:39.338Z</time>
      </trkpt>
      <trkpt lat="46.09002" lon="-1.09868">
        <ele>55.590718</ele>
        <time>2022-12-21T11:11:42.309Z</time>
      </trkpt>
      <trkpt lat="46.08992" lon="-1.09864">
        <ele>55.517928</ele>
        <time>2022-12-21T11:11:45.337Z</time>
      </trkpt>
      <trkpt lat="46.08981" lon="-1.09857">
        <ele>55.434335</ele>
        <time>2022-12-21T11:11:48.317Z</time>
      </trkpt>
      <trkpt lat="46.08971" lon="-1.09851">
        <ele>55.350268</ele>
        <time>2022-12-21T11:11:51.315Z</time>
      </trkpt>
      <trkpt lat="46.08961" lon="-1.09844">
        <ele>55.262809</ele>
        <time>2022-12-21T11:11:54.317Z</time>
      </trkpt>
      <trkpt lat="46.08951" lon="-1.09836">
        <ele>55.176599</ele>
        <time>2022-12-21T11:11:57.331Z</time>
      </trkpt>
      <trkpt lat="46.08941" lon="-1.09827">
        <ele>55.093082</ele>
        <time>2022-12-21T11:12:00.328Z</time>
      </trkpt>
      <trkpt lat="46.08932" lon="-1.09819">
        <ele>55.013276</ele>
        <time>2022-12-21T11:12:03.310Z</time>
      </trkpt>
      <trkpt lat="46.08924" lon="-1.09809">
        <ele>54.931234</ele>
        <time>2022-12-21T11:12:06.314Z</time>
      </trkpt>
      <trkpt lat="46.08916" lon="-1.09799">
        <ele>54.84834</ele>
        <time>2022-12-21T11:12:09.337Z</time>
      </trkpt>
      <trkpt lat="46.08907" lon="-1.09788">
        <ele>54.760766</ele>
        <time>2022-12-21T11:12:12.317Z</time>
      </trkpt>
      <trkpt lat="46.08899" lon="-1.09777">
        <ele>54.674713</ele>
        <time>2022-12-21T11:12:15.335Z</time>
      </trkpt>
      <trkpt lat="46.08891" lon="-1.09767">
        <ele>54.597289</ele>
        <time>2022-12-21T11:12:18.333Z</time>
      </trkpt>
      <trkpt lat="46.08884" lon="-1.09757">
        <ele>54.522468</ele>
        <time>2022-12-21T11:12:21.333Z</time>
      </trkpt>
      <trkpt lat="46.08875" lon="-1.09747">
        <ele>54.442311</ele>
        <time>2022-12-21T11:12:24.333Z</time>
      </trkpt>
      <trkpt lat="46.08867" lon="-1.09736">
        <ele>54.356983</ele>
        <time>2022-12-21T11:12:27.314Z</time>
      </trkpt>
      <trkpt lat="46.08858" lon="-1.09723">
        <ele>54.26386</ele>
        <time>2022-12-21T11:12:30.312Z</time>
      </trkpt>
      <trkpt lat="46.08849" lon="-1.09713">
        <ele>54.158332</ele>
        <time>2022-12-21T11:12:33.310Z</time>
      </trkpt>
      <trkpt lat="46.0884" lon="-1.09702">
        <ele>54.041884</ele>
        <time>2022-12-21T11:12:36.310Z</time>
      </trkpt>
      <trkpt lat="46.08832" lon="-1.09692">
        <ele>53.933523</ele>
        <time>2022-12-21T11:12:39.328Z</time>
      </trkpt>
      <trkpt lat="46.08824" lon="-1.09681">
        <ele>53.831616</ele>
        <time>2022-12-21T11:12:42.322Z</time>
      </trkpt>
      <trkpt lat="46.08817" lon="-1.09673">
        <ele>53.742209</ele>
        <time>2022-12-21T11:12:45.335Z</time>
      </trkpt>
      <trkpt lat="46.08809" lon="-1.09662">
        <ele>53.633154</ele>
        <time>2022-12-21T11:12:49.337Z</time>
      </trkpt>
      <trkpt lat="46.088" lon="-1.09655">
        <ele>53.534126</ele>
        <time>2022-12-21T11:12:53.311Z</time>
      </trkpt>
      <trkpt lat="46.08791" lon="-1.09648">
        <ele>53.431983</ele>
        <time>2022-12-21T11:12:58.336Z</time>
      </trkpt>
      <trkpt lat="46.08787" lon="-1.09636">
        <ele>53.341951</ele>
        <time>2022-12-21T11:13:02.313Z</time>
      </trkpt>
      <trkpt lat="46.08777" lon="-1.09626">
        <ele>53.221482</ele>
        <time>2022-12-21T11:13:06.332Z</time>
      </trkpt>
      <trkpt lat="46.08767" lon="-1.09617">
        <ele>53.110869</ele>
        <time>2022-12-21T11:13:09.332Z</time>
      </trkpt>
      <trkpt lat="46.08758" lon="-1.09607">
        <ele>52.997499</ele>
        <time>2022-12-21T11:13:12.333Z</time>
      </trkpt>
      <trkpt lat="46.08747" lon="-1.09598">
        <ele>52.877464</ele>
        <time>2022-12-21T11:13:15.331Z</time>
      </trkpt>
      <trkpt lat="46.08737" lon="-1.09588">
        <ele>52.762549</ele>
        <time>2022-12-21T11:13:18.336Z</time>
      </trkpt>
      <trkpt lat="46.08728" lon="-1.09579">
        <ele>52.649935</ele>
        <time>2022-12-21T11:13:21.332Z</time>
      </trkpt>
      <trkpt lat="46.08718" lon="-1.09571">
        <ele>52.535843</ele>
        <time>2022-12-21T11:13:24.333Z</time>
      </trkpt>
      <trkpt lat="46.08708" lon="-1.09563">
        <ele>52.432131</ele>
        <time>2022-12-21T11:13:27.334Z</time>
      </trkpt>
      <trkpt lat="46.08697" lon="-1.09554">
        <ele>52.330939</ele>
        <time>2022-12-21T11:13:30.334Z</time>
      </trkpt>
      <trkpt lat="46.08687" lon="-1.09545">
        <ele>52.231014</ele>
        <time>2022-12-21T11:13:33.323Z</time>
      </trkpt>
      <trkpt lat="46.08677" lon="-1.09537">
        <ele>52.132827</ele>
        <time>2022-12-21T11:13:36.332Z</time>
      </trkpt>
      <trkpt lat="46.08668" lon="-1.09529">
        <ele>52.045048</ele>
        <time>2022-12-21T11:13:39.334Z</time>
      </trkpt>
      <trkpt lat="46.0866" lon="-1.09521">
        <ele>51.959134</ele>
        <time>2022-12-21T11:13:42.331Z</time>
      </trkpt>
      <trkpt lat="46.08651" lon="-1.09513">
        <ele>51.872291</ele>
        <time>2022-12-21T11:13:45.333Z</time>
      </trkpt>
      <trkpt lat="46.08642" lon="-1.09505">
        <ele>51.782286</ele>
        <time>2022-12-21T11:13:48.320Z</time>
      </trkpt>
      <trkpt lat="46.08633" lon="-1.09496">
        <ele>51.688749</ele>
        <time>2022-12-21T11:13:51.311Z</time>
      </trkpt>
      <trkpt lat="46.08623" lon="-1.09488">
        <ele>51.593681</ele>
        <time>2022-12-21T11:13:54.337Z</time>
      </trkpt>
      <trkpt lat="46.08612" lon="-1.09479">
        <ele>51.490687</ele>
        <time>2022-12-21T11:13:57.336Z</time>
      </trkpt>
      <trkpt lat="46.08602" lon="-1.09469">
        <ele>51.386136</ele>
        <time>2022-12-21T11:14:00.331Z</time>
      </trkpt>
      <trkpt lat="46.08592" lon="-1.09459">
        <ele>51.282357</ele>
        <time>2022-12-21T11:14:03.322Z</time>
      </trkpt>
      <trkpt lat="46.08581" lon="-1.0945">
        <ele>51.175883</ele>
        <time>2022-12-21T11:14:06.334Z</time>
      </trkpt>
      <trkpt lat="46.0857" lon="-1.09439">
        <ele>51.064473</ele>
        <time>2022-12-21T11:14:09.333Z</time>
      </trkpt>
      <trkpt lat="46.08559" lon="-1.09429">
        <ele>50.995166</ele>
        <time>2022-12-21T11:14:12.321Z</time>
      </trkpt>
      <trkpt lat="46.08549" lon="-1.09419">
        <ele>51.239325</ele>
        <time>2022-12-21T11:14:15.334Z</time>
      </trkpt>
      <trkpt lat="46.0854" lon="-1.09412">
        <ele>51.445128</ele>
        <time>2022-12-21T11:14:18.334Z</time>
      </trkpt>
      <trkpt lat="46.08531" lon="-1.09404">
        <ele>51.678087</ele>
        <time>2022-12-21T11:14:21.312Z</time>
      </trkpt>
      <trkpt lat="46.08521" lon="-1.09394">
        <ele>51.924127</ele>
        <time>2022-12-21T11:14:24.334Z</time>
      </trkpt>
      <trkpt lat="46.0851" lon="-1.09385">
        <ele>52.169381</ele>
        <time>2022-12-21T11:14:27.332Z</time>
      </trkpt>
      <trkpt lat="46.085" lon="-1.09377">
        <ele>52.414329</ele>
        <time>2022-12-21T11:14:30.335Z</time>
      </trkpt>
      <trkpt lat="46.0849" lon="-1.09366">
        <ele>52.677748</ele>
        <time>2022-12-21T11:14:33.335Z</time>
      </trkpt>
      <trkpt lat="46.08479" lon="-1.09358">
        <ele>52.931227</ele>
        <time>2022-12-21T11:14:36.334Z</time>
      </trkpt>
      <trkpt lat="46.08469" lon="-1.09349">
        <ele>53.159191</ele>
        <time>2022-12-21T11:14:39.311Z</time>
      </trkpt>
      <trkpt lat="46.08461" lon="-1.09341">
        <ele>53.374311</ele>
        <time>2022-12-21T11:14:42.337Z</time>
      </trkpt>
      <trkpt lat="46.08452" lon="-1.09333">
        <ele>53.585389</ele>
        <time>2022-12-21T11:14:45.339Z</time>
      </trkpt>
      <trkpt lat="46.08443" lon="-1.09327">
        <ele>53.78106</ele>
        <time>2022-12-21T11:14:48.335Z</time>
      </trkpt>
      <trkpt lat="46.08433" lon="-1.09322">
        <ele>54.006294</ele>
        <time>2022-12-21T11:14:53.317Z</time>
      </trkpt>
      <trkpt lat="46.08422" lon="-1.09319">
        <ele>54.224197</ele>
        <time>2022-12-21T11:14:58.310Z</time>
      </trkpt>
      <trkpt lat="46.08412" lon="-1.09319">
        <ele>54.435854</ele>
        <time>2022-12-21T11:15:02.334Z</time>
      </trkpt>
      <trkpt lat="46.08401" lon="-1.09321">
        <ele>54.671557</ele>
        <time>2022-12-21T11:15:06.321Z</time>
      </trkpt>
      <trkpt lat="46.08391" lon="-1.09326">
        <ele>54.902732</ele>
        <time>2022-12-21T11:15:11.317Z</time>
      </trkpt>
      <trkpt lat="46.08381" lon="-1.09326">
        <ele>55.145605</ele>
        <time>2022-12-21T11:15:17.311Z</time>
      </trkpt>
      <trkpt lat="46.08371" lon="-1.09332">
        <ele>55.380364</ele>
        <time>2022-12-21T11:15:21.322Z</time>
      </trkpt>
      <trkpt lat="46.08366" lon="-1.09344">
        <ele>55.596207</ele>
        <time>2022-12-21T11:15:24.311Z</time>
      </trkpt>
      <trkpt lat="46.08363" lon="-1.09356">
        <ele>55.804401</ele>
        <time>2022-12-21T11:15:27.312Z</time>
      </trkpt>
      <trkpt lat="46.08358" lon="-1.09368">
        <ele>56.030362</ele>
        <time>2022-12-21T11:15:30.332Z</time>
      </trkpt>
      <trkpt lat="46.08353" lon="-1.0938">
        <ele>56.242299</ele>
        <time>2022-12-21T11:15:33.336Z</time>
      </trkpt>
      <trkpt lat="46.08348" lon="-1.09392">
        <ele>56.467498</ele>
        <time>2022-12-21T11:15:36.327Z</time>
      </trkpt>
      <trkpt lat="46.08344" lon="-1.09405">
        <ele>56.686771</ele>
        <time>2022-12-21T11:15:39.330Z</time>
      </trkpt>
      <trkpt lat="46.0834" lon="-1.0942">
        <ele>56.944708</ele>
        <time>2022-12-21T11:15:43.329Z</time>
      </trkpt>
      <trkpt lat="46.08336" lon="-1.09431">
        <ele>57.152005</ele>
        <time>2022-12-21T11:15:46.318Z</time>
      </trkpt>
      <trkpt lat="46.08331" lon="-1.09445">
        <ele>57.398768</ele>
        <time>2022-12-21T11:15:51.318Z</time>
      </trkpt>
      <trkpt lat="46.08327" lon="-1.09459">
        <ele>57.6265</ele>
        <time>2022-12-21T11:15:55.316Z</time>
      </trkpt>
      <trkpt lat="46.08328" lon="-1.09473">
        <ele>57.863391</ele>
        <time>2022-12-21T11:15:59.316Z</time>
      </trkpt>
      <trkpt lat="46.08327" lon="-1.0949">
        <ele>58.127687</ele>
        <time>2022-12-21T11:16:03.334Z</time>
      </trkpt>
      <trkpt lat="46.08327" lon="-1.09507">
        <ele>58.402706</ele>
        <time>2022-12-21T11:16:07.333Z</time>
      </trkpt>
      <trkpt lat="46.08325" lon="-1.09521">
        <ele>58.616491</ele>
        <time>2022-12-21T11:16:10.314Z</time>
      </trkpt>
      <trkpt lat="46.08323" lon="-1.09533">
        <ele>58.77804</ele>
        <time>2022-12-21T11:16:13.328Z</time>
      </trkpt>
      <trkpt lat="46.0832" lon="-1.09546">
        <ele>58.757751</ele>
        <time>2022-12-21T11:16:16.330Z</time>
      </trkpt>
      <trkpt lat="46.08317" lon="-1.09558">
        <ele>58.737742</ele>
        <time>2022-12-21T11:16:19.309Z</time>
      </trkpt>
      <trkpt lat="46.08315" lon="-1.09575">
        <ele>58.711735</ele>
        <time>2022-12-21T11:16:23.313Z</time>
      </trkpt>
      <trkpt lat="46.08314" lon="-1.09589">
        <ele>58.689901</ele>
        <time>2022-12-21T11:16:26.330Z</time>
      </trkpt>
      <trkpt lat="46.08313" lon="-1.09603">
        <ele>58.668121</ele>
        <time>2022-12-21T11:16:29.320Z</time>
      </trkpt>
      <trkpt lat="46.0831" lon="-1.09617">
        <ele>58.646105</ele>
        <time>2022-12-21T11:16:32.329Z</time>
      </trkpt>
      <trkpt lat="46.08308" lon="-1.09631">
        <ele>58.623813</ele>
        <time>2022-12-21T11:16:35.309Z</time>
      </trkpt>
      <trkpt lat="46.08305" lon="-1.09644">
        <ele>58.602868</ele>
        <time>2022-12-21T11:16:38.310Z</time>
      </trkpt>
      <trkpt lat="46.083" lon="-1.09655">
        <ele>58.581145</ele>
        <time>2022-12-21T11:16:41.323Z</time>
      </trkpt>
      <trkpt lat="46.0829" lon="-1.09661">
        <ele>58.558767</ele>
        <time>2022-12-21T11:16:44.314Z</time>
      </trkpt>
      <trkpt lat="46.08279" lon="-1.09656">
        <ele>58.533285</ele>
        <time>2022-12-21T11:16:48.312Z</time>
      </trkpt>
      <trkpt lat="46.08268" lon="-1.0965">
        <ele>58.506378</ele>
        <time>2022-12-21T11:16:52.327Z</time>
      </trkpt>
      <trkpt lat="46.08259" lon="-1.09645">
        <ele>58.484918</ele>
        <time>2022-12-21T11:16:55.327Z</time>
      </trkpt>
      <trkpt lat="46.0825" lon="-1.09639">
        <ele>58.46248</ele>
        <time>2022-12-21T11:16:58.334Z</time>
      </trkpt>
      <trkpt lat="46.08241" lon="-1.09634">
        <ele>58.440019</ele>
        <time>2022-12-21T11:17:01.328Z</time>
      </trkpt>
      <trkpt lat="46.08231" lon="-1.09628">
        <ele>58.416372</ele>
        <time>2022-12-21T11:17:04.317Z</time>
      </trkpt>
      <trkpt lat="46.08221" lon="-1.09623">
        <ele>58.393415</ele>
        <time>2022-12-21T11:17:07.317Z</time>
      </trkpt>
      <trkpt lat="46.08212" lon="-1.09617">
        <ele>58.407694</ele>
        <time>2022-12-21T11:17:10.318Z</time>
      </trkpt>
      <trkpt lat="46.08203" lon="-1.09612">
        <ele>58.456233</ele>
        <time>2022-12-21T11:17:13.311Z</time>
      </trkpt>
      <trkpt lat="46.08193" lon="-1.09607">
        <ele>58.510645</ele>
        <time>2022-12-21T11:17:17.330Z</time>
      </trkpt>
      <trkpt lat="46.08184" lon="-1.09602">
        <ele>58.560655</ele>
        <time>2022-12-21T11:17:20.332Z</time>
      </trkpt>
      <trkpt lat="46.08173" lon="-1.09597">
        <ele>58.616406</ele>
        <time>2022-12-21T11:17:23.313Z</time>
      </trkpt>
      <trkpt lat="46.08163" lon="-1.09591">
        <ele>58.673093</ele>
        <time>2022-12-21T11:17:26.337Z</time>
      </trkpt>
      <trkpt lat="46.08153" lon="-1.09586">
        <ele>58.728106</ele>
        <time>2022-12-21T11:17:29.315Z</time>
      </trkpt>
      <trkpt lat="46.08142" lon="-1.09581">
        <ele>58.784196</ele>
        <time>2022-12-21T11:17:32.333Z</time>
      </trkpt>
      <trkpt lat="46.08132" lon="-1.09574">
        <ele>58.840555</ele>
        <time>2022-12-21T11:17:35.332Z</time>
      </trkpt>
      <trkpt lat="46.08122" lon="-1.09569">
        <ele>58.894141</ele>
        <time>2022-12-21T11:17:38.316Z</time>
      </trkpt>
      <trkpt lat="46.08113" lon="-1.09562">
        <ele>58.946351</ele>
        <time>2022-12-21T11:17:41.331Z</time>
      </trkpt>
      <trkpt lat="46.08104" lon="-1.09558">
        <ele>58.995905</ele>
        <time>2022-12-21T11:17:44.330Z</time>
      </trkpt>
      <trkpt lat="46.08094" lon="-1.09554">
        <ele>59.048644</ele>
        <time>2022-12-21T11:17:47.336Z</time>
      </trkpt>
      <trkpt lat="46.08084" lon="-1.09548">
        <ele>59.101282</ele>
        <time>2022-12-21T11:17:50.325Z</time>
      </trkpt>
      <trkpt lat="46.08074" lon="-1.09544">
        <ele>59.155053</ele>
        <time>2022-12-21T11:17:53.333Z</time>
      </trkpt>
      <trkpt lat="46.08064" lon="-1.09538">
        <ele>59.209372</ele>
        <time>2022-12-21T11:17:56.311Z</time>
      </trkpt>
      <trkpt lat="46.08054" lon="-1.09534">
        <ele>59.263077</ele>
        <time>2022-12-21T11:17:59.333Z</time>
      </trkpt>
      <trkpt lat="46.08045" lon="-1.09528">
        <ele>59.279857</ele>
        <time>2022-12-21T11:18:02.334Z</time>
      </trkpt>
      <trkpt lat="46.08036" lon="-1.09525">
        <ele>59.224152</ele>
        <time>2022-12-21T11:18:05.333Z</time>
      </trkpt>
      <trkpt lat="46.08027" lon="-1.09521">
        <ele>59.16729</ele>
        <time>2022-12-21T11:18:08.331Z</time>
      </trkpt>
      <trkpt lat="46.08017" lon="-1.09517">
        <ele>59.108026</ele>
        <time>2022-12-21T11:18:11.327Z</time>
      </trkpt>
      <trkpt lat="46.08007" lon="-1.09512">
        <ele>59.045422</ele>
        <time>2022-12-21T11:18:14.322Z</time>
      </trkpt>
      <trkpt lat="46.07998" lon="-1.09508">
        <ele>58.989307</ele>
        <time>2022-12-21T11:18:17.332Z</time>
      </trkpt>
      <trkpt lat="46.07988" lon="-1.09503">
        <ele>58.92178</ele>
        <time>2022-12-21T11:18:21.315Z</time>
      </trkpt>
      <trkpt lat="46.07979" lon="-1.09498">
        <ele>58.864129</ele>
        <time>2022-12-21T11:18:24.338Z</time>
      </trkpt>
      <trkpt lat="46.07969" lon="-1.09493">
        <ele>58.804091</ele>
        <time>2022-12-21T11:18:27.335Z</time>
      </trkpt>
      <trkpt lat="46.07959" lon="-1.09488">
        <ele>58.742511</ele>
        <time>2022-12-21T11:18:30.328Z</time>
      </trkpt>
      <trkpt lat="46.0795" lon="-1.09484">
        <ele>58.686911</ele>
        <time>2022-12-21T11:18:33.337Z</time>
      </trkpt>
      <trkpt lat="46.07939" lon="-1.09479">
        <ele>58.615158</ele>
        <time>2022-12-21T11:18:37.335Z</time>
      </trkpt>
      <trkpt lat="46.07928" lon="-1.09474">
        <ele>58.546368</ele>
        <time>2022-12-21T11:18:41.329Z</time>
      </trkpt>
      <trkpt lat="46.07917" lon="-1.0947">
        <ele>58.480229</ele>
        <time>2022-12-21T11:18:45.332Z</time>
      </trkpt>
      <trkpt lat="46.07906" lon="-1.09465">
        <ele>58.409732</ele>
        <time>2022-12-21T11:18:49.310Z</time>
      </trkpt>
      <trkpt lat="46.07897" lon="-1.09461">
        <ele>58.352487</ele>
        <time>2022-12-21T11:18:52.316Z</time>
      </trkpt>
      <trkpt lat="46.07886" lon="-1.09455">
        <ele>58.285275</ele>
        <time>2022-12-21T11:18:56.321Z</time>
      </trkpt>
      <trkpt lat="46.07877" lon="-1.09451">
        <ele>58.22803</ele>
        <time>2022-12-21T11:19:00.332Z</time>
      </trkpt>
      <trkpt lat="46.07867" lon="-1.09445">
        <ele>58.266316</ele>
        <time>2022-12-21T11:19:04.327Z</time>
      </trkpt>
      <trkpt lat="46.07857" lon="-1.0944">
        <ele>58.307529</ele>
        <time>2022-12-21T11:19:08.332Z</time>
      </trkpt>
      <trkpt lat="46.07846" lon="-1.09435">
        <ele>58.35272</ele>
        <time>2022-12-21T11:19:12.308Z</time>
      </trkpt>
      <trkpt lat="46.07835" lon="-1.0943">
        <ele>58.399187</ele>
        <time>2022-12-21T11:19:16.326Z</time>
      </trkpt>
      <trkpt lat="46.07825" lon="-1.09426">
        <ele>58.43856</ele>
        <time>2022-12-21T11:19:19.311Z</time>
      </trkpt>
      <trkpt lat="46.07815" lon="-1.09421">
        <ele>58.481392</ele>
        <time>2022-12-21T11:19:22.308Z</time>
      </trkpt>
      <trkpt lat="46.07806" lon="-1.09417">
        <ele>58.520765</ele>
        <time>2022-12-21T11:19:25.320Z</time>
      </trkpt>
      <trkpt lat="46.07796" lon="-1.09413">
        <ele>58.558411</ele>
        <time>2022-12-21T11:19:28.327Z</time>
      </trkpt>
      <trkpt lat="46.07787" lon="-1.09411">
        <ele>58.59615</ele>
        <time>2022-12-21T11:19:31.334Z</time>
      </trkpt>
      <trkpt lat="46.07777" lon="-1.09409">
        <ele>58.633876</ele>
        <time>2022-12-21T11:19:34.313Z</time>
      </trkpt>
      <trkpt lat="46.07767" lon="-1.09407">
        <ele>58.676433</ele>
        <time>2022-12-21T11:19:38.325Z</time>
      </trkpt>
      <trkpt lat="46.07757" lon="-1.09405">
        <ele>58.714516</ele>
        <time>2022-12-21T11:19:42.330Z</time>
      </trkpt>
      <trkpt lat="46.07747" lon="-1.09402">
        <ele>58.755253</ele>
        <time>2022-12-21T11:19:46.328Z</time>
      </trkpt>
      <trkpt lat="46.07737" lon="-1.09401">
        <ele>58.794477</ele>
        <time>2022-12-21T11:19:50.330Z</time>
      </trkpt>
      <trkpt lat="46.07727" lon="-1.09399">
        <ele>58.835239</ele>
        <time>2022-12-21T11:19:54.333Z</time>
      </trkpt>
      <trkpt lat="46.07715" lon="-1.09396">
        <ele>58.882566</ele>
        <time>2022-12-21T11:19:58.337Z</time>
      </trkpt>
      <trkpt lat="46.07706" lon="-1.09395">
        <ele>58.918963</ele>
        <time>2022-12-21T11:20:01.327Z</time>
      </trkpt>
      <trkpt lat="46.07696" lon="-1.09393">
        <ele>58.920656</ele>
        <time>2022-12-21T11:20:04.337Z</time>
      </trkpt>
      <trkpt lat="46.07687" lon="-1.0939">
        <ele>58.898634</ele>
        <time>2022-12-21T11:20:07.334Z</time>
      </trkpt>
      <trkpt lat="46.07677" lon="-1.09388">
        <ele>58.87318</ele>
        <time>2022-12-21T11:20:11.333Z</time>
      </trkpt>
      <trkpt lat="46.07665" lon="-1.09387">
        <ele>58.845821</ele>
        <time>2022-12-21T11:20:15.333Z</time>
      </trkpt>
      <trkpt lat="46.07656" lon="-1.09385">
        <ele>58.823764</ele>
        <time>2022-12-21T11:20:18.336Z</time>
      </trkpt>
      <trkpt lat="46.07646" lon="-1.09384">
        <ele>58.801318</ele>
        <time>2022-12-21T11:20:21.331Z</time>
      </trkpt>
      <trkpt lat="46.07637" lon="-1.09382">
        <ele>58.778193</ele>
        <time>2022-12-21T11:20:24.317Z</time>
      </trkpt>
      <trkpt lat="46.07626" lon="-1.09379">
        <ele>58.75374</ele>
        <time>2022-12-21T11:20:27.335Z</time>
      </trkpt>
      <trkpt lat="46.07616" lon="-1.09377">
        <ele>58.729865</ele>
        <time>2022-12-21T11:20:30.317Z</time>
      </trkpt>
      <trkpt lat="46.07607" lon="-1.09375">
        <ele>58.707277</ele>
        <time>2022-12-21T11:20:33.327Z</time>
      </trkpt>
      <trkpt lat="46.07597" lon="-1.09373">
        <ele>58.684331</ele>
        <time>2022-12-21T11:20:37.336Z</time>
      </trkpt>
      <trkpt lat="46.07588" lon="-1.09369">
        <ele>58.661155</ele>
        <time>2022-12-21T11:20:42.312Z</time>
      </trkpt>
      <trkpt lat="46.07577" lon="-1.09367">
        <ele>58.635569</ele>
        <time>2022-12-21T11:20:46.311Z</time>
      </trkpt>
      <trkpt lat="46.07567" lon="-1.09365">
        <ele>58.612048</ele>
        <time>2022-12-21T11:20:49.308Z</time>
      </trkpt>
      <trkpt lat="46.07557" lon="-1.09364">
        <ele>58.587182</ele>
        <time>2022-12-21T11:20:52.338Z</time>
      </trkpt>
      <trkpt lat="46.07546" lon="-1.09361">
        <ele>58.561886</ele>
        <time>2022-12-21T11:20:55.333Z</time>
      </trkpt>
      <trkpt lat="46.07536" lon="-1.09359">
        <ele>58.537898</ele>
        <time>2022-12-21T11:20:58.337Z</time>
      </trkpt>
      <trkpt lat="46.07525" lon="-1.09358">
        <ele>58.513014</ele>
        <time>2022-12-21T11:21:01.333Z</time>
      </trkpt>
      <trkpt lat="46.07515" lon="-1.09356">
        <ele>58.46099</ele>
        <time>2022-12-21T11:21:04.337Z</time>
      </trkpt>
      <trkpt lat="46.07505" lon="-1.09355">
        <ele>58.409081</ele>
        <time>2022-12-21T11:21:07.335Z</time>
      </trkpt>
      <trkpt lat="46.07495" lon="-1.09352">
        <ele>58.35159</ele>
        <time>2022-12-21T11:21:10.336Z</time>
      </trkpt>
      <trkpt lat="46.07484" lon="-1.09349">
        <ele>58.292904</ele>
        <time>2022-12-21T11:21:13.335Z</time>
      </trkpt>
      <trkpt lat="46.07474" lon="-1.09349">
        <ele>58.237323</ele>
        <time>2022-12-21T11:21:16.311Z</time>
      </trkpt>
      <trkpt lat="46.07463" lon="-1.09347">
        <ele>58.179473</ele>
        <time>2022-12-21T11:21:19.336Z</time>
      </trkpt>
      <trkpt lat="46.07452" lon="-1.09345">
        <ele>58.117036</ele>
        <time>2022-12-21T11:21:22.336Z</time>
      </trkpt>
      <trkpt lat="46.07441" lon="-1.09343">
        <ele>58.055946</ele>
        <time>2022-12-21T11:21:25.338Z</time>
      </trkpt>
      <trkpt lat="46.0743" lon="-1.09341">
        <ele>58.000238</ele>
        <time>2022-12-21T11:21:28.334Z</time>
      </trkpt>
      <trkpt lat="46.0742" lon="-1.0934">
        <ele>57.946769</ele>
        <time>2022-12-21T11:21:31.323Z</time>
      </trkpt>
      <trkpt lat="46.0741" lon="-1.09337">
        <ele>57.887389</ele>
        <time>2022-12-21T11:21:34.338Z</time>
      </trkpt>
      <trkpt lat="46.07398" lon="-1.09335">
        <ele>57.825289</ele>
        <time>2022-12-21T11:21:37.328Z</time>
      </trkpt>
      <trkpt lat="46.07387" lon="-1.09334">
        <ele>57.766902</ele>
        <time>2022-12-21T11:21:40.336Z</time>
      </trkpt>
      <trkpt lat="46.07376" lon="-1.09332">
        <ele>57.707881</ele>
        <time>2022-12-21T11:21:43.343Z</time>
      </trkpt>
      <trkpt lat="46.07365" lon="-1.09329">
        <ele>57.64422</ele>
        <time>2022-12-21T11:21:46.337Z</time>
      </trkpt>
      <trkpt lat="46.07354" lon="-1.09327">
        <ele>57.582706</ele>
        <time>2022-12-21T11:21:49.331Z</time>
      </trkpt>
      <trkpt lat="46.07342" lon="-1.09325">
        <ele>57.484831</ele>
        <time>2022-12-21T11:21:52.337Z</time>
      </trkpt>
      <trkpt lat="46.07332" lon="-1.09323">
        <ele>57.334421</ele>
        <time>2022-12-21T11:21:55.337Z</time>
      </trkpt>
      <trkpt lat="46.07322" lon="-1.09322">
        <ele>57.186395</ele>
        <time>2022-12-21T11:21:58.310Z</time>
      </trkpt>
      <trkpt lat="46.07311" lon="-1.0932">
        <ele>57.034679</ele>
        <time>2022-12-21T11:22:01.310Z</time>
      </trkpt>
      <trkpt lat="46.073" lon="-1.09318">
        <ele>56.868604</ele>
        <time>2022-12-21T11:22:04.329Z</time>
      </trkpt>
      <trkpt lat="46.07289" lon="-1.09316">
        <ele>56.708327</ele>
        <time>2022-12-21T11:22:07.334Z</time>
      </trkpt>
      <trkpt lat="46.0728" lon="-1.09315">
        <ele>56.571828</ele>
        <time>2022-12-21T11:22:10.334Z</time>
      </trkpt>
      <trkpt lat="46.0727" lon="-1.09314">
        <ele>56.431596</ele>
        <time>2022-12-21T11:22:14.320Z</time>
      </trkpt>
      <trkpt lat="46.0726" lon="-1.09313">
        <ele>56.285932</ele>
        <time>2022-12-21T11:22:18.309Z</time>
      </trkpt>
      <trkpt lat="46.07251" lon="-1.09311">
        <ele>56.144858</ele>
        <time>2022-12-21T11:22:21.337Z</time>
      </trkpt>
      <trkpt lat="46.07241" lon="-1.0931">
        <ele>55.995286</ele>
        <time>2022-12-21T11:22:24.319Z</time>
      </trkpt>
      <trkpt lat="46.0723" lon="-1.09308">
        <ele>55.837161</ele>
        <time>2022-12-21T11:22:27.329Z</time>
      </trkpt>
      <trkpt lat="46.07219" lon="-1.09307">
        <ele>55.680697</ele>
        <time>2022-12-21T11:22:30.332Z</time>
      </trkpt>
      <trkpt lat="46.07208" lon="-1.09306">
        <ele>55.52119</ele>
        <time>2022-12-21T11:22:33.331Z</time>
      </trkpt>
      <trkpt lat="46.07198" lon="-1.09306">
        <ele>55.369287</ele>
        <time>2022-12-21T11:22:36.332Z</time>
      </trkpt>
      <trkpt lat="46.07187" lon="-1.09305">
        <ele>55.211513</ele>
        <time>2022-12-21T11:22:39.325Z</time>
      </trkpt>
      <trkpt lat="46.07176" lon="-1.09304">
        <ele>55.048765</ele>
        <time>2022-12-21T11:22:42.320Z</time>
      </trkpt>
      <trkpt lat="46.07165" lon="-1.09303">
        <ele>54.915307</ele>
        <time>2022-12-21T11:22:45.335Z</time>
      </trkpt>
      <trkpt lat="46.07154" lon="-1.09302">
        <ele>54.917551</ele>
        <time>2022-12-21T11:22:48.335Z</time>
      </trkpt>
      <trkpt lat="46.07142" lon="-1.09301">
        <ele>54.919895</ele>
        <time>2022-12-21T11:22:51.333Z</time>
      </trkpt>
      <trkpt lat="46.07132" lon="-1.093">
        <ele>54.922085</ele>
        <time>2022-12-21T11:22:54.307Z</time>
      </trkpt>
      <trkpt lat="46.0712" lon="-1.09299">
        <ele>54.92441</ele>
        <time>2022-12-21T11:22:58.335Z</time>
      </trkpt>
      <trkpt lat="46.07111" lon="-1.09298">
        <ele>54.926286</ele>
        <time>2022-12-21T11:23:01.335Z</time>
      </trkpt>
      <trkpt lat="46.07101" lon="-1.09297">
        <ele>54.928351</ele>
        <time>2022-12-21T11:23:04.316Z</time>
      </trkpt>
      <trkpt lat="46.0709" lon="-1.09296">
        <ele>54.930516</ele>
        <time>2022-12-21T11:23:07.337Z</time>
      </trkpt>
      <trkpt lat="46.07079" lon="-1.09296">
        <ele>54.932819</ele>
        <time>2022-12-21T11:23:10.338Z</time>
      </trkpt>
      <trkpt lat="46.07068" lon="-1.09294">
        <ele>54.93505</ele>
        <time>2022-12-21T11:23:13.335Z</time>
      </trkpt>
      <trkpt lat="46.07057" lon="-1.09294">
        <ele>54.937333</ele>
        <time>2022-12-21T11:23:16.310Z</time>
      </trkpt>
      <trkpt lat="46.07046" lon="-1.09292">
        <ele>54.939648</ele>
        <time>2022-12-21T11:23:19.334Z</time>
      </trkpt>
      <trkpt lat="46.07035" lon="-1.0929">
        <ele>54.941877</ele>
        <time>2022-12-21T11:23:22.334Z</time>
      </trkpt>
      <trkpt lat="46.07023" lon="-1.0929">
        <ele>54.944221</ele>
        <time>2022-12-21T11:23:25.336Z</time>
      </trkpt>
      <trkpt lat="46.07012" lon="-1.09289">
        <ele>54.946525</ele>
        <time>2022-12-21T11:23:28.333Z</time>
      </trkpt>
      <trkpt lat="46.07001" lon="-1.09288">
        <ele>54.948669</ele>
        <time>2022-12-21T11:23:31.321Z</time>
      </trkpt>
      <trkpt lat="46.06992" lon="-1.09288">
        <ele>54.950527</ele>
        <time>2022-12-21T11:23:34.336Z</time>
      </trkpt>
      <trkpt lat="46.06983" lon="-1.09289">
        <ele>54.941396</ele>
        <time>2022-12-21T11:23:38.321Z</time>
      </trkpt>
      <trkpt lat="46.06973" lon="-1.09289">
        <ele>54.921594</ele>
        <time>2022-12-21T11:23:42.317Z</time>
      </trkpt>
      <trkpt lat="46.06962" lon="-1.09288">
        <ele>54.898091</ele>
        <time>2022-12-21T11:23:46.336Z</time>
      </trkpt>
      <trkpt lat="46.06951" lon="-1.09286">
        <ele>54.873658</ele>
        <time>2022-12-21T11:23:50.333Z</time>
      </trkpt>
      <trkpt lat="46.06941" lon="-1.09286">
        <ele>54.852121</ele>
        <time>2022-12-21T11:23:53.335Z</time>
      </trkpt>
      <trkpt lat="46.0693" lon="-1.09286">
        <ele>54.829073</ele>
        <time>2022-12-21T11:23:56.325Z</time>
      </trkpt>
      <trkpt lat="46.0692" lon="-1.09286">
        <ele>54.805831</ele>
        <time>2022-12-21T11:23:59.329Z</time>
      </trkpt>
      <trkpt lat="46.06908" lon="-1.09287">
        <ele>54.781726</ele>
        <time>2022-12-21T11:24:02.339Z</time>
      </trkpt>
      <trkpt lat="46.06897" lon="-1.09287">
        <ele>54.756979</ele>
        <time>2022-12-21T11:24:05.314Z</time>
      </trkpt>
      <trkpt lat="46.06886" lon="-1.09287">
        <ele>54.732659</ele>
        <time>2022-12-21T11:24:08.330Z</time>
      </trkpt>
      <trkpt lat="46.06874" lon="-1.09287">
        <ele>54.708343</ele>
        <time>2022-12-21T11:24:11.334Z</time>
      </trkpt>
      <trkpt lat="46.06864" lon="-1.09287">
        <ele>54.685961</ele>
        <time>2022-12-21T11:24:14.326Z</time>
      </trkpt>
      <trkpt lat="46.06853" lon="-1.09289">
        <ele>54.662828</ele>
        <time>2022-12-21T11:24:17.327Z</time>
      </trkpt>
      <trkpt lat="46.06843" lon="-1.09286">
        <ele>54.640187</ele>
        <time>2022-12-21T11:24:20.327Z</time>
      </trkpt>
      <trkpt lat="46.06832" lon="-1.09287">
        <ele>54.615867</ele>
        <time>2022-12-21T11:24:23.320Z</time>
      </trkpt>
      <trkpt lat="46.06821" lon="-1.09287">
        <ele>54.592411</ele>
        <time>2022-12-21T11:24:26.311Z</time>
      </trkpt>
      <trkpt lat="46.0681" lon="-1.09287">
        <ele>54.56874</ele>
        <time>2022-12-21T11:24:29.318Z</time>
      </trkpt>
      <trkpt lat="46.06799" lon="-1.09286">
        <ele>54.523676</ele>
        <time>2022-12-21T11:24:32.320Z</time>
      </trkpt>
      <trkpt lat="46.06789" lon="-1.09287">
        <ele>54.480687</ele>
        <time>2022-12-21T11:24:35.321Z</time>
      </trkpt>
      <trkpt lat="46.06778" lon="-1.09287">
        <ele>54.429987</ele>
        <time>2022-12-21T11:24:39.335Z</time>
      </trkpt>
      <trkpt lat="46.06766" lon="-1.09288">
        <ele>54.37606</ele>
        <time>2022-12-21T11:24:43.340Z</time>
      </trkpt>
      <trkpt lat="46.06756" lon="-1.09288">
        <ele>54.32947</ele>
        <time>2022-12-21T11:24:46.319Z</time>
      </trkpt>
      <trkpt lat="46.06746" lon="-1.09287">
        <ele>54.281041</ele>
        <time>2022-12-21T11:24:49.334Z</time>
      </trkpt>
      <trkpt lat="46.06735" lon="-1.09287">
        <ele>54.233085</ele>
        <time>2022-12-21T11:24:52.312Z</time>
      </trkpt>
      <trkpt lat="46.06726" lon="-1.09288">
        <ele>54.191446</ele>
        <time>2022-12-21T11:24:55.338Z</time>
      </trkpt>
      <trkpt lat="46.06715" lon="-1.09289">
        <ele>54.139364</ele>
        <time>2022-12-21T11:24:59.310Z</time>
      </trkpt>
      <trkpt lat="46.06703" lon="-1.09289">
        <ele>54.084525</ele>
        <time>2022-12-21T11:25:03.335Z</time>
      </trkpt>
      <trkpt lat="46.06693" lon="-1.09288">
        <ele>54.04011</ele>
        <time>2022-12-21T11:25:06.334Z</time>
      </trkpt>
      <trkpt lat="46.06683" lon="-1.09288">
        <ele>53.993058</ele>
        <time>2022-12-21T11:25:09.335Z</time>
      </trkpt>
      <trkpt lat="46.06672" lon="-1.09289">
        <ele>53.945999</ele>
        <time>2022-12-21T11:25:12.330Z</time>
      </trkpt>
      <trkpt lat="46.06662" lon="-1.09289">
        <ele>53.89757</ele>
        <time>2022-12-21T11:25:15.336Z</time>
      </trkpt>
      <trkpt lat="46.06651" lon="-1.09288">
        <ele>53.847267</ele>
        <time>2022-12-21T11:25:18.319Z</time>
      </trkpt>
      <trkpt lat="46.0664" lon="-1.09289">
        <ele>53.797448</ele>
        <time>2022-12-21T11:25:21.337Z</time>
      </trkpt>
      <trkpt lat="46.06629" lon="-1.09289">
        <ele>53.747209</ele>
        <time>2022-12-21T11:25:24.317Z</time>
      </trkpt>
      <trkpt lat="46.0662" lon="-1.09289">
        <ele>53.760558</ele>
        <time>2022-12-21T11:25:27.333Z</time>
      </trkpt>
      <trkpt lat="46.06608" lon="-1.0929">
        <ele>53.785473</ele>
        <time>2022-12-21T11:25:31.333Z</time>
      </trkpt>
      <trkpt lat="46.06599" lon="-1.0929">
        <ele>53.804682</ele>
        <time>2022-12-21T11:25:34.333Z</time>
      </trkpt>
      <trkpt lat="46.06588" lon="-1.09291">
        <ele>53.827733</ele>
        <time>2022-12-21T11:25:38.337Z</time>
      </trkpt>
      <trkpt lat="46.06576" lon="-1.0929">
        <ele>53.851822</ele>
        <time>2022-12-21T11:25:42.329Z</time>
      </trkpt>
      <trkpt lat="46.06565" lon="-1.0929">
        <ele>53.87504</ele>
        <time>2022-12-21T11:25:46.309Z</time>
      </trkpt>
      <trkpt lat="46.06554" lon="-1.0929">
        <ele>53.898695</ele>
        <time>2022-12-21T11:25:50.316Z</time>
      </trkpt>
      <trkpt lat="46.06543" lon="-1.0929">
        <ele>53.921928</ele>
        <time>2022-12-21T11:25:54.330Z</time>
      </trkpt>
      <trkpt lat="46.06533" lon="-1.09291">
        <ele>53.942864</ele>
        <time>2022-12-21T11:25:58.327Z</time>
      </trkpt>
      <trkpt lat="46.06523" lon="-1.09292">
        <ele>53.965504</ele>
        <time>2022-12-21T11:26:02.322Z</time>
      </trkpt>
      <trkpt lat="46.06511" lon="-1.09294">
        <ele>53.990716</ele>
        <time>2022-12-21T11:26:06.335Z</time>
      </trkpt>
      <trkpt lat="46.06502" lon="-1.09294">
        <ele>54.009931</ele>
        <time>2022-12-21T11:26:09.330Z</time>
      </trkpt>
      <trkpt lat="46.0649" lon="-1.09294">
        <ele>54.034206</ele>
        <time>2022-12-21T11:26:13.342Z</time>
      </trkpt>
      <trkpt lat="46.06481" lon="-1.09293">
        <ele>54.053417</ele>
        <time>2022-12-21T11:26:16.335Z</time>
      </trkpt>
      <trkpt lat="46.06472" lon="-1.09294">
        <ele>54.072469</ele>
        <time>2022-12-21T11:26:19.326Z</time>
      </trkpt>
      <trkpt lat="46.06463" lon="-1.09295">
        <ele>54.092553</ele>
        <time>2022-12-21T11:26:22.321Z</time>
      </trkpt>
      <trkpt lat="46.06453" lon="-1.09296">
        <ele>54.113245</ele>
        <time>2022-12-21T11:26:25.321Z</time>
      </trkpt>
      <trkpt lat="46.06443" lon="-1.09296">
        <ele>54.109394</ele>
        <time>2022-12-21T11:26:28.312Z</time>
      </trkpt>
      <trkpt lat="46.06433" lon="-1.09297">
        <ele>54.08543</ele>
        <time>2022-12-21T11:26:31.327Z</time>
      </trkpt>
      <trkpt lat="46.06424" lon="-1.09298">
        <ele>54.062491</ele>
        <time>2022-12-21T11:26:34.312Z</time>
      </trkpt>
      <trkpt lat="46.06414" lon="-1.09297">
        <ele>54.039289</ele>
        <time>2022-12-21T11:26:37.335Z</time>
      </trkpt>
      <trkpt lat="46.06405" lon="-1.09297">
        <ele>54.017091</ele>
        <time>2022-12-21T11:26:40.315Z</time>
      </trkpt>
      <trkpt lat="46.06394" lon="-1.09297">
        <ele>53.990234</ele>
        <time>2022-12-21T11:26:44.319Z</time>
      </trkpt>
      <trkpt lat="46.06383" lon="-1.09297">
        <ele>53.964369</ele>
        <time>2022-12-21T11:26:48.334Z</time>
      </trkpt>
      <trkpt lat="46.06374" lon="-1.09297">
        <ele>53.941679</ele>
        <time>2022-12-21T11:26:51.333Z</time>
      </trkpt>
      <trkpt lat="46.06364" lon="-1.09296">
        <ele>53.917282</ele>
        <time>2022-12-21T11:26:54.331Z</time>
      </trkpt>
      <trkpt lat="46.06353" lon="-1.09295">
        <ele>53.889899</ele>
        <time>2022-12-21T11:26:58.331Z</time>
      </trkpt>
      <trkpt lat="46.06341" lon="-1.09296">
        <ele>53.861807</ele>
        <time>2022-12-21T11:27:02.327Z</time>
      </trkpt>
      <trkpt lat="46.0633" lon="-1.09298">
        <ele>53.833427</ele>
        <time>2022-12-21T11:27:06.327Z</time>
      </trkpt>
      <trkpt lat="46.06321" lon="-1.09299">
        <ele>53.810666</ele>
        <time>2022-12-21T11:27:09.335Z</time>
      </trkpt>
      <trkpt lat="46.06311" lon="-1.09297">
        <ele>53.78784</ele>
        <time>2022-12-21T11:27:12.332Z</time>
      </trkpt>
      <trkpt lat="46.06302" lon="-1.09296">
        <ele>53.764385</ele>
        <time>2022-12-21T11:27:15.318Z</time>
      </trkpt>
      <trkpt lat="46.06292" lon="-1.09298">
        <ele>53.740606</ele>
        <time>2022-12-21T11:27:18.332Z</time>
      </trkpt>
      <trkpt lat="46.06283" lon="-1.09298">
        <ele>53.718165</ele>
        <time>2022-12-21T11:27:21.332Z</time>
      </trkpt>
      <trkpt lat="46.06272" lon="-1.09298">
        <ele>53.691821</ele>
        <time>2022-12-21T11:27:25.326Z</time>
      </trkpt>
      <trkpt lat="46.06262" lon="-1.09298">
        <ele>53.579477</ele>
        <time>2022-12-21T11:27:29.314Z</time>
      </trkpt>
      <trkpt lat="46.06252" lon="-1.09298">
        <ele>53.441016</ele>
        <time>2022-12-21T11:27:33.308Z</time>
      </trkpt>
      <trkpt lat="46.06241" lon="-1.09298">
        <ele>53.282168</ele>
        <time>2022-12-21T11:27:38.329Z</time>
      </trkpt>
      <trkpt lat="46.06232" lon="-1.09299">
        <ele>53.142076</ele>
        <time>2022-12-21T11:27:42.330Z</time>
      </trkpt>
      <trkpt lat="46.06222" lon="-1.09296">
        <ele>53.00443</ele>
        <time>2022-12-21T11:27:47.316Z</time>
      </trkpt>
      <trkpt lat="46.06216" lon="-1.09284">
        <ele>52.854912</ele>
        <time>2022-12-21T11:27:53.318Z</time>
      </trkpt>
      <trkpt lat="46.0621" lon="-1.09274">
        <ele>52.722072</ele>
        <time>2022-12-21T11:27:57.313Z</time>
      </trkpt>
      <trkpt lat="46.06203" lon="-1.09263">
        <ele>52.565258</ele>
        <time>2022-12-21T11:28:02.332Z</time>
      </trkpt>
      <trkpt lat="46.06194" lon="-1.09256">
        <ele>52.422873</ele>
        <time>2022-12-21T11:28:06.332Z</time>
      </trkpt>
      <trkpt lat="46.06188" lon="-1.09246">
        <ele>52.287825</ele>
        <time>2022-12-21T11:28:09.309Z</time>
      </trkpt>
      <trkpt lat="46.06181" lon="-1.09237">
        <ele>52.149123</ele>
        <time>2022-12-21T11:28:12.333Z</time>
      </trkpt>
      <trkpt lat="46.06174" lon="-1.09228">
        <ele>52.013351</ele>
        <time>2022-12-21T11:28:15.335Z</time>
      </trkpt>
      <trkpt lat="46.06167" lon="-1.09219">
        <ele>51.878529</ele>
        <time>2022-12-21T11:28:18.333Z</time>
      </trkpt>
      <trkpt lat="46.06159" lon="-1.09206">
        <ele>51.706373</ele>
        <time>2022-12-21T11:28:22.310Z</time>
      </trkpt>
      <trkpt lat="46.06151" lon="-1.09198">
        <ele>51.568672</ele>
        <time>2022-12-21T11:28:25.316Z</time>
      </trkpt>
      <trkpt lat="46.06144" lon="-1.09189">
        <ele>51.425186</ele>
        <time>2022-12-21T11:28:28.327Z</time>
      </trkpt>
      <trkpt lat="46.06137" lon="-1.09179">
        <ele>51.282303</ele>
        <time>2022-12-21T11:28:31.334Z</time>
      </trkpt>
      <trkpt lat="46.0613" lon="-1.09166">
        <ele>51.121142</ele>
        <time>2022-12-21T11:28:35.326Z</time>
      </trkpt>
      <trkpt lat="46.06123" lon="-1.09156">
        <ele>51.100731</ele>
        <time>2022-12-21T11:28:39.330Z</time>
      </trkpt>
      <trkpt lat="46.06114" lon="-1.09145">
        <ele>51.169766</ele>
        <time>2022-12-21T11:28:43.336Z</time>
      </trkpt>
      <trkpt lat="46.06107" lon="-1.09136">
        <ele>51.22834</ele>
        <time>2022-12-21T11:28:46.319Z</time>
      </trkpt>
      <trkpt lat="46.06099" lon="-1.09125">
        <ele>51.289408</ele>
        <time>2022-12-21T11:28:49.337Z</time>
      </trkpt>
      <trkpt lat="46.06092" lon="-1.09117">
        <ele>51.343038</ele>
        <time>2022-12-21T11:28:52.336Z</time>
      </trkpt>
      <trkpt lat="46.06084" lon="-1.09107">
        <ele>51.407096</ele>
        <time>2022-12-21T11:28:56.335Z</time>
      </trkpt>
      <trkpt lat="46.06074" lon="-1.09097">
        <ele>51.478281</ele>
        <time>2022-12-21T11:29:00.336Z</time>
      </trkpt>
      <trkpt lat="46.06066" lon="-1.09089">
        <ele>51.537543</ele>
        <time>2022-12-21T11:29:03.333Z</time>
      </trkpt>
      <trkpt lat="46.06057" lon="-1.09082">
        <ele>51.5961</ele>
        <time>2022-12-21T11:29:06.336Z</time>
      </trkpt>
      <trkpt lat="46.06048" lon="-1.09076">
        <ele>51.655569</ele>
        <time>2022-12-21T11:29:09.336Z</time>
      </trkpt>
      <trkpt lat="46.0604" lon="-1.09069">
        <ele>51.713924</ele>
        <time>2022-12-21T11:29:12.334Z</time>
      </trkpt>
      <trkpt lat="46.06031" lon="-1.09062">
        <ele>51.772077</ele>
        <time>2022-12-21T11:29:15.332Z</time>
      </trkpt>
      <trkpt lat="46.06023" lon="-1.09056">
        <ele>51.825881</ele>
        <time>2022-12-21T11:29:18.321Z</time>
      </trkpt>
      <trkpt lat="46.06014" lon="-1.0905">
        <ele>51.880214</ele>
        <time>2022-12-21T11:29:22.313Z</time>
      </trkpt>
      <trkpt lat="46.06005" lon="-1.09046">
        <ele>51.937231</ele>
        <time>2022-12-21T11:29:26.330Z</time>
      </trkpt>
      <trkpt lat="46.05996" lon="-1.09041">
        <ele>51.993668</ele>
        <time>2022-12-21T11:29:30.330Z</time>
      </trkpt>
      <trkpt lat="46.05988" lon="-1.09037">
        <ele>52.047827</ele>
        <time>2022-12-21T11:29:34.337Z</time>
      </trkpt>
      <trkpt lat="46.05977" lon="-1.09033">
        <ele>52.111423</ele>
        <time>2022-12-21T11:29:39.310Z</time>
      </trkpt>
      <trkpt lat="46.05968" lon="-1.0903">
        <ele>52.320519</ele>
        <time>2022-12-21T11:29:43.333Z</time>
      </trkpt>
      <trkpt lat="46.05977" lon="-1.09029">
        <ele>52.579746</ele>
        <time>2022-12-21T11:30:13.319Z</time>
      </trkpt>
      <trkpt lat="46.05968" lon="-1.09022">
        <ele>52.867205</ele>
        <time>2022-12-21T11:30:26.319Z</time>
      </trkpt>
      <trkpt lat="46.05959" lon="-1.09013">
        <ele>53.166199</ele>
        <time>2022-12-21T11:30:31.333Z</time>
      </trkpt>
      <trkpt lat="46.0595" lon="-1.09005">
        <ele>53.458696</ele>
        <time>2022-12-21T11:30:36.332Z</time>
      </trkpt>
      <trkpt lat="46.0594" lon="-1.08998">
        <ele>53.769587</ele>
        <time>2022-12-21T11:30:42.313Z</time>
      </trkpt>
      <trkpt lat="46.05933" lon="-1.0899">
        <ele>54.026816</ele>
        <time>2022-12-21T11:30:46.311Z</time>
      </trkpt>
      <trkpt lat="46.05924" lon="-1.08985">
        <ele>54.288026</ele>
        <time>2022-12-21T11:30:51.334Z</time>
      </trkpt>
      <trkpt lat="46.05934" lon="-1.08992">
        <ele>54.593952</ele>
        <time>2022-12-21T11:31:20.313Z</time>
      </trkpt>
      <trkpt lat="46.05942" lon="-1.08999">
        <ele>54.85466</ele>
        <time>2022-12-21T11:31:24.317Z</time>
      </trkpt>
      <trkpt lat="46.05953" lon="-1.09001">
        <ele>55.151976</ele>
        <time>2022-12-21T11:31:30.313Z</time>
      </trkpt>
      <trkpt lat="46.05962" lon="-1.09005">
        <ele>55.431563</ele>
        <time>2022-12-21T11:31:35.332Z</time>
      </trkpt>
      <trkpt lat="46.05972" lon="-1.0901">
        <ele>55.710906</ele>
        <time>2022-12-21T11:31:41.318Z</time>
      </trkpt>
      <trkpt lat="46.05966" lon="-1.09">
        <ele>55.968718</ele>
        <time>2022-12-21T11:32:14.311Z</time>
      </trkpt>
      <trkpt lat="46.05961" lon="-1.08988">
        <ele>56.230797</ele>
        <time>2022-12-21T11:32:31.318Z</time>
      </trkpt>
      <trkpt lat="46.05969" lon="-1.08982">
        <ele>56.501584</ele>
        <time>2022-12-21T11:32:49.317Z</time>
      </trkpt>
      <trkpt lat="46.05977" lon="-1.08988">
        <ele>56.752689</ele>
        <time>2022-12-21T11:32:57.312Z</time>
      </trkpt>
      <trkpt lat="46.05986" lon="-1.08993">
        <ele>57.019029</ele>
        <time>2022-12-21T11:33:08.306Z</time>
      </trkpt>
      <trkpt lat="46.0598" lon="-1.08982">
        <ele>57.287855</ele>
        <time>2022-12-21T11:33:30.336Z</time>
      </trkpt>
      <trkpt lat="46.05976" lon="-1.08971">
        <ele>57.548352</ele>
        <time>2022-12-21T11:33:42.311Z</time>
      </trkpt>
      <trkpt lat="46.05966" lon="-1.08965">
        <ele>57.834794</ele>
        <time>2022-12-21T11:33:50.310Z</time>
      </trkpt>
      <trkpt lat="46.05957" lon="-1.08961">
        <ele>58.124957</ele>
        <time>2022-12-21T11:33:54.311Z</time>
      </trkpt>
      <trkpt lat="46.05946" lon="-1.08956">
        <ele>58.444239</ele>
        <time>2022-12-21T11:33:58.334Z</time>
      </trkpt>
      <trkpt lat="46.05936" lon="-1.08948">
        <ele>58.767281</ele>
        <time>2022-12-21T11:34:02.311Z</time>
      </trkpt>
      <trkpt lat="46.05929" lon="-1.08936">
        <ele>59.080428</ele>
        <time>2022-12-21T11:34:06.316Z</time>
      </trkpt>
      <trkpt lat="46.05923" lon="-1.08921">
        <ele>59.424294</ele>
        <time>2022-12-21T11:34:10.313Z</time>
      </trkpt>
      <trkpt lat="46.05919" lon="-1.08909">
        <ele>59.695344</ele>
        <time>2022-12-21T11:34:13.339Z</time>
      </trkpt>
      <trkpt lat="46.05914" lon="-1.08896">
        <ele>59.980776</ele>
        <time>2022-12-21T11:34:16.333Z</time>
      </trkpt>
      <trkpt lat="46.05909" lon="-1.08883">
        <ele>60.278337</ele>
        <time>2022-12-21T11:34:19.331Z</time>
      </trkpt>
      <trkpt lat="46.05905" lon="-1.0887">
        <ele>60.560134</ele>
        <time>2022-12-21T11:34:22.329Z</time>
      </trkpt>
      <trkpt lat="46.05901" lon="-1.08859">
        <ele>60.821165</ele>
        <time>2022-12-21T11:34:25.316Z</time>
      </trkpt>
      <trkpt lat="46.05897" lon="-1.08847">
        <ele>61.089716</ele>
        <time>2022-12-21T11:34:28.337Z</time>
      </trkpt>
      <trkpt lat="46.05892" lon="-1.08835">
        <ele>61.352362</ele>
        <time>2022-12-21T11:34:31.337Z</time>
      </trkpt>
      <trkpt lat="46.05887" lon="-1.08821">
        <ele>61.675702</ele>
        <time>2022-12-21T11:34:35.314Z</time>
      </trkpt>
      <trkpt lat="46.05882" lon="-1.08807">
        <ele>61.987879</ele>
        <time>2022-12-21T11:34:39.333Z</time>
      </trkpt>
      <trkpt lat="46.05877" lon="-1.08793">
        <ele>62.283926</ele>
        <time>2022-12-21T11:34:43.310Z</time>
      </trkpt>
      <trkpt lat="46.05872" lon="-1.08779">
        <ele>62.215383</ele>
        <time>2022-12-21T11:34:47.337Z</time>
      </trkpt>
      <trkpt lat="46.05867" lon="-1.08764">
        <ele>62.146202</ele>
        <time>2022-12-21T11:34:51.333Z</time>
      </trkpt>
      <trkpt lat="46.05861" lon="-1.0875">
        <ele>62.074545</ele>
        <time>2022-12-21T11:34:55.337Z</time>
      </trkpt>
      <trkpt lat="46.05857" lon="-1.08734">
        <ele>62.004348</ele>
        <time>2022-12-21T11:34:59.318Z</time>
      </trkpt>
      <trkpt lat="46.05854" lon="-1.08721">
        <ele>61.943069</ele>
        <time>2022-12-21T11:35:03.335Z</time>
      </trkpt>
      <trkpt lat="46.05852" lon="-1.08707">
        <ele>61.880212</ele>
        <time>2022-12-21T11:35:07.319Z</time>
      </trkpt>
      <trkpt lat="46.0585" lon="-1.08692">
        <ele>61.818277</ele>
        <time>2022-12-21T11:35:11.334Z</time>
      </trkpt>
      <trkpt lat="46.05846" lon="-1.08679">
        <ele>61.75597</ele>
        <time>2022-12-21T11:35:15.334Z</time>
      </trkpt>
      <trkpt lat="46.05835" lon="-1.08674">
        <ele>61.689167</ele>
        <time>2022-12-21T11:35:19.323Z</time>
      </trkpt>
      <trkpt lat="46.05826" lon="-1.08677">
        <ele>61.629034</ele>
        <time>2022-12-21T11:35:22.316Z</time>
      </trkpt>
      <trkpt lat="46.05816" lon="-1.08682">
        <ele>61.561641</ele>
        <time>2022-12-21T11:35:25.333Z</time>
      </trkpt>
      <trkpt lat="46.05804" lon="-1.08686">
        <ele>61.490084</ele>
        <time>2022-12-21T11:35:28.336Z</time>
      </trkpt>
      <trkpt lat="46.05792" lon="-1.08689">
        <ele>61.411585</ele>
        <time>2022-12-21T11:35:31.338Z</time>
      </trkpt>
      <trkpt lat="46.05779" lon="-1.08692">
        <ele>61.329208</ele>
        <time>2022-12-21T11:35:34.321Z</time>
      </trkpt>
      <trkpt lat="46.0577" lon="-1.08695">
        <ele>61.271679</ele>
        <time>2022-12-21T11:35:36.332Z</time>
      </trkpt>
      <trkpt lat="46.0576" lon="-1.08697">
        <ele>61.213406</ele>
        <time>2022-12-21T11:35:38.316Z</time>
      </trkpt>
      <trkpt lat="46.05751" lon="-1.08698">
        <ele>61.12568</ele>
        <time>2022-12-21T11:35:40.316Z</time>
      </trkpt>
      <trkpt lat="46.05737" lon="-1.08701">
        <ele>60.922659</ele>
        <time>2022-12-21T11:35:43.338Z</time>
      </trkpt>
      <trkpt lat="46.05728" lon="-1.08702">
        <ele>60.782761</ele>
        <time>2022-12-21T11:35:45.314Z</time>
      </trkpt>
      <trkpt lat="46.05714" lon="-1.08706">
        <ele>60.579577</ele>
        <time>2022-12-21T11:35:48.330Z</time>
      </trkpt>
      <trkpt lat="46.05705" lon="-1.08707">
        <ele>60.440111</ele>
        <time>2022-12-21T11:35:50.332Z</time>
      </trkpt>
      <trkpt lat="46.05695" lon="-1.08709">
        <ele>60.292261</ele>
        <time>2022-12-21T11:35:52.331Z</time>
      </trkpt>
      <trkpt lat="46.05686" lon="-1.08711">
        <ele>60.151183</ele>
        <time>2022-12-21T11:35:54.338Z</time>
      </trkpt>
      <trkpt lat="46.05676" lon="-1.08713">
        <ele>60.008006</ele>
        <time>2022-12-21T11:35:56.335Z</time>
      </trkpt>
      <trkpt lat="46.05667" lon="-1.08715">
        <ele>59.862895</ele>
        <time>2022-12-21T11:35:58.312Z</time>
      </trkpt>
      <trkpt lat="46.05656" lon="-1.08716">
        <ele>59.710398</ele>
        <time>2022-12-21T11:36:00.320Z</time>
      </trkpt>
      <trkpt lat="46.05646" lon="-1.08718">
        <ele>59.559487</ele>
        <time>2022-12-21T11:36:02.307Z</time>
      </trkpt>
      <trkpt lat="46.05633" lon="-1.0872">
        <ele>59.357188</ele>
        <time>2022-12-21T11:36:05.333Z</time>
      </trkpt>
      <trkpt lat="46.0562" lon="-1.08722">
        <ele>59.170144</ele>
        <time>2022-12-21T11:36:08.333Z</time>
      </trkpt>
      <trkpt lat="46.05609" lon="-1.08725">
        <ele>58.995661</ele>
        <time>2022-12-21T11:36:11.312Z</time>
      </trkpt>
      <trkpt lat="46.05597" lon="-1.08725">
        <ele>58.826111</ele>
        <time>2022-12-21T11:36:14.334Z</time>
      </trkpt>
      <trkpt lat="46.05588" lon="-1.08727">
        <ele>58.681113</ele>
        <time>2022-12-21T11:36:17.322Z</time>
      </trkpt>
      <trkpt lat="46.05577" lon="-1.08729">
        <ele>58.515311</ele>
        <time>2022-12-21T11:36:21.330Z</time>
      </trkpt>
      <trkpt lat="46.05568" lon="-1.0873">
        <ele>58.277786</ele>
        <time>2022-12-21T11:36:24.313Z</time>
      </trkpt>
      <trkpt lat="46.05557" lon="-1.08731">
        <ele>57.994882</ele>
        <time>2022-12-21T11:36:27.343Z</time>
      </trkpt>
      <trkpt lat="46.05547" lon="-1.08734">
        <ele>57.701124</ele>
        <time>2022-12-21T11:36:30.332Z</time>
      </trkpt>
      <trkpt lat="46.05536" lon="-1.08737">
        <ele>57.397108</ele>
        <time>2022-12-21T11:36:33.311Z</time>
      </trkpt>
      <trkpt lat="46.05525" lon="-1.08738">
        <ele>57.095373</ele>
        <time>2022-12-21T11:36:36.335Z</time>
      </trkpt>
      <trkpt lat="46.05514" lon="-1.0874">
        <ele>56.798341</ele>
        <time>2022-12-21T11:36:39.325Z</time>
      </trkpt>
      <trkpt lat="46.05504" lon="-1.08742">
        <ele>56.499352</ele>
        <time>2022-12-21T11:36:42.333Z</time>
      </trkpt>
      <trkpt lat="46.05493" lon="-1.08743">
        <ele>56.208016</ele>
        <time>2022-12-21T11:36:45.313Z</time>
      </trkpt>
      <trkpt lat="46.05482" lon="-1.08745">
        <ele>55.887348</ele>
        <time>2022-12-21T11:36:48.334Z</time>
      </trkpt>
      <trkpt lat="46.05469" lon="-1.08746">
        <ele>55.540776</ele>
        <time>2022-12-21T11:36:51.334Z</time>
      </trkpt>
      <trkpt lat="46.0546" lon="-1.08749">
        <ele>55.284979</ele>
        <time>2022-12-21T11:36:53.337Z</time>
      </trkpt>
      <trkpt lat="46.05447" lon="-1.08752">
        <ele>54.912864</ele>
        <time>2022-12-21T11:36:56.323Z</time>
      </trkpt>
      <trkpt lat="46.05435" lon="-1.08755">
        <ele>54.580705</ele>
        <time>2022-12-21T11:36:59.322Z</time>
      </trkpt>
      <trkpt lat="46.05423" lon="-1.08757">
        <ele>54.25758</ele>
        <time>2022-12-21T11:37:02.334Z</time>
      </trkpt>
      <trkpt lat="46.05411" lon="-1.0876">
        <ele>53.929258</ele>
        <time>2022-12-21T11:37:05.330Z</time>
      </trkpt>
      <trkpt lat="46.05399" lon="-1.08762">
        <ele>53.593652</ele>
        <time>2022-12-21T11:37:08.337Z</time>
      </trkpt>
      <trkpt lat="46.05387" lon="-1.08764">
        <ele>53.324281</ele>
        <time>2022-12-21T11:37:11.311Z</time>
      </trkpt>
      <trkpt lat="46.05376" lon="-1.08765">
        <ele>53.088322</ele>
        <time>2022-12-21T11:37:14.319Z</time>
      </trkpt>
      <trkpt lat="46.05366" lon="-1.08766">
        <ele>52.867515</ele>
        <time>2022-12-21T11:37:18.336Z</time>
      </trkpt>
      <trkpt lat="46.05356" lon="-1.08762">
        <ele>52.649633</ele>
        <time>2022-12-21T11:37:23.333Z</time>
      </trkpt>
      <trkpt lat="46.05353" lon="-1.08746">
        <ele>52.40351</ele>
        <time>2022-12-21T11:37:27.312Z</time>
      </trkpt>
      <trkpt lat="46.05352" lon="-1.0873">
        <ele>52.169872</ele>
        <time>2022-12-21T11:37:30.318Z</time>
      </trkpt>
      <trkpt lat="46.05352" lon="-1.08715">
        <ele>51.942256</ele>
        <time>2022-12-21T11:37:33.336Z</time>
      </trkpt>
      <trkpt lat="46.05352" lon="-1.087">
        <ele>51.730834</ele>
        <time>2022-12-21T11:37:36.333Z</time>
      </trkpt>
      <trkpt lat="46.05352" lon="-1.08684">
        <ele>51.492946</ele>
        <time>2022-12-21T11:37:40.329Z</time>
      </trkpt>
      <trkpt lat="46.0535" lon="-1.08668">
        <ele>51.251656</ele>
        <time>2022-12-21T11:37:44.329Z</time>
      </trkpt>
      <trkpt lat="46.05345" lon="-1.08656">
        <ele>51.04149</ele>
        <time>2022-12-21T11:37:47.318Z</time>
      </trkpt>
      <trkpt lat="46.0534" lon="-1.08641">
        <ele>50.805667</ele>
        <time>2022-12-21T11:37:50.329Z</time>
      </trkpt>
      <trkpt lat="46.05337" lon="-1.08625">
        <ele>50.558764</ele>
        <time>2022-12-21T11:37:53.335Z</time>
      </trkpt>
      <trkpt lat="46.05332" lon="-1.08609">
        <ele>50.305074</ele>
        <time>2022-12-21T11:37:56.310Z</time>
      </trkpt>
      <trkpt lat="46.0533" lon="-1.08592">
        <ele>50.049388</ele>
        <time>2022-12-21T11:37:59.313Z</time>
      </trkpt>
      <trkpt lat="46.05329" lon="-1.08575">
        <ele>49.793654</ele>
        <time>2022-12-21T11:38:02.334Z</time>
      </trkpt>
      <trkpt lat="46.05329" lon="-1.08559">
        <ele>49.597448</ele>
        <time>2022-12-21T11:38:05.335Z</time>
      </trkpt>
      <trkpt lat="46.05329" lon="-1.08545">
        <ele>49.429857</ele>
        <time>2022-12-21T11:38:08.334Z</time>
      </trkpt>
      <trkpt lat="46.05328" lon="-1.0853">
        <ele>49.257505</ele>
        <time>2022-12-21T11:38:11.330Z</time>
      </trkpt>
      <trkpt lat="46.05328" lon="-1.08516">
        <ele>49.082794</ele>
        <time>2022-12-21T11:38:14.338Z</time>
      </trkpt>
      <trkpt lat="46.05328" lon="-1.08499">
        <ele>48.88798</ele>
        <time>2022-12-21T11:38:17.334Z</time>
      </trkpt>
      <trkpt lat="46.05327" lon="-1.08483">
        <ele>48.701265</ele>
        <time>2022-12-21T11:38:20.317Z</time>
      </trkpt>
      <trkpt lat="46.05326" lon="-1.08468">
        <ele>48.519762</ele>
        <time>2022-12-21T11:38:23.309Z</time>
      </trkpt>
      <trkpt lat="46.05326" lon="-1.08454">
        <ele>48.349633</ele>
        <time>2022-12-21T11:38:26.309Z</time>
      </trkpt>
      <trkpt lat="46.05326" lon="-1.08438">
        <ele>48.167631</ele>
        <time>2022-12-21T11:38:30.317Z</time>
      </trkpt>
      <trkpt lat="46.05326" lon="-1.08423">
        <ele>47.990561</ele>
        <time>2022-12-21T11:38:33.321Z</time>
      </trkpt>
      <trkpt lat="46.05325" lon="-1.08408">
        <ele>47.809513</ele>
        <time>2022-12-21T11:38:36.331Z</time>
      </trkpt>
      <trkpt lat="46.05324" lon="-1.08393">
        <ele>47.633689</ele>
        <time>2022-12-21T11:38:39.334Z</time>
      </trkpt>
      <trkpt lat="46.05326" lon="-1.08379">
        <ele>47.464205</ele>
        <time>2022-12-21T11:38:42.316Z</time>
      </trkpt>
      <trkpt lat="46.05332" lon="-1.08367">
        <ele>47.284768</ele>
        <time>2022-12-21T11:38:45.314Z</time>
      </trkpt>
      <trkpt lat="46.0534" lon="-1.08354">
        <ele>47.089789</ele>
        <time>2022-12-21T11:38:48.330Z</time>
      </trkpt>
      <trkpt lat="46.05342" lon="-1.08336">
        <ele>46.874032</ele>
        <time>2022-12-21T11:38:51.312Z</time>
      </trkpt>
      <trkpt lat="46.05341" lon="-1.08317">
        <ele>46.686557</ele>
        <time>2022-12-21T11:38:54.312Z</time>
      </trkpt>
      <trkpt lat="46.05342" lon="-1.08299">
        <ele>46.73481</ele>
        <time>2022-12-21T11:38:57.330Z</time>
      </trkpt>
      <trkpt lat="46.05343" lon="-1.08281">
        <ele>46.783596</ele>
        <time>2022-12-21T11:39:00.334Z</time>
      </trkpt>
      <trkpt lat="46.05344" lon="-1.08264">
        <ele>46.828731</ele>
        <time>2022-12-21T11:39:03.326Z</time>
      </trkpt>
      <trkpt lat="46.05344" lon="-1.08248">
        <ele>46.871912</ele>
        <time>2022-12-21T11:39:06.335Z</time>
      </trkpt>
      <trkpt lat="46.05344" lon="-1.08231">
        <ele>46.916116</ele>
        <time>2022-12-21T11:39:09.336Z</time>
      </trkpt>
      <trkpt lat="46.05344" lon="-1.08215">
        <ele>46.960346</ele>
        <time>2022-12-21T11:39:12.334Z</time>
      </trkpt>
      <trkpt lat="46.05345" lon="-1.08198">
        <ele>47.00392</ele>
        <time>2022-12-21T11:39:15.338Z</time>
      </trkpt>
      <trkpt lat="46.05346" lon="-1.08182">
        <ele>47.047873</ele>
        <time>2022-12-21T11:39:18.338Z</time>
      </trkpt>
      <trkpt lat="46.05346" lon="-1.08165">
        <ele>47.093144</ele>
        <time>2022-12-21T11:39:21.336Z</time>
      </trkpt>
      <trkpt lat="46.05346" lon="-1.08147">
        <ele>47.140333</ele>
        <time>2022-12-21T11:39:24.336Z</time>
      </trkpt>
      <trkpt lat="46.05348" lon="-1.08129">
        <ele>47.187506</ele>
        <time>2022-12-21T11:39:27.333Z</time>
      </trkpt>
      <trkpt lat="46.05352" lon="-1.08112">
        <ele>47.235204</ele>
        <time>2022-12-21T11:39:30.314Z</time>
      </trkpt>
      <trkpt lat="46.05358" lon="-1.08096">
        <ele>47.283398</ele>
        <time>2022-12-21T11:39:33.334Z</time>
      </trkpt>
      <trkpt lat="46.05365" lon="-1.08082">
        <ele>47.331997</ele>
        <time>2022-12-21T11:39:36.318Z</time>
      </trkpt>
      <trkpt lat="46.05374" lon="-1.08069">
        <ele>47.38457</ele>
        <time>2022-12-21T11:39:39.332Z</time>
      </trkpt>
      <trkpt lat="46.05383" lon="-1.08056">
        <ele>47.454303</ele>
        <time>2022-12-21T11:39:42.333Z</time>
      </trkpt>
      <trkpt lat="46.05392" lon="-1.08044">
        <ele>47.522576</ele>
        <time>2022-12-21T11:39:45.331Z</time>
      </trkpt>
      <trkpt lat="46.05399" lon="-1.08034">
        <ele>47.582466</ele>
        <time>2022-12-21T11:39:48.341Z</time>
      </trkpt>
      <trkpt lat="46.05408" lon="-1.08022">
        <ele>47.648833</ele>
        <time>2022-12-21T11:39:51.321Z</time>
      </trkpt>
      <trkpt lat="46.05416" lon="-1.08009">
        <ele>47.716306</ele>
        <time>2022-12-21T11:39:54.335Z</time>
      </trkpt>
      <trkpt lat="46.05425" lon="-1.07996">
        <ele>47.787531</ele>
        <time>2022-12-21T11:39:57.336Z</time>
      </trkpt>
      <trkpt lat="46.05434" lon="-1.07984">
        <ele>47.85659</ele>
        <time>2022-12-21T11:40:00.333Z</time>
      </trkpt>
      <trkpt lat="46.05441" lon="-1.07972">
        <ele>47.918425</ele>
        <time>2022-12-21T11:40:03.337Z</time>
      </trkpt>
      <trkpt lat="46.05449" lon="-1.0796">
        <ele>47.983781</ele>
        <time>2022-12-21T11:40:06.335Z</time>
      </trkpt>
      <trkpt lat="46.05458" lon="-1.07947">
        <ele>48.054609</ele>
        <time>2022-12-21T11:40:09.337Z</time>
      </trkpt>
      <trkpt lat="46.05468" lon="-1.07934">
        <ele>48.128656</ele>
        <time>2022-12-21T11:40:12.334Z</time>
      </trkpt>
      <trkpt lat="46.05475" lon="-1.07924">
        <ele>48.183688</ele>
        <time>2022-12-21T11:40:14.332Z</time>
      </trkpt>
      <trkpt lat="46.05484" lon="-1.07911">
        <ele>48.256931</ele>
        <time>2022-12-21T11:40:17.325Z</time>
      </trkpt>
      <trkpt lat="46.05493" lon="-1.07899">
        <ele>48.324797</ele>
        <time>2022-12-21T11:40:20.334Z</time>
      </trkpt>
      <trkpt lat="46.055" lon="-1.07887">
        <ele>48.369955</ele>
        <time>2022-12-21T11:40:23.321Z</time>
      </trkpt>
      <trkpt lat="46.05509" lon="-1.07876">
        <ele>48.292932</ele>
        <time>2022-12-21T11:40:26.327Z</time>
      </trkpt>
      <trkpt lat="46.05518" lon="-1.07864">
        <ele>48.210416</ele>
        <time>2022-12-21T11:40:29.336Z</time>
      </trkpt>
      <trkpt lat="46.05527" lon="-1.07851">
        <ele>48.123455</ele>
        <time>2022-12-21T11:40:32.331Z</time>
      </trkpt>
      <trkpt lat="46.05536" lon="-1.07837">
        <ele>48.035512</ele>
        <time>2022-12-21T11:40:35.339Z</time>
      </trkpt>
      <trkpt lat="46.05545" lon="-1.07823">
        <ele>47.949136</ele>
        <time>2022-12-21T11:40:38.333Z</time>
      </trkpt>
      <trkpt lat="46.05555" lon="-1.0781">
        <ele>47.861372</ele>
        <time>2022-12-21T11:40:41.334Z</time>
      </trkpt>
      <trkpt lat="46.05563" lon="-1.07798">
        <ele>47.778743</ele>
        <time>2022-12-21T11:40:44.317Z</time>
      </trkpt>
      <trkpt lat="46.05572" lon="-1.07787">
        <ele>47.702297</ele>
        <time>2022-12-21T11:40:47.311Z</time>
      </trkpt>
      <trkpt lat="46.05581" lon="-1.07775">
        <ele>47.622011</ele>
        <time>2022-12-21T11:40:50.333Z</time>
      </trkpt>
      <trkpt lat="46.05587" lon="-1.07765">
        <ele>47.560429</ele>
        <time>2022-12-21T11:40:52.327Z</time>
      </trkpt>
      <trkpt lat="46.05593" lon="-1.07754">
        <ele>47.498381</ele>
        <time>2022-12-21T11:40:54.313Z</time>
      </trkpt>
      <trkpt lat="46.05602" lon="-1.07741">
        <ele>47.408674</ele>
        <time>2022-12-21T11:40:57.333Z</time>
      </trkpt>
      <trkpt lat="46.05608" lon="-1.07731">
        <ele>47.348476</ele>
        <time>2022-12-21T11:40:59.326Z</time>
      </trkpt>
      <trkpt lat="46.05617" lon="-1.07718">
        <ele>47.263892</ele>
        <time>2022-12-21T11:41:02.335Z</time>
      </trkpt>
      <trkpt lat="46.05627" lon="-1.07707">
        <ele>47.181491</ele>
        <time>2022-12-21T11:41:05.336Z</time>
      </trkpt>
      <trkpt lat="46.05636" lon="-1.07693">
        <ele>47.288194</ele>
        <time>2022-12-21T11:41:08.338Z</time>
      </trkpt>
      <trkpt lat="46.05645" lon="-1.07679">
        <ele>47.401383</ele>
        <time>2022-12-21T11:41:11.336Z</time>
      </trkpt>
      <trkpt lat="46.05651" lon="-1.07669">
        <ele>47.479604</ele>
        <time>2022-12-21T11:41:13.311Z</time>
      </trkpt>
      <trkpt lat="46.05658" lon="-1.07659">
        <ele>47.558228</ele>
        <time>2022-12-21T11:41:15.340Z</time>
      </trkpt>
      <trkpt lat="46.05666" lon="-1.07645">
        <ele>47.667533</ele>
        <time>2022-12-21T11:41:18.317Z</time>
      </trkpt>
      <trkpt lat="46.05672" lon="-1.07632">
        <ele>47.760502</ele>
        <time>2022-12-21T11:41:21.333Z</time>
      </trkpt>
      <trkpt lat="46.05679" lon="-1.07618">
        <ele>47.861661</ele>
        <time>2022-12-21T11:41:24.319Z</time>
      </trkpt>
      <trkpt lat="46.05687" lon="-1.07605">
        <ele>47.961871</ele>
        <time>2022-12-21T11:41:27.310Z</time>
      </trkpt>
      <trkpt lat="46.05695" lon="-1.07591">
        <ele>48.066182</ele>
        <time>2022-12-21T11:41:30.336Z</time>
      </trkpt>
      <trkpt lat="46.05704" lon="-1.07578">
        <ele>48.173847</ele>
        <time>2022-12-21T11:41:33.313Z</time>
      </trkpt>
      <trkpt lat="46.05712" lon="-1.07566">
        <ele>48.273428</ele>
        <time>2022-12-21T11:41:36.330Z</time>
      </trkpt>
      <trkpt lat="46.05721" lon="-1.07553">
        <ele>48.378477</ele>
        <time>2022-12-21T11:41:39.336Z</time>
      </trkpt>
      <trkpt lat="46.0573" lon="-1.0754">
        <ele>48.487073</ele>
        <time>2022-12-21T11:41:42.330Z</time>
      </trkpt>
      <trkpt lat="46.05736" lon="-1.07529">
        <ele>48.567573</ele>
        <time>2022-12-21T11:41:44.311Z</time>
      </trkpt>
      <trkpt lat="46.05745" lon="-1.07517">
        <ele>48.674226</ele>
        <time>2022-12-21T11:41:47.311Z</time>
      </trkpt>
      <trkpt lat="46.05753" lon="-1.07505">
        <ele>48.71895</ele>
        <time>2022-12-21T11:41:50.331Z</time>
      </trkpt>
      <trkpt lat="46.0576" lon="-1.07494">
        <ele>48.7439</ele>
        <time>2022-12-21T11:41:53.335Z</time>
      </trkpt>
      <trkpt lat="46.05767" lon="-1.07483">
        <ele>48.767803</ele>
        <time>2022-12-21T11:41:56.314Z</time>
      </trkpt>
      <trkpt lat="46.05774" lon="-1.07473">
        <ele>48.792554</ele>
        <time>2022-12-21T11:41:59.329Z</time>
      </trkpt>
      <trkpt lat="46.05782" lon="-1.07461">
        <ele>48.818875</ele>
        <time>2022-12-21T11:42:02.327Z</time>
      </trkpt>
      <trkpt lat="46.05791" lon="-1.0745">
        <ele>48.847304</ele>
        <time>2022-12-21T11:42:05.334Z</time>
      </trkpt>
      <trkpt lat="46.05801" lon="-1.07436">
        <ele>48.87955</ele>
        <time>2022-12-21T11:42:08.338Z</time>
      </trkpt>
      <trkpt lat="46.05808" lon="-1.07427">
        <ele>48.901036</ele>
        <time>2022-12-21T11:42:10.326Z</time>
      </trkpt>
      <trkpt lat="46.05814" lon="-1.07418">
        <ele>48.9228</ele>
        <time>2022-12-21T11:42:12.315Z</time>
      </trkpt>
      <trkpt lat="46.05824" lon="-1.07405">
        <ele>48.954083</ele>
        <time>2022-12-21T11:42:15.331Z</time>
      </trkpt>
      <trkpt lat="46.05832" lon="-1.07393">
        <ele>48.982066</ele>
        <time>2022-12-21T11:42:18.335Z</time>
      </trkpt>
      <trkpt lat="46.0584" lon="-1.0738">
        <ele>49.010476</ele>
        <time>2022-12-21T11:42:21.334Z</time>
      </trkpt>
      <trkpt lat="46.05849" lon="-1.07367">
        <ele>49.039614</ele>
        <time>2022-12-21T11:42:24.334Z</time>
      </trkpt>
      <trkpt lat="46.05856" lon="-1.07353">
        <ele>49.068936</ele>
        <time>2022-12-21T11:42:27.329Z</time>
      </trkpt>
      <trkpt lat="46.05861" lon="-1.07336">
        <ele>49.098346</ele>
        <time>2022-12-21T11:42:30.316Z</time>
      </trkpt>
      <trkpt lat="46.05864" lon="-1.07319">
        <ele>49.129088</ele>
        <time>2022-12-21T11:42:33.313Z</time>
      </trkpt>
      <trkpt lat="46.05866" lon="-1.07302">
        <ele>49.174968</ele>
        <time>2022-12-21T11:42:36.320Z</time>
      </trkpt>
      <trkpt lat="46.05866" lon="-1.07284">
        <ele>49.22108</ele>
        <time>2022-12-21T11:42:39.336Z</time>
      </trkpt>
      <trkpt lat="46.05865" lon="-1.07266">
        <ele>49.268823</ele>
        <time>2022-12-21T11:42:42.321Z</time>
      </trkpt>
      <trkpt lat="46.05864" lon="-1.07253">
        <ele>49.302865</ele>
        <time>2022-12-21T11:42:44.307Z</time>
      </trkpt>
      <trkpt lat="46.05863" lon="-1.07234">
        <ele>49.353224</ele>
        <time>2022-12-21T11:42:47.332Z</time>
      </trkpt>
      <trkpt lat="46.05863" lon="-1.07216">
        <ele>49.401512</ele>
        <time>2022-12-21T11:42:50.325Z</time>
      </trkpt>
      <trkpt lat="46.05861" lon="-1.07198">
        <ele>49.447485</ele>
        <time>2022-12-21T11:42:53.310Z</time>
      </trkpt>
      <trkpt lat="46.0586" lon="-1.0718">
        <ele>49.495228</ele>
        <time>2022-12-21T11:42:56.331Z</time>
      </trkpt>
      <trkpt lat="46.0586" lon="-1.07161">
        <ele>49.544823</ele>
        <time>2022-12-21T11:42:59.336Z</time>
      </trkpt>
      <trkpt lat="46.05859" lon="-1.07142">
        <ele>49.593855</ele>
        <time>2022-12-21T11:43:02.334Z</time>
      </trkpt>
      <trkpt lat="46.05859" lon="-1.07123">
        <ele>49.644952</ele>
        <time>2022-12-21T11:43:05.334Z</time>
      </trkpt>
      <trkpt lat="46.05858" lon="-1.0711">
        <ele>49.679297</ele>
        <time>2022-12-21T11:43:07.337Z</time>
      </trkpt>
      <trkpt lat="46.05857" lon="-1.0709">
        <ele>49.73025</ele>
        <time>2022-12-21T11:43:10.338Z</time>
      </trkpt>
      <trkpt lat="46.05857" lon="-1.07077">
        <ele>49.765642</ele>
        <time>2022-12-21T11:43:12.334Z</time>
      </trkpt>
      <trkpt lat="46.05856" lon="-1.07058">
        <ele>49.807548</ele>
        <time>2022-12-21T11:43:15.335Z</time>
      </trkpt>
      <trkpt lat="46.05856" lon="-1.0704">
        <ele>49.824759</ele>
        <time>2022-12-21T11:43:18.338Z</time>
      </trkpt>
      <trkpt lat="46.05855" lon="-1.07021">
        <ele>49.842394</ele>
        <time>2022-12-21T11:43:21.338Z</time>
      </trkpt>
      <trkpt lat="46.05854" lon="-1.07003">
        <ele>49.85895</ele>
        <time>2022-12-21T11:43:24.334Z</time>
      </trkpt>
      <trkpt lat="46.05853" lon="-1.06986">
        <ele>49.874902</ele>
        <time>2022-12-21T11:43:27.336Z</time>
      </trkpt>
      <trkpt lat="46.05852" lon="-1.0697">
        <ele>49.8898</ele>
        <time>2022-12-21T11:43:30.331Z</time>
      </trkpt>
      <trkpt lat="46.05851" lon="-1.06954">
        <ele>49.904687</ele>
        <time>2022-12-21T11:43:33.337Z</time>
      </trkpt>
      <trkpt lat="46.0585" lon="-1.06937">
        <ele>49.920994</ele>
        <time>2022-12-21T11:43:36.343Z</time>
      </trkpt>
      <trkpt lat="46.05848" lon="-1.06918">
        <ele>49.938562</ele>
        <time>2022-12-21T11:43:39.333Z</time>
      </trkpt>
      <trkpt lat="46.05846" lon="-1.06905">
        <ele>49.951161</ele>
        <time>2022-12-21T11:43:41.313Z</time>
      </trkpt>
      <trkpt lat="46.05843" lon="-1.06885">
        <ele>49.969377</ele>
        <time>2022-12-21T11:43:44.335Z</time>
      </trkpt>
      <trkpt lat="46.05841" lon="-1.06872">
        <ele>49.982094</ele>
        <time>2022-12-21T11:43:46.336Z</time>
      </trkpt>
      <trkpt lat="46.0584" lon="-1.06859">
        <ele>49.994447</ele>
        <time>2022-12-21T11:43:48.336Z</time>
      </trkpt>
      <trkpt lat="46.05837" lon="-1.06845">
        <ele>50.007709</ele>
        <time>2022-12-21T11:43:50.333Z</time>
      </trkpt>
      <trkpt lat="46.05835" lon="-1.06832">
        <ele>50.020192</ele>
        <time>2022-12-21T11:43:52.327Z</time>
      </trkpt>
      <trkpt lat="46.05833" lon="-1.06819">
        <ele>50.032937</ele>
        <time>2022-12-21T11:43:54.319Z</time>
      </trkpt>
      <trkpt lat="46.05831" lon="-1.06805">
        <ele>50.048136</ele>
        <time>2022-12-21T11:43:56.338Z</time>
      </trkpt>
      <trkpt lat="46.05828" lon="-1.06791">
        <ele>50.080044</ele>
        <time>2022-12-21T11:43:58.336Z</time>
      </trkpt>
      <trkpt lat="46.05826" lon="-1.06778">
        <ele>50.11044</ele>
        <time>2022-12-21T11:44:00.330Z</time>
      </trkpt>
      <trkpt lat="46.05823" lon="-1.06765">
        <ele>50.140967</ele>
        <time>2022-12-21T11:44:02.324Z</time>
      </trkpt>
      <trkpt lat="46.05821" lon="-1.06752">
        <ele>50.17102</ele>
        <time>2022-12-21T11:44:04.337Z</time>
      </trkpt>
      <trkpt lat="46.05818" lon="-1.06734">
        <ele>50.212455</ele>
        <time>2022-12-21T11:44:07.333Z</time>
      </trkpt>
      <trkpt lat="46.05814" lon="-1.06716">
        <ele>50.253729</ele>
        <time>2022-12-21T11:44:10.337Z</time>
      </trkpt>
      <trkpt lat="46.05811" lon="-1.06698">
        <ele>50.295813</ele>
        <time>2022-12-21T11:44:13.338Z</time>
      </trkpt>
      <trkpt lat="46.05808" lon="-1.06679">
        <ele>50.339494</ele>
        <time>2022-12-21T11:44:16.336Z</time>
      </trkpt>
      <trkpt lat="46.05804" lon="-1.0666">
        <ele>50.384555</ele>
        <time>2022-12-21T11:44:19.334Z</time>
      </trkpt>
      <trkpt lat="46.05802" lon="-1.06647">
        <ele>50.41369</ele>
        <time>2022-12-21T11:44:21.331Z</time>
      </trkpt>
      <trkpt lat="46.058" lon="-1.06634">
        <ele>50.443769</ele>
        <time>2022-12-21T11:44:23.333Z</time>
      </trkpt>
      <trkpt lat="46.05797" lon="-1.06616">
        <ele>50.485463</ele>
        <time>2022-12-21T11:44:26.327Z</time>
      </trkpt>
      <trkpt lat="46.05793" lon="-1.06597">
        <ele>50.528335</ele>
        <time>2022-12-21T11:44:29.334Z</time>
      </trkpt>
      <trkpt lat="46.05792" lon="-1.06584">
        <ele>50.55859</ele>
        <time>2022-12-21T11:44:31.330Z</time>
      </trkpt>
      <trkpt lat="46.0579" lon="-1.06571">
        <ele>50.58793</ele>
        <time>2022-12-21T11:44:33.335Z</time>
      </trkpt>
      <trkpt lat="46.05788" lon="-1.06558">
        <ele>50.618376</ele>
        <time>2022-12-21T11:44:35.333Z</time>
      </trkpt>
      <trkpt lat="46.05786" lon="-1.06544">
        <ele>50.588458</ele>
        <time>2022-12-21T11:44:37.332Z</time>
      </trkpt>
      <trkpt lat="46.05784" lon="-1.0653">
        <ele>50.544114</ele>
        <time>2022-12-21T11:44:39.335Z</time>
      </trkpt>
      <trkpt lat="46.05783" lon="-1.06517">
        <ele>50.501144</ele>
        <time>2022-12-21T11:44:41.337Z</time>
      </trkpt>
      <trkpt lat="46.05782" lon="-1.06503">
        <ele>50.457808</ele>
        <time>2022-12-21T11:44:43.339Z</time>
      </trkpt>
      <trkpt lat="46.05781" lon="-1.0649">
        <ele>50.416342</ele>
        <time>2022-12-21T11:44:45.336Z</time>
      </trkpt>
      <trkpt lat="46.05779" lon="-1.06471">
        <ele>50.358271</ele>
        <time>2022-12-21T11:44:48.336Z</time>
      </trkpt>
      <trkpt lat="46.05778" lon="-1.06454">
        <ele>50.302193</ele>
        <time>2022-12-21T11:44:51.332Z</time>
      </trkpt>
      <trkpt lat="46.05776" lon="-1.06435">
        <ele>50.243568</ele>
        <time>2022-12-21T11:44:54.331Z</time>
      </trkpt>
      <trkpt lat="46.05775" lon="-1.06422">
        <ele>50.202519</ele>
        <time>2022-12-21T11:44:56.324Z</time>
      </trkpt>
      <trkpt lat="46.05773" lon="-1.06408">
        <ele>50.157354</ele>
        <time>2022-12-21T11:44:58.341Z</time>
      </trkpt>
      <trkpt lat="46.05771" lon="-1.06394">
        <ele>50.113724</ele>
        <time>2022-12-21T11:45:00.340Z</time>
      </trkpt>
      <trkpt lat="46.05769" lon="-1.06375">
        <ele>50.052023</ele>
        <time>2022-12-21T11:45:03.338Z</time>
      </trkpt>
      <trkpt lat="46.05767" lon="-1.06361">
        <ele>50.007165</ele>
        <time>2022-12-21T11:45:05.322Z</time>
      </trkpt>
      <trkpt lat="46.05764" lon="-1.06347">
        <ele>49.961493</ele>
        <time>2022-12-21T11:45:07.336Z</time>
      </trkpt>
      <trkpt lat="46.05763" lon="-1.06334">
        <ele>49.920285</ele>
        <time>2022-12-21T11:45:09.319Z</time>
      </trkpt>
      <trkpt lat="46.05761" lon="-1.06316">
        <ele>49.864004</ele>
        <time>2022-12-21T11:45:12.336Z</time>
      </trkpt>
      <trkpt lat="46.05758" lon="-1.06301">
        <ele>49.81426</ele>
        <time>2022-12-21T11:45:15.335Z</time>
      </trkpt>
      <trkpt lat="46.05755" lon="-1.06286">
        <ele>49.868469</ele>
        <time>2022-12-21T11:45:18.336Z</time>
      </trkpt>
      <trkpt lat="46.05753" lon="-1.06269">
        <ele>49.933831</ele>
        <time>2022-12-21T11:45:21.328Z</time>
      </trkpt>
      <trkpt lat="46.05751" lon="-1.06252">
        <ele>50.002845</ele>
        <time>2022-12-21T11:45:24.318Z</time>
      </trkpt>
      <trkpt lat="46.05749" lon="-1.06236">
        <ele>50.067933</ele>
        <time>2022-12-21T11:45:27.336Z</time>
      </trkpt>
      <trkpt lat="46.05747" lon="-1.0622">
        <ele>50.129429</ele>
        <time>2022-12-21T11:45:30.317Z</time>
      </trkpt>
      <trkpt lat="46.05746" lon="-1.06207">
        <ele>50.180287</ele>
        <time>2022-12-21T11:45:33.336Z</time>
      </trkpt>
      <trkpt lat="46.05743" lon="-1.0619">
        <ele>50.249067</ele>
        <time>2022-12-21T11:45:37.320Z</time>
      </trkpt>
      <trkpt lat="46.05741" lon="-1.06175">
        <ele>50.31048</ele>
        <time>2022-12-21T11:45:40.338Z</time>
      </trkpt>
      <trkpt lat="46.0574" lon="-1.06158">
        <ele>50.375849</ele>
        <time>2022-12-21T11:45:43.342Z</time>
      </trkpt>
      <trkpt lat="46.0574" lon="-1.06143">
        <ele>50.434556</ele>
        <time>2022-12-21T11:45:46.338Z</time>
      </trkpt>
      <trkpt lat="46.05738" lon="-1.06128">
        <ele>50.49378</ele>
        <time>2022-12-21T11:45:49.330Z</time>
      </trkpt>
      <trkpt lat="46.05733" lon="-1.06112">
        <ele>50.561968</ele>
        <time>2022-12-21T11:45:52.322Z</time>
      </trkpt>
      <trkpt lat="46.0573" lon="-1.06095">
        <ele>50.633767</ele>
        <time>2022-12-21T11:45:55.336Z</time>
      </trkpt>
      <trkpt lat="46.05727" lon="-1.06077">
        <ele>50.703415</ele>
        <time>2022-12-21T11:45:58.340Z</time>
      </trkpt>
      <trkpt lat="46.05725" lon="-1.06059">
        <ele>50.77552</ele>
        <time>2022-12-21T11:46:01.339Z</time>
      </trkpt>
      <trkpt lat="46.05722" lon="-1.0604">
        <ele>50.833852</ele>
        <time>2022-12-21T11:46:04.336Z</time>
      </trkpt>
      <trkpt lat="46.05719" lon="-1.06021">
        <ele>50.859101</ele>
        <time>2022-12-21T11:46:07.328Z</time>
      </trkpt>
      <trkpt lat="46.05716" lon="-1.06003">
        <ele>50.883444</ele>
        <time>2022-12-21T11:46:10.332Z</time>
      </trkpt>
      <trkpt lat="46.05714" lon="-1.0599">
        <ele>50.901189</ele>
        <time>2022-12-21T11:46:12.313Z</time>
      </trkpt>
      <trkpt lat="46.05712" lon="-1.05977">
        <ele>50.918174</ele>
        <time>2022-12-21T11:46:14.337Z</time>
      </trkpt>
      <trkpt lat="46.0571" lon="-1.05964">
        <ele>50.935395</ele>
        <time>2022-12-21T11:46:16.337Z</time>
      </trkpt>
      <trkpt lat="46.05707" lon="-1.05945">
        <ele>50.960667</ele>
        <time>2022-12-21T11:46:19.337Z</time>
      </trkpt>
      <trkpt lat="46.05706" lon="-1.05932">
        <ele>50.977448</ele>
        <time>2022-12-21T11:46:21.325Z</time>
      </trkpt>
      <trkpt lat="46.05703" lon="-1.05913">
        <ele>51.002049</ele>
        <time>2022-12-21T11:46:24.323Z</time>
      </trkpt>
      <trkpt lat="46.05702" lon="-1.05896">
        <ele>51.0243</ele>
        <time>2022-12-21T11:46:27.336Z</time>
      </trkpt>
      <trkpt lat="46.05699" lon="-1.05878">
        <ele>51.048089</ele>
        <time>2022-12-21T11:46:30.338Z</time>
      </trkpt>
      <trkpt lat="46.05697" lon="-1.05861">
        <ele>51.071474</ele>
        <time>2022-12-21T11:46:33.338Z</time>
      </trkpt>
      <trkpt lat="46.05694" lon="-1.05848">
        <ele>51.08874</ele>
        <time>2022-12-21T11:46:35.335Z</time>
      </trkpt>
      <trkpt lat="46.05691" lon="-1.05831">
        <ele>51.110822</ele>
        <time>2022-12-21T11:46:38.337Z</time>
      </trkpt>
      <trkpt lat="46.05686" lon="-1.05816">
        <ele>51.132403</ele>
        <time>2022-12-21T11:46:41.329Z</time>
      </trkpt>
      <trkpt lat="46.05681" lon="-1.05802">
        <ele>51.153977</ele>
        <time>2022-12-21T11:46:44.315Z</time>
      </trkpt>
      <trkpt lat="46.05673" lon="-1.05787">
        <ele>51.109943</ele>
        <time>2022-12-21T11:46:47.312Z</time>
      </trkpt>
      <trkpt lat="46.05664" lon="-1.05773">
        <ele>51.036695</ele>
        <time>2022-12-21T11:46:50.332Z</time>
      </trkpt>
      <trkpt lat="46.05655" lon="-1.05759">
        <ele>50.963283</ele>
        <time>2022-12-21T11:46:53.334Z</time>
      </trkpt>
      <trkpt lat="46.05647" lon="-1.05746">
        <ele>50.891775</ele>
        <time>2022-12-21T11:46:56.332Z</time>
      </trkpt>
      <trkpt lat="46.0564" lon="-1.0573">
        <ele>50.820339</ele>
        <time>2022-12-21T11:46:59.316Z</time>
      </trkpt>
      <trkpt lat="46.05633" lon="-1.05714">
        <ele>50.746553</ele>
        <time>2022-12-21T11:47:02.324Z</time>
      </trkpt>
      <trkpt lat="46.05628" lon="-1.05703">
        <ele>50.695461</ele>
        <time>2022-12-21T11:47:04.320Z</time>
      </trkpt>
      <trkpt lat="46.05622" lon="-1.05689">
        <ele>50.631283</ele>
        <time>2022-12-21T11:47:07.337Z</time>
      </trkpt>
      <trkpt lat="46.05614" lon="-1.05679">
        <ele>50.573646</ele>
        <time>2022-12-21T11:47:10.315Z</time>
      </trkpt>
      <trkpt lat="46.05605" lon="-1.0567">
        <ele>50.512483</ele>
        <time>2022-12-21T11:47:13.335Z</time>
      </trkpt>
      <trkpt lat="46.05595" lon="-1.05661">
        <ele>50.447462</ele>
        <time>2022-12-21T11:47:16.314Z</time>
      </trkpt>
      <trkpt lat="46.05585" lon="-1.05653">
        <ele>50.3799</ele>
        <time>2022-12-21T11:47:19.337Z</time>
      </trkpt>
      <trkpt lat="46.05574" lon="-1.05646">
        <ele>50.313579</ele>
        <time>2022-12-21T11:47:22.337Z</time>
      </trkpt>
      <trkpt lat="46.05564" lon="-1.05638">
        <ele>50.250443</ele>
        <time>2022-12-21T11:47:25.335Z</time>
      </trkpt>
      <trkpt lat="46.05553" lon="-1.05631">
        <ele>50.183291</ele>
        <time>2022-12-21T11:47:28.334Z</time>
      </trkpt>
      <trkpt lat="46.05543" lon="-1.05623">
        <ele>50.184193</ele>
        <time>2022-12-21T11:47:31.337Z</time>
      </trkpt>
      <trkpt lat="46.05532" lon="-1.05614">
        <ele>50.240794</ele>
        <time>2022-12-21T11:47:34.330Z</time>
      </trkpt>
      <trkpt lat="46.05521" lon="-1.05606">
        <ele>50.297953</ele>
        <time>2022-12-21T11:47:37.330Z</time>
      </trkpt>
      <trkpt lat="46.0551" lon="-1.05597">
        <ele>50.355332</ele>
        <time>2022-12-21T11:47:40.316Z</time>
      </trkpt>
      <trkpt lat="46.05499" lon="-1.05588">
        <ele>50.413032</ele>
        <time>2022-12-21T11:47:43.337Z</time>
      </trkpt>
      <trkpt lat="46.05489" lon="-1.05579">
        <ele>50.469451</ele>
        <time>2022-12-21T11:47:46.329Z</time>
      </trkpt>
      <trkpt lat="46.05478" lon="-1.05569">
        <ele>50.525852</ele>
        <time>2022-12-21T11:47:49.332Z</time>
      </trkpt>
      <trkpt lat="46.05467" lon="-1.05561">
        <ele>50.585606</ele>
        <time>2022-12-21T11:47:52.338Z</time>
      </trkpt>
      <trkpt lat="46.05455" lon="-1.05552">
        <ele>50.646216</ele>
        <time>2022-12-21T11:47:55.336Z</time>
      </trkpt>
      <trkpt lat="46.05444" lon="-1.05542">
        <ele>50.708722</ele>
        <time>2022-12-21T11:47:58.340Z</time>
      </trkpt>
      <trkpt lat="46.05436" lon="-1.05535">
        <ele>50.750999</ele>
        <time>2022-12-21T11:48:00.336Z</time>
      </trkpt>
      <trkpt lat="46.05428" lon="-1.05529">
        <ele>50.793199</ele>
        <time>2022-12-21T11:48:02.338Z</time>
      </trkpt>
      <trkpt lat="46.0542" lon="-1.05522">
        <ele>50.834755</ele>
        <time>2022-12-21T11:48:04.335Z</time>
      </trkpt>
      <trkpt lat="46.05412" lon="-1.05516">
        <ele>50.876553</ele>
        <time>2022-12-21T11:48:06.337Z</time>
      </trkpt>
      <trkpt lat="46.05402" lon="-1.05507">
        <ele>50.929472</ele>
        <time>2022-12-21T11:48:09.333Z</time>
      </trkpt>
      <trkpt lat="46.05392" lon="-1.05499">
        <ele>50.986298</ele>
        <time>2022-12-21T11:48:12.335Z</time>
      </trkpt>
      <trkpt lat="46.0538" lon="-1.0549">
        <ele>51.085701</ele>
        <time>2022-12-21T11:48:15.333Z</time>
      </trkpt>
      <trkpt lat="46.05368" lon="-1.05482">
        <ele>51.187638</ele>
        <time>2022-12-21T11:48:18.330Z</time>
      </trkpt>
      <trkpt lat="46.05357" lon="-1.05472">
        <ele>51.287235</ele>
        <time>2022-12-21T11:48:21.327Z</time>
      </trkpt>
      <trkpt lat="46.05346" lon="-1.05462">
        <ele>51.386086</ele>
        <time>2022-12-21T11:48:24.335Z</time>
      </trkpt>
      <trkpt lat="46.05337" lon="-1.05453">
        <ele>51.474775</ele>
        <time>2022-12-21T11:48:27.335Z</time>
      </trkpt>
      <trkpt lat="46.05327" lon="-1.05447">
        <ele>51.554785</ele>
        <time>2022-12-21T11:48:30.334Z</time>
      </trkpt>
      <trkpt lat="46.05318" lon="-1.05439">
        <ele>51.633092</ele>
        <time>2022-12-21T11:48:33.313Z</time>
      </trkpt>
      <trkpt lat="46.05309" lon="-1.05432">
        <ele>51.71662</ele>
        <time>2022-12-21T11:48:36.335Z</time>
      </trkpt>
      <trkpt lat="46.05298" lon="-1.05425">
        <ele>51.80564</ele>
        <time>2022-12-21T11:48:39.332Z</time>
      </trkpt>
      <trkpt lat="46.05288" lon="-1.05417">
        <ele>51.898451</ele>
        <time>2022-12-21T11:48:42.335Z</time>
      </trkpt>
      <trkpt lat="46.05277" lon="-1.05408">
        <ele>51.991376</ele>
        <time>2022-12-21T11:48:45.337Z</time>
      </trkpt>
      <trkpt lat="46.05267" lon="-1.05399">
        <ele>52.085108</ele>
        <time>2022-12-21T11:48:48.335Z</time>
      </trkpt>
      <trkpt lat="46.05256" lon="-1.0539">
        <ele>52.179772</ele>
        <time>2022-12-21T11:48:51.338Z</time>
      </trkpt>
      <trkpt lat="46.05246" lon="-1.0538">
        <ele>52.274423</ele>
        <time>2022-12-21T11:48:54.322Z</time>
      </trkpt>
      <trkpt lat="46.05235" lon="-1.05371">
        <ele>52.361007</ele>
        <time>2022-12-21T11:48:57.335Z</time>
      </trkpt>
      <trkpt lat="46.05225" lon="-1.05363">
        <ele>52.307661</ele>
        <time>2022-12-21T11:49:00.337Z</time>
      </trkpt>
      <trkpt lat="46.05214" lon="-1.05355">
        <ele>52.251913</ele>
        <time>2022-12-21T11:49:03.333Z</time>
      </trkpt>
      <trkpt lat="46.05203" lon="-1.05346">
        <ele>52.194578</ele>
        <time>2022-12-21T11:49:06.335Z</time>
      </trkpt>
      <trkpt lat="46.05192" lon="-1.05336">
        <ele>52.134664</ele>
        <time>2022-12-21T11:49:09.333Z</time>
      </trkpt>
      <trkpt lat="46.05181" lon="-1.05327">
        <ele>52.076321</ele>
        <time>2022-12-21T11:49:12.338Z</time>
      </trkpt>
      <trkpt lat="46.0517" lon="-1.05318">
        <ele>52.020999</ele>
        <time>2022-12-21T11:49:15.338Z</time>
      </trkpt>
      <trkpt lat="46.05161" lon="-1.0531">
        <ele>51.973273</ele>
        <time>2022-12-21T11:49:18.336Z</time>
      </trkpt>
      <trkpt lat="46.05151" lon="-1.05303">
        <ele>51.922473</ele>
        <time>2022-12-21T11:49:21.334Z</time>
      </trkpt>
      <trkpt lat="46.05142" lon="-1.05295">
        <ele>51.871974</ele>
        <time>2022-12-21T11:49:24.336Z</time>
      </trkpt>
      <trkpt lat="46.05131" lon="-1.05287">
        <ele>51.820013</ele>
        <time>2022-12-21T11:49:27.337Z</time>
      </trkpt>
      <trkpt lat="46.05121" lon="-1.05279">
        <ele>51.76652</ele>
        <time>2022-12-21T11:49:30.330Z</time>
      </trkpt>
      <trkpt lat="46.05111" lon="-1.05271">
        <ele>51.711634</ele>
        <time>2022-12-21T11:49:33.340Z</time>
      </trkpt>
      <trkpt lat="46.051" lon="-1.05262">
        <ele>51.65604</ele>
        <time>2022-12-21T11:49:36.337Z</time>
      </trkpt>
      <trkpt lat="46.05089" lon="-1.05253">
        <ele>51.600292</ele>
        <time>2022-12-21T11:49:39.331Z</time>
      </trkpt>
      <trkpt lat="46.05078" lon="-1.05244">
        <ele>51.542125</ele>
        <time>2022-12-21T11:49:42.335Z</time>
      </trkpt>
      <trkpt lat="46.05067" lon="-1.05236">
        <ele>51.476215</ele>
        <time>2022-12-21T11:49:45.318Z</time>
      </trkpt>
      <trkpt lat="46.05057" lon="-1.05227">
        <ele>51.416541</ele>
        <time>2022-12-21T11:49:48.333Z</time>
      </trkpt>
      <trkpt lat="46.05047" lon="-1.0522">
        <ele>51.357838</ele>
        <time>2022-12-21T11:49:51.333Z</time>
      </trkpt>
      <trkpt lat="46.05038" lon="-1.05212">
        <ele>51.30361</ele>
        <time>2022-12-21T11:49:54.338Z</time>
      </trkpt>
      <trkpt lat="46.05029" lon="-1.05205">
        <ele>51.245478</ele>
        <time>2022-12-21T11:49:57.337Z</time>
      </trkpt>
      <trkpt lat="46.05018" lon="-1.05196">
        <ele>51.183719</ele>
        <time>2022-12-21T11:50:00.311Z</time>
      </trkpt>
      <trkpt lat="46.05008" lon="-1.05188">
        <ele>51.121602</ele>
        <time>2022-12-21T11:50:03.338Z</time>
      </trkpt>
      <trkpt lat="46.04997" lon="-1.05179">
        <ele>51.053629</ele>
        <time>2022-12-21T11:50:06.330Z</time>
      </trkpt>
      <trkpt lat="46.04985" lon="-1.0517">
        <ele>50.986869</ele>
        <time>2022-12-21T11:50:09.337Z</time>
      </trkpt>
      <trkpt lat="46.04975" lon="-1.05162">
        <ele>50.922927</ele>
        <time>2022-12-21T11:50:12.338Z</time>
      </trkpt>
      <trkpt lat="46.04964" lon="-1.05153">
        <ele>50.8587</ele>
        <time>2022-12-21T11:50:15.331Z</time>
      </trkpt>
      <trkpt lat="46.04953" lon="-1.05145">
        <ele>50.791822</ele>
        <time>2022-12-21T11:50:18.333Z</time>
      </trkpt>
      <trkpt lat="46.04942" lon="-1.05137">
        <ele>50.730929</ele>
        <time>2022-12-21T11:50:21.331Z</time>
      </trkpt>
      <trkpt lat="46.04933" lon="-1.05129">
        <ele>50.672152</ele>
        <time>2022-12-21T11:50:24.317Z</time>
      </trkpt>
      <trkpt lat="46.04925" lon="-1.0512">
        <ele>50.621407</ele>
        <time>2022-12-21T11:50:27.313Z</time>
      </trkpt>
      <trkpt lat="46.04917" lon="-1.05112">
        <ele>50.532652</ele>
        <time>2022-12-21T11:50:30.336Z</time>
      </trkpt>
      <trkpt lat="46.04908" lon="-1.05102">
        <ele>50.41578</ele>
        <time>2022-12-21T11:50:33.339Z</time>
      </trkpt>
      <trkpt lat="46.049" lon="-1.0509">
        <ele>50.293595</ele>
        <time>2022-12-21T11:50:36.336Z</time>
      </trkpt>
      <trkpt lat="46.04891" lon="-1.05078">
        <ele>50.166857</ele>
        <time>2022-12-21T11:50:39.337Z</time>
      </trkpt>
      <trkpt lat="46.04883" lon="-1.05065">
        <ele>50.038267</ele>
        <time>2022-12-21T11:50:42.334Z</time>
      </trkpt>
      <trkpt lat="46.04874" lon="-1.05054">
        <ele>49.917078</ele>
        <time>2022-12-21T11:50:45.323Z</time>
      </trkpt>
      <trkpt lat="46.04866" lon="-1.05045">
        <ele>49.80418</ele>
        <time>2022-12-21T11:50:48.315Z</time>
      </trkpt>
      <trkpt lat="46.04857" lon="-1.05036">
        <ele>49.691173</ele>
        <time>2022-12-21T11:50:51.335Z</time>
      </trkpt>
      <trkpt lat="46.04847" lon="-1.05028">
        <ele>49.576708</ele>
        <time>2022-12-21T11:50:54.329Z</time>
      </trkpt>
      <trkpt lat="46.04837" lon="-1.0502">
        <ele>49.44896</ele>
        <time>2022-12-21T11:50:57.336Z</time>
      </trkpt>
      <trkpt lat="46.04826" lon="-1.05012">
        <ele>49.325944</ele>
        <time>2022-12-21T11:51:00.327Z</time>
      </trkpt>
      <trkpt lat="46.04816" lon="-1.05003">
        <ele>49.198919</ele>
        <time>2022-12-21T11:51:03.338Z</time>
      </trkpt>
      <trkpt lat="46.04805" lon="-1.04994">
        <ele>49.067534</ele>
        <time>2022-12-21T11:51:06.335Z</time>
      </trkpt>
      <trkpt lat="46.04794" lon="-1.04983">
        <ele>48.92789</ele>
        <time>2022-12-21T11:51:09.335Z</time>
      </trkpt>
      <trkpt lat="46.04784" lon="-1.04975">
        <ele>48.807391</ele>
        <time>2022-12-21T11:51:12.336Z</time>
      </trkpt>
      <trkpt lat="46.04774" lon="-1.04967">
        <ele>48.729262</ele>
        <time>2022-12-21T11:51:15.328Z</time>
      </trkpt>
      <trkpt lat="46.04766" lon="-1.0496">
        <ele>48.775199</ele>
        <time>2022-12-21T11:51:18.337Z</time>
      </trkpt>
      <trkpt lat="46.04758" lon="-1.04953">
        <ele>48.824339</ele>
        <time>2022-12-21T11:51:21.336Z</time>
      </trkpt>
      <trkpt lat="46.04749" lon="-1.04945">
        <ele>48.873479</ele>
        <time>2022-12-21T11:51:24.330Z</time>
      </trkpt>
      <trkpt lat="46.04742" lon="-1.04938">
        <ele>48.920301</ele>
        <time>2022-12-21T11:51:27.334Z</time>
      </trkpt>
      <trkpt lat="46.04732" lon="-1.0493">
        <ele>48.975708</ele>
        <time>2022-12-21T11:51:32.332Z</time>
      </trkpt>
      <trkpt lat="46.04721" lon="-1.04922">
        <ele>49.035652</ele>
        <time>2022-12-21T11:51:36.311Z</time>
      </trkpt>
      <trkpt lat="46.04712" lon="-1.04916">
        <ele>49.086304</ele>
        <time>2022-12-21T11:51:39.331Z</time>
      </trkpt>
      <trkpt lat="46.04702" lon="-1.04908">
        <ele>49.142048</ele>
        <time>2022-12-21T11:51:42.334Z</time>
      </trkpt>
      <trkpt lat="46.04692" lon="-1.049">
        <ele>49.199005</ele>
        <time>2022-12-21T11:51:45.330Z</time>
      </trkpt>
      <trkpt lat="46.04682" lon="-1.04892">
        <ele>49.25622</ele>
        <time>2022-12-21T11:51:48.334Z</time>
      </trkpt>
      <trkpt lat="46.04672" lon="-1.04883">
        <ele>49.317329</ele>
        <time>2022-12-21T11:51:51.332Z</time>
      </trkpt>
      <trkpt lat="46.04662" lon="-1.04876">
        <ele>49.371568</ele>
        <time>2022-12-21T11:51:54.332Z</time>
      </trkpt>
      <trkpt lat="46.04653" lon="-1.04868">
        <ele>49.423914</ele>
        <time>2022-12-21T11:51:57.332Z</time>
      </trkpt>
      <trkpt lat="46.04644" lon="-1.0486">
        <ele>49.475442</ele>
        <time>2022-12-21T11:52:00.322Z</time>
      </trkpt>
      <trkpt lat="46.04634" lon="-1.04853">
        <ele>49.530879</ele>
        <time>2022-12-21T11:52:03.332Z</time>
      </trkpt>
      <trkpt lat="46.04624" lon="-1.04845">
        <ele>49.586486</ele>
        <time>2022-12-21T11:52:06.341Z</time>
      </trkpt>
      <trkpt lat="46.04614" lon="-1.04837">
        <ele>49.622086</ele>
        <time>2022-12-21T11:52:09.330Z</time>
      </trkpt>
      <trkpt lat="46.04604" lon="-1.04828">
        <ele>49.641436</ele>
        <time>2022-12-21T11:52:12.334Z</time>
      </trkpt>
      <trkpt lat="46.04594" lon="-1.04821">
        <ele>49.65873</ele>
        <time>2022-12-21T11:52:15.325Z</time>
      </trkpt>
      <trkpt lat="46.04585" lon="-1.04814">
        <ele>49.674996</ele>
        <time>2022-12-21T11:52:18.318Z</time>
      </trkpt>
      <trkpt lat="46.04576" lon="-1.04806">
        <ele>49.69214</ele>
        <time>2022-12-21T11:52:21.313Z</time>
      </trkpt>
      <trkpt lat="46.04567" lon="-1.04799">
        <ele>49.709279</ele>
        <time>2022-12-21T11:52:24.308Z</time>
      </trkpt>
      <trkpt lat="46.04557" lon="-1.04791">
        <ele>49.727052</ele>
        <time>2022-12-21T11:52:27.335Z</time>
      </trkpt>
      <trkpt lat="46.04548" lon="-1.04784">
        <ele>49.743837</ele>
        <time>2022-12-21T11:52:30.335Z</time>
      </trkpt>
      <trkpt lat="46.0454" lon="-1.04777">
        <ele>49.758777</ele>
        <time>2022-12-21T11:52:33.337Z</time>
      </trkpt>
      <trkpt lat="46.04529" lon="-1.04769">
        <ele>49.77794</ele>
        <time>2022-12-21T11:52:37.334Z</time>
      </trkpt>
      <trkpt lat="46.0452" lon="-1.04762">
        <ele>49.794502</ele>
        <time>2022-12-21T11:52:40.337Z</time>
      </trkpt>
      <trkpt lat="46.04512" lon="-1.04753">
        <ele>49.811276</ele>
        <time>2022-12-21T11:52:43.337Z</time>
      </trkpt>
      <trkpt lat="46.04503" lon="-1.04746">
        <ele>49.827091</ele>
        <time>2022-12-21T11:52:46.324Z</time>
      </trkpt>
      <trkpt lat="46.04495" lon="-1.04739">
        <ele>49.842048</ele>
        <time>2022-12-21T11:52:49.322Z</time>
      </trkpt>
      <trkpt lat="46.04487" lon="-1.04731">
        <ele>49.857905</ele>
        <time>2022-12-21T11:52:52.336Z</time>
      </trkpt>
      <trkpt lat="46.04478" lon="-1.04723">
        <ele>49.87501</ele>
        <time>2022-12-21T11:52:56.332Z</time>
      </trkpt>
      <trkpt lat="46.04469" lon="-1.04715">
        <ele>49.892352</ele>
        <time>2022-12-21T11:53:01.333Z</time>
      </trkpt>
      <trkpt lat="46.0446" lon="-1.04709">
        <ele>49.898412</ele>
        <time>2022-12-21T11:53:06.335Z</time>
      </trkpt>
      <trkpt lat="46.04455" lon="-1.04698">
        <ele>49.89539</ele>
        <time>2022-12-21T11:53:14.319Z</time>
      </trkpt>
      <trkpt lat="46.04457" lon="-1.04698">
        <ele>49.894708</ele>
        <time>2022-12-21T11:54:18.234Z</time>
      </trkpt>
      <trkpt lat="46.04444" lon="-1.04693">
        <ele>49.890388</ele>
        <time>2022-12-21T12:15:38.342Z</time>
      </trkpt>
      <trkpt lat="46.04435" lon="-1.04687">
        <ele>49.887295</ele>
        <time>2022-12-21T12:15:42.343Z</time>
      </trkpt>
      <trkpt lat="46.04427" lon="-1.04681">
        <ele>49.884326</ele>
        <time>2022-12-21T12:15:46.326Z</time>
      </trkpt>
      <trkpt lat="46.04418" lon="-1.04677">
        <ele>49.881097</ele>
        <time>2022-12-21T12:15:49.326Z</time>
      </trkpt>
      <trkpt lat="46.04409" lon="-1.04671">
        <ele>49.878082</ele>
        <time>2022-12-21T12:15:52.337Z</time>
      </trkpt>
      <trkpt lat="46.044" lon="-1.04664">
        <ele>49.874919</ele>
        <time>2022-12-21T12:15:55.344Z</time>
      </trkpt>
      <trkpt lat="46.04391" lon="-1.04655">
        <ele>49.871132</ele>
        <time>2022-12-21T12:15:59.340Z</time>
      </trkpt>
      <trkpt lat="46.04383" lon="-1.04648">
        <ele>49.868135</ele>
        <time>2022-12-21T12:16:02.341Z</time>
      </trkpt>
      <trkpt lat="46.04375" lon="-1.0464">
        <ele>49.865011</ele>
        <time>2022-12-21T12:16:05.339Z</time>
      </trkpt>
      <trkpt lat="46.04366" lon="-1.04633">
        <ele>49.861877</ele>
        <time>2022-12-21T12:16:08.339Z</time>
      </trkpt>
      <trkpt lat="46.04357" lon="-1.04629">
        <ele>49.858838</ele>
        <time>2022-12-21T12:16:11.322Z</time>
      </trkpt>
      <trkpt lat="46.04349" lon="-1.04623">
        <ele>49.855919</ele>
        <time>2022-12-21T12:16:14.331Z</time>
      </trkpt>
      <trkpt lat="46.04338" lon="-1.04625">
        <ele>49.852485</ele>
        <time>2022-12-21T12:16:18.332Z</time>
      </trkpt>
      <trkpt lat="46.04329" lon="-1.04628">
        <ele>49.849502</ele>
        <time>2022-12-21T12:16:21.327Z</time>
      </trkpt>
      <trkpt lat="46.0432" lon="-1.04632">
        <ele>49.846341</ele>
        <time>2022-12-21T12:16:24.321Z</time>
      </trkpt>
      <trkpt lat="46.04311" lon="-1.04637">
        <ele>49.843218</ele>
        <time>2022-12-21T12:16:27.338Z</time>
      </trkpt>
      <trkpt lat="46.04302" lon="-1.04643">
        <ele>49.776843</ele>
        <time>2022-12-21T12:16:30.343Z</time>
      </trkpt>
      <trkpt lat="46.04294" lon="-1.04649">
        <ele>49.686312</ele>
        <time>2022-12-21T12:16:33.341Z</time>
      </trkpt>
      <trkpt lat="46.04285" lon="-1.04655">
        <ele>49.591923</ele>
        <time>2022-12-21T12:16:36.339Z</time>
      </trkpt>
      <trkpt lat="46.04276" lon="-1.0466">
        <ele>49.495823</ele>
        <time>2022-12-21T12:16:39.342Z</time>
      </trkpt>
      <trkpt lat="46.04267" lon="-1.04666">
        <ele>49.400808</ele>
        <time>2022-12-21T12:16:42.344Z</time>
      </trkpt>
      <trkpt lat="46.04257" lon="-1.0467">
        <ele>49.306084</ele>
        <time>2022-12-21T12:16:45.333Z</time>
      </trkpt>
      <trkpt lat="46.04248" lon="-1.04672">
        <ele>49.213831</ele>
        <time>2022-12-21T12:16:48.330Z</time>
      </trkpt>
      <trkpt lat="46.04239" lon="-1.04668">
        <ele>49.118187</ele>
        <time>2022-12-21T12:16:51.339Z</time>
      </trkpt>
      <trkpt lat="46.04231" lon="-1.04658">
        <ele>49.020987</ele>
        <time>2022-12-21T12:16:54.333Z</time>
      </trkpt>
      <trkpt lat="46.04227" lon="-1.04644">
        <ele>48.916978</ele>
        <time>2022-12-21T12:16:57.322Z</time>
      </trkpt>
      <trkpt lat="46.04224" lon="-1.04629">
        <ele>48.810748</ele>
        <time>2022-12-21T12:17:01.317Z</time>
      </trkpt>
      <trkpt lat="46.04219" lon="-1.04612">
        <ele>48.686568</ele>
        <time>2022-12-21T12:17:05.323Z</time>
      </trkpt>
      <trkpt lat="46.04218" lon="-1.04594">
        <ele>48.568026</ele>
        <time>2022-12-21T12:17:08.339Z</time>
      </trkpt>
      <trkpt lat="46.04218" lon="-1.04578">
        <ele>48.457282</ele>
        <time>2022-12-21T12:17:11.332Z</time>
      </trkpt>
      <trkpt lat="46.04219" lon="-1.04562">
        <ele>48.3468</ele>
        <time>2022-12-21T12:17:14.342Z</time>
      </trkpt>
      <trkpt lat="46.0422" lon="-1.04546">
        <ele>48.239254</ele>
        <time>2022-12-21T12:17:17.340Z</time>
      </trkpt>
      <trkpt lat="46.04222" lon="-1.04532">
        <ele>48.143019</ele>
        <time>2022-12-21T12:17:20.340Z</time>
      </trkpt>
      <trkpt lat="46.04222" lon="-1.04515">
        <ele>48.06429</ele>
        <time>2022-12-21T12:17:24.324Z</time>
      </trkpt>
      <trkpt lat="46.04224" lon="-1.04499">
        <ele>48.009906</ele>
        <time>2022-12-21T12:17:28.317Z</time>
      </trkpt>
      <trkpt lat="46.04226" lon="-1.04484">
        <ele>47.958613</ele>
        <time>2022-12-21T12:17:31.339Z</time>
      </trkpt>
      <trkpt lat="46.04227" lon="-1.04467">
        <ele>47.904089</ele>
        <time>2022-12-21T12:17:34.342Z</time>
      </trkpt>
      <trkpt lat="46.04228" lon="-1.04451">
        <ele>47.852861</ele>
        <time>2022-12-21T12:17:37.317Z</time>
      </trkpt>
      <trkpt lat="46.0423" lon="-1.04438">
        <ele>47.807437</ele>
        <time>2022-12-21T12:17:40.341Z</time>
      </trkpt>
      <trkpt lat="46.04231" lon="-1.04421">
        <ele>47.753054</ele>
        <time>2022-12-21T12:17:43.344Z</time>
      </trkpt>
      <trkpt lat="46.04233" lon="-1.04405">
        <ele>47.699028</ele>
        <time>2022-12-21T12:17:46.321Z</time>
      </trkpt>
      <trkpt lat="46.04235" lon="-1.0439">
        <ele>47.649344</ele>
        <time>2022-12-21T12:17:49.341Z</time>
      </trkpt>
      <trkpt lat="46.04236" lon="-1.04375">
        <ele>47.60071</ele>
        <time>2022-12-21T12:17:52.340Z</time>
      </trkpt>
      <trkpt lat="46.04237" lon="-1.0436">
        <ele>47.549857</ele>
        <time>2022-12-21T12:17:55.350Z</time>
      </trkpt>
      <trkpt lat="46.04239" lon="-1.04343">
        <ele>47.494608</ele>
        <time>2022-12-21T12:17:58.343Z</time>
      </trkpt>
      <trkpt lat="46.04241" lon="-1.04328">
        <ele>47.444886</ele>
        <time>2022-12-21T12:18:01.329Z</time>
      </trkpt>
      <trkpt lat="46.04243" lon="-1.04315">
        <ele>47.401207</ele>
        <time>2022-12-21T12:18:04.340Z</time>
      </trkpt>
      <trkpt lat="46.04244" lon="-1.04298">
        <ele>47.344872</ele>
        <time>2022-12-21T12:18:08.332Z</time>
      </trkpt>
      <trkpt lat="46.04244" lon="-1.04283">
        <ele>47.29787</ele>
        <time>2022-12-21T12:18:11.351Z</time>
      </trkpt>
      <trkpt lat="46.04244" lon="-1.04267">
        <ele>47.251634</ele>
        <time>2022-12-21T12:18:14.339Z</time>
      </trkpt>
      <trkpt lat="46.04244" lon="-1.0425">
        <ele>47.331689</ele>
        <time>2022-12-21T12:18:17.357Z</time>
      </trkpt>
      <trkpt lat="46.04246" lon="-1.04235">
        <ele>47.405273</ele>
        <time>2022-12-21T12:18:20.340Z</time>
      </trkpt>
      <trkpt lat="46.04248" lon="-1.04219">
        <ele>47.482958</ele>
        <time>2022-12-21T12:18:23.342Z</time>
      </trkpt>
      <trkpt lat="46.0425" lon="-1.04202">
        <ele>47.563542</ele>
        <time>2022-12-21T12:18:26.321Z</time>
      </trkpt>
      <trkpt lat="46.04251" lon="-1.04186">
        <ele>47.640067</ele>
        <time>2022-12-21T12:18:29.342Z</time>
      </trkpt>
      <trkpt lat="46.04253" lon="-1.0417">
        <ele>47.718316</ele>
        <time>2022-12-21T12:18:32.339Z</time>
      </trkpt>
      <trkpt lat="46.04255" lon="-1.04153">
        <ele>47.799946</ele>
        <time>2022-12-21T12:18:35.322Z</time>
      </trkpt>
      <trkpt lat="46.04257" lon="-1.04137">
        <ele>47.877844</ele>
        <time>2022-12-21T12:18:38.339Z</time>
      </trkpt>
      <trkpt lat="46.04259" lon="-1.04121">
        <ele>47.954109</ele>
        <time>2022-12-21T12:18:41.343Z</time>
      </trkpt>
      <trkpt lat="46.0426" lon="-1.04104">
        <ele>48.035708</ele>
        <time>2022-12-21T12:18:44.340Z</time>
      </trkpt>
      <trkpt lat="46.04262" lon="-1.04084">
        <ele>48.127368</ele>
        <time>2022-12-21T12:18:47.342Z</time>
      </trkpt>
      <trkpt lat="46.04264" lon="-1.04067">
        <ele>48.212996</ele>
        <time>2022-12-21T12:18:50.341Z</time>
      </trkpt>
      <trkpt lat="46.04265" lon="-1.0405">
        <ele>48.292636</ele>
        <time>2022-12-21T12:18:53.334Z</time>
      </trkpt>
      <trkpt lat="46.04266" lon="-1.04033">
        <ele>48.373824</ele>
        <time>2022-12-21T12:18:56.343Z</time>
      </trkpt>
      <trkpt lat="46.04267" lon="-1.04017">
        <ele>48.448806</ele>
        <time>2022-12-21T12:18:59.319Z</time>
      </trkpt>
      <trkpt lat="46.04269" lon="-1.04003">
        <ele>48.506628</ele>
        <time>2022-12-21T12:19:02.344Z</time>
      </trkpt>
      <trkpt lat="46.0427" lon="-1.03987">
        <ele>48.570505</ele>
        <time>2022-12-21T12:19:06.343Z</time>
      </trkpt>
      <trkpt lat="46.04268" lon="-1.03974">
        <ele>48.621596</ele>
        <time>2022-12-21T12:19:09.322Z</time>
      </trkpt>
      <trkpt lat="46.04259" lon="-1.03966">
        <ele>48.675181</ele>
        <time>2022-12-21T12:19:12.324Z</time>
      </trkpt>
      <trkpt lat="46.0425" lon="-1.03971">
        <ele>48.729263</ele>
        <time>2022-12-21T12:19:15.326Z</time>
      </trkpt>
      <trkpt lat="46.04241" lon="-1.03977">
        <ele>48.787003</ele>
        <time>2022-12-21T12:19:18.340Z</time>
      </trkpt>
      <trkpt lat="46.04231" lon="-1.03984">
        <ele>48.845569</ele>
        <time>2022-12-21T12:19:21.328Z</time>
      </trkpt>
      <trkpt lat="46.04221" lon="-1.03991">
        <ele>48.905943</ele>
        <time>2022-12-21T12:19:24.342Z</time>
      </trkpt>
      <trkpt lat="46.04212" lon="-1.03999">
        <ele>48.964906</ele>
        <time>2022-12-21T12:19:27.340Z</time>
      </trkpt>
      <trkpt lat="46.04203" lon="-1.04008">
        <ele>49.026207</ele>
        <time>2022-12-21T12:19:30.341Z</time>
      </trkpt>
      <trkpt lat="46.04193" lon="-1.04017">
        <ele>49.090358</ele>
        <time>2022-12-21T12:19:33.339Z</time>
      </trkpt>
      <trkpt lat="46.04183" lon="-1.04027">
        <ele>49.15477</ele>
        <time>2022-12-21T12:19:36.339Z</time>
      </trkpt>
      <trkpt lat="46.04174" lon="-1.04037">
        <ele>49.217409</ele>
        <time>2022-12-21T12:19:39.342Z</time>
      </trkpt>
      <trkpt lat="46.04165" lon="-1.04047">
        <ele>49.278715</ele>
        <time>2022-12-21T12:19:42.340Z</time>
      </trkpt>
      <trkpt lat="46.04156" lon="-1.04057">
        <ele>49.341878</ele>
        <time>2022-12-21T12:19:45.334Z</time>
      </trkpt>
      <trkpt lat="46.04147" lon="-1.04067">
        <ele>49.40633</ele>
        <time>2022-12-21T12:19:48.337Z</time>
      </trkpt>
      <trkpt lat="46.04138" lon="-1.04077">
        <ele>49.468375</ele>
        <time>2022-12-21T12:19:51.328Z</time>
      </trkpt>
      <trkpt lat="46.0413" lon="-1.04086">
        <ele>49.578514</ele>
        <time>2022-12-21T12:19:54.343Z</time>
      </trkpt>
      <trkpt lat="46.04121" lon="-1.04096">
        <ele>49.695669</ele>
        <time>2022-12-21T12:19:57.332Z</time>
      </trkpt>
      <trkpt lat="46.04112" lon="-1.04106">
        <ele>49.818562</ele>
        <time>2022-12-21T12:20:00.345Z</time>
      </trkpt>
      <trkpt lat="46.04102" lon="-1.04116">
        <ele>49.941447</ele>
        <time>2022-12-21T12:20:03.346Z</time>
      </trkpt>
      <trkpt lat="46.04094" lon="-1.04125">
        <ele>50.057942</ele>
        <time>2022-12-21T12:20:06.338Z</time>
      </trkpt>
      <trkpt lat="46.04084" lon="-1.04134">
        <ele>50.174444</ele>
        <time>2022-12-21T12:20:09.345Z</time>
      </trkpt>
      <trkpt lat="46.04076" lon="-1.04143">
        <ele>50.28756</ele>
        <time>2022-12-21T12:20:12.347Z</time>
      </trkpt>
      <trkpt lat="46.04067" lon="-1.04152">
        <ele>50.394663</ele>
        <time>2022-12-21T12:20:15.338Z</time>
      </trkpt>
      <trkpt lat="46.04059" lon="-1.04161">
        <ele>50.504326</ele>
        <time>2022-12-21T12:20:18.338Z</time>
      </trkpt>
      <trkpt lat="46.0405" lon="-1.0417">
        <ele>50.619138</ele>
        <time>2022-12-21T12:20:21.343Z</time>
      </trkpt>
      <trkpt lat="46.04042" lon="-1.0418">
        <ele>50.73395</ele>
        <time>2022-12-21T12:20:24.320Z</time>
      </trkpt>
      <trkpt lat="46.04034" lon="-1.04187">
        <ele>50.831112</ele>
        <time>2022-12-21T12:20:27.344Z</time>
      </trkpt>
      <trkpt lat="46.04025" lon="-1.04195">
        <ele>50.94464</ele>
        <time>2022-12-21T12:20:31.328Z</time>
      </trkpt>
      <trkpt lat="46.04017" lon="-1.04203">
        <ele>51.044739</ele>
        <time>2022-12-21T12:20:34.326Z</time>
      </trkpt>
      <trkpt lat="46.04009" lon="-1.04211">
        <ele>51.149718</ele>
        <time>2022-12-21T12:20:37.347Z</time>
      </trkpt>
      <trkpt lat="46.04" lon="-1.04219">
        <ele>51.255709</ele>
        <time>2022-12-21T12:20:40.341Z</time>
      </trkpt>
      <trkpt lat="46.03992" lon="-1.04227">
        <ele>51.34818</ele>
        <time>2022-12-21T12:20:43.339Z</time>
      </trkpt>
      <trkpt lat="46.03984" lon="-1.04234">
        <ele>51.291588</ele>
        <time>2022-12-21T12:20:46.342Z</time>
      </trkpt>
      <trkpt lat="46.03977" lon="-1.04242">
        <ele>51.234975</ele>
        <time>2022-12-21T12:20:49.329Z</time>
      </trkpt>
      <trkpt lat="46.03969" lon="-1.0425">
        <ele>51.179605</ele>
        <time>2022-12-21T12:20:52.339Z</time>
      </trkpt>
      <trkpt lat="46.03961" lon="-1.04256">
        <ele>51.12449</ele>
        <time>2022-12-21T12:20:55.330Z</time>
      </trkpt>
      <trkpt lat="46.03953" lon="-1.04264">
        <ele>51.067166</ele>
        <time>2022-12-21T12:20:58.332Z</time>
      </trkpt>
      <trkpt lat="46.03945" lon="-1.04272">
        <ele>51.00809</ele>
        <time>2022-12-21T12:21:01.343Z</time>
      </trkpt>
      <trkpt lat="46.03937" lon="-1.04281">
        <ele>50.94711</ele>
        <time>2022-12-21T12:21:04.342Z</time>
      </trkpt>
      <trkpt lat="46.03929" lon="-1.04289">
        <ele>50.886365</ele>
        <time>2022-12-21T12:21:07.321Z</time>
      </trkpt>
      <trkpt lat="46.0392" lon="-1.04298">
        <ele>50.824407</ele>
        <time>2022-12-21T12:21:10.343Z</time>
      </trkpt>
      <trkpt lat="46.03912" lon="-1.04306">
        <ele>50.762578</ele>
        <time>2022-12-21T12:21:13.339Z</time>
      </trkpt>
      <trkpt lat="46.03904" lon="-1.04314">
        <ele>50.702575</ele>
        <time>2022-12-21T12:21:16.340Z</time>
      </trkpt>
      <trkpt lat="46.03896" lon="-1.04321">
        <ele>50.647922</ele>
        <time>2022-12-21T12:21:19.346Z</time>
      </trkpt>
      <trkpt lat="46.03888" lon="-1.0433">
        <ele>50.589625</ele>
        <time>2022-12-21T12:21:22.324Z</time>
      </trkpt>
      <trkpt lat="46.03879" lon="-1.04337">
        <ele>50.52951</ele>
        <time>2022-12-21T12:21:25.335Z</time>
      </trkpt>
      <trkpt lat="46.03871" lon="-1.04345">
        <ele>50.469258</ele>
        <time>2022-12-21T12:21:28.345Z</time>
      </trkpt>
      <trkpt lat="46.03863" lon="-1.04354">
        <ele>50.407533</ele>
        <time>2022-12-21T12:21:31.344Z</time>
      </trkpt>
      <trkpt lat="46.03855" lon="-1.04363">
        <ele>50.344111</ele>
        <time>2022-12-21T12:21:34.340Z</time>
      </trkpt>
      <trkpt lat="46.03846" lon="-1.04372">
        <ele>50.280932</ele>
        <time>2022-12-21T12:21:37.343Z</time>
      </trkpt>
      <trkpt lat="46.03837" lon="-1.04381">
        <ele>50.37676</ele>
        <time>2022-12-21T12:21:40.341Z</time>
      </trkpt>
      <trkpt lat="46.03828" lon="-1.0439">
        <ele>50.503249</ele>
        <time>2022-12-21T12:21:43.338Z</time>
      </trkpt>
      <trkpt lat="46.0382" lon="-1.044">
        <ele>50.632569</ele>
        <time>2022-12-21T12:21:46.330Z</time>
      </trkpt>
      <trkpt lat="46.03811" lon="-1.0441">
        <ele>50.763304</ele>
        <time>2022-12-21T12:21:49.337Z</time>
      </trkpt>
      <trkpt lat="46.03802" lon="-1.0442">
        <ele>50.891976</ele>
        <time>2022-12-21T12:21:52.327Z</time>
      </trkpt>
      <trkpt lat="46.03794" lon="-1.0443">
        <ele>51.019238</ele>
        <time>2022-12-21T12:21:55.338Z</time>
      </trkpt>
      <trkpt lat="46.03785" lon="-1.04439">
        <ele>51.144313</ele>
        <time>2022-12-21T12:21:58.334Z</time>
      </trkpt>
      <trkpt lat="46.03776" lon="-1.04449">
        <ele>51.273369</ele>
        <time>2022-12-21T12:22:01.336Z</time>
      </trkpt>
      <trkpt lat="46.03767" lon="-1.0446">
        <ele>51.40961</ele>
        <time>2022-12-21T12:22:04.342Z</time>
      </trkpt>
      <trkpt lat="46.03758" lon="-1.04471">
        <ele>51.547262</ele>
        <time>2022-12-21T12:22:07.339Z</time>
      </trkpt>
      <trkpt lat="46.03749" lon="-1.04482">
        <ele>51.685613</ele>
        <time>2022-12-21T12:22:10.356Z</time>
      </trkpt>
      <trkpt lat="46.0374" lon="-1.04492">
        <ele>51.816734</ele>
        <time>2022-12-21T12:22:13.345Z</time>
      </trkpt>
      <trkpt lat="46.03732" lon="-1.04502">
        <ele>51.944777</ele>
        <time>2022-12-21T12:22:16.331Z</time>
      </trkpt>
      <trkpt lat="46.03723" lon="-1.04511">
        <ele>52.07455</ele>
        <time>2022-12-21T12:22:19.340Z</time>
      </trkpt>
      <trkpt lat="46.03713" lon="-1.04521">
        <ele>52.211045</ele>
        <time>2022-12-21T12:22:22.334Z</time>
      </trkpt>
      <trkpt lat="46.03703" lon="-1.0453">
        <ele>52.351787</ele>
        <time>2022-12-21T12:22:25.318Z</time>
      </trkpt>
      <trkpt lat="46.03694" lon="-1.04538">
        <ele>52.325756</ele>
        <time>2022-12-21T12:22:28.337Z</time>
      </trkpt>
      <trkpt lat="46.03684" lon="-1.04546">
        <ele>52.287533</ele>
        <time>2022-12-21T12:22:31.339Z</time>
      </trkpt>
      <trkpt lat="46.03675" lon="-1.04552">
        <ele>52.249488</ele>
        <time>2022-12-21T12:22:34.333Z</time>
      </trkpt>
      <trkpt lat="46.03666" lon="-1.04559">
        <ele>52.211443</ele>
        <time>2022-12-21T12:22:37.342Z</time>
      </trkpt>
      <trkpt lat="46.03656" lon="-1.04566">
        <ele>52.171635</ele>
        <time>2022-12-21T12:22:40.324Z</time>
      </trkpt>
      <trkpt lat="46.03646" lon="-1.04572">
        <ele>52.130613</ele>
        <time>2022-12-21T12:22:43.345Z</time>
      </trkpt>
      <trkpt lat="46.03636" lon="-1.04579">
        <ele>52.089406</ele>
        <time>2022-12-21T12:22:46.350Z</time>
      </trkpt>
      <trkpt lat="46.03626" lon="-1.04585">
        <ele>52.049892</ele>
        <time>2022-12-21T12:22:49.340Z</time>
      </trkpt>
      <trkpt lat="46.03616" lon="-1.0459">
        <ele>52.011222</ele>
        <time>2022-12-21T12:22:52.343Z</time>
      </trkpt>
      <trkpt lat="46.03606" lon="-1.04594">
        <ele>51.973276</ele>
        <time>2022-12-21T12:22:55.340Z</time>
      </trkpt>
      <trkpt lat="46.03596" lon="-1.04598">
        <ele>51.934903</ele>
        <time>2022-12-21T12:22:58.342Z</time>
      </trkpt>
      <trkpt lat="46.03585" lon="-1.04601">
        <ele>51.89541</ele>
        <time>2022-12-21T12:23:01.333Z</time>
      </trkpt>
      <trkpt lat="46.03575" lon="-1.04606">
        <ele>51.856032</ele>
        <time>2022-12-21T12:23:04.341Z</time>
      </trkpt>
      <trkpt lat="46.03565" lon="-1.04611">
        <ele>51.816459</ele>
        <time>2022-12-21T12:23:07.342Z</time>
      </trkpt>
      <trkpt lat="46.03554" lon="-1.04615">
        <ele>51.775956</ele>
        <time>2022-12-21T12:23:10.339Z</time>
      </trkpt>
      <trkpt lat="46.03543" lon="-1.04618">
        <ele>51.734974</ele>
        <time>2022-12-21T12:23:13.344Z</time>
      </trkpt>
      <trkpt lat="46.03533" lon="-1.04623">
        <ele>51.696962</ele>
        <time>2022-12-21T12:23:16.340Z</time>
      </trkpt>
      <trkpt lat="46.03523" lon="-1.04628">
        <ele>51.666516</ele>
        <time>2022-12-21T12:23:19.351Z</time>
      </trkpt>
      <trkpt lat="46.03512" lon="-1.04632">
        <ele>51.636296</ele>
        <time>2022-12-21T12:23:22.339Z</time>
      </trkpt>
      <trkpt lat="46.03502" lon="-1.04636">
        <ele>51.607374</ele>
        <time>2022-12-21T12:23:25.343Z</time>
      </trkpt>
      <trkpt lat="46.03493" lon="-1.0464">
        <ele>51.581216</ele>
        <time>2022-12-21T12:23:28.323Z</time>
      </trkpt>
      <trkpt lat="46.03483" lon="-1.04644">
        <ele>51.550455</ele>
        <time>2022-12-21T12:23:32.339Z</time>
      </trkpt>
      <trkpt lat="46.03474" lon="-1.04647">
        <ele>51.524729</ele>
        <time>2022-12-21T12:23:35.336Z</time>
      </trkpt>
      <trkpt lat="46.03463" lon="-1.04652">
        <ele>51.491359</ele>
        <time>2022-12-21T12:23:39.347Z</time>
      </trkpt>
      <trkpt lat="46.03453" lon="-1.04655">
        <ele>51.464034</ele>
        <time>2022-12-21T12:23:42.328Z</time>
      </trkpt>
      <trkpt lat="46.03444" lon="-1.04658">
        <ele>51.436944</ele>
        <time>2022-12-21T12:23:45.342Z</time>
      </trkpt>
      <trkpt lat="46.03435" lon="-1.04663">
        <ele>51.409371</ele>
        <time>2022-12-21T12:23:48.349Z</time>
      </trkpt>
      <trkpt lat="46.03425" lon="-1.04667">
        <ele>51.380558</ele>
        <time>2022-12-21T12:23:51.354Z</time>
      </trkpt>
      <trkpt lat="46.03415" lon="-1.04671">
        <ele>51.350174</ele>
        <time>2022-12-21T12:23:54.322Z</time>
      </trkpt>
      <trkpt lat="46.03404" lon="-1.04675">
        <ele>51.319939</ele>
        <time>2022-12-21T12:23:57.330Z</time>
      </trkpt>
      <trkpt lat="46.03394" lon="-1.0468">
        <ele>51.289281</ele>
        <time>2022-12-21T12:24:00.340Z</time>
      </trkpt>
      <trkpt lat="46.03383" lon="-1.04684">
        <ele>51.256515</ele>
        <time>2022-12-21T12:24:03.340Z</time>
      </trkpt>
      <trkpt lat="46.03371" lon="-1.04689">
        <ele>51.223967</ele>
        <time>2022-12-21T12:24:06.334Z</time>
      </trkpt>
      <trkpt lat="46.03361" lon="-1.04693">
        <ele>51.190208</ele>
        <time>2022-12-21T12:24:09.351Z</time>
      </trkpt>
      <trkpt lat="46.03352" lon="-1.04696">
        <ele>51.115198</ele>
        <time>2022-12-21T12:24:12.336Z</time>
      </trkpt>
      <trkpt lat="46.03342" lon="-1.04699">
        <ele>51.028115</ele>
        <time>2022-12-21T12:24:16.341Z</time>
      </trkpt>
      <trkpt lat="46.03331" lon="-1.04704">
        <ele>50.934122</ele>
        <time>2022-12-21T12:24:20.320Z</time>
      </trkpt>
      <trkpt lat="46.03322" lon="-1.04708">
        <ele>50.861</ele>
        <time>2022-12-21T12:24:23.336Z</time>
      </trkpt>
      <trkpt lat="46.03314" lon="-1.04712">
        <ele>50.786559</ele>
        <time>2022-12-21T12:24:26.321Z</time>
      </trkpt>
      <trkpt lat="46.03304" lon="-1.04716">
        <ele>50.707166</ele>
        <time>2022-12-21T12:24:29.337Z</time>
      </trkpt>
      <trkpt lat="46.03295" lon="-1.0472">
        <ele>50.628673</ele>
        <time>2022-12-21T12:24:32.329Z</time>
      </trkpt>
      <trkpt lat="46.03285" lon="-1.04725">
        <ele>50.544388</ele>
        <time>2022-12-21T12:24:35.321Z</time>
      </trkpt>
      <trkpt lat="46.03275" lon="-1.04729">
        <ele>50.459667</ele>
        <time>2022-12-21T12:24:38.337Z</time>
      </trkpt>
      <trkpt lat="46.03265" lon="-1.04733">
        <ele>50.372862</ele>
        <time>2022-12-21T12:24:41.326Z</time>
      </trkpt>
      <trkpt lat="46.03256" lon="-1.04735">
        <ele>50.295284</ele>
        <time>2022-12-21T12:24:44.339Z</time>
      </trkpt>
      <trkpt lat="46.03247" lon="-1.04739">
        <ele>50.219341</ele>
        <time>2022-12-21T12:24:47.337Z</time>
      </trkpt>
      <trkpt lat="46.03238" lon="-1.04743">
        <ele>50.140479</ele>
        <time>2022-12-21T12:24:50.341Z</time>
      </trkpt>
      <trkpt lat="46.03228" lon="-1.04747">
        <ele>50.056086</ele>
        <time>2022-12-21T12:24:53.343Z</time>
      </trkpt>
      <trkpt lat="46.03218" lon="-1.04753">
        <ele>49.969147</ele>
        <time>2022-12-21T12:24:56.337Z</time>
      </trkpt>
      <trkpt lat="46.03207" lon="-1.04756">
        <ele>49.88141</ele>
        <time>2022-12-21T12:24:59.342Z</time>
      </trkpt>
      <trkpt lat="46.03198" lon="-1.0476">
        <ele>49.801419</ele>
        <time>2022-12-21T12:25:02.335Z</time>
      </trkpt>
      <trkpt lat="46.03186" lon="-1.04765">
        <ele>49.725211</ele>
        <time>2022-12-21T12:25:06.340Z</time>
      </trkpt>
      <trkpt lat="46.03175" lon="-1.0477">
        <ele>49.728728</ele>
        <time>2022-12-21T12:25:10.338Z</time>
      </trkpt>
      <trkpt lat="46.03167" lon="-1.04774">
        <ele>49.731376</ele>
        <time>2022-12-21T12:25:13.341Z</time>
      </trkpt>
      <trkpt lat="46.03157" lon="-1.04777">
        <ele>49.734175</ele>
        <time>2022-12-21T12:25:16.340Z</time>
      </trkpt>
      <trkpt lat="46.03148" lon="-1.04781">
        <ele>49.736942</ele>
        <time>2022-12-21T12:25:19.342Z</time>
      </trkpt>
      <trkpt lat="46.03137" lon="-1.04785">
        <ele>49.740323</ele>
        <time>2022-12-21T12:25:23.344Z</time>
      </trkpt>
      <trkpt lat="46.03127" lon="-1.04786">
        <ele>49.743329</ele>
        <time>2022-12-21T12:25:27.332Z</time>
      </trkpt>
      <trkpt lat="46.03117" lon="-1.04791">
        <ele>49.746301</ele>
        <time>2022-12-21T12:25:31.324Z</time>
      </trkpt>
      <trkpt lat="46.03106" lon="-1.04795">
        <ele>49.749724</ele>
        <time>2022-12-21T12:25:35.330Z</time>
      </trkpt>
      <trkpt lat="46.03097" lon="-1.04798">
        <ele>49.75252</ele>
        <time>2022-12-21T12:25:38.320Z</time>
      </trkpt>
      <trkpt lat="46.03087" lon="-1.04801">
        <ele>49.755405</ele>
        <time>2022-12-21T12:25:41.332Z</time>
      </trkpt>
      <trkpt lat="46.03077" lon="-1.04803">
        <ele>49.758488</ele>
        <time>2022-12-21T12:25:44.322Z</time>
      </trkpt>
      <trkpt lat="46.03066" lon="-1.04805">
        <ele>49.761547</ele>
        <time>2022-12-21T12:25:47.344Z</time>
      </trkpt>
      <trkpt lat="46.03057" lon="-1.04807">
        <ele>49.764357</ele>
        <time>2022-12-21T12:25:50.338Z</time>
      </trkpt>
      <trkpt lat="46.03047" lon="-1.04809">
        <ele>49.767212</ele>
        <time>2022-12-21T12:25:53.352Z</time>
      </trkpt>
      <trkpt lat="46.03037" lon="-1.04811">
        <ele>49.770216</ele>
        <time>2022-12-21T12:25:56.327Z</time>
      </trkpt>
      <trkpt lat="46.03027" lon="-1.04813">
        <ele>49.773291</ele>
        <time>2022-12-21T12:25:59.321Z</time>
      </trkpt>
      <trkpt lat="46.03016" lon="-1.04816">
        <ele>49.776444</ele>
        <time>2022-12-21T12:26:02.327Z</time>
      </trkpt>
      <trkpt lat="46.03006" lon="-1.04817">
        <ele>49.783454</ele>
        <time>2022-12-21T12:26:05.334Z</time>
      </trkpt>
      <trkpt lat="46.02996" lon="-1.04817">
        <ele>49.79293</ele>
        <time>2022-12-21T12:26:09.323Z</time>
      </trkpt>
      <trkpt lat="46.02985" lon="-1.04818">
        <ele>49.802686</ele>
        <time>2022-12-21T12:26:13.345Z</time>
      </trkpt>
      <trkpt lat="46.02976" lon="-1.04819">
        <ele>49.810867</ele>
        <time>2022-12-21T12:26:16.344Z</time>
      </trkpt>
      <trkpt lat="46.02966" lon="-1.0482">
        <ele>49.819303</ele>
        <time>2022-12-21T12:26:19.342Z</time>
      </trkpt>
      <trkpt lat="46.02957" lon="-1.04821">
        <ele>49.827618</ele>
        <time>2022-12-21T12:26:22.339Z</time>
      </trkpt>
      <trkpt lat="46.02947" lon="-1.04821">
        <ele>49.836476</ele>
        <time>2022-12-21T12:26:25.333Z</time>
      </trkpt>
      <trkpt lat="46.02937" lon="-1.04821">
        <ele>49.84578</ele>
        <time>2022-12-21T12:26:28.339Z</time>
      </trkpt>
      <trkpt lat="46.02927" lon="-1.0482">
        <ele>49.854721</ele>
        <time>2022-12-21T12:26:31.340Z</time>
      </trkpt>
      <trkpt lat="46.02915" lon="-1.0482">
        <ele>49.865373</ele>
        <time>2022-12-21T12:26:35.334Z</time>
      </trkpt>
      <trkpt lat="46.02906" lon="-1.0482">
        <ele>49.873701</ele>
        <time>2022-12-21T12:26:38.328Z</time>
      </trkpt>
      <trkpt lat="46.02895" lon="-1.0482">
        <ele>49.88309</ele>
        <time>2022-12-21T12:26:41.344Z</time>
      </trkpt>
      <trkpt lat="46.02885" lon="-1.04818">
        <ele>49.892351</ele>
        <time>2022-12-21T12:26:44.340Z</time>
      </trkpt>
      <trkpt lat="46.02874" lon="-1.04817">
        <ele>49.901761</ele>
        <time>2022-12-21T12:26:47.329Z</time>
      </trkpt>
      <trkpt lat="46.02864" lon="-1.04817">
        <ele>49.911237</ele>
        <time>2022-12-21T12:26:50.340Z</time>
      </trkpt>
      <trkpt lat="46.02853" lon="-1.04815">
        <ele>49.920867</ele>
        <time>2022-12-21T12:26:53.319Z</time>
      </trkpt>
      <trkpt lat="46.02843" lon="-1.04814">
        <ele>49.92995</ele>
        <time>2022-12-21T12:26:56.327Z</time>
      </trkpt>
      <trkpt lat="46.02833" lon="-1.04812">
        <ele>49.932032</ele>
        <time>2022-12-21T12:26:59.337Z</time>
      </trkpt>
      <trkpt lat="46.02823" lon="-1.0481">
        <ele>49.870131</ele>
        <time>2022-12-21T12:27:02.323Z</time>
      </trkpt>
      <trkpt lat="46.02813" lon="-1.04808">
        <ele>49.807389</ele>
        <time>2022-12-21T12:27:05.330Z</time>
      </trkpt>
      <trkpt lat="46.02802" lon="-1.04806">
        <ele>49.741015</ele>
        <time>2022-12-21T12:27:08.341Z</time>
      </trkpt>
      <trkpt lat="46.02792" lon="-1.04803">
        <ele>49.676015</ele>
        <time>2022-12-21T12:27:11.342Z</time>
      </trkpt>
      <trkpt lat="46.02782" lon="-1.04801">
        <ele>49.612847</ele>
        <time>2022-12-21T12:27:14.334Z</time>
      </trkpt>
      <trkpt lat="46.02773" lon="-1.04796">
        <ele>49.550679</ele>
        <time>2022-12-21T12:27:17.322Z</time>
      </trkpt>
      <trkpt lat="46.02763" lon="-1.04793">
        <ele>49.486468</ele>
        <time>2022-12-21T12:27:20.341Z</time>
      </trkpt>
      <trkpt lat="46.02753" lon="-1.0479">
        <ele>49.425047</ele>
        <time>2022-12-21T12:27:23.341Z</time>
      </trkpt>
      <trkpt lat="46.02743" lon="-1.04788">
        <ele>49.36592</ele>
        <time>2022-12-21T12:27:26.343Z</time>
      </trkpt>
      <trkpt lat="46.02734" lon="-1.04785">
        <ele>49.305191</ele>
        <time>2022-12-21T12:27:29.342Z</time>
      </trkpt>
      <trkpt lat="46.02724" lon="-1.04783">
        <ele>49.240543</ele>
        <time>2022-12-21T12:27:32.335Z</time>
      </trkpt>
      <trkpt lat="46.02714" lon="-1.04779">
        <ele>49.177041</ele>
        <time>2022-12-21T12:27:35.340Z</time>
      </trkpt>
      <trkpt lat="46.02703" lon="-1.04776">
        <ele>49.110743</ele>
        <time>2022-12-21T12:27:38.342Z</time>
      </trkpt>
      <trkpt lat="46.02693" lon="-1.04773">
        <ele>49.044281</ele>
        <time>2022-12-21T12:27:41.338Z</time>
      </trkpt>
      <trkpt lat="46.02682" lon="-1.0477">
        <ele>48.974245</ele>
        <time>2022-12-21T12:27:45.343Z</time>
      </trkpt>
      <trkpt lat="46.02672" lon="-1.04766">
        <ele>48.914674</ele>
        <time>2022-12-21T12:27:49.338Z</time>
      </trkpt>
      <trkpt lat="46.02662" lon="-1.04763">
        <ele>48.846128</ele>
        <time>2022-12-21T12:27:53.322Z</time>
      </trkpt>
      <trkpt lat="46.02653" lon="-1.0476">
        <ele>48.814964</ele>
        <time>2022-12-21T12:27:56.340Z</time>
      </trkpt>
      <trkpt lat="46.02643" lon="-1.04757">
        <ele>48.803482</ele>
        <time>2022-12-21T12:27:59.343Z</time>
      </trkpt>
      <trkpt lat="46.02635" lon="-1.04754">
        <ele>48.792271</ele>
        <time>2022-12-21T12:28:02.337Z</time>
      </trkpt>
      <trkpt lat="46.02625" lon="-1.04751">
        <ele>48.780702</ele>
        <time>2022-12-21T12:28:05.344Z</time>
      </trkpt>
      <trkpt lat="46.02616" lon="-1.04749">
        <ele>48.768893</ele>
        <time>2022-12-21T12:28:08.342Z</time>
      </trkpt>
      <trkpt lat="46.02604" lon="-1.04744">
        <ele>48.754084</ele>
        <time>2022-12-21T12:28:12.324Z</time>
      </trkpt>
      <trkpt lat="46.02594" lon="-1.04741">
        <ele>48.741777</ele>
        <time>2022-12-21T12:28:15.344Z</time>
      </trkpt>
      <trkpt lat="46.02585" lon="-1.04739">
        <ele>48.729799</ele>
        <time>2022-12-21T12:28:18.341Z</time>
      </trkpt>
      <trkpt lat="46.02574" lon="-1.04736">
        <ele>48.717132</ele>
        <time>2022-12-21T12:28:21.343Z</time>
      </trkpt>
      <trkpt lat="46.02564" lon="-1.04733">
        <ele>48.703833</ele>
        <time>2022-12-21T12:28:24.321Z</time>
      </trkpt>
      <trkpt lat="46.02553" lon="-1.04729">
        <ele>48.690452</ele>
        <time>2022-12-21T12:28:27.338Z</time>
      </trkpt>
      <trkpt lat="46.02542" lon="-1.04725">
        <ele>48.676233</ele>
        <time>2022-12-21T12:28:30.345Z</time>
      </trkpt>
      <trkpt lat="46.02531" lon="-1.04721">
        <ele>48.662538</ele>
        <time>2022-12-21T12:28:33.340Z</time>
      </trkpt>
      <trkpt lat="46.0252" lon="-1.04717">
        <ele>48.64922</ele>
        <time>2022-12-21T12:28:36.329Z</time>
      </trkpt>
      <trkpt lat="46.02509" lon="-1.04715">
        <ele>48.634943</ele>
        <time>2022-12-21T12:28:39.340Z</time>
      </trkpt>
      <trkpt lat="46.02497" lon="-1.04711">
        <ele>48.620037</ele>
        <time>2022-12-21T12:28:42.340Z</time>
      </trkpt>
      <trkpt lat="46.02486" lon="-1.04707">
        <ele>48.605728</ele>
        <time>2022-12-21T12:28:45.346Z</time>
      </trkpt>
      <trkpt lat="46.02474" lon="-1.04703">
        <ele>48.622069</ele>
        <time>2022-12-21T12:28:48.345Z</time>
      </trkpt>
      <trkpt lat="46.02464" lon="-1.04701">
        <ele>48.648544</ele>
        <time>2022-12-21T12:28:51.350Z</time>
      </trkpt>
      <trkpt lat="46.02454" lon="-1.04697">
        <ele>48.675385</ele>
        <time>2022-12-21T12:28:54.344Z</time>
      </trkpt>
      <trkpt lat="46.02443" lon="-1.04694">
        <ele>48.703898</ele>
        <time>2022-12-21T12:28:57.342Z</time>
      </trkpt>
      <trkpt lat="46.02433" lon="-1.0469">
        <ele>48.73323</ele>
        <time>2022-12-21T12:29:00.330Z</time>
      </trkpt>
      <trkpt lat="46.02422" lon="-1.04688">
        <ele>48.761258</ele>
        <time>2022-12-21T12:29:03.352Z</time>
      </trkpt>
      <trkpt lat="46.02411" lon="-1.04684">
        <ele>48.791042</ele>
        <time>2022-12-21T12:29:06.341Z</time>
      </trkpt>
      <trkpt lat="46.02399" lon="-1.04681">
        <ele>48.82104</ele>
        <time>2022-12-21T12:29:09.352Z</time>
      </trkpt>
      <trkpt lat="46.02388" lon="-1.04678">
        <ele>48.851853</ele>
        <time>2022-12-21T12:29:12.329Z</time>
      </trkpt>
      <trkpt lat="46.02377" lon="-1.04675">
        <ele>48.879493</ele>
        <time>2022-12-21T12:29:15.343Z</time>
      </trkpt>
      <trkpt lat="46.02366" lon="-1.04671">
        <ele>48.90919</ele>
        <time>2022-12-21T12:29:19.346Z</time>
      </trkpt>
      <trkpt lat="46.02358" lon="-1.04667">
        <ele>48.932538</ele>
        <time>2022-12-21T12:29:22.322Z</time>
      </trkpt>
      <trkpt lat="46.02347" lon="-1.04664">
        <ele>48.96022</ele>
        <time>2022-12-21T12:29:25.343Z</time>
      </trkpt>
      <trkpt lat="46.02336" lon="-1.04662">
        <ele>48.989664</ele>
        <time>2022-12-21T12:29:28.340Z</time>
      </trkpt>
      <trkpt lat="46.02325" lon="-1.04658">
        <ele>49.018649</ele>
        <time>2022-12-21T12:29:31.343Z</time>
      </trkpt>
      <trkpt lat="46.02313" lon="-1.04655">
        <ele>49.05068</ele>
        <time>2022-12-21T12:29:34.317Z</time>
      </trkpt>
      <trkpt lat="46.02301" lon="-1.0465">
        <ele>49.089655</ele>
        <time>2022-12-21T12:29:37.343Z</time>
      </trkpt>
      <trkpt lat="46.02289" lon="-1.04647">
        <ele>49.134737</ele>
        <time>2022-12-21T12:29:40.341Z</time>
      </trkpt>
      <trkpt lat="46.02279" lon="-1.04643">
        <ele>49.173863</ele>
        <time>2022-12-21T12:29:43.349Z</time>
      </trkpt>
      <trkpt lat="46.02269" lon="-1.0464">
        <ele>49.209734</ele>
        <time>2022-12-21T12:29:46.322Z</time>
      </trkpt>
      <trkpt lat="46.02258" lon="-1.04636">
        <ele>49.251138</ele>
        <time>2022-12-21T12:29:50.339Z</time>
      </trkpt>
      <trkpt lat="46.02249" lon="-1.04633">
        <ele>49.287089</ele>
        <time>2022-12-21T12:29:54.324Z</time>
      </trkpt>
      <trkpt lat="46.02238" lon="-1.0463">
        <ele>49.326989</ele>
        <time>2022-12-21T12:29:58.331Z</time>
      </trkpt>
      <trkpt lat="46.02227" lon="-1.04626">
        <ele>49.371293</ele>
        <time>2022-12-21T12:30:02.324Z</time>
      </trkpt>
      <trkpt lat="46.02217" lon="-1.04623">
        <ele>49.407768</ele>
        <time>2022-12-21T12:30:05.344Z</time>
      </trkpt>
      <trkpt lat="46.02208" lon="-1.0462">
        <ele>49.443406</ele>
        <time>2022-12-21T12:30:08.343Z</time>
      </trkpt>
      <trkpt lat="46.02198" lon="-1.04617">
        <ele>49.478165</ele>
        <time>2022-12-21T12:30:11.342Z</time>
      </trkpt>
      <trkpt lat="46.02187" lon="-1.04614">
        <ele>49.52169</ele>
        <time>2022-12-21T12:30:14.329Z</time>
      </trkpt>
      <trkpt lat="46.02175" lon="-1.0461">
        <ele>49.565377</ele>
        <time>2022-12-21T12:30:17.353Z</time>
      </trkpt>
      <trkpt lat="46.02165" lon="-1.04607">
        <ele>49.606781</ele>
        <time>2022-12-21T12:30:20.341Z</time>
      </trkpt>
      <trkpt lat="46.02154" lon="-1.04603">
        <ele>49.646332</ele>
        <time>2022-12-21T12:30:23.348Z</time>
      </trkpt>
      <trkpt lat="46.02145" lon="-1.04598">
        <ele>49.682706</ele>
        <time>2022-12-21T12:30:26.342Z</time>
      </trkpt>
      <trkpt lat="46.02136" lon="-1.04593">
        <ele>49.717531</ele>
        <time>2022-12-21T12:30:29.341Z</time>
      </trkpt>
      <trkpt lat="46.02128" lon="-1.04588">
        <ele>49.782319</ele>
        <time>2022-12-21T12:30:32.340Z</time>
      </trkpt>
      <trkpt lat="46.02119" lon="-1.04581">
        <ele>49.877736</ele>
        <time>2022-12-21T12:30:35.317Z</time>
      </trkpt>
      <trkpt lat="46.02111" lon="-1.04575">
        <ele>49.970637</ele>
        <time>2022-12-21T12:30:38.339Z</time>
      </trkpt>
      <trkpt lat="46.02101" lon="-1.04567">
        <ele>50.085485</ele>
        <time>2022-12-21T12:30:42.342Z</time>
      </trkpt>
      <trkpt lat="46.0209" lon="-1.04561">
        <ele>50.202358</ele>
        <time>2022-12-21T12:30:46.330Z</time>
      </trkpt>
      <trkpt lat="46.02079" lon="-1.04562">
        <ele>50.311167</ele>
        <time>2022-12-21T12:30:50.326Z</time>
      </trkpt>
      <trkpt lat="46.02074" lon="-1.04575">
        <ele>50.418202</ele>
        <time>2022-12-21T12:30:55.322Z</time>
      </trkpt>
      <trkpt lat="46.02073" lon="-1.04589">
        <ele>50.511764</ele>
        <time>2022-12-21T12:30:59.341Z</time>
      </trkpt>
      <trkpt lat="46.02073" lon="-1.04603">
        <ele>50.615023</ele>
        <time>2022-12-21T12:31:03.340Z</time>
      </trkpt>
      <trkpt lat="46.02071" lon="-1.04617">
        <ele>50.713531</ele>
        <time>2022-12-21T12:31:07.337Z</time>
      </trkpt>
      <trkpt lat="46.02069" lon="-1.0463">
        <ele>50.803501</ele>
        <time>2022-12-21T12:31:11.325Z</time>
      </trkpt>
      <trkpt lat="46.02063" lon="-1.04642">
        <ele>50.904757</ele>
        <time>2022-12-21T12:31:15.342Z</time>
      </trkpt>
      <trkpt lat="46.02055" lon="-1.0465">
        <ele>51.001886</ele>
        <time>2022-12-21T12:31:19.340Z</time>
      </trkpt>
      <trkpt lat="46.02046" lon="-1.04655">
        <ele>51.095174</ele>
        <time>2022-12-21T12:31:24.333Z</time>
      </trkpt>
      <trkpt lat="46.02038" lon="-1.04662">
        <ele>51.192162</ele>
        <time>2022-12-21T12:31:29.328Z</time>
      </trkpt>
      <trkpt lat="46.02035" lon="-1.04676">
        <ele>51.294217</ele>
        <time>2022-12-21T12:31:34.334Z</time>
      </trkpt>
      <trkpt lat="46.02035" lon="-1.04691">
        <ele>51.395562</ele>
        <time>2022-12-21T12:31:38.327Z</time>
      </trkpt>
      <trkpt lat="46.02037" lon="-1.04707">
        <ele>51.507123</ele>
        <time>2022-12-21T12:31:42.341Z</time>
      </trkpt>
      <trkpt lat="46.02038" lon="-1.0472">
        <ele>51.607179</ele>
        <time>2022-12-21T12:31:45.353Z</time>
      </trkpt>
      <trkpt lat="46.02039" lon="-1.04733">
        <ele>51.709626</ele>
        <time>2022-12-21T12:31:48.344Z</time>
      </trkpt>
      <trkpt lat="46.0204" lon="-1.04747">
        <ele>51.82422</ele>
        <time>2022-12-21T12:31:51.343Z</time>
      </trkpt>
      <trkpt lat="46.0204" lon="-1.04762">
        <ele>51.942873</ele>
        <time>2022-12-21T12:31:54.339Z</time>
      </trkpt>
      <trkpt lat="46.02033" lon="-1.04774">
        <ele>52.065636</ele>
        <time>2022-12-21T12:31:57.330Z</time>
      </trkpt>
      <trkpt lat="46.02024" lon="-1.0478">
        <ele>52.172446</ele>
        <time>2022-12-21T12:32:00.328Z</time>
      </trkpt>
      <trkpt lat="46.02013" lon="-1.04783">
        <ele>52.296934</ele>
        <time>2022-12-21T12:32:05.327Z</time>
      </trkpt>
      <trkpt lat="46.02004" lon="-1.04784">
        <ele>52.400897</ele>
        <time>2022-12-21T12:32:09.340Z</time>
      </trkpt>
      <trkpt lat="46.01994" lon="-1.04785">
        <ele>52.524573</ele>
        <time>2022-12-21T12:32:13.321Z</time>
      </trkpt>
      <trkpt lat="46.01982" lon="-1.04786">
        <ele>52.653298</ele>
        <time>2022-12-21T12:32:17.343Z</time>
      </trkpt>
      <trkpt lat="46.01973" lon="-1.04783">
        <ele>52.759407</ele>
        <time>2022-12-21T12:32:20.321Z</time>
      </trkpt>
      <trkpt lat="46.01964" lon="-1.04781">
        <ele>52.862855</ele>
        <time>2022-12-21T12:32:23.320Z</time>
      </trkpt>
      <trkpt lat="46.01953" lon="-1.04778">
        <ele>52.986466</ele>
        <time>2022-12-21T12:32:27.337Z</time>
      </trkpt>
      <trkpt lat="46.01943" lon="-1.04775">
        <ele>53.108255</ele>
        <time>2022-12-21T12:32:31.320Z</time>
      </trkpt>
      <trkpt lat="46.01932" lon="-1.04772">
        <ele>53.231963</ele>
        <time>2022-12-21T12:32:35.341Z</time>
      </trkpt>
      <trkpt lat="46.01922" lon="-1.04769">
        <ele>53.350949</ele>
        <time>2022-12-21T12:32:39.341Z</time>
      </trkpt>
      <trkpt lat="46.01911" lon="-1.04766">
        <ele>53.477785</ele>
        <time>2022-12-21T12:32:43.340Z</time>
      </trkpt>
      <trkpt lat="46.019" lon="-1.04763">
        <ele>53.600255</ele>
        <time>2022-12-21T12:32:48.324Z</time>
      </trkpt>
      <trkpt lat="46.01889" lon="-1.04763">
        <ele>53.688922</ele>
        <time>2022-12-21T12:32:52.322Z</time>
      </trkpt>
      <trkpt lat="46.01878" lon="-1.04764">
        <ele>53.781011</ele>
        <time>2022-12-21T12:32:56.341Z</time>
      </trkpt>
      <trkpt lat="46.01867" lon="-1.04766">
        <ele>53.873445</ele>
        <time>2022-12-21T12:33:00.323Z</time>
      </trkpt>
      <trkpt lat="46.01856" lon="-1.04768">
        <ele>53.965546</ele>
        <time>2022-12-21T12:33:04.322Z</time>
      </trkpt>
      <trkpt lat="46.01845" lon="-1.04772">
        <ele>54.057002</ele>
        <time>2022-12-21T12:33:08.341Z</time>
      </trkpt>
      <trkpt lat="46.01836" lon="-1.04776">
        <ele>54.134787</ele>
        <time>2022-12-21T12:33:12.340Z</time>
      </trkpt>
      <trkpt lat="46.01827" lon="-1.04781">
        <ele>54.218998</ele>
        <time>2022-12-21T12:33:16.343Z</time>
      </trkpt>
      <trkpt lat="46.01818" lon="-1.04788">
        <ele>54.305486</ele>
        <time>2022-12-21T12:33:20.350Z</time>
      </trkpt>
      <trkpt lat="46.01809" lon="-1.04795">
        <ele>54.390702</ele>
        <time>2022-12-21T12:33:24.341Z</time>
      </trkpt>
      <trkpt lat="46.018" lon="-1.04802">
        <ele>54.473727</ele>
        <time>2022-12-21T12:33:28.335Z</time>
      </trkpt>
      <trkpt lat="46.01792" lon="-1.0481">
        <ele>54.553748</ele>
        <time>2022-12-21T12:33:32.335Z</time>
      </trkpt>
      <trkpt lat="46.01784" lon="-1.04816">
        <ele>54.629702</ele>
        <time>2022-12-21T12:33:36.329Z</time>
      </trkpt>
      <trkpt lat="46.01774" lon="-1.04824">
        <ele>54.721758</ele>
        <time>2022-12-21T12:33:41.320Z</time>
      </trkpt>
      <trkpt lat="46.01766" lon="-1.04831">
        <ele>54.800234</ele>
        <time>2022-12-21T12:33:45.341Z</time>
      </trkpt>
      <trkpt lat="46.01758" lon="-1.04839">
        <ele>54.87763</ele>
        <time>2022-12-21T12:33:49.365Z</time>
      </trkpt>
      <trkpt lat="46.0175" lon="-1.04845">
        <ele>54.954185</ele>
        <time>2022-12-21T12:33:53.314Z</time>
      </trkpt>
      <trkpt lat="46.01742" lon="-1.04853">
        <ele>55.037494</ele>
        <time>2022-12-21T12:33:57.318Z</time>
      </trkpt>
      <trkpt lat="46.01733" lon="-1.04861">
        <ele>55.051944</ele>
        <time>2022-12-21T12:34:01.330Z</time>
      </trkpt>
      <trkpt lat="46.01724" lon="-1.04868">
        <ele>55.024725</ele>
        <time>2022-12-21T12:34:05.330Z</time>
      </trkpt>
      <trkpt lat="46.01714" lon="-1.04876">
        <ele>54.996442</ele>
        <time>2022-12-21T12:34:09.339Z</time>
      </trkpt>
      <trkpt lat="46.01704" lon="-1.04883">
        <ele>54.967541</ele>
        <time>2022-12-21T12:34:13.331Z</time>
      </trkpt>
      <trkpt lat="46.01696" lon="-1.0489">
        <ele>54.944217</ele>
        <time>2022-12-21T12:34:17.341Z</time>
      </trkpt>
      <trkpt lat="46.01688" lon="-1.04894">
        <ele>54.92123</ele>
        <time>2022-12-21T12:34:22.331Z</time>
      </trkpt>
      <trkpt lat="46.01679" lon="-1.04901">
        <ele>54.895233</ele>
        <time>2022-12-21T12:34:26.328Z</time>
      </trkpt>
      <trkpt lat="46.01671" lon="-1.04906">
        <ele>54.872008</ele>
        <time>2022-12-21T12:34:29.343Z</time>
      </trkpt>
      <trkpt lat="46.01662" lon="-1.04911">
        <ele>54.848589</ele>
        <time>2022-12-21T12:34:32.340Z</time>
      </trkpt>
      <trkpt lat="46.01651" lon="-1.04919">
        <ele>54.818072</ele>
        <time>2022-12-21T12:34:36.327Z</time>
      </trkpt>
      <trkpt lat="46.01642" lon="-1.04924">
        <ele>54.793534</ele>
        <time>2022-12-21T12:34:39.352Z</time>
      </trkpt>
      <trkpt lat="46.01633" lon="-1.04926">
        <ele>54.768469</ele>
        <time>2022-12-21T12:34:42.330Z</time>
      </trkpt>
      <trkpt lat="46.01623" lon="-1.04922">
        <ele>54.743152</ele>
        <time>2022-12-21T12:34:45.330Z</time>
      </trkpt>
      <trkpt lat="46.01613" lon="-1.04912">
        <ele>54.712422</ele>
        <time>2022-12-21T12:34:49.316Z</time>
      </trkpt>
      <trkpt lat="46.01604" lon="-1.04907">
        <ele>54.687787</ele>
        <time>2022-12-21T12:34:52.340Z</time>
      </trkpt>
      <trkpt lat="46.01595" lon="-1.04903">
        <ele>54.662074</ele>
        <time>2022-12-21T12:34:55.331Z</time>
      </trkpt>
      <trkpt lat="46.01585" lon="-1.049">
        <ele>54.636041</ele>
        <time>2022-12-21T12:34:58.333Z</time>
      </trkpt>
      <trkpt lat="46.01575" lon="-1.04897">
        <ele>54.610626</ele>
        <time>2022-12-21T12:35:01.340Z</time>
      </trkpt>
      <trkpt lat="46.01566" lon="-1.04894">
        <ele>54.586919</ele>
        <time>2022-12-21T12:35:04.341Z</time>
      </trkpt>
      <trkpt lat="46.01557" lon="-1.04892">
        <ele>54.564036</ele>
        <time>2022-12-21T12:35:07.340Z</time>
      </trkpt>
      <trkpt lat="46.01548" lon="-1.0489">
        <ele>54.541531</ele>
        <time>2022-12-21T12:35:10.356Z</time>
      </trkpt>
      <trkpt lat="46.01539" lon="-1.04888">
        <ele>54.518555</ele>
        <time>2022-12-21T12:35:13.342Z</time>
      </trkpt>
      <trkpt lat="46.0153" lon="-1.04886">
        <ele>54.495056</ele>
        <time>2022-12-21T12:35:16.329Z</time>
      </trkpt>
      <trkpt lat="46.01521" lon="-1.04885">
        <ele>54.472076</ele>
        <time>2022-12-21T12:35:19.341Z</time>
      </trkpt>
      <trkpt lat="46.01511" lon="-1.04882">
        <ele>54.448451</ele>
        <time>2022-12-21T12:35:22.340Z</time>
      </trkpt>
      <trkpt lat="46.01502" lon="-1.04883">
        <ele>54.425133</ele>
        <time>2022-12-21T12:35:25.323Z</time>
      </trkpt>
      <trkpt lat="46.0149" lon="-1.04885">
        <ele>54.395868</ele>
        <time>2022-12-21T12:35:29.339Z</time>
      </trkpt>
      <trkpt lat="46.01479" lon="-1.04889">
        <ele>54.366384</ele>
        <time>2022-12-21T12:35:33.342Z</time>
      </trkpt>
      <trkpt lat="46.0147" lon="-1.04894">
        <ele>54.343506</ele>
        <time>2022-12-21T12:35:36.343Z</time>
      </trkpt>
      <trkpt lat="46.01462" lon="-1.04899">
        <ele>54.320619</ele>
        <time>2022-12-21T12:35:39.351Z</time>
      </trkpt>
      <trkpt lat="46.01453" lon="-1.04904">
        <ele>54.296502</ele>
        <time>2022-12-21T12:35:42.339Z</time>
      </trkpt>
      <trkpt lat="46.01443" lon="-1.0491">
        <ele>54.269141</ele>
        <time>2022-12-21T12:35:46.317Z</time>
      </trkpt>
      <trkpt lat="46.01432" lon="-1.04917">
        <ele>54.239932</ele>
        <time>2022-12-21T12:35:50.352Z</time>
      </trkpt>
      <trkpt lat="46.01423" lon="-1.04921">
        <ele>54.214808</ele>
        <time>2022-12-21T12:35:53.343Z</time>
      </trkpt>
      <trkpt lat="46.01413" lon="-1.04925">
        <ele>54.190238</ele>
        <time>2022-12-21T12:35:56.350Z</time>
      </trkpt>
      <trkpt lat="46.01404" lon="-1.04929">
        <ele>54.164725</ele>
        <time>2022-12-21T12:35:59.333Z</time>
      </trkpt>
      <trkpt lat="46.01393" lon="-1.0493">
        <ele>53.999769</ele>
        <time>2022-12-21T12:36:02.338Z</time>
      </trkpt>
      <trkpt lat="46.01382" lon="-1.0493">
        <ele>53.790767</ele>
        <time>2022-12-21T12:36:05.343Z</time>
      </trkpt>
      <trkpt lat="46.01372" lon="-1.04929">
        <ele>53.589604</ele>
        <time>2022-12-21T12:36:08.321Z</time>
      </trkpt>
      <trkpt lat="46.01362" lon="-1.04927">
        <ele>53.384211</ele>
        <time>2022-12-21T12:36:11.346Z</time>
      </trkpt>
      <trkpt lat="46.01352" lon="-1.04925">
        <ele>53.178256</ele>
        <time>2022-12-21T12:36:14.323Z</time>
      </trkpt>
      <trkpt lat="46.01342" lon="-1.04921">
        <ele>52.970234</ele>
        <time>2022-12-21T12:36:17.339Z</time>
      </trkpt>
      <trkpt lat="46.01331" lon="-1.04917">
        <ele>52.750988</ele>
        <time>2022-12-21T12:36:20.339Z</time>
      </trkpt>
      <trkpt lat="46.0132" lon="-1.04912">
        <ele>52.51961</ele>
        <time>2022-12-21T12:36:23.340Z</time>
      </trkpt>
      <trkpt lat="46.01309" lon="-1.04908">
        <ele>52.296692</ele>
        <time>2022-12-21T12:36:26.340Z</time>
      </trkpt>
      <trkpt lat="46.01299" lon="-1.04903">
        <ele>52.08755</ele>
        <time>2022-12-21T12:36:29.340Z</time>
      </trkpt>
      <trkpt lat="46.01289" lon="-1.04899">
        <ele>51.888668</ele>
        <time>2022-12-21T12:36:32.341Z</time>
      </trkpt>
      <trkpt lat="46.01279" lon="-1.04894">
        <ele>51.679138</ele>
        <time>2022-12-21T12:36:35.345Z</time>
      </trkpt>
      <trkpt lat="46.01269" lon="-1.04889">
        <ele>51.463826</ele>
        <time>2022-12-21T12:36:38.326Z</time>
      </trkpt>
      <trkpt lat="46.01258" lon="-1.04883">
        <ele>51.235388</ele>
        <time>2022-12-21T12:36:41.340Z</time>
      </trkpt>
      <trkpt lat="46.01247" lon="-1.04878">
        <ele>50.999383</ele>
        <time>2022-12-21T12:36:44.326Z</time>
      </trkpt>
      <trkpt lat="46.01236" lon="-1.04873">
        <ele>50.762302</ele>
        <time>2022-12-21T12:36:47.341Z</time>
      </trkpt>
      <trkpt lat="46.01224" lon="-1.04867">
        <ele>50.544654</ele>
        <time>2022-12-21T12:36:50.343Z</time>
      </trkpt>
      <trkpt lat="46.01212" lon="-1.04862">
        <ele>50.401104</ele>
        <time>2022-12-21T12:36:53.326Z</time>
      </trkpt>
      <trkpt lat="46.01201" lon="-1.04856">
        <ele>50.260439</ele>
        <time>2022-12-21T12:36:56.351Z</time>
      </trkpt>
      <trkpt lat="46.0119" lon="-1.04851">
        <ele>50.124936</ele>
        <time>2022-12-21T12:36:59.347Z</time>
      </trkpt>
      <trkpt lat="46.0118" lon="-1.04846">
        <ele>50.006278</ele>
        <time>2022-12-21T12:37:02.349Z</time>
      </trkpt>
      <trkpt lat="46.01169" lon="-1.0484">
        <ele>49.873732</ele>
        <time>2022-12-21T12:37:06.343Z</time>
      </trkpt>
      <trkpt lat="46.01158" lon="-1.04835">
        <ele>49.743116</ele>
        <time>2022-12-21T12:37:10.345Z</time>
      </trkpt>
      <trkpt lat="46.0115" lon="-1.04829">
        <ele>49.634435</ele>
        <time>2022-12-21T12:37:13.340Z</time>
      </trkpt>
      <trkpt lat="46.01142" lon="-1.0482">
        <ele>49.520615</ele>
        <time>2022-12-21T12:37:16.329Z</time>
      </trkpt>
      <trkpt lat="46.01138" lon="-1.04807">
        <ele>49.400783</ele>
        <time>2022-12-21T12:37:19.331Z</time>
      </trkpt>
      <trkpt lat="46.01134" lon="-1.04792">
        <ele>49.273552</ele>
        <time>2022-12-21T12:37:22.349Z</time>
      </trkpt>
      <trkpt lat="46.01133" lon="-1.04776">
        <ele>49.140426</ele>
        <time>2022-12-21T12:37:25.331Z</time>
      </trkpt>
      <trkpt lat="46.01131" lon="-1.04759">
        <ele>49.007521</ele>
        <time>2022-12-21T12:37:28.322Z</time>
      </trkpt>
      <trkpt lat="46.01128" lon="-1.04742">
        <ele>48.869233</ele>
        <time>2022-12-21T12:37:31.333Z</time>
      </trkpt>
      <trkpt lat="46.01126" lon="-1.04726">
        <ele>48.734317</ele>
        <time>2022-12-21T12:37:34.337Z</time>
      </trkpt>
      <trkpt lat="46.01122" lon="-1.04709">
        <ele>48.596772</ele>
        <time>2022-12-21T12:37:37.323Z</time>
      </trkpt>
      <trkpt lat="46.0112" lon="-1.04695">
        <ele>48.495579</ele>
        <time>2022-12-21T12:37:40.342Z</time>
      </trkpt>
      <trkpt lat="46.01117" lon="-1.04682">
        <ele>48.467401</ele>
        <time>2022-12-21T12:37:43.337Z</time>
      </trkpt>
      <trkpt lat="46.01114" lon="-1.04666">
        <ele>48.432285</ele>
        <time>2022-12-21T12:37:47.339Z</time>
      </trkpt>
      <trkpt lat="46.01111" lon="-1.04652">
        <ele>48.402291</ele>
        <time>2022-12-21T12:37:50.345Z</time>
      </trkpt>
      <trkpt lat="46.01107" lon="-1.04638">
        <ele>48.371514</ele>
        <time>2022-12-21T12:37:53.330Z</time>
      </trkpt>
      <trkpt lat="46.01098" lon="-1.04631">
        <ele>48.341434</ele>
        <time>2022-12-21T12:37:56.331Z</time>
      </trkpt>
      <trkpt lat="46.01088" lon="-1.04633">
        <ele>48.311626</ele>
        <time>2022-12-21T12:37:59.324Z</time>
      </trkpt>
      <trkpt lat="46.01079" lon="-1.04637">
        <ele>48.281119</ele>
        <time>2022-12-21T12:38:02.329Z</time>
      </trkpt>
      <trkpt lat="46.0107" lon="-1.04645">
        <ele>48.250097</ele>
        <time>2022-12-21T12:38:05.339Z</time>
      </trkpt>
      <trkpt lat="46.01062" lon="-1.04653">
        <ele>48.219879</ele>
        <time>2022-12-21T12:38:08.351Z</time>
      </trkpt>
      <trkpt lat="46.01053" lon="-1.04663">
        <ele>48.187918</ele>
        <time>2022-12-21T12:38:11.343Z</time>
      </trkpt>
      <trkpt lat="46.01044" lon="-1.04673">
        <ele>48.15441</ele>
        <time>2022-12-21T12:38:14.343Z</time>
      </trkpt>
      <trkpt lat="46.01035" lon="-1.04682">
        <ele>48.120156</ele>
        <time>2022-12-21T12:38:17.350Z</time>
      </trkpt>
      <trkpt lat="46.01025" lon="-1.04689">
        <ele>48.085848</ele>
        <time>2022-12-21T12:38:20.334Z</time>
      </trkpt>
      <trkpt lat="46.01014" lon="-1.04696">
        <ele>48.050073</ele>
        <time>2022-12-21T12:38:23.338Z</time>
      </trkpt>
      <trkpt lat="46.01003" lon="-1.04703">
        <ele>48.014412</ele>
        <time>2022-12-21T12:38:26.341Z</time>
      </trkpt>
      <trkpt lat="46.00992" lon="-1.04709">
        <ele>47.98046</ele>
        <time>2022-12-21T12:38:29.354Z</time>
      </trkpt>
      <trkpt lat="46.00982" lon="-1.04714">
        <ele>47.993694</ele>
        <time>2022-12-21T12:38:32.341Z</time>
      </trkpt>
      <trkpt lat="46.00971" lon="-1.04718">
        <ele>48.060051</ele>
        <time>2022-12-21T12:38:35.330Z</time>
      </trkpt>
      <trkpt lat="46.0096" lon="-1.04718">
        <ele>48.128483</ele>
        <time>2022-12-21T12:38:38.321Z</time>
      </trkpt>
      <trkpt lat="46.0095" lon="-1.04718">
        <ele>48.187919</ele>
        <time>2022-12-21T12:38:41.352Z</time>
      </trkpt>
      <trkpt lat="46.0094" lon="-1.04715">
        <ele>48.24982</ele>
        <time>2022-12-21T12:38:45.332Z</time>
      </trkpt>
      <trkpt lat="46.0093" lon="-1.04709">
        <ele>48.312954</ele>
        <time>2022-12-21T12:38:49.329Z</time>
      </trkpt>
      <trkpt lat="46.0092" lon="-1.04702">
        <ele>48.380777</ele>
        <time>2022-12-21T12:38:53.321Z</time>
      </trkpt>
      <trkpt lat="46.00911" lon="-1.04697">
        <ele>48.437115</ele>
        <time>2022-12-21T12:38:56.327Z</time>
      </trkpt>
      <trkpt lat="46.00902" lon="-1.04692">
        <ele>48.496848</ele>
        <time>2022-12-21T12:38:59.343Z</time>
      </trkpt>
      <trkpt lat="46.00892" lon="-1.04687">
        <ele>48.555873</ele>
        <time>2022-12-21T12:39:02.349Z</time>
      </trkpt>
      <trkpt lat="46.00883" lon="-1.04682">
        <ele>48.616935</ele>
        <time>2022-12-21T12:39:05.341Z</time>
      </trkpt>
      <trkpt lat="46.00874" lon="-1.04677">
        <ele>48.676136</ele>
        <time>2022-12-21T12:39:08.347Z</time>
      </trkpt>
      <trkpt lat="46.00864" lon="-1.04673">
        <ele>48.739277</ele>
        <time>2022-12-21T12:39:11.337Z</time>
      </trkpt>
      <trkpt lat="46.00853" lon="-1.04667">
        <ele>48.806487</ele>
        <time>2022-12-21T12:39:14.340Z</time>
      </trkpt>
      <trkpt lat="46.00843" lon="-1.04662">
        <ele>48.871155</ele>
        <time>2022-12-21T12:39:17.343Z</time>
      </trkpt>
      <trkpt lat="46.00833" lon="-1.04656">
        <ele>48.934849</ele>
        <time>2022-12-21T12:39:20.342Z</time>
      </trkpt>
      <trkpt lat="46.00823" lon="-1.04651">
        <ele>48.999391</ele>
        <time>2022-12-21T12:39:23.344Z</time>
      </trkpt>
      <trkpt lat="46.00813" lon="-1.04646">
        <ele>49.029356</ele>
        <time>2022-12-21T12:39:26.346Z</time>
      </trkpt>
      <trkpt lat="46.00803" lon="-1.0464">
        <ele>48.993189</ele>
        <time>2022-12-21T12:39:29.342Z</time>
      </trkpt>
      <trkpt lat="46.00792" lon="-1.04635">
        <ele>48.955027</ele>
        <time>2022-12-21T12:39:32.340Z</time>
      </trkpt>
      <trkpt lat="46.00781" lon="-1.0463">
        <ele>48.916466</ele>
        <time>2022-12-21T12:39:35.341Z</time>
      </trkpt>
      <trkpt lat="46.00771" lon="-1.04624">
        <ele>48.87774</ele>
        <time>2022-12-21T12:39:38.343Z</time>
      </trkpt>
      <trkpt lat="46.0076" lon="-1.04619">
        <ele>48.841245</ele>
        <time>2022-12-21T12:39:41.326Z</time>
      </trkpt>
      <trkpt lat="46.0075" lon="-1.04613">
        <ele>48.803621</ele>
        <time>2022-12-21T12:39:44.342Z</time>
      </trkpt>
      <trkpt lat="46.00739" lon="-1.04608">
        <ele>48.764661</ele>
        <time>2022-12-21T12:39:47.353Z</time>
      </trkpt>
      <trkpt lat="46.0073" lon="-1.04602">
        <ele>48.730085</ele>
        <time>2022-12-21T12:39:50.340Z</time>
      </trkpt>
      <trkpt lat="46.00721" lon="-1.04597">
        <ele>48.698709</ele>
        <time>2022-12-21T12:39:53.330Z</time>
      </trkpt>
      <trkpt lat="46.00713" lon="-1.04593">
        <ele>48.667412</ele>
        <time>2022-12-21T12:39:56.348Z</time>
      </trkpt>
      <trkpt lat="46.00703" lon="-1.04588">
        <ele>48.634037</ele>
        <time>2022-12-21T12:39:59.343Z</time>
      </trkpt>
      <trkpt lat="46.00693" lon="-1.04582">
        <ele>48.59787</ele>
        <time>2022-12-21T12:40:02.342Z</time>
      </trkpt>
      <trkpt lat="46.00683" lon="-1.04577">
        <ele>48.558989</ele>
        <time>2022-12-21T12:40:05.318Z</time>
      </trkpt>
      <trkpt lat="46.00671" lon="-1.04572">
        <ele>48.51912</ele>
        <time>2022-12-21T12:40:08.340Z</time>
      </trkpt>
      <trkpt lat="46.00661" lon="-1.04566">
        <ele>48.479659</ele>
        <time>2022-12-21T12:40:11.341Z</time>
      </trkpt>
      <trkpt lat="46.00651" lon="-1.04561">
        <ele>48.445393</ele>
        <time>2022-12-21T12:40:14.331Z</time>
      </trkpt>
      <trkpt lat="46.00641" lon="-1.04555">
        <ele>48.434096</ele>
        <time>2022-12-21T12:40:18.328Z</time>
      </trkpt>
      <trkpt lat="46.00631" lon="-1.0455">
        <ele>48.437845</ele>
        <time>2022-12-21T12:40:23.332Z</time>
      </trkpt>
      <trkpt lat="46.00622" lon="-1.04545">
        <ele>48.441015</ele>
        <time>2022-12-21T12:40:26.325Z</time>
      </trkpt>
      <trkpt lat="46.00613" lon="-1.0454">
        <ele>48.444306</ele>
        <time>2022-12-21T12:40:29.351Z</time>
      </trkpt>
      <trkpt lat="46.00604" lon="-1.04535">
        <ele>48.447476</ele>
        <time>2022-12-21T12:40:32.352Z</time>
      </trkpt>
      <trkpt lat="46.00595" lon="-1.0453">
        <ele>48.450731</ele>
        <time>2022-12-21T12:40:35.345Z</time>
      </trkpt>
      <trkpt lat="46.00586" lon="-1.04525">
        <ele>48.453885</ele>
        <time>2022-12-21T12:40:38.325Z</time>
      </trkpt>
      <trkpt lat="46.00576" lon="-1.04521">
        <ele>48.457277</ele>
        <time>2022-12-21T12:40:41.344Z</time>
      </trkpt>
      <trkpt lat="46.00566" lon="-1.04516">
        <ele>48.460809</ele>
        <time>2022-12-21T12:40:44.343Z</time>
      </trkpt>
      <trkpt lat="46.00556" lon="-1.04511">
        <ele>48.464414</ele>
        <time>2022-12-21T12:40:47.316Z</time>
      </trkpt>
      <trkpt lat="46.00546" lon="-1.04506">
        <ele>48.467881</ele>
        <time>2022-12-21T12:40:50.339Z</time>
      </trkpt>
      <trkpt lat="46.00536" lon="-1.045">
        <ele>48.471632</ele>
        <time>2022-12-21T12:40:53.342Z</time>
      </trkpt>
      <trkpt lat="46.00525" lon="-1.04494">
        <ele>48.475483</ele>
        <time>2022-12-21T12:40:56.342Z</time>
      </trkpt>
      <trkpt lat="46.00513" lon="-1.04488">
        <ele>48.479635</ele>
        <time>2022-12-21T12:40:59.342Z</time>
      </trkpt>
      <trkpt lat="46.00501" lon="-1.04482">
        <ele>48.483808</ele>
        <time>2022-12-21T12:41:02.342Z</time>
      </trkpt>
      <trkpt lat="46.00489" lon="-1.04475">
        <ele>48.488061</ele>
        <time>2022-12-21T12:41:05.344Z</time>
      </trkpt>
      <trkpt lat="46.00478" lon="-1.0447">
        <ele>48.494133</ele>
        <time>2022-12-21T12:41:08.326Z</time>
      </trkpt>
      <trkpt lat="46.00468" lon="-1.04464">
        <ele>48.528101</ele>
        <time>2022-12-21T12:41:11.343Z</time>
      </trkpt>
      <trkpt lat="46.00457" lon="-1.04458">
        <ele>48.567011</ele>
        <time>2022-12-21T12:41:15.345Z</time>
      </trkpt>
      <trkpt lat="46.00448" lon="-1.04454">
        <ele>48.599125</ele>
        <time>2022-12-21T12:41:18.345Z</time>
      </trkpt>
      <trkpt lat="46.00439" lon="-1.04449">
        <ele>48.630396</ele>
        <time>2022-12-21T12:41:21.342Z</time>
      </trkpt>
      <trkpt lat="46.0043" lon="-1.04444">
        <ele>48.661827</ele>
        <time>2022-12-21T12:41:24.340Z</time>
      </trkpt>
      <trkpt lat="46.00421" lon="-1.04439">
        <ele>48.693874</ele>
        <time>2022-12-21T12:41:27.340Z</time>
      </trkpt>
      <trkpt lat="46.00412" lon="-1.04434">
        <ele>48.725091</ele>
        <time>2022-12-21T12:41:30.342Z</time>
      </trkpt>
      <trkpt lat="46.00403" lon="-1.0443">
        <ele>48.754995</ele>
        <time>2022-12-21T12:41:33.340Z</time>
      </trkpt>
      <trkpt lat="46.00394" lon="-1.04424">
        <ele>48.788832</ele>
        <time>2022-12-21T12:41:37.322Z</time>
      </trkpt>
      <trkpt lat="46.00384" lon="-1.04419">
        <ele>48.822109</ele>
        <time>2022-12-21T12:41:41.330Z</time>
      </trkpt>
      <trkpt lat="46.00373" lon="-1.04413">
        <ele>48.860655</ele>
        <time>2022-12-21T12:41:45.342Z</time>
      </trkpt>
      <trkpt lat="46.00364" lon="-1.0441">
        <ele>48.890874</ele>
        <time>2022-12-21T12:41:48.342Z</time>
      </trkpt>
      <trkpt lat="46.00355" lon="-1.04405">
        <ele>48.922617</ele>
        <time>2022-12-21T12:41:51.342Z</time>
      </trkpt>
      <trkpt lat="46.00346" lon="-1.044">
        <ele>48.954748</ele>
        <time>2022-12-21T12:41:54.340Z</time>
      </trkpt>
      <trkpt lat="46.00337" lon="-1.04395">
        <ele>48.986053</ele>
        <time>2022-12-21T12:41:57.344Z</time>
      </trkpt>
      <trkpt lat="46.00329" lon="-1.0439">
        <ele>49.016186</ele>
        <time>2022-12-21T12:42:00.342Z</time>
      </trkpt>
      <trkpt lat="46.0032" lon="-1.04385">
        <ele>49.048458</ele>
        <time>2022-12-21T12:42:03.351Z</time>
      </trkpt>
      <trkpt lat="46.00311" lon="-1.0438">
        <ele>49.079763</ele>
        <time>2022-12-21T12:42:06.343Z</time>
      </trkpt>
      <trkpt lat="46.00302" lon="-1.04375">
        <ele>49.04404</ele>
        <time>2022-12-21T12:42:09.344Z</time>
      </trkpt>
      <trkpt lat="46.00291" lon="-1.0437">
        <ele>48.994348</ele>
        <time>2022-12-21T12:42:13.351Z</time>
      </trkpt>
      <trkpt lat="46.00281" lon="-1.04365">
        <ele>48.951908</ele>
        <time>2022-12-21T12:42:16.341Z</time>
      </trkpt>
      <trkpt lat="46.00272" lon="-1.04359">
        <ele>48.907997</ele>
        <time>2022-12-21T12:42:19.343Z</time>
      </trkpt>
      <trkpt lat="46.00262" lon="-1.04354">
        <ele>48.862345</ele>
        <time>2022-12-21T12:42:22.343Z</time>
      </trkpt>
      <trkpt lat="46.00252" lon="-1.04349">
        <ele>48.816889</ele>
        <time>2022-12-21T12:42:25.332Z</time>
      </trkpt>
      <trkpt lat="46.00243" lon="-1.04343">
        <ele>48.772071</ele>
        <time>2022-12-21T12:42:28.345Z</time>
      </trkpt>
      <trkpt lat="46.00232" lon="-1.04338">
        <ele>48.726587</ele>
        <time>2022-12-21T12:42:31.346Z</time>
      </trkpt>
      <trkpt lat="46.00222" lon="-1.04333">
        <ele>48.679819</ele>
        <time>2022-12-21T12:42:34.341Z</time>
      </trkpt>
      <trkpt lat="46.00212" lon="-1.04328">
        <ele>48.635165</ele>
        <time>2022-12-21T12:42:37.340Z</time>
      </trkpt>
      <trkpt lat="46.00202" lon="-1.04322">
        <ele>48.585672</ele>
        <time>2022-12-21T12:42:41.340Z</time>
      </trkpt>
      <trkpt lat="46.00193" lon="-1.04318">
        <ele>48.547086</ele>
        <time>2022-12-21T12:42:45.356Z</time>
      </trkpt>
      <trkpt lat="46.00183" lon="-1.04314">
        <ele>48.499801</ele>
        <time>2022-12-21T12:42:49.333Z</time>
      </trkpt>
      <trkpt lat="46.00174" lon="-1.04308">
        <ele>48.457584</ele>
        <time>2022-12-21T12:42:52.342Z</time>
      </trkpt>
      <trkpt lat="46.00165" lon="-1.04304">
        <ele>48.416961</ele>
        <time>2022-12-21T12:42:55.334Z</time>
      </trkpt>
      <trkpt lat="46.00156" lon="-1.04298">
        <ele>48.375528</ele>
        <time>2022-12-21T12:42:58.333Z</time>
      </trkpt>
      <trkpt lat="46.00145" lon="-1.04292">
        <ele>48.324621</ele>
        <time>2022-12-21T12:43:02.356Z</time>
      </trkpt>
      <trkpt lat="46.00136" lon="-1.04288">
        <ele>48.34959</ele>
        <time>2022-12-21T12:43:05.324Z</time>
      </trkpt>
      <trkpt lat="46.00127" lon="-1.04284">
        <ele>48.413971</ele>
        <time>2022-12-21T12:43:08.341Z</time>
      </trkpt>
      <trkpt lat="46.00118" lon="-1.04278">
        <ele>48.479287</ele>
        <time>2022-12-21T12:43:11.341Z</time>
      </trkpt>
      <trkpt lat="46.00108" lon="-1.04273">
        <ele>48.553563</ele>
        <time>2022-12-21T12:43:15.347Z</time>
      </trkpt>
      <trkpt lat="46.00099" lon="-1.04267">
        <ele>48.624619</ele>
        <time>2022-12-21T12:43:20.331Z</time>
      </trkpt>
      <trkpt lat="46.00088" lon="-1.04262">
        <ele>48.701001</ele>
        <time>2022-12-21T12:43:25.350Z</time>
      </trkpt>
      <trkpt lat="46.0008" lon="-1.04258">
        <ele>48.763542</ele>
        <time>2022-12-21T12:43:29.349Z</time>
      </trkpt>
      <trkpt lat="46.00069" lon="-1.04251">
        <ele>48.841862</ele>
        <time>2022-12-21T12:43:34.353Z</time>
      </trkpt>
      <trkpt lat="46.00061" lon="-1.04247">
        <ele>48.904317</ele>
        <time>2022-12-21T12:43:38.330Z</time>
      </trkpt>
      <trkpt lat="46.00051" lon="-1.04243">
        <ele>48.973748</ele>
        <time>2022-12-21T12:43:42.342Z</time>
      </trkpt>
      <trkpt lat="46.00042" lon="-1.04237">
        <ele>49.042357</ele>
        <time>2022-12-21T12:43:46.329Z</time>
      </trkpt>
      <trkpt lat="46.00033" lon="-1.04234">
        <ele>49.105172</ele>
        <time>2022-12-21T12:43:50.325Z</time>
      </trkpt>
      <trkpt lat="46.00024" lon="-1.04228">
        <ele>49.173973</ele>
        <time>2022-12-21T12:43:54.329Z</time>
      </trkpt>
      <trkpt lat="46.00015" lon="-1.04223">
        <ele>49.241026</ele>
        <time>2022-12-21T12:43:58.322Z</time>
      </trkpt>
      <trkpt lat="46.00006" lon="-1.04219">
        <ele>49.30736</ele>
        <time>2022-12-21T12:44:02.339Z</time>
      </trkpt>
      <trkpt lat="45.99997" lon="-1.04214">
        <ele>49.373695</ele>
        <time>2022-12-21T12:44:07.342Z</time>
      </trkpt>
      <trkpt lat="45.99987" lon="-1.04209">
        <ele>49.445054</ele>
        <time>2022-12-21T12:44:12.327Z</time>
      </trkpt>
      <trkpt lat="45.99978" lon="-1.04203">
        <ele>49.514461</ele>
        <time>2022-12-21T12:44:17.322Z</time>
      </trkpt>
      <trkpt lat="45.99967" lon="-1.04197">
        <ele>49.539424</ele>
        <time>2022-12-21T12:44:22.329Z</time>
      </trkpt>
      <trkpt lat="45.99958" lon="-1.04193">
        <ele>49.523233</ele>
        <time>2022-12-21T12:44:26.344Z</time>
      </trkpt>
      <trkpt lat="45.99949" lon="-1.04188">
        <ele>49.507119</ele>
        <time>2022-12-21T12:44:30.344Z</time>
      </trkpt>
      <trkpt lat="45.99932" lon="-1.04176">
        <ele>49.476209</ele>
        <time>2022-12-21T12:47:30.346Z</time>
      </trkpt>
      <trkpt lat="45.99922" lon="-1.04171">
        <ele>49.459708</ele>
        <time>2022-12-21T12:47:34.344Z</time>
      </trkpt>
      <trkpt lat="45.99913" lon="-1.04167">
        <ele>49.444479</ele>
        <time>2022-12-21T12:47:37.339Z</time>
      </trkpt>
      <trkpt lat="45.99904" lon="-1.04161">
        <ele>49.427332</ele>
        <time>2022-12-21T12:47:40.342Z</time>
      </trkpt>
      <trkpt lat="45.99894" lon="-1.04157">
        <ele>49.410063</ele>
        <time>2022-12-21T12:47:43.339Z</time>
      </trkpt>
      <trkpt lat="45.99884" lon="-1.04152">
        <ele>49.393214</ele>
        <time>2022-12-21T12:47:46.341Z</time>
      </trkpt>
      <trkpt lat="45.99875" lon="-1.04147">
        <ele>49.377835</ele>
        <time>2022-12-21T12:47:49.344Z</time>
      </trkpt>
      <trkpt lat="45.99865" lon="-1.04142">
        <ele>49.359355</ele>
        <time>2022-12-21T12:47:53.338Z</time>
      </trkpt>
      <trkpt lat="45.99853" lon="-1.04136">
        <ele>49.33961</ele>
        <time>2022-12-21T12:47:57.343Z</time>
      </trkpt>
      <trkpt lat="45.99845" lon="-1.0413">
        <ele>49.323812</ele>
        <time>2022-12-21T12:48:00.350Z</time>
      </trkpt>
      <trkpt lat="45.99836" lon="-1.04125">
        <ele>49.30849</ele>
        <time>2022-12-21T12:48:03.344Z</time>
      </trkpt>
      <trkpt lat="45.99826" lon="-1.04121">
        <ele>49.291693</ele>
        <time>2022-12-21T12:48:06.344Z</time>
      </trkpt>
      <trkpt lat="45.99816" lon="-1.04116">
        <ele>49.274604</ele>
        <time>2022-12-21T12:48:09.345Z</time>
      </trkpt>
      <trkpt lat="45.99807" lon="-1.04112">
        <ele>49.258103</ele>
        <time>2022-12-21T12:48:12.332Z</time>
      </trkpt>
      <trkpt lat="45.99798" lon="-1.04107">
        <ele>49.275704</ele>
        <time>2022-12-21T12:48:15.344Z</time>
      </trkpt>
      <trkpt lat="45.99788" lon="-1.04101">
        <ele>49.305559</ele>
        <time>2022-12-21T12:48:18.342Z</time>
      </trkpt>
      <trkpt lat="45.99779" lon="-1.04096">
        <ele>49.332508</ele>
        <time>2022-12-21T12:48:21.325Z</time>
      </trkpt>
      <trkpt lat="45.99771" lon="-1.04092">
        <ele>49.358584</ele>
        <time>2022-12-21T12:48:24.339Z</time>
      </trkpt>
      <trkpt lat="45.99762" lon="-1.04087">
        <ele>49.386075</ele>
        <time>2022-12-21T12:48:27.351Z</time>
      </trkpt>
      <trkpt lat="45.99752" lon="-1.04083">
        <ele>49.414654</ele>
        <time>2022-12-21T12:48:30.344Z</time>
      </trkpt>
      <trkpt lat="45.99743" lon="-1.04077">
        <ele>49.443032</ele>
        <time>2022-12-21T12:48:33.345Z</time>
      </trkpt>
      <trkpt lat="45.99733" lon="-1.04072">
        <ele>49.472807</ele>
        <time>2022-12-21T12:48:36.343Z</time>
      </trkpt>
      <trkpt lat="45.99722" lon="-1.04068">
        <ele>49.505173</ele>
        <time>2022-12-21T12:48:39.343Z</time>
      </trkpt>
      <trkpt lat="45.99712" lon="-1.04063">
        <ele>49.536782</ele>
        <time>2022-12-21T12:48:42.339Z</time>
      </trkpt>
      <trkpt lat="45.99702" lon="-1.04058">
        <ele>49.565282</ele>
        <time>2022-12-21T12:48:45.339Z</time>
      </trkpt>
      <trkpt lat="45.99694" lon="-1.04051">
        <ele>49.594075</ele>
        <time>2022-12-21T12:48:48.341Z</time>
      </trkpt>
      <trkpt lat="45.99685" lon="-1.04044">
        <ele>49.623062</ele>
        <time>2022-12-21T12:48:51.341Z</time>
      </trkpt>
      <trkpt lat="45.99676" lon="-1.04035">
        <ele>49.653049</ele>
        <time>2022-12-21T12:48:54.341Z</time>
      </trkpt>
      <trkpt lat="45.99668" lon="-1.04027">
        <ele>49.682481</ele>
        <time>2022-12-21T12:48:57.341Z</time>
      </trkpt>
      <trkpt lat="45.9966" lon="-1.04018">
        <ele>49.710043</ele>
        <time>2022-12-21T12:49:00.341Z</time>
      </trkpt>
      <trkpt lat="45.99651" lon="-1.04008">
        <ele>49.742903</ele>
        <time>2022-12-21T12:49:04.341Z</time>
      </trkpt>
      <trkpt lat="45.99643" lon="-1.04">
        <ele>49.774968</ele>
        <time>2022-12-21T12:49:08.339Z</time>
      </trkpt>
      <trkpt lat="45.99633" lon="-1.03994">
        <ele>49.971882</ele>
        <time>2022-12-21T12:49:13.340Z</time>
      </trkpt>
      <trkpt lat="45.99623" lon="-1.03988">
        <ele>50.165871</ele>
        <time>2022-12-21T12:49:17.318Z</time>
      </trkpt>
      <trkpt lat="45.99617" lon="-1.03979">
        <ele>50.332931</ele>
        <time>2022-12-21T12:49:20.344Z</time>
      </trkpt>
      <trkpt lat="45.9961" lon="-1.03967">
        <ele>50.530549</ele>
        <time>2022-12-21T12:49:24.344Z</time>
      </trkpt>
      <trkpt lat="45.99604" lon="-1.03952">
        <ele>50.735549</ele>
        <time>2022-12-21T12:49:28.340Z</time>
      </trkpt>
      <trkpt lat="45.996" lon="-1.03938">
        <ele>50.930644</ele>
        <time>2022-12-21T12:49:32.345Z</time>
      </trkpt>
      <trkpt lat="45.99594" lon="-1.03926">
        <ele>51.111848</ele>
        <time>2022-12-21T12:49:36.346Z</time>
      </trkpt>
      <trkpt lat="45.99589" lon="-1.03912">
        <ele>51.309449</ele>
        <time>2022-12-21T12:49:40.358Z</time>
      </trkpt>
      <trkpt lat="45.99584" lon="-1.03896">
        <ele>51.520043</ele>
        <time>2022-12-21T12:49:44.344Z</time>
      </trkpt>
      <trkpt lat="45.99578" lon="-1.03883">
        <ele>51.721262</ele>
        <time>2022-12-21T12:49:48.347Z</time>
      </trkpt>
      <trkpt lat="45.99573" lon="-1.03869">
        <ele>51.928638</ele>
        <time>2022-12-21T12:49:52.350Z</time>
      </trkpt>
      <trkpt lat="45.99568" lon="-1.03857">
        <ele>52.099408</ele>
        <time>2022-12-21T12:49:55.343Z</time>
      </trkpt>
      <trkpt lat="45.99563" lon="-1.03845">
        <ele>52.268488</ele>
        <time>2022-12-21T12:49:58.340Z</time>
      </trkpt>
      <trkpt lat="45.99559" lon="-1.03833">
        <ele>52.438715</ele>
        <time>2022-12-21T12:50:01.343Z</time>
      </trkpt>
      <trkpt lat="45.99554" lon="-1.0382">
        <ele>52.616384</ele>
        <time>2022-12-21T12:50:04.341Z</time>
      </trkpt>
      <trkpt lat="45.99549" lon="-1.03808">
        <ele>52.7953</ele>
        <time>2022-12-21T12:50:07.354Z</time>
      </trkpt>
      <trkpt lat="45.99544" lon="-1.03795">
        <ele>52.977772</ele>
        <time>2022-12-21T12:50:10.350Z</time>
      </trkpt>
      <trkpt lat="45.99539" lon="-1.03781">
        <ele>52.893513</ele>
        <time>2022-12-21T12:50:13.339Z</time>
      </trkpt>
      <trkpt lat="45.99534" lon="-1.03766">
        <ele>52.754763</ele>
        <time>2022-12-21T12:50:16.336Z</time>
      </trkpt>
      <trkpt lat="45.9953" lon="-1.03751">
        <ele>52.623528</ele>
        <time>2022-12-21T12:50:19.343Z</time>
      </trkpt>
      <trkpt lat="45.99526" lon="-1.03738">
        <ele>52.498734</ele>
        <time>2022-12-21T12:50:22.339Z</time>
      </trkpt>
      <trkpt lat="45.99522" lon="-1.03723">
        <ele>52.374178</ele>
        <time>2022-12-21T12:50:25.341Z</time>
      </trkpt>
      <trkpt lat="45.99519" lon="-1.03708">
        <ele>52.238277</ele>
        <time>2022-12-21T12:50:28.332Z</time>
      </trkpt>
      <trkpt lat="45.99515" lon="-1.03692">
        <ele>52.098765</ele>
        <time>2022-12-21T12:50:31.346Z</time>
      </trkpt>
      <trkpt lat="45.99513" lon="-1.03675">
        <ele>51.957069</ele>
        <time>2022-12-21T12:50:34.339Z</time>
      </trkpt>
      <trkpt lat="45.9951" lon="-1.03657">
        <ele>51.808372</ele>
        <time>2022-12-21T12:50:37.344Z</time>
      </trkpt>
      <trkpt lat="45.99507" lon="-1.03639">
        <ele>51.652452</ele>
        <time>2022-12-21T12:50:40.350Z</time>
      </trkpt>
      <trkpt lat="45.99504" lon="-1.03619">
        <ele>51.488135</ele>
        <time>2022-12-21T12:50:43.343Z</time>
      </trkpt>
      <trkpt lat="45.99502" lon="-1.03606">
        <ele>51.371706</ele>
        <time>2022-12-21T12:50:45.330Z</time>
      </trkpt>
      <trkpt lat="45.99498" lon="-1.03591">
        <ele>51.243212</ele>
        <time>2022-12-21T12:50:47.345Z</time>
      </trkpt>
      <trkpt lat="45.99495" lon="-1.03577">
        <ele>51.12063</ele>
        <time>2022-12-21T12:50:49.343Z</time>
      </trkpt>
      <trkpt lat="45.99491" lon="-1.03564">
        <ele>51.001551</ele>
        <time>2022-12-21T12:50:51.343Z</time>
      </trkpt>
      <trkpt lat="45.99486" lon="-1.0355">
        <ele>50.876763</ele>
        <time>2022-12-21T12:50:53.344Z</time>
      </trkpt>
      <trkpt lat="45.99482" lon="-1.03536">
        <ele>50.706316</ele>
        <time>2022-12-21T12:50:55.344Z</time>
      </trkpt>
      <trkpt lat="45.99476" lon="-1.03523">
        <ele>50.528339</ele>
        <time>2022-12-21T12:50:57.341Z</time>
      </trkpt>
      <trkpt lat="45.99469" lon="-1.0351">
        <ele>50.351347</ele>
        <time>2022-12-21T12:50:59.351Z</time>
      </trkpt>
      <trkpt lat="45.99462" lon="-1.03498">
        <ele>50.18031</ele>
        <time>2022-12-21T12:51:01.348Z</time>
      </trkpt>
      <trkpt lat="45.99455" lon="-1.03488">
        <ele>50.015173</ele>
        <time>2022-12-21T12:51:03.356Z</time>
      </trkpt>
      <trkpt lat="45.99448" lon="-1.03478">
        <ele>49.851038</ele>
        <time>2022-12-21T12:51:05.337Z</time>
      </trkpt>
      <trkpt lat="45.99442" lon="-1.03468">
        <ele>49.706345</ele>
        <time>2022-12-21T12:51:07.342Z</time>
      </trkpt>
      <trkpt lat="45.99433" lon="-1.03454">
        <ele>49.496039</ele>
        <time>2022-12-21T12:51:10.343Z</time>
      </trkpt>
      <trkpt lat="45.99425" lon="-1.03442">
        <ele>49.302788</ele>
        <time>2022-12-21T12:51:13.351Z</time>
      </trkpt>
      <trkpt lat="45.99418" lon="-1.03431">
        <ele>49.136456</ele>
        <time>2022-12-21T12:51:16.344Z</time>
      </trkpt>
      <trkpt lat="45.99411" lon="-1.0342">
        <ele>48.972668</ele>
        <time>2022-12-21T12:51:19.353Z</time>
      </trkpt>
      <trkpt lat="45.99404" lon="-1.03407">
        <ele>48.787497</ele>
        <time>2022-12-21T12:51:22.345Z</time>
      </trkpt>
      <trkpt lat="45.99397" lon="-1.03395">
        <ele>48.610197</ele>
        <time>2022-12-21T12:51:25.353Z</time>
      </trkpt>
      <trkpt lat="45.99391" lon="-1.03381">
        <ele>48.428605</ele>
        <time>2022-12-21T12:51:28.350Z</time>
      </trkpt>
      <trkpt lat="45.99385" lon="-1.03369">
        <ele>48.260817</ele>
        <time>2022-12-21T12:51:31.343Z</time>
      </trkpt>
      <trkpt lat="45.99379" lon="-1.03359">
        <ele>48.104442</ele>
        <time>2022-12-21T12:51:34.343Z</time>
      </trkpt>
      <trkpt lat="45.99371" lon="-1.03347">
        <ele>47.948692</ele>
        <time>2022-12-21T12:51:38.348Z</time>
      </trkpt>
      <trkpt lat="45.99366" lon="-1.03332">
        <ele>47.864399</ele>
        <time>2022-12-21T12:51:42.342Z</time>
      </trkpt>
      <trkpt lat="45.99361" lon="-1.0332">
        <ele>47.79385</ele>
        <time>2022-12-21T12:51:45.345Z</time>
      </trkpt>
      <trkpt lat="45.99356" lon="-1.03306">
        <ele>47.716254</ele>
        <time>2022-12-21T12:51:48.341Z</time>
      </trkpt>
      <trkpt lat="45.99351" lon="-1.03291">
        <ele>47.637787</ele>
        <time>2022-12-21T12:51:51.331Z</time>
      </trkpt>
      <trkpt lat="45.99348" lon="-1.03275">
        <ele>47.558588</ele>
        <time>2022-12-21T12:51:54.343Z</time>
      </trkpt>
      <trkpt lat="45.99344" lon="-1.0326">
        <ele>47.479102</ele>
        <time>2022-12-21T12:51:57.350Z</time>
      </trkpt>
      <trkpt lat="45.99342" lon="-1.03245">
        <ele>47.404996</ele>
        <time>2022-12-21T12:52:00.342Z</time>
      </trkpt>
      <trkpt lat="45.99341" lon="-1.03228">
        <ele>47.322037</ele>
        <time>2022-12-21T12:52:04.344Z</time>
      </trkpt>
      <trkpt lat="45.99339" lon="-1.03214">
        <ele>47.250241</ele>
        <time>2022-12-21T12:52:07.351Z</time>
      </trkpt>
      <trkpt lat="45.99337" lon="-1.03199">
        <ele>47.175922</ele>
        <time>2022-12-21T12:52:10.346Z</time>
      </trkpt>
      <trkpt lat="45.99336" lon="-1.03184">
        <ele>47.102241</ele>
        <time>2022-12-21T12:52:13.343Z</time>
      </trkpt>
      <trkpt lat="45.99334" lon="-1.03169">
        <ele>47.029122</ele>
        <time>2022-12-21T12:52:16.340Z</time>
      </trkpt>
      <trkpt lat="45.99332" lon="-1.03153">
        <ele>46.952153</ele>
        <time>2022-12-21T12:52:19.355Z</time>
      </trkpt>
      <trkpt lat="45.9933" lon="-1.03137">
        <ele>46.871473</ele>
        <time>2022-12-21T12:52:22.341Z</time>
      </trkpt>
      <trkpt lat="45.9933" lon="-1.03121">
        <ele>46.795275</ele>
        <time>2022-12-21T12:52:25.342Z</time>
      </trkpt>
      <trkpt lat="45.99329" lon="-1.03107">
        <ele>46.724543</ele>
        <time>2022-12-21T12:52:28.351Z</time>
      </trkpt>
      <trkpt lat="45.99328" lon="-1.03092">
        <ele>46.745475</ele>
        <time>2022-12-21T12:52:31.346Z</time>
      </trkpt>
      <trkpt lat="45.99327" lon="-1.03076">
        <ele>46.828613</ele>
        <time>2022-12-21T12:52:34.341Z</time>
      </trkpt>
      <trkpt lat="45.99325" lon="-1.03058">
        <ele>46.918002</ele>
        <time>2022-12-21T12:52:37.341Z</time>
      </trkpt>
      <trkpt lat="45.99323" lon="-1.03039">
        <ele>47.014034</ele>
        <time>2022-12-21T12:52:40.345Z</time>
      </trkpt>
      <trkpt lat="45.99321" lon="-1.0302">
        <ele>47.11094</ele>
        <time>2022-12-21T12:52:43.349Z</time>
      </trkpt>
      <trkpt lat="45.9932" lon="-1.03007">
        <ele>47.17835</ele>
        <time>2022-12-21T12:52:45.340Z</time>
      </trkpt>
      <trkpt lat="45.99318" lon="-1.02993">
        <ele>47.246862</ele>
        <time>2022-12-21T12:52:47.346Z</time>
      </trkpt>
      <trkpt lat="45.99318" lon="-1.02974">
        <ele>47.342645</ele>
        <time>2022-12-21T12:52:50.331Z</time>
      </trkpt>
      <trkpt lat="45.99317" lon="-1.02955">
        <ele>47.437632</ele>
        <time>2022-12-21T12:52:53.341Z</time>
      </trkpt>
      <trkpt lat="45.99315" lon="-1.02936">
        <ele>47.532463</ele>
        <time>2022-12-21T12:52:56.343Z</time>
      </trkpt>
      <trkpt lat="45.99313" lon="-1.02918">
        <ele>47.626674</ele>
        <time>2022-12-21T12:52:59.349Z</time>
      </trkpt>
      <trkpt lat="45.99311" lon="-1.02901">
        <ele>47.713202</ele>
        <time>2022-12-21T12:53:02.347Z</time>
      </trkpt>
      <trkpt lat="45.9931" lon="-1.02886">
        <ele>47.790738</ele>
        <time>2022-12-21T12:53:05.357Z</time>
      </trkpt>
      <trkpt lat="45.99307" lon="-1.02871">
        <ele>47.867725</ele>
        <time>2022-12-21T12:53:08.349Z</time>
      </trkpt>
      <trkpt lat="45.99303" lon="-1.02855">
        <ele>47.951039</ele>
        <time>2022-12-21T12:53:11.341Z</time>
      </trkpt>
      <trkpt lat="45.99298" lon="-1.0284">
        <ele>48.05201</ele>
        <time>2022-12-21T12:53:14.341Z</time>
      </trkpt>
      <trkpt lat="45.99292" lon="-1.02827">
        <ele>48.16563</ele>
        <time>2022-12-21T12:53:17.341Z</time>
      </trkpt>
      <trkpt lat="45.99285" lon="-1.02814">
        <ele>48.278681</ele>
        <time>2022-12-21T12:53:20.336Z</time>
      </trkpt>
      <trkpt lat="45.99278" lon="-1.02801">
        <ele>48.39533</ele>
        <time>2022-12-21T12:53:23.350Z</time>
      </trkpt>
      <trkpt lat="45.99271" lon="-1.02788">
        <ele>48.507204</ele>
        <time>2022-12-21T12:53:26.352Z</time>
      </trkpt>
      <trkpt lat="45.99264" lon="-1.02775">
        <ele>48.625305</ele>
        <time>2022-12-21T12:53:30.341Z</time>
      </trkpt>
      <trkpt lat="45.99256" lon="-1.02762">
        <ele>48.750524</ele>
        <time>2022-12-21T12:53:34.352Z</time>
      </trkpt>
      <trkpt lat="45.99249" lon="-1.02752">
        <ele>48.851864</ele>
        <time>2022-12-21T12:53:37.344Z</time>
      </trkpt>
      <trkpt lat="45.9924" lon="-1.02742">
        <ele>48.964157</ele>
        <time>2022-12-21T12:53:41.347Z</time>
      </trkpt>
      <trkpt lat="45.9923" lon="-1.02744">
        <ele>49.068544</ele>
        <time>2022-12-21T12:53:45.343Z</time>
      </trkpt>
      <trkpt lat="45.99222" lon="-1.02754">
        <ele>49.177482</ele>
        <time>2022-12-21T12:53:49.326Z</time>
      </trkpt>
      <trkpt lat="45.99216" lon="-1.02765">
        <ele>49.273811</ele>
        <time>2022-12-21T12:53:52.345Z</time>
      </trkpt>
      <trkpt lat="45.99209" lon="-1.02776">
        <ele>49.380131</ele>
        <time>2022-12-21T12:53:55.350Z</time>
      </trkpt>
      <trkpt lat="45.99202" lon="-1.02786">
        <ele>49.481815</ele>
        <time>2022-12-21T12:53:58.350Z</time>
      </trkpt>
      <trkpt lat="45.99193" lon="-1.02798">
        <ele>49.604504</ele>
        <time>2022-12-21T12:54:02.347Z</time>
      </trkpt>
      <trkpt lat="45.99186" lon="-1.02807">
        <ele>49.701084</ele>
        <time>2022-12-21T12:54:05.346Z</time>
      </trkpt>
      <trkpt lat="45.99179" lon="-1.02815">
        <ele>49.799773</ele>
        <time>2022-12-21T12:54:08.342Z</time>
      </trkpt>
      <trkpt lat="45.9917" lon="-1.02824">
        <ele>49.757843</ele>
        <time>2022-12-21T12:54:11.352Z</time>
      </trkpt>
      <trkpt lat="45.99162" lon="-1.0283">
        <ele>49.655311</ele>
        <time>2022-12-21T12:54:14.346Z</time>
      </trkpt>
      <trkpt lat="45.99153" lon="-1.02836">
        <ele>49.554785</ele>
        <time>2022-12-21T12:54:17.338Z</time>
      </trkpt>
      <trkpt lat="45.99143" lon="-1.02842">
        <ele>49.439917</ele>
        <time>2022-12-21T12:54:20.345Z</time>
      </trkpt>
      <trkpt lat="45.99132" lon="-1.02848">
        <ele>49.309624</ele>
        <time>2022-12-21T12:54:23.345Z</time>
      </trkpt>
      <trkpt lat="45.99124" lon="-1.02853">
        <ele>49.212994</ele>
        <time>2022-12-21T12:54:25.334Z</time>
      </trkpt>
      <trkpt lat="45.99113" lon="-1.02858">
        <ele>49.099256</ele>
        <time>2022-12-21T12:54:27.343Z</time>
      </trkpt>
      <trkpt lat="45.99104" lon="-1.02862">
        <ele>48.991385</ele>
        <time>2022-12-21T12:54:29.343Z</time>
      </trkpt>
      <trkpt lat="45.99094" lon="-1.02867">
        <ele>48.880922</ele>
        <time>2022-12-21T12:54:31.343Z</time>
      </trkpt>
      <trkpt lat="45.99085" lon="-1.02872">
        <ele>48.778595</ele>
        <time>2022-12-21T12:54:33.344Z</time>
      </trkpt>
      <trkpt lat="45.99076" lon="-1.02876">
        <ele>48.679261</ele>
        <time>2022-12-21T12:54:35.338Z</time>
      </trkpt>
      <trkpt lat="45.99064" lon="-1.02881">
        <ele>48.53889</ele>
        <time>2022-12-21T12:54:38.346Z</time>
      </trkpt>
      <trkpt lat="45.99051" lon="-1.02886">
        <ele>48.405652</ele>
        <time>2022-12-21T12:54:41.341Z</time>
      </trkpt>
      <trkpt lat="45.9904" lon="-1.0289">
        <ele>48.280195</ele>
        <time>2022-12-21T12:54:44.347Z</time>
      </trkpt>
      <trkpt lat="45.99028" lon="-1.02894">
        <ele>48.147836</ele>
        <time>2022-12-21T12:54:47.350Z</time>
      </trkpt>
      <trkpt lat="45.99014" lon="-1.02899">
        <ele>47.999403</ele>
        <time>2022-12-21T12:54:50.348Z</time>
      </trkpt>
      <trkpt lat="45.99005" lon="-1.02904">
        <ele>47.895927</ele>
        <time>2022-12-21T12:54:52.342Z</time>
      </trkpt>
      <trkpt lat="45.98992" lon="-1.02909">
        <ele>47.762833</ele>
        <time>2022-12-21T12:54:55.352Z</time>
      </trkpt>
      <trkpt lat="45.98983" lon="-1.02911">
        <ele>47.669197</ele>
        <time>2022-12-21T12:54:57.351Z</time>
      </trkpt>
      <trkpt lat="45.98974" lon="-1.02914">
        <ele>47.578058</ele>
        <time>2022-12-21T12:54:59.344Z</time>
      </trkpt>
      <trkpt lat="45.98966" lon="-1.02919">
        <ele>47.488545</ele>
        <time>2022-12-21T12:55:01.356Z</time>
      </trkpt>
      <trkpt lat="45.98954" lon="-1.02925">
        <ele>47.362107</ele>
        <time>2022-12-21T12:55:04.345Z</time>
      </trkpt>
      <trkpt lat="45.98942" lon="-1.02932">
        <ele>47.2366</ele>
        <time>2022-12-21T12:55:07.341Z</time>
      </trkpt>
      <trkpt lat="45.9893" lon="-1.0294">
        <ele>47.10669</ele>
        <time>2022-12-21T12:55:10.344Z</time>
      </trkpt>
      <trkpt lat="45.98922" lon="-1.02946">
        <ele>47.017297</ele>
        <time>2022-12-21T12:55:12.353Z</time>
      </trkpt>
      <trkpt lat="45.98912" lon="-1.02955">
        <ele>46.899147</ele>
        <time>2022-12-21T12:55:15.346Z</time>
      </trkpt>
      <trkpt lat="45.98904" lon="-1.02964">
        <ele>46.799152</ele>
        <time>2022-12-21T12:55:18.349Z</time>
      </trkpt>
      <trkpt lat="45.98896" lon="-1.02971">
        <ele>46.705571</ele>
        <time>2022-12-21T12:55:21.355Z</time>
      </trkpt>
      <trkpt lat="45.98888" lon="-1.0298">
        <ele>46.60436</ele>
        <time>2022-12-21T12:55:24.350Z</time>
      </trkpt>
      <trkpt lat="45.98879" lon="-1.0299">
        <ele>46.495024</ele>
        <time>2022-12-21T12:55:27.342Z</time>
      </trkpt>
      <trkpt lat="45.98872" lon="-1.02997">
        <ele>46.403094</ele>
        <time>2022-12-21T12:55:30.342Z</time>
      </trkpt>
      <trkpt lat="45.98864" lon="-1.03007">
        <ele>46.300151</ele>
        <time>2022-12-21T12:55:34.322Z</time>
      </trkpt>
      <trkpt lat="45.98855" lon="-1.03017">
        <ele>46.188398</ele>
        <time>2022-12-21T12:55:38.342Z</time>
      </trkpt>
      <trkpt lat="45.98847" lon="-1.03025">
        <ele>46.206097</ele>
        <time>2022-12-21T12:55:42.326Z</time>
      </trkpt>
      <trkpt lat="45.98837" lon="-1.03034">
        <ele>46.443209</ele>
        <time>2022-12-21T12:55:46.344Z</time>
      </trkpt>
      <trkpt lat="45.98828" lon="-1.03045">
        <ele>46.693651</ele>
        <time>2022-12-21T12:55:50.326Z</time>
      </trkpt>
      <trkpt lat="45.9882" lon="-1.03053">
        <ele>46.889485</ele>
        <time>2022-12-21T12:55:53.351Z</time>
      </trkpt>
      <trkpt lat="45.98811" lon="-1.03061">
        <ele>47.106427</ele>
        <time>2022-12-21T12:55:56.351Z</time>
      </trkpt>
      <trkpt lat="45.98803" lon="-1.03068">
        <ele>47.30994</ele>
        <time>2022-12-21T12:55:59.351Z</time>
      </trkpt>
      <trkpt lat="45.98795" lon="-1.03075">
        <ele>47.500876</ele>
        <time>2022-12-21T12:56:02.354Z</time>
      </trkpt>
      <trkpt lat="45.98787" lon="-1.03083">
        <ele>47.699215</ele>
        <time>2022-12-21T12:56:05.345Z</time>
      </trkpt>
      <trkpt lat="45.98779" lon="-1.03091">
        <ele>47.90094</ele>
        <time>2022-12-21T12:56:08.334Z</time>
      </trkpt>
      <trkpt lat="45.98769" lon="-1.03099">
        <ele>48.143222</ele>
        <time>2022-12-21T12:56:12.354Z</time>
      </trkpt>
      <trkpt lat="45.9876" lon="-1.03107">
        <ele>48.353226</ele>
        <time>2022-12-21T12:56:16.402Z</time>
      </trkpt>
      <trkpt lat="45.98751" lon="-1.03115">
        <ele>48.579831</ele>
        <time>2022-12-21T12:56:21.344Z</time>
      </trkpt>
      <trkpt lat="45.98742" lon="-1.03123">
        <ele>48.800216</ele>
        <time>2022-12-21T12:56:26.341Z</time>
      </trkpt>
      <trkpt lat="45.98733" lon="-1.03132">
        <ele>49.022333</ele>
        <time>2022-12-21T12:56:31.350Z</time>
      </trkpt>
      <trkpt lat="45.98726" lon="-1.03141">
        <ele>49.220909</ele>
        <time>2022-12-21T12:56:36.341Z</time>
      </trkpt>
      <trkpt lat="45.98718" lon="-1.03147">
        <ele>49.407716</ele>
        <time>2022-12-21T12:56:40.334Z</time>
      </trkpt>
      <trkpt lat="45.98709" lon="-1.03153">
        <ele>49.605896</ele>
        <time>2022-12-21T12:56:45.405Z</time>
      </trkpt>
      <trkpt lat="45.98701" lon="-1.03161">
        <ele>49.813716</ele>
        <time>2022-12-21T12:56:50.349Z</time>
      </trkpt>
      <trkpt lat="45.98692" lon="-1.03166">
        <ele>49.665279</ele>
        <time>2022-12-21T12:56:55.343Z</time>
      </trkpt>
      <trkpt lat="45.98684" lon="-1.03158">
        <ele>49.412879</ele>
        <time>2022-12-21T12:57:01.342Z</time>
      </trkpt>
      <trkpt lat="45.98684" lon="-1.03143">
        <ele>49.137235</ele>
        <time>2022-12-21T12:57:06.344Z</time>
      </trkpt>
      <trkpt lat="45.98684" lon="-1.03126">
        <ele>48.834579</ele>
        <time>2022-12-21T12:57:10.335Z</time>
      </trkpt>
      <trkpt lat="45.98682" lon="-1.0311">
        <ele>48.555033</ele>
        <time>2022-12-21T12:57:13.353Z</time>
      </trkpt>
      <trkpt lat="45.98678" lon="-1.03094">
        <ele>48.256036</ele>
        <time>2022-12-21T12:57:16.348Z</time>
      </trkpt>
      <trkpt lat="45.98673" lon="-1.03079">
        <ele>47.95308</ele>
        <time>2022-12-21T12:57:19.353Z</time>
      </trkpt>
      <trkpt lat="45.98668" lon="-1.03061">
        <ele>47.626294</ele>
        <time>2022-12-21T12:57:22.354Z</time>
      </trkpt>
      <trkpt lat="45.98665" lon="-1.03049">
        <ele>47.394224</ele>
        <time>2022-12-21T12:57:24.344Z</time>
      </trkpt>
      <trkpt lat="45.9866" lon="-1.03037">
        <ele>47.143075</ele>
        <time>2022-12-21T12:57:26.404Z</time>
      </trkpt>
      <trkpt lat="45.98656" lon="-1.03024">
        <ele>46.893526</ele>
        <time>2022-12-21T12:57:28.322Z</time>
      </trkpt>
      <trkpt lat="45.98652" lon="-1.03012">
        <ele>46.646142</ele>
        <time>2022-12-21T12:57:30.334Z</time>
      </trkpt>
      <trkpt lat="45.98649" lon="-1.02999">
        <ele>46.402921</ele>
        <time>2022-12-21T12:57:32.353Z</time>
      </trkpt>
      <trkpt lat="45.98644" lon="-1.02987">
        <ele>46.171516</ele>
        <time>2022-12-21T12:57:34.348Z</time>
      </trkpt>
      <trkpt lat="45.9864" lon="-1.02974">
        <ele>45.917119</ele>
        <time>2022-12-21T12:57:36.349Z</time>
      </trkpt>
      <trkpt lat="45.98636" lon="-1.02961">
        <ele>45.654118</ele>
        <time>2022-12-21T12:57:38.352Z</time>
      </trkpt>
      <trkpt lat="45.98631" lon="-1.02946">
        <ele>45.368014</ele>
        <time>2022-12-21T12:57:40.347Z</time>
      </trkpt>
      <trkpt lat="45.98626" lon="-1.02931">
        <ele>45.240049</ele>
        <time>2022-12-21T12:57:42.350Z</time>
      </trkpt>
      <trkpt lat="45.98622" lon="-1.02915">
        <ele>45.223882</ele>
        <time>2022-12-21T12:57:44.338Z</time>
      </trkpt>
      <trkpt lat="45.98617" lon="-1.02899">
        <ele>45.207555</ele>
        <time>2022-12-21T12:57:46.355Z</time>
      </trkpt>
      <trkpt lat="45.98614" lon="-1.02885">
        <ele>45.19332</ele>
        <time>2022-12-21T12:57:48.344Z</time>
      </trkpt>
      <trkpt lat="45.9861" lon="-1.02873">
        <ele>45.180827</ele>
        <time>2022-12-21T12:57:50.344Z</time>
      </trkpt>
      <trkpt lat="45.98605" lon="-1.02856">
        <ele>45.163412</ele>
        <time>2022-12-21T12:57:53.350Z</time>
      </trkpt>
      <trkpt lat="45.986" lon="-1.0284">
        <ele>45.14702</ele>
        <time>2022-12-21T12:57:56.351Z</time>
      </trkpt>
      <trkpt lat="45.98596" lon="-1.02826">
        <ele>45.13305</ele>
        <time>2022-12-21T12:57:59.345Z</time>
      </trkpt>
      <trkpt lat="45.98592" lon="-1.02814">
        <ele>45.120688</ele>
        <time>2022-12-21T12:58:02.352Z</time>
      </trkpt>
      <trkpt lat="45.98587" lon="-1.02801">
        <ele>45.106659</ele>
        <time>2022-12-21T12:58:05.329Z</time>
      </trkpt>
      <trkpt lat="45.98582" lon="-1.02787">
        <ele>45.092517</ele>
        <time>2022-12-21T12:58:08.353Z</time>
      </trkpt>
      <trkpt lat="45.98578" lon="-1.02773">
        <ele>45.077698</ele>
        <time>2022-12-21T12:58:12.408Z</time>
      </trkpt>
      <trkpt lat="45.98574" lon="-1.02759">
        <ele>45.063843</ele>
        <time>2022-12-21T12:58:16.348Z</time>
      </trkpt>
      <trkpt lat="45.9857" lon="-1.02748">
        <ele>45.051355</ele>
        <time>2022-12-21T12:58:19.341Z</time>
      </trkpt>
      <trkpt lat="45.98565" lon="-1.02735">
        <ele>45.038113</ele>
        <time>2022-12-21T12:58:22.345Z</time>
      </trkpt>
      <trkpt lat="45.98561" lon="-1.02722">
        <ele>45.024596</ele>
        <time>2022-12-21T12:58:25.335Z</time>
      </trkpt>
      <trkpt lat="45.98557" lon="-1.02708">
        <ele>45.010485</ele>
        <time>2022-12-21T12:58:28.355Z</time>
      </trkpt>
      <trkpt lat="45.98551" lon="-1.02694">
        <ele>45.011185</ele>
        <time>2022-12-21T12:58:31.353Z</time>
      </trkpt>
      <trkpt lat="45.98546" lon="-1.0268">
        <ele>45.01787</ele>
        <time>2022-12-21T12:58:34.342Z</time>
      </trkpt>
      <trkpt lat="45.9854" lon="-1.02665">
        <ele>45.024624</ele>
        <time>2022-12-21T12:58:37.345Z</time>
      </trkpt>
      <trkpt lat="45.98535" lon="-1.02649">
        <ele>45.031377</ele>
        <time>2022-12-21T12:58:40.340Z</time>
      </trkpt>
      <trkpt lat="45.98529" lon="-1.02634">
        <ele>45.038367</ele>
        <time>2022-12-21T12:58:43.343Z</time>
      </trkpt>
      <trkpt lat="45.98523" lon="-1.02618">
        <ele>45.045268</ele>
        <time>2022-12-21T12:58:46.347Z</time>
      </trkpt>
      <trkpt lat="45.98517" lon="-1.02603">
        <ele>45.052293</ele>
        <time>2022-12-21T12:58:49.352Z</time>
      </trkpt>
      <trkpt lat="45.98511" lon="-1.02587">
        <ele>45.059433</ele>
        <time>2022-12-21T12:58:52.406Z</time>
      </trkpt>
      <trkpt lat="45.98505" lon="-1.02571">
        <ele>45.066651</ele>
        <time>2022-12-21T12:58:55.352Z</time>
      </trkpt>
      <trkpt lat="45.98499" lon="-1.02556">
        <ele>45.073357</ele>
        <time>2022-12-21T12:58:58.403Z</time>
      </trkpt>
      <trkpt lat="45.98494" lon="-1.02541">
        <ele>45.080066</ele>
        <time>2022-12-21T12:59:01.352Z</time>
      </trkpt>
      <trkpt lat="45.98488" lon="-1.02524">
        <ele>45.087356</ele>
        <time>2022-12-21T12:59:04.407Z</time>
      </trkpt>
      <trkpt lat="45.98482" lon="-1.02507">
        <ele>45.094853</ele>
        <time>2022-12-21T12:59:07.344Z</time>
      </trkpt>
      <trkpt lat="45.98477" lon="-1.02491">
        <ele>45.102114</ele>
        <time>2022-12-21T12:59:10.388Z</time>
      </trkpt>
      <trkpt lat="45.98471" lon="-1.02476">
        <ele>45.108759</ele>
        <time>2022-12-21T12:59:13.342Z</time>
      </trkpt>
      <trkpt lat="45.98466" lon="-1.02461">
        <ele>45.084338</ele>
        <time>2022-12-21T12:59:16.380Z</time>
      </trkpt>
      <trkpt lat="45.9846" lon="-1.02445">
        <ele>45.058967</ele>
        <time>2022-12-21T12:59:19.325Z</time>
      </trkpt>
      <trkpt lat="45.98454" lon="-1.02429">
        <ele>45.032182</ele>
        <time>2022-12-21T12:59:22.403Z</time>
      </trkpt>
      <trkpt lat="45.98448" lon="-1.02412">
        <ele>45.005111</ele>
        <time>2022-12-21T12:59:25.322Z</time>
      </trkpt>
      <trkpt lat="45.98442" lon="-1.02396">
        <ele>44.9781</ele>
        <time>2022-12-21T12:59:28.350Z</time>
      </trkpt>
      <trkpt lat="45.98436" lon="-1.0238">
        <ele>44.951973</ele>
        <time>2022-12-21T12:59:31.343Z</time>
      </trkpt>
      <trkpt lat="45.9843" lon="-1.02365">
        <ele>44.927239</ele>
        <time>2022-12-21T12:59:34.349Z</time>
      </trkpt>
      <trkpt lat="45.98425" lon="-1.02351">
        <ele>44.903888</ele>
        <time>2022-12-21T12:59:37.341Z</time>
      </trkpt>
      <trkpt lat="45.9842" lon="-1.02335">
        <ele>44.879284</ele>
        <time>2022-12-21T12:59:40.352Z</time>
      </trkpt>
      <trkpt lat="45.98414" lon="-1.02321">
        <ele>44.85551</ele>
        <time>2022-12-21T12:59:43.342Z</time>
      </trkpt>
      <trkpt lat="45.98409" lon="-1.02306">
        <ele>44.831774</ele>
        <time>2022-12-21T12:59:46.342Z</time>
      </trkpt>
      <trkpt lat="45.98404" lon="-1.02293">
        <ele>44.80963</ele>
        <time>2022-12-21T12:59:49.340Z</time>
      </trkpt>
      <trkpt lat="45.98399" lon="-1.0228">
        <ele>44.787114</ele>
        <time>2022-12-21T12:59:52.393Z</time>
      </trkpt>
      <trkpt lat="45.98393" lon="-1.02264">
        <ele>44.762252</ele>
        <time>2022-12-21T12:59:55.331Z</time>
      </trkpt>
      <trkpt lat="45.98387" lon="-1.02248">
        <ele>44.735886</ele>
        <time>2022-12-21T12:59:58.401Z</time>
      </trkpt>
      <trkpt lat="45.98382" lon="-1.02232">
        <ele>44.695105</ele>
        <time>2022-12-21T13:00:01.341Z</time>
      </trkpt>
      <trkpt lat="45.98376" lon="-1.02216">
        <ele>44.654348</ele>
        <time>2022-12-21T13:00:04.398Z</time>
      </trkpt>
      <trkpt lat="45.9837" lon="-1.02199">
        <ele>44.612479</ele>
        <time>2022-12-21T13:00:07.351Z</time>
      </trkpt>
      <trkpt lat="45.98364" lon="-1.02183">
        <ele>44.570652</ele>
        <time>2022-12-21T13:00:10.353Z</time>
      </trkpt>
      <trkpt lat="45.98358" lon="-1.02166">
        <ele>44.527116</ele>
        <time>2022-12-21T13:00:13.352Z</time>
      </trkpt>
      <trkpt lat="45.98352" lon="-1.02149">
        <ele>44.483876</ele>
        <time>2022-12-21T13:00:16.333Z</time>
      </trkpt>
      <trkpt lat="45.98345" lon="-1.02133">
        <ele>44.441761</ele>
        <time>2022-12-21T13:00:19.346Z</time>
      </trkpt>
      <trkpt lat="45.9834" lon="-1.02116">
        <ele>44.398522</ele>
        <time>2022-12-21T13:00:22.354Z</time>
      </trkpt>
      <trkpt lat="45.98334" lon="-1.02101">
        <ele>44.359267</ele>
        <time>2022-12-21T13:00:25.322Z</time>
      </trkpt>
      <trkpt lat="45.98329" lon="-1.02088">
        <ele>44.325413</ele>
        <time>2022-12-21T13:00:28.350Z</time>
      </trkpt>
      <trkpt lat="45.98325" lon="-1.02075">
        <ele>44.293515</ele>
        <time>2022-12-21T13:00:31.343Z</time>
      </trkpt>
      <trkpt lat="45.9832" lon="-1.02062">
        <ele>44.258704</ele>
        <time>2022-12-21T13:00:34.353Z</time>
      </trkpt>
      <trkpt lat="45.98315" lon="-1.02049">
        <ele>44.225252</ele>
        <time>2022-12-21T13:00:37.353Z</time>
      </trkpt>
      <trkpt lat="45.9831" lon="-1.02034">
        <ele>44.188929</ele>
        <time>2022-12-21T13:00:40.339Z</time>
      </trkpt>
      <trkpt lat="45.98305" lon="-1.02019">
        <ele>44.15069</ele>
        <time>2022-12-21T13:00:43.345Z</time>
      </trkpt>
      <trkpt lat="45.98299" lon="-1.02005">
        <ele>44.22001</ele>
        <time>2022-12-21T13:00:46.356Z</time>
      </trkpt>
      <trkpt lat="45.98293" lon="-1.01989">
        <ele>44.304995</ele>
        <time>2022-12-21T13:00:49.393Z</time>
      </trkpt>
      <trkpt lat="45.98288" lon="-1.01974">
        <ele>44.391948</ele>
        <time>2022-12-21T13:00:52.344Z</time>
      </trkpt>
      <trkpt lat="45.98282" lon="-1.01958">
        <ele>44.480653</ele>
        <time>2022-12-21T13:00:55.407Z</time>
      </trkpt>
      <trkpt lat="45.98276" lon="-1.01942">
        <ele>44.567606</ele>
        <time>2022-12-21T13:00:58.336Z</time>
      </trkpt>
      <trkpt lat="45.98271" lon="-1.01926">
        <ele>44.655231</ele>
        <time>2022-12-21T13:01:01.409Z</time>
      </trkpt>
      <trkpt lat="45.98265" lon="-1.0191">
        <ele>44.745797</ele>
        <time>2022-12-21T13:01:04.350Z</time>
      </trkpt>
      <trkpt lat="45.98259" lon="-1.01894">
        <ele>44.836704</ele>
        <time>2022-12-21T13:01:07.399Z</time>
      </trkpt>
      <trkpt lat="45.98253" lon="-1.01877">
        <ele>44.928723</ele>
        <time>2022-12-21T13:01:10.348Z</time>
      </trkpt>
      <trkpt lat="45.98248" lon="-1.01862">
        <ele>45.011553</ele>
        <time>2022-12-21T13:01:13.345Z</time>
      </trkpt>
      <trkpt lat="45.98243" lon="-1.01849">
        <ele>45.084516</ele>
        <time>2022-12-21T13:01:16.347Z</time>
      </trkpt>
      <trkpt lat="45.98237" lon="-1.01834">
        <ele>45.16994</ele>
        <time>2022-12-21T13:01:20.354Z</time>
      </trkpt>
      <trkpt lat="45.98232" lon="-1.01822">
        <ele>45.239887</ele>
        <time>2022-12-21T13:01:23.347Z</time>
      </trkpt>
      <trkpt lat="45.98228" lon="-1.01808">
        <ele>45.313311</ele>
        <time>2022-12-21T13:01:26.334Z</time>
      </trkpt>
      <trkpt lat="45.98222" lon="-1.01795">
        <ele>45.387671</ele>
        <time>2022-12-21T13:01:29.353Z</time>
      </trkpt>
      <trkpt lat="45.98218" lon="-1.01781">
        <ele>45.434961</ele>
        <time>2022-12-21T13:01:32.357Z</time>
      </trkpt>
      <trkpt lat="45.98212" lon="-1.01766">
        <ele>45.458665</ele>
        <time>2022-12-21T13:01:35.353Z</time>
      </trkpt>
      <trkpt lat="45.98207" lon="-1.01752">
        <ele>45.480996</ele>
        <time>2022-12-21T13:01:38.344Z</time>
      </trkpt>
      <trkpt lat="45.98201" lon="-1.01737">
        <ele>45.504056</ele>
        <time>2022-12-21T13:01:41.343Z</time>
      </trkpt>
      <trkpt lat="45.98196" lon="-1.01722">
        <ele>45.528256</ele>
        <time>2022-12-21T13:01:44.344Z</time>
      </trkpt>
      <trkpt lat="45.9819" lon="-1.01706">
        <ele>45.552771</ele>
        <time>2022-12-21T13:01:47.349Z</time>
      </trkpt>
      <trkpt lat="45.98185" lon="-1.0169">
        <ele>45.577258</ele>
        <time>2022-12-21T13:01:50.350Z</time>
      </trkpt>
      <trkpt lat="45.98179" lon="-1.01675">
        <ele>45.602016</ele>
        <time>2022-12-21T13:01:53.348Z</time>
      </trkpt>
      <trkpt lat="45.98173" lon="-1.01658">
        <ele>45.628064</ele>
        <time>2022-12-21T13:01:56.350Z</time>
      </trkpt>
      <trkpt lat="45.98167" lon="-1.01641">
        <ele>45.653561</ele>
        <time>2022-12-21T13:01:59.347Z</time>
      </trkpt>
      <trkpt lat="45.98161" lon="-1.01626">
        <ele>45.678101</ele>
        <time>2022-12-21T13:02:02.351Z</time>
      </trkpt>
      <trkpt lat="45.98157" lon="-1.01612">
        <ele>45.699899</ele>
        <time>2022-12-21T13:02:05.354Z</time>
      </trkpt>
      <trkpt lat="45.98152" lon="-1.01599">
        <ele>45.719232</ele>
        <time>2022-12-21T13:02:08.350Z</time>
      </trkpt>
      <trkpt lat="45.98147" lon="-1.01587">
        <ele>45.739683</ele>
        <time>2022-12-21T13:02:11.354Z</time>
      </trkpt>
      <trkpt lat="45.98142" lon="-1.01573">
        <ele>45.761653</ele>
        <time>2022-12-21T13:02:14.355Z</time>
      </trkpt>
      <trkpt lat="45.98137" lon="-1.01558">
        <ele>45.777155</ele>
        <time>2022-12-21T13:02:17.331Z</time>
      </trkpt>
      <trkpt lat="45.98132" lon="-1.01542">
        <ele>45.720572</ele>
        <time>2022-12-21T13:02:20.330Z</time>
      </trkpt>
      <trkpt lat="45.98127" lon="-1.01526">
        <ele>45.661981</ele>
        <time>2022-12-21T13:02:23.351Z</time>
      </trkpt>
      <trkpt lat="45.98121" lon="-1.0151">
        <ele>45.604399</ele>
        <time>2022-12-21T13:02:26.336Z</time>
      </trkpt>
      <trkpt lat="45.98116" lon="-1.01494">
        <ele>45.545728</ele>
        <time>2022-12-21T13:02:29.341Z</time>
      </trkpt>
      <trkpt lat="45.98112" lon="-1.01477">
        <ele>45.486593</ele>
        <time>2022-12-21T13:02:32.351Z</time>
      </trkpt>
      <trkpt lat="45.98107" lon="-1.01459">
        <ele>45.42471</ele>
        <time>2022-12-21T13:02:35.342Z</time>
      </trkpt>
      <trkpt lat="45.98103" lon="-1.01443">
        <ele>45.366419</ele>
        <time>2022-12-21T13:02:38.352Z</time>
      </trkpt>
      <trkpt lat="45.98099" lon="-1.01427">
        <ele>45.311228</ele>
        <time>2022-12-21T13:02:41.330Z</time>
      </trkpt>
      <trkpt lat="45.98095" lon="-1.01412">
        <ele>45.259296</ele>
        <time>2022-12-21T13:02:44.422Z</time>
      </trkpt>
      <trkpt lat="45.98093" lon="-1.01398">
        <ele>45.213125</ele>
        <time>2022-12-21T13:02:47.350Z</time>
      </trkpt>
      <trkpt lat="45.98089" lon="-1.01382">
        <ele>45.156532</ele>
        <time>2022-12-21T13:02:51.360Z</time>
      </trkpt>
      <trkpt lat="45.98087" lon="-1.01368">
        <ele>45.108677</ele>
        <time>2022-12-21T13:02:54.341Z</time>
      </trkpt>
      <trkpt lat="45.98084" lon="-1.01354">
        <ele>45.061308</ele>
        <time>2022-12-21T13:02:57.353Z</time>
      </trkpt>
      <trkpt lat="45.98081" lon="-1.01339">
        <ele>45.012158</ele>
        <time>2022-12-21T13:03:00.353Z</time>
      </trkpt>
      <trkpt lat="45.98078" lon="-1.01322">
        <ele>44.953594</ele>
        <time>2022-12-21T13:03:03.342Z</time>
      </trkpt>
      <trkpt lat="45.98075" lon="-1.01304">
        <ele>44.98404</ele>
        <time>2022-12-21T13:03:06.339Z</time>
      </trkpt>
      <trkpt lat="45.98071" lon="-1.01285">
        <ele>45.059963</ele>
        <time>2022-12-21T13:03:09.343Z</time>
      </trkpt>
      <trkpt lat="45.98069" lon="-1.01267">
        <ele>45.134165</ele>
        <time>2022-12-21T13:03:12.355Z</time>
      </trkpt>
      <trkpt lat="45.98066" lon="-1.0125">
        <ele>45.203899</ele>
        <time>2022-12-21T13:03:15.352Z</time>
      </trkpt>
      <trkpt lat="45.98064" lon="-1.01235">
        <ele>45.267316</ele>
        <time>2022-12-21T13:03:18.353Z</time>
      </trkpt>
      <trkpt lat="45.98062" lon="-1.01219">
        <ele>45.333173</ele>
        <time>2022-12-21T13:03:21.350Z</time>
      </trkpt>
      <trkpt lat="45.98059" lon="-1.01202">
        <ele>45.40374</ele>
        <time>2022-12-21T13:03:24.351Z</time>
      </trkpt>
      <trkpt lat="45.98057" lon="-1.01184">
        <ele>45.476343</ele>
        <time>2022-12-21T13:03:27.353Z</time>
      </trkpt>
      <trkpt lat="45.98055" lon="-1.01165">
        <ele>45.551716</ele>
        <time>2022-12-21T13:03:30.353Z</time>
      </trkpt>
      <trkpt lat="45.98053" lon="-1.01146">
        <ele>45.628672</ele>
        <time>2022-12-21T13:03:33.356Z</time>
      </trkpt>
      <trkpt lat="45.98052" lon="-1.01133">
        <ele>45.681662</ele>
        <time>2022-12-21T13:03:35.347Z</time>
      </trkpt>
      <trkpt lat="45.98051" lon="-1.01114">
        <ele>45.759742</ele>
        <time>2022-12-21T13:03:38.351Z</time>
      </trkpt>
      <trkpt lat="45.98049" lon="-1.01095">
        <ele>45.835953</ele>
        <time>2022-12-21T13:03:41.346Z</time>
      </trkpt>
      <trkpt lat="45.98048" lon="-1.01082">
        <ele>45.889075</ele>
        <time>2022-12-21T13:03:43.328Z</time>
      </trkpt>
      <trkpt lat="45.98047" lon="-1.01064">
        <ele>45.962839</ele>
        <time>2022-12-21T13:03:46.345Z</time>
      </trkpt>
      <trkpt lat="45.98046" lon="-1.01046">
        <ele>45.779988</ele>
        <time>2022-12-21T13:03:49.357Z</time>
      </trkpt>
      <trkpt lat="45.98045" lon="-1.01031">
        <ele>45.580384</ele>
        <time>2022-12-21T13:03:52.356Z</time>
      </trkpt>
      <trkpt lat="45.98045" lon="-1.01015">
        <ele>45.374161</ele>
        <time>2022-12-21T13:03:55.350Z</time>
      </trkpt>
      <trkpt lat="45.98044" lon="-1.00998">
        <ele>45.151135</ele>
        <time>2022-12-21T13:03:58.350Z</time>
      </trkpt>
      <trkpt lat="45.98043" lon="-1.0098">
        <ele>44.917106</ele>
        <time>2022-12-21T13:04:01.355Z</time>
      </trkpt>
      <trkpt lat="45.98042" lon="-1.00961">
        <ele>44.674377</ele>
        <time>2022-12-21T13:04:04.348Z</time>
      </trkpt>
      <trkpt lat="45.98042" lon="-1.00942">
        <ele>44.435733</ele>
        <time>2022-12-21T13:04:07.353Z</time>
      </trkpt>
      <trkpt lat="45.98041" lon="-1.00922">
        <ele>44.179302</ele>
        <time>2022-12-21T13:04:10.343Z</time>
      </trkpt>
      <trkpt lat="45.9804" lon="-1.00904">
        <ele>43.937041</ele>
        <time>2022-12-21T13:04:13.352Z</time>
      </trkpt>
      <trkpt lat="45.98039" lon="-1.00885">
        <ele>43.696746</ele>
        <time>2022-12-21T13:04:16.355Z</time>
      </trkpt>
      <trkpt lat="45.98038" lon="-1.00865">
        <ele>43.444177</ele>
        <time>2022-12-21T13:04:19.342Z</time>
      </trkpt>
      <trkpt lat="45.98037" lon="-1.00848">
        <ele>43.214269</ele>
        <time>2022-12-21T13:04:22.346Z</time>
      </trkpt>
      <trkpt lat="45.98036" lon="-1.0083">
        <ele>42.991057</ele>
        <time>2022-12-21T13:04:25.321Z</time>
      </trkpt>
      <trkpt lat="45.98035" lon="-1.00814">
        <ele>42.78456</ele>
        <time>2022-12-21T13:04:28.331Z</time>
      </trkpt>
      <trkpt lat="45.98035" lon="-1.00797">
        <ele>42.643822</ele>
        <time>2022-12-21T13:04:31.352Z</time>
      </trkpt>
      <trkpt lat="45.98034" lon="-1.00779">
        <ele>42.658714</ele>
        <time>2022-12-21T13:04:34.349Z</time>
      </trkpt>
      <trkpt lat="45.98033" lon="-1.00761">
        <ele>42.673743</ele>
        <time>2022-12-21T13:04:37.342Z</time>
      </trkpt>
      <trkpt lat="45.98032" lon="-1.00742">
        <ele>42.689091</ele>
        <time>2022-12-21T13:04:40.353Z</time>
      </trkpt>
      <trkpt lat="45.98032" lon="-1.00723">
        <ele>42.70503</ele>
        <time>2022-12-21T13:04:43.341Z</time>
      </trkpt>
      <trkpt lat="45.98031" lon="-1.0071">
        <ele>42.715896</ele>
        <time>2022-12-21T13:04:45.341Z</time>
      </trkpt>
      <trkpt lat="45.9803" lon="-1.00697">
        <ele>42.726949</ele>
        <time>2022-12-21T13:04:47.344Z</time>
      </trkpt>
      <trkpt lat="45.98029" lon="-1.00683">
        <ele>42.738178</ele>
        <time>2022-12-21T13:04:49.351Z</time>
      </trkpt>
      <trkpt lat="45.98027" lon="-1.00671">
        <ele>42.748874</ele>
        <time>2022-12-21T13:04:51.356Z</time>
      </trkpt>
      <trkpt lat="45.98026" lon="-1.00653">
        <ele>42.763294</ele>
        <time>2022-12-21T13:04:54.348Z</time>
      </trkpt>
      <trkpt lat="45.98025" lon="-1.00639">
        <ele>42.775624</ele>
        <time>2022-12-21T13:04:57.350Z</time>
      </trkpt>
      <trkpt lat="45.98023" lon="-1.00623">
        <ele>42.788792</ele>
        <time>2022-12-21T13:05:00.348Z</time>
      </trkpt>
      <trkpt lat="45.98022" lon="-1.00606">
        <ele>42.80287</ele>
        <time>2022-12-21T13:05:03.343Z</time>
      </trkpt>
      <trkpt lat="45.98022" lon="-1.00588">
        <ele>42.81779</ele>
        <time>2022-12-21T13:05:06.345Z</time>
      </trkpt>
      <trkpt lat="45.98021" lon="-1.0057">
        <ele>42.833023</ele>
        <time>2022-12-21T13:05:09.351Z</time>
      </trkpt>
      <trkpt lat="45.9802" lon="-1.0055">
        <ele>42.848978</ele>
        <time>2022-12-21T13:05:12.349Z</time>
      </trkpt>
      <trkpt lat="45.98019" lon="-1.00537">
        <ele>42.871375</ele>
        <time>2022-12-21T13:05:14.356Z</time>
      </trkpt>
      <trkpt lat="45.98019" lon="-1.00524">
        <ele>42.900719</ele>
        <time>2022-12-21T13:05:16.384Z</time>
      </trkpt>
      <trkpt lat="45.98017" lon="-1.00506">
        <ele>42.940527</ele>
        <time>2022-12-21T13:05:19.354Z</time>
      </trkpt>
      <trkpt lat="45.98017" lon="-1.00489">
        <ele>42.977977</ele>
        <time>2022-12-21T13:05:22.410Z</time>
      </trkpt>
      <trkpt lat="45.98016" lon="-1.00472">
        <ele>43.01419</ele>
        <time>2022-12-21T13:05:25.350Z</time>
      </trkpt>
      <trkpt lat="45.98016" lon="-1.00456">
        <ele>43.049071</ele>
        <time>2022-12-21T13:05:28.392Z</time>
      </trkpt>
      <trkpt lat="45.98015" lon="-1.00441">
        <ele>43.081548</ele>
        <time>2022-12-21T13:05:31.353Z</time>
      </trkpt>
      <trkpt lat="45.98013" lon="-1.00426">
        <ele>43.11617</ele>
        <time>2022-12-21T13:05:34.399Z</time>
      </trkpt>
      <trkpt lat="45.98013" lon="-1.00411">
        <ele>43.149284</ele>
        <time>2022-12-21T13:05:37.345Z</time>
      </trkpt>
      <trkpt lat="45.98014" lon="-1.00396">
        <ele>43.18242</ele>
        <time>2022-12-21T13:05:40.346Z</time>
      </trkpt>
      <trkpt lat="45.98015" lon="-1.00379">
        <ele>43.218378</ele>
        <time>2022-12-21T13:05:43.347Z</time>
      </trkpt>
      <trkpt lat="45.98017" lon="-1.00364">
        <ele>43.253394</ele>
        <time>2022-12-21T13:05:46.354Z</time>
      </trkpt>
      <trkpt lat="45.98018" lon="-1.00349">
        <ele>43.285011</ele>
        <time>2022-12-21T13:05:49.351Z</time>
      </trkpt>
      <trkpt lat="45.9802" lon="-1.00335">
        <ele>43.317587</ele>
        <time>2022-12-21T13:05:52.350Z</time>
      </trkpt>
      <trkpt lat="45.98021" lon="-1.0032">
        <ele>43.348945</ele>
        <time>2022-12-21T13:05:55.352Z</time>
      </trkpt>
      <trkpt lat="45.98022" lon="-1.00307">
        <ele>43.377955</ele>
        <time>2022-12-21T13:05:58.349Z</time>
      </trkpt>
      <trkpt lat="45.98022" lon="-1.00291">
        <ele>43.414081</ele>
        <time>2022-12-21T13:06:02.357Z</time>
      </trkpt>
      <trkpt lat="45.98021" lon="-1.00277">
        <ele>43.325425</ele>
        <time>2022-12-21T13:06:05.401Z</time>
      </trkpt>
      <trkpt lat="45.9802" lon="-1.00263">
        <ele>43.208549</ele>
        <time>2022-12-21T13:06:08.356Z</time>
      </trkpt>
      <trkpt lat="45.98019" lon="-1.00249">
        <ele>43.082319</ele>
        <time>2022-12-21T13:06:11.429Z</time>
      </trkpt>
      <trkpt lat="45.98018" lon="-1.00233">
        <ele>42.944136</ele>
        <time>2022-12-21T13:06:14.355Z</time>
      </trkpt>
      <trkpt lat="45.98018" lon="-1.00216">
        <ele>42.799121</ele>
        <time>2022-12-21T13:06:17.434Z</time>
      </trkpt>
      <trkpt lat="45.98017" lon="-1.00198">
        <ele>42.651865</ele>
        <time>2022-12-21T13:06:20.347Z</time>
      </trkpt>
      <trkpt lat="45.98016" lon="-1.00182">
        <ele>42.512879</ele>
        <time>2022-12-21T13:06:23.406Z</time>
      </trkpt>
      <trkpt lat="45.98015" lon="-1.00167">
        <ele>42.382592</ele>
        <time>2022-12-21T13:06:26.330Z</time>
      </trkpt>
      <trkpt lat="45.9801" lon="-1.00154">
        <ele>42.258004</ele>
        <time>2022-12-21T13:06:29.332Z</time>
      </trkpt>
      <trkpt lat="45.98004" lon="-1.0014">
        <ele>42.114459</ele>
        <time>2022-12-21T13:06:33.353Z</time>
      </trkpt>
      <trkpt lat="45.98002" lon="-1.00126">
        <ele>41.995111</ele>
        <time>2022-12-21T13:06:36.352Z</time>
      </trkpt>
      <trkpt lat="45.98001" lon="-1.00112">
        <ele>41.868926</ele>
        <time>2022-12-21T13:06:39.353Z</time>
      </trkpt>
      <trkpt lat="45.97999" lon="-1.00096">
        <ele>41.735823</ele>
        <time>2022-12-21T13:06:42.342Z</time>
      </trkpt>
      <trkpt lat="45.97998" lon="-1.00079">
        <ele>41.592416</ele>
        <time>2022-12-21T13:06:45.355Z</time>
      </trkpt>
      <trkpt lat="45.97996" lon="-1.00062">
        <ele>41.444968</ele>
        <time>2022-12-21T13:06:48.347Z</time>
      </trkpt>
      <trkpt lat="45.97994" lon="-1.00047">
        <ele>41.307824</ele>
        <time>2022-12-21T13:06:51.352Z</time>
      </trkpt>
      <trkpt lat="45.97991" lon="-1.00033">
        <ele>41.20597</ele>
        <time>2022-12-21T13:06:54.357Z</time>
      </trkpt>
      <trkpt lat="45.97988" lon="-1.0002">
        <ele>41.168173</ele>
        <time>2022-12-21T13:06:57.349Z</time>
      </trkpt>
      <trkpt lat="45.97983" lon="-1.00007">
        <ele>41.128009</ele>
        <time>2022-12-21T13:07:00.352Z</time>
      </trkpt>
      <trkpt lat="45.97977" lon="-0.99994">
        <ele>41.085301</ele>
        <time>2022-12-21T13:07:03.350Z</time>
      </trkpt>
      <trkpt lat="45.9797" lon="-0.9998">
        <ele>41.04105</ele>
        <time>2022-12-21T13:07:06.355Z</time>
      </trkpt>
      <trkpt lat="45.97964" lon="-0.99966">
        <ele>40.995853</ele>
        <time>2022-12-21T13:07:09.356Z</time>
      </trkpt>
      <trkpt lat="45.97958" lon="-0.99951">
        <ele>40.950454</ele>
        <time>2022-12-21T13:07:12.361Z</time>
      </trkpt>
      <trkpt lat="45.97951" lon="-0.99937">
        <ele>40.903576</ele>
        <time>2022-12-21T13:07:15.349Z</time>
      </trkpt>
      <trkpt lat="45.97945" lon="-0.99922">
        <ele>40.858081</ele>
        <time>2022-12-21T13:07:18.357Z</time>
      </trkpt>
      <trkpt lat="45.97939" lon="-0.99908">
        <ele>40.812655</ele>
        <time>2022-12-21T13:07:21.357Z</time>
      </trkpt>
      <trkpt lat="45.97933" lon="-0.99893">
        <ele>40.767278</ele>
        <time>2022-12-21T13:07:24.352Z</time>
      </trkpt>
      <trkpt lat="45.97926" lon="-0.99879">
        <ele>40.719939</ele>
        <time>2022-12-21T13:07:27.352Z</time>
      </trkpt>
      <trkpt lat="45.9792" lon="-0.99863">
        <ele>40.67112</ele>
        <time>2022-12-21T13:07:30.348Z</time>
      </trkpt>
      <trkpt lat="45.97913" lon="-0.99847">
        <ele>40.622012</ele>
        <time>2022-12-21T13:07:33.345Z</time>
      </trkpt>
      <trkpt lat="45.97907" lon="-0.99834">
        <ele>40.578645</ele>
        <time>2022-12-21T13:07:36.350Z</time>
      </trkpt>
      <trkpt lat="45.97901" lon="-0.99822">
        <ele>40.541003</ele>
        <time>2022-12-21T13:07:39.344Z</time>
      </trkpt>
      <trkpt lat="45.97896" lon="-0.99811">
        <ele>40.538219</ele>
        <time>2022-12-21T13:07:42.339Z</time>
      </trkpt>
      <trkpt lat="45.97891" lon="-0.99799">
        <ele>40.591698</ele>
        <time>2022-12-21T13:07:45.348Z</time>
      </trkpt>
      <trkpt lat="45.97886" lon="-0.99787">
        <ele>40.646533</ele>
        <time>2022-12-21T13:07:48.350Z</time>
      </trkpt>
      <trkpt lat="45.97881" lon="-0.99774">
        <ele>40.702459</ele>
        <time>2022-12-21T13:07:51.355Z</time>
      </trkpt>
      <trkpt lat="45.97875" lon="-0.99761">
        <ele>40.760316</ele>
        <time>2022-12-21T13:07:54.356Z</time>
      </trkpt>
      <trkpt lat="45.97869" lon="-0.99747">
        <ele>40.821019</ele>
        <time>2022-12-21T13:07:57.435Z</time>
      </trkpt>
      <trkpt lat="45.97863" lon="-0.99733">
        <ele>40.884385</ele>
        <time>2022-12-21T13:08:00.354Z</time>
      </trkpt>
      <trkpt lat="45.97856" lon="-0.9972">
        <ele>40.946207</ele>
        <time>2022-12-21T13:08:03.395Z</time>
      </trkpt>
      <trkpt lat="45.9785" lon="-0.99707">
        <ele>41.004937</ele>
        <time>2022-12-21T13:08:06.357Z</time>
      </trkpt>
      <trkpt lat="45.97843" lon="-0.99694">
        <ele>41.064356</ele>
        <time>2022-12-21T13:08:09.391Z</time>
      </trkpt>
      <trkpt lat="45.97836" lon="-0.99683">
        <ele>41.124423</ele>
        <time>2022-12-21T13:08:12.353Z</time>
      </trkpt>
      <trkpt lat="45.97828" lon="-0.99672">
        <ele>41.184372</ele>
        <time>2022-12-21T13:08:15.414Z</time>
      </trkpt>
      <trkpt lat="45.97821" lon="-0.99661">
        <ele>41.239412</ele>
        <time>2022-12-21T13:08:18.346Z</time>
      </trkpt>
      <trkpt lat="45.97814" lon="-0.9965">
        <ele>41.293545</ele>
        <time>2022-12-21T13:08:21.351Z</time>
      </trkpt>
      <trkpt lat="45.97806" lon="-0.99639">
        <ele>41.353925</ele>
        <time>2022-12-21T13:08:24.356Z</time>
      </trkpt>
      <trkpt lat="45.97798" lon="-0.99627">
        <ele>41.418421</ele>
        <time>2022-12-21T13:08:27.352Z</time>
      </trkpt>
      <trkpt lat="45.9779" lon="-0.99614">
        <ele>41.481463</ele>
        <time>2022-12-21T13:08:30.352Z</time>
      </trkpt>
      <trkpt lat="45.97782" lon="-0.99601">
        <ele>41.558681</ele>
        <time>2022-12-21T13:08:33.351Z</time>
      </trkpt>
      <trkpt lat="45.97774" lon="-0.99588">
        <ele>41.639683</ele>
        <time>2022-12-21T13:08:36.353Z</time>
      </trkpt>
      <trkpt lat="45.97766" lon="-0.99576">
        <ele>41.719971</ele>
        <time>2022-12-21T13:08:39.356Z</time>
      </trkpt>
      <trkpt lat="45.97758" lon="-0.99563">
        <ele>41.800269</ele>
        <time>2022-12-21T13:08:42.355Z</time>
      </trkpt>
      <trkpt lat="45.9775" lon="-0.9955">
        <ele>41.881899</ele>
        <time>2022-12-21T13:08:45.353Z</time>
      </trkpt>
      <trkpt lat="45.97742" lon="-0.99537">
        <ele>41.962409</ele>
        <time>2022-12-21T13:08:48.349Z</time>
      </trkpt>
      <trkpt lat="45.97735" lon="-0.99524">
        <ele>42.042969</ele>
        <time>2022-12-21T13:08:51.344Z</time>
      </trkpt>
      <trkpt lat="45.97726" lon="-0.99512">
        <ele>42.12367</ele>
        <time>2022-12-21T13:08:54.351Z</time>
      </trkpt>
      <trkpt lat="45.97718" lon="-0.995">
        <ele>42.204894</ele>
        <time>2022-12-21T13:08:57.354Z</time>
      </trkpt>
      <trkpt lat="45.9771" lon="-0.99487">
        <ele>42.28581</ele>
        <time>2022-12-21T13:09:00.361Z</time>
      </trkpt>
      <trkpt lat="45.97702" lon="-0.99474">
        <ele>42.365863</ele>
        <time>2022-12-21T13:09:03.343Z</time>
      </trkpt>
      <trkpt lat="45.97695" lon="-0.99463">
        <ele>42.436625</ele>
        <time>2022-12-21T13:09:06.351Z</time>
      </trkpt>
      <trkpt lat="45.97688" lon="-0.99453">
        <ele>42.502062</ele>
        <time>2022-12-21T13:09:09.355Z</time>
      </trkpt>
      <trkpt lat="45.97681" lon="-0.99442">
        <ele>42.57443</ele>
        <time>2022-12-21T13:09:12.352Z</time>
      </trkpt>
      <trkpt lat="45.97673" lon="-0.9943">
        <ele>42.649092</ele>
        <time>2022-12-21T13:09:15.358Z</time>
      </trkpt>
      <trkpt lat="45.97665" lon="-0.99418">
        <ele>42.698441</ele>
        <time>2022-12-21T13:09:18.355Z</time>
      </trkpt>
      <trkpt lat="45.97657" lon="-0.99406">
        <ele>42.660556</ele>
        <time>2022-12-21T13:09:21.353Z</time>
      </trkpt>
      <trkpt lat="45.97649" lon="-0.99394">
        <ele>42.622873</ele>
        <time>2022-12-21T13:09:24.354Z</time>
      </trkpt>
      <trkpt lat="45.97642" lon="-0.99382">
        <ele>42.586321</ele>
        <time>2022-12-21T13:09:27.349Z</time>
      </trkpt>
      <trkpt lat="45.97634" lon="-0.9937">
        <ele>42.54936</ele>
        <time>2022-12-21T13:09:30.350Z</time>
      </trkpt>
      <trkpt lat="45.97627" lon="-0.99359">
        <ele>42.513305</ele>
        <time>2022-12-21T13:09:33.349Z</time>
      </trkpt>
      <trkpt lat="45.97619" lon="-0.99348">
        <ele>42.477759</ele>
        <time>2022-12-21T13:09:36.398Z</time>
      </trkpt>
      <trkpt lat="45.97611" lon="-0.99336">
        <ele>42.441928</ele>
        <time>2022-12-21T13:09:39.357Z</time>
      </trkpt>
      <trkpt lat="45.97605" lon="-0.99326">
        <ele>42.410874</ele>
        <time>2022-12-21T13:09:42.405Z</time>
      </trkpt>
      <trkpt lat="45.97599" lon="-0.99316">
        <ele>42.380301</ele>
        <time>2022-12-21T13:09:45.354Z</time>
      </trkpt>
      <trkpt lat="45.97592" lon="-0.99304">
        <ele>42.34624</ele>
        <time>2022-12-21T13:09:48.411Z</time>
      </trkpt>
      <trkpt lat="45.97585" lon="-0.99292">
        <ele>42.309621</ele>
        <time>2022-12-21T13:09:51.353Z</time>
      </trkpt>
      <trkpt lat="45.97577" lon="-0.9928">
        <ele>42.272004</ele>
        <time>2022-12-21T13:09:54.391Z</time>
      </trkpt>
      <trkpt lat="45.97569" lon="-0.99268">
        <ele>42.233444</ele>
        <time>2022-12-21T13:09:57.346Z</time>
      </trkpt>
      <trkpt lat="45.97561" lon="-0.99255">
        <ele>42.195294</ele>
        <time>2022-12-21T13:10:00.402Z</time>
      </trkpt>
      <trkpt lat="45.97553" lon="-0.99244">
        <ele>42.158644</ele>
        <time>2022-12-21T13:10:03.354Z</time>
      </trkpt>
      <trkpt lat="45.97545" lon="-0.99232">
        <ele>42.121479</ele>
        <time>2022-12-21T13:10:06.400Z</time>
      </trkpt>
      <trkpt lat="45.97538" lon="-0.9922">
        <ele>42.206537</ele>
        <time>2022-12-21T13:10:09.349Z</time>
      </trkpt>
      <trkpt lat="45.9753" lon="-0.99207">
        <ele>42.300696</ele>
        <time>2022-12-21T13:10:12.412Z</time>
      </trkpt>
      <trkpt lat="45.97522" lon="-0.99194">
        <ele>42.397524</ele>
        <time>2022-12-21T13:10:15.355Z</time>
      </trkpt>
      <trkpt lat="45.97514" lon="-0.99181">
        <ele>42.493981</ele>
        <time>2022-12-21T13:10:18.408Z</time>
      </trkpt>
      <trkpt lat="45.97506" lon="-0.99168">
        <ele>42.589394</ele>
        <time>2022-12-21T13:10:21.353Z</time>
      </trkpt>
      <trkpt lat="45.97497" lon="-0.99155">
        <ele>42.685568</ele>
        <time>2022-12-21T13:10:24.403Z</time>
      </trkpt>
      <trkpt lat="45.9749" lon="-0.99143">
        <ele>42.779312</ele>
        <time>2022-12-21T13:10:27.359Z</time>
      </trkpt>
      <trkpt lat="45.97482" lon="-0.9913">
        <ele>42.872531</ele>
        <time>2022-12-21T13:10:30.353Z</time>
      </trkpt>
      <trkpt lat="45.97474" lon="-0.99117">
        <ele>42.964291</ele>
        <time>2022-12-21T13:10:33.353Z</time>
      </trkpt>
      <trkpt lat="45.97466" lon="-0.99106">
        <ele>43.056027</ele>
        <time>2022-12-21T13:10:36.344Z</time>
      </trkpt>
      <trkpt lat="45.97459" lon="-0.99092">
        <ele>43.149766</ele>
        <time>2022-12-21T13:10:39.350Z</time>
      </trkpt>
      <trkpt lat="45.97451" lon="-0.9908">
        <ele>43.243244</ele>
        <time>2022-12-21T13:10:42.345Z</time>
      </trkpt>
      <trkpt lat="45.97443" lon="-0.99068">
        <ele>43.335752</ele>
        <time>2022-12-21T13:10:45.354Z</time>
      </trkpt>
      <trkpt lat="45.97436" lon="-0.99056">
        <ele>43.421249</ele>
        <time>2022-12-21T13:10:48.350Z</time>
      </trkpt>
      <trkpt lat="45.97429" lon="-0.99046">
        <ele>43.498202</ele>
        <time>2022-12-21T13:10:51.353Z</time>
      </trkpt>
      <trkpt lat="45.97423" lon="-0.99036">
        <ele>43.567877</ele>
        <time>2022-12-21T13:10:54.354Z</time>
      </trkpt>
      <trkpt lat="45.97416" lon="-0.99025">
        <ele>43.634233</ele>
        <time>2022-12-21T13:10:57.405Z</time>
      </trkpt>
      <trkpt lat="45.9741" lon="-0.99015">
        <ele>43.697717</ele>
        <time>2022-12-21T13:11:00.354Z</time>
      </trkpt>
      <trkpt lat="45.97403" lon="-0.99003">
        <ele>43.769843</ele>
        <time>2022-12-21T13:11:03.383Z</time>
      </trkpt>
      <trkpt lat="45.97396" lon="-0.98992">
        <ele>43.83796</ele>
        <time>2022-12-21T13:11:06.348Z</time>
      </trkpt>
      <trkpt lat="45.97389" lon="-0.98981">
        <ele>43.907412</ele>
        <time>2022-12-21T13:11:09.404Z</time>
      </trkpt>
      <trkpt lat="45.97382" lon="-0.98969">
        <ele>43.977502</ele>
        <time>2022-12-21T13:11:12.344Z</time>
      </trkpt>
      <trkpt lat="45.97375" lon="-0.98958">
        <ele>44.048227</ele>
        <time>2022-12-21T13:11:15.412Z</time>
      </trkpt>
      <trkpt lat="45.97367" lon="-0.98947">
        <ele>44.119037</ele>
        <time>2022-12-21T13:11:18.365Z</time>
      </trkpt>
      <trkpt lat="45.9736" lon="-0.98935">
        <ele>44.190763</ele>
        <time>2022-12-21T13:11:21.409Z</time>
      </trkpt>
      <trkpt lat="45.97352" lon="-0.98924">
        <ele>44.263609</ele>
        <time>2022-12-21T13:11:24.355Z</time>
      </trkpt>
      <trkpt lat="45.97346" lon="-0.98912">
        <ele>44.328659</ele>
        <time>2022-12-21T13:11:27.405Z</time>
      </trkpt>
      <trkpt lat="45.97338" lon="-0.98902">
        <ele>44.401069</ele>
        <time>2022-12-21T13:11:31.355Z</time>
      </trkpt>
      <trkpt lat="45.97331" lon="-0.98892">
        <ele>44.468235</ele>
        <time>2022-12-21T13:11:35.344Z</time>
      </trkpt>
      <trkpt lat="45.97322" lon="-0.98883">
        <ele>44.536661</ele>
        <time>2022-12-21T13:11:39.390Z</time>
      </trkpt>
      <trkpt lat="45.97312" lon="-0.98878">
        <ele>44.609351</ele>
        <time>2022-12-21T13:11:43.350Z</time>
      </trkpt>
      <trkpt lat="45.97302" lon="-0.98873">
        <ele>44.675034</ele>
        <time>2022-12-21T13:11:47.353Z</time>
      </trkpt>
      <trkpt lat="45.97294" lon="-0.98865">
        <ele>44.760828</ele>
        <time>2022-12-21T13:11:51.384Z</time>
      </trkpt>
      <trkpt lat="45.97286" lon="-0.98853">
        <ele>44.996972</ele>
        <time>2022-12-21T13:11:55.348Z</time>
      </trkpt>
      <trkpt lat="45.9728" lon="-0.98843">
        <ele>45.18775</ele>
        <time>2022-12-21T13:11:58.355Z</time>
      </trkpt>
      <trkpt lat="45.97274" lon="-0.98833">
        <ele>45.391975</ele>
        <time>2022-12-21T13:12:01.356Z</time>
      </trkpt>
      <trkpt lat="45.97267" lon="-0.98821">
        <ele>45.611271</ele>
        <time>2022-12-21T13:12:04.354Z</time>
      </trkpt>
      <trkpt lat="45.9726" lon="-0.9881">
        <ele>45.817674</ele>
        <time>2022-12-21T13:12:07.353Z</time>
      </trkpt>
      <trkpt lat="45.97253" lon="-0.98797">
        <ele>46.057563</ele>
        <time>2022-12-21T13:12:11.353Z</time>
      </trkpt>
      <trkpt lat="45.97247" lon="-0.98783">
        <ele>46.304442</ele>
        <time>2022-12-21T13:12:15.346Z</time>
      </trkpt>
      <trkpt lat="45.97241" lon="-0.98772">
        <ele>46.498857</ele>
        <time>2022-12-21T13:12:18.352Z</time>
      </trkpt>
      <trkpt lat="45.97235" lon="-0.9876">
        <ele>46.71121</ele>
        <time>2022-12-21T13:12:21.353Z</time>
      </trkpt>
      <trkpt lat="45.97228" lon="-0.98748">
        <ele>46.945494</ele>
        <time>2022-12-21T13:12:25.383Z</time>
      </trkpt>
      <trkpt lat="45.97221" lon="-0.98738">
        <ele>47.160324</ele>
        <time>2022-12-21T13:12:29.352Z</time>
      </trkpt>
      <trkpt lat="45.97213" lon="-0.98729">
        <ele>47.366284</ele>
        <time>2022-12-21T13:12:33.400Z</time>
      </trkpt>
      <trkpt lat="45.97204" lon="-0.98719">
        <ele>47.608115</ele>
        <time>2022-12-21T13:12:37.356Z</time>
      </trkpt>
      <trkpt lat="45.97197" lon="-0.98711">
        <ele>47.799112</ele>
        <time>2022-12-21T13:12:40.358Z</time>
      </trkpt>
      <trkpt lat="45.9719" lon="-0.98702">
        <ele>47.989883</ele>
        <time>2022-12-21T13:12:43.343Z</time>
      </trkpt>
      <trkpt lat="45.9718" lon="-0.98693">
        <ele>48.229938</ele>
        <time>2022-12-21T13:12:47.352Z</time>
      </trkpt>
      <trkpt lat="45.97171" lon="-0.98682">
        <ele>48.481063</ele>
        <time>2022-12-21T13:12:51.352Z</time>
      </trkpt>
      <trkpt lat="45.97163" lon="-0.98673">
        <ele>48.592007</ele>
        <time>2022-12-21T13:12:54.355Z</time>
      </trkpt>
      <trkpt lat="45.97154" lon="-0.98664">
        <ele>48.721037</ele>
        <time>2022-12-21T13:12:58.357Z</time>
      </trkpt>
      <trkpt lat="45.97146" lon="-0.98656">
        <ele>48.821767</ele>
        <time>2022-12-21T13:13:01.403Z</time>
      </trkpt>
      <trkpt lat="45.97137" lon="-0.98645">
        <ele>48.951472</ele>
        <time>2022-12-21T13:13:05.344Z</time>
      </trkpt>
      <trkpt lat="45.97129" lon="-0.98636">
        <ele>49.060222</ele>
        <time>2022-12-21T13:13:08.350Z</time>
      </trkpt>
      <trkpt lat="45.97121" lon="-0.98627">
        <ele>49.169422</ele>
        <time>2022-12-21T13:13:11.355Z</time>
      </trkpt>
      <trkpt lat="45.97113" lon="-0.98619">
        <ele>49.280381</ele>
        <time>2022-12-21T13:13:14.362Z</time>
      </trkpt>
      <trkpt lat="45.97105" lon="-0.98609">
        <ele>49.391371</ele>
        <time>2022-12-21T13:13:17.352Z</time>
      </trkpt>
      <trkpt lat="45.97097" lon="-0.98601">
        <ele>49.497925</ele>
        <time>2022-12-21T13:13:20.354Z</time>
      </trkpt>
      <trkpt lat="45.97089" lon="-0.9859">
        <ele>49.616393</ele>
        <time>2022-12-21T13:13:24.406Z</time>
      </trkpt>
      <trkpt lat="45.97081" lon="-0.98581">
        <ele>49.728779</ele>
        <time>2022-12-21T13:13:29.355Z</time>
      </trkpt>
      <trkpt lat="45.97074" lon="-0.98573">
        <ele>49.829139</ele>
        <time>2022-12-21T13:13:33.344Z</time>
      </trkpt>
      <trkpt lat="45.97066" lon="-0.98566">
        <ele>49.931837</ele>
        <time>2022-12-21T13:13:37.333Z</time>
      </trkpt>
      <trkpt lat="45.97057" lon="-0.98558">
        <ele>50.04238</ele>
        <time>2022-12-21T13:13:41.408Z</time>
      </trkpt>
      <trkpt lat="45.97048" lon="-0.98547">
        <ele>50.169808</ele>
        <time>2022-12-21T13:13:45.352Z</time>
      </trkpt>
      <trkpt lat="45.97041" lon="-0.98538">
        <ele>50.272484</ele>
        <time>2022-12-21T13:13:48.350Z</time>
      </trkpt>
      <trkpt lat="45.97032" lon="-0.98528">
        <ele>50.400214</ele>
        <time>2022-12-21T13:13:52.353Z</time>
      </trkpt>
      <trkpt lat="45.97024" lon="-0.98521">
        <ele>50.474916</ele>
        <time>2022-12-21T13:13:55.352Z</time>
      </trkpt>
      <trkpt lat="45.97016" lon="-0.98513">
        <ele>50.520967</ele>
        <time>2022-12-21T13:13:58.404Z</time>
      </trkpt>
      <trkpt lat="45.97006" lon="-0.98504">
        <ele>50.578827</ele>
        <time>2022-12-21T13:14:02.355Z</time>
      </trkpt>
      <trkpt lat="45.96997" lon="-0.98496">
        <ele>50.631518</ele>
        <time>2022-12-21T13:14:06.357Z</time>
      </trkpt>
      <trkpt lat="45.96989" lon="-0.98489">
        <ele>50.67798</ele>
        <time>2022-12-21T13:14:09.352Z</time>
      </trkpt>
      <trkpt lat="45.9698" lon="-0.9848">
        <ele>50.730165</ele>
        <time>2022-12-21T13:14:13.351Z</time>
      </trkpt>
      <trkpt lat="45.96971" lon="-0.98472">
        <ele>50.779785</ele>
        <time>2022-12-21T13:14:17.350Z</time>
      </trkpt>
      <trkpt lat="45.96964" lon="-0.98464">
        <ele>50.825029</ele>
        <time>2022-12-21T13:14:21.350Z</time>
      </trkpt>
      <trkpt lat="45.96956" lon="-0.98454">
        <ele>50.87843</ele>
        <time>2022-12-21T13:14:25.339Z</time>
      </trkpt>
      <trkpt lat="45.96946" lon="-0.98445">
        <ele>50.933164</ele>
        <time>2022-12-21T13:14:30.347Z</time>
      </trkpt>
      <trkpt lat="45.96938" lon="-0.98438">
        <ele>50.979232</ele>
        <time>2022-12-21T13:14:34.408Z</time>
      </trkpt>
      <trkpt lat="45.96928" lon="-0.98428">
        <ele>51.039965</ele>
        <time>2022-12-21T13:14:38.356Z</time>
      </trkpt>
      <trkpt lat="45.9692" lon="-0.98416">
        <ele>51.095693</ele>
        <time>2022-12-21T13:14:42.355Z</time>
      </trkpt>
      <trkpt lat="45.96913" lon="-0.98407">
        <ele>51.140615</ele>
        <time>2022-12-21T13:14:46.358Z</time>
      </trkpt>
      <trkpt lat="45.96906" lon="-0.98397">
        <ele>51.188681</ele>
        <time>2022-12-21T13:14:50.349Z</time>
      </trkpt>
      <trkpt lat="45.969" lon="-0.98387">
        <ele>51.235014</ele>
        <time>2022-12-21T13:14:54.345Z</time>
      </trkpt>
      <trkpt lat="45.96892" lon="-0.98375">
        <ele>51.291298</ele>
        <time>2022-12-21T13:14:58.334Z</time>
      </trkpt>
      <trkpt lat="45.96886" lon="-0.98364">
        <ele>51.365724</ele>
        <time>2022-12-21T13:15:02.354Z</time>
      </trkpt>
      <trkpt lat="45.96878" lon="-0.98354">
        <ele>51.595536</ele>
        <time>2022-12-21T13:15:06.355Z</time>
      </trkpt>
      <trkpt lat="45.96871" lon="-0.98343">
        <ele>51.819866</ele>
        <time>2022-12-21T13:15:10.353Z</time>
      </trkpt>
      <trkpt lat="45.96865" lon="-0.98333">
        <ele>52.028354</ele>
        <time>2022-12-21T13:15:15.410Z</time>
      </trkpt>
      <trkpt lat="45.96862" lon="-0.98327">
        <ele>52.133161</ele>
        <time>2022-12-21T13:15:44.651Z</time>
      </trkpt>
      <trkpt lat="45.96858" lon="-0.98315">
        <ele>52.340824</ele>
        <time>2022-12-21T13:17:39.334Z</time>
      </trkpt>
      <trkpt lat="45.96848" lon="-0.98311">
        <ele>52.562408</ele>
        <time>2022-12-21T13:17:44.351Z</time>
      </trkpt>
      <trkpt lat="45.96838" lon="-0.98315">
        <ele>52.789011</ele>
        <time>2022-12-21T13:17:50.336Z</time>
      </trkpt>
      <trkpt lat="45.96829" lon="-0.98319">
        <ele>52.987774</ele>
        <time>2022-12-21T13:17:54.327Z</time>
      </trkpt>
      <trkpt lat="45.9682" lon="-0.98324">
        <ele>53.19259</ele>
        <time>2022-12-21T13:17:58.341Z</time>
      </trkpt>
      <trkpt lat="45.96812" lon="-0.98328">
        <ele>53.388364</ele>
        <time>2022-12-21T13:18:02.348Z</time>
      </trkpt>
      <trkpt lat="45.96801" lon="-0.98332">
        <ele>53.622968</ele>
        <time>2022-12-21T13:18:07.332Z</time>
      </trkpt>
      <trkpt lat="45.96792" lon="-0.98337">
        <ele>53.836483</ele>
        <time>2022-12-21T13:18:11.332Z</time>
      </trkpt>
      <trkpt lat="45.96782" lon="-0.98342">
        <ele>54.069898</ele>
        <time>2022-12-21T13:18:15.334Z</time>
      </trkpt>
      <trkpt lat="45.96772" lon="-0.98346">
        <ele>54.2916</ele>
        <time>2022-12-21T13:18:19.333Z</time>
      </trkpt>
      <trkpt lat="45.96762" lon="-0.98349">
        <ele>54.513696</ele>
        <time>2022-12-21T13:18:23.335Z</time>
      </trkpt>
      <trkpt lat="45.96752" lon="-0.98353">
        <ele>54.733626</ele>
        <time>2022-12-21T13:18:27.340Z</time>
      </trkpt>
      <trkpt lat="45.96741" lon="-0.98356">
        <ele>54.9807</ele>
        <time>2022-12-21T13:18:31.332Z</time>
      </trkpt>
      <trkpt lat="45.9673" lon="-0.98359">
        <ele>55.226194</ele>
        <time>2022-12-21T13:18:35.331Z</time>
      </trkpt>
      <trkpt lat="45.96719" lon="-0.98362">
        <ele>55.266578</ele>
        <time>2022-12-21T13:18:39.327Z</time>
      </trkpt>
      <trkpt lat="45.96709" lon="-0.98364">
        <ele>55.29757</ele>
        <time>2022-12-21T13:18:43.330Z</time>
      </trkpt>
      <trkpt lat="45.96699" lon="-0.98369">
        <ele>55.328234</ele>
        <time>2022-12-21T13:18:47.333Z</time>
      </trkpt>
      <trkpt lat="45.9669" lon="-0.98375">
        <ele>55.358329</ele>
        <time>2022-12-21T13:18:51.361Z</time>
      </trkpt>
      <trkpt lat="45.96681" lon="-0.98371">
        <ele>55.385363</ele>
        <time>2022-12-21T13:18:55.342Z</time>
      </trkpt>
      <trkpt lat="45.96673" lon="-0.98364">
        <ele>55.413166</ele>
        <time>2022-12-21T13:18:59.334Z</time>
      </trkpt>
      <trkpt lat="45.96663" lon="-0.98361">
        <ele>55.443884</ele>
        <time>2022-12-21T13:19:03.349Z</time>
      </trkpt>
      <trkpt lat="45.96653" lon="-0.98359">
        <ele>55.47341</ele>
        <time>2022-12-21T13:19:07.346Z</time>
      </trkpt>
      <trkpt lat="45.96643" lon="-0.98359">
        <ele>55.50314</ele>
        <time>2022-12-21T13:19:11.340Z</time>
      </trkpt>
      <trkpt lat="45.96633" lon="-0.98361">
        <ele>55.531892</ele>
        <time>2022-12-21T13:19:15.357Z</time>
      </trkpt>
      <trkpt lat="45.96623" lon="-0.98364">
        <ele>55.561032</ele>
        <time>2022-12-21T13:19:19.336Z</time>
      </trkpt>
      <trkpt lat="45.96613" lon="-0.98369">
        <ele>55.593047</ele>
        <time>2022-12-21T13:19:23.325Z</time>
      </trkpt>
      <trkpt lat="45.96602" lon="-0.98375">
        <ele>55.62625</ele>
        <time>2022-12-21T13:19:27.336Z</time>
      </trkpt>
      <trkpt lat="45.96593" lon="-0.98382">
        <ele>55.658529</ele>
        <time>2022-12-21T13:19:31.335Z</time>
      </trkpt>
      <trkpt lat="45.96583" lon="-0.98388">
        <ele>55.689576</ele>
        <time>2022-12-21T13:19:35.348Z</time>
      </trkpt>
      <trkpt lat="45.96575" lon="-0.98394">
        <ele>55.716217</ele>
        <time>2022-12-21T13:19:38.345Z</time>
      </trkpt>
      <trkpt lat="45.96566" lon="-0.98401">
        <ele>55.745679</ele>
        <time>2022-12-21T13:19:41.343Z</time>
      </trkpt>
      <trkpt lat="45.96557" lon="-0.98409">
        <ele>55.732383</ele>
        <time>2022-12-21T13:19:44.341Z</time>
      </trkpt>
      <trkpt lat="45.96547" lon="-0.98417">
        <ele>55.643875</ele>
        <time>2022-12-21T13:19:47.345Z</time>
      </trkpt>
      <trkpt lat="45.96537" lon="-0.98425">
        <ele>55.55376</ele>
        <time>2022-12-21T13:19:50.360Z</time>
      </trkpt>
      <trkpt lat="45.96528" lon="-0.98435">
        <ele>55.461183</ele>
        <time>2022-12-21T13:19:53.328Z</time>
      </trkpt>
      <trkpt lat="45.96518" lon="-0.98446">
        <ele>55.364663</ele>
        <time>2022-12-21T13:19:56.350Z</time>
      </trkpt>
      <trkpt lat="45.96509" lon="-0.98457">
        <ele>55.269977</ele>
        <time>2022-12-21T13:19:59.339Z</time>
      </trkpt>
      <trkpt lat="45.965" lon="-0.98469">
        <ele>55.177081</ele>
        <time>2022-12-21T13:20:02.337Z</time>
      </trkpt>
      <trkpt lat="45.96493" lon="-0.98481">
        <ele>55.090727</ele>
        <time>2022-12-21T13:20:05.365Z</time>
      </trkpt>
      <trkpt lat="45.96486" lon="-0.98492">
        <ele>55.00793</ele>
        <time>2022-12-21T13:20:08.343Z</time>
      </trkpt>
      <trkpt lat="45.96479" lon="-0.98504">
        <ele>54.922389</ele>
        <time>2022-12-21T13:20:11.349Z</time>
      </trkpt>
      <trkpt lat="45.96472" lon="-0.98515">
        <ele>54.838826</ele>
        <time>2022-12-21T13:20:14.360Z</time>
      </trkpt>
      <trkpt lat="45.96465" lon="-0.98527">
        <ele>54.755672</ele>
        <time>2022-12-21T13:20:17.338Z</time>
      </trkpt>
      <trkpt lat="45.96458" lon="-0.98539">
        <ele>54.668132</ele>
        <time>2022-12-21T13:20:20.342Z</time>
      </trkpt>
      <trkpt lat="45.96449" lon="-0.9855">
        <ele>54.577482</ele>
        <time>2022-12-21T13:20:23.335Z</time>
      </trkpt>
      <trkpt lat="45.96439" lon="-0.98559">
        <ele>54.484576</ele>
        <time>2022-12-21T13:20:26.340Z</time>
      </trkpt>
      <trkpt lat="45.96428" lon="-0.98567">
        <ele>54.386715</ele>
        <time>2022-12-21T13:20:29.346Z</time>
      </trkpt>
      <trkpt lat="45.96416" lon="-0.98573">
        <ele>54.090504</ele>
        <time>2022-12-21T13:20:32.360Z</time>
      </trkpt>
      <trkpt lat="45.96403" lon="-0.98577">
        <ele>53.694624</ele>
        <time>2022-12-21T13:20:35.358Z</time>
      </trkpt>
      <trkpt lat="45.96391" lon="-0.98582">
        <ele>53.304691</ele>
        <time>2022-12-21T13:20:38.340Z</time>
      </trkpt>
      <trkpt lat="45.96379" lon="-0.98585">
        <ele>52.941378</ele>
        <time>2022-12-21T13:20:41.334Z</time>
      </trkpt>
      <trkpt lat="45.96368" lon="-0.98587">
        <ele>52.591197</ele>
        <time>2022-12-21T13:20:44.349Z</time>
      </trkpt>
      <trkpt lat="45.96357" lon="-0.9859">
        <ele>52.246686</ele>
        <time>2022-12-21T13:20:47.339Z</time>
      </trkpt>
      <trkpt lat="45.96346" lon="-0.98593">
        <ele>51.910425</ele>
        <time>2022-12-21T13:20:50.340Z</time>
      </trkpt>
      <trkpt lat="45.96334" lon="-0.98596">
        <ele>51.535766</ele>
        <time>2022-12-21T13:20:53.342Z</time>
      </trkpt>
      <trkpt lat="45.9632" lon="-0.98599">
        <ele>51.123874</ele>
        <time>2022-12-21T13:20:56.350Z</time>
      </trkpt>
      <trkpt lat="45.96307" lon="-0.98602">
        <ele>50.715663</ele>
        <time>2022-12-21T13:20:59.363Z</time>
      </trkpt>
      <trkpt lat="45.96298" lon="-0.98604">
        <ele>50.43923</ele>
        <time>2022-12-21T13:21:01.344Z</time>
      </trkpt>
      <trkpt lat="45.96285" lon="-0.98608">
        <ele>50.025506</ele>
        <time>2022-12-21T13:21:04.358Z</time>
      </trkpt>
      <trkpt lat="45.96275" lon="-0.98611">
        <ele>49.729471</ele>
        <time>2022-12-21T13:21:06.352Z</time>
      </trkpt>
      <trkpt lat="45.96262" lon="-0.98613">
        <ele>49.307298</ele>
        <time>2022-12-21T13:21:09.362Z</time>
      </trkpt>
      <trkpt lat="45.96252" lon="-0.98616">
        <ele>49.006975</ele>
        <time>2022-12-21T13:21:11.345Z</time>
      </trkpt>
      <trkpt lat="45.96243" lon="-0.98619">
        <ele>48.815911</ele>
        <time>2022-12-21T13:21:13.330Z</time>
      </trkpt>
      <trkpt lat="45.96234" lon="-0.98622">
        <ele>48.735496</ele>
        <time>2022-12-21T13:21:15.348Z</time>
      </trkpt>
      <trkpt lat="45.96224" lon="-0.98625">
        <ele>48.65127</ele>
        <time>2022-12-21T13:21:17.327Z</time>
      </trkpt>
      <trkpt lat="45.96214" lon="-0.98628">
        <ele>48.566592</ele>
        <time>2022-12-21T13:21:19.340Z</time>
      </trkpt>
      <trkpt lat="45.96204" lon="-0.98631">
        <ele>48.481085</ele>
        <time>2022-12-21T13:21:21.341Z</time>
      </trkpt>
      <trkpt lat="45.96194" lon="-0.98633">
        <ele>48.395913</ele>
        <time>2022-12-21T13:21:23.338Z</time>
      </trkpt>
      <trkpt lat="45.96184" lon="-0.98635">
        <ele>48.308788</ele>
        <time>2022-12-21T13:21:25.350Z</time>
      </trkpt>
      <trkpt lat="45.96174" lon="-0.98637">
        <ele>48.222724</ele>
        <time>2022-12-21T13:21:27.337Z</time>
      </trkpt>
      <trkpt lat="45.96164" lon="-0.98638">
        <ele>48.139315</ele>
        <time>2022-12-21T13:21:29.363Z</time>
      </trkpt>
      <trkpt lat="45.96155" lon="-0.98639">
        <ele>48.062188</ele>
        <time>2022-12-21T13:21:31.337Z</time>
      </trkpt>
      <trkpt lat="45.96146" lon="-0.9864">
        <ele>47.985906</ele>
        <time>2022-12-21T13:21:33.344Z</time>
      </trkpt>
      <trkpt lat="45.96135" lon="-0.9864">
        <ele>47.89105</ele>
        <time>2022-12-21T13:21:36.349Z</time>
      </trkpt>
      <trkpt lat="45.96125" lon="-0.98642">
        <ele>47.805756</ele>
        <time>2022-12-21T13:21:39.352Z</time>
      </trkpt>
      <trkpt lat="45.96116" lon="-0.98643">
        <ele>47.72532</ele>
        <time>2022-12-21T13:21:42.351Z</time>
      </trkpt>
      <trkpt lat="45.96105" lon="-0.98643">
        <ele>47.633069</ele>
        <time>2022-12-21T13:21:45.345Z</time>
      </trkpt>
      <trkpt lat="45.96094" lon="-0.98642">
        <ele>47.539821</ele>
        <time>2022-12-21T13:21:48.339Z</time>
      </trkpt>
      <trkpt lat="45.96083" lon="-0.98641">
        <ele>47.452362</ele>
        <time>2022-12-21T13:21:51.357Z</time>
      </trkpt>
      <trkpt lat="45.96072" lon="-0.9864">
        <ele>47.359924</ele>
        <time>2022-12-21T13:21:54.358Z</time>
      </trkpt>
      <trkpt lat="45.96062" lon="-0.98637">
        <ele>47.278338</ele>
        <time>2022-12-21T13:21:57.356Z</time>
      </trkpt>
      <trkpt lat="45.96053" lon="-0.98633">
        <ele>47.209105</ele>
        <time>2022-12-21T13:22:00.356Z</time>
      </trkpt>
      <trkpt lat="45.96044" lon="-0.98622">
        <ele>47.125547</ele>
        <time>2022-12-21T13:22:04.334Z</time>
      </trkpt>
      <trkpt lat="45.96036" lon="-0.98609">
        <ele>47.041234</ele>
        <time>2022-12-21T13:22:08.331Z</time>
      </trkpt>
      <trkpt lat="45.96027" lon="-0.98598">
        <ele>46.955844</ele>
        <time>2022-12-21T13:22:12.329Z</time>
      </trkpt>
      <trkpt lat="45.96015" lon="-0.98593">
        <ele>46.869594</ele>
        <time>2022-12-21T13:22:16.329Z</time>
      </trkpt>
      <trkpt lat="45.96006" lon="-0.98586">
        <ele>46.794732</ele>
        <time>2022-12-21T13:22:20.344Z</time>
      </trkpt>
      <trkpt lat="45.96001" lon="-0.98573">
        <ele>46.717672</ele>
        <time>2022-12-21T13:22:24.334Z</time>
      </trkpt>
      <trkpt lat="45.95996" lon="-0.98558">
        <ele>46.634612</ele>
        <time>2022-12-21T13:22:28.351Z</time>
      </trkpt>
      <trkpt lat="45.95991" lon="-0.98546">
        <ele>46.567303</ele>
        <time>2022-12-21T13:22:31.359Z</time>
      </trkpt>
      <trkpt lat="45.95987" lon="-0.98532">
        <ele>46.48936</ele>
        <time>2022-12-21T13:22:34.332Z</time>
      </trkpt>
      <trkpt lat="45.95983" lon="-0.98517">
        <ele>46.40917</ele>
        <time>2022-12-21T13:22:37.352Z</time>
      </trkpt>
      <trkpt lat="45.95978" lon="-0.98502">
        <ele>46.328957</ele>
        <time>2022-12-21T13:22:40.337Z</time>
      </trkpt>
      <trkpt lat="45.95973" lon="-0.98488">
        <ele>46.249786</ele>
        <time>2022-12-21T13:22:43.337Z</time>
      </trkpt>
      <trkpt lat="45.95969" lon="-0.98473">
        <ele>46.169873</ele>
        <time>2022-12-21T13:22:46.336Z</time>
      </trkpt>
      <trkpt lat="45.95965" lon="-0.9846">
        <ele>46.098396</ele>
        <time>2022-12-21T13:22:49.358Z</time>
      </trkpt>
      <trkpt lat="45.95961" lon="-0.98447">
        <ele>46.041821</ele>
        <time>2022-12-21T13:22:52.337Z</time>
      </trkpt>
      <trkpt lat="45.95957" lon="-0.98435">
        <ele>46.040161</ele>
        <time>2022-12-21T13:22:55.336Z</time>
      </trkpt>
      <trkpt lat="45.95953" lon="-0.9842">
        <ele>46.038055</ele>
        <time>2022-12-21T13:22:59.330Z</time>
      </trkpt>
      <trkpt lat="45.95948" lon="-0.98405">
        <ele>46.036008</ele>
        <time>2022-12-21T13:23:03.334Z</time>
      </trkpt>
      <trkpt lat="45.95944" lon="-0.98394">
        <ele>46.034343</ele>
        <time>2022-12-21T13:23:06.337Z</time>
      </trkpt>
      <trkpt lat="45.95939" lon="-0.98381">
        <ele>46.032415</ele>
        <time>2022-12-21T13:23:09.341Z</time>
      </trkpt>
      <trkpt lat="45.95931" lon="-0.98365">
        <ele>46.030055</ele>
        <time>2022-12-21T13:23:12.341Z</time>
      </trkpt>
      <trkpt lat="45.95926" lon="-0.98354">
        <ele>46.028362</ele>
        <time>2022-12-21T13:23:14.359Z</time>
      </trkpt>
      <trkpt lat="45.95921" lon="-0.98343">
        <ele>46.026639</ele>
        <time>2022-12-21T13:23:16.344Z</time>
      </trkpt>
      <trkpt lat="45.95915" lon="-0.98332">
        <ele>46.024862</ele>
        <time>2022-12-21T13:23:18.360Z</time>
      </trkpt>
      <trkpt lat="45.9591" lon="-0.98321">
        <ele>46.023169</ele>
        <time>2022-12-21T13:23:20.352Z</time>
      </trkpt>
      <trkpt lat="45.95901" lon="-0.98307">
        <ele>46.020769</ele>
        <time>2022-12-21T13:23:23.334Z</time>
      </trkpt>
      <trkpt lat="45.95892" lon="-0.98294">
        <ele>46.018521</ele>
        <time>2022-12-21T13:23:26.351Z</time>
      </trkpt>
      <trkpt lat="45.95884" lon="-0.98281">
        <ele>46.016289</ele>
        <time>2022-12-21T13:23:29.343Z</time>
      </trkpt>
      <trkpt lat="45.95877" lon="-0.98267">
        <ele>46.014019</ele>
        <time>2022-12-21T13:23:32.361Z</time>
      </trkpt>
      <trkpt lat="45.95869" lon="-0.98251">
        <ele>46.011513</ele>
        <time>2022-12-21T13:23:35.358Z</time>
      </trkpt>
      <trkpt lat="45.95864" lon="-0.9824">
        <ele>46.00982</ele>
        <time>2022-12-21T13:23:37.339Z</time>
      </trkpt>
      <trkpt lat="45.95859" lon="-0.98228">
        <ele>45.989552</ele>
        <time>2022-12-21T13:23:39.341Z</time>
      </trkpt>
      <trkpt lat="45.95854" lon="-0.98217">
        <ele>45.959302</ele>
        <time>2022-12-21T13:23:41.340Z</time>
      </trkpt>
      <trkpt lat="45.9585" lon="-0.98205">
        <ele>45.929241</ele>
        <time>2022-12-21T13:23:43.359Z</time>
      </trkpt>
      <trkpt lat="45.95845" lon="-0.98193">
        <ele>45.90002</ele>
        <time>2022-12-21T13:23:45.342Z</time>
      </trkpt>
      <trkpt lat="45.95841" lon="-0.98176">
        <ele>45.85945</ele>
        <time>2022-12-21T13:23:48.344Z</time>
      </trkpt>
      <trkpt lat="45.95839" lon="-0.9816">
        <ele>45.821854</ele>
        <time>2022-12-21T13:23:51.354Z</time>
      </trkpt>
      <trkpt lat="45.95837" lon="-0.98144">
        <ele>45.785817</ele>
        <time>2022-12-21T13:23:54.336Z</time>
      </trkpt>
      <trkpt lat="45.95837" lon="-0.98127">
        <ele>45.748782</ele>
        <time>2022-12-21T13:23:57.333Z</time>
      </trkpt>
      <trkpt lat="45.95839" lon="-0.9811">
        <ele>45.710871</ele>
        <time>2022-12-21T13:24:00.331Z</time>
      </trkpt>
      <trkpt lat="45.95842" lon="-0.98093">
        <ele>45.670346</ele>
        <time>2022-12-21T13:24:03.347Z</time>
      </trkpt>
      <trkpt lat="45.95845" lon="-0.98077">
        <ele>45.632606</ele>
        <time>2022-12-21T13:24:06.358Z</time>
      </trkpt>
      <trkpt lat="45.95848" lon="-0.98061">
        <ele>45.596994</ele>
        <time>2022-12-21T13:24:09.359Z</time>
      </trkpt>
      <trkpt lat="45.95851" lon="-0.98046">
        <ele>45.562519</ele>
        <time>2022-12-21T13:24:12.357Z</time>
      </trkpt>
      <trkpt lat="45.95854" lon="-0.9803">
        <ele>45.525344</ele>
        <time>2022-12-21T13:24:15.358Z</time>
      </trkpt>
      <trkpt lat="45.95857" lon="-0.98015">
        <ele>45.490581</ele>
        <time>2022-12-21T13:24:18.359Z</time>
      </trkpt>
      <trkpt lat="45.9586" lon="-0.98003">
        <ele>45.460962</ele>
        <time>2022-12-21T13:24:21.348Z</time>
      </trkpt>
      <trkpt lat="45.95861" lon="-0.9799">
        <ele>45.431983</ele>
        <time>2022-12-21T13:24:24.342Z</time>
      </trkpt>
      <trkpt lat="45.95864" lon="-0.97977">
        <ele>45.423435</ele>
        <time>2022-12-21T13:24:27.337Z</time>
      </trkpt>
      <trkpt lat="45.95865" lon="-0.97964">
        <ele>45.415049</ele>
        <time>2022-12-21T13:24:30.328Z</time>
      </trkpt>
      <trkpt lat="45.95862" lon="-0.97951">
        <ele>45.40607</ele>
        <time>2022-12-21T13:24:34.328Z</time>
      </trkpt>
      <trkpt lat="45.95856" lon="-0.97942">
        <ele>45.39776</ele>
        <time>2022-12-21T13:24:38.331Z</time>
      </trkpt>
      <trkpt lat="45.95849" lon="-0.97933">
        <ele>45.389121</ele>
        <time>2022-12-21T13:24:42.336Z</time>
      </trkpt>
      <trkpt lat="45.95843" lon="-0.97922">
        <ele>45.380314</ele>
        <time>2022-12-21T13:24:47.336Z</time>
      </trkpt>
      <trkpt lat="45.95835" lon="-0.97912">
        <ele>45.370834</ele>
        <time>2022-12-21T13:24:53.344Z</time>
      </trkpt>
      <trkpt lat="45.95826" lon="-0.97914">
        <ele>45.362476</ele>
        <time>2022-12-21T13:24:57.333Z</time>
      </trkpt>
      <trkpt lat="45.95814" lon="-0.97914">
        <ele>45.351333</ele>
        <time>2022-12-21T13:25:01.344Z</time>
      </trkpt>
      <trkpt lat="45.95805" lon="-0.9791">
        <ele>45.342446</ele>
        <time>2022-12-21T13:25:04.346Z</time>
      </trkpt>
      <trkpt lat="45.95796" lon="-0.97901">
        <ele>45.332723</ele>
        <time>2022-12-21T13:25:07.334Z</time>
      </trkpt>
      <trkpt lat="45.9579" lon="-0.97889">
        <ele>45.323307</ele>
        <time>2022-12-21T13:25:10.343Z</time>
      </trkpt>
      <trkpt lat="45.95786" lon="-0.97875">
        <ele>45.313509</ele>
        <time>2022-12-21T13:25:13.359Z</time>
      </trkpt>
      <trkpt lat="45.95786" lon="-0.97859">
        <ele>45.303389</ele>
        <time>2022-12-21T13:25:16.360Z</time>
      </trkpt>
      <trkpt lat="45.9579" lon="-0.97844">
        <ele>45.29299</ele>
        <time>2022-12-21T13:25:19.354Z</time>
      </trkpt>
      <trkpt lat="45.95796" lon="-0.9783">
        <ele>45.282369</ele>
        <time>2022-12-21T13:25:22.346Z</time>
      </trkpt>
      <trkpt lat="45.95805" lon="-0.97821">
        <ele>45.272534</ele>
        <time>2022-12-21T13:25:25.357Z</time>
      </trkpt>
      <trkpt lat="45.95814" lon="-0.97816">
        <ele>45.315175</ele>
        <time>2022-12-21T13:25:28.341Z</time>
      </trkpt>
      <trkpt lat="45.95826" lon="-0.97814">
        <ele>45.454352</ele>
        <time>2022-12-21T13:25:31.365Z</time>
      </trkpt>
      <trkpt lat="45.95836" lon="-0.97819">
        <ele>45.585778</ele>
        <time>2022-12-21T13:25:34.335Z</time>
      </trkpt>
      <trkpt lat="45.95844" lon="-0.9783">
        <ele>45.712122</ele>
        <time>2022-12-21T13:25:37.352Z</time>
      </trkpt>
      <trkpt lat="45.9585" lon="-0.97841">
        <ele>45.828185</ele>
        <time>2022-12-21T13:25:40.339Z</time>
      </trkpt>
      <trkpt lat="45.95856" lon="-0.97853">
        <ele>45.95578</ele>
        <time>2022-12-21T13:25:43.338Z</time>
      </trkpt>
      <trkpt lat="45.95864" lon="-0.97863">
        <ele>46.082962</ele>
        <time>2022-12-21T13:25:46.341Z</time>
      </trkpt>
      <trkpt lat="45.95873" lon="-0.9787">
        <ele>46.209991</ele>
        <time>2022-12-21T13:25:49.336Z</time>
      </trkpt>
      <trkpt lat="45.95884" lon="-0.97874">
        <ele>46.348096</ele>
        <time>2022-12-21T13:25:52.356Z</time>
      </trkpt>
      <trkpt lat="45.95897" lon="-0.97876">
        <ele>46.499407</ele>
        <time>2022-12-21T13:25:55.336Z</time>
      </trkpt>
      <trkpt lat="45.95909" lon="-0.97878">
        <ele>46.649543</ele>
        <time>2022-12-21T13:25:58.362Z</time>
      </trkpt>
      <trkpt lat="45.95921" lon="-0.97877">
        <ele>46.785919</ele>
        <time>2022-12-21T13:26:01.357Z</time>
      </trkpt>
      <trkpt lat="45.95932" lon="-0.97878">
        <ele>46.928376</ele>
        <time>2022-12-21T13:26:04.351Z</time>
      </trkpt>
      <trkpt lat="45.95944" lon="-0.97878">
        <ele>47.073196</ele>
        <time>2022-12-21T13:26:07.344Z</time>
      </trkpt>
      <trkpt lat="45.95956" lon="-0.97879">
        <ele>47.21822</ele>
        <time>2022-12-21T13:26:10.359Z</time>
      </trkpt>
      <trkpt lat="45.95969" lon="-0.9788">
        <ele>47.369148</ele>
        <time>2022-12-21T13:26:13.344Z</time>
      </trkpt>
      <trkpt lat="45.95981" lon="-0.9788">
        <ele>47.388866</ele>
        <time>2022-12-21T13:26:16.345Z</time>
      </trkpt>
      <trkpt lat="45.95992" lon="-0.97876">
        <ele>47.309074</ele>
        <time>2022-12-21T13:26:19.337Z</time>
      </trkpt>
      <trkpt lat="45.96" lon="-0.97869">
        <ele>47.238165</ele>
        <time>2022-12-21T13:26:22.340Z</time>
      </trkpt>
      <trkpt lat="45.96007" lon="-0.97856">
        <ele>47.154674</ele>
        <time>2022-12-21T13:26:26.336Z</time>
      </trkpt>
      <trkpt lat="45.96008" lon="-0.9784">
        <ele>47.076308</ele>
        <time>2022-12-21T13:26:30.346Z</time>
      </trkpt>
      <trkpt lat="45.9601" lon="-0.97826">
        <ele>47.003242</ele>
        <time>2022-12-21T13:26:34.342Z</time>
      </trkpt>
      <trkpt lat="45.96012" lon="-0.97813">
        <ele>46.937657</ele>
        <time>2022-12-21T13:26:37.360Z</time>
      </trkpt>
      <trkpt lat="45.96014" lon="-0.97796">
        <ele>46.848126</ele>
        <time>2022-12-21T13:26:41.335Z</time>
      </trkpt>
      <trkpt lat="45.96015" lon="-0.97782">
        <ele>46.779492</ele>
        <time>2022-12-21T13:26:44.353Z</time>
      </trkpt>
      <trkpt lat="45.96017" lon="-0.97768">
        <ele>46.705131</ele>
        <time>2022-12-21T13:26:47.359Z</time>
      </trkpt>
      <trkpt lat="45.96017" lon="-0.97753">
        <ele>46.631595</ele>
        <time>2022-12-21T13:26:50.337Z</time>
      </trkpt>
      <trkpt lat="45.9601" lon="-0.97741">
        <ele>46.551203</ele>
        <time>2022-12-21T13:26:54.359Z</time>
      </trkpt>
      <trkpt lat="45.95999" lon="-0.97737">
        <ele>46.467655</ele>
        <time>2022-12-21T13:26:57.341Z</time>
      </trkpt>
      <trkpt lat="45.95987" lon="-0.97734">
        <ele>46.379942</ele>
        <time>2022-12-21T13:27:00.331Z</time>
      </trkpt>
      <trkpt lat="45.95975" lon="-0.97732">
        <ele>46.294379</ele>
        <time>2022-12-21T13:27:03.346Z</time>
      </trkpt>
      <trkpt lat="45.95964" lon="-0.97728">
        <ele>46.212593</ele>
        <time>2022-12-21T13:27:06.328Z</time>
      </trkpt>
      <trkpt lat="45.95953" lon="-0.97727">
        <ele>46.131878</ele>
        <time>2022-12-21T13:27:09.336Z</time>
      </trkpt>
      <trkpt lat="45.95943" lon="-0.97726">
        <ele>46.069789</ele>
        <time>2022-12-21T13:27:12.342Z</time>
      </trkpt>
      <trkpt lat="45.95933" lon="-0.97723">
        <ele>46.012542</ele>
        <time>2022-12-21T13:27:15.341Z</time>
      </trkpt>
      <trkpt lat="45.95924" lon="-0.97717">
        <ele>45.952997</ele>
        <time>2022-12-21T13:27:18.341Z</time>
      </trkpt>
      <trkpt lat="45.95914" lon="-0.97712">
        <ele>45.891971</ele>
        <time>2022-12-21T13:27:21.332Z</time>
      </trkpt>
      <trkpt lat="45.95904" lon="-0.97713">
        <ele>45.833562</ele>
        <time>2022-12-21T13:27:24.337Z</time>
      </trkpt>
      <trkpt lat="45.95896" lon="-0.97716">
        <ele>45.780408</ele>
        <time>2022-12-21T13:27:27.359Z</time>
      </trkpt>
      <trkpt lat="45.95888" lon="-0.97725">
        <ele>45.724329</ele>
        <time>2022-12-21T13:27:31.334Z</time>
      </trkpt>
      <trkpt lat="45.95888" lon="-0.97741">
        <ele>45.660335</ele>
        <time>2022-12-21T13:27:36.353Z</time>
      </trkpt>
      <trkpt lat="45.95889" lon="-0.97756">
        <ele>45.596205</ele>
        <time>2022-12-21T13:27:40.337Z</time>
      </trkpt>
      <trkpt lat="45.95894" lon="-0.97767">
        <ele>45.541355</ele>
        <time>2022-12-21T13:27:43.340Z</time>
      </trkpt>
      <trkpt lat="45.95899" lon="-0.97781">
        <ele>45.477019</ele>
        <time>2022-12-21T13:27:46.350Z</time>
      </trkpt>
      <trkpt lat="45.95903" lon="-0.97795">
        <ele>45.41526</ele>
        <time>2022-12-21T13:27:49.341Z</time>
      </trkpt>
      <trkpt lat="45.95903" lon="-0.9781">
        <ele>45.357432</ele>
        <time>2022-12-21T13:27:52.331Z</time>
      </trkpt>
      <trkpt lat="45.95894" lon="-0.97817">
        <ele>45.295282</ele>
        <time>2022-12-21T13:27:57.341Z</time>
      </trkpt>
      <trkpt lat="45.95885" lon="-0.97818">
        <ele>45.239774</ele>
        <time>2022-12-21T13:28:03.334Z</time>
      </trkpt>
      <trkpt lat="45.9589" lon="-0.97807">
        <ele>45.182574</ele>
        <time>2022-12-21T13:28:32.336Z</time>
      </trkpt>
      <trkpt lat="45.95891" lon="-0.97805">
        <ele>45.175507</ele>
        <time>2022-12-21T13:28:48.051Z</time>
      </trkpt>
      <trkpt lat="45.95892" lon="-0.97805">
        <ele>45.17197</ele>
        <time>2022-12-21T14:01:51.243Z</time>
      </trkpt>
      <trkpt lat="45.95885" lon="-0.97816">
        <ele>45.114196</ele>
        <time>2022-12-21T14:03:32.344Z</time>
      </trkpt>
      <trkpt lat="45.95875" lon="-0.97817">
        <ele>45.042209</ele>
        <time>2022-12-21T14:03:38.337Z</time>
      </trkpt>
      <trkpt lat="45.9587" lon="-0.97805">
        <ele>44.961193</ele>
        <time>2022-12-21T14:03:42.346Z</time>
      </trkpt>
      <trkpt lat="45.95865" lon="-0.97792">
        <ele>44.877501</ele>
        <time>2022-12-21T14:03:47.341Z</time>
      </trkpt>
      <trkpt lat="45.95862" lon="-0.97779">
        <ele>44.802229</ele>
        <time>2022-12-21T14:03:53.343Z</time>
      </trkpt>
      <trkpt lat="45.95867" lon="-0.97766">
        <ele>44.718155</ele>
        <time>2022-12-21T14:03:57.334Z</time>
      </trkpt>
      <trkpt lat="45.95872" lon="-0.97753">
        <ele>44.636728</ele>
        <time>2022-12-21T14:04:01.345Z</time>
      </trkpt>
      <trkpt lat="45.95877" lon="-0.97743">
        <ele>44.562922</ele>
        <time>2022-12-21T14:04:06.339Z</time>
      </trkpt>
      <trkpt lat="45.9587" lon="-0.9773">
        <ele>44.475106</ele>
        <time>2022-12-21T14:04:13.345Z</time>
      </trkpt>
      <trkpt lat="45.9586" lon="-0.97729">
        <ele>44.393307</ele>
        <time>2022-12-21T14:04:17.341Z</time>
      </trkpt>
      <trkpt lat="45.95853" lon="-0.97739">
        <ele>44.309199</ele>
        <time>2022-12-21T14:04:21.332Z</time>
      </trkpt>
      <trkpt lat="45.95849" lon="-0.97752">
        <ele>44.231895</ele>
        <time>2022-12-21T14:04:24.335Z</time>
      </trkpt>
      <trkpt lat="45.95846" lon="-0.97766">
        <ele>44.146697</ele>
        <time>2022-12-21T14:04:27.342Z</time>
      </trkpt>
      <trkpt lat="45.95843" lon="-0.9778">
        <ele>44.064479</ele>
        <time>2022-12-21T14:04:30.331Z</time>
      </trkpt>
      <trkpt lat="45.95841" lon="-0.97793">
        <ele>43.988294</ele>
        <time>2022-12-21T14:04:33.339Z</time>
      </trkpt>
      <trkpt lat="45.95839" lon="-0.97809">
        <ele>43.894582</ele>
        <time>2022-12-21T14:04:37.344Z</time>
      </trkpt>
      <trkpt lat="45.95843" lon="-0.97825">
        <ele>43.804044</ele>
        <time>2022-12-21T14:04:41.339Z</time>
      </trkpt>
      <trkpt lat="45.95848" lon="-0.97835">
        <ele>43.728835</ele>
        <time>2022-12-21T14:04:44.336Z</time>
      </trkpt>
      <trkpt lat="45.95853" lon="-0.97849">
        <ele>43.642492</ele>
        <time>2022-12-21T14:04:47.347Z</time>
      </trkpt>
      <trkpt lat="45.95855" lon="-0.97865">
        <ele>43.620208</ele>
        <time>2022-12-21T14:04:50.362Z</time>
      </trkpt>
      <trkpt lat="45.95854" lon="-0.97879">
        <ele>43.631775</ele>
        <time>2022-12-21T14:04:53.346Z</time>
      </trkpt>
      <trkpt lat="45.95849" lon="-0.97891">
        <ele>43.642479</ele>
        <time>2022-12-21T14:04:56.340Z</time>
      </trkpt>
      <trkpt lat="45.95844" lon="-0.97903">
        <ele>43.653734</ele>
        <time>2022-12-21T14:04:59.361Z</time>
      </trkpt>
      <trkpt lat="45.95835" lon="-0.9791">
        <ele>43.66554</ele>
        <time>2022-12-21T14:05:02.345Z</time>
      </trkpt>
      <trkpt lat="45.95824" lon="-0.97913">
        <ele>43.677574</ele>
        <time>2022-12-21T14:05:05.361Z</time>
      </trkpt>
      <trkpt lat="45.95814" lon="-0.97913">
        <ele>43.689245</ele>
        <time>2022-12-21T14:05:08.363Z</time>
      </trkpt>
      <trkpt lat="45.95804" lon="-0.97907">
        <ele>43.700938</ele>
        <time>2022-12-21T14:05:11.363Z</time>
      </trkpt>
      <trkpt lat="45.95796" lon="-0.97897">
        <ele>43.713293</ele>
        <time>2022-12-21T14:05:14.352Z</time>
      </trkpt>
      <trkpt lat="45.9579" lon="-0.97884">
        <ele>43.72572</ele>
        <time>2022-12-21T14:05:17.332Z</time>
      </trkpt>
      <trkpt lat="45.95783" lon="-0.97872">
        <ele>43.738205</ele>
        <time>2022-12-21T14:05:20.331Z</time>
      </trkpt>
      <trkpt lat="45.95774" lon="-0.97861">
        <ele>43.751335</ele>
        <time>2022-12-21T14:05:23.359Z</time>
      </trkpt>
      <trkpt lat="45.95765" lon="-0.97855">
        <ele>43.762847</ele>
        <time>2022-12-21T14:05:26.346Z</time>
      </trkpt>
      <trkpt lat="45.95755" lon="-0.97852">
        <ele>43.774042</ele>
        <time>2022-12-21T14:05:29.346Z</time>
      </trkpt>
      <trkpt lat="45.95766" lon="-0.97844">
        <ele>43.787188</ele>
        <time>2022-12-21T14:05:58.357Z</time>
      </trkpt>
      <trkpt lat="45.95777" lon="-0.97842">
        <ele>43.800366</ele>
        <time>2022-12-21T14:06:02.339Z</time>
      </trkpt>
      <trkpt lat="45.95787" lon="-0.97837">
        <ele>43.811835</ele>
        <time>2022-12-21T14:06:05.340Z</time>
      </trkpt>
      <trkpt lat="45.95796" lon="-0.97827">
        <ele>43.789567</ele>
        <time>2022-12-21T14:06:08.344Z</time>
      </trkpt>
      <trkpt lat="45.95805" lon="-0.97819">
        <ele>43.750308</ele>
        <time>2022-12-21T14:06:11.345Z</time>
      </trkpt>
      <trkpt lat="45.95815" lon="-0.97815">
        <ele>43.711792</ele>
        <time>2022-12-21T14:06:14.336Z</time>
      </trkpt>
      <trkpt lat="45.95826" lon="-0.97815">
        <ele>43.673821</ele>
        <time>2022-12-21T14:06:17.342Z</time>
      </trkpt>
      <trkpt lat="45.95836" lon="-0.9782">
        <ele>43.63835</ele>
        <time>2022-12-21T14:06:20.349Z</time>
      </trkpt>
      <trkpt lat="45.95845" lon="-0.97829">
        <ele>43.600253</ele>
        <time>2022-12-21T14:06:23.342Z</time>
      </trkpt>
      <trkpt lat="45.95852" lon="-0.97841">
        <ele>43.561254</ele>
        <time>2022-12-21T14:06:26.353Z</time>
      </trkpt>
      <trkpt lat="45.95856" lon="-0.97854">
        <ele>43.526597</ele>
        <time>2022-12-21T14:06:29.335Z</time>
      </trkpt>
      <trkpt lat="45.95855" lon="-0.97868">
        <ele>43.492628</ele>
        <time>2022-12-21T14:06:32.349Z</time>
      </trkpt>
      <trkpt lat="45.95852" lon="-0.97883">
        <ele>43.455007</ele>
        <time>2022-12-21T14:06:35.362Z</time>
      </trkpt>
      <trkpt lat="45.95845" lon="-0.97898">
        <ele>43.41005</ele>
        <time>2022-12-21T14:06:38.361Z</time>
      </trkpt>
      <trkpt lat="45.95835" lon="-0.97909">
        <ele>43.364963</ele>
        <time>2022-12-21T14:06:41.360Z</time>
      </trkpt>
      <trkpt lat="45.95822" lon="-0.97913">
        <ele>43.319504</ele>
        <time>2022-12-21T14:06:44.361Z</time>
      </trkpt>
      <trkpt lat="45.9581" lon="-0.97914">
        <ele>43.27692</ele>
        <time>2022-12-21T14:06:47.362Z</time>
      </trkpt>
      <trkpt lat="45.95798" lon="-0.97921">
        <ele>43.230756</ele>
        <time>2022-12-21T14:06:50.345Z</time>
      </trkpt>
      <trkpt lat="45.95789" lon="-0.97928">
        <ele>43.196572</ele>
        <time>2022-12-21T14:06:52.364Z</time>
      </trkpt>
      <trkpt lat="45.95779" lon="-0.9794">
        <ele>43.292819</ele>
        <time>2022-12-21T14:06:55.338Z</time>
      </trkpt>
      <trkpt lat="45.95769" lon="-0.9795">
        <ele>43.430834</ele>
        <time>2022-12-21T14:06:58.343Z</time>
      </trkpt>
      <trkpt lat="45.9576" lon="-0.9796">
        <ele>43.559478</ele>
        <time>2022-12-21T14:07:01.346Z</time>
      </trkpt>
      <trkpt lat="45.95751" lon="-0.97973">
        <ele>43.696222</ele>
        <time>2022-12-21T14:07:04.360Z</time>
      </trkpt>
      <trkpt lat="45.95744" lon="-0.97985">
        <ele>43.824454</ele>
        <time>2022-12-21T14:07:07.345Z</time>
      </trkpt>
      <trkpt lat="45.95736" lon="-0.97996">
        <ele>43.947836</ele>
        <time>2022-12-21T14:07:10.358Z</time>
      </trkpt>
      <trkpt lat="45.95728" lon="-0.98008">
        <ele>44.076837</ele>
        <time>2022-12-21T14:07:13.358Z</time>
      </trkpt>
      <trkpt lat="45.95721" lon="-0.98019">
        <ele>44.203727</ele>
        <time>2022-12-21T14:07:16.361Z</time>
      </trkpt>
      <trkpt lat="45.95713" lon="-0.98032">
        <ele>44.334647</ele>
        <time>2022-12-21T14:07:19.338Z</time>
      </trkpt>
      <trkpt lat="45.95704" lon="-0.98042">
        <ele>44.462421</ele>
        <time>2022-12-21T14:07:22.350Z</time>
      </trkpt>
      <trkpt lat="45.95695" lon="-0.98052">
        <ele>44.593701</ele>
        <time>2022-12-21T14:07:25.344Z</time>
      </trkpt>
      <trkpt lat="45.95686" lon="-0.98063">
        <ele>44.725867</ele>
        <time>2022-12-21T14:07:28.362Z</time>
      </trkpt>
      <trkpt lat="45.95676" lon="-0.98073">
        <ele>44.860298</ele>
        <time>2022-12-21T14:07:31.359Z</time>
      </trkpt>
      <trkpt lat="45.95667" lon="-0.98084">
        <ele>44.991578</ele>
        <time>2022-12-21T14:07:34.345Z</time>
      </trkpt>
      <trkpt lat="45.95658" lon="-0.98094">
        <ele>45.120998</ele>
        <time>2022-12-21T14:07:37.337Z</time>
      </trkpt>
      <trkpt lat="45.95649" lon="-0.98104">
        <ele>45.220935</ele>
        <time>2022-12-21T14:07:40.344Z</time>
      </trkpt>
      <trkpt lat="45.9564" lon="-0.98115">
        <ele>45.241871</ele>
        <time>2022-12-21T14:07:43.363Z</time>
      </trkpt>
      <trkpt lat="45.9563" lon="-0.98125">
        <ele>45.263666</ele>
        <time>2022-12-21T14:07:46.338Z</time>
      </trkpt>
      <trkpt lat="45.9562" lon="-0.98136">
        <ele>45.284982</ele>
        <time>2022-12-21T14:07:49.339Z</time>
      </trkpt>
      <trkpt lat="45.95611" lon="-0.98146">
        <ele>45.305414</ele>
        <time>2022-12-21T14:07:52.345Z</time>
      </trkpt>
      <trkpt lat="45.95602" lon="-0.98157">
        <ele>45.325933</ele>
        <time>2022-12-21T14:07:55.346Z</time>
      </trkpt>
      <trkpt lat="45.95593" lon="-0.98167">
        <ele>45.346862</ele>
        <time>2022-12-21T14:07:58.363Z</time>
      </trkpt>
      <trkpt lat="45.95583" lon="-0.98177">
        <ele>45.368217</ele>
        <time>2022-12-21T14:08:01.342Z</time>
      </trkpt>
      <trkpt lat="45.95574" lon="-0.98187">
        <ele>45.388498</ele>
        <time>2022-12-21T14:08:04.361Z</time>
      </trkpt>
      <trkpt lat="45.95564" lon="-0.98196">
        <ele>45.408349</ele>
        <time>2022-12-21T14:08:07.362Z</time>
      </trkpt>
      <trkpt lat="45.95556" lon="-0.98206">
        <ele>45.427934</ele>
        <time>2022-12-21T14:08:10.345Z</time>
      </trkpt>
      <trkpt lat="45.95547" lon="-0.98215">
        <ele>45.44757</ele>
        <time>2022-12-21T14:08:13.342Z</time>
      </trkpt>
      <trkpt lat="45.95538" lon="-0.98225">
        <ele>45.466706</ele>
        <time>2022-12-21T14:08:16.361Z</time>
      </trkpt>
      <trkpt lat="45.95529" lon="-0.98233">
        <ele>45.485635</ele>
        <time>2022-12-21T14:08:19.339Z</time>
      </trkpt>
      <trkpt lat="45.9552" lon="-0.98242">
        <ele>45.504984</ele>
        <time>2022-12-21T14:08:22.343Z</time>
      </trkpt>
      <trkpt lat="45.95511" lon="-0.98252">
        <ele>45.524691</ele>
        <time>2022-12-21T14:08:25.361Z</time>
      </trkpt>
      <trkpt lat="45.95501" lon="-0.98261">
        <ele>45.573839</ele>
        <time>2022-12-21T14:08:28.350Z</time>
      </trkpt>
      <trkpt lat="45.95491" lon="-0.98271">
        <ele>45.641477</ele>
        <time>2022-12-21T14:08:31.362Z</time>
      </trkpt>
      <trkpt lat="45.95482" lon="-0.9828">
        <ele>45.706413</ele>
        <time>2022-12-21T14:08:34.347Z</time>
      </trkpt>
      <trkpt lat="45.95473" lon="-0.98289">
        <ele>45.770135</ele>
        <time>2022-12-21T14:08:37.343Z</time>
      </trkpt>
      <trkpt lat="45.95463" lon="-0.98299">
        <ele>45.833632</ele>
        <time>2022-12-21T14:08:40.347Z</time>
      </trkpt>
      <trkpt lat="45.95454" lon="-0.98308">
        <ele>45.897841</ele>
        <time>2022-12-21T14:08:43.347Z</time>
      </trkpt>
      <trkpt lat="45.95444" lon="-0.98317">
        <ele>45.96352</ele>
        <time>2022-12-21T14:08:46.338Z</time>
      </trkpt>
      <trkpt lat="45.95434" lon="-0.98326">
        <ele>46.02958</ele>
        <time>2022-12-21T14:08:49.343Z</time>
      </trkpt>
      <trkpt lat="45.95425" lon="-0.98335">
        <ele>46.09553</ele>
        <time>2022-12-21T14:08:52.342Z</time>
      </trkpt>
      <trkpt lat="45.95415" lon="-0.98344">
        <ele>46.161373</ele>
        <time>2022-12-21T14:08:55.340Z</time>
      </trkpt>
      <trkpt lat="45.95405" lon="-0.98353">
        <ele>46.22631</ele>
        <time>2022-12-21T14:08:58.352Z</time>
      </trkpt>
      <trkpt lat="45.95396" lon="-0.98361">
        <ele>46.288964</ele>
        <time>2022-12-21T14:09:01.359Z</time>
      </trkpt>
      <trkpt lat="45.95387" lon="-0.9837">
        <ele>46.349723</ele>
        <time>2022-12-21T14:09:04.339Z</time>
      </trkpt>
      <trkpt lat="45.95378" lon="-0.98378">
        <ele>46.410785</ele>
        <time>2022-12-21T14:09:07.339Z</time>
      </trkpt>
      <trkpt lat="45.95368" lon="-0.98386">
        <ele>46.473368</ele>
        <time>2022-12-21T14:09:10.335Z</time>
      </trkpt>
      <trkpt lat="45.9536" lon="-0.98395">
        <ele>46.534348</ele>
        <time>2022-12-21T14:09:13.336Z</time>
      </trkpt>
      <trkpt lat="45.95351" lon="-0.98403">
        <ele>46.489625</ele>
        <time>2022-12-21T14:09:16.354Z</time>
      </trkpt>
      <trkpt lat="45.95341" lon="-0.98411">
        <ele>46.398896</ele>
        <time>2022-12-21T14:09:19.352Z</time>
      </trkpt>
      <trkpt lat="45.95332" lon="-0.98419">
        <ele>46.309758</ele>
        <time>2022-12-21T14:09:22.360Z</time>
      </trkpt>
      <trkpt lat="45.95322" lon="-0.98427">
        <ele>46.215883</ele>
        <time>2022-12-21T14:09:25.336Z</time>
      </trkpt>
      <trkpt lat="45.95312" lon="-0.98436">
        <ele>46.120122</ele>
        <time>2022-12-21T14:09:28.360Z</time>
      </trkpt>
      <trkpt lat="45.95302" lon="-0.98444">
        <ele>46.026536</ele>
        <time>2022-12-21T14:09:31.362Z</time>
      </trkpt>
      <trkpt lat="45.95293" lon="-0.98452">
        <ele>45.934671</ele>
        <time>2022-12-21T14:09:34.342Z</time>
      </trkpt>
      <trkpt lat="45.95283" lon="-0.9846">
        <ele>45.844098</ele>
        <time>2022-12-21T14:09:37.356Z</time>
      </trkpt>
      <trkpt lat="45.95275" lon="-0.98467">
        <ele>45.764288</ele>
        <time>2022-12-21T14:09:40.361Z</time>
      </trkpt>
      <trkpt lat="45.95265" lon="-0.98475">
        <ele>45.671418</ele>
        <time>2022-12-21T14:09:44.364Z</time>
      </trkpt>
      <trkpt lat="45.95257" lon="-0.98481">
        <ele>45.594503</ele>
        <time>2022-12-21T14:09:47.340Z</time>
      </trkpt>
      <trkpt lat="45.95248" lon="-0.98488">
        <ele>45.507226</ele>
        <time>2022-12-21T14:09:50.340Z</time>
      </trkpt>
      <trkpt lat="45.95238" lon="-0.98496">
        <ele>45.413484</ele>
        <time>2022-12-21T14:09:53.346Z</time>
      </trkpt>
      <trkpt lat="45.95227" lon="-0.98504">
        <ele>45.316561</ele>
        <time>2022-12-21T14:09:56.335Z</time>
      </trkpt>
      <trkpt lat="45.95217" lon="-0.98513">
        <ele>45.215351</ele>
        <time>2022-12-21T14:09:59.346Z</time>
      </trkpt>
      <trkpt lat="45.95206" lon="-0.98521">
        <ele>45.111687</ele>
        <time>2022-12-21T14:10:02.343Z</time>
      </trkpt>
      <trkpt lat="45.95195" lon="-0.9853">
        <ele>45.012905</ele>
        <time>2022-12-21T14:10:05.344Z</time>
      </trkpt>
      <trkpt lat="45.95183" lon="-0.98538">
        <ele>44.917694</ele>
        <time>2022-12-21T14:10:08.334Z</time>
      </trkpt>
      <trkpt lat="45.95172" lon="-0.98547">
        <ele>44.821038</ele>
        <time>2022-12-21T14:10:11.363Z</time>
      </trkpt>
      <trkpt lat="45.95161" lon="-0.98555">
        <ele>44.728942</ele>
        <time>2022-12-21T14:10:14.331Z</time>
      </trkpt>
      <trkpt lat="45.95151" lon="-0.98563">
        <ele>44.636846</ele>
        <time>2022-12-21T14:10:17.347Z</time>
      </trkpt>
      <trkpt lat="45.9514" lon="-0.9857">
        <ele>44.546632</ele>
        <time>2022-12-21T14:10:20.332Z</time>
      </trkpt>
      <trkpt lat="45.9513" lon="-0.98579">
        <ele>44.458255</ele>
        <time>2022-12-21T14:10:23.360Z</time>
      </trkpt>
      <trkpt lat="45.95119" lon="-0.98587">
        <ele>44.368465</ele>
        <time>2022-12-21T14:10:26.360Z</time>
      </trkpt>
      <trkpt lat="45.95108" lon="-0.98594">
        <ele>44.278434</ele>
        <time>2022-12-21T14:10:29.342Z</time>
      </trkpt>
      <trkpt lat="45.95097" lon="-0.98603">
        <ele>44.182511</ele>
        <time>2022-12-21T14:10:32.346Z</time>
      </trkpt>
      <trkpt lat="45.95087" lon="-0.98609">
        <ele>44.099068</ele>
        <time>2022-12-21T14:10:35.359Z</time>
      </trkpt>
      <trkpt lat="45.95078" lon="-0.98616">
        <ele>44.020862</ele>
        <time>2022-12-21T14:10:38.343Z</time>
      </trkpt>
      <trkpt lat="45.95067" lon="-0.98623">
        <ele>43.933361</ele>
        <time>2022-12-21T14:10:41.342Z</time>
      </trkpt>
      <trkpt lat="45.95056" lon="-0.98631">
        <ele>43.839972</ele>
        <time>2022-12-21T14:10:44.354Z</time>
      </trkpt>
      <trkpt lat="45.95044" lon="-0.98639">
        <ele>43.740881</ele>
        <time>2022-12-21T14:10:47.361Z</time>
      </trkpt>
      <trkpt lat="45.95032" lon="-0.98646">
        <ele>43.759004</ele>
        <time>2022-12-21T14:10:50.340Z</time>
      </trkpt>
      <trkpt lat="45.9502" lon="-0.98654">
        <ele>43.840843</ele>
        <time>2022-12-21T14:10:53.343Z</time>
      </trkpt>
      <trkpt lat="45.95011" lon="-0.9866">
        <ele>43.895834</ele>
        <time>2022-12-21T14:10:55.360Z</time>
      </trkpt>
      <trkpt lat="45.94999" lon="-0.98668">
        <ele>43.977496</ele>
        <time>2022-12-21T14:10:58.354Z</time>
      </trkpt>
      <trkpt lat="45.9499" lon="-0.98673">
        <ele>44.035251</ele>
        <time>2022-12-21T14:11:00.337Z</time>
      </trkpt>
      <trkpt lat="45.94981" lon="-0.98679">
        <ele>44.092789</ele>
        <time>2022-12-21T14:11:02.337Z</time>
      </trkpt>
      <trkpt lat="45.94973" lon="-0.98685">
        <ele>44.150878</ele>
        <time>2022-12-21T14:11:04.339Z</time>
      </trkpt>
      <trkpt lat="45.94964" lon="-0.9869">
        <ele>44.205496</ele>
        <time>2022-12-21T14:11:06.343Z</time>
      </trkpt>
      <trkpt lat="45.94953" lon="-0.98698">
        <ele>44.280977</ele>
        <time>2022-12-21T14:11:09.339Z</time>
      </trkpt>
      <trkpt lat="45.94943" lon="-0.98704">
        <ele>44.348324</ele>
        <time>2022-12-21T14:11:12.345Z</time>
      </trkpt>
      <trkpt lat="45.94933" lon="-0.9871">
        <ele>44.415966</ele>
        <time>2022-12-21T14:11:15.340Z</time>
      </trkpt>
      <trkpt lat="45.94922" lon="-0.98717">
        <ele>44.487277</ele>
        <time>2022-12-21T14:11:18.353Z</time>
      </trkpt>
      <trkpt lat="45.94911" lon="-0.98724">
        <ele>44.556674</ele>
        <time>2022-12-21T14:11:21.340Z</time>
      </trkpt>
      <trkpt lat="45.949" lon="-0.9873">
        <ele>44.628304</ele>
        <time>2022-12-21T14:11:24.341Z</time>
      </trkpt>
      <trkpt lat="45.94889" lon="-0.98737">
        <ele>44.701927</ele>
        <time>2022-12-21T14:11:27.350Z</time>
      </trkpt>
      <trkpt lat="45.94878" lon="-0.98743">
        <ele>44.77565</ele>
        <time>2022-12-21T14:11:30.349Z</time>
      </trkpt>
      <trkpt lat="45.94866" lon="-0.9875">
        <ele>44.743452</ele>
        <time>2022-12-21T14:11:33.354Z</time>
      </trkpt>
      <trkpt lat="45.94855" lon="-0.98756">
        <ele>44.6872</ele>
        <time>2022-12-21T14:11:36.359Z</time>
      </trkpt>
      <trkpt lat="45.94846" lon="-0.98761">
        <ele>44.640128</ele>
        <time>2022-12-21T14:11:39.339Z</time>
      </trkpt>
      <trkpt lat="45.94836" lon="-0.98765">
        <ele>44.589361</ele>
        <time>2022-12-21T14:11:42.359Z</time>
      </trkpt>
      <trkpt lat="45.94825" lon="-0.98771">
        <ele>44.535954</ele>
        <time>2022-12-21T14:11:45.348Z</time>
      </trkpt>
      <trkpt lat="45.94814" lon="-0.98777">
        <ele>44.480602</ele>
        <time>2022-12-21T14:11:48.346Z</time>
      </trkpt>
      <trkpt lat="45.94802" lon="-0.98783">
        <ele>44.419369</ele>
        <time>2022-12-21T14:11:51.346Z</time>
      </trkpt>
      <trkpt lat="45.94791" lon="-0.98788">
        <ele>44.361978</ele>
        <time>2022-12-21T14:11:54.338Z</time>
      </trkpt>
      <trkpt lat="45.9478" lon="-0.98794">
        <ele>44.305713</ele>
        <time>2022-12-21T14:11:57.337Z</time>
      </trkpt>
      <trkpt lat="45.94769" lon="-0.98799">
        <ele>44.250009</ele>
        <time>2022-12-21T14:12:00.356Z</time>
      </trkpt>
      <trkpt lat="45.94758" lon="-0.98804">
        <ele>44.193075</ele>
        <time>2022-12-21T14:12:03.344Z</time>
      </trkpt>
      <trkpt lat="45.94747" lon="-0.9881">
        <ele>44.136607</ele>
        <time>2022-12-21T14:12:06.362Z</time>
      </trkpt>
      <trkpt lat="45.94737" lon="-0.98815">
        <ele>44.083882</ele>
        <time>2022-12-21T14:12:09.361Z</time>
      </trkpt>
      <trkpt lat="45.94726" lon="-0.9882">
        <ele>44.032177</ele>
        <time>2022-12-21T14:12:12.344Z</time>
      </trkpt>
      <trkpt lat="45.94718" lon="-0.98831">
        <ele>43.977805</ele>
        <time>2022-12-21T14:12:15.344Z</time>
      </trkpt>
      <trkpt lat="45.94709" lon="-0.98842">
        <ele>43.907163</ele>
        <time>2022-12-21T14:12:18.357Z</time>
      </trkpt>
      <trkpt lat="45.94697" lon="-0.98841">
        <ele>43.727563</ele>
        <time>2022-12-21T14:12:21.347Z</time>
      </trkpt>
      <trkpt lat="45.94685" lon="-0.98839">
        <ele>43.54373</ele>
        <time>2022-12-21T14:12:24.363Z</time>
      </trkpt>
      <trkpt lat="45.94673" lon="-0.98841">
        <ele>43.353801</ele>
        <time>2022-12-21T14:12:27.361Z</time>
      </trkpt>
      <trkpt lat="45.94661" lon="-0.98846">
        <ele>43.164451</ele>
        <time>2022-12-21T14:12:30.330Z</time>
      </trkpt>
      <trkpt lat="45.94649" lon="-0.98853">
        <ele>42.974861</ele>
        <time>2022-12-21T14:12:33.340Z</time>
      </trkpt>
      <trkpt lat="45.94637" lon="-0.98858">
        <ele>42.78611</ele>
        <time>2022-12-21T14:12:36.346Z</time>
      </trkpt>
      <trkpt lat="45.94626" lon="-0.98863">
        <ele>42.596746</ele>
        <time>2022-12-21T14:12:39.336Z</time>
      </trkpt>
      <trkpt lat="45.94613" lon="-0.98868">
        <ele>42.400625</ele>
        <time>2022-12-21T14:12:42.342Z</time>
      </trkpt>
      <trkpt lat="45.94601" lon="-0.98873">
        <ele>42.199783</ele>
        <time>2022-12-21T14:12:45.340Z</time>
      </trkpt>
      <trkpt lat="45.94588" lon="-0.98878">
        <ele>41.998942</ele>
        <time>2022-12-21T14:12:48.331Z</time>
      </trkpt>
      <trkpt lat="45.94577" lon="-0.98883">
        <ele>41.816075</ele>
        <time>2022-12-21T14:12:51.343Z</time>
      </trkpt>
      <trkpt lat="45.94565" lon="-0.98887">
        <ele>41.636449</ele>
        <time>2022-12-21T14:12:54.329Z</time>
      </trkpt>
      <trkpt lat="45.94553" lon="-0.98892">
        <ele>41.442377</ele>
        <time>2022-12-21T14:12:57.338Z</time>
      </trkpt>
      <trkpt lat="45.94541" lon="-0.98897">
        <ele>41.243584</ele>
        <time>2022-12-21T14:13:00.342Z</time>
      </trkpt>
      <trkpt lat="45.94528" lon="-0.98902">
        <ele>41.171044</ele>
        <time>2022-12-21T14:13:03.327Z</time>
      </trkpt>
      <trkpt lat="45.94519" lon="-0.98906">
        <ele>41.177228</ele>
        <time>2022-12-21T14:13:05.337Z</time>
      </trkpt>
      <trkpt lat="45.9451" lon="-0.98909">
        <ele>41.183625</ele>
        <time>2022-12-21T14:13:07.334Z</time>
      </trkpt>
      <trkpt lat="45.94498" lon="-0.98915">
        <ele>41.192596</ele>
        <time>2022-12-21T14:13:10.336Z</time>
      </trkpt>
      <trkpt lat="45.94485" lon="-0.98919">
        <ele>41.201768</ele>
        <time>2022-12-21T14:13:13.356Z</time>
      </trkpt>
      <trkpt lat="45.94472" lon="-0.98924">
        <ele>41.210892</ele>
        <time>2022-12-21T14:13:16.344Z</time>
      </trkpt>
      <trkpt lat="45.94459" lon="-0.98928">
        <ele>41.21985</ele>
        <time>2022-12-21T14:13:19.352Z</time>
      </trkpt>
      <trkpt lat="45.94448" lon="-0.98931">
        <ele>41.228071</ele>
        <time>2022-12-21T14:13:22.346Z</time>
      </trkpt>
      <trkpt lat="45.94438" lon="-0.98933">
        <ele>41.234862</ele>
        <time>2022-12-21T14:13:25.350Z</time>
      </trkpt>
      <trkpt lat="45.94428" lon="-0.98935">
        <ele>41.241734</ele>
        <time>2022-12-21T14:13:28.347Z</time>
      </trkpt>
      <trkpt lat="45.94416" lon="-0.98936">
        <ele>41.250143</ele>
        <time>2022-12-21T14:13:31.361Z</time>
      </trkpt>
      <trkpt lat="45.94403" lon="-0.98937">
        <ele>41.259021</ele>
        <time>2022-12-21T14:13:34.362Z</time>
      </trkpt>
      <trkpt lat="45.94394" lon="-0.98937">
        <ele>41.265208</ele>
        <time>2022-12-21T14:13:36.336Z</time>
      </trkpt>
      <trkpt lat="45.9438" lon="-0.98936">
        <ele>41.274358</ele>
        <time>2022-12-21T14:13:39.343Z</time>
      </trkpt>
      <trkpt lat="45.94367" lon="-0.98934">
        <ele>41.283498</ele>
        <time>2022-12-21T14:13:42.355Z</time>
      </trkpt>
      <trkpt lat="45.94354" lon="-0.9893">
        <ele>41.271787</ele>
        <time>2022-12-21T14:13:45.361Z</time>
      </trkpt>
      <trkpt lat="45.94345" lon="-0.98927">
        <ele>41.238811</ele>
        <time>2022-12-21T14:13:47.343Z</time>
      </trkpt>
      <trkpt lat="45.94336" lon="-0.98925">
        <ele>41.207893</ele>
        <time>2022-12-21T14:13:49.351Z</time>
      </trkpt>
      <trkpt lat="45.94327" lon="-0.98921">
        <ele>41.176624</ele>
        <time>2022-12-21T14:13:51.349Z</time>
      </trkpt>
      <trkpt lat="45.94314" lon="-0.98916">
        <ele>41.130538</ele>
        <time>2022-12-21T14:13:54.343Z</time>
      </trkpt>
      <trkpt lat="45.94303" lon="-0.98909">
        <ele>41.088134</ele>
        <time>2022-12-21T14:13:57.346Z</time>
      </trkpt>
      <trkpt lat="45.94292" lon="-0.98903">
        <ele>41.04763</ele>
        <time>2022-12-21T14:14:00.372Z</time>
      </trkpt>
      <trkpt lat="45.94283" lon="-0.98897">
        <ele>41.012722</ele>
        <time>2022-12-21T14:14:03.341Z</time>
      </trkpt>
      <trkpt lat="45.94272" lon="-0.98889">
        <ele>40.973597</ele>
        <time>2022-12-21T14:14:06.369Z</time>
      </trkpt>
      <trkpt lat="45.94261" lon="-0.9888">
        <ele>40.928457</ele>
        <time>2022-12-21T14:14:09.361Z</time>
      </trkpt>
      <trkpt lat="45.94253" lon="-0.98874">
        <ele>40.896336</ele>
        <time>2022-12-21T14:14:11.341Z</time>
      </trkpt>
      <trkpt lat="45.94241" lon="-0.98863">
        <ele>40.85039</ele>
        <time>2022-12-21T14:14:14.361Z</time>
      </trkpt>
      <trkpt lat="45.9423" lon="-0.98852">
        <ele>40.804372</ele>
        <time>2022-12-21T14:14:17.338Z</time>
      </trkpt>
      <trkpt lat="45.9422" lon="-0.98841">
        <ele>40.760299</ele>
        <time>2022-12-21T14:14:20.328Z</time>
      </trkpt>
      <trkpt lat="45.9421" lon="-0.98831">
        <ele>40.719701</ele>
        <time>2022-12-21T14:14:23.365Z</time>
      </trkpt>
      <trkpt lat="45.94201" lon="-0.98822">
        <ele>40.680078</ele>
        <time>2022-12-21T14:14:26.363Z</time>
      </trkpt>
      <trkpt lat="45.94191" lon="-0.98812">
        <ele>40.638624</ele>
        <time>2022-12-21T14:14:29.343Z</time>
      </trkpt>
      <trkpt lat="45.94181" lon="-0.98801">
        <ele>40.594922</ele>
        <time>2022-12-21T14:14:32.350Z</time>
      </trkpt>
      <trkpt lat="45.94171" lon="-0.98791">
        <ele>40.54891</ele>
        <time>2022-12-21T14:14:35.366Z</time>
      </trkpt>
      <trkpt lat="45.9416" lon="-0.98781">
        <ele>40.504417</ele>
        <time>2022-12-21T14:14:38.347Z</time>
      </trkpt>
      <trkpt lat="45.9415" lon="-0.98771">
        <ele>40.46084</ele>
        <time>2022-12-21T14:14:41.347Z</time>
      </trkpt>
      <trkpt lat="45.9414" lon="-0.98762">
        <ele>40.419711</ele>
        <time>2022-12-21T14:14:44.365Z</time>
      </trkpt>
      <trkpt lat="45.94129" lon="-0.98751">
        <ele>40.373228</ele>
        <time>2022-12-21T14:14:47.358Z</time>
      </trkpt>
      <trkpt lat="45.94121" lon="-0.98744">
        <ele>40.338978</ele>
        <time>2022-12-21T14:14:49.341Z</time>
      </trkpt>
      <trkpt lat="45.94113" lon="-0.98736">
        <ele>40.303361</ele>
        <time>2022-12-21T14:14:51.360Z</time>
      </trkpt>
      <trkpt lat="45.94102" lon="-0.98726">
        <ele>40.258072</ele>
        <time>2022-12-21T14:14:54.353Z</time>
      </trkpt>
      <trkpt lat="45.94094" lon="-0.98719">
        <ele>40.225412</ele>
        <time>2022-12-21T14:14:56.346Z</time>
      </trkpt>
      <trkpt lat="45.94083" lon="-0.98709">
        <ele>40.179669</ele>
        <time>2022-12-21T14:14:59.362Z</time>
      </trkpt>
      <trkpt lat="45.94072" lon="-0.98699">
        <ele>40.132812</ele>
        <time>2022-12-21T14:15:02.346Z</time>
      </trkpt>
      <trkpt lat="45.9406" lon="-0.9869">
        <ele>40.086168</ele>
        <time>2022-12-21T14:15:05.360Z</time>
      </trkpt>
      <trkpt lat="45.94052" lon="-0.98684">
        <ele>40.053789</ele>
        <time>2022-12-21T14:15:07.360Z</time>
      </trkpt>
      <trkpt lat="45.94044" lon="-0.98678">
        <ele>40.048425</ele>
        <time>2022-12-21T14:15:09.342Z</time>
      </trkpt>
      <trkpt lat="45.94033" lon="-0.98669">
        <ele>40.083306</ele>
        <time>2022-12-21T14:15:12.361Z</time>
      </trkpt>
      <trkpt lat="45.94023" lon="-0.98661">
        <ele>40.115024</ele>
        <time>2022-12-21T14:15:15.356Z</time>
      </trkpt>
      <trkpt lat="45.94013" lon="-0.98654">
        <ele>40.144702</ele>
        <time>2022-12-21T14:15:18.341Z</time>
      </trkpt>
      <trkpt lat="45.94004" lon="-0.98647">
        <ele>40.173018</ele>
        <time>2022-12-21T14:15:21.359Z</time>
      </trkpt>
      <trkpt lat="45.93996" lon="-0.9864">
        <ele>40.200475</ele>
        <time>2022-12-21T14:15:24.342Z</time>
      </trkpt>
      <trkpt lat="45.93986" lon="-0.98632">
        <ele>40.231236</ele>
        <time>2022-12-21T14:15:27.350Z</time>
      </trkpt>
      <trkpt lat="45.93976" lon="-0.98623">
        <ele>40.264486</ele>
        <time>2022-12-21T14:15:30.343Z</time>
      </trkpt>
      <trkpt lat="45.93965" lon="-0.98615">
        <ele>40.296875</ele>
        <time>2022-12-21T14:15:33.330Z</time>
      </trkpt>
      <trkpt lat="45.93955" lon="-0.98607">
        <ele>40.328742</ele>
        <time>2022-12-21T14:15:36.367Z</time>
      </trkpt>
      <trkpt lat="45.93946" lon="-0.98598">
        <ele>40.359327</ele>
        <time>2022-12-21T14:15:39.332Z</time>
      </trkpt>
      <trkpt lat="45.93937" lon="-0.98592">
        <ele>40.388321</ele>
        <time>2022-12-21T14:15:42.359Z</time>
      </trkpt>
      <trkpt lat="45.93928" lon="-0.98585">
        <ele>40.415727</ele>
        <time>2022-12-21T14:15:45.361Z</time>
      </trkpt>
      <trkpt lat="45.93918" lon="-0.98577">
        <ele>40.447258</ele>
        <time>2022-12-21T14:15:49.366Z</time>
      </trkpt>
      <trkpt lat="45.9391" lon="-0.9857">
        <ele>40.472317</ele>
        <time>2022-12-21T14:15:53.363Z</time>
      </trkpt>
      <trkpt lat="45.93902" lon="-0.98563">
        <ele>40.498238</ele>
        <time>2022-12-21T14:15:57.336Z</time>
      </trkpt>
      <trkpt lat="45.93894" lon="-0.98558">
        <ele>40.52399</ele>
        <time>2022-12-21T14:16:01.345Z</time>
      </trkpt>
      <trkpt lat="45.93886" lon="-0.9855">
        <ele>40.579981</ele>
        <time>2022-12-21T14:16:05.345Z</time>
      </trkpt>
      <trkpt lat="45.93877" lon="-0.98541">
        <ele>40.662468</ele>
        <time>2022-12-21T14:16:09.344Z</time>
      </trkpt>
      <trkpt lat="45.93869" lon="-0.98528">
        <ele>40.754543</ele>
        <time>2022-12-21T14:16:13.334Z</time>
      </trkpt>
      <trkpt lat="45.93862" lon="-0.9852">
        <ele>40.824452</ele>
        <time>2022-12-21T14:16:16.331Z</time>
      </trkpt>
      <trkpt lat="45.93855" lon="-0.98509">
        <ele>40.907933</ele>
        <time>2022-12-21T14:16:20.337Z</time>
      </trkpt>
      <trkpt lat="45.93846" lon="-0.98498">
        <ele>40.995144</ele>
        <time>2022-12-21T14:16:24.338Z</time>
      </trkpt>
      <trkpt lat="45.93839" lon="-0.98487">
        <ele>41.075327</ele>
        <time>2022-12-21T14:16:28.343Z</time>
      </trkpt>
      <trkpt lat="45.93831" lon="-0.98479">
        <ele>41.155237</ele>
        <time>2022-12-21T14:16:33.332Z</time>
      </trkpt>
      <trkpt lat="45.93822" lon="-0.98471">
        <ele>41.233907</ele>
        <time>2022-12-21T14:16:38.350Z</time>
      </trkpt>
      <trkpt lat="45.93814" lon="-0.98463">
        <ele>41.308118</ele>
        <time>2022-12-21T14:16:42.332Z</time>
      </trkpt>
      <trkpt lat="45.93803" lon="-0.98459">
        <ele>41.39981</ele>
        <time>2022-12-21T14:16:46.336Z</time>
      </trkpt>
      <trkpt lat="45.93793" lon="-0.98456">
        <ele>41.474149</ele>
        <time>2022-12-21T14:16:49.347Z</time>
      </trkpt>
      <trkpt lat="45.93783" lon="-0.98455">
        <ele>41.551816</ele>
        <time>2022-12-21T14:16:52.335Z</time>
      </trkpt>
      <trkpt lat="45.93774" lon="-0.98455">
        <ele>41.625384</ele>
        <time>2022-12-21T14:16:55.328Z</time>
      </trkpt>
      <trkpt lat="45.93764" lon="-0.98456">
        <ele>41.699455</ele>
        <time>2022-12-21T14:16:58.346Z</time>
      </trkpt>
      <trkpt lat="45.93755" lon="-0.98459">
        <ele>41.773387</ele>
        <time>2022-12-21T14:17:01.346Z</time>
      </trkpt>
      <trkpt lat="45.93746" lon="-0.98459">
        <ele>41.845425</ele>
        <time>2022-12-21T14:17:04.338Z</time>
      </trkpt>
      <trkpt lat="45.93736" lon="-0.98459">
        <ele>41.918226</ele>
        <time>2022-12-21T14:17:07.346Z</time>
      </trkpt>
      <trkpt lat="45.93727" lon="-0.98461">
        <ele>41.994746</ele>
        <time>2022-12-21T14:17:10.338Z</time>
      </trkpt>
      <trkpt lat="45.93717" lon="-0.98469">
        <ele>42.095885</ele>
        <time>2022-12-21T14:17:14.336Z</time>
      </trkpt>
      <trkpt lat="45.93709" lon="-0.98476">
        <ele>42.174882</ele>
        <time>2022-12-21T14:17:17.337Z</time>
      </trkpt>
      <trkpt lat="45.93701" lon="-0.98483">
        <ele>42.256269</ele>
        <time>2022-12-21T14:17:20.332Z</time>
      </trkpt>
      <trkpt lat="45.9369" lon="-0.98486">
        <ele>42.352912</ele>
        <time>2022-12-21T14:17:24.360Z</time>
      </trkpt>
      <trkpt lat="45.93679" lon="-0.98484">
        <ele>42.443231</ele>
        <time>2022-12-21T14:17:28.336Z</time>
      </trkpt>
      <trkpt lat="45.93669" lon="-0.9848">
        <ele>42.535356</ele>
        <time>2022-12-21T14:17:32.342Z</time>
      </trkpt>
      <trkpt lat="45.93661" lon="-0.98471">
        <ele>42.619627</ele>
        <time>2022-12-21T14:17:36.366Z</time>
      </trkpt>
      <trkpt lat="45.93651" lon="-0.98464">
        <ele>42.715626</ele>
        <time>2022-12-21T14:17:40.358Z</time>
      </trkpt>
      <trkpt lat="45.93639" lon="-0.98465">
        <ele>42.816446</ele>
        <time>2022-12-21T14:17:44.348Z</time>
      </trkpt>
      <trkpt lat="45.93628" lon="-0.98468">
        <ele>42.911586</ele>
        <time>2022-12-21T14:17:48.360Z</time>
      </trkpt>
      <trkpt lat="45.93619" lon="-0.9847">
        <ele>42.991673</ele>
        <time>2022-12-21T14:17:52.362Z</time>
      </trkpt>
      <trkpt lat="45.93609" lon="-0.98472">
        <ele>43.075223</ele>
        <time>2022-12-21T14:17:57.335Z</time>
      </trkpt>
      <trkpt lat="45.936" lon="-0.98472">
        <ele>43.158881</ele>
        <time>2022-12-21T14:18:01.350Z</time>
      </trkpt>
      <trkpt lat="45.9359" lon="-0.98471">
        <ele>43.243506</ele>
        <time>2022-12-21T14:18:05.362Z</time>
      </trkpt>
      <trkpt lat="45.9358" lon="-0.9847">
        <ele>43.325747</ele>
        <time>2022-12-21T14:18:09.341Z</time>
      </trkpt>
      <trkpt lat="45.93571" lon="-0.9847">
        <ele>43.40342</ele>
        <time>2022-12-21T14:18:12.340Z</time>
      </trkpt>
      <trkpt lat="45.93561" lon="-0.98471">
        <ele>43.454704</ele>
        <time>2022-12-21T14:18:15.344Z</time>
      </trkpt>
      <trkpt lat="45.9355" lon="-0.98471">
        <ele>43.433223</ele>
        <time>2022-12-21T14:18:18.344Z</time>
      </trkpt>
      <trkpt lat="45.93539" lon="-0.98471">
        <ele>43.411549</ele>
        <time>2022-12-21T14:18:21.334Z</time>
      </trkpt>
      <trkpt lat="45.93528" lon="-0.9847">
        <ele>43.39079</ele>
        <time>2022-12-21T14:18:24.334Z</time>
      </trkpt>
      <trkpt lat="45.93517" lon="-0.98467">
        <ele>43.368601</ele>
        <time>2022-12-21T14:18:27.347Z</time>
      </trkpt>
      <trkpt lat="45.93505" lon="-0.98465">
        <ele>43.34636</ele>
        <time>2022-12-21T14:18:30.341Z</time>
      </trkpt>
      <trkpt lat="45.93494" lon="-0.98462">
        <ele>43.324426</ele>
        <time>2022-12-21T14:18:33.340Z</time>
      </trkpt>
      <trkpt lat="45.93482" lon="-0.9846">
        <ele>43.301877</ele>
        <time>2022-12-21T14:18:36.337Z</time>
      </trkpt>
      <trkpt lat="45.93471" lon="-0.98457">
        <ele>43.279828</ele>
        <time>2022-12-21T14:18:39.336Z</time>
      </trkpt>
      <trkpt lat="45.9346" lon="-0.98453">
        <ele>43.257242</ele>
        <time>2022-12-21T14:18:42.335Z</time>
      </trkpt>
      <trkpt lat="45.93448" lon="-0.98449">
        <ele>43.233623</ele>
        <time>2022-12-21T14:18:45.345Z</time>
      </trkpt>
      <trkpt lat="45.93436" lon="-0.98444">
        <ele>43.209632</ele>
        <time>2022-12-21T14:18:48.337Z</time>
      </trkpt>
      <trkpt lat="45.93424" lon="-0.98439">
        <ele>43.185339</ele>
        <time>2022-12-21T14:18:51.345Z</time>
      </trkpt>
      <trkpt lat="45.93412" lon="-0.98433">
        <ele>43.160754</ele>
        <time>2022-12-21T14:18:54.335Z</time>
      </trkpt>
      <trkpt lat="45.934" lon="-0.98426">
        <ele>43.135842</ele>
        <time>2022-12-21T14:18:57.349Z</time>
      </trkpt>
      <trkpt lat="45.93388" lon="-0.9842">
        <ele>43.115168</ele>
        <time>2022-12-21T14:19:00.335Z</time>
      </trkpt>
      <trkpt lat="45.93377" lon="-0.98413">
        <ele>43.150152</ele>
        <time>2022-12-21T14:19:03.339Z</time>
      </trkpt>
      <trkpt lat="45.93366" lon="-0.98405">
        <ele>43.185871</ele>
        <time>2022-12-21T14:19:06.337Z</time>
      </trkpt>
      <trkpt lat="45.93354" lon="-0.98398">
        <ele>43.221334</ele>
        <time>2022-12-21T14:19:09.344Z</time>
      </trkpt>
      <trkpt lat="45.93343" lon="-0.98388">
        <ele>43.258177</ele>
        <time>2022-12-21T14:19:12.344Z</time>
      </trkpt>
      <trkpt lat="45.93332" lon="-0.98379">
        <ele>43.293553</ele>
        <time>2022-12-21T14:19:15.387Z</time>
      </trkpt>
      <trkpt lat="45.93322" lon="-0.98371">
        <ele>43.325268</ele>
        <time>2022-12-21T14:19:18.357Z</time>
      </trkpt>
      <trkpt lat="45.93313" lon="-0.98362">
        <ele>43.357611</ele>
        <time>2022-12-21T14:19:21.340Z</time>
      </trkpt>
      <trkpt lat="45.93303" lon="-0.98352">
        <ele>43.391545</ele>
        <time>2022-12-21T14:19:24.356Z</time>
      </trkpt>
      <trkpt lat="45.93293" lon="-0.98342">
        <ele>43.426154</ele>
        <time>2022-12-21T14:19:27.345Z</time>
      </trkpt>
      <trkpt lat="45.93282" lon="-0.98331">
        <ele>43.462359</ele>
        <time>2022-12-21T14:19:30.340Z</time>
      </trkpt>
      <trkpt lat="45.93272" lon="-0.98321">
        <ele>43.498567</ele>
        <time>2022-12-21T14:19:33.362Z</time>
      </trkpt>
      <trkpt lat="45.93261" lon="-0.98311">
        <ele>43.534583</ele>
        <time>2022-12-21T14:19:36.361Z</time>
      </trkpt>
      <trkpt lat="45.93251" lon="-0.98299">
        <ele>43.571609</ele>
        <time>2022-12-21T14:19:39.361Z</time>
      </trkpt>
      <trkpt lat="45.9324" lon="-0.98289">
        <ele>43.609201</ele>
        <time>2022-12-21T14:19:42.333Z</time>
      </trkpt>
      <trkpt lat="45.9323" lon="-0.98279">
        <ele>43.622706</ele>
        <time>2022-12-21T14:19:45.342Z</time>
      </trkpt>
      <trkpt lat="45.9322" lon="-0.98268">
        <ele>43.625623</ele>
        <time>2022-12-21T14:19:48.353Z</time>
      </trkpt>
      <trkpt lat="45.9321" lon="-0.98258">
        <ele>43.628661</ele>
        <time>2022-12-21T14:19:51.340Z</time>
      </trkpt>
      <trkpt lat="45.932" lon="-0.98247">
        <ele>43.631688</ele>
        <time>2022-12-21T14:19:54.343Z</time>
      </trkpt>
      <trkpt lat="45.9319" lon="-0.98237">
        <ele>43.634785</ele>
        <time>2022-12-21T14:19:57.363Z</time>
      </trkpt>
      <trkpt lat="45.93179" lon="-0.98226">
        <ele>43.637973</ele>
        <time>2022-12-21T14:20:00.356Z</time>
      </trkpt>
      <trkpt lat="45.93169" lon="-0.98216">
        <ele>43.64115</ele>
        <time>2022-12-21T14:20:03.344Z</time>
      </trkpt>
      <trkpt lat="45.93158" lon="-0.98205">
        <ele>43.644237</ele>
        <time>2022-12-21T14:20:06.360Z</time>
      </trkpt>
      <trkpt lat="45.93148" lon="-0.98195">
        <ele>43.647279</ele>
        <time>2022-12-21T14:20:09.350Z</time>
      </trkpt>
      <trkpt lat="45.93138" lon="-0.98185">
        <ele>43.650396</ele>
        <time>2022-12-21T14:20:12.357Z</time>
      </trkpt>
      <trkpt lat="45.93127" lon="-0.98174">
        <ele>43.653453</ele>
        <time>2022-12-21T14:20:15.360Z</time>
      </trkpt>
      <trkpt lat="45.93118" lon="-0.98164">
        <ele>43.65641</ele>
        <time>2022-12-21T14:20:18.354Z</time>
      </trkpt>
      <trkpt lat="45.93107" lon="-0.98154">
        <ele>43.659477</ele>
        <time>2022-12-21T14:20:21.350Z</time>
      </trkpt>
      <trkpt lat="45.93097" lon="-0.98143">
        <ele>43.662684</ele>
        <time>2022-12-21T14:20:24.345Z</time>
      </trkpt>
      <trkpt lat="45.93087" lon="-0.98132">
        <ele>43.651451</ele>
        <time>2022-12-21T14:20:27.348Z</time>
      </trkpt>
      <trkpt lat="45.93076" lon="-0.98122">
        <ele>43.609115</ele>
        <time>2022-12-21T14:20:30.361Z</time>
      </trkpt>
      <trkpt lat="45.93067" lon="-0.98112">
        <ele>43.568897</ele>
        <time>2022-12-21T14:20:33.366Z</time>
      </trkpt>
      <trkpt lat="45.93058" lon="-0.98104">
        <ele>43.533688</ele>
        <time>2022-12-21T14:20:36.345Z</time>
      </trkpt>
      <trkpt lat="45.9305" lon="-0.98095">
        <ele>43.498201</ele>
        <time>2022-12-21T14:20:39.364Z</time>
      </trkpt>
      <trkpt lat="45.93041" lon="-0.98085">
        <ele>43.460192</ele>
        <time>2022-12-21T14:20:42.359Z</time>
      </trkpt>
      <trkpt lat="45.93032" lon="-0.98076">
        <ele>43.421922</ele>
        <time>2022-12-21T14:20:45.347Z</time>
      </trkpt>
      <trkpt lat="45.93023" lon="-0.98067">
        <ele>43.382638</ele>
        <time>2022-12-21T14:20:48.349Z</time>
      </trkpt>
      <trkpt lat="45.93013" lon="-0.98058">
        <ele>43.343243</ele>
        <time>2022-12-21T14:20:51.364Z</time>
      </trkpt>
      <trkpt lat="45.93004" lon="-0.98048">
        <ele>43.30386</ele>
        <time>2022-12-21T14:20:54.345Z</time>
      </trkpt>
      <trkpt lat="45.92994" lon="-0.98038">
        <ele>43.264336</ele>
        <time>2022-12-21T14:20:57.361Z</time>
      </trkpt>
      <trkpt lat="45.92985" lon="-0.98028">
        <ele>43.223836</ele>
        <time>2022-12-21T14:21:00.351Z</time>
      </trkpt>
      <trkpt lat="45.92975" lon="-0.98018">
        <ele>43.182636</ele>
        <time>2022-12-21T14:21:03.360Z</time>
      </trkpt>
      <trkpt lat="45.92965" lon="-0.98008">
        <ele>43.139913</ele>
        <time>2022-12-21T14:21:06.356Z</time>
      </trkpt>
      <trkpt lat="45.92955" lon="-0.97999">
        <ele>43.099663</ele>
        <time>2022-12-21T14:21:09.337Z</time>
      </trkpt>
      <trkpt lat="45.92947" lon="-0.9799">
        <ele>43.064446</ele>
        <time>2022-12-21T14:21:12.350Z</time>
      </trkpt>
      <trkpt lat="45.92939" lon="-0.97982">
        <ele>43.03082</ele>
        <time>2022-12-21T14:21:15.362Z</time>
      </trkpt>
      <trkpt lat="45.92931" lon="-0.97973">
        <ele>42.994677</ele>
        <time>2022-12-21T14:21:18.362Z</time>
      </trkpt>
      <trkpt lat="45.92922" lon="-0.97964">
        <ele>42.954235</ele>
        <time>2022-12-21T14:21:21.331Z</time>
      </trkpt>
      <trkpt lat="45.92913" lon="-0.97955">
        <ele>42.912159</ele>
        <time>2022-12-21T14:21:24.338Z</time>
      </trkpt>
      <trkpt lat="45.92903" lon="-0.97944">
        <ele>42.869017</ele>
        <time>2022-12-21T14:21:27.363Z</time>
      </trkpt>
      <trkpt lat="45.92893" lon="-0.97935">
        <ele>42.825894</ele>
        <time>2022-12-21T14:21:30.347Z</time>
      </trkpt>
      <trkpt lat="45.92884" lon="-0.97925">
        <ele>42.782329</ele>
        <time>2022-12-21T14:21:33.365Z</time>
      </trkpt>
      <trkpt lat="45.92874" lon="-0.97914">
        <ele>42.738632</ele>
        <time>2022-12-21T14:21:36.339Z</time>
      </trkpt>
      <trkpt lat="45.92864" lon="-0.97905">
        <ele>42.694762</ele>
        <time>2022-12-21T14:21:39.348Z</time>
      </trkpt>
      <trkpt lat="45.92854" lon="-0.97895">
        <ele>42.651638</ele>
        <time>2022-12-21T14:21:42.345Z</time>
      </trkpt>
      <trkpt lat="45.92845" lon="-0.97886">
        <ele>42.609404</ele>
        <time>2022-12-21T14:21:45.348Z</time>
      </trkpt>
      <trkpt lat="45.92835" lon="-0.97876">
        <ele>42.565395</ele>
        <time>2022-12-21T14:21:48.333Z</time>
      </trkpt>
      <trkpt lat="45.92824" lon="-0.97865">
        <ele>42.517776</ele>
        <time>2022-12-21T14:21:51.340Z</time>
      </trkpt>
      <trkpt lat="45.92814" lon="-0.97854">
        <ele>42.470225</ele>
        <time>2022-12-21T14:21:54.346Z</time>
      </trkpt>
      <trkpt lat="45.92803" lon="-0.97843">
        <ele>42.421788</ele>
        <time>2022-12-21T14:21:57.362Z</time>
      </trkpt>
      <trkpt lat="45.92792" lon="-0.97833">
        <ele>42.410225</ele>
        <time>2022-12-21T14:22:00.364Z</time>
      </trkpt>
      <trkpt lat="45.92782" lon="-0.97822">
        <ele>42.458198</ele>
        <time>2022-12-21T14:22:03.349Z</time>
      </trkpt>
      <trkpt lat="45.92773" lon="-0.97812">
        <ele>42.501268</ele>
        <time>2022-12-21T14:22:06.352Z</time>
      </trkpt>
      <trkpt lat="45.92763" lon="-0.97803">
        <ele>42.545257</ele>
        <time>2022-12-21T14:22:09.364Z</time>
      </trkpt>
      <trkpt lat="45.92753" lon="-0.97792">
        <ele>42.591547</ele>
        <time>2022-12-21T14:22:12.338Z</time>
      </trkpt>
      <trkpt lat="45.92744" lon="-0.97781">
        <ele>42.638514</ele>
        <time>2022-12-21T14:22:15.346Z</time>
      </trkpt>
      <trkpt lat="45.92734" lon="-0.9777">
        <ele>42.686192</ele>
        <time>2022-12-21T14:22:18.344Z</time>
      </trkpt>
      <trkpt lat="45.92723" lon="-0.97759">
        <ele>42.734995</ele>
        <time>2022-12-21T14:22:21.346Z</time>
      </trkpt>
      <trkpt lat="45.92714" lon="-0.97746">
        <ele>42.78291</ele>
        <time>2022-12-21T14:22:24.341Z</time>
      </trkpt>
      <trkpt lat="45.92704" lon="-0.97735">
        <ele>42.831064</ele>
        <time>2022-12-21T14:22:27.334Z</time>
      </trkpt>
      <trkpt lat="45.92694" lon="-0.97723">
        <ele>42.88024</ele>
        <time>2022-12-21T14:22:30.340Z</time>
      </trkpt>
      <trkpt lat="45.92685" lon="-0.97712">
        <ele>42.925635</ele>
        <time>2022-12-21T14:22:33.358Z</time>
      </trkpt>
      <trkpt lat="45.92676" lon="-0.97702">
        <ele>42.965983</ele>
        <time>2022-12-21T14:22:36.341Z</time>
      </trkpt>
      <trkpt lat="45.92668" lon="-0.97693">
        <ele>43.005549</ele>
        <time>2022-12-21T14:22:39.362Z</time>
      </trkpt>
      <trkpt lat="45.9266" lon="-0.97683">
        <ele>43.046848</ele>
        <time>2022-12-21T14:22:42.345Z</time>
      </trkpt>
      <trkpt lat="45.92651" lon="-0.97673">
        <ele>43.102214</ele>
        <time>2022-12-21T14:22:45.351Z</time>
      </trkpt>
      <trkpt lat="45.92641" lon="-0.97663">
        <ele>43.178295</ele>
        <time>2022-12-21T14:22:48.360Z</time>
      </trkpt>
      <trkpt lat="45.92632" lon="-0.97652">
        <ele>43.255993</ele>
        <time>2022-12-21T14:22:51.350Z</time>
      </trkpt>
      <trkpt lat="45.92623" lon="-0.97641">
        <ele>43.332199</ele>
        <time>2022-12-21T14:22:54.343Z</time>
      </trkpt>
      <trkpt lat="45.92614" lon="-0.97629">
        <ele>43.411226</ele>
        <time>2022-12-21T14:22:57.347Z</time>
      </trkpt>
      <trkpt lat="45.92605" lon="-0.97619">
        <ele>43.482063</ele>
        <time>2022-12-21T14:23:00.346Z</time>
      </trkpt>
      <trkpt lat="45.92598" lon="-0.97609">
        <ele>43.547637</ele>
        <time>2022-12-21T14:23:03.345Z</time>
      </trkpt>
      <trkpt lat="45.92591" lon="-0.976">
        <ele>43.606502</ele>
        <time>2022-12-21T14:23:06.354Z</time>
      </trkpt>
      <trkpt lat="45.92582" lon="-0.9759">
        <ele>43.682307</ele>
        <time>2022-12-21T14:23:10.339Z</time>
      </trkpt>
      <trkpt lat="45.92574" lon="-0.97581">
        <ele>43.748219</ele>
        <time>2022-12-21T14:23:13.352Z</time>
      </trkpt>
      <trkpt lat="45.92566" lon="-0.97572">
        <ele>43.811438</ele>
        <time>2022-12-21T14:23:16.372Z</time>
      </trkpt>
      <trkpt lat="45.92558" lon="-0.97564">
        <ele>43.873115</ele>
        <time>2022-12-21T14:23:19.380Z</time>
      </trkpt>
      <trkpt lat="45.92551" lon="-0.97556">
        <ele>43.934793</ele>
        <time>2022-12-21T14:23:22.347Z</time>
      </trkpt>
      <trkpt lat="45.92543" lon="-0.97547">
        <ele>43.996963</ele>
        <time>2022-12-21T14:23:25.363Z</time>
      </trkpt>
      <trkpt lat="45.92535" lon="-0.97539">
        <ele>44.058256</ele>
        <time>2022-12-21T14:23:28.345Z</time>
      </trkpt>
      <trkpt lat="45.92527" lon="-0.97529">
        <ele>44.128262</ele>
        <time>2022-12-21T14:23:32.364Z</time>
      </trkpt>
      <trkpt lat="45.92518" lon="-0.97521">
        <ele>44.19487</ele>
        <time>2022-12-21T14:23:36.342Z</time>
      </trkpt>
      <trkpt lat="45.92509" lon="-0.97511">
        <ele>44.257282</ele>
        <time>2022-12-21T14:23:40.347Z</time>
      </trkpt>
      <trkpt lat="45.92501" lon="-0.97503">
        <ele>44.305895</ele>
        <time>2022-12-21T14:23:44.362Z</time>
      </trkpt>
      <trkpt lat="45.9249" lon="-0.97498">
        <ele>44.359202</ele>
        <time>2022-12-21T14:23:49.347Z</time>
      </trkpt>
      <trkpt lat="45.92481" lon="-0.97496">
        <ele>44.406352</ele>
        <time>2022-12-21T14:23:53.360Z</time>
      </trkpt>
      <trkpt lat="45.92471" lon="-0.97497">
        <ele>44.453673</ele>
        <time>2022-12-21T14:23:58.343Z</time>
      </trkpt>
      <trkpt lat="45.92462" lon="-0.975">
        <ele>44.498608</ele>
        <time>2022-12-21T14:24:03.364Z</time>
      </trkpt>
      <trkpt lat="45.92451" lon="-0.97508">
        <ele>44.555003</ele>
        <time>2022-12-21T14:24:08.356Z</time>
      </trkpt>
      <trkpt lat="45.92442" lon="-0.97516">
        <ele>44.609837</ele>
        <time>2022-12-21T14:24:12.347Z</time>
      </trkpt>
      <trkpt lat="45.92433" lon="-0.97525">
        <ele>44.663467</ele>
        <time>2022-12-21T14:24:16.361Z</time>
      </trkpt>
      <trkpt lat="45.92425" lon="-0.97534">
        <ele>44.710997</ele>
        <time>2022-12-21T14:24:20.353Z</time>
      </trkpt>
      <trkpt lat="45.92419" lon="-0.97524">
        <ele>44.757882</ele>
        <time>2022-12-21T14:24:29.334Z</time>
      </trkpt>
      <trkpt lat="45.9242" lon="-0.97509">
        <ele>44.808414</ele>
        <time>2022-12-21T14:24:34.365Z</time>
      </trkpt>
      <trkpt lat="45.92419" lon="-0.97491">
        <ele>44.867506</ele>
        <time>2022-12-21T14:24:38.343Z</time>
      </trkpt>
      <trkpt lat="45.92416" lon="-0.97477">
        <ele>44.916775</ele>
        <time>2022-12-21T14:24:41.365Z</time>
      </trkpt>
      <trkpt lat="45.92411" lon="-0.97465">
        <ele>44.963933</ele>
        <time>2022-12-21T14:24:44.355Z</time>
      </trkpt>
      <trkpt lat="45.92404" lon="-0.97456">
        <ele>45.007465</ele>
        <time>2022-12-21T14:24:47.362Z</time>
      </trkpt>
      <trkpt lat="45.92395" lon="-0.97445">
        <ele>45.066385</ele>
        <time>2022-12-21T14:24:51.362Z</time>
      </trkpt>
      <trkpt lat="45.92388" lon="-0.97436">
        <ele>45.077744</ele>
        <time>2022-12-21T14:24:54.353Z</time>
      </trkpt>
      <trkpt lat="45.9238" lon="-0.97428">
        <ele>45.026564</ele>
        <time>2022-12-21T14:24:57.341Z</time>
      </trkpt>
      <trkpt lat="45.92371" lon="-0.97419">
        <ele>44.972217</ele>
        <time>2022-12-21T14:25:00.363Z</time>
      </trkpt>
      <trkpt lat="45.92363" lon="-0.97411">
        <ele>44.918641</ele>
        <time>2022-12-21T14:25:03.365Z</time>
      </trkpt>
      <trkpt lat="45.92354" lon="-0.97402">
        <ele>44.863237</ele>
        <time>2022-12-21T14:25:06.343Z</time>
      </trkpt>
      <trkpt lat="45.92345" lon="-0.97393">
        <ele>44.80549</ele>
        <time>2022-12-21T14:25:09.357Z</time>
      </trkpt>
      <trkpt lat="45.92336" lon="-0.97383">
        <ele>44.747991</ele>
        <time>2022-12-21T14:25:12.362Z</time>
      </trkpt>
      <trkpt lat="45.92327" lon="-0.97374">
        <ele>44.689647</ele>
        <time>2022-12-21T14:25:15.347Z</time>
      </trkpt>
      <trkpt lat="45.92318" lon="-0.97364">
        <ele>44.629615</ele>
        <time>2022-12-21T14:25:18.372Z</time>
      </trkpt>
      <trkpt lat="45.92309" lon="-0.97354">
        <ele>44.571676</ele>
        <time>2022-12-21T14:25:21.339Z</time>
      </trkpt>
      <trkpt lat="45.923" lon="-0.97345">
        <ele>44.515823</ele>
        <time>2022-12-21T14:25:24.347Z</time>
      </trkpt>
      <trkpt lat="45.92291" lon="-0.97336">
        <ele>44.459721</ele>
        <time>2022-12-21T14:25:27.339Z</time>
      </trkpt>
      <trkpt lat="45.92282" lon="-0.97328">
        <ele>44.401919</ele>
        <time>2022-12-21T14:25:30.362Z</time>
      </trkpt>
      <trkpt lat="45.92272" lon="-0.97318">
        <ele>44.341031</ele>
        <time>2022-12-21T14:25:33.362Z</time>
      </trkpt>
      <trkpt lat="45.92263" lon="-0.9731">
        <ele>44.283861</ele>
        <time>2022-12-21T14:25:36.342Z</time>
      </trkpt>
      <trkpt lat="45.92254" lon="-0.97302">
        <ele>44.231836</ele>
        <time>2022-12-21T14:25:39.347Z</time>
      </trkpt>
      <trkpt lat="45.92247" lon="-0.97291">
        <ele>44.176021</ele>
        <time>2022-12-21T14:25:42.360Z</time>
      </trkpt>
      <trkpt lat="45.92238" lon="-0.97279">
        <ele>44.172594</ele>
        <time>2022-12-21T14:25:45.337Z</time>
      </trkpt>
      <trkpt lat="45.92231" lon="-0.97266">
        <ele>44.186256</ele>
        <time>2022-12-21T14:25:48.340Z</time>
      </trkpt>
      <trkpt lat="45.92223" lon="-0.97253">
        <ele>44.199812</ele>
        <time>2022-12-21T14:25:51.348Z</time>
      </trkpt>
      <trkpt lat="45.92215" lon="-0.97242">
        <ele>44.212958</ele>
        <time>2022-12-21T14:25:54.346Z</time>
      </trkpt>
      <trkpt lat="45.92206" lon="-0.97231">
        <ele>44.226173</ele>
        <time>2022-12-21T14:25:57.341Z</time>
      </trkpt>
      <trkpt lat="45.92198" lon="-0.97221">
        <ele>44.238462</ele>
        <time>2022-12-21T14:26:00.344Z</time>
      </trkpt>
      <trkpt lat="45.92189" lon="-0.97214">
        <ele>44.250358</ele>
        <time>2022-12-21T14:26:03.343Z</time>
      </trkpt>
      <trkpt lat="45.9218" lon="-0.97207">
        <ele>44.261821</ele>
        <time>2022-12-21T14:26:06.340Z</time>
      </trkpt>
      <trkpt lat="45.9217" lon="-0.97202">
        <ele>44.273249</ele>
        <time>2022-12-21T14:26:09.338Z</time>
      </trkpt>
      <trkpt lat="45.92161" lon="-0.97197">
        <ele>44.284971</ele>
        <time>2022-12-21T14:26:12.332Z</time>
      </trkpt>
      <trkpt lat="45.92151" lon="-0.97194">
        <ele>44.296705</ele>
        <time>2022-12-21T14:26:15.362Z</time>
      </trkpt>
      <trkpt lat="45.92141" lon="-0.9719">
        <ele>44.308566</ele>
        <time>2022-12-21T14:26:18.364Z</time>
      </trkpt>
      <trkpt lat="45.92131" lon="-0.97188">
        <ele>44.320317</ele>
        <time>2022-12-21T14:26:21.339Z</time>
      </trkpt>
      <trkpt lat="45.9212" lon="-0.97187">
        <ele>44.33203</ele>
        <time>2022-12-21T14:26:24.350Z</time>
      </trkpt>
      <trkpt lat="45.92111" lon="-0.97185">
        <ele>44.342901</ele>
        <time>2022-12-21T14:26:27.342Z</time>
      </trkpt>
      <trkpt lat="45.92099" lon="-0.97183">
        <ele>44.356166</ele>
        <time>2022-12-21T14:26:31.362Z</time>
      </trkpt>
      <trkpt lat="45.9209" lon="-0.97178">
        <ele>44.367027</ele>
        <time>2022-12-21T14:26:34.343Z</time>
      </trkpt>
      <trkpt lat="45.92081" lon="-0.97173">
        <ele>44.432955</ele>
        <time>2022-12-21T14:26:37.341Z</time>
      </trkpt>
      <trkpt lat="45.92072" lon="-0.97166">
        <ele>44.500617</ele>
        <time>2022-12-21T14:26:40.343Z</time>
      </trkpt>
      <trkpt lat="45.92062" lon="-0.97158">
        <ele>44.578414</ele>
        <time>2022-12-21T14:26:44.347Z</time>
      </trkpt>
      <trkpt lat="45.92053" lon="-0.9715">
        <ele>44.653339</ele>
        <time>2022-12-21T14:26:48.333Z</time>
      </trkpt>
      <trkpt lat="45.92045" lon="-0.97143">
        <ele>44.717433</ele>
        <time>2022-12-21T14:26:51.357Z</time>
      </trkpt>
      <trkpt lat="45.92037" lon="-0.97134">
        <ele>44.784778</ele>
        <time>2022-12-21T14:26:54.345Z</time>
      </trkpt>
      <trkpt lat="45.92029" lon="-0.97125">
        <ele>44.855749</ele>
        <time>2022-12-21T14:26:57.343Z</time>
      </trkpt>
      <trkpt lat="45.92022" lon="-0.97114">
        <ele>44.927239</ele>
        <time>2022-12-21T14:27:00.335Z</time>
      </trkpt>
      <trkpt lat="45.92015" lon="-0.97102">
        <ele>45.001801</ele>
        <time>2022-12-21T14:27:03.336Z</time>
      </trkpt>
      <trkpt lat="45.92009" lon="-0.9709">
        <ele>45.074864</ele>
        <time>2022-12-21T14:27:06.336Z</time>
      </trkpt>
      <trkpt lat="45.92002" lon="-0.97078">
        <ele>45.149525</ele>
        <time>2022-12-21T14:27:09.337Z</time>
      </trkpt>
      <trkpt lat="45.91996" lon="-0.97064">
        <ele>45.225262</ele>
        <time>2022-12-21T14:27:12.335Z</time>
      </trkpt>
      <trkpt lat="45.91989" lon="-0.97049">
        <ele>45.308952</ele>
        <time>2022-12-21T14:27:15.344Z</time>
      </trkpt>
      <trkpt lat="45.91983" lon="-0.97033">
        <ele>45.3969</ele>
        <time>2022-12-21T14:27:18.343Z</time>
      </trkpt>
      <trkpt lat="45.91978" lon="-0.97018">
        <ele>45.480269</ele>
        <time>2022-12-21T14:27:21.339Z</time>
      </trkpt>
      <trkpt lat="45.91973" lon="-0.97004">
        <ele>45.552386</ele>
        <time>2022-12-21T14:27:24.337Z</time>
      </trkpt>
      <trkpt lat="45.9197" lon="-0.96988">
        <ele>45.627799</ele>
        <time>2022-12-21T14:27:28.355Z</time>
      </trkpt>
      <trkpt lat="45.91967" lon="-0.96972">
        <ele>45.701955</ele>
        <time>2022-12-21T14:27:32.336Z</time>
      </trkpt>
      <trkpt lat="45.91964" lon="-0.96957">
        <ele>45.766497</ele>
        <time>2022-12-21T14:27:35.354Z</time>
      </trkpt>
      <trkpt lat="45.91961" lon="-0.96942">
        <ele>45.835307</ele>
        <time>2022-12-21T14:27:38.345Z</time>
      </trkpt>
      <trkpt lat="45.91958" lon="-0.96925">
        <ele>45.908146</ele>
        <time>2022-12-21T14:27:41.357Z</time>
      </trkpt>
      <trkpt lat="45.91954" lon="-0.96908">
        <ele>45.984846</ele>
        <time>2022-12-21T14:27:44.348Z</time>
      </trkpt>
      <trkpt lat="45.91951" lon="-0.96892">
        <ele>46.055974</ele>
        <time>2022-12-21T14:27:47.364Z</time>
      </trkpt>
      <trkpt lat="45.91947" lon="-0.96877">
        <ele>46.123554</ele>
        <time>2022-12-21T14:27:50.348Z</time>
      </trkpt>
      <trkpt lat="45.91945" lon="-0.96862">
        <ele>46.187925</ele>
        <time>2022-12-21T14:27:53.343Z</time>
      </trkpt>
      <trkpt lat="45.9194" lon="-0.96847">
        <ele>46.259074</ele>
        <time>2022-12-21T14:27:56.353Z</time>
      </trkpt>
      <trkpt lat="45.91935" lon="-0.96831">
        <ele>46.332654</ele>
        <time>2022-12-21T14:27:59.357Z</time>
      </trkpt>
      <trkpt lat="45.91929" lon="-0.96817">
        <ele>46.404635</ele>
        <time>2022-12-21T14:28:02.331Z</time>
      </trkpt>
      <trkpt lat="45.91923" lon="-0.96802">
        <ele>46.478345</ele>
        <time>2022-12-21T14:28:05.351Z</time>
      </trkpt>
      <trkpt lat="45.91917" lon="-0.96787">
        <ele>46.550226</ele>
        <time>2022-12-21T14:28:08.366Z</time>
      </trkpt>
      <trkpt lat="45.91915" lon="-0.96772">
        <ele>46.616035</ele>
        <time>2022-12-21T14:28:11.339Z</time>
      </trkpt>
      <trkpt lat="45.91915" lon="-0.96758">
        <ele>46.679287</ele>
        <time>2022-12-21T14:28:14.351Z</time>
      </trkpt>
      <trkpt lat="45.91917" lon="-0.96742">
        <ele>46.693322</ele>
        <time>2022-12-21T14:28:17.357Z</time>
      </trkpt>
      <trkpt lat="45.91919" lon="-0.96725">
        <ele>46.667108</ele>
        <time>2022-12-21T14:28:20.346Z</time>
      </trkpt>
      <trkpt lat="45.91921" lon="-0.96706">
        <ele>46.639715</ele>
        <time>2022-12-21T14:28:23.343Z</time>
      </trkpt>
      <trkpt lat="45.91923" lon="-0.96688">
        <ele>46.611343</ele>
        <time>2022-12-21T14:28:26.343Z</time>
      </trkpt>
      <trkpt lat="45.91924" lon="-0.96674">
        <ele>46.591653</ele>
        <time>2022-12-21T14:28:28.347Z</time>
      </trkpt>
      <trkpt lat="45.91925" lon="-0.96661">
        <ele>46.571167</ele>
        <time>2022-12-21T14:28:30.364Z</time>
      </trkpt>
      <trkpt lat="45.91926" lon="-0.96642">
        <ele>46.542589</ele>
        <time>2022-12-21T14:28:33.351Z</time>
      </trkpt>
      <trkpt lat="45.91927" lon="-0.96624">
        <ele>46.515563</ele>
        <time>2022-12-21T14:28:36.350Z</time>
      </trkpt>
      <trkpt lat="45.91927" lon="-0.96606">
        <ele>46.489775</ele>
        <time>2022-12-21T14:28:39.354Z</time>
      </trkpt>
      <trkpt lat="45.91928" lon="-0.96591">
        <ele>46.467075</ele>
        <time>2022-12-21T14:28:42.356Z</time>
      </trkpt>
      <trkpt lat="45.9193" lon="-0.96577">
        <ele>46.446441</ele>
        <time>2022-12-21T14:28:45.364Z</time>
      </trkpt>
      <trkpt lat="45.91932" lon="-0.96563">
        <ele>46.424224</ele>
        <time>2022-12-21T14:28:48.343Z</time>
      </trkpt>
      <trkpt lat="45.91934" lon="-0.96547">
        <ele>46.400125</ele>
        <time>2022-12-21T14:28:51.361Z</time>
      </trkpt>
      <trkpt lat="45.91936" lon="-0.9653">
        <ele>46.374467</ele>
        <time>2022-12-21T14:28:54.368Z</time>
      </trkpt>
      <trkpt lat="45.91934" lon="-0.96513">
        <ele>46.348738</ele>
        <time>2022-12-21T14:28:57.350Z</time>
      </trkpt>
      <trkpt lat="45.91928" lon="-0.96498">
        <ele>46.323108</ele>
        <time>2022-12-21T14:29:00.347Z</time>
      </trkpt>
      <trkpt lat="45.91919" lon="-0.96486">
        <ele>46.231879</ele>
        <time>2022-12-21T14:29:03.362Z</time>
      </trkpt>
      <trkpt lat="45.91908" lon="-0.96476">
        <ele>46.141419</ele>
        <time>2022-12-21T14:29:06.348Z</time>
      </trkpt>
      <trkpt lat="45.91899" lon="-0.96469">
        <ele>46.056557</ele>
        <time>2022-12-21T14:29:09.344Z</time>
      </trkpt>
      <trkpt lat="45.91888" lon="-0.96461">
        <ele>45.968468</ele>
        <time>2022-12-21T14:29:12.368Z</time>
      </trkpt>
      <trkpt lat="45.91877" lon="-0.96454">
        <ele>45.875355</ele>
        <time>2022-12-21T14:29:15.344Z</time>
      </trkpt>
      <trkpt lat="45.91865" lon="-0.96448">
        <ele>45.781158</ele>
        <time>2022-12-21T14:29:18.342Z</time>
      </trkpt>
      <trkpt lat="45.91853" lon="-0.96442">
        <ele>45.689112</ele>
        <time>2022-12-21T14:29:21.365Z</time>
      </trkpt>
      <trkpt lat="45.91841" lon="-0.96436">
        <ele>45.595269</ele>
        <time>2022-12-21T14:29:24.343Z</time>
      </trkpt>
      <trkpt lat="45.91829" lon="-0.96432">
        <ele>45.502455</ele>
        <time>2022-12-21T14:29:27.352Z</time>
      </trkpt>
      <trkpt lat="45.91817" lon="-0.96429">
        <ele>45.409693</ele>
        <time>2022-12-21T14:29:30.339Z</time>
      </trkpt>
      <trkpt lat="45.91806" lon="-0.96426">
        <ele>45.322098</ele>
        <time>2022-12-21T14:29:33.343Z</time>
      </trkpt>
      <trkpt lat="45.91795" lon="-0.96423">
        <ele>45.243072</ele>
        <time>2022-12-21T14:29:36.351Z</time>
      </trkpt>
      <trkpt lat="45.91784" lon="-0.96421">
        <ele>45.158785</ele>
        <time>2022-12-21T14:29:40.341Z</time>
      </trkpt>
      <trkpt lat="45.91773" lon="-0.96418">
        <ele>45.07532</ele>
        <time>2022-12-21T14:29:44.359Z</time>
      </trkpt>
      <trkpt lat="45.91766" lon="-0.96406">
        <ele>44.99631</ele>
        <time>2022-12-21T14:29:49.361Z</time>
      </trkpt>
      <trkpt lat="45.91768" lon="-0.96392">
        <ele>45.021729</ele>
        <time>2022-12-21T14:29:55.357Z</time>
      </trkpt>
      <trkpt lat="45.91778" lon="-0.96397">
        <ele>45.09546</ele>
        <time>2022-12-21T14:30:01.350Z</time>
      </trkpt>
      <trkpt lat="45.9179" lon="-0.96401">
        <ele>45.175281</ele>
        <time>2022-12-21T14:30:05.357Z</time>
      </trkpt>
      <trkpt lat="45.918" lon="-0.96405">
        <ele>45.242645</ele>
        <time>2022-12-21T14:30:08.349Z</time>
      </trkpt>
      <trkpt lat="45.9181" lon="-0.96408">
        <ele>45.31502</ele>
        <time>2022-12-21T14:30:11.342Z</time>
      </trkpt>
      <trkpt lat="45.91821" lon="-0.96411">
        <ele>45.388145</ele>
        <time>2022-12-21T14:30:14.350Z</time>
      </trkpt>
      <trkpt lat="45.91831" lon="-0.96411">
        <ele>45.454991</ele>
        <time>2022-12-21T14:30:17.368Z</time>
      </trkpt>
      <trkpt lat="45.9184" lon="-0.96412">
        <ele>45.517912</ele>
        <time>2022-12-21T14:30:20.349Z</time>
      </trkpt>
      <trkpt lat="45.9185" lon="-0.96416">
        <ele>45.58881</ele>
        <time>2022-12-21T14:30:23.354Z</time>
      </trkpt>
      <trkpt lat="45.91861" lon="-0.96421">
        <ele>45.665066</ele>
        <time>2022-12-21T14:30:26.359Z</time>
      </trkpt>
      <trkpt lat="45.91871" lon="-0.9643">
        <ele>45.740333</ele>
        <time>2022-12-21T14:30:30.363Z</time>
      </trkpt>
      <trkpt lat="45.91881" lon="-0.96437">
        <ele>45.817669</ele>
        <time>2022-12-21T14:30:35.368Z</time>
      </trkpt>
      <trkpt lat="45.91889" lon="-0.96443">
        <ele>45.880387</ele>
        <time>2022-12-21T14:30:38.364Z</time>
      </trkpt>
      <trkpt lat="45.91899" lon="-0.96451">
        <ele>45.952741</ele>
        <time>2022-12-21T14:30:41.363Z</time>
      </trkpt>
      <trkpt lat="45.91909" lon="-0.96459">
        <ele>46.029574</ele>
        <time>2022-12-21T14:30:44.349Z</time>
      </trkpt>
      <trkpt lat="45.91919" lon="-0.96468">
        <ele>46.109413</ele>
        <time>2022-12-21T14:30:47.357Z</time>
      </trkpt>
      <trkpt lat="45.91929" lon="-0.96479">
        <ele>46.170311</ele>
        <time>2022-12-21T14:30:50.350Z</time>
      </trkpt>
      <trkpt lat="45.91938" lon="-0.9649">
        <ele>46.141857</ele>
        <time>2022-12-21T14:30:53.362Z</time>
      </trkpt>
      <trkpt lat="45.91947" lon="-0.96502">
        <ele>46.113827</ele>
        <time>2022-12-21T14:30:56.364Z</time>
      </trkpt>
      <trkpt lat="45.91955" lon="-0.96513">
        <ele>46.087996</ele>
        <time>2022-12-21T14:30:59.365Z</time>
      </trkpt>
      <trkpt lat="45.91962" lon="-0.96524">
        <ele>46.063944</ele>
        <time>2022-12-21T14:31:02.351Z</time>
      </trkpt>
      <trkpt lat="45.91971" lon="-0.96535">
        <ele>46.038001</ele>
        <time>2022-12-21T14:31:05.363Z</time>
      </trkpt>
      <trkpt lat="45.91981" lon="-0.96542">
        <ele>46.012473</ele>
        <time>2022-12-21T14:31:08.356Z</time>
      </trkpt>
      <trkpt lat="45.91992" lon="-0.96538">
        <ele>45.986215</ele>
        <time>2022-12-21T14:31:11.367Z</time>
      </trkpt>
      <trkpt lat="45.92003" lon="-0.9653">
        <ele>45.957675</ele>
        <time>2022-12-21T14:31:14.343Z</time>
      </trkpt>
      <trkpt lat="45.92013" lon="-0.96521">
        <ele>45.928668</ele>
        <time>2022-12-21T14:31:17.343Z</time>
      </trkpt>
      <trkpt lat="45.92024" lon="-0.9651">
        <ele>45.898865</ele>
        <time>2022-12-21T14:31:20.343Z</time>
      </trkpt>
      <trkpt lat="45.92033" lon="-0.96496">
        <ele>45.868145</ele>
        <time>2022-12-21T14:31:23.350Z</time>
      </trkpt>
      <trkpt lat="45.92038" lon="-0.96485">
        <ele>45.847449</ele>
        <time>2022-12-21T14:31:25.363Z</time>
      </trkpt>
      <trkpt lat="45.92045" lon="-0.96469">
        <ele>45.817093</ele>
        <time>2022-12-21T14:31:28.348Z</time>
      </trkpt>
      <trkpt lat="45.92052" lon="-0.96454">
        <ele>45.787308</ele>
        <time>2022-12-21T14:31:31.362Z</time>
      </trkpt>
      <trkpt lat="45.92058" lon="-0.96443">
        <ele>45.764893</ele>
        <time>2022-12-21T14:31:33.334Z</time>
      </trkpt>
      <trkpt lat="45.92066" lon="-0.96427">
        <ele>45.703628</ele>
        <time>2022-12-21T14:31:36.342Z</time>
      </trkpt>
      <trkpt lat="45.92073" lon="-0.96413">
        <ele>45.643974</ele>
        <time>2022-12-21T14:31:39.340Z</time>
      </trkpt>
      <trkpt lat="45.9208" lon="-0.964">
        <ele>45.590474</ele>
        <time>2022-12-21T14:31:42.333Z</time>
      </trkpt>
      <trkpt lat="45.92086" lon="-0.96389">
        <ele>45.540282</ele>
        <time>2022-12-21T14:31:45.343Z</time>
      </trkpt>
      <trkpt lat="45.92092" lon="-0.96377">
        <ele>45.489821</ele>
        <time>2022-12-21T14:31:48.335Z</time>
      </trkpt>
      <trkpt lat="45.92099" lon="-0.96365">
        <ele>45.43822</ele>
        <time>2022-12-21T14:31:51.340Z</time>
      </trkpt>
      <trkpt lat="45.92106" lon="-0.96352">
        <ele>45.381662</ele>
        <time>2022-12-21T14:31:54.343Z</time>
      </trkpt>
      <trkpt lat="45.92115" lon="-0.9634">
        <ele>45.321895</ele>
        <time>2022-12-21T14:31:57.331Z</time>
      </trkpt>
      <trkpt lat="45.92124" lon="-0.96327">
        <ele>45.258409</ele>
        <time>2022-12-21T14:32:00.345Z</time>
      </trkpt>
      <trkpt lat="45.92133" lon="-0.96313">
        <ele>45.19331</ele>
        <time>2022-12-21T14:32:03.344Z</time>
      </trkpt>
      <trkpt lat="45.9214" lon="-0.96304">
        <ele>45.148353</ele>
        <time>2022-12-21T14:32:05.366Z</time>
      </trkpt>
      <trkpt lat="45.92149" lon="-0.96291">
        <ele>45.082975</ele>
        <time>2022-12-21T14:32:08.338Z</time>
      </trkpt>
      <trkpt lat="45.92159" lon="-0.96279">
        <ele>45.022385</ele>
        <time>2022-12-21T14:32:11.356Z</time>
      </trkpt>
      <trkpt lat="45.92169" lon="-0.96267">
        <ele>44.958024</ele>
        <time>2022-12-21T14:32:14.349Z</time>
      </trkpt>
      <trkpt lat="45.92179" lon="-0.96255">
        <ele>44.893941</ele>
        <time>2022-12-21T14:32:17.343Z</time>
      </trkpt>
      <trkpt lat="45.92189" lon="-0.96243">
        <ele>44.930105</ele>
        <time>2022-12-21T14:32:20.352Z</time>
      </trkpt>
      <trkpt lat="45.92199" lon="-0.96231">
        <ele>44.994513</ele>
        <time>2022-12-21T14:32:23.344Z</time>
      </trkpt>
      <trkpt lat="45.92207" lon="-0.9622">
        <ele>45.05488</ele>
        <time>2022-12-21T14:32:26.360Z</time>
      </trkpt>
      <trkpt lat="45.92216" lon="-0.9621">
        <ele>45.111379</ele>
        <time>2022-12-21T14:32:29.347Z</time>
      </trkpt>
      <trkpt lat="45.92225" lon="-0.96198">
        <ele>45.175083</ele>
        <time>2022-12-21T14:32:32.345Z</time>
      </trkpt>
      <trkpt lat="45.92234" lon="-0.96186">
        <ele>45.238728</ele>
        <time>2022-12-21T14:32:35.349Z</time>
      </trkpt>
      <trkpt lat="45.92243" lon="-0.96175">
        <ele>45.300264</ele>
        <time>2022-12-21T14:32:38.332Z</time>
      </trkpt>
      <trkpt lat="45.92251" lon="-0.96164">
        <ele>45.353065</ele>
        <time>2022-12-21T14:32:41.349Z</time>
      </trkpt>
      <trkpt lat="45.92252" lon="-0.9615">
        <ele>45.405389</ele>
        <time>2022-12-21T14:32:44.354Z</time>
      </trkpt>
      <trkpt lat="45.92248" lon="-0.96136">
        <ele>45.458475</ele>
        <time>2022-12-21T14:32:47.343Z</time>
      </trkpt>
      <trkpt lat="45.92251" lon="-0.9612">
        <ele>45.514835</ele>
        <time>2022-12-21T14:32:51.341Z</time>
      </trkpt>
      <trkpt lat="45.92256" lon="-0.96107">
        <ele>45.56828</ele>
        <time>2022-12-21T14:32:55.342Z</time>
      </trkpt>
      <trkpt lat="45.92255" lon="-0.96092">
        <ele>45.625134</ele>
        <time>2022-12-21T14:32:59.348Z</time>
      </trkpt>
      <trkpt lat="45.92253" lon="-0.96077">
        <ele>45.680106</ele>
        <time>2022-12-21T14:33:04.338Z</time>
      </trkpt>
      <trkpt lat="45.92243" lon="-0.96075">
        <ele>45.730723</ele>
        <time>2022-12-21T14:33:08.343Z</time>
      </trkpt>
      <trkpt lat="45.92233" lon="-0.96077">
        <ele>45.782103</ele>
        <time>2022-12-21T14:33:12.344Z</time>
      </trkpt>
      <trkpt lat="45.92224" lon="-0.96077">
        <ele>45.824472</ele>
        <time>2022-12-21T14:33:17.346Z</time>
      </trkpt>
      <trkpt lat="45.92213" lon="-0.9608">
        <ele>45.873391</ele>
        <time>2022-12-21T14:33:22.348Z</time>
      </trkpt>
      <trkpt lat="45.92202" lon="-0.9608">
        <ele>45.921312</ele>
        <time>2022-12-21T14:33:26.352Z</time>
      </trkpt>
      <trkpt lat="45.92191" lon="-0.96081">
        <ele>45.971603</ele>
        <time>2022-12-21T14:33:30.346Z</time>
      </trkpt>
      <trkpt lat="45.92181" lon="-0.96084">
        <ele>46.015376</ele>
        <time>2022-12-21T14:33:34.346Z</time>
      </trkpt>
      <trkpt lat="45.92178" lon="-0.96099">
        <ele>46.065325</ele>
        <time>2022-12-21T14:33:39.353Z</time>
      </trkpt>
      <trkpt lat="45.92182" lon="-0.96114">
        <ele>46.112409</ele>
        <time>2022-12-21T14:33:43.339Z</time>
      </trkpt>
      <trkpt lat="45.92189" lon="-0.96126">
        <ele>46.161084</ele>
        <time>2022-12-21T14:33:47.338Z</time>
      </trkpt>
      <trkpt lat="45.92194" lon="-0.96137">
        <ele>46.20213</ele>
        <time>2022-12-21T14:33:52.346Z</time>
      </trkpt>
      <trkpt lat="45.92186" lon="-0.96128">
        <ele>46.246407</ele>
        <time>2022-12-21T14:33:57.345Z</time>
      </trkpt>
      <trkpt lat="45.92182" lon="-0.96112">
        <ele>46.299215</ele>
        <time>2022-12-21T14:34:01.347Z</time>
      </trkpt>
      <trkpt lat="45.92178" lon="-0.96097">
        <ele>46.348543</ele>
        <time>2022-12-21T14:34:05.347Z</time>
      </trkpt>
      <trkpt lat="45.9218" lon="-0.96083">
        <ele>46.394042</ele>
        <time>2022-12-21T14:34:09.334Z</time>
      </trkpt>
      <trkpt lat="45.92189" lon="-0.96079">
        <ele>46.435569</ele>
        <time>2022-12-21T14:34:13.344Z</time>
      </trkpt>
      <trkpt lat="45.92199" lon="-0.96078">
        <ele>46.478229</ele>
        <time>2022-12-21T14:34:18.340Z</time>
      </trkpt>
      <trkpt lat="45.92205" lon="-0.96069">
        <ele>46.518511</ele>
        <time>2022-12-21T14:34:24.340Z</time>
      </trkpt>
      <trkpt lat="45.92207" lon="-0.96069">
        <ele>46.528348</ele>
        <time>2022-12-21T14:35:05.630Z</time>
      </trkpt>
      <trkpt lat="45.92208" lon="-0.96066">
        <ele>46.539497</ele>
        <time>2022-12-21T15:10:39.841Z</time>
      </trkpt>
      <trkpt lat="45.92198" lon="-0.96063">
        <ele>46.588045</ele>
        <time>2022-12-21T15:12:32.359Z</time>
      </trkpt>
      <trkpt lat="45.92189" lon="-0.96059">
        <ele>46.55647</ele>
        <time>2022-12-21T15:12:36.363Z</time>
      </trkpt>
      <trkpt lat="45.92181" lon="-0.96054">
        <ele>46.499019</ele>
        <time>2022-12-21T15:12:41.349Z</time>
      </trkpt>
      <trkpt lat="45.92173" lon="-0.96045">
        <ele>46.439919</ele>
        <time>2022-12-21T15:12:48.344Z</time>
      </trkpt>
      <trkpt lat="45.92181" lon="-0.96035">
        <ele>46.375307</ele>
        <time>2022-12-21T15:13:15.340Z</time>
      </trkpt>
      <trkpt lat="45.92191" lon="-0.96035">
        <ele>46.312861</ele>
        <time>2022-12-21T15:13:19.349Z</time>
      </trkpt>
      <trkpt lat="45.92202" lon="-0.96034">
        <ele>46.244693</ele>
        <time>2022-12-21T15:13:23.343Z</time>
      </trkpt>
      <trkpt lat="45.92212" lon="-0.96034">
        <ele>46.180392</ele>
        <time>2022-12-21T15:13:27.344Z</time>
      </trkpt>
      <trkpt lat="45.92224" lon="-0.96033">
        <ele>46.111104</ele>
        <time>2022-12-21T15:13:31.350Z</time>
      </trkpt>
      <trkpt lat="45.92235" lon="-0.96033">
        <ele>46.043095</ele>
        <time>2022-12-21T15:13:35.346Z</time>
      </trkpt>
      <trkpt lat="45.92246" lon="-0.96032">
        <ele>45.973554</ele>
        <time>2022-12-21T15:13:39.339Z</time>
      </trkpt>
      <trkpt lat="45.92255" lon="-0.96031">
        <ele>45.916638</ele>
        <time>2022-12-21T15:13:42.334Z</time>
      </trkpt>
      <trkpt lat="45.92264" lon="-0.9603">
        <ele>45.859658</ele>
        <time>2022-12-21T15:13:45.345Z</time>
      </trkpt>
      <trkpt lat="45.92275" lon="-0.96029">
        <ele>45.793851</ele>
        <time>2022-12-21T15:13:49.363Z</time>
      </trkpt>
      <trkpt lat="45.92286" lon="-0.96028">
        <ele>45.723907</ele>
        <time>2022-12-21T15:13:53.353Z</time>
      </trkpt>
      <trkpt lat="45.92296" lon="-0.96028">
        <ele>45.665738</ele>
        <time>2022-12-21T15:13:56.350Z</time>
      </trkpt>
      <trkpt lat="45.92306" lon="-0.96027">
        <ele>45.599576</ele>
        <time>2022-12-21T15:13:59.338Z</time>
      </trkpt>
      <trkpt lat="45.92317" lon="-0.96025">
        <ele>45.533024</ele>
        <time>2022-12-21T15:14:02.350Z</time>
      </trkpt>
      <trkpt lat="45.92326" lon="-0.96023">
        <ele>45.479585</ele>
        <time>2022-12-21T15:14:05.345Z</time>
      </trkpt>
      <trkpt lat="45.92338" lon="-0.96025">
        <ele>45.442984</ele>
        <time>2022-12-21T15:14:09.365Z</time>
      </trkpt>
      <trkpt lat="45.9235" lon="-0.96024">
        <ele>45.404558</ele>
        <time>2022-12-21T15:14:13.334Z</time>
      </trkpt>
      <trkpt lat="45.92359" lon="-0.96023">
        <ele>45.372777</ele>
        <time>2022-12-21T15:14:16.347Z</time>
      </trkpt>
      <trkpt lat="45.92369" lon="-0.96032">
        <ele>45.336876</ele>
        <time>2022-12-21T15:14:20.350Z</time>
      </trkpt>
      <trkpt lat="45.9237" lon="-0.96048">
        <ele>45.301421</ele>
        <time>2022-12-21T15:14:24.345Z</time>
      </trkpt>
      <trkpt lat="45.92364" lon="-0.96058">
        <ele>45.272114</ele>
        <time>2022-12-21T15:14:27.362Z</time>
      </trkpt>
      <trkpt lat="45.92355" lon="-0.96065">
        <ele>45.240276</ele>
        <time>2022-12-21T15:14:30.337Z</time>
      </trkpt>
      <trkpt lat="45.92346" lon="-0.96072">
        <ele>45.206706</ele>
        <time>2022-12-21T15:14:34.356Z</time>
      </trkpt>
      <trkpt lat="45.92337" lon="-0.96081">
        <ele>45.172224</ele>
        <time>2022-12-21T15:14:38.339Z</time>
      </trkpt>
      <trkpt lat="45.92328" lon="-0.96091">
        <ele>45.135004</ele>
        <time>2022-12-21T15:14:42.335Z</time>
      </trkpt>
      <trkpt lat="45.92321" lon="-0.96098">
        <ele>45.105128</ele>
        <time>2022-12-21T15:14:45.361Z</time>
      </trkpt>
      <trkpt lat="45.92313" lon="-0.96108">
        <ele>45.07292</ele>
        <time>2022-12-21T15:14:48.361Z</time>
      </trkpt>
      <trkpt lat="45.92306" lon="-0.96117">
        <ele>45.042702</ele>
        <time>2022-12-21T15:14:51.337Z</time>
      </trkpt>
      <trkpt lat="45.92299" lon="-0.96127">
        <ele>45.009377</ele>
        <time>2022-12-21T15:14:55.341Z</time>
      </trkpt>
      <trkpt lat="45.92291" lon="-0.96138">
        <ele>44.974089</ele>
        <time>2022-12-21T15:14:59.346Z</time>
      </trkpt>
      <trkpt lat="45.92283" lon="-0.96146">
        <ele>44.942229</ele>
        <time>2022-12-21T15:15:03.357Z</time>
      </trkpt>
      <trkpt lat="45.92274" lon="-0.96156">
        <ele>44.906051</ele>
        <time>2022-12-21T15:15:07.335Z</time>
      </trkpt>
      <trkpt lat="45.92266" lon="-0.96165">
        <ele>44.811594</ele>
        <time>2022-12-21T15:15:10.361Z</time>
      </trkpt>
      <trkpt lat="45.9226" lon="-0.96174">
        <ele>44.719622</ele>
        <time>2022-12-21T15:15:13.345Z</time>
      </trkpt>
      <trkpt lat="45.92252" lon="-0.96184">
        <ele>44.614017</ele>
        <time>2022-12-21T15:15:17.380Z</time>
      </trkpt>
      <trkpt lat="45.92243" lon="-0.96193">
        <ele>44.503869</ele>
        <time>2022-12-21T15:15:21.339Z</time>
      </trkpt>
      <trkpt lat="45.92235" lon="-0.96203">
        <ele>44.402811</ele>
        <time>2022-12-21T15:15:24.347Z</time>
      </trkpt>
      <trkpt lat="45.92228" lon="-0.96212">
        <ele>44.303947</ele>
        <time>2022-12-21T15:15:27.363Z</time>
      </trkpt>
      <trkpt lat="45.9222" lon="-0.96222">
        <ele>44.201863</ele>
        <time>2022-12-21T15:15:30.335Z</time>
      </trkpt>
      <trkpt lat="45.92212" lon="-0.96231">
        <ele>44.095295</ele>
        <time>2022-12-21T15:15:33.329Z</time>
      </trkpt>
      <trkpt lat="45.92204" lon="-0.96241">
        <ele>43.995952</ele>
        <time>2022-12-21T15:15:36.336Z</time>
      </trkpt>
      <trkpt lat="45.92197" lon="-0.96251">
        <ele>43.892281</ele>
        <time>2022-12-21T15:15:39.360Z</time>
      </trkpt>
      <trkpt lat="45.92188" lon="-0.96262">
        <ele>43.783403</ele>
        <time>2022-12-21T15:15:42.334Z</time>
      </trkpt>
      <trkpt lat="45.9218" lon="-0.96271">
        <ele>43.677394</ele>
        <time>2022-12-21T15:15:45.361Z</time>
      </trkpt>
      <trkpt lat="45.92172" lon="-0.96281">
        <ele>43.57425</ele>
        <time>2022-12-21T15:15:48.342Z</time>
      </trkpt>
      <trkpt lat="45.92165" lon="-0.9629">
        <ele>43.477152</ele>
        <time>2022-12-21T15:15:51.342Z</time>
      </trkpt>
      <trkpt lat="45.92157" lon="-0.963">
        <ele>43.375815</ele>
        <time>2022-12-21T15:15:54.341Z</time>
      </trkpt>
      <trkpt lat="45.9215" lon="-0.9631">
        <ele>43.272524</ele>
        <time>2022-12-21T15:15:57.341Z</time>
      </trkpt>
      <trkpt lat="45.92142" lon="-0.96319">
        <ele>43.169232</ele>
        <time>2022-12-21T15:16:00.352Z</time>
      </trkpt>
      <trkpt lat="45.92135" lon="-0.96328">
        <ele>43.11919</ele>
        <time>2022-12-21T15:16:03.361Z</time>
      </trkpt>
      <trkpt lat="45.92128" lon="-0.96337">
        <ele>43.137847</ele>
        <time>2022-12-21T15:16:06.340Z</time>
      </trkpt>
      <trkpt lat="45.92121" lon="-0.96347">
        <ele>43.157451</ele>
        <time>2022-12-21T15:16:09.346Z</time>
      </trkpt>
      <trkpt lat="45.92113" lon="-0.96357">
        <ele>43.178015</ele>
        <time>2022-12-21T15:16:12.340Z</time>
      </trkpt>
      <trkpt lat="45.92106" lon="-0.96369">
        <ele>43.199999</ele>
        <time>2022-12-21T15:16:15.336Z</time>
      </trkpt>
      <trkpt lat="45.921" lon="-0.96379">
        <ele>43.218444</ele>
        <time>2022-12-21T15:16:18.353Z</time>
      </trkpt>
      <trkpt lat="45.92095" lon="-0.9639">
        <ele>43.237393</ele>
        <time>2022-12-21T15:16:21.339Z</time>
      </trkpt>
      <trkpt lat="45.92088" lon="-0.96401">
        <ele>43.257954</ele>
        <time>2022-12-21T15:16:24.343Z</time>
      </trkpt>
      <trkpt lat="45.92082" lon="-0.96413">
        <ele>43.278749</ele>
        <time>2022-12-21T15:16:27.352Z</time>
      </trkpt>
      <trkpt lat="45.92076" lon="-0.96425">
        <ele>43.299499</ele>
        <time>2022-12-21T15:16:30.335Z</time>
      </trkpt>
      <trkpt lat="45.92069" lon="-0.96438">
        <ele>43.321537</ele>
        <time>2022-12-21T15:16:33.335Z</time>
      </trkpt>
      <trkpt lat="45.92063" lon="-0.96451">
        <ele>43.343313</ele>
        <time>2022-12-21T15:16:36.343Z</time>
      </trkpt>
      <trkpt lat="45.92057" lon="-0.96462">
        <ele>43.363382</ele>
        <time>2022-12-21T15:16:39.345Z</time>
      </trkpt>
      <trkpt lat="45.92051" lon="-0.96474">
        <ele>43.382425</ele>
        <time>2022-12-21T15:16:42.332Z</time>
      </trkpt>
      <trkpt lat="45.92046" lon="-0.96485">
        <ele>43.401464</ele>
        <time>2022-12-21T15:16:45.338Z</time>
      </trkpt>
      <trkpt lat="45.9204" lon="-0.96496">
        <ele>43.420504</ele>
        <time>2022-12-21T15:16:48.343Z</time>
      </trkpt>
      <trkpt lat="45.92036" lon="-0.96508">
        <ele>43.440091</ele>
        <time>2022-12-21T15:16:51.339Z</time>
      </trkpt>
      <trkpt lat="45.92031" lon="-0.96521">
        <ele>43.459996</ele>
        <time>2022-12-21T15:16:54.346Z</time>
      </trkpt>
      <trkpt lat="45.92026" lon="-0.96533">
        <ele>43.494555</ele>
        <time>2022-12-21T15:16:57.345Z</time>
      </trkpt>
      <trkpt lat="45.92021" lon="-0.96545">
        <ele>43.543902</ele>
        <time>2022-12-21T15:17:00.339Z</time>
      </trkpt>
      <trkpt lat="45.92017" lon="-0.96556">
        <ele>43.594357</ele>
        <time>2022-12-21T15:17:03.339Z</time>
      </trkpt>
      <trkpt lat="45.92016" lon="-0.9657">
        <ele>43.646477</ele>
        <time>2022-12-21T15:17:06.337Z</time>
      </trkpt>
      <trkpt lat="45.92019" lon="-0.96584">
        <ele>43.700798</ele>
        <time>2022-12-21T15:17:09.342Z</time>
      </trkpt>
      <trkpt lat="45.92018" lon="-0.96598">
        <ele>43.754981</ele>
        <time>2022-12-21T15:17:12.339Z</time>
      </trkpt>
      <trkpt lat="45.92014" lon="-0.96611">
        <ele>43.808733</ele>
        <time>2022-12-21T15:17:15.360Z</time>
      </trkpt>
      <trkpt lat="45.92008" lon="-0.96622">
        <ele>43.86236</ele>
        <time>2022-12-21T15:17:18.334Z</time>
      </trkpt>
      <trkpt lat="45.92" lon="-0.96631">
        <ele>43.916519</ele>
        <time>2022-12-21T15:17:21.345Z</time>
      </trkpt>
      <trkpt lat="45.91991" lon="-0.96638">
        <ele>43.973059</ele>
        <time>2022-12-21T15:17:24.332Z</time>
      </trkpt>
      <trkpt lat="45.91984" lon="-0.96649">
        <ele>44.030083</ele>
        <time>2022-12-21T15:17:27.352Z</time>
      </trkpt>
      <trkpt lat="45.9198" lon="-0.96661">
        <ele>44.08332</ele>
        <time>2022-12-21T15:17:30.356Z</time>
      </trkpt>
      <trkpt lat="45.91978" lon="-0.96677">
        <ele>44.146193</ele>
        <time>2022-12-21T15:17:34.345Z</time>
      </trkpt>
      <trkpt lat="45.91976" lon="-0.96691">
        <ele>44.197647</ele>
        <time>2022-12-21T15:17:37.345Z</time>
      </trkpt>
      <trkpt lat="45.91974" lon="-0.96704">
        <ele>44.250514</ele>
        <time>2022-12-21T15:17:40.339Z</time>
      </trkpt>
      <trkpt lat="45.91972" lon="-0.96718">
        <ele>44.304833</ele>
        <time>2022-12-21T15:17:43.341Z</time>
      </trkpt>
      <trkpt lat="45.91971" lon="-0.96733">
        <ele>44.360857</ele>
        <time>2022-12-21T15:17:46.338Z</time>
      </trkpt>
      <trkpt lat="45.91969" lon="-0.96747">
        <ele>44.415226</ele>
        <time>2022-12-21T15:17:49.353Z</time>
      </trkpt>
      <trkpt lat="45.91968" lon="-0.9676">
        <ele>44.461366</ele>
        <time>2022-12-21T15:17:52.336Z</time>
      </trkpt>
      <trkpt lat="45.91967" lon="-0.96774">
        <ele>44.477701</ele>
        <time>2022-12-21T15:17:55.342Z</time>
      </trkpt>
      <trkpt lat="45.91966" lon="-0.9679">
        <ele>44.497013</ele>
        <time>2022-12-21T15:17:59.351Z</time>
      </trkpt>
      <trkpt lat="45.91966" lon="-0.96807">
        <ele>44.517348</ele>
        <time>2022-12-21T15:18:03.333Z</time>
      </trkpt>
      <trkpt lat="45.91967" lon="-0.96821">
        <ele>44.533316</ele>
        <time>2022-12-21T15:18:06.345Z</time>
      </trkpt>
      <trkpt lat="45.91967" lon="-0.96834">
        <ele>44.549283</ele>
        <time>2022-12-21T15:18:09.357Z</time>
      </trkpt>
      <trkpt lat="45.91969" lon="-0.96848">
        <ele>44.565801</ele>
        <time>2022-12-21T15:18:12.335Z</time>
      </trkpt>
      <trkpt lat="45.91971" lon="-0.96862">
        <ele>44.583064</ele>
        <time>2022-12-21T15:18:15.358Z</time>
      </trkpt>
      <trkpt lat="45.91972" lon="-0.96876">
        <ele>44.60026</ele>
        <time>2022-12-21T15:18:18.350Z</time>
      </trkpt>
      <trkpt lat="45.91974" lon="-0.96891">
        <ele>44.617722</ele>
        <time>2022-12-21T15:18:21.339Z</time>
      </trkpt>
      <trkpt lat="45.91977" lon="-0.96905">
        <ele>44.635206</ele>
        <time>2022-12-21T15:18:24.336Z</time>
      </trkpt>
      <trkpt lat="45.9198" lon="-0.96919">
        <ele>44.653131</ele>
        <time>2022-12-21T15:18:27.330Z</time>
      </trkpt>
      <trkpt lat="45.91984" lon="-0.96934">
        <ele>44.671382</ele>
        <time>2022-12-21T15:18:30.344Z</time>
      </trkpt>
      <trkpt lat="45.91988" lon="-0.96948">
        <ele>44.68993</ele>
        <time>2022-12-21T15:18:33.337Z</time>
      </trkpt>
      <trkpt lat="45.91992" lon="-0.96963">
        <ele>44.708702</ele>
        <time>2022-12-21T15:18:36.342Z</time>
      </trkpt>
      <trkpt lat="45.91997" lon="-0.96977">
        <ele>44.727495</ele>
        <time>2022-12-21T15:18:39.342Z</time>
      </trkpt>
      <trkpt lat="45.92003" lon="-0.9699">
        <ele>44.746492</ele>
        <time>2022-12-21T15:18:42.334Z</time>
      </trkpt>
      <trkpt lat="45.92009" lon="-0.97004">
        <ele>44.765552</ele>
        <time>2022-12-21T15:18:45.340Z</time>
      </trkpt>
      <trkpt lat="45.92015" lon="-0.97017">
        <ele>44.784068</ele>
        <time>2022-12-21T15:18:48.342Z</time>
      </trkpt>
      <trkpt lat="45.92021" lon="-0.97029">
        <ele>44.802333</ele>
        <time>2022-12-21T15:18:51.344Z</time>
      </trkpt>
      <trkpt lat="45.92028" lon="-0.9704">
        <ele>44.820519</ele>
        <time>2022-12-21T15:18:54.343Z</time>
      </trkpt>
      <trkpt lat="45.92035" lon="-0.97052">
        <ele>44.839447</ele>
        <time>2022-12-21T15:18:57.362Z</time>
      </trkpt>
      <trkpt lat="45.92043" lon="-0.97064">
        <ele>44.859172</ele>
        <time>2022-12-21T15:19:00.342Z</time>
      </trkpt>
      <trkpt lat="45.92051" lon="-0.97075">
        <ele>44.878395</ele>
        <time>2022-12-21T15:19:03.336Z</time>
      </trkpt>
      <trkpt lat="45.92059" lon="-0.97084">
        <ele>44.895901</ele>
        <time>2022-12-21T15:19:06.351Z</time>
      </trkpt>
      <trkpt lat="45.92067" lon="-0.97093">
        <ele>44.913562</ele>
        <time>2022-12-21T15:19:09.343Z</time>
      </trkpt>
      <trkpt lat="45.92076" lon="-0.97103">
        <ele>44.932226</ele>
        <time>2022-12-21T15:19:12.346Z</time>
      </trkpt>
      <trkpt lat="45.92085" lon="-0.97112">
        <ele>44.950936</ele>
        <time>2022-12-21T15:19:15.358Z</time>
      </trkpt>
      <trkpt lat="45.92094" lon="-0.9712">
        <ele>44.969948</ele>
        <time>2022-12-21T15:19:18.346Z</time>
      </trkpt>
      <trkpt lat="45.92104" lon="-0.97128">
        <ele>44.989273</ele>
        <time>2022-12-21T15:19:21.348Z</time>
      </trkpt>
      <trkpt lat="45.92113" lon="-0.97136">
        <ele>45.007762</ele>
        <time>2022-12-21T15:19:24.356Z</time>
      </trkpt>
      <trkpt lat="45.92123" lon="-0.97142">
        <ele>45.025761</ele>
        <time>2022-12-21T15:19:27.359Z</time>
      </trkpt>
      <trkpt lat="45.92132" lon="-0.97147">
        <ele>45.043065</ele>
        <time>2022-12-21T15:19:30.342Z</time>
      </trkpt>
      <trkpt lat="45.92143" lon="-0.97153">
        <ele>45.063724</ele>
        <time>2022-12-21T15:19:34.345Z</time>
      </trkpt>
      <trkpt lat="45.92153" lon="-0.97155">
        <ele>45.126793</ele>
        <time>2022-12-21T15:19:37.345Z</time>
      </trkpt>
      <trkpt lat="45.92163" lon="-0.97154">
        <ele>45.362308</ele>
        <time>2022-12-21T15:19:40.363Z</time>
      </trkpt>
      <trkpt lat="45.92172" lon="-0.97149">
        <ele>45.592338</ele>
        <time>2022-12-21T15:19:43.349Z</time>
      </trkpt>
      <trkpt lat="45.92179" lon="-0.97141">
        <ele>45.818766</ele>
        <time>2022-12-21T15:19:46.363Z</time>
      </trkpt>
      <trkpt lat="45.92186" lon="-0.97127">
        <ele>46.09258</ele>
        <time>2022-12-21T15:19:50.340Z</time>
      </trkpt>
      <trkpt lat="45.92188" lon="-0.9711">
        <ele>46.377411</ele>
        <time>2022-12-21T15:19:54.340Z</time>
      </trkpt>
      <trkpt lat="45.92187" lon="-0.97097">
        <ele>46.606714</ele>
        <time>2022-12-21T15:19:57.364Z</time>
      </trkpt>
      <trkpt lat="45.92185" lon="-0.9708">
        <ele>46.879166</ele>
        <time>2022-12-21T15:20:01.344Z</time>
      </trkpt>
      <trkpt lat="45.9218" lon="-0.97068">
        <ele>47.113958</ele>
        <time>2022-12-21T15:20:05.339Z</time>
      </trkpt>
      <trkpt lat="45.92174" lon="-0.97059">
        <ele>47.328999</ele>
        <time>2022-12-21T15:20:09.342Z</time>
      </trkpt>
      <trkpt lat="45.92167" lon="-0.97049">
        <ele>47.547799</ele>
        <time>2022-12-21T15:20:13.337Z</time>
      </trkpt>
      <trkpt lat="45.9216" lon="-0.97041">
        <ele>47.765248</ele>
        <time>2022-12-21T15:20:17.337Z</time>
      </trkpt>
      <trkpt lat="45.92153" lon="-0.97031">
        <ele>47.996724</ele>
        <time>2022-12-21T15:20:21.353Z</time>
      </trkpt>
      <trkpt lat="45.92144" lon="-0.97021">
        <ele>48.257378</ele>
        <time>2022-12-21T15:20:26.343Z</time>
      </trkpt>
      <trkpt lat="45.92136" lon="-0.97012">
        <ele>48.517649</ele>
        <time>2022-12-21T15:20:31.347Z</time>
      </trkpt>
      <trkpt lat="45.92127" lon="-0.97002">
        <ele>48.773904</ele>
        <time>2022-12-21T15:20:36.353Z</time>
      </trkpt>
      <trkpt lat="45.9212" lon="-0.96993">
        <ele>49.007343</ele>
        <time>2022-12-21T15:20:41.357Z</time>
      </trkpt>
      <trkpt lat="45.92111" lon="-0.96984">
        <ele>49.249199</ele>
        <time>2022-12-21T15:20:46.363Z</time>
      </trkpt>
      <trkpt lat="45.92104" lon="-0.96975">
        <ele>49.711091</ele>
        <time>2022-12-21T15:20:51.356Z</time>
      </trkpt>
      <trkpt lat="45.92096" lon="-0.96967">
        <ele>50.302279</ele>
        <time>2022-12-21T15:20:56.341Z</time>
      </trkpt>
      <trkpt lat="45.92088" lon="-0.96959">
        <ele>50.883441</ele>
        <time>2022-12-21T15:21:01.369Z</time>
      </trkpt>
      <trkpt lat="45.9208" lon="-0.96951">
        <ele>51.445173</ele>
        <time>2022-12-21T15:21:06.349Z</time>
      </trkpt>
      <trkpt lat="45.92072" lon="-0.96942">
        <ele>52.029044</ele>
        <time>2022-12-21T15:21:11.355Z</time>
      </trkpt>
      <trkpt lat="45.92064" lon="-0.96933">
        <ele>52.659373</ele>
        <time>2022-12-21T15:21:17.345Z</time>
      </trkpt>
      <trkpt lat="45.92055" lon="-0.96926">
        <ele>53.273814</ele>
        <time>2022-12-21T15:21:23.339Z</time>
      </trkpt>
      <trkpt lat="45.92047" lon="-0.96917">
        <ele>53.87942</ele>
        <time>2022-12-21T15:21:29.356Z</time>
      </trkpt>
      <trkpt lat="45.92039" lon="-0.96909">
        <ele>54.477654</ele>
        <time>2022-12-21T15:21:35.339Z</time>
      </trkpt>
      <trkpt lat="45.92031" lon="-0.969">
        <ele>55.095635</ele>
        <time>2022-12-21T15:21:41.338Z</time>
      </trkpt>
      <trkpt lat="45.92022" lon="-0.96892">
        <ele>55.747902</ele>
        <time>2022-12-21T15:21:47.352Z</time>
      </trkpt>
      <trkpt lat="45.92013" lon="-0.96883">
        <ele>56.397843</ele>
        <time>2022-12-21T15:21:53.361Z</time>
      </trkpt>
      <trkpt lat="45.92004" lon="-0.96875">
        <ele>57.008312</ele>
        <time>2022-12-21T15:21:59.349Z</time>
      </trkpt>
      <trkpt lat="45.91995" lon="-0.96867">
        <ele>57.639162</ele>
        <time>2022-12-21T15:22:05.344Z</time>
      </trkpt>
      <trkpt lat="45.91987" lon="-0.9686">
        <ele>58.236799</ele>
        <time>2022-12-21T15:22:11.356Z</time>
      </trkpt>
      <trkpt lat="45.91979" lon="-0.96853">
        <ele>58.785423</ele>
        <time>2022-12-21T15:22:16.359Z</time>
      </trkpt>
      <trkpt lat="45.9197" lon="-0.96845">
        <ele>59.397684</ele>
        <time>2022-12-21T15:22:22.364Z</time>
      </trkpt>
      <trkpt lat="45.91962" lon="-0.96838">
        <ele>60.009945</ele>
        <time>2022-12-21T15:22:28.362Z</time>
      </trkpt>
      <trkpt lat="45.91953" lon="-0.9683">
        <ele>60.641592</ele>
        <time>2022-12-21T15:22:34.334Z</time>
      </trkpt>
      <trkpt lat="45.91945" lon="-0.96824">
        <ele>61.228132</ele>
        <time>2022-12-21T15:22:40.356Z</time>
      </trkpt>
      <trkpt lat="45.91936" lon="-0.96816">
        <ele>61.890524</ele>
        <time>2022-12-21T15:22:46.369Z</time>
      </trkpt>
      <trkpt lat="45.91928" lon="-0.96809">
        <ele>62.489178</ele>
        <time>2022-12-21T15:22:52.341Z</time>
      </trkpt>
      <trkpt lat="45.9192" lon="-0.96803">
        <ele>63.109793</ele>
        <time>2022-12-21T15:22:58.340Z</time>
      </trkpt>
      <trkpt lat="45.91911" lon="-0.96796">
        <ele>63.735252</ele>
        <time>2022-12-21T15:23:05.337Z</time>
      </trkpt>
      <trkpt lat="45.91903" lon="-0.9679">
        <ele>64.317512</ele>
        <time>2022-12-21T15:23:14.335Z</time>
      </trkpt>
      <trkpt lat="45.91895" lon="-0.96784">
        <ele>64.904018</ele>
        <time>2022-12-21T15:23:24.347Z</time>
      </trkpt>
      <trkpt lat="45.91887" lon="-0.96778">
        <ele>65.488388</ele>
        <time>2022-12-21T15:23:33.360Z</time>
      </trkpt>
      <trkpt lat="45.91879" lon="-0.96771">
        <ele>66.091882</ele>
        <time>2022-12-21T15:23:41.369Z</time>
      </trkpt>
      <trkpt lat="45.9187" lon="-0.96765">
        <ele>66.714542</ele>
        <time>2022-12-21T15:23:51.369Z</time>
      </trkpt>
      <trkpt lat="45.91862" lon="-0.96759">
        <ele>67.333051</ele>
        <time>2022-12-21T15:24:00.336Z</time>
      </trkpt>
      <trkpt lat="45.91853" lon="-0.96753">
        <ele>67.974916</ele>
        <time>2022-12-21T15:24:10.335Z</time>
      </trkpt>
      <trkpt lat="45.91845" lon="-0.96745">
        <ele>68.579431</ele>
        <time>2022-12-21T15:24:19.348Z</time>
      </trkpt>
      <trkpt lat="45.91836" lon="-0.96741">
        <ele>69.160609</ele>
        <time>2022-12-21T15:24:28.342Z</time>
      </trkpt>
      <trkpt lat="45.91827" lon="-0.96736">
        <ele>69.787078</ele>
        <time>2022-12-21T15:24:37.359Z</time>
      </trkpt>
      <trkpt lat="45.91819" lon="-0.96729">
        <ele>70.400456</ele>
        <time>2022-12-21T15:24:46.341Z</time>
      </trkpt>
      <trkpt lat="45.9181" lon="-0.96724">
        <ele>71.013925</ele>
        <time>2022-12-21T15:24:55.352Z</time>
      </trkpt>
      <trkpt lat="45.91802" lon="-0.96718">
        <ele>71.595769</ele>
        <time>2022-12-21T15:25:04.362Z</time>
      </trkpt>
      <trkpt lat="45.91794" lon="-0.96712">
        <ele>72.083727</ele>
        <time>2022-12-21T15:25:13.346Z</time>
      </trkpt>
      <trkpt lat="45.91785" lon="-0.96707">
        <ele>72.563439</ele>
        <time>2022-12-21T15:25:22.347Z</time>
      </trkpt>
      <trkpt lat="45.91776" lon="-0.96702">
        <ele>73.06579</ele>
        <time>2022-12-21T15:25:31.367Z</time>
      </trkpt>
      <trkpt lat="45.91767" lon="-0.96697">
        <ele>73.572083</ele>
        <time>2022-12-21T15:25:40.349Z</time>
      </trkpt>
      <trkpt lat="45.91758" lon="-0.96691">
        <ele>74.066596</ele>
        <time>2022-12-21T15:25:49.340Z</time>
      </trkpt>
      <trkpt lat="45.9175" lon="-0.96686">
        <ele>74.537506</ele>
        <time>2022-12-21T15:25:58.343Z</time>
      </trkpt>
      <trkpt lat="45.91741" lon="-0.96682">
        <ele>75.008416</ele>
        <time>2022-12-21T15:26:07.337Z</time>
      </trkpt>
      <trkpt lat="45.91733" lon="-0.96677">
        <ele>75.487687</ele>
        <time>2022-12-21T15:26:16.358Z</time>
      </trkpt>
      <trkpt lat="45.91723" lon="-0.96672">
        <ele>76.013154</ele>
        <time>2022-12-21T15:26:25.358Z</time>
      </trkpt>
      <trkpt lat="45.91715" lon="-0.96668">
        <ele>76.474161</ele>
        <time>2022-12-21T15:26:33.362Z</time>
      </trkpt>
      <trkpt lat="45.91706" lon="-0.96662">
        <ele>76.989338</ele>
        <time>2022-12-21T15:26:42.341Z</time>
      </trkpt>
      <trkpt lat="45.91696" lon="-0.96657">
        <ele>77.514641</ele>
        <time>2022-12-21T15:26:51.343Z</time>
      </trkpt>
      <trkpt lat="45.91687" lon="-0.96652">
        <ele>78.01205</ele>
        <time>2022-12-21T15:27:00.361Z</time>
      </trkpt>
      <trkpt lat="45.91678" lon="-0.96649">
        <ele>78.511593</ele>
        <time>2022-12-21T15:27:08.336Z</time>
      </trkpt>
      <trkpt lat="45.91668" lon="-0.96643">
        <ele>79.034507</ele>
        <time>2022-12-21T15:27:17.342Z</time>
      </trkpt>
      <trkpt lat="45.91659" lon="-0.96638">
        <ele>79.512865</ele>
        <time>2022-12-21T15:27:25.330Z</time>
      </trkpt>
      <trkpt lat="45.9165" lon="-0.96635">
        <ele>80.006457</ele>
        <time>2022-12-21T15:27:33.362Z</time>
      </trkpt>
      <trkpt lat="45.91641" lon="-0.9663">
        <ele>80.4918</ele>
        <time>2022-12-21T15:27:49.358Z</time>
      </trkpt>
      <trkpt lat="45.91632" lon="-0.96625">
        <ele>80.995551</ele>
        <time>2022-12-21T15:27:56.360Z</time>
      </trkpt>
      <trkpt lat="45.91622" lon="-0.96621">
        <ele>80.784797</ele>
        <time>2022-12-21T15:28:03.350Z</time>
      </trkpt>
      <trkpt lat="45.91612" lon="-0.96617">
        <ele>80.575893</ele>
        <time>2022-12-21T15:28:13.346Z</time>
      </trkpt>
      <trkpt lat="45.91603" lon="-0.96614">
        <ele>80.371003</ele>
        <time>2022-12-21T15:28:20.341Z</time>
      </trkpt>
      <trkpt lat="45.91594" lon="-0.9661">
        <ele>80.17414</ele>
        <time>2022-12-21T15:28:25.343Z</time>
      </trkpt>
      <trkpt lat="45.91584" lon="-0.96605">
        <ele>79.968715</ele>
        <time>2022-12-21T15:28:28.334Z</time>
      </trkpt>
      <trkpt lat="45.91575" lon="-0.96602">
        <ele>79.78057</ele>
        <time>2022-12-21T15:28:31.358Z</time>
      </trkpt>
      <trkpt lat="45.91566" lon="-0.96598">
        <ele>79.582541</ele>
        <time>2022-12-21T15:28:34.341Z</time>
      </trkpt>
      <trkpt lat="45.91555" lon="-0.96593">
        <ele>79.343949</ele>
        <time>2022-12-21T15:28:38.360Z</time>
      </trkpt>
      <trkpt lat="45.91546" lon="-0.9659">
        <ele>79.148691</ele>
        <time>2022-12-21T15:28:41.350Z</time>
      </trkpt>
      <trkpt lat="45.91537" lon="-0.96587">
        <ele>78.948511</ele>
        <time>2022-12-21T15:28:44.331Z</time>
      </trkpt>
      <trkpt lat="45.91527" lon="-0.96584">
        <ele>78.744382</ele>
        <time>2022-12-21T15:28:47.362Z</time>
      </trkpt>
      <trkpt lat="45.91517" lon="-0.96581">
        <ele>78.534148</ele>
        <time>2022-12-21T15:28:50.335Z</time>
      </trkpt>
      <trkpt lat="45.91507" lon="-0.96578">
        <ele>78.316735</ele>
        <time>2022-12-21T15:28:53.362Z</time>
      </trkpt>
      <trkpt lat="45.91496" lon="-0.96575">
        <ele>78.089394</ele>
        <time>2022-12-21T15:28:56.345Z</time>
      </trkpt>
      <trkpt lat="45.91485" lon="-0.96572">
        <ele>77.853963</ele>
        <time>2022-12-21T15:28:59.349Z</time>
      </trkpt>
      <trkpt lat="45.91473" lon="-0.96568">
        <ele>77.615125</ele>
        <time>2022-12-21T15:29:02.356Z</time>
      </trkpt>
      <trkpt lat="45.91462" lon="-0.96565">
        <ele>77.380919</ele>
        <time>2022-12-21T15:29:05.342Z</time>
      </trkpt>
      <trkpt lat="45.9145" lon="-0.96562">
        <ele>76.765059</ele>
        <time>2022-12-21T15:29:08.339Z</time>
      </trkpt>
      <trkpt lat="45.91438" lon="-0.96559">
        <ele>75.882725</ele>
        <time>2022-12-21T15:29:11.350Z</time>
      </trkpt>
      <trkpt lat="45.91426" lon="-0.96556">
        <ele>74.976176</ele>
        <time>2022-12-21T15:29:14.357Z</time>
      </trkpt>
      <trkpt lat="45.91412" lon="-0.96553">
        <ele>73.995504</ele>
        <time>2022-12-21T15:29:17.363Z</time>
      </trkpt>
      <trkpt lat="45.91399" lon="-0.9655">
        <ele>73.057013</ele>
        <time>2022-12-21T15:29:20.340Z</time>
      </trkpt>
      <trkpt lat="45.91386" lon="-0.96547">
        <ele>72.099704</ele>
        <time>2022-12-21T15:29:23.343Z</time>
      </trkpt>
      <trkpt lat="45.91377" lon="-0.96546">
        <ele>71.448897</ele>
        <time>2022-12-21T15:29:25.342Z</time>
      </trkpt>
      <trkpt lat="45.91367" lon="-0.96545">
        <ele>70.781233</ele>
        <time>2022-12-21T15:29:27.344Z</time>
      </trkpt>
      <trkpt lat="45.91358" lon="-0.96543">
        <ele>70.114176</ele>
        <time>2022-12-21T15:29:29.361Z</time>
      </trkpt>
      <trkpt lat="45.91349" lon="-0.96542">
        <ele>69.434544</ele>
        <time>2022-12-21T15:29:31.356Z</time>
      </trkpt>
      <trkpt lat="45.91339" lon="-0.9654">
        <ele>68.76098</ele>
        <time>2022-12-21T15:29:33.347Z</time>
      </trkpt>
      <trkpt lat="45.9133" lon="-0.96538">
        <ele>68.085614</ele>
        <time>2022-12-21T15:29:35.353Z</time>
      </trkpt>
      <trkpt lat="45.9132" lon="-0.96537">
        <ele>67.413528</ele>
        <time>2022-12-21T15:29:37.347Z</time>
      </trkpt>
      <trkpt lat="45.91311" lon="-0.96536">
        <ele>66.735143</ele>
        <time>2022-12-21T15:29:39.337Z</time>
      </trkpt>
      <trkpt lat="45.91301" lon="-0.96535">
        <ele>66.032717</ele>
        <time>2022-12-21T15:29:41.369Z</time>
      </trkpt>
      <trkpt lat="45.91291" lon="-0.96533">
        <ele>65.318452</ele>
        <time>2022-12-21T15:29:43.342Z</time>
      </trkpt>
      <trkpt lat="45.91281" lon="-0.96533">
        <ele>64.584086</ele>
        <time>2022-12-21T15:29:45.361Z</time>
      </trkpt>
      <trkpt lat="45.9127" lon="-0.96532">
        <ele>64.011542</ele>
        <time>2022-12-21T15:29:47.361Z</time>
      </trkpt>
      <trkpt lat="45.91261" lon="-0.96531">
        <ele>63.512179</ele>
        <time>2022-12-21T15:29:49.362Z</time>
      </trkpt>
      <trkpt lat="45.91251" lon="-0.9653">
        <ele>63.012817</ele>
        <time>2022-12-21T15:29:51.359Z</time>
      </trkpt>
      <trkpt lat="45.91241" lon="-0.9653">
        <ele>62.523528</ele>
        <time>2022-12-21T15:29:53.362Z</time>
      </trkpt>
      <trkpt lat="45.91232" lon="-0.9653">
        <ele>62.019601</ele>
        <time>2022-12-21T15:29:55.363Z</time>
      </trkpt>
      <trkpt lat="45.91222" lon="-0.9653">
        <ele>61.520815</ele>
        <time>2022-12-21T15:29:57.341Z</time>
      </trkpt>
      <trkpt lat="45.91212" lon="-0.96528">
        <ele>61.034536</ele>
        <time>2022-12-21T15:29:59.341Z</time>
      </trkpt>
      <trkpt lat="45.91203" lon="-0.96528">
        <ele>60.535686</ele>
        <time>2022-12-21T15:30:01.342Z</time>
      </trkpt>
      <trkpt lat="45.91193" lon="-0.96529">
        <ele>60.041769</ele>
        <time>2022-12-21T15:30:03.351Z</time>
      </trkpt>
      <trkpt lat="45.91183" lon="-0.96529">
        <ele>59.506936</ele>
        <time>2022-12-21T15:30:05.341Z</time>
      </trkpt>
      <trkpt lat="45.91172" lon="-0.96529">
        <ele>58.946456</ele>
        <time>2022-12-21T15:30:07.346Z</time>
      </trkpt>
      <trkpt lat="45.9116" lon="-0.96529">
        <ele>58.339738</ele>
        <time>2022-12-21T15:30:09.344Z</time>
      </trkpt>
      <trkpt lat="45.91148" lon="-0.96529">
        <ele>57.738161</ele>
        <time>2022-12-21T15:30:11.365Z</time>
      </trkpt>
      <trkpt lat="45.91136" lon="-0.96529">
        <ele>57.095372</ele>
        <time>2022-12-21T15:30:13.354Z</time>
      </trkpt>
      <trkpt lat="45.91124" lon="-0.9653">
        <ele>56.478008</ele>
        <time>2022-12-21T15:30:15.361Z</time>
      </trkpt>
      <trkpt lat="45.91111" lon="-0.9653">
        <ele>55.835269</ele>
        <time>2022-12-21T15:30:17.356Z</time>
      </trkpt>
      <trkpt lat="45.911" lon="-0.96531">
        <ele>55.237773</ele>
        <time>2022-12-21T15:30:19.338Z</time>
      </trkpt>
      <trkpt lat="45.91089" lon="-0.96532">
        <ele>54.899187</ele>
        <time>2022-12-21T15:30:21.335Z</time>
      </trkpt>
      <trkpt lat="45.91079" lon="-0.96533">
        <ele>54.611834</ele>
        <time>2022-12-21T15:30:23.362Z</time>
      </trkpt>
      <trkpt lat="45.91068" lon="-0.96538">
        <ele>54.258348</ele>
        <time>2022-12-21T15:30:26.342Z</time>
      </trkpt>
      <trkpt lat="45.91058" lon="-0.96543">
        <ele>53.927777</ele>
        <time>2022-12-21T15:30:29.359Z</time>
      </trkpt>
      <trkpt lat="45.9105" lon="-0.96553">
        <ele>53.596792</ele>
        <time>2022-12-21T15:30:32.339Z</time>
      </trkpt>
      <trkpt lat="45.91042" lon="-0.96565">
        <ele>53.246573</ele>
        <time>2022-12-21T15:30:35.360Z</time>
      </trkpt>
      <trkpt lat="45.91033" lon="-0.96575">
        <ele>52.893955</ele>
        <time>2022-12-21T15:30:38.346Z</time>
      </trkpt>
      <trkpt lat="45.91022" lon="-0.96581">
        <ele>52.541975</ele>
        <time>2022-12-21T15:30:41.352Z</time>
      </trkpt>
      <trkpt lat="45.91011" lon="-0.96585">
        <ele>52.197539</ele>
        <time>2022-12-21T15:30:44.332Z</time>
      </trkpt>
      <trkpt lat="45.91001" lon="-0.96591">
        <ele>51.878507</ele>
        <time>2022-12-21T15:30:47.360Z</time>
      </trkpt>
      <trkpt lat="45.90991" lon="-0.96595">
        <ele>51.568107</ele>
        <time>2022-12-21T15:30:50.334Z</time>
      </trkpt>
      <trkpt lat="45.90981" lon="-0.96596">
        <ele>51.259784</ele>
        <time>2022-12-21T15:30:53.351Z</time>
      </trkpt>
      <trkpt lat="45.90972" lon="-0.96594">
        <ele>50.979296</ele>
        <time>2022-12-21T15:30:56.337Z</time>
      </trkpt>
      <trkpt lat="45.90961" lon="-0.96593">
        <ele>50.628747</ele>
        <time>2022-12-21T15:31:00.344Z</time>
      </trkpt>
      <trkpt lat="45.90949" lon="-0.96595">
        <ele>50.269752</ele>
        <time>2022-12-21T15:31:04.360Z</time>
      </trkpt>
      <trkpt lat="45.90938" lon="-0.96597">
        <ele>49.928634</ele>
        <time>2022-12-21T15:31:08.357Z</time>
      </trkpt>
      <trkpt lat="45.90928" lon="-0.96597">
        <ele>49.777808</ele>
        <time>2022-12-21T15:31:12.342Z</time>
      </trkpt>
      <trkpt lat="45.90916" lon="-0.96597">
        <ele>49.879654</ele>
        <time>2022-12-21T15:31:16.341Z</time>
      </trkpt>
      <trkpt lat="45.90905" lon="-0.96597">
        <ele>49.967759</ele>
        <time>2022-12-21T15:31:19.348Z</time>
      </trkpt>
      <trkpt lat="45.90894" lon="-0.96597">
        <ele>50.061082</ele>
        <time>2022-12-21T15:31:22.335Z</time>
      </trkpt>
      <trkpt lat="45.90883" lon="-0.96594">
        <ele>50.162734</ele>
        <time>2022-12-21T15:31:25.335Z</time>
      </trkpt>
      <trkpt lat="45.90871" lon="-0.96591">
        <ele>50.261861</ele>
        <time>2022-12-21T15:31:28.336Z</time>
      </trkpt>
      <trkpt lat="45.90861" lon="-0.96588">
        <ele>50.351308</ele>
        <time>2022-12-21T15:31:31.353Z</time>
      </trkpt>
      <trkpt lat="45.90852" lon="-0.96585">
        <ele>50.430665</ele>
        <time>2022-12-21T15:31:34.333Z</time>
      </trkpt>
      <trkpt lat="45.90841" lon="-0.96582">
        <ele>50.523069</ele>
        <time>2022-12-21T15:31:38.346Z</time>
      </trkpt>
      <trkpt lat="45.90831" lon="-0.96578">
        <ele>50.611358</ele>
        <time>2022-12-21T15:31:42.345Z</time>
      </trkpt>
      <trkpt lat="45.90821" lon="-0.96574">
        <ele>50.707153</ele>
        <time>2022-12-21T15:31:46.342Z</time>
      </trkpt>
      <trkpt lat="45.90812" lon="-0.96571">
        <ele>50.785622</ele>
        <time>2022-12-21T15:31:49.345Z</time>
      </trkpt>
      <trkpt lat="45.90803" lon="-0.96573">
        <ele>50.86384</ele>
        <time>2022-12-21T15:31:52.343Z</time>
      </trkpt>
      <trkpt lat="45.90794" lon="-0.96577">
        <ele>50.942749</ele>
        <time>2022-12-21T15:31:55.349Z</time>
      </trkpt>
      <trkpt lat="45.90783" lon="-0.96581">
        <ele>51.038544</ele>
        <time>2022-12-21T15:31:58.353Z</time>
      </trkpt>
      <trkpt lat="45.90771" lon="-0.96583">
        <ele>51.144559</ele>
        <time>2022-12-21T15:32:01.349Z</time>
      </trkpt>
      <trkpt lat="45.9076" lon="-0.96584">
        <ele>51.236357</ele>
        <time>2022-12-21T15:32:04.346Z</time>
      </trkpt>
      <trkpt lat="45.90751" lon="-0.96586">
        <ele>51.326894</ele>
        <time>2022-12-21T15:32:07.345Z</time>
      </trkpt>
      <trkpt lat="45.9074" lon="-0.96589">
        <ele>51.4582</ele>
        <time>2022-12-21T15:32:11.345Z</time>
      </trkpt>
      <trkpt lat="45.90728" lon="-0.96591">
        <ele>51.601421</ele>
        <time>2022-12-21T15:32:15.357Z</time>
      </trkpt>
      <trkpt lat="45.90718" lon="-0.96595">
        <ele>51.728782</ele>
        <time>2022-12-21T15:32:19.358Z</time>
      </trkpt>
      <trkpt lat="45.90707" lon="-0.966">
        <ele>51.866013</ele>
        <time>2022-12-21T15:32:23.362Z</time>
      </trkpt>
      <trkpt lat="45.90697" lon="-0.96604">
        <ele>51.989603</ele>
        <time>2022-12-21T15:32:27.360Z</time>
      </trkpt>
      <trkpt lat="45.90688" lon="-0.96608">
        <ele>52.106881</ele>
        <time>2022-12-21T15:32:31.354Z</time>
      </trkpt>
      <trkpt lat="45.90678" lon="-0.96613">
        <ele>52.23242</ele>
        <time>2022-12-21T15:32:35.357Z</time>
      </trkpt>
      <trkpt lat="45.9067" lon="-0.96621">
        <ele>52.341966</ele>
        <time>2022-12-21T15:32:39.359Z</time>
      </trkpt>
      <trkpt lat="45.90666" lon="-0.96632">
        <ele>52.451425</ele>
        <time>2022-12-21T15:32:45.361Z</time>
      </trkpt>
      <trkpt lat="45.90658" lon="-0.9664">
        <ele>52.567752</ele>
        <time>2022-12-21T15:32:50.350Z</time>
      </trkpt>
      <trkpt lat="45.9065" lon="-0.96649">
        <ele>52.686559</ele>
        <time>2022-12-21T15:32:54.336Z</time>
      </trkpt>
      <trkpt lat="45.90641" lon="-0.96657">
        <ele>52.812881</ele>
        <time>2022-12-21T15:32:58.338Z</time>
      </trkpt>
      <trkpt lat="45.90633" lon="-0.96669">
        <ele>52.94568</ele>
        <time>2022-12-21T15:33:03.330Z</time>
      </trkpt>
      <trkpt lat="45.90628" lon="-0.9668">
        <ele>53.062297</ele>
        <time>2022-12-21T15:33:07.349Z</time>
      </trkpt>
      <trkpt lat="45.90624" lon="-0.96695">
        <ele>53.189021</ele>
        <time>2022-12-21T15:33:11.338Z</time>
      </trkpt>
      <trkpt lat="45.90623" lon="-0.96709">
        <ele>53.31196</ele>
        <time>2022-12-21T15:33:15.343Z</time>
      </trkpt>
      <trkpt lat="45.90624" lon="-0.96724">
        <ele>53.433607</ele>
        <time>2022-12-21T15:33:19.334Z</time>
      </trkpt>
      <trkpt lat="45.90626" lon="-0.9674">
        <ele>53.634328</ele>
        <time>2022-12-21T15:33:23.334Z</time>
      </trkpt>
      <trkpt lat="45.90629" lon="-0.96755">
        <ele>53.826976</ele>
        <time>2022-12-21T15:33:27.339Z</time>
      </trkpt>
      <trkpt lat="45.90634" lon="-0.96771">
        <ele>54.022504</ele>
        <time>2022-12-21T15:33:31.351Z</time>
      </trkpt>
      <trkpt lat="45.90638" lon="-0.96785">
        <ele>54.208073</ele>
        <time>2022-12-21T15:33:35.344Z</time>
      </trkpt>
      <trkpt lat="45.90642" lon="-0.96798">
        <ele>54.372944</ele>
        <time>2022-12-21T15:33:39.357Z</time>
      </trkpt>
      <trkpt lat="45.90643" lon="-0.96811">
        <ele>54.539931</ele>
        <time>2022-12-21T15:33:43.335Z</time>
      </trkpt>
      <trkpt lat="45.90638" lon="-0.96822">
        <ele>54.695014</ele>
        <time>2022-12-21T15:33:48.358Z</time>
      </trkpt>
      <trkpt lat="45.90627" lon="-0.96823">
        <ele>54.877703</ele>
        <time>2022-12-21T15:34:06.338Z</time>
      </trkpt>
      <trkpt lat="45.90619" lon="-0.96816">
        <ele>55.040523</ele>
        <time>2022-12-21T15:34:11.345Z</time>
      </trkpt>
      <trkpt lat="45.90613" lon="-0.96805">
        <ele>55.211241</ele>
        <time>2022-12-21T15:34:16.360Z</time>
      </trkpt>
      <trkpt lat="45.90621" lon="-0.96818">
        <ele>55.417173</ele>
        <time>2022-12-21T15:35:09.341Z</time>
      </trkpt>
      <trkpt lat="45.90625" lon="-0.96805">
        <ele>55.594372</ele>
        <time>2022-12-21T15:35:18.345Z</time>
      </trkpt>
      <trkpt lat="45.90619" lon="-0.96791">
        <ele>55.777806</ele>
        <time>2022-12-21T15:35:22.339Z</time>
      </trkpt>
      <trkpt lat="45.90615" lon="-0.96778">
        <ele>55.94978</ele>
        <time>2022-12-21T15:35:26.344Z</time>
      </trkpt>
      <trkpt lat="45.9061" lon="-0.96767">
        <ele>56.112163</ele>
        <time>2022-12-21T15:35:30.353Z</time>
      </trkpt>
      <trkpt lat="45.90605" lon="-0.96755">
        <ele>56.280076</ele>
        <time>2022-12-21T15:35:35.343Z</time>
      </trkpt>
      <trkpt lat="45.90596" lon="-0.96746">
        <ele>56.455913</ele>
        <time>2022-12-21T15:35:40.337Z</time>
      </trkpt>
      <trkpt lat="45.90587" lon="-0.96744">
        <ele>56.49254</ele>
        <time>2022-12-21T15:35:45.332Z</time>
      </trkpt>
      <trkpt lat="45.9058" lon="-0.96735">
        <ele>56.449418</ele>
        <time>2022-12-21T15:35:50.344Z</time>
      </trkpt>
      <trkpt lat="45.90576" lon="-0.96721">
        <ele>56.401444</ele>
        <time>2022-12-21T15:35:55.342Z</time>
      </trkpt>
      <trkpt lat="45.90575" lon="-0.96707">
        <ele>56.35695</ele>
        <time>2022-12-21T15:35:59.337Z</time>
      </trkpt>
      <trkpt lat="45.90572" lon="-0.96695">
        <ele>56.315898</ele>
        <time>2022-12-21T15:36:02.358Z</time>
      </trkpt>
      <trkpt lat="45.90567" lon="-0.96684">
        <ele>56.272423</ele>
        <time>2022-12-21T15:36:05.331Z</time>
      </trkpt>
      <trkpt lat="45.90562" lon="-0.96672">
        <ele>56.22812</ele>
        <time>2022-12-21T15:36:08.368Z</time>
      </trkpt>
      <trkpt lat="45.90556" lon="-0.9666">
        <ele>56.181012</ele>
        <time>2022-12-21T15:36:12.359Z</time>
      </trkpt>
      <trkpt lat="45.9055" lon="-0.96646">
        <ele>56.129738</ele>
        <time>2022-12-21T15:36:16.342Z</time>
      </trkpt>
      <trkpt lat="45.90544" lon="-0.96635">
        <ele>56.084653</ele>
        <time>2022-12-21T15:36:19.338Z</time>
      </trkpt>
      <trkpt lat="45.90538" lon="-0.96624">
        <ele>56.039595</ele>
        <time>2022-12-21T15:36:22.338Z</time>
      </trkpt>
      <trkpt lat="45.9053" lon="-0.96611">
        <ele>55.98582</ele>
        <time>2022-12-21T15:36:25.347Z</time>
      </trkpt>
      <trkpt lat="45.90522" lon="-0.96596">
        <ele>55.927941</ele>
        <time>2022-12-21T15:36:28.346Z</time>
      </trkpt>
      <trkpt lat="45.90514" lon="-0.96584">
        <ele>55.872459</ele>
        <time>2022-12-21T15:36:31.340Z</time>
      </trkpt>
      <trkpt lat="45.90503" lon="-0.96578">
        <ele>55.819081</ele>
        <time>2022-12-21T15:36:34.352Z</time>
      </trkpt>
      <trkpt lat="45.90494" lon="-0.96568">
        <ele>55.7696</ele>
        <time>2022-12-21T15:36:37.364Z</time>
      </trkpt>
      <trkpt lat="45.90492" lon="-0.96551">
        <ele>55.71453</ele>
        <time>2022-12-21T15:36:40.337Z</time>
      </trkpt>
      <trkpt lat="45.9049" lon="-0.96538">
        <ele>55.59086</ele>
        <time>2022-12-21T15:36:42.355Z</time>
      </trkpt>
      <trkpt lat="45.90486" lon="-0.96525">
        <ele>55.403623</ele>
        <time>2022-12-21T15:36:44.360Z</time>
      </trkpt>
      <trkpt lat="45.9048" lon="-0.96512">
        <ele>55.208421</ele>
        <time>2022-12-21T15:36:46.360Z</time>
      </trkpt>
      <trkpt lat="45.90474" lon="-0.96499">
        <ele>55.011381</ele>
        <time>2022-12-21T15:36:48.346Z</time>
      </trkpt>
      <trkpt lat="45.90468" lon="-0.96486">
        <ele>54.810166</ele>
        <time>2022-12-21T15:36:50.336Z</time>
      </trkpt>
      <trkpt lat="45.90463" lon="-0.96471">
        <ele>54.602185</ele>
        <time>2022-12-21T15:36:52.349Z</time>
      </trkpt>
      <trkpt lat="45.90458" lon="-0.96457">
        <ele>54.394084</ele>
        <time>2022-12-21T15:36:54.355Z</time>
      </trkpt>
      <trkpt lat="45.90454" lon="-0.96443">
        <ele>54.197957</ele>
        <time>2022-12-21T15:36:56.337Z</time>
      </trkpt>
      <trkpt lat="45.9045" lon="-0.9643">
        <ele>54.020647</ele>
        <time>2022-12-21T15:36:58.340Z</time>
      </trkpt>
      <trkpt lat="45.90446" lon="-0.96417">
        <ele>53.846149</ele>
        <time>2022-12-21T15:37:00.339Z</time>
      </trkpt>
      <trkpt lat="45.9044" lon="-0.96401">
        <ele>53.608459</ele>
        <time>2022-12-21T15:37:03.358Z</time>
      </trkpt>
      <trkpt lat="45.90436" lon="-0.96384">
        <ele>53.383193</ele>
        <time>2022-12-21T15:37:06.352Z</time>
      </trkpt>
      <trkpt lat="45.90431" lon="-0.96369">
        <ele>53.165916</ele>
        <time>2022-12-21T15:37:09.346Z</time>
      </trkpt>
      <trkpt lat="45.90426" lon="-0.96353">
        <ele>52.942768</ele>
        <time>2022-12-21T15:37:12.344Z</time>
      </trkpt>
      <trkpt lat="45.90421" lon="-0.96336">
        <ele>52.705956</ele>
        <time>2022-12-21T15:37:15.357Z</time>
      </trkpt>
      <trkpt lat="45.90418" lon="-0.96317">
        <ele>52.461661</ele>
        <time>2022-12-21T15:37:18.334Z</time>
      </trkpt>
      <trkpt lat="45.90415" lon="-0.96299">
        <ele>52.349751</ele>
        <time>2022-12-21T15:37:21.338Z</time>
      </trkpt>
      <trkpt lat="45.90413" lon="-0.96281">
        <ele>52.282591</ele>
        <time>2022-12-21T15:37:24.352Z</time>
      </trkpt>
      <trkpt lat="45.9041" lon="-0.96264">
        <ele>52.222325</ele>
        <time>2022-12-21T15:37:27.346Z</time>
      </trkpt>
      <trkpt lat="45.90408" lon="-0.96247">
        <ele>52.159015</ele>
        <time>2022-12-21T15:37:30.336Z</time>
      </trkpt>
      <trkpt lat="45.90407" lon="-0.96228">
        <ele>52.092638</ele>
        <time>2022-12-21T15:37:33.334Z</time>
      </trkpt>
      <trkpt lat="45.90405" lon="-0.96215">
        <ele>52.043037</ele>
        <time>2022-12-21T15:37:35.334Z</time>
      </trkpt>
      <trkpt lat="45.90402" lon="-0.96202">
        <ele>51.995605</ele>
        <time>2022-12-21T15:37:37.359Z</time>
      </trkpt>
      <trkpt lat="45.90399" lon="-0.9619">
        <ele>51.948568</ele>
        <time>2022-12-21T15:37:39.352Z</time>
      </trkpt>
      <trkpt lat="45.90396" lon="-0.96177">
        <ele>51.899813</ele>
        <time>2022-12-21T15:37:41.336Z</time>
      </trkpt>
      <trkpt lat="45.90392" lon="-0.96165">
        <ele>51.851921</ele>
        <time>2022-12-21T15:37:43.343Z</time>
      </trkpt>
      <trkpt lat="45.90386" lon="-0.96148">
        <ele>51.785135</ele>
        <time>2022-12-21T15:37:46.359Z</time>
      </trkpt>
      <trkpt lat="45.9038" lon="-0.96132">
        <ele>51.720456</ele>
        <time>2022-12-21T15:37:49.344Z</time>
      </trkpt>
      <trkpt lat="45.90373" lon="-0.96117">
        <ele>51.654565</ele>
        <time>2022-12-21T15:37:52.328Z</time>
      </trkpt>
      <trkpt lat="45.90365" lon="-0.96102">
        <ele>51.588927</ele>
        <time>2022-12-21T15:37:55.336Z</time>
      </trkpt>
      <trkpt lat="45.90357" lon="-0.9609">
        <ele>51.525329</ele>
        <time>2022-12-21T15:37:58.346Z</time>
      </trkpt>
      <trkpt lat="45.90347" lon="-0.9608">
        <ele>51.469557</ele>
        <time>2022-12-21T15:38:01.338Z</time>
      </trkpt>
      <trkpt lat="45.90337" lon="-0.96072">
        <ele>51.44056</ele>
        <time>2022-12-21T15:38:04.339Z</time>
      </trkpt>
      <trkpt lat="45.90327" lon="-0.96066">
        <ele>51.411803</ele>
        <time>2022-12-21T15:38:07.343Z</time>
      </trkpt>
      <trkpt lat="45.90316" lon="-0.96059">
        <ele>51.383531</ele>
        <time>2022-12-21T15:38:10.339Z</time>
      </trkpt>
      <trkpt lat="45.90307" lon="-0.96049">
        <ele>51.353704</ele>
        <time>2022-12-21T15:38:13.360Z</time>
      </trkpt>
      <trkpt lat="45.90297" lon="-0.96037">
        <ele>51.322338</ele>
        <time>2022-12-21T15:38:16.355Z</time>
      </trkpt>
      <trkpt lat="45.9029" lon="-0.96023">
        <ele>51.291099</ele>
        <time>2022-12-21T15:38:19.342Z</time>
      </trkpt>
      <trkpt lat="45.90286" lon="-0.96007">
        <ele>51.262559</ele>
        <time>2022-12-21T15:38:22.341Z</time>
      </trkpt>
      <trkpt lat="45.90283" lon="-0.95994">
        <ele>51.238079</ele>
        <time>2022-12-21T15:38:25.344Z</time>
      </trkpt>
      <trkpt lat="45.90276" lon="-0.95985">
        <ele>51.215028</ele>
        <time>2022-12-21T15:38:30.344Z</time>
      </trkpt>
      <trkpt lat="45.90266" lon="-0.95983">
        <ele>51.189243</ele>
        <time>2022-12-21T15:38:34.346Z</time>
      </trkpt>
      <trkpt lat="45.90256" lon="-0.95983">
        <ele>51.164168</ele>
        <time>2022-12-21T15:38:37.343Z</time>
      </trkpt>
      <trkpt lat="45.90246" lon="-0.95983">
        <ele>51.137845</ele>
        <time>2022-12-21T15:38:40.361Z</time>
      </trkpt>
      <trkpt lat="45.90235" lon="-0.95983">
        <ele>51.110248</ele>
        <time>2022-12-21T15:38:43.343Z</time>
      </trkpt>
      <trkpt lat="45.90224" lon="-0.95984">
        <ele>51.082658</ele>
        <time>2022-12-21T15:38:46.336Z</time>
      </trkpt>
      <trkpt lat="45.90214" lon="-0.95984">
        <ele>51.057335</ele>
        <time>2022-12-21T15:38:49.339Z</time>
      </trkpt>
      <trkpt lat="45.90203" lon="-0.95984">
        <ele>51.031012</ele>
        <time>2022-12-21T15:38:52.348Z</time>
      </trkpt>
      <trkpt lat="45.90193" lon="-0.95984">
        <ele>51.069117</ele>
        <time>2022-12-21T15:38:55.334Z</time>
      </trkpt>
      <trkpt lat="45.90183" lon="-0.95985">
        <ele>51.141221</ele>
        <time>2022-12-21T15:38:58.344Z</time>
      </trkpt>
      <trkpt lat="45.90172" lon="-0.95985">
        <ele>51.222577</ele>
        <time>2022-12-21T15:39:02.348Z</time>
      </trkpt>
      <trkpt lat="45.90161" lon="-0.95986">
        <ele>51.302556</ele>
        <time>2022-12-21T15:39:06.362Z</time>
      </trkpt>
      <trkpt lat="45.90151" lon="-0.95986">
        <ele>51.369481</ele>
        <time>2022-12-21T15:39:09.365Z</time>
      </trkpt>
      <trkpt lat="45.90141" lon="-0.95986">
        <ele>51.440118</ele>
        <time>2022-12-21T15:39:12.345Z</time>
      </trkpt>
      <trkpt lat="45.90132" lon="-0.95986">
        <ele>51.509929</ele>
        <time>2022-12-21T15:39:15.339Z</time>
      </trkpt>
      <trkpt lat="45.90123" lon="-0.95985">
        <ele>51.576324</ele>
        <time>2022-12-21T15:39:18.341Z</time>
      </trkpt>
      <trkpt lat="45.90113" lon="-0.95986">
        <ele>51.644119</ele>
        <time>2022-12-21T15:39:21.365Z</time>
      </trkpt>
      <trkpt lat="45.90104" lon="-0.95986">
        <ele>51.711052</ele>
        <time>2022-12-21T15:39:24.344Z</time>
      </trkpt>
      <trkpt lat="45.90092" lon="-0.95987">
        <ele>51.793883</ele>
        <time>2022-12-21T15:39:28.360Z</time>
      </trkpt>
      <trkpt lat="45.90081" lon="-0.95988">
        <ele>51.876044</ele>
        <time>2022-12-21T15:39:32.340Z</time>
      </trkpt>
      <trkpt lat="45.90069" lon="-0.95988">
        <ele>51.959575</ele>
        <time>2022-12-21T15:39:36.337Z</time>
      </trkpt>
      <trkpt lat="45.9006" lon="-0.95989">
        <ele>52.025873</ele>
        <time>2022-12-21T15:39:39.349Z</time>
      </trkpt>
      <trkpt lat="45.90051" lon="-0.95989">
        <ele>52.092866</ele>
        <time>2022-12-21T15:39:42.333Z</time>
      </trkpt>
      <trkpt lat="45.90042" lon="-0.9599">
        <ele>52.159079</ele>
        <time>2022-12-21T15:39:45.362Z</time>
      </trkpt>
      <trkpt lat="45.90033" lon="-0.95989">
        <ele>52.224582</ele>
        <time>2022-12-21T15:39:48.343Z</time>
      </trkpt>
      <trkpt lat="45.90021" lon="-0.9599">
        <ele>52.310254</ele>
        <time>2022-12-21T15:39:52.330Z</time>
      </trkpt>
      <trkpt lat="45.90011" lon="-0.9599">
        <ele>52.329708</ele>
        <time>2022-12-21T15:39:55.341Z</time>
      </trkpt>
      <trkpt lat="45.90002" lon="-0.9599">
        <ele>52.343387</ele>
        <time>2022-12-21T15:39:58.357Z</time>
      </trkpt>
      <trkpt lat="45.89993" lon="-0.9599">
        <ele>52.357369</ele>
        <time>2022-12-21T15:40:01.338Z</time>
      </trkpt>
      <trkpt lat="45.89983" lon="-0.9599">
        <ele>52.371664</ele>
        <time>2022-12-21T15:40:04.359Z</time>
      </trkpt>
      <trkpt lat="45.89973" lon="-0.9599">
        <ele>52.387472</ele>
        <time>2022-12-21T15:40:07.362Z</time>
      </trkpt>
      <trkpt lat="45.89962" lon="-0.95991">
        <ele>52.403913</ele>
        <time>2022-12-21T15:40:10.342Z</time>
      </trkpt>
      <trkpt lat="45.89952" lon="-0.95991">
        <ele>52.419871</ele>
        <time>2022-12-21T15:40:13.362Z</time>
      </trkpt>
      <trkpt lat="45.89942" lon="-0.95992">
        <ele>52.434953</ele>
        <time>2022-12-21T15:40:16.361Z</time>
      </trkpt>
      <trkpt lat="45.89933" lon="-0.95992">
        <ele>52.448935</ele>
        <time>2022-12-21T15:40:19.343Z</time>
      </trkpt>
      <trkpt lat="45.89921" lon="-0.95993">
        <ele>52.465989</ele>
        <time>2022-12-21T15:40:23.341Z</time>
      </trkpt>
      <trkpt lat="45.8991" lon="-0.95994">
        <ele>52.483058</ele>
        <time>2022-12-21T15:40:27.359Z</time>
      </trkpt>
      <trkpt lat="45.89904" lon="-0.95985">
        <ele>52.497437</ele>
        <time>2022-12-21T15:40:31.350Z</time>
      </trkpt>
      <trkpt lat="45.89904" lon="-0.9597">
        <ele>52.512674</ele>
        <time>2022-12-21T15:40:35.350Z</time>
      </trkpt>
      <trkpt lat="45.89904" lon="-0.95953">
        <ele>52.530571</ele>
        <time>2022-12-21T15:40:39.333Z</time>
      </trkpt>
      <trkpt lat="45.89905" lon="-0.9594">
        <ele>52.544994</ele>
        <time>2022-12-21T15:40:42.337Z</time>
      </trkpt>
      <trkpt lat="45.89905" lon="-0.95926">
        <ele>52.559596</ele>
        <time>2022-12-21T15:40:45.342Z</time>
      </trkpt>
      <trkpt lat="45.89904" lon="-0.95912">
        <ele>52.574744</ele>
        <time>2022-12-21T15:40:48.335Z</time>
      </trkpt>
      <trkpt lat="45.89902" lon="-0.95898">
        <ele>52.589314</ele>
        <time>2022-12-21T15:40:51.340Z</time>
      </trkpt>
      <trkpt lat="45.89899" lon="-0.95883">
        <ele>52.572094</ele>
        <time>2022-12-21T15:40:54.330Z</time>
      </trkpt>
      <trkpt lat="45.89896" lon="-0.95869">
        <ele>52.554676</ele>
        <time>2022-12-21T15:40:57.340Z</time>
      </trkpt>
      <trkpt lat="45.89892" lon="-0.95855">
        <ele>52.536776</ele>
        <time>2022-12-21T15:41:00.353Z</time>
      </trkpt>
      <trkpt lat="45.89888" lon="-0.9584">
        <ele>52.517785</ele>
        <time>2022-12-21T15:41:03.342Z</time>
      </trkpt>
      <trkpt lat="45.89884" lon="-0.95825">
        <ele>52.498694</ele>
        <time>2022-12-21T15:41:06.344Z</time>
      </trkpt>
      <trkpt lat="45.8988" lon="-0.95811">
        <ele>52.480826</ele>
        <time>2022-12-21T15:41:09.344Z</time>
      </trkpt>
      <trkpt lat="45.89876" lon="-0.95798">
        <ele>52.463507</ele>
        <time>2022-12-21T15:41:12.341Z</time>
      </trkpt>
      <trkpt lat="45.89872" lon="-0.95785">
        <ele>52.446902</ele>
        <time>2022-12-21T15:41:15.341Z</time>
      </trkpt>
      <trkpt lat="45.89867" lon="-0.9577">
        <ele>52.428338</ele>
        <time>2022-12-21T15:41:18.341Z</time>
      </trkpt>
      <trkpt lat="45.89863" lon="-0.95755">
        <ele>52.408502</ele>
        <time>2022-12-21T15:41:21.336Z</time>
      </trkpt>
      <trkpt lat="45.89858" lon="-0.95739">
        <ele>52.388399</ele>
        <time>2022-12-21T15:41:24.335Z</time>
      </trkpt>
      <trkpt lat="45.89854" lon="-0.95723">
        <ele>52.368016</ele>
        <time>2022-12-21T15:41:27.336Z</time>
      </trkpt>
      <trkpt lat="45.8985" lon="-0.95707">
        <ele>52.347648</ele>
        <time>2022-12-21T15:41:30.334Z</time>
      </trkpt>
      <trkpt lat="45.89846" lon="-0.95691">
        <ele>52.327496</ele>
        <time>2022-12-21T15:41:33.338Z</time>
      </trkpt>
      <trkpt lat="45.89844" lon="-0.95676">
        <ele>52.309511</ele>
        <time>2022-12-21T15:41:36.334Z</time>
      </trkpt>
      <trkpt lat="45.89841" lon="-0.95662">
        <ele>52.292934</ele>
        <time>2022-12-21T15:41:39.330Z</time>
      </trkpt>
      <trkpt lat="45.89839" lon="-0.95647">
        <ele>52.255373</ele>
        <time>2022-12-21T15:41:42.339Z</time>
      </trkpt>
      <trkpt lat="45.89837" lon="-0.95631">
        <ele>52.199605</ele>
        <time>2022-12-21T15:41:45.348Z</time>
      </trkpt>
      <trkpt lat="45.89835" lon="-0.95613">
        <ele>52.139851</ele>
        <time>2022-12-21T15:41:48.347Z</time>
      </trkpt>
      <trkpt lat="45.89835" lon="-0.95595">
        <ele>52.081435</ele>
        <time>2022-12-21T15:41:51.341Z</time>
      </trkpt>
      <trkpt lat="45.89835" lon="-0.95579">
        <ele>52.025753</ele>
        <time>2022-12-21T15:41:54.353Z</time>
      </trkpt>
      <trkpt lat="45.89836" lon="-0.95563">
        <ele>51.971488</ele>
        <time>2022-12-21T15:41:57.354Z</time>
      </trkpt>
      <trkpt lat="45.89837" lon="-0.95545">
        <ele>51.91333</ele>
        <time>2022-12-21T15:42:00.334Z</time>
      </trkpt>
      <trkpt lat="45.89838" lon="-0.95527">
        <ele>51.852425</ele>
        <time>2022-12-21T15:42:03.331Z</time>
      </trkpt>
      <trkpt lat="45.89839" lon="-0.9551">
        <ele>51.793004</ele>
        <time>2022-12-21T15:42:06.336Z</time>
      </trkpt>
      <trkpt lat="45.89841" lon="-0.95493">
        <ele>51.737247</ele>
        <time>2022-12-21T15:42:09.338Z</time>
      </trkpt>
      <trkpt lat="45.89841" lon="-0.95477">
        <ele>51.684229</ele>
        <time>2022-12-21T15:42:12.342Z</time>
      </trkpt>
      <trkpt lat="45.89841" lon="-0.95463">
        <ele>51.635246</ele>
        <time>2022-12-21T15:42:15.340Z</time>
      </trkpt>
      <trkpt lat="45.89839" lon="-0.95449">
        <ele>51.5874</ele>
        <time>2022-12-21T15:42:18.347Z</time>
      </trkpt>
      <trkpt lat="45.89839" lon="-0.95433">
        <ele>51.535063</ele>
        <time>2022-12-21T15:42:21.348Z</time>
      </trkpt>
      <trkpt lat="45.89838" lon="-0.95416">
        <ele>51.477583</ele>
        <time>2022-12-21T15:42:24.344Z</time>
      </trkpt>
      <trkpt lat="45.89837" lon="-0.954">
        <ele>51.422771</ele>
        <time>2022-12-21T15:42:27.343Z</time>
      </trkpt>
      <trkpt lat="45.89835" lon="-0.95385">
        <ele>51.375131</ele>
        <time>2022-12-21T15:42:30.338Z</time>
      </trkpt>
      <trkpt lat="45.89834" lon="-0.95372">
        <ele>51.332737</ele>
        <time>2022-12-21T15:42:33.346Z</time>
      </trkpt>
      <trkpt lat="45.89833" lon="-0.95359">
        <ele>51.291045</ele>
        <time>2022-12-21T15:42:36.356Z</time>
      </trkpt>
      <trkpt lat="45.89831" lon="-0.95343">
        <ele>51.241374</ele>
        <time>2022-12-21T15:42:40.332Z</time>
      </trkpt>
      <trkpt lat="45.89828" lon="-0.95328">
        <ele>51.190986</ele>
        <time>2022-12-21T15:42:44.360Z</time>
      </trkpt>
      <trkpt lat="45.89825" lon="-0.95314">
        <ele>51.14537</ele>
        <time>2022-12-21T15:42:47.341Z</time>
      </trkpt>
      <trkpt lat="45.89822" lon="-0.953">
        <ele>51.098118</ele>
        <time>2022-12-21T15:42:50.338Z</time>
      </trkpt>
      <trkpt lat="45.8982" lon="-0.95284">
        <ele>51.048481</ele>
        <time>2022-12-21T15:42:53.346Z</time>
      </trkpt>
      <trkpt lat="45.89821" lon="-0.95269">
        <ele>51.000349</ele>
        <time>2022-12-21T15:42:56.346Z</time>
      </trkpt>
      <trkpt lat="45.89822" lon="-0.95252">
        <ele>50.946256</ele>
        <time>2022-12-21T15:42:59.342Z</time>
      </trkpt>
      <trkpt lat="45.89823" lon="-0.95234">
        <ele>50.889545</ele>
        <time>2022-12-21T15:43:02.344Z</time>
      </trkpt>
      <trkpt lat="45.89824" lon="-0.95216">
        <ele>50.835286</ele>
        <time>2022-12-21T15:43:05.338Z</time>
      </trkpt>
      <trkpt lat="45.89825" lon="-0.952">
        <ele>50.784227</ele>
        <time>2022-12-21T15:43:08.339Z</time>
      </trkpt>
      <trkpt lat="45.89825" lon="-0.95185">
        <ele>50.736064</ele>
        <time>2022-12-21T15:43:11.333Z</time>
      </trkpt>
      <trkpt lat="45.89826" lon="-0.95171">
        <ele>50.692503</ele>
        <time>2022-12-21T15:43:14.334Z</time>
      </trkpt>
      <trkpt lat="45.89827" lon="-0.95157">
        <ele>50.649604</ele>
        <time>2022-12-21T15:43:17.340Z</time>
      </trkpt>
      <trkpt lat="45.89828" lon="-0.95143">
        <ele>50.60914</ele>
        <time>2022-12-21T15:43:20.350Z</time>
      </trkpt>
      <trkpt lat="45.89829" lon="-0.95128">
        <ele>50.745592</ele>
        <time>2022-12-21T15:43:23.336Z</time>
      </trkpt>
      <trkpt lat="45.89823" lon="-0.95116">
        <ele>50.879238</ele>
        <time>2022-12-21T15:43:27.336Z</time>
      </trkpt>
      <trkpt lat="45.89813" lon="-0.95113">
        <ele>51.017621</ele>
        <time>2022-12-21T15:43:31.359Z</time>
      </trkpt>
      <trkpt lat="45.89802" lon="-0.95113">
        <ele>51.162421</ele>
        <time>2022-12-21T15:43:35.346Z</time>
      </trkpt>
      <trkpt lat="45.89793" lon="-0.95109">
        <ele>51.279266</ele>
        <time>2022-12-21T15:43:38.345Z</time>
      </trkpt>
      <trkpt lat="45.89787" lon="-0.95099">
        <ele>51.399158</ele>
        <time>2022-12-21T15:43:42.349Z</time>
      </trkpt>
      <trkpt lat="45.89784" lon="-0.95086">
        <ele>51.526831</ele>
        <time>2022-12-21T15:43:46.350Z</time>
      </trkpt>
      <trkpt lat="45.89778" lon="-0.95071">
        <ele>51.680137</ele>
        <time>2022-12-21T15:43:50.340Z</time>
      </trkpt>
      <trkpt lat="45.89773" lon="-0.95055">
        <ele>51.833579</ele>
        <time>2022-12-21T15:43:54.340Z</time>
      </trkpt>
      <trkpt lat="45.89769" lon="-0.95042">
        <ele>51.968562</ele>
        <time>2022-12-21T15:43:57.346Z</time>
      </trkpt>
      <trkpt lat="45.89766" lon="-0.95028">
        <ele>52.091842</ele>
        <time>2022-12-21T15:44:00.344Z</time>
      </trkpt>
      <trkpt lat="45.89763" lon="-0.95015">
        <ele>52.217616</ele>
        <time>2022-12-21T15:44:03.343Z</time>
      </trkpt>
      <trkpt lat="45.8976" lon="-0.95002">
        <ele>52.340387</ele>
        <time>2022-12-21T15:44:06.365Z</time>
      </trkpt>
      <trkpt lat="45.89757" lon="-0.94989">
        <ele>52.46502</ele>
        <time>2022-12-21T15:44:09.333Z</time>
      </trkpt>
      <trkpt lat="45.89755" lon="-0.94975">
        <ele>52.596177</ele>
        <time>2022-12-21T15:44:12.359Z</time>
      </trkpt>
      <trkpt lat="45.89752" lon="-0.94961">
        <ele>52.723923</ele>
        <time>2022-12-21T15:44:15.346Z</time>
      </trkpt>
      <trkpt lat="45.89749" lon="-0.94948">
        <ele>52.850518</ele>
        <time>2022-12-21T15:44:18.347Z</time>
      </trkpt>
      <trkpt lat="45.89745" lon="-0.94934">
        <ele>52.987749</ele>
        <time>2022-12-21T15:44:21.363Z</time>
      </trkpt>
      <trkpt lat="45.89741" lon="-0.94921">
        <ele>53.115233</ele>
        <time>2022-12-21T15:44:24.343Z</time>
      </trkpt>
      <trkpt lat="45.89736" lon="-0.9491">
        <ele>53.236851</ele>
        <time>2022-12-21T15:44:27.339Z</time>
      </trkpt>
      <trkpt lat="45.89732" lon="-0.94899">
        <ele>53.357716</ele>
        <time>2022-12-21T15:44:30.353Z</time>
      </trkpt>
      <trkpt lat="45.89726" lon="-0.94888">
        <ele>53.489339</ele>
        <time>2022-12-21T15:44:33.346Z</time>
      </trkpt>
      <trkpt lat="45.8972" lon="-0.94875">
        <ele>53.631444</ele>
        <time>2022-12-21T15:44:36.359Z</time>
      </trkpt>
      <trkpt lat="45.89713" lon="-0.94863">
        <ele>53.774877</ele>
        <time>2022-12-21T15:44:39.361Z</time>
      </trkpt>
      <trkpt lat="45.89706" lon="-0.94852">
        <ele>53.916864</ele>
        <time>2022-12-21T15:44:42.346Z</time>
      </trkpt>
      <trkpt lat="45.89699" lon="-0.94843">
        <ele>54.045336</ele>
        <time>2022-12-21T15:44:45.347Z</time>
      </trkpt>
      <trkpt lat="45.89691" lon="-0.94834">
        <ele>54.179576</ele>
        <time>2022-12-21T15:44:48.345Z</time>
      </trkpt>
      <trkpt lat="45.89683" lon="-0.94825">
        <ele>54.316308</ele>
        <time>2022-12-21T15:44:51.349Z</time>
      </trkpt>
      <trkpt lat="45.89675" lon="-0.94816">
        <ele>54.449887</ele>
        <time>2022-12-21T15:44:54.341Z</time>
      </trkpt>
      <trkpt lat="45.89667" lon="-0.94808">
        <ele>54.57535</ele>
        <time>2022-12-21T15:44:57.337Z</time>
      </trkpt>
      <trkpt lat="45.89659" lon="-0.94798">
        <ele>54.72024</ele>
        <time>2022-12-21T15:45:01.353Z</time>
      </trkpt>
      <trkpt lat="45.89652" lon="-0.9479">
        <ele>54.839708</ele>
        <time>2022-12-21T15:45:04.338Z</time>
      </trkpt>
      <trkpt lat="45.89645" lon="-0.94783">
        <ele>54.961897</ele>
        <time>2022-12-21T15:45:07.360Z</time>
      </trkpt>
      <trkpt lat="45.89638" lon="-0.94773">
        <ele>55.084861</ele>
        <time>2022-12-21T15:45:10.362Z</time>
      </trkpt>
      <trkpt lat="45.8963" lon="-0.94764">
        <ele>55.217007</ele>
        <time>2022-12-21T15:45:14.344Z</time>
      </trkpt>
      <trkpt lat="45.89622" lon="-0.94757">
        <ele>55.337311</ele>
        <time>2022-12-21T15:45:19.342Z</time>
      </trkpt>
      <trkpt lat="45.89615" lon="-0.94746">
        <ele>55.357368</ele>
        <time>2022-12-21T15:45:24.335Z</time>
      </trkpt>
      <trkpt lat="45.89607" lon="-0.94738">
        <ele>55.375949</ele>
        <time>2022-12-21T15:45:28.337Z</time>
      </trkpt>
      <trkpt lat="45.89599" lon="-0.94728">
        <ele>55.396921</ele>
        <time>2022-12-21T15:45:32.333Z</time>
      </trkpt>
      <trkpt lat="45.8959" lon="-0.94716">
        <ele>55.418813</ele>
        <time>2022-12-21T15:45:36.343Z</time>
      </trkpt>
      <trkpt lat="45.89583" lon="-0.94705">
        <ele>55.438815</ele>
        <time>2022-12-21T15:45:40.334Z</time>
      </trkpt>
      <trkpt lat="45.89576" lon="-0.94695">
        <ele>55.457862</ele>
        <time>2022-12-21T15:45:44.342Z</time>
      </trkpt>
      <trkpt lat="45.89569" lon="-0.94683">
        <ele>55.478836</ele>
        <time>2022-12-21T15:45:48.349Z</time>
      </trkpt>
      <trkpt lat="45.89562" lon="-0.94671">
        <ele>55.500628</ele>
        <time>2022-12-21T15:45:52.334Z</time>
      </trkpt>
      <trkpt lat="45.89554" lon="-0.94658">
        <ele>55.522615</ele>
        <time>2022-12-21T15:45:56.336Z</time>
      </trkpt>
      <trkpt lat="45.89549" lon="-0.94648">
        <ele>55.540251</ele>
        <time>2022-12-21T15:45:59.336Z</time>
      </trkpt>
      <trkpt lat="45.89542" lon="-0.94638">
        <ele>55.558228</ele>
        <time>2022-12-21T15:46:02.337Z</time>
      </trkpt>
      <trkpt lat="45.89533" lon="-0.94627">
        <ele>55.580767</ele>
        <time>2022-12-21T15:46:06.352Z</time>
      </trkpt>
      <trkpt lat="45.89526" lon="-0.94614">
        <ele>55.601694</ele>
        <time>2022-12-21T15:46:10.362Z</time>
      </trkpt>
      <trkpt lat="45.89519" lon="-0.94602">
        <ele>55.624387</ele>
        <time>2022-12-21T15:46:14.336Z</time>
      </trkpt>
      <trkpt lat="45.8951" lon="-0.9459">
        <ele>55.646832</ele>
        <time>2022-12-21T15:46:18.332Z</time>
      </trkpt>
      <trkpt lat="45.89504" lon="-0.94579">
        <ele>55.665123</ele>
        <time>2022-12-21T15:46:22.335Z</time>
      </trkpt>
      <trkpt lat="45.89497" lon="-0.94567">
        <ele>55.651094</ele>
        <time>2022-12-21T15:46:26.339Z</time>
      </trkpt>
      <trkpt lat="45.89492" lon="-0.94554">
        <ele>55.552515</ele>
        <time>2022-12-21T15:46:30.331Z</time>
      </trkpt>
      <trkpt lat="45.89485" lon="-0.94541">
        <ele>55.450782</ele>
        <time>2022-12-21T15:46:34.343Z</time>
      </trkpt>
      <trkpt lat="45.89477" lon="-0.94528">
        <ele>55.344004</ele>
        <time>2022-12-21T15:46:38.336Z</time>
      </trkpt>
      <trkpt lat="45.89472" lon="-0.94518">
        <ele>55.259966</ele>
        <time>2022-12-21T15:46:41.346Z</time>
      </trkpt>
      <trkpt lat="45.89465" lon="-0.94506">
        <ele>55.160461</ele>
        <time>2022-12-21T15:46:45.341Z</time>
      </trkpt>
      <trkpt lat="45.89459" lon="-0.94494">
        <ele>55.075903</ele>
        <time>2022-12-21T15:46:48.334Z</time>
      </trkpt>
      <trkpt lat="45.89455" lon="-0.94482">
        <ele>54.98855</ele>
        <time>2022-12-21T15:46:51.345Z</time>
      </trkpt>
      <trkpt lat="45.8945" lon="-0.94471">
        <ele>54.904839</ele>
        <time>2022-12-21T15:46:54.336Z</time>
      </trkpt>
      <trkpt lat="45.89444" lon="-0.94457">
        <ele>54.800572</ele>
        <time>2022-12-21T15:46:58.329Z</time>
      </trkpt>
      <trkpt lat="45.89439" lon="-0.94445">
        <ele>54.711124</ele>
        <time>2022-12-21T15:47:01.336Z</time>
      </trkpt>
      <trkpt lat="45.89433" lon="-0.94432">
        <ele>54.615549</ele>
        <time>2022-12-21T15:47:04.350Z</time>
      </trkpt>
      <trkpt lat="45.89428" lon="-0.9442">
        <ele>54.526558</ele>
        <time>2022-12-21T15:47:07.344Z</time>
      </trkpt>
      <trkpt lat="45.89424" lon="-0.94409">
        <ele>54.444855</ele>
        <time>2022-12-21T15:47:10.344Z</time>
      </trkpt>
      <trkpt lat="45.89418" lon="-0.94394">
        <ele>54.338279</ele>
        <time>2022-12-21T15:47:14.349Z</time>
      </trkpt>
      <trkpt lat="45.89413" lon="-0.94382">
        <ele>54.246096</ele>
        <time>2022-12-21T15:47:17.339Z</time>
      </trkpt>
      <trkpt lat="45.89407" lon="-0.94368">
        <ele>54.144312</ele>
        <time>2022-12-21T15:47:20.363Z</time>
      </trkpt>
      <trkpt lat="45.89401" lon="-0.94355">
        <ele>54.048308</ele>
        <time>2022-12-21T15:47:23.361Z</time>
      </trkpt>
      <trkpt lat="45.89393" lon="-0.94343">
        <ele>53.914368</ele>
        <time>2022-12-21T15:47:27.361Z</time>
      </trkpt>
      <trkpt lat="45.89387" lon="-0.94332">
        <ele>53.79846</ele>
        <time>2022-12-21T15:47:31.363Z</time>
      </trkpt>
      <trkpt lat="45.89379" lon="-0.94319">
        <ele>53.658971</ele>
        <time>2022-12-21T15:47:35.346Z</time>
      </trkpt>
      <trkpt lat="45.89372" lon="-0.9431">
        <ele>53.548343</ele>
        <time>2022-12-21T15:47:38.342Z</time>
      </trkpt>
      <trkpt lat="45.89365" lon="-0.94301">
        <ele>53.442331</ele>
        <time>2022-12-21T15:47:41.354Z</time>
      </trkpt>
      <trkpt lat="45.89355" lon="-0.94297">
        <ele>53.324873</ele>
        <time>2022-12-21T15:47:46.359Z</time>
      </trkpt>
      <trkpt lat="45.89353" lon="-0.94277">
        <ele>53.164059</ele>
        <time>2022-12-21T15:48:29.352Z</time>
      </trkpt>
      <trkpt lat="45.89348" lon="-0.94262">
        <ele>53.029663</ele>
        <time>2022-12-21T15:48:33.345Z</time>
      </trkpt>
      <trkpt lat="45.89344" lon="-0.94248">
        <ele>52.903124</ele>
        <time>2022-12-21T15:48:37.335Z</time>
      </trkpt>
      <trkpt lat="45.89342" lon="-0.94235">
        <ele>52.797667</ele>
        <time>2022-12-21T15:48:41.340Z</time>
      </trkpt>
      <trkpt lat="45.89338" lon="-0.9422">
        <ele>52.666507</ele>
        <time>2022-12-21T15:48:46.335Z</time>
      </trkpt>
      <trkpt lat="45.89333" lon="-0.94207">
        <ele>52.543004</ele>
        <time>2022-12-21T15:48:50.345Z</time>
      </trkpt>
      <trkpt lat="45.89329" lon="-0.94192">
        <ele>52.411891</ele>
        <time>2022-12-21T15:48:54.344Z</time>
      </trkpt>
      <trkpt lat="45.89325" lon="-0.94176">
        <ele>52.274641</ele>
        <time>2022-12-21T15:48:58.345Z</time>
      </trkpt>
      <trkpt lat="45.89322" lon="-0.94163">
        <ele>52.165385</ele>
        <time>2022-12-21T15:49:01.361Z</time>
      </trkpt>
      <trkpt lat="45.89317" lon="-0.94148">
        <ele>52.029928</ele>
        <time>2022-12-21T15:49:05.347Z</time>
      </trkpt>
      <trkpt lat="45.89313" lon="-0.94135">
        <ele>51.935938</ele>
        <time>2022-12-21T15:49:09.350Z</time>
      </trkpt>
      <trkpt lat="45.89309" lon="-0.94121">
        <ele>51.883875</ele>
        <time>2022-12-21T15:49:14.350Z</time>
      </trkpt>
      <trkpt lat="45.89308" lon="-0.94108">
        <ele>51.837298</ele>
        <time>2022-12-21T15:49:18.343Z</time>
      </trkpt>
      <trkpt lat="45.89309" lon="-0.94095">
        <ele>51.792789</ele>
        <time>2022-12-21T15:49:22.343Z</time>
      </trkpt>
      <trkpt lat="45.89311" lon="-0.94081">
        <ele>51.746531</ele>
        <time>2022-12-21T15:49:26.358Z</time>
      </trkpt>
      <trkpt lat="45.89314" lon="-0.94068">
        <ele>51.697099</ele>
        <time>2022-12-21T15:49:31.357Z</time>
      </trkpt>
      <trkpt lat="45.89318" lon="-0.94055">
        <ele>51.647929</ele>
        <time>2022-12-21T15:49:36.362Z</time>
      </trkpt>
      <trkpt lat="45.89322" lon="-0.94041">
        <ele>51.598758</ele>
        <time>2022-12-21T15:49:40.344Z</time>
      </trkpt>
      <trkpt lat="45.89326" lon="-0.94028">
        <ele>51.550644</ele>
        <time>2022-12-21T15:49:44.338Z</time>
      </trkpt>
      <trkpt lat="45.89329" lon="-0.94016">
        <ele>51.505727</ele>
        <time>2022-12-21T15:49:48.342Z</time>
      </trkpt>
      <trkpt lat="45.89332" lon="-0.94002">
        <ele>51.45777</ele>
        <time>2022-12-21T15:49:53.352Z</time>
      </trkpt>
      <trkpt lat="45.89328" lon="-0.93987">
        <ele>51.401425</ele>
        <time>2022-12-21T15:49:58.335Z</time>
      </trkpt>
      <trkpt lat="45.8932" lon="-0.93977">
        <ele>51.348885</ele>
        <time>2022-12-21T15:50:03.339Z</time>
      </trkpt>
      <trkpt lat="45.8931" lon="-0.93971">
        <ele>51.295253</ele>
        <time>2022-12-21T15:50:07.364Z</time>
      </trkpt>
      <trkpt lat="45.89301" lon="-0.93967">
        <ele>51.247924</ele>
        <time>2022-12-21T15:50:10.362Z</time>
      </trkpt>
      <trkpt lat="45.89291" lon="-0.93956">
        <ele>51.189388</ele>
        <time>2022-12-21T15:50:14.342Z</time>
      </trkpt>
      <trkpt lat="45.89285" lon="-0.93942">
        <ele>51.130645</ele>
        <time>2022-12-21T15:50:18.334Z</time>
      </trkpt>
      <trkpt lat="45.89279" lon="-0.93928">
        <ele>51.076515</ele>
        <time>2022-12-21T15:50:22.345Z</time>
      </trkpt>
      <trkpt lat="45.89275" lon="-0.93913">
        <ele>51.121298</ele>
        <time>2022-12-21T15:50:25.350Z</time>
      </trkpt>
      <trkpt lat="45.8927" lon="-0.93899">
        <ele>51.181926</ele>
        <time>2022-12-21T15:50:28.335Z</time>
      </trkpt>
      <trkpt lat="45.89265" lon="-0.93883">
        <ele>51.24581</ele>
        <time>2022-12-21T15:50:31.332Z</time>
      </trkpt>
      <trkpt lat="45.89261" lon="-0.93869">
        <ele>51.303852</ele>
        <time>2022-12-21T15:50:34.343Z</time>
      </trkpt>
      <trkpt lat="45.89255" lon="-0.93856">
        <ele>51.365013</ele>
        <time>2022-12-21T15:50:37.353Z</time>
      </trkpt>
      <trkpt lat="45.89249" lon="-0.93843">
        <ele>51.421182</ele>
        <time>2022-12-21T15:50:40.333Z</time>
      </trkpt>
      <trkpt lat="45.89243" lon="-0.93829">
        <ele>51.483068</ele>
        <time>2022-12-21T15:50:44.334Z</time>
      </trkpt>
      <trkpt lat="45.8924" lon="-0.93814">
        <ele>51.540711</ele>
        <time>2022-12-21T15:50:48.347Z</time>
      </trkpt>
      <trkpt lat="45.89235" lon="-0.938">
        <ele>51.601261</ele>
        <time>2022-12-21T15:50:52.336Z</time>
      </trkpt>
      <trkpt lat="45.89228" lon="-0.93789">
        <ele>51.657947</ele>
        <time>2022-12-21T15:50:56.335Z</time>
      </trkpt>
      <trkpt lat="45.89225" lon="-0.93776">
        <ele>51.709889</ele>
        <time>2022-12-21T15:51:00.346Z</time>
      </trkpt>
      <trkpt lat="45.89219" lon="-0.93762">
        <ele>51.771952</ele>
        <time>2022-12-21T15:51:04.352Z</time>
      </trkpt>
      <trkpt lat="45.89212" lon="-0.93751">
        <ele>51.827251</ele>
        <time>2022-12-21T15:51:07.344Z</time>
      </trkpt>
      <trkpt lat="45.89207" lon="-0.93737">
        <ele>51.888536</ele>
        <time>2022-12-21T15:51:10.360Z</time>
      </trkpt>
      <trkpt lat="45.89198" lon="-0.93723">
        <ele>51.960018</ele>
        <time>2022-12-21T15:51:13.336Z</time>
      </trkpt>
      <trkpt lat="45.89191" lon="-0.9371">
        <ele>52.02143</ele>
        <time>2022-12-21T15:51:16.351Z</time>
      </trkpt>
      <trkpt lat="45.89186" lon="-0.93698">
        <ele>51.904469</ele>
        <time>2022-12-21T15:51:19.339Z</time>
      </trkpt>
      <trkpt lat="45.8918" lon="-0.93684">
        <ele>51.612662</ele>
        <time>2022-12-21T15:51:22.360Z</time>
      </trkpt>
      <trkpt lat="45.89173" lon="-0.93671">
        <ele>51.310409</ele>
        <time>2022-12-21T15:51:25.335Z</time>
      </trkpt>
      <trkpt lat="45.89166" lon="-0.93658">
        <ele>51.01346</ele>
        <time>2022-12-21T15:51:28.336Z</time>
      </trkpt>
      <trkpt lat="45.8916" lon="-0.93646">
        <ele>50.733598</ele>
        <time>2022-12-21T15:51:31.359Z</time>
      </trkpt>
      <trkpt lat="45.89154" lon="-0.93634">
        <ele>50.474707</ele>
        <time>2022-12-21T15:51:34.345Z</time>
      </trkpt>
      <trkpt lat="45.89148" lon="-0.93621">
        <ele>50.199102</ele>
        <time>2022-12-21T15:51:38.360Z</time>
      </trkpt>
      <trkpt lat="45.89141" lon="-0.93607">
        <ele>49.872907</ele>
        <time>2022-12-21T15:51:42.343Z</time>
      </trkpt>
      <trkpt lat="45.89135" lon="-0.93595">
        <ele>49.607551</ele>
        <time>2022-12-21T15:51:45.349Z</time>
      </trkpt>
      <trkpt lat="45.89129" lon="-0.93585">
        <ele>49.361302</ele>
        <time>2022-12-21T15:51:48.354Z</time>
      </trkpt>
      <trkpt lat="45.89124" lon="-0.93573">
        <ele>49.103433</ele>
        <time>2022-12-21T15:51:52.356Z</time>
      </trkpt>
      <trkpt lat="45.89118" lon="-0.93559">
        <ele>48.809557</ele>
        <time>2022-12-21T15:51:56.329Z</time>
      </trkpt>
      <trkpt lat="45.8911" lon="-0.93546">
        <ele>48.496429</ele>
        <time>2022-12-21T15:52:00.358Z</time>
      </trkpt>
      <trkpt lat="45.89104" lon="-0.93536">
        <ele>48.252243</ele>
        <time>2022-12-21T15:52:03.336Z</time>
      </trkpt>
      <trkpt lat="45.89096" lon="-0.93526">
        <ele>47.975274</ele>
        <time>2022-12-21T15:52:08.346Z</time>
      </trkpt>
      <trkpt lat="45.89089" lon="-0.93512">
        <ele>47.66219</ele>
        <time>2022-12-21T15:52:12.336Z</time>
      </trkpt>
      <trkpt lat="45.89083" lon="-0.93498">
        <ele>47.349312</ele>
        <time>2022-12-21T15:52:16.341Z</time>
      </trkpt>
      <trkpt lat="45.89078" lon="-0.93483">
        <ele>47.178315</ele>
        <time>2022-12-21T15:52:20.335Z</time>
      </trkpt>
      <trkpt lat="45.89075" lon="-0.93467">
        <ele>47.008356</ele>
        <time>2022-12-21T15:52:23.330Z</time>
      </trkpt>
      <trkpt lat="45.89072" lon="-0.93451">
        <ele>46.834352</ele>
        <time>2022-12-21T15:52:27.339Z</time>
      </trkpt>
      <trkpt lat="45.89067" lon="-0.93437">
        <ele>46.666046</ele>
        <time>2022-12-21T15:52:31.331Z</time>
      </trkpt>
      <trkpt lat="45.8906" lon="-0.93425">
        <ele>46.504642</ele>
        <time>2022-12-21T15:52:36.348Z</time>
      </trkpt>
      <trkpt lat="45.89055" lon="-0.93413">
        <ele>46.355231</ele>
        <time>2022-12-21T15:52:48.357Z</time>
      </trkpt>
      <trkpt lat="45.89047" lon="-0.93403">
        <ele>46.203559</ele>
        <time>2022-12-21T15:52:52.343Z</time>
      </trkpt>
      <trkpt lat="45.89038" lon="-0.93394">
        <ele>46.041856</ele>
        <time>2022-12-21T15:52:57.348Z</time>
      </trkpt>
      <trkpt lat="45.89029" lon="-0.93386">
        <ele>45.883783</ele>
        <time>2022-12-21T15:53:03.338Z</time>
      </trkpt>
      <trkpt lat="45.89022" lon="-0.93396">
        <ele>45.729778</ele>
        <time>2022-12-21T15:53:08.340Z</time>
      </trkpt>
      <trkpt lat="45.89014" lon="-0.93407">
        <ele>45.572442</ele>
        <time>2022-12-21T15:53:12.345Z</time>
      </trkpt>
      <trkpt lat="45.89007" lon="-0.93417">
        <ele>45.426384</ele>
        <time>2022-12-21T15:53:15.359Z</time>
      </trkpt>
      <trkpt lat="45.89001" lon="-0.93429">
        <ele>45.271823</ele>
        <time>2022-12-21T15:53:18.341Z</time>
      </trkpt>
      <trkpt lat="45.88996" lon="-0.9344">
        <ele>45.124129</ele>
        <time>2022-12-21T15:53:21.355Z</time>
      </trkpt>
      <trkpt lat="45.88988" lon="-0.93453">
        <ele>44.956962</ele>
        <time>2022-12-21T15:53:25.337Z</time>
      </trkpt>
      <trkpt lat="45.88982" lon="-0.93463">
        <ele>44.814703</ele>
        <time>2022-12-21T15:53:28.343Z</time>
      </trkpt>
      <trkpt lat="45.88976" lon="-0.93476">
        <ele>44.65079</ele>
        <time>2022-12-21T15:53:31.337Z</time>
      </trkpt>
      <trkpt lat="45.8897" lon="-0.93488">
        <ele>44.520218</ele>
        <time>2022-12-21T15:53:34.342Z</time>
      </trkpt>
      <trkpt lat="45.88964" lon="-0.93499">
        <ele>44.394771</ele>
        <time>2022-12-21T15:53:37.339Z</time>
      </trkpt>
      <trkpt lat="45.88958" lon="-0.9351">
        <ele>44.272103</ele>
        <time>2022-12-21T15:53:40.337Z</time>
      </trkpt>
      <trkpt lat="45.88952" lon="-0.93521">
        <ele>44.14459</ele>
        <time>2022-12-21T15:53:43.335Z</time>
      </trkpt>
      <trkpt lat="45.88945" lon="-0.93531">
        <ele>44.018697</ele>
        <time>2022-12-21T15:53:46.332Z</time>
      </trkpt>
      <trkpt lat="45.88938" lon="-0.93542">
        <ele>43.894705</ele>
        <time>2022-12-21T15:53:49.337Z</time>
      </trkpt>
      <trkpt lat="45.88933" lon="-0.93552">
        <ele>43.775774</ele>
        <time>2022-12-21T15:53:52.336Z</time>
      </trkpt>
      <trkpt lat="45.88927" lon="-0.93564">
        <ele>43.649434</ele>
        <time>2022-12-21T15:53:55.341Z</time>
      </trkpt>
      <trkpt lat="45.88921" lon="-0.93576">
        <ele>43.520345</ele>
        <time>2022-12-21T15:53:58.338Z</time>
      </trkpt>
      <trkpt lat="45.88915" lon="-0.93588">
        <ele>43.388227</ele>
        <time>2022-12-21T15:54:01.349Z</time>
      </trkpt>
      <trkpt lat="45.88909" lon="-0.93599">
        <ele>43.263372</ele>
        <time>2022-12-21T15:54:04.339Z</time>
      </trkpt>
      <trkpt lat="45.88903" lon="-0.93611">
        <ele>43.127749</ele>
        <time>2022-12-21T15:54:07.340Z</time>
      </trkpt>
      <trkpt lat="45.88896" lon="-0.93622">
        <ele>42.992509</ele>
        <time>2022-12-21T15:54:10.341Z</time>
      </trkpt>
      <trkpt lat="45.88889" lon="-0.93635">
        <ele>42.853052</ele>
        <time>2022-12-21T15:54:13.332Z</time>
      </trkpt>
      <trkpt lat="45.88882" lon="-0.93647">
        <ele>42.712808</ele>
        <time>2022-12-21T15:54:16.336Z</time>
      </trkpt>
      <trkpt lat="45.88874" lon="-0.93661">
        <ele>42.556939</ele>
        <time>2022-12-21T15:54:19.349Z</time>
      </trkpt>
      <trkpt lat="45.88867" lon="-0.93671">
        <ele>42.430316</ele>
        <time>2022-12-21T15:54:22.337Z</time>
      </trkpt>
      <trkpt lat="45.8886" lon="-0.93683">
        <ele>42.338434</ele>
        <time>2022-12-21T15:54:26.342Z</time>
      </trkpt>
      <trkpt lat="45.88853" lon="-0.93693">
        <ele>42.31695</ele>
        <time>2022-12-21T15:54:29.333Z</time>
      </trkpt>
      <trkpt lat="45.88846" lon="-0.93703">
        <ele>42.294438</ele>
        <time>2022-12-21T15:54:32.329Z</time>
      </trkpt>
      <trkpt lat="45.88838" lon="-0.93712">
        <ele>42.271274</ele>
        <time>2022-12-21T15:54:35.357Z</time>
      </trkpt>
      <trkpt lat="45.88829" lon="-0.93725">
        <ele>42.242867</ele>
        <time>2022-12-21T15:54:39.335Z</time>
      </trkpt>
      <trkpt lat="45.88821" lon="-0.93734">
        <ele>42.218801</ele>
        <time>2022-12-21T15:54:42.340Z</time>
      </trkpt>
      <trkpt lat="45.88813" lon="-0.93744">
        <ele>42.193727</ele>
        <time>2022-12-21T15:54:45.347Z</time>
      </trkpt>
      <trkpt lat="45.88804" lon="-0.93754">
        <ele>42.168773</ele>
        <time>2022-12-21T15:54:48.346Z</time>
      </trkpt>
      <trkpt lat="45.88795" lon="-0.93763">
        <ele>42.144028</ele>
        <time>2022-12-21T15:54:51.368Z</time>
      </trkpt>
      <trkpt lat="45.88786" lon="-0.93773">
        <ele>42.117976</ele>
        <time>2022-12-21T15:54:54.351Z</time>
      </trkpt>
      <trkpt lat="45.88777" lon="-0.93782">
        <ele>42.092926</ele>
        <time>2022-12-21T15:54:57.344Z</time>
      </trkpt>
      <trkpt lat="45.88767" lon="-0.9379">
        <ele>42.066291</ele>
        <time>2022-12-21T15:55:00.352Z</time>
      </trkpt>
      <trkpt lat="45.88759" lon="-0.93797">
        <ele>42.045704</ele>
        <time>2022-12-21T15:55:03.343Z</time>
      </trkpt>
      <trkpt lat="45.88749" lon="-0.93806">
        <ele>42.019218</ele>
        <time>2022-12-21T15:55:07.344Z</time>
      </trkpt>
      <trkpt lat="45.8874" lon="-0.93816">
        <ele>41.992321</ele>
        <time>2022-12-21T15:55:11.353Z</time>
      </trkpt>
      <trkpt lat="45.88731" lon="-0.93825">
        <ele>41.966627</ele>
        <time>2022-12-21T15:55:15.338Z</time>
      </trkpt>
      <trkpt lat="45.88721" lon="-0.93835">
        <ele>41.940304</ele>
        <time>2022-12-21T15:55:19.338Z</time>
      </trkpt>
      <trkpt lat="45.88712" lon="-0.93845">
        <ele>41.962708</ele>
        <time>2022-12-21T15:55:23.339Z</time>
      </trkpt>
      <trkpt lat="45.88704" lon="-0.93852">
        <ele>41.980031</ele>
        <time>2022-12-21T15:55:26.339Z</time>
      </trkpt>
      <trkpt lat="45.88694" lon="-0.93862">
        <ele>42.002978</ele>
        <time>2022-12-21T15:55:30.334Z</time>
      </trkpt>
      <trkpt lat="45.88685" lon="-0.9387">
        <ele>42.02265</ele>
        <time>2022-12-21T15:55:33.333Z</time>
      </trkpt>
      <trkpt lat="45.88677" lon="-0.93877">
        <ele>42.041237</ele>
        <time>2022-12-21T15:55:36.351Z</time>
      </trkpt>
      <trkpt lat="45.88668" lon="-0.93886">
        <ele>42.060795</ele>
        <time>2022-12-21T15:55:39.333Z</time>
      </trkpt>
      <trkpt lat="45.8866" lon="-0.93894">
        <ele>42.080971</ele>
        <time>2022-12-21T15:55:42.341Z</time>
      </trkpt>
      <trkpt lat="45.8865" lon="-0.93904">
        <ele>42.103856</ele>
        <time>2022-12-21T15:55:45.357Z</time>
      </trkpt>
      <trkpt lat="45.8864" lon="-0.93913">
        <ele>42.126048</ele>
        <time>2022-12-21T15:55:48.335Z</time>
      </trkpt>
      <trkpt lat="45.88631" lon="-0.93921">
        <ele>42.145919</ele>
        <time>2022-12-21T15:55:51.335Z</time>
      </trkpt>
      <trkpt lat="45.88622" lon="-0.9393">
        <ele>42.166496</ele>
        <time>2022-12-21T15:55:54.348Z</time>
      </trkpt>
      <trkpt lat="45.88613" lon="-0.93939">
        <ele>42.187752</ele>
        <time>2022-12-21T15:55:57.339Z</time>
      </trkpt>
      <trkpt lat="45.88603" lon="-0.93947">
        <ele>42.20913</ele>
        <time>2022-12-21T15:56:00.345Z</time>
      </trkpt>
      <trkpt lat="45.88594" lon="-0.93956">
        <ele>42.230416</ele>
        <time>2022-12-21T15:56:03.337Z</time>
      </trkpt>
      <trkpt lat="45.88584" lon="-0.93964">
        <ele>42.250504</ele>
        <time>2022-12-21T15:56:06.354Z</time>
      </trkpt>
      <trkpt lat="45.88575" lon="-0.93973">
        <ele>42.271754</ele>
        <time>2022-12-21T15:56:09.343Z</time>
      </trkpt>
      <trkpt lat="45.88566" lon="-0.93982">
        <ele>42.308784</ele>
        <time>2022-12-21T15:56:12.341Z</time>
      </trkpt>
      <trkpt lat="45.88557" lon="-0.93991">
        <ele>42.352088</ele>
        <time>2022-12-21T15:56:15.350Z</time>
      </trkpt>
      <trkpt lat="45.88548" lon="-0.93999">
        <ele>42.396058</ele>
        <time>2022-12-21T15:56:18.342Z</time>
      </trkpt>
      <trkpt lat="45.88539" lon="-0.94008">
        <ele>42.440189</ele>
        <time>2022-12-21T15:56:21.355Z</time>
      </trkpt>
      <trkpt lat="45.8853" lon="-0.94016">
        <ele>42.485701</ele>
        <time>2022-12-21T15:56:24.357Z</time>
      </trkpt>
      <trkpt lat="45.88522" lon="-0.94024">
        <ele>42.526864</ele>
        <time>2022-12-21T15:56:27.352Z</time>
      </trkpt>
      <trkpt lat="45.88514" lon="-0.94032">
        <ele>42.565087</ele>
        <time>2022-12-21T15:56:30.344Z</time>
      </trkpt>
      <trkpt lat="45.88506" lon="-0.94038">
        <ele>42.604564</ele>
        <time>2022-12-21T15:56:33.358Z</time>
      </trkpt>
      <trkpt lat="45.88498" lon="-0.94046">
        <ele>42.645146</ele>
        <time>2022-12-21T15:56:36.354Z</time>
      </trkpt>
      <trkpt lat="45.88489" lon="-0.94054">
        <ele>42.687013</ele>
        <time>2022-12-21T15:56:39.353Z</time>
      </trkpt>
      <trkpt lat="45.88481" lon="-0.94061">
        <ele>42.727928</ele>
        <time>2022-12-21T15:56:42.338Z</time>
      </trkpt>
      <trkpt lat="45.88472" lon="-0.9407">
        <ele>42.770866</ele>
        <time>2022-12-21T15:56:45.358Z</time>
      </trkpt>
      <trkpt lat="45.88464" lon="-0.94078">
        <ele>42.811645</ele>
        <time>2022-12-21T15:56:48.357Z</time>
      </trkpt>
      <trkpt lat="45.88455" lon="-0.94086">
        <ele>42.855615</ele>
        <time>2022-12-21T15:56:51.365Z</time>
      </trkpt>
      <trkpt lat="45.88447" lon="-0.94094">
        <ele>42.895225</ele>
        <time>2022-12-21T15:56:54.360Z</time>
      </trkpt>
      <trkpt lat="45.88438" lon="-0.94103">
        <ele>42.944273</ele>
        <time>2022-12-21T15:56:58.356Z</time>
      </trkpt>
      <trkpt lat="45.8843" lon="-0.9411">
        <ele>42.982255</ele>
        <time>2022-12-21T15:57:01.357Z</time>
      </trkpt>
      <trkpt lat="45.88422" lon="-0.94117">
        <ele>43.021659</ele>
        <time>2022-12-21T15:57:04.356Z</time>
      </trkpt>
      <trkpt lat="45.88413" lon="-0.94124">
        <ele>43.032658</ele>
        <time>2022-12-21T15:57:07.334Z</time>
      </trkpt>
      <trkpt lat="45.88404" lon="-0.94132">
        <ele>43.03928</ele>
        <time>2022-12-21T15:57:10.357Z</time>
      </trkpt>
      <trkpt lat="45.88396" lon="-0.94141">
        <ele>43.045779</ele>
        <time>2022-12-21T15:57:13.352Z</time>
      </trkpt>
      <trkpt lat="45.88387" lon="-0.9415">
        <ele>43.052911</ele>
        <time>2022-12-21T15:57:16.356Z</time>
      </trkpt>
      <trkpt lat="45.88378" lon="-0.94159">
        <ele>43.060201</ele>
        <time>2022-12-21T15:57:19.341Z</time>
      </trkpt>
      <trkpt lat="45.88369" lon="-0.94168">
        <ele>43.067364</ele>
        <time>2022-12-21T15:57:22.347Z</time>
      </trkpt>
      <trkpt lat="45.88361" lon="-0.94175">
        <ele>43.073749</ele>
        <time>2022-12-21T15:57:25.358Z</time>
      </trkpt>
      <trkpt lat="45.88352" lon="-0.94183">
        <ele>43.080522</ele>
        <time>2022-12-21T15:57:28.328Z</time>
      </trkpt>
      <trkpt lat="45.88343" lon="-0.94192">
        <ele>43.087761</ele>
        <time>2022-12-21T15:57:31.346Z</time>
      </trkpt>
      <trkpt lat="45.88334" lon="-0.942">
        <ele>43.094487</ele>
        <time>2022-12-21T15:57:34.336Z</time>
      </trkpt>
      <trkpt lat="45.88325" lon="-0.94207">
        <ele>43.100825</ele>
        <time>2022-12-21T15:57:37.333Z</time>
      </trkpt>
      <trkpt lat="45.88318" lon="-0.94214">
        <ele>43.106831</ele>
        <time>2022-12-21T15:57:40.348Z</time>
      </trkpt>
      <trkpt lat="45.8831" lon="-0.94223">
        <ele>43.11336</ele>
        <time>2022-12-21T15:57:44.357Z</time>
      </trkpt>
      <trkpt lat="45.88302" lon="-0.94231">
        <ele>43.119707</ele>
        <time>2022-12-21T15:57:48.338Z</time>
      </trkpt>
      <trkpt lat="45.88293" lon="-0.94239">
        <ele>43.126681</ele>
        <time>2022-12-21T15:57:52.336Z</time>
      </trkpt>
      <trkpt lat="45.88283" lon="-0.94248">
        <ele>43.134028</ele>
        <time>2022-12-21T15:57:56.339Z</time>
      </trkpt>
      <trkpt lat="45.88276" lon="-0.94255">
        <ele>43.139954</ele>
        <time>2022-12-21T15:57:59.330Z</time>
      </trkpt>
      <trkpt lat="45.88267" lon="-0.94263">
        <ele>43.145895</ele>
        <time>2022-12-21T15:58:02.337Z</time>
      </trkpt>
      <trkpt lat="45.8826" lon="-0.94271">
        <ele>43.15108</ele>
        <time>2022-12-21T15:58:05.333Z</time>
      </trkpt>
      <trkpt lat="45.88251" lon="-0.94279">
        <ele>43.156731</ele>
        <time>2022-12-21T15:58:08.328Z</time>
      </trkpt>
      <trkpt lat="45.88242" lon="-0.94287">
        <ele>43.162424</ele>
        <time>2022-12-21T15:58:11.334Z</time>
      </trkpt>
      <trkpt lat="45.88233" lon="-0.94296">
        <ele>43.168535</ele>
        <time>2022-12-21T15:58:14.358Z</time>
      </trkpt>
      <trkpt lat="45.88224" lon="-0.94305">
        <ele>43.174602</ele>
        <time>2022-12-21T15:58:17.335Z</time>
      </trkpt>
      <trkpt lat="45.88215" lon="-0.94314">
        <ele>43.180602</ele>
        <time>2022-12-21T15:58:20.329Z</time>
      </trkpt>
      <trkpt lat="45.88205" lon="-0.94323">
        <ele>43.186477</ele>
        <time>2022-12-21T15:58:23.329Z</time>
      </trkpt>
      <trkpt lat="45.88196" lon="-0.94331">
        <ele>43.192438</ele>
        <time>2022-12-21T15:58:26.337Z</time>
      </trkpt>
      <trkpt lat="45.88187" lon="-0.94339">
        <ele>43.198206</ele>
        <time>2022-12-21T15:58:29.331Z</time>
      </trkpt>
      <trkpt lat="45.88178" lon="-0.94349">
        <ele>43.204227</ele>
        <time>2022-12-21T15:58:32.337Z</time>
      </trkpt>
      <trkpt lat="45.8817" lon="-0.94356">
        <ele>43.209329</ele>
        <time>2022-12-21T15:58:35.335Z</time>
      </trkpt>
      <trkpt lat="45.88161" lon="-0.94364">
        <ele>43.215071</ele>
        <time>2022-12-21T15:58:38.332Z</time>
      </trkpt>
      <trkpt lat="45.88153" lon="-0.94372">
        <ele>43.220773</ele>
        <time>2022-12-21T15:58:41.335Z</time>
      </trkpt>
      <trkpt lat="45.88143" lon="-0.94381">
        <ele>43.226951</ele>
        <time>2022-12-21T15:58:44.338Z</time>
      </trkpt>
      <trkpt lat="45.88135" lon="-0.94389">
        <ele>43.232334</ele>
        <time>2022-12-21T15:58:47.334Z</time>
      </trkpt>
      <trkpt lat="45.88127" lon="-0.94396">
        <ele>43.237329</ele>
        <time>2022-12-21T15:58:50.345Z</time>
      </trkpt>
      <trkpt lat="45.88118" lon="-0.94404">
        <ele>43.228707</ele>
        <time>2022-12-21T15:58:53.326Z</time>
      </trkpt>
      <trkpt lat="45.8811" lon="-0.94413">
        <ele>43.172649</ele>
        <time>2022-12-21T15:58:56.331Z</time>
      </trkpt>
      <trkpt lat="45.88101" lon="-0.94421">
        <ele>43.120633</ele>
        <time>2022-12-21T15:58:59.346Z</time>
      </trkpt>
      <trkpt lat="45.88092" lon="-0.9443">
        <ele>43.063428</ele>
        <time>2022-12-21T15:59:02.342Z</time>
      </trkpt>
      <trkpt lat="45.88083" lon="-0.94438">
        <ele>43.006224</ele>
        <time>2022-12-21T15:59:05.338Z</time>
      </trkpt>
      <trkpt lat="45.88074" lon="-0.94446">
        <ele>42.951769</ele>
        <time>2022-12-21T15:59:08.334Z</time>
      </trkpt>
      <trkpt lat="45.88065" lon="-0.94454">
        <ele>42.89635</ele>
        <time>2022-12-21T15:59:11.351Z</time>
      </trkpt>
      <trkpt lat="45.88056" lon="-0.94463">
        <ele>42.838987</ele>
        <time>2022-12-21T15:59:14.340Z</time>
      </trkpt>
      <trkpt lat="45.88048" lon="-0.94472">
        <ele>42.784639</ele>
        <time>2022-12-21T15:59:17.351Z</time>
      </trkpt>
      <trkpt lat="45.88039" lon="-0.94479">
        <ele>42.730822</ele>
        <time>2022-12-21T15:59:21.357Z</time>
      </trkpt>
      <trkpt lat="45.8803" lon="-0.94488">
        <ele>42.67356</ele>
        <time>2022-12-21T15:59:25.347Z</time>
      </trkpt>
      <trkpt lat="45.88022" lon="-0.94495">
        <ele>42.623574</ele>
        <time>2022-12-21T15:59:28.339Z</time>
      </trkpt>
      <trkpt lat="45.88013" lon="-0.94503">
        <ele>42.567926</ele>
        <time>2022-12-21T15:59:31.349Z</time>
      </trkpt>
      <trkpt lat="45.88004" lon="-0.94512">
        <ele>42.511868</ele>
        <time>2022-12-21T15:59:34.342Z</time>
      </trkpt>
      <trkpt lat="45.87995" lon="-0.9452">
        <ele>42.456709</ele>
        <time>2022-12-21T15:59:37.341Z</time>
      </trkpt>
      <trkpt lat="45.87986" lon="-0.94528">
        <ele>42.398422</ele>
        <time>2022-12-21T15:59:40.339Z</time>
      </trkpt>
      <trkpt lat="45.87976" lon="-0.94537">
        <ele>42.339373</ele>
        <time>2022-12-21T15:59:43.354Z</time>
      </trkpt>
      <trkpt lat="45.87968" lon="-0.94545">
        <ele>42.301615</ele>
        <time>2022-12-21T15:59:46.342Z</time>
      </trkpt>
      <trkpt lat="45.8796" lon="-0.94552">
        <ele>42.318649</ele>
        <time>2022-12-21T15:59:49.341Z</time>
      </trkpt>
      <trkpt lat="45.87951" lon="-0.94561">
        <ele>42.336415</ele>
        <time>2022-12-21T15:59:52.355Z</time>
      </trkpt>
      <trkpt lat="45.87943" lon="-0.94568">
        <ele>42.354178</ele>
        <time>2022-12-21T15:59:55.353Z</time>
      </trkpt>
      <trkpt lat="45.87927" lon="-0.94582">
        <ele>42.386312</ele>
        <time>2022-12-21T16:00:23.343Z</time>
      </trkpt>
      <trkpt lat="45.87919" lon="-0.94591">
        <ele>42.403866</ele>
        <time>2022-12-21T16:00:27.354Z</time>
      </trkpt>
      <trkpt lat="45.8791" lon="-0.94601">
        <ele>42.424199</ele>
        <time>2022-12-21T16:00:31.356Z</time>
      </trkpt>
      <trkpt lat="45.879" lon="-0.9461">
        <ele>42.444889</ele>
        <time>2022-12-21T16:00:35.355Z</time>
      </trkpt>
      <trkpt lat="45.87892" lon="-0.94619">
        <ele>42.461869</ele>
        <time>2022-12-21T16:00:38.343Z</time>
      </trkpt>
      <trkpt lat="45.87885" lon="-0.94628">
        <ele>42.479507</ele>
        <time>2022-12-21T16:00:41.350Z</time>
      </trkpt>
      <trkpt lat="45.87878" lon="-0.94636">
        <ele>42.495929</ele>
        <time>2022-12-21T16:00:44.356Z</time>
      </trkpt>
      <trkpt lat="45.8787" lon="-0.94646">
        <ele>42.514134</ele>
        <time>2022-12-21T16:00:47.356Z</time>
      </trkpt>
      <trkpt lat="45.87862" lon="-0.94656">
        <ele>42.532406</ele>
        <time>2022-12-21T16:00:50.338Z</time>
      </trkpt>
      <trkpt lat="45.87854" lon="-0.94667">
        <ele>42.550937</ele>
        <time>2022-12-21T16:00:53.344Z</time>
      </trkpt>
      <trkpt lat="45.87847" lon="-0.94677">
        <ele>42.568927</ele>
        <time>2022-12-21T16:00:56.334Z</time>
      </trkpt>
      <trkpt lat="45.8784" lon="-0.94688">
        <ele>42.587094</ele>
        <time>2022-12-21T16:00:59.336Z</time>
      </trkpt>
      <trkpt lat="45.87833" lon="-0.94698">
        <ele>42.604245</ele>
        <time>2022-12-21T16:01:02.334Z</time>
      </trkpt>
      <trkpt lat="45.87827" lon="-0.9471">
        <ele>42.889122</ele>
        <time>2022-12-21T16:01:06.353Z</time>
      </trkpt>
      <trkpt lat="45.87822" lon="-0.94723">
        <ele>43.395279</ele>
        <time>2022-12-21T16:01:11.365Z</time>
      </trkpt>
      <trkpt lat="45.87814" lon="-0.94732">
        <ele>43.910558</ele>
        <time>2022-12-21T16:01:19.338Z</time>
      </trkpt>
      <trkpt lat="45.8781" lon="-0.94716">
        <ele>44.508756</ele>
        <time>2022-12-21T16:02:06.346Z</time>
      </trkpt>
      <trkpt lat="45.87811" lon="-0.94702">
        <ele>45.020413</ele>
        <time>2022-12-21T16:02:10.335Z</time>
      </trkpt>
      <trkpt lat="45.87812" lon="-0.94687">
        <ele>45.554675</ele>
        <time>2022-12-21T16:02:15.346Z</time>
      </trkpt>
      <trkpt lat="45.87813" lon="-0.94673">
        <ele>46.065063</ele>
        <time>2022-12-21T16:02:20.338Z</time>
      </trkpt>
      <trkpt lat="45.87816" lon="-0.9466">
        <ele>46.565055</ele>
        <time>2022-12-21T16:02:25.345Z</time>
      </trkpt>
      <trkpt lat="45.87819" lon="-0.94647">
        <ele>47.077348</ele>
        <time>2022-12-21T16:02:30.348Z</time>
      </trkpt>
      <trkpt lat="45.87821" lon="-0.94633">
        <ele>47.590256</ele>
        <time>2022-12-21T16:02:35.350Z</time>
      </trkpt>
      <trkpt lat="45.87817" lon="-0.94618">
        <ele>48.157773</ele>
        <time>2022-12-21T16:02:40.352Z</time>
      </trkpt>
      <trkpt lat="45.87811" lon="-0.94607">
        <ele>48.653293</ele>
        <time>2022-12-21T16:02:45.349Z</time>
      </trkpt>
      <trkpt lat="45.87804" lon="-0.94597">
        <ele>49.186972</ele>
        <time>2022-12-21T16:02:51.345Z</time>
      </trkpt>
      <trkpt lat="45.87796" lon="-0.94588">
        <ele>49.737239</ele>
        <time>2022-12-21T16:02:57.350Z</time>
      </trkpt>
      <trkpt lat="45.87787" lon="-0.9458">
        <ele>50.24815</ele>
        <time>2022-12-21T16:03:02.334Z</time>
      </trkpt>
      <trkpt lat="45.87778" lon="-0.94574">
        <ele>50.775672</ele>
        <time>2022-12-21T16:03:08.357Z</time>
      </trkpt>
      <trkpt lat="45.8777" lon="-0.94568">
        <ele>51.269056</ele>
        <time>2022-12-21T16:03:13.346Z</time>
      </trkpt>
      <trkpt lat="45.87759" lon="-0.94566">
        <ele>51.800431</ele>
        <time>2022-12-21T16:03:18.341Z</time>
      </trkpt>
      <trkpt lat="45.8775" lon="-0.94569">
        <ele>51.912472</ele>
        <time>2022-12-21T16:03:22.346Z</time>
      </trkpt>
      <trkpt lat="45.87743" lon="-0.94583">
        <ele>51.848833</ele>
        <time>2022-12-21T16:03:26.340Z</time>
      </trkpt>
      <trkpt lat="45.87738" lon="-0.94595">
        <ele>51.796622</ele>
        <time>2022-12-21T16:03:29.361Z</time>
      </trkpt>
      <trkpt lat="45.87735" lon="-0.94607">
        <ele>51.74715</ele>
        <time>2022-12-21T16:03:32.336Z</time>
      </trkpt>
      <trkpt lat="45.87729" lon="-0.94621">
        <ele>51.689437</ele>
        <time>2022-12-21T16:03:36.352Z</time>
      </trkpt>
      <trkpt lat="45.87722" lon="-0.94633">
        <ele>51.630868</ele>
        <time>2022-12-21T16:03:40.362Z</time>
      </trkpt>
      <trkpt lat="45.87716" lon="-0.94646">
        <ele>51.571061</ele>
        <time>2022-12-21T16:03:44.362Z</time>
      </trkpt>
      <trkpt lat="45.87711" lon="-0.94658">
        <ele>51.518855</ele>
        <time>2022-12-21T16:03:47.341Z</time>
      </trkpt>
      <trkpt lat="45.87702" lon="-0.94668">
        <ele>51.458442</ele>
        <time>2022-12-21T16:03:51.343Z</time>
      </trkpt>
      <trkpt lat="45.87691" lon="-0.94667">
        <ele>51.398029</ele>
        <time>2022-12-21T16:03:55.341Z</time>
      </trkpt>
      <trkpt lat="45.8768" lon="-0.94659">
        <ele>51.336319</ele>
        <time>2022-12-21T16:03:59.338Z</time>
      </trkpt>
      <trkpt lat="45.87673" lon="-0.94652">
        <ele>51.287304</ele>
        <time>2022-12-21T16:04:03.343Z</time>
      </trkpt>
      <trkpt lat="45.87662" lon="-0.94648">
        <ele>51.22982</ele>
        <time>2022-12-21T16:04:07.337Z</time>
      </trkpt>
      <trkpt lat="45.87651" lon="-0.94642">
        <ele>51.168373</ele>
        <time>2022-12-21T16:04:11.355Z</time>
      </trkpt>
      <trkpt lat="45.8764" lon="-0.94638">
        <ele>51.105268</ele>
        <time>2022-12-21T16:04:15.337Z</time>
      </trkpt>
      <trkpt lat="45.87631" lon="-0.94634">
        <ele>51.055787</ele>
        <time>2022-12-21T16:04:18.337Z</time>
      </trkpt>
      <trkpt lat="45.87621" lon="-0.94629">
        <ele>50.998303</ele>
        <time>2022-12-21T16:04:22.363Z</time>
      </trkpt>
      <trkpt lat="45.87611" lon="-0.94624">
        <ele>51.109378</ele>
        <time>2022-12-21T16:04:26.337Z</time>
      </trkpt>
      <trkpt lat="45.87601" lon="-0.9462">
        <ele>51.231485</ele>
        <time>2022-12-21T16:04:29.365Z</time>
      </trkpt>
      <trkpt lat="45.87592" lon="-0.94615">
        <ele>51.36336</ele>
        <time>2022-12-21T16:04:33.340Z</time>
      </trkpt>
      <trkpt lat="45.87582" lon="-0.94611">
        <ele>51.490811</ele>
        <time>2022-12-21T16:04:37.365Z</time>
      </trkpt>
      <trkpt lat="45.87572" lon="-0.94606">
        <ele>51.625482</ele>
        <time>2022-12-21T16:04:41.354Z</time>
      </trkpt>
      <trkpt lat="45.87562" lon="-0.94603">
        <ele>51.747406</ele>
        <time>2022-12-21T16:04:46.361Z</time>
      </trkpt>
      <trkpt lat="45.87555" lon="-0.94593">
        <ele>51.869878</ele>
        <time>2022-12-21T16:04:50.362Z</time>
      </trkpt>
      <trkpt lat="45.87547" lon="-0.94582">
        <ele>52.0133</ele>
        <time>2022-12-21T16:04:54.352Z</time>
      </trkpt>
      <trkpt lat="45.8754" lon="-0.94571">
        <ele>52.151121</ele>
        <time>2022-12-21T16:04:58.363Z</time>
      </trkpt>
      <trkpt lat="45.87532" lon="-0.94559">
        <ele>52.291954</ele>
        <time>2022-12-21T16:05:02.343Z</time>
      </trkpt>
      <trkpt lat="45.87524" lon="-0.94546">
        <ele>52.443145</ele>
        <time>2022-12-21T16:05:06.345Z</time>
      </trkpt>
      <trkpt lat="45.87517" lon="-0.94536">
        <ele>52.57323</ele>
        <time>2022-12-21T16:05:09.363Z</time>
      </trkpt>
      <trkpt lat="45.87511" lon="-0.94525">
        <ele>52.696231</ele>
        <time>2022-12-21T16:05:12.339Z</time>
      </trkpt>
      <trkpt lat="45.87505" lon="-0.94514">
        <ele>52.819117</ele>
        <time>2022-12-21T16:05:15.360Z</time>
      </trkpt>
      <trkpt lat="45.87498" lon="-0.94503">
        <ele>52.949539</ele>
        <time>2022-12-21T16:05:18.358Z</time>
      </trkpt>
      <trkpt lat="45.87492" lon="-0.94492">
        <ele>53.070264</ele>
        <time>2022-12-21T16:05:21.342Z</time>
      </trkpt>
      <trkpt lat="45.87485" lon="-0.94481">
        <ele>53.196375</ele>
        <time>2022-12-21T16:05:24.336Z</time>
      </trkpt>
      <trkpt lat="45.87479" lon="-0.9447">
        <ele>53.332584</ele>
        <time>2022-12-21T16:05:27.342Z</time>
      </trkpt>
      <trkpt lat="45.87472" lon="-0.94457">
        <ele>53.475378</ele>
        <time>2022-12-21T16:05:30.338Z</time>
      </trkpt>
      <trkpt lat="45.87466" lon="-0.94444">
        <ele>53.624267</ele>
        <time>2022-12-21T16:05:33.339Z</time>
      </trkpt>
      <trkpt lat="45.8746" lon="-0.94432">
        <ele>53.769331</ele>
        <time>2022-12-21T16:05:36.348Z</time>
      </trkpt>
      <trkpt lat="45.87454" lon="-0.94419">
        <ele>53.90682</ele>
        <time>2022-12-21T16:05:39.338Z</time>
      </trkpt>
      <trkpt lat="45.87446" lon="-0.94407">
        <ele>54.06331</ele>
        <time>2022-12-21T16:05:43.352Z</time>
      </trkpt>
      <trkpt lat="45.87441" lon="-0.94397">
        <ele>54.184569</ele>
        <time>2022-12-21T16:05:46.341Z</time>
      </trkpt>
      <trkpt lat="45.87435" lon="-0.94384">
        <ele>54.323486</ele>
        <time>2022-12-21T16:05:49.357Z</time>
      </trkpt>
      <trkpt lat="45.87428" lon="-0.94371">
        <ele>54.477745</ele>
        <time>2022-12-21T16:05:52.334Z</time>
      </trkpt>
      <trkpt lat="45.87421" lon="-0.94357">
        <ele>54.63842</ele>
        <time>2022-12-21T16:05:55.343Z</time>
      </trkpt>
      <trkpt lat="45.87414" lon="-0.94344">
        <ele>54.799008</ele>
        <time>2022-12-21T16:05:58.356Z</time>
      </trkpt>
      <trkpt lat="45.87406" lon="-0.94331">
        <ele>54.95689</ele>
        <time>2022-12-21T16:06:01.336Z</time>
      </trkpt>
      <trkpt lat="45.874" lon="-0.94319">
        <ele>55.093731</ele>
        <time>2022-12-21T16:06:04.348Z</time>
      </trkpt>
      <trkpt lat="45.87393" lon="-0.94307">
        <ele>55.243455</ele>
        <time>2022-12-21T16:06:08.348Z</time>
      </trkpt>
      <trkpt lat="45.87386" lon="-0.94295">
        <ele>55.39016</ele>
        <time>2022-12-21T16:06:12.338Z</time>
      </trkpt>
      <trkpt lat="45.87378" lon="-0.94283">
        <ele>55.544148</ele>
        <time>2022-12-21T16:06:16.345Z</time>
      </trkpt>
      <trkpt lat="45.8737" lon="-0.9427">
        <ele>55.677161</ele>
        <time>2022-12-21T16:06:20.345Z</time>
      </trkpt>
      <trkpt lat="45.8736" lon="-0.94264">
        <ele>55.677161</ele>
        <time>2022-12-21T16:06:24.332Z</time>
      </trkpt>
      <trkpt lat="45.87351" lon="-0.94273">
        <ele>55.677161</ele>
        <time>2022-12-21T16:06:28.350Z</time>
      </trkpt>
      <trkpt lat="45.87344" lon="-0.94283">
        <ele>55.677161</ele>
        <time>2022-12-21T16:06:31.341Z</time>
      </trkpt>
      <trkpt lat="45.87337" lon="-0.94292">
        <ele>55.677161</ele>
        <time>2022-12-21T16:06:34.346Z</time>
      </trkpt>
      <trkpt lat="45.8733" lon="-0.94301">
        <ele>55.677161</ele>
        <time>2022-12-21T16:06:37.337Z</time>
      </trkpt>
      <trkpt lat="45.8732" lon="-0.9431">
        <ele>55.677161</ele>
        <time>2022-12-21T16:06:41.345Z</time>
      </trkpt>
      <trkpt lat="45.87311" lon="-0.94314">
        <ele>55.677161</ele>
        <time>2022-12-21T16:06:46.342Z</time>
      </trkpt>
      <trkpt lat="45.87299" lon="-0.94297">
        <ele>55.677161</ele>
        <time>2022-12-21T16:08:22.367Z</time>
      </trkpt>
      <trkpt lat="45.87292" lon="-0.94287">
        <ele>55.677161</ele>
        <time>2022-12-21T16:08:26.345Z</time>
      </trkpt>
      <trkpt lat="45.87284" lon="-0.94275">
        <ele>55.677161</ele>
        <time>2022-12-21T16:08:30.337Z</time>
      </trkpt>
      <trkpt lat="45.87277" lon="-0.94265">
        <ele>55.677161</ele>
        <time>2022-12-21T16:08:33.343Z</time>
      </trkpt>
      <trkpt lat="45.8727" lon="-0.94257">
        <ele>55.677161</ele>
        <time>2022-12-21T16:08:36.337Z</time>
      </trkpt>
      <trkpt lat="45.87263" lon="-0.94248">
        <ele>55.677161</ele>
        <time>2022-12-21T16:08:39.350Z</time>
      </trkpt>
      <trkpt lat="45.87255" lon="-0.94238">
        <ele>55.677161</ele>
        <time>2022-12-21T16:08:43.362Z</time>
      </trkpt>
      <trkpt lat="45.87246" lon="-0.94229">
        <ele>55.677161</ele>
        <time>2022-12-21T16:08:47.338Z</time>
      </trkpt>
      <trkpt lat="45.87237" lon="-0.9422">
        <ele>55.677161</ele>
        <time>2022-12-21T16:08:52.348Z</time>
      </trkpt>
      <trkpt lat="45.8723" lon="-0.94211">
        <ele>55.677161</ele>
        <time>2022-12-21T16:08:56.338Z</time>
      </trkpt>
      <trkpt lat="45.87221" lon="-0.94203">
        <ele>55.677161</ele>
        <time>2022-12-21T16:09:01.345Z</time>
      </trkpt>
      <trkpt lat="45.87212" lon="-0.942">
        <ele>55.677161</ele>
        <time>2022-12-21T16:09:10.331Z</time>
      </trkpt>
      <trkpt lat="45.87206" lon="-0.94204">
        <ele>55.677161</ele>
        <time>2022-12-21T16:09:38.180Z</time>
        <extensions>
          <visugpx:TrkExtension xmlns:visugpx="https://www.visugpx.com/editgpx/">
            <visugpx:node>1</visugpx:node>
            </visugpx:TrkExtension>
        </extensions>
      </trkpt>
    </trkseg>
  </trk>
  <trk>
    <name><![CDATA[St-Agnant - St-Vivien du Médoc]]></name>
    <extensions>
      <line xmlns="http://www.topografix.com/GPX/gpx_style/0/2">
        <color>0000FF</color>
        <width>4</width>
      </line>
    </extensions>
    <trkseg>
      <trkpt lat="45.87187" lon="-0.94224">
        <ele>62.621389</ele>
        <time>2022-12-22T09:40:56.211Z</time>
      </trkpt>
      <trkpt lat="45.87194" lon="-0.94215">
        <ele>62.621389</ele>
        <time>2022-12-22T09:42:58.652Z</time>
      </trkpt>
      <trkpt lat="45.87202" lon="-0.94209">
        <ele>62.621389</ele>
        <time>2022-12-22T09:43:08.541Z</time>
      </trkpt>
      <trkpt lat="45.8721" lon="-0.94203">
        <ele>62.621389</ele>
        <time>2022-12-22T09:43:18.555Z</time>
      </trkpt>
      <trkpt lat="45.87208" lon="-0.94185">
        <ele>62.621389</ele>
        <time>2022-12-22T09:44:08.546Z</time>
      </trkpt>
      <trkpt lat="45.87202" lon="-0.94175">
        <ele>62.621389</ele>
        <time>2022-12-22T09:44:13.561Z</time>
      </trkpt>
      <trkpt lat="45.87195" lon="-0.94166">
        <ele>62.621389</ele>
        <time>2022-12-22T09:44:17.546Z</time>
      </trkpt>
      <trkpt lat="45.87188" lon="-0.94156">
        <ele>62.621389</ele>
        <time>2022-12-22T09:44:21.556Z</time>
      </trkpt>
      <trkpt lat="45.87182" lon="-0.94147">
        <ele>62.621389</ele>
        <time>2022-12-22T09:44:25.573Z</time>
      </trkpt>
      <trkpt lat="45.87174" lon="-0.94137">
        <ele>62.621389</ele>
        <time>2022-12-22T09:44:30.558Z</time>
      </trkpt>
      <trkpt lat="45.87167" lon="-0.94125">
        <ele>62.449106</ele>
        <time>2022-12-22T09:44:36.569Z</time>
      </trkpt>
      <trkpt lat="45.87161" lon="-0.94115">
        <ele>62.265654</ele>
        <time>2022-12-22T09:44:41.566Z</time>
      </trkpt>
      <trkpt lat="45.87153" lon="-0.94106">
        <ele>62.068803</ele>
        <time>2022-12-22T09:44:46.564Z</time>
      </trkpt>
      <trkpt lat="45.87146" lon="-0.94098">
        <ele>61.892961</ele>
        <time>2022-12-22T09:44:54.553Z</time>
      </trkpt>
      <trkpt lat="45.87139" lon="-0.94111">
        <ele>61.676481</ele>
        <time>2022-12-22T09:45:00.561Z</time>
      </trkpt>
      <trkpt lat="45.87138" lon="-0.94126">
        <ele>61.481103</ele>
        <time>2022-12-22T09:45:03.564Z</time>
      </trkpt>
      <trkpt lat="45.87137" lon="-0.94141">
        <ele>61.266293</ele>
        <time>2022-12-22T09:45:06.555Z</time>
      </trkpt>
      <trkpt lat="45.87135" lon="-0.94158">
        <ele>61.035953</ele>
        <time>2022-12-22T09:45:09.561Z</time>
      </trkpt>
      <trkpt lat="45.87133" lon="-0.94175">
        <ele>60.809133</ele>
        <time>2022-12-22T09:45:12.564Z</time>
      </trkpt>
      <trkpt lat="45.87133" lon="-0.94191">
        <ele>60.588162</ele>
        <time>2022-12-22T09:45:15.543Z</time>
      </trkpt>
      <trkpt lat="45.87134" lon="-0.94208">
        <ele>60.369331</ele>
        <time>2022-12-22T09:45:18.568Z</time>
      </trkpt>
      <trkpt lat="45.87135" lon="-0.94223">
        <ele>60.156566</ele>
        <time>2022-12-22T09:45:21.540Z</time>
      </trkpt>
      <trkpt lat="45.87138" lon="-0.94238">
        <ele>59.951624</ele>
        <time>2022-12-22T09:45:24.562Z</time>
      </trkpt>
      <trkpt lat="45.8714" lon="-0.94253">
        <ele>59.752731</ele>
        <time>2022-12-22T09:45:27.546Z</time>
      </trkpt>
      <trkpt lat="45.8714" lon="-0.94267">
        <ele>59.560078</ele>
        <time>2022-12-22T09:45:30.564Z</time>
      </trkpt>
      <trkpt lat="45.87141" lon="-0.94281">
        <ele>59.364738</ele>
        <time>2022-12-22T09:45:33.560Z</time>
      </trkpt>
      <trkpt lat="45.8714" lon="-0.94296">
        <ele>59.165562</ele>
        <time>2022-12-22T09:45:36.561Z</time>
      </trkpt>
      <trkpt lat="45.8714" lon="-0.94311">
        <ele>59.037466</ele>
        <time>2022-12-22T09:45:39.538Z</time>
      </trkpt>
      <trkpt lat="45.87139" lon="-0.94327">
        <ele>58.91253</ele>
        <time>2022-12-22T09:45:42.564Z</time>
      </trkpt>
      <trkpt lat="45.87139" lon="-0.94343">
        <ele>58.780616</ele>
        <time>2022-12-22T09:45:45.540Z</time>
      </trkpt>
      <trkpt lat="45.87139" lon="-0.9436">
        <ele>58.643052</ele>
        <time>2022-12-22T09:45:48.551Z</time>
      </trkpt>
      <trkpt lat="45.8714" lon="-0.94378">
        <ele>58.496369</ele>
        <time>2022-12-22T09:45:51.552Z</time>
      </trkpt>
      <trkpt lat="45.87145" lon="-0.94437">
        <ele>58.017868</ele>
        <time>2022-12-22T09:46:01.984Z</time>
      </trkpt>
      <trkpt lat="45.87148" lon="-0.94457">
        <ele>57.856451</ele>
        <time>2022-12-22T09:46:04.210Z</time>
      </trkpt>
      <trkpt lat="45.87153" lon="-0.94474">
        <ele>57.712742</ele>
        <time>2022-12-22T09:46:07.200Z</time>
      </trkpt>
      <trkpt lat="45.87155" lon="-0.9449">
        <ele>57.580337</ele>
        <time>2022-12-22T09:46:10.542Z</time>
      </trkpt>
      <trkpt lat="45.87157" lon="-0.94504">
        <ele>57.460456</ele>
        <time>2022-12-22T09:46:14.127Z</time>
      </trkpt>
      <trkpt lat="45.87159" lon="-0.94518">
        <ele>57.346147</ele>
        <time>2022-12-22T09:46:16.533Z</time>
      </trkpt>
      <trkpt lat="45.87161" lon="-0.94531">
        <ele>57.240596</ele>
        <time>2022-12-22T09:46:19.578Z</time>
      </trkpt>
      <trkpt lat="45.87164" lon="-0.94543">
        <ele>57.136093</ele>
        <time>2022-12-22T09:46:22.566Z</time>
      </trkpt>
      <trkpt lat="45.87167" lon="-0.9456">
        <ele>57.114593</ele>
        <time>2022-12-22T09:46:26.546Z</time>
      </trkpt>
      <trkpt lat="45.8717" lon="-0.94575">
        <ele>57.201392</ele>
        <time>2022-12-22T09:46:30.554Z</time>
      </trkpt>
      <trkpt lat="45.87174" lon="-0.9459">
        <ele>57.288394</ele>
        <time>2022-12-22T09:46:34.534Z</time>
      </trkpt>
      <trkpt lat="45.87177" lon="-0.94605">
        <ele>57.375429</ele>
        <time>2022-12-22T09:46:38.551Z</time>
      </trkpt>
      <trkpt lat="45.8718" lon="-0.94619">
        <ele>57.460493</ele>
        <time>2022-12-22T09:46:42.560Z</time>
      </trkpt>
      <trkpt lat="45.87181" lon="-0.94637">
        <ele>57.555435</ele>
        <time>2022-12-22T09:46:46.569Z</time>
      </trkpt>
      <trkpt lat="45.87181" lon="-0.94654">
        <ele>57.650628</ele>
        <time>2022-12-22T09:46:50.570Z</time>
      </trkpt>
      <trkpt lat="45.8718" lon="-0.94667">
        <ele>57.723384</ele>
        <time>2022-12-22T09:46:53.560Z</time>
      </trkpt>
      <trkpt lat="45.8718" lon="-0.9468">
        <ele>57.798734</ele>
        <time>2022-12-22T09:46:56.541Z</time>
      </trkpt>
      <trkpt lat="45.87179" lon="-0.94695">
        <ele>57.87689</ele>
        <time>2022-12-22T09:46:59.543Z</time>
      </trkpt>
      <trkpt lat="45.87179" lon="-0.94708">
        <ele>57.953278</ele>
        <time>2022-12-22T09:47:02.560Z</time>
      </trkpt>
      <trkpt lat="45.8718" lon="-0.94722">
        <ele>58.031321</ele>
        <time>2022-12-22T09:47:05.553Z</time>
      </trkpt>
      <trkpt lat="45.87182" lon="-0.94736">
        <ele>58.109693</ele>
        <time>2022-12-22T09:47:08.537Z</time>
      </trkpt>
      <trkpt lat="45.87185" lon="-0.94751">
        <ele>58.194012</ele>
        <time>2022-12-22T09:47:12.542Z</time>
      </trkpt>
      <trkpt lat="45.8719" lon="-0.94767">
        <ele>58.291321</ele>
        <time>2022-12-22T09:47:16.563Z</time>
      </trkpt>
      <trkpt lat="45.87194" lon="-0.94781">
        <ele>58.374024</ele>
        <time>2022-12-22T09:47:19.542Z</time>
      </trkpt>
      <trkpt lat="45.87198" lon="-0.94795">
        <ele>58.458877</ele>
        <time>2022-12-22T09:47:22.560Z</time>
      </trkpt>
      <trkpt lat="45.87204" lon="-0.94806">
        <ele>58.467821</ele>
        <time>2022-12-22T09:47:25.561Z</time>
      </trkpt>
      <trkpt lat="45.87209" lon="-0.94817">
        <ele>58.412766</ele>
        <time>2022-12-22T09:47:28.546Z</time>
      </trkpt>
      <trkpt lat="45.87216" lon="-0.94827">
        <ele>58.351526</ele>
        <time>2022-12-22T09:47:31.551Z</time>
      </trkpt>
      <trkpt lat="45.87226" lon="-0.94837">
        <ele>58.279729</ele>
        <time>2022-12-22T09:47:34.569Z</time>
      </trkpt>
      <trkpt lat="45.87238" lon="-0.94842">
        <ele>58.205741</ele>
        <time>2022-12-22T09:47:37.556Z</time>
      </trkpt>
      <trkpt lat="45.8725" lon="-0.94843">
        <ele>58.134885</ele>
        <time>2022-12-22T09:47:40.645Z</time>
      </trkpt>
      <trkpt lat="45.87262" lon="-0.94844">
        <ele>58.063667</ele>
        <time>2022-12-22T09:47:43.565Z</time>
      </trkpt>
      <trkpt lat="45.87274" lon="-0.94845">
        <ele>57.991756</ele>
        <time>2022-12-22T09:47:46.549Z</time>
      </trkpt>
      <trkpt lat="45.87286" lon="-0.94844">
        <ele>57.918704</ele>
        <time>2022-12-22T09:47:49.548Z</time>
      </trkpt>
      <trkpt lat="45.87299" lon="-0.94844">
        <ele>57.842703</ele>
        <time>2022-12-22T09:47:52.566Z</time>
      </trkpt>
      <trkpt lat="45.87311" lon="-0.94846">
        <ele>57.766886</ele>
        <time>2022-12-22T09:47:55.571Z</time>
      </trkpt>
      <trkpt lat="45.87324" lon="-0.94851">
        <ele>57.686591</ele>
        <time>2022-12-22T09:47:58.539Z</time>
      </trkpt>
      <trkpt lat="45.87335" lon="-0.94855">
        <ele>57.622629</ele>
        <time>2022-12-22T09:48:01.563Z</time>
      </trkpt>
      <trkpt lat="45.87348" lon="-0.94867">
        <ele>57.529196</ele>
        <time>2022-12-22T09:48:59.553Z</time>
      </trkpt>
      <trkpt lat="45.87356" lon="-0.94875">
        <ele>57.467821</ele>
        <time>2022-12-22T09:49:02.554Z</time>
      </trkpt>
      <trkpt lat="45.87367" lon="-0.94887">
        <ele>57.464204</ele>
        <time>2022-12-22T09:49:05.540Z</time>
      </trkpt>
      <trkpt lat="45.87374" lon="-0.94896">
        <ele>57.540447</ele>
        <time>2022-12-22T09:49:07.543Z</time>
      </trkpt>
      <trkpt lat="45.87381" lon="-0.94906">
        <ele>57.618351</ele>
        <time>2022-12-22T09:49:09.543Z</time>
      </trkpt>
      <trkpt lat="45.8739" lon="-0.94921">
        <ele>57.729237</ele>
        <time>2022-12-22T09:49:12.553Z</time>
      </trkpt>
      <trkpt lat="45.87398" lon="-0.94935">
        <ele>57.828757</ele>
        <time>2022-12-22T09:49:15.553Z</time>
      </trkpt>
      <trkpt lat="45.87404" lon="-0.94949">
        <ele>57.924087</ele>
        <time>2022-12-22T09:49:18.553Z</time>
      </trkpt>
      <trkpt lat="45.8741" lon="-0.94963">
        <ele>58.015033</ele>
        <time>2022-12-22T09:49:21.556Z</time>
      </trkpt>
      <trkpt lat="45.87415" lon="-0.94975">
        <ele>58.097287</ele>
        <time>2022-12-22T09:49:24.558Z</time>
      </trkpt>
      <trkpt lat="45.8742" lon="-0.94989">
        <ele>58.180173</ele>
        <time>2022-12-22T09:49:27.532Z</time>
      </trkpt>
      <trkpt lat="45.87425" lon="-0.95001">
        <ele>58.258411</ele>
        <time>2022-12-22T09:49:30.556Z</time>
      </trkpt>
      <trkpt lat="45.87431" lon="-0.95012">
        <ele>58.336588</ele>
        <time>2022-12-22T09:49:33.534Z</time>
      </trkpt>
      <trkpt lat="45.87436" lon="-0.95023">
        <ele>58.412353</ele>
        <time>2022-12-22T09:49:36.557Z</time>
      </trkpt>
      <trkpt lat="45.87443" lon="-0.95035">
        <ele>58.502171</ele>
        <time>2022-12-22T09:49:40.557Z</time>
      </trkpt>
      <trkpt lat="45.87451" lon="-0.95047">
        <ele>58.589918</ele>
        <time>2022-12-22T09:49:44.553Z</time>
      </trkpt>
      <trkpt lat="45.8746" lon="-0.95054">
        <ele>58.675621</ele>
        <time>2022-12-22T09:49:48.558Z</time>
      </trkpt>
      <trkpt lat="45.87471" lon="-0.95057">
        <ele>58.762822</ele>
        <time>2022-12-22T09:49:52.545Z</time>
      </trkpt>
      <trkpt lat="45.87482" lon="-0.95058">
        <ele>58.853209</ele>
        <time>2022-12-22T09:49:56.558Z</time>
      </trkpt>
      <trkpt lat="45.87493" lon="-0.95059">
        <ele>58.95576</ele>
        <time>2022-12-22T09:50:00.548Z</time>
      </trkpt>
      <trkpt lat="45.87503" lon="-0.95062">
        <ele>59.057171</ele>
        <time>2022-12-22T09:50:04.557Z</time>
      </trkpt>
      <trkpt lat="45.87513" lon="-0.95064">
        <ele>59.153416</ele>
        <time>2022-12-22T09:50:08.555Z</time>
      </trkpt>
      <trkpt lat="45.87516" lon="-0.95079">
        <ele>59.258048</ele>
        <time>2022-12-22T09:50:12.541Z</time>
      </trkpt>
      <trkpt lat="45.87512" lon="-0.95093">
        <ele>59.360083</ele>
        <time>2022-12-22T09:50:15.534Z</time>
      </trkpt>
      <trkpt lat="45.87508" lon="-0.95107">
        <ele>59.460321</ele>
        <time>2022-12-22T09:50:18.541Z</time>
      </trkpt>
      <trkpt lat="45.87507" lon="-0.95122">
        <ele>59.560385</ele>
        <time>2022-12-22T09:50:21.555Z</time>
      </trkpt>
      <trkpt lat="45.87507" lon="-0.95136">
        <ele>59.658376</ele>
        <time>2022-12-22T09:50:24.560Z</time>
      </trkpt>
      <trkpt lat="45.87506" lon="-0.95151">
        <ele>59.75484</ele>
        <time>2022-12-22T09:50:27.539Z</time>
      </trkpt>
      <trkpt lat="45.87506" lon="-0.95165">
        <ele>59.852675</ele>
        <time>2022-12-22T09:50:30.554Z</time>
      </trkpt>
      <trkpt lat="45.87505" lon="-0.9518">
        <ele>59.952609</ele>
        <time>2022-12-22T09:50:33.557Z</time>
      </trkpt>
      <trkpt lat="45.87505" lon="-0.95196">
        <ele>60.057281</ele>
        <time>2022-12-22T09:50:36.561Z</time>
      </trkpt>
      <trkpt lat="45.87504" lon="-0.95211">
        <ele>60.159222</ele>
        <time>2022-12-22T09:50:39.552Z</time>
      </trkpt>
      <trkpt lat="45.87503" lon="-0.95227">
        <ele>60.266786</ele>
        <time>2022-12-22T09:50:43.556Z</time>
      </trkpt>
      <trkpt lat="45.87503" lon="-0.95241">
        <ele>60.358701</ele>
        <time>2022-12-22T09:50:47.540Z</time>
      </trkpt>
      <trkpt lat="45.87502" lon="-0.95258">
        <ele>60.471454</ele>
        <time>2022-12-22T09:50:51.557Z</time>
      </trkpt>
      <trkpt lat="45.87501" lon="-0.95271">
        <ele>60.563434</ele>
        <time>2022-12-22T09:50:54.544Z</time>
      </trkpt>
      <trkpt lat="45.875" lon="-0.95285">
        <ele>60.649383</ele>
        <time>2022-12-22T09:50:57.541Z</time>
      </trkpt>
      <trkpt lat="45.87499" lon="-0.95299">
        <ele>60.730868</ele>
        <time>2022-12-22T09:51:00.545Z</time>
      </trkpt>
      <trkpt lat="45.87497" lon="-0.95313">
        <ele>60.816528</ele>
        <time>2022-12-22T09:51:03.557Z</time>
      </trkpt>
      <trkpt lat="45.87495" lon="-0.95328">
        <ele>60.905407</ele>
        <time>2022-12-22T09:51:06.557Z</time>
      </trkpt>
      <trkpt lat="45.87492" lon="-0.95343">
        <ele>60.994912</ele>
        <time>2022-12-22T09:51:09.560Z</time>
      </trkpt>
      <trkpt lat="45.87489" lon="-0.95357">
        <ele>61.084769</ele>
        <time>2022-12-22T09:51:12.557Z</time>
      </trkpt>
      <trkpt lat="45.87485" lon="-0.95371">
        <ele>61.172471</ele>
        <time>2022-12-22T09:51:15.531Z</time>
      </trkpt>
      <trkpt lat="45.87481" lon="-0.95385">
        <ele>61.260923</ele>
        <time>2022-12-22T09:51:18.538Z</time>
      </trkpt>
      <trkpt lat="45.87476" lon="-0.95398">
        <ele>61.350856</ele>
        <time>2022-12-22T09:51:21.556Z</time>
      </trkpt>
      <trkpt lat="45.87471" lon="-0.95412">
        <ele>61.441311</ele>
        <time>2022-12-22T09:51:24.553Z</time>
      </trkpt>
      <trkpt lat="45.87466" lon="-0.95425">
        <ele>61.530895</ele>
        <time>2022-12-22T09:51:27.552Z</time>
      </trkpt>
      <trkpt lat="45.8746" lon="-0.95438">
        <ele>61.620074</ele>
        <time>2022-12-22T09:51:30.554Z</time>
      </trkpt>
      <trkpt lat="45.87453" lon="-0.9545">
        <ele>61.708341</ele>
        <time>2022-12-22T09:51:33.544Z</time>
      </trkpt>
      <trkpt lat="45.87446" lon="-0.95462">
        <ele>61.800381</ele>
        <time>2022-12-22T09:51:36.552Z</time>
      </trkpt>
      <trkpt lat="45.87439" lon="-0.95474">
        <ele>61.89365</ele>
        <time>2022-12-22T09:51:39.558Z</time>
      </trkpt>
      <trkpt lat="45.87431" lon="-0.95485">
        <ele>61.986931</ele>
        <time>2022-12-22T09:51:42.557Z</time>
      </trkpt>
      <trkpt lat="45.87423" lon="-0.95495">
        <ele>62.074985</ele>
        <time>2022-12-22T09:51:45.556Z</time>
      </trkpt>
      <trkpt lat="45.87415" lon="-0.95505">
        <ele>62.141761</ele>
        <time>2022-12-22T09:51:48.557Z</time>
      </trkpt>
      <trkpt lat="45.87406" lon="-0.95515">
        <ele>62.193054</ele>
        <time>2022-12-22T09:51:51.556Z</time>
      </trkpt>
      <trkpt lat="45.87397" lon="-0.95525">
        <ele>62.245622</ele>
        <time>2022-12-22T09:51:54.529Z</time>
      </trkpt>
      <trkpt lat="45.87387" lon="-0.95535">
        <ele>62.299866</ele>
        <time>2022-12-22T09:51:57.544Z</time>
      </trkpt>
      <trkpt lat="45.87377" lon="-0.95544">
        <ele>62.352636</ele>
        <time>2022-12-22T09:52:00.550Z</time>
      </trkpt>
      <trkpt lat="45.87368" lon="-0.95554">
        <ele>62.40392</ele>
        <time>2022-12-22T09:52:03.557Z</time>
      </trkpt>
      <trkpt lat="45.87359" lon="-0.95564">
        <ele>62.455715</ele>
        <time>2022-12-22T09:52:06.559Z</time>
      </trkpt>
      <trkpt lat="45.8735" lon="-0.95575">
        <ele>62.508005</ele>
        <time>2022-12-22T09:52:09.558Z</time>
      </trkpt>
      <trkpt lat="45.87341" lon="-0.95586">
        <ele>62.56124</ele>
        <time>2022-12-22T09:52:12.558Z</time>
      </trkpt>
      <trkpt lat="45.87333" lon="-0.95597">
        <ele>62.611627</ele>
        <time>2022-12-22T09:52:15.534Z</time>
      </trkpt>
      <trkpt lat="45.87325" lon="-0.95608">
        <ele>62.661367</ele>
        <time>2022-12-22T09:52:18.554Z</time>
      </trkpt>
      <trkpt lat="45.87318" lon="-0.95619">
        <ele>62.709169</ele>
        <time>2022-12-22T09:52:21.559Z</time>
      </trkpt>
      <trkpt lat="45.8731" lon="-0.9563">
        <ele>62.757423</ele>
        <time>2022-12-22T09:52:24.556Z</time>
      </trkpt>
      <trkpt lat="45.87303" lon="-0.95641">
        <ele>62.807294</ele>
        <time>2022-12-22T09:52:27.544Z</time>
      </trkpt>
      <trkpt lat="45.87295" lon="-0.95653">
        <ele>62.858075</ele>
        <time>2022-12-22T09:52:30.544Z</time>
      </trkpt>
      <trkpt lat="45.87288" lon="-0.95665">
        <ele>62.906274</ele>
        <time>2022-12-22T09:52:33.555Z</time>
      </trkpt>
      <trkpt lat="45.87281" lon="-0.95678">
        <ele>63.125135</ele>
        <time>2022-12-22T09:52:37.547Z</time>
      </trkpt>
      <trkpt lat="45.87275" lon="-0.9569">
        <ele>63.373266</ele>
        <time>2022-12-22T09:52:40.557Z</time>
      </trkpt>
      <trkpt lat="45.8727" lon="-0.95703">
        <ele>63.638608</ele>
        <time>2022-12-22T09:52:43.556Z</time>
      </trkpt>
      <trkpt lat="45.87266" lon="-0.95716">
        <ele>63.913887</ele>
        <time>2022-12-22T09:52:46.557Z</time>
      </trkpt>
      <trkpt lat="45.87261" lon="-0.9573">
        <ele>64.189166</ele>
        <time>2022-12-22T09:52:49.550Z</time>
      </trkpt>
      <trkpt lat="45.87257" lon="-0.95744">
        <ele>64.453139</ele>
        <time>2022-12-22T09:52:52.533Z</time>
      </trkpt>
      <trkpt lat="45.87253" lon="-0.95757">
        <ele>64.713805</ele>
        <time>2022-12-22T09:52:55.536Z</time>
      </trkpt>
      <trkpt lat="45.8725" lon="-0.9577">
        <ele>64.958615</ele>
        <time>2022-12-22T09:52:58.551Z</time>
      </trkpt>
      <trkpt lat="45.87246" lon="-0.95785">
        <ele>65.253429</ele>
        <time>2022-12-22T09:53:02.557Z</time>
      </trkpt>
      <trkpt lat="45.87242" lon="-0.958">
        <ele>65.544004</ele>
        <time>2022-12-22T09:53:06.555Z</time>
      </trkpt>
      <trkpt lat="45.87238" lon="-0.95815">
        <ele>65.82059</ele>
        <time>2022-12-22T09:53:10.560Z</time>
      </trkpt>
      <trkpt lat="45.87234" lon="-0.95828">
        <ele>66.093324</ele>
        <time>2022-12-22T09:53:14.556Z</time>
      </trkpt>
      <trkpt lat="45.87229" lon="-0.95842">
        <ele>66.365363</ele>
        <time>2022-12-22T09:53:18.557Z</time>
      </trkpt>
      <trkpt lat="45.87224" lon="-0.95854">
        <ele>66.628512</ele>
        <time>2022-12-22T09:53:22.556Z</time>
      </trkpt>
      <trkpt lat="45.87218" lon="-0.95866">
        <ele>66.897255</ele>
        <time>2022-12-22T09:53:26.539Z</time>
      </trkpt>
      <trkpt lat="45.87212" lon="-0.95878">
        <ele>67.158609</ele>
        <time>2022-12-22T09:53:30.550Z</time>
      </trkpt>
      <trkpt lat="45.87205" lon="-0.9589">
        <ele>67.426515</ele>
        <time>2022-12-22T09:53:34.558Z</time>
      </trkpt>
      <trkpt lat="45.87199" lon="-0.95901">
        <ele>67.578599</ele>
        <time>2022-12-22T09:53:38.541Z</time>
      </trkpt>
      <trkpt lat="45.87192" lon="-0.95912">
        <ele>67.592808</ele>
        <time>2022-12-22T09:53:42.560Z</time>
      </trkpt>
      <trkpt lat="45.87186" lon="-0.95923">
        <ele>67.607777</ele>
        <time>2022-12-22T09:53:46.566Z</time>
      </trkpt>
      <trkpt lat="45.87179" lon="-0.95935">
        <ele>67.623284</ele>
        <time>2022-12-22T09:53:50.558Z</time>
      </trkpt>
      <trkpt lat="45.87172" lon="-0.95947">
        <ele>67.639365</ele>
        <time>2022-12-22T09:53:54.556Z</time>
      </trkpt>
      <trkpt lat="45.87166" lon="-0.9596">
        <ele>67.654327</ele>
        <time>2022-12-22T09:53:58.555Z</time>
      </trkpt>
      <trkpt lat="45.87158" lon="-0.95973">
        <ele>67.671793</ele>
        <time>2022-12-22T09:54:02.534Z</time>
      </trkpt>
      <trkpt lat="45.87152" lon="-0.95984">
        <ele>67.685796</ele>
        <time>2022-12-22T09:54:05.533Z</time>
      </trkpt>
      <trkpt lat="45.87146" lon="-0.95994">
        <ele>67.699494</ele>
        <time>2022-12-22T09:54:08.538Z</time>
      </trkpt>
      <trkpt lat="45.87136" lon="-0.96002">
        <ele>67.71613</ele>
        <time>2022-12-22T09:54:12.536Z</time>
      </trkpt>
      <trkpt lat="45.87125" lon="-0.95999">
        <ele>67.731936</ele>
        <time>2022-12-22T09:54:16.545Z</time>
      </trkpt>
      <trkpt lat="45.87118" lon="-0.95991">
        <ele>67.745626</ele>
        <time>2022-12-22T09:54:19.542Z</time>
      </trkpt>
      <trkpt lat="45.8711" lon="-0.95982">
        <ele>67.759525</ele>
        <time>2022-12-22T09:54:22.551Z</time>
      </trkpt>
      <trkpt lat="45.87103" lon="-0.95973">
        <ele>67.772612</ele>
        <time>2022-12-22T09:54:25.559Z</time>
      </trkpt>
      <trkpt lat="45.87096" lon="-0.95966">
        <ele>67.785775</ele>
        <time>2022-12-22T09:54:28.549Z</time>
      </trkpt>
      <trkpt lat="45.87089" lon="-0.95958">
        <ele>67.799172</ele>
        <time>2022-12-22T09:54:31.561Z</time>
      </trkpt>
      <trkpt lat="45.87079" lon="-0.95948">
        <ele>67.816508</ele>
        <time>2022-12-22T09:54:35.536Z</time>
      </trkpt>
      <trkpt lat="45.87071" lon="-0.9594">
        <ele>67.830321</ele>
        <time>2022-12-22T09:54:38.557Z</time>
      </trkpt>
      <trkpt lat="45.87063" lon="-0.95931">
        <ele>67.803238</ele>
        <time>2022-12-22T09:54:41.557Z</time>
      </trkpt>
      <trkpt lat="45.87056" lon="-0.95923">
        <ele>67.77154</ele>
        <time>2022-12-22T09:54:44.556Z</time>
      </trkpt>
      <trkpt lat="45.87048" lon="-0.95914">
        <ele>67.73995</ele>
        <time>2022-12-22T09:54:47.538Z</time>
      </trkpt>
      <trkpt lat="45.87039" lon="-0.95904">
        <ele>67.701719</ele>
        <time>2022-12-22T09:54:51.547Z</time>
      </trkpt>
      <trkpt lat="45.8703" lon="-0.95896">
        <ele>67.667527</ele>
        <time>2022-12-22T09:54:54.558Z</time>
      </trkpt>
      <trkpt lat="45.87022" lon="-0.95887">
        <ele>67.634411</ele>
        <time>2022-12-22T09:54:57.545Z</time>
      </trkpt>
      <trkpt lat="45.87013" lon="-0.95877">
        <ele>67.596711</ele>
        <time>2022-12-22T09:55:00.558Z</time>
      </trkpt>
      <trkpt lat="45.87005" lon="-0.95869">
        <ele>67.562907</ele>
        <time>2022-12-22T09:55:03.558Z</time>
      </trkpt>
      <trkpt lat="45.86998" lon="-0.9586">
        <ele>67.531537</ele>
        <time>2022-12-22T09:55:06.561Z</time>
      </trkpt>
      <trkpt lat="45.8699" lon="-0.95852">
        <ele>67.49868</ele>
        <time>2022-12-22T09:55:09.534Z</time>
      </trkpt>
      <trkpt lat="45.86981" lon="-0.95843">
        <ele>67.46354</ele>
        <time>2022-12-22T09:55:12.558Z</time>
      </trkpt>
      <trkpt lat="45.86973" lon="-0.95834">
        <ele>67.428936</ele>
        <time>2022-12-22T09:55:15.534Z</time>
      </trkpt>
      <trkpt lat="45.86964" lon="-0.95825">
        <ele>67.393392</ele>
        <time>2022-12-22T09:55:18.556Z</time>
      </trkpt>
      <trkpt lat="45.86956" lon="-0.95817">
        <ele>67.360277</ele>
        <time>2022-12-22T09:55:21.556Z</time>
      </trkpt>
      <trkpt lat="45.86948" lon="-0.95808">
        <ele>67.327025</ele>
        <time>2022-12-22T09:55:24.557Z</time>
      </trkpt>
      <trkpt lat="45.86939" lon="-0.95799">
        <ele>67.292426</ele>
        <time>2022-12-22T09:55:27.549Z</time>
      </trkpt>
      <trkpt lat="45.86931" lon="-0.95791">
        <ele>67.257559</ele>
        <time>2022-12-22T09:55:30.541Z</time>
      </trkpt>
      <trkpt lat="45.86922" lon="-0.95781">
        <ele>67.151107</ele>
        <time>2022-12-22T09:55:33.560Z</time>
      </trkpt>
      <trkpt lat="45.86913" lon="-0.95772">
        <ele>66.918899</ele>
        <time>2022-12-22T09:55:36.558Z</time>
      </trkpt>
      <trkpt lat="45.86906" lon="-0.95764">
        <ele>66.736415</ele>
        <time>2022-12-22T09:55:38.554Z</time>
      </trkpt>
      <trkpt lat="45.86898" lon="-0.95755">
        <ele>66.546156</ele>
        <time>2022-12-22T09:55:40.560Z</time>
      </trkpt>
      <trkpt lat="45.86891" lon="-0.95746">
        <ele>66.342407</ele>
        <time>2022-12-22T09:55:42.560Z</time>
      </trkpt>
      <trkpt lat="45.86883" lon="-0.95738">
        <ele>66.149723</ele>
        <time>2022-12-22T09:55:44.542Z</time>
      </trkpt>
      <trkpt lat="45.86875" lon="-0.9573">
        <ele>65.955285</ele>
        <time>2022-12-22T09:55:46.552Z</time>
      </trkpt>
      <trkpt lat="45.86868" lon="-0.95722">
        <ele>65.762601</ele>
        <time>2022-12-22T09:55:48.563Z</time>
      </trkpt>
      <trkpt lat="45.8686" lon="-0.95713">
        <ele>65.561615</ele>
        <time>2022-12-22T09:55:50.557Z</time>
      </trkpt>
      <trkpt lat="45.86852" lon="-0.95706">
        <ele>65.373871</ele>
        <time>2022-12-22T09:55:52.561Z</time>
      </trkpt>
      <trkpt lat="45.86845" lon="-0.95698">
        <ele>65.187696</ele>
        <time>2022-12-22T09:55:54.558Z</time>
      </trkpt>
      <trkpt lat="45.86837" lon="-0.95689">
        <ele>64.99254</ele>
        <time>2022-12-22T09:55:56.539Z</time>
      </trkpt>
      <trkpt lat="45.8683" lon="-0.95681">
        <ele>64.802172</ele>
        <time>2022-12-22T09:55:58.555Z</time>
      </trkpt>
      <trkpt lat="45.86819" lon="-0.9567">
        <ele>64.538665</ele>
        <time>2022-12-22T09:56:01.543Z</time>
      </trkpt>
      <trkpt lat="45.86811" lon="-0.95662">
        <ele>64.342619</ele>
        <time>2022-12-22T09:56:03.542Z</time>
      </trkpt>
      <trkpt lat="45.86803" lon="-0.95654">
        <ele>64.142483</ele>
        <time>2022-12-22T09:56:05.559Z</time>
      </trkpt>
      <trkpt lat="45.86795" lon="-0.95645">
        <ele>63.931622</ele>
        <time>2022-12-22T09:56:07.534Z</time>
      </trkpt>
      <trkpt lat="45.86787" lon="-0.95637">
        <ele>63.723224</ele>
        <time>2022-12-22T09:56:09.555Z</time>
      </trkpt>
      <trkpt lat="45.86778" lon="-0.95627">
        <ele>63.629606</ele>
        <time>2022-12-22T09:56:11.565Z</time>
      </trkpt>
      <trkpt lat="45.8677" lon="-0.95619">
        <ele>63.735858</ele>
        <time>2022-12-22T09:56:13.554Z</time>
      </trkpt>
      <trkpt lat="45.86762" lon="-0.95609">
        <ele>63.849778</ele>
        <time>2022-12-22T09:56:15.530Z</time>
      </trkpt>
      <trkpt lat="45.86754" lon="-0.956">
        <ele>63.953862</ele>
        <time>2022-12-22T09:56:17.547Z</time>
      </trkpt>
      <trkpt lat="45.86746" lon="-0.95593">
        <ele>64.051519</ele>
        <time>2022-12-22T09:56:19.557Z</time>
      </trkpt>
      <trkpt lat="45.86736" lon="-0.95581">
        <ele>64.185797</ele>
        <time>2022-12-22T09:56:22.555Z</time>
      </trkpt>
      <trkpt lat="45.86726" lon="-0.95571">
        <ele>64.316299</ele>
        <time>2022-12-22T09:56:25.537Z</time>
      </trkpt>
      <trkpt lat="45.86716" lon="-0.95561">
        <ele>64.441671</ele>
        <time>2022-12-22T09:56:28.561Z</time>
      </trkpt>
      <trkpt lat="45.86706" lon="-0.9555">
        <ele>64.579413</ele>
        <time>2022-12-22T09:56:31.557Z</time>
      </trkpt>
      <trkpt lat="45.86695" lon="-0.95539">
        <ele>64.714597</ele>
        <time>2022-12-22T09:56:34.556Z</time>
      </trkpt>
      <trkpt lat="45.86685" lon="-0.95528">
        <ele>64.851492</ele>
        <time>2022-12-22T09:56:37.550Z</time>
      </trkpt>
      <trkpt lat="45.86675" lon="-0.95517">
        <ele>64.980702</ele>
        <time>2022-12-22T09:56:40.559Z</time>
      </trkpt>
      <trkpt lat="45.86665" lon="-0.95507">
        <ele>65.106962</ele>
        <time>2022-12-22T09:56:43.557Z</time>
      </trkpt>
      <trkpt lat="45.86656" lon="-0.95497">
        <ele>65.229829</ele>
        <time>2022-12-22T09:56:46.561Z</time>
      </trkpt>
      <trkpt lat="45.86647" lon="-0.95487">
        <ele>65.349232</ele>
        <time>2022-12-22T09:56:49.558Z</time>
      </trkpt>
      <trkpt lat="45.86638" lon="-0.95479">
        <ele>65.457156</ele>
        <time>2022-12-22T09:56:52.562Z</time>
      </trkpt>
      <trkpt lat="45.86631" lon="-0.95471">
        <ele>65.500959</ele>
        <time>2022-12-22T09:56:55.559Z</time>
      </trkpt>
      <trkpt lat="45.86623" lon="-0.95462">
        <ele>65.530889</ele>
        <time>2022-12-22T09:56:58.556Z</time>
      </trkpt>
      <trkpt lat="45.86615" lon="-0.95454">
        <ele>65.560207</ele>
        <time>2022-12-22T09:57:01.558Z</time>
      </trkpt>
      <trkpt lat="45.86606" lon="-0.95445">
        <ele>65.591859</ele>
        <time>2022-12-22T09:57:04.558Z</time>
      </trkpt>
      <trkpt lat="45.86598" lon="-0.95436">
        <ele>65.624119</ele>
        <time>2022-12-22T09:57:07.543Z</time>
      </trkpt>
      <trkpt lat="45.86589" lon="-0.95427">
        <ele>65.655029</ele>
        <time>2022-12-22T09:57:10.555Z</time>
      </trkpt>
      <trkpt lat="45.86582" lon="-0.95419">
        <ele>65.685095</ele>
        <time>2022-12-22T09:57:13.556Z</time>
      </trkpt>
      <trkpt lat="45.86573" lon="-0.9541">
        <ele>65.716393</ele>
        <time>2022-12-22T09:57:16.559Z</time>
      </trkpt>
      <trkpt lat="45.86565" lon="-0.954">
        <ele>65.748899</ele>
        <time>2022-12-22T09:57:19.557Z</time>
      </trkpt>
      <trkpt lat="45.86556" lon="-0.95391">
        <ele>65.782264</ele>
        <time>2022-12-22T09:57:22.556Z</time>
      </trkpt>
      <trkpt lat="45.86548" lon="-0.95383">
        <ele>65.811215</ele>
        <time>2022-12-22T09:57:25.558Z</time>
      </trkpt>
      <trkpt lat="45.8654" lon="-0.95374">
        <ele>65.842497</ele>
        <time>2022-12-22T09:57:28.557Z</time>
      </trkpt>
      <trkpt lat="45.8653" lon="-0.95365">
        <ele>65.876966</ele>
        <time>2022-12-22T09:57:31.557Z</time>
      </trkpt>
      <trkpt lat="45.86521" lon="-0.95355">
        <ele>65.910966</ele>
        <time>2022-12-22T09:57:34.560Z</time>
      </trkpt>
      <trkpt lat="45.86512" lon="-0.95345">
        <ele>65.946296</ele>
        <time>2022-12-22T09:57:37.550Z</time>
      </trkpt>
      <trkpt lat="45.86502" lon="-0.95334">
        <ele>65.984934</ele>
        <time>2022-12-22T09:57:40.545Z</time>
      </trkpt>
      <trkpt lat="45.86492" lon="-0.95323">
        <ele>66.025945</ele>
        <time>2022-12-22T09:57:43.549Z</time>
      </trkpt>
      <trkpt lat="45.86482" lon="-0.95313">
        <ele>66.123839</ele>
        <time>2022-12-22T09:57:46.557Z</time>
      </trkpt>
      <trkpt lat="45.86472" lon="-0.95302">
        <ele>66.226056</ele>
        <time>2022-12-22T09:57:49.554Z</time>
      </trkpt>
      <trkpt lat="45.86462" lon="-0.95292">
        <ele>66.325597</ele>
        <time>2022-12-22T09:57:52.553Z</time>
      </trkpt>
      <trkpt lat="45.86452" lon="-0.95282">
        <ele>66.432152</ele>
        <time>2022-12-22T09:57:55.555Z</time>
      </trkpt>
      <trkpt lat="45.86442" lon="-0.95271">
        <ele>66.532395</ele>
        <time>2022-12-22T09:57:58.561Z</time>
      </trkpt>
      <trkpt lat="45.86431" lon="-0.9526">
        <ele>66.638946</ele>
        <time>2022-12-22T09:58:01.537Z</time>
      </trkpt>
      <trkpt lat="45.86422" lon="-0.95249">
        <ele>66.741239</ele>
        <time>2022-12-22T09:58:04.558Z</time>
      </trkpt>
      <trkpt lat="45.86412" lon="-0.95239">
        <ele>66.834783</ele>
        <time>2022-12-22T09:58:07.544Z</time>
      </trkpt>
      <trkpt lat="45.86404" lon="-0.9523">
        <ele>66.924634</ele>
        <time>2022-12-22T09:58:10.559Z</time>
      </trkpt>
      <trkpt lat="45.86394" lon="-0.9522">
        <ele>67.026191</ele>
        <time>2022-12-22T09:58:13.559Z</time>
      </trkpt>
      <trkpt lat="45.86384" lon="-0.9521">
        <ele>67.121395</ele>
        <time>2022-12-22T09:58:16.555Z</time>
      </trkpt>
      <trkpt lat="45.86374" lon="-0.952">
        <ele>67.226277</ele>
        <time>2022-12-22T09:58:19.560Z</time>
      </trkpt>
      <trkpt lat="45.86364" lon="-0.95189">
        <ele>67.323923</ele>
        <time>2022-12-22T09:58:22.543Z</time>
      </trkpt>
      <trkpt lat="45.86355" lon="-0.95179">
        <ele>67.41916</ele>
        <time>2022-12-22T09:58:25.558Z</time>
      </trkpt>
      <trkpt lat="45.86346" lon="-0.95169">
        <ele>67.497016</ele>
        <time>2022-12-22T09:58:28.558Z</time>
      </trkpt>
      <trkpt lat="45.86337" lon="-0.9516">
        <ele>67.470584</ele>
        <time>2022-12-22T09:58:31.555Z</time>
      </trkpt>
      <trkpt lat="45.86328" lon="-0.95151">
        <ele>67.445558</ele>
        <time>2022-12-22T09:58:34.560Z</time>
      </trkpt>
      <trkpt lat="45.8632" lon="-0.95142">
        <ele>67.422021</ele>
        <time>2022-12-22T09:58:37.549Z</time>
      </trkpt>
      <trkpt lat="45.86312" lon="-0.95133">
        <ele>67.398402</ele>
        <time>2022-12-22T09:58:40.558Z</time>
      </trkpt>
      <trkpt lat="45.86304" lon="-0.95124">
        <ele>67.374668</ele>
        <time>2022-12-22T09:58:43.557Z</time>
      </trkpt>
      <trkpt lat="45.86295" lon="-0.95116">
        <ele>67.351421</ele>
        <time>2022-12-22T09:58:46.559Z</time>
      </trkpt>
      <trkpt lat="45.86287" lon="-0.95107">
        <ele>67.3277</ele>
        <time>2022-12-22T09:58:49.557Z</time>
      </trkpt>
      <trkpt lat="45.86279" lon="-0.95098">
        <ele>67.30361</ele>
        <time>2022-12-22T09:58:52.557Z</time>
      </trkpt>
      <trkpt lat="45.8627" lon="-0.95089">
        <ele>67.278861</ele>
        <time>2022-12-22T09:58:55.558Z</time>
      </trkpt>
      <trkpt lat="45.86262" lon="-0.95079">
        <ele>67.254201</ele>
        <time>2022-12-22T09:58:58.555Z</time>
      </trkpt>
      <trkpt lat="45.86253" lon="-0.9507">
        <ele>67.229442</ele>
        <time>2022-12-22T09:59:01.554Z</time>
      </trkpt>
      <trkpt lat="45.86244" lon="-0.95061">
        <ele>67.202807</ele>
        <time>2022-12-22T09:59:04.559Z</time>
      </trkpt>
      <trkpt lat="45.86233" lon="-0.95052">
        <ele>67.175511</ele>
        <time>2022-12-22T09:59:07.540Z</time>
      </trkpt>
      <trkpt lat="45.86224" lon="-0.95045">
        <ele>67.149884</ele>
        <time>2022-12-22T09:59:10.553Z</time>
      </trkpt>
      <trkpt lat="45.86214" lon="-0.95039">
        <ele>67.125828</ele>
        <time>2022-12-22T09:59:13.557Z</time>
      </trkpt>
      <trkpt lat="45.86203" lon="-0.95035">
        <ele>67.099418</ele>
        <time>2022-12-22T09:59:16.538Z</time>
      </trkpt>
      <trkpt lat="45.86191" lon="-0.95033">
        <ele>67.143596</ele>
        <time>2022-12-22T09:59:19.562Z</time>
      </trkpt>
      <trkpt lat="45.86179" lon="-0.95032">
        <ele>67.263142</ele>
        <time>2022-12-22T09:59:22.559Z</time>
      </trkpt>
      <trkpt lat="45.86167" lon="-0.95032">
        <ele>67.385443</ele>
        <time>2022-12-22T09:59:25.558Z</time>
      </trkpt>
      <trkpt lat="45.86155" lon="-0.95032">
        <ele>67.509798</ele>
        <time>2022-12-22T09:59:28.560Z</time>
      </trkpt>
      <trkpt lat="45.86143" lon="-0.95033">
        <ele>67.63438</ele>
        <time>2022-12-22T09:59:31.559Z</time>
      </trkpt>
      <trkpt lat="45.86131" lon="-0.95034">
        <ele>67.75998</ele>
        <time>2022-12-22T09:59:34.559Z</time>
      </trkpt>
      <trkpt lat="45.86118" lon="-0.95035">
        <ele>67.883463</ele>
        <time>2022-12-22T09:59:37.547Z</time>
      </trkpt>
      <trkpt lat="45.86107" lon="-0.95036">
        <ele>67.999753</ele>
        <time>2022-12-22T09:59:40.557Z</time>
      </trkpt>
      <trkpt lat="45.86097" lon="-0.95037">
        <ele>68.106147</ele>
        <time>2022-12-22T09:59:43.559Z</time>
      </trkpt>
      <trkpt lat="45.86087" lon="-0.95037">
        <ele>68.201971</ele>
        <time>2022-12-22T09:59:46.556Z</time>
      </trkpt>
      <trkpt lat="45.86075" lon="-0.95038">
        <ele>68.323303</ele>
        <time>2022-12-22T09:59:50.558Z</time>
      </trkpt>
      <trkpt lat="45.86066" lon="-0.95039">
        <ele>68.423543</ele>
        <time>2022-12-22T09:59:53.548Z</time>
      </trkpt>
      <trkpt lat="45.86055" lon="-0.95039">
        <ele>68.528555</ele>
        <time>2022-12-22T09:59:56.557Z</time>
      </trkpt>
      <trkpt lat="45.86045" lon="-0.9504">
        <ele>68.632596</ele>
        <time>2022-12-22T09:59:59.558Z</time>
      </trkpt>
      <trkpt lat="45.86036" lon="-0.9504">
        <ele>68.725472</ele>
        <time>2022-12-22T10:00:02.560Z</time>
      </trkpt>
      <trkpt lat="45.86026" lon="-0.95042">
        <ele>68.822666</ele>
        <time>2022-12-22T10:00:05.556Z</time>
      </trkpt>
      <trkpt lat="45.86017" lon="-0.95042">
        <ele>68.915421</ele>
        <time>2022-12-22T10:00:08.560Z</time>
      </trkpt>
      <trkpt lat="45.86008" lon="-0.95042">
        <ele>69.065403</ele>
        <time>2022-12-22T10:00:11.552Z</time>
      </trkpt>
      <trkpt lat="45.85997" lon="-0.95043">
        <ele>69.248921</ele>
        <time>2022-12-22T10:00:15.545Z</time>
      </trkpt>
      <trkpt lat="45.85986" lon="-0.95045">
        <ele>69.445303</ele>
        <time>2022-12-22T10:00:19.555Z</time>
      </trkpt>
      <trkpt lat="45.85974" lon="-0.95045">
        <ele>69.63534</ele>
        <time>2022-12-22T10:00:23.560Z</time>
      </trkpt>
      <trkpt lat="45.85965" lon="-0.95045">
        <ele>69.792118</ele>
        <time>2022-12-22T10:00:27.549Z</time>
      </trkpt>
      <trkpt lat="45.85954" lon="-0.95046">
        <ele>69.967875</ele>
        <time>2022-12-22T10:00:31.542Z</time>
      </trkpt>
      <trkpt lat="45.85943" lon="-0.95047">
        <ele>70.15008</ele>
        <time>2022-12-22T10:00:35.534Z</time>
      </trkpt>
      <trkpt lat="45.85932" lon="-0.95047">
        <ele>70.33845</ele>
        <time>2022-12-22T10:00:39.535Z</time>
      </trkpt>
      <trkpt lat="45.85921" lon="-0.95048">
        <ele>70.528742</ele>
        <time>2022-12-22T10:00:43.557Z</time>
      </trkpt>
      <trkpt lat="45.8591" lon="-0.95049">
        <ele>70.709284</ele>
        <time>2022-12-22T10:00:47.543Z</time>
      </trkpt>
      <trkpt lat="45.85899" lon="-0.9505">
        <ele>70.889827</ele>
        <time>2022-12-22T10:00:51.558Z</time>
      </trkpt>
      <trkpt lat="45.85888" lon="-0.95051">
        <ele>71.076729</ele>
        <time>2022-12-22T10:00:55.554Z</time>
      </trkpt>
      <trkpt lat="45.85877" lon="-0.95052">
        <ele>71.263458</ele>
        <time>2022-12-22T10:00:59.557Z</time>
      </trkpt>
      <trkpt lat="45.85865" lon="-0.95052">
        <ele>71.450361</ele>
        <time>2022-12-22T10:01:03.530Z</time>
      </trkpt>
      <trkpt lat="45.85854" lon="-0.95053">
        <ele>71.645645</ele>
        <time>2022-12-22T10:01:07.540Z</time>
      </trkpt>
      <trkpt lat="45.85842" lon="-0.95054">
        <ele>71.84415</ele>
        <time>2022-12-22T10:01:11.565Z</time>
      </trkpt>
      <trkpt lat="45.8583" lon="-0.95055">
        <ele>71.894549</ele>
        <time>2022-12-22T10:01:15.564Z</time>
      </trkpt>
      <trkpt lat="45.85818" lon="-0.95056">
        <ele>71.860302</ele>
        <time>2022-12-22T10:01:19.556Z</time>
      </trkpt>
      <trkpt lat="45.85807" lon="-0.95057">
        <ele>71.826992</ele>
        <time>2022-12-22T10:01:23.561Z</time>
      </trkpt>
      <trkpt lat="45.85796" lon="-0.95059">
        <ele>71.795498</ele>
        <time>2022-12-22T10:01:27.549Z</time>
      </trkpt>
      <trkpt lat="45.85787" lon="-0.9506">
        <ele>71.769634</ele>
        <time>2022-12-22T10:01:30.546Z</time>
      </trkpt>
      <trkpt lat="45.85777" lon="-0.95062">
        <ele>71.741838</ele>
        <time>2022-12-22T10:01:33.558Z</time>
      </trkpt>
      <trkpt lat="45.85767" lon="-0.95064">
        <ele>71.712362</ele>
        <time>2022-12-22T10:01:36.558Z</time>
      </trkpt>
      <trkpt lat="45.85757" lon="-0.95065">
        <ele>71.683579</ele>
        <time>2022-12-22T10:01:39.558Z</time>
      </trkpt>
      <trkpt lat="45.85748" lon="-0.95067">
        <ele>71.656947</ele>
        <time>2022-12-22T10:01:42.557Z</time>
      </trkpt>
      <trkpt lat="45.85738" lon="-0.95069">
        <ele>71.628998</ele>
        <time>2022-12-22T10:01:45.555Z</time>
      </trkpt>
      <trkpt lat="45.85728" lon="-0.9507">
        <ele>71.599588</ele>
        <time>2022-12-22T10:01:48.559Z</time>
      </trkpt>
      <trkpt lat="45.85717" lon="-0.95072">
        <ele>71.568664</ele>
        <time>2022-12-22T10:01:51.559Z</time>
      </trkpt>
      <trkpt lat="45.85707" lon="-0.95074">
        <ele>71.53942</ele>
        <time>2022-12-22T10:01:54.557Z</time>
      </trkpt>
      <trkpt lat="45.85697" lon="-0.95077">
        <ele>71.510119</ele>
        <time>2022-12-22T10:01:57.542Z</time>
      </trkpt>
      <trkpt lat="45.85686" lon="-0.95079">
        <ele>71.479454</ele>
        <time>2022-12-22T10:02:00.557Z</time>
      </trkpt>
      <trkpt lat="45.85675" lon="-0.9508">
        <ele>71.446821</ele>
        <time>2022-12-22T10:02:03.562Z</time>
      </trkpt>
      <trkpt lat="45.85663" lon="-0.95082">
        <ele>71.412876</ele>
        <time>2022-12-22T10:02:06.558Z</time>
      </trkpt>
      <trkpt lat="45.85652" lon="-0.95083">
        <ele>71.360529</ele>
        <time>2022-12-22T10:02:09.557Z</time>
      </trkpt>
      <trkpt lat="45.85642" lon="-0.95085">
        <ele>71.303595</ele>
        <time>2022-12-22T10:02:12.560Z</time>
      </trkpt>
      <trkpt lat="45.85631" lon="-0.95088">
        <ele>71.242912</ele>
        <time>2022-12-22T10:02:15.560Z</time>
      </trkpt>
      <trkpt lat="45.8562" lon="-0.9509">
        <ele>71.179665</ele>
        <time>2022-12-22T10:02:18.557Z</time>
      </trkpt>
      <trkpt lat="45.85609" lon="-0.95092">
        <ele>71.113899</ele>
        <time>2022-12-22T10:02:21.554Z</time>
      </trkpt>
      <trkpt lat="45.85597" lon="-0.95094">
        <ele>71.045137</ele>
        <time>2022-12-22T10:02:24.581Z</time>
      </trkpt>
      <trkpt lat="45.85584" lon="-0.95096">
        <ele>70.974041</ele>
        <time>2022-12-22T10:02:27.550Z</time>
      </trkpt>
      <trkpt lat="45.85572" lon="-0.95099">
        <ele>70.904926</ele>
        <time>2022-12-22T10:02:30.556Z</time>
      </trkpt>
      <trkpt lat="45.85561" lon="-0.95101">
        <ele>70.841118</ele>
        <time>2022-12-22T10:02:33.559Z</time>
      </trkpt>
      <trkpt lat="45.85551" lon="-0.95103">
        <ele>70.784185</ele>
        <time>2022-12-22T10:02:36.561Z</time>
      </trkpt>
      <trkpt lat="45.8554" lon="-0.95104">
        <ele>70.723412</ele>
        <time>2022-12-22T10:02:39.553Z</time>
      </trkpt>
      <trkpt lat="45.85529" lon="-0.95107">
        <ele>70.658265</ele>
        <time>2022-12-22T10:02:42.558Z</time>
      </trkpt>
      <trkpt lat="45.85517" lon="-0.95109">
        <ele>70.589974</ele>
        <time>2022-12-22T10:02:45.559Z</time>
      </trkpt>
      <trkpt lat="45.85505" lon="-0.95111">
        <ele>70.521583</ele>
        <time>2022-12-22T10:02:48.556Z</time>
      </trkpt>
      <trkpt lat="45.85492" lon="-0.95114">
        <ele>70.449831</ele>
        <time>2022-12-22T10:02:51.558Z</time>
      </trkpt>
      <trkpt lat="45.85479" lon="-0.95116">
        <ele>70.370962</ele>
        <time>2022-12-22T10:02:54.559Z</time>
      </trkpt>
      <trkpt lat="45.85467" lon="-0.95118">
        <ele>70.231229</ele>
        <time>2022-12-22T10:02:57.544Z</time>
      </trkpt>
      <trkpt lat="45.85455" lon="-0.95121">
        <ele>70.103127</ele>
        <time>2022-12-22T10:03:00.557Z</time>
      </trkpt>
      <trkpt lat="45.85445" lon="-0.95123">
        <ele>69.99266</ele>
        <time>2022-12-22T10:03:03.558Z</time>
      </trkpt>
      <trkpt lat="45.85435" lon="-0.95125">
        <ele>69.883487</ele>
        <time>2022-12-22T10:03:06.557Z</time>
      </trkpt>
      <trkpt lat="45.85424" lon="-0.95127">
        <ele>69.763377</ele>
        <time>2022-12-22T10:03:09.560Z</time>
      </trkpt>
      <trkpt lat="45.85413" lon="-0.95128">
        <ele>69.640352</ele>
        <time>2022-12-22T10:03:12.560Z</time>
      </trkpt>
      <trkpt lat="45.85401" lon="-0.9513">
        <ele>69.506689</ele>
        <time>2022-12-22T10:03:15.559Z</time>
      </trkpt>
      <trkpt lat="45.85388" lon="-0.95127">
        <ele>69.363424</ele>
        <time>2022-12-22T10:03:18.557Z</time>
      </trkpt>
      <trkpt lat="45.85379" lon="-0.95126">
        <ele>69.264299</ele>
        <time>2022-12-22T10:03:20.555Z</time>
      </trkpt>
      <trkpt lat="45.8537" lon="-0.95123">
        <ele>69.165778</ele>
        <time>2022-12-22T10:03:22.556Z</time>
      </trkpt>
      <trkpt lat="45.85357" lon="-0.95117">
        <ele>69.021608</ele>
        <time>2022-12-22T10:03:25.535Z</time>
      </trkpt>
      <trkpt lat="45.85345" lon="-0.95109">
        <ele>68.875349</ele>
        <time>2022-12-22T10:03:28.537Z</time>
      </trkpt>
      <trkpt lat="45.85335" lon="-0.951">
        <ele>68.738858</ele>
        <time>2022-12-22T10:03:31.556Z</time>
      </trkpt>
      <trkpt lat="45.85324" lon="-0.95091">
        <ele>68.602173</ele>
        <time>2022-12-22T10:03:34.562Z</time>
      </trkpt>
      <trkpt lat="45.85314" lon="-0.95082">
        <ele>68.476631</ele>
        <time>2022-12-22T10:03:37.552Z</time>
      </trkpt>
      <trkpt lat="45.85304" lon="-0.95074">
        <ele>68.37375</ele>
        <time>2022-12-22T10:03:40.557Z</time>
      </trkpt>
      <trkpt lat="45.85294" lon="-0.95064">
        <ele>68.28556</ele>
        <time>2022-12-22T10:03:43.557Z</time>
      </trkpt>
      <trkpt lat="45.85283" lon="-0.95055">
        <ele>68.196497</ele>
        <time>2022-12-22T10:03:46.534Z</time>
      </trkpt>
      <trkpt lat="45.85272" lon="-0.95046">
        <ele>68.106511</ele>
        <time>2022-12-22T10:03:49.560Z</time>
      </trkpt>
      <trkpt lat="45.85261" lon="-0.95036">
        <ele>68.014289</ele>
        <time>2022-12-22T10:03:52.556Z</time>
      </trkpt>
      <trkpt lat="45.85251" lon="-0.95027">
        <ele>67.924787</ele>
        <time>2022-12-22T10:03:55.560Z</time>
      </trkpt>
      <trkpt lat="45.8524" lon="-0.95017">
        <ele>67.834506</ele>
        <time>2022-12-22T10:03:58.569Z</time>
      </trkpt>
      <trkpt lat="45.8523" lon="-0.95009">
        <ele>67.751864</ele>
        <time>2022-12-22T10:04:01.556Z</time>
      </trkpt>
      <trkpt lat="45.85221" lon="-0.95">
        <ele>67.673723</ele>
        <time>2022-12-22T10:04:04.555Z</time>
      </trkpt>
      <trkpt lat="45.85211" lon="-0.94991">
        <ele>67.589291</ele>
        <time>2022-12-22T10:04:07.540Z</time>
      </trkpt>
      <trkpt lat="45.852" lon="-0.94982">
        <ele>67.498555</ele>
        <time>2022-12-22T10:04:10.543Z</time>
      </trkpt>
      <trkpt lat="45.85189" lon="-0.94973">
        <ele>67.404836</ele>
        <time>2022-12-22T10:04:13.547Z</time>
      </trkpt>
      <trkpt lat="45.85178" lon="-0.94963">
        <ele>67.310356</ele>
        <time>2022-12-22T10:04:16.553Z</time>
      </trkpt>
      <trkpt lat="45.8517" lon="-0.94956">
        <ele>67.244609</ele>
        <time>2022-12-22T10:04:18.543Z</time>
      </trkpt>
      <trkpt lat="45.85158" lon="-0.94947">
        <ele>67.15089</ele>
        <time>2022-12-22T10:04:21.535Z</time>
      </trkpt>
      <trkpt lat="45.85148" lon="-0.94938">
        <ele>67.107123</ele>
        <time>2022-12-22T10:04:24.555Z</time>
      </trkpt>
      <trkpt lat="45.85138" lon="-0.9493">
        <ele>67.080747</ele>
        <time>2022-12-22T10:04:27.539Z</time>
      </trkpt>
      <trkpt lat="45.85128" lon="-0.94921">
        <ele>67.053529</ele>
        <time>2022-12-22T10:04:30.558Z</time>
      </trkpt>
      <trkpt lat="45.85117" lon="-0.94912">
        <ele>67.023898</ele>
        <time>2022-12-22T10:04:33.554Z</time>
      </trkpt>
      <trkpt lat="45.85105" lon="-0.94904">
        <ele>66.994318</ele>
        <time>2022-12-22T10:04:36.558Z</time>
      </trkpt>
      <trkpt lat="45.85094" lon="-0.94898">
        <ele>66.965342</ele>
        <time>2022-12-22T10:04:39.537Z</time>
      </trkpt>
      <trkpt lat="45.85081" lon="-0.94892">
        <ele>66.935439</ele>
        <time>2022-12-22T10:04:42.555Z</time>
      </trkpt>
      <trkpt lat="45.85069" lon="-0.94887">
        <ele>66.906471</ele>
        <time>2022-12-22T10:04:45.555Z</time>
      </trkpt>
      <trkpt lat="45.85058" lon="-0.94883">
        <ele>66.878369</ele>
        <time>2022-12-22T10:04:48.554Z</time>
      </trkpt>
      <trkpt lat="45.85046" lon="-0.94879">
        <ele>66.849965</ele>
        <time>2022-12-22T10:04:51.561Z</time>
      </trkpt>
      <trkpt lat="45.85034" lon="-0.94874">
        <ele>66.821265</ele>
        <time>2022-12-22T10:04:54.558Z</time>
      </trkpt>
      <trkpt lat="45.85022" lon="-0.94869">
        <ele>66.792696</ele>
        <time>2022-12-22T10:04:57.536Z</time>
      </trkpt>
      <trkpt lat="45.8501" lon="-0.94865">
        <ele>66.764516</ele>
        <time>2022-12-22T10:05:00.553Z</time>
      </trkpt>
      <trkpt lat="45.84998" lon="-0.9486">
        <ele>66.736128</ele>
        <time>2022-12-22T10:05:03.549Z</time>
      </trkpt>
      <trkpt lat="45.84987" lon="-0.94856">
        <ele>66.712329</ele>
        <time>2022-12-22T10:05:06.558Z</time>
      </trkpt>
      <trkpt lat="45.84976" lon="-0.94852">
        <ele>66.725633</ele>
        <time>2022-12-22T10:05:09.557Z</time>
      </trkpt>
      <trkpt lat="45.84967" lon="-0.94848">
        <ele>66.737767</ele>
        <time>2022-12-22T10:05:12.559Z</time>
      </trkpt>
      <trkpt lat="45.84957" lon="-0.94844">
        <ele>66.750916</ele>
        <time>2022-12-22T10:05:15.560Z</time>
      </trkpt>
      <trkpt lat="45.84947" lon="-0.94841">
        <ele>66.764505</ele>
        <time>2022-12-22T10:05:18.551Z</time>
      </trkpt>
      <trkpt lat="45.84936" lon="-0.94837">
        <ele>66.778724</ele>
        <time>2022-12-22T10:05:21.555Z</time>
      </trkpt>
      <trkpt lat="45.84924" lon="-0.94832">
        <ele>66.793373</ele>
        <time>2022-12-22T10:05:24.560Z</time>
      </trkpt>
      <trkpt lat="45.84913" lon="-0.94828">
        <ele>66.807582</ele>
        <time>2022-12-22T10:05:27.550Z</time>
      </trkpt>
      <trkpt lat="45.84904" lon="-0.94824">
        <ele>66.819766</ele>
        <time>2022-12-22T10:05:30.558Z</time>
      </trkpt>
      <trkpt lat="45.84894" lon="-0.9482">
        <ele>66.832483</ele>
        <time>2022-12-22T10:05:33.559Z</time>
      </trkpt>
      <trkpt lat="45.84884" lon="-0.94815">
        <ele>66.845978</ele>
        <time>2022-12-22T10:05:36.556Z</time>
      </trkpt>
      <trkpt lat="45.84874" lon="-0.94809">
        <ele>66.860097</ele>
        <time>2022-12-22T10:05:39.556Z</time>
      </trkpt>
      <trkpt lat="45.84864" lon="-0.94803">
        <ele>66.873687</ele>
        <time>2022-12-22T10:05:42.560Z</time>
      </trkpt>
      <trkpt lat="45.84855" lon="-0.94797">
        <ele>66.886028</ele>
        <time>2022-12-22T10:05:45.541Z</time>
      </trkpt>
      <trkpt lat="45.84846" lon="-0.94791">
        <ele>66.898027</ele>
        <time>2022-12-22T10:05:48.557Z</time>
      </trkpt>
      <trkpt lat="45.84838" lon="-0.94784">
        <ele>66.910224</ele>
        <time>2022-12-22T10:05:51.563Z</time>
      </trkpt>
      <trkpt lat="45.84829" lon="-0.94777">
        <ele>66.922947</ele>
        <time>2022-12-22T10:05:54.558Z</time>
      </trkpt>
      <trkpt lat="45.84819" lon="-0.94771">
        <ele>66.936533</ele>
        <time>2022-12-22T10:05:57.536Z</time>
      </trkpt>
      <trkpt lat="45.84809" lon="-0.94763">
        <ele>66.731413</ele>
        <time>2022-12-22T10:06:00.557Z</time>
      </trkpt>
      <trkpt lat="45.848" lon="-0.94756">
        <ele>66.521518</ele>
        <time>2022-12-22T10:06:03.555Z</time>
      </trkpt>
      <trkpt lat="45.8479" lon="-0.94749">
        <ele>66.310111</ele>
        <time>2022-12-22T10:06:06.559Z</time>
      </trkpt>
      <trkpt lat="45.8478" lon="-0.94742">
        <ele>66.097884</ele>
        <time>2022-12-22T10:06:09.558Z</time>
      </trkpt>
      <trkpt lat="45.84771" lon="-0.94734">
        <ele>65.887536</ele>
        <time>2022-12-22T10:06:12.558Z</time>
      </trkpt>
      <trkpt lat="45.84761" lon="-0.94727">
        <ele>65.678896</ele>
        <time>2022-12-22T10:06:15.560Z</time>
      </trkpt>
      <trkpt lat="45.84751" lon="-0.9472">
        <ele>65.465599</ele>
        <time>2022-12-22T10:06:18.538Z</time>
      </trkpt>
      <trkpt lat="45.84741" lon="-0.94712">
        <ele>65.235536</ele>
        <time>2022-12-22T10:06:21.559Z</time>
      </trkpt>
      <trkpt lat="45.84729" lon="-0.94704">
        <ele>64.983548</ele>
        <time>2022-12-22T10:06:24.557Z</time>
      </trkpt>
      <trkpt lat="45.8472" lon="-0.94697">
        <ele>64.79973</ele>
        <time>2022-12-22T10:06:26.559Z</time>
      </trkpt>
      <trkpt lat="45.84711" lon="-0.9469">
        <ele>64.596969</ele>
        <time>2022-12-22T10:06:28.536Z</time>
      </trkpt>
      <trkpt lat="45.84702" lon="-0.94683">
        <ele>64.398097</ele>
        <time>2022-12-22T10:06:30.558Z</time>
      </trkpt>
      <trkpt lat="45.84692" lon="-0.94676">
        <ele>64.187129</ele>
        <time>2022-12-22T10:06:32.560Z</time>
      </trkpt>
      <trkpt lat="45.84682" lon="-0.94669">
        <ele>63.971087</ele>
        <time>2022-12-22T10:06:34.558Z</time>
      </trkpt>
      <trkpt lat="45.84672" lon="-0.94663">
        <ele>63.760725</ele>
        <time>2022-12-22T10:06:36.541Z</time>
      </trkpt>
      <trkpt lat="45.84662" lon="-0.94657">
        <ele>63.548893</ele>
        <time>2022-12-22T10:06:38.555Z</time>
      </trkpt>
      <trkpt lat="45.84652" lon="-0.94651">
        <ele>63.488742</ele>
        <time>2022-12-22T10:06:40.557Z</time>
      </trkpt>
      <trkpt lat="45.84643" lon="-0.94646">
        <ele>63.516219</ele>
        <time>2022-12-22T10:06:42.559Z</time>
      </trkpt>
      <trkpt lat="45.84634" lon="-0.94642">
        <ele>63.541904</ele>
        <time>2022-12-22T10:06:44.546Z</time>
      </trkpt>
      <trkpt lat="45.84621" lon="-0.94638">
        <ele>63.577771</ele>
        <time>2022-12-22T10:06:47.555Z</time>
      </trkpt>
      <trkpt lat="45.84608" lon="-0.94635">
        <ele>63.612195</ele>
        <time>2022-12-22T10:06:50.563Z</time>
      </trkpt>
      <trkpt lat="45.84597" lon="-0.94633">
        <ele>63.641846</ele>
        <time>2022-12-22T10:06:53.556Z</time>
      </trkpt>
      <trkpt lat="45.84587" lon="-0.94632">
        <ele>63.668911</ele>
        <time>2022-12-22T10:06:56.555Z</time>
      </trkpt>
      <trkpt lat="45.84576" lon="-0.94631">
        <ele>63.698388</ele>
        <time>2022-12-22T10:06:59.555Z</time>
      </trkpt>
      <trkpt lat="45.84564" lon="-0.94629">
        <ele>63.729032</ele>
        <time>2022-12-22T10:07:02.559Z</time>
      </trkpt>
      <trkpt lat="45.84553" lon="-0.94627">
        <ele>63.760474</ele>
        <time>2022-12-22T10:07:05.563Z</time>
      </trkpt>
      <trkpt lat="45.84541" lon="-0.94626">
        <ele>63.792181</ele>
        <time>2022-12-22T10:07:08.558Z</time>
      </trkpt>
      <trkpt lat="45.8453" lon="-0.94624">
        <ele>63.822206</ele>
        <time>2022-12-22T10:07:11.560Z</time>
      </trkpt>
      <trkpt lat="45.84519" lon="-0.94622">
        <ele>63.850322</ele>
        <time>2022-12-22T10:07:14.557Z</time>
      </trkpt>
      <trkpt lat="45.84509" lon="-0.94618">
        <ele>63.87919</ele>
        <time>2022-12-22T10:07:17.537Z</time>
      </trkpt>
      <trkpt lat="45.84498" lon="-0.94613">
        <ele>63.90847</ele>
        <time>2022-12-22T10:07:20.561Z</time>
      </trkpt>
      <trkpt lat="45.84488" lon="-0.94608">
        <ele>63.938149</ele>
        <time>2022-12-22T10:07:23.558Z</time>
      </trkpt>
      <trkpt lat="45.84478" lon="-0.94603">
        <ele>63.961412</ele>
        <time>2022-12-22T10:07:26.557Z</time>
      </trkpt>
      <trkpt lat="45.84467" lon="-0.94596">
        <ele>63.981646</ele>
        <time>2022-12-22T10:07:30.558Z</time>
      </trkpt>
      <trkpt lat="45.84456" lon="-0.9459">
        <ele>64.001358</ele>
        <time>2022-12-22T10:07:34.560Z</time>
      </trkpt>
      <trkpt lat="45.84445" lon="-0.94584">
        <ele>64.021347</ele>
        <time>2022-12-22T10:07:38.549Z</time>
      </trkpt>
      <trkpt lat="45.84435" lon="-0.94578">
        <ele>64.040242</ele>
        <time>2022-12-22T10:07:42.560Z</time>
      </trkpt>
      <trkpt lat="45.84426" lon="-0.94572">
        <ele>64.058075</ele>
        <time>2022-12-22T10:07:46.530Z</time>
      </trkpt>
      <trkpt lat="45.84415" lon="-0.94569">
        <ele>64.076957</ele>
        <time>2022-12-22T10:07:50.536Z</time>
      </trkpt>
      <trkpt lat="45.84404" lon="-0.94566">
        <ele>64.096685</ele>
        <time>2022-12-22T10:07:54.567Z</time>
      </trkpt>
      <trkpt lat="45.84392" lon="-0.94563">
        <ele>64.11691</ele>
        <time>2022-12-22T10:07:58.557Z</time>
      </trkpt>
      <trkpt lat="45.84383" lon="-0.94561">
        <ele>64.132879</ele>
        <time>2022-12-22T10:08:01.559Z</time>
      </trkpt>
      <trkpt lat="45.84373" lon="-0.94559">
        <ele>64.149049</ele>
        <time>2022-12-22T10:08:04.542Z</time>
      </trkpt>
      <trkpt lat="45.84364" lon="-0.94558">
        <ele>64.165218</ele>
        <time>2022-12-22T10:08:07.546Z</time>
      </trkpt>
      <trkpt lat="45.84354" lon="-0.94557">
        <ele>64.182025</ele>
        <time>2022-12-22T10:08:10.563Z</time>
      </trkpt>
      <trkpt lat="45.84343" lon="-0.94557">
        <ele>64.200349</ele>
        <time>2022-12-22T10:08:13.556Z</time>
      </trkpt>
      <trkpt lat="45.84333" lon="-0.94557">
        <ele>64.218156</ele>
        <time>2022-12-22T10:08:16.557Z</time>
      </trkpt>
      <trkpt lat="45.84323" lon="-0.94557">
        <ele>64.235793</ele>
        <time>2022-12-22T10:08:19.555Z</time>
      </trkpt>
      <trkpt lat="45.84312" lon="-0.94558">
        <ele>64.253962</ele>
        <time>2022-12-22T10:08:22.546Z</time>
      </trkpt>
      <trkpt lat="45.84302" lon="-0.94558">
        <ele>64.324686</ele>
        <time>2022-12-22T10:08:25.535Z</time>
      </trkpt>
      <trkpt lat="45.84292" lon="-0.94559">
        <ele>64.428612</ele>
        <time>2022-12-22T10:08:28.536Z</time>
      </trkpt>
      <trkpt lat="45.84282" lon="-0.9456">
        <ele>64.529373</ele>
        <time>2022-12-22T10:08:31.556Z</time>
      </trkpt>
      <trkpt lat="45.84272" lon="-0.9456">
        <ele>64.628956</ele>
        <time>2022-12-22T10:08:34.568Z</time>
      </trkpt>
      <trkpt lat="45.84263" lon="-0.94561">
        <ele>64.72968</ele>
        <time>2022-12-22T10:08:37.554Z</time>
      </trkpt>
      <trkpt lat="45.84253" lon="-0.94561">
        <ele>64.828229</ele>
        <time>2022-12-22T10:08:40.560Z</time>
      </trkpt>
      <trkpt lat="45.84243" lon="-0.94561">
        <ele>64.926775</ele>
        <time>2022-12-22T10:08:43.558Z</time>
      </trkpt>
      <trkpt lat="45.84233" lon="-0.94561">
        <ele>65.02945</ele>
        <time>2022-12-22T10:08:46.561Z</time>
      </trkpt>
      <trkpt lat="45.84223" lon="-0.94562">
        <ele>65.133483</ele>
        <time>2022-12-22T10:08:49.533Z</time>
      </trkpt>
      <trkpt lat="45.84213" lon="-0.94566">
        <ele>65.240642</ele>
        <time>2022-12-22T10:08:52.535Z</time>
      </trkpt>
      <trkpt lat="45.84203" lon="-0.94574">
        <ele>65.364111</ele>
        <time>2022-12-22T10:08:55.557Z</time>
      </trkpt>
      <trkpt lat="45.84192" lon="-0.94581">
        <ele>65.484797</ele>
        <time>2022-12-22T10:08:58.559Z</time>
      </trkpt>
      <trkpt lat="45.84182" lon="-0.94589">
        <ele>65.600557</ele>
        <time>2022-12-22T10:09:01.560Z</time>
      </trkpt>
      <trkpt lat="45.84172" lon="-0.94595">
        <ele>65.716307</ele>
        <time>2022-12-22T10:09:04.562Z</time>
      </trkpt>
      <trkpt lat="45.84163" lon="-0.94602">
        <ele>65.819709</ele>
        <time>2022-12-22T10:09:07.547Z</time>
      </trkpt>
      <trkpt lat="45.84154" lon="-0.94607">
        <ele>65.915714</ele>
        <time>2022-12-22T10:09:10.559Z</time>
      </trkpt>
      <trkpt lat="45.84143" lon="-0.94614">
        <ele>66.035654</ele>
        <time>2022-12-22T10:09:14.563Z</time>
      </trkpt>
      <trkpt lat="45.84133" lon="-0.94621">
        <ele>66.050346</ele>
        <time>2022-12-22T10:09:18.560Z</time>
      </trkpt>
      <trkpt lat="45.84123" lon="-0.94628">
        <ele>65.903177</ele>
        <time>2022-12-22T10:09:22.553Z</time>
      </trkpt>
      <trkpt lat="45.84113" lon="-0.94637">
        <ele>65.756982</ele>
        <time>2022-12-22T10:09:26.547Z</time>
      </trkpt>
      <trkpt lat="45.84104" lon="-0.94645">
        <ele>65.62529</ele>
        <time>2022-12-22T10:09:30.556Z</time>
      </trkpt>
      <trkpt lat="45.84095" lon="-0.94654">
        <ele>65.485723</ele>
        <time>2022-12-22T10:09:34.545Z</time>
      </trkpt>
      <trkpt lat="45.84085" lon="-0.94663">
        <ele>65.337347</ele>
        <time>2022-12-22T10:09:38.539Z</time>
      </trkpt>
      <trkpt lat="45.84076" lon="-0.94671">
        <ele>65.203489</ele>
        <time>2022-12-22T10:09:42.557Z</time>
      </trkpt>
      <trkpt lat="45.84067" lon="-0.94681">
        <ele>65.061996</ele>
        <time>2022-12-22T10:09:46.540Z</time>
      </trkpt>
      <trkpt lat="45.8406" lon="-0.94688">
        <ele>64.946835</ele>
        <time>2022-12-22T10:09:49.560Z</time>
      </trkpt>
      <trkpt lat="45.84052" lon="-0.94696">
        <ele>64.825443</ele>
        <time>2022-12-22T10:09:52.555Z</time>
      </trkpt>
      <trkpt lat="45.84044" lon="-0.94704">
        <ele>64.691657</ele>
        <time>2022-12-22T10:09:55.560Z</time>
      </trkpt>
      <trkpt lat="45.84034" lon="-0.94714">
        <ele>64.540183</ele>
        <time>2022-12-22T10:09:58.559Z</time>
      </trkpt>
      <trkpt lat="45.84022" lon="-0.94722">
        <ele>64.369678</ele>
        <time>2022-12-22T10:10:01.564Z</time>
      </trkpt>
      <trkpt lat="45.84013" lon="-0.94728">
        <ele>64.249628</ele>
        <time>2022-12-22T10:10:03.555Z</time>
      </trkpt>
      <trkpt lat="45.84004" lon="-0.94732">
        <ele>64.129674</ele>
        <time>2022-12-22T10:10:05.558Z</time>
      </trkpt>
      <trkpt lat="45.83995" lon="-0.94736">
        <ele>64.007225</ele>
        <time>2022-12-22T10:10:07.545Z</time>
      </trkpt>
      <trkpt lat="45.83985" lon="-0.94739">
        <ele>63.881617</ele>
        <time>2022-12-22T10:10:09.556Z</time>
      </trkpt>
      <trkpt lat="45.83975" lon="-0.94742">
        <ele>63.775448</ele>
        <time>2022-12-22T10:10:11.538Z</time>
      </trkpt>
      <trkpt lat="45.83966" lon="-0.94742">
        <ele>63.698399</ele>
        <time>2022-12-22T10:10:13.558Z</time>
      </trkpt>
      <trkpt lat="45.83957" lon="-0.94741">
        <ele>63.620462</ele>
        <time>2022-12-22T10:10:15.542Z</time>
      </trkpt>
      <trkpt lat="45.83947" lon="-0.9474">
        <ele>63.543038</ele>
        <time>2022-12-22T10:10:17.537Z</time>
      </trkpt>
      <trkpt lat="45.83938" lon="-0.94738">
        <ele>63.464503</ele>
        <time>2022-12-22T10:10:19.557Z</time>
      </trkpt>
      <trkpt lat="45.83925" lon="-0.94734">
        <ele>63.355934</ele>
        <time>2022-12-22T10:10:22.539Z</time>
      </trkpt>
      <trkpt lat="45.83914" lon="-0.94729">
        <ele>63.253925</ele>
        <time>2022-12-22T10:10:25.562Z</time>
      </trkpt>
      <trkpt lat="45.83903" lon="-0.94722">
        <ele>63.157911</ele>
        <time>2022-12-22T10:10:28.542Z</time>
      </trkpt>
      <trkpt lat="45.83893" lon="-0.94715">
        <ele>63.066042</ele>
        <time>2022-12-22T10:10:31.557Z</time>
      </trkpt>
      <trkpt lat="45.83884" lon="-0.94706">
        <ele>62.96859</ele>
        <time>2022-12-22T10:10:34.559Z</time>
      </trkpt>
      <trkpt lat="45.83874" lon="-0.94696">
        <ele>62.866564</ele>
        <time>2022-12-22T10:10:37.546Z</time>
      </trkpt>
      <trkpt lat="45.83864" lon="-0.94684">
        <ele>62.761806</ele>
        <time>2022-12-22T10:10:40.559Z</time>
      </trkpt>
      <trkpt lat="45.83855" lon="-0.94672">
        <ele>62.654963</ele>
        <time>2022-12-22T10:10:43.556Z</time>
      </trkpt>
      <trkpt lat="45.83846" lon="-0.94659">
        <ele>62.55056</ele>
        <time>2022-12-22T10:10:46.557Z</time>
      </trkpt>
      <trkpt lat="45.83838" lon="-0.94647">
        <ele>62.451556</ele>
        <time>2022-12-22T10:10:49.558Z</time>
      </trkpt>
      <trkpt lat="45.83829" lon="-0.94635">
        <ele>62.352965</ele>
        <time>2022-12-22T10:10:52.561Z</time>
      </trkpt>
      <trkpt lat="45.83822" lon="-0.94623">
        <ele>62.175516</ele>
        <time>2022-12-22T10:10:55.557Z</time>
      </trkpt>
      <trkpt lat="45.83814" lon="-0.94612">
        <ele>61.95663</ele>
        <time>2022-12-22T10:10:58.558Z</time>
      </trkpt>
      <trkpt lat="45.83807" lon="-0.94601">
        <ele>61.75476</ele>
        <time>2022-12-22T10:11:01.540Z</time>
      </trkpt>
      <trkpt lat="45.838" lon="-0.94591">
        <ele>61.563084</ele>
        <time>2022-12-22T10:11:04.560Z</time>
      </trkpt>
      <trkpt lat="45.83793" lon="-0.94581">
        <ele>61.352681</ele>
        <time>2022-12-22T10:11:07.548Z</time>
      </trkpt>
      <trkpt lat="45.83785" lon="-0.94569">
        <ele>61.121986</ele>
        <time>2022-12-22T10:11:10.557Z</time>
      </trkpt>
      <trkpt lat="45.83776" lon="-0.94558">
        <ele>60.893698</ele>
        <time>2022-12-22T10:11:13.553Z</time>
      </trkpt>
      <trkpt lat="45.83769" lon="-0.94548">
        <ele>60.684256</ele>
        <time>2022-12-22T10:11:16.558Z</time>
      </trkpt>
      <trkpt lat="45.83761" lon="-0.94538">
        <ele>60.476721</ele>
        <time>2022-12-22T10:11:19.562Z</time>
      </trkpt>
      <trkpt lat="45.83754" lon="-0.94528">
        <ele>60.287551</ele>
        <time>2022-12-22T10:11:22.559Z</time>
      </trkpt>
      <trkpt lat="45.83747" lon="-0.94517">
        <ele>60.068881</ele>
        <time>2022-12-22T10:11:26.552Z</time>
      </trkpt>
      <trkpt lat="45.83731" lon="-0.94495">
        <ele>59.626824</ele>
        <time>2022-12-22T10:13:35.560Z</time>
      </trkpt>
      <trkpt lat="45.83722" lon="-0.94483">
        <ele>59.383556</ele>
        <time>2022-12-22T10:13:38.555Z</time>
      </trkpt>
      <trkpt lat="45.83714" lon="-0.94469">
        <ele>59.131262</ele>
        <time>2022-12-22T10:13:41.559Z</time>
      </trkpt>
      <trkpt lat="45.83705" lon="-0.94456">
        <ele>58.877947</ele>
        <time>2022-12-22T10:13:44.551Z</time>
      </trkpt>
      <trkpt lat="45.83696" lon="-0.94444">
        <ele>58.574156</ele>
        <time>2022-12-22T10:13:47.550Z</time>
      </trkpt>
      <trkpt lat="45.83687" lon="-0.94431">
        <ele>58.192559</ele>
        <time>2022-12-22T10:13:50.560Z</time>
      </trkpt>
      <trkpt lat="45.83677" lon="-0.94418">
        <ele>57.797144</ele>
        <time>2022-12-22T10:13:53.562Z</time>
      </trkpt>
      <trkpt lat="45.83667" lon="-0.94406">
        <ele>57.39357</ele>
        <time>2022-12-22T10:13:56.563Z</time>
      </trkpt>
      <trkpt lat="45.83658" lon="-0.94391">
        <ele>56.973696</ele>
        <time>2022-12-22T10:13:59.559Z</time>
      </trkpt>
      <trkpt lat="45.83651" lon="-0.94381">
        <ele>56.662575</ele>
        <time>2022-12-22T10:14:01.540Z</time>
      </trkpt>
      <trkpt lat="45.83643" lon="-0.94371">
        <ele>56.35522</ele>
        <time>2022-12-22T10:14:03.557Z</time>
      </trkpt>
      <trkpt lat="45.83636" lon="-0.9436">
        <ele>56.027983</ele>
        <time>2022-12-22T10:14:05.559Z</time>
      </trkpt>
      <trkpt lat="45.83628" lon="-0.94349">
        <ele>55.697091</ele>
        <time>2022-12-22T10:14:07.547Z</time>
      </trkpt>
      <trkpt lat="45.8362" lon="-0.94339">
        <ele>55.359211</ele>
        <time>2022-12-22T10:14:09.550Z</time>
      </trkpt>
      <trkpt lat="45.83612" lon="-0.94329">
        <ele>55.064188</ele>
        <time>2022-12-22T10:14:11.558Z</time>
      </trkpt>
      <trkpt lat="45.83604" lon="-0.94318">
        <ele>54.706949</ele>
        <time>2022-12-22T10:14:13.560Z</time>
      </trkpt>
      <trkpt lat="45.83596" lon="-0.94308">
        <ele>54.370451</ele>
        <time>2022-12-22T10:14:15.543Z</time>
      </trkpt>
      <trkpt lat="45.83588" lon="-0.94297">
        <ele>54.04538</ele>
        <time>2022-12-22T10:14:17.549Z</time>
      </trkpt>
      <trkpt lat="45.83579" lon="-0.94287">
        <ele>53.699528</ele>
        <time>2022-12-22T10:14:19.557Z</time>
      </trkpt>
      <trkpt lat="45.8357" lon="-0.94277">
        <ele>53.355269</ele>
        <time>2022-12-22T10:14:21.559Z</time>
      </trkpt>
      <trkpt lat="45.83561" lon="-0.94267">
        <ele>53.20163</ele>
        <time>2022-12-22T10:14:23.560Z</time>
      </trkpt>
      <trkpt lat="45.83552" lon="-0.94258">
        <ele>53.15285</ele>
        <time>2022-12-22T10:14:25.550Z</time>
      </trkpt>
      <trkpt lat="45.83544" lon="-0.94251">
        <ele>53.10894</ele>
        <time>2022-12-22T10:14:27.553Z</time>
      </trkpt>
      <trkpt lat="45.83536" lon="-0.94243">
        <ele>53.064353</ele>
        <time>2022-12-22T10:14:29.558Z</time>
      </trkpt>
      <trkpt lat="45.83528" lon="-0.94236">
        <ele>53.022342</ele>
        <time>2022-12-22T10:14:31.538Z</time>
      </trkpt>
      <trkpt lat="45.83519" lon="-0.94231">
        <ele>52.981007</ele>
        <time>2022-12-22T10:14:33.558Z</time>
      </trkpt>
      <trkpt lat="45.83507" lon="-0.94223">
        <ele>52.921176</ele>
        <time>2022-12-22T10:14:36.560Z</time>
      </trkpt>
      <trkpt lat="45.83495" lon="-0.94215">
        <ele>52.860311</ele>
        <time>2022-12-22T10:14:39.558Z</time>
      </trkpt>
      <trkpt lat="45.83482" lon="-0.94208">
        <ele>52.799822</ele>
        <time>2022-12-22T10:14:42.555Z</time>
      </trkpt>
      <trkpt lat="45.83472" lon="-0.94203">
        <ele>52.754206</ele>
        <time>2022-12-22T10:14:44.563Z</time>
      </trkpt>
      <trkpt lat="45.83462" lon="-0.942">
        <ele>52.707615</ele>
        <time>2022-12-22T10:14:46.556Z</time>
      </trkpt>
      <trkpt lat="45.83452" lon="-0.94196">
        <ele>52.661533</ele>
        <time>2022-12-22T10:14:48.558Z</time>
      </trkpt>
      <trkpt lat="45.83441" lon="-0.94193">
        <ele>52.610246</ele>
        <time>2022-12-22T10:14:50.554Z</time>
      </trkpt>
      <trkpt lat="45.83429" lon="-0.94191">
        <ele>52.558263</ele>
        <time>2022-12-22T10:14:52.538Z</time>
      </trkpt>
      <trkpt lat="45.83417" lon="-0.9419">
        <ele>52.50389</ele>
        <time>2022-12-22T10:14:54.534Z</time>
      </trkpt>
      <trkpt lat="45.83405" lon="-0.94189">
        <ele>52.450162</ele>
        <time>2022-12-22T10:14:56.557Z</time>
      </trkpt>
      <trkpt lat="45.83395" lon="-0.94188">
        <ele>52.438786</ele>
        <time>2022-12-22T10:14:58.550Z</time>
      </trkpt>
      <trkpt lat="45.83383" lon="-0.94188">
        <ele>52.460334</ele>
        <time>2022-12-22T10:15:00.558Z</time>
      </trkpt>
      <trkpt lat="45.83372" lon="-0.94188">
        <ele>52.481701</ele>
        <time>2022-12-22T10:15:02.557Z</time>
      </trkpt>
      <trkpt lat="45.83362" lon="-0.9419">
        <ele>52.501458</ele>
        <time>2022-12-22T10:15:04.560Z</time>
      </trkpt>
      <trkpt lat="45.83351" lon="-0.94191">
        <ele>52.522107</ele>
        <time>2022-12-22T10:15:06.560Z</time>
      </trkpt>
      <trkpt lat="45.83341" lon="-0.94192">
        <ele>52.542373</ele>
        <time>2022-12-22T10:15:08.557Z</time>
      </trkpt>
      <trkpt lat="45.83331" lon="-0.94194">
        <ele>52.561954</ele>
        <time>2022-12-22T10:15:10.553Z</time>
      </trkpt>
      <trkpt lat="45.83321" lon="-0.94197">
        <ele>52.581272</ele>
        <time>2022-12-22T10:15:12.560Z</time>
      </trkpt>
      <trkpt lat="45.83311" lon="-0.94198">
        <ele>52.60087</ele>
        <time>2022-12-22T10:15:14.557Z</time>
      </trkpt>
      <trkpt lat="45.83301" lon="-0.94201">
        <ele>52.620545</ele>
        <time>2022-12-22T10:15:16.560Z</time>
      </trkpt>
      <trkpt lat="45.83291" lon="-0.94202">
        <ele>52.63965</ele>
        <time>2022-12-22T10:15:18.553Z</time>
      </trkpt>
      <trkpt lat="45.83281" lon="-0.94203">
        <ele>52.659138</ele>
        <time>2022-12-22T10:15:20.553Z</time>
      </trkpt>
      <trkpt lat="45.83271" lon="-0.94204">
        <ele>52.678661</ele>
        <time>2022-12-22T10:15:22.555Z</time>
      </trkpt>
      <trkpt lat="45.83257" lon="-0.94207">
        <ele>52.704904</ele>
        <time>2022-12-22T10:15:25.559Z</time>
      </trkpt>
      <trkpt lat="45.83245" lon="-0.94209">
        <ele>52.729075</ele>
        <time>2022-12-22T10:15:28.561Z</time>
      </trkpt>
      <trkpt lat="45.83233" lon="-0.94212">
        <ele>52.751093</ele>
        <time>2022-12-22T10:15:31.562Z</time>
      </trkpt>
      <trkpt lat="45.83222" lon="-0.94214">
        <ele>52.772922</ele>
        <time>2022-12-22T10:15:34.558Z</time>
      </trkpt>
      <trkpt lat="45.83211" lon="-0.94216">
        <ele>52.811658</ele>
        <time>2022-12-22T10:15:37.544Z</time>
      </trkpt>
      <trkpt lat="45.832" lon="-0.94218">
        <ele>52.849936</ele>
        <time>2022-12-22T10:15:40.557Z</time>
      </trkpt>
      <trkpt lat="45.83189" lon="-0.94219">
        <ele>52.888875</ele>
        <time>2022-12-22T10:15:43.559Z</time>
      </trkpt>
      <trkpt lat="45.83177" lon="-0.94221">
        <ele>52.929559</ele>
        <time>2022-12-22T10:15:46.560Z</time>
      </trkpt>
      <trkpt lat="45.83165" lon="-0.94223">
        <ele>52.971385</ele>
        <time>2022-12-22T10:15:49.560Z</time>
      </trkpt>
      <trkpt lat="45.83153" lon="-0.94226">
        <ele>53.013898</ele>
        <time>2022-12-22T10:15:52.564Z</time>
      </trkpt>
      <trkpt lat="45.83141" lon="-0.94227">
        <ele>53.055269</ele>
        <time>2022-12-22T10:15:55.558Z</time>
      </trkpt>
      <trkpt lat="45.83129" lon="-0.94229">
        <ele>53.097304</ele>
        <time>2022-12-22T10:15:58.557Z</time>
      </trkpt>
      <trkpt lat="45.83116" lon="-0.94231">
        <ele>53.139787</ele>
        <time>2022-12-22T10:16:01.560Z</time>
      </trkpt>
      <trkpt lat="45.83104" lon="-0.94233">
        <ele>53.183273</ele>
        <time>2022-12-22T10:16:04.561Z</time>
      </trkpt>
      <trkpt lat="45.83091" lon="-0.94235">
        <ele>53.227816</ele>
        <time>2022-12-22T10:16:07.542Z</time>
      </trkpt>
      <trkpt lat="45.83078" lon="-0.94238">
        <ele>53.272417</ele>
        <time>2022-12-22T10:16:10.557Z</time>
      </trkpt>
      <trkpt lat="45.83065" lon="-0.94239">
        <ele>53.317145</ele>
        <time>2022-12-22T10:16:13.558Z</time>
      </trkpt>
      <trkpt lat="45.83053" lon="-0.94241">
        <ele>53.360717</ele>
        <time>2022-12-22T10:16:16.558Z</time>
      </trkpt>
      <trkpt lat="45.83041" lon="-0.94243">
        <ele>53.440893</ele>
        <time>2022-12-22T10:16:19.560Z</time>
      </trkpt>
      <trkpt lat="45.83029" lon="-0.94244">
        <ele>53.690967</ele>
        <time>2022-12-22T10:16:22.558Z</time>
      </trkpt>
      <trkpt lat="45.83019" lon="-0.94247">
        <ele>53.918531</ele>
        <time>2022-12-22T10:16:25.542Z</time>
      </trkpt>
      <trkpt lat="45.83009" lon="-0.94249">
        <ele>54.146535</ele>
        <time>2022-12-22T10:16:28.556Z</time>
      </trkpt>
      <trkpt lat="45.82998" lon="-0.9425">
        <ele>54.368554</ele>
        <time>2022-12-22T10:16:31.567Z</time>
      </trkpt>
      <trkpt lat="45.82988" lon="-0.94252">
        <ele>54.585179</ele>
        <time>2022-12-22T10:16:34.547Z</time>
      </trkpt>
      <trkpt lat="45.82979" lon="-0.94253">
        <ele>54.780662</ele>
        <time>2022-12-22T10:16:37.545Z</time>
      </trkpt>
      <trkpt lat="45.8297" lon="-0.94254">
        <ele>54.978415</ele>
        <time>2022-12-22T10:16:41.556Z</time>
      </trkpt>
      <trkpt lat="45.8296" lon="-0.94257">
        <ele>55.209036</ele>
        <time>2022-12-22T10:16:45.558Z</time>
      </trkpt>
      <trkpt lat="45.82949" lon="-0.94258">
        <ele>55.442135</ele>
        <time>2022-12-22T10:16:49.559Z</time>
      </trkpt>
      <trkpt lat="45.82938" lon="-0.94259">
        <ele>55.674378</ele>
        <time>2022-12-22T10:16:53.558Z</time>
      </trkpt>
      <trkpt lat="45.82928" lon="-0.94262">
        <ele>55.902617</ele>
        <time>2022-12-22T10:16:57.545Z</time>
      </trkpt>
      <trkpt lat="45.82919" lon="-0.94263">
        <ele>56.109702</ele>
        <time>2022-12-22T10:17:01.546Z</time>
      </trkpt>
      <trkpt lat="45.82908" lon="-0.94264">
        <ele>56.335552</ele>
        <time>2022-12-22T10:17:06.564Z</time>
      </trkpt>
      <trkpt lat="45.82897" lon="-0.94266">
        <ele>56.57992</ele>
        <time>2022-12-22T10:17:11.547Z</time>
      </trkpt>
      <trkpt lat="45.82888" lon="-0.94267">
        <ele>56.775635</ele>
        <time>2022-12-22T10:17:15.557Z</time>
      </trkpt>
      <trkpt lat="45.82877" lon="-0.94268">
        <ele>57.014916</ele>
        <time>2022-12-22T10:17:20.562Z</time>
      </trkpt>
      <trkpt lat="45.82868" lon="-0.94271">
        <ele>57.21086</ele>
        <time>2022-12-22T10:17:24.557Z</time>
      </trkpt>
      <trkpt lat="45.82857" lon="-0.94273">
        <ele>57.575537</ele>
        <time>2022-12-22T10:17:29.556Z</time>
      </trkpt>
      <trkpt lat="45.82846" lon="-0.94274">
        <ele>58.009458</ele>
        <time>2022-12-22T10:17:34.558Z</time>
      </trkpt>
      <trkpt lat="45.82836" lon="-0.94276">
        <ele>58.42545</ele>
        <time>2022-12-22T10:17:39.542Z</time>
      </trkpt>
      <trkpt lat="45.82826" lon="-0.94277">
        <ele>58.824667</ele>
        <time>2022-12-22T10:17:44.553Z</time>
      </trkpt>
      <trkpt lat="45.82815" lon="-0.9428">
        <ele>59.245931</ele>
        <time>2022-12-22T10:17:49.555Z</time>
      </trkpt>
      <trkpt lat="45.82804" lon="-0.94281">
        <ele>59.67366</ele>
        <time>2022-12-22T10:17:54.540Z</time>
      </trkpt>
      <trkpt lat="45.82794" lon="-0.94284">
        <ele>60.068929</ele>
        <time>2022-12-22T10:17:59.558Z</time>
      </trkpt>
      <trkpt lat="45.82784" lon="-0.94284">
        <ele>60.475018</ele>
        <time>2022-12-22T10:18:04.559Z</time>
      </trkpt>
      <trkpt lat="45.82774" lon="-0.94287">
        <ele>60.870754</ele>
        <time>2022-12-22T10:18:09.540Z</time>
      </trkpt>
      <trkpt lat="45.82764" lon="-0.9429">
        <ele>61.271346</ele>
        <time>2022-12-22T10:18:14.561Z</time>
      </trkpt>
      <trkpt lat="45.82754" lon="-0.94292">
        <ele>61.68172</ele>
        <time>2022-12-22T10:18:19.557Z</time>
      </trkpt>
      <trkpt lat="45.82743" lon="-0.94295">
        <ele>62.113165</ele>
        <time>2022-12-22T10:18:24.559Z</time>
      </trkpt>
      <trkpt lat="45.82733" lon="-0.94298">
        <ele>62.528302</ele>
        <time>2022-12-22T10:18:29.562Z</time>
      </trkpt>
      <trkpt lat="45.82723" lon="-0.94302">
        <ele>62.93551</ele>
        <time>2022-12-22T10:18:34.562Z</time>
      </trkpt>
      <trkpt lat="45.82713" lon="-0.94306">
        <ele>63.348733</ele>
        <time>2022-12-22T10:18:39.570Z</time>
      </trkpt>
      <trkpt lat="45.82702" lon="-0.9431">
        <ele>63.768054</ele>
        <time>2022-12-22T10:18:44.560Z</time>
      </trkpt>
      <trkpt lat="45.82692" lon="-0.94314">
        <ele>64.188134</ele>
        <time>2022-12-22T10:18:49.556Z</time>
      </trkpt>
      <trkpt lat="45.82683" lon="-0.94317">
        <ele>64.467508</ele>
        <time>2022-12-22T10:18:54.561Z</time>
      </trkpt>
      <trkpt lat="45.82673" lon="-0.9432">
        <ele>64.668995</ele>
        <time>2022-12-22T10:18:59.544Z</time>
      </trkpt>
      <trkpt lat="45.82663" lon="-0.94322">
        <ele>64.870395</ele>
        <time>2022-12-22T10:19:04.562Z</time>
      </trkpt>
      <trkpt lat="45.82653" lon="-0.94325">
        <ele>65.077358</ele>
        <time>2022-12-22T10:19:09.539Z</time>
      </trkpt>
      <trkpt lat="45.82644" lon="-0.94329">
        <ele>65.270358</ele>
        <time>2022-12-22T10:19:13.559Z</time>
      </trkpt>
      <trkpt lat="45.82635" lon="-0.94331">
        <ele>65.455606</ele>
        <time>2022-12-22T10:19:17.550Z</time>
      </trkpt>
      <trkpt lat="45.82624" lon="-0.94335">
        <ele>65.676048</ele>
        <time>2022-12-22T10:19:22.560Z</time>
      </trkpt>
      <trkpt lat="45.82614" lon="-0.94339">
        <ele>65.887116</ele>
        <time>2022-12-22T10:19:26.559Z</time>
      </trkpt>
      <trkpt lat="45.82604" lon="-0.94342">
        <ele>66.098041</ele>
        <time>2022-12-22T10:19:30.558Z</time>
      </trkpt>
      <trkpt lat="45.82594" lon="-0.94345">
        <ele>66.302785</ele>
        <time>2022-12-22T10:19:34.560Z</time>
      </trkpt>
      <trkpt lat="45.82584" lon="-0.9435">
        <ele>66.523537</ele>
        <time>2022-12-22T10:19:38.561Z</time>
      </trkpt>
      <trkpt lat="45.82574" lon="-0.94354">
        <ele>66.737001</ele>
        <time>2022-12-22T10:19:42.557Z</time>
      </trkpt>
      <trkpt lat="45.82563" lon="-0.94358">
        <ele>66.94734</ele>
        <time>2022-12-22T10:19:46.558Z</time>
      </trkpt>
      <trkpt lat="45.82554" lon="-0.94364">
        <ele>67.164938</ele>
        <time>2022-12-22T10:19:50.556Z</time>
      </trkpt>
      <trkpt lat="45.82543" lon="-0.94371">
        <ele>67.394016</ele>
        <time>2022-12-22T10:19:54.560Z</time>
      </trkpt>
      <trkpt lat="45.82533" lon="-0.94379">
        <ele>67.628857</ele>
        <time>2022-12-22T10:19:58.532Z</time>
      </trkpt>
      <trkpt lat="45.82525" lon="-0.94386">
        <ele>67.810991</ele>
        <time>2022-12-22T10:20:01.561Z</time>
      </trkpt>
      <trkpt lat="45.82518" lon="-0.94393">
        <ele>67.994612</ele>
        <time>2022-12-22T10:20:04.560Z</time>
      </trkpt>
      <trkpt lat="45.8251" lon="-0.944">
        <ele>68.209093</ele>
        <time>2022-12-22T10:20:07.552Z</time>
      </trkpt>
      <trkpt lat="45.82503" lon="-0.94409">
        <ele>68.421434</ele>
        <time>2022-12-22T10:20:10.561Z</time>
      </trkpt>
      <trkpt lat="45.82496" lon="-0.94418">
        <ele>68.640972</ele>
        <time>2022-12-22T10:20:13.558Z</time>
      </trkpt>
      <trkpt lat="45.82489" lon="-0.94427">
        <ele>68.853076</ele>
        <time>2022-12-22T10:20:16.562Z</time>
      </trkpt>
      <trkpt lat="45.82483" lon="-0.94436">
        <ele>69.060884</ele>
        <time>2022-12-22T10:20:19.558Z</time>
      </trkpt>
      <trkpt lat="45.82475" lon="-0.94448">
        <ele>69.326963</ele>
        <time>2022-12-22T10:20:23.543Z</time>
      </trkpt>
      <trkpt lat="45.82467" lon="-0.94461">
        <ele>69.599719</ele>
        <time>2022-12-22T10:20:27.549Z</time>
      </trkpt>
      <trkpt lat="45.82459" lon="-0.94473">
        <ele>69.860742</ele>
        <time>2022-12-22T10:20:31.555Z</time>
      </trkpt>
      <trkpt lat="45.82451" lon="-0.94485">
        <ele>70.126821</ele>
        <time>2022-12-22T10:20:35.559Z</time>
      </trkpt>
      <trkpt lat="45.82443" lon="-0.94496">
        <ele>70.380044</ele>
        <time>2022-12-22T10:20:39.555Z</time>
      </trkpt>
      <trkpt lat="45.82435" lon="-0.94508">
        <ele>70.643818</ele>
        <time>2022-12-22T10:20:43.558Z</time>
      </trkpt>
      <trkpt lat="45.82427" lon="-0.94519">
        <ele>70.901411</ele>
        <time>2022-12-22T10:20:47.551Z</time>
      </trkpt>
      <trkpt lat="45.82419" lon="-0.94531">
        <ele>71.162434</ele>
        <time>2022-12-22T10:20:51.557Z</time>
      </trkpt>
      <trkpt lat="45.82411" lon="-0.94542">
        <ele>71.421166</ele>
        <time>2022-12-22T10:20:55.560Z</time>
      </trkpt>
      <trkpt lat="45.82403" lon="-0.94554">
        <ele>71.677626</ele>
        <time>2022-12-22T10:20:59.560Z</time>
      </trkpt>
      <trkpt lat="45.82395" lon="-0.94565">
        <ele>71.94401</ele>
        <time>2022-12-22T10:21:03.558Z</time>
      </trkpt>
      <trkpt lat="45.82386" lon="-0.94576">
        <ele>72.120701</ele>
        <time>2022-12-22T10:21:07.548Z</time>
      </trkpt>
      <trkpt lat="45.82377" lon="-0.94587">
        <ele>72.082779</ele>
        <time>2022-12-22T10:21:11.559Z</time>
      </trkpt>
      <trkpt lat="45.82368" lon="-0.94597">
        <ele>72.046804</ele>
        <time>2022-12-22T10:21:15.558Z</time>
      </trkpt>
      <trkpt lat="45.82359" lon="-0.94605">
        <ele>72.012557</ele>
        <time>2022-12-22T10:21:19.540Z</time>
      </trkpt>
      <trkpt lat="45.82349" lon="-0.94613">
        <ele>71.975861</ele>
        <time>2022-12-22T10:21:24.560Z</time>
      </trkpt>
      <trkpt lat="45.8234" lon="-0.94621">
        <ele>71.940085</ele>
        <time>2022-12-22T10:21:28.557Z</time>
      </trkpt>
      <trkpt lat="45.8233" lon="-0.94629">
        <ele>71.903891</ele>
        <time>2022-12-22T10:21:32.561Z</time>
      </trkpt>
      <trkpt lat="45.82321" lon="-0.94635">
        <ele>71.873584</ele>
        <time>2022-12-22T10:21:35.559Z</time>
      </trkpt>
      <trkpt lat="45.82313" lon="-0.94641">
        <ele>71.841917</ele>
        <time>2022-12-22T10:21:38.557Z</time>
      </trkpt>
      <trkpt lat="45.82304" lon="-0.94646">
        <ele>71.812665</ele>
        <time>2022-12-22T10:21:41.542Z</time>
      </trkpt>
      <trkpt lat="45.82295" lon="-0.94653">
        <ele>71.778092</ele>
        <time>2022-12-22T10:21:45.559Z</time>
      </trkpt>
      <trkpt lat="45.82286" lon="-0.94661">
        <ele>71.744131</ele>
        <time>2022-12-22T10:21:49.538Z</time>
      </trkpt>
      <trkpt lat="45.82276" lon="-0.94668">
        <ele>71.710705</ele>
        <time>2022-12-22T10:21:53.555Z</time>
      </trkpt>
      <trkpt lat="45.82267" lon="-0.94674">
        <ele>71.67816</ele>
        <time>2022-12-22T10:21:57.542Z</time>
      </trkpt>
      <trkpt lat="45.82258" lon="-0.94682">
        <ele>71.642964</ele>
        <time>2022-12-22T10:22:01.559Z</time>
      </trkpt>
      <trkpt lat="45.82247" lon="-0.9469">
        <ele>71.604926</ele>
        <time>2022-12-22T10:22:05.549Z</time>
      </trkpt>
      <trkpt lat="45.82239" lon="-0.94695">
        <ele>71.574994</ele>
        <time>2022-12-22T10:22:08.559Z</time>
      </trkpt>
      <trkpt lat="45.8223" lon="-0.94702">
        <ele>71.529512</ele>
        <time>2022-12-22T10:22:11.561Z</time>
      </trkpt>
      <trkpt lat="45.82222" lon="-0.94709">
        <ele>71.451866</ele>
        <time>2022-12-22T10:22:14.557Z</time>
      </trkpt>
      <trkpt lat="45.82213" lon="-0.94713">
        <ele>71.378954</ele>
        <time>2022-12-22T10:22:17.545Z</time>
      </trkpt>
      <trkpt lat="45.82204" lon="-0.94716">
        <ele>71.30784</ele>
        <time>2022-12-22T10:22:20.562Z</time>
      </trkpt>
      <trkpt lat="45.82195" lon="-0.94716">
        <ele>71.233084</ele>
        <time>2022-12-22T10:22:23.547Z</time>
      </trkpt>
      <trkpt lat="45.82185" lon="-0.94714">
        <ele>71.157905</ele>
        <time>2022-12-22T10:22:26.557Z</time>
      </trkpt>
      <trkpt lat="45.82176" lon="-0.94709">
        <ele>71.080347</ele>
        <time>2022-12-22T10:22:29.559Z</time>
      </trkpt>
      <trkpt lat="45.82167" lon="-0.94701">
        <ele>71.000815</ele>
        <time>2022-12-22T10:22:32.560Z</time>
      </trkpt>
      <trkpt lat="45.82158" lon="-0.94694">
        <ele>70.920606</ele>
        <time>2022-12-22T10:22:35.547Z</time>
      </trkpt>
      <trkpt lat="45.82149" lon="-0.94686">
        <ele>70.833265</ele>
        <time>2022-12-22T10:22:38.557Z</time>
      </trkpt>
      <trkpt lat="45.82137" lon="-0.9468">
        <ele>70.732782</ele>
        <time>2022-12-22T10:22:41.560Z</time>
      </trkpt>
      <trkpt lat="45.82124" lon="-0.94675">
        <ele>70.626355</ele>
        <time>2022-12-22T10:22:44.559Z</time>
      </trkpt>
      <trkpt lat="45.82114" lon="-0.94671">
        <ele>70.550607</ele>
        <time>2022-12-22T10:22:46.557Z</time>
      </trkpt>
      <trkpt lat="45.82105" lon="-0.94669">
        <ele>70.47717</ele>
        <time>2022-12-22T10:22:48.558Z</time>
      </trkpt>
      <trkpt lat="45.82096" lon="-0.94668">
        <ele>70.406224</ele>
        <time>2022-12-22T10:22:50.562Z</time>
      </trkpt>
      <trkpt lat="45.82084" lon="-0.94667">
        <ele>70.307017</ele>
        <time>2022-12-22T10:22:53.550Z</time>
      </trkpt>
      <trkpt lat="45.82074" lon="-0.94666">
        <ele>70.233046</ele>
        <time>2022-12-22T10:22:56.571Z</time>
      </trkpt>
      <trkpt lat="45.82064" lon="-0.94668">
        <ele>70.14923</ele>
        <time>2022-12-22T10:23:00.556Z</time>
      </trkpt>
      <trkpt lat="45.82052" lon="-0.9467">
        <ele>70.300983</ele>
        <time>2022-12-22T10:23:04.604Z</time>
      </trkpt>
      <trkpt lat="45.82041" lon="-0.94671">
        <ele>70.478732</ele>
        <time>2022-12-22T10:23:08.563Z</time>
      </trkpt>
      <trkpt lat="45.82029" lon="-0.94673">
        <ele>70.661728</ele>
        <time>2022-12-22T10:23:12.557Z</time>
      </trkpt>
      <trkpt lat="45.82019" lon="-0.94676">
        <ele>70.836402</ele>
        <time>2022-12-22T10:23:16.620Z</time>
      </trkpt>
      <trkpt lat="45.82007" lon="-0.9468">
        <ele>71.020094</ele>
        <time>2022-12-22T10:23:20.560Z</time>
      </trkpt>
      <trkpt lat="45.81997" lon="-0.94685">
        <ele>71.191001</ele>
        <time>2022-12-22T10:23:25.560Z</time>
      </trkpt>
      <trkpt lat="45.81988" lon="-0.94685">
        <ele>71.336873</ele>
        <time>2022-12-22T10:23:30.561Z</time>
      </trkpt>
      <trkpt lat="45.81979" lon="-0.94688">
        <ele>71.480125</ele>
        <time>2022-12-22T10:23:34.560Z</time>
      </trkpt>
      <trkpt lat="45.8197" lon="-0.9469">
        <ele>71.62686</ele>
        <time>2022-12-22T10:23:38.573Z</time>
      </trkpt>
      <trkpt lat="45.8196" lon="-0.94691">
        <ele>71.77333</ele>
        <time>2022-12-22T10:23:42.542Z</time>
      </trkpt>
      <trkpt lat="45.81951" lon="-0.94692">
        <ele>71.927342</ele>
        <time>2022-12-22T10:23:46.560Z</time>
      </trkpt>
      <trkpt lat="45.81942" lon="-0.94696">
        <ele>72.077266</ele>
        <time>2022-12-22T10:23:50.563Z</time>
      </trkpt>
      <trkpt lat="45.81933" lon="-0.947">
        <ele>72.223245</ele>
        <time>2022-12-22T10:23:54.558Z</time>
      </trkpt>
      <trkpt lat="45.81923" lon="-0.94705">
        <ele>72.386665</ele>
        <time>2022-12-22T10:23:58.568Z</time>
      </trkpt>
      <trkpt lat="45.81912" lon="-0.94709">
        <ele>72.567979</ele>
        <time>2022-12-22T10:24:02.578Z</time>
      </trkpt>
      <trkpt lat="45.81902" lon="-0.94712">
        <ele>72.733627</ele>
        <time>2022-12-22T10:24:06.558Z</time>
      </trkpt>
      <trkpt lat="45.81891" lon="-0.94716">
        <ele>72.905766</ele>
        <time>2022-12-22T10:24:10.559Z</time>
      </trkpt>
      <trkpt lat="45.8188" lon="-0.9472">
        <ele>73.010836</ele>
        <time>2022-12-22T10:24:14.610Z</time>
      </trkpt>
      <trkpt lat="45.81871" lon="-0.94723">
        <ele>73.05008</ele>
        <time>2022-12-22T10:24:17.543Z</time>
      </trkpt>
      <trkpt lat="45.81862" lon="-0.94725">
        <ele>73.091257</ele>
        <time>2022-12-22T10:24:20.612Z</time>
      </trkpt>
      <trkpt lat="45.81852" lon="-0.94726">
        <ele>73.131286</ele>
        <time>2022-12-22T10:24:23.559Z</time>
      </trkpt>
      <trkpt lat="45.81843" lon="-0.94729">
        <ele>73.173315</ele>
        <time>2022-12-22T10:24:26.612Z</time>
      </trkpt>
      <trkpt lat="45.81833" lon="-0.94732">
        <ele>73.213238</ele>
        <time>2022-12-22T10:24:29.557Z</time>
      </trkpt>
      <trkpt lat="45.81822" lon="-0.94734">
        <ele>73.260784</ele>
        <time>2022-12-22T10:24:33.562Z</time>
      </trkpt>
      <trkpt lat="45.81811" lon="-0.94738">
        <ele>73.308825</ele>
        <time>2022-12-22T10:24:37.543Z</time>
      </trkpt>
      <trkpt lat="45.81802" lon="-0.94742">
        <ele>73.349403</ele>
        <time>2022-12-22T10:24:40.561Z</time>
      </trkpt>
      <trkpt lat="45.81792" lon="-0.94746">
        <ele>73.39218</ele>
        <time>2022-12-22T10:24:43.562Z</time>
      </trkpt>
      <trkpt lat="45.81784" lon="-0.94752">
        <ele>73.432813</ele>
        <time>2022-12-22T10:24:46.560Z</time>
      </trkpt>
      <trkpt lat="45.81773" lon="-0.94759">
        <ele>73.480473</ele>
        <time>2022-12-22T10:24:50.607Z</time>
      </trkpt>
      <trkpt lat="45.81765" lon="-0.94765">
        <ele>73.521269</ele>
        <time>2022-12-22T10:24:53.559Z</time>
      </trkpt>
      <trkpt lat="45.81756" lon="-0.94771">
        <ele>73.562551</ele>
        <time>2022-12-22T10:24:56.634Z</time>
      </trkpt>
      <trkpt lat="45.81747" lon="-0.94775">
        <ele>73.603721</ele>
        <time>2022-12-22T10:24:59.569Z</time>
      </trkpt>
      <trkpt lat="45.81738" lon="-0.94781">
        <ele>73.645936</ele>
        <time>2022-12-22T10:25:02.558Z</time>
      </trkpt>
      <trkpt lat="45.81729" lon="-0.94786">
        <ele>73.685697</ele>
        <time>2022-12-22T10:25:05.558Z</time>
      </trkpt>
      <trkpt lat="45.81719" lon="-0.94792">
        <ele>73.733008</ele>
        <time>2022-12-22T10:25:09.571Z</time>
      </trkpt>
      <trkpt lat="45.8171" lon="-0.94797">
        <ele>73.713894</ele>
        <time>2022-12-22T10:25:12.545Z</time>
      </trkpt>
      <trkpt lat="45.817" lon="-0.94802">
        <ele>73.662039</ele>
        <time>2022-12-22T10:25:15.563Z</time>
      </trkpt>
      <trkpt lat="45.81689" lon="-0.94808">
        <ele>73.607502</ele>
        <time>2022-12-22T10:25:18.610Z</time>
      </trkpt>
      <trkpt lat="45.81679" lon="-0.94815">
        <ele>73.549083</ele>
        <time>2022-12-22T10:25:21.560Z</time>
      </trkpt>
      <trkpt lat="45.81667" lon="-0.94823">
        <ele>73.488602</ele>
        <time>2022-12-22T10:25:24.609Z</time>
      </trkpt>
      <trkpt lat="45.81657" lon="-0.94831">
        <ele>73.428354</ele>
        <time>2022-12-22T10:25:27.552Z</time>
      </trkpt>
      <trkpt lat="45.81647" lon="-0.94838">
        <ele>73.373301</ele>
        <time>2022-12-22T10:25:30.610Z</time>
      </trkpt>
      <trkpt lat="45.81638" lon="-0.94845">
        <ele>73.324206</ele>
        <time>2022-12-22T10:25:33.558Z</time>
      </trkpt>
      <trkpt lat="45.8163" lon="-0.94851">
        <ele>73.279324</ele>
        <time>2022-12-22T10:25:36.607Z</time>
      </trkpt>
      <trkpt lat="45.81621" lon="-0.94859">
        <ele>73.228911</ele>
        <time>2022-12-22T10:25:39.563Z</time>
      </trkpt>
      <trkpt lat="45.81612" lon="-0.94867">
        <ele>73.176186</ele>
        <time>2022-12-22T10:25:42.612Z</time>
      </trkpt>
      <trkpt lat="45.81603" lon="-0.94874">
        <ele>73.124408</ele>
        <time>2022-12-22T10:25:45.567Z</time>
      </trkpt>
      <trkpt lat="45.81593" lon="-0.94881">
        <ele>73.071413</ele>
        <time>2022-12-22T10:25:48.607Z</time>
      </trkpt>
      <trkpt lat="45.81584" lon="-0.94889">
        <ele>73.018951</ele>
        <time>2022-12-22T10:25:51.568Z</time>
      </trkpt>
      <trkpt lat="45.81575" lon="-0.94896">
        <ele>72.969562</ele>
        <time>2022-12-22T10:25:54.613Z</time>
      </trkpt>
      <trkpt lat="45.81566" lon="-0.94903">
        <ele>72.919486</ele>
        <time>2022-12-22T10:25:57.548Z</time>
      </trkpt>
      <trkpt lat="45.81558" lon="-0.94911">
        <ele>72.869397</ele>
        <time>2022-12-22T10:26:00.632Z</time>
      </trkpt>
      <trkpt lat="45.81549" lon="-0.94919">
        <ele>72.953987</ele>
        <time>2022-12-22T10:26:03.565Z</time>
      </trkpt>
      <trkpt lat="45.8154" lon="-0.94926">
        <ele>73.06832</ele>
        <time>2022-12-22T10:26:06.557Z</time>
      </trkpt>
      <trkpt lat="45.81531" lon="-0.94932">
        <ele>73.17816</ele>
        <time>2022-12-22T10:26:09.561Z</time>
      </trkpt>
      <trkpt lat="45.81522" lon="-0.94938">
        <ele>73.290348</ele>
        <time>2022-12-22T10:26:12.561Z</time>
      </trkpt>
      <trkpt lat="45.81511" lon="-0.94945">
        <ele>73.42327</ele>
        <time>2022-12-22T10:26:16.606Z</time>
      </trkpt>
      <trkpt lat="45.81501" lon="-0.94949">
        <ele>73.534081</ele>
        <time>2022-12-22T10:26:19.561Z</time>
      </trkpt>
      <trkpt lat="45.81492" lon="-0.94953">
        <ele>73.634362</ele>
        <time>2022-12-22T10:26:22.611Z</time>
      </trkpt>
      <trkpt lat="45.81484" lon="-0.94956">
        <ele>73.733876</ele>
        <time>2022-12-22T10:26:25.560Z</time>
      </trkpt>
      <trkpt lat="45.81474" lon="-0.94958">
        <ele>73.839113</ele>
        <time>2022-12-22T10:26:28.613Z</time>
      </trkpt>
      <trkpt lat="45.81465" lon="-0.9496">
        <ele>73.945631</ele>
        <time>2022-12-22T10:26:31.563Z</time>
      </trkpt>
      <trkpt lat="45.81455" lon="-0.94961">
        <ele>74.056036</ele>
        <time>2022-12-22T10:26:34.630Z</time>
      </trkpt>
      <trkpt lat="45.81444" lon="-0.94962">
        <ele>74.168424</ele>
        <time>2022-12-22T10:26:37.564Z</time>
      </trkpt>
      <trkpt lat="45.81434" lon="-0.94963">
        <ele>74.278712</ele>
        <time>2022-12-22T10:26:40.613Z</time>
      </trkpt>
      <trkpt lat="45.81424" lon="-0.94963">
        <ele>74.391061</ele>
        <time>2022-12-22T10:26:43.558Z</time>
      </trkpt>
      <trkpt lat="45.81414" lon="-0.94964">
        <ele>74.503411</ele>
        <time>2022-12-22T10:26:46.606Z</time>
      </trkpt>
      <trkpt lat="45.81404" lon="-0.94964">
        <ele>74.614574</ele>
        <time>2022-12-22T10:26:49.559Z</time>
      </trkpt>
      <trkpt lat="45.81394" lon="-0.94965">
        <ele>74.724765</ele>
        <time>2022-12-22T10:26:52.622Z</time>
      </trkpt>
      <trkpt lat="45.81382" lon="-0.94968">
        <ele>74.844876</ele>
        <time>2022-12-22T10:26:56.555Z</time>
      </trkpt>
      <trkpt lat="45.81371" lon="-0.9497">
        <ele>74.885633</ele>
        <time>2022-12-22T10:27:00.571Z</time>
      </trkpt>
      <trkpt lat="45.81362" lon="-0.94973">
        <ele>74.919793</ele>
        <time>2022-12-22T10:27:03.567Z</time>
      </trkpt>
      <trkpt lat="45.81351" lon="-0.94977">
        <ele>74.960071</ele>
        <time>2022-12-22T10:27:07.551Z</time>
      </trkpt>
      <trkpt lat="45.8134" lon="-0.94983">
        <ele>75.002867</ele>
        <time>2022-12-22T10:27:11.572Z</time>
      </trkpt>
      <trkpt lat="45.81331" lon="-0.94989">
        <ele>75.038321</ele>
        <time>2022-12-22T10:27:14.558Z</time>
      </trkpt>
      <trkpt lat="45.81322" lon="-0.94995">
        <ele>75.075846</ele>
        <time>2022-12-22T10:27:17.542Z</time>
      </trkpt>
      <trkpt lat="45.81312" lon="-0.95002">
        <ele>75.112708</ele>
        <time>2022-12-22T10:27:20.572Z</time>
      </trkpt>
      <trkpt lat="45.81303" lon="-0.95008">
        <ele>75.149471</ele>
        <time>2022-12-22T10:27:23.561Z</time>
      </trkpt>
      <trkpt lat="45.81294" lon="-0.95015">
        <ele>75.186658</ele>
        <time>2022-12-22T10:27:26.562Z</time>
      </trkpt>
      <trkpt lat="45.81284" lon="-0.95021">
        <ele>75.224497</ele>
        <time>2022-12-22T10:27:29.546Z</time>
      </trkpt>
      <trkpt lat="45.81275" lon="-0.95028">
        <ele>75.262444</ele>
        <time>2022-12-22T10:27:32.560Z</time>
      </trkpt>
      <trkpt lat="45.81266" lon="-0.95034">
        <ele>75.29964</ele>
        <time>2022-12-22T10:27:35.562Z</time>
      </trkpt>
      <trkpt lat="45.81256" lon="-0.9504">
        <ele>75.337371</ele>
        <time>2022-12-22T10:27:38.542Z</time>
      </trkpt>
      <trkpt lat="45.81247" lon="-0.95046">
        <ele>75.371547</ele>
        <time>2022-12-22T10:27:41.561Z</time>
      </trkpt>
      <trkpt lat="45.81239" lon="-0.95052">
        <ele>75.406025</ele>
        <time>2022-12-22T10:27:44.562Z</time>
      </trkpt>
      <trkpt lat="45.8123" lon="-0.95058">
        <ele>75.441268</ele>
        <time>2022-12-22T10:27:47.539Z</time>
      </trkpt>
      <trkpt lat="45.81221" lon="-0.95063">
        <ele>75.476079</ele>
        <time>2022-12-22T10:27:50.561Z</time>
      </trkpt>
      <trkpt lat="45.81212" lon="-0.9507">
        <ele>75.540602</ele>
        <time>2022-12-22T10:27:53.555Z</time>
      </trkpt>
      <trkpt lat="45.81202" lon="-0.95077">
        <ele>75.638526</ele>
        <time>2022-12-22T10:27:57.548Z</time>
      </trkpt>
      <trkpt lat="45.81191" lon="-0.95085">
        <ele>75.737948</ele>
        <time>2022-12-22T10:28:01.560Z</time>
      </trkpt>
      <trkpt lat="45.8118" lon="-0.95092">
        <ele>75.836888</ele>
        <time>2022-12-22T10:28:05.561Z</time>
      </trkpt>
      <trkpt lat="45.8117" lon="-0.95099">
        <ele>75.93582</ele>
        <time>2022-12-22T10:28:09.559Z</time>
      </trkpt>
      <trkpt lat="45.8116" lon="-0.95106">
        <ele>76.028999</ele>
        <time>2022-12-22T10:28:13.558Z</time>
      </trkpt>
      <trkpt lat="45.8115" lon="-0.95113">
        <ele>76.122392</ele>
        <time>2022-12-22T10:28:17.544Z</time>
      </trkpt>
      <trkpt lat="45.81139" lon="-0.95119">
        <ele>76.216049</ele>
        <time>2022-12-22T10:28:21.559Z</time>
      </trkpt>
      <trkpt lat="45.81129" lon="-0.95126">
        <ele>76.310955</ele>
        <time>2022-12-22T10:28:25.561Z</time>
      </trkpt>
      <trkpt lat="45.81119" lon="-0.95134">
        <ele>76.405902</ele>
        <time>2022-12-22T10:28:29.560Z</time>
      </trkpt>
      <trkpt lat="45.81109" lon="-0.9514">
        <ele>76.494558</ele>
        <time>2022-12-22T10:28:33.543Z</time>
      </trkpt>
      <trkpt lat="45.81101" lon="-0.95146">
        <ele>76.574166</ele>
        <time>2022-12-22T10:28:37.545Z</time>
      </trkpt>
      <trkpt lat="45.81091" lon="-0.95151">
        <ele>76.662388</ele>
        <time>2022-12-22T10:28:41.563Z</time>
      </trkpt>
      <trkpt lat="45.8108" lon="-0.95156">
        <ele>76.759264</ele>
        <time>2022-12-22T10:28:45.571Z</time>
      </trkpt>
      <trkpt lat="45.81071" lon="-0.95161">
        <ele>76.835109</ele>
        <time>2022-12-22T10:28:48.561Z</time>
      </trkpt>
      <trkpt lat="45.81062" lon="-0.95164">
        <ele>76.911195</ele>
        <time>2022-12-22T10:28:51.573Z</time>
      </trkpt>
      <trkpt lat="45.81051" lon="-0.9517">
        <ele>77.002789</ele>
        <time>2022-12-22T10:28:55.620Z</time>
      </trkpt>
      <trkpt lat="45.81043" lon="-0.95174">
        <ele>77.05066</ele>
        <time>2022-12-22T10:28:58.559Z</time>
      </trkpt>
      <trkpt lat="45.81034" lon="-0.95178">
        <ele>77.10003</ele>
        <time>2022-12-22T10:29:01.625Z</time>
      </trkpt>
      <trkpt lat="45.81025" lon="-0.95182">
        <ele>77.148686</ele>
        <time>2022-12-22T10:29:04.570Z</time>
      </trkpt>
      <trkpt lat="45.81015" lon="-0.95186">
        <ele>77.200496</ele>
        <time>2022-12-22T10:29:07.574Z</time>
      </trkpt>
      <trkpt lat="45.81006" lon="-0.9519">
        <ele>77.252679</ele>
        <time>2022-12-22T10:29:10.561Z</time>
      </trkpt>
      <trkpt lat="45.80996" lon="-0.95195">
        <ele>77.305377</ele>
        <time>2022-12-22T10:29:14.571Z</time>
      </trkpt>
      <trkpt lat="45.80986" lon="-0.95199">
        <ele>77.360018</ele>
        <time>2022-12-22T10:29:18.571Z</time>
      </trkpt>
      <trkpt lat="45.80975" lon="-0.95204">
        <ele>77.419483</ele>
        <time>2022-12-22T10:29:22.557Z</time>
      </trkpt>
      <trkpt lat="45.80964" lon="-0.95209">
        <ele>77.481737</ele>
        <time>2022-12-22T10:29:26.562Z</time>
      </trkpt>
      <trkpt lat="45.80953" lon="-0.95212">
        <ele>77.542749</ele>
        <time>2022-12-22T10:29:30.562Z</time>
      </trkpt>
      <trkpt lat="45.80941" lon="-0.95216">
        <ele>77.605608</ele>
        <time>2022-12-22T10:29:34.572Z</time>
      </trkpt>
      <trkpt lat="45.80931" lon="-0.95215">
        <ele>77.65542</ele>
        <time>2022-12-22T10:29:37.547Z</time>
      </trkpt>
      <trkpt lat="45.80921" lon="-0.95214">
        <ele>77.709111</ele>
        <time>2022-12-22T10:29:40.572Z</time>
      </trkpt>
      <trkpt lat="45.80911" lon="-0.95211">
        <ele>77.764249</ele>
        <time>2022-12-22T10:29:43.566Z</time>
      </trkpt>
      <trkpt lat="45.80901" lon="-0.95208">
        <ele>77.818694</ele>
        <time>2022-12-22T10:29:46.562Z</time>
      </trkpt>
      <trkpt lat="45.8089" lon="-0.95204">
        <ele>77.876035</ele>
        <time>2022-12-22T10:29:49.545Z</time>
      </trkpt>
      <trkpt lat="45.80879" lon="-0.95199">
        <ele>77.929113</ele>
        <time>2022-12-22T10:29:52.572Z</time>
      </trkpt>
      <trkpt lat="45.80868" lon="-0.95194">
        <ele>77.862298</ele>
        <time>2022-12-22T10:29:55.559Z</time>
      </trkpt>
      <trkpt lat="45.80857" lon="-0.9519">
        <ele>77.794796</ele>
        <time>2022-12-22T10:29:58.562Z</time>
      </trkpt>
      <trkpt lat="45.80847" lon="-0.95185">
        <ele>77.728548</ele>
        <time>2022-12-22T10:30:01.562Z</time>
      </trkpt>
      <trkpt lat="45.80835" lon="-0.9518">
        <ele>77.659227</ele>
        <time>2022-12-22T10:30:04.570Z</time>
      </trkpt>
      <trkpt lat="45.80824" lon="-0.95176">
        <ele>77.590015</ele>
        <time>2022-12-22T10:30:07.543Z</time>
      </trkpt>
      <trkpt lat="45.80813" lon="-0.95171">
        <ele>77.519224</ele>
        <time>2022-12-22T10:30:10.558Z</time>
      </trkpt>
      <trkpt lat="45.80802" lon="-0.95166">
        <ele>77.452528</ele>
        <time>2022-12-22T10:30:13.548Z</time>
      </trkpt>
      <trkpt lat="45.80792" lon="-0.95161">
        <ele>77.388579</ele>
        <time>2022-12-22T10:30:16.560Z</time>
      </trkpt>
      <trkpt lat="45.80781" lon="-0.95155">
        <ele>77.322766</ele>
        <time>2022-12-22T10:30:19.574Z</time>
      </trkpt>
      <trkpt lat="45.80772" lon="-0.95147">
        <ele>77.256731</ele>
        <time>2022-12-22T10:30:22.572Z</time>
      </trkpt>
      <trkpt lat="45.80762" lon="-0.95139">
        <ele>77.189146</ele>
        <time>2022-12-22T10:30:25.566Z</time>
      </trkpt>
      <trkpt lat="45.80753" lon="-0.95131">
        <ele>77.129632</ele>
        <time>2022-12-22T10:30:28.617Z</time>
      </trkpt>
      <trkpt lat="45.80745" lon="-0.95122">
        <ele>77.067809</ele>
        <time>2022-12-22T10:30:32.571Z</time>
      </trkpt>
      <trkpt lat="45.80736" lon="-0.95111">
        <ele>76.997773</ele>
        <time>2022-12-22T10:30:36.573Z</time>
      </trkpt>
      <trkpt lat="45.80729" lon="-0.95102">
        <ele>76.938711</ele>
        <time>2022-12-22T10:30:39.561Z</time>
      </trkpt>
      <trkpt lat="45.80721" lon="-0.95091">
        <ele>76.877669</ele>
        <time>2022-12-22T10:30:42.559Z</time>
      </trkpt>
      <trkpt lat="45.80714" lon="-0.95079">
        <ele>76.782976</ele>
        <time>2022-12-22T10:30:45.551Z</time>
      </trkpt>
      <trkpt lat="45.80708" lon="-0.95068">
        <ele>76.684274</ele>
        <time>2022-12-22T10:30:48.569Z</time>
      </trkpt>
      <trkpt lat="45.80701" lon="-0.95055">
        <ele>76.580454</ele>
        <time>2022-12-22T10:30:51.560Z</time>
      </trkpt>
      <trkpt lat="45.80694" lon="-0.95043">
        <ele>76.478072</ele>
        <time>2022-12-22T10:30:54.561Z</time>
      </trkpt>
      <trkpt lat="45.80687" lon="-0.95032">
        <ele>76.383644</ele>
        <time>2022-12-22T10:30:57.605Z</time>
      </trkpt>
      <trkpt lat="45.80682" lon="-0.95021">
        <ele>76.297924</ele>
        <time>2022-12-22T10:31:00.561Z</time>
      </trkpt>
      <trkpt lat="45.80675" lon="-0.9501">
        <ele>76.205762</ele>
        <time>2022-12-22T10:31:03.621Z</time>
      </trkpt>
      <trkpt lat="45.80668" lon="-0.94998">
        <ele>76.106463</ele>
        <time>2022-12-22T10:31:06.571Z</time>
      </trkpt>
      <trkpt lat="45.80661" lon="-0.94987">
        <ele>76.004997</ele>
        <time>2022-12-22T10:31:09.602Z</time>
      </trkpt>
      <trkpt lat="45.80652" lon="-0.94976">
        <ele>75.893226</ele>
        <time>2022-12-22T10:31:12.559Z</time>
      </trkpt>
      <trkpt lat="45.80643" lon="-0.94965">
        <ele>75.787128</ele>
        <time>2022-12-22T10:31:15.570Z</time>
      </trkpt>
      <trkpt lat="45.80634" lon="-0.94956">
        <ele>75.687048</ele>
        <time>2022-12-22T10:31:18.557Z</time>
      </trkpt>
      <trkpt lat="45.80626" lon="-0.94947">
        <ele>75.592631</ele>
        <time>2022-12-22T10:31:21.552Z</time>
      </trkpt>
      <trkpt lat="45.80617" lon="-0.9494">
        <ele>75.497161</ele>
        <time>2022-12-22T10:31:24.572Z</time>
      </trkpt>
      <trkpt lat="45.80607" lon="-0.94933">
        <ele>75.388901</ele>
        <time>2022-12-22T10:31:27.600Z</time>
      </trkpt>
      <trkpt lat="45.80596" lon="-0.94925">
        <ele>75.273169</ele>
        <time>2022-12-22T10:31:30.568Z</time>
      </trkpt>
      <trkpt lat="45.80584" lon="-0.94919">
        <ele>75.22874</ele>
        <time>2022-12-22T10:31:33.610Z</time>
      </trkpt>
      <trkpt lat="45.80571" lon="-0.94914">
        <ele>75.319393</ele>
        <time>2022-12-22T10:31:36.563Z</time>
      </trkpt>
      <trkpt lat="45.80558" lon="-0.94911">
        <ele>75.411342</ele>
        <time>2022-12-22T10:31:39.547Z</time>
      </trkpt>
      <trkpt lat="45.80546" lon="-0.94908">
        <ele>75.502898</ele>
        <time>2022-12-22T10:31:42.547Z</time>
      </trkpt>
      <trkpt lat="45.80533" lon="-0.94907">
        <ele>75.593684</ele>
        <time>2022-12-22T10:31:45.561Z</time>
      </trkpt>
      <trkpt lat="45.80521" lon="-0.94908">
        <ele>75.680883</ele>
        <time>2022-12-22T10:31:48.563Z</time>
      </trkpt>
      <trkpt lat="45.80508" lon="-0.9491">
        <ele>75.768094</ele>
        <time>2022-12-22T10:31:51.561Z</time>
      </trkpt>
      <trkpt lat="45.80496" lon="-0.94913">
        <ele>75.855907</ele>
        <time>2022-12-22T10:31:54.559Z</time>
      </trkpt>
      <trkpt lat="45.80484" lon="-0.94917">
        <ele>75.944715</ele>
        <time>2022-12-22T10:31:57.543Z</time>
      </trkpt>
      <trkpt lat="45.80472" lon="-0.94921">
        <ele>76.029738</ele>
        <time>2022-12-22T10:32:00.571Z</time>
      </trkpt>
      <trkpt lat="45.80461" lon="-0.94925">
        <ele>76.115464</ele>
        <time>2022-12-22T10:32:03.560Z</time>
      </trkpt>
      <trkpt lat="45.80449" lon="-0.94929">
        <ele>76.202456</ele>
        <time>2022-12-22T10:32:06.547Z</time>
      </trkpt>
      <trkpt lat="45.80437" lon="-0.94933">
        <ele>76.285067</ele>
        <time>2022-12-22T10:32:09.541Z</time>
      </trkpt>
      <trkpt lat="45.80426" lon="-0.94937">
        <ele>76.365947</ele>
        <time>2022-12-22T10:32:12.572Z</time>
      </trkpt>
      <trkpt lat="45.80416" lon="-0.9494">
        <ele>76.440747</ele>
        <time>2022-12-22T10:32:15.574Z</time>
      </trkpt>
      <trkpt lat="45.80405" lon="-0.94944">
        <ele>76.526886</ele>
        <time>2022-12-22T10:32:19.565Z</time>
      </trkpt>
      <trkpt lat="45.80396" lon="-0.94947">
        <ele>76.615488</ele>
        <time>2022-12-22T10:32:23.563Z</time>
      </trkpt>
      <trkpt lat="45.80385" lon="-0.94952">
        <ele>76.713148</ele>
        <time>2022-12-22T10:32:27.550Z</time>
      </trkpt>
      <trkpt lat="45.80374" lon="-0.94956">
        <ele>76.816869</ele>
        <time>2022-12-22T10:32:31.557Z</time>
      </trkpt>
      <trkpt lat="45.80364" lon="-0.94959">
        <ele>76.897907</ele>
        <time>2022-12-22T10:32:34.559Z</time>
      </trkpt>
      <trkpt lat="45.80354" lon="-0.94963">
        <ele>76.995302</ele>
        <time>2022-12-22T10:32:38.562Z</time>
      </trkpt>
      <trkpt lat="45.80342" lon="-0.94967">
        <ele>77.099794</ele>
        <time>2022-12-22T10:32:42.575Z</time>
      </trkpt>
      <trkpt lat="45.80333" lon="-0.94969">
        <ele>77.181587</ele>
        <time>2022-12-22T10:32:45.567Z</time>
      </trkpt>
      <trkpt lat="45.80324" lon="-0.94971">
        <ele>77.262412</ele>
        <time>2022-12-22T10:32:48.611Z</time>
      </trkpt>
      <trkpt lat="45.80315" lon="-0.94974">
        <ele>77.341925</ele>
        <time>2022-12-22T10:32:51.570Z</time>
      </trkpt>
      <trkpt lat="45.80306" lon="-0.94978">
        <ele>77.423758</ele>
        <time>2022-12-22T10:32:54.618Z</time>
      </trkpt>
      <trkpt lat="45.80297" lon="-0.94981">
        <ele>77.507382</ele>
        <time>2022-12-22T10:32:57.555Z</time>
      </trkpt>
      <trkpt lat="45.80288" lon="-0.94985">
        <ele>77.587873</ele>
        <time>2022-12-22T10:33:00.549Z</time>
      </trkpt>
      <trkpt lat="45.80278" lon="-0.94989">
        <ele>77.675429</ele>
        <time>2022-12-22T10:33:04.570Z</time>
      </trkpt>
      <trkpt lat="45.80268" lon="-0.94995">
        <ele>77.776501</ele>
        <time>2022-12-22T10:33:08.558Z</time>
      </trkpt>
      <trkpt lat="45.80259" lon="-0.95">
        <ele>77.858534</ele>
        <time>2022-12-22T10:33:11.616Z</time>
      </trkpt>
      <trkpt lat="45.8025" lon="-0.95004">
        <ele>77.940777</ele>
        <time>2022-12-22T10:33:14.562Z</time>
      </trkpt>
      <trkpt lat="45.80241" lon="-0.9501">
        <ele>78.025062</ele>
        <time>2022-12-22T10:33:17.577Z</time>
      </trkpt>
      <trkpt lat="45.80231" lon="-0.95017">
        <ele>78.138262</ele>
        <time>2022-12-22T10:33:21.560Z</time>
      </trkpt>
      <trkpt lat="45.80221" lon="-0.95023">
        <ele>78.258797</ele>
        <time>2022-12-22T10:33:25.567Z</time>
      </trkpt>
      <trkpt lat="45.80213" lon="-0.95028">
        <ele>78.357283</ele>
        <time>2022-12-22T10:33:28.562Z</time>
      </trkpt>
      <trkpt lat="45.80205" lon="-0.95034">
        <ele>78.460409</ele>
        <time>2022-12-22T10:33:31.559Z</time>
      </trkpt>
      <trkpt lat="45.80196" lon="-0.95039">
        <ele>78.563313</ele>
        <time>2022-12-22T10:33:34.557Z</time>
      </trkpt>
      <trkpt lat="45.80187" lon="-0.95044">
        <ele>78.671606</ele>
        <time>2022-12-22T10:33:37.551Z</time>
      </trkpt>
      <trkpt lat="45.80178" lon="-0.9505">
        <ele>78.779171</ele>
        <time>2022-12-22T10:33:40.558Z</time>
      </trkpt>
      <trkpt lat="45.80169" lon="-0.95056">
        <ele>78.888968</ele>
        <time>2022-12-22T10:33:43.558Z</time>
      </trkpt>
      <trkpt lat="45.8016" lon="-0.95061">
        <ele>78.998074</ele>
        <time>2022-12-22T10:33:46.557Z</time>
      </trkpt>
      <trkpt lat="45.80151" lon="-0.95067">
        <ele>79.10608</ele>
        <time>2022-12-22T10:33:49.564Z</time>
      </trkpt>
      <trkpt lat="45.80142" lon="-0.95072">
        <ele>79.213526</ele>
        <time>2022-12-22T10:33:52.571Z</time>
      </trkpt>
      <trkpt lat="45.80133" lon="-0.95077">
        <ele>79.317447</ele>
        <time>2022-12-22T10:33:55.565Z</time>
      </trkpt>
      <trkpt lat="45.80123" lon="-0.95083">
        <ele>79.436865</ele>
        <time>2022-12-22T10:33:59.620Z</time>
      </trkpt>
      <trkpt lat="45.80113" lon="-0.95089">
        <ele>79.560117</ele>
        <time>2022-12-22T10:34:03.561Z</time>
      </trkpt>
      <trkpt lat="45.80104" lon="-0.95093">
        <ele>79.66056</ele>
        <time>2022-12-22T10:34:06.558Z</time>
      </trkpt>
      <trkpt lat="45.80096" lon="-0.951">
        <ele>79.765703</ele>
        <time>2022-12-22T10:34:09.570Z</time>
      </trkpt>
      <trkpt lat="45.80087" lon="-0.95105">
        <ele>79.869489</ele>
        <time>2022-12-22T10:34:12.561Z</time>
      </trkpt>
      <trkpt lat="45.80078" lon="-0.95109">
        <ele>79.973153</ele>
        <time>2022-12-22T10:34:15.572Z</time>
      </trkpt>
      <trkpt lat="45.80069" lon="-0.95114">
        <ele>80.09907</ele>
        <time>2022-12-22T10:34:19.567Z</time>
      </trkpt>
      <trkpt lat="45.80059" lon="-0.9512">
        <ele>80.251148</ele>
        <time>2022-12-22T10:34:23.561Z</time>
      </trkpt>
      <trkpt lat="45.8005" lon="-0.95126">
        <ele>80.380893</ele>
        <time>2022-12-22T10:34:26.563Z</time>
      </trkpt>
      <trkpt lat="45.80041" lon="-0.95132">
        <ele>80.513555</ele>
        <time>2022-12-22T10:34:29.564Z</time>
      </trkpt>
      <trkpt lat="45.80033" lon="-0.95138">
        <ele>80.648753</ele>
        <time>2022-12-22T10:34:32.560Z</time>
      </trkpt>
      <trkpt lat="45.80024" lon="-0.95145">
        <ele>80.784079</ele>
        <time>2022-12-22T10:34:35.563Z</time>
      </trkpt>
      <trkpt lat="45.80015" lon="-0.95152">
        <ele>80.922966</ele>
        <time>2022-12-22T10:34:38.557Z</time>
      </trkpt>
      <trkpt lat="45.80007" lon="-0.9516">
        <ele>81.064018</ele>
        <time>2022-12-22T10:34:41.568Z</time>
      </trkpt>
      <trkpt lat="45.79998" lon="-0.95167">
        <ele>81.199547</ele>
        <time>2022-12-22T10:34:44.564Z</time>
      </trkpt>
      <trkpt lat="45.7999" lon="-0.95174">
        <ele>81.337539</ele>
        <time>2022-12-22T10:34:47.549Z</time>
      </trkpt>
      <trkpt lat="45.79982" lon="-0.95181">
        <ele>81.465636</ele>
        <time>2022-12-22T10:34:50.564Z</time>
      </trkpt>
      <trkpt lat="45.79973" lon="-0.95188">
        <ele>81.599748</ele>
        <time>2022-12-22T10:34:54.569Z</time>
      </trkpt>
      <trkpt lat="45.79965" lon="-0.95195">
        <ele>81.734567</ele>
        <time>2022-12-22T10:34:58.616Z</time>
      </trkpt>
      <trkpt lat="45.79956" lon="-0.95203">
        <ele>81.881484</ele>
        <time>2022-12-22T10:35:02.565Z</time>
      </trkpt>
      <trkpt lat="45.79947" lon="-0.95211">
        <ele>82.030086</ele>
        <time>2022-12-22T10:35:06.561Z</time>
      </trkpt>
      <trkpt lat="45.79937" lon="-0.95217">
        <ele>82.178697</ele>
        <time>2022-12-22T10:35:10.617Z</time>
      </trkpt>
      <trkpt lat="45.79926" lon="-0.95223">
        <ele>82.333938</ele>
        <time>2022-12-22T10:35:14.562Z</time>
      </trkpt>
      <trkpt lat="45.79916" lon="-0.95226">
        <ele>82.484511</ele>
        <time>2022-12-22T10:35:18.547Z</time>
      </trkpt>
      <trkpt lat="45.79904" lon="-0.95225">
        <ele>82.400993</ele>
        <time>2022-12-22T10:35:22.616Z</time>
      </trkpt>
      <trkpt lat="45.79893" lon="-0.95221">
        <ele>82.252006</ele>
        <time>2022-12-22T10:35:26.566Z</time>
      </trkpt>
      <trkpt lat="45.79884" lon="-0.95217">
        <ele>82.13521</ele>
        <time>2022-12-22T10:35:29.572Z</time>
      </trkpt>
      <trkpt lat="45.79875" lon="-0.95214">
        <ele>82.010748</ele>
        <time>2022-12-22T10:35:32.561Z</time>
      </trkpt>
      <trkpt lat="45.79865" lon="-0.95209">
        <ele>81.880756</ele>
        <time>2022-12-22T10:35:35.562Z</time>
      </trkpt>
      <trkpt lat="45.79856" lon="-0.95205">
        <ele>81.74911</ele>
        <time>2022-12-22T10:35:38.561Z</time>
      </trkpt>
      <trkpt lat="45.79846" lon="-0.952">
        <ele>81.613666</ele>
        <time>2022-12-22T10:35:41.564Z</time>
      </trkpt>
      <trkpt lat="45.79835" lon="-0.95196">
        <ele>81.474106</ele>
        <time>2022-12-22T10:35:44.561Z</time>
      </trkpt>
      <trkpt lat="45.79824" lon="-0.95191">
        <ele>81.329538</ele>
        <time>2022-12-22T10:35:47.553Z</time>
      </trkpt>
      <trkpt lat="45.79814" lon="-0.95186">
        <ele>81.183743</ele>
        <time>2022-12-22T10:35:50.562Z</time>
      </trkpt>
      <trkpt lat="45.79804" lon="-0.95181">
        <ele>81.049237</ele>
        <time>2022-12-22T10:35:53.559Z</time>
      </trkpt>
      <trkpt lat="45.79795" lon="-0.95177">
        <ele>80.925503</ele>
        <time>2022-12-22T10:35:56.561Z</time>
      </trkpt>
      <trkpt lat="45.79784" lon="-0.95173">
        <ele>80.78272</ele>
        <time>2022-12-22T10:36:00.546Z</time>
      </trkpt>
      <trkpt lat="45.79773" lon="-0.95167">
        <ele>80.632485</ele>
        <time>2022-12-22T10:36:04.626Z</time>
      </trkpt>
      <trkpt lat="45.79763" lon="-0.95163">
        <ele>80.504937</ele>
        <time>2022-12-22T10:36:07.546Z</time>
      </trkpt>
      <trkpt lat="45.79753" lon="-0.95159">
        <ele>80.367113</ele>
        <time>2022-12-22T10:36:10.605Z</time>
      </trkpt>
      <trkpt lat="45.79743" lon="-0.95154">
        <ele>80.224829</ele>
        <time>2022-12-22T10:36:13.563Z</time>
      </trkpt>
      <trkpt lat="45.79732" lon="-0.9515">
        <ele>80.216744</ele>
        <time>2022-12-22T10:36:16.628Z</time>
      </trkpt>
      <trkpt lat="45.79721" lon="-0.95145">
        <ele>80.23462</ele>
        <time>2022-12-22T10:36:19.571Z</time>
      </trkpt>
      <trkpt lat="45.79711" lon="-0.95141">
        <ele>80.252796</ele>
        <time>2022-12-22T10:36:22.608Z</time>
      </trkpt>
      <trkpt lat="45.79701" lon="-0.95136">
        <ele>80.269678</ele>
        <time>2022-12-22T10:36:25.564Z</time>
      </trkpt>
      <trkpt lat="45.79692" lon="-0.95132">
        <ele>80.284805</ele>
        <time>2022-12-22T10:36:28.614Z</time>
      </trkpt>
      <trkpt lat="45.7968" lon="-0.95127">
        <ele>80.303983</ele>
        <time>2022-12-22T10:36:32.564Z</time>
      </trkpt>
      <trkpt lat="45.7967" lon="-0.95123">
        <ele>80.320604</ele>
        <time>2022-12-22T10:36:35.573Z</time>
      </trkpt>
      <trkpt lat="45.7966" lon="-0.9512">
        <ele>80.338458</ele>
        <time>2022-12-22T10:36:38.565Z</time>
      </trkpt>
      <trkpt lat="45.79649" lon="-0.95118">
        <ele>80.356087</ele>
        <time>2022-12-22T10:36:41.562Z</time>
      </trkpt>
      <trkpt lat="45.79639" lon="-0.95117">
        <ele>80.37286</ele>
        <time>2022-12-22T10:36:44.556Z</time>
      </trkpt>
      <trkpt lat="45.79627" lon="-0.95117">
        <ele>80.391641</ele>
        <time>2022-12-22T10:36:47.542Z</time>
      </trkpt>
      <trkpt lat="45.79615" lon="-0.95118">
        <ele>80.410819</ele>
        <time>2022-12-22T10:36:50.563Z</time>
      </trkpt>
      <trkpt lat="45.79603" lon="-0.9512">
        <ele>80.430244</ele>
        <time>2022-12-22T10:36:53.563Z</time>
      </trkpt>
      <trkpt lat="45.79591" lon="-0.95124">
        <ele>80.450025</ele>
        <time>2022-12-22T10:36:56.553Z</time>
      </trkpt>
      <trkpt lat="45.79579" lon="-0.95127">
        <ele>80.46951</ele>
        <time>2022-12-22T10:36:59.562Z</time>
      </trkpt>
      <trkpt lat="45.79568" lon="-0.95131">
        <ele>80.489089</ele>
        <time>2022-12-22T10:37:02.562Z</time>
      </trkpt>
      <trkpt lat="45.79556" lon="-0.95135">
        <ele>80.29541</ele>
        <time>2022-12-22T10:37:05.542Z</time>
      </trkpt>
      <trkpt lat="45.79545" lon="-0.95138">
        <ele>80.067531</ele>
        <time>2022-12-22T10:37:08.564Z</time>
      </trkpt>
      <trkpt lat="45.79535" lon="-0.95141">
        <ele>79.873139</ele>
        <time>2022-12-22T10:37:11.564Z</time>
      </trkpt>
      <trkpt lat="45.79526" lon="-0.95143">
        <ele>79.686093</ele>
        <time>2022-12-22T10:37:14.559Z</time>
      </trkpt>
      <trkpt lat="45.79517" lon="-0.95147">
        <ele>79.492487</ele>
        <time>2022-12-22T10:37:17.545Z</time>
      </trkpt>
      <trkpt lat="45.79506" lon="-0.95148">
        <ele>79.269837</ele>
        <time>2022-12-22T10:37:21.633Z</time>
      </trkpt>
      <trkpt lat="45.79495" lon="-0.9515">
        <ele>79.045642</ele>
        <time>2022-12-22T10:37:25.572Z</time>
      </trkpt>
      <trkpt lat="45.79485" lon="-0.95151">
        <ele>78.844294</ele>
        <time>2022-12-22T10:37:30.567Z</time>
      </trkpt>
      <trkpt lat="45.79474" lon="-0.95148">
        <ele>78.607278</ele>
        <time>2022-12-22T10:41:39.541Z</time>
      </trkpt>
      <trkpt lat="45.79462" lon="-0.95148">
        <ele>78.376046</ele>
        <time>2022-12-22T10:41:43.551Z</time>
      </trkpt>
      <trkpt lat="45.79453" lon="-0.95147">
        <ele>78.180763</ele>
        <time>2022-12-22T10:41:46.539Z</time>
      </trkpt>
      <trkpt lat="45.79443" lon="-0.95144">
        <ele>77.971393</ele>
        <time>2022-12-22T10:41:49.542Z</time>
      </trkpt>
      <trkpt lat="45.79432" lon="-0.95142">
        <ele>77.758817</ele>
        <time>2022-12-22T10:41:52.545Z</time>
      </trkpt>
      <trkpt lat="45.79421" lon="-0.9514">
        <ele>77.53476</ele>
        <time>2022-12-22T10:41:55.561Z</time>
      </trkpt>
      <trkpt lat="45.7941" lon="-0.95138">
        <ele>77.302493</ele>
        <time>2022-12-22T10:41:58.559Z</time>
      </trkpt>
      <trkpt lat="45.79398" lon="-0.95136">
        <ele>77.06303</ele>
        <time>2022-12-22T10:42:01.546Z</time>
      </trkpt>
      <trkpt lat="45.79387" lon="-0.95134">
        <ele>76.841878</ele>
        <time>2022-12-22T10:42:04.560Z</time>
      </trkpt>
      <trkpt lat="45.79375" lon="-0.95133">
        <ele>76.783818</ele>
        <time>2022-12-22T10:42:07.543Z</time>
      </trkpt>
      <trkpt lat="45.79363" lon="-0.9513">
        <ele>76.724481</ele>
        <time>2022-12-22T10:42:10.554Z</time>
      </trkpt>
      <trkpt lat="45.79351" lon="-0.95128">
        <ele>76.66602</ele>
        <time>2022-12-22T10:42:13.561Z</time>
      </trkpt>
      <trkpt lat="45.79339" lon="-0.95126">
        <ele>76.606886</ele>
        <time>2022-12-22T10:42:16.558Z</time>
      </trkpt>
      <trkpt lat="45.79327" lon="-0.95124">
        <ele>76.547549</ele>
        <time>2022-12-22T10:42:19.573Z</time>
      </trkpt>
      <trkpt lat="45.79316" lon="-0.95121">
        <ele>76.490006</ele>
        <time>2022-12-22T10:42:22.561Z</time>
      </trkpt>
      <trkpt lat="45.79304" lon="-0.95119">
        <ele>76.431641</ele>
        <time>2022-12-22T10:42:25.542Z</time>
      </trkpt>
      <trkpt lat="45.79292" lon="-0.95117">
        <ele>76.372877</ele>
        <time>2022-12-22T10:42:28.560Z</time>
      </trkpt>
      <trkpt lat="45.7928" lon="-0.95115">
        <ele>76.31423</ele>
        <time>2022-12-22T10:42:31.559Z</time>
      </trkpt>
      <trkpt lat="45.79268" lon="-0.95113">
        <ele>76.25635</ele>
        <time>2022-12-22T10:42:34.571Z</time>
      </trkpt>
      <trkpt lat="45.79257" lon="-0.9511">
        <ele>76.197889</ele>
        <time>2022-12-22T10:42:37.545Z</time>
      </trkpt>
      <trkpt lat="45.79245" lon="-0.95108">
        <ele>76.139692</ele>
        <time>2022-12-22T10:42:40.552Z</time>
      </trkpt>
      <trkpt lat="45.79234" lon="-0.95106">
        <ele>76.08579</ele>
        <time>2022-12-22T10:42:43.543Z</time>
      </trkpt>
      <trkpt lat="45.79224" lon="-0.95103">
        <ele>76.037406</ele>
        <time>2022-12-22T10:42:46.543Z</time>
      </trkpt>
      <trkpt lat="45.79214" lon="-0.951">
        <ele>75.986232</ele>
        <time>2022-12-22T10:42:49.538Z</time>
      </trkpt>
      <trkpt lat="45.79204" lon="-0.95095">
        <ele>75.915669</ele>
        <time>2022-12-22T10:42:52.544Z</time>
      </trkpt>
      <trkpt lat="45.79194" lon="-0.95089">
        <ele>75.825117</ele>
        <time>2022-12-22T10:42:55.559Z</time>
      </trkpt>
      <trkpt lat="45.79184" lon="-0.95082">
        <ele>75.729996</ele>
        <time>2022-12-22T10:42:58.559Z</time>
      </trkpt>
      <trkpt lat="45.79173" lon="-0.95074">
        <ele>75.63314</ele>
        <time>2022-12-22T10:43:01.542Z</time>
      </trkpt>
      <trkpt lat="45.79163" lon="-0.95066">
        <ele>75.533726</ele>
        <time>2022-12-22T10:43:04.545Z</time>
      </trkpt>
      <trkpt lat="45.79152" lon="-0.95057">
        <ele>75.434602</ele>
        <time>2022-12-22T10:43:07.553Z</time>
      </trkpt>
      <trkpt lat="45.79142" lon="-0.95049">
        <ele>75.336329</ele>
        <time>2022-12-22T10:43:10.543Z</time>
      </trkpt>
      <trkpt lat="45.79131" lon="-0.9504">
        <ele>75.232157</ele>
        <time>2022-12-22T10:43:13.562Z</time>
      </trkpt>
      <trkpt lat="45.7912" lon="-0.95031">
        <ele>75.126709</ele>
        <time>2022-12-22T10:43:16.556Z</time>
      </trkpt>
      <trkpt lat="45.79108" lon="-0.95023">
        <ele>75.02181</ele>
        <time>2022-12-22T10:43:19.561Z</time>
      </trkpt>
      <trkpt lat="45.79098" lon="-0.95015">
        <ele>74.926634</ele>
        <time>2022-12-22T10:43:22.552Z</time>
      </trkpt>
      <trkpt lat="45.79087" lon="-0.95006">
        <ele>74.822911</ele>
        <time>2022-12-22T10:43:25.558Z</time>
      </trkpt>
      <trkpt lat="45.79076" lon="-0.94998">
        <ele>74.717012</ele>
        <time>2022-12-22T10:43:28.560Z</time>
      </trkpt>
      <trkpt lat="45.79065" lon="-0.94988">
        <ele>74.610573</ele>
        <time>2022-12-22T10:43:31.540Z</time>
      </trkpt>
      <trkpt lat="45.79053" lon="-0.9498">
        <ele>74.502751</ele>
        <time>2022-12-22T10:43:34.555Z</time>
      </trkpt>
      <trkpt lat="45.79041" lon="-0.94972">
        <ele>74.511217</ele>
        <time>2022-12-22T10:43:37.545Z</time>
      </trkpt>
      <trkpt lat="45.79029" lon="-0.94966">
        <ele>74.550685</ele>
        <time>2022-12-22T10:43:40.551Z</time>
      </trkpt>
      <trkpt lat="45.79017" lon="-0.94962">
        <ele>74.58827</ele>
        <time>2022-12-22T10:43:43.560Z</time>
      </trkpt>
      <trkpt lat="45.79005" lon="-0.94959">
        <ele>74.626697</ele>
        <time>2022-12-22T10:43:46.548Z</time>
      </trkpt>
      <trkpt lat="45.78993" lon="-0.94957">
        <ele>74.663488</ele>
        <time>2022-12-22T10:43:49.562Z</time>
      </trkpt>
      <trkpt lat="45.78982" lon="-0.94958">
        <ele>74.697709</ele>
        <time>2022-12-22T10:43:52.553Z</time>
      </trkpt>
      <trkpt lat="45.78971" lon="-0.94959">
        <ele>74.731445</ele>
        <time>2022-12-22T10:43:55.560Z</time>
      </trkpt>
      <trkpt lat="45.7896" lon="-0.94961">
        <ele>74.766238</ele>
        <time>2022-12-22T10:43:58.567Z</time>
      </trkpt>
      <trkpt lat="45.78949" lon="-0.94964">
        <ele>74.800414</ele>
        <time>2022-12-22T10:44:01.549Z</time>
      </trkpt>
      <trkpt lat="45.78938" lon="-0.94967">
        <ele>74.833852</ele>
        <time>2022-12-22T10:44:04.558Z</time>
      </trkpt>
      <trkpt lat="45.78928" lon="-0.94971">
        <ele>74.867886</ele>
        <time>2022-12-22T10:44:07.548Z</time>
      </trkpt>
      <trkpt lat="45.78917" lon="-0.94975">
        <ele>74.902667</ele>
        <time>2022-12-22T10:44:10.560Z</time>
      </trkpt>
      <trkpt lat="45.78905" lon="-0.94977">
        <ele>74.938127</ele>
        <time>2022-12-22T10:44:13.561Z</time>
      </trkpt>
      <trkpt lat="45.78893" lon="-0.94978">
        <ele>74.974595</ele>
        <time>2022-12-22T10:44:16.561Z</time>
      </trkpt>
      <trkpt lat="45.78881" lon="-0.94977">
        <ele>75.012254</ele>
        <time>2022-12-22T10:44:19.567Z</time>
      </trkpt>
      <trkpt lat="45.78869" lon="-0.94975">
        <ele>75.028515</ele>
        <time>2022-12-22T10:44:22.562Z</time>
      </trkpt>
      <trkpt lat="45.78857" lon="-0.94971">
        <ele>75.017898</ele>
        <time>2022-12-22T10:44:25.561Z</time>
      </trkpt>
      <trkpt lat="45.78847" lon="-0.94967">
        <ele>75.008065</ele>
        <time>2022-12-22T10:44:28.563Z</time>
      </trkpt>
      <trkpt lat="45.78836" lon="-0.94962">
        <ele>74.99763</ele>
        <time>2022-12-22T10:44:31.562Z</time>
      </trkpt>
      <trkpt lat="45.78825" lon="-0.94956">
        <ele>74.986916</ele>
        <time>2022-12-22T10:44:34.560Z</time>
      </trkpt>
      <trkpt lat="45.78816" lon="-0.94947">
        <ele>74.976948</ele>
        <time>2022-12-22T10:44:37.542Z</time>
      </trkpt>
      <trkpt lat="45.78806" lon="-0.94937">
        <ele>74.966723</ele>
        <time>2022-12-22T10:44:40.568Z</time>
      </trkpt>
      <trkpt lat="45.78797" lon="-0.94927">
        <ele>74.956279</ele>
        <time>2022-12-22T10:44:43.537Z</time>
      </trkpt>
      <trkpt lat="45.78788" lon="-0.94916">
        <ele>74.945573</ele>
        <time>2022-12-22T10:44:46.566Z</time>
      </trkpt>
      <trkpt lat="45.78778" lon="-0.94905">
        <ele>74.934662</ele>
        <time>2022-12-22T10:44:49.546Z</time>
      </trkpt>
      <trkpt lat="45.78769" lon="-0.94893">
        <ele>74.923554</ele>
        <time>2022-12-22T10:44:52.562Z</time>
      </trkpt>
      <trkpt lat="45.7876" lon="-0.94881">
        <ele>74.912229</ele>
        <time>2022-12-22T10:44:55.558Z</time>
      </trkpt>
      <trkpt lat="45.7875" lon="-0.94869">
        <ele>74.900812</ele>
        <time>2022-12-22T10:44:58.574Z</time>
      </trkpt>
      <trkpt lat="45.78741" lon="-0.94858">
        <ele>74.889897</ele>
        <time>2022-12-22T10:45:01.560Z</time>
      </trkpt>
      <trkpt lat="45.78733" lon="-0.94847">
        <ele>74.879978</ele>
        <time>2022-12-22T10:45:04.558Z</time>
      </trkpt>
      <trkpt lat="45.78725" lon="-0.94837">
        <ele>74.876413</ele>
        <time>2022-12-22T10:45:07.545Z</time>
      </trkpt>
      <trkpt lat="45.78716" lon="-0.94826">
        <ele>74.901865</ele>
        <time>2022-12-22T10:45:10.562Z</time>
      </trkpt>
      <trkpt lat="45.78708" lon="-0.94815">
        <ele>74.927805</ele>
        <time>2022-12-22T10:45:13.569Z</time>
      </trkpt>
      <trkpt lat="45.78699" lon="-0.94804">
        <ele>74.954524</ele>
        <time>2022-12-22T10:45:16.559Z</time>
      </trkpt>
      <trkpt lat="45.78691" lon="-0.94793">
        <ele>74.980297</ele>
        <time>2022-12-22T10:45:19.545Z</time>
      </trkpt>
      <trkpt lat="45.78683" lon="-0.94782">
        <ele>75.0052</ele>
        <time>2022-12-22T10:45:22.560Z</time>
      </trkpt>
      <trkpt lat="45.78674" lon="-0.94771">
        <ele>75.032025</ele>
        <time>2022-12-22T10:45:25.558Z</time>
      </trkpt>
      <trkpt lat="45.78665" lon="-0.94759">
        <ele>75.05919</ele>
        <time>2022-12-22T10:45:28.566Z</time>
      </trkpt>
      <trkpt lat="45.78656" lon="-0.94749">
        <ele>75.086015</ele>
        <time>2022-12-22T10:45:31.561Z</time>
      </trkpt>
      <trkpt lat="45.78647" lon="-0.94737">
        <ele>75.111896</ele>
        <time>2022-12-22T10:45:34.562Z</time>
      </trkpt>
      <trkpt lat="45.78639" lon="-0.94727">
        <ele>75.138028</ele>
        <time>2022-12-22T10:45:37.547Z</time>
      </trkpt>
      <trkpt lat="45.7863" lon="-0.94716">
        <ele>75.164534</ele>
        <time>2022-12-22T10:45:40.565Z</time>
      </trkpt>
      <trkpt lat="45.78619" lon="-0.94707">
        <ele>75.192415</ele>
        <time>2022-12-22T10:45:43.562Z</time>
      </trkpt>
      <trkpt lat="45.78608" lon="-0.94697">
        <ele>75.221254</ele>
        <time>2022-12-22T10:45:46.570Z</time>
      </trkpt>
      <trkpt lat="45.78598" lon="-0.94689">
        <ele>75.248859</ele>
        <time>2022-12-22T10:45:49.565Z</time>
      </trkpt>
      <trkpt lat="45.78587" lon="-0.94682">
        <ele>75.275563</ele>
        <time>2022-12-22T10:45:52.558Z</time>
      </trkpt>
      <trkpt lat="45.78575" lon="-0.94677">
        <ele>75.351551</ele>
        <time>2022-12-22T10:45:55.560Z</time>
      </trkpt>
      <trkpt lat="45.78561" lon="-0.94671">
        <ele>75.440213</ele>
        <time>2022-12-22T10:45:58.561Z</time>
      </trkpt>
      <trkpt lat="45.78552" lon="-0.94668">
        <ele>75.501242</ele>
        <time>2022-12-22T10:46:00.561Z</time>
      </trkpt>
      <trkpt lat="45.78543" lon="-0.94664">
        <ele>75.562653</ele>
        <time>2022-12-22T10:46:02.557Z</time>
      </trkpt>
      <trkpt lat="45.78534" lon="-0.9466">
        <ele>75.626962</ele>
        <time>2022-12-22T10:46:04.557Z</time>
      </trkpt>
      <trkpt lat="45.78525" lon="-0.94657">
        <ele>75.686199</ele>
        <time>2022-12-22T10:46:06.558Z</time>
      </trkpt>
      <trkpt lat="45.78516" lon="-0.94654">
        <ele>75.747621</ele>
        <time>2022-12-22T10:46:08.562Z</time>
      </trkpt>
      <trkpt lat="45.78507" lon="-0.9465">
        <ele>75.807393</ele>
        <time>2022-12-22T10:46:10.563Z</time>
      </trkpt>
      <trkpt lat="45.78499" lon="-0.94646">
        <ele>75.866734</ele>
        <time>2022-12-22T10:46:12.561Z</time>
      </trkpt>
      <trkpt lat="45.78486" lon="-0.94641">
        <ele>75.954827</ele>
        <time>2022-12-22T10:46:15.559Z</time>
      </trkpt>
      <trkpt lat="45.78474" lon="-0.94636">
        <ele>76.036976</ele>
        <time>2022-12-22T10:46:18.575Z</time>
      </trkpt>
      <trkpt lat="45.78462" lon="-0.9463">
        <ele>76.120444</ele>
        <time>2022-12-22T10:46:21.558Z</time>
      </trkpt>
      <trkpt lat="45.7845" lon="-0.94623">
        <ele>76.199464</ele>
        <time>2022-12-22T10:46:24.559Z</time>
      </trkpt>
      <trkpt lat="45.7844" lon="-0.94619">
        <ele>76.269284</ele>
        <time>2022-12-22T10:46:27.552Z</time>
      </trkpt>
      <trkpt lat="45.78431" lon="-0.94613">
        <ele>76.334146</ele>
        <time>2022-12-22T10:46:30.556Z</time>
      </trkpt>
      <trkpt lat="45.78423" lon="-0.94606">
        <ele>76.396583</ele>
        <time>2022-12-22T10:46:33.562Z</time>
      </trkpt>
      <trkpt lat="45.78414" lon="-0.946">
        <ele>76.471842</ele>
        <time>2022-12-22T10:46:36.567Z</time>
      </trkpt>
      <trkpt lat="45.78405" lon="-0.94591">
        <ele>76.644485</ele>
        <time>2022-12-22T10:46:39.559Z</time>
      </trkpt>
      <trkpt lat="45.78397" lon="-0.94584">
        <ele>76.807324</ele>
        <time>2022-12-22T10:46:42.560Z</time>
      </trkpt>
      <trkpt lat="45.78388" lon="-0.94573">
        <ele>76.997499</ele>
        <time>2022-12-22T10:46:46.560Z</time>
      </trkpt>
      <trkpt lat="45.78381" lon="-0.94565">
        <ele>77.152419</ele>
        <time>2022-12-22T10:46:49.564Z</time>
      </trkpt>
      <trkpt lat="45.78375" lon="-0.94556">
        <ele>77.30763</ele>
        <time>2022-12-22T10:46:52.559Z</time>
      </trkpt>
      <trkpt lat="45.78367" lon="-0.94547">
        <ele>77.467669</ele>
        <time>2022-12-22T10:46:55.558Z</time>
      </trkpt>
      <trkpt lat="45.78361" lon="-0.94537">
        <ele>77.624841</ele>
        <time>2022-12-22T10:46:58.570Z</time>
      </trkpt>
      <trkpt lat="45.78353" lon="-0.94527">
        <ele>77.79524</ele>
        <time>2022-12-22T10:47:02.561Z</time>
      </trkpt>
      <trkpt lat="45.78346" lon="-0.94519">
        <ele>77.953243</ele>
        <time>2022-12-22T10:47:06.570Z</time>
      </trkpt>
      <trkpt lat="45.78338" lon="-0.94509">
        <ele>78.130733</ele>
        <time>2022-12-22T10:47:10.558Z</time>
      </trkpt>
      <trkpt lat="45.7833" lon="-0.94498">
        <ele>78.318639</ele>
        <time>2022-12-22T10:47:14.559Z</time>
      </trkpt>
      <trkpt lat="45.78321" lon="-0.94486">
        <ele>78.516975</ele>
        <time>2022-12-22T10:47:18.571Z</time>
      </trkpt>
      <trkpt lat="45.78312" lon="-0.94475">
        <ele>78.713288</ele>
        <time>2022-12-22T10:47:22.563Z</time>
      </trkpt>
      <trkpt lat="45.78304" lon="-0.94465">
        <ele>78.898396</ele>
        <time>2022-12-22T10:47:26.565Z</time>
      </trkpt>
      <trkpt lat="45.78295" lon="-0.94453">
        <ele>79.093929</ele>
        <time>2022-12-22T10:47:30.562Z</time>
      </trkpt>
      <trkpt lat="45.78288" lon="-0.94445">
        <ele>79.247333</ele>
        <time>2022-12-22T10:47:33.562Z</time>
      </trkpt>
      <trkpt lat="45.78281" lon="-0.94437">
        <ele>79.402566</ele>
        <time>2022-12-22T10:47:36.562Z</time>
      </trkpt>
      <trkpt lat="45.78271" lon="-0.94427">
        <ele>79.50649</ele>
        <time>2022-12-22T10:47:40.548Z</time>
      </trkpt>
      <trkpt lat="45.78261" lon="-0.94419">
        <ele>79.564982</ele>
        <time>2022-12-22T10:47:44.553Z</time>
      </trkpt>
      <trkpt lat="45.7825" lon="-0.94413">
        <ele>79.628094</ele>
        <time>2022-12-22T10:47:48.560Z</time>
      </trkpt>
      <trkpt lat="45.78241" lon="-0.9441">
        <ele>79.676201</ele>
        <time>2022-12-22T10:47:51.559Z</time>
      </trkpt>
      <trkpt lat="45.78232" lon="-0.94409">
        <ele>79.726934</ele>
        <time>2022-12-22T10:47:54.557Z</time>
      </trkpt>
      <trkpt lat="45.78221" lon="-0.94408">
        <ele>79.785963</ele>
        <time>2022-12-22T10:47:58.539Z</time>
      </trkpt>
      <trkpt lat="45.78209" lon="-0.94413">
        <ele>79.847235</ele>
        <time>2022-12-22T10:48:02.554Z</time>
      </trkpt>
      <trkpt lat="45.782" lon="-0.94418">
        <ele>79.900295</ele>
        <time>2022-12-22T10:48:05.551Z</time>
      </trkpt>
      <trkpt lat="45.7819" lon="-0.94424">
        <ele>79.957022</ele>
        <time>2022-12-22T10:48:08.561Z</time>
      </trkpt>
      <trkpt lat="45.7818" lon="-0.9443">
        <ele>80.013499</ele>
        <time>2022-12-22T10:48:11.560Z</time>
      </trkpt>
      <trkpt lat="45.78171" lon="-0.94436">
        <ele>80.069108</ele>
        <time>2022-12-22T10:48:14.571Z</time>
      </trkpt>
      <trkpt lat="45.78161" lon="-0.94443">
        <ele>80.128203</ele>
        <time>2022-12-22T10:48:17.556Z</time>
      </trkpt>
      <trkpt lat="45.78151" lon="-0.94449">
        <ele>80.18211</ele>
        <time>2022-12-22T10:48:20.557Z</time>
      </trkpt>
      <trkpt lat="45.78141" lon="-0.94456">
        <ele>80.242698</ele>
        <time>2022-12-22T10:48:24.561Z</time>
      </trkpt>
      <trkpt lat="45.78132" lon="-0.94461">
        <ele>80.293718</ele>
        <time>2022-12-22T10:48:27.555Z</time>
      </trkpt>
      <trkpt lat="45.78122" lon="-0.94466">
        <ele>80.350385</ele>
        <time>2022-12-22T10:48:30.560Z</time>
      </trkpt>
      <trkpt lat="45.7811" lon="-0.94471">
        <ele>80.40876</ele>
        <time>2022-12-22T10:48:33.551Z</time>
      </trkpt>
      <trkpt lat="45.78098" lon="-0.94475">
        <ele>80.279244</ele>
        <time>2022-12-22T10:48:36.559Z</time>
      </trkpt>
      <trkpt lat="45.78085" lon="-0.94476">
        <ele>80.143613</ele>
        <time>2022-12-22T10:48:39.546Z</time>
      </trkpt>
      <trkpt lat="45.78076" lon="-0.94473">
        <ele>80.048215</ele>
        <time>2022-12-22T10:48:41.565Z</time>
      </trkpt>
      <trkpt lat="45.78064" lon="-0.94468">
        <ele>79.914985</ele>
        <time>2022-12-22T10:48:44.564Z</time>
      </trkpt>
      <trkpt lat="45.78052" lon="-0.94463">
        <ele>79.788185</ele>
        <time>2022-12-22T10:48:47.548Z</time>
      </trkpt>
      <trkpt lat="45.7804" lon="-0.94455">
        <ele>79.650277</ele>
        <time>2022-12-22T10:48:50.560Z</time>
      </trkpt>
      <trkpt lat="45.78029" lon="-0.94447">
        <ele>79.522715</ele>
        <time>2022-12-22T10:48:53.577Z</time>
      </trkpt>
      <trkpt lat="45.78019" lon="-0.9444">
        <ele>79.407995</ele>
        <time>2022-12-22T10:48:56.562Z</time>
      </trkpt>
      <trkpt lat="45.78009" lon="-0.94434">
        <ele>79.293275</ele>
        <time>2022-12-22T10:48:59.559Z</time>
      </trkpt>
      <trkpt lat="45.77999" lon="-0.94426">
        <ele>79.169158</ele>
        <time>2022-12-22T10:49:02.558Z</time>
      </trkpt>
      <trkpt lat="45.77987" lon="-0.94419">
        <ele>79.04</ele>
        <time>2022-12-22T10:49:05.561Z</time>
      </trkpt>
      <trkpt lat="45.77976" lon="-0.94411">
        <ele>78.90852</ele>
        <time>2022-12-22T10:49:08.543Z</time>
      </trkpt>
      <trkpt lat="45.77966" lon="-0.94402">
        <ele>78.783922</ele>
        <time>2022-12-22T10:49:11.560Z</time>
      </trkpt>
      <trkpt lat="45.77956" lon="-0.94395">
        <ele>78.668731</ele>
        <time>2022-12-22T10:49:14.565Z</time>
      </trkpt>
      <trkpt lat="45.77945" lon="-0.94388">
        <ele>78.546389</ele>
        <time>2022-12-22T10:49:17.556Z</time>
      </trkpt>
      <trkpt lat="45.77934" lon="-0.94381">
        <ele>78.453583</ele>
        <time>2022-12-22T10:49:20.564Z</time>
      </trkpt>
      <trkpt lat="45.77923" lon="-0.94373">
        <ele>78.362307</ele>
        <time>2022-12-22T10:49:23.560Z</time>
      </trkpt>
      <trkpt lat="45.77911" lon="-0.94363">
        <ele>78.267739</ele>
        <time>2022-12-22T10:49:26.565Z</time>
      </trkpt>
      <trkpt lat="45.779" lon="-0.94354">
        <ele>78.1738</ele>
        <time>2022-12-22T10:49:29.557Z</time>
      </trkpt>
      <trkpt lat="45.7789" lon="-0.94343">
        <ele>78.081467</ele>
        <time>2022-12-22T10:49:32.559Z</time>
      </trkpt>
      <trkpt lat="45.77881" lon="-0.94331">
        <ele>77.989908</ele>
        <time>2022-12-22T10:49:35.561Z</time>
      </trkpt>
      <trkpt lat="45.77873" lon="-0.94317">
        <ele>77.900101</ele>
        <time>2022-12-22T10:49:38.550Z</time>
      </trkpt>
      <trkpt lat="45.77866" lon="-0.94302">
        <ele>77.807018</ele>
        <time>2022-12-22T10:49:41.570Z</time>
      </trkpt>
      <trkpt lat="45.7786" lon="-0.94285">
        <ele>77.710907</ele>
        <time>2022-12-22T10:49:44.561Z</time>
      </trkpt>
      <trkpt lat="45.77855" lon="-0.94274">
        <ele>77.642688</ele>
        <time>2022-12-22T10:49:46.563Z</time>
      </trkpt>
      <trkpt lat="45.77851" lon="-0.94261">
        <ele>77.574447</ele>
        <time>2022-12-22T10:49:48.570Z</time>
      </trkpt>
      <trkpt lat="45.77847" lon="-0.94249">
        <ele>77.502839</ele>
        <time>2022-12-22T10:49:50.565Z</time>
      </trkpt>
      <trkpt lat="45.77843" lon="-0.94235">
        <ele>77.42887</ele>
        <time>2022-12-22T10:49:52.570Z</time>
      </trkpt>
      <trkpt lat="45.77839" lon="-0.94223">
        <ele>77.359551</ele>
        <time>2022-12-22T10:49:54.564Z</time>
      </trkpt>
      <trkpt lat="45.77835" lon="-0.9421">
        <ele>77.288006</ele>
        <time>2022-12-22T10:49:56.556Z</time>
      </trkpt>
      <trkpt lat="45.77831" lon="-0.94198">
        <ele>77.24813</ele>
        <time>2022-12-22T10:49:58.560Z</time>
      </trkpt>
      <trkpt lat="45.77826" lon="-0.9418">
        <ele>77.419358</ele>
        <time>2022-12-22T10:50:01.564Z</time>
      </trkpt>
      <trkpt lat="45.77821" lon="-0.94164">
        <ele>77.582483</ele>
        <time>2022-12-22T10:50:04.568Z</time>
      </trkpt>
      <trkpt lat="45.77814" lon="-0.9415">
        <ele>77.739842</ele>
        <time>2022-12-22T10:50:07.551Z</time>
      </trkpt>
      <trkpt lat="45.77807" lon="-0.94136">
        <ele>77.897046</ele>
        <time>2022-12-22T10:50:10.557Z</time>
      </trkpt>
      <trkpt lat="45.778" lon="-0.94123">
        <ele>78.050925</ele>
        <time>2022-12-22T10:50:13.539Z</time>
      </trkpt>
      <trkpt lat="45.77792" lon="-0.94111">
        <ele>78.201812</ele>
        <time>2022-12-22T10:50:16.539Z</time>
      </trkpt>
      <trkpt lat="45.77785" lon="-0.941">
        <ele>78.344384</ele>
        <time>2022-12-22T10:50:19.559Z</time>
      </trkpt>
      <trkpt lat="45.77776" lon="-0.9409">
        <ele>78.487939</ele>
        <time>2022-12-22T10:50:22.556Z</time>
      </trkpt>
      <trkpt lat="45.77768" lon="-0.94082">
        <ele>78.621554</ele>
        <time>2022-12-22T10:50:25.564Z</time>
      </trkpt>
      <trkpt lat="45.77759" lon="-0.94073">
        <ele>78.755133</ele>
        <time>2022-12-22T10:50:28.564Z</time>
      </trkpt>
      <trkpt lat="45.77751" lon="-0.94065">
        <ele>78.89087</ele>
        <time>2022-12-22T10:50:31.561Z</time>
      </trkpt>
      <trkpt lat="45.77742" lon="-0.94056">
        <ele>79.028722</ele>
        <time>2022-12-22T10:50:34.559Z</time>
      </trkpt>
      <trkpt lat="45.77734" lon="-0.94049">
        <ele>79.15932</ele>
        <time>2022-12-22T10:50:37.543Z</time>
      </trkpt>
      <trkpt lat="45.77726" lon="-0.9404">
        <ele>79.285983</ele>
        <time>2022-12-22T10:50:40.561Z</time>
      </trkpt>
      <trkpt lat="45.77719" lon="-0.9403">
        <ele>79.416951</ele>
        <time>2022-12-22T10:50:43.561Z</time>
      </trkpt>
      <trkpt lat="45.77713" lon="-0.94019">
        <ele>79.551273</ele>
        <time>2022-12-22T10:50:46.556Z</time>
      </trkpt>
      <trkpt lat="45.77707" lon="-0.94007">
        <ele>79.480429</ele>
        <time>2022-12-22T10:50:49.561Z</time>
      </trkpt>
      <trkpt lat="45.77702" lon="-0.93995">
        <ele>79.306509</ele>
        <time>2022-12-22T10:50:52.557Z</time>
      </trkpt>
      <trkpt lat="45.77696" lon="-0.93982">
        <ele>79.117449</ele>
        <time>2022-12-22T10:50:55.559Z</time>
      </trkpt>
      <trkpt lat="45.77691" lon="-0.93968">
        <ele>78.923694</ele>
        <time>2022-12-22T10:50:58.559Z</time>
      </trkpt>
      <trkpt lat="45.77685" lon="-0.93954">
        <ele>78.722882</ele>
        <time>2022-12-22T10:51:01.560Z</time>
      </trkpt>
      <trkpt lat="45.77679" lon="-0.93938">
        <ele>78.506664</ele>
        <time>2022-12-22T10:51:04.561Z</time>
      </trkpt>
      <trkpt lat="45.77674" lon="-0.93924">
        <ele>78.312177</ele>
        <time>2022-12-22T10:51:07.547Z</time>
      </trkpt>
      <trkpt lat="45.7767" lon="-0.93911">
        <ele>78.137073</ele>
        <time>2022-12-22T10:51:10.561Z</time>
      </trkpt>
      <trkpt lat="45.77666" lon="-0.93898">
        <ele>77.959417</ele>
        <time>2022-12-22T10:51:13.561Z</time>
      </trkpt>
      <trkpt lat="45.77663" lon="-0.93884">
        <ele>77.783666</ele>
        <time>2022-12-22T10:51:16.559Z</time>
      </trkpt>
      <trkpt lat="45.77659" lon="-0.93869">
        <ele>77.589989</ele>
        <time>2022-12-22T10:51:19.540Z</time>
      </trkpt>
      <trkpt lat="45.77657" lon="-0.93853">
        <ele>77.387023</ele>
        <time>2022-12-22T10:51:22.539Z</time>
      </trkpt>
      <trkpt lat="45.77657" lon="-0.93836">
        <ele>77.178596</ele>
        <time>2022-12-22T10:51:25.548Z</time>
      </trkpt>
      <trkpt lat="45.77656" lon="-0.93818">
        <ele>76.963024</ele>
        <time>2022-12-22T10:51:28.611Z</time>
      </trkpt>
      <trkpt lat="45.77657" lon="-0.93801">
        <ele>76.744891</ele>
        <time>2022-12-22T10:51:31.563Z</time>
      </trkpt>
      <trkpt lat="45.77657" lon="-0.93783">
        <ele>76.535388</ele>
        <time>2022-12-22T10:51:34.601Z</time>
      </trkpt>
      <trkpt lat="45.77658" lon="-0.93767">
        <ele>76.327313</ele>
        <time>2022-12-22T10:51:37.548Z</time>
      </trkpt>
      <trkpt lat="45.77659" lon="-0.93748">
        <ele>76.089575</ele>
        <time>2022-12-22T10:51:40.618Z</time>
      </trkpt>
      <trkpt lat="45.77659" lon="-0.93735">
        <ele>75.925087</ele>
        <time>2022-12-22T10:51:42.561Z</time>
      </trkpt>
      <trkpt lat="45.77659" lon="-0.93716">
        <ele>75.682056</ele>
        <time>2022-12-22T10:51:45.564Z</time>
      </trkpt>
      <trkpt lat="45.77657" lon="-0.93697">
        <ele>75.436581</ele>
        <time>2022-12-22T10:51:48.563Z</time>
      </trkpt>
      <trkpt lat="45.77654" lon="-0.93684">
        <ele>75.260435</ele>
        <time>2022-12-22T10:51:50.568Z</time>
      </trkpt>
      <trkpt lat="45.77648" lon="-0.93666">
        <ele>75.015074</ele>
        <time>2022-12-22T10:51:53.564Z</time>
      </trkpt>
      <trkpt lat="45.77641" lon="-0.93655">
        <ele>74.839232</ele>
        <time>2022-12-22T10:51:55.567Z</time>
      </trkpt>
      <trkpt lat="45.77634" lon="-0.93647">
        <ele>74.669055</ele>
        <time>2022-12-22T10:51:57.584Z</time>
      </trkpt>
      <trkpt lat="45.77626" lon="-0.9364">
        <ele>74.499196</ele>
        <time>2022-12-22T10:51:59.553Z</time>
      </trkpt>
      <trkpt lat="45.77616" lon="-0.93634">
        <ele>74.303213</ele>
        <time>2022-12-22T10:52:01.561Z</time>
      </trkpt>
      <trkpt lat="45.77606" lon="-0.93631">
        <ele>74.12253</ele>
        <time>2022-12-22T10:52:03.619Z</time>
      </trkpt>
      <trkpt lat="45.77597" lon="-0.93629">
        <ele>73.948686</ele>
        <time>2022-12-22T10:52:05.569Z</time>
      </trkpt>
      <trkpt lat="45.77587" lon="-0.93628">
        <ele>73.775843</ele>
        <time>2022-12-22T10:52:07.562Z</time>
      </trkpt>
      <trkpt lat="45.77578" lon="-0.93628">
        <ele>73.603661</ele>
        <time>2022-12-22T10:52:09.623Z</time>
      </trkpt>
      <trkpt lat="45.77568" lon="-0.93628">
        <ele>73.427842</ele>
        <time>2022-12-22T10:52:11.565Z</time>
      </trkpt>
      <trkpt lat="45.77559" lon="-0.93627">
        <ele>73.255438</ele>
        <time>2022-12-22T10:52:13.575Z</time>
      </trkpt>
      <trkpt lat="45.77548" lon="-0.93628">
        <ele>73.103728</ele>
        <time>2022-12-22T10:52:15.578Z</time>
      </trkpt>
      <trkpt lat="45.77537" lon="-0.93628">
        <ele>72.972643</ele>
        <time>2022-12-22T10:52:17.548Z</time>
      </trkpt>
      <trkpt lat="45.77526" lon="-0.93628">
        <ele>72.840334</ele>
        <time>2022-12-22T10:52:19.563Z</time>
      </trkpt>
      <trkpt lat="45.77515" lon="-0.93629">
        <ele>72.706812</ele>
        <time>2022-12-22T10:52:21.545Z</time>
      </trkpt>
      <trkpt lat="45.77504" lon="-0.93629">
        <ele>72.578077</ele>
        <time>2022-12-22T10:52:23.554Z</time>
      </trkpt>
      <trkpt lat="45.77493" lon="-0.9363">
        <ele>72.444409</ele>
        <time>2022-12-22T10:52:25.563Z</time>
      </trkpt>
      <trkpt lat="45.77482" lon="-0.9363">
        <ele>72.316906</ele>
        <time>2022-12-22T10:52:27.557Z</time>
      </trkpt>
      <trkpt lat="45.7747" lon="-0.9363">
        <ele>72.175097</ele>
        <time>2022-12-22T10:52:29.570Z</time>
      </trkpt>
      <trkpt lat="45.77458" lon="-0.9363">
        <ele>72.033298</ele>
        <time>2022-12-22T10:52:31.616Z</time>
      </trkpt>
      <trkpt lat="45.77447" lon="-0.9363">
        <ele>71.903412</ele>
        <time>2022-12-22T10:52:33.554Z</time>
      </trkpt>
      <trkpt lat="45.77437" lon="-0.93631">
        <ele>71.782775</ele>
        <time>2022-12-22T10:52:35.563Z</time>
      </trkpt>
      <trkpt lat="45.77427" lon="-0.9363">
        <ele>71.664805</ele>
        <time>2022-12-22T10:52:37.628Z</time>
      </trkpt>
      <trkpt lat="45.77417" lon="-0.93631">
        <ele>71.546825</ele>
        <time>2022-12-22T10:52:39.569Z</time>
      </trkpt>
      <trkpt lat="45.77407" lon="-0.93631">
        <ele>71.427481</ele>
        <time>2022-12-22T10:52:41.572Z</time>
      </trkpt>
      <trkpt lat="45.77397" lon="-0.93632">
        <ele>71.30461</ele>
        <time>2022-12-22T10:52:43.632Z</time>
      </trkpt>
      <trkpt lat="45.77387" lon="-0.93633">
        <ele>71.180214</ele>
        <time>2022-12-22T10:52:45.575Z</time>
      </trkpt>
      <trkpt lat="45.77376" lon="-0.93634">
        <ele>71.052689</ele>
        <time>2022-12-22T10:52:47.543Z</time>
      </trkpt>
      <trkpt lat="45.77365" lon="-0.93635">
        <ele>71.0173</ele>
        <time>2022-12-22T10:52:49.625Z</time>
      </trkpt>
      <trkpt lat="45.77354" lon="-0.93635">
        <ele>70.99559</ele>
        <time>2022-12-22T10:52:51.575Z</time>
      </trkpt>
      <trkpt lat="45.77342" lon="-0.93637">
        <ele>70.974489</ele>
        <time>2022-12-22T10:52:53.573Z</time>
      </trkpt>
      <trkpt lat="45.77331" lon="-0.93639">
        <ele>70.953202</ele>
        <time>2022-12-22T10:52:55.628Z</time>
      </trkpt>
      <trkpt lat="45.7732" lon="-0.93641">
        <ele>70.931899</ele>
        <time>2022-12-22T10:52:57.548Z</time>
      </trkpt>
      <trkpt lat="45.77308" lon="-0.93642">
        <ele>70.909246</ele>
        <time>2022-12-22T10:52:59.564Z</time>
      </trkpt>
      <trkpt lat="45.77296" lon="-0.93643">
        <ele>70.886896</ele>
        <time>2022-12-22T10:53:01.615Z</time>
      </trkpt>
      <trkpt lat="45.77284" lon="-0.93645">
        <ele>70.865189</ele>
        <time>2022-12-22T10:53:03.565Z</time>
      </trkpt>
      <trkpt lat="45.77273" lon="-0.93647">
        <ele>70.843498</ele>
        <time>2022-12-22T10:53:05.565Z</time>
      </trkpt>
      <trkpt lat="45.77262" lon="-0.9365">
        <ele>70.822903</ele>
        <time>2022-12-22T10:53:07.563Z</time>
      </trkpt>
      <trkpt lat="45.77251" lon="-0.93652">
        <ele>70.803129</ele>
        <time>2022-12-22T10:53:09.575Z</time>
      </trkpt>
      <trkpt lat="45.77241" lon="-0.93655">
        <ele>70.783097</ele>
        <time>2022-12-22T10:53:11.561Z</time>
      </trkpt>
      <trkpt lat="45.7723" lon="-0.93657">
        <ele>70.762446</ele>
        <time>2022-12-22T10:53:13.552Z</time>
      </trkpt>
      <trkpt lat="45.77219" lon="-0.93659">
        <ele>70.742347</ele>
        <time>2022-12-22T10:53:15.575Z</time>
      </trkpt>
      <trkpt lat="45.77209" lon="-0.93662">
        <ele>70.722157</ele>
        <time>2022-12-22T10:53:17.543Z</time>
      </trkpt>
      <trkpt lat="45.77198" lon="-0.93664">
        <ele>70.701339</ele>
        <time>2022-12-22T10:53:19.567Z</time>
      </trkpt>
      <trkpt lat="45.77187" lon="-0.93667">
        <ele>70.637416</ele>
        <time>2022-12-22T10:53:21.561Z</time>
      </trkpt>
      <trkpt lat="45.77177" lon="-0.93669">
        <ele>70.568761</ele>
        <time>2022-12-22T10:53:23.569Z</time>
      </trkpt>
      <trkpt lat="45.77166" lon="-0.93672">
        <ele>70.495649</ele>
        <time>2022-12-22T10:53:25.551Z</time>
      </trkpt>
      <trkpt lat="45.77156" lon="-0.93675">
        <ele>70.427788</ele>
        <time>2022-12-22T10:53:27.547Z</time>
      </trkpt>
      <trkpt lat="45.77145" lon="-0.93678">
        <ele>70.359057</ele>
        <time>2022-12-22T10:53:29.621Z</time>
      </trkpt>
      <trkpt lat="45.77135" lon="-0.93681">
        <ele>70.291196</ele>
        <time>2022-12-22T10:53:31.562Z</time>
      </trkpt>
      <trkpt lat="45.77126" lon="-0.93684">
        <ele>70.22581</ele>
        <time>2022-12-22T10:53:33.573Z</time>
      </trkpt>
      <trkpt lat="45.77116" lon="-0.93687">
        <ele>70.15914</ele>
        <time>2022-12-22T10:53:35.735Z</time>
      </trkpt>
      <trkpt lat="45.77106" lon="-0.9369">
        <ele>70.092268</ele>
        <time>2022-12-22T10:53:37.545Z</time>
      </trkpt>
      <trkpt lat="45.77096" lon="-0.93693">
        <ele>70.028549</ele>
        <time>2022-12-22T10:53:39.574Z</time>
      </trkpt>
      <trkpt lat="45.77087" lon="-0.93695">
        <ele>69.965236</ele>
        <time>2022-12-22T10:53:41.567Z</time>
      </trkpt>
      <trkpt lat="45.77078" lon="-0.93699">
        <ele>69.903636</ele>
        <time>2022-12-22T10:53:43.553Z</time>
      </trkpt>
      <trkpt lat="45.77069" lon="-0.93702">
        <ele>69.843267</ele>
        <time>2022-12-22T10:53:45.564Z</time>
      </trkpt>
      <trkpt lat="45.7706" lon="-0.93705">
        <ele>69.783304</ele>
        <time>2022-12-22T10:53:47.547Z</time>
      </trkpt>
      <trkpt lat="45.77051" lon="-0.93709">
        <ele>69.721704</ele>
        <time>2022-12-22T10:53:49.574Z</time>
      </trkpt>
      <trkpt lat="45.77042" lon="-0.93713">
        <ele>69.66023</ele>
        <time>2022-12-22T10:53:51.568Z</time>
      </trkpt>
      <trkpt lat="45.77033" lon="-0.93716">
        <ele>69.598755</ele>
        <time>2022-12-22T10:53:53.577Z</time>
      </trkpt>
      <trkpt lat="45.77024" lon="-0.9372">
        <ele>69.535494</ele>
        <time>2022-12-22T10:53:55.566Z</time>
      </trkpt>
      <trkpt lat="45.77015" lon="-0.93724">
        <ele>69.495389</ele>
        <time>2022-12-22T10:53:57.555Z</time>
      </trkpt>
      <trkpt lat="45.77006" lon="-0.93728">
        <ele>69.466333</ele>
        <time>2022-12-22T10:53:59.566Z</time>
      </trkpt>
      <trkpt lat="45.76997" lon="-0.93732">
        <ele>69.436796</ele>
        <time>2022-12-22T10:54:01.575Z</time>
      </trkpt>
      <trkpt lat="45.76988" lon="-0.93735">
        <ele>69.407257</ele>
        <time>2022-12-22T10:54:03.574Z</time>
      </trkpt>
      <trkpt lat="45.76978" lon="-0.93739">
        <ele>69.377843</ele>
        <time>2022-12-22T10:54:05.575Z</time>
      </trkpt>
      <trkpt lat="45.7697" lon="-0.93744">
        <ele>69.348775</ele>
        <time>2022-12-22T10:54:07.543Z</time>
      </trkpt>
      <trkpt lat="45.76961" lon="-0.93747">
        <ele>69.319659</ele>
        <time>2022-12-22T10:54:09.564Z</time>
      </trkpt>
      <trkpt lat="45.76951" lon="-0.93751">
        <ele>69.289109</ele>
        <time>2022-12-22T10:54:11.557Z</time>
      </trkpt>
      <trkpt lat="45.76942" lon="-0.93755">
        <ele>69.258915</ele>
        <time>2022-12-22T10:54:13.556Z</time>
      </trkpt>
      <trkpt lat="45.76932" lon="-0.93759">
        <ele>69.228423</ele>
        <time>2022-12-22T10:54:15.560Z</time>
      </trkpt>
      <trkpt lat="45.76924" lon="-0.93764">
        <ele>69.199571</ele>
        <time>2022-12-22T10:54:17.547Z</time>
      </trkpt>
      <trkpt lat="45.76915" lon="-0.93768">
        <ele>69.171743</ele>
        <time>2022-12-22T10:54:19.562Z</time>
      </trkpt>
      <trkpt lat="45.76906" lon="-0.93772">
        <ele>69.14209</ele>
        <time>2022-12-22T10:54:21.573Z</time>
      </trkpt>
      <trkpt lat="45.76897" lon="-0.93776">
        <ele>69.112318</ele>
        <time>2022-12-22T10:54:23.567Z</time>
      </trkpt>
      <trkpt lat="45.76888" lon="-0.9378">
        <ele>69.084123</ele>
        <time>2022-12-22T10:54:25.576Z</time>
      </trkpt>
      <trkpt lat="45.76879" lon="-0.93785">
        <ele>69.05388</ele>
        <time>2022-12-22T10:54:27.553Z</time>
      </trkpt>
      <trkpt lat="45.7687" lon="-0.9379">
        <ele>69.02229</ele>
        <time>2022-12-22T10:54:29.551Z</time>
      </trkpt>
      <trkpt lat="45.7686" lon="-0.93795">
        <ele>68.991324</ele>
        <time>2022-12-22T10:54:31.560Z</time>
      </trkpt>
      <trkpt lat="45.76851" lon="-0.93802">
        <ele>68.959963</ele>
        <time>2022-12-22T10:54:33.567Z</time>
      </trkpt>
      <trkpt lat="45.76842" lon="-0.93806">
        <ele>68.735632</ele>
        <time>2022-12-22T10:54:35.572Z</time>
      </trkpt>
      <trkpt lat="45.76833" lon="-0.93812">
        <ele>68.497822</ele>
        <time>2022-12-22T10:54:37.559Z</time>
      </trkpt>
      <trkpt lat="45.76824" lon="-0.93817">
        <ele>68.266686</ele>
        <time>2022-12-22T10:54:39.597Z</time>
      </trkpt>
      <trkpt lat="45.76815" lon="-0.93822">
        <ele>68.034335</ele>
        <time>2022-12-22T10:54:41.566Z</time>
      </trkpt>
      <trkpt lat="45.76806" lon="-0.93827">
        <ele>67.802323</ele>
        <time>2022-12-22T10:54:43.567Z</time>
      </trkpt>
      <trkpt lat="45.76797" lon="-0.93832">
        <ele>67.569649</ele>
        <time>2022-12-22T10:54:45.638Z</time>
      </trkpt>
      <trkpt lat="45.76788" lon="-0.93838">
        <ele>67.333786</ele>
        <time>2022-12-22T10:54:47.549Z</time>
      </trkpt>
      <trkpt lat="45.76779" lon="-0.93843">
        <ele>67.083459</ele>
        <time>2022-12-22T10:54:49.577Z</time>
      </trkpt>
      <trkpt lat="45.76769" lon="-0.93849">
        <ele>66.832791</ele>
        <time>2022-12-22T10:54:51.613Z</time>
      </trkpt>
      <trkpt lat="45.76759" lon="-0.93854">
        <ele>66.579372</ele>
        <time>2022-12-22T10:54:53.568Z</time>
      </trkpt>
      <trkpt lat="45.7675" lon="-0.93859">
        <ele>66.324173</ele>
        <time>2022-12-22T10:54:55.568Z</time>
      </trkpt>
      <trkpt lat="45.7674" lon="-0.93865">
        <ele>66.064213</ele>
        <time>2022-12-22T10:54:57.603Z</time>
      </trkpt>
      <trkpt lat="45.76729" lon="-0.9387">
        <ele>65.795349</ele>
        <time>2022-12-22T10:54:59.558Z</time>
      </trkpt>
      <trkpt lat="45.7672" lon="-0.93876">
        <ele>65.548172</ele>
        <time>2022-12-22T10:55:01.564Z</time>
      </trkpt>
      <trkpt lat="45.7671" lon="-0.93881">
        <ele>65.300086</ele>
        <time>2022-12-22T10:55:03.550Z</time>
      </trkpt>
      <trkpt lat="45.76701" lon="-0.93887">
        <ele>65.040763</ele>
        <time>2022-12-22T10:55:05.561Z</time>
      </trkpt>
      <trkpt lat="45.76691" lon="-0.93892">
        <ele>64.788439</ele>
        <time>2022-12-22T10:55:07.551Z</time>
      </trkpt>
      <trkpt lat="45.76682" lon="-0.93898">
        <ele>64.549859</ele>
        <time>2022-12-22T10:55:09.574Z</time>
      </trkpt>
      <trkpt lat="45.76673" lon="-0.93903">
        <ele>64.341793</ele>
        <time>2022-12-22T10:55:11.560Z</time>
      </trkpt>
      <trkpt lat="45.76664" lon="-0.93907">
        <ele>64.144726</ele>
        <time>2022-12-22T10:55:13.567Z</time>
      </trkpt>
      <trkpt lat="45.76652" lon="-0.93915">
        <ele>63.868983</ele>
        <time>2022-12-22T10:55:16.564Z</time>
      </trkpt>
      <trkpt lat="45.7664" lon="-0.93922">
        <ele>63.582831</ele>
        <time>2022-12-22T10:55:19.568Z</time>
      </trkpt>
      <trkpt lat="45.76627" lon="-0.93929">
        <ele>63.291657</ele>
        <time>2022-12-22T10:55:22.570Z</time>
      </trkpt>
      <trkpt lat="45.76619" lon="-0.93934">
        <ele>63.090339</ele>
        <time>2022-12-22T10:55:24.570Z</time>
      </trkpt>
      <trkpt lat="45.7661" lon="-0.93939">
        <ele>62.883113</ele>
        <time>2022-12-22T10:55:26.565Z</time>
      </trkpt>
      <trkpt lat="45.76601" lon="-0.93944">
        <ele>62.680251</ele>
        <time>2022-12-22T10:55:28.561Z</time>
      </trkpt>
      <trkpt lat="45.76591" lon="-0.93949">
        <ele>62.462204</ele>
        <time>2022-12-22T10:55:30.574Z</time>
      </trkpt>
      <trkpt lat="45.76582" lon="-0.93954">
        <ele>62.244157</ele>
        <time>2022-12-22T10:55:32.564Z</time>
      </trkpt>
      <trkpt lat="45.76572" lon="-0.93961">
        <ele>62.016505</ele>
        <time>2022-12-22T10:55:34.554Z</time>
      </trkpt>
      <trkpt lat="45.76562" lon="-0.93965">
        <ele>61.79381</ele>
        <time>2022-12-22T10:55:36.574Z</time>
      </trkpt>
      <trkpt lat="45.76553" lon="-0.9397">
        <ele>61.575655</ele>
        <time>2022-12-22T10:55:38.572Z</time>
      </trkpt>
      <trkpt lat="45.76544" lon="-0.93975">
        <ele>61.374111</ele>
        <time>2022-12-22T10:55:40.564Z</time>
      </trkpt>
      <trkpt lat="45.76535" lon="-0.93981">
        <ele>61.170288</ele>
        <time>2022-12-22T10:55:42.625Z</time>
      </trkpt>
      <trkpt lat="45.76527" lon="-0.93986">
        <ele>60.978006</ele>
        <time>2022-12-22T10:55:44.563Z</time>
      </trkpt>
      <trkpt lat="45.76514" lon="-0.93992">
        <ele>60.725175</ele>
        <time>2022-12-22T10:55:47.558Z</time>
      </trkpt>
      <trkpt lat="45.76502" lon="-0.93998">
        <ele>60.699495</ele>
        <time>2022-12-22T10:55:50.561Z</time>
      </trkpt>
      <trkpt lat="45.7649" lon="-0.94005">
        <ele>60.672882</ele>
        <time>2022-12-22T10:55:53.563Z</time>
      </trkpt>
      <trkpt lat="45.76478" lon="-0.94011">
        <ele>60.647932</ele>
        <time>2022-12-22T10:55:56.562Z</time>
      </trkpt>
      <trkpt lat="45.76467" lon="-0.94017">
        <ele>60.624893</ele>
        <time>2022-12-22T10:55:59.561Z</time>
      </trkpt>
      <trkpt lat="45.76456" lon="-0.94024">
        <ele>60.601117</ele>
        <time>2022-12-22T10:56:02.562Z</time>
      </trkpt>
      <trkpt lat="45.76444" lon="-0.9403">
        <ele>60.575157</ele>
        <time>2022-12-22T10:56:05.575Z</time>
      </trkpt>
      <trkpt lat="45.76432" lon="-0.94037">
        <ele>60.549802</ele>
        <time>2022-12-22T10:56:08.555Z</time>
      </trkpt>
      <trkpt lat="45.7642" lon="-0.94044">
        <ele>60.523962</ele>
        <time>2022-12-22T10:56:11.547Z</time>
      </trkpt>
      <trkpt lat="45.76411" lon="-0.94049">
        <ele>60.505975</ele>
        <time>2022-12-22T10:56:13.565Z</time>
      </trkpt>
      <trkpt lat="45.76402" lon="-0.94054">
        <ele>60.48682</ele>
        <time>2022-12-22T10:56:15.571Z</time>
      </trkpt>
      <trkpt lat="45.76393" lon="-0.94058">
        <ele>60.467712</ele>
        <time>2022-12-22T10:56:17.544Z</time>
      </trkpt>
      <trkpt lat="45.76384" lon="-0.94063">
        <ele>60.448086</ele>
        <time>2022-12-22T10:56:19.566Z</time>
      </trkpt>
      <trkpt lat="45.76374" lon="-0.94068">
        <ele>60.428512</ele>
        <time>2022-12-22T10:56:21.559Z</time>
      </trkpt>
      <trkpt lat="45.76365" lon="-0.94074">
        <ele>60.407645</ele>
        <time>2022-12-22T10:56:23.561Z</time>
      </trkpt>
      <trkpt lat="45.76355" lon="-0.9408">
        <ele>60.387142</ele>
        <time>2022-12-22T10:56:25.564Z</time>
      </trkpt>
      <trkpt lat="45.76346" lon="-0.94085">
        <ele>60.35979</ele>
        <time>2022-12-22T10:56:27.553Z</time>
      </trkpt>
      <trkpt lat="45.76336" lon="-0.9409">
        <ele>60.303503</ele>
        <time>2022-12-22T10:56:29.573Z</time>
      </trkpt>
      <trkpt lat="45.76326" lon="-0.94096">
        <ele>60.248909</ele>
        <time>2022-12-22T10:56:31.568Z</time>
      </trkpt>
      <trkpt lat="45.76317" lon="-0.94102">
        <ele>60.194857</ele>
        <time>2022-12-22T10:56:33.564Z</time>
      </trkpt>
      <trkpt lat="45.76307" lon="-0.94107">
        <ele>60.139554</ele>
        <time>2022-12-22T10:56:35.572Z</time>
      </trkpt>
      <trkpt lat="45.76298" lon="-0.94113">
        <ele>60.088356</ele>
        <time>2022-12-22T10:56:37.549Z</time>
      </trkpt>
      <trkpt lat="45.76289" lon="-0.94117">
        <ele>60.03753</ele>
        <time>2022-12-22T10:56:39.613Z</time>
      </trkpt>
      <trkpt lat="45.7628" lon="-0.94121">
        <ele>59.987284</ele>
        <time>2022-12-22T10:56:41.563Z</time>
      </trkpt>
      <trkpt lat="45.76268" lon="-0.94128">
        <ele>59.919969</ele>
        <time>2022-12-22T10:56:44.567Z</time>
      </trkpt>
      <trkpt lat="45.7626" lon="-0.94133">
        <ele>59.872437</ele>
        <time>2022-12-22T10:56:46.561Z</time>
      </trkpt>
      <trkpt lat="45.76251" lon="-0.94138">
        <ele>59.822926</ele>
        <time>2022-12-22T10:56:48.563Z</time>
      </trkpt>
      <trkpt lat="45.76242" lon="-0.94143">
        <ele>59.7711</ele>
        <time>2022-12-22T10:56:50.559Z</time>
      </trkpt>
      <trkpt lat="45.76233" lon="-0.94148">
        <ele>59.719403</ele>
        <time>2022-12-22T10:56:52.576Z</time>
      </trkpt>
      <trkpt lat="45.76224" lon="-0.94154">
        <ele>59.667752</ele>
        <time>2022-12-22T10:56:54.558Z</time>
      </trkpt>
      <trkpt lat="45.76215" lon="-0.9416">
        <ele>59.614991</ele>
        <time>2022-12-22T10:56:56.613Z</time>
      </trkpt>
      <trkpt lat="45.76205" lon="-0.94165">
        <ele>59.562138</ele>
        <time>2022-12-22T10:56:58.562Z</time>
      </trkpt>
      <trkpt lat="45.76196" lon="-0.94171">
        <ele>59.508658</ele>
        <time>2022-12-22T10:57:00.573Z</time>
      </trkpt>
      <trkpt lat="45.76187" lon="-0.94176">
        <ele>59.455094</ele>
        <time>2022-12-22T10:57:02.620Z</time>
      </trkpt>
      <trkpt lat="45.76177" lon="-0.94182">
        <ele>59.384519</ele>
        <time>2022-12-22T10:57:04.562Z</time>
      </trkpt>
      <trkpt lat="45.76168" lon="-0.94187">
        <ele>59.306683</ele>
        <time>2022-12-22T10:57:06.567Z</time>
      </trkpt>
      <trkpt lat="45.76159" lon="-0.94192">
        <ele>59.228951</ele>
        <time>2022-12-22T10:57:08.614Z</time>
      </trkpt>
      <trkpt lat="45.76151" lon="-0.94198">
        <ele>59.152912</ele>
        <time>2022-12-22T10:57:10.574Z</time>
      </trkpt>
      <trkpt lat="45.76138" lon="-0.94205">
        <ele>59.041113</ele>
        <time>2022-12-22T10:57:13.564Z</time>
      </trkpt>
      <trkpt lat="45.76129" lon="-0.94211">
        <ele>58.961537</ele>
        <time>2022-12-22T10:57:15.572Z</time>
      </trkpt>
      <trkpt lat="45.7612" lon="-0.94215">
        <ele>58.882469</ele>
        <time>2022-12-22T10:57:17.545Z</time>
      </trkpt>
      <trkpt lat="45.76112" lon="-0.94221">
        <ele>58.803548</ele>
        <time>2022-12-22T10:57:19.568Z</time>
      </trkpt>
      <trkpt lat="45.76103" lon="-0.94226">
        <ele>58.729417</ele>
        <time>2022-12-22T10:57:21.569Z</time>
      </trkpt>
      <trkpt lat="45.76091" lon="-0.94232">
        <ele>58.623791</ele>
        <time>2022-12-22T10:57:24.562Z</time>
      </trkpt>
      <trkpt lat="45.7608" lon="-0.94239">
        <ele>58.523103</ele>
        <time>2022-12-22T10:57:27.552Z</time>
      </trkpt>
      <trkpt lat="45.76069" lon="-0.94246">
        <ele>58.422546</ele>
        <time>2022-12-22T10:57:30.564Z</time>
      </trkpt>
      <trkpt lat="45.7606" lon="-0.94252">
        <ele>58.344276</ele>
        <time>2022-12-22T10:57:32.615Z</time>
      </trkpt>
      <trkpt lat="45.76052" lon="-0.94257">
        <ele>58.268695</ele>
        <time>2022-12-22T10:57:34.571Z</time>
      </trkpt>
      <trkpt lat="45.76043" lon="-0.94262">
        <ele>58.189986</ele>
        <time>2022-12-22T10:57:36.558Z</time>
      </trkpt>
      <trkpt lat="45.76034" lon="-0.94267">
        <ele>58.110632</ele>
        <time>2022-12-22T10:57:38.628Z</time>
      </trkpt>
      <trkpt lat="45.76025" lon="-0.94272">
        <ele>58.032733</ele>
        <time>2022-12-22T10:57:40.564Z</time>
      </trkpt>
      <trkpt lat="45.76016" lon="-0.94277">
        <ele>57.95467</ele>
        <time>2022-12-22T10:57:42.571Z</time>
      </trkpt>
      <trkpt lat="45.76008" lon="-0.94282">
        <ele>57.865386</ele>
        <time>2022-12-22T10:57:44.626Z</time>
      </trkpt>
      <trkpt lat="45.75999" lon="-0.94288">
        <ele>57.769197</ele>
        <time>2022-12-22T10:57:46.568Z</time>
      </trkpt>
      <trkpt lat="45.7599" lon="-0.94293">
        <ele>57.672735</ele>
        <time>2022-12-22T10:57:48.563Z</time>
      </trkpt>
      <trkpt lat="45.75981" lon="-0.94298">
        <ele>57.572715</ele>
        <time>2022-12-22T10:57:50.621Z</time>
      </trkpt>
      <trkpt lat="45.75972" lon="-0.94303">
        <ele>57.472946</ele>
        <time>2022-12-22T10:57:52.572Z</time>
      </trkpt>
      <trkpt lat="45.75959" lon="-0.9431">
        <ele>57.338483</ele>
        <time>2022-12-22T10:57:55.563Z</time>
      </trkpt>
      <trkpt lat="45.75947" lon="-0.94316">
        <ele>57.207133</ele>
        <time>2022-12-22T10:57:58.561Z</time>
      </trkpt>
      <trkpt lat="45.75934" lon="-0.94323">
        <ele>57.07267</ele>
        <time>2022-12-22T10:58:01.566Z</time>
      </trkpt>
      <trkpt lat="45.75925" lon="-0.94329">
        <ele>56.975913</ele>
        <time>2022-12-22T10:58:03.564Z</time>
      </trkpt>
      <trkpt lat="45.75917" lon="-0.94334">
        <ele>56.883941</ele>
        <time>2022-12-22T10:58:05.562Z</time>
      </trkpt>
      <trkpt lat="45.75908" lon="-0.94338">
        <ele>56.788364</ele>
        <time>2022-12-22T10:58:07.555Z</time>
      </trkpt>
      <trkpt lat="45.75899" lon="-0.94343">
        <ele>56.689277</ele>
        <time>2022-12-22T10:58:09.568Z</time>
      </trkpt>
      <trkpt lat="45.75889" lon="-0.94348">
        <ele>56.59112</ele>
        <time>2022-12-22T10:58:11.562Z</time>
      </trkpt>
      <trkpt lat="45.7588" lon="-0.94353">
        <ele>56.49326</ele>
        <time>2022-12-22T10:58:13.564Z</time>
      </trkpt>
      <trkpt lat="45.75871" lon="-0.94358">
        <ele>56.397734</ele>
        <time>2022-12-22T10:58:15.566Z</time>
      </trkpt>
      <trkpt lat="45.75862" lon="-0.94363">
        <ele>56.300087</ele>
        <time>2022-12-22T10:58:17.549Z</time>
      </trkpt>
      <trkpt lat="45.75853" lon="-0.94368">
        <ele>56.200809</ele>
        <time>2022-12-22T10:58:19.604Z</time>
      </trkpt>
      <trkpt lat="45.75844" lon="-0.94372">
        <ele>56.154843</ele>
        <time>2022-12-22T10:58:21.562Z</time>
      </trkpt>
      <trkpt lat="45.75835" lon="-0.94377">
        <ele>56.187663</ele>
        <time>2022-12-22T10:58:23.563Z</time>
      </trkpt>
      <trkpt lat="45.75823" lon="-0.94383">
        <ele>56.235392</ele>
        <time>2022-12-22T10:58:26.569Z</time>
      </trkpt>
      <trkpt lat="45.75811" lon="-0.9439">
        <ele>56.281506</ele>
        <time>2022-12-22T10:58:29.574Z</time>
      </trkpt>
      <trkpt lat="45.758" lon="-0.94395">
        <ele>56.323885</ele>
        <time>2022-12-22T10:58:32.569Z</time>
      </trkpt>
      <trkpt lat="45.75788" lon="-0.94401">
        <ele>56.367817</ele>
        <time>2022-12-22T10:58:35.555Z</time>
      </trkpt>
      <trkpt lat="45.75777" lon="-0.94407">
        <ele>56.411995</ele>
        <time>2022-12-22T10:58:38.552Z</time>
      </trkpt>
      <trkpt lat="45.75765" lon="-0.94413">
        <ele>56.455817</ele>
        <time>2022-12-22T10:58:41.554Z</time>
      </trkpt>
      <trkpt lat="45.75754" lon="-0.9442">
        <ele>56.499575</ele>
        <time>2022-12-22T10:58:44.552Z</time>
      </trkpt>
      <trkpt lat="45.75743" lon="-0.94426">
        <ele>56.543735</ele>
        <time>2022-12-22T10:58:47.547Z</time>
      </trkpt>
      <trkpt lat="45.75731" lon="-0.94432">
        <ele>56.587725</ele>
        <time>2022-12-22T10:58:50.565Z</time>
      </trkpt>
      <trkpt lat="45.7572" lon="-0.94438">
        <ele>56.631208</ele>
        <time>2022-12-22T10:58:53.575Z</time>
      </trkpt>
      <trkpt lat="45.7571" lon="-0.94444">
        <ele>56.670659</ele>
        <time>2022-12-22T10:58:56.576Z</time>
      </trkpt>
      <trkpt lat="45.75701" lon="-0.94449">
        <ele>56.705532</ele>
        <time>2022-12-22T10:58:59.566Z</time>
      </trkpt>
      <trkpt lat="45.75692" lon="-0.94454">
        <ele>56.740976</ele>
        <time>2022-12-22T10:59:02.572Z</time>
      </trkpt>
      <trkpt lat="45.75683" lon="-0.94459">
        <ele>56.776142</ele>
        <time>2022-12-22T10:59:05.549Z</time>
      </trkpt>
      <trkpt lat="45.75674" lon="-0.94464">
        <ele>56.89469</ele>
        <time>2022-12-22T10:59:08.568Z</time>
      </trkpt>
      <trkpt lat="45.75664" lon="-0.9447">
        <ele>57.103985</ele>
        <time>2022-12-22T10:59:12.623Z</time>
      </trkpt>
      <trkpt lat="45.75654" lon="-0.94476">
        <ele>57.320725</ele>
        <time>2022-12-22T10:59:16.561Z</time>
      </trkpt>
      <trkpt lat="45.75644" lon="-0.94482">
        <ele>57.533045</ele>
        <time>2022-12-22T10:59:20.562Z</time>
      </trkpt>
      <trkpt lat="45.75633" lon="-0.94487">
        <ele>57.743148</ele>
        <time>2022-12-22T10:59:24.630Z</time>
      </trkpt>
      <trkpt lat="45.75623" lon="-0.94494">
        <ele>57.955075</ele>
        <time>2022-12-22T10:59:28.578Z</time>
      </trkpt>
      <trkpt lat="45.75614" lon="-0.94498">
        <ele>58.142285</ele>
        <time>2022-12-22T10:59:32.574Z</time>
      </trkpt>
      <trkpt lat="45.75605" lon="-0.94504">
        <ele>58.338521</ele>
        <time>2022-12-22T10:59:36.626Z</time>
      </trkpt>
      <trkpt lat="45.75595" lon="-0.94509">
        <ele>58.538112</ele>
        <time>2022-12-22T10:59:40.579Z</time>
      </trkpt>
      <trkpt lat="45.75586" lon="-0.94515">
        <ele>58.7423</ele>
        <time>2022-12-22T10:59:44.575Z</time>
      </trkpt>
      <trkpt lat="45.75576" lon="-0.9452">
        <ele>58.940934</ele>
        <time>2022-12-22T10:59:48.631Z</time>
      </trkpt>
      <trkpt lat="45.75567" lon="-0.94525">
        <ele>59.135105</ele>
        <time>2022-12-22T10:59:52.572Z</time>
      </trkpt>
      <trkpt lat="45.75558" lon="-0.9453">
        <ele>59.32189</ele>
        <time>2022-12-22T10:59:56.577Z</time>
      </trkpt>
      <trkpt lat="45.75548" lon="-0.94535">
        <ele>59.514597</ele>
        <time>2022-12-22T11:00:00.627Z</time>
      </trkpt>
      <trkpt lat="45.75539" lon="-0.9454">
        <ele>59.708769</ele>
        <time>2022-12-22T11:00:04.561Z</time>
      </trkpt>
      <trkpt lat="45.7553" lon="-0.94546">
        <ele>59.90269</ele>
        <time>2022-12-22T11:00:08.575Z</time>
      </trkpt>
      <trkpt lat="45.75521" lon="-0.94551">
        <ele>60.098398</ele>
        <time>2022-12-22T11:00:12.653Z</time>
      </trkpt>
      <trkpt lat="45.75512" lon="-0.94557">
        <ele>60.287776</ele>
        <time>2022-12-22T11:00:16.565Z</time>
      </trkpt>
      <trkpt lat="45.75503" lon="-0.94562">
        <ele>60.547216</ele>
        <time>2022-12-22T11:00:20.574Z</time>
      </trkpt>
      <trkpt lat="45.75492" lon="-0.94567">
        <ele>60.833478</ele>
        <time>2022-12-22T11:00:25.547Z</time>
      </trkpt>
      <trkpt lat="45.75482" lon="-0.9457">
        <ele>61.104218</ele>
        <time>2022-12-22T11:00:29.632Z</time>
      </trkpt>
      <trkpt lat="45.75473" lon="-0.94577">
        <ele>61.38192</ele>
        <time>2022-12-22T11:00:33.566Z</time>
      </trkpt>
      <trkpt lat="45.75463" lon="-0.94582">
        <ele>61.649383</ele>
        <time>2022-12-22T11:00:37.550Z</time>
      </trkpt>
      <trkpt lat="45.75453" lon="-0.94588">
        <ele>61.932432</ele>
        <time>2022-12-22T11:00:41.555Z</time>
      </trkpt>
      <trkpt lat="45.75444" lon="-0.94593">
        <ele>62.199896</ele>
        <time>2022-12-22T11:00:45.574Z</time>
      </trkpt>
      <trkpt lat="45.75434" lon="-0.94598">
        <ele>62.479063</ele>
        <time>2022-12-22T11:00:49.570Z</time>
      </trkpt>
      <trkpt lat="45.75423" lon="-0.94603">
        <ele>62.778974</ele>
        <time>2022-12-22T11:00:53.575Z</time>
      </trkpt>
      <trkpt lat="45.75414" lon="-0.94607">
        <ele>63.025338</ele>
        <time>2022-12-22T11:00:56.562Z</time>
      </trkpt>
      <trkpt lat="45.75405" lon="-0.94612">
        <ele>63.278525</ele>
        <time>2022-12-22T11:00:59.564Z</time>
      </trkpt>
      <trkpt lat="45.75396" lon="-0.94615">
        <ele>63.524782</ele>
        <time>2022-12-22T11:01:02.565Z</time>
      </trkpt>
      <trkpt lat="45.75387" lon="-0.94619">
        <ele>63.765986</ele>
        <time>2022-12-22T11:01:05.575Z</time>
      </trkpt>
      <trkpt lat="45.75378" lon="-0.94623">
        <ele>64.004153</ele>
        <time>2022-12-22T11:01:08.554Z</time>
      </trkpt>
      <trkpt lat="45.75369" lon="-0.94627">
        <ele>64.250922</ele>
        <time>2022-12-22T11:01:11.575Z</time>
      </trkpt>
      <trkpt lat="45.75359" lon="-0.94632">
        <ele>64.548084</ele>
        <time>2022-12-22T11:01:15.570Z</time>
      </trkpt>
      <trkpt lat="45.75347" lon="-0.94637">
        <ele>64.858299</ele>
        <time>2022-12-22T11:01:19.577Z</time>
      </trkpt>
      <trkpt lat="45.75336" lon="-0.94642">
        <ele>64.993058</ele>
        <time>2022-12-22T11:01:23.566Z</time>
      </trkpt>
      <trkpt lat="45.75327" lon="-0.94646">
        <ele>64.967054</ele>
        <time>2022-12-22T11:01:26.561Z</time>
      </trkpt>
      <trkpt lat="45.75318" lon="-0.9465">
        <ele>64.939265</ele>
        <time>2022-12-22T11:01:29.617Z</time>
      </trkpt>
      <trkpt lat="45.75309" lon="-0.94654">
        <ele>64.912155</ele>
        <time>2022-12-22T11:01:32.568Z</time>
      </trkpt>
      <trkpt lat="45.753" lon="-0.94657">
        <ele>64.885045</ele>
        <time>2022-12-22T11:01:35.622Z</time>
      </trkpt>
      <trkpt lat="45.7529" lon="-0.94661">
        <ele>64.856497</ele>
        <time>2022-12-22T11:01:38.565Z</time>
      </trkpt>
      <trkpt lat="45.75281" lon="-0.94666">
        <ele>64.826883</ele>
        <time>2022-12-22T11:01:41.628Z</time>
      </trkpt>
      <trkpt lat="45.75271" lon="-0.9467">
        <ele>64.798882</ele>
        <time>2022-12-22T11:01:44.576Z</time>
      </trkpt>
      <trkpt lat="45.75262" lon="-0.94674">
        <ele>64.77082</ele>
        <time>2022-12-22T11:01:47.588Z</time>
      </trkpt>
      <trkpt lat="45.75252" lon="-0.94678">
        <ele>64.741834</ele>
        <time>2022-12-22T11:01:50.574Z</time>
      </trkpt>
      <trkpt lat="45.75242" lon="-0.94682">
        <ele>64.711136</ele>
        <time>2022-12-22T11:01:53.621Z</time>
      </trkpt>
      <trkpt lat="45.75232" lon="-0.94687">
        <ele>64.680821</ele>
        <time>2022-12-22T11:01:56.568Z</time>
      </trkpt>
      <trkpt lat="45.75221" lon="-0.94691">
        <ele>64.648624</ele>
        <time>2022-12-22T11:01:59.610Z</time>
      </trkpt>
      <trkpt lat="45.7521" lon="-0.94696">
        <ele>64.615758</ele>
        <time>2022-12-22T11:02:02.572Z</time>
      </trkpt>
      <trkpt lat="45.75199" lon="-0.94701">
        <ele>64.583103</ele>
        <time>2022-12-22T11:02:05.629Z</time>
      </trkpt>
      <trkpt lat="45.75188" lon="-0.94706">
        <ele>64.549964</ele>
        <time>2022-12-22T11:02:08.575Z</time>
      </trkpt>
      <trkpt lat="45.75177" lon="-0.94711">
        <ele>64.515048</ele>
        <time>2022-12-22T11:02:11.563Z</time>
      </trkpt>
      <trkpt lat="45.75166" lon="-0.94715">
        <ele>64.476042</ele>
        <time>2022-12-22T11:02:14.563Z</time>
      </trkpt>
      <trkpt lat="45.75157" lon="-0.94719">
        <ele>64.429661</ele>
        <time>2022-12-22T11:02:17.549Z</time>
      </trkpt>
      <trkpt lat="45.75148" lon="-0.94722">
        <ele>64.382439</ele>
        <time>2022-12-22T11:02:20.576Z</time>
      </trkpt>
      <trkpt lat="45.75138" lon="-0.94727">
        <ele>64.332024</ele>
        <time>2022-12-22T11:02:23.575Z</time>
      </trkpt>
      <trkpt lat="45.75127" lon="-0.94731">
        <ele>64.279262</ele>
        <time>2022-12-22T11:02:26.574Z</time>
      </trkpt>
      <trkpt lat="45.75117" lon="-0.94735">
        <ele>64.226681</ele>
        <time>2022-12-22T11:02:29.575Z</time>
      </trkpt>
      <trkpt lat="45.75106" lon="-0.94741">
        <ele>64.1714</ele>
        <time>2022-12-22T11:02:32.575Z</time>
      </trkpt>
      <trkpt lat="45.75095" lon="-0.94745">
        <ele>64.11535</ele>
        <time>2022-12-22T11:02:35.572Z</time>
      </trkpt>
      <trkpt lat="45.75084" lon="-0.9475">
        <ele>64.0562</ele>
        <time>2022-12-22T11:02:38.628Z</time>
      </trkpt>
      <trkpt lat="45.75072" lon="-0.94756">
        <ele>63.996282</ele>
        <time>2022-12-22T11:02:41.549Z</time>
      </trkpt>
      <trkpt lat="45.75061" lon="-0.94761">
        <ele>63.938067</ele>
        <time>2022-12-22T11:02:44.558Z</time>
      </trkpt>
      <trkpt lat="45.7505" lon="-0.94765">
        <ele>63.881918</ele>
        <time>2022-12-22T11:02:47.557Z</time>
      </trkpt>
      <trkpt lat="45.75038" lon="-0.94771">
        <ele>63.823965</ele>
        <time>2022-12-22T11:02:50.570Z</time>
      </trkpt>
      <trkpt lat="45.75027" lon="-0.94775">
        <ele>63.767349</ele>
        <time>2022-12-22T11:02:53.563Z</time>
      </trkpt>
      <trkpt lat="45.75016" lon="-0.9478">
        <ele>63.711201</ele>
        <time>2022-12-22T11:02:56.563Z</time>
      </trkpt>
      <trkpt lat="45.75005" lon="-0.94785">
        <ele>63.654118</ele>
        <time>2022-12-22T11:02:59.575Z</time>
      </trkpt>
      <trkpt lat="45.74994" lon="-0.9479">
        <ele>63.594281</ele>
        <time>2022-12-22T11:03:02.573Z</time>
      </trkpt>
      <trkpt lat="45.74983" lon="-0.94795">
        <ele>63.523744</ele>
        <time>2022-12-22T11:03:05.574Z</time>
      </trkpt>
      <trkpt lat="45.74972" lon="-0.94799">
        <ele>63.454366</ele>
        <time>2022-12-22T11:03:08.562Z</time>
      </trkpt>
      <trkpt lat="45.74962" lon="-0.94803">
        <ele>63.395182</ele>
        <time>2022-12-22T11:03:11.574Z</time>
      </trkpt>
      <trkpt lat="45.74953" lon="-0.94807">
        <ele>63.335335</ele>
        <time>2022-12-22T11:03:14.562Z</time>
      </trkpt>
      <trkpt lat="45.74943" lon="-0.9481">
        <ele>63.27222</ele>
        <time>2022-12-22T11:03:17.599Z</time>
      </trkpt>
      <trkpt lat="45.74933" lon="-0.94815">
        <ele>63.208075</ele>
        <time>2022-12-22T11:03:20.570Z</time>
      </trkpt>
      <trkpt lat="45.74922" lon="-0.94819">
        <ele>63.139854</ele>
        <time>2022-12-22T11:03:23.553Z</time>
      </trkpt>
      <trkpt lat="45.74911" lon="-0.94824">
        <ele>63.068497</ele>
        <time>2022-12-22T11:03:26.575Z</time>
      </trkpt>
      <trkpt lat="45.74899" lon="-0.94829">
        <ele>62.994702</ele>
        <time>2022-12-22T11:03:29.566Z</time>
      </trkpt>
      <trkpt lat="45.74887" lon="-0.94834">
        <ele>62.921483</ele>
        <time>2022-12-22T11:03:32.571Z</time>
      </trkpt>
      <trkpt lat="45.74875" lon="-0.94838">
        <ele>62.848263</ele>
        <time>2022-12-22T11:03:35.576Z</time>
      </trkpt>
      <trkpt lat="45.74864" lon="-0.94843">
        <ele>62.775043</ele>
        <time>2022-12-22T11:03:38.549Z</time>
      </trkpt>
      <trkpt lat="45.74853" lon="-0.94847">
        <ele>62.708571</ele>
        <time>2022-12-22T11:03:41.563Z</time>
      </trkpt>
      <trkpt lat="45.74843" lon="-0.94851">
        <ele>62.643844</ele>
        <time>2022-12-22T11:03:44.574Z</time>
      </trkpt>
      <trkpt lat="45.74832" lon="-0.94856">
        <ele>62.573887</ele>
        <time>2022-12-22T11:03:47.554Z</time>
      </trkpt>
      <trkpt lat="45.7482" lon="-0.9486">
        <ele>62.643824</ele>
        <time>2022-12-22T11:03:50.578Z</time>
      </trkpt>
      <trkpt lat="45.74808" lon="-0.94866">
        <ele>62.932514</ele>
        <time>2022-12-22T11:03:53.570Z</time>
      </trkpt>
      <trkpt lat="45.74796" lon="-0.9487">
        <ele>63.219381</ele>
        <time>2022-12-22T11:03:56.574Z</time>
      </trkpt>
      <trkpt lat="45.74785" lon="-0.94876">
        <ele>63.496507</ele>
        <time>2022-12-22T11:03:59.575Z</time>
      </trkpt>
      <trkpt lat="45.74774" lon="-0.9488">
        <ele>63.755731</ele>
        <time>2022-12-22T11:04:02.576Z</time>
      </trkpt>
      <trkpt lat="45.74764" lon="-0.94884">
        <ele>63.99309</ele>
        <time>2022-12-22T11:04:05.558Z</time>
      </trkpt>
      <trkpt lat="45.74755" lon="-0.94888">
        <ele>64.221533</ele>
        <time>2022-12-22T11:04:08.572Z</time>
      </trkpt>
      <trkpt lat="45.74744" lon="-0.94892">
        <ele>64.466502</ele>
        <time>2022-12-22T11:04:11.572Z</time>
      </trkpt>
      <trkpt lat="45.74733" lon="-0.94896">
        <ele>64.729722</ele>
        <time>2022-12-22T11:04:14.574Z</time>
      </trkpt>
      <trkpt lat="45.74723" lon="-0.94901">
        <ele>64.985804</ele>
        <time>2022-12-22T11:04:17.546Z</time>
      </trkpt>
      <trkpt lat="45.74712" lon="-0.94906">
        <ele>65.257541</ele>
        <time>2022-12-22T11:04:21.577Z</time>
      </trkpt>
      <trkpt lat="45.74701" lon="-0.94911">
        <ele>65.515993</ele>
        <time>2022-12-22T11:04:25.564Z</time>
      </trkpt>
      <trkpt lat="45.74692" lon="-0.94915">
        <ele>65.746486</ele>
        <time>2022-12-22T11:04:29.570Z</time>
      </trkpt>
      <trkpt lat="45.74682" lon="-0.94919">
        <ele>65.971342</ele>
        <time>2022-12-22T11:04:33.569Z</time>
      </trkpt>
      <trkpt lat="45.74673" lon="-0.94923">
        <ele>66.191747</ele>
        <time>2022-12-22T11:04:37.598Z</time>
      </trkpt>
      <trkpt lat="45.74664" lon="-0.94926">
        <ele>66.40807</ele>
        <time>2022-12-22T11:04:41.563Z</time>
      </trkpt>
      <trkpt lat="45.74653" lon="-0.94929">
        <ele>66.669889</ele>
        <time>2022-12-22T11:04:46.565Z</time>
      </trkpt>
      <trkpt lat="45.74643" lon="-0.94931">
        <ele>66.666804</ele>
        <time>2022-12-22T11:04:51.577Z</time>
      </trkpt>
      <trkpt lat="45.74633" lon="-0.94934">
        <ele>66.629686</ele>
        <time>2022-12-22T11:04:56.570Z</time>
      </trkpt>
      <trkpt lat="45.74622" lon="-0.94934">
        <ele>66.587765</ele>
        <time>2022-12-22T11:05:01.626Z</time>
      </trkpt>
      <trkpt lat="45.74613" lon="-0.94933">
        <ele>66.550411</ele>
        <time>2022-12-22T11:05:05.568Z</time>
      </trkpt>
      <trkpt lat="45.74602" lon="-0.94932">
        <ele>66.507248</ele>
        <time>2022-12-22T11:05:09.564Z</time>
      </trkpt>
      <trkpt lat="45.7459" lon="-0.9493">
        <ele>66.462676</ele>
        <time>2022-12-22T11:05:13.620Z</time>
      </trkpt>
      <trkpt lat="45.74579" lon="-0.94929">
        <ele>66.41909</ele>
        <time>2022-12-22T11:05:17.557Z</time>
      </trkpt>
      <trkpt lat="45.74569" lon="-0.94927">
        <ele>66.380123</ele>
        <time>2022-12-22T11:05:20.567Z</time>
      </trkpt>
      <trkpt lat="45.74559" lon="-0.94924">
        <ele>66.340632</ele>
        <time>2022-12-22T11:05:23.563Z</time>
      </trkpt>
      <trkpt lat="45.74549" lon="-0.94922">
        <ele>66.299279</ele>
        <time>2022-12-22T11:05:26.574Z</time>
      </trkpt>
      <trkpt lat="45.74538" lon="-0.94918">
        <ele>66.254905</ele>
        <time>2022-12-22T11:05:29.576Z</time>
      </trkpt>
      <trkpt lat="45.74526" lon="-0.94915">
        <ele>66.210203</ele>
        <time>2022-12-22T11:05:32.572Z</time>
      </trkpt>
      <trkpt lat="45.74515" lon="-0.94912">
        <ele>66.165553</ele>
        <time>2022-12-22T11:05:35.573Z</time>
      </trkpt>
      <trkpt lat="45.74504" lon="-0.94909">
        <ele>66.120471</ele>
        <time>2022-12-22T11:05:38.576Z</time>
      </trkpt>
      <trkpt lat="45.74493" lon="-0.94906">
        <ele>66.078209</ele>
        <time>2022-12-22T11:05:41.577Z</time>
      </trkpt>
      <trkpt lat="45.74482" lon="-0.94903">
        <ele>66.034516</ele>
        <time>2022-12-22T11:05:44.569Z</time>
      </trkpt>
      <trkpt lat="45.7447" lon="-0.94901">
        <ele>65.985636</ele>
        <time>2022-12-22T11:05:47.550Z</time>
      </trkpt>
      <trkpt lat="45.74459" lon="-0.94898">
        <ele>65.930841</ele>
        <time>2022-12-22T11:05:50.563Z</time>
      </trkpt>
      <trkpt lat="45.74447" lon="-0.94894">
        <ele>65.873664</ele>
        <time>2022-12-22T11:05:53.577Z</time>
      </trkpt>
      <trkpt lat="45.74435" lon="-0.94891">
        <ele>65.816196</ele>
        <time>2022-12-22T11:05:56.553Z</time>
      </trkpt>
      <trkpt lat="45.74423" lon="-0.94889">
        <ele>65.760471</ele>
        <time>2022-12-22T11:05:59.568Z</time>
      </trkpt>
      <trkpt lat="45.74411" lon="-0.94888">
        <ele>65.704937</ele>
        <time>2022-12-22T11:06:02.573Z</time>
      </trkpt>
      <trkpt lat="45.74399" lon="-0.94887">
        <ele>65.648191</ele>
        <time>2022-12-22T11:06:05.575Z</time>
      </trkpt>
      <trkpt lat="45.74388" lon="-0.94886">
        <ele>65.592877</ele>
        <time>2022-12-22T11:06:08.573Z</time>
      </trkpt>
      <trkpt lat="45.74376" lon="-0.94886">
        <ele>65.538094</ele>
        <time>2022-12-22T11:06:11.574Z</time>
      </trkpt>
      <trkpt lat="45.74364" lon="-0.94886">
        <ele>65.482323</ele>
        <time>2022-12-22T11:06:14.562Z</time>
      </trkpt>
      <trkpt lat="45.74353" lon="-0.94888">
        <ele>65.426906</ele>
        <time>2022-12-22T11:06:17.547Z</time>
      </trkpt>
      <trkpt lat="45.74341" lon="-0.94889">
        <ele>65.373869</ele>
        <time>2022-12-22T11:06:20.569Z</time>
      </trkpt>
      <trkpt lat="45.7433" lon="-0.94891">
        <ele>65.32014</ele>
        <time>2022-12-22T11:06:23.576Z</time>
      </trkpt>
      <trkpt lat="45.7432" lon="-0.94893">
        <ele>65.269929</ele>
        <time>2022-12-22T11:06:26.572Z</time>
      </trkpt>
      <trkpt lat="45.74309" lon="-0.94895">
        <ele>65.219769</ele>
        <time>2022-12-22T11:06:29.543Z</time>
      </trkpt>
      <trkpt lat="45.74298" lon="-0.94898">
        <ele>65.166022</ele>
        <time>2022-12-22T11:06:33.573Z</time>
      </trkpt>
      <trkpt lat="45.74288" lon="-0.94901">
        <ele>65.110236</ele>
        <time>2022-12-22T11:06:36.631Z</time>
      </trkpt>
      <trkpt lat="45.74278" lon="-0.94904">
        <ele>65.052686</ele>
        <time>2022-12-22T11:06:39.572Z</time>
      </trkpt>
      <trkpt lat="45.74268" lon="-0.94908">
        <ele>64.996232</ele>
        <time>2022-12-22T11:06:42.558Z</time>
      </trkpt>
      <trkpt lat="45.74258" lon="-0.94911">
        <ele>64.938414</ele>
        <time>2022-12-22T11:06:45.572Z</time>
      </trkpt>
      <trkpt lat="45.74248" lon="-0.94915">
        <ele>64.878411</ele>
        <time>2022-12-22T11:06:48.563Z</time>
      </trkpt>
      <trkpt lat="45.74238" lon="-0.94919">
        <ele>64.821284</ele>
        <time>2022-12-22T11:06:51.552Z</time>
      </trkpt>
      <trkpt lat="45.74229" lon="-0.94922">
        <ele>64.767073</ele>
        <time>2022-12-22T11:06:54.565Z</time>
      </trkpt>
      <trkpt lat="45.74218" lon="-0.94926">
        <ele>64.703332</ele>
        <time>2022-12-22T11:06:58.632Z</time>
      </trkpt>
      <trkpt lat="45.74209" lon="-0.9493">
        <ele>64.651597</ele>
        <time>2022-12-22T11:07:01.569Z</time>
      </trkpt>
      <trkpt lat="45.74199" lon="-0.94933">
        <ele>64.597331</ele>
        <time>2022-12-22T11:07:04.620Z</time>
      </trkpt>
      <trkpt lat="45.7419" lon="-0.94937">
        <ele>64.542143</ele>
        <time>2022-12-22T11:07:07.554Z</time>
      </trkpt>
      <trkpt lat="45.7418" lon="-0.94941">
        <ele>64.485319</ele>
        <time>2022-12-22T11:07:10.617Z</time>
      </trkpt>
      <trkpt lat="45.7417" lon="-0.94944">
        <ele>64.429274</ele>
        <time>2022-12-22T11:07:13.547Z</time>
      </trkpt>
      <trkpt lat="45.7416" lon="-0.94948">
        <ele>64.367903</ele>
        <time>2022-12-22T11:07:16.629Z</time>
      </trkpt>
      <trkpt lat="45.74149" lon="-0.94952">
        <ele>64.305076</ele>
        <time>2022-12-22T11:07:19.576Z</time>
      </trkpt>
      <trkpt lat="45.74138" lon="-0.94956">
        <ele>64.238963</ele>
        <time>2022-12-22T11:07:22.624Z</time>
      </trkpt>
      <trkpt lat="45.74126" lon="-0.94961">
        <ele>64.170278</ele>
        <time>2022-12-22T11:07:25.560Z</time>
      </trkpt>
      <trkpt lat="45.74114" lon="-0.94965">
        <ele>64.086694</ele>
        <time>2022-12-22T11:07:28.572Z</time>
      </trkpt>
      <trkpt lat="45.74103" lon="-0.94969">
        <ele>63.994974</ele>
        <time>2022-12-22T11:07:31.562Z</time>
      </trkpt>
      <trkpt lat="45.74092" lon="-0.94973">
        <ele>63.901575</ele>
        <time>2022-12-22T11:07:34.559Z</time>
      </trkpt>
      <trkpt lat="45.74082" lon="-0.94976">
        <ele>63.824037</ele>
        <time>2022-12-22T11:07:37.554Z</time>
      </trkpt>
      <trkpt lat="45.74073" lon="-0.9498">
        <ele>63.74678</ele>
        <time>2022-12-22T11:07:40.564Z</time>
      </trkpt>
      <trkpt lat="45.74063" lon="-0.94984">
        <ele>63.660969</ele>
        <time>2022-12-22T11:07:43.572Z</time>
      </trkpt>
      <trkpt lat="45.74052" lon="-0.94989">
        <ele>63.572411</ele>
        <time>2022-12-22T11:07:46.544Z</time>
      </trkpt>
      <trkpt lat="45.74041" lon="-0.94993">
        <ele>63.480292</ele>
        <time>2022-12-22T11:07:49.574Z</time>
      </trkpt>
      <trkpt lat="45.74029" lon="-0.94997">
        <ele>63.387668</ele>
        <time>2022-12-22T11:07:52.561Z</time>
      </trkpt>
      <trkpt lat="45.74018" lon="-0.95001">
        <ele>63.294912</ele>
        <time>2022-12-22T11:07:55.573Z</time>
      </trkpt>
      <trkpt lat="45.74007" lon="-0.95005">
        <ele>63.201111</ele>
        <time>2022-12-22T11:07:58.582Z</time>
      </trkpt>
      <trkpt lat="45.73995" lon="-0.9501">
        <ele>63.105813</ele>
        <time>2022-12-22T11:08:01.576Z</time>
      </trkpt>
      <trkpt lat="45.73984" lon="-0.95014">
        <ele>63.009419</ele>
        <time>2022-12-22T11:08:04.571Z</time>
      </trkpt>
      <trkpt lat="45.73972" lon="-0.95019">
        <ele>62.914121</ele>
        <time>2022-12-22T11:08:07.641Z</time>
      </trkpt>
      <trkpt lat="45.73961" lon="-0.95023">
        <ele>62.821863</ele>
        <time>2022-12-22T11:08:10.576Z</time>
      </trkpt>
      <trkpt lat="45.73951" lon="-0.95027">
        <ele>62.739585</ele>
        <time>2022-12-22T11:08:13.624Z</time>
      </trkpt>
      <trkpt lat="45.73942" lon="-0.95031">
        <ele>62.653934</ele>
        <time>2022-12-22T11:08:16.575Z</time>
      </trkpt>
      <trkpt lat="45.73932" lon="-0.95036">
        <ele>62.557616</ele>
        <time>2022-12-22T11:08:19.633Z</time>
      </trkpt>
      <trkpt lat="45.73922" lon="-0.95041">
        <ele>62.452517</ele>
        <time>2022-12-22T11:08:22.576Z</time>
      </trkpt>
      <trkpt lat="45.73911" lon="-0.95046">
        <ele>62.342994</ele>
        <time>2022-12-22T11:08:25.612Z</time>
      </trkpt>
      <trkpt lat="45.739" lon="-0.95052">
        <ele>62.227608</ele>
        <time>2022-12-22T11:08:28.565Z</time>
      </trkpt>
      <trkpt lat="45.73888" lon="-0.95059">
        <ele>62.109075</ele>
        <time>2022-12-22T11:08:31.572Z</time>
      </trkpt>
      <trkpt lat="45.73877" lon="-0.95065">
        <ele>61.991577</ele>
        <time>2022-12-22T11:08:34.576Z</time>
      </trkpt>
      <trkpt lat="45.73866" lon="-0.95071">
        <ele>61.883612</ele>
        <time>2022-12-22T11:08:37.564Z</time>
      </trkpt>
      <trkpt lat="45.73856" lon="-0.95077">
        <ele>61.776818</ele>
        <time>2022-12-22T11:08:40.575Z</time>
      </trkpt>
      <trkpt lat="45.73845" lon="-0.95084">
        <ele>61.663452</ele>
        <time>2022-12-22T11:08:43.555Z</time>
      </trkpt>
      <trkpt lat="45.73833" lon="-0.95091">
        <ele>61.544264</ele>
        <time>2022-12-22T11:08:46.550Z</time>
      </trkpt>
      <trkpt lat="45.73821" lon="-0.95097">
        <ele>61.424359</ele>
        <time>2022-12-22T11:08:49.571Z</time>
      </trkpt>
      <trkpt lat="45.7381" lon="-0.95104">
        <ele>61.310012</ele>
        <time>2022-12-22T11:08:52.567Z</time>
      </trkpt>
      <trkpt lat="45.738" lon="-0.9511">
        <ele>61.201717</ele>
        <time>2022-12-22T11:08:55.574Z</time>
      </trkpt>
      <trkpt lat="45.7379" lon="-0.95116">
        <ele>61.096673</ele>
        <time>2022-12-22T11:08:58.574Z</time>
      </trkpt>
      <trkpt lat="45.73779" lon="-0.95122">
        <ele>60.968266</ele>
        <time>2022-12-22T11:09:01.577Z</time>
      </trkpt>
      <trkpt lat="45.73767" lon="-0.95129">
        <ele>60.729875</ele>
        <time>2022-12-22T11:09:04.575Z</time>
      </trkpt>
      <trkpt lat="45.73755" lon="-0.95136">
        <ele>60.480245</ele>
        <time>2022-12-22T11:09:07.571Z</time>
      </trkpt>
      <trkpt lat="45.73743" lon="-0.95143">
        <ele>60.242345</ele>
        <time>2022-12-22T11:09:10.571Z</time>
      </trkpt>
      <trkpt lat="45.73732" lon="-0.9515">
        <ele>60.019608</ele>
        <time>2022-12-22T11:09:13.574Z</time>
      </trkpt>
      <trkpt lat="45.73722" lon="-0.95157">
        <ele>59.798678</ele>
        <time>2022-12-22T11:09:16.577Z</time>
      </trkpt>
      <trkpt lat="45.7371" lon="-0.95164">
        <ele>59.559989</ele>
        <time>2022-12-22T11:09:19.574Z</time>
      </trkpt>
      <trkpt lat="45.73698" lon="-0.95172">
        <ele>59.319042</ele>
        <time>2022-12-22T11:09:22.577Z</time>
      </trkpt>
      <trkpt lat="45.73687" lon="-0.9518">
        <ele>59.075395</ele>
        <time>2022-12-22T11:09:25.562Z</time>
      </trkpt>
      <trkpt lat="45.73675" lon="-0.95188">
        <ele>58.833954</ele>
        <time>2022-12-22T11:09:28.572Z</time>
      </trkpt>
      <trkpt lat="45.73664" lon="-0.95197">
        <ele>58.592774</ele>
        <time>2022-12-22T11:09:31.578Z</time>
      </trkpt>
      <trkpt lat="45.73654" lon="-0.95205">
        <ele>58.367613</ele>
        <time>2022-12-22T11:09:34.573Z</time>
      </trkpt>
      <trkpt lat="45.73645" lon="-0.95213">
        <ele>58.17131</ele>
        <time>2022-12-22T11:09:37.556Z</time>
      </trkpt>
      <trkpt lat="45.73636" lon="-0.95221">
        <ele>57.983254</ele>
        <time>2022-12-22T11:09:40.573Z</time>
      </trkpt>
      <trkpt lat="45.73627" lon="-0.9523">
        <ele>57.771422</ele>
        <time>2022-12-22T11:09:43.576Z</time>
      </trkpt>
      <trkpt lat="45.73617" lon="-0.9524">
        <ele>57.488422</ele>
        <time>2022-12-22T11:09:46.568Z</time>
      </trkpt>
      <trkpt lat="45.73607" lon="-0.9525">
        <ele>57.042763</ele>
        <time>2022-12-22T11:09:49.573Z</time>
      </trkpt>
      <trkpt lat="45.73597" lon="-0.9526">
        <ele>56.605724</ele>
        <time>2022-12-22T11:09:52.607Z</time>
      </trkpt>
      <trkpt lat="45.73588" lon="-0.9527">
        <ele>56.192012</ele>
        <time>2022-12-22T11:09:55.576Z</time>
      </trkpt>
      <trkpt lat="45.73579" lon="-0.95278">
        <ele>55.815751</ele>
        <time>2022-12-22T11:09:58.653Z</time>
      </trkpt>
      <trkpt lat="45.73571" lon="-0.95286">
        <ele>55.481654</ele>
        <time>2022-12-22T11:10:01.571Z</time>
      </trkpt>
      <trkpt lat="45.73563" lon="-0.95294">
        <ele>55.127358</ele>
        <time>2022-12-22T11:10:04.634Z</time>
      </trkpt>
      <trkpt lat="45.73554" lon="-0.95304">
        <ele>54.732481</ele>
        <time>2022-12-22T11:10:07.552Z</time>
      </trkpt>
      <trkpt lat="45.73544" lon="-0.95313">
        <ele>54.305673</ele>
        <time>2022-12-22T11:10:10.631Z</time>
      </trkpt>
      <trkpt lat="45.73535" lon="-0.95324">
        <ele>53.870185</ele>
        <time>2022-12-22T11:10:13.563Z</time>
      </trkpt>
      <trkpt lat="45.73525" lon="-0.95333">
        <ele>53.453569</ele>
        <time>2022-12-22T11:10:16.612Z</time>
      </trkpt>
      <trkpt lat="45.73515" lon="-0.95344">
        <ele>53.02238</ele>
        <time>2022-12-22T11:10:19.560Z</time>
      </trkpt>
      <trkpt lat="45.73506" lon="-0.95353">
        <ele>52.618768</ele>
        <time>2022-12-22T11:10:22.610Z</time>
      </trkpt>
      <trkpt lat="45.73497" lon="-0.95362">
        <ele>52.210861</ele>
        <time>2022-12-22T11:10:25.564Z</time>
      </trkpt>
      <trkpt lat="45.73487" lon="-0.95371">
        <ele>51.807095</ele>
        <time>2022-12-22T11:10:28.638Z</time>
      </trkpt>
      <trkpt lat="45.73478" lon="-0.9538">
        <ele>51.423713</ele>
        <time>2022-12-22T11:10:31.561Z</time>
      </trkpt>
      <trkpt lat="45.7347" lon="-0.95388">
        <ele>51.189971</ele>
        <time>2022-12-22T11:10:34.577Z</time>
      </trkpt>
      <trkpt lat="45.73462" lon="-0.95396">
        <ele>51.242101</ele>
        <time>2022-12-22T11:10:37.555Z</time>
      </trkpt>
      <trkpt lat="45.73452" lon="-0.95405">
        <ele>51.299068</ele>
        <time>2022-12-22T11:10:40.560Z</time>
      </trkpt>
      <trkpt lat="45.73442" lon="-0.95414">
        <ele>51.357043</ele>
        <time>2022-12-22T11:10:43.575Z</time>
      </trkpt>
      <trkpt lat="45.73432" lon="-0.95424">
        <ele>51.415166</ele>
        <time>2022-12-22T11:10:46.573Z</time>
      </trkpt>
      <trkpt lat="45.73422" lon="-0.95433">
        <ele>51.474566</ele>
        <time>2022-12-22T11:10:49.568Z</time>
      </trkpt>
      <trkpt lat="45.73411" lon="-0.95442">
        <ele>51.536899</ele>
        <time>2022-12-22T11:10:52.553Z</time>
      </trkpt>
      <trkpt lat="45.73401" lon="-0.9545">
        <ele>51.593456</ele>
        <time>2022-12-22T11:10:55.572Z</time>
      </trkpt>
      <trkpt lat="45.73392" lon="-0.95457">
        <ele>51.6425</ele>
        <time>2022-12-22T11:10:58.567Z</time>
      </trkpt>
      <trkpt lat="45.73383" lon="-0.95463">
        <ele>51.690796</ele>
        <time>2022-12-22T11:11:01.575Z</time>
      </trkpt>
      <trkpt lat="45.73374" lon="-0.9547">
        <ele>51.742641</ele>
        <time>2022-12-22T11:11:04.576Z</time>
      </trkpt>
      <trkpt lat="45.73364" lon="-0.95477">
        <ele>51.79637</ele>
        <time>2022-12-22T11:11:07.550Z</time>
      </trkpt>
      <trkpt lat="45.73354" lon="-0.95485">
        <ele>51.850312</ele>
        <time>2022-12-22T11:11:10.579Z</time>
      </trkpt>
      <trkpt lat="45.73345" lon="-0.95492">
        <ele>51.903473</ele>
        <time>2022-12-22T11:11:13.551Z</time>
      </trkpt>
      <trkpt lat="45.73335" lon="-0.95499">
        <ele>51.953388</ele>
        <time>2022-12-22T11:11:16.572Z</time>
      </trkpt>
      <trkpt lat="45.73326" lon="-0.95507">
        <ele>52.006636</ele>
        <time>2022-12-22T11:11:20.575Z</time>
      </trkpt>
      <trkpt lat="45.73315" lon="-0.95513">
        <ele>52.081322</ele>
        <time>2022-12-22T11:11:24.566Z</time>
      </trkpt>
      <trkpt lat="45.73305" lon="-0.95521">
        <ele>52.322066</ele>
        <time>2022-12-22T11:11:28.581Z</time>
      </trkpt>
      <trkpt lat="45.73295" lon="-0.95527">
        <ele>52.553978</ele>
        <time>2022-12-22T11:11:32.574Z</time>
      </trkpt>
      <trkpt lat="45.73285" lon="-0.95534">
        <ele>52.790896</ele>
        <time>2022-12-22T11:11:36.582Z</time>
      </trkpt>
      <trkpt lat="45.73275" lon="-0.95541">
        <ele>53.024701</ele>
        <time>2022-12-22T11:11:40.575Z</time>
      </trkpt>
      <trkpt lat="45.73265" lon="-0.95548">
        <ele>53.253002</ele>
        <time>2022-12-22T11:11:44.634Z</time>
      </trkpt>
      <trkpt lat="45.73255" lon="-0.95555">
        <ele>53.478658</ele>
        <time>2022-12-22T11:11:48.584Z</time>
      </trkpt>
      <trkpt lat="45.73245" lon="-0.95563">
        <ele>53.709481</ele>
        <time>2022-12-22T11:11:52.577Z</time>
      </trkpt>
      <trkpt lat="45.73235" lon="-0.9557">
        <ele>53.943261</ele>
        <time>2022-12-22T11:11:56.615Z</time>
      </trkpt>
      <trkpt lat="45.73226" lon="-0.95577">
        <ele>54.168573</ele>
        <time>2022-12-22T11:12:00.570Z</time>
      </trkpt>
      <trkpt lat="45.73217" lon="-0.95585">
        <ele>54.3885</ele>
        <time>2022-12-22T11:12:04.567Z</time>
      </trkpt>
      <trkpt lat="45.73207" lon="-0.95593">
        <ele>54.620989</ele>
        <time>2022-12-22T11:12:08.623Z</time>
      </trkpt>
      <trkpt lat="45.73198" lon="-0.95603">
        <ele>54.855769</ele>
        <time>2022-12-22T11:12:12.573Z</time>
      </trkpt>
      <trkpt lat="45.73192" lon="-0.95617">
        <ele>55.093338</ele>
        <time>2022-12-22T11:12:16.576Z</time>
      </trkpt>
      <trkpt lat="45.73189" lon="-0.95633">
        <ele>55.332747</ele>
        <time>2022-12-22T11:12:20.625Z</time>
      </trkpt>
      <trkpt lat="45.73184" lon="-0.95643">
        <ele>55.52959</ele>
        <time>2022-12-22T11:12:24.573Z</time>
      </trkpt>
      <trkpt lat="45.73175" lon="-0.95651">
        <ele>55.749068</ele>
        <time>2022-12-22T11:12:28.565Z</time>
      </trkpt>
      <trkpt lat="45.73164" lon="-0.95651">
        <ele>55.770508</ele>
        <time>2022-12-22T11:12:32.564Z</time>
      </trkpt>
      <trkpt lat="45.73154" lon="-0.95651">
        <ele>55.731078</ele>
        <time>2022-12-22T11:12:36.571Z</time>
      </trkpt>
      <trkpt lat="45.73147" lon="-0.95663">
        <ele>55.685484</ele>
        <time>2022-12-22T11:12:41.576Z</time>
      </trkpt>
      <trkpt lat="45.73137" lon="-0.95674">
        <ele>55.637206</ele>
        <time>2022-12-22T11:12:45.553Z</time>
      </trkpt>
      <trkpt lat="45.73128" lon="-0.95684">
        <ele>55.590445</ele>
        <time>2022-12-22T11:12:49.627Z</time>
      </trkpt>
      <trkpt lat="45.73121" lon="-0.95693">
        <ele>55.552514</ele>
        <time>2022-12-22T11:12:52.573Z</time>
      </trkpt>
      <trkpt lat="45.73113" lon="-0.95703">
        <ele>55.507535</ele>
        <time>2022-12-22T11:12:55.628Z</time>
      </trkpt>
      <trkpt lat="45.73104" lon="-0.95715">
        <ele>55.459497</ele>
        <time>2022-12-22T11:12:58.577Z</time>
      </trkpt>
      <trkpt lat="45.73095" lon="-0.95726">
        <ele>55.411157</ele>
        <time>2022-12-22T11:13:01.630Z</time>
      </trkpt>
      <trkpt lat="45.73087" lon="-0.95736">
        <ele>55.367692</ele>
        <time>2022-12-22T11:13:04.577Z</time>
      </trkpt>
      <trkpt lat="45.7308" lon="-0.95745">
        <ele>55.32805</ele>
        <time>2022-12-22T11:13:07.610Z</time>
      </trkpt>
      <trkpt lat="45.73072" lon="-0.95755">
        <ele>55.284438</ele>
        <time>2022-12-22T11:13:10.574Z</time>
      </trkpt>
      <trkpt lat="45.73063" lon="-0.95767">
        <ele>55.237208</ele>
        <time>2022-12-22T11:13:13.609Z</time>
      </trkpt>
      <trkpt lat="45.73054" lon="-0.95779">
        <ele>55.186441</ele>
        <time>2022-12-22T11:13:16.574Z</time>
      </trkpt>
      <trkpt lat="45.73045" lon="-0.95791">
        <ele>55.134581</ele>
        <time>2022-12-22T11:13:19.620Z</time>
      </trkpt>
      <trkpt lat="45.73036" lon="-0.95803">
        <ele>55.08548</ele>
        <time>2022-12-22T11:13:22.569Z</time>
      </trkpt>
      <trkpt lat="45.73027" lon="-0.95815">
        <ele>54.972111</ele>
        <time>2022-12-22T11:13:25.635Z</time>
      </trkpt>
      <trkpt lat="45.73019" lon="-0.95826">
        <ele>54.847197</ele>
        <time>2022-12-22T11:13:28.567Z</time>
      </trkpt>
      <trkpt lat="45.73011" lon="-0.95837">
        <ele>54.730459</ele>
        <time>2022-12-22T11:13:31.576Z</time>
      </trkpt>
      <trkpt lat="45.73005" lon="-0.95847">
        <ele>54.625638</ele>
        <time>2022-12-22T11:13:34.579Z</time>
      </trkpt>
      <trkpt lat="45.72998" lon="-0.95857">
        <ele>54.519911</ele>
        <time>2022-12-22T11:13:37.548Z</time>
      </trkpt>
      <trkpt lat="45.7299" lon="-0.95868">
        <ele>54.40291</ele>
        <time>2022-12-22T11:13:40.576Z</time>
      </trkpt>
      <trkpt lat="45.72983" lon="-0.95879">
        <ele>54.28771</ele>
        <time>2022-12-22T11:13:43.575Z</time>
      </trkpt>
      <trkpt lat="45.72976" lon="-0.95888">
        <ele>54.18871</ele>
        <time>2022-12-22T11:13:46.574Z</time>
      </trkpt>
      <trkpt lat="45.72969" lon="-0.95899">
        <ele>54.069586</ele>
        <time>2022-12-22T11:13:50.576Z</time>
      </trkpt>
      <trkpt lat="45.72961" lon="-0.95911">
        <ele>53.948553</ele>
        <time>2022-12-22T11:13:55.546Z</time>
      </trkpt>
      <trkpt lat="45.72955" lon="-0.95923">
        <ele>53.836503</ele>
        <time>2022-12-22T11:14:00.541Z</time>
      </trkpt>
      <trkpt lat="45.72944" lon="-0.95923">
        <ele>53.717628</ele>
        <time>2022-12-22T11:16:03.579Z</time>
      </trkpt>
      <trkpt lat="45.72937" lon="-0.95933">
        <ele>53.606666</ele>
        <time>2022-12-22T11:16:06.624Z</time>
      </trkpt>
      <trkpt lat="45.72928" lon="-0.95945">
        <ele>53.476221</ele>
        <time>2022-12-22T11:16:09.555Z</time>
      </trkpt>
      <trkpt lat="45.7292" lon="-0.95957">
        <ele>53.347346</ele>
        <time>2022-12-22T11:16:12.555Z</time>
      </trkpt>
      <trkpt lat="45.72911" lon="-0.95968">
        <ele>53.220362</ele>
        <time>2022-12-22T11:16:15.573Z</time>
      </trkpt>
      <trkpt lat="45.72903" lon="-0.9598">
        <ele>53.127403</ele>
        <time>2022-12-22T11:16:18.576Z</time>
      </trkpt>
      <trkpt lat="45.72895" lon="-0.95992">
        <ele>53.235012</ele>
        <time>2022-12-22T11:16:21.577Z</time>
      </trkpt>
      <trkpt lat="45.72886" lon="-0.96004">
        <ele>53.345658</ele>
        <time>2022-12-22T11:16:24.574Z</time>
      </trkpt>
      <trkpt lat="45.72877" lon="-0.96017">
        <ele>53.456612</ele>
        <time>2022-12-22T11:16:27.555Z</time>
      </trkpt>
      <trkpt lat="45.72868" lon="-0.9603">
        <ele>53.572743</ele>
        <time>2022-12-22T11:16:30.576Z</time>
      </trkpt>
      <trkpt lat="45.72862" lon="-0.96039">
        <ele>53.65563</ele>
        <time>2022-12-22T11:16:32.564Z</time>
      </trkpt>
      <trkpt lat="45.72855" lon="-0.96048">
        <ele>53.738514</ele>
        <time>2022-12-22T11:16:34.571Z</time>
      </trkpt>
      <trkpt lat="45.72845" lon="-0.96061">
        <ele>53.862293</ele>
        <time>2022-12-22T11:16:37.553Z</time>
      </trkpt>
      <trkpt lat="45.72835" lon="-0.96073">
        <ele>53.980066</ele>
        <time>2022-12-22T11:16:40.629Z</time>
      </trkpt>
      <trkpt lat="45.72825" lon="-0.96085">
        <ele>54.097704</ele>
        <time>2022-12-22T11:16:43.568Z</time>
      </trkpt>
      <trkpt lat="45.72815" lon="-0.96097">
        <ele>54.214737</ele>
        <time>2022-12-22T11:16:46.649Z</time>
      </trkpt>
      <trkpt lat="45.72805" lon="-0.96109">
        <ele>54.340087</ele>
        <time>2022-12-22T11:16:49.575Z</time>
      </trkpt>
      <trkpt lat="45.72797" lon="-0.96117">
        <ele>54.424566</ele>
        <time>2022-12-22T11:16:51.560Z</time>
      </trkpt>
      <trkpt lat="45.72787" lon="-0.96129">
        <ele>54.541532</ele>
        <time>2022-12-22T11:16:54.570Z</time>
      </trkpt>
      <trkpt lat="45.72777" lon="-0.9614">
        <ele>54.656849</ele>
        <time>2022-12-22T11:16:57.589Z</time>
      </trkpt>
      <trkpt lat="45.72767" lon="-0.96152">
        <ele>54.749021</ele>
        <time>2022-12-22T11:17:00.571Z</time>
      </trkpt>
      <trkpt lat="45.72758" lon="-0.96163">
        <ele>54.767546</ele>
        <time>2022-12-22T11:17:03.569Z</time>
      </trkpt>
      <trkpt lat="45.72749" lon="-0.96173">
        <ele>54.78648</ele>
        <time>2022-12-22T11:17:06.573Z</time>
      </trkpt>
      <trkpt lat="45.72739" lon="-0.96184">
        <ele>54.805906</ele>
        <time>2022-12-22T11:17:09.619Z</time>
      </trkpt>
      <trkpt lat="45.7273" lon="-0.96194">
        <ele>54.825555</ele>
        <time>2022-12-22T11:17:12.567Z</time>
      </trkpt>
      <trkpt lat="45.7272" lon="-0.96204">
        <ele>54.845203</ele>
        <time>2022-12-22T11:17:15.653Z</time>
      </trkpt>
      <trkpt lat="45.72709" lon="-0.96214">
        <ele>54.864993</ele>
        <time>2022-12-22T11:17:18.577Z</time>
      </trkpt>
      <trkpt lat="45.72699" lon="-0.96224">
        <ele>54.884978</ele>
        <time>2022-12-22T11:17:21.631Z</time>
      </trkpt>
      <trkpt lat="45.72688" lon="-0.96233">
        <ele>54.904719</ele>
        <time>2022-12-22T11:17:24.576Z</time>
      </trkpt>
      <trkpt lat="45.72679" lon="-0.96242">
        <ele>54.922827</ele>
        <time>2022-12-22T11:17:27.584Z</time>
      </trkpt>
      <trkpt lat="45.72669" lon="-0.96249">
        <ele>54.93966</ele>
        <time>2022-12-22T11:17:30.575Z</time>
      </trkpt>
      <trkpt lat="45.7266" lon="-0.96256">
        <ele>54.957302</ele>
        <time>2022-12-22T11:17:33.569Z</time>
      </trkpt>
      <trkpt lat="45.7265" lon="-0.96265">
        <ele>54.976022</ele>
        <time>2022-12-22T11:17:36.577Z</time>
      </trkpt>
      <trkpt lat="45.72639" lon="-0.96274">
        <ele>54.996158</ele>
        <time>2022-12-22T11:17:39.575Z</time>
      </trkpt>
      <trkpt lat="45.72627" lon="-0.96282">
        <ele>55.016625</ele>
        <time>2022-12-22T11:17:42.574Z</time>
      </trkpt>
      <trkpt lat="45.72616" lon="-0.9629">
        <ele>55.050095</ele>
        <time>2022-12-22T11:17:45.577Z</time>
      </trkpt>
      <trkpt lat="45.72606" lon="-0.96299">
        <ele>55.124621</ele>
        <time>2022-12-22T11:17:48.558Z</time>
      </trkpt>
      <trkpt lat="45.72596" lon="-0.96306">
        <ele>55.195867</ele>
        <time>2022-12-22T11:17:51.580Z</time>
      </trkpt>
      <trkpt lat="45.72585" lon="-0.96315">
        <ele>55.274008</ele>
        <time>2022-12-22T11:17:54.578Z</time>
      </trkpt>
      <trkpt lat="45.72574" lon="-0.96323">
        <ele>55.351254</ele>
        <time>2022-12-22T11:17:57.560Z</time>
      </trkpt>
      <trkpt lat="45.72563" lon="-0.96331">
        <ele>55.425298</ele>
        <time>2022-12-22T11:18:00.576Z</time>
      </trkpt>
      <trkpt lat="45.72553" lon="-0.96339">
        <ele>55.49306</ele>
        <time>2022-12-22T11:18:03.580Z</time>
      </trkpt>
      <trkpt lat="45.72544" lon="-0.96346">
        <ele>55.557365</ele>
        <time>2022-12-22T11:18:06.574Z</time>
      </trkpt>
      <trkpt lat="45.72535" lon="-0.96353">
        <ele>55.620283</ele>
        <time>2022-12-22T11:18:09.556Z</time>
      </trkpt>
      <trkpt lat="45.72527" lon="-0.9636">
        <ele>55.683205</ele>
        <time>2022-12-22T11:18:12.577Z</time>
      </trkpt>
      <trkpt lat="45.72518" lon="-0.96367">
        <ele>55.746772</ele>
        <time>2022-12-22T11:18:15.579Z</time>
      </trkpt>
      <trkpt lat="45.72508" lon="-0.96374">
        <ele>55.813172</ele>
        <time>2022-12-22T11:18:18.582Z</time>
      </trkpt>
      <trkpt lat="45.72498" lon="-0.96381">
        <ele>55.880123</ele>
        <time>2022-12-22T11:18:21.574Z</time>
      </trkpt>
      <trkpt lat="45.72489" lon="-0.96388">
        <ele>55.946928</ele>
        <time>2022-12-22T11:18:24.628Z</time>
      </trkpt>
      <trkpt lat="45.72479" lon="-0.96396">
        <ele>56.017281</ele>
        <time>2022-12-22T11:18:27.543Z</time>
      </trkpt>
      <trkpt lat="45.72469" lon="-0.96404">
        <ele>56.087089</ele>
        <time>2022-12-22T11:18:30.565Z</time>
      </trkpt>
      <trkpt lat="45.7246" lon="-0.96412">
        <ele>56.138812</ele>
        <time>2022-12-22T11:18:33.542Z</time>
      </trkpt>
      <trkpt lat="45.7245" lon="-0.96419">
        <ele>56.085914</ele>
        <time>2022-12-22T11:18:36.571Z</time>
      </trkpt>
      <trkpt lat="45.72441" lon="-0.96426">
        <ele>56.033081</ele>
        <time>2022-12-22T11:18:39.560Z</time>
      </trkpt>
      <trkpt lat="45.72431" lon="-0.96433">
        <ele>55.979783</ele>
        <time>2022-12-22T11:18:42.563Z</time>
      </trkpt>
      <trkpt lat="45.72422" lon="-0.96439">
        <ele>55.928139</ele>
        <time>2022-12-22T11:18:45.575Z</time>
      </trkpt>
      <trkpt lat="45.72412" lon="-0.96447">
        <ele>55.872388</ele>
        <time>2022-12-22T11:18:48.576Z</time>
      </trkpt>
      <trkpt lat="45.72404" lon="-0.96454">
        <ele>55.823568</ele>
        <time>2022-12-22T11:18:51.570Z</time>
      </trkpt>
      <trkpt lat="45.72395" lon="-0.9646">
        <ele>55.773133</ele>
        <time>2022-12-22T11:18:54.575Z</time>
      </trkpt>
      <trkpt lat="45.72385" lon="-0.96468">
        <ele>55.718514</ele>
        <time>2022-12-22T11:18:57.555Z</time>
      </trkpt>
      <trkpt lat="45.72376" lon="-0.96476">
        <ele>55.662244</ele>
        <time>2022-12-22T11:19:00.576Z</time>
      </trkpt>
      <trkpt lat="45.72365" lon="-0.96484">
        <ele>55.604221</ele>
        <time>2022-12-22T11:19:03.553Z</time>
      </trkpt>
      <trkpt lat="45.72355" lon="-0.96493">
        <ele>55.543348</ele>
        <time>2022-12-22T11:19:06.574Z</time>
      </trkpt>
      <trkpt lat="45.72344" lon="-0.96502">
        <ele>55.479002</ele>
        <time>2022-12-22T11:19:09.568Z</time>
      </trkpt>
      <trkpt lat="45.72332" lon="-0.96511">
        <ele>55.413963</ele>
        <time>2022-12-22T11:19:12.573Z</time>
      </trkpt>
      <trkpt lat="45.72321" lon="-0.96521">
        <ele>55.347708</ele>
        <time>2022-12-22T11:19:15.569Z</time>
      </trkpt>
      <trkpt lat="45.72313" lon="-0.96528">
        <ele>55.30012</ele>
        <time>2022-12-22T11:19:17.572Z</time>
      </trkpt>
      <trkpt lat="45.72301" lon="-0.96537">
        <ele>55.247416</ele>
        <time>2022-12-22T11:19:20.577Z</time>
      </trkpt>
      <trkpt lat="45.7229" lon="-0.96545">
        <ele>55.253713</ele>
        <time>2022-12-22T11:19:23.574Z</time>
      </trkpt>
      <trkpt lat="45.72279" lon="-0.96554">
        <ele>55.260104</ele>
        <time>2022-12-22T11:19:26.581Z</time>
      </trkpt>
      <trkpt lat="45.72269" lon="-0.96562">
        <ele>55.266076</ele>
        <time>2022-12-22T11:19:29.577Z</time>
      </trkpt>
      <trkpt lat="45.72258" lon="-0.96571">
        <ele>55.2723</ele>
        <time>2022-12-22T11:19:32.577Z</time>
      </trkpt>
      <trkpt lat="45.72247" lon="-0.9658">
        <ele>55.278647</ele>
        <time>2022-12-22T11:19:35.553Z</time>
      </trkpt>
      <trkpt lat="45.72236" lon="-0.96589">
        <ele>55.285233</ele>
        <time>2022-12-22T11:19:38.574Z</time>
      </trkpt>
      <trkpt lat="45.72224" lon="-0.96598">
        <ele>55.291808</ele>
        <time>2022-12-22T11:19:41.575Z</time>
      </trkpt>
      <trkpt lat="45.72213" lon="-0.96607">
        <ele>55.298496</ele>
        <time>2022-12-22T11:19:44.622Z</time>
      </trkpt>
      <trkpt lat="45.72205" lon="-0.96614">
        <ele>55.303037</ele>
        <time>2022-12-22T11:19:46.560Z</time>
      </trkpt>
      <trkpt lat="45.72197" lon="-0.9662">
        <ele>55.307595</ele>
        <time>2022-12-22T11:19:48.576Z</time>
      </trkpt>
      <trkpt lat="45.72186" lon="-0.9663">
        <ele>55.314196</ele>
        <time>2022-12-22T11:19:51.578Z</time>
      </trkpt>
      <trkpt lat="45.72175" lon="-0.96639">
        <ele>55.320832</ele>
        <time>2022-12-22T11:19:54.576Z</time>
      </trkpt>
      <trkpt lat="45.72164" lon="-0.96648">
        <ele>55.327266</ele>
        <time>2022-12-22T11:19:57.553Z</time>
      </trkpt>
      <trkpt lat="45.72153" lon="-0.96658">
        <ele>55.333613</ele>
        <time>2022-12-22T11:20:00.571Z</time>
      </trkpt>
      <trkpt lat="45.72142" lon="-0.96667">
        <ele>55.294002</ele>
        <time>2022-12-22T11:20:03.574Z</time>
      </trkpt>
      <trkpt lat="45.72131" lon="-0.96675">
        <ele>55.19981</ele>
        <time>2022-12-22T11:20:06.574Z</time>
      </trkpt>
      <trkpt lat="45.72121" lon="-0.96684">
        <ele>55.109012</ele>
        <time>2022-12-22T11:20:09.571Z</time>
      </trkpt>
      <trkpt lat="45.7211" lon="-0.96692">
        <ele>55.014567</ele>
        <time>2022-12-22T11:20:12.577Z</time>
      </trkpt>
      <trkpt lat="45.72098" lon="-0.96701">
        <ele>54.91657</ele>
        <time>2022-12-22T11:20:15.568Z</time>
      </trkpt>
      <trkpt lat="45.72087" lon="-0.9671">
        <ele>54.818733</ele>
        <time>2022-12-22T11:20:18.578Z</time>
      </trkpt>
      <trkpt lat="45.72075" lon="-0.96719">
        <ele>54.721039</ele>
        <time>2022-12-22T11:20:21.578Z</time>
      </trkpt>
      <trkpt lat="45.72064" lon="-0.96729">
        <ele>54.623344</ele>
        <time>2022-12-22T11:20:24.577Z</time>
      </trkpt>
      <trkpt lat="45.72052" lon="-0.96738">
        <ele>54.523025</ele>
        <time>2022-12-22T11:20:27.571Z</time>
      </trkpt>
      <trkpt lat="45.72044" lon="-0.96745">
        <ele>54.453106</ele>
        <time>2022-12-22T11:20:29.574Z</time>
      </trkpt>
      <trkpt lat="45.72033" lon="-0.96754">
        <ele>54.352787</ele>
        <time>2022-12-22T11:20:32.575Z</time>
      </trkpt>
      <trkpt lat="45.72022" lon="-0.96762">
        <ele>54.258429</ele>
        <time>2022-12-22T11:20:35.563Z</time>
      </trkpt>
      <trkpt lat="45.7201" lon="-0.96771">
        <ele>54.163072</ele>
        <time>2022-12-22T11:20:38.567Z</time>
      </trkpt>
      <trkpt lat="45.71999" lon="-0.96779">
        <ele>54.0692</ele>
        <time>2022-12-22T11:20:41.576Z</time>
      </trkpt>
      <trkpt lat="45.71989" lon="-0.96788">
        <ele>53.983243</ele>
        <time>2022-12-22T11:20:44.569Z</time>
      </trkpt>
      <trkpt lat="45.71978" lon="-0.96797">
        <ele>53.962112</ele>
        <time>2022-12-22T11:20:47.553Z</time>
      </trkpt>
      <trkpt lat="45.71967" lon="-0.96806">
        <ele>53.940808</ele>
        <time>2022-12-22T11:20:50.566Z</time>
      </trkpt>
      <trkpt lat="45.71956" lon="-0.96815">
        <ele>53.918977</ele>
        <time>2022-12-22T11:20:53.575Z</time>
      </trkpt>
      <trkpt lat="45.71944" lon="-0.96824">
        <ele>53.897437</ele>
        <time>2022-12-22T11:20:56.574Z</time>
      </trkpt>
      <trkpt lat="45.71934" lon="-0.96833">
        <ele>53.876746</ele>
        <time>2022-12-22T11:20:59.575Z</time>
      </trkpt>
      <trkpt lat="45.71923" lon="-0.96842">
        <ele>53.855704</ele>
        <time>2022-12-22T11:21:02.572Z</time>
      </trkpt>
      <trkpt lat="45.71912" lon="-0.9685">
        <ele>53.835184</ele>
        <time>2022-12-22T11:21:05.576Z</time>
      </trkpt>
      <trkpt lat="45.71901" lon="-0.96859">
        <ele>53.814754</ele>
        <time>2022-12-22T11:21:08.577Z</time>
      </trkpt>
      <trkpt lat="45.71891" lon="-0.96867">
        <ele>53.79488</ele>
        <time>2022-12-22T11:21:11.575Z</time>
      </trkpt>
      <trkpt lat="45.71881" lon="-0.96875">
        <ele>53.775062</ele>
        <time>2022-12-22T11:21:14.574Z</time>
      </trkpt>
      <trkpt lat="45.7187" lon="-0.96883">
        <ele>53.754654</ele>
        <time>2022-12-22T11:21:17.549Z</time>
      </trkpt>
      <trkpt lat="45.71859" lon="-0.96892">
        <ele>53.733904</ele>
        <time>2022-12-22T11:21:20.576Z</time>
      </trkpt>
      <trkpt lat="45.71849" lon="-0.96901">
        <ele>53.713067</ele>
        <time>2022-12-22T11:21:23.565Z</time>
      </trkpt>
      <trkpt lat="45.71838" lon="-0.9691">
        <ele>53.692488</ele>
        <time>2022-12-22T11:21:26.578Z</time>
      </trkpt>
      <trkpt lat="45.71828" lon="-0.96918">
        <ele>53.719041</ele>
        <time>2022-12-22T11:21:29.578Z</time>
      </trkpt>
      <trkpt lat="45.71818" lon="-0.96926">
        <ele>53.790143</ele>
        <time>2022-12-22T11:21:32.578Z</time>
      </trkpt>
      <trkpt lat="45.71807" lon="-0.96935">
        <ele>53.8666</ele>
        <time>2022-12-22T11:21:35.576Z</time>
      </trkpt>
      <trkpt lat="45.71796" lon="-0.96944">
        <ele>53.944642</ele>
        <time>2022-12-22T11:21:38.575Z</time>
      </trkpt>
      <trkpt lat="45.71786" lon="-0.96952">
        <ele>54.017239</ele>
        <time>2022-12-22T11:21:41.568Z</time>
      </trkpt>
      <trkpt lat="45.71775" lon="-0.9696">
        <ele>54.091331</ele>
        <time>2022-12-22T11:21:44.571Z</time>
      </trkpt>
      <trkpt lat="45.71765" lon="-0.96969">
        <ele>54.166594</ele>
        <time>2022-12-22T11:21:47.554Z</time>
      </trkpt>
      <trkpt lat="45.71754" lon="-0.96977">
        <ele>54.241971</ele>
        <time>2022-12-22T11:21:50.577Z</time>
      </trkpt>
      <trkpt lat="45.71743" lon="-0.96986">
        <ele>54.31777</ele>
        <time>2022-12-22T11:21:53.579Z</time>
      </trkpt>
      <trkpt lat="45.71732" lon="-0.96994">
        <ele>54.39294</ele>
        <time>2022-12-22T11:21:56.575Z</time>
      </trkpt>
      <trkpt lat="45.71722" lon="-0.97003">
        <ele>54.469275</ele>
        <time>2022-12-22T11:21:59.576Z</time>
      </trkpt>
      <trkpt lat="45.71711" lon="-0.97011">
        <ele>54.542204</ele>
        <time>2022-12-22T11:22:02.571Z</time>
      </trkpt>
      <trkpt lat="45.71702" lon="-0.97019">
        <ele>54.610627</ele>
        <time>2022-12-22T11:22:05.574Z</time>
      </trkpt>
      <trkpt lat="45.71693" lon="-0.97026">
        <ele>54.669534</ele>
        <time>2022-12-22T11:22:08.574Z</time>
      </trkpt>
      <trkpt lat="45.71685" lon="-0.97032">
        <ele>54.727605</ele>
        <time>2022-12-22T11:22:11.570Z</time>
      </trkpt>
      <trkpt lat="45.71677" lon="-0.9704">
        <ele>54.788224</ele>
        <time>2022-12-22T11:22:14.557Z</time>
      </trkpt>
      <trkpt lat="45.71668" lon="-0.97048">
        <ele>54.849711</ele>
        <time>2022-12-22T11:22:17.556Z</time>
      </trkpt>
      <trkpt lat="45.71659" lon="-0.97055">
        <ele>54.909001</ele>
        <time>2022-12-22T11:22:20.576Z</time>
      </trkpt>
      <trkpt lat="45.71651" lon="-0.97063">
        <ele>54.969348</ele>
        <time>2022-12-22T11:22:23.575Z</time>
      </trkpt>
      <trkpt lat="45.71641" lon="-0.97072">
        <ele>55.03404</ele>
        <time>2022-12-22T11:22:26.569Z</time>
      </trkpt>
      <trkpt lat="45.71633" lon="-0.97081">
        <ele>55.098195</ele>
        <time>2022-12-22T11:22:29.574Z</time>
      </trkpt>
      <trkpt lat="45.71624" lon="-0.97091">
        <ele>55.161938</ele>
        <time>2022-12-22T11:22:32.576Z</time>
      </trkpt>
      <trkpt lat="45.71615" lon="-0.97101">
        <ele>55.227831</ele>
        <time>2022-12-22T11:22:35.572Z</time>
      </trkpt>
      <trkpt lat="45.71607" lon="-0.97111">
        <ele>55.293582</ele>
        <time>2022-12-22T11:22:38.559Z</time>
      </trkpt>
      <trkpt lat="45.71599" lon="-0.9712">
        <ele>55.352652</ele>
        <time>2022-12-22T11:22:41.575Z</time>
      </trkpt>
      <trkpt lat="45.71592" lon="-0.9713">
        <ele>55.408319</ele>
        <time>2022-12-22T11:22:44.564Z</time>
      </trkpt>
      <trkpt lat="45.71586" lon="-0.97139">
        <ele>55.464596</ele>
        <time>2022-12-22T11:22:47.552Z</time>
      </trkpt>
      <trkpt lat="45.71578" lon="-0.97149">
        <ele>55.524378</ele>
        <time>2022-12-22T11:22:50.566Z</time>
      </trkpt>
      <trkpt lat="45.71571" lon="-0.97159">
        <ele>55.584146</ele>
        <time>2022-12-22T11:22:53.645Z</time>
      </trkpt>
      <trkpt lat="45.71564" lon="-0.9717">
        <ele>55.64536</ele>
        <time>2022-12-22T11:22:56.578Z</time>
      </trkpt>
      <trkpt lat="45.71557" lon="-0.97179">
        <ele>55.700161</ele>
        <time>2022-12-22T11:22:59.631Z</time>
      </trkpt>
      <trkpt lat="45.7155" lon="-0.97188">
        <ele>55.754142</ele>
        <time>2022-12-22T11:23:02.568Z</time>
      </trkpt>
      <trkpt lat="45.71543" lon="-0.97197">
        <ele>55.810328</ele>
        <time>2022-12-22T11:23:05.598Z</time>
      </trkpt>
      <trkpt lat="45.71535" lon="-0.97206">
        <ele>55.76659</ele>
        <time>2022-12-22T11:23:08.569Z</time>
      </trkpt>
      <trkpt lat="45.71527" lon="-0.97214">
        <ele>55.493111</ele>
        <time>2022-12-22T11:23:11.628Z</time>
      </trkpt>
      <trkpt lat="45.71518" lon="-0.97222">
        <ele>55.212826</ele>
        <time>2022-12-22T11:23:14.574Z</time>
      </trkpt>
      <trkpt lat="45.71509" lon="-0.9723">
        <ele>54.92218</ele>
        <time>2022-12-22T11:23:17.546Z</time>
      </trkpt>
      <trkpt lat="45.715" lon="-0.97237">
        <ele>54.640449</ele>
        <time>2022-12-22T11:23:20.568Z</time>
      </trkpt>
      <trkpt lat="45.71491" lon="-0.97244">
        <ele>54.369736</ele>
        <time>2022-12-22T11:23:23.560Z</time>
      </trkpt>
      <trkpt lat="45.71482" lon="-0.9725">
        <ele>54.10316</ele>
        <time>2022-12-22T11:23:26.574Z</time>
      </trkpt>
      <trkpt lat="45.71473" lon="-0.97255">
        <ele>53.833878</ele>
        <time>2022-12-22T11:23:29.577Z</time>
      </trkpt>
      <trkpt lat="45.71463" lon="-0.9726">
        <ele>53.557802</ele>
        <time>2022-12-22T11:23:32.580Z</time>
      </trkpt>
      <trkpt lat="45.71453" lon="-0.97265">
        <ele>53.274253</ele>
        <time>2022-12-22T11:23:35.575Z</time>
      </trkpt>
      <trkpt lat="45.71443" lon="-0.9727">
        <ele>52.983382</ele>
        <time>2022-12-22T11:23:38.579Z</time>
      </trkpt>
      <trkpt lat="45.71433" lon="-0.97274">
        <ele>52.692998</ele>
        <time>2022-12-22T11:23:41.575Z</time>
      </trkpt>
      <trkpt lat="45.71422" lon="-0.97278">
        <ele>52.403546</ele>
        <time>2022-12-22T11:23:44.576Z</time>
      </trkpt>
      <trkpt lat="45.71412" lon="-0.9728">
        <ele>52.109743</ele>
        <time>2022-12-22T11:23:47.554Z</time>
      </trkpt>
      <trkpt lat="45.71401" lon="-0.97284">
        <ele>51.809201</ele>
        <time>2022-12-22T11:23:50.578Z</time>
      </trkpt>
      <trkpt lat="45.7139" lon="-0.97286">
        <ele>51.510409</ele>
        <time>2022-12-22T11:23:53.556Z</time>
      </trkpt>
      <trkpt lat="45.71379" lon="-0.97288">
        <ele>51.208453</ele>
        <time>2022-12-22T11:23:56.578Z</time>
      </trkpt>
      <trkpt lat="45.71368" lon="-0.97289">
        <ele>50.958528</ele>
        <time>2022-12-22T11:23:59.574Z</time>
      </trkpt>
      <trkpt lat="45.71357" lon="-0.97289">
        <ele>50.83145</ele>
        <time>2022-12-22T11:24:02.578Z</time>
      </trkpt>
      <trkpt lat="45.71347" lon="-0.97289">
        <ele>50.707948</ele>
        <time>2022-12-22T11:24:05.582Z</time>
      </trkpt>
      <trkpt lat="45.71336" lon="-0.97289">
        <ele>50.580851</ele>
        <time>2022-12-22T11:24:08.578Z</time>
      </trkpt>
      <trkpt lat="45.71325" lon="-0.97288">
        <ele>50.452513</ele>
        <time>2022-12-22T11:24:11.582Z</time>
      </trkpt>
      <trkpt lat="45.71314" lon="-0.97288">
        <ele>50.321874</ele>
        <time>2022-12-22T11:24:14.576Z</time>
      </trkpt>
      <trkpt lat="45.71303" lon="-0.97288">
        <ele>50.190005</ele>
        <time>2022-12-22T11:24:17.551Z</time>
      </trkpt>
      <trkpt lat="45.71292" lon="-0.97287">
        <ele>50.053389</ele>
        <time>2022-12-22T11:24:20.577Z</time>
      </trkpt>
      <trkpt lat="45.71281" lon="-0.97287">
        <ele>49.922773</ele>
        <time>2022-12-22T11:24:23.566Z</time>
      </trkpt>
      <trkpt lat="45.7127" lon="-0.97287">
        <ele>49.792092</ele>
        <time>2022-12-22T11:24:26.556Z</time>
      </trkpt>
      <trkpt lat="45.71259" lon="-0.97286">
        <ele>49.663754</ele>
        <time>2022-12-22T11:24:29.557Z</time>
      </trkpt>
      <trkpt lat="45.71248" lon="-0.97286">
        <ele>49.535489</ele>
        <time>2022-12-22T11:24:32.574Z</time>
      </trkpt>
      <trkpt lat="45.71238" lon="-0.97285">
        <ele>49.411953</ele>
        <time>2022-12-22T11:24:35.567Z</time>
      </trkpt>
      <trkpt lat="45.71228" lon="-0.97285">
        <ele>49.296726</ele>
        <time>2022-12-22T11:24:38.639Z</time>
      </trkpt>
      <trkpt lat="45.71218" lon="-0.97285">
        <ele>49.177973</ele>
        <time>2022-12-22T11:24:41.582Z</time>
      </trkpt>
      <trkpt lat="45.71208" lon="-0.97284">
        <ele>49.063833</ele>
        <time>2022-12-22T11:24:44.626Z</time>
      </trkpt>
      <trkpt lat="45.71199" lon="-0.97283">
        <ele>48.950879</ele>
        <time>2022-12-22T11:24:47.553Z</time>
      </trkpt>
      <trkpt lat="45.7119" lon="-0.97283">
        <ele>48.861398</ele>
        <time>2022-12-22T11:24:50.634Z</time>
      </trkpt>
      <trkpt lat="45.7118" lon="-0.97283">
        <ele>48.906352</ele>
        <time>2022-12-22T11:24:53.582Z</time>
      </trkpt>
      <trkpt lat="45.71171" lon="-0.97283">
        <ele>48.95088</ele>
        <time>2022-12-22T11:24:56.630Z</time>
      </trkpt>
      <trkpt lat="45.71161" lon="-0.97282">
        <ele>48.994447</ele>
        <time>2022-12-22T11:24:59.578Z</time>
      </trkpt>
      <trkpt lat="45.71152" lon="-0.97282">
        <ele>49.037558</ele>
        <time>2022-12-22T11:25:02.618Z</time>
      </trkpt>
      <trkpt lat="45.7114" lon="-0.97281">
        <ele>49.093305</ele>
        <time>2022-12-22T11:25:06.570Z</time>
      </trkpt>
      <trkpt lat="45.71131" lon="-0.97281">
        <ele>49.138768</ele>
        <time>2022-12-22T11:25:09.577Z</time>
      </trkpt>
      <trkpt lat="45.71121" lon="-0.9728">
        <ele>49.184662</ele>
        <time>2022-12-22T11:25:12.566Z</time>
      </trkpt>
      <trkpt lat="45.71111" lon="-0.9728">
        <ele>49.229616</ele>
        <time>2022-12-22T11:25:15.572Z</time>
      </trkpt>
      <trkpt lat="45.71101" lon="-0.9728">
        <ele>49.275066</ele>
        <time>2022-12-22T11:25:18.576Z</time>
      </trkpt>
      <trkpt lat="45.71091" lon="-0.97279">
        <ele>49.32191</ele>
        <time>2022-12-22T11:25:21.577Z</time>
      </trkpt>
      <trkpt lat="45.71081" lon="-0.97279">
        <ele>49.370181</ele>
        <time>2022-12-22T11:25:24.565Z</time>
      </trkpt>
      <trkpt lat="45.71071" lon="-0.97279">
        <ele>49.419349</ele>
        <time>2022-12-22T11:25:27.551Z</time>
      </trkpt>
      <trkpt lat="45.7106" lon="-0.97278">
        <ele>49.468555</ele>
        <time>2022-12-22T11:25:30.572Z</time>
      </trkpt>
      <trkpt lat="45.7105" lon="-0.97278">
        <ele>49.515877</ele>
        <time>2022-12-22T11:25:33.562Z</time>
      </trkpt>
      <trkpt lat="45.7104" lon="-0.97278">
        <ele>49.564125</ele>
        <time>2022-12-22T11:25:36.580Z</time>
      </trkpt>
      <trkpt lat="45.7103" lon="-0.97278">
        <ele>49.611448</ele>
        <time>2022-12-22T11:25:39.577Z</time>
      </trkpt>
      <trkpt lat="45.7102" lon="-0.97276">
        <ele>49.657944</ele>
        <time>2022-12-22T11:25:42.581Z</time>
      </trkpt>
      <trkpt lat="45.7101" lon="-0.97276">
        <ele>49.68915</ele>
        <time>2022-12-22T11:25:45.578Z</time>
      </trkpt>
      <trkpt lat="45.71" lon="-0.97275">
        <ele>49.632365</ele>
        <time>2022-12-22T11:25:48.578Z</time>
      </trkpt>
      <trkpt lat="45.7099" lon="-0.97275">
        <ele>49.57386</ele>
        <time>2022-12-22T11:25:51.557Z</time>
      </trkpt>
      <trkpt lat="45.70979" lon="-0.97275">
        <ele>49.515375</ele>
        <time>2022-12-22T11:25:54.575Z</time>
      </trkpt>
      <trkpt lat="45.70969" lon="-0.97274">
        <ele>49.458543</ele>
        <time>2022-12-22T11:25:57.550Z</time>
      </trkpt>
      <trkpt lat="45.7096" lon="-0.97274">
        <ele>49.404641</ele>
        <time>2022-12-22T11:26:00.573Z</time>
      </trkpt>
      <trkpt lat="45.70951" lon="-0.97273">
        <ele>49.350099</ele>
        <time>2022-12-22T11:26:03.576Z</time>
      </trkpt>
      <trkpt lat="45.70941" lon="-0.97273">
        <ele>49.293301</ele>
        <time>2022-12-22T11:26:06.574Z</time>
      </trkpt>
      <trkpt lat="45.70931" lon="-0.97272">
        <ele>49.237076</ele>
        <time>2022-12-22T11:26:09.559Z</time>
      </trkpt>
      <trkpt lat="45.70921" lon="-0.97272">
        <ele>49.180886</ele>
        <time>2022-12-22T11:26:12.576Z</time>
      </trkpt>
      <trkpt lat="45.70911" lon="-0.97272">
        <ele>49.122381</ele>
        <time>2022-12-22T11:26:15.573Z</time>
      </trkpt>
      <trkpt lat="45.709" lon="-0.97271">
        <ele>49.062145</ele>
        <time>2022-12-22T11:26:18.577Z</time>
      </trkpt>
      <trkpt lat="45.7089" lon="-0.97271">
        <ele>49.000175</ele>
        <time>2022-12-22T11:26:21.558Z</time>
      </trkpt>
      <trkpt lat="45.70879" lon="-0.9727">
        <ele>48.940511</ele>
        <time>2022-12-22T11:26:24.566Z</time>
      </trkpt>
      <trkpt lat="45.70869" lon="-0.9727">
        <ele>48.88086</ele>
        <time>2022-12-22T11:26:27.548Z</time>
      </trkpt>
      <trkpt lat="45.70858" lon="-0.97269">
        <ele>48.816623</ele>
        <time>2022-12-22T11:26:30.575Z</time>
      </trkpt>
      <trkpt lat="45.70847" lon="-0.97269">
        <ele>48.753542</ele>
        <time>2022-12-22T11:26:33.578Z</time>
      </trkpt>
      <trkpt lat="45.70835" lon="-0.97269">
        <ele>48.686454</ele>
        <time>2022-12-22T11:26:36.573Z</time>
      </trkpt>
      <trkpt lat="45.70823" lon="-0.9727">
        <ele>48.588517</ele>
        <time>2022-12-22T11:26:39.576Z</time>
      </trkpt>
      <trkpt lat="45.70811" lon="-0.9727">
        <ele>48.481261</ele>
        <time>2022-12-22T11:26:42.566Z</time>
      </trkpt>
      <trkpt lat="45.708" lon="-0.97271">
        <ele>48.375664</ele>
        <time>2022-12-22T11:26:45.576Z</time>
      </trkpt>
      <trkpt lat="45.70789" lon="-0.97272">
        <ele>48.272833</ele>
        <time>2022-12-22T11:26:48.654Z</time>
      </trkpt>
      <trkpt lat="45.70778" lon="-0.97274">
        <ele>48.174391</ele>
        <time>2022-12-22T11:26:51.558Z</time>
      </trkpt>
      <trkpt lat="45.70768" lon="-0.97276">
        <ele>48.074744</ele>
        <time>2022-12-22T11:26:54.626Z</time>
      </trkpt>
      <trkpt lat="45.70756" lon="-0.97278">
        <ele>47.97109</ele>
        <time>2022-12-22T11:26:57.555Z</time>
      </trkpt>
      <trkpt lat="45.70745" lon="-0.9728">
        <ele>47.867436</ele>
        <time>2022-12-22T11:27:00.577Z</time>
      </trkpt>
      <trkpt lat="45.70735" lon="-0.97283">
        <ele>47.767239</ele>
        <time>2022-12-22T11:27:03.574Z</time>
      </trkpt>
      <trkpt lat="45.70724" lon="-0.97286">
        <ele>47.666216</ele>
        <time>2022-12-22T11:27:06.573Z</time>
      </trkpt>
      <trkpt lat="45.70713" lon="-0.97289">
        <ele>47.564922</ele>
        <time>2022-12-22T11:27:09.560Z</time>
      </trkpt>
      <trkpt lat="45.70702" lon="-0.97293">
        <ele>47.461824</ele>
        <time>2022-12-22T11:27:12.575Z</time>
      </trkpt>
      <trkpt lat="45.70692" lon="-0.97297">
        <ele>47.36124</ele>
        <time>2022-12-22T11:27:15.576Z</time>
      </trkpt>
      <trkpt lat="45.70682" lon="-0.97302">
        <ele>47.26397</ele>
        <time>2022-12-22T11:27:18.550Z</time>
      </trkpt>
      <trkpt lat="45.70672" lon="-0.97308">
        <ele>47.166454</ele>
        <time>2022-12-22T11:27:21.578Z</time>
      </trkpt>
      <trkpt lat="45.70662" lon="-0.97313">
        <ele>47.068773</ele>
        <time>2022-12-22T11:27:24.576Z</time>
      </trkpt>
      <trkpt lat="45.70653" lon="-0.97318">
        <ele>47.070838</ele>
        <time>2022-12-22T11:27:27.559Z</time>
      </trkpt>
      <trkpt lat="45.70643" lon="-0.97324">
        <ele>47.293206</ele>
        <time>2022-12-22T11:27:30.559Z</time>
      </trkpt>
      <trkpt lat="45.70633" lon="-0.97331">
        <ele>47.519638</ele>
        <time>2022-12-22T11:27:33.574Z</time>
      </trkpt>
      <trkpt lat="45.70623" lon="-0.97339">
        <ele>47.753151</ele>
        <time>2022-12-22T11:27:36.574Z</time>
      </trkpt>
      <trkpt lat="45.70613" lon="-0.97346">
        <ele>47.979669</ele>
        <time>2022-12-22T11:27:39.572Z</time>
      </trkpt>
      <trkpt lat="45.70603" lon="-0.97353">
        <ele>48.201169</ele>
        <time>2022-12-22T11:27:42.578Z</time>
      </trkpt>
      <trkpt lat="45.70594" lon="-0.9736">
        <ele>48.419803</ele>
        <time>2022-12-22T11:27:45.577Z</time>
      </trkpt>
      <trkpt lat="45.70585" lon="-0.97367">
        <ele>48.636922</ele>
        <time>2022-12-22T11:27:48.570Z</time>
      </trkpt>
      <trkpt lat="45.70576" lon="-0.97375">
        <ele>48.842443</ele>
        <time>2022-12-22T11:27:51.576Z</time>
      </trkpt>
      <trkpt lat="45.70567" lon="-0.97383">
        <ele>49.055705</ele>
        <time>2022-12-22T11:27:54.580Z</time>
      </trkpt>
      <trkpt lat="45.70558" lon="-0.97391">
        <ele>49.280025</ele>
        <time>2022-12-22T11:27:57.558Z</time>
      </trkpt>
      <trkpt lat="45.70549" lon="-0.974">
        <ele>49.504346</ele>
        <time>2022-12-22T11:28:00.576Z</time>
      </trkpt>
      <trkpt lat="45.7054" lon="-0.9741">
        <ele>49.736988</ele>
        <time>2022-12-22T11:28:03.582Z</time>
      </trkpt>
      <trkpt lat="45.70531" lon="-0.97419">
        <ele>49.967955</ele>
        <time>2022-12-22T11:28:06.574Z</time>
      </trkpt>
      <trkpt lat="45.70522" lon="-0.97429">
        <ele>50.200713</ele>
        <time>2022-12-22T11:28:09.577Z</time>
      </trkpt>
      <trkpt lat="45.70513" lon="-0.97439">
        <ele>50.432013</ele>
        <time>2022-12-22T11:28:12.576Z</time>
      </trkpt>
      <trkpt lat="45.70505" lon="-0.9745">
        <ele>50.665468</ele>
        <time>2022-12-22T11:28:15.579Z</time>
      </trkpt>
      <trkpt lat="45.70496" lon="-0.97461">
        <ele>50.630501</ele>
        <time>2022-12-22T11:28:18.581Z</time>
      </trkpt>
      <trkpt lat="45.70488" lon="-0.97471">
        <ele>50.56008</ele>
        <time>2022-12-22T11:28:21.575Z</time>
      </trkpt>
      <trkpt lat="45.70481" lon="-0.97481">
        <ele>50.493908</ele>
        <time>2022-12-22T11:28:24.565Z</time>
      </trkpt>
      <trkpt lat="45.70474" lon="-0.97491">
        <ele>50.431284</ele>
        <time>2022-12-22T11:28:27.546Z</time>
      </trkpt>
      <trkpt lat="45.70467" lon="-0.97502">
        <ele>50.364325</ele>
        <time>2022-12-22T11:28:30.576Z</time>
      </trkpt>
      <trkpt lat="45.7046" lon="-0.97513">
        <ele>50.295575</ele>
        <time>2022-12-22T11:28:33.575Z</time>
      </trkpt>
      <trkpt lat="45.70453" lon="-0.97525">
        <ele>50.225876</ele>
        <time>2022-12-22T11:28:36.558Z</time>
      </trkpt>
      <trkpt lat="45.70447" lon="-0.97536">
        <ele>50.158408</ele>
        <time>2022-12-22T11:28:39.558Z</time>
      </trkpt>
      <trkpt lat="45.7044" lon="-0.97548">
        <ele>50.090764</ele>
        <time>2022-12-22T11:28:42.579Z</time>
      </trkpt>
      <trkpt lat="45.70435" lon="-0.97558">
        <ele>50.031805</ele>
        <time>2022-12-22T11:28:45.575Z</time>
      </trkpt>
      <trkpt lat="45.70429" lon="-0.9757">
        <ele>49.967991</ele>
        <time>2022-12-22T11:28:49.574Z</time>
      </trkpt>
      <trkpt lat="45.70422" lon="-0.97584">
        <ele>49.887761</ele>
        <time>2022-12-22T11:28:53.629Z</time>
      </trkpt>
      <trkpt lat="45.70417" lon="-0.97597">
        <ele>49.820932</ele>
        <time>2022-12-22T11:28:56.548Z</time>
      </trkpt>
      <trkpt lat="45.70412" lon="-0.97609">
        <ele>49.755537</ele>
        <time>2022-12-22T11:28:59.573Z</time>
      </trkpt>
      <trkpt lat="45.70407" lon="-0.97622">
        <ele>49.688783</ele>
        <time>2022-12-22T11:29:02.577Z</time>
      </trkpt>
      <trkpt lat="45.70402" lon="-0.97634">
        <ele>49.624876</ele>
        <time>2022-12-22T11:29:05.647Z</time>
      </trkpt>
      <trkpt lat="45.70397" lon="-0.97646">
        <ele>49.560261</ele>
        <time>2022-12-22T11:29:08.573Z</time>
      </trkpt>
      <trkpt lat="45.70393" lon="-0.97659">
        <ele>49.576146</ele>
        <time>2022-12-22T11:29:11.565Z</time>
      </trkpt>
      <trkpt lat="45.70389" lon="-0.97673">
        <ele>49.713068</ele>
        <time>2022-12-22T11:29:14.557Z</time>
      </trkpt>
      <trkpt lat="45.70385" lon="-0.97686">
        <ele>49.848919</ele>
        <time>2022-12-22T11:29:17.561Z</time>
      </trkpt>
      <trkpt lat="45.7038" lon="-0.977">
        <ele>49.993203</ele>
        <time>2022-12-22T11:29:20.571Z</time>
      </trkpt>
      <trkpt lat="45.70375" lon="-0.97715">
        <ele>50.144479</ele>
        <time>2022-12-22T11:29:23.553Z</time>
      </trkpt>
      <trkpt lat="45.70371" lon="-0.97729">
        <ele>50.291297</ele>
        <time>2022-12-22T11:29:26.571Z</time>
      </trkpt>
      <trkpt lat="45.70366" lon="-0.97743">
        <ele>50.435266</ele>
        <time>2022-12-22T11:29:29.573Z</time>
      </trkpt>
      <trkpt lat="45.70362" lon="-0.97756">
        <ele>50.564599</ele>
        <time>2022-12-22T11:29:32.577Z</time>
      </trkpt>
      <trkpt lat="45.70361" lon="-0.9777">
        <ele>50.695232</ele>
        <time>2022-12-22T11:29:36.573Z</time>
      </trkpt>
      <trkpt lat="45.70361" lon="-0.97783">
        <ele>50.815852</ele>
        <time>2022-12-22T11:29:39.577Z</time>
      </trkpt>
      <trkpt lat="45.70359" lon="-0.97796">
        <ele>50.94335</ele>
        <time>2022-12-22T11:29:42.574Z</time>
      </trkpt>
      <trkpt lat="45.70352" lon="-0.97806">
        <ele>51.070703</ele>
        <time>2022-12-22T11:29:45.575Z</time>
      </trkpt>
      <trkpt lat="45.70344" lon="-0.97816">
        <ele>51.213952</ele>
        <time>2022-12-22T11:29:49.577Z</time>
      </trkpt>
      <trkpt lat="45.7034" lon="-0.97829">
        <ele>51.344687</ele>
        <time>2022-12-22T11:29:52.642Z</time>
      </trkpt>
      <trkpt lat="45.70336" lon="-0.97844">
        <ele>51.491384</ele>
        <time>2022-12-22T11:29:55.575Z</time>
      </trkpt>
      <trkpt lat="45.70332" lon="-0.97858">
        <ele>51.637722</ele>
        <time>2022-12-22T11:29:58.630Z</time>
      </trkpt>
      <trkpt lat="45.70327" lon="-0.97874">
        <ele>51.795787</ele>
        <time>2022-12-22T11:30:01.576Z</time>
      </trkpt>
      <trkpt lat="45.70322" lon="-0.97889">
        <ele>51.920125</ele>
        <time>2022-12-22T11:30:04.554Z</time>
      </trkpt>
      <trkpt lat="45.70317" lon="-0.97906">
        <ele>51.911522</ele>
        <time>2022-12-22T11:30:07.553Z</time>
      </trkpt>
      <trkpt lat="45.70312" lon="-0.97921">
        <ele>51.903345</ele>
        <time>2022-12-22T11:30:10.578Z</time>
      </trkpt>
      <trkpt lat="45.70308" lon="-0.97936">
        <ele>51.89565</ele>
        <time>2022-12-22T11:30:13.578Z</time>
      </trkpt>
      <trkpt lat="45.70304" lon="-0.9795">
        <ele>51.888373</ele>
        <time>2022-12-22T11:30:16.563Z</time>
      </trkpt>
      <trkpt lat="45.703" lon="-0.97964">
        <ele>51.881361</ele>
        <time>2022-12-22T11:30:19.579Z</time>
      </trkpt>
      <trkpt lat="45.70296" lon="-0.97979">
        <ele>51.873337</ele>
        <time>2022-12-22T11:30:22.577Z</time>
      </trkpt>
      <trkpt lat="45.70291" lon="-0.97996">
        <ele>51.864601</ele>
        <time>2022-12-22T11:30:25.579Z</time>
      </trkpt>
      <trkpt lat="45.70285" lon="-0.98013">
        <ele>51.855302</ele>
        <time>2022-12-22T11:30:28.576Z</time>
      </trkpt>
      <trkpt lat="45.7028" lon="-0.98031">
        <ele>51.84581</ele>
        <time>2022-12-22T11:30:31.576Z</time>
      </trkpt>
      <trkpt lat="45.70276" lon="-0.98043">
        <ele>51.83947</ele>
        <time>2022-12-22T11:30:33.562Z</time>
      </trkpt>
      <trkpt lat="45.70271" lon="-0.9806">
        <ele>51.830458</ele>
        <time>2022-12-22T11:30:36.577Z</time>
      </trkpt>
      <trkpt lat="45.70267" lon="-0.98072">
        <ele>51.824159</ele>
        <time>2022-12-22T11:30:38.571Z</time>
      </trkpt>
      <trkpt lat="45.70262" lon="-0.9809">
        <ele>51.814728</ele>
        <time>2022-12-22T11:30:41.576Z</time>
      </trkpt>
      <trkpt lat="45.70257" lon="-0.98107">
        <ele>51.80584</ele>
        <time>2022-12-22T11:30:44.578Z</time>
      </trkpt>
      <trkpt lat="45.70253" lon="-0.9812">
        <ele>51.79934</ele>
        <time>2022-12-22T11:30:46.577Z</time>
      </trkpt>
      <trkpt lat="45.70249" lon="-0.98131">
        <ele>51.827777</ele>
        <time>2022-12-22T11:30:48.641Z</time>
      </trkpt>
      <trkpt lat="45.70246" lon="-0.98143">
        <ele>51.86856</ele>
        <time>2022-12-22T11:30:50.578Z</time>
      </trkpt>
      <trkpt lat="45.7024" lon="-0.98162">
        <ele>51.930047</ele>
        <time>2022-12-22T11:30:53.578Z</time>
      </trkpt>
      <trkpt lat="45.70235" lon="-0.98179">
        <ele>51.989285</ele>
        <time>2022-12-22T11:30:56.577Z</time>
      </trkpt>
      <trkpt lat="45.7023" lon="-0.98197">
        <ele>52.04676</ele>
        <time>2022-12-22T11:30:59.651Z</time>
      </trkpt>
      <trkpt lat="45.70226" lon="-0.98209">
        <ele>52.088005</ele>
        <time>2022-12-22T11:31:01.575Z</time>
      </trkpt>
      <trkpt lat="45.70221" lon="-0.98226">
        <ele>52.145591</ele>
        <time>2022-12-22T11:31:04.576Z</time>
      </trkpt>
      <trkpt lat="45.70216" lon="-0.98243">
        <ele>52.202493</ele>
        <time>2022-12-22T11:31:07.549Z</time>
      </trkpt>
      <trkpt lat="45.70211" lon="-0.9826">
        <ele>52.258027</ele>
        <time>2022-12-22T11:31:10.575Z</time>
      </trkpt>
      <trkpt lat="45.70206" lon="-0.98276">
        <ele>52.314383</ele>
        <time>2022-12-22T11:31:13.577Z</time>
      </trkpt>
      <trkpt lat="45.70201" lon="-0.98292">
        <ele>52.367669</ele>
        <time>2022-12-22T11:31:16.625Z</time>
      </trkpt>
      <trkpt lat="45.70196" lon="-0.98306">
        <ele>52.418153</ele>
        <time>2022-12-22T11:31:19.575Z</time>
      </trkpt>
      <trkpt lat="45.70191" lon="-0.9832">
        <ele>52.465558</ele>
        <time>2022-12-22T11:31:22.560Z</time>
      </trkpt>
      <trkpt lat="45.70186" lon="-0.98334">
        <ele>52.511937</ele>
        <time>2022-12-22T11:31:25.577Z</time>
      </trkpt>
      <trkpt lat="45.70181" lon="-0.98348">
        <ele>52.560964</ele>
        <time>2022-12-22T11:31:28.555Z</time>
      </trkpt>
      <trkpt lat="45.70176" lon="-0.98362">
        <ele>52.502593</ele>
        <time>2022-12-22T11:31:31.576Z</time>
      </trkpt>
      <trkpt lat="45.7017" lon="-0.98374">
        <ele>52.274131</ele>
        <time>2022-12-22T11:31:34.575Z</time>
      </trkpt>
      <trkpt lat="45.70165" lon="-0.98387">
        <ele>52.040245</ele>
        <time>2022-12-22T11:31:37.553Z</time>
      </trkpt>
      <trkpt lat="45.70159" lon="-0.98399">
        <ele>51.800372</ele>
        <time>2022-12-22T11:31:40.577Z</time>
      </trkpt>
      <trkpt lat="45.70154" lon="-0.98411">
        <ele>51.574714</ele>
        <time>2022-12-22T11:31:43.579Z</time>
      </trkpt>
      <trkpt lat="45.70148" lon="-0.98422">
        <ele>51.350442</ele>
        <time>2022-12-22T11:31:46.563Z</time>
      </trkpt>
      <trkpt lat="45.70142" lon="-0.98434">
        <ele>51.110455</ele>
        <time>2022-12-22T11:31:49.579Z</time>
      </trkpt>
      <trkpt lat="45.70135" lon="-0.98447">
        <ele>50.862547</ele>
        <time>2022-12-22T11:31:52.545Z</time>
      </trkpt>
      <trkpt lat="45.70128" lon="-0.98459">
        <ele>50.618416</ele>
        <time>2022-12-22T11:31:55.577Z</time>
      </trkpt>
      <trkpt lat="45.70122" lon="-0.98471">
        <ele>50.373925</ele>
        <time>2022-12-22T11:31:58.577Z</time>
      </trkpt>
      <trkpt lat="45.70115" lon="-0.98482">
        <ele>50.127462</ele>
        <time>2022-12-22T11:32:01.577Z</time>
      </trkpt>
      <trkpt lat="45.70108" lon="-0.98494">
        <ele>49.885174</ele>
        <time>2022-12-22T11:32:04.575Z</time>
      </trkpt>
      <trkpt lat="45.70102" lon="-0.98504">
        <ele>49.675539</ele>
        <time>2022-12-22T11:32:07.558Z</time>
      </trkpt>
      <trkpt lat="45.70095" lon="-0.98514">
        <ele>49.451315</ele>
        <time>2022-12-22T11:32:10.577Z</time>
      </trkpt>
      <trkpt lat="45.70088" lon="-0.98524">
        <ele>49.224563</ele>
        <time>2022-12-22T11:32:13.628Z</time>
      </trkpt>
      <trkpt lat="45.7008" lon="-0.98534">
        <ele>48.99123</ele>
        <time>2022-12-22T11:32:16.579Z</time>
      </trkpt>
      <trkpt lat="45.70072" lon="-0.98545">
        <ele>48.747966</ele>
        <time>2022-12-22T11:32:19.580Z</time>
      </trkpt>
      <trkpt lat="45.70065" lon="-0.98555">
        <ele>48.511883</ele>
        <time>2022-12-22T11:32:22.559Z</time>
      </trkpt>
      <trkpt lat="45.70056" lon="-0.98565">
        <ele>48.39251</ele>
        <time>2022-12-22T11:32:25.645Z</time>
      </trkpt>
      <trkpt lat="45.70048" lon="-0.98576">
        <ele>48.278054</ele>
        <time>2022-12-22T11:32:28.550Z</time>
      </trkpt>
      <trkpt lat="45.7004" lon="-0.98587">
        <ele>48.167796</ele>
        <time>2022-12-22T11:32:31.622Z</time>
      </trkpt>
      <trkpt lat="45.70032" lon="-0.98597">
        <ele>48.059487</ele>
        <time>2022-12-22T11:32:34.570Z</time>
      </trkpt>
      <trkpt lat="45.70024" lon="-0.98608">
        <ele>47.951877</ele>
        <time>2022-12-22T11:32:37.585Z</time>
      </trkpt>
      <trkpt lat="45.70016" lon="-0.98618">
        <ele>47.846429</ele>
        <time>2022-12-22T11:32:40.576Z</time>
      </trkpt>
      <trkpt lat="45.70009" lon="-0.98627">
        <ele>47.749985</ele>
        <time>2022-12-22T11:32:43.635Z</time>
      </trkpt>
      <trkpt lat="45.70002" lon="-0.98636">
        <ele>47.648194</ele>
        <time>2022-12-22T11:32:46.565Z</time>
      </trkpt>
      <trkpt lat="45.69994" lon="-0.98647">
        <ele>47.539365</ele>
        <time>2022-12-22T11:32:49.633Z</time>
      </trkpt>
      <trkpt lat="45.69986" lon="-0.98657">
        <ele>47.430257</ele>
        <time>2022-12-22T11:32:52.576Z</time>
      </trkpt>
      <trkpt lat="45.69978" lon="-0.98668">
        <ele>47.323646</ele>
        <time>2022-12-22T11:32:55.624Z</time>
      </trkpt>
      <trkpt lat="45.69971" lon="-0.98677">
        <ele>47.229902</ele>
        <time>2022-12-22T11:32:58.574Z</time>
      </trkpt>
      <trkpt lat="45.69962" lon="-0.98688">
        <ele>47.110379</ele>
        <time>2022-12-22T11:33:02.578Z</time>
      </trkpt>
      <trkpt lat="45.69956" lon="-0.98697">
        <ele>47.017851</ele>
        <time>2022-12-22T11:33:05.576Z</time>
      </trkpt>
      <trkpt lat="45.69949" lon="-0.98706">
        <ele>46.921589</ele>
        <time>2022-12-22T11:33:08.576Z</time>
      </trkpt>
      <trkpt lat="45.69942" lon="-0.98715">
        <ele>46.827581</ele>
        <time>2022-12-22T11:33:11.578Z</time>
      </trkpt>
      <trkpt lat="45.69935" lon="-0.98724">
        <ele>46.731881</ele>
        <time>2022-12-22T11:33:14.576Z</time>
      </trkpt>
      <trkpt lat="45.69928" lon="-0.98733">
        <ele>46.709875</ele>
        <time>2022-12-22T11:33:17.553Z</time>
      </trkpt>
      <trkpt lat="45.69919" lon="-0.98745">
        <ele>46.765653</ele>
        <time>2022-12-22T11:33:21.576Z</time>
      </trkpt>
      <trkpt lat="45.69912" lon="-0.98754">
        <ele>46.810723</ele>
        <time>2022-12-22T11:33:24.575Z</time>
      </trkpt>
      <trkpt lat="45.69905" lon="-0.98764">
        <ele>46.857138</ele>
        <time>2022-12-22T11:33:27.552Z</time>
      </trkpt>
      <trkpt lat="45.69897" lon="-0.98773">
        <ele>46.903795</ele>
        <time>2022-12-22T11:33:30.628Z</time>
      </trkpt>
      <trkpt lat="45.6989" lon="-0.98783">
        <ele>46.951268</ele>
        <time>2022-12-22T11:33:33.578Z</time>
      </trkpt>
      <trkpt lat="45.69883" lon="-0.98793">
        <ele>46.997573</ele>
        <time>2022-12-22T11:33:36.636Z</time>
      </trkpt>
      <trkpt lat="45.69877" lon="-0.98802">
        <ele>47.04011</ele>
        <time>2022-12-22T11:33:39.576Z</time>
      </trkpt>
      <trkpt lat="45.6987" lon="-0.98815">
        <ele>47.094745</ele>
        <time>2022-12-22T11:33:43.576Z</time>
      </trkpt>
      <trkpt lat="45.69862" lon="-0.98828">
        <ele>47.148779</ele>
        <time>2022-12-22T11:33:47.561Z</time>
      </trkpt>
      <trkpt lat="45.69855" lon="-0.9884">
        <ele>47.202098</ele>
        <time>2022-12-22T11:33:51.579Z</time>
      </trkpt>
      <trkpt lat="45.69848" lon="-0.98852">
        <ele>47.255023</ele>
        <time>2022-12-22T11:33:55.578Z</time>
      </trkpt>
      <trkpt lat="45.69842" lon="-0.98863">
        <ele>47.298928</ele>
        <time>2022-12-22T11:33:58.576Z</time>
      </trkpt>
      <trkpt lat="45.69837" lon="-0.98874">
        <ele>47.343702</ele>
        <time>2022-12-22T11:34:01.551Z</time>
      </trkpt>
      <trkpt lat="45.6983" lon="-0.98884">
        <ele>47.390139</ele>
        <time>2022-12-22T11:34:04.576Z</time>
      </trkpt>
      <trkpt lat="45.69824" lon="-0.98896">
        <ele>47.43648</ele>
        <time>2022-12-22T11:34:07.551Z</time>
      </trkpt>
      <trkpt lat="45.69818" lon="-0.98907">
        <ele>47.483728</ele>
        <time>2022-12-22T11:34:10.575Z</time>
      </trkpt>
      <trkpt lat="45.69812" lon="-0.98918">
        <ele>47.528731</ele>
        <time>2022-12-22T11:34:13.571Z</time>
      </trkpt>
      <trkpt lat="45.69805" lon="-0.98931">
        <ele>47.561835</ele>
        <time>2022-12-22T11:34:17.557Z</time>
      </trkpt>
      <trkpt lat="45.69799" lon="-0.98943">
        <ele>47.586012</ele>
        <time>2022-12-22T11:34:20.579Z</time>
      </trkpt>
      <trkpt lat="45.69793" lon="-0.98955">
        <ele>47.611307</ele>
        <time>2022-12-22T11:34:23.571Z</time>
      </trkpt>
      <trkpt lat="45.69787" lon="-0.98967">
        <ele>47.636186</ele>
        <time>2022-12-22T11:34:26.579Z</time>
      </trkpt>
      <trkpt lat="45.69781" lon="-0.98978">
        <ele>47.661201</ele>
        <time>2022-12-22T11:34:29.623Z</time>
      </trkpt>
      <trkpt lat="45.69775" lon="-0.98989">
        <ele>47.685004</ele>
        <time>2022-12-22T11:34:32.575Z</time>
      </trkpt>
      <trkpt lat="45.69768" lon="-0.99001">
        <ele>47.70979</ele>
        <time>2022-12-22T11:34:35.629Z</time>
      </trkpt>
      <trkpt lat="45.69762" lon="-0.99012">
        <ele>47.733846</ele>
        <time>2022-12-22T11:34:38.577Z</time>
      </trkpt>
      <trkpt lat="45.69755" lon="-0.99024">
        <ele>47.760472</ele>
        <time>2022-12-22T11:34:42.575Z</time>
      </trkpt>
      <trkpt lat="45.69749" lon="-0.99035">
        <ele>47.78416</ele>
        <time>2022-12-22T11:34:45.576Z</time>
      </trkpt>
      <trkpt lat="45.69742" lon="-0.99045">
        <ele>47.809005</ele>
        <time>2022-12-22T11:34:48.556Z</time>
      </trkpt>
      <trkpt lat="45.69734" lon="-0.99055">
        <ele>47.834165</ele>
        <time>2022-12-22T11:34:51.576Z</time>
      </trkpt>
      <trkpt lat="45.69726" lon="-0.99065">
        <ele>47.859198</ele>
        <time>2022-12-22T11:34:54.556Z</time>
      </trkpt>
      <trkpt lat="45.69718" lon="-0.99074">
        <ele>47.883398</ele>
        <time>2022-12-22T11:34:57.556Z</time>
      </trkpt>
      <trkpt lat="45.6971" lon="-0.99083">
        <ele>47.909739</ele>
        <time>2022-12-22T11:35:00.574Z</time>
      </trkpt>
      <trkpt lat="45.69701" lon="-0.9909">
        <ele>47.93333</ele>
        <time>2022-12-22T11:35:03.575Z</time>
      </trkpt>
      <trkpt lat="45.69691" lon="-0.991">
        <ele>47.962992</ele>
        <time>2022-12-22T11:35:07.555Z</time>
      </trkpt>
      <trkpt lat="45.69683" lon="-0.99106">
        <ele>47.970871</ele>
        <time>2022-12-22T11:35:10.574Z</time>
      </trkpt>
      <trkpt lat="45.69675" lon="-0.99113">
        <ele>47.965984</ele>
        <time>2022-12-22T11:35:13.567Z</time>
      </trkpt>
      <trkpt lat="45.69666" lon="-0.99121">
        <ele>47.960998</ele>
        <time>2022-12-22T11:35:16.575Z</time>
      </trkpt>
      <trkpt lat="45.69658" lon="-0.99128">
        <ele>47.955839</ele>
        <time>2022-12-22T11:35:19.568Z</time>
      </trkpt>
      <trkpt lat="45.69649" lon="-0.99136">
        <ele>47.950748</ele>
        <time>2022-12-22T11:35:22.576Z</time>
      </trkpt>
      <trkpt lat="45.69641" lon="-0.99143">
        <ele>47.945625</ele>
        <time>2022-12-22T11:35:25.579Z</time>
      </trkpt>
      <trkpt lat="45.69632" lon="-0.99151">
        <ele>47.940781</ele>
        <time>2022-12-22T11:35:28.578Z</time>
      </trkpt>
      <trkpt lat="45.69625" lon="-0.99157">
        <ele>47.93617</ele>
        <time>2022-12-22T11:35:31.577Z</time>
      </trkpt>
      <trkpt lat="45.69616" lon="-0.99164">
        <ele>47.931418</ele>
        <time>2022-12-22T11:35:34.628Z</time>
      </trkpt>
      <trkpt lat="45.69606" lon="-0.99172">
        <ele>47.925378</ele>
        <time>2022-12-22T11:35:38.576Z</time>
      </trkpt>
      <trkpt lat="45.69596" lon="-0.9918">
        <ele>47.919673</ele>
        <time>2022-12-22T11:35:42.576Z</time>
      </trkpt>
      <trkpt lat="45.69586" lon="-0.99188">
        <ele>47.91363</ele>
        <time>2022-12-22T11:35:46.624Z</time>
      </trkpt>
      <trkpt lat="45.69578" lon="-0.99195">
        <ele>47.908842</ele>
        <time>2022-12-22T11:35:49.577Z</time>
      </trkpt>
      <trkpt lat="45.69569" lon="-0.99202">
        <ele>47.903895</ele>
        <time>2022-12-22T11:35:52.650Z</time>
      </trkpt>
      <trkpt lat="45.69561" lon="-0.99209">
        <ele>47.898866</ele>
        <time>2022-12-22T11:35:55.577Z</time>
      </trkpt>
      <trkpt lat="45.69553" lon="-0.99217">
        <ele>47.893818</ele>
        <time>2022-12-22T11:35:58.629Z</time>
      </trkpt>
      <trkpt lat="45.69543" lon="-0.99224">
        <ele>47.888474</ele>
        <time>2022-12-22T11:36:01.573Z</time>
      </trkpt>
      <trkpt lat="45.69534" lon="-0.99232">
        <ele>47.883113</ele>
        <time>2022-12-22T11:36:04.658Z</time>
      </trkpt>
      <trkpt lat="45.69524" lon="-0.9924">
        <ele>47.866285</ele>
        <time>2022-12-22T11:36:07.567Z</time>
      </trkpt>
      <trkpt lat="45.69516" lon="-0.99248">
        <ele>47.848052</ele>
        <time>2022-12-22T11:36:10.629Z</time>
      </trkpt>
      <trkpt lat="45.69507" lon="-0.99256">
        <ele>47.830594</ele>
        <time>2022-12-22T11:36:13.581Z</time>
      </trkpt>
      <trkpt lat="45.69498" lon="-0.99264">
        <ele>47.812374</ele>
        <time>2022-12-22T11:36:16.624Z</time>
      </trkpt>
      <trkpt lat="45.69489" lon="-0.99273">
        <ele>47.794154</ele>
        <time>2022-12-22T11:36:19.574Z</time>
      </trkpt>
      <trkpt lat="45.69481" lon="-0.99281">
        <ele>47.776153</ele>
        <time>2022-12-22T11:36:22.650Z</time>
      </trkpt>
      <trkpt lat="45.69473" lon="-0.9929">
        <ele>47.759062</ele>
        <time>2022-12-22T11:36:25.576Z</time>
      </trkpt>
      <trkpt lat="45.69465" lon="-0.99298">
        <ele>47.742374</ele>
        <time>2022-12-22T11:36:28.596Z</time>
      </trkpt>
      <trkpt lat="45.69456" lon="-0.99308">
        <ele>47.722822</ele>
        <time>2022-12-22T11:36:32.576Z</time>
      </trkpt>
      <trkpt lat="45.69448" lon="-0.99318">
        <ele>47.704892</ele>
        <time>2022-12-22T11:36:36.576Z</time>
      </trkpt>
      <trkpt lat="45.6944" lon="-0.99328">
        <ele>47.686241</ele>
        <time>2022-12-22T11:36:40.575Z</time>
      </trkpt>
      <trkpt lat="45.69432" lon="-0.99337">
        <ele>47.66801</ele>
        <time>2022-12-22T11:36:44.570Z</time>
      </trkpt>
      <trkpt lat="45.69423" lon="-0.99347">
        <ele>47.648384</ele>
        <time>2022-12-22T11:36:48.569Z</time>
      </trkpt>
      <trkpt lat="45.69413" lon="-0.99357">
        <ele>47.627717</ele>
        <time>2022-12-22T11:36:52.574Z</time>
      </trkpt>
      <trkpt lat="45.69406" lon="-0.99365">
        <ele>47.611806</ele>
        <time>2022-12-22T11:36:55.576Z</time>
      </trkpt>
      <trkpt lat="45.69398" lon="-0.99374">
        <ele>47.595339</ele>
        <time>2022-12-22T11:36:58.574Z</time>
      </trkpt>
      <trkpt lat="45.6939" lon="-0.99382">
        <ele>47.578525</ele>
        <time>2022-12-22T11:37:01.576Z</time>
      </trkpt>
      <trkpt lat="45.69383" lon="-0.9939">
        <ele>47.547415</ele>
        <time>2022-12-22T11:37:04.572Z</time>
      </trkpt>
      <trkpt lat="45.69373" lon="-0.99399">
        <ele>47.499269</ele>
        <time>2022-12-22T11:37:08.575Z</time>
      </trkpt>
      <trkpt lat="45.69364" lon="-0.99408">
        <ele>47.455403</ele>
        <time>2022-12-22T11:37:12.570Z</time>
      </trkpt>
      <trkpt lat="45.69355" lon="-0.99418">
        <ele>47.405912</ele>
        <time>2022-12-22T11:37:16.574Z</time>
      </trkpt>
      <trkpt lat="45.69347" lon="-0.99425">
        <ele>47.367261</ele>
        <time>2022-12-22T11:37:19.574Z</time>
      </trkpt>
      <trkpt lat="45.69339" lon="-0.99432">
        <ele>47.32841</ele>
        <time>2022-12-22T11:37:22.569Z</time>
      </trkpt>
      <trkpt lat="45.69331" lon="-0.99439">
        <ele>47.287368</ele>
        <time>2022-12-22T11:37:25.573Z</time>
      </trkpt>
      <trkpt lat="45.69323" lon="-0.99447">
        <ele>47.247029</ele>
        <time>2022-12-22T11:37:28.576Z</time>
      </trkpt>
      <trkpt lat="45.69314" lon="-0.99454">
        <ele>47.206651</ele>
        <time>2022-12-22T11:37:31.577Z</time>
      </trkpt>
      <trkpt lat="45.69306" lon="-0.99462">
        <ele>47.165644</ele>
        <time>2022-12-22T11:37:34.574Z</time>
      </trkpt>
      <trkpt lat="45.69298" lon="-0.99469">
        <ele>47.12562</ele>
        <time>2022-12-22T11:37:37.551Z</time>
      </trkpt>
      <trkpt lat="45.69288" lon="-0.99477">
        <ele>47.076988</ele>
        <time>2022-12-22T11:37:41.576Z</time>
      </trkpt>
      <trkpt lat="45.69278" lon="-0.99486">
        <ele>47.02668</ele>
        <time>2022-12-22T11:37:45.623Z</time>
      </trkpt>
      <trkpt lat="45.6927" lon="-0.99493">
        <ele>46.987266</ele>
        <time>2022-12-22T11:37:48.553Z</time>
      </trkpt>
      <trkpt lat="45.69262" lon="-0.995">
        <ele>46.948925</ele>
        <time>2022-12-22T11:37:51.626Z</time>
      </trkpt>
      <trkpt lat="45.69254" lon="-0.99507">
        <ele>46.90936</ele>
        <time>2022-12-22T11:37:54.574Z</time>
      </trkpt>
      <trkpt lat="45.69246" lon="-0.99514">
        <ele>46.869644</ele>
        <time>2022-12-22T11:37:57.586Z</time>
      </trkpt>
      <trkpt lat="45.69237" lon="-0.99521">
        <ele>46.829069</ele>
        <time>2022-12-22T11:38:00.575Z</time>
      </trkpt>
      <trkpt lat="45.69229" lon="-0.99528">
        <ele>46.797129</ele>
        <time>2022-12-22T11:38:03.625Z</time>
      </trkpt>
      <trkpt lat="45.6922" lon="-0.99535">
        <ele>46.767861</ele>
        <time>2022-12-22T11:38:06.582Z</time>
      </trkpt>
      <trkpt lat="45.69211" lon="-0.99543">
        <ele>46.736053</ele>
        <time>2022-12-22T11:38:10.580Z</time>
      </trkpt>
      <trkpt lat="45.69201" lon="-0.99551">
        <ele>46.701135</ele>
        <time>2022-12-22T11:38:14.577Z</time>
      </trkpt>
      <trkpt lat="45.69193" lon="-0.99558">
        <ele>46.673013</ele>
        <time>2022-12-22T11:38:17.557Z</time>
      </trkpt>
      <trkpt lat="45.69184" lon="-0.99565">
        <ele>46.644424</ele>
        <time>2022-12-22T11:38:20.576Z</time>
      </trkpt>
      <trkpt lat="45.69176" lon="-0.99572">
        <ele>46.614953</ele>
        <time>2022-12-22T11:38:23.573Z</time>
      </trkpt>
      <trkpt lat="45.69167" lon="-0.99579">
        <ele>46.58474</ele>
        <time>2022-12-22T11:38:26.577Z</time>
      </trkpt>
      <trkpt lat="45.69159" lon="-0.99586">
        <ele>46.556347</ele>
        <time>2022-12-22T11:38:29.557Z</time>
      </trkpt>
      <trkpt lat="45.69151" lon="-0.99593">
        <ele>46.529154</ele>
        <time>2022-12-22T11:38:32.574Z</time>
      </trkpt>
      <trkpt lat="45.69142" lon="-0.99601">
        <ele>46.495584</ele>
        <time>2022-12-22T11:38:36.578Z</time>
      </trkpt>
      <trkpt lat="45.69132" lon="-0.9961">
        <ele>46.46187</ele>
        <time>2022-12-22T11:38:40.569Z</time>
      </trkpt>
      <trkpt lat="45.69122" lon="-0.99619">
        <ele>46.426051</ele>
        <time>2022-12-22T11:38:44.621Z</time>
      </trkpt>
      <trkpt lat="45.69114" lon="-0.99626">
        <ele>46.397464</ele>
        <time>2022-12-22T11:38:47.559Z</time>
      </trkpt>
      <trkpt lat="45.69105" lon="-0.99635">
        <ele>46.364843</ele>
        <time>2022-12-22T11:38:51.577Z</time>
      </trkpt>
      <trkpt lat="45.69096" lon="-0.99643">
        <ele>46.332664</ele>
        <time>2022-12-22T11:38:55.576Z</time>
      </trkpt>
      <trkpt lat="45.69086" lon="-0.99652">
        <ele>46.297606</ele>
        <time>2022-12-22T11:38:59.578Z</time>
      </trkpt>
      <trkpt lat="45.69076" lon="-0.99661">
        <ele>46.310397</ele>
        <time>2022-12-22T11:39:03.577Z</time>
      </trkpt>
      <trkpt lat="45.69068" lon="-0.99668">
        <ele>46.348904</ele>
        <time>2022-12-22T11:39:06.575Z</time>
      </trkpt>
      <trkpt lat="45.6906" lon="-0.99676">
        <ele>46.38859</ele>
        <time>2022-12-22T11:39:09.577Z</time>
      </trkpt>
      <trkpt lat="45.69052" lon="-0.99683">
        <ele>46.428276</ele>
        <time>2022-12-22T11:39:12.575Z</time>
      </trkpt>
      <trkpt lat="45.69044" lon="-0.99691">
        <ele>46.468656</ele>
        <time>2022-12-22T11:39:15.573Z</time>
      </trkpt>
      <trkpt lat="45.69036" lon="-0.99698">
        <ele>46.507041</ele>
        <time>2022-12-22T11:39:18.574Z</time>
      </trkpt>
      <trkpt lat="45.69028" lon="-0.99705">
        <ele>46.547657</ele>
        <time>2022-12-22T11:39:22.578Z</time>
      </trkpt>
      <trkpt lat="45.6902" lon="-0.99713">
        <ele>46.587182</ele>
        <time>2022-12-22T11:39:26.575Z</time>
      </trkpt>
      <trkpt lat="45.69011" lon="-0.99721">
        <ele>46.632679</ele>
        <time>2022-12-22T11:39:30.576Z</time>
      </trkpt>
      <trkpt lat="45.69001" lon="-0.9973">
        <ele>46.67983</ele>
        <time>2022-12-22T11:39:34.577Z</time>
      </trkpt>
      <trkpt lat="45.68992" lon="-0.99739">
        <ele>46.727128</ele>
        <time>2022-12-22T11:39:38.576Z</time>
      </trkpt>
      <trkpt lat="45.68983" lon="-0.99748">
        <ele>46.772823</ele>
        <time>2022-12-22T11:39:42.576Z</time>
      </trkpt>
      <trkpt lat="45.68975" lon="-0.99756">
        <ele>46.813036</ele>
        <time>2022-12-22T11:39:46.580Z</time>
      </trkpt>
      <trkpt lat="45.68969" lon="-0.99767">
        <ele>46.855446</ele>
        <time>2022-12-22T11:39:51.577Z</time>
      </trkpt>
      <trkpt lat="45.68953" lon="-0.99775">
        <ele>46.924048</ele>
        <time>2022-12-22T11:41:44.586Z</time>
      </trkpt>
      <trkpt lat="45.68945" lon="-0.99785">
        <ele>46.967386</ele>
        <time>2022-12-22T11:41:48.580Z</time>
      </trkpt>
      <trkpt lat="45.68937" lon="-0.99793">
        <ele>47.010446</ele>
        <time>2022-12-22T11:41:52.576Z</time>
      </trkpt>
      <trkpt lat="45.68929" lon="-0.998">
        <ele>47.210318</ele>
        <time>2022-12-22T11:41:56.573Z</time>
      </trkpt>
      <trkpt lat="45.6892" lon="-0.99809">
        <ele>47.638233</ele>
        <time>2022-12-22T11:42:01.578Z</time>
      </trkpt>
      <trkpt lat="45.68912" lon="-0.99816">
        <ele>48.028127</ele>
        <time>2022-12-22T11:42:06.580Z</time>
      </trkpt>
      <trkpt lat="45.68905" lon="-0.99824">
        <ele>48.427206</ele>
        <time>2022-12-22T11:42:11.584Z</time>
      </trkpt>
      <trkpt lat="45.68897" lon="-0.99831">
        <ele>48.807571</ele>
        <time>2022-12-22T11:42:16.579Z</time>
      </trkpt>
      <trkpt lat="45.68889" lon="-0.99838">
        <ele>49.196588</ele>
        <time>2022-12-22T11:42:21.629Z</time>
      </trkpt>
      <trkpt lat="45.68881" lon="-0.99845">
        <ele>49.595098</ele>
        <time>2022-12-22T11:42:26.579Z</time>
      </trkpt>
      <trkpt lat="45.68872" lon="-0.99851">
        <ele>49.983474</ele>
        <time>2022-12-22T11:42:31.574Z</time>
      </trkpt>
      <trkpt lat="45.68864" lon="-0.99857">
        <ele>50.373848</ele>
        <time>2022-12-22T11:42:36.576Z</time>
      </trkpt>
      <trkpt lat="45.68855" lon="-0.99864">
        <ele>50.808106</ele>
        <time>2022-12-22T11:42:42.575Z</time>
      </trkpt>
      <trkpt lat="45.68846" lon="-0.9987">
        <ele>51.227294</ele>
        <time>2022-12-22T11:42:47.568Z</time>
      </trkpt>
      <trkpt lat="45.68836" lon="-0.99876">
        <ele>51.650301</ele>
        <time>2022-12-22T11:42:52.578Z</time>
      </trkpt>
      <trkpt lat="45.68826" lon="-0.99882">
        <ele>52.105446</ele>
        <time>2022-12-22T11:42:57.566Z</time>
      </trkpt>
      <trkpt lat="45.68816" lon="-0.99888">
        <ele>52.549593</ele>
        <time>2022-12-22T11:43:02.576Z</time>
      </trkpt>
      <trkpt lat="45.68805" lon="-0.99892">
        <ele>53.020535</ele>
        <time>2022-12-22T11:43:07.597Z</time>
      </trkpt>
      <trkpt lat="45.68795" lon="-0.99896">
        <ele>53.481147</ele>
        <time>2022-12-22T11:43:11.592Z</time>
      </trkpt>
      <trkpt lat="45.68785" lon="-0.99901">
        <ele>53.918507</ele>
        <time>2022-12-22T11:43:15.578Z</time>
      </trkpt>
      <trkpt lat="45.68774" lon="-0.99904">
        <ele>54.378346</ele>
        <time>2022-12-22T11:43:19.564Z</time>
      </trkpt>
      <trkpt lat="45.68763" lon="-0.99907">
        <ele>54.547325</ele>
        <time>2022-12-22T11:43:23.578Z</time>
      </trkpt>
      <trkpt lat="45.68752" lon="-0.99909">
        <ele>54.598041</ele>
        <time>2022-12-22T11:43:27.556Z</time>
      </trkpt>
      <trkpt lat="45.68742" lon="-0.9991">
        <ele>54.639442</ele>
        <time>2022-12-22T11:43:30.583Z</time>
      </trkpt>
      <trkpt lat="45.68733" lon="-0.9991">
        <ele>54.680399</ele>
        <time>2022-12-22T11:43:33.576Z</time>
      </trkpt>
      <trkpt lat="45.68724" lon="-0.99911">
        <ele>54.721431</ele>
        <time>2022-12-22T11:43:36.578Z</time>
      </trkpt>
      <trkpt lat="45.68712" lon="-0.99913">
        <ele>54.773575</ele>
        <time>2022-12-22T11:43:40.628Z</time>
      </trkpt>
      <trkpt lat="45.68701" lon="-0.99912">
        <ele>54.824733</ele>
        <time>2022-12-22T11:43:44.578Z</time>
      </trkpt>
      <trkpt lat="45.68691" lon="-0.99911">
        <ele>54.866233</ele>
        <time>2022-12-22T11:43:47.565Z</time>
      </trkpt>
      <trkpt lat="45.68682" lon="-0.9991">
        <ele>54.906761</ele>
        <time>2022-12-22T11:43:50.578Z</time>
      </trkpt>
      <trkpt lat="45.68672" lon="-0.99909">
        <ele>54.950454</ele>
        <time>2022-12-22T11:43:53.583Z</time>
      </trkpt>
      <trkpt lat="45.68663" lon="-0.99908">
        <ele>54.994639</ele>
        <time>2022-12-22T11:43:56.561Z</time>
      </trkpt>
      <trkpt lat="45.68653" lon="-0.99906">
        <ele>55.037926</ele>
        <time>2022-12-22T11:43:59.556Z</time>
      </trkpt>
      <trkpt lat="45.68643" lon="-0.99904">
        <ele>55.082481</ele>
        <time>2022-12-22T11:44:02.552Z</time>
      </trkpt>
      <trkpt lat="45.68633" lon="-0.99901">
        <ele>55.126863</ele>
        <time>2022-12-22T11:44:05.577Z</time>
      </trkpt>
      <trkpt lat="45.68623" lon="-0.99898">
        <ele>55.172301</ele>
        <time>2022-12-22T11:44:08.558Z</time>
      </trkpt>
      <trkpt lat="45.68613" lon="-0.99895">
        <ele>55.217804</ele>
        <time>2022-12-22T11:44:11.556Z</time>
      </trkpt>
      <trkpt lat="45.68604" lon="-0.99892">
        <ele>55.260847</ele>
        <time>2022-12-22T11:44:14.572Z</time>
      </trkpt>
      <trkpt lat="45.68594" lon="-0.99888">
        <ele>55.304754</ele>
        <time>2022-12-22T11:44:17.561Z</time>
      </trkpt>
      <trkpt lat="45.68584" lon="-0.99885">
        <ele>55.341263</ele>
        <time>2022-12-22T11:44:20.573Z</time>
      </trkpt>
      <trkpt lat="45.68575" lon="-0.99882">
        <ele>55.375745</ele>
        <time>2022-12-22T11:44:23.578Z</time>
      </trkpt>
      <trkpt lat="45.68565" lon="-0.99879">
        <ele>55.410956</ele>
        <time>2022-12-22T11:44:26.578Z</time>
      </trkpt>
      <trkpt lat="45.68555" lon="-0.99875">
        <ele>55.446115</ele>
        <time>2022-12-22T11:44:29.558Z</time>
      </trkpt>
      <trkpt lat="45.68545" lon="-0.99872">
        <ele>55.482004</ele>
        <time>2022-12-22T11:44:32.627Z</time>
      </trkpt>
      <trkpt lat="45.68535" lon="-0.9987">
        <ele>55.517866</ele>
        <time>2022-12-22T11:44:35.559Z</time>
      </trkpt>
      <trkpt lat="45.68524" lon="-0.99868">
        <ele>55.553928</ele>
        <time>2022-12-22T11:44:38.648Z</time>
      </trkpt>
      <trkpt lat="45.68514" lon="-0.99866">
        <ele>55.590217</ele>
        <time>2022-12-22T11:44:41.575Z</time>
      </trkpt>
      <trkpt lat="45.68503" lon="-0.99864">
        <ele>55.62745</ele>
        <time>2022-12-22T11:44:44.626Z</time>
      </trkpt>
      <trkpt lat="45.68492" lon="-0.9986">
        <ele>55.666153</ele>
        <time>2022-12-22T11:44:47.549Z</time>
      </trkpt>
      <trkpt lat="45.68482" lon="-0.99857">
        <ele>55.702881</ele>
        <time>2022-12-22T11:44:50.572Z</time>
      </trkpt>
      <trkpt lat="45.68472" lon="-0.99854">
        <ele>55.7393</ele>
        <time>2022-12-22T11:44:53.576Z</time>
      </trkpt>
      <trkpt lat="45.68458" lon="-0.99851">
        <ele>55.789064</ele>
        <time>2022-12-22T11:44:57.561Z</time>
      </trkpt>
      <trkpt lat="45.68447" lon="-0.99848">
        <ele>55.827826</ele>
        <time>2022-12-22T11:45:00.572Z</time>
      </trkpt>
      <trkpt lat="45.68436" lon="-0.99845">
        <ele>55.867016</ele>
        <time>2022-12-22T11:45:03.579Z</time>
      </trkpt>
      <trkpt lat="45.68425" lon="-0.99843">
        <ele>55.904898</ele>
        <time>2022-12-22T11:45:06.567Z</time>
      </trkpt>
      <trkpt lat="45.68414" lon="-0.99841">
        <ele>55.93433</ele>
        <time>2022-12-22T11:45:09.576Z</time>
      </trkpt>
      <trkpt lat="45.68405" lon="-0.9984">
        <ele>55.925099</ele>
        <time>2022-12-22T11:45:12.573Z</time>
      </trkpt>
      <trkpt lat="45.68395" lon="-0.99843">
        <ele>55.916233</ele>
        <time>2022-12-22T11:45:15.579Z</time>
      </trkpt>
      <trkpt lat="45.68388" lon="-0.99851">
        <ele>55.907812</ele>
        <time>2022-12-22T11:45:18.567Z</time>
      </trkpt>
      <trkpt lat="45.68384" lon="-0.99862">
        <ele>55.89943</ele>
        <time>2022-12-22T11:45:21.578Z</time>
      </trkpt>
      <trkpt lat="45.68378" lon="-0.99873">
        <ele>55.890858</ele>
        <time>2022-12-22T11:45:24.576Z</time>
      </trkpt>
      <trkpt lat="45.68369" lon="-0.99882">
        <ele>55.880259</ele>
        <time>2022-12-22T11:45:28.559Z</time>
      </trkpt>
      <trkpt lat="45.68357" lon="-0.99884">
        <ele>55.869227</ele>
        <time>2022-12-22T11:45:32.565Z</time>
      </trkpt>
      <trkpt lat="45.68348" lon="-0.99879">
        <ele>55.860452</ele>
        <time>2022-12-22T11:45:35.581Z</time>
      </trkpt>
      <trkpt lat="45.6834" lon="-0.99872">
        <ele>55.851292</ele>
        <time>2022-12-22T11:45:38.577Z</time>
      </trkpt>
      <trkpt lat="45.68332" lon="-0.99863">
        <ele>55.841728</ele>
        <time>2022-12-22T11:45:41.582Z</time>
      </trkpt>
      <trkpt lat="45.68322" lon="-0.99855">
        <ele>55.831867</ele>
        <time>2022-12-22T11:45:44.578Z</time>
      </trkpt>
      <trkpt lat="45.68312" lon="-0.9985">
        <ele>55.821659</ele>
        <time>2022-12-22T11:45:47.569Z</time>
      </trkpt>
      <trkpt lat="45.68301" lon="-0.99848">
        <ele>55.811729</ele>
        <time>2022-12-22T11:45:50.577Z</time>
      </trkpt>
      <trkpt lat="45.6829" lon="-0.99845">
        <ele>55.801219</ele>
        <time>2022-12-22T11:45:53.578Z</time>
      </trkpt>
      <trkpt lat="45.6828" lon="-0.99843">
        <ele>55.791262</ele>
        <time>2022-12-22T11:45:56.576Z</time>
      </trkpt>
      <trkpt lat="45.68269" lon="-0.99842">
        <ele>55.781093</ele>
        <time>2022-12-22T11:45:59.639Z</time>
      </trkpt>
      <trkpt lat="45.68258" lon="-0.99841">
        <ele>55.77074</ele>
        <time>2022-12-22T11:46:02.578Z</time>
      </trkpt>
      <trkpt lat="45.68246" lon="-0.9984">
        <ele>55.697787</ele>
        <time>2022-12-22T11:46:05.630Z</time>
      </trkpt>
      <trkpt lat="45.68235" lon="-0.9984">
        <ele>55.607876</ele>
        <time>2022-12-22T11:46:08.577Z</time>
      </trkpt>
      <trkpt lat="45.68224" lon="-0.9984">
        <ele>55.517981</ele>
        <time>2022-12-22T11:46:11.557Z</time>
      </trkpt>
      <trkpt lat="45.68212" lon="-0.9984">
        <ele>55.428058</ele>
        <time>2022-12-22T11:46:14.578Z</time>
      </trkpt>
      <trkpt lat="45.68201" lon="-0.99841">
        <ele>55.334171</ele>
        <time>2022-12-22T11:46:17.566Z</time>
      </trkpt>
      <trkpt lat="45.68189" lon="-0.99841">
        <ele>55.242658</ele>
        <time>2022-12-22T11:46:20.580Z</time>
      </trkpt>
      <trkpt lat="45.68178" lon="-0.99841">
        <ele>55.153543</ele>
        <time>2022-12-22T11:46:23.561Z</time>
      </trkpt>
      <trkpt lat="45.68167" lon="-0.99842">
        <ele>55.063632</ele>
        <time>2022-12-22T11:46:26.552Z</time>
      </trkpt>
      <trkpt lat="45.68155" lon="-0.99842">
        <ele>54.970513</ele>
        <time>2022-12-22T11:46:29.576Z</time>
      </trkpt>
      <trkpt lat="45.68143" lon="-0.99842">
        <ele>54.875024</ele>
        <time>2022-12-22T11:46:32.577Z</time>
      </trkpt>
      <trkpt lat="45.68132" lon="-0.99843">
        <ele>54.78429</ele>
        <time>2022-12-22T11:46:35.580Z</time>
      </trkpt>
      <trkpt lat="45.68121" lon="-0.99844">
        <ele>54.698308</ele>
        <time>2022-12-22T11:46:38.640Z</time>
      </trkpt>
      <trkpt lat="45.68109" lon="-0.99844">
        <ele>54.606739</ele>
        <time>2022-12-22T11:46:41.576Z</time>
      </trkpt>
      <trkpt lat="45.68097" lon="-0.99845">
        <ele>54.508079</ele>
        <time>2022-12-22T11:46:44.573Z</time>
      </trkpt>
      <trkpt lat="45.68085" lon="-0.99845">
        <ele>54.410229</ele>
        <time>2022-12-22T11:46:47.562Z</time>
      </trkpt>
      <trkpt lat="45.68073" lon="-0.99845">
        <ele>54.32953</ele>
        <time>2022-12-22T11:46:50.581Z</time>
      </trkpt>
      <trkpt lat="45.6806" lon="-0.99845">
        <ele>54.294712</ele>
        <time>2022-12-22T11:46:53.565Z</time>
      </trkpt>
      <trkpt lat="45.68048" lon="-0.99845">
        <ele>54.260456</ele>
        <time>2022-12-22T11:46:56.579Z</time>
      </trkpt>
      <trkpt lat="45.68036" lon="-0.99845">
        <ele>54.225635</ele>
        <time>2022-12-22T11:46:59.590Z</time>
      </trkpt>
      <trkpt lat="45.68023" lon="-0.99845">
        <ele>54.190258</ele>
        <time>2022-12-22T11:47:02.576Z</time>
      </trkpt>
      <trkpt lat="45.6801" lon="-0.99846">
        <ele>54.155153</ele>
        <time>2022-12-22T11:47:05.560Z</time>
      </trkpt>
      <trkpt lat="45.67997" lon="-0.99846">
        <ele>54.118364</ele>
        <time>2022-12-22T11:47:08.639Z</time>
      </trkpt>
      <trkpt lat="45.67984" lon="-0.99846">
        <ele>54.081019</ele>
        <time>2022-12-22T11:47:11.580Z</time>
      </trkpt>
      <trkpt lat="45.67975" lon="-0.99846">
        <ele>54.054896</ele>
        <time>2022-12-22T11:47:13.580Z</time>
      </trkpt>
      <trkpt lat="45.67961" lon="-0.99846">
        <ele>54.01699</ele>
        <time>2022-12-22T11:47:16.558Z</time>
      </trkpt>
      <trkpt lat="45.67948" lon="-0.99847">
        <ele>53.979354</ele>
        <time>2022-12-22T11:47:19.634Z</time>
      </trkpt>
      <trkpt lat="45.67939" lon="-0.99847">
        <ele>53.954085</ele>
        <time>2022-12-22T11:47:21.571Z</time>
      </trkpt>
      <trkpt lat="45.67925" lon="-0.99846">
        <ele>53.916443</ele>
        <time>2022-12-22T11:47:24.579Z</time>
      </trkpt>
      <trkpt lat="45.67912" lon="-0.99846">
        <ele>53.878818</ele>
        <time>2022-12-22T11:47:27.568Z</time>
      </trkpt>
      <trkpt lat="45.67899" lon="-0.99845">
        <ele>53.841463</ele>
        <time>2022-12-22T11:47:30.578Z</time>
      </trkpt>
      <trkpt lat="45.67887" lon="-0.99846">
        <ele>53.903886</ele>
        <time>2022-12-22T11:47:33.578Z</time>
      </trkpt>
      <trkpt lat="45.67875" lon="-0.99845">
        <ele>54.005147</ele>
        <time>2022-12-22T11:47:36.574Z</time>
      </trkpt>
      <trkpt lat="45.67863" lon="-0.99846">
        <ele>54.109809</ele>
        <time>2022-12-22T11:47:39.561Z</time>
      </trkpt>
      <trkpt lat="45.6785" lon="-0.99846">
        <ele>54.216975</ele>
        <time>2022-12-22T11:47:42.581Z</time>
      </trkpt>
      <trkpt lat="45.67838" lon="-0.99846">
        <ele>54.321624</ele>
        <time>2022-12-22T11:47:45.579Z</time>
      </trkpt>
      <trkpt lat="45.67825" lon="-0.99847">
        <ele>54.42811</ele>
        <time>2022-12-22T11:47:48.588Z</time>
      </trkpt>
      <trkpt lat="45.67812" lon="-0.99847">
        <ele>54.536134</ele>
        <time>2022-12-22T11:47:51.578Z</time>
      </trkpt>
      <trkpt lat="45.678" lon="-0.99848">
        <ele>54.643315</ele>
        <time>2022-12-22T11:47:54.578Z</time>
      </trkpt>
      <trkpt lat="45.67788" lon="-0.99848">
        <ele>54.738684</ele>
        <time>2022-12-22T11:47:57.560Z</time>
      </trkpt>
      <trkpt lat="45.67779" lon="-0.99849">
        <ele>54.820893</ele>
        <time>2022-12-22T11:48:00.582Z</time>
      </trkpt>
      <trkpt lat="45.67769" lon="-0.99852">
        <ele>54.900532</ele>
        <time>2022-12-22T11:48:03.558Z</time>
      </trkpt>
      <trkpt lat="45.67759" lon="-0.99854">
        <ele>54.989995</ele>
        <time>2022-12-22T11:48:06.573Z</time>
      </trkpt>
      <trkpt lat="45.67748" lon="-0.99856">
        <ele>55.085003</ele>
        <time>2022-12-22T11:48:09.593Z</time>
      </trkpt>
      <trkpt lat="45.67736" lon="-0.99859">
        <ele>55.184914</ele>
        <time>2022-12-22T11:48:12.628Z</time>
      </trkpt>
      <trkpt lat="45.67725" lon="-0.99862">
        <ele>55.282233</ele>
        <time>2022-12-22T11:48:15.575Z</time>
      </trkpt>
      <trkpt lat="45.67714" lon="-0.99864">
        <ele>55.340227</ele>
        <time>2022-12-22T11:48:18.567Z</time>
      </trkpt>
      <trkpt lat="45.67705" lon="-0.99866">
        <ele>55.30342</ele>
        <time>2022-12-22T11:48:21.576Z</time>
      </trkpt>
      <trkpt lat="45.67694" lon="-0.99866">
        <ele>55.257953</ele>
        <time>2022-12-22T11:48:25.571Z</time>
      </trkpt>
      <trkpt lat="45.67684" lon="-0.99866">
        <ele>55.221234</ele>
        <time>2022-12-22T11:48:28.577Z</time>
      </trkpt>
      <trkpt lat="45.67675" lon="-0.99867">
        <ele>55.184873</ele>
        <time>2022-12-22T11:48:31.579Z</time>
      </trkpt>
      <trkpt lat="45.67663" lon="-0.99868">
        <ele>55.136479</ele>
        <time>2022-12-22T11:48:35.570Z</time>
      </trkpt>
      <trkpt lat="45.67654" lon="-0.99869">
        <ele>55.098964</ele>
        <time>2022-12-22T11:48:38.583Z</time>
      </trkpt>
      <trkpt lat="45.67645" lon="-0.9987">
        <ele>55.062827</ele>
        <time>2022-12-22T11:48:41.581Z</time>
      </trkpt>
      <trkpt lat="45.67635" lon="-0.99874">
        <ele>55.022286</ele>
        <time>2022-12-22T11:48:45.580Z</time>
      </trkpt>
      <trkpt lat="45.67625" lon="-0.99879">
        <ele>54.981261</ele>
        <time>2022-12-22T11:48:49.578Z</time>
      </trkpt>
      <trkpt lat="45.67616" lon="-0.99877">
        <ele>54.94439</ele>
        <time>2022-12-22T11:48:52.639Z</time>
      </trkpt>
      <trkpt lat="45.67608" lon="-0.99871">
        <ele>54.907423</ele>
        <time>2022-12-22T11:48:56.576Z</time>
      </trkpt>
      <trkpt lat="45.67599" lon="-0.99863">
        <ele>54.867153</ele>
        <time>2022-12-22T11:49:00.578Z</time>
      </trkpt>
      <trkpt lat="45.67588" lon="-0.99863">
        <ele>54.822085</ele>
        <time>2022-12-22T11:49:04.626Z</time>
      </trkpt>
      <trkpt lat="45.67576" lon="-0.99867">
        <ele>54.773458</ele>
        <time>2022-12-22T11:49:08.579Z</time>
      </trkpt>
      <trkpt lat="45.67567" lon="-0.9987">
        <ele>54.735107</ele>
        <time>2022-12-22T11:49:11.562Z</time>
      </trkpt>
      <trkpt lat="45.67557" lon="-0.99873">
        <ele>54.695731</ele>
        <time>2022-12-22T11:49:14.575Z</time>
      </trkpt>
      <trkpt lat="45.67547" lon="-0.99875">
        <ele>54.655637</ele>
        <time>2022-12-22T11:49:17.559Z</time>
      </trkpt>
      <trkpt lat="45.67537" lon="-0.99878">
        <ele>54.650745</ele>
        <time>2022-12-22T11:49:20.581Z</time>
      </trkpt>
      <trkpt lat="45.67527" lon="-0.99881">
        <ele>54.690158</ele>
        <time>2022-12-22T11:49:23.565Z</time>
      </trkpt>
      <trkpt lat="45.67517" lon="-0.99884">
        <ele>54.728021</ele>
        <time>2022-12-22T11:49:26.558Z</time>
      </trkpt>
      <trkpt lat="45.67508" lon="-0.99888">
        <ele>54.765286</ele>
        <time>2022-12-22T11:49:29.562Z</time>
      </trkpt>
      <trkpt lat="45.67498" lon="-0.99892">
        <ele>54.803085</ele>
        <time>2022-12-22T11:49:32.569Z</time>
      </trkpt>
      <trkpt lat="45.67488" lon="-0.99895">
        <ele>54.841559</ele>
        <time>2022-12-22T11:49:35.577Z</time>
      </trkpt>
      <trkpt lat="45.67479" lon="-0.99898">
        <ele>54.878688</ele>
        <time>2022-12-22T11:49:38.577Z</time>
      </trkpt>
      <trkpt lat="45.67469" lon="-0.99902">
        <ele>54.916169</ele>
        <time>2022-12-22T11:49:41.577Z</time>
      </trkpt>
      <trkpt lat="45.6746" lon="-0.99906">
        <ele>54.953363</ele>
        <time>2022-12-22T11:49:44.579Z</time>
      </trkpt>
      <trkpt lat="45.67449" lon="-0.9991">
        <ele>54.997055</ele>
        <time>2022-12-22T11:49:48.577Z</time>
      </trkpt>
      <trkpt lat="45.67439" lon="-0.99915">
        <ele>55.036791</ele>
        <time>2022-12-22T11:49:52.638Z</time>
      </trkpt>
      <trkpt lat="45.67428" lon="-0.9992">
        <ele>55.08068</ele>
        <time>2022-12-22T11:49:56.573Z</time>
      </trkpt>
      <trkpt lat="45.67417" lon="-0.99925">
        <ele>55.124085</ele>
        <time>2022-12-22T11:50:00.578Z</time>
      </trkpt>
      <trkpt lat="45.67405" lon="-0.99931">
        <ele>55.169093</ele>
        <time>2022-12-22T11:50:04.578Z</time>
      </trkpt>
      <trkpt lat="45.67397" lon="-0.99935">
        <ele>55.203573</ele>
        <time>2022-12-22T11:50:07.563Z</time>
      </trkpt>
      <trkpt lat="45.67388" lon="-0.99939">
        <ele>55.23841</ele>
        <time>2022-12-22T11:50:10.565Z</time>
      </trkpt>
      <trkpt lat="45.67377" lon="-0.99945">
        <ele>55.283768</ele>
        <time>2022-12-22T11:50:14.576Z</time>
      </trkpt>
      <trkpt lat="45.67368" lon="-0.9995">
        <ele>55.33721</ele>
        <time>2022-12-22T11:50:17.560Z</time>
      </trkpt>
      <trkpt lat="45.67358" lon="-0.99957">
        <ele>55.584635</ele>
        <time>2022-12-22T11:50:21.637Z</time>
      </trkpt>
      <trkpt lat="45.67349" lon="-0.99962">
        <ele>55.802632</ele>
        <time>2022-12-22T11:50:25.576Z</time>
      </trkpt>
      <trkpt lat="45.67339" lon="-0.99968">
        <ele>56.027346</ele>
        <time>2022-12-22T11:50:29.576Z</time>
      </trkpt>
      <trkpt lat="45.6733" lon="-0.99974">
        <ele>56.248863</ele>
        <time>2022-12-22T11:50:33.577Z</time>
      </trkpt>
      <trkpt lat="45.6732" lon="-0.99981">
        <ele>56.487202</ele>
        <time>2022-12-22T11:50:37.559Z</time>
      </trkpt>
      <trkpt lat="45.67309" lon="-0.99987">
        <ele>56.731662</ele>
        <time>2022-12-22T11:50:41.573Z</time>
      </trkpt>
      <trkpt lat="45.67299" lon="-0.99994">
        <ele>56.981597</ele>
        <time>2022-12-22T11:50:45.581Z</time>
      </trkpt>
      <trkpt lat="45.6729" lon="-1">
        <ele>57.177206</ele>
        <time>2022-12-22T11:50:48.563Z</time>
      </trkpt>
      <trkpt lat="45.67282" lon="-1.00006">
        <ele>57.372137</ele>
        <time>2022-12-22T11:50:51.562Z</time>
      </trkpt>
      <trkpt lat="45.67274" lon="-1.00012">
        <ele>57.575456</ele>
        <time>2022-12-22T11:50:54.575Z</time>
      </trkpt>
      <trkpt lat="45.67266" lon="-1.00018">
        <ele>57.775584</ele>
        <time>2022-12-22T11:50:57.563Z</time>
      </trkpt>
      <trkpt lat="45.67257" lon="-1.00024">
        <ele>57.979564</ele>
        <time>2022-12-22T11:51:00.581Z</time>
      </trkpt>
      <trkpt lat="45.67248" lon="-1.00031">
        <ele>58.19552</ele>
        <time>2022-12-22T11:51:03.580Z</time>
      </trkpt>
      <trkpt lat="45.6724" lon="-1.00038">
        <ele>58.409592</ele>
        <time>2022-12-22T11:51:06.577Z</time>
      </trkpt>
      <trkpt lat="45.6723" lon="-1.00045">
        <ele>58.647926</ele>
        <time>2022-12-22T11:51:10.578Z</time>
      </trkpt>
      <trkpt lat="45.67222" lon="-1.00052">
        <ele>58.845563</ele>
        <time>2022-12-22T11:51:13.567Z</time>
      </trkpt>
      <trkpt lat="45.67213" lon="-1.00059">
        <ele>59.059998</ele>
        <time>2022-12-22T11:51:16.574Z</time>
      </trkpt>
      <trkpt lat="45.67205" lon="-1.00067">
        <ele>59.143365</ele>
        <time>2022-12-22T11:51:19.579Z</time>
      </trkpt>
      <trkpt lat="45.67196" lon="-1.00073">
        <ele>59.049818</ele>
        <time>2022-12-22T11:51:22.580Z</time>
      </trkpt>
      <trkpt lat="45.67188" lon="-1.0008">
        <ele>58.956756</ele>
        <time>2022-12-22T11:51:25.579Z</time>
      </trkpt>
      <trkpt lat="45.6718" lon="-1.00087">
        <ele>58.864394</ele>
        <time>2022-12-22T11:51:28.580Z</time>
      </trkpt>
      <trkpt lat="45.67172" lon="-1.00095">
        <ele>58.770154</ele>
        <time>2022-12-22T11:51:31.582Z</time>
      </trkpt>
      <trkpt lat="45.67163" lon="-1.00102">
        <ele>58.671556</ele>
        <time>2022-12-22T11:51:34.577Z</time>
      </trkpt>
      <trkpt lat="45.67154" lon="-1.0011">
        <ele>58.571964</ele>
        <time>2022-12-22T11:51:37.558Z</time>
      </trkpt>
      <trkpt lat="45.67146" lon="-1.00119">
        <ele>58.471655</ele>
        <time>2022-12-22T11:51:40.578Z</time>
      </trkpt>
      <trkpt lat="45.67138" lon="-1.00126">
        <ele>58.384129</ele>
        <time>2022-12-22T11:51:43.564Z</time>
      </trkpt>
      <trkpt lat="45.67128" lon="-1.00136">
        <ele>58.26573</ele>
        <time>2022-12-22T11:51:47.561Z</time>
      </trkpt>
      <trkpt lat="45.6712" lon="-1.00144">
        <ele>58.169347</ele>
        <time>2022-12-22T11:51:50.578Z</time>
      </trkpt>
      <trkpt lat="45.67112" lon="-1.00152">
        <ele>58.07337</ele>
        <time>2022-12-22T11:51:53.586Z</time>
      </trkpt>
      <trkpt lat="45.67102" lon="-1.00162">
        <ele>57.961259</ele>
        <time>2022-12-22T11:51:57.555Z</time>
      </trkpt>
      <trkpt lat="45.67094" lon="-1.00172">
        <ele>57.856739</ele>
        <time>2022-12-22T11:52:01.562Z</time>
      </trkpt>
      <trkpt lat="45.67086" lon="-1.0018">
        <ele>57.764667</ele>
        <time>2022-12-22T11:52:04.578Z</time>
      </trkpt>
      <trkpt lat="45.67078" lon="-1.00188">
        <ele>57.667504</ele>
        <time>2022-12-22T11:52:07.562Z</time>
      </trkpt>
      <trkpt lat="45.6707" lon="-1.00197">
        <ele>57.568226</ele>
        <time>2022-12-22T11:52:10.572Z</time>
      </trkpt>
      <trkpt lat="45.67063" lon="-1.00207">
        <ele>57.469439</ele>
        <time>2022-12-22T11:52:13.582Z</time>
      </trkpt>
      <trkpt lat="45.67054" lon="-1.00216">
        <ele>57.403631</ele>
        <time>2022-12-22T11:52:16.556Z</time>
      </trkpt>
      <trkpt lat="45.67047" lon="-1.00226">
        <ele>57.349315</ele>
        <time>2022-12-22T11:52:19.577Z</time>
      </trkpt>
      <trkpt lat="45.67039" lon="-1.00236">
        <ele>57.294151</ele>
        <time>2022-12-22T11:52:22.577Z</time>
      </trkpt>
      <trkpt lat="45.67031" lon="-1.00246">
        <ele>57.2387</ele>
        <time>2022-12-22T11:52:25.564Z</time>
      </trkpt>
      <trkpt lat="45.67024" lon="-1.00256">
        <ele>57.182502</ele>
        <time>2022-12-22T11:52:28.570Z</time>
      </trkpt>
      <trkpt lat="45.67016" lon="-1.00266">
        <ele>57.126573</ele>
        <time>2022-12-22T11:52:31.577Z</time>
      </trkpt>
      <trkpt lat="45.67008" lon="-1.00277">
        <ele>57.069488</ele>
        <time>2022-12-22T11:52:34.576Z</time>
      </trkpt>
      <trkpt lat="45.67" lon="-1.00288">
        <ele>57.011635</ele>
        <time>2022-12-22T11:52:37.561Z</time>
      </trkpt>
      <trkpt lat="45.66992" lon="-1.00299">
        <ele>56.95211</ele>
        <time>2022-12-22T11:52:40.577Z</time>
      </trkpt>
      <trkpt lat="45.66985" lon="-1.00311">
        <ele>56.892104</ele>
        <time>2022-12-22T11:52:43.578Z</time>
      </trkpt>
      <trkpt lat="45.66977" lon="-1.00322">
        <ele>56.832273</ele>
        <time>2022-12-22T11:52:46.581Z</time>
      </trkpt>
      <trkpt lat="45.66969" lon="-1.00334">
        <ele>56.772629</ele>
        <time>2022-12-22T11:52:49.577Z</time>
      </trkpt>
      <trkpt lat="45.66962" lon="-1.00346">
        <ele>56.713801</ele>
        <time>2022-12-22T11:52:52.579Z</time>
      </trkpt>
      <trkpt lat="45.66954" lon="-1.00357">
        <ele>56.656964</ele>
        <time>2022-12-22T11:52:55.578Z</time>
      </trkpt>
      <trkpt lat="45.66948" lon="-1.00366">
        <ele>56.609013</ele>
        <time>2022-12-22T11:52:58.581Z</time>
      </trkpt>
      <trkpt lat="45.6694" lon="-1.0038">
        <ele>56.543853</ele>
        <time>2022-12-22T11:53:02.578Z</time>
      </trkpt>
      <trkpt lat="45.66934" lon="-1.00391">
        <ele>56.489168</ele>
        <time>2022-12-22T11:53:05.649Z</time>
      </trkpt>
      <trkpt lat="45.66927" lon="-1.00403">
        <ele>56.641332</ele>
        <time>2022-12-22T11:53:08.578Z</time>
      </trkpt>
      <trkpt lat="45.66921" lon="-1.00414">
        <ele>56.797138</ele>
        <time>2022-12-22T11:53:11.638Z</time>
      </trkpt>
      <trkpt lat="45.66915" lon="-1.00426">
        <ele>56.950715</ele>
        <time>2022-12-22T11:53:14.580Z</time>
      </trkpt>
      <trkpt lat="45.66908" lon="-1.00438">
        <ele>57.10881</ele>
        <time>2022-12-22T11:53:17.556Z</time>
      </trkpt>
      <trkpt lat="45.66902" lon="-1.0045">
        <ele>57.263427</ele>
        <time>2022-12-22T11:53:20.578Z</time>
      </trkpt>
      <trkpt lat="45.66896" lon="-1.00461">
        <ele>57.412016</ele>
        <time>2022-12-22T11:53:23.573Z</time>
      </trkpt>
      <trkpt lat="45.6689" lon="-1.00472">
        <ele>57.547649</ele>
        <time>2022-12-22T11:53:26.577Z</time>
      </trkpt>
      <trkpt lat="45.66885" lon="-1.00482">
        <ele>57.683282</ele>
        <time>2022-12-22T11:53:29.579Z</time>
      </trkpt>
      <trkpt lat="45.66879" lon="-1.00493">
        <ele>57.824121</ele>
        <time>2022-12-22T11:53:32.576Z</time>
      </trkpt>
      <trkpt lat="45.66874" lon="-1.00504">
        <ele>57.963161</ele>
        <time>2022-12-22T11:53:35.576Z</time>
      </trkpt>
      <trkpt lat="45.66869" lon="-1.00515">
        <ele>58.1005</ele>
        <time>2022-12-22T11:53:38.566Z</time>
      </trkpt>
      <trkpt lat="45.66863" lon="-1.00526">
        <ele>58.240428</ele>
        <time>2022-12-22T11:53:41.581Z</time>
      </trkpt>
      <trkpt lat="45.66858" lon="-1.00537">
        <ele>58.37607</ele>
        <time>2022-12-22T11:53:44.576Z</time>
      </trkpt>
      <trkpt lat="45.66852" lon="-1.0055">
        <ele>58.54249</ele>
        <time>2022-12-22T11:53:48.583Z</time>
      </trkpt>
      <trkpt lat="45.66846" lon="-1.00564">
        <ele>58.705547</ele>
        <time>2022-12-22T11:53:52.637Z</time>
      </trkpt>
      <trkpt lat="45.66841" lon="-1.00574">
        <ele>58.842029</ele>
        <time>2022-12-22T11:53:55.579Z</time>
      </trkpt>
      <trkpt lat="45.66836" lon="-1.00586">
        <ele>58.986208</ele>
        <time>2022-12-22T11:53:58.639Z</time>
      </trkpt>
      <trkpt lat="45.6683" lon="-1.00598">
        <ele>59.132989</ele>
        <time>2022-12-22T11:54:01.580Z</time>
      </trkpt>
      <trkpt lat="45.66825" lon="-1.00609">
        <ele>59.161184</ele>
        <time>2022-12-22T11:54:04.574Z</time>
      </trkpt>
      <trkpt lat="45.66819" lon="-1.00621">
        <ele>59.153891</ele>
        <time>2022-12-22T11:54:07.564Z</time>
      </trkpt>
      <trkpt lat="45.66814" lon="-1.00634">
        <ele>59.146583</ele>
        <time>2022-12-22T11:54:10.562Z</time>
      </trkpt>
      <trkpt lat="45.66809" lon="-1.00646">
        <ele>59.139327</ele>
        <time>2022-12-22T11:54:13.579Z</time>
      </trkpt>
      <trkpt lat="45.66804" lon="-1.00658">
        <ele>59.132254</ele>
        <time>2022-12-22T11:54:16.574Z</time>
      </trkpt>
      <trkpt lat="45.66799" lon="-1.00669">
        <ele>59.125373</ele>
        <time>2022-12-22T11:54:19.594Z</time>
      </trkpt>
      <trkpt lat="45.66794" lon="-1.00681">
        <ele>59.11832</ele>
        <time>2022-12-22T11:54:22.579Z</time>
      </trkpt>
      <trkpt lat="45.66788" lon="-1.00693">
        <ele>59.111189</ele>
        <time>2022-12-22T11:54:25.578Z</time>
      </trkpt>
      <trkpt lat="45.66782" lon="-1.00707">
        <ele>59.102634</ele>
        <time>2022-12-22T11:54:29.573Z</time>
      </trkpt>
      <trkpt lat="45.66777" lon="-1.00719">
        <ele>59.095374</ele>
        <time>2022-12-22T11:54:32.576Z</time>
      </trkpt>
      <trkpt lat="45.66771" lon="-1.00731">
        <ele>59.088039</ele>
        <time>2022-12-22T11:54:35.574Z</time>
      </trkpt>
      <trkpt lat="45.66766" lon="-1.00743">
        <ele>59.080703</ele>
        <time>2022-12-22T11:54:38.631Z</time>
      </trkpt>
      <trkpt lat="45.6676" lon="-1.00755">
        <ele>59.073447</ele>
        <time>2022-12-22T11:54:41.578Z</time>
      </trkpt>
      <trkpt lat="45.66755" lon="-1.00767">
        <ele>59.066192</ele>
        <time>2022-12-22T11:54:44.634Z</time>
      </trkpt>
      <trkpt lat="45.6675" lon="-1.00778">
        <ele>59.059438</ele>
        <time>2022-12-22T11:54:47.562Z</time>
      </trkpt>
      <trkpt lat="45.66744" lon="-1.00792">
        <ele>59.050926</ele>
        <time>2022-12-22T11:54:51.589Z</time>
      </trkpt>
      <trkpt lat="45.66738" lon="-1.00803">
        <ele>59.0443</ele>
        <time>2022-12-22T11:54:54.579Z</time>
      </trkpt>
      <trkpt lat="45.66733" lon="-1.00814">
        <ele>59.037629</ele>
        <time>2022-12-22T11:54:57.558Z</time>
      </trkpt>
      <trkpt lat="45.66729" lon="-1.00825">
        <ele>58.990482</ele>
        <time>2022-12-22T11:55:00.578Z</time>
      </trkpt>
      <trkpt lat="45.66722" lon="-1.00839">
        <ele>58.907746</ele>
        <time>2022-12-22T11:55:04.576Z</time>
      </trkpt>
      <trkpt lat="45.66717" lon="-1.0085">
        <ele>58.845565</ele>
        <time>2022-12-22T11:55:07.558Z</time>
      </trkpt>
      <trkpt lat="45.66712" lon="-1.00861">
        <ele>58.782565</ele>
        <time>2022-12-22T11:55:10.581Z</time>
      </trkpt>
      <trkpt lat="45.66707" lon="-1.00873">
        <ele>58.718047</ele>
        <time>2022-12-22T11:55:13.589Z</time>
      </trkpt>
      <trkpt lat="45.66702" lon="-1.00884">
        <ele>58.653951</ele>
        <time>2022-12-22T11:55:16.581Z</time>
      </trkpt>
      <trkpt lat="45.66698" lon="-1.00895">
        <ele>58.590835</ele>
        <time>2022-12-22T11:55:19.590Z</time>
      </trkpt>
      <trkpt lat="45.66692" lon="-1.00907">
        <ele>58.524691</ele>
        <time>2022-12-22T11:55:22.583Z</time>
      </trkpt>
      <trkpt lat="45.66687" lon="-1.00918">
        <ele>58.46014</ele>
        <time>2022-12-22T11:55:25.580Z</time>
      </trkpt>
      <trkpt lat="45.66683" lon="-1.0093">
        <ele>58.39697</ele>
        <time>2022-12-22T11:55:28.583Z</time>
      </trkpt>
      <trkpt lat="45.66679" lon="-1.00941">
        <ele>58.334447</ele>
        <time>2022-12-22T11:55:31.577Z</time>
      </trkpt>
      <trkpt lat="45.66674" lon="-1.00952">
        <ele>58.269164</ele>
        <time>2022-12-22T11:55:34.581Z</time>
      </trkpt>
      <trkpt lat="45.66668" lon="-1.00965">
        <ele>58.195048</ele>
        <time>2022-12-22T11:55:38.643Z</time>
      </trkpt>
      <trkpt lat="45.66662" lon="-1.00979">
        <ele>58.114275</ele>
        <time>2022-12-22T11:55:42.584Z</time>
      </trkpt>
      <trkpt lat="45.66657" lon="-1.0099">
        <ele>58.052151</ele>
        <time>2022-12-22T11:55:45.570Z</time>
      </trkpt>
      <trkpt lat="45.66652" lon="-1.01001">
        <ele>57.988439</ele>
        <time>2022-12-22T11:55:48.568Z</time>
      </trkpt>
      <trkpt lat="45.66647" lon="-1.01012">
        <ele>57.925107</ele>
        <time>2022-12-22T11:55:51.577Z</time>
      </trkpt>
      <trkpt lat="45.66642" lon="-1.01023">
        <ele>57.862054</ele>
        <time>2022-12-22T11:55:54.574Z</time>
      </trkpt>
      <trkpt lat="45.66636" lon="-1.01038">
        <ele>57.802349</ele>
        <time>2022-12-22T11:55:58.581Z</time>
      </trkpt>
      <trkpt lat="45.66631" lon="-1.01049">
        <ele>57.845527</ele>
        <time>2022-12-22T11:56:01.576Z</time>
      </trkpt>
      <trkpt lat="45.66625" lon="-1.01062">
        <ele>57.901578</ele>
        <time>2022-12-22T11:56:05.576Z</time>
      </trkpt>
      <trkpt lat="45.66619" lon="-1.01076">
        <ele>57.954725</ele>
        <time>2022-12-22T11:56:09.577Z</time>
      </trkpt>
      <trkpt lat="45.66612" lon="-1.01089">
        <ele>58.01002</ele>
        <time>2022-12-22T11:56:14.581Z</time>
      </trkpt>
      <trkpt lat="45.66605" lon="-1.01102">
        <ele>58.06552</ele>
        <time>2022-12-22T11:56:18.636Z</time>
      </trkpt>
      <trkpt lat="45.66599" lon="-1.01116">
        <ele>58.121839</ele>
        <time>2022-12-22T11:56:22.581Z</time>
      </trkpt>
      <trkpt lat="45.66593" lon="-1.01128">
        <ele>58.16664</ele>
        <time>2022-12-22T11:56:25.582Z</time>
      </trkpt>
      <trkpt lat="45.66588" lon="-1.01139">
        <ele>58.213631</ele>
        <time>2022-12-22T11:56:28.564Z</time>
      </trkpt>
      <trkpt lat="45.66582" lon="-1.01151">
        <ele>58.261706</ele>
        <time>2022-12-22T11:56:31.577Z</time>
      </trkpt>
      <trkpt lat="45.66577" lon="-1.01162">
        <ele>58.306507</ele>
        <time>2022-12-22T11:56:34.577Z</time>
      </trkpt>
      <trkpt lat="45.6657" lon="-1.01176">
        <ele>58.363371</ele>
        <time>2022-12-22T11:56:38.576Z</time>
      </trkpt>
      <trkpt lat="45.66565" lon="-1.01187">
        <ele>58.408735</ele>
        <time>2022-12-22T11:56:41.580Z</time>
      </trkpt>
      <trkpt lat="45.6656" lon="-1.012">
        <ele>58.456878</ele>
        <time>2022-12-22T11:56:44.582Z</time>
      </trkpt>
      <trkpt lat="45.66554" lon="-1.01212">
        <ele>58.505238</ele>
        <time>2022-12-22T11:56:47.568Z</time>
      </trkpt>
      <trkpt lat="45.66551" lon="-1.01225">
        <ele>58.551907</ele>
        <time>2022-12-22T11:56:50.578Z</time>
      </trkpt>
      <trkpt lat="45.66554" lon="-1.01238">
        <ele>58.598001</ele>
        <time>2022-12-22T11:56:54.632Z</time>
      </trkpt>
      <trkpt lat="45.66552" lon="-1.01257">
        <ele>58.67455</ele>
        <time>2022-12-22T11:57:40.590Z</time>
      </trkpt>
      <trkpt lat="45.66544" lon="-1.01267">
        <ele>58.864222</ele>
        <time>2022-12-22T11:57:44.572Z</time>
      </trkpt>
      <trkpt lat="45.66536" lon="-1.01272">
        <ele>59.025312</ele>
        <time>2022-12-22T11:57:47.591Z</time>
      </trkpt>
      <trkpt lat="45.66526" lon="-1.01276">
        <ele>59.193015</ele>
        <time>2022-12-22T11:57:50.576Z</time>
      </trkpt>
      <trkpt lat="45.66518" lon="-1.01283">
        <ele>59.368297</ele>
        <time>2022-12-22T11:57:53.597Z</time>
      </trkpt>
      <trkpt lat="45.66512" lon="-1.01293">
        <ele>59.526172</ele>
        <time>2022-12-22T11:57:56.584Z</time>
      </trkpt>
      <trkpt lat="45.66506" lon="-1.01306">
        <ele>59.713264</ele>
        <time>2022-12-22T11:58:00.581Z</time>
      </trkpt>
      <trkpt lat="45.66501" lon="-1.01317">
        <ele>59.882214</ele>
        <time>2022-12-22T11:58:04.581Z</time>
      </trkpt>
      <trkpt lat="45.66494" lon="-1.01329">
        <ele>60.074362</ele>
        <time>2022-12-22T11:58:08.579Z</time>
      </trkpt>
      <trkpt lat="45.66488" lon="-1.01341">
        <ele>60.257568</ele>
        <time>2022-12-22T11:58:12.578Z</time>
      </trkpt>
      <trkpt lat="45.66482" lon="-1.01352">
        <ele>60.433416</ele>
        <time>2022-12-22T11:58:16.578Z</time>
      </trkpt>
      <trkpt lat="45.66476" lon="-1.01363">
        <ele>60.606456</ele>
        <time>2022-12-22T11:58:20.576Z</time>
      </trkpt>
      <trkpt lat="45.66469" lon="-1.01373">
        <ele>60.77194</ele>
        <time>2022-12-22T11:58:24.586Z</time>
      </trkpt>
      <trkpt lat="45.66463" lon="-1.01383">
        <ele>60.949463</ele>
        <time>2022-12-22T11:58:28.577Z</time>
      </trkpt>
      <trkpt lat="45.66455" lon="-1.01394">
        <ele>61.135725</ele>
        <time>2022-12-22T11:58:32.578Z</time>
      </trkpt>
      <trkpt lat="45.66448" lon="-1.01406">
        <ele>61.328592</ele>
        <time>2022-12-22T11:58:37.557Z</time>
      </trkpt>
      <trkpt lat="45.66441" lon="-1.01415">
        <ele>61.495091</ele>
        <time>2022-12-22T11:58:41.563Z</time>
      </trkpt>
      <trkpt lat="45.66434" lon="-1.01424">
        <ele>61.659589</ele>
        <time>2022-12-22T11:58:45.590Z</time>
      </trkpt>
      <trkpt lat="45.66427" lon="-1.01433">
        <ele>61.826506</ele>
        <time>2022-12-22T11:58:49.575Z</time>
      </trkpt>
      <trkpt lat="45.6642" lon="-1.01442">
        <ele>61.924766</ele>
        <time>2022-12-22T11:58:53.580Z</time>
      </trkpt>
      <trkpt lat="45.66413" lon="-1.01452">
        <ele>62.022142</ele>
        <time>2022-12-22T11:58:57.554Z</time>
      </trkpt>
      <trkpt lat="45.66407" lon="-1.01461">
        <ele>62.116297</ele>
        <time>2022-12-22T11:59:01.567Z</time>
      </trkpt>
      <trkpt lat="45.66399" lon="-1.01469">
        <ele>62.215069</ele>
        <time>2022-12-22T11:59:05.578Z</time>
      </trkpt>
      <trkpt lat="45.66392" lon="-1.01478">
        <ele>62.31567</ele>
        <time>2022-12-22T11:59:09.578Z</time>
      </trkpt>
      <trkpt lat="45.66385" lon="-1.01488">
        <ele>62.416275</ele>
        <time>2022-12-22T11:59:13.581Z</time>
      </trkpt>
      <trkpt lat="45.66377" lon="-1.01497">
        <ele>62.516766</ele>
        <time>2022-12-22T11:59:17.590Z</time>
      </trkpt>
      <trkpt lat="45.6637" lon="-1.01505">
        <ele>62.613244</ele>
        <time>2022-12-22T11:59:21.579Z</time>
      </trkpt>
      <trkpt lat="45.66363" lon="-1.01514">
        <ele>62.707015</ele>
        <time>2022-12-22T11:59:25.581Z</time>
      </trkpt>
      <trkpt lat="45.66355" lon="-1.01524">
        <ele>62.820347</ele>
        <time>2022-12-22T11:59:30.577Z</time>
      </trkpt>
      <trkpt lat="45.66347" lon="-1.01533">
        <ele>62.927879</ele>
        <time>2022-12-22T11:59:35.561Z</time>
      </trkpt>
      <trkpt lat="45.66338" lon="-1.01543">
        <ele>63.040879</ele>
        <time>2022-12-22T11:59:40.624Z</time>
      </trkpt>
      <trkpt lat="45.6633" lon="-1.01553">
        <ele>63.154557</ele>
        <time>2022-12-22T11:59:45.594Z</time>
      </trkpt>
      <trkpt lat="45.6632" lon="-1.01562">
        <ele>63.270154</ele>
        <time>2022-12-22T11:59:50.582Z</time>
      </trkpt>
      <trkpt lat="45.66312" lon="-1.01572">
        <ele>63.381611</ele>
        <time>2022-12-22T11:59:55.581Z</time>
      </trkpt>
      <trkpt lat="45.66304" lon="-1.01581">
        <ele>63.490275</ele>
        <time>2022-12-22T12:00:00.575Z</time>
      </trkpt>
      <trkpt lat="45.66295" lon="-1.01591">
        <ele>63.603152</ele>
        <time>2022-12-22T12:00:05.576Z</time>
      </trkpt>
      <trkpt lat="45.66287" lon="-1.01599">
        <ele>63.744027</ele>
        <time>2022-12-22T12:00:10.577Z</time>
      </trkpt>
      <trkpt lat="45.66279" lon="-1.01608">
        <ele>64.115537</ele>
        <time>2022-12-22T12:00:15.638Z</time>
      </trkpt>
      <trkpt lat="45.66272" lon="-1.01618">
        <ele>64.477769</ele>
        <time>2022-12-22T12:00:20.580Z</time>
      </trkpt>
      <trkpt lat="45.66265" lon="-1.01626">
        <ele>64.806188</ele>
        <time>2022-12-22T12:00:25.577Z</time>
      </trkpt>
      <trkpt lat="45.66257" lon="-1.01635">
        <ele>65.151413</ele>
        <time>2022-12-22T12:00:30.577Z</time>
      </trkpt>
      <trkpt lat="45.6625" lon="-1.01643">
        <ele>65.488167</ele>
        <time>2022-12-22T12:00:35.580Z</time>
      </trkpt>
      <trkpt lat="45.66243" lon="-1.01652">
        <ele>65.829153</ele>
        <time>2022-12-22T12:00:40.580Z</time>
      </trkpt>
      <trkpt lat="45.66235" lon="-1.0166">
        <ele>66.169997</ele>
        <time>2022-12-22T12:00:45.580Z</time>
      </trkpt>
      <trkpt lat="45.66228" lon="-1.01669">
        <ele>66.523496</ele>
        <time>2022-12-22T12:00:50.576Z</time>
      </trkpt>
      <trkpt lat="45.6622" lon="-1.01677">
        <ele>66.855398</ele>
        <time>2022-12-22T12:00:55.581Z</time>
      </trkpt>
      <trkpt lat="45.66213" lon="-1.01686">
        <ele>67.199698</ele>
        <time>2022-12-22T12:01:00.581Z</time>
      </trkpt>
      <trkpt lat="45.66205" lon="-1.01694">
        <ele>67.53592</ele>
        <time>2022-12-22T12:01:05.632Z</time>
      </trkpt>
      <trkpt lat="45.66198" lon="-1.01702">
        <ele>67.871956</ele>
        <time>2022-12-22T12:01:10.579Z</time>
      </trkpt>
      <trkpt lat="45.6619" lon="-1.01709">
        <ele>68.195924</ele>
        <time>2022-12-22T12:01:15.580Z</time>
      </trkpt>
      <trkpt lat="45.66183" lon="-1.01718">
        <ele>68.54115</ele>
        <time>2022-12-22T12:01:20.578Z</time>
      </trkpt>
      <trkpt lat="45.66175" lon="-1.01727">
        <ele>68.887552</ele>
        <time>2022-12-22T12:01:25.580Z</time>
      </trkpt>
      <trkpt lat="45.66168" lon="-1.01734">
        <ele>69.231088</ele>
        <time>2022-12-22T12:01:30.577Z</time>
      </trkpt>
      <trkpt lat="45.6616" lon="-1.01744">
        <ele>69.58515</ele>
        <time>2022-12-22T12:01:35.646Z</time>
      </trkpt>
      <trkpt lat="45.66153" lon="-1.01753">
        <ele>69.927642</ele>
        <time>2022-12-22T12:01:40.579Z</time>
      </trkpt>
      <trkpt lat="45.66148" lon="-1.01764">
        <ele>70.226309</ele>
        <time>2022-12-22T12:01:45.576Z</time>
      </trkpt>
      <trkpt lat="45.66144" lon="-1.01777">
        <ele>70.462459</ele>
        <time>2022-12-22T12:01:50.561Z</time>
      </trkpt>
      <trkpt lat="45.66141" lon="-1.0179">
        <ele>70.703205</ele>
        <time>2022-12-22T12:01:55.577Z</time>
      </trkpt>
      <trkpt lat="45.66135" lon="-1.018">
        <ele>70.933913</ele>
        <time>2022-12-22T12:02:00.586Z</time>
      </trkpt>
      <trkpt lat="45.66125" lon="-1.01799">
        <ele>71.18554</ele>
        <time>2022-12-22T12:02:06.582Z</time>
      </trkpt>
      <trkpt lat="45.66114" lon="-1.018">
        <ele>71.445383</ele>
        <time>2022-12-22T12:02:11.582Z</time>
      </trkpt>
      <trkpt lat="45.66105" lon="-1.01809">
        <ele>71.716536</ele>
        <time>2022-12-22T12:02:16.579Z</time>
      </trkpt>
      <trkpt lat="45.66095" lon="-1.01818">
        <ele>71.992385</ele>
        <time>2022-12-22T12:02:21.634Z</time>
      </trkpt>
      <trkpt lat="45.66086" lon="-1.01827">
        <ele>72.266095</ele>
        <time>2022-12-22T12:02:26.574Z</time>
      </trkpt>
      <trkpt lat="45.66078" lon="-1.01836">
        <ele>72.515806</ele>
        <time>2022-12-22T12:02:31.579Z</time>
      </trkpt>
      <trkpt lat="45.6607" lon="-1.01845">
        <ele>72.779621</ele>
        <time>2022-12-22T12:02:36.579Z</time>
      </trkpt>
      <trkpt lat="45.66062" lon="-1.01854">
        <ele>73.017667</ele>
        <time>2022-12-22T12:02:40.584Z</time>
      </trkpt>
      <trkpt lat="45.66055" lon="-1.01862">
        <ele>73.2585</ele>
        <time>2022-12-22T12:02:44.573Z</time>
      </trkpt>
      <trkpt lat="45.66047" lon="-1.01871">
        <ele>73.500634</ele>
        <time>2022-12-22T12:02:48.578Z</time>
      </trkpt>
      <trkpt lat="45.66038" lon="-1.01881">
        <ele>73.768505</ele>
        <time>2022-12-22T12:02:53.577Z</time>
      </trkpt>
      <trkpt lat="45.66031" lon="-1.01889">
        <ele>73.999268</ele>
        <time>2022-12-22T12:02:57.563Z</time>
      </trkpt>
      <trkpt lat="45.66024" lon="-1.01898">
        <ele>74.235726</ele>
        <time>2022-12-22T12:03:01.648Z</time>
      </trkpt>
      <trkpt lat="45.66015" lon="-1.01908">
        <ele>74.507038</ele>
        <time>2022-12-22T12:03:05.581Z</time>
      </trkpt>
      <trkpt lat="45.66007" lon="-1.01918">
        <ele>74.595934</ele>
        <time>2022-12-22T12:03:09.583Z</time>
      </trkpt>
      <trkpt lat="45.65998" lon="-1.01928">
        <ele>74.611932</ele>
        <time>2022-12-22T12:03:13.650Z</time>
      </trkpt>
      <trkpt lat="45.65991" lon="-1.01937">
        <ele>74.625441</ele>
        <time>2022-12-22T12:03:16.581Z</time>
      </trkpt>
      <trkpt lat="45.65983" lon="-1.01946">
        <ele>74.639793</ele>
        <time>2022-12-22T12:03:19.648Z</time>
      </trkpt>
      <trkpt lat="45.65975" lon="-1.01954">
        <ele>74.653559</ele>
        <time>2022-12-22T12:03:22.582Z</time>
      </trkpt>
      <trkpt lat="45.65968" lon="-1.01963">
        <ele>74.666655</ele>
        <time>2022-12-22T12:03:25.628Z</time>
      </trkpt>
      <trkpt lat="45.6596" lon="-1.01972">
        <ele>74.682117</ele>
        <time>2022-12-22T12:03:28.582Z</time>
      </trkpt>
      <trkpt lat="45.65952" lon="-1.01982">
        <ele>74.696845</ele>
        <time>2022-12-22T12:03:31.627Z</time>
      </trkpt>
      <trkpt lat="45.65943" lon="-1.01991">
        <ele>74.71278</ele>
        <time>2022-12-22T12:03:34.580Z</time>
      </trkpt>
      <trkpt lat="45.65934" lon="-1.02002">
        <ele>74.729252</ele>
        <time>2022-12-22T12:03:37.594Z</time>
      </trkpt>
      <trkpt lat="45.65926" lon="-1.02012">
        <ele>74.744936</ele>
        <time>2022-12-22T12:03:40.581Z</time>
      </trkpt>
      <trkpt lat="45.65917" lon="-1.02022">
        <ele>74.761395</ele>
        <time>2022-12-22T12:03:43.569Z</time>
      </trkpt>
      <trkpt lat="45.65909" lon="-1.02032">
        <ele>74.776821</ele>
        <time>2022-12-22T12:03:46.587Z</time>
      </trkpt>
      <trkpt lat="45.65901" lon="-1.02042">
        <ele>74.792137</ele>
        <time>2022-12-22T12:03:49.570Z</time>
      </trkpt>
      <trkpt lat="45.65892" lon="-1.02053">
        <ele>74.808865</ele>
        <time>2022-12-22T12:03:52.577Z</time>
      </trkpt>
      <trkpt lat="45.65882" lon="-1.02063">
        <ele>74.825611</ele>
        <time>2022-12-22T12:03:55.562Z</time>
      </trkpt>
      <trkpt lat="45.65874" lon="-1.02072">
        <ele>74.84095</ele>
        <time>2022-12-22T12:03:58.578Z</time>
      </trkpt>
      <trkpt lat="45.65866" lon="-1.02082">
        <ele>74.790029</ele>
        <time>2022-12-22T12:04:01.579Z</time>
      </trkpt>
      <trkpt lat="45.65858" lon="-1.02093">
        <ele>74.730555</ele>
        <time>2022-12-22T12:04:04.581Z</time>
      </trkpt>
      <trkpt lat="45.65849" lon="-1.02103">
        <ele>74.672373</ele>
        <time>2022-12-22T12:04:07.567Z</time>
      </trkpt>
      <trkpt lat="45.65841" lon="-1.02113">
        <ele>74.615328</ele>
        <time>2022-12-22T12:04:10.575Z</time>
      </trkpt>
      <trkpt lat="45.65831" lon="-1.02123">
        <ele>74.549187</ele>
        <time>2022-12-22T12:04:14.579Z</time>
      </trkpt>
      <trkpt lat="45.65823" lon="-1.02132">
        <ele>74.494731</ele>
        <time>2022-12-22T12:04:17.565Z</time>
      </trkpt>
      <trkpt lat="45.65814" lon="-1.02142">
        <ele>74.43481</ele>
        <time>2022-12-22T12:04:20.580Z</time>
      </trkpt>
      <trkpt lat="45.65805" lon="-1.02152">
        <ele>74.372555</ele>
        <time>2022-12-22T12:04:23.578Z</time>
      </trkpt>
      <trkpt lat="45.65796" lon="-1.02162">
        <ele>74.315463</ele>
        <time>2022-12-22T12:04:26.577Z</time>
      </trkpt>
      <trkpt lat="45.65788" lon="-1.02171">
        <ele>74.258633</ele>
        <time>2022-12-22T12:04:29.555Z</time>
      </trkpt>
      <trkpt lat="45.65779" lon="-1.0218">
        <ele>74.201822</ele>
        <time>2022-12-22T12:04:32.577Z</time>
      </trkpt>
      <trkpt lat="45.6577" lon="-1.0219">
        <ele>74.139141</ele>
        <time>2022-12-22T12:04:35.580Z</time>
      </trkpt>
      <trkpt lat="45.6576" lon="-1.022">
        <ele>74.074483</ele>
        <time>2022-12-22T12:04:38.582Z</time>
      </trkpt>
      <trkpt lat="45.65751" lon="-1.02211">
        <ele>74.011124</ele>
        <time>2022-12-22T12:04:41.582Z</time>
      </trkpt>
      <trkpt lat="45.65741" lon="-1.02221">
        <ele>73.947157</ele>
        <time>2022-12-22T12:04:44.578Z</time>
      </trkpt>
      <trkpt lat="45.65731" lon="-1.0223">
        <ele>73.883829</ele>
        <time>2022-12-22T12:04:47.561Z</time>
      </trkpt>
      <trkpt lat="45.65722" lon="-1.02239">
        <ele>73.832626</ele>
        <time>2022-12-22T12:04:50.580Z</time>
      </trkpt>
      <trkpt lat="45.65715" lon="-1.02248">
        <ele>73.788577</ele>
        <time>2022-12-22T12:04:53.584Z</time>
      </trkpt>
      <trkpt lat="45.6571" lon="-1.02259">
        <ele>73.745654</ele>
        <time>2022-12-22T12:04:56.582Z</time>
      </trkpt>
      <trkpt lat="45.65699" lon="-1.02267">
        <ele>73.690445</ele>
        <time>2022-12-22T12:04:59.578Z</time>
      </trkpt>
      <trkpt lat="45.65688" lon="-1.02274">
        <ele>73.633193</ele>
        <time>2022-12-22T12:05:02.581Z</time>
      </trkpt>
      <trkpt lat="45.65677" lon="-1.02279">
        <ele>73.578099</ele>
        <time>2022-12-22T12:05:05.576Z</time>
      </trkpt>
      <trkpt lat="45.65666" lon="-1.02284">
        <ele>73.525658</ele>
        <time>2022-12-22T12:05:08.582Z</time>
      </trkpt>
      <trkpt lat="45.65656" lon="-1.02289">
        <ele>73.474201</ele>
        <time>2022-12-22T12:05:11.582Z</time>
      </trkpt>
      <trkpt lat="45.65645" lon="-1.02292">
        <ele>73.424653</ele>
        <time>2022-12-22T12:05:14.581Z</time>
      </trkpt>
      <trkpt lat="45.65633" lon="-1.02294">
        <ele>73.36833</ele>
        <time>2022-12-22T12:05:17.565Z</time>
      </trkpt>
      <trkpt lat="45.65621" lon="-1.02296">
        <ele>73.311194</ele>
        <time>2022-12-22T12:05:20.578Z</time>
      </trkpt>
      <trkpt lat="45.6561" lon="-1.02297">
        <ele>73.260577</ele>
        <time>2022-12-22T12:05:23.582Z</time>
      </trkpt>
      <trkpt lat="45.65599" lon="-1.02299">
        <ele>73.209404</ele>
        <time>2022-12-22T12:05:26.578Z</time>
      </trkpt>
      <trkpt lat="45.65588" lon="-1.023">
        <ele>73.154664</ele>
        <time>2022-12-22T12:05:29.584Z</time>
      </trkpt>
      <trkpt lat="45.65575" lon="-1.02301">
        <ele>73.096661</ele>
        <time>2022-12-22T12:05:32.580Z</time>
      </trkpt>
      <trkpt lat="45.65563" lon="-1.02301">
        <ele>73.04028</ele>
        <time>2022-12-22T12:05:35.580Z</time>
      </trkpt>
      <trkpt lat="45.65552" lon="-1.02302">
        <ele>73.002636</ele>
        <time>2022-12-22T12:05:38.581Z</time>
      </trkpt>
      <trkpt lat="45.65542" lon="-1.02303">
        <ele>72.968961</ele>
        <time>2022-12-22T12:05:41.577Z</time>
      </trkpt>
      <trkpt lat="45.6553" lon="-1.02305">
        <ele>72.930804</ele>
        <time>2022-12-22T12:05:44.578Z</time>
      </trkpt>
      <trkpt lat="45.65518" lon="-1.02305">
        <ele>72.891155</ele>
        <time>2022-12-22T12:05:47.567Z</time>
      </trkpt>
      <trkpt lat="45.65506" lon="-1.02306">
        <ele>72.849858</ele>
        <time>2022-12-22T12:05:50.578Z</time>
      </trkpt>
      <trkpt lat="45.65493" lon="-1.02306">
        <ele>72.807576</ele>
        <time>2022-12-22T12:05:53.575Z</time>
      </trkpt>
      <trkpt lat="45.65481" lon="-1.02306">
        <ele>72.76795</ele>
        <time>2022-12-22T12:05:56.571Z</time>
      </trkpt>
      <trkpt lat="45.65471" lon="-1.02307">
        <ele>72.732988</ele>
        <time>2022-12-22T12:05:59.577Z</time>
      </trkpt>
      <trkpt lat="45.65461" lon="-1.02308">
        <ele>72.698875</ele>
        <time>2022-12-22T12:06:02.578Z</time>
      </trkpt>
      <trkpt lat="45.65449" lon="-1.02311">
        <ele>72.661064</ele>
        <time>2022-12-22T12:06:05.578Z</time>
      </trkpt>
      <trkpt lat="45.65438" lon="-1.02313">
        <ele>72.621716</ele>
        <time>2022-12-22T12:06:08.578Z</time>
      </trkpt>
      <trkpt lat="45.65426" lon="-1.02316">
        <ele>72.581162</ele>
        <time>2022-12-22T12:06:11.584Z</time>
      </trkpt>
      <trkpt lat="45.65413" lon="-1.0232">
        <ele>72.537444</ele>
        <time>2022-12-22T12:06:14.580Z</time>
      </trkpt>
      <trkpt lat="45.65401" lon="-1.02322">
        <ele>72.49904</ele>
        <time>2022-12-22T12:06:17.608Z</time>
      </trkpt>
      <trkpt lat="45.65391" lon="-1.02324">
        <ele>72.46418</ele>
        <time>2022-12-22T12:06:20.582Z</time>
      </trkpt>
      <trkpt lat="45.6538" lon="-1.02328">
        <ele>72.370845</ele>
        <time>2022-12-22T12:06:24.581Z</time>
      </trkpt>
      <trkpt lat="45.6537" lon="-1.02329">
        <ele>72.212856</ele>
        <time>2022-12-22T12:06:28.564Z</time>
      </trkpt>
      <trkpt lat="45.65362" lon="-1.02339">
        <ele>72.059495</ele>
        <time>2022-12-22T12:06:32.579Z</time>
      </trkpt>
      <trkpt lat="45.65353" lon="-1.02347">
        <ele>71.905796</ele>
        <time>2022-12-22T12:06:37.564Z</time>
      </trkpt>
      <trkpt lat="45.65343" lon="-1.02347">
        <ele>71.754331</ele>
        <time>2022-12-22T12:06:42.578Z</time>
      </trkpt>
      <trkpt lat="45.65336" lon="-1.02336">
        <ele>71.608207</ele>
        <time>2022-12-22T12:06:46.630Z</time>
      </trkpt>
      <trkpt lat="45.65325" lon="-1.02328">
        <ele>71.431017</ele>
        <time>2022-12-22T12:06:50.580Z</time>
      </trkpt>
      <trkpt lat="45.65315" lon="-1.0233">
        <ele>71.270888</ele>
        <time>2022-12-22T12:06:53.579Z</time>
      </trkpt>
      <trkpt lat="45.65303" lon="-1.02334">
        <ele>71.101635</ele>
        <time>2022-12-22T12:06:56.580Z</time>
      </trkpt>
      <trkpt lat="45.65292" lon="-1.02338">
        <ele>70.92569</ele>
        <time>2022-12-22T12:06:59.566Z</time>
      </trkpt>
      <trkpt lat="45.6528" lon="-1.02342">
        <ele>70.7495</ele>
        <time>2022-12-22T12:07:02.577Z</time>
      </trkpt>
      <trkpt lat="45.6527" lon="-1.02347">
        <ele>70.593396</ele>
        <time>2022-12-22T12:07:05.577Z</time>
      </trkpt>
      <trkpt lat="45.65259" lon="-1.02352">
        <ele>70.427704</ele>
        <time>2022-12-22T12:07:08.577Z</time>
      </trkpt>
      <trkpt lat="45.65248" lon="-1.02356">
        <ele>70.250822</ele>
        <time>2022-12-22T12:07:11.581Z</time>
      </trkpt>
      <trkpt lat="45.65236" lon="-1.02359">
        <ele>70.073624</ele>
        <time>2022-12-22T12:07:14.577Z</time>
      </trkpt>
      <trkpt lat="45.65226" lon="-1.02363">
        <ele>69.918641</ele>
        <time>2022-12-22T12:07:17.568Z</time>
      </trkpt>
      <trkpt lat="45.65217" lon="-1.02367">
        <ele>69.795194</ele>
        <time>2022-12-22T12:07:20.562Z</time>
      </trkpt>
      <trkpt lat="45.65207" lon="-1.0237">
        <ele>69.759709</ele>
        <time>2022-12-22T12:07:23.581Z</time>
      </trkpt>
      <trkpt lat="45.65196" lon="-1.02374">
        <ele>69.719174</ele>
        <time>2022-12-22T12:07:26.579Z</time>
      </trkpt>
      <trkpt lat="45.65184" lon="-1.02378">
        <ele>69.678114</ele>
        <time>2022-12-22T12:07:29.580Z</time>
      </trkpt>
      <trkpt lat="45.65174" lon="-1.02383">
        <ele>69.638511</ele>
        <time>2022-12-22T12:07:32.579Z</time>
      </trkpt>
      <trkpt lat="45.65164" lon="-1.02388">
        <ele>69.601892</ele>
        <time>2022-12-22T12:07:35.579Z</time>
      </trkpt>
      <trkpt lat="45.65153" lon="-1.02393">
        <ele>69.563184</ele>
        <time>2022-12-22T12:07:38.580Z</time>
      </trkpt>
      <trkpt lat="45.65142" lon="-1.02397">
        <ele>69.521055</ele>
        <time>2022-12-22T12:07:42.589Z</time>
      </trkpt>
      <trkpt lat="45.65131" lon="-1.02402">
        <ele>69.482682</ele>
        <time>2022-12-22T12:07:45.637Z</time>
      </trkpt>
      <trkpt lat="45.65119" lon="-1.02407">
        <ele>69.438434</ele>
        <time>2022-12-22T12:07:48.583Z</time>
      </trkpt>
      <trkpt lat="45.65107" lon="-1.02413">
        <ele>69.393443</ele>
        <time>2022-12-22T12:07:51.650Z</time>
      </trkpt>
      <trkpt lat="45.65095" lon="-1.02419">
        <ele>69.347649</ele>
        <time>2022-12-22T12:07:54.579Z</time>
      </trkpt>
      <trkpt lat="45.65082" lon="-1.02425">
        <ele>69.301094</ele>
        <time>2022-12-22T12:07:57.598Z</time>
      </trkpt>
      <trkpt lat="45.65073" lon="-1.02429">
        <ele>69.268744</ele>
        <time>2022-12-22T12:07:59.567Z</time>
      </trkpt>
      <trkpt lat="45.65065" lon="-1.02433">
        <ele>69.236873</ele>
        <time>2022-12-22T12:08:01.580Z</time>
      </trkpt>
      <trkpt lat="45.65052" lon="-1.02438">
        <ele>69.19095</ele>
        <time>2022-12-22T12:08:04.578Z</time>
      </trkpt>
      <trkpt lat="45.6504" lon="-1.02443">
        <ele>69.074747</ele>
        <time>2022-12-22T12:08:07.576Z</time>
      </trkpt>
      <trkpt lat="45.65029" lon="-1.02449">
        <ele>68.871355</ele>
        <time>2022-12-22T12:08:10.580Z</time>
      </trkpt>
      <trkpt lat="45.65017" lon="-1.02453">
        <ele>68.66407</ele>
        <time>2022-12-22T12:08:13.578Z</time>
      </trkpt>
      <trkpt lat="45.65006" lon="-1.02458">
        <ele>68.473601</ele>
        <time>2022-12-22T12:08:16.585Z</time>
      </trkpt>
      <trkpt lat="45.64995" lon="-1.0246">
        <ele>68.293468</ele>
        <time>2022-12-22T12:08:19.570Z</time>
      </trkpt>
      <trkpt lat="45.64984" lon="-1.02461">
        <ele>68.103168</ele>
        <time>2022-12-22T12:08:22.590Z</time>
      </trkpt>
      <trkpt lat="45.64972" lon="-1.02461">
        <ele>67.900049</ele>
        <time>2022-12-22T12:08:25.580Z</time>
      </trkpt>
      <trkpt lat="45.64959" lon="-1.02461">
        <ele>67.683547</ele>
        <time>2022-12-22T12:08:28.568Z</time>
      </trkpt>
      <trkpt lat="45.64946" lon="-1.02459">
        <ele>67.477708</ele>
        <time>2022-12-22T12:08:31.575Z</time>
      </trkpt>
      <trkpt lat="45.64934" lon="-1.02457">
        <ele>67.279119</ele>
        <time>2022-12-22T12:08:34.582Z</time>
      </trkpt>
      <trkpt lat="45.64923" lon="-1.02454">
        <ele>67.090581</ele>
        <time>2022-12-22T12:08:37.570Z</time>
      </trkpt>
      <trkpt lat="45.64913" lon="-1.02454">
        <ele>66.913924</ele>
        <time>2022-12-22T12:08:40.578Z</time>
      </trkpt>
      <trkpt lat="45.64905" lon="-1.0246">
        <ele>66.759828</ele>
        <time>2022-12-22T12:08:43.579Z</time>
      </trkpt>
      <trkpt lat="45.64895" lon="-1.02465">
        <ele>66.596754</ele>
        <time>2022-12-22T12:08:46.582Z</time>
      </trkpt>
      <trkpt lat="45.64887" lon="-1.02459">
        <ele>66.434939</ele>
        <time>2022-12-22T12:08:50.626Z</time>
      </trkpt>
      <trkpt lat="45.64879" lon="-1.02451">
        <ele>66.27556</ele>
        <time>2022-12-22T12:08:53.590Z</time>
      </trkpt>
      <trkpt lat="45.64867" lon="-1.02447">
        <ele>66.131206</ele>
        <time>2022-12-22T12:08:56.649Z</time>
      </trkpt>
      <trkpt lat="45.64853" lon="-1.02445">
        <ele>66.037999</ele>
        <time>2022-12-22T12:08:59.585Z</time>
      </trkpt>
      <trkpt lat="45.64844" lon="-1.02443">
        <ele>65.973661</ele>
        <time>2022-12-22T12:09:01.582Z</time>
      </trkpt>
      <trkpt lat="45.64831" lon="-1.02439">
        <ele>65.882459</ele>
        <time>2022-12-22T12:09:04.578Z</time>
      </trkpt>
      <trkpt lat="45.64819" lon="-1.02438">
        <ele>65.796012</ele>
        <time>2022-12-22T12:09:07.566Z</time>
      </trkpt>
      <trkpt lat="45.64807" lon="-1.02438">
        <ele>65.713954</ele>
        <time>2022-12-22T12:09:10.579Z</time>
      </trkpt>
      <trkpt lat="45.64795" lon="-1.02439">
        <ele>65.628894</ele>
        <time>2022-12-22T12:09:13.579Z</time>
      </trkpt>
      <trkpt lat="45.64782" lon="-1.0244">
        <ele>65.538423</ele>
        <time>2022-12-22T12:09:16.581Z</time>
      </trkpt>
      <trkpt lat="45.64772" lon="-1.02441">
        <ele>65.471531</ele>
        <time>2022-12-22T12:09:18.580Z</time>
      </trkpt>
      <trkpt lat="45.64763" lon="-1.02441">
        <ele>65.40472</ele>
        <time>2022-12-22T12:09:20.580Z</time>
      </trkpt>
      <trkpt lat="45.64753" lon="-1.02441">
        <ele>65.337276</ele>
        <time>2022-12-22T12:09:22.578Z</time>
      </trkpt>
      <trkpt lat="45.64743" lon="-1.02442">
        <ele>65.269095</ele>
        <time>2022-12-22T12:09:24.582Z</time>
      </trkpt>
      <trkpt lat="45.64734" lon="-1.02442">
        <ele>65.205061</ele>
        <time>2022-12-22T12:09:26.583Z</time>
      </trkpt>
      <trkpt lat="45.64725" lon="-1.02442">
        <ele>65.141087</ele>
        <time>2022-12-22T12:09:28.583Z</time>
      </trkpt>
      <trkpt lat="45.64712" lon="-1.02443">
        <ele>65.052624</ele>
        <time>2022-12-22T12:09:31.654Z</time>
      </trkpt>
      <trkpt lat="45.647" lon="-1.02443">
        <ele>64.968488</ele>
        <time>2022-12-22T12:09:34.580Z</time>
      </trkpt>
      <trkpt lat="45.64688" lon="-1.02445">
        <ele>64.871113</ele>
        <time>2022-12-22T12:09:37.589Z</time>
      </trkpt>
      <trkpt lat="45.64676" lon="-1.02445">
        <ele>64.756882</ele>
        <time>2022-12-22T12:09:40.592Z</time>
      </trkpt>
      <trkpt lat="45.64663" lon="-1.02446">
        <ele>64.634215</ele>
        <time>2022-12-22T12:09:43.635Z</time>
      </trkpt>
      <trkpt lat="45.64649" lon="-1.02446">
        <ele>64.511596</ele>
        <time>2022-12-22T12:09:46.589Z</time>
      </trkpt>
      <trkpt lat="45.64637" lon="-1.02447">
        <ele>64.395473</ele>
        <time>2022-12-22T12:09:49.650Z</time>
      </trkpt>
      <trkpt lat="45.64626" lon="-1.02448">
        <ele>64.296023</ele>
        <time>2022-12-22T12:09:52.583Z</time>
      </trkpt>
      <trkpt lat="45.64615" lon="-1.02448">
        <ele>64.191008</ele>
        <time>2022-12-22T12:09:55.652Z</time>
      </trkpt>
      <trkpt lat="45.64603" lon="-1.0245">
        <ele>64.081605</ele>
        <time>2022-12-22T12:09:58.581Z</time>
      </trkpt>
      <trkpt lat="45.64591" lon="-1.02453">
        <ele>63.965426</ele>
        <time>2022-12-22T12:10:01.638Z</time>
      </trkpt>
      <trkpt lat="45.64579" lon="-1.02454">
        <ele>63.852895</ele>
        <time>2022-12-22T12:10:04.580Z</time>
      </trkpt>
      <trkpt lat="45.64568" lon="-1.02455">
        <ele>63.750237</ele>
        <time>2022-12-22T12:10:07.592Z</time>
      </trkpt>
      <trkpt lat="45.64556" lon="-1.02458">
        <ele>63.643252</ele>
        <time>2022-12-22T12:10:10.580Z</time>
      </trkpt>
      <trkpt lat="45.64543" lon="-1.0246">
        <ele>63.522632</ele>
        <time>2022-12-22T12:10:13.654Z</time>
      </trkpt>
      <trkpt lat="45.64531" lon="-1.02462">
        <ele>63.411141</ele>
        <time>2022-12-22T12:10:16.581Z</time>
      </trkpt>
      <trkpt lat="45.64521" lon="-1.02463">
        <ele>63.310565</ele>
        <time>2022-12-22T12:10:19.637Z</time>
      </trkpt>
      <trkpt lat="45.64511" lon="-1.02465">
        <ele>63.292688</ele>
        <time>2022-12-22T12:10:22.582Z</time>
      </trkpt>
      <trkpt lat="45.64501" lon="-1.02467">
        <ele>63.401045</ele>
        <time>2022-12-22T12:10:25.651Z</time>
      </trkpt>
      <trkpt lat="45.64491" lon="-1.02469">
        <ele>63.504538</ele>
        <time>2022-12-22T12:10:28.563Z</time>
      </trkpt>
      <trkpt lat="45.64482" lon="-1.0247">
        <ele>63.608753</ele>
        <time>2022-12-22T12:10:31.567Z</time>
      </trkpt>
      <trkpt lat="45.64469" lon="-1.02471">
        <ele>63.739971</ele>
        <time>2022-12-22T12:10:34.579Z</time>
      </trkpt>
      <trkpt lat="45.64456" lon="-1.02474">
        <ele>63.88166</ele>
        <time>2022-12-22T12:10:37.563Z</time>
      </trkpt>
      <trkpt lat="45.64443" lon="-1.02476">
        <ele>64.024493</ele>
        <time>2022-12-22T12:10:40.581Z</time>
      </trkpt>
      <trkpt lat="45.64431" lon="-1.02478">
        <ele>64.152127</ele>
        <time>2022-12-22T12:10:43.584Z</time>
      </trkpt>
      <trkpt lat="45.6442" lon="-1.0248">
        <ele>64.280661</ele>
        <time>2022-12-22T12:10:46.582Z</time>
      </trkpt>
      <trkpt lat="45.64408" lon="-1.02481">
        <ele>64.410048</ele>
        <time>2022-12-22T12:10:49.583Z</time>
      </trkpt>
      <trkpt lat="45.64396" lon="-1.02482">
        <ele>64.537924</ele>
        <time>2022-12-22T12:10:52.583Z</time>
      </trkpt>
      <trkpt lat="45.64384" lon="-1.02482">
        <ele>64.660377</ele>
        <time>2022-12-22T12:10:55.581Z</time>
      </trkpt>
      <trkpt lat="45.64374" lon="-1.02482">
        <ele>64.775319</ele>
        <time>2022-12-22T12:10:58.581Z</time>
      </trkpt>
      <trkpt lat="45.64363" lon="-1.02481">
        <ele>64.891334</ele>
        <time>2022-12-22T12:11:01.580Z</time>
      </trkpt>
      <trkpt lat="45.64351" lon="-1.02482">
        <ele>65.01272</ele>
        <time>2022-12-22T12:11:04.578Z</time>
      </trkpt>
      <trkpt lat="45.6434" lon="-1.02482">
        <ele>65.136247</ele>
        <time>2022-12-22T12:11:07.572Z</time>
      </trkpt>
      <trkpt lat="45.64329" lon="-1.02482">
        <ele>65.226392</ele>
        <time>2022-12-22T12:11:10.580Z</time>
      </trkpt>
      <trkpt lat="45.64317" lon="-1.02481">
        <ele>65.296939</ele>
        <time>2022-12-22T12:11:13.582Z</time>
      </trkpt>
      <trkpt lat="45.64305" lon="-1.02481">
        <ele>65.365677</ele>
        <time>2022-12-22T12:11:16.580Z</time>
      </trkpt>
      <trkpt lat="45.64295" lon="-1.0248">
        <ele>65.428019</ele>
        <time>2022-12-22T12:11:19.586Z</time>
      </trkpt>
      <trkpt lat="45.64284" lon="-1.0248">
        <ele>65.495567</ele>
        <time>2022-12-22T12:11:23.631Z</time>
      </trkpt>
      <trkpt lat="45.64275" lon="-1.0248">
        <ele>65.549831</ele>
        <time>2022-12-22T12:11:26.579Z</time>
      </trkpt>
      <trkpt lat="45.64263" lon="-1.0248">
        <ele>65.620986</ele>
        <time>2022-12-22T12:11:30.579Z</time>
      </trkpt>
      <trkpt lat="45.64252" lon="-1.0248">
        <ele>65.690323</ele>
        <time>2022-12-22T12:11:34.582Z</time>
      </trkpt>
      <trkpt lat="45.64242" lon="-1.0248">
        <ele>65.746396</ele>
        <time>2022-12-22T12:11:37.564Z</time>
      </trkpt>
      <trkpt lat="45.64233" lon="-1.02479">
        <ele>65.8007</ele>
        <time>2022-12-22T12:11:40.584Z</time>
      </trkpt>
      <trkpt lat="45.64224" lon="-1.02479">
        <ele>65.856194</ele>
        <time>2022-12-22T12:11:43.579Z</time>
      </trkpt>
      <trkpt lat="45.64214" lon="-1.02479">
        <ele>65.914677</ele>
        <time>2022-12-22T12:11:46.593Z</time>
      </trkpt>
      <trkpt lat="45.64204" lon="-1.02478">
        <ele>65.979841</ele>
        <time>2022-12-22T12:11:49.584Z</time>
      </trkpt>
      <trkpt lat="45.64193" lon="-1.02478">
        <ele>66.04683</ele>
        <time>2022-12-22T12:11:52.583Z</time>
      </trkpt>
      <trkpt lat="45.64182" lon="-1.02478">
        <ele>66.111947</ele>
        <time>2022-12-22T12:11:55.585Z</time>
      </trkpt>
      <trkpt lat="45.64171" lon="-1.02478">
        <ele>66.177111</ele>
        <time>2022-12-22T12:11:58.655Z</time>
      </trkpt>
      <trkpt lat="45.6416" lon="-1.02479">
        <ele>66.242362</ele>
        <time>2022-12-22T12:12:01.591Z</time>
      </trkpt>
      <trkpt lat="45.64149" lon="-1.0248">
        <ele>66.092655</ele>
        <time>2022-12-22T12:12:04.635Z</time>
      </trkpt>
      <trkpt lat="45.64139" lon="-1.02481">
        <ele>65.804238</ele>
        <time>2022-12-22T12:12:07.572Z</time>
      </trkpt>
      <trkpt lat="45.64127" lon="-1.02482">
        <ele>65.4882</ele>
        <time>2022-12-22T12:12:10.605Z</time>
      </trkpt>
      <trkpt lat="45.64115" lon="-1.02483">
        <ele>65.156482</ele>
        <time>2022-12-22T12:12:13.585Z</time>
      </trkpt>
      <trkpt lat="45.64103" lon="-1.02486">
        <ele>64.819587</ele>
        <time>2022-12-22T12:12:16.635Z</time>
      </trkpt>
      <trkpt lat="45.64091" lon="-1.02489">
        <ele>64.491708</ele>
        <time>2022-12-22T12:12:19.581Z</time>
      </trkpt>
      <trkpt lat="45.64079" lon="-1.02492">
        <ele>64.156773</ele>
        <time>2022-12-22T12:12:22.635Z</time>
      </trkpt>
      <trkpt lat="45.64065" lon="-1.02496">
        <ele>63.792134</ele>
        <time>2022-12-22T12:12:25.582Z</time>
      </trkpt>
      <trkpt lat="45.64056" lon="-1.02498">
        <ele>63.543809</ele>
        <time>2022-12-22T12:12:27.575Z</time>
      </trkpt>
      <trkpt lat="45.64047" lon="-1.025">
        <ele>63.28808</ele>
        <time>2022-12-22T12:12:29.583Z</time>
      </trkpt>
      <trkpt lat="45.64038" lon="-1.02502">
        <ele>63.033658</ele>
        <time>2022-12-22T12:12:31.579Z</time>
      </trkpt>
      <trkpt lat="45.64028" lon="-1.02504">
        <ele>62.768955</ele>
        <time>2022-12-22T12:12:33.580Z</time>
      </trkpt>
      <trkpt lat="45.64018" lon="-1.02506">
        <ele>62.494429</ele>
        <time>2022-12-22T12:12:35.589Z</time>
      </trkpt>
      <trkpt lat="45.64008" lon="-1.02508">
        <ele>62.210321</ele>
        <time>2022-12-22T12:12:37.573Z</time>
      </trkpt>
      <trkpt lat="45.63997" lon="-1.0251">
        <ele>61.917462</ele>
        <time>2022-12-22T12:12:39.641Z</time>
      </trkpt>
      <trkpt lat="45.63986" lon="-1.0251">
        <ele>61.629551</ele>
        <time>2022-12-22T12:12:41.584Z</time>
      </trkpt>
      <trkpt lat="45.63977" lon="-1.02511">
        <ele>61.394101</ele>
        <time>2022-12-22T12:12:43.581Z</time>
      </trkpt>
      <trkpt lat="45.63968" lon="-1.02516">
        <ele>61.513449</ele>
        <time>2022-12-22T12:12:45.594Z</time>
      </trkpt>
      <trkpt lat="45.6396" lon="-1.0253">
        <ele>61.676036</ele>
        <time>2022-12-22T12:12:48.580Z</time>
      </trkpt>
      <trkpt lat="45.63954" lon="-1.02546">
        <ele>61.829005</ele>
        <time>2022-12-22T12:12:51.586Z</time>
      </trkpt>
      <trkpt lat="45.63946" lon="-1.02559">
        <ele>61.986739</ele>
        <time>2022-12-22T12:12:54.580Z</time>
      </trkpt>
      <trkpt lat="45.63935" lon="-1.02567">
        <ele>62.138579</ele>
        <time>2022-12-22T12:12:57.565Z</time>
      </trkpt>
      <trkpt lat="45.63925" lon="-1.02572">
        <ele>62.27355</ele>
        <time>2022-12-22T12:13:00.584Z</time>
      </trkpt>
      <trkpt lat="45.63915" lon="-1.02574">
        <ele>62.398115</ele>
        <time>2022-12-22T12:13:03.581Z</time>
      </trkpt>
      <trkpt lat="45.63907" lon="-1.0258">
        <ele>62.518596</ele>
        <time>2022-12-22T12:13:06.578Z</time>
      </trkpt>
      <trkpt lat="45.639" lon="-1.02592">
        <ele>62.659076</ele>
        <time>2022-12-22T12:13:09.592Z</time>
      </trkpt>
      <trkpt lat="45.63894" lon="-1.02607">
        <ele>62.809214</ele>
        <time>2022-12-22T12:13:12.581Z</time>
      </trkpt>
      <trkpt lat="45.63888" lon="-1.02621">
        <ele>62.953483</ele>
        <time>2022-12-22T12:13:15.586Z</time>
      </trkpt>
      <trkpt lat="45.63883" lon="-1.02635">
        <ele>63.093122</ele>
        <time>2022-12-22T12:13:18.581Z</time>
      </trkpt>
      <trkpt lat="45.63877" lon="-1.02649">
        <ele>63.237266</ele>
        <time>2022-12-22T12:13:21.581Z</time>
      </trkpt>
      <trkpt lat="45.6387" lon="-1.02661">
        <ele>63.375836</ele>
        <time>2022-12-22T12:13:25.579Z</time>
      </trkpt>
      <trkpt lat="45.63863" lon="-1.02674">
        <ele>63.518301</ele>
        <time>2022-12-22T12:13:29.579Z</time>
      </trkpt>
      <trkpt lat="45.63857" lon="-1.02684">
        <ele>63.641689</ele>
        <time>2022-12-22T12:13:32.644Z</time>
      </trkpt>
      <trkpt lat="45.6385" lon="-1.02695">
        <ele>63.849593</ele>
        <time>2022-12-22T12:13:35.580Z</time>
      </trkpt>
      <trkpt lat="45.63844" lon="-1.02706">
        <ele>64.072537</ele>
        <time>2022-12-22T12:13:38.624Z</time>
      </trkpt>
      <trkpt lat="45.63837" lon="-1.02717">
        <ele>64.309095</ele>
        <time>2022-12-22T12:13:42.590Z</time>
      </trkpt>
      <trkpt lat="45.6383" lon="-1.02729">
        <ele>64.545863</ele>
        <time>2022-12-22T12:13:46.596Z</time>
      </trkpt>
      <trkpt lat="45.63822" lon="-1.02741">
        <ele>64.802096</ele>
        <time>2022-12-22T12:13:50.629Z</time>
      </trkpt>
      <trkpt lat="45.63814" lon="-1.02751">
        <ele>65.044372</ele>
        <time>2022-12-22T12:13:54.586Z</time>
      </trkpt>
      <trkpt lat="45.63806" lon="-1.0276">
        <ele>65.26646</ele>
        <time>2022-12-22T12:13:58.574Z</time>
      </trkpt>
      <trkpt lat="45.63799" lon="-1.02768">
        <ele>65.467853</ele>
        <time>2022-12-22T12:14:01.563Z</time>
      </trkpt>
      <trkpt lat="45.63792" lon="-1.02777">
        <ele>65.679349</ele>
        <time>2022-12-22T12:14:04.593Z</time>
      </trkpt>
      <trkpt lat="45.63785" lon="-1.02785">
        <ele>65.881495</ele>
        <time>2022-12-22T12:14:07.624Z</time>
      </trkpt>
      <trkpt lat="45.63776" lon="-1.02794">
        <ele>66.129532</ele>
        <time>2022-12-22T12:14:11.561Z</time>
      </trkpt>
      <trkpt lat="45.63768" lon="-1.02801">
        <ele>66.336665</ele>
        <time>2022-12-22T12:14:14.587Z</time>
      </trkpt>
      <trkpt lat="45.63759" lon="-1.02809">
        <ele>66.569294</ele>
        <time>2022-12-22T12:14:17.562Z</time>
      </trkpt>
      <trkpt lat="45.6375" lon="-1.02816">
        <ele>66.790715</ele>
        <time>2022-12-22T12:14:20.579Z</time>
      </trkpt>
      <trkpt lat="45.63741" lon="-1.02823">
        <ele>67.024136</ele>
        <time>2022-12-22T12:14:23.583Z</time>
      </trkpt>
      <trkpt lat="45.63731" lon="-1.0283">
        <ele>67.256614</ele>
        <time>2022-12-22T12:14:26.578Z</time>
      </trkpt>
      <trkpt lat="45.63723" lon="-1.02835">
        <ele>67.464226</ele>
        <time>2022-12-22T12:14:29.580Z</time>
      </trkpt>
      <trkpt lat="45.63714" lon="-1.02841">
        <ele>67.670337</ele>
        <time>2022-12-22T12:14:32.580Z</time>
      </trkpt>
      <trkpt lat="45.63704" lon="-1.02846">
        <ele>67.755573</ele>
        <time>2022-12-22T12:14:36.585Z</time>
      </trkpt>
      <trkpt lat="45.63694" lon="-1.02851">
        <ele>67.830987</ele>
        <time>2022-12-22T12:14:39.647Z</time>
      </trkpt>
      <trkpt lat="45.63684" lon="-1.02856">
        <ele>67.91074</ele>
        <time>2022-12-22T12:14:42.588Z</time>
      </trkpt>
      <trkpt lat="45.63675" lon="-1.02858">
        <ele>67.980663</ele>
        <time>2022-12-22T12:14:45.646Z</time>
      </trkpt>
      <trkpt lat="45.63666" lon="-1.02863">
        <ele>68.04964</ele>
        <time>2022-12-22T12:14:48.583Z</time>
      </trkpt>
      <trkpt lat="45.63658" lon="-1.0287">
        <ele>68.123392</ele>
        <time>2022-12-22T12:14:51.584Z</time>
      </trkpt>
      <trkpt lat="45.63648" lon="-1.02876">
        <ele>68.205267</ele>
        <time>2022-12-22T12:14:54.581Z</time>
      </trkpt>
      <trkpt lat="45.63637" lon="-1.02878">
        <ele>68.290737</ele>
        <time>2022-12-22T12:14:57.566Z</time>
      </trkpt>
      <trkpt lat="45.63625" lon="-1.02876">
        <ele>68.37871</ele>
        <time>2022-12-22T12:15:00.580Z</time>
      </trkpt>
      <trkpt lat="45.63614" lon="-1.02874">
        <ele>68.460969</ele>
        <time>2022-12-22T12:15:03.579Z</time>
      </trkpt>
      <trkpt lat="45.63603" lon="-1.02876">
        <ele>68.545632</ele>
        <time>2022-12-22T12:15:06.578Z</time>
      </trkpt>
      <trkpt lat="45.63592" lon="-1.0288">
        <ele>68.630285</ele>
        <time>2022-12-22T12:15:09.563Z</time>
      </trkpt>
      <trkpt lat="45.63582" lon="-1.02882">
        <ele>68.705897</ele>
        <time>2022-12-22T12:15:12.587Z</time>
      </trkpt>
      <trkpt lat="45.63571" lon="-1.02884">
        <ele>68.786522</ele>
        <time>2022-12-22T12:15:15.591Z</time>
      </trkpt>
      <trkpt lat="45.6356" lon="-1.02885">
        <ele>68.87082</ele>
        <time>2022-12-22T12:15:18.583Z</time>
      </trkpt>
      <trkpt lat="45.63549" lon="-1.02887">
        <ele>68.956419</ele>
        <time>2022-12-22T12:15:21.569Z</time>
      </trkpt>
      <trkpt lat="45.63537" lon="-1.02889">
        <ele>69.005842</ele>
        <time>2022-12-22T12:15:24.581Z</time>
      </trkpt>
      <trkpt lat="45.63526" lon="-1.02891">
        <ele>68.969905</ele>
        <time>2022-12-22T12:15:27.569Z</time>
      </trkpt>
      <trkpt lat="45.63515" lon="-1.02894">
        <ele>68.935761</ele>
        <time>2022-12-22T12:15:30.585Z</time>
      </trkpt>
      <trkpt lat="45.63505" lon="-1.02897">
        <ele>68.905642</ele>
        <time>2022-12-22T12:15:33.584Z</time>
      </trkpt>
      <trkpt lat="45.63496" lon="-1.02899">
        <ele>68.877225</ele>
        <time>2022-12-22T12:15:37.561Z</time>
      </trkpt>
      <trkpt lat="45.63486" lon="-1.02903">
        <ele>68.843624</ele>
        <time>2022-12-22T12:15:44.581Z</time>
      </trkpt>
      <trkpt lat="45.63474" lon="-1.02908">
        <ele>68.806526</ele>
        <time>2022-12-22T12:15:48.581Z</time>
      </trkpt>
      <trkpt lat="45.63463" lon="-1.0291">
        <ele>68.77218</ele>
        <time>2022-12-22T12:15:51.581Z</time>
      </trkpt>
      <trkpt lat="45.63451" lon="-1.02913">
        <ele>68.736003</ele>
        <time>2022-12-22T12:15:54.582Z</time>
      </trkpt>
      <trkpt lat="45.6344" lon="-1.02915">
        <ele>68.700742</ele>
        <time>2022-12-22T12:15:57.575Z</time>
      </trkpt>
      <trkpt lat="45.6343" lon="-1.02917">
        <ele>68.670054</ele>
        <time>2022-12-22T12:16:00.579Z</time>
      </trkpt>
      <trkpt lat="45.63419" lon="-1.0292">
        <ele>68.635945</ele>
        <time>2022-12-22T12:16:03.587Z</time>
      </trkpt>
      <trkpt lat="45.63408" lon="-1.02923">
        <ele>68.60039</ele>
        <time>2022-12-22T12:16:06.578Z</time>
      </trkpt>
      <trkpt lat="45.63397" lon="-1.0293">
        <ele>68.563</ele>
        <time>2022-12-22T12:16:09.561Z</time>
      </trkpt>
      <trkpt lat="45.63386" lon="-1.02938">
        <ele>68.52638</ele>
        <time>2022-12-22T12:16:12.584Z</time>
      </trkpt>
      <trkpt lat="45.63378" lon="-1.02946">
        <ele>68.494831</ele>
        <time>2022-12-22T12:16:15.582Z</time>
      </trkpt>
      <trkpt lat="45.63369" lon="-1.02955">
        <ele>68.455513</ele>
        <time>2022-12-22T12:16:19.583Z</time>
      </trkpt>
      <trkpt lat="45.63361" lon="-1.02965">
        <ele>68.04957</ele>
        <time>2022-12-22T12:16:23.568Z</time>
      </trkpt>
      <trkpt lat="45.63352" lon="-1.02975">
        <ele>67.661108</ele>
        <time>2022-12-22T12:16:26.592Z</time>
      </trkpt>
      <trkpt lat="45.63344" lon="-1.02986">
        <ele>67.245694</ele>
        <time>2022-12-22T12:16:29.591Z</time>
      </trkpt>
      <trkpt lat="45.63336" lon="-1.02998">
        <ele>66.824007</ele>
        <time>2022-12-22T12:16:32.579Z</time>
      </trkpt>
      <trkpt lat="45.63327" lon="-1.03011">
        <ele>66.372117</ele>
        <time>2022-12-22T12:16:35.582Z</time>
      </trkpt>
      <trkpt lat="45.6332" lon="-1.0302">
        <ele>66.046427</ele>
        <time>2022-12-22T12:16:37.572Z</time>
      </trkpt>
      <trkpt lat="45.63313" lon="-1.03028">
        <ele>65.714133</ele>
        <time>2022-12-22T12:16:39.636Z</time>
      </trkpt>
      <trkpt lat="45.63303" lon="-1.03042">
        <ele>65.217238</ele>
        <time>2022-12-22T12:16:42.581Z</time>
      </trkpt>
      <trkpt lat="45.63297" lon="-1.03051">
        <ele>64.891807</ele>
        <time>2022-12-22T12:16:44.580Z</time>
      </trkpt>
      <trkpt lat="45.6329" lon="-1.03061">
        <ele>64.561518</ele>
        <time>2022-12-22T12:16:46.578Z</time>
      </trkpt>
      <trkpt lat="45.63282" lon="-1.03074">
        <ele>64.109269</ele>
        <time>2022-12-22T12:16:49.583Z</time>
      </trkpt>
      <trkpt lat="45.63276" lon="-1.03085">
        <ele>63.761949</ele>
        <time>2022-12-22T12:16:51.638Z</time>
      </trkpt>
      <trkpt lat="45.63269" lon="-1.03095">
        <ele>63.422711</ele>
        <time>2022-12-22T12:16:53.583Z</time>
      </trkpt>
      <trkpt lat="45.6326" lon="-1.03108">
        <ele>62.952524</ele>
        <time>2022-12-22T12:16:56.588Z</time>
      </trkpt>
      <trkpt lat="45.63251" lon="-1.03121">
        <ele>62.497227</ele>
        <time>2022-12-22T12:16:59.569Z</time>
      </trkpt>
      <trkpt lat="45.63241" lon="-1.03133">
        <ele>62.02889</ele>
        <time>2022-12-22T12:17:02.586Z</time>
      </trkpt>
      <trkpt lat="45.63233" lon="-1.03143">
        <ele>61.823882</ele>
        <time>2022-12-22T12:17:05.579Z</time>
      </trkpt>
      <trkpt lat="45.63225" lon="-1.0315">
        <ele>61.667595</ele>
        <time>2022-12-22T12:17:08.582Z</time>
      </trkpt>
      <trkpt lat="45.63217" lon="-1.03159">
        <ele>61.488129</ele>
        <time>2022-12-22T12:17:13.569Z</time>
      </trkpt>
      <trkpt lat="45.63198" lon="-1.03182">
        <ele>61.064972</ele>
        <time>2022-12-22T12:17:59.639Z</time>
      </trkpt>
      <trkpt lat="45.63197" lon="-1.032">
        <ele>60.849523</ele>
        <time>2022-12-22T12:18:02.581Z</time>
      </trkpt>
      <trkpt lat="45.63199" lon="-1.03217">
        <ele>60.640573</ele>
        <time>2022-12-22T12:18:05.580Z</time>
      </trkpt>
      <trkpt lat="45.63202" lon="-1.03235">
        <ele>60.418407</ele>
        <time>2022-12-22T12:18:08.586Z</time>
      </trkpt>
      <trkpt lat="45.63204" lon="-1.03253">
        <ele>60.194025</ele>
        <time>2022-12-22T12:18:11.587Z</time>
      </trkpt>
      <trkpt lat="45.63204" lon="-1.03272">
        <ele>59.974751</ele>
        <time>2022-12-22T12:18:14.590Z</time>
      </trkpt>
      <trkpt lat="45.63203" lon="-1.03289">
        <ele>59.760123</ele>
        <time>2022-12-22T12:18:17.570Z</time>
      </trkpt>
      <trkpt lat="45.63203" lon="-1.03309">
        <ele>59.52759</ele>
        <time>2022-12-22T12:18:20.564Z</time>
      </trkpt>
      <trkpt lat="45.63203" lon="-1.03327">
        <ele>59.303258</ele>
        <time>2022-12-22T12:18:23.565Z</time>
      </trkpt>
      <trkpt lat="45.63203" lon="-1.03345">
        <ele>59.085182</ele>
        <time>2022-12-22T12:18:26.587Z</time>
      </trkpt>
      <trkpt lat="45.63202" lon="-1.03363">
        <ele>58.922276</ele>
        <time>2022-12-22T12:18:29.573Z</time>
      </trkpt>
      <trkpt lat="45.63202" lon="-1.03379">
        <ele>59.134106</ele>
        <time>2022-12-22T12:18:32.568Z</time>
      </trkpt>
      <trkpt lat="45.63202" lon="-1.03395">
        <ele>59.353887</ele>
        <time>2022-12-22T12:18:35.582Z</time>
      </trkpt>
      <trkpt lat="45.63202" lon="-1.03411">
        <ele>59.565725</ele>
        <time>2022-12-22T12:18:38.581Z</time>
      </trkpt>
      <trkpt lat="45.63202" lon="-1.03426">
        <ele>59.761676</ele>
        <time>2022-12-22T12:18:41.581Z</time>
      </trkpt>
      <trkpt lat="45.63203" lon="-1.03443">
        <ele>59.985933</ele>
        <time>2022-12-22T12:18:45.642Z</time>
      </trkpt>
      <trkpt lat="45.63203" lon="-1.03459">
        <ele>60.204456</ele>
        <time>2022-12-22T12:18:49.570Z</time>
      </trkpt>
      <trkpt lat="45.63203" lon="-1.03475">
        <ele>60.41301</ele>
        <time>2022-12-22T12:18:53.582Z</time>
      </trkpt>
      <trkpt lat="45.63201" lon="-1.0349">
        <ele>60.60838</ele>
        <time>2022-12-22T12:18:57.600Z</time>
      </trkpt>
      <trkpt lat="45.63199" lon="-1.03505">
        <ele>60.816477</ele>
        <time>2022-12-22T12:19:01.593Z</time>
      </trkpt>
      <trkpt lat="45.63195" lon="-1.0352">
        <ele>61.025187</ele>
        <time>2022-12-22T12:19:05.583Z</time>
      </trkpt>
      <trkpt lat="45.63191" lon="-1.03535">
        <ele>61.235946</ele>
        <time>2022-12-22T12:19:09.632Z</time>
      </trkpt>
      <trkpt lat="45.63186" lon="-1.03548">
        <ele>61.431749</ele>
        <time>2022-12-22T12:19:13.586Z</time>
      </trkpt>
      <trkpt lat="45.6318" lon="-1.03562">
        <ele>61.650273</ele>
        <time>2022-12-22T12:19:17.579Z</time>
      </trkpt>
      <trkpt lat="45.63174" lon="-1.03575">
        <ele>61.855384</ele>
        <time>2022-12-22T12:19:21.652Z</time>
      </trkpt>
      <trkpt lat="45.63166" lon="-1.03587">
        <ele>62.069456</ele>
        <time>2022-12-22T12:19:25.568Z</time>
      </trkpt>
      <trkpt lat="45.6316" lon="-1.03596">
        <ele>62.248092</ele>
        <time>2022-12-22T12:19:28.593Z</time>
      </trkpt>
      <trkpt lat="45.63153" lon="-1.03607">
        <ele>62.326476</ele>
        <time>2022-12-22T12:19:31.592Z</time>
      </trkpt>
      <trkpt lat="45.63146" lon="-1.03617">
        <ele>62.357687</ele>
        <time>2022-12-22T12:19:34.571Z</time>
      </trkpt>
      <trkpt lat="45.63139" lon="-1.03628">
        <ele>62.388687</ele>
        <time>2022-12-22T12:19:37.571Z</time>
      </trkpt>
      <trkpt lat="45.63132" lon="-1.03639">
        <ele>62.420666</ele>
        <time>2022-12-22T12:19:40.574Z</time>
      </trkpt>
      <trkpt lat="45.63125" lon="-1.03649">
        <ele>62.452836</ele>
        <time>2022-12-22T12:19:43.592Z</time>
      </trkpt>
      <trkpt lat="45.63118" lon="-1.03661">
        <ele>62.485718</ele>
        <time>2022-12-22T12:19:46.587Z</time>
      </trkpt>
      <trkpt lat="45.63112" lon="-1.03672">
        <ele>62.517532</ele>
        <time>2022-12-22T12:19:49.566Z</time>
      </trkpt>
      <trkpt lat="45.63105" lon="-1.03682">
        <ele>62.54976</ele>
        <time>2022-12-22T12:19:52.594Z</time>
      </trkpt>
      <trkpt lat="45.63097" lon="-1.03695">
        <ele>62.585351</ele>
        <time>2022-12-22T12:19:55.566Z</time>
      </trkpt>
      <trkpt lat="45.63089" lon="-1.03707">
        <ele>62.622259</ele>
        <time>2022-12-22T12:19:58.591Z</time>
      </trkpt>
      <trkpt lat="45.63082" lon="-1.0372">
        <ele>62.658714</ele>
        <time>2022-12-22T12:20:01.582Z</time>
      </trkpt>
      <trkpt lat="45.63075" lon="-1.03732">
        <ele>62.692765</ele>
        <time>2022-12-22T12:20:04.569Z</time>
      </trkpt>
      <trkpt lat="45.63068" lon="-1.03743">
        <ele>62.724141</ele>
        <time>2022-12-22T12:20:07.577Z</time>
      </trkpt>
      <trkpt lat="45.63062" lon="-1.03754">
        <ele>62.753912</ele>
        <time>2022-12-22T12:20:10.581Z</time>
      </trkpt>
      <trkpt lat="45.63055" lon="-1.03764">
        <ele>62.785236</ele>
        <time>2022-12-22T12:20:13.584Z</time>
      </trkpt>
      <trkpt lat="45.63048" lon="-1.03775">
        <ele>62.817995</ele>
        <time>2022-12-22T12:20:16.580Z</time>
      </trkpt>
      <trkpt lat="45.6304" lon="-1.03786">
        <ele>62.852314</ele>
        <time>2022-12-22T12:20:19.581Z</time>
      </trkpt>
      <trkpt lat="45.63033" lon="-1.03797">
        <ele>62.901578</ele>
        <time>2022-12-22T12:20:22.592Z</time>
      </trkpt>
      <trkpt lat="45.63025" lon="-1.03807">
        <ele>62.958801</ele>
        <time>2022-12-22T12:20:25.581Z</time>
      </trkpt>
      <trkpt lat="45.63017" lon="-1.03819">
        <ele>63.020153</ele>
        <time>2022-12-22T12:20:28.566Z</time>
      </trkpt>
      <trkpt lat="45.63009" lon="-1.03831">
        <ele>63.083265</ele>
        <time>2022-12-22T12:20:31.579Z</time>
      </trkpt>
      <trkpt lat="45.63001" lon="-1.03843">
        <ele>63.146272</ele>
        <time>2022-12-22T12:20:34.582Z</time>
      </trkpt>
      <trkpt lat="45.62992" lon="-1.03854">
        <ele>63.210725</ele>
        <time>2022-12-22T12:20:37.572Z</time>
      </trkpt>
      <trkpt lat="45.62984" lon="-1.03865">
        <ele>63.271503</ele>
        <time>2022-12-22T12:20:40.581Z</time>
      </trkpt>
      <trkpt lat="45.62976" lon="-1.03878">
        <ele>63.340104</ele>
        <time>2022-12-22T12:20:43.583Z</time>
      </trkpt>
      <trkpt lat="45.62967" lon="-1.03891">
        <ele>63.409192</ele>
        <time>2022-12-22T12:20:46.585Z</time>
      </trkpt>
      <trkpt lat="45.62958" lon="-1.03903">
        <ele>63.474435</ele>
        <time>2022-12-22T12:20:49.578Z</time>
      </trkpt>
      <trkpt lat="45.62951" lon="-1.03913">
        <ele>63.53127</ele>
        <time>2022-12-22T12:20:52.580Z</time>
      </trkpt>
      <trkpt lat="45.62943" lon="-1.03924">
        <ele>63.589298</ele>
        <time>2022-12-22T12:20:55.587Z</time>
      </trkpt>
      <trkpt lat="45.62936" lon="-1.03936">
        <ele>63.650658</ele>
        <time>2022-12-22T12:20:58.579Z</time>
      </trkpt>
      <trkpt lat="45.62928" lon="-1.03948">
        <ele>63.711585</ele>
        <time>2022-12-22T12:21:01.648Z</time>
      </trkpt>
      <trkpt lat="45.62922" lon="-1.0396">
        <ele>63.768853</ele>
        <time>2022-12-22T12:21:04.579Z</time>
      </trkpt>
      <trkpt lat="45.62915" lon="-1.03972">
        <ele>63.830008</ele>
        <time>2022-12-22T12:21:07.608Z</time>
      </trkpt>
      <trkpt lat="45.62908" lon="-1.03985">
        <ele>63.879085</ele>
        <time>2022-12-22T12:21:10.584Z</time>
      </trkpt>
      <trkpt lat="45.629" lon="-1.03998">
        <ele>63.924993</ele>
        <time>2022-12-22T12:21:13.595Z</time>
      </trkpt>
      <trkpt lat="45.62893" lon="-1.04011">
        <ele>63.972163</ele>
        <time>2022-12-22T12:21:16.580Z</time>
      </trkpt>
      <trkpt lat="45.62886" lon="-1.04025">
        <ele>64.020449</ele>
        <time>2022-12-22T12:21:19.618Z</time>
      </trkpt>
      <trkpt lat="45.62879" lon="-1.0404">
        <ele>64.069425</ele>
        <time>2022-12-22T12:21:22.585Z</time>
      </trkpt>
      <trkpt lat="45.62873" lon="-1.04054">
        <ele>64.117261</ele>
        <time>2022-12-22T12:21:25.653Z</time>
      </trkpt>
      <trkpt lat="45.62866" lon="-1.04068">
        <ele>64.16556</ele>
        <time>2022-12-22T12:21:28.584Z</time>
      </trkpt>
      <trkpt lat="45.6286" lon="-1.04082">
        <ele>64.211835</ele>
        <time>2022-12-22T12:21:31.583Z</time>
      </trkpt>
      <trkpt lat="45.62854" lon="-1.04096">
        <ele>64.258346</ele>
        <time>2022-12-22T12:21:34.578Z</time>
      </trkpt>
      <trkpt lat="45.62848" lon="-1.04109">
        <ele>64.300937</ele>
        <time>2022-12-22T12:21:37.570Z</time>
      </trkpt>
      <trkpt lat="45.62841" lon="-1.04123">
        <ele>64.346252</ele>
        <time>2022-12-22T12:21:40.591Z</time>
      </trkpt>
      <trkpt lat="45.62835" lon="-1.04136">
        <ele>64.392021</ele>
        <time>2022-12-22T12:21:43.567Z</time>
      </trkpt>
      <trkpt lat="45.62829" lon="-1.0415">
        <ele>64.437356</ele>
        <time>2022-12-22T12:21:46.581Z</time>
      </trkpt>
      <trkpt lat="45.62822" lon="-1.04164">
        <ele>64.485238</ele>
        <time>2022-12-22T12:21:49.559Z</time>
      </trkpt>
      <trkpt lat="45.62816" lon="-1.04179">
        <ele>64.533786</ele>
        <time>2022-12-22T12:21:52.579Z</time>
      </trkpt>
      <trkpt lat="45.6281" lon="-1.04192">
        <ele>64.545349</ele>
        <time>2022-12-22T12:21:55.587Z</time>
      </trkpt>
      <trkpt lat="45.62802" lon="-1.04206">
        <ele>64.480882</ele>
        <time>2022-12-22T12:21:58.582Z</time>
      </trkpt>
      <trkpt lat="45.62795" lon="-1.04221">
        <ele>64.414614</ele>
        <time>2022-12-22T12:22:01.584Z</time>
      </trkpt>
      <trkpt lat="45.62788" lon="-1.04235">
        <ele>64.351247</ele>
        <time>2022-12-22T12:22:04.582Z</time>
      </trkpt>
      <trkpt lat="45.62782" lon="-1.04248">
        <ele>64.294566</ele>
        <time>2022-12-22T12:22:07.577Z</time>
      </trkpt>
      <trkpt lat="45.62775" lon="-1.0426">
        <ele>64.238672</ele>
        <time>2022-12-22T12:22:10.565Z</time>
      </trkpt>
      <trkpt lat="45.62766" lon="-1.04271">
        <ele>64.177428</ele>
        <time>2022-12-22T12:22:13.583Z</time>
      </trkpt>
      <trkpt lat="45.62757" lon="-1.04281">
        <ele>64.115496</ele>
        <time>2022-12-22T12:22:16.579Z</time>
      </trkpt>
      <trkpt lat="45.62747" lon="-1.04292">
        <ele>64.052002</ele>
        <time>2022-12-22T12:22:19.567Z</time>
      </trkpt>
      <trkpt lat="45.62738" lon="-1.04303">
        <ele>63.987686</ele>
        <time>2022-12-22T12:22:22.587Z</time>
      </trkpt>
      <trkpt lat="45.62728" lon="-1.04313">
        <ele>63.925125</ele>
        <time>2022-12-22T12:22:25.585Z</time>
      </trkpt>
      <trkpt lat="45.62718" lon="-1.04322">
        <ele>63.86012</ele>
        <time>2022-12-22T12:22:28.587Z</time>
      </trkpt>
      <trkpt lat="45.62708" lon="-1.0433">
        <ele>63.800345</ele>
        <time>2022-12-22T12:22:31.583Z</time>
      </trkpt>
      <trkpt lat="45.62699" lon="-1.04338">
        <ele>63.745662</ele>
        <time>2022-12-22T12:22:34.580Z</time>
      </trkpt>
      <trkpt lat="45.6269" lon="-1.04347">
        <ele>63.688828</ele>
        <time>2022-12-22T12:22:37.570Z</time>
      </trkpt>
      <trkpt lat="45.6268" lon="-1.04356">
        <ele>63.629209</ele>
        <time>2022-12-22T12:22:40.635Z</time>
      </trkpt>
      <trkpt lat="45.6267" lon="-1.04365">
        <ele>63.704116</ele>
        <time>2022-12-22T12:22:43.584Z</time>
      </trkpt>
      <trkpt lat="45.62659" lon="-1.04374">
        <ele>63.79622</ele>
        <time>2022-12-22T12:22:46.648Z</time>
      </trkpt>
      <trkpt lat="45.62649" lon="-1.04383">
        <ele>63.883622</ele>
        <time>2022-12-22T12:22:49.592Z</time>
      </trkpt>
      <trkpt lat="45.6264" lon="-1.0439">
        <ele>63.95852</ele>
        <time>2022-12-22T12:22:52.648Z</time>
      </trkpt>
      <trkpt lat="45.62632" lon="-1.04397">
        <ele>64.028866</ele>
        <time>2022-12-22T12:22:55.581Z</time>
      </trkpt>
      <trkpt lat="45.62624" lon="-1.04405">
        <ele>64.101838</ele>
        <time>2022-12-22T12:22:58.611Z</time>
      </trkpt>
      <trkpt lat="45.62616" lon="-1.04413">
        <ele>64.175131</ele>
        <time>2022-12-22T12:23:01.593Z</time>
      </trkpt>
      <trkpt lat="45.62607" lon="-1.0442">
        <ele>64.247727</ele>
        <time>2022-12-22T12:23:04.597Z</time>
      </trkpt>
      <trkpt lat="45.62598" lon="-1.04426">
        <ele>64.323144</ele>
        <time>2022-12-22T12:23:07.567Z</time>
      </trkpt>
      <trkpt lat="45.62587" lon="-1.0443">
        <ele>64.404995</ele>
        <time>2022-12-22T12:23:11.581Z</time>
      </trkpt>
      <trkpt lat="45.62577" lon="-1.04432">
        <ele>64.482618</ele>
        <time>2022-12-22T12:23:15.625Z</time>
      </trkpt>
      <trkpt lat="45.62565" lon="-1.04436">
        <ele>64.572674</ele>
        <time>2022-12-22T12:23:19.566Z</time>
      </trkpt>
      <trkpt lat="45.62555" lon="-1.0444">
        <ele>64.650223</ele>
        <time>2022-12-22T12:23:22.590Z</time>
      </trkpt>
      <trkpt lat="45.62545" lon="-1.04443">
        <ele>64.728868</ele>
        <time>2022-12-22T12:23:25.586Z</time>
      </trkpt>
      <trkpt lat="45.62534" lon="-1.04447">
        <ele>64.81169</ele>
        <time>2022-12-22T12:23:28.580Z</time>
      </trkpt>
      <trkpt lat="45.62524" lon="-1.04451">
        <ele>64.886321</ele>
        <time>2022-12-22T12:23:31.593Z</time>
      </trkpt>
      <trkpt lat="45.62515" lon="-1.04452">
        <ele>64.954222</ele>
        <time>2022-12-22T12:23:34.592Z</time>
      </trkpt>
      <trkpt lat="45.62503" lon="-1.04454">
        <ele>64.518272</ele>
        <time>2022-12-22T12:23:38.591Z</time>
      </trkpt>
      <trkpt lat="45.62492" lon="-1.04457">
        <ele>64.100008</ele>
        <time>2022-12-22T12:23:41.588Z</time>
      </trkpt>
      <trkpt lat="45.62481" lon="-1.04462">
        <ele>63.653453</ele>
        <time>2022-12-22T12:23:44.589Z</time>
      </trkpt>
      <trkpt lat="45.62469" lon="-1.04468">
        <ele>63.208396</ele>
        <time>2022-12-22T12:23:47.571Z</time>
      </trkpt>
      <trkpt lat="45.62458" lon="-1.04474">
        <ele>62.759823</ele>
        <time>2022-12-22T12:23:50.587Z</time>
      </trkpt>
      <trkpt lat="45.62448" lon="-1.04481">
        <ele>62.331936</ele>
        <time>2022-12-22T12:23:53.585Z</time>
      </trkpt>
      <trkpt lat="45.62438" lon="-1.04488">
        <ele>61.927306</ele>
        <time>2022-12-22T12:23:56.593Z</time>
      </trkpt>
      <trkpt lat="45.6243" lon="-1.04495">
        <ele>61.57727</ele>
        <time>2022-12-22T12:23:59.589Z</time>
      </trkpt>
      <trkpt lat="45.62422" lon="-1.04504">
        <ele>61.204906</ele>
        <time>2022-12-22T12:24:03.604Z</time>
      </trkpt>
      <trkpt lat="45.62413" lon="-1.04509">
        <ele>60.834816</ele>
        <time>2022-12-22T12:24:06.589Z</time>
      </trkpt>
      <trkpt lat="45.62402" lon="-1.04516">
        <ele>60.384396</ele>
        <time>2022-12-22T12:24:09.632Z</time>
      </trkpt>
      <trkpt lat="45.62391" lon="-1.04526">
        <ele>59.902729</ele>
        <time>2022-12-22T12:24:12.581Z</time>
      </trkpt>
      <trkpt lat="45.6238" lon="-1.04536">
        <ele>59.424163</ele>
        <time>2022-12-22T12:24:15.637Z</time>
      </trkpt>
      <trkpt lat="45.6237" lon="-1.04546">
        <ele>58.965193</ele>
        <time>2022-12-22T12:24:18.581Z</time>
      </trkpt>
      <trkpt lat="45.6236" lon="-1.04555">
        <ele>58.537998</ele>
        <time>2022-12-22T12:24:21.631Z</time>
      </trkpt>
      <trkpt lat="45.62352" lon="-1.04563">
        <ele>58.148075</ele>
        <time>2022-12-22T12:24:24.564Z</time>
      </trkpt>
      <trkpt lat="45.62344" lon="-1.0457">
        <ele>57.767324</ele>
        <time>2022-12-22T12:24:27.628Z</time>
      </trkpt>
      <trkpt lat="45.62335" lon="-1.04577">
        <ele>57.3396</ele>
        <time>2022-12-22T12:24:30.590Z</time>
      </trkpt>
      <trkpt lat="45.62326" lon="-1.04587">
        <ele>56.854381</ele>
        <time>2022-12-22T12:24:33.572Z</time>
      </trkpt>
      <trkpt lat="45.62318" lon="-1.04594">
        <ele>56.478</ele>
        <time>2022-12-22T12:24:35.590Z</time>
      </trkpt>
      <trkpt lat="45.62307" lon="-1.04605">
        <ele>55.907624</ele>
        <time>2022-12-22T12:24:38.645Z</time>
      </trkpt>
      <trkpt lat="45.62294" lon="-1.04616">
        <ele>55.286306</ele>
        <time>2022-12-22T12:24:41.584Z</time>
      </trkpt>
      <trkpt lat="45.62286" lon="-1.04624">
        <ele>54.874192</ele>
        <time>2022-12-22T12:24:43.582Z</time>
      </trkpt>
      <trkpt lat="45.62278" lon="-1.04631">
        <ele>54.461773</ele>
        <time>2022-12-22T12:24:45.591Z</time>
      </trkpt>
      <trkpt lat="45.62269" lon="-1.04638">
        <ele>54.055547</ele>
        <time>2022-12-22T12:24:47.567Z</time>
      </trkpt>
      <trkpt lat="45.62261" lon="-1.04645">
        <ele>53.658892</ele>
        <time>2022-12-22T12:24:49.580Z</time>
      </trkpt>
      <trkpt lat="45.62253" lon="-1.04654">
        <ele>53.221235</ele>
        <time>2022-12-22T12:24:51.591Z</time>
      </trkpt>
      <trkpt lat="45.62245" lon="-1.04661">
        <ele>52.81858</ele>
        <time>2022-12-22T12:24:53.583Z</time>
      </trkpt>
      <trkpt lat="45.62234" lon="-1.04672">
        <ele>52.294308</ele>
        <time>2022-12-22T12:24:56.644Z</time>
      </trkpt>
      <trkpt lat="45.62227" lon="-1.04679">
        <ele>51.900714</ele>
        <time>2022-12-22T12:24:59.586Z</time>
      </trkpt>
      <trkpt lat="45.62216" lon="-1.04686">
        <ele>51.424596</ele>
        <time>2022-12-22T12:25:03.584Z</time>
      </trkpt>
      <trkpt lat="45.62205" lon="-1.04678">
        <ele>50.923354</ele>
        <time>2022-12-22T12:25:07.565Z</time>
      </trkpt>
      <trkpt lat="45.622" lon="-1.04662">
        <ele>50.864258</ele>
        <time>2022-12-22T12:25:10.583Z</time>
      </trkpt>
      <trkpt lat="45.62198" lon="-1.04649">
        <ele>51.013299</ele>
        <time>2022-12-22T12:25:12.584Z</time>
      </trkpt>
      <trkpt lat="45.62192" lon="-1.04633">
        <ele>51.209185</ele>
        <time>2022-12-22T12:25:15.583Z</time>
      </trkpt>
      <trkpt lat="45.62186" lon="-1.04622">
        <ele>51.36543</ele>
        <time>2022-12-22T12:25:18.589Z</time>
      </trkpt>
      <trkpt lat="45.62175" lon="-1.04617">
        <ele>51.545132</ele>
        <time>2022-12-22T12:25:22.583Z</time>
      </trkpt>
      <trkpt lat="45.62164" lon="-1.04617">
        <ele>51.728361</ele>
        <time>2022-12-22T12:25:26.582Z</time>
      </trkpt>
      <trkpt lat="45.62152" lon="-1.04621">
        <ele>51.913836</ele>
        <time>2022-12-22T12:25:30.585Z</time>
      </trkpt>
      <trkpt lat="45.62141" lon="-1.04624">
        <ele>52.097943</ele>
        <time>2022-12-22T12:25:34.589Z</time>
      </trkpt>
      <trkpt lat="45.6213" lon="-1.04618">
        <ele>52.280234</ele>
        <time>2022-12-22T12:25:38.571Z</time>
      </trkpt>
      <trkpt lat="45.62121" lon="-1.0461">
        <ele>52.454031</ele>
        <time>2022-12-22T12:25:42.594Z</time>
      </trkpt>
      <trkpt lat="45.62112" lon="-1.04603">
        <ele>52.622382</ele>
        <time>2022-12-22T12:25:46.585Z</time>
      </trkpt>
      <trkpt lat="45.62102" lon="-1.046">
        <ele>52.789003</ele>
        <time>2022-12-22T12:25:50.585Z</time>
      </trkpt>
      <trkpt lat="45.62091" lon="-1.04598">
        <ele>52.956348</ele>
        <time>2022-12-22T12:25:54.583Z</time>
      </trkpt>
      <trkpt lat="45.6208" lon="-1.04594">
        <ele>53.131484</ele>
        <time>2022-12-22T12:25:58.583Z</time>
      </trkpt>
      <trkpt lat="45.6207" lon="-1.04588">
        <ele>53.30517</ele>
        <time>2022-12-22T12:26:02.588Z</time>
      </trkpt>
      <trkpt lat="45.62064" lon="-1.04579">
        <ele>53.451679</ele>
        <time>2022-12-22T12:26:05.584Z</time>
      </trkpt>
      <trkpt lat="45.6206" lon="-1.04566">
        <ele>53.608032</ele>
        <time>2022-12-22T12:26:08.590Z</time>
      </trkpt>
      <trkpt lat="45.62058" lon="-1.04552">
        <ele>53.694988</ele>
        <time>2022-12-22T12:26:11.591Z</time>
      </trkpt>
      <trkpt lat="45.62055" lon="-1.04535">
        <ele>53.800085</ele>
        <time>2022-12-22T12:26:15.593Z</time>
      </trkpt>
      <trkpt lat="45.62052" lon="-1.0452">
        <ele>53.891341</ele>
        <time>2022-12-22T12:26:18.583Z</time>
      </trkpt>
      <trkpt lat="45.62048" lon="-1.04504">
        <ele>53.996271</ele>
        <time>2022-12-22T12:26:21.582Z</time>
      </trkpt>
      <trkpt lat="45.62044" lon="-1.04488">
        <ele>54.102462</ele>
        <time>2022-12-22T12:26:24.577Z</time>
      </trkpt>
      <trkpt lat="45.62041" lon="-1.04471">
        <ele>54.206228</ele>
        <time>2022-12-22T12:26:27.578Z</time>
      </trkpt>
      <trkpt lat="45.62041" lon="-1.04456">
        <ele>54.297943</ele>
        <time>2022-12-22T12:26:30.584Z</time>
      </trkpt>
      <trkpt lat="45.62047" lon="-1.04442">
        <ele>54.397094</ele>
        <time>2022-12-22T12:26:33.582Z</time>
      </trkpt>
      <trkpt lat="45.62057" lon="-1.04433">
        <ele>54.500971</ele>
        <time>2022-12-22T12:26:36.651Z</time>
      </trkpt>
      <trkpt lat="45.62065" lon="-1.0442">
        <ele>54.60343</ele>
        <time>2022-12-22T12:26:39.592Z</time>
      </trkpt>
      <trkpt lat="45.62068" lon="-1.04407">
        <ele>54.688576</ele>
        <time>2022-12-22T12:26:42.642Z</time>
      </trkpt>
      <trkpt lat="45.62068" lon="-1.04393">
        <ele>54.77668</ele>
        <time>2022-12-22T12:26:45.590Z</time>
      </trkpt>
      <trkpt lat="45.62063" lon="-1.04377">
        <ele>54.880402</ele>
        <time>2022-12-22T12:26:48.644Z</time>
      </trkpt>
      <trkpt lat="45.62056" lon="-1.04362">
        <ele>54.988915</ele>
        <time>2022-12-22T12:26:51.593Z</time>
      </trkpt>
      <trkpt lat="45.62049" lon="-1.04349">
        <ele>55.087067</ele>
        <time>2022-12-22T12:26:54.647Z</time>
      </trkpt>
      <trkpt lat="45.62043" lon="-1.04338">
        <ele>55.175114</ele>
        <time>2022-12-22T12:26:57.579Z</time>
      </trkpt>
      <trkpt lat="45.62037" lon="-1.04325">
        <ele>55.335894</ele>
        <time>2022-12-22T12:27:01.588Z</time>
      </trkpt>
      <trkpt lat="45.62031" lon="-1.04314">
        <ele>55.467788</ele>
        <time>2022-12-22T12:27:04.581Z</time>
      </trkpt>
      <trkpt lat="45.62027" lon="-1.043">
        <ele>55.62585</ele>
        <time>2022-12-22T12:27:08.581Z</time>
      </trkpt>
      <trkpt lat="45.62031" lon="-1.04287">
        <ele>55.762627</ele>
        <time>2022-12-22T12:27:11.564Z</time>
      </trkpt>
      <trkpt lat="45.62039" lon="-1.04279">
        <ele>55.907239</ele>
        <time>2022-12-22T12:27:14.594Z</time>
      </trkpt>
      <trkpt lat="45.62047" lon="-1.04273">
        <ele>56.035368</ele>
        <time>2022-12-22T12:27:17.573Z</time>
      </trkpt>
      <trkpt lat="45.62055" lon="-1.04265">
        <ele>56.171522</ele>
        <time>2022-12-22T12:27:20.589Z</time>
      </trkpt>
      <trkpt lat="45.62063" lon="-1.04257">
        <ele>56.311532</ele>
        <time>2022-12-22T12:27:23.635Z</time>
      </trkpt>
      <trkpt lat="45.62068" lon="-1.04244">
        <ele>56.457009</ele>
        <time>2022-12-22T12:27:27.570Z</time>
      </trkpt>
      <trkpt lat="45.62062" lon="-1.04231">
        <ele>56.605371</ele>
        <time>2022-12-22T12:27:31.566Z</time>
      </trkpt>
      <trkpt lat="45.62055" lon="-1.04224">
        <ele>56.734509</ele>
        <time>2022-12-22T12:27:34.581Z</time>
      </trkpt>
      <trkpt lat="45.62045" lon="-1.04215">
        <ele>56.894308</ele>
        <time>2022-12-22T12:27:38.582Z</time>
      </trkpt>
      <trkpt lat="45.62036" lon="-1.04206">
        <ele>57.054002</ele>
        <time>2022-12-22T12:27:42.588Z</time>
      </trkpt>
      <trkpt lat="45.62027" lon="-1.04196">
        <ele>57.214845</ele>
        <time>2022-12-22T12:27:46.585Z</time>
      </trkpt>
      <trkpt lat="45.62018" lon="-1.04185">
        <ele>57.376976</ele>
        <time>2022-12-22T12:27:50.576Z</time>
      </trkpt>
      <trkpt lat="45.62013" lon="-1.04173">
        <ele>57.519892</ele>
        <time>2022-12-22T12:27:54.588Z</time>
      </trkpt>
      <trkpt lat="45.62009" lon="-1.0416">
        <ele>57.666608</ele>
        <time>2022-12-22T12:27:58.667Z</time>
      </trkpt>
      <trkpt lat="45.62006" lon="-1.04145">
        <ele>57.849609</ele>
        <time>2022-12-22T12:28:02.583Z</time>
      </trkpt>
      <trkpt lat="45.62004" lon="-1.04131">
        <ele>58.034969</ele>
        <time>2022-12-22T12:28:06.585Z</time>
      </trkpt>
      <trkpt lat="45.62002" lon="-1.04118">
        <ele>58.204759</ele>
        <time>2022-12-22T12:28:10.656Z</time>
      </trkpt>
      <trkpt lat="45.62" lon="-1.04105">
        <ele>58.376687</ele>
        <time>2022-12-22T12:28:15.588Z</time>
      </trkpt>
      <trkpt lat="45.61998" lon="-1.04092">
        <ele>58.555971</ele>
        <time>2022-12-22T12:28:20.579Z</time>
      </trkpt>
      <trkpt lat="45.61997" lon="-1.04077">
        <ele>58.746596</ele>
        <time>2022-12-22T12:28:26.581Z</time>
      </trkpt>
      <trkpt lat="45.61995" lon="-1.04064">
        <ele>58.923597</ele>
        <time>2022-12-22T12:28:31.582Z</time>
      </trkpt>
      <trkpt lat="45.61993" lon="-1.04051">
        <ele>59.098447</ele>
        <time>2022-12-22T12:28:36.584Z</time>
      </trkpt>
      <trkpt lat="45.61992" lon="-1.04036">
        <ele>59.291905</ele>
        <time>2022-12-22T12:28:41.586Z</time>
      </trkpt>
      <trkpt lat="45.61992" lon="-1.04022">
        <ele>59.468122</ele>
        <time>2022-12-22T12:28:45.583Z</time>
      </trkpt>
      <trkpt lat="45.6199" lon="-1.04005">
        <ele>59.689511</ele>
        <time>2022-12-22T12:28:49.569Z</time>
      </trkpt>
      <trkpt lat="45.61989" lon="-1.03991">
        <ele>59.879265</ele>
        <time>2022-12-22T12:28:52.588Z</time>
      </trkpt>
      <trkpt lat="45.61987" lon="-1.03974">
        <ele>60.090637</ele>
        <time>2022-12-22T12:28:55.644Z</time>
      </trkpt>
      <trkpt lat="45.61985" lon="-1.03957">
        <ele>60.317691</ele>
        <time>2022-12-22T12:28:58.584Z</time>
      </trkpt>
      <trkpt lat="45.61981" lon="-1.0394">
        <ele>60.551354</ele>
        <time>2022-12-22T12:29:01.651Z</time>
      </trkpt>
      <trkpt lat="45.61978" lon="-1.03923">
        <ele>60.771987</ele>
        <time>2022-12-22T12:29:04.592Z</time>
      </trkpt>
      <trkpt lat="45.61976" lon="-1.03906">
        <ele>60.994196</ele>
        <time>2022-12-22T12:29:07.599Z</time>
      </trkpt>
      <trkpt lat="45.61974" lon="-1.03891">
        <ele>60.834639</ele>
        <time>2022-12-22T12:29:10.583Z</time>
      </trkpt>
      <trkpt lat="45.61972" lon="-1.03876">
        <ele>60.574021</ele>
        <time>2022-12-22T12:29:13.651Z</time>
      </trkpt>
      <trkpt lat="45.61969" lon="-1.03859">
        <ele>60.28314</ele>
        <time>2022-12-22T12:29:16.582Z</time>
      </trkpt>
      <trkpt lat="45.61966" lon="-1.03846">
        <ele>60.067687</ele>
        <time>2022-12-22T12:29:18.583Z</time>
      </trkpt>
      <trkpt lat="45.6196" lon="-1.03829">
        <ele>59.748542</ele>
        <time>2022-12-22T12:29:21.588Z</time>
      </trkpt>
      <trkpt lat="45.61954" lon="-1.03812">
        <ele>59.430318</ele>
        <time>2022-12-22T12:29:24.586Z</time>
      </trkpt>
      <trkpt lat="45.61949" lon="-1.03796">
        <ele>59.13595</ele>
        <time>2022-12-22T12:29:27.563Z</time>
      </trkpt>
      <trkpt lat="45.61944" lon="-1.0378">
        <ele>58.843515</ele>
        <time>2022-12-22T12:29:30.588Z</time>
      </trkpt>
      <trkpt lat="45.61939" lon="-1.03764">
        <ele>58.558696</ele>
        <time>2022-12-22T12:29:33.584Z</time>
      </trkpt>
      <trkpt lat="45.61933" lon="-1.0375">
        <ele>58.288066</ele>
        <time>2022-12-22T12:29:36.586Z</time>
      </trkpt>
      <trkpt lat="45.61923" lon="-1.03745">
        <ele>58.026824</ele>
        <time>2022-12-22T12:29:39.585Z</time>
      </trkpt>
      <trkpt lat="45.61912" lon="-1.0375">
        <ele>57.751154</ele>
        <time>2022-12-22T12:29:42.587Z</time>
      </trkpt>
      <trkpt lat="45.619" lon="-1.03756">
        <ele>57.452922</ele>
        <time>2022-12-22T12:29:45.594Z</time>
      </trkpt>
      <trkpt lat="45.61888" lon="-1.0376">
        <ele>57.152044</ele>
        <time>2022-12-22T12:29:48.592Z</time>
      </trkpt>
      <trkpt lat="45.61876" lon="-1.03764">
        <ele>56.867056</ele>
        <time>2022-12-22T12:29:51.596Z</time>
      </trkpt>
      <trkpt lat="45.61865" lon="-1.03768">
        <ele>56.59853</ele>
        <time>2022-12-22T12:29:54.593Z</time>
      </trkpt>
      <trkpt lat="45.61853" lon="-1.03771">
        <ele>56.304573</ele>
        <time>2022-12-22T12:29:57.575Z</time>
      </trkpt>
      <trkpt lat="45.61841" lon="-1.03774">
        <ele>56.009959</ele>
        <time>2022-12-22T12:30:00.591Z</time>
      </trkpt>
      <trkpt lat="45.6183" lon="-1.03778">
        <ele>55.730836</ele>
        <time>2022-12-22T12:30:03.586Z</time>
      </trkpt>
      <trkpt lat="45.61819" lon="-1.03781">
        <ele>55.461476</ele>
        <time>2022-12-22T12:30:06.581Z</time>
      </trkpt>
      <trkpt lat="45.6181" lon="-1.0378">
        <ele>55.243986</ele>
        <time>2022-12-22T12:30:09.571Z</time>
      </trkpt>
      <trkpt lat="45.61803" lon="-1.03772">
        <ele>55.025391</ele>
        <time>2022-12-22T12:30:12.582Z</time>
      </trkpt>
      <trkpt lat="45.61802" lon="-1.03755">
        <ele>54.735833</ele>
        <time>2022-12-22T12:30:15.571Z</time>
      </trkpt>
      <trkpt lat="45.61802" lon="-1.03734">
        <ele>54.383191</ele>
        <time>2022-12-22T12:30:18.593Z</time>
      </trkpt>
      <trkpt lat="45.61801" lon="-1.0372">
        <ele>54.148354</ele>
        <time>2022-12-22T12:30:20.586Z</time>
      </trkpt>
      <trkpt lat="45.618" lon="-1.03707">
        <ele>53.923512</ele>
        <time>2022-12-22T12:30:22.592Z</time>
      </trkpt>
      <trkpt lat="45.618" lon="-1.03693">
        <ele>53.691094</ele>
        <time>2022-12-22T12:30:24.593Z</time>
      </trkpt>
      <trkpt lat="45.61802" lon="-1.0368">
        <ele>53.468905</ele>
        <time>2022-12-22T12:30:26.580Z</time>
      </trkpt>
      <trkpt lat="45.61806" lon="-1.03668">
        <ele>53.235363</ele>
        <time>2022-12-22T12:30:28.566Z</time>
      </trkpt>
      <trkpt lat="45.61811" lon="-1.03656">
        <ele>53.007464</ele>
        <time>2022-12-22T12:30:30.592Z</time>
      </trkpt>
      <trkpt lat="45.61822" lon="-1.03644">
        <ele>52.685411</ele>
        <time>2022-12-22T12:30:33.584Z</time>
      </trkpt>
      <trkpt lat="45.61833" lon="-1.03634">
        <ele>52.455297</ele>
        <time>2022-12-22T12:30:36.638Z</time>
      </trkpt>
      <trkpt lat="45.61842" lon="-1.03628">
        <ele>52.553656</ele>
        <time>2022-12-22T12:30:38.597Z</time>
      </trkpt>
      <trkpt lat="45.61853" lon="-1.0362">
        <ele>52.690538</ele>
        <time>2022-12-22T12:30:41.582Z</time>
      </trkpt>
      <trkpt lat="45.61864" lon="-1.0361">
        <ele>52.820449</ele>
        <time>2022-12-22T12:30:44.589Z</time>
      </trkpt>
      <trkpt lat="45.61876" lon="-1.03603">
        <ele>52.958254</ele>
        <time>2022-12-22T12:30:47.624Z</time>
      </trkpt>
      <trkpt lat="45.61888" lon="-1.03593">
        <ele>53.099157</ele>
        <time>2022-12-22T12:30:50.590Z</time>
      </trkpt>
      <trkpt lat="45.61898" lon="-1.03585">
        <ele>53.222175</ele>
        <time>2022-12-22T12:30:53.632Z</time>
      </trkpt>
      <trkpt lat="45.61908" lon="-1.03576">
        <ele>53.342328</ele>
        <time>2022-12-22T12:30:56.590Z</time>
      </trkpt>
      <trkpt lat="45.61917" lon="-1.03569">
        <ele>53.45019</ele>
        <time>2022-12-22T12:30:59.646Z</time>
      </trkpt>
      <trkpt lat="45.61926" lon="-1.03562">
        <ele>53.550485</ele>
        <time>2022-12-22T12:31:02.594Z</time>
      </trkpt>
      <trkpt lat="45.61936" lon="-1.03556">
        <ele>53.669536</ele>
        <time>2022-12-22T12:31:06.581Z</time>
      </trkpt>
      <trkpt lat="45.61944" lon="-1.03548">
        <ele>53.771967</ele>
        <time>2022-12-22T12:31:10.593Z</time>
      </trkpt>
      <trkpt lat="45.61953" lon="-1.03539">
        <ele>53.885465</ele>
        <time>2022-12-22T12:31:15.585Z</time>
      </trkpt>
      <trkpt lat="45.61961" lon="-1.03533">
        <ele>53.98211</ele>
        <time>2022-12-22T12:31:18.595Z</time>
      </trkpt>
      <trkpt lat="45.6197" lon="-1.03527">
        <ele>54.079549</ele>
        <time>2022-12-22T12:31:21.632Z</time>
      </trkpt>
      <trkpt lat="45.61977" lon="-1.03519">
        <ele>54.176141</ele>
        <time>2022-12-22T12:31:24.596Z</time>
      </trkpt>
      <trkpt lat="45.61983" lon="-1.03508">
        <ele>54.278299</ele>
        <time>2022-12-22T12:31:27.601Z</time>
      </trkpt>
      <trkpt lat="45.61989" lon="-1.03496">
        <ele>54.246795</ele>
        <time>2022-12-22T12:31:30.583Z</time>
      </trkpt>
      <trkpt lat="45.61994" lon="-1.03484">
        <ele>54.185574</ele>
        <time>2022-12-22T12:31:33.645Z</time>
      </trkpt>
      <trkpt lat="45.61999" lon="-1.0347">
        <ele>54.120562</ele>
        <time>2022-12-22T12:31:36.588Z</time>
      </trkpt>
      <trkpt lat="45.61997" lon="-1.03454">
        <ele>54.04848</ele>
        <time>2022-12-22T12:31:40.583Z</time>
      </trkpt>
      <trkpt lat="45.61994" lon="-1.03441">
        <ele>53.988659</ele>
        <time>2022-12-22T12:31:43.591Z</time>
      </trkpt>
      <trkpt lat="45.61992" lon="-1.03427">
        <ele>53.928007</ele>
        <time>2022-12-22T12:31:46.579Z</time>
      </trkpt>
      <trkpt lat="45.61987" lon="-1.03414">
        <ele>53.864068</ele>
        <time>2022-12-22T12:31:49.569Z</time>
      </trkpt>
      <trkpt lat="45.61982" lon="-1.03401">
        <ele>53.801087</ele>
        <time>2022-12-22T12:31:52.586Z</time>
      </trkpt>
      <trkpt lat="45.61977" lon="-1.03389">
        <ele>53.739921</ele>
        <time>2022-12-22T12:31:55.596Z</time>
      </trkpt>
      <trkpt lat="45.61972" lon="-1.03378">
        <ele>53.682662</ele>
        <time>2022-12-22T12:31:58.596Z</time>
      </trkpt>
      <trkpt lat="45.61968" lon="-1.03366">
        <ele>53.625787</ele>
        <time>2022-12-22T12:32:16.593Z</time>
      </trkpt>
      <trkpt lat="45.61969" lon="-1.03353">
        <ele>53.568093</ele>
        <time>2022-12-22T12:32:21.572Z</time>
      </trkpt>
      <trkpt lat="45.61964" lon="-1.03341">
        <ele>53.509717</ele>
        <time>2022-12-22T12:32:24.586Z</time>
      </trkpt>
      <trkpt lat="45.61958" lon="-1.03327">
        <ele>53.440265</ele>
        <time>2022-12-22T12:32:27.577Z</time>
      </trkpt>
      <trkpt lat="45.61952" lon="-1.03312">
        <ele>53.364433</ele>
        <time>2022-12-22T12:32:30.575Z</time>
      </trkpt>
      <trkpt lat="45.61946" lon="-1.03297">
        <ele>53.288807</ele>
        <time>2022-12-22T12:32:33.582Z</time>
      </trkpt>
      <trkpt lat="45.6194" lon="-1.03283">
        <ele>53.218984</ele>
        <time>2022-12-22T12:32:36.581Z</time>
      </trkpt>
      <trkpt lat="45.61934" lon="-1.03271">
        <ele>53.089401</ele>
        <time>2022-12-22T12:32:39.589Z</time>
      </trkpt>
      <trkpt lat="45.61928" lon="-1.03261">
        <ele>52.891611</ele>
        <time>2022-12-22T12:32:42.583Z</time>
      </trkpt>
      <trkpt lat="45.61922" lon="-1.03248">
        <ele>52.663283</ele>
        <time>2022-12-22T12:32:46.590Z</time>
      </trkpt>
      <trkpt lat="45.61917" lon="-1.03237">
        <ele>52.474214</ele>
        <time>2022-12-22T12:32:49.566Z</time>
      </trkpt>
      <trkpt lat="45.6191" lon="-1.03222">
        <ele>52.223986</ele>
        <time>2022-12-22T12:32:52.642Z</time>
      </trkpt>
      <trkpt lat="45.61904" lon="-1.03207">
        <ele>51.971265</ele>
        <time>2022-12-22T12:32:55.580Z</time>
      </trkpt>
      <trkpt lat="45.61899" lon="-1.03194">
        <ele>51.752253</ele>
        <time>2022-12-22T12:32:58.641Z</time>
      </trkpt>
      <trkpt lat="45.61891" lon="-1.03182">
        <ele>51.509315</ele>
        <time>2022-12-22T12:33:02.593Z</time>
      </trkpt>
      <trkpt lat="45.61881" lon="-1.03178">
        <ele>51.293451</ele>
        <time>2022-12-22T12:33:05.570Z</time>
      </trkpt>
      <trkpt lat="45.61869" lon="-1.03182">
        <ele>51.046658</ele>
        <time>2022-12-22T12:33:08.580Z</time>
      </trkpt>
      <trkpt lat="45.61857" lon="-1.0319">
        <ele>50.770212</ele>
        <time>2022-12-22T12:33:11.592Z</time>
      </trkpt>
      <trkpt lat="45.61849" lon="-1.03195">
        <ele>50.580297</ele>
        <time>2022-12-22T12:33:13.592Z</time>
      </trkpt>
      <trkpt lat="45.61837" lon="-1.03198">
        <ele>50.324568</ele>
        <time>2022-12-22T12:33:16.593Z</time>
      </trkpt>
      <trkpt lat="45.61828" lon="-1.03194">
        <ele>50.131096</ele>
        <time>2022-12-22T12:33:19.568Z</time>
      </trkpt>
      <trkpt lat="45.6182" lon="-1.03187">
        <ele>49.931537</ele>
        <time>2022-12-22T12:33:23.591Z</time>
      </trkpt>
      <trkpt lat="45.61812" lon="-1.0318">
        <ele>49.7355</ele>
        <time>2022-12-22T12:33:27.595Z</time>
      </trkpt>
      <trkpt lat="45.61803" lon="-1.03173">
        <ele>49.525237</ele>
        <time>2022-12-22T12:33:33.595Z</time>
      </trkpt>
      <trkpt lat="45.61797" lon="-1.03167">
        <ele>49.446567</ele>
        <time>2022-12-22T12:34:17.177Z</time>
      </trkpt>
      <trkpt lat="45.5675" lon="-1.06456">
        <ele>43.162869</ele>
        <time>2022-12-22T13:42:26.864Z</time>
      </trkpt>
      <trkpt lat="45.56766" lon="-1.06451">
        <ele>43.587581</ele>
        <time>2022-12-22T13:42:54.571Z</time>
      </trkpt>
      <trkpt lat="45.56776" lon="-1.06446">
        <ele>43.871239</ele>
        <time>2022-12-22T13:42:59.572Z</time>
      </trkpt>
      <trkpt lat="45.56786" lon="-1.06441">
        <ele>44.179774</ele>
        <time>2022-12-22T13:43:04.588Z</time>
      </trkpt>
      <trkpt lat="45.56793" lon="-1.06432">
        <ele>44.470323</ele>
        <time>2022-12-22T13:43:07.575Z</time>
      </trkpt>
      <trkpt lat="45.56799" lon="-1.06419">
        <ele>44.788979</ele>
        <time>2022-12-22T13:43:10.575Z</time>
      </trkpt>
      <trkpt lat="45.56804" lon="-1.06406">
        <ele>45.097148</ele>
        <time>2022-12-22T13:43:13.590Z</time>
      </trkpt>
      <trkpt lat="45.5681" lon="-1.06393">
        <ele>45.413294</ele>
        <time>2022-12-22T13:43:16.593Z</time>
      </trkpt>
      <trkpt lat="45.56815" lon="-1.06381">
        <ele>45.714944</ele>
        <time>2022-12-22T13:43:19.597Z</time>
      </trkpt>
      <trkpt lat="45.56819" lon="-1.06369">
        <ele>45.995194</ele>
        <time>2022-12-22T13:43:22.594Z</time>
      </trkpt>
      <trkpt lat="45.56825" lon="-1.06354">
        <ele>46.349809</ele>
        <time>2022-12-22T13:43:26.594Z</time>
      </trkpt>
      <trkpt lat="45.56831" lon="-1.06344">
        <ele>46.635749</ele>
        <time>2022-12-22T13:43:29.595Z</time>
      </trkpt>
      <trkpt lat="45.56837" lon="-1.06331">
        <ele>46.950686</ele>
        <time>2022-12-22T13:43:32.569Z</time>
      </trkpt>
      <trkpt lat="45.56842" lon="-1.06319">
        <ele>47.262105</ele>
        <time>2022-12-22T13:43:35.593Z</time>
      </trkpt>
      <trkpt lat="45.56848" lon="-1.06308">
        <ele>47.546045</ele>
        <time>2022-12-22T13:43:38.594Z</time>
      </trkpt>
      <trkpt lat="45.56857" lon="-1.06298">
        <ele>47.882594</ele>
        <time>2022-12-22T13:43:42.593Z</time>
      </trkpt>
      <trkpt lat="45.56866" lon="-1.06287">
        <ele>48.244346</ele>
        <time>2022-12-22T13:43:46.592Z</time>
      </trkpt>
      <trkpt lat="45.56875" lon="-1.06279">
        <ele>48.556373</ele>
        <time>2022-12-22T13:43:50.596Z</time>
      </trkpt>
      <trkpt lat="45.56883" lon="-1.06271">
        <ele>48.846795</ele>
        <time>2022-12-22T13:43:53.583Z</time>
      </trkpt>
      <trkpt lat="45.56891" lon="-1.06264">
        <ele>49.144664</ele>
        <time>2022-12-22T13:43:56.577Z</time>
      </trkpt>
      <trkpt lat="45.56902" lon="-1.06261">
        <ele>49.183689</ele>
        <time>2022-12-22T13:43:59.577Z</time>
      </trkpt>
      <trkpt lat="45.56912" lon="-1.06264">
        <ele>49.170548</ele>
        <time>2022-12-22T13:44:02.569Z</time>
      </trkpt>
      <trkpt lat="45.5692" lon="-1.0627">
        <ele>49.158332</ele>
        <time>2022-12-22T13:44:05.576Z</time>
      </trkpt>
      <trkpt lat="45.56926" lon="-1.0628">
        <ele>49.145279</ele>
        <time>2022-12-22T13:44:08.584Z</time>
      </trkpt>
      <trkpt lat="45.56928" lon="-1.06293">
        <ele>49.132162</ele>
        <time>2022-12-22T13:44:11.572Z</time>
      </trkpt>
      <trkpt lat="45.5693" lon="-1.06307">
        <ele>49.118436</ele>
        <time>2022-12-22T13:44:14.591Z</time>
      </trkpt>
      <trkpt lat="45.5693" lon="-1.06321">
        <ele>49.105095</ele>
        <time>2022-12-22T13:44:17.578Z</time>
      </trkpt>
      <trkpt lat="45.56925" lon="-1.06333">
        <ele>49.092298</ele>
        <time>2022-12-22T13:44:20.593Z</time>
      </trkpt>
      <trkpt lat="45.56916" lon="-1.06343">
        <ele>49.076445</ele>
        <time>2022-12-22T13:44:24.571Z</time>
      </trkpt>
      <trkpt lat="45.56909" lon="-1.06352">
        <ele>49.063529</ele>
        <time>2022-12-22T13:44:27.595Z</time>
      </trkpt>
      <trkpt lat="45.56901" lon="-1.0636">
        <ele>49.050405</ele>
        <time>2022-12-22T13:44:30.597Z</time>
      </trkpt>
      <trkpt lat="45.56893" lon="-1.06368">
        <ele>49.037781</ele>
        <time>2022-12-22T13:44:33.566Z</time>
      </trkpt>
      <trkpt lat="45.56885" lon="-1.06379">
        <ele>49.022402</ele>
        <time>2022-12-22T13:44:37.596Z</time>
      </trkpt>
      <trkpt lat="45.56876" lon="-1.06389">
        <ele>49.00675</ele>
        <time>2022-12-22T13:44:41.601Z</time>
      </trkpt>
      <trkpt lat="45.56868" lon="-1.06397">
        <ele>48.993572</ele>
        <time>2022-12-22T13:44:44.595Z</time>
      </trkpt>
      <trkpt lat="45.56858" lon="-1.06406">
        <ele>48.977319</ele>
        <time>2022-12-22T13:44:48.570Z</time>
      </trkpt>
      <trkpt lat="45.5685" lon="-1.06412">
        <ele>48.96452</ele>
        <time>2022-12-22T13:44:51.592Z</time>
      </trkpt>
      <trkpt lat="45.56842" lon="-1.06419">
        <ele>48.951631</ele>
        <time>2022-12-22T13:44:54.596Z</time>
      </trkpt>
      <trkpt lat="45.56834" lon="-1.06425">
        <ele>48.973816</ele>
        <time>2022-12-22T13:44:57.595Z</time>
      </trkpt>
      <trkpt lat="45.56826" lon="-1.06431">
        <ele>48.998347</ele>
        <time>2022-12-22T13:45:00.588Z</time>
      </trkpt>
      <trkpt lat="45.56817" lon="-1.06437">
        <ele>49.024586</ele>
        <time>2022-12-22T13:45:03.591Z</time>
      </trkpt>
      <trkpt lat="45.56808" lon="-1.06443">
        <ele>49.050908</ele>
        <time>2022-12-22T13:45:06.593Z</time>
      </trkpt>
      <trkpt lat="45.56799" lon="-1.06449">
        <ele>49.077483</ele>
        <time>2022-12-22T13:45:09.592Z</time>
      </trkpt>
      <trkpt lat="45.56791" lon="-1.06455">
        <ele>49.103662</ele>
        <time>2022-12-22T13:45:12.598Z</time>
      </trkpt>
      <trkpt lat="45.56783" lon="-1.06463">
        <ele>49.129387</ele>
        <time>2022-12-22T13:45:15.594Z</time>
      </trkpt>
      <trkpt lat="45.56775" lon="-1.0647">
        <ele>49.15567</ele>
        <time>2022-12-22T13:45:18.581Z</time>
      </trkpt>
      <trkpt lat="45.56766" lon="-1.0648">
        <ele>49.186933</ele>
        <time>2022-12-22T13:45:22.588Z</time>
      </trkpt>
      <trkpt lat="45.56756" lon="-1.06488">
        <ele>49.218072</ele>
        <time>2022-12-22T13:45:26.590Z</time>
      </trkpt>
      <trkpt lat="45.56746" lon="-1.06497">
        <ele>49.248513</ele>
        <time>2022-12-22T13:45:30.599Z</time>
      </trkpt>
      <trkpt lat="45.56738" lon="-1.06503">
        <ele>49.273353</ele>
        <time>2022-12-22T13:45:33.597Z</time>
      </trkpt>
      <trkpt lat="45.5673" lon="-1.06509">
        <ele>49.299104</ele>
        <time>2022-12-22T13:45:36.594Z</time>
      </trkpt>
      <trkpt lat="45.56721" lon="-1.06515">
        <ele>49.325016</ele>
        <time>2022-12-22T13:45:39.570Z</time>
      </trkpt>
      <trkpt lat="45.56711" lon="-1.0652">
        <ele>49.355298</ele>
        <time>2022-12-22T13:45:43.594Z</time>
      </trkpt>
      <trkpt lat="45.567" lon="-1.06526">
        <ele>49.385836</ele>
        <time>2022-12-22T13:45:47.594Z</time>
      </trkpt>
      <trkpt lat="45.5669" lon="-1.06531">
        <ele>49.41671</ele>
        <time>2022-12-22T13:45:51.593Z</time>
      </trkpt>
      <trkpt lat="45.56681" lon="-1.06535">
        <ele>49.442203</ele>
        <time>2022-12-22T13:45:54.595Z</time>
      </trkpt>
      <trkpt lat="45.5667" lon="-1.06541">
        <ele>49.500542</ele>
        <time>2022-12-22T13:45:58.591Z</time>
      </trkpt>
      <trkpt lat="45.56662" lon="-1.06547">
        <ele>49.545624</ele>
        <time>2022-12-22T13:46:01.574Z</time>
      </trkpt>
      <trkpt lat="45.56654" lon="-1.06553">
        <ele>49.591907</ele>
        <time>2022-12-22T13:46:04.582Z</time>
      </trkpt>
      <trkpt lat="45.56645" lon="-1.06559">
        <ele>49.639676</ele>
        <time>2022-12-22T13:46:07.587Z</time>
      </trkpt>
      <trkpt lat="45.56636" lon="-1.06565">
        <ele>49.686847</ele>
        <time>2022-12-22T13:46:10.587Z</time>
      </trkpt>
      <trkpt lat="45.56627" lon="-1.0657">
        <ele>49.735519</ele>
        <time>2022-12-22T13:46:13.595Z</time>
      </trkpt>
      <trkpt lat="45.56619" lon="-1.06576">
        <ele>49.782092</ele>
        <time>2022-12-22T13:46:16.603Z</time>
      </trkpt>
      <trkpt lat="45.5661" lon="-1.06583">
        <ele>49.831384</ele>
        <time>2022-12-22T13:46:19.575Z</time>
      </trkpt>
      <trkpt lat="45.56601" lon="-1.06588">
        <ele>49.878901</ele>
        <time>2022-12-22T13:46:22.585Z</time>
      </trkpt>
      <trkpt lat="45.56593" lon="-1.06594">
        <ele>49.927288</ele>
        <time>2022-12-22T13:46:25.588Z</time>
      </trkpt>
      <trkpt lat="45.56584" lon="-1.06599">
        <ele>49.975723</ele>
        <time>2022-12-22T13:46:28.596Z</time>
      </trkpt>
      <trkpt lat="45.56575" lon="-1.06606">
        <ele>50.023253</ele>
        <time>2022-12-22T13:46:31.573Z</time>
      </trkpt>
      <trkpt lat="45.56567" lon="-1.06612">
        <ele>50.070297</ele>
        <time>2022-12-22T13:46:34.575Z</time>
      </trkpt>
      <trkpt lat="45.56558" lon="-1.06617">
        <ele>50.119062</ele>
        <time>2022-12-22T13:46:37.590Z</time>
      </trkpt>
      <trkpt lat="45.5655" lon="-1.06623">
        <ele>50.164019</ele>
        <time>2022-12-22T13:46:40.594Z</time>
      </trkpt>
      <trkpt lat="45.56539" lon="-1.0663">
        <ele>50.223247</ele>
        <time>2022-12-22T13:46:44.569Z</time>
      </trkpt>
      <trkpt lat="45.5653" lon="-1.06636">
        <ele>50.271016</ele>
        <time>2022-12-22T13:46:48.593Z</time>
      </trkpt>
      <trkpt lat="45.56522" lon="-1.06642">
        <ele>50.318484</ele>
        <time>2022-12-22T13:46:51.588Z</time>
      </trkpt>
      <trkpt lat="45.56512" lon="-1.06649">
        <ele>50.290366</ele>
        <time>2022-12-22T13:46:55.596Z</time>
      </trkpt>
      <trkpt lat="45.56502" lon="-1.06658">
        <ele>50.226633</ele>
        <time>2022-12-22T13:46:58.596Z</time>
      </trkpt>
      <trkpt lat="45.56493" lon="-1.06664">
        <ele>50.168363</ele>
        <time>2022-12-22T13:47:01.574Z</time>
      </trkpt>
      <trkpt lat="45.56485" lon="-1.0667">
        <ele>50.114101</ele>
        <time>2022-12-22T13:47:04.572Z</time>
      </trkpt>
      <trkpt lat="45.56475" lon="-1.06677">
        <ele>50.052782</ele>
        <time>2022-12-22T13:47:07.596Z</time>
      </trkpt>
      <trkpt lat="45.56465" lon="-1.06684">
        <ele>49.988871</ele>
        <time>2022-12-22T13:47:10.591Z</time>
      </trkpt>
      <trkpt lat="45.56455" lon="-1.0669">
        <ele>49.928409</ele>
        <time>2022-12-22T13:47:13.593Z</time>
      </trkpt>
      <trkpt lat="45.56446" lon="-1.06697">
        <ele>49.86774</ele>
        <time>2022-12-22T13:47:16.578Z</time>
      </trkpt>
      <trkpt lat="45.56436" lon="-1.06705">
        <ele>49.801756</ele>
        <time>2022-12-22T13:47:19.575Z</time>
      </trkpt>
      <trkpt lat="45.56426" lon="-1.06712">
        <ele>49.738176</ele>
        <time>2022-12-22T13:47:22.596Z</time>
      </trkpt>
      <trkpt lat="45.56416" lon="-1.06719">
        <ele>49.674086</ele>
        <time>2022-12-22T13:47:25.573Z</time>
      </trkpt>
      <trkpt lat="45.56406" lon="-1.06724">
        <ele>49.613579</ele>
        <time>2022-12-22T13:47:28.571Z</time>
      </trkpt>
      <trkpt lat="45.56396" lon="-1.06733">
        <ele>49.545382</ele>
        <time>2022-12-22T13:47:32.572Z</time>
      </trkpt>
      <trkpt lat="45.56387" lon="-1.0674">
        <ele>49.488624</ele>
        <time>2022-12-22T13:47:35.569Z</time>
      </trkpt>
      <trkpt lat="45.56378" lon="-1.06747">
        <ele>49.428321</ele>
        <time>2022-12-22T13:47:38.598Z</time>
      </trkpt>
      <trkpt lat="45.56368" lon="-1.06753">
        <ele>49.371292</ele>
        <time>2022-12-22T13:47:41.570Z</time>
      </trkpt>
      <trkpt lat="45.56359" lon="-1.0676">
        <ele>49.308071</ele>
        <time>2022-12-22T13:47:44.596Z</time>
      </trkpt>
      <trkpt lat="45.56348" lon="-1.06767">
        <ele>49.142398</ele>
        <time>2022-12-22T13:47:47.593Z</time>
      </trkpt>
      <trkpt lat="45.56339" lon="-1.06773">
        <ele>48.997752</ele>
        <time>2022-12-22T13:47:50.608Z</time>
      </trkpt>
      <trkpt lat="45.5633" lon="-1.06779">
        <ele>48.859062</ele>
        <time>2022-12-22T13:47:53.595Z</time>
      </trkpt>
      <trkpt lat="45.56321" lon="-1.06785">
        <ele>48.717787</ele>
        <time>2022-12-22T13:47:56.596Z</time>
      </trkpt>
      <trkpt lat="45.56313" lon="-1.06792">
        <ele>48.590474</ele>
        <time>2022-12-22T13:47:59.601Z</time>
      </trkpt>
      <trkpt lat="45.56303" lon="-1.06799">
        <ele>48.429544</ele>
        <time>2022-12-22T13:48:03.599Z</time>
      </trkpt>
      <trkpt lat="45.56292" lon="-1.06806">
        <ele>48.264394</ele>
        <time>2022-12-22T13:48:06.589Z</time>
      </trkpt>
      <trkpt lat="45.56282" lon="-1.06813">
        <ele>48.1014</ele>
        <time>2022-12-22T13:48:09.593Z</time>
      </trkpt>
      <trkpt lat="45.56272" lon="-1.06819">
        <ele>47.944436</ele>
        <time>2022-12-22T13:48:12.595Z</time>
      </trkpt>
      <trkpt lat="45.56262" lon="-1.06822">
        <ele>47.806963</ele>
        <time>2022-12-22T13:48:15.592Z</time>
      </trkpt>
      <trkpt lat="45.56252" lon="-1.06824">
        <ele>47.657762</ele>
        <time>2022-12-22T13:48:18.589Z</time>
      </trkpt>
      <trkpt lat="45.56241" lon="-1.06826">
        <ele>47.500554</ele>
        <time>2022-12-22T13:48:21.593Z</time>
      </trkpt>
      <trkpt lat="45.5623" lon="-1.06827">
        <ele>47.341459</ele>
        <time>2022-12-22T13:48:24.596Z</time>
      </trkpt>
      <trkpt lat="45.56218" lon="-1.06827">
        <ele>47.176955</ele>
        <time>2022-12-22T13:48:27.570Z</time>
      </trkpt>
      <trkpt lat="45.56206" lon="-1.06824">
        <ele>47.011729</ele>
        <time>2022-12-22T13:48:30.585Z</time>
      </trkpt>
      <trkpt lat="45.56195" lon="-1.06822">
        <ele>46.846503</ele>
        <time>2022-12-22T13:48:33.592Z</time>
      </trkpt>
      <trkpt lat="45.56184" lon="-1.06818">
        <ele>46.743329</ele>
        <time>2022-12-22T13:48:36.592Z</time>
      </trkpt>
      <trkpt lat="45.56173" lon="-1.06812">
        <ele>46.715368</ele>
        <time>2022-12-22T13:48:39.590Z</time>
      </trkpt>
      <trkpt lat="45.56162" lon="-1.06806">
        <ele>46.687499</ele>
        <time>2022-12-22T13:48:42.570Z</time>
      </trkpt>
      <trkpt lat="45.56151" lon="-1.06799">
        <ele>46.659004</ele>
        <time>2022-12-22T13:48:45.592Z</time>
      </trkpt>
      <trkpt lat="45.56141" lon="-1.06792">
        <ele>46.630369</ele>
        <time>2022-12-22T13:48:48.583Z</time>
      </trkpt>
      <trkpt lat="45.5613" lon="-1.06786">
        <ele>46.602832</ele>
        <time>2022-12-22T13:48:51.593Z</time>
      </trkpt>
      <trkpt lat="45.5612" lon="-1.06778">
        <ele>46.575429</ele>
        <time>2022-12-22T13:48:54.593Z</time>
      </trkpt>
      <trkpt lat="45.56111" lon="-1.06772">
        <ele>46.549432</ele>
        <time>2022-12-22T13:48:57.596Z</time>
      </trkpt>
      <trkpt lat="45.56101" lon="-1.06765">
        <ele>46.523727</ele>
        <time>2022-12-22T13:49:00.596Z</time>
      </trkpt>
      <trkpt lat="45.56092" lon="-1.0676">
        <ele>46.498396</ele>
        <time>2022-12-22T13:49:03.593Z</time>
      </trkpt>
      <trkpt lat="45.56082" lon="-1.06756">
        <ele>46.47322</ele>
        <time>2022-12-22T13:49:06.595Z</time>
      </trkpt>
      <trkpt lat="45.56072" lon="-1.06752">
        <ele>46.448248</ele>
        <time>2022-12-22T13:49:09.589Z</time>
      </trkpt>
      <trkpt lat="45.56062" lon="-1.0675">
        <ele>46.423439</ele>
        <time>2022-12-22T13:49:12.592Z</time>
      </trkpt>
      <trkpt lat="45.56051" lon="-1.06748">
        <ele>46.397593</ele>
        <time>2022-12-22T13:49:15.597Z</time>
      </trkpt>
      <trkpt lat="45.5604" lon="-1.06747">
        <ele>46.37048</ele>
        <time>2022-12-22T13:49:18.595Z</time>
      </trkpt>
      <trkpt lat="45.5603" lon="-1.06744">
        <ele>46.345141</ele>
        <time>2022-12-22T13:49:21.588Z</time>
      </trkpt>
      <trkpt lat="45.56019" lon="-1.06743">
        <ele>46.319466</ele>
        <time>2022-12-22T13:49:24.591Z</time>
      </trkpt>
      <trkpt lat="45.56009" lon="-1.06743">
        <ele>46.370007</ele>
        <time>2022-12-22T13:49:27.579Z</time>
      </trkpt>
      <trkpt lat="45.55998" lon="-1.06742">
        <ele>46.421452</ele>
        <time>2022-12-22T13:49:30.592Z</time>
      </trkpt>
      <trkpt lat="45.55988" lon="-1.06741">
        <ele>46.471505</ele>
        <time>2022-12-22T13:49:33.593Z</time>
      </trkpt>
      <trkpt lat="45.55978" lon="-1.06741">
        <ele>46.524966</ele>
        <time>2022-12-22T13:49:36.584Z</time>
      </trkpt>
      <trkpt lat="45.55967" lon="-1.06739">
        <ele>46.579096</ele>
        <time>2022-12-22T13:49:39.595Z</time>
      </trkpt>
      <trkpt lat="45.55956" lon="-1.06739">
        <ele>46.636095</ele>
        <time>2022-12-22T13:49:42.596Z</time>
      </trkpt>
      <trkpt lat="45.55946" lon="-1.06738">
        <ele>46.687569</ele>
        <time>2022-12-22T13:49:45.597Z</time>
      </trkpt>
      <trkpt lat="45.55936" lon="-1.06738">
        <ele>46.735461</ele>
        <time>2022-12-22T13:49:48.595Z</time>
      </trkpt>
      <trkpt lat="45.55926" lon="-1.06737">
        <ele>46.785967</ele>
        <time>2022-12-22T13:49:51.595Z</time>
      </trkpt>
      <trkpt lat="45.55916" lon="-1.06737">
        <ele>46.836883</ele>
        <time>2022-12-22T13:49:54.572Z</time>
      </trkpt>
      <trkpt lat="45.55905" lon="-1.0674">
        <ele>46.891353</ele>
        <time>2022-12-22T13:49:58.592Z</time>
      </trkpt>
      <trkpt lat="45.55896" lon="-1.06746">
        <ele>46.944175</ele>
        <time>2022-12-22T13:50:03.592Z</time>
      </trkpt>
      <trkpt lat="45.55885" lon="-1.06751">
        <ele>46.999747</ele>
        <time>2022-12-22T13:50:07.578Z</time>
      </trkpt>
      <trkpt lat="45.55876" lon="-1.06752">
        <ele>47.04671</ele>
        <time>2022-12-22T13:50:10.575Z</time>
      </trkpt>
      <trkpt lat="45.55866" lon="-1.0675">
        <ele>47.095286</ele>
        <time>2022-12-22T13:50:13.578Z</time>
      </trkpt>
      <trkpt lat="45.55856" lon="-1.06747">
        <ele>47.146866</ele>
        <time>2022-12-22T13:50:16.594Z</time>
      </trkpt>
      <trkpt lat="45.55847" lon="-1.06745">
        <ele>47.195559</ele>
        <time>2022-12-22T13:50:19.596Z</time>
      </trkpt>
      <trkpt lat="45.55837" lon="-1.06742">
        <ele>47.220091</ele>
        <time>2022-12-22T13:50:22.597Z</time>
      </trkpt>
      <trkpt lat="45.55826" lon="-1.0674">
        <ele>47.20742</ele>
        <time>2022-12-22T13:50:25.596Z</time>
      </trkpt>
      <trkpt lat="45.55816" lon="-1.06736">
        <ele>47.195442</ele>
        <time>2022-12-22T13:50:28.588Z</time>
      </trkpt>
      <trkpt lat="45.55807" lon="-1.06735">
        <ele>47.183695</ele>
        <time>2022-12-22T13:50:31.596Z</time>
      </trkpt>
      <trkpt lat="45.55796" lon="-1.06734">
        <ele>47.171061</ele>
        <time>2022-12-22T13:50:34.590Z</time>
      </trkpt>
      <trkpt lat="45.55785" lon="-1.06732">
        <ele>47.158064</ele>
        <time>2022-12-22T13:50:37.599Z</time>
      </trkpt>
      <trkpt lat="45.55775" lon="-1.06732">
        <ele>47.146044</ele>
        <time>2022-12-22T13:50:40.566Z</time>
      </trkpt>
      <trkpt lat="45.55765" lon="-1.06731">
        <ele>47.135017</ele>
        <time>2022-12-22T13:50:43.570Z</time>
      </trkpt>
      <trkpt lat="45.55755" lon="-1.06729">
        <ele>47.122431</ele>
        <time>2022-12-22T13:50:47.598Z</time>
      </trkpt>
      <trkpt lat="45.55745" lon="-1.06728">
        <ele>47.111325</ele>
        <time>2022-12-22T13:50:50.591Z</time>
      </trkpt>
      <trkpt lat="45.55735" lon="-1.06729">
        <ele>47.099039</ele>
        <time>2022-12-22T13:50:53.578Z</time>
      </trkpt>
      <trkpt lat="45.55724" lon="-1.06728">
        <ele>47.086195</ele>
        <time>2022-12-22T13:50:56.595Z</time>
      </trkpt>
      <trkpt lat="45.55713" lon="-1.06729">
        <ele>47.073352</ele>
        <time>2022-12-22T13:50:59.587Z</time>
      </trkpt>
      <trkpt lat="45.55701" lon="-1.06728">
        <ele>47.059559</ele>
        <time>2022-12-22T13:51:02.596Z</time>
      </trkpt>
      <trkpt lat="45.5569" lon="-1.06728">
        <ele>47.045772</ele>
        <time>2022-12-22T13:51:05.594Z</time>
      </trkpt>
      <trkpt lat="45.55679" lon="-1.06727">
        <ele>47.033031</ele>
        <time>2022-12-22T13:51:08.583Z</time>
      </trkpt>
      <trkpt lat="45.55669" lon="-1.06726">
        <ele>47.021787</ele>
        <time>2022-12-22T13:51:11.595Z</time>
      </trkpt>
      <trkpt lat="45.55659" lon="-1.06726">
        <ele>46.995141</ele>
        <time>2022-12-22T13:51:14.571Z</time>
      </trkpt>
      <trkpt lat="45.55649" lon="-1.06724">
        <ele>46.925687</ele>
        <time>2022-12-22T13:51:17.573Z</time>
      </trkpt>
      <trkpt lat="45.55638" lon="-1.06722">
        <ele>46.85191</ele>
        <time>2022-12-22T13:51:20.597Z</time>
      </trkpt>
      <trkpt lat="45.55627" lon="-1.0672">
        <ele>46.778021</ele>
        <time>2022-12-22T13:51:23.597Z</time>
      </trkpt>
      <trkpt lat="45.55617" lon="-1.06716">
        <ele>46.713225</ele>
        <time>2022-12-22T13:51:26.597Z</time>
      </trkpt>
      <trkpt lat="45.55608" lon="-1.06713">
        <ele>46.649067</ele>
        <time>2022-12-22T13:51:29.595Z</time>
      </trkpt>
      <trkpt lat="45.55598" lon="-1.06709">
        <ele>46.581042</ele>
        <time>2022-12-22T13:51:32.598Z</time>
      </trkpt>
      <trkpt lat="45.55587" lon="-1.06705">
        <ele>46.51175</ele>
        <time>2022-12-22T13:51:35.596Z</time>
      </trkpt>
      <trkpt lat="45.55576" lon="-1.06701">
        <ele>46.435645</ele>
        <time>2022-12-22T13:51:39.591Z</time>
      </trkpt>
      <trkpt lat="45.55567" lon="-1.06696">
        <ele>46.372917</ele>
        <time>2022-12-22T13:51:42.599Z</time>
      </trkpt>
      <trkpt lat="45.55557" lon="-1.06691">
        <ele>46.303127</ele>
        <time>2022-12-22T13:51:45.599Z</time>
      </trkpt>
      <trkpt lat="45.55547" lon="-1.06684">
        <ele>46.226642</ele>
        <time>2022-12-22T13:51:48.595Z</time>
      </trkpt>
      <trkpt lat="45.55536" lon="-1.06678">
        <ele>46.149372</ele>
        <time>2022-12-22T13:51:51.598Z</time>
      </trkpt>
      <trkpt lat="45.55525" lon="-1.06674">
        <ele>46.074885</ele>
        <time>2022-12-22T13:51:54.595Z</time>
      </trkpt>
      <trkpt lat="45.55514" lon="-1.06671">
        <ele>46.004431</ele>
        <time>2022-12-22T13:51:57.595Z</time>
      </trkpt>
      <trkpt lat="45.55504" lon="-1.06668">
        <ele>45.935371</ele>
        <time>2022-12-22T13:52:00.596Z</time>
      </trkpt>
      <trkpt lat="45.55493" lon="-1.06666">
        <ele>45.863132</ele>
        <time>2022-12-22T13:52:03.595Z</time>
      </trkpt>
      <trkpt lat="45.55482" lon="-1.06664">
        <ele>45.859868</ele>
        <time>2022-12-22T13:52:06.596Z</time>
      </trkpt>
      <trkpt lat="45.55471" lon="-1.06663">
        <ele>45.906412</ele>
        <time>2022-12-22T13:52:09.587Z</time>
      </trkpt>
      <trkpt lat="45.5546" lon="-1.06659">
        <ele>45.955449</ele>
        <time>2022-12-22T13:52:12.572Z</time>
      </trkpt>
      <trkpt lat="45.55448" lon="-1.06653">
        <ele>46.006348</ele>
        <time>2022-12-22T13:52:15.598Z</time>
      </trkpt>
      <trkpt lat="45.55438" lon="-1.06648">
        <ele>46.052983</ele>
        <time>2022-12-22T13:52:18.595Z</time>
      </trkpt>
      <trkpt lat="45.55428" lon="-1.06642">
        <ele>46.096774</ele>
        <time>2022-12-22T13:52:21.599Z</time>
      </trkpt>
      <trkpt lat="45.55419" lon="-1.06636">
        <ele>46.140637</ele>
        <time>2022-12-22T13:52:24.597Z</time>
      </trkpt>
      <trkpt lat="45.55409" lon="-1.0663">
        <ele>46.187492</ele>
        <time>2022-12-22T13:52:27.596Z</time>
      </trkpt>
      <trkpt lat="45.55398" lon="-1.06624">
        <ele>46.236297</ele>
        <time>2022-12-22T13:52:30.586Z</time>
      </trkpt>
      <trkpt lat="45.55387" lon="-1.06619">
        <ele>46.281818</ele>
        <time>2022-12-22T13:52:33.568Z</time>
      </trkpt>
      <trkpt lat="45.55377" lon="-1.06614">
        <ele>46.328255</ele>
        <time>2022-12-22T13:52:36.593Z</time>
      </trkpt>
      <trkpt lat="45.55367" lon="-1.06608">
        <ele>46.37511</ele>
        <time>2022-12-22T13:52:39.594Z</time>
      </trkpt>
      <trkpt lat="45.55357" lon="-1.06601">
        <ele>46.421999</ele>
        <time>2022-12-22T13:52:42.595Z</time>
      </trkpt>
      <trkpt lat="45.55348" lon="-1.06592">
        <ele>46.4678</ele>
        <time>2022-12-22T13:52:45.588Z</time>
      </trkpt>
      <trkpt lat="45.55339" lon="-1.06582">
        <ele>46.514958</ele>
        <time>2022-12-22T13:52:48.595Z</time>
      </trkpt>
      <trkpt lat="45.5533" lon="-1.06572">
        <ele>46.562883</ele>
        <time>2022-12-22T13:52:51.593Z</time>
      </trkpt>
      <trkpt lat="45.55322" lon="-1.06564">
        <ele>46.607782</ele>
        <time>2022-12-22T13:52:54.586Z</time>
      </trkpt>
      <trkpt lat="45.55312" lon="-1.06554">
        <ele>46.666578</ele>
        <time>2022-12-22T13:52:58.572Z</time>
      </trkpt>
      <trkpt lat="45.55303" lon="-1.0655">
        <ele>46.712373</ele>
        <time>2022-12-22T13:53:01.574Z</time>
      </trkpt>
      <trkpt lat="45.55293" lon="-1.0655">
        <ele>46.761364</ele>
        <time>2022-12-22T13:53:04.575Z</time>
      </trkpt>
      <trkpt lat="45.55283" lon="-1.06553">
        <ele>46.813184</ele>
        <time>2022-12-22T13:53:07.577Z</time>
      </trkpt>
      <trkpt lat="45.55274" lon="-1.06557">
        <ele>46.86097</ele>
        <time>2022-12-22T13:53:10.580Z</time>
      </trkpt>
      <trkpt lat="45.55263" lon="-1.06558">
        <ele>46.917422</ele>
        <time>2022-12-22T13:53:14.570Z</time>
      </trkpt>
      <trkpt lat="45.55255" lon="-1.06552">
        <ele>46.961946</ele>
        <time>2022-12-22T13:53:17.577Z</time>
      </trkpt>
      <trkpt lat="45.55247" lon="-1.06542">
        <ele>47.012589</ele>
        <time>2022-12-22T13:53:20.577Z</time>
      </trkpt>
      <trkpt lat="45.5524" lon="-1.0653">
        <ele>47.066303</ele>
        <time>2022-12-22T13:53:23.598Z</time>
      </trkpt>
      <trkpt lat="45.55235" lon="-1.06516">
        <ele>47.120769</ele>
        <time>2022-12-22T13:53:26.578Z</time>
      </trkpt>
      <trkpt lat="45.55229" lon="-1.06502">
        <ele>47.177865</ele>
        <time>2022-12-22T13:53:29.595Z</time>
      </trkpt>
      <trkpt lat="45.55223" lon="-1.06488">
        <ele>47.235776</ele>
        <time>2022-12-22T13:53:32.597Z</time>
      </trkpt>
      <trkpt lat="45.55217" lon="-1.06473">
        <ele>47.294597</ele>
        <time>2022-12-22T13:53:35.577Z</time>
      </trkpt>
      <trkpt lat="45.55212" lon="-1.06458">
        <ele>47.35303</ele>
        <time>2022-12-22T13:53:38.597Z</time>
      </trkpt>
      <trkpt lat="45.55207" lon="-1.06444">
        <ele>47.407549</ele>
        <time>2022-12-22T13:53:41.596Z</time>
      </trkpt>
      <trkpt lat="45.55203" lon="-1.0643">
        <ele>47.459293</ele>
        <time>2022-12-22T13:53:44.595Z</time>
      </trkpt>
      <trkpt lat="45.55198" lon="-1.06416">
        <ele>47.493146</ele>
        <time>2022-12-22T13:53:47.594Z</time>
      </trkpt>
      <trkpt lat="45.55194" lon="-1.064">
        <ele>47.514663</ele>
        <time>2022-12-22T13:53:50.571Z</time>
      </trkpt>
      <trkpt lat="45.5519" lon="-1.06384">
        <ele>47.537024</ele>
        <time>2022-12-22T13:53:53.598Z</time>
      </trkpt>
      <trkpt lat="45.55187" lon="-1.06368">
        <ele>47.557457</ele>
        <time>2022-12-22T13:53:56.572Z</time>
      </trkpt>
      <trkpt lat="45.55185" lon="-1.06356">
        <ele>47.574467</ele>
        <time>2022-12-22T13:53:59.596Z</time>
      </trkpt>
      <trkpt lat="45.55182" lon="-1.06343">
        <ele>47.592314</ele>
        <time>2022-12-22T13:54:03.574Z</time>
      </trkpt>
      <trkpt lat="45.55181" lon="-1.06329">
        <ele>47.609505</ele>
        <time>2022-12-22T13:54:09.596Z</time>
      </trkpt>
      <trkpt lat="45.55178" lon="-1.06314">
        <ele>47.630537</ele>
        <time>2022-12-22T13:54:14.576Z</time>
      </trkpt>
      <trkpt lat="45.55175" lon="-1.06297">
        <ele>47.652736</ele>
        <time>2022-12-22T13:54:18.598Z</time>
      </trkpt>
      <trkpt lat="45.55171" lon="-1.06283">
        <ele>47.672839</ele>
        <time>2022-12-22T13:54:21.597Z</time>
      </trkpt>
      <trkpt lat="45.55166" lon="-1.06267">
        <ele>47.694592</ele>
        <time>2022-12-22T13:54:24.594Z</time>
      </trkpt>
      <trkpt lat="45.5516" lon="-1.06252">
        <ele>47.717022</ele>
        <time>2022-12-22T13:54:27.592Z</time>
      </trkpt>
      <trkpt lat="45.55153" lon="-1.06238">
        <ele>47.739546</ele>
        <time>2022-12-22T13:54:30.596Z</time>
      </trkpt>
      <trkpt lat="45.55145" lon="-1.06224">
        <ele>47.762737</ele>
        <time>2022-12-22T13:54:33.591Z</time>
      </trkpt>
      <trkpt lat="45.55137" lon="-1.0621">
        <ele>47.7859</ele>
        <time>2022-12-22T13:54:36.595Z</time>
      </trkpt>
      <trkpt lat="45.55129" lon="-1.06197">
        <ele>47.809235</ele>
        <time>2022-12-22T13:54:39.573Z</time>
      </trkpt>
      <trkpt lat="45.5512" lon="-1.06183">
        <ele>47.822736</ele>
        <time>2022-12-22T13:54:42.596Z</time>
      </trkpt>
      <trkpt lat="45.55112" lon="-1.0617">
        <ele>47.834355</ele>
        <time>2022-12-22T13:54:45.593Z</time>
      </trkpt>
      <trkpt lat="45.55104" lon="-1.06158">
        <ele>47.844837</ele>
        <time>2022-12-22T13:54:48.570Z</time>
      </trkpt>
      <trkpt lat="45.55097" lon="-1.06148">
        <ele>47.854713</ele>
        <time>2022-12-22T13:54:51.588Z</time>
      </trkpt>
      <trkpt lat="45.55089" lon="-1.06138">
        <ele>47.86466</ele>
        <time>2022-12-22T13:54:54.591Z</time>
      </trkpt>
      <trkpt lat="45.55079" lon="-1.0613">
        <ele>47.8752</ele>
        <time>2022-12-22T13:54:57.570Z</time>
      </trkpt>
      <trkpt lat="45.55069" lon="-1.06122">
        <ele>47.8863</ele>
        <time>2022-12-22T13:55:00.591Z</time>
      </trkpt>
      <trkpt lat="45.55058" lon="-1.06115">
        <ele>47.897417</ele>
        <time>2022-12-22T13:55:03.581Z</time>
      </trkpt>
      <trkpt lat="45.55047" lon="-1.06109">
        <ele>47.908149</ele>
        <time>2022-12-22T13:55:06.580Z</time>
      </trkpt>
      <trkpt lat="45.55037" lon="-1.06104">
        <ele>47.918517</ele>
        <time>2022-12-22T13:55:09.597Z</time>
      </trkpt>
      <trkpt lat="45.55026" lon="-1.06098">
        <ele>47.929767</ele>
        <time>2022-12-22T13:55:12.598Z</time>
      </trkpt>
      <trkpt lat="45.55014" lon="-1.06094">
        <ele>47.941366</ele>
        <time>2022-12-22T13:55:15.570Z</time>
      </trkpt>
      <trkpt lat="45.55002" lon="-1.06089">
        <ele>47.953126</ele>
        <time>2022-12-22T13:55:18.584Z</time>
      </trkpt>
      <trkpt lat="45.54989" lon="-1.06084">
        <ele>47.96529</ele>
        <time>2022-12-22T13:55:21.586Z</time>
      </trkpt>
      <trkpt lat="45.54977" lon="-1.0608">
        <ele>47.977588</ele>
        <time>2022-12-22T13:55:24.590Z</time>
      </trkpt>
      <trkpt lat="45.54968" lon="-1.06077">
        <ele>47.991736</ele>
        <time>2022-12-22T13:55:26.594Z</time>
      </trkpt>
      <trkpt lat="45.54956" lon="-1.06073">
        <ele>48.01679</ele>
        <time>2022-12-22T13:55:29.592Z</time>
      </trkpt>
      <trkpt lat="45.54946" lon="-1.0607">
        <ele>48.035574</ele>
        <time>2022-12-22T13:55:32.591Z</time>
      </trkpt>
      <trkpt lat="45.54936" lon="-1.06066">
        <ele>48.057467</ele>
        <time>2022-12-22T13:55:37.574Z</time>
      </trkpt>
      <trkpt lat="45.54925" lon="-1.06062">
        <ele>48.080566</ele>
        <time>2022-12-22T13:55:42.569Z</time>
      </trkpt>
      <trkpt lat="45.54916" lon="-1.06059">
        <ele>48.099123</ele>
        <time>2022-12-22T13:55:45.593Z</time>
      </trkpt>
      <trkpt lat="45.54907" lon="-1.06055">
        <ele>48.117259</ele>
        <time>2022-12-22T13:55:48.594Z</time>
      </trkpt>
      <trkpt lat="45.54896" lon="-1.06051">
        <ele>48.14006</ele>
        <time>2022-12-22T13:55:52.580Z</time>
      </trkpt>
      <trkpt lat="45.54886" lon="-1.06048">
        <ele>48.160223</ele>
        <time>2022-12-22T13:55:56.594Z</time>
      </trkpt>
      <trkpt lat="45.54877" lon="-1.06047">
        <ele>48.180265</ele>
        <time>2022-12-22T13:56:01.597Z</time>
      </trkpt>
      <trkpt lat="45.54866" lon="-1.06045">
        <ele>48.202224</ele>
        <time>2022-12-22T13:56:06.597Z</time>
      </trkpt>
      <trkpt lat="45.54854" lon="-1.06045">
        <ele>48.226</ele>
        <time>2022-12-22T13:56:10.594Z</time>
      </trkpt>
      <trkpt lat="45.54843" lon="-1.06046">
        <ele>48.248036</ele>
        <time>2022-12-22T13:56:13.592Z</time>
      </trkpt>
      <trkpt lat="45.5483" lon="-1.0605">
        <ele>48.274756</ele>
        <time>2022-12-22T13:56:16.574Z</time>
      </trkpt>
      <trkpt lat="45.54822" lon="-1.06056">
        <ele>48.293678</ele>
        <time>2022-12-22T13:56:18.580Z</time>
      </trkpt>
      <trkpt lat="45.54815" lon="-1.06064">
        <ele>48.311899</ele>
        <time>2022-12-22T13:56:20.572Z</time>
      </trkpt>
      <trkpt lat="45.54805" lon="-1.06076">
        <ele>48.337454</ele>
        <time>2022-12-22T13:56:23.589Z</time>
      </trkpt>
      <trkpt lat="45.54797" lon="-1.06086">
        <ele>48.318723</ele>
        <time>2022-12-22T13:56:26.595Z</time>
      </trkpt>
      <trkpt lat="45.54789" lon="-1.06096">
        <ele>48.284072</ele>
        <time>2022-12-22T13:56:29.597Z</time>
      </trkpt>
      <trkpt lat="45.5478" lon="-1.06106">
        <ele>48.248169</ele>
        <time>2022-12-22T13:56:32.596Z</time>
      </trkpt>
      <trkpt lat="45.54771" lon="-1.06113">
        <ele>48.214506</ele>
        <time>2022-12-22T13:56:35.568Z</time>
      </trkpt>
      <trkpt lat="45.54761" lon="-1.06113">
        <ele>48.181092</ele>
        <time>2022-12-22T13:56:38.575Z</time>
      </trkpt>
      <trkpt lat="45.54751" lon="-1.06107">
        <ele>48.14571</ele>
        <time>2022-12-22T13:56:41.571Z</time>
      </trkpt>
      <trkpt lat="45.54741" lon="-1.06101">
        <ele>48.110987</ele>
        <time>2022-12-22T13:56:44.576Z</time>
      </trkpt>
      <trkpt lat="45.54731" lon="-1.06095">
        <ele>48.074489</ele>
        <time>2022-12-22T13:56:47.595Z</time>
      </trkpt>
      <trkpt lat="45.54721" lon="-1.0609">
        <ele>48.038575</ele>
        <time>2022-12-22T13:56:50.600Z</time>
      </trkpt>
      <trkpt lat="45.5471" lon="-1.06085">
        <ele>48.002966</ele>
        <time>2022-12-22T13:56:53.592Z</time>
      </trkpt>
      <trkpt lat="45.54702" lon="-1.0608">
        <ele>47.972438</ele>
        <time>2022-12-22T13:56:56.588Z</time>
      </trkpt>
      <trkpt lat="45.54691" lon="-1.06075">
        <ele>47.93642</ele>
        <time>2022-12-22T13:57:00.565Z</time>
      </trkpt>
      <trkpt lat="45.54681" lon="-1.06072">
        <ele>47.901656</ele>
        <time>2022-12-22T13:57:04.594Z</time>
      </trkpt>
      <trkpt lat="45.5467" lon="-1.06072">
        <ele>47.864979</ele>
        <time>2022-12-22T13:57:08.582Z</time>
      </trkpt>
      <trkpt lat="45.54658" lon="-1.06075">
        <ele>47.827838</ele>
        <time>2022-12-22T13:57:12.572Z</time>
      </trkpt>
      <trkpt lat="45.54649" lon="-1.06085">
        <ele>47.790131</ele>
        <time>2022-12-22T13:57:16.572Z</time>
      </trkpt>
      <trkpt lat="45.54644" lon="-1.06096">
        <ele>47.759713</ele>
        <time>2022-12-22T13:57:19.581Z</time>
      </trkpt>
      <trkpt lat="45.54639" lon="-1.06107">
        <ele>47.818416</ele>
        <time>2022-12-22T13:57:22.606Z</time>
      </trkpt>
      <trkpt lat="45.54633" lon="-1.06118">
        <ele>47.89327</ele>
        <time>2022-12-22T13:57:25.597Z</time>
      </trkpt>
      <trkpt lat="45.54628" lon="-1.0613">
        <ele>47.969098</ele>
        <time>2022-12-22T13:57:28.586Z</time>
      </trkpt>
      <trkpt lat="45.54623" lon="-1.06141">
        <ele>48.042162</ele>
        <time>2022-12-22T13:57:31.595Z</time>
      </trkpt>
      <trkpt lat="45.54618" lon="-1.06155">
        <ele>48.127914</ele>
        <time>2022-12-22T13:57:35.596Z</time>
      </trkpt>
      <trkpt lat="45.54612" lon="-1.06169">
        <ele>48.216799</ele>
        <time>2022-12-22T13:57:40.598Z</time>
      </trkpt>
      <trkpt lat="45.54606" lon="-1.06181">
        <ele>48.297508</ele>
        <time>2022-12-22T13:57:44.586Z</time>
      </trkpt>
      <trkpt lat="45.546" lon="-1.06194">
        <ele>48.384919</ele>
        <time>2022-12-22T13:57:48.579Z</time>
      </trkpt>
      <trkpt lat="45.54593" lon="-1.06207">
        <ele>48.473668</ele>
        <time>2022-12-22T13:57:52.585Z</time>
      </trkpt>
      <trkpt lat="45.54587" lon="-1.06221">
        <ele>48.565155</ele>
        <time>2022-12-22T13:57:56.593Z</time>
      </trkpt>
      <trkpt lat="45.5458" lon="-1.06234">
        <ele>48.649948</ele>
        <time>2022-12-22T13:58:00.587Z</time>
      </trkpt>
      <trkpt lat="45.54575" lon="-1.06245">
        <ele>48.725253</ele>
        <time>2022-12-22T13:58:04.588Z</time>
      </trkpt>
      <trkpt lat="45.54569" lon="-1.06255">
        <ele>48.797951</ele>
        <time>2022-12-22T13:58:09.568Z</time>
      </trkpt>
      <trkpt lat="45.54569" lon="-1.0627">
        <ele>48.878974</ele>
        <time>2022-12-22T13:58:14.575Z</time>
      </trkpt>
      <trkpt lat="45.54567" lon="-1.06284">
        <ele>48.955717</ele>
        <time>2022-12-22T13:58:19.572Z</time>
      </trkpt>
      <trkpt lat="45.54561" lon="-1.06296">
        <ele>49.032815</ele>
        <time>2022-12-22T13:58:25.567Z</time>
      </trkpt>
      <trkpt lat="45.54568" lon="-1.06283">
        <ele>49.118567</ele>
        <time>2022-12-22T13:59:13.578Z</time>
      </trkpt>
      <trkpt lat="45.54567" lon="-1.06269">
        <ele>49.111381</ele>
        <time>2022-12-22T13:59:17.575Z</time>
      </trkpt>
      <trkpt lat="45.54561" lon="-1.06258">
        <ele>49.010283</ele>
        <time>2022-12-22T13:59:20.579Z</time>
      </trkpt>
      <trkpt lat="45.54554" lon="-1.06248">
        <ele>48.907175</ele>
        <time>2022-12-22T13:59:23.596Z</time>
      </trkpt>
      <trkpt lat="45.54546" lon="-1.06239">
        <ele>48.805518</ele>
        <time>2022-12-22T13:59:26.593Z</time>
      </trkpt>
      <trkpt lat="45.54539" lon="-1.06231">
        <ele>48.713125</ele>
        <time>2022-12-22T13:59:29.575Z</time>
      </trkpt>
      <trkpt lat="45.5453" lon="-1.06221">
        <ele>48.597543</ele>
        <time>2022-12-22T13:59:33.571Z</time>
      </trkpt>
      <trkpt lat="45.54521" lon="-1.06214">
        <ele>48.495701</ele>
        <time>2022-12-22T13:59:37.571Z</time>
      </trkpt>
      <trkpt lat="45.54512" lon="-1.06206">
        <ele>48.387479</ele>
        <time>2022-12-22T13:59:41.594Z</time>
      </trkpt>
      <trkpt lat="45.54502" lon="-1.062">
        <ele>48.276671</ele>
        <time>2022-12-22T13:59:45.600Z</time>
      </trkpt>
      <trkpt lat="45.54494" lon="-1.06195">
        <ele>48.181967</ele>
        <time>2022-12-22T13:59:49.593Z</time>
      </trkpt>
      <trkpt lat="45.54485" lon="-1.0619">
        <ele>48.085477</ele>
        <time>2022-12-22T13:59:55.576Z</time>
      </trkpt>
      <trkpt lat="45.54491" lon="-1.062">
        <ele>47.986813</ele>
        <time>2022-12-22T14:52:13.594Z</time>
      </trkpt>
      <trkpt lat="45.545" lon="-1.06207">
        <ele>47.889942</ele>
        <time>2022-12-22T14:52:21.597Z</time>
      </trkpt>
      <trkpt lat="45.54508" lon="-1.06213">
        <ele>47.791777</ele>
        <time>2022-12-22T14:52:29.579Z</time>
      </trkpt>
      <trkpt lat="45.54516" lon="-1.0622">
        <ele>47.695552</ele>
        <time>2022-12-22T14:52:37.599Z</time>
      </trkpt>
      <trkpt lat="45.54523" lon="-1.06229">
        <ele>47.60057</ele>
        <time>2022-12-22T14:52:44.597Z</time>
      </trkpt>
      <trkpt lat="45.5453" lon="-1.06238">
        <ele>47.500681</ele>
        <time>2022-12-22T14:52:52.595Z</time>
      </trkpt>
      <trkpt lat="45.54538" lon="-1.06245">
        <ele>47.406651</ele>
        <time>2022-12-22T14:53:00.596Z</time>
      </trkpt>
      <trkpt lat="45.54546" lon="-1.06253">
        <ele>47.329881</ele>
        <time>2022-12-22T14:53:08.597Z</time>
      </trkpt>
      <trkpt lat="45.54553" lon="-1.06263">
        <ele>47.381486</ele>
        <time>2022-12-22T14:53:16.596Z</time>
      </trkpt>
      <trkpt lat="45.54559" lon="-1.06271">
        <ele>47.430865</ele>
        <time>2022-12-22T14:53:23.586Z</time>
      </trkpt>
      <trkpt lat="45.54568" lon="-1.06276">
        <ele>47.48164</ele>
        <time>2022-12-22T14:53:39.600Z</time>
      </trkpt>
      <trkpt lat="45.5457" lon="-1.06291">
        <ele>47.537295</ele>
        <time>2022-12-22T14:53:48.598Z</time>
      </trkpt>
      <trkpt lat="45.54571" lon="-1.06304">
        <ele>47.588436</ele>
        <time>2022-12-22T14:53:58.598Z</time>
      </trkpt>
      <trkpt lat="45.5457" lon="-1.0629">
        <ele>47.640335</ele>
        <time>2022-12-22T14:54:29.596Z</time>
      </trkpt>
      <trkpt lat="45.54569" lon="-1.06276">
        <ele>47.695399</ele>
        <time>2022-12-22T14:54:38.595Z</time>
      </trkpt>
      <trkpt lat="45.54567" lon="-1.06263">
        <ele>47.747981</ele>
        <time>2022-12-22T14:54:46.597Z</time>
      </trkpt>
      <trkpt lat="45.5456" lon="-1.06253">
        <ele>47.801167</ele>
        <time>2022-12-22T14:54:53.584Z</time>
      </trkpt>
      <trkpt lat="45.54553" lon="-1.06242">
        <ele>47.856428</ele>
        <time>2022-12-22T14:55:01.596Z</time>
      </trkpt>
      <trkpt lat="45.54544" lon="-1.06236">
        <ele>47.911897</ele>
        <time>2022-12-22T14:55:08.596Z</time>
      </trkpt>
      <trkpt lat="45.54536" lon="-1.06226">
        <ele>47.968547</ele>
        <time>2022-12-22T14:55:16.596Z</time>
      </trkpt>
      <trkpt lat="45.54527" lon="-1.06221">
        <ele>48.022577</ele>
        <time>2022-12-22T14:55:22.598Z</time>
      </trkpt>
      <trkpt lat="45.54519" lon="-1.06216">
        <ele>48.071495</ele>
        <time>2022-12-22T14:55:29.586Z</time>
      </trkpt>
      <trkpt lat="45.54511" lon="-1.06209">
        <ele>48.121226</ele>
        <time>2022-12-22T14:55:36.596Z</time>
      </trkpt>
      <trkpt lat="45.54503" lon="-1.06204">
        <ele>48.170418</ele>
        <time>2022-12-22T14:55:43.596Z</time>
      </trkpt>
      <trkpt lat="45.54494" lon="-1.062">
        <ele>48.222158</ele>
        <time>2022-12-22T14:55:51.590Z</time>
      </trkpt>
      <trkpt lat="45.54485" lon="-1.06195">
        <ele>48.273124</ele>
        <time>2022-12-22T14:56:06.595Z</time>
      </trkpt>
      <trkpt lat="45.54494" lon="-1.06198">
        <ele>48.314772</ele>
        <time>2022-12-22T14:57:01.581Z</time>
      </trkpt>
      <trkpt lat="45.54503" lon="-1.06204">
        <ele>48.346178</ele>
        <time>2022-12-22T14:57:10.579Z</time>
      </trkpt>
      <trkpt lat="45.54512" lon="-1.06211">
        <ele>48.37831</ele>
        <time>2022-12-22T14:57:17.600Z</time>
      </trkpt>
      <trkpt lat="45.54521" lon="-1.06216">
        <ele>48.409937</ele>
        <time>2022-12-22T14:57:24.595Z</time>
      </trkpt>
      <trkpt lat="45.54529" lon="-1.06225">
        <ele>48.442379</ele>
        <time>2022-12-22T14:57:32.594Z</time>
      </trkpt>
      <trkpt lat="45.54538" lon="-1.06232">
        <ele>48.475139</ele>
        <time>2022-12-22T14:57:39.599Z</time>
      </trkpt>
      <trkpt lat="45.54546" lon="-1.06241">
        <ele>48.506531</ele>
        <time>2022-12-22T14:57:46.597Z</time>
      </trkpt>
      <trkpt lat="45.54554" lon="-1.06249">
        <ele>48.538701</ele>
        <time>2022-12-22T14:57:53.598Z</time>
      </trkpt>
      <trkpt lat="45.54563" lon="-1.06255">
        <ele>48.571977</ele>
        <time>2022-12-22T14:58:00.595Z</time>
      </trkpt>
      <trkpt lat="45.54569" lon="-1.06265">
        <ele>48.601978</ele>
        <time>2022-12-22T14:58:07.597Z</time>
      </trkpt>
      <trkpt lat="45.54571" lon="-1.06278">
        <ele>48.631227</ele>
        <time>2022-12-22T14:58:16.596Z</time>
      </trkpt>
      <trkpt lat="45.54572" lon="-1.06291">
        <ele>48.660159</ele>
        <time>2022-12-22T14:58:22.596Z</time>
      </trkpt>
      <trkpt lat="45.54564" lon="-1.06297">
        <ele>48.689468</ele>
        <time>2022-12-22T14:58:40.575Z</time>
      </trkpt>
      <trkpt lat="45.54565" lon="-1.06307">
        <ele>48.713117</ele>
        <time>2022-12-22T15:00:10.724Z</time>
      </trkpt>
      <trkpt lat="45.54483" lon="-1.06184">
        <ele>48.283519</ele>
        <time>2022-12-22T15:40:24.687Z</time>
      </trkpt>
      <trkpt lat="45.54489" lon="-1.06195">
        <ele>48.19789</ele>
        <time>2022-12-22T15:41:43.660Z</time>
      </trkpt>
      <trkpt lat="45.54498" lon="-1.06201">
        <ele>48.103196</ele>
        <time>2022-12-22T15:41:49.590Z</time>
      </trkpt>
      <trkpt lat="45.54507" lon="-1.06205">
        <ele>48.020852</ele>
        <time>2022-12-22T15:41:53.611Z</time>
      </trkpt>
      <trkpt lat="45.54517" lon="-1.06211">
        <ele>47.929888</ele>
        <time>2022-12-22T15:41:57.608Z</time>
      </trkpt>
      <trkpt lat="45.54526" lon="-1.06219">
        <ele>47.832005</ele>
        <time>2022-12-22T15:42:01.609Z</time>
      </trkpt>
      <trkpt lat="45.54534" lon="-1.06226">
        <ele>47.746698</ele>
        <time>2022-12-22T15:42:05.598Z</time>
      </trkpt>
      <trkpt lat="45.54543" lon="-1.06235">
        <ele>47.653962</ele>
        <time>2022-12-22T15:42:09.598Z</time>
      </trkpt>
      <trkpt lat="45.54551" lon="-1.06243">
        <ele>47.56226</ele>
        <time>2022-12-22T15:42:13.598Z</time>
      </trkpt>
      <trkpt lat="45.54559" lon="-1.06254">
        <ele>47.468758</ele>
        <time>2022-12-22T15:42:18.599Z</time>
      </trkpt>
      <trkpt lat="45.54563" lon="-1.06266">
        <ele>47.385892</ele>
        <time>2022-12-22T15:42:24.615Z</time>
      </trkpt>
      <trkpt lat="45.54558" lon="-1.06277">
        <ele>47.29947</ele>
        <time>2022-12-22T15:42:29.597Z</time>
      </trkpt>
      <trkpt lat="45.5455" lon="-1.06287">
        <ele>47.139767</ele>
        <time>2022-12-22T15:42:33.609Z</time>
      </trkpt>
      <trkpt lat="45.54542" lon="-1.06298">
        <ele>46.96126</ele>
        <time>2022-12-22T15:42:37.595Z</time>
      </trkpt>
      <trkpt lat="45.54535" lon="-1.06309">
        <ele>46.781856</ele>
        <time>2022-12-22T15:42:41.609Z</time>
      </trkpt>
      <trkpt lat="45.54528" lon="-1.06321">
        <ele>46.595009</ele>
        <time>2022-12-22T15:42:45.614Z</time>
      </trkpt>
      <trkpt lat="45.54519" lon="-1.0633">
        <ele>46.422305</ele>
        <time>2022-12-22T15:42:49.609Z</time>
      </trkpt>
      <trkpt lat="45.54511" lon="-1.06339">
        <ele>46.240961</ele>
        <time>2022-12-22T15:42:53.604Z</time>
      </trkpt>
      <trkpt lat="45.54503" lon="-1.06347">
        <ele>46.07847</ele>
        <time>2022-12-22T15:42:57.591Z</time>
      </trkpt>
      <trkpt lat="45.54494" lon="-1.06338">
        <ele>45.899202</ele>
        <time>2022-12-22T15:43:01.615Z</time>
      </trkpt>
      <trkpt lat="45.54485" lon="-1.06327">
        <ele>45.712917</ele>
        <time>2022-12-22T15:43:05.605Z</time>
      </trkpt>
      <trkpt lat="45.54477" lon="-1.06319">
        <ele>45.545824</ele>
        <time>2022-12-22T15:43:09.591Z</time>
      </trkpt>
      <trkpt lat="45.5446" lon="-1.06298">
        <ele>45.166633</ele>
        <time>2022-12-22T15:43:44.595Z</time>
      </trkpt>
      <trkpt lat="45.54453" lon="-1.0629">
        <ele>45.014257</ele>
        <time>2022-12-22T15:43:47.591Z</time>
      </trkpt>
      <trkpt lat="45.54443" lon="-1.06279">
        <ele>44.814509</ele>
        <time>2022-12-22T15:43:51.601Z</time>
      </trkpt>
      <trkpt lat="45.54438" lon="-1.06266">
        <ele>44.639556</ele>
        <time>2022-12-22T15:43:55.596Z</time>
      </trkpt>
      <trkpt lat="45.54444" lon="-1.06253">
        <ele>44.452787</ele>
        <time>2022-12-22T15:43:59.596Z</time>
      </trkpt>
      <trkpt lat="45.54444" lon="-1.0624">
        <ele>44.299688</ele>
        <time>2022-12-22T15:44:03.597Z</time>
      </trkpt>
      <trkpt lat="45.54436" lon="-1.06228">
        <ele>44.226936</ele>
        <time>2022-12-22T15:44:07.589Z</time>
      </trkpt>
      <trkpt lat="45.54428" lon="-1.06218">
        <ele>44.175736</ele>
        <time>2022-12-22T15:44:10.598Z</time>
      </trkpt>
      <trkpt lat="45.54421" lon="-1.06209">
        <ele>44.126003</ele>
        <time>2022-12-22T15:44:13.620Z</time>
      </trkpt>
      <trkpt lat="45.54413" lon="-1.062">
        <ele>44.072646</ele>
        <time>2022-12-22T15:44:16.610Z</time>
      </trkpt>
      <trkpt lat="45.54404" lon="-1.06189">
        <ele>44.014192</ele>
        <time>2022-12-22T15:44:19.586Z</time>
      </trkpt>
      <trkpt lat="45.54396" lon="-1.0618">
        <ele>43.957731</ele>
        <time>2022-12-22T15:44:22.621Z</time>
      </trkpt>
      <trkpt lat="45.54387" lon="-1.06172">
        <ele>43.903813</ele>
        <time>2022-12-22T15:44:25.602Z</time>
      </trkpt>
      <trkpt lat="45.54379" lon="-1.06163">
        <ele>43.853913</ele>
        <time>2022-12-22T15:44:28.594Z</time>
      </trkpt>
      <trkpt lat="45.54375" lon="-1.06149">
        <ele>43.795799</ele>
        <time>2022-12-22T15:44:33.595Z</time>
      </trkpt>
      <trkpt lat="45.54374" lon="-1.06135">
        <ele>43.745847</ele>
        <time>2022-12-22T15:44:37.604Z</time>
      </trkpt>
      <trkpt lat="45.54375" lon="-1.06122">
        <ele>43.698833</ele>
        <time>2022-12-22T15:44:42.600Z</time>
      </trkpt>
      <trkpt lat="45.54376" lon="-1.06108">
        <ele>43.646001</ele>
        <time>2022-12-22T15:44:46.589Z</time>
      </trkpt>
      <trkpt lat="45.54381" lon="-1.06119">
        <ele>43.598968</ele>
        <time>2022-12-22T15:45:31.626Z</time>
      </trkpt>
      <trkpt lat="45.54388" lon="-1.06126">
        <ele>43.55151</ele>
        <time>2022-12-22T15:45:35.602Z</time>
      </trkpt>
      <trkpt lat="45.54398" lon="-1.06133">
        <ele>43.494966</ele>
        <time>2022-12-22T15:45:39.588Z</time>
      </trkpt>
      <trkpt lat="45.54407" lon="-1.06139">
        <ele>43.442635</ele>
        <time>2022-12-22T15:45:42.592Z</time>
      </trkpt>
      <trkpt lat="45.54417" lon="-1.06147">
        <ele>43.384248</ele>
        <time>2022-12-22T15:45:45.620Z</time>
      </trkpt>
      <trkpt lat="45.54428" lon="-1.06153">
        <ele>43.417071</ele>
        <time>2022-12-22T15:45:48.620Z</time>
      </trkpt>
      <trkpt lat="45.54439" lon="-1.0616">
        <ele>43.554362</ele>
        <time>2022-12-22T15:45:51.606Z</time>
      </trkpt>
      <trkpt lat="45.5445" lon="-1.06167">
        <ele>43.689239</ele>
        <time>2022-12-22T15:45:54.605Z</time>
      </trkpt>
      <trkpt lat="45.54459" lon="-1.06173">
        <ele>43.805864</ele>
        <time>2022-12-22T15:45:57.612Z</time>
      </trkpt>
      <trkpt lat="45.54468" lon="-1.0618">
        <ele>43.922167</ele>
        <time>2022-12-22T15:46:01.599Z</time>
      </trkpt>
      <trkpt lat="45.54479" lon="-1.06188">
        <ele>44.056054</ele>
        <time>2022-12-22T15:46:05.614Z</time>
      </trkpt>
      <trkpt lat="45.54487" lon="-1.06194">
        <ele>44.164446</ele>
        <time>2022-12-22T15:46:08.591Z</time>
      </trkpt>
      <trkpt lat="45.54496" lon="-1.062">
        <ele>44.276647</ele>
        <time>2022-12-22T15:46:11.606Z</time>
      </trkpt>
      <trkpt lat="45.54507" lon="-1.06207">
        <ele>44.412265</ele>
        <time>2022-12-22T15:46:14.591Z</time>
      </trkpt>
      <trkpt lat="45.54518" lon="-1.06215">
        <ele>44.552923</ele>
        <time>2022-12-22T15:46:17.597Z</time>
      </trkpt>
      <trkpt lat="45.54528" lon="-1.06224">
        <ele>44.682644</ele>
        <time>2022-12-22T15:46:20.603Z</time>
      </trkpt>
      <trkpt lat="45.54537" lon="-1.06234">
        <ele>44.81178</ele>
        <time>2022-12-22T15:46:23.592Z</time>
      </trkpt>
      <trkpt lat="45.54546" lon="-1.06243">
        <ele>44.93489</ele>
        <time>2022-12-22T15:46:26.619Z</time>
      </trkpt>
      <trkpt lat="45.54555" lon="-1.06253">
        <ele>45.064101</ele>
        <time>2022-12-22T15:46:30.602Z</time>
      </trkpt>
      <trkpt lat="45.54563" lon="-1.06262">
        <ele>45.1817</ele>
        <time>2022-12-22T15:46:35.594Z</time>
      </trkpt>
      <trkpt lat="45.5457" lon="-1.06252">
        <ele>45.286127</ele>
        <time>2022-12-22T15:46:39.587Z</time>
      </trkpt>
      <trkpt lat="45.54576" lon="-1.0624">
        <ele>45.38461</ele>
        <time>2022-12-22T15:46:42.597Z</time>
      </trkpt>
      <trkpt lat="45.54582" lon="-1.06228">
        <ele>45.386773</ele>
        <time>2022-12-22T15:46:45.593Z</time>
      </trkpt>
      <trkpt lat="45.54589" lon="-1.06215">
        <ele>45.389007</ele>
        <time>2022-12-22T15:46:48.588Z</time>
      </trkpt>
      <trkpt lat="45.54595" lon="-1.06203">
        <ele>45.391301</ele>
        <time>2022-12-22T15:46:51.592Z</time>
      </trkpt>
      <trkpt lat="45.54602" lon="-1.0619">
        <ele>45.393619</ele>
        <time>2022-12-22T15:46:54.606Z</time>
      </trkpt>
      <trkpt lat="45.54609" lon="-1.06176">
        <ele>45.396108</ele>
        <time>2022-12-22T15:46:57.600Z</time>
      </trkpt>
      <trkpt lat="45.54614" lon="-1.06162">
        <ele>45.39833</ele>
        <time>2022-12-22T15:47:00.604Z</time>
      </trkpt>
      <trkpt lat="45.54619" lon="-1.06151">
        <ele>45.400273</ele>
        <time>2022-12-22T15:47:04.595Z</time>
      </trkpt>
      <trkpt lat="45.54626" lon="-1.06134">
        <ele>45.403063</ele>
        <time>2022-12-22T15:47:28.594Z</time>
      </trkpt>
      <trkpt lat="45.5463" lon="-1.06123">
        <ele>45.404956</ele>
        <time>2022-12-22T15:47:31.589Z</time>
      </trkpt>
      <trkpt lat="45.54637" lon="-1.0611">
        <ele>45.407261</ele>
        <time>2022-12-22T15:47:34.604Z</time>
      </trkpt>
      <trkpt lat="45.54643" lon="-1.06098">
        <ele>45.409507</ele>
        <time>2022-12-22T15:47:37.592Z</time>
      </trkpt>
      <trkpt lat="45.54648" lon="-1.06085">
        <ele>45.411631</ele>
        <time>2022-12-22T15:47:40.601Z</time>
      </trkpt>
      <trkpt lat="45.54656" lon="-1.06073">
        <ele>45.41401</ele>
        <time>2022-12-22T15:47:44.612Z</time>
      </trkpt>
      <trkpt lat="45.54668" lon="-1.06068">
        <ele>45.416545</ele>
        <time>2022-12-22T15:47:48.589Z</time>
      </trkpt>
      <trkpt lat="45.54679" lon="-1.06069">
        <ele>45.418869</ele>
        <time>2022-12-22T15:47:51.619Z</time>
      </trkpt>
      <trkpt lat="45.54692" lon="-1.06073">
        <ele>45.425356</ele>
        <time>2022-12-22T15:47:54.590Z</time>
      </trkpt>
      <trkpt lat="45.54704" lon="-1.06079">
        <ele>45.517588</ele>
        <time>2022-12-22T15:47:57.612Z</time>
      </trkpt>
      <trkpt lat="45.54716" lon="-1.06086">
        <ele>45.610821</ele>
        <time>2022-12-22T15:48:00.593Z</time>
      </trkpt>
      <trkpt lat="45.54727" lon="-1.06094">
        <ele>45.70006</ele>
        <time>2022-12-22T15:48:03.598Z</time>
      </trkpt>
      <trkpt lat="45.54738" lon="-1.06098">
        <ele>45.786491</ele>
        <time>2022-12-22T15:48:06.618Z</time>
      </trkpt>
      <trkpt lat="45.54749" lon="-1.06104">
        <ele>45.867407</ele>
        <time>2022-12-22T15:48:09.618Z</time>
      </trkpt>
      <trkpt lat="45.54759" lon="-1.0611">
        <ele>45.944895</ele>
        <time>2022-12-22T15:48:12.604Z</time>
      </trkpt>
      <trkpt lat="45.5477" lon="-1.06113">
        <ele>46.029139</ele>
        <time>2022-12-22T15:48:15.615Z</time>
      </trkpt>
      <trkpt lat="45.54782" lon="-1.06104">
        <ele>46.122148</ele>
        <time>2022-12-22T15:48:18.608Z</time>
      </trkpt>
      <trkpt lat="45.54791" lon="-1.06091">
        <ele>46.220215</ele>
        <time>2022-12-22T15:48:21.618Z</time>
      </trkpt>
      <trkpt lat="45.54801" lon="-1.06078">
        <ele>46.316182</ele>
        <time>2022-12-22T15:48:24.618Z</time>
      </trkpt>
      <trkpt lat="45.54809" lon="-1.0607">
        <ele>46.384018</ele>
        <time>2022-12-22T15:48:26.594Z</time>
      </trkpt>
      <trkpt lat="45.54818" lon="-1.06059">
        <ele>46.474509</ele>
        <time>2022-12-22T15:48:29.598Z</time>
      </trkpt>
      <trkpt lat="45.54828" lon="-1.0605">
        <ele>46.554237</ele>
        <time>2022-12-22T15:48:32.605Z</time>
      </trkpt>
      <trkpt lat="45.54838" lon="-1.06044">
        <ele>46.632291</ele>
        <time>2022-12-22T15:48:35.589Z</time>
      </trkpt>
      <trkpt lat="45.54848" lon="-1.06042">
        <ele>46.707497</ele>
        <time>2022-12-22T15:48:38.613Z</time>
      </trkpt>
      <trkpt lat="45.54858" lon="-1.06041">
        <ele>46.650417</ele>
        <time>2022-12-22T15:48:41.599Z</time>
      </trkpt>
      <trkpt lat="45.54867" lon="-1.06042">
        <ele>46.567236</ele>
        <time>2022-12-22T15:48:44.589Z</time>
      </trkpt>
      <trkpt lat="45.54877" lon="-1.06043">
        <ele>46.485485</ele>
        <time>2022-12-22T15:48:47.609Z</time>
      </trkpt>
      <trkpt lat="45.54886" lon="-1.06045">
        <ele>46.404399</ele>
        <time>2022-12-22T15:48:50.595Z</time>
      </trkpt>
      <trkpt lat="45.54896" lon="-1.06048">
        <ele>46.317264</ele>
        <time>2022-12-22T15:48:54.597Z</time>
      </trkpt>
      <trkpt lat="45.54907" lon="-1.06052">
        <ele>46.215714</ele>
        <time>2022-12-22T15:48:58.599Z</time>
      </trkpt>
      <trkpt lat="45.54919" lon="-1.06057">
        <ele>46.107478</ele>
        <time>2022-12-22T15:49:01.611Z</time>
      </trkpt>
      <trkpt lat="45.54932" lon="-1.06061">
        <ele>45.991542</ele>
        <time>2022-12-22T15:49:04.589Z</time>
      </trkpt>
      <trkpt lat="45.54941" lon="-1.06064">
        <ele>45.913139</ele>
        <time>2022-12-22T15:49:06.595Z</time>
      </trkpt>
      <trkpt lat="45.54952" lon="-1.06067">
        <ele>45.819939</ele>
        <time>2022-12-22T15:49:08.609Z</time>
      </trkpt>
      <trkpt lat="45.54963" lon="-1.06072">
        <ele>45.716394</ele>
        <time>2022-12-22T15:49:10.583Z</time>
      </trkpt>
      <trkpt lat="45.54974" lon="-1.06075">
        <ele>45.623059</ele>
        <time>2022-12-22T15:49:12.605Z</time>
      </trkpt>
      <trkpt lat="45.54984" lon="-1.06078">
        <ele>45.535696</ele>
        <time>2022-12-22T15:49:14.599Z</time>
      </trkpt>
      <trkpt lat="45.54993" lon="-1.06081">
        <ele>45.452595</ele>
        <time>2022-12-22T15:49:16.598Z</time>
      </trkpt>
      <trkpt lat="45.55005" lon="-1.06085">
        <ele>45.341119</ele>
        <time>2022-12-22T15:49:19.586Z</time>
      </trkpt>
      <trkpt lat="45.55018" lon="-1.0609">
        <ele>45.230078</ele>
        <time>2022-12-22T15:49:22.591Z</time>
      </trkpt>
      <trkpt lat="45.5503" lon="-1.06095">
        <ele>45.171415</ele>
        <time>2022-12-22T15:49:25.605Z</time>
      </trkpt>
      <trkpt lat="45.55042" lon="-1.06101">
        <ele>45.194037</ele>
        <time>2022-12-22T15:49:28.594Z</time>
      </trkpt>
      <trkpt lat="45.55054" lon="-1.06108">
        <ele>45.216586</ele>
        <time>2022-12-22T15:49:31.593Z</time>
      </trkpt>
      <trkpt lat="45.55066" lon="-1.06115">
        <ele>45.240005</ele>
        <time>2022-12-22T15:49:34.591Z</time>
      </trkpt>
      <trkpt lat="45.55075" lon="-1.06121">
        <ele>45.257269</ele>
        <time>2022-12-22T15:49:36.588Z</time>
      </trkpt>
      <trkpt lat="45.55083" lon="-1.06127">
        <ele>45.274426</ele>
        <time>2022-12-22T15:49:38.606Z</time>
      </trkpt>
      <trkpt lat="45.55094" lon="-1.06139">
        <ele>45.298364</ele>
        <time>2022-12-22T15:49:41.587Z</time>
      </trkpt>
      <trkpt lat="45.55104" lon="-1.06152">
        <ele>45.322653</ele>
        <time>2022-12-22T15:49:44.584Z</time>
      </trkpt>
      <trkpt lat="45.55113" lon="-1.06165">
        <ele>45.346019</ele>
        <time>2022-12-22T15:49:47.595Z</time>
      </trkpt>
      <trkpt lat="45.55121" lon="-1.06179">
        <ele>45.3689</ele>
        <time>2022-12-22T15:49:50.618Z</time>
      </trkpt>
      <trkpt lat="45.5513" lon="-1.06192">
        <ele>45.391809</ele>
        <time>2022-12-22T15:49:53.607Z</time>
      </trkpt>
      <trkpt lat="45.55138" lon="-1.06206">
        <ele>45.414394</ele>
        <time>2022-12-22T15:49:56.592Z</time>
      </trkpt>
      <trkpt lat="45.55146" lon="-1.06221">
        <ele>45.438404</ele>
        <time>2022-12-22T15:49:59.612Z</time>
      </trkpt>
      <trkpt lat="45.55154" lon="-1.06237">
        <ele>45.462053</ele>
        <time>2022-12-22T15:50:02.587Z</time>
      </trkpt>
      <trkpt lat="45.55161" lon="-1.06252">
        <ele>45.482908</ele>
        <time>2022-12-22T15:50:05.592Z</time>
      </trkpt>
      <trkpt lat="45.55167" lon="-1.06265">
        <ele>45.403936</ele>
        <time>2022-12-22T15:50:08.589Z</time>
      </trkpt>
      <trkpt lat="45.55171" lon="-1.06277">
        <ele>45.335696</ele>
        <time>2022-12-22T15:50:11.591Z</time>
      </trkpt>
      <trkpt lat="45.55175" lon="-1.06293">
        <ele>45.251</ele>
        <time>2022-12-22T15:50:15.600Z</time>
      </trkpt>
      <trkpt lat="45.55177" lon="-1.06306">
        <ele>45.186071</ele>
        <time>2022-12-22T15:50:18.584Z</time>
      </trkpt>
      <trkpt lat="45.55179" lon="-1.06319">
        <ele>45.119512</ele>
        <time>2022-12-22T15:50:21.592Z</time>
      </trkpt>
      <trkpt lat="45.55181" lon="-1.06334">
        <ele>45.039264</ele>
        <time>2022-12-22T15:50:25.592Z</time>
      </trkpt>
      <trkpt lat="45.55184" lon="-1.06347">
        <ele>44.972047</ele>
        <time>2022-12-22T15:50:30.605Z</time>
      </trkpt>
      <trkpt lat="45.55186" lon="-1.0636">
        <ele>44.906103</ele>
        <time>2022-12-22T15:50:33.592Z</time>
      </trkpt>
      <trkpt lat="45.55189" lon="-1.06376">
        <ele>44.820757</ele>
        <time>2022-12-22T15:50:36.595Z</time>
      </trkpt>
      <trkpt lat="45.55192" lon="-1.0639">
        <ele>44.751615</ele>
        <time>2022-12-22T15:50:38.588Z</time>
      </trkpt>
      <trkpt lat="45.55195" lon="-1.06403">
        <ele>44.680167</ele>
        <time>2022-12-22T15:50:40.593Z</time>
      </trkpt>
      <trkpt lat="45.55199" lon="-1.06416">
        <ele>44.610601</ele>
        <time>2022-12-22T15:50:42.619Z</time>
      </trkpt>
      <trkpt lat="45.55202" lon="-1.06429">
        <ele>44.538858</ele>
        <time>2022-12-22T15:50:44.610Z</time>
      </trkpt>
      <trkpt lat="45.55206" lon="-1.06442">
        <ele>44.467841</ele>
        <time>2022-12-22T15:50:46.605Z</time>
      </trkpt>
      <trkpt lat="45.55212" lon="-1.06458">
        <ele>44.378178</ele>
        <time>2022-12-22T15:50:49.618Z</time>
      </trkpt>
      <trkpt lat="45.55218" lon="-1.06473">
        <ele>44.293381</ele>
        <time>2022-12-22T15:50:52.603Z</time>
      </trkpt>
      <trkpt lat="45.55224" lon="-1.06488">
        <ele>44.208501</ele>
        <time>2022-12-22T15:50:55.613Z</time>
      </trkpt>
      <trkpt lat="45.5523" lon="-1.06503">
        <ele>44.225611</ele>
        <time>2022-12-22T15:50:58.617Z</time>
      </trkpt>
      <trkpt lat="45.55236" lon="-1.06519">
        <ele>44.259441</ele>
        <time>2022-12-22T15:51:01.603Z</time>
      </trkpt>
      <trkpt lat="45.55242" lon="-1.06533">
        <ele>44.291168</ele>
        <time>2022-12-22T15:51:04.610Z</time>
      </trkpt>
      <trkpt lat="45.55249" lon="-1.06545">
        <ele>44.318869</ele>
        <time>2022-12-22T15:51:07.599Z</time>
      </trkpt>
      <trkpt lat="45.55256" lon="-1.06556">
        <ele>44.347586</ele>
        <time>2022-12-22T15:51:11.615Z</time>
      </trkpt>
      <trkpt lat="45.5526" lon="-1.06569">
        <ele>44.373777</ele>
        <time>2022-12-22T15:51:16.619Z</time>
      </trkpt>
      <trkpt lat="45.55253" lon="-1.06582">
        <ele>44.404837</ele>
        <time>2022-12-22T15:51:20.596Z</time>
      </trkpt>
      <trkpt lat="45.55247" lon="-1.06592">
        <ele>44.430788</ele>
        <time>2022-12-22T15:51:23.598Z</time>
      </trkpt>
      <trkpt lat="45.5524" lon="-1.06602">
        <ele>44.456854</ele>
        <time>2022-12-22T15:51:26.586Z</time>
      </trkpt>
      <trkpt lat="45.55232" lon="-1.06613">
        <ele>44.48594</ele>
        <time>2022-12-22T15:51:29.594Z</time>
      </trkpt>
      <trkpt lat="45.55225" lon="-1.06625">
        <ele>44.515569</ele>
        <time>2022-12-22T15:51:32.597Z</time>
      </trkpt>
      <trkpt lat="45.55217" lon="-1.06637">
        <ele>44.547226</ele>
        <time>2022-12-22T15:51:35.599Z</time>
      </trkpt>
      <trkpt lat="45.55209" lon="-1.0665">
        <ele>44.580026</ele>
        <time>2022-12-22T15:51:38.601Z</time>
      </trkpt>
      <trkpt lat="45.55201" lon="-1.06663">
        <ele>44.613144</ele>
        <time>2022-12-22T15:51:41.596Z</time>
      </trkpt>
      <trkpt lat="45.55193" lon="-1.06675">
        <ele>44.643971</ele>
        <time>2022-12-22T15:51:44.597Z</time>
      </trkpt>
      <trkpt lat="45.55186" lon="-1.06686">
        <ele>44.671688</ele>
        <time>2022-12-22T15:51:47.588Z</time>
      </trkpt>
      <trkpt lat="45.55178" lon="-1.06696">
        <ele>44.653721</ele>
        <time>2022-12-22T15:51:50.589Z</time>
      </trkpt>
      <trkpt lat="45.55169" lon="-1.06702">
        <ele>44.621478</ele>
        <time>2022-12-22T15:51:53.589Z</time>
      </trkpt>
      <trkpt lat="45.55159" lon="-1.06703">
        <ele>44.588784</ele>
        <time>2022-12-22T15:51:56.583Z</time>
      </trkpt>
      <trkpt lat="45.55148" lon="-1.06699">
        <ele>44.552034</ele>
        <time>2022-12-22T15:51:59.583Z</time>
      </trkpt>
      <trkpt lat="45.55137" lon="-1.06693">
        <ele>44.514742</ele>
        <time>2022-12-22T15:52:02.592Z</time>
      </trkpt>
      <trkpt lat="45.55126" lon="-1.06688">
        <ele>44.474447</ele>
        <time>2022-12-22T15:52:05.595Z</time>
      </trkpt>
      <trkpt lat="45.55114" lon="-1.06684">
        <ele>44.434677</ele>
        <time>2022-12-22T15:52:08.588Z</time>
      </trkpt>
      <trkpt lat="45.55103" lon="-1.06682">
        <ele>44.398697</ele>
        <time>2022-12-22T15:52:11.585Z</time>
      </trkpt>
      <trkpt lat="45.55093" lon="-1.06678">
        <ele>44.364493</ele>
        <time>2022-12-22T15:52:14.588Z</time>
      </trkpt>
      <trkpt lat="45.55081" lon="-1.06675">
        <ele>44.325635</ele>
        <time>2022-12-22T15:52:18.598Z</time>
      </trkpt>
      <trkpt lat="45.55073" lon="-1.06671">
        <ele>44.296338</ele>
        <time>2022-12-22T15:52:21.607Z</time>
      </trkpt>
      <trkpt lat="45.55064" lon="-1.06665">
        <ele>44.264888</ele>
        <time>2022-12-22T15:52:24.596Z</time>
      </trkpt>
      <trkpt lat="45.55055" lon="-1.06658">
        <ele>44.231267</ele>
        <time>2022-12-22T15:52:27.599Z</time>
      </trkpt>
      <trkpt lat="45.55046" lon="-1.06652">
        <ele>44.198537</ele>
        <time>2022-12-22T15:52:30.595Z</time>
      </trkpt>
      <trkpt lat="45.55036" lon="-1.06643">
        <ele>44.160213</ele>
        <time>2022-12-22T15:52:34.615Z</time>
      </trkpt>
      <trkpt lat="45.55026" lon="-1.06635">
        <ele>44.123404</ele>
        <time>2022-12-22T15:52:38.596Z</time>
      </trkpt>
      <trkpt lat="45.55016" lon="-1.0663">
        <ele>44.10425</ele>
        <time>2022-12-22T15:52:42.609Z</time>
      </trkpt>
      <trkpt lat="45.55006" lon="-1.06631">
        <ele>44.252911</ele>
        <time>2022-12-22T15:52:46.590Z</time>
      </trkpt>
      <trkpt lat="45.54996" lon="-1.06636">
        <ele>44.416466</ele>
        <time>2022-12-22T15:52:50.596Z</time>
      </trkpt>
      <trkpt lat="45.54987" lon="-1.06645">
        <ele>44.58196</ele>
        <time>2022-12-22T15:52:54.619Z</time>
      </trkpt>
      <trkpt lat="45.54978" lon="-1.06656">
        <ele>44.749038</ele>
        <time>2022-12-22T15:52:58.610Z</time>
      </trkpt>
      <trkpt lat="45.54969" lon="-1.06666">
        <ele>44.92501</ele>
        <time>2022-12-22T15:53:02.609Z</time>
      </trkpt>
      <trkpt lat="45.54961" lon="-1.06675">
        <ele>45.068835</ele>
        <time>2022-12-22T15:53:05.612Z</time>
      </trkpt>
      <trkpt lat="45.54954" lon="-1.06682">
        <ele>45.207754</ele>
        <time>2022-12-22T15:53:08.584Z</time>
      </trkpt>
      <trkpt lat="45.54946" lon="-1.06692">
        <ele>45.35656</ele>
        <time>2022-12-22T15:53:11.598Z</time>
      </trkpt>
      <trkpt lat="45.54938" lon="-1.067">
        <ele>45.501657</ele>
        <time>2022-12-22T15:53:14.594Z</time>
      </trkpt>
      <trkpt lat="45.54931" lon="-1.06711">
        <ele>45.662198</ele>
        <time>2022-12-22T15:53:17.618Z</time>
      </trkpt>
      <trkpt lat="45.54922" lon="-1.06723">
        <ele>45.846037</ele>
        <time>2022-12-22T15:53:20.593Z</time>
      </trkpt>
      <trkpt lat="45.54914" lon="-1.06737">
        <ele>46.032922</ele>
        <time>2022-12-22T15:53:23.616Z</time>
      </trkpt>
      <trkpt lat="45.54908" lon="-1.06751">
        <ele>46.194116</ele>
        <time>2022-12-22T15:53:26.619Z</time>
      </trkpt>
      <trkpt lat="45.54904" lon="-1.06765">
        <ele>46.35281</ele>
        <time>2022-12-22T15:53:29.608Z</time>
      </trkpt>
      <trkpt lat="45.549" lon="-1.0678">
        <ele>46.522811</ele>
        <time>2022-12-22T15:53:32.603Z</time>
      </trkpt>
      <trkpt lat="45.54897" lon="-1.06796">
        <ele>46.69938</ele>
        <time>2022-12-22T15:53:35.590Z</time>
      </trkpt>
      <trkpt lat="45.54893" lon="-1.06812">
        <ele>46.679281</ele>
        <time>2022-12-22T15:53:38.589Z</time>
      </trkpt>
      <trkpt lat="45.5489" lon="-1.06827">
        <ele>46.564635</ele>
        <time>2022-12-22T15:53:41.593Z</time>
      </trkpt>
      <trkpt lat="45.54887" lon="-1.06841">
        <ele>46.459153</ele>
        <time>2022-12-22T15:53:44.619Z</time>
      </trkpt>
      <trkpt lat="45.54883" lon="-1.06854">
        <ele>46.349296</ele>
        <time>2022-12-22T15:53:47.619Z</time>
      </trkpt>
      <trkpt lat="45.54875" lon="-1.06863">
        <ele>46.241353</ele>
        <time>2022-12-22T15:53:50.613Z</time>
      </trkpt>
      <trkpt lat="45.54866" lon="-1.06866">
        <ele>46.141158</ele>
        <time>2022-12-22T15:53:53.590Z</time>
      </trkpt>
      <trkpt lat="45.54856" lon="-1.06862">
        <ele>46.034159</ele>
        <time>2022-12-22T15:53:56.619Z</time>
      </trkpt>
      <trkpt lat="45.54848" lon="-1.06854">
        <ele>45.931592</ele>
        <time>2022-12-22T15:53:59.594Z</time>
      </trkpt>
      <trkpt lat="45.5484" lon="-1.06845">
        <ele>45.826844</ele>
        <time>2022-12-22T15:54:02.593Z</time>
      </trkpt>
      <trkpt lat="45.54833" lon="-1.06836">
        <ele>45.725382</ele>
        <time>2022-12-22T15:54:05.617Z</time>
      </trkpt>
      <trkpt lat="45.54826" lon="-1.06827">
        <ele>45.618049</ele>
        <time>2022-12-22T15:54:08.598Z</time>
      </trkpt>
      <trkpt lat="45.54818" lon="-1.06815">
        <ele>45.499744</ele>
        <time>2022-12-22T15:54:11.616Z</time>
      </trkpt>
      <trkpt lat="45.5481" lon="-1.06805">
        <ele>45.38827</ele>
        <time>2022-12-22T15:54:14.591Z</time>
      </trkpt>
      <trkpt lat="45.54802" lon="-1.06798">
        <ele>45.283009</ele>
        <time>2022-12-22T15:54:17.614Z</time>
      </trkpt>
      <trkpt lat="45.54793" lon="-1.06794">
        <ele>45.18647</ele>
        <time>2022-12-22T15:54:20.619Z</time>
      </trkpt>
      <trkpt lat="45.54783" lon="-1.06796">
        <ele>45.075146</ele>
        <time>2022-12-22T15:54:24.607Z</time>
      </trkpt>
      <trkpt lat="45.54774" lon="-1.06804">
        <ele>44.968179</ele>
        <time>2022-12-22T15:54:27.618Z</time>
      </trkpt>
      <trkpt lat="45.54766" lon="-1.06812">
        <ele>44.860389</ele>
        <time>2022-12-22T15:54:30.619Z</time>
      </trkpt>
      <trkpt lat="45.54759" lon="-1.06822">
        <ele>45.318988</ele>
        <time>2022-12-22T15:54:33.618Z</time>
      </trkpt>
      <trkpt lat="45.54752" lon="-1.06832">
        <ele>45.805078</ele>
        <time>2022-12-22T15:54:36.609Z</time>
      </trkpt>
      <trkpt lat="45.54745" lon="-1.06844">
        <ele>46.380599</ele>
        <time>2022-12-22T15:54:40.606Z</time>
      </trkpt>
      <trkpt lat="45.54739" lon="-1.06858">
        <ele>46.967616</ele>
        <time>2022-12-22T15:54:44.619Z</time>
      </trkpt>
      <trkpt lat="45.54735" lon="-1.06873">
        <ele>47.53993</ele>
        <time>2022-12-22T15:54:48.620Z</time>
      </trkpt>
      <trkpt lat="45.54732" lon="-1.06889">
        <ele>48.141587</ele>
        <time>2022-12-22T15:54:52.589Z</time>
      </trkpt>
      <trkpt lat="45.5473" lon="-1.06905">
        <ele>48.705954</ele>
        <time>2022-12-22T15:54:56.586Z</time>
      </trkpt>
      <trkpt lat="45.5473" lon="-1.0692">
        <ele>49.258306</ele>
        <time>2022-12-22T15:55:00.618Z</time>
      </trkpt>
      <trkpt lat="45.54731" lon="-1.06936">
        <ele>49.83187</ele>
        <time>2022-12-22T15:55:04.589Z</time>
      </trkpt>
      <trkpt lat="45.54733" lon="-1.06951">
        <ele>50.390089</ele>
        <time>2022-12-22T15:55:08.611Z</time>
      </trkpt>
      <trkpt lat="45.54734" lon="-1.06965">
        <ele>50.8966</ele>
        <time>2022-12-22T15:55:12.592Z</time>
      </trkpt>
      <trkpt lat="45.54736" lon="-1.0698">
        <ele>51.440039</ele>
        <time>2022-12-22T15:55:16.582Z</time>
      </trkpt>
      <trkpt lat="45.54737" lon="-1.06995">
        <ele>51.984225</ele>
        <time>2022-12-22T15:55:20.598Z</time>
      </trkpt>
      <trkpt lat="45.54739" lon="-1.07009">
        <ele>52.471059</ele>
        <time>2022-12-22T15:55:24.618Z</time>
      </trkpt>
      <trkpt lat="45.5474" lon="-1.07022">
        <ele>52.949141</ele>
        <time>2022-12-22T15:55:28.588Z</time>
      </trkpt>
      <trkpt lat="45.54742" lon="-1.07035">
        <ele>53.414601</ele>
        <time>2022-12-22T15:55:32.590Z</time>
      </trkpt>
      <trkpt lat="45.54745" lon="-1.07048">
        <ele>53.906393</ele>
        <time>2022-12-22T15:55:37.605Z</time>
      </trkpt>
      <trkpt lat="45.54746" lon="-1.07062">
        <ele>54.189066</ele>
        <time>2022-12-22T15:55:41.605Z</time>
      </trkpt>
      <trkpt lat="45.54748" lon="-1.07076">
        <ele>54.379932</ele>
        <time>2022-12-22T15:55:45.583Z</time>
      </trkpt>
      <trkpt lat="45.54748" lon="-1.07091">
        <ele>54.573913</ele>
        <time>2022-12-22T15:55:49.593Z</time>
      </trkpt>
      <trkpt lat="45.54749" lon="-1.07106">
        <ele>54.769203</ele>
        <time>2022-12-22T15:55:53.607Z</time>
      </trkpt>
      <trkpt lat="45.54751" lon="-1.07121">
        <ele>54.975447</ele>
        <time>2022-12-22T15:55:57.618Z</time>
      </trkpt>
      <trkpt lat="45.54752" lon="-1.07138">
        <ele>55.193334</ele>
        <time>2022-12-22T15:56:01.619Z</time>
      </trkpt>
      <trkpt lat="45.54753" lon="-1.07151">
        <ele>55.365912</ele>
        <time>2022-12-22T15:56:04.608Z</time>
      </trkpt>
      <trkpt lat="45.54752" lon="-1.07164">
        <ele>55.5369</ele>
        <time>2022-12-22T15:56:07.604Z</time>
      </trkpt>
      <trkpt lat="45.54751" lon="-1.07179">
        <ele>55.740214</ele>
        <time>2022-12-22T15:56:11.619Z</time>
      </trkpt>
      <trkpt lat="45.54747" lon="-1.07204">
        <ele>56.070923</ele>
        <time>2022-12-22T15:56:57.618Z</time>
      </trkpt>
      <trkpt lat="45.54745" lon="-1.07217">
        <ele>56.252447</ele>
        <time>2022-12-22T15:57:00.615Z</time>
      </trkpt>
      <trkpt lat="45.54743" lon="-1.07233">
        <ele>56.463859</ele>
        <time>2022-12-22T15:57:03.589Z</time>
      </trkpt>
      <trkpt lat="45.54741" lon="-1.07249">
        <ele>56.680231</ele>
        <time>2022-12-22T15:57:06.615Z</time>
      </trkpt>
      <trkpt lat="45.54741" lon="-1.07267">
        <ele>56.9182</ele>
        <time>2022-12-22T15:57:09.602Z</time>
      </trkpt>
      <trkpt lat="45.54741" lon="-1.07285">
        <ele>57.150889</ele>
        <time>2022-12-22T15:57:12.615Z</time>
      </trkpt>
      <trkpt lat="45.54741" lon="-1.07304">
        <ele>57.399353</ele>
        <time>2022-12-22T15:57:15.589Z</time>
      </trkpt>
      <trkpt lat="45.54739" lon="-1.07321">
        <ele>56.93728</ele>
        <time>2022-12-22T15:57:18.585Z</time>
      </trkpt>
      <trkpt lat="45.54737" lon="-1.0734">
        <ele>56.305168</ele>
        <time>2022-12-22T15:57:21.617Z</time>
      </trkpt>
      <trkpt lat="45.54735" lon="-1.07358">
        <ele>55.666005</ele>
        <time>2022-12-22T15:57:24.604Z</time>
      </trkpt>
      <trkpt lat="45.54732" lon="-1.07376">
        <ele>55.057175</ele>
        <time>2022-12-22T15:57:27.587Z</time>
      </trkpt>
      <trkpt lat="45.5473" lon="-1.07389">
        <ele>54.60866</ele>
        <time>2022-12-22T15:57:29.590Z</time>
      </trkpt>
      <trkpt lat="45.54728" lon="-1.07402">
        <ele>54.16455</ele>
        <time>2022-12-22T15:57:31.588Z</time>
      </trkpt>
      <trkpt lat="45.54724" lon="-1.0742">
        <ele>53.540831</ele>
        <time>2022-12-22T15:57:34.595Z</time>
      </trkpt>
      <trkpt lat="45.54722" lon="-1.07437">
        <ele>52.929668</ele>
        <time>2022-12-22T15:57:37.585Z</time>
      </trkpt>
      <trkpt lat="45.54719" lon="-1.07455">
        <ele>52.32413</ele>
        <time>2022-12-22T15:57:40.588Z</time>
      </trkpt>
      <trkpt lat="45.54716" lon="-1.07473">
        <ele>51.699055</ele>
        <time>2022-12-22T15:57:43.591Z</time>
      </trkpt>
      <trkpt lat="45.54713" lon="-1.07491">
        <ele>51.064077</ele>
        <time>2022-12-22T15:57:46.592Z</time>
      </trkpt>
      <trkpt lat="45.54711" lon="-1.07505">
        <ele>50.61466</ele>
        <time>2022-12-22T15:57:48.595Z</time>
      </trkpt>
      <trkpt lat="45.54708" lon="-1.07522">
        <ele>50.008133</ele>
        <time>2022-12-22T15:57:51.616Z</time>
      </trkpt>
      <trkpt lat="45.54705" lon="-1.0754">
        <ele>49.381967</ele>
        <time>2022-12-22T15:57:54.615Z</time>
      </trkpt>
      <trkpt lat="45.54703" lon="-1.07553">
        <ele>48.935</ele>
        <time>2022-12-22T15:57:56.604Z</time>
      </trkpt>
      <trkpt lat="45.547" lon="-1.07565">
        <ele>48.822723</ele>
        <time>2022-12-22T15:57:58.594Z</time>
      </trkpt>
      <trkpt lat="45.54698" lon="-1.07579">
        <ele>48.873925</ele>
        <time>2022-12-22T15:58:00.595Z</time>
      </trkpt>
      <trkpt lat="45.54696" lon="-1.07592">
        <ele>48.924389</ele>
        <time>2022-12-22T15:58:02.618Z</time>
      </trkpt>
      <trkpt lat="45.54694" lon="-1.07605">
        <ele>48.976341</ele>
        <time>2022-12-22T15:58:04.614Z</time>
      </trkpt>
      <trkpt lat="45.54691" lon="-1.07623">
        <ele>49.046455</ele>
        <time>2022-12-22T15:58:07.615Z</time>
      </trkpt>
      <trkpt lat="45.54688" lon="-1.07641">
        <ele>49.117057</ele>
        <time>2022-12-22T15:58:10.592Z</time>
      </trkpt>
      <trkpt lat="45.54685" lon="-1.07658">
        <ele>49.183504</ele>
        <time>2022-12-22T15:58:13.594Z</time>
      </trkpt>
      <trkpt lat="45.54683" lon="-1.07673">
        <ele>49.24107</ele>
        <time>2022-12-22T15:58:16.621Z</time>
      </trkpt>
      <trkpt lat="45.54681" lon="-1.07687">
        <ele>49.294604</ele>
        <time>2022-12-22T15:58:19.619Z</time>
      </trkpt>
      <trkpt lat="45.54678" lon="-1.077">
        <ele>49.346544</ele>
        <time>2022-12-22T15:58:22.619Z</time>
      </trkpt>
      <trkpt lat="45.54677" lon="-1.07714">
        <ele>49.398898</ele>
        <time>2022-12-22T15:58:25.588Z</time>
      </trkpt>
      <trkpt lat="45.54674" lon="-1.07728">
        <ele>49.454698</ele>
        <time>2022-12-22T15:58:28.591Z</time>
      </trkpt>
      <trkpt lat="45.54672" lon="-1.07744">
        <ele>49.51479</ele>
        <time>2022-12-22T15:58:31.611Z</time>
      </trkpt>
      <trkpt lat="45.5467" lon="-1.0776">
        <ele>49.576314</ele>
        <time>2022-12-22T15:58:34.600Z</time>
      </trkpt>
      <trkpt lat="45.54667" lon="-1.07775">
        <ele>49.637706</ele>
        <time>2022-12-22T15:58:37.617Z</time>
      </trkpt>
      <trkpt lat="45.54665" lon="-1.07792">
        <ele>49.701343</ele>
        <time>2022-12-22T15:58:40.597Z</time>
      </trkpt>
      <trkpt lat="45.54663" lon="-1.07809">
        <ele>49.760956</ele>
        <time>2022-12-22T15:58:43.607Z</time>
      </trkpt>
      <trkpt lat="45.5466" lon="-1.07825">
        <ele>49.754245</ele>
        <time>2022-12-22T15:58:46.606Z</time>
      </trkpt>
      <trkpt lat="45.54658" lon="-1.07842">
        <ele>49.747541</ele>
        <time>2022-12-22T15:58:49.601Z</time>
      </trkpt>
      <trkpt lat="45.54655" lon="-1.07858">
        <ele>49.741168</ele>
        <time>2022-12-22T15:58:52.613Z</time>
      </trkpt>
      <trkpt lat="45.54653" lon="-1.07874">
        <ele>49.734797</ele>
        <time>2022-12-22T15:58:55.597Z</time>
      </trkpt>
      <trkpt lat="45.54651" lon="-1.07891">
        <ele>49.728153</ele>
        <time>2022-12-22T15:58:58.619Z</time>
      </trkpt>
      <trkpt lat="45.54649" lon="-1.07907">
        <ele>49.721519</ele>
        <time>2022-12-22T15:59:01.593Z</time>
      </trkpt>
      <trkpt lat="45.54647" lon="-1.07924">
        <ele>49.71476</ele>
        <time>2022-12-22T15:59:04.592Z</time>
      </trkpt>
      <trkpt lat="45.54645" lon="-1.07942">
        <ele>49.707692</ele>
        <time>2022-12-22T15:59:07.618Z</time>
      </trkpt>
      <trkpt lat="45.54642" lon="-1.07959">
        <ele>49.700817</ele>
        <time>2022-12-22T15:59:10.596Z</time>
      </trkpt>
      <trkpt lat="45.5464" lon="-1.07975">
        <ele>49.694381</ele>
        <time>2022-12-22T15:59:13.592Z</time>
      </trkpt>
      <trkpt lat="45.54637" lon="-1.0799">
        <ele>49.688263</ele>
        <time>2022-12-22T15:59:16.619Z</time>
      </trkpt>
      <trkpt lat="45.54635" lon="-1.08006">
        <ele>49.682065</ele>
        <time>2022-12-22T15:59:19.598Z</time>
      </trkpt>
      <trkpt lat="45.54633" lon="-1.08021">
        <ele>49.675768</ele>
        <time>2022-12-22T15:59:22.633Z</time>
      </trkpt>
      <trkpt lat="45.5463" lon="-1.08038">
        <ele>49.669191</ele>
        <time>2022-12-22T15:59:25.616Z</time>
      </trkpt>
      <trkpt lat="45.54628" lon="-1.08054">
        <ele>49.662716</ele>
        <time>2022-12-22T15:59:28.610Z</time>
      </trkpt>
      <trkpt lat="45.54625" lon="-1.0807">
        <ele>49.647053</ele>
        <time>2022-12-22T15:59:31.620Z</time>
      </trkpt>
      <trkpt lat="45.54621" lon="-1.08087">
        <ele>49.626199</ele>
        <time>2022-12-22T15:59:34.598Z</time>
      </trkpt>
      <trkpt lat="45.54618" lon="-1.08104">
        <ele>49.605416</ele>
        <time>2022-12-22T15:59:37.601Z</time>
      </trkpt>
      <trkpt lat="45.54616" lon="-1.08119">
        <ele>49.586722</ele>
        <time>2022-12-22T15:59:40.618Z</time>
      </trkpt>
      <trkpt lat="45.54614" lon="-1.08136">
        <ele>49.566783</ele>
        <time>2022-12-22T15:59:43.617Z</time>
      </trkpt>
      <trkpt lat="45.54611" lon="-1.08152">
        <ele>49.547241</ele>
        <time>2022-12-22T15:59:46.595Z</time>
      </trkpt>
      <trkpt lat="45.54609" lon="-1.08169">
        <ele>49.526039</ele>
        <time>2022-12-22T15:59:49.615Z</time>
      </trkpt>
      <trkpt lat="45.54607" lon="-1.08187">
        <ele>49.504961</ele>
        <time>2022-12-22T15:59:52.618Z</time>
      </trkpt>
      <trkpt lat="45.54605" lon="-1.08204">
        <ele>49.484104</ele>
        <time>2022-12-22T15:59:55.590Z</time>
      </trkpt>
      <trkpt lat="45.54603" lon="-1.08221">
        <ele>49.463899</ele>
        <time>2022-12-22T15:59:58.594Z</time>
      </trkpt>
      <trkpt lat="45.54601" lon="-1.08235">
        <ele>49.446651</ele>
        <time>2022-12-22T16:00:01.602Z</time>
      </trkpt>
      <trkpt lat="45.54599" lon="-1.0825">
        <ele>49.428788</ele>
        <time>2022-12-22T16:00:04.619Z</time>
      </trkpt>
      <trkpt lat="45.54597" lon="-1.08267">
        <ele>49.408324</ele>
        <time>2022-12-22T16:00:07.593Z</time>
      </trkpt>
      <trkpt lat="45.54595" lon="-1.08285">
        <ele>49.387301</ele>
        <time>2022-12-22T16:00:10.617Z</time>
      </trkpt>
      <trkpt lat="45.54593" lon="-1.08303">
        <ele>49.365375</ele>
        <time>2022-12-22T16:00:13.594Z</time>
      </trkpt>
      <trkpt lat="45.5459" lon="-1.08321">
        <ele>49.349661</ele>
        <time>2022-12-22T16:00:16.591Z</time>
      </trkpt>
      <trkpt lat="45.54588" lon="-1.08339">
        <ele>49.339167</ele>
        <time>2022-12-22T16:00:19.603Z</time>
      </trkpt>
      <trkpt lat="45.54586" lon="-1.08357">
        <ele>49.32853</ele>
        <time>2022-12-22T16:00:22.612Z</time>
      </trkpt>
      <trkpt lat="45.54584" lon="-1.08375">
        <ele>49.317737</ele>
        <time>2022-12-22T16:00:25.604Z</time>
      </trkpt>
      <trkpt lat="45.54581" lon="-1.08393">
        <ele>49.307539</ele>
        <time>2022-12-22T16:00:28.598Z</time>
      </trkpt>
      <trkpt lat="45.54579" lon="-1.08409">
        <ele>49.29824</ele>
        <time>2022-12-22T16:00:31.601Z</time>
      </trkpt>
      <trkpt lat="45.54577" lon="-1.08425">
        <ele>49.288614</ele>
        <time>2022-12-22T16:00:34.599Z</time>
      </trkpt>
      <trkpt lat="45.54575" lon="-1.08442">
        <ele>49.278618</ele>
        <time>2022-12-22T16:00:37.601Z</time>
      </trkpt>
      <trkpt lat="45.54574" lon="-1.08459">
        <ele>49.26894</ele>
        <time>2022-12-22T16:00:40.600Z</time>
      </trkpt>
      <trkpt lat="45.54571" lon="-1.08476">
        <ele>49.258596</ele>
        <time>2022-12-22T16:00:43.619Z</time>
      </trkpt>
      <trkpt lat="45.54568" lon="-1.08494">
        <ele>49.248047</ele>
        <time>2022-12-22T16:00:46.595Z</time>
      </trkpt>
      <trkpt lat="45.54566" lon="-1.08512">
        <ele>49.23708</ele>
        <time>2022-12-22T16:00:49.598Z</time>
      </trkpt>
      <trkpt lat="45.54564" lon="-1.0853">
        <ele>49.226827</ele>
        <time>2022-12-22T16:00:52.619Z</time>
      </trkpt>
      <trkpt lat="45.54561" lon="-1.08546">
        <ele>49.21731</ele>
        <time>2022-12-22T16:00:55.609Z</time>
      </trkpt>
      <trkpt lat="45.54559" lon="-1.0856">
        <ele>49.208901</ele>
        <time>2022-12-22T16:00:58.596Z</time>
      </trkpt>
      <trkpt lat="45.54556" lon="-1.08575">
        <ele>49.22848</ele>
        <time>2022-12-22T16:01:01.601Z</time>
      </trkpt>
      <trkpt lat="45.54554" lon="-1.0859">
        <ele>49.255627</ele>
        <time>2022-12-22T16:01:04.596Z</time>
      </trkpt>
      <trkpt lat="45.54551" lon="-1.08605">
        <ele>49.284093</ele>
        <time>2022-12-22T16:01:07.607Z</time>
      </trkpt>
      <trkpt lat="45.54547" lon="-1.08621">
        <ele>49.313829</ele>
        <time>2022-12-22T16:01:10.600Z</time>
      </trkpt>
      <trkpt lat="45.54544" lon="-1.08638">
        <ele>49.345901</ele>
        <time>2022-12-22T16:01:13.619Z</time>
      </trkpt>
      <trkpt lat="45.54541" lon="-1.08656">
        <ele>49.378175</ele>
        <time>2022-12-22T16:01:16.593Z</time>
      </trkpt>
      <trkpt lat="45.54537" lon="-1.08673">
        <ele>49.410106</ele>
        <time>2022-12-22T16:01:19.597Z</time>
      </trkpt>
      <trkpt lat="45.54534" lon="-1.08689">
        <ele>49.440769</ele>
        <time>2022-12-22T16:01:22.609Z</time>
      </trkpt>
      <trkpt lat="45.54531" lon="-1.08705">
        <ele>49.47017</ele>
        <time>2022-12-22T16:01:25.598Z</time>
      </trkpt>
      <trkpt lat="45.54528" lon="-1.08721">
        <ele>49.4986</ele>
        <time>2022-12-22T16:01:28.618Z</time>
      </trkpt>
      <trkpt lat="45.54525" lon="-1.08736">
        <ele>49.527823</ele>
        <time>2022-12-22T16:01:31.591Z</time>
      </trkpt>
      <trkpt lat="45.54522" lon="-1.08752">
        <ele>49.556561</ele>
        <time>2022-12-22T16:01:34.618Z</time>
      </trkpt>
      <trkpt lat="45.54519" lon="-1.08767">
        <ele>49.585058</ele>
        <time>2022-12-22T16:01:37.601Z</time>
      </trkpt>
      <trkpt lat="45.54516" lon="-1.08783">
        <ele>49.613866</ele>
        <time>2022-12-22T16:01:40.605Z</time>
      </trkpt>
      <trkpt lat="45.54512" lon="-1.08797">
        <ele>49.640121</ele>
        <time>2022-12-22T16:01:43.606Z</time>
      </trkpt>
      <trkpt lat="45.54509" lon="-1.08811">
        <ele>49.663933</ele>
        <time>2022-12-22T16:01:46.592Z</time>
      </trkpt>
      <trkpt lat="45.54507" lon="-1.08825">
        <ele>49.645299</ele>
        <time>2022-12-22T16:01:49.590Z</time>
      </trkpt>
      <trkpt lat="45.54504" lon="-1.0884">
        <ele>49.625197</ele>
        <time>2022-12-22T16:01:52.601Z</time>
      </trkpt>
      <trkpt lat="45.54501" lon="-1.08855">
        <ele>49.605419</ele>
        <time>2022-12-22T16:01:55.605Z</time>
      </trkpt>
      <trkpt lat="45.54497" lon="-1.08869">
        <ele>49.585579</ele>
        <time>2022-12-22T16:01:58.617Z</time>
      </trkpt>
      <trkpt lat="45.54494" lon="-1.08883">
        <ele>49.5663</ele>
        <time>2022-12-22T16:02:01.605Z</time>
      </trkpt>
      <trkpt lat="45.5449" lon="-1.08897">
        <ele>49.546654</ele>
        <time>2022-12-22T16:02:04.599Z</time>
      </trkpt>
      <trkpt lat="45.54487" lon="-1.08912">
        <ele>49.526277</ele>
        <time>2022-12-22T16:02:07.597Z</time>
      </trkpt>
      <trkpt lat="45.54483" lon="-1.08928">
        <ele>49.504253</ele>
        <time>2022-12-22T16:02:10.592Z</time>
      </trkpt>
      <trkpt lat="45.54479" lon="-1.08945">
        <ele>49.482168</ele>
        <time>2022-12-22T16:02:13.618Z</time>
      </trkpt>
      <trkpt lat="45.54475" lon="-1.0896">
        <ele>49.461181</ele>
        <time>2022-12-22T16:02:16.586Z</time>
      </trkpt>
      <trkpt lat="45.54471" lon="-1.08975">
        <ele>49.439987</ele>
        <time>2022-12-22T16:02:19.600Z</time>
      </trkpt>
      <trkpt lat="45.54467" lon="-1.0899">
        <ele>49.419531</ele>
        <time>2022-12-22T16:02:22.590Z</time>
      </trkpt>
      <trkpt lat="45.54462" lon="-1.09005">
        <ele>49.397703</ele>
        <time>2022-12-22T16:02:25.595Z</time>
      </trkpt>
      <trkpt lat="45.54457" lon="-1.09021">
        <ele>49.374962</ele>
        <time>2022-12-22T16:02:28.603Z</time>
      </trkpt>
      <trkpt lat="45.54452" lon="-1.09037">
        <ele>49.352471</ele>
        <time>2022-12-22T16:02:31.598Z</time>
      </trkpt>
      <trkpt lat="45.54447" lon="-1.09053">
        <ele>49.322565</ele>
        <time>2022-12-22T16:02:34.617Z</time>
      </trkpt>
      <trkpt lat="45.54441" lon="-1.09067">
        <ele>49.255628</ele>
        <time>2022-12-22T16:02:37.600Z</time>
      </trkpt>
      <trkpt lat="45.54437" lon="-1.09081">
        <ele>49.188121</ele>
        <time>2022-12-22T16:02:40.595Z</time>
      </trkpt>
      <trkpt lat="45.54432" lon="-1.09095">
        <ele>49.119472</ele>
        <time>2022-12-22T16:02:43.592Z</time>
      </trkpt>
      <trkpt lat="45.54427" lon="-1.0911">
        <ele>49.051318</ele>
        <time>2022-12-22T16:02:46.591Z</time>
      </trkpt>
      <trkpt lat="45.54422" lon="-1.09125">
        <ele>48.980284</ele>
        <time>2022-12-22T16:02:49.596Z</time>
      </trkpt>
      <trkpt lat="45.54416" lon="-1.09141">
        <ele>48.902615</ele>
        <time>2022-12-22T16:02:52.589Z</time>
      </trkpt>
      <trkpt lat="45.54411" lon="-1.09157">
        <ele>48.824664</ele>
        <time>2022-12-22T16:02:55.592Z</time>
      </trkpt>
      <trkpt lat="45.54405" lon="-1.09172">
        <ele>48.749065</ele>
        <time>2022-12-22T16:02:58.585Z</time>
      </trkpt>
      <trkpt lat="45.54398" lon="-1.09188">
        <ele>48.67137</ele>
        <time>2022-12-22T16:03:01.616Z</time>
      </trkpt>
      <trkpt lat="45.54392" lon="-1.09204">
        <ele>48.59171</ele>
        <time>2022-12-22T16:03:04.596Z</time>
      </trkpt>
      <trkpt lat="45.54385" lon="-1.0922">
        <ele>48.51131</ele>
        <time>2022-12-22T16:03:07.602Z</time>
      </trkpt>
      <trkpt lat="45.5438" lon="-1.09234">
        <ele>48.44505</ele>
        <time>2022-12-22T16:03:10.589Z</time>
      </trkpt>
      <trkpt lat="45.54374" lon="-1.09245">
        <ele>48.385309</ele>
        <time>2022-12-22T16:03:13.589Z</time>
      </trkpt>
      <trkpt lat="45.54368" lon="-1.09258">
        <ele>48.316073</ele>
        <time>2022-12-22T16:03:16.595Z</time>
      </trkpt>
      <trkpt lat="45.54361" lon="-1.09272">
        <ele>48.243687</ele>
        <time>2022-12-22T16:03:19.605Z</time>
      </trkpt>
      <trkpt lat="45.54354" lon="-1.09285">
        <ele>48.377077</ele>
        <time>2022-12-22T16:03:22.592Z</time>
      </trkpt>
      <trkpt lat="45.54348" lon="-1.09298">
        <ele>48.539684</ele>
        <time>2022-12-22T16:03:25.593Z</time>
      </trkpt>
      <trkpt lat="45.54341" lon="-1.0931">
        <ele>48.704493</ele>
        <time>2022-12-22T16:03:28.618Z</time>
      </trkpt>
      <trkpt lat="45.54334" lon="-1.09322">
        <ele>48.880552</ele>
        <time>2022-12-22T16:03:31.605Z</time>
      </trkpt>
      <trkpt lat="45.54327" lon="-1.09336">
        <ele>49.061716</ele>
        <time>2022-12-22T16:03:34.589Z</time>
      </trkpt>
      <trkpt lat="45.5432" lon="-1.0935">
        <ele>49.243673</ele>
        <time>2022-12-22T16:03:37.603Z</time>
      </trkpt>
      <trkpt lat="45.54313" lon="-1.09364">
        <ele>49.436243</ele>
        <time>2022-12-22T16:03:40.606Z</time>
      </trkpt>
      <trkpt lat="45.54307" lon="-1.09375">
        <ele>49.58136</ele>
        <time>2022-12-22T16:03:42.605Z</time>
      </trkpt>
      <trkpt lat="45.54301" lon="-1.09386">
        <ele>49.720286</ele>
        <time>2022-12-22T16:03:44.596Z</time>
      </trkpt>
      <trkpt lat="45.54293" lon="-1.094">
        <ele>49.915848</ele>
        <time>2022-12-22T16:03:47.617Z</time>
      </trkpt>
      <trkpt lat="45.54286" lon="-1.09413">
        <ele>50.095921</ele>
        <time>2022-12-22T16:03:50.605Z</time>
      </trkpt>
      <trkpt lat="45.54277" lon="-1.09426">
        <ele>50.289382</ele>
        <time>2022-12-22T16:03:53.618Z</time>
      </trkpt>
      <trkpt lat="45.54272" lon="-1.09437">
        <ele>50.436219</ele>
        <time>2022-12-22T16:03:55.597Z</time>
      </trkpt>
      <trkpt lat="45.54263" lon="-1.09452">
        <ele>50.642032</ele>
        <time>2022-12-22T16:03:58.621Z</time>
      </trkpt>
      <trkpt lat="45.54255" lon="-1.09466">
        <ele>50.838865</ele>
        <time>2022-12-22T16:04:01.599Z</time>
      </trkpt>
      <trkpt lat="45.54247" lon="-1.0948">
        <ele>50.938654</ele>
        <time>2022-12-22T16:04:04.598Z</time>
      </trkpt>
      <trkpt lat="45.54239" lon="-1.09492">
        <ele>50.753448</ele>
        <time>2022-12-22T16:04:07.602Z</time>
      </trkpt>
      <trkpt lat="45.54231" lon="-1.09505">
        <ele>50.548585</ele>
        <time>2022-12-22T16:04:10.600Z</time>
      </trkpt>
      <trkpt lat="45.54222" lon="-1.09518">
        <ele>50.350365</ele>
        <time>2022-12-22T16:04:13.611Z</time>
      </trkpt>
      <trkpt lat="45.54214" lon="-1.0953">
        <ele>50.154818</ele>
        <time>2022-12-22T16:04:16.592Z</time>
      </trkpt>
      <trkpt lat="45.54205" lon="-1.09543">
        <ele>49.947193</ele>
        <time>2022-12-22T16:04:19.593Z</time>
      </trkpt>
      <trkpt lat="45.54196" lon="-1.09555">
        <ele>49.741889</ele>
        <time>2022-12-22T16:04:22.599Z</time>
      </trkpt>
      <trkpt lat="45.54187" lon="-1.09568">
        <ele>49.538683</ele>
        <time>2022-12-22T16:04:25.610Z</time>
      </trkpt>
      <trkpt lat="45.54179" lon="-1.0958">
        <ele>49.351739</ele>
        <time>2022-12-22T16:04:28.599Z</time>
      </trkpt>
      <trkpt lat="45.5417" lon="-1.09592">
        <ele>49.156191</ele>
        <time>2022-12-22T16:04:31.618Z</time>
      </trkpt>
      <trkpt lat="45.54162" lon="-1.09603">
        <ele>48.974415</ele>
        <time>2022-12-22T16:04:34.611Z</time>
      </trkpt>
      <trkpt lat="45.54155" lon="-1.09613">
        <ele>48.811275</ele>
        <time>2022-12-22T16:04:37.591Z</time>
      </trkpt>
      <trkpt lat="45.54148" lon="-1.09622">
        <ele>48.655712</ele>
        <time>2022-12-22T16:04:40.595Z</time>
      </trkpt>
      <trkpt lat="45.5414" lon="-1.09631">
        <ele>48.492077</ele>
        <time>2022-12-22T16:04:43.595Z</time>
      </trkpt>
      <trkpt lat="45.54131" lon="-1.09642">
        <ele>48.310939</ele>
        <time>2022-12-22T16:04:47.602Z</time>
      </trkpt>
      <trkpt lat="45.54125" lon="-1.09651">
        <ele>48.162548</ele>
        <time>2022-12-22T16:04:52.598Z</time>
      </trkpt>
      <trkpt lat="45.54129" lon="-1.09663">
        <ele>48.000132</ele>
        <time>2022-12-22T16:05:40.616Z</time>
      </trkpt>
      <trkpt lat="45.54121" lon="-1.09668">
        <ele>47.825638</ele>
        <time>2022-12-22T16:07:21.602Z</time>
      </trkpt>
      <trkpt lat="45.54112" lon="-1.0967">
        <ele>47.643597</ele>
        <time>2022-12-22T16:07:27.587Z</time>
      </trkpt>
      <trkpt lat="45.54102" lon="-1.09679">
        <ele>47.41858</ele>
        <time>2022-12-22T16:07:32.601Z</time>
      </trkpt>
      <trkpt lat="45.54095" lon="-1.09689">
        <ele>47.235764</ele>
        <time>2022-12-22T16:07:35.612Z</time>
      </trkpt>
      <trkpt lat="45.54088" lon="-1.09698">
        <ele>47.042265</ele>
        <time>2022-12-22T16:07:38.604Z</time>
      </trkpt>
      <trkpt lat="45.5408" lon="-1.09709">
        <ele>46.833331</ele>
        <time>2022-12-22T16:07:41.602Z</time>
      </trkpt>
      <trkpt lat="45.54072" lon="-1.09719">
        <ele>46.624902</ele>
        <time>2022-12-22T16:07:44.598Z</time>
      </trkpt>
      <trkpt lat="45.54063" lon="-1.09729">
        <ele>46.404788</ele>
        <time>2022-12-22T16:07:47.601Z</time>
      </trkpt>
      <trkpt lat="45.54053" lon="-1.0974">
        <ele>46.165721</ele>
        <time>2022-12-22T16:07:50.594Z</time>
      </trkpt>
      <trkpt lat="45.54042" lon="-1.0975">
        <ele>45.917388</ele>
        <time>2022-12-22T16:07:53.609Z</time>
      </trkpt>
      <trkpt lat="45.54032" lon="-1.09761">
        <ele>45.668183</ele>
        <time>2022-12-22T16:07:56.597Z</time>
      </trkpt>
      <trkpt lat="45.54022" lon="-1.09771">
        <ele>45.434781</ele>
        <time>2022-12-22T16:07:59.620Z</time>
      </trkpt>
      <trkpt lat="45.54012" lon="-1.09779">
        <ele>45.220406</ele>
        <time>2022-12-22T16:08:02.595Z</time>
      </trkpt>
      <trkpt lat="45.54003" lon="-1.09786">
        <ele>45.019846</ele>
        <time>2022-12-22T16:08:05.594Z</time>
      </trkpt>
      <trkpt lat="45.53993" lon="-1.09794">
        <ele>44.792988</ele>
        <time>2022-12-22T16:08:08.618Z</time>
      </trkpt>
      <trkpt lat="45.53981" lon="-1.09802">
        <ele>44.560197</ele>
        <time>2022-12-22T16:08:11.596Z</time>
      </trkpt>
      <trkpt lat="45.53968" lon="-1.09809">
        <ele>44.40128</ele>
        <time>2022-12-22T16:08:14.611Z</time>
      </trkpt>
      <trkpt lat="45.5396" lon="-1.09814">
        <ele>44.293845</ele>
        <time>2022-12-22T16:08:16.612Z</time>
      </trkpt>
      <trkpt lat="45.53951" lon="-1.09819">
        <ele>44.182205</ele>
        <time>2022-12-22T16:08:18.598Z</time>
      </trkpt>
      <trkpt lat="45.53942" lon="-1.09825">
        <ele>44.063001</ele>
        <time>2022-12-22T16:08:20.601Z</time>
      </trkpt>
      <trkpt lat="45.5393" lon="-1.09831">
        <ele>43.910218</ele>
        <time>2022-12-22T16:08:23.608Z</time>
      </trkpt>
      <trkpt lat="45.53918" lon="-1.09837">
        <ele>43.760866</ele>
        <time>2022-12-22T16:08:26.599Z</time>
      </trkpt>
      <trkpt lat="45.53906" lon="-1.09842">
        <ele>43.610381</ele>
        <time>2022-12-22T16:08:29.588Z</time>
      </trkpt>
      <trkpt lat="45.53894" lon="-1.09847">
        <ele>43.468156</ele>
        <time>2022-12-22T16:08:32.602Z</time>
      </trkpt>
      <trkpt lat="45.53883" lon="-1.09852">
        <ele>43.324009</ele>
        <time>2022-12-22T16:08:35.598Z</time>
      </trkpt>
      <trkpt lat="45.5387" lon="-1.09856">
        <ele>43.175484</ele>
        <time>2022-12-22T16:08:38.596Z</time>
      </trkpt>
      <trkpt lat="45.53858" lon="-1.0986">
        <ele>43.024767</ele>
        <time>2022-12-22T16:08:41.599Z</time>
      </trkpt>
      <trkpt lat="45.53845" lon="-1.09862">
        <ele>42.873126</ele>
        <time>2022-12-22T16:08:44.607Z</time>
      </trkpt>
      <trkpt lat="45.53833" lon="-1.09865">
        <ele>42.722409</ele>
        <time>2022-12-22T16:08:47.611Z</time>
      </trkpt>
      <trkpt lat="45.5382" lon="-1.09868">
        <ele>42.573474</ele>
        <time>2022-12-22T16:08:50.608Z</time>
      </trkpt>
      <trkpt lat="45.53807" lon="-1.09871">
        <ele>42.425877</ele>
        <time>2022-12-22T16:08:53.606Z</time>
      </trkpt>
      <trkpt lat="45.53795" lon="-1.09874">
        <ele>42.288029</ele>
        <time>2022-12-22T16:08:56.600Z</time>
      </trkpt>
      <trkpt lat="45.53782" lon="-1.09878">
        <ele>42.155706</ele>
        <time>2022-12-22T16:08:59.621Z</time>
      </trkpt>
      <trkpt lat="45.53771" lon="-1.0988">
        <ele>42.03229</ele>
        <time>2022-12-22T16:09:02.602Z</time>
      </trkpt>
      <trkpt lat="45.53758" lon="-1.09883">
        <ele>41.892223</ele>
        <time>2022-12-22T16:09:05.603Z</time>
      </trkpt>
      <trkpt lat="45.53745" lon="-1.09886">
        <ele>41.755192</ele>
        <time>2022-12-22T16:09:08.614Z</time>
      </trkpt>
      <trkpt lat="45.53732" lon="-1.09888">
        <ele>41.614294</ele>
        <time>2022-12-22T16:09:11.606Z</time>
      </trkpt>
      <trkpt lat="45.53719" lon="-1.09891">
        <ele>41.477139</ele>
        <time>2022-12-22T16:09:14.610Z</time>
      </trkpt>
      <trkpt lat="45.53707" lon="-1.09895">
        <ele>41.342999</ele>
        <time>2022-12-22T16:09:17.606Z</time>
      </trkpt>
      <trkpt lat="45.53695" lon="-1.09897">
        <ele>41.211577</ele>
        <time>2022-12-22T16:09:20.603Z</time>
      </trkpt>
      <trkpt lat="45.53682" lon="-1.099">
        <ele>41.075105</ele>
        <time>2022-12-22T16:09:23.601Z</time>
      </trkpt>
      <trkpt lat="45.5367" lon="-1.09903">
        <ele>40.943566</ele>
        <time>2022-12-22T16:09:26.620Z</time>
      </trkpt>
      <trkpt lat="45.53658" lon="-1.09905">
        <ele>40.809807</ele>
        <time>2022-12-22T16:09:29.620Z</time>
      </trkpt>
      <trkpt lat="45.53645" lon="-1.09908">
        <ele>40.674996</ele>
        <time>2022-12-22T16:09:32.616Z</time>
      </trkpt>
      <trkpt lat="45.53633" lon="-1.09911">
        <ele>40.566218</ele>
        <time>2022-12-22T16:09:35.605Z</time>
      </trkpt>
      <trkpt lat="45.5362" lon="-1.09914">
        <ele>40.668934</ele>
        <time>2022-12-22T16:09:38.594Z</time>
      </trkpt>
      <trkpt lat="45.53608" lon="-1.09917">
        <ele>40.770672</ele>
        <time>2022-12-22T16:09:41.595Z</time>
      </trkpt>
      <trkpt lat="45.53595" lon="-1.09919">
        <ele>40.874506</ele>
        <time>2022-12-22T16:09:44.607Z</time>
      </trkpt>
      <trkpt lat="45.53584" lon="-1.09921">
        <ele>40.967811</ele>
        <time>2022-12-22T16:09:47.620Z</time>
      </trkpt>
      <trkpt lat="45.53572" lon="-1.09924">
        <ele>41.064567</ele>
        <time>2022-12-22T16:09:50.598Z</time>
      </trkpt>
      <trkpt lat="45.53561" lon="-1.09924">
        <ele>41.153832</ele>
        <time>2022-12-22T16:09:53.592Z</time>
      </trkpt>
      <trkpt lat="45.53549" lon="-1.09926">
        <ele>41.247549</ele>
        <time>2022-12-22T16:09:56.591Z</time>
      </trkpt>
      <trkpt lat="45.53537" lon="-1.09927">
        <ele>41.348284</ele>
        <time>2022-12-22T16:09:59.619Z</time>
      </trkpt>
      <trkpt lat="45.53525" lon="-1.09928">
        <ele>41.446485</ele>
        <time>2022-12-22T16:10:02.617Z</time>
      </trkpt>
      <trkpt lat="45.53515" lon="-1.0993">
        <ele>41.528467</ele>
        <time>2022-12-22T16:10:05.600Z</time>
      </trkpt>
      <trkpt lat="45.53508" lon="-1.09943">
        <ele>41.624796</ele>
        <time>2022-12-22T16:10:09.619Z</time>
      </trkpt>
      <trkpt lat="45.53501" lon="-1.09957">
        <ele>41.719267</ele>
        <time>2022-12-22T16:10:12.591Z</time>
      </trkpt>
      <trkpt lat="45.53491" lon="-1.09968">
        <ele>41.819467</ele>
        <time>2022-12-22T16:10:15.606Z</time>
      </trkpt>
      <trkpt lat="45.5348" lon="-1.09978">
        <ele>41.923742</ele>
        <time>2022-12-22T16:10:18.595Z</time>
      </trkpt>
      <trkpt lat="45.53469" lon="-1.09985">
        <ele>42.029478</ele>
        <time>2022-12-22T16:10:21.600Z</time>
      </trkpt>
      <trkpt lat="45.5346" lon="-1.09992">
        <ele>42.194946</ele>
        <time>2022-12-22T16:10:24.596Z</time>
      </trkpt>
      <trkpt lat="45.53452" lon="-1.1">
        <ele>42.338225</ele>
        <time>2022-12-22T16:10:27.608Z</time>
      </trkpt>
      <trkpt lat="45.53442" lon="-1.10009">
        <ele>42.506397</ele>
        <time>2022-12-22T16:10:31.623Z</time>
      </trkpt>
      <trkpt lat="45.53427" lon="-1.10017">
        <ele>42.742794</ele>
        <time>2022-12-22T16:11:25.601Z</time>
      </trkpt>
      <trkpt lat="45.53417" lon="-1.10025">
        <ele>42.912358</ele>
        <time>2022-12-22T16:11:29.594Z</time>
      </trkpt>
      <trkpt lat="45.5341" lon="-1.10032">
        <ele>43.045731</ele>
        <time>2022-12-22T16:11:32.597Z</time>
      </trkpt>
      <trkpt lat="45.53401" lon="-1.10039">
        <ele>43.191976</ele>
        <time>2022-12-22T16:11:35.599Z</time>
      </trkpt>
      <trkpt lat="45.53392" lon="-1.10047">
        <ele>43.348328</ele>
        <time>2022-12-22T16:11:38.598Z</time>
      </trkpt>
      <trkpt lat="45.53383" lon="-1.10054">
        <ele>43.506173</ele>
        <time>2022-12-22T16:11:41.594Z</time>
      </trkpt>
      <trkpt lat="45.53373" lon="-1.10063">
        <ele>43.679004</ele>
        <time>2022-12-22T16:11:44.589Z</time>
      </trkpt>
      <trkpt lat="45.53364" lon="-1.10072">
        <ele>43.843552</ele>
        <time>2022-12-22T16:11:47.593Z</time>
      </trkpt>
      <trkpt lat="45.53355" lon="-1.1008">
        <ele>44.004477</ele>
        <time>2022-12-22T16:11:50.591Z</time>
      </trkpt>
      <trkpt lat="45.53346" lon="-1.10088">
        <ele>44.164728</ele>
        <time>2022-12-22T16:11:53.589Z</time>
      </trkpt>
      <trkpt lat="45.53338" lon="-1.10097">
        <ele>44.31098</ele>
        <time>2022-12-22T16:11:56.599Z</time>
      </trkpt>
      <trkpt lat="45.53329" lon="-1.10105">
        <ele>44.46267</ele>
        <time>2022-12-22T16:11:59.585Z</time>
      </trkpt>
      <trkpt lat="45.53321" lon="-1.10114">
        <ele>44.621074</ele>
        <time>2022-12-22T16:12:02.592Z</time>
      </trkpt>
      <trkpt lat="45.53313" lon="-1.10124">
        <ele>44.844834</ele>
        <time>2022-12-22T16:12:05.601Z</time>
      </trkpt>
      <trkpt lat="45.53304" lon="-1.10133">
        <ele>45.120728</ele>
        <time>2022-12-22T16:12:08.593Z</time>
      </trkpt>
      <trkpt lat="45.53295" lon="-1.10143">
        <ele>45.401231</ele>
        <time>2022-12-22T16:12:11.601Z</time>
      </trkpt>
      <trkpt lat="45.53287" lon="-1.10153">
        <ele>45.682382</ele>
        <time>2022-12-22T16:12:14.602Z</time>
      </trkpt>
      <trkpt lat="45.53279" lon="-1.10163">
        <ele>45.947381</ele>
        <time>2022-12-22T16:12:17.612Z</time>
      </trkpt>
      <trkpt lat="45.53272" lon="-1.10173">
        <ele>46.209795</ele>
        <time>2022-12-22T16:12:20.596Z</time>
      </trkpt>
      <trkpt lat="45.53264" lon="-1.10184">
        <ele>46.473681</ele>
        <time>2022-12-22T16:12:23.600Z</time>
      </trkpt>
      <trkpt lat="45.53257" lon="-1.10195">
        <ele>46.739714</ele>
        <time>2022-12-22T16:12:26.613Z</time>
      </trkpt>
      <trkpt lat="45.53251" lon="-1.10205">
        <ele>46.987608</ele>
        <time>2022-12-22T16:12:29.607Z</time>
      </trkpt>
      <trkpt lat="45.53244" lon="-1.10216">
        <ele>47.237605</ele>
        <time>2022-12-22T16:12:32.592Z</time>
      </trkpt>
      <trkpt lat="45.53237" lon="-1.10226">
        <ele>47.486302</ele>
        <time>2022-12-22T16:12:35.604Z</time>
      </trkpt>
      <trkpt lat="45.5323" lon="-1.10236">
        <ele>47.744416</ele>
        <time>2022-12-22T16:12:38.590Z</time>
      </trkpt>
      <trkpt lat="45.53224" lon="-1.10246">
        <ele>47.986645</ele>
        <time>2022-12-22T16:12:41.609Z</time>
      </trkpt>
      <trkpt lat="45.53217" lon="-1.10256">
        <ele>48.232759</ele>
        <time>2022-12-22T16:12:44.611Z</time>
      </trkpt>
      <trkpt lat="45.5321" lon="-1.10267">
        <ele>48.488401</ele>
        <time>2022-12-22T16:12:47.597Z</time>
      </trkpt>
      <trkpt lat="45.53203" lon="-1.10277">
        <ele>48.741431</ele>
        <time>2022-12-22T16:12:50.603Z</time>
      </trkpt>
      <trkpt lat="45.53196" lon="-1.10288">
        <ele>49.004051</ele>
        <time>2022-12-22T16:12:53.623Z</time>
      </trkpt>
      <trkpt lat="45.53189" lon="-1.10299">
        <ele>49.252595</ele>
        <time>2022-12-22T16:12:56.601Z</time>
      </trkpt>
      <trkpt lat="45.53183" lon="-1.10309">
        <ele>49.271173</ele>
        <time>2022-12-22T16:12:59.620Z</time>
      </trkpt>
      <trkpt lat="45.53176" lon="-1.1032">
        <ele>49.290228</ele>
        <time>2022-12-22T16:13:02.622Z</time>
      </trkpt>
      <trkpt lat="45.53169" lon="-1.1033">
        <ele>49.309316</ele>
        <time>2022-12-22T16:13:05.612Z</time>
      </trkpt>
      <trkpt lat="45.53162" lon="-1.10341">
        <ele>49.329305</ele>
        <time>2022-12-22T16:13:08.588Z</time>
      </trkpt>
      <trkpt lat="45.53154" lon="-1.10354">
        <ele>49.350458</ele>
        <time>2022-12-22T16:13:11.600Z</time>
      </trkpt>
      <trkpt lat="45.53147" lon="-1.10366">
        <ele>49.371734</ele>
        <time>2022-12-22T16:13:14.599Z</time>
      </trkpt>
      <trkpt lat="45.53139" lon="-1.10377">
        <ele>49.392814</ele>
        <time>2022-12-22T16:13:17.589Z</time>
      </trkpt>
      <trkpt lat="45.53131" lon="-1.10389">
        <ele>49.414412</ele>
        <time>2022-12-22T16:13:20.597Z</time>
      </trkpt>
      <trkpt lat="45.53124" lon="-1.10401">
        <ele>49.435618</ele>
        <time>2022-12-22T16:13:23.596Z</time>
      </trkpt>
      <trkpt lat="45.53116" lon="-1.10413">
        <ele>49.456922</ele>
        <time>2022-12-22T16:13:26.620Z</time>
      </trkpt>
      <trkpt lat="45.53108" lon="-1.10426">
        <ele>49.479413</ele>
        <time>2022-12-22T16:13:29.598Z</time>
      </trkpt>
      <trkpt lat="45.531" lon="-1.10439">
        <ele>49.501711</ele>
        <time>2022-12-22T16:13:32.596Z</time>
      </trkpt>
      <trkpt lat="45.53092" lon="-1.10451">
        <ele>49.523589</ele>
        <time>2022-12-22T16:13:35.594Z</time>
      </trkpt>
      <trkpt lat="45.53085" lon="-1.10463">
        <ele>49.544795</ele>
        <time>2022-12-22T16:13:38.592Z</time>
      </trkpt>
      <trkpt lat="45.53077" lon="-1.10474">
        <ele>49.565263</ele>
        <time>2022-12-22T16:13:41.603Z</time>
      </trkpt>
      <trkpt lat="45.5307" lon="-1.10486">
        <ele>49.5857</ele>
        <time>2022-12-22T16:13:44.596Z</time>
      </trkpt>
      <trkpt lat="45.53063" lon="-1.10497">
        <ele>49.402621</ele>
        <time>2022-12-22T16:13:47.603Z</time>
      </trkpt>
      <trkpt lat="45.53055" lon="-1.10508">
        <ele>49.162499</ele>
        <time>2022-12-22T16:13:50.591Z</time>
      </trkpt>
      <trkpt lat="45.53048" lon="-1.1052">
        <ele>48.92942</ele>
        <time>2022-12-22T16:13:53.606Z</time>
      </trkpt>
      <trkpt lat="45.5304" lon="-1.1053">
        <ele>48.694741</ele>
        <time>2022-12-22T16:13:56.593Z</time>
      </trkpt>
      <trkpt lat="45.53033" lon="-1.10542">
        <ele>48.464877</ele>
        <time>2022-12-22T16:13:59.595Z</time>
      </trkpt>
      <trkpt lat="45.53026" lon="-1.10553">
        <ele>48.23726</ele>
        <time>2022-12-22T16:14:02.608Z</time>
      </trkpt>
      <trkpt lat="45.53019" lon="-1.10565">
        <ele>47.996429</ele>
        <time>2022-12-22T16:14:05.610Z</time>
      </trkpt>
      <trkpt lat="45.53011" lon="-1.10577">
        <ele>47.758533</ele>
        <time>2022-12-22T16:14:08.621Z</time>
      </trkpt>
      <trkpt lat="45.53003" lon="-1.10588">
        <ele>47.513858</ele>
        <time>2022-12-22T16:14:11.603Z</time>
      </trkpt>
      <trkpt lat="45.52995" lon="-1.10599">
        <ele>47.265927</ele>
        <time>2022-12-22T16:14:14.606Z</time>
      </trkpt>
      <trkpt lat="45.52986" lon="-1.1061">
        <ele>47.008705</ele>
        <time>2022-12-22T16:14:17.599Z</time>
      </trkpt>
      <trkpt lat="45.52977" lon="-1.10621">
        <ele>46.752796</ele>
        <time>2022-12-22T16:14:20.621Z</time>
      </trkpt>
      <trkpt lat="45.52967" lon="-1.10631">
        <ele>46.491937</ele>
        <time>2022-12-22T16:14:23.622Z</time>
      </trkpt>
      <trkpt lat="45.52957" lon="-1.1064">
        <ele>46.237065</ele>
        <time>2022-12-22T16:14:26.622Z</time>
      </trkpt>
      <trkpt lat="45.52947" lon="-1.10651">
        <ele>45.964856</ele>
        <time>2022-12-22T16:14:29.602Z</time>
      </trkpt>
      <trkpt lat="45.52936" lon="-1.1066">
        <ele>45.674104</ele>
        <time>2022-12-22T16:14:32.601Z</time>
      </trkpt>
      <trkpt lat="45.52927" lon="-1.10667">
        <ele>45.404507</ele>
        <time>2022-12-22T16:14:34.603Z</time>
      </trkpt>
      <trkpt lat="45.52919" lon="-1.10673">
        <ele>45.14778</ele>
        <time>2022-12-22T16:14:36.597Z</time>
      </trkpt>
      <trkpt lat="45.5291" lon="-1.10679">
        <ele>44.866242</ele>
        <time>2022-12-22T16:14:38.624Z</time>
      </trkpt>
      <trkpt lat="45.52902" lon="-1.10683">
        <ele>44.607815</ele>
        <time>2022-12-22T16:14:40.601Z</time>
      </trkpt>
      <trkpt lat="45.5289" lon="-1.10689">
        <ele>44.243129</ele>
        <time>2022-12-22T16:14:43.594Z</time>
      </trkpt>
      <trkpt lat="45.52878" lon="-1.10694">
        <ele>43.886028</ele>
        <time>2022-12-22T16:14:46.621Z</time>
      </trkpt>
      <trkpt lat="45.52869" lon="-1.10698">
        <ele>43.627378</ele>
        <time>2022-12-22T16:14:48.622Z</time>
      </trkpt>
      <trkpt lat="45.5286" lon="-1.10702">
        <ele>43.352935</ele>
        <time>2022-12-22T16:14:50.621Z</time>
      </trkpt>
      <trkpt lat="45.52846" lon="-1.10705">
        <ele>42.966696</ele>
        <time>2022-12-22T16:14:53.600Z</time>
      </trkpt>
      <trkpt lat="45.52837" lon="-1.10707">
        <ele>42.702429</ele>
        <time>2022-12-22T16:14:55.604Z</time>
      </trkpt>
      <trkpt lat="45.52825" lon="-1.1071">
        <ele>42.342407</ele>
        <time>2022-12-22T16:14:58.609Z</time>
      </trkpt>
      <trkpt lat="45.52812" lon="-1.10712">
        <ele>41.968455</ele>
        <time>2022-12-22T16:15:01.610Z</time>
      </trkpt>
      <trkpt lat="45.52798" lon="-1.10713">
        <ele>41.595608</ele>
        <time>2022-12-22T16:15:04.625Z</time>
      </trkpt>
      <trkpt lat="45.52789" lon="-1.10714">
        <ele>41.328014</ele>
        <time>2022-12-22T16:15:06.620Z</time>
      </trkpt>
      <trkpt lat="45.5278" lon="-1.10713">
        <ele>41.060666</ele>
        <time>2022-12-22T16:15:08.587Z</time>
      </trkpt>
      <trkpt lat="45.5277" lon="-1.10713">
        <ele>40.796249</ele>
        <time>2022-12-22T16:15:10.595Z</time>
      </trkpt>
      <trkpt lat="45.52756" lon="-1.10714">
        <ele>40.488314</ele>
        <time>2022-12-22T16:15:13.618Z</time>
      </trkpt>
      <trkpt lat="45.52747" lon="-1.10713">
        <ele>40.347463</ele>
        <time>2022-12-22T16:15:15.596Z</time>
      </trkpt>
      <trkpt lat="45.52738" lon="-1.10713">
        <ele>40.214257</ele>
        <time>2022-12-22T16:15:17.597Z</time>
      </trkpt>
      <trkpt lat="45.52729" lon="-1.10714">
        <ele>40.07642</ele>
        <time>2022-12-22T16:15:19.594Z</time>
      </trkpt>
      <trkpt lat="45.52716" lon="-1.10714">
        <ele>39.883911</ele>
        <time>2022-12-22T16:15:22.612Z</time>
      </trkpt>
      <trkpt lat="45.52706" lon="-1.10714">
        <ele>39.744784</ele>
        <time>2022-12-22T16:15:24.598Z</time>
      </trkpt>
      <trkpt lat="45.52697" lon="-1.10715">
        <ele>39.608583</ele>
        <time>2022-12-22T16:15:26.599Z</time>
      </trkpt>
      <trkpt lat="45.52684" lon="-1.10715">
        <ele>39.416037</ele>
        <time>2022-12-22T16:15:29.592Z</time>
      </trkpt>
      <trkpt lat="45.52675" lon="-1.10716">
        <ele>39.276444</ele>
        <time>2022-12-22T16:15:31.619Z</time>
      </trkpt>
      <trkpt lat="45.52661" lon="-1.10717">
        <ele>39.081064</ele>
        <time>2022-12-22T16:15:34.592Z</time>
      </trkpt>
      <trkpt lat="45.5265" lon="-1.10717">
        <ele>38.91518</ele>
        <time>2022-12-22T16:15:37.591Z</time>
      </trkpt>
      <trkpt lat="45.52639" lon="-1.10718">
        <ele>38.743442</ele>
        <time>2022-12-22T16:15:40.601Z</time>
      </trkpt>
      <trkpt lat="45.52627" lon="-1.10718">
        <ele>38.565726</ele>
        <time>2022-12-22T16:15:43.612Z</time>
      </trkpt>
      <trkpt lat="45.52614" lon="-1.10718">
        <ele>38.380706</ele>
        <time>2022-12-22T16:15:46.620Z</time>
      </trkpt>
      <trkpt lat="45.52602" lon="-1.10719">
        <ele>38.194076</ele>
        <time>2022-12-22T16:15:49.597Z</time>
      </trkpt>
      <trkpt lat="45.52589" lon="-1.1072">
        <ele>38.007239</ele>
        <time>2022-12-22T16:15:52.619Z</time>
      </trkpt>
      <trkpt lat="45.52575" lon="-1.10721">
        <ele>38.049309</ele>
        <time>2022-12-22T16:15:55.590Z</time>
      </trkpt>
      <trkpt lat="45.52562" lon="-1.10721">
        <ele>38.271146</ele>
        <time>2022-12-22T16:15:58.596Z</time>
      </trkpt>
      <trkpt lat="45.52549" lon="-1.1072">
        <ele>38.496485</ele>
        <time>2022-12-22T16:16:01.619Z</time>
      </trkpt>
      <trkpt lat="45.52536" lon="-1.1072">
        <ele>38.714958</ele>
        <time>2022-12-22T16:16:04.595Z</time>
      </trkpt>
      <trkpt lat="45.52527" lon="-1.1072">
        <ele>38.865073</ele>
        <time>2022-12-22T16:16:06.618Z</time>
      </trkpt>
      <trkpt lat="45.52513" lon="-1.1072">
        <ele>39.085218</ele>
        <time>2022-12-22T16:16:09.622Z</time>
      </trkpt>
      <trkpt lat="45.52501" lon="-1.1072">
        <ele>39.287027</ele>
        <time>2022-12-22T16:16:12.605Z</time>
      </trkpt>
      <trkpt lat="45.52489" lon="-1.10719">
        <ele>39.497487</ele>
        <time>2022-12-22T16:16:15.596Z</time>
      </trkpt>
      <trkpt lat="45.52476" lon="-1.10719">
        <ele>39.70929</ele>
        <time>2022-12-22T16:16:18.595Z</time>
      </trkpt>
      <trkpt lat="45.52463" lon="-1.10719">
        <ele>39.92284</ele>
        <time>2022-12-22T16:16:21.598Z</time>
      </trkpt>
      <trkpt lat="45.5245" lon="-1.10719">
        <ele>40.141326</ele>
        <time>2022-12-22T16:16:24.597Z</time>
      </trkpt>
      <trkpt lat="45.52437" lon="-1.10718">
        <ele>40.35816</ele>
        <time>2022-12-22T16:16:27.622Z</time>
      </trkpt>
      <trkpt lat="45.52424" lon="-1.10719">
        <ele>40.573413</ele>
        <time>2022-12-22T16:16:30.620Z</time>
      </trkpt>
      <trkpt lat="45.52411" lon="-1.10719">
        <ele>40.790219</ele>
        <time>2022-12-22T16:16:33.597Z</time>
      </trkpt>
      <trkpt lat="45.52398" lon="-1.1072">
        <ele>40.892057</ele>
        <time>2022-12-22T16:16:36.611Z</time>
      </trkpt>
      <trkpt lat="45.52389" lon="-1.1072">
        <ele>40.845011</ele>
        <time>2022-12-22T16:16:38.598Z</time>
      </trkpt>
      <trkpt lat="45.52376" lon="-1.1072">
        <ele>40.77758</ele>
        <time>2022-12-22T16:16:41.596Z</time>
      </trkpt>
      <trkpt lat="45.52363" lon="-1.1072">
        <ele>40.709625</ele>
        <time>2022-12-22T16:16:44.593Z</time>
      </trkpt>
      <trkpt lat="45.5235" lon="-1.1072">
        <ele>40.640103</ele>
        <time>2022-12-22T16:16:47.601Z</time>
      </trkpt>
      <trkpt lat="45.52337" lon="-1.1072">
        <ele>40.57161</ele>
        <time>2022-12-22T16:16:50.591Z</time>
      </trkpt>
      <trkpt lat="45.52324" lon="-1.1072">
        <ele>40.506792</ele>
        <time>2022-12-22T16:16:53.594Z</time>
      </trkpt>
      <trkpt lat="45.52311" lon="-1.1072">
        <ele>40.440405</ele>
        <time>2022-12-22T16:16:56.612Z</time>
      </trkpt>
      <trkpt lat="45.52299" lon="-1.10721">
        <ele>40.374396</ele>
        <time>2022-12-22T16:16:59.596Z</time>
      </trkpt>
      <trkpt lat="45.52287" lon="-1.10722">
        <ele>40.311631</ele>
        <time>2022-12-22T16:17:02.590Z</time>
      </trkpt>
      <trkpt lat="45.52274" lon="-1.10722">
        <ele>40.245236</ele>
        <time>2022-12-22T16:17:05.625Z</time>
      </trkpt>
      <trkpt lat="45.52262" lon="-1.10723">
        <ele>40.181901</ele>
        <time>2022-12-22T16:17:08.589Z</time>
      </trkpt>
      <trkpt lat="45.52248" lon="-1.10723">
        <ele>40.110788</ele>
        <time>2022-12-22T16:17:11.618Z</time>
      </trkpt>
      <trkpt lat="45.52239" lon="-1.10723">
        <ele>40.062175</ele>
        <time>2022-12-22T16:17:13.618Z</time>
      </trkpt>
      <trkpt lat="45.52227" lon="-1.10724">
        <ele>39.998318</ele>
        <time>2022-12-22T16:17:16.595Z</time>
      </trkpt>
      <trkpt lat="45.52214" lon="-1.10725">
        <ele>40.196598</ele>
        <time>2022-12-22T16:17:19.602Z</time>
      </trkpt>
      <trkpt lat="45.52201" lon="-1.10726">
        <ele>40.48779</ele>
        <time>2022-12-22T16:17:22.604Z</time>
      </trkpt>
      <trkpt lat="45.52188" lon="-1.10727">
        <ele>40.77252</ele>
        <time>2022-12-22T16:17:25.598Z</time>
      </trkpt>
      <trkpt lat="45.52175" lon="-1.10729">
        <ele>41.063076</ele>
        <time>2022-12-22T16:17:28.594Z</time>
      </trkpt>
      <trkpt lat="45.52163" lon="-1.10732">
        <ele>41.352633</ele>
        <time>2022-12-22T16:17:31.593Z</time>
      </trkpt>
      <trkpt lat="45.52151" lon="-1.10735">
        <ele>41.62204</ele>
        <time>2022-12-22T16:17:34.596Z</time>
      </trkpt>
      <trkpt lat="45.5214" lon="-1.10738">
        <ele>41.876775</ele>
        <time>2022-12-22T16:17:37.596Z</time>
      </trkpt>
      <trkpt lat="45.52128" lon="-1.10741">
        <ele>42.145278</ele>
        <time>2022-12-22T16:17:40.609Z</time>
      </trkpt>
      <trkpt lat="45.52116" lon="-1.10745">
        <ele>42.421778</ele>
        <time>2022-12-22T16:17:43.599Z</time>
      </trkpt>
      <trkpt lat="45.52104" lon="-1.1075">
        <ele>42.698278</ele>
        <time>2022-12-22T16:17:46.595Z</time>
      </trkpt>
      <trkpt lat="45.52092" lon="-1.10754">
        <ele>42.972861</ele>
        <time>2022-12-22T16:17:49.587Z</time>
      </trkpt>
      <trkpt lat="45.5208" lon="-1.1076">
        <ele>43.254911</ele>
        <time>2022-12-22T16:17:52.599Z</time>
      </trkpt>
      <trkpt lat="45.52068" lon="-1.10766">
        <ele>43.543147</ele>
        <time>2022-12-22T16:17:55.595Z</time>
      </trkpt>
      <trkpt lat="45.52055" lon="-1.10772">
        <ele>43.83929</ele>
        <time>2022-12-22T16:17:58.595Z</time>
      </trkpt>
      <trkpt lat="45.52043" lon="-1.10779">
        <ele>44.065313</ele>
        <time>2022-12-22T16:18:01.593Z</time>
      </trkpt>
      <trkpt lat="45.52031" lon="-1.10786">
        <ele>44.195332</ele>
        <time>2022-12-22T16:18:04.620Z</time>
      </trkpt>
      <trkpt lat="45.52019" lon="-1.10793">
        <ele>44.322449</ele>
        <time>2022-12-22T16:18:07.604Z</time>
      </trkpt>
      <trkpt lat="45.52008" lon="-1.108">
        <ele>44.446764</ele>
        <time>2022-12-22T16:18:10.594Z</time>
      </trkpt>
      <trkpt lat="45.51997" lon="-1.10807">
        <ele>44.570183</ele>
        <time>2022-12-22T16:18:13.619Z</time>
      </trkpt>
      <trkpt lat="45.51986" lon="-1.10816">
        <ele>44.697361</ele>
        <time>2022-12-22T16:18:16.598Z</time>
      </trkpt>
      <trkpt lat="45.51975" lon="-1.10825">
        <ele>44.827651</ele>
        <time>2022-12-22T16:18:19.590Z</time>
      </trkpt>
      <trkpt lat="45.51964" lon="-1.10836">
        <ele>44.961607</ele>
        <time>2022-12-22T16:18:22.593Z</time>
      </trkpt>
      <trkpt lat="45.51953" lon="-1.10845">
        <ele>45.095086</ele>
        <time>2022-12-22T16:18:25.593Z</time>
      </trkpt>
      <trkpt lat="45.51941" lon="-1.10856">
        <ele>45.232043</ele>
        <time>2022-12-22T16:18:28.594Z</time>
      </trkpt>
      <trkpt lat="45.5193" lon="-1.10866">
        <ele>45.364916</ele>
        <time>2022-12-22T16:18:31.593Z</time>
      </trkpt>
      <trkpt lat="45.51919" lon="-1.10875">
        <ele>45.492101</ele>
        <time>2022-12-22T16:18:34.591Z</time>
      </trkpt>
      <trkpt lat="45.51909" lon="-1.10884">
        <ele>45.612022</ele>
        <time>2022-12-22T16:18:37.602Z</time>
      </trkpt>
      <trkpt lat="45.51898" lon="-1.10894">
        <ele>45.747968</ele>
        <time>2022-12-22T16:18:40.600Z</time>
      </trkpt>
      <trkpt lat="45.5189" lon="-1.10901">
        <ele>45.829633</ele>
        <time>2022-12-22T16:18:42.611Z</time>
      </trkpt>
      <trkpt lat="45.51879" lon="-1.10911">
        <ele>45.861116</ele>
        <time>2022-12-22T16:18:45.588Z</time>
      </trkpt>
      <trkpt lat="45.51868" lon="-1.10922">
        <ele>45.892008</ele>
        <time>2022-12-22T16:18:48.597Z</time>
      </trkpt>
      <trkpt lat="45.51857" lon="-1.10932">
        <ele>45.923906</ele>
        <time>2022-12-22T16:18:51.601Z</time>
      </trkpt>
      <trkpt lat="45.51845" lon="-1.10942">
        <ele>45.956097</ele>
        <time>2022-12-22T16:18:54.619Z</time>
      </trkpt>
      <trkpt lat="45.51834" lon="-1.10951">
        <ele>45.986481</ele>
        <time>2022-12-22T16:18:57.622Z</time>
      </trkpt>
      <trkpt lat="45.51825" lon="-1.10959">
        <ele>46.012266</ele>
        <time>2022-12-22T16:19:00.597Z</time>
      </trkpt>
      <trkpt lat="45.51816" lon="-1.10967">
        <ele>46.036965</ele>
        <time>2022-12-22T16:19:03.620Z</time>
      </trkpt>
      <trkpt lat="45.51807" lon="-1.10974">
        <ele>46.061814</ele>
        <time>2022-12-22T16:19:06.595Z</time>
      </trkpt>
      <trkpt lat="45.51798" lon="-1.10981">
        <ele>46.085657</ele>
        <time>2022-12-22T16:19:09.599Z</time>
      </trkpt>
      <trkpt lat="45.51789" lon="-1.10991">
        <ele>46.113649</ele>
        <time>2022-12-22T16:19:13.618Z</time>
      </trkpt>
      <trkpt lat="45.51779" lon="-1.10999">
        <ele>46.140324</ele>
        <time>2022-12-22T16:19:16.586Z</time>
      </trkpt>
      <trkpt lat="45.5177" lon="-1.11008">
        <ele>46.167725</ele>
        <time>2022-12-22T16:19:19.601Z</time>
      </trkpt>
      <trkpt lat="45.5176" lon="-1.11016">
        <ele>46.1955</ele>
        <time>2022-12-22T16:19:22.590Z</time>
      </trkpt>
      <trkpt lat="45.51751" lon="-1.11024">
        <ele>46.220524</ele>
        <time>2022-12-22T16:19:25.593Z</time>
      </trkpt>
      <trkpt lat="45.51741" lon="-1.11033">
        <ele>46.247268</ele>
        <time>2022-12-22T16:19:28.610Z</time>
      </trkpt>
      <trkpt lat="45.51731" lon="-1.11042">
        <ele>46.28321</ele>
        <time>2022-12-22T16:19:31.593Z</time>
      </trkpt>
      <trkpt lat="45.51722" lon="-1.11051">
        <ele>46.32212</ele>
        <time>2022-12-22T16:19:34.595Z</time>
      </trkpt>
      <trkpt lat="45.51712" lon="-1.11059">
        <ele>46.359596</ele>
        <time>2022-12-22T16:19:37.597Z</time>
      </trkpt>
      <trkpt lat="45.51704" lon="-1.11066">
        <ele>46.391277</ele>
        <time>2022-12-22T16:19:40.624Z</time>
      </trkpt>
      <trkpt lat="45.51696" lon="-1.11074">
        <ele>46.423493</ele>
        <time>2022-12-22T16:19:43.620Z</time>
      </trkpt>
      <trkpt lat="45.51687" lon="-1.11081">
        <ele>46.457826</ele>
        <time>2022-12-22T16:19:46.599Z</time>
      </trkpt>
      <trkpt lat="45.51677" lon="-1.11089">
        <ele>46.495471</ele>
        <time>2022-12-22T16:19:49.602Z</time>
      </trkpt>
      <trkpt lat="45.51668" lon="-1.11097">
        <ele>46.532709</ele>
        <time>2022-12-22T16:19:52.602Z</time>
      </trkpt>
      <trkpt lat="45.51658" lon="-1.11106">
        <ele>46.57247</ele>
        <time>2022-12-22T16:19:55.620Z</time>
      </trkpt>
      <trkpt lat="45.51647" lon="-1.11115">
        <ele>46.613139</ele>
        <time>2022-12-22T16:19:58.622Z</time>
      </trkpt>
      <trkpt lat="45.51637" lon="-1.11124">
        <ele>46.653472</ele>
        <time>2022-12-22T16:20:01.602Z</time>
      </trkpt>
      <trkpt lat="45.51627" lon="-1.11132">
        <ele>46.692572</ele>
        <time>2022-12-22T16:20:04.601Z</time>
      </trkpt>
      <trkpt lat="45.51616" lon="-1.1114">
        <ele>46.732834</ele>
        <time>2022-12-22T16:20:07.622Z</time>
      </trkpt>
      <trkpt lat="45.51606" lon="-1.11149">
        <ele>46.773222</ele>
        <time>2022-12-22T16:20:10.622Z</time>
      </trkpt>
      <trkpt lat="45.51596" lon="-1.11157">
        <ele>46.812738</ele>
        <time>2022-12-22T16:20:13.621Z</time>
      </trkpt>
      <trkpt lat="45.51585" lon="-1.11165">
        <ele>46.85331</ele>
        <time>2022-12-22T16:20:16.622Z</time>
      </trkpt>
      <trkpt lat="45.51575" lon="-1.11173">
        <ele>46.799663</ele>
        <time>2022-12-22T16:20:19.593Z</time>
      </trkpt>
      <trkpt lat="45.51565" lon="-1.11181">
        <ele>46.738733</ele>
        <time>2022-12-22T16:20:22.602Z</time>
      </trkpt>
      <trkpt lat="45.51555" lon="-1.11188">
        <ele>46.679796</ele>
        <time>2022-12-22T16:20:25.620Z</time>
      </trkpt>
      <trkpt lat="45.51545" lon="-1.11195">
        <ele>46.622297</ele>
        <time>2022-12-22T16:20:28.603Z</time>
      </trkpt>
      <trkpt lat="45.51537" lon="-1.11202">
        <ele>46.568552</ele>
        <time>2022-12-22T16:20:31.618Z</time>
      </trkpt>
      <trkpt lat="45.51527" lon="-1.11209">
        <ele>46.511053</ele>
        <time>2022-12-22T16:20:34.600Z</time>
      </trkpt>
      <trkpt lat="45.51518" lon="-1.11216">
        <ele>46.453097</ele>
        <time>2022-12-22T16:20:37.596Z</time>
      </trkpt>
      <trkpt lat="45.51507" lon="-1.11223">
        <ele>46.392064</ele>
        <time>2022-12-22T16:20:40.604Z</time>
      </trkpt>
      <trkpt lat="45.51497" lon="-1.1123">
        <ele>46.328767</ele>
        <time>2022-12-22T16:20:43.602Z</time>
      </trkpt>
      <trkpt lat="45.51486" lon="-1.11238">
        <ele>46.263152</ele>
        <time>2022-12-22T16:20:46.623Z</time>
      </trkpt>
      <trkpt lat="45.51475" lon="-1.11246">
        <ele>46.196294</ele>
        <time>2022-12-22T16:20:49.620Z</time>
      </trkpt>
      <trkpt lat="45.51463" lon="-1.11254">
        <ele>46.128464</ele>
        <time>2022-12-22T16:20:52.622Z</time>
      </trkpt>
      <trkpt lat="45.51452" lon="-1.11262">
        <ele>46.058692</ele>
        <time>2022-12-22T16:20:55.600Z</time>
      </trkpt>
      <trkpt lat="45.5144" lon="-1.1127">
        <ele>45.988086</ele>
        <time>2022-12-22T16:20:58.620Z</time>
      </trkpt>
      <trkpt lat="45.51429" lon="-1.11278">
        <ele>45.920742</ele>
        <time>2022-12-22T16:21:01.601Z</time>
      </trkpt>
      <trkpt lat="45.51418" lon="-1.11286">
        <ele>45.844815</ele>
        <time>2022-12-22T16:21:04.622Z</time>
      </trkpt>
      <trkpt lat="45.51407" lon="-1.11292">
        <ele>45.762502</ele>
        <time>2022-12-22T16:21:07.595Z</time>
      </trkpt>
      <trkpt lat="45.51395" lon="-1.113">
        <ele>45.670763</ele>
        <time>2022-12-22T16:21:10.622Z</time>
      </trkpt>
      <trkpt lat="45.51386" lon="-1.11306">
        <ele>45.60365</ele>
        <time>2022-12-22T16:21:12.620Z</time>
      </trkpt>
      <trkpt lat="45.51378" lon="-1.11312">
        <ele>45.538685</ele>
        <time>2022-12-22T16:21:14.621Z</time>
      </trkpt>
      <trkpt lat="45.5137" lon="-1.11317">
        <ele>45.475176</ele>
        <time>2022-12-22T16:21:16.621Z</time>
      </trkpt>
      <trkpt lat="45.51358" lon="-1.11325">
        <ele>45.380695</ele>
        <time>2022-12-22T16:21:19.600Z</time>
      </trkpt>
      <trkpt lat="45.51345" lon="-1.11332">
        <ele>45.288386</ele>
        <time>2022-12-22T16:21:22.594Z</time>
      </trkpt>
      <trkpt lat="45.51333" lon="-1.11339">
        <ele>45.196975</ele>
        <time>2022-12-22T16:21:25.613Z</time>
      </trkpt>
      <trkpt lat="45.51321" lon="-1.11345">
        <ele>45.104735</ele>
        <time>2022-12-22T16:21:28.620Z</time>
      </trkpt>
      <trkpt lat="45.51309" lon="-1.11352">
        <ele>45.012791</ele>
        <time>2022-12-22T16:21:31.598Z</time>
      </trkpt>
      <trkpt lat="45.513" lon="-1.11356">
        <ele>44.948752</ele>
        <time>2022-12-22T16:21:33.612Z</time>
      </trkpt>
      <trkpt lat="45.51291" lon="-1.11361">
        <ele>44.883092</ele>
        <time>2022-12-22T16:21:35.593Z</time>
      </trkpt>
      <trkpt lat="45.51282" lon="-1.11366">
        <ele>44.816433</ele>
        <time>2022-12-22T16:21:37.610Z</time>
      </trkpt>
      <trkpt lat="45.51273" lon="-1.1137">
        <ele>44.750092</ele>
        <time>2022-12-22T16:21:39.621Z</time>
      </trkpt>
      <trkpt lat="45.51264" lon="-1.11374">
        <ele>44.681099</ele>
        <time>2022-12-22T16:21:41.621Z</time>
      </trkpt>
      <trkpt lat="45.51254" lon="-1.11378">
        <ele>44.627389</ele>
        <time>2022-12-22T16:21:43.620Z</time>
      </trkpt>
      <trkpt lat="45.51245" lon="-1.11381">
        <ele>44.620446</ele>
        <time>2022-12-22T16:21:45.610Z</time>
      </trkpt>
      <trkpt lat="45.51232" lon="-1.11386">
        <ele>44.610744</ele>
        <time>2022-12-22T16:21:48.596Z</time>
      </trkpt>
      <trkpt lat="45.51221" lon="-1.11392">
        <ele>44.601659</ele>
        <time>2022-12-22T16:21:51.597Z</time>
      </trkpt>
      <trkpt lat="45.51208" lon="-1.11396">
        <ele>44.592469</ele>
        <time>2022-12-22T16:21:54.603Z</time>
      </trkpt>
      <trkpt lat="45.51196" lon="-1.114">
        <ele>44.583457</ele>
        <time>2022-12-22T16:21:57.597Z</time>
      </trkpt>
      <trkpt lat="45.51184" lon="-1.11403">
        <ele>44.574291</ele>
        <time>2022-12-22T16:22:00.620Z</time>
      </trkpt>
      <trkpt lat="45.51172" lon="-1.11406">
        <ele>44.565512</ele>
        <time>2022-12-22T16:22:03.620Z</time>
      </trkpt>
      <trkpt lat="45.51161" lon="-1.11409">
        <ele>44.556941</ele>
        <time>2022-12-22T16:22:06.599Z</time>
      </trkpt>
      <trkpt lat="45.51151" lon="-1.11411">
        <ele>44.549583</ele>
        <time>2022-12-22T16:22:09.603Z</time>
      </trkpt>
      <trkpt lat="45.5114" lon="-1.11412">
        <ele>44.541494</ele>
        <time>2022-12-22T16:22:13.608Z</time>
      </trkpt>
      <trkpt lat="45.51128" lon="-1.11413">
        <ele>44.533113</ele>
        <time>2022-12-22T16:22:17.593Z</time>
      </trkpt>
      <trkpt lat="45.51119" lon="-1.11413">
        <ele>44.525999</ele>
        <time>2022-12-22T16:22:20.613Z</time>
      </trkpt>
      <trkpt lat="45.51108" lon="-1.11411">
        <ele>44.518349</ele>
        <time>2022-12-22T16:22:23.600Z</time>
      </trkpt>
      <trkpt lat="45.51097" lon="-1.1141">
        <ele>44.510325</ele>
        <time>2022-12-22T16:22:26.593Z</time>
      </trkpt>
      <trkpt lat="45.51087" lon="-1.11408">
        <ele>44.502498</ele>
        <time>2022-12-22T16:22:29.594Z</time>
      </trkpt>
      <trkpt lat="45.51076" lon="-1.11406">
        <ele>44.49039</ele>
        <time>2022-12-22T16:22:32.613Z</time>
      </trkpt>
      <trkpt lat="45.51066" lon="-1.11404">
        <ele>44.469552</ele>
        <time>2022-12-22T16:22:35.597Z</time>
      </trkpt>
      <trkpt lat="45.51056" lon="-1.11399">
        <ele>44.447807</ele>
        <time>2022-12-22T16:22:38.602Z</time>
      </trkpt>
      <trkpt lat="45.51047" lon="-1.11392">
        <ele>44.427225</ele>
        <time>2022-12-22T16:22:41.620Z</time>
      </trkpt>
      <trkpt lat="45.51037" lon="-1.11386">
        <ele>44.406408</ele>
        <time>2022-12-22T16:22:44.605Z</time>
      </trkpt>
      <trkpt lat="45.51028" lon="-1.11379">
        <ele>44.385227</ele>
        <time>2022-12-22T16:22:47.613Z</time>
      </trkpt>
      <trkpt lat="45.5102" lon="-1.11372">
        <ele>44.366098</ele>
        <time>2022-12-22T16:22:50.592Z</time>
      </trkpt>
      <trkpt lat="45.51009" lon="-1.11364">
        <ele>44.342732</ele>
        <time>2022-12-22T16:22:54.597Z</time>
      </trkpt>
      <trkpt lat="45.51001" lon="-1.11356">
        <ele>44.32212</ele>
        <time>2022-12-22T16:22:57.594Z</time>
      </trkpt>
      <trkpt lat="45.50992" lon="-1.11346">
        <ele>44.299257</ele>
        <time>2022-12-22T16:23:00.600Z</time>
      </trkpt>
      <trkpt lat="45.50982" lon="-1.11336">
        <ele>44.27508</ele>
        <time>2022-12-22T16:23:03.597Z</time>
      </trkpt>
      <trkpt lat="45.50973" lon="-1.11323">
        <ele>44.249384</ele>
        <time>2022-12-22T16:23:06.599Z</time>
      </trkpt>
      <trkpt lat="45.50967" lon="-1.11313">
        <ele>44.230926</ele>
        <time>2022-12-22T16:23:08.597Z</time>
      </trkpt>
      <trkpt lat="45.5096" lon="-1.11303">
        <ele>44.212461</ele>
        <time>2022-12-22T16:23:10.621Z</time>
      </trkpt>
      <trkpt lat="45.50955" lon="-1.11293">
        <ele>44.193609</ele>
        <time>2022-12-22T16:23:12.620Z</time>
      </trkpt>
      <trkpt lat="45.50949" lon="-1.11282">
        <ele>44.174662</ele>
        <time>2022-12-22T16:23:14.606Z</time>
      </trkpt>
      <trkpt lat="45.50941" lon="-1.11267">
        <ele>44.148507</ele>
        <time>2022-12-22T16:23:17.597Z</time>
      </trkpt>
      <trkpt lat="45.50934" lon="-1.11251">
        <ele>44.143488</ele>
        <time>2022-12-22T16:23:20.596Z</time>
      </trkpt>
      <trkpt lat="45.50927" lon="-1.11236">
        <ele>44.152624</ele>
        <time>2022-12-22T16:23:23.592Z</time>
      </trkpt>
      <trkpt lat="45.5092" lon="-1.11221">
        <ele>44.162151</ele>
        <time>2022-12-22T16:23:26.596Z</time>
      </trkpt>
      <trkpt lat="45.50916" lon="-1.11209">
        <ele>44.168838</ele>
        <time>2022-12-22T16:23:28.621Z</time>
      </trkpt>
      <trkpt lat="45.50911" lon="-1.11197">
        <ele>44.175876</ele>
        <time>2022-12-22T16:23:30.595Z</time>
      </trkpt>
      <trkpt lat="45.50907" lon="-1.11185">
        <ele>44.183063</ele>
        <time>2022-12-22T16:23:32.610Z</time>
      </trkpt>
      <trkpt lat="45.50903" lon="-1.11172">
        <ele>44.190079</ele>
        <time>2022-12-22T16:23:34.598Z</time>
      </trkpt>
      <trkpt lat="45.50898" lon="-1.1116">
        <ele>44.197243</ele>
        <time>2022-12-22T16:23:36.619Z</time>
      </trkpt>
      <trkpt lat="45.50894" lon="-1.11147">
        <ele>44.204718</ele>
        <time>2022-12-22T16:23:38.603Z</time>
      </trkpt>
      <trkpt lat="45.5089" lon="-1.11133">
        <ele>44.212352</ele>
        <time>2022-12-22T16:23:40.601Z</time>
      </trkpt>
      <trkpt lat="45.50886" lon="-1.1112">
        <ele>44.219894</ele>
        <time>2022-12-22T16:23:42.622Z</time>
      </trkpt>
      <trkpt lat="45.50881" lon="-1.11106">
        <ele>44.227842</ele>
        <time>2022-12-22T16:23:44.619Z</time>
      </trkpt>
      <trkpt lat="45.50878" lon="-1.11091">
        <ele>44.235964</ele>
        <time>2022-12-22T16:23:46.597Z</time>
      </trkpt>
      <trkpt lat="45.50874" lon="-1.11076">
        <ele>44.24399</ele>
        <time>2022-12-22T16:23:48.594Z</time>
      </trkpt>
      <trkpt lat="45.5087" lon="-1.11062">
        <ele>44.251644</ele>
        <time>2022-12-22T16:23:50.601Z</time>
      </trkpt>
      <trkpt lat="45.50867" lon="-1.11049">
        <ele>44.258838</ele>
        <time>2022-12-22T16:23:52.603Z</time>
      </trkpt>
      <trkpt lat="45.50865" lon="-1.11036">
        <ele>44.265439</ele>
        <time>2022-12-22T16:23:54.592Z</time>
      </trkpt>
      <trkpt lat="45.50863" lon="-1.11023">
        <ele>44.277222</ele>
        <time>2022-12-22T16:23:56.619Z</time>
      </trkpt>
      <trkpt lat="45.5086" lon="-1.11011">
        <ele>44.296399</ele>
        <time>2022-12-22T16:23:58.619Z</time>
      </trkpt>
      <trkpt lat="45.50858" lon="-1.10998">
        <ele>44.316402</ele>
        <time>2022-12-22T16:24:00.623Z</time>
      </trkpt>
      <trkpt lat="45.50854" lon="-1.10984">
        <ele>44.338519</ele>
        <time>2022-12-22T16:24:02.593Z</time>
      </trkpt>
      <trkpt lat="45.50852" lon="-1.10971">
        <ele>44.358865</ele>
        <time>2022-12-22T16:24:04.619Z</time>
      </trkpt>
      <trkpt lat="45.50849" lon="-1.10958">
        <ele>44.378266</ele>
        <time>2022-12-22T16:24:06.613Z</time>
      </trkpt>
      <trkpt lat="45.50847" lon="-1.10946">
        <ele>44.39751</ele>
        <time>2022-12-22T16:24:08.598Z</time>
      </trkpt>
      <trkpt lat="45.50844" lon="-1.10929">
        <ele>44.422919</ele>
        <time>2022-12-22T16:24:11.598Z</time>
      </trkpt>
      <trkpt lat="45.50842" lon="-1.10914">
        <ele>44.446305</ele>
        <time>2022-12-22T16:24:14.592Z</time>
      </trkpt>
      <trkpt lat="45.5084" lon="-1.109">
        <ele>44.467122</ele>
        <time>2022-12-22T16:24:17.597Z</time>
      </trkpt>
      <trkpt lat="45.50835" lon="-1.10886">
        <ele>44.490606</ele>
        <time>2022-12-22T16:24:20.590Z</time>
      </trkpt>
      <trkpt lat="45.50831" lon="-1.1087">
        <ele>44.515743</ele>
        <time>2022-12-22T16:24:23.593Z</time>
      </trkpt>
      <trkpt lat="45.50828" lon="-1.10853">
        <ele>44.541303</ele>
        <time>2022-12-22T16:24:26.636Z</time>
      </trkpt>
      <trkpt lat="45.50824" lon="-1.10838">
        <ele>44.564969</ele>
        <time>2022-12-22T16:24:29.600Z</time>
      </trkpt>
      <trkpt lat="45.50821" lon="-1.10824">
        <ele>44.586632</ele>
        <time>2022-12-22T16:24:32.598Z</time>
      </trkpt>
      <trkpt lat="45.50816" lon="-1.10811">
        <ele>44.609157</ele>
        <time>2022-12-22T16:24:37.602Z</time>
      </trkpt>
      <trkpt lat="45.50815" lon="-1.10797">
        <ele>44.630378</ele>
        <time>2022-12-22T16:29:43.606Z</time>
      </trkpt>
      <trkpt lat="45.50813" lon="-1.10781">
        <ele>44.645256</ele>
        <time>2022-12-22T16:29:49.618Z</time>
      </trkpt>
      <trkpt lat="45.50808" lon="-1.10766">
        <ele>44.565485</ele>
        <time>2022-12-22T16:29:53.599Z</time>
      </trkpt>
      <trkpt lat="45.50806" lon="-1.10752">
        <ele>44.49676</ele>
        <time>2022-12-22T16:29:56.604Z</time>
      </trkpt>
      <trkpt lat="45.50803" lon="-1.10738">
        <ele>44.42332</ele>
        <time>2022-12-22T16:29:59.623Z</time>
      </trkpt>
      <trkpt lat="45.508" lon="-1.10722">
        <ele>44.346832</ele>
        <time>2022-12-22T16:30:02.597Z</time>
      </trkpt>
      <trkpt lat="45.50797" lon="-1.10706">
        <ele>44.26929</ele>
        <time>2022-12-22T16:30:05.613Z</time>
      </trkpt>
      <trkpt lat="45.50794" lon="-1.10691">
        <ele>44.192896</ele>
        <time>2022-12-22T16:30:08.598Z</time>
      </trkpt>
      <trkpt lat="45.50791" lon="-1.10675">
        <ele>44.11316</ele>
        <time>2022-12-22T16:30:11.600Z</time>
      </trkpt>
      <trkpt lat="45.50789" lon="-1.1066">
        <ele>44.040761</ele>
        <time>2022-12-22T16:30:14.606Z</time>
      </trkpt>
      <trkpt lat="45.50785" lon="-1.10646">
        <ele>43.968757</ele>
        <time>2022-12-22T16:30:17.618Z</time>
      </trkpt>
      <trkpt lat="45.50783" lon="-1.1063">
        <ele>43.891514</ele>
        <time>2022-12-22T16:30:20.618Z</time>
      </trkpt>
      <trkpt lat="45.5078" lon="-1.10615">
        <ele>43.813634</ele>
        <time>2022-12-22T16:30:23.604Z</time>
      </trkpt>
      <trkpt lat="45.50777" lon="-1.10599">
        <ele>43.732901</ele>
        <time>2022-12-22T16:30:26.615Z</time>
      </trkpt>
      <trkpt lat="45.50773" lon="-1.10582">
        <ele>43.651325</ele>
        <time>2022-12-22T16:30:29.595Z</time>
      </trkpt>
      <trkpt lat="45.5077" lon="-1.10566">
        <ele>43.56929</ele>
        <time>2022-12-22T16:30:32.616Z</time>
      </trkpt>
      <trkpt lat="45.50767" lon="-1.10549">
        <ele>43.48735</ele>
        <time>2022-12-22T16:30:35.615Z</time>
      </trkpt>
      <trkpt lat="45.50763" lon="-1.10533">
        <ele>43.429549</ele>
        <time>2022-12-22T16:30:38.622Z</time>
      </trkpt>
      <trkpt lat="45.50759" lon="-1.10516">
        <ele>43.474286</ele>
        <time>2022-12-22T16:30:41.618Z</time>
      </trkpt>
      <trkpt lat="45.50756" lon="-1.10498">
        <ele>43.518818</ele>
        <time>2022-12-22T16:30:44.611Z</time>
      </trkpt>
      <trkpt lat="45.50752" lon="-1.10482">
        <ele>43.562973</ele>
        <time>2022-12-22T16:30:47.606Z</time>
      </trkpt>
      <trkpt lat="45.50749" lon="-1.10468">
        <ele>43.598487</ele>
        <time>2022-12-22T16:30:50.597Z</time>
      </trkpt>
      <trkpt lat="45.50746" lon="-1.10453">
        <ele>43.639021</ele>
        <time>2022-12-22T16:30:54.605Z</time>
      </trkpt>
      <trkpt lat="45.50743" lon="-1.10439">
        <ele>43.673975</ele>
        <time>2022-12-22T16:30:58.598Z</time>
      </trkpt>
      <trkpt lat="45.5074" lon="-1.10427">
        <ele>43.706809</ele>
        <time>2022-12-22T16:31:04.593Z</time>
      </trkpt>
      <trkpt lat="45.50738" lon="-1.10412">
        <ele>43.743407</ele>
        <time>2022-12-22T16:31:10.592Z</time>
      </trkpt>
      <trkpt lat="45.50734" lon="-1.10397">
        <ele>43.783042</ele>
        <time>2022-12-22T16:31:14.603Z</time>
      </trkpt>
      <trkpt lat="45.50732" lon="-1.10385">
        <ele>43.816164</ele>
        <time>2022-12-22T16:31:17.623Z</time>
      </trkpt>
      <trkpt lat="45.50729" lon="-1.10371">
        <ele>43.851553</ele>
        <time>2022-12-22T16:31:20.597Z</time>
      </trkpt>
      <trkpt lat="45.50726" lon="-1.10357">
        <ele>43.888628</ele>
        <time>2022-12-22T16:31:23.599Z</time>
      </trkpt>
      <trkpt lat="45.50723" lon="-1.10342">
        <ele>43.926764</ele>
        <time>2022-12-22T16:31:26.590Z</time>
      </trkpt>
      <trkpt lat="45.5072" lon="-1.10328">
        <ele>43.964628</ele>
        <time>2022-12-22T16:31:29.595Z</time>
      </trkpt>
      <trkpt lat="45.50717" lon="-1.10313">
        <ele>44.003622</ele>
        <time>2022-12-22T16:31:32.589Z</time>
      </trkpt>
      <trkpt lat="45.50713" lon="-1.10298">
        <ele>44.043507</ele>
        <time>2022-12-22T16:31:35.596Z</time>
      </trkpt>
      <trkpt lat="45.5071" lon="-1.10284">
        <ele>44.054824</ele>
        <time>2022-12-22T16:31:38.616Z</time>
      </trkpt>
      <trkpt lat="45.50707" lon="-1.10268">
        <ele>44.038421</ele>
        <time>2022-12-22T16:31:41.607Z</time>
      </trkpt>
      <trkpt lat="45.50704" lon="-1.10251">
        <ele>44.020871</ele>
        <time>2022-12-22T16:31:44.605Z</time>
      </trkpt>
      <trkpt lat="45.507" lon="-1.10234">
        <ele>44.002445</ele>
        <time>2022-12-22T16:31:47.599Z</time>
      </trkpt>
      <trkpt lat="45.50696" lon="-1.10216">
        <ele>43.983571</ele>
        <time>2022-12-22T16:31:50.609Z</time>
      </trkpt>
      <trkpt lat="45.50693" lon="-1.10199">
        <ele>43.965769</ele>
        <time>2022-12-22T16:31:53.601Z</time>
      </trkpt>
      <trkpt lat="45.5069" lon="-1.10184">
        <ele>43.950151</ele>
        <time>2022-12-22T16:31:56.597Z</time>
      </trkpt>
      <trkpt lat="45.50687" lon="-1.1017">
        <ele>43.934952</ele>
        <time>2022-12-22T16:31:59.601Z</time>
      </trkpt>
      <trkpt lat="45.50683" lon="-1.10154">
        <ele>43.917831</ele>
        <time>2022-12-22T16:32:03.623Z</time>
      </trkpt>
      <trkpt lat="45.5068" lon="-1.1014">
        <ele>43.903352</ele>
        <time>2022-12-22T16:32:06.602Z</time>
      </trkpt>
      <trkpt lat="45.50677" lon="-1.10126">
        <ele>43.887872</ele>
        <time>2022-12-22T16:32:09.604Z</time>
      </trkpt>
      <trkpt lat="45.50673" lon="-1.10111">
        <ele>43.872243</ele>
        <time>2022-12-22T16:32:12.605Z</time>
      </trkpt>
      <trkpt lat="45.5067" lon="-1.10097">
        <ele>43.857433</ele>
        <time>2022-12-22T16:32:15.606Z</time>
      </trkpt>
      <trkpt lat="45.50666" lon="-1.10084">
        <ele>43.843384</ele>
        <time>2022-12-22T16:32:18.604Z</time>
      </trkpt>
      <trkpt lat="45.50663" lon="-1.10069">
        <ele>43.826675</ele>
        <time>2022-12-22T16:32:22.608Z</time>
      </trkpt>
      <trkpt lat="45.5066" lon="-1.10054">
        <ele>43.811528</ele>
        <time>2022-12-22T16:32:25.594Z</time>
      </trkpt>
      <trkpt lat="45.50656" lon="-1.10036">
        <ele>43.761949</ele>
        <time>2022-12-22T16:32:28.591Z</time>
      </trkpt>
      <trkpt lat="45.50654" lon="-1.10024">
        <ele>43.70736</ele>
        <time>2022-12-22T16:32:30.601Z</time>
      </trkpt>
      <trkpt lat="45.50652" lon="-1.10011">
        <ele>43.651531</ele>
        <time>2022-12-22T16:32:32.601Z</time>
      </trkpt>
      <trkpt lat="45.50648" lon="-1.09995">
        <ele>43.57912</ele>
        <time>2022-12-22T16:32:35.605Z</time>
      </trkpt>
      <trkpt lat="45.50645" lon="-1.09978">
        <ele>43.505677</ele>
        <time>2022-12-22T16:32:38.606Z</time>
      </trkpt>
      <trkpt lat="45.50641" lon="-1.0996">
        <ele>43.427385</ele>
        <time>2022-12-22T16:32:41.597Z</time>
      </trkpt>
      <trkpt lat="45.50638" lon="-1.09947">
        <ele>43.372215</ele>
        <time>2022-12-22T16:32:43.603Z</time>
      </trkpt>
      <trkpt lat="45.50636" lon="-1.09935">
        <ele>43.317656</ele>
        <time>2022-12-22T16:32:45.596Z</time>
      </trkpt>
      <trkpt lat="45.50633" lon="-1.09921">
        <ele>43.257087</ele>
        <time>2022-12-22T16:32:47.602Z</time>
      </trkpt>
      <trkpt lat="45.5063" lon="-1.09908">
        <ele>43.198126</ele>
        <time>2022-12-22T16:32:49.603Z</time>
      </trkpt>
      <trkpt lat="45.50628" lon="-1.09895">
        <ele>43.140885</ele>
        <time>2022-12-22T16:32:51.597Z</time>
      </trkpt>
      <trkpt lat="45.50625" lon="-1.09882">
        <ele>43.085739</ele>
        <time>2022-12-22T16:32:53.596Z</time>
      </trkpt>
      <trkpt lat="45.50621" lon="-1.09864">
        <ele>43.006932</ele>
        <time>2022-12-22T16:32:56.598Z</time>
      </trkpt>
      <trkpt lat="45.50618" lon="-1.09846">
        <ele>42.929682</ele>
        <time>2022-12-22T16:32:59.603Z</time>
      </trkpt>
      <trkpt lat="45.50613" lon="-1.09828">
        <ele>42.849536</ele>
        <time>2022-12-22T16:33:02.592Z</time>
      </trkpt>
      <trkpt lat="45.50611" lon="-1.09816">
        <ele>42.793563</ele>
        <time>2022-12-22T16:33:04.595Z</time>
      </trkpt>
      <trkpt lat="45.50608" lon="-1.09803">
        <ele>42.737591</ele>
        <time>2022-12-22T16:33:06.598Z</time>
      </trkpt>
      <trkpt lat="45.50605" lon="-1.0979">
        <ele>42.721655</ele>
        <time>2022-12-22T16:33:08.604Z</time>
      </trkpt>
      <trkpt lat="45.50602" lon="-1.09776">
        <ele>42.71933</ele>
        <time>2022-12-22T16:33:10.594Z</time>
      </trkpt>
      <trkpt lat="45.50599" lon="-1.09763">
        <ele>42.716972</ele>
        <time>2022-12-22T16:33:12.616Z</time>
      </trkpt>
      <trkpt lat="45.50597" lon="-1.09749">
        <ele>42.714659</ele>
        <time>2022-12-22T16:33:14.594Z</time>
      </trkpt>
      <trkpt lat="45.50594" lon="-1.09736">
        <ele>42.712433</ele>
        <time>2022-12-22T16:33:16.625Z</time>
      </trkpt>
      <trkpt lat="45.50591" lon="-1.09723">
        <ele>42.710239</ele>
        <time>2022-12-22T16:33:18.598Z</time>
      </trkpt>
      <trkpt lat="45.50587" lon="-1.09706">
        <ele>42.707274</ele>
        <time>2022-12-22T16:33:21.622Z</time>
      </trkpt>
      <trkpt lat="45.50583" lon="-1.09689">
        <ele>42.704427</ele>
        <time>2022-12-22T16:33:24.612Z</time>
      </trkpt>
      <trkpt lat="45.5058" lon="-1.09673">
        <ele>42.701728</ele>
        <time>2022-12-22T16:33:27.610Z</time>
      </trkpt>
      <trkpt lat="45.50578" lon="-1.09655">
        <ele>42.698729</ele>
        <time>2022-12-22T16:33:30.597Z</time>
      </trkpt>
      <trkpt lat="45.50577" lon="-1.09637">
        <ele>42.695627</ele>
        <time>2022-12-22T16:33:33.593Z</time>
      </trkpt>
      <trkpt lat="45.50577" lon="-1.09623">
        <ele>42.693416</ele>
        <time>2022-12-22T16:33:35.598Z</time>
      </trkpt>
      <trkpt lat="45.50579" lon="-1.09609">
        <ele>42.691117</ele>
        <time>2022-12-22T16:33:37.595Z</time>
      </trkpt>
      <trkpt lat="45.5058" lon="-1.09595">
        <ele>42.688795</ele>
        <time>2022-12-22T16:33:39.631Z</time>
      </trkpt>
      <trkpt lat="45.50582" lon="-1.09582">
        <ele>42.686578</ele>
        <time>2022-12-22T16:33:41.601Z</time>
      </trkpt>
      <trkpt lat="45.50583" lon="-1.09568">
        <ele>42.684283</ele>
        <time>2022-12-22T16:33:43.614Z</time>
      </trkpt>
      <trkpt lat="45.50584" lon="-1.09555">
        <ele>42.682137</ele>
        <time>2022-12-22T16:33:45.618Z</time>
      </trkpt>
      <trkpt lat="45.50587" lon="-1.09536">
        <ele>42.735108</ele>
        <time>2022-12-22T16:33:48.599Z</time>
      </trkpt>
      <trkpt lat="45.50588" lon="-1.09522">
        <ele>42.784837</ele>
        <time>2022-12-22T16:33:50.600Z</time>
      </trkpt>
      <trkpt lat="45.5059" lon="-1.09509">
        <ele>42.83559</ele>
        <time>2022-12-22T16:33:52.622Z</time>
      </trkpt>
      <trkpt lat="45.50592" lon="-1.09494">
        <ele>42.890164</ele>
        <time>2022-12-22T16:33:54.600Z</time>
      </trkpt>
      <trkpt lat="45.50593" lon="-1.0948">
        <ele>42.942654</ele>
        <time>2022-12-22T16:33:56.621Z</time>
      </trkpt>
      <trkpt lat="45.50595" lon="-1.09467">
        <ele>42.992221</ele>
        <time>2022-12-22T16:33:58.610Z</time>
      </trkpt>
      <trkpt lat="45.50597" lon="-1.09448">
        <ele>43.063255</ele>
        <time>2022-12-22T16:34:01.596Z</time>
      </trkpt>
      <trkpt lat="45.50598" lon="-1.0943">
        <ele>43.129401</ele>
        <time>2022-12-22T16:34:04.591Z</time>
      </trkpt>
      <trkpt lat="45.506" lon="-1.09413">
        <ele>43.193166</ele>
        <time>2022-12-22T16:34:07.599Z</time>
      </trkpt>
      <trkpt lat="45.50601" lon="-1.09397">
        <ele>43.250109</ele>
        <time>2022-12-22T16:34:10.598Z</time>
      </trkpt>
      <trkpt lat="45.50603" lon="-1.09382">
        <ele>43.307572</ele>
        <time>2022-12-22T16:34:13.823Z</time>
      </trkpt>
      <trkpt lat="45.50604" lon="-1.09367">
        <ele>43.361818</ele>
        <time>2022-12-22T16:34:16.595Z</time>
      </trkpt>
      <trkpt lat="45.50606" lon="-1.09353">
        <ele>43.41402</ele>
        <time>2022-12-22T16:34:19.599Z</time>
      </trkpt>
      <trkpt lat="45.50607" lon="-1.0934">
        <ele>43.463957</ele>
        <time>2022-12-22T16:34:22.604Z</time>
      </trkpt>
      <trkpt lat="45.50608" lon="-1.09325">
        <ele>43.520229</ele>
        <time>2022-12-22T16:34:26.598Z</time>
      </trkpt>
      <trkpt lat="45.50608" lon="-1.09309">
        <ele>43.578504</ele>
        <time>2022-12-22T16:34:30.614Z</time>
      </trkpt>
      <trkpt lat="45.50607" lon="-1.09296">
        <ele>43.627473</ele>
        <time>2022-12-22T16:34:33.598Z</time>
      </trkpt>
      <trkpt lat="45.50606" lon="-1.09281">
        <ele>43.640916</ele>
        <time>2022-12-22T16:34:37.605Z</time>
      </trkpt>
      <trkpt lat="45.5061" lon="-1.09262">
        <ele>43.658603</ele>
        <time>2022-12-22T16:35:12.636Z</time>
      </trkpt>
      <trkpt lat="45.50612" lon="-1.09246">
        <ele>43.673661</ele>
        <time>2022-12-22T16:35:16.613Z</time>
      </trkpt>
      <trkpt lat="45.50615" lon="-1.09231">
        <ele>43.687837</ele>
        <time>2022-12-22T16:35:19.606Z</time>
      </trkpt>
      <trkpt lat="45.50619" lon="-1.09215">
        <ele>43.703098</ele>
        <time>2022-12-22T16:35:22.605Z</time>
      </trkpt>
      <trkpt lat="45.50622" lon="-1.09197">
        <ele>43.720192</ele>
        <time>2022-12-22T16:35:25.597Z</time>
      </trkpt>
      <trkpt lat="45.50624" lon="-1.09184">
        <ele>43.732061</ele>
        <time>2022-12-22T16:35:27.611Z</time>
      </trkpt>
      <trkpt lat="45.50625" lon="-1.09171">
        <ele>43.744338</ele>
        <time>2022-12-22T16:35:29.598Z</time>
      </trkpt>
      <trkpt lat="45.50625" lon="-1.09158">
        <ele>43.756489</ele>
        <time>2022-12-22T16:35:31.597Z</time>
      </trkpt>
      <trkpt lat="45.50626" lon="-1.09144">
        <ele>43.768515</ele>
        <time>2022-12-22T16:35:33.600Z</time>
      </trkpt>
      <trkpt lat="45.50625" lon="-1.09126">
        <ele>43.785468</ele>
        <time>2022-12-22T16:35:36.620Z</time>
      </trkpt>
      <trkpt lat="45.50625" lon="-1.09109">
        <ele>43.800773</ele>
        <time>2022-12-22T16:35:39.599Z</time>
      </trkpt>
      <trkpt lat="45.50625" lon="-1.09092">
        <ele>43.816634</ele>
        <time>2022-12-22T16:35:42.622Z</time>
      </trkpt>
      <trkpt lat="45.50624" lon="-1.09074">
        <ele>43.832954</ele>
        <time>2022-12-22T16:35:45.611Z</time>
      </trkpt>
      <trkpt lat="45.50624" lon="-1.09056">
        <ele>43.84928</ele>
        <time>2022-12-22T16:35:48.601Z</time>
      </trkpt>
      <trkpt lat="45.50623" lon="-1.09037">
        <ele>43.836715</ele>
        <time>2022-12-22T16:35:51.597Z</time>
      </trkpt>
      <trkpt lat="45.50622" lon="-1.09024">
        <ele>43.7796</ele>
        <time>2022-12-22T16:35:53.601Z</time>
      </trkpt>
      <trkpt lat="45.50622" lon="-1.09011">
        <ele>43.723004</ele>
        <time>2022-12-22T16:35:55.598Z</time>
      </trkpt>
      <trkpt lat="45.50621" lon="-1.08993">
        <ele>43.642778</ele>
        <time>2022-12-22T16:35:58.592Z</time>
      </trkpt>
      <trkpt lat="45.50622" lon="-1.08974">
        <ele>43.558661</ele>
        <time>2022-12-22T16:36:01.621Z</time>
      </trkpt>
      <trkpt lat="45.50622" lon="-1.08961">
        <ele>43.50171</ele>
        <time>2022-12-22T16:36:03.606Z</time>
      </trkpt>
      <trkpt lat="45.50622" lon="-1.08948">
        <ele>43.443802</ele>
        <time>2022-12-22T16:36:05.621Z</time>
      </trkpt>
      <trkpt lat="45.50623" lon="-1.08934">
        <ele>43.385048</ele>
        <time>2022-12-22T16:36:07.625Z</time>
      </trkpt>
      <trkpt lat="45.50624" lon="-1.0892">
        <ele>43.320787</ele>
        <time>2022-12-22T16:36:09.620Z</time>
      </trkpt>
      <trkpt lat="45.50625" lon="-1.08906">
        <ele>43.26132</ele>
        <time>2022-12-22T16:36:11.620Z</time>
      </trkpt>
      <trkpt lat="45.50625" lon="-1.08892">
        <ele>43.200426</ele>
        <time>2022-12-22T16:36:13.621Z</time>
      </trkpt>
      <trkpt lat="45.50625" lon="-1.08879">
        <ele>43.143355</ele>
        <time>2022-12-22T16:36:15.594Z</time>
      </trkpt>
      <trkpt lat="45.50626" lon="-1.08866">
        <ele>43.084178</ele>
        <time>2022-12-22T16:36:17.605Z</time>
      </trkpt>
      <trkpt lat="45.50628" lon="-1.08852">
        <ele>43.022827</ele>
        <time>2022-12-22T16:36:19.622Z</time>
      </trkpt>
      <trkpt lat="45.50629" lon="-1.08839">
        <ele>42.96336</ele>
        <time>2022-12-22T16:36:21.601Z</time>
      </trkpt>
      <trkpt lat="45.50629" lon="-1.08825">
        <ele>42.903264</ele>
        <time>2022-12-22T16:36:23.612Z</time>
      </trkpt>
      <trkpt lat="45.5063" lon="-1.08811">
        <ele>42.842294</ele>
        <time>2022-12-22T16:36:25.594Z</time>
      </trkpt>
      <trkpt lat="45.5063" lon="-1.08797">
        <ele>42.779062</ele>
        <time>2022-12-22T16:36:27.604Z</time>
      </trkpt>
      <trkpt lat="45.50631" lon="-1.08783">
        <ele>42.746166</ele>
        <time>2022-12-22T16:36:29.604Z</time>
      </trkpt>
      <trkpt lat="45.50631" lon="-1.0877">
        <ele>42.781306</ele>
        <time>2022-12-22T16:36:31.618Z</time>
      </trkpt>
      <trkpt lat="45.5063" lon="-1.0875">
        <ele>42.832068</ele>
        <time>2022-12-22T16:36:34.604Z</time>
      </trkpt>
      <trkpt lat="45.50629" lon="-1.08737">
        <ele>42.867536</ele>
        <time>2022-12-22T16:36:36.620Z</time>
      </trkpt>
      <trkpt lat="45.50627" lon="-1.08723">
        <ele>42.905288</ele>
        <time>2022-12-22T16:36:38.601Z</time>
      </trkpt>
      <trkpt lat="45.50625" lon="-1.08708">
        <ele>42.943062</ele>
        <time>2022-12-22T16:36:40.610Z</time>
      </trkpt>
      <trkpt lat="45.50623" lon="-1.08694">
        <ele>42.981675</ele>
        <time>2022-12-22T16:36:42.621Z</time>
      </trkpt>
      <trkpt lat="45.50619" lon="-1.08679">
        <ele>43.021851</ele>
        <time>2022-12-22T16:36:44.615Z</time>
      </trkpt>
      <trkpt lat="45.50615" lon="-1.08665">
        <ele>43.061444</ele>
        <time>2022-12-22T16:36:46.595Z</time>
      </trkpt>
      <trkpt lat="45.50611" lon="-1.08653">
        <ele>43.096974</ele>
        <time>2022-12-22T16:36:48.600Z</time>
      </trkpt>
      <trkpt lat="45.50607" lon="-1.08641">
        <ele>43.131939</ele>
        <time>2022-12-22T16:36:50.619Z</time>
      </trkpt>
      <trkpt lat="45.506" lon="-1.08624">
        <ele>43.181574</ele>
        <time>2022-12-22T16:36:53.590Z</time>
      </trkpt>
      <trkpt lat="45.50592" lon="-1.08611">
        <ele>43.22827</ele>
        <time>2022-12-22T16:36:56.606Z</time>
      </trkpt>
      <trkpt lat="45.50586" lon="-1.08601">
        <ele>43.262225</ele>
        <time>2022-12-22T16:36:58.598Z</time>
      </trkpt>
      <trkpt lat="45.5058" lon="-1.08591">
        <ele>43.297172</ele>
        <time>2022-12-22T16:37:00.591Z</time>
      </trkpt>
      <trkpt lat="45.50574" lon="-1.08581">
        <ele>43.33096</ele>
        <time>2022-12-22T16:37:02.601Z</time>
      </trkpt>
      <trkpt lat="45.50567" lon="-1.08572">
        <ele>43.366129</ele>
        <time>2022-12-22T16:37:04.622Z</time>
      </trkpt>
      <trkpt lat="45.50559" lon="-1.08564">
        <ele>43.401063</ele>
        <time>2022-12-22T16:37:06.604Z</time>
      </trkpt>
      <trkpt lat="45.50549" lon="-1.08551">
        <ele>43.382501</ele>
        <time>2022-12-22T16:37:09.612Z</time>
      </trkpt>
      <trkpt lat="45.50538" lon="-1.08541">
        <ele>43.359152</ele>
        <time>2022-12-22T16:37:12.605Z</time>
      </trkpt>
      <trkpt lat="45.50526" lon="-1.08532">
        <ele>43.335877</ele>
        <time>2022-12-22T16:37:15.605Z</time>
      </trkpt>
      <trkpt lat="45.50514" lon="-1.08524">
        <ele>43.312722</ele>
        <time>2022-12-22T16:37:18.618Z</time>
      </trkpt>
      <trkpt lat="45.50505" lon="-1.08518">
        <ele>43.295878</ele>
        <time>2022-12-22T16:37:20.620Z</time>
      </trkpt>
      <trkpt lat="45.50497" lon="-1.08512">
        <ele>43.279289</ele>
        <time>2022-12-22T16:37:22.604Z</time>
      </trkpt>
      <trkpt lat="45.50489" lon="-1.08505">
        <ele>43.262831</ele>
        <time>2022-12-22T16:37:24.604Z</time>
      </trkpt>
      <trkpt lat="45.50477" lon="-1.08496">
        <ele>43.23941</ele>
        <time>2022-12-22T16:37:27.603Z</time>
      </trkpt>
      <trkpt lat="45.50465" lon="-1.08487">
        <ele>43.216081</ele>
        <time>2022-12-22T16:37:30.596Z</time>
      </trkpt>
      <trkpt lat="45.50454" lon="-1.08478">
        <ele>43.19344</ele>
        <time>2022-12-22T16:37:33.602Z</time>
      </trkpt>
      <trkpt lat="45.50442" lon="-1.08469">
        <ele>43.170107</ele>
        <time>2022-12-22T16:37:36.595Z</time>
      </trkpt>
      <trkpt lat="45.50434" lon="-1.08463">
        <ele>43.154108</ele>
        <time>2022-12-22T16:37:38.588Z</time>
      </trkpt>
      <trkpt lat="45.50425" lon="-1.08456">
        <ele>43.13689</ele>
        <time>2022-12-22T16:37:40.598Z</time>
      </trkpt>
      <trkpt lat="45.50417" lon="-1.0845">
        <ele>43.120935</ele>
        <time>2022-12-22T16:37:42.591Z</time>
      </trkpt>
      <trkpt lat="45.50409" lon="-1.08444">
        <ele>43.105114</ele>
        <time>2022-12-22T16:37:44.598Z</time>
      </trkpt>
      <trkpt lat="45.50397" lon="-1.08436">
        <ele>43.089349</ele>
        <time>2022-12-22T16:37:47.597Z</time>
      </trkpt>
      <trkpt lat="45.50386" lon="-1.08428">
        <ele>43.086589</ele>
        <time>2022-12-22T16:37:50.601Z</time>
      </trkpt>
      <trkpt lat="45.50375" lon="-1.0842">
        <ele>43.083821</ele>
        <time>2022-12-22T16:37:53.601Z</time>
      </trkpt>
      <trkpt lat="45.50363" lon="-1.08412">
        <ele>43.081021</ele>
        <time>2022-12-22T16:37:56.602Z</time>
      </trkpt>
      <trkpt lat="45.50351" lon="-1.08403">
        <ele>43.078143</ele>
        <time>2022-12-22T16:37:59.603Z</time>
      </trkpt>
      <trkpt lat="45.5034" lon="-1.08394">
        <ele>43.075213</ele>
        <time>2022-12-22T16:38:02.606Z</time>
      </trkpt>
      <trkpt lat="45.50328" lon="-1.08386">
        <ele>43.072354</ele>
        <time>2022-12-22T16:38:05.605Z</time>
      </trkpt>
      <trkpt lat="45.5032" lon="-1.0838">
        <ele>43.070331</ele>
        <time>2022-12-22T16:38:07.612Z</time>
      </trkpt>
      <trkpt lat="45.50311" lon="-1.08373">
        <ele>43.068245</ele>
        <time>2022-12-22T16:38:09.589Z</time>
      </trkpt>
      <trkpt lat="45.50303" lon="-1.08367">
        <ele>43.06619</ele>
        <time>2022-12-22T16:38:11.591Z</time>
      </trkpt>
      <trkpt lat="45.50295" lon="-1.0836">
        <ele>43.064091</ele>
        <time>2022-12-22T16:38:13.604Z</time>
      </trkpt>
      <trkpt lat="45.50286" lon="-1.08354">
        <ele>43.061951</ele>
        <time>2022-12-22T16:38:15.601Z</time>
      </trkpt>
      <trkpt lat="45.50278" lon="-1.08347">
        <ele>43.059918</ele>
        <time>2022-12-22T16:38:17.593Z</time>
      </trkpt>
      <trkpt lat="45.5027" lon="-1.0834">
        <ele>43.057803</ele>
        <time>2022-12-22T16:38:19.595Z</time>
      </trkpt>
      <trkpt lat="45.50262" lon="-1.08331">
        <ele>43.055602</ele>
        <time>2022-12-22T16:38:21.595Z</time>
      </trkpt>
      <trkpt lat="45.50254" lon="-1.08322">
        <ele>43.053468</ele>
        <time>2022-12-22T16:38:23.596Z</time>
      </trkpt>
      <trkpt lat="45.50247" lon="-1.08313">
        <ele>43.051386</ele>
        <time>2022-12-22T16:38:25.603Z</time>
      </trkpt>
      <trkpt lat="45.50241" lon="-1.08304">
        <ele>43.069595</ele>
        <time>2022-12-22T16:38:27.613Z</time>
      </trkpt>
      <trkpt lat="45.50232" lon="-1.0829">
        <ele>43.100978</ele>
        <time>2022-12-22T16:38:30.592Z</time>
      </trkpt>
      <trkpt lat="45.50223" lon="-1.08279">
        <ele>43.130253</ele>
        <time>2022-12-22T16:38:33.606Z</time>
      </trkpt>
      <trkpt lat="45.50214" lon="-1.08266">
        <ele>43.160403</ele>
        <time>2022-12-22T16:38:36.601Z</time>
      </trkpt>
      <trkpt lat="45.50204" lon="-1.08254">
        <ele>43.192483</ele>
        <time>2022-12-22T16:38:39.616Z</time>
      </trkpt>
      <trkpt lat="45.50197" lon="-1.08245">
        <ele>43.214294</ele>
        <time>2022-12-22T16:38:41.604Z</time>
      </trkpt>
      <trkpt lat="45.50191" lon="-1.08236">
        <ele>43.236455</ele>
        <time>2022-12-22T16:38:43.602Z</time>
      </trkpt>
      <trkpt lat="45.50184" lon="-1.08227">
        <ele>43.258498</ele>
        <time>2022-12-22T16:38:45.609Z</time>
      </trkpt>
      <trkpt lat="45.50175" lon="-1.08213">
        <ele>43.291186</ele>
        <time>2022-12-22T16:38:48.613Z</time>
      </trkpt>
      <trkpt lat="45.50168" lon="-1.08204">
        <ele>43.313122</ele>
        <time>2022-12-22T16:38:50.617Z</time>
      </trkpt>
      <trkpt lat="45.50159" lon="-1.08191">
        <ele>43.344731</ele>
        <time>2022-12-22T16:38:53.601Z</time>
      </trkpt>
      <trkpt lat="45.50151" lon="-1.0818">
        <ele>43.371561</ele>
        <time>2022-12-22T16:38:56.621Z</time>
      </trkpt>
      <trkpt lat="45.50142" lon="-1.08168">
        <ele>43.400079</ele>
        <time>2022-12-22T16:38:59.622Z</time>
      </trkpt>
      <trkpt lat="45.50133" lon="-1.08156">
        <ele>43.430115</ele>
        <time>2022-12-22T16:39:02.595Z</time>
      </trkpt>
      <trkpt lat="45.50124" lon="-1.08143">
        <ele>43.461448</ele>
        <time>2022-12-22T16:39:05.589Z</time>
      </trkpt>
      <trkpt lat="45.50115" lon="-1.0813">
        <ele>43.478865</ele>
        <time>2022-12-22T16:39:08.600Z</time>
      </trkpt>
      <trkpt lat="45.50106" lon="-1.08117">
        <ele>43.451436</ele>
        <time>2022-12-22T16:39:11.601Z</time>
      </trkpt>
      <trkpt lat="45.50099" lon="-1.08108">
        <ele>43.432191</ele>
        <time>2022-12-22T16:39:13.624Z</time>
      </trkpt>
      <trkpt lat="45.50089" lon="-1.08095">
        <ele>43.404669</ele>
        <time>2022-12-22T16:39:16.605Z</time>
      </trkpt>
      <trkpt lat="45.50081" lon="-1.08084">
        <ele>43.379682</ele>
        <time>2022-12-22T16:39:19.591Z</time>
      </trkpt>
      <trkpt lat="45.50073" lon="-1.08072">
        <ele>43.356141</ele>
        <time>2022-12-22T16:39:22.618Z</time>
      </trkpt>
      <trkpt lat="45.50064" lon="-1.0806">
        <ele>43.330243</ele>
        <time>2022-12-22T16:39:25.624Z</time>
      </trkpt>
      <trkpt lat="45.50055" lon="-1.08048">
        <ele>43.303585</ele>
        <time>2022-12-22T16:39:28.611Z</time>
      </trkpt>
      <trkpt lat="45.50046" lon="-1.08034">
        <ele>43.276779</ele>
        <time>2022-12-22T16:39:31.598Z</time>
      </trkpt>
      <trkpt lat="45.50039" lon="-1.08025">
        <ele>43.257534</ele>
        <time>2022-12-22T16:39:33.626Z</time>
      </trkpt>
      <trkpt lat="45.50033" lon="-1.08016">
        <ele>43.238225</ele>
        <time>2022-12-22T16:39:35.608Z</time>
      </trkpt>
      <trkpt lat="45.50027" lon="-1.08007">
        <ele>43.218915</ele>
        <time>2022-12-22T16:39:37.608Z</time>
      </trkpt>
      <trkpt lat="45.5002" lon="-1.07998">
        <ele>43.199106</ele>
        <time>2022-12-22T16:39:39.615Z</time>
      </trkpt>
      <trkpt lat="45.50013" lon="-1.07988">
        <ele>43.180007</ele>
        <time>2022-12-22T16:39:41.603Z</time>
      </trkpt>
      <trkpt lat="45.50006" lon="-1.07979">
        <ele>43.159645</ele>
        <time>2022-12-22T16:39:43.608Z</time>
      </trkpt>
      <trkpt lat="45.49995" lon="-1.07966">
        <ele>43.130163</ele>
        <time>2022-12-22T16:39:46.594Z</time>
      </trkpt>
      <trkpt lat="45.49986" lon="-1.07952">
        <ele>43.126148</ele>
        <time>2022-12-22T16:39:49.623Z</time>
      </trkpt>
      <trkpt lat="45.4998" lon="-1.07942">
        <ele>43.194176</ele>
        <time>2022-12-22T16:39:51.622Z</time>
      </trkpt>
      <trkpt lat="45.49973" lon="-1.07933">
        <ele>43.261365</ele>
        <time>2022-12-22T16:39:53.600Z</time>
      </trkpt>
      <trkpt lat="45.49967" lon="-1.07924">
        <ele>43.327298</ele>
        <time>2022-12-22T16:39:55.618Z</time>
      </trkpt>
      <trkpt lat="45.4996" lon="-1.07915">
        <ele>43.394289</ele>
        <time>2022-12-22T16:39:57.622Z</time>
      </trkpt>
      <trkpt lat="45.4995" lon="-1.07903">
        <ele>43.490035</ele>
        <time>2022-12-22T16:40:00.608Z</time>
      </trkpt>
      <trkpt lat="45.49941" lon="-1.07889">
        <ele>43.586843</ele>
        <time>2022-12-22T16:40:03.603Z</time>
      </trkpt>
      <trkpt lat="45.49934" lon="-1.0788">
        <ele>43.654195</ele>
        <time>2022-12-22T16:40:05.622Z</time>
      </trkpt>
      <trkpt lat="45.49928" lon="-1.07871">
        <ele>43.719598</ele>
        <time>2022-12-22T16:40:07.626Z</time>
      </trkpt>
      <trkpt lat="45.49921" lon="-1.07862">
        <ele>43.788528</ele>
        <time>2022-12-22T16:40:09.624Z</time>
      </trkpt>
      <trkpt lat="45.49914" lon="-1.07853">
        <ele>43.8564</ele>
        <time>2022-12-22T16:40:11.594Z</time>
      </trkpt>
      <trkpt lat="45.49908" lon="-1.07843">
        <ele>43.923076</ele>
        <time>2022-12-22T16:40:13.620Z</time>
      </trkpt>
      <trkpt lat="45.49901" lon="-1.07835">
        <ele>43.989948</ele>
        <time>2022-12-22T16:40:15.613Z</time>
      </trkpt>
      <trkpt lat="45.49894" lon="-1.07825">
        <ele>44.060463</ele>
        <time>2022-12-22T16:40:17.614Z</time>
      </trkpt>
      <trkpt lat="45.49887" lon="-1.07817">
        <ele>44.127071</ele>
        <time>2022-12-22T16:40:19.602Z</time>
      </trkpt>
      <trkpt lat="45.49879" lon="-1.07809">
        <ele>44.197486</ele>
        <time>2022-12-22T16:40:21.599Z</time>
      </trkpt>
      <trkpt lat="45.49872" lon="-1.07802">
        <ele>44.263151</ele>
        <time>2022-12-22T16:40:23.593Z</time>
      </trkpt>
      <trkpt lat="45.49864" lon="-1.07794">
        <ele>44.331519</ele>
        <time>2022-12-22T16:40:25.610Z</time>
      </trkpt>
      <trkpt lat="45.49856" lon="-1.07786">
        <ele>44.401345</ele>
        <time>2022-12-22T16:40:27.601Z</time>
      </trkpt>
      <trkpt lat="45.49848" lon="-1.07779">
        <ele>44.411591</ele>
        <time>2022-12-22T16:40:29.597Z</time>
      </trkpt>
      <trkpt lat="45.49837" lon="-1.0777">
        <ele>44.395789</ele>
        <time>2022-12-22T16:40:32.617Z</time>
      </trkpt>
      <trkpt lat="45.49829" lon="-1.07763">
        <ele>44.384486</ele>
        <time>2022-12-22T16:40:34.625Z</time>
      </trkpt>
      <trkpt lat="45.49817" lon="-1.07755">
        <ele>44.368199</ele>
        <time>2022-12-22T16:40:37.601Z</time>
      </trkpt>
      <trkpt lat="45.49806" lon="-1.07746">
        <ele>44.352122</ele>
        <time>2022-12-22T16:40:40.606Z</time>
      </trkpt>
      <trkpt lat="45.49794" lon="-1.07738">
        <ele>44.335835</ele>
        <time>2022-12-22T16:40:43.603Z</time>
      </trkpt>
      <trkpt lat="45.49782" lon="-1.0773">
        <ele>44.319764</ele>
        <time>2022-12-22T16:40:46.615Z</time>
      </trkpt>
      <trkpt lat="45.49774" lon="-1.07724">
        <ele>44.308522</ele>
        <time>2022-12-22T16:40:48.601Z</time>
      </trkpt>
      <trkpt lat="45.49766" lon="-1.07718">
        <ele>44.297084</ele>
        <time>2022-12-22T16:40:50.603Z</time>
      </trkpt>
      <trkpt lat="45.49754" lon="-1.0771">
        <ele>44.280713</ele>
        <time>2022-12-22T16:40:53.607Z</time>
      </trkpt>
      <trkpt lat="45.49741" lon="-1.07703">
        <ele>44.264341</ele>
        <time>2022-12-22T16:40:56.597Z</time>
      </trkpt>
      <trkpt lat="45.4973" lon="-1.07695">
        <ele>44.248238</ele>
        <time>2022-12-22T16:40:59.621Z</time>
      </trkpt>
      <trkpt lat="45.49718" lon="-1.07688">
        <ele>44.232726</ele>
        <time>2022-12-22T16:41:02.595Z</time>
      </trkpt>
      <trkpt lat="45.49706" lon="-1.0768">
        <ele>44.216771</ele>
        <time>2022-12-22T16:41:05.631Z</time>
      </trkpt>
      <trkpt lat="45.49695" lon="-1.07671">
        <ele>44.20066</ele>
        <time>2022-12-22T16:41:08.622Z</time>
      </trkpt>
      <trkpt lat="45.49682" lon="-1.07663">
        <ele>44.174737</ele>
        <time>2022-12-22T16:41:11.605Z</time>
      </trkpt>
      <trkpt lat="45.49671" lon="-1.07656">
        <ele>44.148673</ele>
        <time>2022-12-22T16:41:14.597Z</time>
      </trkpt>
      <trkpt lat="45.49658" lon="-1.07647">
        <ele>44.120973</ele>
        <time>2022-12-22T16:41:17.606Z</time>
      </trkpt>
      <trkpt lat="45.4965" lon="-1.07642">
        <ele>44.102236</ele>
        <time>2022-12-22T16:41:19.610Z</time>
      </trkpt>
      <trkpt lat="45.49638" lon="-1.07633">
        <ele>44.075141</ele>
        <time>2022-12-22T16:41:22.596Z</time>
      </trkpt>
      <trkpt lat="45.49625" lon="-1.07625">
        <ele>44.047683</ele>
        <time>2022-12-22T16:41:25.615Z</time>
      </trkpt>
      <trkpt lat="45.49617" lon="-1.07621">
        <ele>44.029297</ele>
        <time>2022-12-22T16:41:27.603Z</time>
      </trkpt>
      <trkpt lat="45.49605" lon="-1.07613">
        <ele>44.002206</ele>
        <time>2022-12-22T16:41:30.598Z</time>
      </trkpt>
      <trkpt lat="45.49592" lon="-1.07605">
        <ele>43.975289</ele>
        <time>2022-12-22T16:41:33.612Z</time>
      </trkpt>
      <trkpt lat="45.49584" lon="-1.076">
        <ele>43.956629</ele>
        <time>2022-12-22T16:41:35.601Z</time>
      </trkpt>
      <trkpt lat="45.49575" lon="-1.07595">
        <ele>43.937705</ele>
        <time>2022-12-22T16:41:37.606Z</time>
      </trkpt>
      <trkpt lat="45.49567" lon="-1.0759">
        <ele>43.918998</ele>
        <time>2022-12-22T16:41:39.622Z</time>
      </trkpt>
      <trkpt lat="45.49558" lon="-1.07584">
        <ele>43.900533</ele>
        <time>2022-12-22T16:41:41.607Z</time>
      </trkpt>
      <trkpt lat="45.4955" lon="-1.07578">
        <ele>43.881461</ele>
        <time>2022-12-22T16:41:43.598Z</time>
      </trkpt>
      <trkpt lat="45.49542" lon="-1.07573">
        <ele>43.863113</ele>
        <time>2022-12-22T16:41:45.599Z</time>
      </trkpt>
      <trkpt lat="45.49533" lon="-1.07567">
        <ele>43.843913</ele>
        <time>2022-12-22T16:41:47.616Z</time>
      </trkpt>
      <trkpt lat="45.49521" lon="-1.0756">
        <ele>43.827901</ele>
        <time>2022-12-22T16:41:50.625Z</time>
      </trkpt>
      <trkpt lat="45.49508" lon="-1.07552">
        <ele>43.817057</ele>
        <time>2022-12-22T16:41:53.623Z</time>
      </trkpt>
      <trkpt lat="45.495" lon="-1.07546">
        <ele>43.809724</ele>
        <time>2022-12-22T16:41:55.630Z</time>
      </trkpt>
      <trkpt lat="45.49491" lon="-1.0754">
        <ele>43.802078</ele>
        <time>2022-12-22T16:41:57.625Z</time>
      </trkpt>
      <trkpt lat="45.4948" lon="-1.07532">
        <ele>43.791523</ele>
        <time>2022-12-22T16:42:00.611Z</time>
      </trkpt>
      <trkpt lat="45.49469" lon="-1.07524">
        <ele>43.781674</ele>
        <time>2022-12-22T16:42:03.625Z</time>
      </trkpt>
      <trkpt lat="45.49457" lon="-1.07518">
        <ele>43.771805</ele>
        <time>2022-12-22T16:42:06.609Z</time>
      </trkpt>
      <trkpt lat="45.49446" lon="-1.0751">
        <ele>43.761834</ele>
        <time>2022-12-22T16:42:09.623Z</time>
      </trkpt>
      <trkpt lat="45.49435" lon="-1.07502">
        <ele>43.752025</ele>
        <time>2022-12-22T16:42:12.603Z</time>
      </trkpt>
      <trkpt lat="45.49424" lon="-1.07496">
        <ele>43.742315</ele>
        <time>2022-12-22T16:42:15.602Z</time>
      </trkpt>
      <trkpt lat="45.49413" lon="-1.07488">
        <ele>43.732175</ele>
        <time>2022-12-22T16:42:18.605Z</time>
      </trkpt>
      <trkpt lat="45.49401" lon="-1.0748">
        <ele>43.72177</ele>
        <time>2022-12-22T16:42:21.610Z</time>
      </trkpt>
      <trkpt lat="45.49389" lon="-1.07472">
        <ele>43.711193</ele>
        <time>2022-12-22T16:42:24.612Z</time>
      </trkpt>
      <trkpt lat="45.49377" lon="-1.07465">
        <ele>43.700963</ele>
        <time>2022-12-22T16:42:27.601Z</time>
      </trkpt>
      <trkpt lat="45.49366" lon="-1.07459">
        <ele>43.691392</ele>
        <time>2022-12-22T16:42:30.606Z</time>
      </trkpt>
      <trkpt lat="45.49355" lon="-1.07451">
        <ele>43.681174</ele>
        <time>2022-12-22T16:42:33.610Z</time>
      </trkpt>
      <trkpt lat="45.49344" lon="-1.07444">
        <ele>43.671031</ele>
        <time>2022-12-22T16:42:36.601Z</time>
      </trkpt>
      <trkpt lat="45.49333" lon="-1.07437">
        <ele>43.660651</ele>
        <time>2022-12-22T16:42:39.608Z</time>
      </trkpt>
      <trkpt lat="45.49322" lon="-1.0743">
        <ele>43.65045</ele>
        <time>2022-12-22T16:42:42.597Z</time>
      </trkpt>
      <trkpt lat="45.49311" lon="-1.07422">
        <ele>43.64037</ele>
        <time>2022-12-22T16:42:45.613Z</time>
      </trkpt>
      <trkpt lat="45.493" lon="-1.07415">
        <ele>43.630075</ele>
        <time>2022-12-22T16:42:48.600Z</time>
      </trkpt>
      <trkpt lat="45.49289" lon="-1.07409">
        <ele>43.619833</ele>
        <time>2022-12-22T16:42:51.610Z</time>
      </trkpt>
      <trkpt lat="45.49278" lon="-1.07403">
        <ele>43.609934</ele>
        <time>2022-12-22T16:42:54.601Z</time>
      </trkpt>
      <trkpt lat="45.49267" lon="-1.07396">
        <ele>43.599689</ele>
        <time>2022-12-22T16:42:57.623Z</time>
      </trkpt>
      <trkpt lat="45.49256" lon="-1.07388">
        <ele>43.589162</ele>
        <time>2022-12-22T16:43:00.610Z</time>
      </trkpt>
      <trkpt lat="45.49244" lon="-1.07381">
        <ele>43.578735</ele>
        <time>2022-12-22T16:43:03.623Z</time>
      </trkpt>
      <trkpt lat="45.49234" lon="-1.07374">
        <ele>43.568616</ele>
        <time>2022-12-22T16:43:06.619Z</time>
      </trkpt>
      <trkpt lat="45.49223" lon="-1.07368">
        <ele>43.558663</ele>
        <time>2022-12-22T16:43:09.624Z</time>
      </trkpt>
      <trkpt lat="45.49213" lon="-1.07362">
        <ele>43.549447</ele>
        <time>2022-12-22T16:43:12.601Z</time>
      </trkpt>
      <trkpt lat="45.49203" lon="-1.07356">
        <ele>43.540899</ele>
        <time>2022-12-22T16:43:15.597Z</time>
      </trkpt>
      <trkpt lat="45.49194" lon="-1.0735">
        <ele>43.520372</ele>
        <time>2022-12-22T16:43:18.604Z</time>
      </trkpt>
      <trkpt lat="45.49184" lon="-1.07343">
        <ele>43.495989</ele>
        <time>2022-12-22T16:43:21.623Z</time>
      </trkpt>
      <trkpt lat="45.49174" lon="-1.07337">
        <ele>43.469963</ele>
        <time>2022-12-22T16:43:24.619Z</time>
      </trkpt>
      <trkpt lat="45.49163" lon="-1.0733">
        <ele>43.442956</ele>
        <time>2022-12-22T16:43:27.599Z</time>
      </trkpt>
      <trkpt lat="45.49151" lon="-1.07324">
        <ele>43.414839</ele>
        <time>2022-12-22T16:43:30.622Z</time>
      </trkpt>
      <trkpt lat="45.4914" lon="-1.07317">
        <ele>43.386953</ele>
        <time>2022-12-22T16:43:33.597Z</time>
      </trkpt>
      <trkpt lat="45.49129" lon="-1.07312">
        <ele>43.361951</ele>
        <time>2022-12-22T16:43:36.623Z</time>
      </trkpt>
      <trkpt lat="45.49119" lon="-1.07304">
        <ele>43.335792</ele>
        <time>2022-12-22T16:43:39.600Z</time>
      </trkpt>
      <trkpt lat="45.49108" lon="-1.07297">
        <ele>43.308678</ele>
        <time>2022-12-22T16:43:42.595Z</time>
      </trkpt>
      <trkpt lat="45.49097" lon="-1.0729">
        <ele>43.28068</ele>
        <time>2022-12-22T16:43:45.596Z</time>
      </trkpt>
      <trkpt lat="45.49086" lon="-1.07283">
        <ele>43.253695</ele>
        <time>2022-12-22T16:43:48.595Z</time>
      </trkpt>
      <trkpt lat="45.49076" lon="-1.07277">
        <ele>43.228847</ele>
        <time>2022-12-22T16:43:51.595Z</time>
      </trkpt>
      <trkpt lat="45.49065" lon="-1.07271">
        <ele>43.202861</ele>
        <time>2022-12-22T16:43:54.592Z</time>
      </trkpt>
      <trkpt lat="45.49054" lon="-1.07265">
        <ele>43.175104</ele>
        <time>2022-12-22T16:43:57.611Z</time>
      </trkpt>
      <trkpt lat="45.49042" lon="-1.07258">
        <ele>43.146866</ele>
        <time>2022-12-22T16:44:00.596Z</time>
      </trkpt>
      <trkpt lat="45.4903" lon="-1.07251">
        <ele>43.141716</ele>
        <time>2022-12-22T16:44:03.619Z</time>
      </trkpt>
      <trkpt lat="45.49018" lon="-1.07243">
        <ele>43.166377</ele>
        <time>2022-12-22T16:44:06.618Z</time>
      </trkpt>
      <trkpt lat="45.49006" lon="-1.07236">
        <ele>43.191783</ele>
        <time>2022-12-22T16:44:09.620Z</time>
      </trkpt>
      <trkpt lat="45.48998" lon="-1.0723">
        <ele>43.208699</ele>
        <time>2022-12-22T16:44:11.598Z</time>
      </trkpt>
      <trkpt lat="45.48986" lon="-1.07224">
        <ele>43.232322</ele>
        <time>2022-12-22T16:44:14.598Z</time>
      </trkpt>
      <trkpt lat="45.48975" lon="-1.07217">
        <ele>43.254219</ele>
        <time>2022-12-22T16:44:17.615Z</time>
      </trkpt>
      <trkpt lat="45.48965" lon="-1.07211">
        <ele>43.274757</ele>
        <time>2022-12-22T16:44:20.607Z</time>
      </trkpt>
      <trkpt lat="45.48954" lon="-1.07205">
        <ele>43.296286</ele>
        <time>2022-12-22T16:44:23.616Z</time>
      </trkpt>
      <trkpt lat="45.48943" lon="-1.07198">
        <ele>43.318605</ele>
        <time>2022-12-22T16:44:26.612Z</time>
      </trkpt>
      <trkpt lat="45.48932" lon="-1.07191">
        <ele>43.342006</ele>
        <time>2022-12-22T16:44:29.621Z</time>
      </trkpt>
      <trkpt lat="45.4892" lon="-1.07184">
        <ele>43.365547</ele>
        <time>2022-12-22T16:44:32.605Z</time>
      </trkpt>
      <trkpt lat="45.48908" lon="-1.07177">
        <ele>43.389198</ele>
        <time>2022-12-22T16:44:35.601Z</time>
      </trkpt>
      <trkpt lat="45.48897" lon="-1.0717">
        <ele>43.412734</ele>
        <time>2022-12-22T16:44:38.604Z</time>
      </trkpt>
      <trkpt lat="45.48886" lon="-1.07163">
        <ele>43.434144</ele>
        <time>2022-12-22T16:44:41.602Z</time>
      </trkpt>
      <trkpt lat="45.48876" lon="-1.07158">
        <ele>43.454312</ele>
        <time>2022-12-22T16:44:44.602Z</time>
      </trkpt>
      <trkpt lat="45.48866" lon="-1.07151">
        <ele>43.490646</ele>
        <time>2022-12-22T16:44:47.622Z</time>
      </trkpt>
      <trkpt lat="45.48855" lon="-1.07144">
        <ele>43.549048</ele>
        <time>2022-12-22T16:44:50.605Z</time>
      </trkpt>
      <trkpt lat="45.48843" lon="-1.07138">
        <ele>43.611118</ele>
        <time>2022-12-22T16:44:53.604Z</time>
      </trkpt>
      <trkpt lat="45.48831" lon="-1.07131">
        <ele>43.674757</ele>
        <time>2022-12-22T16:44:56.598Z</time>
      </trkpt>
      <trkpt lat="45.48819" lon="-1.07124">
        <ele>43.738075</ele>
        <time>2022-12-22T16:44:59.620Z</time>
      </trkpt>
      <trkpt lat="45.48808" lon="-1.07117">
        <ele>43.80035</ele>
        <time>2022-12-22T16:45:02.606Z</time>
      </trkpt>
      <trkpt lat="45.48795" lon="-1.07112">
        <ele>43.865121</ele>
        <time>2022-12-22T16:45:05.601Z</time>
      </trkpt>
      <trkpt lat="45.48782" lon="-1.07107">
        <ele>43.930368</ele>
        <time>2022-12-22T16:45:08.621Z</time>
      </trkpt>
      <trkpt lat="45.48773" lon="-1.07103">
        <ele>43.976988</ele>
        <time>2022-12-22T16:45:10.601Z</time>
      </trkpt>
      <trkpt lat="45.48761" lon="-1.071">
        <ele>44.039027</ele>
        <time>2022-12-22T16:45:13.624Z</time>
      </trkpt>
      <trkpt lat="45.48749" lon="-1.07096">
        <ele>44.100432</ele>
        <time>2022-12-22T16:45:16.620Z</time>
      </trkpt>
      <trkpt lat="45.48736" lon="-1.07092">
        <ele>44.164663</ele>
        <time>2022-12-22T16:45:19.596Z</time>
      </trkpt>
      <trkpt lat="45.48727" lon="-1.0709">
        <ele>44.210103</ele>
        <time>2022-12-22T16:45:21.623Z</time>
      </trkpt>
      <trkpt lat="45.48715" lon="-1.07087">
        <ele>44.270886</ele>
        <time>2022-12-22T16:45:24.594Z</time>
      </trkpt>
      <trkpt lat="45.48704" lon="-1.07083">
        <ele>44.32582</ele>
        <time>2022-12-22T16:45:27.622Z</time>
      </trkpt>
      <trkpt lat="45.48693" lon="-1.07079">
        <ele>44.344201</ele>
        <time>2022-12-22T16:45:30.622Z</time>
      </trkpt>
      <trkpt lat="45.48682" lon="-1.07075">
        <ele>44.328472</ele>
        <time>2022-12-22T16:45:33.603Z</time>
      </trkpt>
      <trkpt lat="45.48671" lon="-1.0707">
        <ele>44.312449</ele>
        <time>2022-12-22T16:45:36.597Z</time>
      </trkpt>
      <trkpt lat="45.48659" lon="-1.07065">
        <ele>44.296416</ele>
        <time>2022-12-22T16:45:39.599Z</time>
      </trkpt>
      <trkpt lat="45.48648" lon="-1.07061">
        <ele>44.279845</ele>
        <time>2022-12-22T16:45:42.600Z</time>
      </trkpt>
      <trkpt lat="45.48636" lon="-1.07055">
        <ele>44.263148</ele>
        <time>2022-12-22T16:45:45.599Z</time>
      </trkpt>
      <trkpt lat="45.48624" lon="-1.07049">
        <ele>44.246065</ele>
        <time>2022-12-22T16:45:48.599Z</time>
      </trkpt>
      <trkpt lat="45.48612" lon="-1.07043">
        <ele>44.228724</ele>
        <time>2022-12-22T16:45:51.621Z</time>
      </trkpt>
      <trkpt lat="45.486" lon="-1.07036">
        <ele>44.211064</ele>
        <time>2022-12-22T16:45:54.604Z</time>
      </trkpt>
      <trkpt lat="45.48589" lon="-1.07027">
        <ele>44.193501</ele>
        <time>2022-12-22T16:45:57.610Z</time>
      </trkpt>
      <trkpt lat="45.48578" lon="-1.07019">
        <ele>44.175733</ele>
        <time>2022-12-22T16:46:00.596Z</time>
      </trkpt>
      <trkpt lat="45.48566" lon="-1.07011">
        <ele>44.15854</ele>
        <time>2022-12-22T16:46:03.601Z</time>
      </trkpt>
      <trkpt lat="45.48556" lon="-1.07003">
        <ele>44.142366</ele>
        <time>2022-12-22T16:46:06.587Z</time>
      </trkpt>
      <trkpt lat="45.48545" lon="-1.06996">
        <ele>44.125627</ele>
        <time>2022-12-22T16:46:09.602Z</time>
      </trkpt>
      <trkpt lat="45.48534" lon="-1.06987">
        <ele>44.108728</ele>
        <time>2022-12-22T16:46:12.621Z</time>
      </trkpt>
      <trkpt lat="45.48523" lon="-1.06979">
        <ele>44.079764</ele>
        <time>2022-12-22T16:46:15.595Z</time>
      </trkpt>
      <trkpt lat="45.48511" lon="-1.0697">
        <ele>44.047811</ele>
        <time>2022-12-22T16:46:18.591Z</time>
      </trkpt>
      <trkpt lat="45.485" lon="-1.06962">
        <ele>44.015387</ele>
        <time>2022-12-22T16:46:21.597Z</time>
      </trkpt>
      <trkpt lat="45.48488" lon="-1.06953">
        <ele>43.982016</ele>
        <time>2022-12-22T16:46:24.598Z</time>
      </trkpt>
      <trkpt lat="45.48475" lon="-1.06945">
        <ele>43.948539</ele>
        <time>2022-12-22T16:46:27.600Z</time>
      </trkpt>
      <trkpt lat="45.48464" lon="-1.06936">
        <ele>43.915551</ele>
        <time>2022-12-22T16:46:30.601Z</time>
      </trkpt>
      <trkpt lat="45.48453" lon="-1.06927">
        <ele>43.884665</ele>
        <time>2022-12-22T16:46:33.601Z</time>
      </trkpt>
      <trkpt lat="45.48443" lon="-1.0692">
        <ele>43.857897</ele>
        <time>2022-12-22T16:46:36.596Z</time>
      </trkpt>
      <trkpt lat="45.48435" lon="-1.06914">
        <ele>43.834421</ele>
        <time>2022-12-22T16:46:39.602Z</time>
      </trkpt>
      <trkpt lat="45.48424" lon="-1.06906">
        <ele>43.804621</ele>
        <time>2022-12-22T16:46:43.609Z</time>
      </trkpt>
      <trkpt lat="45.48415" lon="-1.06899">
        <ele>43.778427</ele>
        <time>2022-12-22T16:46:46.599Z</time>
      </trkpt>
      <trkpt lat="45.48405" lon="-1.06891">
        <ele>43.75076</ele>
        <time>2022-12-22T16:46:49.600Z</time>
      </trkpt>
      <trkpt lat="45.48395" lon="-1.06883">
        <ele>43.721593</ele>
        <time>2022-12-22T16:46:52.596Z</time>
      </trkpt>
      <trkpt lat="45.48384" lon="-1.06876">
        <ele>43.692945</ele>
        <time>2022-12-22T16:46:55.597Z</time>
      </trkpt>
      <trkpt lat="45.48374" lon="-1.06868">
        <ele>43.664431</ele>
        <time>2022-12-22T16:46:58.601Z</time>
      </trkpt>
      <trkpt lat="45.48364" lon="-1.0686">
        <ele>43.727341</ele>
        <time>2022-12-22T16:47:01.603Z</time>
      </trkpt>
      <trkpt lat="45.48353" lon="-1.06852">
        <ele>43.803934</ele>
        <time>2022-12-22T16:47:04.596Z</time>
      </trkpt>
      <trkpt lat="45.48342" lon="-1.06844">
        <ele>43.88483</ele>
        <time>2022-12-22T16:47:07.599Z</time>
      </trkpt>
      <trkpt lat="45.48331" lon="-1.06837">
        <ele>43.959053</ele>
        <time>2022-12-22T16:47:10.599Z</time>
      </trkpt>
      <trkpt lat="45.4832" lon="-1.06829">
        <ele>44.038614</ele>
        <time>2022-12-22T16:47:13.610Z</time>
      </trkpt>
      <trkpt lat="45.48309" lon="-1.06819">
        <ele>44.123025</ele>
        <time>2022-12-22T16:47:16.618Z</time>
      </trkpt>
      <trkpt lat="45.48301" lon="-1.06812">
        <ele>44.180315</ele>
        <time>2022-12-22T16:47:18.605Z</time>
      </trkpt>
      <trkpt lat="45.48293" lon="-1.06805">
        <ele>44.240638</ele>
        <time>2022-12-22T16:47:20.598Z</time>
      </trkpt>
      <trkpt lat="45.48285" lon="-1.06797">
        <ele>44.300709</ele>
        <time>2022-12-22T16:47:22.617Z</time>
      </trkpt>
      <trkpt lat="45.48278" lon="-1.06788">
        <ele>44.362606</ele>
        <time>2022-12-22T16:47:24.603Z</time>
      </trkpt>
      <trkpt lat="45.4827" lon="-1.06779">
        <ele>44.424089</ele>
        <time>2022-12-22T16:47:26.608Z</time>
      </trkpt>
      <trkpt lat="45.48261" lon="-1.06767">
        <ele>44.505647</ele>
        <time>2022-12-22T16:47:29.602Z</time>
      </trkpt>
      <trkpt lat="45.48252" lon="-1.06755">
        <ele>44.580678</ele>
        <time>2022-12-22T16:47:32.602Z</time>
      </trkpt>
      <trkpt lat="45.48245" lon="-1.06744">
        <ele>44.648888</ele>
        <time>2022-12-22T16:47:35.600Z</time>
      </trkpt>
      <trkpt lat="45.48237" lon="-1.06734">
        <ele>44.719013</ele>
        <time>2022-12-22T16:47:38.613Z</time>
      </trkpt>
      <trkpt lat="45.48229" lon="-1.06722">
        <ele>44.791436</ele>
        <time>2022-12-22T16:47:41.624Z</time>
      </trkpt>
      <trkpt lat="45.4822" lon="-1.0671">
        <ele>44.805665</ele>
        <time>2022-12-22T16:47:44.598Z</time>
      </trkpt>
      <trkpt lat="45.48211" lon="-1.06698">
        <ele>44.808192</ele>
        <time>2022-12-22T16:47:47.601Z</time>
      </trkpt>
      <trkpt lat="45.48201" lon="-1.06685">
        <ele>44.810801</ele>
        <time>2022-12-22T16:47:50.616Z</time>
      </trkpt>
      <trkpt lat="45.48192" lon="-1.06671">
        <ele>44.813479</ele>
        <time>2022-12-22T16:47:53.638Z</time>
      </trkpt>
      <trkpt lat="45.48185" lon="-1.06662">
        <ele>44.815284</ele>
        <time>2022-12-22T16:47:55.607Z</time>
      </trkpt>
      <trkpt lat="45.48178" lon="-1.06654">
        <ele>44.817092</ele>
        <time>2022-12-22T16:47:57.623Z</time>
      </trkpt>
      <trkpt lat="45.48169" lon="-1.06641">
        <ele>44.819596</ele>
        <time>2022-12-22T16:48:00.597Z</time>
      </trkpt>
      <trkpt lat="45.4816" lon="-1.06627">
        <ele>44.822219</ele>
        <time>2022-12-22T16:48:03.603Z</time>
      </trkpt>
      <trkpt lat="45.48151" lon="-1.06614">
        <ele>44.824849</ele>
        <time>2022-12-22T16:48:06.622Z</time>
      </trkpt>
      <trkpt lat="45.48142" lon="-1.06599">
        <ele>44.827494</ele>
        <time>2022-12-22T16:48:09.623Z</time>
      </trkpt>
      <trkpt lat="45.48136" lon="-1.0659">
        <ele>44.829392</ele>
        <time>2022-12-22T16:48:11.607Z</time>
      </trkpt>
      <trkpt lat="45.4813" lon="-1.06579">
        <ele>44.831334</ele>
        <time>2022-12-22T16:48:13.623Z</time>
      </trkpt>
      <trkpt lat="45.48123" lon="-1.0657">
        <ele>44.833202</ele>
        <time>2022-12-22T16:48:15.618Z</time>
      </trkpt>
      <trkpt lat="45.48117" lon="-1.0656">
        <ele>44.83499</ele>
        <time>2022-12-22T16:48:17.606Z</time>
      </trkpt>
      <trkpt lat="45.48111" lon="-1.0655">
        <ele>44.836834</ele>
        <time>2022-12-22T16:48:19.602Z</time>
      </trkpt>
      <trkpt lat="45.48105" lon="-1.06539">
        <ele>44.838702</ele>
        <time>2022-12-22T16:48:21.604Z</time>
      </trkpt>
      <trkpt lat="45.48099" lon="-1.06528">
        <ele>44.822776</ele>
        <time>2022-12-22T16:48:23.623Z</time>
      </trkpt>
      <trkpt lat="45.48091" lon="-1.06514">
        <ele>44.788084</ele>
        <time>2022-12-22T16:48:26.623Z</time>
      </trkpt>
      <trkpt lat="45.48083" lon="-1.065">
        <ele>44.755207</ele>
        <time>2022-12-22T16:48:29.608Z</time>
      </trkpt>
      <trkpt lat="45.48076" lon="-1.06486">
        <ele>44.721842</ele>
        <time>2022-12-22T16:48:32.604Z</time>
      </trkpt>
      <trkpt lat="45.48068" lon="-1.06473">
        <ele>44.688184</ele>
        <time>2022-12-22T16:48:35.612Z</time>
      </trkpt>
      <trkpt lat="45.4806" lon="-1.06459">
        <ele>44.654693</ele>
        <time>2022-12-22T16:48:38.624Z</time>
      </trkpt>
      <trkpt lat="45.48052" lon="-1.06445">
        <ele>44.61944</ele>
        <time>2022-12-22T16:48:41.598Z</time>
      </trkpt>
      <trkpt lat="45.48043" lon="-1.0643">
        <ele>44.583218</ele>
        <time>2022-12-22T16:48:44.620Z</time>
      </trkpt>
      <trkpt lat="45.48035" lon="-1.06415">
        <ele>44.547336</ele>
        <time>2022-12-22T16:48:47.607Z</time>
      </trkpt>
      <trkpt lat="45.48026" lon="-1.06401">
        <ele>44.512152</ele>
        <time>2022-12-22T16:48:50.622Z</time>
      </trkpt>
      <trkpt lat="45.48017" lon="-1.06387">
        <ele>44.477781</ele>
        <time>2022-12-22T16:48:53.608Z</time>
      </trkpt>
      <trkpt lat="45.4801" lon="-1.06374">
        <ele>44.446518</ele>
        <time>2022-12-22T16:48:56.629Z</time>
      </trkpt>
      <trkpt lat="45.48002" lon="-1.06363">
        <ele>44.416636</ele>
        <time>2022-12-22T16:48:59.600Z</time>
      </trkpt>
      <trkpt lat="45.47994" lon="-1.06352">
        <ele>44.385991</ele>
        <time>2022-12-22T16:49:02.607Z</time>
      </trkpt>
      <trkpt lat="45.47985" lon="-1.0634">
        <ele>44.348839</ele>
        <time>2022-12-22T16:49:05.625Z</time>
      </trkpt>
      <trkpt lat="45.47975" lon="-1.06328">
        <ele>44.271963</ele>
        <time>2022-12-22T16:49:08.603Z</time>
      </trkpt>
      <trkpt lat="45.47965" lon="-1.06316">
        <ele>44.193</ele>
        <time>2022-12-22T16:49:11.603Z</time>
      </trkpt>
      <trkpt lat="45.47954" lon="-1.06305">
        <ele>44.113045</ele>
        <time>2022-12-22T16:49:14.621Z</time>
      </trkpt>
      <trkpt lat="45.47945" lon="-1.06293">
        <ele>44.035719</ele>
        <time>2022-12-22T16:49:17.591Z</time>
      </trkpt>
      <trkpt lat="45.47936" lon="-1.06282">
        <ele>43.966213</ele>
        <time>2022-12-22T16:49:20.602Z</time>
      </trkpt>
      <trkpt lat="45.47928" lon="-1.06274">
        <ele>43.907999</ele>
        <time>2022-12-22T16:49:23.598Z</time>
      </trkpt>
      <trkpt lat="45.47919" lon="-1.06263">
        <ele>43.834838</ele>
        <time>2022-12-22T16:49:27.601Z</time>
      </trkpt>
      <trkpt lat="45.47911" lon="-1.06253">
        <ele>43.77191</ele>
        <time>2022-12-22T16:49:30.601Z</time>
      </trkpt>
      <trkpt lat="45.47902" lon="-1.06243">
        <ele>43.703663</ele>
        <time>2022-12-22T16:49:33.597Z</time>
      </trkpt>
      <trkpt lat="45.47892" lon="-1.06233">
        <ele>43.633266</ele>
        <time>2022-12-22T16:49:36.614Z</time>
      </trkpt>
      <trkpt lat="45.47883" lon="-1.06222">
        <ele>43.559955</ele>
        <time>2022-12-22T16:49:39.604Z</time>
      </trkpt>
      <trkpt lat="45.47873" lon="-1.0621">
        <ele>43.483909</ele>
        <time>2022-12-22T16:49:42.614Z</time>
      </trkpt>
      <trkpt lat="45.47864" lon="-1.06198">
        <ele>43.40822</ele>
        <time>2022-12-22T16:49:45.591Z</time>
      </trkpt>
      <trkpt lat="45.47855" lon="-1.06188">
        <ele>43.340907</ele>
        <time>2022-12-22T16:49:48.599Z</time>
      </trkpt>
      <trkpt lat="45.47847" lon="-1.06178">
        <ele>43.279428</ele>
        <time>2022-12-22T16:49:51.619Z</time>
      </trkpt>
      <trkpt lat="45.47839" lon="-1.06168">
        <ele>43.261641</ele>
        <time>2022-12-22T16:49:54.602Z</time>
      </trkpt>
      <trkpt lat="45.4783" lon="-1.06158">
        <ele>43.244884</ele>
        <time>2022-12-22T16:49:57.603Z</time>
      </trkpt>
      <trkpt lat="45.47821" lon="-1.06147">
        <ele>43.227172</ele>
        <time>2022-12-22T16:50:00.623Z</time>
      </trkpt>
      <trkpt lat="45.47811" lon="-1.06138">
        <ele>43.209115</ele>
        <time>2022-12-22T16:50:03.604Z</time>
      </trkpt>
      <trkpt lat="45.47799" lon="-1.06129">
        <ele>43.189872</ele>
        <time>2022-12-22T16:50:06.603Z</time>
      </trkpt>
      <trkpt lat="45.47787" lon="-1.06123">
        <ele>43.171378</ele>
        <time>2022-12-22T16:50:09.601Z</time>
      </trkpt>
      <trkpt lat="45.47775" lon="-1.06119">
        <ele>43.153223</ele>
        <time>2022-12-22T16:50:12.598Z</time>
      </trkpt>
      <trkpt lat="45.47762" lon="-1.06117">
        <ele>43.134979</ele>
        <time>2022-12-22T16:50:15.622Z</time>
      </trkpt>
      <trkpt lat="45.47751" lon="-1.06117">
        <ele>43.117579</ele>
        <time>2022-12-22T16:50:18.597Z</time>
      </trkpt>
      <trkpt lat="45.4774" lon="-1.06118">
        <ele>43.102743</ele>
        <time>2022-12-22T16:50:21.602Z</time>
      </trkpt>
      <trkpt lat="45.4773" lon="-1.06123">
        <ele>43.086631</ele>
        <time>2022-12-22T16:50:25.605Z</time>
      </trkpt>
      <trkpt lat="45.47717" lon="-1.06119">
        <ele>43.06725</ele>
        <time>2022-12-22T16:51:57.645Z</time>
      </trkpt>
      <trkpt lat="45.47706" lon="-1.06114">
        <ele>43.051138</ele>
        <time>2022-12-22T16:52:02.605Z</time>
      </trkpt>
      <trkpt lat="45.47698" lon="-1.06111">
        <ele>43.037885</ele>
        <time>2022-12-22T16:52:05.611Z</time>
      </trkpt>
      <trkpt lat="45.47688" lon="-1.06105">
        <ele>43.022817</ele>
        <time>2022-12-22T16:52:08.598Z</time>
      </trkpt>
      <trkpt lat="45.47679" lon="-1.06098">
        <ele>43.011592</ele>
        <time>2022-12-22T16:52:11.609Z</time>
      </trkpt>
      <trkpt lat="45.4767" lon="-1.06089">
        <ele>43.006288</ele>
        <time>2022-12-22T16:52:14.610Z</time>
      </trkpt>
      <trkpt lat="45.47661" lon="-1.0608">
        <ele>43.000656</ele>
        <time>2022-12-22T16:52:17.604Z</time>
      </trkpt>
      <trkpt lat="45.47652" lon="-1.06069">
        <ele>42.994567</ele>
        <time>2022-12-22T16:52:20.612Z</time>
      </trkpt>
      <trkpt lat="45.47642" lon="-1.06058">
        <ele>42.988517</ele>
        <time>2022-12-22T16:52:23.605Z</time>
      </trkpt>
      <trkpt lat="45.47633" lon="-1.06047">
        <ele>42.982428</ele>
        <time>2022-12-22T16:52:26.623Z</time>
      </trkpt>
      <trkpt lat="45.47623" lon="-1.06036">
        <ele>42.975961</ele>
        <time>2022-12-22T16:52:29.616Z</time>
      </trkpt>
      <trkpt lat="45.47613" lon="-1.06024">
        <ele>42.969421</ele>
        <time>2022-12-22T16:52:32.600Z</time>
      </trkpt>
      <trkpt lat="45.47603" lon="-1.06013">
        <ele>42.963031</ele>
        <time>2022-12-22T16:52:35.600Z</time>
      </trkpt>
      <trkpt lat="45.47593" lon="-1.06003">
        <ele>42.956721</ele>
        <time>2022-12-22T16:52:38.612Z</time>
      </trkpt>
      <trkpt lat="45.47582" lon="-1.05991">
        <ele>42.950264</ele>
        <time>2022-12-22T16:52:41.608Z</time>
      </trkpt>
      <trkpt lat="45.47572" lon="-1.0598">
        <ele>42.943688</ele>
        <time>2022-12-22T16:52:44.618Z</time>
      </trkpt>
      <trkpt lat="45.47562" lon="-1.05968">
        <ele>42.936942</ele>
        <time>2022-12-22T16:52:47.592Z</time>
      </trkpt>
      <trkpt lat="45.47554" lon="-1.0596">
        <ele>42.932148</ele>
        <time>2022-12-22T16:52:49.596Z</time>
      </trkpt>
      <trkpt lat="45.47543" lon="-1.05948">
        <ele>42.925286</ele>
        <time>2022-12-22T16:52:52.603Z</time>
      </trkpt>
      <trkpt lat="45.47536" lon="-1.0594">
        <ele>42.897492</ele>
        <time>2022-12-22T16:52:54.606Z</time>
      </trkpt>
      <trkpt lat="45.47525" lon="-1.05928">
        <ele>42.833239</ele>
        <time>2022-12-22T16:52:57.607Z</time>
      </trkpt>
      <trkpt lat="45.47514" lon="-1.05918">
        <ele>42.769926</ele>
        <time>2022-12-22T16:53:00.622Z</time>
      </trkpt>
      <trkpt lat="45.47503" lon="-1.05907">
        <ele>42.706652</ele>
        <time>2022-12-22T16:53:03.625Z</time>
      </trkpt>
      <trkpt lat="45.47492" lon="-1.05896">
        <ele>42.643551</ele>
        <time>2022-12-22T16:53:06.598Z</time>
      </trkpt>
      <trkpt lat="45.47481" lon="-1.05887">
        <ele>42.581019</ele>
        <time>2022-12-22T16:53:09.591Z</time>
      </trkpt>
      <trkpt lat="45.4747" lon="-1.05877">
        <ele>42.520174</ele>
        <time>2022-12-22T16:53:12.622Z</time>
      </trkpt>
      <trkpt lat="45.47459" lon="-1.05869">
        <ele>42.459427</ele>
        <time>2022-12-22T16:53:15.598Z</time>
      </trkpt>
      <trkpt lat="45.47448" lon="-1.0586">
        <ele>42.399964</ele>
        <time>2022-12-22T16:53:18.617Z</time>
      </trkpt>
      <trkpt lat="45.47437" lon="-1.05851">
        <ele>42.339639</ele>
        <time>2022-12-22T16:53:21.617Z</time>
      </trkpt>
      <trkpt lat="45.47425" lon="-1.05843">
        <ele>42.27689</ele>
        <time>2022-12-22T16:53:24.611Z</time>
      </trkpt>
      <trkpt lat="45.47414" lon="-1.05834">
        <ele>42.214566</ele>
        <time>2022-12-22T16:53:27.607Z</time>
      </trkpt>
      <trkpt lat="45.47403" lon="-1.05827">
        <ele>42.159599</ele>
        <time>2022-12-22T16:53:30.602Z</time>
      </trkpt>
      <trkpt lat="45.47393" lon="-1.05819">
        <ele>42.104939</ele>
        <time>2022-12-22T16:53:33.608Z</time>
      </trkpt>
      <trkpt lat="45.47383" lon="-1.05811">
        <ele>42.142431</ele>
        <time>2022-12-22T16:53:36.605Z</time>
      </trkpt>
      <trkpt lat="45.47372" lon="-1.05802">
        <ele>42.389939</ele>
        <time>2022-12-22T16:53:39.623Z</time>
      </trkpt>
      <trkpt lat="45.47362" lon="-1.05795">
        <ele>42.613399</ele>
        <time>2022-12-22T16:53:42.621Z</time>
      </trkpt>
      <trkpt lat="45.47352" lon="-1.05786">
        <ele>42.860907</ele>
        <time>2022-12-22T16:53:45.593Z</time>
      </trkpt>
      <trkpt lat="45.47341" lon="-1.05777">
        <ele>43.107051</ele>
        <time>2022-12-22T16:53:48.618Z</time>
      </trkpt>
      <trkpt lat="45.4733" lon="-1.05769">
        <ele>43.358497</ele>
        <time>2022-12-22T16:53:51.617Z</time>
      </trkpt>
      <trkpt lat="45.47319" lon="-1.05762">
        <ele>43.599535</ele>
        <time>2022-12-22T16:53:54.595Z</time>
      </trkpt>
      <trkpt lat="45.47309" lon="-1.05754">
        <ele>43.835672</ele>
        <time>2022-12-22T16:53:57.601Z</time>
      </trkpt>
      <trkpt lat="45.47299" lon="-1.05745">
        <ele>44.067343</ele>
        <time>2022-12-22T16:54:00.607Z</time>
      </trkpt>
      <trkpt lat="45.4729" lon="-1.05738">
        <ele>44.281696</ele>
        <time>2022-12-22T16:54:03.604Z</time>
      </trkpt>
      <trkpt lat="45.4728" lon="-1.05732">
        <ele>44.489227</ele>
        <time>2022-12-22T16:54:06.606Z</time>
      </trkpt>
      <trkpt lat="45.47272" lon="-1.05724">
        <ele>44.69024</ele>
        <time>2022-12-22T16:54:09.620Z</time>
      </trkpt>
      <trkpt lat="45.47264" lon="-1.05712">
        <ele>44.916155</ele>
        <time>2022-12-22T16:54:12.600Z</time>
      </trkpt>
      <trkpt lat="45.47256" lon="-1.05702">
        <ele>45.142576</ele>
        <time>2022-12-22T16:54:15.607Z</time>
      </trkpt>
      <trkpt lat="45.47247" lon="-1.05691">
        <ele>45.379154</ele>
        <time>2022-12-22T16:54:18.606Z</time>
      </trkpt>
      <trkpt lat="45.47238" lon="-1.05681">
        <ele>45.609243</ele>
        <time>2022-12-22T16:54:21.606Z</time>
      </trkpt>
      <trkpt lat="45.47228" lon="-1.05672">
        <ele>45.727105</ele>
        <time>2022-12-22T16:54:24.600Z</time>
      </trkpt>
      <trkpt lat="45.47219" lon="-1.05663">
        <ele>45.784221</ele>
        <time>2022-12-22T16:54:27.620Z</time>
      </trkpt>
      <trkpt lat="45.47208" lon="-1.05653">
        <ele>45.846311</ele>
        <time>2022-12-22T16:54:30.592Z</time>
      </trkpt>
      <trkpt lat="45.47197" lon="-1.05644">
        <ele>45.909845</ele>
        <time>2022-12-22T16:54:33.596Z</time>
      </trkpt>
      <trkpt lat="45.47186" lon="-1.05634">
        <ele>45.971229</ele>
        <time>2022-12-22T16:54:36.615Z</time>
      </trkpt>
      <trkpt lat="45.47176" lon="-1.05626">
        <ele>46.030144</ele>
        <time>2022-12-22T16:54:39.605Z</time>
      </trkpt>
      <trkpt lat="45.47165" lon="-1.05616">
        <ele>46.092917</ele>
        <time>2022-12-22T16:54:42.601Z</time>
      </trkpt>
      <trkpt lat="45.47155" lon="-1.05606">
        <ele>46.154841</ele>
        <time>2022-12-22T16:54:45.614Z</time>
      </trkpt>
      <trkpt lat="45.47144" lon="-1.05595">
        <ele>46.218355</ele>
        <time>2022-12-22T16:54:48.596Z</time>
      </trkpt>
      <trkpt lat="45.47134" lon="-1.05584">
        <ele>46.279665</ele>
        <time>2022-12-22T16:54:51.612Z</time>
      </trkpt>
      <trkpt lat="45.47124" lon="-1.05574">
        <ele>46.339973</ele>
        <time>2022-12-22T16:54:54.621Z</time>
      </trkpt>
      <trkpt lat="45.47115" lon="-1.05565">
        <ele>46.394871</ele>
        <time>2022-12-22T16:54:57.621Z</time>
      </trkpt>
      <trkpt lat="45.47107" lon="-1.05558">
        <ele>46.442629</ele>
        <time>2022-12-22T16:55:00.623Z</time>
      </trkpt>
      <trkpt lat="45.47099" lon="-1.05552">
        <ele>46.487872</ele>
        <time>2022-12-22T16:55:03.608Z</time>
      </trkpt>
      <trkpt lat="45.47086" lon="-1.05538">
        <ele>46.565461</ele>
        <time>2022-12-22T16:56:18.636Z</time>
      </trkpt>
      <trkpt lat="45.47079" lon="-1.05529">
        <ele>46.581316</ele>
        <time>2022-12-22T16:56:21.620Z</time>
      </trkpt>
      <trkpt lat="45.47071" lon="-1.05518">
        <ele>46.589154</ele>
        <time>2022-12-22T16:56:24.620Z</time>
      </trkpt>
      <trkpt lat="45.47062" lon="-1.05506">
        <ele>46.597745</ele>
        <time>2022-12-22T16:56:27.621Z</time>
      </trkpt>
      <trkpt lat="45.47053" lon="-1.05494">
        <ele>46.606883</ele>
        <time>2022-12-22T16:56:30.601Z</time>
      </trkpt>
      <trkpt lat="45.47045" lon="-1.05483">
        <ele>46.614843</ele>
        <time>2022-12-22T16:56:33.617Z</time>
      </trkpt>
      <trkpt lat="45.47038" lon="-1.05474">
        <ele>46.622178</ele>
        <time>2022-12-22T16:56:36.601Z</time>
      </trkpt>
      <trkpt lat="45.4703" lon="-1.05463">
        <ele>46.630314</ele>
        <time>2022-12-22T16:56:39.588Z</time>
      </trkpt>
      <trkpt lat="45.47021" lon="-1.05451">
        <ele>46.63887</ele>
        <time>2022-12-22T16:56:42.600Z</time>
      </trkpt>
      <trkpt lat="45.47011" lon="-1.05439">
        <ele>46.648271</ele>
        <time>2022-12-22T16:56:45.603Z</time>
      </trkpt>
      <trkpt lat="45.47003" lon="-1.05431">
        <ele>46.655219</ele>
        <time>2022-12-22T16:56:47.622Z</time>
      </trkpt>
      <trkpt lat="45.46994" lon="-1.0542">
        <ele>46.664319</ele>
        <time>2022-12-22T16:56:50.613Z</time>
      </trkpt>
      <trkpt lat="45.46986" lon="-1.05412">
        <ele>46.671204</ele>
        <time>2022-12-22T16:56:52.630Z</time>
      </trkpt>
      <trkpt lat="45.46978" lon="-1.05405">
        <ele>46.677831</ele>
        <time>2022-12-22T16:56:54.594Z</time>
      </trkpt>
      <trkpt lat="45.46969" lon="-1.05399">
        <ele>46.685459</ele>
        <time>2022-12-22T16:56:56.600Z</time>
      </trkpt>
      <trkpt lat="45.4696" lon="-1.05394">
        <ele>46.692574</ele>
        <time>2022-12-22T16:56:58.622Z</time>
      </trkpt>
      <trkpt lat="45.46951" lon="-1.05389">
        <ele>46.699427</ele>
        <time>2022-12-22T16:57:00.624Z</time>
      </trkpt>
      <trkpt lat="45.46943" lon="-1.05383">
        <ele>46.706005</ele>
        <time>2022-12-22T16:57:02.620Z</time>
      </trkpt>
      <trkpt lat="45.46934" lon="-1.05377">
        <ele>46.781494</ele>
        <time>2022-12-22T16:57:04.601Z</time>
      </trkpt>
      <trkpt lat="45.46922" lon="-1.05369">
        <ele>46.880884</ele>
        <time>2022-12-22T16:57:07.600Z</time>
      </trkpt>
      <trkpt lat="45.46913" lon="-1.05363">
        <ele>46.950796</ele>
        <time>2022-12-22T16:57:09.599Z</time>
      </trkpt>
      <trkpt lat="45.46901" lon="-1.05356">
        <ele>47.049114</ele>
        <time>2022-12-22T16:57:12.621Z</time>
      </trkpt>
      <trkpt lat="45.4689" lon="-1.05348">
        <ele>47.144402</ele>
        <time>2022-12-22T16:57:15.621Z</time>
      </trkpt>
      <trkpt lat="45.46879" lon="-1.0534">
        <ele>47.237657</ele>
        <time>2022-12-22T16:57:18.606Z</time>
      </trkpt>
      <trkpt lat="45.46867" lon="-1.05333">
        <ele>47.332997</ele>
        <time>2022-12-22T16:57:21.601Z</time>
      </trkpt>
      <trkpt lat="45.46855" lon="-1.05326">
        <ele>47.435403</ele>
        <time>2022-12-22T16:57:24.619Z</time>
      </trkpt>
      <trkpt lat="45.46847" lon="-1.05319">
        <ele>47.504791</ele>
        <time>2022-12-22T16:57:26.592Z</time>
      </trkpt>
      <trkpt lat="45.46838" lon="-1.05312">
        <ele>47.582303</ele>
        <time>2022-12-22T16:57:28.613Z</time>
      </trkpt>
      <trkpt lat="45.4683" lon="-1.05305">
        <ele>47.652118</ele>
        <time>2022-12-22T16:57:30.620Z</time>
      </trkpt>
      <trkpt lat="45.46822" lon="-1.05298">
        <ele>47.724141</ele>
        <time>2022-12-22T16:57:32.614Z</time>
      </trkpt>
      <trkpt lat="45.46813" lon="-1.05291">
        <ele>47.798918</ele>
        <time>2022-12-22T16:57:34.607Z</time>
      </trkpt>
      <trkpt lat="45.46805" lon="-1.05285">
        <ele>47.86953</ele>
        <time>2022-12-22T16:57:36.619Z</time>
      </trkpt>
      <trkpt lat="45.46794" lon="-1.05276">
        <ele>47.959345</ele>
        <time>2022-12-22T16:57:39.601Z</time>
      </trkpt>
      <trkpt lat="45.46784" lon="-1.05267">
        <ele>48.051156</ele>
        <time>2022-12-22T16:57:42.617Z</time>
      </trkpt>
      <trkpt lat="45.46773" lon="-1.05258">
        <ele>47.900841</ele>
        <time>2022-12-22T16:57:45.621Z</time>
      </trkpt>
      <trkpt lat="45.46765" lon="-1.05251">
        <ele>47.775574</ele>
        <time>2022-12-22T16:57:47.610Z</time>
      </trkpt>
      <trkpt lat="45.46756" lon="-1.05244">
        <ele>47.63875</ele>
        <time>2022-12-22T16:57:49.609Z</time>
      </trkpt>
      <trkpt lat="45.46748" lon="-1.05237">
        <ele>47.508419</ele>
        <time>2022-12-22T16:57:51.621Z</time>
      </trkpt>
      <trkpt lat="45.4674" lon="-1.05231">
        <ele>47.379064</ele>
        <time>2022-12-22T16:57:53.604Z</time>
      </trkpt>
      <trkpt lat="45.46732" lon="-1.05224">
        <ele>47.249926</ele>
        <time>2022-12-22T16:57:55.622Z</time>
      </trkpt>
      <trkpt lat="45.46724" lon="-1.05217">
        <ele>47.11671</ele>
        <time>2022-12-22T16:57:57.622Z</time>
      </trkpt>
      <trkpt lat="45.46716" lon="-1.05211">
        <ele>46.99095</ele>
        <time>2022-12-22T16:57:59.620Z</time>
      </trkpt>
      <trkpt lat="45.46706" lon="-1.05201">
        <ele>46.816834</ele>
        <time>2022-12-22T16:58:02.609Z</time>
      </trkpt>
      <trkpt lat="45.46698" lon="-1.05193">
        <ele>46.69035</ele>
        <time>2022-12-22T16:58:04.624Z</time>
      </trkpt>
      <trkpt lat="45.46689" lon="-1.05181">
        <ele>46.520453</ele>
        <time>2022-12-22T16:58:07.612Z</time>
      </trkpt>
      <trkpt lat="45.46679" lon="-1.0517">
        <ele>46.341974</ele>
        <time>2022-12-22T16:58:10.622Z</time>
      </trkpt>
      <trkpt lat="45.46672" lon="-1.05162">
        <ele>46.214314</ele>
        <time>2022-12-22T16:58:12.601Z</time>
      </trkpt>
      <trkpt lat="45.46662" lon="-1.05149">
        <ele>46.027122</ele>
        <time>2022-12-22T16:58:15.623Z</time>
      </trkpt>
      <trkpt lat="45.46654" lon="-1.05141">
        <ele>45.896683</ele>
        <time>2022-12-22T16:58:17.621Z</time>
      </trkpt>
      <trkpt lat="45.46648" lon="-1.05132">
        <ele>45.770378</ele>
        <time>2022-12-22T16:58:19.597Z</time>
      </trkpt>
      <trkpt lat="45.46638" lon="-1.05119">
        <ele>45.585576</ele>
        <time>2022-12-22T16:58:22.598Z</time>
      </trkpt>
      <trkpt lat="45.46629" lon="-1.05107">
        <ele>45.564695</ele>
        <time>2022-12-22T16:58:25.622Z</time>
      </trkpt>
      <trkpt lat="45.46619" lon="-1.05095">
        <ele>45.561297</ele>
        <time>2022-12-22T16:58:28.599Z</time>
      </trkpt>
      <trkpt lat="45.46612" lon="-1.05086">
        <ele>45.558801</ele>
        <time>2022-12-22T16:58:30.601Z</time>
      </trkpt>
      <trkpt lat="45.46605" lon="-1.05076">
        <ele>45.556267</ele>
        <time>2022-12-22T16:58:32.604Z</time>
      </trkpt>
      <trkpt lat="45.46598" lon="-1.05068">
        <ele>45.553839</ele>
        <time>2022-12-22T16:58:34.599Z</time>
      </trkpt>
      <trkpt lat="45.46587" lon="-1.05055">
        <ele>45.550215</ele>
        <time>2022-12-22T16:58:37.620Z</time>
      </trkpt>
      <trkpt lat="45.46578" lon="-1.05043">
        <ele>45.547067</ele>
        <time>2022-12-22T16:58:39.623Z</time>
      </trkpt>
      <trkpt lat="45.46571" lon="-1.05033">
        <ele>45.544431</ele>
        <time>2022-12-22T16:58:41.600Z</time>
      </trkpt>
      <trkpt lat="45.46563" lon="-1.05023">
        <ele>45.541732</ele>
        <time>2022-12-22T16:58:43.614Z</time>
      </trkpt>
      <trkpt lat="45.46556" lon="-1.05014">
        <ele>45.539155</ele>
        <time>2022-12-22T16:58:45.618Z</time>
      </trkpt>
      <trkpt lat="45.46548" lon="-1.05005">
        <ele>45.536583</ele>
        <time>2022-12-22T16:58:47.593Z</time>
      </trkpt>
      <trkpt lat="45.46541" lon="-1.04996">
        <ele>45.534014</ele>
        <time>2022-12-22T16:58:49.617Z</time>
      </trkpt>
      <trkpt lat="45.46534" lon="-1.04986">
        <ele>45.531365</ele>
        <time>2022-12-22T16:58:51.620Z</time>
      </trkpt>
      <trkpt lat="45.46525" lon="-1.04974">
        <ele>45.528263</ele>
        <time>2022-12-22T16:58:54.599Z</time>
      </trkpt>
      <trkpt lat="45.46518" lon="-1.04966">
        <ele>45.52591</ele>
        <time>2022-12-22T16:58:56.622Z</time>
      </trkpt>
      <trkpt lat="45.46509" lon="-1.04953">
        <ele>45.522454</ele>
        <time>2022-12-22T16:58:59.621Z</time>
      </trkpt>
      <trkpt lat="45.46502" lon="-1.04944">
        <ele>45.495524</ele>
        <time>2022-12-22T16:59:01.609Z</time>
      </trkpt>
      <trkpt lat="45.46494" lon="-1.04933">
        <ele>45.391109</ele>
        <time>2022-12-22T16:59:03.620Z</time>
      </trkpt>
      <trkpt lat="45.46484" lon="-1.0492">
        <ele>45.259705</ele>
        <time>2022-12-22T16:59:06.621Z</time>
      </trkpt>
      <trkpt lat="45.46477" lon="-1.04909">
        <ele>45.157425</ele>
        <time>2022-12-22T16:59:08.606Z</time>
      </trkpt>
      <trkpt lat="45.46471" lon="-1.049">
        <ele>45.068923</ele>
        <time>2022-12-22T16:59:10.604Z</time>
      </trkpt>
      <trkpt lat="45.46464" lon="-1.04889">
        <ele>44.966708</ele>
        <time>2022-12-22T16:59:12.609Z</time>
      </trkpt>
      <trkpt lat="45.46457" lon="-1.04879">
        <ele>44.872471</ele>
        <time>2022-12-22T16:59:14.618Z</time>
      </trkpt>
      <trkpt lat="45.46447" lon="-1.04867">
        <ele>44.742181</ele>
        <time>2022-12-22T16:59:17.622Z</time>
      </trkpt>
      <trkpt lat="45.46435" lon="-1.04852">
        <ele>44.583163</ele>
        <time>2022-12-22T16:59:19.629Z</time>
      </trkpt>
      <trkpt lat="45.46427" lon="-1.04839">
        <ele>44.469363</ele>
        <time>2022-12-22T16:59:23.623Z</time>
      </trkpt>
      <trkpt lat="45.46418" lon="-1.04829">
        <ele>44.353992</ele>
        <time>2022-12-22T16:59:26.622Z</time>
      </trkpt>
      <trkpt lat="45.4641" lon="-1.04819">
        <ele>44.255706</ele>
        <time>2022-12-22T16:59:28.624Z</time>
      </trkpt>
      <trkpt lat="45.46402" lon="-1.0481">
        <ele>44.152951</ele>
        <time>2022-12-22T16:59:30.625Z</time>
      </trkpt>
      <trkpt lat="45.46395" lon="-1.04801">
        <ele>44.058494</ele>
        <time>2022-12-22T16:59:32.631Z</time>
      </trkpt>
      <trkpt lat="45.46383" lon="-1.04788">
        <ele>43.917274</ele>
        <time>2022-12-22T16:59:35.614Z</time>
      </trkpt>
      <trkpt lat="45.46376" lon="-1.04778">
        <ele>43.818058</ele>
        <time>2022-12-22T16:59:37.617Z</time>
      </trkpt>
      <trkpt lat="45.46365" lon="-1.04765">
        <ele>43.837602</ele>
        <time>2022-12-22T16:59:40.611Z</time>
      </trkpt>
      <trkpt lat="45.46359" lon="-1.04756">
        <ele>43.927646</ele>
        <time>2022-12-22T16:59:42.604Z</time>
      </trkpt>
      <trkpt lat="45.46351" lon="-1.04745">
        <ele>44.037998</ele>
        <time>2022-12-22T16:59:45.624Z</time>
      </trkpt>
      <trkpt lat="45.46342" lon="-1.04734">
        <ele>44.152289</ele>
        <time>2022-12-22T16:59:48.599Z</time>
      </trkpt>
      <trkpt lat="45.46335" lon="-1.04726">
        <ele>44.243157</ele>
        <time>2022-12-22T16:59:50.595Z</time>
      </trkpt>
      <trkpt lat="45.46328" lon="-1.04717">
        <ele>44.335344</ele>
        <time>2022-12-22T16:59:52.622Z</time>
      </trkpt>
      <trkpt lat="45.4632" lon="-1.04709">
        <ele>44.43337</ele>
        <time>2022-12-22T16:59:54.598Z</time>
      </trkpt>
      <trkpt lat="45.46313" lon="-1.047">
        <ele>44.529605</ele>
        <time>2022-12-22T16:59:56.622Z</time>
      </trkpt>
      <trkpt lat="45.46305" lon="-1.04691">
        <ele>44.625524</ele>
        <time>2022-12-22T16:59:58.605Z</time>
      </trkpt>
      <trkpt lat="45.46297" lon="-1.04683">
        <ele>44.724425</ele>
        <time>2022-12-22T17:00:00.620Z</time>
      </trkpt>
      <trkpt lat="45.4629" lon="-1.04673">
        <ele>44.824722</ele>
        <time>2022-12-22T17:00:02.597Z</time>
      </trkpt>
      <trkpt lat="45.46281" lon="-1.04665">
        <ele>44.924368</ele>
        <time>2022-12-22T17:00:04.629Z</time>
      </trkpt>
      <trkpt lat="45.46273" lon="-1.04658">
        <ele>45.025591</ele>
        <time>2022-12-22T17:00:06.621Z</time>
      </trkpt>
      <trkpt lat="45.46264" lon="-1.0465">
        <ele>45.127415</ele>
        <time>2022-12-22T17:00:08.595Z</time>
      </trkpt>
      <trkpt lat="45.46255" lon="-1.04643">
        <ele>45.231063</ele>
        <time>2022-12-22T17:00:10.594Z</time>
      </trkpt>
      <trkpt lat="45.46246" lon="-1.04636">
        <ele>45.3239</ele>
        <time>2022-12-22T17:00:12.617Z</time>
      </trkpt>
      <trkpt lat="45.46236" lon="-1.04629">
        <ele>45.437376</ele>
        <time>2022-12-22T17:00:14.601Z</time>
      </trkpt>
      <trkpt lat="45.46227" lon="-1.04621">
        <ele>45.540832</ele>
        <time>2022-12-22T17:00:16.620Z</time>
      </trkpt>
      <trkpt lat="45.46218" lon="-1.04615">
        <ele>45.547313</ele>
        <time>2022-12-22T17:00:18.602Z</time>
      </trkpt>
      <trkpt lat="45.4621" lon="-1.04609">
        <ele>45.553292</ele>
        <time>2022-12-22T17:00:20.608Z</time>
      </trkpt>
      <trkpt lat="45.462" lon="-1.04602">
        <ele>45.560712</ele>
        <time>2022-12-22T17:00:23.605Z</time>
      </trkpt>
      <trkpt lat="45.46188" lon="-1.04593">
        <ele>45.569263</ele>
        <time>2022-12-22T17:00:26.621Z</time>
      </trkpt>
      <trkpt lat="45.4618" lon="-1.04587">
        <ele>45.575518</ele>
        <time>2022-12-22T17:00:28.594Z</time>
      </trkpt>
      <trkpt lat="45.46171" lon="-1.04581">
        <ele>45.581769</ele>
        <time>2022-12-22T17:00:30.622Z</time>
      </trkpt>
      <trkpt lat="45.46159" lon="-1.04571">
        <ele>45.590995</ele>
        <time>2022-12-22T17:00:33.609Z</time>
      </trkpt>
      <trkpt lat="45.46151" lon="-1.04565">
        <ele>45.597179</ele>
        <time>2022-12-22T17:00:35.610Z</time>
      </trkpt>
      <trkpt lat="45.46138" lon="-1.04556">
        <ele>45.606203</ele>
        <time>2022-12-22T17:00:38.621Z</time>
      </trkpt>
      <trkpt lat="45.4613" lon="-1.04549">
        <ele>45.612778</ele>
        <time>2022-12-22T17:00:40.624Z</time>
      </trkpt>
      <trkpt lat="45.46121" lon="-1.04544">
        <ele>45.618822</ele>
        <time>2022-12-22T17:00:42.621Z</time>
      </trkpt>
      <trkpt lat="45.46112" lon="-1.04538">
        <ele>45.625334</ele>
        <time>2022-12-22T17:00:44.619Z</time>
      </trkpt>
      <trkpt lat="45.46103" lon="-1.04531">
        <ele>45.632005</ele>
        <time>2022-12-22T17:00:46.597Z</time>
      </trkpt>
      <trkpt lat="45.46094" lon="-1.04524">
        <ele>45.638861</ele>
        <time>2022-12-22T17:00:48.599Z</time>
      </trkpt>
      <trkpt lat="45.46085" lon="-1.04518">
        <ele>45.645334</ele>
        <time>2022-12-22T17:00:50.593Z</time>
      </trkpt>
      <trkpt lat="45.46076" lon="-1.04511">
        <ele>45.651859</ele>
        <time>2022-12-22T17:00:52.596Z</time>
      </trkpt>
      <trkpt lat="45.46068" lon="-1.04506">
        <ele>45.657818</ele>
        <time>2022-12-22T17:00:54.623Z</time>
      </trkpt>
      <trkpt lat="45.46059" lon="-1.04501">
        <ele>45.594204</ele>
        <time>2022-12-22T17:00:56.607Z</time>
      </trkpt>
      <trkpt lat="45.46048" lon="-1.04491">
        <ele>45.489523</ele>
        <time>2022-12-22T17:00:59.602Z</time>
      </trkpt>
      <trkpt lat="45.46035" lon="-1.04483">
        <ele>45.384502</ele>
        <time>2022-12-22T17:01:02.600Z</time>
      </trkpt>
      <trkpt lat="45.46027" lon="-1.04476">
        <ele>45.312198</ele>
        <time>2022-12-22T17:01:04.594Z</time>
      </trkpt>
      <trkpt lat="45.46015" lon="-1.04467">
        <ele>45.20664</ele>
        <time>2022-12-22T17:01:07.597Z</time>
      </trkpt>
      <trkpt lat="45.46006" lon="-1.04461">
        <ele>45.127687</ele>
        <time>2022-12-22T17:01:09.617Z</time>
      </trkpt>
      <trkpt lat="45.45998" lon="-1.04455">
        <ele>45.056736</ele>
        <time>2022-12-22T17:01:11.606Z</time>
      </trkpt>
      <trkpt lat="45.45985" lon="-1.04447">
        <ele>44.947751</ele>
        <time>2022-12-22T17:01:14.621Z</time>
      </trkpt>
      <trkpt lat="45.45976" lon="-1.04442">
        <ele>44.874142</ele>
        <time>2022-12-22T17:01:16.622Z</time>
      </trkpt>
      <trkpt lat="45.45967" lon="-1.04436">
        <ele>44.795631</ele>
        <time>2022-12-22T17:01:18.619Z</time>
      </trkpt>
      <trkpt lat="45.45958" lon="-1.04428">
        <ele>44.712942</ele>
        <time>2022-12-22T17:01:20.617Z</time>
      </trkpt>
      <trkpt lat="45.45948" lon="-1.04422">
        <ele>44.635356</ele>
        <time>2022-12-22T17:01:22.620Z</time>
      </trkpt>
      <trkpt lat="45.45939" lon="-1.04416">
        <ele>44.55828</ele>
        <time>2022-12-22T17:01:24.594Z</time>
      </trkpt>
      <trkpt lat="45.4593" lon="-1.04409">
        <ele>44.474633</ele>
        <time>2022-12-22T17:01:26.622Z</time>
      </trkpt>
      <trkpt lat="45.45921" lon="-1.04405">
        <ele>44.399341</ele>
        <time>2022-12-22T17:01:28.619Z</time>
      </trkpt>
      <trkpt lat="45.45911" lon="-1.04402">
        <ele>44.320827</ele>
        <time>2022-12-22T17:01:30.621Z</time>
      </trkpt>
      <trkpt lat="45.45901" lon="-1.04398">
        <ele>44.310709</ele>
        <time>2022-12-22T17:01:32.620Z</time>
      </trkpt>
      <trkpt lat="45.4589" lon="-1.04394">
        <ele>44.451365</ele>
        <time>2022-12-22T17:01:34.595Z</time>
      </trkpt>
      <trkpt lat="45.4588" lon="-1.0439">
        <ele>44.58922</ele>
        <time>2022-12-22T17:01:36.597Z</time>
      </trkpt>
      <trkpt lat="45.45871" lon="-1.04387">
        <ele>44.713149</ele>
        <time>2022-12-22T17:01:38.622Z</time>
      </trkpt>
      <trkpt lat="45.45862" lon="-1.04383">
        <ele>44.838042</ele>
        <time>2022-12-22T17:01:40.598Z</time>
      </trkpt>
      <trkpt lat="45.4585" lon="-1.0438">
        <ele>44.999891</ele>
        <time>2022-12-22T17:01:43.623Z</time>
      </trkpt>
      <trkpt lat="45.4584" lon="-1.04376">
        <ele>45.140786</ele>
        <time>2022-12-22T17:01:46.627Z</time>
      </trkpt>
      <trkpt lat="45.4583" lon="-1.04371">
        <ele>45.274584</ele>
        <time>2022-12-22T17:01:49.614Z</time>
      </trkpt>
      <trkpt lat="45.4582" lon="-1.04367">
        <ele>45.413554</ele>
        <time>2022-12-22T17:01:52.621Z</time>
      </trkpt>
      <trkpt lat="45.45809" lon="-1.04363">
        <ele>45.560597</ele>
        <time>2022-12-22T17:01:55.619Z</time>
      </trkpt>
      <trkpt lat="45.45798" lon="-1.04358">
        <ele>45.71443</ele>
        <time>2022-12-22T17:01:58.606Z</time>
      </trkpt>
      <trkpt lat="45.45786" lon="-1.04354">
        <ele>45.878435</ele>
        <time>2022-12-22T17:02:01.594Z</time>
      </trkpt>
      <trkpt lat="45.45773" lon="-1.04348">
        <ele>46.054098</ele>
        <time>2022-12-22T17:02:04.599Z</time>
      </trkpt>
      <trkpt lat="45.45764" lon="-1.04345">
        <ele>46.182324</ele>
        <time>2022-12-22T17:02:06.599Z</time>
      </trkpt>
      <trkpt lat="45.45755" lon="-1.04343">
        <ele>46.308474</ele>
        <time>2022-12-22T17:02:08.618Z</time>
      </trkpt>
      <trkpt lat="45.45745" lon="-1.04342">
        <ele>46.435748</ele>
        <time>2022-12-22T17:02:10.597Z</time>
      </trkpt>
      <trkpt lat="45.45735" lon="-1.04343">
        <ele>46.56789</ele>
        <time>2022-12-22T17:02:12.595Z</time>
      </trkpt>
      <trkpt lat="45.45724" lon="-1.04343">
        <ele>46.627818</ele>
        <time>2022-12-22T17:02:14.622Z</time>
      </trkpt>
      <trkpt lat="45.45715" lon="-1.04344">
        <ele>46.60217</ele>
        <time>2022-12-22T17:02:16.622Z</time>
      </trkpt>
      <trkpt lat="45.45705" lon="-1.04343">
        <ele>46.575468</ele>
        <time>2022-12-22T17:02:18.588Z</time>
      </trkpt>
      <trkpt lat="45.45696" lon="-1.04346">
        <ele>46.549539</ele>
        <time>2022-12-22T17:02:20.613Z</time>
      </trkpt>
      <trkpt lat="45.45686" lon="-1.04346">
        <ele>46.524152</ele>
        <time>2022-12-22T17:02:22.620Z</time>
      </trkpt>
      <trkpt lat="45.45676" lon="-1.04348">
        <ele>46.497069</ele>
        <time>2022-12-22T17:02:24.617Z</time>
      </trkpt>
      <trkpt lat="45.45666" lon="-1.04349">
        <ele>46.470002</ele>
        <time>2022-12-22T17:02:26.598Z</time>
      </trkpt>
      <trkpt lat="45.45656" lon="-1.0435">
        <ele>46.442988</ele>
        <time>2022-12-22T17:02:28.619Z</time>
      </trkpt>
      <trkpt lat="45.45646" lon="-1.0435">
        <ele>46.416286</ele>
        <time>2022-12-22T17:02:30.620Z</time>
      </trkpt>
      <trkpt lat="45.45636" lon="-1.0435">
        <ele>46.388775</ele>
        <time>2022-12-22T17:02:32.599Z</time>
      </trkpt>
      <trkpt lat="45.45627" lon="-1.0435">
        <ele>46.364225</ele>
        <time>2022-12-22T17:02:34.599Z</time>
      </trkpt>
      <trkpt lat="45.45618" lon="-1.0435">
        <ele>46.339408</ele>
        <time>2022-12-22T17:02:36.623Z</time>
      </trkpt>
      <trkpt lat="45.45608" lon="-1.04349">
        <ele>46.313761</ele>
        <time>2022-12-22T17:02:38.620Z</time>
      </trkpt>
      <trkpt lat="45.45599" lon="-1.0435">
        <ele>46.287565</ele>
        <time>2022-12-22T17:02:40.620Z</time>
      </trkpt>
      <trkpt lat="45.45586" lon="-1.04351">
        <ele>46.254044</ele>
        <time>2022-12-22T17:02:43.620Z</time>
      </trkpt>
      <trkpt lat="45.45574" lon="-1.04352">
        <ele>46.220565</ele>
        <time>2022-12-22T17:02:46.604Z</time>
      </trkpt>
      <trkpt lat="45.45561" lon="-1.04352">
        <ele>46.186573</ele>
        <time>2022-12-22T17:02:49.601Z</time>
      </trkpt>
      <trkpt lat="45.45549" lon="-1.04352">
        <ele>46.161146</ele>
        <time>2022-12-22T17:02:52.619Z</time>
      </trkpt>
      <trkpt lat="45.45536" lon="-1.04353">
        <ele>46.211975</ele>
        <time>2022-12-22T17:02:55.622Z</time>
      </trkpt>
      <trkpt lat="45.45523" lon="-1.04352">
        <ele>46.262411</ele>
        <time>2022-12-22T17:02:58.621Z</time>
      </trkpt>
      <trkpt lat="45.45511" lon="-1.04352">
        <ele>46.30966</ele>
        <time>2022-12-22T17:03:01.598Z</time>
      </trkpt>
      <trkpt lat="45.45498" lon="-1.04353">
        <ele>46.360509</ele>
        <time>2022-12-22T17:03:04.619Z</time>
      </trkpt>
      <trkpt lat="45.45489" lon="-1.04355">
        <ele>46.397342</ele>
        <time>2022-12-22T17:03:06.600Z</time>
      </trkpt>
      <trkpt lat="45.4548" lon="-1.04355">
        <ele>46.434334</ele>
        <time>2022-12-22T17:03:08.619Z</time>
      </trkpt>
      <trkpt lat="45.45471" lon="-1.04356">
        <ele>46.470968</ele>
        <time>2022-12-22T17:03:10.612Z</time>
      </trkpt>
      <trkpt lat="45.45461" lon="-1.04356">
        <ele>46.507497</ele>
        <time>2022-12-22T17:03:12.620Z</time>
      </trkpt>
      <trkpt lat="45.45448" lon="-1.04358">
        <ele>46.559204</ele>
        <time>2022-12-22T17:03:15.607Z</time>
      </trkpt>
      <trkpt lat="45.45439" lon="-1.04357">
        <ele>46.596133</ele>
        <time>2022-12-22T17:03:17.595Z</time>
      </trkpt>
      <trkpt lat="45.4543" lon="-1.04358">
        <ele>46.631936</ele>
        <time>2022-12-22T17:03:19.621Z</time>
      </trkpt>
      <trkpt lat="45.45421" lon="-1.04359">
        <ele>46.668899</ele>
        <time>2022-12-22T17:03:21.615Z</time>
      </trkpt>
      <trkpt lat="45.45412" lon="-1.04359">
        <ele>46.705875</ele>
        <time>2022-12-22T17:03:23.623Z</time>
      </trkpt>
      <trkpt lat="45.45399" lon="-1.0436">
        <ele>46.756709</ele>
        <time>2022-12-22T17:03:26.606Z</time>
      </trkpt>
      <trkpt lat="45.45385" lon="-1.0436">
        <ele>46.810321</ele>
        <time>2022-12-22T17:03:29.619Z</time>
      </trkpt>
      <trkpt lat="45.45376" lon="-1.04361">
        <ele>46.846108</ele>
        <time>2022-12-22T17:03:31.620Z</time>
      </trkpt>
      <trkpt lat="45.45363" lon="-1.04362">
        <ele>46.847258</ele>
        <time>2022-12-22T17:03:34.610Z</time>
      </trkpt>
      <trkpt lat="45.4535" lon="-1.04362">
        <ele>46.806028</ele>
        <time>2022-12-22T17:03:37.619Z</time>
      </trkpt>
      <trkpt lat="45.45341" lon="-1.04362">
        <ele>46.777606</ele>
        <time>2022-12-22T17:03:39.599Z</time>
      </trkpt>
      <trkpt lat="45.45327" lon="-1.04363">
        <ele>46.73566</ele>
        <time>2022-12-22T17:03:42.617Z</time>
      </trkpt>
      <trkpt lat="45.45318" lon="-1.04365">
        <ele>46.707097</ele>
        <time>2022-12-22T17:03:44.618Z</time>
      </trkpt>
      <trkpt lat="45.45309" lon="-1.04364">
        <ele>46.678361</ele>
        <time>2022-12-22T17:03:46.618Z</time>
      </trkpt>
      <trkpt lat="45.45296" lon="-1.04365">
        <ele>46.636818</ele>
        <time>2022-12-22T17:03:49.621Z</time>
      </trkpt>
      <trkpt lat="45.45282" lon="-1.04365">
        <ele>46.595564</ele>
        <time>2022-12-22T17:03:52.617Z</time>
      </trkpt>
      <trkpt lat="45.45269" lon="-1.04366">
        <ele>46.554311</ele>
        <time>2022-12-22T17:03:55.621Z</time>
      </trkpt>
      <trkpt lat="45.45257" lon="-1.04366">
        <ele>46.517145</ele>
        <time>2022-12-22T17:03:58.616Z</time>
      </trkpt>
      <trkpt lat="45.45247" lon="-1.04367">
        <ele>46.483669</ele>
        <time>2022-12-22T17:04:01.605Z</time>
      </trkpt>
      <trkpt lat="45.45235" lon="-1.04368">
        <ele>46.448296</ele>
        <time>2022-12-22T17:04:04.604Z</time>
      </trkpt>
      <trkpt lat="45.45223" lon="-1.04369">
        <ele>46.411349</ele>
        <time>2022-12-22T17:04:07.620Z</time>
      </trkpt>
      <trkpt lat="45.45211" lon="-1.0437">
        <ele>46.373207</ele>
        <time>2022-12-22T17:04:10.605Z</time>
      </trkpt>
      <trkpt lat="45.45198" lon="-1.04371">
        <ele>46.333182</ele>
        <time>2022-12-22T17:04:13.621Z</time>
      </trkpt>
      <trkpt lat="45.45185" lon="-1.04371">
        <ele>46.345943</ele>
        <time>2022-12-22T17:04:16.603Z</time>
      </trkpt>
      <trkpt lat="45.45172" lon="-1.04371">
        <ele>46.438585</ele>
        <time>2022-12-22T17:04:19.591Z</time>
      </trkpt>
      <trkpt lat="45.45159" lon="-1.04371">
        <ele>46.529827</ele>
        <time>2022-12-22T17:04:22.594Z</time>
      </trkpt>
      <trkpt lat="45.4515" lon="-1.04372">
        <ele>46.592556</ele>
        <time>2022-12-22T17:04:24.608Z</time>
      </trkpt>
      <trkpt lat="45.45136" lon="-1.04373">
        <ele>46.68601</ele>
        <time>2022-12-22T17:04:27.598Z</time>
      </trkpt>
      <trkpt lat="45.45127" lon="-1.04374">
        <ele>46.748965</ele>
        <time>2022-12-22T17:04:29.601Z</time>
      </trkpt>
      <trkpt lat="45.45114" lon="-1.04373">
        <ele>46.83957</ele>
        <time>2022-12-22T17:04:32.620Z</time>
      </trkpt>
      <trkpt lat="45.45102" lon="-1.04373">
        <ele>46.927326</ele>
        <time>2022-12-22T17:04:35.622Z</time>
      </trkpt>
      <trkpt lat="45.45089" lon="-1.04374">
        <ele>47.016607</ele>
        <time>2022-12-22T17:04:38.602Z</time>
      </trkpt>
      <trkpt lat="45.45076" lon="-1.04375">
        <ele>47.104367</ele>
        <time>2022-12-22T17:04:41.620Z</time>
      </trkpt>
      <trkpt lat="45.45064" lon="-1.04375">
        <ele>47.192188</ele>
        <time>2022-12-22T17:04:44.617Z</time>
      </trkpt>
      <trkpt lat="45.45051" lon="-1.04376">
        <ele>47.279295</ele>
        <time>2022-12-22T17:04:47.620Z</time>
      </trkpt>
      <trkpt lat="45.4504" lon="-1.04377">
        <ele>47.354615</ele>
        <time>2022-12-22T17:04:50.603Z</time>
      </trkpt>
      <trkpt lat="45.45029" lon="-1.0438">
        <ele>47.434577</ele>
        <time>2022-12-22T17:04:53.622Z</time>
      </trkpt>
      <trkpt lat="45.45017" lon="-1.04384">
        <ele>47.523802</ele>
        <time>2022-12-22T17:04:56.612Z</time>
      </trkpt>
      <trkpt lat="45.45004" lon="-1.04389">
        <ele>47.514314</ele>
        <time>2022-12-22T17:04:59.600Z</time>
      </trkpt>
      <trkpt lat="45.44991" lon="-1.04393">
        <ele>47.433864</ele>
        <time>2022-12-22T17:05:02.600Z</time>
      </trkpt>
      <trkpt lat="45.44978" lon="-1.04397">
        <ele>47.351605</ele>
        <time>2022-12-22T17:05:05.599Z</time>
      </trkpt>
      <trkpt lat="45.44965" lon="-1.04401">
        <ele>47.269617</ele>
        <time>2022-12-22T17:05:08.627Z</time>
      </trkpt>
      <trkpt lat="45.44952" lon="-1.04405">
        <ele>47.187263</ele>
        <time>2022-12-22T17:05:11.600Z</time>
      </trkpt>
      <trkpt lat="45.44944" lon="-1.04408">
        <ele>47.130859</ele>
        <time>2022-12-22T17:05:13.620Z</time>
      </trkpt>
      <trkpt lat="45.44931" lon="-1.04413">
        <ele>47.049102</ele>
        <time>2022-12-22T17:05:16.620Z</time>
      </trkpt>
      <trkpt lat="45.44918" lon="-1.04418">
        <ele>46.964339</ele>
        <time>2022-12-22T17:05:19.620Z</time>
      </trkpt>
      <trkpt lat="45.44905" lon="-1.04422">
        <ele>46.886297</ele>
        <time>2022-12-22T17:05:22.622Z</time>
      </trkpt>
      <trkpt lat="45.44893" lon="-1.04427">
        <ele>46.807509</ele>
        <time>2022-12-22T17:05:25.622Z</time>
      </trkpt>
      <trkpt lat="45.44881" lon="-1.04431">
        <ele>46.73127</ele>
        <time>2022-12-22T17:05:28.594Z</time>
      </trkpt>
      <trkpt lat="45.44869" lon="-1.04435">
        <ele>46.654431</ele>
        <time>2022-12-22T17:05:31.600Z</time>
      </trkpt>
      <trkpt lat="45.44857" lon="-1.04438">
        <ele>46.581515</ele>
        <time>2022-12-22T17:05:34.603Z</time>
      </trkpt>
      <trkpt lat="45.44846" lon="-1.04442">
        <ele>46.511159</ele>
        <time>2022-12-22T17:05:37.601Z</time>
      </trkpt>
      <trkpt lat="45.44835" lon="-1.04446">
        <ele>46.461427</ele>
        <time>2022-12-22T17:05:40.597Z</time>
      </trkpt>
      <trkpt lat="45.44823" lon="-1.0445">
        <ele>46.530762</ele>
        <time>2022-12-22T17:05:43.624Z</time>
      </trkpt>
      <trkpt lat="45.44812" lon="-1.04453">
        <ele>46.592637</ele>
        <time>2022-12-22T17:05:46.621Z</time>
      </trkpt>
      <trkpt lat="45.44801" lon="-1.04458">
        <ele>46.662531</ele>
        <time>2022-12-22T17:05:49.623Z</time>
      </trkpt>
      <trkpt lat="45.44788" lon="-1.04461">
        <ele>46.735044</ele>
        <time>2022-12-22T17:05:52.623Z</time>
      </trkpt>
      <trkpt lat="45.44776" lon="-1.04465">
        <ele>46.807867</ele>
        <time>2022-12-22T17:05:55.620Z</time>
      </trkpt>
      <trkpt lat="45.44764" lon="-1.04469">
        <ele>46.878975</ele>
        <time>2022-12-22T17:05:58.621Z</time>
      </trkpt>
      <trkpt lat="45.44752" lon="-1.04474">
        <ele>46.951152</ele>
        <time>2022-12-22T17:06:01.599Z</time>
      </trkpt>
      <trkpt lat="45.4474" lon="-1.04481">
        <ele>47.024605</ele>
        <time>2022-12-22T17:06:04.608Z</time>
      </trkpt>
      <trkpt lat="45.44728" lon="-1.04487">
        <ele>47.098384</ele>
        <time>2022-12-22T17:06:07.598Z</time>
      </trkpt>
      <trkpt lat="45.44716" lon="-1.04494">
        <ele>47.172549</ele>
        <time>2022-12-22T17:06:10.619Z</time>
      </trkpt>
      <trkpt lat="45.44707" lon="-1.04499">
        <ele>47.225131</ele>
        <time>2022-12-22T17:06:12.601Z</time>
      </trkpt>
      <trkpt lat="45.44695" lon="-1.04506">
        <ele>47.2999</ele>
        <time>2022-12-22T17:06:15.605Z</time>
      </trkpt>
      <trkpt lat="45.44683" lon="-1.04512">
        <ele>47.373919</ele>
        <time>2022-12-22T17:06:18.612Z</time>
      </trkpt>
      <trkpt lat="45.44672" lon="-1.04518">
        <ele>47.442493</ele>
        <time>2022-12-22T17:06:21.621Z</time>
      </trkpt>
      <trkpt lat="45.44661" lon="-1.04524">
        <ele>47.523287</ele>
        <time>2022-12-22T17:06:24.619Z</time>
      </trkpt>
      <trkpt lat="45.4465" lon="-1.04531">
        <ele>47.622784</ele>
        <time>2022-12-22T17:06:27.603Z</time>
      </trkpt>
      <trkpt lat="45.44637" lon="-1.04537">
        <ele>47.729801</ele>
        <time>2022-12-22T17:06:30.621Z</time>
      </trkpt>
      <trkpt lat="45.44625" lon="-1.04545">
        <ele>47.835862</ele>
        <time>2022-12-22T17:06:33.619Z</time>
      </trkpt>
      <trkpt lat="45.44613" lon="-1.04552">
        <ele>47.94029</ele>
        <time>2022-12-22T17:06:36.618Z</time>
      </trkpt>
      <trkpt lat="45.44601" lon="-1.04558">
        <ele>48.044401</ele>
        <time>2022-12-22T17:06:39.613Z</time>
      </trkpt>
      <trkpt lat="45.44589" lon="-1.04564">
        <ele>48.146604</ele>
        <time>2022-12-22T17:06:42.618Z</time>
      </trkpt>
      <trkpt lat="45.44577" lon="-1.0457">
        <ele>48.248996</ele>
        <time>2022-12-22T17:06:45.602Z</time>
      </trkpt>
      <trkpt lat="45.44565" lon="-1.04574">
        <ele>48.34965</ele>
        <time>2022-12-22T17:06:48.623Z</time>
      </trkpt>
      <trkpt lat="45.44554" lon="-1.04576">
        <ele>48.445978</ele>
        <time>2022-12-22T17:06:51.620Z</time>
      </trkpt>
      <trkpt lat="45.44543" lon="-1.04577">
        <ele>48.533602</ele>
        <time>2022-12-22T17:06:54.619Z</time>
      </trkpt>
      <trkpt lat="45.44533" lon="-1.04576">
        <ele>48.613106</ele>
        <time>2022-12-22T17:06:57.620Z</time>
      </trkpt>
      <trkpt lat="45.44524" lon="-1.04575">
        <ele>48.688908</ele>
        <time>2022-12-22T17:07:00.619Z</time>
      </trkpt>
      <trkpt lat="45.44514" lon="-1.04573">
        <ele>48.772862</ele>
        <time>2022-12-22T17:07:03.618Z</time>
      </trkpt>
      <trkpt lat="45.44503" lon="-1.04568">
        <ele>48.862108</ele>
        <time>2022-12-22T17:07:06.615Z</time>
      </trkpt>
      <trkpt lat="45.44492" lon="-1.04564">
        <ele>48.922945</ele>
        <time>2022-12-22T17:07:09.602Z</time>
      </trkpt>
      <trkpt lat="45.44479" lon="-1.0456">
        <ele>48.754381</ele>
        <time>2022-12-22T17:07:12.620Z</time>
      </trkpt>
      <trkpt lat="45.44467" lon="-1.04556">
        <ele>48.58101</ele>
        <time>2022-12-22T17:07:15.620Z</time>
      </trkpt>
      <trkpt lat="45.44454" lon="-1.0455">
        <ele>48.401018</ele>
        <time>2022-12-22T17:07:18.626Z</time>
      </trkpt>
      <trkpt lat="45.44441" lon="-1.04544">
        <ele>48.220341</ele>
        <time>2022-12-22T17:07:21.621Z</time>
      </trkpt>
      <trkpt lat="45.44429" lon="-1.04538">
        <ele>48.040373</ele>
        <time>2022-12-22T17:07:24.619Z</time>
      </trkpt>
      <trkpt lat="45.44416" lon="-1.04531">
        <ele>47.861653</ele>
        <time>2022-12-22T17:07:27.612Z</time>
      </trkpt>
      <trkpt lat="45.44407" lon="-1.04527">
        <ele>47.737669</ele>
        <time>2022-12-22T17:07:29.595Z</time>
      </trkpt>
      <trkpt lat="45.44398" lon="-1.04524">
        <ele>47.611787</ele>
        <time>2022-12-22T17:07:31.620Z</time>
      </trkpt>
      <trkpt lat="45.44389" lon="-1.0452">
        <ele>47.487274</ele>
        <time>2022-12-22T17:07:33.599Z</time>
      </trkpt>
      <trkpt lat="45.4438" lon="-1.04516">
        <ele>47.360375</ele>
        <time>2022-12-22T17:07:35.626Z</time>
      </trkpt>
      <trkpt lat="45.44368" lon="-1.0451">
        <ele>47.185098</ele>
        <time>2022-12-22T17:07:38.620Z</time>
      </trkpt>
      <trkpt lat="45.44357" lon="-1.0451">
        <ele>47.030636</ele>
        <time>2022-12-22T17:07:41.595Z</time>
      </trkpt>
      <trkpt lat="45.44345" lon="-1.04508">
        <ele>46.874671</ele>
        <time>2022-12-22T17:07:44.606Z</time>
      </trkpt>
      <trkpt lat="45.44334" lon="-1.04508">
        <ele>46.724105</ele>
        <time>2022-12-22T17:07:47.612Z</time>
      </trkpt>
      <trkpt lat="45.44322" lon="-1.04509">
        <ele>46.564212</ele>
        <time>2022-12-22T17:07:50.604Z</time>
      </trkpt>
      <trkpt lat="45.4431" lon="-1.0451">
        <ele>46.557714</ele>
        <time>2022-12-22T17:07:53.608Z</time>
      </trkpt>
      <trkpt lat="45.44301" lon="-1.04507">
        <ele>46.586048</ele>
        <time>2022-12-22T17:07:55.600Z</time>
      </trkpt>
      <trkpt lat="45.44288" lon="-1.04505">
        <ele>46.626593</ele>
        <time>2022-12-22T17:07:58.620Z</time>
      </trkpt>
      <trkpt lat="45.44274" lon="-1.04504">
        <ele>46.668547</ele>
        <time>2022-12-22T17:08:01.632Z</time>
      </trkpt>
      <trkpt lat="45.44265" lon="-1.04504">
        <ele>46.696589</ele>
        <time>2022-12-22T17:08:03.595Z</time>
      </trkpt>
      <trkpt lat="45.44256" lon="-1.04503">
        <ele>46.724764</ele>
        <time>2022-12-22T17:08:05.622Z</time>
      </trkpt>
      <trkpt lat="45.44243" lon="-1.04502">
        <ele>46.765445</ele>
        <time>2022-12-22T17:08:08.595Z</time>
      </trkpt>
      <trkpt lat="45.44232" lon="-1.04502">
        <ele>46.797795</ele>
        <time>2022-12-22T17:08:10.622Z</time>
      </trkpt>
      <trkpt lat="45.44223" lon="-1.04504">
        <ele>46.82687</ele>
        <time>2022-12-22T17:08:12.618Z</time>
      </trkpt>
      <trkpt lat="45.44213" lon="-1.04502">
        <ele>46.85752</ele>
        <time>2022-12-22T17:08:14.604Z</time>
      </trkpt>
      <trkpt lat="45.44203" lon="-1.04502">
        <ele>46.888346</ele>
        <time>2022-12-22T17:08:16.591Z</time>
      </trkpt>
      <trkpt lat="45.44193" lon="-1.04501">
        <ele>46.919172</ele>
        <time>2022-12-22T17:08:18.622Z</time>
      </trkpt>
      <trkpt lat="45.44184" lon="-1.04502">
        <ele>46.947889</ele>
        <time>2022-12-22T17:08:20.587Z</time>
      </trkpt>
      <trkpt lat="45.44174" lon="-1.04503">
        <ele>46.977785</ele>
        <time>2022-12-22T17:08:22.620Z</time>
      </trkpt>
      <trkpt lat="45.44164" lon="-1.04503">
        <ele>47.008913</ele>
        <time>2022-12-22T17:08:24.622Z</time>
      </trkpt>
      <trkpt lat="45.4415" lon="-1.04504">
        <ele>47.051164</ele>
        <time>2022-12-22T17:08:27.620Z</time>
      </trkpt>
      <trkpt lat="45.44138" lon="-1.04505">
        <ele>47.084493</ele>
        <time>2022-12-22T17:08:30.596Z</time>
      </trkpt>
      <trkpt lat="45.44125" lon="-1.04506">
        <ele>47.096246</ele>
        <time>2022-12-22T17:08:33.616Z</time>
      </trkpt>
      <trkpt lat="45.44111" lon="-1.04507">
        <ele>47.108433</ele>
        <time>2022-12-22T17:08:36.620Z</time>
      </trkpt>
      <trkpt lat="45.44098" lon="-1.04508">
        <ele>47.12016</ele>
        <time>2022-12-22T17:08:39.607Z</time>
      </trkpt>
      <trkpt lat="45.44089" lon="-1.04509">
        <ele>47.128927</ele>
        <time>2022-12-22T17:08:41.621Z</time>
      </trkpt>
      <trkpt lat="45.44079" lon="-1.04511">
        <ele>47.137617</ele>
        <time>2022-12-22T17:08:43.621Z</time>
      </trkpt>
      <trkpt lat="45.4407" lon="-1.04512">
        <ele>47.146452</ele>
        <time>2022-12-22T17:08:45.595Z</time>
      </trkpt>
      <trkpt lat="45.4406" lon="-1.04513">
        <ele>47.155188</ele>
        <time>2022-12-22T17:08:47.604Z</time>
      </trkpt>
      <trkpt lat="45.4405" lon="-1.04513">
        <ele>47.164469</ele>
        <time>2022-12-22T17:08:49.605Z</time>
      </trkpt>
      <trkpt lat="45.44041" lon="-1.04515">
        <ele>47.172771</ele>
        <time>2022-12-22T17:08:51.620Z</time>
      </trkpt>
      <trkpt lat="45.44031" lon="-1.04516">
        <ele>47.181712</ele>
        <time>2022-12-22T17:08:53.617Z</time>
      </trkpt>
      <trkpt lat="45.44022" lon="-1.04518">
        <ele>47.190132</ele>
        <time>2022-12-22T17:08:55.621Z</time>
      </trkpt>
      <trkpt lat="45.44012" lon="-1.04518">
        <ele>47.199235</ele>
        <time>2022-12-22T17:08:57.620Z</time>
      </trkpt>
      <trkpt lat="45.43999" lon="-1.04521">
        <ele>47.211218</ele>
        <time>2022-12-22T17:09:00.601Z</time>
      </trkpt>
      <trkpt lat="45.43985" lon="-1.04522">
        <ele>47.223264</ele>
        <time>2022-12-22T17:09:03.621Z</time>
      </trkpt>
      <trkpt lat="45.43972" lon="-1.04522">
        <ele>47.235529</ele>
        <time>2022-12-22T17:09:06.598Z</time>
      </trkpt>
      <trkpt lat="45.43963" lon="-1.04521">
        <ele>47.243747</ele>
        <time>2022-12-22T17:09:08.604Z</time>
      </trkpt>
      <trkpt lat="45.43954" lon="-1.04519">
        <ele>47.303688</ele>
        <time>2022-12-22T17:09:10.592Z</time>
      </trkpt>
      <trkpt lat="45.43943" lon="-1.04515">
        <ele>47.402087</ele>
        <time>2022-12-22T17:09:13.607Z</time>
      </trkpt>
      <trkpt lat="45.43931" lon="-1.04508">
        <ele>47.510192</ele>
        <time>2022-12-22T17:09:16.622Z</time>
      </trkpt>
      <trkpt lat="45.43923" lon="-1.04501">
        <ele>47.58835</ele>
        <time>2022-12-22T17:09:18.621Z</time>
      </trkpt>
      <trkpt lat="45.43915" lon="-1.04494">
        <ele>47.666503</ele>
        <time>2022-12-22T17:09:20.601Z</time>
      </trkpt>
      <trkpt lat="45.43905" lon="-1.04483">
        <ele>47.778822</ele>
        <time>2022-12-22T17:09:23.604Z</time>
      </trkpt>
      <trkpt lat="45.43895" lon="-1.04476">
        <ele>47.872601</ele>
        <time>2022-12-22T17:09:26.607Z</time>
      </trkpt>
      <trkpt lat="45.43886" lon="-1.04468">
        <ele>47.960727</ele>
        <time>2022-12-22T17:09:29.622Z</time>
      </trkpt>
      <trkpt lat="45.43877" lon="-1.04458">
        <ele>48.060278</ele>
        <time>2022-12-22T17:09:32.622Z</time>
      </trkpt>
      <trkpt lat="45.43867" lon="-1.04449">
        <ele>48.158792</ele>
        <time>2022-12-22T17:09:35.624Z</time>
      </trkpt>
      <trkpt lat="45.43858" lon="-1.04438">
        <ele>48.260521</ele>
        <time>2022-12-22T17:09:38.598Z</time>
      </trkpt>
      <trkpt lat="45.43848" lon="-1.04429">
        <ele>48.360407</ele>
        <time>2022-12-22T17:09:41.599Z</time>
      </trkpt>
      <trkpt lat="45.43838" lon="-1.04419">
        <ele>48.461367</ele>
        <time>2022-12-22T17:09:44.607Z</time>
      </trkpt>
      <trkpt lat="45.43828" lon="-1.0441">
        <ele>48.56453</ele>
        <time>2022-12-22T17:09:47.602Z</time>
      </trkpt>
      <trkpt lat="45.43817" lon="-1.04401">
        <ele>48.673999</ele>
        <time>2022-12-22T17:09:50.618Z</time>
      </trkpt>
      <trkpt lat="45.43806" lon="-1.0439">
        <ele>48.760223</ele>
        <time>2022-12-22T17:09:53.612Z</time>
      </trkpt>
      <trkpt lat="45.43796" lon="-1.0438">
        <ele>48.648746</ele>
        <time>2022-12-22T17:09:56.591Z</time>
      </trkpt>
      <trkpt lat="45.43786" lon="-1.0437">
        <ele>48.541913</ele>
        <time>2022-12-22T17:09:59.620Z</time>
      </trkpt>
      <trkpt lat="45.43775" lon="-1.04359">
        <ele>48.427906</ele>
        <time>2022-12-22T17:10:02.620Z</time>
      </trkpt>
      <trkpt lat="45.43765" lon="-1.04348">
        <ele>48.31171</ele>
        <time>2022-12-22T17:10:05.620Z</time>
      </trkpt>
      <trkpt lat="45.43758" lon="-1.04339">
        <ele>48.231725</ele>
        <time>2022-12-22T17:10:07.618Z</time>
      </trkpt>
      <trkpt lat="45.43751" lon="-1.04329">
        <ele>48.149588</ele>
        <time>2022-12-22T17:10:09.612Z</time>
      </trkpt>
      <trkpt lat="45.43741" lon="-1.04318">
        <ele>48.038009</ele>
        <time>2022-12-22T17:10:12.621Z</time>
      </trkpt>
      <trkpt lat="45.43733" lon="-1.04309">
        <ele>47.947129</ele>
        <time>2022-12-22T17:10:15.618Z</time>
      </trkpt>
      <trkpt lat="45.43726" lon="-1.04298">
        <ele>47.850277</ele>
        <time>2022-12-22T17:10:18.597Z</time>
      </trkpt>
      <trkpt lat="45.43718" lon="-1.04289">
        <ele>47.766612</ele>
        <time>2022-12-22T17:10:21.619Z</time>
      </trkpt>
      <trkpt lat="45.43711" lon="-1.0428">
        <ele>47.676959</ele>
        <time>2022-12-22T17:10:24.622Z</time>
      </trkpt>
      <trkpt lat="45.43701" lon="-1.04269">
        <ele>47.569209</ele>
        <time>2022-12-22T17:10:27.605Z</time>
      </trkpt>
      <trkpt lat="45.43692" lon="-1.04256">
        <ele>47.457347</ele>
        <time>2022-12-22T17:10:30.624Z</time>
      </trkpt>
      <trkpt lat="45.43683" lon="-1.04242">
        <ele>47.336258</ele>
        <time>2022-12-22T17:10:33.630Z</time>
      </trkpt>
      <trkpt lat="45.43676" lon="-1.04231">
        <ele>47.249769</ele>
        <time>2022-12-22T17:10:35.614Z</time>
      </trkpt>
      <trkpt lat="45.4367" lon="-1.0422">
        <ele>47.185924</ele>
        <time>2022-12-22T17:10:37.623Z</time>
      </trkpt>
      <trkpt lat="45.43664" lon="-1.0421">
        <ele>47.176024</ele>
        <time>2022-12-22T17:10:39.619Z</time>
      </trkpt>
      <trkpt lat="45.43658" lon="-1.04199">
        <ele>47.165766</ele>
        <time>2022-12-22T17:10:41.622Z</time>
      </trkpt>
      <trkpt lat="45.43652" lon="-1.04189">
        <ele>47.156038</ele>
        <time>2022-12-22T17:10:43.622Z</time>
      </trkpt>
      <trkpt lat="45.43645" lon="-1.04179">
        <ele>47.145308</ele>
        <time>2022-12-22T17:10:45.621Z</time>
      </trkpt>
      <trkpt lat="45.43636" lon="-1.04165">
        <ele>47.130791</ele>
        <time>2022-12-22T17:10:48.622Z</time>
      </trkpt>
      <trkpt lat="45.4363" lon="-1.04155">
        <ele>47.120797</ele>
        <time>2022-12-22T17:10:50.622Z</time>
      </trkpt>
      <trkpt lat="45.43624" lon="-1.04145">
        <ele>47.110442</ele>
        <time>2022-12-22T17:10:52.607Z</time>
      </trkpt>
      <trkpt lat="45.43615" lon="-1.04132">
        <ele>47.097189</ele>
        <time>2022-12-22T17:10:55.611Z</time>
      </trkpt>
      <trkpt lat="45.43607" lon="-1.04119">
        <ele>47.084373</ele>
        <time>2022-12-22T17:10:58.596Z</time>
      </trkpt>
      <trkpt lat="45.43599" lon="-1.04106">
        <ele>47.071701</ele>
        <time>2022-12-22T17:11:01.602Z</time>
      </trkpt>
      <trkpt lat="45.43591" lon="-1.04093">
        <ele>47.058665</ele>
        <time>2022-12-22T17:11:04.596Z</time>
      </trkpt>
      <trkpt lat="45.43585" lon="-1.04083">
        <ele>47.048994</ele>
        <time>2022-12-22T17:11:06.599Z</time>
      </trkpt>
      <trkpt lat="45.43576" lon="-1.0407">
        <ele>47.035376</ele>
        <time>2022-12-22T17:11:09.603Z</time>
      </trkpt>
      <trkpt lat="45.43569" lon="-1.04058">
        <ele>47.023116</ele>
        <time>2022-12-22T17:11:12.593Z</time>
      </trkpt>
      <trkpt lat="45.43562" lon="-1.04045">
        <ele>47.010896</ele>
        <time>2022-12-22T17:11:15.590Z</time>
      </trkpt>
      <trkpt lat="45.43554" lon="-1.04032">
        <ele>46.998176</ele>
        <time>2022-12-22T17:11:18.588Z</time>
      </trkpt>
      <trkpt lat="45.43546" lon="-1.04019">
        <ele>47.094405</ele>
        <time>2022-12-22T17:11:21.606Z</time>
      </trkpt>
      <trkpt lat="45.43539" lon="-1.04006">
        <ele>47.200385</ele>
        <time>2022-12-22T17:11:24.619Z</time>
      </trkpt>
      <trkpt lat="45.43531" lon="-1.03995">
        <ele>47.29652</ele>
        <time>2022-12-22T17:11:27.601Z</time>
      </trkpt>
      <trkpt lat="45.43522" lon="-1.03982">
        <ele>47.409563</ele>
        <time>2022-12-22T17:11:30.603Z</time>
      </trkpt>
      <trkpt lat="45.43514" lon="-1.03969">
        <ele>47.514282</ele>
        <time>2022-12-22T17:11:33.599Z</time>
      </trkpt>
      <trkpt lat="45.43507" lon="-1.03957">
        <ele>47.617225</ele>
        <time>2022-12-22T17:11:36.600Z</time>
      </trkpt>
      <trkpt lat="45.43499" lon="-1.03945">
        <ele>47.720744</ele>
        <time>2022-12-22T17:11:39.613Z</time>
      </trkpt>
      <trkpt lat="45.43492" lon="-1.03933">
        <ele>47.816638</ele>
        <time>2022-12-22T17:11:42.595Z</time>
      </trkpt>
      <trkpt lat="45.43485" lon="-1.03919">
        <ele>47.922503</ele>
        <time>2022-12-22T17:11:45.593Z</time>
      </trkpt>
      <trkpt lat="45.43476" lon="-1.03906">
        <ele>48.036152</ele>
        <time>2022-12-22T17:11:48.603Z</time>
      </trkpt>
      <trkpt lat="45.43468" lon="-1.03892">
        <ele>48.14868</ele>
        <time>2022-12-22T17:11:51.606Z</time>
      </trkpt>
      <trkpt lat="45.43459" lon="-1.03878">
        <ele>48.260738</ele>
        <time>2022-12-22T17:11:54.615Z</time>
      </trkpt>
      <trkpt lat="45.43451" lon="-1.03865">
        <ele>48.368706</ele>
        <time>2022-12-22T17:11:57.600Z</time>
      </trkpt>
      <trkpt lat="45.43444" lon="-1.03854">
        <ele>48.46708</ele>
        <time>2022-12-22T17:12:00.600Z</time>
      </trkpt>
      <trkpt lat="45.43437" lon="-1.03844">
        <ele>48.551978</ele>
        <time>2022-12-22T17:12:03.587Z</time>
      </trkpt>
      <trkpt lat="45.43429" lon="-1.03833">
        <ele>48.513967</ele>
        <time>2022-12-22T17:12:06.612Z</time>
      </trkpt>
      <trkpt lat="45.4342" lon="-1.03822">
        <ele>48.383818</ele>
        <time>2022-12-22T17:12:09.629Z</time>
      </trkpt>
      <trkpt lat="45.4341" lon="-1.03814">
        <ele>48.260961</ele>
        <time>2022-12-22T17:12:12.596Z</time>
      </trkpt>
      <trkpt lat="45.43401" lon="-1.03804">
        <ele>48.129882</ele>
        <time>2022-12-22T17:12:15.615Z</time>
      </trkpt>
      <trkpt lat="45.4339" lon="-1.03795">
        <ele>47.991781</ele>
        <time>2022-12-22T17:12:18.611Z</time>
      </trkpt>
      <trkpt lat="45.4338" lon="-1.03786">
        <ele>47.857836</ele>
        <time>2022-12-22T17:12:21.609Z</time>
      </trkpt>
      <trkpt lat="45.4337" lon="-1.03777">
        <ele>47.727133</ele>
        <time>2022-12-22T17:12:24.602Z</time>
      </trkpt>
      <trkpt lat="45.43362" lon="-1.0377">
        <ele>47.627336</ele>
        <time>2022-12-22T17:12:26.604Z</time>
      </trkpt>
      <trkpt lat="45.43354" lon="-1.03763">
        <ele>47.523187</ele>
        <time>2022-12-22T17:12:28.603Z</time>
      </trkpt>
      <trkpt lat="45.43344" lon="-1.03753">
        <ele>47.388462</ele>
        <time>2022-12-22T17:12:31.621Z</time>
      </trkpt>
      <trkpt lat="45.43334" lon="-1.03742">
        <ele>47.251713</ele>
        <time>2022-12-22T17:12:34.619Z</time>
      </trkpt>
      <trkpt lat="45.43326" lon="-1.0373">
        <ele>47.116697</ele>
        <time>2022-12-22T17:12:37.594Z</time>
      </trkpt>
      <trkpt lat="45.43315" lon="-1.03716">
        <ele>46.953623</ele>
        <time>2022-12-22T17:12:40.601Z</time>
      </trkpt>
      <trkpt lat="45.43305" lon="-1.03706">
        <ele>46.820276</ele>
        <time>2022-12-22T17:12:43.619Z</time>
      </trkpt>
      <trkpt lat="45.43297" lon="-1.03691">
        <ele>46.676929</ele>
        <time>2022-12-22T17:12:46.598Z</time>
      </trkpt>
      <trkpt lat="45.43288" lon="-1.03678">
        <ele>46.597102</ele>
        <time>2022-12-22T17:12:49.608Z</time>
      </trkpt>
      <trkpt lat="45.4328" lon="-1.03664">
        <ele>46.588152</ele>
        <time>2022-12-22T17:12:52.608Z</time>
      </trkpt>
      <trkpt lat="45.43273" lon="-1.03654">
        <ele>46.581509</ele>
        <time>2022-12-22T17:12:54.611Z</time>
      </trkpt>
      <trkpt lat="45.43266" lon="-1.03644">
        <ele>46.574646</ele>
        <time>2022-12-22T17:12:56.610Z</time>
      </trkpt>
      <trkpt lat="45.43258" lon="-1.03631">
        <ele>46.566382</ele>
        <time>2022-12-22T17:12:59.596Z</time>
      </trkpt>
      <trkpt lat="45.43249" lon="-1.03618">
        <ele>46.557847</ele>
        <time>2022-12-22T17:13:02.611Z</time>
      </trkpt>
      <trkpt lat="45.4324" lon="-1.03606">
        <ele>46.549458</ele>
        <time>2022-12-22T17:13:05.592Z</time>
      </trkpt>
      <trkpt lat="45.43231" lon="-1.03595">
        <ele>46.541116</ele>
        <time>2022-12-22T17:13:08.588Z</time>
      </trkpt>
      <trkpt lat="45.43222" lon="-1.03584">
        <ele>46.533002</ele>
        <time>2022-12-22T17:13:11.622Z</time>
      </trkpt>
      <trkpt lat="45.43211" lon="-1.03574">
        <ele>46.524451</ele>
        <time>2022-12-22T17:13:14.610Z</time>
      </trkpt>
      <trkpt lat="45.43203" lon="-1.03567">
        <ele>46.517884</ele>
        <time>2022-12-22T17:13:17.621Z</time>
      </trkpt>
      <trkpt lat="45.43194" lon="-1.03559">
        <ele>46.510629</ele>
        <time>2022-12-22T17:13:21.601Z</time>
      </trkpt>
      <trkpt lat="45.43185" lon="-1.03552">
        <ele>46.503504</ele>
        <time>2022-12-22T17:13:25.611Z</time>
      </trkpt>
      <trkpt lat="45.43175" lon="-1.03544">
        <ele>46.495775</ele>
        <time>2022-12-22T17:13:29.600Z</time>
      </trkpt>
      <trkpt lat="45.43166" lon="-1.03538">
        <ele>46.489129</ele>
        <time>2022-12-22T17:13:32.594Z</time>
      </trkpt>
      <trkpt lat="45.43155" lon="-1.03534">
        <ele>46.481215</ele>
        <time>2022-12-22T17:13:36.602Z</time>
      </trkpt>
      <trkpt lat="45.43147" lon="-1.0353">
        <ele>46.461187</ele>
        <time>2022-12-22T17:13:39.616Z</time>
      </trkpt>
      <trkpt lat="45.43137" lon="-1.03526">
        <ele>46.424386</ele>
        <time>2022-12-22T17:13:42.598Z</time>
      </trkpt>
      <trkpt lat="45.43128" lon="-1.03523">
        <ele>46.389329</ele>
        <time>2022-12-22T17:13:45.617Z</time>
      </trkpt>
      <trkpt lat="45.43119" lon="-1.03521">
        <ele>46.356069</ele>
        <time>2022-12-22T17:13:48.593Z</time>
      </trkpt>
      <trkpt lat="45.43109" lon="-1.03518">
        <ele>46.321919</ele>
        <time>2022-12-22T17:13:52.595Z</time>
      </trkpt>
      <trkpt lat="45.43088" lon="-1.03515">
        <ele>46.245219</ele>
        <time>2022-12-22T17:17:35.602Z</time>
      </trkpt>
      <trkpt lat="45.43079" lon="-1.03514">
        <ele>46.210072</ele>
        <time>2022-12-22T17:17:39.615Z</time>
      </trkpt>
      <trkpt lat="45.43069" lon="-1.03514">
        <ele>46.173891</ele>
        <time>2022-12-22T17:17:43.619Z</time>
      </trkpt>
      <trkpt lat="45.43062" lon="-1.03505">
        <ele>46.140004</ele>
        <time>2022-12-22T17:17:48.624Z</time>
      </trkpt>
      <trkpt lat="45.4306" lon="-1.03488">
        <ele>46.096593</ele>
        <time>2022-12-22T17:17:53.617Z</time>
      </trkpt>
      <trkpt lat="45.43058" lon="-1.03474">
        <ele>46.059732</ele>
        <time>2022-12-22T17:17:56.599Z</time>
      </trkpt>
      <trkpt lat="45.43056" lon="-1.03459">
        <ele>46.020233</ele>
        <time>2022-12-22T17:17:59.600Z</time>
      </trkpt>
      <trkpt lat="45.43054" lon="-1.03443">
        <ele>45.98031</ele>
        <time>2022-12-22T17:18:02.591Z</time>
      </trkpt>
      <trkpt lat="45.43051" lon="-1.03428">
        <ele>45.940488</ele>
        <time>2022-12-22T17:18:05.586Z</time>
      </trkpt>
      <trkpt lat="45.43048" lon="-1.03414">
        <ele>45.902345</ele>
        <time>2022-12-22T17:18:08.589Z</time>
      </trkpt>
      <trkpt lat="45.43046" lon="-1.03399">
        <ele>45.862577</ele>
        <time>2022-12-22T17:18:12.598Z</time>
      </trkpt>
      <trkpt lat="45.4305" lon="-1.03376">
        <ele>45.802387</ele>
        <time>2022-12-22T17:18:36.670Z</time>
      </trkpt>
      <trkpt lat="45.43047" lon="-1.03363">
        <ele>45.77004</ele>
        <time>2022-12-22T17:18:39.620Z</time>
      </trkpt>
      <trkpt lat="45.43044" lon="-1.03349">
        <ele>45.734541</ele>
        <time>2022-12-22T17:18:42.596Z</time>
      </trkpt>
      <trkpt lat="45.4304" lon="-1.03335">
        <ele>45.699822</ele>
        <time>2022-12-22T17:18:45.600Z</time>
      </trkpt>
      <trkpt lat="45.43036" lon="-1.03322">
        <ele>45.665897</ele>
        <time>2022-12-22T17:18:48.596Z</time>
      </trkpt>
      <trkpt lat="45.43031" lon="-1.03311">
        <ele>45.634764</ele>
        <time>2022-12-22T17:18:51.594Z</time>
      </trkpt>
      <trkpt lat="45.43029" lon="-1.03297">
        <ele>45.601616</ele>
        <time>2022-12-22T17:18:55.593Z</time>
      </trkpt>
      <trkpt lat="45.43036" lon="-1.03284">
        <ele>45.562235</ele>
        <time>2022-12-22T17:19:00.593Z</time>
      </trkpt>
      <trkpt lat="45.43045" lon="-1.03272">
        <ele>45.521138</ele>
        <time>2022-12-22T17:19:04.599Z</time>
      </trkpt>
      <trkpt lat="45.43053" lon="-1.03263">
        <ele>45.485763</ele>
        <time>2022-12-22T17:19:07.596Z</time>
      </trkpt>
      <trkpt lat="45.43061" lon="-1.03254">
        <ele>45.450393</ele>
        <time>2022-12-22T17:19:10.594Z</time>
      </trkpt>
      <trkpt lat="45.43069" lon="-1.03245">
        <ele>45.41631</ele>
        <time>2022-12-22T17:19:13.599Z</time>
      </trkpt>
      <trkpt lat="45.43078" lon="-1.03233">
        <ele>45.376471</ele>
        <time>2022-12-22T17:19:17.597Z</time>
      </trkpt>
      <trkpt lat="45.43085" lon="-1.03224">
        <ele>45.344398</ele>
        <time>2022-12-22T17:19:20.597Z</time>
      </trkpt>
      <trkpt lat="45.43092" lon="-1.03214">
        <ele>45.309634</ele>
        <time>2022-12-22T17:19:23.605Z</time>
      </trkpt>
      <trkpt lat="45.431" lon="-1.03204">
        <ele>45.273564</ele>
        <time>2022-12-22T17:19:26.592Z</time>
      </trkpt>
      <trkpt lat="45.43108" lon="-1.03193">
        <ele>45.23758</ele>
        <time>2022-12-22T17:19:29.603Z</time>
      </trkpt>
      <trkpt lat="45.43115" lon="-1.03183">
        <ele>45.209333</ele>
        <time>2022-12-22T17:19:32.610Z</time>
      </trkpt>
      <trkpt lat="45.43121" lon="-1.03172">
        <ele>45.201794</ele>
        <time>2022-12-22T17:19:35.596Z</time>
      </trkpt>
      <trkpt lat="45.43127" lon="-1.03162">
        <ele>45.194936</ele>
        <time>2022-12-22T17:19:38.623Z</time>
      </trkpt>
      <trkpt lat="45.43135" lon="-1.03153">
        <ele>45.187374</ele>
        <time>2022-12-22T17:19:41.599Z</time>
      </trkpt>
      <trkpt lat="45.43142" lon="-1.03142">
        <ele>45.179411</ele>
        <time>2022-12-22T17:19:44.600Z</time>
      </trkpt>
      <trkpt lat="45.43149" lon="-1.03131">
        <ele>45.171471</ele>
        <time>2022-12-22T17:19:47.597Z</time>
      </trkpt>
      <trkpt lat="45.43156" lon="-1.03122">
        <ele>45.164358</ele>
        <time>2022-12-22T17:19:50.595Z</time>
      </trkpt>
      <trkpt lat="45.43163" lon="-1.0311">
        <ele>45.156641</ele>
        <time>2022-12-22T17:19:53.604Z</time>
      </trkpt>
      <trkpt lat="45.43169" lon="-1.03097">
        <ele>45.148219</ele>
        <time>2022-12-22T17:19:56.598Z</time>
      </trkpt>
      <trkpt lat="45.43174" lon="-1.03084">
        <ele>45.140181</ele>
        <time>2022-12-22T17:19:59.603Z</time>
      </trkpt>
      <trkpt lat="45.43178" lon="-1.03071">
        <ele>45.132521</ele>
        <time>2022-12-22T17:20:02.605Z</time>
      </trkpt>
      <trkpt lat="45.43181" lon="-1.03058">
        <ele>45.125312</ele>
        <time>2022-12-22T17:20:05.591Z</time>
      </trkpt>
      <trkpt lat="45.43184" lon="-1.03044">
        <ele>45.117497</ele>
        <time>2022-12-22T17:20:08.620Z</time>
      </trkpt>
      <trkpt lat="45.43187" lon="-1.03029">
        <ele>45.109086</ele>
        <time>2022-12-22T17:20:11.613Z</time>
      </trkpt>
      <trkpt lat="45.43191" lon="-1.03015">
        <ele>45.101429</ele>
        <time>2022-12-22T17:20:14.611Z</time>
      </trkpt>
      <trkpt lat="45.43195" lon="-1.03003">
        <ele>45.094463</ele>
        <time>2022-12-22T17:20:17.618Z</time>
      </trkpt>
      <trkpt lat="45.43199" lon="-1.02989">
        <ele>45.086006</ele>
        <time>2022-12-22T17:20:21.598Z</time>
      </trkpt>
      <trkpt lat="45.43201" lon="-1.02974">
        <ele>45.078026</ele>
        <time>2022-12-22T17:20:25.620Z</time>
      </trkpt>
      <trkpt lat="45.43198" lon="-1.02959">
        <ele>45.075379</ele>
        <time>2022-12-22T17:20:29.603Z</time>
      </trkpt>
      <trkpt lat="45.43193" lon="-1.02945">
        <ele>45.075379</ele>
        <time>2022-12-22T17:20:33.607Z</time>
      </trkpt>
      <trkpt lat="45.43188" lon="-1.0293">
        <ele>45.075379</ele>
        <time>2022-12-22T17:20:37.622Z</time>
      </trkpt>
      <trkpt lat="45.43183" lon="-1.02917">
        <ele>45.075379</ele>
        <time>2022-12-22T17:20:40.618Z</time>
      </trkpt>
      <trkpt lat="45.43179" lon="-1.02906">
        <ele>45.075379</ele>
        <time>2022-12-22T17:20:43.604Z</time>
      </trkpt>
      <trkpt lat="45.43172" lon="-1.02896">
        <ele>45.075379</ele>
        <time>2022-12-22T17:20:46.619Z</time>
      </trkpt>
      <trkpt lat="45.43161" lon="-1.02894">
        <ele>45.075379</ele>
        <time>2022-12-22T17:20:50.590Z</time>
      </trkpt>
      <trkpt lat="45.43151" lon="-1.02889">
        <ele>45.075379</ele>
        <time>2022-12-22T17:20:55.603Z</time>
      </trkpt>
      <trkpt lat="45.43149" lon="-1.02875">
        <ele>45.075379</ele>
        <time>2022-12-22T17:21:01.621Z</time>
      </trkpt>
      <trkpt lat="45.43154" lon="-1.02861">
        <ele>45.075379</ele>
        <time>2022-12-22T17:21:06.597Z</time>
      </trkpt>
      <trkpt lat="45.43161" lon="-1.0285">
        <ele>45.075379</ele>
        <time>2022-12-22T17:21:11.595Z</time>
      </trkpt>
      <trkpt lat="45.43167" lon="-1.02841">
        <ele>45.075379</ele>
        <time>2022-12-22T17:21:16.597Z</time>
      </trkpt>
      <trkpt lat="45.43173" lon="-1.02831">
        <ele>45.075379</ele>
        <time>2022-12-22T17:21:21.605Z</time>
      </trkpt>
      <trkpt lat="45.43179" lon="-1.02821">
        <ele>45.075379</ele>
        <time>2022-12-22T17:21:33.593Z</time>
      </trkpt>
      <trkpt lat="45.43188" lon="-1.02816">
        <ele>45.075379</ele>
        <time>2022-12-22T17:21:38.596Z</time>
      </trkpt>
      <trkpt lat="45.43197" lon="-1.02811">
        <ele>45.075379</ele>
        <time>2022-12-22T17:21:42.617Z</time>
      </trkpt>
      <trkpt lat="45.43206" lon="-1.02806">
        <ele>45.075379</ele>
        <time>2022-12-22T17:21:46.596Z</time>
      </trkpt>
      <trkpt lat="45.43215" lon="-1.02801">
        <ele>45.075379</ele>
        <time>2022-12-22T17:21:51.599Z</time>
      </trkpt>
      <trkpt lat="45.43225" lon="-1.02799">
        <ele>45.075379</ele>
        <time>2022-12-22T17:21:56.591Z</time>
      </trkpt>
      <trkpt lat="45.43231" lon="-1.02804">
        <ele>45.075379</ele>
        <time>2022-12-22T17:22:23.466Z</time>
      </trkpt>
    </trkseg>
  </trk>
  <trk>
    <name><![CDATA[St-Vivien du Médoc - Le Porge]]></name>
    <extensions>
      <line xmlns="http://www.topografix.com/GPX/gpx_style/0/2">
        <color>ff0000</color>
        <width>4</width>
      </line>
    </extensions>
    <trkseg>
      <trkpt lat="45.43197" lon="-1.02737">
        <ele>44.782265</ele>
        <time>2022-12-23T08:11:59.076Z</time>
      </trkpt>
      <trkpt lat="45.43188" lon="-1.02741">
        <ele>44.782265</ele>
        <time>2022-12-23T08:12:31.725Z</time>
      </trkpt>
      <trkpt lat="45.4318" lon="-1.02757">
        <ele>44.782265</ele>
        <time>2022-12-23T08:12:58.729Z</time>
      </trkpt>
      <trkpt lat="45.43173" lon="-1.02769">
        <ele>44.782265</ele>
        <time>2022-12-23T08:13:05.724Z</time>
      </trkpt>
      <trkpt lat="45.43173" lon="-1.02784">
        <ele>44.782265</ele>
        <time>2022-12-23T08:13:10.737Z</time>
      </trkpt>
      <trkpt lat="45.43176" lon="-1.02798">
        <ele>44.782265</ele>
        <time>2022-12-23T08:13:14.728Z</time>
      </trkpt>
      <trkpt lat="45.43177" lon="-1.02811">
        <ele>44.782265</ele>
        <time>2022-12-23T08:13:18.732Z</time>
      </trkpt>
      <trkpt lat="45.43175" lon="-1.02823">
        <ele>44.782265</ele>
        <time>2022-12-23T08:13:22.743Z</time>
      </trkpt>
      <trkpt lat="45.4317" lon="-1.02834">
        <ele>44.782265</ele>
        <time>2022-12-23T08:13:26.743Z</time>
      </trkpt>
      <trkpt lat="45.43163" lon="-1.02843">
        <ele>44.813821</ele>
        <time>2022-12-23T08:13:30.743Z</time>
      </trkpt>
      <trkpt lat="45.43156" lon="-1.02854">
        <ele>45.034366</ele>
        <time>2022-12-23T08:13:36.730Z</time>
      </trkpt>
      <trkpt lat="45.4315" lon="-1.02868">
        <ele>45.265315</ele>
        <time>2022-12-23T08:13:41.727Z</time>
      </trkpt>
      <trkpt lat="45.43152" lon="-1.02883">
        <ele>45.485726</ele>
        <time>2022-12-23T08:13:46.723Z</time>
      </trkpt>
      <trkpt lat="45.43163" lon="-1.02887">
        <ele>45.721864</ele>
        <time>2022-12-23T08:13:52.721Z</time>
      </trkpt>
      <trkpt lat="45.43172" lon="-1.02891">
        <ele>45.925613</ele>
        <time>2022-12-23T08:13:55.725Z</time>
      </trkpt>
      <trkpt lat="45.4318" lon="-1.029">
        <ele>46.133012</ele>
        <time>2022-12-23T08:13:58.729Z</time>
      </trkpt>
      <trkpt lat="45.43185" lon="-1.02912">
        <ele>46.345527</ele>
        <time>2022-12-23T08:14:01.734Z</time>
      </trkpt>
      <trkpt lat="45.4319" lon="-1.02924">
        <ele>46.541213</ele>
        <time>2022-12-23T08:14:04.739Z</time>
      </trkpt>
      <trkpt lat="45.43194" lon="-1.02938">
        <ele>46.766536</ele>
        <time>2022-12-23T08:14:08.739Z</time>
      </trkpt>
      <trkpt lat="45.43197" lon="-1.02952">
        <ele>46.980555</ele>
        <time>2022-12-23T08:14:13.728Z</time>
      </trkpt>
      <trkpt lat="45.43205" lon="-1.02961">
        <ele>47.194934</ele>
        <time>2022-12-23T08:14:18.722Z</time>
      </trkpt>
      <trkpt lat="45.43215" lon="-1.02958">
        <ele>47.416923</ele>
        <time>2022-12-23T08:14:23.736Z</time>
      </trkpt>
      <trkpt lat="45.43224" lon="-1.0295">
        <ele>47.638352</ele>
        <time>2022-12-23T08:14:28.745Z</time>
      </trkpt>
      <trkpt lat="45.43232" lon="-1.02943">
        <ele>47.83077</ele>
        <time>2022-12-23T08:14:32.725Z</time>
      </trkpt>
      <trkpt lat="45.43223" lon="-1.0295">
        <ele>48.04316</ele>
        <time>2022-12-23T08:15:10.724Z</time>
      </trkpt>
      <trkpt lat="45.43215" lon="-1.02956">
        <ele>48.241484</ele>
        <time>2022-12-23T08:15:13.721Z</time>
      </trkpt>
      <trkpt lat="45.43207" lon="-1.02965">
        <ele>48.449829</ele>
        <time>2022-12-23T08:15:16.721Z</time>
      </trkpt>
      <trkpt lat="45.43201" lon="-1.02976">
        <ele>48.580402</ele>
        <time>2022-12-23T08:15:19.719Z</time>
      </trkpt>
      <trkpt lat="45.43195" lon="-1.0299">
        <ele>48.675917</ele>
        <time>2022-12-23T08:15:23.720Z</time>
      </trkpt>
      <trkpt lat="45.43191" lon="-1.03003">
        <ele>48.751004</ele>
        <time>2022-12-23T08:15:26.742Z</time>
      </trkpt>
      <trkpt lat="45.43188" lon="-1.03016">
        <ele>48.833004</ele>
        <time>2022-12-23T08:15:29.726Z</time>
      </trkpt>
      <trkpt lat="45.43184" lon="-1.03031">
        <ele>48.92056</ele>
        <time>2022-12-23T08:15:32.725Z</time>
      </trkpt>
      <trkpt lat="45.43181" lon="-1.03046">
        <ele>49.006647</ele>
        <time>2022-12-23T08:15:35.743Z</time>
      </trkpt>
      <trkpt lat="45.43178" lon="-1.03061">
        <ele>49.094734</ele>
        <time>2022-12-23T08:15:38.737Z</time>
      </trkpt>
      <trkpt lat="45.43175" lon="-1.03075">
        <ele>49.172642</ele>
        <time>2022-12-23T08:15:41.742Z</time>
      </trkpt>
      <trkpt lat="45.43171" lon="-1.03088">
        <ele>49.252163</ele>
        <time>2022-12-23T08:15:44.726Z</time>
      </trkpt>
      <trkpt lat="45.43166" lon="-1.03099">
        <ele>49.330028</ele>
        <time>2022-12-23T08:15:47.719Z</time>
      </trkpt>
      <trkpt lat="45.4316" lon="-1.03113">
        <ele>49.422067</ele>
        <time>2022-12-23T08:15:51.744Z</time>
      </trkpt>
      <trkpt lat="45.43154" lon="-1.03123">
        <ele>49.49511</ele>
        <time>2022-12-23T08:15:54.722Z</time>
      </trkpt>
      <trkpt lat="45.43145" lon="-1.03135">
        <ele>49.591276</ele>
        <time>2022-12-23T08:15:58.730Z</time>
      </trkpt>
      <trkpt lat="45.43138" lon="-1.03145">
        <ele>49.672686</ele>
        <time>2022-12-23T08:16:01.743Z</time>
      </trkpt>
      <trkpt lat="45.4313" lon="-1.03154">
        <ele>49.751377</ele>
        <time>2022-12-23T08:16:04.726Z</time>
      </trkpt>
      <trkpt lat="45.43122" lon="-1.03166">
        <ele>49.844525</ele>
        <time>2022-12-23T08:16:08.735Z</time>
      </trkpt>
      <trkpt lat="45.43115" lon="-1.03175">
        <ele>49.918438</ele>
        <time>2022-12-23T08:16:11.747Z</time>
      </trkpt>
      <trkpt lat="45.43108" lon="-1.03184">
        <ele>50.003171</ele>
        <time>2022-12-23T08:16:14.718Z</time>
      </trkpt>
      <trkpt lat="45.43101" lon="-1.03194">
        <ele>50.095993</ele>
        <time>2022-12-23T08:16:17.749Z</time>
      </trkpt>
      <trkpt lat="45.43094" lon="-1.03204">
        <ele>50.190036</ele>
        <time>2022-12-23T08:16:20.725Z</time>
      </trkpt>
      <trkpt lat="45.43087" lon="-1.03214">
        <ele>50.290847</ele>
        <time>2022-12-23T08:16:23.734Z</time>
      </trkpt>
      <trkpt lat="45.43079" lon="-1.03224">
        <ele>50.389794</ele>
        <time>2022-12-23T08:16:26.745Z</time>
      </trkpt>
      <trkpt lat="45.43071" lon="-1.03233">
        <ele>50.489279</ele>
        <time>2022-12-23T08:16:29.752Z</time>
      </trkpt>
      <trkpt lat="45.43064" lon="-1.03243">
        <ele>50.586632</ele>
        <time>2022-12-23T08:16:32.728Z</time>
      </trkpt>
      <trkpt lat="45.43057" lon="-1.03253">
        <ele>50.684781</ele>
        <time>2022-12-23T08:16:35.734Z</time>
      </trkpt>
      <trkpt lat="45.43049" lon="-1.03263">
        <ele>50.791717</ele>
        <time>2022-12-23T08:16:39.745Z</time>
      </trkpt>
      <trkpt lat="45.43042" lon="-1.03272">
        <ele>50.879371</ele>
        <time>2022-12-23T08:16:43.743Z</time>
      </trkpt>
      <trkpt lat="45.43034" lon="-1.03282">
        <ele>50.981511</ele>
        <time>2022-12-23T08:16:47.735Z</time>
      </trkpt>
      <trkpt lat="45.43028" lon="-1.03293">
        <ele>51.079459</ele>
        <time>2022-12-23T08:16:51.724Z</time>
      </trkpt>
      <trkpt lat="45.43029" lon="-1.03306">
        <ele>51.1686</ele>
        <time>2022-12-23T08:16:55.726Z</time>
      </trkpt>
      <trkpt lat="45.43034" lon="-1.03321">
        <ele>51.282742</ele>
        <time>2022-12-23T08:16:59.744Z</time>
      </trkpt>
      <trkpt lat="45.43036" lon="-1.03334">
        <ele>51.374527</ele>
        <time>2022-12-23T08:17:02.746Z</time>
      </trkpt>
      <trkpt lat="45.43039" lon="-1.03347">
        <ele>51.466769</ele>
        <time>2022-12-23T08:17:05.730Z</time>
      </trkpt>
      <trkpt lat="45.43042" lon="-1.0336">
        <ele>51.556307</ele>
        <time>2022-12-23T08:17:08.733Z</time>
      </trkpt>
      <trkpt lat="45.43045" lon="-1.03372">
        <ele>51.647747</ele>
        <time>2022-12-23T08:17:11.746Z</time>
      </trkpt>
      <trkpt lat="45.43048" lon="-1.03385">
        <ele>51.735504</ele>
        <time>2022-12-23T08:17:14.746Z</time>
      </trkpt>
      <trkpt lat="45.4305" lon="-1.03397">
        <ele>51.822064</ele>
        <time>2022-12-23T08:17:17.731Z</time>
      </trkpt>
      <trkpt lat="45.43052" lon="-1.03411">
        <ele>51.914325</ele>
        <time>2022-12-23T08:17:20.738Z</time>
      </trkpt>
      <trkpt lat="45.43054" lon="-1.03424">
        <ele>52.008766</ele>
        <time>2022-12-23T08:17:23.742Z</time>
      </trkpt>
      <trkpt lat="45.43057" lon="-1.0344">
        <ele>52.117186</ele>
        <time>2022-12-23T08:17:27.745Z</time>
      </trkpt>
      <trkpt lat="45.4306" lon="-1.03456">
        <ele>52.227288</ele>
        <time>2022-12-23T08:17:32.749Z</time>
      </trkpt>
      <trkpt lat="45.43061" lon="-1.0347">
        <ele>52.324524</ele>
        <time>2022-12-23T08:17:36.744Z</time>
      </trkpt>
      <trkpt lat="45.43063" lon="-1.03483">
        <ele>52.416727</ele>
        <time>2022-12-23T08:17:40.747Z</time>
      </trkpt>
      <trkpt lat="45.43065" lon="-1.03497">
        <ele>52.510114</ele>
        <time>2022-12-23T08:17:44.746Z</time>
      </trkpt>
      <trkpt lat="45.43062" lon="-1.03509">
        <ele>52.596861</ele>
        <time>2022-12-23T08:17:50.729Z</time>
      </trkpt>
      <trkpt lat="45.43052" lon="-1.03511">
        <ele>52.687118</ele>
        <time>2022-12-23T08:17:54.722Z</time>
      </trkpt>
      <trkpt lat="45.4304" lon="-1.03511">
        <ele>52.804243</ele>
        <time>2022-12-23T08:17:58.747Z</time>
      </trkpt>
      <trkpt lat="45.4303" lon="-1.0351">
        <ele>52.904103</ele>
        <time>2022-12-23T08:18:01.731Z</time>
      </trkpt>
      <trkpt lat="45.4302" lon="-1.0351">
        <ele>53.001989</ele>
        <time>2022-12-23T08:18:04.754Z</time>
      </trkpt>
      <trkpt lat="45.43009" lon="-1.0351">
        <ele>53.100853</ele>
        <time>2022-12-23T08:18:07.746Z</time>
      </trkpt>
      <trkpt lat="45.43" lon="-1.0351">
        <ele>53.193939</ele>
        <time>2022-12-23T08:18:10.747Z</time>
      </trkpt>
      <trkpt lat="45.4299" lon="-1.03511">
        <ele>53.285307</ele>
        <time>2022-12-23T08:18:13.735Z</time>
      </trkpt>
      <trkpt lat="45.42981" lon="-1.03511">
        <ele>53.374564</ele>
        <time>2022-12-23T08:18:16.728Z</time>
      </trkpt>
      <trkpt lat="45.42969" lon="-1.03511">
        <ele>53.496658</ele>
        <time>2022-12-23T08:18:20.741Z</time>
      </trkpt>
      <trkpt lat="45.42959" lon="-1.03511">
        <ele>53.610179</ele>
        <time>2022-12-23T08:18:23.749Z</time>
      </trkpt>
      <trkpt lat="45.42949" lon="-1.03512">
        <ele>53.72837</ele>
        <time>2022-12-23T08:18:26.749Z</time>
      </trkpt>
      <trkpt lat="45.42939" lon="-1.03512">
        <ele>53.85114</ele>
        <time>2022-12-23T08:18:29.728Z</time>
      </trkpt>
      <trkpt lat="45.42929" lon="-1.03513">
        <ele>53.962423</ele>
        <time>2022-12-23T08:18:32.742Z</time>
      </trkpt>
      <trkpt lat="45.4292" lon="-1.03512">
        <ele>54.071645</ele>
        <time>2022-12-23T08:18:35.744Z</time>
      </trkpt>
      <trkpt lat="45.4291" lon="-1.03509">
        <ele>54.186133</ele>
        <time>2022-12-23T08:18:38.728Z</time>
      </trkpt>
      <trkpt lat="45.42901" lon="-1.03504">
        <ele>54.300129</ele>
        <time>2022-12-23T08:18:41.743Z</time>
      </trkpt>
      <trkpt lat="45.42892" lon="-1.03498">
        <ele>54.419116</ele>
        <time>2022-12-23T08:18:44.730Z</time>
      </trkpt>
      <trkpt lat="45.42882" lon="-1.03494">
        <ele>54.541425</ele>
        <time>2022-12-23T08:18:47.737Z</time>
      </trkpt>
      <trkpt lat="45.42872" lon="-1.03491">
        <ele>54.664642</ele>
        <time>2022-12-23T08:18:50.744Z</time>
      </trkpt>
      <trkpt lat="45.42862" lon="-1.03487">
        <ele>54.785401</ele>
        <time>2022-12-23T08:18:53.745Z</time>
      </trkpt>
      <trkpt lat="45.42852" lon="-1.03484">
        <ele>54.904623</ele>
        <time>2022-12-23T08:18:56.740Z</time>
      </trkpt>
      <trkpt lat="45.42842" lon="-1.03479">
        <ele>55.02659</ele>
        <time>2022-12-23T08:18:59.746Z</time>
      </trkpt>
      <trkpt lat="45.42833" lon="-1.03474">
        <ele>55.142888</ele>
        <time>2022-12-23T08:19:02.744Z</time>
      </trkpt>
      <trkpt lat="45.42824" lon="-1.0347">
        <ele>55.251023</ele>
        <time>2022-12-23T08:19:05.735Z</time>
      </trkpt>
      <trkpt lat="45.42815" lon="-1.03466">
        <ele>55.361463</ele>
        <time>2022-12-23T08:19:08.746Z</time>
      </trkpt>
      <trkpt lat="45.42806" lon="-1.03462">
        <ele>55.470742</ele>
        <time>2022-12-23T08:19:11.749Z</time>
      </trkpt>
      <trkpt lat="45.42797" lon="-1.03458">
        <ele>55.588425</ele>
        <time>2022-12-23T08:19:14.746Z</time>
      </trkpt>
      <trkpt lat="45.42786" lon="-1.03452">
        <ele>55.782227</ele>
        <time>2022-12-23T08:19:18.741Z</time>
      </trkpt>
      <trkpt lat="45.42776" lon="-1.03446">
        <ele>55.978924</ele>
        <time>2022-12-23T08:19:22.748Z</time>
      </trkpt>
      <trkpt lat="45.42767" lon="-1.03441">
        <ele>56.131411</ele>
        <time>2022-12-23T08:19:25.747Z</time>
      </trkpt>
      <trkpt lat="45.42758" lon="-1.03436">
        <ele>56.292603</ele>
        <time>2022-12-23T08:19:28.731Z</time>
      </trkpt>
      <trkpt lat="45.42749" lon="-1.03432">
        <ele>56.453794</ele>
        <time>2022-12-23T08:19:31.748Z</time>
      </trkpt>
      <trkpt lat="45.42738" lon="-1.03425">
        <ele>56.650042</ele>
        <time>2022-12-23T08:19:35.728Z</time>
      </trkpt>
      <trkpt lat="45.4273" lon="-1.03421">
        <ele>56.802943</ele>
        <time>2022-12-23T08:19:38.730Z</time>
      </trkpt>
      <trkpt lat="45.42721" lon="-1.03416">
        <ele>56.9585</ele>
        <time>2022-12-23T08:19:41.750Z</time>
      </trkpt>
      <trkpt lat="45.42713" lon="-1.03411">
        <ele>57.112694</ele>
        <time>2022-12-23T08:19:44.742Z</time>
      </trkpt>
      <trkpt lat="45.42702" lon="-1.03404">
        <ele>57.311398</ele>
        <time>2022-12-23T08:19:48.754Z</time>
      </trkpt>
      <trkpt lat="45.42691" lon="-1.03398">
        <ele>57.51104</ele>
        <time>2022-12-23T08:19:52.735Z</time>
      </trkpt>
      <trkpt lat="45.42681" lon="-1.03392">
        <ele>57.690879</ele>
        <time>2022-12-23T08:19:56.731Z</time>
      </trkpt>
      <trkpt lat="45.42671" lon="-1.03386">
        <ele>57.872165</ele>
        <time>2022-12-23T08:20:00.730Z</time>
      </trkpt>
      <trkpt lat="45.42662" lon="-1.03378">
        <ele>58.05609</ele>
        <time>2022-12-23T08:20:04.730Z</time>
      </trkpt>
      <trkpt lat="45.42652" lon="-1.03369">
        <ele>58.249337</ele>
        <time>2022-12-23T08:20:08.728Z</time>
      </trkpt>
      <trkpt lat="45.42642" lon="-1.0336">
        <ele>58.451355</ele>
        <time>2022-12-23T08:20:12.741Z</time>
      </trkpt>
      <trkpt lat="45.42634" lon="-1.03353">
        <ele>58.582407</ele>
        <time>2022-12-23T08:20:15.749Z</time>
      </trkpt>
      <trkpt lat="45.42627" lon="-1.03346">
        <ele>58.622248</ele>
        <time>2022-12-23T08:20:18.751Z</time>
      </trkpt>
      <trkpt lat="45.42619" lon="-1.03339">
        <ele>58.662558</ele>
        <time>2022-12-23T08:20:21.750Z</time>
      </trkpt>
      <trkpt lat="45.42608" lon="-1.03333">
        <ele>58.712802</ele>
        <time>2022-12-23T08:20:24.729Z</time>
      </trkpt>
      <trkpt lat="45.42596" lon="-1.0333">
        <ele>58.764186</ele>
        <time>2022-12-23T08:20:27.728Z</time>
      </trkpt>
      <trkpt lat="45.42584" lon="-1.03328">
        <ele>58.815964</ele>
        <time>2022-12-23T08:20:30.738Z</time>
      </trkpt>
      <trkpt lat="45.42572" lon="-1.03325">
        <ele>58.868914</ele>
        <time>2022-12-23T08:20:33.750Z</time>
      </trkpt>
      <trkpt lat="45.42562" lon="-1.03324">
        <ele>58.914785</ele>
        <time>2022-12-23T08:20:36.749Z</time>
      </trkpt>
      <trkpt lat="45.42551" lon="-1.03322">
        <ele>58.960224</ele>
        <time>2022-12-23T08:20:39.725Z</time>
      </trkpt>
      <trkpt lat="45.4254" lon="-1.03321">
        <ele>59.008256</ele>
        <time>2022-12-23T08:20:42.745Z</time>
      </trkpt>
      <trkpt lat="45.42529" lon="-1.03318">
        <ele>59.057817</ele>
        <time>2022-12-23T08:20:45.751Z</time>
      </trkpt>
      <trkpt lat="45.42518" lon="-1.03315">
        <ele>59.105876</ele>
        <time>2022-12-23T08:20:48.749Z</time>
      </trkpt>
      <trkpt lat="45.42508" lon="-1.03314">
        <ele>59.152091</ele>
        <time>2022-12-23T08:20:51.752Z</time>
      </trkpt>
      <trkpt lat="45.42497" lon="-1.03311">
        <ele>59.197857</ele>
        <time>2022-12-23T08:20:54.745Z</time>
      </trkpt>
      <trkpt lat="45.42486" lon="-1.0331">
        <ele>59.245426</ele>
        <time>2022-12-23T08:20:57.750Z</time>
      </trkpt>
      <trkpt lat="45.42475" lon="-1.03308">
        <ele>59.295358</ele>
        <time>2022-12-23T08:21:00.747Z</time>
      </trkpt>
      <trkpt lat="45.42463" lon="-1.03306">
        <ele>59.346478</ele>
        <time>2022-12-23T08:21:03.749Z</time>
      </trkpt>
      <trkpt lat="45.42452" lon="-1.03303">
        <ele>59.094248</ele>
        <time>2022-12-23T08:21:06.749Z</time>
      </trkpt>
      <trkpt lat="45.42439" lon="-1.03302">
        <ele>58.76297</ele>
        <time>2022-12-23T08:21:09.752Z</time>
      </trkpt>
      <trkpt lat="45.42426" lon="-1.03301">
        <ele>58.395561</ele>
        <time>2022-12-23T08:21:12.749Z</time>
      </trkpt>
      <trkpt lat="45.42416" lon="-1.03301">
        <ele>58.133541</ele>
        <time>2022-12-23T08:21:14.723Z</time>
      </trkpt>
      <trkpt lat="45.42406" lon="-1.03301">
        <ele>57.871548</ele>
        <time>2022-12-23T08:21:16.749Z</time>
      </trkpt>
      <trkpt lat="45.42397" lon="-1.03302">
        <ele>57.612083</ele>
        <time>2022-12-23T08:21:18.749Z</time>
      </trkpt>
      <trkpt lat="45.42387" lon="-1.03303">
        <ele>57.354793</ele>
        <time>2022-12-23T08:21:20.737Z</time>
      </trkpt>
      <trkpt lat="45.42378" lon="-1.03304">
        <ele>57.097503</ele>
        <time>2022-12-23T08:21:22.743Z</time>
      </trkpt>
      <trkpt lat="45.42364" lon="-1.03304">
        <ele>56.724651</ele>
        <time>2022-12-23T08:21:25.727Z</time>
      </trkpt>
      <trkpt lat="45.42354" lon="-1.03305">
        <ele>56.467493</ele>
        <time>2022-12-23T08:21:27.750Z</time>
      </trkpt>
      <trkpt lat="45.42345" lon="-1.03306">
        <ele>56.200038</ele>
        <time>2022-12-23T08:21:29.749Z</time>
      </trkpt>
      <trkpt lat="45.42335" lon="-1.03306">
        <ele>55.935283</ele>
        <time>2022-12-23T08:21:31.749Z</time>
      </trkpt>
      <trkpt lat="45.42325" lon="-1.03307">
        <ele>55.68338</ele>
        <time>2022-12-23T08:21:33.751Z</time>
      </trkpt>
      <trkpt lat="45.42316" lon="-1.03307">
        <ele>55.432184</ele>
        <time>2022-12-23T08:21:35.742Z</time>
      </trkpt>
      <trkpt lat="45.42307" lon="-1.03308">
        <ele>55.1885</ele>
        <time>2022-12-23T08:21:37.749Z</time>
      </trkpt>
      <trkpt lat="45.42294" lon="-1.03308">
        <ele>54.82363</ele>
        <time>2022-12-23T08:21:40.748Z</time>
      </trkpt>
      <trkpt lat="45.42284" lon="-1.03309">
        <ele>54.575026</ele>
        <time>2022-12-23T08:21:42.751Z</time>
      </trkpt>
      <trkpt lat="45.42275" lon="-1.03309">
        <ele>54.376322</ele>
        <time>2022-12-23T08:21:44.749Z</time>
      </trkpt>
      <trkpt lat="45.42266" lon="-1.0331">
        <ele>54.197242</ele>
        <time>2022-12-23T08:21:46.750Z</time>
      </trkpt>
      <trkpt lat="45.42256" lon="-1.03309">
        <ele>54.021963</ele>
        <time>2022-12-23T08:21:48.732Z</time>
      </trkpt>
      <trkpt lat="45.42246" lon="-1.03308">
        <ele>53.833076</ele>
        <time>2022-12-23T08:21:50.748Z</time>
      </trkpt>
      <trkpt lat="45.42236" lon="-1.03307">
        <ele>53.641737</ele>
        <time>2022-12-23T08:21:52.726Z</time>
      </trkpt>
      <trkpt lat="45.42226" lon="-1.03307">
        <ele>53.455193</ele>
        <time>2022-12-23T08:21:54.749Z</time>
      </trkpt>
      <trkpt lat="45.42216" lon="-1.03307">
        <ele>53.255447</ele>
        <time>2022-12-23T08:21:56.747Z</time>
      </trkpt>
      <trkpt lat="45.42205" lon="-1.03306">
        <ele>53.057531</ele>
        <time>2022-12-23T08:21:58.746Z</time>
      </trkpt>
      <trkpt lat="45.42194" lon="-1.03305">
        <ele>52.848043</ele>
        <time>2022-12-23T08:22:00.744Z</time>
      </trkpt>
      <trkpt lat="45.42183" lon="-1.03305">
        <ele>52.640709</ele>
        <time>2022-12-23T08:22:02.734Z</time>
      </trkpt>
      <trkpt lat="45.42172" lon="-1.03305">
        <ele>52.429658</ele>
        <time>2022-12-23T08:22:04.747Z</time>
      </trkpt>
      <trkpt lat="45.42161" lon="-1.03306">
        <ele>52.220303</ele>
        <time>2022-12-23T08:22:06.744Z</time>
      </trkpt>
      <trkpt lat="45.4215" lon="-1.03306">
        <ele>52.018413</ele>
        <time>2022-12-23T08:22:08.743Z</time>
      </trkpt>
      <trkpt lat="45.4214" lon="-1.03308">
        <ele>51.817945</ele>
        <time>2022-12-23T08:22:10.748Z</time>
      </trkpt>
      <trkpt lat="45.42129" lon="-1.03309">
        <ele>51.623419</ele>
        <time>2022-12-23T08:22:12.744Z</time>
      </trkpt>
      <trkpt lat="45.4212" lon="-1.03311">
        <ele>51.445093</ele>
        <time>2022-12-23T08:22:14.749Z</time>
      </trkpt>
      <trkpt lat="45.42107" lon="-1.03315">
        <ele>51.190007</ele>
        <time>2022-12-23T08:22:17.727Z</time>
      </trkpt>
      <trkpt lat="45.42094" lon="-1.03319">
        <ele>51.192215</ele>
        <time>2022-12-23T08:22:20.749Z</time>
      </trkpt>
      <trkpt lat="45.42081" lon="-1.03322">
        <ele>51.315097</ele>
        <time>2022-12-23T08:22:23.749Z</time>
      </trkpt>
      <trkpt lat="45.42069" lon="-1.03327">
        <ele>51.436683</ele>
        <time>2022-12-23T08:22:26.748Z</time>
      </trkpt>
      <trkpt lat="45.42057" lon="-1.03331">
        <ele>51.555781</ele>
        <time>2022-12-23T08:22:29.748Z</time>
      </trkpt>
      <trkpt lat="45.42045" lon="-1.03335">
        <ele>51.672848</ele>
        <time>2022-12-23T08:22:32.745Z</time>
      </trkpt>
      <trkpt lat="45.42034" lon="-1.03339">
        <ele>51.789318</ele>
        <time>2022-12-23T08:22:35.751Z</time>
      </trkpt>
      <trkpt lat="45.42022" lon="-1.03343">
        <ele>51.907081</ele>
        <time>2022-12-23T08:22:38.743Z</time>
      </trkpt>
      <trkpt lat="45.4201" lon="-1.03346">
        <ele>52.025115</ele>
        <time>2022-12-23T08:22:41.733Z</time>
      </trkpt>
      <trkpt lat="45.41998" lon="-1.03351">
        <ele>52.137691</ele>
        <time>2022-12-23T08:22:44.748Z</time>
      </trkpt>
      <trkpt lat="45.41988" lon="-1.03353">
        <ele>52.239322</ele>
        <time>2022-12-23T08:22:47.745Z</time>
      </trkpt>
      <trkpt lat="45.41979" lon="-1.03356">
        <ele>52.328398</ele>
        <time>2022-12-23T08:22:50.744Z</time>
      </trkpt>
      <trkpt lat="45.4197" lon="-1.03359">
        <ele>52.41523</ele>
        <time>2022-12-23T08:22:53.733Z</time>
      </trkpt>
      <trkpt lat="45.41958" lon="-1.03362">
        <ele>52.531432</ele>
        <time>2022-12-23T08:22:57.750Z</time>
      </trkpt>
      <trkpt lat="45.41949" lon="-1.03365">
        <ele>52.622124</ele>
        <time>2022-12-23T08:23:00.724Z</time>
      </trkpt>
      <trkpt lat="45.41939" lon="-1.03368">
        <ele>52.720773</ele>
        <time>2022-12-23T08:23:03.748Z</time>
      </trkpt>
      <trkpt lat="45.41929" lon="-1.03371">
        <ele>52.823327</ele>
        <time>2022-12-23T08:23:06.750Z</time>
      </trkpt>
      <trkpt lat="45.41918" lon="-1.03375">
        <ele>52.827753</ele>
        <time>2022-12-23T08:23:09.751Z</time>
      </trkpt>
      <trkpt lat="45.4191" lon="-1.03379">
        <ele>52.814951</ele>
        <time>2022-12-23T08:23:12.734Z</time>
      </trkpt>
      <trkpt lat="45.41901" lon="-1.03382">
        <ele>52.802254</ele>
        <time>2022-12-23T08:23:15.744Z</time>
      </trkpt>
      <trkpt lat="45.41891" lon="-1.03386">
        <ele>52.789038</ele>
        <time>2022-12-23T08:23:18.743Z</time>
      </trkpt>
      <trkpt lat="45.41882" lon="-1.0339">
        <ele>52.775583</ele>
        <time>2022-12-23T08:23:21.748Z</time>
      </trkpt>
      <trkpt lat="45.41872" lon="-1.03394">
        <ele>52.762076</ele>
        <time>2022-12-23T08:23:24.733Z</time>
      </trkpt>
      <trkpt lat="45.41862" lon="-1.03399">
        <ele>52.747648</ele>
        <time>2022-12-23T08:23:27.749Z</time>
      </trkpt>
      <trkpt lat="45.41852" lon="-1.03403">
        <ele>52.732975</ele>
        <time>2022-12-23T08:23:30.748Z</time>
      </trkpt>
      <trkpt lat="45.41841" lon="-1.03409">
        <ele>52.717011</ele>
        <time>2022-12-23T08:23:33.752Z</time>
      </trkpt>
      <trkpt lat="45.4183" lon="-1.03414">
        <ele>52.700437</ele>
        <time>2022-12-23T08:23:36.749Z</time>
      </trkpt>
      <trkpt lat="45.41817" lon="-1.0342">
        <ele>52.683024</ele>
        <time>2022-12-23T08:23:39.749Z</time>
      </trkpt>
      <trkpt lat="45.41806" lon="-1.03424">
        <ele>52.666121</ele>
        <time>2022-12-23T08:23:42.750Z</time>
      </trkpt>
      <trkpt lat="45.41794" lon="-1.03429">
        <ele>52.649954</ele>
        <time>2022-12-23T08:23:45.750Z</time>
      </trkpt>
      <trkpt lat="45.41783" lon="-1.03435">
        <ele>52.634158</ele>
        <time>2022-12-23T08:23:48.754Z</time>
      </trkpt>
      <trkpt lat="45.41772" lon="-1.0344">
        <ele>52.618202</ele>
        <time>2022-12-23T08:23:51.750Z</time>
      </trkpt>
      <trkpt lat="45.41762" lon="-1.03444">
        <ele>52.602853</ele>
        <time>2022-12-23T08:23:54.738Z</time>
      </trkpt>
      <trkpt lat="45.41751" lon="-1.03449">
        <ele>52.552893</ele>
        <time>2022-12-23T08:23:57.750Z</time>
      </trkpt>
      <trkpt lat="45.41739" lon="-1.03454">
        <ele>52.444737</ele>
        <time>2022-12-23T08:24:00.722Z</time>
      </trkpt>
      <trkpt lat="45.41726" lon="-1.03459">
        <ele>52.330358</ele>
        <time>2022-12-23T08:24:03.743Z</time>
      </trkpt>
      <trkpt lat="45.41717" lon="-1.03462">
        <ele>52.252879</ele>
        <time>2022-12-23T08:24:05.745Z</time>
      </trkpt>
      <trkpt lat="45.41704" lon="-1.03465">
        <ele>52.135295</ele>
        <time>2022-12-23T08:24:08.737Z</time>
      </trkpt>
      <trkpt lat="45.41695" lon="-1.03467">
        <ele>52.057695</ele>
        <time>2022-12-23T08:24:10.751Z</time>
      </trkpt>
      <trkpt lat="45.41686" lon="-1.03469">
        <ele>51.97877</ele>
        <time>2022-12-23T08:24:12.743Z</time>
      </trkpt>
      <trkpt lat="45.41677" lon="-1.03469">
        <ele>51.901162</ele>
        <time>2022-12-23T08:24:14.737Z</time>
      </trkpt>
      <trkpt lat="45.41664" lon="-1.03471">
        <ele>51.795197</ele>
        <time>2022-12-23T08:24:17.753Z</time>
      </trkpt>
      <trkpt lat="45.41653" lon="-1.03471">
        <ele>51.696829</ele>
        <time>2022-12-23T08:24:20.736Z</time>
      </trkpt>
      <trkpt lat="45.41642" lon="-1.03473">
        <ele>51.598968</ele>
        <time>2022-12-23T08:24:23.750Z</time>
      </trkpt>
      <trkpt lat="45.41629" lon="-1.03474">
        <ele>51.489322</ele>
        <time>2022-12-23T08:24:26.748Z</time>
      </trkpt>
      <trkpt lat="45.41616" lon="-1.03475">
        <ele>51.376989</ele>
        <time>2022-12-23T08:24:29.748Z</time>
      </trkpt>
      <trkpt lat="45.41604" lon="-1.03477">
        <ele>51.273593</ele>
        <time>2022-12-23T08:24:32.734Z</time>
      </trkpt>
      <trkpt lat="45.41594" lon="-1.03479">
        <ele>51.182931</ele>
        <time>2022-12-23T08:24:35.728Z</time>
      </trkpt>
      <trkpt lat="45.41584" lon="-1.03482">
        <ele>51.101935</ele>
        <time>2022-12-23T08:24:39.751Z</time>
      </trkpt>
      <trkpt lat="45.41575" lon="-1.03485">
        <ele>51.017404</ele>
        <time>2022-12-23T08:24:44.748Z</time>
      </trkpt>
      <trkpt lat="45.41567" lon="-1.03491">
        <ele>50.920959</ele>
        <time>2022-12-23T08:24:48.745Z</time>
      </trkpt>
      <trkpt lat="45.4156" lon="-1.03502">
        <ele>50.819475</ele>
        <time>2022-12-23T08:24:52.745Z</time>
      </trkpt>
      <trkpt lat="45.41553" lon="-1.03514">
        <ele>50.714674</ele>
        <time>2022-12-23T08:24:57.748Z</time>
      </trkpt>
      <trkpt lat="45.41546" lon="-1.03524">
        <ele>50.618213</ele>
        <time>2022-12-23T08:25:01.743Z</time>
      </trkpt>
      <trkpt lat="45.41539" lon="-1.03534">
        <ele>50.520094</ele>
        <time>2022-12-23T08:25:04.738Z</time>
      </trkpt>
      <trkpt lat="45.41529" lon="-1.03542">
        <ele>50.409182</ele>
        <time>2022-12-23T08:25:07.724Z</time>
      </trkpt>
      <trkpt lat="45.41519" lon="-1.0355">
        <ele>50.291235</ele>
        <time>2022-12-23T08:25:10.748Z</time>
      </trkpt>
      <trkpt lat="45.41508" lon="-1.03558">
        <ele>50.173621</ele>
        <time>2022-12-23T08:25:13.746Z</time>
      </trkpt>
      <trkpt lat="45.41498" lon="-1.03563">
        <ele>50.065212</ele>
        <time>2022-12-23T08:25:16.732Z</time>
      </trkpt>
      <trkpt lat="45.41487" lon="-1.03567">
        <ele>49.954342</ele>
        <time>2022-12-23T08:25:19.730Z</time>
      </trkpt>
      <trkpt lat="45.41474" lon="-1.03566">
        <ele>49.82811</ele>
        <time>2022-12-23T08:25:22.722Z</time>
      </trkpt>
      <trkpt lat="45.41461" lon="-1.03561">
        <ele>49.700489</ele>
        <time>2022-12-23T08:25:25.724Z</time>
      </trkpt>
      <trkpt lat="45.41449" lon="-1.03555">
        <ele>49.574292</ele>
        <time>2022-12-23T08:25:28.726Z</time>
      </trkpt>
      <trkpt lat="45.41438" lon="-1.03549">
        <ele>49.45385</ele>
        <time>2022-12-23T08:25:31.733Z</time>
      </trkpt>
      <trkpt lat="45.41427" lon="-1.03542">
        <ele>49.333022</ele>
        <time>2022-12-23T08:25:34.741Z</time>
      </trkpt>
      <trkpt lat="45.41415" lon="-1.03537">
        <ele>49.355539</ele>
        <time>2022-12-23T08:25:37.723Z</time>
      </trkpt>
      <trkpt lat="45.41403" lon="-1.03534">
        <ele>49.528747</ele>
        <time>2022-12-23T08:25:40.739Z</time>
      </trkpt>
      <trkpt lat="45.41392" lon="-1.03535">
        <ele>49.69159</ele>
        <time>2022-12-23T08:25:43.727Z</time>
      </trkpt>
      <trkpt lat="45.4138" lon="-1.03537">
        <ele>49.853225</ele>
        <time>2022-12-23T08:25:46.735Z</time>
      </trkpt>
      <trkpt lat="45.41369" lon="-1.0354">
        <ele>50.012255</ele>
        <time>2022-12-23T08:25:49.737Z</time>
      </trkpt>
      <trkpt lat="45.41358" lon="-1.03543">
        <ele>50.172479</ele>
        <time>2022-12-23T08:25:52.742Z</time>
      </trkpt>
      <trkpt lat="45.41347" lon="-1.03546">
        <ele>50.332312</ele>
        <time>2022-12-23T08:25:55.748Z</time>
      </trkpt>
      <trkpt lat="45.41337" lon="-1.03549">
        <ele>50.489155</ele>
        <time>2022-12-23T08:25:58.747Z</time>
      </trkpt>
      <trkpt lat="45.41325" lon="-1.03551">
        <ele>50.651265</ele>
        <time>2022-12-23T08:26:01.748Z</time>
      </trkpt>
      <trkpt lat="45.41315" lon="-1.03554">
        <ele>50.807415</ele>
        <time>2022-12-23T08:26:04.755Z</time>
      </trkpt>
      <trkpt lat="45.41304" lon="-1.03556">
        <ele>50.954493</ele>
        <time>2022-12-23T08:26:07.750Z</time>
      </trkpt>
      <trkpt lat="45.41294" lon="-1.03558">
        <ele>51.106101</ele>
        <time>2022-12-23T08:26:10.741Z</time>
      </trkpt>
      <trkpt lat="45.41283" lon="-1.03558">
        <ele>51.264511</ele>
        <time>2022-12-23T08:26:13.747Z</time>
      </trkpt>
      <trkpt lat="45.41271" lon="-1.03557">
        <ele>51.427452</ele>
        <time>2022-12-23T08:26:16.728Z</time>
      </trkpt>
      <trkpt lat="45.4126" lon="-1.03557">
        <ele>51.587292</ele>
        <time>2022-12-23T08:26:19.743Z</time>
      </trkpt>
      <trkpt lat="45.41249" lon="-1.03557">
        <ele>51.74145</ele>
        <time>2022-12-23T08:26:22.751Z</time>
      </trkpt>
      <trkpt lat="45.41238" lon="-1.03556">
        <ele>51.922635</ele>
        <time>2022-12-23T08:26:25.735Z</time>
      </trkpt>
      <trkpt lat="45.41227" lon="-1.03556">
        <ele>52.126475</ele>
        <time>2022-12-23T08:26:28.745Z</time>
      </trkpt>
      <trkpt lat="45.41216" lon="-1.03556">
        <ele>52.341737</ele>
        <time>2022-12-23T08:26:31.749Z</time>
      </trkpt>
      <trkpt lat="45.41206" lon="-1.03555">
        <ele>52.534122</ele>
        <time>2022-12-23T08:26:34.750Z</time>
      </trkpt>
      <trkpt lat="45.41196" lon="-1.03555">
        <ele>52.732467</ele>
        <time>2022-12-23T08:26:37.744Z</time>
      </trkpt>
      <trkpt lat="45.41186" lon="-1.03554">
        <ele>52.909823</ele>
        <time>2022-12-23T08:26:40.747Z</time>
      </trkpt>
      <trkpt lat="45.41177" lon="-1.03553">
        <ele>53.082097</ele>
        <time>2022-12-23T08:26:43.749Z</time>
      </trkpt>
      <trkpt lat="45.41166" lon="-1.03552">
        <ele>53.306819</ele>
        <time>2022-12-23T08:26:47.723Z</time>
      </trkpt>
      <trkpt lat="45.41156" lon="-1.03552">
        <ele>53.48615</ele>
        <time>2022-12-23T08:26:50.728Z</time>
      </trkpt>
      <trkpt lat="45.41147" lon="-1.03551">
        <ele>53.667309</ele>
        <time>2022-12-23T08:26:53.743Z</time>
      </trkpt>
      <trkpt lat="45.41137" lon="-1.0355">
        <ele>53.854418</ele>
        <time>2022-12-23T08:26:56.749Z</time>
      </trkpt>
      <trkpt lat="45.41127" lon="-1.03549">
        <ele>54.035576</ele>
        <time>2022-12-23T08:26:59.740Z</time>
      </trkpt>
      <trkpt lat="45.41118" lon="-1.03549">
        <ele>54.208881</ele>
        <time>2022-12-23T08:27:02.736Z</time>
      </trkpt>
      <trkpt lat="45.41109" lon="-1.0355">
        <ele>54.380323</ele>
        <time>2022-12-23T08:27:05.730Z</time>
      </trkpt>
      <trkpt lat="45.411" lon="-1.0355">
        <ele>54.553628</ele>
        <time>2022-12-23T08:27:08.741Z</time>
      </trkpt>
      <trkpt lat="45.4109" lon="-1.03551">
        <ele>54.742465</ele>
        <time>2022-12-23T08:27:11.735Z</time>
      </trkpt>
      <trkpt lat="45.4108" lon="-1.03551">
        <ele>54.940684</ele>
        <time>2022-12-23T08:27:14.748Z</time>
      </trkpt>
      <trkpt lat="45.4107" lon="-1.03552">
        <ele>55.135005</ele>
        <time>2022-12-23T08:27:17.748Z</time>
      </trkpt>
      <trkpt lat="45.41059" lon="-1.03552">
        <ele>55.247321</ele>
        <time>2022-12-23T08:27:20.751Z</time>
      </trkpt>
      <trkpt lat="45.41049" lon="-1.03553">
        <ele>55.199756</ele>
        <time>2022-12-23T08:27:23.750Z</time>
      </trkpt>
      <trkpt lat="45.41038" lon="-1.03553">
        <ele>55.153602</ele>
        <time>2022-12-23T08:27:26.743Z</time>
      </trkpt>
      <trkpt lat="45.41028" lon="-1.03554">
        <ele>55.106991</ele>
        <time>2022-12-23T08:27:29.736Z</time>
      </trkpt>
      <trkpt lat="45.41017" lon="-1.03554">
        <ele>55.059927</ele>
        <time>2022-12-23T08:27:32.726Z</time>
      </trkpt>
      <trkpt lat="45.41006" lon="-1.03555">
        <ele>55.010646</ele>
        <time>2022-12-23T08:27:35.728Z</time>
      </trkpt>
      <trkpt lat="45.40995" lon="-1.03556">
        <ele>54.960866</ele>
        <time>2022-12-23T08:27:38.741Z</time>
      </trkpt>
      <trkpt lat="45.40984" lon="-1.03557">
        <ele>54.911048</ele>
        <time>2022-12-23T08:27:41.750Z</time>
      </trkpt>
      <trkpt lat="45.40972" lon="-1.03557">
        <ele>54.860001</ele>
        <time>2022-12-23T08:27:44.739Z</time>
      </trkpt>
      <trkpt lat="45.40961" lon="-1.03558">
        <ele>54.809398</ele>
        <time>2022-12-23T08:27:47.749Z</time>
      </trkpt>
      <trkpt lat="45.40949" lon="-1.03559">
        <ele>54.758694</ele>
        <time>2022-12-23T08:27:50.726Z</time>
      </trkpt>
      <trkpt lat="45.40938" lon="-1.03559">
        <ele>54.708958</ele>
        <time>2022-12-23T08:27:53.744Z</time>
      </trkpt>
      <trkpt lat="45.40927" lon="-1.03559">
        <ele>54.659685</ele>
        <time>2022-12-23T08:27:56.736Z</time>
      </trkpt>
      <trkpt lat="45.40915" lon="-1.03558">
        <ele>54.607299</ele>
        <time>2022-12-23T08:27:59.746Z</time>
      </trkpt>
      <trkpt lat="45.40904" lon="-1.03558">
        <ele>54.556207</ele>
        <time>2022-12-23T08:28:02.748Z</time>
      </trkpt>
      <trkpt lat="45.40893" lon="-1.03556">
        <ele>54.507878</ele>
        <time>2022-12-23T08:28:05.734Z</time>
      </trkpt>
      <trkpt lat="45.40882" lon="-1.03554">
        <ele>54.459321</ele>
        <time>2022-12-23T08:28:08.745Z</time>
      </trkpt>
      <trkpt lat="45.40869" lon="-1.03552">
        <ele>54.415956</ele>
        <time>2022-12-23T08:28:11.746Z</time>
      </trkpt>
      <trkpt lat="45.40857" lon="-1.0355">
        <ele>54.372343</ele>
        <time>2022-12-23T08:28:14.748Z</time>
      </trkpt>
      <trkpt lat="45.40844" lon="-1.03548">
        <ele>54.327151</ele>
        <time>2022-12-23T08:28:17.749Z</time>
      </trkpt>
      <trkpt lat="45.40832" lon="-1.03545">
        <ele>54.283316</ele>
        <time>2022-12-23T08:28:20.739Z</time>
      </trkpt>
      <trkpt lat="45.40821" lon="-1.03544">
        <ele>54.244184</ele>
        <time>2022-12-23T08:28:23.745Z</time>
      </trkpt>
      <trkpt lat="45.4081" lon="-1.03542">
        <ele>54.206497</ele>
        <time>2022-12-23T08:28:26.740Z</time>
      </trkpt>
      <trkpt lat="45.40798" lon="-1.0354">
        <ele>54.164204</ele>
        <time>2022-12-23T08:28:29.738Z</time>
      </trkpt>
      <trkpt lat="45.40785" lon="-1.03538">
        <ele>54.119847</ele>
        <time>2022-12-23T08:28:32.748Z</time>
      </trkpt>
      <trkpt lat="45.40773" lon="-1.03536">
        <ele>54.074714</ele>
        <time>2022-12-23T08:28:35.734Z</time>
      </trkpt>
      <trkpt lat="45.4076" lon="-1.03534">
        <ele>54.030653</ele>
        <time>2022-12-23T08:28:38.742Z</time>
      </trkpt>
      <trkpt lat="45.40749" lon="-1.03533">
        <ele>53.989853</ele>
        <time>2022-12-23T08:28:41.750Z</time>
      </trkpt>
      <trkpt lat="45.40737" lon="-1.03532">
        <ele>53.950544</ele>
        <time>2022-12-23T08:28:44.748Z</time>
      </trkpt>
      <trkpt lat="45.40726" lon="-1.03532">
        <ele>53.911661</ele>
        <time>2022-12-23T08:28:47.739Z</time>
      </trkpt>
      <trkpt lat="45.40715" lon="-1.03533">
        <ele>53.870512</ele>
        <time>2022-12-23T08:28:50.746Z</time>
      </trkpt>
      <trkpt lat="45.40702" lon="-1.03536">
        <ele>53.837807</ele>
        <time>2022-12-23T08:28:53.729Z</time>
      </trkpt>
      <trkpt lat="45.4069" lon="-1.03538">
        <ele>53.851255</ele>
        <time>2022-12-23T08:28:56.738Z</time>
      </trkpt>
      <trkpt lat="45.40677" lon="-1.03541">
        <ele>53.864986</ele>
        <time>2022-12-23T08:28:59.735Z</time>
      </trkpt>
      <trkpt lat="45.40665" lon="-1.03544">
        <ele>53.878838</ele>
        <time>2022-12-23T08:29:02.727Z</time>
      </trkpt>
      <trkpt lat="45.40653" lon="-1.03548">
        <ele>53.892223</ele>
        <time>2022-12-23T08:29:05.739Z</time>
      </trkpt>
      <trkpt lat="45.40642" lon="-1.0355">
        <ele>53.904383</ele>
        <time>2022-12-23T08:29:08.749Z</time>
      </trkpt>
      <trkpt lat="45.40631" lon="-1.03552">
        <ele>53.916067</ele>
        <time>2022-12-23T08:29:11.747Z</time>
      </trkpt>
      <trkpt lat="45.4062" lon="-1.03554">
        <ele>53.929027</ele>
        <time>2022-12-23T08:29:14.745Z</time>
      </trkpt>
      <trkpt lat="45.40607" lon="-1.03555">
        <ele>53.942293</ele>
        <time>2022-12-23T08:29:17.732Z</time>
      </trkpt>
      <trkpt lat="45.40595" lon="-1.03554">
        <ele>53.956294</ele>
        <time>2022-12-23T08:29:20.726Z</time>
      </trkpt>
      <trkpt lat="45.40583" lon="-1.03552">
        <ele>53.969633</ele>
        <time>2022-12-23T08:29:23.743Z</time>
      </trkpt>
      <trkpt lat="45.40571" lon="-1.03549">
        <ele>53.982222</ele>
        <time>2022-12-23T08:29:26.735Z</time>
      </trkpt>
      <trkpt lat="45.4056" lon="-1.03545">
        <ele>53.994645</ele>
        <time>2022-12-23T08:29:29.749Z</time>
      </trkpt>
      <trkpt lat="45.40549" lon="-1.03543">
        <ele>54.006698</ele>
        <time>2022-12-23T08:29:32.746Z</time>
      </trkpt>
      <trkpt lat="45.40539" lon="-1.0354">
        <ele>54.018263</ele>
        <time>2022-12-23T08:29:35.740Z</time>
      </trkpt>
      <trkpt lat="45.40529" lon="-1.03539">
        <ele>54.029469</ele>
        <time>2022-12-23T08:29:38.730Z</time>
      </trkpt>
      <trkpt lat="45.40517" lon="-1.03539">
        <ele>54.010895</ele>
        <time>2022-12-23T08:29:41.750Z</time>
      </trkpt>
      <trkpt lat="45.40504" lon="-1.03541">
        <ele>53.983586</ele>
        <time>2022-12-23T08:29:44.741Z</time>
      </trkpt>
      <trkpt lat="45.40492" lon="-1.03544">
        <ele>53.956064</ele>
        <time>2022-12-23T08:29:47.751Z</time>
      </trkpt>
      <trkpt lat="45.40479" lon="-1.03547">
        <ele>53.928425</ele>
        <time>2022-12-23T08:29:50.740Z</time>
      </trkpt>
      <trkpt lat="45.40466" lon="-1.03549">
        <ele>53.901132</ele>
        <time>2022-12-23T08:29:53.749Z</time>
      </trkpt>
      <trkpt lat="45.40453" lon="-1.0355">
        <ele>53.872898</ele>
        <time>2022-12-23T08:29:56.748Z</time>
      </trkpt>
      <trkpt lat="45.4044" lon="-1.03551">
        <ele>53.844441</ele>
        <time>2022-12-23T08:29:59.752Z</time>
      </trkpt>
      <trkpt lat="45.40426" lon="-1.03552">
        <ele>53.815985</ele>
        <time>2022-12-23T08:30:02.739Z</time>
      </trkpt>
      <trkpt lat="45.40413" lon="-1.03553">
        <ele>53.787775</ele>
        <time>2022-12-23T08:30:05.746Z</time>
      </trkpt>
      <trkpt lat="45.404" lon="-1.03552">
        <ele>53.759143</ele>
        <time>2022-12-23T08:30:08.746Z</time>
      </trkpt>
      <trkpt lat="45.40387" lon="-1.03554">
        <ele>53.732322</ele>
        <time>2022-12-23T08:30:11.735Z</time>
      </trkpt>
      <trkpt lat="45.40376" lon="-1.03555">
        <ele>53.708945</ele>
        <time>2022-12-23T08:30:14.744Z</time>
      </trkpt>
      <trkpt lat="45.40367" lon="-1.03557">
        <ele>53.68807</ele>
        <time>2022-12-23T08:30:17.749Z</time>
      </trkpt>
      <trkpt lat="45.40356" lon="-1.03558">
        <ele>53.66561</ele>
        <time>2022-12-23T08:30:20.731Z</time>
      </trkpt>
      <trkpt lat="45.40345" lon="-1.03559">
        <ele>53.619456</ele>
        <time>2022-12-23T08:30:23.742Z</time>
      </trkpt>
      <trkpt lat="45.40333" lon="-1.03559">
        <ele>53.49361</ele>
        <time>2022-12-23T08:30:26.747Z</time>
      </trkpt>
      <trkpt lat="45.40321" lon="-1.03561">
        <ele>53.362062</ele>
        <time>2022-12-23T08:30:29.738Z</time>
      </trkpt>
      <trkpt lat="45.40309" lon="-1.03562">
        <ele>53.225222</ele>
        <time>2022-12-23T08:30:32.745Z</time>
      </trkpt>
      <trkpt lat="45.40296" lon="-1.03563">
        <ele>53.085269</ele>
        <time>2022-12-23T08:30:35.737Z</time>
      </trkpt>
      <trkpt lat="45.40283" lon="-1.03564">
        <ele>52.946315</ele>
        <time>2022-12-23T08:30:38.739Z</time>
      </trkpt>
      <trkpt lat="45.4027" lon="-1.03565">
        <ele>52.803034</ele>
        <time>2022-12-23T08:30:41.748Z</time>
      </trkpt>
      <trkpt lat="45.40257" lon="-1.03565">
        <ele>52.661079</ele>
        <time>2022-12-23T08:30:44.728Z</time>
      </trkpt>
      <trkpt lat="45.40247" lon="-1.03565">
        <ele>52.560278</ele>
        <time>2022-12-23T08:30:46.722Z</time>
      </trkpt>
      <trkpt lat="45.40235" lon="-1.03567">
        <ele>52.425214</ele>
        <time>2022-12-23T08:30:49.725Z</time>
      </trkpt>
      <trkpt lat="45.40223" lon="-1.03568">
        <ele>52.291505</ele>
        <time>2022-12-23T08:30:52.726Z</time>
      </trkpt>
      <trkpt lat="45.40211" lon="-1.0357">
        <ele>52.164447</ele>
        <time>2022-12-23T08:30:55.724Z</time>
      </trkpt>
      <trkpt lat="45.40199" lon="-1.03569">
        <ele>52.036579</ele>
        <time>2022-12-23T08:30:58.750Z</time>
      </trkpt>
      <trkpt lat="45.40187" lon="-1.0357">
        <ele>51.898927</ele>
        <time>2022-12-23T08:31:01.745Z</time>
      </trkpt>
      <trkpt lat="45.40173" lon="-1.0357">
        <ele>51.753692</ele>
        <time>2022-12-23T08:31:04.747Z</time>
      </trkpt>
      <trkpt lat="45.40164" lon="-1.03571">
        <ele>51.699907</ele>
        <time>2022-12-23T08:31:06.746Z</time>
      </trkpt>
      <trkpt lat="45.40155" lon="-1.03571">
        <ele>51.703459</ele>
        <time>2022-12-23T08:31:08.745Z</time>
      </trkpt>
      <trkpt lat="45.40146" lon="-1.03572">
        <ele>51.707053</ele>
        <time>2022-12-23T08:31:10.726Z</time>
      </trkpt>
      <trkpt lat="45.40136" lon="-1.03573">
        <ele>51.710691</ele>
        <time>2022-12-23T08:31:12.748Z</time>
      </trkpt>
      <trkpt lat="45.40127" lon="-1.03574">
        <ele>51.714325</ele>
        <time>2022-12-23T08:31:14.751Z</time>
      </trkpt>
      <trkpt lat="45.40117" lon="-1.03574">
        <ele>51.718227</ele>
        <time>2022-12-23T08:31:16.724Z</time>
      </trkpt>
      <trkpt lat="45.40107" lon="-1.03575">
        <ele>51.721978</ele>
        <time>2022-12-23T08:31:18.750Z</time>
      </trkpt>
      <trkpt lat="45.40097" lon="-1.03576">
        <ele>51.725653</ele>
        <time>2022-12-23T08:31:20.737Z</time>
      </trkpt>
      <trkpt lat="45.40088" lon="-1.03577">
        <ele>51.72917</ele>
        <time>2022-12-23T08:31:22.749Z</time>
      </trkpt>
      <trkpt lat="45.40079" lon="-1.03578">
        <ele>51.732741</ele>
        <time>2022-12-23T08:31:24.747Z</time>
      </trkpt>
      <trkpt lat="45.40067" lon="-1.0358">
        <ele>51.737517</ele>
        <time>2022-12-23T08:31:27.744Z</time>
      </trkpt>
      <trkpt lat="45.40056" lon="-1.03581">
        <ele>51.741853</ele>
        <time>2022-12-23T08:31:30.752Z</time>
      </trkpt>
      <trkpt lat="45.40044" lon="-1.03583">
        <ele>51.746523</ele>
        <time>2022-12-23T08:31:33.741Z</time>
      </trkpt>
      <trkpt lat="45.40031" lon="-1.03587">
        <ele>51.751441</ele>
        <time>2022-12-23T08:31:36.749Z</time>
      </trkpt>
      <trkpt lat="45.40019" lon="-1.0359">
        <ele>51.756387</ele>
        <time>2022-12-23T08:31:39.751Z</time>
      </trkpt>
      <trkpt lat="45.40006" lon="-1.03594">
        <ele>51.761353</ele>
        <time>2022-12-23T08:31:42.746Z</time>
      </trkpt>
      <trkpt lat="45.39994" lon="-1.03599">
        <ele>51.76629</ele>
        <time>2022-12-23T08:31:45.748Z</time>
      </trkpt>
      <trkpt lat="45.39981" lon="-1.03603">
        <ele>51.851768</ele>
        <time>2022-12-23T08:31:48.748Z</time>
      </trkpt>
      <trkpt lat="45.39969" lon="-1.03607">
        <ele>51.971821</ele>
        <time>2022-12-23T08:31:51.751Z</time>
      </trkpt>
      <trkpt lat="45.39956" lon="-1.03612">
        <ele>52.089603</ele>
        <time>2022-12-23T08:31:54.739Z</time>
      </trkpt>
      <trkpt lat="45.39945" lon="-1.03615">
        <ele>52.194422</ele>
        <time>2022-12-23T08:31:57.750Z</time>
      </trkpt>
      <trkpt lat="45.39936" lon="-1.03618">
        <ele>52.280867</ele>
        <time>2022-12-23T08:32:00.724Z</time>
      </trkpt>
      <trkpt lat="45.39927" lon="-1.0362">
        <ele>52.367142</ele>
        <time>2022-12-23T08:32:03.726Z</time>
      </trkpt>
      <trkpt lat="45.39917" lon="-1.03622">
        <ele>52.460426</ele>
        <time>2022-12-23T08:32:06.752Z</time>
      </trkpt>
      <trkpt lat="45.39906" lon="-1.03624">
        <ele>52.561549</ele>
        <time>2022-12-23T08:32:09.738Z</time>
      </trkpt>
      <trkpt lat="45.39895" lon="-1.03626">
        <ele>52.663009</ele>
        <time>2022-12-23T08:32:12.744Z</time>
      </trkpt>
      <trkpt lat="45.39885" lon="-1.03628">
        <ele>52.763548</ele>
        <time>2022-12-23T08:32:15.753Z</time>
      </trkpt>
      <trkpt lat="45.39874" lon="-1.03631">
        <ele>52.866551</ele>
        <time>2022-12-23T08:32:18.735Z</time>
      </trkpt>
      <trkpt lat="45.39863" lon="-1.03633">
        <ele>52.970521</ele>
        <time>2022-12-23T08:32:21.726Z</time>
      </trkpt>
      <trkpt lat="45.39852" lon="-1.03636">
        <ele>53.076627</ele>
        <time>2022-12-23T08:32:24.725Z</time>
      </trkpt>
      <trkpt lat="45.3984" lon="-1.03639">
        <ele>53.186509</ele>
        <time>2022-12-23T08:32:27.725Z</time>
      </trkpt>
      <trkpt lat="45.39828" lon="-1.03643">
        <ele>53.299381</ele>
        <time>2022-12-23T08:32:30.728Z</time>
      </trkpt>
      <trkpt lat="45.39817" lon="-1.03647">
        <ele>53.404596</ele>
        <time>2022-12-23T08:32:33.732Z</time>
      </trkpt>
      <trkpt lat="45.39807" lon="-1.03651">
        <ele>53.454958</ele>
        <time>2022-12-23T08:32:36.739Z</time>
      </trkpt>
      <trkpt lat="45.39799" lon="-1.03656">
        <ele>53.476196</ele>
        <time>2022-12-23T08:32:39.728Z</time>
      </trkpt>
      <trkpt lat="45.3979" lon="-1.03661">
        <ele>53.499733</ele>
        <time>2022-12-23T08:32:42.747Z</time>
      </trkpt>
      <trkpt lat="45.3978" lon="-1.03668">
        <ele>53.524801</ele>
        <time>2022-12-23T08:32:45.744Z</time>
      </trkpt>
      <trkpt lat="45.3977" lon="-1.03675">
        <ele>53.55093</ele>
        <time>2022-12-23T08:32:48.729Z</time>
      </trkpt>
      <trkpt lat="45.3976" lon="-1.03683">
        <ele>53.577207</ele>
        <time>2022-12-23T08:32:51.749Z</time>
      </trkpt>
      <trkpt lat="45.3975" lon="-1.03691">
        <ele>53.603693</ele>
        <time>2022-12-23T08:32:54.751Z</time>
      </trkpt>
      <trkpt lat="45.39742" lon="-1.03697">
        <ele>53.624749</ele>
        <time>2022-12-23T08:32:57.751Z</time>
      </trkpt>
      <trkpt lat="45.39731" lon="-1.03704">
        <ele>53.651706</ele>
        <time>2022-12-23T08:33:01.729Z</time>
      </trkpt>
      <trkpt lat="45.39722" lon="-1.0371">
        <ele>53.674056</ele>
        <time>2022-12-23T08:33:04.742Z</time>
      </trkpt>
      <trkpt lat="45.39712" lon="-1.03713">
        <ele>53.699024</ele>
        <time>2022-12-23T08:33:07.747Z</time>
      </trkpt>
      <trkpt lat="45.39701" lon="-1.03717">
        <ele>53.725047</ele>
        <time>2022-12-23T08:33:10.743Z</time>
      </trkpt>
      <trkpt lat="45.39689" lon="-1.0372">
        <ele>53.751909</ele>
        <time>2022-12-23T08:33:13.750Z</time>
      </trkpt>
      <trkpt lat="45.39678" lon="-1.03723">
        <ele>53.778626</ele>
        <time>2022-12-23T08:33:16.731Z</time>
      </trkpt>
      <trkpt lat="45.39668" lon="-1.03724">
        <ele>53.80212</ele>
        <time>2022-12-23T08:33:19.745Z</time>
      </trkpt>
      <trkpt lat="45.39659" lon="-1.03726">
        <ele>53.823299</ele>
        <time>2022-12-23T08:33:22.728Z</time>
      </trkpt>
      <trkpt lat="45.39649" lon="-1.03727">
        <ele>53.846925</ele>
        <time>2022-12-23T08:33:25.750Z</time>
      </trkpt>
      <trkpt lat="45.39638" lon="-1.03729">
        <ele>53.823296</ele>
        <time>2022-12-23T08:33:28.757Z</time>
      </trkpt>
      <trkpt lat="45.39627" lon="-1.0373">
        <ele>53.770077</ele>
        <time>2022-12-23T08:33:31.742Z</time>
      </trkpt>
      <trkpt lat="45.39616" lon="-1.03732">
        <ele>53.717534</ele>
        <time>2022-12-23T08:33:34.739Z</time>
      </trkpt>
      <trkpt lat="45.39604" lon="-1.03734">
        <ele>53.664089</ele>
        <time>2022-12-23T08:33:37.753Z</time>
      </trkpt>
      <trkpt lat="45.39593" lon="-1.03736">
        <ele>53.60937</ele>
        <time>2022-12-23T08:33:40.745Z</time>
      </trkpt>
      <trkpt lat="45.39582" lon="-1.03739">
        <ele>53.556925</ele>
        <time>2022-12-23T08:33:43.751Z</time>
      </trkpt>
      <trkpt lat="45.39573" lon="-1.03743">
        <ele>53.509291</ele>
        <time>2022-12-23T08:33:46.745Z</time>
      </trkpt>
      <trkpt lat="45.39562" lon="-1.03747">
        <ele>53.457004</ele>
        <time>2022-12-23T08:33:49.743Z</time>
      </trkpt>
      <trkpt lat="45.39551" lon="-1.03752">
        <ele>53.402335</ele>
        <time>2022-12-23T08:33:52.754Z</time>
      </trkpt>
      <trkpt lat="45.3954" lon="-1.03758">
        <ele>53.345133</ele>
        <time>2022-12-23T08:33:55.724Z</time>
      </trkpt>
      <trkpt lat="45.39528" lon="-1.03763">
        <ele>53.287278</ele>
        <time>2022-12-23T08:33:58.737Z</time>
      </trkpt>
      <trkpt lat="45.39517" lon="-1.03769">
        <ele>53.229314</ele>
        <time>2022-12-23T08:34:01.752Z</time>
      </trkpt>
      <trkpt lat="45.39506" lon="-1.03775">
        <ele>53.171991</ele>
        <time>2022-12-23T08:34:04.751Z</time>
      </trkpt>
      <trkpt lat="45.39495" lon="-1.03782">
        <ele>53.117126</ele>
        <time>2022-12-23T08:34:07.740Z</time>
      </trkpt>
      <trkpt lat="45.39484" lon="-1.03786">
        <ele>53.062715</ele>
        <time>2022-12-23T08:34:10.756Z</time>
      </trkpt>
      <trkpt lat="45.39473" lon="-1.03792">
        <ele>53.00674</ele>
        <time>2022-12-23T08:34:13.747Z</time>
      </trkpt>
      <trkpt lat="45.39462" lon="-1.03797">
        <ele>53.035269</ele>
        <time>2022-12-23T08:34:16.747Z</time>
      </trkpt>
      <trkpt lat="45.39451" lon="-1.03803">
        <ele>53.074888</ele>
        <time>2022-12-23T08:34:19.749Z</time>
      </trkpt>
      <trkpt lat="45.39441" lon="-1.03808">
        <ele>53.112866</ele>
        <time>2022-12-23T08:34:22.745Z</time>
      </trkpt>
      <trkpt lat="45.3943" lon="-1.03813">
        <ele>53.152731</ele>
        <time>2022-12-23T08:34:25.751Z</time>
      </trkpt>
      <trkpt lat="45.39419" lon="-1.03818">
        <ele>53.192613</ele>
        <time>2022-12-23T08:34:28.747Z</time>
      </trkpt>
      <trkpt lat="45.39409" lon="-1.03823">
        <ele>53.230357</ele>
        <time>2022-12-23T08:34:31.748Z</time>
      </trkpt>
      <trkpt lat="45.39398" lon="-1.03826">
        <ele>53.269272</ele>
        <time>2022-12-23T08:34:34.736Z</time>
      </trkpt>
      <trkpt lat="45.39387" lon="-1.03829">
        <ele>53.307804</ele>
        <time>2022-12-23T08:34:37.732Z</time>
      </trkpt>
      <trkpt lat="45.39376" lon="-1.0383">
        <ele>53.348222</ele>
        <time>2022-12-23T08:34:40.727Z</time>
      </trkpt>
      <trkpt lat="45.39364" lon="-1.03829">
        <ele>53.389365</ele>
        <time>2022-12-23T08:34:43.749Z</time>
      </trkpt>
      <trkpt lat="45.39352" lon="-1.03828">
        <ele>53.429523</ele>
        <time>2022-12-23T08:34:46.748Z</time>
      </trkpt>
      <trkpt lat="45.39341" lon="-1.03825">
        <ele>53.469045</ele>
        <time>2022-12-23T08:34:49.752Z</time>
      </trkpt>
      <trkpt lat="45.3933" lon="-1.03823">
        <ele>53.508146</ele>
        <time>2022-12-23T08:34:52.745Z</time>
      </trkpt>
      <trkpt lat="45.39318" lon="-1.03819">
        <ele>53.550907</ele>
        <time>2022-12-23T08:34:55.749Z</time>
      </trkpt>
      <trkpt lat="45.39305" lon="-1.03816">
        <ele>53.59544</ele>
        <time>2022-12-23T08:34:58.748Z</time>
      </trkpt>
      <trkpt lat="45.39293" lon="-1.03812">
        <ele>53.620942</ele>
        <time>2022-12-23T08:35:01.727Z</time>
      </trkpt>
      <trkpt lat="45.3928" lon="-1.03809">
        <ele>53.603977</ele>
        <time>2022-12-23T08:35:04.751Z</time>
      </trkpt>
      <trkpt lat="45.39268" lon="-1.03806">
        <ele>53.586789</ele>
        <time>2022-12-23T08:35:07.749Z</time>
      </trkpt>
      <trkpt lat="45.39255" lon="-1.03803">
        <ele>53.568866</ele>
        <time>2022-12-23T08:35:10.745Z</time>
      </trkpt>
      <trkpt lat="45.39242" lon="-1.03799">
        <ele>53.550926</ele>
        <time>2022-12-23T08:35:13.748Z</time>
      </trkpt>
      <trkpt lat="45.39233" lon="-1.03796">
        <ele>53.53825</ele>
        <time>2022-12-23T08:35:15.751Z</time>
      </trkpt>
      <trkpt lat="45.3922" lon="-1.03791">
        <ele>53.521154</ele>
        <time>2022-12-23T08:35:18.749Z</time>
      </trkpt>
      <trkpt lat="45.39208" lon="-1.03789">
        <ele>53.503957</ele>
        <time>2022-12-23T08:35:21.728Z</time>
      </trkpt>
      <trkpt lat="45.39195" lon="-1.03786">
        <ele>53.486202</ele>
        <time>2022-12-23T08:35:24.747Z</time>
      </trkpt>
      <trkpt lat="45.39182" lon="-1.03782">
        <ele>53.468338</ele>
        <time>2022-12-23T08:35:27.749Z</time>
      </trkpt>
      <trkpt lat="45.39169" lon="-1.0378">
        <ele>53.450518</ele>
        <time>2022-12-23T08:35:30.735Z</time>
      </trkpt>
      <trkpt lat="45.39156" lon="-1.0378">
        <ele>53.432359</ele>
        <time>2022-12-23T08:35:33.749Z</time>
      </trkpt>
      <trkpt lat="45.39142" lon="-1.03779">
        <ele>53.41434</ele>
        <time>2022-12-23T08:35:36.748Z</time>
      </trkpt>
      <trkpt lat="45.39133" lon="-1.03779">
        <ele>53.402124</ele>
        <time>2022-12-23T08:35:38.747Z</time>
      </trkpt>
      <trkpt lat="45.39121" lon="-1.03778">
        <ele>53.385593</ele>
        <time>2022-12-23T08:35:41.751Z</time>
      </trkpt>
      <trkpt lat="45.3911" lon="-1.03778">
        <ele>53.386589</ele>
        <time>2022-12-23T08:35:44.743Z</time>
      </trkpt>
      <trkpt lat="45.39097" lon="-1.03778">
        <ele>53.391504</ele>
        <time>2022-12-23T08:35:47.747Z</time>
      </trkpt>
      <trkpt lat="45.39083" lon="-1.03777">
        <ele>53.396892</ele>
        <time>2022-12-23T08:35:50.748Z</time>
      </trkpt>
      <trkpt lat="45.39074" lon="-1.03776">
        <ele>53.400519</ele>
        <time>2022-12-23T08:35:52.730Z</time>
      </trkpt>
      <trkpt lat="45.39065" lon="-1.03776">
        <ele>53.404059</ele>
        <time>2022-12-23T08:35:54.742Z</time>
      </trkpt>
      <trkpt lat="45.39056" lon="-1.03776">
        <ele>53.407754</ele>
        <time>2022-12-23T08:35:56.742Z</time>
      </trkpt>
      <trkpt lat="45.39046" lon="-1.03776">
        <ele>53.41149</ele>
        <time>2022-12-23T08:35:58.754Z</time>
      </trkpt>
      <trkpt lat="45.39036" lon="-1.03775">
        <ele>53.41535</ele>
        <time>2022-12-23T08:36:00.741Z</time>
      </trkpt>
      <trkpt lat="45.39027" lon="-1.03775">
        <ele>53.419164</ele>
        <time>2022-12-23T08:36:02.749Z</time>
      </trkpt>
      <trkpt lat="45.39017" lon="-1.03775">
        <ele>53.422825</ele>
        <time>2022-12-23T08:36:04.744Z</time>
      </trkpt>
      <trkpt lat="45.39008" lon="-1.03774">
        <ele>53.426601</ele>
        <time>2022-12-23T08:36:06.729Z</time>
      </trkpt>
      <trkpt lat="45.38999" lon="-1.03774">
        <ele>53.430218</ele>
        <time>2022-12-23T08:36:08.748Z</time>
      </trkpt>
      <trkpt lat="45.38989" lon="-1.03773">
        <ele>53.434043</ele>
        <time>2022-12-23T08:36:10.747Z</time>
      </trkpt>
      <trkpt lat="45.3898" lon="-1.03772">
        <ele>53.437717</ele>
        <time>2022-12-23T08:36:12.742Z</time>
      </trkpt>
      <trkpt lat="45.38967" lon="-1.03768">
        <ele>53.442687</ele>
        <time>2022-12-23T08:36:15.730Z</time>
      </trkpt>
      <trkpt lat="45.38956" lon="-1.03763">
        <ele>53.44733</ele>
        <time>2022-12-23T08:36:18.728Z</time>
      </trkpt>
      <trkpt lat="45.38944" lon="-1.03756">
        <ele>53.452325</ele>
        <time>2022-12-23T08:36:21.739Z</time>
      </trkpt>
      <trkpt lat="45.38932" lon="-1.03749">
        <ele>53.428171</ele>
        <time>2022-12-23T08:36:24.748Z</time>
      </trkpt>
      <trkpt lat="45.38923" lon="-1.03744">
        <ele>53.405429</ele>
        <time>2022-12-23T08:36:26.753Z</time>
      </trkpt>
      <trkpt lat="45.38915" lon="-1.03738">
        <ele>53.382367</ele>
        <time>2022-12-23T08:36:28.737Z</time>
      </trkpt>
      <trkpt lat="45.38907" lon="-1.03732">
        <ele>53.359558</ele>
        <time>2022-12-23T08:36:30.750Z</time>
      </trkpt>
      <trkpt lat="45.38898" lon="-1.03726">
        <ele>53.334801</ele>
        <time>2022-12-23T08:36:32.748Z</time>
      </trkpt>
      <trkpt lat="45.3889" lon="-1.03718">
        <ele>53.31098</ele>
        <time>2022-12-23T08:36:34.754Z</time>
      </trkpt>
      <trkpt lat="45.38882" lon="-1.03711">
        <ele>53.287159</ele>
        <time>2022-12-23T08:36:36.747Z</time>
      </trkpt>
      <trkpt lat="45.38874" lon="-1.03702">
        <ele>53.263818</ele>
        <time>2022-12-23T08:36:38.747Z</time>
      </trkpt>
      <trkpt lat="45.38867" lon="-1.03694">
        <ele>53.241106</ele>
        <time>2022-12-23T08:36:40.745Z</time>
      </trkpt>
      <trkpt lat="45.38859" lon="-1.0368">
        <ele>53.210313</ele>
        <time>2022-12-23T08:36:43.735Z</time>
      </trkpt>
      <trkpt lat="45.38852" lon="-1.03667">
        <ele>53.180642</ele>
        <time>2022-12-23T08:36:46.741Z</time>
      </trkpt>
      <trkpt lat="45.38844" lon="-1.03652">
        <ele>53.14849</ele>
        <time>2022-12-23T08:36:49.753Z</time>
      </trkpt>
      <trkpt lat="45.38839" lon="-1.03642">
        <ele>53.12544</ele>
        <time>2022-12-23T08:36:51.746Z</time>
      </trkpt>
      <trkpt lat="45.38834" lon="-1.0363">
        <ele>53.101781</ele>
        <time>2022-12-23T08:36:53.749Z</time>
      </trkpt>
      <trkpt lat="45.38828" lon="-1.03619">
        <ele>53.07845</ele>
        <time>2022-12-23T08:36:55.747Z</time>
      </trkpt>
      <trkpt lat="45.38822" lon="-1.03608">
        <ele>53.053949</ele>
        <time>2022-12-23T08:36:57.750Z</time>
      </trkpt>
      <trkpt lat="45.38816" lon="-1.03597">
        <ele>53.028559</ele>
        <time>2022-12-23T08:36:59.749Z</time>
      </trkpt>
      <trkpt lat="45.38809" lon="-1.03585">
        <ele>53.01367</ele>
        <time>2022-12-23T08:37:01.753Z</time>
      </trkpt>
      <trkpt lat="45.38802" lon="-1.03575">
        <ele>53.036899</ele>
        <time>2022-12-23T08:37:03.736Z</time>
      </trkpt>
      <trkpt lat="45.38795" lon="-1.03564">
        <ele>53.059828</ele>
        <time>2022-12-23T08:37:05.737Z</time>
      </trkpt>
      <trkpt lat="45.38788" lon="-1.03554">
        <ele>53.082018</ele>
        <time>2022-12-23T08:37:07.755Z</time>
      </trkpt>
      <trkpt lat="45.38781" lon="-1.03544">
        <ele>53.104144</ele>
        <time>2022-12-23T08:37:09.748Z</time>
      </trkpt>
      <trkpt lat="45.38774" lon="-1.03534">
        <ele>53.126381</ele>
        <time>2022-12-23T08:37:11.728Z</time>
      </trkpt>
      <trkpt lat="45.38767" lon="-1.03526">
        <ele>53.146776</ele>
        <time>2022-12-23T08:37:13.735Z</time>
      </trkpt>
      <trkpt lat="45.38759" lon="-1.03512">
        <ele>53.174615</ele>
        <time>2022-12-23T08:37:16.746Z</time>
      </trkpt>
      <trkpt lat="45.38751" lon="-1.03498">
        <ele>53.203762</ele>
        <time>2022-12-23T08:37:19.748Z</time>
      </trkpt>
      <trkpt lat="45.38744" lon="-1.03488">
        <ele>53.226294</ele>
        <time>2022-12-23T08:37:21.725Z</time>
      </trkpt>
      <trkpt lat="45.38734" lon="-1.03475">
        <ele>53.255991</ele>
        <time>2022-12-23T08:37:24.742Z</time>
      </trkpt>
      <trkpt lat="45.38727" lon="-1.03466">
        <ele>53.277823</ele>
        <time>2022-12-23T08:37:26.747Z</time>
      </trkpt>
      <trkpt lat="45.3872" lon="-1.03456">
        <ele>53.299857</ele>
        <time>2022-12-23T08:37:28.749Z</time>
      </trkpt>
      <trkpt lat="45.38712" lon="-1.03446">
        <ele>53.323134</ele>
        <time>2022-12-23T08:37:30.742Z</time>
      </trkpt>
      <trkpt lat="45.38706" lon="-1.03437">
        <ele>53.343569</ele>
        <time>2022-12-23T08:37:32.730Z</time>
      </trkpt>
      <trkpt lat="45.387" lon="-1.03427">
        <ele>53.365284</ele>
        <time>2022-12-23T08:37:34.752Z</time>
      </trkpt>
      <trkpt lat="45.38692" lon="-1.03417">
        <ele>53.388288</ele>
        <time>2022-12-23T08:37:36.747Z</time>
      </trkpt>
      <trkpt lat="45.38685" lon="-1.03408">
        <ele>53.410429</ele>
        <time>2022-12-23T08:37:38.744Z</time>
      </trkpt>
      <trkpt lat="45.38679" lon="-1.03399">
        <ele>53.387319</ele>
        <time>2022-12-23T08:37:40.746Z</time>
      </trkpt>
      <trkpt lat="45.38669" lon="-1.03387">
        <ele>53.343</ele>
        <time>2022-12-23T08:37:43.728Z</time>
      </trkpt>
      <trkpt lat="45.38663" lon="-1.03378">
        <ele>53.310815</ele>
        <time>2022-12-23T08:37:45.748Z</time>
      </trkpt>
      <trkpt lat="45.38655" lon="-1.03369">
        <ele>53.277127</ele>
        <time>2022-12-23T08:37:47.746Z</time>
      </trkpt>
      <trkpt lat="45.38649" lon="-1.0336">
        <ele>53.244702</ele>
        <time>2022-12-23T08:37:49.748Z</time>
      </trkpt>
      <trkpt lat="45.38639" lon="-1.03347">
        <ele>53.198157</ele>
        <time>2022-12-23T08:37:52.750Z</time>
      </trkpt>
      <trkpt lat="45.38629" lon="-1.03334">
        <ele>53.150143</ele>
        <time>2022-12-23T08:37:55.725Z</time>
      </trkpt>
      <trkpt lat="45.38622" lon="-1.03326">
        <ele>53.116726</ele>
        <time>2022-12-23T08:37:57.750Z</time>
      </trkpt>
      <trkpt lat="45.38614" lon="-1.03317">
        <ele>53.083391</ele>
        <time>2022-12-23T08:37:59.734Z</time>
      </trkpt>
      <trkpt lat="45.38607" lon="-1.03309">
        <ele>53.051155</ele>
        <time>2022-12-23T08:38:01.746Z</time>
      </trkpt>
      <trkpt lat="45.38598" lon="-1.03298">
        <ele>53.008013</ele>
        <time>2022-12-23T08:38:04.738Z</time>
      </trkpt>
      <trkpt lat="45.38589" lon="-1.03289">
        <ele>52.968221</ele>
        <time>2022-12-23T08:38:07.748Z</time>
      </trkpt>
      <trkpt lat="45.38579" lon="-1.0328">
        <ele>52.928295</ele>
        <time>2022-12-23T08:38:10.749Z</time>
      </trkpt>
      <trkpt lat="45.38569" lon="-1.03271">
        <ele>52.886324</ele>
        <time>2022-12-23T08:38:13.750Z</time>
      </trkpt>
      <trkpt lat="45.38559" lon="-1.03261">
        <ele>52.841734</ele>
        <time>2022-12-23T08:38:16.747Z</time>
      </trkpt>
      <trkpt lat="45.38547" lon="-1.03251">
        <ele>52.794089</ele>
        <time>2022-12-23T08:38:19.750Z</time>
      </trkpt>
      <trkpt lat="45.38536" lon="-1.03242">
        <ele>52.777142</ele>
        <time>2022-12-23T08:38:22.752Z</time>
      </trkpt>
      <trkpt lat="45.38525" lon="-1.03232">
        <ele>52.77693</ele>
        <time>2022-12-23T08:38:25.750Z</time>
      </trkpt>
      <trkpt lat="45.38515" lon="-1.03224">
        <ele>52.776739</ele>
        <time>2022-12-23T08:38:28.747Z</time>
      </trkpt>
      <trkpt lat="45.38504" lon="-1.03215">
        <ele>52.776531</ele>
        <time>2022-12-23T08:38:31.748Z</time>
      </trkpt>
      <trkpt lat="45.38493" lon="-1.03206">
        <ele>52.776317</ele>
        <time>2022-12-23T08:38:34.747Z</time>
      </trkpt>
      <trkpt lat="45.38481" lon="-1.03197">
        <ele>52.776099</ele>
        <time>2022-12-23T08:38:37.746Z</time>
      </trkpt>
      <trkpt lat="45.38469" lon="-1.03187">
        <ele>52.775877</ele>
        <time>2022-12-23T08:38:40.751Z</time>
      </trkpt>
      <trkpt lat="45.38461" lon="-1.03181">
        <ele>52.775726</ele>
        <time>2022-12-23T08:38:42.749Z</time>
      </trkpt>
      <trkpt lat="45.38453" lon="-1.03174">
        <ele>52.775575</ele>
        <time>2022-12-23T08:38:44.731Z</time>
      </trkpt>
      <trkpt lat="45.38445" lon="-1.03168">
        <ele>52.775417</ele>
        <time>2022-12-23T08:38:46.749Z</time>
      </trkpt>
      <trkpt lat="45.38437" lon="-1.03161">
        <ele>52.775264</ele>
        <time>2022-12-23T08:38:48.750Z</time>
      </trkpt>
      <trkpt lat="45.38427" lon="-1.03152">
        <ele>52.775062</ele>
        <time>2022-12-23T08:38:51.750Z</time>
      </trkpt>
      <trkpt lat="45.38417" lon="-1.03143">
        <ele>52.774876</ele>
        <time>2022-12-23T08:38:54.749Z</time>
      </trkpt>
      <trkpt lat="45.38407" lon="-1.03136">
        <ele>52.774685</ele>
        <time>2022-12-23T08:38:57.748Z</time>
      </trkpt>
      <trkpt lat="45.38396" lon="-1.03127">
        <ele>52.774482</ele>
        <time>2022-12-23T08:39:00.747Z</time>
      </trkpt>
      <trkpt lat="45.38385" lon="-1.03119">
        <ele>52.788232</ele>
        <time>2022-12-23T08:39:03.752Z</time>
      </trkpt>
      <trkpt lat="45.38374" lon="-1.0311">
        <ele>52.850312</ele>
        <time>2022-12-23T08:39:06.745Z</time>
      </trkpt>
      <trkpt lat="45.38363" lon="-1.03101">
        <ele>52.913513</ele>
        <time>2022-12-23T08:39:09.749Z</time>
      </trkpt>
      <trkpt lat="45.38351" lon="-1.03092">
        <ele>52.978365</ele>
        <time>2022-12-23T08:39:12.748Z</time>
      </trkpt>
      <trkpt lat="45.38341" lon="-1.03084">
        <ele>53.039659</ele>
        <time>2022-12-23T08:39:15.751Z</time>
      </trkpt>
      <trkpt lat="45.3833" lon="-1.03074">
        <ele>53.102779</ele>
        <time>2022-12-23T08:39:18.753Z</time>
      </trkpt>
      <trkpt lat="45.38319" lon="-1.03065">
        <ele>53.168511</ele>
        <time>2022-12-23T08:39:21.751Z</time>
      </trkpt>
      <trkpt lat="45.38308" lon="-1.03056">
        <ele>53.230063</ele>
        <time>2022-12-23T08:39:24.739Z</time>
      </trkpt>
      <trkpt lat="45.38297" lon="-1.03047">
        <ele>53.293182</ele>
        <time>2022-12-23T08:39:27.743Z</time>
      </trkpt>
      <trkpt lat="45.38286" lon="-1.03037">
        <ele>53.359597</ele>
        <time>2022-12-23T08:39:30.744Z</time>
      </trkpt>
      <trkpt lat="45.38274" lon="-1.03027">
        <ele>53.426118</ele>
        <time>2022-12-23T08:39:33.734Z</time>
      </trkpt>
      <trkpt lat="45.38266" lon="-1.03021">
        <ele>53.473383</ele>
        <time>2022-12-23T08:39:35.747Z</time>
      </trkpt>
      <trkpt lat="45.38254" lon="-1.03011">
        <ele>53.542488</ele>
        <time>2022-12-23T08:39:38.725Z</time>
      </trkpt>
      <trkpt lat="45.38246" lon="-1.03004">
        <ele>53.590375</ele>
        <time>2022-12-23T08:39:40.750Z</time>
      </trkpt>
      <trkpt lat="45.38238" lon="-1.02998">
        <ele>53.635986</ele>
        <time>2022-12-23T08:39:42.734Z</time>
      </trkpt>
      <trkpt lat="45.38226" lon="-1.02989">
        <ele>53.656116</ele>
        <time>2022-12-23T08:39:45.750Z</time>
      </trkpt>
      <trkpt lat="45.38218" lon="-1.02983">
        <ele>53.629575</ele>
        <time>2022-12-23T08:39:47.733Z</time>
      </trkpt>
      <trkpt lat="45.3821" lon="-1.02976">
        <ele>53.602724</ele>
        <time>2022-12-23T08:39:49.732Z</time>
      </trkpt>
      <trkpt lat="45.382" lon="-1.02967">
        <ele>53.568495</ele>
        <time>2022-12-23T08:39:52.735Z</time>
      </trkpt>
      <trkpt lat="45.38189" lon="-1.02957">
        <ele>53.528803</ele>
        <time>2022-12-23T08:39:55.729Z</time>
      </trkpt>
      <trkpt lat="45.38177" lon="-1.02949">
        <ele>53.489706</ele>
        <time>2022-12-23T08:39:58.744Z</time>
      </trkpt>
      <trkpt lat="45.38169" lon="-1.02942">
        <ele>53.462888</ele>
        <time>2022-12-23T08:40:00.734Z</time>
      </trkpt>
      <trkpt lat="45.38161" lon="-1.02935">
        <ele>53.435883</ele>
        <time>2022-12-23T08:40:02.751Z</time>
      </trkpt>
      <trkpt lat="45.38152" lon="-1.02929">
        <ele>53.407722</ele>
        <time>2022-12-23T08:40:04.753Z</time>
      </trkpt>
      <trkpt lat="45.38144" lon="-1.02922">
        <ele>53.380517</ele>
        <time>2022-12-23T08:40:06.748Z</time>
      </trkpt>
      <trkpt lat="45.38136" lon="-1.02915">
        <ele>53.352709</ele>
        <time>2022-12-23T08:40:08.751Z</time>
      </trkpt>
      <trkpt lat="45.38124" lon="-1.02906">
        <ele>53.312872</ele>
        <time>2022-12-23T08:40:11.749Z</time>
      </trkpt>
      <trkpt lat="45.38112" lon="-1.02897">
        <ele>53.274806</ele>
        <time>2022-12-23T08:40:14.735Z</time>
      </trkpt>
      <trkpt lat="45.38101" lon="-1.02887">
        <ele>53.23542</ele>
        <time>2022-12-23T08:40:17.736Z</time>
      </trkpt>
      <trkpt lat="45.38092" lon="-1.02881">
        <ele>53.2071</ele>
        <time>2022-12-23T08:40:19.738Z</time>
      </trkpt>
      <trkpt lat="45.38084" lon="-1.02874">
        <ele>53.179818</ele>
        <time>2022-12-23T08:40:21.728Z</time>
      </trkpt>
      <trkpt lat="45.38076" lon="-1.02867">
        <ele>53.153072</ele>
        <time>2022-12-23T08:40:23.727Z</time>
      </trkpt>
      <trkpt lat="45.38066" lon="-1.02859">
        <ele>53.247648</ele>
        <time>2022-12-23T08:40:26.728Z</time>
      </trkpt>
      <trkpt lat="45.38055" lon="-1.02849">
        <ele>53.361152</ele>
        <time>2022-12-23T08:40:29.747Z</time>
      </trkpt>
      <trkpt lat="45.38044" lon="-1.02841">
        <ele>53.472139</ele>
        <time>2022-12-23T08:40:32.743Z</time>
      </trkpt>
      <trkpt lat="45.38033" lon="-1.02832">
        <ele>53.585316</ele>
        <time>2022-12-23T08:40:35.748Z</time>
      </trkpt>
      <trkpt lat="45.38022" lon="-1.02824">
        <ele>53.698494</ele>
        <time>2022-12-23T08:40:38.748Z</time>
      </trkpt>
      <trkpt lat="45.38011" lon="-1.02815">
        <ele>53.810882</ele>
        <time>2022-12-23T08:40:41.726Z</time>
      </trkpt>
      <trkpt lat="45.38001" lon="-1.02806">
        <ele>53.919873</ele>
        <time>2022-12-23T08:40:44.746Z</time>
      </trkpt>
      <trkpt lat="45.37991" lon="-1.02797">
        <ele>54.027434</ele>
        <time>2022-12-23T08:40:47.727Z</time>
      </trkpt>
      <trkpt lat="45.37981" lon="-1.02788">
        <ele>54.133237</ele>
        <time>2022-12-23T08:40:50.744Z</time>
      </trkpt>
      <trkpt lat="45.37972" lon="-1.02776">
        <ele>54.241207</ele>
        <time>2022-12-23T08:40:53.742Z</time>
      </trkpt>
      <trkpt lat="45.37964" lon="-1.02765">
        <ele>54.346143</ele>
        <time>2022-12-23T08:40:56.750Z</time>
      </trkpt>
      <trkpt lat="45.37956" lon="-1.02752">
        <ele>54.456584</ele>
        <time>2022-12-23T08:40:59.735Z</time>
      </trkpt>
      <trkpt lat="45.37948" lon="-1.02738">
        <ele>54.5691</ele>
        <time>2022-12-23T08:41:02.733Z</time>
      </trkpt>
      <trkpt lat="45.37941" lon="-1.02724">
        <ele>54.675427</ele>
        <time>2022-12-23T08:41:05.747Z</time>
      </trkpt>
      <trkpt lat="45.37935" lon="-1.02712">
        <ele>54.767701</ele>
        <time>2022-12-23T08:41:08.754Z</time>
      </trkpt>
      <trkpt lat="45.3793" lon="-1.02702">
        <ele>54.641854</ele>
        <time>2022-12-23T08:41:11.750Z</time>
      </trkpt>
      <trkpt lat="45.37924" lon="-1.0269">
        <ele>54.488333</ele>
        <time>2022-12-23T08:41:14.750Z</time>
      </trkpt>
      <trkpt lat="45.37918" lon="-1.02678">
        <ele>54.333955</ele>
        <time>2022-12-23T08:41:17.749Z</time>
      </trkpt>
      <trkpt lat="45.37912" lon="-1.02665">
        <ele>54.174123</ele>
        <time>2022-12-23T08:41:20.732Z</time>
      </trkpt>
      <trkpt lat="45.37905" lon="-1.02653">
        <ele>54.010567</ele>
        <time>2022-12-23T08:41:23.733Z</time>
      </trkpt>
      <trkpt lat="45.37897" lon="-1.02643">
        <ele>53.853414</ele>
        <time>2022-12-23T08:41:26.727Z</time>
      </trkpt>
      <trkpt lat="45.3789" lon="-1.02633">
        <ele>53.705608</ele>
        <time>2022-12-23T08:41:29.747Z</time>
      </trkpt>
      <trkpt lat="45.37882" lon="-1.02621">
        <ele>53.536179</ele>
        <time>2022-12-23T08:41:33.724Z</time>
      </trkpt>
      <trkpt lat="45.37879" lon="-1.02608">
        <ele>53.397083</ele>
        <time>2022-12-23T08:41:37.746Z</time>
      </trkpt>
      <trkpt lat="45.37878" lon="-1.02596">
        <ele>53.263147</ele>
        <time>2022-12-23T08:41:50.730Z</time>
      </trkpt>
      <trkpt lat="45.37878" lon="-1.02582">
        <ele>53.1214</ele>
        <time>2022-12-23T08:41:58.733Z</time>
      </trkpt>
      <trkpt lat="45.37878" lon="-1.02567">
        <ele>52.965054</ele>
        <time>2022-12-23T08:42:03.726Z</time>
      </trkpt>
      <trkpt lat="45.37872" lon="-1.02554">
        <ele>52.801984</ele>
        <time>2022-12-23T08:42:07.729Z</time>
      </trkpt>
      <trkpt lat="45.37863" lon="-1.02547">
        <ele>52.649587</ele>
        <time>2022-12-23T08:42:10.730Z</time>
      </trkpt>
      <trkpt lat="45.37853" lon="-1.02538">
        <ele>52.480327</ele>
        <time>2022-12-23T08:42:13.731Z</time>
      </trkpt>
      <trkpt lat="45.37844" lon="-1.02526">
        <ele>52.295872</ele>
        <time>2022-12-23T08:42:16.745Z</time>
      </trkpt>
      <trkpt lat="45.37836" lon="-1.02511">
        <ele>52.104363</ele>
        <time>2022-12-23T08:42:19.733Z</time>
      </trkpt>
      <trkpt lat="45.37831" lon="-1.02501">
        <ele>52.195931</ele>
        <time>2022-12-23T08:42:21.727Z</time>
      </trkpt>
      <trkpt lat="45.37824" lon="-1.02485">
        <ele>52.331748</ele>
        <time>2022-12-23T08:42:24.749Z</time>
      </trkpt>
      <trkpt lat="45.37818" lon="-1.02474">
        <ele>52.428037</ele>
        <time>2022-12-23T08:42:26.750Z</time>
      </trkpt>
      <trkpt lat="45.37811" lon="-1.02458">
        <ele>52.563626</ele>
        <time>2022-12-23T08:42:29.752Z</time>
      </trkpt>
      <trkpt lat="45.37805" lon="-1.02448">
        <ele>52.656955</ele>
        <time>2022-12-23T08:42:31.748Z</time>
      </trkpt>
      <trkpt lat="45.37799" lon="-1.02439">
        <ele>52.749324</ele>
        <time>2022-12-23T08:42:33.752Z</time>
      </trkpt>
      <trkpt lat="45.37792" lon="-1.02424">
        <ele>52.876111</ele>
        <time>2022-12-23T08:42:36.751Z</time>
      </trkpt>
      <trkpt lat="45.37784" lon="-1.0241">
        <ele>53.006434</ele>
        <time>2022-12-23T08:42:39.732Z</time>
      </trkpt>
      <trkpt lat="45.37778" lon="-1.024">
        <ele>53.100671</ele>
        <time>2022-12-23T08:42:41.725Z</time>
      </trkpt>
      <trkpt lat="45.37771" lon="-1.02389">
        <ele>53.204566</ele>
        <time>2022-12-23T08:42:43.729Z</time>
      </trkpt>
      <trkpt lat="45.37765" lon="-1.02379">
        <ele>53.30021</ele>
        <time>2022-12-23T08:42:45.743Z</time>
      </trkpt>
      <trkpt lat="45.37757" lon="-1.02371">
        <ele>53.394367</ele>
        <time>2022-12-23T08:42:47.741Z</time>
      </trkpt>
      <trkpt lat="45.3775" lon="-1.02363">
        <ele>53.49171</ele>
        <time>2022-12-23T08:42:49.746Z</time>
      </trkpt>
      <trkpt lat="45.37741" lon="-1.02353">
        <ele>53.612571</ele>
        <time>2022-12-23T08:42:52.747Z</time>
      </trkpt>
      <trkpt lat="45.37731" lon="-1.02343">
        <ele>53.733644</ele>
        <time>2022-12-23T08:42:55.747Z</time>
      </trkpt>
      <trkpt lat="45.3772" lon="-1.02337">
        <ele>53.847841</ele>
        <time>2022-12-23T08:42:58.730Z</time>
      </trkpt>
      <trkpt lat="45.37711" lon="-1.02328">
        <ele>53.938064</ele>
        <time>2022-12-23T08:43:01.735Z</time>
      </trkpt>
      <trkpt lat="45.37702" lon="-1.02321">
        <ele>53.92968</ele>
        <time>2022-12-23T08:43:05.741Z</time>
      </trkpt>
      <trkpt lat="45.37685" lon="-1.02307">
        <ele>53.913982</ele>
        <time>2022-12-23T08:44:49.744Z</time>
      </trkpt>
      <trkpt lat="45.37675" lon="-1.02298">
        <ele>53.904684</ele>
        <time>2022-12-23T08:44:53.725Z</time>
      </trkpt>
      <trkpt lat="45.37667" lon="-1.02292">
        <ele>53.897192</ele>
        <time>2022-12-23T08:44:56.740Z</time>
      </trkpt>
      <trkpt lat="45.37657" lon="-1.02285">
        <ele>53.889164</ele>
        <time>2022-12-23T08:44:59.749Z</time>
      </trkpt>
      <trkpt lat="45.37648" lon="-1.02278">
        <ele>53.88093</ele>
        <time>2022-12-23T08:45:02.731Z</time>
      </trkpt>
      <trkpt lat="45.37639" lon="-1.02271">
        <ele>53.872738</ele>
        <time>2022-12-23T08:45:05.746Z</time>
      </trkpt>
      <trkpt lat="45.3763" lon="-1.02262">
        <ele>53.864191</ele>
        <time>2022-12-23T08:45:08.747Z</time>
      </trkpt>
      <trkpt lat="45.37621" lon="-1.02254">
        <ele>53.855702</ele>
        <time>2022-12-23T08:45:11.726Z</time>
      </trkpt>
      <trkpt lat="45.37612" lon="-1.02245">
        <ele>53.846871</ele>
        <time>2022-12-23T08:45:14.751Z</time>
      </trkpt>
      <trkpt lat="45.37604" lon="-1.02235">
        <ele>53.838455</ele>
        <time>2022-12-23T08:45:17.746Z</time>
      </trkpt>
      <trkpt lat="45.37596" lon="-1.02224">
        <ele>53.829637</ele>
        <time>2022-12-23T08:45:20.740Z</time>
      </trkpt>
      <trkpt lat="45.37588" lon="-1.02212">
        <ele>53.820702</ele>
        <time>2022-12-23T08:45:23.746Z</time>
      </trkpt>
      <trkpt lat="45.37581" lon="-1.02201">
        <ele>53.81174</ele>
        <time>2022-12-23T08:45:26.747Z</time>
      </trkpt>
      <trkpt lat="45.37573" lon="-1.02189">
        <ele>53.802709</ele>
        <time>2022-12-23T08:45:29.748Z</time>
      </trkpt>
      <trkpt lat="45.37565" lon="-1.02176">
        <ele>53.728267</ele>
        <time>2022-12-23T08:45:32.750Z</time>
      </trkpt>
      <trkpt lat="45.37557" lon="-1.02163">
        <ele>53.573631</ele>
        <time>2022-12-23T08:45:35.749Z</time>
      </trkpt>
      <trkpt lat="45.37549" lon="-1.0215">
        <ele>53.412822</ele>
        <time>2022-12-23T08:45:38.737Z</time>
      </trkpt>
      <trkpt lat="45.37541" lon="-1.02136">
        <ele>53.251316</ele>
        <time>2022-12-23T08:45:41.749Z</time>
      </trkpt>
      <trkpt lat="45.37533" lon="-1.02122">
        <ele>53.082641</ele>
        <time>2022-12-23T08:45:44.729Z</time>
      </trkpt>
      <trkpt lat="45.37525" lon="-1.02106">
        <ele>52.909781</ele>
        <time>2022-12-23T08:45:47.744Z</time>
      </trkpt>
      <trkpt lat="45.37516" lon="-1.02092">
        <ele>52.733425</ele>
        <time>2022-12-23T08:45:50.748Z</time>
      </trkpt>
      <trkpt lat="45.37509" lon="-1.02083">
        <ele>52.616824</ele>
        <time>2022-12-23T08:45:52.751Z</time>
      </trkpt>
      <trkpt lat="45.37499" lon="-1.0207">
        <ele>52.435972</ele>
        <time>2022-12-23T08:45:55.748Z</time>
      </trkpt>
      <trkpt lat="45.37491" lon="-1.02055">
        <ele>52.269746</ele>
        <time>2022-12-23T08:45:58.752Z</time>
      </trkpt>
      <trkpt lat="45.37485" lon="-1.02044">
        <ele>52.142945</ele>
        <time>2022-12-23T08:46:00.737Z</time>
      </trkpt>
      <trkpt lat="45.37477" lon="-1.02036">
        <ele>52.019362</ele>
        <time>2022-12-23T08:46:02.746Z</time>
      </trkpt>
      <trkpt lat="45.37469" lon="-1.02019">
        <ele>51.830123</ele>
        <time>2022-12-23T08:46:05.731Z</time>
      </trkpt>
      <trkpt lat="45.37461" lon="-1.02004">
        <ele>51.650436</ele>
        <time>2022-12-23T08:46:08.748Z</time>
      </trkpt>
      <trkpt lat="45.37452" lon="-1.0199">
        <ele>51.479194</ele>
        <time>2022-12-23T08:46:11.751Z</time>
      </trkpt>
      <trkpt lat="45.37445" lon="-1.01981">
        <ele>51.461281</ele>
        <time>2022-12-23T08:46:13.746Z</time>
      </trkpt>
      <trkpt lat="45.37434" lon="-1.0197">
        <ele>51.453609</ele>
        <time>2022-12-23T08:46:16.746Z</time>
      </trkpt>
      <trkpt lat="45.37423" lon="-1.01959">
        <ele>51.445604</ele>
        <time>2022-12-23T08:46:19.743Z</time>
      </trkpt>
      <trkpt lat="45.37414" lon="-1.01955">
        <ele>51.439928</ele>
        <time>2022-12-23T08:46:21.746Z</time>
      </trkpt>
      <trkpt lat="45.37406" lon="-1.01948">
        <ele>51.434584</ele>
        <time>2022-12-23T08:46:23.740Z</time>
      </trkpt>
      <trkpt lat="45.37393" lon="-1.01941">
        <ele>51.426441</ele>
        <time>2022-12-23T08:46:26.748Z</time>
      </trkpt>
      <trkpt lat="45.37382" lon="-1.01931">
        <ele>51.418657</ele>
        <time>2022-12-23T08:46:29.748Z</time>
      </trkpt>
      <trkpt lat="45.37373" lon="-1.01925">
        <ele>51.41281</ele>
        <time>2022-12-23T08:46:31.728Z</time>
      </trkpt>
      <trkpt lat="45.37362" lon="-1.01917">
        <ele>51.405487</ele>
        <time>2022-12-23T08:46:34.742Z</time>
      </trkpt>
      <trkpt lat="45.3735" lon="-1.01908">
        <ele>51.397748</ele>
        <time>2022-12-23T08:46:37.744Z</time>
      </trkpt>
      <trkpt lat="45.37339" lon="-1.019">
        <ele>51.390677</ele>
        <time>2022-12-23T08:46:40.750Z</time>
      </trkpt>
      <trkpt lat="45.37328" lon="-1.01892">
        <ele>51.383283</ele>
        <time>2022-12-23T08:46:43.737Z</time>
      </trkpt>
      <trkpt lat="45.37317" lon="-1.01882">
        <ele>51.375593</ele>
        <time>2022-12-23T08:46:46.743Z</time>
      </trkpt>
      <trkpt lat="45.37305" lon="-1.01873">
        <ele>51.367814</ele>
        <time>2022-12-23T08:46:49.748Z</time>
      </trkpt>
      <trkpt lat="45.37295" lon="-1.01863">
        <ele>51.361191</ele>
        <time>2022-12-23T08:46:52.746Z</time>
      </trkpt>
      <trkpt lat="45.37286" lon="-1.01854">
        <ele>51.412203</ele>
        <time>2022-12-23T08:46:55.742Z</time>
      </trkpt>
      <trkpt lat="45.37278" lon="-1.01843">
        <ele>51.461435</ele>
        <time>2022-12-23T08:46:58.747Z</time>
      </trkpt>
      <trkpt lat="45.37269" lon="-1.01833">
        <ele>51.512706</ele>
        <time>2022-12-23T08:47:01.749Z</time>
      </trkpt>
      <trkpt lat="45.3726" lon="-1.01822">
        <ele>51.566075</ele>
        <time>2022-12-23T08:47:04.736Z</time>
      </trkpt>
      <trkpt lat="45.37251" lon="-1.0181">
        <ele>51.621839</ele>
        <time>2022-12-23T08:47:07.745Z</time>
      </trkpt>
      <trkpt lat="45.37243" lon="-1.01797">
        <ele>51.678116</ele>
        <time>2022-12-23T08:47:10.749Z</time>
      </trkpt>
      <trkpt lat="45.37234" lon="-1.01783">
        <ele>51.736323</ele>
        <time>2022-12-23T08:47:13.746Z</time>
      </trkpt>
      <trkpt lat="45.37225" lon="-1.01769">
        <ele>51.795118</ele>
        <time>2022-12-23T08:47:16.747Z</time>
      </trkpt>
      <trkpt lat="45.37217" lon="-1.01755">
        <ele>51.852756</ele>
        <time>2022-12-23T08:47:19.753Z</time>
      </trkpt>
      <trkpt lat="45.37209" lon="-1.01741">
        <ele>51.909178</ele>
        <time>2022-12-23T08:47:22.744Z</time>
      </trkpt>
      <trkpt lat="45.37201" lon="-1.01728">
        <ele>51.965653</ele>
        <time>2022-12-23T08:47:25.734Z</time>
      </trkpt>
      <trkpt lat="45.37194" lon="-1.01714">
        <ele>52.020303</ele>
        <time>2022-12-23T08:47:28.735Z</time>
      </trkpt>
      <trkpt lat="45.37187" lon="-1.01702">
        <ele>52.069662</ele>
        <time>2022-12-23T08:47:31.753Z</time>
      </trkpt>
      <trkpt lat="45.3718" lon="-1.0169">
        <ele>52.118204</ele>
        <time>2022-12-23T08:47:35.737Z</time>
      </trkpt>
      <trkpt lat="45.37174" lon="-1.01678">
        <ele>52.164603</ele>
        <time>2022-12-23T08:47:38.745Z</time>
      </trkpt>
      <trkpt lat="45.37165" lon="-1.01666">
        <ele>51.844954</ele>
        <time>2022-12-23T08:47:41.748Z</time>
      </trkpt>
      <trkpt lat="45.37155" lon="-1.01654">
        <ele>51.46179</ele>
        <time>2022-12-23T08:47:44.741Z</time>
      </trkpt>
      <trkpt lat="45.37145" lon="-1.01642">
        <ele>51.07014</ele>
        <time>2022-12-23T08:47:47.745Z</time>
      </trkpt>
      <trkpt lat="45.37135" lon="-1.01629">
        <ele>50.67582</ele>
        <time>2022-12-23T08:47:50.748Z</time>
      </trkpt>
      <trkpt lat="45.37124" lon="-1.01617">
        <ele>50.275681</ele>
        <time>2022-12-23T08:47:53.750Z</time>
      </trkpt>
      <trkpt lat="45.37117" lon="-1.01608">
        <ele>50.010114</ele>
        <time>2022-12-23T08:47:55.739Z</time>
      </trkpt>
      <trkpt lat="45.37107" lon="-1.01597">
        <ele>49.626565</ele>
        <time>2022-12-23T08:47:58.750Z</time>
      </trkpt>
      <trkpt lat="45.37097" lon="-1.01585">
        <ele>49.25862</ele>
        <time>2022-12-23T08:48:01.747Z</time>
      </trkpt>
      <trkpt lat="45.37089" lon="-1.01575">
        <ele>48.925867</ele>
        <time>2022-12-23T08:48:04.750Z</time>
      </trkpt>
      <trkpt lat="45.37081" lon="-1.01564">
        <ele>48.600244</ele>
        <time>2022-12-23T08:48:07.736Z</time>
      </trkpt>
      <trkpt lat="45.37073" lon="-1.01553">
        <ele>48.271144</ele>
        <time>2022-12-23T08:48:10.747Z</time>
      </trkpt>
      <trkpt lat="45.37064" lon="-1.01541">
        <ele>47.928532</ele>
        <time>2022-12-23T08:48:13.745Z</time>
      </trkpt>
      <trkpt lat="45.37055" lon="-1.01531">
        <ele>47.586755</ele>
        <time>2022-12-23T08:48:16.737Z</time>
      </trkpt>
      <trkpt lat="45.37047" lon="-1.01521">
        <ele>47.253681</ele>
        <time>2022-12-23T08:48:19.748Z</time>
      </trkpt>
      <trkpt lat="45.37037" lon="-1.0151">
        <ele>46.897928</ele>
        <time>2022-12-23T08:48:22.749Z</time>
      </trkpt>
      <trkpt lat="45.37028" lon="-1.015">
        <ele>46.65234</ele>
        <time>2022-12-23T08:48:25.751Z</time>
      </trkpt>
      <trkpt lat="45.37018" lon="-1.01489">
        <ele>46.39142</ele>
        <time>2022-12-23T08:48:28.742Z</time>
      </trkpt>
      <trkpt lat="45.37008" lon="-1.01478">
        <ele>46.129283</ele>
        <time>2022-12-23T08:48:31.752Z</time>
      </trkpt>
      <trkpt lat="45.36998" lon="-1.01467">
        <ele>45.871982</ele>
        <time>2022-12-23T08:48:34.747Z</time>
      </trkpt>
      <trkpt lat="45.36987" lon="-1.01457">
        <ele>45.608751</ele>
        <time>2022-12-23T08:48:37.747Z</time>
      </trkpt>
      <trkpt lat="45.36976" lon="-1.01448">
        <ele>45.345089</ele>
        <time>2022-12-23T08:48:40.750Z</time>
      </trkpt>
      <trkpt lat="45.36968" lon="-1.01437">
        <ele>45.103752</ele>
        <time>2022-12-23T08:48:43.752Z</time>
      </trkpt>
      <trkpt lat="45.36958" lon="-1.01426">
        <ele>44.858634</ele>
        <time>2022-12-23T08:48:46.751Z</time>
      </trkpt>
      <trkpt lat="45.36949" lon="-1.01417">
        <ele>44.622558</ele>
        <time>2022-12-23T08:48:49.748Z</time>
      </trkpt>
      <trkpt lat="45.36941" lon="-1.01408">
        <ele>44.406809</ele>
        <time>2022-12-23T08:48:52.747Z</time>
      </trkpt>
      <trkpt lat="45.3693" lon="-1.014">
        <ele>44.155597</ele>
        <time>2022-12-23T08:48:55.747Z</time>
      </trkpt>
      <trkpt lat="45.3692" lon="-1.01389">
        <ele>43.890966</ele>
        <time>2022-12-23T08:48:58.746Z</time>
      </trkpt>
      <trkpt lat="45.3691" lon="-1.01379">
        <ele>43.635291</ele>
        <time>2022-12-23T08:49:01.733Z</time>
      </trkpt>
      <trkpt lat="45.369" lon="-1.01367">
        <ele>43.366561</ele>
        <time>2022-12-23T08:49:04.749Z</time>
      </trkpt>
      <trkpt lat="45.36892" lon="-1.01359">
        <ele>43.165135</ele>
        <time>2022-12-23T08:49:06.742Z</time>
      </trkpt>
      <trkpt lat="45.36885" lon="-1.01351">
        <ele>43.239428</ele>
        <time>2022-12-23T08:49:08.748Z</time>
      </trkpt>
      <trkpt lat="45.36875" lon="-1.01339">
        <ele>43.35252</ele>
        <time>2022-12-23T08:49:11.747Z</time>
      </trkpt>
      <trkpt lat="45.36867" lon="-1.01332">
        <ele>43.434255</ele>
        <time>2022-12-23T08:49:13.749Z</time>
      </trkpt>
      <trkpt lat="45.36857" lon="-1.01323">
        <ele>43.5385</ele>
        <time>2022-12-23T08:49:16.749Z</time>
      </trkpt>
      <trkpt lat="45.36847" lon="-1.01315">
        <ele>43.641439</ele>
        <time>2022-12-23T08:49:19.740Z</time>
      </trkpt>
      <trkpt lat="45.36839" lon="-1.01308">
        <ele>43.725748</ele>
        <time>2022-12-23T08:49:21.746Z</time>
      </trkpt>
      <trkpt lat="45.3683" lon="-1.01302">
        <ele>43.805649</ele>
        <time>2022-12-23T08:49:23.738Z</time>
      </trkpt>
      <trkpt lat="45.36819" lon="-1.01294">
        <ele>43.913527</ele>
        <time>2022-12-23T08:49:26.749Z</time>
      </trkpt>
      <trkpt lat="45.36809" lon="-1.01283">
        <ele>44.030184</ele>
        <time>2022-12-23T08:49:29.751Z</time>
      </trkpt>
      <trkpt lat="45.36798" lon="-1.01275">
        <ele>44.136586</ele>
        <time>2022-12-23T08:49:32.748Z</time>
      </trkpt>
      <trkpt lat="45.36788" lon="-1.01266">
        <ele>44.238305</ele>
        <time>2022-12-23T08:49:35.749Z</time>
      </trkpt>
      <trkpt lat="45.36779" lon="-1.01257">
        <ele>44.337213</ele>
        <time>2022-12-23T08:49:38.744Z</time>
      </trkpt>
      <trkpt lat="45.36769" lon="-1.0125">
        <ele>44.432716</ele>
        <time>2022-12-23T08:49:41.743Z</time>
      </trkpt>
      <trkpt lat="45.36758" lon="-1.01245">
        <ele>44.534114</ele>
        <time>2022-12-23T08:49:44.747Z</time>
      </trkpt>
      <trkpt lat="45.36748" lon="-1.01245">
        <ele>44.623475</ele>
        <time>2022-12-23T08:49:47.749Z</time>
      </trkpt>
      <trkpt lat="45.36738" lon="-1.01249">
        <ele>44.709092</ele>
        <time>2022-12-23T08:49:51.750Z</time>
      </trkpt>
      <trkpt lat="45.36727" lon="-1.01244">
        <ele>45.076173</ele>
        <time>2022-12-23T08:49:55.750Z</time>
      </trkpt>
      <trkpt lat="45.36718" lon="-1.01232">
        <ele>45.549386</ele>
        <time>2022-12-23T08:49:59.751Z</time>
      </trkpt>
      <trkpt lat="45.36713" lon="-1.01221">
        <ele>45.922728</ele>
        <time>2022-12-23T08:50:02.747Z</time>
      </trkpt>
      <trkpt lat="45.36707" lon="-1.01208">
        <ele>46.319242</ele>
        <time>2022-12-23T08:50:06.748Z</time>
      </trkpt>
      <trkpt lat="45.36716" lon="-1.01215">
        <ele>46.714971</ele>
        <time>2022-12-23T08:51:00.736Z</time>
      </trkpt>
      <trkpt lat="45.36723" lon="-1.01228">
        <ele>47.157648</ele>
        <time>2022-12-23T08:51:04.735Z</time>
      </trkpt>
      <trkpt lat="45.36729" lon="-1.0124">
        <ele>47.535568</ele>
        <time>2022-12-23T08:51:07.724Z</time>
      </trkpt>
      <trkpt lat="45.36734" lon="-1.01254">
        <ele>47.954847</ele>
        <time>2022-12-23T08:51:10.741Z</time>
      </trkpt>
      <trkpt lat="45.36738" lon="-1.01268">
        <ele>48.379518</ele>
        <time>2022-12-23T08:51:13.742Z</time>
      </trkpt>
      <trkpt lat="45.36743" lon="-1.01283">
        <ele>48.849276</ele>
        <time>2022-12-23T08:51:16.728Z</time>
      </trkpt>
      <trkpt lat="45.36748" lon="-1.01298">
        <ele>49.296073</ele>
        <time>2022-12-23T08:51:19.723Z</time>
      </trkpt>
      <trkpt lat="45.3675" lon="-1.01312">
        <ele>49.682204</ele>
        <time>2022-12-23T08:51:22.749Z</time>
      </trkpt>
      <trkpt lat="45.36755" lon="-1.01328">
        <ele>50.138863</ele>
        <time>2022-12-23T08:51:25.737Z</time>
      </trkpt>
      <trkpt lat="45.36759" lon="-1.01342">
        <ele>50.554355</ele>
        <time>2022-12-23T08:51:28.733Z</time>
      </trkpt>
      <trkpt lat="45.36763" lon="-1.01358">
        <ele>51.025929</ele>
        <time>2022-12-23T08:51:31.745Z</time>
      </trkpt>
      <trkpt lat="45.36766" lon="-1.01375">
        <ele>51.483547</ele>
        <time>2022-12-23T08:51:34.730Z</time>
      </trkpt>
      <trkpt lat="45.36769" lon="-1.0139">
        <ele>51.755862</ele>
        <time>2022-12-23T08:51:37.746Z</time>
      </trkpt>
      <trkpt lat="45.36773" lon="-1.01407">
        <ele>51.888889</ele>
        <time>2022-12-23T08:51:40.726Z</time>
      </trkpt>
      <trkpt lat="45.36775" lon="-1.0142">
        <ele>51.985313</ele>
        <time>2022-12-23T08:51:42.745Z</time>
      </trkpt>
      <trkpt lat="45.36777" lon="-1.01435">
        <ele>52.103504</ele>
        <time>2022-12-23T08:51:45.745Z</time>
      </trkpt>
      <trkpt lat="45.3678" lon="-1.01453">
        <ele>52.238548</ele>
        <time>2022-12-23T08:51:48.754Z</time>
      </trkpt>
      <trkpt lat="45.36782" lon="-1.01469">
        <ele>52.365603</ele>
        <time>2022-12-23T08:51:51.744Z</time>
      </trkpt>
      <trkpt lat="45.36784" lon="-1.01487">
        <ele>52.501096</ele>
        <time>2022-12-23T08:51:54.748Z</time>
      </trkpt>
      <trkpt lat="45.36786" lon="-1.01504">
        <ele>52.628056</ele>
        <time>2022-12-23T08:51:57.744Z</time>
      </trkpt>
      <trkpt lat="45.36787" lon="-1.01519">
        <ele>52.74328</ele>
        <time>2022-12-23T08:52:00.738Z</time>
      </trkpt>
      <trkpt lat="45.3679" lon="-1.01533">
        <ele>52.847677</ele>
        <time>2022-12-23T08:52:03.754Z</time>
      </trkpt>
      <trkpt lat="45.36792" lon="-1.01546">
        <ele>52.946713</ele>
        <time>2022-12-23T08:52:06.741Z</time>
      </trkpt>
      <trkpt lat="45.36794" lon="-1.01559">
        <ele>53.04899</ele>
        <time>2022-12-23T08:52:09.746Z</time>
      </trkpt>
      <trkpt lat="45.36795" lon="-1.01572">
        <ele>53.14941</ele>
        <time>2022-12-23T08:52:12.752Z</time>
      </trkpt>
      <trkpt lat="45.36798" lon="-1.01586">
        <ele>53.255738</ele>
        <time>2022-12-23T08:52:15.739Z</time>
      </trkpt>
      <trkpt lat="45.368" lon="-1.016">
        <ele>53.363573</ele>
        <time>2022-12-23T08:52:18.748Z</time>
      </trkpt>
      <trkpt lat="45.36803" lon="-1.01613">
        <ele>53.467257</ele>
        <time>2022-12-23T08:52:21.746Z</time>
      </trkpt>
      <trkpt lat="45.36806" lon="-1.01626">
        <ele>53.568049</ele>
        <time>2022-12-23T08:52:24.746Z</time>
      </trkpt>
      <trkpt lat="45.36808" lon="-1.01641">
        <ele>53.624011</ele>
        <time>2022-12-23T08:52:28.744Z</time>
      </trkpt>
      <trkpt lat="45.36805" lon="-1.01655">
        <ele>53.643693</ele>
        <time>2022-12-23T08:52:32.740Z</time>
      </trkpt>
      <trkpt lat="45.36799" lon="-1.01667">
        <ele>53.665498</ele>
        <time>2022-12-23T08:52:37.749Z</time>
      </trkpt>
      <trkpt lat="45.3679" lon="-1.01663">
        <ele>53.683867</ele>
        <time>2022-12-23T08:52:40.734Z</time>
      </trkpt>
      <trkpt lat="45.36784" lon="-1.01652">
        <ele>53.705023</ele>
        <time>2022-12-23T08:52:43.749Z</time>
      </trkpt>
      <trkpt lat="45.36777" lon="-1.01638">
        <ele>53.728938</ele>
        <time>2022-12-23T08:52:46.733Z</time>
      </trkpt>
      <trkpt lat="45.3677" lon="-1.01624">
        <ele>53.753685</ele>
        <time>2022-12-23T08:52:49.752Z</time>
      </trkpt>
      <trkpt lat="45.36762" lon="-1.0161">
        <ele>53.779509</ele>
        <time>2022-12-23T08:52:52.738Z</time>
      </trkpt>
      <trkpt lat="45.36753" lon="-1.01596">
        <ele>53.80677</ele>
        <time>2022-12-23T08:52:55.741Z</time>
      </trkpt>
      <trkpt lat="45.36744" lon="-1.01582">
        <ele>53.834018</ele>
        <time>2022-12-23T08:52:58.747Z</time>
      </trkpt>
      <trkpt lat="45.36735" lon="-1.01575">
        <ele>53.855104</ele>
        <time>2022-12-23T08:53:00.752Z</time>
      </trkpt>
      <trkpt lat="45.36726" lon="-1.01561">
        <ele>53.882807</ele>
        <time>2022-12-23T08:53:03.747Z</time>
      </trkpt>
      <trkpt lat="45.36719" lon="-1.01552">
        <ele>53.901838</ele>
        <time>2022-12-23T08:53:05.744Z</time>
      </trkpt>
      <trkpt lat="45.36712" lon="-1.01542">
        <ele>53.921559</ele>
        <time>2022-12-23T08:53:07.745Z</time>
      </trkpt>
      <trkpt lat="45.36706" lon="-1.01533">
        <ele>53.940837</ele>
        <time>2022-12-23T08:53:09.750Z</time>
      </trkpt>
      <trkpt lat="45.36699" lon="-1.01523">
        <ele>53.960262</ele>
        <time>2022-12-23T08:53:11.748Z</time>
      </trkpt>
      <trkpt lat="45.36691" lon="-1.01514">
        <ele>53.972262</ele>
        <time>2022-12-23T08:53:13.730Z</time>
      </trkpt>
      <trkpt lat="45.36684" lon="-1.01504">
        <ele>53.935477</ele>
        <time>2022-12-23T08:53:15.745Z</time>
      </trkpt>
      <trkpt lat="45.36677" lon="-1.01494">
        <ele>53.900092</ele>
        <time>2022-12-23T08:53:17.733Z</time>
      </trkpt>
      <trkpt lat="45.36671" lon="-1.01485">
        <ele>53.866025</ele>
        <time>2022-12-23T08:53:19.735Z</time>
      </trkpt>
      <trkpt lat="45.36664" lon="-1.01476">
        <ele>53.833045</ele>
        <time>2022-12-23T08:53:21.738Z</time>
      </trkpt>
      <trkpt lat="45.36657" lon="-1.01466">
        <ele>53.797842</ele>
        <time>2022-12-23T08:53:23.745Z</time>
      </trkpt>
      <trkpt lat="45.36651" lon="-1.01457">
        <ele>53.764242</ele>
        <time>2022-12-23T08:53:25.749Z</time>
      </trkpt>
      <trkpt lat="45.36644" lon="-1.01447">
        <ele>53.730305</ele>
        <time>2022-12-23T08:53:27.748Z</time>
      </trkpt>
      <trkpt lat="45.36635" lon="-1.01434">
        <ele>53.681683</ele>
        <time>2022-12-23T08:53:30.750Z</time>
      </trkpt>
      <trkpt lat="45.36629" lon="-1.01424">
        <ele>53.647994</ele>
        <time>2022-12-23T08:53:32.746Z</time>
      </trkpt>
      <trkpt lat="45.3662" lon="-1.0141">
        <ele>53.599591</ele>
        <time>2022-12-23T08:53:35.749Z</time>
      </trkpt>
      <trkpt lat="45.36612" lon="-1.01396">
        <ele>53.551766</ele>
        <time>2022-12-23T08:53:38.748Z</time>
      </trkpt>
      <trkpt lat="45.36605" lon="-1.01386">
        <ele>53.517954</ele>
        <time>2022-12-23T08:53:40.753Z</time>
      </trkpt>
      <trkpt lat="45.36599" lon="-1.01376">
        <ele>53.483638</ele>
        <time>2022-12-23T08:53:42.748Z</time>
      </trkpt>
      <trkpt lat="45.3659" lon="-1.01363">
        <ele>53.435513</ele>
        <time>2022-12-23T08:53:45.750Z</time>
      </trkpt>
      <trkpt lat="45.36584" lon="-1.01353">
        <ele>53.401262</ele>
        <time>2022-12-23T08:53:47.747Z</time>
      </trkpt>
      <trkpt lat="45.36577" lon="-1.01344">
        <ele>53.366325</ele>
        <time>2022-12-23T08:53:49.764Z</time>
      </trkpt>
      <trkpt lat="45.3657" lon="-1.01335">
        <ele>53.332004</ele>
        <time>2022-12-23T08:53:51.756Z</time>
      </trkpt>
      <trkpt lat="45.36563" lon="-1.01325">
        <ele>53.339046</ele>
        <time>2022-12-23T08:53:53.750Z</time>
      </trkpt>
      <trkpt lat="45.36555" lon="-1.01315">
        <ele>53.368747</ele>
        <time>2022-12-23T08:53:55.746Z</time>
      </trkpt>
      <trkpt lat="45.36548" lon="-1.01305">
        <ele>53.396742</ele>
        <time>2022-12-23T08:53:57.750Z</time>
      </trkpt>
      <trkpt lat="45.36541" lon="-1.01295">
        <ele>53.425545</ele>
        <time>2022-12-23T08:53:59.746Z</time>
      </trkpt>
      <trkpt lat="45.36534" lon="-1.01285">
        <ele>53.454373</ele>
        <time>2022-12-23T08:54:01.726Z</time>
      </trkpt>
      <trkpt lat="45.36527" lon="-1.01275">
        <ele>53.483388</ele>
        <time>2022-12-23T08:54:03.737Z</time>
      </trkpt>
      <trkpt lat="45.36519" lon="-1.01265">
        <ele>53.511362</ele>
        <time>2022-12-23T08:54:05.748Z</time>
      </trkpt>
      <trkpt lat="45.36513" lon="-1.01255">
        <ele>53.539357</ele>
        <time>2022-12-23T08:54:07.747Z</time>
      </trkpt>
      <trkpt lat="45.36506" lon="-1.01245">
        <ele>53.566337</ele>
        <time>2022-12-23T08:54:09.752Z</time>
      </trkpt>
      <trkpt lat="45.365" lon="-1.01235">
        <ele>53.594871</ele>
        <time>2022-12-23T08:54:11.750Z</time>
      </trkpt>
      <trkpt lat="45.36493" lon="-1.01225">
        <ele>53.622128</ele>
        <time>2022-12-23T08:54:13.746Z</time>
      </trkpt>
      <trkpt lat="45.36487" lon="-1.01215">
        <ele>53.650218</ele>
        <time>2022-12-23T08:54:15.745Z</time>
      </trkpt>
      <trkpt lat="45.36479" lon="-1.01205">
        <ele>53.678539</ele>
        <time>2022-12-23T08:54:17.745Z</time>
      </trkpt>
      <trkpt lat="45.36473" lon="-1.01195">
        <ele>53.705409</ele>
        <time>2022-12-23T08:54:19.756Z</time>
      </trkpt>
      <trkpt lat="45.36466" lon="-1.01186">
        <ele>53.731579</ele>
        <time>2022-12-23T08:54:21.746Z</time>
      </trkpt>
      <trkpt lat="45.36459" lon="-1.01177">
        <ele>53.759206</ele>
        <time>2022-12-23T08:54:23.746Z</time>
      </trkpt>
      <trkpt lat="45.36452" lon="-1.01167">
        <ele>53.787819</ele>
        <time>2022-12-23T08:54:25.750Z</time>
      </trkpt>
      <trkpt lat="45.36445" lon="-1.01157">
        <ele>53.817048</ele>
        <time>2022-12-23T08:54:27.742Z</time>
      </trkpt>
      <trkpt lat="45.36438" lon="-1.01147">
        <ele>53.862931</ele>
        <time>2022-12-23T08:54:29.749Z</time>
      </trkpt>
      <trkpt lat="45.36431" lon="-1.01138">
        <ele>53.93942</ele>
        <time>2022-12-23T08:54:31.745Z</time>
      </trkpt>
      <trkpt lat="45.36424" lon="-1.01128">
        <ele>54.022664</ele>
        <time>2022-12-23T08:54:33.747Z</time>
      </trkpt>
      <trkpt lat="45.36417" lon="-1.01118">
        <ele>54.101177</ele>
        <time>2022-12-23T08:54:35.744Z</time>
      </trkpt>
      <trkpt lat="45.3641" lon="-1.01108">
        <ele>54.185015</ele>
        <time>2022-12-23T08:54:37.746Z</time>
      </trkpt>
      <trkpt lat="45.36403" lon="-1.01098">
        <ele>54.263536</ele>
        <time>2022-12-23T08:54:39.750Z</time>
      </trkpt>
      <trkpt lat="45.36397" lon="-1.01088">
        <ele>54.342885</ele>
        <time>2022-12-23T08:54:41.748Z</time>
      </trkpt>
      <trkpt lat="45.36387" lon="-1.01076">
        <ele>54.449372</ele>
        <time>2022-12-23T08:54:44.748Z</time>
      </trkpt>
      <trkpt lat="45.3638" lon="-1.01066">
        <ele>54.528471</ele>
        <time>2022-12-23T08:54:46.752Z</time>
      </trkpt>
      <trkpt lat="45.36373" lon="-1.01057">
        <ele>54.606364</ele>
        <time>2022-12-23T08:54:48.734Z</time>
      </trkpt>
      <trkpt lat="45.36368" lon="-1.01047">
        <ele>54.683078</ele>
        <time>2022-12-23T08:54:50.748Z</time>
      </trkpt>
      <trkpt lat="45.36361" lon="-1.01037">
        <ele>54.759384</ele>
        <time>2022-12-23T08:54:52.746Z</time>
      </trkpt>
      <trkpt lat="45.36355" lon="-1.01028">
        <ele>54.835638</ele>
        <time>2022-12-23T08:54:54.750Z</time>
      </trkpt>
      <trkpt lat="45.36348" lon="-1.01019">
        <ele>54.910762</ele>
        <time>2022-12-23T08:54:56.746Z</time>
      </trkpt>
      <trkpt lat="45.36341" lon="-1.0101">
        <ele>54.986455</ele>
        <time>2022-12-23T08:54:58.748Z</time>
      </trkpt>
      <trkpt lat="45.36331" lon="-1.00997">
        <ele>55.098704</ele>
        <time>2022-12-23T08:55:01.729Z</time>
      </trkpt>
      <trkpt lat="45.36322" lon="-1.00984">
        <ele>55.202497</ele>
        <time>2022-12-23T08:55:04.753Z</time>
      </trkpt>
      <trkpt lat="45.36314" lon="-1.00971">
        <ele>55.303232</ele>
        <time>2022-12-23T08:55:07.748Z</time>
      </trkpt>
      <trkpt lat="45.36308" lon="-1.00961">
        <ele>55.298115</ele>
        <time>2022-12-23T08:55:09.749Z</time>
      </trkpt>
      <trkpt lat="45.36301" lon="-1.00952">
        <ele>55.281344</ele>
        <time>2022-12-23T08:55:11.729Z</time>
      </trkpt>
      <trkpt lat="45.36292" lon="-1.00939">
        <ele>55.256971</ele>
        <time>2022-12-23T08:55:14.743Z</time>
      </trkpt>
      <trkpt lat="45.36285" lon="-1.0093">
        <ele>55.240151</ele>
        <time>2022-12-23T08:55:16.749Z</time>
      </trkpt>
      <trkpt lat="45.36279" lon="-1.0092">
        <ele>55.223069</ele>
        <time>2022-12-23T08:55:18.750Z</time>
      </trkpt>
      <trkpt lat="45.3627" lon="-1.00907">
        <ele>55.199298</ele>
        <time>2022-12-23T08:55:21.746Z</time>
      </trkpt>
      <trkpt lat="45.36264" lon="-1.00897">
        <ele>55.182201</ele>
        <time>2022-12-23T08:55:23.751Z</time>
      </trkpt>
      <trkpt lat="45.36255" lon="-1.00884">
        <ele>55.158857</ele>
        <time>2022-12-23T08:55:26.749Z</time>
      </trkpt>
      <trkpt lat="45.36247" lon="-1.00871">
        <ele>55.137374</ele>
        <time>2022-12-23T08:55:29.748Z</time>
      </trkpt>
      <trkpt lat="45.36239" lon="-1.00858">
        <ele>55.115313</ele>
        <time>2022-12-23T08:55:32.749Z</time>
      </trkpt>
      <trkpt lat="45.36231" lon="-1.00845">
        <ele>55.09223</ele>
        <time>2022-12-23T08:55:35.749Z</time>
      </trkpt>
      <trkpt lat="45.36221" lon="-1.00833">
        <ele>55.06901</ele>
        <time>2022-12-23T08:55:38.749Z</time>
      </trkpt>
      <trkpt lat="45.36213" lon="-1.0082">
        <ele>55.045865</ele>
        <time>2022-12-23T08:55:41.750Z</time>
      </trkpt>
      <trkpt lat="45.36204" lon="-1.00807">
        <ele>55.022533</ele>
        <time>2022-12-23T08:55:44.748Z</time>
      </trkpt>
      <trkpt lat="45.36196" lon="-1.00795">
        <ele>55.000954</ele>
        <time>2022-12-23T08:55:47.743Z</time>
      </trkpt>
      <trkpt lat="45.36187" lon="-1.00782">
        <ele>54.98914</ele>
        <time>2022-12-23T08:55:50.751Z</time>
      </trkpt>
      <trkpt lat="45.36181" lon="-1.00773">
        <ele>55.011033</ele>
        <time>2022-12-23T08:55:52.737Z</time>
      </trkpt>
      <trkpt lat="45.36175" lon="-1.00763">
        <ele>55.032761</ele>
        <time>2022-12-23T08:55:54.742Z</time>
      </trkpt>
      <trkpt lat="45.36166" lon="-1.00749">
        <ele>55.064858</ele>
        <time>2022-12-23T08:55:57.745Z</time>
      </trkpt>
      <trkpt lat="45.36157" lon="-1.00737">
        <ele>55.095773</ele>
        <time>2022-12-23T08:56:00.749Z</time>
      </trkpt>
      <trkpt lat="45.36148" lon="-1.00724">
        <ele>55.127054</ele>
        <time>2022-12-23T08:56:03.754Z</time>
      </trkpt>
      <trkpt lat="45.36138" lon="-1.00711">
        <ele>55.158845</ele>
        <time>2022-12-23T08:56:06.748Z</time>
      </trkpt>
      <trkpt lat="45.36129" lon="-1.00698">
        <ele>55.190169</ele>
        <time>2022-12-23T08:56:09.749Z</time>
      </trkpt>
      <trkpt lat="45.3612" lon="-1.00685">
        <ele>55.221357</ele>
        <time>2022-12-23T08:56:12.751Z</time>
      </trkpt>
      <trkpt lat="45.36111" lon="-1.00671">
        <ele>55.252489</ele>
        <time>2022-12-23T08:56:15.749Z</time>
      </trkpt>
      <trkpt lat="45.36103" lon="-1.00657">
        <ele>55.283652</ele>
        <time>2022-12-23T08:56:18.751Z</time>
      </trkpt>
      <trkpt lat="45.36094" lon="-1.00643">
        <ele>55.315874</ele>
        <time>2022-12-23T08:56:21.749Z</time>
      </trkpt>
      <trkpt lat="45.36085" lon="-1.00629">
        <ele>55.34758</ele>
        <time>2022-12-23T08:56:24.751Z</time>
      </trkpt>
      <trkpt lat="45.36077" lon="-1.00616">
        <ele>55.378776</ele>
        <time>2022-12-23T08:56:27.750Z</time>
      </trkpt>
      <trkpt lat="45.36068" lon="-1.00603">
        <ele>55.409476</ele>
        <time>2022-12-23T08:56:30.761Z</time>
      </trkpt>
      <trkpt lat="45.36059" lon="-1.0059">
        <ele>55.509141</ele>
        <time>2022-12-23T08:56:33.734Z</time>
      </trkpt>
      <trkpt lat="45.36051" lon="-1.00577">
        <ele>55.639329</ele>
        <time>2022-12-23T08:56:36.744Z</time>
      </trkpt>
      <trkpt lat="45.36043" lon="-1.00563">
        <ele>55.774762</ele>
        <time>2022-12-23T08:56:39.748Z</time>
      </trkpt>
      <trkpt lat="45.36034" lon="-1.0055">
        <ele>55.91339</ele>
        <time>2022-12-23T08:56:42.745Z</time>
      </trkpt>
      <trkpt lat="45.36025" lon="-1.00536">
        <ele>56.049679</ele>
        <time>2022-12-23T08:56:45.751Z</time>
      </trkpt>
      <trkpt lat="45.36016" lon="-1.00522">
        <ele>56.189573</ele>
        <time>2022-12-23T08:56:48.750Z</time>
      </trkpt>
      <trkpt lat="45.36007" lon="-1.00508">
        <ele>56.330434</ele>
        <time>2022-12-23T08:56:51.747Z</time>
      </trkpt>
      <trkpt lat="45.35998" lon="-1.00494">
        <ele>56.468696</ele>
        <time>2022-12-23T08:56:54.749Z</time>
      </trkpt>
      <trkpt lat="45.35989" lon="-1.00481">
        <ele>56.605525</ele>
        <time>2022-12-23T08:56:57.748Z</time>
      </trkpt>
      <trkpt lat="45.35981" lon="-1.00468">
        <ele>56.738453</ele>
        <time>2022-12-23T08:57:00.749Z</time>
      </trkpt>
      <trkpt lat="45.35973" lon="-1.00455">
        <ele>56.866653</ele>
        <time>2022-12-23T08:57:03.749Z</time>
      </trkpt>
      <trkpt lat="45.35965" lon="-1.00442">
        <ele>56.991573</ele>
        <time>2022-12-23T08:57:06.744Z</time>
      </trkpt>
      <trkpt lat="45.35956" lon="-1.00429">
        <ele>57.123944</ele>
        <time>2022-12-23T08:57:09.749Z</time>
      </trkpt>
      <trkpt lat="45.35949" lon="-1.00415">
        <ele>57.254704</ele>
        <time>2022-12-23T08:57:12.737Z</time>
      </trkpt>
      <trkpt lat="45.3594" lon="-1.00402">
        <ele>57.310545</ele>
        <time>2022-12-23T08:57:15.746Z</time>
      </trkpt>
      <trkpt lat="45.35932" lon="-1.00388">
        <ele>57.303336</ele>
        <time>2022-12-23T08:57:18.741Z</time>
      </trkpt>
      <trkpt lat="45.35923" lon="-1.00374">
        <ele>57.295887</ele>
        <time>2022-12-23T08:57:21.725Z</time>
      </trkpt>
      <trkpt lat="45.35914" lon="-1.0036">
        <ele>57.288235</ele>
        <time>2022-12-23T08:57:24.729Z</time>
      </trkpt>
      <trkpt lat="45.35905" lon="-1.00347">
        <ele>57.280856</ele>
        <time>2022-12-23T08:57:27.747Z</time>
      </trkpt>
      <trkpt lat="45.35896" lon="-1.00334">
        <ele>57.273488</ele>
        <time>2022-12-23T08:57:30.747Z</time>
      </trkpt>
      <trkpt lat="45.35888" lon="-1.00323">
        <ele>57.266915</ele>
        <time>2022-12-23T08:57:33.751Z</time>
      </trkpt>
      <trkpt lat="45.3588" lon="-1.0031">
        <ele>57.260323</ele>
        <time>2022-12-23T08:57:36.746Z</time>
      </trkpt>
      <trkpt lat="45.35872" lon="-1.00297">
        <ele>57.253178</ele>
        <time>2022-12-23T08:57:39.740Z</time>
      </trkpt>
      <trkpt lat="45.35863" lon="-1.00284">
        <ele>57.245838</ele>
        <time>2022-12-23T08:57:42.748Z</time>
      </trkpt>
      <trkpt lat="45.35854" lon="-1.00271">
        <ele>57.238426</ele>
        <time>2022-12-23T08:57:45.739Z</time>
      </trkpt>
      <trkpt lat="45.35844" lon="-1.00257">
        <ele>57.230957</ele>
        <time>2022-12-23T08:57:48.736Z</time>
      </trkpt>
      <trkpt lat="45.35836" lon="-1.00244">
        <ele>57.223685</ele>
        <time>2022-12-23T08:57:51.748Z</time>
      </trkpt>
      <trkpt lat="45.35827" lon="-1.00231">
        <ele>57.216316</ele>
        <time>2022-12-23T08:57:54.744Z</time>
      </trkpt>
      <trkpt lat="45.35818" lon="-1.00217">
        <ele>57.198922</ele>
        <time>2022-12-23T08:57:57.747Z</time>
      </trkpt>
      <trkpt lat="45.3581" lon="-1.00204">
        <ele>57.170327</ele>
        <time>2022-12-23T08:58:00.735Z</time>
      </trkpt>
      <trkpt lat="45.35802" lon="-1.00191">
        <ele>57.140591</ele>
        <time>2022-12-23T08:58:03.735Z</time>
      </trkpt>
      <trkpt lat="45.35793" lon="-1.00178">
        <ele>57.10967</ele>
        <time>2022-12-23T08:58:06.745Z</time>
      </trkpt>
      <trkpt lat="45.35787" lon="-1.00168">
        <ele>57.087812</ele>
        <time>2022-12-23T08:58:08.752Z</time>
      </trkpt>
      <trkpt lat="45.35778" lon="-1.00155">
        <ele>57.057092</ele>
        <time>2022-12-23T08:58:11.741Z</time>
      </trkpt>
      <trkpt lat="45.35772" lon="-1.00146">
        <ele>57.03548</ele>
        <time>2022-12-23T08:58:13.747Z</time>
      </trkpt>
      <trkpt lat="45.35762" lon="-1.00132">
        <ele>57.00327</ele>
        <time>2022-12-23T08:58:16.748Z</time>
      </trkpt>
      <trkpt lat="45.35753" lon="-1.00118">
        <ele>56.970654</ele>
        <time>2022-12-23T08:58:19.749Z</time>
      </trkpt>
      <trkpt lat="45.35744" lon="-1.00104">
        <ele>56.937796</ele>
        <time>2022-12-23T08:58:22.746Z</time>
      </trkpt>
      <trkpt lat="45.35735" lon="-1.00089">
        <ele>56.905266</ele>
        <time>2022-12-23T08:58:25.750Z</time>
      </trkpt>
      <trkpt lat="45.35729" lon="-1.0008">
        <ele>56.883366</ele>
        <time>2022-12-23T08:58:27.748Z</time>
      </trkpt>
      <trkpt lat="45.35723" lon="-1.0007">
        <ele>56.861609</ele>
        <time>2022-12-23T08:58:29.751Z</time>
      </trkpt>
      <trkpt lat="45.35716" lon="-1.0006">
        <ele>56.839013</ele>
        <time>2022-12-23T08:58:31.758Z</time>
      </trkpt>
      <trkpt lat="45.3571" lon="-1.0005">
        <ele>56.817099</ele>
        <time>2022-12-23T08:58:33.752Z</time>
      </trkpt>
      <trkpt lat="45.35704" lon="-1.00041">
        <ele>56.795364</ele>
        <time>2022-12-23T08:58:35.735Z</time>
      </trkpt>
      <trkpt lat="45.35698" lon="-1.00032">
        <ele>56.772198</ele>
        <time>2022-12-23T08:58:37.754Z</time>
      </trkpt>
      <trkpt lat="45.35689" lon="-1.00018">
        <ele>56.736126</ele>
        <time>2022-12-23T08:58:40.746Z</time>
      </trkpt>
      <trkpt lat="45.35681" lon="-1.00004">
        <ele>56.700903</ele>
        <time>2022-12-23T08:58:43.735Z</time>
      </trkpt>
      <trkpt lat="45.35672" lon="-0.99991">
        <ele>56.665413</ele>
        <time>2022-12-23T08:58:46.739Z</time>
      </trkpt>
      <trkpt lat="45.35664" lon="-0.99979">
        <ele>56.631006</ele>
        <time>2022-12-23T08:58:49.747Z</time>
      </trkpt>
      <trkpt lat="45.35655" lon="-0.99966">
        <ele>56.596991</ele>
        <time>2022-12-23T08:58:52.746Z</time>
      </trkpt>
      <trkpt lat="45.35647" lon="-0.99954">
        <ele>56.563905</ele>
        <time>2022-12-23T08:58:55.750Z</time>
      </trkpt>
      <trkpt lat="45.3564" lon="-0.99941">
        <ele>56.530818</ele>
        <time>2022-12-23T08:58:58.747Z</time>
      </trkpt>
      <trkpt lat="45.35632" lon="-0.99928">
        <ele>56.497286</ele>
        <time>2022-12-23T08:59:01.750Z</time>
      </trkpt>
      <trkpt lat="45.35623" lon="-0.99915">
        <ele>56.462357</ele>
        <time>2022-12-23T08:59:04.755Z</time>
      </trkpt>
      <trkpt lat="45.35614" lon="-0.99902">
        <ele>56.425906</ele>
        <time>2022-12-23T08:59:07.737Z</time>
      </trkpt>
      <trkpt lat="45.35605" lon="-0.99888">
        <ele>56.388805</ele>
        <time>2022-12-23T08:59:10.746Z</time>
      </trkpt>
      <trkpt lat="45.35596" lon="-0.99875">
        <ele>56.352264</ele>
        <time>2022-12-23T08:59:13.745Z</time>
      </trkpt>
      <trkpt lat="45.35586" lon="-0.99862">
        <ele>56.316035</ele>
        <time>2022-12-23T08:59:16.746Z</time>
      </trkpt>
      <trkpt lat="45.35578" lon="-0.99849">
        <ele>56.280784</ele>
        <time>2022-12-23T08:59:19.744Z</time>
      </trkpt>
      <trkpt lat="45.35569" lon="-0.99836">
        <ele>56.359759</ele>
        <time>2022-12-23T08:59:22.748Z</time>
      </trkpt>
      <trkpt lat="45.3556" lon="-0.99824">
        <ele>56.450501</ele>
        <time>2022-12-23T08:59:25.750Z</time>
      </trkpt>
      <trkpt lat="45.35551" lon="-0.99811">
        <ele>56.542324</ele>
        <time>2022-12-23T08:59:28.748Z</time>
      </trkpt>
      <trkpt lat="45.35543" lon="-0.99797">
        <ele>56.63585</ele>
        <time>2022-12-23T08:59:31.757Z</time>
      </trkpt>
      <trkpt lat="45.35534" lon="-0.99784">
        <ele>56.727394</ele>
        <time>2022-12-23T08:59:34.726Z</time>
      </trkpt>
      <trkpt lat="45.35526" lon="-0.99771">
        <ele>56.819249</ele>
        <time>2022-12-23T08:59:37.746Z</time>
      </trkpt>
      <trkpt lat="45.35516" lon="-0.99758">
        <ele>56.91314</ele>
        <time>2022-12-23T08:59:40.751Z</time>
      </trkpt>
      <trkpt lat="45.35507" lon="-0.99745">
        <ele>57.0078</ele>
        <time>2022-12-23T08:59:43.740Z</time>
      </trkpt>
      <trkpt lat="45.35499" lon="-0.99731">
        <ele>57.101986</ele>
        <time>2022-12-23T08:59:46.745Z</time>
      </trkpt>
      <trkpt lat="45.3549" lon="-0.99718">
        <ele>57.192937</ele>
        <time>2022-12-23T08:59:49.754Z</time>
      </trkpt>
      <trkpt lat="45.35482" lon="-0.99706">
        <ele>57.276788</ele>
        <time>2022-12-23T08:59:52.750Z</time>
      </trkpt>
      <trkpt lat="45.35474" lon="-0.99693">
        <ele>57.368357</ele>
        <time>2022-12-23T08:59:55.739Z</time>
      </trkpt>
      <trkpt lat="45.35464" lon="-0.9968">
        <ele>57.463675</ele>
        <time>2022-12-23T08:59:58.747Z</time>
      </trkpt>
      <trkpt lat="45.35455" lon="-0.99666">
        <ele>57.560227</ele>
        <time>2022-12-23T09:00:01.749Z</time>
      </trkpt>
      <trkpt lat="45.35446" lon="-0.99653">
        <ele>57.651554</ele>
        <time>2022-12-23T09:00:04.749Z</time>
      </trkpt>
      <trkpt lat="45.35436" lon="-0.99639">
        <ele>57.742155</ele>
        <time>2022-12-23T09:00:07.733Z</time>
      </trkpt>
      <trkpt lat="45.3543" lon="-0.99629">
        <ele>57.805563</ele>
        <time>2022-12-23T09:00:09.744Z</time>
      </trkpt>
      <trkpt lat="45.35423" lon="-0.99619">
        <ele>57.871512</ele>
        <time>2022-12-23T09:00:11.744Z</time>
      </trkpt>
      <trkpt lat="45.35417" lon="-0.99609">
        <ele>57.934496</ele>
        <time>2022-12-23T09:00:13.753Z</time>
      </trkpt>
      <trkpt lat="45.35409" lon="-0.99594">
        <ele>58.026846</ele>
        <time>2022-12-23T09:00:16.740Z</time>
      </trkpt>
      <trkpt lat="45.35402" lon="-0.99583">
        <ele>58.094414</ele>
        <time>2022-12-23T09:00:18.730Z</time>
      </trkpt>
      <trkpt lat="45.35395" lon="-0.99574">
        <ele>58.158587</ele>
        <time>2022-12-23T09:00:20.743Z</time>
      </trkpt>
      <trkpt lat="45.35388" lon="-0.99564">
        <ele>58.225462</ele>
        <time>2022-12-23T09:00:22.749Z</time>
      </trkpt>
      <trkpt lat="45.35382" lon="-0.99554">
        <ele>58.290502</ele>
        <time>2022-12-23T09:00:24.752Z</time>
      </trkpt>
      <trkpt lat="45.35376" lon="-0.99544">
        <ele>58.355094</ele>
        <time>2022-12-23T09:00:26.749Z</time>
      </trkpt>
      <trkpt lat="45.35369" lon="-0.99534">
        <ele>58.418777</ele>
        <time>2022-12-23T09:00:28.747Z</time>
      </trkpt>
      <trkpt lat="45.35362" lon="-0.99523">
        <ele>58.486338</ele>
        <time>2022-12-23T09:00:30.749Z</time>
      </trkpt>
      <trkpt lat="45.35356" lon="-0.99513">
        <ele>58.550845</ele>
        <time>2022-12-23T09:00:32.744Z</time>
      </trkpt>
      <trkpt lat="45.3535" lon="-0.99503">
        <ele>58.612951</ele>
        <time>2022-12-23T09:00:34.744Z</time>
      </trkpt>
      <trkpt lat="45.35345" lon="-0.99493">
        <ele>58.675649</ele>
        <time>2022-12-23T09:00:36.745Z</time>
      </trkpt>
      <trkpt lat="45.35339" lon="-0.99482">
        <ele>58.738918</ele>
        <time>2022-12-23T09:00:38.741Z</time>
      </trkpt>
      <trkpt lat="45.35331" lon="-0.99468">
        <ele>58.75273</ele>
        <time>2022-12-23T09:00:41.745Z</time>
      </trkpt>
      <trkpt lat="45.35323" lon="-0.99455">
        <ele>58.59427</ele>
        <time>2022-12-23T09:00:44.744Z</time>
      </trkpt>
      <trkpt lat="45.35314" lon="-0.99441">
        <ele>58.422765</ele>
        <time>2022-12-23T09:00:47.728Z</time>
      </trkpt>
      <trkpt lat="45.35308" lon="-0.99431">
        <ele>58.302794</ele>
        <time>2022-12-23T09:00:49.740Z</time>
      </trkpt>
      <trkpt lat="45.353" lon="-0.99417">
        <ele>58.126506</ele>
        <time>2022-12-23T09:00:52.747Z</time>
      </trkpt>
      <trkpt lat="45.35294" lon="-0.99406">
        <ele>58.004033</ele>
        <time>2022-12-23T09:00:54.740Z</time>
      </trkpt>
      <trkpt lat="45.35288" lon="-0.99396">
        <ele>57.885595</ele>
        <time>2022-12-23T09:00:56.753Z</time>
      </trkpt>
      <trkpt lat="45.35282" lon="-0.99385">
        <ele>57.753683</ele>
        <time>2022-12-23T09:00:58.755Z</time>
      </trkpt>
      <trkpt lat="45.35275" lon="-0.99375">
        <ele>57.628136</ele>
        <time>2022-12-23T09:01:00.760Z</time>
      </trkpt>
      <trkpt lat="45.35269" lon="-0.99366">
        <ele>57.505382</ele>
        <time>2022-12-23T09:01:02.800Z</time>
      </trkpt>
      <trkpt lat="45.35262" lon="-0.99357">
        <ele>57.382628</ele>
        <time>2022-12-23T09:01:04.752Z</time>
      </trkpt>
      <trkpt lat="45.35254" lon="-0.99347">
        <ele>57.253144</ele>
        <time>2022-12-23T09:01:06.747Z</time>
      </trkpt>
      <trkpt lat="45.35247" lon="-0.99338">
        <ele>57.126912</ele>
        <time>2022-12-23T09:01:08.800Z</time>
      </trkpt>
      <trkpt lat="45.3524" lon="-0.99329">
        <ele>56.99545</ele>
        <time>2022-12-23T09:01:10.748Z</time>
      </trkpt>
      <trkpt lat="45.35233" lon="-0.9932">
        <ele>56.8711</ele>
        <time>2022-12-23T09:01:12.753Z</time>
      </trkpt>
      <trkpt lat="45.35223" lon="-0.99308">
        <ele>56.703916</ele>
        <time>2022-12-23T09:01:15.751Z</time>
      </trkpt>
      <trkpt lat="45.35216" lon="-0.993">
        <ele>56.58354</ele>
        <time>2022-12-23T09:01:17.752Z</time>
      </trkpt>
      <trkpt lat="45.35209" lon="-0.99291">
        <ele>56.457939</ele>
        <time>2022-12-23T09:01:19.752Z</time>
      </trkpt>
      <trkpt lat="45.35201" lon="-0.99282">
        <ele>56.454611</ele>
        <time>2022-12-23T09:01:21.749Z</time>
      </trkpt>
      <trkpt lat="45.35194" lon="-0.99272">
        <ele>56.469722</ele>
        <time>2022-12-23T09:01:23.752Z</time>
      </trkpt>
      <trkpt lat="45.35187" lon="-0.99262">
        <ele>56.484868</ele>
        <time>2022-12-23T09:01:25.750Z</time>
      </trkpt>
      <trkpt lat="45.35179" lon="-0.99253">
        <ele>56.499851</ele>
        <time>2022-12-23T09:01:27.750Z</time>
      </trkpt>
      <trkpt lat="45.35172" lon="-0.99244">
        <ele>56.515258</ele>
        <time>2022-12-23T09:01:29.754Z</time>
      </trkpt>
      <trkpt lat="45.35165" lon="-0.99234">
        <ele>56.529856</ele>
        <time>2022-12-23T09:01:31.752Z</time>
      </trkpt>
      <trkpt lat="45.35158" lon="-0.99226">
        <ele>56.543824</ele>
        <time>2022-12-23T09:01:33.751Z</time>
      </trkpt>
      <trkpt lat="45.35151" lon="-0.99217">
        <ele>56.558024</ele>
        <time>2022-12-23T09:01:35.749Z</time>
      </trkpt>
      <trkpt lat="45.35141" lon="-0.99206">
        <ele>56.576946</ele>
        <time>2022-12-23T09:01:38.733Z</time>
      </trkpt>
      <trkpt lat="45.35132" lon="-0.99195">
        <ele>56.594959</ele>
        <time>2022-12-23T09:01:41.750Z</time>
      </trkpt>
      <trkpt lat="45.35122" lon="-0.99182">
        <ele>56.615151</ele>
        <time>2022-12-23T09:01:44.752Z</time>
      </trkpt>
      <trkpt lat="45.35112" lon="-0.9917">
        <ele>56.635475</ele>
        <time>2022-12-23T09:01:47.752Z</time>
      </trkpt>
      <trkpt lat="45.35105" lon="-0.99161">
        <ele>56.649614</ele>
        <time>2022-12-23T09:01:49.756Z</time>
      </trkpt>
      <trkpt lat="45.35097" lon="-0.99154">
        <ele>56.664363</ele>
        <time>2022-12-23T09:01:51.755Z</time>
      </trkpt>
      <trkpt lat="45.35089" lon="-0.99147">
        <ele>56.678552</ele>
        <time>2022-12-23T09:01:53.752Z</time>
      </trkpt>
      <trkpt lat="45.3508" lon="-0.99141">
        <ele>56.693208</ele>
        <time>2022-12-23T09:01:55.738Z</time>
      </trkpt>
      <trkpt lat="45.35072" lon="-0.99135">
        <ele>56.706955</ele>
        <time>2022-12-23T09:01:57.749Z</time>
      </trkpt>
      <trkpt lat="45.35064" lon="-0.99128">
        <ele>56.674741</ele>
        <time>2022-12-23T09:01:59.753Z</time>
      </trkpt>
      <trkpt lat="45.35056" lon="-0.9912">
        <ele>56.58143</ele>
        <time>2022-12-23T09:02:01.764Z</time>
      </trkpt>
      <trkpt lat="45.35049" lon="-0.99111">
        <ele>56.488536</ele>
        <time>2022-12-23T09:02:03.749Z</time>
      </trkpt>
      <trkpt lat="45.35042" lon="-0.99101">
        <ele>56.399102</ele>
        <time>2022-12-23T09:02:05.751Z</time>
      </trkpt>
      <trkpt lat="45.35036" lon="-0.99085">
        <ele>56.271956</ele>
        <time>2022-12-23T09:02:08.753Z</time>
      </trkpt>
      <trkpt lat="45.35031" lon="-0.9907">
        <ele>56.156071</ele>
        <time>2022-12-23T09:02:11.801Z</time>
      </trkpt>
      <trkpt lat="45.35027" lon="-0.99054">
        <ele>56.047004</ele>
        <time>2022-12-23T09:02:14.751Z</time>
      </trkpt>
      <trkpt lat="45.35022" lon="-0.99039">
        <ele>55.932961</ele>
        <time>2022-12-23T09:02:17.819Z</time>
      </trkpt>
      <trkpt lat="45.35013" lon="-0.99024">
        <ele>55.803328</ele>
        <time>2022-12-23T09:02:20.750Z</time>
      </trkpt>
      <trkpt lat="45.35006" lon="-0.99015">
        <ele>55.711924</ele>
        <time>2022-12-23T09:02:22.759Z</time>
      </trkpt>
      <trkpt lat="45.34999" lon="-0.99007">
        <ele>55.625152</ele>
        <time>2022-12-23T09:02:24.749Z</time>
      </trkpt>
      <trkpt lat="45.34992" lon="-0.98998">
        <ele>55.53678</ele>
        <time>2022-12-23T09:02:26.726Z</time>
      </trkpt>
      <trkpt lat="45.34985" lon="-0.9899">
        <ele>55.443719</ele>
        <time>2022-12-23T09:02:28.748Z</time>
      </trkpt>
      <trkpt lat="45.34978" lon="-0.98981">
        <ele>55.355055</ele>
        <time>2022-12-23T09:02:30.751Z</time>
      </trkpt>
      <trkpt lat="45.34971" lon="-0.98972">
        <ele>55.263155</ele>
        <time>2022-12-23T09:02:32.749Z</time>
      </trkpt>
      <trkpt lat="45.34964" lon="-0.98962">
        <ele>55.166122</ele>
        <time>2022-12-23T09:02:34.725Z</time>
      </trkpt>
      <trkpt lat="45.34957" lon="-0.98951">
        <ele>55.071412</ele>
        <time>2022-12-23T09:02:36.765Z</time>
      </trkpt>
      <trkpt lat="45.34951" lon="-0.98942">
        <ele>54.985332</ele>
        <time>2022-12-23T09:02:38.753Z</time>
      </trkpt>
      <trkpt lat="45.34944" lon="-0.98927">
        <ele>54.829897</ele>
        <time>2022-12-23T09:02:41.766Z</time>
      </trkpt>
      <trkpt lat="45.34936" lon="-0.98912">
        <ele>54.66804</ele>
        <time>2022-12-23T09:02:44.752Z</time>
      </trkpt>
      <trkpt lat="45.34928" lon="-0.98896">
        <ele>54.50626</ele>
        <time>2022-12-23T09:02:47.802Z</time>
      </trkpt>
      <trkpt lat="45.34921" lon="-0.98881">
        <ele>54.345185</ele>
        <time>2022-12-23T09:02:50.752Z</time>
      </trkpt>
      <trkpt lat="45.34914" lon="-0.98865">
        <ele>54.18322</ele>
        <time>2022-12-23T09:02:53.809Z</time>
      </trkpt>
      <trkpt lat="45.34907" lon="-0.98849">
        <ele>54.02233</ele>
        <time>2022-12-23T09:02:56.754Z</time>
      </trkpt>
      <trkpt lat="45.349" lon="-0.98833">
        <ele>53.868755</ele>
        <time>2022-12-23T09:02:59.818Z</time>
      </trkpt>
      <trkpt lat="45.34895" lon="-0.98823">
        <ele>53.757388</ele>
        <time>2022-12-23T09:03:01.730Z</time>
      </trkpt>
      <trkpt lat="45.3489" lon="-0.98812">
        <ele>53.643816</ele>
        <time>2022-12-23T09:03:03.750Z</time>
      </trkpt>
      <trkpt lat="45.34881" lon="-0.98796">
        <ele>53.475454</ele>
        <time>2022-12-23T09:03:06.730Z</time>
      </trkpt>
      <trkpt lat="45.34875" lon="-0.98786">
        <ele>53.355043</ele>
        <time>2022-12-23T09:03:08.748Z</time>
      </trkpt>
      <trkpt lat="45.34868" lon="-0.98774">
        <ele>53.22862</ele>
        <time>2022-12-23T09:03:10.731Z</time>
      </trkpt>
      <trkpt lat="45.34862" lon="-0.98763">
        <ele>53.110111</ele>
        <time>2022-12-23T09:03:12.752Z</time>
      </trkpt>
      <trkpt lat="45.34855" lon="-0.98752">
        <ele>52.984072</ele>
        <time>2022-12-23T09:03:14.749Z</time>
      </trkpt>
      <trkpt lat="45.34848" lon="-0.98742">
        <ele>52.856201</ele>
        <time>2022-12-23T09:03:16.830Z</time>
      </trkpt>
      <trkpt lat="45.34841" lon="-0.9873">
        <ele>52.774581</ele>
        <time>2022-12-23T09:03:18.751Z</time>
      </trkpt>
      <trkpt lat="45.34833" lon="-0.9872">
        <ele>52.736625</ele>
        <time>2022-12-23T09:03:20.739Z</time>
      </trkpt>
      <trkpt lat="45.34827" lon="-0.98709">
        <ele>52.699527</ele>
        <time>2022-12-23T09:03:22.797Z</time>
      </trkpt>
      <trkpt lat="45.34819" lon="-0.98699">
        <ele>52.663714</ele>
        <time>2022-12-23T09:03:24.748Z</time>
      </trkpt>
      <trkpt lat="45.34812" lon="-0.9869">
        <ele>52.629989</ele>
        <time>2022-12-23T09:03:26.750Z</time>
      </trkpt>
      <trkpt lat="45.34803" lon="-0.98677">
        <ele>52.584447</ele>
        <time>2022-12-23T09:03:29.752Z</time>
      </trkpt>
      <trkpt lat="45.34796" lon="-0.98669">
        <ele>52.551566</ele>
        <time>2022-12-23T09:03:31.741Z</time>
      </trkpt>
      <trkpt lat="45.3479" lon="-0.98659">
        <ele>52.519496</ele>
        <time>2022-12-23T09:03:33.754Z</time>
      </trkpt>
      <trkpt lat="45.34784" lon="-0.98649">
        <ele>52.485963</ele>
        <time>2022-12-23T09:03:35.761Z</time>
      </trkpt>
      <trkpt lat="45.34776" lon="-0.9864">
        <ele>52.45075</ele>
        <time>2022-12-23T09:03:37.752Z</time>
      </trkpt>
      <trkpt lat="45.34766" lon="-0.98627">
        <ele>52.402008</ele>
        <time>2022-12-23T09:03:40.803Z</time>
      </trkpt>
      <trkpt lat="45.34759" lon="-0.98617">
        <ele>52.366555</ele>
        <time>2022-12-23T09:03:42.737Z</time>
      </trkpt>
      <trkpt lat="45.34752" lon="-0.98608">
        <ele>52.333172</ele>
        <time>2022-12-23T09:03:44.752Z</time>
      </trkpt>
      <trkpt lat="45.34744" lon="-0.98595">
        <ele>52.289702</ele>
        <time>2022-12-23T09:03:47.761Z</time>
      </trkpt>
      <trkpt lat="45.34735" lon="-0.98583">
        <ele>52.24554</ele>
        <time>2022-12-23T09:03:50.753Z</time>
      </trkpt>
      <trkpt lat="45.34725" lon="-0.98571">
        <ele>52.199033</ele>
        <time>2022-12-23T09:03:53.753Z</time>
      </trkpt>
      <trkpt lat="45.34715" lon="-0.98558">
        <ele>52.158555</ele>
        <time>2022-12-23T09:03:56.753Z</time>
      </trkpt>
      <trkpt lat="45.34705" lon="-0.98545">
        <ele>52.319334</ele>
        <time>2022-12-23T09:03:59.749Z</time>
      </trkpt>
      <trkpt lat="45.34698" lon="-0.98536">
        <ele>52.433899</ele>
        <time>2022-12-23T09:04:01.753Z</time>
      </trkpt>
      <trkpt lat="45.3469" lon="-0.98526">
        <ele>52.55186</ele>
        <time>2022-12-23T09:04:03.750Z</time>
      </trkpt>
      <trkpt lat="45.34683" lon="-0.98517">
        <ele>52.665556</ele>
        <time>2022-12-23T09:04:05.747Z</time>
      </trkpt>
      <trkpt lat="45.34674" lon="-0.98504">
        <ele>52.820855</ele>
        <time>2022-12-23T09:04:08.752Z</time>
      </trkpt>
      <trkpt lat="45.34665" lon="-0.98494">
        <ele>52.95745</ele>
        <time>2022-12-23T09:04:11.749Z</time>
      </trkpt>
      <trkpt lat="45.34656" lon="-0.98483">
        <ele>53.090832</ele>
        <time>2022-12-23T09:04:14.752Z</time>
      </trkpt>
      <trkpt lat="45.34647" lon="-0.98472">
        <ele>53.233129</ele>
        <time>2022-12-23T09:04:17.754Z</time>
      </trkpt>
      <trkpt lat="45.34638" lon="-0.9846">
        <ele>53.378644</ele>
        <time>2022-12-23T09:04:20.755Z</time>
      </trkpt>
      <trkpt lat="45.34631" lon="-0.98452">
        <ele>53.48638</ele>
        <time>2022-12-23T09:04:22.805Z</time>
      </trkpt>
      <trkpt lat="45.3462" lon="-0.9844">
        <ele>53.641258</ele>
        <time>2022-12-23T09:04:25.751Z</time>
      </trkpt>
      <trkpt lat="45.34612" lon="-0.98433">
        <ele>53.757993</ele>
        <time>2022-12-23T09:04:27.755Z</time>
      </trkpt>
      <trkpt lat="45.34605" lon="-0.98425">
        <ele>53.866024</ele>
        <time>2022-12-23T09:04:29.750Z</time>
      </trkpt>
      <trkpt lat="45.34597" lon="-0.98418">
        <ele>53.976425</ele>
        <time>2022-12-23T09:04:31.753Z</time>
      </trkpt>
      <trkpt lat="45.34589" lon="-0.9841">
        <ele>54.093614</ele>
        <time>2022-12-23T09:04:33.757Z</time>
      </trkpt>
      <trkpt lat="45.34581" lon="-0.98402">
        <ele>54.203062</ele>
        <time>2022-12-23T09:04:35.752Z</time>
      </trkpt>
      <trkpt lat="45.34573" lon="-0.98395">
        <ele>54.276973</ele>
        <time>2022-12-23T09:04:37.751Z</time>
      </trkpt>
      <trkpt lat="45.34562" lon="-0.98385">
        <ele>54.296403</ele>
        <time>2022-12-23T09:04:40.806Z</time>
      </trkpt>
      <trkpt lat="45.3455" lon="-0.98377">
        <ele>54.315081</ele>
        <time>2022-12-23T09:04:43.749Z</time>
      </trkpt>
      <trkpt lat="45.34539" lon="-0.98368">
        <ele>54.332808</ele>
        <time>2022-12-23T09:04:46.803Z</time>
      </trkpt>
      <trkpt lat="45.3453" lon="-0.98361">
        <ele>54.347827</ele>
        <time>2022-12-23T09:04:49.755Z</time>
      </trkpt>
      <trkpt lat="45.34521" lon="-0.98354">
        <ele>54.362597</ele>
        <time>2022-12-23T09:04:52.801Z</time>
      </trkpt>
      <trkpt lat="45.34512" lon="-0.98345">
        <ele>54.378907</ele>
        <time>2022-12-23T09:04:55.748Z</time>
      </trkpt>
      <trkpt lat="45.34502" lon="-0.98337">
        <ele>54.394926</ele>
        <time>2022-12-23T09:04:58.798Z</time>
      </trkpt>
      <trkpt lat="45.34492" lon="-0.98331">
        <ele>54.410428</ele>
        <time>2022-12-23T09:05:01.753Z</time>
      </trkpt>
      <trkpt lat="45.34482" lon="-0.98323">
        <ele>54.42695</ele>
        <time>2022-12-23T09:05:04.736Z</time>
      </trkpt>
      <trkpt lat="45.34471" lon="-0.98315">
        <ele>54.444329</ele>
        <time>2022-12-23T09:05:07.754Z</time>
      </trkpt>
      <trkpt lat="45.34461" lon="-0.98307">
        <ele>54.460836</ele>
        <time>2022-12-23T09:05:10.737Z</time>
      </trkpt>
      <trkpt lat="45.34452" lon="-0.983">
        <ele>54.476438</ele>
        <time>2022-12-23T09:05:13.750Z</time>
      </trkpt>
      <trkpt lat="45.34442" lon="-0.98293">
        <ele>54.491733</ele>
        <time>2022-12-23T09:05:16.755Z</time>
      </trkpt>
      <trkpt lat="45.34433" lon="-0.98285">
        <ele>54.507353</ele>
        <time>2022-12-23T09:05:19.755Z</time>
      </trkpt>
      <trkpt lat="45.34423" lon="-0.98277">
        <ele>54.523698</ele>
        <time>2022-12-23T09:05:22.760Z</time>
      </trkpt>
      <trkpt lat="45.34413" lon="-0.98269">
        <ele>54.574512</ele>
        <time>2022-12-23T09:05:25.751Z</time>
      </trkpt>
      <trkpt lat="45.34403" lon="-0.98262">
        <ele>54.649087</ele>
        <time>2022-12-23T09:05:28.737Z</time>
      </trkpt>
      <trkpt lat="45.34393" lon="-0.98253">
        <ele>54.719911</ele>
        <time>2022-12-23T09:05:31.756Z</time>
      </trkpt>
      <trkpt lat="45.34383" lon="-0.98245">
        <ele>54.794994</ele>
        <time>2022-12-23T09:05:34.752Z</time>
      </trkpt>
      <trkpt lat="45.34373" lon="-0.98238">
        <ele>54.868059</ele>
        <time>2022-12-23T09:05:37.762Z</time>
      </trkpt>
      <trkpt lat="45.34363" lon="-0.98231">
        <ele>54.943569</ele>
        <time>2022-12-23T09:05:40.756Z</time>
      </trkpt>
      <trkpt lat="45.34353" lon="-0.98223">
        <ele>55.019301</ele>
        <time>2022-12-23T09:05:43.734Z</time>
      </trkpt>
      <trkpt lat="45.34342" lon="-0.98215">
        <ele>55.096449</ele>
        <time>2022-12-23T09:05:46.751Z</time>
      </trkpt>
      <trkpt lat="45.34332" lon="-0.98207">
        <ele>55.17131</ele>
        <time>2022-12-23T09:05:49.751Z</time>
      </trkpt>
      <trkpt lat="45.34322" lon="-0.98199">
        <ele>55.249671</ele>
        <time>2022-12-23T09:05:52.747Z</time>
      </trkpt>
      <trkpt lat="45.34311" lon="-0.9819">
        <ele>55.327629</ele>
        <time>2022-12-23T09:05:55.752Z</time>
      </trkpt>
      <trkpt lat="45.34301" lon="-0.98181">
        <ele>55.404514</ele>
        <time>2022-12-23T09:05:58.752Z</time>
      </trkpt>
      <trkpt lat="45.34292" lon="-0.98174">
        <ele>55.475425</ele>
        <time>2022-12-23T09:06:01.748Z</time>
      </trkpt>
      <trkpt lat="45.34282" lon="-0.98166">
        <ele>55.546106</ele>
        <time>2022-12-23T09:06:04.747Z</time>
      </trkpt>
      <trkpt lat="45.34273" lon="-0.98158">
        <ele>55.618278</ele>
        <time>2022-12-23T09:06:07.756Z</time>
      </trkpt>
      <trkpt lat="45.34263" lon="-0.98149">
        <ele>55.694265</ele>
        <time>2022-12-23T09:06:10.812Z</time>
      </trkpt>
      <trkpt lat="45.34252" lon="-0.98141">
        <ele>55.756762</ele>
        <time>2022-12-23T09:06:13.754Z</time>
      </trkpt>
      <trkpt lat="45.34242" lon="-0.98132">
        <ele>55.821085</ele>
        <time>2022-12-23T09:06:16.814Z</time>
      </trkpt>
      <trkpt lat="45.3423" lon="-0.98123">
        <ele>55.887564</ele>
        <time>2022-12-23T09:06:19.765Z</time>
      </trkpt>
      <trkpt lat="45.34219" lon="-0.98113">
        <ele>55.95508</ele>
        <time>2022-12-23T09:06:22.798Z</time>
      </trkpt>
      <trkpt lat="45.34208" lon="-0.98104">
        <ele>56.023718</ele>
        <time>2022-12-23T09:06:25.754Z</time>
      </trkpt>
      <trkpt lat="45.342" lon="-0.98097">
        <ele>56.070702</ele>
        <time>2022-12-23T09:06:27.754Z</time>
      </trkpt>
      <trkpt lat="45.34192" lon="-0.98091">
        <ele>56.117421</ele>
        <time>2022-12-23T09:06:29.758Z</time>
      </trkpt>
      <trkpt lat="45.3418" lon="-0.98081">
        <ele>56.187493</ele>
        <time>2022-12-23T09:06:32.731Z</time>
      </trkpt>
      <trkpt lat="45.34169" lon="-0.98071">
        <ele>56.257151</ele>
        <time>2022-12-23T09:06:35.751Z</time>
      </trkpt>
      <trkpt lat="45.34161" lon="-0.98065">
        <ele>56.304871</ele>
        <time>2022-12-23T09:06:37.751Z</time>
      </trkpt>
      <trkpt lat="45.34153" lon="-0.98058">
        <ele>56.353852</ele>
        <time>2022-12-23T09:06:39.749Z</time>
      </trkpt>
      <trkpt lat="45.34145" lon="-0.9805">
        <ele>56.402937</ele>
        <time>2022-12-23T09:06:41.762Z</time>
      </trkpt>
      <trkpt lat="45.34137" lon="-0.98044">
        <ele>56.450134</ele>
        <time>2022-12-23T09:06:43.759Z</time>
      </trkpt>
      <trkpt lat="45.34129" lon="-0.98038">
        <ele>56.497671</ele>
        <time>2022-12-23T09:06:45.756Z</time>
      </trkpt>
      <trkpt lat="45.34121" lon="-0.98032">
        <ele>56.54441</ele>
        <time>2022-12-23T09:06:47.739Z</time>
      </trkpt>
      <trkpt lat="45.34109" lon="-0.98024">
        <ele>56.61057</ele>
        <time>2022-12-23T09:06:50.753Z</time>
      </trkpt>
      <trkpt lat="45.34097" lon="-0.98015">
        <ele>56.55644</ele>
        <time>2022-12-23T09:06:53.750Z</time>
      </trkpt>
      <trkpt lat="45.34085" lon="-0.98006">
        <ele>56.460406</ele>
        <time>2022-12-23T09:06:56.753Z</time>
      </trkpt>
      <trkpt lat="45.34074" lon="-0.97998">
        <ele>56.363965</ele>
        <time>2022-12-23T09:06:59.754Z</time>
      </trkpt>
      <trkpt lat="45.34065" lon="-0.97992">
        <ele>56.297524</ele>
        <time>2022-12-23T09:07:01.746Z</time>
      </trkpt>
      <trkpt lat="45.34053" lon="-0.97984">
        <ele>56.201576</ele>
        <time>2022-12-23T09:07:04.798Z</time>
      </trkpt>
      <trkpt lat="45.34041" lon="-0.97977">
        <ele>56.10713</ele>
        <time>2022-12-23T09:07:07.734Z</time>
      </trkpt>
      <trkpt lat="45.34033" lon="-0.97971">
        <ele>56.041113</ele>
        <time>2022-12-23T09:07:09.750Z</time>
      </trkpt>
      <trkpt lat="45.34022" lon="-0.97964">
        <ele>55.95105</ele>
        <time>2022-12-23T09:07:12.749Z</time>
      </trkpt>
      <trkpt lat="45.34011" lon="-0.97957">
        <ele>55.861257</ele>
        <time>2022-12-23T09:07:15.753Z</time>
      </trkpt>
      <trkpt lat="45.33999" lon="-0.9795">
        <ele>55.77041</ele>
        <time>2022-12-23T09:07:18.753Z</time>
      </trkpt>
      <trkpt lat="45.33987" lon="-0.97944">
        <ele>55.67845</ele>
        <time>2022-12-23T09:07:21.731Z</time>
      </trkpt>
      <trkpt lat="45.33975" lon="-0.97938">
        <ele>55.58835</ele>
        <time>2022-12-23T09:07:24.733Z</time>
      </trkpt>
      <trkpt lat="45.33964" lon="-0.97931">
        <ele>55.49923</ele>
        <time>2022-12-23T09:07:27.735Z</time>
      </trkpt>
      <trkpt lat="45.33953" lon="-0.97925">
        <ele>55.409726</ele>
        <time>2022-12-23T09:07:30.750Z</time>
      </trkpt>
      <trkpt lat="45.3394" lon="-0.97919">
        <ele>55.315461</ele>
        <time>2022-12-23T09:07:33.749Z</time>
      </trkpt>
      <trkpt lat="45.33928" lon="-0.97913">
        <ele>55.22877</ele>
        <time>2022-12-23T09:07:36.759Z</time>
      </trkpt>
      <trkpt lat="45.33916" lon="-0.97906">
        <ele>55.145036</ele>
        <time>2022-12-23T09:07:39.749Z</time>
      </trkpt>
      <trkpt lat="45.33905" lon="-0.979">
        <ele>55.064674</ele>
        <time>2022-12-23T09:07:42.733Z</time>
      </trkpt>
      <trkpt lat="45.33894" lon="-0.97893">
        <ele>54.985464</ele>
        <time>2022-12-23T09:07:45.748Z</time>
      </trkpt>
      <trkpt lat="45.33883" lon="-0.97885">
        <ele>54.905463</ele>
        <time>2022-12-23T09:07:48.752Z</time>
      </trkpt>
      <trkpt lat="45.33872" lon="-0.97876">
        <ele>54.822856</ele>
        <time>2022-12-23T09:07:51.748Z</time>
      </trkpt>
      <trkpt lat="45.33861" lon="-0.97867">
        <ele>54.739273</ele>
        <time>2022-12-23T09:07:54.746Z</time>
      </trkpt>
      <trkpt lat="45.33851" lon="-0.97857">
        <ele>54.654383</ele>
        <time>2022-12-23T09:07:57.741Z</time>
      </trkpt>
      <trkpt lat="45.33841" lon="-0.97847">
        <ele>54.575698</ele>
        <time>2022-12-23T09:08:00.747Z</time>
      </trkpt>
      <trkpt lat="45.33831" lon="-0.97839">
        <ele>54.499988</ele>
        <time>2022-12-23T09:08:03.747Z</time>
      </trkpt>
      <trkpt lat="45.33821" lon="-0.97829">
        <ele>54.421632</ele>
        <time>2022-12-23T09:08:06.753Z</time>
      </trkpt>
      <trkpt lat="45.33811" lon="-0.9782">
        <ele>54.341027</ele>
        <time>2022-12-23T09:08:09.748Z</time>
      </trkpt>
      <trkpt lat="45.33801" lon="-0.9781">
        <ele>54.259615</ele>
        <time>2022-12-23T09:08:12.748Z</time>
      </trkpt>
      <trkpt lat="45.3379" lon="-0.97802">
        <ele>54.180468</ele>
        <time>2022-12-23T09:08:15.751Z</time>
      </trkpt>
      <trkpt lat="45.3378" lon="-0.97792">
        <ele>54.136666</ele>
        <time>2022-12-23T09:08:18.751Z</time>
      </trkpt>
      <trkpt lat="45.33769" lon="-0.97783">
        <ele>54.140223</ele>
        <time>2022-12-23T09:08:21.763Z</time>
      </trkpt>
      <trkpt lat="45.33758" lon="-0.97774">
        <ele>54.144164</ele>
        <time>2022-12-23T09:08:24.751Z</time>
      </trkpt>
      <trkpt lat="45.33747" lon="-0.97763">
        <ele>54.14806</ele>
        <time>2022-12-23T09:08:27.734Z</time>
      </trkpt>
      <trkpt lat="45.3374" lon="-0.97756">
        <ele>54.150743</ele>
        <time>2022-12-23T09:08:29.748Z</time>
      </trkpt>
      <trkpt lat="45.33731" lon="-0.97748">
        <ele>54.153719</ele>
        <time>2022-12-23T09:08:31.748Z</time>
      </trkpt>
      <trkpt lat="45.33723" lon="-0.97741">
        <ele>54.156488</ele>
        <time>2022-12-23T09:08:33.751Z</time>
      </trkpt>
      <trkpt lat="45.33713" lon="-0.97734">
        <ele>54.159874</ele>
        <time>2022-12-23T09:08:36.757Z</time>
      </trkpt>
      <trkpt lat="45.33705" lon="-0.97727">
        <ele>54.162748</ele>
        <time>2022-12-23T09:08:38.801Z</time>
      </trkpt>
      <trkpt lat="45.33693" lon="-0.97719">
        <ele>54.166658</ele>
        <time>2022-12-23T09:08:41.750Z</time>
      </trkpt>
      <trkpt lat="45.33685" lon="-0.97713">
        <ele>54.169403</ele>
        <time>2022-12-23T09:08:43.748Z</time>
      </trkpt>
      <trkpt lat="45.33676" lon="-0.97707">
        <ele>54.172372</ele>
        <time>2022-12-23T09:08:45.727Z</time>
      </trkpt>
      <trkpt lat="45.33663" lon="-0.97699">
        <ele>54.176464</ele>
        <time>2022-12-23T09:08:48.754Z</time>
      </trkpt>
      <trkpt lat="45.33655" lon="-0.97694">
        <ele>54.179137</ele>
        <time>2022-12-23T09:08:50.749Z</time>
      </trkpt>
      <trkpt lat="45.33646" lon="-0.97688">
        <ele>54.182061</ele>
        <time>2022-12-23T09:08:52.751Z</time>
      </trkpt>
      <trkpt lat="45.33638" lon="-0.97682">
        <ele>54.184826</ele>
        <time>2022-12-23T09:08:54.726Z</time>
      </trkpt>
      <trkpt lat="45.33626" lon="-0.97674">
        <ele>54.20719</ele>
        <time>2022-12-23T09:08:57.752Z</time>
      </trkpt>
      <trkpt lat="45.33615" lon="-0.97666">
        <ele>54.638859</ele>
        <time>2022-12-23T09:09:00.813Z</time>
      </trkpt>
      <trkpt lat="45.33607" lon="-0.97661">
        <ele>54.943771</ele>
        <time>2022-12-23T09:09:02.733Z</time>
      </trkpt>
      <trkpt lat="45.33594" lon="-0.97654">
        <ele>55.391446</ele>
        <time>2022-12-23T09:09:05.761Z</time>
      </trkpt>
      <trkpt lat="45.33586" lon="-0.97648">
        <ele>55.706833</ele>
        <time>2022-12-23T09:09:07.752Z</time>
      </trkpt>
      <trkpt lat="45.33578" lon="-0.97641">
        <ele>56.026339</ele>
        <time>2022-12-23T09:09:09.749Z</time>
      </trkpt>
      <trkpt lat="45.33569" lon="-0.97636">
        <ele>56.344505</ele>
        <time>2022-12-23T09:09:11.749Z</time>
      </trkpt>
      <trkpt lat="45.33558" lon="-0.97628">
        <ele>56.776225</ele>
        <time>2022-12-23T09:09:14.748Z</time>
      </trkpt>
      <trkpt lat="45.33547" lon="-0.9762">
        <ele>57.195644</ele>
        <time>2022-12-23T09:09:17.739Z</time>
      </trkpt>
      <trkpt lat="45.33536" lon="-0.97612">
        <ele>57.624322</ele>
        <time>2022-12-23T09:09:20.750Z</time>
      </trkpt>
      <trkpt lat="45.33527" lon="-0.97606">
        <ele>57.940837</ele>
        <time>2022-12-23T09:09:22.801Z</time>
      </trkpt>
      <trkpt lat="45.33519" lon="-0.97599">
        <ele>58.273481</ele>
        <time>2022-12-23T09:09:24.751Z</time>
      </trkpt>
      <trkpt lat="45.33506" lon="-0.9759">
        <ele>58.745186</ele>
        <time>2022-12-23T09:09:27.753Z</time>
      </trkpt>
      <trkpt lat="45.33498" lon="-0.97585">
        <ele>59.060717</ele>
        <time>2022-12-23T09:09:29.756Z</time>
      </trkpt>
      <trkpt lat="45.33486" lon="-0.97578">
        <ele>59.506168</ele>
        <time>2022-12-23T09:09:32.751Z</time>
      </trkpt>
      <trkpt lat="45.33477" lon="-0.97573">
        <ele>59.814186</ele>
        <time>2022-12-23T09:09:34.766Z</time>
      </trkpt>
      <trkpt lat="45.33466" lon="-0.97566">
        <ele>60.226833</ele>
        <time>2022-12-23T09:09:37.753Z</time>
      </trkpt>
      <trkpt lat="45.33455" lon="-0.97559">
        <ele>60.361159</ele>
        <time>2022-12-23T09:09:40.796Z</time>
      </trkpt>
      <trkpt lat="45.33443" lon="-0.97551">
        <ele>60.440801</ele>
        <time>2022-12-23T09:09:43.753Z</time>
      </trkpt>
      <trkpt lat="45.3343" lon="-0.97543">
        <ele>60.520948</ele>
        <time>2022-12-23T09:09:46.810Z</time>
      </trkpt>
      <trkpt lat="45.33422" lon="-0.97539">
        <ele>60.575783</ele>
        <time>2022-12-23T09:09:48.753Z</time>
      </trkpt>
      <trkpt lat="45.33409" lon="-0.97531">
        <ele>60.657598</ele>
        <time>2022-12-23T09:09:51.750Z</time>
      </trkpt>
      <trkpt lat="45.33401" lon="-0.97524">
        <ele>60.715794</ele>
        <time>2022-12-23T09:09:53.748Z</time>
      </trkpt>
      <trkpt lat="45.33389" lon="-0.97516">
        <ele>60.794353</ele>
        <time>2022-12-23T09:09:56.749Z</time>
      </trkpt>
      <trkpt lat="45.33378" lon="-0.97509">
        <ele>60.867134</ele>
        <time>2022-12-23T09:09:59.751Z</time>
      </trkpt>
      <trkpt lat="45.33368" lon="-0.97502">
        <ele>60.93522</ele>
        <time>2022-12-23T09:10:02.746Z</time>
      </trkpt>
      <trkpt lat="45.33357" lon="-0.97495">
        <ele>61.004769</ele>
        <time>2022-12-23T09:10:05.749Z</time>
      </trkpt>
      <trkpt lat="45.33346" lon="-0.97488">
        <ele>61.07755</ele>
        <time>2022-12-23T09:10:08.755Z</time>
      </trkpt>
      <trkpt lat="45.33335" lon="-0.9748">
        <ele>61.15377</ele>
        <time>2022-12-23T09:10:11.748Z</time>
      </trkpt>
      <trkpt lat="45.33323" lon="-0.97472">
        <ele>61.233238</ele>
        <time>2022-12-23T09:10:14.764Z</time>
      </trkpt>
      <trkpt lat="45.33311" lon="-0.97463">
        <ele>61.313617</ele>
        <time>2022-12-23T09:10:17.753Z</time>
      </trkpt>
      <trkpt lat="45.33299" lon="-0.97455">
        <ele>61.368342</ele>
        <time>2022-12-23T09:10:20.764Z</time>
      </trkpt>
      <trkpt lat="45.33287" lon="-0.97446">
        <ele>61.334921</ele>
        <time>2022-12-23T09:10:23.752Z</time>
      </trkpt>
      <trkpt lat="45.33275" lon="-0.97439">
        <ele>61.301034</ele>
        <time>2022-12-23T09:10:26.762Z</time>
      </trkpt>
      <trkpt lat="45.33264" lon="-0.9743">
        <ele>61.26722</ele>
        <time>2022-12-23T09:10:29.756Z</time>
      </trkpt>
      <trkpt lat="45.33252" lon="-0.97423">
        <ele>61.233097</ele>
        <time>2022-12-23T09:10:32.733Z</time>
      </trkpt>
      <trkpt lat="45.33243" lon="-0.97418">
        <ele>61.209785</ele>
        <time>2022-12-23T09:10:34.801Z</time>
      </trkpt>
      <trkpt lat="45.33235" lon="-0.97412">
        <ele>61.184998</ele>
        <time>2022-12-23T09:10:36.736Z</time>
      </trkpt>
      <trkpt lat="45.33226" lon="-0.97407">
        <ele>61.161893</ele>
        <time>2022-12-23T09:10:38.754Z</time>
      </trkpt>
      <trkpt lat="45.33218" lon="-0.97403">
        <ele>61.138412</ele>
        <time>2022-12-23T09:10:40.822Z</time>
      </trkpt>
      <trkpt lat="45.33209" lon="-0.97397">
        <ele>61.11403</ele>
        <time>2022-12-23T09:10:42.750Z</time>
      </trkpt>
      <trkpt lat="45.33201" lon="-0.97391">
        <ele>61.090494</ele>
        <time>2022-12-23T09:10:44.751Z</time>
      </trkpt>
      <trkpt lat="45.33193" lon="-0.97384">
        <ele>61.06599</ele>
        <time>2022-12-23T09:10:46.749Z</time>
      </trkpt>
      <trkpt lat="45.33182" lon="-0.97376">
        <ele>61.033724</ele>
        <time>2022-12-23T09:10:49.751Z</time>
      </trkpt>
      <trkpt lat="45.33173" lon="-0.9737">
        <ele>61.008935</ele>
        <time>2022-12-23T09:10:51.752Z</time>
      </trkpt>
      <trkpt lat="45.33165" lon="-0.97363">
        <ele>60.984517</ele>
        <time>2022-12-23T09:10:53.754Z</time>
      </trkpt>
      <trkpt lat="45.33158" lon="-0.97355">
        <ele>60.960385</ele>
        <time>2022-12-23T09:10:55.764Z</time>
      </trkpt>
      <trkpt lat="45.3315" lon="-0.97349">
        <ele>60.936059</ele>
        <time>2022-12-23T09:10:57.751Z</time>
      </trkpt>
      <trkpt lat="45.33142" lon="-0.97341">
        <ele>60.911279</ele>
        <time>2022-12-23T09:10:59.764Z</time>
      </trkpt>
      <trkpt lat="45.33134" lon="-0.97334">
        <ele>60.898576</ele>
        <time>2022-12-23T09:11:01.728Z</time>
      </trkpt>
      <trkpt lat="45.33127" lon="-0.97326">
        <ele>60.885991</ele>
        <time>2022-12-23T09:11:03.757Z</time>
      </trkpt>
      <trkpt lat="45.33118" lon="-0.97316">
        <ele>60.870762</ele>
        <time>2022-12-23T09:11:06.765Z</time>
      </trkpt>
      <trkpt lat="45.33109" lon="-0.97306">
        <ele>60.855675</ele>
        <time>2022-12-23T09:11:09.757Z</time>
      </trkpt>
      <trkpt lat="45.331" lon="-0.97295">
        <ele>60.839812</ele>
        <time>2022-12-23T09:11:12.753Z</time>
      </trkpt>
      <trkpt lat="45.33091" lon="-0.97283">
        <ele>60.823268</ele>
        <time>2022-12-23T09:11:15.752Z</time>
      </trkpt>
      <trkpt lat="45.33082" lon="-0.97272">
        <ele>60.80685</ele>
        <time>2022-12-23T09:11:18.753Z</time>
      </trkpt>
      <trkpt lat="45.33073" lon="-0.97261">
        <ele>60.790393</ele>
        <time>2022-12-23T09:11:21.763Z</time>
      </trkpt>
      <trkpt lat="45.33063" lon="-0.97249">
        <ele>60.773749</ele>
        <time>2022-12-23T09:11:24.753Z</time>
      </trkpt>
      <trkpt lat="45.33054" lon="-0.97237">
        <ele>60.756431</ele>
        <time>2022-12-23T09:11:27.754Z</time>
      </trkpt>
      <trkpt lat="45.33045" lon="-0.97226">
        <ele>60.740427</ele>
        <time>2022-12-23T09:11:30.751Z</time>
      </trkpt>
      <trkpt lat="45.33036" lon="-0.97215">
        <ele>60.724586</ele>
        <time>2022-12-23T09:11:33.752Z</time>
      </trkpt>
      <trkpt lat="45.33027" lon="-0.97204">
        <ele>60.709012</ele>
        <time>2022-12-23T09:11:36.749Z</time>
      </trkpt>
      <trkpt lat="45.33018" lon="-0.97194">
        <ele>60.693416</ele>
        <time>2022-12-23T09:11:39.750Z</time>
      </trkpt>
      <trkpt lat="45.3301" lon="-0.97183">
        <ele>60.677853</ele>
        <time>2022-12-23T09:11:42.736Z</time>
      </trkpt>
      <trkpt lat="45.33001" lon="-0.97172">
        <ele>60.661586</ele>
        <time>2022-12-23T09:11:45.751Z</time>
      </trkpt>
      <trkpt lat="45.32992" lon="-0.97161">
        <ele>60.644749</ele>
        <time>2022-12-23T09:11:48.754Z</time>
      </trkpt>
      <trkpt lat="45.32983" lon="-0.9715">
        <ele>60.62763</ele>
        <time>2022-12-23T09:11:51.812Z</time>
      </trkpt>
      <trkpt lat="45.32974" lon="-0.97139">
        <ele>60.611467</ele>
        <time>2022-12-23T09:11:54.752Z</time>
      </trkpt>
      <trkpt lat="45.32966" lon="-0.97129">
        <ele>60.595304</ele>
        <time>2022-12-23T09:11:57.794Z</time>
      </trkpt>
      <trkpt lat="45.32957" lon="-0.97118">
        <ele>60.579464</ele>
        <time>2022-12-23T09:12:00.741Z</time>
      </trkpt>
      <trkpt lat="45.3295" lon="-0.97106">
        <ele>60.563345</ele>
        <time>2022-12-23T09:12:03.806Z</time>
      </trkpt>
      <trkpt lat="45.32942" lon="-0.97094">
        <ele>60.54691</ele>
        <time>2022-12-23T09:12:06.752Z</time>
      </trkpt>
      <trkpt lat="45.32934" lon="-0.97082">
        <ele>60.530848</ele>
        <time>2022-12-23T09:12:09.819Z</time>
      </trkpt>
      <trkpt lat="45.32928" lon="-0.97069">
        <ele>60.514199</ele>
        <time>2022-12-23T09:12:12.754Z</time>
      </trkpt>
      <trkpt lat="45.32921" lon="-0.97054">
        <ele>60.497184</ele>
        <time>2022-12-23T09:12:15.823Z</time>
      </trkpt>
      <trkpt lat="45.32915" lon="-0.9704">
        <ele>60.480363</ele>
        <time>2022-12-23T09:12:18.754Z</time>
      </trkpt>
      <trkpt lat="45.3291" lon="-0.97027">
        <ele>60.464878</ele>
        <time>2022-12-23T09:12:21.768Z</time>
      </trkpt>
      <trkpt lat="45.32904" lon="-0.97014">
        <ele>60.44994</ele>
        <time>2022-12-23T09:12:24.752Z</time>
      </trkpt>
      <trkpt lat="45.32899" lon="-0.97002">
        <ele>60.435305</ele>
        <time>2022-12-23T09:12:27.805Z</time>
      </trkpt>
      <trkpt lat="45.32893" lon="-0.96988">
        <ele>60.419186</ele>
        <time>2022-12-23T09:12:30.766Z</time>
      </trkpt>
      <trkpt lat="45.32887" lon="-0.96973">
        <ele>60.370571</ele>
        <time>2022-12-23T09:12:33.812Z</time>
      </trkpt>
      <trkpt lat="45.32879" lon="-0.96958">
        <ele>60.292706</ele>
        <time>2022-12-23T09:12:36.751Z</time>
      </trkpt>
      <trkpt lat="45.32874" lon="-0.96946">
        <ele>60.235885</ele>
        <time>2022-12-23T09:12:38.752Z</time>
      </trkpt>
      <trkpt lat="45.32869" lon="-0.96934">
        <ele>60.178584</ele>
        <time>2022-12-23T09:12:40.741Z</time>
      </trkpt>
      <trkpt lat="45.32865" lon="-0.96923">
        <ele>60.122565</ele>
        <time>2022-12-23T09:12:42.759Z</time>
      </trkpt>
      <trkpt lat="45.32858" lon="-0.96906">
        <ele>60.041768</ele>
        <time>2022-12-23T09:12:45.817Z</time>
      </trkpt>
      <trkpt lat="45.32851" lon="-0.9689">
        <ele>59.964171</ele>
        <time>2022-12-23T09:12:48.765Z</time>
      </trkpt>
      <trkpt lat="45.32845" lon="-0.96875">
        <ele>59.886826</ele>
        <time>2022-12-23T09:12:51.803Z</time>
      </trkpt>
      <trkpt lat="45.32839" lon="-0.96858">
        <ele>59.809433</ele>
        <time>2022-12-23T09:12:54.758Z</time>
      </trkpt>
      <trkpt lat="45.32833" lon="-0.96842">
        <ele>59.731949</ele>
        <time>2022-12-23T09:12:57.800Z</time>
      </trkpt>
      <trkpt lat="45.32826" lon="-0.96826">
        <ele>59.653531</ele>
        <time>2022-12-23T09:13:00.746Z</time>
      </trkpt>
      <trkpt lat="45.32822" lon="-0.96814">
        <ele>59.598582</ele>
        <time>2022-12-23T09:13:02.733Z</time>
      </trkpt>
      <trkpt lat="45.32817" lon="-0.96803">
        <ele>59.542563</ele>
        <time>2022-12-23T09:13:04.762Z</time>
      </trkpt>
      <trkpt lat="45.32813" lon="-0.96791">
        <ele>59.485372</ele>
        <time>2022-12-23T09:13:06.750Z</time>
      </trkpt>
      <trkpt lat="45.32807" lon="-0.96773">
        <ele>59.404399</ele>
        <time>2022-12-23T09:13:09.734Z</time>
      </trkpt>
      <trkpt lat="45.32803" lon="-0.96761">
        <ele>59.348699</ele>
        <time>2022-12-23T09:13:11.751Z</time>
      </trkpt>
      <trkpt lat="45.32797" lon="-0.96745">
        <ele>59.405212</ele>
        <time>2022-12-23T09:13:14.804Z</time>
      </trkpt>
      <trkpt lat="45.3279" lon="-0.96728">
        <ele>59.493467</ele>
        <time>2022-12-23T09:13:17.752Z</time>
      </trkpt>
      <trkpt lat="45.32784" lon="-0.96712">
        <ele>59.576488</ele>
        <time>2022-12-23T09:13:20.778Z</time>
      </trkpt>
      <trkpt lat="45.32779" lon="-0.96696">
        <ele>59.659848</ele>
        <time>2022-12-23T09:13:23.757Z</time>
      </trkpt>
      <trkpt lat="45.32773" lon="-0.9668">
        <ele>59.741032</ele>
        <time>2022-12-23T09:13:26.751Z</time>
      </trkpt>
      <trkpt lat="45.32767" lon="-0.96665">
        <ele>59.822215</ele>
        <time>2022-12-23T09:13:29.752Z</time>
      </trkpt>
      <trkpt lat="45.32761" lon="-0.96649">
        <ele>59.90489</ele>
        <time>2022-12-23T09:13:32.761Z</time>
      </trkpt>
      <trkpt lat="45.32755" lon="-0.96634">
        <ele>59.985789</ele>
        <time>2022-12-23T09:13:35.767Z</time>
      </trkpt>
      <trkpt lat="45.32749" lon="-0.96619">
        <ele>60.06701</ele>
        <time>2022-12-23T09:13:38.745Z</time>
      </trkpt>
      <trkpt lat="45.32744" lon="-0.96605">
        <ele>60.136966</ele>
        <time>2022-12-23T09:13:41.755Z</time>
      </trkpt>
      <trkpt lat="45.32739" lon="-0.96593">
        <ele>60.200802</ele>
        <time>2022-12-23T09:13:44.751Z</time>
      </trkpt>
      <trkpt lat="45.32734" lon="-0.9658">
        <ele>60.27078</ele>
        <time>2022-12-23T09:13:47.762Z</time>
      </trkpt>
      <trkpt lat="45.32729" lon="-0.96566">
        <ele>60.344518</ele>
        <time>2022-12-23T09:13:50.753Z</time>
      </trkpt>
      <trkpt lat="45.32724" lon="-0.96552">
        <ele>60.418151</ele>
        <time>2022-12-23T09:13:53.754Z</time>
      </trkpt>
      <trkpt lat="45.32719" lon="-0.96537">
        <ele>60.492728</ele>
        <time>2022-12-23T09:13:56.752Z</time>
      </trkpt>
      <trkpt lat="45.32713" lon="-0.96522">
        <ele>60.537437</ele>
        <time>2022-12-23T09:13:59.755Z</time>
      </trkpt>
      <trkpt lat="45.32708" lon="-0.96508">
        <ele>60.568686</ele>
        <time>2022-12-23T09:14:02.751Z</time>
      </trkpt>
      <trkpt lat="45.32702" lon="-0.96493">
        <ele>60.600685</ele>
        <time>2022-12-23T09:14:05.752Z</time>
      </trkpt>
      <trkpt lat="45.32697" lon="-0.96477">
        <ele>60.633855</ele>
        <time>2022-12-23T09:14:08.752Z</time>
      </trkpt>
      <trkpt lat="45.32691" lon="-0.96461">
        <ele>60.666856</ele>
        <time>2022-12-23T09:14:11.751Z</time>
      </trkpt>
      <trkpt lat="45.32685" lon="-0.96446">
        <ele>60.699404</ele>
        <time>2022-12-23T09:14:14.762Z</time>
      </trkpt>
      <trkpt lat="45.32679" lon="-0.96432">
        <ele>60.731593</ele>
        <time>2022-12-23T09:14:17.761Z</time>
      </trkpt>
      <trkpt lat="45.32673" lon="-0.96417">
        <ele>60.763057</ele>
        <time>2022-12-23T09:14:20.751Z</time>
      </trkpt>
      <trkpt lat="45.32667" lon="-0.96403">
        <ele>60.795592</ele>
        <time>2022-12-23T09:14:23.751Z</time>
      </trkpt>
      <trkpt lat="45.32659" lon="-0.96389">
        <ele>60.828786</ele>
        <time>2022-12-23T09:14:26.764Z</time>
      </trkpt>
      <trkpt lat="45.32651" lon="-0.96375">
        <ele>60.861962</ele>
        <time>2022-12-23T09:14:29.750Z</time>
      </trkpt>
      <trkpt lat="45.32644" lon="-0.9636">
        <ele>60.896511</ele>
        <time>2022-12-23T09:14:32.751Z</time>
      </trkpt>
      <trkpt lat="45.32635" lon="-0.96346">
        <ele>60.931332</ele>
        <time>2022-12-23T09:14:35.750Z</time>
      </trkpt>
      <trkpt lat="45.32627" lon="-0.96333">
        <ele>60.965377</ele>
        <time>2022-12-23T09:14:38.751Z</time>
      </trkpt>
      <trkpt lat="45.32618" lon="-0.96319">
        <ele>60.996948</ele>
        <time>2022-12-23T09:14:41.752Z</time>
      </trkpt>
      <trkpt lat="45.32609" lon="-0.96307">
        <ele>60.990555</ele>
        <time>2022-12-23T09:14:44.763Z</time>
      </trkpt>
      <trkpt lat="45.32601" lon="-0.96293">
        <ele>60.984121</ele>
        <time>2022-12-23T09:14:47.762Z</time>
      </trkpt>
      <trkpt lat="45.32592" lon="-0.9628">
        <ele>60.977519</ele>
        <time>2022-12-23T09:14:50.755Z</time>
      </trkpt>
      <trkpt lat="45.32583" lon="-0.96267">
        <ele>60.971104</ele>
        <time>2022-12-23T09:14:53.754Z</time>
      </trkpt>
      <trkpt lat="45.32574" lon="-0.96255">
        <ele>60.964808</ele>
        <time>2022-12-23T09:14:56.757Z</time>
      </trkpt>
      <trkpt lat="45.32565" lon="-0.96242">
        <ele>60.958292</ele>
        <time>2022-12-23T09:14:59.754Z</time>
      </trkpt>
      <trkpt lat="45.32556" lon="-0.96229">
        <ele>60.951679</ele>
        <time>2022-12-23T09:15:02.751Z</time>
      </trkpt>
      <trkpt lat="45.32546" lon="-0.96217">
        <ele>60.945001</ele>
        <time>2022-12-23T09:15:05.751Z</time>
      </trkpt>
      <trkpt lat="45.32536" lon="-0.96204">
        <ele>60.938313</ele>
        <time>2022-12-23T09:15:08.750Z</time>
      </trkpt>
      <trkpt lat="45.32526" lon="-0.96192">
        <ele>60.931668</ele>
        <time>2022-12-23T09:15:11.752Z</time>
      </trkpt>
      <trkpt lat="45.32517" lon="-0.96182">
        <ele>60.925663</ele>
        <time>2022-12-23T09:15:14.751Z</time>
      </trkpt>
      <trkpt lat="45.32507" lon="-0.96171">
        <ele>60.919329</ele>
        <time>2022-12-23T09:15:17.749Z</time>
      </trkpt>
      <trkpt lat="45.32497" lon="-0.96159">
        <ele>60.912737</ele>
        <time>2022-12-23T09:15:20.760Z</time>
      </trkpt>
      <trkpt lat="45.32487" lon="-0.96147">
        <ele>60.906014</ele>
        <time>2022-12-23T09:15:23.751Z</time>
      </trkpt>
      <trkpt lat="45.32477" lon="-0.96136">
        <ele>61.030736</ele>
        <time>2022-12-23T09:15:26.752Z</time>
      </trkpt>
      <trkpt lat="45.32467" lon="-0.96125">
        <ele>61.158585</ele>
        <time>2022-12-23T09:15:29.751Z</time>
      </trkpt>
      <trkpt lat="45.32457" lon="-0.96113">
        <ele>61.289147</ele>
        <time>2022-12-23T09:15:32.763Z</time>
      </trkpt>
      <trkpt lat="45.32447" lon="-0.96102">
        <ele>61.419606</ele>
        <time>2022-12-23T09:15:35.750Z</time>
      </trkpt>
      <trkpt lat="45.32437" lon="-0.9609">
        <ele>61.555552</ele>
        <time>2022-12-23T09:15:38.741Z</time>
      </trkpt>
      <trkpt lat="45.32426" lon="-0.96078">
        <ele>61.69105</ele>
        <time>2022-12-23T09:15:41.818Z</time>
      </trkpt>
      <trkpt lat="45.32416" lon="-0.96066">
        <ele>61.82312</ele>
        <time>2022-12-23T09:15:44.749Z</time>
      </trkpt>
      <trkpt lat="45.32408" lon="-0.96054">
        <ele>61.941328</ele>
        <time>2022-12-23T09:15:47.750Z</time>
      </trkpt>
      <trkpt lat="45.32399" lon="-0.96043">
        <ele>62.060516</ele>
        <time>2022-12-23T09:15:50.750Z</time>
      </trkpt>
      <trkpt lat="45.3239" lon="-0.9603">
        <ele>62.19243</ele>
        <time>2022-12-23T09:15:53.746Z</time>
      </trkpt>
      <trkpt lat="45.32383" lon="-0.96021">
        <ele>62.284497</ele>
        <time>2022-12-23T09:15:55.763Z</time>
      </trkpt>
      <trkpt lat="45.32374" lon="-0.96008">
        <ele>62.41937</ele>
        <time>2022-12-23T09:15:58.748Z</time>
      </trkpt>
      <trkpt lat="45.32367" lon="-0.95999">
        <ele>62.513353</ele>
        <time>2022-12-23T09:16:00.728Z</time>
      </trkpt>
      <trkpt lat="45.32358" lon="-0.95985">
        <ele>62.646792</ele>
        <time>2022-12-23T09:16:03.806Z</time>
      </trkpt>
      <trkpt lat="45.32348" lon="-0.95973">
        <ele>62.696416</ele>
        <time>2022-12-23T09:16:06.754Z</time>
      </trkpt>
      <trkpt lat="45.32339" lon="-0.95962">
        <ele>62.625939</ele>
        <time>2022-12-23T09:16:09.817Z</time>
      </trkpt>
      <trkpt lat="45.3233" lon="-0.95951">
        <ele>62.560994</ele>
        <time>2022-12-23T09:16:12.762Z</time>
      </trkpt>
      <trkpt lat="45.32321" lon="-0.9594">
        <ele>62.490931</ele>
        <time>2022-12-23T09:16:15.793Z</time>
      </trkpt>
      <trkpt lat="45.32312" lon="-0.95928">
        <ele>62.417796</ele>
        <time>2022-12-23T09:16:18.755Z</time>
      </trkpt>
      <trkpt lat="45.32305" lon="-0.95919">
        <ele>62.365304</ele>
        <time>2022-12-23T09:16:20.757Z</time>
      </trkpt>
      <trkpt lat="45.32298" lon="-0.9591">
        <ele>62.311842</ele>
        <time>2022-12-23T09:16:22.757Z</time>
      </trkpt>
      <trkpt lat="45.32288" lon="-0.95897">
        <ele>62.231704</ele>
        <time>2022-12-23T09:16:25.752Z</time>
      </trkpt>
      <trkpt lat="45.32281" lon="-0.95889">
        <ele>62.179132</ele>
        <time>2022-12-23T09:16:27.819Z</time>
      </trkpt>
      <trkpt lat="45.32271" lon="-0.95877">
        <ele>62.105396</ele>
        <time>2022-12-23T09:16:30.754Z</time>
      </trkpt>
      <trkpt lat="45.32262" lon="-0.95866">
        <ele>62.036144</ele>
        <time>2022-12-23T09:16:33.797Z</time>
      </trkpt>
      <trkpt lat="45.32253" lon="-0.95853">
        <ele>61.96207</ele>
        <time>2022-12-23T09:16:36.749Z</time>
      </trkpt>
      <trkpt lat="45.32247" lon="-0.95843">
        <ele>61.909123</ele>
        <time>2022-12-23T09:16:38.751Z</time>
      </trkpt>
      <trkpt lat="45.32239" lon="-0.95829">
        <ele>61.833341</ele>
        <time>2022-12-23T09:16:41.751Z</time>
      </trkpt>
      <trkpt lat="45.32231" lon="-0.95815">
        <ele>61.759854</ele>
        <time>2022-12-23T09:16:44.762Z</time>
      </trkpt>
      <trkpt lat="45.32225" lon="-0.95805">
        <ele>61.708319</ele>
        <time>2022-12-23T09:16:46.768Z</time>
      </trkpt>
      <trkpt lat="45.32219" lon="-0.95794">
        <ele>61.616545</ele>
        <time>2022-12-23T09:16:48.754Z</time>
      </trkpt>
      <trkpt lat="45.32211" lon="-0.95779">
        <ele>61.460844</ele>
        <time>2022-12-23T09:16:51.742Z</time>
      </trkpt>
      <trkpt lat="45.32205" lon="-0.95769">
        <ele>61.35271</ele>
        <time>2022-12-23T09:16:53.751Z</time>
      </trkpt>
      <trkpt lat="45.32197" lon="-0.95756">
        <ele>61.203861</ele>
        <time>2022-12-23T09:16:56.798Z</time>
      </trkpt>
      <trkpt lat="45.32187" lon="-0.95747">
        <ele>61.068405</ele>
        <time>2022-12-23T09:16:59.749Z</time>
      </trkpt>
      <trkpt lat="45.32179" lon="-0.95737">
        <ele>60.942253</ele>
        <time>2022-12-23T09:17:02.800Z</time>
      </trkpt>
      <trkpt lat="45.32174" lon="-0.95721">
        <ele>60.796044</ele>
        <time>2022-12-23T09:17:05.749Z</time>
      </trkpt>
      <trkpt lat="45.32172" lon="-0.95708">
        <ele>60.682329</ele>
        <time>2022-12-23T09:17:07.752Z</time>
      </trkpt>
      <trkpt lat="45.32165" lon="-0.95694">
        <ele>60.53964</ele>
        <time>2022-12-23T09:17:10.761Z</time>
      </trkpt>
      <trkpt lat="45.32157" lon="-0.95684">
        <ele>60.421889</ele>
        <time>2022-12-23T09:17:14.738Z</time>
      </trkpt>
      <trkpt lat="45.32144" lon="-0.95679">
        <ele>60.261202</ele>
        <time>2022-12-23T09:18:30.739Z</time>
      </trkpt>
      <trkpt lat="45.32135" lon="-0.95674">
        <ele>60.139863</ele>
        <time>2022-12-23T09:18:34.746Z</time>
      </trkpt>
      <trkpt lat="45.32126" lon="-0.95667">
        <ele>60.030413</ele>
        <time>2022-12-23T09:18:37.749Z</time>
      </trkpt>
      <trkpt lat="45.32118" lon="-0.95661">
        <ele>59.911854</ele>
        <time>2022-12-23T09:18:40.748Z</time>
      </trkpt>
      <trkpt lat="45.32107" lon="-0.95656">
        <ele>59.782078</ele>
        <time>2022-12-23T09:18:43.742Z</time>
      </trkpt>
      <trkpt lat="45.32096" lon="-0.95653">
        <ele>59.649063</ele>
        <time>2022-12-23T09:18:46.737Z</time>
      </trkpt>
      <trkpt lat="45.32085" lon="-0.95648">
        <ele>59.575653</ele>
        <time>2022-12-23T09:18:49.738Z</time>
      </trkpt>
      <trkpt lat="45.32075" lon="-0.9564">
        <ele>59.611444</ele>
        <time>2022-12-23T09:18:52.733Z</time>
      </trkpt>
      <trkpt lat="45.32065" lon="-0.95633">
        <ele>59.64687</ele>
        <time>2022-12-23T09:18:55.731Z</time>
      </trkpt>
      <trkpt lat="45.32055" lon="-0.95627">
        <ele>59.681719</ele>
        <time>2022-12-23T09:18:58.751Z</time>
      </trkpt>
      <trkpt lat="45.32043" lon="-0.95622">
        <ele>59.718184</ele>
        <time>2022-12-23T09:19:01.734Z</time>
      </trkpt>
      <trkpt lat="45.32032" lon="-0.95616">
        <ele>59.754518</ele>
        <time>2022-12-23T09:19:04.748Z</time>
      </trkpt>
      <trkpt lat="45.32021" lon="-0.9561">
        <ele>59.790827</ele>
        <time>2022-12-23T09:19:07.738Z</time>
      </trkpt>
      <trkpt lat="45.3201" lon="-0.95606">
        <ele>59.827922</ele>
        <time>2022-12-23T09:19:10.744Z</time>
      </trkpt>
      <trkpt lat="45.31999" lon="-0.95601">
        <ele>59.863142</ele>
        <time>2022-12-23T09:19:13.751Z</time>
      </trkpt>
      <trkpt lat="45.31989" lon="-0.95595">
        <ele>59.897262</ele>
        <time>2022-12-23T09:19:16.751Z</time>
      </trkpt>
      <trkpt lat="45.31978" lon="-0.95592">
        <ele>59.932405</ele>
        <time>2022-12-23T09:19:19.727Z</time>
      </trkpt>
      <trkpt lat="45.31967" lon="-0.95588">
        <ele>59.966737</ele>
        <time>2022-12-23T09:19:22.732Z</time>
      </trkpt>
      <trkpt lat="45.31957" lon="-0.95585">
        <ele>59.998912</ele>
        <time>2022-12-23T09:19:25.752Z</time>
      </trkpt>
      <trkpt lat="45.31947" lon="-0.95583">
        <ele>60.028329</ele>
        <time>2022-12-23T09:19:28.750Z</time>
      </trkpt>
      <trkpt lat="45.31936" lon="-0.95581">
        <ele>60.061984</ele>
        <time>2022-12-23T09:19:31.752Z</time>
      </trkpt>
      <trkpt lat="45.31925" lon="-0.95579">
        <ele>60.0981</ele>
        <time>2022-12-23T09:19:34.731Z</time>
      </trkpt>
      <trkpt lat="45.31913" lon="-0.95578">
        <ele>60.131214</ele>
        <time>2022-12-23T09:19:37.748Z</time>
      </trkpt>
      <trkpt lat="45.31901" lon="-0.95579">
        <ele>60.157266</ele>
        <time>2022-12-23T09:19:40.750Z</time>
      </trkpt>
      <trkpt lat="45.31889" lon="-0.9558">
        <ele>60.183606</ele>
        <time>2022-12-23T09:19:43.752Z</time>
      </trkpt>
      <trkpt lat="45.31877" lon="-0.95581">
        <ele>60.209506</ele>
        <time>2022-12-23T09:19:46.751Z</time>
      </trkpt>
      <trkpt lat="45.31866" lon="-0.95584">
        <ele>60.235364</ele>
        <time>2022-12-23T09:19:49.761Z</time>
      </trkpt>
      <trkpt lat="45.31855" lon="-0.95586">
        <ele>60.259552</ele>
        <time>2022-12-23T09:19:52.739Z</time>
      </trkpt>
      <trkpt lat="45.31844" lon="-0.95588">
        <ele>60.283062</ele>
        <time>2022-12-23T09:19:55.748Z</time>
      </trkpt>
      <trkpt lat="45.31833" lon="-0.9559">
        <ele>60.308898</ele>
        <time>2022-12-23T09:19:58.749Z</time>
      </trkpt>
      <trkpt lat="45.31821" lon="-0.95594">
        <ele>60.335151</ele>
        <time>2022-12-23T09:20:01.750Z</time>
      </trkpt>
      <trkpt lat="45.3181" lon="-0.95596">
        <ele>60.360914</ele>
        <time>2022-12-23T09:20:04.743Z</time>
      </trkpt>
      <trkpt lat="45.31798" lon="-0.95599">
        <ele>60.385923</ele>
        <time>2022-12-23T09:20:07.751Z</time>
      </trkpt>
      <trkpt lat="45.31788" lon="-0.95601">
        <ele>60.409794</ele>
        <time>2022-12-23T09:20:10.751Z</time>
      </trkpt>
      <trkpt lat="45.31777" lon="-0.95604">
        <ele>60.432818</ele>
        <time>2022-12-23T09:20:13.748Z</time>
      </trkpt>
      <trkpt lat="45.31767" lon="-0.95607">
        <ele>60.456845</ele>
        <time>2022-12-23T09:20:16.737Z</time>
      </trkpt>
      <trkpt lat="45.31756" lon="-0.9561">
        <ele>60.481246</ele>
        <time>2022-12-23T09:20:19.750Z</time>
      </trkpt>
      <trkpt lat="45.31745" lon="-0.95612">
        <ele>60.505908</ele>
        <time>2022-12-23T09:20:22.751Z</time>
      </trkpt>
      <trkpt lat="45.31734" lon="-0.95613">
        <ele>60.54534</ele>
        <time>2022-12-23T09:20:25.752Z</time>
      </trkpt>
      <trkpt lat="45.31724" lon="-0.95615">
        <ele>60.599009</ele>
        <time>2022-12-23T09:20:28.752Z</time>
      </trkpt>
      <trkpt lat="45.31713" lon="-0.95617">
        <ele>60.652394</ele>
        <time>2022-12-23T09:20:31.752Z</time>
      </trkpt>
      <trkpt lat="45.31702" lon="-0.95619">
        <ele>60.70623</ele>
        <time>2022-12-23T09:20:34.749Z</time>
      </trkpt>
      <trkpt lat="45.31691" lon="-0.95621">
        <ele>60.762758</ele>
        <time>2022-12-23T09:20:37.750Z</time>
      </trkpt>
      <trkpt lat="45.3168" lon="-0.95623">
        <ele>60.821089</ele>
        <time>2022-12-23T09:20:40.758Z</time>
      </trkpt>
      <trkpt lat="45.31669" lon="-0.95625">
        <ele>60.874757</ele>
        <time>2022-12-23T09:20:43.749Z</time>
      </trkpt>
      <trkpt lat="45.3166" lon="-0.95627">
        <ele>60.922113</ele>
        <time>2022-12-23T09:20:46.750Z</time>
      </trkpt>
      <trkpt lat="45.31649" lon="-0.95627">
        <ele>60.975492</ele>
        <time>2022-12-23T09:20:50.730Z</time>
      </trkpt>
      <trkpt lat="45.31639" lon="-0.95629">
        <ele>61.029199</ele>
        <time>2022-12-23T09:20:55.737Z</time>
      </trkpt>
      <trkpt lat="45.31628" lon="-0.95629">
        <ele>61.082093</ele>
        <time>2022-12-23T09:21:00.749Z</time>
      </trkpt>
      <trkpt lat="45.31618" lon="-0.95631">
        <ele>61.132258</ele>
        <time>2022-12-23T09:21:04.752Z</time>
      </trkpt>
      <trkpt lat="45.31608" lon="-0.95633">
        <ele>61.183814</ele>
        <time>2022-12-23T09:21:07.747Z</time>
      </trkpt>
      <trkpt lat="45.31598" lon="-0.95637">
        <ele>61.238278</ele>
        <time>2022-12-23T09:21:10.752Z</time>
      </trkpt>
      <trkpt lat="45.31587" lon="-0.95642">
        <ele>61.294841</ele>
        <time>2022-12-23T09:21:13.754Z</time>
      </trkpt>
      <trkpt lat="45.31576" lon="-0.95646">
        <ele>61.352469</ele>
        <time>2022-12-23T09:21:16.733Z</time>
      </trkpt>
      <trkpt lat="45.31565" lon="-0.95651">
        <ele>61.409815</ele>
        <time>2022-12-23T09:21:19.750Z</time>
      </trkpt>
      <trkpt lat="45.31554" lon="-0.95655">
        <ele>61.329322</ele>
        <time>2022-12-23T09:21:22.750Z</time>
      </trkpt>
      <trkpt lat="45.31542" lon="-0.95657">
        <ele>61.216263</ele>
        <time>2022-12-23T09:21:25.749Z</time>
      </trkpt>
      <trkpt lat="45.31531" lon="-0.95659">
        <ele>61.100667</ele>
        <time>2022-12-23T09:21:28.751Z</time>
      </trkpt>
      <trkpt lat="45.31519" lon="-0.95659">
        <ele>60.989637</ele>
        <time>2022-12-23T09:21:31.749Z</time>
      </trkpt>
      <trkpt lat="45.31509" lon="-0.95656">
        <ele>60.883474</ele>
        <time>2022-12-23T09:21:34.747Z</time>
      </trkpt>
      <trkpt lat="45.31499" lon="-0.95651">
        <ele>60.775811</ele>
        <time>2022-12-23T09:21:37.745Z</time>
      </trkpt>
      <trkpt lat="45.3149" lon="-0.95645">
        <ele>60.676864</ele>
        <time>2022-12-23T09:21:40.750Z</time>
      </trkpt>
      <trkpt lat="45.31482" lon="-0.95635">
        <ele>60.573667</ele>
        <time>2022-12-23T09:21:44.741Z</time>
      </trkpt>
      <trkpt lat="45.31477" lon="-0.95618">
        <ele>60.44378</ele>
        <time>2022-12-23T09:22:26.732Z</time>
      </trkpt>
      <trkpt lat="45.31474" lon="-0.95603">
        <ele>60.334514</ele>
        <time>2022-12-23T09:22:30.748Z</time>
      </trkpt>
      <trkpt lat="45.31473" lon="-0.95587">
        <ele>60.221304</ele>
        <time>2022-12-23T09:22:33.755Z</time>
      </trkpt>
      <trkpt lat="45.31468" lon="-0.95569">
        <ele>60.088767</ele>
        <time>2022-12-23T09:22:36.751Z</time>
      </trkpt>
      <trkpt lat="45.31464" lon="-0.95551">
        <ele>59.959471</ele>
        <time>2022-12-23T09:22:39.750Z</time>
      </trkpt>
      <trkpt lat="45.3146" lon="-0.95536">
        <ele>59.849321</ele>
        <time>2022-12-23T09:22:42.749Z</time>
      </trkpt>
      <trkpt lat="45.31458" lon="-0.95523">
        <ele>59.752008</ele>
        <time>2022-12-23T09:22:45.747Z</time>
      </trkpt>
      <trkpt lat="45.31455" lon="-0.95509">
        <ele>59.650645</ele>
        <time>2022-12-23T09:22:48.743Z</time>
      </trkpt>
      <trkpt lat="45.31453" lon="-0.95493">
        <ele>59.61093</ele>
        <time>2022-12-23T09:22:51.744Z</time>
      </trkpt>
      <trkpt lat="45.31453" lon="-0.95475">
        <ele>59.576522</ele>
        <time>2022-12-23T09:22:54.750Z</time>
      </trkpt>
      <trkpt lat="45.31454" lon="-0.95456">
        <ele>59.541509</ele>
        <time>2022-12-23T09:22:57.752Z</time>
      </trkpt>
      <trkpt lat="45.31455" lon="-0.95439">
        <ele>59.507024</ele>
        <time>2022-12-23T09:23:00.753Z</time>
      </trkpt>
      <trkpt lat="45.31455" lon="-0.9542">
        <ele>59.472039</ele>
        <time>2022-12-23T09:23:03.744Z</time>
      </trkpt>
      <trkpt lat="45.31456" lon="-0.95402">
        <ele>59.436575</ele>
        <time>2022-12-23T09:23:06.747Z</time>
      </trkpt>
      <trkpt lat="45.31457" lon="-0.95383">
        <ele>59.399961</ele>
        <time>2022-12-23T09:23:09.747Z</time>
      </trkpt>
      <trkpt lat="45.31458" lon="-0.95365">
        <ele>59.364807</ele>
        <time>2022-12-23T09:23:12.747Z</time>
      </trkpt>
      <trkpt lat="45.3146" lon="-0.95348">
        <ele>59.331305</ele>
        <time>2022-12-23T09:23:15.752Z</time>
      </trkpt>
      <trkpt lat="45.31462" lon="-0.95331">
        <ele>59.299107</ele>
        <time>2022-12-23T09:23:18.749Z</time>
      </trkpt>
      <trkpt lat="45.31464" lon="-0.95314">
        <ele>59.266268</ele>
        <time>2022-12-23T09:23:21.738Z</time>
      </trkpt>
      <trkpt lat="45.31467" lon="-0.95297">
        <ele>59.232836</ele>
        <time>2022-12-23T09:23:24.748Z</time>
      </trkpt>
      <trkpt lat="45.31469" lon="-0.95281">
        <ele>59.201021</ele>
        <time>2022-12-23T09:23:27.746Z</time>
      </trkpt>
      <trkpt lat="45.31471" lon="-0.95267">
        <ele>59.173618</ele>
        <time>2022-12-23T09:23:31.745Z</time>
      </trkpt>
      <trkpt lat="45.31472" lon="-0.95252">
        <ele>59.137444</ele>
        <time>2022-12-23T09:23:36.748Z</time>
      </trkpt>
      <trkpt lat="45.31476" lon="-0.95241">
        <ele>59.055315</ele>
        <time>2022-12-23T09:23:41.742Z</time>
      </trkpt>
      <trkpt lat="45.31474" lon="-0.95254">
        <ele>58.966438</ele>
        <time>2022-12-23T09:23:46.749Z</time>
      </trkpt>
      <trkpt lat="45.31472" lon="-0.9527">
        <ele>58.864702</ele>
        <time>2022-12-23T09:23:50.733Z</time>
      </trkpt>
      <trkpt lat="45.31471" lon="-0.95284">
        <ele>58.773144</ele>
        <time>2022-12-23T09:23:53.751Z</time>
      </trkpt>
      <trkpt lat="45.3147" lon="-0.95299">
        <ele>58.675007</ele>
        <time>2022-12-23T09:23:56.752Z</time>
      </trkpt>
      <trkpt lat="45.31468" lon="-0.95314">
        <ele>58.57942</ele>
        <time>2022-12-23T09:23:59.747Z</time>
      </trkpt>
      <trkpt lat="45.31466" lon="-0.95328">
        <ele>58.486576</ele>
        <time>2022-12-23T09:24:02.747Z</time>
      </trkpt>
      <trkpt lat="45.31465" lon="-0.95343">
        <ele>58.393746</ele>
        <time>2022-12-23T09:24:05.748Z</time>
      </trkpt>
      <trkpt lat="45.31463" lon="-0.95357">
        <ele>58.297718</ele>
        <time>2022-12-23T09:24:08.749Z</time>
      </trkpt>
      <trkpt lat="45.31462" lon="-0.95372">
        <ele>58.202055</ele>
        <time>2022-12-23T09:24:11.749Z</time>
      </trkpt>
      <trkpt lat="45.3146" lon="-0.95386">
        <ele>58.11343</ele>
        <time>2022-12-23T09:24:14.748Z</time>
      </trkpt>
      <trkpt lat="45.3146" lon="-0.95399">
        <ele>58.027338</ele>
        <time>2022-12-23T09:24:17.731Z</time>
      </trkpt>
      <trkpt lat="45.31459" lon="-0.95413">
        <ele>57.938615</ele>
        <time>2022-12-23T09:24:20.749Z</time>
      </trkpt>
      <trkpt lat="45.31458" lon="-0.95428">
        <ele>57.845344</ele>
        <time>2022-12-23T09:24:23.748Z</time>
      </trkpt>
      <trkpt lat="45.31455" lon="-0.95443">
        <ele>57.746444</ele>
        <time>2022-12-23T09:24:26.731Z</time>
      </trkpt>
      <trkpt lat="45.31446" lon="-0.95452">
        <ele>57.64469</ele>
        <time>2022-12-23T09:24:29.745Z</time>
      </trkpt>
      <trkpt lat="45.31435" lon="-0.95456">
        <ele>57.540817</ele>
        <time>2022-12-23T09:24:32.755Z</time>
      </trkpt>
      <trkpt lat="45.31425" lon="-0.95459">
        <ele>57.492462</ele>
        <time>2022-12-23T09:24:35.747Z</time>
      </trkpt>
      <trkpt lat="45.31416" lon="-0.95461">
        <ele>57.467449</ele>
        <time>2022-12-23T09:24:38.754Z</time>
      </trkpt>
      <trkpt lat="45.31405" lon="-0.95463">
        <ele>57.439427</ele>
        <time>2022-12-23T09:24:41.745Z</time>
      </trkpt>
      <trkpt lat="45.31394" lon="-0.95465">
        <ele>57.410449</ele>
        <time>2022-12-23T09:24:44.747Z</time>
      </trkpt>
      <trkpt lat="45.31383" lon="-0.95469">
        <ele>57.381447</ele>
        <time>2022-12-23T09:24:47.749Z</time>
      </trkpt>
      <trkpt lat="45.31373" lon="-0.95474">
        <ele>57.354572</ele>
        <time>2022-12-23T09:24:50.748Z</time>
      </trkpt>
      <trkpt lat="45.31364" lon="-0.9548">
        <ele>57.329017</ele>
        <time>2022-12-23T09:24:53.760Z</time>
      </trkpt>
      <trkpt lat="45.31354" lon="-0.95483">
        <ele>57.301403</ele>
        <time>2022-12-23T09:24:57.747Z</time>
      </trkpt>
      <trkpt lat="45.31343" lon="-0.95477">
        <ele>57.272017</ele>
        <time>2022-12-23T09:25:01.743Z</time>
      </trkpt>
      <trkpt lat="45.31336" lon="-0.95466">
        <ele>57.243524</ele>
        <time>2022-12-23T09:25:04.749Z</time>
      </trkpt>
      <trkpt lat="45.31327" lon="-0.95453">
        <ele>57.211973</ele>
        <time>2022-12-23T09:25:07.751Z</time>
      </trkpt>
      <trkpt lat="45.31318" lon="-0.95442">
        <ele>57.179969</ele>
        <time>2022-12-23T09:25:10.752Z</time>
      </trkpt>
      <trkpt lat="45.31308" lon="-0.95431">
        <ele>57.147239</ele>
        <time>2022-12-23T09:25:13.747Z</time>
      </trkpt>
      <trkpt lat="45.31298" lon="-0.95421">
        <ele>57.114198</ele>
        <time>2022-12-23T09:25:16.750Z</time>
      </trkpt>
      <trkpt lat="45.31288" lon="-0.95412">
        <ele>57.083828</ele>
        <time>2022-12-23T09:25:19.745Z</time>
      </trkpt>
      <trkpt lat="45.31277" lon="-0.95403">
        <ele>57.051651</ele>
        <time>2022-12-23T09:25:22.747Z</time>
      </trkpt>
      <trkpt lat="45.31266" lon="-0.95393">
        <ele>57.097874</ele>
        <time>2022-12-23T09:25:25.751Z</time>
      </trkpt>
      <trkpt lat="45.31255" lon="-0.95383">
        <ele>57.172414</ele>
        <time>2022-12-23T09:25:28.748Z</time>
      </trkpt>
      <trkpt lat="45.31244" lon="-0.95373">
        <ele>57.246981</ele>
        <time>2022-12-23T09:25:31.749Z</time>
      </trkpt>
      <trkpt lat="45.31232" lon="-0.95363">
        <ele>57.321998</ele>
        <time>2022-12-23T09:25:34.753Z</time>
      </trkpt>
      <trkpt lat="45.31224" lon="-0.95357">
        <ele>57.375598</ele>
        <time>2022-12-23T09:25:36.750Z</time>
      </trkpt>
      <trkpt lat="45.31216" lon="-0.9535">
        <ele>57.426897</ele>
        <time>2022-12-23T09:25:38.750Z</time>
      </trkpt>
      <trkpt lat="45.31205" lon="-0.9534">
        <ele>57.501859</ele>
        <time>2022-12-23T09:25:41.751Z</time>
      </trkpt>
      <trkpt lat="45.31195" lon="-0.95329">
        <ele>57.573537</ele>
        <time>2022-12-23T09:25:44.745Z</time>
      </trkpt>
      <trkpt lat="45.31184" lon="-0.9532">
        <ele>57.643389</ele>
        <time>2022-12-23T09:25:47.750Z</time>
      </trkpt>
      <trkpt lat="45.31174" lon="-0.9531">
        <ele>57.715776</ele>
        <time>2022-12-23T09:25:50.752Z</time>
      </trkpt>
      <trkpt lat="45.31163" lon="-0.953">
        <ele>57.789418</ele>
        <time>2022-12-23T09:25:53.752Z</time>
      </trkpt>
      <trkpt lat="45.31155" lon="-0.95293">
        <ele>57.840781</ele>
        <time>2022-12-23T09:25:55.744Z</time>
      </trkpt>
      <trkpt lat="45.31147" lon="-0.95286">
        <ele>57.892143</ele>
        <time>2022-12-23T09:25:57.750Z</time>
      </trkpt>
      <trkpt lat="45.31139" lon="-0.9528">
        <ele>57.943505</ele>
        <time>2022-12-23T09:25:59.744Z</time>
      </trkpt>
      <trkpt lat="45.31128" lon="-0.9527">
        <ele>58.018385</ele>
        <time>2022-12-23T09:26:02.738Z</time>
      </trkpt>
      <trkpt lat="45.31118" lon="-0.95261">
        <ele>58.054836</ele>
        <time>2022-12-23T09:26:05.747Z</time>
      </trkpt>
      <trkpt lat="45.31109" lon="-0.95252">
        <ele>58.049981</ele>
        <time>2022-12-23T09:26:08.745Z</time>
      </trkpt>
      <trkpt lat="45.311" lon="-0.95244">
        <ele>58.0449</ele>
        <time>2022-12-23T09:26:11.744Z</time>
      </trkpt>
      <trkpt lat="45.3109" lon="-0.95234">
        <ele>58.039469</ele>
        <time>2022-12-23T09:26:14.752Z</time>
      </trkpt>
      <trkpt lat="45.31079" lon="-0.95225">
        <ele>58.033752</ele>
        <time>2022-12-23T09:26:17.747Z</time>
      </trkpt>
      <trkpt lat="45.31068" lon="-0.95215">
        <ele>58.027946</ele>
        <time>2022-12-23T09:26:20.748Z</time>
      </trkpt>
      <trkpt lat="45.31057" lon="-0.95205">
        <ele>58.022046</ele>
        <time>2022-12-23T09:26:23.742Z</time>
      </trkpt>
      <trkpt lat="45.31046" lon="-0.95196">
        <ele>58.01629</ele>
        <time>2022-12-23T09:26:26.744Z</time>
      </trkpt>
      <trkpt lat="45.31036" lon="-0.95185">
        <ele>58.0104</ele>
        <time>2022-12-23T09:26:29.746Z</time>
      </trkpt>
      <trkpt lat="45.31028" lon="-0.95177">
        <ele>58.006008</ele>
        <time>2022-12-23T09:26:31.751Z</time>
      </trkpt>
      <trkpt lat="45.31021" lon="-0.95168">
        <ele>58.001643</ele>
        <time>2022-12-23T09:26:33.741Z</time>
      </trkpt>
      <trkpt lat="45.31013" lon="-0.95158">
        <ele>57.996914</ele>
        <time>2022-12-23T09:26:35.746Z</time>
      </trkpt>
      <trkpt lat="45.31006" lon="-0.95147">
        <ele>57.992243</ele>
        <time>2022-12-23T09:26:37.747Z</time>
      </trkpt>
      <trkpt lat="45.30999" lon="-0.95136">
        <ele>57.987494</ele>
        <time>2022-12-23T09:26:39.748Z</time>
      </trkpt>
      <trkpt lat="45.30993" lon="-0.95125">
        <ele>57.982831</ele>
        <time>2022-12-23T09:26:41.728Z</time>
      </trkpt>
      <trkpt lat="45.30986" lon="-0.95114">
        <ele>57.978242</ele>
        <time>2022-12-23T09:26:43.753Z</time>
      </trkpt>
      <trkpt lat="45.3098" lon="-0.95103">
        <ele>57.915682</ele>
        <time>2022-12-23T09:26:45.731Z</time>
      </trkpt>
      <trkpt lat="45.30973" lon="-0.95094">
        <ele>57.778386</ele>
        <time>2022-12-23T09:26:47.748Z</time>
      </trkpt>
      <trkpt lat="45.30967" lon="-0.95083">
        <ele>57.641601</ele>
        <time>2022-12-23T09:26:49.750Z</time>
      </trkpt>
      <trkpt lat="45.30961" lon="-0.95073">
        <ele>57.501609</ele>
        <time>2022-12-23T09:26:51.751Z</time>
      </trkpt>
      <trkpt lat="45.30952" lon="-0.95059">
        <ele>57.312135</ele>
        <time>2022-12-23T09:26:54.735Z</time>
      </trkpt>
      <trkpt lat="45.30944" lon="-0.95043">
        <ele>57.110413</ele>
        <time>2022-12-23T09:26:57.748Z</time>
      </trkpt>
      <trkpt lat="45.30937" lon="-0.95032">
        <ele>56.957206</ele>
        <time>2022-12-23T09:26:59.750Z</time>
      </trkpt>
      <trkpt lat="45.30931" lon="-0.9502">
        <ele>56.799745</ele>
        <time>2022-12-23T09:27:01.744Z</time>
      </trkpt>
      <trkpt lat="45.30924" lon="-0.95008">
        <ele>56.64012</ele>
        <time>2022-12-23T09:27:03.751Z</time>
      </trkpt>
      <trkpt lat="45.30918" lon="-0.94996">
        <ele>56.488979</ele>
        <time>2022-12-23T09:27:05.749Z</time>
      </trkpt>
      <trkpt lat="45.30911" lon="-0.94984">
        <ele>56.337907</ele>
        <time>2022-12-23T09:27:07.750Z</time>
      </trkpt>
      <trkpt lat="45.30905" lon="-0.94973">
        <ele>56.186836</ele>
        <time>2022-12-23T09:27:09.750Z</time>
      </trkpt>
      <trkpt lat="45.309" lon="-0.94961">
        <ele>56.037461</ele>
        <time>2022-12-23T09:27:11.746Z</time>
      </trkpt>
      <trkpt lat="45.30894" lon="-0.9495">
        <ele>55.897329</ele>
        <time>2022-12-23T09:27:13.751Z</time>
      </trkpt>
      <trkpt lat="45.30889" lon="-0.94939">
        <ele>55.76146</ele>
        <time>2022-12-23T09:27:15.736Z</time>
      </trkpt>
      <trkpt lat="45.30884" lon="-0.94927">
        <ele>55.621917</ele>
        <time>2022-12-23T09:27:17.741Z</time>
      </trkpt>
      <trkpt lat="45.3088" lon="-0.94916">
        <ele>55.486453</ele>
        <time>2022-12-23T09:27:19.752Z</time>
      </trkpt>
      <trkpt lat="45.30876" lon="-0.94904">
        <ele>55.353579</ele>
        <time>2022-12-23T09:27:21.734Z</time>
      </trkpt>
      <trkpt lat="45.30872" lon="-0.94886">
        <ele>55.177177</ele>
        <time>2022-12-23T09:27:24.751Z</time>
      </trkpt>
      <trkpt lat="45.3087" lon="-0.94874">
        <ele>55.052774</ele>
        <time>2022-12-23T09:27:26.752Z</time>
      </trkpt>
      <trkpt lat="45.30869" lon="-0.9486">
        <ele>54.920719</ele>
        <time>2022-12-23T09:27:28.752Z</time>
      </trkpt>
      <trkpt lat="45.30867" lon="-0.94846">
        <ele>54.785159</ele>
        <time>2022-12-23T09:27:30.729Z</time>
      </trkpt>
      <trkpt lat="45.30865" lon="-0.94833">
        <ele>54.653787</ele>
        <time>2022-12-23T09:27:32.750Z</time>
      </trkpt>
      <trkpt lat="45.30864" lon="-0.9482">
        <ele>54.522415</ele>
        <time>2022-12-23T09:27:34.747Z</time>
      </trkpt>
      <trkpt lat="45.30861" lon="-0.94807">
        <ele>54.393926</ele>
        <time>2022-12-23T09:27:36.750Z</time>
      </trkpt>
      <trkpt lat="45.3086" lon="-0.94793">
        <ele>54.26045</ele>
        <time>2022-12-23T09:27:38.747Z</time>
      </trkpt>
      <trkpt lat="45.30857" lon="-0.94775">
        <ele>54.07878</ele>
        <time>2022-12-23T09:27:41.745Z</time>
      </trkpt>
      <trkpt lat="45.30855" lon="-0.94762">
        <ele>53.94902</ele>
        <time>2022-12-23T09:27:43.751Z</time>
      </trkpt>
      <trkpt lat="45.30853" lon="-0.94748">
        <ele>53.816263</ele>
        <time>2022-12-23T09:27:45.745Z</time>
      </trkpt>
      <trkpt lat="45.30852" lon="-0.94735">
        <ele>53.684891</ele>
        <time>2022-12-23T09:27:47.753Z</time>
      </trkpt>
      <trkpt lat="45.3085" lon="-0.94722">
        <ele>53.558258</ele>
        <time>2022-12-23T09:27:49.738Z</time>
      </trkpt>
      <trkpt lat="45.30848" lon="-0.94709">
        <ele>53.429054</ele>
        <time>2022-12-23T09:27:51.745Z</time>
      </trkpt>
      <trkpt lat="45.30845" lon="-0.9469">
        <ele>53.243145</ele>
        <time>2022-12-23T09:27:54.744Z</time>
      </trkpt>
      <trkpt lat="45.30843" lon="-0.94672">
        <ele>53.066491</ele>
        <time>2022-12-23T09:27:57.737Z</time>
      </trkpt>
      <trkpt lat="45.30841" lon="-0.94653">
        <ele>52.879566</ele>
        <time>2022-12-23T09:28:00.741Z</time>
      </trkpt>
      <trkpt lat="45.30839" lon="-0.9464">
        <ele>52.981397</ele>
        <time>2022-12-23T09:28:02.736Z</time>
      </trkpt>
      <trkpt lat="45.30838" lon="-0.94627">
        <ele>53.124396</ele>
        <time>2022-12-23T09:28:04.751Z</time>
      </trkpt>
      <trkpt lat="45.30836" lon="-0.94613">
        <ele>53.27199</ele>
        <time>2022-12-23T09:28:06.731Z</time>
      </trkpt>
      <trkpt lat="45.30834" lon="-0.94599">
        <ele>53.41608</ele>
        <time>2022-12-23T09:28:08.752Z</time>
      </trkpt>
      <trkpt lat="45.30833" lon="-0.94584">
        <ele>53.567326</ele>
        <time>2022-12-23T09:28:10.745Z</time>
      </trkpt>
      <trkpt lat="45.30831" lon="-0.94571">
        <ele>53.713394</ele>
        <time>2022-12-23T09:28:12.748Z</time>
      </trkpt>
      <trkpt lat="45.30829" lon="-0.94557">
        <ele>53.861481</ele>
        <time>2022-12-23T09:28:14.740Z</time>
      </trkpt>
      <trkpt lat="45.30827" lon="-0.94543">
        <ele>54.009348</ele>
        <time>2022-12-23T09:28:16.750Z</time>
      </trkpt>
      <trkpt lat="45.30825" lon="-0.9453">
        <ele>54.146476</ele>
        <time>2022-12-23T09:28:18.751Z</time>
      </trkpt>
      <trkpt lat="45.30823" lon="-0.94513">
        <ele>54.325527</ele>
        <time>2022-12-23T09:28:21.732Z</time>
      </trkpt>
      <trkpt lat="45.3082" lon="-0.94498">
        <ele>54.482402</ele>
        <time>2022-12-23T09:28:24.751Z</time>
      </trkpt>
      <trkpt lat="45.30818" lon="-0.94481">
        <ele>54.664991</ele>
        <time>2022-12-23T09:28:27.749Z</time>
      </trkpt>
      <trkpt lat="45.30816" lon="-0.94462">
        <ele>54.859063</ele>
        <time>2022-12-23T09:28:30.740Z</time>
      </trkpt>
      <trkpt lat="45.30813" lon="-0.94444">
        <ele>55.056466</ele>
        <time>2022-12-23T09:28:33.747Z</time>
      </trkpt>
      <trkpt lat="45.30811" lon="-0.94431">
        <ele>55.193116</ele>
        <time>2022-12-23T09:28:35.750Z</time>
      </trkpt>
      <trkpt lat="45.30809" lon="-0.94418">
        <ele>55.332558</ele>
        <time>2022-12-23T09:28:37.764Z</time>
      </trkpt>
      <trkpt lat="45.30808" lon="-0.94403">
        <ele>55.48126</ele>
        <time>2022-12-23T09:28:39.762Z</time>
      </trkpt>
      <trkpt lat="45.30806" lon="-0.9439">
        <ele>55.717519</ele>
        <time>2022-12-23T09:28:41.747Z</time>
      </trkpt>
      <trkpt lat="45.30804" lon="-0.94377">
        <ele>55.968499</ele>
        <time>2022-12-23T09:28:43.749Z</time>
      </trkpt>
      <trkpt lat="45.308" lon="-0.9436">
        <ele>56.302358</ele>
        <time>2022-12-23T09:28:46.752Z</time>
      </trkpt>
      <trkpt lat="45.30797" lon="-0.94344">
        <ele>56.599634</ele>
        <time>2022-12-23T09:28:49.753Z</time>
      </trkpt>
      <trkpt lat="45.30794" lon="-0.94329">
        <ele>56.906139</ele>
        <time>2022-12-23T09:28:52.746Z</time>
      </trkpt>
      <trkpt lat="45.30791" lon="-0.94313">
        <ele>57.209922</ele>
        <time>2022-12-23T09:28:55.751Z</time>
      </trkpt>
      <trkpt lat="45.30787" lon="-0.94299">
        <ele>57.4881</ele>
        <time>2022-12-23T09:28:58.750Z</time>
      </trkpt>
      <trkpt lat="45.30784" lon="-0.94285">
        <ele>57.762813</ele>
        <time>2022-12-23T09:29:01.734Z</time>
      </trkpt>
      <trkpt lat="45.3078" lon="-0.94271">
        <ele>58.046153</ele>
        <time>2022-12-23T09:29:04.749Z</time>
      </trkpt>
      <trkpt lat="45.30777" lon="-0.94257">
        <ele>58.332159</ele>
        <time>2022-12-23T09:29:07.753Z</time>
      </trkpt>
      <trkpt lat="45.30774" lon="-0.94243">
        <ele>58.611513</ele>
        <time>2022-12-23T09:29:10.737Z</time>
      </trkpt>
      <trkpt lat="45.30771" lon="-0.94228">
        <ele>58.886524</ele>
        <time>2022-12-23T09:29:13.748Z</time>
      </trkpt>
      <trkpt lat="45.30768" lon="-0.94215">
        <ele>59.157649</ele>
        <time>2022-12-23T09:29:16.756Z</time>
      </trkpt>
      <trkpt lat="45.30765" lon="-0.94202">
        <ele>59.398533</ele>
        <time>2022-12-23T09:29:19.752Z</time>
      </trkpt>
      <trkpt lat="45.30763" lon="-0.9419">
        <ele>59.641061</ele>
        <time>2022-12-23T09:29:22.735Z</time>
      </trkpt>
      <trkpt lat="45.3076" lon="-0.94178">
        <ele>59.884715</ele>
        <time>2022-12-23T09:29:25.749Z</time>
      </trkpt>
      <trkpt lat="45.30757" lon="-0.94163">
        <ele>60.16662</ele>
        <time>2022-12-23T09:29:29.753Z</time>
      </trkpt>
      <trkpt lat="45.30752" lon="-0.9415">
        <ele>60.25657</ele>
        <time>2022-12-23T09:29:34.735Z</time>
      </trkpt>
      <trkpt lat="45.30751" lon="-0.94136">
        <ele>60.13723</ele>
        <time>2022-12-23T09:29:50.738Z</time>
      </trkpt>
      <trkpt lat="45.30758" lon="-0.94124">
        <ele>59.999844</ele>
        <time>2022-12-23T09:29:55.746Z</time>
      </trkpt>
      <trkpt lat="45.30766" lon="-0.94116">
        <ele>59.883042</ele>
        <time>2022-12-23T09:29:58.753Z</time>
      </trkpt>
      <trkpt lat="45.30775" lon="-0.9411">
        <ele>59.755115</ele>
        <time>2022-12-23T09:30:01.742Z</time>
      </trkpt>
      <trkpt lat="45.30785" lon="-0.94104">
        <ele>59.625997</ele>
        <time>2022-12-23T09:30:04.749Z</time>
      </trkpt>
      <trkpt lat="45.30796" lon="-0.941">
        <ele>59.485673</ele>
        <time>2022-12-23T09:30:07.747Z</time>
      </trkpt>
      <trkpt lat="45.30807" lon="-0.94094">
        <ele>59.346044</ele>
        <time>2022-12-23T09:30:10.749Z</time>
      </trkpt>
      <trkpt lat="45.30816" lon="-0.94087">
        <ele>59.210344</ele>
        <time>2022-12-23T09:30:13.753Z</time>
      </trkpt>
      <trkpt lat="45.30826" lon="-0.94078">
        <ele>59.068635</ele>
        <time>2022-12-23T09:30:16.735Z</time>
      </trkpt>
      <trkpt lat="45.30837" lon="-0.9407">
        <ele>58.918514</ele>
        <time>2022-12-23T09:30:19.750Z</time>
      </trkpt>
      <trkpt lat="45.30848" lon="-0.94063">
        <ele>58.779526</ele>
        <time>2022-12-23T09:30:22.728Z</time>
      </trkpt>
      <trkpt lat="45.30856" lon="-0.94057">
        <ele>58.658164</ele>
        <time>2022-12-23T09:30:26.753Z</time>
      </trkpt>
      <trkpt lat="45.30864" lon="-0.9405">
        <ele>58.545145</ele>
        <time>2022-12-23T09:30:30.750Z</time>
      </trkpt>
      <trkpt lat="45.30873" lon="-0.94045">
        <ele>58.433698</ele>
        <time>2022-12-23T09:30:33.752Z</time>
      </trkpt>
      <trkpt lat="45.30882" lon="-0.94038">
        <ele>58.308804</ele>
        <time>2022-12-23T09:30:36.755Z</time>
      </trkpt>
      <trkpt lat="45.30891" lon="-0.94031">
        <ele>58.181508</ele>
        <time>2022-12-23T09:30:39.743Z</time>
      </trkpt>
      <trkpt lat="45.309" lon="-0.94024">
        <ele>58.104147</ele>
        <time>2022-12-23T09:30:42.749Z</time>
      </trkpt>
      <trkpt lat="45.3091" lon="-0.94016">
        <ele>58.082649</ele>
        <time>2022-12-23T09:30:45.750Z</time>
      </trkpt>
      <trkpt lat="45.3092" lon="-0.94008">
        <ele>58.060383</ele>
        <time>2022-12-23T09:30:48.732Z</time>
      </trkpt>
      <trkpt lat="45.30931" lon="-0.94">
        <ele>58.038128</ele>
        <time>2022-12-23T09:30:51.750Z</time>
      </trkpt>
      <trkpt lat="45.30942" lon="-0.93992">
        <ele>58.014229</ele>
        <time>2022-12-23T09:30:54.751Z</time>
      </trkpt>
      <trkpt lat="45.30953" lon="-0.93985">
        <ele>57.991808</ele>
        <time>2022-12-23T09:30:57.763Z</time>
      </trkpt>
      <trkpt lat="45.30963" lon="-0.93978">
        <ele>57.97046</ele>
        <time>2022-12-23T09:31:00.750Z</time>
      </trkpt>
      <trkpt lat="45.30974" lon="-0.9397">
        <ele>57.947379</ele>
        <time>2022-12-23T09:31:03.751Z</time>
      </trkpt>
      <trkpt lat="45.30984" lon="-0.93962">
        <ele>57.925465</ele>
        <time>2022-12-23T09:31:06.749Z</time>
      </trkpt>
      <trkpt lat="45.30994" lon="-0.93956">
        <ele>57.904931</ele>
        <time>2022-12-23T09:31:09.750Z</time>
      </trkpt>
      <trkpt lat="45.31002" lon="-0.93949">
        <ele>57.887114</ele>
        <time>2022-12-23T09:31:13.751Z</time>
      </trkpt>
      <trkpt lat="45.3101" lon="-0.93943">
        <ele>57.869926</ele>
        <time>2022-12-23T09:31:16.751Z</time>
      </trkpt>
      <trkpt lat="45.31018" lon="-0.93934">
        <ele>57.850943</ele>
        <time>2022-12-23T09:31:19.751Z</time>
      </trkpt>
      <trkpt lat="45.31027" lon="-0.93926">
        <ele>57.830954</ele>
        <time>2022-12-23T09:31:23.753Z</time>
      </trkpt>
      <trkpt lat="45.31036" lon="-0.93928">
        <ele>57.813743</ele>
        <time>2022-12-23T09:31:39.730Z</time>
      </trkpt>
      <trkpt lat="45.31041" lon="-0.93939">
        <ele>57.795223</ele>
        <time>2022-12-23T09:31:43.735Z</time>
      </trkpt>
      <trkpt lat="45.31047" lon="-0.93951">
        <ele>57.776352</ele>
        <time>2022-12-23T09:31:47.751Z</time>
      </trkpt>
      <trkpt lat="45.31052" lon="-0.93962">
        <ele>57.559036</ele>
        <time>2022-12-23T09:31:51.742Z</time>
      </trkpt>
      <trkpt lat="45.31062" lon="-0.93963">
        <ele>57.274628</ele>
        <time>2022-12-23T09:31:58.749Z</time>
      </trkpt>
      <trkpt lat="45.31071" lon="-0.9396">
        <ele>57.026072</ele>
        <time>2022-12-23T09:32:02.760Z</time>
      </trkpt>
      <trkpt lat="45.31079" lon="-0.93966">
        <ele>56.76957</ele>
        <time>2022-12-23T09:32:07.753Z</time>
      </trkpt>
      <trkpt lat="45.31085" lon="-0.9398">
        <ele>56.460223</ele>
        <time>2022-12-23T09:32:12.809Z</time>
      </trkpt>
      <trkpt lat="45.3109" lon="-0.93993">
        <ele>56.169815</ele>
        <time>2022-12-23T09:32:16.759Z</time>
      </trkpt>
      <trkpt lat="45.31095" lon="-0.94005">
        <ele>55.892194</ele>
        <time>2022-12-23T09:32:20.753Z</time>
      </trkpt>
      <trkpt lat="45.3109" lon="-0.94017">
        <ele>55.612919</ele>
        <time>2022-12-23T09:32:26.756Z</time>
      </trkpt>
      <trkpt lat="45.31081" lon="-0.94015">
        <ele>55.361348</ele>
        <time>2022-12-23T09:32:30.751Z</time>
      </trkpt>
      <trkpt lat="45.31075" lon="-0.94003">
        <ele>55.075685</ele>
        <time>2022-12-23T09:32:35.789Z</time>
      </trkpt>
      <trkpt lat="45.31069" lon="-0.93991">
        <ele>54.79514</ele>
        <time>2022-12-23T09:32:40.746Z</time>
      </trkpt>
      <trkpt lat="45.31065" lon="-0.93982">
        <ele>54.588691</ele>
        <time>2022-12-23T09:33:38.631Z</time>
      </trkpt>
      <trkpt lat="45.31055" lon="-0.93981">
        <ele>54.316221</ele>
        <time>2022-12-23T10:34:06.742Z</time>
      </trkpt>
      <trkpt lat="45.3105" lon="-0.93969">
        <ele>54.055176</ele>
        <time>2022-12-23T10:34:12.739Z</time>
      </trkpt>
      <trkpt lat="45.31045" lon="-0.93957">
        <ele>53.788018</ele>
        <time>2022-12-23T10:34:17.744Z</time>
      </trkpt>
      <trkpt lat="45.3104" lon="-0.93945">
        <ele>53.5071</ele>
        <time>2022-12-23T10:34:22.764Z</time>
      </trkpt>
      <trkpt lat="45.31035" lon="-0.93933">
        <ele>53.244677</ele>
        <time>2022-12-23T10:34:27.746Z</time>
      </trkpt>
      <trkpt lat="45.31026" lon="-0.93938">
        <ele>52.972123</ele>
        <time>2022-12-23T10:34:32.738Z</time>
      </trkpt>
      <trkpt lat="45.31016" lon="-0.93946">
        <ele>52.845099</ele>
        <time>2022-12-23T10:34:36.744Z</time>
      </trkpt>
      <trkpt lat="45.31007" lon="-0.93951">
        <ele>52.890165</ele>
        <time>2022-12-23T10:34:39.733Z</time>
      </trkpt>
      <trkpt lat="45.30999" lon="-0.93958">
        <ele>52.936147</ele>
        <time>2022-12-23T10:34:42.738Z</time>
      </trkpt>
      <trkpt lat="45.3099" lon="-0.93964">
        <ele>52.981787</ele>
        <time>2022-12-23T10:34:45.737Z</time>
      </trkpt>
      <trkpt lat="45.30982" lon="-0.9397">
        <ele>53.027302</ele>
        <time>2022-12-23T10:34:48.749Z</time>
      </trkpt>
      <trkpt lat="45.30973" lon="-0.93976">
        <ele>53.071939</ele>
        <time>2022-12-23T10:34:51.755Z</time>
      </trkpt>
      <trkpt lat="45.30965" lon="-0.93982">
        <ele>53.116284</ele>
        <time>2022-12-23T10:34:54.727Z</time>
      </trkpt>
      <trkpt lat="45.30957" lon="-0.93988">
        <ele>53.159221</ele>
        <time>2022-12-23T10:34:57.732Z</time>
      </trkpt>
      <trkpt lat="45.30949" lon="-0.93994">
        <ele>53.202891</ele>
        <time>2022-12-23T10:35:00.737Z</time>
      </trkpt>
      <trkpt lat="45.3094" lon="-0.93999">
        <ele>53.250439</ele>
        <time>2022-12-23T10:35:03.742Z</time>
      </trkpt>
      <trkpt lat="45.30931" lon="-0.94006">
        <ele>53.299236</ele>
        <time>2022-12-23T10:35:06.757Z</time>
      </trkpt>
      <trkpt lat="45.30922" lon="-0.94013">
        <ele>53.347442</ele>
        <time>2022-12-23T10:35:09.732Z</time>
      </trkpt>
      <trkpt lat="45.30914" lon="-0.9402">
        <ele>53.392429</ele>
        <time>2022-12-23T10:35:12.738Z</time>
      </trkpt>
      <trkpt lat="45.30905" lon="-0.94026">
        <ele>53.437902</ele>
        <time>2022-12-23T10:35:15.750Z</time>
      </trkpt>
      <trkpt lat="45.30897" lon="-0.94033">
        <ele>53.481635</ele>
        <time>2022-12-23T10:35:18.753Z</time>
      </trkpt>
      <trkpt lat="45.30888" lon="-0.9404">
        <ele>53.532768</ele>
        <time>2022-12-23T10:35:21.748Z</time>
      </trkpt>
      <trkpt lat="45.30878" lon="-0.94047">
        <ele>53.583798</ele>
        <time>2022-12-23T10:35:24.757Z</time>
      </trkpt>
      <trkpt lat="45.30869" lon="-0.94054">
        <ele>53.632776</ele>
        <time>2022-12-23T10:35:27.756Z</time>
      </trkpt>
      <trkpt lat="45.30861" lon="-0.94061">
        <ele>53.673922</ele>
        <time>2022-12-23T10:35:30.748Z</time>
      </trkpt>
      <trkpt lat="45.30852" lon="-0.94068">
        <ele>53.662698</ele>
        <time>2022-12-23T10:35:33.761Z</time>
      </trkpt>
      <trkpt lat="45.30842" lon="-0.94075">
        <ele>53.650561</ele>
        <time>2022-12-23T10:35:36.743Z</time>
      </trkpt>
      <trkpt lat="45.30831" lon="-0.94083">
        <ele>53.637732</ele>
        <time>2022-12-23T10:35:39.736Z</time>
      </trkpt>
      <trkpt lat="45.3082" lon="-0.9409">
        <ele>53.624544</ele>
        <time>2022-12-23T10:35:42.753Z</time>
      </trkpt>
      <trkpt lat="45.3081" lon="-0.94098">
        <ele>53.61159</ele>
        <time>2022-12-23T10:35:45.749Z</time>
      </trkpt>
      <trkpt lat="45.30799" lon="-0.94104">
        <ele>53.599384</ele>
        <time>2022-12-23T10:35:48.756Z</time>
      </trkpt>
      <trkpt lat="45.30789" lon="-0.94111">
        <ele>53.587339</ele>
        <time>2022-12-23T10:35:51.739Z</time>
      </trkpt>
      <trkpt lat="45.30779" lon="-0.94116">
        <ele>53.575879</ele>
        <time>2022-12-23T10:35:54.742Z</time>
      </trkpt>
      <trkpt lat="45.3077" lon="-0.9412">
        <ele>53.565441</ele>
        <time>2022-12-23T10:35:57.753Z</time>
      </trkpt>
      <trkpt lat="45.30762" lon="-0.94125">
        <ele>53.555582</ele>
        <time>2022-12-23T10:36:00.751Z</time>
      </trkpt>
      <trkpt lat="45.30754" lon="-0.94133">
        <ele>53.545667</ele>
        <time>2022-12-23T10:36:03.734Z</time>
      </trkpt>
      <trkpt lat="45.30748" lon="-0.94144">
        <ele>53.534951</ele>
        <time>2022-12-23T10:36:06.735Z</time>
      </trkpt>
      <trkpt lat="45.30741" lon="-0.94155">
        <ele>53.523345</ele>
        <time>2022-12-23T10:36:09.729Z</time>
      </trkpt>
      <trkpt lat="45.30734" lon="-0.94165">
        <ele>53.51257</ele>
        <time>2022-12-23T10:36:12.750Z</time>
      </trkpt>
      <trkpt lat="45.30727" lon="-0.94174">
        <ele>53.502322</ele>
        <time>2022-12-23T10:36:15.753Z</time>
      </trkpt>
      <trkpt lat="45.30719" lon="-0.94183">
        <ele>53.491185</ele>
        <time>2022-12-23T10:36:18.756Z</time>
      </trkpt>
      <trkpt lat="45.3071" lon="-0.94193">
        <ele>53.47895</ele>
        <time>2022-12-23T10:36:21.763Z</time>
      </trkpt>
      <trkpt lat="45.30701" lon="-0.94203">
        <ele>53.456652</ele>
        <time>2022-12-23T10:36:24.749Z</time>
      </trkpt>
      <trkpt lat="45.30692" lon="-0.94214">
        <ele>53.433889</ele>
        <time>2022-12-23T10:36:27.743Z</time>
      </trkpt>
      <trkpt lat="45.30683" lon="-0.94224">
        <ele>53.411781</ele>
        <time>2022-12-23T10:36:30.742Z</time>
      </trkpt>
      <trkpt lat="45.30674" lon="-0.94234">
        <ele>53.390773</ele>
        <time>2022-12-23T10:36:33.754Z</time>
      </trkpt>
      <trkpt lat="45.30666" lon="-0.94244">
        <ele>53.369911</ele>
        <time>2022-12-23T10:36:36.754Z</time>
      </trkpt>
      <trkpt lat="45.30658" lon="-0.94253">
        <ele>53.350813</ele>
        <time>2022-12-23T10:36:39.739Z</time>
      </trkpt>
      <trkpt lat="45.30649" lon="-0.94262">
        <ele>53.329938</ele>
        <time>2022-12-23T10:36:42.759Z</time>
      </trkpt>
      <trkpt lat="45.3064" lon="-0.94272">
        <ele>53.308022</ele>
        <time>2022-12-23T10:36:45.739Z</time>
      </trkpt>
      <trkpt lat="45.30631" lon="-0.94283">
        <ele>53.285941</ele>
        <time>2022-12-23T10:36:48.743Z</time>
      </trkpt>
      <trkpt lat="45.30623" lon="-0.94294">
        <ele>53.263772</ele>
        <time>2022-12-23T10:36:51.747Z</time>
      </trkpt>
      <trkpt lat="45.30614" lon="-0.94304">
        <ele>53.242868</ele>
        <time>2022-12-23T10:36:54.748Z</time>
      </trkpt>
      <trkpt lat="45.30607" lon="-0.94313">
        <ele>53.223883</ele>
        <time>2022-12-23T10:36:57.752Z</time>
      </trkpt>
      <trkpt lat="45.30599" lon="-0.94322">
        <ele>53.20429</ele>
        <time>2022-12-23T10:37:00.749Z</time>
      </trkpt>
      <trkpt lat="45.3059" lon="-0.94331">
        <ele>53.184807</ele>
        <time>2022-12-23T10:37:03.748Z</time>
      </trkpt>
      <trkpt lat="45.30582" lon="-0.9434">
        <ele>53.165329</ele>
        <time>2022-12-23T10:37:06.750Z</time>
      </trkpt>
      <trkpt lat="45.30574" lon="-0.94348">
        <ele>53.146231</ele>
        <time>2022-12-23T10:37:09.757Z</time>
      </trkpt>
      <trkpt lat="45.30566" lon="-0.94357">
        <ele>53.059832</ele>
        <time>2022-12-23T10:37:12.755Z</time>
      </trkpt>
      <trkpt lat="45.30558" lon="-0.94368">
        <ele>52.916505</ele>
        <time>2022-12-23T10:37:15.731Z</time>
      </trkpt>
      <trkpt lat="45.3055" lon="-0.94379">
        <ele>52.766972</ele>
        <time>2022-12-23T10:37:18.754Z</time>
      </trkpt>
      <trkpt lat="45.30542" lon="-0.9439">
        <ele>52.612121</ele>
        <time>2022-12-23T10:37:21.756Z</time>
      </trkpt>
      <trkpt lat="45.30533" lon="-0.944">
        <ele>52.457692</ele>
        <time>2022-12-23T10:37:24.755Z</time>
      </trkpt>
      <trkpt lat="45.30524" lon="-0.9441">
        <ele>52.302222</ele>
        <time>2022-12-23T10:37:27.754Z</time>
      </trkpt>
      <trkpt lat="45.30515" lon="-0.94421">
        <ele>52.142415</ele>
        <time>2022-12-23T10:37:30.755Z</time>
      </trkpt>
      <trkpt lat="45.30506" lon="-0.94432">
        <ele>51.981111</ele>
        <time>2022-12-23T10:37:33.754Z</time>
      </trkpt>
      <trkpt lat="45.30498" lon="-0.94443">
        <ele>51.828907</ele>
        <time>2022-12-23T10:37:36.750Z</time>
      </trkpt>
      <trkpt lat="45.3049" lon="-0.94453">
        <ele>51.68804</ele>
        <time>2022-12-23T10:37:39.752Z</time>
      </trkpt>
      <trkpt lat="45.30483" lon="-0.94461">
        <ele>51.562778</ele>
        <time>2022-12-23T10:37:42.753Z</time>
      </trkpt>
      <trkpt lat="45.30476" lon="-0.94471">
        <ele>51.433155</ele>
        <time>2022-12-23T10:37:45.750Z</time>
      </trkpt>
      <trkpt lat="45.30468" lon="-0.94481">
        <ele>51.293306</ele>
        <time>2022-12-23T10:37:48.755Z</time>
      </trkpt>
      <trkpt lat="45.3046" lon="-0.94491">
        <ele>51.146485</ele>
        <time>2022-12-23T10:37:51.751Z</time>
      </trkpt>
      <trkpt lat="45.30451" lon="-0.945">
        <ele>51.000444</ele>
        <time>2022-12-23T10:37:54.754Z</time>
      </trkpt>
      <trkpt lat="45.30443" lon="-0.94508">
        <ele>50.8668</ele>
        <time>2022-12-23T10:37:57.749Z</time>
      </trkpt>
      <trkpt lat="45.30434" lon="-0.94511">
        <ele>50.741345</ele>
        <time>2022-12-23T10:38:00.734Z</time>
      </trkpt>
      <trkpt lat="45.30425" lon="-0.94505">
        <ele>50.663429</ele>
        <time>2022-12-23T10:38:03.735Z</time>
      </trkpt>
      <trkpt lat="45.30419" lon="-0.94495">
        <ele>50.601805</ele>
        <time>2022-12-23T10:38:06.737Z</time>
      </trkpt>
      <trkpt lat="45.30413" lon="-0.94484">
        <ele>50.539841</ele>
        <time>2022-12-23T10:38:09.736Z</time>
      </trkpt>
      <trkpt lat="45.30406" lon="-0.94471">
        <ele>50.468204</ele>
        <time>2022-12-23T10:38:12.755Z</time>
      </trkpt>
      <trkpt lat="45.304" lon="-0.9446">
        <ele>50.405738</ele>
        <time>2022-12-23T10:38:15.756Z</time>
      </trkpt>
      <trkpt lat="45.30394" lon="-0.94448">
        <ele>50.338049</ele>
        <time>2022-12-23T10:38:19.754Z</time>
      </trkpt>
      <trkpt lat="45.30386" lon="-0.94438">
        <ele>50.271305</ele>
        <time>2022-12-23T10:38:23.756Z</time>
      </trkpt>
      <trkpt lat="45.30375" lon="-0.94441">
        <ele>50.203419</ele>
        <time>2022-12-23T10:38:27.731Z</time>
      </trkpt>
      <trkpt lat="45.3037" lon="-0.94452">
        <ele>50.142076</ele>
        <time>2022-12-23T10:38:30.731Z</time>
      </trkpt>
      <trkpt lat="45.30364" lon="-0.94465">
        <ele>50.075447</ele>
        <time>2022-12-23T10:38:33.751Z</time>
      </trkpt>
      <trkpt lat="45.30359" lon="-0.94478">
        <ele>50.007661</ele>
        <time>2022-12-23T10:38:36.751Z</time>
      </trkpt>
      <trkpt lat="45.30352" lon="-0.9449">
        <ele>49.934823</ele>
        <time>2022-12-23T10:38:40.733Z</time>
      </trkpt>
      <trkpt lat="45.30342" lon="-0.94489">
        <ele>49.875849</ele>
        <time>2022-12-23T10:38:43.733Z</time>
      </trkpt>
      <trkpt lat="45.30334" lon="-0.94481">
        <ele>49.812112</ele>
        <time>2022-12-23T10:38:46.741Z</time>
      </trkpt>
      <trkpt lat="45.30327" lon="-0.94471">
        <ele>49.74725</ele>
        <time>2022-12-23T10:38:49.727Z</time>
      </trkpt>
      <trkpt lat="45.30321" lon="-0.9446">
        <ele>49.684311</ele>
        <time>2022-12-23T10:38:52.753Z</time>
      </trkpt>
      <trkpt lat="45.30315" lon="-0.9445">
        <ele>49.624321</ele>
        <time>2022-12-23T10:38:55.756Z</time>
      </trkpt>
      <trkpt lat="45.30309" lon="-0.94439">
        <ele>49.563278</ele>
        <time>2022-12-23T10:38:58.752Z</time>
      </trkpt>
      <trkpt lat="45.30303" lon="-0.94428">
        <ele>49.489974</ele>
        <time>2022-12-23T10:39:01.753Z</time>
      </trkpt>
      <trkpt lat="45.30297" lon="-0.94417">
        <ele>49.418124</ele>
        <time>2022-12-23T10:39:04.755Z</time>
      </trkpt>
      <trkpt lat="45.30294" lon="-0.94403">
        <ele>49.341689</ele>
        <time>2022-12-23T10:39:07.735Z</time>
      </trkpt>
      <trkpt lat="45.3029" lon="-0.94388">
        <ele>49.261266</ele>
        <time>2022-12-23T10:39:10.731Z</time>
      </trkpt>
      <trkpt lat="45.30287" lon="-0.94373">
        <ele>49.179344</ele>
        <time>2022-12-23T10:39:13.740Z</time>
      </trkpt>
      <trkpt lat="45.30284" lon="-0.94359">
        <ele>49.100138</ele>
        <time>2022-12-23T10:39:16.751Z</time>
      </trkpt>
      <trkpt lat="45.30281" lon="-0.94346">
        <ele>49.028581</ele>
        <time>2022-12-23T10:39:19.754Z</time>
      </trkpt>
      <trkpt lat="45.30279" lon="-0.94331">
        <ele>48.948648</ele>
        <time>2022-12-23T10:39:23.752Z</time>
      </trkpt>
      <trkpt lat="45.30275" lon="-0.94319">
        <ele>48.877457</ele>
        <time>2022-12-23T10:39:27.743Z</time>
      </trkpt>
      <trkpt lat="45.30265" lon="-0.94316">
        <ele>48.802553</ele>
        <time>2022-12-23T10:39:31.734Z</time>
      </trkpt>
      <trkpt lat="45.30254" lon="-0.94322">
        <ele>48.716202</ele>
        <time>2022-12-23T10:39:35.742Z</time>
      </trkpt>
      <trkpt lat="45.30243" lon="-0.9432">
        <ele>48.63138</ele>
        <time>2022-12-23T10:39:39.734Z</time>
      </trkpt>
      <trkpt lat="45.30234" lon="-0.94311">
        <ele>48.553528</ele>
        <time>2022-12-23T10:39:43.731Z</time>
      </trkpt>
      <trkpt lat="45.30228" lon="-0.94298">
        <ele>48.470596</ele>
        <time>2022-12-23T10:39:47.741Z</time>
      </trkpt>
      <trkpt lat="45.30222" lon="-0.94287">
        <ele>48.399627</ele>
        <time>2022-12-23T10:39:50.752Z</time>
      </trkpt>
      <trkpt lat="45.30216" lon="-0.94276">
        <ele>48.32481</ele>
        <time>2022-12-23T10:39:53.751Z</time>
      </trkpt>
      <trkpt lat="45.3021" lon="-0.94264">
        <ele>48.248577</ele>
        <time>2022-12-23T10:39:56.756Z</time>
      </trkpt>
      <trkpt lat="45.30203" lon="-0.94253">
        <ele>48.323843</ele>
        <time>2022-12-23T10:39:59.753Z</time>
      </trkpt>
      <trkpt lat="45.30197" lon="-0.94241">
        <ele>48.470567</ele>
        <time>2022-12-23T10:40:02.760Z</time>
      </trkpt>
      <trkpt lat="45.30189" lon="-0.94229">
        <ele>48.622375</ele>
        <time>2022-12-23T10:40:05.753Z</time>
      </trkpt>
      <trkpt lat="45.30182" lon="-0.94217">
        <ele>48.773919</ele>
        <time>2022-12-23T10:40:08.754Z</time>
      </trkpt>
      <trkpt lat="45.30175" lon="-0.94205">
        <ele>48.926068</ele>
        <time>2022-12-23T10:40:11.754Z</time>
      </trkpt>
      <trkpt lat="45.30168" lon="-0.94193">
        <ele>49.075451</ele>
        <time>2022-12-23T10:40:14.754Z</time>
      </trkpt>
      <trkpt lat="45.30161" lon="-0.94181">
        <ele>49.224535</ele>
        <time>2022-12-23T10:40:17.754Z</time>
      </trkpt>
      <trkpt lat="45.30154" lon="-0.94169">
        <ele>49.370545</ele>
        <time>2022-12-23T10:40:20.754Z</time>
      </trkpt>
      <trkpt lat="45.30148" lon="-0.94157">
        <ele>49.513012</ele>
        <time>2022-12-23T10:40:23.731Z</time>
      </trkpt>
      <trkpt lat="45.30141" lon="-0.94146">
        <ele>49.65709</ele>
        <time>2022-12-23T10:40:26.745Z</time>
      </trkpt>
      <trkpt lat="45.30135" lon="-0.94135">
        <ele>49.796124</ele>
        <time>2022-12-23T10:40:29.751Z</time>
      </trkpt>
      <trkpt lat="45.30127" lon="-0.94122">
        <ele>49.959109</ele>
        <time>2022-12-23T10:40:33.753Z</time>
      </trkpt>
      <trkpt lat="45.30121" lon="-0.94111">
        <ele>50.0879</ele>
        <time>2022-12-23T10:40:36.753Z</time>
      </trkpt>
      <trkpt lat="45.30116" lon="-0.94101">
        <ele>50.211063</ele>
        <time>2022-12-23T10:40:39.755Z</time>
      </trkpt>
      <trkpt lat="45.30111" lon="-0.94086">
        <ele>50.364471</ele>
        <time>2022-12-23T10:40:43.729Z</time>
      </trkpt>
      <trkpt lat="45.30105" lon="-0.94075">
        <ele>50.502857</ele>
        <time>2022-12-23T10:40:48.753Z</time>
      </trkpt>
      <trkpt lat="45.30096" lon="-0.94071">
        <ele>50.626946</ele>
        <time>2022-12-23T10:40:53.746Z</time>
      </trkpt>
      <trkpt lat="45.30087" lon="-0.94078">
        <ele>50.750772</ele>
        <time>2022-12-23T10:40:58.751Z</time>
      </trkpt>
      <trkpt lat="45.30078" lon="-0.94086">
        <ele>50.867568</ele>
        <time>2022-12-23T10:41:02.750Z</time>
      </trkpt>
      <trkpt lat="45.3007" lon="-0.94093">
        <ele>50.975436</ele>
        <time>2022-12-23T10:41:05.757Z</time>
      </trkpt>
      <trkpt lat="45.30061" lon="-0.94102">
        <ele>51.098864</ele>
        <time>2022-12-23T10:41:08.738Z</time>
      </trkpt>
      <trkpt lat="45.30051" lon="-0.94111">
        <ele>51.230227</ele>
        <time>2022-12-23T10:41:11.750Z</time>
      </trkpt>
      <trkpt lat="45.30042" lon="-0.94121">
        <ele>51.362369</ele>
        <time>2022-12-23T10:41:14.752Z</time>
      </trkpt>
      <trkpt lat="45.30032" lon="-0.94131">
        <ele>51.496764</ele>
        <time>2022-12-23T10:41:17.745Z</time>
      </trkpt>
      <trkpt lat="45.30022" lon="-0.94141">
        <ele>51.633883</ele>
        <time>2022-12-23T10:41:20.762Z</time>
      </trkpt>
      <trkpt lat="45.30012" lon="-0.94152">
        <ele>51.767563</ele>
        <time>2022-12-23T10:41:23.737Z</time>
      </trkpt>
      <trkpt lat="45.30003" lon="-0.94162">
        <ele>51.902735</ele>
        <time>2022-12-23T10:41:26.755Z</time>
      </trkpt>
      <trkpt lat="45.29994" lon="-0.94173">
        <ele>52.033454</ele>
        <time>2022-12-23T10:41:29.756Z</time>
      </trkpt>
      <trkpt lat="45.29986" lon="-0.94184">
        <ele>52.162142</ele>
        <time>2022-12-23T10:41:32.752Z</time>
      </trkpt>
      <trkpt lat="45.29977" lon="-0.94195">
        <ele>52.292117</ele>
        <time>2022-12-23T10:41:35.742Z</time>
      </trkpt>
      <trkpt lat="45.29968" lon="-0.94205">
        <ele>52.420323</ele>
        <time>2022-12-23T10:41:38.737Z</time>
      </trkpt>
      <trkpt lat="45.2996" lon="-0.94217">
        <ele>52.553275</ele>
        <time>2022-12-23T10:41:41.747Z</time>
      </trkpt>
      <trkpt lat="45.29951" lon="-0.94229">
        <ele>52.688686</ele>
        <time>2022-12-23T10:41:44.740Z</time>
      </trkpt>
      <trkpt lat="45.29942" lon="-0.9424">
        <ele>52.663154</ele>
        <time>2022-12-23T10:41:47.753Z</time>
      </trkpt>
      <trkpt lat="45.29932" lon="-0.94252">
        <ele>52.629895</ele>
        <time>2022-12-23T10:41:50.725Z</time>
      </trkpt>
      <trkpt lat="45.29923" lon="-0.94263">
        <ele>52.597707</ele>
        <time>2022-12-23T10:41:53.749Z</time>
      </trkpt>
      <trkpt lat="45.29913" lon="-0.94274">
        <ele>52.564448</ele>
        <time>2022-12-23T10:41:56.733Z</time>
      </trkpt>
      <trkpt lat="45.29904" lon="-0.94287">
        <ele>52.530841</ele>
        <time>2022-12-23T10:41:59.751Z</time>
      </trkpt>
      <trkpt lat="45.29894" lon="-0.94298">
        <ele>52.497783</ele>
        <time>2022-12-23T10:42:02.731Z</time>
      </trkpt>
      <trkpt lat="45.29885" lon="-0.9431">
        <ele>52.46371</ele>
        <time>2022-12-23T10:42:05.750Z</time>
      </trkpt>
      <trkpt lat="45.29875" lon="-0.94322">
        <ele>52.429037</ele>
        <time>2022-12-23T10:42:08.754Z</time>
      </trkpt>
      <trkpt lat="45.29865" lon="-0.94335">
        <ele>52.394726</ele>
        <time>2022-12-23T10:42:11.750Z</time>
      </trkpt>
      <trkpt lat="45.29855" lon="-0.94347">
        <ele>52.359406</ele>
        <time>2022-12-23T10:42:14.755Z</time>
      </trkpt>
      <trkpt lat="45.29849" lon="-0.94356">
        <ele>52.334732</ele>
        <time>2022-12-23T10:42:16.757Z</time>
      </trkpt>
      <trkpt lat="45.29842" lon="-0.94365">
        <ele>52.309791</ele>
        <time>2022-12-23T10:42:18.753Z</time>
      </trkpt>
      <trkpt lat="45.29835" lon="-0.94373">
        <ele>52.285787</ele>
        <time>2022-12-23T10:42:20.757Z</time>
      </trkpt>
      <trkpt lat="45.29828" lon="-0.94382">
        <ele>52.261491</ele>
        <time>2022-12-23T10:42:22.754Z</time>
      </trkpt>
      <trkpt lat="45.29821" lon="-0.94391">
        <ele>52.237265</ele>
        <time>2022-12-23T10:42:24.729Z</time>
      </trkpt>
      <trkpt lat="45.29814" lon="-0.944">
        <ele>52.224346</ele>
        <time>2022-12-23T10:42:26.737Z</time>
      </trkpt>
      <trkpt lat="45.29804" lon="-0.94413">
        <ele>52.276276</ele>
        <time>2022-12-23T10:42:29.762Z</time>
      </trkpt>
      <trkpt lat="45.29797" lon="-0.94422">
        <ele>52.314041</ele>
        <time>2022-12-23T10:42:31.741Z</time>
      </trkpt>
      <trkpt lat="45.29791" lon="-0.94431">
        <ele>52.349626</ele>
        <time>2022-12-23T10:42:33.746Z</time>
      </trkpt>
      <trkpt lat="45.29784" lon="-0.9444">
        <ele>52.386809</ele>
        <time>2022-12-23T10:42:35.751Z</time>
      </trkpt>
      <trkpt lat="45.29777" lon="-0.94449">
        <ele>52.423061</ele>
        <time>2022-12-23T10:42:37.752Z</time>
      </trkpt>
      <trkpt lat="45.29767" lon="-0.94461">
        <ele>52.47331</ele>
        <time>2022-12-23T10:42:40.743Z</time>
      </trkpt>
      <trkpt lat="45.29758" lon="-0.94473">
        <ele>52.522492</ele>
        <time>2022-12-23T10:42:43.760Z</time>
      </trkpt>
      <trkpt lat="45.29749" lon="-0.94484">
        <ele>52.571015</ele>
        <time>2022-12-23T10:42:46.755Z</time>
      </trkpt>
      <trkpt lat="45.29739" lon="-0.94497">
        <ele>52.62121</ele>
        <time>2022-12-23T10:42:49.742Z</time>
      </trkpt>
      <trkpt lat="45.2973" lon="-0.94509">
        <ele>52.670456</ele>
        <time>2022-12-23T10:42:52.752Z</time>
      </trkpt>
      <trkpt lat="45.29721" lon="-0.94521">
        <ele>52.7199</ele>
        <time>2022-12-23T10:42:55.752Z</time>
      </trkpt>
      <trkpt lat="45.29714" lon="-0.9453">
        <ele>52.755964</ele>
        <time>2022-12-23T10:42:57.735Z</time>
      </trkpt>
      <trkpt lat="45.29704" lon="-0.94542">
        <ele>52.806871</ele>
        <time>2022-12-23T10:43:00.751Z</time>
      </trkpt>
      <trkpt lat="45.29695" lon="-0.94555">
        <ele>52.858403</ele>
        <time>2022-12-23T10:43:03.751Z</time>
      </trkpt>
      <trkpt lat="45.29685" lon="-0.94566">
        <ele>52.907476</ele>
        <time>2022-12-23T10:43:06.750Z</time>
      </trkpt>
      <trkpt lat="45.29676" lon="-0.94581">
        <ele>52.947281</ele>
        <time>2022-12-23T10:43:09.754Z</time>
      </trkpt>
      <trkpt lat="45.29669" lon="-0.94589">
        <ele>52.969746</ele>
        <time>2022-12-23T10:43:11.751Z</time>
      </trkpt>
      <trkpt lat="45.29662" lon="-0.94599">
        <ele>52.993622</ele>
        <time>2022-12-23T10:43:13.753Z</time>
      </trkpt>
      <trkpt lat="45.29655" lon="-0.94608">
        <ele>53.017031</ele>
        <time>2022-12-23T10:43:15.752Z</time>
      </trkpt>
      <trkpt lat="45.29648" lon="-0.94617">
        <ele>53.040371</ele>
        <time>2022-12-23T10:43:17.756Z</time>
      </trkpt>
      <trkpt lat="45.29641" lon="-0.94625">
        <ele>53.063665</ele>
        <time>2022-12-23T10:43:19.755Z</time>
      </trkpt>
      <trkpt lat="45.29634" lon="-0.94634">
        <ele>53.085806</ele>
        <time>2022-12-23T10:43:21.745Z</time>
      </trkpt>
      <trkpt lat="45.29627" lon="-0.94643">
        <ele>53.108729</ele>
        <time>2022-12-23T10:43:23.755Z</time>
      </trkpt>
      <trkpt lat="45.2962" lon="-0.94651">
        <ele>53.131684</ele>
        <time>2022-12-23T10:43:25.733Z</time>
      </trkpt>
      <trkpt lat="45.29613" lon="-0.9466">
        <ele>53.155209</ele>
        <time>2022-12-23T10:43:27.735Z</time>
      </trkpt>
      <trkpt lat="45.29606" lon="-0.94669">
        <ele>53.178618</ele>
        <time>2022-12-23T10:43:29.734Z</time>
      </trkpt>
      <trkpt lat="45.29599" lon="-0.94678">
        <ele>53.202012</ele>
        <time>2022-12-23T10:43:31.750Z</time>
      </trkpt>
      <trkpt lat="45.29592" lon="-0.94688">
        <ele>53.225226</ele>
        <time>2022-12-23T10:43:33.758Z</time>
      </trkpt>
      <trkpt lat="45.29585" lon="-0.94696">
        <ele>53.248294</ele>
        <time>2022-12-23T10:43:35.753Z</time>
      </trkpt>
      <trkpt lat="45.29575" lon="-0.94709">
        <ele>53.281387</ele>
        <time>2022-12-23T10:43:38.749Z</time>
      </trkpt>
      <trkpt lat="45.29569" lon="-0.94718">
        <ele>53.303826</ele>
        <time>2022-12-23T10:43:40.755Z</time>
      </trkpt>
      <trkpt lat="45.29558" lon="-0.94731">
        <ele>53.338604</ele>
        <time>2022-12-23T10:43:43.751Z</time>
      </trkpt>
      <trkpt lat="45.29551" lon="-0.9474">
        <ele>53.361785</ele>
        <time>2022-12-23T10:43:45.744Z</time>
      </trkpt>
      <trkpt lat="45.29541" lon="-0.94754">
        <ele>53.498312</ele>
        <time>2022-12-23T10:43:48.752Z</time>
      </trkpt>
      <trkpt lat="45.29534" lon="-0.94762">
        <ele>53.601401</ele>
        <time>2022-12-23T10:43:50.756Z</time>
      </trkpt>
      <trkpt lat="45.29527" lon="-0.94771">
        <ele>53.705792</ele>
        <time>2022-12-23T10:43:52.752Z</time>
      </trkpt>
      <trkpt lat="45.2952" lon="-0.94779">
        <ele>53.811561</ele>
        <time>2022-12-23T10:43:54.751Z</time>
      </trkpt>
      <trkpt lat="45.29513" lon="-0.94787">
        <ele>53.917031</ele>
        <time>2022-12-23T10:43:56.756Z</time>
      </trkpt>
      <trkpt lat="45.29503" lon="-0.948">
        <ele>54.067733</ele>
        <time>2022-12-23T10:43:59.744Z</time>
      </trkpt>
      <trkpt lat="45.29493" lon="-0.94813">
        <ele>54.220648</ele>
        <time>2022-12-23T10:44:02.754Z</time>
      </trkpt>
      <trkpt lat="45.29485" lon="-0.94821">
        <ele>54.325408</ele>
        <time>2022-12-23T10:44:04.751Z</time>
      </trkpt>
      <trkpt lat="45.29474" lon="-0.94833">
        <ele>54.480727</ele>
        <time>2022-12-23T10:44:07.749Z</time>
      </trkpt>
      <trkpt lat="45.29465" lon="-0.94844">
        <ele>54.62055</ele>
        <time>2022-12-23T10:44:10.737Z</time>
      </trkpt>
      <trkpt lat="45.29456" lon="-0.94855">
        <ele>54.756061</ele>
        <time>2022-12-23T10:44:13.745Z</time>
      </trkpt>
      <trkpt lat="45.29447" lon="-0.94868">
        <ele>54.89879</ele>
        <time>2022-12-23T10:44:16.756Z</time>
      </trkpt>
      <trkpt lat="45.29438" lon="-0.94881">
        <ele>55.044589</ele>
        <time>2022-12-23T10:44:19.752Z</time>
      </trkpt>
      <trkpt lat="45.29429" lon="-0.94893">
        <ele>55.187597</ele>
        <time>2022-12-23T10:44:22.757Z</time>
      </trkpt>
      <trkpt lat="45.29419" lon="-0.94906">
        <ele>55.334494</ele>
        <time>2022-12-23T10:44:25.753Z</time>
      </trkpt>
      <trkpt lat="45.29409" lon="-0.94918">
        <ele>55.450115</ele>
        <time>2022-12-23T10:44:28.730Z</time>
      </trkpt>
      <trkpt lat="45.294" lon="-0.94929">
        <ele>55.540553</ele>
        <time>2022-12-23T10:44:31.759Z</time>
      </trkpt>
      <trkpt lat="45.29391" lon="-0.94941">
        <ele>55.628572</ele>
        <time>2022-12-23T10:44:34.750Z</time>
      </trkpt>
      <trkpt lat="45.29382" lon="-0.94952">
        <ele>55.711993</ele>
        <time>2022-12-23T10:44:37.740Z</time>
      </trkpt>
      <trkpt lat="45.29374" lon="-0.94963">
        <ele>55.793926</ele>
        <time>2022-12-23T10:44:40.745Z</time>
      </trkpt>
      <trkpt lat="45.29365" lon="-0.94975">
        <ele>55.881772</ele>
        <time>2022-12-23T10:44:43.749Z</time>
      </trkpt>
      <trkpt lat="45.29356" lon="-0.94987">
        <ele>55.970677</ele>
        <time>2022-12-23T10:44:46.744Z</time>
      </trkpt>
      <trkpt lat="45.2935" lon="-0.95001">
        <ele>56.056927</ele>
        <time>2022-12-23T10:44:49.732Z</time>
      </trkpt>
      <trkpt lat="45.29346" lon="-0.95017">
        <ele>56.138942</ele>
        <time>2022-12-23T10:44:52.739Z</time>
      </trkpt>
      <trkpt lat="45.29339" lon="-0.95027">
        <ele>56.213395</ele>
        <time>2022-12-23T10:44:55.755Z</time>
      </trkpt>
      <trkpt lat="45.29329" lon="-0.95031">
        <ele>56.287137</ele>
        <time>2022-12-23T10:44:58.733Z</time>
      </trkpt>
      <trkpt lat="45.29319" lon="-0.95038">
        <ele>56.365967</ele>
        <time>2022-12-23T10:45:01.736Z</time>
      </trkpt>
      <trkpt lat="45.2931" lon="-0.95048">
        <ele>56.450851</ele>
        <time>2022-12-23T10:45:04.736Z</time>
      </trkpt>
      <trkpt lat="45.29301" lon="-0.95059">
        <ele>56.532979</ele>
        <time>2022-12-23T10:45:07.728Z</time>
      </trkpt>
      <trkpt lat="45.29293" lon="-0.9507">
        <ele>56.618908</ele>
        <time>2022-12-23T10:45:10.751Z</time>
      </trkpt>
      <trkpt lat="45.29283" lon="-0.95082">
        <ele>56.71352</ele>
        <time>2022-12-23T10:45:13.756Z</time>
      </trkpt>
      <trkpt lat="45.29274" lon="-0.95093">
        <ele>56.850905</ele>
        <time>2022-12-23T10:45:16.749Z</time>
      </trkpt>
      <trkpt lat="45.29265" lon="-0.95104">
        <ele>56.985049</ele>
        <time>2022-12-23T10:45:19.754Z</time>
      </trkpt>
      <trkpt lat="45.29257" lon="-0.95115">
        <ele>57.111143</ele>
        <time>2022-12-23T10:45:22.744Z</time>
      </trkpt>
      <trkpt lat="45.29248" lon="-0.95126">
        <ele>57.239002</ele>
        <time>2022-12-23T10:45:25.751Z</time>
      </trkpt>
      <trkpt lat="45.2924" lon="-0.95137">
        <ele>57.366546</ele>
        <time>2022-12-23T10:45:28.757Z</time>
      </trkpt>
      <trkpt lat="45.29231" lon="-0.95147">
        <ele>57.493212</ele>
        <time>2022-12-23T10:45:31.752Z</time>
      </trkpt>
      <trkpt lat="45.29223" lon="-0.95158">
        <ele>57.620453</ele>
        <time>2022-12-23T10:45:34.753Z</time>
      </trkpt>
      <trkpt lat="45.29214" lon="-0.95169">
        <ele>57.750116</ele>
        <time>2022-12-23T10:45:37.755Z</time>
      </trkpt>
      <trkpt lat="45.29205" lon="-0.95181">
        <ele>57.887387</ele>
        <time>2022-12-23T10:45:40.746Z</time>
      </trkpt>
      <trkpt lat="45.29196" lon="-0.95193">
        <ele>58.026848</ele>
        <time>2022-12-23T10:45:43.754Z</time>
      </trkpt>
      <trkpt lat="45.29187" lon="-0.95205">
        <ele>58.167618</ele>
        <time>2022-12-23T10:45:46.754Z</time>
      </trkpt>
      <trkpt lat="45.29177" lon="-0.95218">
        <ele>58.310268</ele>
        <time>2022-12-23T10:45:49.740Z</time>
      </trkpt>
      <trkpt lat="45.29168" lon="-0.9523">
        <ele>58.453736</ele>
        <time>2022-12-23T10:45:52.752Z</time>
      </trkpt>
      <trkpt lat="45.29159" lon="-0.95242">
        <ele>58.592324</ele>
        <time>2022-12-23T10:45:55.743Z</time>
      </trkpt>
      <trkpt lat="45.2915" lon="-0.95253">
        <ele>58.724891</ele>
        <time>2022-12-23T10:45:58.741Z</time>
      </trkpt>
      <trkpt lat="45.29141" lon="-0.95264">
        <ele>58.84997</ele>
        <time>2022-12-23T10:46:01.747Z</time>
      </trkpt>
      <trkpt lat="45.29133" lon="-0.95276">
        <ele>58.976639</ele>
        <time>2022-12-23T10:46:04.758Z</time>
      </trkpt>
      <trkpt lat="45.29124" lon="-0.95287">
        <ele>59.103435</ele>
        <time>2022-12-23T10:46:07.744Z</time>
      </trkpt>
      <trkpt lat="45.29115" lon="-0.95298">
        <ele>59.22991</ele>
        <time>2022-12-23T10:46:10.739Z</time>
      </trkpt>
      <trkpt lat="45.29106" lon="-0.95309">
        <ele>59.356272</ele>
        <time>2022-12-23T10:46:13.743Z</time>
      </trkpt>
      <trkpt lat="45.29097" lon="-0.9532">
        <ele>59.487805</ele>
        <time>2022-12-23T10:46:16.753Z</time>
      </trkpt>
      <trkpt lat="45.29088" lon="-0.95332">
        <ele>59.617881</ele>
        <time>2022-12-23T10:46:19.753Z</time>
      </trkpt>
      <trkpt lat="45.29079" lon="-0.95343">
        <ele>59.745983</ele>
        <time>2022-12-23T10:46:22.744Z</time>
      </trkpt>
      <trkpt lat="45.2907" lon="-0.95353">
        <ele>59.869891</ele>
        <time>2022-12-23T10:46:25.731Z</time>
      </trkpt>
      <trkpt lat="45.2906" lon="-0.95364">
        <ele>60.001093</ele>
        <time>2022-12-23T10:46:28.739Z</time>
      </trkpt>
      <trkpt lat="45.29051" lon="-0.95376">
        <ele>60.132627</ele>
        <time>2022-12-23T10:46:31.750Z</time>
      </trkpt>
      <trkpt lat="45.29042" lon="-0.95387">
        <ele>60.265513</ele>
        <time>2022-12-23T10:46:34.750Z</time>
      </trkpt>
      <trkpt lat="45.29033" lon="-0.95399">
        <ele>60.396304</ele>
        <time>2022-12-23T10:46:37.757Z</time>
      </trkpt>
      <trkpt lat="45.29024" lon="-0.9541">
        <ele>60.520982</ele>
        <time>2022-12-23T10:46:40.748Z</time>
      </trkpt>
      <trkpt lat="45.29015" lon="-0.95421">
        <ele>60.642841</ele>
        <time>2022-12-23T10:46:43.752Z</time>
      </trkpt>
      <trkpt lat="45.29006" lon="-0.95432">
        <ele>60.717994</ele>
        <time>2022-12-23T10:46:46.755Z</time>
      </trkpt>
      <trkpt lat="45.28998" lon="-0.95442">
        <ele>60.79129</ele>
        <time>2022-12-23T10:46:49.751Z</time>
      </trkpt>
      <trkpt lat="45.28989" lon="-0.95454">
        <ele>60.865313</ele>
        <time>2022-12-23T10:46:52.729Z</time>
      </trkpt>
      <trkpt lat="45.28981" lon="-0.95465">
        <ele>60.940881</ele>
        <time>2022-12-23T10:46:55.755Z</time>
      </trkpt>
      <trkpt lat="45.28972" lon="-0.95477">
        <ele>61.019573</ele>
        <time>2022-12-23T10:46:58.755Z</time>
      </trkpt>
      <trkpt lat="45.28963" lon="-0.95489">
        <ele>61.098401</ele>
        <time>2022-12-23T10:47:01.741Z</time>
      </trkpt>
      <trkpt lat="45.28954" lon="-0.95501">
        <ele>61.177071</ele>
        <time>2022-12-23T10:47:04.748Z</time>
      </trkpt>
      <trkpt lat="45.28945" lon="-0.95512">
        <ele>61.253428</ele>
        <time>2022-12-23T10:47:07.753Z</time>
      </trkpt>
      <trkpt lat="45.28936" lon="-0.95524">
        <ele>61.327909</ele>
        <time>2022-12-23T10:47:10.740Z</time>
      </trkpt>
      <trkpt lat="45.28928" lon="-0.95534">
        <ele>61.400811</ele>
        <time>2022-12-23T10:47:13.751Z</time>
      </trkpt>
      <trkpt lat="45.28919" lon="-0.95545">
        <ele>61.475757</ele>
        <time>2022-12-23T10:47:16.755Z</time>
      </trkpt>
      <trkpt lat="45.28911" lon="-0.95557">
        <ele>61.552101</ele>
        <time>2022-12-23T10:47:19.754Z</time>
      </trkpt>
      <trkpt lat="45.28902" lon="-0.95568">
        <ele>61.625101</ele>
        <time>2022-12-23T10:47:22.753Z</time>
      </trkpt>
      <trkpt lat="45.28894" lon="-0.95579">
        <ele>61.697878</ele>
        <time>2022-12-23T10:47:25.751Z</time>
      </trkpt>
      <trkpt lat="45.28885" lon="-0.95589">
        <ele>61.772438</ele>
        <time>2022-12-23T10:47:28.751Z</time>
      </trkpt>
      <trkpt lat="45.28876" lon="-0.95601">
        <ele>61.821862</ele>
        <time>2022-12-23T10:47:31.753Z</time>
      </trkpt>
      <trkpt lat="45.28866" lon="-0.95612">
        <ele>61.863506</ele>
        <time>2022-12-23T10:47:34.754Z</time>
      </trkpt>
      <trkpt lat="45.28857" lon="-0.95624">
        <ele>61.904233</ele>
        <time>2022-12-23T10:47:37.755Z</time>
      </trkpt>
      <trkpt lat="45.28848" lon="-0.95636">
        <ele>61.945566</ele>
        <time>2022-12-23T10:47:40.751Z</time>
      </trkpt>
      <trkpt lat="45.28839" lon="-0.95648">
        <ele>61.987305</ele>
        <time>2022-12-23T10:47:43.755Z</time>
      </trkpt>
      <trkpt lat="45.2883" lon="-0.95659">
        <ele>62.027318</ele>
        <time>2022-12-23T10:47:46.754Z</time>
      </trkpt>
      <trkpt lat="45.28821" lon="-0.9567">
        <ele>62.067606</ele>
        <time>2022-12-23T10:47:49.754Z</time>
      </trkpt>
      <trkpt lat="45.28812" lon="-0.95682">
        <ele>62.10959</ele>
        <time>2022-12-23T10:47:52.749Z</time>
      </trkpt>
      <trkpt lat="45.28803" lon="-0.95693">
        <ele>62.149348</ele>
        <time>2022-12-23T10:47:55.750Z</time>
      </trkpt>
      <trkpt lat="45.28794" lon="-0.95705">
        <ele>62.189978</ele>
        <time>2022-12-23T10:47:58.749Z</time>
      </trkpt>
      <trkpt lat="45.28784" lon="-0.95717">
        <ele>62.232336</ele>
        <time>2022-12-23T10:48:01.754Z</time>
      </trkpt>
      <trkpt lat="45.28775" lon="-0.95729">
        <ele>62.274803</ele>
        <time>2022-12-23T10:48:04.754Z</time>
      </trkpt>
      <trkpt lat="45.28766" lon="-0.95741">
        <ele>62.3165</ele>
        <time>2022-12-23T10:48:07.751Z</time>
      </trkpt>
      <trkpt lat="45.28756" lon="-0.95753">
        <ele>62.358572</ele>
        <time>2022-12-23T10:48:10.755Z</time>
      </trkpt>
      <trkpt lat="45.28746" lon="-0.95765">
        <ele>62.419119</ele>
        <time>2022-12-23T10:48:13.751Z</time>
      </trkpt>
      <trkpt lat="45.28737" lon="-0.95776">
        <ele>62.533924</ele>
        <time>2022-12-23T10:48:16.733Z</time>
      </trkpt>
      <trkpt lat="45.28728" lon="-0.95789">
        <ele>62.652918</ele>
        <time>2022-12-23T10:48:19.745Z</time>
      </trkpt>
      <trkpt lat="45.28719" lon="-0.95801">
        <ele>62.765847</ele>
        <time>2022-12-23T10:48:22.738Z</time>
      </trkpt>
      <trkpt lat="45.2871" lon="-0.95812">
        <ele>62.879456</ele>
        <time>2022-12-23T10:48:25.747Z</time>
      </trkpt>
      <trkpt lat="45.28701" lon="-0.95824">
        <ele>62.986769</ele>
        <time>2022-12-23T10:48:28.736Z</time>
      </trkpt>
      <trkpt lat="45.28693" lon="-0.95835">
        <ele>63.094532</ele>
        <time>2022-12-23T10:48:31.754Z</time>
      </trkpt>
      <trkpt lat="45.28685" lon="-0.95847">
        <ele>63.202621</ele>
        <time>2022-12-23T10:48:34.736Z</time>
      </trkpt>
      <trkpt lat="45.28677" lon="-0.95858">
        <ele>63.310836</ele>
        <time>2022-12-23T10:48:37.755Z</time>
      </trkpt>
      <trkpt lat="45.28668" lon="-0.9587">
        <ele>63.423538</ele>
        <time>2022-12-23T10:48:40.739Z</time>
      </trkpt>
      <trkpt lat="45.28659" lon="-0.95883">
        <ele>63.536277</ele>
        <time>2022-12-23T10:48:43.750Z</time>
      </trkpt>
      <trkpt lat="45.28651" lon="-0.95893">
        <ele>63.639375</ele>
        <time>2022-12-23T10:48:46.755Z</time>
      </trkpt>
      <trkpt lat="45.28644" lon="-0.95903">
        <ele>63.729883</ele>
        <time>2022-12-23T10:48:49.769Z</time>
      </trkpt>
      <trkpt lat="45.28637" lon="-0.95913">
        <ele>63.818916</ele>
        <time>2022-12-23T10:48:52.769Z</time>
      </trkpt>
      <trkpt lat="45.2863" lon="-0.95923">
        <ele>63.915936</ele>
        <time>2022-12-23T10:48:55.748Z</time>
      </trkpt>
      <trkpt lat="45.28622" lon="-0.95934">
        <ele>64.01653</ele>
        <time>2022-12-23T10:48:58.737Z</time>
      </trkpt>
      <trkpt lat="45.28614" lon="-0.95944">
        <ele>64.015936</ele>
        <time>2022-12-23T10:49:01.752Z</time>
      </trkpt>
      <trkpt lat="45.28606" lon="-0.95955">
        <ele>63.925426</ele>
        <time>2022-12-23T10:49:04.755Z</time>
      </trkpt>
      <trkpt lat="45.28597" lon="-0.95965">
        <ele>63.834531</ele>
        <time>2022-12-23T10:49:07.752Z</time>
      </trkpt>
      <trkpt lat="45.28588" lon="-0.95976">
        <ele>63.743393</ele>
        <time>2022-12-23T10:49:10.750Z</time>
      </trkpt>
      <trkpt lat="45.28579" lon="-0.95987">
        <ele>63.650708</ele>
        <time>2022-12-23T10:49:13.753Z</time>
      </trkpt>
      <trkpt lat="45.2857" lon="-0.95998">
        <ele>63.559103</ele>
        <time>2022-12-23T10:49:16.764Z</time>
      </trkpt>
      <trkpt lat="45.28561" lon="-0.96009">
        <ele>63.462711</ele>
        <time>2022-12-23T10:49:19.754Z</time>
      </trkpt>
      <trkpt lat="45.28552" lon="-0.9602">
        <ele>63.368834</ele>
        <time>2022-12-23T10:49:22.747Z</time>
      </trkpt>
      <trkpt lat="45.28543" lon="-0.96032">
        <ele>63.275469</ele>
        <time>2022-12-23T10:49:25.747Z</time>
      </trkpt>
      <trkpt lat="45.28534" lon="-0.96043">
        <ele>63.180775</ele>
        <time>2022-12-23T10:49:28.754Z</time>
      </trkpt>
      <trkpt lat="45.28525" lon="-0.96055">
        <ele>63.086832</ele>
        <time>2022-12-23T10:49:31.752Z</time>
      </trkpt>
      <trkpt lat="45.28516" lon="-0.96066">
        <ele>62.990552</ele>
        <time>2022-12-23T10:49:34.735Z</time>
      </trkpt>
      <trkpt lat="45.28507" lon="-0.96079">
        <ele>62.890916</ele>
        <time>2022-12-23T10:49:37.749Z</time>
      </trkpt>
      <trkpt lat="45.28498" lon="-0.96091">
        <ele>62.794693</ele>
        <time>2022-12-23T10:49:40.751Z</time>
      </trkpt>
      <trkpt lat="45.28489" lon="-0.96102">
        <ele>62.698777</ele>
        <time>2022-12-23T10:49:43.732Z</time>
      </trkpt>
      <trkpt lat="45.2848" lon="-0.96113">
        <ele>62.658895</ele>
        <time>2022-12-23T10:49:46.755Z</time>
      </trkpt>
      <trkpt lat="45.28472" lon="-0.96122">
        <ele>62.680138</ele>
        <time>2022-12-23T10:49:49.753Z</time>
      </trkpt>
      <trkpt lat="45.28464" lon="-0.96132">
        <ele>62.700917</ele>
        <time>2022-12-23T10:49:52.729Z</time>
      </trkpt>
      <trkpt lat="45.28456" lon="-0.96142">
        <ele>62.723112</ele>
        <time>2022-12-23T10:49:55.749Z</time>
      </trkpt>
      <trkpt lat="45.28447" lon="-0.96153">
        <ele>62.745438</ele>
        <time>2022-12-23T10:49:58.734Z</time>
      </trkpt>
      <trkpt lat="45.28439" lon="-0.96164">
        <ele>62.767954</ele>
        <time>2022-12-23T10:50:01.754Z</time>
      </trkpt>
      <trkpt lat="45.28431" lon="-0.96174">
        <ele>62.790375</ele>
        <time>2022-12-23T10:50:04.751Z</time>
      </trkpt>
      <trkpt lat="45.28423" lon="-0.96185">
        <ele>62.812499</ele>
        <time>2022-12-23T10:50:07.749Z</time>
      </trkpt>
      <trkpt lat="45.28415" lon="-0.96196">
        <ele>62.835507</ele>
        <time>2022-12-23T10:50:10.753Z</time>
      </trkpt>
      <trkpt lat="45.28406" lon="-0.96206">
        <ele>62.858348</ele>
        <time>2022-12-23T10:50:13.736Z</time>
      </trkpt>
      <trkpt lat="45.28398" lon="-0.96216">
        <ele>62.880175</ele>
        <time>2022-12-23T10:50:16.750Z</time>
      </trkpt>
      <trkpt lat="45.2839" lon="-0.96227">
        <ele>62.903082</ele>
        <time>2022-12-23T10:50:19.749Z</time>
      </trkpt>
      <trkpt lat="45.28381" lon="-0.96237">
        <ele>62.926298</ele>
        <time>2022-12-23T10:50:22.750Z</time>
      </trkpt>
      <trkpt lat="45.28372" lon="-0.96248">
        <ele>62.94997</ele>
        <time>2022-12-23T10:50:25.746Z</time>
      </trkpt>
      <trkpt lat="45.28363" lon="-0.96259">
        <ele>62.974016</ele>
        <time>2022-12-23T10:50:28.755Z</time>
      </trkpt>
      <trkpt lat="45.28354" lon="-0.96271">
        <ele>62.998554</ele>
        <time>2022-12-23T10:50:31.755Z</time>
      </trkpt>
      <trkpt lat="45.28345" lon="-0.96282">
        <ele>63.055447</ele>
        <time>2022-12-23T10:50:34.756Z</time>
      </trkpt>
      <trkpt lat="45.28336" lon="-0.96293">
        <ele>63.150788</ele>
        <time>2022-12-23T10:50:37.742Z</time>
      </trkpt>
      <trkpt lat="45.28326" lon="-0.96304">
        <ele>63.249274</ele>
        <time>2022-12-23T10:50:40.752Z</time>
      </trkpt>
      <trkpt lat="45.28318" lon="-0.96315">
        <ele>63.337027</ele>
        <time>2022-12-23T10:50:43.754Z</time>
      </trkpt>
      <trkpt lat="45.28311" lon="-0.96324">
        <ele>63.413132</ele>
        <time>2022-12-23T10:50:46.753Z</time>
      </trkpt>
      <trkpt lat="45.28297" lon="-0.96342">
        <ele>63.563559</ele>
        <time>2022-12-23T10:52:06.734Z</time>
      </trkpt>
      <trkpt lat="45.2829" lon="-0.96352">
        <ele>63.643404</ele>
        <time>2022-12-23T10:52:10.733Z</time>
      </trkpt>
      <trkpt lat="45.28282" lon="-0.96364">
        <ele>63.737142</ele>
        <time>2022-12-23T10:52:14.735Z</time>
      </trkpt>
      <trkpt lat="45.28274" lon="-0.96373">
        <ele>63.816029</ele>
        <time>2022-12-23T10:52:17.733Z</time>
      </trkpt>
      <trkpt lat="45.28266" lon="-0.96383">
        <ele>63.90313</ele>
        <time>2022-12-23T10:52:20.749Z</time>
      </trkpt>
      <trkpt lat="45.28257" lon="-0.96392">
        <ele>63.992179</ele>
        <time>2022-12-23T10:52:23.733Z</time>
      </trkpt>
      <trkpt lat="45.28249" lon="-0.96403">
        <ele>64.079935</ele>
        <time>2022-12-23T10:52:26.732Z</time>
      </trkpt>
      <trkpt lat="45.28241" lon="-0.96413">
        <ele>64.166935</ele>
        <time>2022-12-23T10:52:29.730Z</time>
      </trkpt>
      <trkpt lat="45.28232" lon="-0.96423">
        <ele>64.251252</ele>
        <time>2022-12-23T10:52:32.749Z</time>
      </trkpt>
      <trkpt lat="45.28224" lon="-0.96433">
        <ele>64.338846</ele>
        <time>2022-12-23T10:52:35.740Z</time>
      </trkpt>
      <trkpt lat="45.28216" lon="-0.96444">
        <ele>64.426017</ele>
        <time>2022-12-23T10:52:38.756Z</time>
      </trkpt>
      <trkpt lat="45.28208" lon="-0.96455">
        <ele>64.499024</ele>
        <time>2022-12-23T10:52:41.754Z</time>
      </trkpt>
      <trkpt lat="45.282" lon="-0.96465">
        <ele>64.564468</ele>
        <time>2022-12-23T10:52:44.752Z</time>
      </trkpt>
      <trkpt lat="45.28192" lon="-0.96476">
        <ele>64.631387</ele>
        <time>2022-12-23T10:52:47.732Z</time>
      </trkpt>
      <trkpt lat="45.28184" lon="-0.96485">
        <ele>64.694892</ele>
        <time>2022-12-23T10:52:50.727Z</time>
      </trkpt>
      <trkpt lat="45.28176" lon="-0.96495">
        <ele>64.758672</ele>
        <time>2022-12-23T10:52:53.754Z</time>
      </trkpt>
      <trkpt lat="45.28168" lon="-0.96506">
        <ele>64.825591</ele>
        <time>2022-12-23T10:52:56.740Z</time>
      </trkpt>
      <trkpt lat="45.2816" lon="-0.96516">
        <ele>64.893101</ele>
        <time>2022-12-23T10:52:59.730Z</time>
      </trkpt>
      <trkpt lat="45.28152" lon="-0.96527">
        <ele>64.95783</ele>
        <time>2022-12-23T10:53:02.753Z</time>
      </trkpt>
      <trkpt lat="45.28144" lon="-0.96536">
        <ele>65.021426</ele>
        <time>2022-12-23T10:53:05.738Z</time>
      </trkpt>
      <trkpt lat="45.28136" lon="-0.96547">
        <ele>65.089233</ele>
        <time>2022-12-23T10:53:08.754Z</time>
      </trkpt>
      <trkpt lat="45.28128" lon="-0.96558">
        <ele>65.155415</ele>
        <time>2022-12-23T10:53:11.751Z</time>
      </trkpt>
      <trkpt lat="45.28121" lon="-0.96567">
        <ele>65.213936</ele>
        <time>2022-12-23T10:53:14.753Z</time>
      </trkpt>
      <trkpt lat="45.28114" lon="-0.96577">
        <ele>65.272896</ele>
        <time>2022-12-23T10:53:17.731Z</time>
      </trkpt>
      <trkpt lat="45.28107" lon="-0.96586">
        <ele>65.333355</ele>
        <time>2022-12-23T10:53:20.755Z</time>
      </trkpt>
      <trkpt lat="45.281" lon="-0.96597">
        <ele>65.396751</ele>
        <time>2022-12-23T10:53:23.750Z</time>
      </trkpt>
      <trkpt lat="45.28092" lon="-0.96607">
        <ele>65.463086</ele>
        <time>2022-12-23T10:53:26.752Z</time>
      </trkpt>
      <trkpt lat="45.28083" lon="-0.96618">
        <ele>65.532804</ele>
        <time>2022-12-23T10:53:29.751Z</time>
      </trkpt>
      <trkpt lat="45.28075" lon="-0.96628">
        <ele>65.551915</ele>
        <time>2022-12-23T10:53:32.741Z</time>
      </trkpt>
      <trkpt lat="45.28066" lon="-0.96639">
        <ele>65.564686</ele>
        <time>2022-12-23T10:53:35.754Z</time>
      </trkpt>
      <trkpt lat="45.28058" lon="-0.9665">
        <ele>65.577269</ele>
        <time>2022-12-23T10:53:38.752Z</time>
      </trkpt>
      <trkpt lat="45.2805" lon="-0.96661">
        <ele>65.589822</ele>
        <time>2022-12-23T10:53:41.754Z</time>
      </trkpt>
      <trkpt lat="45.28041" lon="-0.96671">
        <ele>65.60269</ele>
        <time>2022-12-23T10:53:44.749Z</time>
      </trkpt>
      <trkpt lat="45.28032" lon="-0.96682">
        <ele>65.615745</ele>
        <time>2022-12-23T10:53:47.754Z</time>
      </trkpt>
      <trkpt lat="45.28023" lon="-0.96692">
        <ele>65.628722</ele>
        <time>2022-12-23T10:53:50.748Z</time>
      </trkpt>
      <trkpt lat="45.28014" lon="-0.96703">
        <ele>65.641183</ele>
        <time>2022-12-23T10:53:53.756Z</time>
      </trkpt>
      <trkpt lat="45.28007" lon="-0.96713">
        <ele>65.652655</ele>
        <time>2022-12-23T10:53:56.753Z</time>
      </trkpt>
      <trkpt lat="45.27999" lon="-0.96722">
        <ele>65.663749</ele>
        <time>2022-12-23T10:53:59.750Z</time>
      </trkpt>
      <trkpt lat="45.27992" lon="-0.96732">
        <ele>65.675175</ele>
        <time>2022-12-23T10:54:02.735Z</time>
      </trkpt>
      <trkpt lat="45.27984" lon="-0.96742">
        <ele>65.686925</ele>
        <time>2022-12-23T10:54:05.755Z</time>
      </trkpt>
      <trkpt lat="45.27976" lon="-0.96752">
        <ele>65.699343</ele>
        <time>2022-12-23T10:54:08.752Z</time>
      </trkpt>
      <trkpt lat="45.27967" lon="-0.96763">
        <ele>65.71179</ele>
        <time>2022-12-23T10:54:11.753Z</time>
      </trkpt>
      <trkpt lat="45.27959" lon="-0.96773">
        <ele>65.724051</ele>
        <time>2022-12-23T10:54:14.733Z</time>
      </trkpt>
      <trkpt lat="45.27951" lon="-0.96784">
        <ele>65.736498</ele>
        <time>2022-12-23T10:54:17.754Z</time>
      </trkpt>
      <trkpt lat="45.27943" lon="-0.96795">
        <ele>65.679642</ele>
        <time>2022-12-23T10:54:20.753Z</time>
      </trkpt>
      <trkpt lat="45.27934" lon="-0.96805">
        <ele>65.571203</ele>
        <time>2022-12-23T10:54:23.750Z</time>
      </trkpt>
      <trkpt lat="45.27925" lon="-0.96816">
        <ele>65.464495</ele>
        <time>2022-12-23T10:54:26.754Z</time>
      </trkpt>
      <trkpt lat="45.27917" lon="-0.96826">
        <ele>65.357764</ele>
        <time>2022-12-23T10:54:29.750Z</time>
      </trkpt>
      <trkpt lat="45.27908" lon="-0.96835">
        <ele>65.257056</ele>
        <time>2022-12-23T10:54:32.752Z</time>
      </trkpt>
      <trkpt lat="45.279" lon="-0.96844">
        <ele>65.154237</ele>
        <time>2022-12-23T10:54:35.740Z</time>
      </trkpt>
      <trkpt lat="45.27892" lon="-0.96854">
        <ele>65.054487</ele>
        <time>2022-12-23T10:54:38.755Z</time>
      </trkpt>
      <trkpt lat="45.27884" lon="-0.96864">
        <ele>64.95081</ele>
        <time>2022-12-23T10:54:41.755Z</time>
      </trkpt>
      <trkpt lat="45.27875" lon="-0.96874">
        <ele>64.846144</ele>
        <time>2022-12-23T10:54:44.753Z</time>
      </trkpt>
      <trkpt lat="45.27867" lon="-0.96885">
        <ele>64.740861</ele>
        <time>2022-12-23T10:54:47.751Z</time>
      </trkpt>
      <trkpt lat="45.27859" lon="-0.96895">
        <ele>64.637686</ele>
        <time>2022-12-23T10:54:50.731Z</time>
      </trkpt>
      <trkpt lat="45.27851" lon="-0.96905">
        <ele>64.535665</ele>
        <time>2022-12-23T10:54:53.734Z</time>
      </trkpt>
      <trkpt lat="45.27844" lon="-0.96915">
        <ele>64.440337</ele>
        <time>2022-12-23T10:54:56.750Z</time>
      </trkpt>
      <trkpt lat="45.27837" lon="-0.96924">
        <ele>64.347269</ele>
        <time>2022-12-23T10:54:59.744Z</time>
      </trkpt>
      <trkpt lat="45.27829" lon="-0.96934">
        <ele>64.24912</ele>
        <time>2022-12-23T10:55:02.755Z</time>
      </trkpt>
      <trkpt lat="45.27821" lon="-0.96944">
        <ele>64.148013</ele>
        <time>2022-12-23T10:55:05.732Z</time>
      </trkpt>
      <trkpt lat="45.27813" lon="-0.96955">
        <ele>64.042186</ele>
        <time>2022-12-23T10:55:08.742Z</time>
      </trkpt>
      <trkpt lat="45.27805" lon="-0.96965">
        <ele>64.192679</ele>
        <time>2022-12-23T10:55:11.743Z</time>
      </trkpt>
      <trkpt lat="45.27797" lon="-0.96976">
        <ele>64.385753</ele>
        <time>2022-12-23T10:55:14.748Z</time>
      </trkpt>
      <trkpt lat="45.2779" lon="-0.96986">
        <ele>64.57275</ele>
        <time>2022-12-23T10:55:17.757Z</time>
      </trkpt>
      <trkpt lat="45.27782" lon="-0.96996">
        <ele>64.764522</ele>
        <time>2022-12-23T10:55:20.749Z</time>
      </trkpt>
      <trkpt lat="45.27774" lon="-0.97006">
        <ele>64.957245</ele>
        <time>2022-12-23T10:55:23.753Z</time>
      </trkpt>
      <trkpt lat="45.27764" lon="-0.97014">
        <ele>65.156375</ele>
        <time>2022-12-23T10:55:26.739Z</time>
      </trkpt>
      <trkpt lat="45.27755" lon="-0.97022">
        <ele>65.354347</ele>
        <time>2022-12-23T10:55:29.747Z</time>
      </trkpt>
      <trkpt lat="45.27746" lon="-0.97031">
        <ele>65.550331</ele>
        <time>2022-12-23T10:55:32.754Z</time>
      </trkpt>
      <trkpt lat="45.27737" lon="-0.97041">
        <ele>65.750445</ele>
        <time>2022-12-23T10:55:35.755Z</time>
      </trkpt>
      <trkpt lat="45.27729" lon="-0.97052">
        <ele>65.950564</ele>
        <time>2022-12-23T10:55:38.755Z</time>
      </trkpt>
      <trkpt lat="45.27721" lon="-0.97063">
        <ele>66.154088</ele>
        <time>2022-12-23T10:55:41.746Z</time>
      </trkpt>
      <trkpt lat="45.27713" lon="-0.97075">
        <ele>66.358023</ele>
        <time>2022-12-23T10:55:44.752Z</time>
      </trkpt>
      <trkpt lat="45.27705" lon="-0.97086">
        <ele>66.557202</ele>
        <time>2022-12-23T10:55:47.755Z</time>
      </trkpt>
      <trkpt lat="45.27698" lon="-0.97097">
        <ele>66.754974</ele>
        <time>2022-12-23T10:55:50.736Z</time>
      </trkpt>
      <trkpt lat="45.2769" lon="-0.97108">
        <ele>66.955935</ele>
        <time>2022-12-23T10:55:53.735Z</time>
      </trkpt>
      <trkpt lat="45.27681" lon="-0.97119">
        <ele>67.165331</ele>
        <time>2022-12-23T10:55:56.746Z</time>
      </trkpt>
      <trkpt lat="45.27672" lon="-0.9713">
        <ele>67.410497</ele>
        <time>2022-12-23T10:55:59.752Z</time>
      </trkpt>
      <trkpt lat="45.27663" lon="-0.9714">
        <ele>67.673834</ele>
        <time>2022-12-23T10:56:02.737Z</time>
      </trkpt>
      <trkpt lat="45.27655" lon="-0.97151">
        <ele>67.933259</ele>
        <time>2022-12-23T10:56:05.743Z</time>
      </trkpt>
      <trkpt lat="45.27646" lon="-0.97162">
        <ele>68.199493</ele>
        <time>2022-12-23T10:56:08.759Z</time>
      </trkpt>
      <trkpt lat="45.27638" lon="-0.97173">
        <ele>68.458881</ele>
        <time>2022-12-23T10:56:11.752Z</time>
      </trkpt>
      <trkpt lat="45.27629" lon="-0.97184">
        <ele>68.727235</ele>
        <time>2022-12-23T10:56:14.733Z</time>
      </trkpt>
      <trkpt lat="45.2762" lon="-0.97196">
        <ele>68.989381</ele>
        <time>2022-12-23T10:56:17.742Z</time>
      </trkpt>
      <trkpt lat="45.27612" lon="-0.97207">
        <ele>69.25434</ele>
        <time>2022-12-23T10:56:20.735Z</time>
      </trkpt>
      <trkpt lat="45.27603" lon="-0.97218">
        <ele>69.523111</ele>
        <time>2022-12-23T10:56:23.754Z</time>
      </trkpt>
      <trkpt lat="45.27595" lon="-0.9723">
        <ele>69.795751</ele>
        <time>2022-12-23T10:56:26.757Z</time>
      </trkpt>
      <trkpt lat="45.27586" lon="-0.97241">
        <ele>70.059888</ele>
        <time>2022-12-23T10:56:29.747Z</time>
      </trkpt>
      <trkpt lat="45.27577" lon="-0.97252">
        <ele>70.33208</ele>
        <time>2022-12-23T10:56:32.749Z</time>
      </trkpt>
      <trkpt lat="45.27568" lon="-0.97264">
        <ele>70.61521</ele>
        <time>2022-12-23T10:56:35.749Z</time>
      </trkpt>
      <trkpt lat="45.27559" lon="-0.97275">
        <ele>70.880794</ele>
        <time>2022-12-23T10:56:38.734Z</time>
      </trkpt>
      <trkpt lat="45.27552" lon="-0.97285">
        <ele>71.12307</ele>
        <time>2022-12-23T10:56:41.757Z</time>
      </trkpt>
      <trkpt lat="45.27543" lon="-0.97296">
        <ele>71.37928</ele>
        <time>2022-12-23T10:56:45.748Z</time>
      </trkpt>
      <trkpt lat="45.27537" lon="-0.97306">
        <ele>71.479401</ele>
        <time>2022-12-23T10:56:48.732Z</time>
      </trkpt>
      <trkpt lat="45.2753" lon="-0.97316">
        <ele>71.586307</ele>
        <time>2022-12-23T10:56:51.754Z</time>
      </trkpt>
      <trkpt lat="45.27521" lon="-0.97326">
        <ele>71.705026</ele>
        <time>2022-12-23T10:56:54.745Z</time>
      </trkpt>
      <trkpt lat="45.27514" lon="-0.97336">
        <ele>71.823665</ele>
        <time>2022-12-23T10:56:57.756Z</time>
      </trkpt>
      <trkpt lat="45.27505" lon="-0.97347">
        <ele>71.953612</ele>
        <time>2022-12-23T10:57:00.754Z</time>
      </trkpt>
      <trkpt lat="45.27496" lon="-0.97359">
        <ele>72.086951</ele>
        <time>2022-12-23T10:57:03.749Z</time>
      </trkpt>
      <trkpt lat="45.27487" lon="-0.9737">
        <ele>72.216069</ele>
        <time>2022-12-23T10:57:06.747Z</time>
      </trkpt>
      <trkpt lat="45.27478" lon="-0.9738">
        <ele>72.343336</ele>
        <time>2022-12-23T10:57:09.769Z</time>
      </trkpt>
      <trkpt lat="45.2747" lon="-0.97391">
        <ele>72.46999</ele>
        <time>2022-12-23T10:57:12.754Z</time>
      </trkpt>
      <trkpt lat="45.27461" lon="-0.97402">
        <ele>72.598643</ele>
        <time>2022-12-23T10:57:15.735Z</time>
      </trkpt>
      <trkpt lat="45.27452" lon="-0.97413">
        <ele>72.729272</ele>
        <time>2022-12-23T10:57:18.733Z</time>
      </trkpt>
      <trkpt lat="45.27443" lon="-0.97425">
        <ele>72.857786</ele>
        <time>2022-12-23T10:57:21.752Z</time>
      </trkpt>
      <trkpt lat="45.27435" lon="-0.97436">
        <ele>72.988452</ele>
        <time>2022-12-23T10:57:24.754Z</time>
      </trkpt>
      <trkpt lat="45.27426" lon="-0.97447">
        <ele>73.118728</ele>
        <time>2022-12-23T10:57:27.749Z</time>
      </trkpt>
      <trkpt lat="45.27417" lon="-0.97456">
        <ele>73.231528</ele>
        <time>2022-12-23T10:57:30.750Z</time>
      </trkpt>
      <trkpt lat="45.27409" lon="-0.97465">
        <ele>73.346739</ele>
        <time>2022-12-23T10:57:33.753Z</time>
      </trkpt>
      <trkpt lat="45.274" lon="-0.97475">
        <ele>73.233066</ele>
        <time>2022-12-23T10:57:36.754Z</time>
      </trkpt>
      <trkpt lat="45.27392" lon="-0.97487">
        <ele>73.114694</ele>
        <time>2022-12-23T10:57:39.742Z</time>
      </trkpt>
      <trkpt lat="45.27383" lon="-0.97498">
        <ele>72.994574</ele>
        <time>2022-12-23T10:57:42.736Z</time>
      </trkpt>
      <trkpt lat="45.27374" lon="-0.97509">
        <ele>72.872483</ele>
        <time>2022-12-23T10:57:45.747Z</time>
      </trkpt>
      <trkpt lat="45.27366" lon="-0.97521">
        <ele>72.753635</ele>
        <time>2022-12-23T10:57:48.741Z</time>
      </trkpt>
      <trkpt lat="45.27357" lon="-0.97532">
        <ele>72.634524</ele>
        <time>2022-12-23T10:57:51.753Z</time>
      </trkpt>
      <trkpt lat="45.27348" lon="-0.97544">
        <ele>72.514879</ele>
        <time>2022-12-23T10:57:54.749Z</time>
      </trkpt>
      <trkpt lat="45.27339" lon="-0.97555">
        <ele>72.392582</ele>
        <time>2022-12-23T10:57:57.755Z</time>
      </trkpt>
      <trkpt lat="45.27331" lon="-0.97567">
        <ele>72.27369</ele>
        <time>2022-12-23T10:58:00.752Z</time>
      </trkpt>
      <trkpt lat="45.27322" lon="-0.97577">
        <ele>72.16067</ele>
        <time>2022-12-23T10:58:03.736Z</time>
      </trkpt>
      <trkpt lat="45.27314" lon="-0.97588">
        <ele>72.043971</ele>
        <time>2022-12-23T10:58:06.753Z</time>
      </trkpt>
      <trkpt lat="45.27305" lon="-0.97598">
        <ele>71.930668</ele>
        <time>2022-12-23T10:58:09.747Z</time>
      </trkpt>
      <trkpt lat="45.27297" lon="-0.97609">
        <ele>71.815478</ele>
        <time>2022-12-23T10:58:12.755Z</time>
      </trkpt>
      <trkpt lat="45.27288" lon="-0.9762">
        <ele>71.699712</ele>
        <time>2022-12-23T10:58:15.755Z</time>
      </trkpt>
      <trkpt lat="45.2728" lon="-0.97632">
        <ele>71.580356</ele>
        <time>2022-12-23T10:58:18.750Z</time>
      </trkpt>
      <trkpt lat="45.27271" lon="-0.97642">
        <ele>71.467417</ele>
        <time>2022-12-23T10:58:21.751Z</time>
      </trkpt>
      <trkpt lat="45.27263" lon="-0.97653">
        <ele>71.348899</ele>
        <time>2022-12-23T10:58:24.752Z</time>
      </trkpt>
      <trkpt lat="45.27254" lon="-0.97664">
        <ele>71.232098</ele>
        <time>2022-12-23T10:58:27.748Z</time>
      </trkpt>
      <trkpt lat="45.27247" lon="-0.97675">
        <ele>71.123343</ele>
        <time>2022-12-23T10:58:30.755Z</time>
      </trkpt>
      <trkpt lat="45.2724" lon="-0.97685">
        <ele>71.025153</ele>
        <time>2022-12-23T10:58:33.753Z</time>
      </trkpt>
      <trkpt lat="45.27232" lon="-0.97694">
        <ele>70.921311</ele>
        <time>2022-12-23T10:58:36.758Z</time>
      </trkpt>
      <trkpt lat="45.27224" lon="-0.97705">
        <ele>70.806955</ele>
        <time>2022-12-23T10:58:39.743Z</time>
      </trkpt>
      <trkpt lat="45.27215" lon="-0.97716">
        <ele>70.691142</ele>
        <time>2022-12-23T10:58:42.733Z</time>
      </trkpt>
      <trkpt lat="45.27207" lon="-0.97726">
        <ele>70.5787</ele>
        <time>2022-12-23T10:58:45.752Z</time>
      </trkpt>
      <trkpt lat="45.27199" lon="-0.97737">
        <ele>70.465822</ele>
        <time>2022-12-23T10:58:48.755Z</time>
      </trkpt>
      <trkpt lat="45.2719" lon="-0.97748">
        <ele>70.350495</ele>
        <time>2022-12-23T10:58:51.743Z</time>
      </trkpt>
      <trkpt lat="45.27181" lon="-0.9776">
        <ele>70.229523</ele>
        <time>2022-12-23T10:58:54.732Z</time>
      </trkpt>
      <trkpt lat="45.27173" lon="-0.97772">
        <ele>70.11009</ele>
        <time>2022-12-23T10:58:57.743Z</time>
      </trkpt>
      <trkpt lat="45.27165" lon="-0.97784">
        <ele>69.989126</ele>
        <time>2022-12-23T10:59:00.759Z</time>
      </trkpt>
      <trkpt lat="45.27156" lon="-0.97795">
        <ele>69.87133</ele>
        <time>2022-12-23T10:59:03.751Z</time>
      </trkpt>
      <trkpt lat="45.27148" lon="-0.97807">
        <ele>69.752226</ele>
        <time>2022-12-23T10:59:06.751Z</time>
      </trkpt>
      <trkpt lat="45.2714" lon="-0.97819">
        <ele>69.718637</ele>
        <time>2022-12-23T10:59:09.756Z</time>
      </trkpt>
      <trkpt lat="45.27131" lon="-0.97831">
        <ele>69.736375</ele>
        <time>2022-12-23T10:59:12.759Z</time>
      </trkpt>
      <trkpt lat="45.27123" lon="-0.97843">
        <ele>69.754127</ele>
        <time>2022-12-23T10:59:15.754Z</time>
      </trkpt>
      <trkpt lat="45.27114" lon="-0.97854">
        <ele>69.771729</ele>
        <time>2022-12-23T10:59:18.749Z</time>
      </trkpt>
      <trkpt lat="45.27106" lon="-0.97865">
        <ele>69.788168</ele>
        <time>2022-12-23T10:59:21.756Z</time>
      </trkpt>
      <trkpt lat="45.27098" lon="-0.97876">
        <ele>69.805227</ele>
        <time>2022-12-23T10:59:24.755Z</time>
      </trkpt>
      <trkpt lat="45.2709" lon="-0.97887">
        <ele>69.822434</ele>
        <time>2022-12-23T10:59:27.754Z</time>
      </trkpt>
      <trkpt lat="45.27081" lon="-0.97898">
        <ele>69.83975</ele>
        <time>2022-12-23T10:59:30.748Z</time>
      </trkpt>
      <trkpt lat="45.27072" lon="-0.97909">
        <ele>69.857211</ele>
        <time>2022-12-23T10:59:33.757Z</time>
      </trkpt>
      <trkpt lat="45.27064" lon="-0.97919">
        <ele>69.874276</ele>
        <time>2022-12-23T10:59:36.752Z</time>
      </trkpt>
      <trkpt lat="45.27055" lon="-0.9793">
        <ele>69.890996</ele>
        <time>2022-12-23T10:59:39.734Z</time>
      </trkpt>
      <trkpt lat="45.27047" lon="-0.97939">
        <ele>69.906756</ele>
        <time>2022-12-23T10:59:42.754Z</time>
      </trkpt>
      <trkpt lat="45.2704" lon="-0.97949">
        <ele>69.922291</ele>
        <time>2022-12-23T10:59:45.749Z</time>
      </trkpt>
      <trkpt lat="45.27032" lon="-0.97958">
        <ele>69.937442</ele>
        <time>2022-12-23T10:59:48.756Z</time>
      </trkpt>
      <trkpt lat="45.27024" lon="-0.97967">
        <ele>69.952476</ele>
        <time>2022-12-23T10:59:51.753Z</time>
      </trkpt>
      <trkpt lat="45.27016" lon="-0.97976">
        <ele>69.96771</ele>
        <time>2022-12-23T10:59:54.755Z</time>
      </trkpt>
      <trkpt lat="45.2701" lon="-0.97985">
        <ele>69.999249</ele>
        <time>2022-12-23T10:59:57.742Z</time>
      </trkpt>
      <trkpt lat="45.27003" lon="-0.97995">
        <ele>70.075836</ele>
        <time>2022-12-23T11:00:00.758Z</time>
      </trkpt>
      <trkpt lat="45.26995" lon="-0.98004">
        <ele>70.15691</ele>
        <time>2022-12-23T11:00:03.753Z</time>
      </trkpt>
      <trkpt lat="45.26988" lon="-0.98015">
        <ele>70.241893</ele>
        <time>2022-12-23T11:00:06.751Z</time>
      </trkpt>
      <trkpt lat="45.2698" lon="-0.98024">
        <ele>70.328028</ele>
        <time>2022-12-23T11:00:09.750Z</time>
      </trkpt>
      <trkpt lat="45.26972" lon="-0.98035">
        <ele>70.414199</ele>
        <time>2022-12-23T11:00:12.761Z</time>
      </trkpt>
      <trkpt lat="45.26964" lon="-0.98045">
        <ele>70.50135</ele>
        <time>2022-12-23T11:00:15.756Z</time>
      </trkpt>
      <trkpt lat="45.26956" lon="-0.98055">
        <ele>70.589269</ele>
        <time>2022-12-23T11:00:18.754Z</time>
      </trkpt>
      <trkpt lat="45.26948" lon="-0.98066">
        <ele>70.67544</ele>
        <time>2022-12-23T11:00:21.749Z</time>
      </trkpt>
      <trkpt lat="45.26939" lon="-0.98076">
        <ele>70.765993</ele>
        <time>2022-12-23T11:00:24.750Z</time>
      </trkpt>
      <trkpt lat="45.2693" lon="-0.98087">
        <ele>70.860237</ele>
        <time>2022-12-23T11:00:27.756Z</time>
      </trkpt>
      <trkpt lat="45.26922" lon="-0.98098">
        <ele>70.953824</ele>
        <time>2022-12-23T11:00:30.753Z</time>
      </trkpt>
      <trkpt lat="45.26913" lon="-0.98108">
        <ele>71.043043</ele>
        <time>2022-12-23T11:00:33.751Z</time>
      </trkpt>
      <trkpt lat="45.26905" lon="-0.98116">
        <ele>71.124649</ele>
        <time>2022-12-23T11:00:36.749Z</time>
      </trkpt>
      <trkpt lat="45.26898" lon="-0.98125">
        <ele>71.199599</ele>
        <time>2022-12-23T11:00:39.749Z</time>
      </trkpt>
      <trkpt lat="45.2689" lon="-0.98134">
        <ele>71.279729</ele>
        <time>2022-12-23T11:00:42.759Z</time>
      </trkpt>
      <trkpt lat="45.26881" lon="-0.98142">
        <ele>71.367024</ele>
        <time>2022-12-23T11:00:45.767Z</time>
      </trkpt>
      <trkpt lat="45.26872" lon="-0.98151">
        <ele>71.419305</ele>
        <time>2022-12-23T11:00:48.750Z</time>
      </trkpt>
      <trkpt lat="45.26864" lon="-0.98162">
        <ele>71.385978</ele>
        <time>2022-12-23T11:00:51.767Z</time>
      </trkpt>
      <trkpt lat="45.26855" lon="-0.98173">
        <ele>71.351358</ele>
        <time>2022-12-23T11:00:54.751Z</time>
      </trkpt>
      <trkpt lat="45.26846" lon="-0.98185">
        <ele>71.315212</ele>
        <time>2022-12-23T11:00:57.739Z</time>
      </trkpt>
      <trkpt lat="45.26838" lon="-0.98197">
        <ele>71.279069</ele>
        <time>2022-12-23T11:01:00.753Z</time>
      </trkpt>
      <trkpt lat="45.26829" lon="-0.98208">
        <ele>71.242782</ele>
        <time>2022-12-23T11:01:03.733Z</time>
      </trkpt>
      <trkpt lat="45.2682" lon="-0.9822">
        <ele>71.20619</ele>
        <time>2022-12-23T11:01:06.742Z</time>
      </trkpt>
      <trkpt lat="45.2681" lon="-0.98232">
        <ele>71.169095</ele>
        <time>2022-12-23T11:01:09.735Z</time>
      </trkpt>
      <trkpt lat="45.26801" lon="-0.98243">
        <ele>71.131598</ele>
        <time>2022-12-23T11:01:12.756Z</time>
      </trkpt>
      <trkpt lat="45.26791" lon="-0.98255">
        <ele>71.094001</ele>
        <time>2022-12-23T11:01:15.748Z</time>
      </trkpt>
      <trkpt lat="45.26783" lon="-0.98268">
        <ele>71.057729</ele>
        <time>2022-12-23T11:01:18.747Z</time>
      </trkpt>
      <trkpt lat="45.26774" lon="-0.9828">
        <ele>71.021373</ele>
        <time>2022-12-23T11:01:21.735Z</time>
      </trkpt>
      <trkpt lat="45.26765" lon="-0.9829">
        <ele>70.986395</ele>
        <time>2022-12-23T11:01:24.752Z</time>
      </trkpt>
      <trkpt lat="45.26756" lon="-0.98299">
        <ele>70.952048</ele>
        <time>2022-12-23T11:01:27.738Z</time>
      </trkpt>
      <trkpt lat="45.26746" lon="-0.9831">
        <ele>70.91641</ele>
        <time>2022-12-23T11:01:30.743Z</time>
      </trkpt>
      <trkpt lat="45.26737" lon="-0.98322">
        <ele>70.932365</ele>
        <time>2022-12-23T11:01:33.741Z</time>
      </trkpt>
      <trkpt lat="45.26728" lon="-0.98334">
        <ele>71.049063</ele>
        <time>2022-12-23T11:01:36.737Z</time>
      </trkpt>
      <trkpt lat="45.26718" lon="-0.98345">
        <ele>71.163531</ele>
        <time>2022-12-23T11:01:39.741Z</time>
      </trkpt>
      <trkpt lat="45.26708" lon="-0.98357">
        <ele>71.2818</ele>
        <time>2022-12-23T11:01:42.754Z</time>
      </trkpt>
      <trkpt lat="45.26698" lon="-0.98369">
        <ele>71.402142</ele>
        <time>2022-12-23T11:01:45.748Z</time>
      </trkpt>
      <trkpt lat="45.26689" lon="-0.98381">
        <ele>71.519815</ele>
        <time>2022-12-23T11:01:48.763Z</time>
      </trkpt>
      <trkpt lat="45.26679" lon="-0.98393">
        <ele>71.638084</ele>
        <time>2022-12-23T11:01:51.731Z</time>
      </trkpt>
      <trkpt lat="45.2667" lon="-0.98405">
        <ele>71.754131</ele>
        <time>2022-12-23T11:01:54.750Z</time>
      </trkpt>
      <trkpt lat="45.2666" lon="-0.98417">
        <ele>71.870003</ele>
        <time>2022-12-23T11:01:57.750Z</time>
      </trkpt>
      <trkpt lat="45.26651" lon="-0.98428">
        <ele>71.977239</ele>
        <time>2022-12-23T11:02:00.732Z</time>
      </trkpt>
      <trkpt lat="45.26643" lon="-0.9844">
        <ele>72.085965</ele>
        <time>2022-12-23T11:02:03.745Z</time>
      </trkpt>
      <trkpt lat="45.26633" lon="-0.98452">
        <ele>72.201337</ele>
        <time>2022-12-23T11:02:06.731Z</time>
      </trkpt>
      <trkpt lat="45.26624" lon="-0.98464">
        <ele>72.31319</ele>
        <time>2022-12-23T11:02:09.742Z</time>
      </trkpt>
      <trkpt lat="45.26616" lon="-0.98474">
        <ele>72.412755</ele>
        <time>2022-12-23T11:02:12.757Z</time>
      </trkpt>
      <trkpt lat="45.26609" lon="-0.98483">
        <ele>72.499381</ele>
        <time>2022-12-23T11:02:15.729Z</time>
      </trkpt>
      <trkpt lat="45.26602" lon="-0.98492">
        <ele>72.532046</ele>
        <time>2022-12-23T11:02:18.751Z</time>
      </trkpt>
      <trkpt lat="45.26594" lon="-0.98502">
        <ele>72.52024</ele>
        <time>2022-12-23T11:02:21.759Z</time>
      </trkpt>
      <trkpt lat="45.26586" lon="-0.98512">
        <ele>72.508178</ele>
        <time>2022-12-23T11:02:24.734Z</time>
      </trkpt>
      <trkpt lat="45.26578" lon="-0.98522">
        <ele>72.495798</ele>
        <time>2022-12-23T11:02:27.739Z</time>
      </trkpt>
      <trkpt lat="45.2657" lon="-0.98533">
        <ele>72.482815</ele>
        <time>2022-12-23T11:02:30.736Z</time>
      </trkpt>
      <trkpt lat="45.26562" lon="-0.98544">
        <ele>72.470545</ele>
        <time>2022-12-23T11:02:33.758Z</time>
      </trkpt>
      <trkpt lat="45.26553" lon="-0.98555">
        <ele>72.457502</ele>
        <time>2022-12-23T11:02:36.753Z</time>
      </trkpt>
      <trkpt lat="45.26544" lon="-0.98566">
        <ele>72.444108</ele>
        <time>2022-12-23T11:02:39.751Z</time>
      </trkpt>
      <trkpt lat="45.26536" lon="-0.98578">
        <ele>72.430714</ele>
        <time>2022-12-23T11:02:42.754Z</time>
      </trkpt>
      <trkpt lat="45.26527" lon="-0.98589">
        <ele>72.417343</ele>
        <time>2022-12-23T11:02:45.749Z</time>
      </trkpt>
      <trkpt lat="45.26519" lon="-0.986">
        <ele>72.404248</ele>
        <time>2022-12-23T11:02:48.749Z</time>
      </trkpt>
      <trkpt lat="45.26511" lon="-0.9861">
        <ele>72.392672</ele>
        <time>2022-12-23T11:02:51.752Z</time>
      </trkpt>
      <trkpt lat="45.26504" lon="-0.98618">
        <ele>72.382229</ele>
        <time>2022-12-23T11:02:54.730Z</time>
      </trkpt>
      <trkpt lat="45.26497" lon="-0.98627">
        <ele>72.371629</ele>
        <time>2022-12-23T11:02:57.733Z</time>
      </trkpt>
      <trkpt lat="45.26489" lon="-0.98635">
        <ele>72.360555</ele>
        <time>2022-12-23T11:03:00.755Z</time>
      </trkpt>
      <trkpt lat="45.26481" lon="-0.98645">
        <ele>72.348453</ele>
        <time>2022-12-23T11:03:03.739Z</time>
      </trkpt>
      <trkpt lat="45.26472" lon="-0.98655">
        <ele>72.335586</ele>
        <time>2022-12-23T11:03:06.752Z</time>
      </trkpt>
      <trkpt lat="45.26463" lon="-0.98666">
        <ele>72.357054</ele>
        <time>2022-12-23T11:03:09.754Z</time>
      </trkpt>
      <trkpt lat="45.26454" lon="-0.98676">
        <ele>72.381849</ele>
        <time>2022-12-23T11:03:12.786Z</time>
      </trkpt>
      <trkpt lat="45.26444" lon="-0.98687">
        <ele>72.407755</ele>
        <time>2022-12-23T11:03:15.758Z</time>
      </trkpt>
      <trkpt lat="45.26434" lon="-0.98697">
        <ele>72.433285</ele>
        <time>2022-12-23T11:03:18.749Z</time>
      </trkpt>
      <trkpt lat="45.26424" lon="-0.98707">
        <ele>72.458132</ele>
        <time>2022-12-23T11:03:21.735Z</time>
      </trkpt>
      <trkpt lat="45.26414" lon="-0.98717">
        <ele>72.483827</ele>
        <time>2022-12-23T11:03:24.752Z</time>
      </trkpt>
      <trkpt lat="45.26404" lon="-0.98728">
        <ele>72.510047</ele>
        <time>2022-12-23T11:03:27.761Z</time>
      </trkpt>
      <trkpt lat="45.26394" lon="-0.98739">
        <ele>72.536865</ele>
        <time>2022-12-23T11:03:30.733Z</time>
      </trkpt>
      <trkpt lat="45.26383" lon="-0.98749">
        <ele>72.56368</ele>
        <time>2022-12-23T11:03:33.731Z</time>
      </trkpt>
      <trkpt lat="45.26373" lon="-0.9876">
        <ele>72.590311</ele>
        <time>2022-12-23T11:03:36.754Z</time>
      </trkpt>
      <trkpt lat="45.26364" lon="-0.9877">
        <ele>72.614943</ele>
        <time>2022-12-23T11:03:39.736Z</time>
      </trkpt>
      <trkpt lat="45.26355" lon="-0.98782">
        <ele>72.639899</ele>
        <time>2022-12-23T11:03:42.734Z</time>
      </trkpt>
      <trkpt lat="45.26346" lon="-0.98794">
        <ele>72.665418</ele>
        <time>2022-12-23T11:03:45.756Z</time>
      </trkpt>
      <trkpt lat="45.26336" lon="-0.98804">
        <ele>72.691541</ele>
        <time>2022-12-23T11:03:48.734Z</time>
      </trkpt>
      <trkpt lat="45.26325" lon="-0.98812">
        <ele>72.730161</ele>
        <time>2022-12-23T11:03:51.752Z</time>
      </trkpt>
      <trkpt lat="45.26313" lon="-0.9882">
        <ele>72.797681</ele>
        <time>2022-12-23T11:03:54.735Z</time>
      </trkpt>
      <trkpt lat="45.26303" lon="-0.9883">
        <ele>72.864397</ele>
        <time>2022-12-23T11:03:57.735Z</time>
      </trkpt>
      <trkpt lat="45.26293" lon="-0.98839">
        <ele>72.929718</ele>
        <time>2022-12-23T11:04:00.751Z</time>
      </trkpt>
      <trkpt lat="45.26282" lon="-0.98849">
        <ele>72.995057</ele>
        <time>2022-12-23T11:04:03.753Z</time>
      </trkpt>
      <trkpt lat="45.26273" lon="-0.98859">
        <ele>73.059298</ele>
        <time>2022-12-23T11:04:06.730Z</time>
      </trkpt>
      <trkpt lat="45.26262" lon="-0.9887">
        <ele>73.125698</ele>
        <time>2022-12-23T11:04:09.754Z</time>
      </trkpt>
      <trkpt lat="45.26253" lon="-0.98879">
        <ele>73.189277</ele>
        <time>2022-12-23T11:04:12.754Z</time>
      </trkpt>
      <trkpt lat="45.26243" lon="-0.9889">
        <ele>73.25335</ele>
        <time>2022-12-23T11:04:15.735Z</time>
      </trkpt>
      <trkpt lat="45.26234" lon="-0.989">
        <ele>73.31541</ele>
        <time>2022-12-23T11:04:18.758Z</time>
      </trkpt>
      <trkpt lat="45.26224" lon="-0.98909">
        <ele>73.377977</ele>
        <time>2022-12-23T11:04:21.752Z</time>
      </trkpt>
      <trkpt lat="45.26213" lon="-0.98918">
        <ele>73.44441</ele>
        <time>2022-12-23T11:04:24.757Z</time>
      </trkpt>
      <trkpt lat="45.26203" lon="-0.98928">
        <ele>73.510843</ele>
        <time>2022-12-23T11:04:27.750Z</time>
      </trkpt>
      <trkpt lat="45.26193" lon="-0.98938">
        <ele>73.576183</ele>
        <time>2022-12-23T11:04:30.748Z</time>
      </trkpt>
      <trkpt lat="45.26185" lon="-0.98948">
        <ele>73.631582</ele>
        <time>2022-12-23T11:04:33.749Z</time>
      </trkpt>
      <trkpt lat="45.26178" lon="-0.98956">
        <ele>73.656913</ele>
        <time>2022-12-23T11:04:36.734Z</time>
      </trkpt>
      <trkpt lat="45.26169" lon="-0.98964">
        <ele>73.615954</ele>
        <time>2022-12-23T11:04:40.742Z</time>
      </trkpt>
      <trkpt lat="45.2616" lon="-0.98975">
        <ele>73.566673</ele>
        <time>2022-12-23T11:04:44.737Z</time>
      </trkpt>
      <trkpt lat="45.26152" lon="-0.98984">
        <ele>73.52353</ele>
        <time>2022-12-23T11:04:47.753Z</time>
      </trkpt>
      <trkpt lat="45.26142" lon="-0.98993">
        <ele>73.476716</ele>
        <time>2022-12-23T11:04:50.745Z</time>
      </trkpt>
      <trkpt lat="45.26132" lon="-0.99002">
        <ele>73.428256</ele>
        <time>2022-12-23T11:04:53.748Z</time>
      </trkpt>
      <trkpt lat="45.26122" lon="-0.99012">
        <ele>73.378678</ele>
        <time>2022-12-23T11:04:56.750Z</time>
      </trkpt>
      <trkpt lat="45.26112" lon="-0.99023">
        <ele>73.326117</ele>
        <time>2022-12-23T11:04:59.751Z</time>
      </trkpt>
      <trkpt lat="45.26101" lon="-0.99034">
        <ele>73.271567</ele>
        <time>2022-12-23T11:05:02.751Z</time>
      </trkpt>
      <trkpt lat="45.26093" lon="-0.99041">
        <ele>73.235065</ele>
        <time>2022-12-23T11:05:04.749Z</time>
      </trkpt>
      <trkpt lat="45.26085" lon="-0.99048">
        <ele>73.197538</ele>
        <time>2022-12-23T11:05:06.735Z</time>
      </trkpt>
      <trkpt lat="45.26077" lon="-0.99055">
        <ele>73.158889</ele>
        <time>2022-12-23T11:05:08.752Z</time>
      </trkpt>
      <trkpt lat="45.2607" lon="-0.99063">
        <ele>73.121747</ele>
        <time>2022-12-23T11:05:10.744Z</time>
      </trkpt>
      <trkpt lat="45.26062" lon="-0.9907">
        <ele>73.083435</ele>
        <time>2022-12-23T11:05:12.742Z</time>
      </trkpt>
      <trkpt lat="45.26054" lon="-0.99078">
        <ele>73.044605</ele>
        <time>2022-12-23T11:05:14.750Z</time>
      </trkpt>
      <trkpt lat="45.26047" lon="-0.99086">
        <ele>73.006254</ele>
        <time>2022-12-23T11:05:16.739Z</time>
      </trkpt>
      <trkpt lat="45.26036" lon="-0.99096">
        <ele>72.953184</ele>
        <time>2022-12-23T11:05:19.756Z</time>
      </trkpt>
      <trkpt lat="45.26026" lon="-0.99106">
        <ele>72.948948</ele>
        <time>2022-12-23T11:05:22.741Z</time>
      </trkpt>
      <trkpt lat="45.26016" lon="-0.99116">
        <ele>72.967879</ele>
        <time>2022-12-23T11:05:25.743Z</time>
      </trkpt>
      <trkpt lat="45.26007" lon="-0.99126">
        <ele>72.987021</ele>
        <time>2022-12-23T11:05:28.757Z</time>
      </trkpt>
      <trkpt lat="45.25997" lon="-0.99136">
        <ele>73.006935</ele>
        <time>2022-12-23T11:05:31.757Z</time>
      </trkpt>
      <trkpt lat="45.25987" lon="-0.99146">
        <ele>73.026252</ele>
        <time>2022-12-23T11:05:34.747Z</time>
      </trkpt>
      <trkpt lat="45.25978" lon="-0.99155">
        <ele>73.043594</ele>
        <time>2022-12-23T11:05:37.752Z</time>
      </trkpt>
      <trkpt lat="45.2597" lon="-0.99164">
        <ele>73.060933</ele>
        <time>2022-12-23T11:05:40.751Z</time>
      </trkpt>
      <trkpt lat="45.2596" lon="-0.99172">
        <ele>73.079049</ele>
        <time>2022-12-23T11:05:43.743Z</time>
      </trkpt>
      <trkpt lat="45.2595" lon="-0.99182">
        <ele>73.098168</ele>
        <time>2022-12-23T11:05:46.740Z</time>
      </trkpt>
      <trkpt lat="45.25941" lon="-0.99191">
        <ele>73.11676</ele>
        <time>2022-12-23T11:05:49.759Z</time>
      </trkpt>
      <trkpt lat="45.25932" lon="-0.99201">
        <ele>73.13568</ele>
        <time>2022-12-23T11:05:52.750Z</time>
      </trkpt>
      <trkpt lat="45.25922" lon="-0.9921">
        <ele>73.15443</ele>
        <time>2022-12-23T11:05:55.739Z</time>
      </trkpt>
      <trkpt lat="45.25912" lon="-0.99219">
        <ele>73.17322</ele>
        <time>2022-12-23T11:05:58.751Z</time>
      </trkpt>
      <trkpt lat="45.25903" lon="-0.99229">
        <ele>73.192274</ele>
        <time>2022-12-23T11:06:01.749Z</time>
      </trkpt>
      <trkpt lat="45.25893" lon="-0.99239">
        <ele>73.21174</ele>
        <time>2022-12-23T11:06:04.742Z</time>
      </trkpt>
      <trkpt lat="45.25884" lon="-0.9925">
        <ele>73.207668</ele>
        <time>2022-12-23T11:06:07.748Z</time>
      </trkpt>
      <trkpt lat="45.25874" lon="-0.9926">
        <ele>73.124686</ele>
        <time>2022-12-23T11:06:10.749Z</time>
      </trkpt>
      <trkpt lat="45.25864" lon="-0.99271">
        <ele>73.039467</ele>
        <time>2022-12-23T11:06:13.738Z</time>
      </trkpt>
      <trkpt lat="45.25855" lon="-0.9928">
        <ele>72.963159</ele>
        <time>2022-12-23T11:06:16.753Z</time>
      </trkpt>
      <trkpt lat="45.25847" lon="-0.99289">
        <ele>72.897073</ele>
        <time>2022-12-23T11:06:19.754Z</time>
      </trkpt>
      <trkpt lat="45.25837" lon="-0.99298">
        <ele>72.818513</ele>
        <time>2022-12-23T11:06:23.730Z</time>
      </trkpt>
      <trkpt lat="45.2583" lon="-0.99305">
        <ele>72.75608</ele>
        <time>2022-12-23T11:06:26.738Z</time>
      </trkpt>
      <trkpt lat="45.25822" lon="-0.99313">
        <ele>72.689478</ele>
        <time>2022-12-23T11:06:29.730Z</time>
      </trkpt>
      <trkpt lat="45.25814" lon="-0.99323">
        <ele>72.617223</ele>
        <time>2022-12-23T11:06:32.735Z</time>
      </trkpt>
      <trkpt lat="45.25805" lon="-0.99332">
        <ele>72.542858</ele>
        <time>2022-12-23T11:06:35.746Z</time>
      </trkpt>
      <trkpt lat="45.25796" lon="-0.99341">
        <ele>72.465717</ele>
        <time>2022-12-23T11:06:38.738Z</time>
      </trkpt>
      <trkpt lat="45.25786" lon="-0.99351">
        <ele>72.387729</ele>
        <time>2022-12-23T11:06:41.748Z</time>
      </trkpt>
      <trkpt lat="45.25777" lon="-0.9936">
        <ele>72.312531</ele>
        <time>2022-12-23T11:06:44.752Z</time>
      </trkpt>
      <trkpt lat="45.25768" lon="-0.9937">
        <ele>72.23416</ele>
        <time>2022-12-23T11:06:47.749Z</time>
      </trkpt>
      <trkpt lat="45.25759" lon="-0.9938">
        <ele>72.152294</ele>
        <time>2022-12-23T11:06:50.737Z</time>
      </trkpt>
      <trkpt lat="45.25749" lon="-0.99391">
        <ele>72.070653</ele>
        <time>2022-12-23T11:06:53.750Z</time>
      </trkpt>
      <trkpt lat="45.2574" lon="-0.99402">
        <ele>71.985299</ele>
        <time>2022-12-23T11:06:56.737Z</time>
      </trkpt>
      <trkpt lat="45.2573" lon="-0.99413">
        <ele>71.891678</ele>
        <time>2022-12-23T11:06:59.757Z</time>
      </trkpt>
      <trkpt lat="45.2572" lon="-0.99423">
        <ele>71.797189</ele>
        <time>2022-12-23T11:07:02.751Z</time>
      </trkpt>
      <trkpt lat="45.25709" lon="-0.99434">
        <ele>71.699054</ele>
        <time>2022-12-23T11:07:05.759Z</time>
      </trkpt>
      <trkpt lat="45.25699" lon="-0.99446">
        <ele>71.600567</ele>
        <time>2022-12-23T11:07:08.749Z</time>
      </trkpt>
      <trkpt lat="45.25688" lon="-0.99457">
        <ele>71.503057</ele>
        <time>2022-12-23T11:07:11.758Z</time>
      </trkpt>
      <trkpt lat="45.25678" lon="-0.99467">
        <ele>71.407969</ele>
        <time>2022-12-23T11:07:14.751Z</time>
      </trkpt>
      <trkpt lat="45.25667" lon="-0.99478">
        <ele>71.308599</ele>
        <time>2022-12-23T11:07:17.741Z</time>
      </trkpt>
      <trkpt lat="45.25657" lon="-0.99489">
        <ele>71.209867</ele>
        <time>2022-12-23T11:07:20.750Z</time>
      </trkpt>
      <trkpt lat="45.25646" lon="-0.99499">
        <ele>71.112974</ele>
        <time>2022-12-23T11:07:23.761Z</time>
      </trkpt>
      <trkpt lat="45.25636" lon="-0.99508">
        <ele>71.021272</ele>
        <time>2022-12-23T11:07:26.752Z</time>
      </trkpt>
      <trkpt lat="45.25627" lon="-0.99517">
        <ele>70.937246</ele>
        <time>2022-12-23T11:07:29.731Z</time>
      </trkpt>
      <trkpt lat="45.25618" lon="-0.99525">
        <ele>70.8615</ele>
        <time>2022-12-23T11:07:32.751Z</time>
      </trkpt>
      <trkpt lat="45.2561" lon="-0.99533">
        <ele>70.78668</ele>
        <time>2022-12-23T11:07:35.750Z</time>
      </trkpt>
      <trkpt lat="45.25601" lon="-0.99542">
        <ele>70.702301</ele>
        <time>2022-12-23T11:07:38.742Z</time>
      </trkpt>
      <trkpt lat="45.25592" lon="-0.99552">
        <ele>70.631252</ele>
        <time>2022-12-23T11:07:41.751Z</time>
      </trkpt>
      <trkpt lat="45.25582" lon="-0.9956">
        <ele>70.585751</ele>
        <time>2022-12-23T11:07:44.760Z</time>
      </trkpt>
      <trkpt lat="45.25572" lon="-0.99569">
        <ele>70.539318</ele>
        <time>2022-12-23T11:07:47.756Z</time>
      </trkpt>
      <trkpt lat="45.25562" lon="-0.99578">
        <ele>70.491639</ele>
        <time>2022-12-23T11:07:50.745Z</time>
      </trkpt>
      <trkpt lat="45.25552" lon="-0.99588">
        <ele>70.4417</ele>
        <time>2022-12-23T11:07:53.756Z</time>
      </trkpt>
      <trkpt lat="45.25542" lon="-0.99598">
        <ele>70.390268</ele>
        <time>2022-12-23T11:07:56.755Z</time>
      </trkpt>
      <trkpt lat="45.25532" lon="-0.99608">
        <ele>70.340168</ele>
        <time>2022-12-23T11:07:59.751Z</time>
      </trkpt>
      <trkpt lat="45.25522" lon="-0.99618">
        <ele>70.289888</ele>
        <time>2022-12-23T11:08:02.752Z</time>
      </trkpt>
      <trkpt lat="45.25512" lon="-0.99629">
        <ele>70.240276</ele>
        <time>2022-12-23T11:08:05.757Z</time>
      </trkpt>
      <trkpt lat="45.25503" lon="-0.99638">
        <ele>70.194971</ele>
        <time>2022-12-23T11:08:08.758Z</time>
      </trkpt>
      <trkpt lat="45.25494" lon="-0.99647">
        <ele>70.148474</ele>
        <time>2022-12-23T11:08:11.755Z</time>
      </trkpt>
      <trkpt lat="45.25484" lon="-0.99657">
        <ele>70.099516</ele>
        <time>2022-12-23T11:08:14.734Z</time>
      </trkpt>
      <trkpt lat="45.25474" lon="-0.99667">
        <ele>70.051397</ele>
        <time>2022-12-23T11:08:17.731Z</time>
      </trkpt>
      <trkpt lat="45.25465" lon="-0.99675">
        <ele>70.005706</ele>
        <time>2022-12-23T11:08:20.751Z</time>
      </trkpt>
      <trkpt lat="45.25456" lon="-0.99685">
        <ele>69.959347</ele>
        <time>2022-12-23T11:08:23.752Z</time>
      </trkpt>
      <trkpt lat="45.25446" lon="-0.99695">
        <ele>69.929577</ele>
        <time>2022-12-23T11:08:26.745Z</time>
      </trkpt>
      <trkpt lat="45.25436" lon="-0.99705">
        <ele>70.033836</ele>
        <time>2022-12-23T11:08:29.752Z</time>
      </trkpt>
      <trkpt lat="45.25426" lon="-0.99716">
        <ele>70.13981</ele>
        <time>2022-12-23T11:08:32.753Z</time>
      </trkpt>
      <trkpt lat="45.25416" lon="-0.99726">
        <ele>70.245784</ele>
        <time>2022-12-23T11:08:35.753Z</time>
      </trkpt>
      <trkpt lat="45.25406" lon="-0.99737">
        <ele>70.350057</ele>
        <time>2022-12-23T11:08:38.752Z</time>
      </trkpt>
      <trkpt lat="45.25397" lon="-0.99745">
        <ele>70.43901</ele>
        <time>2022-12-23T11:08:41.766Z</time>
      </trkpt>
      <trkpt lat="45.25389" lon="-0.99754">
        <ele>70.521804</ele>
        <time>2022-12-23T11:08:44.743Z</time>
      </trkpt>
      <trkpt lat="45.2538" lon="-0.99761">
        <ele>70.607047</ele>
        <time>2022-12-23T11:08:47.753Z</time>
      </trkpt>
      <trkpt lat="45.25371" lon="-0.99771">
        <ele>70.702075</ele>
        <time>2022-12-23T11:08:50.737Z</time>
      </trkpt>
      <trkpt lat="45.25362" lon="-0.9978">
        <ele>70.80052</ele>
        <time>2022-12-23T11:08:53.754Z</time>
      </trkpt>
      <trkpt lat="45.25352" lon="-0.9979">
        <ele>70.901396</ele>
        <time>2022-12-23T11:08:56.750Z</time>
      </trkpt>
      <trkpt lat="45.25341" lon="-0.99799">
        <ele>71.004324</ele>
        <time>2022-12-23T11:08:59.752Z</time>
      </trkpt>
      <trkpt lat="45.25331" lon="-0.9981">
        <ele>71.110329</ele>
        <time>2022-12-23T11:09:02.753Z</time>
      </trkpt>
      <trkpt lat="45.25321" lon="-0.99821">
        <ele>71.216636</ele>
        <time>2022-12-23T11:09:05.754Z</time>
      </trkpt>
      <trkpt lat="45.25311" lon="-0.99831">
        <ele>71.324311</ele>
        <time>2022-12-23T11:09:08.739Z</time>
      </trkpt>
      <trkpt lat="45.253" lon="-0.99841">
        <ele>71.430742</ele>
        <time>2022-12-23T11:09:11.743Z</time>
      </trkpt>
      <trkpt lat="45.2529" lon="-0.99852">
        <ele>71.544583</ele>
        <time>2022-12-23T11:09:14.755Z</time>
      </trkpt>
      <trkpt lat="45.2528" lon="-0.99862">
        <ele>71.659546</ele>
        <time>2022-12-23T11:09:17.755Z</time>
      </trkpt>
      <trkpt lat="45.25269" lon="-0.99872">
        <ele>71.776416</ele>
        <time>2022-12-23T11:09:20.749Z</time>
      </trkpt>
      <trkpt lat="45.2526" lon="-0.99881">
        <ele>71.885036</ele>
        <time>2022-12-23T11:09:23.745Z</time>
      </trkpt>
      <trkpt lat="45.25251" lon="-0.9989">
        <ele>71.980839</ele>
        <time>2022-12-23T11:09:26.753Z</time>
      </trkpt>
      <trkpt lat="45.25242" lon="-0.99899">
        <ele>72.080779</ele>
        <time>2022-12-23T11:09:29.731Z</time>
      </trkpt>
      <trkpt lat="45.25233" lon="-0.99908">
        <ele>72.185604</ele>
        <time>2022-12-23T11:09:32.740Z</time>
      </trkpt>
      <trkpt lat="45.25224" lon="-0.99918">
        <ele>72.294622</ele>
        <time>2022-12-23T11:09:35.754Z</time>
      </trkpt>
      <trkpt lat="45.25214" lon="-0.99928">
        <ele>72.404335</ele>
        <time>2022-12-23T11:09:38.750Z</time>
      </trkpt>
      <trkpt lat="45.25204" lon="-0.99937">
        <ele>72.51485</ele>
        <time>2022-12-23T11:09:41.753Z</time>
      </trkpt>
      <trkpt lat="45.25194" lon="-0.99947">
        <ele>72.626433</ele>
        <time>2022-12-23T11:09:44.749Z</time>
      </trkpt>
      <trkpt lat="45.25184" lon="-0.99958">
        <ele>72.744124</ele>
        <time>2022-12-23T11:09:47.753Z</time>
      </trkpt>
      <trkpt lat="45.25174" lon="-0.99968">
        <ele>72.85458</ele>
        <time>2022-12-23T11:09:50.749Z</time>
      </trkpt>
      <trkpt lat="45.25166" lon="-0.99978">
        <ele>72.950977</ele>
        <time>2022-12-23T11:09:53.756Z</time>
      </trkpt>
      <trkpt lat="45.25157" lon="-0.99986">
        <ele>73.045674</ele>
        <time>2022-12-23T11:09:56.732Z</time>
      </trkpt>
      <trkpt lat="45.25148" lon="-0.99995">
        <ele>73.150936</ele>
        <time>2022-12-23T11:09:59.751Z</time>
      </trkpt>
      <trkpt lat="45.25139" lon="-1.00004">
        <ele>73.259872</ele>
        <time>2022-12-23T11:10:02.746Z</time>
      </trkpt>
      <trkpt lat="45.25129" lon="-1.00014">
        <ele>73.378984</ele>
        <time>2022-12-23T11:10:05.750Z</time>
      </trkpt>
      <trkpt lat="45.25119" lon="-1.00024">
        <ele>73.496481</ele>
        <time>2022-12-23T11:10:08.750Z</time>
      </trkpt>
      <trkpt lat="45.25109" lon="-1.00034">
        <ele>73.612811</ele>
        <time>2022-12-23T11:10:11.751Z</time>
      </trkpt>
      <trkpt lat="45.25099" lon="-1.00045">
        <ele>73.730697</ele>
        <time>2022-12-23T11:10:14.752Z</time>
      </trkpt>
      <trkpt lat="45.25089" lon="-1.00054">
        <ele>73.845469</ele>
        <time>2022-12-23T11:10:17.751Z</time>
      </trkpt>
      <trkpt lat="45.25079" lon="-1.00064">
        <ele>73.960345</ele>
        <time>2022-12-23T11:10:20.745Z</time>
      </trkpt>
      <trkpt lat="45.25069" lon="-1.00074">
        <ele>74.076297</ele>
        <time>2022-12-23T11:10:23.753Z</time>
      </trkpt>
      <trkpt lat="45.25059" lon="-1.00084">
        <ele>74.193797</ele>
        <time>2022-12-23T11:10:26.752Z</time>
      </trkpt>
      <trkpt lat="45.25049" lon="-1.00094">
        <ele>74.31285</ele>
        <time>2022-12-23T11:10:29.755Z</time>
      </trkpt>
      <trkpt lat="45.25038" lon="-1.00104">
        <ele>74.431922</ele>
        <time>2022-12-23T11:10:32.736Z</time>
      </trkpt>
      <trkpt lat="45.25029" lon="-1.00113">
        <ele>74.543239</ele>
        <time>2022-12-23T11:10:35.759Z</time>
      </trkpt>
      <trkpt lat="45.2502" lon="-1.00123">
        <ele>74.649548</ele>
        <time>2022-12-23T11:10:38.754Z</time>
      </trkpt>
      <trkpt lat="45.25011" lon="-1.00133">
        <ele>74.757731</ele>
        <time>2022-12-23T11:10:41.755Z</time>
      </trkpt>
      <trkpt lat="45.25002" lon="-1.00142">
        <ele>74.802075</ele>
        <time>2022-12-23T11:10:44.751Z</time>
      </trkpt>
      <trkpt lat="45.24994" lon="-1.00151">
        <ele>74.805328</ele>
        <time>2022-12-23T11:10:47.759Z</time>
      </trkpt>
      <trkpt lat="45.24986" lon="-1.0016">
        <ele>74.808551</ele>
        <time>2022-12-23T11:10:50.730Z</time>
      </trkpt>
      <trkpt lat="45.24977" lon="-1.00168">
        <ele>74.811828</ele>
        <time>2022-12-23T11:10:53.754Z</time>
      </trkpt>
      <trkpt lat="45.24968" lon="-1.00177">
        <ele>74.815418</ele>
        <time>2022-12-23T11:10:56.732Z</time>
      </trkpt>
      <trkpt lat="45.2496" lon="-1.00188">
        <ele>74.819037</ele>
        <time>2022-12-23T11:10:59.731Z</time>
      </trkpt>
      <trkpt lat="45.24952" lon="-1.00198">
        <ele>74.822368</ele>
        <time>2022-12-23T11:11:02.739Z</time>
      </trkpt>
      <trkpt lat="45.24944" lon="-1.00208">
        <ele>74.825756</ele>
        <time>2022-12-23T11:11:05.755Z</time>
      </trkpt>
      <trkpt lat="45.24935" lon="-1.00218">
        <ele>74.829279</ele>
        <time>2022-12-23T11:11:08.732Z</time>
      </trkpt>
      <trkpt lat="45.24926" lon="-1.00228">
        <ele>74.832964</ele>
        <time>2022-12-23T11:11:11.753Z</time>
      </trkpt>
      <trkpt lat="45.24917" lon="-1.00239">
        <ele>74.836902</ele>
        <time>2022-12-23T11:11:14.753Z</time>
      </trkpt>
      <trkpt lat="45.24907" lon="-1.00249">
        <ele>74.840621</ele>
        <time>2022-12-23T11:11:17.747Z</time>
      </trkpt>
      <trkpt lat="45.24899" lon="-1.00257">
        <ele>74.844</ele>
        <time>2022-12-23T11:11:20.751Z</time>
      </trkpt>
      <trkpt lat="45.24891" lon="-1.00265">
        <ele>74.847106</ele>
        <time>2022-12-23T11:11:23.749Z</time>
      </trkpt>
      <trkpt lat="45.24882" lon="-1.00275">
        <ele>74.850748</ele>
        <time>2022-12-23T11:11:27.753Z</time>
      </trkpt>
      <trkpt lat="45.24874" lon="-1.00284">
        <ele>74.853946</ele>
        <time>2022-12-23T11:11:31.755Z</time>
      </trkpt>
      <trkpt lat="45.24866" lon="-1.00293">
        <ele>74.857052</ele>
        <time>2022-12-23T11:11:35.752Z</time>
      </trkpt>
      <trkpt lat="45.24859" lon="-1.003">
        <ele>74.736491</ele>
        <time>2022-12-23T11:11:38.756Z</time>
      </trkpt>
      <trkpt lat="45.2485" lon="-1.00308">
        <ele>74.589433</ele>
        <time>2022-12-23T11:11:41.727Z</time>
      </trkpt>
      <trkpt lat="45.24842" lon="-1.00317">
        <ele>74.433432</ele>
        <time>2022-12-23T11:11:44.733Z</time>
      </trkpt>
      <trkpt lat="45.24833" lon="-1.00326">
        <ele>74.270818</ele>
        <time>2022-12-23T11:11:47.732Z</time>
      </trkpt>
      <trkpt lat="45.24823" lon="-1.00334">
        <ele>74.111141</ele>
        <time>2022-12-23T11:11:50.739Z</time>
      </trkpt>
      <trkpt lat="45.24815" lon="-1.00343">
        <ele>73.954359</ele>
        <time>2022-12-23T11:11:53.752Z</time>
      </trkpt>
      <trkpt lat="45.24806" lon="-1.00353">
        <ele>73.795342</ele>
        <time>2022-12-23T11:11:56.756Z</time>
      </trkpt>
      <trkpt lat="45.24797" lon="-1.00361">
        <ele>73.636104</ele>
        <time>2022-12-23T11:11:59.745Z</time>
      </trkpt>
      <trkpt lat="45.24788" lon="-1.00369">
        <ele>73.481233</ele>
        <time>2022-12-23T11:12:02.752Z</time>
      </trkpt>
      <trkpt lat="45.2478" lon="-1.00378">
        <ele>73.325834</ele>
        <time>2022-12-23T11:12:05.747Z</time>
      </trkpt>
      <trkpt lat="45.24771" lon="-1.00386">
        <ele>73.169171</ele>
        <time>2022-12-23T11:12:08.755Z</time>
      </trkpt>
      <trkpt lat="45.24763" lon="-1.00394">
        <ele>73.033993</ele>
        <time>2022-12-23T11:12:11.750Z</time>
      </trkpt>
      <trkpt lat="45.24754" lon="-1.00403">
        <ele>72.872027</ele>
        <time>2022-12-23T11:12:15.745Z</time>
      </trkpt>
      <trkpt lat="45.24747" lon="-1.00411">
        <ele>72.736352</ele>
        <time>2022-12-23T11:12:18.743Z</time>
      </trkpt>
      <trkpt lat="45.24738" lon="-1.00419">
        <ele>72.582746</ele>
        <time>2022-12-23T11:12:21.737Z</time>
      </trkpt>
      <trkpt lat="45.2473" lon="-1.00427">
        <ele>72.431357</ele>
        <time>2022-12-23T11:12:24.754Z</time>
      </trkpt>
      <trkpt lat="45.24722" lon="-1.00436">
        <ele>72.290262</ele>
        <time>2022-12-23T11:12:27.754Z</time>
      </trkpt>
      <trkpt lat="45.24706" lon="-1.00452">
        <ele>72.27805</ele>
        <time>2022-12-23T11:13:15.758Z</time>
      </trkpt>
      <trkpt lat="45.24698" lon="-1.00461">
        <ele>72.31617</ele>
        <time>2022-12-23T11:13:19.736Z</time>
      </trkpt>
      <trkpt lat="45.24688" lon="-1.00471">
        <ele>72.362476</ele>
        <time>2022-12-23T11:13:23.730Z</time>
      </trkpt>
      <trkpt lat="45.2468" lon="-1.00479">
        <ele>72.399625</ele>
        <time>2022-12-23T11:13:26.748Z</time>
      </trkpt>
      <trkpt lat="45.24671" lon="-1.00488">
        <ele>72.440364</ele>
        <time>2022-12-23T11:13:29.751Z</time>
      </trkpt>
      <trkpt lat="45.24663" lon="-1.00498">
        <ele>72.483618</ele>
        <time>2022-12-23T11:13:32.746Z</time>
      </trkpt>
      <trkpt lat="45.24653" lon="-1.00508">
        <ele>72.527732</ele>
        <time>2022-12-23T11:13:35.757Z</time>
      </trkpt>
      <trkpt lat="45.24644" lon="-1.00517">
        <ele>72.569371</ele>
        <time>2022-12-23T11:13:38.746Z</time>
      </trkpt>
      <trkpt lat="45.24635" lon="-1.00526">
        <ele>72.612411</ele>
        <time>2022-12-23T11:13:41.734Z</time>
      </trkpt>
      <trkpt lat="45.24626" lon="-1.00536">
        <ele>72.656371</ele>
        <time>2022-12-23T11:13:44.754Z</time>
      </trkpt>
      <trkpt lat="45.24616" lon="-1.00545">
        <ele>72.701464</ele>
        <time>2022-12-23T11:13:47.744Z</time>
      </trkpt>
      <trkpt lat="45.24606" lon="-1.00555">
        <ele>72.745116</ele>
        <time>2022-12-23T11:13:50.750Z</time>
      </trkpt>
      <trkpt lat="45.24597" lon="-1.00564">
        <ele>72.788791</ele>
        <time>2022-12-23T11:13:53.762Z</time>
      </trkpt>
      <trkpt lat="45.24588" lon="-1.00573">
        <ele>72.831831</ele>
        <time>2022-12-23T11:13:56.735Z</time>
      </trkpt>
      <trkpt lat="45.24578" lon="-1.00583">
        <ele>72.876569</ele>
        <time>2022-12-23T11:13:59.758Z</time>
      </trkpt>
      <trkpt lat="45.24568" lon="-1.00594">
        <ele>72.900307</ele>
        <time>2022-12-23T11:14:02.758Z</time>
      </trkpt>
      <trkpt lat="45.24558" lon="-1.00604">
        <ele>72.893543</ele>
        <time>2022-12-23T11:14:05.756Z</time>
      </trkpt>
      <trkpt lat="45.24548" lon="-1.00615">
        <ele>72.886756</ele>
        <time>2022-12-23T11:14:08.752Z</time>
      </trkpt>
      <trkpt lat="45.24537" lon="-1.00625">
        <ele>72.879948</ele>
        <time>2022-12-23T11:14:11.753Z</time>
      </trkpt>
      <trkpt lat="45.24527" lon="-1.00635">
        <ele>72.873115</ele>
        <time>2022-12-23T11:14:14.754Z</time>
      </trkpt>
      <trkpt lat="45.24516" lon="-1.00645">
        <ele>72.866417</ele>
        <time>2022-12-23T11:14:17.759Z</time>
      </trkpt>
      <trkpt lat="45.24506" lon="-1.00655">
        <ele>72.859785</ele>
        <time>2022-12-23T11:14:20.751Z</time>
      </trkpt>
      <trkpt lat="45.24498" lon="-1.00664">
        <ele>72.853965</ele>
        <time>2022-12-23T11:14:23.750Z</time>
      </trkpt>
      <trkpt lat="45.2449" lon="-1.00672">
        <ele>72.848826</ele>
        <time>2022-12-23T11:14:26.753Z</time>
      </trkpt>
      <trkpt lat="45.24482" lon="-1.0068">
        <ele>72.843666</ele>
        <time>2022-12-23T11:14:29.751Z</time>
      </trkpt>
      <trkpt lat="45.24474" lon="-1.00688">
        <ele>72.838083</ele>
        <time>2022-12-23T11:14:32.758Z</time>
      </trkpt>
      <trkpt lat="45.24465" lon="-1.00698">
        <ele>72.832376</ele>
        <time>2022-12-23T11:14:35.751Z</time>
      </trkpt>
      <trkpt lat="45.24457" lon="-1.00708">
        <ele>72.826461</ele>
        <time>2022-12-23T11:14:38.732Z</time>
      </trkpt>
      <trkpt lat="45.24448" lon="-1.00717">
        <ele>72.820399</ele>
        <time>2022-12-23T11:14:41.732Z</time>
      </trkpt>
      <trkpt lat="45.24438" lon="-1.00725">
        <ele>72.814467</ele>
        <time>2022-12-23T11:14:44.757Z</time>
      </trkpt>
      <trkpt lat="45.2443" lon="-1.00733">
        <ele>72.808863</ele>
        <time>2022-12-23T11:14:47.762Z</time>
      </trkpt>
      <trkpt lat="45.24422" lon="-1.00741">
        <ele>72.755095</ele>
        <time>2022-12-23T11:14:50.752Z</time>
      </trkpt>
      <trkpt lat="45.24414" lon="-1.0075">
        <ele>72.642575</ele>
        <time>2022-12-23T11:14:53.730Z</time>
      </trkpt>
      <trkpt lat="45.24405" lon="-1.00758">
        <ele>72.519172</ele>
        <time>2022-12-23T11:14:56.726Z</time>
      </trkpt>
      <trkpt lat="45.24396" lon="-1.00768">
        <ele>72.394946</ele>
        <time>2022-12-23T11:14:59.725Z</time>
      </trkpt>
      <trkpt lat="45.24386" lon="-1.00777">
        <ele>72.268887</ele>
        <time>2022-12-23T11:15:02.724Z</time>
      </trkpt>
      <trkpt lat="45.24377" lon="-1.00787">
        <ele>72.137862</ele>
        <time>2022-12-23T11:15:05.739Z</time>
      </trkpt>
      <trkpt lat="45.24367" lon="-1.00796">
        <ele>72.005035</ele>
        <time>2022-12-23T11:15:08.754Z</time>
      </trkpt>
      <trkpt lat="45.24357" lon="-1.00806">
        <ele>71.872207</ele>
        <time>2022-12-23T11:15:11.750Z</time>
      </trkpt>
      <trkpt lat="45.24347" lon="-1.00816">
        <ele>71.7353</ele>
        <time>2022-12-23T11:15:14.723Z</time>
      </trkpt>
      <trkpt lat="45.24337" lon="-1.00825">
        <ele>71.603801</ele>
        <time>2022-12-23T11:15:17.741Z</time>
      </trkpt>
      <trkpt lat="45.24328" lon="-1.00835">
        <ele>71.474598</ele>
        <time>2022-12-23T11:15:20.734Z</time>
      </trkpt>
      <trkpt lat="45.24318" lon="-1.00845">
        <ele>71.341281</ele>
        <time>2022-12-23T11:15:23.743Z</time>
      </trkpt>
      <trkpt lat="45.24309" lon="-1.00855">
        <ele>71.206192</ele>
        <time>2022-12-23T11:15:26.742Z</time>
      </trkpt>
      <trkpt lat="45.24298" lon="-1.00865">
        <ele>71.068266</ele>
        <time>2022-12-23T11:15:29.751Z</time>
      </trkpt>
      <trkpt lat="45.24289" lon="-1.00875">
        <ele>70.939521</ele>
        <time>2022-12-23T11:15:32.753Z</time>
      </trkpt>
      <trkpt lat="45.24279" lon="-1.00884">
        <ele>70.80703</ele>
        <time>2022-12-23T11:15:35.743Z</time>
      </trkpt>
      <trkpt lat="45.24269" lon="-1.00894">
        <ele>70.826409</ele>
        <time>2022-12-23T11:15:38.751Z</time>
      </trkpt>
      <trkpt lat="45.2426" lon="-1.00904">
        <ele>70.847177</ele>
        <time>2022-12-23T11:15:41.738Z</time>
      </trkpt>
      <trkpt lat="45.24249" lon="-1.00914">
        <ele>70.868441</ele>
        <time>2022-12-23T11:15:44.753Z</time>
      </trkpt>
      <trkpt lat="45.24239" lon="-1.00924">
        <ele>70.88949</ele>
        <time>2022-12-23T11:15:47.752Z</time>
      </trkpt>
      <trkpt lat="45.24229" lon="-1.00934">
        <ele>70.911171</ele>
        <time>2022-12-23T11:15:50.750Z</time>
      </trkpt>
      <trkpt lat="45.24219" lon="-1.00944">
        <ele>70.933073</ele>
        <time>2022-12-23T11:15:53.755Z</time>
      </trkpt>
      <trkpt lat="45.24208" lon="-1.00954">
        <ele>70.954333</ele>
        <time>2022-12-23T11:15:56.752Z</time>
      </trkpt>
      <trkpt lat="45.24199" lon="-1.00963">
        <ele>70.973998</ele>
        <time>2022-12-23T11:15:59.751Z</time>
      </trkpt>
      <trkpt lat="45.24191" lon="-1.00972">
        <ele>70.991681</ele>
        <time>2022-12-23T11:16:02.735Z</time>
      </trkpt>
      <trkpt lat="45.24181" lon="-1.00981">
        <ele>71.01105</ele>
        <time>2022-12-23T11:16:05.753Z</time>
      </trkpt>
      <trkpt lat="45.24171" lon="-1.0099">
        <ele>71.031893</ele>
        <time>2022-12-23T11:16:08.751Z</time>
      </trkpt>
      <trkpt lat="45.24161" lon="-1.01">
        <ele>71.052872</ele>
        <time>2022-12-23T11:16:11.752Z</time>
      </trkpt>
      <trkpt lat="45.24152" lon="-1.01011">
        <ele>71.073645</ele>
        <time>2022-12-23T11:16:14.751Z</time>
      </trkpt>
      <trkpt lat="45.24142" lon="-1.01021">
        <ele>71.095188</ele>
        <time>2022-12-23T11:16:17.741Z</time>
      </trkpt>
      <trkpt lat="45.24131" lon="-1.01032">
        <ele>71.1203</ele>
        <time>2022-12-23T11:16:20.751Z</time>
      </trkpt>
      <trkpt lat="45.24121" lon="-1.01043">
        <ele>71.22585</ele>
        <time>2022-12-23T11:16:23.752Z</time>
      </trkpt>
      <trkpt lat="45.24111" lon="-1.01054">
        <ele>71.332437</ele>
        <time>2022-12-23T11:16:26.752Z</time>
      </trkpt>
      <trkpt lat="45.241" lon="-1.01065">
        <ele>71.440973</ele>
        <time>2022-12-23T11:16:29.734Z</time>
      </trkpt>
      <trkpt lat="45.2409" lon="-1.01076">
        <ele>71.544847</ele>
        <time>2022-12-23T11:16:32.754Z</time>
      </trkpt>
      <trkpt lat="45.24079" lon="-1.01087">
        <ele>71.651371</ele>
        <time>2022-12-23T11:16:35.759Z</time>
      </trkpt>
      <trkpt lat="45.24068" lon="-1.01098">
        <ele>71.759947</ele>
        <time>2022-12-23T11:16:38.752Z</time>
      </trkpt>
      <trkpt lat="45.24058" lon="-1.01109">
        <ele>71.865472</ele>
        <time>2022-12-23T11:16:41.751Z</time>
      </trkpt>
      <trkpt lat="45.24049" lon="-1.01118">
        <ele>71.95409</ele>
        <time>2022-12-23T11:16:44.742Z</time>
      </trkpt>
      <trkpt lat="45.2404" lon="-1.01127">
        <ele>72.046017</ele>
        <time>2022-12-23T11:16:47.753Z</time>
      </trkpt>
      <trkpt lat="45.2403" lon="-1.01137">
        <ele>72.142587</ele>
        <time>2022-12-23T11:16:50.750Z</time>
      </trkpt>
      <trkpt lat="45.2402" lon="-1.01147">
        <ele>72.242139</ele>
        <time>2022-12-23T11:16:53.754Z</time>
      </trkpt>
      <trkpt lat="45.2401" lon="-1.01157">
        <ele>72.346004</ele>
        <time>2022-12-23T11:16:56.745Z</time>
      </trkpt>
      <trkpt lat="45.23999" lon="-1.01168">
        <ele>72.452865</ele>
        <time>2022-12-23T11:16:59.737Z</time>
      </trkpt>
      <trkpt lat="45.23991" lon="-1.01176">
        <ele>72.530534</ele>
        <time>2022-12-23T11:17:01.754Z</time>
      </trkpt>
      <trkpt lat="45.23983" lon="-1.01183">
        <ele>72.615439</ele>
        <time>2022-12-23T11:17:03.757Z</time>
      </trkpt>
      <trkpt lat="45.23975" lon="-1.01191">
        <ele>72.728925</ele>
        <time>2022-12-23T11:17:05.747Z</time>
      </trkpt>
      <trkpt lat="45.23967" lon="-1.01198">
        <ele>72.835926</ele>
        <time>2022-12-23T11:17:07.756Z</time>
      </trkpt>
      <trkpt lat="45.2396" lon="-1.01205">
        <ele>72.940481</ele>
        <time>2022-12-23T11:17:09.756Z</time>
      </trkpt>
      <trkpt lat="45.23949" lon="-1.01216">
        <ele>73.093518</ele>
        <time>2022-12-23T11:17:12.753Z</time>
      </trkpt>
      <trkpt lat="45.23939" lon="-1.01227">
        <ele>73.241387</ele>
        <time>2022-12-23T11:17:15.734Z</time>
      </trkpt>
      <trkpt lat="45.23929" lon="-1.01237">
        <ele>73.384093</ele>
        <time>2022-12-23T11:17:18.753Z</time>
      </trkpt>
      <trkpt lat="45.23919" lon="-1.01248">
        <ele>73.531481</ele>
        <time>2022-12-23T11:17:21.755Z</time>
      </trkpt>
      <trkpt lat="45.23909" lon="-1.01258">
        <ele>73.671804</ele>
        <time>2022-12-23T11:17:24.760Z</time>
      </trkpt>
      <trkpt lat="45.239" lon="-1.01267">
        <ele>73.794922</ele>
        <time>2022-12-23T11:17:27.757Z</time>
      </trkpt>
      <trkpt lat="45.23892" lon="-1.01276">
        <ele>73.918283</ele>
        <time>2022-12-23T11:17:30.753Z</time>
      </trkpt>
      <trkpt lat="45.23883" lon="-1.01285">
        <ele>74.041223</ele>
        <time>2022-12-23T11:17:33.757Z</time>
      </trkpt>
      <trkpt lat="45.23874" lon="-1.01294">
        <ele>74.172612</ele>
        <time>2022-12-23T11:17:36.751Z</time>
      </trkpt>
      <trkpt lat="45.23865" lon="-1.01303">
        <ele>74.301636</ele>
        <time>2022-12-23T11:17:39.754Z</time>
      </trkpt>
      <trkpt lat="45.23855" lon="-1.01313">
        <ele>74.433485</ele>
        <time>2022-12-23T11:17:42.756Z</time>
      </trkpt>
      <trkpt lat="45.23846" lon="-1.01322">
        <ele>74.564852</ele>
        <time>2022-12-23T11:17:45.755Z</time>
      </trkpt>
      <trkpt lat="45.23836" lon="-1.01331">
        <ele>74.672519</ele>
        <time>2022-12-23T11:17:48.756Z</time>
      </trkpt>
      <trkpt lat="45.23827" lon="-1.01341">
        <ele>74.719558</ele>
        <time>2022-12-23T11:17:51.754Z</time>
      </trkpt>
      <trkpt lat="45.23817" lon="-1.0135">
        <ele>74.76698</ele>
        <time>2022-12-23T11:17:54.761Z</time>
      </trkpt>
      <trkpt lat="45.23808" lon="-1.01359">
        <ele>74.813184</ele>
        <time>2022-12-23T11:17:57.751Z</time>
      </trkpt>
      <trkpt lat="45.23798" lon="-1.01369">
        <ele>74.861214</ele>
        <time>2022-12-23T11:18:00.755Z</time>
      </trkpt>
      <trkpt lat="45.23788" lon="-1.01379">
        <ele>74.911407</ele>
        <time>2022-12-23T11:18:03.753Z</time>
      </trkpt>
      <trkpt lat="45.23778" lon="-1.01389">
        <ele>74.96211</ele>
        <time>2022-12-23T11:18:06.756Z</time>
      </trkpt>
      <trkpt lat="45.23768" lon="-1.01399">
        <ele>75.012966</ele>
        <time>2022-12-23T11:18:09.754Z</time>
      </trkpt>
      <trkpt lat="45.23758" lon="-1.01409">
        <ele>75.062514</ele>
        <time>2022-12-23T11:18:12.753Z</time>
      </trkpt>
      <trkpt lat="45.23748" lon="-1.01419">
        <ele>75.112046</ele>
        <time>2022-12-23T11:18:15.737Z</time>
      </trkpt>
      <trkpt lat="45.23738" lon="-1.01429">
        <ele>75.161572</ele>
        <time>2022-12-23T11:18:18.753Z</time>
      </trkpt>
      <trkpt lat="45.23728" lon="-1.01439">
        <ele>75.210269</ele>
        <time>2022-12-23T11:18:21.755Z</time>
      </trkpt>
      <trkpt lat="45.23718" lon="-1.01449">
        <ele>75.26047</ele>
        <time>2022-12-23T11:18:24.734Z</time>
      </trkpt>
      <trkpt lat="45.23708" lon="-1.0146">
        <ele>75.310999</ele>
        <time>2022-12-23T11:18:27.732Z</time>
      </trkpt>
      <trkpt lat="45.23698" lon="-1.0147">
        <ele>75.36169</ele>
        <time>2022-12-23T11:18:30.747Z</time>
      </trkpt>
      <trkpt lat="45.23689" lon="-1.0148">
        <ele>75.38712</ele>
        <time>2022-12-23T11:18:33.738Z</time>
      </trkpt>
      <trkpt lat="45.23679" lon="-1.0149">
        <ele>75.378697</ele>
        <time>2022-12-23T11:18:36.749Z</time>
      </trkpt>
      <trkpt lat="45.2367" lon="-1.01499">
        <ele>75.370646</ele>
        <time>2022-12-23T11:18:39.752Z</time>
      </trkpt>
      <trkpt lat="45.2366" lon="-1.01508">
        <ele>75.362627</ele>
        <time>2022-12-23T11:18:42.754Z</time>
      </trkpt>
      <trkpt lat="45.23651" lon="-1.01518">
        <ele>75.354519</ele>
        <time>2022-12-23T11:18:45.751Z</time>
      </trkpt>
      <trkpt lat="45.23642" lon="-1.01528">
        <ele>75.346527</ele>
        <time>2022-12-23T11:18:48.736Z</time>
      </trkpt>
      <trkpt lat="45.23633" lon="-1.01537">
        <ele>75.338503</ele>
        <time>2022-12-23T11:18:51.752Z</time>
      </trkpt>
      <trkpt lat="45.23623" lon="-1.01547">
        <ele>75.330366</ele>
        <time>2022-12-23T11:18:54.753Z</time>
      </trkpt>
      <trkpt lat="45.23614" lon="-1.01555">
        <ele>75.32231</ele>
        <time>2022-12-23T11:18:57.743Z</time>
      </trkpt>
      <trkpt lat="45.23604" lon="-1.01566">
        <ele>75.313884</ele>
        <time>2022-12-23T11:19:00.754Z</time>
      </trkpt>
      <trkpt lat="45.23594" lon="-1.01576">
        <ele>75.305259</ele>
        <time>2022-12-23T11:19:03.758Z</time>
      </trkpt>
      <trkpt lat="45.23584" lon="-1.01585">
        <ele>75.296686</ele>
        <time>2022-12-23T11:19:06.762Z</time>
      </trkpt>
      <trkpt lat="45.23574" lon="-1.01595">
        <ele>75.288092</ele>
        <time>2022-12-23T11:19:09.752Z</time>
      </trkpt>
      <trkpt lat="45.23564" lon="-1.01605">
        <ele>75.279555</ele>
        <time>2022-12-23T11:19:12.736Z</time>
      </trkpt>
      <trkpt lat="45.23555" lon="-1.01615">
        <ele>75.271679</ele>
        <time>2022-12-23T11:19:15.738Z</time>
      </trkpt>
      <trkpt lat="45.23547" lon="-1.01622">
        <ele>75.264856</ele>
        <time>2022-12-23T11:19:18.743Z</time>
      </trkpt>
      <trkpt lat="45.2354" lon="-1.01631">
        <ele>75.156357</ele>
        <time>2022-12-23T11:19:21.737Z</time>
      </trkpt>
      <trkpt lat="45.23531" lon="-1.01639">
        <ele>75.017123</ele>
        <time>2022-12-23T11:19:24.751Z</time>
      </trkpt>
      <trkpt lat="45.23521" lon="-1.01649">
        <ele>74.864542</ele>
        <time>2022-12-23T11:19:27.754Z</time>
      </trkpt>
      <trkpt lat="45.23512" lon="-1.01659">
        <ele>74.706616</ele>
        <time>2022-12-23T11:19:30.752Z</time>
      </trkpt>
      <trkpt lat="45.23502" lon="-1.01669">
        <ele>74.548672</ele>
        <time>2022-12-23T11:19:33.754Z</time>
      </trkpt>
      <trkpt lat="45.23492" lon="-1.0168">
        <ele>74.388421</ele>
        <time>2022-12-23T11:19:36.754Z</time>
      </trkpt>
      <trkpt lat="45.23483" lon="-1.0169">
        <ele>74.227215</ele>
        <time>2022-12-23T11:19:39.756Z</time>
      </trkpt>
      <trkpt lat="45.23473" lon="-1.017">
        <ele>74.070358</ele>
        <time>2022-12-23T11:19:42.752Z</time>
      </trkpt>
      <trkpt lat="45.23463" lon="-1.0171">
        <ele>73.911891</ele>
        <time>2022-12-23T11:19:45.743Z</time>
      </trkpt>
      <trkpt lat="45.23453" lon="-1.0172">
        <ele>73.75503</ele>
        <time>2022-12-23T11:19:48.754Z</time>
      </trkpt>
      <trkpt lat="45.23444" lon="-1.0173">
        <ele>73.597034</ele>
        <time>2022-12-23T11:19:51.753Z</time>
      </trkpt>
      <trkpt lat="45.23434" lon="-1.0174">
        <ele>73.446569</ele>
        <time>2022-12-23T11:19:54.755Z</time>
      </trkpt>
      <trkpt lat="45.23426" lon="-1.01748">
        <ele>73.313173</ele>
        <time>2022-12-23T11:19:57.750Z</time>
      </trkpt>
      <trkpt lat="45.23418" lon="-1.01755">
        <ele>73.188432</ele>
        <time>2022-12-23T11:20:00.741Z</time>
      </trkpt>
      <trkpt lat="45.2341" lon="-1.01763">
        <ele>73.057991</ele>
        <time>2022-12-23T11:20:03.731Z</time>
      </trkpt>
      <trkpt lat="45.23402" lon="-1.0177">
        <ele>72.932691</ele>
        <time>2022-12-23T11:20:06.754Z</time>
      </trkpt>
      <trkpt lat="45.23393" lon="-1.01779">
        <ele>73.062525</ele>
        <time>2022-12-23T11:20:09.755Z</time>
      </trkpt>
      <trkpt lat="45.23384" lon="-1.01788">
        <ele>73.278877</ele>
        <time>2022-12-23T11:20:12.757Z</time>
      </trkpt>
      <trkpt lat="45.23375" lon="-1.01797">
        <ele>73.491964</ele>
        <time>2022-12-23T11:20:15.756Z</time>
      </trkpt>
      <trkpt lat="45.23366" lon="-1.01807">
        <ele>73.714599</ele>
        <time>2022-12-23T11:20:18.754Z</time>
      </trkpt>
      <trkpt lat="45.23357" lon="-1.01816">
        <ele>73.935646</ele>
        <time>2022-12-23T11:20:21.749Z</time>
      </trkpt>
      <trkpt lat="45.23348" lon="-1.01824">
        <ele>74.151219</ele>
        <time>2022-12-23T11:20:24.756Z</time>
      </trkpt>
      <trkpt lat="45.23339" lon="-1.01833">
        <ele>74.365063</ele>
        <time>2022-12-23T11:20:27.747Z</time>
      </trkpt>
      <trkpt lat="45.2333" lon="-1.01842">
        <ele>74.57412</ele>
        <time>2022-12-23T11:20:30.746Z</time>
      </trkpt>
      <trkpt lat="45.23321" lon="-1.01851">
        <ele>74.791165</ele>
        <time>2022-12-23T11:20:33.759Z</time>
      </trkpt>
      <trkpt lat="45.23312" lon="-1.0186">
        <ele>75.002648</ele>
        <time>2022-12-23T11:20:36.754Z</time>
      </trkpt>
      <trkpt lat="45.23303" lon="-1.0187">
        <ele>75.22687</ele>
        <time>2022-12-23T11:20:39.753Z</time>
      </trkpt>
      <trkpt lat="45.23294" lon="-1.01879">
        <ele>75.451899</ele>
        <time>2022-12-23T11:20:42.751Z</time>
      </trkpt>
      <trkpt lat="45.23284" lon="-1.01889">
        <ele>75.686503</ele>
        <time>2022-12-23T11:20:45.751Z</time>
      </trkpt>
      <trkpt lat="45.23274" lon="-1.01899">
        <ele>75.912317</ele>
        <time>2022-12-23T11:20:48.756Z</time>
      </trkpt>
      <trkpt lat="45.23265" lon="-1.01908">
        <ele>76.138152</ele>
        <time>2022-12-23T11:20:51.762Z</time>
      </trkpt>
      <trkpt lat="45.23256" lon="-1.01916">
        <ele>76.341764</ele>
        <time>2022-12-23T11:20:54.755Z</time>
      </trkpt>
      <trkpt lat="45.23247" lon="-1.01925">
        <ele>76.355091</ele>
        <time>2022-12-23T11:20:58.751Z</time>
      </trkpt>
      <trkpt lat="45.23237" lon="-1.01935">
        <ele>76.245481</ele>
        <time>2022-12-23T11:21:02.752Z</time>
      </trkpt>
      <trkpt lat="45.23229" lon="-1.01943">
        <ele>76.150491</ele>
        <time>2022-12-23T11:21:05.753Z</time>
      </trkpt>
      <trkpt lat="45.2322" lon="-1.01951">
        <ele>76.048955</ele>
        <time>2022-12-23T11:21:08.745Z</time>
      </trkpt>
      <trkpt lat="45.23211" lon="-1.0196">
        <ele>75.946668</ele>
        <time>2022-12-23T11:21:11.752Z</time>
      </trkpt>
      <trkpt lat="45.23202" lon="-1.01969">
        <ele>75.841199</ele>
        <time>2022-12-23T11:21:14.738Z</time>
      </trkpt>
      <trkpt lat="45.23193" lon="-1.01979">
        <ele>75.732755</ele>
        <time>2022-12-23T11:21:17.742Z</time>
      </trkpt>
      <trkpt lat="45.23183" lon="-1.01987">
        <ele>75.629152</ele>
        <time>2022-12-23T11:21:20.740Z</time>
      </trkpt>
      <trkpt lat="45.23174" lon="-1.01996">
        <ele>75.520585</ele>
        <time>2022-12-23T11:21:23.754Z</time>
      </trkpt>
      <trkpt lat="45.23163" lon="-1.02004">
        <ele>75.407239</ele>
        <time>2022-12-23T11:21:26.755Z</time>
      </trkpt>
      <trkpt lat="45.23154" lon="-1.02012">
        <ele>75.299731</ele>
        <time>2022-12-23T11:21:29.754Z</time>
      </trkpt>
      <trkpt lat="45.23144" lon="-1.0202">
        <ele>75.194745</ele>
        <time>2022-12-23T11:21:32.753Z</time>
      </trkpt>
      <trkpt lat="45.23134" lon="-1.02029">
        <ele>75.082174</ele>
        <time>2022-12-23T11:21:35.755Z</time>
      </trkpt>
      <trkpt lat="45.23124" lon="-1.02038">
        <ele>74.969948</ele>
        <time>2022-12-23T11:21:38.749Z</time>
      </trkpt>
      <trkpt lat="45.23113" lon="-1.02046">
        <ele>74.858572</ele>
        <time>2022-12-23T11:21:41.745Z</time>
      </trkpt>
      <trkpt lat="45.23103" lon="-1.02054">
        <ele>74.747197</ele>
        <time>2022-12-23T11:21:44.747Z</time>
      </trkpt>
      <trkpt lat="45.23092" lon="-1.02063">
        <ele>74.764963</ele>
        <time>2022-12-23T11:21:47.752Z</time>
      </trkpt>
      <trkpt lat="45.23082" lon="-1.02071">
        <ele>74.812852</ele>
        <time>2022-12-23T11:21:50.749Z</time>
      </trkpt>
      <trkpt lat="45.23071" lon="-1.02079">
        <ele>74.860671</ele>
        <time>2022-12-23T11:21:53.760Z</time>
      </trkpt>
      <trkpt lat="45.23062" lon="-1.02088">
        <ele>74.90559</ele>
        <time>2022-12-23T11:21:56.753Z</time>
      </trkpt>
      <trkpt lat="45.23054" lon="-1.02094">
        <ele>74.943033</ele>
        <time>2022-12-23T11:21:59.755Z</time>
      </trkpt>
      <trkpt lat="45.23045" lon="-1.02101">
        <ele>74.982477</ele>
        <time>2022-12-23T11:22:02.756Z</time>
      </trkpt>
      <trkpt lat="45.23036" lon="-1.02109">
        <ele>75.025658</ele>
        <time>2022-12-23T11:22:05.751Z</time>
      </trkpt>
      <trkpt lat="45.23026" lon="-1.02117">
        <ele>75.071123</ele>
        <time>2022-12-23T11:22:08.736Z</time>
      </trkpt>
      <trkpt lat="45.23016" lon="-1.02125">
        <ele>75.11728</ele>
        <time>2022-12-23T11:22:11.744Z</time>
      </trkpt>
      <trkpt lat="45.23006" lon="-1.02134">
        <ele>75.162885</ele>
        <time>2022-12-23T11:22:14.750Z</time>
      </trkpt>
      <trkpt lat="45.22997" lon="-1.02141">
        <ele>75.204355</ele>
        <time>2022-12-23T11:22:17.755Z</time>
      </trkpt>
      <trkpt lat="45.22988" lon="-1.0215">
        <ele>75.246548</ele>
        <time>2022-12-23T11:22:20.750Z</time>
      </trkpt>
      <trkpt lat="45.22978" lon="-1.02158">
        <ele>75.291229</ele>
        <time>2022-12-23T11:22:23.762Z</time>
      </trkpt>
      <trkpt lat="45.22969" lon="-1.02167">
        <ele>75.336732</ele>
        <time>2022-12-23T11:22:26.723Z</time>
      </trkpt>
      <trkpt lat="45.22959" lon="-1.02175">
        <ele>75.381368</ele>
        <time>2022-12-23T11:22:29.755Z</time>
      </trkpt>
      <trkpt lat="45.22949" lon="-1.02182">
        <ele>75.425801</ele>
        <time>2022-12-23T11:22:32.754Z</time>
      </trkpt>
      <trkpt lat="45.2294" lon="-1.02189">
        <ele>75.465656</ele>
        <time>2022-12-23T11:22:35.756Z</time>
      </trkpt>
      <trkpt lat="45.22931" lon="-1.02196">
        <ele>75.500925</ele>
        <time>2022-12-23T11:22:38.745Z</time>
      </trkpt>
      <trkpt lat="45.22923" lon="-1.02204">
        <ele>75.535585</ele>
        <time>2022-12-23T11:22:41.752Z</time>
      </trkpt>
      <trkpt lat="45.22914" lon="-1.02211">
        <ele>75.572899</ele>
        <time>2022-12-23T11:22:44.745Z</time>
      </trkpt>
      <trkpt lat="45.22905" lon="-1.02219">
        <ele>75.610341</ele>
        <time>2022-12-23T11:22:47.754Z</time>
      </trkpt>
      <trkpt lat="45.22894" lon="-1.02227">
        <ele>75.652137</ele>
        <time>2022-12-23T11:22:51.752Z</time>
      </trkpt>
      <trkpt lat="45.22884" lon="-1.02235">
        <ele>75.694972</ele>
        <time>2022-12-23T11:22:55.752Z</time>
      </trkpt>
      <trkpt lat="45.22875" lon="-1.02243">
        <ele>75.731724</ele>
        <time>2022-12-23T11:22:58.754Z</time>
      </trkpt>
      <trkpt lat="45.22865" lon="-1.0225">
        <ele>75.771395</ele>
        <time>2022-12-23T11:23:01.749Z</time>
      </trkpt>
      <trkpt lat="45.22856" lon="-1.02258">
        <ele>75.811307</ele>
        <time>2022-12-23T11:23:04.751Z</time>
      </trkpt>
      <trkpt lat="45.22846" lon="-1.02265">
        <ele>75.849919</ele>
        <time>2022-12-23T11:23:07.755Z</time>
      </trkpt>
      <trkpt lat="45.22837" lon="-1.02274">
        <ele>75.888895</ele>
        <time>2022-12-23T11:23:10.754Z</time>
      </trkpt>
      <trkpt lat="45.22827" lon="-1.02282">
        <ele>75.929043</ele>
        <time>2022-12-23T11:23:13.753Z</time>
      </trkpt>
      <trkpt lat="45.22818" lon="-1.02291">
        <ele>75.969661</ele>
        <time>2022-12-23T11:23:16.753Z</time>
      </trkpt>
      <trkpt lat="45.22808" lon="-1.02299">
        <ele>76.010006</ele>
        <time>2022-12-23T11:23:19.744Z</time>
      </trkpt>
      <trkpt lat="45.22798" lon="-1.02307">
        <ele>76.049451</ele>
        <time>2022-12-23T11:23:22.753Z</time>
      </trkpt>
      <trkpt lat="45.22789" lon="-1.02315">
        <ele>76.046722</ele>
        <time>2022-12-23T11:23:25.735Z</time>
      </trkpt>
      <trkpt lat="45.22779" lon="-1.02323">
        <ele>75.846416</ele>
        <time>2022-12-23T11:23:28.753Z</time>
      </trkpt>
      <trkpt lat="45.22768" lon="-1.02331">
        <ele>75.643099</ele>
        <time>2022-12-23T11:23:31.755Z</time>
      </trkpt>
      <trkpt lat="45.22759" lon="-1.02339">
        <ele>75.445513</ele>
        <time>2022-12-23T11:23:34.752Z</time>
      </trkpt>
      <trkpt lat="45.22748" lon="-1.02347">
        <ele>75.244904</ele>
        <time>2022-12-23T11:23:37.755Z</time>
      </trkpt>
      <trkpt lat="45.22739" lon="-1.02356">
        <ele>75.050937</ele>
        <time>2022-12-23T11:23:40.730Z</time>
      </trkpt>
      <trkpt lat="45.22729" lon="-1.02364">
        <ele>74.85512</ele>
        <time>2022-12-23T11:23:43.748Z</time>
      </trkpt>
      <trkpt lat="45.22719" lon="-1.02373">
        <ele>74.652326</ele>
        <time>2022-12-23T11:23:46.742Z</time>
      </trkpt>
      <trkpt lat="45.22709" lon="-1.02382">
        <ele>74.441901</ele>
        <time>2022-12-23T11:23:49.750Z</time>
      </trkpt>
      <trkpt lat="45.22698" lon="-1.0239">
        <ele>74.225006</ele>
        <time>2022-12-23T11:23:52.731Z</time>
      </trkpt>
      <trkpt lat="45.22687" lon="-1.024">
        <ele>74.008028</ele>
        <time>2022-12-23T11:23:55.753Z</time>
      </trkpt>
      <trkpt lat="45.22677" lon="-1.02409">
        <ele>73.794183</ele>
        <time>2022-12-23T11:23:58.753Z</time>
      </trkpt>
      <trkpt lat="45.22667" lon="-1.02418">
        <ele>73.581438</ele>
        <time>2022-12-23T11:24:01.748Z</time>
      </trkpt>
      <trkpt lat="45.22657" lon="-1.02426">
        <ele>73.387469</ele>
        <time>2022-12-23T11:24:04.747Z</time>
      </trkpt>
      <trkpt lat="45.22648" lon="-1.02433">
        <ele>73.216409</ele>
        <time>2022-12-23T11:24:07.756Z</time>
      </trkpt>
      <trkpt lat="45.2264" lon="-1.0244">
        <ele>73.055301</ele>
        <time>2022-12-23T11:24:10.732Z</time>
      </trkpt>
      <trkpt lat="45.22632" lon="-1.02447">
        <ele>73.035007</ele>
        <time>2022-12-23T11:24:13.737Z</time>
      </trkpt>
      <trkpt lat="45.22623" lon="-1.02455">
        <ele>73.204142</ele>
        <time>2022-12-23T11:24:16.753Z</time>
      </trkpt>
      <trkpt lat="45.22613" lon="-1.02462">
        <ele>73.378974</ele>
        <time>2022-12-23T11:24:19.752Z</time>
      </trkpt>
      <trkpt lat="45.22603" lon="-1.0247">
        <ele>73.56259</ele>
        <time>2022-12-23T11:24:22.748Z</time>
      </trkpt>
      <trkpt lat="45.22593" lon="-1.02478">
        <ele>73.750373</ele>
        <time>2022-12-23T11:24:25.736Z</time>
      </trkpt>
      <trkpt lat="45.22583" lon="-1.02486">
        <ele>73.937603</ele>
        <time>2022-12-23T11:24:28.736Z</time>
      </trkpt>
      <trkpt lat="45.22573" lon="-1.02495">
        <ele>74.127445</ele>
        <time>2022-12-23T11:24:31.755Z</time>
      </trkpt>
      <trkpt lat="45.22563" lon="-1.02504">
        <ele>74.316117</ele>
        <time>2022-12-23T11:24:34.757Z</time>
      </trkpt>
      <trkpt lat="45.22552" lon="-1.02513">
        <ele>74.516737</ele>
        <time>2022-12-23T11:24:37.755Z</time>
      </trkpt>
      <trkpt lat="45.22541" lon="-1.02522">
        <ele>74.715597</ele>
        <time>2022-12-23T11:24:40.747Z</time>
      </trkpt>
      <trkpt lat="45.22531" lon="-1.02531">
        <ele>74.908178</ele>
        <time>2022-12-23T11:24:43.757Z</time>
      </trkpt>
      <trkpt lat="45.2252" lon="-1.0254">
        <ele>75.105156</ele>
        <time>2022-12-23T11:24:46.758Z</time>
      </trkpt>
      <trkpt lat="45.2251" lon="-1.02548">
        <ele>75.301896</ele>
        <time>2022-12-23T11:24:49.756Z</time>
      </trkpt>
      <trkpt lat="45.22499" lon="-1.02557">
        <ele>75.502219</ele>
        <time>2022-12-23T11:24:52.752Z</time>
      </trkpt>
      <trkpt lat="45.22488" lon="-1.02565">
        <ele>75.705341</ele>
        <time>2022-12-23T11:24:55.750Z</time>
      </trkpt>
      <trkpt lat="45.22477" lon="-1.02574">
        <ele>75.891367</ele>
        <time>2022-12-23T11:24:58.746Z</time>
      </trkpt>
      <trkpt lat="45.22466" lon="-1.02582">
        <ele>76.038004</ele>
        <time>2022-12-23T11:25:01.750Z</time>
      </trkpt>
      <trkpt lat="45.22457" lon="-1.02589">
        <ele>76.162568</ele>
        <time>2022-12-23T11:25:04.733Z</time>
      </trkpt>
      <trkpt lat="45.22449" lon="-1.02597">
        <ele>76.284827</ele>
        <time>2022-12-23T11:25:07.748Z</time>
      </trkpt>
      <trkpt lat="45.2244" lon="-1.02604">
        <ele>76.410507</ele>
        <time>2022-12-23T11:25:10.752Z</time>
      </trkpt>
      <trkpt lat="45.2243" lon="-1.02612">
        <ele>76.54633</ele>
        <time>2022-12-23T11:25:13.752Z</time>
      </trkpt>
      <trkpt lat="45.22421" lon="-1.02621">
        <ele>76.682436</ele>
        <time>2022-12-23T11:25:16.754Z</time>
      </trkpt>
      <trkpt lat="45.22411" lon="-1.02628">
        <ele>76.817619</ele>
        <time>2022-12-23T11:25:19.753Z</time>
      </trkpt>
      <trkpt lat="45.22402" lon="-1.02637">
        <ele>76.952112</ele>
        <time>2022-12-23T11:25:22.755Z</time>
      </trkpt>
      <trkpt lat="45.22392" lon="-1.02644">
        <ele>77.085588</ele>
        <time>2022-12-23T11:25:25.756Z</time>
      </trkpt>
      <trkpt lat="45.22383" lon="-1.02652">
        <ele>77.218715</ele>
        <time>2022-12-23T11:25:28.751Z</time>
      </trkpt>
      <trkpt lat="45.22373" lon="-1.02661">
        <ele>77.364515</ele>
        <time>2022-12-23T11:25:31.745Z</time>
      </trkpt>
      <trkpt lat="45.22362" lon="-1.0267">
        <ele>77.511997</ele>
        <time>2022-12-23T11:25:34.754Z</time>
      </trkpt>
      <trkpt lat="45.22352" lon="-1.02678">
        <ele>77.659701</ele>
        <time>2022-12-23T11:25:37.757Z</time>
      </trkpt>
      <trkpt lat="45.22343" lon="-1.02685">
        <ele>77.780468</ele>
        <time>2022-12-23T11:25:40.755Z</time>
      </trkpt>
      <trkpt lat="45.22333" lon="-1.02692">
        <ele>77.922906</ele>
        <time>2022-12-23T11:25:44.736Z</time>
      </trkpt>
      <trkpt lat="45.22324" lon="-1.02699">
        <ele>78.037851</ele>
        <time>2022-12-23T11:25:47.742Z</time>
      </trkpt>
      <trkpt lat="45.22315" lon="-1.02707">
        <ele>77.848654</ele>
        <time>2022-12-23T11:25:50.759Z</time>
      </trkpt>
      <trkpt lat="45.22305" lon="-1.02715">
        <ele>77.64959</ele>
        <time>2022-12-23T11:25:53.748Z</time>
      </trkpt>
      <trkpt lat="45.22295" lon="-1.02724">
        <ele>77.442127</ele>
        <time>2022-12-23T11:25:56.752Z</time>
      </trkpt>
      <trkpt lat="45.22285" lon="-1.02732">
        <ele>77.230122</ele>
        <time>2022-12-23T11:25:59.756Z</time>
      </trkpt>
      <trkpt lat="45.22275" lon="-1.02741">
        <ele>77.013538</ele>
        <time>2022-12-23T11:26:02.743Z</time>
      </trkpt>
      <trkpt lat="45.22264" lon="-1.0275">
        <ele>76.79973</ele>
        <time>2022-12-23T11:26:05.754Z</time>
      </trkpt>
      <trkpt lat="45.22254" lon="-1.02758">
        <ele>76.597873</ele>
        <time>2022-12-23T11:26:08.750Z</time>
      </trkpt>
      <trkpt lat="45.22245" lon="-1.02766">
        <ele>76.397533</ele>
        <time>2022-12-23T11:26:11.755Z</time>
      </trkpt>
      <trkpt lat="45.22235" lon="-1.02775">
        <ele>76.19972</ele>
        <time>2022-12-23T11:26:14.753Z</time>
      </trkpt>
      <trkpt lat="45.22226" lon="-1.02783">
        <ele>76.001746</ele>
        <time>2022-12-23T11:26:17.752Z</time>
      </trkpt>
      <trkpt lat="45.22215" lon="-1.02792">
        <ele>75.780223</ele>
        <time>2022-12-23T11:26:20.750Z</time>
      </trkpt>
      <trkpt lat="45.22204" lon="-1.02801">
        <ele>75.564538</ele>
        <time>2022-12-23T11:26:23.743Z</time>
      </trkpt>
      <trkpt lat="45.22195" lon="-1.0281">
        <ele>75.358751</ele>
        <time>2022-12-23T11:26:26.740Z</time>
      </trkpt>
      <trkpt lat="45.22185" lon="-1.02818">
        <ele>75.155606</ele>
        <time>2022-12-23T11:26:29.750Z</time>
      </trkpt>
      <trkpt lat="45.22176" lon="-1.02825">
        <ele>74.974077</ele>
        <time>2022-12-23T11:26:32.755Z</time>
      </trkpt>
      <trkpt lat="45.22166" lon="-1.02834">
        <ele>74.87372</ele>
        <time>2022-12-23T11:26:36.734Z</time>
      </trkpt>
      <trkpt lat="45.22158" lon="-1.0284">
        <ele>74.90505</ele>
        <time>2022-12-23T11:26:39.751Z</time>
      </trkpt>
      <trkpt lat="45.22149" lon="-1.02847">
        <ele>74.939661</ele>
        <time>2022-12-23T11:26:42.736Z</time>
      </trkpt>
      <trkpt lat="45.2214" lon="-1.02855">
        <ele>74.976471</ele>
        <time>2022-12-23T11:26:45.747Z</time>
      </trkpt>
      <trkpt lat="45.2213" lon="-1.02863">
        <ele>75.015604</ele>
        <time>2022-12-23T11:26:48.759Z</time>
      </trkpt>
      <trkpt lat="45.2212" lon="-1.02871">
        <ele>75.055692</ele>
        <time>2022-12-23T11:26:51.742Z</time>
      </trkpt>
      <trkpt lat="45.22109" lon="-1.0288">
        <ele>75.097156</ele>
        <time>2022-12-23T11:26:54.753Z</time>
      </trkpt>
      <trkpt lat="45.22098" lon="-1.02889">
        <ele>75.140047</ele>
        <time>2022-12-23T11:26:57.739Z</time>
      </trkpt>
      <trkpt lat="45.22087" lon="-1.02897">
        <ele>75.183471</ele>
        <time>2022-12-23T11:27:00.752Z</time>
      </trkpt>
      <trkpt lat="45.22076" lon="-1.02907">
        <ele>75.2269</ele>
        <time>2022-12-23T11:27:03.752Z</time>
      </trkpt>
      <trkpt lat="45.22066" lon="-1.02914">
        <ele>75.266993</ele>
        <time>2022-12-23T11:27:06.754Z</time>
      </trkpt>
      <trkpt lat="45.22057" lon="-1.02922">
        <ele>75.304041</ele>
        <time>2022-12-23T11:27:09.752Z</time>
      </trkpt>
      <trkpt lat="45.22046" lon="-1.02931">
        <ele>75.345589</ele>
        <time>2022-12-23T11:27:12.756Z</time>
      </trkpt>
      <trkpt lat="45.22036" lon="-1.0294">
        <ele>75.38693</ele>
        <time>2022-12-23T11:27:15.753Z</time>
      </trkpt>
      <trkpt lat="45.22026" lon="-1.02948">
        <ele>75.424758</ele>
        <time>2022-12-23T11:27:18.759Z</time>
      </trkpt>
      <trkpt lat="45.22017" lon="-1.02957">
        <ele>75.46275</ele>
        <time>2022-12-23T11:27:21.750Z</time>
      </trkpt>
      <trkpt lat="45.22007" lon="-1.02965">
        <ele>75.538323</ele>
        <time>2022-12-23T11:27:24.752Z</time>
      </trkpt>
      <trkpt lat="45.21998" lon="-1.02973">
        <ele>75.62219</ele>
        <time>2022-12-23T11:27:27.755Z</time>
      </trkpt>
      <trkpt lat="45.21988" lon="-1.02981">
        <ele>75.703295</ele>
        <time>2022-12-23T11:27:30.752Z</time>
      </trkpt>
      <trkpt lat="45.21979" lon="-1.02988">
        <ele>75.784936</ele>
        <time>2022-12-23T11:27:33.751Z</time>
      </trkpt>
      <trkpt lat="45.2197" lon="-1.02995">
        <ele>75.864082</ele>
        <time>2022-12-23T11:27:36.755Z</time>
      </trkpt>
      <trkpt lat="45.21961" lon="-1.03003">
        <ele>75.942581</ele>
        <time>2022-12-23T11:27:39.753Z</time>
      </trkpt>
      <trkpt lat="45.21952" lon="-1.03011">
        <ele>76.024685</ele>
        <time>2022-12-23T11:27:42.751Z</time>
      </trkpt>
      <trkpt lat="45.21942" lon="-1.0302">
        <ele>76.111123</ele>
        <time>2022-12-23T11:27:45.752Z</time>
      </trkpt>
      <trkpt lat="45.21932" lon="-1.03028">
        <ele>76.200023</ele>
        <time>2022-12-23T11:27:48.732Z</time>
      </trkpt>
      <trkpt lat="45.21922" lon="-1.03035">
        <ele>76.281522</ele>
        <time>2022-12-23T11:27:51.754Z</time>
      </trkpt>
      <trkpt lat="45.21914" lon="-1.03041">
        <ele>76.350331</ele>
        <time>2022-12-23T11:27:54.753Z</time>
      </trkpt>
      <trkpt lat="45.21906" lon="-1.03048">
        <ele>76.42397</ele>
        <time>2022-12-23T11:27:57.757Z</time>
      </trkpt>
      <trkpt lat="45.21896" lon="-1.03055">
        <ele>76.504549</ele>
        <time>2022-12-23T11:28:00.754Z</time>
      </trkpt>
      <trkpt lat="45.21887" lon="-1.03064">
        <ele>76.5881</ele>
        <time>2022-12-23T11:28:03.756Z</time>
      </trkpt>
      <trkpt lat="45.21878" lon="-1.03072">
        <ele>76.671314</ele>
        <time>2022-12-23T11:28:06.732Z</time>
      </trkpt>
      <trkpt lat="45.21867" lon="-1.0308">
        <ele>76.75965</ele>
        <time>2022-12-23T11:28:09.749Z</time>
      </trkpt>
      <trkpt lat="45.21856" lon="-1.03088">
        <ele>76.826599</ele>
        <time>2022-12-23T11:28:12.763Z</time>
      </trkpt>
      <trkpt lat="45.21846" lon="-1.03096">
        <ele>76.801472</ele>
        <time>2022-12-23T11:28:15.758Z</time>
      </trkpt>
      <trkpt lat="45.21836" lon="-1.03105">
        <ele>76.776463</ele>
        <time>2022-12-23T11:28:18.741Z</time>
      </trkpt>
      <trkpt lat="45.21825" lon="-1.03113">
        <ele>76.750839</ele>
        <time>2022-12-23T11:28:21.754Z</time>
      </trkpt>
      <trkpt lat="45.21815" lon="-1.03121">
        <ele>76.725713</ele>
        <time>2022-12-23T11:28:24.741Z</time>
      </trkpt>
      <trkpt lat="45.21804" lon="-1.0313">
        <ele>76.701145</ele>
        <time>2022-12-23T11:28:27.747Z</time>
      </trkpt>
      <trkpt lat="45.21794" lon="-1.03139">
        <ele>76.675479</ele>
        <time>2022-12-23T11:28:30.752Z</time>
      </trkpt>
      <trkpt lat="45.21783" lon="-1.03147">
        <ele>76.649704</ele>
        <time>2022-12-23T11:28:33.752Z</time>
      </trkpt>
      <trkpt lat="45.21773" lon="-1.03155">
        <ele>76.624592</ele>
        <time>2022-12-23T11:28:36.752Z</time>
      </trkpt>
      <trkpt lat="45.21763" lon="-1.03164">
        <ele>76.599998</ele>
        <time>2022-12-23T11:28:39.754Z</time>
      </trkpt>
      <trkpt lat="45.21753" lon="-1.03172">
        <ele>76.577221</ele>
        <time>2022-12-23T11:28:42.753Z</time>
      </trkpt>
      <trkpt lat="45.21745" lon="-1.03178">
        <ele>76.557397</ele>
        <time>2022-12-23T11:28:45.749Z</time>
      </trkpt>
      <trkpt lat="45.21735" lon="-1.03187">
        <ele>76.531846</ele>
        <time>2022-12-23T11:28:49.754Z</time>
      </trkpt>
      <trkpt lat="45.21726" lon="-1.03194">
        <ele>76.510711</ele>
        <time>2022-12-23T11:28:52.742Z</time>
      </trkpt>
      <trkpt lat="45.21717" lon="-1.03202">
        <ele>76.488759</ele>
        <time>2022-12-23T11:28:55.750Z</time>
      </trkpt>
      <trkpt lat="45.21707" lon="-1.0321">
        <ele>76.465347</ele>
        <time>2022-12-23T11:28:58.754Z</time>
      </trkpt>
      <trkpt lat="45.21698" lon="-1.03219">
        <ele>76.370848</ele>
        <time>2022-12-23T11:29:01.755Z</time>
      </trkpt>
      <trkpt lat="45.21689" lon="-1.03227">
        <ele>76.221324</ele>
        <time>2022-12-23T11:29:04.741Z</time>
      </trkpt>
      <trkpt lat="45.21679" lon="-1.03236">
        <ele>76.064216</ele>
        <time>2022-12-23T11:29:07.747Z</time>
      </trkpt>
      <trkpt lat="45.21669" lon="-1.03245">
        <ele>75.905534</ele>
        <time>2022-12-23T11:29:10.735Z</time>
      </trkpt>
      <trkpt lat="45.21659" lon="-1.03253">
        <ele>75.748488</ele>
        <time>2022-12-23T11:29:13.754Z</time>
      </trkpt>
      <trkpt lat="45.21648" lon="-1.03262">
        <ele>75.586053</ele>
        <time>2022-12-23T11:29:16.754Z</time>
      </trkpt>
      <trkpt lat="45.21638" lon="-1.03271">
        <ele>75.423619</ele>
        <time>2022-12-23T11:29:19.742Z</time>
      </trkpt>
      <trkpt lat="45.21627" lon="-1.0328">
        <ele>75.257424</ele>
        <time>2022-12-23T11:29:22.748Z</time>
      </trkpt>
      <trkpt lat="45.21617" lon="-1.03288">
        <ele>75.096892</ele>
        <time>2022-12-23T11:29:25.757Z</time>
      </trkpt>
      <trkpt lat="45.21607" lon="-1.03297">
        <ele>74.946089</ele>
        <time>2022-12-23T11:29:28.735Z</time>
      </trkpt>
      <trkpt lat="45.21599" lon="-1.03304">
        <ele>74.815886</ele>
        <time>2022-12-23T11:29:31.753Z</time>
      </trkpt>
      <trkpt lat="45.2159" lon="-1.03311">
        <ele>74.683375</ele>
        <time>2022-12-23T11:29:34.732Z</time>
      </trkpt>
      <trkpt lat="45.21582" lon="-1.03319">
        <ele>74.544517</ele>
        <time>2022-12-23T11:29:37.751Z</time>
      </trkpt>
      <trkpt lat="45.21572" lon="-1.03326">
        <ele>74.397047</ele>
        <time>2022-12-23T11:29:40.749Z</time>
      </trkpt>
      <trkpt lat="45.21561" lon="-1.03334">
        <ele>74.238054</ele>
        <time>2022-12-23T11:29:43.750Z</time>
      </trkpt>
      <trkpt lat="45.21551" lon="-1.03343">
        <ele>74.081192</ele>
        <time>2022-12-23T11:29:46.754Z</time>
      </trkpt>
      <trkpt lat="45.21541" lon="-1.03351">
        <ele>73.987152</ele>
        <time>2022-12-23T11:29:49.754Z</time>
      </trkpt>
      <trkpt lat="45.21531" lon="-1.03359">
        <ele>73.913079</ele>
        <time>2022-12-23T11:29:52.746Z</time>
      </trkpt>
      <trkpt lat="45.21522" lon="-1.03367">
        <ele>73.846367</ele>
        <time>2022-12-23T11:29:55.753Z</time>
      </trkpt>
      <trkpt lat="45.21512" lon="-1.03375">
        <ele>73.778167</ele>
        <time>2022-12-23T11:29:58.739Z</time>
      </trkpt>
      <trkpt lat="45.21502" lon="-1.03383">
        <ele>73.705071</ele>
        <time>2022-12-23T11:30:01.753Z</time>
      </trkpt>
      <trkpt lat="45.21492" lon="-1.03391">
        <ele>73.634043</ele>
        <time>2022-12-23T11:30:04.753Z</time>
      </trkpt>
      <trkpt lat="45.21482" lon="-1.03399">
        <ele>73.560823</ele>
        <time>2022-12-23T11:30:07.752Z</time>
      </trkpt>
      <trkpt lat="45.21472" lon="-1.03406">
        <ele>73.49216</ele>
        <time>2022-12-23T11:30:10.751Z</time>
      </trkpt>
      <trkpt lat="45.21463" lon="-1.03414">
        <ele>73.422162</ele>
        <time>2022-12-23T11:30:13.752Z</time>
      </trkpt>
      <trkpt lat="45.21454" lon="-1.03422">
        <ele>73.359493</ele>
        <time>2022-12-23T11:30:16.749Z</time>
      </trkpt>
      <trkpt lat="45.21446" lon="-1.03428">
        <ele>73.299233</ele>
        <time>2022-12-23T11:30:19.750Z</time>
      </trkpt>
      <trkpt lat="45.21437" lon="-1.03436">
        <ele>73.232977</ele>
        <time>2022-12-23T11:30:22.727Z</time>
      </trkpt>
      <trkpt lat="45.21427" lon="-1.03444">
        <ele>73.162905</ele>
        <time>2022-12-23T11:30:25.743Z</time>
      </trkpt>
      <trkpt lat="45.21417" lon="-1.03453">
        <ele>73.089246</ele>
        <time>2022-12-23T11:30:28.753Z</time>
      </trkpt>
      <trkpt lat="45.21407" lon="-1.03461">
        <ele>73.015715</ele>
        <time>2022-12-23T11:30:31.743Z</time>
      </trkpt>
      <trkpt lat="45.21397" lon="-1.03469">
        <ele>72.947943</ele>
        <time>2022-12-23T11:30:34.753Z</time>
      </trkpt>
      <trkpt lat="45.21388" lon="-1.03477">
        <ele>72.843002</ele>
        <time>2022-12-23T11:30:37.753Z</time>
      </trkpt>
      <trkpt lat="45.21378" lon="-1.03485">
        <ele>72.697581</ele>
        <time>2022-12-23T11:30:40.737Z</time>
      </trkpt>
      <trkpt lat="45.21368" lon="-1.03494">
        <ele>72.549505</ele>
        <time>2022-12-23T11:30:43.753Z</time>
      </trkpt>
      <trkpt lat="45.21357" lon="-1.03502">
        <ele>72.401702</ele>
        <time>2022-12-23T11:30:46.749Z</time>
      </trkpt>
      <trkpt lat="45.21347" lon="-1.03511">
        <ele>72.253297</ele>
        <time>2022-12-23T11:30:49.754Z</time>
      </trkpt>
      <trkpt lat="45.21337" lon="-1.0352">
        <ele>72.100515</ele>
        <time>2022-12-23T11:30:52.758Z</time>
      </trkpt>
      <trkpt lat="45.21326" lon="-1.03529">
        <ele>71.950313</ele>
        <time>2022-12-23T11:30:55.750Z</time>
      </trkpt>
      <trkpt lat="45.21315" lon="-1.03537">
        <ele>71.795607</ele>
        <time>2022-12-23T11:30:58.751Z</time>
      </trkpt>
      <trkpt lat="45.21304" lon="-1.03546">
        <ele>71.641472</ele>
        <time>2022-12-23T11:31:01.730Z</time>
      </trkpt>
      <trkpt lat="45.21294" lon="-1.03555">
        <ele>71.486881</ele>
        <time>2022-12-23T11:31:04.730Z</time>
      </trkpt>
      <trkpt lat="45.21284" lon="-1.03563">
        <ele>71.345068</ele>
        <time>2022-12-23T11:31:07.755Z</time>
      </trkpt>
      <trkpt lat="45.21275" lon="-1.0357">
        <ele>71.220572</ele>
        <time>2022-12-23T11:31:10.753Z</time>
      </trkpt>
      <trkpt lat="45.21266" lon="-1.03577">
        <ele>71.09241</ele>
        <time>2022-12-23T11:31:13.744Z</time>
      </trkpt>
      <trkpt lat="45.21256" lon="-1.03585">
        <ele>70.94763</ele>
        <time>2022-12-23T11:31:16.751Z</time>
      </trkpt>
      <trkpt lat="45.21246" lon="-1.03594">
        <ele>70.805609</ele>
        <time>2022-12-23T11:31:19.742Z</time>
      </trkpt>
      <trkpt lat="45.21236" lon="-1.03602">
        <ele>70.685666</ele>
        <time>2022-12-23T11:31:22.756Z</time>
      </trkpt>
      <trkpt lat="45.21226" lon="-1.0361">
        <ele>70.686716</ele>
        <time>2022-12-23T11:31:25.756Z</time>
      </trkpt>
      <trkpt lat="45.21216" lon="-1.03618">
        <ele>70.687766</ele>
        <time>2022-12-23T11:31:28.752Z</time>
      </trkpt>
      <trkpt lat="45.21206" lon="-1.03627">
        <ele>70.688828</ele>
        <time>2022-12-23T11:31:31.756Z</time>
      </trkpt>
      <trkpt lat="45.21196" lon="-1.03635">
        <ele>70.689884</ele>
        <time>2022-12-23T11:31:34.752Z</time>
      </trkpt>
      <trkpt lat="45.21187" lon="-1.03643">
        <ele>70.690931</ele>
        <time>2022-12-23T11:31:37.757Z</time>
      </trkpt>
      <trkpt lat="45.21177" lon="-1.03652">
        <ele>70.691988</ele>
        <time>2022-12-23T11:31:40.748Z</time>
      </trkpt>
      <trkpt lat="45.21167" lon="-1.03661">
        <ele>70.693052</ele>
        <time>2022-12-23T11:31:43.756Z</time>
      </trkpt>
      <trkpt lat="45.21158" lon="-1.03669">
        <ele>70.694056</ele>
        <time>2022-12-23T11:31:46.752Z</time>
      </trkpt>
      <trkpt lat="45.21149" lon="-1.03676">
        <ele>70.694982</ele>
        <time>2022-12-23T11:31:49.753Z</time>
      </trkpt>
      <trkpt lat="45.2114" lon="-1.03684">
        <ele>70.695927</ele>
        <time>2022-12-23T11:31:52.736Z</time>
      </trkpt>
      <trkpt lat="45.2113" lon="-1.03692">
        <ele>70.696968</ele>
        <time>2022-12-23T11:31:55.753Z</time>
      </trkpt>
      <trkpt lat="45.21119" lon="-1.037">
        <ele>70.698106</ele>
        <time>2022-12-23T11:31:58.754Z</time>
      </trkpt>
      <trkpt lat="45.21108" lon="-1.03709">
        <ele>70.699279</ele>
        <time>2022-12-23T11:32:01.754Z</time>
      </trkpt>
      <trkpt lat="45.21097" lon="-1.03718">
        <ele>70.700485</ele>
        <time>2022-12-23T11:32:04.760Z</time>
      </trkpt>
      <trkpt lat="45.21085" lon="-1.03727">
        <ele>70.701686</ele>
        <time>2022-12-23T11:32:07.752Z</time>
      </trkpt>
      <trkpt lat="45.21074" lon="-1.03736">
        <ele>70.736989</ele>
        <time>2022-12-23T11:32:10.753Z</time>
      </trkpt>
      <trkpt lat="45.21063" lon="-1.03746">
        <ele>70.781029</ele>
        <time>2022-12-23T11:32:13.731Z</time>
      </trkpt>
      <trkpt lat="45.21051" lon="-1.03755">
        <ele>70.826458</ele>
        <time>2022-12-23T11:32:16.757Z</time>
      </trkpt>
      <trkpt lat="45.21041" lon="-1.03764">
        <ele>70.870707</ele>
        <time>2022-12-23T11:32:19.749Z</time>
      </trkpt>
      <trkpt lat="45.21029" lon="-1.03773">
        <ele>70.915106</ele>
        <time>2022-12-23T11:32:22.729Z</time>
      </trkpt>
      <trkpt lat="45.21019" lon="-1.03782">
        <ele>70.959059</ele>
        <time>2022-12-23T11:32:25.733Z</time>
      </trkpt>
      <trkpt lat="45.21008" lon="-1.03791">
        <ele>71.002675</ele>
        <time>2022-12-23T11:32:28.748Z</time>
      </trkpt>
      <trkpt lat="45.20998" lon="-1.038">
        <ele>71.042843</ele>
        <time>2022-12-23T11:32:31.735Z</time>
      </trkpt>
      <trkpt lat="45.20989" lon="-1.03808">
        <ele>71.079142</ele>
        <time>2022-12-23T11:32:34.754Z</time>
      </trkpt>
      <trkpt lat="45.2098" lon="-1.03815">
        <ele>71.115867</ele>
        <time>2022-12-23T11:32:37.751Z</time>
      </trkpt>
      <trkpt lat="45.20971" lon="-1.03823">
        <ele>71.153966</ele>
        <time>2022-12-23T11:32:40.735Z</time>
      </trkpt>
      <trkpt lat="45.20961" lon="-1.03831">
        <ele>71.191799</ele>
        <time>2022-12-23T11:32:43.752Z</time>
      </trkpt>
      <trkpt lat="45.20952" lon="-1.03839">
        <ele>71.22997</ele>
        <time>2022-12-23T11:32:46.751Z</time>
      </trkpt>
      <trkpt lat="45.20942" lon="-1.03848">
        <ele>71.269505</ele>
        <time>2022-12-23T11:32:49.739Z</time>
      </trkpt>
      <trkpt lat="45.20932" lon="-1.03856">
        <ele>71.311242</ele>
        <time>2022-12-23T11:32:52.753Z</time>
      </trkpt>
      <trkpt lat="45.20922" lon="-1.03864">
        <ele>71.320879</ele>
        <time>2022-12-23T11:32:55.735Z</time>
      </trkpt>
      <trkpt lat="45.20911" lon="-1.03873">
        <ele>71.307499</ele>
        <time>2022-12-23T11:32:58.744Z</time>
      </trkpt>
      <trkpt lat="45.20901" lon="-1.03882">
        <ele>71.294121</ele>
        <time>2022-12-23T11:33:01.751Z</time>
      </trkpt>
      <trkpt lat="45.2089" lon="-1.03891">
        <ele>71.28034</ele>
        <time>2022-12-23T11:33:04.755Z</time>
      </trkpt>
      <trkpt lat="45.20879" lon="-1.039">
        <ele>71.266693</ele>
        <time>2022-12-23T11:33:07.751Z</time>
      </trkpt>
      <trkpt lat="45.20869" lon="-1.03908">
        <ele>71.254152</ele>
        <time>2022-12-23T11:33:10.755Z</time>
      </trkpt>
      <trkpt lat="45.20861" lon="-1.03915">
        <ele>71.243552</ele>
        <time>2022-12-23T11:33:13.745Z</time>
      </trkpt>
      <trkpt lat="45.20851" lon="-1.03922">
        <ele>71.231407</ele>
        <time>2022-12-23T11:33:17.753Z</time>
      </trkpt>
      <trkpt lat="45.20841" lon="-1.0393">
        <ele>71.218677</ele>
        <time>2022-12-23T11:33:21.741Z</time>
      </trkpt>
      <trkpt lat="45.20832" lon="-1.03939">
        <ele>71.206884</ele>
        <time>2022-12-23T11:33:24.742Z</time>
      </trkpt>
      <trkpt lat="45.20822" lon="-1.03946">
        <ele>71.194915</ele>
        <time>2022-12-23T11:33:27.755Z</time>
      </trkpt>
      <trkpt lat="45.20812" lon="-1.03955">
        <ele>71.182135</ele>
        <time>2022-12-23T11:33:30.750Z</time>
      </trkpt>
      <trkpt lat="45.20802" lon="-1.03964">
        <ele>71.168829</ele>
        <time>2022-12-23T11:33:33.752Z</time>
      </trkpt>
      <trkpt lat="45.20792" lon="-1.03973">
        <ele>71.155794</ele>
        <time>2022-12-23T11:33:36.738Z</time>
      </trkpt>
      <trkpt lat="45.20781" lon="-1.03981">
        <ele>71.142605</ele>
        <time>2022-12-23T11:33:39.757Z</time>
      </trkpt>
      <trkpt lat="45.2077" lon="-1.03989">
        <ele>71.131616</ele>
        <time>2022-12-23T11:33:42.741Z</time>
      </trkpt>
      <trkpt lat="45.20759" lon="-1.03997">
        <ele>71.131857</ele>
        <time>2022-12-23T11:33:45.734Z</time>
      </trkpt>
      <trkpt lat="45.20748" lon="-1.04007">
        <ele>71.132105</ele>
        <time>2022-12-23T11:33:48.751Z</time>
      </trkpt>
      <trkpt lat="45.20737" lon="-1.04017">
        <ele>71.132355</ele>
        <time>2022-12-23T11:33:51.752Z</time>
      </trkpt>
      <trkpt lat="45.20726" lon="-1.04026">
        <ele>71.132606</ele>
        <time>2022-12-23T11:33:54.754Z</time>
      </trkpt>
      <trkpt lat="45.20715" lon="-1.04035">
        <ele>71.132852</ele>
        <time>2022-12-23T11:33:57.754Z</time>
      </trkpt>
      <trkpt lat="45.20704" lon="-1.04044">
        <ele>71.133101</ele>
        <time>2022-12-23T11:34:00.762Z</time>
      </trkpt>
      <trkpt lat="45.20693" lon="-1.04053">
        <ele>71.133336</ele>
        <time>2022-12-23T11:34:03.755Z</time>
      </trkpt>
      <trkpt lat="45.20683" lon="-1.04062">
        <ele>71.133564</ele>
        <time>2022-12-23T11:34:06.751Z</time>
      </trkpt>
      <trkpt lat="45.20672" lon="-1.04071">
        <ele>71.133816</ele>
        <time>2022-12-23T11:34:09.753Z</time>
      </trkpt>
      <trkpt lat="45.20661" lon="-1.0408">
        <ele>71.134067</ele>
        <time>2022-12-23T11:34:12.763Z</time>
      </trkpt>
      <trkpt lat="45.20649" lon="-1.04089">
        <ele>71.134315</ele>
        <time>2022-12-23T11:34:15.753Z</time>
      </trkpt>
      <trkpt lat="45.20638" lon="-1.04098">
        <ele>71.134565</ele>
        <time>2022-12-23T11:34:18.751Z</time>
      </trkpt>
      <trkpt lat="45.20627" lon="-1.04107">
        <ele>71.134816</ele>
        <time>2022-12-23T11:34:21.728Z</time>
      </trkpt>
      <trkpt lat="45.20615" lon="-1.04117">
        <ele>71.13</ele>
        <time>2022-12-23T11:34:24.763Z</time>
      </trkpt>
      <trkpt lat="45.20604" lon="-1.04126">
        <ele>71.086436</ele>
        <time>2022-12-23T11:34:27.751Z</time>
      </trkpt>
      <trkpt lat="45.20596" lon="-1.04133">
        <ele>71.05679</ele>
        <time>2022-12-23T11:34:29.731Z</time>
      </trkpt>
      <trkpt lat="45.20585" lon="-1.04143">
        <ele>71.0144</ele>
        <time>2022-12-23T11:34:32.754Z</time>
      </trkpt>
      <trkpt lat="45.20574" lon="-1.04151">
        <ele>70.974146</ele>
        <time>2022-12-23T11:34:35.749Z</time>
      </trkpt>
      <trkpt lat="45.20565" lon="-1.04159">
        <ele>70.938175</ele>
        <time>2022-12-23T11:34:38.750Z</time>
      </trkpt>
      <trkpt lat="45.20555" lon="-1.04167">
        <ele>70.901121</ele>
        <time>2022-12-23T11:34:41.755Z</time>
      </trkpt>
      <trkpt lat="45.20545" lon="-1.04176">
        <ele>70.861198</ele>
        <time>2022-12-23T11:34:44.738Z</time>
      </trkpt>
      <trkpt lat="45.20534" lon="-1.04185">
        <ele>70.820666</ele>
        <time>2022-12-23T11:34:47.754Z</time>
      </trkpt>
      <trkpt lat="45.20523" lon="-1.04194">
        <ele>70.779022</ele>
        <time>2022-12-23T11:34:50.734Z</time>
      </trkpt>
      <trkpt lat="45.20513" lon="-1.04204">
        <ele>70.737933</ele>
        <time>2022-12-23T11:34:53.730Z</time>
      </trkpt>
      <trkpt lat="45.20502" lon="-1.04213">
        <ele>70.696547</ele>
        <time>2022-12-23T11:34:56.752Z</time>
      </trkpt>
      <trkpt lat="45.20492" lon="-1.04221">
        <ele>70.659943</ele>
        <time>2022-12-23T11:34:59.756Z</time>
      </trkpt>
      <trkpt lat="45.20483" lon="-1.04229">
        <ele>70.624019</ele>
        <time>2022-12-23T11:35:02.748Z</time>
      </trkpt>
      <trkpt lat="45.20473" lon="-1.04237">
        <ele>70.586396</ele>
        <time>2022-12-23T11:35:05.726Z</time>
      </trkpt>
      <trkpt lat="45.20462" lon="-1.04245">
        <ele>70.547345</ele>
        <time>2022-12-23T11:35:08.754Z</time>
      </trkpt>
      <trkpt lat="45.20453" lon="-1.04254">
        <ele>70.581754</ele>
        <time>2022-12-23T11:35:11.752Z</time>
      </trkpt>
      <trkpt lat="45.20441" lon="-1.04264">
        <ele>70.624802</ele>
        <time>2022-12-23T11:35:14.750Z</time>
      </trkpt>
      <trkpt lat="45.2043" lon="-1.04274">
        <ele>70.66789</ele>
        <time>2022-12-23T11:35:17.756Z</time>
      </trkpt>
      <trkpt lat="45.20419" lon="-1.04283">
        <ele>70.71154</ele>
        <time>2022-12-23T11:35:20.745Z</time>
      </trkpt>
      <trkpt lat="45.20407" lon="-1.04293">
        <ele>70.755812</ele>
        <time>2022-12-23T11:35:23.752Z</time>
      </trkpt>
      <trkpt lat="45.20395" lon="-1.04302">
        <ele>70.799463</ele>
        <time>2022-12-23T11:35:26.749Z</time>
      </trkpt>
      <trkpt lat="45.20385" lon="-1.04311">
        <ele>70.839071</ele>
        <time>2022-12-23T11:35:29.752Z</time>
      </trkpt>
      <trkpt lat="45.20376" lon="-1.04318">
        <ele>70.873556</ele>
        <time>2022-12-23T11:35:32.759Z</time>
      </trkpt>
      <trkpt lat="45.20368" lon="-1.04325">
        <ele>70.903947</ele>
        <time>2022-12-23T11:35:35.753Z</time>
      </trkpt>
      <trkpt lat="45.20359" lon="-1.04332">
        <ele>70.936053</ele>
        <time>2022-12-23T11:35:38.755Z</time>
      </trkpt>
      <trkpt lat="45.2035" lon="-1.0434">
        <ele>70.971562</ele>
        <time>2022-12-23T11:35:41.740Z</time>
      </trkpt>
      <trkpt lat="45.20339" lon="-1.04348">
        <ele>71.010429</ele>
        <time>2022-12-23T11:35:44.755Z</time>
      </trkpt>
      <trkpt lat="45.20329" lon="-1.04356">
        <ele>71.050324</ele>
        <time>2022-12-23T11:35:47.752Z</time>
      </trkpt>
      <trkpt lat="45.20318" lon="-1.04365">
        <ele>71.090736</ele>
        <time>2022-12-23T11:35:50.749Z</time>
      </trkpt>
      <trkpt lat="45.20307" lon="-1.04375">
        <ele>71.132466</ele>
        <time>2022-12-23T11:35:53.754Z</time>
      </trkpt>
      <trkpt lat="45.20296" lon="-1.04384">
        <ele>71.107848</ele>
        <time>2022-12-23T11:35:56.754Z</time>
      </trkpt>
      <trkpt lat="45.20285" lon="-1.04393">
        <ele>71.08011</ele>
        <time>2022-12-23T11:35:59.755Z</time>
      </trkpt>
      <trkpt lat="45.20274" lon="-1.04402">
        <ele>71.052852</ele>
        <time>2022-12-23T11:36:02.755Z</time>
      </trkpt>
      <trkpt lat="45.20263" lon="-1.0441">
        <ele>71.026705</ele>
        <time>2022-12-23T11:36:05.754Z</time>
      </trkpt>
      <trkpt lat="45.20254" lon="-1.04418">
        <ele>71.004094</ele>
        <time>2022-12-23T11:36:08.756Z</time>
      </trkpt>
      <trkpt lat="45.20244" lon="-1.04427">
        <ele>70.978985</ele>
        <time>2022-12-23T11:36:11.753Z</time>
      </trkpt>
      <trkpt lat="45.20233" lon="-1.04435">
        <ele>70.953467</ele>
        <time>2022-12-23T11:36:14.748Z</time>
      </trkpt>
      <trkpt lat="45.20223" lon="-1.04443">
        <ele>70.927544</ele>
        <time>2022-12-23T11:36:17.747Z</time>
      </trkpt>
      <trkpt lat="45.20213" lon="-1.04451">
        <ele>70.904207</ele>
        <time>2022-12-23T11:36:20.748Z</time>
      </trkpt>
      <trkpt lat="45.20203" lon="-1.04459">
        <ele>70.879465</ele>
        <time>2022-12-23T11:36:23.744Z</time>
      </trkpt>
      <trkpt lat="45.20193" lon="-1.04468">
        <ele>70.853761</ele>
        <time>2022-12-23T11:36:26.756Z</time>
      </trkpt>
      <trkpt lat="45.20182" lon="-1.04476">
        <ele>70.827537</ele>
        <time>2022-12-23T11:36:29.758Z</time>
      </trkpt>
      <trkpt lat="45.20171" lon="-1.04485">
        <ele>70.80113</ele>
        <time>2022-12-23T11:36:32.746Z</time>
      </trkpt>
      <trkpt lat="45.20161" lon="-1.04494">
        <ele>70.775167</ele>
        <time>2022-12-23T11:36:35.753Z</time>
      </trkpt>
      <trkpt lat="45.2015" lon="-1.04504">
        <ele>70.75883</ele>
        <time>2022-12-23T11:36:38.754Z</time>
      </trkpt>
      <trkpt lat="45.20139" lon="-1.04513">
        <ele>70.831249</ele>
        <time>2022-12-23T11:36:41.754Z</time>
      </trkpt>
      <trkpt lat="45.20128" lon="-1.04522">
        <ele>70.902999</ele>
        <time>2022-12-23T11:36:44.755Z</time>
      </trkpt>
      <trkpt lat="45.20117" lon="-1.04531">
        <ele>70.97492</ele>
        <time>2022-12-23T11:36:47.747Z</time>
      </trkpt>
      <trkpt lat="45.20107" lon="-1.0454">
        <ele>71.045555</ele>
        <time>2022-12-23T11:36:50.737Z</time>
      </trkpt>
      <trkpt lat="45.20096" lon="-1.04549">
        <ele>71.120105</ele>
        <time>2022-12-23T11:36:53.751Z</time>
      </trkpt>
      <trkpt lat="45.20085" lon="-1.04559">
        <ele>71.194937</ele>
        <time>2022-12-23T11:36:56.752Z</time>
      </trkpt>
      <trkpt lat="45.20073" lon="-1.04568">
        <ele>71.268753</ele>
        <time>2022-12-23T11:36:59.752Z</time>
      </trkpt>
      <trkpt lat="45.20063" lon="-1.04576">
        <ele>71.336684</ele>
        <time>2022-12-23T11:37:02.751Z</time>
      </trkpt>
      <trkpt lat="45.20054" lon="-1.04584">
        <ele>71.395275</ele>
        <time>2022-12-23T11:37:05.756Z</time>
      </trkpt>
      <trkpt lat="45.20045" lon="-1.04591">
        <ele>71.455545</ele>
        <time>2022-12-23T11:37:08.746Z</time>
      </trkpt>
      <trkpt lat="45.20035" lon="-1.04599">
        <ele>71.521782</ele>
        <time>2022-12-23T11:37:11.749Z</time>
      </trkpt>
      <trkpt lat="45.20025" lon="-1.04608">
        <ele>71.59091</ele>
        <time>2022-12-23T11:37:14.744Z</time>
      </trkpt>
      <trkpt lat="45.20015" lon="-1.04616">
        <ele>71.659041</ele>
        <time>2022-12-23T11:37:17.753Z</time>
      </trkpt>
      <trkpt lat="45.20005" lon="-1.04624">
        <ele>71.723385</ele>
        <time>2022-12-23T11:37:20.740Z</time>
      </trkpt>
      <trkpt lat="45.19995" lon="-1.04632">
        <ele>71.798244</ele>
        <time>2022-12-23T11:37:23.754Z</time>
      </trkpt>
      <trkpt lat="45.19984" lon="-1.04641">
        <ele>71.958056</ele>
        <time>2022-12-23T11:37:26.735Z</time>
      </trkpt>
      <trkpt lat="45.19973" lon="-1.0465">
        <ele>72.120754</ele>
        <time>2022-12-23T11:37:29.724Z</time>
      </trkpt>
      <trkpt lat="45.19962" lon="-1.04659">
        <ele>72.2857</ele>
        <time>2022-12-23T11:37:32.749Z</time>
      </trkpt>
      <trkpt lat="45.19952" lon="-1.04668">
        <ele>72.43623</ele>
        <time>2022-12-23T11:37:35.754Z</time>
      </trkpt>
      <trkpt lat="45.19944" lon="-1.04675">
        <ele>72.566825</ele>
        <time>2022-12-23T11:37:38.750Z</time>
      </trkpt>
      <trkpt lat="45.19934" lon="-1.04684">
        <ele>72.7148</ele>
        <time>2022-12-23T11:37:41.758Z</time>
      </trkpt>
      <trkpt lat="45.19924" lon="-1.04692">
        <ele>72.866722</ele>
        <time>2022-12-23T11:37:44.756Z</time>
      </trkpt>
      <trkpt lat="45.19914" lon="-1.04701">
        <ele>73.013267</ele>
        <time>2022-12-23T11:37:47.744Z</time>
      </trkpt>
      <trkpt lat="45.19903" lon="-1.0471">
        <ele>73.177346</ele>
        <time>2022-12-23T11:37:50.751Z</time>
      </trkpt>
      <trkpt lat="45.19892" lon="-1.04719">
        <ele>73.345443</ele>
        <time>2022-12-23T11:37:53.756Z</time>
      </trkpt>
      <trkpt lat="45.19881" lon="-1.04728">
        <ele>73.502964</ele>
        <time>2022-12-23T11:37:56.757Z</time>
      </trkpt>
      <trkpt lat="45.1987" lon="-1.04736">
        <ele>73.666583</ele>
        <time>2022-12-23T11:37:59.754Z</time>
      </trkpt>
      <trkpt lat="45.1986" lon="-1.04744">
        <ele>73.814888</ele>
        <time>2022-12-23T11:38:02.751Z</time>
      </trkpt>
      <trkpt lat="45.19851" lon="-1.04752">
        <ele>73.949006</ele>
        <time>2022-12-23T11:38:05.749Z</time>
      </trkpt>
      <trkpt lat="45.19842" lon="-1.0476">
        <ele>74.092123</ele>
        <time>2022-12-23T11:38:08.740Z</time>
      </trkpt>
      <trkpt lat="45.19832" lon="-1.04769">
        <ele>74.057244</ele>
        <time>2022-12-23T11:38:11.755Z</time>
      </trkpt>
      <trkpt lat="45.19821" lon="-1.04777">
        <ele>73.996698</ele>
        <time>2022-12-23T11:38:14.749Z</time>
      </trkpt>
      <trkpt lat="45.1981" lon="-1.04786">
        <ele>73.931576</ele>
        <time>2022-12-23T11:38:17.751Z</time>
      </trkpt>
      <trkpt lat="45.19798" lon="-1.04795">
        <ele>73.8674</ele>
        <time>2022-12-23T11:38:20.750Z</time>
      </trkpt>
      <trkpt lat="45.19788" lon="-1.04804">
        <ele>73.804684</ele>
        <time>2022-12-23T11:38:23.732Z</time>
      </trkpt>
      <trkpt lat="45.19777" lon="-1.04813">
        <ele>73.742264</ele>
        <time>2022-12-23T11:38:26.750Z</time>
      </trkpt>
      <trkpt lat="45.19766" lon="-1.04822">
        <ele>73.680776</ele>
        <time>2022-12-23T11:38:29.749Z</time>
      </trkpt>
      <trkpt lat="45.19756" lon="-1.04832">
        <ele>73.618396</ele>
        <time>2022-12-23T11:38:32.756Z</time>
      </trkpt>
      <trkpt lat="45.19745" lon="-1.0484">
        <ele>73.554919</ele>
        <time>2022-12-23T11:38:35.758Z</time>
      </trkpt>
      <trkpt lat="45.19733" lon="-1.0485">
        <ele>73.48849</ele>
        <time>2022-12-23T11:38:38.746Z</time>
      </trkpt>
      <trkpt lat="45.19725" lon="-1.04856">
        <ele>73.44363</ele>
        <time>2022-12-23T11:38:40.740Z</time>
      </trkpt>
      <trkpt lat="45.19714" lon="-1.04865">
        <ele>73.37989</ele>
        <time>2022-12-23T11:38:43.753Z</time>
      </trkpt>
      <trkpt lat="45.19704" lon="-1.04874">
        <ele>73.320818</ele>
        <time>2022-12-23T11:38:46.752Z</time>
      </trkpt>
      <trkpt lat="45.19694" lon="-1.04882">
        <ele>73.262883</ele>
        <time>2022-12-23T11:38:49.755Z</time>
      </trkpt>
      <trkpt lat="45.19683" lon="-1.04891">
        <ele>73.181871</ele>
        <time>2022-12-23T11:38:52.755Z</time>
      </trkpt>
      <trkpt lat="45.19672" lon="-1.049">
        <ele>73.044589</ele>
        <time>2022-12-23T11:38:55.739Z</time>
      </trkpt>
      <trkpt lat="45.1966" lon="-1.04909">
        <ele>72.901834</ele>
        <time>2022-12-23T11:38:58.749Z</time>
      </trkpt>
      <trkpt lat="45.19649" lon="-1.04918">
        <ele>72.766621</ele>
        <time>2022-12-23T11:39:01.755Z</time>
      </trkpt>
      <trkpt lat="45.19639" lon="-1.04927">
        <ele>72.632428</ele>
        <time>2022-12-23T11:39:04.755Z</time>
      </trkpt>
      <trkpt lat="45.19629" lon="-1.04935">
        <ele>72.506807</ele>
        <time>2022-12-23T11:39:07.757Z</time>
      </trkpt>
      <trkpt lat="45.19619" lon="-1.04942">
        <ele>72.389679</ele>
        <time>2022-12-23T11:39:10.752Z</time>
      </trkpt>
      <trkpt lat="45.19612" lon="-1.0495">
        <ele>72.288423</ele>
        <time>2022-12-23T11:39:13.753Z</time>
      </trkpt>
      <trkpt lat="45.19603" lon="-1.04957">
        <ele>72.178673</ele>
        <time>2022-12-23T11:39:16.754Z</time>
      </trkpt>
      <trkpt lat="45.19593" lon="-1.04965">
        <ele>72.058905</ele>
        <time>2022-12-23T11:39:19.755Z</time>
      </trkpt>
      <trkpt lat="45.19583" lon="-1.04974">
        <ele>71.92895</ele>
        <time>2022-12-23T11:39:22.752Z</time>
      </trkpt>
      <trkpt lat="45.19571" lon="-1.04982">
        <ele>71.78837</ele>
        <time>2022-12-23T11:39:25.759Z</time>
      </trkpt>
      <trkpt lat="45.1956" lon="-1.04992">
        <ele>71.642393</ele>
        <time>2022-12-23T11:39:28.730Z</time>
      </trkpt>
      <trkpt lat="45.19552" lon="-1.04998">
        <ele>71.543541</ele>
        <time>2022-12-23T11:39:30.731Z</time>
      </trkpt>
      <trkpt lat="45.19541" lon="-1.05008">
        <ele>71.399655</ele>
        <time>2022-12-23T11:39:33.729Z</time>
      </trkpt>
      <trkpt lat="45.19533" lon="-1.05014">
        <ele>71.299328</ele>
        <time>2022-12-23T11:39:35.750Z</time>
      </trkpt>
      <trkpt lat="45.19525" lon="-1.05021">
        <ele>71.249818</ele>
        <time>2022-12-23T11:39:37.750Z</time>
      </trkpt>
      <trkpt lat="45.19513" lon="-1.05031">
        <ele>71.216688</ele>
        <time>2022-12-23T11:39:40.750Z</time>
      </trkpt>
      <trkpt lat="45.19505" lon="-1.05038">
        <ele>71.193404</ele>
        <time>2022-12-23T11:39:42.750Z</time>
      </trkpt>
      <trkpt lat="45.19497" lon="-1.05044">
        <ele>71.170585</ele>
        <time>2022-12-23T11:39:44.753Z</time>
      </trkpt>
      <trkpt lat="45.19484" lon="-1.05053">
        <ele>71.137316</ele>
        <time>2022-12-23T11:39:47.758Z</time>
      </trkpt>
      <trkpt lat="45.19473" lon="-1.05063">
        <ele>71.105703</ele>
        <time>2022-12-23T11:39:50.748Z</time>
      </trkpt>
      <trkpt lat="45.19462" lon="-1.05073">
        <ele>71.073618</ele>
        <time>2022-12-23T11:39:53.754Z</time>
      </trkpt>
      <trkpt lat="45.1945" lon="-1.05082">
        <ele>71.040908</ele>
        <time>2022-12-23T11:39:56.750Z</time>
      </trkpt>
      <trkpt lat="45.19443" lon="-1.05089">
        <ele>71.018845</ele>
        <time>2022-12-23T11:39:58.753Z</time>
      </trkpt>
      <trkpt lat="45.19432" lon="-1.05098">
        <ele>70.98939</ele>
        <time>2022-12-23T11:40:01.754Z</time>
      </trkpt>
      <trkpt lat="45.19423" lon="-1.05106">
        <ele>70.963384</ele>
        <time>2022-12-23T11:40:04.753Z</time>
      </trkpt>
      <trkpt lat="45.19414" lon="-1.05114">
        <ele>70.937817</ele>
        <time>2022-12-23T11:40:07.755Z</time>
      </trkpt>
      <trkpt lat="45.19404" lon="-1.05122">
        <ele>70.910299</ele>
        <time>2022-12-23T11:40:10.754Z</time>
      </trkpt>
      <trkpt lat="45.19394" lon="-1.05131">
        <ele>70.880497</ele>
        <time>2022-12-23T11:40:13.753Z</time>
      </trkpt>
      <trkpt lat="45.19383" lon="-1.0514">
        <ele>70.849686</ele>
        <time>2022-12-23T11:40:16.752Z</time>
      </trkpt>
      <trkpt lat="45.19372" lon="-1.05149">
        <ele>70.846458</ele>
        <time>2022-12-23T11:40:19.753Z</time>
      </trkpt>
      <trkpt lat="45.19361" lon="-1.05158">
        <ele>70.923537</ele>
        <time>2022-12-23T11:40:22.752Z</time>
      </trkpt>
      <trkpt lat="45.1935" lon="-1.05167">
        <ele>71.002835</ele>
        <time>2022-12-23T11:40:25.751Z</time>
      </trkpt>
      <trkpt lat="45.19339" lon="-1.05175">
        <ele>71.079737</ele>
        <time>2022-12-23T11:40:28.751Z</time>
      </trkpt>
      <trkpt lat="45.1933" lon="-1.05183">
        <ele>71.144205</ele>
        <time>2022-12-23T11:40:31.724Z</time>
      </trkpt>
      <trkpt lat="45.19321" lon="-1.05191">
        <ele>71.205259</ele>
        <time>2022-12-23T11:40:34.744Z</time>
      </trkpt>
      <trkpt lat="45.19312" lon="-1.05198">
        <ele>71.268835</ele>
        <time>2022-12-23T11:40:37.749Z</time>
      </trkpt>
      <trkpt lat="45.19302" lon="-1.05207">
        <ele>71.338336</ele>
        <time>2022-12-23T11:40:40.754Z</time>
      </trkpt>
      <trkpt lat="45.19291" lon="-1.05215">
        <ele>71.415438</ele>
        <time>2022-12-23T11:40:43.754Z</time>
      </trkpt>
      <trkpt lat="45.1928" lon="-1.05224">
        <ele>71.492094</ele>
        <time>2022-12-23T11:40:46.760Z</time>
      </trkpt>
      <trkpt lat="45.19269" lon="-1.05232">
        <ele>71.565465</ele>
        <time>2022-12-23T11:40:49.750Z</time>
      </trkpt>
      <trkpt lat="45.1926" lon="-1.05239">
        <ele>71.631581</ele>
        <time>2022-12-23T11:40:52.750Z</time>
      </trkpt>
      <trkpt lat="45.1925" lon="-1.05245">
        <ele>71.694327</ele>
        <time>2022-12-23T11:40:55.730Z</time>
      </trkpt>
      <trkpt lat="45.1924" lon="-1.05252">
        <ele>71.762008</ele>
        <time>2022-12-23T11:40:58.754Z</time>
      </trkpt>
      <trkpt lat="45.1923" lon="-1.05256">
        <ele>71.8264</ele>
        <time>2022-12-23T11:41:01.750Z</time>
      </trkpt>
      <trkpt lat="45.19218" lon="-1.05261">
        <ele>71.89975</ele>
        <time>2022-12-23T11:41:04.753Z</time>
      </trkpt>
      <trkpt lat="45.19208" lon="-1.05267">
        <ele>72.034668</ele>
        <time>2022-12-23T11:41:07.756Z</time>
      </trkpt>
      <trkpt lat="45.19195" lon="-1.05273">
        <ele>72.212968</ele>
        <time>2022-12-23T11:41:10.745Z</time>
      </trkpt>
      <trkpt lat="45.19183" lon="-1.05279">
        <ele>72.389693</ele>
        <time>2022-12-23T11:41:13.751Z</time>
      </trkpt>
      <trkpt lat="45.19171" lon="-1.05284">
        <ele>72.559278</ele>
        <time>2022-12-23T11:41:16.741Z</time>
      </trkpt>
      <trkpt lat="45.1916" lon="-1.05288">
        <ele>72.720855</ele>
        <time>2022-12-23T11:41:19.742Z</time>
      </trkpt>
      <trkpt lat="45.1915" lon="-1.05292">
        <ele>72.869112</ele>
        <time>2022-12-23T11:41:22.743Z</time>
      </trkpt>
      <trkpt lat="45.19138" lon="-1.05298">
        <ele>73.039703</ele>
        <time>2022-12-23T11:41:26.766Z</time>
      </trkpt>
      <trkpt lat="45.19127" lon="-1.05305">
        <ele>73.201397</ele>
        <time>2022-12-23T11:41:29.743Z</time>
      </trkpt>
      <trkpt lat="45.19116" lon="-1.0531">
        <ele>73.366759</ele>
        <time>2022-12-23T11:41:32.742Z</time>
      </trkpt>
      <trkpt lat="45.19104" lon="-1.05316">
        <ele>73.53765</ele>
        <time>2022-12-23T11:41:35.727Z</time>
      </trkpt>
      <trkpt lat="45.19092" lon="-1.05322">
        <ele>73.711118</ele>
        <time>2022-12-23T11:41:38.753Z</time>
      </trkpt>
      <trkpt lat="45.1908" lon="-1.05328">
        <ele>73.882625</ele>
        <time>2022-12-23T11:41:41.735Z</time>
      </trkpt>
      <trkpt lat="45.19069" lon="-1.05333">
        <ele>74.044765</ele>
        <time>2022-12-23T11:41:44.753Z</time>
      </trkpt>
      <trkpt lat="45.19058" lon="-1.05339">
        <ele>74.208544</ele>
        <time>2022-12-23T11:41:47.742Z</time>
      </trkpt>
      <trkpt lat="45.19047" lon="-1.05345">
        <ele>74.373262</ele>
        <time>2022-12-23T11:41:50.749Z</time>
      </trkpt>
      <trkpt lat="45.19036" lon="-1.05351">
        <ele>74.191136</ele>
        <time>2022-12-23T11:41:53.750Z</time>
      </trkpt>
      <trkpt lat="45.19024" lon="-1.05356">
        <ele>73.959724</ele>
        <time>2022-12-23T11:41:56.751Z</time>
      </trkpt>
      <trkpt lat="45.19014" lon="-1.05361">
        <ele>73.745379</ele>
        <time>2022-12-23T11:41:59.748Z</time>
      </trkpt>
      <trkpt lat="45.19004" lon="-1.05364">
        <ele>73.550514</ele>
        <time>2022-12-23T11:42:02.731Z</time>
      </trkpt>
      <trkpt lat="45.18994" lon="-1.0537">
        <ele>73.344958</ele>
        <time>2022-12-23T11:42:05.731Z</time>
      </trkpt>
      <trkpt lat="45.18984" lon="-1.05376">
        <ele>73.125779</ele>
        <time>2022-12-23T11:42:08.744Z</time>
      </trkpt>
      <trkpt lat="45.18972" lon="-1.05382">
        <ele>72.883864</ele>
        <time>2022-12-23T11:42:11.757Z</time>
      </trkpt>
      <trkpt lat="45.1896" lon="-1.05387">
        <ele>72.645082</ele>
        <time>2022-12-23T11:42:14.756Z</time>
      </trkpt>
      <trkpt lat="45.18949" lon="-1.05391">
        <ele>72.424697</ele>
        <time>2022-12-23T11:42:17.736Z</time>
      </trkpt>
      <trkpt lat="45.18939" lon="-1.05396">
        <ele>72.215703</ele>
        <time>2022-12-23T11:42:20.735Z</time>
      </trkpt>
      <trkpt lat="45.18929" lon="-1.05402">
        <ele>72.002593</ele>
        <time>2022-12-23T11:42:23.754Z</time>
      </trkpt>
      <trkpt lat="45.18918" lon="-1.05407">
        <ele>71.775782</ele>
        <time>2022-12-23T11:42:26.737Z</time>
      </trkpt>
      <trkpt lat="45.18907" lon="-1.05413">
        <ele>71.54439</ele>
        <time>2022-12-23T11:42:29.754Z</time>
      </trkpt>
      <trkpt lat="45.18896" lon="-1.05419">
        <ele>71.311065</ele>
        <time>2022-12-23T11:42:32.757Z</time>
      </trkpt>
      <trkpt lat="45.18884" lon="-1.05424">
        <ele>71.070199</ele>
        <time>2022-12-23T11:42:35.746Z</time>
      </trkpt>
      <trkpt lat="45.18871" lon="-1.05429">
        <ele>70.889974</ele>
        <time>2022-12-23T11:42:38.752Z</time>
      </trkpt>
      <trkpt lat="45.1886" lon="-1.05435">
        <ele>70.851263</ele>
        <time>2022-12-23T11:42:41.755Z</time>
      </trkpt>
      <trkpt lat="45.18848" lon="-1.0544">
        <ele>70.813431</ele>
        <time>2022-12-23T11:42:44.738Z</time>
      </trkpt>
      <trkpt lat="45.18839" lon="-1.05446">
        <ele>70.780296</ele>
        <time>2022-12-23T11:42:47.753Z</time>
      </trkpt>
      <trkpt lat="45.18829" lon="-1.0545">
        <ele>70.749763</ele>
        <time>2022-12-23T11:42:50.727Z</time>
      </trkpt>
      <trkpt lat="45.1882" lon="-1.05454">
        <ele>70.71819</ele>
        <time>2022-12-23T11:42:53.749Z</time>
      </trkpt>
      <trkpt lat="45.18809" lon="-1.0546">
        <ele>70.681045</ele>
        <time>2022-12-23T11:42:57.755Z</time>
      </trkpt>
      <trkpt lat="45.18799" lon="-1.05464">
        <ele>70.649541</ele>
        <time>2022-12-23T11:43:00.737Z</time>
      </trkpt>
      <trkpt lat="45.18788" lon="-1.05469">
        <ele>70.612839</ele>
        <time>2022-12-23T11:43:04.753Z</time>
      </trkpt>
      <trkpt lat="45.18777" lon="-1.05474">
        <ele>70.574726</ele>
        <time>2022-12-23T11:43:08.754Z</time>
      </trkpt>
      <trkpt lat="45.18768" lon="-1.05478">
        <ele>70.544515</ele>
        <time>2022-12-23T11:43:11.753Z</time>
      </trkpt>
      <trkpt lat="45.18758" lon="-1.05481">
        <ele>70.513391</ele>
        <time>2022-12-23T11:43:14.732Z</time>
      </trkpt>
      <trkpt lat="45.18749" lon="-1.05487">
        <ele>70.481021</ele>
        <time>2022-12-23T11:43:17.749Z</time>
      </trkpt>
      <trkpt lat="45.18739" lon="-1.05494">
        <ele>70.448077</ele>
        <time>2022-12-23T11:43:20.750Z</time>
      </trkpt>
      <trkpt lat="45.18729" lon="-1.05489">
        <ele>70.415165</ele>
        <time>2022-12-23T11:43:24.747Z</time>
      </trkpt>
      <trkpt lat="45.18728" lon="-1.05474">
        <ele>70.380629</ele>
        <time>2022-12-23T11:43:28.736Z</time>
      </trkpt>
      <trkpt lat="45.18727" lon="-1.05459">
        <ele>70.348923</ele>
        <time>2022-12-23T11:43:31.749Z</time>
      </trkpt>
      <trkpt lat="45.18719" lon="-1.05451">
        <ele>70.196386</ele>
        <time>2022-12-23T11:43:34.739Z</time>
      </trkpt>
      <trkpt lat="45.1871" lon="-1.05453">
        <ele>69.948509</ele>
        <time>2022-12-23T11:43:37.730Z</time>
      </trkpt>
      <trkpt lat="45.18702" lon="-1.05444">
        <ele>69.664739</ele>
        <time>2022-12-23T11:43:41.725Z</time>
      </trkpt>
      <trkpt lat="45.18698" lon="-1.0543">
        <ele>69.372979</ele>
        <time>2022-12-23T11:43:45.739Z</time>
      </trkpt>
      <trkpt lat="45.18696" lon="-1.05416">
        <ele>69.104163</ele>
        <time>2022-12-23T11:43:50.751Z</time>
      </trkpt>
      <trkpt lat="45.18698" lon="-1.05407">
        <ele>68.920681</ele>
        <time>2022-12-23T11:44:05.494Z</time>
      </trkpt>
      <trkpt lat="45.18705" lon="-1.05415">
        <ele>68.666827</ele>
        <time>2022-12-23T12:19:49.735Z</time>
      </trkpt>
      <trkpt lat="45.18701" lon="-1.0543">
        <ele>68.343457</ele>
        <time>2022-12-23T12:20:36.739Z</time>
      </trkpt>
      <trkpt lat="45.18704" lon="-1.05445">
        <ele>68.059895</ele>
        <time>2022-12-23T12:20:41.752Z</time>
      </trkpt>
      <trkpt lat="45.18715" lon="-1.05446">
        <ele>67.762919</ele>
        <time>2022-12-23T12:20:45.731Z</time>
      </trkpt>
      <trkpt lat="45.18726" lon="-1.05448">
        <ele>67.462846</ele>
        <time>2022-12-23T12:20:49.738Z</time>
      </trkpt>
      <trkpt lat="45.18732" lon="-1.05459">
        <ele>67.19872</ele>
        <time>2022-12-23T12:20:53.736Z</time>
      </trkpt>
      <trkpt lat="45.18737" lon="-1.05472">
        <ele>66.908037</ele>
        <time>2022-12-23T12:20:58.754Z</time>
      </trkpt>
      <trkpt lat="45.18741" lon="-1.05486">
        <ele>66.626132</ele>
        <time>2022-12-23T12:21:03.741Z</time>
      </trkpt>
      <trkpt lat="45.18733" lon="-1.05494">
        <ele>66.375455</ele>
        <time>2022-12-23T12:21:07.742Z</time>
      </trkpt>
      <trkpt lat="45.18722" lon="-1.05498">
        <ele>66.057204</ele>
        <time>2022-12-23T12:21:11.742Z</time>
      </trkpt>
      <trkpt lat="45.1871" lon="-1.05503">
        <ele>65.730326</ele>
        <time>2022-12-23T12:21:15.755Z</time>
      </trkpt>
      <trkpt lat="45.18702" lon="-1.05507">
        <ele>65.478666</ele>
        <time>2022-12-23T12:21:18.730Z</time>
      </trkpt>
      <trkpt lat="45.18693" lon="-1.05512">
        <ele>65.421964</ele>
        <time>2022-12-23T12:21:21.742Z</time>
      </trkpt>
      <trkpt lat="45.18684" lon="-1.05516">
        <ele>65.394246</ele>
        <time>2022-12-23T12:21:24.733Z</time>
      </trkpt>
      <trkpt lat="45.18675" lon="-1.0552">
        <ele>65.364945</ele>
        <time>2022-12-23T12:21:27.743Z</time>
      </trkpt>
      <trkpt lat="45.18665" lon="-1.05525">
        <ele>65.332798</ele>
        <time>2022-12-23T12:21:30.744Z</time>
      </trkpt>
      <trkpt lat="45.18656" lon="-1.0553">
        <ele>65.302364</ele>
        <time>2022-12-23T12:21:33.734Z</time>
      </trkpt>
      <trkpt lat="45.18645" lon="-1.05535">
        <ele>65.268788</ele>
        <time>2022-12-23T12:21:37.747Z</time>
      </trkpt>
      <trkpt lat="45.18635" lon="-1.05541">
        <ele>65.235356</ele>
        <time>2022-12-23T12:21:41.746Z</time>
      </trkpt>
      <trkpt lat="45.18626" lon="-1.05544">
        <ele>65.207528</ele>
        <time>2022-12-23T12:21:44.740Z</time>
      </trkpt>
      <trkpt lat="45.18618" lon="-1.05549">
        <ele>65.179663</ele>
        <time>2022-12-23T12:21:47.752Z</time>
      </trkpt>
      <trkpt lat="45.18607" lon="-1.05553">
        <ele>65.146469</ele>
        <time>2022-12-23T12:21:51.753Z</time>
      </trkpt>
      <trkpt lat="45.18598" lon="-1.05558">
        <ele>65.117456</ele>
        <time>2022-12-23T12:21:55.739Z</time>
      </trkpt>
      <trkpt lat="45.18589" lon="-1.05563">
        <ele>65.088402</ele>
        <time>2022-12-23T12:22:00.732Z</time>
      </trkpt>
      <trkpt lat="45.18587" lon="-1.05576">
        <ele>65.059694</ele>
        <time>2022-12-23T12:22:04.738Z</time>
      </trkpt>
      <trkpt lat="45.18588" lon="-1.0559">
        <ele>65.031233</ele>
        <time>2022-12-23T12:22:07.744Z</time>
      </trkpt>
      <trkpt lat="45.18588" lon="-1.05603">
        <ele>65.00207</ele>
        <time>2022-12-23T12:22:10.744Z</time>
      </trkpt>
      <trkpt lat="45.18589" lon="-1.05617">
        <ele>64.972969</ele>
        <time>2022-12-23T12:22:13.734Z</time>
      </trkpt>
      <trkpt lat="45.1859" lon="-1.0563">
        <ele>64.944916</ele>
        <time>2022-12-23T12:22:16.756Z</time>
      </trkpt>
      <trkpt lat="45.1859" lon="-1.05644">
        <ele>64.914345</ele>
        <time>2022-12-23T12:22:19.746Z</time>
      </trkpt>
      <trkpt lat="45.1859" lon="-1.05658">
        <ele>64.842509</ele>
        <time>2022-12-23T12:22:22.753Z</time>
      </trkpt>
      <trkpt lat="45.18591" lon="-1.05673">
        <ele>64.722803</ele>
        <time>2022-12-23T12:22:26.732Z</time>
      </trkpt>
      <trkpt lat="45.18591" lon="-1.05687">
        <ele>64.613226</ele>
        <time>2022-12-23T12:22:30.729Z</time>
      </trkpt>
      <trkpt lat="45.18588" lon="-1.05702">
        <ele>64.493601</ele>
        <time>2022-12-23T12:22:34.727Z</time>
      </trkpt>
      <trkpt lat="45.18579" lon="-1.05713">
        <ele>64.366876</ele>
        <time>2022-12-23T12:22:38.737Z</time>
      </trkpt>
      <trkpt lat="45.1857" lon="-1.05718">
        <ele>64.261089</ele>
        <time>2022-12-23T12:22:42.729Z</time>
      </trkpt>
      <trkpt lat="45.18561" lon="-1.05722">
        <ele>64.155484</ele>
        <time>2022-12-23T12:22:46.741Z</time>
      </trkpt>
      <trkpt lat="45.1855" lon="-1.05724">
        <ele>64.035706</ele>
        <time>2022-12-23T12:22:50.737Z</time>
      </trkpt>
      <trkpt lat="45.18541" lon="-1.05723">
        <ele>63.928324</ele>
        <time>2022-12-23T12:22:54.747Z</time>
      </trkpt>
      <trkpt lat="45.18529" lon="-1.0572">
        <ele>63.800246</ele>
        <time>2022-12-23T12:22:58.741Z</time>
      </trkpt>
      <trkpt lat="45.1852" lon="-1.05718">
        <ele>63.696691</ele>
        <time>2022-12-23T12:23:01.731Z</time>
      </trkpt>
      <trkpt lat="45.18511" lon="-1.05715">
        <ele>63.590845</ele>
        <time>2022-12-23T12:23:04.747Z</time>
      </trkpt>
      <trkpt lat="45.18501" lon="-1.05711">
        <ele>63.479836</ele>
        <time>2022-12-23T12:23:07.742Z</time>
      </trkpt>
      <trkpt lat="45.18491" lon="-1.05708">
        <ele>63.367023</ele>
        <time>2022-12-23T12:23:10.753Z</time>
      </trkpt>
      <trkpt lat="45.18481" lon="-1.05706">
        <ele>63.258368</ele>
        <time>2022-12-23T12:23:13.756Z</time>
      </trkpt>
      <trkpt lat="45.18471" lon="-1.05702">
        <ele>63.1466</ele>
        <time>2022-12-23T12:23:16.732Z</time>
      </trkpt>
      <trkpt lat="45.18461" lon="-1.057">
        <ele>63.031802</ele>
        <time>2022-12-23T12:23:19.751Z</time>
      </trkpt>
      <trkpt lat="45.18451" lon="-1.05696">
        <ele>62.919936</ele>
        <time>2022-12-23T12:23:22.744Z</time>
      </trkpt>
      <trkpt lat="45.1844" lon="-1.05692">
        <ele>62.941471</ele>
        <time>2022-12-23T12:23:25.743Z</time>
      </trkpt>
      <trkpt lat="45.1843" lon="-1.0569">
        <ele>62.96244</ele>
        <time>2022-12-23T12:23:28.752Z</time>
      </trkpt>
      <trkpt lat="45.18419" lon="-1.05688">
        <ele>62.984182</ele>
        <time>2022-12-23T12:23:31.752Z</time>
      </trkpt>
      <trkpt lat="45.18408" lon="-1.05685">
        <ele>63.006395</ele>
        <time>2022-12-23T12:23:34.741Z</time>
      </trkpt>
      <trkpt lat="45.18397" lon="-1.05682">
        <ele>63.029965</ele>
        <time>2022-12-23T12:23:37.733Z</time>
      </trkpt>
      <trkpt lat="45.18386" lon="-1.05678">
        <ele>63.052595</ele>
        <time>2022-12-23T12:23:40.744Z</time>
      </trkpt>
      <trkpt lat="45.18376" lon="-1.05675">
        <ele>63.074609</ele>
        <time>2022-12-23T12:23:43.754Z</time>
      </trkpt>
      <trkpt lat="45.18365" lon="-1.05672">
        <ele>63.095433</ele>
        <time>2022-12-23T12:23:46.752Z</time>
      </trkpt>
      <trkpt lat="45.18356" lon="-1.05668">
        <ele>63.11608</ele>
        <time>2022-12-23T12:23:49.750Z</time>
      </trkpt>
      <trkpt lat="45.18346" lon="-1.05664">
        <ele>63.136964</ele>
        <time>2022-12-23T12:23:52.746Z</time>
      </trkpt>
      <trkpt lat="45.18336" lon="-1.05662">
        <ele>63.15746</ele>
        <time>2022-12-23T12:23:55.751Z</time>
      </trkpt>
      <trkpt lat="45.18325" lon="-1.05658">
        <ele>63.178799</ele>
        <time>2022-12-23T12:23:58.747Z</time>
      </trkpt>
      <trkpt lat="45.18315" lon="-1.05655">
        <ele>63.201066</ele>
        <time>2022-12-23T12:24:01.745Z</time>
      </trkpt>
      <trkpt lat="45.18304" lon="-1.05653">
        <ele>63.222183</ele>
        <time>2022-12-23T12:24:04.748Z</time>
      </trkpt>
      <trkpt lat="45.18295" lon="-1.0565">
        <ele>63.240517</ele>
        <time>2022-12-23T12:24:07.732Z</time>
      </trkpt>
      <trkpt lat="45.18286" lon="-1.05647">
        <ele>63.25989</ele>
        <time>2022-12-23T12:24:10.754Z</time>
      </trkpt>
      <trkpt lat="45.18276" lon="-1.05643">
        <ele>63.280738</ele>
        <time>2022-12-23T12:24:13.752Z</time>
      </trkpt>
      <trkpt lat="45.18266" lon="-1.05641">
        <ele>63.237851</ele>
        <time>2022-12-23T12:24:16.753Z</time>
      </trkpt>
      <trkpt lat="45.18257" lon="-1.05639">
        <ele>63.193084</ele>
        <time>2022-12-23T12:24:19.756Z</time>
      </trkpt>
      <trkpt lat="45.18248" lon="-1.05636">
        <ele>63.14587</ele>
        <time>2022-12-23T12:24:22.748Z</time>
      </trkpt>
      <trkpt lat="45.18238" lon="-1.05632">
        <ele>63.094921</ele>
        <time>2022-12-23T12:24:25.754Z</time>
      </trkpt>
      <trkpt lat="45.18227" lon="-1.05629">
        <ele>63.04173</ele>
        <time>2022-12-23T12:24:28.753Z</time>
      </trkpt>
      <trkpt lat="45.18216" lon="-1.05626">
        <ele>62.987098</ele>
        <time>2022-12-23T12:24:31.754Z</time>
      </trkpt>
      <trkpt lat="45.18205" lon="-1.05623">
        <ele>62.930674</ele>
        <time>2022-12-23T12:24:34.759Z</time>
      </trkpt>
      <trkpt lat="45.18194" lon="-1.05619">
        <ele>62.87272</ele>
        <time>2022-12-23T12:24:37.734Z</time>
      </trkpt>
      <trkpt lat="45.18182" lon="-1.05615">
        <ele>62.816278</ele>
        <time>2022-12-23T12:24:40.732Z</time>
      </trkpt>
      <trkpt lat="45.18171" lon="-1.05612">
        <ele>62.75786</ele>
        <time>2022-12-23T12:24:43.742Z</time>
      </trkpt>
      <trkpt lat="45.18159" lon="-1.05609">
        <ele>62.69883</ele>
        <time>2022-12-23T12:24:46.755Z</time>
      </trkpt>
      <trkpt lat="45.18147" lon="-1.05606">
        <ele>62.638769</ele>
        <time>2022-12-23T12:24:49.754Z</time>
      </trkpt>
      <trkpt lat="45.18135" lon="-1.05602">
        <ele>62.581521</ele>
        <time>2022-12-23T12:24:52.753Z</time>
      </trkpt>
      <trkpt lat="45.18124" lon="-1.05599">
        <ele>62.524753</ele>
        <time>2022-12-23T12:24:55.746Z</time>
      </trkpt>
      <trkpt lat="45.18113" lon="-1.05595">
        <ele>62.468067</ele>
        <time>2022-12-23T12:24:58.748Z</time>
      </trkpt>
      <trkpt lat="45.18102" lon="-1.05591">
        <ele>62.412884</ele>
        <time>2022-12-23T12:25:01.756Z</time>
      </trkpt>
      <trkpt lat="45.18091" lon="-1.05588">
        <ele>62.407384</ele>
        <time>2022-12-23T12:25:04.754Z</time>
      </trkpt>
      <trkpt lat="45.1808" lon="-1.05584">
        <ele>62.41773</ele>
        <time>2022-12-23T12:25:07.755Z</time>
      </trkpt>
      <trkpt lat="45.18069" lon="-1.05581">
        <ele>62.427748</ele>
        <time>2022-12-23T12:25:10.753Z</time>
      </trkpt>
      <trkpt lat="45.18058" lon="-1.05579">
        <ele>62.437852</ele>
        <time>2022-12-23T12:25:13.754Z</time>
      </trkpt>
      <trkpt lat="45.18048" lon="-1.05575">
        <ele>62.448123</ele>
        <time>2022-12-23T12:25:16.750Z</time>
      </trkpt>
      <trkpt lat="45.18036" lon="-1.05572">
        <ele>62.458635</ele>
        <time>2022-12-23T12:25:19.754Z</time>
      </trkpt>
      <trkpt lat="45.18025" lon="-1.05569">
        <ele>62.469242</ele>
        <time>2022-12-23T12:25:22.735Z</time>
      </trkpt>
      <trkpt lat="45.18015" lon="-1.05566">
        <ele>62.478923</ele>
        <time>2022-12-23T12:25:25.746Z</time>
      </trkpt>
      <trkpt lat="45.18005" lon="-1.05563">
        <ele>62.487988</ele>
        <time>2022-12-23T12:25:28.738Z</time>
      </trkpt>
      <trkpt lat="45.17995" lon="-1.0556">
        <ele>62.497458</ele>
        <time>2022-12-23T12:25:31.756Z</time>
      </trkpt>
      <trkpt lat="45.17984" lon="-1.05558">
        <ele>62.507773</ele>
        <time>2022-12-23T12:25:34.755Z</time>
      </trkpt>
      <trkpt lat="45.17973" lon="-1.05555">
        <ele>62.517906</ele>
        <time>2022-12-23T12:25:37.754Z</time>
      </trkpt>
      <trkpt lat="45.17962" lon="-1.05553">
        <ele>62.528335</ele>
        <time>2022-12-23T12:25:40.743Z</time>
      </trkpt>
      <trkpt lat="45.17952" lon="-1.0555">
        <ele>62.537356</ele>
        <time>2022-12-23T12:25:43.754Z</time>
      </trkpt>
      <trkpt lat="45.17942" lon="-1.05547">
        <ele>62.546615</ele>
        <time>2022-12-23T12:25:46.741Z</time>
      </trkpt>
      <trkpt lat="45.17931" lon="-1.05543">
        <ele>62.556782</ele>
        <time>2022-12-23T12:25:49.753Z</time>
      </trkpt>
      <trkpt lat="45.1792" lon="-1.0554">
        <ele>62.545214</ele>
        <time>2022-12-23T12:25:52.740Z</time>
      </trkpt>
      <trkpt lat="45.1791" lon="-1.05537">
        <ele>62.474449</ele>
        <time>2022-12-23T12:25:55.744Z</time>
      </trkpt>
      <trkpt lat="45.17901" lon="-1.05533">
        <ele>62.41111</ele>
        <time>2022-12-23T12:25:58.744Z</time>
      </trkpt>
      <trkpt lat="45.17891" lon="-1.05531">
        <ele>62.344243</ele>
        <time>2022-12-23T12:26:01.748Z</time>
      </trkpt>
      <trkpt lat="45.1788" lon="-1.05528">
        <ele>62.273763</ele>
        <time>2022-12-23T12:26:04.741Z</time>
      </trkpt>
      <trkpt lat="45.1787" lon="-1.05525">
        <ele>62.200949</ele>
        <time>2022-12-23T12:26:07.756Z</time>
      </trkpt>
      <trkpt lat="45.17859" lon="-1.05521">
        <ele>62.125985</ele>
        <time>2022-12-23T12:26:10.747Z</time>
      </trkpt>
      <trkpt lat="45.17848" lon="-1.05518">
        <ele>62.05122</ele>
        <time>2022-12-23T12:26:13.752Z</time>
      </trkpt>
      <trkpt lat="45.17836" lon="-1.05514">
        <ele>61.972484</ele>
        <time>2022-12-23T12:26:16.752Z</time>
      </trkpt>
      <trkpt lat="45.17824" lon="-1.0551">
        <ele>61.890295</ele>
        <time>2022-12-23T12:26:19.753Z</time>
      </trkpt>
      <trkpt lat="45.17812" lon="-1.05506">
        <ele>61.809384</ele>
        <time>2022-12-23T12:26:22.752Z</time>
      </trkpt>
      <trkpt lat="45.178" lon="-1.05503">
        <ele>61.728663</ele>
        <time>2022-12-23T12:26:25.752Z</time>
      </trkpt>
      <trkpt lat="45.17788" lon="-1.05499">
        <ele>61.647382</ele>
        <time>2022-12-23T12:26:28.752Z</time>
      </trkpt>
      <trkpt lat="45.17777" lon="-1.05495">
        <ele>61.569936</ele>
        <time>2022-12-23T12:26:31.751Z</time>
      </trkpt>
      <trkpt lat="45.17767" lon="-1.05493">
        <ele>61.504112</ele>
        <time>2022-12-23T12:26:34.749Z</time>
      </trkpt>
      <trkpt lat="45.17757" lon="-1.0549">
        <ele>61.435935</ele>
        <time>2022-12-23T12:26:37.729Z</time>
      </trkpt>
      <trkpt lat="45.17746" lon="-1.05487">
        <ele>61.371808</ele>
        <time>2022-12-23T12:26:40.744Z</time>
      </trkpt>
      <trkpt lat="45.17735" lon="-1.05484">
        <ele>61.407282</ele>
        <time>2022-12-23T12:26:43.755Z</time>
      </trkpt>
      <trkpt lat="45.17724" lon="-1.05481">
        <ele>61.443273</ele>
        <time>2022-12-23T12:26:46.733Z</time>
      </trkpt>
      <trkpt lat="45.17712" lon="-1.05477">
        <ele>61.47905</ele>
        <time>2022-12-23T12:26:49.741Z</time>
      </trkpt>
      <trkpt lat="45.17702" lon="-1.05474">
        <ele>61.511802</ele>
        <time>2022-12-23T12:26:52.752Z</time>
      </trkpt>
      <trkpt lat="45.17692" lon="-1.0547">
        <ele>61.542372</ele>
        <time>2022-12-23T12:26:56.744Z</time>
      </trkpt>
      <trkpt lat="45.17683" lon="-1.05466">
        <ele>61.571632</ele>
        <time>2022-12-23T12:27:01.744Z</time>
      </trkpt>
      <trkpt lat="45.17672" lon="-1.05465">
        <ele>61.606145</ele>
        <time>2022-12-23T12:27:05.737Z</time>
      </trkpt>
      <trkpt lat="45.17662" lon="-1.05462">
        <ele>61.637023</ele>
        <time>2022-12-23T12:27:08.735Z</time>
      </trkpt>
      <trkpt lat="45.17653" lon="-1.0546">
        <ele>61.667985</ele>
        <time>2022-12-23T12:27:11.764Z</time>
      </trkpt>
      <trkpt lat="45.17643" lon="-1.05456">
        <ele>61.699482</ele>
        <time>2022-12-23T12:27:14.729Z</time>
      </trkpt>
      <trkpt lat="45.17633" lon="-1.05454">
        <ele>61.731313</ele>
        <time>2022-12-23T12:27:17.751Z</time>
      </trkpt>
      <trkpt lat="45.17624" lon="-1.0545">
        <ele>61.760274</ele>
        <time>2022-12-23T12:27:20.753Z</time>
      </trkpt>
      <trkpt lat="45.17615" lon="-1.05447">
        <ele>61.78871</ele>
        <time>2022-12-23T12:27:23.750Z</time>
      </trkpt>
      <trkpt lat="45.17605" lon="-1.05444">
        <ele>61.819808</ele>
        <time>2022-12-23T12:27:26.756Z</time>
      </trkpt>
      <trkpt lat="45.17596" lon="-1.05439">
        <ele>61.850093</ele>
        <time>2022-12-23T12:27:29.760Z</time>
      </trkpt>
      <trkpt lat="45.17586" lon="-1.05435">
        <ele>61.881928</ele>
        <time>2022-12-23T12:27:32.749Z</time>
      </trkpt>
      <trkpt lat="45.17576" lon="-1.05433">
        <ele>61.912625</ele>
        <time>2022-12-23T12:27:35.755Z</time>
      </trkpt>
      <trkpt lat="45.17565" lon="-1.05432">
        <ele>61.897749</ele>
        <time>2022-12-23T12:27:38.740Z</time>
      </trkpt>
      <trkpt lat="45.17554" lon="-1.05428">
        <ele>61.84952</ele>
        <time>2022-12-23T12:27:41.751Z</time>
      </trkpt>
      <trkpt lat="45.17543" lon="-1.05425">
        <ele>61.801351</ele>
        <time>2022-12-23T12:27:44.764Z</time>
      </trkpt>
      <trkpt lat="45.17532" lon="-1.05422">
        <ele>61.754539</ele>
        <time>2022-12-23T12:27:47.754Z</time>
      </trkpt>
      <trkpt lat="45.17522" lon="-1.05419">
        <ele>61.710495</ele>
        <time>2022-12-23T12:27:50.752Z</time>
      </trkpt>
      <trkpt lat="45.17511" lon="-1.05416">
        <ele>61.665277</ele>
        <time>2022-12-23T12:27:53.746Z</time>
      </trkpt>
      <trkpt lat="45.17501" lon="-1.05413">
        <ele>61.62041</ele>
        <time>2022-12-23T12:27:56.731Z</time>
      </trkpt>
      <trkpt lat="45.1749" lon="-1.05409">
        <ele>61.573757</ele>
        <time>2022-12-23T12:27:59.740Z</time>
      </trkpt>
      <trkpt lat="45.1748" lon="-1.05405">
        <ele>61.527104</ele>
        <time>2022-12-23T12:28:02.751Z</time>
      </trkpt>
      <trkpt lat="45.17469" lon="-1.05401">
        <ele>61.479701</ele>
        <time>2022-12-23T12:28:05.753Z</time>
      </trkpt>
      <trkpt lat="45.17458" lon="-1.05398">
        <ele>61.434422</ele>
        <time>2022-12-23T12:28:08.748Z</time>
      </trkpt>
      <trkpt lat="45.17447" lon="-1.05395">
        <ele>61.388133</ele>
        <time>2022-12-23T12:28:11.756Z</time>
      </trkpt>
      <trkpt lat="45.17436" lon="-1.05393">
        <ele>61.340185</ele>
        <time>2022-12-23T12:28:14.750Z</time>
      </trkpt>
      <trkpt lat="45.17425" lon="-1.05389">
        <ele>61.291895</ele>
        <time>2022-12-23T12:28:17.748Z</time>
      </trkpt>
      <trkpt lat="45.17413" lon="-1.05386">
        <ele>61.242182</ele>
        <time>2022-12-23T12:28:20.754Z</time>
      </trkpt>
      <trkpt lat="45.17401" lon="-1.05383">
        <ele>61.190756</ele>
        <time>2022-12-23T12:28:23.764Z</time>
      </trkpt>
      <trkpt lat="45.1739" lon="-1.0538">
        <ele>61.183017</ele>
        <time>2022-12-23T12:28:26.756Z</time>
      </trkpt>
      <trkpt lat="45.17378" lon="-1.05376">
        <ele>61.213121</ele>
        <time>2022-12-23T12:28:29.753Z</time>
      </trkpt>
      <trkpt lat="45.17368" lon="-1.05373">
        <ele>61.240169</ele>
        <time>2022-12-23T12:28:32.753Z</time>
      </trkpt>
      <trkpt lat="45.17357" lon="-1.0537">
        <ele>61.268187</ele>
        <time>2022-12-23T12:28:35.744Z</time>
      </trkpt>
      <trkpt lat="45.17346" lon="-1.05367">
        <ele>61.297572</ele>
        <time>2022-12-23T12:28:38.755Z</time>
      </trkpt>
      <trkpt lat="45.17335" lon="-1.05363">
        <ele>61.327739</ele>
        <time>2022-12-23T12:28:41.754Z</time>
      </trkpt>
      <trkpt lat="45.17323" lon="-1.05359">
        <ele>61.358707</ele>
        <time>2022-12-23T12:28:44.753Z</time>
      </trkpt>
      <trkpt lat="45.17311" lon="-1.05356">
        <ele>61.389751</ele>
        <time>2022-12-23T12:28:47.749Z</time>
      </trkpt>
      <trkpt lat="45.17299" lon="-1.05352">
        <ele>61.421474</ele>
        <time>2022-12-23T12:28:50.743Z</time>
      </trkpt>
      <trkpt lat="45.17287" lon="-1.05348">
        <ele>61.45356</ele>
        <time>2022-12-23T12:28:53.754Z</time>
      </trkpt>
      <trkpt lat="45.17274" lon="-1.05345">
        <ele>61.487656</ele>
        <time>2022-12-23T12:28:56.751Z</time>
      </trkpt>
      <trkpt lat="45.17261" lon="-1.05341">
        <ele>61.521682</ele>
        <time>2022-12-23T12:28:59.754Z</time>
      </trkpt>
      <trkpt lat="45.17248" lon="-1.05337">
        <ele>61.554772</ele>
        <time>2022-12-23T12:29:02.754Z</time>
      </trkpt>
      <trkpt lat="45.17236" lon="-1.05333">
        <ele>61.58711</ele>
        <time>2022-12-23T12:29:05.756Z</time>
      </trkpt>
      <trkpt lat="45.17223" lon="-1.05329">
        <ele>61.621278</ele>
        <time>2022-12-23T12:29:08.754Z</time>
      </trkpt>
      <trkpt lat="45.17211" lon="-1.05325">
        <ele>61.692422</ele>
        <time>2022-12-23T12:29:11.747Z</time>
      </trkpt>
      <trkpt lat="45.172" lon="-1.05322">
        <ele>61.77115</ele>
        <time>2022-12-23T12:29:14.730Z</time>
      </trkpt>
      <trkpt lat="45.17189" lon="-1.05318">
        <ele>61.851363</ele>
        <time>2022-12-23T12:29:17.752Z</time>
      </trkpt>
      <trkpt lat="45.17179" lon="-1.05314">
        <ele>61.929844</ele>
        <time>2022-12-23T12:29:20.746Z</time>
      </trkpt>
      <trkpt lat="45.17166" lon="-1.05311">
        <ele>62.018659</ele>
        <time>2022-12-23T12:29:23.756Z</time>
      </trkpt>
      <trkpt lat="45.17154" lon="-1.05307">
        <ele>62.103615</ele>
        <time>2022-12-23T12:29:26.759Z</time>
      </trkpt>
      <trkpt lat="45.17142" lon="-1.05304">
        <ele>62.190468</ele>
        <time>2022-12-23T12:29:29.754Z</time>
      </trkpt>
      <trkpt lat="45.17131" lon="-1.05301">
        <ele>62.274829</ele>
        <time>2022-12-23T12:29:32.756Z</time>
      </trkpt>
      <trkpt lat="45.17119" lon="-1.05298">
        <ele>62.360384</ele>
        <time>2022-12-23T12:29:35.743Z</time>
      </trkpt>
      <trkpt lat="45.17106" lon="-1.05294">
        <ele>62.449323</ele>
        <time>2022-12-23T12:29:38.755Z</time>
      </trkpt>
      <trkpt lat="45.17094" lon="-1.0529">
        <ele>62.54075</ele>
        <time>2022-12-23T12:29:41.748Z</time>
      </trkpt>
      <trkpt lat="45.17082" lon="-1.05286">
        <ele>62.628399</ele>
        <time>2022-12-23T12:29:44.733Z</time>
      </trkpt>
      <trkpt lat="45.17071" lon="-1.05284">
        <ele>62.704561</ele>
        <time>2022-12-23T12:29:47.753Z</time>
      </trkpt>
      <trkpt lat="45.1706" lon="-1.0528">
        <ele>62.784571</ele>
        <time>2022-12-23T12:29:50.757Z</time>
      </trkpt>
      <trkpt lat="45.17048" lon="-1.05277">
        <ele>62.867758</ele>
        <time>2022-12-23T12:29:53.756Z</time>
      </trkpt>
      <trkpt lat="45.17036" lon="-1.05273">
        <ele>62.86331</ele>
        <time>2022-12-23T12:29:56.751Z</time>
      </trkpt>
      <trkpt lat="45.17024" lon="-1.05269">
        <ele>62.805215</ele>
        <time>2022-12-23T12:29:59.752Z</time>
      </trkpt>
      <trkpt lat="45.17012" lon="-1.05265">
        <ele>62.747649</ele>
        <time>2022-12-23T12:30:02.750Z</time>
      </trkpt>
      <trkpt lat="45.17001" lon="-1.05262">
        <ele>62.691324</ele>
        <time>2022-12-23T12:30:05.751Z</time>
      </trkpt>
      <trkpt lat="45.16988" lon="-1.05258">
        <ele>62.631254</ele>
        <time>2022-12-23T12:30:08.758Z</time>
      </trkpt>
      <trkpt lat="45.16976" lon="-1.05255">
        <ele>62.57139</ele>
        <time>2022-12-23T12:30:11.757Z</time>
      </trkpt>
      <trkpt lat="45.16963" lon="-1.05251">
        <ele>62.511458</ele>
        <time>2022-12-23T12:30:14.755Z</time>
      </trkpt>
      <trkpt lat="45.1695" lon="-1.05247">
        <ele>62.45093</ele>
        <time>2022-12-23T12:30:17.764Z</time>
      </trkpt>
      <trkpt lat="45.16937" lon="-1.05244">
        <ele>62.388763</ele>
        <time>2022-12-23T12:30:20.749Z</time>
      </trkpt>
      <trkpt lat="45.16929" lon="-1.05241">
        <ele>62.346181</ele>
        <time>2022-12-23T12:30:22.754Z</time>
      </trkpt>
      <trkpt lat="45.16916" lon="-1.05237">
        <ele>62.28579</ele>
        <time>2022-12-23T12:30:25.742Z</time>
      </trkpt>
      <trkpt lat="45.16905" lon="-1.05234">
        <ele>62.231504</ele>
        <time>2022-12-23T12:30:28.737Z</time>
      </trkpt>
      <trkpt lat="45.16893" lon="-1.05231">
        <ele>62.173853</ele>
        <time>2022-12-23T12:30:31.756Z</time>
      </trkpt>
      <trkpt lat="45.1688" lon="-1.05227">
        <ele>62.114312</ele>
        <time>2022-12-23T12:30:34.759Z</time>
      </trkpt>
      <trkpt lat="45.16867" lon="-1.05224">
        <ele>62.051981</ele>
        <time>2022-12-23T12:30:37.746Z</time>
      </trkpt>
      <trkpt lat="45.16854" lon="-1.0522">
        <ele>61.984671</ele>
        <time>2022-12-23T12:30:40.751Z</time>
      </trkpt>
      <trkpt lat="45.16842" lon="-1.05216">
        <ele>61.920726</ele>
        <time>2022-12-23T12:30:43.751Z</time>
      </trkpt>
      <trkpt lat="45.1683" lon="-1.05212">
        <ele>61.85672</ele>
        <time>2022-12-23T12:30:46.748Z</time>
      </trkpt>
      <trkpt lat="45.16817" lon="-1.05208">
        <ele>61.791982</ele>
        <time>2022-12-23T12:30:49.754Z</time>
      </trkpt>
      <trkpt lat="45.16805" lon="-1.05205">
        <ele>61.727465</ele>
        <time>2022-12-23T12:30:52.755Z</time>
      </trkpt>
      <trkpt lat="45.16792" lon="-1.05201">
        <ele>61.663161</ele>
        <time>2022-12-23T12:30:55.753Z</time>
      </trkpt>
      <trkpt lat="45.1678" lon="-1.05198">
        <ele>61.598644</ele>
        <time>2022-12-23T12:30:58.753Z</time>
      </trkpt>
      <trkpt lat="45.16768" lon="-1.05194">
        <ele>61.53484</ele>
        <time>2022-12-23T12:31:01.747Z</time>
      </trkpt>
      <trkpt lat="45.16756" lon="-1.0519">
        <ele>61.47174</ele>
        <time>2022-12-23T12:31:04.746Z</time>
      </trkpt>
      <trkpt lat="45.16743" lon="-1.05187">
        <ele>61.407071</ele>
        <time>2022-12-23T12:31:07.754Z</time>
      </trkpt>
      <trkpt lat="45.16731" lon="-1.05183">
        <ele>61.342128</ele>
        <time>2022-12-23T12:31:10.755Z</time>
      </trkpt>
      <trkpt lat="45.16719" lon="-1.05179">
        <ele>61.282584</ele>
        <time>2022-12-23T12:31:13.747Z</time>
      </trkpt>
      <trkpt lat="45.16708" lon="-1.05176">
        <ele>61.221054</ele>
        <time>2022-12-23T12:31:16.747Z</time>
      </trkpt>
      <trkpt lat="45.16696" lon="-1.05172">
        <ele>61.158884</ele>
        <time>2022-12-23T12:31:19.755Z</time>
      </trkpt>
      <trkpt lat="45.16683" lon="-1.05169">
        <ele>61.149384</ele>
        <time>2022-12-23T12:31:22.754Z</time>
      </trkpt>
      <trkpt lat="45.16671" lon="-1.05165">
        <ele>61.162736</ele>
        <time>2022-12-23T12:31:25.735Z</time>
      </trkpt>
      <trkpt lat="45.16659" lon="-1.05162">
        <ele>61.176504</ele>
        <time>2022-12-23T12:31:28.738Z</time>
      </trkpt>
      <trkpt lat="45.16646" lon="-1.05158">
        <ele>61.190227</ele>
        <time>2022-12-23T12:31:31.752Z</time>
      </trkpt>
      <trkpt lat="45.16634" lon="-1.05154">
        <ele>61.203812</ele>
        <time>2022-12-23T12:31:34.758Z</time>
      </trkpt>
      <trkpt lat="45.16622" lon="-1.05151">
        <ele>61.217397</ele>
        <time>2022-12-23T12:31:37.752Z</time>
      </trkpt>
      <trkpt lat="45.1661" lon="-1.05147">
        <ele>61.230626</ele>
        <time>2022-12-23T12:31:40.752Z</time>
      </trkpt>
      <trkpt lat="45.16598" lon="-1.05143">
        <ele>61.24394</ele>
        <time>2022-12-23T12:31:43.753Z</time>
      </trkpt>
      <trkpt lat="45.16585" lon="-1.0514">
        <ele>61.257829</ele>
        <time>2022-12-23T12:31:46.748Z</time>
      </trkpt>
      <trkpt lat="45.16573" lon="-1.05136">
        <ele>61.271641</ele>
        <time>2022-12-23T12:31:49.754Z</time>
      </trkpt>
      <trkpt lat="45.16561" lon="-1.05132">
        <ele>61.284608</ele>
        <time>2022-12-23T12:31:52.756Z</time>
      </trkpt>
      <trkpt lat="45.16549" lon="-1.05129">
        <ele>61.297406</ele>
        <time>2022-12-23T12:31:55.770Z</time>
      </trkpt>
      <trkpt lat="45.16538" lon="-1.05125">
        <ele>61.310478</ele>
        <time>2022-12-23T12:31:58.752Z</time>
      </trkpt>
      <trkpt lat="45.16526" lon="-1.05122">
        <ele>61.323746</ele>
        <time>2022-12-23T12:32:01.751Z</time>
      </trkpt>
      <trkpt lat="45.16513" lon="-1.05118">
        <ele>61.329137</ele>
        <time>2022-12-23T12:32:04.764Z</time>
      </trkpt>
      <trkpt lat="45.16502" lon="-1.05114">
        <ele>61.303072</ele>
        <time>2022-12-23T12:32:07.757Z</time>
      </trkpt>
      <trkpt lat="45.16491" lon="-1.05112">
        <ele>61.280757</ele>
        <time>2022-12-23T12:32:10.758Z</time>
      </trkpt>
      <trkpt lat="45.16481" lon="-1.05109">
        <ele>61.258167</ele>
        <time>2022-12-23T12:32:13.754Z</time>
      </trkpt>
      <trkpt lat="45.16471" lon="-1.05106">
        <ele>61.235277</ele>
        <time>2022-12-23T12:32:16.740Z</time>
      </trkpt>
      <trkpt lat="45.1646" lon="-1.05103">
        <ele>61.212059</ele>
        <time>2022-12-23T12:32:19.733Z</time>
      </trkpt>
      <trkpt lat="45.16449" lon="-1.051">
        <ele>61.188662</ele>
        <time>2022-12-23T12:32:22.739Z</time>
      </trkpt>
      <trkpt lat="45.16438" lon="-1.05096">
        <ele>61.164395</ele>
        <time>2022-12-23T12:32:25.755Z</time>
      </trkpt>
      <trkpt lat="45.16427" lon="-1.05093">
        <ele>61.139678</ele>
        <time>2022-12-23T12:32:28.755Z</time>
      </trkpt>
      <trkpt lat="45.16416" lon="-1.05089">
        <ele>61.114762</ele>
        <time>2022-12-23T12:32:31.755Z</time>
      </trkpt>
      <trkpt lat="45.16404" lon="-1.05086">
        <ele>61.089655</ele>
        <time>2022-12-23T12:32:34.757Z</time>
      </trkpt>
      <trkpt lat="45.16392" lon="-1.05082">
        <ele>61.063796</ele>
        <time>2022-12-23T12:32:37.744Z</time>
      </trkpt>
      <trkpt lat="45.1638" lon="-1.05079">
        <ele>61.037875</ele>
        <time>2022-12-23T12:32:40.754Z</time>
      </trkpt>
      <trkpt lat="45.16368" lon="-1.05076">
        <ele>61.011147</ele>
        <time>2022-12-23T12:32:43.759Z</time>
      </trkpt>
      <trkpt lat="45.16356" lon="-1.05072">
        <ele>60.983727</ele>
        <time>2022-12-23T12:32:46.754Z</time>
      </trkpt>
      <trkpt lat="45.16343" lon="-1.05068">
        <ele>60.956038</ele>
        <time>2022-12-23T12:32:49.753Z</time>
      </trkpt>
      <trkpt lat="45.1633" lon="-1.05064">
        <ele>61.008231</ele>
        <time>2022-12-23T12:32:52.744Z</time>
      </trkpt>
      <trkpt lat="45.16317" lon="-1.0506">
        <ele>61.089638</ele>
        <time>2022-12-23T12:32:55.747Z</time>
      </trkpt>
      <trkpt lat="45.16304" lon="-1.05056">
        <ele>61.170006</ele>
        <time>2022-12-23T12:32:58.755Z</time>
      </trkpt>
      <trkpt lat="45.16291" lon="-1.05053">
        <ele>61.251054</ele>
        <time>2022-12-23T12:33:01.756Z</time>
      </trkpt>
      <trkpt lat="45.16278" lon="-1.05049">
        <ele>61.332368</ele>
        <time>2022-12-23T12:33:04.752Z</time>
      </trkpt>
      <trkpt lat="45.16265" lon="-1.05045">
        <ele>61.411814</ele>
        <time>2022-12-23T12:33:07.758Z</time>
      </trkpt>
      <trkpt lat="45.16252" lon="-1.05041">
        <ele>61.492019</ele>
        <time>2022-12-23T12:33:10.754Z</time>
      </trkpt>
      <trkpt lat="45.1624" lon="-1.05038">
        <ele>61.568571</ele>
        <time>2022-12-23T12:33:13.744Z</time>
      </trkpt>
      <trkpt lat="45.16227" lon="-1.05033">
        <ele>61.645256</ele>
        <time>2022-12-23T12:33:16.755Z</time>
      </trkpt>
      <trkpt lat="45.16215" lon="-1.0503">
        <ele>61.722062</ele>
        <time>2022-12-23T12:33:19.753Z</time>
      </trkpt>
      <trkpt lat="45.16202" lon="-1.05026">
        <ele>61.800564</ele>
        <time>2022-12-23T12:33:22.752Z</time>
      </trkpt>
      <trkpt lat="45.16189" lon="-1.05022">
        <ele>61.881611</ele>
        <time>2022-12-23T12:33:25.757Z</time>
      </trkpt>
      <trkpt lat="45.16176" lon="-1.05018">
        <ele>61.961742</ele>
        <time>2022-12-23T12:33:28.746Z</time>
      </trkpt>
      <trkpt lat="45.16163" lon="-1.05014">
        <ele>62.039462</ele>
        <time>2022-12-23T12:33:31.756Z</time>
      </trkpt>
      <trkpt lat="45.16151" lon="-1.0501">
        <ele>62.044167</ele>
        <time>2022-12-23T12:33:34.754Z</time>
      </trkpt>
      <trkpt lat="45.1614" lon="-1.05006">
        <ele>62.048399</ele>
        <time>2022-12-23T12:33:37.731Z</time>
      </trkpt>
      <trkpt lat="45.16128" lon="-1.05003">
        <ele>62.052822</ele>
        <time>2022-12-23T12:33:40.748Z</time>
      </trkpt>
      <trkpt lat="45.16115" lon="-1.05">
        <ele>62.057636</ele>
        <time>2022-12-23T12:33:43.737Z</time>
      </trkpt>
      <trkpt lat="45.16102" lon="-1.04996">
        <ele>62.062518</ele>
        <time>2022-12-23T12:33:46.756Z</time>
      </trkpt>
      <trkpt lat="45.16089" lon="-1.04992">
        <ele>62.067327</ele>
        <time>2022-12-23T12:33:49.751Z</time>
      </trkpt>
      <trkpt lat="45.16076" lon="-1.0499">
        <ele>62.072356</ele>
        <time>2022-12-23T12:33:52.754Z</time>
      </trkpt>
      <trkpt lat="45.16064" lon="-1.04985">
        <ele>62.077093</ele>
        <time>2022-12-23T12:33:55.734Z</time>
      </trkpt>
      <trkpt lat="45.16051" lon="-1.04981">
        <ele>62.082007</ele>
        <time>2022-12-23T12:33:58.752Z</time>
      </trkpt>
      <trkpt lat="45.16038" lon="-1.04977">
        <ele>62.086802</ele>
        <time>2022-12-23T12:34:01.753Z</time>
      </trkpt>
      <trkpt lat="45.16025" lon="-1.04973">
        <ele>62.091704</ele>
        <time>2022-12-23T12:34:04.753Z</time>
      </trkpt>
      <trkpt lat="45.16011" lon="-1.04969">
        <ele>62.096746</ele>
        <time>2022-12-23T12:34:07.755Z</time>
      </trkpt>
      <trkpt lat="45.15999" lon="-1.04965">
        <ele>62.101546</ele>
        <time>2022-12-23T12:34:10.756Z</time>
      </trkpt>
      <trkpt lat="45.15986" lon="-1.04961">
        <ele>62.106604</ele>
        <time>2022-12-23T12:34:13.752Z</time>
      </trkpt>
      <trkpt lat="45.15975" lon="-1.04958">
        <ele>62.113571</ele>
        <time>2022-12-23T12:34:16.739Z</time>
      </trkpt>
      <trkpt lat="45.15965" lon="-1.04955">
        <ele>62.120269</ele>
        <time>2022-12-23T12:34:19.742Z</time>
      </trkpt>
      <trkpt lat="45.15954" lon="-1.04951">
        <ele>62.127376</ele>
        <time>2022-12-23T12:34:22.743Z</time>
      </trkpt>
      <trkpt lat="45.15941" lon="-1.04948">
        <ele>62.13501</ele>
        <time>2022-12-23T12:34:25.756Z</time>
      </trkpt>
      <trkpt lat="45.15929" lon="-1.04944">
        <ele>62.142809</ele>
        <time>2022-12-23T12:34:28.754Z</time>
      </trkpt>
      <trkpt lat="45.15917" lon="-1.0494">
        <ele>62.150625</ele>
        <time>2022-12-23T12:34:31.755Z</time>
      </trkpt>
      <trkpt lat="45.15904" lon="-1.04937">
        <ele>62.158762</ele>
        <time>2022-12-23T12:34:34.757Z</time>
      </trkpt>
      <trkpt lat="45.15891" lon="-1.04933">
        <ele>62.167022</ele>
        <time>2022-12-23T12:34:37.753Z</time>
      </trkpt>
      <trkpt lat="45.15878" lon="-1.0493">
        <ele>62.175173</ele>
        <time>2022-12-23T12:34:40.737Z</time>
      </trkpt>
      <trkpt lat="45.15864" lon="-1.04926">
        <ele>62.183691</ele>
        <time>2022-12-23T12:34:43.751Z</time>
      </trkpt>
      <trkpt lat="45.15855" lon="-1.04923">
        <ele>62.189384</ele>
        <time>2022-12-23T12:34:45.756Z</time>
      </trkpt>
      <trkpt lat="45.15846" lon="-1.0492">
        <ele>62.195128</ele>
        <time>2022-12-23T12:34:47.760Z</time>
      </trkpt>
      <trkpt lat="45.15837" lon="-1.04918">
        <ele>62.20077</ele>
        <time>2022-12-23T12:34:49.745Z</time>
      </trkpt>
      <trkpt lat="45.15828" lon="-1.04914">
        <ele>62.206452</ele>
        <time>2022-12-23T12:34:51.750Z</time>
      </trkpt>
      <trkpt lat="45.1582" lon="-1.04912">
        <ele>62.212067</ele>
        <time>2022-12-23T12:34:53.739Z</time>
      </trkpt>
      <trkpt lat="45.15807" lon="-1.04908">
        <ele>62.195381</ele>
        <time>2022-12-23T12:34:56.756Z</time>
      </trkpt>
      <trkpt lat="45.15794" lon="-1.04904">
        <ele>62.138005</ele>
        <time>2022-12-23T12:34:59.754Z</time>
      </trkpt>
      <trkpt lat="45.15781" lon="-1.049">
        <ele>62.078785</ele>
        <time>2022-12-23T12:35:02.745Z</time>
      </trkpt>
      <trkpt lat="45.15768" lon="-1.04896">
        <ele>62.02006</ele>
        <time>2022-12-23T12:35:05.735Z</time>
      </trkpt>
      <trkpt lat="45.15759" lon="-1.04894">
        <ele>61.979541</ele>
        <time>2022-12-23T12:35:07.744Z</time>
      </trkpt>
      <trkpt lat="45.15746" lon="-1.0489">
        <ele>61.920813</ele>
        <time>2022-12-23T12:35:10.750Z</time>
      </trkpt>
      <trkpt lat="45.15732" lon="-1.04886">
        <ele>61.86166</ele>
        <time>2022-12-23T12:35:13.737Z</time>
      </trkpt>
      <trkpt lat="45.15723" lon="-1.04883">
        <ele>61.821258</ele>
        <time>2022-12-23T12:35:15.756Z</time>
      </trkpt>
      <trkpt lat="45.15715" lon="-1.04881">
        <ele>61.781417</ele>
        <time>2022-12-23T12:35:17.755Z</time>
      </trkpt>
      <trkpt lat="45.15705" lon="-1.04878">
        <ele>61.739666</ele>
        <time>2022-12-23T12:35:19.756Z</time>
      </trkpt>
      <trkpt lat="45.15696" lon="-1.04874">
        <ele>61.698199</ele>
        <time>2022-12-23T12:35:21.757Z</time>
      </trkpt>
      <trkpt lat="45.15687" lon="-1.04871">
        <ele>61.655952</ele>
        <time>2022-12-23T12:35:23.753Z</time>
      </trkpt>
      <trkpt lat="45.15675" lon="-1.04867">
        <ele>61.60389</ele>
        <time>2022-12-23T12:35:26.752Z</time>
      </trkpt>
      <trkpt lat="45.15663" lon="-1.04865">
        <ele>61.551067</ele>
        <time>2022-12-23T12:35:29.735Z</time>
      </trkpt>
      <trkpt lat="45.15654" lon="-1.04863">
        <ele>61.509891</ele>
        <time>2022-12-23T12:35:31.761Z</time>
      </trkpt>
      <trkpt lat="45.15645" lon="-1.0486">
        <ele>61.470411</ele>
        <time>2022-12-23T12:35:33.755Z</time>
      </trkpt>
      <trkpt lat="45.15635" lon="-1.04857">
        <ele>61.429703</ele>
        <time>2022-12-23T12:35:35.752Z</time>
      </trkpt>
      <trkpt lat="45.15623" lon="-1.04853">
        <ele>61.431836</ele>
        <time>2022-12-23T12:35:38.756Z</time>
      </trkpt>
      <trkpt lat="45.15613" lon="-1.0485">
        <ele>61.433416</ele>
        <time>2022-12-23T12:35:40.734Z</time>
      </trkpt>
      <trkpt lat="45.15601" lon="-1.04845">
        <ele>61.4356</ele>
        <time>2022-12-23T12:35:43.743Z</time>
      </trkpt>
      <trkpt lat="45.1559" lon="-1.04842">
        <ele>61.437469</ele>
        <time>2022-12-23T12:35:46.754Z</time>
      </trkpt>
      <trkpt lat="45.15579" lon="-1.04839">
        <ele>61.439356</ele>
        <time>2022-12-23T12:35:49.755Z</time>
      </trkpt>
      <trkpt lat="45.15567" lon="-1.04835">
        <ele>61.441365</ele>
        <time>2022-12-23T12:35:52.752Z</time>
      </trkpt>
      <trkpt lat="45.15554" lon="-1.04832">
        <ele>61.443564</ele>
        <time>2022-12-23T12:35:55.758Z</time>
      </trkpt>
      <trkpt lat="45.15541" lon="-1.04828">
        <ele>61.445689</ele>
        <time>2022-12-23T12:35:58.754Z</time>
      </trkpt>
      <trkpt lat="45.15533" lon="-1.04826">
        <ele>61.447193</ele>
        <time>2022-12-23T12:36:00.755Z</time>
      </trkpt>
      <trkpt lat="45.15524" lon="-1.04823">
        <ele>61.448688</ele>
        <time>2022-12-23T12:36:02.752Z</time>
      </trkpt>
      <trkpt lat="45.15515" lon="-1.04821">
        <ele>61.450189</ele>
        <time>2022-12-23T12:36:04.756Z</time>
      </trkpt>
      <trkpt lat="45.15501" lon="-1.04816">
        <ele>61.452511</ele>
        <time>2022-12-23T12:36:07.756Z</time>
      </trkpt>
      <trkpt lat="45.15492" lon="-1.04814">
        <ele>61.454039</ele>
        <time>2022-12-23T12:36:09.758Z</time>
      </trkpt>
      <trkpt lat="45.15483" lon="-1.04811">
        <ele>61.455645</ele>
        <time>2022-12-23T12:36:11.748Z</time>
      </trkpt>
      <trkpt lat="45.15474" lon="-1.04808">
        <ele>61.457162</ele>
        <time>2022-12-23T12:36:13.750Z</time>
      </trkpt>
      <trkpt lat="45.15465" lon="-1.04805">
        <ele>61.458695</ele>
        <time>2022-12-23T12:36:15.751Z</time>
      </trkpt>
      <trkpt lat="45.15452" lon="-1.04802">
        <ele>61.519722</ele>
        <time>2022-12-23T12:36:18.754Z</time>
      </trkpt>
      <trkpt lat="45.15439" lon="-1.04798">
        <ele>61.615699</ele>
        <time>2022-12-23T12:36:21.759Z</time>
      </trkpt>
      <trkpt lat="45.15428" lon="-1.04795">
        <ele>61.69966</ele>
        <time>2022-12-23T12:36:24.778Z</time>
      </trkpt>
      <trkpt lat="45.15418" lon="-1.04791">
        <ele>61.775701</ele>
        <time>2022-12-23T12:36:27.750Z</time>
      </trkpt>
      <trkpt lat="45.15407" lon="-1.04788">
        <ele>61.852354</ele>
        <time>2022-12-23T12:36:30.753Z</time>
      </trkpt>
      <trkpt lat="45.15396" lon="-1.04784">
        <ele>61.938662</ele>
        <time>2022-12-23T12:36:33.737Z</time>
      </trkpt>
      <trkpt lat="45.15384" lon="-1.04781">
        <ele>62.027943</ele>
        <time>2022-12-23T12:36:36.736Z</time>
      </trkpt>
      <trkpt lat="45.15375" lon="-1.04779">
        <ele>62.093697</ele>
        <time>2022-12-23T12:36:38.747Z</time>
      </trkpt>
      <trkpt lat="45.15366" lon="-1.04777">
        <ele>62.160284</ele>
        <time>2022-12-23T12:36:40.755Z</time>
      </trkpt>
      <trkpt lat="45.15357" lon="-1.04775">
        <ele>62.226663</ele>
        <time>2022-12-23T12:36:42.754Z</time>
      </trkpt>
      <trkpt lat="45.15344" lon="-1.04771">
        <ele>62.323243</ele>
        <time>2022-12-23T12:36:45.738Z</time>
      </trkpt>
      <trkpt lat="45.15332" lon="-1.04767">
        <ele>62.409776</ele>
        <time>2022-12-23T12:36:48.748Z</time>
      </trkpt>
      <trkpt lat="45.1532" lon="-1.04764">
        <ele>62.497625</ele>
        <time>2022-12-23T12:36:51.754Z</time>
      </trkpt>
      <trkpt lat="45.15307" lon="-1.0476">
        <ele>62.592896</ele>
        <time>2022-12-23T12:36:54.735Z</time>
      </trkpt>
      <trkpt lat="45.15298" lon="-1.04757">
        <ele>62.662107</ele>
        <time>2022-12-23T12:36:56.757Z</time>
      </trkpt>
      <trkpt lat="45.15286" lon="-1.04753">
        <ele>62.754715</ele>
        <time>2022-12-23T12:36:59.737Z</time>
      </trkpt>
      <trkpt lat="45.15273" lon="-1.0475">
        <ele>62.739448</ele>
        <time>2022-12-23T12:37:02.752Z</time>
      </trkpt>
      <trkpt lat="45.15264" lon="-1.04747">
        <ele>62.717502</ele>
        <time>2022-12-23T12:37:04.744Z</time>
      </trkpt>
      <trkpt lat="45.15251" lon="-1.04744">
        <ele>62.685854</ele>
        <time>2022-12-23T12:37:07.743Z</time>
      </trkpt>
      <trkpt lat="45.15242" lon="-1.04741">
        <ele>62.664034</ele>
        <time>2022-12-23T12:37:09.766Z</time>
      </trkpt>
      <trkpt lat="45.15233" lon="-1.04737">
        <ele>62.64136</ele>
        <time>2022-12-23T12:37:11.757Z</time>
      </trkpt>
      <trkpt lat="45.15224" lon="-1.04734">
        <ele>62.619735</ele>
        <time>2022-12-23T12:37:13.744Z</time>
      </trkpt>
      <trkpt lat="45.15211" lon="-1.0473">
        <ele>62.589079</ele>
        <time>2022-12-23T12:37:16.753Z</time>
      </trkpt>
      <trkpt lat="45.152" lon="-1.04727">
        <ele>62.560435</ele>
        <time>2022-12-23T12:37:19.756Z</time>
      </trkpt>
      <trkpt lat="45.15189" lon="-1.04725">
        <ele>62.535142</ele>
        <time>2022-12-23T12:37:22.752Z</time>
      </trkpt>
      <trkpt lat="45.15178" lon="-1.04721">
        <ele>62.507273</ele>
        <time>2022-12-23T12:37:25.756Z</time>
      </trkpt>
      <trkpt lat="45.15166" lon="-1.04717">
        <ele>62.477857</ele>
        <time>2022-12-23T12:37:28.756Z</time>
      </trkpt>
      <trkpt lat="45.15154" lon="-1.04714">
        <ele>62.448917</ele>
        <time>2022-12-23T12:37:31.755Z</time>
      </trkpt>
      <trkpt lat="45.15141" lon="-1.0471">
        <ele>62.418223</ele>
        <time>2022-12-23T12:37:34.759Z</time>
      </trkpt>
      <trkpt lat="45.15129" lon="-1.04706">
        <ele>62.38778</ele>
        <time>2022-12-23T12:37:37.754Z</time>
      </trkpt>
      <trkpt lat="45.15116" lon="-1.04702">
        <ele>62.357124</ele>
        <time>2022-12-23T12:37:40.753Z</time>
      </trkpt>
      <trkpt lat="45.15104" lon="-1.04698">
        <ele>62.373521</ele>
        <time>2022-12-23T12:37:43.756Z</time>
      </trkpt>
      <trkpt lat="45.15091" lon="-1.04695">
        <ele>62.476731</ele>
        <time>2022-12-23T12:37:46.746Z</time>
      </trkpt>
      <trkpt lat="45.15078" lon="-1.04692">
        <ele>62.579942</ele>
        <time>2022-12-23T12:37:49.756Z</time>
      </trkpt>
      <trkpt lat="45.15065" lon="-1.04688">
        <ele>62.684034</ele>
        <time>2022-12-23T12:37:52.742Z</time>
      </trkpt>
      <trkpt lat="45.15053" lon="-1.04684">
        <ele>62.781885</ele>
        <time>2022-12-23T12:37:55.759Z</time>
      </trkpt>
      <trkpt lat="45.15041" lon="-1.0468">
        <ele>62.883188</ele>
        <time>2022-12-23T12:37:58.753Z</time>
      </trkpt>
      <trkpt lat="45.15028" lon="-1.04676">
        <ele>62.9842</ele>
        <time>2022-12-23T12:38:01.756Z</time>
      </trkpt>
      <trkpt lat="45.15015" lon="-1.04672">
        <ele>63.091402</ele>
        <time>2022-12-23T12:38:04.758Z</time>
      </trkpt>
      <trkpt lat="45.15006" lon="-1.04669">
        <ele>63.1645</ele>
        <time>2022-12-23T12:38:06.743Z</time>
      </trkpt>
      <trkpt lat="45.14997" lon="-1.04667">
        <ele>63.237256</ele>
        <time>2022-12-23T12:38:08.753Z</time>
      </trkpt>
      <trkpt lat="45.14988" lon="-1.04664">
        <ele>63.310236</ele>
        <time>2022-12-23T12:38:10.752Z</time>
      </trkpt>
      <trkpt lat="45.14979" lon="-1.04661">
        <ele>63.383667</ele>
        <time>2022-12-23T12:38:12.754Z</time>
      </trkpt>
      <trkpt lat="45.14967" lon="-1.04658">
        <ele>63.482875</ele>
        <time>2022-12-23T12:38:15.755Z</time>
      </trkpt>
      <trkpt lat="45.14956" lon="-1.04654">
        <ele>63.568362</ele>
        <time>2022-12-23T12:38:18.757Z</time>
      </trkpt>
      <trkpt lat="45.14946" lon="-1.04651">
        <ele>63.655605</ele>
        <time>2022-12-23T12:38:21.758Z</time>
      </trkpt>
      <trkpt lat="45.14934" lon="-1.04648">
        <ele>63.747035</ele>
        <time>2022-12-23T12:38:24.754Z</time>
      </trkpt>
      <trkpt lat="45.14922" lon="-1.04645">
        <ele>63.712131</ele>
        <time>2022-12-23T12:38:27.757Z</time>
      </trkpt>
      <trkpt lat="45.14911" lon="-1.04641">
        <ele>63.649389</ele>
        <time>2022-12-23T12:38:30.737Z</time>
      </trkpt>
      <trkpt lat="45.14899" lon="-1.04637">
        <ele>63.588324</ele>
        <time>2022-12-23T12:38:33.754Z</time>
      </trkpt>
      <trkpt lat="45.14886" lon="-1.04634">
        <ele>63.521766</ele>
        <time>2022-12-23T12:38:36.756Z</time>
      </trkpt>
      <trkpt lat="45.14875" lon="-1.0463">
        <ele>63.460535</ele>
        <time>2022-12-23T12:38:39.757Z</time>
      </trkpt>
      <trkpt lat="45.14862" lon="-1.04626">
        <ele>63.393322</ele>
        <time>2022-12-23T12:38:42.751Z</time>
      </trkpt>
      <trkpt lat="45.1485" lon="-1.04622">
        <ele>63.32864</ele>
        <time>2022-12-23T12:38:45.753Z</time>
      </trkpt>
      <trkpt lat="45.14839" lon="-1.04619">
        <ele>63.271506</ele>
        <time>2022-12-23T12:38:48.756Z</time>
      </trkpt>
      <trkpt lat="45.14828" lon="-1.04615">
        <ele>63.210359</ele>
        <time>2022-12-23T12:38:52.750Z</time>
      </trkpt>
      <trkpt lat="45.14818" lon="-1.04613">
        <ele>63.159881</ele>
        <time>2022-12-23T12:38:56.753Z</time>
      </trkpt>
      <trkpt lat="45.14805" lon="-1.04609">
        <ele>63.090132</ele>
        <time>2022-12-23T12:39:22.767Z</time>
      </trkpt>
      <trkpt lat="45.14796" lon="-1.04605">
        <ele>63.040806</ele>
        <time>2022-12-23T12:39:26.739Z</time>
      </trkpt>
      <trkpt lat="45.14787" lon="-1.04602">
        <ele>62.993518</ele>
        <time>2022-12-23T12:39:29.752Z</time>
      </trkpt>
      <trkpt lat="45.14777" lon="-1.04599">
        <ele>62.941946</ele>
        <time>2022-12-23T12:39:32.755Z</time>
      </trkpt>
      <trkpt lat="45.14766" lon="-1.04596">
        <ele>62.882051</ele>
        <time>2022-12-23T12:39:35.754Z</time>
      </trkpt>
      <trkpt lat="45.14754" lon="-1.04592">
        <ele>62.829309</ele>
        <time>2022-12-23T12:39:38.753Z</time>
      </trkpt>
      <trkpt lat="45.14742" lon="-1.0459">
        <ele>62.811492</ele>
        <time>2022-12-23T12:39:41.736Z</time>
      </trkpt>
      <trkpt lat="45.1473" lon="-1.04587">
        <ele>62.79361</ele>
        <time>2022-12-23T12:39:44.755Z</time>
      </trkpt>
      <trkpt lat="45.14717" lon="-1.04583">
        <ele>62.775194</ele>
        <time>2022-12-23T12:39:47.754Z</time>
      </trkpt>
      <trkpt lat="45.14704" lon="-1.04579">
        <ele>62.756694</ele>
        <time>2022-12-23T12:39:50.750Z</time>
      </trkpt>
      <trkpt lat="45.14692" lon="-1.04576">
        <ele>62.738157</ele>
        <time>2022-12-23T12:39:53.753Z</time>
      </trkpt>
      <trkpt lat="45.14679" lon="-1.04571">
        <ele>62.719008</ele>
        <time>2022-12-23T12:39:56.755Z</time>
      </trkpt>
      <trkpt lat="45.14666" lon="-1.04567">
        <ele>62.70025</ele>
        <time>2022-12-23T12:39:59.754Z</time>
      </trkpt>
      <trkpt lat="45.14653" lon="-1.04563">
        <ele>62.681747</ele>
        <time>2022-12-23T12:40:02.755Z</time>
      </trkpt>
      <trkpt lat="45.14645" lon="-1.0456">
        <ele>62.668663</ele>
        <time>2022-12-23T12:40:04.754Z</time>
      </trkpt>
      <trkpt lat="45.14631" lon="-1.04556">
        <ele>62.648982</ele>
        <time>2022-12-23T12:40:07.756Z</time>
      </trkpt>
      <trkpt lat="45.14618" lon="-1.04553">
        <ele>62.630265</ele>
        <time>2022-12-23T12:40:10.752Z</time>
      </trkpt>
      <trkpt lat="45.14605" lon="-1.04548">
        <ele>62.611044</ele>
        <time>2022-12-23T12:40:13.754Z</time>
      </trkpt>
      <trkpt lat="45.14592" lon="-1.04545">
        <ele>62.592286</ele>
        <time>2022-12-23T12:40:16.751Z</time>
      </trkpt>
      <trkpt lat="45.1458" lon="-1.0454">
        <ele>62.574906</ele>
        <time>2022-12-23T12:40:19.757Z</time>
      </trkpt>
      <trkpt lat="45.14566" lon="-1.04537">
        <ele>62.575063</ele>
        <time>2022-12-23T12:40:22.754Z</time>
      </trkpt>
      <trkpt lat="45.14557" lon="-1.04534">
        <ele>62.575165</ele>
        <time>2022-12-23T12:40:24.752Z</time>
      </trkpt>
      <trkpt lat="45.14548" lon="-1.04532">
        <ele>62.575267</ele>
        <time>2022-12-23T12:40:26.754Z</time>
      </trkpt>
      <trkpt lat="45.14536" lon="-1.04529">
        <ele>62.575406</ele>
        <time>2022-12-23T12:40:29.761Z</time>
      </trkpt>
      <trkpt lat="45.14524" lon="-1.04525">
        <ele>62.575547</ele>
        <time>2022-12-23T12:40:32.757Z</time>
      </trkpt>
      <trkpt lat="45.14512" lon="-1.04523">
        <ele>62.575685</ele>
        <time>2022-12-23T12:40:35.731Z</time>
      </trkpt>
      <trkpt lat="45.14503" lon="-1.04521">
        <ele>62.57579</ele>
        <time>2022-12-23T12:40:37.734Z</time>
      </trkpt>
      <trkpt lat="45.14489" lon="-1.0452">
        <ele>62.575941</ele>
        <time>2022-12-23T12:40:40.736Z</time>
      </trkpt>
      <trkpt lat="45.14476" lon="-1.04518">
        <ele>62.57609</ele>
        <time>2022-12-23T12:40:43.754Z</time>
      </trkpt>
      <trkpt lat="45.14467" lon="-1.04517">
        <ele>62.576193</ele>
        <time>2022-12-23T12:40:45.741Z</time>
      </trkpt>
      <trkpt lat="45.14454" lon="-1.04517">
        <ele>62.576344</ele>
        <time>2022-12-23T12:40:48.755Z</time>
      </trkpt>
      <trkpt lat="45.14441" lon="-1.04517">
        <ele>62.57649</ele>
        <time>2022-12-23T12:40:51.752Z</time>
      </trkpt>
      <trkpt lat="45.14428" lon="-1.04517">
        <ele>62.576637</ele>
        <time>2022-12-23T12:40:54.757Z</time>
      </trkpt>
      <trkpt lat="45.14415" lon="-1.04517">
        <ele>62.576786</ele>
        <time>2022-12-23T12:40:57.752Z</time>
      </trkpt>
      <trkpt lat="45.14401" lon="-1.04517">
        <ele>62.579076</ele>
        <time>2022-12-23T12:41:00.754Z</time>
      </trkpt>
      <trkpt lat="45.14389" lon="-1.04517">
        <ele>62.624519</ele>
        <time>2022-12-23T12:41:03.755Z</time>
      </trkpt>
      <trkpt lat="45.14378" lon="-1.04517">
        <ele>62.665953</ele>
        <time>2022-12-23T12:41:06.735Z</time>
      </trkpt>
      <trkpt lat="45.14365" lon="-1.04517">
        <ele>62.710684</ele>
        <time>2022-12-23T12:41:09.752Z</time>
      </trkpt>
      <trkpt lat="45.14353" lon="-1.04517">
        <ele>62.754318</ele>
        <time>2022-12-23T12:41:12.756Z</time>
      </trkpt>
      <trkpt lat="45.14344" lon="-1.04518">
        <ele>62.787078</ele>
        <time>2022-12-23T12:41:14.754Z</time>
      </trkpt>
      <trkpt lat="45.14331" lon="-1.04518">
        <ele>62.8336</ele>
        <time>2022-12-23T12:41:17.751Z</time>
      </trkpt>
      <trkpt lat="45.14319" lon="-1.04519">
        <ele>62.878086</ele>
        <time>2022-12-23T12:41:20.753Z</time>
      </trkpt>
      <trkpt lat="45.14307" lon="-1.04518">
        <ele>62.923916</ele>
        <time>2022-12-23T12:41:23.754Z</time>
      </trkpt>
      <trkpt lat="45.14294" lon="-1.04519">
        <ele>62.969723</ele>
        <time>2022-12-23T12:41:26.736Z</time>
      </trkpt>
      <trkpt lat="45.14282" lon="-1.04519">
        <ele>63.014794</ele>
        <time>2022-12-23T12:41:29.753Z</time>
      </trkpt>
      <trkpt lat="45.14269" lon="-1.04519">
        <ele>63.060595</ele>
        <time>2022-12-23T12:41:32.756Z</time>
      </trkpt>
      <trkpt lat="45.14256" lon="-1.04518">
        <ele>63.107135</ele>
        <time>2022-12-23T12:41:35.749Z</time>
      </trkpt>
      <trkpt lat="45.14243" lon="-1.04518">
        <ele>63.154021</ele>
        <time>2022-12-23T12:41:38.753Z</time>
      </trkpt>
      <trkpt lat="45.14231" lon="-1.04519">
        <ele>63.198006</ele>
        <time>2022-12-23T12:41:41.755Z</time>
      </trkpt>
      <trkpt lat="45.1422" lon="-1.04519">
        <ele>63.236979</ele>
        <time>2022-12-23T12:41:44.739Z</time>
      </trkpt>
      <trkpt lat="45.1421" lon="-1.0452">
        <ele>63.269602</ele>
        <time>2022-12-23T12:41:47.755Z</time>
      </trkpt>
      <trkpt lat="45.14199" lon="-1.04519">
        <ele>63.303746</ele>
        <time>2022-12-23T12:41:50.752Z</time>
      </trkpt>
      <trkpt lat="45.14188" lon="-1.0452">
        <ele>63.338828</ele>
        <time>2022-12-23T12:41:53.753Z</time>
      </trkpt>
      <trkpt lat="45.14176" lon="-1.0452">
        <ele>63.374848</ele>
        <time>2022-12-23T12:41:56.751Z</time>
      </trkpt>
      <trkpt lat="45.14165" lon="-1.0452">
        <ele>63.411512</ele>
        <time>2022-12-23T12:41:59.759Z</time>
      </trkpt>
      <trkpt lat="45.14153" lon="-1.0452">
        <ele>63.446283</ele>
        <time>2022-12-23T12:42:02.769Z</time>
      </trkpt>
      <trkpt lat="45.14142" lon="-1.0452">
        <ele>63.481365</ele>
        <time>2022-12-23T12:42:05.756Z</time>
      </trkpt>
      <trkpt lat="45.14131" lon="-1.0452">
        <ele>63.516762</ele>
        <time>2022-12-23T12:42:08.750Z</time>
      </trkpt>
      <trkpt lat="45.14119" lon="-1.0452">
        <ele>63.554975</ele>
        <time>2022-12-23T12:42:11.751Z</time>
      </trkpt>
      <trkpt lat="45.14106" lon="-1.0452">
        <ele>63.594442</ele>
        <time>2022-12-23T12:42:14.756Z</time>
      </trkpt>
      <trkpt lat="45.14093" lon="-1.0452">
        <ele>63.634534</ele>
        <time>2022-12-23T12:42:17.751Z</time>
      </trkpt>
      <trkpt lat="45.1408" lon="-1.0452">
        <ele>63.675894</ele>
        <time>2022-12-23T12:42:20.756Z</time>
      </trkpt>
      <trkpt lat="45.14067" lon="-1.0452">
        <ele>63.717591</ele>
        <time>2022-12-23T12:42:23.754Z</time>
      </trkpt>
      <trkpt lat="45.14054" lon="-1.04521">
        <ele>63.758995</ele>
        <time>2022-12-23T12:42:26.739Z</time>
      </trkpt>
      <trkpt lat="45.14041" lon="-1.04521">
        <ele>63.782428</ele>
        <time>2022-12-23T12:42:29.754Z</time>
      </trkpt>
      <trkpt lat="45.14032" lon="-1.04521">
        <ele>63.720098</ele>
        <time>2022-12-23T12:42:31.750Z</time>
      </trkpt>
      <trkpt lat="45.14022" lon="-1.04521">
        <ele>63.654476</ele>
        <time>2022-12-23T12:42:33.740Z</time>
      </trkpt>
      <trkpt lat="45.14009" lon="-1.04521">
        <ele>63.568558</ele>
        <time>2022-12-23T12:42:36.760Z</time>
      </trkpt>
      <trkpt lat="45.14" lon="-1.0452">
        <ele>63.503596</ele>
        <time>2022-12-23T12:42:38.755Z</time>
      </trkpt>
      <trkpt lat="45.1399" lon="-1.04521">
        <ele>63.439319</ele>
        <time>2022-12-23T12:42:40.748Z</time>
      </trkpt>
      <trkpt lat="45.13981" lon="-1.04521">
        <ele>63.375698</ele>
        <time>2022-12-23T12:42:42.749Z</time>
      </trkpt>
      <trkpt lat="45.13968" lon="-1.04521">
        <ele>63.288425</ele>
        <time>2022-12-23T12:42:45.754Z</time>
      </trkpt>
      <trkpt lat="45.13955" lon="-1.04522">
        <ele>63.200373</ele>
        <time>2022-12-23T12:42:48.744Z</time>
      </trkpt>
      <trkpt lat="45.13942" lon="-1.04521">
        <ele>63.11645</ele>
        <time>2022-12-23T12:42:51.754Z</time>
      </trkpt>
      <trkpt lat="45.13931" lon="-1.04521">
        <ele>63.040674</ele>
        <time>2022-12-23T12:42:54.754Z</time>
      </trkpt>
      <trkpt lat="45.13919" lon="-1.04522">
        <ele>62.958027</ele>
        <time>2022-12-23T12:42:57.748Z</time>
      </trkpt>
      <trkpt lat="45.13906" lon="-1.04522">
        <ele>62.870755</ele>
        <time>2022-12-23T12:43:00.747Z</time>
      </trkpt>
      <trkpt lat="45.13893" lon="-1.04522">
        <ele>62.780777</ele>
        <time>2022-12-23T12:43:03.752Z</time>
      </trkpt>
      <trkpt lat="45.13884" lon="-1.04523">
        <ele>62.719206</ele>
        <time>2022-12-23T12:43:05.755Z</time>
      </trkpt>
      <trkpt lat="45.1387" lon="-1.04523">
        <ele>62.628551</ele>
        <time>2022-12-23T12:43:08.749Z</time>
      </trkpt>
      <trkpt lat="45.13861" lon="-1.04523">
        <ele>62.591641</ele>
        <time>2022-12-23T12:43:10.750Z</time>
      </trkpt>
      <trkpt lat="45.13852" lon="-1.04523">
        <ele>62.667364</ele>
        <time>2022-12-23T12:43:12.755Z</time>
      </trkpt>
      <trkpt lat="45.13839" lon="-1.04523">
        <ele>62.780131</ele>
        <time>2022-12-23T12:43:15.758Z</time>
      </trkpt>
      <trkpt lat="45.13829" lon="-1.04524">
        <ele>62.860936</ele>
        <time>2022-12-23T12:43:17.771Z</time>
      </trkpt>
      <trkpt lat="45.1382" lon="-1.04524">
        <ele>62.937521</ele>
        <time>2022-12-23T12:43:19.760Z</time>
      </trkpt>
      <trkpt lat="45.13811" lon="-1.04524">
        <ele>63.015769</ele>
        <time>2022-12-23T12:43:21.753Z</time>
      </trkpt>
      <trkpt lat="45.13801" lon="-1.04524">
        <ele>63.095707</ele>
        <time>2022-12-23T12:43:23.748Z</time>
      </trkpt>
      <trkpt lat="45.13787" lon="-1.04525">
        <ele>63.210157</ele>
        <time>2022-12-23T12:43:26.755Z</time>
      </trkpt>
      <trkpt lat="45.13775" lon="-1.04525">
        <ele>63.315327</ele>
        <time>2022-12-23T12:43:29.757Z</time>
      </trkpt>
      <trkpt lat="45.13763" lon="-1.04525">
        <ele>63.419682</ele>
        <time>2022-12-23T12:43:32.752Z</time>
      </trkpt>
      <trkpt lat="45.13751" lon="-1.04524">
        <ele>63.518209</ele>
        <time>2022-12-23T12:43:35.748Z</time>
      </trkpt>
      <trkpt lat="45.13738" lon="-1.04525">
        <ele>63.627644</ele>
        <time>2022-12-23T12:43:38.753Z</time>
      </trkpt>
      <trkpt lat="45.13725" lon="-1.04524">
        <ele>63.737888</ele>
        <time>2022-12-23T12:43:41.756Z</time>
      </trkpt>
      <trkpt lat="45.13712" lon="-1.04525">
        <ele>63.847305</ele>
        <time>2022-12-23T12:43:44.760Z</time>
      </trkpt>
      <trkpt lat="45.13702" lon="-1.04525">
        <ele>63.926412</ele>
        <time>2022-12-23T12:43:46.757Z</time>
      </trkpt>
      <trkpt lat="45.13689" lon="-1.04525">
        <ele>64.037497</ele>
        <time>2022-12-23T12:43:49.748Z</time>
      </trkpt>
      <trkpt lat="45.13676" lon="-1.04526">
        <ele>64.057206</ele>
        <time>2022-12-23T12:43:52.757Z</time>
      </trkpt>
      <trkpt lat="45.13663" lon="-1.04526">
        <ele>63.99319</ele>
        <time>2022-12-23T12:43:55.755Z</time>
      </trkpt>
      <trkpt lat="45.13649" lon="-1.04526">
        <ele>63.9287</ele>
        <time>2022-12-23T12:43:58.749Z</time>
      </trkpt>
      <trkpt lat="45.13636" lon="-1.04526">
        <ele>63.863726</ele>
        <time>2022-12-23T12:44:01.741Z</time>
      </trkpt>
      <trkpt lat="45.13627" lon="-1.04526">
        <ele>63.819444</ele>
        <time>2022-12-23T12:44:03.742Z</time>
      </trkpt>
      <trkpt lat="45.13613" lon="-1.04527">
        <ele>63.756366</ele>
        <time>2022-12-23T12:44:06.730Z</time>
      </trkpt>
      <trkpt lat="45.13604" lon="-1.04527">
        <ele>63.712089</ele>
        <time>2022-12-23T12:44:08.743Z</time>
      </trkpt>
      <trkpt lat="45.13595" lon="-1.04527">
        <ele>63.667326</ele>
        <time>2022-12-23T12:44:10.755Z</time>
      </trkpt>
      <trkpt lat="45.13586" lon="-1.04528">
        <ele>63.623498</ele>
        <time>2022-12-23T12:44:12.752Z</time>
      </trkpt>
      <trkpt lat="45.13577" lon="-1.04527">
        <ele>63.580151</ele>
        <time>2022-12-23T12:44:14.747Z</time>
      </trkpt>
      <trkpt lat="45.13568" lon="-1.04528">
        <ele>63.535863</ele>
        <time>2022-12-23T12:44:16.739Z</time>
      </trkpt>
      <trkpt lat="45.13558" lon="-1.04528">
        <ele>63.491587</ele>
        <time>2022-12-23T12:44:18.737Z</time>
      </trkpt>
      <trkpt lat="45.13549" lon="-1.04527">
        <ele>63.444894</ele>
        <time>2022-12-23T12:44:20.751Z</time>
      </trkpt>
      <trkpt lat="45.1354" lon="-1.04527">
        <ele>63.400616</ele>
        <time>2022-12-23T12:44:22.756Z</time>
      </trkpt>
      <trkpt lat="45.1353" lon="-1.04528">
        <ele>63.356788</ele>
        <time>2022-12-23T12:44:24.754Z</time>
      </trkpt>
      <trkpt lat="45.13517" lon="-1.04528">
        <ele>63.294223</ele>
        <time>2022-12-23T12:44:27.754Z</time>
      </trkpt>
      <trkpt lat="45.13505" lon="-1.04528">
        <ele>63.234546</ele>
        <time>2022-12-23T12:44:30.745Z</time>
      </trkpt>
      <trkpt lat="45.13492" lon="-1.04529">
        <ele>63.238386</ele>
        <time>2022-12-23T12:44:33.742Z</time>
      </trkpt>
      <trkpt lat="45.13479" lon="-1.04529">
        <ele>63.254466</ele>
        <time>2022-12-23T12:44:36.755Z</time>
      </trkpt>
      <trkpt lat="45.13466" lon="-1.04529">
        <ele>63.270918</ele>
        <time>2022-12-23T12:44:39.754Z</time>
      </trkpt>
      <trkpt lat="45.13453" lon="-1.04529">
        <ele>63.286507</ele>
        <time>2022-12-23T12:44:42.754Z</time>
      </trkpt>
      <trkpt lat="45.13441" lon="-1.04528">
        <ele>63.301609</ele>
        <time>2022-12-23T12:44:45.755Z</time>
      </trkpt>
      <trkpt lat="45.13429" lon="-1.04528">
        <ele>63.3167</ele>
        <time>2022-12-23T12:44:48.753Z</time>
      </trkpt>
      <trkpt lat="45.13417" lon="-1.04529">
        <ele>63.331926</ele>
        <time>2022-12-23T12:44:51.753Z</time>
      </trkpt>
      <trkpt lat="45.13404" lon="-1.04529">
        <ele>63.347388</ele>
        <time>2022-12-23T12:44:54.752Z</time>
      </trkpt>
      <trkpt lat="45.13392" lon="-1.04529">
        <ele>63.361736</ele>
        <time>2022-12-23T12:44:57.757Z</time>
      </trkpt>
      <trkpt lat="45.13381" lon="-1.04529">
        <ele>63.375837</ele>
        <time>2022-12-23T12:45:00.757Z</time>
      </trkpt>
      <trkpt lat="45.13369" lon="-1.04529">
        <ele>63.390186</ele>
        <time>2022-12-23T12:45:03.757Z</time>
      </trkpt>
      <trkpt lat="45.13357" lon="-1.04529">
        <ele>63.405402</ele>
        <time>2022-12-23T12:45:06.741Z</time>
      </trkpt>
      <trkpt lat="45.13345" lon="-1.04529">
        <ele>63.42074</ele>
        <time>2022-12-23T12:45:09.747Z</time>
      </trkpt>
      <trkpt lat="45.13332" lon="-1.0453">
        <ele>63.436098</ele>
        <time>2022-12-23T12:45:12.755Z</time>
      </trkpt>
      <trkpt lat="45.1332" lon="-1.0453">
        <ele>63.455473</ele>
        <time>2022-12-23T12:45:15.754Z</time>
      </trkpt>
      <trkpt lat="45.13307" lon="-1.04531">
        <ele>63.489061</ele>
        <time>2022-12-23T12:45:18.766Z</time>
      </trkpt>
      <trkpt lat="45.13294" lon="-1.04531">
        <ele>63.523713</ele>
        <time>2022-12-23T12:45:21.759Z</time>
      </trkpt>
      <trkpt lat="45.13281" lon="-1.04531">
        <ele>63.557823</ele>
        <time>2022-12-23T12:45:24.753Z</time>
      </trkpt>
      <trkpt lat="45.13272" lon="-1.04531">
        <ele>63.581968</ele>
        <time>2022-12-23T12:45:26.766Z</time>
      </trkpt>
      <trkpt lat="45.13259" lon="-1.04532">
        <ele>63.617129</ele>
        <time>2022-12-23T12:45:29.744Z</time>
      </trkpt>
      <trkpt lat="45.13249" lon="-1.04531">
        <ele>63.641005</ele>
        <time>2022-12-23T12:45:31.752Z</time>
      </trkpt>
      <trkpt lat="45.13236" lon="-1.04532">
        <ele>63.675116</ele>
        <time>2022-12-23T12:45:34.754Z</time>
      </trkpt>
      <trkpt lat="45.13227" lon="-1.04532">
        <ele>63.698733</ele>
        <time>2022-12-23T12:45:36.734Z</time>
      </trkpt>
      <trkpt lat="45.13215" lon="-1.04532">
        <ele>63.732325</ele>
        <time>2022-12-23T12:45:39.747Z</time>
      </trkpt>
      <trkpt lat="45.13202" lon="-1.04532">
        <ele>63.765123</ele>
        <time>2022-12-23T12:45:42.757Z</time>
      </trkpt>
      <trkpt lat="45.13189" lon="-1.04532">
        <ele>63.799494</ele>
        <time>2022-12-23T12:45:45.734Z</time>
      </trkpt>
      <trkpt lat="45.13177" lon="-1.04533">
        <ele>63.83203</ele>
        <time>2022-12-23T12:45:48.731Z</time>
      </trkpt>
      <trkpt lat="45.13165" lon="-1.04532">
        <ele>63.863832</ele>
        <time>2022-12-23T12:45:51.754Z</time>
      </trkpt>
      <trkpt lat="45.13152" lon="-1.04531">
        <ele>63.895844</ele>
        <time>2022-12-23T12:45:54.753Z</time>
      </trkpt>
      <trkpt lat="45.13141" lon="-1.04532">
        <ele>63.912847</ele>
        <time>2022-12-23T12:45:57.752Z</time>
      </trkpt>
      <trkpt lat="45.13128" lon="-1.04532">
        <ele>63.882233</ele>
        <time>2022-12-23T12:46:00.752Z</time>
      </trkpt>
      <trkpt lat="45.13116" lon="-1.04533">
        <ele>63.852312</ele>
        <time>2022-12-23T12:46:03.754Z</time>
      </trkpt>
      <trkpt lat="45.13103" lon="-1.04533">
        <ele>63.822173</ele>
        <time>2022-12-23T12:46:06.752Z</time>
      </trkpt>
      <trkpt lat="45.1309" lon="-1.04534">
        <ele>63.791543</ele>
        <time>2022-12-23T12:46:09.763Z</time>
      </trkpt>
      <trkpt lat="45.13078" lon="-1.04534">
        <ele>63.76044</ele>
        <time>2022-12-23T12:46:12.764Z</time>
      </trkpt>
      <trkpt lat="45.13065" lon="-1.04534">
        <ele>63.730066</ele>
        <time>2022-12-23T12:46:15.751Z</time>
      </trkpt>
      <trkpt lat="45.13053" lon="-1.04535">
        <ele>63.70065</ele>
        <time>2022-12-23T12:46:18.752Z</time>
      </trkpt>
      <trkpt lat="45.13041" lon="-1.04535">
        <ele>63.67124</ele>
        <time>2022-12-23T12:46:21.755Z</time>
      </trkpt>
      <trkpt lat="45.13028" lon="-1.04535">
        <ele>63.640614</ele>
        <time>2022-12-23T12:46:24.751Z</time>
      </trkpt>
      <trkpt lat="45.13016" lon="-1.04535">
        <ele>63.611198</ele>
        <time>2022-12-23T12:46:27.733Z</time>
      </trkpt>
      <trkpt lat="45.13003" lon="-1.04535">
        <ele>63.580826</ele>
        <time>2022-12-23T12:46:30.753Z</time>
      </trkpt>
      <trkpt lat="45.1299" lon="-1.04536">
        <ele>63.55043</ele>
        <time>2022-12-23T12:46:33.727Z</time>
      </trkpt>
      <trkpt lat="45.12977" lon="-1.04536">
        <ele>63.518852</ele>
        <time>2022-12-23T12:46:36.739Z</time>
      </trkpt>
      <trkpt lat="45.12965" lon="-1.04536">
        <ele>63.488237</ele>
        <time>2022-12-23T12:46:39.754Z</time>
      </trkpt>
      <trkpt lat="45.12952" lon="-1.04536">
        <ele>63.510303</ele>
        <time>2022-12-23T12:46:42.746Z</time>
      </trkpt>
      <trkpt lat="45.12939" lon="-1.04536">
        <ele>63.536873</ele>
        <time>2022-12-23T12:46:45.741Z</time>
      </trkpt>
      <trkpt lat="45.12927" lon="-1.04536">
        <ele>63.563654</ele>
        <time>2022-12-23T12:46:48.753Z</time>
      </trkpt>
      <trkpt lat="45.12914" lon="-1.04537">
        <ele>63.591282</ele>
        <time>2022-12-23T12:46:51.754Z</time>
      </trkpt>
      <trkpt lat="45.12904" lon="-1.04537">
        <ele>63.610891</ele>
        <time>2022-12-23T12:46:53.753Z</time>
      </trkpt>
      <trkpt lat="45.12895" lon="-1.04537">
        <ele>63.630288</ele>
        <time>2022-12-23T12:46:55.742Z</time>
      </trkpt>
      <trkpt lat="45.12882" lon="-1.04537">
        <ele>63.658544</ele>
        <time>2022-12-23T12:46:58.745Z</time>
      </trkpt>
      <trkpt lat="45.12868" lon="-1.04537">
        <ele>63.68638</ele>
        <time>2022-12-23T12:47:01.751Z</time>
      </trkpt>
      <trkpt lat="45.12855" lon="-1.04537">
        <ele>63.713797</ele>
        <time>2022-12-23T12:47:04.760Z</time>
      </trkpt>
      <trkpt lat="45.12846" lon="-1.04537">
        <ele>63.732987</ele>
        <time>2022-12-23T12:47:06.753Z</time>
      </trkpt>
      <trkpt lat="45.12833" lon="-1.04538">
        <ele>63.760606</ele>
        <time>2022-12-23T12:47:09.748Z</time>
      </trkpt>
      <trkpt lat="45.12821" lon="-1.04537">
        <ele>63.785911</ele>
        <time>2022-12-23T12:47:12.754Z</time>
      </trkpt>
      <trkpt lat="45.12809" lon="-1.04538">
        <ele>63.811643</ele>
        <time>2022-12-23T12:47:15.742Z</time>
      </trkpt>
      <trkpt lat="45.12797" lon="-1.04538">
        <ele>63.837365</ele>
        <time>2022-12-23T12:47:18.752Z</time>
      </trkpt>
      <trkpt lat="45.12784" lon="-1.04538">
        <ele>63.863931</ele>
        <time>2022-12-23T12:47:21.753Z</time>
      </trkpt>
      <trkpt lat="45.12772" lon="-1.04538">
        <ele>63.881137</ele>
        <time>2022-12-23T12:47:24.755Z</time>
      </trkpt>
      <trkpt lat="45.12759" lon="-1.04539">
        <ele>63.898932</ele>
        <time>2022-12-23T12:47:27.754Z</time>
      </trkpt>
      <trkpt lat="45.12746" lon="-1.04539">
        <ele>63.916189</ele>
        <time>2022-12-23T12:47:30.752Z</time>
      </trkpt>
      <trkpt lat="45.12733" lon="-1.04539">
        <ele>63.933176</ele>
        <time>2022-12-23T12:47:33.739Z</time>
      </trkpt>
      <trkpt lat="45.1272" lon="-1.04539">
        <ele>63.95057</ele>
        <time>2022-12-23T12:47:36.751Z</time>
      </trkpt>
      <trkpt lat="45.12707" lon="-1.04539">
        <ele>63.967958</ele>
        <time>2022-12-23T12:47:39.734Z</time>
      </trkpt>
      <trkpt lat="45.12695" lon="-1.04539">
        <ele>63.984807</ele>
        <time>2022-12-23T12:47:42.753Z</time>
      </trkpt>
      <trkpt lat="45.12684" lon="-1.04539">
        <ele>63.998836</ele>
        <time>2022-12-23T12:47:45.754Z</time>
      </trkpt>
      <trkpt lat="45.12674" lon="-1.0454">
        <ele>64.012323</ele>
        <time>2022-12-23T12:47:48.758Z</time>
      </trkpt>
      <trkpt lat="45.12664" lon="-1.0454">
        <ele>64.026746</ele>
        <time>2022-12-23T12:47:51.753Z</time>
      </trkpt>
      <trkpt lat="45.12653" lon="-1.04539">
        <ele>64.041176</ele>
        <time>2022-12-23T12:47:54.755Z</time>
      </trkpt>
      <trkpt lat="45.12643" lon="-1.04539">
        <ele>64.055194</ele>
        <time>2022-12-23T12:47:57.754Z</time>
      </trkpt>
      <trkpt lat="45.12632" lon="-1.0454">
        <ele>64.069486</ele>
        <time>2022-12-23T12:48:00.754Z</time>
      </trkpt>
      <trkpt lat="45.12621" lon="-1.0454">
        <ele>64.084313</ele>
        <time>2022-12-23T12:48:03.755Z</time>
      </trkpt>
      <trkpt lat="45.12609" lon="-1.0454">
        <ele>64.099948</ele>
        <time>2022-12-23T12:48:06.736Z</time>
      </trkpt>
      <trkpt lat="45.12597" lon="-1.04541">
        <ele>64.130611</ele>
        <time>2022-12-23T12:48:09.752Z</time>
      </trkpt>
      <trkpt lat="45.12585" lon="-1.04541">
        <ele>64.174021</ele>
        <time>2022-12-23T12:48:12.752Z</time>
      </trkpt>
      <trkpt lat="45.12573" lon="-1.04541">
        <ele>64.217789</ele>
        <time>2022-12-23T12:48:15.751Z</time>
      </trkpt>
      <trkpt lat="45.12561" lon="-1.04541">
        <ele>64.261562</ele>
        <time>2022-12-23T12:48:18.739Z</time>
      </trkpt>
      <trkpt lat="45.12548" lon="-1.04541">
        <ele>64.306413</ele>
        <time>2022-12-23T12:48:21.751Z</time>
      </trkpt>
      <trkpt lat="45.12535" lon="-1.04542">
        <ele>64.351983</ele>
        <time>2022-12-23T12:48:24.761Z</time>
      </trkpt>
      <trkpt lat="45.12522" lon="-1.04542">
        <ele>64.397528</ele>
        <time>2022-12-23T12:48:27.757Z</time>
      </trkpt>
      <trkpt lat="45.12509" lon="-1.04542">
        <ele>64.445214</ele>
        <time>2022-12-23T12:48:30.763Z</time>
      </trkpt>
      <trkpt lat="45.125" lon="-1.04542">
        <ele>64.477595</ele>
        <time>2022-12-23T12:48:32.759Z</time>
      </trkpt>
      <trkpt lat="45.12487" lon="-1.04542">
        <ele>64.524587</ele>
        <time>2022-12-23T12:48:35.754Z</time>
      </trkpt>
      <trkpt lat="45.12474" lon="-1.04542">
        <ele>64.570488</ele>
        <time>2022-12-23T12:48:38.737Z</time>
      </trkpt>
      <trkpt lat="45.12461" lon="-1.04543">
        <ele>64.617818</ele>
        <time>2022-12-23T12:48:41.739Z</time>
      </trkpt>
      <trkpt lat="45.12447" lon="-1.04543">
        <ele>64.664787</ele>
        <time>2022-12-23T12:48:44.753Z</time>
      </trkpt>
      <trkpt lat="45.12435" lon="-1.04544">
        <ele>64.709677</ele>
        <time>2022-12-23T12:48:47.755Z</time>
      </trkpt>
      <trkpt lat="45.12423" lon="-1.04544">
        <ele>64.746149</ele>
        <time>2022-12-23T12:48:50.755Z</time>
      </trkpt>
      <trkpt lat="45.12413" lon="-1.04544">
        <ele>64.730448</ele>
        <time>2022-12-23T12:48:53.753Z</time>
      </trkpt>
      <trkpt lat="45.12401" lon="-1.04544">
        <ele>64.714009</ele>
        <time>2022-12-23T12:48:56.759Z</time>
      </trkpt>
      <trkpt lat="45.1239" lon="-1.04544">
        <ele>64.696549</ele>
        <time>2022-12-23T12:48:59.753Z</time>
      </trkpt>
      <trkpt lat="45.12378" lon="-1.04544">
        <ele>64.679088</ele>
        <time>2022-12-23T12:49:02.756Z</time>
      </trkpt>
      <trkpt lat="45.12365" lon="-1.04544">
        <ele>64.661035</ele>
        <time>2022-12-23T12:49:05.754Z</time>
      </trkpt>
      <trkpt lat="45.12353" lon="-1.04544">
        <ele>64.642546</ele>
        <time>2022-12-23T12:49:08.756Z</time>
      </trkpt>
      <trkpt lat="45.1234" lon="-1.04545">
        <ele>64.623614</ele>
        <time>2022-12-23T12:49:11.755Z</time>
      </trkpt>
      <trkpt lat="45.12327" lon="-1.04544">
        <ele>64.604685</ele>
        <time>2022-12-23T12:49:14.733Z</time>
      </trkpt>
      <trkpt lat="45.12315" lon="-1.04545">
        <ele>64.586637</ele>
        <time>2022-12-23T12:49:17.753Z</time>
      </trkpt>
      <trkpt lat="45.12304" lon="-1.04545">
        <ele>64.571075</ele>
        <time>2022-12-23T12:49:20.753Z</time>
      </trkpt>
      <trkpt lat="45.12294" lon="-1.04545">
        <ele>64.556983</ele>
        <time>2022-12-23T12:49:23.760Z</time>
      </trkpt>
      <trkpt lat="45.12285" lon="-1.04545">
        <ele>64.542603</ele>
        <time>2022-12-23T12:49:26.753Z</time>
      </trkpt>
      <trkpt lat="45.12274" lon="-1.04545">
        <ele>64.527343</ele>
        <time>2022-12-23T12:49:29.757Z</time>
      </trkpt>
      <trkpt lat="45.12262" lon="-1.04546">
        <ele>64.509881</ele>
        <time>2022-12-23T12:49:32.752Z</time>
      </trkpt>
      <trkpt lat="45.1225" lon="-1.04546">
        <ele>64.491978</ele>
        <time>2022-12-23T12:49:35.753Z</time>
      </trkpt>
      <trkpt lat="45.12238" lon="-1.04546">
        <ele>64.503171</ele>
        <time>2022-12-23T12:49:38.750Z</time>
      </trkpt>
      <trkpt lat="45.12225" lon="-1.04546">
        <ele>64.540169</ele>
        <time>2022-12-23T12:49:41.755Z</time>
      </trkpt>
      <trkpt lat="45.12212" lon="-1.04546">
        <ele>64.577175</ele>
        <time>2022-12-23T12:49:44.754Z</time>
      </trkpt>
      <trkpt lat="45.12199" lon="-1.04546">
        <ele>64.614172</ele>
        <time>2022-12-23T12:49:47.757Z</time>
      </trkpt>
      <trkpt lat="45.12187" lon="-1.04547">
        <ele>64.651463</ele>
        <time>2022-12-23T12:49:50.756Z</time>
      </trkpt>
      <trkpt lat="45.12174" lon="-1.04547">
        <ele>64.688756</ele>
        <time>2022-12-23T12:49:53.752Z</time>
      </trkpt>
      <trkpt lat="45.12161" lon="-1.04547">
        <ele>64.725462</ele>
        <time>2022-12-23T12:49:56.756Z</time>
      </trkpt>
      <trkpt lat="45.12148" lon="-1.04547">
        <ele>64.763051</ele>
        <time>2022-12-23T12:49:59.754Z</time>
      </trkpt>
      <trkpt lat="45.12135" lon="-1.04548">
        <ele>64.80064</ele>
        <time>2022-12-23T12:50:02.746Z</time>
      </trkpt>
      <trkpt lat="45.12122" lon="-1.04548">
        <ele>64.839967</ele>
        <time>2022-12-23T12:50:05.753Z</time>
      </trkpt>
      <trkpt lat="45.12113" lon="-1.04548">
        <ele>64.866478</ele>
        <time>2022-12-23T12:50:07.739Z</time>
      </trkpt>
      <trkpt lat="45.12103" lon="-1.04548">
        <ele>64.894739</ele>
        <time>2022-12-23T12:50:09.755Z</time>
      </trkpt>
      <trkpt lat="45.1209" lon="-1.04548">
        <ele>64.933194</ele>
        <time>2022-12-23T12:50:12.744Z</time>
      </trkpt>
      <trkpt lat="45.12078" lon="-1.04548">
        <ele>64.967575</ele>
        <time>2022-12-23T12:50:15.733Z</time>
      </trkpt>
      <trkpt lat="45.12066" lon="-1.04548">
        <ele>65.00399</ele>
        <time>2022-12-23T12:50:18.754Z</time>
      </trkpt>
      <trkpt lat="45.12053" lon="-1.04548">
        <ele>64.958615</ele>
        <time>2022-12-23T12:50:21.757Z</time>
      </trkpt>
      <trkpt lat="45.1204" lon="-1.04549">
        <ele>64.906208</ele>
        <time>2022-12-23T12:50:24.751Z</time>
      </trkpt>
      <trkpt lat="45.12027" lon="-1.04549">
        <ele>64.852995</ele>
        <time>2022-12-23T12:50:27.763Z</time>
      </trkpt>
      <trkpt lat="45.12014" lon="-1.04549">
        <ele>64.799754</ele>
        <time>2022-12-23T12:50:30.754Z</time>
      </trkpt>
      <trkpt lat="45.12002" lon="-1.0455">
        <ele>64.749829</ele>
        <time>2022-12-23T12:50:33.735Z</time>
      </trkpt>
      <trkpt lat="45.11989" lon="-1.0455">
        <ele>64.697434</ele>
        <time>2022-12-23T12:50:36.751Z</time>
      </trkpt>
      <trkpt lat="45.11976" lon="-1.0455">
        <ele>64.643809</ele>
        <time>2022-12-23T12:50:39.753Z</time>
      </trkpt>
      <trkpt lat="45.11963" lon="-1.0455">
        <ele>64.588522</ele>
        <time>2022-12-23T12:50:42.750Z</time>
      </trkpt>
      <trkpt lat="45.1195" lon="-1.0455">
        <ele>64.533657</ele>
        <time>2022-12-23T12:50:45.756Z</time>
      </trkpt>
      <trkpt lat="45.1194" lon="-1.0455">
        <ele>64.495255</ele>
        <time>2022-12-23T12:50:47.752Z</time>
      </trkpt>
      <trkpt lat="45.11927" lon="-1.04551">
        <ele>64.440799</ele>
        <time>2022-12-23T12:50:50.752Z</time>
      </trkpt>
      <trkpt lat="45.11918" lon="-1.04551">
        <ele>64.401199</ele>
        <time>2022-12-23T12:50:52.755Z</time>
      </trkpt>
      <trkpt lat="45.11904" lon="-1.04551">
        <ele>64.346334</ele>
        <time>2022-12-23T12:50:55.755Z</time>
      </trkpt>
      <trkpt lat="45.11891" lon="-1.04551">
        <ele>64.293093</ele>
        <time>2022-12-23T12:50:58.753Z</time>
      </trkpt>
      <trkpt lat="45.11878" lon="-1.04551">
        <ele>64.27892</ele>
        <time>2022-12-23T12:51:01.745Z</time>
      </trkpt>
      <trkpt lat="45.11869" lon="-1.04551">
        <ele>64.298032</ele>
        <time>2022-12-23T12:51:03.756Z</time>
      </trkpt>
      <trkpt lat="45.11857" lon="-1.04551">
        <ele>64.323233</ele>
        <time>2022-12-23T12:51:06.758Z</time>
      </trkpt>
      <trkpt lat="45.11846" lon="-1.04551">
        <ele>64.345703</ele>
        <time>2022-12-23T12:51:09.748Z</time>
      </trkpt>
      <trkpt lat="45.11835" lon="-1.04551">
        <ele>64.368807</ele>
        <time>2022-12-23T12:51:12.756Z</time>
      </trkpt>
      <trkpt lat="45.11824" lon="-1.04551">
        <ele>64.393378</ele>
        <time>2022-12-23T12:51:15.755Z</time>
      </trkpt>
      <trkpt lat="45.11812" lon="-1.04552">
        <ele>64.419008</ele>
        <time>2022-12-23T12:51:18.752Z</time>
      </trkpt>
      <trkpt lat="45.118" lon="-1.04552">
        <ele>64.444005</ele>
        <time>2022-12-23T12:51:21.753Z</time>
      </trkpt>
      <trkpt lat="45.11788" lon="-1.04552">
        <ele>64.468995</ele>
        <time>2022-12-23T12:51:24.757Z</time>
      </trkpt>
      <trkpt lat="45.11776" lon="-1.04552">
        <ele>64.493987</ele>
        <time>2022-12-23T12:51:27.754Z</time>
      </trkpt>
      <trkpt lat="45.11764" lon="-1.04553">
        <ele>64.518783</ele>
        <time>2022-12-23T12:51:30.753Z</time>
      </trkpt>
      <trkpt lat="45.11752" lon="-1.04553">
        <ele>64.543563</ele>
        <time>2022-12-23T12:51:33.755Z</time>
      </trkpt>
      <trkpt lat="45.11741" lon="-1.04553">
        <ele>64.566457</ele>
        <time>2022-12-23T12:51:36.760Z</time>
      </trkpt>
      <trkpt lat="45.11731" lon="-1.04553">
        <ele>64.588507</ele>
        <time>2022-12-23T12:51:39.756Z</time>
      </trkpt>
      <trkpt lat="45.1172" lon="-1.04553">
        <ele>64.612242</ele>
        <time>2022-12-23T12:51:42.745Z</time>
      </trkpt>
      <trkpt lat="45.11708" lon="-1.04553">
        <ele>64.636812</ele>
        <time>2022-12-23T12:51:45.749Z</time>
      </trkpt>
      <trkpt lat="45.11696" lon="-1.04553">
        <ele>64.64389</ele>
        <time>2022-12-23T12:51:48.755Z</time>
      </trkpt>
      <trkpt lat="45.11683" lon="-1.04553">
        <ele>64.644853</ele>
        <time>2022-12-23T12:51:51.759Z</time>
      </trkpt>
      <trkpt lat="45.11671" lon="-1.04553">
        <ele>64.645777</ele>
        <time>2022-12-23T12:51:54.746Z</time>
      </trkpt>
      <trkpt lat="45.1166" lon="-1.04554">
        <ele>64.646641</ele>
        <time>2022-12-23T12:51:57.753Z</time>
      </trkpt>
      <trkpt lat="45.1165" lon="-1.04554">
        <ele>64.647464</ele>
        <time>2022-12-23T12:52:00.750Z</time>
      </trkpt>
      <trkpt lat="45.11638" lon="-1.04555">
        <ele>64.648357</ele>
        <time>2022-12-23T12:52:03.753Z</time>
      </trkpt>
      <trkpt lat="45.11626" lon="-1.04555">
        <ele>64.649304</ele>
        <time>2022-12-23T12:52:06.754Z</time>
      </trkpt>
      <trkpt lat="45.11614" lon="-1.04555">
        <ele>64.650252</ele>
        <time>2022-12-23T12:52:09.754Z</time>
      </trkpt>
      <trkpt lat="45.11602" lon="-1.04555">
        <ele>64.651176</ele>
        <time>2022-12-23T12:52:12.755Z</time>
      </trkpt>
      <trkpt lat="45.1159" lon="-1.04555">
        <ele>64.652131</ele>
        <time>2022-12-23T12:52:15.754Z</time>
      </trkpt>
      <trkpt lat="45.11578" lon="-1.04555">
        <ele>64.653071</ele>
        <time>2022-12-23T12:52:18.761Z</time>
      </trkpt>
      <trkpt lat="45.11565" lon="-1.04555">
        <ele>64.654011</ele>
        <time>2022-12-23T12:52:21.755Z</time>
      </trkpt>
      <trkpt lat="45.11553" lon="-1.04555">
        <ele>64.65495</ele>
        <time>2022-12-23T12:52:24.759Z</time>
      </trkpt>
      <trkpt lat="45.11541" lon="-1.04555">
        <ele>64.655913</ele>
        <time>2022-12-23T12:52:27.744Z</time>
      </trkpt>
      <trkpt lat="45.11529" lon="-1.04556">
        <ele>64.656845</ele>
        <time>2022-12-23T12:52:30.755Z</time>
      </trkpt>
      <trkpt lat="45.11518" lon="-1.04555">
        <ele>64.660874</ele>
        <time>2022-12-23T12:52:33.730Z</time>
      </trkpt>
      <trkpt lat="45.11506" lon="-1.04555">
        <ele>64.667101</ele>
        <time>2022-12-23T12:52:36.747Z</time>
      </trkpt>
      <trkpt lat="45.11494" lon="-1.04555">
        <ele>64.673595</ele>
        <time>2022-12-23T12:52:39.748Z</time>
      </trkpt>
      <trkpt lat="45.11482" lon="-1.04556">
        <ele>64.680307</ele>
        <time>2022-12-23T12:52:42.758Z</time>
      </trkpt>
      <trkpt lat="45.1147" lon="-1.04556">
        <ele>64.686911</ele>
        <time>2022-12-23T12:52:45.753Z</time>
      </trkpt>
      <trkpt lat="45.11457" lon="-1.04556">
        <ele>64.693514</ele>
        <time>2022-12-23T12:52:48.756Z</time>
      </trkpt>
      <trkpt lat="45.11445" lon="-1.04556">
        <ele>64.700223</ele>
        <time>2022-12-23T12:52:51.749Z</time>
      </trkpt>
      <trkpt lat="45.11433" lon="-1.04556">
        <ele>64.706612</ele>
        <time>2022-12-23T12:52:54.752Z</time>
      </trkpt>
      <trkpt lat="45.11422" lon="-1.04557">
        <ele>64.712249</ele>
        <time>2022-12-23T12:52:57.755Z</time>
      </trkpt>
      <trkpt lat="45.11412" lon="-1.04557">
        <ele>64.717778</ele>
        <time>2022-12-23T12:53:00.757Z</time>
      </trkpt>
      <trkpt lat="45.11401" lon="-1.04557">
        <ele>64.723736</ele>
        <time>2022-12-23T12:53:03.755Z</time>
      </trkpt>
      <trkpt lat="45.11389" lon="-1.04558">
        <ele>64.72992</ele>
        <time>2022-12-23T12:53:06.734Z</time>
      </trkpt>
      <trkpt lat="45.11378" lon="-1.04558">
        <ele>64.736202</ele>
        <time>2022-12-23T12:53:09.753Z</time>
      </trkpt>
      <trkpt lat="45.11366" lon="-1.04558">
        <ele>64.742537</ele>
        <time>2022-12-23T12:53:12.758Z</time>
      </trkpt>
      <trkpt lat="45.11354" lon="-1.04558">
        <ele>64.748817</ele>
        <time>2022-12-23T12:53:15.747Z</time>
      </trkpt>
      <trkpt lat="45.11342" lon="-1.04558">
        <ele>64.730496</ele>
        <time>2022-12-23T12:53:18.754Z</time>
      </trkpt>
      <trkpt lat="45.1133" lon="-1.04558">
        <ele>64.634096</ele>
        <time>2022-12-23T12:53:21.759Z</time>
      </trkpt>
      <trkpt lat="45.11318" lon="-1.04559">
        <ele>64.534512</ele>
        <time>2022-12-23T12:53:24.754Z</time>
      </trkpt>
      <trkpt lat="45.11305" lon="-1.04559">
        <ele>64.43336</ele>
        <time>2022-12-23T12:53:27.756Z</time>
      </trkpt>
      <trkpt lat="45.11293" lon="-1.04559">
        <ele>64.334582</ele>
        <time>2022-12-23T12:53:30.752Z</time>
      </trkpt>
      <trkpt lat="45.1128" lon="-1.04559">
        <ele>64.233424</ele>
        <time>2022-12-23T12:53:33.754Z</time>
      </trkpt>
      <trkpt lat="45.11269" lon="-1.04559">
        <ele>64.143394</ele>
        <time>2022-12-23T12:53:36.762Z</time>
      </trkpt>
      <trkpt lat="45.11259" lon="-1.04559">
        <ele>64.064541</ele>
        <time>2022-12-23T12:53:39.752Z</time>
      </trkpt>
      <trkpt lat="45.11248" lon="-1.0456">
        <ele>63.9792</ele>
        <time>2022-12-23T12:53:42.754Z</time>
      </trkpt>
      <trkpt lat="45.11236" lon="-1.0456">
        <ele>63.887604</ele>
        <time>2022-12-23T12:53:45.751Z</time>
      </trkpt>
      <trkpt lat="45.11225" lon="-1.04561">
        <ele>63.793578</ele>
        <time>2022-12-23T12:53:48.753Z</time>
      </trkpt>
      <trkpt lat="45.11212" lon="-1.0456">
        <ele>63.696401</ele>
        <time>2022-12-23T12:53:51.751Z</time>
      </trkpt>
      <trkpt lat="45.112" lon="-1.04561">
        <ele>63.593655</ele>
        <time>2022-12-23T12:53:54.735Z</time>
      </trkpt>
      <trkpt lat="45.11186" lon="-1.04561">
        <ele>63.488514</ele>
        <time>2022-12-23T12:53:57.755Z</time>
      </trkpt>
      <trkpt lat="45.11174" lon="-1.04561">
        <ele>63.393727</ele>
        <time>2022-12-23T12:54:00.749Z</time>
      </trkpt>
      <trkpt lat="45.11164" lon="-1.04562">
        <ele>63.31752</ele>
        <time>2022-12-23T12:54:03.757Z</time>
      </trkpt>
      <trkpt lat="45.11154" lon="-1.04562">
        <ele>63.290482</ele>
        <time>2022-12-23T12:54:06.754Z</time>
      </trkpt>
      <trkpt lat="45.11144" lon="-1.04562">
        <ele>63.262052</ele>
        <time>2022-12-23T12:54:09.761Z</time>
      </trkpt>
      <trkpt lat="45.11131" lon="-1.04562">
        <ele>63.224983</ele>
        <time>2022-12-23T12:54:12.756Z</time>
      </trkpt>
      <trkpt lat="45.11118" lon="-1.04562">
        <ele>63.189028</ele>
        <time>2022-12-23T12:54:15.770Z</time>
      </trkpt>
      <trkpt lat="45.11105" lon="-1.04562">
        <ele>63.152229</ele>
        <time>2022-12-23T12:54:18.744Z</time>
      </trkpt>
      <trkpt lat="45.11092" lon="-1.04562">
        <ele>63.115717</ele>
        <time>2022-12-23T12:54:21.759Z</time>
      </trkpt>
      <trkpt lat="45.11079" lon="-1.04562">
        <ele>63.081713</ele>
        <time>2022-12-23T12:54:24.752Z</time>
      </trkpt>
      <trkpt lat="45.11068" lon="-1.04562">
        <ele>63.05077</ele>
        <time>2022-12-23T12:54:27.755Z</time>
      </trkpt>
      <trkpt lat="45.11057" lon="-1.04563">
        <ele>63.018981</ele>
        <time>2022-12-23T12:54:30.756Z</time>
      </trkpt>
      <trkpt lat="45.11045" lon="-1.04562">
        <ele>62.984976</ele>
        <time>2022-12-23T12:54:33.742Z</time>
      </trkpt>
      <trkpt lat="45.11031" lon="-1.04563">
        <ele>62.947069</ele>
        <time>2022-12-23T12:54:36.754Z</time>
      </trkpt>
      <trkpt lat="45.11019" lon="-1.04562">
        <ele>62.913622</ele>
        <time>2022-12-23T12:54:39.753Z</time>
      </trkpt>
      <trkpt lat="45.11007" lon="-1.04563">
        <ele>62.878782</ele>
        <time>2022-12-23T12:54:42.732Z</time>
      </trkpt>
      <trkpt lat="45.10993" lon="-1.04563">
        <ele>62.8417</ele>
        <time>2022-12-23T12:54:45.752Z</time>
      </trkpt>
      <trkpt lat="45.1098" lon="-1.04563">
        <ele>62.811551</ele>
        <time>2022-12-23T12:54:48.752Z</time>
      </trkpt>
      <trkpt lat="45.10968" lon="-1.04564">
        <ele>62.791076</ele>
        <time>2022-12-23T12:54:51.751Z</time>
      </trkpt>
      <trkpt lat="45.10956" lon="-1.04564">
        <ele>62.770937</ele>
        <time>2022-12-23T12:54:54.744Z</time>
      </trkpt>
      <trkpt lat="45.10944" lon="-1.04564">
        <ele>62.751783</ele>
        <time>2022-12-23T12:54:57.757Z</time>
      </trkpt>
      <trkpt lat="45.10935" lon="-1.04564">
        <ele>62.736395</ele>
        <time>2022-12-23T12:55:00.752Z</time>
      </trkpt>
      <trkpt lat="45.10925" lon="-1.04564">
        <ele>62.720186</ele>
        <time>2022-12-23T12:55:03.754Z</time>
      </trkpt>
      <trkpt lat="45.10913" lon="-1.04564">
        <ele>62.701687</ele>
        <time>2022-12-23T12:55:06.754Z</time>
      </trkpt>
      <trkpt lat="45.10901" lon="-1.04564">
        <ele>62.681714</ele>
        <time>2022-12-23T12:55:09.769Z</time>
      </trkpt>
      <trkpt lat="45.10888" lon="-1.04564">
        <ele>62.660594</ele>
        <time>2022-12-23T12:55:12.760Z</time>
      </trkpt>
      <trkpt lat="45.10875" lon="-1.04565">
        <ele>62.639144</ele>
        <time>2022-12-23T12:55:15.753Z</time>
      </trkpt>
      <trkpt lat="45.10862" lon="-1.04564">
        <ele>62.617847</ele>
        <time>2022-12-23T12:55:18.734Z</time>
      </trkpt>
      <trkpt lat="45.10849" lon="-1.04565">
        <ele>62.596357</ele>
        <time>2022-12-23T12:55:21.751Z</time>
      </trkpt>
      <trkpt lat="45.10837" lon="-1.04566">
        <ele>62.576056</ele>
        <time>2022-12-23T12:55:24.746Z</time>
      </trkpt>
      <trkpt lat="45.10825" lon="-1.04566">
        <ele>62.556245</ele>
        <time>2022-12-23T12:55:27.753Z</time>
      </trkpt>
      <trkpt lat="45.10813" lon="-1.04566">
        <ele>62.537745</ele>
        <time>2022-12-23T12:55:30.754Z</time>
      </trkpt>
      <trkpt lat="45.10803" lon="-1.04566">
        <ele>62.519075</ele>
        <time>2022-12-23T12:55:33.762Z</time>
      </trkpt>
      <trkpt lat="45.10791" lon="-1.04566">
        <ele>62.494661</ele>
        <time>2022-12-23T12:55:36.741Z</time>
      </trkpt>
      <trkpt lat="45.1078" lon="-1.04566">
        <ele>62.469604</ele>
        <time>2022-12-23T12:55:39.756Z</time>
      </trkpt>
      <trkpt lat="45.10768" lon="-1.04565">
        <ele>62.444082</ele>
        <time>2022-12-23T12:55:42.749Z</time>
      </trkpt>
      <trkpt lat="45.10755" lon="-1.04565">
        <ele>62.417737</ele>
        <time>2022-12-23T12:55:45.751Z</time>
      </trkpt>
      <trkpt lat="45.10743" lon="-1.04565">
        <ele>62.391831</ele>
        <time>2022-12-23T12:55:48.764Z</time>
      </trkpt>
      <trkpt lat="45.10731" lon="-1.04566">
        <ele>62.36524</ele>
        <time>2022-12-23T12:55:51.751Z</time>
      </trkpt>
      <trkpt lat="45.10718" lon="-1.04567">
        <ele>62.338034</ele>
        <time>2022-12-23T12:55:54.743Z</time>
      </trkpt>
      <trkpt lat="45.10705" lon="-1.04567">
        <ele>62.309754</ele>
        <time>2022-12-23T12:55:57.753Z</time>
      </trkpt>
      <trkpt lat="45.10691" lon="-1.04568">
        <ele>62.280627</ele>
        <time>2022-12-23T12:56:00.755Z</time>
      </trkpt>
      <trkpt lat="45.10682" lon="-1.04569">
        <ele>62.260658</ele>
        <time>2022-12-23T12:56:02.757Z</time>
      </trkpt>
      <trkpt lat="45.10673" lon="-1.04569">
        <ele>62.240533</ele>
        <time>2022-12-23T12:56:04.756Z</time>
      </trkpt>
      <trkpt lat="45.10664" lon="-1.04569">
        <ele>62.220836</ele>
        <time>2022-12-23T12:56:06.761Z</time>
      </trkpt>
      <trkpt lat="45.1065" lon="-1.0457">
        <ele>62.192342</ele>
        <time>2022-12-23T12:56:09.747Z</time>
      </trkpt>
      <trkpt lat="45.1064" lon="-1.04569">
        <ele>62.171351</ele>
        <time>2022-12-23T12:56:11.755Z</time>
      </trkpt>
      <trkpt lat="45.10631" lon="-1.04569">
        <ele>62.151654</ele>
        <time>2022-12-23T12:56:13.733Z</time>
      </trkpt>
      <trkpt lat="45.10622" lon="-1.0457">
        <ele>62.125249</ele>
        <time>2022-12-23T12:56:15.751Z</time>
      </trkpt>
      <trkpt lat="45.10613" lon="-1.0457">
        <ele>62.088778</ele>
        <time>2022-12-23T12:56:17.750Z</time>
      </trkpt>
      <trkpt lat="45.10604" lon="-1.04569">
        <ele>62.051888</ele>
        <time>2022-12-23T12:56:19.754Z</time>
      </trkpt>
      <trkpt lat="45.10595" lon="-1.0457">
        <ele>62.015778</ele>
        <time>2022-12-23T12:56:21.733Z</time>
      </trkpt>
      <trkpt lat="45.10582" lon="-1.04569">
        <ele>61.96739</ele>
        <time>2022-12-23T12:56:24.753Z</time>
      </trkpt>
      <trkpt lat="45.1057" lon="-1.0457">
        <ele>61.919025</ele>
        <time>2022-12-23T12:56:27.752Z</time>
      </trkpt>
      <trkpt lat="45.10557" lon="-1.0457">
        <ele>61.867892</ele>
        <time>2022-12-23T12:56:30.754Z</time>
      </trkpt>
      <trkpt lat="45.10544" lon="-1.0457">
        <ele>61.815947</ele>
        <time>2022-12-23T12:56:33.763Z</time>
      </trkpt>
      <trkpt lat="45.10531" lon="-1.04571">
        <ele>61.762813</ele>
        <time>2022-12-23T12:56:36.751Z</time>
      </trkpt>
      <trkpt lat="45.10522" lon="-1.04571">
        <ele>61.726743</ele>
        <time>2022-12-23T12:56:38.753Z</time>
      </trkpt>
      <trkpt lat="45.10508" lon="-1.04571">
        <ele>61.674409</ele>
        <time>2022-12-23T12:56:41.752Z</time>
      </trkpt>
      <trkpt lat="45.10499" lon="-1.04571">
        <ele>61.638334</ele>
        <time>2022-12-23T12:56:43.754Z</time>
      </trkpt>
      <trkpt lat="45.10486" lon="-1.04571">
        <ele>61.585612</ele>
        <time>2022-12-23T12:56:46.749Z</time>
      </trkpt>
      <trkpt lat="45.10473" lon="-1.04571">
        <ele>61.535268</ele>
        <time>2022-12-23T12:56:49.750Z</time>
      </trkpt>
      <trkpt lat="45.10462" lon="-1.04572">
        <ele>61.488808</ele>
        <time>2022-12-23T12:56:52.756Z</time>
      </trkpt>
      <trkpt lat="45.10449" lon="-1.04572">
        <ele>61.439636</ele>
        <time>2022-12-23T12:56:55.757Z</time>
      </trkpt>
      <trkpt lat="45.10437" lon="-1.04572">
        <ele>61.479169</ele>
        <time>2022-12-23T12:56:58.755Z</time>
      </trkpt>
      <trkpt lat="45.10424" lon="-1.04572">
        <ele>61.551097</ele>
        <time>2022-12-23T12:57:01.752Z</time>
      </trkpt>
      <trkpt lat="45.10411" lon="-1.04573">
        <ele>61.621881</ele>
        <time>2022-12-23T12:57:04.753Z</time>
      </trkpt>
      <trkpt lat="45.10398" lon="-1.04572">
        <ele>61.694355</ele>
        <time>2022-12-23T12:57:07.748Z</time>
      </trkpt>
      <trkpt lat="45.10389" lon="-1.04572">
        <ele>61.746195</ele>
        <time>2022-12-23T12:57:09.755Z</time>
      </trkpt>
      <trkpt lat="45.1038" lon="-1.04573">
        <ele>61.796914</ele>
        <time>2022-12-23T12:57:11.765Z</time>
      </trkpt>
      <trkpt lat="45.10367" lon="-1.04573">
        <ele>61.868273</ele>
        <time>2022-12-23T12:57:14.731Z</time>
      </trkpt>
      <trkpt lat="45.10357" lon="-1.04573">
        <ele>61.924002</ele>
        <time>2022-12-23T12:57:16.741Z</time>
      </trkpt>
      <trkpt lat="45.10348" lon="-1.04573">
        <ele>61.975274</ele>
        <time>2022-12-23T12:57:18.741Z</time>
      </trkpt>
      <trkpt lat="45.10335" lon="-1.04573">
        <ele>62.047164</ele>
        <time>2022-12-23T12:57:21.756Z</time>
      </trkpt>
      <trkpt lat="45.10323" lon="-1.04573">
        <ele>62.111251</ele>
        <time>2022-12-23T12:57:24.758Z</time>
      </trkpt>
      <trkpt lat="45.10313" lon="-1.04573">
        <ele>62.170881</ele>
        <time>2022-12-23T12:57:27.751Z</time>
      </trkpt>
      <trkpt lat="45.10302" lon="-1.04573">
        <ele>62.231079</ele>
        <time>2022-12-23T12:57:30.752Z</time>
      </trkpt>
      <trkpt lat="45.1029" lon="-1.04574">
        <ele>62.295725</ele>
        <time>2022-12-23T12:57:33.753Z</time>
      </trkpt>
      <trkpt lat="45.10278" lon="-1.04573">
        <ele>62.363718</ele>
        <time>2022-12-23T12:57:36.753Z</time>
      </trkpt>
      <trkpt lat="45.10266" lon="-1.04574">
        <ele>62.431336</ele>
        <time>2022-12-23T12:57:39.754Z</time>
      </trkpt>
      <trkpt lat="45.10253" lon="-1.04575">
        <ele>62.511661</ele>
        <time>2022-12-23T12:57:42.758Z</time>
      </trkpt>
      <trkpt lat="45.1024" lon="-1.04575">
        <ele>62.594371</ele>
        <time>2022-12-23T12:57:45.755Z</time>
      </trkpt>
      <trkpt lat="45.10228" lon="-1.04575">
        <ele>62.668934</ele>
        <time>2022-12-23T12:57:48.745Z</time>
      </trkpt>
      <trkpt lat="45.10217" lon="-1.04575">
        <ele>62.739117</ele>
        <time>2022-12-23T12:57:51.759Z</time>
      </trkpt>
      <trkpt lat="45.10207" lon="-1.04575">
        <ele>62.800523</ele>
        <time>2022-12-23T12:57:54.754Z</time>
      </trkpt>
      <trkpt lat="45.10197" lon="-1.04576">
        <ele>62.863907</ele>
        <time>2022-12-23T12:57:57.753Z</time>
      </trkpt>
      <trkpt lat="45.10186" lon="-1.04576">
        <ele>62.933508</ele>
        <time>2022-12-23T12:58:00.747Z</time>
      </trkpt>
      <trkpt lat="45.10174" lon="-1.04576">
        <ele>63.008703</ele>
        <time>2022-12-23T12:58:03.783Z</time>
      </trkpt>
      <trkpt lat="45.10162" lon="-1.04576">
        <ele>63.084552</ele>
        <time>2022-12-23T12:58:06.753Z</time>
      </trkpt>
      <trkpt lat="45.1015" lon="-1.04577">
        <ele>63.161622</ele>
        <time>2022-12-23T12:58:09.759Z</time>
      </trkpt>
      <trkpt lat="45.10137" lon="-1.04577">
        <ele>63.23744</ele>
        <time>2022-12-23T12:58:12.752Z</time>
      </trkpt>
      <trkpt lat="45.10125" lon="-1.04577">
        <ele>63.312631</ele>
        <time>2022-12-23T12:58:15.754Z</time>
      </trkpt>
      <trkpt lat="45.10113" lon="-1.04577">
        <ele>63.388494</ele>
        <time>2022-12-23T12:58:18.762Z</time>
      </trkpt>
      <trkpt lat="45.10101" lon="-1.04577">
        <ele>63.467443</ele>
        <time>2022-12-23T12:58:21.759Z</time>
      </trkpt>
      <trkpt lat="45.10088" lon="-1.04578">
        <ele>63.544695</ele>
        <time>2022-12-23T12:58:24.744Z</time>
      </trkpt>
      <trkpt lat="45.10076" lon="-1.04579">
        <ele>63.534815</ele>
        <time>2022-12-23T12:58:27.752Z</time>
      </trkpt>
      <trkpt lat="45.10063" lon="-1.04578">
        <ele>63.510728</ele>
        <time>2022-12-23T12:58:30.749Z</time>
      </trkpt>
      <trkpt lat="45.10053" lon="-1.04578">
        <ele>63.489426</ele>
        <time>2022-12-23T12:58:33.762Z</time>
      </trkpt>
      <trkpt lat="45.10042" lon="-1.04577">
        <ele>63.468516</ele>
        <time>2022-12-23T12:58:36.762Z</time>
      </trkpt>
      <trkpt lat="45.10031" lon="-1.04578">
        <ele>63.44622</ele>
        <time>2022-12-23T12:58:39.756Z</time>
      </trkpt>
      <trkpt lat="45.1002" lon="-1.04578">
        <ele>63.423337</ele>
        <time>2022-12-23T12:58:42.758Z</time>
      </trkpt>
      <trkpt lat="45.10007" lon="-1.04578">
        <ele>63.399228</ele>
        <time>2022-12-23T12:58:45.733Z</time>
      </trkpt>
      <trkpt lat="45.09995" lon="-1.04579">
        <ele>63.374142</ele>
        <time>2022-12-23T12:58:48.754Z</time>
      </trkpt>
      <trkpt lat="45.09982" lon="-1.04579">
        <ele>63.349067</ele>
        <time>2022-12-23T12:58:51.757Z</time>
      </trkpt>
      <trkpt lat="45.09969" lon="-1.04579">
        <ele>63.322802</ele>
        <time>2022-12-23T12:58:54.729Z</time>
      </trkpt>
      <trkpt lat="45.09956" lon="-1.04579">
        <ele>63.29594</ele>
        <time>2022-12-23T12:58:57.754Z</time>
      </trkpt>
      <trkpt lat="45.09943" lon="-1.0458">
        <ele>63.270059</ele>
        <time>2022-12-23T12:59:00.752Z</time>
      </trkpt>
      <trkpt lat="45.09932" lon="-1.0458">
        <ele>63.248565</ele>
        <time>2022-12-23T12:59:03.734Z</time>
      </trkpt>
      <trkpt lat="45.09921" lon="-1.0458">
        <ele>63.226865</ele>
        <time>2022-12-23T12:59:06.737Z</time>
      </trkpt>
      <trkpt lat="45.09909" lon="-1.04581">
        <ele>63.203335</ele>
        <time>2022-12-23T12:59:09.738Z</time>
      </trkpt>
      <trkpt lat="45.09896" lon="-1.04581">
        <ele>63.39338</ele>
        <time>2022-12-23T12:59:12.738Z</time>
      </trkpt>
      <trkpt lat="45.09883" lon="-1.04581">
        <ele>63.636247</ele>
        <time>2022-12-23T12:59:15.745Z</time>
      </trkpt>
      <trkpt lat="45.0987" lon="-1.04581">
        <ele>63.87725</ele>
        <time>2022-12-23T12:59:18.754Z</time>
      </trkpt>
      <trkpt lat="45.09859" lon="-1.04581">
        <ele>64.099571</ele>
        <time>2022-12-23T12:59:21.751Z</time>
      </trkpt>
      <trkpt lat="45.09846" lon="-1.04581">
        <ele>64.333112</ele>
        <time>2022-12-23T12:59:24.752Z</time>
      </trkpt>
      <trkpt lat="45.09833" lon="-1.04581">
        <ele>64.577862</ele>
        <time>2022-12-23T12:59:27.746Z</time>
      </trkpt>
      <trkpt lat="45.0982" lon="-1.04582">
        <ele>64.811403</ele>
        <time>2022-12-23T12:59:30.736Z</time>
      </trkpt>
      <trkpt lat="45.09808" lon="-1.04582">
        <ele>65.043245</ele>
        <time>2022-12-23T12:59:33.751Z</time>
      </trkpt>
      <trkpt lat="45.09795" lon="-1.04581">
        <ele>65.288336</ele>
        <time>2022-12-23T12:59:36.741Z</time>
      </trkpt>
      <trkpt lat="45.09782" lon="-1.04581">
        <ele>65.538801</ele>
        <time>2022-12-23T12:59:39.738Z</time>
      </trkpt>
      <trkpt lat="45.09768" lon="-1.04581">
        <ele>65.787305</ele>
        <time>2022-12-23T12:59:42.756Z</time>
      </trkpt>
      <trkpt lat="45.09757" lon="-1.04581">
        <ele>66.005901</ele>
        <time>2022-12-23T12:59:45.752Z</time>
      </trkpt>
      <trkpt lat="45.09746" lon="-1.04581">
        <ele>66.203936</ele>
        <time>2022-12-23T12:59:48.756Z</time>
      </trkpt>
      <trkpt lat="45.09735" lon="-1.04581">
        <ele>66.416949</ele>
        <time>2022-12-23T12:59:51.754Z</time>
      </trkpt>
      <trkpt lat="45.09722" lon="-1.04581">
        <ele>66.517172</ele>
        <time>2022-12-23T12:59:54.754Z</time>
      </trkpt>
      <trkpt lat="45.0971" lon="-1.04581">
        <ele>66.404183</ele>
        <time>2022-12-23T12:59:57.752Z</time>
      </trkpt>
      <trkpt lat="45.09697" lon="-1.04581">
        <ele>66.287538</ele>
        <time>2022-12-23T13:00:00.750Z</time>
      </trkpt>
      <trkpt lat="45.09684" lon="-1.04581">
        <ele>66.170008</ele>
        <time>2022-12-23T13:00:03.767Z</time>
      </trkpt>
      <trkpt lat="45.09672" lon="-1.04582">
        <ele>66.057829</ele>
        <time>2022-12-23T13:00:06.735Z</time>
      </trkpt>
      <trkpt lat="45.0966" lon="-1.04582">
        <ele>65.947588</ele>
        <time>2022-12-23T13:00:09.752Z</time>
      </trkpt>
      <trkpt lat="45.09648" lon="-1.04582">
        <ele>65.840993</ele>
        <time>2022-12-23T13:00:12.757Z</time>
      </trkpt>
      <trkpt lat="45.09637" lon="-1.04583">
        <ele>65.741667</ele>
        <time>2022-12-23T13:00:15.754Z</time>
      </trkpt>
      <trkpt lat="45.09628" lon="-1.04583">
        <ele>65.653291</ele>
        <time>2022-12-23T13:00:18.752Z</time>
      </trkpt>
      <trkpt lat="45.09618" lon="-1.04583">
        <ele>65.563998</ele>
        <time>2022-12-23T13:00:21.758Z</time>
      </trkpt>
      <trkpt lat="45.09607" lon="-1.04583">
        <ele>65.463761</ele>
        <time>2022-12-23T13:00:24.753Z</time>
      </trkpt>
      <trkpt lat="45.09595" lon="-1.04583">
        <ele>65.354416</ele>
        <time>2022-12-23T13:00:27.751Z</time>
      </trkpt>
      <trkpt lat="45.09582" lon="-1.04583">
        <ele>65.240533</ele>
        <time>2022-12-23T13:00:30.733Z</time>
      </trkpt>
      <trkpt lat="45.0957" lon="-1.04584">
        <ele>65.124798</ele>
        <time>2022-12-23T13:00:33.760Z</time>
      </trkpt>
      <trkpt lat="45.09557" lon="-1.04584">
        <ele>65.00818</ele>
        <time>2022-12-23T13:00:36.752Z</time>
      </trkpt>
      <trkpt lat="45.09544" lon="-1.04584">
        <ele>64.903409</ele>
        <time>2022-12-23T13:00:39.770Z</time>
      </trkpt>
      <trkpt lat="45.09531" lon="-1.04584">
        <ele>64.834247</ele>
        <time>2022-12-23T13:00:42.757Z</time>
      </trkpt>
      <trkpt lat="45.09518" lon="-1.04584">
        <ele>64.76563</ele>
        <time>2022-12-23T13:00:45.733Z</time>
      </trkpt>
      <trkpt lat="45.09505" lon="-1.04585">
        <ele>64.694283</ele>
        <time>2022-12-23T13:00:48.756Z</time>
      </trkpt>
      <trkpt lat="45.09491" lon="-1.04586">
        <ele>64.620116</ele>
        <time>2022-12-23T13:00:51.749Z</time>
      </trkpt>
      <trkpt lat="45.09482" lon="-1.04586">
        <ele>64.569689</ele>
        <time>2022-12-23T13:00:53.755Z</time>
      </trkpt>
      <trkpt lat="45.09472" lon="-1.04586">
        <ele>64.515545</ele>
        <time>2022-12-23T13:00:55.753Z</time>
      </trkpt>
      <trkpt lat="45.09463" lon="-1.04585">
        <ele>64.466757</ele>
        <time>2022-12-23T13:00:57.754Z</time>
      </trkpt>
      <trkpt lat="45.09449" lon="-1.04586">
        <ele>64.396494</ele>
        <time>2022-12-23T13:01:00.734Z</time>
      </trkpt>
      <trkpt lat="45.09438" lon="-1.04586">
        <ele>64.332701</ele>
        <time>2022-12-23T13:01:03.769Z</time>
      </trkpt>
      <trkpt lat="45.09425" lon="-1.04586">
        <ele>64.265152</ele>
        <time>2022-12-23T13:01:06.755Z</time>
      </trkpt>
      <trkpt lat="45.09412" lon="-1.04586">
        <ele>64.195458</ele>
        <time>2022-12-23T13:01:09.734Z</time>
      </trkpt>
      <trkpt lat="45.09398" lon="-1.04586">
        <ele>64.123085</ele>
        <time>2022-12-23T13:01:12.754Z</time>
      </trkpt>
      <trkpt lat="45.09385" lon="-1.04587">
        <ele>64.051706</ele>
        <time>2022-12-23T13:01:15.759Z</time>
      </trkpt>
      <trkpt lat="45.09376" lon="-1.04587">
        <ele>64.002917</ele>
        <time>2022-12-23T13:01:17.753Z</time>
      </trkpt>
      <trkpt lat="45.09367" lon="-1.04587">
        <ele>63.952221</ele>
        <time>2022-12-23T13:01:19.756Z</time>
      </trkpt>
      <trkpt lat="45.09357" lon="-1.04588">
        <ele>63.852888</ele>
        <time>2022-12-23T13:01:21.753Z</time>
      </trkpt>
      <trkpt lat="45.09348" lon="-1.04588">
        <ele>63.756656</ele>
        <time>2022-12-23T13:01:23.761Z</time>
      </trkpt>
      <trkpt lat="45.09335" lon="-1.04588">
        <ele>63.614466</ele>
        <time>2022-12-23T13:01:26.753Z</time>
      </trkpt>
      <trkpt lat="45.09325" lon="-1.04588">
        <ele>63.514095</ele>
        <time>2022-12-23T13:01:28.752Z</time>
      </trkpt>
      <trkpt lat="45.09316" lon="-1.04588">
        <ele>63.414769</ele>
        <time>2022-12-23T13:01:30.749Z</time>
      </trkpt>
      <trkpt lat="45.09306" lon="-1.04588">
        <ele>63.31439</ele>
        <time>2022-12-23T13:01:32.757Z</time>
      </trkpt>
      <trkpt lat="45.09296" lon="-1.04588">
        <ele>63.209746</ele>
        <time>2022-12-23T13:01:34.758Z</time>
      </trkpt>
      <trkpt lat="45.09284" lon="-1.04588">
        <ele>63.084283</ele>
        <time>2022-12-23T13:01:37.756Z</time>
      </trkpt>
      <trkpt lat="45.09272" lon="-1.04589">
        <ele>62.957672</ele>
        <time>2022-12-23T13:01:40.745Z</time>
      </trkpt>
      <trkpt lat="45.0926" lon="-1.04589">
        <ele>62.829041</ele>
        <time>2022-12-23T13:01:43.755Z</time>
      </trkpt>
      <trkpt lat="45.09248" lon="-1.04589">
        <ele>62.707753</ele>
        <time>2022-12-23T13:01:46.755Z</time>
      </trkpt>
      <trkpt lat="45.09235" lon="-1.0459">
        <ele>62.569729</ele>
        <time>2022-12-23T13:01:49.745Z</time>
      </trkpt>
      <trkpt lat="45.09226" lon="-1.0459">
        <ele>62.474485</ele>
        <time>2022-12-23T13:01:51.753Z</time>
      </trkpt>
      <trkpt lat="45.09212" lon="-1.0459">
        <ele>62.332295</ele>
        <time>2022-12-23T13:01:54.756Z</time>
      </trkpt>
      <trkpt lat="45.09199" lon="-1.04591">
        <ele>62.193225</ele>
        <time>2022-12-23T13:01:57.755Z</time>
      </trkpt>
      <trkpt lat="45.09185" lon="-1.04591">
        <ele>62.066132</ele>
        <time>2022-12-23T13:02:00.754Z</time>
      </trkpt>
      <trkpt lat="45.09173" lon="-1.04591">
        <ele>62.013756</ele>
        <time>2022-12-23T13:02:03.756Z</time>
      </trkpt>
      <trkpt lat="45.09159" lon="-1.0459">
        <ele>61.957118</ele>
        <time>2022-12-23T13:02:06.755Z</time>
      </trkpt>
      <trkpt lat="45.0915" lon="-1.0459">
        <ele>61.919085</ele>
        <time>2022-12-23T13:02:08.753Z</time>
      </trkpt>
      <trkpt lat="45.09137" lon="-1.04591">
        <ele>61.863327</ele>
        <time>2022-12-23T13:02:11.754Z</time>
      </trkpt>
      <trkpt lat="45.09125" lon="-1.04591">
        <ele>61.812627</ele>
        <time>2022-12-23T13:02:14.754Z</time>
      </trkpt>
      <trkpt lat="45.09114" lon="-1.04591">
        <ele>61.764896</ele>
        <time>2022-12-23T13:02:17.758Z</time>
      </trkpt>
      <trkpt lat="45.09103" lon="-1.04591">
        <ele>61.718855</ele>
        <time>2022-12-23T13:02:20.750Z</time>
      </trkpt>
      <trkpt lat="45.09092" lon="-1.04591">
        <ele>61.670695</ele>
        <time>2022-12-23T13:02:23.755Z</time>
      </trkpt>
      <trkpt lat="45.0908" lon="-1.04593">
        <ele>61.619812</ele>
        <time>2022-12-23T13:02:26.754Z</time>
      </trkpt>
      <trkpt lat="45.09067" lon="-1.04593">
        <ele>61.568267</ele>
        <time>2022-12-23T13:02:29.759Z</time>
      </trkpt>
      <trkpt lat="45.09055" lon="-1.04594">
        <ele>61.515455</ele>
        <time>2022-12-23T13:02:32.757Z</time>
      </trkpt>
      <trkpt lat="45.09042" lon="-1.04594">
        <ele>61.459701</ele>
        <time>2022-12-23T13:02:35.757Z</time>
      </trkpt>
      <trkpt lat="45.09028" lon="-1.04594">
        <ele>61.402659</ele>
        <time>2022-12-23T13:02:38.756Z</time>
      </trkpt>
      <trkpt lat="45.09015" lon="-1.04595">
        <ele>61.345618</ele>
        <time>2022-12-23T13:02:41.759Z</time>
      </trkpt>
      <trkpt lat="45.09001" lon="-1.04594">
        <ele>61.489925</ele>
        <time>2022-12-23T13:02:44.756Z</time>
      </trkpt>
      <trkpt lat="45.08992" lon="-1.04593">
        <ele>61.754131</ele>
        <time>2022-12-23T13:02:46.768Z</time>
      </trkpt>
      <trkpt lat="45.08983" lon="-1.04593">
        <ele>62.009478</ele>
        <time>2022-12-23T13:02:48.759Z</time>
      </trkpt>
      <trkpt lat="45.0897" lon="-1.04594">
        <ele>62.373693</ele>
        <time>2022-12-23T13:02:51.750Z</time>
      </trkpt>
      <trkpt lat="45.08958" lon="-1.04595">
        <ele>62.706791</ele>
        <time>2022-12-23T13:02:54.745Z</time>
      </trkpt>
      <trkpt lat="45.08947" lon="-1.04594">
        <ele>62.995398</ele>
        <time>2022-12-23T13:02:57.759Z</time>
      </trkpt>
      <trkpt lat="45.08935" lon="-1.04595">
        <ele>63.336557</ele>
        <time>2022-12-23T13:03:00.751Z</time>
      </trkpt>
      <trkpt lat="45.08923" lon="-1.04596">
        <ele>63.669839</ele>
        <time>2022-12-23T13:03:03.746Z</time>
      </trkpt>
      <trkpt lat="45.08911" lon="-1.04595">
        <ele>64.008208</ele>
        <time>2022-12-23T13:03:06.758Z</time>
      </trkpt>
      <trkpt lat="45.08897" lon="-1.04596">
        <ele>64.380182</ele>
        <time>2022-12-23T13:03:09.756Z</time>
      </trkpt>
      <trkpt lat="45.08885" lon="-1.04597">
        <ele>64.713367</ele>
        <time>2022-12-23T13:03:12.753Z</time>
      </trkpt>
      <trkpt lat="45.08874" lon="-1.04597">
        <ele>65.021222</ele>
        <time>2022-12-23T13:03:15.757Z</time>
      </trkpt>
      <trkpt lat="45.08863" lon="-1.04598">
        <ele>65.332245</ele>
        <time>2022-12-23T13:03:18.746Z</time>
      </trkpt>
      <trkpt lat="45.08852" lon="-1.04597">
        <ele>65.645744</ele>
        <time>2022-12-23T13:03:21.754Z</time>
      </trkpt>
      <trkpt lat="45.0884" lon="-1.04598">
        <ele>65.970334</ele>
        <time>2022-12-23T13:03:24.758Z</time>
      </trkpt>
      <trkpt lat="45.08829" lon="-1.04599">
        <ele>66.284036</ele>
        <time>2022-12-23T13:03:27.759Z</time>
      </trkpt>
      <trkpt lat="45.08817" lon="-1.04599">
        <ele>66.139742</ele>
        <time>2022-12-23T13:03:30.749Z</time>
      </trkpt>
      <trkpt lat="45.08805" lon="-1.046">
        <ele>65.945114</ele>
        <time>2022-12-23T13:03:33.749Z</time>
      </trkpt>
      <trkpt lat="45.08791" lon="-1.046">
        <ele>65.740069</ele>
        <time>2022-12-23T13:03:36.753Z</time>
      </trkpt>
      <trkpt lat="45.08778" lon="-1.04599">
        <ele>65.540977</ele>
        <time>2022-12-23T13:03:39.746Z</time>
      </trkpt>
      <trkpt lat="45.08766" lon="-1.04599">
        <ele>65.361956</ele>
        <time>2022-12-23T13:03:42.750Z</time>
      </trkpt>
      <trkpt lat="45.08753" lon="-1.04599">
        <ele>65.16156</ele>
        <time>2022-12-23T13:03:45.769Z</time>
      </trkpt>
      <trkpt lat="45.08744" lon="-1.04599">
        <ele>65.019265</ele>
        <time>2022-12-23T13:03:47.758Z</time>
      </trkpt>
      <trkpt lat="45.08731" lon="-1.04599">
        <ele>64.821866</ele>
        <time>2022-12-23T13:03:50.743Z</time>
      </trkpt>
      <trkpt lat="45.08722" lon="-1.04599">
        <ele>64.681122</ele>
        <time>2022-12-23T13:03:52.742Z</time>
      </trkpt>
      <trkpt lat="45.08713" lon="-1.04599">
        <ele>64.53886</ele>
        <time>2022-12-23T13:03:54.753Z</time>
      </trkpt>
      <trkpt lat="45.08703" lon="-1.046">
        <ele>64.388764</ele>
        <time>2022-12-23T13:03:56.757Z</time>
      </trkpt>
      <trkpt lat="45.0869" lon="-1.04599">
        <ele>64.199038</ele>
        <time>2022-12-23T13:03:59.756Z</time>
      </trkpt>
      <trkpt lat="45.08678" lon="-1.046">
        <ele>64.015365</ele>
        <time>2022-12-23T13:04:02.752Z</time>
      </trkpt>
      <trkpt lat="45.08668" lon="-1.046">
        <ele>63.862366</ele>
        <time>2022-12-23T13:04:05.738Z</time>
      </trkpt>
      <trkpt lat="45.08658" lon="-1.04601">
        <ele>63.707777</ele>
        <time>2022-12-23T13:04:08.756Z</time>
      </trkpt>
      <trkpt lat="45.08647" lon="-1.04601">
        <ele>63.548231</ele>
        <time>2022-12-23T13:04:11.756Z</time>
      </trkpt>
      <trkpt lat="45.08636" lon="-1.046">
        <ele>63.477636</ele>
        <time>2022-12-23T13:04:14.745Z</time>
      </trkpt>
      <trkpt lat="45.08623" lon="-1.046">
        <ele>63.398996</ele>
        <time>2022-12-23T13:04:17.752Z</time>
      </trkpt>
      <trkpt lat="45.08611" lon="-1.046">
        <ele>63.319737</ele>
        <time>2022-12-23T13:04:20.755Z</time>
      </trkpt>
      <trkpt lat="45.08597" lon="-1.04601">
        <ele>63.236726</ele>
        <time>2022-12-23T13:04:23.767Z</time>
      </trkpt>
      <trkpt lat="45.08584" lon="-1.04601">
        <ele>63.156237</ele>
        <time>2022-12-23T13:04:26.754Z</time>
      </trkpt>
      <trkpt lat="45.08571" lon="-1.04602">
        <ele>63.076938</ele>
        <time>2022-12-23T13:04:29.744Z</time>
      </trkpt>
      <trkpt lat="45.08559" lon="-1.04603">
        <ele>62.998196</ele>
        <time>2022-12-23T13:04:32.761Z</time>
      </trkpt>
      <trkpt lat="45.08547" lon="-1.04603">
        <ele>62.925745</ele>
        <time>2022-12-23T13:04:35.762Z</time>
      </trkpt>
      <trkpt lat="45.08534" lon="-1.04604">
        <ele>62.848342</ele>
        <time>2022-12-23T13:04:38.754Z</time>
      </trkpt>
      <trkpt lat="45.08521" lon="-1.04604">
        <ele>62.766607</ele>
        <time>2022-12-23T13:04:41.755Z</time>
      </trkpt>
      <trkpt lat="45.08508" lon="-1.04604">
        <ele>62.68423</ele>
        <time>2022-12-23T13:04:44.752Z</time>
      </trkpt>
      <trkpt lat="45.08495" lon="-1.04603">
        <ele>62.603076</ele>
        <time>2022-12-23T13:04:47.755Z</time>
      </trkpt>
      <trkpt lat="45.08482" lon="-1.04603">
        <ele>62.521979</ele>
        <time>2022-12-23T13:04:50.749Z</time>
      </trkpt>
      <trkpt lat="45.08469" lon="-1.04603">
        <ele>62.440871</ele>
        <time>2022-12-23T13:04:53.745Z</time>
      </trkpt>
      <trkpt lat="45.0846" lon="-1.04603">
        <ele>62.507157</ele>
        <time>2022-12-23T13:04:55.744Z</time>
      </trkpt>
      <trkpt lat="45.0845" lon="-1.04603">
        <ele>62.577719</ele>
        <time>2022-12-23T13:04:57.760Z</time>
      </trkpt>
      <trkpt lat="45.08437" lon="-1.04604">
        <ele>62.682075</ele>
        <time>2022-12-23T13:05:00.756Z</time>
      </trkpt>
      <trkpt lat="45.08424" lon="-1.04605">
        <ele>62.781926</ele>
        <time>2022-12-23T13:05:03.748Z</time>
      </trkpt>
      <trkpt lat="45.08412" lon="-1.04605">
        <ele>62.873208</ele>
        <time>2022-12-23T13:05:06.758Z</time>
      </trkpt>
      <trkpt lat="45.08401" lon="-1.04605">
        <ele>62.956039</ele>
        <time>2022-12-23T13:05:09.759Z</time>
      </trkpt>
      <trkpt lat="45.08391" lon="-1.04605">
        <ele>63.035037</ele>
        <time>2022-12-23T13:05:12.764Z</time>
      </trkpt>
      <trkpt lat="45.0838" lon="-1.04604">
        <ele>63.118747</ele>
        <time>2022-12-23T13:05:15.751Z</time>
      </trkpt>
      <trkpt lat="45.08369" lon="-1.04605">
        <ele>63.203906</ele>
        <time>2022-12-23T13:05:18.752Z</time>
      </trkpt>
      <trkpt lat="45.08356" lon="-1.04605">
        <ele>63.299781</ele>
        <time>2022-12-23T13:05:21.759Z</time>
      </trkpt>
      <trkpt lat="45.08345" lon="-1.04605">
        <ele>63.387987</ele>
        <time>2022-12-23T13:05:24.747Z</time>
      </trkpt>
      <trkpt lat="45.08335" lon="-1.04605">
        <ele>63.465467</ele>
        <time>2022-12-23T13:05:27.753Z</time>
      </trkpt>
      <trkpt lat="45.08323" lon="-1.04606">
        <ele>63.553748</ele>
        <time>2022-12-23T13:05:31.753Z</time>
      </trkpt>
      <trkpt lat="45.08314" lon="-1.04606">
        <ele>63.625874</ele>
        <time>2022-12-23T13:05:34.746Z</time>
      </trkpt>
      <trkpt lat="45.08303" lon="-1.04607">
        <ele>63.707173</ele>
        <time>2022-12-23T13:05:37.752Z</time>
      </trkpt>
      <trkpt lat="45.08292" lon="-1.04606">
        <ele>63.79618</ele>
        <time>2022-12-23T13:05:40.741Z</time>
      </trkpt>
      <trkpt lat="45.08279" lon="-1.04606">
        <ele>63.857222</ele>
        <time>2022-12-23T13:05:43.742Z</time>
      </trkpt>
      <trkpt lat="45.0827" lon="-1.04607">
        <ele>63.893682</ele>
        <time>2022-12-23T13:05:45.752Z</time>
      </trkpt>
      <trkpt lat="45.08257" lon="-1.04606">
        <ele>63.947138</ele>
        <time>2022-12-23T13:05:48.744Z</time>
      </trkpt>
      <trkpt lat="45.08244" lon="-1.04607">
        <ele>63.999789</ele>
        <time>2022-12-23T13:05:51.753Z</time>
      </trkpt>
      <trkpt lat="45.08232" lon="-1.04606">
        <ele>64.048399</ele>
        <time>2022-12-23T13:05:54.753Z</time>
      </trkpt>
      <trkpt lat="45.08221" lon="-1.04606">
        <ele>64.092144</ele>
        <time>2022-12-23T13:05:57.752Z</time>
      </trkpt>
      <trkpt lat="45.08211" lon="-1.04606">
        <ele>64.132645</ele>
        <time>2022-12-23T13:06:00.756Z</time>
      </trkpt>
      <trkpt lat="45.082" lon="-1.04606">
        <ele>64.17639</ele>
        <time>2022-12-23T13:06:03.756Z</time>
      </trkpt>
      <trkpt lat="45.0819" lon="-1.04606">
        <ele>64.218096</ele>
        <time>2022-12-23T13:06:06.738Z</time>
      </trkpt>
      <trkpt lat="45.08179" lon="-1.04606">
        <ele>64.262235</ele>
        <time>2022-12-23T13:06:09.756Z</time>
      </trkpt>
      <trkpt lat="45.08168" lon="-1.04607">
        <ele>64.309632</ele>
        <time>2022-12-23T13:06:12.756Z</time>
      </trkpt>
      <trkpt lat="45.08155" lon="-1.04607">
        <ele>64.359449</ele>
        <time>2022-12-23T13:06:15.752Z</time>
      </trkpt>
      <trkpt lat="45.08144" lon="-1.04607">
        <ele>64.404394</ele>
        <time>2022-12-23T13:06:18.753Z</time>
      </trkpt>
      <trkpt lat="45.08135" lon="-1.04608">
        <ele>64.442899</ele>
        <time>2022-12-23T13:06:21.751Z</time>
      </trkpt>
      <trkpt lat="45.08124" lon="-1.04608">
        <ele>64.48582</ele>
        <time>2022-12-23T13:06:24.739Z</time>
      </trkpt>
      <trkpt lat="45.08112" lon="-1.04608">
        <ele>64.532845</ele>
        <time>2022-12-23T13:06:27.752Z</time>
      </trkpt>
      <trkpt lat="45.081" lon="-1.0461">
        <ele>64.616446</ele>
        <time>2022-12-23T13:06:30.752Z</time>
      </trkpt>
      <trkpt lat="45.08089" lon="-1.04611">
        <ele>64.711837</ele>
        <time>2022-12-23T13:06:33.755Z</time>
      </trkpt>
      <trkpt lat="45.08078" lon="-1.04612">
        <ele>64.795809</ele>
        <time>2022-12-23T13:06:36.742Z</time>
      </trkpt>
      <trkpt lat="45.08069" lon="-1.0461">
        <ele>64.868705</ele>
        <time>2022-12-23T13:06:39.735Z</time>
      </trkpt>
      <trkpt lat="45.0806" lon="-1.0461">
        <ele>64.942158</ele>
        <time>2022-12-23T13:06:42.754Z</time>
      </trkpt>
      <trkpt lat="45.0805" lon="-1.0461">
        <ele>65.021248</ele>
        <time>2022-12-23T13:06:45.750Z</time>
      </trkpt>
      <trkpt lat="45.08039" lon="-1.0461">
        <ele>65.113241</ele>
        <time>2022-12-23T13:06:48.753Z</time>
      </trkpt>
      <trkpt lat="45.08027" lon="-1.0461">
        <ele>65.206856</ele>
        <time>2022-12-23T13:06:51.754Z</time>
      </trkpt>
      <trkpt lat="45.08016" lon="-1.0461">
        <ele>65.300525</ele>
        <time>2022-12-23T13:06:54.740Z</time>
      </trkpt>
      <trkpt lat="45.08005" lon="-1.0461">
        <ele>65.389292</ele>
        <time>2022-12-23T13:06:57.757Z</time>
      </trkpt>
      <trkpt lat="45.07993" lon="-1.0461">
        <ele>65.485327</ele>
        <time>2022-12-23T13:07:00.754Z</time>
      </trkpt>
      <trkpt lat="45.07981" lon="-1.0461">
        <ele>65.582984</ele>
        <time>2022-12-23T13:07:03.750Z</time>
      </trkpt>
      <trkpt lat="45.0797" lon="-1.0461">
        <ele>65.667745</ele>
        <time>2022-12-23T13:07:06.752Z</time>
      </trkpt>
      <trkpt lat="45.07961" lon="-1.04609">
        <ele>65.744617</ele>
        <time>2022-12-23T13:07:09.758Z</time>
      </trkpt>
      <trkpt lat="45.0795" lon="-1.0461">
        <ele>65.827929</ele>
        <time>2022-12-23T13:07:12.741Z</time>
      </trkpt>
      <trkpt lat="45.07939" lon="-1.04611">
        <ele>65.918454</ele>
        <time>2022-12-23T13:07:15.760Z</time>
      </trkpt>
      <trkpt lat="45.07928" lon="-1.04611">
        <ele>65.970864</ele>
        <time>2022-12-23T13:07:18.754Z</time>
      </trkpt>
      <trkpt lat="45.07916" lon="-1.04611">
        <ele>65.747124</ele>
        <time>2022-12-23T13:07:21.748Z</time>
      </trkpt>
      <trkpt lat="45.07904" lon="-1.04611">
        <ele>65.513674</ele>
        <time>2022-12-23T13:07:24.750Z</time>
      </trkpt>
      <trkpt lat="45.07894" lon="-1.04611">
        <ele>65.315236</ele>
        <time>2022-12-23T13:07:27.764Z</time>
      </trkpt>
      <trkpt lat="45.07883" lon="-1.04611">
        <ele>65.09339</ele>
        <time>2022-12-23T13:07:31.755Z</time>
      </trkpt>
      <trkpt lat="45.07873" lon="-1.0461">
        <ele>64.904439</ele>
        <time>2022-12-23T13:07:35.754Z</time>
      </trkpt>
      <trkpt lat="45.07861" lon="-1.04609">
        <ele>64.68011</ele>
        <time>2022-12-23T13:07:39.754Z</time>
      </trkpt>
      <trkpt lat="45.07852" lon="-1.04608">
        <ele>64.500794</ele>
        <time>2022-12-23T13:07:42.752Z</time>
      </trkpt>
      <trkpt lat="45.07841" lon="-1.04608">
        <ele>64.279012</ele>
        <time>2022-12-23T13:07:46.755Z</time>
      </trkpt>
      <trkpt lat="45.0783" lon="-1.04609">
        <ele>64.075776</ele>
        <time>2022-12-23T13:07:50.735Z</time>
      </trkpt>
      <trkpt lat="45.07823" lon="-1.04618">
        <ele>63.887789</ele>
        <time>2022-12-23T13:07:55.735Z</time>
      </trkpt>
      <trkpt lat="45.07823" lon="-1.04623">
        <ele>63.821392</ele>
        <time>2022-12-23T13:08:07.393Z</time>
      </trkpt>
      <trkpt lat="45.07815" lon="-1.04613">
        <ele>63.622849</ele>
        <time>2022-12-23T13:48:31.738Z</time>
      </trkpt>
      <trkpt lat="45.07806" lon="-1.04605">
        <ele>63.417575</ele>
        <time>2022-12-23T13:48:35.752Z</time>
      </trkpt>
      <trkpt lat="45.07796" lon="-1.04602">
        <ele>63.216192</ele>
        <time>2022-12-23T13:48:39.751Z</time>
      </trkpt>
      <trkpt lat="45.07785" lon="-1.04599">
        <ele>62.987645</ele>
        <time>2022-12-23T13:48:43.741Z</time>
      </trkpt>
      <trkpt lat="45.07775" lon="-1.04596">
        <ele>62.7975</ele>
        <time>2022-12-23T13:48:46.733Z</time>
      </trkpt>
      <trkpt lat="45.07764" lon="-1.04593">
        <ele>62.57057</ele>
        <time>2022-12-23T13:48:50.755Z</time>
      </trkpt>
      <trkpt lat="45.07753" lon="-1.0459">
        <ele>62.523641</ele>
        <time>2022-12-23T13:48:54.757Z</time>
      </trkpt>
      <trkpt lat="45.07743" lon="-1.04587">
        <ele>62.555988</ele>
        <time>2022-12-23T13:48:57.741Z</time>
      </trkpt>
      <trkpt lat="45.07734" lon="-1.04584">
        <ele>62.586986</ele>
        <time>2022-12-23T13:49:00.753Z</time>
      </trkpt>
      <trkpt lat="45.07724" lon="-1.0458">
        <ele>62.618756</ele>
        <time>2022-12-23T13:49:03.728Z</time>
      </trkpt>
      <trkpt lat="45.07714" lon="-1.04577">
        <ele>62.652565</ele>
        <time>2022-12-23T13:49:06.732Z</time>
      </trkpt>
      <trkpt lat="45.07704" lon="-1.04574">
        <ele>62.686394</ele>
        <time>2022-12-23T13:49:09.735Z</time>
      </trkpt>
      <trkpt lat="45.07694" lon="-1.04571">
        <ele>62.718645</ele>
        <time>2022-12-23T13:49:12.756Z</time>
      </trkpt>
      <trkpt lat="45.07684" lon="-1.04568">
        <ele>62.751203</ele>
        <time>2022-12-23T13:49:15.752Z</time>
      </trkpt>
      <trkpt lat="45.07674" lon="-1.04565">
        <ele>62.782461</ele>
        <time>2022-12-23T13:49:18.738Z</time>
      </trkpt>
      <trkpt lat="45.07664" lon="-1.04562">
        <ele>62.816606</ele>
        <time>2022-12-23T13:49:21.754Z</time>
      </trkpt>
      <trkpt lat="45.07653" lon="-1.04559">
        <ele>62.851428</ele>
        <time>2022-12-23T13:49:24.754Z</time>
      </trkpt>
      <trkpt lat="45.07643" lon="-1.04556">
        <ele>62.885448</ele>
        <time>2022-12-23T13:49:27.753Z</time>
      </trkpt>
      <trkpt lat="45.07634" lon="-1.04553">
        <ele>62.916539</ele>
        <time>2022-12-23T13:49:30.756Z</time>
      </trkpt>
      <trkpt lat="45.07624" lon="-1.04551">
        <ele>62.948657</ele>
        <time>2022-12-23T13:49:33.752Z</time>
      </trkpt>
      <trkpt lat="45.07614" lon="-1.04547">
        <ele>62.981369</ele>
        <time>2022-12-23T13:49:36.733Z</time>
      </trkpt>
      <trkpt lat="45.07604" lon="-1.04544">
        <ele>63.013191</ele>
        <time>2022-12-23T13:49:39.753Z</time>
      </trkpt>
      <trkpt lat="45.07594" lon="-1.04541">
        <ele>63.048203</ele>
        <time>2022-12-23T13:49:42.755Z</time>
      </trkpt>
      <trkpt lat="45.07583" lon="-1.04537">
        <ele>63.089929</ele>
        <time>2022-12-23T13:49:45.757Z</time>
      </trkpt>
      <trkpt lat="45.07572" lon="-1.04535">
        <ele>63.180108</ele>
        <time>2022-12-23T13:49:48.752Z</time>
      </trkpt>
      <trkpt lat="45.07561" lon="-1.04531">
        <ele>63.266015</ele>
        <time>2022-12-23T13:49:51.809Z</time>
      </trkpt>
      <trkpt lat="45.07552" lon="-1.04528">
        <ele>63.342564</ele>
        <time>2022-12-23T13:49:54.733Z</time>
      </trkpt>
      <trkpt lat="45.07543" lon="-1.04525">
        <ele>63.418731</ele>
        <time>2022-12-23T13:49:57.744Z</time>
      </trkpt>
      <trkpt lat="45.07532" lon="-1.04522">
        <ele>63.504758</ele>
        <time>2022-12-23T13:50:00.753Z</time>
      </trkpt>
      <trkpt lat="45.07522" lon="-1.04518">
        <ele>63.591945</ele>
        <time>2022-12-23T13:50:03.740Z</time>
      </trkpt>
      <trkpt lat="45.07512" lon="-1.04516">
        <ele>63.673166</ele>
        <time>2022-12-23T13:50:06.740Z</time>
      </trkpt>
      <trkpt lat="45.07502" lon="-1.04513">
        <ele>63.755293</ele>
        <time>2022-12-23T13:50:10.736Z</time>
      </trkpt>
      <trkpt lat="45.0749" lon="-1.04509">
        <ele>63.85094</ele>
        <time>2022-12-23T13:50:14.748Z</time>
      </trkpt>
      <trkpt lat="45.0748" lon="-1.04506">
        <ele>63.929572</ele>
        <time>2022-12-23T13:50:17.753Z</time>
      </trkpt>
      <trkpt lat="45.07471" lon="-1.04502">
        <ele>64.010223</ele>
        <time>2022-12-23T13:50:20.753Z</time>
      </trkpt>
      <trkpt lat="45.07461" lon="-1.045">
        <ele>64.09056</ele>
        <time>2022-12-23T13:50:23.745Z</time>
      </trkpt>
      <trkpt lat="45.07451" lon="-1.04498">
        <ele>64.173714</ele>
        <time>2022-12-23T13:50:26.755Z</time>
      </trkpt>
      <trkpt lat="45.0744" lon="-1.04496">
        <ele>64.260568</ele>
        <time>2022-12-23T13:50:29.751Z</time>
      </trkpt>
      <trkpt lat="45.07429" lon="-1.04496">
        <ele>64.348616</ele>
        <time>2022-12-23T13:50:32.748Z</time>
      </trkpt>
      <trkpt lat="45.07418" lon="-1.04495">
        <ele>64.433429</ele>
        <time>2022-12-23T13:50:35.752Z</time>
      </trkpt>
      <trkpt lat="45.07407" lon="-1.04496">
        <ele>64.521089</ele>
        <time>2022-12-23T13:50:38.737Z</time>
      </trkpt>
      <trkpt lat="45.07396" lon="-1.045">
        <ele>64.598543</ele>
        <time>2022-12-23T13:50:41.754Z</time>
      </trkpt>
      <trkpt lat="45.07385" lon="-1.04504">
        <ele>64.677459</ele>
        <time>2022-12-23T13:50:44.758Z</time>
      </trkpt>
      <trkpt lat="45.07375" lon="-1.04509">
        <ele>64.754436</ele>
        <time>2022-12-23T13:50:47.752Z</time>
      </trkpt>
      <trkpt lat="45.07364" lon="-1.04512">
        <ele>64.829744</ele>
        <time>2022-12-23T13:50:50.756Z</time>
      </trkpt>
      <trkpt lat="45.07355" lon="-1.04516">
        <ele>64.898614</ele>
        <time>2022-12-23T13:50:53.757Z</time>
      </trkpt>
      <trkpt lat="45.07346" lon="-1.04521">
        <ele>64.965756</ele>
        <time>2022-12-23T13:50:56.738Z</time>
      </trkpt>
      <trkpt lat="45.07336" lon="-1.04525">
        <ele>65.038128</ele>
        <time>2022-12-23T13:50:59.747Z</time>
      </trkpt>
      <trkpt lat="45.07325" lon="-1.0453">
        <ele>65.114448</ele>
        <time>2022-12-23T13:51:02.750Z</time>
      </trkpt>
      <trkpt lat="45.07314" lon="-1.04535">
        <ele>65.194432</ele>
        <time>2022-12-23T13:51:05.755Z</time>
      </trkpt>
      <trkpt lat="45.07303" lon="-1.0454">
        <ele>65.276552</ele>
        <time>2022-12-23T13:51:08.752Z</time>
      </trkpt>
      <trkpt lat="45.07292" lon="-1.04545">
        <ele>65.360083</ele>
        <time>2022-12-23T13:51:11.742Z</time>
      </trkpt>
      <trkpt lat="45.0728" lon="-1.0455">
        <ele>65.445149</ele>
        <time>2022-12-23T13:51:14.739Z</time>
      </trkpt>
      <trkpt lat="45.07268" lon="-1.04555">
        <ele>65.529931</ele>
        <time>2022-12-23T13:51:17.754Z</time>
      </trkpt>
      <trkpt lat="45.07256" lon="-1.0456">
        <ele>65.615661</ele>
        <time>2022-12-23T13:51:20.752Z</time>
      </trkpt>
      <trkpt lat="45.07245" lon="-1.04565">
        <ele>65.700872</ele>
        <time>2022-12-23T13:51:23.753Z</time>
      </trkpt>
      <trkpt lat="45.07233" lon="-1.04571">
        <ele>65.783422</ele>
        <time>2022-12-23T13:51:26.763Z</time>
      </trkpt>
      <trkpt lat="45.0722" lon="-1.04578">
        <ele>65.849566</ele>
        <time>2022-12-23T13:51:29.743Z</time>
      </trkpt>
      <trkpt lat="45.07209" lon="-1.04583">
        <ele>65.911481</ele>
        <time>2022-12-23T13:51:32.739Z</time>
      </trkpt>
      <trkpt lat="45.07197" lon="-1.04587">
        <ele>65.971831</ele>
        <time>2022-12-23T13:51:35.756Z</time>
      </trkpt>
      <trkpt lat="45.07186" lon="-1.04591">
        <ele>66.030528</ele>
        <time>2022-12-23T13:51:38.746Z</time>
      </trkpt>
      <trkpt lat="45.07175" lon="-1.04595">
        <ele>66.089135</ele>
        <time>2022-12-23T13:51:41.756Z</time>
      </trkpt>
      <trkpt lat="45.07163" lon="-1.046">
        <ele>66.149287</ele>
        <time>2022-12-23T13:51:44.753Z</time>
      </trkpt>
      <trkpt lat="45.07151" lon="-1.04605">
        <ele>66.213145</ele>
        <time>2022-12-23T13:51:47.738Z</time>
      </trkpt>
      <trkpt lat="45.0714" lon="-1.0461">
        <ele>66.274091</ele>
        <time>2022-12-23T13:51:50.752Z</time>
      </trkpt>
      <trkpt lat="45.07128" lon="-1.04615">
        <ele>66.337752</ele>
        <time>2022-12-23T13:51:53.754Z</time>
      </trkpt>
      <trkpt lat="45.07116" lon="-1.0462">
        <ele>66.400801</ele>
        <time>2022-12-23T13:51:56.758Z</time>
      </trkpt>
      <trkpt lat="45.07103" lon="-1.04625">
        <ele>66.466606</ele>
        <time>2022-12-23T13:51:59.752Z</time>
      </trkpt>
      <trkpt lat="45.07091" lon="-1.04631">
        <ele>66.532711</ele>
        <time>2022-12-23T13:52:02.756Z</time>
      </trkpt>
      <trkpt lat="45.07079" lon="-1.04636">
        <ele>66.596083</ele>
        <time>2022-12-23T13:52:05.753Z</time>
      </trkpt>
      <trkpt lat="45.07067" lon="-1.04641">
        <ele>66.658692</ele>
        <time>2022-12-23T13:52:08.738Z</time>
      </trkpt>
      <trkpt lat="45.07055" lon="-1.04646">
        <ele>66.721322</ele>
        <time>2022-12-23T13:52:11.753Z</time>
      </trkpt>
      <trkpt lat="45.07045" lon="-1.0465">
        <ele>66.766495</ele>
        <time>2022-12-23T13:52:13.753Z</time>
      </trkpt>
      <trkpt lat="45.07033" lon="-1.04656">
        <ele>66.829133</ele>
        <time>2022-12-23T13:52:16.789Z</time>
      </trkpt>
      <trkpt lat="45.0702" lon="-1.04662">
        <ele>66.891456</ele>
        <time>2022-12-23T13:52:19.753Z</time>
      </trkpt>
      <trkpt lat="45.07012" lon="-1.04666">
        <ele>66.934381</ele>
        <time>2022-12-23T13:52:21.759Z</time>
      </trkpt>
      <trkpt lat="45.07003" lon="-1.0467">
        <ele>66.976961</ele>
        <time>2022-12-23T13:52:23.754Z</time>
      </trkpt>
      <trkpt lat="45.06994" lon="-1.04674">
        <ele>67.020307</ele>
        <time>2022-12-23T13:52:25.754Z</time>
      </trkpt>
      <trkpt lat="45.06985" lon="-1.04678">
        <ele>67.065032</ele>
        <time>2022-12-23T13:52:27.754Z</time>
      </trkpt>
      <trkpt lat="45.06972" lon="-1.04683">
        <ele>67.129211</ele>
        <time>2022-12-23T13:52:30.756Z</time>
      </trkpt>
      <trkpt lat="45.06963" lon="-1.04688">
        <ele>67.173132</ele>
        <time>2022-12-23T13:52:32.754Z</time>
      </trkpt>
      <trkpt lat="45.06951" lon="-1.04693">
        <ele>67.234232</ele>
        <time>2022-12-23T13:52:35.753Z</time>
      </trkpt>
      <trkpt lat="45.06938" lon="-1.04699">
        <ele>67.29687</ele>
        <time>2022-12-23T13:52:38.752Z</time>
      </trkpt>
      <trkpt lat="45.06926" lon="-1.04706">
        <ele>67.359616</ele>
        <time>2022-12-23T13:52:41.757Z</time>
      </trkpt>
      <trkpt lat="45.06917" lon="-1.0471">
        <ele>67.404436</ele>
        <time>2022-12-23T13:52:43.737Z</time>
      </trkpt>
      <trkpt lat="45.06904" lon="-1.04716">
        <ele>67.467309</ele>
        <time>2022-12-23T13:52:46.750Z</time>
      </trkpt>
      <trkpt lat="45.06895" lon="-1.0472">
        <ele>67.511334</ele>
        <time>2022-12-23T13:52:48.756Z</time>
      </trkpt>
      <trkpt lat="45.06886" lon="-1.04724">
        <ele>67.472626</ele>
        <time>2022-12-23T13:52:50.753Z</time>
      </trkpt>
      <trkpt lat="45.06873" lon="-1.04729">
        <ele>67.369333</ele>
        <time>2022-12-23T13:52:53.756Z</time>
      </trkpt>
      <trkpt lat="45.06861" lon="-1.04734">
        <ele>67.276122</ele>
        <time>2022-12-23T13:52:56.751Z</time>
      </trkpt>
      <trkpt lat="45.06849" lon="-1.04739">
        <ele>67.183335</ele>
        <time>2022-12-23T13:52:59.754Z</time>
      </trkpt>
      <trkpt lat="45.06837" lon="-1.04745">
        <ele>67.084018</ele>
        <time>2022-12-23T13:53:02.743Z</time>
      </trkpt>
      <trkpt lat="45.06828" lon="-1.04749">
        <ele>67.013125</ele>
        <time>2022-12-23T13:53:04.747Z</time>
      </trkpt>
      <trkpt lat="45.06818" lon="-1.04753">
        <ele>66.93829</ele>
        <time>2022-12-23T13:53:06.755Z</time>
      </trkpt>
      <trkpt lat="45.0681" lon="-1.04757">
        <ele>66.870114</ele>
        <time>2022-12-23T13:53:08.744Z</time>
      </trkpt>
      <trkpt lat="45.06801" lon="-1.04761">
        <ele>66.800831</ele>
        <time>2022-12-23T13:53:10.743Z</time>
      </trkpt>
      <trkpt lat="45.06788" lon="-1.04766">
        <ele>66.699274</ele>
        <time>2022-12-23T13:53:13.742Z</time>
      </trkpt>
      <trkpt lat="45.06779" lon="-1.04771">
        <ele>66.628217</ele>
        <time>2022-12-23T13:53:15.741Z</time>
      </trkpt>
      <trkpt lat="45.0677" lon="-1.04775">
        <ele>66.554492</ele>
        <time>2022-12-23T13:53:17.741Z</time>
      </trkpt>
      <trkpt lat="45.06758" lon="-1.0478">
        <ele>66.457285</ele>
        <time>2022-12-23T13:53:20.761Z</time>
      </trkpt>
      <trkpt lat="45.06749" lon="-1.04784">
        <ele>66.388305</ele>
        <time>2022-12-23T13:53:22.747Z</time>
      </trkpt>
      <trkpt lat="45.06741" lon="-1.04788">
        <ele>66.318509</ele>
        <time>2022-12-23T13:53:24.753Z</time>
      </trkpt>
      <trkpt lat="45.06728" lon="-1.04794">
        <ele>66.218969</ele>
        <time>2022-12-23T13:53:27.758Z</time>
      </trkpt>
      <trkpt lat="45.06715" lon="-1.04798">
        <ele>66.117698</ele>
        <time>2022-12-23T13:53:30.757Z</time>
      </trkpt>
      <trkpt lat="45.06706" lon="-1.04802">
        <ele>66.045887</ele>
        <time>2022-12-23T13:53:32.758Z</time>
      </trkpt>
      <trkpt lat="45.06697" lon="-1.04807">
        <ele>65.976859</ele>
        <time>2022-12-23T13:53:34.749Z</time>
      </trkpt>
      <trkpt lat="45.06684" lon="-1.04811">
        <ele>65.875388</ele>
        <time>2022-12-23T13:53:37.748Z</time>
      </trkpt>
      <trkpt lat="45.06676" lon="-1.04815">
        <ele>65.806867</ele>
        <time>2022-12-23T13:53:39.756Z</time>
      </trkpt>
      <trkpt lat="45.06666" lon="-1.04819">
        <ele>65.734447</ele>
        <time>2022-12-23T13:53:41.754Z</time>
      </trkpt>
      <trkpt lat="45.06654" lon="-1.04826">
        <ele>65.63301</ele>
        <time>2022-12-23T13:53:44.755Z</time>
      </trkpt>
      <trkpt lat="45.06642" lon="-1.04832">
        <ele>65.538781</ele>
        <time>2022-12-23T13:53:47.757Z</time>
      </trkpt>
      <trkpt lat="45.06629" lon="-1.04837">
        <ele>65.439367</ele>
        <time>2022-12-23T13:53:50.754Z</time>
      </trkpt>
      <trkpt lat="45.0662" lon="-1.04841">
        <ele>65.371004</ele>
        <time>2022-12-23T13:53:52.745Z</time>
      </trkpt>
      <trkpt lat="45.06611" lon="-1.04844">
        <ele>65.300059</ele>
        <time>2022-12-23T13:53:54.754Z</time>
      </trkpt>
      <trkpt lat="45.06602" lon="-1.04849">
        <ele>65.227684</ele>
        <time>2022-12-23T13:53:56.758Z</time>
      </trkpt>
      <trkpt lat="45.06593" lon="-1.04853">
        <ele>65.157571</ele>
        <time>2022-12-23T13:53:58.752Z</time>
      </trkpt>
      <trkpt lat="45.06581" lon="-1.04859">
        <ele>65.058806</ele>
        <time>2022-12-23T13:54:01.748Z</time>
      </trkpt>
      <trkpt lat="45.06569" lon="-1.04865">
        <ele>64.960915</ele>
        <time>2022-12-23T13:54:04.751Z</time>
      </trkpt>
      <trkpt lat="45.06556" lon="-1.04871">
        <ele>64.864452</ele>
        <time>2022-12-23T13:54:07.744Z</time>
      </trkpt>
      <trkpt lat="45.06544" lon="-1.04877">
        <ele>64.852821</ele>
        <time>2022-12-23T13:54:10.733Z</time>
      </trkpt>
      <trkpt lat="45.06532" lon="-1.04883">
        <ele>64.949545</ele>
        <time>2022-12-23T13:54:13.748Z</time>
      </trkpt>
      <trkpt lat="45.06519" lon="-1.04889">
        <ele>65.050697</ele>
        <time>2022-12-23T13:54:16.734Z</time>
      </trkpt>
      <trkpt lat="45.0651" lon="-1.04893">
        <ele>65.119292</ele>
        <time>2022-12-23T13:54:18.753Z</time>
      </trkpt>
      <trkpt lat="45.06497" lon="-1.04898">
        <ele>65.220257</ele>
        <time>2022-12-23T13:54:21.734Z</time>
      </trkpt>
      <trkpt lat="45.06488" lon="-1.04902">
        <ele>65.289832</ele>
        <time>2022-12-23T13:54:23.750Z</time>
      </trkpt>
      <trkpt lat="45.0648" lon="-1.04906">
        <ele>65.359274</ele>
        <time>2022-12-23T13:54:25.753Z</time>
      </trkpt>
      <trkpt lat="45.06468" lon="-1.04912">
        <ele>65.455842</ele>
        <time>2022-12-23T13:54:28.748Z</time>
      </trkpt>
      <trkpt lat="45.06456" lon="-1.04917">
        <ele>65.546425</ele>
        <time>2022-12-23T13:54:31.746Z</time>
      </trkpt>
      <trkpt lat="45.06445" lon="-1.04922">
        <ele>65.629918</ele>
        <time>2022-12-23T13:54:34.747Z</time>
      </trkpt>
      <trkpt lat="45.06435" lon="-1.04927">
        <ele>65.714287</ele>
        <time>2022-12-23T13:54:37.740Z</time>
      </trkpt>
      <trkpt lat="45.06424" lon="-1.04931">
        <ele>65.802094</ele>
        <time>2022-12-23T13:54:40.753Z</time>
      </trkpt>
      <trkpt lat="45.06412" lon="-1.04936">
        <ele>65.895551</ele>
        <time>2022-12-23T13:54:43.754Z</time>
      </trkpt>
      <trkpt lat="45.06399" lon="-1.04942">
        <ele>65.992611</ele>
        <time>2022-12-23T13:54:46.756Z</time>
      </trkpt>
      <trkpt lat="45.06387" lon="-1.04947">
        <ele>66.090607</ele>
        <time>2022-12-23T13:54:49.747Z</time>
      </trkpt>
      <trkpt lat="45.06375" lon="-1.04953">
        <ele>66.158209</ele>
        <time>2022-12-23T13:54:52.759Z</time>
      </trkpt>
      <trkpt lat="45.06364" lon="-1.04958">
        <ele>66.147684</ele>
        <time>2022-12-23T13:54:55.740Z</time>
      </trkpt>
      <trkpt lat="45.06353" lon="-1.04964">
        <ele>66.137265</ele>
        <time>2022-12-23T13:54:58.735Z</time>
      </trkpt>
      <trkpt lat="45.06341" lon="-1.0497">
        <ele>66.12606</ele>
        <time>2022-12-23T13:55:01.751Z</time>
      </trkpt>
      <trkpt lat="45.06329" lon="-1.04975">
        <ele>66.115016</ele>
        <time>2022-12-23T13:55:04.747Z</time>
      </trkpt>
      <trkpt lat="45.06317" lon="-1.0498">
        <ele>66.103971</ele>
        <time>2022-12-23T13:55:07.757Z</time>
      </trkpt>
      <trkpt lat="45.06304" lon="-1.04986">
        <ele>66.092358</ele>
        <time>2022-12-23T13:55:10.738Z</time>
      </trkpt>
      <trkpt lat="45.06291" lon="-1.04991">
        <ele>66.080903</ele>
        <time>2022-12-23T13:55:13.746Z</time>
      </trkpt>
      <trkpt lat="45.06279" lon="-1.04997">
        <ele>66.069727</ele>
        <time>2022-12-23T13:55:16.759Z</time>
      </trkpt>
      <trkpt lat="45.06267" lon="-1.05002">
        <ele>66.058311</ele>
        <time>2022-12-23T13:55:19.756Z</time>
      </trkpt>
      <trkpt lat="45.06254" lon="-1.05008">
        <ele>66.046792</ele>
        <time>2022-12-23T13:55:22.744Z</time>
      </trkpt>
      <trkpt lat="45.06243" lon="-1.05013">
        <ele>66.036342</ele>
        <time>2022-12-23T13:55:25.760Z</time>
      </trkpt>
      <trkpt lat="45.06232" lon="-1.05018">
        <ele>66.026274</ele>
        <time>2022-12-23T13:55:28.752Z</time>
      </trkpt>
      <trkpt lat="45.06221" lon="-1.05023">
        <ele>66.015974</ele>
        <time>2022-12-23T13:55:31.750Z</time>
      </trkpt>
      <trkpt lat="45.0621" lon="-1.05028">
        <ele>66.005589</ele>
        <time>2022-12-23T13:55:34.756Z</time>
      </trkpt>
      <trkpt lat="45.06198" lon="-1.05033">
        <ele>66.116676</ele>
        <time>2022-12-23T13:55:37.750Z</time>
      </trkpt>
      <trkpt lat="45.06187" lon="-1.05038">
        <ele>66.261638</ele>
        <time>2022-12-23T13:55:40.752Z</time>
      </trkpt>
      <trkpt lat="45.06175" lon="-1.05043">
        <ele>66.409597</ele>
        <time>2022-12-23T13:55:43.756Z</time>
      </trkpt>
      <trkpt lat="45.06163" lon="-1.05048">
        <ele>66.567105</ele>
        <time>2022-12-23T13:55:46.756Z</time>
      </trkpt>
      <trkpt lat="45.06151" lon="-1.05053">
        <ele>66.720825</ele>
        <time>2022-12-23T13:55:49.755Z</time>
      </trkpt>
      <trkpt lat="45.06139" lon="-1.05059">
        <ele>66.871395</ele>
        <time>2022-12-23T13:55:52.758Z</time>
      </trkpt>
      <trkpt lat="45.06131" lon="-1.05063">
        <ele>66.984891</ele>
        <time>2022-12-23T13:55:54.755Z</time>
      </trkpt>
      <trkpt lat="45.06118" lon="-1.05067">
        <ele>67.14322</ele>
        <time>2022-12-23T13:55:57.753Z</time>
      </trkpt>
      <trkpt lat="45.06105" lon="-1.05074">
        <ele>67.311189</ele>
        <time>2022-12-23T13:56:00.752Z</time>
      </trkpt>
      <trkpt lat="45.06092" lon="-1.05079">
        <ele>67.475809</ele>
        <time>2022-12-23T13:56:03.743Z</time>
      </trkpt>
      <trkpt lat="45.0608" lon="-1.05084">
        <ele>67.639155</ele>
        <time>2022-12-23T13:56:06.755Z</time>
      </trkpt>
      <trkpt lat="45.06068" lon="-1.05091">
        <ele>67.796087</ele>
        <time>2022-12-23T13:56:09.754Z</time>
      </trkpt>
      <trkpt lat="45.06055" lon="-1.05096">
        <ele>67.957993</ele>
        <time>2022-12-23T13:56:12.756Z</time>
      </trkpt>
      <trkpt lat="45.06047" lon="-1.05101">
        <ele>68.071457</ele>
        <time>2022-12-23T13:56:14.754Z</time>
      </trkpt>
      <trkpt lat="45.06034" lon="-1.05107">
        <ele>68.198276</ele>
        <time>2022-12-23T13:56:17.748Z</time>
      </trkpt>
      <trkpt lat="45.06025" lon="-1.0511">
        <ele>68.021197</ele>
        <time>2022-12-23T13:56:19.759Z</time>
      </trkpt>
      <trkpt lat="45.06017" lon="-1.05114">
        <ele>67.848694</ele>
        <time>2022-12-23T13:56:21.756Z</time>
      </trkpt>
      <trkpt lat="45.06004" lon="-1.05121">
        <ele>67.606198</ele>
        <time>2022-12-23T13:56:24.759Z</time>
      </trkpt>
      <trkpt lat="45.05996" lon="-1.05125">
        <ele>67.434094</ele>
        <time>2022-12-23T13:56:26.755Z</time>
      </trkpt>
      <trkpt lat="45.05983" lon="-1.05131">
        <ele>67.193895</ele>
        <time>2022-12-23T13:56:29.753Z</time>
      </trkpt>
      <trkpt lat="45.05971" lon="-1.05137">
        <ele>66.949738</ele>
        <time>2022-12-23T13:56:32.756Z</time>
      </trkpt>
      <trkpt lat="45.05959" lon="-1.05142">
        <ele>66.709539</ele>
        <time>2022-12-23T13:56:35.753Z</time>
      </trkpt>
      <trkpt lat="45.05947" lon="-1.05148">
        <ele>66.47314</ele>
        <time>2022-12-23T13:56:38.753Z</time>
      </trkpt>
      <trkpt lat="45.05935" lon="-1.05153">
        <ele>66.24248</ele>
        <time>2022-12-23T13:56:41.754Z</time>
      </trkpt>
      <trkpt lat="45.05923" lon="-1.05159">
        <ele>66.00671</ele>
        <time>2022-12-23T13:56:44.752Z</time>
      </trkpt>
      <trkpt lat="45.05911" lon="-1.05164">
        <ele>65.777433</ele>
        <time>2022-12-23T13:56:47.751Z</time>
      </trkpt>
      <trkpt lat="45.05899" lon="-1.0517">
        <ele>65.536684</ele>
        <time>2022-12-23T13:56:50.757Z</time>
      </trkpt>
      <trkpt lat="45.05887" lon="-1.05175">
        <ele>65.291578</ele>
        <time>2022-12-23T13:56:53.754Z</time>
      </trkpt>
      <trkpt lat="45.05874" lon="-1.0518">
        <ele>65.054888</ele>
        <time>2022-12-23T13:56:56.752Z</time>
      </trkpt>
      <trkpt lat="45.05863" lon="-1.05186">
        <ele>64.851515</ele>
        <time>2022-12-23T13:56:59.752Z</time>
      </trkpt>
      <trkpt lat="45.05852" lon="-1.05191">
        <ele>64.791245</ele>
        <time>2022-12-23T13:57:02.755Z</time>
      </trkpt>
      <trkpt lat="45.05841" lon="-1.05195">
        <ele>64.732376</ele>
        <time>2022-12-23T13:57:05.750Z</time>
      </trkpt>
      <trkpt lat="45.05831" lon="-1.052">
        <ele>64.673403</ele>
        <time>2022-12-23T13:57:08.754Z</time>
      </trkpt>
      <trkpt lat="45.0582" lon="-1.05205">
        <ele>64.613871</ele>
        <time>2022-12-23T13:57:11.753Z</time>
      </trkpt>
      <trkpt lat="45.0581" lon="-1.0521">
        <ele>64.555099</ele>
        <time>2022-12-23T13:57:14.752Z</time>
      </trkpt>
      <trkpt lat="45.05799" lon="-1.05215">
        <ele>64.494789</ele>
        <time>2022-12-23T13:57:17.753Z</time>
      </trkpt>
      <trkpt lat="45.05788" lon="-1.0522">
        <ele>64.436639</ele>
        <time>2022-12-23T13:57:20.750Z</time>
      </trkpt>
      <trkpt lat="45.05778" lon="-1.05225">
        <ele>64.377557</ele>
        <time>2022-12-23T13:57:23.737Z</time>
      </trkpt>
      <trkpt lat="45.05768" lon="-1.05229">
        <ele>64.323855</ele>
        <time>2022-12-23T13:57:26.754Z</time>
      </trkpt>
      <trkpt lat="45.05758" lon="-1.05233">
        <ele>64.270371</ele>
        <time>2022-12-23T13:57:29.748Z</time>
      </trkpt>
      <trkpt lat="45.05748" lon="-1.05238">
        <ele>64.214462</ele>
        <time>2022-12-23T13:57:32.742Z</time>
      </trkpt>
      <trkpt lat="45.05738" lon="-1.05242">
        <ele>64.15852</ele>
        <time>2022-12-23T13:57:35.753Z</time>
      </trkpt>
      <trkpt lat="45.05728" lon="-1.05247">
        <ele>64.103232</ele>
        <time>2022-12-23T13:57:38.744Z</time>
      </trkpt>
      <trkpt lat="45.05718" lon="-1.05252">
        <ele>64.048913</ele>
        <time>2022-12-23T13:57:41.755Z</time>
      </trkpt>
      <trkpt lat="45.05709" lon="-1.05256">
        <ele>63.994481</ele>
        <time>2022-12-23T13:57:44.760Z</time>
      </trkpt>
      <trkpt lat="45.05698" lon="-1.0526">
        <ele>63.938461</ele>
        <time>2022-12-23T13:57:47.753Z</time>
      </trkpt>
      <trkpt lat="45.05689" lon="-1.05265">
        <ele>63.908268</ele>
        <time>2022-12-23T13:57:50.743Z</time>
      </trkpt>
      <trkpt lat="45.05679" lon="-1.05269">
        <ele>63.905657</ele>
        <time>2022-12-23T13:57:53.732Z</time>
      </trkpt>
      <trkpt lat="45.0567" lon="-1.05273">
        <ele>63.902978</ele>
        <time>2022-12-23T13:57:56.752Z</time>
      </trkpt>
      <trkpt lat="45.0566" lon="-1.05278">
        <ele>63.900192</ele>
        <time>2022-12-23T13:57:59.754Z</time>
      </trkpt>
      <trkpt lat="45.0565" lon="-1.05282">
        <ele>63.897463</ele>
        <time>2022-12-23T13:58:02.754Z</time>
      </trkpt>
      <trkpt lat="45.0564" lon="-1.05286">
        <ele>63.894604</ele>
        <time>2022-12-23T13:58:05.768Z</time>
      </trkpt>
      <trkpt lat="45.0563" lon="-1.05291">
        <ele>63.891703</ele>
        <time>2022-12-23T13:58:08.760Z</time>
      </trkpt>
      <trkpt lat="45.0562" lon="-1.05295">
        <ele>63.889004</ele>
        <time>2022-12-23T13:58:11.752Z</time>
      </trkpt>
      <trkpt lat="45.05611" lon="-1.053">
        <ele>63.886256</ele>
        <time>2022-12-23T13:58:14.753Z</time>
      </trkpt>
      <trkpt lat="45.05601" lon="-1.05304">
        <ele>63.883506</ele>
        <time>2022-12-23T13:58:17.756Z</time>
      </trkpt>
      <trkpt lat="45.05591" lon="-1.05308">
        <ele>63.880821</ele>
        <time>2022-12-23T13:58:20.733Z</time>
      </trkpt>
      <trkpt lat="45.05582" lon="-1.05313">
        <ele>63.878226</ele>
        <time>2022-12-23T13:58:23.762Z</time>
      </trkpt>
      <trkpt lat="45.05573" lon="-1.05317">
        <ele>63.875712</ele>
        <time>2022-12-23T13:58:26.754Z</time>
      </trkpt>
      <trkpt lat="45.05564" lon="-1.05321">
        <ele>63.873174</ele>
        <time>2022-12-23T13:58:29.734Z</time>
      </trkpt>
      <trkpt lat="45.05554" lon="-1.05326">
        <ele>63.870134</ele>
        <time>2022-12-23T13:58:33.752Z</time>
      </trkpt>
      <trkpt lat="45.05545" lon="-1.0533">
        <ele>63.867694</ele>
        <time>2022-12-23T13:58:36.740Z</time>
      </trkpt>
      <trkpt lat="45.05536" lon="-1.05334">
        <ele>63.865077</ele>
        <time>2022-12-23T13:58:39.751Z</time>
      </trkpt>
      <trkpt lat="45.05526" lon="-1.05338">
        <ele>63.862443</ele>
        <time>2022-12-23T13:58:42.729Z</time>
      </trkpt>
      <trkpt lat="45.05517" lon="-1.05343">
        <ele>63.861421</ele>
        <time>2022-12-23T13:58:45.746Z</time>
      </trkpt>
      <trkpt lat="45.05508" lon="-1.05347">
        <ele>63.861851</ele>
        <time>2022-12-23T13:58:48.755Z</time>
      </trkpt>
      <trkpt lat="45.05498" lon="-1.05351">
        <ele>63.862289</ele>
        <time>2022-12-23T13:58:51.754Z</time>
      </trkpt>
      <trkpt lat="45.05488" lon="-1.05356">
        <ele>63.862735</ele>
        <time>2022-12-23T13:58:54.755Z</time>
      </trkpt>
      <trkpt lat="45.05478" lon="-1.0536">
        <ele>63.863182</ele>
        <time>2022-12-23T13:58:57.758Z</time>
      </trkpt>
      <trkpt lat="45.05468" lon="-1.05365">
        <ele>63.863634</ele>
        <time>2022-12-23T13:59:00.753Z</time>
      </trkpt>
      <trkpt lat="45.05458" lon="-1.05369">
        <ele>63.864072</ele>
        <time>2022-12-23T13:59:03.755Z</time>
      </trkpt>
      <trkpt lat="45.05448" lon="-1.05374">
        <ele>63.864512</ele>
        <time>2022-12-23T13:59:06.732Z</time>
      </trkpt>
      <trkpt lat="45.05438" lon="-1.05378">
        <ele>63.86496</ele>
        <time>2022-12-23T13:59:09.752Z</time>
      </trkpt>
      <trkpt lat="45.05428" lon="-1.05383">
        <ele>63.865414</ele>
        <time>2022-12-23T13:59:12.755Z</time>
      </trkpt>
      <trkpt lat="45.05417" lon="-1.05387">
        <ele>63.86587</ele>
        <time>2022-12-23T13:59:15.754Z</time>
      </trkpt>
      <trkpt lat="45.05407" lon="-1.05392">
        <ele>63.866328</ele>
        <time>2022-12-23T13:59:18.753Z</time>
      </trkpt>
      <trkpt lat="45.05396" lon="-1.05397">
        <ele>63.866814</ele>
        <time>2022-12-23T13:59:21.760Z</time>
      </trkpt>
      <trkpt lat="45.05386" lon="-1.05401">
        <ele>63.867252</ele>
        <time>2022-12-23T13:59:24.754Z</time>
      </trkpt>
      <trkpt lat="45.05376" lon="-1.05405">
        <ele>63.867726</ele>
        <time>2022-12-23T13:59:28.734Z</time>
      </trkpt>
      <trkpt lat="45.05365" lon="-1.05411">
        <ele>63.868218</ele>
        <time>2022-12-23T13:59:32.754Z</time>
      </trkpt>
      <trkpt lat="45.05356" lon="-1.05415">
        <ele>63.868605</ele>
        <time>2022-12-23T13:59:35.753Z</time>
      </trkpt>
      <trkpt lat="45.05347" lon="-1.05419">
        <ele>63.889324</ele>
        <time>2022-12-23T13:59:38.753Z</time>
      </trkpt>
      <trkpt lat="45.05338" lon="-1.05423">
        <ele>63.949403</ele>
        <time>2022-12-23T13:59:41.735Z</time>
      </trkpt>
      <trkpt lat="45.05328" lon="-1.05428">
        <ele>64.009926</ele>
        <time>2022-12-23T13:59:44.761Z</time>
      </trkpt>
      <trkpt lat="45.05319" lon="-1.05432">
        <ele>64.07206</ele>
        <time>2022-12-23T13:59:47.752Z</time>
      </trkpt>
      <trkpt lat="45.05309" lon="-1.05436">
        <ele>64.135999</ele>
        <time>2022-12-23T13:59:50.736Z</time>
      </trkpt>
      <trkpt lat="45.05298" lon="-1.05441">
        <ele>64.204779</ele>
        <time>2022-12-23T13:59:53.749Z</time>
      </trkpt>
      <trkpt lat="45.05287" lon="-1.05446">
        <ele>64.273021</ele>
        <time>2022-12-23T13:59:56.754Z</time>
      </trkpt>
      <trkpt lat="45.05277" lon="-1.0545">
        <ele>64.338433</ele>
        <time>2022-12-23T13:59:59.751Z</time>
      </trkpt>
      <trkpt lat="45.05266" lon="-1.05455">
        <ele>64.40513</ele>
        <time>2022-12-23T14:00:02.752Z</time>
      </trkpt>
      <trkpt lat="45.05256" lon="-1.0546">
        <ele>64.47392</ele>
        <time>2022-12-23T14:00:05.751Z</time>
      </trkpt>
      <trkpt lat="45.05245" lon="-1.05465">
        <ele>64.53959</ele>
        <time>2022-12-23T14:00:08.757Z</time>
      </trkpt>
      <trkpt lat="45.05235" lon="-1.05469">
        <ele>64.605001</ele>
        <time>2022-12-23T14:00:11.751Z</time>
      </trkpt>
      <trkpt lat="45.05225" lon="-1.05474">
        <ele>64.671651</ele>
        <time>2022-12-23T14:00:14.734Z</time>
      </trkpt>
      <trkpt lat="45.05214" lon="-1.05479">
        <ele>64.738929</ele>
        <time>2022-12-23T14:00:17.750Z</time>
      </trkpt>
      <trkpt lat="45.05204" lon="-1.05483">
        <ele>64.802807</ele>
        <time>2022-12-23T14:00:20.752Z</time>
      </trkpt>
      <trkpt lat="45.05194" lon="-1.05488">
        <ele>64.868219</ele>
        <time>2022-12-23T14:00:23.750Z</time>
      </trkpt>
      <trkpt lat="45.05183" lon="-1.05492">
        <ele>64.932734</ele>
        <time>2022-12-23T14:00:26.737Z</time>
      </trkpt>
      <trkpt lat="45.05173" lon="-1.05497">
        <ele>64.943793</ele>
        <time>2022-12-23T14:00:29.754Z</time>
      </trkpt>
      <trkpt lat="45.05162" lon="-1.05501">
        <ele>64.914096</ele>
        <time>2022-12-23T14:00:32.755Z</time>
      </trkpt>
      <trkpt lat="45.05151" lon="-1.05506">
        <ele>64.884377</ele>
        <time>2022-12-23T14:00:35.747Z</time>
      </trkpt>
      <trkpt lat="45.0514" lon="-1.05512">
        <ele>64.854909</ele>
        <time>2022-12-23T14:00:38.736Z</time>
      </trkpt>
      <trkpt lat="45.0513" lon="-1.05516">
        <ele>64.82789</ele>
        <time>2022-12-23T14:00:41.735Z</time>
      </trkpt>
      <trkpt lat="45.0512" lon="-1.0552">
        <ele>64.803092</ele>
        <time>2022-12-23T14:00:44.752Z</time>
      </trkpt>
      <trkpt lat="45.0511" lon="-1.05525">
        <ele>64.775903</ele>
        <time>2022-12-23T14:00:47.755Z</time>
      </trkpt>
      <trkpt lat="45.05099" lon="-1.0553">
        <ele>64.74732</ele>
        <time>2022-12-23T14:00:50.756Z</time>
      </trkpt>
      <trkpt lat="45.05089" lon="-1.05535">
        <ele>64.718681</ele>
        <time>2022-12-23T14:00:53.751Z</time>
      </trkpt>
      <trkpt lat="45.05078" lon="-1.05539">
        <ele>64.689611</ele>
        <time>2022-12-23T14:00:56.757Z</time>
      </trkpt>
      <trkpt lat="45.05067" lon="-1.05545">
        <ele>64.660619</ele>
        <time>2022-12-23T14:00:59.736Z</time>
      </trkpt>
      <trkpt lat="45.05056" lon="-1.0555">
        <ele>64.631198</ele>
        <time>2022-12-23T14:01:02.758Z</time>
      </trkpt>
      <trkpt lat="45.05045" lon="-1.05555">
        <ele>64.601665</ele>
        <time>2022-12-23T14:01:05.752Z</time>
      </trkpt>
      <trkpt lat="45.05033" lon="-1.0556">
        <ele>64.571029</ele>
        <time>2022-12-23T14:01:08.746Z</time>
      </trkpt>
      <trkpt lat="45.05022" lon="-1.05565">
        <ele>64.539206</ele>
        <time>2022-12-23T14:01:11.748Z</time>
      </trkpt>
      <trkpt lat="45.0501" lon="-1.0557">
        <ele>64.507745</ele>
        <time>2022-12-23T14:01:14.739Z</time>
      </trkpt>
      <trkpt lat="45.04999" lon="-1.05574">
        <ele>64.545521</ele>
        <time>2022-12-23T14:01:17.752Z</time>
      </trkpt>
      <trkpt lat="45.04989" lon="-1.0558">
        <ele>64.600538</ele>
        <time>2022-12-23T14:01:20.758Z</time>
      </trkpt>
      <trkpt lat="45.04979" lon="-1.05587">
        <ele>64.654761</ele>
        <time>2022-12-23T14:01:23.753Z</time>
      </trkpt>
      <trkpt lat="45.04971" lon="-1.05596">
        <ele>64.703233</ele>
        <time>2022-12-23T14:01:26.751Z</time>
      </trkpt>
      <trkpt lat="45.04962" lon="-1.05601">
        <ele>64.754886</ele>
        <time>2022-12-23T14:01:29.740Z</time>
      </trkpt>
      <trkpt lat="45.04951" lon="-1.05606">
        <ele>64.811086</ele>
        <time>2022-12-23T14:01:32.752Z</time>
      </trkpt>
      <trkpt lat="45.04939" lon="-1.05612">
        <ele>64.870271</ele>
        <time>2022-12-23T14:01:35.750Z</time>
      </trkpt>
      <trkpt lat="45.04927" lon="-1.05617">
        <ele>64.933764</ele>
        <time>2022-12-23T14:01:38.754Z</time>
      </trkpt>
      <trkpt lat="45.04914" lon="-1.05623">
        <ele>64.999498</ele>
        <time>2022-12-23T14:01:41.757Z</time>
      </trkpt>
      <trkpt lat="45.04902" lon="-1.05629">
        <ele>65.06343</ele>
        <time>2022-12-23T14:01:44.750Z</time>
      </trkpt>
      <trkpt lat="45.04893" lon="-1.05633">
        <ele>65.10807</ele>
        <time>2022-12-23T14:01:46.756Z</time>
      </trkpt>
      <trkpt lat="45.04884" lon="-1.05637">
        <ele>65.153933</ele>
        <time>2022-12-23T14:01:48.753Z</time>
      </trkpt>
      <trkpt lat="45.04875" lon="-1.05641">
        <ele>65.199987</ele>
        <time>2022-12-23T14:01:50.742Z</time>
      </trkpt>
      <trkpt lat="45.04866" lon="-1.05644">
        <ele>65.245946</ele>
        <time>2022-12-23T14:01:52.755Z</time>
      </trkpt>
      <trkpt lat="45.04857" lon="-1.05648">
        <ele>65.292875</ele>
        <time>2022-12-23T14:01:54.754Z</time>
      </trkpt>
      <trkpt lat="45.04848" lon="-1.05653">
        <ele>65.341061</ele>
        <time>2022-12-23T14:01:56.756Z</time>
      </trkpt>
      <trkpt lat="45.04839" lon="-1.05657">
        <ele>65.382843</ele>
        <time>2022-12-23T14:01:58.753Z</time>
      </trkpt>
      <trkpt lat="45.0483" lon="-1.05661">
        <ele>65.320775</ele>
        <time>2022-12-23T14:02:00.740Z</time>
      </trkpt>
      <trkpt lat="45.04821" lon="-1.05665">
        <ele>65.256658</ele>
        <time>2022-12-23T14:02:02.750Z</time>
      </trkpt>
      <trkpt lat="45.04812" lon="-1.05669">
        <ele>65.192911</ele>
        <time>2022-12-23T14:02:04.750Z</time>
      </trkpt>
      <trkpt lat="45.04803" lon="-1.05673">
        <ele>65.131971</ele>
        <time>2022-12-23T14:02:06.758Z</time>
      </trkpt>
      <trkpt lat="45.04794" lon="-1.05677">
        <ele>65.071315</ele>
        <time>2022-12-23T14:02:08.756Z</time>
      </trkpt>
      <trkpt lat="45.04785" lon="-1.05681">
        <ele>65.007694</ele>
        <time>2022-12-23T14:02:10.755Z</time>
      </trkpt>
      <trkpt lat="45.04776" lon="-1.05686">
        <ele>64.942368</ele>
        <time>2022-12-23T14:02:12.755Z</time>
      </trkpt>
      <trkpt lat="45.04763" lon="-1.05692">
        <ele>64.854912</ele>
        <time>2022-12-23T14:02:15.756Z</time>
      </trkpt>
      <trkpt lat="45.04752" lon="-1.05697">
        <ele>64.774826</ele>
        <time>2022-12-23T14:02:18.760Z</time>
      </trkpt>
      <trkpt lat="45.0474" lon="-1.05702">
        <ele>64.692901</ele>
        <time>2022-12-23T14:02:21.752Z</time>
      </trkpt>
      <trkpt lat="45.04728" lon="-1.05708">
        <ele>64.605445</ele>
        <time>2022-12-23T14:02:24.762Z</time>
      </trkpt>
      <trkpt lat="45.04716" lon="-1.05714">
        <ele>64.519511</ele>
        <time>2022-12-23T14:02:27.753Z</time>
      </trkpt>
      <trkpt lat="45.04702" lon="-1.05718">
        <ele>64.429923</ele>
        <time>2022-12-23T14:02:30.752Z</time>
      </trkpt>
      <trkpt lat="45.04693" lon="-1.05723">
        <ele>64.366334</ele>
        <time>2022-12-23T14:02:32.737Z</time>
      </trkpt>
      <trkpt lat="45.04685" lon="-1.05726">
        <ele>64.305041</ele>
        <time>2022-12-23T14:02:34.753Z</time>
      </trkpt>
      <trkpt lat="45.04672" lon="-1.05732">
        <ele>64.218671</ele>
        <time>2022-12-23T14:02:37.752Z</time>
      </trkpt>
      <trkpt lat="45.04661" lon="-1.05737">
        <ele>64.0086</ele>
        <time>2022-12-23T14:02:40.749Z</time>
      </trkpt>
      <trkpt lat="45.04653" lon="-1.05747">
        <ele>63.753091</ele>
        <time>2022-12-23T14:02:43.743Z</time>
      </trkpt>
      <trkpt lat="45.04656" lon="-1.05763">
        <ele>63.46649</ele>
        <time>2022-12-23T14:02:47.744Z</time>
      </trkpt>
      <trkpt lat="45.04664" lon="-1.05773">
        <ele>63.198008</ele>
        <time>2022-12-23T14:02:50.742Z</time>
      </trkpt>
      <trkpt lat="45.04673" lon="-1.05786">
        <ele>62.88929</ele>
        <time>2022-12-23T14:02:53.736Z</time>
      </trkpt>
      <trkpt lat="45.04681" lon="-1.05799">
        <ele>62.57922</ele>
        <time>2022-12-23T14:02:56.752Z</time>
      </trkpt>
      <trkpt lat="45.0469" lon="-1.05813">
        <ele>62.245678</ele>
        <time>2022-12-23T14:02:59.753Z</time>
      </trkpt>
      <trkpt lat="45.04696" lon="-1.05823">
        <ele>62.00749</ele>
        <time>2022-12-23T14:03:01.754Z</time>
      </trkpt>
      <trkpt lat="45.04702" lon="-1.05833">
        <ele>61.776992</ele>
        <time>2022-12-23T14:03:03.747Z</time>
      </trkpt>
      <trkpt lat="45.04709" lon="-1.05843">
        <ele>61.535851</ele>
        <time>2022-12-23T14:03:05.755Z</time>
      </trkpt>
      <trkpt lat="45.04715" lon="-1.05853">
        <ele>61.297663</ele>
        <time>2022-12-23T14:03:07.753Z</time>
      </trkpt>
      <trkpt lat="45.04723" lon="-1.05867">
        <ele>60.981934</ele>
        <time>2022-12-23T14:03:10.751Z</time>
      </trkpt>
      <trkpt lat="45.04729" lon="-1.05877">
        <ele>60.756659</ele>
        <time>2022-12-23T14:03:12.753Z</time>
      </trkpt>
      <trkpt lat="45.04735" lon="-1.05887">
        <ele>60.509946</ele>
        <time>2022-12-23T14:03:14.754Z</time>
      </trkpt>
      <trkpt lat="45.04742" lon="-1.05897">
        <ele>60.261887</ele>
        <time>2022-12-23T14:03:16.753Z</time>
      </trkpt>
      <trkpt lat="45.04749" lon="-1.05907">
        <ele>60.035282</ele>
        <time>2022-12-23T14:03:18.737Z</time>
      </trkpt>
      <trkpt lat="45.04758" lon="-1.05921">
        <ele>59.702644</ele>
        <time>2022-12-23T14:03:21.758Z</time>
      </trkpt>
      <trkpt lat="45.04766" lon="-1.05933">
        <ele>59.997006</ele>
        <time>2022-12-23T14:03:24.754Z</time>
      </trkpt>
      <trkpt lat="45.04773" lon="-1.05944">
        <ele>60.266747</ele>
        <time>2022-12-23T14:03:27.756Z</time>
      </trkpt>
      <trkpt lat="45.04781" lon="-1.05955">
        <ele>60.553514</ele>
        <time>2022-12-23T14:03:30.753Z</time>
      </trkpt>
      <trkpt lat="45.04789" lon="-1.05968">
        <ele>60.86433</ele>
        <time>2022-12-23T14:03:33.739Z</time>
      </trkpt>
      <trkpt lat="45.04797" lon="-1.05982">
        <ele>61.191713</ele>
        <time>2022-12-23T14:03:36.741Z</time>
      </trkpt>
      <trkpt lat="45.04806" lon="-1.05996">
        <ele>61.533024</ele>
        <time>2022-12-23T14:03:39.754Z</time>
      </trkpt>
      <trkpt lat="45.04812" lon="-1.06006">
        <ele>61.77595</ele>
        <time>2022-12-23T14:03:41.751Z</time>
      </trkpt>
      <trkpt lat="45.04819" lon="-1.06016">
        <ele>62.017337</ele>
        <time>2022-12-23T14:03:43.744Z</time>
      </trkpt>
      <trkpt lat="45.04825" lon="-1.06026">
        <ele>62.25447</ele>
        <time>2022-12-23T14:03:45.753Z</time>
      </trkpt>
      <trkpt lat="45.04829" lon="-1.06038">
        <ele>62.486934</ele>
        <time>2022-12-23T14:03:48.748Z</time>
      </trkpt>
      <trkpt lat="45.04822" lon="-1.06046">
        <ele>62.724501</ele>
        <time>2022-12-23T14:03:53.735Z</time>
      </trkpt>
      <trkpt lat="45.04812" lon="-1.06051">
        <ele>62.984967</ele>
        <time>2022-12-23T14:03:57.746Z</time>
      </trkpt>
      <trkpt lat="45.04801" lon="-1.06055">
        <ele>63.270136</ele>
        <time>2022-12-23T14:04:00.735Z</time>
      </trkpt>
      <trkpt lat="45.0479" lon="-1.06059">
        <ele>63.573447</ele>
        <time>2022-12-23T14:04:03.754Z</time>
      </trkpt>
      <trkpt lat="45.04778" lon="-1.06064">
        <ele>63.878715</ele>
        <time>2022-12-23T14:04:06.735Z</time>
      </trkpt>
      <trkpt lat="45.04766" lon="-1.06069">
        <ele>64.190342</ele>
        <time>2022-12-23T14:04:09.754Z</time>
      </trkpt>
      <trkpt lat="45.04754" lon="-1.06074">
        <ele>64.371903</ele>
        <time>2022-12-23T14:04:12.756Z</time>
      </trkpt>
      <trkpt lat="45.04742" lon="-1.06079">
        <ele>64.498774</ele>
        <time>2022-12-23T14:04:15.751Z</time>
      </trkpt>
      <trkpt lat="45.0473" lon="-1.06085">
        <ele>64.624293</ele>
        <time>2022-12-23T14:04:18.751Z</time>
      </trkpt>
      <trkpt lat="45.04718" lon="-1.06091">
        <ele>64.752849</ele>
        <time>2022-12-23T14:04:21.743Z</time>
      </trkpt>
      <trkpt lat="45.04705" lon="-1.06096">
        <ele>64.879306</ele>
        <time>2022-12-23T14:04:24.749Z</time>
      </trkpt>
      <trkpt lat="45.04693" lon="-1.06102">
        <ele>65.007862</ele>
        <time>2022-12-23T14:04:27.734Z</time>
      </trkpt>
      <trkpt lat="45.04681" lon="-1.06109">
        <ele>65.137343</ele>
        <time>2022-12-23T14:04:30.756Z</time>
      </trkpt>
      <trkpt lat="45.04668" lon="-1.06115">
        <ele>65.267775</ele>
        <time>2022-12-23T14:04:33.755Z</time>
      </trkpt>
      <trkpt lat="45.04656" lon="-1.0612">
        <ele>65.39789</ele>
        <time>2022-12-23T14:04:36.736Z</time>
      </trkpt>
      <trkpt lat="45.04644" lon="-1.06126">
        <ele>65.519438</ele>
        <time>2022-12-23T14:04:39.753Z</time>
      </trkpt>
      <trkpt lat="45.04632" lon="-1.0613">
        <ele>65.641923</ele>
        <time>2022-12-23T14:04:42.753Z</time>
      </trkpt>
      <trkpt lat="45.0462" lon="-1.06136">
        <ele>65.771417</ele>
        <time>2022-12-23T14:04:45.749Z</time>
      </trkpt>
      <trkpt lat="45.04609" lon="-1.06141">
        <ele>65.888201</ele>
        <time>2022-12-23T14:04:48.752Z</time>
      </trkpt>
      <trkpt lat="45.04598" lon="-1.06145">
        <ele>65.998031</ele>
        <time>2022-12-23T14:04:51.754Z</time>
      </trkpt>
      <trkpt lat="45.04586" lon="-1.06151">
        <ele>66.076375</ele>
        <time>2022-12-23T14:04:54.758Z</time>
      </trkpt>
      <trkpt lat="45.04573" lon="-1.06157">
        <ele>66.106941</ele>
        <time>2022-12-23T14:04:57.762Z</time>
      </trkpt>
      <trkpt lat="45.04561" lon="-1.06163">
        <ele>66.137727</ele>
        <time>2022-12-23T14:05:00.739Z</time>
      </trkpt>
      <trkpt lat="45.04548" lon="-1.06169">
        <ele>66.168622</ele>
        <time>2022-12-23T14:05:03.755Z</time>
      </trkpt>
      <trkpt lat="45.04539" lon="-1.06173">
        <ele>66.191564</ele>
        <time>2022-12-23T14:05:05.743Z</time>
      </trkpt>
      <trkpt lat="45.0453" lon="-1.06177">
        <ele>66.213187</ele>
        <time>2022-12-23T14:05:07.735Z</time>
      </trkpt>
      <trkpt lat="45.04518" lon="-1.06183">
        <ele>66.243863</ele>
        <time>2022-12-23T14:05:10.751Z</time>
      </trkpt>
      <trkpt lat="45.04506" lon="-1.06189">
        <ele>66.273115</ele>
        <time>2022-12-23T14:05:13.748Z</time>
      </trkpt>
      <trkpt lat="45.04493" lon="-1.06194">
        <ele>66.303315</ele>
        <time>2022-12-23T14:05:16.738Z</time>
      </trkpt>
      <trkpt lat="45.04481" lon="-1.06199">
        <ele>66.332306</ele>
        <time>2022-12-23T14:05:19.757Z</time>
      </trkpt>
      <trkpt lat="45.04469" lon="-1.06204">
        <ele>66.361947</ele>
        <time>2022-12-23T14:05:22.754Z</time>
      </trkpt>
      <trkpt lat="45.04458" lon="-1.06209">
        <ele>66.38907</ele>
        <time>2022-12-23T14:05:25.755Z</time>
      </trkpt>
      <trkpt lat="45.04446" lon="-1.06215">
        <ele>66.417945</ele>
        <time>2022-12-23T14:05:28.756Z</time>
      </trkpt>
      <trkpt lat="45.04434" lon="-1.06221">
        <ele>66.448017</ele>
        <time>2022-12-23T14:05:31.759Z</time>
      </trkpt>
      <trkpt lat="45.04422" lon="-1.06226">
        <ele>66.476882</ele>
        <time>2022-12-23T14:05:34.742Z</time>
      </trkpt>
      <trkpt lat="45.04414" lon="-1.06231">
        <ele>66.544504</ele>
        <time>2022-12-23T14:05:36.760Z</time>
      </trkpt>
      <trkpt lat="45.04402" lon="-1.06236">
        <ele>66.648563</ele>
        <time>2022-12-23T14:05:39.748Z</time>
      </trkpt>
      <trkpt lat="45.04393" lon="-1.06239">
        <ele>66.724566</ele>
        <time>2022-12-23T14:05:41.753Z</time>
      </trkpt>
      <trkpt lat="45.04384" lon="-1.06244">
        <ele>66.802726</ele>
        <time>2022-12-23T14:05:43.754Z</time>
      </trkpt>
      <trkpt lat="45.04374" lon="-1.06249">
        <ele>66.890233</ele>
        <time>2022-12-23T14:05:45.756Z</time>
      </trkpt>
      <trkpt lat="45.04366" lon="-1.06253">
        <ele>66.966889</ele>
        <time>2022-12-23T14:05:47.746Z</time>
      </trkpt>
      <trkpt lat="45.04354" lon="-1.06256">
        <ele>67.064539</ele>
        <time>2022-12-23T14:05:50.754Z</time>
      </trkpt>
      <trkpt lat="45.04343" lon="-1.06262">
        <ele>67.160954</ele>
        <time>2022-12-23T14:05:53.754Z</time>
      </trkpt>
      <trkpt lat="45.04331" lon="-1.06267">
        <ele>67.266144</ele>
        <time>2022-12-23T14:05:56.741Z</time>
      </trkpt>
      <trkpt lat="45.04319" lon="-1.06272">
        <ele>67.371167</ele>
        <time>2022-12-23T14:05:59.751Z</time>
      </trkpt>
      <trkpt lat="45.0431" lon="-1.06277">
        <ele>67.446779</ele>
        <time>2022-12-23T14:06:01.755Z</time>
      </trkpt>
      <trkpt lat="45.04298" lon="-1.06282">
        <ele>67.553219</ele>
        <time>2022-12-23T14:06:04.749Z</time>
      </trkpt>
      <trkpt lat="45.04287" lon="-1.06287">
        <ele>67.653913</ele>
        <time>2022-12-23T14:06:07.755Z</time>
      </trkpt>
      <trkpt lat="45.04275" lon="-1.06293">
        <ele>67.759981</ele>
        <time>2022-12-23T14:06:10.750Z</time>
      </trkpt>
      <trkpt lat="45.04263" lon="-1.06298">
        <ele>67.865004</ele>
        <time>2022-12-23T14:06:13.754Z</time>
      </trkpt>
      <trkpt lat="45.0425" lon="-1.06303">
        <ele>67.970993</ele>
        <time>2022-12-23T14:06:16.752Z</time>
      </trkpt>
      <trkpt lat="45.04239" lon="-1.06307">
        <ele>68.036773</ele>
        <time>2022-12-23T14:06:19.754Z</time>
      </trkpt>
      <trkpt lat="45.04229" lon="-1.06311">
        <ele>68.09964</ele>
        <time>2022-12-23T14:06:22.734Z</time>
      </trkpt>
      <trkpt lat="45.04216" lon="-1.06318">
        <ele>68.175091</ele>
        <time>2022-12-23T14:06:25.749Z</time>
      </trkpt>
      <trkpt lat="45.04207" lon="-1.06323">
        <ele>68.227519</ele>
        <time>2022-12-23T14:06:27.754Z</time>
      </trkpt>
      <trkpt lat="45.04198" lon="-1.06328">
        <ele>68.27986</ele>
        <time>2022-12-23T14:06:29.757Z</time>
      </trkpt>
      <trkpt lat="45.0419" lon="-1.06333">
        <ele>68.330809</ele>
        <time>2022-12-23T14:06:31.751Z</time>
      </trkpt>
      <trkpt lat="45.04178" lon="-1.06338">
        <ele>68.400002</ele>
        <time>2022-12-23T14:06:34.749Z</time>
      </trkpt>
      <trkpt lat="45.04166" lon="-1.06342">
        <ele>68.469447</ele>
        <time>2022-12-23T14:06:37.743Z</time>
      </trkpt>
      <trkpt lat="45.04154" lon="-1.06347">
        <ele>68.540673</ele>
        <time>2022-12-23T14:06:40.769Z</time>
      </trkpt>
      <trkpt lat="45.04144" lon="-1.06351">
        <ele>68.597525</ele>
        <time>2022-12-23T14:06:43.755Z</time>
      </trkpt>
      <trkpt lat="45.04134" lon="-1.06355">
        <ele>68.653627</ele>
        <time>2022-12-23T14:06:46.757Z</time>
      </trkpt>
      <trkpt lat="45.04122" lon="-1.0636">
        <ele>68.7226</ele>
        <time>2022-12-23T14:06:50.737Z</time>
      </trkpt>
      <trkpt lat="45.0411" lon="-1.06365">
        <ele>68.796098</ele>
        <time>2022-12-23T14:06:53.757Z</time>
      </trkpt>
      <trkpt lat="45.04098" lon="-1.0637">
        <ele>68.864428</ele>
        <time>2022-12-23T14:06:56.754Z</time>
      </trkpt>
      <trkpt lat="45.04089" lon="-1.06374">
        <ele>68.915666</ele>
        <time>2022-12-23T14:06:58.756Z</time>
      </trkpt>
      <trkpt lat="45.04081" lon="-1.06379">
        <ele>68.967435</ele>
        <time>2022-12-23T14:07:00.753Z</time>
      </trkpt>
      <trkpt lat="45.04068" lon="-1.06385">
        <ele>68.947694</ele>
        <time>2022-12-23T14:07:03.754Z</time>
      </trkpt>
      <trkpt lat="45.04059" lon="-1.06389">
        <ele>68.917541</ele>
        <time>2022-12-23T14:07:05.755Z</time>
      </trkpt>
      <trkpt lat="45.04047" lon="-1.06395">
        <ele>68.87479</ele>
        <time>2022-12-23T14:07:08.749Z</time>
      </trkpt>
      <trkpt lat="45.04036" lon="-1.06401">
        <ele>68.835779</ele>
        <time>2022-12-23T14:07:11.755Z</time>
      </trkpt>
      <trkpt lat="45.04025" lon="-1.06405">
        <ele>68.800687</ele>
        <time>2022-12-23T14:07:14.754Z</time>
      </trkpt>
      <trkpt lat="45.04016" lon="-1.06409">
        <ele>68.771264</ele>
        <time>2022-12-23T14:07:16.753Z</time>
      </trkpt>
      <trkpt lat="45.04006" lon="-1.06414">
        <ele>68.734471</ele>
        <time>2022-12-23T14:07:19.747Z</time>
      </trkpt>
      <trkpt lat="45.03997" lon="-1.06419">
        <ele>68.704956</ele>
        <time>2022-12-23T14:07:21.753Z</time>
      </trkpt>
      <trkpt lat="45.03985" lon="-1.06425">
        <ele>68.662382</ele>
        <time>2022-12-23T14:07:24.754Z</time>
      </trkpt>
      <trkpt lat="45.03973" lon="-1.0643">
        <ele>68.620841</ele>
        <time>2022-12-23T14:07:27.752Z</time>
      </trkpt>
      <trkpt lat="45.0396" lon="-1.06437">
        <ele>68.577932</ele>
        <time>2022-12-23T14:07:30.743Z</time>
      </trkpt>
      <trkpt lat="45.03948" lon="-1.06442">
        <ele>68.537694</ele>
        <time>2022-12-23T14:07:33.758Z</time>
      </trkpt>
      <trkpt lat="45.03938" lon="-1.06446">
        <ele>68.503845</ele>
        <time>2022-12-23T14:07:36.756Z</time>
      </trkpt>
      <trkpt lat="45.03929" lon="-1.06452">
        <ele>68.472307</ele>
        <time>2022-12-23T14:07:39.741Z</time>
      </trkpt>
      <trkpt lat="45.03917" lon="-1.06456">
        <ele>68.431325</ele>
        <time>2022-12-23T14:07:42.756Z</time>
      </trkpt>
      <trkpt lat="45.03906" lon="-1.06462">
        <ele>68.392457</ele>
        <time>2022-12-23T14:07:45.756Z</time>
      </trkpt>
      <trkpt lat="45.03893" lon="-1.06467">
        <ele>68.355315</ele>
        <time>2022-12-23T14:07:48.753Z</time>
      </trkpt>
      <trkpt lat="45.03882" lon="-1.06472">
        <ele>68.321993</ele>
        <time>2022-12-23T14:07:51.750Z</time>
      </trkpt>
      <trkpt lat="45.03871" lon="-1.06476">
        <ele>68.289992</ele>
        <time>2022-12-23T14:07:54.752Z</time>
      </trkpt>
      <trkpt lat="45.0386" lon="-1.0648">
        <ele>68.256357</ele>
        <time>2022-12-23T14:07:57.733Z</time>
      </trkpt>
      <trkpt lat="45.03849" lon="-1.06485">
        <ele>68.221443</ele>
        <time>2022-12-23T14:08:00.734Z</time>
      </trkpt>
      <trkpt lat="45.03836" lon="-1.06489">
        <ele>68.185325</ele>
        <time>2022-12-23T14:08:03.740Z</time>
      </trkpt>
      <trkpt lat="45.03826" lon="-1.06494">
        <ele>68.152854</ele>
        <time>2022-12-23T14:08:06.758Z</time>
      </trkpt>
      <trkpt lat="45.03815" lon="-1.06499">
        <ele>68.119807</ele>
        <time>2022-12-23T14:08:09.756Z</time>
      </trkpt>
      <trkpt lat="45.03803" lon="-1.06505">
        <ele>68.083091</ele>
        <time>2022-12-23T14:08:12.755Z</time>
      </trkpt>
      <trkpt lat="45.03791" lon="-1.06511">
        <ele>68.047469</ele>
        <time>2022-12-23T14:08:15.750Z</time>
      </trkpt>
      <trkpt lat="45.03779" lon="-1.06518">
        <ele>68.008772</ele>
        <time>2022-12-23T14:08:18.747Z</time>
      </trkpt>
      <trkpt lat="45.03768" lon="-1.06523">
        <ele>67.975464</ele>
        <time>2022-12-23T14:08:21.751Z</time>
      </trkpt>
      <trkpt lat="45.03756" lon="-1.06527">
        <ele>67.94131</ele>
        <time>2022-12-23T14:08:24.738Z</time>
      </trkpt>
      <trkpt lat="45.03744" lon="-1.0653">
        <ele>67.906375</ele>
        <time>2022-12-23T14:08:27.754Z</time>
      </trkpt>
      <trkpt lat="45.03733" lon="-1.06536">
        <ele>67.831199</ele>
        <time>2022-12-23T14:08:30.752Z</time>
      </trkpt>
      <trkpt lat="45.0372" lon="-1.06541">
        <ele>67.637645</ele>
        <time>2022-12-23T14:08:33.755Z</time>
      </trkpt>
      <trkpt lat="45.03708" lon="-1.06547">
        <ele>67.458422</ele>
        <time>2022-12-23T14:08:36.751Z</time>
      </trkpt>
      <trkpt lat="45.03695" lon="-1.06552">
        <ele>67.27343</ele>
        <time>2022-12-23T14:08:39.756Z</time>
      </trkpt>
      <trkpt lat="45.03684" lon="-1.06558">
        <ele>67.097924</ele>
        <time>2022-12-23T14:08:42.753Z</time>
      </trkpt>
      <trkpt lat="45.03675" lon="-1.06562">
        <ele>66.965311</ele>
        <time>2022-12-23T14:08:44.759Z</time>
      </trkpt>
      <trkpt lat="45.03663" lon="-1.06568">
        <ele>66.776575</ele>
        <time>2022-12-23T14:08:47.744Z</time>
      </trkpt>
      <trkpt lat="45.03651" lon="-1.06573">
        <ele>66.607872</ele>
        <time>2022-12-23T14:08:50.754Z</time>
      </trkpt>
      <trkpt lat="45.03639" lon="-1.06579">
        <ele>66.421856</ele>
        <time>2022-12-23T14:08:53.754Z</time>
      </trkpt>
      <trkpt lat="45.03629" lon="-1.06584">
        <ele>66.264883</ele>
        <time>2022-12-23T14:08:56.748Z</time>
      </trkpt>
      <trkpt lat="45.03618" lon="-1.06591">
        <ele>66.087901</ele>
        <time>2022-12-23T14:08:59.747Z</time>
      </trkpt>
      <trkpt lat="45.03605" lon="-1.06597">
        <ele>65.896118</ele>
        <time>2022-12-23T14:09:02.756Z</time>
      </trkpt>
      <trkpt lat="45.03593" lon="-1.06604">
        <ele>65.709504</ele>
        <time>2022-12-23T14:09:05.749Z</time>
      </trkpt>
      <trkpt lat="45.03581" lon="-1.0661">
        <ele>65.525484</ele>
        <time>2022-12-23T14:09:08.756Z</time>
      </trkpt>
      <trkpt lat="45.03569" lon="-1.06616">
        <ele>65.339838</ele>
        <time>2022-12-23T14:09:11.754Z</time>
      </trkpt>
      <trkpt lat="45.03556" lon="-1.06621">
        <ele>65.445523</ele>
        <time>2022-12-23T14:09:14.751Z</time>
      </trkpt>
      <trkpt lat="45.03545" lon="-1.06626">
        <ele>65.630284</ele>
        <time>2022-12-23T14:09:17.752Z</time>
      </trkpt>
      <trkpt lat="45.03533" lon="-1.06632">
        <ele>65.809453</ele>
        <time>2022-12-23T14:09:20.755Z</time>
      </trkpt>
      <trkpt lat="45.03522" lon="-1.06637">
        <ele>65.993506</ele>
        <time>2022-12-23T14:09:23.755Z</time>
      </trkpt>
      <trkpt lat="45.03511" lon="-1.06643">
        <ele>66.167016</ele>
        <time>2022-12-23T14:09:26.750Z</time>
      </trkpt>
      <trkpt lat="45.03499" lon="-1.06649">
        <ele>66.354236</ele>
        <time>2022-12-23T14:09:29.756Z</time>
      </trkpt>
      <trkpt lat="45.03487" lon="-1.06654">
        <ele>66.536128</ele>
        <time>2022-12-23T14:09:32.733Z</time>
      </trkpt>
      <trkpt lat="45.03475" lon="-1.06659">
        <ele>66.723049</ele>
        <time>2022-12-23T14:09:35.750Z</time>
      </trkpt>
      <trkpt lat="45.03463" lon="-1.06664">
        <ele>66.913012</ele>
        <time>2022-12-23T14:09:38.733Z</time>
      </trkpt>
      <trkpt lat="45.0345" lon="-1.06668">
        <ele>67.11066</ele>
        <time>2022-12-23T14:09:41.752Z</time>
      </trkpt>
      <trkpt lat="45.03438" lon="-1.06672">
        <ele>67.300922</ele>
        <time>2022-12-23T14:09:44.752Z</time>
      </trkpt>
      <trkpt lat="45.03425" lon="-1.06676">
        <ele>67.492754</ele>
        <time>2022-12-23T14:09:47.750Z</time>
      </trkpt>
      <trkpt lat="45.03414" lon="-1.06681">
        <ele>67.667487</ele>
        <time>2022-12-23T14:09:50.746Z</time>
      </trkpt>
      <trkpt lat="45.03404" lon="-1.06686">
        <ele>67.829076</ele>
        <time>2022-12-23T14:09:53.755Z</time>
      </trkpt>
      <trkpt lat="45.03393" lon="-1.06692">
        <ele>67.97182</ele>
        <time>2022-12-23T14:09:56.756Z</time>
      </trkpt>
      <trkpt lat="45.03382" lon="-1.06697">
        <ele>67.818908</ele>
        <time>2022-12-23T14:09:59.742Z</time>
      </trkpt>
      <trkpt lat="45.03372" lon="-1.06702">
        <ele>67.678209</ele>
        <time>2022-12-23T14:10:02.733Z</time>
      </trkpt>
      <trkpt lat="45.03362" lon="-1.06706">
        <ele>67.550011</ele>
        <time>2022-12-23T14:10:05.769Z</time>
      </trkpt>
      <trkpt lat="45.03351" lon="-1.06711">
        <ele>67.402994</ele>
        <time>2022-12-23T14:10:08.752Z</time>
      </trkpt>
      <trkpt lat="45.03339" lon="-1.06716">
        <ele>67.232308</ele>
        <time>2022-12-23T14:10:11.751Z</time>
      </trkpt>
      <trkpt lat="45.03326" lon="-1.06722">
        <ele>67.061655</ele>
        <time>2022-12-23T14:10:14.751Z</time>
      </trkpt>
      <trkpt lat="45.03314" lon="-1.06728">
        <ele>66.894905</ele>
        <time>2022-12-23T14:10:17.760Z</time>
      </trkpt>
      <trkpt lat="45.03302" lon="-1.06734">
        <ele>66.732156</ele>
        <time>2022-12-23T14:10:20.753Z</time>
      </trkpt>
      <trkpt lat="45.03291" lon="-1.0674">
        <ele>66.581698</ele>
        <time>2022-12-23T14:10:23.749Z</time>
      </trkpt>
      <trkpt lat="45.03282" lon="-1.06744">
        <ele>66.454729</ele>
        <time>2022-12-23T14:10:26.744Z</time>
      </trkpt>
      <trkpt lat="45.03271" lon="-1.06749">
        <ele>66.302482</ele>
        <time>2022-12-23T14:10:29.733Z</time>
      </trkpt>
      <trkpt lat="45.03259" lon="-1.06754">
        <ele>66.146162</ele>
        <time>2022-12-23T14:10:32.752Z</time>
      </trkpt>
      <trkpt lat="45.03247" lon="-1.06759">
        <ele>65.987097</ele>
        <time>2022-12-23T14:10:35.756Z</time>
      </trkpt>
      <trkpt lat="45.03238" lon="-1.0676">
        <ele>65.867625</ele>
        <time>2022-12-23T14:10:54.756Z</time>
      </trkpt>
      <trkpt lat="45.0323" lon="-1.06764">
        <ele>65.749826</ele>
        <time>2022-12-23T14:11:14.730Z</time>
      </trkpt>
      <trkpt lat="45.03231" lon="-1.06763">
        <ele>65.73501</ele>
        <time>2022-12-23T14:11:22.284Z</time>
      </trkpt>
      <trkpt lat="45.0321" lon="-1.06776">
        <ele>65.858416</ele>
        <time>2022-12-23T14:16:11.763Z</time>
      </trkpt>
      <trkpt lat="45.03199" lon="-1.06782">
        <ele>65.996959</ele>
        <time>2022-12-23T14:16:15.744Z</time>
      </trkpt>
      <trkpt lat="45.0319" lon="-1.06786">
        <ele>66.110196</ele>
        <time>2022-12-23T14:16:18.752Z</time>
      </trkpt>
      <trkpt lat="45.0318" lon="-1.06791">
        <ele>66.24339</ele>
        <time>2022-12-23T14:16:21.757Z</time>
      </trkpt>
      <trkpt lat="45.03169" lon="-1.06795">
        <ele>66.381338</ele>
        <time>2022-12-23T14:16:24.754Z</time>
      </trkpt>
      <trkpt lat="45.03158" lon="-1.068">
        <ele>66.524182</ele>
        <time>2022-12-23T14:16:27.756Z</time>
      </trkpt>
      <trkpt lat="45.03146" lon="-1.06805">
        <ele>66.674926</ele>
        <time>2022-12-23T14:16:30.747Z</time>
      </trkpt>
      <trkpt lat="45.03134" lon="-1.0681">
        <ele>66.821926</ele>
        <time>2022-12-23T14:16:33.755Z</time>
      </trkpt>
      <trkpt lat="45.03126" lon="-1.06814">
        <ele>66.934885</ele>
        <time>2022-12-23T14:16:35.745Z</time>
      </trkpt>
      <trkpt lat="45.03113" lon="-1.06819">
        <ele>67.094285</ele>
        <time>2022-12-23T14:16:38.756Z</time>
      </trkpt>
      <trkpt lat="45.03101" lon="-1.06825">
        <ele>67.253681</ele>
        <time>2022-12-23T14:16:41.745Z</time>
      </trkpt>
      <trkpt lat="45.03087" lon="-1.06831">
        <ele>67.421049</ele>
        <time>2022-12-23T14:16:44.755Z</time>
      </trkpt>
      <trkpt lat="45.03078" lon="-1.06835">
        <ele>67.536697</ele>
        <time>2022-12-23T14:16:46.754Z</time>
      </trkpt>
      <trkpt lat="45.03066" lon="-1.06839">
        <ele>67.694948</ele>
        <time>2022-12-23T14:16:49.753Z</time>
      </trkpt>
      <trkpt lat="45.03056" lon="-1.06845">
        <ele>67.824152</ele>
        <time>2022-12-23T14:16:51.766Z</time>
      </trkpt>
      <trkpt lat="45.03045" lon="-1.06852">
        <ele>67.964992</ele>
        <time>2022-12-23T14:16:54.758Z</time>
      </trkpt>
      <trkpt lat="45.03035" lon="-1.06857">
        <ele>68.082594</ele>
        <time>2022-12-23T14:16:56.754Z</time>
      </trkpt>
      <trkpt lat="45.03026" lon="-1.06862">
        <ele>68.200554</ele>
        <time>2022-12-23T14:16:58.733Z</time>
      </trkpt>
      <trkpt lat="45.03016" lon="-1.06866">
        <ele>68.313735</ele>
        <time>2022-12-23T14:17:00.756Z</time>
      </trkpt>
      <trkpt lat="45.03007" lon="-1.06871">
        <ele>68.428162</ele>
        <time>2022-12-23T14:17:02.755Z</time>
      </trkpt>
      <trkpt lat="45.02994" lon="-1.06875">
        <ele>68.576181</ele>
        <time>2022-12-23T14:17:05.755Z</time>
      </trkpt>
      <trkpt lat="45.02986" lon="-1.0688">
        <ele>68.685434</ele>
        <time>2022-12-23T14:17:07.753Z</time>
      </trkpt>
      <trkpt lat="45.02972" lon="-1.06884">
        <ele>68.844307</ele>
        <time>2022-12-23T14:17:10.760Z</time>
      </trkpt>
      <trkpt lat="45.02962" lon="-1.06888">
        <ele>68.961513</ele>
        <time>2022-12-23T14:17:12.755Z</time>
      </trkpt>
      <trkpt lat="45.02954" lon="-1.06892">
        <ele>69.068089</ele>
        <time>2022-12-23T14:17:14.753Z</time>
      </trkpt>
      <trkpt lat="45.02941" lon="-1.06897">
        <ele>69.220365</ele>
        <time>2022-12-23T14:17:17.756Z</time>
      </trkpt>
      <trkpt lat="45.02929" lon="-1.06901">
        <ele>69.362707</ele>
        <time>2022-12-23T14:17:20.755Z</time>
      </trkpt>
      <trkpt lat="45.0292" lon="-1.06905">
        <ele>69.47198</ele>
        <time>2022-12-23T14:17:22.759Z</time>
      </trkpt>
      <trkpt lat="45.0291" lon="-1.06909">
        <ele>69.590474</ele>
        <time>2022-12-23T14:17:24.747Z</time>
      </trkpt>
      <trkpt lat="45.029" lon="-1.06912">
        <ele>69.701583</ele>
        <time>2022-12-23T14:17:26.753Z</time>
      </trkpt>
      <trkpt lat="45.02888" lon="-1.06918">
        <ele>69.848631</ele>
        <time>2022-12-23T14:17:29.754Z</time>
      </trkpt>
      <trkpt lat="45.0288" lon="-1.06921">
        <ele>69.775114</ele>
        <time>2022-12-23T14:17:31.762Z</time>
      </trkpt>
      <trkpt lat="45.02871" lon="-1.06924">
        <ele>69.335849</ele>
        <time>2022-12-23T14:17:33.752Z</time>
      </trkpt>
      <trkpt lat="45.02861" lon="-1.06927">
        <ele>68.872827</ele>
        <time>2022-12-23T14:17:35.755Z</time>
      </trkpt>
      <trkpt lat="45.02852" lon="-1.06929">
        <ele>68.442577</ele>
        <time>2022-12-23T14:17:37.751Z</time>
      </trkpt>
      <trkpt lat="45.02843" lon="-1.06932">
        <ele>68.000697</ele>
        <time>2022-12-23T14:17:39.742Z</time>
      </trkpt>
      <trkpt lat="45.02833" lon="-1.06936">
        <ele>67.54221</ele>
        <time>2022-12-23T14:17:41.760Z</time>
      </trkpt>
      <trkpt lat="45.02821" lon="-1.06941">
        <ele>66.929496</ele>
        <time>2022-12-23T14:17:44.754Z</time>
      </trkpt>
      <trkpt lat="45.02812" lon="-1.06945">
        <ele>66.493521</ele>
        <time>2022-12-23T14:17:46.752Z</time>
      </trkpt>
      <trkpt lat="45.028" lon="-1.06949">
        <ele>65.890791</ele>
        <time>2022-12-23T14:17:49.754Z</time>
      </trkpt>
      <trkpt lat="45.02787" lon="-1.06953">
        <ele>65.273604</ele>
        <time>2022-12-23T14:17:52.754Z</time>
      </trkpt>
      <trkpt lat="45.02774" lon="-1.06956">
        <ele>64.642168</ele>
        <time>2022-12-23T14:17:55.757Z</time>
      </trkpt>
      <trkpt lat="45.02761" lon="-1.0696">
        <ele>64.015678</ele>
        <time>2022-12-23T14:17:58.754Z</time>
      </trkpt>
      <trkpt lat="45.02748" lon="-1.06963">
        <ele>63.4223</ele>
        <time>2022-12-23T14:18:01.754Z</time>
      </trkpt>
      <trkpt lat="45.02735" lon="-1.06966">
        <ele>62.796161</ele>
        <time>2022-12-23T14:18:04.756Z</time>
      </trkpt>
      <trkpt lat="45.02723" lon="-1.0697">
        <ele>62.191742</ele>
        <time>2022-12-23T14:18:07.744Z</time>
      </trkpt>
      <trkpt lat="45.0271" lon="-1.06974">
        <ele>61.564242</ele>
        <time>2022-12-23T14:18:10.753Z</time>
      </trkpt>
      <trkpt lat="45.02697" lon="-1.06977">
        <ele>61.308573</ele>
        <time>2022-12-23T14:18:13.753Z</time>
      </trkpt>
      <trkpt lat="45.02685" lon="-1.06979">
        <ele>61.144025</ele>
        <time>2022-12-23T14:18:16.752Z</time>
      </trkpt>
      <trkpt lat="45.02673" lon="-1.06983">
        <ele>60.981743</ele>
        <time>2022-12-23T14:18:19.744Z</time>
      </trkpt>
      <trkpt lat="45.0266" lon="-1.06986">
        <ele>60.814196</ele>
        <time>2022-12-23T14:18:22.753Z</time>
      </trkpt>
      <trkpt lat="45.02648" lon="-1.0699">
        <ele>60.654817</ele>
        <time>2022-12-23T14:18:25.755Z</time>
      </trkpt>
      <trkpt lat="45.02635" lon="-1.06993">
        <ele>60.495785</ele>
        <time>2022-12-23T14:18:28.736Z</time>
      </trkpt>
      <trkpt lat="45.02623" lon="-1.06996">
        <ele>60.336771</ele>
        <time>2022-12-23T14:18:31.754Z</time>
      </trkpt>
      <trkpt lat="45.02611" lon="-1.07">
        <ele>60.177007</ele>
        <time>2022-12-23T14:18:34.756Z</time>
      </trkpt>
      <trkpt lat="45.02599" lon="-1.07003">
        <ele>60.015463</ele>
        <time>2022-12-23T14:18:37.755Z</time>
      </trkpt>
      <trkpt lat="45.02587" lon="-1.07008">
        <ele>59.853962</ele>
        <time>2022-12-23T14:18:40.745Z</time>
      </trkpt>
      <trkpt lat="45.02575" lon="-1.07012">
        <ele>59.700869</ele>
        <time>2022-12-23T14:18:43.766Z</time>
      </trkpt>
      <trkpt lat="45.02563" lon="-1.07014">
        <ele>59.54234</ele>
        <time>2022-12-23T14:18:46.754Z</time>
      </trkpt>
      <trkpt lat="45.02551" lon="-1.07018">
        <ele>59.382575</ele>
        <time>2022-12-23T14:18:49.758Z</time>
      </trkpt>
      <trkpt lat="45.02539" lon="-1.07022">
        <ele>59.222196</ele>
        <time>2022-12-23T14:18:52.753Z</time>
      </trkpt>
      <trkpt lat="45.02526" lon="-1.07026">
        <ele>59.097679</ele>
        <time>2022-12-23T14:18:55.752Z</time>
      </trkpt>
      <trkpt lat="45.02514" lon="-1.07029">
        <ele>59.04852</ele>
        <time>2022-12-23T14:18:58.753Z</time>
      </trkpt>
      <trkpt lat="45.02501" lon="-1.07033">
        <ele>58.997899</ele>
        <time>2022-12-23T14:19:01.754Z</time>
      </trkpt>
      <trkpt lat="45.02489" lon="-1.07036">
        <ele>58.947716</ele>
        <time>2022-12-23T14:19:04.743Z</time>
      </trkpt>
      <trkpt lat="45.02476" lon="-1.07039">
        <ele>58.899035</ele>
        <time>2022-12-23T14:19:07.762Z</time>
      </trkpt>
      <trkpt lat="45.02464" lon="-1.07042">
        <ele>58.849876</ele>
        <time>2022-12-23T14:19:10.754Z</time>
      </trkpt>
      <trkpt lat="45.02452" lon="-1.07046">
        <ele>58.801107</ele>
        <time>2022-12-23T14:19:13.748Z</time>
      </trkpt>
      <trkpt lat="45.0244" lon="-1.07049">
        <ele>58.753196</ele>
        <time>2022-12-23T14:19:16.734Z</time>
      </trkpt>
      <trkpt lat="45.02427" lon="-1.07052">
        <ele>58.703988</ele>
        <time>2022-12-23T14:19:19.751Z</time>
      </trkpt>
      <trkpt lat="45.02415" lon="-1.07056">
        <ele>58.654346</ele>
        <time>2022-12-23T14:19:22.757Z</time>
      </trkpt>
      <trkpt lat="45.02402" lon="-1.0706">
        <ele>58.604437</ele>
        <time>2022-12-23T14:19:25.747Z</time>
      </trkpt>
      <trkpt lat="45.0239" lon="-1.07064">
        <ele>58.553013</ele>
        <time>2022-12-23T14:19:28.754Z</time>
      </trkpt>
      <trkpt lat="45.02377" lon="-1.07068">
        <ele>58.502064</ele>
        <time>2022-12-23T14:19:31.755Z</time>
      </trkpt>
      <trkpt lat="45.02364" lon="-1.07072">
        <ele>58.450732</ele>
        <time>2022-12-23T14:19:34.737Z</time>
      </trkpt>
      <trkpt lat="45.02355" lon="-1.07074">
        <ele>58.415579</ele>
        <time>2022-12-23T14:19:36.754Z</time>
      </trkpt>
      <trkpt lat="45.02342" lon="-1.07079">
        <ele>58.292291</ele>
        <time>2022-12-23T14:19:39.755Z</time>
      </trkpt>
      <trkpt lat="45.02329" lon="-1.07083">
        <ele>58.166455</ele>
        <time>2022-12-23T14:19:42.753Z</time>
      </trkpt>
      <trkpt lat="45.02317" lon="-1.07086">
        <ele>58.047473</ele>
        <time>2022-12-23T14:19:45.751Z</time>
      </trkpt>
      <trkpt lat="45.02306" lon="-1.07089">
        <ele>57.941127</ele>
        <time>2022-12-23T14:19:48.734Z</time>
      </trkpt>
      <trkpt lat="45.02295" lon="-1.07093">
        <ele>57.826183</ele>
        <time>2022-12-23T14:19:51.762Z</time>
      </trkpt>
      <trkpt lat="45.02283" lon="-1.07097">
        <ele>57.706548</ele>
        <time>2022-12-23T14:19:54.754Z</time>
      </trkpt>
      <trkpt lat="45.0227" lon="-1.07102">
        <ele>57.584417</ele>
        <time>2022-12-23T14:19:57.754Z</time>
      </trkpt>
      <trkpt lat="45.02258" lon="-1.07106">
        <ele>57.462175</ele>
        <time>2022-12-23T14:20:00.750Z</time>
      </trkpt>
      <trkpt lat="45.02245" lon="-1.07108">
        <ele>57.34079</ele>
        <time>2022-12-23T14:20:03.755Z</time>
      </trkpt>
      <trkpt lat="45.02236" lon="-1.0711">
        <ele>57.252279</ele>
        <time>2022-12-23T14:20:05.753Z</time>
      </trkpt>
      <trkpt lat="45.02224" lon="-1.07113">
        <ele>57.131843</ele>
        <time>2022-12-23T14:20:08.751Z</time>
      </trkpt>
      <trkpt lat="45.02215" lon="-1.07116">
        <ele>57.039487</ele>
        <time>2022-12-23T14:20:10.754Z</time>
      </trkpt>
      <trkpt lat="45.02205" lon="-1.07119">
        <ele>56.945657</ele>
        <time>2022-12-23T14:20:12.737Z</time>
      </trkpt>
      <trkpt lat="45.02191" lon="-1.07121">
        <ele>56.814006</ele>
        <time>2022-12-23T14:20:15.754Z</time>
      </trkpt>
      <trkpt lat="45.02182" lon="-1.07123">
        <ele>56.720755</ele>
        <time>2022-12-23T14:20:17.753Z</time>
      </trkpt>
      <trkpt lat="45.02173" lon="-1.07127">
        <ele>56.685029</ele>
        <time>2022-12-23T14:20:19.754Z</time>
      </trkpt>
      <trkpt lat="45.02164" lon="-1.07131">
        <ele>56.68194</ele>
        <time>2022-12-23T14:20:21.752Z</time>
      </trkpt>
      <trkpt lat="45.02151" lon="-1.07133">
        <ele>56.677659</ele>
        <time>2022-12-23T14:20:24.745Z</time>
      </trkpt>
      <trkpt lat="45.02138" lon="-1.07137">
        <ele>56.673153</ele>
        <time>2022-12-23T14:20:27.759Z</time>
      </trkpt>
      <trkpt lat="45.02127" lon="-1.07141">
        <ele>56.669423</ele>
        <time>2022-12-23T14:20:29.756Z</time>
      </trkpt>
      <trkpt lat="45.02117" lon="-1.07144">
        <ele>56.665962</ele>
        <time>2022-12-23T14:20:31.756Z</time>
      </trkpt>
      <trkpt lat="45.02107" lon="-1.07144">
        <ele>56.662629</ele>
        <time>2022-12-23T14:20:33.736Z</time>
      </trkpt>
      <trkpt lat="45.02093" lon="-1.07149">
        <ele>56.657934</ele>
        <time>2022-12-23T14:20:36.759Z</time>
      </trkpt>
      <trkpt lat="45.02084" lon="-1.07152">
        <ele>56.654719</ele>
        <time>2022-12-23T14:20:38.757Z</time>
      </trkpt>
      <trkpt lat="45.02074" lon="-1.07156">
        <ele>56.651326</ele>
        <time>2022-12-23T14:20:40.751Z</time>
      </trkpt>
      <trkpt lat="45.02064" lon="-1.07158">
        <ele>56.648124</ele>
        <time>2022-12-23T14:20:42.754Z</time>
      </trkpt>
      <trkpt lat="45.02055" lon="-1.0716">
        <ele>56.644946</ele>
        <time>2022-12-23T14:20:44.756Z</time>
      </trkpt>
      <trkpt lat="45.02045" lon="-1.07162">
        <ele>56.641666</ele>
        <time>2022-12-23T14:20:46.733Z</time>
      </trkpt>
      <trkpt lat="45.02035" lon="-1.07166">
        <ele>56.638326</ele>
        <time>2022-12-23T14:20:48.754Z</time>
      </trkpt>
      <trkpt lat="45.02026" lon="-1.07169">
        <ele>56.635182</ele>
        <time>2022-12-23T14:20:50.755Z</time>
      </trkpt>
      <trkpt lat="45.02014" lon="-1.07173">
        <ele>56.631027</ele>
        <time>2022-12-23T14:20:53.764Z</time>
      </trkpt>
      <trkpt lat="45.02005" lon="-1.07176">
        <ele>56.627817</ele>
        <time>2022-12-23T14:20:55.757Z</time>
      </trkpt>
      <trkpt lat="45.01995" lon="-1.07179">
        <ele>56.62491</ele>
        <time>2022-12-23T14:20:57.767Z</time>
      </trkpt>
      <trkpt lat="45.01985" lon="-1.07182">
        <ele>56.622293</ele>
        <time>2022-12-23T14:20:59.742Z</time>
      </trkpt>
      <trkpt lat="45.01972" lon="-1.07187">
        <ele>56.618829</ele>
        <time>2022-12-23T14:21:02.745Z</time>
      </trkpt>
      <trkpt lat="45.01963" lon="-1.07189">
        <ele>56.616198</ele>
        <time>2022-12-23T14:21:04.764Z</time>
      </trkpt>
      <trkpt lat="45.01954" lon="-1.07191">
        <ele>56.613749</ele>
        <time>2022-12-23T14:21:06.759Z</time>
      </trkpt>
      <trkpt lat="45.01944" lon="-1.07195">
        <ele>56.6111</ele>
        <time>2022-12-23T14:21:08.753Z</time>
      </trkpt>
      <trkpt lat="45.01934" lon="-1.07198">
        <ele>56.608509</ele>
        <time>2022-12-23T14:21:10.756Z</time>
      </trkpt>
      <trkpt lat="45.01925" lon="-1.07201">
        <ele>56.605914</ele>
        <time>2022-12-23T14:21:12.757Z</time>
      </trkpt>
      <trkpt lat="45.01916" lon="-1.07204">
        <ele>56.603413</ele>
        <time>2022-12-23T14:21:14.766Z</time>
      </trkpt>
      <trkpt lat="45.01907" lon="-1.07207">
        <ele>56.600929</ele>
        <time>2022-12-23T14:21:16.754Z</time>
      </trkpt>
      <trkpt lat="45.01897" lon="-1.07209">
        <ele>56.598432</ele>
        <time>2022-12-23T14:21:18.754Z</time>
      </trkpt>
      <trkpt lat="45.01888" lon="-1.07214">
        <ele>56.595847</ele>
        <time>2022-12-23T14:21:20.752Z</time>
      </trkpt>
      <trkpt lat="45.01879" lon="-1.07217">
        <ele>56.593268</ele>
        <time>2022-12-23T14:21:22.751Z</time>
      </trkpt>
      <trkpt lat="45.01869" lon="-1.07219">
        <ele>56.590618</ele>
        <time>2022-12-23T14:21:24.754Z</time>
      </trkpt>
      <trkpt lat="45.01859" lon="-1.07223">
        <ele>56.58788</ele>
        <time>2022-12-23T14:21:26.755Z</time>
      </trkpt>
      <trkpt lat="45.0185" lon="-1.07224">
        <ele>56.585357</ele>
        <time>2022-12-23T14:21:28.742Z</time>
      </trkpt>
      <trkpt lat="45.01841" lon="-1.07227">
        <ele>56.582926</ele>
        <time>2022-12-23T14:21:30.753Z</time>
      </trkpt>
      <trkpt lat="45.01832" lon="-1.0723">
        <ele>56.580477</ele>
        <time>2022-12-23T14:21:32.751Z</time>
      </trkpt>
      <trkpt lat="45.01822" lon="-1.07233">
        <ele>56.605553</ele>
        <time>2022-12-23T14:21:34.732Z</time>
      </trkpt>
      <trkpt lat="45.01812" lon="-1.07235">
        <ele>56.661423</ele>
        <time>2022-12-23T14:21:36.754Z</time>
      </trkpt>
      <trkpt lat="45.01803" lon="-1.07237">
        <ele>56.710287</ele>
        <time>2022-12-23T14:21:38.753Z</time>
      </trkpt>
      <trkpt lat="45.01794" lon="-1.0724">
        <ele>56.758837</ele>
        <time>2022-12-23T14:21:40.752Z</time>
      </trkpt>
      <trkpt lat="45.01785" lon="-1.07243">
        <ele>56.810084</ele>
        <time>2022-12-23T14:21:42.756Z</time>
      </trkpt>
      <trkpt lat="45.01775" lon="-1.07247">
        <ele>56.865247</ele>
        <time>2022-12-23T14:21:44.757Z</time>
      </trkpt>
      <trkpt lat="45.01766" lon="-1.0725">
        <ele>56.91484</ele>
        <time>2022-12-23T14:21:46.758Z</time>
      </trkpt>
      <trkpt lat="45.01757" lon="-1.07252">
        <ele>56.963116</ele>
        <time>2022-12-23T14:21:48.754Z</time>
      </trkpt>
      <trkpt lat="45.01745" lon="-1.07254">
        <ele>57.027169</ele>
        <time>2022-12-23T14:21:51.752Z</time>
      </trkpt>
      <trkpt lat="45.01733" lon="-1.07259">
        <ele>57.096326</ele>
        <time>2022-12-23T14:21:54.754Z</time>
      </trkpt>
      <trkpt lat="45.0172" lon="-1.07263">
        <ele>57.166194</ele>
        <time>2022-12-23T14:21:57.749Z</time>
      </trkpt>
      <trkpt lat="45.01711" lon="-1.07265">
        <ele>57.216008</ele>
        <time>2022-12-23T14:21:59.746Z</time>
      </trkpt>
      <trkpt lat="45.01701" lon="-1.07267">
        <ele>57.26758</ele>
        <time>2022-12-23T14:22:01.754Z</time>
      </trkpt>
      <trkpt lat="45.01692" lon="-1.07269">
        <ele>57.319383</ele>
        <time>2022-12-23T14:22:03.732Z</time>
      </trkpt>
      <trkpt lat="45.01682" lon="-1.07272">
        <ele>57.373083</ele>
        <time>2022-12-23T14:22:05.766Z</time>
      </trkpt>
      <trkpt lat="45.01673" lon="-1.07274">
        <ele>57.425055</ele>
        <time>2022-12-23T14:22:07.750Z</time>
      </trkpt>
      <trkpt lat="45.01664" lon="-1.07277">
        <ele>57.474216</ele>
        <time>2022-12-23T14:22:09.739Z</time>
      </trkpt>
      <trkpt lat="45.0165" lon="-1.07281">
        <ele>57.546486</ele>
        <time>2022-12-23T14:22:12.736Z</time>
      </trkpt>
      <trkpt lat="45.01641" lon="-1.07285">
        <ele>57.577891</ele>
        <time>2022-12-23T14:22:14.752Z</time>
      </trkpt>
      <trkpt lat="45.01632" lon="-1.07288">
        <ele>57.608096</ele>
        <time>2022-12-23T14:22:16.749Z</time>
      </trkpt>
      <trkpt lat="45.01622" lon="-1.07291">
        <ele>57.639086</ele>
        <time>2022-12-23T14:22:18.752Z</time>
      </trkpt>
      <trkpt lat="45.01613" lon="-1.07295">
        <ele>57.669474</ele>
        <time>2022-12-23T14:22:20.751Z</time>
      </trkpt>
      <trkpt lat="45.016" lon="-1.07298">
        <ele>57.712015</ele>
        <time>2022-12-23T14:22:23.755Z</time>
      </trkpt>
      <trkpt lat="45.01591" lon="-1.073">
        <ele>57.742022</ele>
        <time>2022-12-23T14:22:25.764Z</time>
      </trkpt>
      <trkpt lat="45.01582" lon="-1.07302">
        <ele>57.77132</ele>
        <time>2022-12-23T14:22:27.750Z</time>
      </trkpt>
      <trkpt lat="45.0157" lon="-1.07305">
        <ele>57.810993</ele>
        <time>2022-12-23T14:22:30.737Z</time>
      </trkpt>
      <trkpt lat="45.01561" lon="-1.07308">
        <ele>57.840678</ele>
        <time>2022-12-23T14:22:32.755Z</time>
      </trkpt>
      <trkpt lat="45.01548" lon="-1.07313">
        <ele>57.881535</ele>
        <time>2022-12-23T14:22:35.755Z</time>
      </trkpt>
      <trkpt lat="45.01536" lon="-1.07317">
        <ele>57.924432</ele>
        <time>2022-12-23T14:22:38.755Z</time>
      </trkpt>
      <trkpt lat="45.01526" lon="-1.07321">
        <ele>57.955012</ele>
        <time>2022-12-23T14:22:40.754Z</time>
      </trkpt>
      <trkpt lat="45.01517" lon="-1.07324">
        <ele>57.986219</ele>
        <time>2022-12-23T14:22:42.758Z</time>
      </trkpt>
      <trkpt lat="45.01504" lon="-1.07327">
        <ele>58.029531</ele>
        <time>2022-12-23T14:22:45.753Z</time>
      </trkpt>
      <trkpt lat="45.01495" lon="-1.07328">
        <ele>58.058675</ele>
        <time>2022-12-23T14:22:47.746Z</time>
      </trkpt>
      <trkpt lat="45.01485" lon="-1.0733">
        <ele>58.088927</ele>
        <time>2022-12-23T14:22:49.737Z</time>
      </trkpt>
      <trkpt lat="45.01476" lon="-1.07333">
        <ele>58.119138</ele>
        <time>2022-12-23T14:22:51.745Z</time>
      </trkpt>
      <trkpt lat="45.01467" lon="-1.07336">
        <ele>58.037165</ele>
        <time>2022-12-23T14:22:53.753Z</time>
      </trkpt>
      <trkpt lat="45.01458" lon="-1.0734">
        <ele>57.939282</ele>
        <time>2022-12-23T14:22:55.753Z</time>
      </trkpt>
      <trkpt lat="45.01449" lon="-1.07343">
        <ele>57.838642</ele>
        <time>2022-12-23T14:22:57.744Z</time>
      </trkpt>
      <trkpt lat="45.01439" lon="-1.07343">
        <ele>57.739326</ele>
        <time>2022-12-23T14:22:59.756Z</time>
      </trkpt>
      <trkpt lat="45.0143" lon="-1.07346">
        <ele>57.638351</ele>
        <time>2022-12-23T14:23:01.738Z</time>
      </trkpt>
      <trkpt lat="45.0142" lon="-1.0735">
        <ele>57.529571</ele>
        <time>2022-12-23T14:23:03.755Z</time>
      </trkpt>
      <trkpt lat="45.01411" lon="-1.07352">
        <ele>57.434947</ele>
        <time>2022-12-23T14:23:05.757Z</time>
      </trkpt>
      <trkpt lat="45.01401" lon="-1.07354">
        <ele>57.333903</ele>
        <time>2022-12-23T14:23:07.753Z</time>
      </trkpt>
      <trkpt lat="45.01392" lon="-1.07357">
        <ele>57.231382</ele>
        <time>2022-12-23T14:23:09.748Z</time>
      </trkpt>
      <trkpt lat="45.01382" lon="-1.0736">
        <ele>57.130902</ele>
        <time>2022-12-23T14:23:11.766Z</time>
      </trkpt>
      <trkpt lat="45.01372" lon="-1.07363">
        <ele>57.025518</ele>
        <time>2022-12-23T14:23:13.757Z</time>
      </trkpt>
      <trkpt lat="45.01362" lon="-1.07366">
        <ele>56.91933</ele>
        <time>2022-12-23T14:23:15.767Z</time>
      </trkpt>
      <trkpt lat="45.01349" lon="-1.07371">
        <ele>56.775793</ele>
        <time>2022-12-23T14:23:18.741Z</time>
      </trkpt>
      <trkpt lat="45.01339" lon="-1.07373">
        <ele>56.671921</ele>
        <time>2022-12-23T14:23:20.734Z</time>
      </trkpt>
      <trkpt lat="45.01327" lon="-1.07376">
        <ele>56.538352</ele>
        <time>2022-12-23T14:23:23.750Z</time>
      </trkpt>
      <trkpt lat="45.01316" lon="-1.07379">
        <ele>56.422222</ele>
        <time>2022-12-23T14:23:26.755Z</time>
      </trkpt>
      <trkpt lat="45.01304" lon="-1.07382">
        <ele>56.301864</ele>
        <time>2022-12-23T14:23:29.754Z</time>
      </trkpt>
      <trkpt lat="45.01292" lon="-1.07386">
        <ele>56.224618</ele>
        <time>2022-12-23T14:23:32.755Z</time>
      </trkpt>
      <trkpt lat="45.01279" lon="-1.0739">
        <ele>56.187741</ele>
        <time>2022-12-23T14:23:35.753Z</time>
      </trkpt>
      <trkpt lat="45.01266" lon="-1.07393">
        <ele>56.150263</ele>
        <time>2022-12-23T14:23:38.755Z</time>
      </trkpt>
      <trkpt lat="45.01253" lon="-1.07395">
        <ele>56.11452</ele>
        <time>2022-12-23T14:23:41.738Z</time>
      </trkpt>
      <trkpt lat="45.01244" lon="-1.07399">
        <ele>56.087385</ele>
        <time>2022-12-23T14:23:43.754Z</time>
      </trkpt>
      <trkpt lat="45.01235" lon="-1.07403">
        <ele>56.060724</ele>
        <time>2022-12-23T14:23:45.755Z</time>
      </trkpt>
      <trkpt lat="45.01225" lon="-1.07405">
        <ele>56.034334</ele>
        <time>2022-12-23T14:23:47.731Z</time>
      </trkpt>
      <trkpt lat="45.01216" lon="-1.07409">
        <ele>56.008797</ele>
        <time>2022-12-23T14:23:49.734Z</time>
      </trkpt>
      <trkpt lat="45.01203" lon="-1.07412">
        <ele>55.972173</ele>
        <time>2022-12-23T14:23:52.744Z</time>
      </trkpt>
      <trkpt lat="45.0119" lon="-1.07415">
        <ele>55.935275</ele>
        <time>2022-12-23T14:23:55.755Z</time>
      </trkpt>
      <trkpt lat="45.01181" lon="-1.07419">
        <ele>55.907973</ele>
        <time>2022-12-23T14:23:57.735Z</time>
      </trkpt>
      <trkpt lat="45.01172" lon="-1.07421">
        <ele>55.881769</ele>
        <time>2022-12-23T14:23:59.735Z</time>
      </trkpt>
      <trkpt lat="45.01162" lon="-1.07424">
        <ele>55.854912</ele>
        <time>2022-12-23T14:24:01.734Z</time>
      </trkpt>
      <trkpt lat="45.01149" lon="-1.07429">
        <ele>55.817449</ele>
        <time>2022-12-23T14:24:04.728Z</time>
      </trkpt>
      <trkpt lat="45.01136" lon="-1.07432">
        <ele>55.780138</ele>
        <time>2022-12-23T14:24:07.739Z</time>
      </trkpt>
      <trkpt lat="45.01123" lon="-1.07436">
        <ele>55.744735</ele>
        <time>2022-12-23T14:24:10.741Z</time>
      </trkpt>
      <trkpt lat="45.01112" lon="-1.07439">
        <ele>55.758276</ele>
        <time>2022-12-23T14:24:13.751Z</time>
      </trkpt>
      <trkpt lat="45.01101" lon="-1.07442">
        <ele>55.772188</ele>
        <time>2022-12-23T14:24:16.754Z</time>
      </trkpt>
      <trkpt lat="45.0109" lon="-1.07446">
        <ele>55.786763</ele>
        <time>2022-12-23T14:24:19.744Z</time>
      </trkpt>
      <trkpt lat="45.01077" lon="-1.0745">
        <ele>55.802373</ele>
        <time>2022-12-23T14:24:22.758Z</time>
      </trkpt>
      <trkpt lat="45.01065" lon="-1.07454">
        <ele>55.818068</ele>
        <time>2022-12-23T14:24:25.755Z</time>
      </trkpt>
      <trkpt lat="45.01052" lon="-1.07457">
        <ele>55.833988</ele>
        <time>2022-12-23T14:24:28.756Z</time>
      </trkpt>
      <trkpt lat="45.01043" lon="-1.07461">
        <ele>55.845449</ele>
        <time>2022-12-23T14:24:30.755Z</time>
      </trkpt>
      <trkpt lat="45.01034" lon="-1.07464">
        <ele>55.85763</ele>
        <time>2022-12-23T14:24:32.753Z</time>
      </trkpt>
      <trkpt lat="45.01024" lon="-1.07467">
        <ele>55.870088</ele>
        <time>2022-12-23T14:24:34.752Z</time>
      </trkpt>
      <trkpt lat="45.01015" lon="-1.0747">
        <ele>55.881493</ele>
        <time>2022-12-23T14:24:36.753Z</time>
      </trkpt>
      <trkpt lat="45.01005" lon="-1.07473">
        <ele>55.893389</ele>
        <time>2022-12-23T14:24:38.755Z</time>
      </trkpt>
      <trkpt lat="45.00992" lon="-1.07476">
        <ele>55.91042</ele>
        <time>2022-12-23T14:24:41.771Z</time>
      </trkpt>
      <trkpt lat="45.0098" lon="-1.07479">
        <ele>55.925292</ele>
        <time>2022-12-23T14:24:44.742Z</time>
      </trkpt>
      <trkpt lat="45.00966" lon="-1.07483">
        <ele>55.942118</ele>
        <time>2022-12-23T14:24:47.762Z</time>
      </trkpt>
      <trkpt lat="45.00957" lon="-1.07487">
        <ele>55.954219</ele>
        <time>2022-12-23T14:24:49.734Z</time>
      </trkpt>
      <trkpt lat="45.00947" lon="-1.07489">
        <ele>55.965927</ele>
        <time>2022-12-23T14:24:51.758Z</time>
      </trkpt>
      <trkpt lat="45.00938" lon="-1.07493">
        <ele>55.90866</ele>
        <time>2022-12-23T14:24:53.757Z</time>
      </trkpt>
      <trkpt lat="45.00929" lon="-1.07494">
        <ele>55.853038</ele>
        <time>2022-12-23T14:24:55.755Z</time>
      </trkpt>
      <trkpt lat="45.0092" lon="-1.07496">
        <ele>55.796353</ele>
        <time>2022-12-23T14:24:57.756Z</time>
      </trkpt>
      <trkpt lat="45.00908" lon="-1.07499">
        <ele>55.720155</ele>
        <time>2022-12-23T14:25:00.763Z</time>
      </trkpt>
      <trkpt lat="45.00897" lon="-1.07501">
        <ele>55.6513</ele>
        <time>2022-12-23T14:25:03.761Z</time>
      </trkpt>
      <trkpt lat="45.00886" lon="-1.07506">
        <ele>55.580374</ele>
        <time>2022-12-23T14:25:06.753Z</time>
      </trkpt>
      <trkpt lat="45.00873" lon="-1.0751">
        <ele>55.49906</ele>
        <time>2022-12-23T14:25:09.759Z</time>
      </trkpt>
      <trkpt lat="45.0086" lon="-1.07513">
        <ele>55.416544</ele>
        <time>2022-12-23T14:25:12.760Z</time>
      </trkpt>
      <trkpt lat="45.00847" lon="-1.07517">
        <ele>55.339651</ele>
        <time>2022-12-23T14:25:15.754Z</time>
      </trkpt>
      <trkpt lat="45.00835" lon="-1.07521">
        <ele>55.258852</ele>
        <time>2022-12-23T14:25:18.733Z</time>
      </trkpt>
      <trkpt lat="45.00825" lon="-1.07523">
        <ele>55.201839</ele>
        <time>2022-12-23T14:25:20.755Z</time>
      </trkpt>
      <trkpt lat="45.00816" lon="-1.07525">
        <ele>55.14409</ele>
        <time>2022-12-23T14:25:22.755Z</time>
      </trkpt>
      <trkpt lat="45.00807" lon="-1.07528">
        <ele>55.085598</ele>
        <time>2022-12-23T14:25:24.752Z</time>
      </trkpt>
      <trkpt lat="45.00798" lon="-1.07531">
        <ele>55.029356</ele>
        <time>2022-12-23T14:25:26.752Z</time>
      </trkpt>
      <trkpt lat="45.00789" lon="-1.07533">
        <ele>54.972212</ele>
        <time>2022-12-23T14:25:28.754Z</time>
      </trkpt>
      <trkpt lat="45.00779" lon="-1.07536">
        <ele>54.912794</ele>
        <time>2022-12-23T14:25:30.755Z</time>
      </trkpt>
      <trkpt lat="45.0077" lon="-1.07539">
        <ele>54.863946</ele>
        <time>2022-12-23T14:25:32.751Z</time>
      </trkpt>
      <trkpt lat="45.0076" lon="-1.07542">
        <ele>54.869122</ele>
        <time>2022-12-23T14:25:34.753Z</time>
      </trkpt>
      <trkpt lat="45.00748" lon="-1.07546">
        <ele>54.876319</ele>
        <time>2022-12-23T14:25:37.756Z</time>
      </trkpt>
      <trkpt lat="45.00736" lon="-1.07549">
        <ele>54.883196</ele>
        <time>2022-12-23T14:25:40.742Z</time>
      </trkpt>
      <trkpt lat="45.00726" lon="-1.07552">
        <ele>54.888349</ele>
        <time>2022-12-23T14:25:42.754Z</time>
      </trkpt>
      <trkpt lat="45.00717" lon="-1.07555">
        <ele>54.893773</ele>
        <time>2022-12-23T14:25:44.756Z</time>
      </trkpt>
      <trkpt lat="45.00708" lon="-1.07558">
        <ele>54.898765</ele>
        <time>2022-12-23T14:25:46.754Z</time>
      </trkpt>
      <trkpt lat="45.00698" lon="-1.07561">
        <ele>54.904172</ele>
        <time>2022-12-23T14:25:48.758Z</time>
      </trkpt>
      <trkpt lat="45.00689" lon="-1.07564">
        <ele>54.909371</ele>
        <time>2022-12-23T14:25:50.755Z</time>
      </trkpt>
      <trkpt lat="45.00676" lon="-1.07567">
        <ele>54.916805</ele>
        <time>2022-12-23T14:25:53.752Z</time>
      </trkpt>
      <trkpt lat="45.00667" lon="-1.0757">
        <ele>54.922097</ele>
        <time>2022-12-23T14:25:55.753Z</time>
      </trkpt>
      <trkpt lat="45.00658" lon="-1.07572">
        <ele>54.92711</ele>
        <time>2022-12-23T14:25:57.752Z</time>
      </trkpt>
      <trkpt lat="45.00649" lon="-1.07575">
        <ele>54.932138</ele>
        <time>2022-12-23T14:25:59.732Z</time>
      </trkpt>
      <trkpt lat="45.00636" lon="-1.07579">
        <ele>54.93941</ele>
        <time>2022-12-23T14:26:02.758Z</time>
      </trkpt>
      <trkpt lat="45.00624" lon="-1.07582">
        <ele>54.946017</ele>
        <time>2022-12-23T14:26:05.755Z</time>
      </trkpt>
      <trkpt lat="45.00614" lon="-1.07585">
        <ele>54.952029</ele>
        <time>2022-12-23T14:26:08.755Z</time>
      </trkpt>
      <trkpt lat="45.00602" lon="-1.07589">
        <ele>54.958752</ele>
        <time>2022-12-23T14:26:11.753Z</time>
      </trkpt>
      <trkpt lat="45.0059" lon="-1.07593">
        <ele>54.94525</ele>
        <time>2022-12-23T14:26:14.753Z</time>
      </trkpt>
      <trkpt lat="45.00577" lon="-1.07597">
        <ele>54.904856</ele>
        <time>2022-12-23T14:26:17.756Z</time>
      </trkpt>
      <trkpt lat="45.00568" lon="-1.076">
        <ele>54.876059</ele>
        <time>2022-12-23T14:26:19.759Z</time>
      </trkpt>
      <trkpt lat="45.00558" lon="-1.07604">
        <ele>54.844956</ele>
        <time>2022-12-23T14:26:21.754Z</time>
      </trkpt>
      <trkpt lat="45.00545" lon="-1.07607">
        <ele>54.804341</ele>
        <time>2022-12-23T14:26:24.766Z</time>
      </trkpt>
      <trkpt lat="45.00532" lon="-1.07611">
        <ele>54.762909</ele>
        <time>2022-12-23T14:26:27.759Z</time>
      </trkpt>
      <trkpt lat="45.00522" lon="-1.07613">
        <ele>54.734534</ele>
        <time>2022-12-23T14:26:29.735Z</time>
      </trkpt>
      <trkpt lat="45.00509" lon="-1.07616">
        <ele>54.69422</ele>
        <time>2022-12-23T14:26:32.749Z</time>
      </trkpt>
      <trkpt lat="45.00496" lon="-1.07619">
        <ele>54.6532</ele>
        <time>2022-12-23T14:26:35.755Z</time>
      </trkpt>
      <trkpt lat="45.00487" lon="-1.07622">
        <ele>54.624901</ele>
        <time>2022-12-23T14:26:37.756Z</time>
      </trkpt>
      <trkpt lat="45.00474" lon="-1.07626">
        <ele>54.584552</ele>
        <time>2022-12-23T14:26:40.757Z</time>
      </trkpt>
      <trkpt lat="45.00461" lon="-1.0763">
        <ele>54.544503</ele>
        <time>2022-12-23T14:26:43.754Z</time>
      </trkpt>
      <trkpt lat="45.00449" lon="-1.07634">
        <ele>54.504973</ele>
        <time>2022-12-23T14:26:46.753Z</time>
      </trkpt>
      <trkpt lat="45.00439" lon="-1.07636">
        <ele>54.475661</ele>
        <time>2022-12-23T14:26:48.738Z</time>
      </trkpt>
      <trkpt lat="45.0043" lon="-1.07638">
        <ele>54.448058</ele>
        <time>2022-12-23T14:26:50.753Z</time>
      </trkpt>
      <trkpt lat="45.00421" lon="-1.07642">
        <ele>54.41888</ele>
        <time>2022-12-23T14:26:52.755Z</time>
      </trkpt>
      <trkpt lat="45.00412" lon="-1.07645">
        <ele>54.530309</ele>
        <time>2022-12-23T14:26:54.751Z</time>
      </trkpt>
      <trkpt lat="45.00402" lon="-1.07648">
        <ele>54.683344</ele>
        <time>2022-12-23T14:26:56.753Z</time>
      </trkpt>
      <trkpt lat="45.00393" lon="-1.0765">
        <ele>54.827162</ele>
        <time>2022-12-23T14:26:58.751Z</time>
      </trkpt>
      <trkpt lat="45.00382" lon="-1.07654">
        <ele>55.017925</ele>
        <time>2022-12-23T14:27:01.745Z</time>
      </trkpt>
      <trkpt lat="45.00369" lon="-1.07658">
        <ele>55.222382</ele>
        <time>2022-12-23T14:27:04.758Z</time>
      </trkpt>
      <trkpt lat="45.00356" lon="-1.07662">
        <ele>55.429368</ele>
        <time>2022-12-23T14:27:07.756Z</time>
      </trkpt>
      <trkpt lat="45.00347" lon="-1.07665">
        <ele>55.574138</ele>
        <time>2022-12-23T14:27:09.750Z</time>
      </trkpt>
      <trkpt lat="45.00338" lon="-1.07667">
        <ele>55.716299</ele>
        <time>2022-12-23T14:27:11.739Z</time>
      </trkpt>
      <trkpt lat="45.00329" lon="-1.07668">
        <ele>55.860318</ele>
        <time>2022-12-23T14:27:13.752Z</time>
      </trkpt>
      <trkpt lat="45.0032" lon="-1.07672">
        <ele>56.008919</ele>
        <time>2022-12-23T14:27:15.758Z</time>
      </trkpt>
      <trkpt lat="45.0031" lon="-1.07674">
        <ele>56.154823</ele>
        <time>2022-12-23T14:27:17.757Z</time>
      </trkpt>
      <trkpt lat="45.00301" lon="-1.07678">
        <ele>56.309098</ele>
        <time>2022-12-23T14:27:19.733Z</time>
      </trkpt>
      <trkpt lat="45.00291" lon="-1.0768">
        <ele>56.458648</ele>
        <time>2022-12-23T14:27:21.755Z</time>
      </trkpt>
      <trkpt lat="45.00282" lon="-1.07683">
        <ele>56.606721</ele>
        <time>2022-12-23T14:27:23.751Z</time>
      </trkpt>
      <trkpt lat="45.00269" lon="-1.07686">
        <ele>56.813681</ele>
        <time>2022-12-23T14:27:26.752Z</time>
      </trkpt>
      <trkpt lat="45.0026" lon="-1.07689">
        <ele>56.966153</ele>
        <time>2022-12-23T14:27:28.728Z</time>
      </trkpt>
      <trkpt lat="45.00251" lon="-1.07692">
        <ele>57.108141</ele>
        <time>2022-12-23T14:27:30.738Z</time>
      </trkpt>
      <trkpt lat="45.00238" lon="-1.07696">
        <ele>57.277972</ele>
        <time>2022-12-23T14:27:33.747Z</time>
      </trkpt>
      <trkpt lat="45.00227" lon="-1.077">
        <ele>57.384951</ele>
        <time>2022-12-23T14:27:36.729Z</time>
      </trkpt>
      <trkpt lat="45.00216" lon="-1.07703">
        <ele>57.491441</ele>
        <time>2022-12-23T14:27:39.730Z</time>
      </trkpt>
      <trkpt lat="45.00205" lon="-1.07706">
        <ele>57.596575</ele>
        <time>2022-12-23T14:27:42.741Z</time>
      </trkpt>
      <trkpt lat="45.00194" lon="-1.0771">
        <ele>57.705525</ele>
        <time>2022-12-23T14:27:45.729Z</time>
      </trkpt>
      <trkpt lat="45.00181" lon="-1.07714">
        <ele>57.827434</ele>
        <time>2022-12-23T14:27:48.732Z</time>
      </trkpt>
      <trkpt lat="45.00169" lon="-1.07717">
        <ele>57.948417</ele>
        <time>2022-12-23T14:27:51.730Z</time>
      </trkpt>
      <trkpt lat="45.0016" lon="-1.07718">
        <ele>58.035497</ele>
        <time>2022-12-23T14:27:53.747Z</time>
      </trkpt>
      <trkpt lat="45.00151" lon="-1.07721">
        <ele>58.12179</ele>
        <time>2022-12-23T14:27:55.737Z</time>
      </trkpt>
      <trkpt lat="45.00141" lon="-1.07724">
        <ele>58.216087</ele>
        <time>2022-12-23T14:27:57.728Z</time>
      </trkpt>
      <trkpt lat="45.00128" lon="-1.07728">
        <ele>58.340504</ele>
        <time>2022-12-23T14:28:00.740Z</time>
      </trkpt>
      <trkpt lat="45.00119" lon="-1.0773">
        <ele>58.425499</ele>
        <time>2022-12-23T14:28:02.729Z</time>
      </trkpt>
      <trkpt lat="45.0011" lon="-1.07733">
        <ele>58.515018</ele>
        <time>2022-12-23T14:28:04.739Z</time>
      </trkpt>
      <trkpt lat="45.00101" lon="-1.07737">
        <ele>58.601968</ele>
        <time>2022-12-23T14:28:06.741Z</time>
      </trkpt>
      <trkpt lat="45.0009" lon="-1.07741">
        <ele>58.710004</ele>
        <time>2022-12-23T14:28:09.743Z</time>
      </trkpt>
      <trkpt lat="45.00078" lon="-1.07744">
        <ele>58.823452</ele>
        <time>2022-12-23T14:28:12.759Z</time>
      </trkpt>
      <trkpt lat="45.00065" lon="-1.07748">
        <ele>58.918211</ele>
        <time>2022-12-23T14:28:15.734Z</time>
      </trkpt>
      <trkpt lat="45.00052" lon="-1.07752">
        <ele>58.873497</ele>
        <time>2022-12-23T14:28:18.741Z</time>
      </trkpt>
      <trkpt lat="45.00039" lon="-1.07755">
        <ele>58.829045</ele>
        <time>2022-12-23T14:28:21.728Z</time>
      </trkpt>
      <trkpt lat="45.0003" lon="-1.07758">
        <ele>58.798337</ele>
        <time>2022-12-23T14:28:23.751Z</time>
      </trkpt>
      <trkpt lat="45.00017" lon="-1.07762">
        <ele>58.755052</ele>
        <time>2022-12-23T14:28:26.752Z</time>
      </trkpt>
      <trkpt lat="45.00006" lon="-1.07765">
        <ele>58.719271</ele>
        <time>2022-12-23T14:28:29.756Z</time>
      </trkpt>
      <trkpt lat="44.99994" lon="-1.07769">
        <ele>58.679432</ele>
        <time>2022-12-23T14:28:33.734Z</time>
      </trkpt>
      <trkpt lat="44.99984" lon="-1.07771">
        <ele>58.644228</ele>
        <time>2022-12-23T14:28:36.750Z</time>
      </trkpt>
      <trkpt lat="44.99972" lon="-1.07775">
        <ele>58.604067</ele>
        <time>2022-12-23T14:28:39.756Z</time>
      </trkpt>
      <trkpt lat="44.9996" lon="-1.07778">
        <ele>58.562531</ele>
        <time>2022-12-23T14:28:42.755Z</time>
      </trkpt>
      <trkpt lat="44.99947" lon="-1.07782">
        <ele>58.519845</ele>
        <time>2022-12-23T14:28:45.754Z</time>
      </trkpt>
      <trkpt lat="44.99934" lon="-1.07786">
        <ele>58.47637</ele>
        <time>2022-12-23T14:28:48.734Z</time>
      </trkpt>
      <trkpt lat="44.99921" lon="-1.07789">
        <ele>58.432971</ele>
        <time>2022-12-23T14:28:51.753Z</time>
      </trkpt>
      <trkpt lat="44.99911" lon="-1.07792">
        <ele>58.400555</ele>
        <time>2022-12-23T14:28:53.753Z</time>
      </trkpt>
      <trkpt lat="44.99902" lon="-1.07794">
        <ele>58.370273</ele>
        <time>2022-12-23T14:28:55.755Z</time>
      </trkpt>
      <trkpt lat="44.99893" lon="-1.07796">
        <ele>58.340402</ele>
        <time>2022-12-23T14:28:57.752Z</time>
      </trkpt>
      <trkpt lat="44.99884" lon="-1.07799">
        <ele>58.277222</ele>
        <time>2022-12-23T14:28:59.754Z</time>
      </trkpt>
      <trkpt lat="44.99875" lon="-1.07802">
        <ele>58.208804</ele>
        <time>2022-12-23T14:29:01.733Z</time>
      </trkpt>
      <trkpt lat="44.99861" lon="-1.07807">
        <ele>58.105745</ele>
        <time>2022-12-23T14:29:04.753Z</time>
      </trkpt>
      <trkpt lat="44.99849" lon="-1.0781">
        <ele>58.010356</ele>
        <time>2022-12-23T14:29:07.740Z</time>
      </trkpt>
      <trkpt lat="44.99836" lon="-1.07814">
        <ele>57.911307</ele>
        <time>2022-12-23T14:29:10.732Z</time>
      </trkpt>
      <trkpt lat="44.99825" lon="-1.07817">
        <ele>57.827803</ele>
        <time>2022-12-23T14:29:13.733Z</time>
      </trkpt>
      <trkpt lat="44.99814" lon="-1.0782">
        <ele>57.746363</ele>
        <time>2022-12-23T14:29:16.735Z</time>
      </trkpt>
      <trkpt lat="44.99802" lon="-1.07824">
        <ele>57.654074</ele>
        <time>2022-12-23T14:29:19.741Z</time>
      </trkpt>
      <trkpt lat="44.99789" lon="-1.07827">
        <ele>57.557024</ele>
        <time>2022-12-23T14:29:22.756Z</time>
      </trkpt>
      <trkpt lat="44.99776" lon="-1.07831">
        <ele>57.457431</ele>
        <time>2022-12-23T14:29:25.741Z</time>
      </trkpt>
      <trkpt lat="44.99767" lon="-1.07832">
        <ele>57.390645</ele>
        <time>2022-12-23T14:29:27.754Z</time>
      </trkpt>
      <trkpt lat="44.99754" lon="-1.07836">
        <ele>57.290675</ele>
        <time>2022-12-23T14:29:30.751Z</time>
      </trkpt>
      <trkpt lat="44.99744" lon="-1.0784">
        <ele>57.214676</ele>
        <time>2022-12-23T14:29:32.751Z</time>
      </trkpt>
      <trkpt lat="44.99731" lon="-1.07843">
        <ele>57.116723</ele>
        <time>2022-12-23T14:29:35.752Z</time>
      </trkpt>
      <trkpt lat="44.99722" lon="-1.07846">
        <ele>57.047116</ele>
        <time>2022-12-23T14:29:37.767Z</time>
      </trkpt>
      <trkpt lat="44.99713" lon="-1.07849">
        <ele>56.981134</ele>
        <time>2022-12-23T14:29:39.761Z</time>
      </trkpt>
      <trkpt lat="44.99704" lon="-1.07851">
        <ele>56.924279</ele>
        <time>2022-12-23T14:29:41.757Z</time>
      </trkpt>
      <trkpt lat="44.99695" lon="-1.07853">
        <ele>56.863961</ele>
        <time>2022-12-23T14:29:43.742Z</time>
      </trkpt>
      <trkpt lat="44.99682" lon="-1.07856">
        <ele>56.780266</ele>
        <time>2022-12-23T14:29:46.753Z</time>
      </trkpt>
      <trkpt lat="44.9967" lon="-1.0786">
        <ele>56.703551</ele>
        <time>2022-12-23T14:29:49.748Z</time>
      </trkpt>
      <trkpt lat="44.99657" lon="-1.07864">
        <ele>56.617824</ele>
        <time>2022-12-23T14:29:52.742Z</time>
      </trkpt>
      <trkpt lat="44.99644" lon="-1.07868">
        <ele>56.536487</ele>
        <time>2022-12-23T14:29:55.743Z</time>
      </trkpt>
      <trkpt lat="44.99635" lon="-1.07871">
        <ele>56.477626</ele>
        <time>2022-12-23T14:29:57.743Z</time>
      </trkpt>
      <trkpt lat="44.99625" lon="-1.07874">
        <ele>56.415661</ele>
        <time>2022-12-23T14:29:59.763Z</time>
      </trkpt>
      <trkpt lat="44.99616" lon="-1.07877">
        <ele>56.355989</ele>
        <time>2022-12-23T14:30:01.752Z</time>
      </trkpt>
      <trkpt lat="44.99607" lon="-1.0788">
        <ele>56.294337</ele>
        <time>2022-12-23T14:30:03.756Z</time>
      </trkpt>
      <trkpt lat="44.99598" lon="-1.07884">
        <ele>56.235476</ele>
        <time>2022-12-23T14:30:05.758Z</time>
      </trkpt>
      <trkpt lat="44.99589" lon="-1.07887">
        <ele>56.177039</ele>
        <time>2022-12-23T14:30:07.735Z</time>
      </trkpt>
      <trkpt lat="44.9958" lon="-1.07887">
        <ele>56.118121</ele>
        <time>2022-12-23T14:30:09.753Z</time>
      </trkpt>
      <trkpt lat="44.99567" lon="-1.07892">
        <ele>56.035511</ele>
        <time>2022-12-23T14:30:12.751Z</time>
      </trkpt>
      <trkpt lat="44.99557" lon="-1.07895">
        <ele>55.973545</ele>
        <time>2022-12-23T14:30:14.744Z</time>
      </trkpt>
      <trkpt lat="44.99545" lon="-1.07899">
        <ele>55.89036</ele>
        <time>2022-12-23T14:30:17.751Z</time>
      </trkpt>
      <trkpt lat="44.99533" lon="-1.07902">
        <ele>55.853542</ele>
        <time>2022-12-23T14:30:20.748Z</time>
      </trkpt>
      <trkpt lat="44.99521" lon="-1.07905">
        <ele>55.846717</ele>
        <time>2022-12-23T14:30:23.753Z</time>
      </trkpt>
      <trkpt lat="44.99509" lon="-1.07908">
        <ele>55.839679</ele>
        <time>2022-12-23T14:30:26.742Z</time>
      </trkpt>
      <trkpt lat="44.99496" lon="-1.07911">
        <ele>55.832665</ele>
        <time>2022-12-23T14:30:29.745Z</time>
      </trkpt>
      <trkpt lat="44.99484" lon="-1.07915">
        <ele>55.825501</ele>
        <time>2022-12-23T14:30:32.752Z</time>
      </trkpt>
      <trkpt lat="44.99471" lon="-1.0792">
        <ele>55.818146</ele>
        <time>2022-12-23T14:30:35.752Z</time>
      </trkpt>
      <trkpt lat="44.99459" lon="-1.07924">
        <ele>55.810953</ele>
        <time>2022-12-23T14:30:38.755Z</time>
      </trkpt>
      <trkpt lat="44.99449" lon="-1.07928">
        <ele>55.805441</ele>
        <time>2022-12-23T14:30:40.741Z</time>
      </trkpt>
      <trkpt lat="44.9944" lon="-1.0793">
        <ele>55.800286</ele>
        <time>2022-12-23T14:30:42.755Z</time>
      </trkpt>
      <trkpt lat="44.99428" lon="-1.07933">
        <ele>55.793578</ele>
        <time>2022-12-23T14:30:45.754Z</time>
      </trkpt>
      <trkpt lat="44.99416" lon="-1.07936">
        <ele>55.786883</ele>
        <time>2022-12-23T14:30:48.754Z</time>
      </trkpt>
      <trkpt lat="44.99404" lon="-1.0794">
        <ele>55.779945</ele>
        <time>2022-12-23T14:30:51.757Z</time>
      </trkpt>
      <trkpt lat="44.99392" lon="-1.07944">
        <ele>55.772962</ele>
        <time>2022-12-23T14:30:54.753Z</time>
      </trkpt>
      <trkpt lat="44.9938" lon="-1.07948">
        <ele>55.765942</ele>
        <time>2022-12-23T14:30:57.741Z</time>
      </trkpt>
      <trkpt lat="44.99367" lon="-1.07951">
        <ele>55.758739</ele>
        <time>2022-12-23T14:31:00.762Z</time>
      </trkpt>
      <trkpt lat="44.99355" lon="-1.07953">
        <ele>55.820154</ele>
        <time>2022-12-23T14:31:03.761Z</time>
      </trkpt>
      <trkpt lat="44.99346" lon="-1.07956">
        <ele>55.889556</ele>
        <time>2022-12-23T14:31:05.755Z</time>
      </trkpt>
      <trkpt lat="44.99336" lon="-1.07959">
        <ele>55.964715</ele>
        <time>2022-12-23T14:31:07.733Z</time>
      </trkpt>
      <trkpt lat="44.99323" lon="-1.07961">
        <ele>56.058872</ele>
        <time>2022-12-23T14:31:10.763Z</time>
      </trkpt>
      <trkpt lat="44.99315" lon="-1.07965">
        <ele>56.126387</ele>
        <time>2022-12-23T14:31:12.735Z</time>
      </trkpt>
      <trkpt lat="44.99305" lon="-1.07967">
        <ele>56.199659</ele>
        <time>2022-12-23T14:31:14.751Z</time>
      </trkpt>
      <trkpt lat="44.99292" lon="-1.0797">
        <ele>56.295681</ele>
        <time>2022-12-23T14:31:17.735Z</time>
      </trkpt>
      <trkpt lat="44.9928" lon="-1.07975">
        <ele>56.394487</ele>
        <time>2022-12-23T14:31:20.732Z</time>
      </trkpt>
      <trkpt lat="44.99267" lon="-1.07979">
        <ele>56.487484</ele>
        <time>2022-12-23T14:31:23.744Z</time>
      </trkpt>
      <trkpt lat="44.99259" lon="-1.07982">
        <ele>56.555576</ele>
        <time>2022-12-23T14:31:25.743Z</time>
      </trkpt>
      <trkpt lat="44.9925" lon="-1.07985">
        <ele>56.625698</ele>
        <time>2022-12-23T14:31:27.741Z</time>
      </trkpt>
      <trkpt lat="44.9924" lon="-1.07988">
        <ele>56.695526</ele>
        <time>2022-12-23T14:31:29.757Z</time>
      </trkpt>
      <trkpt lat="44.99228" lon="-1.07993">
        <ele>56.788755</ele>
        <time>2022-12-23T14:31:32.759Z</time>
      </trkpt>
      <trkpt lat="44.99219" lon="-1.07996">
        <ele>56.858622</ele>
        <time>2022-12-23T14:31:34.752Z</time>
      </trkpt>
      <trkpt lat="44.9921" lon="-1.07999">
        <ele>56.925948</ele>
        <time>2022-12-23T14:31:36.755Z</time>
      </trkpt>
      <trkpt lat="44.99201" lon="-1.08002">
        <ele>56.99562</ele>
        <time>2022-12-23T14:31:38.751Z</time>
      </trkpt>
      <trkpt lat="44.99189" lon="-1.08005">
        <ele>57.088448</ele>
        <time>2022-12-23T14:31:41.761Z</time>
      </trkpt>
      <trkpt lat="44.99176" lon="-1.08009">
        <ele>57.087474</ele>
        <time>2022-12-23T14:31:44.753Z</time>
      </trkpt>
      <trkpt lat="44.99163" lon="-1.08013">
        <ele>57.074305</ele>
        <time>2022-12-23T14:31:47.757Z</time>
      </trkpt>
      <trkpt lat="44.99152" lon="-1.08016">
        <ele>57.062296</ele>
        <time>2022-12-23T14:31:50.752Z</time>
      </trkpt>
      <trkpt lat="44.99141" lon="-1.08019">
        <ele>57.051295</ele>
        <time>2022-12-23T14:31:53.751Z</time>
      </trkpt>
      <trkpt lat="44.9913" lon="-1.08021">
        <ele>57.040411</ele>
        <time>2022-12-23T14:31:56.750Z</time>
      </trkpt>
      <trkpt lat="44.99119" lon="-1.08024">
        <ele>57.029298</ele>
        <time>2022-12-23T14:31:59.751Z</time>
      </trkpt>
      <trkpt lat="44.99109" lon="-1.08028">
        <ele>57.01877</ele>
        <time>2022-12-23T14:32:02.751Z</time>
      </trkpt>
      <trkpt lat="44.99099" lon="-1.0803">
        <ele>57.008521</ele>
        <time>2022-12-23T14:32:05.747Z</time>
      </trkpt>
      <trkpt lat="44.9909" lon="-1.08025">
        <ele>56.998842</ele>
        <time>2022-12-23T14:32:08.733Z</time>
      </trkpt>
      <trkpt lat="44.99083" lon="-1.08015">
        <ele>56.988585</ele>
        <time>2022-12-23T14:32:11.738Z</time>
      </trkpt>
      <trkpt lat="44.99076" lon="-1.08002">
        <ele>56.9771</ele>
        <time>2022-12-23T14:32:14.749Z</time>
      </trkpt>
      <trkpt lat="44.99068" lon="-1.07987">
        <ele>56.964533</ele>
        <time>2022-12-23T14:32:17.757Z</time>
      </trkpt>
      <trkpt lat="44.99061" lon="-1.07973">
        <ele>56.952016</ele>
        <time>2022-12-23T14:32:20.755Z</time>
      </trkpt>
      <trkpt lat="44.99054" lon="-1.07959">
        <ele>56.939555</ele>
        <time>2022-12-23T14:32:23.753Z</time>
      </trkpt>
      <trkpt lat="44.99047" lon="-1.07945">
        <ele>56.927795</ele>
        <time>2022-12-23T14:32:26.753Z</time>
      </trkpt>
      <trkpt lat="44.9904" lon="-1.07933">
        <ele>56.909172</ele>
        <time>2022-12-23T14:32:29.736Z</time>
      </trkpt>
      <trkpt lat="44.99034" lon="-1.07922">
        <ele>56.874349</ele>
        <time>2022-12-23T14:32:32.752Z</time>
      </trkpt>
      <trkpt lat="44.99028" lon="-1.07909">
        <ele>56.834502</ele>
        <time>2022-12-23T14:32:36.754Z</time>
      </trkpt>
      <trkpt lat="44.99024" lon="-1.07897">
        <ele>56.800977</ele>
        <time>2022-12-23T14:32:39.755Z</time>
      </trkpt>
      <trkpt lat="44.99018" lon="-1.07886">
        <ele>56.765945</ele>
        <time>2022-12-23T14:32:42.752Z</time>
      </trkpt>
      <trkpt lat="44.99013" lon="-1.07875">
        <ele>56.731553</ele>
        <time>2022-12-23T14:32:45.756Z</time>
      </trkpt>
      <trkpt lat="44.99007" lon="-1.07862">
        <ele>56.691455</ele>
        <time>2022-12-23T14:32:49.752Z</time>
      </trkpt>
      <trkpt lat="44.98998" lon="-1.07856">
        <ele>56.654085</ele>
        <time>2022-12-23T14:32:54.743Z</time>
      </trkpt>
      <trkpt lat="44.9899" lon="-1.07863">
        <ele>56.620268</ele>
        <time>2022-12-23T14:32:58.741Z</time>
      </trkpt>
      <trkpt lat="44.98988" lon="-1.07877">
        <ele>56.582892</ele>
        <time>2022-12-23T14:33:03.733Z</time>
      </trkpt>
      <trkpt lat="44.98994" lon="-1.07892">
        <ele>56.539265</ele>
        <time>2022-12-23T14:33:07.736Z</time>
      </trkpt>
      <trkpt lat="44.98999" lon="-1.07905">
        <ele>56.500866</ele>
        <time>2022-12-23T14:33:10.753Z</time>
      </trkpt>
      <trkpt lat="44.99005" lon="-1.07918">
        <ele>56.461239</ele>
        <time>2022-12-23T14:33:13.737Z</time>
      </trkpt>
      <trkpt lat="44.99011" lon="-1.07932">
        <ele>56.419391</ele>
        <time>2022-12-23T14:33:16.749Z</time>
      </trkpt>
      <trkpt lat="44.99018" lon="-1.07946">
        <ele>56.374299</ele>
        <time>2022-12-23T14:33:19.753Z</time>
      </trkpt>
      <trkpt lat="44.99025" lon="-1.07961">
        <ele>56.328804</ele>
        <time>2022-12-23T14:33:22.752Z</time>
      </trkpt>
      <trkpt lat="44.99031" lon="-1.0797">
        <ele>56.295755</ele>
        <time>2022-12-23T14:33:24.756Z</time>
      </trkpt>
      <trkpt lat="44.99039" lon="-1.07984">
        <ele>56.23991</ele>
        <time>2022-12-23T14:33:27.753Z</time>
      </trkpt>
      <trkpt lat="44.99045" lon="-1.07998">
        <ele>56.15994</ele>
        <time>2022-12-23T14:33:30.755Z</time>
      </trkpt>
      <trkpt lat="44.99051" lon="-1.0801">
        <ele>56.08826</ele>
        <time>2022-12-23T14:33:33.764Z</time>
      </trkpt>
      <trkpt lat="44.99058" lon="-1.08021">
        <ele>56.018059</ele>
        <time>2022-12-23T14:33:36.750Z</time>
      </trkpt>
      <trkpt lat="44.99063" lon="-1.08032">
        <ele>55.956406</ele>
        <time>2022-12-23T14:33:39.758Z</time>
      </trkpt>
      <trkpt lat="44.99055" lon="-1.08042">
        <ele>55.88582</ele>
        <time>2022-12-23T14:33:43.745Z</time>
      </trkpt>
      <trkpt lat="44.99046" lon="-1.08045">
        <ele>55.822437</ele>
        <time>2022-12-23T14:33:46.741Z</time>
      </trkpt>
      <trkpt lat="44.99035" lon="-1.08049">
        <ele>55.748915</ele>
        <time>2022-12-23T14:33:49.753Z</time>
      </trkpt>
      <trkpt lat="44.99025" lon="-1.08052">
        <ele>55.674081</ele>
        <time>2022-12-23T14:33:52.756Z</time>
      </trkpt>
      <trkpt lat="44.99013" lon="-1.08056">
        <ele>55.594484</ele>
        <time>2022-12-23T14:33:55.754Z</time>
      </trkpt>
      <trkpt lat="44.99002" lon="-1.08059">
        <ele>55.514028</ele>
        <time>2022-12-23T14:33:58.731Z</time>
      </trkpt>
      <trkpt lat="44.98989" lon="-1.08063">
        <ele>55.42531</ele>
        <time>2022-12-23T14:34:01.752Z</time>
      </trkpt>
      <trkpt lat="44.98976" lon="-1.08066">
        <ele>55.337806</ele>
        <time>2022-12-23T14:34:04.746Z</time>
      </trkpt>
      <trkpt lat="44.98964" lon="-1.0807">
        <ele>55.251842</ele>
        <time>2022-12-23T14:34:07.762Z</time>
      </trkpt>
      <trkpt lat="44.98951" lon="-1.08074">
        <ele>55.16246</ele>
        <time>2022-12-23T14:34:10.736Z</time>
      </trkpt>
      <trkpt lat="44.98942" lon="-1.08076">
        <ele>55.100716</ele>
        <time>2022-12-23T14:34:12.732Z</time>
      </trkpt>
      <trkpt lat="44.98929" lon="-1.0808">
        <ele>55.128895</ele>
        <time>2022-12-23T14:34:15.750Z</time>
      </trkpt>
      <trkpt lat="44.98917" lon="-1.08083">
        <ele>55.324022</ele>
        <time>2022-12-23T14:34:18.740Z</time>
      </trkpt>
      <trkpt lat="44.98905" lon="-1.08087">
        <ele>55.525723</ele>
        <time>2022-12-23T14:34:21.752Z</time>
      </trkpt>
      <trkpt lat="44.98892" lon="-1.08091">
        <ele>55.732909</ele>
        <time>2022-12-23T14:34:24.751Z</time>
      </trkpt>
      <trkpt lat="44.9888" lon="-1.08096">
        <ele>55.94364</ele>
        <time>2022-12-23T14:34:27.758Z</time>
      </trkpt>
      <trkpt lat="44.98868" lon="-1.081">
        <ele>56.134616</ele>
        <time>2022-12-23T14:34:30.747Z</time>
      </trkpt>
      <trkpt lat="44.98857" lon="-1.08104">
        <ele>56.322188</ele>
        <time>2022-12-23T14:34:33.758Z</time>
      </trkpt>
      <trkpt lat="44.98845" lon="-1.08107">
        <ele>56.515326</ele>
        <time>2022-12-23T14:34:36.758Z</time>
      </trkpt>
      <trkpt lat="44.98833" lon="-1.08111">
        <ele>56.720944</ele>
        <time>2022-12-23T14:34:39.729Z</time>
      </trkpt>
      <trkpt lat="44.9882" lon="-1.08115">
        <ele>56.930044</ele>
        <time>2022-12-23T14:34:42.754Z</time>
      </trkpt>
      <trkpt lat="44.98808" lon="-1.08118">
        <ele>57.127629</ele>
        <time>2022-12-23T14:34:45.751Z</time>
      </trkpt>
      <trkpt lat="44.98796" lon="-1.08121">
        <ele>57.330306</ele>
        <time>2022-12-23T14:34:48.752Z</time>
      </trkpt>
      <trkpt lat="44.98787" lon="-1.08122">
        <ele>57.477917</ele>
        <time>2022-12-23T14:34:50.750Z</time>
      </trkpt>
      <trkpt lat="44.98778" lon="-1.08126">
        <ele>57.629383</ele>
        <time>2022-12-23T14:34:52.738Z</time>
      </trkpt>
      <trkpt lat="44.98766" lon="-1.08129">
        <ele>57.825894</ele>
        <time>2022-12-23T14:34:55.748Z</time>
      </trkpt>
      <trkpt lat="44.98757" lon="-1.08131">
        <ele>57.956315</ele>
        <time>2022-12-23T14:34:57.751Z</time>
      </trkpt>
      <trkpt lat="44.98744" lon="-1.08134">
        <ele>58.035463</ele>
        <time>2022-12-23T14:35:00.753Z</time>
      </trkpt>
      <trkpt lat="44.98731" lon="-1.08137">
        <ele>58.114146</ele>
        <time>2022-12-23T14:35:03.760Z</time>
      </trkpt>
      <trkpt lat="44.98719" lon="-1.08139">
        <ele>58.190169</ele>
        <time>2022-12-23T14:35:06.730Z</time>
      </trkpt>
      <trkpt lat="44.98706" lon="-1.08141">
        <ele>58.264983</ele>
        <time>2022-12-23T14:35:09.754Z</time>
      </trkpt>
      <trkpt lat="44.98694" lon="-1.08142">
        <ele>58.34051</ele>
        <time>2022-12-23T14:35:12.756Z</time>
      </trkpt>
      <trkpt lat="44.98682" lon="-1.08143">
        <ele>58.41138</ele>
        <time>2022-12-23T14:35:15.749Z</time>
      </trkpt>
      <trkpt lat="44.98672" lon="-1.08145">
        <ele>58.474935</ele>
        <time>2022-12-23T14:35:19.754Z</time>
      </trkpt>
      <trkpt lat="44.98661" lon="-1.08147">
        <ele>58.54516</ele>
        <time>2022-12-23T14:35:24.728Z</time>
      </trkpt>
      <trkpt lat="44.9865" lon="-1.08149">
        <ele>58.608842</ele>
        <time>2022-12-23T14:35:28.757Z</time>
      </trkpt>
      <trkpt lat="44.9864" lon="-1.08151">
        <ele>58.66962</ele>
        <time>2022-12-23T14:35:32.751Z</time>
      </trkpt>
      <trkpt lat="44.98632" lon="-1.0816">
        <ele>58.731012</ele>
        <time>2022-12-23T14:35:38.751Z</time>
      </trkpt>
      <trkpt lat="44.98624" lon="-1.08165">
        <ele>58.786282</ele>
        <time>2022-12-23T14:35:42.753Z</time>
      </trkpt>
      <trkpt lat="44.98612" lon="-1.08163">
        <ele>58.858023</ele>
        <time>2022-12-23T14:35:46.737Z</time>
      </trkpt>
      <trkpt lat="44.98603" lon="-1.0816">
        <ele>58.918656</ele>
        <time>2022-12-23T14:35:49.764Z</time>
      </trkpt>
      <trkpt lat="44.98592" lon="-1.08157">
        <ele>58.986018</ele>
        <time>2022-12-23T14:35:52.743Z</time>
      </trkpt>
      <trkpt lat="44.9858" lon="-1.08158">
        <ele>58.976218</ele>
        <time>2022-12-23T14:35:55.749Z</time>
      </trkpt>
      <trkpt lat="44.98569" lon="-1.08157">
        <ele>58.634754</ele>
        <time>2022-12-23T14:35:58.731Z</time>
      </trkpt>
      <trkpt lat="44.98558" lon="-1.08157">
        <ele>58.290049</ele>
        <time>2022-12-23T14:36:01.739Z</time>
      </trkpt>
      <trkpt lat="44.98547" lon="-1.08157">
        <ele>57.948586</ele>
        <time>2022-12-23T14:36:04.750Z</time>
      </trkpt>
      <trkpt lat="44.98535" lon="-1.08157">
        <ele>57.57019</ele>
        <time>2022-12-23T14:36:07.753Z</time>
      </trkpt>
      <trkpt lat="44.98522" lon="-1.08157">
        <ele>57.185512</ele>
        <time>2022-12-23T14:36:10.752Z</time>
      </trkpt>
      <trkpt lat="44.98509" lon="-1.08157">
        <ele>56.776171</ele>
        <time>2022-12-23T14:36:13.754Z</time>
      </trkpt>
      <trkpt lat="44.98496" lon="-1.08157">
        <ele>56.370091</ele>
        <time>2022-12-23T14:36:16.753Z</time>
      </trkpt>
      <trkpt lat="44.98487" lon="-1.08157">
        <ele>56.090023</ele>
        <time>2022-12-23T14:36:18.734Z</time>
      </trkpt>
      <trkpt lat="44.98474" lon="-1.08157">
        <ele>55.699195</ele>
        <time>2022-12-23T14:36:21.752Z</time>
      </trkpt>
      <trkpt lat="44.98461" lon="-1.08156">
        <ele>55.292556</ele>
        <time>2022-12-23T14:36:24.755Z</time>
      </trkpt>
      <trkpt lat="44.98452" lon="-1.08155">
        <ele>55.008537</ele>
        <time>2022-12-23T14:36:26.755Z</time>
      </trkpt>
      <trkpt lat="44.98439" lon="-1.08155">
        <ele>54.617861</ele>
        <time>2022-12-23T14:36:29.750Z</time>
      </trkpt>
      <trkpt lat="44.98426" lon="-1.08155">
        <ele>54.230206</ele>
        <time>2022-12-23T14:36:32.752Z</time>
      </trkpt>
      <trkpt lat="44.98414" lon="-1.08155">
        <ele>53.845381</ele>
        <time>2022-12-23T14:36:35.749Z</time>
      </trkpt>
      <trkpt lat="44.98401" lon="-1.08153">
        <ele>53.48947</ele>
        <time>2022-12-23T14:36:38.748Z</time>
      </trkpt>
      <trkpt lat="44.98389" lon="-1.08153">
        <ele>53.338902</ele>
        <time>2022-12-23T14:36:41.756Z</time>
      </trkpt>
      <trkpt lat="44.98376" lon="-1.08151">
        <ele>53.184179</ele>
        <time>2022-12-23T14:36:44.757Z</time>
      </trkpt>
      <trkpt lat="44.98366" lon="-1.08151">
        <ele>53.051982</ele>
        <time>2022-12-23T14:36:47.753Z</time>
      </trkpt>
      <trkpt lat="44.98356" lon="-1.08149">
        <ele>52.93127</ele>
        <time>2022-12-23T14:36:50.751Z</time>
      </trkpt>
      <trkpt lat="44.98344" lon="-1.08148">
        <ele>52.79017</ele>
        <time>2022-12-23T14:36:53.756Z</time>
      </trkpt>
      <trkpt lat="44.98332" lon="-1.08147">
        <ele>52.640637</ele>
        <time>2022-12-23T14:36:56.723Z</time>
      </trkpt>
      <trkpt lat="44.98319" lon="-1.08146">
        <ele>52.479668</ele>
        <time>2022-12-23T14:36:59.735Z</time>
      </trkpt>
      <trkpt lat="44.98306" lon="-1.08144">
        <ele>52.323306</ele>
        <time>2022-12-23T14:37:02.750Z</time>
      </trkpt>
      <trkpt lat="44.98294" lon="-1.08142">
        <ele>52.168509</ele>
        <time>2022-12-23T14:37:05.755Z</time>
      </trkpt>
      <trkpt lat="44.98281" lon="-1.08141">
        <ele>52.015467</ele>
        <time>2022-12-23T14:37:08.732Z</time>
      </trkpt>
      <trkpt lat="44.98269" lon="-1.0814">
        <ele>51.860941</ele>
        <time>2022-12-23T14:37:11.753Z</time>
      </trkpt>
      <trkpt lat="44.98255" lon="-1.08138">
        <ele>51.698497</ele>
        <time>2022-12-23T14:37:14.754Z</time>
      </trkpt>
      <trkpt lat="44.98246" lon="-1.08137">
        <ele>51.580873</ele>
        <time>2022-12-23T14:37:16.753Z</time>
      </trkpt>
      <trkpt lat="44.98236" lon="-1.08136">
        <ele>51.460509</ele>
        <time>2022-12-23T14:37:18.745Z</time>
      </trkpt>
      <trkpt lat="44.98226" lon="-1.08135">
        <ele>51.340067</ele>
        <time>2022-12-23T14:37:20.749Z</time>
      </trkpt>
      <trkpt lat="44.98215" lon="-1.08132">
        <ele>51.308985</ele>
        <time>2022-12-23T14:37:23.756Z</time>
      </trkpt>
      <trkpt lat="44.98202" lon="-1.08131">
        <ele>51.310326</ele>
        <time>2022-12-23T14:37:26.756Z</time>
      </trkpt>
      <trkpt lat="44.98191" lon="-1.08131">
        <ele>51.311567</ele>
        <time>2022-12-23T14:37:29.755Z</time>
      </trkpt>
      <trkpt lat="44.9818" lon="-1.08129">
        <ele>51.312824</ele>
        <time>2022-12-23T14:37:32.756Z</time>
      </trkpt>
      <trkpt lat="44.98167" lon="-1.08128">
        <ele>51.31419</ele>
        <time>2022-12-23T14:37:35.754Z</time>
      </trkpt>
      <trkpt lat="44.98155" lon="-1.08127">
        <ele>51.315544</ele>
        <time>2022-12-23T14:37:38.753Z</time>
      </trkpt>
      <trkpt lat="44.98142" lon="-1.08126">
        <ele>51.316928</ele>
        <time>2022-12-23T14:37:41.749Z</time>
      </trkpt>
      <trkpt lat="44.9813" lon="-1.08126">
        <ele>51.318345</ele>
        <time>2022-12-23T14:37:44.748Z</time>
      </trkpt>
      <trkpt lat="44.98117" lon="-1.08124">
        <ele>51.319711</ele>
        <time>2022-12-23T14:37:47.748Z</time>
      </trkpt>
      <trkpt lat="44.98108" lon="-1.08123">
        <ele>51.320729</ele>
        <time>2022-12-23T14:37:49.750Z</time>
      </trkpt>
      <trkpt lat="44.98099" lon="-1.08122">
        <ele>51.321752</ele>
        <time>2022-12-23T14:37:51.755Z</time>
      </trkpt>
      <trkpt lat="44.98089" lon="-1.08121">
        <ele>51.322762</ele>
        <time>2022-12-23T14:37:53.736Z</time>
      </trkpt>
      <trkpt lat="44.98079" lon="-1.0812">
        <ele>51.323931</ele>
        <time>2022-12-23T14:37:56.752Z</time>
      </trkpt>
      <trkpt lat="44.98068" lon="-1.08119">
        <ele>51.325129</ele>
        <time>2022-12-23T14:37:59.728Z</time>
      </trkpt>
      <trkpt lat="44.98056" lon="-1.08118">
        <ele>51.326416</ele>
        <time>2022-12-23T14:38:02.748Z</time>
      </trkpt>
      <trkpt lat="44.98044" lon="-1.08118">
        <ele>51.333053</ele>
        <time>2022-12-23T14:38:05.745Z</time>
      </trkpt>
      <trkpt lat="44.98032" lon="-1.08116">
        <ele>51.447983</ele>
        <time>2022-12-23T14:38:08.752Z</time>
      </trkpt>
      <trkpt lat="44.98019" lon="-1.08115">
        <ele>51.571185</ele>
        <time>2022-12-23T14:38:11.741Z</time>
      </trkpt>
      <trkpt lat="44.98006" lon="-1.08113">
        <ele>51.701534</ele>
        <time>2022-12-23T14:38:14.756Z</time>
      </trkpt>
      <trkpt lat="44.97994" lon="-1.08113">
        <ele>51.823651</ele>
        <time>2022-12-23T14:38:17.752Z</time>
      </trkpt>
      <trkpt lat="44.97981" lon="-1.08111">
        <ele>51.950109</ele>
        <time>2022-12-23T14:38:20.749Z</time>
      </trkpt>
      <trkpt lat="44.97968" lon="-1.0811">
        <ele>52.077287</ele>
        <time>2022-12-23T14:38:23.749Z</time>
      </trkpt>
      <trkpt lat="44.97955" lon="-1.08109">
        <ele>52.203354</ele>
        <time>2022-12-23T14:38:26.729Z</time>
      </trkpt>
      <trkpt lat="44.97942" lon="-1.08109">
        <ele>52.323596</ele>
        <time>2022-12-23T14:38:29.743Z</time>
      </trkpt>
      <trkpt lat="44.97932" lon="-1.08107">
        <ele>52.428362</ele>
        <time>2022-12-23T14:38:32.744Z</time>
      </trkpt>
      <trkpt lat="44.97921" lon="-1.08107">
        <ele>52.531048</ele>
        <time>2022-12-23T14:38:35.732Z</time>
      </trkpt>
      <trkpt lat="44.9791" lon="-1.08105">
        <ele>52.640078</ele>
        <time>2022-12-23T14:38:38.751Z</time>
      </trkpt>
      <trkpt lat="44.97898" lon="-1.08103">
        <ele>52.756879</ele>
        <time>2022-12-23T14:38:41.755Z</time>
      </trkpt>
      <trkpt lat="44.97887" lon="-1.08102">
        <ele>52.869394</ele>
        <time>2022-12-23T14:38:44.755Z</time>
      </trkpt>
      <trkpt lat="44.97875" lon="-1.08102">
        <ele>52.981715</ele>
        <time>2022-12-23T14:38:47.754Z</time>
      </trkpt>
      <trkpt lat="44.97866" lon="-1.08101">
        <ele>53.073677</ele>
        <time>2022-12-23T14:38:50.753Z</time>
      </trkpt>
      <trkpt lat="44.97854" lon="-1.081">
        <ele>53.261098</ele>
        <time>2022-12-23T14:38:54.748Z</time>
      </trkpt>
      <trkpt lat="44.97845" lon="-1.08101">
        <ele>53.414382</ele>
        <time>2022-12-23T14:38:57.746Z</time>
      </trkpt>
      <trkpt lat="44.97834" lon="-1.081">
        <ele>53.584148</ele>
        <time>2022-12-23T14:39:01.750Z</time>
      </trkpt>
      <trkpt lat="44.97824" lon="-1.081">
        <ele>53.757205</ele>
        <time>2022-12-23T14:39:06.748Z</time>
      </trkpt>
      <trkpt lat="44.97814" lon="-1.08099">
        <ele>53.921574</ele>
        <time>2022-12-23T14:39:11.744Z</time>
      </trkpt>
      <trkpt lat="44.97805" lon="-1.08096">
        <ele>54.081516</ele>
        <time>2022-12-23T14:39:15.730Z</time>
      </trkpt>
      <trkpt lat="44.97795" lon="-1.08095">
        <ele>54.232047</ele>
        <time>2022-12-23T14:39:18.731Z</time>
      </trkpt>
      <trkpt lat="44.97786" lon="-1.08093">
        <ele>54.394779</ele>
        <time>2022-12-23T14:39:21.750Z</time>
      </trkpt>
      <trkpt lat="44.97775" lon="-1.08092">
        <ele>54.566668</ele>
        <time>2022-12-23T14:39:24.752Z</time>
      </trkpt>
      <trkpt lat="44.97765" lon="-1.08091">
        <ele>54.74203</ele>
        <time>2022-12-23T14:39:27.742Z</time>
      </trkpt>
      <trkpt lat="44.97754" lon="-1.0809">
        <ele>54.911856</ele>
        <time>2022-12-23T14:39:30.745Z</time>
      </trkpt>
      <trkpt lat="44.97744" lon="-1.08089">
        <ele>55.088964</ele>
        <time>2022-12-23T14:39:33.738Z</time>
      </trkpt>
      <trkpt lat="44.97734" lon="-1.08083">
        <ele>55.263471</ele>
        <time>2022-12-23T14:39:36.733Z</time>
      </trkpt>
      <trkpt lat="44.97727" lon="-1.08073">
        <ele>55.432299</ele>
        <time>2022-12-23T14:39:39.738Z</time>
      </trkpt>
      <trkpt lat="44.9772" lon="-1.08063">
        <ele>55.588377</ele>
        <time>2022-12-23T14:39:42.756Z</time>
      </trkpt>
      <trkpt lat="44.97713" lon="-1.08053">
        <ele>55.751574</ele>
        <time>2022-12-23T14:39:45.755Z</time>
      </trkpt>
      <trkpt lat="44.97703" lon="-1.08049">
        <ele>55.919123</ele>
        <time>2022-12-23T14:39:48.741Z</time>
      </trkpt>
      <trkpt lat="44.97692" lon="-1.08047">
        <ele>56.066151</ele>
        <time>2022-12-23T14:39:52.742Z</time>
      </trkpt>
      <trkpt lat="44.97681" lon="-1.08047">
        <ele>56.111168</ele>
        <time>2022-12-23T14:39:55.728Z</time>
      </trkpt>
      <trkpt lat="44.97671" lon="-1.08046">
        <ele>56.158514</ele>
        <time>2022-12-23T14:39:58.731Z</time>
      </trkpt>
      <trkpt lat="44.9766" lon="-1.08044">
        <ele>56.206512</ele>
        <time>2022-12-23T14:40:01.751Z</time>
      </trkpt>
      <trkpt lat="44.97649" lon="-1.08047">
        <ele>56.253095</ele>
        <time>2022-12-23T14:40:05.748Z</time>
      </trkpt>
      <trkpt lat="44.97647" lon="-1.08061">
        <ele>56.297844</ele>
        <time>2022-12-23T14:40:09.729Z</time>
      </trkpt>
      <trkpt lat="44.97643" lon="-1.08075">
        <ele>56.344053</ele>
        <time>2022-12-23T14:40:12.731Z</time>
      </trkpt>
      <trkpt lat="44.9764" lon="-1.0809">
        <ele>56.390835</ele>
        <time>2022-12-23T14:40:15.748Z</time>
      </trkpt>
      <trkpt lat="44.97633" lon="-1.08103">
        <ele>56.439294</ele>
        <time>2022-12-23T14:40:18.742Z</time>
      </trkpt>
      <trkpt lat="44.97624" lon="-1.08109">
        <ele>56.484244</ele>
        <time>2022-12-23T14:40:21.732Z</time>
      </trkpt>
      <trkpt lat="44.97613" lon="-1.08109">
        <ele>56.535386</ele>
        <time>2022-12-23T14:40:25.741Z</time>
      </trkpt>
      <trkpt lat="44.97603" lon="-1.08109">
        <ele>56.576089</ele>
        <time>2022-12-23T14:40:29.752Z</time>
      </trkpt>
      <trkpt lat="44.97582" lon="-1.08108">
        <ele>56.669617</ele>
        <time>2022-12-23T14:42:04.750Z</time>
      </trkpt>
      <trkpt lat="44.9757" lon="-1.08108">
        <ele>56.72167</ele>
        <time>2022-12-23T14:42:08.724Z</time>
      </trkpt>
      <trkpt lat="44.9756" lon="-1.08107">
        <ele>56.765942</ele>
        <time>2022-12-23T14:42:11.737Z</time>
      </trkpt>
      <trkpt lat="44.9755" lon="-1.08106">
        <ele>56.808812</ele>
        <time>2022-12-23T14:42:14.751Z</time>
      </trkpt>
      <trkpt lat="44.97538" lon="-1.08105">
        <ele>56.860616</ele>
        <time>2022-12-23T14:42:18.748Z</time>
      </trkpt>
      <trkpt lat="44.97528" lon="-1.08105">
        <ele>56.903088</ele>
        <time>2022-12-23T14:42:21.728Z</time>
      </trkpt>
      <trkpt lat="44.97517" lon="-1.08103">
        <ele>56.948155</ele>
        <time>2022-12-23T14:42:24.754Z</time>
      </trkpt>
      <trkpt lat="44.97505" lon="-1.08101">
        <ele>56.994965</ele>
        <time>2022-12-23T14:42:27.729Z</time>
      </trkpt>
      <trkpt lat="44.97496" lon="-1.08095">
        <ele>57.036613</ele>
        <time>2022-12-23T14:42:30.746Z</time>
      </trkpt>
      <trkpt lat="44.97488" lon="-1.08085">
        <ele>57.078913</ele>
        <time>2022-12-23T14:42:33.751Z</time>
      </trkpt>
      <trkpt lat="44.97481" lon="-1.08074">
        <ele>57.123299</ele>
        <time>2022-12-23T14:42:36.726Z</time>
      </trkpt>
      <trkpt lat="44.97473" lon="-1.08064">
        <ele>57.165987</ele>
        <time>2022-12-23T14:42:39.747Z</time>
      </trkpt>
      <trkpt lat="44.97463" lon="-1.08063">
        <ele>57.20752</ele>
        <time>2022-12-23T14:42:42.747Z</time>
      </trkpt>
      <trkpt lat="44.97453" lon="-1.08061">
        <ele>57.250653</ele>
        <time>2022-12-23T14:42:45.739Z</time>
      </trkpt>
      <trkpt lat="44.97442" lon="-1.08059">
        <ele>57.295393</ele>
        <time>2022-12-23T14:42:48.747Z</time>
      </trkpt>
      <trkpt lat="44.97431" lon="-1.08057">
        <ele>57.341533</ele>
        <time>2022-12-23T14:42:51.751Z</time>
      </trkpt>
      <trkpt lat="44.9742" lon="-1.08056">
        <ele>57.386966</ele>
        <time>2022-12-23T14:42:55.741Z</time>
      </trkpt>
      <trkpt lat="44.97408" lon="-1.08056">
        <ele>57.436428</ele>
        <time>2022-12-23T14:42:59.751Z</time>
      </trkpt>
      <trkpt lat="44.97398" lon="-1.08055">
        <ele>57.47722</ele>
        <time>2022-12-23T14:43:02.753Z</time>
      </trkpt>
      <trkpt lat="44.97386" lon="-1.08054">
        <ele>57.526418</ele>
        <time>2022-12-23T14:43:05.752Z</time>
      </trkpt>
      <trkpt lat="44.97375" lon="-1.08054">
        <ele>57.57257</ele>
        <time>2022-12-23T14:43:08.747Z</time>
      </trkpt>
      <trkpt lat="44.97364" lon="-1.08052">
        <ele>57.585674</ele>
        <time>2022-12-23T14:43:11.745Z</time>
      </trkpt>
      <trkpt lat="44.97353" lon="-1.08051">
        <ele>57.595559</ele>
        <time>2022-12-23T14:43:14.748Z</time>
      </trkpt>
      <trkpt lat="44.97342" lon="-1.08049">
        <ele>57.60605</ele>
        <time>2022-12-23T14:43:17.748Z</time>
      </trkpt>
      <trkpt lat="44.97331" lon="-1.08048">
        <ele>57.616835</ele>
        <time>2022-12-23T14:43:20.746Z</time>
      </trkpt>
      <trkpt lat="44.97321" lon="-1.08047">
        <ele>57.626044</ele>
        <time>2022-12-23T14:43:23.747Z</time>
      </trkpt>
      <trkpt lat="44.97311" lon="-1.08046">
        <ele>57.63572</ele>
        <time>2022-12-23T14:43:26.729Z</time>
      </trkpt>
      <trkpt lat="44.97299" lon="-1.08044">
        <ele>57.646465</ele>
        <time>2022-12-23T14:43:29.747Z</time>
      </trkpt>
      <trkpt lat="44.97289" lon="-1.08043">
        <ele>57.656042</ele>
        <time>2022-12-23T14:43:32.744Z</time>
      </trkpt>
      <trkpt lat="44.97279" lon="-1.08042">
        <ele>57.665324</ele>
        <time>2022-12-23T14:43:35.750Z</time>
      </trkpt>
      <trkpt lat="44.97268" lon="-1.08041">
        <ele>57.675556</ele>
        <time>2022-12-23T14:43:38.751Z</time>
      </trkpt>
      <trkpt lat="44.97257" lon="-1.0804">
        <ele>57.686083</ele>
        <time>2022-12-23T14:43:41.752Z</time>
      </trkpt>
      <trkpt lat="44.97246" lon="-1.08039">
        <ele>57.696615</ele>
        <time>2022-12-23T14:43:44.738Z</time>
      </trkpt>
      <trkpt lat="44.97234" lon="-1.08037">
        <ele>57.70812</ele>
        <time>2022-12-23T14:43:47.751Z</time>
      </trkpt>
      <trkpt lat="44.97221" lon="-1.08034">
        <ele>57.719719</ele>
        <time>2022-12-23T14:43:50.746Z</time>
      </trkpt>
      <trkpt lat="44.97209" lon="-1.08031">
        <ele>57.7317</ele>
        <time>2022-12-23T14:43:53.747Z</time>
      </trkpt>
      <trkpt lat="44.97196" lon="-1.08028">
        <ele>57.743495</ele>
        <time>2022-12-23T14:43:56.749Z</time>
      </trkpt>
      <trkpt lat="44.97184" lon="-1.08025">
        <ele>57.872032</ele>
        <time>2022-12-23T14:43:59.751Z</time>
      </trkpt>
      <trkpt lat="44.97172" lon="-1.08022">
        <ele>58.008577</ele>
        <time>2022-12-23T14:44:02.746Z</time>
      </trkpt>
      <trkpt lat="44.9716" lon="-1.08019">
        <ele>58.14203</ele>
        <time>2022-12-23T14:44:05.745Z</time>
      </trkpt>
      <trkpt lat="44.97148" lon="-1.08017">
        <ele>58.273766</ele>
        <time>2022-12-23T14:44:08.749Z</time>
      </trkpt>
      <trkpt lat="44.97136" lon="-1.08013">
        <ele>58.412767</ele>
        <time>2022-12-23T14:44:11.748Z</time>
      </trkpt>
      <trkpt lat="44.97123" lon="-1.0801">
        <ele>58.549312</ele>
        <time>2022-12-23T14:44:14.746Z</time>
      </trkpt>
      <trkpt lat="44.97112" lon="-1.08007">
        <ele>58.678307</ele>
        <time>2022-12-23T14:44:17.760Z</time>
      </trkpt>
      <trkpt lat="44.971" lon="-1.08003">
        <ele>58.812418</ele>
        <time>2022-12-23T14:44:20.747Z</time>
      </trkpt>
      <trkpt lat="44.97088" lon="-1.07999">
        <ele>58.952957</ele>
        <time>2022-12-23T14:44:23.740Z</time>
      </trkpt>
      <trkpt lat="44.97075" lon="-1.07994">
        <ele>59.095553</ele>
        <time>2022-12-23T14:44:26.743Z</time>
      </trkpt>
      <trkpt lat="44.97063" lon="-1.07989">
        <ele>59.232437</ele>
        <time>2022-12-23T14:44:29.730Z</time>
      </trkpt>
      <trkpt lat="44.97051" lon="-1.07985">
        <ele>59.37191</ele>
        <time>2022-12-23T14:44:32.728Z</time>
      </trkpt>
      <trkpt lat="44.97042" lon="-1.0798">
        <ele>59.470894</ele>
        <time>2022-12-23T14:44:34.742Z</time>
      </trkpt>
      <trkpt lat="44.9703" lon="-1.07975">
        <ele>59.613526</ele>
        <time>2022-12-23T14:44:37.752Z</time>
      </trkpt>
      <trkpt lat="44.97018" lon="-1.0797">
        <ele>59.727044</ele>
        <time>2022-12-23T14:44:40.749Z</time>
      </trkpt>
      <trkpt lat="44.97007" lon="-1.07964">
        <ele>59.755539</ele>
        <time>2022-12-23T14:44:43.751Z</time>
      </trkpt>
      <trkpt lat="44.96996" lon="-1.07958">
        <ele>59.785916</ele>
        <time>2022-12-23T14:44:46.746Z</time>
      </trkpt>
      <trkpt lat="44.96984" lon="-1.07953">
        <ele>59.815832</ele>
        <time>2022-12-23T14:44:49.748Z</time>
      </trkpt>
      <trkpt lat="44.96972" lon="-1.07946">
        <ele>59.846683</ele>
        <time>2022-12-23T14:44:52.749Z</time>
      </trkpt>
      <trkpt lat="44.9696" lon="-1.0794">
        <ele>59.878264</ele>
        <time>2022-12-23T14:44:55.747Z</time>
      </trkpt>
      <trkpt lat="44.96948" lon="-1.07933">
        <ele>59.910954</ele>
        <time>2022-12-23T14:44:58.748Z</time>
      </trkpt>
      <trkpt lat="44.96936" lon="-1.07925">
        <ele>59.943129</ele>
        <time>2022-12-23T14:45:01.748Z</time>
      </trkpt>
      <trkpt lat="44.96923" lon="-1.07918">
        <ele>59.97511</ele>
        <time>2022-12-23T14:45:04.742Z</time>
      </trkpt>
      <trkpt lat="44.96912" lon="-1.0791">
        <ele>60.00677</ele>
        <time>2022-12-23T14:45:07.749Z</time>
      </trkpt>
      <trkpt lat="44.969" lon="-1.07902">
        <ele>60.038725</ele>
        <time>2022-12-23T14:45:10.742Z</time>
      </trkpt>
      <trkpt lat="44.96888" lon="-1.07894">
        <ele>60.069963</ele>
        <time>2022-12-23T14:45:13.743Z</time>
      </trkpt>
      <trkpt lat="44.96878" lon="-1.07886">
        <ele>60.099508</ele>
        <time>2022-12-23T14:45:16.746Z</time>
      </trkpt>
      <trkpt lat="44.96866" lon="-1.07878">
        <ele>60.129923</ele>
        <time>2022-12-23T14:45:19.748Z</time>
      </trkpt>
      <trkpt lat="44.96855" lon="-1.0787">
        <ele>60.163471</ele>
        <time>2022-12-23T14:45:22.735Z</time>
      </trkpt>
      <trkpt lat="44.96845" lon="-1.07861">
        <ele>60.288943</ele>
        <time>2022-12-23T14:45:25.755Z</time>
      </trkpt>
      <trkpt lat="44.96834" lon="-1.07852">
        <ele>60.413606</ele>
        <time>2022-12-23T14:45:28.742Z</time>
      </trkpt>
      <trkpt lat="44.96824" lon="-1.07843">
        <ele>60.534339</ele>
        <time>2022-12-23T14:45:31.742Z</time>
      </trkpt>
      <trkpt lat="44.96815" lon="-1.07835">
        <ele>60.642568</ele>
        <time>2022-12-23T14:45:34.749Z</time>
      </trkpt>
      <trkpt lat="44.96807" lon="-1.07827">
        <ele>60.747907</ele>
        <time>2022-12-23T14:45:37.750Z</time>
      </trkpt>
      <trkpt lat="44.96797" lon="-1.0782">
        <ele>60.859521</ele>
        <time>2022-12-23T14:45:40.751Z</time>
      </trkpt>
      <trkpt lat="44.96787" lon="-1.07811">
        <ele>60.97668</ele>
        <time>2022-12-23T14:45:43.749Z</time>
      </trkpt>
      <trkpt lat="44.96777" lon="-1.07802">
        <ele>61.100816</ele>
        <time>2022-12-23T14:45:46.749Z</time>
      </trkpt>
      <trkpt lat="44.96767" lon="-1.07791">
        <ele>61.225283</ele>
        <time>2022-12-23T14:45:49.748Z</time>
      </trkpt>
      <trkpt lat="44.96757" lon="-1.07781">
        <ele>61.353018</ele>
        <time>2022-12-23T14:45:52.749Z</time>
      </trkpt>
      <trkpt lat="44.96747" lon="-1.0777">
        <ele>61.482892</ele>
        <time>2022-12-23T14:45:55.744Z</time>
      </trkpt>
      <trkpt lat="44.96736" lon="-1.0776">
        <ele>61.610645</ele>
        <time>2022-12-23T14:45:58.749Z</time>
      </trkpt>
      <trkpt lat="44.96726" lon="-1.07749">
        <ele>61.739276</ele>
        <time>2022-12-23T14:46:01.749Z</time>
      </trkpt>
      <trkpt lat="44.96716" lon="-1.07739">
        <ele>61.866618</ele>
        <time>2022-12-23T14:46:04.745Z</time>
      </trkpt>
      <trkpt lat="44.96706" lon="-1.07727">
        <ele>61.985068</ele>
        <time>2022-12-23T14:46:07.752Z</time>
      </trkpt>
      <trkpt lat="44.96696" lon="-1.07716">
        <ele>61.961401</ele>
        <time>2022-12-23T14:46:10.751Z</time>
      </trkpt>
      <trkpt lat="44.96686" lon="-1.07704">
        <ele>61.937728</ele>
        <time>2022-12-23T14:46:13.750Z</time>
      </trkpt>
      <trkpt lat="44.96677" lon="-1.07693">
        <ele>61.914671</ele>
        <time>2022-12-23T14:46:16.748Z</time>
      </trkpt>
      <trkpt lat="44.96667" lon="-1.07681">
        <ele>61.891287</ele>
        <time>2022-12-23T14:46:19.748Z</time>
      </trkpt>
      <trkpt lat="44.96658" lon="-1.07669">
        <ele>61.867976</ele>
        <time>2022-12-23T14:46:22.726Z</time>
      </trkpt>
      <trkpt lat="44.96649" lon="-1.07657">
        <ele>61.845483</ele>
        <time>2022-12-23T14:46:25.749Z</time>
      </trkpt>
      <trkpt lat="44.9664" lon="-1.07645">
        <ele>61.822363</ele>
        <time>2022-12-23T14:46:28.739Z</time>
      </trkpt>
      <trkpt lat="44.96631" lon="-1.07632">
        <ele>61.799005</ele>
        <time>2022-12-23T14:46:31.749Z</time>
      </trkpt>
      <trkpt lat="44.96622" lon="-1.07619">
        <ele>61.775611</ele>
        <time>2022-12-23T14:46:34.750Z</time>
      </trkpt>
      <trkpt lat="44.96613" lon="-1.07606">
        <ele>61.752567</ele>
        <time>2022-12-23T14:46:37.751Z</time>
      </trkpt>
      <trkpt lat="44.96605" lon="-1.07593">
        <ele>61.729934</ele>
        <time>2022-12-23T14:46:40.750Z</time>
      </trkpt>
      <trkpt lat="44.96597" lon="-1.0758">
        <ele>61.707205</ele>
        <time>2022-12-23T14:46:43.749Z</time>
      </trkpt>
      <trkpt lat="44.96588" lon="-1.07567">
        <ele>61.684117</ele>
        <time>2022-12-23T14:46:46.751Z</time>
      </trkpt>
      <trkpt lat="44.9658" lon="-1.07553">
        <ele>61.66073</ele>
        <time>2022-12-23T14:46:49.749Z</time>
      </trkpt>
      <trkpt lat="44.96571" lon="-1.0754">
        <ele>61.669343</ele>
        <time>2022-12-23T14:46:52.751Z</time>
      </trkpt>
      <trkpt lat="44.96562" lon="-1.07527">
        <ele>61.684182</ele>
        <time>2022-12-23T14:46:55.751Z</time>
      </trkpt>
      <trkpt lat="44.96553" lon="-1.07514">
        <ele>61.698804</ele>
        <time>2022-12-23T14:46:58.724Z</time>
      </trkpt>
      <trkpt lat="44.96545" lon="-1.075">
        <ele>61.713824</ele>
        <time>2022-12-23T14:47:01.728Z</time>
      </trkpt>
      <trkpt lat="44.96536" lon="-1.07487">
        <ele>61.728922</ele>
        <time>2022-12-23T14:47:04.745Z</time>
      </trkpt>
      <trkpt lat="44.96528" lon="-1.07475">
        <ele>61.742116</ele>
        <time>2022-12-23T14:47:07.745Z</time>
      </trkpt>
      <trkpt lat="44.9652" lon="-1.07463">
        <ele>61.755725</ele>
        <time>2022-12-23T14:47:10.742Z</time>
      </trkpt>
      <trkpt lat="44.96512" lon="-1.0745">
        <ele>61.76981</ele>
        <time>2022-12-23T14:47:13.744Z</time>
      </trkpt>
      <trkpt lat="44.96504" lon="-1.07438">
        <ele>61.783636</ele>
        <time>2022-12-23T14:47:16.736Z</time>
      </trkpt>
      <trkpt lat="44.96497" lon="-1.07425">
        <ele>61.797155</ele>
        <time>2022-12-23T14:47:19.748Z</time>
      </trkpt>
      <trkpt lat="44.96489" lon="-1.07412">
        <ele>61.810704</ele>
        <time>2022-12-23T14:47:22.733Z</time>
      </trkpt>
      <trkpt lat="44.9648" lon="-1.07401">
        <ele>61.824442</ele>
        <time>2022-12-23T14:47:25.737Z</time>
      </trkpt>
      <trkpt lat="44.96472" lon="-1.07389">
        <ele>61.838029</ele>
        <time>2022-12-23T14:47:28.752Z</time>
      </trkpt>
      <trkpt lat="44.96464" lon="-1.07377">
        <ele>61.85118</ele>
        <time>2022-12-23T14:47:31.747Z</time>
      </trkpt>
      <trkpt lat="44.96457" lon="-1.07365">
        <ele>61.864236</ele>
        <time>2022-12-23T14:47:34.747Z</time>
      </trkpt>
      <trkpt lat="44.96449" lon="-1.07353">
        <ele>61.732379</ele>
        <time>2022-12-23T14:47:37.727Z</time>
      </trkpt>
      <trkpt lat="44.96441" lon="-1.0734">
        <ele>61.59585</ele>
        <time>2022-12-23T14:47:40.725Z</time>
      </trkpt>
      <trkpt lat="44.96434" lon="-1.0733">
        <ele>61.475266</ele>
        <time>2022-12-23T14:47:43.750Z</time>
      </trkpt>
      <trkpt lat="44.96428" lon="-1.0732">
        <ele>61.365683</ele>
        <time>2022-12-23T14:47:46.730Z</time>
      </trkpt>
      <trkpt lat="44.96422" lon="-1.07311">
        <ele>61.255658</ele>
        <time>2022-12-23T14:47:49.727Z</time>
      </trkpt>
      <trkpt lat="44.96415" lon="-1.07301">
        <ele>61.144453</ele>
        <time>2022-12-23T14:47:52.723Z</time>
      </trkpt>
      <trkpt lat="44.96408" lon="-1.07289">
        <ele>61.012941</ele>
        <time>2022-12-23T14:47:56.745Z</time>
      </trkpt>
      <trkpt lat="44.964" lon="-1.07281">
        <ele>60.892602</ele>
        <time>2022-12-23T14:48:02.738Z</time>
      </trkpt>
      <trkpt lat="44.96392" lon="-1.07271">
        <ele>60.774084</ele>
        <time>2022-12-23T14:48:11.728Z</time>
      </trkpt>
      <trkpt lat="44.96382" lon="-1.07269">
        <ele>60.655271</ele>
        <time>2022-12-23T14:48:15.746Z</time>
      </trkpt>
      <trkpt lat="44.96373" lon="-1.07265">
        <ele>60.54279</ele>
        <time>2022-12-23T14:48:18.744Z</time>
      </trkpt>
      <trkpt lat="44.96363" lon="-1.07261">
        <ele>60.417526</ele>
        <time>2022-12-23T14:48:21.733Z</time>
      </trkpt>
      <trkpt lat="44.96353" lon="-1.07256">
        <ele>60.288873</ele>
        <time>2022-12-23T14:48:24.750Z</time>
      </trkpt>
      <trkpt lat="44.96342" lon="-1.07251">
        <ele>60.158593</ele>
        <time>2022-12-23T14:48:27.746Z</time>
      </trkpt>
      <trkpt lat="44.96331" lon="-1.07246">
        <ele>60.020006</ele>
        <time>2022-12-23T14:48:30.748Z</time>
      </trkpt>
      <trkpt lat="44.9632" lon="-1.07241">
        <ele>59.883104</ele>
        <time>2022-12-23T14:48:33.756Z</time>
      </trkpt>
      <trkpt lat="44.96309" lon="-1.07235">
        <ele>59.745637</ele>
        <time>2022-12-23T14:48:36.747Z</time>
      </trkpt>
      <trkpt lat="44.96298" lon="-1.0723">
        <ele>59.786554</ele>
        <time>2022-12-23T14:48:39.743Z</time>
      </trkpt>
      <trkpt lat="44.96286" lon="-1.07225">
        <ele>59.838944</ele>
        <time>2022-12-23T14:48:42.745Z</time>
      </trkpt>
      <trkpt lat="44.96275" lon="-1.0722">
        <ele>59.889612</ele>
        <time>2022-12-23T14:48:45.749Z</time>
      </trkpt>
      <trkpt lat="44.96264" lon="-1.07215">
        <ele>59.940695</ele>
        <time>2022-12-23T14:48:48.751Z</time>
      </trkpt>
      <trkpt lat="44.96253" lon="-1.0721">
        <ele>59.990587</ele>
        <time>2022-12-23T14:48:51.747Z</time>
      </trkpt>
      <trkpt lat="44.96241" lon="-1.07205">
        <ele>60.044311</ele>
        <time>2022-12-23T14:48:54.748Z</time>
      </trkpt>
      <trkpt lat="44.96229" lon="-1.07199">
        <ele>60.100653</ele>
        <time>2022-12-23T14:48:57.749Z</time>
      </trkpt>
      <trkpt lat="44.96217" lon="-1.07194">
        <ele>60.154789</ele>
        <time>2022-12-23T14:49:00.752Z</time>
      </trkpt>
      <trkpt lat="44.96205" lon="-1.07189">
        <ele>60.21021</ele>
        <time>2022-12-23T14:49:03.749Z</time>
      </trkpt>
      <trkpt lat="44.96193" lon="-1.07183">
        <ele>60.265468</ele>
        <time>2022-12-23T14:49:06.741Z</time>
      </trkpt>
      <trkpt lat="44.96181" lon="-1.07177">
        <ele>60.320214</ele>
        <time>2022-12-23T14:49:09.751Z</time>
      </trkpt>
      <trkpt lat="44.96169" lon="-1.07171">
        <ele>60.376706</ele>
        <time>2022-12-23T14:49:12.746Z</time>
      </trkpt>
      <trkpt lat="44.96156" lon="-1.07166">
        <ele>60.434386</ele>
        <time>2022-12-23T14:49:15.749Z</time>
      </trkpt>
      <trkpt lat="44.96143" lon="-1.0716">
        <ele>60.492662</ele>
        <time>2022-12-23T14:49:18.732Z</time>
      </trkpt>
      <trkpt lat="44.96131" lon="-1.07154">
        <ele>60.5137</ele>
        <time>2022-12-23T14:49:21.745Z</time>
      </trkpt>
      <trkpt lat="44.96118" lon="-1.07149">
        <ele>60.501852</ele>
        <time>2022-12-23T14:49:24.748Z</time>
      </trkpt>
      <trkpt lat="44.96105" lon="-1.07144">
        <ele>60.489918</ele>
        <time>2022-12-23T14:49:27.743Z</time>
      </trkpt>
      <trkpt lat="44.96093" lon="-1.07138">
        <ele>60.478565</ele>
        <time>2022-12-23T14:49:30.744Z</time>
      </trkpt>
      <trkpt lat="44.96081" lon="-1.07132">
        <ele>60.466964</ele>
        <time>2022-12-23T14:49:33.745Z</time>
      </trkpt>
      <trkpt lat="44.96068" lon="-1.07127">
        <ele>60.455297</ele>
        <time>2022-12-23T14:49:36.751Z</time>
      </trkpt>
      <trkpt lat="44.9606" lon="-1.07123">
        <ele>60.447216</ele>
        <time>2022-12-23T14:49:38.743Z</time>
      </trkpt>
      <trkpt lat="44.96049" lon="-1.07119">
        <ele>60.436935</ele>
        <time>2022-12-23T14:49:41.750Z</time>
      </trkpt>
      <trkpt lat="44.96037" lon="-1.07113">
        <ele>60.425582</ele>
        <time>2022-12-23T14:49:44.745Z</time>
      </trkpt>
      <trkpt lat="44.96024" lon="-1.07108">
        <ele>60.413831</ele>
        <time>2022-12-23T14:49:47.749Z</time>
      </trkpt>
      <trkpt lat="44.96015" lon="-1.07104">
        <ele>60.405683</ele>
        <time>2022-12-23T14:49:49.738Z</time>
      </trkpt>
      <trkpt lat="44.96003" lon="-1.07098">
        <ele>60.394245</ele>
        <time>2022-12-23T14:49:52.749Z</time>
      </trkpt>
      <trkpt lat="44.95991" lon="-1.07093">
        <ele>60.382794</ele>
        <time>2022-12-23T14:49:55.749Z</time>
      </trkpt>
      <trkpt lat="44.95978" lon="-1.07088">
        <ele>60.370842</ele>
        <time>2022-12-23T14:49:58.738Z</time>
      </trkpt>
      <trkpt lat="44.95966" lon="-1.07082">
        <ele>60.35962</ele>
        <time>2022-12-23T14:50:01.747Z</time>
      </trkpt>
      <trkpt lat="44.95955" lon="-1.07076">
        <ele>60.641251</ele>
        <time>2022-12-23T14:50:04.751Z</time>
      </trkpt>
      <trkpt lat="44.95946" lon="-1.07072">
        <ele>60.869044</ele>
        <time>2022-12-23T14:50:06.730Z</time>
      </trkpt>
      <trkpt lat="44.95937" lon="-1.07068">
        <ele>61.088706</ele>
        <time>2022-12-23T14:50:08.746Z</time>
      </trkpt>
      <trkpt lat="44.95925" lon="-1.07062">
        <ele>61.386564</ele>
        <time>2022-12-23T14:50:11.727Z</time>
      </trkpt>
      <trkpt lat="44.95914" lon="-1.07057">
        <ele>61.657901</ele>
        <time>2022-12-23T14:50:14.730Z</time>
      </trkpt>
      <trkpt lat="44.95903" lon="-1.07052">
        <ele>61.940335</ele>
        <time>2022-12-23T14:50:17.745Z</time>
      </trkpt>
      <trkpt lat="44.9589" lon="-1.07048">
        <ele>62.256289</ele>
        <time>2022-12-23T14:50:20.754Z</time>
      </trkpt>
      <trkpt lat="44.95881" lon="-1.07044">
        <ele>62.475951</ele>
        <time>2022-12-23T14:50:22.749Z</time>
      </trkpt>
      <trkpt lat="44.95873" lon="-1.07041">
        <ele>62.693311</ele>
        <time>2022-12-23T14:50:24.749Z</time>
      </trkpt>
      <trkpt lat="44.9586" lon="-1.07035">
        <ele>63.008768</ele>
        <time>2022-12-23T14:50:27.750Z</time>
      </trkpt>
      <trkpt lat="44.95848" lon="-1.0703">
        <ele>63.316601</ele>
        <time>2022-12-23T14:50:30.726Z</time>
      </trkpt>
      <trkpt lat="44.95835" lon="-1.07025">
        <ele>63.637783</ele>
        <time>2022-12-23T14:50:33.747Z</time>
      </trkpt>
      <trkpt lat="44.95826" lon="-1.07021">
        <ele>63.863998</ele>
        <time>2022-12-23T14:50:35.746Z</time>
      </trkpt>
      <trkpt lat="44.95817" lon="-1.07017">
        <ele>64.083195</ele>
        <time>2022-12-23T14:50:37.727Z</time>
      </trkpt>
      <trkpt lat="44.95807" lon="-1.07015">
        <ele>64.327304</ele>
        <time>2022-12-23T14:50:39.748Z</time>
      </trkpt>
      <trkpt lat="44.95798" lon="-1.07011">
        <ele>64.550725</ele>
        <time>2022-12-23T14:50:41.747Z</time>
      </trkpt>
      <trkpt lat="44.95789" lon="-1.07007">
        <ele>64.689367</ele>
        <time>2022-12-23T14:50:43.728Z</time>
      </trkpt>
      <trkpt lat="44.95778" lon="-1.07">
        <ele>64.74121</ele>
        <time>2022-12-23T14:50:46.747Z</time>
      </trkpt>
      <trkpt lat="44.95769" lon="-1.06996">
        <ele>64.779555</ele>
        <time>2022-12-23T14:50:48.750Z</time>
      </trkpt>
      <trkpt lat="44.95756" lon="-1.06989">
        <ele>64.835666</ele>
        <time>2022-12-23T14:50:51.749Z</time>
      </trkpt>
      <trkpt lat="44.95747" lon="-1.06985">
        <ele>64.873342</ele>
        <time>2022-12-23T14:50:53.733Z</time>
      </trkpt>
      <trkpt lat="44.95739" lon="-1.06982">
        <ele>64.910449</ele>
        <time>2022-12-23T14:50:55.754Z</time>
      </trkpt>
      <trkpt lat="44.95729" lon="-1.06979">
        <ele>64.950071</ele>
        <time>2022-12-23T14:50:57.751Z</time>
      </trkpt>
      <trkpt lat="44.95717" lon="-1.06974">
        <ele>65.00176</ele>
        <time>2022-12-23T14:51:00.751Z</time>
      </trkpt>
      <trkpt lat="44.95707" lon="-1.06968">
        <ele>65.048262</ele>
        <time>2022-12-23T14:51:03.732Z</time>
      </trkpt>
      <trkpt lat="44.95695" lon="-1.06964">
        <ele>65.098353</ele>
        <time>2022-12-23T14:51:06.747Z</time>
      </trkpt>
      <trkpt lat="44.95683" lon="-1.06958">
        <ele>65.14904</ele>
        <time>2022-12-23T14:51:09.744Z</time>
      </trkpt>
      <trkpt lat="44.9567" lon="-1.06953">
        <ele>65.203729</ele>
        <time>2022-12-23T14:51:12.753Z</time>
      </trkpt>
      <trkpt lat="44.95658" lon="-1.06948">
        <ele>65.258603</ele>
        <time>2022-12-23T14:51:15.730Z</time>
      </trkpt>
      <trkpt lat="44.95645" lon="-1.06942">
        <ele>65.313452</ele>
        <time>2022-12-23T14:51:18.733Z</time>
      </trkpt>
      <trkpt lat="44.95633" lon="-1.06936">
        <ele>65.36715</ele>
        <time>2022-12-23T14:51:21.745Z</time>
      </trkpt>
      <trkpt lat="44.95621" lon="-1.06931">
        <ele>65.403996</ele>
        <time>2022-12-23T14:51:24.745Z</time>
      </trkpt>
      <trkpt lat="44.95609" lon="-1.06925">
        <ele>65.340808</ele>
        <time>2022-12-23T14:51:27.731Z</time>
      </trkpt>
      <trkpt lat="44.95597" lon="-1.0692">
        <ele>65.276101</ele>
        <time>2022-12-23T14:51:30.749Z</time>
      </trkpt>
      <trkpt lat="44.95586" lon="-1.06914">
        <ele>65.212047</ele>
        <time>2022-12-23T14:51:33.737Z</time>
      </trkpt>
      <trkpt lat="44.95574" lon="-1.0691">
        <ele>65.149959</ele>
        <time>2022-12-23T14:51:36.733Z</time>
      </trkpt>
      <trkpt lat="44.95562" lon="-1.06904">
        <ele>65.085905</ele>
        <time>2022-12-23T14:51:39.748Z</time>
      </trkpt>
      <trkpt lat="44.95553" lon="-1.06901">
        <ele>65.035499</ele>
        <time>2022-12-23T14:51:41.750Z</time>
      </trkpt>
      <trkpt lat="44.95541" lon="-1.06896">
        <ele>64.970212</ele>
        <time>2022-12-23T14:51:44.745Z</time>
      </trkpt>
      <trkpt lat="44.95529" lon="-1.0689">
        <ele>64.903461</ele>
        <time>2022-12-23T14:51:47.747Z</time>
      </trkpt>
      <trkpt lat="44.95516" lon="-1.06884">
        <ele>64.832417</ele>
        <time>2022-12-23T14:51:50.745Z</time>
      </trkpt>
      <trkpt lat="44.95503" lon="-1.06878">
        <ele>64.763346</ele>
        <time>2022-12-23T14:51:53.751Z</time>
      </trkpt>
      <trkpt lat="44.9549" lon="-1.06873">
        <ele>64.693059</ele>
        <time>2022-12-23T14:51:56.748Z</time>
      </trkpt>
      <trkpt lat="44.95477" lon="-1.06866">
        <ele>64.622109</ele>
        <time>2022-12-23T14:51:59.720Z</time>
      </trkpt>
      <trkpt lat="44.95469" lon="-1.06862">
        <ele>64.574118</ele>
        <time>2022-12-23T14:52:01.749Z</time>
      </trkpt>
      <trkpt lat="44.9546" lon="-1.06859">
        <ele>64.525527</ele>
        <time>2022-12-23T14:52:03.745Z</time>
      </trkpt>
      <trkpt lat="44.95451" lon="-1.06855">
        <ele>64.478608</ele>
        <time>2022-12-23T14:52:05.745Z</time>
      </trkpt>
      <trkpt lat="44.95438" lon="-1.06849">
        <ele>64.575296</ele>
        <time>2022-12-23T14:52:08.744Z</time>
      </trkpt>
      <trkpt lat="44.95425" lon="-1.06844">
        <ele>64.675892</ele>
        <time>2022-12-23T14:52:11.746Z</time>
      </trkpt>
      <trkpt lat="44.95412" lon="-1.06838">
        <ele>64.776717</ele>
        <time>2022-12-23T14:52:14.746Z</time>
      </trkpt>
      <trkpt lat="44.95404" lon="-1.06833">
        <ele>64.84448</ele>
        <time>2022-12-23T14:52:16.743Z</time>
      </trkpt>
      <trkpt lat="44.95395" lon="-1.0683">
        <ele>64.910639</ele>
        <time>2022-12-23T14:52:18.746Z</time>
      </trkpt>
      <trkpt lat="44.95386" lon="-1.06826">
        <ele>64.980683</ele>
        <time>2022-12-23T14:52:20.742Z</time>
      </trkpt>
      <trkpt lat="44.95374" lon="-1.06821">
        <ele>65.078846</ele>
        <time>2022-12-23T14:52:23.746Z</time>
      </trkpt>
      <trkpt lat="44.95361" lon="-1.06815">
        <ele>65.176687</ele>
        <time>2022-12-23T14:52:26.748Z</time>
      </trkpt>
      <trkpt lat="44.95349" lon="-1.06809">
        <ele>65.272953</ele>
        <time>2022-12-23T14:52:29.746Z</time>
      </trkpt>
      <trkpt lat="44.95336" lon="-1.06803">
        <ele>65.372747</ele>
        <time>2022-12-23T14:52:32.743Z</time>
      </trkpt>
      <trkpt lat="44.95324" lon="-1.06799">
        <ele>65.467793</ele>
        <time>2022-12-23T14:52:35.734Z</time>
      </trkpt>
      <trkpt lat="44.95312" lon="-1.06794">
        <ele>65.561386</ele>
        <time>2022-12-23T14:52:38.759Z</time>
      </trkpt>
      <trkpt lat="44.953" lon="-1.06789">
        <ele>65.652695</ele>
        <time>2022-12-23T14:52:41.750Z</time>
      </trkpt>
      <trkpt lat="44.95288" lon="-1.06783">
        <ele>65.746192</ele>
        <time>2022-12-23T14:52:44.746Z</time>
      </trkpt>
      <trkpt lat="44.95275" lon="-1.06778">
        <ele>65.794322</ele>
        <time>2022-12-23T14:52:47.729Z</time>
      </trkpt>
      <trkpt lat="44.95263" lon="-1.06772">
        <ele>65.732621</ele>
        <time>2022-12-23T14:52:50.747Z</time>
      </trkpt>
      <trkpt lat="44.9525" lon="-1.06766">
        <ele>65.672552</ele>
        <time>2022-12-23T14:52:53.747Z</time>
      </trkpt>
      <trkpt lat="44.95238" lon="-1.06761">
        <ele>65.61322</ele>
        <time>2022-12-23T14:52:56.746Z</time>
      </trkpt>
      <trkpt lat="44.95227" lon="-1.06756">
        <ele>65.557887</ele>
        <time>2022-12-23T14:52:59.744Z</time>
      </trkpt>
      <trkpt lat="44.95216" lon="-1.06751">
        <ele>65.506258</ele>
        <time>2022-12-23T14:53:02.738Z</time>
      </trkpt>
      <trkpt lat="44.95205" lon="-1.06746">
        <ele>65.451025</ele>
        <time>2022-12-23T14:53:05.731Z</time>
      </trkpt>
      <trkpt lat="44.95193" lon="-1.06741">
        <ele>65.394906</ele>
        <time>2022-12-23T14:53:08.748Z</time>
      </trkpt>
      <trkpt lat="44.95182" lon="-1.06736">
        <ele>65.33804</ele>
        <time>2022-12-23T14:53:11.747Z</time>
      </trkpt>
      <trkpt lat="44.9517" lon="-1.06731">
        <ele>65.281582</ele>
        <time>2022-12-23T14:53:14.746Z</time>
      </trkpt>
      <trkpt lat="44.95158" lon="-1.06726">
        <ele>65.223931</ele>
        <time>2022-12-23T14:53:17.743Z</time>
      </trkpt>
      <trkpt lat="44.95146" lon="-1.0672">
        <ele>65.165321</ele>
        <time>2022-12-23T14:53:20.748Z</time>
      </trkpt>
      <trkpt lat="44.95134" lon="-1.06715">
        <ele>65.104708</ele>
        <time>2022-12-23T14:53:23.749Z</time>
      </trkpt>
      <trkpt lat="44.95122" lon="-1.06709">
        <ele>65.043892</ele>
        <time>2022-12-23T14:53:26.730Z</time>
      </trkpt>
      <trkpt lat="44.9511" lon="-1.06704">
        <ele>64.985824</ele>
        <time>2022-12-23T14:53:29.750Z</time>
      </trkpt>
      <trkpt lat="44.95099" lon="-1.06699">
        <ele>64.859361</ele>
        <time>2022-12-23T14:53:32.747Z</time>
      </trkpt>
      <trkpt lat="44.95089" lon="-1.06694">
        <ele>64.703394</ele>
        <time>2022-12-23T14:53:35.750Z</time>
      </trkpt>
      <trkpt lat="44.95077" lon="-1.06689">
        <ele>64.543553</ele>
        <time>2022-12-23T14:53:38.748Z</time>
      </trkpt>
      <trkpt lat="44.95066" lon="-1.06684">
        <ele>64.375755</ele>
        <time>2022-12-23T14:53:41.744Z</time>
      </trkpt>
      <trkpt lat="44.95053" lon="-1.06678">
        <ele>64.197716</ele>
        <time>2022-12-23T14:53:44.746Z</time>
      </trkpt>
      <trkpt lat="44.95045" lon="-1.06673">
        <ele>64.074427</ele>
        <time>2022-12-23T14:53:46.750Z</time>
      </trkpt>
      <trkpt lat="44.95033" lon="-1.06668">
        <ele>63.903181</ele>
        <time>2022-12-23T14:53:49.749Z</time>
      </trkpt>
      <trkpt lat="44.95023" lon="-1.06664">
        <ele>63.763503</ele>
        <time>2022-12-23T14:53:52.748Z</time>
      </trkpt>
      <trkpt lat="44.95013" lon="-1.06659">
        <ele>63.62452</ele>
        <time>2022-12-23T14:53:55.751Z</time>
      </trkpt>
      <trkpt lat="44.95003" lon="-1.06655">
        <ele>63.479464</ele>
        <time>2022-12-23T14:53:58.758Z</time>
      </trkpt>
      <trkpt lat="44.94992" lon="-1.0665">
        <ele>63.323796</ele>
        <time>2022-12-23T14:54:01.748Z</time>
      </trkpt>
      <trkpt lat="44.94981" lon="-1.06645">
        <ele>63.164816</ele>
        <time>2022-12-23T14:54:04.733Z</time>
      </trkpt>
      <trkpt lat="44.94969" lon="-1.0664">
        <ele>63.003772</ele>
        <time>2022-12-23T14:54:07.750Z</time>
      </trkpt>
      <trkpt lat="44.94958" lon="-1.06635">
        <ele>62.84451</ele>
        <time>2022-12-23T14:54:10.727Z</time>
      </trkpt>
      <trkpt lat="44.94947" lon="-1.0663">
        <ele>62.688893</ele>
        <time>2022-12-23T14:54:13.745Z</time>
      </trkpt>
      <trkpt lat="44.94936" lon="-1.06624">
        <ele>62.536536</ele>
        <time>2022-12-23T14:54:16.732Z</time>
      </trkpt>
      <trkpt lat="44.94924" lon="-1.06619">
        <ele>62.614715</ele>
        <time>2022-12-23T14:54:19.736Z</time>
      </trkpt>
      <trkpt lat="44.94915" lon="-1.06616">
        <ele>62.6726</ele>
        <time>2022-12-23T14:54:21.747Z</time>
      </trkpt>
      <trkpt lat="44.94903" lon="-1.0661">
        <ele>62.753571</ele>
        <time>2022-12-23T14:54:24.748Z</time>
      </trkpt>
      <trkpt lat="44.94891" lon="-1.06605">
        <ele>62.833409</ele>
        <time>2022-12-23T14:54:27.744Z</time>
      </trkpt>
      <trkpt lat="44.94879" lon="-1.066">
        <ele>62.910858</ele>
        <time>2022-12-23T14:54:30.750Z</time>
      </trkpt>
      <trkpt lat="44.9487" lon="-1.06596">
        <ele>62.967135</ele>
        <time>2022-12-23T14:54:32.749Z</time>
      </trkpt>
      <trkpt lat="44.94858" lon="-1.06591">
        <ele>63.049036</ele>
        <time>2022-12-23T14:54:35.759Z</time>
      </trkpt>
      <trkpt lat="44.94846" lon="-1.06586">
        <ele>63.128507</ele>
        <time>2022-12-23T14:54:38.751Z</time>
      </trkpt>
      <trkpt lat="44.94837" lon="-1.06581">
        <ele>63.186997</ele>
        <time>2022-12-23T14:54:40.750Z</time>
      </trkpt>
      <trkpt lat="44.94824" lon="-1.06576">
        <ele>63.271425</ele>
        <time>2022-12-23T14:54:43.748Z</time>
      </trkpt>
      <trkpt lat="44.94813" lon="-1.0657">
        <ele>63.344983</ele>
        <time>2022-12-23T14:54:46.742Z</time>
      </trkpt>
      <trkpt lat="44.94803" lon="-1.06566">
        <ele>63.411474</ele>
        <time>2022-12-23T14:54:49.751Z</time>
      </trkpt>
      <trkpt lat="44.94791" lon="-1.06561">
        <ele>63.486484</ele>
        <time>2022-12-23T14:54:52.737Z</time>
      </trkpt>
      <trkpt lat="44.94779" lon="-1.06556">
        <ele>63.563673</ele>
        <time>2022-12-23T14:54:55.749Z</time>
      </trkpt>
      <trkpt lat="44.94767" lon="-1.06551">
        <ele>63.641853</ele>
        <time>2022-12-23T14:54:58.750Z</time>
      </trkpt>
      <trkpt lat="44.94755" lon="-1.06545">
        <ele>63.833013</ele>
        <time>2022-12-23T14:55:01.726Z</time>
      </trkpt>
      <trkpt lat="44.94742" lon="-1.06539">
        <ele>64.055994</ele>
        <time>2022-12-23T14:55:04.734Z</time>
      </trkpt>
      <trkpt lat="44.94733" lon="-1.06535">
        <ele>64.215565</ele>
        <time>2022-12-23T14:55:06.729Z</time>
      </trkpt>
      <trkpt lat="44.94721" lon="-1.0653">
        <ele>64.420709</ele>
        <time>2022-12-23T14:55:09.749Z</time>
      </trkpt>
      <trkpt lat="44.94709" lon="-1.06524">
        <ele>64.634945</ele>
        <time>2022-12-23T14:55:12.749Z</time>
      </trkpt>
      <trkpt lat="44.94697" lon="-1.0652">
        <ele>64.847817</ele>
        <time>2022-12-23T14:55:15.750Z</time>
      </trkpt>
      <trkpt lat="44.94684" lon="-1.06516">
        <ele>65.065457</ele>
        <time>2022-12-23T14:55:18.749Z</time>
      </trkpt>
      <trkpt lat="44.94675" lon="-1.06514">
        <ele>65.217664</ele>
        <time>2022-12-23T14:55:20.748Z</time>
      </trkpt>
      <trkpt lat="44.94663" lon="-1.06511">
        <ele>65.43094</ele>
        <time>2022-12-23T14:55:23.746Z</time>
      </trkpt>
      <trkpt lat="44.94649" lon="-1.06508">
        <ele>65.654795</ele>
        <time>2022-12-23T14:55:26.739Z</time>
      </trkpt>
      <trkpt lat="44.94636" lon="-1.06507">
        <ele>65.869694</ele>
        <time>2022-12-23T14:55:29.749Z</time>
      </trkpt>
      <trkpt lat="44.94624" lon="-1.06506">
        <ele>66.076976</ele>
        <time>2022-12-23T14:55:32.727Z</time>
      </trkpt>
      <trkpt lat="44.94611" lon="-1.06505">
        <ele>66.28769</ele>
        <time>2022-12-23T14:55:35.749Z</time>
      </trkpt>
      <trkpt lat="44.94599" lon="-1.06506">
        <ele>66.494935</ele>
        <time>2022-12-23T14:55:38.728Z</time>
      </trkpt>
      <trkpt lat="44.94586" lon="-1.06505">
        <ele>66.63012</ele>
        <time>2022-12-23T14:55:41.745Z</time>
      </trkpt>
      <trkpt lat="44.94573" lon="-1.06505">
        <ele>66.475136</ele>
        <time>2022-12-23T14:55:44.751Z</time>
      </trkpt>
      <trkpt lat="44.94561" lon="-1.06505">
        <ele>66.325004</ele>
        <time>2022-12-23T14:55:47.750Z</time>
      </trkpt>
      <trkpt lat="44.94549" lon="-1.06504">
        <ele>66.179527</ele>
        <time>2022-12-23T14:55:50.749Z</time>
      </trkpt>
      <trkpt lat="44.94536" lon="-1.06503">
        <ele>66.028088</ele>
        <time>2022-12-23T14:55:53.754Z</time>
      </trkpt>
      <trkpt lat="44.94523" lon="-1.06503">
        <ele>65.874342</ele>
        <time>2022-12-23T14:55:56.727Z</time>
      </trkpt>
      <trkpt lat="44.94511" lon="-1.06504">
        <ele>65.724025</ele>
        <time>2022-12-23T14:55:59.749Z</time>
      </trkpt>
      <trkpt lat="44.945" lon="-1.06503">
        <ele>65.592786</ele>
        <time>2022-12-23T14:56:02.739Z</time>
      </trkpt>
      <trkpt lat="44.94489" lon="-1.06504">
        <ele>65.463877</ele>
        <time>2022-12-23T14:56:05.752Z</time>
      </trkpt>
      <trkpt lat="44.94479" lon="-1.06504">
        <ele>65.340165</ele>
        <time>2022-12-23T14:56:08.747Z</time>
      </trkpt>
      <trkpt lat="44.94469" lon="-1.06503">
        <ele>65.218721</ele>
        <time>2022-12-23T14:56:11.746Z</time>
      </trkpt>
      <trkpt lat="44.94457" lon="-1.06502">
        <ele>65.079242</ele>
        <time>2022-12-23T14:56:14.749Z</time>
      </trkpt>
      <trkpt lat="44.94446" lon="-1.06501">
        <ele>64.945404</ele>
        <time>2022-12-23T14:56:17.728Z</time>
      </trkpt>
      <trkpt lat="44.94436" lon="-1.065">
        <ele>64.828464</ele>
        <time>2022-12-23T14:56:20.749Z</time>
      </trkpt>
      <trkpt lat="44.94426" lon="-1.06499">
        <ele>64.701135</ele>
        <time>2022-12-23T14:56:23.748Z</time>
      </trkpt>
      <trkpt lat="44.94415" lon="-1.06498">
        <ele>64.57235</ele>
        <time>2022-12-23T14:56:26.750Z</time>
      </trkpt>
      <trkpt lat="44.94404" lon="-1.06499">
        <ele>64.460281</ele>
        <time>2022-12-23T14:56:29.726Z</time>
      </trkpt>
      <trkpt lat="44.94394" lon="-1.06499">
        <ele>64.361074</ele>
        <time>2022-12-23T14:56:32.748Z</time>
      </trkpt>
      <trkpt lat="44.94382" lon="-1.06498">
        <ele>64.256123</ele>
        <time>2022-12-23T14:56:35.737Z</time>
      </trkpt>
      <trkpt lat="44.9437" lon="-1.06497">
        <ele>64.14502</ele>
        <time>2022-12-23T14:56:38.747Z</time>
      </trkpt>
      <trkpt lat="44.94358" lon="-1.06496">
        <ele>64.036666</ele>
        <time>2022-12-23T14:56:41.751Z</time>
      </trkpt>
      <trkpt lat="44.94346" lon="-1.06496">
        <ele>63.924689</ele>
        <time>2022-12-23T14:56:44.727Z</time>
      </trkpt>
      <trkpt lat="44.94334" lon="-1.06496">
        <ele>63.815466</ele>
        <time>2022-12-23T14:56:47.749Z</time>
      </trkpt>
      <trkpt lat="44.94321" lon="-1.06495">
        <ele>63.702299</ele>
        <time>2022-12-23T14:56:50.748Z</time>
      </trkpt>
      <trkpt lat="44.94309" lon="-1.06494">
        <ele>63.591245</ele>
        <time>2022-12-23T14:56:53.750Z</time>
      </trkpt>
      <trkpt lat="44.94297" lon="-1.06494">
        <ele>63.477433</ele>
        <time>2022-12-23T14:56:56.750Z</time>
      </trkpt>
      <trkpt lat="44.94284" lon="-1.06494">
        <ele>63.366397</ele>
        <time>2022-12-23T14:56:59.746Z</time>
      </trkpt>
      <trkpt lat="44.94271" lon="-1.06495">
        <ele>63.248813</ele>
        <time>2022-12-23T14:57:02.749Z</time>
      </trkpt>
      <trkpt lat="44.9426" lon="-1.06496">
        <ele>63.142796</ele>
        <time>2022-12-23T14:57:05.749Z</time>
      </trkpt>
      <trkpt lat="44.94249" lon="-1.06498">
        <ele>63.045702</ele>
        <time>2022-12-23T14:57:08.748Z</time>
      </trkpt>
      <trkpt lat="44.94238" lon="-1.065">
        <ele>62.943938</ele>
        <time>2022-12-23T14:57:11.745Z</time>
      </trkpt>
      <trkpt lat="44.94226" lon="-1.06503">
        <ele>62.862505</ele>
        <time>2022-12-23T14:57:14.726Z</time>
      </trkpt>
      <trkpt lat="44.94214" lon="-1.06506">
        <ele>62.845092</ele>
        <time>2022-12-23T14:57:17.743Z</time>
      </trkpt>
      <trkpt lat="44.94202" lon="-1.0651">
        <ele>62.828184</ele>
        <time>2022-12-23T14:57:20.751Z</time>
      </trkpt>
      <trkpt lat="44.94191" lon="-1.06514">
        <ele>62.812024</ele>
        <time>2022-12-23T14:57:23.748Z</time>
      </trkpt>
      <trkpt lat="44.94181" lon="-1.06519">
        <ele>62.797351</ele>
        <time>2022-12-23T14:57:26.747Z</time>
      </trkpt>
      <trkpt lat="44.9417" lon="-1.06524">
        <ele>62.780765</ele>
        <time>2022-12-23T14:57:29.727Z</time>
      </trkpt>
      <trkpt lat="44.94159" lon="-1.06529">
        <ele>62.764804</ele>
        <time>2022-12-23T14:57:32.739Z</time>
      </trkpt>
      <trkpt lat="44.94148" lon="-1.06534">
        <ele>62.747974</ele>
        <time>2022-12-23T14:57:35.747Z</time>
      </trkpt>
      <trkpt lat="44.94136" lon="-1.0654">
        <ele>62.730327</ele>
        <time>2022-12-23T14:57:38.740Z</time>
      </trkpt>
      <trkpt lat="44.94123" lon="-1.06546">
        <ele>62.711891</ele>
        <time>2022-12-23T14:57:41.749Z</time>
      </trkpt>
      <trkpt lat="44.94115" lon="-1.06549">
        <ele>62.699076</ele>
        <time>2022-12-23T14:57:43.750Z</time>
      </trkpt>
      <trkpt lat="44.94103" lon="-1.06555">
        <ele>62.682029</ele>
        <time>2022-12-23T14:57:46.733Z</time>
      </trkpt>
      <trkpt lat="44.94092" lon="-1.0656">
        <ele>62.665685</ele>
        <time>2022-12-23T14:57:49.751Z</time>
      </trkpt>
      <trkpt lat="44.94083" lon="-1.06565">
        <ele>62.651583</ele>
        <time>2022-12-23T14:57:52.750Z</time>
      </trkpt>
      <trkpt lat="44.94073" lon="-1.0657">
        <ele>62.637663</ele>
        <time>2022-12-23T14:57:55.747Z</time>
      </trkpt>
      <trkpt lat="44.94063" lon="-1.06575">
        <ele>62.622757</ele>
        <time>2022-12-23T14:57:58.749Z</time>
      </trkpt>
      <trkpt lat="44.94053" lon="-1.0658">
        <ele>62.649911</ele>
        <time>2022-12-23T14:58:01.735Z</time>
      </trkpt>
      <trkpt lat="44.94043" lon="-1.06586">
        <ele>62.712831</ele>
        <time>2022-12-23T14:58:04.749Z</time>
      </trkpt>
      <trkpt lat="44.94032" lon="-1.06591">
        <ele>62.775615</ele>
        <time>2022-12-23T14:58:07.748Z</time>
      </trkpt>
      <trkpt lat="44.94023" lon="-1.06596">
        <ele>62.834196</ele>
        <time>2022-12-23T14:58:10.747Z</time>
      </trkpt>
      <trkpt lat="44.94013" lon="-1.066">
        <ele>62.895367</ele>
        <time>2022-12-23T14:58:13.745Z</time>
      </trkpt>
      <trkpt lat="44.94002" lon="-1.06605">
        <ele>62.960459</ele>
        <time>2022-12-23T14:58:16.742Z</time>
      </trkpt>
      <trkpt lat="44.93991" lon="-1.06611">
        <ele>63.024737</ele>
        <time>2022-12-23T14:58:19.749Z</time>
      </trkpt>
      <trkpt lat="44.93981" lon="-1.06616">
        <ele>63.089157</ele>
        <time>2022-12-23T14:58:22.740Z</time>
      </trkpt>
      <trkpt lat="44.9397" lon="-1.06622">
        <ele>63.156558</ele>
        <time>2022-12-23T14:58:25.749Z</time>
      </trkpt>
      <trkpt lat="44.93959" lon="-1.06627">
        <ele>63.22002</ele>
        <time>2022-12-23T14:58:28.748Z</time>
      </trkpt>
      <trkpt lat="44.9395" lon="-1.06631">
        <ele>63.275638</ele>
        <time>2022-12-23T14:58:31.726Z</time>
      </trkpt>
      <trkpt lat="44.9394" lon="-1.06636">
        <ele>63.334761</ele>
        <time>2022-12-23T14:58:34.746Z</time>
      </trkpt>
      <trkpt lat="44.9393" lon="-1.06641">
        <ele>63.399466</ele>
        <time>2022-12-23T14:58:37.749Z</time>
      </trkpt>
      <trkpt lat="44.93919" lon="-1.06646">
        <ele>63.464425</ele>
        <time>2022-12-23T14:58:40.741Z</time>
      </trkpt>
      <trkpt lat="44.93908" lon="-1.06651">
        <ele>63.530897</ele>
        <time>2022-12-23T14:58:43.749Z</time>
      </trkpt>
      <trkpt lat="44.93897" lon="-1.06656">
        <ele>63.596948</ele>
        <time>2022-12-23T14:58:46.749Z</time>
      </trkpt>
      <trkpt lat="44.93886" lon="-1.06661">
        <ele>63.658663</ele>
        <time>2022-12-23T14:58:49.748Z</time>
      </trkpt>
      <trkpt lat="44.93875" lon="-1.06667">
        <ele>63.699913</ele>
        <time>2022-12-23T14:58:52.749Z</time>
      </trkpt>
      <trkpt lat="44.93864" lon="-1.06672">
        <ele>63.741688</ele>
        <time>2022-12-23T14:58:55.747Z</time>
      </trkpt>
      <trkpt lat="44.93853" lon="-1.06677">
        <ele>63.784555</ele>
        <time>2022-12-23T14:58:58.747Z</time>
      </trkpt>
      <trkpt lat="44.93842" lon="-1.06683">
        <ele>63.82674</ele>
        <time>2022-12-23T14:59:01.746Z</time>
      </trkpt>
      <trkpt lat="44.93831" lon="-1.06688">
        <ele>63.86884</ele>
        <time>2022-12-23T14:59:04.749Z</time>
      </trkpt>
      <trkpt lat="44.93821" lon="-1.06693">
        <ele>63.909748</ele>
        <time>2022-12-23T14:59:07.745Z</time>
      </trkpt>
      <trkpt lat="44.9381" lon="-1.06699">
        <ele>63.949985</ele>
        <time>2022-12-23T14:59:10.749Z</time>
      </trkpt>
      <trkpt lat="44.938" lon="-1.06704">
        <ele>63.990561</ele>
        <time>2022-12-23T14:59:13.750Z</time>
      </trkpt>
      <trkpt lat="44.93789" lon="-1.0671">
        <ele>64.030702</ele>
        <time>2022-12-23T14:59:16.747Z</time>
      </trkpt>
      <trkpt lat="44.93778" lon="-1.06714">
        <ele>64.07171</ele>
        <time>2022-12-23T14:59:19.741Z</time>
      </trkpt>
      <trkpt lat="44.93768" lon="-1.0672">
        <ele>64.111935</ele>
        <time>2022-12-23T14:59:22.749Z</time>
      </trkpt>
      <trkpt lat="44.93757" lon="-1.06725">
        <ele>64.153439</ele>
        <time>2022-12-23T14:59:25.748Z</time>
      </trkpt>
      <trkpt lat="44.93748" lon="-1.0673">
        <ele>64.189583</ele>
        <time>2022-12-23T14:59:28.726Z</time>
      </trkpt>
      <trkpt lat="44.93737" lon="-1.06735">
        <ele>64.23066</ele>
        <time>2022-12-23T14:59:32.746Z</time>
      </trkpt>
      <trkpt lat="44.93727" lon="-1.06739">
        <ele>64.267069</ele>
        <time>2022-12-23T14:59:35.748Z</time>
      </trkpt>
      <trkpt lat="44.93717" lon="-1.06744">
        <ele>64.301459</ele>
        <time>2022-12-23T14:59:38.745Z</time>
      </trkpt>
      <trkpt lat="44.93707" lon="-1.0675">
        <ele>64.307729</ele>
        <time>2022-12-23T14:59:41.740Z</time>
      </trkpt>
      <trkpt lat="44.93697" lon="-1.06755">
        <ele>64.314208</ele>
        <time>2022-12-23T14:59:44.736Z</time>
      </trkpt>
      <trkpt lat="44.93686" lon="-1.06759">
        <ele>64.32076</ele>
        <time>2022-12-23T14:59:47.748Z</time>
      </trkpt>
      <trkpt lat="44.93676" lon="-1.06764">
        <ele>64.327308</ele>
        <time>2022-12-23T14:59:50.732Z</time>
      </trkpt>
      <trkpt lat="44.93666" lon="-1.06769">
        <ele>64.33326</ele>
        <time>2022-12-23T14:59:53.725Z</time>
      </trkpt>
      <trkpt lat="44.93657" lon="-1.06774">
        <ele>64.33921</ele>
        <time>2022-12-23T14:59:56.741Z</time>
      </trkpt>
      <trkpt lat="44.93647" lon="-1.06779">
        <ele>64.345521</ele>
        <time>2022-12-23T14:59:59.748Z</time>
      </trkpt>
      <trkpt lat="44.93636" lon="-1.06783">
        <ele>64.35203</ele>
        <time>2022-12-23T15:00:02.739Z</time>
      </trkpt>
      <trkpt lat="44.93625" lon="-1.06789">
        <ele>64.358759</ele>
        <time>2022-12-23T15:00:05.746Z</time>
      </trkpt>
      <trkpt lat="44.93615" lon="-1.06794">
        <ele>64.365322</ele>
        <time>2022-12-23T15:00:08.744Z</time>
      </trkpt>
      <trkpt lat="44.93604" lon="-1.06799">
        <ele>64.371838</ele>
        <time>2022-12-23T15:00:11.742Z</time>
      </trkpt>
      <trkpt lat="44.93594" lon="-1.06804">
        <ele>64.378219</ele>
        <time>2022-12-23T15:00:14.729Z</time>
      </trkpt>
      <trkpt lat="44.93584" lon="-1.06809">
        <ele>64.384758</ele>
        <time>2022-12-23T15:00:17.749Z</time>
      </trkpt>
      <trkpt lat="44.93573" lon="-1.06815">
        <ele>64.391751</ele>
        <time>2022-12-23T15:00:20.747Z</time>
      </trkpt>
      <trkpt lat="44.93561" lon="-1.06821">
        <ele>64.398882</ele>
        <time>2022-12-23T15:00:23.749Z</time>
      </trkpt>
      <trkpt lat="44.9355" lon="-1.06826">
        <ele>64.405766</ele>
        <time>2022-12-23T15:00:26.742Z</time>
      </trkpt>
      <trkpt lat="44.93539" lon="-1.06831">
        <ele>64.371653</ele>
        <time>2022-12-23T15:00:29.732Z</time>
      </trkpt>
      <trkpt lat="44.93527" lon="-1.06836">
        <ele>64.332466</ele>
        <time>2022-12-23T15:00:32.747Z</time>
      </trkpt>
      <trkpt lat="44.93517" lon="-1.06841">
        <ele>64.29416</ele>
        <time>2022-12-23T15:00:35.746Z</time>
      </trkpt>
      <trkpt lat="44.93507" lon="-1.06846">
        <ele>64.259732</ele>
        <time>2022-12-23T15:00:38.748Z</time>
      </trkpt>
      <trkpt lat="44.93498" lon="-1.0685">
        <ele>64.229016</ele>
        <time>2022-12-23T15:00:41.750Z</time>
      </trkpt>
      <trkpt lat="44.93488" lon="-1.06854">
        <ele>64.194124</ele>
        <time>2022-12-23T15:00:44.758Z</time>
      </trkpt>
      <trkpt lat="44.93477" lon="-1.0686">
        <ele>64.15257</ele>
        <time>2022-12-23T15:00:47.741Z</time>
      </trkpt>
      <trkpt lat="44.93465" lon="-1.06865">
        <ele>64.112032</ele>
        <time>2022-12-23T15:00:50.747Z</time>
      </trkpt>
      <trkpt lat="44.93454" lon="-1.06871">
        <ele>64.072671</ele>
        <time>2022-12-23T15:00:53.745Z</time>
      </trkpt>
      <trkpt lat="44.93443" lon="-1.06876">
        <ele>64.031634</ele>
        <time>2022-12-23T15:00:56.738Z</time>
      </trkpt>
      <trkpt lat="44.93432" lon="-1.06882">
        <ele>63.993171</ele>
        <time>2022-12-23T15:00:59.749Z</time>
      </trkpt>
      <trkpt lat="44.93422" lon="-1.06887">
        <ele>63.957714</ele>
        <time>2022-12-23T15:01:02.746Z</time>
      </trkpt>
      <trkpt lat="44.93411" lon="-1.06892">
        <ele>63.918301</ele>
        <time>2022-12-23T15:01:05.745Z</time>
      </trkpt>
      <trkpt lat="44.934" lon="-1.06897">
        <ele>63.879205</ele>
        <time>2022-12-23T15:01:08.752Z</time>
      </trkpt>
      <trkpt lat="44.9339" lon="-1.06902">
        <ele>63.843898</ele>
        <time>2022-12-23T15:01:11.750Z</time>
      </trkpt>
      <trkpt lat="44.93379" lon="-1.06907">
        <ele>63.806148</ele>
        <time>2022-12-23T15:01:14.748Z</time>
      </trkpt>
      <trkpt lat="44.93368" lon="-1.06912">
        <ele>63.658733</ele>
        <time>2022-12-23T15:01:17.746Z</time>
      </trkpt>
      <trkpt lat="44.93357" lon="-1.06918">
        <ele>63.49803</ele>
        <time>2022-12-23T15:01:20.748Z</time>
      </trkpt>
      <trkpt lat="44.93347" lon="-1.06923">
        <ele>63.349947</ele>
        <time>2022-12-23T15:01:23.743Z</time>
      </trkpt>
      <trkpt lat="44.93338" lon="-1.06927">
        <ele>63.222546</ele>
        <time>2022-12-23T15:01:26.748Z</time>
      </trkpt>
      <trkpt lat="44.93329" lon="-1.06932">
        <ele>63.082807</ele>
        <time>2022-12-23T15:01:29.746Z</time>
      </trkpt>
      <trkpt lat="44.93318" lon="-1.06938">
        <ele>62.927923</ele>
        <time>2022-12-23T15:01:32.730Z</time>
      </trkpt>
      <trkpt lat="44.93307" lon="-1.06943">
        <ele>62.768127</ele>
        <time>2022-12-23T15:01:35.736Z</time>
      </trkpt>
      <trkpt lat="44.93296" lon="-1.06948">
        <ele>62.606002</ele>
        <time>2022-12-23T15:01:38.740Z</time>
      </trkpt>
      <trkpt lat="44.93285" lon="-1.06953">
        <ele>62.450483</ele>
        <time>2022-12-23T15:01:41.748Z</time>
      </trkpt>
      <trkpt lat="44.93273" lon="-1.06959">
        <ele>62.281999</ele>
        <time>2022-12-23T15:01:44.743Z</time>
      </trkpt>
      <trkpt lat="44.93262" lon="-1.06965">
        <ele>62.113178</ele>
        <time>2022-12-23T15:01:47.744Z</time>
      </trkpt>
      <trkpt lat="44.93251" lon="-1.0697">
        <ele>61.957335</ele>
        <time>2022-12-23T15:01:50.735Z</time>
      </trkpt>
      <trkpt lat="44.93242" lon="-1.06975">
        <ele>61.822186</ele>
        <time>2022-12-23T15:01:53.749Z</time>
      </trkpt>
      <trkpt lat="44.93233" lon="-1.0698">
        <ele>61.689541</ele>
        <time>2022-12-23T15:01:56.752Z</time>
      </trkpt>
      <trkpt lat="44.93223" lon="-1.06984">
        <ele>61.547193</ele>
        <time>2022-12-23T15:01:59.734Z</time>
      </trkpt>
      <trkpt lat="44.93212" lon="-1.0699">
        <ele>61.385531</ele>
        <time>2022-12-23T15:02:02.742Z</time>
      </trkpt>
      <trkpt lat="44.932" lon="-1.06995">
        <ele>61.504193</ele>
        <time>2022-12-23T15:02:05.750Z</time>
      </trkpt>
      <trkpt lat="44.93188" lon="-1.07001">
        <ele>61.7518</ele>
        <time>2022-12-23T15:02:08.751Z</time>
      </trkpt>
      <trkpt lat="44.93176" lon="-1.07006">
        <ele>61.986374</ele>
        <time>2022-12-23T15:02:11.750Z</time>
      </trkpt>
      <trkpt lat="44.93166" lon="-1.07011">
        <ele>62.195293</ele>
        <time>2022-12-23T15:02:14.735Z</time>
      </trkpt>
      <trkpt lat="44.93157" lon="-1.07016">
        <ele>62.373261</ele>
        <time>2022-12-23T15:02:17.727Z</time>
      </trkpt>
      <trkpt lat="44.93148" lon="-1.0702">
        <ele>62.559878</ele>
        <time>2022-12-23T15:02:20.748Z</time>
      </trkpt>
      <trkpt lat="44.93139" lon="-1.07025">
        <ele>62.754304</ele>
        <time>2022-12-23T15:02:23.751Z</time>
      </trkpt>
      <trkpt lat="44.9313" lon="-1.0703">
        <ele>62.946837</ele>
        <time>2022-12-23T15:02:26.757Z</time>
      </trkpt>
      <trkpt lat="44.9312" lon="-1.07034">
        <ele>63.131263</ele>
        <time>2022-12-23T15:02:29.750Z</time>
      </trkpt>
      <trkpt lat="44.93111" lon="-1.07039">
        <ele>63.329784</ele>
        <time>2022-12-23T15:02:33.748Z</time>
      </trkpt>
      <trkpt lat="44.93095" lon="-1.07046">
        <ele>63.653856</ele>
        <time>2022-12-23T15:04:49.769Z</time>
      </trkpt>
      <trkpt lat="44.93085" lon="-1.07051">
        <ele>63.855987</ele>
        <time>2022-12-23T15:04:53.745Z</time>
      </trkpt>
      <trkpt lat="44.93076" lon="-1.07056">
        <ele>64.034839</ele>
        <time>2022-12-23T15:04:56.749Z</time>
      </trkpt>
      <trkpt lat="44.93067" lon="-1.07061">
        <ele>64.23421</ele>
        <time>2022-12-23T15:04:59.744Z</time>
      </trkpt>
      <trkpt lat="44.93057" lon="-1.07066">
        <ele>64.43587</ele>
        <time>2022-12-23T15:05:02.752Z</time>
      </trkpt>
      <trkpt lat="44.93047" lon="-1.07071">
        <ele>64.639338</ele>
        <time>2022-12-23T15:05:05.723Z</time>
      </trkpt>
      <trkpt lat="44.93037" lon="-1.07076">
        <ele>64.820973</ele>
        <time>2022-12-23T15:05:08.744Z</time>
      </trkpt>
      <trkpt lat="44.93027" lon="-1.07081">
        <ele>64.88474</ele>
        <time>2022-12-23T15:05:11.752Z</time>
      </trkpt>
      <trkpt lat="44.93017" lon="-1.07086">
        <ele>64.944031</ele>
        <time>2022-12-23T15:05:14.743Z</time>
      </trkpt>
      <trkpt lat="44.93008" lon="-1.0709">
        <ele>65.004358</ele>
        <time>2022-12-23T15:05:17.748Z</time>
      </trkpt>
      <trkpt lat="44.92998" lon="-1.07095">
        <ele>65.067706</ele>
        <time>2022-12-23T15:05:20.747Z</time>
      </trkpt>
      <trkpt lat="44.92988" lon="-1.071">
        <ele>65.12979</ele>
        <time>2022-12-23T15:05:23.752Z</time>
      </trkpt>
      <trkpt lat="44.92977" lon="-1.07105">
        <ele>65.194283</ele>
        <time>2022-12-23T15:05:26.745Z</time>
      </trkpt>
      <trkpt lat="44.92967" lon="-1.0711">
        <ele>65.258907</ele>
        <time>2022-12-23T15:05:29.744Z</time>
      </trkpt>
      <trkpt lat="44.92957" lon="-1.07114">
        <ele>65.322401</ele>
        <time>2022-12-23T15:05:32.747Z</time>
      </trkpt>
      <trkpt lat="44.92947" lon="-1.07119">
        <ele>65.386198</ele>
        <time>2022-12-23T15:05:35.751Z</time>
      </trkpt>
      <trkpt lat="44.92937" lon="-1.07124">
        <ele>65.450694</ele>
        <time>2022-12-23T15:05:38.747Z</time>
      </trkpt>
      <trkpt lat="44.92927" lon="-1.07129">
        <ele>65.51236</ele>
        <time>2022-12-23T15:05:41.744Z</time>
      </trkpt>
      <trkpt lat="44.92916" lon="-1.07134">
        <ele>65.579251</ele>
        <time>2022-12-23T15:05:44.748Z</time>
      </trkpt>
      <trkpt lat="44.92906" lon="-1.07139">
        <ele>65.645576</ele>
        <time>2022-12-23T15:05:47.741Z</time>
      </trkpt>
      <trkpt lat="44.92895" lon="-1.07144">
        <ele>65.710333</ele>
        <time>2022-12-23T15:05:50.749Z</time>
      </trkpt>
      <trkpt lat="44.92885" lon="-1.07149">
        <ele>65.774385</ele>
        <time>2022-12-23T15:05:53.748Z</time>
      </trkpt>
      <trkpt lat="44.92875" lon="-1.07154">
        <ele>65.841111</ele>
        <time>2022-12-23T15:05:56.747Z</time>
      </trkpt>
      <trkpt lat="44.92864" lon="-1.07159">
        <ele>65.877849</ele>
        <time>2022-12-23T15:05:59.750Z</time>
      </trkpt>
      <trkpt lat="44.92854" lon="-1.07164">
        <ele>65.871467</ele>
        <time>2022-12-23T15:06:02.750Z</time>
      </trkpt>
      <trkpt lat="44.92843" lon="-1.07169">
        <ele>65.865008</ele>
        <time>2022-12-23T15:06:05.745Z</time>
      </trkpt>
      <trkpt lat="44.92832" lon="-1.07174">
        <ele>65.858563</ele>
        <time>2022-12-23T15:06:08.732Z</time>
      </trkpt>
      <trkpt lat="44.92822" lon="-1.07179">
        <ele>65.852075</ele>
        <time>2022-12-23T15:06:11.730Z</time>
      </trkpt>
      <trkpt lat="44.92811" lon="-1.07184">
        <ele>65.845685</ele>
        <time>2022-12-23T15:06:14.746Z</time>
      </trkpt>
      <trkpt lat="44.92801" lon="-1.0719">
        <ele>65.839334</ele>
        <time>2022-12-23T15:06:17.753Z</time>
      </trkpt>
      <trkpt lat="44.9279" lon="-1.07195">
        <ele>65.833025</ele>
        <time>2022-12-23T15:06:20.748Z</time>
      </trkpt>
      <trkpt lat="44.9278" lon="-1.07201">
        <ele>65.826496</ele>
        <time>2022-12-23T15:06:23.751Z</time>
      </trkpt>
      <trkpt lat="44.92769" lon="-1.07206">
        <ele>65.820119</ele>
        <time>2022-12-23T15:06:26.746Z</time>
      </trkpt>
      <trkpt lat="44.92759" lon="-1.07211">
        <ele>65.813755</ele>
        <time>2022-12-23T15:06:29.747Z</time>
      </trkpt>
      <trkpt lat="44.92748" lon="-1.07216">
        <ele>65.807296</ele>
        <time>2022-12-23T15:06:32.750Z</time>
      </trkpt>
      <trkpt lat="44.92738" lon="-1.07221">
        <ele>65.80077</ele>
        <time>2022-12-23T15:06:35.750Z</time>
      </trkpt>
      <trkpt lat="44.92727" lon="-1.07227">
        <ele>65.794135</ele>
        <time>2022-12-23T15:06:38.732Z</time>
      </trkpt>
      <trkpt lat="44.92716" lon="-1.07232">
        <ele>65.787621</ele>
        <time>2022-12-23T15:06:41.749Z</time>
      </trkpt>
      <trkpt lat="44.92705" lon="-1.07237">
        <ele>65.780889</ele>
        <time>2022-12-23T15:06:44.745Z</time>
      </trkpt>
      <trkpt lat="44.92694" lon="-1.07242">
        <ele>65.764395</ele>
        <time>2022-12-23T15:06:47.750Z</time>
      </trkpt>
      <trkpt lat="44.92683" lon="-1.07248">
        <ele>65.733362</ele>
        <time>2022-12-23T15:06:50.746Z</time>
      </trkpt>
      <trkpt lat="44.92672" lon="-1.07253">
        <ele>65.70246</ele>
        <time>2022-12-23T15:06:53.752Z</time>
      </trkpt>
      <trkpt lat="44.92661" lon="-1.07258">
        <ele>65.672367</ele>
        <time>2022-12-23T15:06:56.751Z</time>
      </trkpt>
      <trkpt lat="44.92651" lon="-1.07263">
        <ele>65.643482</ele>
        <time>2022-12-23T15:06:59.745Z</time>
      </trkpt>
      <trkpt lat="44.92641" lon="-1.07268">
        <ele>65.61484</ele>
        <time>2022-12-23T15:07:02.749Z</time>
      </trkpt>
      <trkpt lat="44.92631" lon="-1.07273">
        <ele>65.586195</ele>
        <time>2022-12-23T15:07:05.748Z</time>
      </trkpt>
      <trkpt lat="44.92621" lon="-1.07278">
        <ele>65.556616</ele>
        <time>2022-12-23T15:07:08.748Z</time>
      </trkpt>
      <trkpt lat="44.9261" lon="-1.07283">
        <ele>65.525955</ele>
        <time>2022-12-23T15:07:11.750Z</time>
      </trkpt>
      <trkpt lat="44.92599" lon="-1.07288">
        <ele>65.495862</ele>
        <time>2022-12-23T15:07:14.747Z</time>
      </trkpt>
      <trkpt lat="44.92588" lon="-1.07293">
        <ele>65.464769</ele>
        <time>2022-12-23T15:07:17.733Z</time>
      </trkpt>
      <trkpt lat="44.92577" lon="-1.07299">
        <ele>65.433736</ele>
        <time>2022-12-23T15:07:20.746Z</time>
      </trkpt>
      <trkpt lat="44.92566" lon="-1.07304">
        <ele>65.403838</ele>
        <time>2022-12-23T15:07:23.746Z</time>
      </trkpt>
      <trkpt lat="44.92556" lon="-1.07309">
        <ele>65.374128</ele>
        <time>2022-12-23T15:07:26.747Z</time>
      </trkpt>
      <trkpt lat="44.92545" lon="-1.07314">
        <ele>65.343855</ele>
        <time>2022-12-23T15:07:29.752Z</time>
      </trkpt>
      <trkpt lat="44.92535" lon="-1.07319">
        <ele>65.313329</ele>
        <time>2022-12-23T15:07:32.740Z</time>
      </trkpt>
      <trkpt lat="44.92524" lon="-1.07325">
        <ele>65.316222</ele>
        <time>2022-12-23T15:07:35.733Z</time>
      </trkpt>
      <trkpt lat="44.92514" lon="-1.0733">
        <ele>65.365204</ele>
        <time>2022-12-23T15:07:38.726Z</time>
      </trkpt>
      <trkpt lat="44.92503" lon="-1.07335">
        <ele>65.415042</ele>
        <time>2022-12-23T15:07:41.747Z</time>
      </trkpt>
      <trkpt lat="44.92493" lon="-1.0734">
        <ele>65.465196</ele>
        <time>2022-12-23T15:07:44.739Z</time>
      </trkpt>
      <trkpt lat="44.92482" lon="-1.07345">
        <ele>65.516301</ele>
        <time>2022-12-23T15:07:47.743Z</time>
      </trkpt>
      <trkpt lat="44.92471" lon="-1.07351">
        <ele>65.568247</ele>
        <time>2022-12-23T15:07:50.750Z</time>
      </trkpt>
      <trkpt lat="44.9246" lon="-1.07356">
        <ele>65.62073</ele>
        <time>2022-12-23T15:07:53.750Z</time>
      </trkpt>
      <trkpt lat="44.92449" lon="-1.07361">
        <ele>65.674165</ele>
        <time>2022-12-23T15:07:56.753Z</time>
      </trkpt>
      <trkpt lat="44.92437" lon="-1.07367">
        <ele>65.728229</ele>
        <time>2022-12-23T15:07:59.734Z</time>
      </trkpt>
      <trkpt lat="44.92426" lon="-1.07372">
        <ele>65.780704</ele>
        <time>2022-12-23T15:08:02.741Z</time>
      </trkpt>
      <trkpt lat="44.92415" lon="-1.07378">
        <ele>65.834024</ele>
        <time>2022-12-23T15:08:05.749Z</time>
      </trkpt>
      <trkpt lat="44.92404" lon="-1.07383">
        <ele>65.888412</ele>
        <time>2022-12-23T15:08:08.749Z</time>
      </trkpt>
      <trkpt lat="44.92393" lon="-1.07389">
        <ele>65.940887</ele>
        <time>2022-12-23T15:08:11.749Z</time>
      </trkpt>
      <trkpt lat="44.92381" lon="-1.07394">
        <ele>65.993271</ele>
        <time>2022-12-23T15:08:14.752Z</time>
      </trkpt>
      <trkpt lat="44.9237" lon="-1.074">
        <ele>66.047233</ele>
        <time>2022-12-23T15:08:17.749Z</time>
      </trkpt>
      <trkpt lat="44.92359" lon="-1.07405">
        <ele>66.100024</ele>
        <time>2022-12-23T15:08:20.750Z</time>
      </trkpt>
      <trkpt lat="44.92348" lon="-1.07411">
        <ele>66.032813</ele>
        <time>2022-12-23T15:08:23.750Z</time>
      </trkpt>
      <trkpt lat="44.92336" lon="-1.07416">
        <ele>65.95632</ele>
        <time>2022-12-23T15:08:26.748Z</time>
      </trkpt>
      <trkpt lat="44.92325" lon="-1.07422">
        <ele>65.880471</ele>
        <time>2022-12-23T15:08:29.749Z</time>
      </trkpt>
      <trkpt lat="44.92313" lon="-1.07427">
        <ele>65.80403</ele>
        <time>2022-12-23T15:08:32.747Z</time>
      </trkpt>
      <trkpt lat="44.92301" lon="-1.07433">
        <ele>65.723916</ele>
        <time>2022-12-23T15:08:35.750Z</time>
      </trkpt>
      <trkpt lat="44.92289" lon="-1.07439">
        <ele>65.643505</ele>
        <time>2022-12-23T15:08:38.747Z</time>
      </trkpt>
      <trkpt lat="44.92277" lon="-1.07445">
        <ele>65.565452</ele>
        <time>2022-12-23T15:08:41.738Z</time>
      </trkpt>
      <trkpt lat="44.92265" lon="-1.07451">
        <ele>65.485035</ele>
        <time>2022-12-23T15:08:44.746Z</time>
      </trkpt>
      <trkpt lat="44.92253" lon="-1.07456">
        <ele>65.404569</ele>
        <time>2022-12-23T15:08:47.752Z</time>
      </trkpt>
      <trkpt lat="44.9224" lon="-1.07462">
        <ele>65.323374</ele>
        <time>2022-12-23T15:08:50.745Z</time>
      </trkpt>
      <trkpt lat="44.92228" lon="-1.07468">
        <ele>65.241935</ele>
        <time>2022-12-23T15:08:53.748Z</time>
      </trkpt>
      <trkpt lat="44.92216" lon="-1.07473">
        <ele>65.165493</ele>
        <time>2022-12-23T15:08:56.748Z</time>
      </trkpt>
      <trkpt lat="44.92205" lon="-1.07479">
        <ele>65.090091</ele>
        <time>2022-12-23T15:08:59.747Z</time>
      </trkpt>
      <trkpt lat="44.92193" lon="-1.07485">
        <ele>65.011743</ele>
        <time>2022-12-23T15:09:02.750Z</time>
      </trkpt>
      <trkpt lat="44.92182" lon="-1.07491">
        <ele>65.00694</ele>
        <time>2022-12-23T15:09:05.744Z</time>
      </trkpt>
      <trkpt lat="44.9217" lon="-1.07497">
        <ele>65.056995</ele>
        <time>2022-12-23T15:09:08.738Z</time>
      </trkpt>
      <trkpt lat="44.92159" lon="-1.07502">
        <ele>65.106953</ele>
        <time>2022-12-23T15:09:11.744Z</time>
      </trkpt>
      <trkpt lat="44.92148" lon="-1.07508">
        <ele>65.154316</ele>
        <time>2022-12-23T15:09:14.749Z</time>
      </trkpt>
      <trkpt lat="44.92137" lon="-1.07513">
        <ele>65.201292</ele>
        <time>2022-12-23T15:09:17.751Z</time>
      </trkpt>
      <trkpt lat="44.92126" lon="-1.07518">
        <ele>65.249729</ele>
        <time>2022-12-23T15:09:20.747Z</time>
      </trkpt>
      <trkpt lat="44.92115" lon="-1.07524">
        <ele>65.297572</ele>
        <time>2022-12-23T15:09:23.748Z</time>
      </trkpt>
      <trkpt lat="44.92103" lon="-1.07529">
        <ele>65.345447</ele>
        <time>2022-12-23T15:09:26.745Z</time>
      </trkpt>
      <trkpt lat="44.92092" lon="-1.07533">
        <ele>65.392456</ele>
        <time>2022-12-23T15:09:29.749Z</time>
      </trkpt>
      <trkpt lat="44.92082" lon="-1.07538">
        <ele>65.436155</ele>
        <time>2022-12-23T15:09:32.746Z</time>
      </trkpt>
      <trkpt lat="44.92072" lon="-1.07544">
        <ele>65.479283</ele>
        <time>2022-12-23T15:09:35.753Z</time>
      </trkpt>
      <trkpt lat="44.92062" lon="-1.07548">
        <ele>65.523274</ele>
        <time>2022-12-23T15:09:38.743Z</time>
      </trkpt>
      <trkpt lat="44.92052" lon="-1.07553">
        <ele>65.567652</ele>
        <time>2022-12-23T15:09:41.747Z</time>
      </trkpt>
      <trkpt lat="44.9204" lon="-1.07559">
        <ele>65.616656</ele>
        <time>2022-12-23T15:09:44.746Z</time>
      </trkpt>
      <trkpt lat="44.92029" lon="-1.07564">
        <ele>65.664592</ele>
        <time>2022-12-23T15:09:47.745Z</time>
      </trkpt>
      <trkpt lat="44.92018" lon="-1.0757">
        <ele>65.717011</ele>
        <time>2022-12-23T15:09:50.748Z</time>
      </trkpt>
      <trkpt lat="44.92007" lon="-1.07575">
        <ele>65.9073</ele>
        <time>2022-12-23T15:09:53.746Z</time>
      </trkpt>
      <trkpt lat="44.91995" lon="-1.0758">
        <ele>66.100203</ele>
        <time>2022-12-23T15:09:56.748Z</time>
      </trkpt>
      <trkpt lat="44.91983" lon="-1.07585">
        <ele>66.299416</ele>
        <time>2022-12-23T15:09:59.747Z</time>
      </trkpt>
      <trkpt lat="44.91972" lon="-1.0759">
        <ele>66.495027</ele>
        <time>2022-12-23T15:10:02.752Z</time>
      </trkpt>
      <trkpt lat="44.9196" lon="-1.07597">
        <ele>66.695587</ele>
        <time>2022-12-23T15:10:05.751Z</time>
      </trkpt>
      <trkpt lat="44.91948" lon="-1.07603">
        <ele>66.904122</ele>
        <time>2022-12-23T15:10:08.741Z</time>
      </trkpt>
      <trkpt lat="44.91937" lon="-1.07608">
        <ele>67.098924</ele>
        <time>2022-12-23T15:10:11.737Z</time>
      </trkpt>
      <trkpt lat="44.91927" lon="-1.07613">
        <ele>67.269329</ele>
        <time>2022-12-23T15:10:14.732Z</time>
      </trkpt>
      <trkpt lat="44.91917" lon="-1.07618">
        <ele>67.444362</ele>
        <time>2022-12-23T15:10:17.736Z</time>
      </trkpt>
      <trkpt lat="44.91906" lon="-1.07623">
        <ele>67.631576</ele>
        <time>2022-12-23T15:10:20.747Z</time>
      </trkpt>
      <trkpt lat="44.91895" lon="-1.07629">
        <ele>67.816459</ele>
        <time>2022-12-23T15:10:23.727Z</time>
      </trkpt>
      <trkpt lat="44.91884" lon="-1.07634">
        <ele>68.00486</ele>
        <time>2022-12-23T15:10:26.745Z</time>
      </trkpt>
      <trkpt lat="44.91873" lon="-1.07639">
        <ele>68.189382</ele>
        <time>2022-12-23T15:10:29.748Z</time>
      </trkpt>
      <trkpt lat="44.91862" lon="-1.07644">
        <ele>68.374353</ele>
        <time>2022-12-23T15:10:32.747Z</time>
      </trkpt>
      <trkpt lat="44.91851" lon="-1.07649">
        <ele>68.565725</ele>
        <time>2022-12-23T15:10:35.751Z</time>
      </trkpt>
      <trkpt lat="44.9184" lon="-1.07655">
        <ele>68.497879</ele>
        <time>2022-12-23T15:10:38.749Z</time>
      </trkpt>
      <trkpt lat="44.91829" lon="-1.0766">
        <ele>68.315007</ele>
        <time>2022-12-23T15:10:41.740Z</time>
      </trkpt>
      <trkpt lat="44.91817" lon="-1.07666">
        <ele>68.121822</ele>
        <time>2022-12-23T15:10:44.745Z</time>
      </trkpt>
      <trkpt lat="44.91805" lon="-1.07672">
        <ele>67.923511</ele>
        <time>2022-12-23T15:10:47.749Z</time>
      </trkpt>
      <trkpt lat="44.91793" lon="-1.07678">
        <ele>67.719295</ele>
        <time>2022-12-23T15:10:50.749Z</time>
      </trkpt>
      <trkpt lat="44.91781" lon="-1.07684">
        <ele>67.518389</ele>
        <time>2022-12-23T15:10:53.748Z</time>
      </trkpt>
      <trkpt lat="44.91769" lon="-1.07689">
        <ele>67.323123</ele>
        <time>2022-12-23T15:10:56.749Z</time>
      </trkpt>
      <trkpt lat="44.91758" lon="-1.07695">
        <ele>67.141993</ele>
        <time>2022-12-23T15:10:59.747Z</time>
      </trkpt>
      <trkpt lat="44.91748" lon="-1.07699">
        <ele>66.974674</ele>
        <time>2022-12-23T15:11:02.745Z</time>
      </trkpt>
      <trkpt lat="44.91737" lon="-1.07705">
        <ele>66.79142</ele>
        <time>2022-12-23T15:11:05.751Z</time>
      </trkpt>
      <trkpt lat="44.91725" lon="-1.0771">
        <ele>66.597485</ele>
        <time>2022-12-23T15:11:08.749Z</time>
      </trkpt>
      <trkpt lat="44.91716" lon="-1.07714">
        <ele>66.452689</ele>
        <time>2022-12-23T15:11:10.742Z</time>
      </trkpt>
      <trkpt lat="44.91704" lon="-1.0772">
        <ele>66.25254</ele>
        <time>2022-12-23T15:11:13.744Z</time>
      </trkpt>
      <trkpt lat="44.91692" lon="-1.07726">
        <ele>66.058172</ele>
        <time>2022-12-23T15:11:16.743Z</time>
      </trkpt>
      <trkpt lat="44.91681" lon="-1.07732">
        <ele>65.873025</ele>
        <time>2022-12-23T15:11:19.733Z</time>
      </trkpt>
      <trkpt lat="44.91671" lon="-1.07737">
        <ele>65.743487</ele>
        <time>2022-12-23T15:11:22.750Z</time>
      </trkpt>
      <trkpt lat="44.91659" lon="-1.07743">
        <ele>65.631759</ele>
        <time>2022-12-23T15:11:25.738Z</time>
      </trkpt>
      <trkpt lat="44.91648" lon="-1.07748">
        <ele>65.51957</ele>
        <time>2022-12-23T15:11:28.745Z</time>
      </trkpt>
      <trkpt lat="44.91636" lon="-1.07754">
        <ele>65.397728</ele>
        <time>2022-12-23T15:11:31.748Z</time>
      </trkpt>
      <trkpt lat="44.91624" lon="-1.07759">
        <ele>65.280819</ele>
        <time>2022-12-23T15:11:34.738Z</time>
      </trkpt>
      <trkpt lat="44.91614" lon="-1.07764">
        <ele>65.174674</ele>
        <time>2022-12-23T15:11:37.745Z</time>
      </trkpt>
      <trkpt lat="44.91603" lon="-1.07769">
        <ele>65.070322</ele>
        <time>2022-12-23T15:11:40.723Z</time>
      </trkpt>
      <trkpt lat="44.91592" lon="-1.07775">
        <ele>64.959032</ele>
        <time>2022-12-23T15:11:43.740Z</time>
      </trkpt>
      <trkpt lat="44.91581" lon="-1.0778">
        <ele>64.846852</ele>
        <time>2022-12-23T15:11:46.750Z</time>
      </trkpt>
      <trkpt lat="44.91571" lon="-1.07785">
        <ele>64.745153</ele>
        <time>2022-12-23T15:11:49.744Z</time>
      </trkpt>
      <trkpt lat="44.91562" lon="-1.0779">
        <ele>64.651782</ele>
        <time>2022-12-23T15:11:52.742Z</time>
      </trkpt>
      <trkpt lat="44.91551" lon="-1.07795">
        <ele>64.548335</ele>
        <time>2022-12-23T15:11:55.749Z</time>
      </trkpt>
      <trkpt lat="44.91541" lon="-1.078">
        <ele>64.440638</ele>
        <time>2022-12-23T15:11:58.748Z</time>
      </trkpt>
      <trkpt lat="44.9153" lon="-1.07805">
        <ele>64.334006</ele>
        <time>2022-12-23T15:12:01.738Z</time>
      </trkpt>
      <trkpt lat="44.91519" lon="-1.0781">
        <ele>64.227646</ele>
        <time>2022-12-23T15:12:04.747Z</time>
      </trkpt>
      <trkpt lat="44.91508" lon="-1.07815">
        <ele>64.116357</ele>
        <time>2022-12-23T15:12:07.747Z</time>
      </trkpt>
      <trkpt lat="44.91496" lon="-1.07822">
        <ele>63.985938</ele>
        <time>2022-12-23T15:12:10.744Z</time>
      </trkpt>
      <trkpt lat="44.91484" lon="-1.07827">
        <ele>63.863234</ele>
        <time>2022-12-23T15:12:13.753Z</time>
      </trkpt>
      <trkpt lat="44.91474" lon="-1.07833">
        <ele>63.74805</ele>
        <time>2022-12-23T15:12:16.743Z</time>
      </trkpt>
      <trkpt lat="44.91462" lon="-1.07838">
        <ele>63.627727</ele>
        <time>2022-12-23T15:12:19.733Z</time>
      </trkpt>
      <trkpt lat="44.9145" lon="-1.07844">
        <ele>63.503126</ele>
        <time>2022-12-23T15:12:22.747Z</time>
      </trkpt>
      <trkpt lat="44.91438" lon="-1.07849">
        <ele>63.374512</ele>
        <time>2022-12-23T15:12:25.730Z</time>
      </trkpt>
      <trkpt lat="44.91425" lon="-1.07855">
        <ele>63.243127</ele>
        <time>2022-12-23T15:12:28.730Z</time>
      </trkpt>
      <trkpt lat="44.91415" lon="-1.0786">
        <ele>63.131495</ele>
        <time>2022-12-23T15:12:31.748Z</time>
      </trkpt>
      <trkpt lat="44.91405" lon="-1.07866">
        <ele>63.024084</ele>
        <time>2022-12-23T15:12:34.729Z</time>
      </trkpt>
      <trkpt lat="44.91394" lon="-1.07871">
        <ele>62.911945</ele>
        <time>2022-12-23T15:12:37.755Z</time>
      </trkpt>
      <trkpt lat="44.91383" lon="-1.07876">
        <ele>62.798198</ele>
        <time>2022-12-23T15:12:40.749Z</time>
      </trkpt>
      <trkpt lat="44.91372" lon="-1.07882">
        <ele>62.679991</ele>
        <time>2022-12-23T15:12:43.747Z</time>
      </trkpt>
      <trkpt lat="44.91361" lon="-1.07887">
        <ele>62.561515</ele>
        <time>2022-12-23T15:12:46.742Z</time>
      </trkpt>
      <trkpt lat="44.9135" lon="-1.07892">
        <ele>62.448647</ele>
        <time>2022-12-23T15:12:49.749Z</time>
      </trkpt>
      <trkpt lat="44.91339" lon="-1.07897">
        <ele>62.329222</ele>
        <time>2022-12-23T15:12:52.750Z</time>
      </trkpt>
      <trkpt lat="44.91327" lon="-1.07903">
        <ele>62.49379</ele>
        <time>2022-12-23T15:12:55.750Z</time>
      </trkpt>
      <trkpt lat="44.91316" lon="-1.07909">
        <ele>62.701974</ele>
        <time>2022-12-23T15:12:58.743Z</time>
      </trkpt>
      <trkpt lat="44.91305" lon="-1.07914">
        <ele>62.91101</ele>
        <time>2022-12-23T15:13:01.727Z</time>
      </trkpt>
      <trkpt lat="44.91293" lon="-1.07919">
        <ele>63.120429</ele>
        <time>2022-12-23T15:13:04.750Z</time>
      </trkpt>
      <trkpt lat="44.91282" lon="-1.07924">
        <ele>63.322682</ele>
        <time>2022-12-23T15:13:07.749Z</time>
      </trkpt>
      <trkpt lat="44.91271" lon="-1.07929">
        <ele>63.521104</ele>
        <time>2022-12-23T15:13:10.748Z</time>
      </trkpt>
      <trkpt lat="44.9126" lon="-1.07935">
        <ele>63.719155</ele>
        <time>2022-12-23T15:13:13.741Z</time>
      </trkpt>
      <trkpt lat="44.91249" lon="-1.07941">
        <ele>63.921629</ele>
        <time>2022-12-23T15:13:16.742Z</time>
      </trkpt>
      <trkpt lat="44.91239" lon="-1.07946">
        <ele>64.115536</ele>
        <time>2022-12-23T15:13:19.749Z</time>
      </trkpt>
      <trkpt lat="44.91229" lon="-1.07951">
        <ele>64.287062</ele>
        <time>2022-12-23T15:13:22.741Z</time>
      </trkpt>
      <trkpt lat="44.91221" lon="-1.07955">
        <ele>64.442776</ele>
        <time>2022-12-23T15:13:25.753Z</time>
      </trkpt>
      <trkpt lat="44.91212" lon="-1.07959">
        <ele>64.597597</ele>
        <time>2022-12-23T15:13:28.747Z</time>
      </trkpt>
      <trkpt lat="44.91203" lon="-1.07963">
        <ele>64.76384</ele>
        <time>2022-12-23T15:13:31.748Z</time>
      </trkpt>
      <trkpt lat="44.91194" lon="-1.07968">
        <ele>64.941171</ele>
        <time>2022-12-23T15:13:34.743Z</time>
      </trkpt>
      <trkpt lat="44.91183" lon="-1.07973">
        <ele>65.126958</ele>
        <time>2022-12-23T15:13:37.720Z</time>
      </trkpt>
      <trkpt lat="44.91173" lon="-1.07978">
        <ele>65.320466</ele>
        <time>2022-12-23T15:13:40.742Z</time>
      </trkpt>
      <trkpt lat="44.91162" lon="-1.07983">
        <ele>65.425289</ele>
        <time>2022-12-23T15:13:43.745Z</time>
      </trkpt>
      <trkpt lat="44.91152" lon="-1.07988">
        <ele>65.43241</ele>
        <time>2022-12-23T15:13:46.746Z</time>
      </trkpt>
      <trkpt lat="44.9114" lon="-1.07993">
        <ele>65.440216</ele>
        <time>2022-12-23T15:13:49.748Z</time>
      </trkpt>
      <trkpt lat="44.91129" lon="-1.07999">
        <ele>65.448035</ele>
        <time>2022-12-23T15:13:52.744Z</time>
      </trkpt>
      <trkpt lat="44.91116" lon="-1.08005">
        <ele>65.456386</ele>
        <time>2022-12-23T15:13:55.744Z</time>
      </trkpt>
      <trkpt lat="44.91105" lon="-1.08011">
        <ele>65.46425</ele>
        <time>2022-12-23T15:13:58.735Z</time>
      </trkpt>
      <trkpt lat="44.91095" lon="-1.08016">
        <ele>65.471295</ele>
        <time>2022-12-23T15:14:01.731Z</time>
      </trkpt>
      <trkpt lat="44.91084" lon="-1.08021">
        <ele>65.478614</ele>
        <time>2022-12-23T15:14:04.745Z</time>
      </trkpt>
      <trkpt lat="44.91073" lon="-1.08026">
        <ele>65.485995</ele>
        <time>2022-12-23T15:14:07.747Z</time>
      </trkpt>
      <trkpt lat="44.91062" lon="-1.08031">
        <ele>65.493571</ele>
        <time>2022-12-23T15:14:10.747Z</time>
      </trkpt>
      <trkpt lat="44.91051" lon="-1.08037">
        <ele>65.501085</ele>
        <time>2022-12-23T15:14:13.741Z</time>
      </trkpt>
      <trkpt lat="44.9104" lon="-1.08042">
        <ele>65.508282</ele>
        <time>2022-12-23T15:14:16.738Z</time>
      </trkpt>
      <trkpt lat="44.91031" lon="-1.08046">
        <ele>65.514853</ele>
        <time>2022-12-23T15:14:19.745Z</time>
      </trkpt>
      <trkpt lat="44.91021" lon="-1.08051">
        <ele>65.521637</ele>
        <time>2022-12-23T15:14:22.742Z</time>
      </trkpt>
      <trkpt lat="44.91011" lon="-1.08057">
        <ele>65.528574</ele>
        <time>2022-12-23T15:14:25.730Z</time>
      </trkpt>
      <trkpt lat="44.91" lon="-1.08061">
        <ele>65.535492</ele>
        <time>2022-12-23T15:14:28.748Z</time>
      </trkpt>
      <trkpt lat="44.9099" lon="-1.08065">
        <ele>65.392559</ele>
        <time>2022-12-23T15:14:31.744Z</time>
      </trkpt>
      <trkpt lat="44.90979" lon="-1.08071">
        <ele>65.150313</ele>
        <time>2022-12-23T15:14:34.740Z</time>
      </trkpt>
      <trkpt lat="44.90967" lon="-1.08076">
        <ele>64.906697</ele>
        <time>2022-12-23T15:14:37.745Z</time>
      </trkpt>
      <trkpt lat="44.90956" lon="-1.08083">
        <ele>64.658292</ele>
        <time>2022-12-23T15:14:40.747Z</time>
      </trkpt>
      <trkpt lat="44.90944" lon="-1.08088">
        <ele>64.412776</ele>
        <time>2022-12-23T15:14:43.747Z</time>
      </trkpt>
      <trkpt lat="44.90933" lon="-1.08094">
        <ele>64.176333</ele>
        <time>2022-12-23T15:14:46.745Z</time>
      </trkpt>
      <trkpt lat="44.90922" lon="-1.08099">
        <ele>63.927623</ele>
        <time>2022-12-23T15:14:49.743Z</time>
      </trkpt>
      <trkpt lat="44.9091" lon="-1.08104">
        <ele>63.671152</ele>
        <time>2022-12-23T15:14:52.746Z</time>
      </trkpt>
      <trkpt lat="44.90898" lon="-1.0811">
        <ele>63.414551</ele>
        <time>2022-12-23T15:14:55.746Z</time>
      </trkpt>
      <trkpt lat="44.90886" lon="-1.08116">
        <ele>63.157612</ele>
        <time>2022-12-23T15:14:58.747Z</time>
      </trkpt>
      <trkpt lat="44.90874" lon="-1.08122">
        <ele>62.899717</ele>
        <time>2022-12-23T15:15:01.750Z</time>
      </trkpt>
      <trkpt lat="44.90862" lon="-1.08127">
        <ele>62.653267</ele>
        <time>2022-12-23T15:15:04.749Z</time>
      </trkpt>
      <trkpt lat="44.90851" lon="-1.08133">
        <ele>62.409651</ele>
        <time>2022-12-23T15:15:07.749Z</time>
      </trkpt>
      <trkpt lat="44.90839" lon="-1.08139">
        <ele>62.161625</ele>
        <time>2022-12-23T15:15:10.743Z</time>
      </trkpt>
      <trkpt lat="44.90827" lon="-1.08144">
        <ele>61.907529</ele>
        <time>2022-12-23T15:15:13.749Z</time>
      </trkpt>
      <trkpt lat="44.90815" lon="-1.0815">
        <ele>61.876361</ele>
        <time>2022-12-23T15:15:16.745Z</time>
      </trkpt>
      <trkpt lat="44.90803" lon="-1.08156">
        <ele>61.849976</ele>
        <time>2022-12-23T15:15:19.752Z</time>
      </trkpt>
      <trkpt lat="44.90791" lon="-1.08161">
        <ele>61.82487</ele>
        <time>2022-12-23T15:15:22.746Z</time>
      </trkpt>
      <trkpt lat="44.9078" lon="-1.08167">
        <ele>61.800159</ele>
        <time>2022-12-23T15:15:25.732Z</time>
      </trkpt>
      <trkpt lat="44.90769" lon="-1.08172">
        <ele>61.776593</ele>
        <time>2022-12-23T15:15:28.743Z</time>
      </trkpt>
      <trkpt lat="44.9076" lon="-1.08177">
        <ele>61.756947</ele>
        <time>2022-12-23T15:15:31.746Z</time>
      </trkpt>
      <trkpt lat="44.9075" lon="-1.08181">
        <ele>61.735946</ele>
        <time>2022-12-23T15:15:35.744Z</time>
      </trkpt>
      <trkpt lat="44.90739" lon="-1.08188">
        <ele>61.711555</ele>
        <time>2022-12-23T15:15:39.745Z</time>
      </trkpt>
      <trkpt lat="44.90729" lon="-1.08192">
        <ele>61.690749</ele>
        <time>2022-12-23T15:15:42.746Z</time>
      </trkpt>
      <trkpt lat="44.90719" lon="-1.08197">
        <ele>61.669179</ele>
        <time>2022-12-23T15:15:45.733Z</time>
      </trkpt>
      <trkpt lat="44.90708" lon="-1.08203">
        <ele>61.646181</ele>
        <time>2022-12-23T15:15:48.744Z</time>
      </trkpt>
      <trkpt lat="44.90697" lon="-1.08208">
        <ele>61.622256</ele>
        <time>2022-12-23T15:15:51.737Z</time>
      </trkpt>
      <trkpt lat="44.90686" lon="-1.08213">
        <ele>61.598499</ele>
        <time>2022-12-23T15:15:54.747Z</time>
      </trkpt>
      <trkpt lat="44.90675" lon="-1.08219">
        <ele>61.575078</ele>
        <time>2022-12-23T15:15:57.749Z</time>
      </trkpt>
      <trkpt lat="44.90663" lon="-1.08224">
        <ele>61.549646</ele>
        <time>2022-12-23T15:16:00.747Z</time>
      </trkpt>
      <trkpt lat="44.90652" lon="-1.08229">
        <ele>61.562906</ele>
        <time>2022-12-23T15:16:03.741Z</time>
      </trkpt>
      <trkpt lat="44.9064" lon="-1.08235">
        <ele>61.628781</ele>
        <time>2022-12-23T15:16:06.742Z</time>
      </trkpt>
      <trkpt lat="44.90629" lon="-1.0824">
        <ele>61.691652</ele>
        <time>2022-12-23T15:16:09.727Z</time>
      </trkpt>
      <trkpt lat="44.90619" lon="-1.08246">
        <ele>61.751759</ele>
        <time>2022-12-23T15:16:12.735Z</time>
      </trkpt>
      <trkpt lat="44.90609" lon="-1.08251">
        <ele>61.80509</ele>
        <time>2022-12-23T15:16:15.754Z</time>
      </trkpt>
      <trkpt lat="44.90599" lon="-1.08255">
        <ele>61.861238</ele>
        <time>2022-12-23T15:16:18.752Z</time>
      </trkpt>
      <trkpt lat="44.90588" lon="-1.0826">
        <ele>61.920769</ele>
        <time>2022-12-23T15:16:21.750Z</time>
      </trkpt>
      <trkpt lat="44.90577" lon="-1.08266">
        <ele>61.985524</ele>
        <time>2022-12-23T15:16:24.736Z</time>
      </trkpt>
      <trkpt lat="44.90565" lon="-1.08271">
        <ele>62.050028</ele>
        <time>2022-12-23T15:16:27.749Z</time>
      </trkpt>
      <trkpt lat="44.90554" lon="-1.08276">
        <ele>62.114185</ele>
        <time>2022-12-23T15:16:30.746Z</time>
      </trkpt>
      <trkpt lat="44.90542" lon="-1.08281">
        <ele>62.180713</ele>
        <time>2022-12-23T15:16:33.749Z</time>
      </trkpt>
      <trkpt lat="44.90531" lon="-1.08287">
        <ele>62.244454</ele>
        <time>2022-12-23T15:16:36.737Z</time>
      </trkpt>
      <trkpt lat="44.90519" lon="-1.08292">
        <ele>62.308498</ele>
        <time>2022-12-23T15:16:39.750Z</time>
      </trkpt>
      <trkpt lat="44.90507" lon="-1.08298">
        <ele>62.378693</ele>
        <time>2022-12-23T15:16:42.749Z</time>
      </trkpt>
      <trkpt lat="44.90494" lon="-1.08304">
        <ele>62.447578</ele>
        <time>2022-12-23T15:16:45.751Z</time>
      </trkpt>
      <trkpt lat="44.90482" lon="-1.08309">
        <ele>62.527239</ele>
        <time>2022-12-23T15:16:48.724Z</time>
      </trkpt>
      <trkpt lat="44.90471" lon="-1.08314">
        <ele>62.623361</ele>
        <time>2022-12-23T15:16:51.750Z</time>
      </trkpt>
      <trkpt lat="44.9046" lon="-1.08319">
        <ele>62.716335</ele>
        <time>2022-12-23T15:16:54.725Z</time>
      </trkpt>
      <trkpt lat="44.9045" lon="-1.08324">
        <ele>62.799597</ele>
        <time>2022-12-23T15:16:57.747Z</time>
      </trkpt>
      <trkpt lat="44.90441" lon="-1.08329">
        <ele>62.873659</ele>
        <time>2022-12-23T15:17:00.749Z</time>
      </trkpt>
      <trkpt lat="44.90432" lon="-1.08333">
        <ele>62.951356</ele>
        <time>2022-12-23T15:17:03.752Z</time>
      </trkpt>
      <trkpt lat="44.90421" lon="-1.08338">
        <ele>63.041984</ele>
        <time>2022-12-23T15:17:06.742Z</time>
      </trkpt>
      <trkpt lat="44.9041" lon="-1.08343">
        <ele>63.137141</ele>
        <time>2022-12-23T15:17:09.741Z</time>
      </trkpt>
      <trkpt lat="44.904" lon="-1.08348">
        <ele>63.225708</ele>
        <time>2022-12-23T15:17:12.753Z</time>
      </trkpt>
      <trkpt lat="44.90389" lon="-1.08352">
        <ele>63.312185</ele>
        <time>2022-12-23T15:17:15.748Z</time>
      </trkpt>
      <trkpt lat="44.90379" lon="-1.08357">
        <ele>63.394718</ele>
        <time>2022-12-23T15:17:18.749Z</time>
      </trkpt>
      <trkpt lat="44.9037" lon="-1.08362">
        <ele>63.477615</ele>
        <time>2022-12-23T15:17:21.751Z</time>
      </trkpt>
      <trkpt lat="44.9036" lon="-1.08367">
        <ele>63.559761</ele>
        <time>2022-12-23T15:17:24.721Z</time>
      </trkpt>
      <trkpt lat="44.90349" lon="-1.08373">
        <ele>63.651153</ele>
        <time>2022-12-23T15:17:27.752Z</time>
      </trkpt>
      <trkpt lat="44.90338" lon="-1.08378">
        <ele>63.74801</ele>
        <time>2022-12-23T15:17:30.743Z</time>
      </trkpt>
      <trkpt lat="44.90327" lon="-1.08383">
        <ele>63.838455</ele>
        <time>2022-12-23T15:17:33.743Z</time>
      </trkpt>
      <trkpt lat="44.90318" lon="-1.08387">
        <ele>63.914785</ele>
        <time>2022-12-23T15:17:36.741Z</time>
      </trkpt>
      <trkpt lat="44.90308" lon="-1.08393">
        <ele>63.948644</ele>
        <time>2022-12-23T15:17:40.750Z</time>
      </trkpt>
      <trkpt lat="44.90299" lon="-1.08397">
        <ele>63.964734</ele>
        <time>2022-12-23T15:17:43.742Z</time>
      </trkpt>
      <trkpt lat="44.90289" lon="-1.08402">
        <ele>63.982536</ele>
        <time>2022-12-23T15:17:46.726Z</time>
      </trkpt>
      <trkpt lat="44.90278" lon="-1.08408">
        <ele>64.001455</ele>
        <time>2022-12-23T15:17:49.750Z</time>
      </trkpt>
      <trkpt lat="44.90268" lon="-1.08413">
        <ele>64.020174</ele>
        <time>2022-12-23T15:17:52.741Z</time>
      </trkpt>
      <trkpt lat="44.90257" lon="-1.08419">
        <ele>64.039651</ele>
        <time>2022-12-23T15:17:55.749Z</time>
      </trkpt>
      <trkpt lat="44.90246" lon="-1.08424">
        <ele>64.058927</ele>
        <time>2022-12-23T15:17:58.749Z</time>
      </trkpt>
      <trkpt lat="44.90236" lon="-1.08428">
        <ele>64.077626</ele>
        <time>2022-12-23T15:18:01.747Z</time>
      </trkpt>
      <trkpt lat="44.90225" lon="-1.08433">
        <ele>64.09695</ele>
        <time>2022-12-23T15:18:04.750Z</time>
      </trkpt>
      <trkpt lat="44.90214" lon="-1.08438">
        <ele>64.116867</ele>
        <time>2022-12-23T15:18:07.738Z</time>
      </trkpt>
      <trkpt lat="44.90203" lon="-1.08444">
        <ele>64.13654</ele>
        <time>2022-12-23T15:18:10.741Z</time>
      </trkpt>
      <trkpt lat="44.90191" lon="-1.08449">
        <ele>64.157211</ele>
        <time>2022-12-23T15:18:13.744Z</time>
      </trkpt>
      <trkpt lat="44.90179" lon="-1.08455">
        <ele>64.178122</ele>
        <time>2022-12-23T15:18:16.726Z</time>
      </trkpt>
      <trkpt lat="44.90168" lon="-1.08461">
        <ele>64.198595</ele>
        <time>2022-12-23T15:18:19.734Z</time>
      </trkpt>
      <trkpt lat="44.90156" lon="-1.08466">
        <ele>64.219031</ele>
        <time>2022-12-23T15:18:22.726Z</time>
      </trkpt>
      <trkpt lat="44.90145" lon="-1.08471">
        <ele>64.233451</ele>
        <time>2022-12-23T15:18:25.724Z</time>
      </trkpt>
      <trkpt lat="44.90134" lon="-1.08477">
        <ele>64.185151</ele>
        <time>2022-12-23T15:18:28.747Z</time>
      </trkpt>
      <trkpt lat="44.90123" lon="-1.08482">
        <ele>64.13685</ele>
        <time>2022-12-23T15:18:31.748Z</time>
      </trkpt>
      <trkpt lat="44.90111" lon="-1.08488">
        <ele>64.086493</ele>
        <time>2022-12-23T15:18:34.748Z</time>
      </trkpt>
      <trkpt lat="44.90101" lon="-1.08492">
        <ele>64.043567</ele>
        <time>2022-12-23T15:18:37.724Z</time>
      </trkpt>
      <trkpt lat="44.90093" lon="-1.08497">
        <ele>64.006019</ele>
        <time>2022-12-23T15:18:40.743Z</time>
      </trkpt>
      <trkpt lat="44.90084" lon="-1.08501">
        <ele>63.96515</ele>
        <time>2022-12-23T15:18:43.724Z</time>
      </trkpt>
      <trkpt lat="44.90074" lon="-1.08505">
        <ele>63.922277</ele>
        <time>2022-12-23T15:18:46.741Z</time>
      </trkpt>
      <trkpt lat="44.90063" lon="-1.08511">
        <ele>63.874952</ele>
        <time>2022-12-23T15:18:49.729Z</time>
      </trkpt>
      <trkpt lat="44.90052" lon="-1.08515">
        <ele>63.827993</ele>
        <time>2022-12-23T15:18:52.749Z</time>
      </trkpt>
      <trkpt lat="44.90042" lon="-1.08521">
        <ele>63.781745</ele>
        <time>2022-12-23T15:18:55.751Z</time>
      </trkpt>
      <trkpt lat="44.90031" lon="-1.08526">
        <ele>63.733907</ele>
        <time>2022-12-23T15:18:58.742Z</time>
      </trkpt>
      <trkpt lat="44.9002" lon="-1.08531">
        <ele>63.687069</ele>
        <time>2022-12-23T15:19:01.747Z</time>
      </trkpt>
      <trkpt lat="44.90009" lon="-1.08537">
        <ele>63.639352</ele>
        <time>2022-12-23T15:19:04.735Z</time>
      </trkpt>
      <trkpt lat="44.89998" lon="-1.08543">
        <ele>63.590264</ele>
        <time>2022-12-23T15:19:07.748Z</time>
      </trkpt>
      <trkpt lat="44.89987" lon="-1.08548">
        <ele>63.540786</ele>
        <time>2022-12-23T15:19:10.744Z</time>
      </trkpt>
      <trkpt lat="44.89976" lon="-1.08553">
        <ele>63.492948</ele>
        <time>2022-12-23T15:19:13.751Z</time>
      </trkpt>
      <trkpt lat="44.89964" lon="-1.08558">
        <ele>63.360965</ele>
        <time>2022-12-23T15:19:16.746Z</time>
      </trkpt>
      <trkpt lat="44.89953" lon="-1.08564">
        <ele>63.22586</ele>
        <time>2022-12-23T15:19:19.748Z</time>
      </trkpt>
      <trkpt lat="44.89943" lon="-1.08568">
        <ele>63.110755</ele>
        <time>2022-12-23T15:19:22.733Z</time>
      </trkpt>
      <trkpt lat="44.89934" lon="-1.08572">
        <ele>63.006779</ele>
        <time>2022-12-23T15:19:25.749Z</time>
      </trkpt>
      <trkpt lat="44.89925" lon="-1.08577">
        <ele>62.897798</ele>
        <time>2022-12-23T15:19:28.746Z</time>
      </trkpt>
      <trkpt lat="44.89914" lon="-1.08581">
        <ele>62.768313</ele>
        <time>2022-12-23T15:19:31.747Z</time>
      </trkpt>
      <trkpt lat="44.89904" lon="-1.08586">
        <ele>62.647195</ele>
        <time>2022-12-23T15:19:34.746Z</time>
      </trkpt>
      <trkpt lat="44.89893" lon="-1.08592">
        <ele>62.512063</ele>
        <time>2022-12-23T15:19:37.722Z</time>
      </trkpt>
      <trkpt lat="44.89882" lon="-1.08598">
        <ele>62.387515</ele>
        <time>2022-12-23T15:19:40.751Z</time>
      </trkpt>
      <trkpt lat="44.89871" lon="-1.08603">
        <ele>62.253467</ele>
        <time>2022-12-23T15:19:43.750Z</time>
      </trkpt>
      <trkpt lat="44.8986" lon="-1.08609">
        <ele>62.124169</ele>
        <time>2022-12-23T15:19:46.743Z</time>
      </trkpt>
      <trkpt lat="44.89848" lon="-1.08613">
        <ele>61.988642</ele>
        <time>2022-12-23T15:19:49.741Z</time>
      </trkpt>
      <trkpt lat="44.89836" lon="-1.08619">
        <ele>61.844226</ele>
        <time>2022-12-23T15:19:52.751Z</time>
      </trkpt>
      <trkpt lat="44.89824" lon="-1.08625">
        <ele>61.701449</ele>
        <time>2022-12-23T15:19:55.750Z</time>
      </trkpt>
      <trkpt lat="44.89813" lon="-1.0863">
        <ele>61.572919</ele>
        <time>2022-12-23T15:19:58.741Z</time>
      </trkpt>
      <trkpt lat="44.89802" lon="-1.08635">
        <ele>61.463577</ele>
        <time>2022-12-23T15:20:01.749Z</time>
      </trkpt>
      <trkpt lat="44.8979" lon="-1.0864">
        <ele>61.400126</ele>
        <time>2022-12-23T15:20:04.733Z</time>
      </trkpt>
      <trkpt lat="44.89782" lon="-1.08645">
        <ele>61.352954</ele>
        <time>2022-12-23T15:20:06.749Z</time>
      </trkpt>
      <trkpt lat="44.8977" lon="-1.08651">
        <ele>61.289856</ele>
        <time>2022-12-23T15:20:09.747Z</time>
      </trkpt>
      <trkpt lat="44.8976" lon="-1.08655">
        <ele>61.236099</ele>
        <time>2022-12-23T15:20:12.750Z</time>
      </trkpt>
      <trkpt lat="44.89752" lon="-1.0866">
        <ele>61.188948</ele>
        <time>2022-12-23T15:20:15.749Z</time>
      </trkpt>
      <trkpt lat="44.89741" lon="-1.08664">
        <ele>61.133836</ele>
        <time>2022-12-23T15:20:18.742Z</time>
      </trkpt>
      <trkpt lat="44.89729" lon="-1.0867">
        <ele>61.06932</ele>
        <time>2022-12-23T15:20:21.749Z</time>
      </trkpt>
      <trkpt lat="44.89717" lon="-1.08676">
        <ele>61.002128</ele>
        <time>2022-12-23T15:20:24.744Z</time>
      </trkpt>
      <trkpt lat="44.89705" lon="-1.08681">
        <ele>60.937044</ele>
        <time>2022-12-23T15:20:27.747Z</time>
      </trkpt>
      <trkpt lat="44.89692" lon="-1.08686">
        <ele>60.871262</ele>
        <time>2022-12-23T15:20:30.724Z</time>
      </trkpt>
      <trkpt lat="44.89684" lon="-1.08691">
        <ele>60.82423</ele>
        <time>2022-12-23T15:20:32.750Z</time>
      </trkpt>
      <trkpt lat="44.89675" lon="-1.08695">
        <ele>60.775994</ele>
        <time>2022-12-23T15:20:34.738Z</time>
      </trkpt>
      <trkpt lat="44.89662" lon="-1.087">
        <ele>60.708743</ele>
        <time>2022-12-23T15:20:37.732Z</time>
      </trkpt>
      <trkpt lat="44.89653" lon="-1.08704">
        <ele>60.660369</ele>
        <time>2022-12-23T15:20:39.724Z</time>
      </trkpt>
      <trkpt lat="44.89641" lon="-1.08711">
        <ele>60.594879</ele>
        <time>2022-12-23T15:20:42.747Z</time>
      </trkpt>
      <trkpt lat="44.89632" lon="-1.08715">
        <ele>60.600069</ele>
        <time>2022-12-23T15:20:44.727Z</time>
      </trkpt>
      <trkpt lat="44.8962" lon="-1.0872">
        <ele>60.759149</ele>
        <time>2022-12-23T15:20:47.751Z</time>
      </trkpt>
      <trkpt lat="44.89611" lon="-1.08725">
        <ele>60.897947</ele>
        <time>2022-12-23T15:20:50.747Z</time>
      </trkpt>
      <trkpt lat="44.89601" lon="-1.0873">
        <ele>61.035159</ele>
        <time>2022-12-23T15:20:53.723Z</time>
      </trkpt>
      <trkpt lat="44.8959" lon="-1.08735">
        <ele>61.185634</ele>
        <time>2022-12-23T15:20:56.744Z</time>
      </trkpt>
      <trkpt lat="44.89579" lon="-1.08741">
        <ele>61.341971</ele>
        <time>2022-12-23T15:20:59.749Z</time>
      </trkpt>
      <trkpt lat="44.89569" lon="-1.08747">
        <ele>61.486792</ele>
        <time>2022-12-23T15:21:02.744Z</time>
      </trkpt>
      <trkpt lat="44.89557" lon="-1.08753">
        <ele>61.663831</ele>
        <time>2022-12-23T15:21:05.750Z</time>
      </trkpt>
      <trkpt lat="44.89548" lon="-1.08757">
        <ele>61.789009</ele>
        <time>2022-12-23T15:21:07.748Z</time>
      </trkpt>
      <trkpt lat="44.89539" lon="-1.0876">
        <ele>61.916775</ele>
        <time>2022-12-23T15:21:09.746Z</time>
      </trkpt>
      <trkpt lat="44.89527" lon="-1.08766">
        <ele>62.084386</ele>
        <time>2022-12-23T15:21:12.743Z</time>
      </trkpt>
      <trkpt lat="44.89516" lon="-1.08771">
        <ele>62.240923</ele>
        <time>2022-12-23T15:21:15.746Z</time>
      </trkpt>
      <trkpt lat="44.89507" lon="-1.08776">
        <ele>62.372444</ele>
        <time>2022-12-23T15:21:18.720Z</time>
      </trkpt>
      <trkpt lat="44.89498" lon="-1.08781">
        <ele>62.498582</ele>
        <time>2022-12-23T15:21:21.725Z</time>
      </trkpt>
      <trkpt lat="44.89488" lon="-1.08786">
        <ele>62.63487</ele>
        <time>2022-12-23T15:21:24.747Z</time>
      </trkpt>
      <trkpt lat="44.89477" lon="-1.08792">
        <ele>62.799218</ele>
        <time>2022-12-23T15:21:27.726Z</time>
      </trkpt>
      <trkpt lat="44.89465" lon="-1.08798">
        <ele>62.964278</ele>
        <time>2022-12-23T15:21:30.729Z</time>
      </trkpt>
      <trkpt lat="44.89453" lon="-1.08803">
        <ele>62.983671</ele>
        <time>2022-12-23T15:21:33.739Z</time>
      </trkpt>
      <trkpt lat="44.89441" lon="-1.08809">
        <ele>62.997173</ele>
        <time>2022-12-23T15:21:36.747Z</time>
      </trkpt>
      <trkpt lat="44.89429" lon="-1.08813">
        <ele>63.009619</ele>
        <time>2022-12-23T15:21:39.742Z</time>
      </trkpt>
      <trkpt lat="44.8942" lon="-1.08818">
        <ele>63.020342</ele>
        <time>2022-12-23T15:21:42.723Z</time>
      </trkpt>
      <trkpt lat="44.8941" lon="-1.08823">
        <ele>63.031628</ele>
        <time>2022-12-23T15:21:45.738Z</time>
      </trkpt>
      <trkpt lat="44.894" lon="-1.08828">
        <ele>63.043162</ele>
        <time>2022-12-23T15:21:48.738Z</time>
      </trkpt>
      <trkpt lat="44.89389" lon="-1.08834">
        <ele>63.055119</ele>
        <time>2022-12-23T15:21:51.736Z</time>
      </trkpt>
      <trkpt lat="44.89378" lon="-1.08839">
        <ele>63.067654</ele>
        <time>2022-12-23T15:21:54.740Z</time>
      </trkpt>
      <trkpt lat="44.89367" lon="-1.08845">
        <ele>63.079988</ele>
        <time>2022-12-23T15:21:57.748Z</time>
      </trkpt>
      <trkpt lat="44.89357" lon="-1.08849">
        <ele>63.091325</ele>
        <time>2022-12-23T15:22:00.743Z</time>
      </trkpt>
      <trkpt lat="44.89347" lon="-1.08853">
        <ele>63.101311</ele>
        <time>2022-12-23T15:22:03.735Z</time>
      </trkpt>
      <trkpt lat="44.89337" lon="-1.08859">
        <ele>63.112974</ele>
        <time>2022-12-23T15:22:06.727Z</time>
      </trkpt>
      <trkpt lat="44.89325" lon="-1.08864">
        <ele>63.126382</ele>
        <time>2022-12-23T15:22:09.748Z</time>
      </trkpt>
      <trkpt lat="44.89314" lon="-1.08869">
        <ele>63.138964</ele>
        <time>2022-12-23T15:22:12.744Z</time>
      </trkpt>
      <trkpt lat="44.89304" lon="-1.08874">
        <ele>63.149528</ele>
        <time>2022-12-23T15:22:15.725Z</time>
      </trkpt>
      <trkpt lat="44.89294" lon="-1.08879">
        <ele>63.160224</ele>
        <time>2022-12-23T15:22:18.724Z</time>
      </trkpt>
      <trkpt lat="44.89283" lon="-1.08884">
        <ele>63.1469</ele>
        <time>2022-12-23T15:22:21.730Z</time>
      </trkpt>
      <trkpt lat="44.89273" lon="-1.08889">
        <ele>63.133579</ele>
        <time>2022-12-23T15:22:24.745Z</time>
      </trkpt>
      <trkpt lat="44.89261" lon="-1.08895">
        <ele>63.119463</ele>
        <time>2022-12-23T15:22:27.722Z</time>
      </trkpt>
      <trkpt lat="44.89249" lon="-1.08901">
        <ele>63.104573</ele>
        <time>2022-12-23T15:22:30.733Z</time>
      </trkpt>
      <trkpt lat="44.89238" lon="-1.08906">
        <ele>63.09158</ele>
        <time>2022-12-23T15:22:33.729Z</time>
      </trkpt>
      <trkpt lat="44.89229" lon="-1.0891">
        <ele>63.07987</ele>
        <time>2022-12-23T15:22:36.723Z</time>
      </trkpt>
      <trkpt lat="44.89218" lon="-1.08915">
        <ele>63.067043</ele>
        <time>2022-12-23T15:22:39.748Z</time>
      </trkpt>
      <trkpt lat="44.89208" lon="-1.08921">
        <ele>63.054211</ele>
        <time>2022-12-23T15:22:42.743Z</time>
      </trkpt>
      <trkpt lat="44.89199" lon="-1.08924">
        <ele>63.043313</ele>
        <time>2022-12-23T15:22:45.734Z</time>
      </trkpt>
      <trkpt lat="44.89189" lon="-1.08927">
        <ele>63.031704</ele>
        <time>2022-12-23T15:22:48.743Z</time>
      </trkpt>
      <trkpt lat="44.8918" lon="-1.08931">
        <ele>63.019909</ele>
        <time>2022-12-23T15:22:51.736Z</time>
      </trkpt>
      <trkpt lat="44.89169" lon="-1.08937">
        <ele>63.007081</ele>
        <time>2022-12-23T15:22:54.722Z</time>
      </trkpt>
      <trkpt lat="44.89159" lon="-1.08943">
        <ele>62.993862</ele>
        <time>2022-12-23T15:22:57.749Z</time>
      </trkpt>
      <trkpt lat="44.89149" lon="-1.08949">
        <ele>62.981769</ele>
        <time>2022-12-23T15:23:00.744Z</time>
      </trkpt>
      <trkpt lat="44.89139" lon="-1.08954">
        <ele>62.968473</ele>
        <time>2022-12-23T15:23:03.750Z</time>
      </trkpt>
      <trkpt lat="44.89127" lon="-1.08959">
        <ele>62.954594</ele>
        <time>2022-12-23T15:23:06.737Z</time>
      </trkpt>
      <trkpt lat="44.89116" lon="-1.08965">
        <ele>62.91124</ele>
        <time>2022-12-23T15:23:09.741Z</time>
      </trkpt>
      <trkpt lat="44.89105" lon="-1.08969">
        <ele>62.863623</ele>
        <time>2022-12-23T15:23:12.752Z</time>
      </trkpt>
      <trkpt lat="44.89096" lon="-1.08972">
        <ele>62.821988</ele>
        <time>2022-12-23T15:23:15.746Z</time>
      </trkpt>
      <trkpt lat="44.89086" lon="-1.08976">
        <ele>62.779937</ele>
        <time>2022-12-23T15:23:18.734Z</time>
      </trkpt>
      <trkpt lat="44.89077" lon="-1.08978">
        <ele>62.739916</ele>
        <time>2022-12-23T15:23:21.751Z</time>
      </trkpt>
      <trkpt lat="44.89066" lon="-1.0898">
        <ele>62.692927</ele>
        <time>2022-12-23T15:23:25.780Z</time>
      </trkpt>
      <trkpt lat="44.89055" lon="-1.08982">
        <ele>62.641882</ele>
        <time>2022-12-23T15:23:29.750Z</time>
      </trkpt>
      <trkpt lat="44.89044" lon="-1.08982">
        <ele>62.59654</ele>
        <time>2022-12-23T15:23:32.750Z</time>
      </trkpt>
      <trkpt lat="44.89033" lon="-1.08982">
        <ele>62.549047</ele>
        <time>2022-12-23T15:23:35.749Z</time>
      </trkpt>
      <trkpt lat="44.89022" lon="-1.08982">
        <ele>62.502415</ele>
        <time>2022-12-23T15:23:38.730Z</time>
      </trkpt>
      <trkpt lat="44.89011" lon="-1.0898">
        <ele>62.452696</ele>
        <time>2022-12-23T15:23:41.750Z</time>
      </trkpt>
      <trkpt lat="44.89" lon="-1.08977">
        <ele>62.403958</ele>
        <time>2022-12-23T15:23:44.727Z</time>
      </trkpt>
      <trkpt lat="44.88989" lon="-1.08973">
        <ele>62.354079</ele>
        <time>2022-12-23T15:23:47.740Z</time>
      </trkpt>
      <trkpt lat="44.88979" lon="-1.08968">
        <ele>62.30908</ele>
        <time>2022-12-23T15:23:50.749Z</time>
      </trkpt>
      <trkpt lat="44.88968" lon="-1.08963">
        <ele>62.261138</ele>
        <time>2022-12-23T15:23:53.749Z</time>
      </trkpt>
      <trkpt lat="44.88958" lon="-1.08958">
        <ele>62.213886</ele>
        <time>2022-12-23T15:23:56.734Z</time>
      </trkpt>
      <trkpt lat="44.88948" lon="-1.0895">
        <ele>62.176069</ele>
        <time>2022-12-23T15:23:59.756Z</time>
      </trkpt>
      <trkpt lat="44.88939" lon="-1.08944">
        <ele>62.182252</ele>
        <time>2022-12-23T15:24:02.753Z</time>
      </trkpt>
      <trkpt lat="44.8893" lon="-1.08937">
        <ele>62.189087</ele>
        <time>2022-12-23T15:24:06.751Z</time>
      </trkpt>
      <trkpt lat="44.88921" lon="-1.0893">
        <ele>62.195577</ele>
        <time>2022-12-23T15:24:10.746Z</time>
      </trkpt>
      <trkpt lat="44.88913" lon="-1.08923">
        <ele>62.201188</ele>
        <time>2022-12-23T15:24:13.747Z</time>
      </trkpt>
      <trkpt lat="44.88904" lon="-1.08916">
        <ele>62.207373</ele>
        <time>2022-12-23T15:24:16.743Z</time>
      </trkpt>
      <trkpt lat="44.88895" lon="-1.08909">
        <ele>62.213709</ele>
        <time>2022-12-23T15:24:19.750Z</time>
      </trkpt>
      <trkpt lat="44.88886" lon="-1.08902">
        <ele>62.22046</ele>
        <time>2022-12-23T15:24:22.750Z</time>
      </trkpt>
      <trkpt lat="44.88875" lon="-1.08895">
        <ele>62.227864</ele>
        <time>2022-12-23T15:24:25.749Z</time>
      </trkpt>
      <trkpt lat="44.88865" lon="-1.08886">
        <ele>62.235284</ele>
        <time>2022-12-23T15:24:28.741Z</time>
      </trkpt>
      <trkpt lat="44.88854" lon="-1.08878">
        <ele>62.242903</ele>
        <time>2022-12-23T15:24:31.747Z</time>
      </trkpt>
      <trkpt lat="44.88843" lon="-1.0887">
        <ele>62.250521</ele>
        <time>2022-12-23T15:24:34.747Z</time>
      </trkpt>
      <trkpt lat="44.88834" lon="-1.08863">
        <ele>62.257142</ele>
        <time>2022-12-23T15:24:37.749Z</time>
      </trkpt>
      <trkpt lat="44.88826" lon="-1.08857">
        <ele>62.262968</ele>
        <time>2022-12-23T15:24:40.737Z</time>
      </trkpt>
      <trkpt lat="44.88816" lon="-1.08849">
        <ele>62.269775</ele>
        <time>2022-12-23T15:24:43.732Z</time>
      </trkpt>
      <trkpt lat="44.88806" lon="-1.08842">
        <ele>62.27686</ele>
        <time>2022-12-23T15:24:46.748Z</time>
      </trkpt>
      <trkpt lat="44.88795" lon="-1.08835">
        <ele>62.284246</ele>
        <time>2022-12-23T15:24:49.724Z</time>
      </trkpt>
      <trkpt lat="44.88785" lon="-1.08827">
        <ele>62.277338</ele>
        <time>2022-12-23T15:24:52.747Z</time>
      </trkpt>
      <trkpt lat="44.88774" lon="-1.08819">
        <ele>62.262424</ele>
        <time>2022-12-23T15:24:55.744Z</time>
      </trkpt>
      <trkpt lat="44.88763" lon="-1.0881">
        <ele>62.246837</ele>
        <time>2022-12-23T15:24:58.729Z</time>
      </trkpt>
      <trkpt lat="44.88752" lon="-1.08802">
        <ele>62.231126</ele>
        <time>2022-12-23T15:25:01.749Z</time>
      </trkpt>
      <trkpt lat="44.8874" lon="-1.08795">
        <ele>62.215417</ele>
        <time>2022-12-23T15:25:04.738Z</time>
      </trkpt>
      <trkpt lat="44.8873" lon="-1.08789">
        <ele>62.20158</ele>
        <time>2022-12-23T15:25:07.744Z</time>
      </trkpt>
      <trkpt lat="44.88721" lon="-1.08784">
        <ele>62.189263</ele>
        <time>2022-12-23T15:25:10.750Z</time>
      </trkpt>
      <trkpt lat="44.88711" lon="-1.08779">
        <ele>62.175989</ele>
        <time>2022-12-23T15:25:13.752Z</time>
      </trkpt>
      <trkpt lat="44.88701" lon="-1.08774">
        <ele>62.162569</ele>
        <time>2022-12-23T15:25:16.747Z</time>
      </trkpt>
      <trkpt lat="44.8869" lon="-1.08769">
        <ele>62.14897</ele>
        <time>2022-12-23T15:25:19.742Z</time>
      </trkpt>
      <trkpt lat="44.8868" lon="-1.08763">
        <ele>62.134903</ele>
        <time>2022-12-23T15:25:22.738Z</time>
      </trkpt>
      <trkpt lat="44.88669" lon="-1.08757">
        <ele>62.120561</ele>
        <time>2022-12-23T15:25:25.743Z</time>
      </trkpt>
      <trkpt lat="44.88658" lon="-1.08751">
        <ele>62.106463</ele>
        <time>2022-12-23T15:25:28.744Z</time>
      </trkpt>
      <trkpt lat="44.88649" lon="-1.08747">
        <ele>62.093599</ele>
        <time>2022-12-23T15:25:31.748Z</time>
      </trkpt>
      <trkpt lat="44.88638" lon="-1.08741">
        <ele>62.079182</ele>
        <time>2022-12-23T15:25:35.750Z</time>
      </trkpt>
      <trkpt lat="44.88628" lon="-1.08737">
        <ele>62.067137</ele>
        <time>2022-12-23T15:25:38.748Z</time>
      </trkpt>
      <trkpt lat="44.88619" lon="-1.08732">
        <ele>62.094389</ele>
        <time>2022-12-23T15:25:41.741Z</time>
      </trkpt>
      <trkpt lat="44.88609" lon="-1.08726">
        <ele>62.139036</ele>
        <time>2022-12-23T15:25:44.747Z</time>
      </trkpt>
      <trkpt lat="44.88599" lon="-1.08721">
        <ele>62.184573</ele>
        <time>2022-12-23T15:25:47.729Z</time>
      </trkpt>
      <trkpt lat="44.88589" lon="-1.08716">
        <ele>62.229005</ele>
        <time>2022-12-23T15:25:50.745Z</time>
      </trkpt>
      <trkpt lat="44.88579" lon="-1.08711">
        <ele>62.273142</ele>
        <time>2022-12-23T15:25:53.749Z</time>
      </trkpt>
      <trkpt lat="44.88568" lon="-1.08706">
        <ele>62.321238</ele>
        <time>2022-12-23T15:25:56.751Z</time>
      </trkpt>
      <trkpt lat="44.88557" lon="-1.08701">
        <ele>62.370014</ele>
        <time>2022-12-23T15:25:59.749Z</time>
      </trkpt>
      <trkpt lat="44.88545" lon="-1.08695">
        <ele>62.423043</ele>
        <time>2022-12-23T15:26:02.743Z</time>
      </trkpt>
      <trkpt lat="44.88533" lon="-1.08689">
        <ele>62.476862</ele>
        <time>2022-12-23T15:26:05.745Z</time>
      </trkpt>
      <trkpt lat="44.88522" lon="-1.08683">
        <ele>62.522767</ele>
        <time>2022-12-23T15:26:08.742Z</time>
      </trkpt>
      <trkpt lat="44.88514" lon="-1.08679">
        <ele>62.561575</ele>
        <time>2022-12-23T15:26:11.749Z</time>
      </trkpt>
      <trkpt lat="44.88505" lon="-1.08675">
        <ele>62.599972</ele>
        <time>2022-12-23T15:26:14.746Z</time>
      </trkpt>
      <trkpt lat="44.88495" lon="-1.0867">
        <ele>62.644097</ele>
        <time>2022-12-23T15:26:17.749Z</time>
      </trkpt>
      <trkpt lat="44.88485" lon="-1.08664">
        <ele>62.68942</ele>
        <time>2022-12-23T15:26:20.749Z</time>
      </trkpt>
      <trkpt lat="44.88475" lon="-1.08658">
        <ele>62.736024</ele>
        <time>2022-12-23T15:26:23.748Z</time>
      </trkpt>
      <trkpt lat="44.88464" lon="-1.08653">
        <ele>62.785691</ele>
        <time>2022-12-23T15:26:26.749Z</time>
      </trkpt>
      <trkpt lat="44.88452" lon="-1.08646">
        <ele>62.81809</ele>
        <time>2022-12-23T15:26:29.740Z</time>
      </trkpt>
      <trkpt lat="44.88441" lon="-1.08641">
        <ele>62.81809</ele>
        <time>2022-12-23T15:26:32.747Z</time>
      </trkpt>
      <trkpt lat="44.88431" lon="-1.08635">
        <ele>62.81809</ele>
        <time>2022-12-23T15:26:35.751Z</time>
      </trkpt>
      <trkpt lat="44.88422" lon="-1.0863">
        <ele>62.81809</ele>
        <time>2022-12-23T15:26:38.735Z</time>
      </trkpt>
      <trkpt lat="44.88412" lon="-1.08626">
        <ele>62.81809</ele>
        <time>2022-12-23T15:26:42.748Z</time>
      </trkpt>
      <trkpt lat="44.88403" lon="-1.08621">
        <ele>62.81809</ele>
        <time>2022-12-23T15:26:45.743Z</time>
      </trkpt>
      <trkpt lat="44.88394" lon="-1.08616">
        <ele>62.81809</ele>
        <time>2022-12-23T15:26:48.748Z</time>
      </trkpt>
      <trkpt lat="44.88384" lon="-1.08613">
        <ele>62.81809</ele>
        <time>2022-12-23T15:26:51.750Z</time>
      </trkpt>
      <trkpt lat="44.88374" lon="-1.08607">
        <ele>62.81809</ele>
        <time>2022-12-23T15:26:55.734Z</time>
      </trkpt>
      <trkpt lat="44.88364" lon="-1.08603">
        <ele>62.81809</ele>
        <time>2022-12-23T15:26:59.722Z</time>
      </trkpt>
      <trkpt lat="44.88354" lon="-1.08599">
        <ele>62.81809</ele>
        <time>2022-12-23T15:27:03.750Z</time>
      </trkpt>
      <trkpt lat="44.88345" lon="-1.08597">
        <ele>62.81809</ele>
        <time>2022-12-23T15:27:07.746Z</time>
      </trkpt>
      <trkpt lat="44.88339" lon="-1.086">
        <ele>62.81809</ele>
        <time>2022-12-23T15:27:21.425Z</time>
        <extensions>
          <visugpx:TrkExtension xmlns:visugpx="https://www.visugpx.com/editgpx/">
            <visugpx:node>1</visugpx:node>
            </visugpx:TrkExtension>
        </extensions>
      </trkpt>
    </trkseg>
  </trk>
  <trk>
    <name><![CDATA[Le Porge - Arcachon]]></name>
    <extensions>
      <line xmlns="http://www.topografix.com/GPX/gpx_style/0/2">
        <color>0000ff</color>
        <width>4</width>
      </line>
    </extensions>
    <trkseg>
      <trkpt lat="44.87535" lon="-1.08278">
        <ele>72.162353</ele>
        <time>2022-12-25T09:13:42.965Z</time>
      </trkpt>
      <trkpt lat="44.8753" lon="-1.08289">
        <ele>72.162353</ele>
        <time>2022-12-25T09:13:55.342Z</time>
      </trkpt>
      <trkpt lat="44.8753" lon="-1.08304">
        <ele>72.162353</ele>
        <time>2022-12-25T09:14:00.345Z</time>
      </trkpt>
      <trkpt lat="44.87531" lon="-1.0832">
        <ele>72.162353</ele>
        <time>2022-12-25T09:14:04.345Z</time>
      </trkpt>
      <trkpt lat="44.87533" lon="-1.08334">
        <ele>72.162353</ele>
        <time>2022-12-25T09:14:09.346Z</time>
      </trkpt>
      <trkpt lat="44.8754" lon="-1.08344">
        <ele>72.162353</ele>
        <time>2022-12-25T09:14:13.351Z</time>
      </trkpt>
      <trkpt lat="44.87543" lon="-1.08358">
        <ele>72.162353</ele>
        <time>2022-12-25T09:14:17.341Z</time>
      </trkpt>
      <trkpt lat="44.87544" lon="-1.08371">
        <ele>72.162353</ele>
        <time>2022-12-25T09:14:20.342Z</time>
      </trkpt>
      <trkpt lat="44.87545" lon="-1.08385">
        <ele>72.162353</ele>
        <time>2022-12-25T09:14:23.364Z</time>
      </trkpt>
      <trkpt lat="44.87546" lon="-1.08399">
        <ele>72.163645</ele>
        <time>2022-12-25T09:14:26.355Z</time>
      </trkpt>
      <trkpt lat="44.87549" lon="-1.08413">
        <ele>72.173862</ele>
        <time>2022-12-25T09:14:29.358Z</time>
      </trkpt>
      <trkpt lat="44.87553" lon="-1.08426">
        <ele>72.184524</ele>
        <time>2022-12-25T09:14:32.362Z</time>
      </trkpt>
      <trkpt lat="44.87557" lon="-1.08441">
        <ele>72.195851</ele>
        <time>2022-12-25T09:14:35.365Z</time>
      </trkpt>
      <trkpt lat="44.87562" lon="-1.08455">
        <ele>72.207783</ele>
        <time>2022-12-25T09:14:38.343Z</time>
      </trkpt>
      <trkpt lat="44.87568" lon="-1.08467">
        <ele>72.218687</ele>
        <time>2022-12-25T09:14:41.343Z</time>
      </trkpt>
      <trkpt lat="44.8757" lon="-1.0848">
        <ele>72.228197</ele>
        <time>2022-12-25T09:14:44.346Z</time>
      </trkpt>
      <trkpt lat="44.87565" lon="-1.08493">
        <ele>72.239631</ele>
        <time>2022-12-25T09:14:48.340Z</time>
      </trkpt>
      <trkpt lat="44.87554" lon="-1.08502">
        <ele>72.252069</ele>
        <time>2022-12-25T09:14:52.360Z</time>
      </trkpt>
      <trkpt lat="44.87548" lon="-1.08514">
        <ele>72.263218</ele>
        <time>2022-12-25T09:14:55.346Z</time>
      </trkpt>
      <trkpt lat="44.87543" lon="-1.08528">
        <ele>72.274683</ele>
        <time>2022-12-25T09:14:58.345Z</time>
      </trkpt>
      <trkpt lat="44.87539" lon="-1.08543">
        <ele>72.286449</ele>
        <time>2022-12-25T09:15:01.341Z</time>
      </trkpt>
      <trkpt lat="44.87537" lon="-1.08559">
        <ele>72.298264</ele>
        <time>2022-12-25T09:15:04.360Z</time>
      </trkpt>
      <trkpt lat="44.87535" lon="-1.08576">
        <ele>72.31083</ele>
        <time>2022-12-25T09:15:07.351Z</time>
      </trkpt>
      <trkpt lat="44.87535" lon="-1.08593">
        <ele>72.323414</ele>
        <time>2022-12-25T09:15:10.357Z</time>
      </trkpt>
      <trkpt lat="44.87535" lon="-1.0861">
        <ele>72.336045</ele>
        <time>2022-12-25T09:15:13.357Z</time>
      </trkpt>
      <trkpt lat="44.87535" lon="-1.08627">
        <ele>72.348674</ele>
        <time>2022-12-25T09:15:16.339Z</time>
      </trkpt>
      <trkpt lat="44.87533" lon="-1.08643">
        <ele>72.290569</ele>
        <time>2022-12-25T09:15:19.348Z</time>
      </trkpt>
      <trkpt lat="44.87533" lon="-1.08659">
        <ele>72.23212</ele>
        <time>2022-12-25T09:15:22.339Z</time>
      </trkpt>
      <trkpt lat="44.87532" lon="-1.08675">
        <ele>72.171362</ele>
        <time>2022-12-25T09:15:25.363Z</time>
      </trkpt>
      <trkpt lat="44.87531" lon="-1.08693">
        <ele>72.108284</ele>
        <time>2022-12-25T09:15:28.360Z</time>
      </trkpt>
      <trkpt lat="44.8753" lon="-1.0871">
        <ele>72.044255</ele>
        <time>2022-12-25T09:15:31.359Z</time>
      </trkpt>
      <trkpt lat="44.87529" lon="-1.08727">
        <ele>71.979756</ele>
        <time>2022-12-25T09:15:34.359Z</time>
      </trkpt>
      <trkpt lat="44.87527" lon="-1.08744">
        <ele>71.916755</ele>
        <time>2022-12-25T09:15:37.366Z</time>
      </trkpt>
      <trkpt lat="44.87526" lon="-1.0876">
        <ele>71.858685</ele>
        <time>2022-12-25T09:15:40.359Z</time>
      </trkpt>
      <trkpt lat="44.87524" lon="-1.08774">
        <ele>71.806085</ele>
        <time>2022-12-25T09:15:43.355Z</time>
      </trkpt>
      <trkpt lat="44.87523" lon="-1.08789">
        <ele>71.750933</ele>
        <time>2022-12-25T09:15:46.355Z</time>
      </trkpt>
      <trkpt lat="44.87522" lon="-1.08805">
        <ele>71.692072</ele>
        <time>2022-12-25T09:15:49.342Z</time>
      </trkpt>
      <trkpt lat="44.87521" lon="-1.08821">
        <ele>71.632414</ele>
        <time>2022-12-25T09:15:52.351Z</time>
      </trkpt>
      <trkpt lat="44.87519" lon="-1.08837">
        <ele>71.573416</ele>
        <time>2022-12-25T09:15:55.384Z</time>
      </trkpt>
      <trkpt lat="44.87518" lon="-1.08853">
        <ele>71.514489</ele>
        <time>2022-12-25T09:15:58.343Z</time>
      </trkpt>
      <trkpt lat="44.87516" lon="-1.08868">
        <ele>71.458109</ele>
        <time>2022-12-25T09:16:01.359Z</time>
      </trkpt>
      <trkpt lat="44.87514" lon="-1.08883">
        <ele>71.413686</ele>
        <time>2022-12-25T09:16:04.356Z</time>
      </trkpt>
      <trkpt lat="44.87512" lon="-1.08899">
        <ele>71.402876</ele>
        <time>2022-12-25T09:16:07.349Z</time>
      </trkpt>
      <trkpt lat="44.87509" lon="-1.08915">
        <ele>71.391874</ele>
        <time>2022-12-25T09:16:10.350Z</time>
      </trkpt>
      <trkpt lat="44.87507" lon="-1.08931">
        <ele>71.380827</ele>
        <time>2022-12-25T09:16:13.361Z</time>
      </trkpt>
      <trkpt lat="44.87504" lon="-1.08948">
        <ele>71.369325</ele>
        <time>2022-12-25T09:16:16.359Z</time>
      </trkpt>
      <trkpt lat="44.87501" lon="-1.08964">
        <ele>71.358254</ele>
        <time>2022-12-25T09:16:19.355Z</time>
      </trkpt>
      <trkpt lat="44.87497" lon="-1.08978">
        <ele>71.348386</ele>
        <time>2022-12-25T09:16:22.359Z</time>
      </trkpt>
      <trkpt lat="44.87492" lon="-1.08991">
        <ele>71.338255</ele>
        <time>2022-12-25T09:16:25.340Z</time>
      </trkpt>
      <trkpt lat="44.87486" lon="-1.09004">
        <ele>71.327502</ele>
        <time>2022-12-25T09:16:28.343Z</time>
      </trkpt>
      <trkpt lat="44.87479" lon="-1.09017">
        <ele>71.316838</ele>
        <time>2022-12-25T09:16:31.360Z</time>
      </trkpt>
      <trkpt lat="44.87471" lon="-1.09028">
        <ele>71.306247</ele>
        <time>2022-12-25T09:16:34.357Z</time>
      </trkpt>
      <trkpt lat="44.87463" lon="-1.09039">
        <ele>71.295675</ele>
        <time>2022-12-25T09:16:37.362Z</time>
      </trkpt>
      <trkpt lat="44.87456" lon="-1.0905">
        <ele>71.285585</ele>
        <time>2022-12-25T09:16:40.357Z</time>
      </trkpt>
      <trkpt lat="44.87449" lon="-1.09063">
        <ele>71.275103</ele>
        <time>2022-12-25T09:16:43.358Z</time>
      </trkpt>
      <trkpt lat="44.87444" lon="-1.09077">
        <ele>71.26429</ele>
        <time>2022-12-25T09:16:46.340Z</time>
      </trkpt>
      <trkpt lat="44.87439" lon="-1.09093">
        <ele>71.253058</ele>
        <time>2022-12-25T09:16:49.349Z</time>
      </trkpt>
      <trkpt lat="44.87435" lon="-1.09109">
        <ele>71.262412</ele>
        <time>2022-12-25T09:16:52.356Z</time>
      </trkpt>
      <trkpt lat="44.8743" lon="-1.09124">
        <ele>71.299568</ele>
        <time>2022-12-25T09:16:55.359Z</time>
      </trkpt>
      <trkpt lat="44.87425" lon="-1.09139">
        <ele>71.334921</ele>
        <time>2022-12-25T09:16:58.354Z</time>
      </trkpt>
      <trkpt lat="44.87421" lon="-1.09152">
        <ele>71.368022</ele>
        <time>2022-12-25T09:17:01.345Z</time>
      </trkpt>
      <trkpt lat="44.87416" lon="-1.09165">
        <ele>71.399015</ele>
        <time>2022-12-25T09:17:04.361Z</time>
      </trkpt>
      <trkpt lat="44.87409" lon="-1.09175">
        <ele>71.430397</ele>
        <time>2022-12-25T09:17:07.347Z</time>
      </trkpt>
      <trkpt lat="44.874" lon="-1.09182">
        <ele>71.460748</ele>
        <time>2022-12-25T09:17:10.346Z</time>
      </trkpt>
      <trkpt lat="44.87392" lon="-1.09189">
        <ele>71.490656</ele>
        <time>2022-12-25T09:17:13.360Z</time>
      </trkpt>
      <trkpt lat="44.87383" lon="-1.09196">
        <ele>71.522723</ele>
        <time>2022-12-25T09:17:16.357Z</time>
      </trkpt>
      <trkpt lat="44.87373" lon="-1.09204">
        <ele>71.55722</ele>
        <time>2022-12-25T09:17:19.361Z</time>
      </trkpt>
      <trkpt lat="44.87363" lon="-1.09211">
        <ele>71.592259</ele>
        <time>2022-12-25T09:17:22.364Z</time>
      </trkpt>
      <trkpt lat="44.87354" lon="-1.09219">
        <ele>71.62564</ele>
        <time>2022-12-25T09:17:25.357Z</time>
      </trkpt>
      <trkpt lat="44.87344" lon="-1.09227">
        <ele>71.660624</ele>
        <time>2022-12-25T09:17:28.346Z</time>
      </trkpt>
      <trkpt lat="44.87335" lon="-1.09235">
        <ele>71.695716</ele>
        <time>2022-12-25T09:17:31.368Z</time>
      </trkpt>
      <trkpt lat="44.87325" lon="-1.09243">
        <ele>71.73</ele>
        <time>2022-12-25T09:17:34.364Z</time>
      </trkpt>
      <trkpt lat="44.87316" lon="-1.0925">
        <ele>71.762398</ele>
        <time>2022-12-25T09:17:37.359Z</time>
      </trkpt>
      <trkpt lat="44.87309" lon="-1.09261">
        <ele>71.794058</ele>
        <time>2022-12-25T09:17:40.346Z</time>
      </trkpt>
      <trkpt lat="44.87302" lon="-1.09271">
        <ele>71.775005</ele>
        <time>2022-12-25T09:17:43.360Z</time>
      </trkpt>
      <trkpt lat="44.87293" lon="-1.09268">
        <ele>71.73039</ele>
        <time>2022-12-25T09:17:47.354Z</time>
      </trkpt>
      <trkpt lat="44.87288" lon="-1.09256">
        <ele>71.687305</ele>
        <time>2022-12-25T09:17:50.349Z</time>
      </trkpt>
      <trkpt lat="44.8728" lon="-1.09244">
        <ele>71.635368</ele>
        <time>2022-12-25T09:17:53.341Z</time>
      </trkpt>
      <trkpt lat="44.87273" lon="-1.09231">
        <ele>71.582593</ele>
        <time>2022-12-25T09:17:56.355Z</time>
      </trkpt>
      <trkpt lat="44.87264" lon="-1.09219">
        <ele>71.52873</ele>
        <time>2022-12-25T09:17:59.352Z</time>
      </trkpt>
      <trkpt lat="44.87256" lon="-1.09209">
        <ele>71.478284</ele>
        <time>2022-12-25T09:18:02.357Z</time>
      </trkpt>
      <trkpt lat="44.87247" lon="-1.092">
        <ele>71.430226</ele>
        <time>2022-12-25T09:18:05.347Z</time>
      </trkpt>
      <trkpt lat="44.87237" lon="-1.09193">
        <ele>71.38029</ele>
        <time>2022-12-25T09:18:08.354Z</time>
      </trkpt>
      <trkpt lat="44.87227" lon="-1.09186">
        <ele>71.329047</ele>
        <time>2022-12-25T09:18:11.362Z</time>
      </trkpt>
      <trkpt lat="44.87218" lon="-1.09178">
        <ele>71.281485</ele>
        <time>2022-12-25T09:18:14.358Z</time>
      </trkpt>
      <trkpt lat="44.87209" lon="-1.09172">
        <ele>71.235926</ele>
        <time>2022-12-25T09:18:17.340Z</time>
      </trkpt>
      <trkpt lat="44.87199" lon="-1.09165">
        <ele>71.187333</ele>
        <time>2022-12-25T09:18:20.347Z</time>
      </trkpt>
      <trkpt lat="44.87189" lon="-1.09158">
        <ele>71.136485</ele>
        <time>2022-12-25T09:18:23.364Z</time>
      </trkpt>
      <trkpt lat="44.87179" lon="-1.09151">
        <ele>71.085106</ele>
        <time>2022-12-25T09:18:26.357Z</time>
      </trkpt>
      <trkpt lat="44.87169" lon="-1.09144">
        <ele>71.032905</ele>
        <time>2022-12-25T09:18:29.345Z</time>
      </trkpt>
      <trkpt lat="44.87158" lon="-1.09136">
        <ele>70.98865</ele>
        <time>2022-12-25T09:18:32.362Z</time>
      </trkpt>
      <trkpt lat="44.87148" lon="-1.09129">
        <ele>70.968473</ele>
        <time>2022-12-25T09:18:35.359Z</time>
      </trkpt>
      <trkpt lat="44.87137" lon="-1.09122">
        <ele>70.948445</ele>
        <time>2022-12-25T09:18:38.357Z</time>
      </trkpt>
      <trkpt lat="44.87126" lon="-1.09115">
        <ele>70.928011</ele>
        <time>2022-12-25T09:18:41.359Z</time>
      </trkpt>
      <trkpt lat="44.87115" lon="-1.09107">
        <ele>70.90737</ele>
        <time>2022-12-25T09:18:44.343Z</time>
      </trkpt>
      <trkpt lat="44.87105" lon="-1.091">
        <ele>70.887708</ele>
        <time>2022-12-25T09:18:47.346Z</time>
      </trkpt>
      <trkpt lat="44.87094" lon="-1.09093">
        <ele>70.868043</ele>
        <time>2022-12-25T09:18:50.344Z</time>
      </trkpt>
      <trkpt lat="44.87084" lon="-1.09086">
        <ele>70.848227</ele>
        <time>2022-12-25T09:18:53.342Z</time>
      </trkpt>
      <trkpt lat="44.87074" lon="-1.0908">
        <ele>70.829337</ele>
        <time>2022-12-25T09:18:56.368Z</time>
      </trkpt>
      <trkpt lat="44.87064" lon="-1.09073">
        <ele>70.809722</ele>
        <time>2022-12-25T09:18:59.360Z</time>
      </trkpt>
      <trkpt lat="44.87053" lon="-1.09065">
        <ele>70.788822</ele>
        <time>2022-12-25T09:19:02.357Z</time>
      </trkpt>
      <trkpt lat="44.87041" lon="-1.09058">
        <ele>70.76787</ele>
        <time>2022-12-25T09:19:05.347Z</time>
      </trkpt>
      <trkpt lat="44.87031" lon="-1.0905">
        <ele>70.747112</ele>
        <time>2022-12-25T09:19:08.350Z</time>
      </trkpt>
      <trkpt lat="44.8702" lon="-1.09043">
        <ele>70.72647</ele>
        <time>2022-12-25T09:19:11.350Z</time>
      </trkpt>
      <trkpt lat="44.87009" lon="-1.09036">
        <ele>70.706802</ele>
        <time>2022-12-25T09:19:14.349Z</time>
      </trkpt>
      <trkpt lat="44.86998" lon="-1.09028">
        <ele>70.687419</ele>
        <time>2022-12-25T09:19:17.356Z</time>
      </trkpt>
      <trkpt lat="44.86986" lon="-1.0902">
        <ele>70.715993</ele>
        <time>2022-12-25T09:19:20.341Z</time>
      </trkpt>
      <trkpt lat="44.86974" lon="-1.09013">
        <ele>70.74445</ele>
        <time>2022-12-25T09:19:23.353Z</time>
      </trkpt>
      <trkpt lat="44.86962" lon="-1.09007">
        <ele>70.772128</ele>
        <time>2022-12-25T09:19:26.357Z</time>
      </trkpt>
      <trkpt lat="44.86951" lon="-1.09003">
        <ele>70.798344</ele>
        <time>2022-12-25T09:19:29.345Z</time>
      </trkpt>
      <trkpt lat="44.8694" lon="-1.09">
        <ele>70.822558</ele>
        <time>2022-12-25T09:19:32.353Z</time>
      </trkpt>
      <trkpt lat="44.86929" lon="-1.08998">
        <ele>70.846691</ele>
        <time>2022-12-25T09:19:35.358Z</time>
      </trkpt>
      <trkpt lat="44.86918" lon="-1.08997">
        <ele>70.87112</ele>
        <time>2022-12-25T09:19:38.356Z</time>
      </trkpt>
      <trkpt lat="44.86906" lon="-1.08996">
        <ele>70.896026</ele>
        <time>2022-12-25T09:19:41.358Z</time>
      </trkpt>
      <trkpt lat="44.86895" lon="-1.08995">
        <ele>70.921317</ele>
        <time>2022-12-25T09:19:44.354Z</time>
      </trkpt>
      <trkpt lat="44.86883" lon="-1.08994">
        <ele>70.945777</ele>
        <time>2022-12-25T09:19:47.355Z</time>
      </trkpt>
      <trkpt lat="44.86874" lon="-1.08992">
        <ele>70.965912</ele>
        <time>2022-12-25T09:19:50.361Z</time>
      </trkpt>
      <trkpt lat="44.86865" lon="-1.08992">
        <ele>70.98552</ele>
        <time>2022-12-25T09:19:53.367Z</time>
      </trkpt>
      <trkpt lat="44.86855" lon="-1.08991">
        <ele>71.006897</ele>
        <time>2022-12-25T09:19:56.338Z</time>
      </trkpt>
      <trkpt lat="44.86845" lon="-1.0899">
        <ele>71.028728</ele>
        <time>2022-12-25T09:19:59.343Z</time>
      </trkpt>
      <trkpt lat="44.86835" lon="-1.0899">
        <ele>71.05182</ele>
        <time>2022-12-25T09:20:02.361Z</time>
      </trkpt>
      <trkpt lat="44.86824" lon="-1.08988">
        <ele>71.076292</ele>
        <time>2022-12-25T09:20:05.365Z</time>
      </trkpt>
      <trkpt lat="44.86812" lon="-1.08987">
        <ele>71.02751</ele>
        <time>2022-12-25T09:20:08.362Z</time>
      </trkpt>
      <trkpt lat="44.86801" lon="-1.08986">
        <ele>70.970908</ele>
        <time>2022-12-25T09:20:11.366Z</time>
      </trkpt>
      <trkpt lat="44.86789" lon="-1.08985">
        <ele>70.912929</ele>
        <time>2022-12-25T09:20:14.356Z</time>
      </trkpt>
      <trkpt lat="44.86777" lon="-1.08984">
        <ele>70.855534</ele>
        <time>2022-12-25T09:20:17.361Z</time>
      </trkpt>
      <trkpt lat="44.86765" lon="-1.08983">
        <ele>70.799033</ele>
        <time>2022-12-25T09:20:20.355Z</time>
      </trkpt>
      <trkpt lat="44.86753" lon="-1.08982">
        <ele>70.740627</ele>
        <time>2022-12-25T09:20:23.358Z</time>
      </trkpt>
      <trkpt lat="44.86741" lon="-1.08982">
        <ele>70.682286</ele>
        <time>2022-12-25T09:20:26.369Z</time>
      </trkpt>
      <trkpt lat="44.86729" lon="-1.08984">
        <ele>70.623288</ele>
        <time>2022-12-25T09:20:29.368Z</time>
      </trkpt>
      <trkpt lat="44.86717" lon="-1.08987">
        <ele>70.564038</ele>
        <time>2022-12-25T09:20:32.353Z</time>
      </trkpt>
      <trkpt lat="44.86707" lon="-1.08992">
        <ele>70.50959</ele>
        <time>2022-12-25T09:20:35.362Z</time>
      </trkpt>
      <trkpt lat="44.86697" lon="-1.08999">
        <ele>70.455282</ele>
        <time>2022-12-25T09:20:38.349Z</time>
      </trkpt>
      <trkpt lat="44.86687" lon="-1.09007">
        <ele>70.399644</ele>
        <time>2022-12-25T09:20:41.355Z</time>
      </trkpt>
      <trkpt lat="44.86677" lon="-1.09017">
        <ele>70.341629</ele>
        <time>2022-12-25T09:20:44.357Z</time>
      </trkpt>
      <trkpt lat="44.86667" lon="-1.09026">
        <ele>70.281207</ele>
        <time>2022-12-25T09:20:47.353Z</time>
      </trkpt>
      <trkpt lat="44.86657" lon="-1.09036">
        <ele>70.223595</ele>
        <time>2022-12-25T09:20:50.355Z</time>
      </trkpt>
      <trkpt lat="44.86648" lon="-1.09044">
        <ele>70.181608</ele>
        <time>2022-12-25T09:20:53.361Z</time>
      </trkpt>
      <trkpt lat="44.8664" lon="-1.09051">
        <ele>70.14956</ele>
        <time>2022-12-25T09:20:56.337Z</time>
      </trkpt>
      <trkpt lat="44.86631" lon="-1.0906">
        <ele>70.11382</ele>
        <time>2022-12-25T09:20:59.352Z</time>
      </trkpt>
      <trkpt lat="44.86621" lon="-1.09069">
        <ele>70.074636</ele>
        <time>2022-12-25T09:21:02.353Z</time>
      </trkpt>
      <trkpt lat="44.86612" lon="-1.09078">
        <ele>70.035319</ele>
        <time>2022-12-25T09:21:05.361Z</time>
      </trkpt>
      <trkpt lat="44.86602" lon="-1.09086">
        <ele>69.997446</ele>
        <time>2022-12-25T09:21:08.361Z</time>
      </trkpt>
      <trkpt lat="44.86593" lon="-1.09095">
        <ele>69.960453</ele>
        <time>2022-12-25T09:21:11.372Z</time>
      </trkpt>
      <trkpt lat="44.86584" lon="-1.09103">
        <ele>69.923873</ele>
        <time>2022-12-25T09:21:14.358Z</time>
      </trkpt>
      <trkpt lat="44.86574" lon="-1.09113">
        <ele>69.88304</ele>
        <time>2022-12-25T09:21:17.360Z</time>
      </trkpt>
      <trkpt lat="44.86564" lon="-1.09121">
        <ele>69.842698</ele>
        <time>2022-12-25T09:21:20.343Z</time>
      </trkpt>
      <trkpt lat="44.86553" lon="-1.09131">
        <ele>69.802387</ele>
        <time>2022-12-25T09:21:23.367Z</time>
      </trkpt>
      <trkpt lat="44.86542" lon="-1.0914">
        <ele>69.758497</ele>
        <time>2022-12-25T09:21:26.355Z</time>
      </trkpt>
      <trkpt lat="44.86532" lon="-1.0915">
        <ele>69.717515</ele>
        <time>2022-12-25T09:21:29.347Z</time>
      </trkpt>
      <trkpt lat="44.86522" lon="-1.09159">
        <ele>69.677094</ele>
        <time>2022-12-25T09:21:32.359Z</time>
      </trkpt>
      <trkpt lat="44.86512" lon="-1.09168">
        <ele>69.637348</ele>
        <time>2022-12-25T09:21:35.359Z</time>
      </trkpt>
      <trkpt lat="44.86502" lon="-1.09178">
        <ele>69.601354</ele>
        <time>2022-12-25T09:21:38.369Z</time>
      </trkpt>
      <trkpt lat="44.86491" lon="-1.09188">
        <ele>69.623915</ele>
        <time>2022-12-25T09:21:41.360Z</time>
      </trkpt>
      <trkpt lat="44.86481" lon="-1.09198">
        <ele>69.646275</ele>
        <time>2022-12-25T09:21:44.357Z</time>
      </trkpt>
      <trkpt lat="44.8647" lon="-1.09207">
        <ele>69.668855</ele>
        <time>2022-12-25T09:21:47.348Z</time>
      </trkpt>
      <trkpt lat="44.8646" lon="-1.09217">
        <ele>69.691147</ele>
        <time>2022-12-25T09:21:50.354Z</time>
      </trkpt>
      <trkpt lat="44.86449" lon="-1.09226">
        <ele>69.713457</ele>
        <time>2022-12-25T09:21:53.364Z</time>
      </trkpt>
      <trkpt lat="44.86439" lon="-1.09235">
        <ele>69.73435</ele>
        <time>2022-12-25T09:21:56.356Z</time>
      </trkpt>
      <trkpt lat="44.86429" lon="-1.09245">
        <ele>69.757208</ele>
        <time>2022-12-25T09:21:59.358Z</time>
      </trkpt>
      <trkpt lat="44.86418" lon="-1.09255">
        <ele>69.780666</ele>
        <time>2022-12-25T09:22:02.351Z</time>
      </trkpt>
      <trkpt lat="44.86407" lon="-1.09265">
        <ele>69.804106</ele>
        <time>2022-12-25T09:22:05.354Z</time>
      </trkpt>
      <trkpt lat="44.86396" lon="-1.09274">
        <ele>69.826044</ele>
        <time>2022-12-25T09:22:08.358Z</time>
      </trkpt>
      <trkpt lat="44.86387" lon="-1.09282">
        <ele>69.846186</ele>
        <time>2022-12-25T09:22:11.366Z</time>
      </trkpt>
      <trkpt lat="44.86377" lon="-1.09292">
        <ele>69.867287</ele>
        <time>2022-12-25T09:22:14.367Z</time>
      </trkpt>
      <trkpt lat="44.86366" lon="-1.09302">
        <ele>69.890212</ele>
        <time>2022-12-25T09:22:17.338Z</time>
      </trkpt>
      <trkpt lat="44.86356" lon="-1.09313">
        <ele>69.913503</ele>
        <time>2022-12-25T09:22:20.357Z</time>
      </trkpt>
      <trkpt lat="44.86345" lon="-1.09323">
        <ele>69.871774</ele>
        <time>2022-12-25T09:22:23.370Z</time>
      </trkpt>
      <trkpt lat="44.86334" lon="-1.09333">
        <ele>69.794241</ele>
        <time>2022-12-25T09:22:26.359Z</time>
      </trkpt>
      <trkpt lat="44.86326" lon="-1.0934">
        <ele>69.736041</ele>
        <time>2022-12-25T09:22:28.359Z</time>
      </trkpt>
      <trkpt lat="44.86315" lon="-1.0935">
        <ele>69.658244</ele>
        <time>2022-12-25T09:22:31.354Z</time>
      </trkpt>
      <trkpt lat="44.86305" lon="-1.0936">
        <ele>69.585256</ele>
        <time>2022-12-25T09:22:34.361Z</time>
      </trkpt>
      <trkpt lat="44.86294" lon="-1.09369">
        <ele>69.509591</ele>
        <time>2022-12-25T09:22:37.371Z</time>
      </trkpt>
      <trkpt lat="44.86283" lon="-1.0938">
        <ele>69.431355</ele>
        <time>2022-12-25T09:22:40.367Z</time>
      </trkpt>
      <trkpt lat="44.86272" lon="-1.0939">
        <ele>69.354821</ele>
        <time>2022-12-25T09:22:43.362Z</time>
      </trkpt>
      <trkpt lat="44.86261" lon="-1.094">
        <ele>69.276979</ele>
        <time>2022-12-25T09:22:46.362Z</time>
      </trkpt>
      <trkpt lat="44.86251" lon="-1.0941">
        <ele>69.200633</ele>
        <time>2022-12-25T09:22:49.349Z</time>
      </trkpt>
      <trkpt lat="44.86239" lon="-1.0942">
        <ele>69.123237</ele>
        <time>2022-12-25T09:22:52.361Z</time>
      </trkpt>
      <trkpt lat="44.86229" lon="-1.0943">
        <ele>69.045727</ele>
        <time>2022-12-25T09:22:55.359Z</time>
      </trkpt>
      <trkpt lat="44.86218" lon="-1.0944">
        <ele>68.968943</ele>
        <time>2022-12-25T09:22:58.357Z</time>
      </trkpt>
      <trkpt lat="44.86207" lon="-1.09451">
        <ele>68.891669</ele>
        <time>2022-12-25T09:23:01.356Z</time>
      </trkpt>
      <trkpt lat="44.86197" lon="-1.09461">
        <ele>68.874869</ele>
        <time>2022-12-25T09:23:04.352Z</time>
      </trkpt>
      <trkpt lat="44.86186" lon="-1.0947">
        <ele>68.912788</ele>
        <time>2022-12-25T09:23:07.355Z</time>
      </trkpt>
      <trkpt lat="44.86176" lon="-1.0948">
        <ele>68.950322</ele>
        <time>2022-12-25T09:23:10.356Z</time>
      </trkpt>
      <trkpt lat="44.86166" lon="-1.0949">
        <ele>68.989609</ele>
        <time>2022-12-25T09:23:13.357Z</time>
      </trkpt>
      <trkpt lat="44.86155" lon="-1.09501">
        <ele>69.028266</ele>
        <time>2022-12-25T09:23:16.353Z</time>
      </trkpt>
      <trkpt lat="44.86144" lon="-1.09512">
        <ele>69.07018</ele>
        <time>2022-12-25T09:23:19.369Z</time>
      </trkpt>
      <trkpt lat="44.86134" lon="-1.09522">
        <ele>69.108962</ele>
        <time>2022-12-25T09:23:22.355Z</time>
      </trkpt>
      <trkpt lat="44.86126" lon="-1.09529">
        <ele>69.137114</ele>
        <time>2022-12-25T09:23:24.359Z</time>
      </trkpt>
      <trkpt lat="44.86119" lon="-1.09537">
        <ele>69.164894</ele>
        <time>2022-12-25T09:23:26.359Z</time>
      </trkpt>
      <trkpt lat="44.86108" lon="-1.09547">
        <ele>69.204587</ele>
        <time>2022-12-25T09:23:29.360Z</time>
      </trkpt>
      <trkpt lat="44.86097" lon="-1.09557">
        <ele>69.244892</ele>
        <time>2022-12-25T09:23:32.365Z</time>
      </trkpt>
      <trkpt lat="44.86086" lon="-1.09567">
        <ele>69.284191</ele>
        <time>2022-12-25T09:23:35.345Z</time>
      </trkpt>
      <trkpt lat="44.86076" lon="-1.09577">
        <ele>69.322853</ele>
        <time>2022-12-25T09:23:38.369Z</time>
      </trkpt>
      <trkpt lat="44.86066" lon="-1.09586">
        <ele>69.358896</ele>
        <time>2022-12-25T09:23:41.360Z</time>
      </trkpt>
      <trkpt lat="44.86057" lon="-1.09594">
        <ele>69.390459</ele>
        <time>2022-12-25T09:23:44.363Z</time>
      </trkpt>
      <trkpt lat="44.86049" lon="-1.09602">
        <ele>69.40715</ele>
        <time>2022-12-25T09:23:47.368Z</time>
      </trkpt>
      <trkpt lat="44.8604" lon="-1.09611">
        <ele>69.410312</ele>
        <time>2022-12-25T09:23:50.366Z</time>
      </trkpt>
      <trkpt lat="44.8603" lon="-1.0962">
        <ele>69.413815</ele>
        <time>2022-12-25T09:23:53.359Z</time>
      </trkpt>
      <trkpt lat="44.86019" lon="-1.0963">
        <ele>69.417435</ele>
        <time>2022-12-25T09:23:56.358Z</time>
      </trkpt>
      <trkpt lat="44.86009" lon="-1.0964">
        <ele>69.421044</ele>
        <time>2022-12-25T09:23:59.357Z</time>
      </trkpt>
      <trkpt lat="44.85998" lon="-1.09651">
        <ele>69.424791</ele>
        <time>2022-12-25T09:24:02.360Z</time>
      </trkpt>
      <trkpt lat="44.85987" lon="-1.09661">
        <ele>69.428574</ele>
        <time>2022-12-25T09:24:05.363Z</time>
      </trkpt>
      <trkpt lat="44.85977" lon="-1.09672">
        <ele>69.432299</ele>
        <time>2022-12-25T09:24:08.357Z</time>
      </trkpt>
      <trkpt lat="44.85966" lon="-1.09682">
        <ele>69.436034</ele>
        <time>2022-12-25T09:24:11.371Z</time>
      </trkpt>
      <trkpt lat="44.85955" lon="-1.09693">
        <ele>69.439782</ele>
        <time>2022-12-25T09:24:14.359Z</time>
      </trkpt>
      <trkpt lat="44.85944" lon="-1.09703">
        <ele>69.443577</ele>
        <time>2022-12-25T09:24:17.361Z</time>
      </trkpt>
      <trkpt lat="44.85933" lon="-1.09713">
        <ele>69.44735</ele>
        <time>2022-12-25T09:24:20.367Z</time>
      </trkpt>
      <trkpt lat="44.85923" lon="-1.09723">
        <ele>69.450922</ele>
        <time>2022-12-25T09:24:23.349Z</time>
      </trkpt>
      <trkpt lat="44.85913" lon="-1.09734">
        <ele>69.454553</ele>
        <time>2022-12-25T09:24:26.363Z</time>
      </trkpt>
      <trkpt lat="44.85902" lon="-1.09744">
        <ele>69.45931</ele>
        <time>2022-12-25T09:24:29.360Z</time>
      </trkpt>
      <trkpt lat="44.85891" lon="-1.09754">
        <ele>69.467166</ele>
        <time>2022-12-25T09:24:32.358Z</time>
      </trkpt>
      <trkpt lat="44.85882" lon="-1.09763">
        <ele>69.47454</ele>
        <time>2022-12-25T09:24:35.361Z</time>
      </trkpt>
      <trkpt lat="44.85872" lon="-1.09772">
        <ele>69.481872</ele>
        <time>2022-12-25T09:24:38.362Z</time>
      </trkpt>
      <trkpt lat="44.85861" lon="-1.09782">
        <ele>69.489578</ele>
        <time>2022-12-25T09:24:41.365Z</time>
      </trkpt>
      <trkpt lat="44.8585" lon="-1.09793">
        <ele>69.49789</ele>
        <time>2022-12-25T09:24:44.354Z</time>
      </trkpt>
      <trkpt lat="44.85843" lon="-1.098">
        <ele>69.503598</ele>
        <time>2022-12-25T09:24:46.365Z</time>
      </trkpt>
      <trkpt lat="44.85835" lon="-1.09807">
        <ele>69.509408</ele>
        <time>2022-12-25T09:24:48.353Z</time>
      </trkpt>
      <trkpt lat="44.85827" lon="-1.09815">
        <ele>69.514939</ele>
        <time>2022-12-25T09:24:50.366Z</time>
      </trkpt>
      <trkpt lat="44.85816" lon="-1.09825">
        <ele>69.523231</ele>
        <time>2022-12-25T09:24:53.365Z</time>
      </trkpt>
      <trkpt lat="44.85806" lon="-1.09836">
        <ele>69.531315</ele>
        <time>2022-12-25T09:24:56.368Z</time>
      </trkpt>
      <trkpt lat="44.85795" lon="-1.09846">
        <ele>69.539348</ele>
        <time>2022-12-25T09:24:59.367Z</time>
      </trkpt>
      <trkpt lat="44.85784" lon="-1.09856">
        <ele>69.547357</ele>
        <time>2022-12-25T09:25:02.361Z</time>
      </trkpt>
      <trkpt lat="44.85773" lon="-1.09867">
        <ele>69.555567</ele>
        <time>2022-12-25T09:25:05.368Z</time>
      </trkpt>
      <trkpt lat="44.85762" lon="-1.09877">
        <ele>69.563574</ele>
        <time>2022-12-25T09:25:08.368Z</time>
      </trkpt>
      <trkpt lat="44.85752" lon="-1.09887">
        <ele>69.547994</ele>
        <time>2022-12-25T09:25:11.364Z</time>
      </trkpt>
      <trkpt lat="44.85742" lon="-1.09896">
        <ele>69.487509</ele>
        <time>2022-12-25T09:25:14.365Z</time>
      </trkpt>
      <trkpt lat="44.85732" lon="-1.09906">
        <ele>69.427663</ele>
        <time>2022-12-25T09:25:17.359Z</time>
      </trkpt>
      <trkpt lat="44.85722" lon="-1.09916">
        <ele>69.366766</ele>
        <time>2022-12-25T09:25:20.359Z</time>
      </trkpt>
      <trkpt lat="44.85711" lon="-1.09926">
        <ele>69.30531</ele>
        <time>2022-12-25T09:25:23.355Z</time>
      </trkpt>
      <trkpt lat="44.85702" lon="-1.09935">
        <ele>69.249883</ele>
        <time>2022-12-25T09:25:26.347Z</time>
      </trkpt>
      <trkpt lat="44.85694" lon="-1.09943">
        <ele>69.198673</ele>
        <time>2022-12-25T09:25:29.359Z</time>
      </trkpt>
      <trkpt lat="44.85685" lon="-1.09951">
        <ele>69.146156</ele>
        <time>2022-12-25T09:25:32.355Z</time>
      </trkpt>
      <trkpt lat="44.85675" lon="-1.09961">
        <ele>69.086507</ele>
        <time>2022-12-25T09:25:35.366Z</time>
      </trkpt>
      <trkpt lat="44.85665" lon="-1.09971">
        <ele>69.025658</ele>
        <time>2022-12-25T09:25:38.351Z</time>
      </trkpt>
      <trkpt lat="44.85655" lon="-1.09981">
        <ele>68.965811</ele>
        <time>2022-12-25T09:25:41.374Z</time>
      </trkpt>
      <trkpt lat="44.85645" lon="-1.09991">
        <ele>68.90476</ele>
        <time>2022-12-25T09:25:44.366Z</time>
      </trkpt>
      <trkpt lat="44.85634" lon="-1.10001">
        <ele>68.845479</ele>
        <time>2022-12-25T09:25:47.369Z</time>
      </trkpt>
      <trkpt lat="44.85625" lon="-1.1001">
        <ele>68.788436</ele>
        <time>2022-12-25T09:25:50.367Z</time>
      </trkpt>
      <trkpt lat="44.85615" lon="-1.10019">
        <ele>68.729992</ele>
        <time>2022-12-25T09:25:53.362Z</time>
      </trkpt>
      <trkpt lat="44.85605" lon="-1.10028">
        <ele>68.674418</ele>
        <time>2022-12-25T09:25:56.358Z</time>
      </trkpt>
      <trkpt lat="44.85596" lon="-1.10038">
        <ele>68.62804</ele>
        <time>2022-12-25T09:25:59.370Z</time>
      </trkpt>
      <trkpt lat="44.85588" lon="-1.10046">
        <ele>68.587003</ele>
        <time>2022-12-25T09:26:02.361Z</time>
      </trkpt>
      <trkpt lat="44.85579" lon="-1.10054">
        <ele>68.544434</ele>
        <time>2022-12-25T09:26:05.357Z</time>
      </trkpt>
      <trkpt lat="44.8557" lon="-1.10064">
        <ele>68.497085</ele>
        <time>2022-12-25T09:26:08.368Z</time>
      </trkpt>
      <trkpt lat="44.8556" lon="-1.10073">
        <ele>68.449396</ele>
        <time>2022-12-25T09:26:11.367Z</time>
      </trkpt>
      <trkpt lat="44.8555" lon="-1.10083">
        <ele>68.401544</ele>
        <time>2022-12-25T09:26:14.353Z</time>
      </trkpt>
      <trkpt lat="44.8554" lon="-1.10092">
        <ele>68.352842</ele>
        <time>2022-12-25T09:26:17.373Z</time>
      </trkpt>
      <trkpt lat="44.8553" lon="-1.10102">
        <ele>68.302498</ele>
        <time>2022-12-25T09:26:20.358Z</time>
      </trkpt>
      <trkpt lat="44.8552" lon="-1.10112">
        <ele>68.251981</ele>
        <time>2022-12-25T09:26:23.364Z</time>
      </trkpt>
      <trkpt lat="44.8551" lon="-1.10121">
        <ele>68.202638</ele>
        <time>2022-12-25T09:26:26.364Z</time>
      </trkpt>
      <trkpt lat="44.85499" lon="-1.10132">
        <ele>68.150635</ele>
        <time>2022-12-25T09:26:29.358Z</time>
      </trkpt>
      <trkpt lat="44.85489" lon="-1.10142">
        <ele>68.098468</ele>
        <time>2022-12-25T09:26:32.363Z</time>
      </trkpt>
      <trkpt lat="44.85478" lon="-1.10153">
        <ele>68.045137</ele>
        <time>2022-12-25T09:26:35.362Z</time>
      </trkpt>
      <trkpt lat="44.85468" lon="-1.10163">
        <ele>67.992969</ele>
        <time>2022-12-25T09:26:38.358Z</time>
      </trkpt>
      <trkpt lat="44.85457" lon="-1.10174">
        <ele>67.953397</ele>
        <time>2022-12-25T09:26:41.362Z</time>
      </trkpt>
      <trkpt lat="44.85446" lon="-1.10183">
        <ele>67.954781</ele>
        <time>2022-12-25T09:26:44.364Z</time>
      </trkpt>
      <trkpt lat="44.85435" lon="-1.10194">
        <ele>67.956172</ele>
        <time>2022-12-25T09:26:47.361Z</time>
      </trkpt>
      <trkpt lat="44.85425" lon="-1.10205">
        <ele>67.957546</ele>
        <time>2022-12-25T09:26:50.354Z</time>
      </trkpt>
      <trkpt lat="44.85414" lon="-1.10215">
        <ele>67.958962</ele>
        <time>2022-12-25T09:26:53.370Z</time>
      </trkpt>
      <trkpt lat="44.85403" lon="-1.10225">
        <ele>67.960354</ele>
        <time>2022-12-25T09:26:56.353Z</time>
      </trkpt>
      <trkpt lat="44.85392" lon="-1.10236">
        <ele>67.961771</ele>
        <time>2022-12-25T09:26:59.370Z</time>
      </trkpt>
      <trkpt lat="44.85381" lon="-1.10247">
        <ele>67.963141</ele>
        <time>2022-12-25T09:27:02.365Z</time>
      </trkpt>
      <trkpt lat="44.8537" lon="-1.10257">
        <ele>67.964536</ele>
        <time>2022-12-25T09:27:05.357Z</time>
      </trkpt>
      <trkpt lat="44.8536" lon="-1.10268">
        <ele>67.965896</ele>
        <time>2022-12-25T09:27:08.357Z</time>
      </trkpt>
      <trkpt lat="44.8535" lon="-1.10278">
        <ele>67.96724</ele>
        <time>2022-12-25T09:27:11.361Z</time>
      </trkpt>
      <trkpt lat="44.8534" lon="-1.10288">
        <ele>67.968506</ele>
        <time>2022-12-25T09:27:14.359Z</time>
      </trkpt>
      <trkpt lat="44.8533" lon="-1.10297">
        <ele>67.969816</ele>
        <time>2022-12-25T09:27:17.362Z</time>
      </trkpt>
      <trkpt lat="44.85319" lon="-1.10307">
        <ele>67.971185</ele>
        <time>2022-12-25T09:27:20.362Z</time>
      </trkpt>
      <trkpt lat="44.85311" lon="-1.10314">
        <ele>67.972134</ele>
        <time>2022-12-25T09:27:22.360Z</time>
      </trkpt>
      <trkpt lat="44.85304" lon="-1.10323">
        <ele>67.966116</ele>
        <time>2022-12-25T09:27:24.357Z</time>
      </trkpt>
      <trkpt lat="44.85296" lon="-1.1033">
        <ele>67.959982</ele>
        <time>2022-12-25T09:27:26.348Z</time>
      </trkpt>
      <trkpt lat="44.85289" lon="-1.10338">
        <ele>67.953849</ele>
        <time>2022-12-25T09:27:28.358Z</time>
      </trkpt>
      <trkpt lat="44.85278" lon="-1.1035">
        <ele>67.944921</ele>
        <time>2022-12-25T09:27:31.368Z</time>
      </trkpt>
      <trkpt lat="44.85269" lon="-1.10361">
        <ele>67.936558</ele>
        <time>2022-12-25T09:27:34.363Z</time>
      </trkpt>
      <trkpt lat="44.85259" lon="-1.10373">
        <ele>67.928265</ele>
        <time>2022-12-25T09:27:37.352Z</time>
      </trkpt>
      <trkpt lat="44.8525" lon="-1.10385">
        <ele>67.920078</ele>
        <time>2022-12-25T09:27:40.351Z</time>
      </trkpt>
      <trkpt lat="44.85241" lon="-1.10397">
        <ele>67.911924</ele>
        <time>2022-12-25T09:27:43.362Z</time>
      </trkpt>
      <trkpt lat="44.85231" lon="-1.10408">
        <ele>67.903792</ele>
        <time>2022-12-25T09:27:46.353Z</time>
      </trkpt>
      <trkpt lat="44.85222" lon="-1.1042">
        <ele>67.895334</ele>
        <time>2022-12-25T09:27:49.347Z</time>
      </trkpt>
      <trkpt lat="44.85213" lon="-1.10433">
        <ele>67.886587</ele>
        <time>2022-12-25T09:27:52.366Z</time>
      </trkpt>
      <trkpt lat="44.85206" lon="-1.10443">
        <ele>67.880252</ele>
        <time>2022-12-25T09:27:54.357Z</time>
      </trkpt>
      <trkpt lat="44.852" lon="-1.10452">
        <ele>67.874338</ele>
        <time>2022-12-25T09:27:56.362Z</time>
      </trkpt>
      <trkpt lat="44.85193" lon="-1.10462">
        <ele>67.868379</ele>
        <time>2022-12-25T09:27:58.366Z</time>
      </trkpt>
      <trkpt lat="44.85185" lon="-1.10474">
        <ele>67.860236</ele>
        <time>2022-12-25T09:28:01.365Z</time>
      </trkpt>
      <trkpt lat="44.85176" lon="-1.10487">
        <ele>67.858298</ele>
        <time>2022-12-25T09:28:04.354Z</time>
      </trkpt>
      <trkpt lat="44.85167" lon="-1.105">
        <ele>67.879318</ele>
        <time>2022-12-25T09:28:07.365Z</time>
      </trkpt>
      <trkpt lat="44.85158" lon="-1.10512">
        <ele>67.900083</ele>
        <time>2022-12-25T09:28:10.359Z</time>
      </trkpt>
      <trkpt lat="44.85148" lon="-1.10526">
        <ele>67.922126</ele>
        <time>2022-12-25T09:28:13.351Z</time>
      </trkpt>
      <trkpt lat="44.85139" lon="-1.10539">
        <ele>67.943657</ele>
        <time>2022-12-25T09:28:16.358Z</time>
      </trkpt>
      <trkpt lat="44.8513" lon="-1.10551">
        <ele>67.963918</ele>
        <time>2022-12-25T09:28:19.368Z</time>
      </trkpt>
      <trkpt lat="44.85121" lon="-1.10565">
        <ele>67.985524</ele>
        <time>2022-12-25T09:28:22.357Z</time>
      </trkpt>
      <trkpt lat="44.85112" lon="-1.10578">
        <ele>68.007137</ele>
        <time>2022-12-25T09:28:25.360Z</time>
      </trkpt>
      <trkpt lat="44.85102" lon="-1.10591">
        <ele>68.028982</ele>
        <time>2022-12-25T09:28:28.358Z</time>
      </trkpt>
      <trkpt lat="44.85094" lon="-1.10604">
        <ele>68.04969</ele>
        <time>2022-12-25T09:28:31.360Z</time>
      </trkpt>
      <trkpt lat="44.85085" lon="-1.10615">
        <ele>68.068267</ele>
        <time>2022-12-25T09:28:34.358Z</time>
      </trkpt>
      <trkpt lat="44.85077" lon="-1.10626">
        <ele>68.087094</ele>
        <time>2022-12-25T09:28:37.369Z</time>
      </trkpt>
      <trkpt lat="44.85068" lon="-1.10638">
        <ele>68.107501</ele>
        <time>2022-12-25T09:28:40.343Z</time>
      </trkpt>
      <trkpt lat="44.85059" lon="-1.10651">
        <ele>68.128209</ele>
        <time>2022-12-25T09:28:43.361Z</time>
      </trkpt>
      <trkpt lat="44.8505" lon="-1.10664">
        <ele>68.146219</ele>
        <time>2022-12-25T09:28:46.348Z</time>
      </trkpt>
      <trkpt lat="44.85042" lon="-1.10676">
        <ele>68.094941</ele>
        <time>2022-12-25T09:28:49.355Z</time>
      </trkpt>
      <trkpt lat="44.85033" lon="-1.10689">
        <ele>68.043577</ele>
        <time>2022-12-25T09:28:52.366Z</time>
      </trkpt>
      <trkpt lat="44.85024" lon="-1.10702">
        <ele>67.990816</ele>
        <time>2022-12-25T09:28:55.356Z</time>
      </trkpt>
      <trkpt lat="44.85015" lon="-1.10715">
        <ele>67.936324</ele>
        <time>2022-12-25T09:28:58.356Z</time>
      </trkpt>
      <trkpt lat="44.85006" lon="-1.10728">
        <ele>67.881832</ele>
        <time>2022-12-25T09:29:01.358Z</time>
      </trkpt>
      <trkpt lat="44.84997" lon="-1.10741">
        <ele>67.828212</ele>
        <time>2022-12-25T09:29:04.359Z</time>
      </trkpt>
      <trkpt lat="44.84987" lon="-1.10754">
        <ele>67.77372</ele>
        <time>2022-12-25T09:29:07.355Z</time>
      </trkpt>
      <trkpt lat="44.84978" lon="-1.10767">
        <ele>67.719228</ele>
        <time>2022-12-25T09:29:10.349Z</time>
      </trkpt>
      <trkpt lat="44.84969" lon="-1.1078">
        <ele>67.664819</ele>
        <time>2022-12-25T09:29:13.353Z</time>
      </trkpt>
      <trkpt lat="44.8496" lon="-1.10793">
        <ele>67.611654</ele>
        <time>2022-12-25T09:29:16.355Z</time>
      </trkpt>
      <trkpt lat="44.84953" lon="-1.10803">
        <ele>67.572347</ele>
        <time>2022-12-25T09:29:18.346Z</time>
      </trkpt>
      <trkpt lat="44.84944" lon="-1.10816">
        <ele>67.517437</ele>
        <time>2022-12-25T09:29:21.356Z</time>
      </trkpt>
      <trkpt lat="44.84935" lon="-1.10828">
        <ele>67.465949</ele>
        <time>2022-12-25T09:29:24.362Z</time>
      </trkpt>
      <trkpt lat="44.84926" lon="-1.10841">
        <ele>67.413167</ele>
        <time>2022-12-25T09:29:27.357Z</time>
      </trkpt>
      <trkpt lat="44.84918" lon="-1.10854">
        <ele>67.355319</ele>
        <time>2022-12-25T09:29:30.347Z</time>
      </trkpt>
      <trkpt lat="44.84909" lon="-1.10867">
        <ele>67.293491</ele>
        <time>2022-12-25T09:29:33.361Z</time>
      </trkpt>
      <trkpt lat="44.849" lon="-1.10879">
        <ele>67.233755</ele>
        <time>2022-12-25T09:29:36.344Z</time>
      </trkpt>
      <trkpt lat="44.84892" lon="-1.1089">
        <ele>67.182233</ele>
        <time>2022-12-25T09:29:39.358Z</time>
      </trkpt>
      <trkpt lat="44.84885" lon="-1.10901">
        <ele>67.13037</ele>
        <time>2022-12-25T09:29:42.360Z</time>
      </trkpt>
      <trkpt lat="44.84878" lon="-1.10911">
        <ele>67.081179</ele>
        <time>2022-12-25T09:29:45.355Z</time>
      </trkpt>
      <trkpt lat="44.8487" lon="-1.10922">
        <ele>67.027345</ele>
        <time>2022-12-25T09:29:48.354Z</time>
      </trkpt>
      <trkpt lat="44.84861" lon="-1.10933">
        <ele>66.971011</ele>
        <time>2022-12-25T09:29:51.359Z</time>
      </trkpt>
      <trkpt lat="44.84854" lon="-1.10945">
        <ele>66.916675</ele>
        <time>2022-12-25T09:29:54.355Z</time>
      </trkpt>
      <trkpt lat="44.84846" lon="-1.10957">
        <ele>66.861844</ele>
        <time>2022-12-25T09:29:57.344Z</time>
      </trkpt>
      <trkpt lat="44.84838" lon="-1.10968">
        <ele>66.806676</ele>
        <time>2022-12-25T09:30:00.352Z</time>
      </trkpt>
      <trkpt lat="44.8483" lon="-1.1098">
        <ele>66.749759</ele>
        <time>2022-12-25T09:30:03.363Z</time>
      </trkpt>
      <trkpt lat="44.84821" lon="-1.10992">
        <ele>66.691525</ele>
        <time>2022-12-25T09:30:06.351Z</time>
      </trkpt>
      <trkpt lat="44.84813" lon="-1.11004">
        <ele>66.632615</ele>
        <time>2022-12-25T09:30:09.364Z</time>
      </trkpt>
      <trkpt lat="44.84804" lon="-1.11017">
        <ele>66.572435</ele>
        <time>2022-12-25T09:30:12.372Z</time>
      </trkpt>
      <trkpt lat="44.84795" lon="-1.11028">
        <ele>66.523906</ele>
        <time>2022-12-25T09:30:15.359Z</time>
      </trkpt>
      <trkpt lat="44.84786" lon="-1.11041">
        <ele>66.494191</ele>
        <time>2022-12-25T09:30:18.362Z</time>
      </trkpt>
      <trkpt lat="44.84777" lon="-1.11054">
        <ele>66.46308</ele>
        <time>2022-12-25T09:30:21.355Z</time>
      </trkpt>
      <trkpt lat="44.84768" lon="-1.11067">
        <ele>66.43192</ele>
        <time>2022-12-25T09:30:24.361Z</time>
      </trkpt>
      <trkpt lat="44.84758" lon="-1.1108">
        <ele>66.399943</ele>
        <time>2022-12-25T09:30:27.361Z</time>
      </trkpt>
      <trkpt lat="44.84749" lon="-1.11094">
        <ele>66.368254</ele>
        <time>2022-12-25T09:30:30.350Z</time>
      </trkpt>
      <trkpt lat="44.8474" lon="-1.11107">
        <ele>66.337054</ele>
        <time>2022-12-25T09:30:33.356Z</time>
      </trkpt>
      <trkpt lat="44.84731" lon="-1.1112">
        <ele>66.306723</ele>
        <time>2022-12-25T09:30:36.372Z</time>
      </trkpt>
      <trkpt lat="44.84722" lon="-1.11133">
        <ele>66.275564</ele>
        <time>2022-12-25T09:30:39.355Z</time>
      </trkpt>
      <trkpt lat="44.84713" lon="-1.11144">
        <ele>66.246163</ele>
        <time>2022-12-25T09:30:42.364Z</time>
      </trkpt>
      <trkpt lat="44.84705" lon="-1.11156">
        <ele>66.218271</ele>
        <time>2022-12-25T09:30:45.364Z</time>
      </trkpt>
      <trkpt lat="44.84696" lon="-1.11168">
        <ele>66.189953</ele>
        <time>2022-12-25T09:30:48.352Z</time>
      </trkpt>
      <trkpt lat="44.84688" lon="-1.1118">
        <ele>66.160837</ele>
        <time>2022-12-25T09:30:51.361Z</time>
      </trkpt>
      <trkpt lat="44.84678" lon="-1.11192">
        <ele>66.130042</ele>
        <time>2022-12-25T09:30:54.347Z</time>
      </trkpt>
      <trkpt lat="44.84669" lon="-1.11206">
        <ele>66.107167</ele>
        <time>2022-12-25T09:30:57.349Z</time>
      </trkpt>
      <trkpt lat="44.84659" lon="-1.11219">
        <ele>66.126021</ele>
        <time>2022-12-25T09:31:00.352Z</time>
      </trkpt>
      <trkpt lat="44.8465" lon="-1.11232">
        <ele>66.144146</ele>
        <time>2022-12-25T09:31:03.369Z</time>
      </trkpt>
      <trkpt lat="44.84641" lon="-1.11244">
        <ele>66.161675</ele>
        <time>2022-12-25T09:31:06.357Z</time>
      </trkpt>
      <trkpt lat="44.84633" lon="-1.11256">
        <ele>66.178488</ele>
        <time>2022-12-25T09:31:09.350Z</time>
      </trkpt>
      <trkpt lat="44.84624" lon="-1.11268">
        <ele>66.195879</ele>
        <time>2022-12-25T09:31:12.360Z</time>
      </trkpt>
      <trkpt lat="44.84615" lon="-1.1128">
        <ele>66.213805</ele>
        <time>2022-12-25T09:31:15.355Z</time>
      </trkpt>
      <trkpt lat="44.84607" lon="-1.11292">
        <ele>66.230991</ele>
        <time>2022-12-25T09:31:18.364Z</time>
      </trkpt>
      <trkpt lat="44.84598" lon="-1.11304">
        <ele>66.248076</ele>
        <time>2022-12-25T09:31:21.350Z</time>
      </trkpt>
      <trkpt lat="44.84589" lon="-1.11316">
        <ele>66.265274</ele>
        <time>2022-12-25T09:31:24.355Z</time>
      </trkpt>
      <trkpt lat="44.84581" lon="-1.11328">
        <ele>66.28143</ele>
        <time>2022-12-25T09:31:27.364Z</time>
      </trkpt>
      <trkpt lat="44.84574" lon="-1.11337">
        <ele>66.295411</ele>
        <time>2022-12-25T09:31:30.361Z</time>
      </trkpt>
      <trkpt lat="44.84568" lon="-1.11347">
        <ele>66.308784</ele>
        <time>2022-12-25T09:31:33.348Z</time>
      </trkpt>
      <trkpt lat="44.8456" lon="-1.11357">
        <ele>66.323387</ele>
        <time>2022-12-25T09:31:36.358Z</time>
      </trkpt>
      <trkpt lat="44.84552" lon="-1.11368">
        <ele>66.339201</ele>
        <time>2022-12-25T09:31:39.363Z</time>
      </trkpt>
      <trkpt lat="44.84544" lon="-1.1138">
        <ele>66.356184</ele>
        <time>2022-12-25T09:31:42.356Z</time>
      </trkpt>
      <trkpt lat="44.84535" lon="-1.11392">
        <ele>66.317726</ele>
        <time>2022-12-25T09:31:45.356Z</time>
      </trkpt>
      <trkpt lat="44.84526" lon="-1.11405">
        <ele>66.269824</ele>
        <time>2022-12-25T09:31:48.369Z</time>
      </trkpt>
      <trkpt lat="44.84517" lon="-1.11417">
        <ele>66.221594</ele>
        <time>2022-12-25T09:31:51.344Z</time>
      </trkpt>
      <trkpt lat="44.84508" lon="-1.1143">
        <ele>66.172368</ele>
        <time>2022-12-25T09:31:54.355Z</time>
      </trkpt>
      <trkpt lat="44.84499" lon="-1.11443">
        <ele>66.123077</ele>
        <time>2022-12-25T09:31:57.358Z</time>
      </trkpt>
      <trkpt lat="44.8449" lon="-1.11455">
        <ele>66.075306</ele>
        <time>2022-12-25T09:32:00.343Z</time>
      </trkpt>
      <trkpt lat="44.84481" lon="-1.11467">
        <ele>66.028792</ele>
        <time>2022-12-25T09:32:03.354Z</time>
      </trkpt>
      <trkpt lat="44.84472" lon="-1.1148">
        <ele>65.979834</ele>
        <time>2022-12-25T09:32:06.360Z</time>
      </trkpt>
      <trkpt lat="44.84463" lon="-1.11493">
        <ele>65.929894</ele>
        <time>2022-12-25T09:32:09.340Z</time>
      </trkpt>
      <trkpt lat="44.84456" lon="-1.11502">
        <ele>65.895221</ele>
        <time>2022-12-25T09:32:11.345Z</time>
      </trkpt>
      <trkpt lat="44.84447" lon="-1.11515">
        <ele>65.845342</ele>
        <time>2022-12-25T09:32:14.342Z</time>
      </trkpt>
      <trkpt lat="44.84438" lon="-1.11527">
        <ele>65.798178</ele>
        <time>2022-12-25T09:32:17.369Z</time>
      </trkpt>
      <trkpt lat="44.84429" lon="-1.1154">
        <ele>65.749164</ele>
        <time>2022-12-25T09:32:20.357Z</time>
      </trkpt>
      <trkpt lat="44.8442" lon="-1.11553">
        <ele>65.698899</ele>
        <time>2022-12-25T09:32:23.349Z</time>
      </trkpt>
      <trkpt lat="44.84413" lon="-1.11562">
        <ele>65.665244</ele>
        <time>2022-12-25T09:32:25.364Z</time>
      </trkpt>
      <trkpt lat="44.84403" lon="-1.11575">
        <ele>65.623335</ele>
        <time>2022-12-25T09:32:28.366Z</time>
      </trkpt>
      <trkpt lat="44.84397" lon="-1.11585">
        <ele>65.594696</ele>
        <time>2022-12-25T09:32:30.349Z</time>
      </trkpt>
      <trkpt lat="44.8439" lon="-1.11594">
        <ele>65.566433</ele>
        <time>2022-12-25T09:32:32.369Z</time>
      </trkpt>
      <trkpt lat="44.84384" lon="-1.11603">
        <ele>65.536959</ele>
        <time>2022-12-25T09:32:34.355Z</time>
      </trkpt>
      <trkpt lat="44.84377" lon="-1.11613">
        <ele>65.50823</ele>
        <time>2022-12-25T09:32:36.353Z</time>
      </trkpt>
      <trkpt lat="44.8437" lon="-1.11622">
        <ele>65.477329</ele>
        <time>2022-12-25T09:32:38.360Z</time>
      </trkpt>
      <trkpt lat="44.84363" lon="-1.11632">
        <ele>65.446658</ele>
        <time>2022-12-25T09:32:40.365Z</time>
      </trkpt>
      <trkpt lat="44.84356" lon="-1.11642">
        <ele>65.416922</ele>
        <time>2022-12-25T09:32:42.368Z</time>
      </trkpt>
      <trkpt lat="44.84347" lon="-1.11654">
        <ele>65.377131</ele>
        <time>2022-12-25T09:32:45.357Z</time>
      </trkpt>
      <trkpt lat="44.84339" lon="-1.11666">
        <ele>65.3405</ele>
        <time>2022-12-25T09:32:48.361Z</time>
      </trkpt>
      <trkpt lat="44.8433" lon="-1.11678">
        <ele>65.302742</ele>
        <time>2022-12-25T09:32:51.370Z</time>
      </trkpt>
      <trkpt lat="44.84321" lon="-1.11691">
        <ele>65.262552</ele>
        <time>2022-12-25T09:32:54.347Z</time>
      </trkpt>
      <trkpt lat="44.84314" lon="-1.117">
        <ele>65.234509</ele>
        <time>2022-12-25T09:32:56.356Z</time>
      </trkpt>
      <trkpt lat="44.84308" lon="-1.11709">
        <ele>65.205561</ele>
        <time>2022-12-25T09:32:58.360Z</time>
      </trkpt>
      <trkpt lat="44.84301" lon="-1.11718">
        <ele>65.17594</ele>
        <time>2022-12-25T09:33:00.353Z</time>
      </trkpt>
      <trkpt lat="44.84295" lon="-1.11728">
        <ele>65.147534</ele>
        <time>2022-12-25T09:33:02.358Z</time>
      </trkpt>
      <trkpt lat="44.84288" lon="-1.11737">
        <ele>65.118961</ele>
        <time>2022-12-25T09:33:04.365Z</time>
      </trkpt>
      <trkpt lat="44.84279" lon="-1.1175">
        <ele>65.150988</ele>
        <time>2022-12-25T09:33:07.368Z</time>
      </trkpt>
      <trkpt lat="44.8427" lon="-1.11763">
        <ele>65.192298</ele>
        <time>2022-12-25T09:33:10.358Z</time>
      </trkpt>
      <trkpt lat="44.84263" lon="-1.11772">
        <ele>65.221039</ele>
        <time>2022-12-25T09:33:12.343Z</time>
      </trkpt>
      <trkpt lat="44.84256" lon="-1.11781">
        <ele>65.252193</ele>
        <time>2022-12-25T09:33:14.364Z</time>
      </trkpt>
      <trkpt lat="44.84249" lon="-1.1179">
        <ele>65.281861</ele>
        <time>2022-12-25T09:33:16.369Z</time>
      </trkpt>
      <trkpt lat="44.84243" lon="-1.118">
        <ele>65.311611</ele>
        <time>2022-12-25T09:33:18.365Z</time>
      </trkpt>
      <trkpt lat="44.84236" lon="-1.11809">
        <ele>65.341453</ele>
        <time>2022-12-25T09:33:20.359Z</time>
      </trkpt>
      <trkpt lat="44.84228" lon="-1.11821">
        <ele>65.380521</ele>
        <time>2022-12-25T09:33:23.351Z</time>
      </trkpt>
      <trkpt lat="44.84218" lon="-1.11834">
        <ele>65.42173</ele>
        <time>2022-12-25T09:33:26.361Z</time>
      </trkpt>
      <trkpt lat="44.84209" lon="-1.11847">
        <ele>65.463071</ele>
        <time>2022-12-25T09:33:29.361Z</time>
      </trkpt>
      <trkpt lat="44.842" lon="-1.1186">
        <ele>65.503032</ele>
        <time>2022-12-25T09:33:32.361Z</time>
      </trkpt>
      <trkpt lat="44.84193" lon="-1.1187">
        <ele>65.536409</ele>
        <time>2022-12-25T09:33:35.369Z</time>
      </trkpt>
      <trkpt lat="44.84185" lon="-1.11881">
        <ele>65.57087</ele>
        <time>2022-12-25T09:33:38.365Z</time>
      </trkpt>
      <trkpt lat="44.84176" lon="-1.11892">
        <ele>65.608885</ele>
        <time>2022-12-25T09:33:41.359Z</time>
      </trkpt>
      <trkpt lat="44.84167" lon="-1.11905">
        <ele>65.648846</ele>
        <time>2022-12-25T09:33:44.352Z</time>
      </trkpt>
      <trkpt lat="44.84158" lon="-1.11917">
        <ele>65.690592</ele>
        <time>2022-12-25T09:33:47.375Z</time>
      </trkpt>
      <trkpt lat="44.84149" lon="-1.1193">
        <ele>65.752276</ele>
        <time>2022-12-25T09:33:50.340Z</time>
      </trkpt>
      <trkpt lat="44.8414" lon="-1.11942">
        <ele>65.8113</ele>
        <time>2022-12-25T09:33:53.356Z</time>
      </trkpt>
      <trkpt lat="44.8413" lon="-1.11955">
        <ele>65.873551</ele>
        <time>2022-12-25T09:33:56.362Z</time>
      </trkpt>
      <trkpt lat="44.84121" lon="-1.11968">
        <ele>65.936151</ele>
        <time>2022-12-25T09:33:59.359Z</time>
      </trkpt>
      <trkpt lat="44.84111" lon="-1.11981">
        <ele>65.998411</ele>
        <time>2022-12-25T09:34:02.364Z</time>
      </trkpt>
      <trkpt lat="44.84102" lon="-1.11993">
        <ele>66.059419</ele>
        <time>2022-12-25T09:34:05.354Z</time>
      </trkpt>
      <trkpt lat="44.84094" lon="-1.12006">
        <ele>66.119187</ele>
        <time>2022-12-25T09:34:08.343Z</time>
      </trkpt>
      <trkpt lat="44.84084" lon="-1.12019">
        <ele>66.181726</ele>
        <time>2022-12-25T09:34:11.353Z</time>
      </trkpt>
      <trkpt lat="44.84075" lon="-1.12033">
        <ele>66.245371</ele>
        <time>2022-12-25T09:34:14.361Z</time>
      </trkpt>
      <trkpt lat="44.84065" lon="-1.12046">
        <ele>66.308205</ele>
        <time>2022-12-25T09:34:17.367Z</time>
      </trkpt>
      <trkpt lat="44.84056" lon="-1.12059">
        <ele>66.370986</ele>
        <time>2022-12-25T09:34:20.348Z</time>
      </trkpt>
      <trkpt lat="44.84047" lon="-1.12072">
        <ele>66.433619</ele>
        <time>2022-12-25T09:34:23.371Z</time>
      </trkpt>
      <trkpt lat="44.84038" lon="-1.12084">
        <ele>66.491385</ele>
        <time>2022-12-25T09:34:26.352Z</time>
      </trkpt>
      <trkpt lat="44.8403" lon="-1.12095">
        <ele>66.541106</ele>
        <time>2022-12-25T09:34:29.361Z</time>
      </trkpt>
      <trkpt lat="44.84023" lon="-1.12107">
        <ele>66.553277</ele>
        <time>2022-12-25T09:34:32.360Z</time>
      </trkpt>
      <trkpt lat="44.84014" lon="-1.12118">
        <ele>66.566721</ele>
        <time>2022-12-25T09:34:35.363Z</time>
      </trkpt>
      <trkpt lat="44.84006" lon="-1.12131">
        <ele>66.580474</ele>
        <time>2022-12-25T09:34:38.340Z</time>
      </trkpt>
      <trkpt lat="44.83997" lon="-1.12143">
        <ele>66.594818</ele>
        <time>2022-12-25T09:34:41.372Z</time>
      </trkpt>
      <trkpt lat="44.83988" lon="-1.12155">
        <ele>66.608674</ele>
        <time>2022-12-25T09:34:44.363Z</time>
      </trkpt>
      <trkpt lat="44.83979" lon="-1.12168">
        <ele>66.622733</ele>
        <time>2022-12-25T09:34:47.357Z</time>
      </trkpt>
      <trkpt lat="44.8397" lon="-1.1218">
        <ele>66.636942</ele>
        <time>2022-12-25T09:34:50.344Z</time>
      </trkpt>
      <trkpt lat="44.83961" lon="-1.12193">
        <ele>66.650878</ele>
        <time>2022-12-25T09:34:53.358Z</time>
      </trkpt>
      <trkpt lat="44.83952" lon="-1.12205">
        <ele>66.664678</ele>
        <time>2022-12-25T09:34:56.340Z</time>
      </trkpt>
      <trkpt lat="44.83943" lon="-1.12217">
        <ele>66.679109</ele>
        <time>2022-12-25T09:34:59.357Z</time>
      </trkpt>
      <trkpt lat="44.83933" lon="-1.1223">
        <ele>66.69419</ele>
        <time>2022-12-25T09:35:02.363Z</time>
      </trkpt>
      <trkpt lat="44.83927" lon="-1.12239">
        <ele>66.704338</ele>
        <time>2022-12-25T09:35:04.359Z</time>
      </trkpt>
      <trkpt lat="44.83917" lon="-1.12252">
        <ele>66.719283</ele>
        <time>2022-12-25T09:35:07.357Z</time>
      </trkpt>
      <trkpt lat="44.83908" lon="-1.12266">
        <ele>66.734269</ele>
        <time>2022-12-25T09:35:10.359Z</time>
      </trkpt>
      <trkpt lat="44.83902" lon="-1.12275">
        <ele>66.730597</ele>
        <time>2022-12-25T09:35:12.371Z</time>
      </trkpt>
      <trkpt lat="44.83895" lon="-1.12285">
        <ele>66.67583</ele>
        <time>2022-12-25T09:35:14.355Z</time>
      </trkpt>
      <trkpt lat="44.83888" lon="-1.12294">
        <ele>66.620873</ele>
        <time>2022-12-25T09:35:16.367Z</time>
      </trkpt>
      <trkpt lat="44.83881" lon="-1.12304">
        <ele>66.565768</ele>
        <time>2022-12-25T09:35:18.352Z</time>
      </trkpt>
      <trkpt lat="44.83875" lon="-1.12313">
        <ele>66.512565</ele>
        <time>2022-12-25T09:35:20.369Z</time>
      </trkpt>
      <trkpt lat="44.83866" lon="-1.12325">
        <ele>66.443453</ele>
        <time>2022-12-25T09:35:23.362Z</time>
      </trkpt>
      <trkpt lat="44.83858" lon="-1.12336">
        <ele>66.377484</ele>
        <time>2022-12-25T09:35:26.366Z</time>
      </trkpt>
      <trkpt lat="44.8385" lon="-1.12347">
        <ele>66.317114</ele>
        <time>2022-12-25T09:35:29.369Z</time>
      </trkpt>
      <trkpt lat="44.83842" lon="-1.12358">
        <ele>66.251314</ele>
        <time>2022-12-25T09:35:32.346Z</time>
      </trkpt>
      <trkpt lat="44.83833" lon="-1.12371">
        <ele>66.179651</ele>
        <time>2022-12-25T09:35:35.349Z</time>
      </trkpt>
      <trkpt lat="44.83824" lon="-1.12384">
        <ele>66.104822</ele>
        <time>2022-12-25T09:35:38.342Z</time>
      </trkpt>
      <trkpt lat="44.83814" lon="-1.12397">
        <ele>66.029587</ele>
        <time>2022-12-25T09:35:41.368Z</time>
      </trkpt>
      <trkpt lat="44.83805" lon="-1.1241">
        <ele>65.951708</ele>
        <time>2022-12-25T09:35:44.360Z</time>
      </trkpt>
      <trkpt lat="44.83798" lon="-1.12419">
        <ele>65.899082</ele>
        <time>2022-12-25T09:35:46.362Z</time>
      </trkpt>
      <trkpt lat="44.83791" lon="-1.12428">
        <ele>65.846762</ele>
        <time>2022-12-25T09:35:48.354Z</time>
      </trkpt>
      <trkpt lat="44.83782" lon="-1.12441">
        <ele>65.771679</ele>
        <time>2022-12-25T09:35:51.362Z</time>
      </trkpt>
      <trkpt lat="44.83773" lon="-1.12453">
        <ele>65.713944</ele>
        <time>2022-12-25T09:35:54.350Z</time>
      </trkpt>
      <trkpt lat="44.83763" lon="-1.12467">
        <ele>65.711521</ele>
        <time>2022-12-25T09:35:57.352Z</time>
      </trkpt>
      <trkpt lat="44.83754" lon="-1.1248">
        <ele>65.70907</ele>
        <time>2022-12-25T09:36:00.363Z</time>
      </trkpt>
      <trkpt lat="44.83748" lon="-1.12489">
        <ele>65.707425</ele>
        <time>2022-12-25T09:36:02.346Z</time>
      </trkpt>
      <trkpt lat="44.83741" lon="-1.12499">
        <ele>65.705668</ele>
        <time>2022-12-25T09:36:04.362Z</time>
      </trkpt>
      <trkpt lat="44.83734" lon="-1.12508">
        <ele>65.704017</ele>
        <time>2022-12-25T09:36:06.365Z</time>
      </trkpt>
      <trkpt lat="44.83725" lon="-1.12521">
        <ele>65.701612</ele>
        <time>2022-12-25T09:36:09.361Z</time>
      </trkpt>
      <trkpt lat="44.83716" lon="-1.12534">
        <ele>65.699214</ele>
        <time>2022-12-25T09:36:12.365Z</time>
      </trkpt>
      <trkpt lat="44.83706" lon="-1.12547">
        <ele>65.696803</ele>
        <time>2022-12-25T09:36:15.360Z</time>
      </trkpt>
      <trkpt lat="44.83697" lon="-1.1256">
        <ele>65.694396</ele>
        <time>2022-12-25T09:36:18.368Z</time>
      </trkpt>
      <trkpt lat="44.83688" lon="-1.12573">
        <ele>65.692115</ele>
        <time>2022-12-25T09:36:21.354Z</time>
      </trkpt>
      <trkpt lat="44.83679" lon="-1.12584">
        <ele>65.689946</ele>
        <time>2022-12-25T09:36:24.357Z</time>
      </trkpt>
      <trkpt lat="44.83671" lon="-1.12595">
        <ele>65.687851</ele>
        <time>2022-12-25T09:36:27.364Z</time>
      </trkpt>
      <trkpt lat="44.83663" lon="-1.12606">
        <ele>65.685726</ele>
        <time>2022-12-25T09:36:30.357Z</time>
      </trkpt>
      <trkpt lat="44.83654" lon="-1.12618">
        <ele>65.68348</ele>
        <time>2022-12-25T09:36:33.370Z</time>
      </trkpt>
      <trkpt lat="44.83644" lon="-1.12629">
        <ele>65.65284</ele>
        <time>2022-12-25T09:36:36.358Z</time>
      </trkpt>
      <trkpt lat="44.83634" lon="-1.12639">
        <ele>65.489923</ele>
        <time>2022-12-25T09:36:39.348Z</time>
      </trkpt>
      <trkpt lat="44.83624" lon="-1.12647">
        <ele>65.332594</ele>
        <time>2022-12-25T09:36:42.363Z</time>
      </trkpt>
      <trkpt lat="44.83614" lon="-1.12654">
        <ele>65.183322</ele>
        <time>2022-12-25T09:36:45.360Z</time>
      </trkpt>
      <trkpt lat="44.83604" lon="-1.12661">
        <ele>65.028225</ele>
        <time>2022-12-25T09:36:48.355Z</time>
      </trkpt>
      <trkpt lat="44.83593" lon="-1.12667">
        <ele>64.870482</ele>
        <time>2022-12-25T09:36:51.363Z</time>
      </trkpt>
      <trkpt lat="44.83582" lon="-1.12671">
        <ele>64.708665</ele>
        <time>2022-12-25T09:36:54.353Z</time>
      </trkpt>
      <trkpt lat="44.8357" lon="-1.12676">
        <ele>64.539935</ele>
        <time>2022-12-25T09:36:57.364Z</time>
      </trkpt>
      <trkpt lat="44.83557" lon="-1.12679">
        <ele>64.371681</ele>
        <time>2022-12-25T09:37:00.365Z</time>
      </trkpt>
      <trkpt lat="44.83545" lon="-1.12682">
        <ele>64.201411</ele>
        <time>2022-12-25T09:37:03.369Z</time>
      </trkpt>
      <trkpt lat="44.83536" lon="-1.12683">
        <ele>64.078292</ele>
        <time>2022-12-25T09:37:05.352Z</time>
      </trkpt>
      <trkpt lat="44.83523" lon="-1.12686">
        <ele>63.899985</ele>
        <time>2022-12-25T09:37:08.342Z</time>
      </trkpt>
      <trkpt lat="44.83511" lon="-1.12688">
        <ele>63.738952</ele>
        <time>2022-12-25T09:37:11.351Z</time>
      </trkpt>
      <trkpt lat="44.83499" lon="-1.1269">
        <ele>63.571934</ele>
        <time>2022-12-25T09:37:14.341Z</time>
      </trkpt>
      <trkpt lat="44.83487" lon="-1.12693">
        <ele>63.403825</ele>
        <time>2022-12-25T09:37:17.351Z</time>
      </trkpt>
      <trkpt lat="44.83474" lon="-1.12694">
        <ele>63.247182</ele>
        <time>2022-12-25T09:37:20.346Z</time>
      </trkpt>
      <trkpt lat="44.83461" lon="-1.12696">
        <ele>63.327646</ele>
        <time>2022-12-25T09:37:23.342Z</time>
      </trkpt>
      <trkpt lat="44.83449" lon="-1.12698">
        <ele>63.40375</ele>
        <time>2022-12-25T09:37:26.356Z</time>
      </trkpt>
      <trkpt lat="44.83437" lon="-1.127">
        <ele>63.481607</ele>
        <time>2022-12-25T09:37:29.366Z</time>
      </trkpt>
      <trkpt lat="44.83424" lon="-1.12702">
        <ele>63.559663</ele>
        <time>2022-12-25T09:37:32.360Z</time>
      </trkpt>
      <trkpt lat="44.83412" lon="-1.12705">
        <ele>63.635376</ele>
        <time>2022-12-25T09:37:35.369Z</time>
      </trkpt>
      <trkpt lat="44.834" lon="-1.12708">
        <ele>63.712509</ele>
        <time>2022-12-25T09:37:38.353Z</time>
      </trkpt>
      <trkpt lat="44.83387" lon="-1.12709">
        <ele>63.789796</ele>
        <time>2022-12-25T09:37:41.369Z</time>
      </trkpt>
      <trkpt lat="44.83375" lon="-1.12711">
        <ele>63.868979</ele>
        <time>2022-12-25T09:37:44.360Z</time>
      </trkpt>
      <trkpt lat="44.83362" lon="-1.12714">
        <ele>63.948264</ele>
        <time>2022-12-25T09:37:47.350Z</time>
      </trkpt>
      <trkpt lat="44.83349" lon="-1.12716">
        <ele>64.026831</ele>
        <time>2022-12-25T09:37:50.342Z</time>
      </trkpt>
      <trkpt lat="44.83336" lon="-1.12718">
        <ele>64.107346</ele>
        <time>2022-12-25T09:37:53.352Z</time>
      </trkpt>
      <trkpt lat="44.83324" lon="-1.1272">
        <ele>64.186129</ele>
        <time>2022-12-25T09:37:56.362Z</time>
      </trkpt>
      <trkpt lat="44.83312" lon="-1.12723">
        <ele>64.262456</ele>
        <time>2022-12-25T09:37:59.350Z</time>
      </trkpt>
      <trkpt lat="44.83299" lon="-1.12725">
        <ele>64.337945</ele>
        <time>2022-12-25T09:38:02.369Z</time>
      </trkpt>
      <trkpt lat="44.83288" lon="-1.12727">
        <ele>64.344297</ele>
        <time>2022-12-25T09:38:05.343Z</time>
      </trkpt>
      <trkpt lat="44.83277" lon="-1.12729">
        <ele>64.327761</ele>
        <time>2022-12-25T09:38:08.362Z</time>
      </trkpt>
      <trkpt lat="44.83266" lon="-1.12731">
        <ele>64.311317</ele>
        <time>2022-12-25T09:38:11.357Z</time>
      </trkpt>
      <trkpt lat="44.83255" lon="-1.12734">
        <ele>64.294019</ele>
        <time>2022-12-25T09:38:14.348Z</time>
      </trkpt>
      <trkpt lat="44.83243" lon="-1.12736">
        <ele>64.275899</ele>
        <time>2022-12-25T09:38:17.360Z</time>
      </trkpt>
      <trkpt lat="44.83231" lon="-1.12738">
        <ele>64.257955</ele>
        <time>2022-12-25T09:38:20.350Z</time>
      </trkpt>
      <trkpt lat="44.83219" lon="-1.1274">
        <ele>64.239971</ele>
        <time>2022-12-25T09:38:23.350Z</time>
      </trkpt>
      <trkpt lat="44.83207" lon="-1.12742">
        <ele>64.221239</ele>
        <time>2022-12-25T09:38:26.351Z</time>
      </trkpt>
      <trkpt lat="44.83195" lon="-1.12745">
        <ele>64.202463</ele>
        <time>2022-12-25T09:38:29.365Z</time>
      </trkpt>
      <trkpt lat="44.83183" lon="-1.12747">
        <ele>64.184016</ele>
        <time>2022-12-25T09:38:32.340Z</time>
      </trkpt>
      <trkpt lat="44.8317" lon="-1.12748">
        <ele>64.165514</ele>
        <time>2022-12-25T09:38:35.363Z</time>
      </trkpt>
      <trkpt lat="44.83158" lon="-1.12751">
        <ele>64.147171</ele>
        <time>2022-12-25T09:38:38.365Z</time>
      </trkpt>
      <trkpt lat="44.83146" lon="-1.12753">
        <ele>64.128764</ele>
        <time>2022-12-25T09:38:41.365Z</time>
      </trkpt>
      <trkpt lat="44.83134" lon="-1.12755">
        <ele>64.110194</ele>
        <time>2022-12-25T09:38:44.357Z</time>
      </trkpt>
      <trkpt lat="44.83123" lon="-1.12757">
        <ele>64.09296</ele>
        <time>2022-12-25T09:38:47.360Z</time>
      </trkpt>
      <trkpt lat="44.83113" lon="-1.12759">
        <ele>64.089243</ele>
        <time>2022-12-25T09:38:50.368Z</time>
      </trkpt>
      <trkpt lat="44.83101" lon="-1.12761">
        <ele>64.098052</ele>
        <time>2022-12-25T09:38:54.367Z</time>
      </trkpt>
      <trkpt lat="44.83092" lon="-1.12763">
        <ele>64.105127</ele>
        <time>2022-12-25T09:38:57.370Z</time>
      </trkpt>
      <trkpt lat="44.83081" lon="-1.12765">
        <ele>64.11273</ele>
        <time>2022-12-25T09:39:00.367Z</time>
      </trkpt>
      <trkpt lat="44.8307" lon="-1.12766">
        <ele>64.120652</ele>
        <time>2022-12-25T09:39:03.370Z</time>
      </trkpt>
      <trkpt lat="44.83059" lon="-1.12768">
        <ele>64.128968</ele>
        <time>2022-12-25T09:39:06.365Z</time>
      </trkpt>
      <trkpt lat="44.83048" lon="-1.1277">
        <ele>64.137248</ele>
        <time>2022-12-25T09:39:09.362Z</time>
      </trkpt>
      <trkpt lat="44.83037" lon="-1.12772">
        <ele>64.145466</ele>
        <time>2022-12-25T09:39:12.357Z</time>
      </trkpt>
      <trkpt lat="44.83025" lon="-1.12774">
        <ele>64.153933</ele>
        <time>2022-12-25T09:39:15.368Z</time>
      </trkpt>
      <trkpt lat="44.83013" lon="-1.12776">
        <ele>64.162498</ele>
        <time>2022-12-25T09:39:18.365Z</time>
      </trkpt>
      <trkpt lat="44.83001" lon="-1.12778">
        <ele>64.171262</ele>
        <time>2022-12-25T09:39:21.366Z</time>
      </trkpt>
      <trkpt lat="44.8299" lon="-1.1278">
        <ele>64.179946</ele>
        <time>2022-12-25T09:39:24.365Z</time>
      </trkpt>
      <trkpt lat="44.82978" lon="-1.12783">
        <ele>64.188854</ele>
        <time>2022-12-25T09:39:27.369Z</time>
      </trkpt>
      <trkpt lat="44.82965" lon="-1.12785">
        <ele>64.197827</ele>
        <time>2022-12-25T09:39:30.371Z</time>
      </trkpt>
      <trkpt lat="44.82953" lon="-1.12787">
        <ele>64.206787</ele>
        <time>2022-12-25T09:39:33.368Z</time>
      </trkpt>
      <trkpt lat="44.82941" lon="-1.12789">
        <ele>64.215736</ele>
        <time>2022-12-25T09:39:36.360Z</time>
      </trkpt>
      <trkpt lat="44.82929" lon="-1.12791">
        <ele>64.189364</ele>
        <time>2022-12-25T09:39:39.361Z</time>
      </trkpt>
      <trkpt lat="44.82917" lon="-1.12793">
        <ele>64.159556</ele>
        <time>2022-12-25T09:39:42.361Z</time>
      </trkpt>
      <trkpt lat="44.82905" lon="-1.12795">
        <ele>64.128833</ele>
        <time>2022-12-25T09:39:45.370Z</time>
      </trkpt>
      <trkpt lat="44.82893" lon="-1.12797">
        <ele>64.097716</ele>
        <time>2022-12-25T09:39:48.362Z</time>
      </trkpt>
      <trkpt lat="44.82881" lon="-1.128">
        <ele>64.065928</ele>
        <time>2022-12-25T09:39:51.365Z</time>
      </trkpt>
      <trkpt lat="44.82869" lon="-1.12802">
        <ele>64.033686</ele>
        <time>2022-12-25T09:39:54.364Z</time>
      </trkpt>
      <trkpt lat="44.82857" lon="-1.12805">
        <ele>64.002851</ele>
        <time>2022-12-25T09:39:57.350Z</time>
      </trkpt>
      <trkpt lat="44.82846" lon="-1.12807">
        <ele>63.975746</ele>
        <time>2022-12-25T09:40:00.348Z</time>
      </trkpt>
      <trkpt lat="44.82835" lon="-1.12809">
        <ele>63.948264</ele>
        <time>2022-12-25T09:40:03.369Z</time>
      </trkpt>
      <trkpt lat="44.82824" lon="-1.12811">
        <ele>63.919311</ele>
        <time>2022-12-25T09:40:06.350Z</time>
      </trkpt>
      <trkpt lat="44.82813" lon="-1.12813">
        <ele>63.891142</ele>
        <time>2022-12-25T09:40:09.362Z</time>
      </trkpt>
      <trkpt lat="44.82802" lon="-1.12816">
        <ele>63.861936</ele>
        <time>2022-12-25T09:40:12.363Z</time>
      </trkpt>
      <trkpt lat="44.8279" lon="-1.12819">
        <ele>63.831887</ele>
        <time>2022-12-25T09:40:15.344Z</time>
      </trkpt>
      <trkpt lat="44.82779" lon="-1.1282">
        <ele>63.802548</ele>
        <time>2022-12-25T09:40:18.364Z</time>
      </trkpt>
      <trkpt lat="44.82767" lon="-1.12823">
        <ele>63.77238</ele>
        <time>2022-12-25T09:40:21.362Z</time>
      </trkpt>
      <trkpt lat="44.82756" lon="-1.12825">
        <ele>63.737295</ele>
        <time>2022-12-25T09:40:24.361Z</time>
      </trkpt>
      <trkpt lat="44.82747" lon="-1.12826">
        <ele>63.699527</ele>
        <time>2022-12-25T09:40:27.343Z</time>
      </trkpt>
      <trkpt lat="44.82737" lon="-1.12827">
        <ele>63.661396</ele>
        <time>2022-12-25T09:40:30.372Z</time>
      </trkpt>
      <trkpt lat="44.82726" lon="-1.12829">
        <ele>63.619531</ele>
        <time>2022-12-25T09:40:33.370Z</time>
      </trkpt>
      <trkpt lat="44.82715" lon="-1.1283">
        <ele>63.577465</ele>
        <time>2022-12-25T09:40:36.367Z</time>
      </trkpt>
      <trkpt lat="44.82704" lon="-1.12832">
        <ele>63.533642</ele>
        <time>2022-12-25T09:40:39.366Z</time>
      </trkpt>
      <trkpt lat="44.82693" lon="-1.12834">
        <ele>63.489534</ele>
        <time>2022-12-25T09:40:42.375Z</time>
      </trkpt>
      <trkpt lat="44.82682" lon="-1.12836">
        <ele>63.445746</ele>
        <time>2022-12-25T09:40:45.364Z</time>
      </trkpt>
      <trkpt lat="44.82671" lon="-1.12839">
        <ele>63.402573</ele>
        <time>2022-12-25T09:40:48.352Z</time>
      </trkpt>
      <trkpt lat="44.82659" lon="-1.12841">
        <ele>63.358749</ele>
        <time>2022-12-25T09:40:51.342Z</time>
      </trkpt>
      <trkpt lat="44.82648" lon="-1.12843">
        <ele>63.315234</ele>
        <time>2022-12-25T09:40:54.355Z</time>
      </trkpt>
      <trkpt lat="44.82637" lon="-1.12845">
        <ele>63.270676</ele>
        <time>2022-12-25T09:40:57.348Z</time>
      </trkpt>
      <trkpt lat="44.82626" lon="-1.12847">
        <ele>63.226083</ele>
        <time>2022-12-25T09:41:00.358Z</time>
      </trkpt>
      <trkpt lat="44.82614" lon="-1.12849">
        <ele>63.181454</ele>
        <time>2022-12-25T09:41:03.360Z</time>
      </trkpt>
      <trkpt lat="44.82603" lon="-1.12851">
        <ele>63.136477</ele>
        <time>2022-12-25T09:41:06.361Z</time>
      </trkpt>
      <trkpt lat="44.82591" lon="-1.12854">
        <ele>63.091848</ele>
        <time>2022-12-25T09:41:09.347Z</time>
      </trkpt>
      <trkpt lat="44.82579" lon="-1.12856">
        <ele>63.05354</ele>
        <time>2022-12-25T09:41:12.363Z</time>
      </trkpt>
      <trkpt lat="44.82568" lon="-1.12857">
        <ele>63.035193</ele>
        <time>2022-12-25T09:41:15.362Z</time>
      </trkpt>
      <trkpt lat="44.82558" lon="-1.12859">
        <ele>63.018605</ele>
        <time>2022-12-25T09:41:18.350Z</time>
      </trkpt>
      <trkpt lat="44.82548" lon="-1.12861">
        <ele>63.00159</ele>
        <time>2022-12-25T09:41:21.361Z</time>
      </trkpt>
      <trkpt lat="44.82536" lon="-1.12863">
        <ele>62.983243</ele>
        <time>2022-12-25T09:41:24.364Z</time>
      </trkpt>
      <trkpt lat="44.82525" lon="-1.12866">
        <ele>62.9642</ele>
        <time>2022-12-25T09:41:27.363Z</time>
      </trkpt>
      <trkpt lat="44.82513" lon="-1.12868">
        <ele>62.94531</ele>
        <time>2022-12-25T09:41:30.346Z</time>
      </trkpt>
      <trkpt lat="44.82501" lon="-1.12871">
        <ele>62.92476</ele>
        <time>2022-12-25T09:41:33.368Z</time>
      </trkpt>
      <trkpt lat="44.82488" lon="-1.12873">
        <ele>62.903698</ele>
        <time>2022-12-25T09:41:36.367Z</time>
      </trkpt>
      <trkpt lat="44.82475" lon="-1.12875">
        <ele>62.882228</ele>
        <time>2022-12-25T09:41:39.367Z</time>
      </trkpt>
      <trkpt lat="44.82463" lon="-1.12877">
        <ele>62.863234</ele>
        <time>2022-12-25T09:41:42.352Z</time>
      </trkpt>
      <trkpt lat="44.82451" lon="-1.12878">
        <ele>62.843514</ele>
        <time>2022-12-25T09:41:45.368Z</time>
      </trkpt>
      <trkpt lat="44.82438" lon="-1.1288">
        <ele>62.822407</ele>
        <time>2022-12-25T09:41:48.358Z</time>
      </trkpt>
      <trkpt lat="44.82425" lon="-1.12881">
        <ele>62.800697</ele>
        <time>2022-12-25T09:41:51.344Z</time>
      </trkpt>
      <trkpt lat="44.82412" lon="-1.12884">
        <ele>62.779901</ele>
        <time>2022-12-25T09:41:54.341Z</time>
      </trkpt>
      <trkpt lat="44.824" lon="-1.12886">
        <ele>62.815551</ele>
        <time>2022-12-25T09:41:57.346Z</time>
      </trkpt>
      <trkpt lat="44.82387" lon="-1.12888">
        <ele>62.949545</ele>
        <time>2022-12-25T09:42:00.341Z</time>
      </trkpt>
      <trkpt lat="44.82375" lon="-1.12891">
        <ele>63.087398</ele>
        <time>2022-12-25T09:42:03.353Z</time>
      </trkpt>
      <trkpt lat="44.82362" lon="-1.12893">
        <ele>63.220611</ele>
        <time>2022-12-25T09:42:06.347Z</time>
      </trkpt>
      <trkpt lat="44.8235" lon="-1.12896">
        <ele>63.352671</ele>
        <time>2022-12-25T09:42:09.361Z</time>
      </trkpt>
      <trkpt lat="44.82338" lon="-1.12898">
        <ele>63.482717</ele>
        <time>2022-12-25T09:42:12.361Z</time>
      </trkpt>
      <trkpt lat="44.82326" lon="-1.129">
        <ele>63.611512</ele>
        <time>2022-12-25T09:42:15.354Z</time>
      </trkpt>
      <trkpt lat="44.82315" lon="-1.12902">
        <ele>63.733228</ele>
        <time>2022-12-25T09:42:18.343Z</time>
      </trkpt>
      <trkpt lat="44.82303" lon="-1.12905">
        <ele>63.853674</ele>
        <time>2022-12-25T09:42:21.358Z</time>
      </trkpt>
      <trkpt lat="44.82293" lon="-1.12907">
        <ele>63.968741</ele>
        <time>2022-12-25T09:42:24.359Z</time>
      </trkpt>
      <trkpt lat="44.82282" lon="-1.12909">
        <ele>64.081496</ele>
        <time>2022-12-25T09:42:27.355Z</time>
      </trkpt>
      <trkpt lat="44.82271" lon="-1.1291">
        <ele>64.196272</ele>
        <time>2022-12-25T09:42:30.358Z</time>
      </trkpt>
      <trkpt lat="44.82261" lon="-1.12912">
        <ele>64.30982</ele>
        <time>2022-12-25T09:42:33.368Z</time>
      </trkpt>
      <trkpt lat="44.8225" lon="-1.12914">
        <ele>64.424688</ele>
        <time>2022-12-25T09:42:36.368Z</time>
      </trkpt>
      <trkpt lat="44.8224" lon="-1.12916">
        <ele>64.533122</ele>
        <time>2022-12-25T09:42:39.365Z</time>
      </trkpt>
      <trkpt lat="44.82229" lon="-1.12917">
        <ele>64.647729</ele>
        <time>2022-12-25T09:42:42.360Z</time>
      </trkpt>
      <trkpt lat="44.82219" lon="-1.12919">
        <ele>64.671104</ele>
        <time>2022-12-25T09:42:45.359Z</time>
      </trkpt>
      <trkpt lat="44.82207" lon="-1.12922">
        <ele>64.653703</ele>
        <time>2022-12-25T09:42:48.353Z</time>
      </trkpt>
      <trkpt lat="44.82196" lon="-1.12924">
        <ele>64.636651</ele>
        <time>2022-12-25T09:42:51.361Z</time>
      </trkpt>
      <trkpt lat="44.82184" lon="-1.12926">
        <ele>64.618708</ele>
        <time>2022-12-25T09:42:54.342Z</time>
      </trkpt>
      <trkpt lat="44.82172" lon="-1.12929">
        <ele>64.600072</ele>
        <time>2022-12-25T09:42:57.347Z</time>
      </trkpt>
      <trkpt lat="44.8216" lon="-1.12931">
        <ele>64.581166</ele>
        <time>2022-12-25T09:43:00.362Z</time>
      </trkpt>
      <trkpt lat="44.82148" lon="-1.12934">
        <ele>64.562379</ele>
        <time>2022-12-25T09:43:03.341Z</time>
      </trkpt>
      <trkpt lat="44.82135" lon="-1.12936">
        <ele>64.543037</ele>
        <time>2022-12-25T09:43:06.342Z</time>
      </trkpt>
      <trkpt lat="44.82124" lon="-1.12938">
        <ele>64.525848</ele>
        <time>2022-12-25T09:43:09.350Z</time>
      </trkpt>
      <trkpt lat="44.82113" lon="-1.12941">
        <ele>64.509216</ele>
        <time>2022-12-25T09:43:12.349Z</time>
      </trkpt>
      <trkpt lat="44.82102" lon="-1.12943">
        <ele>64.491764</ele>
        <time>2022-12-25T09:43:15.362Z</time>
      </trkpt>
      <trkpt lat="44.8209" lon="-1.12944">
        <ele>64.473557</ele>
        <time>2022-12-25T09:43:18.365Z</time>
      </trkpt>
      <trkpt lat="44.82078" lon="-1.12946">
        <ele>64.455011</ele>
        <time>2022-12-25T09:43:21.367Z</time>
      </trkpt>
      <trkpt lat="44.82066" lon="-1.12949">
        <ele>64.436451</ele>
        <time>2022-12-25T09:43:24.358Z</time>
      </trkpt>
      <trkpt lat="44.82053" lon="-1.12951">
        <ele>64.417602</ele>
        <time>2022-12-25T09:43:27.356Z</time>
      </trkpt>
      <trkpt lat="44.82041" lon="-1.12952">
        <ele>64.366644</ele>
        <time>2022-12-25T09:43:30.368Z</time>
      </trkpt>
      <trkpt lat="44.82029" lon="-1.12954">
        <ele>64.288511</ele>
        <time>2022-12-25T09:43:33.341Z</time>
      </trkpt>
      <trkpt lat="44.82017" lon="-1.12957">
        <ele>64.210068</ele>
        <time>2022-12-25T09:43:36.361Z</time>
      </trkpt>
      <trkpt lat="44.82005" lon="-1.12959">
        <ele>64.12939</ele>
        <time>2022-12-25T09:43:39.346Z</time>
      </trkpt>
      <trkpt lat="44.81992" lon="-1.12962">
        <ele>64.046936</ele>
        <time>2022-12-25T09:43:42.342Z</time>
      </trkpt>
      <trkpt lat="44.81979" lon="-1.12964">
        <ele>63.965086</ele>
        <time>2022-12-25T09:43:45.364Z</time>
      </trkpt>
      <trkpt lat="44.81967" lon="-1.12966">
        <ele>63.886775</ele>
        <time>2022-12-25T09:43:48.344Z</time>
      </trkpt>
      <trkpt lat="44.81955" lon="-1.12968">
        <ele>63.809333</ele>
        <time>2022-12-25T09:43:51.340Z</time>
      </trkpt>
      <trkpt lat="44.81943" lon="-1.12971">
        <ele>63.732988</ele>
        <time>2022-12-25T09:43:54.342Z</time>
      </trkpt>
      <trkpt lat="44.81932" lon="-1.12972">
        <ele>63.660744</ele>
        <time>2022-12-25T09:43:57.370Z</time>
      </trkpt>
      <trkpt lat="44.8192" lon="-1.12974">
        <ele>63.580755</ele>
        <time>2022-12-25T09:44:00.386Z</time>
      </trkpt>
      <trkpt lat="44.81907" lon="-1.12977">
        <ele>63.500022</ele>
        <time>2022-12-25T09:44:03.369Z</time>
      </trkpt>
      <trkpt lat="44.81895" lon="-1.12979">
        <ele>63.418536</ele>
        <time>2022-12-25T09:44:06.344Z</time>
      </trkpt>
      <trkpt lat="44.81882" lon="-1.12981">
        <ele>63.33705</ele>
        <time>2022-12-25T09:44:09.351Z</time>
      </trkpt>
      <trkpt lat="44.8187" lon="-1.12983">
        <ele>63.257843</ele>
        <time>2022-12-25T09:44:12.348Z</time>
      </trkpt>
      <trkpt lat="44.81858" lon="-1.12985">
        <ele>63.212722</ele>
        <time>2022-12-25T09:44:15.374Z</time>
      </trkpt>
      <trkpt lat="44.81846" lon="-1.12987">
        <ele>63.168677</ele>
        <time>2022-12-25T09:44:18.362Z</time>
      </trkpt>
      <trkpt lat="44.81835" lon="-1.12989">
        <ele>63.126047</ele>
        <time>2022-12-25T09:44:21.365Z</time>
      </trkpt>
      <trkpt lat="44.81823" lon="-1.12991">
        <ele>63.0825</ele>
        <time>2022-12-25T09:44:24.363Z</time>
      </trkpt>
      <trkpt lat="44.81811" lon="-1.12993">
        <ele>63.038027</ele>
        <time>2022-12-25T09:44:27.370Z</time>
      </trkpt>
      <trkpt lat="44.81799" lon="-1.12995">
        <ele>62.992081</ele>
        <time>2022-12-25T09:44:30.347Z</time>
      </trkpt>
      <trkpt lat="44.81786" lon="-1.12998">
        <ele>62.945192</ele>
        <time>2022-12-25T09:44:33.363Z</time>
      </trkpt>
      <trkpt lat="44.81774" lon="-1.13">
        <ele>62.89777</ele>
        <time>2022-12-25T09:44:36.348Z</time>
      </trkpt>
      <trkpt lat="44.81762" lon="-1.13002">
        <ele>62.854403</ele>
        <time>2022-12-25T09:44:39.363Z</time>
      </trkpt>
      <trkpt lat="44.81752" lon="-1.13004">
        <ele>62.817491</ele>
        <time>2022-12-25T09:44:42.348Z</time>
      </trkpt>
      <trkpt lat="44.81741" lon="-1.13006">
        <ele>62.776734</ele>
        <time>2022-12-25T09:44:46.367Z</time>
      </trkpt>
      <trkpt lat="44.81729" lon="-1.13008">
        <ele>62.729832</ele>
        <time>2022-12-25T09:45:26.362Z</time>
      </trkpt>
      <trkpt lat="44.81718" lon="-1.1301">
        <ele>62.689811</ele>
        <time>2022-12-25T09:45:30.342Z</time>
      </trkpt>
      <trkpt lat="44.81709" lon="-1.13011">
        <ele>62.654939</ele>
        <time>2022-12-25T09:45:33.350Z</time>
      </trkpt>
      <trkpt lat="44.81698" lon="-1.13013">
        <ele>62.614919</ele>
        <time>2022-12-25T09:45:36.350Z</time>
      </trkpt>
      <trkpt lat="44.81687" lon="-1.13015">
        <ele>62.62547</ele>
        <time>2022-12-25T09:45:39.336Z</time>
      </trkpt>
      <trkpt lat="44.81675" lon="-1.13016">
        <ele>62.731903</ele>
        <time>2022-12-25T09:45:42.347Z</time>
      </trkpt>
      <trkpt lat="44.81662" lon="-1.13018">
        <ele>62.83987</ele>
        <time>2022-12-25T09:45:45.361Z</time>
      </trkpt>
      <trkpt lat="44.81649" lon="-1.13019">
        <ele>62.950575</ele>
        <time>2022-12-25T09:45:48.346Z</time>
      </trkpt>
      <trkpt lat="44.81637" lon="-1.13021">
        <ele>63.060787</ele>
        <time>2022-12-25T09:45:51.357Z</time>
      </trkpt>
      <trkpt lat="44.81624" lon="-1.13023">
        <ele>63.16935</ele>
        <time>2022-12-25T09:45:54.344Z</time>
      </trkpt>
      <trkpt lat="44.81612" lon="-1.13025">
        <ele>63.27736</ele>
        <time>2022-12-25T09:45:57.355Z</time>
      </trkpt>
      <trkpt lat="44.81599" lon="-1.13027">
        <ele>63.387501</ele>
        <time>2022-12-25T09:46:00.361Z</time>
      </trkpt>
      <trkpt lat="44.81587" lon="-1.13028">
        <ele>63.494645</ele>
        <time>2022-12-25T09:46:03.371Z</time>
      </trkpt>
      <trkpt lat="44.81574" lon="-1.13029">
        <ele>63.605254</ele>
        <time>2022-12-25T09:46:06.359Z</time>
      </trkpt>
      <trkpt lat="44.81562" lon="-1.1303">
        <ele>63.717554</ele>
        <time>2022-12-25T09:46:09.352Z</time>
      </trkpt>
      <trkpt lat="44.81549" lon="-1.13032">
        <ele>63.830908</ele>
        <time>2022-12-25T09:46:12.364Z</time>
      </trkpt>
      <trkpt lat="44.81536" lon="-1.13034">
        <ele>63.937462</ele>
        <time>2022-12-25T09:46:15.349Z</time>
      </trkpt>
      <trkpt lat="44.81524" lon="-1.13035">
        <ele>64.048029</ele>
        <time>2022-12-25T09:46:18.358Z</time>
      </trkpt>
      <trkpt lat="44.81511" lon="-1.13036">
        <ele>64.147887</ele>
        <time>2022-12-25T09:46:21.353Z</time>
      </trkpt>
      <trkpt lat="44.81498" lon="-1.13038">
        <ele>64.009553</ele>
        <time>2022-12-25T09:46:24.361Z</time>
      </trkpt>
      <trkpt lat="44.81489" lon="-1.13039">
        <ele>63.914756</ele>
        <time>2022-12-25T09:46:26.355Z</time>
      </trkpt>
      <trkpt lat="44.8148" lon="-1.1304">
        <ele>63.8192</ele>
        <time>2022-12-25T09:46:28.362Z</time>
      </trkpt>
      <trkpt lat="44.81466" lon="-1.13042">
        <ele>63.680698</ele>
        <time>2022-12-25T09:46:31.348Z</time>
      </trkpt>
      <trkpt lat="44.81453" lon="-1.13044">
        <ele>63.543384</ele>
        <time>2022-12-25T09:46:34.354Z</time>
      </trkpt>
      <trkpt lat="44.81443" lon="-1.13045">
        <ele>63.446606</ele>
        <time>2022-12-25T09:46:36.355Z</time>
      </trkpt>
      <trkpt lat="44.81434" lon="-1.13046">
        <ele>63.35283</ele>
        <time>2022-12-25T09:46:38.369Z</time>
      </trkpt>
      <trkpt lat="44.81422" lon="-1.13048">
        <ele>63.222128</ele>
        <time>2022-12-25T09:46:41.371Z</time>
      </trkpt>
      <trkpt lat="44.81409" lon="-1.1305">
        <ele>63.089993</ele>
        <time>2022-12-25T09:46:44.361Z</time>
      </trkpt>
      <trkpt lat="44.81396" lon="-1.13051">
        <ele>62.961491</ele>
        <time>2022-12-25T09:46:47.365Z</time>
      </trkpt>
      <trkpt lat="44.81383" lon="-1.13053">
        <ele>62.825424</ele>
        <time>2022-12-25T09:46:50.362Z</time>
      </trkpt>
      <trkpt lat="44.81374" lon="-1.13054">
        <ele>62.731332</ele>
        <time>2022-12-25T09:46:52.364Z</time>
      </trkpt>
      <trkpt lat="44.81361" lon="-1.13057">
        <ele>62.597921</ele>
        <time>2022-12-25T09:46:55.359Z</time>
      </trkpt>
      <trkpt lat="44.81348" lon="-1.13058">
        <ele>62.467097</ele>
        <time>2022-12-25T09:46:58.369Z</time>
      </trkpt>
      <trkpt lat="44.81335" lon="-1.1306">
        <ele>62.330076</ele>
        <time>2022-12-25T09:47:01.355Z</time>
      </trkpt>
      <trkpt lat="44.81326" lon="-1.13061">
        <ele>62.293738</ele>
        <time>2022-12-25T09:47:03.358Z</time>
      </trkpt>
      <trkpt lat="44.81313" lon="-1.13062">
        <ele>62.270385</ele>
        <time>2022-12-25T09:47:06.367Z</time>
      </trkpt>
      <trkpt lat="44.81299" lon="-1.13064">
        <ele>62.246152</ele>
        <time>2022-12-25T09:47:09.344Z</time>
      </trkpt>
      <trkpt lat="44.8129" lon="-1.13065">
        <ele>62.229558</ele>
        <time>2022-12-25T09:47:11.359Z</time>
      </trkpt>
      <trkpt lat="44.81281" lon="-1.13066">
        <ele>62.213432</ele>
        <time>2022-12-25T09:47:13.361Z</time>
      </trkpt>
      <trkpt lat="44.81267" lon="-1.13068">
        <ele>62.188889</ele>
        <time>2022-12-25T09:47:16.363Z</time>
      </trkpt>
      <trkpt lat="44.81258" lon="-1.1307">
        <ele>62.172445</ele>
        <time>2022-12-25T09:47:18.341Z</time>
      </trkpt>
      <trkpt lat="44.81245" lon="-1.13071">
        <ele>62.148902</ele>
        <time>2022-12-25T09:47:21.366Z</time>
      </trkpt>
      <trkpt lat="44.81235" lon="-1.13072">
        <ele>62.130256</ele>
        <time>2022-12-25T09:47:23.362Z</time>
      </trkpt>
      <trkpt lat="44.81225" lon="-1.13073">
        <ele>62.113136</ele>
        <time>2022-12-25T09:47:25.345Z</time>
      </trkpt>
      <trkpt lat="44.81216" lon="-1.13075">
        <ele>62.096752</ele>
        <time>2022-12-25T09:47:27.358Z</time>
      </trkpt>
      <trkpt lat="44.81207" lon="-1.13076">
        <ele>62.079931</ele>
        <time>2022-12-25T09:47:29.364Z</time>
      </trkpt>
      <trkpt lat="44.81197" lon="-1.13078">
        <ele>62.063053</ele>
        <time>2022-12-25T09:47:31.362Z</time>
      </trkpt>
      <trkpt lat="44.81184" lon="-1.1308">
        <ele>62.04032</ele>
        <time>2022-12-25T09:47:34.361Z</time>
      </trkpt>
      <trkpt lat="44.81172" lon="-1.13081">
        <ele>62.018741</ele>
        <time>2022-12-25T09:47:37.364Z</time>
      </trkpt>
      <trkpt lat="44.8116" lon="-1.13082">
        <ele>61.996185</ele>
        <time>2022-12-25T09:47:40.361Z</time>
      </trkpt>
      <trkpt lat="44.81147" lon="-1.13084">
        <ele>62.020895</ele>
        <time>2022-12-25T09:47:43.373Z</time>
      </trkpt>
      <trkpt lat="44.81134" lon="-1.13084">
        <ele>62.085713</ele>
        <time>2022-12-25T09:47:46.357Z</time>
      </trkpt>
      <trkpt lat="44.81121" lon="-1.13086">
        <ele>62.1503</ele>
        <time>2022-12-25T09:47:49.341Z</time>
      </trkpt>
      <trkpt lat="44.81112" lon="-1.13088">
        <ele>62.196531</ele>
        <time>2022-12-25T09:47:51.356Z</time>
      </trkpt>
      <trkpt lat="44.81102" lon="-1.13088">
        <ele>62.242403</ele>
        <time>2022-12-25T09:47:53.360Z</time>
      </trkpt>
      <trkpt lat="44.81093" lon="-1.13089">
        <ele>62.288377</ele>
        <time>2022-12-25T09:47:55.356Z</time>
      </trkpt>
      <trkpt lat="44.81084" lon="-1.13091">
        <ele>62.335057</ele>
        <time>2022-12-25T09:47:57.371Z</time>
      </trkpt>
      <trkpt lat="44.81075" lon="-1.13093">
        <ele>62.381695</ele>
        <time>2022-12-25T09:47:59.340Z</time>
      </trkpt>
      <trkpt lat="44.81065" lon="-1.13093">
        <ele>62.427123</ele>
        <time>2022-12-25T09:48:01.374Z</time>
      </trkpt>
      <trkpt lat="44.81056" lon="-1.13095">
        <ele>62.472695</ele>
        <time>2022-12-25T09:48:03.345Z</time>
      </trkpt>
      <trkpt lat="44.81047" lon="-1.13096">
        <ele>62.519166</ele>
        <time>2022-12-25T09:48:05.373Z</time>
      </trkpt>
      <trkpt lat="44.81034" lon="-1.13097">
        <ele>62.582664</ele>
        <time>2022-12-25T09:48:08.365Z</time>
      </trkpt>
      <trkpt lat="44.81022" lon="-1.13099">
        <ele>62.646162</ele>
        <time>2022-12-25T09:48:11.367Z</time>
      </trkpt>
      <trkpt lat="44.81009" lon="-1.13101">
        <ele>62.711776</ele>
        <time>2022-12-25T09:48:14.365Z</time>
      </trkpt>
      <trkpt lat="44.81" lon="-1.13102">
        <ele>62.756973</ele>
        <time>2022-12-25T09:48:16.362Z</time>
      </trkpt>
      <trkpt lat="44.80991" lon="-1.13103">
        <ele>62.801554</ele>
        <time>2022-12-25T09:48:18.370Z</time>
      </trkpt>
      <trkpt lat="44.80977" lon="-1.13105">
        <ele>62.868588</ele>
        <time>2022-12-25T09:48:21.351Z</time>
      </trkpt>
      <trkpt lat="44.80968" lon="-1.13106">
        <ele>62.85272</ele>
        <time>2022-12-25T09:48:23.371Z</time>
      </trkpt>
      <trkpt lat="44.80959" lon="-1.13108">
        <ele>62.811486</ele>
        <time>2022-12-25T09:48:25.372Z</time>
      </trkpt>
      <trkpt lat="44.8095" lon="-1.13109">
        <ele>62.768944</ele>
        <time>2022-12-25T09:48:27.370Z</time>
      </trkpt>
      <trkpt lat="44.80941" lon="-1.1311">
        <ele>62.727679</ele>
        <time>2022-12-25T09:48:29.347Z</time>
      </trkpt>
      <trkpt lat="44.80927" lon="-1.13112">
        <ele>62.66524</ele>
        <time>2022-12-25T09:48:32.361Z</time>
      </trkpt>
      <trkpt lat="44.80918" lon="-1.13113">
        <ele>62.624006</ele>
        <time>2022-12-25T09:48:34.356Z</time>
      </trkpt>
      <trkpt lat="44.80909" lon="-1.13114">
        <ele>62.58291</ele>
        <time>2022-12-25T09:48:36.369Z</time>
      </trkpt>
      <trkpt lat="44.809" lon="-1.13115">
        <ele>62.541574</ele>
        <time>2022-12-25T09:48:38.367Z</time>
      </trkpt>
      <trkpt lat="44.80888" lon="-1.13118">
        <ele>62.482306</ele>
        <time>2022-12-25T09:48:41.368Z</time>
      </trkpt>
      <trkpt lat="44.80876" lon="-1.13119">
        <ele>62.427476</ele>
        <time>2022-12-25T09:48:44.365Z</time>
      </trkpt>
      <trkpt lat="44.80863" lon="-1.1312">
        <ele>62.367983</ele>
        <time>2022-12-25T09:48:47.362Z</time>
      </trkpt>
      <trkpt lat="44.80849" lon="-1.13122">
        <ele>62.307846</ele>
        <time>2022-12-25T09:48:50.365Z</time>
      </trkpt>
      <trkpt lat="44.80837" lon="-1.13124">
        <ele>62.250143</ele>
        <time>2022-12-25T09:48:53.362Z</time>
      </trkpt>
      <trkpt lat="44.80825" lon="-1.13125">
        <ele>62.195727</ele>
        <time>2022-12-25T09:48:56.364Z</time>
      </trkpt>
      <trkpt lat="44.80815" lon="-1.13126">
        <ele>62.14995</ele>
        <time>2022-12-25T09:48:59.364Z</time>
      </trkpt>
      <trkpt lat="44.80804" lon="-1.13128">
        <ele>62.098987</ele>
        <time>2022-12-25T09:49:02.365Z</time>
      </trkpt>
      <trkpt lat="44.80793" lon="-1.13129">
        <ele>62.055842</ele>
        <time>2022-12-25T09:49:05.345Z</time>
      </trkpt>
      <trkpt lat="44.80782" lon="-1.13131">
        <ele>62.034659</ele>
        <time>2022-12-25T09:49:08.349Z</time>
      </trkpt>
      <trkpt lat="44.8077" lon="-1.13133">
        <ele>62.013102</ele>
        <time>2022-12-25T09:49:11.363Z</time>
      </trkpt>
      <trkpt lat="44.80758" lon="-1.13134">
        <ele>61.990642</ele>
        <time>2022-12-25T09:49:14.361Z</time>
      </trkpt>
      <trkpt lat="44.80746" lon="-1.13136">
        <ele>61.967934</ele>
        <time>2022-12-25T09:49:17.350Z</time>
      </trkpt>
      <trkpt lat="44.80734" lon="-1.13138">
        <ele>61.94518</ele>
        <time>2022-12-25T09:49:20.348Z</time>
      </trkpt>
      <trkpt lat="44.80722" lon="-1.13139">
        <ele>61.921209</ele>
        <time>2022-12-25T09:49:23.361Z</time>
      </trkpt>
      <trkpt lat="44.80708" lon="-1.13141">
        <ele>61.896414</ele>
        <time>2022-12-25T09:49:26.351Z</time>
      </trkpt>
      <trkpt lat="44.80699" lon="-1.13142">
        <ele>61.879203</ele>
        <time>2022-12-25T09:49:28.347Z</time>
      </trkpt>
      <trkpt lat="44.8069" lon="-1.13143">
        <ele>61.862046</ele>
        <time>2022-12-25T09:49:30.341Z</time>
      </trkpt>
      <trkpt lat="44.80677" lon="-1.13145">
        <ele>61.837064</ele>
        <time>2022-12-25T09:49:33.347Z</time>
      </trkpt>
      <trkpt lat="44.80668" lon="-1.13146">
        <ele>61.819514</ele>
        <time>2022-12-25T09:49:35.374Z</time>
      </trkpt>
      <trkpt lat="44.80654" lon="-1.13148">
        <ele>61.794407</ele>
        <time>2022-12-25T09:49:38.347Z</time>
      </trkpt>
      <trkpt lat="44.80645" lon="-1.13149">
        <ele>61.777368</ele>
        <time>2022-12-25T09:49:40.367Z</time>
      </trkpt>
      <trkpt lat="44.80637" lon="-1.1315">
        <ele>61.760545</ele>
        <time>2022-12-25T09:49:42.344Z</time>
      </trkpt>
      <trkpt lat="44.80627" lon="-1.13151">
        <ele>61.742994</ele>
        <time>2022-12-25T09:49:44.363Z</time>
      </trkpt>
      <trkpt lat="44.80618" lon="-1.13153">
        <ele>61.725551</ele>
        <time>2022-12-25T09:49:46.343Z</time>
      </trkpt>
      <trkpt lat="44.80609" lon="-1.13154">
        <ele>61.678958</ele>
        <time>2022-12-25T09:49:48.365Z</time>
      </trkpt>
      <trkpt lat="44.80599" lon="-1.13156">
        <ele>61.629326</ele>
        <time>2022-12-25T09:49:50.352Z</time>
      </trkpt>
      <trkpt lat="44.80586" lon="-1.13158">
        <ele>61.55854</ele>
        <time>2022-12-25T09:49:53.364Z</time>
      </trkpt>
      <trkpt lat="44.80573" lon="-1.1316">
        <ele>61.485481</ele>
        <time>2022-12-25T09:49:56.348Z</time>
      </trkpt>
      <trkpt lat="44.8056" lon="-1.1316">
        <ele>61.414971</ele>
        <time>2022-12-25T09:49:59.349Z</time>
      </trkpt>
      <trkpt lat="44.80547" lon="-1.13162">
        <ele>61.345766</ele>
        <time>2022-12-25T09:50:02.346Z</time>
      </trkpt>
      <trkpt lat="44.80534" lon="-1.13164">
        <ele>61.273864</ele>
        <time>2022-12-25T09:50:05.363Z</time>
      </trkpt>
      <trkpt lat="44.80522" lon="-1.13166">
        <ele>61.207764</ele>
        <time>2022-12-25T09:50:08.364Z</time>
      </trkpt>
      <trkpt lat="44.80511" lon="-1.13167">
        <ele>61.148306</ele>
        <time>2022-12-25T09:50:11.366Z</time>
      </trkpt>
      <trkpt lat="44.805" lon="-1.1317">
        <ele>61.088302</ele>
        <time>2022-12-25T09:50:14.345Z</time>
      </trkpt>
      <trkpt lat="44.80489" lon="-1.13173">
        <ele>61.024892</ele>
        <time>2022-12-25T09:50:17.352Z</time>
      </trkpt>
      <trkpt lat="44.80477" lon="-1.13176">
        <ele>60.958944</ele>
        <time>2022-12-25T09:50:20.350Z</time>
      </trkpt>
      <trkpt lat="44.80465" lon="-1.13178">
        <ele>60.89382</ele>
        <time>2022-12-25T09:50:23.360Z</time>
      </trkpt>
      <trkpt lat="44.80453" lon="-1.13181">
        <ele>60.827209</ele>
        <time>2022-12-25T09:50:26.348Z</time>
      </trkpt>
      <trkpt lat="44.80441" lon="-1.13185">
        <ele>60.762439</ele>
        <time>2022-12-25T09:50:29.365Z</time>
      </trkpt>
      <trkpt lat="44.80429" lon="-1.13189">
        <ele>60.806135</ele>
        <time>2022-12-25T09:50:32.348Z</time>
      </trkpt>
      <trkpt lat="44.80418" lon="-1.13193">
        <ele>60.880697</ele>
        <time>2022-12-25T09:50:35.346Z</time>
      </trkpt>
      <trkpt lat="44.80407" lon="-1.132">
        <ele>60.956136</ele>
        <time>2022-12-25T09:50:38.361Z</time>
      </trkpt>
      <trkpt lat="44.80396" lon="-1.13207">
        <ele>61.034841</ele>
        <time>2022-12-25T09:50:41.369Z</time>
      </trkpt>
      <trkpt lat="44.80384" lon="-1.13215">
        <ele>61.117182</ele>
        <time>2022-12-25T09:50:44.358Z</time>
      </trkpt>
      <trkpt lat="44.80373" lon="-1.13224">
        <ele>61.19978</ele>
        <time>2022-12-25T09:50:47.364Z</time>
      </trkpt>
      <trkpt lat="44.80362" lon="-1.13234">
        <ele>61.28097</ele>
        <time>2022-12-25T09:50:50.363Z</time>
      </trkpt>
      <trkpt lat="44.80354" lon="-1.13241">
        <ele>61.339436</ele>
        <time>2022-12-25T09:50:52.342Z</time>
      </trkpt>
      <trkpt lat="44.80344" lon="-1.13252">
        <ele>61.419383</ele>
        <time>2022-12-25T09:50:55.366Z</time>
      </trkpt>
      <trkpt lat="44.80335" lon="-1.13262">
        <ele>61.492273</ele>
        <time>2022-12-25T09:50:58.359Z</time>
      </trkpt>
      <trkpt lat="44.80328" lon="-1.13272">
        <ele>61.555679</ele>
        <time>2022-12-25T09:51:01.345Z</time>
      </trkpt>
      <trkpt lat="44.80322" lon="-1.13282">
        <ele>61.61451</ele>
        <time>2022-12-25T09:51:04.349Z</time>
      </trkpt>
      <trkpt lat="44.80314" lon="-1.13294">
        <ele>61.689329</ele>
        <time>2022-12-25T09:51:08.345Z</time>
      </trkpt>
      <trkpt lat="44.80306" lon="-1.13303">
        <ele>61.753293</ele>
        <time>2022-12-25T09:51:11.359Z</time>
      </trkpt>
      <trkpt lat="44.80298" lon="-1.13313">
        <ele>61.820336</ele>
        <time>2022-12-25T09:51:14.362Z</time>
      </trkpt>
      <trkpt lat="44.80291" lon="-1.13324">
        <ele>61.885536</ele>
        <time>2022-12-25T09:51:17.363Z</time>
      </trkpt>
      <trkpt lat="44.80283" lon="-1.13336">
        <ele>61.874392</ele>
        <time>2022-12-25T09:51:20.363Z</time>
      </trkpt>
      <trkpt lat="44.80276" lon="-1.13347">
        <ele>61.863842</ele>
        <time>2022-12-25T09:51:23.362Z</time>
      </trkpt>
      <trkpt lat="44.8027" lon="-1.13357">
        <ele>61.85393</ele>
        <time>2022-12-25T09:51:26.362Z</time>
      </trkpt>
      <trkpt lat="44.80262" lon="-1.1337">
        <ele>61.841864</ele>
        <time>2022-12-25T09:51:30.359Z</time>
      </trkpt>
      <trkpt lat="44.80255" lon="-1.13381">
        <ele>61.831453</ele>
        <time>2022-12-25T09:51:33.372Z</time>
      </trkpt>
      <trkpt lat="44.80248" lon="-1.13393">
        <ele>61.820403</ele>
        <time>2022-12-25T09:51:36.367Z</time>
      </trkpt>
      <trkpt lat="44.80241" lon="-1.13405">
        <ele>61.809667</ele>
        <time>2022-12-25T09:51:39.354Z</time>
      </trkpt>
      <trkpt lat="44.80235" lon="-1.13416">
        <ele>61.799604</ele>
        <time>2022-12-25T09:51:42.351Z</time>
      </trkpt>
      <trkpt lat="44.80227" lon="-1.13428">
        <ele>61.788025</ele>
        <time>2022-12-25T09:51:46.363Z</time>
      </trkpt>
      <trkpt lat="44.80221" lon="-1.13438">
        <ele>61.778752</ele>
        <time>2022-12-25T09:51:49.357Z</time>
      </trkpt>
      <trkpt lat="44.80215" lon="-1.13449">
        <ele>61.768341</ele>
        <time>2022-12-25T09:51:52.367Z</time>
      </trkpt>
      <trkpt lat="44.80208" lon="-1.1346">
        <ele>61.758268</ele>
        <time>2022-12-25T09:51:55.360Z</time>
      </trkpt>
      <trkpt lat="44.80202" lon="-1.1347">
        <ele>61.748803</ele>
        <time>2022-12-25T09:51:58.369Z</time>
      </trkpt>
      <trkpt lat="44.80197" lon="-1.13481">
        <ele>61.739172</ele>
        <time>2022-12-25T09:52:01.365Z</time>
      </trkpt>
      <trkpt lat="44.80191" lon="-1.13492">
        <ele>61.729629</ele>
        <time>2022-12-25T09:52:04.359Z</time>
      </trkpt>
      <trkpt lat="44.80185" lon="-1.13501">
        <ele>61.720529</ele>
        <time>2022-12-25T09:52:07.368Z</time>
      </trkpt>
      <trkpt lat="44.80177" lon="-1.13512">
        <ele>61.709659</ele>
        <time>2022-12-25T09:52:11.355Z</time>
      </trkpt>
      <trkpt lat="44.80171" lon="-1.13523">
        <ele>61.674249</ele>
        <time>2022-12-25T09:52:15.364Z</time>
      </trkpt>
      <trkpt lat="44.80163" lon="-1.13533">
        <ele>61.611812</ele>
        <time>2022-12-25T09:52:19.345Z</time>
      </trkpt>
      <trkpt lat="44.80153" lon="-1.13539">
        <ele>61.546082</ele>
        <time>2022-12-25T09:52:23.343Z</time>
      </trkpt>
      <trkpt lat="44.80143" lon="-1.13539">
        <ele>61.490507</ele>
        <time>2022-12-25T09:52:26.340Z</time>
      </trkpt>
      <trkpt lat="44.80133" lon="-1.13538">
        <ele>61.430202</ele>
        <time>2022-12-25T09:52:29.363Z</time>
      </trkpt>
      <trkpt lat="44.80122" lon="-1.13537">
        <ele>61.367105</ele>
        <time>2022-12-25T09:52:32.361Z</time>
      </trkpt>
      <trkpt lat="44.80111" lon="-1.13537">
        <ele>61.302273</ele>
        <time>2022-12-25T09:52:35.350Z</time>
      </trkpt>
      <trkpt lat="44.80099" lon="-1.13536">
        <ele>61.237346</ele>
        <time>2022-12-25T09:52:38.366Z</time>
      </trkpt>
      <trkpt lat="44.80087" lon="-1.13535">
        <ele>61.167257</ele>
        <time>2022-12-25T09:52:41.348Z</time>
      </trkpt>
      <trkpt lat="44.80075" lon="-1.13536">
        <ele>61.098354</ele>
        <time>2022-12-25T09:52:44.358Z</time>
      </trkpt>
      <trkpt lat="44.80063" lon="-1.13536">
        <ele>61.028324</ele>
        <time>2022-12-25T09:52:47.359Z</time>
      </trkpt>
      <trkpt lat="44.80051" lon="-1.13537">
        <ele>60.95706</ele>
        <time>2022-12-25T09:52:50.372Z</time>
      </trkpt>
      <trkpt lat="44.8004" lon="-1.13538">
        <ele>60.891556</ele>
        <time>2022-12-25T09:52:53.362Z</time>
      </trkpt>
      <trkpt lat="44.80028" lon="-1.13539">
        <ele>60.824675</ele>
        <time>2022-12-25T09:52:56.365Z</time>
      </trkpt>
      <trkpt lat="44.80016" lon="-1.13542">
        <ele>60.754849</ele>
        <time>2022-12-25T09:52:59.368Z</time>
      </trkpt>
      <trkpt lat="44.80004" lon="-1.13546">
        <ele>60.680274</ele>
        <time>2022-12-25T09:53:02.363Z</time>
      </trkpt>
      <trkpt lat="44.79991" lon="-1.1355">
        <ele>60.653027</ele>
        <time>2022-12-25T09:53:05.367Z</time>
      </trkpt>
      <trkpt lat="44.79979" lon="-1.13556">
        <ele>60.638929</ele>
        <time>2022-12-25T09:53:08.352Z</time>
      </trkpt>
      <trkpt lat="44.79967" lon="-1.1356">
        <ele>60.623888</ele>
        <time>2022-12-25T09:53:11.351Z</time>
      </trkpt>
      <trkpt lat="44.79958" lon="-1.13564">
        <ele>60.613527</ele>
        <time>2022-12-25T09:53:13.362Z</time>
      </trkpt>
      <trkpt lat="44.79945" lon="-1.13568">
        <ele>60.598397</ele>
        <time>2022-12-25T09:53:16.364Z</time>
      </trkpt>
      <trkpt lat="44.79932" lon="-1.13573">
        <ele>60.583203</ele>
        <time>2022-12-25T09:53:19.357Z</time>
      </trkpt>
      <trkpt lat="44.79919" lon="-1.13578">
        <ele>60.567931</ele>
        <time>2022-12-25T09:53:22.361Z</time>
      </trkpt>
      <trkpt lat="44.79907" lon="-1.13583">
        <ele>60.553595</ele>
        <time>2022-12-25T09:53:25.359Z</time>
      </trkpt>
      <trkpt lat="44.79896" lon="-1.13587">
        <ele>60.540555</ele>
        <time>2022-12-25T09:53:28.365Z</time>
      </trkpt>
      <trkpt lat="44.79885" lon="-1.1359">
        <ele>60.527502</ele>
        <time>2022-12-25T09:53:31.347Z</time>
      </trkpt>
      <trkpt lat="44.79876" lon="-1.13594">
        <ele>60.516309</ele>
        <time>2022-12-25T09:53:34.365Z</time>
      </trkpt>
      <trkpt lat="44.79866" lon="-1.13597">
        <ele>60.505334</ele>
        <time>2022-12-25T09:53:37.364Z</time>
      </trkpt>
      <trkpt lat="44.79857" lon="-1.13601">
        <ele>60.493936</ele>
        <time>2022-12-25T09:53:40.346Z</time>
      </trkpt>
      <trkpt lat="44.79846" lon="-1.13603">
        <ele>60.481923</ele>
        <time>2022-12-25T09:53:43.370Z</time>
      </trkpt>
      <trkpt lat="44.79835" lon="-1.13606">
        <ele>60.469264</ele>
        <time>2022-12-25T09:53:46.359Z</time>
      </trkpt>
      <trkpt lat="44.79824" lon="-1.13611">
        <ele>60.451559</ele>
        <time>2022-12-25T09:53:49.355Z</time>
      </trkpt>
      <trkpt lat="44.79812" lon="-1.13616">
        <ele>60.419529</ele>
        <time>2022-12-25T09:53:52.362Z</time>
      </trkpt>
      <trkpt lat="44.798" lon="-1.1362">
        <ele>60.38758</ele>
        <time>2022-12-25T09:53:55.343Z</time>
      </trkpt>
      <trkpt lat="44.79788" lon="-1.13625">
        <ele>60.355338</ele>
        <time>2022-12-25T09:53:58.369Z</time>
      </trkpt>
      <trkpt lat="44.79776" lon="-1.1363">
        <ele>60.322913</ele>
        <time>2022-12-25T09:54:01.364Z</time>
      </trkpt>
      <trkpt lat="44.79763" lon="-1.13635">
        <ele>60.289252</ele>
        <time>2022-12-25T09:54:04.361Z</time>
      </trkpt>
      <trkpt lat="44.79755" lon="-1.13639">
        <ele>60.266034</ele>
        <time>2022-12-25T09:54:06.359Z</time>
      </trkpt>
      <trkpt lat="44.79743" lon="-1.13644">
        <ele>60.234538</ele>
        <time>2022-12-25T09:54:09.359Z</time>
      </trkpt>
      <trkpt lat="44.79732" lon="-1.13647">
        <ele>60.207038</ele>
        <time>2022-12-25T09:54:12.362Z</time>
      </trkpt>
      <trkpt lat="44.79722" lon="-1.13651">
        <ele>60.180283</ele>
        <time>2022-12-25T09:54:15.363Z</time>
      </trkpt>
      <trkpt lat="44.79711" lon="-1.13655">
        <ele>60.151806</ele>
        <time>2022-12-25T09:54:18.368Z</time>
      </trkpt>
      <trkpt lat="44.797" lon="-1.1366">
        <ele>60.12017</ele>
        <time>2022-12-25T09:54:21.355Z</time>
      </trkpt>
      <trkpt lat="44.79687" lon="-1.13664">
        <ele>60.086506</ele>
        <time>2022-12-25T09:54:24.347Z</time>
      </trkpt>
      <trkpt lat="44.79674" lon="-1.13669">
        <ele>60.05239</ele>
        <time>2022-12-25T09:54:27.363Z</time>
      </trkpt>
      <trkpt lat="44.79662" lon="-1.13675">
        <ele>60.019062</ele>
        <time>2022-12-25T09:54:30.370Z</time>
      </trkpt>
      <trkpt lat="44.79649" lon="-1.1368">
        <ele>59.9508</ele>
        <time>2022-12-25T09:54:33.368Z</time>
      </trkpt>
      <trkpt lat="44.79637" lon="-1.13685">
        <ele>59.824162</ele>
        <time>2022-12-25T09:54:36.367Z</time>
      </trkpt>
      <trkpt lat="44.79624" lon="-1.1369">
        <ele>59.703004</ele>
        <time>2022-12-25T09:54:39.370Z</time>
      </trkpt>
      <trkpt lat="44.79614" lon="-1.13694">
        <ele>59.59552</ele>
        <time>2022-12-25T09:54:42.354Z</time>
      </trkpt>
      <trkpt lat="44.79603" lon="-1.13698">
        <ele>59.486113</ele>
        <time>2022-12-25T09:54:45.363Z</time>
      </trkpt>
      <trkpt lat="44.79591" lon="-1.137">
        <ele>59.371898</ele>
        <time>2022-12-25T09:54:48.369Z</time>
      </trkpt>
      <trkpt lat="44.7958" lon="-1.13698">
        <ele>59.261006</ele>
        <time>2022-12-25T09:54:51.347Z</time>
      </trkpt>
      <trkpt lat="44.79572" lon="-1.13689">
        <ele>59.161258</ele>
        <time>2022-12-25T09:54:54.347Z</time>
      </trkpt>
      <trkpt lat="44.7957" lon="-1.13676">
        <ele>59.068061</ele>
        <time>2022-12-25T09:54:57.347Z</time>
      </trkpt>
      <trkpt lat="44.79569" lon="-1.1366">
        <ele>58.963068</ele>
        <time>2022-12-25T09:55:00.345Z</time>
      </trkpt>
      <trkpt lat="44.79568" lon="-1.13644">
        <ele>58.853114</ele>
        <time>2022-12-25T09:55:03.338Z</time>
      </trkpt>
      <trkpt lat="44.79566" lon="-1.13628">
        <ele>58.739414</ele>
        <time>2022-12-25T09:55:06.364Z</time>
      </trkpt>
      <trkpt lat="44.79566" lon="-1.13611">
        <ele>58.621408</ele>
        <time>2022-12-25T09:55:09.362Z</time>
      </trkpt>
      <trkpt lat="44.79565" lon="-1.13593">
        <ele>58.502153</ele>
        <time>2022-12-25T09:55:12.370Z</time>
      </trkpt>
      <trkpt lat="44.79563" lon="-1.13576">
        <ele>58.379489</ele>
        <time>2022-12-25T09:55:15.362Z</time>
      </trkpt>
      <trkpt lat="44.79562" lon="-1.13558">
        <ele>58.257598</ele>
        <time>2022-12-25T09:55:18.363Z</time>
      </trkpt>
      <trkpt lat="44.79561" lon="-1.1354">
        <ele>58.173302</ele>
        <time>2022-12-25T09:55:21.361Z</time>
      </trkpt>
      <trkpt lat="44.7956" lon="-1.13522">
        <ele>58.089905</ele>
        <time>2022-12-25T09:55:24.352Z</time>
      </trkpt>
      <trkpt lat="44.79559" lon="-1.13505">
        <ele>58.005459</ele>
        <time>2022-12-25T09:55:27.362Z</time>
      </trkpt>
      <trkpt lat="44.79558" lon="-1.13487">
        <ele>57.921041</ele>
        <time>2022-12-25T09:55:30.371Z</time>
      </trkpt>
      <trkpt lat="44.79557" lon="-1.13469">
        <ele>57.83454</ele>
        <time>2022-12-25T09:55:33.343Z</time>
      </trkpt>
      <trkpt lat="44.79556" lon="-1.1345">
        <ele>57.74505</ele>
        <time>2022-12-25T09:55:36.364Z</time>
      </trkpt>
      <trkpt lat="44.79554" lon="-1.13432">
        <ele>57.661657</ele>
        <time>2022-12-25T09:55:39.372Z</time>
      </trkpt>
      <trkpt lat="44.79553" lon="-1.13417">
        <ele>57.58789</ele>
        <time>2022-12-25T09:55:42.368Z</time>
      </trkpt>
      <trkpt lat="44.79553" lon="-1.13403">
        <ele>57.523612</ele>
        <time>2022-12-25T09:55:45.341Z</time>
      </trkpt>
      <trkpt lat="44.79549" lon="-1.13389">
        <ele>57.452345</ele>
        <time>2022-12-25T09:55:49.340Z</time>
      </trkpt>
      <trkpt lat="44.79541" lon="-1.13381">
        <ele>57.387553</ele>
        <time>2022-12-25T09:55:53.344Z</time>
      </trkpt>
      <trkpt lat="44.7953" lon="-1.13381">
        <ele>57.31096</ele>
        <time>2022-12-25T09:55:57.348Z</time>
      </trkpt>
      <trkpt lat="44.7952" lon="-1.13384">
        <ele>57.246506</ele>
        <time>2022-12-25T09:56:00.342Z</time>
      </trkpt>
      <trkpt lat="44.79511" lon="-1.13385">
        <ele>57.18505</ele>
        <time>2022-12-25T09:56:03.345Z</time>
      </trkpt>
      <trkpt lat="44.79503" lon="-1.13378">
        <ele>57.124696</ele>
        <time>2022-12-25T09:56:07.360Z</time>
      </trkpt>
      <trkpt lat="44.79501" lon="-1.13364">
        <ele>57.073225</ele>
        <time>2022-12-25T09:56:11.347Z</time>
      </trkpt>
      <trkpt lat="44.79499" lon="-1.13349">
        <ele>57.241888</ele>
        <time>2022-12-25T09:56:15.359Z</time>
      </trkpt>
      <trkpt lat="44.79496" lon="-1.13336">
        <ele>57.391263</ele>
        <time>2022-12-25T09:56:19.364Z</time>
      </trkpt>
      <trkpt lat="44.79487" lon="-1.13335">
        <ele>57.534534</ele>
        <time>2022-12-25T09:56:23.346Z</time>
      </trkpt>
      <trkpt lat="44.79486" lon="-1.13336">
        <ele>57.553668</ele>
        <time>2022-12-25T09:56:32.871Z</time>
      </trkpt>
      <trkpt lat="44.79462" lon="-1.13339">
        <ele>57.926524</ele>
        <time>2022-12-25T09:59:39.359Z</time>
      </trkpt>
      <trkpt lat="44.79452" lon="-1.13342">
        <ele>58.090234</ele>
        <time>2022-12-25T09:59:43.361Z</time>
      </trkpt>
      <trkpt lat="44.7944" lon="-1.13344">
        <ele>58.268634</ele>
        <time>2022-12-25T09:59:47.355Z</time>
      </trkpt>
      <trkpt lat="44.79428" lon="-1.13346">
        <ele>58.454134</ele>
        <time>2022-12-25T09:59:51.343Z</time>
      </trkpt>
      <trkpt lat="44.79419" lon="-1.13348">
        <ele>58.600927</ele>
        <time>2022-12-25T09:59:54.363Z</time>
      </trkpt>
      <trkpt lat="44.79409" lon="-1.13349">
        <ele>58.764807</ele>
        <time>2022-12-25T09:59:57.356Z</time>
      </trkpt>
      <trkpt lat="44.79398" lon="-1.13352">
        <ele>58.929314</ele>
        <time>2022-12-25T10:00:00.366Z</time>
      </trkpt>
      <trkpt lat="44.79387" lon="-1.13355">
        <ele>59.101439</ele>
        <time>2022-12-25T10:00:03.363Z</time>
      </trkpt>
      <trkpt lat="44.79376" lon="-1.13358">
        <ele>59.272462</ele>
        <time>2022-12-25T10:00:06.367Z</time>
      </trkpt>
      <trkpt lat="44.79365" lon="-1.13359">
        <ele>59.445968</ele>
        <time>2022-12-25T10:00:09.362Z</time>
      </trkpt>
      <trkpt lat="44.79354" lon="-1.13363">
        <ele>59.620256</ele>
        <time>2022-12-25T10:00:12.347Z</time>
      </trkpt>
      <trkpt lat="44.79343" lon="-1.13364">
        <ele>59.79055</ele>
        <time>2022-12-25T10:00:15.367Z</time>
      </trkpt>
      <trkpt lat="44.79331" lon="-1.13367">
        <ele>59.83656</ele>
        <time>2022-12-25T10:00:18.364Z</time>
      </trkpt>
      <trkpt lat="44.7932" lon="-1.13369">
        <ele>59.811779</ele>
        <time>2022-12-25T10:00:21.347Z</time>
      </trkpt>
      <trkpt lat="44.79308" lon="-1.13372">
        <ele>59.784872</ele>
        <time>2022-12-25T10:00:24.345Z</time>
      </trkpt>
      <trkpt lat="44.79295" lon="-1.13375">
        <ele>59.757824</ele>
        <time>2022-12-25T10:00:27.374Z</time>
      </trkpt>
      <trkpt lat="44.79283" lon="-1.13378">
        <ele>59.731021</ele>
        <time>2022-12-25T10:00:30.371Z</time>
      </trkpt>
      <trkpt lat="44.79271" lon="-1.13381">
        <ele>59.704613</ele>
        <time>2022-12-25T10:00:33.350Z</time>
      </trkpt>
      <trkpt lat="44.79259" lon="-1.13384">
        <ele>59.677968</ele>
        <time>2022-12-25T10:00:36.358Z</time>
      </trkpt>
      <trkpt lat="44.79247" lon="-1.13386">
        <ele>59.65092</ele>
        <time>2022-12-25T10:00:39.364Z</time>
      </trkpt>
      <trkpt lat="44.79234" lon="-1.13389">
        <ele>59.624556</ele>
        <time>2022-12-25T10:00:42.375Z</time>
      </trkpt>
      <trkpt lat="44.79224" lon="-1.13392">
        <ele>59.602043</ele>
        <time>2022-12-25T10:00:45.373Z</time>
      </trkpt>
      <trkpt lat="44.79214" lon="-1.13393">
        <ele>59.580187</ele>
        <time>2022-12-25T10:00:48.353Z</time>
      </trkpt>
      <trkpt lat="44.79203" lon="-1.13396">
        <ele>59.55583</ele>
        <time>2022-12-25T10:00:51.348Z</time>
      </trkpt>
      <trkpt lat="44.79191" lon="-1.13398">
        <ele>59.529209</ele>
        <time>2022-12-25T10:00:54.367Z</time>
      </trkpt>
      <trkpt lat="44.79178" lon="-1.13401">
        <ele>59.501562</ele>
        <time>2022-12-25T10:00:57.365Z</time>
      </trkpt>
      <trkpt lat="44.79166" lon="-1.13404">
        <ele>59.473992</ele>
        <time>2022-12-25T10:01:00.359Z</time>
      </trkpt>
      <trkpt lat="44.79153" lon="-1.13406">
        <ele>59.581561</ele>
        <time>2022-12-25T10:01:03.374Z</time>
      </trkpt>
      <trkpt lat="44.79141" lon="-1.13409">
        <ele>59.752558</ele>
        <time>2022-12-25T10:01:06.356Z</time>
      </trkpt>
      <trkpt lat="44.79129" lon="-1.13412">
        <ele>59.927344</ele>
        <time>2022-12-25T10:01:09.375Z</time>
      </trkpt>
      <trkpt lat="44.79117" lon="-1.13414">
        <ele>60.091325</ele>
        <time>2022-12-25T10:01:12.345Z</time>
      </trkpt>
      <trkpt lat="44.79105" lon="-1.13416">
        <ele>60.262739</ele>
        <time>2022-12-25T10:01:15.346Z</time>
      </trkpt>
      <trkpt lat="44.79094" lon="-1.13418">
        <ele>60.417961</ele>
        <time>2022-12-25T10:01:18.371Z</time>
      </trkpt>
      <trkpt lat="44.79085" lon="-1.13419">
        <ele>60.54722</ele>
        <time>2022-12-25T10:01:21.357Z</time>
      </trkpt>
      <trkpt lat="44.79075" lon="-1.1342">
        <ele>60.684166</ele>
        <time>2022-12-25T10:01:24.371Z</time>
      </trkpt>
      <trkpt lat="44.79064" lon="-1.13424">
        <ele>60.840829</ele>
        <time>2022-12-25T10:01:27.377Z</time>
      </trkpt>
      <trkpt lat="44.79052" lon="-1.13427">
        <ele>61.01341</ele>
        <time>2022-12-25T10:01:30.366Z</time>
      </trkpt>
      <trkpt lat="44.79039" lon="-1.1343">
        <ele>61.194184</ele>
        <time>2022-12-25T10:01:33.379Z</time>
      </trkpt>
      <trkpt lat="44.79026" lon="-1.13433">
        <ele>61.367948</ele>
        <time>2022-12-25T10:01:36.361Z</time>
      </trkpt>
      <trkpt lat="44.79014" lon="-1.13435">
        <ele>61.542609</ele>
        <time>2022-12-25T10:01:39.365Z</time>
      </trkpt>
      <trkpt lat="44.79001" lon="-1.13438">
        <ele>61.721039</ele>
        <time>2022-12-25T10:01:42.368Z</time>
      </trkpt>
      <trkpt lat="44.78988" lon="-1.13441">
        <ele>61.902838</ele>
        <time>2022-12-25T10:01:45.378Z</time>
      </trkpt>
      <trkpt lat="44.78976" lon="-1.13444">
        <ele>61.934964</ele>
        <time>2022-12-25T10:01:48.363Z</time>
      </trkpt>
      <trkpt lat="44.78962" lon="-1.13447">
        <ele>61.888995</ele>
        <time>2022-12-25T10:01:51.364Z</time>
      </trkpt>
      <trkpt lat="44.78949" lon="-1.1345">
        <ele>61.842611</ele>
        <time>2022-12-25T10:01:54.363Z</time>
      </trkpt>
      <trkpt lat="44.78936" lon="-1.13453">
        <ele>61.796906</ele>
        <time>2022-12-25T10:01:57.364Z</time>
      </trkpt>
      <trkpt lat="44.78927" lon="-1.13455">
        <ele>61.764811</ele>
        <time>2022-12-25T10:01:59.365Z</time>
      </trkpt>
      <trkpt lat="44.78918" lon="-1.13457">
        <ele>61.733435</ele>
        <time>2022-12-25T10:02:01.363Z</time>
      </trkpt>
      <trkpt lat="44.78908" lon="-1.13459">
        <ele>61.70096</ele>
        <time>2022-12-25T10:02:03.373Z</time>
      </trkpt>
      <trkpt lat="44.78899" lon="-1.13461">
        <ele>61.668599</ele>
        <time>2022-12-25T10:02:05.374Z</time>
      </trkpt>
      <trkpt lat="44.7889" lon="-1.13463">
        <ele>61.636882</ele>
        <time>2022-12-25T10:02:07.375Z</time>
      </trkpt>
      <trkpt lat="44.78881" lon="-1.13464">
        <ele>61.60496</ele>
        <time>2022-12-25T10:02:09.375Z</time>
      </trkpt>
      <trkpt lat="44.78872" lon="-1.13466">
        <ele>61.573583</ele>
        <time>2022-12-25T10:02:11.363Z</time>
      </trkpt>
      <trkpt lat="44.78862" lon="-1.13469">
        <ele>61.540429</ele>
        <time>2022-12-25T10:02:13.355Z</time>
      </trkpt>
      <trkpt lat="44.78849" lon="-1.13471">
        <ele>61.493098</ele>
        <time>2022-12-25T10:02:16.365Z</time>
      </trkpt>
      <trkpt lat="44.7884" lon="-1.13474">
        <ele>61.461797</ele>
        <time>2022-12-25T10:02:18.366Z</time>
      </trkpt>
      <trkpt lat="44.78831" lon="-1.13476">
        <ele>61.429874</ele>
        <time>2022-12-25T10:02:20.358Z</time>
      </trkpt>
      <trkpt lat="44.78822" lon="-1.13477">
        <ele>61.398262</ele>
        <time>2022-12-25T10:02:22.367Z</time>
      </trkpt>
      <trkpt lat="44.78812" lon="-1.1348">
        <ele>61.366424</ele>
        <time>2022-12-25T10:02:24.365Z</time>
      </trkpt>
      <trkpt lat="44.788" lon="-1.13481">
        <ele>61.275999</ele>
        <time>2022-12-25T10:02:27.361Z</time>
      </trkpt>
      <trkpt lat="44.78787" lon="-1.13485">
        <ele>61.140676</ele>
        <time>2022-12-25T10:02:30.363Z</time>
      </trkpt>
      <trkpt lat="44.78774" lon="-1.13487">
        <ele>61.010384</ele>
        <time>2022-12-25T10:02:33.356Z</time>
      </trkpt>
      <trkpt lat="44.78763" lon="-1.1349">
        <ele>60.894154</ele>
        <time>2022-12-25T10:02:36.370Z</time>
      </trkpt>
      <trkpt lat="44.78754" lon="-1.13492">
        <ele>60.794373</ele>
        <time>2022-12-25T10:02:39.358Z</time>
      </trkpt>
      <trkpt lat="44.78744" lon="-1.13493">
        <ele>60.695017</ele>
        <time>2022-12-25T10:02:42.362Z</time>
      </trkpt>
      <trkpt lat="44.78734" lon="-1.13495">
        <ele>60.582113</ele>
        <time>2022-12-25T10:02:45.363Z</time>
      </trkpt>
      <trkpt lat="44.78722" lon="-1.13498">
        <ele>60.459209</ele>
        <time>2022-12-25T10:02:48.373Z</time>
      </trkpt>
      <trkpt lat="44.78711" lon="-1.13501">
        <ele>60.337596</ele>
        <time>2022-12-25T10:02:51.372Z</time>
      </trkpt>
      <trkpt lat="44.78698" lon="-1.13503">
        <ele>60.209905</ele>
        <time>2022-12-25T10:02:54.365Z</time>
      </trkpt>
      <trkpt lat="44.78686" lon="-1.13505">
        <ele>60.080744</ele>
        <time>2022-12-25T10:02:57.349Z</time>
      </trkpt>
      <trkpt lat="44.78674" lon="-1.13509">
        <ele>59.950542</ele>
        <time>2022-12-25T10:03:00.351Z</time>
      </trkpt>
      <trkpt lat="44.78662" lon="-1.13511">
        <ele>59.825508</ele>
        <time>2022-12-25T10:03:03.373Z</time>
      </trkpt>
      <trkpt lat="44.7865" lon="-1.13514">
        <ele>59.704023</ele>
        <time>2022-12-25T10:03:06.354Z</time>
      </trkpt>
      <trkpt lat="44.78638" lon="-1.13515">
        <ele>59.577514</ele>
        <time>2022-12-25T10:03:09.370Z</time>
      </trkpt>
      <trkpt lat="44.78626" lon="-1.13518">
        <ele>59.477597</ele>
        <time>2022-12-25T10:03:12.363Z</time>
      </trkpt>
      <trkpt lat="44.78614" lon="-1.13521">
        <ele>59.504668</ele>
        <time>2022-12-25T10:03:15.372Z</time>
      </trkpt>
      <trkpt lat="44.78601" lon="-1.13523">
        <ele>59.531461</ele>
        <time>2022-12-25T10:03:18.371Z</time>
      </trkpt>
      <trkpt lat="44.78589" lon="-1.13526">
        <ele>59.557633</ele>
        <time>2022-12-25T10:03:21.373Z</time>
      </trkpt>
      <trkpt lat="44.78578" lon="-1.13529">
        <ele>59.583711</ele>
        <time>2022-12-25T10:03:24.364Z</time>
      </trkpt>
      <trkpt lat="44.78567" lon="-1.13531">
        <ele>59.607582</ele>
        <time>2022-12-25T10:03:27.366Z</time>
      </trkpt>
      <trkpt lat="44.78555" lon="-1.13534">
        <ele>59.632384</ele>
        <time>2022-12-25T10:03:30.366Z</time>
      </trkpt>
      <trkpt lat="44.78543" lon="-1.13537">
        <ele>59.658815</ele>
        <time>2022-12-25T10:03:33.372Z</time>
      </trkpt>
      <trkpt lat="44.78531" lon="-1.13539">
        <ele>59.685885</ele>
        <time>2022-12-25T10:03:36.371Z</time>
      </trkpt>
      <trkpt lat="44.78518" lon="-1.13542">
        <ele>59.713505</ele>
        <time>2022-12-25T10:03:39.377Z</time>
      </trkpt>
      <trkpt lat="44.78506" lon="-1.13544">
        <ele>59.740885</ele>
        <time>2022-12-25T10:03:42.356Z</time>
      </trkpt>
      <trkpt lat="44.78495" lon="-1.13546">
        <ele>59.763296</ele>
        <time>2022-12-25T10:03:45.367Z</time>
      </trkpt>
      <trkpt lat="44.78486" lon="-1.13548">
        <ele>59.783184</ele>
        <time>2022-12-25T10:03:48.365Z</time>
      </trkpt>
      <trkpt lat="44.78476" lon="-1.1355">
        <ele>59.804973</ele>
        <time>2022-12-25T10:03:51.373Z</time>
      </trkpt>
      <trkpt lat="44.78465" lon="-1.13552">
        <ele>59.830076</ele>
        <time>2022-12-25T10:03:54.353Z</time>
      </trkpt>
      <trkpt lat="44.78453" lon="-1.13556">
        <ele>59.856633</ele>
        <time>2022-12-25T10:03:57.376Z</time>
      </trkpt>
      <trkpt lat="44.7844" lon="-1.13558">
        <ele>59.71908</ele>
        <time>2022-12-25T10:04:00.370Z</time>
      </trkpt>
      <trkpt lat="44.78427" lon="-1.13561">
        <ele>59.549689</ele>
        <time>2022-12-25T10:04:03.372Z</time>
      </trkpt>
      <trkpt lat="44.78414" lon="-1.13563">
        <ele>59.381714</ele>
        <time>2022-12-25T10:04:06.364Z</time>
      </trkpt>
      <trkpt lat="44.78401" lon="-1.13567">
        <ele>59.211288</ele>
        <time>2022-12-25T10:04:09.363Z</time>
      </trkpt>
      <trkpt lat="44.78388" lon="-1.13569">
        <ele>59.036873</ele>
        <time>2022-12-25T10:04:12.365Z</time>
      </trkpt>
      <trkpt lat="44.78375" lon="-1.13572">
        <ele>58.8645</ele>
        <time>2022-12-25T10:04:15.344Z</time>
      </trkpt>
      <trkpt lat="44.78362" lon="-1.13575">
        <ele>58.69369</ele>
        <time>2022-12-25T10:04:18.353Z</time>
      </trkpt>
      <trkpt lat="44.78349" lon="-1.13578">
        <ele>58.522743</ele>
        <time>2022-12-25T10:04:21.361Z</time>
      </trkpt>
      <trkpt lat="44.78337" lon="-1.13581">
        <ele>58.36048</ele>
        <time>2022-12-25T10:04:24.364Z</time>
      </trkpt>
      <trkpt lat="44.78324" lon="-1.13583">
        <ele>58.198666</ele>
        <time>2022-12-25T10:04:27.363Z</time>
      </trkpt>
      <trkpt lat="44.78312" lon="-1.13586">
        <ele>58.038413</ele>
        <time>2022-12-25T10:04:30.375Z</time>
      </trkpt>
      <trkpt lat="44.78299" lon="-1.13588">
        <ele>57.865406</ele>
        <time>2022-12-25T10:04:33.374Z</time>
      </trkpt>
      <trkpt lat="44.7829" lon="-1.1359">
        <ele>57.748106</ele>
        <time>2022-12-25T10:04:35.359Z</time>
      </trkpt>
      <trkpt lat="44.78277" lon="-1.13593">
        <ele>57.580001</ele>
        <time>2022-12-25T10:04:38.368Z</time>
      </trkpt>
      <trkpt lat="44.78264" lon="-1.13596">
        <ele>57.581653</ele>
        <time>2022-12-25T10:04:41.347Z</time>
      </trkpt>
      <trkpt lat="44.78251" lon="-1.13599">
        <ele>57.672684</ele>
        <time>2022-12-25T10:04:44.364Z</time>
      </trkpt>
      <trkpt lat="44.78238" lon="-1.13602">
        <ele>57.763782</ele>
        <time>2022-12-25T10:04:47.362Z</time>
      </trkpt>
      <trkpt lat="44.78225" lon="-1.13604">
        <ele>57.84998</ele>
        <time>2022-12-25T10:04:50.364Z</time>
      </trkpt>
      <trkpt lat="44.78212" lon="-1.13607">
        <ele>57.940115</ele>
        <time>2022-12-25T10:04:53.371Z</time>
      </trkpt>
      <trkpt lat="44.782" lon="-1.13611">
        <ele>58.024335</ele>
        <time>2022-12-25T10:04:56.362Z</time>
      </trkpt>
      <trkpt lat="44.78189" lon="-1.13613">
        <ele>58.097644</ele>
        <time>2022-12-25T10:04:59.374Z</time>
      </trkpt>
      <trkpt lat="44.78179" lon="-1.13614">
        <ele>58.166446</ele>
        <time>2022-12-25T10:05:02.364Z</time>
      </trkpt>
      <trkpt lat="44.78168" lon="-1.13617">
        <ele>58.244663</ele>
        <time>2022-12-25T10:05:05.376Z</time>
      </trkpt>
      <trkpt lat="44.78156" lon="-1.13619">
        <ele>58.325237</ele>
        <time>2022-12-25T10:05:08.377Z</time>
      </trkpt>
      <trkpt lat="44.78143" lon="-1.13622">
        <ele>58.411121</ele>
        <time>2022-12-25T10:05:11.367Z</time>
      </trkpt>
      <trkpt lat="44.78131" lon="-1.13624">
        <ele>58.498865</ele>
        <time>2022-12-25T10:05:14.369Z</time>
      </trkpt>
      <trkpt lat="44.78118" lon="-1.13627">
        <ele>58.582984</ele>
        <time>2022-12-25T10:05:17.378Z</time>
      </trkpt>
      <trkpt lat="44.78106" lon="-1.1363">
        <ele>58.670365</ele>
        <time>2022-12-25T10:05:20.365Z</time>
      </trkpt>
      <trkpt lat="44.78093" lon="-1.13632">
        <ele>58.734315</ele>
        <time>2022-12-25T10:05:23.368Z</time>
      </trkpt>
      <trkpt lat="44.78079" lon="-1.13635">
        <ele>58.689045</ele>
        <time>2022-12-25T10:05:26.367Z</time>
      </trkpt>
      <trkpt lat="44.78066" lon="-1.13637">
        <ele>58.64481</ele>
        <time>2022-12-25T10:05:29.358Z</time>
      </trkpt>
      <trkpt lat="44.78057" lon="-1.1364">
        <ele>58.613995</ele>
        <time>2022-12-25T10:05:31.364Z</time>
      </trkpt>
      <trkpt lat="44.78044" lon="-1.13642">
        <ele>58.570246</ele>
        <time>2022-12-25T10:05:34.368Z</time>
      </trkpt>
      <trkpt lat="44.78031" lon="-1.13645">
        <ele>58.524664</ele>
        <time>2022-12-25T10:05:37.370Z</time>
      </trkpt>
      <trkpt lat="44.78018" lon="-1.13647">
        <ele>58.479884</ele>
        <time>2022-12-25T10:05:40.363Z</time>
      </trkpt>
      <trkpt lat="44.78005" lon="-1.13651">
        <ele>58.43675</ele>
        <time>2022-12-25T10:05:43.371Z</time>
      </trkpt>
      <trkpt lat="44.77993" lon="-1.13653">
        <ele>58.39555</ele>
        <time>2022-12-25T10:05:46.374Z</time>
      </trkpt>
      <trkpt lat="44.77982" lon="-1.13656">
        <ele>58.356349</ele>
        <time>2022-12-25T10:05:49.375Z</time>
      </trkpt>
      <trkpt lat="44.77971" lon="-1.13658">
        <ele>58.320844</ele>
        <time>2022-12-25T10:05:52.363Z</time>
      </trkpt>
      <trkpt lat="44.77962" lon="-1.1366">
        <ele>58.287997</ele>
        <time>2022-12-25T10:05:55.361Z</time>
      </trkpt>
      <trkpt lat="44.7795" lon="-1.13663">
        <ele>58.248264</ele>
        <time>2022-12-25T10:05:59.375Z</time>
      </trkpt>
      <trkpt lat="44.7794" lon="-1.13665">
        <ele>58.215028</ele>
        <time>2022-12-25T10:06:02.374Z</time>
      </trkpt>
      <trkpt lat="44.77931" lon="-1.13667">
        <ele>58.184626</ele>
        <time>2022-12-25T10:06:05.350Z</time>
      </trkpt>
      <trkpt lat="44.7792" lon="-1.13669">
        <ele>58.147395</ele>
        <time>2022-12-25T10:06:08.365Z</time>
      </trkpt>
      <trkpt lat="44.77911" lon="-1.13671">
        <ele>58.114656</ele>
        <time>2022-12-25T10:06:11.375Z</time>
      </trkpt>
      <trkpt lat="44.779" lon="-1.13673">
        <ele>58.077534</ele>
        <time>2022-12-25T10:06:15.371Z</time>
      </trkpt>
      <trkpt lat="44.77891" lon="-1.13675">
        <ele>58.04676</ele>
        <time>2022-12-25T10:06:18.347Z</time>
      </trkpt>
      <trkpt lat="44.77881" lon="-1.13677">
        <ele>58.010585</ele>
        <time>2022-12-25T10:06:21.363Z</time>
      </trkpt>
      <trkpt lat="44.77869" lon="-1.13679">
        <ele>57.970456</ele>
        <time>2022-12-25T10:06:24.367Z</time>
      </trkpt>
      <trkpt lat="44.77857" lon="-1.13682">
        <ele>57.928563</ele>
        <time>2022-12-25T10:06:27.372Z</time>
      </trkpt>
      <trkpt lat="44.77845" lon="-1.13685">
        <ele>57.885878</ele>
        <time>2022-12-25T10:06:30.376Z</time>
      </trkpt>
      <trkpt lat="44.77832" lon="-1.13687">
        <ele>57.842083</ele>
        <time>2022-12-25T10:06:33.345Z</time>
      </trkpt>
      <trkpt lat="44.77819" lon="-1.13689">
        <ele>57.798396</ele>
        <time>2022-12-25T10:06:36.347Z</time>
      </trkpt>
      <trkpt lat="44.77807" lon="-1.13691">
        <ele>57.75481</ele>
        <time>2022-12-25T10:06:39.367Z</time>
      </trkpt>
      <trkpt lat="44.77795" lon="-1.13695">
        <ele>57.711908</ele>
        <time>2022-12-25T10:06:42.373Z</time>
      </trkpt>
      <trkpt lat="44.77782" lon="-1.13697">
        <ele>57.668287</ele>
        <time>2022-12-25T10:06:45.345Z</time>
      </trkpt>
      <trkpt lat="44.77769" lon="-1.137">
        <ele>57.623914</ele>
        <time>2022-12-25T10:06:48.345Z</time>
      </trkpt>
      <trkpt lat="44.77756" lon="-1.13703">
        <ele>57.578599</ele>
        <time>2022-12-25T10:06:51.361Z</time>
      </trkpt>
      <trkpt lat="44.77744" lon="-1.13706">
        <ele>57.536506</ele>
        <time>2022-12-25T10:06:54.356Z</time>
      </trkpt>
      <trkpt lat="44.77733" lon="-1.13708">
        <ele>57.518588</ele>
        <time>2022-12-25T10:06:57.351Z</time>
      </trkpt>
      <trkpt lat="44.77722" lon="-1.1371">
        <ele>57.514996</ele>
        <time>2022-12-25T10:07:00.365Z</time>
      </trkpt>
      <trkpt lat="44.77712" lon="-1.13712">
        <ele>57.511468</ele>
        <time>2022-12-25T10:07:03.368Z</time>
      </trkpt>
      <trkpt lat="44.77703" lon="-1.13715">
        <ele>57.508276</ele>
        <time>2022-12-25T10:07:06.371Z</time>
      </trkpt>
      <trkpt lat="44.77693" lon="-1.13718">
        <ele>57.504633</ele>
        <time>2022-12-25T10:07:10.366Z</time>
      </trkpt>
      <trkpt lat="44.77683" lon="-1.13721">
        <ele>57.501156</ele>
        <time>2022-12-25T10:07:14.368Z</time>
      </trkpt>
      <trkpt lat="44.77673" lon="-1.13721">
        <ele>57.497892</ele>
        <time>2022-12-25T10:07:17.351Z</time>
      </trkpt>
      <trkpt lat="44.77662" lon="-1.13722">
        <ele>57.49404</ele>
        <time>2022-12-25T10:07:20.406Z</time>
      </trkpt>
      <trkpt lat="44.77649" lon="-1.13725">
        <ele>57.489704</ele>
        <time>2022-12-25T10:07:23.366Z</time>
      </trkpt>
      <trkpt lat="44.77636" lon="-1.13728">
        <ele>57.485278</ele>
        <time>2022-12-25T10:07:26.378Z</time>
      </trkpt>
      <trkpt lat="44.77623" lon="-1.13729">
        <ele>57.480808</ele>
        <time>2022-12-25T10:07:29.373Z</time>
      </trkpt>
      <trkpt lat="44.7761" lon="-1.13731">
        <ele>57.476243</ele>
        <time>2022-12-25T10:07:32.347Z</time>
      </trkpt>
      <trkpt lat="44.776" lon="-1.13732">
        <ele>57.473107</ele>
        <time>2022-12-25T10:07:34.364Z</time>
      </trkpt>
      <trkpt lat="44.77591" lon="-1.13733">
        <ele>57.470005</ele>
        <time>2022-12-25T10:07:36.365Z</time>
      </trkpt>
      <trkpt lat="44.77578" lon="-1.13734">
        <ele>57.465385</ele>
        <time>2022-12-25T10:07:39.373Z</time>
      </trkpt>
      <trkpt lat="44.77569" lon="-1.13734">
        <ele>57.462292</ele>
        <time>2022-12-25T10:07:41.375Z</time>
      </trkpt>
      <trkpt lat="44.7756" lon="-1.13735">
        <ele>57.439963</ele>
        <time>2022-12-25T10:07:43.362Z</time>
      </trkpt>
      <trkpt lat="44.77546" lon="-1.13735">
        <ele>57.265145</ele>
        <time>2022-12-25T10:07:46.375Z</time>
      </trkpt>
      <trkpt lat="44.77533" lon="-1.13735">
        <ele>57.091699</ele>
        <time>2022-12-25T10:07:49.354Z</time>
      </trkpt>
      <trkpt lat="44.77524" lon="-1.13735">
        <ele>56.973886</ele>
        <time>2022-12-25T10:07:51.362Z</time>
      </trkpt>
      <trkpt lat="44.77514" lon="-1.13734">
        <ele>56.85339</ele>
        <time>2022-12-25T10:07:53.368Z</time>
      </trkpt>
      <trkpt lat="44.77504" lon="-1.13734">
        <ele>56.721167</ele>
        <time>2022-12-25T10:07:55.353Z</time>
      </trkpt>
      <trkpt lat="44.77494" lon="-1.13733">
        <ele>56.594162</ele>
        <time>2022-12-25T10:07:57.364Z</time>
      </trkpt>
      <trkpt lat="44.77484" lon="-1.13732">
        <ele>56.467201</ele>
        <time>2022-12-25T10:07:59.365Z</time>
      </trkpt>
      <trkpt lat="44.77475" lon="-1.13731">
        <ele>56.342284</ele>
        <time>2022-12-25T10:08:01.362Z</time>
      </trkpt>
      <trkpt lat="44.77465" lon="-1.13729">
        <ele>56.211802</ele>
        <time>2022-12-25T10:08:03.376Z</time>
      </trkpt>
      <trkpt lat="44.77456" lon="-1.13728">
        <ele>56.09084</ele>
        <time>2022-12-25T10:08:05.349Z</time>
      </trkpt>
      <trkpt lat="44.77446" lon="-1.13726">
        <ele>55.966649</ele>
        <time>2022-12-25T10:08:07.364Z</time>
      </trkpt>
      <trkpt lat="44.77437" lon="-1.13725">
        <ele>55.848353</ele>
        <time>2022-12-25T10:08:09.371Z</time>
      </trkpt>
      <trkpt lat="44.77428" lon="-1.13722">
        <ele>55.725635</ele>
        <time>2022-12-25T10:08:11.372Z</time>
      </trkpt>
      <trkpt lat="44.77418" lon="-1.1372">
        <ele>55.59923</ele>
        <time>2022-12-25T10:08:13.373Z</time>
      </trkpt>
      <trkpt lat="44.77406" lon="-1.13717">
        <ele>55.438777</ele>
        <time>2022-12-25T10:08:16.364Z</time>
      </trkpt>
      <trkpt lat="44.77394" lon="-1.13714">
        <ele>55.287956</ele>
        <time>2022-12-25T10:08:19.368Z</time>
      </trkpt>
      <trkpt lat="44.77382" lon="-1.13711">
        <ele>55.124239</ele>
        <time>2022-12-25T10:08:22.372Z</time>
      </trkpt>
      <trkpt lat="44.77373" lon="-1.13708">
        <ele>55.030328</ele>
        <time>2022-12-25T10:08:24.359Z</time>
      </trkpt>
      <trkpt lat="44.7736" lon="-1.13704">
        <ele>54.896309</ele>
        <time>2022-12-25T10:08:27.373Z</time>
      </trkpt>
      <trkpt lat="44.77348" lon="-1.13698">
        <ele>54.762982</ele>
        <time>2022-12-25T10:08:30.367Z</time>
      </trkpt>
      <trkpt lat="44.77335" lon="-1.13694">
        <ele>54.629561</ele>
        <time>2022-12-25T10:08:33.374Z</time>
      </trkpt>
      <trkpt lat="44.77326" lon="-1.13689">
        <ele>54.536485</ele>
        <time>2022-12-25T10:08:35.368Z</time>
      </trkpt>
      <trkpt lat="44.77314" lon="-1.13685">
        <ele>54.401149</ele>
        <time>2022-12-25T10:08:38.367Z</time>
      </trkpt>
      <trkpt lat="44.77301" lon="-1.1368">
        <ele>54.270648</ele>
        <time>2022-12-25T10:08:41.351Z</time>
      </trkpt>
      <trkpt lat="44.77289" lon="-1.13674">
        <ele>54.138063</ele>
        <time>2022-12-25T10:08:44.369Z</time>
      </trkpt>
      <trkpt lat="44.77276" lon="-1.13668">
        <ele>54.002567</ele>
        <time>2022-12-25T10:08:47.366Z</time>
      </trkpt>
      <trkpt lat="44.77264" lon="-1.13661">
        <ele>53.868454</ele>
        <time>2022-12-25T10:08:50.364Z</time>
      </trkpt>
      <trkpt lat="44.77252" lon="-1.13654">
        <ele>53.731745</ele>
        <time>2022-12-25T10:08:53.377Z</time>
      </trkpt>
      <trkpt lat="44.77243" lon="-1.1365">
        <ele>53.634366</ele>
        <time>2022-12-25T10:08:55.365Z</time>
      </trkpt>
      <trkpt lat="44.77234" lon="-1.13646">
        <ele>53.541561</ele>
        <time>2022-12-25T10:08:57.370Z</time>
      </trkpt>
      <trkpt lat="44.77226" lon="-1.1364">
        <ele>53.445948</ele>
        <time>2022-12-25T10:08:59.358Z</time>
      </trkpt>
      <trkpt lat="44.77215" lon="-1.13632">
        <ele>53.318394</ele>
        <time>2022-12-25T10:09:02.382Z</time>
      </trkpt>
      <trkpt lat="44.77206" lon="-1.13627">
        <ele>53.323632</ele>
        <time>2022-12-25T10:09:04.344Z</time>
      </trkpt>
      <trkpt lat="44.77198" lon="-1.13622">
        <ele>53.364936</ele>
        <time>2022-12-25T10:09:06.369Z</time>
      </trkpt>
      <trkpt lat="44.77186" lon="-1.13614">
        <ele>53.424879</ele>
        <time>2022-12-25T10:09:09.365Z</time>
      </trkpt>
      <trkpt lat="44.77174" lon="-1.13606">
        <ele>53.48469</ele>
        <time>2022-12-25T10:09:12.350Z</time>
      </trkpt>
      <trkpt lat="44.77163" lon="-1.13598">
        <ele>53.543312</ele>
        <time>2022-12-25T10:09:15.365Z</time>
      </trkpt>
      <trkpt lat="44.77151" lon="-1.13588">
        <ele>53.603734</ele>
        <time>2022-12-25T10:09:18.364Z</time>
      </trkpt>
      <trkpt lat="44.77143" lon="-1.13583">
        <ele>53.645117</ele>
        <time>2022-12-25T10:09:20.366Z</time>
      </trkpt>
      <trkpt lat="44.77132" lon="-1.13573">
        <ele>53.706095</ele>
        <time>2022-12-25T10:09:23.355Z</time>
      </trkpt>
      <trkpt lat="44.7712" lon="-1.13563">
        <ele>53.76669</ele>
        <time>2022-12-25T10:09:26.373Z</time>
      </trkpt>
      <trkpt lat="44.77113" lon="-1.13556">
        <ele>53.808273</ele>
        <time>2022-12-25T10:09:28.365Z</time>
      </trkpt>
      <trkpt lat="44.77101" lon="-1.13545">
        <ele>53.870486</ele>
        <time>2022-12-25T10:09:31.358Z</time>
      </trkpt>
      <trkpt lat="44.77091" lon="-1.13535">
        <ele>53.931023</ele>
        <time>2022-12-25T10:09:34.347Z</time>
      </trkpt>
      <trkpt lat="44.7708" lon="-1.13525">
        <ele>53.990853</ele>
        <time>2022-12-25T10:09:37.344Z</time>
      </trkpt>
      <trkpt lat="44.7707" lon="-1.13515">
        <ele>54.045625</ele>
        <time>2022-12-25T10:09:40.353Z</time>
      </trkpt>
      <trkpt lat="44.77061" lon="-1.13506">
        <ele>54.095171</ele>
        <time>2022-12-25T10:09:43.360Z</time>
      </trkpt>
      <trkpt lat="44.77053" lon="-1.13498">
        <ele>54.080812</ele>
        <time>2022-12-25T10:09:46.343Z</time>
      </trkpt>
      <trkpt lat="44.77044" lon="-1.13489">
        <ele>54.019836</ele>
        <time>2022-12-25T10:09:50.347Z</time>
      </trkpt>
      <trkpt lat="44.77035" lon="-1.13483">
        <ele>53.966514</ele>
        <time>2022-12-25T10:09:54.349Z</time>
      </trkpt>
      <trkpt lat="44.77027" lon="-1.1347">
        <ele>53.90156</ele>
        <time>2022-12-25T10:09:59.361Z</time>
      </trkpt>
      <trkpt lat="44.7702" lon="-1.1346">
        <ele>53.846916</ele>
        <time>2022-12-25T10:10:02.353Z</time>
      </trkpt>
      <trkpt lat="44.77012" lon="-1.13449">
        <ele>53.785986</ele>
        <time>2022-12-25T10:10:05.367Z</time>
      </trkpt>
      <trkpt lat="44.77003" lon="-1.13437">
        <ele>53.722167</ele>
        <time>2022-12-25T10:10:08.364Z</time>
      </trkpt>
      <trkpt lat="44.76995" lon="-1.13426">
        <ele>53.658871</ele>
        <time>2022-12-25T10:10:11.390Z</time>
      </trkpt>
      <trkpt lat="44.76986" lon="-1.13414">
        <ele>53.592947</ele>
        <time>2022-12-25T10:10:14.364Z</time>
      </trkpt>
      <trkpt lat="44.76977" lon="-1.13403">
        <ele>53.5283</ele>
        <time>2022-12-25T10:10:17.374Z</time>
      </trkpt>
      <trkpt lat="44.76968" lon="-1.13391">
        <ele>53.463472</ele>
        <time>2022-12-25T10:10:20.364Z</time>
      </trkpt>
      <trkpt lat="44.76961" lon="-1.13378">
        <ele>53.398977</ele>
        <time>2022-12-25T10:10:23.368Z</time>
      </trkpt>
      <trkpt lat="44.76953" lon="-1.13368">
        <ele>53.340138</ele>
        <time>2022-12-25T10:10:26.364Z</time>
      </trkpt>
      <trkpt lat="44.76946" lon="-1.13357">
        <ele>53.286084</ele>
        <time>2022-12-25T10:10:29.374Z</time>
      </trkpt>
      <trkpt lat="44.7694" lon="-1.13348">
        <ele>53.236766</ele>
        <time>2022-12-25T10:10:32.351Z</time>
      </trkpt>
      <trkpt lat="44.76931" lon="-1.1334">
        <ele>53.183078</ele>
        <time>2022-12-25T10:10:36.346Z</time>
      </trkpt>
      <trkpt lat="44.76922" lon="-1.13334">
        <ele>53.080968</ele>
        <time>2022-12-25T10:10:41.353Z</time>
      </trkpt>
      <trkpt lat="44.76914" lon="-1.13324">
        <ele>52.834375</ele>
        <time>2022-12-25T10:10:45.351Z</time>
      </trkpt>
      <trkpt lat="44.76905" lon="-1.1332">
        <ele>52.623107</ele>
        <time>2022-12-25T10:10:48.355Z</time>
      </trkpt>
      <trkpt lat="44.76911" lon="-1.13308">
        <ele>52.384062</ele>
        <time>2022-12-25T10:10:57.357Z</time>
      </trkpt>
      <trkpt lat="44.7691" lon="-1.13295">
        <ele>52.163831</ele>
        <time>2022-12-25T10:11:02.350Z</time>
      </trkpt>
      <trkpt lat="44.76903" lon="-1.13284">
        <ele>51.920328</ele>
        <time>2022-12-25T10:11:06.355Z</time>
      </trkpt>
      <trkpt lat="44.76897" lon="-1.13269">
        <ele>51.645619</ele>
        <time>2022-12-25T10:11:10.362Z</time>
      </trkpt>
      <trkpt lat="44.76891" lon="-1.13258">
        <ele>51.407589</ele>
        <time>2022-12-25T10:11:13.362Z</time>
      </trkpt>
      <trkpt lat="44.76885" lon="-1.13246">
        <ele>51.161846</ele>
        <time>2022-12-25T10:11:16.346Z</time>
      </trkpt>
      <trkpt lat="44.76878" lon="-1.13233">
        <ele>50.898595</ele>
        <time>2022-12-25T10:11:19.357Z</time>
      </trkpt>
      <trkpt lat="44.76871" lon="-1.1322">
        <ele>50.631117</ele>
        <time>2022-12-25T10:11:22.371Z</time>
      </trkpt>
      <trkpt lat="44.76864" lon="-1.13207">
        <ele>50.363919</ele>
        <time>2022-12-25T10:11:25.351Z</time>
      </trkpt>
      <trkpt lat="44.76856" lon="-1.13194">
        <ele>50.080884</ele>
        <time>2022-12-25T10:11:28.369Z</time>
      </trkpt>
      <trkpt lat="44.76849" lon="-1.13183">
        <ele>49.836097</ele>
        <time>2022-12-25T10:11:31.379Z</time>
      </trkpt>
      <trkpt lat="44.76844" lon="-1.13172">
        <ele>49.615818</ele>
        <time>2022-12-25T10:11:34.348Z</time>
      </trkpt>
      <trkpt lat="44.76836" lon="-1.13162">
        <ele>49.376285</ele>
        <time>2022-12-25T10:11:37.348Z</time>
      </trkpt>
      <trkpt lat="44.76828" lon="-1.13151">
        <ele>49.115136</ele>
        <time>2022-12-25T10:11:40.364Z</time>
      </trkpt>
      <trkpt lat="44.7682" lon="-1.13139">
        <ele>49.198897</ele>
        <time>2022-12-25T10:11:43.350Z</time>
      </trkpt>
      <trkpt lat="44.76811" lon="-1.13127">
        <ele>49.678507</ele>
        <time>2022-12-25T10:11:46.357Z</time>
      </trkpt>
      <trkpt lat="44.76803" lon="-1.13116">
        <ele>50.135769</ele>
        <time>2022-12-25T10:11:49.373Z</time>
      </trkpt>
      <trkpt lat="44.76795" lon="-1.13103">
        <ele>50.641769</ele>
        <time>2022-12-25T10:11:52.367Z</time>
      </trkpt>
      <trkpt lat="44.76786" lon="-1.13089">
        <ele>51.168685</ele>
        <time>2022-12-25T10:11:55.370Z</time>
      </trkpt>
      <trkpt lat="44.76779" lon="-1.1308">
        <ele>51.562354</ele>
        <time>2022-12-25T10:11:57.378Z</time>
      </trkpt>
      <trkpt lat="44.76772" lon="-1.13071">
        <ele>51.941678</ele>
        <time>2022-12-25T10:11:59.375Z</time>
      </trkpt>
      <trkpt lat="44.76769" lon="-1.13066">
        <ele>52.136619</ele>
        <time>2022-12-25T10:12:10.838Z</time>
      </trkpt>
      <trkpt lat="44.76758" lon="-1.13053">
        <ele>52.707169</ele>
        <time>2022-12-25T10:20:06.354Z</time>
      </trkpt>
      <trkpt lat="44.76749" lon="-1.13043">
        <ele>53.193003</ele>
        <time>2022-12-25T10:20:10.360Z</time>
      </trkpt>
      <trkpt lat="44.76741" lon="-1.13034">
        <ele>53.594136</ele>
        <time>2022-12-25T10:20:13.367Z</time>
      </trkpt>
      <trkpt lat="44.76732" lon="-1.13026">
        <ele>54.014622</ele>
        <time>2022-12-25T10:20:16.346Z</time>
      </trkpt>
      <trkpt lat="44.76724" lon="-1.13016">
        <ele>54.462176</ele>
        <time>2022-12-25T10:20:19.365Z</time>
      </trkpt>
      <trkpt lat="44.76714" lon="-1.13006">
        <ele>54.942449</ele>
        <time>2022-12-25T10:20:22.361Z</time>
      </trkpt>
      <trkpt lat="44.76705" lon="-1.12996">
        <ele>55.41481</ele>
        <time>2022-12-25T10:20:25.365Z</time>
      </trkpt>
      <trkpt lat="44.76697" lon="-1.12984">
        <ele>55.895738</ele>
        <time>2022-12-25T10:20:28.365Z</time>
      </trkpt>
      <trkpt lat="44.76689" lon="-1.12972">
        <ele>56.210374</ele>
        <time>2022-12-25T10:20:31.366Z</time>
      </trkpt>
      <trkpt lat="44.76681" lon="-1.1296">
        <ele>56.020787</ele>
        <time>2022-12-25T10:20:34.362Z</time>
      </trkpt>
      <trkpt lat="44.76673" lon="-1.12947">
        <ele>55.828102</ele>
        <time>2022-12-25T10:20:37.366Z</time>
      </trkpt>
      <trkpt lat="44.76665" lon="-1.12935">
        <ele>55.634344</ele>
        <time>2022-12-25T10:20:40.375Z</time>
      </trkpt>
      <trkpt lat="44.76656" lon="-1.12922">
        <ele>55.428981</ele>
        <time>2022-12-25T10:20:43.376Z</time>
      </trkpt>
      <trkpt lat="44.76648" lon="-1.12908">
        <ele>55.216359</ele>
        <time>2022-12-25T10:20:46.365Z</time>
      </trkpt>
      <trkpt lat="44.76639" lon="-1.12895">
        <ele>55.010174</ele>
        <time>2022-12-25T10:20:49.368Z</time>
      </trkpt>
      <trkpt lat="44.7663" lon="-1.12883">
        <ele>54.819262</ele>
        <time>2022-12-25T10:20:52.356Z</time>
      </trkpt>
      <trkpt lat="44.76623" lon="-1.12872">
        <ele>54.641963</ele>
        <time>2022-12-25T10:20:55.367Z</time>
      </trkpt>
      <trkpt lat="44.76616" lon="-1.1286">
        <ele>54.4652</ele>
        <time>2022-12-25T10:20:58.373Z</time>
      </trkpt>
      <trkpt lat="44.76608" lon="-1.12849">
        <ele>54.2787</ele>
        <time>2022-12-25T10:21:01.368Z</time>
      </trkpt>
      <trkpt lat="44.766" lon="-1.12837">
        <ele>54.094449</ele>
        <time>2022-12-25T10:21:04.346Z</time>
      </trkpt>
      <trkpt lat="44.76592" lon="-1.12826">
        <ele>53.909077</ele>
        <time>2022-12-25T10:21:07.364Z</time>
      </trkpt>
      <trkpt lat="44.76583" lon="-1.12813">
        <ele>53.713731</ele>
        <time>2022-12-25T10:21:10.345Z</time>
      </trkpt>
      <trkpt lat="44.76575" lon="-1.128">
        <ele>53.505336</ele>
        <time>2022-12-25T10:21:13.355Z</time>
      </trkpt>
      <trkpt lat="44.76566" lon="-1.12787">
        <ele>53.36367</ele>
        <time>2022-12-25T10:21:16.367Z</time>
      </trkpt>
      <trkpt lat="44.76557" lon="-1.12774">
        <ele>53.431057</ele>
        <time>2022-12-25T10:21:19.357Z</time>
      </trkpt>
      <trkpt lat="44.76547" lon="-1.12761">
        <ele>53.498699</ele>
        <time>2022-12-25T10:21:22.368Z</time>
      </trkpt>
      <trkpt lat="44.76538" lon="-1.12748">
        <ele>53.564134</ele>
        <time>2022-12-25T10:21:25.354Z</time>
      </trkpt>
      <trkpt lat="44.76532" lon="-1.12738">
        <ele>53.610623</ele>
        <time>2022-12-25T10:21:27.375Z</time>
      </trkpt>
      <trkpt lat="44.76523" lon="-1.12726">
        <ele>53.675263</ele>
        <time>2022-12-25T10:21:30.365Z</time>
      </trkpt>
      <trkpt lat="44.76516" lon="-1.12714">
        <ele>53.732296</ele>
        <time>2022-12-25T10:21:33.369Z</time>
      </trkpt>
      <trkpt lat="44.76508" lon="-1.12702">
        <ele>53.791232</ele>
        <time>2022-12-25T10:21:36.367Z</time>
      </trkpt>
      <trkpt lat="44.765" lon="-1.12688">
        <ele>53.853925</ele>
        <time>2022-12-25T10:21:39.352Z</time>
      </trkpt>
      <trkpt lat="44.76492" lon="-1.12675">
        <ele>53.91839</ele>
        <time>2022-12-25T10:21:42.368Z</time>
      </trkpt>
      <trkpt lat="44.76483" lon="-1.12663">
        <ele>53.979089</ele>
        <time>2022-12-25T10:21:45.361Z</time>
      </trkpt>
      <trkpt lat="44.76476" lon="-1.12652">
        <ele>54.035496</ele>
        <time>2022-12-25T10:21:48.363Z</time>
      </trkpt>
      <trkpt lat="44.76468" lon="-1.1264">
        <ele>54.094621</ele>
        <time>2022-12-25T10:21:51.375Z</time>
      </trkpt>
      <trkpt lat="44.76459" lon="-1.12627">
        <ele>54.15742</ele>
        <time>2022-12-25T10:21:54.372Z</time>
      </trkpt>
      <trkpt lat="44.76451" lon="-1.12614">
        <ele>54.222585</ele>
        <time>2022-12-25T10:21:57.373Z</time>
      </trkpt>
      <trkpt lat="44.76442" lon="-1.12602">
        <ele>54.252943</ele>
        <time>2022-12-25T10:22:00.367Z</time>
      </trkpt>
      <trkpt lat="44.76434" lon="-1.12589">
        <ele>54.216093</ele>
        <time>2022-12-25T10:22:03.376Z</time>
      </trkpt>
      <trkpt lat="44.76426" lon="-1.12577">
        <ele>54.182534</ele>
        <time>2022-12-25T10:22:06.376Z</time>
      </trkpt>
      <trkpt lat="44.7642" lon="-1.12567">
        <ele>54.152757</ele>
        <time>2022-12-25T10:22:09.373Z</time>
      </trkpt>
      <trkpt lat="44.76411" lon="-1.12555">
        <ele>54.117148</ele>
        <time>2022-12-25T10:22:13.373Z</time>
      </trkpt>
      <trkpt lat="44.76403" lon="-1.12545">
        <ele>54.084997</ele>
        <time>2022-12-25T10:22:17.357Z</time>
      </trkpt>
      <trkpt lat="44.76396" lon="-1.12535">
        <ele>54.05409</ele>
        <time>2022-12-25T10:22:21.367Z</time>
      </trkpt>
      <trkpt lat="44.76389" lon="-1.12523">
        <ele>54.020684</ele>
        <time>2022-12-25T10:22:25.346Z</time>
      </trkpt>
      <trkpt lat="44.76384" lon="-1.12513">
        <ele>53.992934</ele>
        <time>2022-12-25T10:22:28.353Z</time>
      </trkpt>
      <trkpt lat="44.76377" lon="-1.12504">
        <ele>53.96432</ele>
        <time>2022-12-25T10:22:31.346Z</time>
      </trkpt>
      <trkpt lat="44.76371" lon="-1.12493">
        <ele>53.935899</ele>
        <time>2022-12-25T10:22:44.353Z</time>
      </trkpt>
      <trkpt lat="44.76364" lon="-1.12482">
        <ele>53.902686</ele>
        <time>2022-12-25T10:22:49.348Z</time>
      </trkpt>
      <trkpt lat="44.76357" lon="-1.12473">
        <ele>53.874661</ele>
        <time>2022-12-25T10:22:52.350Z</time>
      </trkpt>
      <trkpt lat="44.7635" lon="-1.12462">
        <ele>53.843392</ele>
        <time>2022-12-25T10:22:55.358Z</time>
      </trkpt>
      <trkpt lat="44.76342" lon="-1.1245">
        <ele>53.807906</ele>
        <time>2022-12-25T10:22:58.384Z</time>
      </trkpt>
      <trkpt lat="44.76334" lon="-1.12438">
        <ele>53.771957</ele>
        <time>2022-12-25T10:23:01.353Z</time>
      </trkpt>
      <trkpt lat="44.76325" lon="-1.12426">
        <ele>53.734795</ele>
        <time>2022-12-25T10:23:04.371Z</time>
      </trkpt>
      <trkpt lat="44.76316" lon="-1.12413">
        <ele>53.780246</ele>
        <time>2022-12-25T10:23:07.367Z</time>
      </trkpt>
      <trkpt lat="44.76308" lon="-1.12399">
        <ele>53.876833</ele>
        <time>2022-12-25T10:23:10.369Z</time>
      </trkpt>
      <trkpt lat="44.76299" lon="-1.12386">
        <ele>53.975184</ele>
        <time>2022-12-25T10:23:13.351Z</time>
      </trkpt>
      <trkpt lat="44.7629" lon="-1.12372">
        <ele>54.072462</ele>
        <time>2022-12-25T10:23:16.351Z</time>
      </trkpt>
      <trkpt lat="44.76283" lon="-1.12362">
        <ele>54.143349</ele>
        <time>2022-12-25T10:23:18.367Z</time>
      </trkpt>
      <trkpt lat="44.76277" lon="-1.12353">
        <ele>54.212204</ele>
        <time>2022-12-25T10:23:20.364Z</time>
      </trkpt>
      <trkpt lat="44.76267" lon="-1.1234">
        <ele>54.312805</ele>
        <time>2022-12-25T10:23:23.364Z</time>
      </trkpt>
      <trkpt lat="44.76258" lon="-1.12327">
        <ele>54.40668</ele>
        <time>2022-12-25T10:23:26.375Z</time>
      </trkpt>
      <trkpt lat="44.7625" lon="-1.12313">
        <ele>54.503111</ele>
        <time>2022-12-25T10:23:29.355Z</time>
      </trkpt>
      <trkpt lat="44.76241" lon="-1.123">
        <ele>54.597881</ele>
        <time>2022-12-25T10:23:32.354Z</time>
      </trkpt>
      <trkpt lat="44.76232" lon="-1.12286">
        <ele>54.695335</ele>
        <time>2022-12-25T10:23:35.357Z</time>
      </trkpt>
      <trkpt lat="44.76226" lon="-1.12276">
        <ele>54.76559</ele>
        <time>2022-12-25T10:23:37.367Z</time>
      </trkpt>
      <trkpt lat="44.7622" lon="-1.12267">
        <ele>54.833959</ele>
        <time>2022-12-25T10:23:39.374Z</time>
      </trkpt>
      <trkpt lat="44.76213" lon="-1.12257">
        <ele>54.904985</ele>
        <time>2022-12-25T10:23:41.356Z</time>
      </trkpt>
      <trkpt lat="44.76207" lon="-1.12248">
        <ele>54.973092</ele>
        <time>2022-12-25T10:23:43.370Z</time>
      </trkpt>
      <trkpt lat="44.76201" lon="-1.12238">
        <ele>55.040887</ele>
        <time>2022-12-25T10:23:45.372Z</time>
      </trkpt>
      <trkpt lat="44.76194" lon="-1.12229">
        <ele>55.073031</ele>
        <time>2022-12-25T10:23:47.370Z</time>
      </trkpt>
      <trkpt lat="44.76185" lon="-1.12216">
        <ele>55.10172</ele>
        <time>2022-12-25T10:23:50.361Z</time>
      </trkpt>
      <trkpt lat="44.76179" lon="-1.12207">
        <ele>55.121927</ele>
        <time>2022-12-25T10:23:52.370Z</time>
      </trkpt>
      <trkpt lat="44.76173" lon="-1.12197">
        <ele>55.142321</ele>
        <time>2022-12-25T10:23:54.369Z</time>
      </trkpt>
      <trkpt lat="44.76166" lon="-1.12188">
        <ele>55.162754</ele>
        <time>2022-12-25T10:23:56.346Z</time>
      </trkpt>
      <trkpt lat="44.7616" lon="-1.12178">
        <ele>55.184104</ele>
        <time>2022-12-25T10:23:58.350Z</time>
      </trkpt>
      <trkpt lat="44.76153" lon="-1.12168">
        <ele>55.205528</ele>
        <time>2022-12-25T10:24:00.373Z</time>
      </trkpt>
      <trkpt lat="44.76147" lon="-1.12159">
        <ele>55.225848</ele>
        <time>2022-12-25T10:24:02.358Z</time>
      </trkpt>
      <trkpt lat="44.7614" lon="-1.12149">
        <ele>55.246891</ele>
        <time>2022-12-25T10:24:04.354Z</time>
      </trkpt>
      <trkpt lat="44.76134" lon="-1.1214">
        <ele>55.268241</ele>
        <time>2022-12-25T10:24:06.365Z</time>
      </trkpt>
      <trkpt lat="44.76127" lon="-1.1213">
        <ele>55.289599</ele>
        <time>2022-12-25T10:24:08.383Z</time>
      </trkpt>
      <trkpt lat="44.76121" lon="-1.12119">
        <ele>55.311388</ele>
        <time>2022-12-25T10:24:10.363Z</time>
      </trkpt>
      <trkpt lat="44.76115" lon="-1.1211">
        <ele>55.33144</ele>
        <time>2022-12-25T10:24:12.373Z</time>
      </trkpt>
      <trkpt lat="44.76108" lon="-1.121">
        <ele>55.352833</ele>
        <time>2022-12-25T10:24:14.367Z</time>
      </trkpt>
      <trkpt lat="44.76098" lon="-1.12088">
        <ele>55.381668</ele>
        <time>2022-12-25T10:24:17.352Z</time>
      </trkpt>
      <trkpt lat="44.76089" lon="-1.12073">
        <ele>55.412053</ele>
        <time>2022-12-25T10:24:20.349Z</time>
      </trkpt>
      <trkpt lat="44.76083" lon="-1.12064">
        <ele>55.433004</ele>
        <time>2022-12-25T10:24:22.362Z</time>
      </trkpt>
      <trkpt lat="44.76076" lon="-1.12054">
        <ele>55.454333</ele>
        <time>2022-12-25T10:24:24.360Z</time>
      </trkpt>
      <trkpt lat="44.7607" lon="-1.12044">
        <ele>55.476656</ele>
        <time>2022-12-25T10:24:26.360Z</time>
      </trkpt>
      <trkpt lat="44.76063" lon="-1.12034">
        <ele>55.500234</ele>
        <time>2022-12-25T10:24:28.368Z</time>
      </trkpt>
      <trkpt lat="44.76057" lon="-1.12024">
        <ele>55.522716</ele>
        <time>2022-12-25T10:24:30.353Z</time>
      </trkpt>
      <trkpt lat="44.76051" lon="-1.12015">
        <ele>55.545128</ele>
        <time>2022-12-25T10:24:32.363Z</time>
      </trkpt>
      <trkpt lat="44.76043" lon="-1.12">
        <ele>55.576844</ele>
        <time>2022-12-25T10:24:35.357Z</time>
      </trkpt>
      <trkpt lat="44.76033" lon="-1.11986">
        <ele>55.610189</ele>
        <time>2022-12-25T10:24:38.368Z</time>
      </trkpt>
      <trkpt lat="44.76026" lon="-1.11976">
        <ele>55.634258</ele>
        <time>2022-12-25T10:24:40.357Z</time>
      </trkpt>
      <trkpt lat="44.76018" lon="-1.11964">
        <ele>55.663065</ele>
        <time>2022-12-25T10:24:43.362Z</time>
      </trkpt>
      <trkpt lat="44.76009" lon="-1.11951">
        <ele>55.693202</ele>
        <time>2022-12-25T10:24:46.375Z</time>
      </trkpt>
      <trkpt lat="44.76002" lon="-1.11939">
        <ele>55.721128</ele>
        <time>2022-12-25T10:24:49.377Z</time>
      </trkpt>
      <trkpt lat="44.75994" lon="-1.11926">
        <ele>55.749936</ele>
        <time>2022-12-25T10:24:52.358Z</time>
      </trkpt>
      <trkpt lat="44.75986" lon="-1.11914">
        <ele>55.778327</ele>
        <time>2022-12-25T10:24:55.367Z</time>
      </trkpt>
      <trkpt lat="44.75978" lon="-1.11902">
        <ele>55.807261</ele>
        <time>2022-12-25T10:24:58.348Z</time>
      </trkpt>
      <trkpt lat="44.75969" lon="-1.11888">
        <ele>55.838952</ele>
        <time>2022-12-25T10:25:01.366Z</time>
      </trkpt>
      <trkpt lat="44.75963" lon="-1.11879">
        <ele>55.860877</ele>
        <time>2022-12-25T10:25:03.372Z</time>
      </trkpt>
      <trkpt lat="44.75956" lon="-1.1187">
        <ele>55.882825</ele>
        <time>2022-12-25T10:25:05.375Z</time>
      </trkpt>
      <trkpt lat="44.75948" lon="-1.11858">
        <ele>55.812995</ele>
        <time>2022-12-25T10:25:08.359Z</time>
      </trkpt>
      <trkpt lat="44.7594" lon="-1.11847">
        <ele>55.707132</ele>
        <time>2022-12-25T10:25:11.355Z</time>
      </trkpt>
      <trkpt lat="44.75932" lon="-1.11834">
        <ele>55.586735</ele>
        <time>2022-12-25T10:25:14.377Z</time>
      </trkpt>
      <trkpt lat="44.75924" lon="-1.11821">
        <ele>55.467866</ele>
        <time>2022-12-25T10:25:17.373Z</time>
      </trkpt>
      <trkpt lat="44.75915" lon="-1.11809">
        <ele>55.348673</ele>
        <time>2022-12-25T10:25:20.374Z</time>
      </trkpt>
      <trkpt lat="44.75906" lon="-1.11796">
        <ele>55.219927</ele>
        <time>2022-12-25T10:25:23.362Z</time>
      </trkpt>
      <trkpt lat="44.75897" lon="-1.11783">
        <ele>55.097402</ele>
        <time>2022-12-25T10:25:26.364Z</time>
      </trkpt>
      <trkpt lat="44.75889" lon="-1.1177">
        <ele>54.975699</ele>
        <time>2022-12-25T10:25:29.374Z</time>
      </trkpt>
      <trkpt lat="44.7588" lon="-1.11758">
        <ele>54.857308</ele>
        <time>2022-12-25T10:25:32.352Z</time>
      </trkpt>
      <trkpt lat="44.75873" lon="-1.11747">
        <ele>54.759178</ele>
        <time>2022-12-25T10:25:41.349Z</time>
      </trkpt>
      <trkpt lat="44.75868" lon="-1.11737">
        <ele>54.670974</ele>
        <time>2022-12-25T10:25:46.347Z</time>
      </trkpt>
      <trkpt lat="44.7586" lon="-1.11725">
        <ele>54.561768</ele>
        <time>2022-12-25T10:25:50.366Z</time>
      </trkpt>
      <trkpt lat="44.75853" lon="-1.11715">
        <ele>54.464653</ele>
        <time>2022-12-25T10:25:53.347Z</time>
      </trkpt>
      <trkpt lat="44.75845" lon="-1.11704">
        <ele>54.360425</ele>
        <time>2022-12-25T10:25:56.358Z</time>
      </trkpt>
      <trkpt lat="44.75838" lon="-1.11693">
        <ele>54.249235</ele>
        <time>2022-12-25T10:25:59.363Z</time>
      </trkpt>
      <trkpt lat="44.75829" lon="-1.11681">
        <ele>54.140494</ele>
        <time>2022-12-25T10:26:02.347Z</time>
      </trkpt>
      <trkpt lat="44.75821" lon="-1.11668">
        <ele>54.083503</ele>
        <time>2022-12-25T10:26:05.376Z</time>
      </trkpt>
      <trkpt lat="44.75813" lon="-1.11658">
        <ele>54.031466</ele>
        <time>2022-12-25T10:26:08.368Z</time>
      </trkpt>
      <trkpt lat="44.75807" lon="-1.11648">
        <ele>53.986055</ele>
        <time>2022-12-25T10:26:11.358Z</time>
      </trkpt>
      <trkpt lat="44.75799" lon="-1.11637">
        <ele>53.935114</ele>
        <time>2022-12-25T10:26:14.367Z</time>
      </trkpt>
      <trkpt lat="44.75791" lon="-1.11626">
        <ele>53.882265</ele>
        <time>2022-12-25T10:26:17.364Z</time>
      </trkpt>
      <trkpt lat="44.75783" lon="-1.11613">
        <ele>53.824208</ele>
        <time>2022-12-25T10:26:20.375Z</time>
      </trkpt>
      <trkpt lat="44.75774" lon="-1.116">
        <ele>53.763618</ele>
        <time>2022-12-25T10:26:23.374Z</time>
      </trkpt>
      <trkpt lat="44.75768" lon="-1.11591">
        <ele>53.720773</ele>
        <time>2022-12-25T10:26:25.377Z</time>
      </trkpt>
      <trkpt lat="44.75759" lon="-1.11577">
        <ele>53.657894</ele>
        <time>2022-12-25T10:26:28.370Z</time>
      </trkpt>
      <trkpt lat="44.7575" lon="-1.11564">
        <ele>53.595419</ele>
        <time>2022-12-25T10:26:31.376Z</time>
      </trkpt>
      <trkpt lat="44.75741" lon="-1.11551">
        <ele>53.534992</ele>
        <time>2022-12-25T10:26:34.360Z</time>
      </trkpt>
      <trkpt lat="44.75733" lon="-1.11538">
        <ele>53.474726</ele>
        <time>2022-12-25T10:26:37.374Z</time>
      </trkpt>
      <trkpt lat="44.75725" lon="-1.11526">
        <ele>53.418954</ele>
        <time>2022-12-25T10:26:40.358Z</time>
      </trkpt>
      <trkpt lat="44.75717" lon="-1.11514">
        <ele>53.365233</ele>
        <time>2022-12-25T10:26:43.369Z</time>
      </trkpt>
      <trkpt lat="44.7571" lon="-1.11504">
        <ele>53.318217</ele>
        <time>2022-12-25T10:26:46.356Z</time>
      </trkpt>
      <trkpt lat="44.75703" lon="-1.11494">
        <ele>53.345343</ele>
        <time>2022-12-25T10:26:49.372Z</time>
      </trkpt>
      <trkpt lat="44.75694" lon="-1.11482">
        <ele>53.472059</ele>
        <time>2022-12-25T10:26:52.373Z</time>
      </trkpt>
      <trkpt lat="44.75685" lon="-1.11469">
        <ele>53.605965</ele>
        <time>2022-12-25T10:26:55.375Z</time>
      </trkpt>
      <trkpt lat="44.75676" lon="-1.11456">
        <ele>53.739997</ele>
        <time>2022-12-25T10:26:58.369Z</time>
      </trkpt>
      <trkpt lat="44.75667" lon="-1.11443">
        <ele>53.87245</ele>
        <time>2022-12-25T10:27:01.377Z</time>
      </trkpt>
      <trkpt lat="44.75658" lon="-1.11432">
        <ele>54.001375</ele>
        <time>2022-12-25T10:27:04.365Z</time>
      </trkpt>
      <trkpt lat="44.7565" lon="-1.11419">
        <ele>54.132027</ele>
        <time>2022-12-25T10:27:07.368Z</time>
      </trkpt>
      <trkpt lat="44.75641" lon="-1.11409">
        <ele>54.245587</ele>
        <time>2022-12-25T10:27:10.364Z</time>
      </trkpt>
      <trkpt lat="44.75633" lon="-1.114">
        <ele>54.353678</ele>
        <time>2022-12-25T10:27:13.380Z</time>
      </trkpt>
      <trkpt lat="44.75624" lon="-1.1139">
        <ele>54.473174</ele>
        <time>2022-12-25T10:27:16.345Z</time>
      </trkpt>
      <trkpt lat="44.75616" lon="-1.11379">
        <ele>54.595729</ele>
        <time>2022-12-25T10:27:19.369Z</time>
      </trkpt>
      <trkpt lat="44.75607" lon="-1.11367">
        <ele>54.725981</ele>
        <time>2022-12-25T10:27:22.364Z</time>
      </trkpt>
      <trkpt lat="44.75597" lon="-1.11356">
        <ele>54.854672</ele>
        <time>2022-12-25T10:27:25.368Z</time>
      </trkpt>
      <trkpt lat="44.75589" lon="-1.11345">
        <ele>54.978039</ele>
        <time>2022-12-25T10:27:28.373Z</time>
      </trkpt>
      <trkpt lat="44.7558" lon="-1.11332">
        <ele>55.109616</ele>
        <time>2022-12-25T10:27:31.382Z</time>
      </trkpt>
      <trkpt lat="44.7557" lon="-1.11323">
        <ele>55.176661</ele>
        <time>2022-12-25T10:27:34.359Z</time>
      </trkpt>
      <trkpt lat="44.75561" lon="-1.11311">
        <ele>55.173767</ele>
        <time>2022-12-25T10:27:37.342Z</time>
      </trkpt>
      <trkpt lat="44.75552" lon="-1.113">
        <ele>55.171004</ele>
        <time>2022-12-25T10:27:40.341Z</time>
      </trkpt>
      <trkpt lat="44.75542" lon="-1.11289">
        <ele>55.168251</ele>
        <time>2022-12-25T10:27:43.349Z</time>
      </trkpt>
      <trkpt lat="44.75533" lon="-1.11279">
        <ele>55.165565</ele>
        <time>2022-12-25T10:27:46.345Z</time>
      </trkpt>
      <trkpt lat="44.75525" lon="-1.11272">
        <ele>55.16326</ele>
        <time>2022-12-25T10:27:49.349Z</time>
      </trkpt>
      <trkpt lat="44.75518" lon="-1.11263">
        <ele>55.161184</ele>
        <time>2022-12-25T10:27:55.346Z</time>
      </trkpt>
      <trkpt lat="44.75519" lon="-1.11262">
        <ele>55.160858</ele>
        <time>2022-12-25T10:28:09.558Z</time>
      </trkpt>
      <trkpt lat="44.71057" lon="-1.04592">
        <ele>53.093682</ele>
        <time>2022-12-25T11:11:12.275Z</time>
      </trkpt>
      <trkpt lat="44.71053" lon="-1.04579">
        <ele>53.037773</ele>
        <time>2022-12-25T11:11:34.355Z</time>
      </trkpt>
      <trkpt lat="44.71048" lon="-1.04567">
        <ele>52.982976</ele>
        <time>2022-12-25T11:11:39.366Z</time>
      </trkpt>
      <trkpt lat="44.71038" lon="-1.04544">
        <ele>52.875388</ele>
        <time>2022-12-25T11:13:27.353Z</time>
      </trkpt>
      <trkpt lat="44.71033" lon="-1.0453">
        <ele>52.813197</ele>
        <time>2022-12-25T11:13:32.352Z</time>
      </trkpt>
      <trkpt lat="44.71026" lon="-1.04517">
        <ele>52.748841</ele>
        <time>2022-12-25T11:13:36.349Z</time>
      </trkpt>
      <trkpt lat="44.71021" lon="-1.04506">
        <ele>52.698568</ele>
        <time>2022-12-25T11:13:39.364Z</time>
      </trkpt>
      <trkpt lat="44.71017" lon="-1.04494">
        <ele>52.669723</ele>
        <time>2022-12-25T11:13:42.351Z</time>
      </trkpt>
      <trkpt lat="44.71012" lon="-1.04481">
        <ele>52.647973</ele>
        <time>2022-12-25T11:13:45.367Z</time>
      </trkpt>
      <trkpt lat="44.71006" lon="-1.04468">
        <ele>52.625239</ele>
        <time>2022-12-25T11:13:48.365Z</time>
      </trkpt>
      <trkpt lat="44.71" lon="-1.04456">
        <ele>52.60277</ele>
        <time>2022-12-25T11:13:51.353Z</time>
      </trkpt>
      <trkpt lat="44.70994" lon="-1.04443">
        <ele>52.579455</ele>
        <time>2022-12-25T11:13:54.366Z</time>
      </trkpt>
      <trkpt lat="44.70988" lon="-1.04429">
        <ele>52.555147</ele>
        <time>2022-12-25T11:13:57.369Z</time>
      </trkpt>
      <trkpt lat="44.70982" lon="-1.04415">
        <ele>52.530458</ele>
        <time>2022-12-25T11:14:00.369Z</time>
      </trkpt>
      <trkpt lat="44.70976" lon="-1.044">
        <ele>52.505</ele>
        <time>2022-12-25T11:14:03.374Z</time>
      </trkpt>
      <trkpt lat="44.7097" lon="-1.04385">
        <ele>52.479108</ele>
        <time>2022-12-25T11:14:06.360Z</time>
      </trkpt>
      <trkpt lat="44.70963" lon="-1.04371">
        <ele>52.453337</ele>
        <time>2022-12-25T11:14:09.357Z</time>
      </trkpt>
      <trkpt lat="44.70957" lon="-1.04355">
        <ele>52.427023</ele>
        <time>2022-12-25T11:14:12.365Z</time>
      </trkpt>
      <trkpt lat="44.70951" lon="-1.04341">
        <ele>52.401675</ele>
        <time>2022-12-25T11:14:15.367Z</time>
      </trkpt>
      <trkpt lat="44.70945" lon="-1.04326">
        <ele>52.375963</ele>
        <time>2022-12-25T11:14:18.372Z</time>
      </trkpt>
      <trkpt lat="44.70939" lon="-1.04313">
        <ele>52.353608</ele>
        <time>2022-12-25T11:14:21.370Z</time>
      </trkpt>
      <trkpt lat="44.70932" lon="-1.04303">
        <ele>52.332094</ele>
        <time>2022-12-25T11:14:26.370Z</time>
      </trkpt>
      <trkpt lat="44.70928" lon="-1.04291">
        <ele>52.312609</ele>
        <time>2022-12-25T11:14:30.371Z</time>
      </trkpt>
      <trkpt lat="44.70924" lon="-1.04277">
        <ele>52.268617</ele>
        <time>2022-12-25T11:14:34.354Z</time>
      </trkpt>
      <trkpt lat="44.70918" lon="-1.04264">
        <ele>52.219211</ele>
        <time>2022-12-25T11:14:37.350Z</time>
      </trkpt>
      <trkpt lat="44.70912" lon="-1.0425">
        <ele>52.165105</ele>
        <time>2022-12-25T11:14:40.371Z</time>
      </trkpt>
      <trkpt lat="44.70906" lon="-1.04236">
        <ele>52.110192</ele>
        <time>2022-12-25T11:14:43.352Z</time>
      </trkpt>
      <trkpt lat="44.709" lon="-1.04221">
        <ele>52.053049</ele>
        <time>2022-12-25T11:14:46.366Z</time>
      </trkpt>
      <trkpt lat="44.70893" lon="-1.04206">
        <ele>51.993771</ele>
        <time>2022-12-25T11:14:49.350Z</time>
      </trkpt>
      <trkpt lat="44.70887" lon="-1.04189">
        <ele>51.931685</ele>
        <time>2022-12-25T11:14:52.351Z</time>
      </trkpt>
      <trkpt lat="44.7088" lon="-1.04174">
        <ele>51.870065</ele>
        <time>2022-12-25T11:14:55.358Z</time>
      </trkpt>
      <trkpt lat="44.70874" lon="-1.04158">
        <ele>51.811942</ele>
        <time>2022-12-25T11:14:58.366Z</time>
      </trkpt>
      <trkpt lat="44.70867" lon="-1.04142">
        <ele>51.749478</ele>
        <time>2022-12-25T11:15:01.356Z</time>
      </trkpt>
      <trkpt lat="44.70862" lon="-1.04131">
        <ele>51.706512</ele>
        <time>2022-12-25T11:15:03.373Z</time>
      </trkpt>
      <trkpt lat="44.70856" lon="-1.04114">
        <ele>51.645199</ele>
        <time>2022-12-25T11:15:06.368Z</time>
      </trkpt>
      <trkpt lat="44.70851" lon="-1.04102">
        <ele>51.59807</ele>
        <time>2022-12-25T11:15:08.374Z</time>
      </trkpt>
      <trkpt lat="44.70845" lon="-1.04086">
        <ele>51.537363</ele>
        <time>2022-12-25T11:15:11.380Z</time>
      </trkpt>
      <trkpt lat="44.70837" lon="-1.0407">
        <ele>51.473907</ele>
        <time>2022-12-25T11:15:14.371Z</time>
      </trkpt>
      <trkpt lat="44.70832" lon="-1.0406">
        <ele>51.474284</ele>
        <time>2022-12-25T11:15:16.353Z</time>
      </trkpt>
      <trkpt lat="44.70827" lon="-1.04049">
        <ele>51.480596</ele>
        <time>2022-12-25T11:15:18.371Z</time>
      </trkpt>
      <trkpt lat="44.70821" lon="-1.04036">
        <ele>51.488089</ele>
        <time>2022-12-25T11:15:21.359Z</time>
      </trkpt>
      <trkpt lat="44.70816" lon="-1.04024">
        <ele>51.494761</ele>
        <time>2022-12-25T11:15:24.358Z</time>
      </trkpt>
      <trkpt lat="44.70811" lon="-1.0401">
        <ele>51.502645</ele>
        <time>2022-12-25T11:15:28.347Z</time>
      </trkpt>
      <trkpt lat="44.70804" lon="-1.03995">
        <ele>51.511045</ele>
        <time>2022-12-25T11:15:32.350Z</time>
      </trkpt>
      <trkpt lat="44.70799" lon="-1.03983">
        <ele>51.518114</ele>
        <time>2022-12-25T11:15:35.346Z</time>
      </trkpt>
      <trkpt lat="44.70793" lon="-1.0397">
        <ele>51.525464</ele>
        <time>2022-12-25T11:15:38.369Z</time>
      </trkpt>
      <trkpt lat="44.70788" lon="-1.03957">
        <ele>51.532873</ele>
        <time>2022-12-25T11:15:41.358Z</time>
      </trkpt>
      <trkpt lat="44.70782" lon="-1.03943">
        <ele>51.540596</ele>
        <time>2022-12-25T11:15:44.363Z</time>
      </trkpt>
      <trkpt lat="44.70776" lon="-1.03929">
        <ele>51.548985</ele>
        <time>2022-12-25T11:15:47.369Z</time>
      </trkpt>
      <trkpt lat="44.70769" lon="-1.03913">
        <ele>51.557986</ele>
        <time>2022-12-25T11:15:50.363Z</time>
      </trkpt>
      <trkpt lat="44.70764" lon="-1.03901">
        <ele>51.564218</ele>
        <time>2022-12-25T11:15:52.356Z</time>
      </trkpt>
      <trkpt lat="44.7076" lon="-1.0389">
        <ele>51.570441</ele>
        <time>2022-12-25T11:15:54.366Z</time>
      </trkpt>
      <trkpt lat="44.70753" lon="-1.03874">
        <ele>51.579484</ele>
        <time>2022-12-25T11:15:57.348Z</time>
      </trkpt>
      <trkpt lat="44.70746" lon="-1.03861">
        <ele>51.587542</ele>
        <time>2022-12-25T11:16:00.369Z</time>
      </trkpt>
      <trkpt lat="44.70741" lon="-1.03847">
        <ele>51.608067</ele>
        <time>2022-12-25T11:16:04.351Z</time>
      </trkpt>
      <trkpt lat="44.70734" lon="-1.03832">
        <ele>51.647164</ele>
        <time>2022-12-25T11:16:08.373Z</time>
      </trkpt>
      <trkpt lat="44.70728" lon="-1.03818">
        <ele>51.683778</ele>
        <time>2022-12-25T11:16:11.368Z</time>
      </trkpt>
      <trkpt lat="44.70722" lon="-1.03804">
        <ele>51.722194</ele>
        <time>2022-12-25T11:16:14.371Z</time>
      </trkpt>
      <trkpt lat="44.70715" lon="-1.03789">
        <ele>51.76155</ele>
        <time>2022-12-25T11:16:17.375Z</time>
      </trkpt>
      <trkpt lat="44.70708" lon="-1.03773">
        <ele>51.803868</ele>
        <time>2022-12-25T11:16:20.363Z</time>
      </trkpt>
      <trkpt lat="44.70701" lon="-1.03757">
        <ele>51.846402</ele>
        <time>2022-12-25T11:16:23.379Z</time>
      </trkpt>
      <trkpt lat="44.70696" lon="-1.03746">
        <ele>51.87568</ele>
        <time>2022-12-25T11:16:25.364Z</time>
      </trkpt>
      <trkpt lat="44.70692" lon="-1.03735">
        <ele>51.904289</ele>
        <time>2022-12-25T11:16:27.369Z</time>
      </trkpt>
      <trkpt lat="44.70685" lon="-1.0372">
        <ele>51.944655</ele>
        <time>2022-12-25T11:16:30.368Z</time>
      </trkpt>
      <trkpt lat="44.70679" lon="-1.03705">
        <ele>51.983193</ele>
        <time>2022-12-25T11:16:33.348Z</time>
      </trkpt>
      <trkpt lat="44.70673" lon="-1.03689">
        <ele>52.022981</ele>
        <time>2022-12-25T11:16:36.362Z</time>
      </trkpt>
      <trkpt lat="44.70667" lon="-1.03673">
        <ele>52.065163</ele>
        <time>2022-12-25T11:16:39.371Z</time>
      </trkpt>
      <trkpt lat="44.7066" lon="-1.03657">
        <ele>52.106656</ele>
        <time>2022-12-25T11:16:42.367Z</time>
      </trkpt>
      <trkpt lat="44.70653" lon="-1.03642">
        <ele>52.146722</ele>
        <time>2022-12-25T11:16:45.370Z</time>
      </trkpt>
      <trkpt lat="44.70647" lon="-1.03628">
        <ele>52.172006</ele>
        <time>2022-12-25T11:16:48.372Z</time>
      </trkpt>
      <trkpt lat="44.70642" lon="-1.03616">
        <ele>52.185461</ele>
        <time>2022-12-25T11:16:51.369Z</time>
      </trkpt>
      <trkpt lat="44.70636" lon="-1.03605">
        <ele>52.198088</ele>
        <time>2022-12-25T11:16:54.372Z</time>
      </trkpt>
      <trkpt lat="44.70632" lon="-1.03593">
        <ele>52.210688</ele>
        <time>2022-12-25T11:16:57.349Z</time>
      </trkpt>
      <trkpt lat="44.70626" lon="-1.03579">
        <ele>52.225544</ele>
        <time>2022-12-25T11:17:00.376Z</time>
      </trkpt>
      <trkpt lat="44.7062" lon="-1.03564">
        <ele>52.241523</ele>
        <time>2022-12-25T11:17:03.385Z</time>
      </trkpt>
      <trkpt lat="44.70614" lon="-1.0355">
        <ele>52.257635</ele>
        <time>2022-12-25T11:17:06.354Z</time>
      </trkpt>
      <trkpt lat="44.70607" lon="-1.03535">
        <ele>52.27447</ele>
        <time>2022-12-25T11:17:09.362Z</time>
      </trkpt>
      <trkpt lat="44.706" lon="-1.03519">
        <ele>52.291752</ele>
        <time>2022-12-25T11:17:12.370Z</time>
      </trkpt>
      <trkpt lat="44.70593" lon="-1.03503">
        <ele>52.30894</ele>
        <time>2022-12-25T11:17:15.365Z</time>
      </trkpt>
      <trkpt lat="44.70588" lon="-1.03487">
        <ele>52.326229</ele>
        <time>2022-12-25T11:17:18.372Z</time>
      </trkpt>
      <trkpt lat="44.70582" lon="-1.03469">
        <ele>52.344141</ele>
        <time>2022-12-25T11:17:21.347Z</time>
      </trkpt>
      <trkpt lat="44.70579" lon="-1.03457">
        <ele>52.35684</ele>
        <time>2022-12-25T11:17:23.351Z</time>
      </trkpt>
      <trkpt lat="44.70575" lon="-1.03445">
        <ele>52.369142</ele>
        <time>2022-12-25T11:17:25.347Z</time>
      </trkpt>
      <trkpt lat="44.70572" lon="-1.03432">
        <ele>52.381917</ele>
        <time>2022-12-25T11:17:27.367Z</time>
      </trkpt>
      <trkpt lat="44.70567" lon="-1.0342">
        <ele>52.394491</ele>
        <time>2022-12-25T11:17:29.352Z</time>
      </trkpt>
      <trkpt lat="44.70559" lon="-1.03404">
        <ele>52.380251</ele>
        <time>2022-12-25T11:17:32.359Z</time>
      </trkpt>
      <trkpt lat="44.70552" lon="-1.03389">
        <ele>52.350933</ele>
        <time>2022-12-25T11:17:35.368Z</time>
      </trkpt>
      <trkpt lat="44.70546" lon="-1.03374">
        <ele>52.323169</ele>
        <time>2022-12-25T11:17:38.346Z</time>
      </trkpt>
      <trkpt lat="44.70539" lon="-1.0336">
        <ele>52.296274</ele>
        <time>2022-12-25T11:17:41.350Z</time>
      </trkpt>
      <trkpt lat="44.70533" lon="-1.03345">
        <ele>52.268089</ele>
        <time>2022-12-25T11:17:44.365Z</time>
      </trkpt>
      <trkpt lat="44.70526" lon="-1.0333">
        <ele>52.238852</ele>
        <time>2022-12-25T11:17:47.354Z</time>
      </trkpt>
      <trkpt lat="44.7052" lon="-1.03315">
        <ele>52.211696</ele>
        <time>2022-12-25T11:17:50.361Z</time>
      </trkpt>
      <trkpt lat="44.70513" lon="-1.03299">
        <ele>52.182595</ele>
        <time>2022-12-25T11:17:53.386Z</time>
      </trkpt>
      <trkpt lat="44.70506" lon="-1.03283">
        <ele>52.152519</ele>
        <time>2022-12-25T11:17:56.373Z</time>
      </trkpt>
      <trkpt lat="44.705" lon="-1.03267">
        <ele>52.122833</ele>
        <time>2022-12-25T11:17:59.368Z</time>
      </trkpt>
      <trkpt lat="44.70495" lon="-1.03256">
        <ele>52.102316</ele>
        <time>2022-12-25T11:18:01.373Z</time>
      </trkpt>
      <trkpt lat="44.7049" lon="-1.03245">
        <ele>52.081134</ele>
        <time>2022-12-25T11:18:03.369Z</time>
      </trkpt>
      <trkpt lat="44.70485" lon="-1.03234">
        <ele>52.060016</ele>
        <time>2022-12-25T11:18:05.366Z</time>
      </trkpt>
      <trkpt lat="44.70478" lon="-1.03218">
        <ele>52.029982</ele>
        <time>2022-12-25T11:18:08.348Z</time>
      </trkpt>
      <trkpt lat="44.7047" lon="-1.03204">
        <ele>52.002091</ele>
        <time>2022-12-25T11:18:11.368Z</time>
      </trkpt>
      <trkpt lat="44.70464" lon="-1.03191">
        <ele>51.942868</ele>
        <time>2022-12-25T11:18:14.368Z</time>
      </trkpt>
      <trkpt lat="44.70458" lon="-1.03178">
        <ele>51.877041</ele>
        <time>2022-12-25T11:18:17.354Z</time>
      </trkpt>
      <trkpt lat="44.70451" lon="-1.03167">
        <ele>51.813661</ele>
        <time>2022-12-25T11:18:20.363Z</time>
      </trkpt>
      <trkpt lat="44.70446" lon="-1.03156">
        <ele>51.754921</ele>
        <time>2022-12-25T11:18:23.370Z</time>
      </trkpt>
      <trkpt lat="44.70439" lon="-1.03146">
        <ele>51.693735</ele>
        <time>2022-12-25T11:18:27.355Z</time>
      </trkpt>
      <trkpt lat="44.70434" lon="-1.03134">
        <ele>51.633934</ele>
        <time>2022-12-25T11:18:32.344Z</time>
      </trkpt>
      <trkpt lat="44.70429" lon="-1.03119">
        <ele>51.560375</ele>
        <time>2022-12-25T11:18:36.359Z</time>
      </trkpt>
      <trkpt lat="44.70423" lon="-1.03106">
        <ele>51.494019</ele>
        <time>2022-12-25T11:18:39.351Z</time>
      </trkpt>
      <trkpt lat="44.70417" lon="-1.03092">
        <ele>51.423184</ele>
        <time>2022-12-25T11:18:42.366Z</time>
      </trkpt>
      <trkpt lat="44.70411" lon="-1.03078">
        <ele>51.349049</ele>
        <time>2022-12-25T11:18:45.356Z</time>
      </trkpt>
      <trkpt lat="44.70404" lon="-1.03062">
        <ele>51.27171</ele>
        <time>2022-12-25T11:18:48.364Z</time>
      </trkpt>
      <trkpt lat="44.70398" lon="-1.03047">
        <ele>51.191505</ele>
        <time>2022-12-25T11:18:51.375Z</time>
      </trkpt>
      <trkpt lat="44.7039" lon="-1.03031">
        <ele>51.109307</ele>
        <time>2022-12-25T11:18:54.369Z</time>
      </trkpt>
      <trkpt lat="44.70384" lon="-1.03015">
        <ele>51.029346</ele>
        <time>2022-12-25T11:18:57.370Z</time>
      </trkpt>
      <trkpt lat="44.7038" lon="-1.03003">
        <ele>50.972123</ele>
        <time>2022-12-25T11:18:59.375Z</time>
      </trkpt>
      <trkpt lat="44.70376" lon="-1.02992">
        <ele>50.916764</ele>
        <time>2022-12-25T11:19:01.366Z</time>
      </trkpt>
      <trkpt lat="44.7037" lon="-1.02981">
        <ele>50.862442</ele>
        <time>2022-12-25T11:19:03.376Z</time>
      </trkpt>
      <trkpt lat="44.70365" lon="-1.02969">
        <ele>50.811066</ele>
        <time>2022-12-25T11:19:05.353Z</time>
      </trkpt>
      <trkpt lat="44.70359" lon="-1.02957">
        <ele>50.754221</ele>
        <time>2022-12-25T11:19:07.356Z</time>
      </trkpt>
      <trkpt lat="44.70354" lon="-1.02946">
        <ele>50.702523</ele>
        <time>2022-12-25T11:19:09.371Z</time>
      </trkpt>
      <trkpt lat="44.70346" lon="-1.02929">
        <ele>50.6295</ele>
        <time>2022-12-25T11:19:12.370Z</time>
      </trkpt>
      <trkpt lat="44.70342" lon="-1.02919">
        <ele>50.581542</ele>
        <time>2022-12-25T11:19:14.371Z</time>
      </trkpt>
      <trkpt lat="44.70336" lon="-1.02906">
        <ele>50.526646</ele>
        <time>2022-12-25T11:19:16.367Z</time>
      </trkpt>
      <trkpt lat="44.70331" lon="-1.02891">
        <ele>50.461172</ele>
        <time>2022-12-25T11:19:19.365Z</time>
      </trkpt>
      <trkpt lat="44.70327" lon="-1.02879">
        <ele>50.409904</ele>
        <time>2022-12-25T11:19:22.374Z</time>
      </trkpt>
      <trkpt lat="44.70321" lon="-1.02865">
        <ele>50.350481</ele>
        <time>2022-12-25T11:19:25.366Z</time>
      </trkpt>
      <trkpt lat="44.70314" lon="-1.02849">
        <ele>50.279309</ele>
        <time>2022-12-25T11:19:28.365Z</time>
      </trkpt>
      <trkpt lat="44.70308" lon="-1.02837">
        <ele>50.222941</ele>
        <time>2022-12-25T11:19:30.372Z</time>
      </trkpt>
      <trkpt lat="44.70303" lon="-1.02825">
        <ele>50.171918</ele>
        <time>2022-12-25T11:19:32.360Z</time>
      </trkpt>
      <trkpt lat="44.70298" lon="-1.02814">
        <ele>50.119573</ele>
        <time>2022-12-25T11:19:34.370Z</time>
      </trkpt>
      <trkpt lat="44.70292" lon="-1.02802">
        <ele>50.06798</ele>
        <time>2022-12-25T11:19:36.369Z</time>
      </trkpt>
      <trkpt lat="44.70287" lon="-1.02791">
        <ele>50.015854</ele>
        <time>2022-12-25T11:19:38.363Z</time>
      </trkpt>
      <trkpt lat="44.70281" lon="-1.02774">
        <ele>49.943429</ele>
        <time>2022-12-25T11:19:41.372Z</time>
      </trkpt>
      <trkpt lat="44.70276" lon="-1.02762">
        <ele>49.868305</ele>
        <time>2022-12-25T11:19:43.381Z</time>
      </trkpt>
      <trkpt lat="44.70272" lon="-1.02751">
        <ele>49.790415</ele>
        <time>2022-12-25T11:19:45.374Z</time>
      </trkpt>
      <trkpt lat="44.70266" lon="-1.02739">
        <ele>49.703912</ele>
        <time>2022-12-25T11:19:47.364Z</time>
      </trkpt>
      <trkpt lat="44.70261" lon="-1.02727">
        <ele>49.623667</ele>
        <time>2022-12-25T11:19:49.367Z</time>
      </trkpt>
      <trkpt lat="44.70254" lon="-1.02715">
        <ele>49.533776</ele>
        <time>2022-12-25T11:19:51.374Z</time>
      </trkpt>
      <trkpt lat="44.70249" lon="-1.02704">
        <ele>49.450203</ele>
        <time>2022-12-25T11:19:53.385Z</time>
      </trkpt>
      <trkpt lat="44.70243" lon="-1.02692">
        <ele>49.370956</ele>
        <time>2022-12-25T11:19:55.355Z</time>
      </trkpt>
      <trkpt lat="44.70238" lon="-1.02681">
        <ele>49.291667</ele>
        <time>2022-12-25T11:19:57.365Z</time>
      </trkpt>
      <trkpt lat="44.70233" lon="-1.0267">
        <ele>49.212469</ele>
        <time>2022-12-25T11:19:59.370Z</time>
      </trkpt>
      <trkpt lat="44.70225" lon="-1.02656">
        <ele>49.105091</ele>
        <time>2022-12-25T11:20:02.368Z</time>
      </trkpt>
      <trkpt lat="44.70218" lon="-1.02641">
        <ele>49.000141</ele>
        <time>2022-12-25T11:20:05.364Z</time>
      </trkpt>
      <trkpt lat="44.70211" lon="-1.02628">
        <ele>48.898043</ele>
        <time>2022-12-25T11:20:08.366Z</time>
      </trkpt>
      <trkpt lat="44.70203" lon="-1.02614">
        <ele>48.792558</ele>
        <time>2022-12-25T11:20:11.371Z</time>
      </trkpt>
      <trkpt lat="44.70195" lon="-1.02599">
        <ele>48.682728</ele>
        <time>2022-12-25T11:20:14.367Z</time>
      </trkpt>
      <trkpt lat="44.70189" lon="-1.02588">
        <ele>48.600435</ele>
        <time>2022-12-25T11:20:16.372Z</time>
      </trkpt>
      <trkpt lat="44.70181" lon="-1.02573">
        <ele>48.490621</ele>
        <time>2022-12-25T11:20:19.354Z</time>
      </trkpt>
      <trkpt lat="44.70173" lon="-1.02558">
        <ele>48.473451</ele>
        <time>2022-12-25T11:20:22.364Z</time>
      </trkpt>
      <trkpt lat="44.70165" lon="-1.02545">
        <ele>48.580413</ele>
        <time>2022-12-25T11:20:25.368Z</time>
      </trkpt>
      <trkpt lat="44.70159" lon="-1.02536">
        <ele>48.662428</ele>
        <time>2022-12-25T11:20:28.359Z</time>
      </trkpt>
      <trkpt lat="44.70152" lon="-1.02527">
        <ele>48.745214</ele>
        <time>2022-12-25T11:20:32.366Z</time>
      </trkpt>
      <trkpt lat="44.70146" lon="-1.02514">
        <ele>48.840621</ele>
        <time>2022-12-25T11:20:36.361Z</time>
      </trkpt>
      <trkpt lat="44.70138" lon="-1.02502">
        <ele>48.93897</ele>
        <time>2022-12-25T11:20:40.367Z</time>
      </trkpt>
      <trkpt lat="44.7013" lon="-1.02489">
        <ele>49.049897</ele>
        <time>2022-12-25T11:20:44.374Z</time>
      </trkpt>
      <trkpt lat="44.70122" lon="-1.02478">
        <ele>49.143556</ele>
        <time>2022-12-25T11:20:47.362Z</time>
      </trkpt>
      <trkpt lat="44.70115" lon="-1.02467">
        <ele>49.242086</ele>
        <time>2022-12-25T11:20:50.351Z</time>
      </trkpt>
      <trkpt lat="44.70107" lon="-1.02455">
        <ele>49.344976</ele>
        <time>2022-12-25T11:20:53.372Z</time>
      </trkpt>
      <trkpt lat="44.70099" lon="-1.02443">
        <ele>49.4512</ele>
        <time>2022-12-25T11:20:56.368Z</time>
      </trkpt>
      <trkpt lat="44.7009" lon="-1.0243">
        <ele>49.561958</ele>
        <time>2022-12-25T11:20:59.370Z</time>
      </trkpt>
      <trkpt lat="44.70083" lon="-1.02421">
        <ele>49.643249</ele>
        <time>2022-12-25T11:21:01.369Z</time>
      </trkpt>
      <trkpt lat="44.70076" lon="-1.02412">
        <ele>49.726262</ele>
        <time>2022-12-25T11:21:03.351Z</time>
      </trkpt>
      <trkpt lat="44.70066" lon="-1.024">
        <ele>49.838424</ele>
        <time>2022-12-25T11:21:06.371Z</time>
      </trkpt>
      <trkpt lat="44.70058" lon="-1.02389">
        <ele>49.944317</ele>
        <time>2022-12-25T11:21:09.353Z</time>
      </trkpt>
      <trkpt lat="44.7005" lon="-1.02378">
        <ele>50.019717</ele>
        <time>2022-12-25T11:21:12.371Z</time>
      </trkpt>
      <trkpt lat="44.70042" lon="-1.02366">
        <ele>50.065349</ele>
        <time>2022-12-25T11:21:15.366Z</time>
      </trkpt>
      <trkpt lat="44.70035" lon="-1.02358">
        <ele>50.100082</ele>
        <time>2022-12-25T11:21:17.352Z</time>
      </trkpt>
      <trkpt lat="44.70025" lon="-1.02345">
        <ele>50.150343</ele>
        <time>2022-12-25T11:21:20.365Z</time>
      </trkpt>
      <trkpt lat="44.70018" lon="-1.02336">
        <ele>50.185468</ele>
        <time>2022-12-25T11:21:22.369Z</time>
      </trkpt>
      <trkpt lat="44.70012" lon="-1.02327">
        <ele>50.220286</ele>
        <time>2022-12-25T11:21:24.359Z</time>
      </trkpt>
      <trkpt lat="44.70002" lon="-1.02314">
        <ele>50.272285</ele>
        <time>2022-12-25T11:21:27.367Z</time>
      </trkpt>
      <trkpt lat="44.69992" lon="-1.02303">
        <ele>50.320589</ele>
        <time>2022-12-25T11:21:30.366Z</time>
      </trkpt>
      <trkpt lat="44.69983" lon="-1.02293">
        <ele>50.363559</ele>
        <time>2022-12-25T11:21:33.377Z</time>
      </trkpt>
      <trkpt lat="44.69974" lon="-1.02282">
        <ele>50.409153</ele>
        <time>2022-12-25T11:21:36.366Z</time>
      </trkpt>
      <trkpt lat="44.69964" lon="-1.02272">
        <ele>50.455344</ele>
        <time>2022-12-25T11:21:39.372Z</time>
      </trkpt>
      <trkpt lat="44.69955" lon="-1.02261">
        <ele>50.501868</ele>
        <time>2022-12-25T11:21:42.368Z</time>
      </trkpt>
      <trkpt lat="44.69945" lon="-1.0225">
        <ele>50.547211</ele>
        <time>2022-12-25T11:21:45.363Z</time>
      </trkpt>
      <trkpt lat="44.69935" lon="-1.02239">
        <ele>50.596154</ele>
        <time>2022-12-25T11:21:48.346Z</time>
      </trkpt>
      <trkpt lat="44.69925" lon="-1.02229">
        <ele>50.643908</ele>
        <time>2022-12-25T11:21:51.365Z</time>
      </trkpt>
      <trkpt lat="44.69915" lon="-1.02218">
        <ele>50.705777</ele>
        <time>2022-12-25T11:21:54.366Z</time>
      </trkpt>
      <trkpt lat="44.69904" lon="-1.02208">
        <ele>50.90008</ele>
        <time>2022-12-25T11:21:57.370Z</time>
      </trkpt>
      <trkpt lat="44.69895" lon="-1.02198">
        <ele>51.081894</ele>
        <time>2022-12-25T11:22:00.371Z</time>
      </trkpt>
      <trkpt lat="44.69887" lon="-1.02189">
        <ele>51.247011</ele>
        <time>2022-12-25T11:22:03.381Z</time>
      </trkpt>
      <trkpt lat="44.69879" lon="-1.0218">
        <ele>51.396123</ele>
        <time>2022-12-25T11:22:06.359Z</time>
      </trkpt>
      <trkpt lat="44.6987" lon="-1.02171">
        <ele>51.575776</ele>
        <time>2022-12-25T11:22:10.372Z</time>
      </trkpt>
      <trkpt lat="44.69859" lon="-1.02163">
        <ele>51.772056</ele>
        <time>2022-12-25T11:22:13.354Z</time>
      </trkpt>
      <trkpt lat="44.69848" lon="-1.02153">
        <ele>51.976246</ele>
        <time>2022-12-25T11:22:16.350Z</time>
      </trkpt>
      <trkpt lat="44.69837" lon="-1.02144">
        <ele>52.177562</ele>
        <time>2022-12-25T11:22:19.369Z</time>
      </trkpt>
      <trkpt lat="44.69829" lon="-1.02137">
        <ele>52.318904</ele>
        <time>2022-12-25T11:22:22.370Z</time>
      </trkpt>
      <trkpt lat="44.69819" lon="-1.02129">
        <ele>52.496314</ele>
        <time>2022-12-25T11:22:25.350Z</time>
      </trkpt>
      <trkpt lat="44.69809" lon="-1.02119">
        <ele>52.687696</ele>
        <time>2022-12-25T11:22:28.350Z</time>
      </trkpt>
      <trkpt lat="44.69797" lon="-1.02111">
        <ele>52.896914</ele>
        <time>2022-12-25T11:22:31.361Z</time>
      </trkpt>
      <trkpt lat="44.69785" lon="-1.02102">
        <ele>53.104961</ele>
        <time>2022-12-25T11:22:34.358Z</time>
      </trkpt>
      <trkpt lat="44.69774" lon="-1.02093">
        <ele>53.31033</ele>
        <time>2022-12-25T11:22:37.370Z</time>
      </trkpt>
      <trkpt lat="44.69762" lon="-1.02084">
        <ele>53.509398</ele>
        <time>2022-12-25T11:22:40.370Z</time>
      </trkpt>
      <trkpt lat="44.69754" lon="-1.02077">
        <ele>53.572744</ele>
        <time>2022-12-25T11:22:42.346Z</time>
      </trkpt>
      <trkpt lat="44.69746" lon="-1.02071">
        <ele>53.631784</ele>
        <time>2022-12-25T11:22:44.371Z</time>
      </trkpt>
      <trkpt lat="44.69734" lon="-1.02062">
        <ele>53.718149</ele>
        <time>2022-12-25T11:22:47.370Z</time>
      </trkpt>
      <trkpt lat="44.69726" lon="-1.02056">
        <ele>53.778422</ele>
        <time>2022-12-25T11:22:49.370Z</time>
      </trkpt>
      <trkpt lat="44.69717" lon="-1.02051">
        <ele>53.84081</ele>
        <time>2022-12-25T11:22:51.371Z</time>
      </trkpt>
      <trkpt lat="44.69709" lon="-1.02045">
        <ele>53.900397</ele>
        <time>2022-12-25T11:22:53.358Z</time>
      </trkpt>
      <trkpt lat="44.69701" lon="-1.02039">
        <ele>53.959775</ele>
        <time>2022-12-25T11:22:55.369Z</time>
      </trkpt>
      <trkpt lat="44.69689" lon="-1.02031">
        <ele>54.044797</ele>
        <time>2022-12-25T11:22:58.366Z</time>
      </trkpt>
      <trkpt lat="44.69678" lon="-1.02022">
        <ele>54.132203</ele>
        <time>2022-12-25T11:23:01.348Z</time>
      </trkpt>
      <trkpt lat="44.69667" lon="-1.02015">
        <ele>54.210552</ele>
        <time>2022-12-25T11:23:04.368Z</time>
      </trkpt>
      <trkpt lat="44.69657" lon="-1.0201">
        <ele>54.2804</ele>
        <time>2022-12-25T11:23:07.365Z</time>
      </trkpt>
      <trkpt lat="44.69646" lon="-1.02003">
        <ele>54.357603</ele>
        <time>2022-12-25T11:23:10.372Z</time>
      </trkpt>
      <trkpt lat="44.69637" lon="-1.01998">
        <ele>54.418971</ele>
        <time>2022-12-25T11:23:12.359Z</time>
      </trkpt>
      <trkpt lat="44.69629" lon="-1.01992">
        <ele>54.48032</ele>
        <time>2022-12-25T11:23:14.370Z</time>
      </trkpt>
      <trkpt lat="44.69619" lon="-1.01987">
        <ele>54.55139</ele>
        <time>2022-12-25T11:23:16.374Z</time>
      </trkpt>
      <trkpt lat="44.69607" lon="-1.0198">
        <ele>54.63552</ele>
        <time>2022-12-25T11:23:19.352Z</time>
      </trkpt>
      <trkpt lat="44.69594" lon="-1.01972">
        <ele>54.47874</ele>
        <time>2022-12-25T11:23:22.352Z</time>
      </trkpt>
      <trkpt lat="44.69585" lon="-1.01968">
        <ele>54.246422</ele>
        <time>2022-12-25T11:23:24.354Z</time>
      </trkpt>
      <trkpt lat="44.69577" lon="-1.01963">
        <ele>54.004387</ele>
        <time>2022-12-25T11:23:26.373Z</time>
      </trkpt>
      <trkpt lat="44.69568" lon="-1.01958">
        <ele>53.774252</ele>
        <time>2022-12-25T11:23:28.367Z</time>
      </trkpt>
      <trkpt lat="44.69555" lon="-1.0195">
        <ele>53.411478</ele>
        <time>2022-12-25T11:23:31.368Z</time>
      </trkpt>
      <trkpt lat="44.69543" lon="-1.01945">
        <ele>53.07747</ele>
        <time>2022-12-25T11:23:34.366Z</time>
      </trkpt>
      <trkpt lat="44.69531" lon="-1.01936">
        <ele>52.739973</ele>
        <time>2022-12-25T11:23:37.364Z</time>
      </trkpt>
      <trkpt lat="44.69519" lon="-1.01928">
        <ele>52.395033</ele>
        <time>2022-12-25T11:23:40.348Z</time>
      </trkpt>
      <trkpt lat="44.69508" lon="-1.01922">
        <ele>52.090057</ele>
        <time>2022-12-25T11:23:43.381Z</time>
      </trkpt>
      <trkpt lat="44.69496" lon="-1.01915">
        <ele>51.774663</ele>
        <time>2022-12-25T11:23:46.355Z</time>
      </trkpt>
      <trkpt lat="44.69486" lon="-1.0191">
        <ele>51.503398</ele>
        <time>2022-12-25T11:23:49.357Z</time>
      </trkpt>
      <trkpt lat="44.69474" lon="-1.01904">
        <ele>51.181622</ele>
        <time>2022-12-25T11:23:52.368Z</time>
      </trkpt>
      <trkpt lat="44.69466" lon="-1.019">
        <ele>50.949303</ele>
        <time>2022-12-25T11:23:54.374Z</time>
      </trkpt>
      <trkpt lat="44.69453" lon="-1.01895">
        <ele>50.611472</ele>
        <time>2022-12-25T11:23:57.369Z</time>
      </trkpt>
      <trkpt lat="44.69441" lon="-1.01887">
        <ele>50.282056</ele>
        <time>2022-12-25T11:24:00.371Z</time>
      </trkpt>
      <trkpt lat="44.6943" lon="-1.01881">
        <ele>50.090153</ele>
        <time>2022-12-25T11:24:03.370Z</time>
      </trkpt>
      <trkpt lat="44.69419" lon="-1.01874">
        <ele>50.094009</ele>
        <time>2022-12-25T11:24:06.370Z</time>
      </trkpt>
      <trkpt lat="44.6941" lon="-1.01869">
        <ele>50.096862</ele>
        <time>2022-12-25T11:24:08.369Z</time>
      </trkpt>
      <trkpt lat="44.69401" lon="-1.01864">
        <ele>50.099889</ele>
        <time>2022-12-25T11:24:10.368Z</time>
      </trkpt>
      <trkpt lat="44.69391" lon="-1.01857">
        <ele>50.103217</ele>
        <time>2022-12-25T11:24:12.367Z</time>
      </trkpt>
      <trkpt lat="44.69383" lon="-1.0185">
        <ele>50.10614</ele>
        <time>2022-12-25T11:24:14.369Z</time>
      </trkpt>
      <trkpt lat="44.69374" lon="-1.01846">
        <ele>50.109081</ele>
        <time>2022-12-25T11:24:16.371Z</time>
      </trkpt>
      <trkpt lat="44.69365" lon="-1.01841">
        <ele>50.11213</ele>
        <time>2022-12-25T11:24:18.372Z</time>
      </trkpt>
      <trkpt lat="44.69356" lon="-1.01836">
        <ele>50.115029</ele>
        <time>2022-12-25T11:24:20.371Z</time>
      </trkpt>
      <trkpt lat="44.69347" lon="-1.01829">
        <ele>50.118162</ele>
        <time>2022-12-25T11:24:22.359Z</time>
      </trkpt>
      <trkpt lat="44.69339" lon="-1.01823">
        <ele>50.121032</ele>
        <time>2022-12-25T11:24:24.366Z</time>
      </trkpt>
      <trkpt lat="44.69327" lon="-1.01817">
        <ele>50.125024</ele>
        <time>2022-12-25T11:24:27.372Z</time>
      </trkpt>
      <trkpt lat="44.69315" lon="-1.01811">
        <ele>50.128923</ele>
        <time>2022-12-25T11:24:30.370Z</time>
      </trkpt>
      <trkpt lat="44.69304" lon="-1.01805">
        <ele>50.132566</ele>
        <time>2022-12-25T11:24:33.374Z</time>
      </trkpt>
      <trkpt lat="44.69293" lon="-1.01799">
        <ele>50.136195</ele>
        <time>2022-12-25T11:24:36.368Z</time>
      </trkpt>
      <trkpt lat="44.69282" lon="-1.01793">
        <ele>50.139652</ele>
        <time>2022-12-25T11:24:39.374Z</time>
      </trkpt>
      <trkpt lat="44.69273" lon="-1.01787">
        <ele>50.14282</ele>
        <time>2022-12-25T11:24:42.367Z</time>
      </trkpt>
      <trkpt lat="44.69262" lon="-1.01781">
        <ele>50.276942</ele>
        <time>2022-12-25T11:24:45.361Z</time>
      </trkpt>
      <trkpt lat="44.69251" lon="-1.01775">
        <ele>50.498336</ele>
        <time>2022-12-25T11:24:48.372Z</time>
      </trkpt>
      <trkpt lat="44.6924" lon="-1.01769">
        <ele>50.726236</ele>
        <time>2022-12-25T11:24:51.377Z</time>
      </trkpt>
      <trkpt lat="44.69228" lon="-1.01762">
        <ele>50.961601</ele>
        <time>2022-12-25T11:24:54.369Z</time>
      </trkpt>
      <trkpt lat="44.69219" lon="-1.01757">
        <ele>51.134255</ele>
        <time>2022-12-25T11:24:56.370Z</time>
      </trkpt>
      <trkpt lat="44.69211" lon="-1.01752">
        <ele>51.301922</ele>
        <time>2022-12-25T11:24:58.349Z</time>
      </trkpt>
      <trkpt lat="44.69202" lon="-1.01748">
        <ele>51.474444</ele>
        <time>2022-12-25T11:25:00.358Z</time>
      </trkpt>
      <trkpt lat="44.69194" lon="-1.01742">
        <ele>51.647098</ele>
        <time>2022-12-25T11:25:02.372Z</time>
      </trkpt>
      <trkpt lat="44.69182" lon="-1.01735">
        <ele>51.890824</ele>
        <time>2022-12-25T11:25:05.363Z</time>
      </trkpt>
      <trkpt lat="44.69173" lon="-1.0173">
        <ele>52.056797</ele>
        <time>2022-12-25T11:25:07.359Z</time>
      </trkpt>
      <trkpt lat="44.69165" lon="-1.01726">
        <ele>52.228404</ele>
        <time>2022-12-25T11:25:09.352Z</time>
      </trkpt>
      <trkpt lat="44.69155" lon="-1.01721">
        <ele>52.413667</ele>
        <time>2022-12-25T11:25:11.374Z</time>
      </trkpt>
      <trkpt lat="44.69146" lon="-1.01715">
        <ele>52.593096</ele>
        <time>2022-12-25T11:25:13.380Z</time>
      </trkpt>
      <trkpt lat="44.69138" lon="-1.0171">
        <ele>52.770826</ele>
        <time>2022-12-25T11:25:15.368Z</time>
      </trkpt>
      <trkpt lat="44.69129" lon="-1.01705">
        <ele>52.949229</ele>
        <time>2022-12-25T11:25:17.374Z</time>
      </trkpt>
      <trkpt lat="44.6912" lon="-1.01699">
        <ele>53.125264</ele>
        <time>2022-12-25T11:25:19.354Z</time>
      </trkpt>
      <trkpt lat="44.69112" lon="-1.01694">
        <ele>53.295673</ele>
        <time>2022-12-25T11:25:21.372Z</time>
      </trkpt>
      <trkpt lat="44.69103" lon="-1.01688">
        <ele>53.47056</ele>
        <time>2022-12-25T11:25:23.384Z</time>
      </trkpt>
      <trkpt lat="44.69091" lon="-1.0168">
        <ele>53.343088</ele>
        <time>2022-12-25T11:25:26.371Z</time>
      </trkpt>
      <trkpt lat="44.69078" lon="-1.01673">
        <ele>53.212653</ele>
        <time>2022-12-25T11:25:29.371Z</time>
      </trkpt>
      <trkpt lat="44.69066" lon="-1.01666">
        <ele>53.082717</ele>
        <time>2022-12-25T11:25:32.365Z</time>
      </trkpt>
      <trkpt lat="44.69054" lon="-1.01657">
        <ele>52.950135</ele>
        <time>2022-12-25T11:25:35.366Z</time>
      </trkpt>
      <trkpt lat="44.69045" lon="-1.01653">
        <ele>52.860458</ele>
        <time>2022-12-25T11:25:37.370Z</time>
      </trkpt>
      <trkpt lat="44.69034" lon="-1.01646">
        <ele>52.739577</ele>
        <time>2022-12-25T11:25:40.369Z</time>
      </trkpt>
      <trkpt lat="44.69023" lon="-1.01639">
        <ele>52.625543</ele>
        <time>2022-12-25T11:25:43.368Z</time>
      </trkpt>
      <trkpt lat="44.69014" lon="-1.01633">
        <ele>52.523293</ele>
        <time>2022-12-25T11:25:46.351Z</time>
      </trkpt>
      <trkpt lat="44.69004" lon="-1.01629">
        <ele>52.427502</ele>
        <time>2022-12-25T11:25:49.366Z</time>
      </trkpt>
      <trkpt lat="44.68994" lon="-1.01623">
        <ele>52.316291</ele>
        <time>2022-12-25T11:25:53.369Z</time>
      </trkpt>
      <trkpt lat="44.68984" lon="-1.01617">
        <ele>52.211328</ele>
        <time>2022-12-25T11:25:57.370Z</time>
      </trkpt>
      <trkpt lat="44.68975" lon="-1.01612">
        <ele>52.118415</ele>
        <time>2022-12-25T11:26:00.374Z</time>
      </trkpt>
      <trkpt lat="44.68965" lon="-1.01606">
        <ele>52.011385</ele>
        <time>2022-12-25T11:26:03.382Z</time>
      </trkpt>
      <trkpt lat="44.68954" lon="-1.016">
        <ele>51.8985</ele>
        <time>2022-12-25T11:26:06.367Z</time>
      </trkpt>
      <trkpt lat="44.68943" lon="-1.01592">
        <ele>51.778861</ele>
        <time>2022-12-25T11:26:09.350Z</time>
      </trkpt>
      <trkpt lat="44.68931" lon="-1.01585">
        <ele>51.70033</ele>
        <time>2022-12-25T11:26:12.370Z</time>
      </trkpt>
      <trkpt lat="44.68923" lon="-1.0158">
        <ele>51.677603</ele>
        <time>2022-12-25T11:26:14.371Z</time>
      </trkpt>
      <trkpt lat="44.68914" lon="-1.01576">
        <ele>51.654783</ele>
        <time>2022-12-25T11:26:16.369Z</time>
      </trkpt>
      <trkpt lat="44.68902" lon="-1.01569">
        <ele>51.620759</ele>
        <time>2022-12-25T11:26:19.351Z</time>
      </trkpt>
      <trkpt lat="44.68893" lon="-1.01563">
        <ele>51.595793</ele>
        <time>2022-12-25T11:26:21.372Z</time>
      </trkpt>
      <trkpt lat="44.68881" lon="-1.01556">
        <ele>51.56428</ele>
        <time>2022-12-25T11:26:24.349Z</time>
      </trkpt>
      <trkpt lat="44.68873" lon="-1.0155">
        <ele>51.541111</ele>
        <time>2022-12-25T11:26:26.373Z</time>
      </trkpt>
      <trkpt lat="44.68864" lon="-1.01547">
        <ele>51.518328</ele>
        <time>2022-12-25T11:26:28.348Z</time>
      </trkpt>
      <trkpt lat="44.68855" lon="-1.01542">
        <ele>51.49477</ele>
        <time>2022-12-25T11:26:30.369Z</time>
      </trkpt>
      <trkpt lat="44.68843" lon="-1.01535">
        <ele>51.4626</ele>
        <time>2022-12-25T11:26:33.372Z</time>
      </trkpt>
      <trkpt lat="44.68832" lon="-1.01529">
        <ele>51.43336</ele>
        <time>2022-12-25T11:26:36.349Z</time>
      </trkpt>
      <trkpt lat="44.68821" lon="-1.01523">
        <ele>51.403057</ele>
        <time>2022-12-25T11:26:39.370Z</time>
      </trkpt>
      <trkpt lat="44.6881" lon="-1.01515">
        <ele>51.371207</ele>
        <time>2022-12-25T11:26:42.369Z</time>
      </trkpt>
      <trkpt lat="44.68798" lon="-1.01508">
        <ele>51.338805</ele>
        <time>2022-12-25T11:26:45.358Z</time>
      </trkpt>
      <trkpt lat="44.68789" lon="-1.01503">
        <ele>51.315846</ele>
        <time>2022-12-25T11:26:47.359Z</time>
      </trkpt>
      <trkpt lat="44.68777" lon="-1.01495">
        <ele>51.281649</ele>
        <time>2022-12-25T11:26:50.369Z</time>
      </trkpt>
      <trkpt lat="44.68769" lon="-1.0149">
        <ele>51.265355</ele>
        <time>2022-12-25T11:26:52.367Z</time>
      </trkpt>
      <trkpt lat="44.68756" lon="-1.01483">
        <ele>51.258648</ele>
        <time>2022-12-25T11:26:55.362Z</time>
      </trkpt>
      <trkpt lat="44.68744" lon="-1.01474">
        <ele>51.251888</ele>
        <time>2022-12-25T11:26:58.369Z</time>
      </trkpt>
      <trkpt lat="44.68732" lon="-1.01467">
        <ele>51.24546</ele>
        <time>2022-12-25T11:27:01.365Z</time>
      </trkpt>
      <trkpt lat="44.68721" lon="-1.0146">
        <ele>51.239397</ele>
        <time>2022-12-25T11:27:04.366Z</time>
      </trkpt>
      <trkpt lat="44.68711" lon="-1.01454">
        <ele>51.233971</ele>
        <time>2022-12-25T11:27:07.371Z</time>
      </trkpt>
      <trkpt lat="44.68702" lon="-1.0145">
        <ele>51.229062</ele>
        <time>2022-12-25T11:27:10.355Z</time>
      </trkpt>
      <trkpt lat="44.68693" lon="-1.01446">
        <ele>51.224243</ele>
        <time>2022-12-25T11:27:15.370Z</time>
      </trkpt>
      <trkpt lat="44.68685" lon="-1.0144">
        <ele>51.219546</ele>
        <time>2022-12-25T11:27:22.352Z</time>
      </trkpt>
      <trkpt lat="44.68675" lon="-1.01432">
        <ele>51.214017</ele>
        <time>2022-12-25T11:27:27.356Z</time>
      </trkpt>
      <trkpt lat="44.68665" lon="-1.01425">
        <ele>51.208396</ele>
        <time>2022-12-25T11:27:31.355Z</time>
      </trkpt>
      <trkpt lat="44.68656" lon="-1.01419">
        <ele>51.203457</ele>
        <time>2022-12-25T11:27:34.367Z</time>
      </trkpt>
      <trkpt lat="44.68647" lon="-1.01412">
        <ele>51.198085</ele>
        <time>2022-12-25T11:27:37.358Z</time>
      </trkpt>
      <trkpt lat="44.68637" lon="-1.01405">
        <ele>51.192657</ele>
        <time>2022-12-25T11:27:40.344Z</time>
      </trkpt>
      <trkpt lat="44.68627" lon="-1.01397">
        <ele>51.186768</ele>
        <time>2022-12-25T11:27:43.355Z</time>
      </trkpt>
      <trkpt lat="44.68616" lon="-1.01391">
        <ele>51.181024</ele>
        <time>2022-12-25T11:27:46.372Z</time>
      </trkpt>
      <trkpt lat="44.68607" lon="-1.01384">
        <ele>51.208692</ele>
        <time>2022-12-25T11:27:49.371Z</time>
      </trkpt>
      <trkpt lat="44.68597" lon="-1.01378">
        <ele>51.439043</ele>
        <time>2022-12-25T11:27:53.364Z</time>
      </trkpt>
      <trkpt lat="44.68588" lon="-1.01372">
        <ele>51.636986</ele>
        <time>2022-12-25T11:27:57.369Z</time>
      </trkpt>
      <trkpt lat="44.68579" lon="-1.01364">
        <ele>51.850647</ele>
        <time>2022-12-25T11:28:01.361Z</time>
      </trkpt>
      <trkpt lat="44.6857" lon="-1.01353">
        <ele>52.100004</ele>
        <time>2022-12-25T11:28:05.343Z</time>
      </trkpt>
      <trkpt lat="44.68561" lon="-1.01345">
        <ele>52.314423</ele>
        <time>2022-12-25T11:28:08.369Z</time>
      </trkpt>
      <trkpt lat="44.68552" lon="-1.01334">
        <ele>52.544596</ele>
        <time>2022-12-25T11:28:11.365Z</time>
      </trkpt>
      <trkpt lat="44.68543" lon="-1.01323">
        <ele>52.784408</ele>
        <time>2022-12-25T11:28:14.371Z</time>
      </trkpt>
      <trkpt lat="44.68535" lon="-1.0131">
        <ele>53.030513</ele>
        <time>2022-12-25T11:28:17.368Z</time>
      </trkpt>
      <trkpt lat="44.68526" lon="-1.01298">
        <ele>53.289891</ele>
        <time>2022-12-25T11:28:20.367Z</time>
      </trkpt>
      <trkpt lat="44.68515" lon="-1.01287">
        <ele>53.55728</ele>
        <time>2022-12-25T11:28:23.350Z</time>
      </trkpt>
      <trkpt lat="44.68504" lon="-1.01277">
        <ele>53.835717</ele>
        <time>2022-12-25T11:28:26.378Z</time>
      </trkpt>
      <trkpt lat="44.68496" lon="-1.0127">
        <ele>54.023187</ele>
        <time>2022-12-25T11:28:28.350Z</time>
      </trkpt>
      <trkpt lat="44.68485" lon="-1.0126">
        <ele>54.289997</ele>
        <time>2022-12-25T11:28:31.368Z</time>
      </trkpt>
      <trkpt lat="44.68474" lon="-1.01251">
        <ele>54.541925</ele>
        <time>2022-12-25T11:28:34.370Z</time>
      </trkpt>
      <trkpt lat="44.68464" lon="-1.01241">
        <ele>54.799472</ele>
        <time>2022-12-25T11:28:37.368Z</time>
      </trkpt>
      <trkpt lat="44.68453" lon="-1.01231">
        <ele>54.71471</ele>
        <time>2022-12-25T11:28:40.372Z</time>
      </trkpt>
      <trkpt lat="44.68442" lon="-1.01221">
        <ele>54.603233</ele>
        <time>2022-12-25T11:28:43.385Z</time>
      </trkpt>
      <trkpt lat="44.68431" lon="-1.01211">
        <ele>54.489087</ele>
        <time>2022-12-25T11:28:46.361Z</time>
      </trkpt>
      <trkpt lat="44.6842" lon="-1.01201">
        <ele>54.377046</ele>
        <time>2022-12-25T11:28:49.364Z</time>
      </trkpt>
      <trkpt lat="44.68408" lon="-1.01192">
        <ele>54.262542</ele>
        <time>2022-12-25T11:28:52.364Z</time>
      </trkpt>
      <trkpt lat="44.68396" lon="-1.01183">
        <ele>54.14674</ele>
        <time>2022-12-25T11:28:55.365Z</time>
      </trkpt>
      <trkpt lat="44.68384" lon="-1.01175">
        <ele>54.030854</ele>
        <time>2022-12-25T11:28:58.366Z</time>
      </trkpt>
      <trkpt lat="44.68373" lon="-1.01166">
        <ele>53.919225</ele>
        <time>2022-12-25T11:29:01.370Z</time>
      </trkpt>
      <trkpt lat="44.68362" lon="-1.01158">
        <ele>53.813226</ele>
        <time>2022-12-25T11:29:04.387Z</time>
      </trkpt>
      <trkpt lat="44.68354" lon="-1.01151">
        <ele>53.731985</ele>
        <time>2022-12-25T11:29:06.347Z</time>
      </trkpt>
      <trkpt lat="44.68343" lon="-1.01141">
        <ele>53.619415</ele>
        <time>2022-12-25T11:29:09.376Z</time>
      </trkpt>
      <trkpt lat="44.68332" lon="-1.01131">
        <ele>53.505999</ele>
        <time>2022-12-25T11:29:12.367Z</time>
      </trkpt>
      <trkpt lat="44.68321" lon="-1.01119">
        <ele>53.390817</ele>
        <time>2022-12-25T11:29:15.364Z</time>
      </trkpt>
      <trkpt lat="44.68311" lon="-1.01108">
        <ele>53.282336</ele>
        <time>2022-12-25T11:29:18.372Z</time>
      </trkpt>
      <trkpt lat="44.68303" lon="-1.01098">
        <ele>53.138208</ele>
        <time>2022-12-25T11:29:21.355Z</time>
      </trkpt>
      <trkpt lat="44.68296" lon="-1.01088">
        <ele>53.004831</ele>
        <time>2022-12-25T11:29:24.372Z</time>
      </trkpt>
      <trkpt lat="44.68287" lon="-1.01078">
        <ele>52.849796</ele>
        <time>2022-12-25T11:29:27.359Z</time>
      </trkpt>
      <trkpt lat="44.68278" lon="-1.01068">
        <ele>52.692925</ele>
        <time>2022-12-25T11:29:30.349Z</time>
      </trkpt>
      <trkpt lat="44.68269" lon="-1.01056">
        <ele>52.530006</ele>
        <time>2022-12-25T11:29:33.373Z</time>
      </trkpt>
      <trkpt lat="44.68261" lon="-1.01046">
        <ele>52.389125</ele>
        <time>2022-12-25T11:29:36.346Z</time>
      </trkpt>
      <trkpt lat="44.68253" lon="-1.01036">
        <ele>52.243952</ele>
        <time>2022-12-25T11:29:39.370Z</time>
      </trkpt>
      <trkpt lat="44.68246" lon="-1.01026">
        <ele>52.104033</ele>
        <time>2022-12-25T11:29:42.373Z</time>
      </trkpt>
      <trkpt lat="44.68238" lon="-1.01016">
        <ele>51.96644</ele>
        <time>2022-12-25T11:29:45.372Z</time>
      </trkpt>
      <trkpt lat="44.68232" lon="-1.01008">
        <ele>51.844222</ele>
        <time>2022-12-25T11:29:48.367Z</time>
      </trkpt>
      <trkpt lat="44.68224" lon="-1.00997">
        <ele>51.695447</ele>
        <time>2022-12-25T11:29:56.357Z</time>
      </trkpt>
      <trkpt lat="44.68215" lon="-1.00986">
        <ele>51.53811</ele>
        <time>2022-12-25T11:30:01.367Z</time>
      </trkpt>
      <trkpt lat="44.68207" lon="-1.00973">
        <ele>51.371421</ele>
        <time>2022-12-25T11:30:05.367Z</time>
      </trkpt>
      <trkpt lat="44.68199" lon="-1.00963">
        <ele>51.224857</ele>
        <time>2022-12-25T11:30:08.355Z</time>
      </trkpt>
      <trkpt lat="44.68191" lon="-1.00952">
        <ele>51.081356</ele>
        <time>2022-12-25T11:30:11.372Z</time>
      </trkpt>
      <trkpt lat="44.68184" lon="-1.00943">
        <ele>50.945738</ele>
        <time>2022-12-25T11:30:14.374Z</time>
      </trkpt>
      <trkpt lat="44.68176" lon="-1.00931">
        <ele>50.800302</ele>
        <time>2022-12-25T11:30:17.369Z</time>
      </trkpt>
      <trkpt lat="44.68168" lon="-1.0092">
        <ele>50.670364</ele>
        <time>2022-12-25T11:30:20.368Z</time>
      </trkpt>
      <trkpt lat="44.68159" lon="-1.00907">
        <ele>50.531961</ele>
        <time>2022-12-25T11:30:23.376Z</time>
      </trkpt>
      <trkpt lat="44.6815" lon="-1.00894">
        <ele>50.387787</ele>
        <time>2022-12-25T11:30:26.372Z</time>
      </trkpt>
      <trkpt lat="44.68143" lon="-1.00885">
        <ele>50.287736</ele>
        <time>2022-12-25T11:30:28.370Z</time>
      </trkpt>
      <trkpt lat="44.68134" lon="-1.00871">
        <ele>50.141898</ele>
        <time>2022-12-25T11:30:31.369Z</time>
      </trkpt>
      <trkpt lat="44.68125" lon="-1.00858">
        <ele>49.990587</ele>
        <time>2022-12-25T11:30:34.348Z</time>
      </trkpt>
      <trkpt lat="44.68116" lon="-1.00844">
        <ele>49.842301</ele>
        <time>2022-12-25T11:30:37.368Z</time>
      </trkpt>
      <trkpt lat="44.68108" lon="-1.00835">
        <ele>49.739046</ele>
        <time>2022-12-25T11:30:39.350Z</time>
      </trkpt>
      <trkpt lat="44.68102" lon="-1.00827">
        <ele>49.638394</ele>
        <time>2022-12-25T11:30:41.370Z</time>
      </trkpt>
      <trkpt lat="44.68095" lon="-1.00817">
        <ele>49.537163</ele>
        <time>2022-12-25T11:30:43.371Z</time>
      </trkpt>
      <trkpt lat="44.68089" lon="-1.00809">
        <ele>49.436239</ele>
        <time>2022-12-25T11:30:45.368Z</time>
      </trkpt>
      <trkpt lat="44.68079" lon="-1.00795">
        <ele>49.287019</ele>
        <time>2022-12-25T11:30:48.348Z</time>
      </trkpt>
      <trkpt lat="44.68073" lon="-1.00786">
        <ele>49.18734</ele>
        <time>2022-12-25T11:30:50.366Z</time>
      </trkpt>
      <trkpt lat="44.68063" lon="-1.00773">
        <ele>49.041869</ele>
        <time>2022-12-25T11:30:53.368Z</time>
      </trkpt>
      <trkpt lat="44.68055" lon="-1.0076">
        <ele>48.901521</ele>
        <time>2022-12-25T11:30:56.371Z</time>
      </trkpt>
      <trkpt lat="44.68048" lon="-1.0075">
        <ele>48.946653</ele>
        <time>2022-12-25T11:30:58.353Z</time>
      </trkpt>
      <trkpt lat="44.68041" lon="-1.00741">
        <ele>49.092861</ele>
        <time>2022-12-25T11:31:00.365Z</time>
      </trkpt>
      <trkpt lat="44.68034" lon="-1.0073">
        <ele>49.244019</ele>
        <time>2022-12-25T11:31:02.375Z</time>
      </trkpt>
      <trkpt lat="44.68027" lon="-1.0072">
        <ele>49.403112</ele>
        <time>2022-12-25T11:31:04.368Z</time>
      </trkpt>
      <trkpt lat="44.6802" lon="-1.00711">
        <ele>49.545959</ele>
        <time>2022-12-25T11:31:06.371Z</time>
      </trkpt>
      <trkpt lat="44.68014" lon="-1.00702">
        <ele>49.69311</ele>
        <time>2022-12-25T11:31:08.362Z</time>
      </trkpt>
      <trkpt lat="44.68007" lon="-1.00693">
        <ele>49.83262</ele>
        <time>2022-12-25T11:31:10.367Z</time>
      </trkpt>
      <trkpt lat="44.67998" lon="-1.0068">
        <ele>50.023866</ele>
        <time>2022-12-25T11:31:13.381Z</time>
      </trkpt>
      <trkpt lat="44.67991" lon="-1.0067">
        <ele>50.184039</ele>
        <time>2022-12-25T11:31:16.371Z</time>
      </trkpt>
      <trkpt lat="44.67983" lon="-1.00658">
        <ele>50.365962</ele>
        <time>2022-12-25T11:31:20.353Z</time>
      </trkpt>
      <trkpt lat="44.67975" lon="-1.00646">
        <ele>50.540698</ele>
        <time>2022-12-25T11:31:23.379Z</time>
      </trkpt>
      <trkpt lat="44.67966" lon="-1.00633">
        <ele>50.739022</ele>
        <time>2022-12-25T11:31:26.352Z</time>
      </trkpt>
      <trkpt lat="44.67959" lon="-1.00624">
        <ele>50.889734</ele>
        <time>2022-12-25T11:31:28.371Z</time>
      </trkpt>
      <trkpt lat="44.67953" lon="-1.00614">
        <ele>51.034075</ele>
        <time>2022-12-25T11:31:30.371Z</time>
      </trkpt>
      <trkpt lat="44.67946" lon="-1.00605">
        <ele>51.177261</ele>
        <time>2022-12-25T11:31:32.370Z</time>
      </trkpt>
      <trkpt lat="44.67936" lon="-1.00591">
        <ele>51.396017</ele>
        <time>2022-12-25T11:31:35.369Z</time>
      </trkpt>
      <trkpt lat="44.6793" lon="-1.00581">
        <ele>51.538168</ele>
        <time>2022-12-25T11:31:37.350Z</time>
      </trkpt>
      <trkpt lat="44.67921" lon="-1.00569">
        <ele>51.664795</ele>
        <time>2022-12-25T11:31:40.371Z</time>
      </trkpt>
      <trkpt lat="44.67913" lon="-1.00558">
        <ele>51.722999</ele>
        <time>2022-12-25T11:31:43.385Z</time>
      </trkpt>
      <trkpt lat="44.67905" lon="-1.00545">
        <ele>51.786509</ele>
        <time>2022-12-25T11:31:46.363Z</time>
      </trkpt>
      <trkpt lat="44.67897" lon="-1.00533">
        <ele>51.852714</ele>
        <time>2022-12-25T11:31:49.374Z</time>
      </trkpt>
      <trkpt lat="44.67888" lon="-1.00521">
        <ele>51.916576</ele>
        <time>2022-12-25T11:31:52.371Z</time>
      </trkpt>
      <trkpt lat="44.6788" lon="-1.0051">
        <ele>51.974252</ele>
        <time>2022-12-25T11:31:55.374Z</time>
      </trkpt>
      <trkpt lat="44.67873" lon="-1.00501">
        <ele>52.027086</ele>
        <time>2022-12-25T11:31:58.365Z</time>
      </trkpt>
      <trkpt lat="44.67866" lon="-1.00492">
        <ele>52.075369</ele>
        <time>2022-12-25T11:32:01.366Z</time>
      </trkpt>
      <trkpt lat="44.67859" lon="-1.00481">
        <ele>52.129031</ele>
        <time>2022-12-25T11:32:05.365Z</time>
      </trkpt>
      <trkpt lat="44.67852" lon="-1.0047">
        <ele>52.187398</ele>
        <time>2022-12-25T11:32:09.362Z</time>
      </trkpt>
      <trkpt lat="44.67844" lon="-1.0046">
        <ele>52.240962</ele>
        <time>2022-12-25T11:32:12.357Z</time>
      </trkpt>
      <trkpt lat="44.67836" lon="-1.00449">
        <ele>52.300303</ele>
        <time>2022-12-25T11:32:15.369Z</time>
      </trkpt>
      <trkpt lat="44.67828" lon="-1.00437">
        <ele>52.364764</ele>
        <time>2022-12-25T11:32:18.371Z</time>
      </trkpt>
      <trkpt lat="44.67819" lon="-1.00424">
        <ele>52.431046</ele>
        <time>2022-12-25T11:32:21.362Z</time>
      </trkpt>
      <trkpt lat="44.67811" lon="-1.00411">
        <ele>52.497877</ele>
        <time>2022-12-25T11:32:24.348Z</time>
      </trkpt>
      <trkpt lat="44.67802" lon="-1.00398">
        <ele>52.56563</ele>
        <time>2022-12-25T11:32:27.371Z</time>
      </trkpt>
      <trkpt lat="44.67793" lon="-1.00386">
        <ele>52.57389</ele>
        <time>2022-12-25T11:32:30.362Z</time>
      </trkpt>
      <trkpt lat="44.67784" lon="-1.00373">
        <ele>52.56404</ele>
        <time>2022-12-25T11:32:33.381Z</time>
      </trkpt>
      <trkpt lat="44.67774" lon="-1.00358">
        <ele>52.553075</ele>
        <time>2022-12-25T11:32:36.362Z</time>
      </trkpt>
      <trkpt lat="44.67767" lon="-1.00349">
        <ele>52.545516</ele>
        <time>2022-12-25T11:32:38.354Z</time>
      </trkpt>
      <trkpt lat="44.67761" lon="-1.0034">
        <ele>52.538631</ele>
        <time>2022-12-25T11:32:40.362Z</time>
      </trkpt>
      <trkpt lat="44.67752" lon="-1.00327">
        <ele>52.528757</ele>
        <time>2022-12-25T11:32:43.372Z</time>
      </trkpt>
      <trkpt lat="44.67743" lon="-1.00315">
        <ele>52.519933</ele>
        <time>2022-12-25T11:32:46.369Z</time>
      </trkpt>
      <trkpt lat="44.67736" lon="-1.00303">
        <ele>52.511217</ele>
        <time>2022-12-25T11:32:49.371Z</time>
      </trkpt>
      <trkpt lat="44.67728" lon="-1.00291">
        <ele>52.502213</ele>
        <time>2022-12-25T11:32:52.369Z</time>
      </trkpt>
      <trkpt lat="44.67718" lon="-1.00279">
        <ele>52.492666</ele>
        <time>2022-12-25T11:32:55.370Z</time>
      </trkpt>
      <trkpt lat="44.67708" lon="-1.00267">
        <ele>52.482512</ele>
        <time>2022-12-25T11:32:58.371Z</time>
      </trkpt>
      <trkpt lat="44.67698" lon="-1.00255">
        <ele>52.472438</ele>
        <time>2022-12-25T11:33:01.371Z</time>
      </trkpt>
      <trkpt lat="44.67692" lon="-1.00246">
        <ele>52.465449</ele>
        <time>2022-12-25T11:33:03.381Z</time>
      </trkpt>
      <trkpt lat="44.67685" lon="-1.00236">
        <ele>52.457919</ele>
        <time>2022-12-25T11:33:05.371Z</time>
      </trkpt>
      <trkpt lat="44.67676" lon="-1.00223">
        <ele>52.447981</ele>
        <time>2022-12-25T11:33:08.368Z</time>
      </trkpt>
      <trkpt lat="44.67669" lon="-1.00212">
        <ele>52.494587</ele>
        <time>2022-12-25T11:33:10.372Z</time>
      </trkpt>
      <trkpt lat="44.67661" lon="-1.00198">
        <ele>52.64717</ele>
        <time>2022-12-25T11:33:13.381Z</time>
      </trkpt>
      <trkpt lat="44.67655" lon="-1.00188">
        <ele>52.753037</ele>
        <time>2022-12-25T11:33:15.352Z</time>
      </trkpt>
      <trkpt lat="44.67649" lon="-1.00179">
        <ele>52.858194</ele>
        <time>2022-12-25T11:33:17.368Z</time>
      </trkpt>
      <trkpt lat="44.67639" lon="-1.00165">
        <ele>53.018156</ele>
        <time>2022-12-25T11:33:20.371Z</time>
      </trkpt>
      <trkpt lat="44.67633" lon="-1.00157">
        <ele>53.124727</ele>
        <time>2022-12-25T11:33:22.362Z</time>
      </trkpt>
      <trkpt lat="44.67626" lon="-1.00147">
        <ele>53.235701</ele>
        <time>2022-12-25T11:33:24.371Z</time>
      </trkpt>
      <trkpt lat="44.67617" lon="-1.00134">
        <ele>53.380666</ele>
        <time>2022-12-25T11:33:27.368Z</time>
      </trkpt>
      <trkpt lat="44.67611" lon="-1.00125">
        <ele>53.486961</ele>
        <time>2022-12-25T11:33:29.372Z</time>
      </trkpt>
      <trkpt lat="44.67603" lon="-1.00112">
        <ele>53.629217</ele>
        <time>2022-12-25T11:33:32.369Z</time>
      </trkpt>
      <trkpt lat="44.67592" lon="-1.00099">
        <ele>53.800025</ele>
        <time>2022-12-25T11:33:35.371Z</time>
      </trkpt>
      <trkpt lat="44.67585" lon="-1.00089">
        <ele>53.915672</ele>
        <time>2022-12-25T11:33:37.372Z</time>
      </trkpt>
      <trkpt lat="44.67575" lon="-1.00076">
        <ele>54.064955</ele>
        <time>2022-12-25T11:33:40.353Z</time>
      </trkpt>
      <trkpt lat="44.67566" lon="-1.00063">
        <ele>54.218468</ele>
        <time>2022-12-25T11:33:43.378Z</time>
      </trkpt>
      <trkpt lat="44.67557" lon="-1.00051">
        <ele>54.36668</ele>
        <time>2022-12-25T11:33:46.372Z</time>
      </trkpt>
      <trkpt lat="44.6755" lon="-1.0004">
        <ele>54.482071</ele>
        <time>2022-12-25T11:33:48.370Z</time>
      </trkpt>
      <trkpt lat="44.67544" lon="-1.00031">
        <ele>54.526084</ele>
        <time>2022-12-25T11:33:50.375Z</time>
      </trkpt>
      <trkpt lat="44.67534" lon="-1.00018">
        <ele>54.501866</ele>
        <time>2022-12-25T11:33:53.374Z</time>
      </trkpt>
      <trkpt lat="44.67527" lon="-1.00008">
        <ele>54.484488</ele>
        <time>2022-12-25T11:33:55.370Z</time>
      </trkpt>
      <trkpt lat="44.67519" lon="-0.99997">
        <ele>54.464301</ele>
        <time>2022-12-25T11:33:58.370Z</time>
      </trkpt>
      <trkpt lat="44.67512" lon="-0.99987">
        <ele>54.44698</ele>
        <time>2022-12-25T11:34:00.359Z</time>
      </trkpt>
      <trkpt lat="44.67503" lon="-0.99973">
        <ele>54.423865</ele>
        <time>2022-12-25T11:34:03.381Z</time>
      </trkpt>
      <trkpt lat="44.67493" lon="-0.99959">
        <ele>54.399154</ele>
        <time>2022-12-25T11:34:06.360Z</time>
      </trkpt>
      <trkpt lat="44.67486" lon="-0.9995">
        <ele>54.382522</ele>
        <time>2022-12-25T11:34:08.373Z</time>
      </trkpt>
      <trkpt lat="44.67479" lon="-0.9994">
        <ele>54.364946</ele>
        <time>2022-12-25T11:34:10.372Z</time>
      </trkpt>
      <trkpt lat="44.67472" lon="-0.9993">
        <ele>54.347635</ele>
        <time>2022-12-25T11:34:12.375Z</time>
      </trkpt>
      <trkpt lat="44.67466" lon="-0.9992">
        <ele>54.330912</ele>
        <time>2022-12-25T11:34:14.373Z</time>
      </trkpt>
      <trkpt lat="44.67459" lon="-0.9991">
        <ele>54.312774</ele>
        <time>2022-12-25T11:34:16.369Z</time>
      </trkpt>
      <trkpt lat="44.67453" lon="-0.999">
        <ele>54.29624</ele>
        <time>2022-12-25T11:34:18.371Z</time>
      </trkpt>
      <trkpt lat="44.67445" lon="-0.99892">
        <ele>54.279203</ele>
        <time>2022-12-25T11:34:20.372Z</time>
      </trkpt>
      <trkpt lat="44.67436" lon="-0.99879">
        <ele>54.255927</ele>
        <time>2022-12-25T11:34:23.353Z</time>
      </trkpt>
      <trkpt lat="44.67428" lon="-0.99868">
        <ele>54.236857</ele>
        <time>2022-12-25T11:34:26.368Z</time>
      </trkpt>
      <trkpt lat="44.67421" lon="-0.99858">
        <ele>54.219234</ele>
        <time>2022-12-25T11:34:29.369Z</time>
      </trkpt>
      <trkpt lat="44.67414" lon="-0.99848">
        <ele>54.293549</ele>
        <time>2022-12-25T11:34:32.371Z</time>
      </trkpt>
      <trkpt lat="44.67406" lon="-0.99837">
        <ele>54.381671</ele>
        <time>2022-12-25T11:34:35.369Z</time>
      </trkpt>
      <trkpt lat="44.67399" lon="-0.99827">
        <ele>54.466723</ele>
        <time>2022-12-25T11:34:38.372Z</time>
      </trkpt>
      <trkpt lat="44.67392" lon="-0.99817">
        <ele>54.548222</ele>
        <time>2022-12-25T11:34:40.367Z</time>
      </trkpt>
      <trkpt lat="44.67386" lon="-0.99806">
        <ele>54.631614</ele>
        <time>2022-12-25T11:34:42.372Z</time>
      </trkpt>
      <trkpt lat="44.67378" lon="-0.99795">
        <ele>54.726269</ele>
        <time>2022-12-25T11:34:45.372Z</time>
      </trkpt>
      <trkpt lat="44.67367" lon="-0.9978">
        <ele>54.851653</ele>
        <time>2022-12-25T11:34:48.373Z</time>
      </trkpt>
      <trkpt lat="44.6736" lon="-0.99771">
        <ele>54.927433</ele>
        <time>2022-12-25T11:34:50.372Z</time>
      </trkpt>
      <trkpt lat="44.67354" lon="-0.99761">
        <ele>55.007125</ele>
        <time>2022-12-25T11:34:52.362Z</time>
      </trkpt>
      <trkpt lat="44.67347" lon="-0.99751">
        <ele>55.091516</ele>
        <time>2022-12-25T11:34:54.365Z</time>
      </trkpt>
      <trkpt lat="44.67338" lon="-0.99737">
        <ele>55.199317</ele>
        <time>2022-12-25T11:34:57.375Z</time>
      </trkpt>
      <trkpt lat="44.67332" lon="-0.99727">
        <ele>55.276437</ele>
        <time>2022-12-25T11:34:59.369Z</time>
      </trkpt>
      <trkpt lat="44.67323" lon="-0.99715">
        <ele>55.382865</ele>
        <time>2022-12-25T11:35:02.358Z</time>
      </trkpt>
      <trkpt lat="44.67314" lon="-0.99703">
        <ele>55.480208</ele>
        <time>2022-12-25T11:35:05.348Z</time>
      </trkpt>
      <trkpt lat="44.67306" lon="-0.99692">
        <ele>55.575438</ele>
        <time>2022-12-25T11:35:08.372Z</time>
      </trkpt>
      <trkpt lat="44.673" lon="-0.99681">
        <ele>55.659272</ele>
        <time>2022-12-25T11:35:11.371Z</time>
      </trkpt>
      <trkpt lat="44.67292" lon="-0.9967">
        <ele>55.673261</ele>
        <time>2022-12-25T11:35:14.370Z</time>
      </trkpt>
      <trkpt lat="44.67284" lon="-0.99659">
        <ele>55.587434</ele>
        <time>2022-12-25T11:35:17.375Z</time>
      </trkpt>
      <trkpt lat="44.67276" lon="-0.99648">
        <ele>55.503161</ele>
        <time>2022-12-25T11:35:20.347Z</time>
      </trkpt>
      <trkpt lat="44.67269" lon="-0.99639">
        <ele>55.430104</ele>
        <time>2022-12-25T11:35:23.366Z</time>
      </trkpt>
      <trkpt lat="44.67261" lon="-0.9963">
        <ele>55.352801</ele>
        <time>2022-12-25T11:35:27.373Z</time>
      </trkpt>
      <trkpt lat="44.67253" lon="-0.99618">
        <ele>55.264953</ele>
        <time>2022-12-25T11:35:31.364Z</time>
      </trkpt>
      <trkpt lat="44.67247" lon="-0.99607">
        <ele>55.189933</ele>
        <time>2022-12-25T11:35:34.349Z</time>
      </trkpt>
      <trkpt lat="44.67239" lon="-0.99596">
        <ele>55.104072</ele>
        <time>2022-12-25T11:35:37.348Z</time>
      </trkpt>
      <trkpt lat="44.6723" lon="-0.99583">
        <ele>55.012813</ele>
        <time>2022-12-25T11:35:40.370Z</time>
      </trkpt>
      <trkpt lat="44.67221" lon="-0.99571">
        <ele>54.918532</ele>
        <time>2022-12-25T11:35:43.370Z</time>
      </trkpt>
      <trkpt lat="44.67212" lon="-0.99558">
        <ele>54.821891</ele>
        <time>2022-12-25T11:35:46.371Z</time>
      </trkpt>
      <trkpt lat="44.67203" lon="-0.99545">
        <ele>54.722215</ele>
        <time>2022-12-25T11:35:49.373Z</time>
      </trkpt>
      <trkpt lat="44.67196" lon="-0.99536">
        <ele>54.651393</ele>
        <time>2022-12-25T11:35:51.368Z</time>
      </trkpt>
      <trkpt lat="44.67187" lon="-0.99523">
        <ele>54.55309</ele>
        <time>2022-12-25T11:35:54.371Z</time>
      </trkpt>
      <trkpt lat="44.67178" lon="-0.99511">
        <ele>54.456986</ele>
        <time>2022-12-25T11:35:57.374Z</time>
      </trkpt>
      <trkpt lat="44.67171" lon="-0.99499">
        <ele>54.376262</ele>
        <time>2022-12-25T11:36:00.369Z</time>
      </trkpt>
      <trkpt lat="44.67163" lon="-0.99488">
        <ele>54.300045</ele>
        <time>2022-12-25T11:36:03.384Z</time>
      </trkpt>
      <trkpt lat="44.67155" lon="-0.99476">
        <ele>54.222879</ele>
        <time>2022-12-25T11:36:06.355Z</time>
      </trkpt>
      <trkpt lat="44.67146" lon="-0.99464">
        <ele>54.141042</ele>
        <time>2022-12-25T11:36:09.376Z</time>
      </trkpt>
      <trkpt lat="44.6714" lon="-0.99455">
        <ele>54.079927</ele>
        <time>2022-12-25T11:36:11.369Z</time>
      </trkpt>
      <trkpt lat="44.6713" lon="-0.99442">
        <ele>53.989505</ele>
        <time>2022-12-25T11:36:14.348Z</time>
      </trkpt>
      <trkpt lat="44.6712" lon="-0.99428">
        <ele>53.898425</ele>
        <time>2022-12-25T11:36:17.371Z</time>
      </trkpt>
      <trkpt lat="44.67113" lon="-0.99418">
        <ele>53.832402</ele>
        <time>2022-12-25T11:36:19.369Z</time>
      </trkpt>
      <trkpt lat="44.67107" lon="-0.9941">
        <ele>53.772426</ele>
        <time>2022-12-25T11:36:21.371Z</time>
      </trkpt>
      <trkpt lat="44.67101" lon="-0.994">
        <ele>53.711676</ele>
        <time>2022-12-25T11:36:23.375Z</time>
      </trkpt>
      <trkpt lat="44.67092" lon="-0.99388">
        <ele>53.630981</ele>
        <time>2022-12-25T11:36:26.373Z</time>
      </trkpt>
      <trkpt lat="44.67082" lon="-0.99375">
        <ele>53.54327</ele>
        <time>2022-12-25T11:36:29.359Z</time>
      </trkpt>
      <trkpt lat="44.67076" lon="-0.99365">
        <ele>53.479688</ele>
        <time>2022-12-25T11:36:31.371Z</time>
      </trkpt>
      <trkpt lat="44.67069" lon="-0.99356">
        <ele>53.414537</ele>
        <time>2022-12-25T11:36:33.362Z</time>
      </trkpt>
      <trkpt lat="44.67062" lon="-0.99346">
        <ele>53.348749</ele>
        <time>2022-12-25T11:36:35.353Z</time>
      </trkpt>
      <trkpt lat="44.67055" lon="-0.99335">
        <ele>53.279057</ele>
        <time>2022-12-25T11:36:37.367Z</time>
      </trkpt>
      <trkpt lat="44.67048" lon="-0.99325">
        <ele>53.211412</ele>
        <time>2022-12-25T11:36:39.373Z</time>
      </trkpt>
      <trkpt lat="44.67038" lon="-0.99312">
        <ele>53.39407</ele>
        <time>2022-12-25T11:36:42.359Z</time>
      </trkpt>
      <trkpt lat="44.67031" lon="-0.99302">
        <ele>53.868972</ele>
        <time>2022-12-25T11:36:44.367Z</time>
      </trkpt>
      <trkpt lat="44.67025" lon="-0.99292">
        <ele>54.303236</ele>
        <time>2022-12-25T11:36:46.372Z</time>
      </trkpt>
      <trkpt lat="44.67018" lon="-0.99283">
        <ele>54.747361</ele>
        <time>2022-12-25T11:36:48.371Z</time>
      </trkpt>
      <trkpt lat="44.67009" lon="-0.99271">
        <ele>55.333946</ele>
        <time>2022-12-25T11:36:51.359Z</time>
      </trkpt>
      <trkpt lat="44.67001" lon="-0.99259">
        <ele>55.915757</ele>
        <time>2022-12-25T11:36:54.369Z</time>
      </trkpt>
      <trkpt lat="44.66991" lon="-0.99246">
        <ele>56.527125</ele>
        <time>2022-12-25T11:36:57.371Z</time>
      </trkpt>
      <trkpt lat="44.66983" lon="-0.99234">
        <ele>57.104201</ele>
        <time>2022-12-25T11:37:00.358Z</time>
      </trkpt>
      <trkpt lat="44.66976" lon="-0.99222">
        <ele>57.62993</ele>
        <time>2022-12-25T11:37:02.365Z</time>
      </trkpt>
      <trkpt lat="44.66969" lon="-0.99213">
        <ele>58.061176</ele>
        <time>2022-12-25T11:37:04.349Z</time>
      </trkpt>
      <trkpt lat="44.6696" lon="-0.992">
        <ele>58.644475</ele>
        <time>2022-12-25T11:37:08.347Z</time>
      </trkpt>
      <trkpt lat="44.66954" lon="-0.99191">
        <ele>59.091825</ele>
        <time>2022-12-25T11:37:11.368Z</time>
      </trkpt>
      <trkpt lat="44.66945" lon="-0.9918">
        <ele>59.640085</ele>
        <time>2022-12-25T11:37:14.371Z</time>
      </trkpt>
      <trkpt lat="44.66937" lon="-0.99167">
        <ele>60.224983</ele>
        <time>2022-12-25T11:37:17.362Z</time>
      </trkpt>
      <trkpt lat="44.66928" lon="-0.99155">
        <ele>60.797799</ele>
        <time>2022-12-25T11:37:20.346Z</time>
      </trkpt>
      <trkpt lat="44.66919" lon="-0.99142">
        <ele>61.396731</ele>
        <time>2022-12-25T11:37:23.379Z</time>
      </trkpt>
      <trkpt lat="44.6691" lon="-0.9913">
        <ele>61.381534</ele>
        <time>2022-12-25T11:37:26.377Z</time>
      </trkpt>
      <trkpt lat="44.66901" lon="-0.99117">
        <ele>60.942438</ele>
        <time>2022-12-25T11:37:29.357Z</time>
      </trkpt>
      <trkpt lat="44.66891" lon="-0.99103">
        <ele>60.477805</ele>
        <time>2022-12-25T11:37:32.364Z</time>
      </trkpt>
      <trkpt lat="44.66885" lon="-0.99094">
        <ele>60.160014</ele>
        <time>2022-12-25T11:37:34.373Z</time>
      </trkpt>
      <trkpt lat="44.66876" lon="-0.99081">
        <ele>59.711931</ele>
        <time>2022-12-25T11:37:37.374Z</time>
      </trkpt>
      <trkpt lat="44.66867" lon="-0.99066">
        <ele>59.249816</ele>
        <time>2022-12-25T11:37:40.350Z</time>
      </trkpt>
      <trkpt lat="44.66859" lon="-0.99053">
        <ele>58.840867</ele>
        <time>2022-12-25T11:37:43.372Z</time>
      </trkpt>
      <trkpt lat="44.66851" lon="-0.99039">
        <ele>58.390892</ele>
        <time>2022-12-25T11:37:46.374Z</time>
      </trkpt>
      <trkpt lat="44.66844" lon="-0.9903">
        <ele>58.059873</ele>
        <time>2022-12-25T11:37:48.371Z</time>
      </trkpt>
      <trkpt lat="44.66837" lon="-0.99021">
        <ele>57.745447</ele>
        <time>2022-12-25T11:37:50.366Z</time>
      </trkpt>
      <trkpt lat="44.66831" lon="-0.99011">
        <ele>57.42085</ele>
        <time>2022-12-25T11:37:52.372Z</time>
      </trkpt>
      <trkpt lat="44.66824" lon="-0.99002">
        <ele>57.107484</ele>
        <time>2022-12-25T11:37:54.344Z</time>
      </trkpt>
      <trkpt lat="44.66817" lon="-0.98992">
        <ele>56.769806</ele>
        <time>2022-12-25T11:37:56.359Z</time>
      </trkpt>
      <trkpt lat="44.6681" lon="-0.98982">
        <ele>56.432381</ele>
        <time>2022-12-25T11:37:58.368Z</time>
      </trkpt>
      <trkpt lat="44.66803" lon="-0.98973">
        <ele>56.09711</ele>
        <time>2022-12-25T11:38:00.371Z</time>
      </trkpt>
      <trkpt lat="44.66797" lon="-0.98963">
        <ele>55.788382</ele>
        <time>2022-12-25T11:38:02.372Z</time>
      </trkpt>
      <trkpt lat="44.6679" lon="-0.98953">
        <ele>55.496999</ele>
        <time>2022-12-25T11:38:04.369Z</time>
      </trkpt>
      <trkpt lat="44.66782" lon="-0.98944">
        <ele>55.46789</ele>
        <time>2022-12-25T11:38:06.355Z</time>
      </trkpt>
      <trkpt lat="44.66775" lon="-0.98935">
        <ele>55.441714</ele>
        <time>2022-12-25T11:38:08.370Z</time>
      </trkpt>
      <trkpt lat="44.66769" lon="-0.98926">
        <ele>55.414253</ele>
        <time>2022-12-25T11:38:10.370Z</time>
      </trkpt>
      <trkpt lat="44.66762" lon="-0.98916">
        <ele>55.385076</ele>
        <time>2022-12-25T11:38:12.358Z</time>
      </trkpt>
      <trkpt lat="44.66752" lon="-0.98903">
        <ele>55.34752</ele>
        <time>2022-12-25T11:38:15.367Z</time>
      </trkpt>
      <trkpt lat="44.66745" lon="-0.98891">
        <ele>55.313909</ele>
        <time>2022-12-25T11:38:18.370Z</time>
      </trkpt>
      <trkpt lat="44.66736" lon="-0.9888">
        <ele>55.278749</ele>
        <time>2022-12-25T11:38:21.372Z</time>
      </trkpt>
      <trkpt lat="44.66727" lon="-0.98867">
        <ele>55.241952</ele>
        <time>2022-12-25T11:38:24.371Z</time>
      </trkpt>
      <trkpt lat="44.66718" lon="-0.98854">
        <ele>55.204273</ele>
        <time>2022-12-25T11:38:27.373Z</time>
      </trkpt>
      <trkpt lat="44.66711" lon="-0.98845">
        <ele>55.177842</ele>
        <time>2022-12-25T11:38:29.370Z</time>
      </trkpt>
      <trkpt lat="44.66705" lon="-0.98836">
        <ele>55.151726</ele>
        <time>2022-12-25T11:38:31.377Z</time>
      </trkpt>
      <trkpt lat="44.66698" lon="-0.98826">
        <ele>55.124264</ele>
        <time>2022-12-25T11:38:33.380Z</time>
      </trkpt>
      <trkpt lat="44.66691" lon="-0.98816">
        <ele>55.096009</ele>
        <time>2022-12-25T11:38:35.368Z</time>
      </trkpt>
      <trkpt lat="44.66685" lon="-0.98806">
        <ele>55.067201</ele>
        <time>2022-12-25T11:38:37.355Z</time>
      </trkpt>
      <trkpt lat="44.66678" lon="-0.98797">
        <ele>55.039688</ele>
        <time>2022-12-25T11:38:39.366Z</time>
      </trkpt>
      <trkpt lat="44.66672" lon="-0.98787">
        <ele>55.012874</ele>
        <time>2022-12-25T11:38:41.372Z</time>
      </trkpt>
      <trkpt lat="44.66665" lon="-0.98778">
        <ele>54.985745</ele>
        <time>2022-12-25T11:38:43.383Z</time>
      </trkpt>
      <trkpt lat="44.66658" lon="-0.98769">
        <ele>55.059353</ele>
        <time>2022-12-25T11:38:45.370Z</time>
      </trkpt>
      <trkpt lat="44.66651" lon="-0.98758">
        <ele>55.154943</ele>
        <time>2022-12-25T11:38:47.370Z</time>
      </trkpt>
      <trkpt lat="44.66645" lon="-0.98749">
        <ele>55.240196</ele>
        <time>2022-12-25T11:38:49.351Z</time>
      </trkpt>
      <trkpt lat="44.66638" lon="-0.98739">
        <ele>55.331821</ele>
        <time>2022-12-25T11:38:51.369Z</time>
      </trkpt>
      <trkpt lat="44.66631" lon="-0.98729">
        <ele>55.42765</ele>
        <time>2022-12-25T11:38:53.385Z</time>
      </trkpt>
      <trkpt lat="44.66625" lon="-0.98719">
        <ele>55.514874</ele>
        <time>2022-12-25T11:38:55.347Z</time>
      </trkpt>
      <trkpt lat="44.66619" lon="-0.9871">
        <ele>55.599648</ele>
        <time>2022-12-25T11:38:57.372Z</time>
      </trkpt>
      <trkpt lat="44.66611" lon="-0.98698">
        <ele>55.704704</ele>
        <time>2022-12-25T11:39:00.358Z</time>
      </trkpt>
      <trkpt lat="44.66603" lon="-0.98686">
        <ele>55.819542</ele>
        <time>2022-12-25T11:39:03.345Z</time>
      </trkpt>
      <trkpt lat="44.66594" lon="-0.98673">
        <ele>55.937319</ele>
        <time>2022-12-25T11:39:06.370Z</time>
      </trkpt>
      <trkpt lat="44.66585" lon="-0.9866">
        <ele>56.057675</ele>
        <time>2022-12-25T11:39:09.372Z</time>
      </trkpt>
      <trkpt lat="44.66575" lon="-0.98648">
        <ele>56.185124</ele>
        <time>2022-12-25T11:39:12.359Z</time>
      </trkpt>
      <trkpt lat="44.66567" lon="-0.98636">
        <ele>56.295396</ele>
        <time>2022-12-25T11:39:15.364Z</time>
      </trkpt>
      <trkpt lat="44.66559" lon="-0.98625">
        <ele>56.400342</ele>
        <time>2022-12-25T11:39:18.373Z</time>
      </trkpt>
      <trkpt lat="44.66552" lon="-0.98616">
        <ele>56.492393</ele>
        <time>2022-12-25T11:39:21.372Z</time>
      </trkpt>
      <trkpt lat="44.66543" lon="-0.98603">
        <ele>56.608664</ele>
        <time>2022-12-25T11:39:25.372Z</time>
      </trkpt>
      <trkpt lat="44.66536" lon="-0.98595">
        <ele>56.667121</ele>
        <time>2022-12-25T11:39:28.356Z</time>
      </trkpt>
      <trkpt lat="44.66528" lon="-0.98586">
        <ele>56.603188</ele>
        <time>2022-12-25T11:39:32.348Z</time>
      </trkpt>
      <trkpt lat="44.66521" lon="-0.98577">
        <ele>56.544386</ele>
        <time>2022-12-25T11:39:36.361Z</time>
      </trkpt>
      <trkpt lat="44.66516" lon="-0.98566">
        <ele>56.48668</ele>
        <time>2022-12-25T11:39:39.369Z</time>
      </trkpt>
      <trkpt lat="44.66508" lon="-0.98553">
        <ele>56.412066</ele>
        <time>2022-12-25T11:39:43.377Z</time>
      </trkpt>
      <trkpt lat="44.66501" lon="-0.98544">
        <ele>56.34842</ele>
        <time>2022-12-25T11:39:46.370Z</time>
      </trkpt>
      <trkpt lat="44.66494" lon="-0.98532">
        <ele>56.280362</ele>
        <time>2022-12-25T11:39:49.366Z</time>
      </trkpt>
      <trkpt lat="44.66485" lon="-0.98522">
        <ele>56.210031</ele>
        <time>2022-12-25T11:39:52.352Z</time>
      </trkpt>
      <trkpt lat="44.66477" lon="-0.98511">
        <ele>56.14182</ele>
        <time>2022-12-25T11:39:55.371Z</time>
      </trkpt>
      <trkpt lat="44.66469" lon="-0.98499">
        <ele>56.067782</ele>
        <time>2022-12-25T11:39:58.371Z</time>
      </trkpt>
      <trkpt lat="44.66461" lon="-0.98488">
        <ele>55.994815</ele>
        <time>2022-12-25T11:40:01.372Z</time>
      </trkpt>
      <trkpt lat="44.66452" lon="-0.98475">
        <ele>55.919387</ele>
        <time>2022-12-25T11:40:04.368Z</time>
      </trkpt>
      <trkpt lat="44.66444" lon="-0.98463">
        <ele>55.845144</ele>
        <time>2022-12-25T11:40:07.370Z</time>
      </trkpt>
      <trkpt lat="44.66436" lon="-0.98451">
        <ele>55.770667</ele>
        <time>2022-12-25T11:40:10.374Z</time>
      </trkpt>
      <trkpt lat="44.66428" lon="-0.98439">
        <ele>55.697132</ele>
        <time>2022-12-25T11:40:13.386Z</time>
      </trkpt>
      <trkpt lat="44.66419" lon="-0.98427">
        <ele>55.619319</ele>
        <time>2022-12-25T11:40:16.352Z</time>
      </trkpt>
      <trkpt lat="44.6641" lon="-0.98413">
        <ele>55.52968</ele>
        <time>2022-12-25T11:40:19.373Z</time>
      </trkpt>
      <trkpt lat="44.66401" lon="-0.984">
        <ele>55.417978</ele>
        <time>2022-12-25T11:40:22.373Z</time>
      </trkpt>
      <trkpt lat="44.66392" lon="-0.98387">
        <ele>55.307752</ele>
        <time>2022-12-25T11:40:25.366Z</time>
      </trkpt>
      <trkpt lat="44.66385" lon="-0.98378">
        <ele>55.227739</ele>
        <time>2022-12-25T11:40:27.371Z</time>
      </trkpt>
      <trkpt lat="44.66379" lon="-0.98369">
        <ele>55.150317</ele>
        <time>2022-12-25T11:40:29.372Z</time>
      </trkpt>
      <trkpt lat="44.6637" lon="-0.98358">
        <ele>55.047543</ele>
        <time>2022-12-25T11:40:32.360Z</time>
      </trkpt>
      <trkpt lat="44.66363" lon="-0.98347">
        <ele>54.956027</ele>
        <time>2022-12-25T11:40:35.364Z</time>
      </trkpt>
      <trkpt lat="44.66355" lon="-0.98337">
        <ele>54.862002</ele>
        <time>2022-12-25T11:40:38.350Z</time>
      </trkpt>
      <trkpt lat="44.66347" lon="-0.98324">
        <ele>54.759035</ele>
        <time>2022-12-25T11:40:41.350Z</time>
      </trkpt>
      <trkpt lat="44.66338" lon="-0.98311">
        <ele>54.648044</ele>
        <time>2022-12-25T11:40:44.359Z</time>
      </trkpt>
      <trkpt lat="44.66328" lon="-0.98298">
        <ele>54.53565</ele>
        <time>2022-12-25T11:40:47.365Z</time>
      </trkpt>
      <trkpt lat="44.66322" lon="-0.9829">
        <ele>54.457501</ele>
        <time>2022-12-25T11:40:49.351Z</time>
      </trkpt>
      <trkpt lat="44.66312" lon="-0.98278">
        <ele>54.347173</ele>
        <time>2022-12-25T11:40:52.374Z</time>
      </trkpt>
      <trkpt lat="44.66303" lon="-0.98264">
        <ele>54.236788</ele>
        <time>2022-12-25T11:40:55.373Z</time>
      </trkpt>
      <trkpt lat="44.66295" lon="-0.98251">
        <ele>54.13007</ele>
        <time>2022-12-25T11:40:58.377Z</time>
      </trkpt>
      <trkpt lat="44.66286" lon="-0.98239">
        <ele>54.019149</ele>
        <time>2022-12-25T11:41:01.372Z</time>
      </trkpt>
      <trkpt lat="44.66279" lon="-0.9823">
        <ele>53.991317</ele>
        <time>2022-12-25T11:41:03.375Z</time>
      </trkpt>
      <trkpt lat="44.6627" lon="-0.98217">
        <ele>53.960106</ele>
        <time>2022-12-25T11:41:06.372Z</time>
      </trkpt>
      <trkpt lat="44.66261" lon="-0.98203">
        <ele>53.928311</ele>
        <time>2022-12-25T11:41:09.355Z</time>
      </trkpt>
      <trkpt lat="44.66254" lon="-0.98194">
        <ele>53.906519</ele>
        <time>2022-12-25T11:41:11.346Z</time>
      </trkpt>
      <trkpt lat="44.66247" lon="-0.98185">
        <ele>53.883516</ele>
        <time>2022-12-25T11:41:13.384Z</time>
      </trkpt>
      <trkpt lat="44.66238" lon="-0.98172">
        <ele>53.851999</ele>
        <time>2022-12-25T11:41:16.368Z</time>
      </trkpt>
      <trkpt lat="44.66229" lon="-0.98159">
        <ele>53.820022</ele>
        <time>2022-12-25T11:41:19.369Z</time>
      </trkpt>
      <trkpt lat="44.66222" lon="-0.98149">
        <ele>53.79794</ele>
        <time>2022-12-25T11:41:21.374Z</time>
      </trkpt>
      <trkpt lat="44.66216" lon="-0.9814">
        <ele>53.775979</ele>
        <time>2022-12-25T11:41:23.369Z</time>
      </trkpt>
      <trkpt lat="44.66209" lon="-0.98131">
        <ele>53.754149</ele>
        <time>2022-12-25T11:41:25.380Z</time>
      </trkpt>
      <trkpt lat="44.66202" lon="-0.98122">
        <ele>53.731531</ele>
        <time>2022-12-25T11:41:27.354Z</time>
      </trkpt>
      <trkpt lat="44.66195" lon="-0.98112">
        <ele>53.707224</ele>
        <time>2022-12-25T11:41:29.348Z</time>
      </trkpt>
      <trkpt lat="44.66189" lon="-0.98102">
        <ele>53.684818</ele>
        <time>2022-12-25T11:41:31.372Z</time>
      </trkpt>
      <trkpt lat="44.66183" lon="-0.98092">
        <ele>53.661115</ele>
        <time>2022-12-25T11:41:33.381Z</time>
      </trkpt>
      <trkpt lat="44.66176" lon="-0.98082">
        <ele>53.638709</ele>
        <time>2022-12-25T11:41:35.357Z</time>
      </trkpt>
      <trkpt lat="44.66169" lon="-0.98073">
        <ele>53.616633</ele>
        <time>2022-12-25T11:41:37.378Z</time>
      </trkpt>
      <trkpt lat="44.66163" lon="-0.98064">
        <ele>53.59373</ele>
        <time>2022-12-25T11:41:39.352Z</time>
      </trkpt>
      <trkpt lat="44.66156" lon="-0.98055">
        <ele>53.594932</ele>
        <time>2022-12-25T11:41:41.371Z</time>
      </trkpt>
      <trkpt lat="44.66146" lon="-0.98041">
        <ele>53.649306</ele>
        <time>2022-12-25T11:41:44.366Z</time>
      </trkpt>
      <trkpt lat="44.66139" lon="-0.98032">
        <ele>53.689022</ele>
        <time>2022-12-25T11:41:46.373Z</time>
      </trkpt>
      <trkpt lat="44.66133" lon="-0.98021">
        <ele>53.729287</ele>
        <time>2022-12-25T11:41:48.374Z</time>
      </trkpt>
      <trkpt lat="44.66126" lon="-0.98012">
        <ele>53.767881</ele>
        <time>2022-12-25T11:41:50.348Z</time>
      </trkpt>
      <trkpt lat="44.6612" lon="-0.98003">
        <ele>53.80474</ele>
        <time>2022-12-25T11:41:52.346Z</time>
      </trkpt>
      <trkpt lat="44.66113" lon="-0.97993">
        <ele>53.841315</ele>
        <time>2022-12-25T11:41:54.346Z</time>
      </trkpt>
      <trkpt lat="44.66104" lon="-0.9798">
        <ele>53.896557</ele>
        <time>2022-12-25T11:41:57.354Z</time>
      </trkpt>
      <trkpt lat="44.66098" lon="-0.9797">
        <ele>53.934243</ele>
        <time>2022-12-25T11:41:59.365Z</time>
      </trkpt>
      <trkpt lat="44.66088" lon="-0.97957">
        <ele>53.989109</ele>
        <time>2022-12-25T11:42:02.350Z</time>
      </trkpt>
      <trkpt lat="44.66082" lon="-0.97947">
        <ele>54.026617</ele>
        <time>2022-12-25T11:42:04.350Z</time>
      </trkpt>
      <trkpt lat="44.66073" lon="-0.97934">
        <ele>54.077195</ele>
        <time>2022-12-25T11:42:07.355Z</time>
      </trkpt>
      <trkpt lat="44.66065" lon="-0.97922">
        <ele>54.126796</ele>
        <time>2022-12-25T11:42:10.357Z</time>
      </trkpt>
      <trkpt lat="44.66055" lon="-0.9791">
        <ele>54.178697</ele>
        <time>2022-12-25T11:42:13.371Z</time>
      </trkpt>
      <trkpt lat="44.66046" lon="-0.97897">
        <ele>54.229435</ele>
        <time>2022-12-25T11:42:16.370Z</time>
      </trkpt>
      <trkpt lat="44.66039" lon="-0.97888">
        <ele>54.267879</ele>
        <time>2022-12-25T11:42:18.373Z</time>
      </trkpt>
      <trkpt lat="44.66033" lon="-0.9788">
        <ele>54.304331</ele>
        <time>2022-12-25T11:42:20.369Z</time>
      </trkpt>
      <trkpt lat="44.66023" lon="-0.97866">
        <ele>54.246732</ele>
        <time>2022-12-25T11:42:23.365Z</time>
      </trkpt>
      <trkpt lat="44.66016" lon="-0.97857">
        <ele>54.200051</ele>
        <time>2022-12-25T11:42:25.372Z</time>
      </trkpt>
      <trkpt lat="44.6601" lon="-0.97847">
        <ele>54.153215</ele>
        <time>2022-12-25T11:42:27.371Z</time>
      </trkpt>
      <trkpt lat="44.66003" lon="-0.97837">
        <ele>54.106211</ele>
        <time>2022-12-25T11:42:29.358Z</time>
      </trkpt>
      <trkpt lat="44.65997" lon="-0.97828">
        <ele>54.059541</ele>
        <time>2022-12-25T11:42:31.374Z</time>
      </trkpt>
      <trkpt lat="44.6599" lon="-0.97819">
        <ele>54.014197</ele>
        <time>2022-12-25T11:42:33.382Z</time>
      </trkpt>
      <trkpt lat="44.65984" lon="-0.9781">
        <ele>53.969802</ele>
        <time>2022-12-25T11:42:35.373Z</time>
      </trkpt>
      <trkpt lat="44.65977" lon="-0.978">
        <ele>53.920133</ele>
        <time>2022-12-25T11:42:37.372Z</time>
      </trkpt>
      <trkpt lat="44.6597" lon="-0.97791">
        <ele>53.873347</ele>
        <time>2022-12-25T11:42:39.349Z</time>
      </trkpt>
      <trkpt lat="44.6596" lon="-0.97777">
        <ele>53.807168</ele>
        <time>2022-12-25T11:42:42.372Z</time>
      </trkpt>
      <trkpt lat="44.65954" lon="-0.97767">
        <ele>53.758546</ele>
        <time>2022-12-25T11:42:44.373Z</time>
      </trkpt>
      <trkpt lat="44.65947" lon="-0.97758">
        <ele>53.711711</ele>
        <time>2022-12-25T11:42:46.375Z</time>
      </trkpt>
      <trkpt lat="44.6594" lon="-0.97747">
        <ele>53.66267</ele>
        <time>2022-12-25T11:42:48.372Z</time>
      </trkpt>
      <trkpt lat="44.65933" lon="-0.97738">
        <ele>53.61493</ele>
        <time>2022-12-25T11:42:50.355Z</time>
      </trkpt>
      <trkpt lat="44.65926" lon="-0.97728">
        <ele>53.566226</ele>
        <time>2022-12-25T11:42:52.373Z</time>
      </trkpt>
      <trkpt lat="44.65919" lon="-0.97718">
        <ele>53.516661</ele>
        <time>2022-12-25T11:42:54.373Z</time>
      </trkpt>
      <trkpt lat="44.65913" lon="-0.97708">
        <ele>53.469731</ele>
        <time>2022-12-25T11:42:56.353Z</time>
      </trkpt>
      <trkpt lat="44.65906" lon="-0.97699">
        <ele>53.424084</ele>
        <time>2022-12-25T11:42:58.372Z</time>
      </trkpt>
      <trkpt lat="44.65899" lon="-0.97689">
        <ele>53.479299</ele>
        <time>2022-12-25T11:43:00.368Z</time>
      </trkpt>
      <trkpt lat="44.6589" lon="-0.97676">
        <ele>53.56203</ele>
        <time>2022-12-25T11:43:03.373Z</time>
      </trkpt>
      <trkpt lat="44.65883" lon="-0.97667">
        <ele>53.624635</ele>
        <time>2022-12-25T11:43:06.375Z</time>
      </trkpt>
      <trkpt lat="44.65874" lon="-0.97656">
        <ele>53.695738</ele>
        <time>2022-12-25T11:43:09.370Z</time>
      </trkpt>
      <trkpt lat="44.65866" lon="-0.97643">
        <ele>53.773857</ele>
        <time>2022-12-25T11:43:12.359Z</time>
      </trkpt>
      <trkpt lat="44.65857" lon="-0.97629">
        <ele>53.85582</ele>
        <time>2022-12-25T11:43:15.371Z</time>
      </trkpt>
      <trkpt lat="44.65847" lon="-0.97616">
        <ele>53.941413</ele>
        <time>2022-12-25T11:43:18.373Z</time>
      </trkpt>
      <trkpt lat="44.6584" lon="-0.97607">
        <ele>54.001742</ele>
        <time>2022-12-25T11:43:20.375Z</time>
      </trkpt>
      <trkpt lat="44.65833" lon="-0.97597">
        <ele>54.064344</ele>
        <time>2022-12-25T11:43:22.380Z</time>
      </trkpt>
      <trkpt lat="44.65823" lon="-0.97583">
        <ele>54.149791</ele>
        <time>2022-12-25T11:43:25.370Z</time>
      </trkpt>
      <trkpt lat="44.65814" lon="-0.9757">
        <ele>54.231104</ele>
        <time>2022-12-25T11:43:28.353Z</time>
      </trkpt>
      <trkpt lat="44.65805" lon="-0.97556">
        <ele>54.315755</ele>
        <time>2022-12-25T11:43:31.372Z</time>
      </trkpt>
      <trkpt lat="44.65799" lon="-0.97546">
        <ele>54.374079</ele>
        <time>2022-12-25T11:43:33.375Z</time>
      </trkpt>
      <trkpt lat="44.65792" lon="-0.97537">
        <ele>54.433651</ele>
        <time>2022-12-25T11:43:35.369Z</time>
      </trkpt>
      <trkpt lat="44.65786" lon="-0.97528">
        <ele>54.491212</ele>
        <time>2022-12-25T11:43:37.372Z</time>
      </trkpt>
      <trkpt lat="44.65776" lon="-0.97515">
        <ele>54.575164</ele>
        <time>2022-12-25T11:43:40.369Z</time>
      </trkpt>
      <trkpt lat="44.6577" lon="-0.97505">
        <ele>54.633974</ele>
        <time>2022-12-25T11:43:42.371Z</time>
      </trkpt>
      <trkpt lat="44.65761" lon="-0.97493">
        <ele>54.710526</ele>
        <time>2022-12-25T11:43:45.370Z</time>
      </trkpt>
      <trkpt lat="44.65754" lon="-0.97481">
        <ele>54.779291</ele>
        <time>2022-12-25T11:43:48.358Z</time>
      </trkpt>
      <trkpt lat="44.65747" lon="-0.97472">
        <ele>54.837844</ele>
        <time>2022-12-25T11:43:51.364Z</time>
      </trkpt>
      <trkpt lat="44.6574" lon="-0.97463">
        <ele>54.89507</ele>
        <time>2022-12-25T11:43:54.370Z</time>
      </trkpt>
      <trkpt lat="44.65733" lon="-0.97452">
        <ele>54.961997</ele>
        <time>2022-12-25T11:43:57.370Z</time>
      </trkpt>
      <trkpt lat="44.65725" lon="-0.9744">
        <ele>55.033834</ele>
        <time>2022-12-25T11:44:00.372Z</time>
      </trkpt>
      <trkpt lat="44.65717" lon="-0.97429">
        <ele>55.10238</ele>
        <time>2022-12-25T11:44:03.383Z</time>
      </trkpt>
      <trkpt lat="44.65709" lon="-0.97417">
        <ele>55.176186</ele>
        <time>2022-12-25T11:44:06.359Z</time>
      </trkpt>
      <trkpt lat="44.657" lon="-0.97405">
        <ele>55.251053</ele>
        <time>2022-12-25T11:44:09.370Z</time>
      </trkpt>
      <trkpt lat="44.65691" lon="-0.97393">
        <ele>55.326652</ele>
        <time>2022-12-25T11:44:12.374Z</time>
      </trkpt>
      <trkpt lat="44.65683" lon="-0.97381">
        <ele>55.40183</ele>
        <time>2022-12-25T11:44:15.373Z</time>
      </trkpt>
      <trkpt lat="44.65674" lon="-0.9737">
        <ele>55.475945</ele>
        <time>2022-12-25T11:44:18.373Z</time>
      </trkpt>
      <trkpt lat="44.65666" lon="-0.97357">
        <ele>55.551516</ele>
        <time>2022-12-25T11:44:21.378Z</time>
      </trkpt>
      <trkpt lat="44.65657" lon="-0.97345">
        <ele>55.627632</ele>
        <time>2022-12-25T11:44:24.369Z</time>
      </trkpt>
      <trkpt lat="44.65648" lon="-0.97332">
        <ele>55.692364</ele>
        <time>2022-12-25T11:44:27.371Z</time>
      </trkpt>
      <trkpt lat="44.65639" lon="-0.97319">
        <ele>55.746015</ele>
        <time>2022-12-25T11:44:30.344Z</time>
      </trkpt>
      <trkpt lat="44.6563" lon="-0.97307">
        <ele>55.799488</ele>
        <time>2022-12-25T11:44:33.376Z</time>
      </trkpt>
      <trkpt lat="44.65621" lon="-0.97294">
        <ele>55.85296</ele>
        <time>2022-12-25T11:44:36.360Z</time>
      </trkpt>
      <trkpt lat="44.65612" lon="-0.97282">
        <ele>55.906105</ele>
        <time>2022-12-25T11:44:39.350Z</time>
      </trkpt>
      <trkpt lat="44.65604" lon="-0.97269">
        <ele>55.95911</ele>
        <time>2022-12-25T11:44:42.372Z</time>
      </trkpt>
      <trkpt lat="44.65595" lon="-0.97256">
        <ele>56.012073</ele>
        <time>2022-12-25T11:44:45.365Z</time>
      </trkpt>
      <trkpt lat="44.65586" lon="-0.97244">
        <ele>56.065001</ele>
        <time>2022-12-25T11:44:48.371Z</time>
      </trkpt>
      <trkpt lat="44.65577" lon="-0.97231">
        <ele>56.118653</ele>
        <time>2022-12-25T11:44:51.353Z</time>
      </trkpt>
      <trkpt lat="44.65568" lon="-0.97217">
        <ele>56.173902</ele>
        <time>2022-12-25T11:44:54.360Z</time>
      </trkpt>
      <trkpt lat="44.65559" lon="-0.97204">
        <ele>56.228711</ele>
        <time>2022-12-25T11:44:57.371Z</time>
      </trkpt>
      <trkpt lat="44.6555" lon="-0.97192">
        <ele>56.279413</ele>
        <time>2022-12-25T11:45:00.371Z</time>
      </trkpt>
      <trkpt lat="44.65542" lon="-0.97181">
        <ele>56.326847</ele>
        <time>2022-12-25T11:45:03.370Z</time>
      </trkpt>
      <trkpt lat="44.65535" lon="-0.97171">
        <ele>56.368792</ele>
        <time>2022-12-25T11:45:06.373Z</time>
      </trkpt>
      <trkpt lat="44.65528" lon="-0.9716">
        <ele>56.41355</ele>
        <time>2022-12-25T11:45:09.374Z</time>
      </trkpt>
      <trkpt lat="44.65521" lon="-0.97149">
        <ele>56.447235</ele>
        <time>2022-12-25T11:45:12.372Z</time>
      </trkpt>
      <trkpt lat="44.65512" lon="-0.97138">
        <ele>56.481677</ele>
        <time>2022-12-25T11:45:15.374Z</time>
      </trkpt>
      <trkpt lat="44.65504" lon="-0.97126">
        <ele>56.517963</ele>
        <time>2022-12-25T11:45:18.375Z</time>
      </trkpt>
      <trkpt lat="44.65494" lon="-0.97113">
        <ele>56.556813</ele>
        <time>2022-12-25T11:45:21.367Z</time>
      </trkpt>
      <trkpt lat="44.65485" lon="-0.971">
        <ele>56.595647</ele>
        <time>2022-12-25T11:45:24.371Z</time>
      </trkpt>
      <trkpt lat="44.65476" lon="-0.97088">
        <ele>56.632607</ele>
        <time>2022-12-25T11:45:27.373Z</time>
      </trkpt>
      <trkpt lat="44.65468" lon="-0.97077">
        <ele>56.664</ele>
        <time>2022-12-25T11:45:30.350Z</time>
      </trkpt>
      <trkpt lat="44.65462" lon="-0.97067">
        <ele>56.692502</ele>
        <time>2022-12-25T11:45:33.376Z</time>
      </trkpt>
      <trkpt lat="44.65455" lon="-0.97057">
        <ele>56.722224</ele>
        <time>2022-12-25T11:45:36.370Z</time>
      </trkpt>
      <trkpt lat="44.65448" lon="-0.97047">
        <ele>56.75263</ele>
        <time>2022-12-25T11:45:39.369Z</time>
      </trkpt>
      <trkpt lat="44.6544" lon="-0.97034">
        <ele>56.788203</ele>
        <time>2022-12-25T11:45:43.377Z</time>
      </trkpt>
      <trkpt lat="44.65431" lon="-0.97024">
        <ele>56.821059</ele>
        <time>2022-12-25T11:45:47.349Z</time>
      </trkpt>
      <trkpt lat="44.65424" lon="-0.97013">
        <ele>56.85305</ele>
        <time>2022-12-25T11:45:51.373Z</time>
      </trkpt>
      <trkpt lat="44.65417" lon="-0.97004">
        <ele>56.880727</ele>
        <time>2022-12-25T11:45:54.360Z</time>
      </trkpt>
      <trkpt lat="44.65408" lon="-0.96995">
        <ele>56.912839</ele>
        <time>2022-12-25T11:45:58.369Z</time>
      </trkpt>
      <trkpt lat="44.65402" lon="-0.96985">
        <ele>56.941786</ele>
        <time>2022-12-25T11:46:02.367Z</time>
      </trkpt>
      <trkpt lat="44.65397" lon="-0.96974">
        <ele>57.078916</ele>
        <time>2022-12-25T11:46:05.353Z</time>
      </trkpt>
      <trkpt lat="44.65389" lon="-0.96963">
        <ele>57.30927</ele>
        <time>2022-12-25T11:46:08.356Z</time>
      </trkpt>
      <trkpt lat="44.65381" lon="-0.96951">
        <ele>57.564487</ele>
        <time>2022-12-25T11:46:11.357Z</time>
      </trkpt>
      <trkpt lat="44.65372" lon="-0.96939">
        <ele>57.8358</ele>
        <time>2022-12-25T11:46:14.354Z</time>
      </trkpt>
      <trkpt lat="44.65363" lon="-0.96926">
        <ele>58.106849</ele>
        <time>2022-12-25T11:46:17.368Z</time>
      </trkpt>
      <trkpt lat="44.65354" lon="-0.96914">
        <ele>58.373552</ele>
        <time>2022-12-25T11:46:20.363Z</time>
      </trkpt>
      <trkpt lat="44.65345" lon="-0.969">
        <ele>58.654949</ele>
        <time>2022-12-25T11:46:23.373Z</time>
      </trkpt>
      <trkpt lat="44.65336" lon="-0.96887">
        <ele>58.935299</ele>
        <time>2022-12-25T11:46:26.366Z</time>
      </trkpt>
      <trkpt lat="44.65328" lon="-0.96876">
        <ele>59.187296</ele>
        <time>2022-12-25T11:46:29.368Z</time>
      </trkpt>
      <trkpt lat="44.6532" lon="-0.96865">
        <ele>59.421347</ele>
        <time>2022-12-25T11:46:32.368Z</time>
      </trkpt>
      <trkpt lat="44.65314" lon="-0.96855">
        <ele>59.625869</ele>
        <time>2022-12-25T11:46:35.362Z</time>
      </trkpt>
      <trkpt lat="44.65305" lon="-0.96845">
        <ele>59.864082</ele>
        <time>2022-12-25T11:46:39.372Z</time>
      </trkpt>
      <trkpt lat="44.65298" lon="-0.96832">
        <ele>60.113286</ele>
        <time>2022-12-25T11:51:23.356Z</time>
      </trkpt>
      <trkpt lat="44.65291" lon="-0.96822">
        <ele>60.328211</ele>
        <time>2022-12-25T11:51:28.356Z</time>
      </trkpt>
      <trkpt lat="44.65284" lon="-0.96812">
        <ele>60.544215</ele>
        <time>2022-12-25T11:51:32.366Z</time>
      </trkpt>
      <trkpt lat="44.65276" lon="-0.968">
        <ele>60.795321</ele>
        <time>2022-12-25T11:51:36.352Z</time>
      </trkpt>
      <trkpt lat="44.65269" lon="-0.96791">
        <ele>60.886396</ele>
        <time>2022-12-25T11:51:39.372Z</time>
      </trkpt>
      <trkpt lat="44.65262" lon="-0.96782">
        <ele>60.963067</ele>
        <time>2022-12-25T11:51:42.370Z</time>
      </trkpt>
      <trkpt lat="44.65255" lon="-0.96771">
        <ele>61.047513</ele>
        <time>2022-12-25T11:51:45.368Z</time>
      </trkpt>
      <trkpt lat="44.65248" lon="-0.96761">
        <ele>61.132564</ele>
        <time>2022-12-25T11:51:48.365Z</time>
      </trkpt>
      <trkpt lat="44.65239" lon="-0.9675">
        <ele>61.225203</ele>
        <time>2022-12-25T11:51:51.365Z</time>
      </trkpt>
      <trkpt lat="44.65231" lon="-0.96738">
        <ele>61.317928</ele>
        <time>2022-12-25T11:51:54.371Z</time>
      </trkpt>
      <trkpt lat="44.65223" lon="-0.96727">
        <ele>61.408036</ele>
        <time>2022-12-25T11:51:57.371Z</time>
      </trkpt>
      <trkpt lat="44.65215" lon="-0.96716">
        <ele>61.500612</ele>
        <time>2022-12-25T11:52:00.363Z</time>
      </trkpt>
      <trkpt lat="44.65207" lon="-0.96705">
        <ele>61.591703</ele>
        <time>2022-12-25T11:52:03.361Z</time>
      </trkpt>
      <trkpt lat="44.652" lon="-0.96693">
        <ele>61.68372</ele>
        <time>2022-12-25T11:52:06.370Z</time>
      </trkpt>
      <trkpt lat="44.65192" lon="-0.96681">
        <ele>61.776713</ele>
        <time>2022-12-25T11:52:09.371Z</time>
      </trkpt>
      <trkpt lat="44.65184" lon="-0.96669">
        <ele>61.871808</ele>
        <time>2022-12-25T11:52:12.369Z</time>
      </trkpt>
      <trkpt lat="44.65175" lon="-0.96658">
        <ele>61.968394</ele>
        <time>2022-12-25T11:52:15.351Z</time>
      </trkpt>
      <trkpt lat="44.65167" lon="-0.96647">
        <ele>62.060872</ele>
        <time>2022-12-25T11:52:18.370Z</time>
      </trkpt>
      <trkpt lat="44.65159" lon="-0.96635">
        <ele>62.153709</ele>
        <time>2022-12-25T11:52:21.354Z</time>
      </trkpt>
      <trkpt lat="44.6515" lon="-0.96624">
        <ele>62.250686</ele>
        <time>2022-12-25T11:52:24.372Z</time>
      </trkpt>
      <trkpt lat="44.65141" lon="-0.96613">
        <ele>62.317061</ele>
        <time>2022-12-25T11:52:27.372Z</time>
      </trkpt>
      <trkpt lat="44.65134" lon="-0.96603">
        <ele>62.368154</ele>
        <time>2022-12-25T11:52:30.371Z</time>
      </trkpt>
      <trkpt lat="44.65126" lon="-0.96593">
        <ele>62.421086</ele>
        <time>2022-12-25T11:52:33.389Z</time>
      </trkpt>
      <trkpt lat="44.65118" lon="-0.96583">
        <ele>62.477214</ele>
        <time>2022-12-25T11:52:36.369Z</time>
      </trkpt>
      <trkpt lat="44.65109" lon="-0.96572">
        <ele>62.534034</ele>
        <time>2022-12-25T11:52:39.358Z</time>
      </trkpt>
      <trkpt lat="44.651" lon="-0.96562">
        <ele>62.593596</ele>
        <time>2022-12-25T11:52:42.373Z</time>
      </trkpt>
      <trkpt lat="44.6509" lon="-0.96551">
        <ele>62.653267</ele>
        <time>2022-12-25T11:52:45.371Z</time>
      </trkpt>
      <trkpt lat="44.65081" lon="-0.9654">
        <ele>62.714208</ele>
        <time>2022-12-25T11:52:48.369Z</time>
      </trkpt>
      <trkpt lat="44.65072" lon="-0.96529">
        <ele>62.772578</ele>
        <time>2022-12-25T11:52:51.371Z</time>
      </trkpt>
      <trkpt lat="44.65063" lon="-0.96518">
        <ele>62.833301</ele>
        <time>2022-12-25T11:52:54.354Z</time>
      </trkpt>
      <trkpt lat="44.65055" lon="-0.96508">
        <ele>62.888504</ele>
        <time>2022-12-25T11:52:57.354Z</time>
      </trkpt>
      <trkpt lat="44.65046" lon="-0.96497">
        <ele>62.945852</ele>
        <time>2022-12-25T11:53:00.371Z</time>
      </trkpt>
      <trkpt lat="44.65038" lon="-0.96488">
        <ele>62.998931</ele>
        <time>2022-12-25T11:53:03.362Z</time>
      </trkpt>
      <trkpt lat="44.65029" lon="-0.96478">
        <ele>63.057097</ele>
        <time>2022-12-25T11:53:07.375Z</time>
      </trkpt>
      <trkpt lat="44.65021" lon="-0.96469">
        <ele>63.107506</ele>
        <time>2022-12-25T11:53:11.360Z</time>
      </trkpt>
      <trkpt lat="44.65011" lon="-0.96461">
        <ele>63.16212</ele>
        <time>2022-12-25T11:53:15.361Z</time>
      </trkpt>
      <trkpt lat="44.65003" lon="-0.96453">
        <ele>63.167528</ele>
        <time>2022-12-25T11:53:19.355Z</time>
      </trkpt>
      <trkpt lat="44.64997" lon="-0.96443">
        <ele>63.161793</ele>
        <time>2022-12-25T11:53:22.362Z</time>
      </trkpt>
      <trkpt lat="44.6499" lon="-0.96435">
        <ele>63.156153</ele>
        <time>2022-12-25T11:53:25.348Z</time>
      </trkpt>
      <trkpt lat="44.64981" lon="-0.96428">
        <ele>63.149713</ele>
        <time>2022-12-25T11:53:29.372Z</time>
      </trkpt>
      <trkpt lat="44.64973" lon="-0.9642">
        <ele>63.143744</ele>
        <time>2022-12-25T11:53:32.372Z</time>
      </trkpt>
      <trkpt lat="44.64966" lon="-0.96411">
        <ele>63.137993</ele>
        <time>2022-12-25T11:53:35.371Z</time>
      </trkpt>
      <trkpt lat="44.64958" lon="-0.96403">
        <ele>63.132149</ele>
        <time>2022-12-25T11:53:38.358Z</time>
      </trkpt>
      <trkpt lat="44.64949" lon="-0.96393">
        <ele>63.124677</ele>
        <time>2022-12-25T11:53:42.360Z</time>
      </trkpt>
      <trkpt lat="44.6494" lon="-0.96385">
        <ele>63.118529</ele>
        <time>2022-12-25T11:53:45.362Z</time>
      </trkpt>
      <trkpt lat="44.64932" lon="-0.96377">
        <ele>63.112309</ele>
        <time>2022-12-25T11:53:48.367Z</time>
      </trkpt>
      <trkpt lat="44.64922" lon="-0.96368">
        <ele>63.105099</ele>
        <time>2022-12-25T11:53:51.372Z</time>
      </trkpt>
      <trkpt lat="44.64913" lon="-0.9636">
        <ele>63.098577</ele>
        <time>2022-12-25T11:53:54.357Z</time>
      </trkpt>
      <trkpt lat="44.64903" lon="-0.96353">
        <ele>63.091791</ele>
        <time>2022-12-25T11:53:57.350Z</time>
      </trkpt>
      <trkpt lat="44.64893" lon="-0.96343">
        <ele>63.084134</ele>
        <time>2022-12-25T11:54:00.375Z</time>
      </trkpt>
      <trkpt lat="44.64882" lon="-0.96334">
        <ele>63.07606</ele>
        <time>2022-12-25T11:54:03.384Z</time>
      </trkpt>
      <trkpt lat="44.6487" lon="-0.96324">
        <ele>63.067888</ele>
        <time>2022-12-25T11:54:06.371Z</time>
      </trkpt>
      <trkpt lat="44.64859" lon="-0.96314">
        <ele>63.053973</ele>
        <time>2022-12-25T11:54:09.370Z</time>
      </trkpt>
      <trkpt lat="44.64848" lon="-0.96305">
        <ele>63.026089</ele>
        <time>2022-12-25T11:54:12.372Z</time>
      </trkpt>
      <trkpt lat="44.64838" lon="-0.96295">
        <ele>62.998078</ele>
        <time>2022-12-25T11:54:15.374Z</time>
      </trkpt>
      <trkpt lat="44.64827" lon="-0.96284">
        <ele>62.968794</ele>
        <time>2022-12-25T11:54:18.362Z</time>
      </trkpt>
      <trkpt lat="44.64817" lon="-0.96275">
        <ele>62.941537</ele>
        <time>2022-12-25T11:54:21.366Z</time>
      </trkpt>
      <trkpt lat="44.64807" lon="-0.96266">
        <ele>62.915225</ele>
        <time>2022-12-25T11:54:24.346Z</time>
      </trkpt>
      <trkpt lat="44.64796" lon="-0.96258">
        <ele>62.888252</ele>
        <time>2022-12-25T11:54:27.371Z</time>
      </trkpt>
      <trkpt lat="44.64786" lon="-0.96249">
        <ele>62.862163</ele>
        <time>2022-12-25T11:54:30.372Z</time>
      </trkpt>
      <trkpt lat="44.64777" lon="-0.96241">
        <ele>62.837416</ele>
        <time>2022-12-25T11:54:33.357Z</time>
      </trkpt>
      <trkpt lat="44.64765" lon="-0.96231">
        <ele>62.807083</ele>
        <time>2022-12-25T11:54:36.372Z</time>
      </trkpt>
      <trkpt lat="44.64756" lon="-0.96222">
        <ele>62.782508</ele>
        <time>2022-12-25T11:54:39.353Z</time>
      </trkpt>
      <trkpt lat="44.64747" lon="-0.96214">
        <ele>62.759222</ele>
        <time>2022-12-25T11:54:42.348Z</time>
      </trkpt>
      <trkpt lat="44.6474" lon="-0.96207">
        <ele>62.738936</ele>
        <time>2022-12-25T11:54:45.365Z</time>
      </trkpt>
      <trkpt lat="44.64733" lon="-0.96199">
        <ele>62.718578</ele>
        <time>2022-12-25T11:54:48.362Z</time>
      </trkpt>
      <trkpt lat="44.64722" lon="-0.96188">
        <ele>62.689839</ele>
        <time>2022-12-25T11:54:51.372Z</time>
      </trkpt>
      <trkpt lat="44.64714" lon="-0.96181">
        <ele>62.669465</ele>
        <time>2022-12-25T11:54:53.368Z</time>
      </trkpt>
      <trkpt lat="44.64705" lon="-0.96171">
        <ele>62.599863</ele>
        <time>2022-12-25T11:54:56.364Z</time>
      </trkpt>
      <trkpt lat="44.64694" lon="-0.96162">
        <ele>62.504282</ele>
        <time>2022-12-25T11:54:59.355Z</time>
      </trkpt>
      <trkpt lat="44.64686" lon="-0.96155">
        <ele>62.434395</ele>
        <time>2022-12-25T11:55:02.354Z</time>
      </trkpt>
      <trkpt lat="44.64676" lon="-0.96149">
        <ele>62.358805</ele>
        <time>2022-12-25T11:55:05.374Z</time>
      </trkpt>
      <trkpt lat="44.64667" lon="-0.96141">
        <ele>62.27601</ele>
        <time>2022-12-25T11:55:08.361Z</time>
      </trkpt>
      <trkpt lat="44.64656" lon="-0.96133">
        <ele>62.184802</ele>
        <time>2022-12-25T11:55:11.370Z</time>
      </trkpt>
      <trkpt lat="44.64645" lon="-0.96124">
        <ele>62.088188</ele>
        <time>2022-12-25T11:55:14.364Z</time>
      </trkpt>
      <trkpt lat="44.64635" lon="-0.96116">
        <ele>62.002678</ele>
        <time>2022-12-25T11:55:17.375Z</time>
      </trkpt>
      <trkpt lat="44.64626" lon="-0.96109">
        <ele>61.931889</ele>
        <time>2022-12-25T11:55:20.352Z</time>
      </trkpt>
      <trkpt lat="44.64617" lon="-0.96102">
        <ele>61.849469</ele>
        <time>2022-12-25T11:55:24.351Z</time>
      </trkpt>
      <trkpt lat="44.64599" lon="-0.96086">
        <ele>61.693269</ele>
        <time>2022-12-25T11:55:46.362Z</time>
      </trkpt>
      <trkpt lat="44.64591" lon="-0.96079">
        <ele>61.626275</ele>
        <time>2022-12-25T11:55:49.372Z</time>
      </trkpt>
      <trkpt lat="44.64581" lon="-0.96072">
        <ele>61.543972</ele>
        <time>2022-12-25T11:55:52.359Z</time>
      </trkpt>
      <trkpt lat="44.64572" lon="-0.96063">
        <ele>61.462354</ele>
        <time>2022-12-25T11:55:55.374Z</time>
      </trkpt>
      <trkpt lat="44.64562" lon="-0.96055">
        <ele>61.373684</ele>
        <time>2022-12-25T11:55:58.357Z</time>
      </trkpt>
      <trkpt lat="44.64552" lon="-0.96046">
        <ele>61.279538</ele>
        <time>2022-12-25T11:56:01.354Z</time>
      </trkpt>
      <trkpt lat="44.64541" lon="-0.96037">
        <ele>61.181131</ele>
        <time>2022-12-25T11:56:04.350Z</time>
      </trkpt>
      <trkpt lat="44.64531" lon="-0.96027">
        <ele>61.081262</ele>
        <time>2022-12-25T11:56:07.370Z</time>
      </trkpt>
      <trkpt lat="44.64521" lon="-0.96018">
        <ele>60.984008</ele>
        <time>2022-12-25T11:56:10.368Z</time>
      </trkpt>
      <trkpt lat="44.6451" lon="-0.96009">
        <ele>60.883016</ele>
        <time>2022-12-25T11:56:13.386Z</time>
      </trkpt>
      <trkpt lat="44.64499" lon="-0.96001">
        <ele>60.77874</ele>
        <time>2022-12-25T11:56:16.369Z</time>
      </trkpt>
      <trkpt lat="44.64487" lon="-0.95993">
        <ele>60.674247</ele>
        <time>2022-12-25T11:56:19.373Z</time>
      </trkpt>
      <trkpt lat="44.64476" lon="-0.95985">
        <ele>60.570228</ele>
        <time>2022-12-25T11:56:22.370Z</time>
      </trkpt>
      <trkpt lat="44.64465" lon="-0.9598">
        <ele>60.481669</ele>
        <time>2022-12-25T11:56:25.373Z</time>
      </trkpt>
      <trkpt lat="44.64455" lon="-0.95975">
        <ele>60.390629</ele>
        <time>2022-12-25T11:56:28.373Z</time>
      </trkpt>
      <trkpt lat="44.64444" lon="-0.95968">
        <ele>60.293481</ele>
        <time>2022-12-25T11:56:31.354Z</time>
      </trkpt>
      <trkpt lat="44.64433" lon="-0.95962">
        <ele>60.197114</ele>
        <time>2022-12-25T11:56:34.364Z</time>
      </trkpt>
      <trkpt lat="44.64422" lon="-0.95957">
        <ele>60.104343</ele>
        <time>2022-12-25T11:56:37.370Z</time>
      </trkpt>
      <trkpt lat="44.64412" lon="-0.95953">
        <ele>60.020512</ele>
        <time>2022-12-25T11:56:40.366Z</time>
      </trkpt>
      <trkpt lat="44.64401" lon="-0.95948">
        <ele>59.932128</ele>
        <time>2022-12-25T11:56:43.385Z</time>
      </trkpt>
      <trkpt lat="44.64389" lon="-0.95945">
        <ele>59.85785</ele>
        <time>2022-12-25T11:56:46.379Z</time>
      </trkpt>
      <trkpt lat="44.64376" lon="-0.95942">
        <ele>59.818654</ele>
        <time>2022-12-25T11:56:49.350Z</time>
      </trkpt>
      <trkpt lat="44.64367" lon="-0.95939">
        <ele>59.792639</ele>
        <time>2022-12-25T11:56:51.369Z</time>
      </trkpt>
      <trkpt lat="44.64355" lon="-0.95937">
        <ele>59.757114</ele>
        <time>2022-12-25T11:56:54.368Z</time>
      </trkpt>
      <trkpt lat="44.64344" lon="-0.95935">
        <ele>59.723432</ele>
        <time>2022-12-25T11:56:57.372Z</time>
      </trkpt>
      <trkpt lat="44.64331" lon="-0.95933">
        <ele>59.687055</ele>
        <time>2022-12-25T11:57:00.371Z</time>
      </trkpt>
      <trkpt lat="44.64318" lon="-0.95931">
        <ele>59.649124</ele>
        <time>2022-12-25T11:57:03.359Z</time>
      </trkpt>
      <trkpt lat="44.64309" lon="-0.95931">
        <ele>59.622674</ele>
        <time>2022-12-25T11:57:05.371Z</time>
      </trkpt>
      <trkpt lat="44.643" lon="-0.9593">
        <ele>59.596252</ele>
        <time>2022-12-25T11:57:07.373Z</time>
      </trkpt>
      <trkpt lat="44.64291" lon="-0.9593">
        <ele>59.569842</ele>
        <time>2022-12-25T11:57:09.351Z</time>
      </trkpt>
      <trkpt lat="44.64282" lon="-0.9593">
        <ele>59.543141</ele>
        <time>2022-12-25T11:57:11.371Z</time>
      </trkpt>
      <trkpt lat="44.64272" lon="-0.9593">
        <ele>59.515567</ele>
        <time>2022-12-25T11:57:13.382Z</time>
      </trkpt>
      <trkpt lat="44.64263" lon="-0.95931">
        <ele>59.488564</ele>
        <time>2022-12-25T11:57:15.369Z</time>
      </trkpt>
      <trkpt lat="44.64251" lon="-0.95933">
        <ele>59.453128</ele>
        <time>2022-12-25T11:57:18.351Z</time>
      </trkpt>
      <trkpt lat="44.64239" lon="-0.95935">
        <ele>59.418583</ele>
        <time>2022-12-25T11:57:21.371Z</time>
      </trkpt>
      <trkpt lat="44.64228" lon="-0.95936">
        <ele>59.386315</ele>
        <time>2022-12-25T11:57:24.351Z</time>
      </trkpt>
      <trkpt lat="44.64217" lon="-0.95938">
        <ele>59.354901</ele>
        <time>2022-12-25T11:57:27.364Z</time>
      </trkpt>
      <trkpt lat="44.64206" lon="-0.95941">
        <ele>59.30341</ele>
        <time>2022-12-25T11:57:30.371Z</time>
      </trkpt>
      <trkpt lat="44.64197" lon="-0.95943">
        <ele>59.253168</ele>
        <time>2022-12-25T11:57:33.384Z</time>
      </trkpt>
      <trkpt lat="44.64188" lon="-0.95945">
        <ele>59.206592</ele>
        <time>2022-12-25T11:57:36.360Z</time>
      </trkpt>
      <trkpt lat="44.64178" lon="-0.95949">
        <ele>59.154024</ele>
        <time>2022-12-25T11:57:40.346Z</time>
      </trkpt>
      <trkpt lat="44.64171" lon="-0.95962">
        <ele>59.097096</ele>
        <time>2022-12-25T11:57:44.357Z</time>
      </trkpt>
      <trkpt lat="44.64165" lon="-0.95975">
        <ele>59.040419</ele>
        <time>2022-12-25T11:57:47.351Z</time>
      </trkpt>
      <trkpt lat="44.64159" lon="-0.9599">
        <ele>58.978915</ele>
        <time>2022-12-25T11:57:50.371Z</time>
      </trkpt>
      <trkpt lat="44.64153" lon="-0.96003">
        <ele>58.922484</ele>
        <time>2022-12-25T11:57:53.380Z</time>
      </trkpt>
      <trkpt lat="44.64147" lon="-0.96015">
        <ele>58.869621</ele>
        <time>2022-12-25T11:57:56.361Z</time>
      </trkpt>
      <trkpt lat="44.64141" lon="-0.96029">
        <ele>58.812033</ele>
        <time>2022-12-25T11:57:59.367Z</time>
      </trkpt>
      <trkpt lat="44.64135" lon="-0.96043">
        <ele>58.749685</ele>
        <time>2022-12-25T11:58:02.373Z</time>
      </trkpt>
      <trkpt lat="44.64128" lon="-0.96057">
        <ele>58.690075</ele>
        <time>2022-12-25T11:58:05.360Z</time>
      </trkpt>
      <trkpt lat="44.64123" lon="-0.9607">
        <ele>58.635717</ele>
        <time>2022-12-25T11:58:08.356Z</time>
      </trkpt>
      <trkpt lat="44.64118" lon="-0.96082">
        <ele>58.584749</ele>
        <time>2022-12-25T11:58:11.364Z</time>
      </trkpt>
      <trkpt lat="44.64112" lon="-0.96094">
        <ele>58.533619</ele>
        <time>2022-12-25T11:58:14.362Z</time>
      </trkpt>
      <trkpt lat="44.64107" lon="-0.96106">
        <ele>58.481605</ele>
        <time>2022-12-25T11:58:17.362Z</time>
      </trkpt>
      <trkpt lat="44.64101" lon="-0.96119">
        <ele>58.424649</ele>
        <time>2022-12-25T11:58:20.364Z</time>
      </trkpt>
      <trkpt lat="44.64095" lon="-0.96132">
        <ele>58.360296</ele>
        <time>2022-12-25T11:58:23.375Z</time>
      </trkpt>
      <trkpt lat="44.64088" lon="-0.96147">
        <ele>58.288984</ele>
        <time>2022-12-25T11:58:26.352Z</time>
      </trkpt>
      <trkpt lat="44.64081" lon="-0.96161">
        <ele>58.218982</ele>
        <time>2022-12-25T11:58:29.358Z</time>
      </trkpt>
      <trkpt lat="44.64075" lon="-0.96175">
        <ele>58.149776</ele>
        <time>2022-12-25T11:58:32.378Z</time>
      </trkpt>
      <trkpt lat="44.64068" lon="-0.96189">
        <ele>58.079129</ele>
        <time>2022-12-25T11:58:35.376Z</time>
      </trkpt>
      <trkpt lat="44.64062" lon="-0.96204">
        <ele>58.00706</ele>
        <time>2022-12-25T11:58:38.361Z</time>
      </trkpt>
      <trkpt lat="44.64055" lon="-0.96219">
        <ele>57.936341</ele>
        <time>2022-12-25T11:58:41.348Z</time>
      </trkpt>
      <trkpt lat="44.64048" lon="-0.96233">
        <ele>57.865677</ele>
        <time>2022-12-25T11:58:44.371Z</time>
      </trkpt>
      <trkpt lat="44.64042" lon="-0.96248">
        <ele>57.793169</ele>
        <time>2022-12-25T11:58:47.367Z</time>
      </trkpt>
      <trkpt lat="44.64035" lon="-0.96263">
        <ele>57.719784</ele>
        <time>2022-12-25T11:58:50.374Z</time>
      </trkpt>
      <trkpt lat="44.64029" lon="-0.96277">
        <ele>57.655514</ele>
        <time>2022-12-25T11:58:53.372Z</time>
      </trkpt>
      <trkpt lat="44.64023" lon="-0.9629">
        <ele>57.590467</ele>
        <time>2022-12-25T11:58:56.373Z</time>
      </trkpt>
      <trkpt lat="44.64017" lon="-0.96305">
        <ele>57.519663</ele>
        <time>2022-12-25T11:58:59.361Z</time>
      </trkpt>
      <trkpt lat="44.64011" lon="-0.96319">
        <ele>57.450561</ele>
        <time>2022-12-25T11:59:02.373Z</time>
      </trkpt>
      <trkpt lat="44.64005" lon="-0.96332">
        <ele>57.400085</ele>
        <time>2022-12-25T11:59:05.353Z</time>
      </trkpt>
      <trkpt lat="44.63999" lon="-0.96344">
        <ele>57.44247</ele>
        <time>2022-12-25T11:59:09.360Z</time>
      </trkpt>
      <trkpt lat="44.63993" lon="-0.96358">
        <ele>57.487788</ele>
        <time>2022-12-25T11:59:14.358Z</time>
      </trkpt>
      <trkpt lat="44.63989" lon="-0.96369">
        <ele>57.525081</ele>
        <time>2022-12-25T11:59:17.353Z</time>
      </trkpt>
      <trkpt lat="44.63982" lon="-0.9638">
        <ele>57.566965</ele>
        <time>2022-12-25T11:59:20.364Z</time>
      </trkpt>
      <trkpt lat="44.63976" lon="-0.96393">
        <ele>57.610512</ele>
        <time>2022-12-25T11:59:23.387Z</time>
      </trkpt>
      <trkpt lat="44.63971" lon="-0.96406">
        <ele>57.652941</ele>
        <time>2022-12-25T11:59:26.382Z</time>
      </trkpt>
      <trkpt lat="44.63966" lon="-0.96418">
        <ele>57.692981</ele>
        <time>2022-12-25T11:59:29.365Z</time>
      </trkpt>
      <trkpt lat="44.6396" lon="-0.9643">
        <ele>57.735827</ele>
        <time>2022-12-25T11:59:32.367Z</time>
      </trkpt>
      <trkpt lat="44.63955" lon="-0.96443">
        <ele>57.778003</ele>
        <time>2022-12-25T11:59:35.350Z</time>
      </trkpt>
      <trkpt lat="44.6395" lon="-0.96457">
        <ele>57.824314</ele>
        <time>2022-12-25T11:59:38.358Z</time>
      </trkpt>
      <trkpt lat="44.63944" lon="-0.9647">
        <ele>57.866092</ele>
        <time>2022-12-25T11:59:41.359Z</time>
      </trkpt>
      <trkpt lat="44.63938" lon="-0.96481">
        <ele>57.906096</ele>
        <time>2022-12-25T11:59:44.367Z</time>
      </trkpt>
      <trkpt lat="44.63932" lon="-0.96494">
        <ele>57.950553</ele>
        <time>2022-12-25T11:59:47.370Z</time>
      </trkpt>
      <trkpt lat="44.63929" lon="-0.96507">
        <ele>57.991136</ele>
        <time>2022-12-25T11:59:50.352Z</time>
      </trkpt>
      <trkpt lat="44.63931" lon="-0.96521">
        <ele>58.03155</ele>
        <time>2022-12-25T11:59:54.351Z</time>
      </trkpt>
      <trkpt lat="44.63927" lon="-0.96534">
        <ele>58.073591</ele>
        <time>2022-12-25T12:00:00.361Z</time>
      </trkpt>
      <trkpt lat="44.6392" lon="-0.96545">
        <ele>58.116227</ele>
        <time>2022-12-25T12:00:06.352Z</time>
      </trkpt>
      <trkpt lat="44.63911" lon="-0.96553">
        <ele>58.234665</ele>
        <time>2022-12-25T12:00:11.359Z</time>
      </trkpt>
      <trkpt lat="44.63901" lon="-0.9656">
        <ele>58.36441</ele>
        <time>2022-12-25T12:00:16.353Z</time>
      </trkpt>
      <trkpt lat="44.63896" lon="-0.96571">
        <ele>58.477988</ele>
        <time>2022-12-25T12:00:20.355Z</time>
      </trkpt>
      <trkpt lat="44.63889" lon="-0.96583">
        <ele>58.607788</ele>
        <time>2022-12-25T12:00:24.362Z</time>
      </trkpt>
      <trkpt lat="44.63884" lon="-0.96597">
        <ele>58.743484</ele>
        <time>2022-12-25T12:00:28.369Z</time>
      </trkpt>
      <trkpt lat="44.63879" lon="-0.96609">
        <ele>58.859583</ele>
        <time>2022-12-25T12:00:31.369Z</time>
      </trkpt>
      <trkpt lat="44.63873" lon="-0.96622">
        <ele>58.992655</ele>
        <time>2022-12-25T12:00:34.368Z</time>
      </trkpt>
      <trkpt lat="44.63867" lon="-0.96635">
        <ele>59.125595</ele>
        <time>2022-12-25T12:00:37.372Z</time>
      </trkpt>
      <trkpt lat="44.63861" lon="-0.96648">
        <ele>59.259386</ele>
        <time>2022-12-25T12:00:40.354Z</time>
      </trkpt>
      <trkpt lat="44.63854" lon="-0.96662">
        <ele>59.405634</ele>
        <time>2022-12-25T12:00:43.381Z</time>
      </trkpt>
      <trkpt lat="44.63847" lon="-0.96677">
        <ele>59.55266</ele>
        <time>2022-12-25T12:00:46.369Z</time>
      </trkpt>
      <trkpt lat="44.63841" lon="-0.96691">
        <ele>59.695074</ele>
        <time>2022-12-25T12:00:49.373Z</time>
      </trkpt>
      <trkpt lat="44.63835" lon="-0.96705">
        <ele>59.840922</ele>
        <time>2022-12-25T12:00:52.367Z</time>
      </trkpt>
      <trkpt lat="44.63828" lon="-0.9672">
        <ele>59.987797</ele>
        <time>2022-12-25T12:00:55.367Z</time>
      </trkpt>
      <trkpt lat="44.63822" lon="-0.96734">
        <ele>60.131372</ele>
        <time>2022-12-25T12:00:58.370Z</time>
      </trkpt>
      <trkpt lat="44.63817" lon="-0.9675">
        <ele>60.279568</ele>
        <time>2022-12-25T12:01:01.353Z</time>
      </trkpt>
      <trkpt lat="44.63811" lon="-0.96764">
        <ele>60.026716</ele>
        <time>2022-12-25T12:01:04.370Z</time>
      </trkpt>
      <trkpt lat="44.63805" lon="-0.96778">
        <ele>59.783229</ele>
        <time>2022-12-25T12:01:07.370Z</time>
      </trkpt>
      <trkpt lat="44.638" lon="-0.9679">
        <ele>59.574142</ele>
        <time>2022-12-25T12:01:10.372Z</time>
      </trkpt>
      <trkpt lat="44.63796" lon="-0.96801">
        <ele>59.368504</ele>
        <time>2022-12-25T12:01:15.357Z</time>
      </trkpt>
      <trkpt lat="44.63789" lon="-0.96814">
        <ele>59.119997</ele>
        <time>2022-12-25T12:01:20.347Z</time>
      </trkpt>
      <trkpt lat="44.63784" lon="-0.9683">
        <ele>58.856218</ele>
        <time>2022-12-25T12:01:24.356Z</time>
      </trkpt>
      <trkpt lat="44.63782" lon="-0.96843">
        <ele>58.642957</ele>
        <time>2022-12-25T12:01:27.366Z</time>
      </trkpt>
      <trkpt lat="44.63774" lon="-0.96852">
        <ele>58.429292</ele>
        <time>2022-12-25T12:01:30.355Z</time>
      </trkpt>
      <trkpt lat="44.63766" lon="-0.96861">
        <ele>58.197104</ele>
        <time>2022-12-25T12:01:34.375Z</time>
      </trkpt>
      <trkpt lat="44.63761" lon="-0.96874">
        <ele>57.973638</ele>
        <time>2022-12-25T12:01:38.363Z</time>
      </trkpt>
      <trkpt lat="44.63755" lon="-0.96888">
        <ele>57.725315</ele>
        <time>2022-12-25T12:01:49.366Z</time>
      </trkpt>
      <trkpt lat="44.63748" lon="-0.96901">
        <ele>57.473354</ele>
        <time>2022-12-25T12:01:53.357Z</time>
      </trkpt>
      <trkpt lat="44.63743" lon="-0.96913">
        <ele>57.257433</ele>
        <time>2022-12-25T12:01:56.353Z</time>
      </trkpt>
      <trkpt lat="44.63738" lon="-0.96925">
        <ele>57.035982</ele>
        <time>2022-12-25T12:01:59.374Z</time>
      </trkpt>
      <trkpt lat="44.63731" lon="-0.9694">
        <ele>56.768536</ele>
        <time>2022-12-25T12:02:03.380Z</time>
      </trkpt>
      <trkpt lat="44.63726" lon="-0.96953">
        <ele>56.526665</ele>
        <time>2022-12-25T12:02:06.371Z</time>
      </trkpt>
      <trkpt lat="44.63719" lon="-0.96968">
        <ele>56.345905</ele>
        <time>2022-12-25T12:02:09.372Z</time>
      </trkpt>
      <trkpt lat="44.63713" lon="-0.96981">
        <ele>56.286807</ele>
        <time>2022-12-25T12:02:12.373Z</time>
      </trkpt>
      <trkpt lat="44.63707" lon="-0.96992">
        <ele>56.23267</ele>
        <time>2022-12-25T12:02:15.365Z</time>
      </trkpt>
      <trkpt lat="44.63702" lon="-0.97004">
        <ele>56.180053</ele>
        <time>2022-12-25T12:02:18.347Z</time>
      </trkpt>
      <trkpt lat="44.63696" lon="-0.97015">
        <ele>56.129637</ele>
        <time>2022-12-25T12:02:21.373Z</time>
      </trkpt>
      <trkpt lat="44.63691" lon="-0.97026">
        <ele>56.07911</ele>
        <time>2022-12-25T12:02:24.364Z</time>
      </trkpt>
      <trkpt lat="44.63686" lon="-0.97038">
        <ele>56.024618</ele>
        <time>2022-12-25T12:02:27.371Z</time>
      </trkpt>
      <trkpt lat="44.6368" lon="-0.9705">
        <ele>55.971366</ele>
        <time>2022-12-25T12:02:30.372Z</time>
      </trkpt>
      <trkpt lat="44.63675" lon="-0.97061">
        <ele>55.920022</ele>
        <time>2022-12-25T12:02:34.374Z</time>
      </trkpt>
      <trkpt lat="44.63668" lon="-0.97073">
        <ele>55.864185</ele>
        <time>2022-12-25T12:02:38.354Z</time>
      </trkpt>
      <trkpt lat="44.63662" lon="-0.97084">
        <ele>55.809459</ele>
        <time>2022-12-25T12:02:41.364Z</time>
      </trkpt>
      <trkpt lat="44.63656" lon="-0.97099">
        <ele>55.747463</ele>
        <time>2022-12-25T12:02:44.352Z</time>
      </trkpt>
      <trkpt lat="44.6365" lon="-0.97114">
        <ele>55.683312</ele>
        <time>2022-12-25T12:02:47.368Z</time>
      </trkpt>
      <trkpt lat="44.63644" lon="-0.97129">
        <ele>55.616616</ele>
        <time>2022-12-25T12:02:50.372Z</time>
      </trkpt>
      <trkpt lat="44.63637" lon="-0.97144">
        <ele>55.546169</ele>
        <time>2022-12-25T12:02:53.375Z</time>
      </trkpt>
      <trkpt lat="44.6363" lon="-0.9716">
        <ele>55.477505</ele>
        <time>2022-12-25T12:02:56.372Z</time>
      </trkpt>
      <trkpt lat="44.63624" lon="-0.9717">
        <ele>55.428318</ele>
        <time>2022-12-25T12:02:58.365Z</time>
      </trkpt>
      <trkpt lat="44.63617" lon="-0.97187">
        <ele>55.373454</ele>
        <time>2022-12-25T12:03:01.368Z</time>
      </trkpt>
      <trkpt lat="44.63613" lon="-0.97198">
        <ele>55.33795</ele>
        <time>2022-12-25T12:03:03.350Z</time>
      </trkpt>
      <trkpt lat="44.63607" lon="-0.97209">
        <ele>55.30111</ele>
        <time>2022-12-25T12:03:05.371Z</time>
      </trkpt>
      <trkpt lat="44.63602" lon="-0.9722">
        <ele>55.265219</ele>
        <time>2022-12-25T12:03:07.378Z</time>
      </trkpt>
      <trkpt lat="44.63597" lon="-0.97232">
        <ele>55.228937</ele>
        <time>2022-12-25T12:03:09.372Z</time>
      </trkpt>
      <trkpt lat="44.63592" lon="-0.97244">
        <ele>55.189088</ele>
        <time>2022-12-25T12:03:11.349Z</time>
      </trkpt>
      <trkpt lat="44.63587" lon="-0.97256">
        <ele>55.152272</ele>
        <time>2022-12-25T12:03:13.365Z</time>
      </trkpt>
      <trkpt lat="44.63582" lon="-0.97267">
        <ele>55.116331</ele>
        <time>2022-12-25T12:03:15.357Z</time>
      </trkpt>
      <trkpt lat="44.63575" lon="-0.97283">
        <ele>55.064103</ele>
        <time>2022-12-25T12:03:18.364Z</time>
      </trkpt>
      <trkpt lat="44.63568" lon="-0.97299">
        <ele>55.012311</ele>
        <time>2022-12-25T12:03:21.375Z</time>
      </trkpt>
      <trkpt lat="44.6356" lon="-0.97315">
        <ele>54.958891</ele>
        <time>2022-12-25T12:03:24.371Z</time>
      </trkpt>
      <trkpt lat="44.63555" lon="-0.97326">
        <ele>54.923202</ele>
        <time>2022-12-25T12:03:26.372Z</time>
      </trkpt>
      <trkpt lat="44.6355" lon="-0.97337">
        <ele>54.888409</ele>
        <time>2022-12-25T12:03:28.369Z</time>
      </trkpt>
      <trkpt lat="44.63545" lon="-0.97348">
        <ele>54.85117</ele>
        <time>2022-12-25T12:03:30.373Z</time>
      </trkpt>
      <trkpt lat="44.6354" lon="-0.9736">
        <ele>54.813225</ele>
        <time>2022-12-25T12:03:32.370Z</time>
      </trkpt>
      <trkpt lat="44.63532" lon="-0.97375">
        <ele>54.764184</ele>
        <time>2022-12-25T12:03:35.373Z</time>
      </trkpt>
      <trkpt lat="44.63526" lon="-0.9739">
        <ele>54.701261</ele>
        <time>2022-12-25T12:03:38.375Z</time>
      </trkpt>
      <trkpt lat="44.63518" lon="-0.97406">
        <ele>54.589638</ele>
        <time>2022-12-25T12:03:41.370Z</time>
      </trkpt>
      <trkpt lat="44.63513" lon="-0.97418">
        <ele>54.507243</ele>
        <time>2022-12-25T12:03:43.370Z</time>
      </trkpt>
      <trkpt lat="44.63508" lon="-0.9743">
        <ele>54.42523</ele>
        <time>2022-12-25T12:03:45.370Z</time>
      </trkpt>
      <trkpt lat="44.635" lon="-0.97446">
        <ele>54.311724</ele>
        <time>2022-12-25T12:03:48.369Z</time>
      </trkpt>
      <trkpt lat="44.63495" lon="-0.97457">
        <ele>54.233576</ele>
        <time>2022-12-25T12:03:50.371Z</time>
      </trkpt>
      <trkpt lat="44.6349" lon="-0.97467">
        <ele>54.158911</ele>
        <time>2022-12-25T12:03:52.370Z</time>
      </trkpt>
      <trkpt lat="44.63484" lon="-0.97482">
        <ele>54.06241</ele>
        <time>2022-12-25T12:03:55.372Z</time>
      </trkpt>
      <trkpt lat="44.63481" lon="-0.97498">
        <ele>53.963857</ele>
        <time>2022-12-25T12:03:58.369Z</time>
      </trkpt>
      <trkpt lat="44.63475" lon="-0.97513">
        <ele>53.864738</ele>
        <time>2022-12-25T12:04:01.358Z</time>
      </trkpt>
      <trkpt lat="44.63465" lon="-0.97521">
        <ele>53.771403</ele>
        <time>2022-12-25T12:04:04.360Z</time>
      </trkpt>
      <trkpt lat="44.63461" lon="-0.97534">
        <ele>53.688864</ele>
        <time>2022-12-25T12:04:08.356Z</time>
      </trkpt>
      <trkpt lat="44.63457" lon="-0.97546">
        <ele>53.608295</ele>
        <time>2022-12-25T12:04:12.361Z</time>
      </trkpt>
      <trkpt lat="44.63451" lon="-0.97557">
        <ele>53.530297</ele>
        <time>2022-12-25T12:04:15.352Z</time>
      </trkpt>
      <trkpt lat="44.63446" lon="-0.9757">
        <ele>53.443224</ele>
        <time>2022-12-25T12:04:18.360Z</time>
      </trkpt>
      <trkpt lat="44.6344" lon="-0.97584">
        <ele>53.34603</ele>
        <time>2022-12-25T12:04:21.368Z</time>
      </trkpt>
      <trkpt lat="44.63433" lon="-0.97599">
        <ele>53.242885</ele>
        <time>2022-12-25T12:04:24.358Z</time>
      </trkpt>
      <trkpt lat="44.63427" lon="-0.97614">
        <ele>53.111961</ele>
        <time>2022-12-25T12:04:27.369Z</time>
      </trkpt>
      <trkpt lat="44.6342" lon="-0.9763">
        <ele>52.978222</ele>
        <time>2022-12-25T12:04:30.371Z</time>
      </trkpt>
      <trkpt lat="44.63413" lon="-0.97646">
        <ele>52.837917</ele>
        <time>2022-12-25T12:04:33.355Z</time>
      </trkpt>
      <trkpt lat="44.63405" lon="-0.97662">
        <ele>52.701172</ele>
        <time>2022-12-25T12:04:36.370Z</time>
      </trkpt>
      <trkpt lat="44.634" lon="-0.97673">
        <ele>52.60782</ele>
        <time>2022-12-25T12:04:38.374Z</time>
      </trkpt>
      <trkpt lat="44.63395" lon="-0.97684">
        <ele>52.512132</ele>
        <time>2022-12-25T12:04:40.363Z</time>
      </trkpt>
      <trkpt lat="44.6339" lon="-0.97694">
        <ele>52.418296</ele>
        <time>2022-12-25T12:04:42.358Z</time>
      </trkpt>
      <trkpt lat="44.63383" lon="-0.9771">
        <ele>52.281938</ele>
        <time>2022-12-25T12:04:45.368Z</time>
      </trkpt>
      <trkpt lat="44.63377" lon="-0.97724">
        <ele>52.163448</ele>
        <time>2022-12-25T12:04:48.375Z</time>
      </trkpt>
      <trkpt lat="44.63371" lon="-0.97737">
        <ele>52.049954</ele>
        <time>2022-12-25T12:04:51.356Z</time>
      </trkpt>
      <trkpt lat="44.63365" lon="-0.9775">
        <ele>51.936959</ele>
        <time>2022-12-25T12:04:54.366Z</time>
      </trkpt>
      <trkpt lat="44.63359" lon="-0.97766">
        <ele>51.808633</ele>
        <time>2022-12-25T12:04:57.372Z</time>
      </trkpt>
      <trkpt lat="44.63352" lon="-0.97781">
        <ele>51.674374</ele>
        <time>2022-12-25T12:05:00.360Z</time>
      </trkpt>
      <trkpt lat="44.63345" lon="-0.97797">
        <ele>51.53934</ele>
        <time>2022-12-25T12:05:03.377Z</time>
      </trkpt>
      <trkpt lat="44.63338" lon="-0.97811">
        <ele>51.413818</ele>
        <time>2022-12-25T12:05:06.362Z</time>
      </trkpt>
      <trkpt lat="44.63332" lon="-0.97825">
        <ele>51.358841</ele>
        <time>2022-12-25T12:05:09.375Z</time>
      </trkpt>
      <trkpt lat="44.63325" lon="-0.97839">
        <ele>51.306758</ele>
        <time>2022-12-25T12:05:12.373Z</time>
      </trkpt>
      <trkpt lat="44.63318" lon="-0.97855">
        <ele>51.253434</ele>
        <time>2022-12-25T12:05:15.374Z</time>
      </trkpt>
      <trkpt lat="44.63311" lon="-0.9787">
        <ele>51.199887</ele>
        <time>2022-12-25T12:05:18.359Z</time>
      </trkpt>
      <trkpt lat="44.63304" lon="-0.97885">
        <ele>51.146809</ele>
        <time>2022-12-25T12:05:21.373Z</time>
      </trkpt>
      <trkpt lat="44.63297" lon="-0.97901">
        <ele>51.093486</ele>
        <time>2022-12-25T12:05:24.368Z</time>
      </trkpt>
      <trkpt lat="44.63291" lon="-0.97915">
        <ele>51.04448</ele>
        <time>2022-12-25T12:05:27.372Z</time>
      </trkpt>
      <trkpt lat="44.63285" lon="-0.97928">
        <ele>50.99821</ele>
        <time>2022-12-25T12:05:30.371Z</time>
      </trkpt>
      <trkpt lat="44.63279" lon="-0.9794">
        <ele>50.956157</ele>
        <time>2022-12-25T12:05:33.379Z</time>
      </trkpt>
      <trkpt lat="44.63276" lon="-0.97952">
        <ele>50.918981</ele>
        <time>2022-12-25T12:05:36.356Z</time>
      </trkpt>
      <trkpt lat="44.63276" lon="-0.97966">
        <ele>50.879689</ele>
        <time>2022-12-25T12:05:40.360Z</time>
      </trkpt>
      <trkpt lat="44.6327" lon="-0.97978">
        <ele>50.834955</ele>
        <time>2022-12-25T12:05:45.356Z</time>
      </trkpt>
      <trkpt lat="44.6326" lon="-0.97988">
        <ele>50.785371</ele>
        <time>2022-12-25T12:05:49.352Z</time>
      </trkpt>
      <trkpt lat="44.63254" lon="-0.97998">
        <ele>50.743367</ele>
        <time>2022-12-25T12:05:52.357Z</time>
      </trkpt>
      <trkpt lat="44.63246" lon="-0.98011">
        <ele>50.696149</ele>
        <time>2022-12-25T12:05:55.369Z</time>
      </trkpt>
      <trkpt lat="44.63241" lon="-0.98025">
        <ele>50.652405</ele>
        <time>2022-12-25T12:05:58.353Z</time>
      </trkpt>
      <trkpt lat="44.63235" lon="-0.9804">
        <ele>50.61878</ele>
        <time>2022-12-25T12:06:01.374Z</time>
      </trkpt>
      <trkpt lat="44.63229" lon="-0.98055">
        <ele>50.584247</ele>
        <time>2022-12-25T12:06:04.369Z</time>
      </trkpt>
      <trkpt lat="44.63222" lon="-0.9807">
        <ele>50.550852</ele>
        <time>2022-12-25T12:06:07.374Z</time>
      </trkpt>
      <trkpt lat="44.63217" lon="-0.98081">
        <ele>50.525132</ele>
        <time>2022-12-25T12:06:09.374Z</time>
      </trkpt>
      <trkpt lat="44.63212" lon="-0.98092">
        <ele>50.498863</ele>
        <time>2022-12-25T12:06:11.371Z</time>
      </trkpt>
      <trkpt lat="44.63206" lon="-0.98104">
        <ele>50.473045</ele>
        <time>2022-12-25T12:06:13.379Z</time>
      </trkpt>
      <trkpt lat="44.63201" lon="-0.98115">
        <ele>50.447208</ele>
        <time>2022-12-25T12:06:15.372Z</time>
      </trkpt>
      <trkpt lat="44.63194" lon="-0.98132">
        <ele>50.408655</ele>
        <time>2022-12-25T12:06:18.376Z</time>
      </trkpt>
      <trkpt lat="44.63189" lon="-0.98144">
        <ele>50.380261</ele>
        <time>2022-12-25T12:06:20.369Z</time>
      </trkpt>
      <trkpt lat="44.63183" lon="-0.98155">
        <ele>50.354632</ele>
        <time>2022-12-25T12:06:22.370Z</time>
      </trkpt>
      <trkpt lat="44.63178" lon="-0.98168">
        <ele>50.326261</ele>
        <time>2022-12-25T12:06:24.366Z</time>
      </trkpt>
      <trkpt lat="44.63172" lon="-0.9818">
        <ele>50.297559</ele>
        <time>2022-12-25T12:06:26.364Z</time>
      </trkpt>
      <trkpt lat="44.63167" lon="-0.98193">
        <ele>50.269581</ele>
        <time>2022-12-25T12:06:28.373Z</time>
      </trkpt>
      <trkpt lat="44.63162" lon="-0.98204">
        <ele>50.243763</ele>
        <time>2022-12-25T12:06:30.369Z</time>
      </trkpt>
      <trkpt lat="44.63157" lon="-0.98215">
        <ele>50.217287</ele>
        <time>2022-12-25T12:06:32.365Z</time>
      </trkpt>
      <trkpt lat="44.63152" lon="-0.98227">
        <ele>50.191567</ele>
        <time>2022-12-25T12:06:34.352Z</time>
      </trkpt>
      <trkpt lat="44.63147" lon="-0.98238">
        <ele>50.162676</ele>
        <time>2022-12-25T12:06:36.372Z</time>
      </trkpt>
      <trkpt lat="44.63142" lon="-0.98249">
        <ele>50.10465</ele>
        <time>2022-12-25T12:06:38.371Z</time>
      </trkpt>
      <trkpt lat="44.63135" lon="-0.98264">
        <ele>50.027325</ele>
        <time>2022-12-25T12:06:41.374Z</time>
      </trkpt>
      <trkpt lat="44.6313" lon="-0.98275">
        <ele>49.972101</ele>
        <time>2022-12-25T12:06:43.372Z</time>
      </trkpt>
      <trkpt lat="44.63124" lon="-0.98289">
        <ele>49.902807</ele>
        <time>2022-12-25T12:06:46.375Z</time>
      </trkpt>
      <trkpt lat="44.63118" lon="-0.98302">
        <ele>49.832879</ele>
        <time>2022-12-25T12:06:49.372Z</time>
      </trkpt>
      <trkpt lat="44.63116" lon="-0.98315">
        <ele>49.773899</ele>
        <time>2022-12-25T12:06:52.352Z</time>
      </trkpt>
      <trkpt lat="44.6311" lon="-0.9833">
        <ele>49.70077</ele>
        <time>2022-12-25T12:06:56.359Z</time>
      </trkpt>
      <trkpt lat="44.63102" lon="-0.9834">
        <ele>49.633963</ele>
        <time>2022-12-25T12:06:59.357Z</time>
      </trkpt>
      <trkpt lat="44.63095" lon="-0.98354">
        <ele>49.563647</ele>
        <time>2022-12-25T12:07:02.351Z</time>
      </trkpt>
      <trkpt lat="44.63089" lon="-0.98369">
        <ele>49.486861</ele>
        <time>2022-12-25T12:07:05.362Z</time>
      </trkpt>
      <trkpt lat="44.63081" lon="-0.98384">
        <ele>49.404951</ele>
        <time>2022-12-25T12:07:08.373Z</time>
      </trkpt>
      <trkpt lat="44.63073" lon="-0.98399">
        <ele>49.324457</ele>
        <time>2022-12-25T12:07:11.369Z</time>
      </trkpt>
      <trkpt lat="44.63068" lon="-0.9841">
        <ele>49.268225</ele>
        <time>2022-12-25T12:07:13.369Z</time>
      </trkpt>
      <trkpt lat="44.63063" lon="-0.98421">
        <ele>49.210286</ele>
        <time>2022-12-25T12:07:15.370Z</time>
      </trkpt>
      <trkpt lat="44.63058" lon="-0.98432">
        <ele>49.151202</ele>
        <time>2022-12-25T12:07:17.373Z</time>
      </trkpt>
      <trkpt lat="44.63053" lon="-0.98444">
        <ele>49.094335</ele>
        <time>2022-12-25T12:07:19.377Z</time>
      </trkpt>
      <trkpt lat="44.63049" lon="-0.98455">
        <ele>49.153854</ele>
        <time>2022-12-25T12:07:21.369Z</time>
      </trkpt>
      <trkpt lat="44.63044" lon="-0.98466">
        <ele>49.290162</ele>
        <time>2022-12-25T12:07:23.377Z</time>
      </trkpt>
      <trkpt lat="44.63039" lon="-0.98478">
        <ele>49.424985</ele>
        <time>2022-12-25T12:07:25.371Z</time>
      </trkpt>
      <trkpt lat="44.63031" lon="-0.98493">
        <ele>49.621397</ele>
        <time>2022-12-25T12:07:28.371Z</time>
      </trkpt>
      <trkpt lat="44.63027" lon="-0.98504">
        <ele>49.751688</ele>
        <time>2022-12-25T12:07:30.362Z</time>
      </trkpt>
      <trkpt lat="44.63019" lon="-0.9852">
        <ele>49.942357</ele>
        <time>2022-12-25T12:07:33.379Z</time>
      </trkpt>
      <trkpt lat="44.63015" lon="-0.98531">
        <ele>50.073446</ele>
        <time>2022-12-25T12:07:35.373Z</time>
      </trkpt>
      <trkpt lat="44.63009" lon="-0.98546">
        <ele>50.258041</ele>
        <time>2022-12-25T12:07:38.372Z</time>
      </trkpt>
      <trkpt lat="44.63004" lon="-0.9856">
        <ele>50.413495</ele>
        <time>2022-12-25T12:07:41.366Z</time>
      </trkpt>
      <trkpt lat="44.62998" lon="-0.98573">
        <ele>50.576819</ele>
        <time>2022-12-25T12:07:44.353Z</time>
      </trkpt>
      <trkpt lat="44.62992" lon="-0.98587">
        <ele>50.741546</ele>
        <time>2022-12-25T12:07:47.372Z</time>
      </trkpt>
      <trkpt lat="44.62985" lon="-0.986">
        <ele>50.911923</ele>
        <time>2022-12-25T12:07:50.363Z</time>
      </trkpt>
      <trkpt lat="44.62978" lon="-0.98614">
        <ele>51.087346</ele>
        <time>2022-12-25T12:07:53.386Z</time>
      </trkpt>
      <trkpt lat="44.62972" lon="-0.98629">
        <ele>51.262634</ele>
        <time>2022-12-25T12:07:56.351Z</time>
      </trkpt>
      <trkpt lat="44.62966" lon="-0.98644">
        <ele>51.439272</ele>
        <time>2022-12-25T12:07:59.371Z</time>
      </trkpt>
      <trkpt lat="44.62959" lon="-0.98657">
        <ele>51.606432</ele>
        <time>2022-12-25T12:08:03.351Z</time>
      </trkpt>
      <trkpt lat="44.62953" lon="-0.98671">
        <ele>51.614313</ele>
        <time>2022-12-25T12:08:07.377Z</time>
      </trkpt>
      <trkpt lat="44.62947" lon="-0.98684">
        <ele>51.511703</ele>
        <time>2022-12-25T12:08:10.369Z</time>
      </trkpt>
      <trkpt lat="44.6294" lon="-0.98698">
        <ele>51.403901</ele>
        <time>2022-12-25T12:08:13.376Z</time>
      </trkpt>
      <trkpt lat="44.62933" lon="-0.98715">
        <ele>51.276366</ele>
        <time>2022-12-25T12:08:16.368Z</time>
      </trkpt>
      <trkpt lat="44.62928" lon="-0.98727">
        <ele>51.188045</ele>
        <time>2022-12-25T12:08:18.368Z</time>
      </trkpt>
      <trkpt lat="44.62923" lon="-0.98739">
        <ele>51.099509</ele>
        <time>2022-12-25T12:08:20.371Z</time>
      </trkpt>
      <trkpt lat="44.62918" lon="-0.98751">
        <ele>51.014041</ele>
        <time>2022-12-25T12:08:22.371Z</time>
      </trkpt>
      <trkpt lat="44.62912" lon="-0.98763">
        <ele>50.917538</ele>
        <time>2022-12-25T12:08:24.372Z</time>
      </trkpt>
      <trkpt lat="44.62906" lon="-0.98776">
        <ele>50.823794</ele>
        <time>2022-12-25T12:08:26.373Z</time>
      </trkpt>
      <trkpt lat="44.62899" lon="-0.98788">
        <ele>50.718891</ele>
        <time>2022-12-25T12:08:28.371Z</time>
      </trkpt>
      <trkpt lat="44.62893" lon="-0.98803">
        <ele>50.611029</ele>
        <time>2022-12-25T12:08:30.368Z</time>
      </trkpt>
      <trkpt lat="44.62887" lon="-0.98816">
        <ele>50.513908</ele>
        <time>2022-12-25T12:08:32.376Z</time>
      </trkpt>
      <trkpt lat="44.62881" lon="-0.98828">
        <ele>50.422728</ele>
        <time>2022-12-25T12:08:34.372Z</time>
      </trkpt>
      <trkpt lat="44.62875" lon="-0.98841">
        <ele>50.321112</ele>
        <time>2022-12-25T12:08:36.373Z</time>
      </trkpt>
      <trkpt lat="44.6287" lon="-0.98854">
        <ele>50.22569</ele>
        <time>2022-12-25T12:08:38.361Z</time>
      </trkpt>
      <trkpt lat="44.62863" lon="-0.98867">
        <ele>50.126203</ele>
        <time>2022-12-25T12:08:40.374Z</time>
      </trkpt>
      <trkpt lat="44.62857" lon="-0.98879">
        <ele>50.109987</ele>
        <time>2022-12-25T12:08:42.371Z</time>
      </trkpt>
      <trkpt lat="44.62852" lon="-0.98889">
        <ele>50.238073</ele>
        <time>2022-12-25T12:08:44.368Z</time>
      </trkpt>
      <trkpt lat="44.62848" lon="-0.98901">
        <ele>50.37363</ele>
        <time>2022-12-25T12:08:46.374Z</time>
      </trkpt>
      <trkpt lat="44.62843" lon="-0.98912">
        <ele>50.500779</ele>
        <time>2022-12-25T12:08:48.372Z</time>
      </trkpt>
      <trkpt lat="44.62836" lon="-0.98928">
        <ele>50.691207</ele>
        <time>2022-12-25T12:08:51.375Z</time>
      </trkpt>
      <trkpt lat="44.62829" lon="-0.98943">
        <ele>50.871645</ele>
        <time>2022-12-25T12:08:54.359Z</time>
      </trkpt>
      <trkpt lat="44.62824" lon="-0.98954">
        <ele>51.005048</ele>
        <time>2022-12-25T12:08:56.373Z</time>
      </trkpt>
      <trkpt lat="44.62819" lon="-0.98966">
        <ele>51.145648</ele>
        <time>2022-12-25T12:08:58.374Z</time>
      </trkpt>
      <trkpt lat="44.62813" lon="-0.98978">
        <ele>51.28932</ele>
        <time>2022-12-25T12:09:00.372Z</time>
      </trkpt>
      <trkpt lat="44.62809" lon="-0.98991">
        <ele>51.429551</ele>
        <time>2022-12-25T12:09:02.375Z</time>
      </trkpt>
      <trkpt lat="44.62804" lon="-0.99002">
        <ele>51.565115</ele>
        <time>2022-12-25T12:09:04.359Z</time>
      </trkpt>
      <trkpt lat="44.62798" lon="-0.99014">
        <ele>51.707936</ele>
        <time>2022-12-25T12:09:06.362Z</time>
      </trkpt>
      <trkpt lat="44.62792" lon="-0.99029">
        <ele>51.880323</ele>
        <time>2022-12-25T12:09:09.372Z</time>
      </trkpt>
      <trkpt lat="44.62785" lon="-0.99041">
        <ele>52.036878</ele>
        <time>2022-12-25T12:09:11.371Z</time>
      </trkpt>
      <trkpt lat="44.62778" lon="-0.99053">
        <ele>52.188513</ele>
        <time>2022-12-25T12:09:13.389Z</time>
      </trkpt>
      <trkpt lat="44.62773" lon="-0.99064">
        <ele>52.323116</ele>
        <time>2022-12-25T12:09:15.374Z</time>
      </trkpt>
      <trkpt lat="44.62769" lon="-0.99076">
        <ele>52.462892</ele>
        <time>2022-12-25T12:09:17.372Z</time>
      </trkpt>
      <trkpt lat="44.62763" lon="-0.9909">
        <ele>52.614035</ele>
        <time>2022-12-25T12:09:19.377Z</time>
      </trkpt>
      <trkpt lat="44.62757" lon="-0.99102">
        <ele>52.717441</ele>
        <time>2022-12-25T12:09:21.371Z</time>
      </trkpt>
      <trkpt lat="44.62753" lon="-0.99114">
        <ele>52.817707</ele>
        <time>2022-12-25T12:09:23.361Z</time>
      </trkpt>
      <trkpt lat="44.62748" lon="-0.99125">
        <ele>52.90995</ele>
        <time>2022-12-25T12:09:25.374Z</time>
      </trkpt>
      <trkpt lat="44.62742" lon="-0.99138">
        <ele>53.017887</ele>
        <time>2022-12-25T12:09:27.373Z</time>
      </trkpt>
      <trkpt lat="44.62737" lon="-0.9915">
        <ele>53.116914</ele>
        <time>2022-12-25T12:09:29.374Z</time>
      </trkpt>
      <trkpt lat="44.62732" lon="-0.99162">
        <ele>53.216945</ele>
        <time>2022-12-25T12:09:31.372Z</time>
      </trkpt>
      <trkpt lat="44.62725" lon="-0.99179">
        <ele>53.353804</ele>
        <time>2022-12-25T12:09:34.371Z</time>
      </trkpt>
      <trkpt lat="44.62718" lon="-0.99193">
        <ele>53.478469</ele>
        <time>2022-12-25T12:09:37.373Z</time>
      </trkpt>
      <trkpt lat="44.62713" lon="-0.99204">
        <ele>53.570617</ele>
        <time>2022-12-25T12:09:40.352Z</time>
      </trkpt>
      <trkpt lat="44.62707" lon="-0.99217">
        <ele>53.677903</ele>
        <time>2022-12-25T12:09:44.374Z</time>
      </trkpt>
      <trkpt lat="44.62701" lon="-0.99232">
        <ele>53.801906</ele>
        <time>2022-12-25T12:09:47.355Z</time>
      </trkpt>
      <trkpt lat="44.62695" lon="-0.99246">
        <ele>53.917385</ele>
        <time>2022-12-25T12:09:50.372Z</time>
      </trkpt>
      <trkpt lat="44.6269" lon="-0.99261">
        <ele>54.034563</ele>
        <time>2022-12-25T12:09:53.384Z</time>
      </trkpt>
      <trkpt lat="44.62685" lon="-0.99274">
        <ele>54.138471</ele>
        <time>2022-12-25T12:09:55.372Z</time>
      </trkpt>
      <trkpt lat="44.62681" lon="-0.99293">
        <ele>54.277082</ele>
        <time>2022-12-25T12:09:58.366Z</time>
      </trkpt>
      <trkpt lat="44.62679" lon="-0.99309">
        <ele>54.400741</ele>
        <time>2022-12-25T12:10:01.375Z</time>
      </trkpt>
      <trkpt lat="44.62677" lon="-0.99325">
        <ele>54.271104</ele>
        <time>2022-12-25T12:10:04.376Z</time>
      </trkpt>
      <trkpt lat="44.62676" lon="-0.99342">
        <ele>54.126555</ele>
        <time>2022-12-25T12:10:07.351Z</time>
      </trkpt>
      <trkpt lat="44.62675" lon="-0.99361">
        <ele>53.972299</ele>
        <time>2022-12-25T12:10:10.364Z</time>
      </trkpt>
      <trkpt lat="44.62673" lon="-0.99373">
        <ele>53.867585</ele>
        <time>2022-12-25T12:10:12.369Z</time>
      </trkpt>
      <trkpt lat="44.62671" lon="-0.99392">
        <ele>53.711733</ele>
        <time>2022-12-25T12:10:15.365Z</time>
      </trkpt>
      <trkpt lat="44.62669" lon="-0.99405">
        <ele>53.59902</ele>
        <time>2022-12-25T12:10:17.371Z</time>
      </trkpt>
      <trkpt lat="44.62668" lon="-0.99418">
        <ele>53.489545</ele>
        <time>2022-12-25T12:10:19.357Z</time>
      </trkpt>
      <trkpt lat="44.62666" lon="-0.99436">
        <ele>53.338802</ele>
        <time>2022-12-25T12:10:22.372Z</time>
      </trkpt>
      <trkpt lat="44.62665" lon="-0.99454">
        <ele>53.191649</ele>
        <time>2022-12-25T12:10:25.372Z</time>
      </trkpt>
      <trkpt lat="44.62663" lon="-0.99472">
        <ele>53.039449</ele>
        <time>2022-12-25T12:10:28.370Z</time>
      </trkpt>
      <trkpt lat="44.62661" lon="-0.9949">
        <ele>52.890712</ele>
        <time>2022-12-25T12:10:31.377Z</time>
      </trkpt>
      <trkpt lat="44.6266" lon="-0.99507">
        <ele>52.743559</ele>
        <time>2022-12-25T12:10:34.374Z</time>
      </trkpt>
      <trkpt lat="44.62658" lon="-0.99522">
        <ele>52.615325</ele>
        <time>2022-12-25T12:10:37.357Z</time>
      </trkpt>
      <trkpt lat="44.62656" lon="-0.9954">
        <ele>52.465103</ele>
        <time>2022-12-25T12:10:40.358Z</time>
      </trkpt>
      <trkpt lat="44.62655" lon="-0.99557">
        <ele>52.32868</ele>
        <time>2022-12-25T12:10:43.385Z</time>
      </trkpt>
      <trkpt lat="44.62654" lon="-0.99573">
        <ele>52.241313</ele>
        <time>2022-12-25T12:10:46.360Z</time>
      </trkpt>
      <trkpt lat="44.62653" lon="-0.99587">
        <ele>52.17312</ele>
        <time>2022-12-25T12:10:49.367Z</time>
      </trkpt>
      <trkpt lat="44.62651" lon="-0.99601">
        <ele>52.110675</ele>
        <time>2022-12-25T12:10:52.372Z</time>
      </trkpt>
      <trkpt lat="44.6265" lon="-0.99617">
        <ele>52.03233</ele>
        <time>2022-12-25T12:10:56.372Z</time>
      </trkpt>
      <trkpt lat="44.62648" lon="-0.9963">
        <ele>51.97254</ele>
        <time>2022-12-25T12:10:59.371Z</time>
      </trkpt>
      <trkpt lat="44.62646" lon="-0.99646">
        <ele>51.894351</ele>
        <time>2022-12-25T12:11:03.377Z</time>
      </trkpt>
      <trkpt lat="44.62645" lon="-0.99659">
        <ele>51.834426</ele>
        <time>2022-12-25T12:11:06.370Z</time>
      </trkpt>
      <trkpt lat="44.62642" lon="-0.99674">
        <ele>51.76029</ele>
        <time>2022-12-25T12:11:10.372Z</time>
      </trkpt>
      <trkpt lat="44.62641" lon="-0.99687">
        <ele>51.701072</ele>
        <time>2022-12-25T12:11:13.375Z</time>
      </trkpt>
      <trkpt lat="44.6264" lon="-0.99701">
        <ele>51.636951</ele>
        <time>2022-12-25T12:11:16.366Z</time>
      </trkpt>
      <trkpt lat="44.62639" lon="-0.99714">
        <ele>51.573775</ele>
        <time>2022-12-25T12:11:19.371Z</time>
      </trkpt>
      <trkpt lat="44.62637" lon="-0.99731">
        <ele>51.493579</ele>
        <time>2022-12-25T12:11:23.386Z</time>
      </trkpt>
      <trkpt lat="44.62636" lon="-0.99746">
        <ele>51.421981</ele>
        <time>2022-12-25T12:11:26.378Z</time>
      </trkpt>
      <trkpt lat="44.62635" lon="-0.99763">
        <ele>51.344675</ele>
        <time>2022-12-25T12:11:29.372Z</time>
      </trkpt>
      <trkpt lat="44.62635" lon="-0.99781">
        <ele>51.260578</ele>
        <time>2022-12-25T12:11:32.352Z</time>
      </trkpt>
      <trkpt lat="44.62634" lon="-0.99798">
        <ele>51.17908</ele>
        <time>2022-12-25T12:11:35.368Z</time>
      </trkpt>
      <trkpt lat="44.62632" lon="-0.99815">
        <ele>51.04864</ele>
        <time>2022-12-25T12:11:38.351Z</time>
      </trkpt>
      <trkpt lat="44.6263" lon="-0.99832">
        <ele>50.79772</ele>
        <time>2022-12-25T12:11:41.352Z</time>
      </trkpt>
      <trkpt lat="44.62629" lon="-0.99849">
        <ele>50.553044</ele>
        <time>2022-12-25T12:11:44.372Z</time>
      </trkpt>
      <trkpt lat="44.6263" lon="-0.99864">
        <ele>50.328359</ele>
        <time>2022-12-25T12:11:47.354Z</time>
      </trkpt>
      <trkpt lat="44.62634" lon="-0.9988">
        <ele>50.080615</ele>
        <time>2022-12-25T12:11:50.364Z</time>
      </trkpt>
      <trkpt lat="44.62642" lon="-0.99893">
        <ele>49.830139</ele>
        <time>2022-12-25T12:11:53.369Z</time>
      </trkpt>
      <trkpt lat="44.62648" lon="-0.99906">
        <ele>49.600173</ele>
        <time>2022-12-25T12:11:56.370Z</time>
      </trkpt>
      <trkpt lat="44.62651" lon="-0.99923">
        <ele>49.343439</ele>
        <time>2022-12-25T12:11:59.351Z</time>
      </trkpt>
      <trkpt lat="44.62652" lon="-0.99938">
        <ele>49.118373</ele>
        <time>2022-12-25T12:12:02.354Z</time>
      </trkpt>
      <trkpt lat="44.6265" lon="-0.99953">
        <ele>48.890282</ele>
        <time>2022-12-25T12:12:05.352Z</time>
      </trkpt>
      <trkpt lat="44.62645" lon="-0.9997">
        <ele>48.61823</ele>
        <time>2022-12-25T12:12:08.355Z</time>
      </trkpt>
      <trkpt lat="44.62639" lon="-0.99983">
        <ele>48.392908</ele>
        <time>2022-12-25T12:12:11.372Z</time>
      </trkpt>
      <trkpt lat="44.62635" lon="-0.99998">
        <ele>48.158785</ele>
        <time>2022-12-25T12:12:14.361Z</time>
      </trkpt>
      <trkpt lat="44.62628" lon="-1.00011">
        <ele>47.922342</ele>
        <time>2022-12-25T12:12:17.357Z</time>
      </trkpt>
      <trkpt lat="44.6262" lon="-1.00022">
        <ele>47.682654</ele>
        <time>2022-12-25T12:12:20.354Z</time>
      </trkpt>
      <trkpt lat="44.62614" lon="-1.00036">
        <ele>47.444501</ele>
        <time>2022-12-25T12:12:23.364Z</time>
      </trkpt>
      <trkpt lat="44.62612" lon="-1.00051">
        <ele>47.621676</ele>
        <time>2022-12-25T12:12:26.351Z</time>
      </trkpt>
      <trkpt lat="44.62609" lon="-1.00065">
        <ele>47.902332</ele>
        <time>2022-12-25T12:12:29.373Z</time>
      </trkpt>
      <trkpt lat="44.62605" lon="-1.00079">
        <ele>48.184804</ele>
        <time>2022-12-25T12:12:32.377Z</time>
      </trkpt>
      <trkpt lat="44.62603" lon="-1.00095">
        <ele>48.490712</ele>
        <time>2022-12-25T12:12:35.374Z</time>
      </trkpt>
      <trkpt lat="44.62601" lon="-1.00113">
        <ele>48.824876</ele>
        <time>2022-12-25T12:12:38.352Z</time>
      </trkpt>
      <trkpt lat="44.62599" lon="-1.00125">
        <ele>49.069901</ele>
        <time>2022-12-25T12:12:40.366Z</time>
      </trkpt>
      <trkpt lat="44.62596" lon="-1.00144">
        <ele>49.42042</ele>
        <time>2022-12-25T12:12:43.366Z</time>
      </trkpt>
      <trkpt lat="44.62594" lon="-1.0016">
        <ele>49.737205</ele>
        <time>2022-12-25T12:12:46.373Z</time>
      </trkpt>
      <trkpt lat="44.62593" lon="-1.00177">
        <ele>50.064679</ele>
        <time>2022-12-25T12:12:49.366Z</time>
      </trkpt>
      <trkpt lat="44.6259" lon="-1.00195">
        <ele>50.409478</ele>
        <time>2022-12-25T12:12:52.373Z</time>
      </trkpt>
      <trkpt lat="44.62588" lon="-1.00213">
        <ele>50.749198</ele>
        <time>2022-12-25T12:12:55.357Z</time>
      </trkpt>
      <trkpt lat="44.62586" lon="-1.00231">
        <ele>51.092283</ele>
        <time>2022-12-25T12:12:58.368Z</time>
      </trkpt>
      <trkpt lat="44.62584" lon="-1.00249">
        <ele>51.431517</ele>
        <time>2022-12-25T12:13:01.354Z</time>
      </trkpt>
      <trkpt lat="44.62582" lon="-1.00265">
        <ele>51.735142</ele>
        <time>2022-12-25T12:13:04.373Z</time>
      </trkpt>
      <trkpt lat="44.62582" lon="-1.0028">
        <ele>52.016866</ele>
        <time>2022-12-25T12:13:07.373Z</time>
      </trkpt>
      <trkpt lat="44.62581" lon="-1.00296">
        <ele>52.163058</ele>
        <time>2022-12-25T12:13:10.378Z</time>
      </trkpt>
      <trkpt lat="44.6258" lon="-1.00313">
        <ele>52.163059</ele>
        <time>2022-12-25T12:13:13.373Z</time>
      </trkpt>
      <trkpt lat="44.6258" lon="-1.00329">
        <ele>52.163061</ele>
        <time>2022-12-25T12:13:16.364Z</time>
      </trkpt>
      <trkpt lat="44.6258" lon="-1.00346">
        <ele>52.163062</ele>
        <time>2022-12-25T12:13:19.372Z</time>
      </trkpt>
      <trkpt lat="44.62581" lon="-1.0036">
        <ele>52.163064</ele>
        <time>2022-12-25T12:13:22.359Z</time>
      </trkpt>
      <trkpt lat="44.62581" lon="-1.00374">
        <ele>52.163065</ele>
        <time>2022-12-25T12:13:25.350Z</time>
      </trkpt>
      <trkpt lat="44.62583" lon="-1.00389">
        <ele>52.163066</ele>
        <time>2022-12-25T12:13:28.373Z</time>
      </trkpt>
      <trkpt lat="44.62587" lon="-1.00404">
        <ele>52.163068</ele>
        <time>2022-12-25T12:13:31.376Z</time>
      </trkpt>
      <trkpt lat="44.6259" lon="-1.00419">
        <ele>52.163069</ele>
        <time>2022-12-25T12:13:34.375Z</time>
      </trkpt>
      <trkpt lat="44.62594" lon="-1.00434">
        <ele>52.163071</ele>
        <time>2022-12-25T12:13:37.371Z</time>
      </trkpt>
      <trkpt lat="44.62597" lon="-1.00451">
        <ele>52.163073</ele>
        <time>2022-12-25T12:13:40.352Z</time>
      </trkpt>
      <trkpt lat="44.62602" lon="-1.00468">
        <ele>52.163074</ele>
        <time>2022-12-25T12:13:43.376Z</time>
      </trkpt>
      <trkpt lat="44.62608" lon="-1.00484">
        <ele>52.163076</ele>
        <time>2022-12-25T12:13:46.367Z</time>
      </trkpt>
      <trkpt lat="44.62612" lon="-1.00501">
        <ele>52.163078</ele>
        <time>2022-12-25T12:13:49.353Z</time>
      </trkpt>
      <trkpt lat="44.62614" lon="-1.00513">
        <ele>52.163079</ele>
        <time>2022-12-25T12:13:51.375Z</time>
      </trkpt>
      <trkpt lat="44.62618" lon="-1.00532">
        <ele>52.163045</ele>
        <time>2022-12-25T12:13:54.367Z</time>
      </trkpt>
      <trkpt lat="44.62621" lon="-1.00545">
        <ele>52.162378</ele>
        <time>2022-12-25T12:13:56.373Z</time>
      </trkpt>
      <trkpt lat="44.62624" lon="-1.00557">
        <ele>52.161709</ele>
        <time>2022-12-25T12:13:58.376Z</time>
      </trkpt>
      <trkpt lat="44.62628" lon="-1.0057">
        <ele>52.161025</ele>
        <time>2022-12-25T12:14:00.360Z</time>
      </trkpt>
      <trkpt lat="44.62632" lon="-1.00582">
        <ele>52.160354</ele>
        <time>2022-12-25T12:14:02.372Z</time>
      </trkpt>
      <trkpt lat="44.62636" lon="-1.00598">
        <ele>52.159487</ele>
        <time>2022-12-25T12:14:05.375Z</time>
      </trkpt>
      <trkpt lat="44.62641" lon="-1.0061">
        <ele>52.158816</ele>
        <time>2022-12-25T12:14:07.360Z</time>
      </trkpt>
      <trkpt lat="44.62646" lon="-1.00626">
        <ele>52.157912</ele>
        <time>2022-12-25T12:14:10.376Z</time>
      </trkpt>
      <trkpt lat="44.62649" lon="-1.00638">
        <ele>52.157272</ele>
        <time>2022-12-25T12:14:12.373Z</time>
      </trkpt>
      <trkpt lat="44.62653" lon="-1.00656">
        <ele>52.156363</ele>
        <time>2022-12-25T12:14:15.371Z</time>
      </trkpt>
      <trkpt lat="44.62656" lon="-1.00668">
        <ele>52.155709</ele>
        <time>2022-12-25T12:14:17.372Z</time>
      </trkpt>
      <trkpt lat="44.62658" lon="-1.00681">
        <ele>52.155027</ele>
        <time>2022-12-25T12:14:19.360Z</time>
      </trkpt>
      <trkpt lat="44.62661" lon="-1.00694">
        <ele>52.154369</ele>
        <time>2022-12-25T12:14:21.370Z</time>
      </trkpt>
      <trkpt lat="44.62664" lon="-1.00711">
        <ele>52.153491</ele>
        <time>2022-12-25T12:14:24.373Z</time>
      </trkpt>
      <trkpt lat="44.62669" lon="-1.00722">
        <ele>52.152833</ele>
        <time>2022-12-25T12:14:26.356Z</time>
      </trkpt>
      <trkpt lat="44.62672" lon="-1.00734">
        <ele>52.152165</ele>
        <time>2022-12-25T12:14:28.370Z</time>
      </trkpt>
      <trkpt lat="44.62676" lon="-1.00746">
        <ele>52.15152</ele>
        <time>2022-12-25T12:14:30.355Z</time>
      </trkpt>
      <trkpt lat="44.62682" lon="-1.00761">
        <ele>52.150663</ele>
        <time>2022-12-25T12:14:32.371Z</time>
      </trkpt>
      <trkpt lat="44.62687" lon="-1.00774">
        <ele>52.027871</ele>
        <time>2022-12-25T12:14:34.370Z</time>
      </trkpt>
      <trkpt lat="44.62691" lon="-1.00786">
        <ele>51.858139</ele>
        <time>2022-12-25T12:14:36.371Z</time>
      </trkpt>
      <trkpt lat="44.62694" lon="-1.00798">
        <ele>51.689197</ele>
        <time>2022-12-25T12:14:38.352Z</time>
      </trkpt>
      <trkpt lat="44.627" lon="-1.00815">
        <ele>51.453921</ele>
        <time>2022-12-25T12:14:41.371Z</time>
      </trkpt>
      <trkpt lat="44.62705" lon="-1.00831">
        <ele>51.231121</ele>
        <time>2022-12-25T12:14:44.368Z</time>
      </trkpt>
      <trkpt lat="44.62709" lon="-1.00846">
        <ele>51.026944</ele>
        <time>2022-12-25T12:14:47.368Z</time>
      </trkpt>
      <trkpt lat="44.62715" lon="-1.00861">
        <ele>50.811208</ele>
        <time>2022-12-25T12:14:50.352Z</time>
      </trkpt>
      <trkpt lat="44.6272" lon="-1.00874">
        <ele>50.616042</ele>
        <time>2022-12-25T12:14:53.371Z</time>
      </trkpt>
      <trkpt lat="44.62726" lon="-1.00889">
        <ele>50.404198</ele>
        <time>2022-12-25T12:14:56.373Z</time>
      </trkpt>
      <trkpt lat="44.62731" lon="-1.00904">
        <ele>50.189388</ele>
        <time>2022-12-25T12:14:59.373Z</time>
      </trkpt>
      <trkpt lat="44.62736" lon="-1.0092">
        <ele>49.964928</ele>
        <time>2022-12-25T12:15:02.367Z</time>
      </trkpt>
      <trkpt lat="44.62741" lon="-1.00936">
        <ele>49.7347</ele>
        <time>2022-12-25T12:15:05.357Z</time>
      </trkpt>
      <trkpt lat="44.62748" lon="-1.00955">
        <ele>49.469809</ele>
        <time>2022-12-25T12:15:08.372Z</time>
      </trkpt>
      <trkpt lat="44.62752" lon="-1.00966">
        <ele>49.305751</ele>
        <time>2022-12-25T12:15:10.372Z</time>
      </trkpt>
      <trkpt lat="44.62755" lon="-1.00978">
        <ele>49.142235</ele>
        <time>2022-12-25T12:15:12.373Z</time>
      </trkpt>
      <trkpt lat="44.62758" lon="-1.00991">
        <ele>48.967809</ele>
        <time>2022-12-25T12:15:14.374Z</time>
      </trkpt>
      <trkpt lat="44.62762" lon="-1.01008">
        <ele>48.931948</ele>
        <time>2022-12-25T12:15:17.356Z</time>
      </trkpt>
      <trkpt lat="44.62766" lon="-1.01024">
        <ele>48.952989</ele>
        <time>2022-12-25T12:15:20.366Z</time>
      </trkpt>
      <trkpt lat="44.6277" lon="-1.01039">
        <ele>48.972382</ele>
        <time>2022-12-25T12:15:23.376Z</time>
      </trkpt>
      <trkpt lat="44.62775" lon="-1.01053">
        <ele>48.992384</ele>
        <time>2022-12-25T12:15:27.358Z</time>
      </trkpt>
      <trkpt lat="44.62782" lon="-1.01063">
        <ele>49.010907</ele>
        <time>2022-12-25T12:15:31.370Z</time>
      </trkpt>
      <trkpt lat="44.62794" lon="-1.01061">
        <ele>49.031559</ele>
        <time>2022-12-25T12:15:35.373Z</time>
      </trkpt>
      <trkpt lat="44.62804" lon="-1.01056">
        <ele>49.050429</ele>
        <time>2022-12-25T12:15:38.355Z</time>
      </trkpt>
      <trkpt lat="44.62815" lon="-1.0105">
        <ele>49.071023</ele>
        <time>2022-12-25T12:15:41.375Z</time>
      </trkpt>
      <trkpt lat="44.62826" lon="-1.01044">
        <ele>49.091288</ele>
        <time>2022-12-25T12:15:44.372Z</time>
      </trkpt>
      <trkpt lat="44.62837" lon="-1.01033">
        <ele>49.114888</ele>
        <time>2022-12-25T12:15:47.360Z</time>
      </trkpt>
      <trkpt lat="44.62846" lon="-1.01023">
        <ele>49.134846</ele>
        <time>2022-12-25T12:15:49.365Z</time>
      </trkpt>
      <trkpt lat="44.62854" lon="-1.01014">
        <ele>49.153239</ele>
        <time>2022-12-25T12:15:51.349Z</time>
      </trkpt>
      <trkpt lat="44.62862" lon="-1.01007">
        <ele>49.169543</ele>
        <time>2022-12-25T12:15:53.384Z</time>
      </trkpt>
      <trkpt lat="44.62874" lon="-1.00998">
        <ele>49.192891</ele>
        <time>2022-12-25T12:15:56.362Z</time>
      </trkpt>
      <trkpt lat="44.62882" lon="-1.00992">
        <ele>49.209509</ele>
        <time>2022-12-25T12:15:58.353Z</time>
      </trkpt>
      <trkpt lat="44.62894" lon="-1.00986">
        <ele>49.235315</ele>
        <time>2022-12-25T12:16:01.360Z</time>
      </trkpt>
      <trkpt lat="44.62907" lon="-1.00983">
        <ele>49.312226</ele>
        <time>2022-12-25T12:16:04.354Z</time>
      </trkpt>
      <trkpt lat="44.62917" lon="-1.00982">
        <ele>49.377081</ele>
        <time>2022-12-25T12:16:07.372Z</time>
      </trkpt>
      <trkpt lat="44.62927" lon="-1.00982">
        <ele>49.433693</ele>
        <time>2022-12-25T12:16:10.364Z</time>
      </trkpt>
      <trkpt lat="44.62937" lon="-1.00983">
        <ele>49.494732</ele>
        <time>2022-12-25T12:16:13.386Z</time>
      </trkpt>
      <trkpt lat="44.62949" lon="-1.00983">
        <ele>49.569962</ele>
        <time>2022-12-25T12:16:16.371Z</time>
      </trkpt>
      <trkpt lat="44.62959" lon="-1.00984">
        <ele>49.62715</ele>
        <time>2022-12-25T12:16:18.354Z</time>
      </trkpt>
      <trkpt lat="44.62973" lon="-1.00984">
        <ele>49.71206</ele>
        <time>2022-12-25T12:16:21.352Z</time>
      </trkpt>
      <trkpt lat="44.62983" lon="-1.00982">
        <ele>49.77245</ele>
        <time>2022-12-25T12:16:23.358Z</time>
      </trkpt>
      <trkpt lat="44.62995" lon="-1.00978">
        <ele>49.850384</ele>
        <time>2022-12-25T12:16:26.362Z</time>
      </trkpt>
      <trkpt lat="44.63005" lon="-1.0097">
        <ele>49.917198</ele>
        <time>2022-12-25T12:16:29.360Z</time>
      </trkpt>
      <trkpt lat="44.63014" lon="-1.00959">
        <ele>49.985579</ele>
        <time>2022-12-25T12:16:32.354Z</time>
      </trkpt>
      <trkpt lat="44.63021" lon="-1.00947">
        <ele>50.057753</ele>
        <time>2022-12-25T12:16:35.349Z</time>
      </trkpt>
      <trkpt lat="44.6303" lon="-1.00934">
        <ele>50.135321</ele>
        <time>2022-12-25T12:16:38.369Z</time>
      </trkpt>
      <trkpt lat="44.63039" lon="-1.0092">
        <ele>50.216308</ele>
        <time>2022-12-25T12:16:41.375Z</time>
      </trkpt>
      <trkpt lat="44.63047" lon="-1.00911">
        <ele>50.276585</ele>
        <time>2022-12-25T12:16:43.352Z</time>
      </trkpt>
      <trkpt lat="44.63056" lon="-1.00904">
        <ele>50.300188</ele>
        <time>2022-12-25T12:16:45.357Z</time>
      </trkpt>
      <trkpt lat="44.63064" lon="-1.00897">
        <ele>50.272473</ele>
        <time>2022-12-25T12:16:47.357Z</time>
      </trkpt>
      <trkpt lat="44.63071" lon="-1.0089">
        <ele>50.244616</ele>
        <time>2022-12-25T12:16:49.372Z</time>
      </trkpt>
      <trkpt lat="44.6308" lon="-1.00882">
        <ele>50.213653</ele>
        <time>2022-12-25T12:16:51.368Z</time>
      </trkpt>
      <trkpt lat="44.63088" lon="-1.00873">
        <ele>50.182555</ele>
        <time>2022-12-25T12:16:53.359Z</time>
      </trkpt>
      <trkpt lat="44.63096" lon="-1.00865">
        <ele>50.151328</ele>
        <time>2022-12-25T12:16:55.367Z</time>
      </trkpt>
      <trkpt lat="44.63104" lon="-1.00857">
        <ele>50.121026</ele>
        <time>2022-12-25T12:16:57.374Z</time>
      </trkpt>
      <trkpt lat="44.63111" lon="-1.00848">
        <ele>50.092395</ele>
        <time>2022-12-25T12:16:59.356Z</time>
      </trkpt>
      <trkpt lat="44.63122" lon="-1.00838">
        <ele>50.053267</ele>
        <time>2022-12-25T12:17:02.370Z</time>
      </trkpt>
      <trkpt lat="44.63133" lon="-1.00831">
        <ele>50.017099</ele>
        <time>2022-12-25T12:17:05.361Z</time>
      </trkpt>
      <trkpt lat="44.63144" lon="-1.00827">
        <ele>49.98144</ele>
        <time>2022-12-25T12:17:08.353Z</time>
      </trkpt>
      <trkpt lat="44.63155" lon="-1.00826">
        <ele>49.949725</ele>
        <time>2022-12-25T12:17:12.366Z</time>
      </trkpt>
      <trkpt lat="44.63167" lon="-1.00826">
        <ele>49.91295</ele>
        <time>2022-12-25T12:17:16.357Z</time>
      </trkpt>
      <trkpt lat="44.63176" lon="-1.00826">
        <ele>49.884048</ele>
        <time>2022-12-25T12:17:18.360Z</time>
      </trkpt>
      <trkpt lat="44.63189" lon="-1.00828">
        <ele>49.845485</ele>
        <time>2022-12-25T12:17:21.372Z</time>
      </trkpt>
      <trkpt lat="44.632" lon="-1.00829">
        <ele>49.81077</ele>
        <time>2022-12-25T12:17:24.352Z</time>
      </trkpt>
      <trkpt lat="44.63212" lon="-1.00828">
        <ele>49.774458</ele>
        <time>2022-12-25T12:17:27.355Z</time>
      </trkpt>
      <trkpt lat="44.63225" lon="-1.00828">
        <ele>49.482872</ele>
        <time>2022-12-25T12:17:30.353Z</time>
      </trkpt>
      <trkpt lat="44.63235" lon="-1.0083">
        <ele>49.192354</ele>
        <time>2022-12-25T12:17:32.354Z</time>
      </trkpt>
      <trkpt lat="44.63244" lon="-1.00834">
        <ele>48.928648</ele>
        <time>2022-12-25T12:17:34.354Z</time>
      </trkpt>
      <trkpt lat="44.63254" lon="-1.00837">
        <ele>48.632271</ele>
        <time>2022-12-25T12:17:36.373Z</time>
      </trkpt>
      <trkpt lat="44.63266" lon="-1.00842">
        <ele>48.30779</ele>
        <time>2022-12-25T12:17:38.349Z</time>
      </trkpt>
      <trkpt lat="44.63276" lon="-1.0085">
        <ele>47.968711</ele>
        <time>2022-12-25T12:17:41.366Z</time>
      </trkpt>
      <trkpt lat="44.63285" lon="-1.00854">
        <ele>47.710788</ele>
        <time>2022-12-25T12:17:43.386Z</time>
      </trkpt>
      <trkpt lat="44.63296" lon="-1.0086">
        <ele>47.383727</ele>
        <time>2022-12-25T12:17:46.373Z</time>
      </trkpt>
      <trkpt lat="44.63307" lon="-1.00866">
        <ele>47.055266</ele>
        <time>2022-12-25T12:17:49.362Z</time>
      </trkpt>
      <trkpt lat="44.63317" lon="-1.0087">
        <ele>46.746146</ele>
        <time>2022-12-25T12:17:52.371Z</time>
      </trkpt>
      <trkpt lat="44.63327" lon="-1.00879">
        <ele>46.410183</ele>
        <time>2022-12-25T12:17:55.358Z</time>
      </trkpt>
      <trkpt lat="44.63329" lon="-1.00894">
        <ele>46.111956</ele>
        <time>2022-12-25T12:17:58.360Z</time>
      </trkpt>
      <trkpt lat="44.63328" lon="-1.00908">
        <ele>45.83097</ele>
        <time>2022-12-25T12:18:00.358Z</time>
      </trkpt>
      <trkpt lat="44.6333" lon="-1.00926">
        <ele>45.4735</ele>
        <time>2022-12-25T12:18:03.374Z</time>
      </trkpt>
      <trkpt lat="44.63331" lon="-1.00944">
        <ele>45.108064</ele>
        <time>2022-12-25T12:18:06.373Z</time>
      </trkpt>
      <trkpt lat="44.63334" lon="-1.00957">
        <ele>44.827184</ele>
        <time>2022-12-25T12:18:09.362Z</time>
      </trkpt>
      <trkpt lat="44.63339" lon="-1.0097">
        <ele>44.530627</ele>
        <time>2022-12-25T12:18:13.374Z</time>
      </trkpt>
      <trkpt lat="44.63349" lon="-1.00977">
        <ele>44.214846</ele>
        <time>2022-12-25T12:18:17.368Z</time>
      </trkpt>
      <trkpt lat="44.63358" lon="-1.00985">
        <ele>43.896511</ele>
        <time>2022-12-25T12:18:20.359Z</time>
      </trkpt>
      <trkpt lat="44.63366" lon="-1.0099">
        <ele>43.624979</ele>
        <time>2022-12-25T12:18:23.364Z</time>
      </trkpt>
      <trkpt lat="44.63375" lon="-1.00997">
        <ele>43.339637</ele>
        <time>2022-12-25T12:18:28.365Z</time>
      </trkpt>
      <trkpt lat="44.63385" lon="-1.01004">
        <ele>43.009993</ele>
        <time>2022-12-25T12:18:31.362Z</time>
      </trkpt>
      <trkpt lat="44.63394" lon="-1.01011">
        <ele>42.701421</ele>
        <time>2022-12-25T12:18:34.372Z</time>
      </trkpt>
      <trkpt lat="44.63398" lon="-1.01024">
        <ele>42.394288</ele>
        <time>2022-12-25T12:18:37.352Z</time>
      </trkpt>
      <trkpt lat="44.63399" lon="-1.01039">
        <ele>42.069472</ele>
        <time>2022-12-25T12:18:40.353Z</time>
      </trkpt>
      <trkpt lat="44.63401" lon="-1.01054">
        <ele>41.754692</ele>
        <time>2022-12-25T12:18:43.374Z</time>
      </trkpt>
      <trkpt lat="44.63402" lon="-1.01069">
        <ele>41.435626</ele>
        <time>2022-12-25T12:18:46.373Z</time>
      </trkpt>
      <trkpt lat="44.63404" lon="-1.01087">
        <ele>41.05038</ele>
        <time>2022-12-25T12:18:49.354Z</time>
      </trkpt>
      <trkpt lat="44.63404" lon="-1.01105">
        <ele>40.675004</ele>
        <time>2022-12-25T12:18:52.374Z</time>
      </trkpt>
      <trkpt lat="44.63405" lon="-1.01123">
        <ele>40.288299</ele>
        <time>2022-12-25T12:18:55.380Z</time>
      </trkpt>
      <trkpt lat="44.63407" lon="-1.01137">
        <ele>39.99936</ele>
        <time>2022-12-25T12:18:57.364Z</time>
      </trkpt>
      <trkpt lat="44.63408" lon="-1.0115">
        <ele>39.730362</ele>
        <time>2022-12-25T12:18:59.358Z</time>
      </trkpt>
      <trkpt lat="44.6341" lon="-1.01165">
        <ele>39.410056</ele>
        <time>2022-12-25T12:19:01.355Z</time>
      </trkpt>
      <trkpt lat="44.63412" lon="-1.01178">
        <ele>39.624366</ele>
        <time>2022-12-25T12:19:03.385Z</time>
      </trkpt>
      <trkpt lat="44.63414" lon="-1.01193">
        <ele>39.939457</ele>
        <time>2022-12-25T12:19:05.362Z</time>
      </trkpt>
      <trkpt lat="44.63414" lon="-1.01208">
        <ele>40.262772</ele>
        <time>2022-12-25T12:19:07.363Z</time>
      </trkpt>
      <trkpt lat="44.63415" lon="-1.01221">
        <ele>40.531535</ele>
        <time>2022-12-25T12:19:09.368Z</time>
      </trkpt>
      <trkpt lat="44.63415" lon="-1.01239">
        <ele>40.906617</ele>
        <time>2022-12-25T12:19:12.374Z</time>
      </trkpt>
      <trkpt lat="44.63418" lon="-1.01252">
        <ele>41.190961</ele>
        <time>2022-12-25T12:19:15.354Z</time>
      </trkpt>
      <trkpt lat="44.63419" lon="-1.01266">
        <ele>41.494723</ele>
        <time>2022-12-25T12:19:18.353Z</time>
      </trkpt>
      <trkpt lat="44.63422" lon="-1.01284">
        <ele>41.870531</ele>
        <time>2022-12-25T12:19:21.371Z</time>
      </trkpt>
      <trkpt lat="44.63426" lon="-1.01301">
        <ele>42.248175</ele>
        <time>2022-12-25T12:19:24.376Z</time>
      </trkpt>
      <trkpt lat="44.63428" lon="-1.01317">
        <ele>42.602252</ele>
        <time>2022-12-25T12:19:27.367Z</time>
      </trkpt>
      <trkpt lat="44.63431" lon="-1.01335">
        <ele>42.979769</ele>
        <time>2022-12-25T12:19:30.369Z</time>
      </trkpt>
      <trkpt lat="44.63434" lon="-1.01353">
        <ele>43.369145</ele>
        <time>2022-12-25T12:19:33.373Z</time>
      </trkpt>
      <trkpt lat="44.63438" lon="-1.01368">
        <ele>43.7138</ele>
        <time>2022-12-25T12:19:36.355Z</time>
      </trkpt>
      <trkpt lat="44.63442" lon="-1.01384">
        <ele>44.056508</ele>
        <time>2022-12-25T12:19:39.373Z</time>
      </trkpt>
      <trkpt lat="44.63446" lon="-1.01398">
        <ele>44.368487</ele>
        <time>2022-12-25T12:19:42.373Z</time>
      </trkpt>
      <trkpt lat="44.6345" lon="-1.01412">
        <ele>44.682892</ele>
        <time>2022-12-25T12:19:45.372Z</time>
      </trkpt>
      <trkpt lat="44.63455" lon="-1.01426">
        <ele>44.900842</ele>
        <time>2022-12-25T12:19:48.373Z</time>
      </trkpt>
      <trkpt lat="44.63456" lon="-1.01441">
        <ele>45.107665</ele>
        <time>2022-12-25T12:19:51.354Z</time>
      </trkpt>
      <trkpt lat="44.63457" lon="-1.01457">
        <ele>45.330432</ele>
        <time>2022-12-25T12:19:54.351Z</time>
      </trkpt>
      <trkpt lat="44.6346" lon="-1.01474">
        <ele>45.565538</ele>
        <time>2022-12-25T12:19:57.373Z</time>
      </trkpt>
      <trkpt lat="44.63463" lon="-1.01492">
        <ele>45.810463</ele>
        <time>2022-12-25T12:20:00.361Z</time>
      </trkpt>
      <trkpt lat="44.63465" lon="-1.0151">
        <ele>46.064884</ele>
        <time>2022-12-25T12:20:03.373Z</time>
      </trkpt>
      <trkpt lat="44.63467" lon="-1.01528">
        <ele>46.313697</ele>
        <time>2022-12-25T12:20:06.370Z</time>
      </trkpt>
      <trkpt lat="44.63471" lon="-1.01543">
        <ele>46.52968</ele>
        <time>2022-12-25T12:20:09.373Z</time>
      </trkpt>
      <trkpt lat="44.63472" lon="-1.01561">
        <ele>46.777047</ele>
        <time>2022-12-25T12:20:12.352Z</time>
      </trkpt>
      <trkpt lat="44.63472" lon="-1.01579">
        <ele>47.022317</ele>
        <time>2022-12-25T12:20:15.364Z</time>
      </trkpt>
      <trkpt lat="44.6347" lon="-1.01595">
        <ele>47.243665</ele>
        <time>2022-12-25T12:20:18.379Z</time>
      </trkpt>
      <trkpt lat="44.63466" lon="-1.01609">
        <ele>47.449429</ele>
        <time>2022-12-25T12:20:21.354Z</time>
      </trkpt>
      <trkpt lat="44.63462" lon="-1.01625">
        <ele>47.675482</ele>
        <time>2022-12-25T12:20:24.371Z</time>
      </trkpt>
      <trkpt lat="44.63459" lon="-1.01642">
        <ele>47.909327</ele>
        <time>2022-12-25T12:20:27.373Z</time>
      </trkpt>
      <trkpt lat="44.63455" lon="-1.01659">
        <ele>48.105973</ele>
        <time>2022-12-25T12:20:30.357Z</time>
      </trkpt>
      <trkpt lat="44.63452" lon="-1.01675">
        <ele>48.050634</ele>
        <time>2022-12-25T12:20:33.375Z</time>
      </trkpt>
      <trkpt lat="44.6345" lon="-1.0169">
        <ele>47.998088</ele>
        <time>2022-12-25T12:20:36.372Z</time>
      </trkpt>
      <trkpt lat="44.63448" lon="-1.01705">
        <ele>47.950151</ele>
        <time>2022-12-25T12:20:39.378Z</time>
      </trkpt>
      <trkpt lat="44.63446" lon="-1.0172">
        <ele>47.900978</ele>
        <time>2022-12-25T12:20:42.373Z</time>
      </trkpt>
      <trkpt lat="44.63445" lon="-1.01736">
        <ele>47.847952</ele>
        <time>2022-12-25T12:20:45.374Z</time>
      </trkpt>
      <trkpt lat="44.63445" lon="-1.01751">
        <ele>47.797288</ele>
        <time>2022-12-25T12:20:48.358Z</time>
      </trkpt>
      <trkpt lat="44.63445" lon="-1.01766">
        <ele>47.746885</ele>
        <time>2022-12-25T12:20:51.364Z</time>
      </trkpt>
      <trkpt lat="44.63442" lon="-1.01781">
        <ele>47.696512</ele>
        <time>2022-12-25T12:20:54.355Z</time>
      </trkpt>
      <trkpt lat="44.63438" lon="-1.01794">
        <ele>47.649358</ele>
        <time>2022-12-25T12:20:57.369Z</time>
      </trkpt>
      <trkpt lat="44.63432" lon="-1.01808">
        <ele>47.597246</ele>
        <time>2022-12-25T12:21:00.373Z</time>
      </trkpt>
      <trkpt lat="44.63425" lon="-1.0182">
        <ele>47.544924</ele>
        <time>2022-12-25T12:21:03.379Z</time>
      </trkpt>
      <trkpt lat="44.63416" lon="-1.01828">
        <ele>47.495307</ele>
        <time>2022-12-25T12:21:06.363Z</time>
      </trkpt>
      <trkpt lat="44.63405" lon="-1.01833">
        <ele>47.441906</ele>
        <time>2022-12-25T12:21:09.365Z</time>
      </trkpt>
      <trkpt lat="44.63394" lon="-1.01838">
        <ele>47.385864</ele>
        <time>2022-12-25T12:21:12.361Z</time>
      </trkpt>
      <trkpt lat="44.63384" lon="-1.01843">
        <ele>47.339633</ele>
        <time>2022-12-25T12:21:15.353Z</time>
      </trkpt>
      <trkpt lat="44.63374" lon="-1.0185">
        <ele>47.28842</ele>
        <time>2022-12-25T12:21:19.372Z</time>
      </trkpt>
      <trkpt lat="44.63366" lon="-1.01855">
        <ele>47.419422</ele>
        <time>2022-12-25T12:21:22.371Z</time>
      </trkpt>
      <trkpt lat="44.63356" lon="-1.0186">
        <ele>47.58532</ele>
        <time>2022-12-25T12:21:25.354Z</time>
      </trkpt>
      <trkpt lat="44.63346" lon="-1.01866">
        <ele>47.769753</ele>
        <time>2022-12-25T12:21:28.375Z</time>
      </trkpt>
      <trkpt lat="44.63337" lon="-1.01869">
        <ele>47.928728</ele>
        <time>2022-12-25T12:21:31.359Z</time>
      </trkpt>
      <trkpt lat="44.63328" lon="-1.01876">
        <ele>48.10042</ele>
        <time>2022-12-25T12:21:34.365Z</time>
      </trkpt>
      <trkpt lat="44.63321" lon="-1.01884">
        <ele>48.251496</ele>
        <time>2022-12-25T12:21:36.372Z</time>
      </trkpt>
      <trkpt lat="44.6331" lon="-1.01895">
        <ele>48.466208</ele>
        <time>2022-12-25T12:21:39.371Z</time>
      </trkpt>
      <trkpt lat="44.63301" lon="-1.01905">
        <ele>48.662032</ele>
        <time>2022-12-25T12:21:42.377Z</time>
      </trkpt>
      <trkpt lat="44.63292" lon="-1.01916">
        <ele>48.856582</ele>
        <time>2022-12-25T12:21:45.376Z</time>
      </trkpt>
      <trkpt lat="44.63286" lon="-1.01926">
        <ele>49.015819</ele>
        <time>2022-12-25T12:21:48.373Z</time>
      </trkpt>
      <trkpt lat="44.6328" lon="-1.0194">
        <ele>49.209438</ele>
        <time>2022-12-25T12:21:52.376Z</time>
      </trkpt>
      <trkpt lat="44.63275" lon="-1.01954">
        <ele>49.391897</ele>
        <time>2022-12-25T12:21:57.374Z</time>
      </trkpt>
      <trkpt lat="44.6327" lon="-1.01968">
        <ele>49.584728</ele>
        <time>2022-12-25T12:22:01.371Z</time>
      </trkpt>
      <trkpt lat="44.63264" lon="-1.01978">
        <ele>49.739278</ele>
        <time>2022-12-25T12:22:04.356Z</time>
      </trkpt>
      <trkpt lat="44.63255" lon="-1.01986">
        <ele>49.911054</ele>
        <time>2022-12-25T12:22:08.365Z</time>
      </trkpt>
      <trkpt lat="44.63246" lon="-1.01994">
        <ele>50.088959</ele>
        <time>2022-12-25T12:22:12.373Z</time>
      </trkpt>
      <trkpt lat="44.63231" lon="-1.02">
        <ele>50.289982</ele>
        <time>2022-12-25T12:26:36.384Z</time>
      </trkpt>
      <trkpt lat="44.63221" lon="-1.02003">
        <ele>50.311673</ele>
        <time>2022-12-25T12:26:43.373Z</time>
      </trkpt>
      <trkpt lat="44.63217" lon="-1.02015">
        <ele>50.331837</ele>
        <time>2022-12-25T12:26:48.360Z</time>
      </trkpt>
      <trkpt lat="44.63207" lon="-1.02021">
        <ele>50.357583</ele>
        <time>2022-12-25T12:26:53.370Z</time>
      </trkpt>
      <trkpt lat="44.63196" lon="-1.02026">
        <ele>50.382229</ele>
        <time>2022-12-25T12:26:58.361Z</time>
      </trkpt>
      <trkpt lat="44.63187" lon="-1.02033">
        <ele>50.405218</ele>
        <time>2022-12-25T12:27:02.359Z</time>
      </trkpt>
      <trkpt lat="44.63177" lon="-1.02039">
        <ele>50.427941</ele>
        <time>2022-12-25T12:27:06.359Z</time>
      </trkpt>
      <trkpt lat="44.63169" lon="-1.02048">
        <ele>50.451019</ele>
        <time>2022-12-25T12:27:11.360Z</time>
      </trkpt>
      <trkpt lat="44.63159" lon="-1.02054">
        <ele>50.47636</ele>
        <time>2022-12-25T12:27:15.359Z</time>
      </trkpt>
      <trkpt lat="44.63148" lon="-1.02061">
        <ele>50.502028</ele>
        <time>2022-12-25T12:27:19.367Z</time>
      </trkpt>
      <trkpt lat="44.63138" lon="-1.02068">
        <ele>50.527031</ele>
        <time>2022-12-25T12:27:23.385Z</time>
      </trkpt>
      <trkpt lat="44.6313" lon="-1.02074">
        <ele>50.547702</ele>
        <time>2022-12-25T12:27:26.362Z</time>
      </trkpt>
      <trkpt lat="44.63121" lon="-1.0208">
        <ele>50.568121</ele>
        <time>2022-12-25T12:27:29.361Z</time>
      </trkpt>
      <trkpt lat="44.6311" lon="-1.02079">
        <ele>50.59222</ele>
        <time>2022-12-25T12:27:33.371Z</time>
      </trkpt>
      <trkpt lat="44.63099" lon="-1.02084">
        <ele>50.618007</ele>
        <time>2022-12-25T12:27:37.368Z</time>
      </trkpt>
      <trkpt lat="44.6309" lon="-1.02094">
        <ele>50.643858</ele>
        <time>2022-12-25T12:27:41.366Z</time>
      </trkpt>
      <trkpt lat="44.6308" lon="-1.021">
        <ele>50.668292</ele>
        <time>2022-12-25T12:27:45.372Z</time>
      </trkpt>
      <trkpt lat="44.63072" lon="-1.02106">
        <ele>50.674746</ele>
        <time>2022-12-25T12:27:48.356Z</time>
      </trkpt>
      <trkpt lat="44.63062" lon="-1.02113">
        <ele>50.66982</ele>
        <time>2022-12-25T12:27:52.358Z</time>
      </trkpt>
      <trkpt lat="44.63052" lon="-1.0212">
        <ele>50.665006</ele>
        <time>2022-12-25T12:27:56.354Z</time>
      </trkpt>
      <trkpt lat="44.63042" lon="-1.02129">
        <ele>50.659726</ele>
        <time>2022-12-25T12:28:00.356Z</time>
      </trkpt>
      <trkpt lat="44.63031" lon="-1.02136">
        <ele>50.654606</ele>
        <time>2022-12-25T12:28:04.362Z</time>
      </trkpt>
      <trkpt lat="44.6302" lon="-1.02143">
        <ele>50.649406</ele>
        <time>2022-12-25T12:28:08.365Z</time>
      </trkpt>
      <trkpt lat="44.63012" lon="-1.02149">
        <ele>50.645387</ele>
        <time>2022-12-25T12:28:14.369Z</time>
      </trkpt>
      <trkpt lat="44.63" lon="-1.02156">
        <ele>50.639678</ele>
        <time>2022-12-25T12:35:49.388Z</time>
      </trkpt>
      <trkpt lat="44.62993" lon="-1.02164">
        <ele>50.635719</ele>
        <time>2022-12-25T12:35:54.360Z</time>
      </trkpt>
      <trkpt lat="44.62984" lon="-1.02171">
        <ele>50.631213</ele>
        <time>2022-12-25T12:36:00.367Z</time>
      </trkpt>
      <trkpt lat="44.62974" lon="-1.02177">
        <ele>50.626302</ele>
        <time>2022-12-25T12:36:06.364Z</time>
      </trkpt>
      <trkpt lat="44.62963" lon="-1.02182">
        <ele>50.621213</ele>
        <time>2022-12-25T12:36:10.365Z</time>
      </trkpt>
      <trkpt lat="44.62954" lon="-1.02186">
        <ele>50.617254</ele>
        <time>2022-12-25T12:36:13.372Z</time>
      </trkpt>
      <trkpt lat="44.62945" lon="-1.02189">
        <ele>50.61321</ele>
        <time>2022-12-25T12:36:16.352Z</time>
      </trkpt>
      <trkpt lat="44.62936" lon="-1.02192">
        <ele>50.608988</ele>
        <time>2022-12-25T12:36:19.374Z</time>
      </trkpt>
      <trkpt lat="44.62926" lon="-1.02195">
        <ele>50.604611</ele>
        <time>2022-12-25T12:36:22.359Z</time>
      </trkpt>
      <trkpt lat="44.62917" lon="-1.02198">
        <ele>50.600217</ele>
        <time>2022-12-25T12:36:25.374Z</time>
      </trkpt>
      <trkpt lat="44.62906" lon="-1.02201">
        <ele>50.574716</ele>
        <time>2022-12-25T12:36:28.367Z</time>
      </trkpt>
      <trkpt lat="44.62897" lon="-1.02203">
        <ele>50.534963</ele>
        <time>2022-12-25T12:36:31.362Z</time>
      </trkpt>
      <trkpt lat="44.62888" lon="-1.02205">
        <ele>50.49437</ele>
        <time>2022-12-25T12:36:34.363Z</time>
      </trkpt>
      <trkpt lat="44.62878" lon="-1.02207">
        <ele>50.452345</ele>
        <time>2022-12-25T12:36:37.361Z</time>
      </trkpt>
      <trkpt lat="44.62867" lon="-1.02209">
        <ele>50.407895</ele>
        <time>2022-12-25T12:36:40.369Z</time>
      </trkpt>
      <trkpt lat="44.62858" lon="-1.02213">
        <ele>50.365001</ele>
        <time>2022-12-25T12:36:43.373Z</time>
      </trkpt>
      <trkpt lat="44.62848" lon="-1.02217">
        <ele>50.321787</ele>
        <time>2022-12-25T12:36:46.373Z</time>
      </trkpt>
      <trkpt lat="44.62838" lon="-1.02221">
        <ele>50.278407</ele>
        <time>2022-12-25T12:36:49.362Z</time>
      </trkpt>
      <trkpt lat="44.62829" lon="-1.02225">
        <ele>50.239453</ele>
        <time>2022-12-25T12:36:52.365Z</time>
      </trkpt>
      <trkpt lat="44.62816" lon="-1.02233">
        <ele>50.176299</ele>
        <time>2022-12-25T12:37:29.358Z</time>
      </trkpt>
      <trkpt lat="44.62806" lon="-1.02241">
        <ele>50.128203</ele>
        <time>2022-12-25T12:37:33.372Z</time>
      </trkpt>
      <trkpt lat="44.62795" lon="-1.02247">
        <ele>50.079467</ele>
        <time>2022-12-25T12:37:37.362Z</time>
      </trkpt>
      <trkpt lat="44.62784" lon="-1.02254">
        <ele>50.028335</ele>
        <time>2022-12-25T12:37:41.360Z</time>
      </trkpt>
      <trkpt lat="44.62774" lon="-1.0226">
        <ele>49.984041</ele>
        <time>2022-12-25T12:37:44.359Z</time>
      </trkpt>
      <trkpt lat="44.62764" lon="-1.02266">
        <ele>49.937099</ele>
        <time>2022-12-25T12:37:47.366Z</time>
      </trkpt>
      <trkpt lat="44.62754" lon="-1.02273">
        <ele>49.890503</ele>
        <time>2022-12-25T12:37:50.358Z</time>
      </trkpt>
      <trkpt lat="44.62745" lon="-1.0228">
        <ele>49.84589</ele>
        <time>2022-12-25T12:37:53.380Z</time>
      </trkpt>
      <trkpt lat="44.62736" lon="-1.02285">
        <ele>49.811</ele>
        <time>2022-12-25T12:37:56.371Z</time>
      </trkpt>
      <trkpt lat="44.62727" lon="-1.0229">
        <ele>49.779741</ele>
        <time>2022-12-25T12:38:00.359Z</time>
      </trkpt>
      <trkpt lat="44.62717" lon="-1.02293">
        <ele>49.746941</ele>
        <time>2022-12-25T12:38:07.361Z</time>
      </trkpt>
      <trkpt lat="44.6271" lon="-1.02301">
        <ele>49.714788</ele>
        <time>2022-12-25T12:38:12.370Z</time>
      </trkpt>
      <trkpt lat="44.62698" lon="-1.02308">
        <ele>49.673848</ele>
        <time>2022-12-25T12:38:16.358Z</time>
      </trkpt>
      <trkpt lat="44.62688" lon="-1.02313">
        <ele>49.639073</ele>
        <time>2022-12-25T12:38:19.364Z</time>
      </trkpt>
      <trkpt lat="44.62678" lon="-1.02319">
        <ele>49.602267</ele>
        <time>2022-12-25T12:38:22.372Z</time>
      </trkpt>
      <trkpt lat="44.62669" lon="-1.02325">
        <ele>49.569161</ele>
        <time>2022-12-25T12:38:25.378Z</time>
      </trkpt>
      <trkpt lat="44.62661" lon="-1.0233">
        <ele>49.538674</ele>
        <time>2022-12-25T12:38:28.364Z</time>
      </trkpt>
      <trkpt lat="44.62652" lon="-1.02336">
        <ele>49.506669</ele>
        <time>2022-12-25T12:38:31.377Z</time>
      </trkpt>
      <trkpt lat="44.62642" lon="-1.02341">
        <ele>49.472627</ele>
        <time>2022-12-25T12:38:34.365Z</time>
      </trkpt>
      <trkpt lat="44.62632" lon="-1.02342">
        <ele>49.437045</ele>
        <time>2022-12-25T12:38:37.362Z</time>
      </trkpt>
      <trkpt lat="44.62621" lon="-1.02343">
        <ele>49.401531</ele>
        <time>2022-12-25T12:38:40.373Z</time>
      </trkpt>
      <trkpt lat="44.6261" lon="-1.02343">
        <ele>49.366412</ele>
        <time>2022-12-25T12:38:43.397Z</time>
      </trkpt>
      <trkpt lat="44.626" lon="-1.02344">
        <ele>49.330958</ele>
        <time>2022-12-25T12:38:46.360Z</time>
      </trkpt>
      <trkpt lat="44.62588" lon="-1.02345">
        <ele>49.293375</ele>
        <time>2022-12-25T12:38:49.356Z</time>
      </trkpt>
      <trkpt lat="44.62578" lon="-1.02349">
        <ele>49.258266</ele>
        <time>2022-12-25T12:38:52.362Z</time>
      </trkpt>
      <trkpt lat="44.62569" lon="-1.02352">
        <ele>49.259661</ele>
        <time>2022-12-25T12:38:55.367Z</time>
      </trkpt>
      <trkpt lat="44.62559" lon="-1.02356">
        <ele>49.310114</ele>
        <time>2022-12-25T12:38:58.360Z</time>
      </trkpt>
      <trkpt lat="44.62548" lon="-1.02361">
        <ele>49.363367</ele>
        <time>2022-12-25T12:39:01.360Z</time>
      </trkpt>
      <trkpt lat="44.62537" lon="-1.02364">
        <ele>49.416455</ele>
        <time>2022-12-25T12:39:04.360Z</time>
      </trkpt>
      <trkpt lat="44.62526" lon="-1.02367">
        <ele>49.464759</ele>
        <time>2022-12-25T12:39:07.366Z</time>
      </trkpt>
      <trkpt lat="44.62515" lon="-1.02371">
        <ele>49.520728</ele>
        <time>2022-12-25T12:39:11.360Z</time>
      </trkpt>
      <trkpt lat="44.62505" lon="-1.02374">
        <ele>49.566894</ele>
        <time>2022-12-25T12:39:14.370Z</time>
      </trkpt>
      <trkpt lat="44.62495" lon="-1.02379">
        <ele>49.617267</ele>
        <time>2022-12-25T12:39:17.367Z</time>
      </trkpt>
      <trkpt lat="44.62484" lon="-1.02382">
        <ele>49.67194</ele>
        <time>2022-12-25T12:39:20.357Z</time>
      </trkpt>
      <trkpt lat="44.62472" lon="-1.02386">
        <ele>49.727295</ele>
        <time>2022-12-25T12:39:23.363Z</time>
      </trkpt>
      <trkpt lat="44.62461" lon="-1.0239">
        <ele>49.782729</ele>
        <time>2022-12-25T12:39:26.373Z</time>
      </trkpt>
      <trkpt lat="44.6245" lon="-1.02393">
        <ele>49.83516</ele>
        <time>2022-12-25T12:39:29.378Z</time>
      </trkpt>
      <trkpt lat="44.62439" lon="-1.02397">
        <ele>49.884135</ele>
        <time>2022-12-25T12:39:32.386Z</time>
      </trkpt>
      <trkpt lat="44.62429" lon="-1.024">
        <ele>49.934937</ele>
        <time>2022-12-25T12:39:35.368Z</time>
      </trkpt>
      <trkpt lat="44.62419" lon="-1.02404">
        <ele>49.98035</ele>
        <time>2022-12-25T12:39:38.362Z</time>
      </trkpt>
      <trkpt lat="44.62411" lon="-1.02408">
        <ele>50.023394</ele>
        <time>2022-12-25T12:39:43.374Z</time>
      </trkpt>
      <trkpt lat="44.624" lon="-1.02411">
        <ele>50.072821</ele>
        <time>2022-12-25T12:39:48.363Z</time>
      </trkpt>
      <trkpt lat="44.6239" lon="-1.02414">
        <ele>50.114814</ele>
        <time>2022-12-25T12:39:52.366Z</time>
      </trkpt>
      <trkpt lat="44.62381" lon="-1.02417">
        <ele>50.15076</ele>
        <time>2022-12-25T12:39:55.363Z</time>
      </trkpt>
      <trkpt lat="44.62371" lon="-1.02421">
        <ele>50.187767</ele>
        <time>2022-12-25T12:39:58.360Z</time>
      </trkpt>
      <trkpt lat="44.62362" lon="-1.02424">
        <ele>50.225139</ele>
        <time>2022-12-25T12:40:01.380Z</time>
      </trkpt>
      <trkpt lat="44.62353" lon="-1.02427">
        <ele>50.259228</ele>
        <time>2022-12-25T12:40:04.359Z</time>
      </trkpt>
      <trkpt lat="44.62344" lon="-1.0243">
        <ele>50.295591</ele>
        <time>2022-12-25T12:40:08.361Z</time>
      </trkpt>
      <trkpt lat="44.62336" lon="-1.02439">
        <ele>50.334662</ele>
        <time>2022-12-25T12:40:14.363Z</time>
      </trkpt>
      <trkpt lat="44.62336" lon="-1.02453">
        <ele>50.370295</ele>
        <time>2022-12-25T12:40:18.360Z</time>
      </trkpt>
      <trkpt lat="44.62333" lon="-1.02466">
        <ele>50.406177</ele>
        <time>2022-12-25T12:40:22.354Z</time>
      </trkpt>
      <trkpt lat="44.62331" lon="-1.0248">
        <ele>50.4474</ele>
        <time>2022-12-25T12:40:27.378Z</time>
      </trkpt>
      <trkpt lat="44.6233" lon="-1.02493">
        <ele>50.482144</ele>
        <time>2022-12-25T12:40:31.359Z</time>
      </trkpt>
      <trkpt lat="44.62328" lon="-1.02507">
        <ele>50.521061</ele>
        <time>2022-12-25T12:40:37.372Z</time>
      </trkpt>
      <trkpt lat="44.62335" lon="-1.0252">
        <ele>50.564658</ele>
        <time>2022-12-25T12:40:42.361Z</time>
      </trkpt>
      <trkpt lat="44.62339" lon="-1.02531">
        <ele>50.599294</ele>
        <time>2022-12-25T12:40:45.379Z</time>
      </trkpt>
      <trkpt lat="44.62344" lon="-1.02546">
        <ele>50.641974</ele>
        <time>2022-12-25T12:40:49.364Z</time>
      </trkpt>
      <trkpt lat="44.62349" lon="-1.0256">
        <ele>50.685302</ele>
        <time>2022-12-25T12:40:54.373Z</time>
      </trkpt>
      <trkpt lat="44.62353" lon="-1.02572">
        <ele>50.719756</ele>
        <time>2022-12-25T12:40:57.370Z</time>
      </trkpt>
      <trkpt lat="44.62357" lon="-1.02585">
        <ele>50.758768</ele>
        <time>2022-12-25T12:41:00.372Z</time>
      </trkpt>
      <trkpt lat="44.62361" lon="-1.02598">
        <ele>50.669697</ele>
        <time>2022-12-25T12:41:03.383Z</time>
      </trkpt>
      <trkpt lat="44.62364" lon="-1.02612">
        <ele>50.5537</ele>
        <time>2022-12-25T12:41:07.374Z</time>
      </trkpt>
      <trkpt lat="44.62369" lon="-1.02624">
        <ele>50.442088</ele>
        <time>2022-12-25T12:41:11.361Z</time>
      </trkpt>
      <trkpt lat="44.62373" lon="-1.02636">
        <ele>50.341098</ele>
        <time>2022-12-25T12:41:14.363Z</time>
      </trkpt>
      <trkpt lat="44.62376" lon="-1.02648">
        <ele>50.236214</ele>
        <time>2022-12-25T12:41:17.367Z</time>
      </trkpt>
      <trkpt lat="44.6238" lon="-1.02662">
        <ele>50.116385</ele>
        <time>2022-12-25T12:41:20.369Z</time>
      </trkpt>
      <trkpt lat="44.62385" lon="-1.02678">
        <ele>49.985101</ele>
        <time>2022-12-25T12:41:23.384Z</time>
      </trkpt>
      <trkpt lat="44.62389" lon="-1.02693">
        <ele>49.853489</ele>
        <time>2022-12-25T12:41:26.361Z</time>
      </trkpt>
      <trkpt lat="44.62393" lon="-1.02707">
        <ele>49.734783</ele>
        <time>2022-12-25T12:41:29.369Z</time>
      </trkpt>
      <trkpt lat="44.62397" lon="-1.02721">
        <ele>49.618044</ele>
        <time>2022-12-25T12:41:32.379Z</time>
      </trkpt>
      <trkpt lat="44.62398" lon="-1.02735">
        <ele>49.506326</ele>
        <time>2022-12-25T12:41:35.359Z</time>
      </trkpt>
      <trkpt lat="44.62398" lon="-1.02751">
        <ele>49.385937</ele>
        <time>2022-12-25T12:41:39.360Z</time>
      </trkpt>
      <trkpt lat="44.62399" lon="-1.02765">
        <ele>49.274563</ele>
        <time>2022-12-25T12:41:44.360Z</time>
      </trkpt>
      <trkpt lat="44.62408" lon="-1.02774">
        <ele>49.149659</ele>
        <time>2022-12-25T12:41:50.363Z</time>
      </trkpt>
      <trkpt lat="44.62416" lon="-1.02782">
        <ele>49.043803</ele>
        <time>2022-12-25T12:41:53.366Z</time>
      </trkpt>
      <trkpt lat="44.62421" lon="-1.02795">
        <ele>48.929461</ele>
        <time>2022-12-25T12:41:56.375Z</time>
      </trkpt>
      <trkpt lat="44.62425" lon="-1.0281">
        <ele>48.806421</ele>
        <time>2022-12-25T12:41:59.379Z</time>
      </trkpt>
      <trkpt lat="44.6243" lon="-1.02825">
        <ele>48.801302</ele>
        <time>2022-12-25T12:42:02.365Z</time>
      </trkpt>
      <trkpt lat="44.62435" lon="-1.02841">
        <ele>48.83533</ele>
        <time>2022-12-25T12:42:05.362Z</time>
      </trkpt>
      <trkpt lat="44.62441" lon="-1.02856">
        <ele>48.868433</ele>
        <time>2022-12-25T12:42:08.360Z</time>
      </trkpt>
      <trkpt lat="44.62447" lon="-1.02872">
        <ele>48.902651</ele>
        <time>2022-12-25T12:42:11.379Z</time>
      </trkpt>
      <trkpt lat="44.62452" lon="-1.02888">
        <ele>48.937857</ele>
        <time>2022-12-25T12:42:14.372Z</time>
      </trkpt>
      <trkpt lat="44.62458" lon="-1.02905">
        <ele>48.974283</ele>
        <time>2022-12-25T12:42:17.370Z</time>
      </trkpt>
      <trkpt lat="44.62463" lon="-1.02922">
        <ele>49.009921</ele>
        <time>2022-12-25T12:42:20.360Z</time>
      </trkpt>
      <trkpt lat="44.62467" lon="-1.02933">
        <ele>49.034561</ele>
        <time>2022-12-25T12:42:22.365Z</time>
      </trkpt>
      <trkpt lat="44.62472" lon="-1.02951">
        <ele>49.070949</ele>
        <time>2022-12-25T12:42:25.360Z</time>
      </trkpt>
      <trkpt lat="44.62478" lon="-1.02967">
        <ele>49.106906</ele>
        <time>2022-12-25T12:42:28.362Z</time>
      </trkpt>
      <trkpt lat="44.62482" lon="-1.02979">
        <ele>49.133042</ele>
        <time>2022-12-25T12:42:30.372Z</time>
      </trkpt>
      <trkpt lat="44.62486" lon="-1.02992">
        <ele>49.159007</ele>
        <time>2022-12-25T12:42:32.369Z</time>
      </trkpt>
      <trkpt lat="44.62489" lon="-1.03004">
        <ele>49.184005</ele>
        <time>2022-12-25T12:42:34.368Z</time>
      </trkpt>
      <trkpt lat="44.62494" lon="-1.03016">
        <ele>49.21061</ele>
        <time>2022-12-25T12:42:36.372Z</time>
      </trkpt>
      <trkpt lat="44.62498" lon="-1.03033">
        <ele>49.246742</ele>
        <time>2022-12-25T12:42:39.368Z</time>
      </trkpt>
      <trkpt lat="44.62502" lon="-1.03045">
        <ele>49.268288</ele>
        <time>2022-12-25T12:42:41.357Z</time>
      </trkpt>
      <trkpt lat="44.62505" lon="-1.03057">
        <ele>49.277697</ele>
        <time>2022-12-25T12:42:43.368Z</time>
      </trkpt>
      <trkpt lat="44.6251" lon="-1.03069">
        <ele>49.287352</ele>
        <time>2022-12-25T12:42:45.365Z</time>
      </trkpt>
      <trkpt lat="44.62513" lon="-1.03081">
        <ele>49.296857</ele>
        <time>2022-12-25T12:42:47.358Z</time>
      </trkpt>
      <trkpt lat="44.62517" lon="-1.03093">
        <ele>49.306784</ele>
        <time>2022-12-25T12:42:49.363Z</time>
      </trkpt>
      <trkpt lat="44.62521" lon="-1.03106">
        <ele>49.316458</ele>
        <time>2022-12-25T12:42:51.371Z</time>
      </trkpt>
      <trkpt lat="44.62525" lon="-1.03117">
        <ele>49.326016</ele>
        <time>2022-12-25T12:42:53.364Z</time>
      </trkpt>
      <trkpt lat="44.6253" lon="-1.03134">
        <ele>49.339721</ele>
        <time>2022-12-25T12:42:56.375Z</time>
      </trkpt>
      <trkpt lat="44.62536" lon="-1.03149">
        <ele>49.352104</ele>
        <time>2022-12-25T12:42:59.384Z</time>
      </trkpt>
      <trkpt lat="44.62541" lon="-1.03165">
        <ele>49.364343</ele>
        <time>2022-12-25T12:43:02.361Z</time>
      </trkpt>
      <trkpt lat="44.62545" lon="-1.03179">
        <ele>49.375638</ele>
        <time>2022-12-25T12:43:05.375Z</time>
      </trkpt>
      <trkpt lat="44.62549" lon="-1.03194">
        <ele>49.387581</ele>
        <time>2022-12-25T12:43:08.366Z</time>
      </trkpt>
      <trkpt lat="44.62554" lon="-1.0321">
        <ele>49.400043</ele>
        <time>2022-12-25T12:43:11.371Z</time>
      </trkpt>
      <trkpt lat="44.6256" lon="-1.03227">
        <ele>49.413537</ele>
        <time>2022-12-25T12:43:14.367Z</time>
      </trkpt>
      <trkpt lat="44.62564" lon="-1.03243">
        <ele>49.426406</ele>
        <time>2022-12-25T12:43:17.393Z</time>
      </trkpt>
      <trkpt lat="44.62569" lon="-1.03258">
        <ele>49.438558</ele>
        <time>2022-12-25T12:43:20.368Z</time>
      </trkpt>
      <trkpt lat="44.62573" lon="-1.03274">
        <ele>49.449594</ele>
        <time>2022-12-25T12:43:23.376Z</time>
      </trkpt>
      <trkpt lat="44.62575" lon="-1.03289">
        <ele>49.369544</ele>
        <time>2022-12-25T12:43:26.379Z</time>
      </trkpt>
      <trkpt lat="44.62575" lon="-1.03303">
        <ele>49.291951</ele>
        <time>2022-12-25T12:43:29.369Z</time>
      </trkpt>
      <trkpt lat="44.62574" lon="-1.03318">
        <ele>49.216987</ele>
        <time>2022-12-25T12:43:32.376Z</time>
      </trkpt>
      <trkpt lat="44.62572" lon="-1.03331">
        <ele>49.141854</ele>
        <time>2022-12-25T12:43:35.374Z</time>
      </trkpt>
      <trkpt lat="44.62567" lon="-1.03342">
        <ele>49.072013</ele>
        <time>2022-12-25T12:43:38.369Z</time>
      </trkpt>
      <trkpt lat="44.62558" lon="-1.0335">
        <ele>48.993151</ele>
        <time>2022-12-25T12:43:42.356Z</time>
      </trkpt>
      <trkpt lat="44.62551" lon="-1.03359">
        <ele>48.923971</ele>
        <time>2022-12-25T12:43:46.374Z</time>
      </trkpt>
      <trkpt lat="44.62552" lon="-1.03374">
        <ele>48.843783</ele>
        <time>2022-12-25T12:43:51.379Z</time>
      </trkpt>
      <trkpt lat="44.6256" lon="-1.03382">
        <ele>48.767419</ele>
        <time>2022-12-25T12:43:56.373Z</time>
      </trkpt>
      <trkpt lat="44.62568" lon="-1.03372">
        <ele>48.689109</ele>
        <time>2022-12-25T12:43:59.378Z</time>
      </trkpt>
      <trkpt lat="44.62576" lon="-1.0336">
        <ele>48.599696</ele>
        <time>2022-12-25T12:44:02.372Z</time>
      </trkpt>
      <trkpt lat="44.62586" lon="-1.03351">
        <ele>48.514791</ele>
        <time>2022-12-25T12:44:05.366Z</time>
      </trkpt>
      <trkpt lat="44.62596" lon="-1.03349">
        <ele>48.436158</ele>
        <time>2022-12-25T12:44:08.371Z</time>
      </trkpt>
      <trkpt lat="44.62605" lon="-1.03358">
        <ele>48.357675</ele>
        <time>2022-12-25T12:44:11.360Z</time>
      </trkpt>
      <trkpt lat="44.6261" lon="-1.0337">
        <ele>48.285558</ele>
        <time>2022-12-25T12:44:14.360Z</time>
      </trkpt>
      <trkpt lat="44.62613" lon="-1.03383">
        <ele>48.207977</ele>
        <time>2022-12-25T12:44:18.359Z</time>
      </trkpt>
      <trkpt lat="44.62608" lon="-1.03396">
        <ele>48.129309</ele>
        <time>2022-12-25T12:44:22.362Z</time>
      </trkpt>
      <trkpt lat="44.62602" lon="-1.03406">
        <ele>48.165699</ele>
        <time>2022-12-25T12:44:25.364Z</time>
      </trkpt>
      <trkpt lat="44.62597" lon="-1.03419">
        <ele>48.263332</ele>
        <time>2022-12-25T12:44:28.365Z</time>
      </trkpt>
      <trkpt lat="44.62594" lon="-1.03432">
        <ele>48.356742</ele>
        <time>2022-12-25T12:44:31.377Z</time>
      </trkpt>
      <trkpt lat="44.6259" lon="-1.03446">
        <ele>48.459486</ele>
        <time>2022-12-25T12:44:35.367Z</time>
      </trkpt>
      <trkpt lat="44.62585" lon="-1.03457">
        <ele>48.544117</ele>
        <time>2022-12-25T12:44:39.377Z</time>
      </trkpt>
      <trkpt lat="44.62579" lon="-1.03469">
        <ele>48.637283</ele>
        <time>2022-12-25T12:44:43.376Z</time>
      </trkpt>
      <trkpt lat="44.62573" lon="-1.03479">
        <ele>48.725102</ele>
        <time>2022-12-25T12:44:46.364Z</time>
      </trkpt>
      <trkpt lat="44.62567" lon="-1.0349">
        <ele>48.818003</ele>
        <time>2022-12-25T12:44:49.373Z</time>
      </trkpt>
      <trkpt lat="44.62561" lon="-1.03502">
        <ele>48.918206</ele>
        <time>2022-12-25T12:44:52.368Z</time>
      </trkpt>
      <trkpt lat="44.62553" lon="-1.03515">
        <ele>49.0273</ele>
        <time>2022-12-25T12:44:55.371Z</time>
      </trkpt>
      <trkpt lat="44.62546" lon="-1.03527">
        <ele>49.13302</ele>
        <time>2022-12-25T12:44:58.365Z</time>
      </trkpt>
      <trkpt lat="44.62539" lon="-1.03542">
        <ele>49.252155</ele>
        <time>2022-12-25T12:45:01.378Z</time>
      </trkpt>
      <trkpt lat="44.62532" lon="-1.03557">
        <ele>49.37407</ele>
        <time>2022-12-25T12:45:04.362Z</time>
      </trkpt>
      <trkpt lat="44.62524" lon="-1.03571">
        <ele>49.49435</ele>
        <time>2022-12-25T12:45:07.356Z</time>
      </trkpt>
      <trkpt lat="44.62516" lon="-1.03585">
        <ele>49.611032</ele>
        <time>2022-12-25T12:45:10.364Z</time>
      </trkpt>
      <trkpt lat="44.62509" lon="-1.03599">
        <ele>49.722604</ele>
        <time>2022-12-25T12:45:13.371Z</time>
      </trkpt>
      <trkpt lat="44.62503" lon="-1.03611">
        <ele>49.762158</ele>
        <time>2022-12-25T12:45:16.368Z</time>
      </trkpt>
      <trkpt lat="44.62497" lon="-1.03622">
        <ele>49.697276</ele>
        <time>2022-12-25T12:45:19.371Z</time>
      </trkpt>
      <trkpt lat="44.62492" lon="-1.03632">
        <ele>49.635123</ele>
        <time>2022-12-25T12:45:22.363Z</time>
      </trkpt>
      <trkpt lat="44.62486" lon="-1.03643">
        <ele>49.570231</ele>
        <time>2022-12-25T12:45:25.362Z</time>
      </trkpt>
      <trkpt lat="44.62481" lon="-1.03656">
        <ele>49.499795</ele>
        <time>2022-12-25T12:45:29.367Z</time>
      </trkpt>
      <trkpt lat="44.62485" lon="-1.03668">
        <ele>49.435079</ele>
        <time>2022-12-25T12:45:33.379Z</time>
      </trkpt>
      <trkpt lat="44.62491" lon="-1.03678">
        <ele>49.367978</ele>
        <time>2022-12-25T12:45:36.374Z</time>
      </trkpt>
      <trkpt lat="44.62494" lon="-1.03692">
        <ele>49.29695</ele>
        <time>2022-12-25T12:45:39.367Z</time>
      </trkpt>
      <trkpt lat="44.62496" lon="-1.03709">
        <ele>49.214265</ele>
        <time>2022-12-25T12:45:42.367Z</time>
      </trkpt>
      <trkpt lat="44.62497" lon="-1.03726">
        <ele>49.133619</ele>
        <time>2022-12-25T12:45:45.359Z</time>
      </trkpt>
      <trkpt lat="44.62497" lon="-1.03741">
        <ele>49.059289</ele>
        <time>2022-12-25T12:45:48.365Z</time>
      </trkpt>
      <trkpt lat="44.62498" lon="-1.03756">
        <ele>48.988135</ele>
        <time>2022-12-25T12:45:51.362Z</time>
      </trkpt>
      <trkpt lat="44.625" lon="-1.03772">
        <ele>48.907353</ele>
        <time>2022-12-25T12:45:54.361Z</time>
      </trkpt>
      <trkpt lat="44.62502" lon="-1.03786">
        <ele>48.838436</ele>
        <time>2022-12-25T12:45:57.358Z</time>
      </trkpt>
      <trkpt lat="44.62503" lon="-1.03799">
        <ele>48.774398</ele>
        <time>2022-12-25T12:46:00.361Z</time>
      </trkpt>
      <trkpt lat="44.62506" lon="-1.03816">
        <ele>48.690476</ele>
        <time>2022-12-25T12:46:03.373Z</time>
      </trkpt>
      <trkpt lat="44.62506" lon="-1.0383">
        <ele>48.624834</ele>
        <time>2022-12-25T12:46:05.360Z</time>
      </trkpt>
      <trkpt lat="44.62506" lon="-1.03843">
        <ele>48.576596</ele>
        <time>2022-12-25T12:46:07.358Z</time>
      </trkpt>
      <trkpt lat="44.62508" lon="-1.03857">
        <ele>48.710023</ele>
        <time>2022-12-25T12:46:10.370Z</time>
      </trkpt>
      <trkpt lat="44.62509" lon="-1.0387">
        <ele>48.827656</ele>
        <time>2022-12-25T12:46:13.362Z</time>
      </trkpt>
      <trkpt lat="44.6251" lon="-1.03882">
        <ele>48.944204</ele>
        <time>2022-12-25T12:46:16.367Z</time>
      </trkpt>
      <trkpt lat="44.62511" lon="-1.03895">
        <ele>49.060302</ele>
        <time>2022-12-25T12:46:19.366Z</time>
      </trkpt>
      <trkpt lat="44.62506" lon="-1.03906">
        <ele>49.180573</ele>
        <time>2022-12-25T12:46:24.356Z</time>
      </trkpt>
      <trkpt lat="44.62501" lon="-1.03917">
        <ele>49.297996</ele>
        <time>2022-12-25T12:46:30.374Z</time>
      </trkpt>
      <trkpt lat="44.62503" lon="-1.03933">
        <ele>49.448737</ele>
        <time>2022-12-25T12:46:34.377Z</time>
      </trkpt>
      <trkpt lat="44.62506" lon="-1.03948">
        <ele>49.593271</ele>
        <time>2022-12-25T12:46:37.361Z</time>
      </trkpt>
      <trkpt lat="44.62508" lon="-1.03965">
        <ele>49.747846</ele>
        <time>2022-12-25T12:46:40.362Z</time>
      </trkpt>
      <trkpt lat="44.6251" lon="-1.0398">
        <ele>49.889803</ele>
        <time>2022-12-25T12:46:43.365Z</time>
      </trkpt>
      <trkpt lat="44.62512" lon="-1.03996">
        <ele>50.034904</ele>
        <time>2022-12-25T12:46:46.364Z</time>
      </trkpt>
      <trkpt lat="44.62512" lon="-1.04008">
        <ele>50.152283</ele>
        <time>2022-12-25T12:46:49.361Z</time>
      </trkpt>
      <trkpt lat="44.62504" lon="-1.04017">
        <ele>50.282039</ele>
        <time>2022-12-25T12:46:53.361Z</time>
      </trkpt>
      <trkpt lat="44.62495" lon="-1.04021">
        <ele>50.400364</ele>
        <time>2022-12-25T12:46:56.363Z</time>
      </trkpt>
      <trkpt lat="44.62484" lon="-1.04025">
        <ele>50.543979</ele>
        <time>2022-12-25T12:46:59.361Z</time>
      </trkpt>
      <trkpt lat="44.62474" lon="-1.04029">
        <ele>50.686962</ele>
        <time>2022-12-25T12:47:02.362Z</time>
      </trkpt>
      <trkpt lat="44.62462" lon="-1.04032">
        <ele>50.836366</ele>
        <time>2022-12-25T12:47:05.361Z</time>
      </trkpt>
      <trkpt lat="44.62451" lon="-1.04034">
        <ele>50.888619</ele>
        <time>2022-12-25T12:47:08.370Z</time>
      </trkpt>
      <trkpt lat="44.62439" lon="-1.04038">
        <ele>50.894355</ele>
        <time>2022-12-25T12:47:11.359Z</time>
      </trkpt>
      <trkpt lat="44.62427" lon="-1.04043">
        <ele>50.900192</ele>
        <time>2022-12-25T12:47:14.372Z</time>
      </trkpt>
      <trkpt lat="44.62415" lon="-1.04049">
        <ele>50.905963</ele>
        <time>2022-12-25T12:47:17.358Z</time>
      </trkpt>
      <trkpt lat="44.62403" lon="-1.04053">
        <ele>50.912037</ele>
        <time>2022-12-25T12:47:20.362Z</time>
      </trkpt>
      <trkpt lat="44.62391" lon="-1.04057">
        <ele>50.917858</ele>
        <time>2022-12-25T12:47:23.363Z</time>
      </trkpt>
      <trkpt lat="44.62378" lon="-1.0406">
        <ele>50.92373</ele>
        <time>2022-12-25T12:47:26.362Z</time>
      </trkpt>
      <trkpt lat="44.62367" lon="-1.04064">
        <ele>50.929322</ele>
        <time>2022-12-25T12:47:29.361Z</time>
      </trkpt>
      <trkpt lat="44.62355" lon="-1.04067">
        <ele>50.934793</ele>
        <time>2022-12-25T12:47:32.364Z</time>
      </trkpt>
      <trkpt lat="44.62345" lon="-1.04069">
        <ele>50.939572</ele>
        <time>2022-12-25T12:47:35.355Z</time>
      </trkpt>
      <trkpt lat="44.62336" lon="-1.04072">
        <ele>50.944083</ele>
        <time>2022-12-25T12:47:38.364Z</time>
      </trkpt>
      <trkpt lat="44.62326" lon="-1.04075">
        <ele>50.948852</ele>
        <time>2022-12-25T12:47:41.378Z</time>
      </trkpt>
      <trkpt lat="44.62317" lon="-1.04082">
        <ele>50.953471</ele>
        <time>2022-12-25T12:47:44.358Z</time>
      </trkpt>
      <trkpt lat="44.62314" lon="-1.04097">
        <ele>50.958697</ele>
        <time>2022-12-25T12:47:47.356Z</time>
      </trkpt>
      <trkpt lat="44.62312" lon="-1.04114">
        <ele>50.964495</ele>
        <time>2022-12-25T12:47:50.364Z</time>
      </trkpt>
      <trkpt lat="44.62311" lon="-1.04132">
        <ele>50.954487</ele>
        <time>2022-12-25T12:47:53.360Z</time>
      </trkpt>
      <trkpt lat="44.62312" lon="-1.04149">
        <ele>50.88227</ele>
        <time>2022-12-25T12:47:56.362Z</time>
      </trkpt>
      <trkpt lat="44.62314" lon="-1.04166">
        <ele>50.811504</ele>
        <time>2022-12-25T12:47:59.361Z</time>
      </trkpt>
      <trkpt lat="44.62316" lon="-1.04183">
        <ele>50.740587</ele>
        <time>2022-12-25T12:48:02.382Z</time>
      </trkpt>
      <trkpt lat="44.62319" lon="-1.042">
        <ele>50.670636</ele>
        <time>2022-12-25T12:48:05.373Z</time>
      </trkpt>
      <trkpt lat="44.62321" lon="-1.04216">
        <ele>50.604128</ele>
        <time>2022-12-25T12:48:08.366Z</time>
      </trkpt>
      <trkpt lat="44.62323" lon="-1.0423">
        <ele>50.544734</ele>
        <time>2022-12-25T12:48:11.360Z</time>
      </trkpt>
      <trkpt lat="44.62325" lon="-1.04243">
        <ele>50.489105</ele>
        <time>2022-12-25T12:48:14.366Z</time>
      </trkpt>
      <trkpt lat="44.62328" lon="-1.04258">
        <ele>50.423319</ele>
        <time>2022-12-25T12:48:18.363Z</time>
      </trkpt>
      <trkpt lat="44.62329" lon="-1.04271">
        <ele>50.370446</ele>
        <time>2022-12-25T12:48:21.367Z</time>
      </trkpt>
      <trkpt lat="44.62332" lon="-1.04284">
        <ele>50.315245</ele>
        <time>2022-12-25T12:48:24.381Z</time>
      </trkpt>
      <trkpt lat="44.62336" lon="-1.04298">
        <ele>50.251003</ele>
        <time>2022-12-25T12:48:28.367Z</time>
      </trkpt>
      <trkpt lat="44.62342" lon="-1.04307">
        <ele>50.197745</ele>
        <time>2022-12-25T12:48:32.376Z</time>
      </trkpt>
      <trkpt lat="44.62347" lon="-1.0432">
        <ele>50.139229</ele>
        <time>2022-12-25T12:48:35.373Z</time>
      </trkpt>
      <trkpt lat="44.62347" lon="-1.04333">
        <ele>50.085523</ele>
        <time>2022-12-25T12:48:38.368Z</time>
      </trkpt>
      <trkpt lat="44.62342" lon="-1.04343">
        <ele>50.032962</ele>
        <time>2022-12-25T12:48:42.384Z</time>
      </trkpt>
      <trkpt lat="44.6234" lon="-1.0436">
        <ele>49.962288</ele>
        <time>2022-12-25T12:48:46.362Z</time>
      </trkpt>
      <trkpt lat="44.62341" lon="-1.04376">
        <ele>49.943653</ele>
        <time>2022-12-25T12:48:49.371Z</time>
      </trkpt>
      <trkpt lat="44.62482" lon="-1.10687">
        <ele>62.711272</ele>
        <time>2022-12-25T13:14:26.938Z</time>
      </trkpt>
      <trkpt lat="44.62471" lon="-1.1068">
        <ele>61.978097</ele>
        <time>2022-12-25T13:15:03.378Z</time>
      </trkpt>
      <trkpt lat="44.62462" lon="-1.10677">
        <ele>61.410225</ele>
        <time>2022-12-25T13:15:07.364Z</time>
      </trkpt>
      <trkpt lat="44.62451" lon="-1.10674">
        <ele>60.695573</ele>
        <time>2022-12-25T13:15:11.370Z</time>
      </trkpt>
      <trkpt lat="44.62441" lon="-1.10673">
        <ele>60.100875</ele>
        <time>2022-12-25T13:15:14.357Z</time>
      </trkpt>
      <trkpt lat="44.6243" lon="-1.10673">
        <ele>59.390047</ele>
        <time>2022-12-25T13:15:17.367Z</time>
      </trkpt>
      <trkpt lat="44.62418" lon="-1.10677">
        <ele>58.623192</ele>
        <time>2022-12-25T13:15:20.364Z</time>
      </trkpt>
      <trkpt lat="44.62408" lon="-1.10682">
        <ele>57.937131</ele>
        <time>2022-12-25T13:15:23.365Z</time>
      </trkpt>
      <trkpt lat="44.62399" lon="-1.1069">
        <ele>57.290076</ele>
        <time>2022-12-25T13:15:26.372Z</time>
      </trkpt>
      <trkpt lat="44.62389" lon="-1.10701">
        <ele>56.494815</ele>
        <time>2022-12-25T13:15:29.364Z</time>
      </trkpt>
      <trkpt lat="44.6238" lon="-1.10714">
        <ele>55.710469</ele>
        <time>2022-12-25T13:15:32.377Z</time>
      </trkpt>
      <trkpt lat="44.62373" lon="-1.10727">
        <ele>54.965161</ele>
        <time>2022-12-25T13:15:35.378Z</time>
      </trkpt>
      <trkpt lat="44.62365" lon="-1.10742">
        <ele>54.173194</ele>
        <time>2022-12-25T13:15:38.366Z</time>
      </trkpt>
      <trkpt lat="44.62359" lon="-1.10758">
        <ele>53.371645</ele>
        <time>2022-12-25T13:15:41.367Z</time>
      </trkpt>
      <trkpt lat="44.62354" lon="-1.10771">
        <ele>52.672811</ele>
        <time>2022-12-25T13:15:44.366Z</time>
      </trkpt>
      <trkpt lat="44.62349" lon="-1.10785">
        <ele>51.989478</ele>
        <time>2022-12-25T13:15:47.368Z</time>
      </trkpt>
      <trkpt lat="44.62346" lon="-1.10798">
        <ele>51.68299</ele>
        <time>2022-12-25T13:15:50.376Z</time>
      </trkpt>
      <trkpt lat="44.62353" lon="-1.10811">
        <ele>51.851099</ele>
        <time>2022-12-25T13:15:54.366Z</time>
      </trkpt>
      <trkpt lat="44.62361" lon="-1.10818">
        <ele>52.001211</ele>
        <time>2022-12-25T13:15:57.374Z</time>
      </trkpt>
      <trkpt lat="44.6237" lon="-1.10824">
        <ele>52.143522</ele>
        <time>2022-12-25T13:16:00.372Z</time>
      </trkpt>
      <trkpt lat="44.6238" lon="-1.10832">
        <ele>52.314557</ele>
        <time>2022-12-25T13:16:03.381Z</time>
      </trkpt>
      <trkpt lat="44.6239" lon="-1.1084">
        <ele>52.486414</ele>
        <time>2022-12-25T13:16:06.367Z</time>
      </trkpt>
      <trkpt lat="44.624" lon="-1.10848">
        <ele>52.657268</ele>
        <time>2022-12-25T13:16:09.366Z</time>
      </trkpt>
      <trkpt lat="44.6241" lon="-1.10857">
        <ele>52.836334</ele>
        <time>2022-12-25T13:16:12.369Z</time>
      </trkpt>
      <trkpt lat="44.6242" lon="-1.10866">
        <ele>53.015965</ele>
        <time>2022-12-25T13:16:15.368Z</time>
      </trkpt>
      <trkpt lat="44.6243" lon="-1.10872">
        <ele>53.174858</ele>
        <time>2022-12-25T13:16:18.368Z</time>
      </trkpt>
      <trkpt lat="44.62441" lon="-1.1088">
        <ele>53.353923</ele>
        <time>2022-12-25T13:16:21.368Z</time>
      </trkpt>
      <trkpt lat="44.62451" lon="-1.10887">
        <ele>53.528692</ele>
        <time>2022-12-25T13:16:24.367Z</time>
      </trkpt>
      <trkpt lat="44.62462" lon="-1.10897">
        <ele>53.713038</ele>
        <time>2022-12-25T13:16:27.365Z</time>
      </trkpt>
      <trkpt lat="44.62471" lon="-1.10906">
        <ele>53.884568</ele>
        <time>2022-12-25T13:16:30.363Z</time>
      </trkpt>
      <trkpt lat="44.62481" lon="-1.10914">
        <ele>54.046853</ele>
        <time>2022-12-25T13:16:33.374Z</time>
      </trkpt>
      <trkpt lat="44.6249" lon="-1.10922">
        <ele>54.20625</ele>
        <time>2022-12-25T13:16:36.364Z</time>
      </trkpt>
      <trkpt lat="44.62499" lon="-1.1093">
        <ele>54.261631</ele>
        <time>2022-12-25T13:16:39.373Z</time>
      </trkpt>
      <trkpt lat="44.62509" lon="-1.10938">
        <ele>54.175364</ele>
        <time>2022-12-25T13:16:42.376Z</time>
      </trkpt>
      <trkpt lat="44.62519" lon="-1.10946">
        <ele>54.084025</ele>
        <time>2022-12-25T13:16:45.364Z</time>
      </trkpt>
      <trkpt lat="44.62531" lon="-1.10955">
        <ele>53.986649</ele>
        <time>2022-12-25T13:16:48.363Z</time>
      </trkpt>
      <trkpt lat="44.62539" lon="-1.10961">
        <ele>53.916879</ele>
        <time>2022-12-25T13:16:50.367Z</time>
      </trkpt>
      <trkpt lat="44.62547" lon="-1.10967">
        <ele>53.846322</ele>
        <time>2022-12-25T13:16:52.362Z</time>
      </trkpt>
      <trkpt lat="44.62558" lon="-1.10976">
        <ele>53.750144</ele>
        <time>2022-12-25T13:16:55.367Z</time>
      </trkpt>
      <trkpt lat="44.62566" lon="-1.10982">
        <ele>53.682099</ele>
        <time>2022-12-25T13:16:57.360Z</time>
      </trkpt>
      <trkpt lat="44.62577" lon="-1.10991">
        <ele>53.58741</ele>
        <time>2022-12-25T13:17:00.364Z</time>
      </trkpt>
      <trkpt lat="44.62588" lon="-1.11">
        <ele>53.489109</ele>
        <time>2022-12-25T13:17:03.362Z</time>
      </trkpt>
      <trkpt lat="44.62599" lon="-1.11009">
        <ele>53.394512</ele>
        <time>2022-12-25T13:17:06.366Z</time>
      </trkpt>
      <trkpt lat="44.62609" lon="-1.11017">
        <ele>53.306362</ele>
        <time>2022-12-25T13:17:09.362Z</time>
      </trkpt>
      <trkpt lat="44.6262" lon="-1.11025">
        <ele>53.213601</ele>
        <time>2022-12-25T13:17:12.370Z</time>
      </trkpt>
      <trkpt lat="44.6263" lon="-1.11034">
        <ele>53.118682</ele>
        <time>2022-12-25T13:17:15.370Z</time>
      </trkpt>
      <trkpt lat="44.62641" lon="-1.1104">
        <ele>53.032092</ele>
        <time>2022-12-25T13:17:18.368Z</time>
      </trkpt>
      <trkpt lat="44.62651" lon="-1.11045">
        <ele>52.948643</ele>
        <time>2022-12-25T13:17:21.386Z</time>
      </trkpt>
      <trkpt lat="44.62663" lon="-1.11049">
        <ele>52.956405</ele>
        <time>2022-12-25T13:17:24.378Z</time>
      </trkpt>
      <trkpt lat="44.62675" lon="-1.11052">
        <ele>52.98117</ele>
        <time>2022-12-25T13:17:27.377Z</time>
      </trkpt>
      <trkpt lat="44.62688" lon="-1.11054">
        <ele>53.00777</ele>
        <time>2022-12-25T13:17:30.386Z</time>
      </trkpt>
      <trkpt lat="44.62699" lon="-1.11057">
        <ele>53.031583</ele>
        <time>2022-12-25T13:17:33.370Z</time>
      </trkpt>
      <trkpt lat="44.6271" lon="-1.11058">
        <ele>53.054945</ele>
        <time>2022-12-25T13:17:36.367Z</time>
      </trkpt>
      <trkpt lat="44.62721" lon="-1.11056">
        <ele>53.077443</ele>
        <time>2022-12-25T13:17:39.368Z</time>
      </trkpt>
      <trkpt lat="44.62731" lon="-1.11053">
        <ele>53.097188</ele>
        <time>2022-12-25T13:17:42.378Z</time>
      </trkpt>
      <trkpt lat="44.62741" lon="-1.11052">
        <ele>53.117759</ele>
        <time>2022-12-25T13:17:45.375Z</time>
      </trkpt>
      <trkpt lat="44.62751" lon="-1.11048">
        <ele>53.139412</ele>
        <time>2022-12-25T13:17:48.371Z</time>
      </trkpt>
      <trkpt lat="44.6276" lon="-1.1104">
        <ele>53.161728</ele>
        <time>2022-12-25T13:17:51.362Z</time>
      </trkpt>
      <trkpt lat="44.62767" lon="-1.11029">
        <ele>53.183131</ele>
        <time>2022-12-25T13:17:54.365Z</time>
      </trkpt>
      <trkpt lat="44.62775" lon="-1.11021">
        <ele>53.202908</ele>
        <time>2022-12-25T13:17:57.363Z</time>
      </trkpt>
      <trkpt lat="44.62784" lon="-1.11024">
        <ele>53.222532</ele>
        <time>2022-12-25T13:18:01.364Z</time>
      </trkpt>
      <trkpt lat="44.62791" lon="-1.11036">
        <ele>53.244743</ele>
        <time>2022-12-25T13:18:06.363Z</time>
      </trkpt>
      <trkpt lat="44.62797" lon="-1.11046">
        <ele>53.263832</ele>
        <time>2022-12-25T13:18:10.363Z</time>
      </trkpt>
      <trkpt lat="44.62809" lon="-1.11044">
        <ele>53.28953</ele>
        <time>2022-12-25T13:18:14.367Z</time>
      </trkpt>
      <trkpt lat="44.62819" lon="-1.11043">
        <ele>53.289293</ele>
        <time>2022-12-25T13:18:17.362Z</time>
      </trkpt>
      <trkpt lat="44.62831" lon="-1.11042">
        <ele>53.235374</ele>
        <time>2022-12-25T13:18:20.374Z</time>
      </trkpt>
      <trkpt lat="44.62844" lon="-1.11041">
        <ele>53.175361</ele>
        <time>2022-12-25T13:18:23.375Z</time>
      </trkpt>
      <trkpt lat="44.62858" lon="-1.1104">
        <ele>53.111601</ele>
        <time>2022-12-25T13:18:26.366Z</time>
      </trkpt>
      <trkpt lat="44.62867" lon="-1.11038">
        <ele>53.067157</ele>
        <time>2022-12-25T13:18:28.358Z</time>
      </trkpt>
      <trkpt lat="44.62876" lon="-1.11036">
        <ele>53.024542</ele>
        <time>2022-12-25T13:18:30.366Z</time>
      </trkpt>
      <trkpt lat="44.62886" lon="-1.11034">
        <ele>52.979462</ele>
        <time>2022-12-25T13:18:32.365Z</time>
      </trkpt>
      <trkpt lat="44.62895" lon="-1.11032">
        <ele>52.934056</ele>
        <time>2022-12-25T13:18:34.368Z</time>
      </trkpt>
      <trkpt lat="44.62907" lon="-1.1103">
        <ele>52.878806</ele>
        <time>2022-12-25T13:18:37.362Z</time>
      </trkpt>
      <trkpt lat="44.62918" lon="-1.11027">
        <ele>52.826363</ele>
        <time>2022-12-25T13:18:40.364Z</time>
      </trkpt>
      <trkpt lat="44.6293" lon="-1.11019">
        <ele>52.767438</ele>
        <time>2022-12-25T13:18:43.364Z</time>
      </trkpt>
      <trkpt lat="44.62939" lon="-1.11013">
        <ele>52.72185</ele>
        <time>2022-12-25T13:18:47.374Z</time>
      </trkpt>
      <trkpt lat="44.62948" lon="-1.11012">
        <ele>52.678932</ele>
        <time>2022-12-25T13:18:50.363Z</time>
      </trkpt>
      <trkpt lat="44.62959" lon="-1.1101">
        <ele>52.626255</ele>
        <time>2022-12-25T13:18:53.360Z</time>
      </trkpt>
      <trkpt lat="44.62971" lon="-1.11007">
        <ele>52.56912</ele>
        <time>2022-12-25T13:18:56.363Z</time>
      </trkpt>
      <trkpt lat="44.6298" lon="-1.11006">
        <ele>52.52617</ele>
        <time>2022-12-25T13:18:58.363Z</time>
      </trkpt>
      <trkpt lat="44.62989" lon="-1.11004">
        <ele>52.483943</ele>
        <time>2022-12-25T13:19:00.367Z</time>
      </trkpt>
      <trkpt lat="44.62998" lon="-1.11002">
        <ele>52.490707</ele>
        <time>2022-12-25T13:19:02.363Z</time>
      </trkpt>
      <trkpt lat="44.63008" lon="-1.11001">
        <ele>52.52675</ele>
        <time>2022-12-25T13:19:04.361Z</time>
      </trkpt>
      <trkpt lat="44.63021" lon="-1.10998">
        <ele>52.578164</ele>
        <time>2022-12-25T13:19:07.363Z</time>
      </trkpt>
      <trkpt lat="44.63035" lon="-1.10994">
        <ele>52.630763</ele>
        <time>2022-12-25T13:19:10.364Z</time>
      </trkpt>
      <trkpt lat="44.63048" lon="-1.10992">
        <ele>52.679604</ele>
        <time>2022-12-25T13:19:13.362Z</time>
      </trkpt>
      <trkpt lat="44.6306" lon="-1.1099">
        <ele>52.727208</ele>
        <time>2022-12-25T13:19:16.364Z</time>
      </trkpt>
      <trkpt lat="44.63073" lon="-1.10987">
        <ele>52.776046</ele>
        <time>2022-12-25T13:19:19.365Z</time>
      </trkpt>
      <trkpt lat="44.63082" lon="-1.10988">
        <ele>52.810184</ele>
        <time>2022-12-25T13:19:21.365Z</time>
      </trkpt>
      <trkpt lat="44.63094" lon="-1.1099">
        <ele>52.853816</ele>
        <time>2022-12-25T13:19:25.363Z</time>
      </trkpt>
      <trkpt lat="44.63103" lon="-1.10988">
        <ele>52.889169</ele>
        <time>2022-12-25T13:19:28.363Z</time>
      </trkpt>
      <trkpt lat="44.63113" lon="-1.10987">
        <ele>52.927866</ele>
        <time>2022-12-25T13:19:31.360Z</time>
      </trkpt>
      <trkpt lat="44.63124" lon="-1.10985">
        <ele>52.970615</ele>
        <time>2022-12-25T13:19:34.363Z</time>
      </trkpt>
      <trkpt lat="44.63135" lon="-1.10983">
        <ele>53.011891</ele>
        <time>2022-12-25T13:19:37.365Z</time>
      </trkpt>
      <trkpt lat="44.63146" lon="-1.10981">
        <ele>53.054083</ele>
        <time>2022-12-25T13:19:40.370Z</time>
      </trkpt>
      <trkpt lat="44.63159" lon="-1.10978">
        <ele>53.101606</ele>
        <time>2022-12-25T13:19:43.361Z</time>
      </trkpt>
      <trkpt lat="44.6317" lon="-1.10976">
        <ele>53.144067</ele>
        <time>2022-12-25T13:19:46.367Z</time>
      </trkpt>
      <trkpt lat="44.63181" lon="-1.10975">
        <ele>53.103372</ele>
        <time>2022-12-25T13:19:49.367Z</time>
      </trkpt>
      <trkpt lat="44.63192" lon="-1.10976">
        <ele>53.055007</ele>
        <time>2022-12-25T13:19:52.369Z</time>
      </trkpt>
      <trkpt lat="44.63204" lon="-1.10977">
        <ele>53.005102</ele>
        <time>2022-12-25T13:19:55.368Z</time>
      </trkpt>
      <trkpt lat="44.63217" lon="-1.10982">
        <ele>52.947334</ele>
        <time>2022-12-25T13:19:58.361Z</time>
      </trkpt>
      <trkpt lat="44.63227" lon="-1.10987">
        <ele>52.902799</ele>
        <time>2022-12-25T13:20:00.362Z</time>
      </trkpt>
      <trkpt lat="44.63236" lon="-1.10989">
        <ele>52.862173</ele>
        <time>2022-12-25T13:20:02.372Z</time>
      </trkpt>
      <trkpt lat="44.63246" lon="-1.10993">
        <ele>52.817984</ele>
        <time>2022-12-25T13:20:04.369Z</time>
      </trkpt>
      <trkpt lat="44.63256" lon="-1.10997">
        <ele>52.775517</ele>
        <time>2022-12-25T13:20:06.372Z</time>
      </trkpt>
      <trkpt lat="44.63265" lon="-1.11">
        <ele>52.734325</ele>
        <time>2022-12-25T13:20:08.368Z</time>
      </trkpt>
      <trkpt lat="44.63274" lon="-1.11004">
        <ele>52.694167</ele>
        <time>2022-12-25T13:20:10.370Z</time>
      </trkpt>
      <trkpt lat="44.63286" lon="-1.11009">
        <ele>52.642228</ele>
        <time>2022-12-25T13:20:13.378Z</time>
      </trkpt>
      <trkpt lat="44.63295" lon="-1.11013">
        <ele>52.602567</ele>
        <time>2022-12-25T13:20:15.374Z</time>
      </trkpt>
      <trkpt lat="44.63306" lon="-1.11019">
        <ele>52.550147</ele>
        <time>2022-12-25T13:20:18.367Z</time>
      </trkpt>
      <trkpt lat="44.63318" lon="-1.11024">
        <ele>52.496894</ele>
        <time>2022-12-25T13:20:21.364Z</time>
      </trkpt>
      <trkpt lat="44.63328" lon="-1.11029">
        <ele>52.452237</ele>
        <time>2022-12-25T13:20:24.361Z</time>
      </trkpt>
      <trkpt lat="44.63338" lon="-1.11034">
        <ele>52.404158</ele>
        <time>2022-12-25T13:20:27.370Z</time>
      </trkpt>
      <trkpt lat="44.63351" lon="-1.1104">
        <ele>52.311802</ele>
        <time>2022-12-25T13:20:30.373Z</time>
      </trkpt>
      <trkpt lat="44.6336" lon="-1.11044">
        <ele>52.230975</ele>
        <time>2022-12-25T13:20:32.382Z</time>
      </trkpt>
      <trkpt lat="44.63371" lon="-1.11048">
        <ele>52.140867</ele>
        <time>2022-12-25T13:20:34.369Z</time>
      </trkpt>
      <trkpt lat="44.6338" lon="-1.11052">
        <ele>52.059287</ele>
        <time>2022-12-25T13:20:36.372Z</time>
      </trkpt>
      <trkpt lat="44.63389" lon="-1.11055">
        <ele>51.979905</ele>
        <time>2022-12-25T13:20:38.359Z</time>
      </trkpt>
      <trkpt lat="44.634" lon="-1.1106">
        <ele>51.878235</ele>
        <time>2022-12-25T13:20:41.374Z</time>
      </trkpt>
      <trkpt lat="44.63409" lon="-1.11063">
        <ele>51.801208</ele>
        <time>2022-12-25T13:20:43.362Z</time>
      </trkpt>
      <trkpt lat="44.6342" lon="-1.11069">
        <ele>51.693722</ele>
        <time>2022-12-25T13:20:46.382Z</time>
      </trkpt>
      <trkpt lat="44.63432" lon="-1.11074">
        <ele>51.586647</ele>
        <time>2022-12-25T13:20:49.369Z</time>
      </trkpt>
      <trkpt lat="44.63445" lon="-1.11078">
        <ele>51.479535</ele>
        <time>2022-12-25T13:20:52.362Z</time>
      </trkpt>
      <trkpt lat="44.63456" lon="-1.11083">
        <ele>51.380504</ele>
        <time>2022-12-25T13:20:55.363Z</time>
      </trkpt>
      <trkpt lat="44.63467" lon="-1.11087">
        <ele>51.27954</ele>
        <time>2022-12-25T13:20:58.363Z</time>
      </trkpt>
      <trkpt lat="44.63477" lon="-1.11091">
        <ele>51.186335</ele>
        <time>2022-12-25T13:21:01.371Z</time>
      </trkpt>
      <trkpt lat="44.63488" lon="-1.11096">
        <ele>51.090181</ele>
        <time>2022-12-25T13:21:04.387Z</time>
      </trkpt>
      <trkpt lat="44.635" lon="-1.11102">
        <ele>50.981592</ele>
        <time>2022-12-25T13:21:07.376Z</time>
      </trkpt>
      <trkpt lat="44.63511" lon="-1.11107">
        <ele>50.879548</ele>
        <time>2022-12-25T13:21:10.374Z</time>
      </trkpt>
      <trkpt lat="44.63522" lon="-1.11111">
        <ele>50.85127</ele>
        <time>2022-12-25T13:21:13.385Z</time>
      </trkpt>
      <trkpt lat="44.63533" lon="-1.11115">
        <ele>50.88393</ele>
        <time>2022-12-25T13:21:16.369Z</time>
      </trkpt>
      <trkpt lat="44.63545" lon="-1.11121">
        <ele>50.919039</ele>
        <time>2022-12-25T13:21:19.373Z</time>
      </trkpt>
      <trkpt lat="44.63558" lon="-1.11127">
        <ele>50.956319</ele>
        <time>2022-12-25T13:21:22.379Z</time>
      </trkpt>
      <trkpt lat="44.6357" lon="-1.11132">
        <ele>50.991856</ele>
        <time>2022-12-25T13:21:25.371Z</time>
      </trkpt>
      <trkpt lat="44.63582" lon="-1.11136">
        <ele>51.027458</ele>
        <time>2022-12-25T13:21:28.382Z</time>
      </trkpt>
      <trkpt lat="44.63594" lon="-1.11142">
        <ele>51.060992</ele>
        <time>2022-12-25T13:21:31.370Z</time>
      </trkpt>
      <trkpt lat="44.63605" lon="-1.11146">
        <ele>51.09255</ele>
        <time>2022-12-25T13:21:34.368Z</time>
      </trkpt>
      <trkpt lat="44.63615" lon="-1.11151">
        <ele>51.122472</ele>
        <time>2022-12-25T13:21:37.359Z</time>
      </trkpt>
      <trkpt lat="44.63625" lon="-1.11156">
        <ele>51.150875</ele>
        <time>2022-12-25T13:21:40.381Z</time>
      </trkpt>
      <trkpt lat="44.63636" lon="-1.11161">
        <ele>51.18592</ele>
        <time>2022-12-25T13:21:43.370Z</time>
      </trkpt>
      <trkpt lat="44.63649" lon="-1.11167">
        <ele>51.222316</ele>
        <time>2022-12-25T13:21:46.368Z</time>
      </trkpt>
      <trkpt lat="44.63658" lon="-1.11171">
        <ele>51.248628</ele>
        <time>2022-12-25T13:21:48.370Z</time>
      </trkpt>
      <trkpt lat="44.63671" lon="-1.11176">
        <ele>51.285997</ele>
        <time>2022-12-25T13:21:51.359Z</time>
      </trkpt>
      <trkpt lat="44.63683" lon="-1.11181">
        <ele>51.322285</ele>
        <time>2022-12-25T13:21:54.371Z</time>
      </trkpt>
      <trkpt lat="44.63692" lon="-1.11185">
        <ele>51.323193</ele>
        <time>2022-12-25T13:21:56.364Z</time>
      </trkpt>
      <trkpt lat="44.63704" lon="-1.1119">
        <ele>51.28377</ele>
        <time>2022-12-25T13:21:59.368Z</time>
      </trkpt>
      <trkpt lat="44.63715" lon="-1.11195">
        <ele>51.245803</ele>
        <time>2022-12-25T13:22:02.372Z</time>
      </trkpt>
      <trkpt lat="44.63726" lon="-1.112">
        <ele>51.207787</ele>
        <time>2022-12-25T13:22:05.373Z</time>
      </trkpt>
      <trkpt lat="44.63734" lon="-1.11204">
        <ele>51.177329</ele>
        <time>2022-12-25T13:22:08.375Z</time>
      </trkpt>
      <trkpt lat="44.63746" lon="-1.1121">
        <ele>51.137693</ele>
        <time>2022-12-25T13:22:11.373Z</time>
      </trkpt>
      <trkpt lat="44.63758" lon="-1.11215">
        <ele>51.095009</ele>
        <time>2022-12-25T13:22:14.375Z</time>
      </trkpt>
      <trkpt lat="44.63771" lon="-1.11222">
        <ele>51.051596</ele>
        <time>2022-12-25T13:22:17.370Z</time>
      </trkpt>
      <trkpt lat="44.6378" lon="-1.11225">
        <ele>51.020247</ele>
        <time>2022-12-25T13:22:19.374Z</time>
      </trkpt>
      <trkpt lat="44.63793" lon="-1.11231">
        <ele>50.976802</ele>
        <time>2022-12-25T13:22:22.367Z</time>
      </trkpt>
      <trkpt lat="44.63805" lon="-1.11235">
        <ele>50.934786</ele>
        <time>2022-12-25T13:22:25.365Z</time>
      </trkpt>
      <trkpt lat="44.63816" lon="-1.11232">
        <ele>50.897876</ele>
        <time>2022-12-25T13:22:28.364Z</time>
      </trkpt>
      <trkpt lat="44.63827" lon="-1.11229">
        <ele>50.863579</ele>
        <time>2022-12-25T13:22:31.386Z</time>
      </trkpt>
      <trkpt lat="44.63833" lon="-1.11241">
        <ele>50.828848</ele>
        <time>2022-12-25T13:22:34.364Z</time>
      </trkpt>
      <trkpt lat="44.63836" lon="-1.11255">
        <ele>50.795598</ele>
        <time>2022-12-25T13:22:37.360Z</time>
      </trkpt>
      <trkpt lat="44.6384" lon="-1.11268">
        <ele>50.762812</ele>
        <time>2022-12-25T13:22:40.363Z</time>
      </trkpt>
      <trkpt lat="44.63846" lon="-1.11277">
        <ele>50.72271</ele>
        <time>2022-12-25T13:22:43.369Z</time>
      </trkpt>
      <trkpt lat="44.6385" lon="-1.11294">
        <ele>50.652513</ele>
        <time>2022-12-25T13:29:01.368Z</time>
      </trkpt>
      <trkpt lat="44.63851" lon="-1.11307">
        <ele>50.602902</ele>
        <time>2022-12-25T13:29:05.370Z</time>
      </trkpt>
      <trkpt lat="44.63855" lon="-1.11323">
        <ele>50.53909</ele>
        <time>2022-12-25T13:29:09.367Z</time>
      </trkpt>
      <trkpt lat="44.63859" lon="-1.11335">
        <ele>50.486127</ele>
        <time>2022-12-25T13:29:12.366Z</time>
      </trkpt>
      <trkpt lat="44.63863" lon="-1.11349">
        <ele>50.430614</ele>
        <time>2022-12-25T13:29:15.359Z</time>
      </trkpt>
      <trkpt lat="44.63868" lon="-1.11362">
        <ele>50.371744</ele>
        <time>2022-12-25T13:29:18.364Z</time>
      </trkpt>
      <trkpt lat="44.63873" lon="-1.11377">
        <ele>50.312148</ele>
        <time>2022-12-25T13:29:21.363Z</time>
      </trkpt>
      <trkpt lat="44.63877" lon="-1.11391">
        <ele>50.249562</ele>
        <time>2022-12-25T13:29:24.362Z</time>
      </trkpt>
      <trkpt lat="44.63883" lon="-1.11407">
        <ele>50.183623</ele>
        <time>2022-12-25T13:29:27.364Z</time>
      </trkpt>
      <trkpt lat="44.63888" lon="-1.11423">
        <ele>50.114528</ele>
        <time>2022-12-25T13:29:30.365Z</time>
      </trkpt>
      <trkpt lat="44.63893" lon="-1.11434">
        <ele>50.065897</ele>
        <time>2022-12-25T13:29:32.366Z</time>
      </trkpt>
      <trkpt lat="44.63897" lon="-1.1145">
        <ele>50.000144</ele>
        <time>2022-12-25T13:29:35.367Z</time>
      </trkpt>
      <trkpt lat="44.63902" lon="-1.11463">
        <ele>49.941729</ele>
        <time>2022-12-25T13:29:38.362Z</time>
      </trkpt>
      <trkpt lat="44.63907" lon="-1.11477">
        <ele>49.882859</ele>
        <time>2022-12-25T13:29:41.363Z</time>
      </trkpt>
      <trkpt lat="44.63911" lon="-1.11491">
        <ele>49.825032</ele>
        <time>2022-12-25T13:29:44.372Z</time>
      </trkpt>
      <trkpt lat="44.63916" lon="-1.11506">
        <ele>49.750704</ele>
        <time>2022-12-25T13:29:47.368Z</time>
      </trkpt>
      <trkpt lat="44.63921" lon="-1.11521">
        <ele>49.615475</ele>
        <time>2022-12-25T13:29:50.368Z</time>
      </trkpt>
      <trkpt lat="44.63926" lon="-1.11537">
        <ele>49.476421</ele>
        <time>2022-12-25T13:29:53.363Z</time>
      </trkpt>
      <trkpt lat="44.63932" lon="-1.11554">
        <ele>49.328993</ele>
        <time>2022-12-25T13:29:56.361Z</time>
      </trkpt>
      <trkpt lat="44.63937" lon="-1.1157">
        <ele>49.188026</ele>
        <time>2022-12-25T13:29:59.369Z</time>
      </trkpt>
      <trkpt lat="44.63943" lon="-1.11583">
        <ele>49.065426</ele>
        <time>2022-12-25T13:30:02.369Z</time>
      </trkpt>
      <trkpt lat="44.63947" lon="-1.11596">
        <ele>48.950438</ele>
        <time>2022-12-25T13:30:05.364Z</time>
      </trkpt>
      <trkpt lat="44.63949" lon="-1.11611">
        <ele>48.833074</ele>
        <time>2022-12-25T13:30:08.366Z</time>
      </trkpt>
      <trkpt lat="44.63953" lon="-1.11625">
        <ele>48.71003</ele>
        <time>2022-12-25T13:30:11.380Z</time>
      </trkpt>
      <trkpt lat="44.63958" lon="-1.11637">
        <ele>48.603792</ele>
        <time>2022-12-25T13:30:16.376Z</time>
      </trkpt>
      <trkpt lat="44.63963" lon="-1.1165">
        <ele>48.481311</ele>
        <time>2022-12-25T13:30:28.363Z</time>
      </trkpt>
      <trkpt lat="44.63967" lon="-1.11665">
        <ele>48.359003</ele>
        <time>2022-12-25T13:30:32.372Z</time>
      </trkpt>
      <trkpt lat="44.63971" lon="-1.11679">
        <ele>48.238034</ele>
        <time>2022-12-25T13:30:35.377Z</time>
      </trkpt>
      <trkpt lat="44.63974" lon="-1.11695">
        <ele>48.105754</ele>
        <time>2022-12-25T13:30:38.362Z</time>
      </trkpt>
      <trkpt lat="44.63974" lon="-1.11714">
        <ele>47.951055</ele>
        <time>2022-12-25T13:30:41.362Z</time>
      </trkpt>
      <trkpt lat="44.63972" lon="-1.11728">
        <ele>47.837989</ele>
        <time>2022-12-25T13:30:43.364Z</time>
      </trkpt>
      <trkpt lat="44.63969" lon="-1.11743">
        <ele>47.815246</ele>
        <time>2022-12-25T13:30:45.367Z</time>
      </trkpt>
      <trkpt lat="44.63966" lon="-1.11758">
        <ele>47.919398</ele>
        <time>2022-12-25T13:30:47.363Z</time>
      </trkpt>
      <trkpt lat="44.63962" lon="-1.11773">
        <ele>48.023716</ele>
        <time>2022-12-25T13:30:49.363Z</time>
      </trkpt>
      <trkpt lat="44.63959" lon="-1.11786">
        <ele>48.120882</ele>
        <time>2022-12-25T13:30:51.361Z</time>
      </trkpt>
      <trkpt lat="44.63955" lon="-1.11804">
        <ele>48.246722</ele>
        <time>2022-12-25T13:30:54.363Z</time>
      </trkpt>
      <trkpt lat="44.63952" lon="-1.11821">
        <ele>48.366791</ele>
        <time>2022-12-25T13:30:57.361Z</time>
      </trkpt>
      <trkpt lat="44.63948" lon="-1.11837">
        <ele>48.478968</ele>
        <time>2022-12-25T13:31:00.366Z</time>
      </trkpt>
      <trkpt lat="44.63945" lon="-1.11852">
        <ele>48.584341</ele>
        <time>2022-12-25T13:31:03.360Z</time>
      </trkpt>
      <trkpt lat="44.63942" lon="-1.11869">
        <ele>48.699235</ele>
        <time>2022-12-25T13:31:06.362Z</time>
      </trkpt>
      <trkpt lat="44.63938" lon="-1.11886">
        <ele>48.820306</ele>
        <time>2022-12-25T13:31:09.368Z</time>
      </trkpt>
      <trkpt lat="44.63934" lon="-1.11904">
        <ele>48.946066</ele>
        <time>2022-12-25T13:31:12.366Z</time>
      </trkpt>
      <trkpt lat="44.63931" lon="-1.11922">
        <ele>49.070926</ele>
        <time>2022-12-25T13:31:15.365Z</time>
      </trkpt>
      <trkpt lat="44.63927" lon="-1.1194">
        <ele>49.195922</ele>
        <time>2022-12-25T13:31:18.366Z</time>
      </trkpt>
      <trkpt lat="44.63924" lon="-1.11956">
        <ele>49.307212</ele>
        <time>2022-12-25T13:31:21.361Z</time>
      </trkpt>
      <trkpt lat="44.63921" lon="-1.1197">
        <ele>49.40464</ele>
        <time>2022-12-25T13:31:24.368Z</time>
      </trkpt>
      <trkpt lat="44.63918" lon="-1.11983">
        <ele>49.482637</ele>
        <time>2022-12-25T13:31:27.363Z</time>
      </trkpt>
      <trkpt lat="44.63914" lon="-1.11998">
        <ele>49.524858</ele>
        <time>2022-12-25T13:31:30.360Z</time>
      </trkpt>
      <trkpt lat="44.6391" lon="-1.12014">
        <ele>49.567451</ele>
        <time>2022-12-25T13:31:33.360Z</time>
      </trkpt>
      <trkpt lat="44.63906" lon="-1.1203">
        <ele>49.612869</ele>
        <time>2022-12-25T13:31:36.360Z</time>
      </trkpt>
      <trkpt lat="44.63901" lon="-1.12047">
        <ele>49.659591</ele>
        <time>2022-12-25T13:31:39.363Z</time>
      </trkpt>
      <trkpt lat="44.63896" lon="-1.12063">
        <ele>49.705068</ele>
        <time>2022-12-25T13:31:42.362Z</time>
      </trkpt>
      <trkpt lat="44.63892" lon="-1.12078">
        <ele>49.74844</ele>
        <time>2022-12-25T13:31:45.360Z</time>
      </trkpt>
      <trkpt lat="44.63887" lon="-1.12093">
        <ele>49.79109</ele>
        <time>2022-12-25T13:31:48.363Z</time>
      </trkpt>
      <trkpt lat="44.63883" lon="-1.12106">
        <ele>49.827812</ele>
        <time>2022-12-25T13:31:51.364Z</time>
      </trkpt>
      <trkpt lat="44.63879" lon="-1.12121">
        <ele>49.869359</ele>
        <time>2022-12-25T13:31:55.364Z</time>
      </trkpt>
      <trkpt lat="44.63879" lon="-1.12108">
        <ele>49.903584</ele>
        <time>2022-12-25T13:32:01.372Z</time>
      </trkpt>
      <trkpt lat="44.63884" lon="-1.12095">
        <ele>49.940589</ele>
        <time>2022-12-25T13:32:05.364Z</time>
      </trkpt>
      <trkpt lat="44.63888" lon="-1.12083">
        <ele>49.977074</ele>
        <time>2022-12-25T13:32:08.383Z</time>
      </trkpt>
      <trkpt lat="44.63893" lon="-1.12068">
        <ele>50.018765</ele>
        <time>2022-12-25T13:32:11.385Z</time>
      </trkpt>
      <trkpt lat="44.63898" lon="-1.12052">
        <ele>50.063339</ele>
        <time>2022-12-25T13:32:14.366Z</time>
      </trkpt>
      <trkpt lat="44.63903" lon="-1.12036">
        <ele>50.109252</ele>
        <time>2022-12-25T13:32:17.373Z</time>
      </trkpt>
      <trkpt lat="44.63907" lon="-1.1202">
        <ele>50.094384</ele>
        <time>2022-12-25T13:32:20.360Z</time>
      </trkpt>
      <trkpt lat="44.63912" lon="-1.12005">
        <ele>50.030032</ele>
        <time>2022-12-25T13:32:23.366Z</time>
      </trkpt>
      <trkpt lat="44.63915" lon="-1.11989">
        <ele>49.969273</ele>
        <time>2022-12-25T13:32:26.366Z</time>
      </trkpt>
      <trkpt lat="44.63918" lon="-1.11975">
        <ele>49.913818</ele>
        <time>2022-12-25T13:32:29.367Z</time>
      </trkpt>
      <trkpt lat="44.63924" lon="-1.11964">
        <ele>49.862205</ele>
        <time>2022-12-25T13:32:34.369Z</time>
      </trkpt>
      <trkpt lat="44.63933" lon="-1.11971">
        <ele>49.807318</ele>
        <time>2022-12-25T13:32:45.364Z</time>
      </trkpt>
      <trkpt lat="44.63937" lon="-1.11985">
        <ele>49.749042</ele>
        <time>2022-12-25T13:32:50.361Z</time>
      </trkpt>
      <trkpt lat="44.63939" lon="-1.11999">
        <ele>49.694337</ele>
        <time>2022-12-25T13:32:54.363Z</time>
      </trkpt>
      <trkpt lat="44.6394" lon="-1.12012">
        <ele>49.644761</ele>
        <time>2022-12-25T13:32:57.363Z</time>
      </trkpt>
      <trkpt lat="44.63941" lon="-1.12026">
        <ele>49.591213</ele>
        <time>2022-12-25T13:33:00.362Z</time>
      </trkpt>
      <trkpt lat="44.63943" lon="-1.12041">
        <ele>49.535387</ele>
        <time>2022-12-25T13:33:03.363Z</time>
      </trkpt>
      <trkpt lat="44.63944" lon="-1.12055">
        <ele>49.482399</ele>
        <time>2022-12-25T13:33:06.365Z</time>
      </trkpt>
      <trkpt lat="44.63946" lon="-1.12071">
        <ele>49.420593</ele>
        <time>2022-12-25T13:33:10.362Z</time>
      </trkpt>
      <trkpt lat="44.63948" lon="-1.12086">
        <ele>49.36215</ele>
        <time>2022-12-25T13:33:14.363Z</time>
      </trkpt>
      <trkpt lat="44.63948" lon="-1.12101">
        <ele>49.302962</ele>
        <time>2022-12-25T13:33:18.362Z</time>
      </trkpt>
      <trkpt lat="44.63948" lon="-1.12118">
        <ele>49.239614</ele>
        <time>2022-12-25T13:33:22.364Z</time>
      </trkpt>
      <trkpt lat="44.63949" lon="-1.12131">
        <ele>49.190775</ele>
        <time>2022-12-25T13:33:25.372Z</time>
      </trkpt>
      <trkpt lat="44.6395" lon="-1.12144">
        <ele>49.168338</ele>
        <time>2022-12-25T13:33:29.362Z</time>
      </trkpt>
      <trkpt lat="44.63959" lon="-1.12138">
        <ele>49.164489</ele>
        <time>2022-12-25T13:33:53.380Z</time>
      </trkpt>
      <trkpt lat="44.63969" lon="-1.12136">
        <ele>49.160726</ele>
        <time>2022-12-25T13:33:58.366Z</time>
      </trkpt>
      <trkpt lat="44.63979" lon="-1.12139">
        <ele>49.156634</ele>
        <time>2022-12-25T13:34:03.367Z</time>
      </trkpt>
      <trkpt lat="44.63989" lon="-1.12142">
        <ele>49.152924</ele>
        <time>2022-12-25T13:34:08.362Z</time>
      </trkpt>
      <trkpt lat="44.6398" lon="-1.12142">
        <ele>49.14942</ele>
        <time>2022-12-25T13:34:23.360Z</time>
      </trkpt>
      <trkpt lat="44.6397" lon="-1.12139">
        <ele>49.145541</ele>
        <time>2022-12-25T13:34:27.365Z</time>
      </trkpt>
      <trkpt lat="44.6396" lon="-1.12137">
        <ele>49.141645</ele>
        <time>2022-12-25T13:34:31.366Z</time>
      </trkpt>
      <trkpt lat="44.63951" lon="-1.12131">
        <ele>49.137775</ele>
        <time>2022-12-25T13:34:36.364Z</time>
      </trkpt>
      <trkpt lat="44.63949" lon="-1.12117">
        <ele>49.133891</ele>
        <time>2022-12-25T13:34:40.363Z</time>
      </trkpt>
      <trkpt lat="44.63948" lon="-1.12102">
        <ele>49.129765</ele>
        <time>2022-12-25T13:34:44.361Z</time>
      </trkpt>
      <trkpt lat="44.63946" lon="-1.12086">
        <ele>49.125308</ele>
        <time>2022-12-25T13:34:48.373Z</time>
      </trkpt>
      <trkpt lat="44.63946" lon="-1.12071">
        <ele>49.121276</ele>
        <time>2022-12-25T13:34:52.365Z</time>
      </trkpt>
      <trkpt lat="44.63945" lon="-1.12055">
        <ele>49.116737</ele>
        <time>2022-12-25T13:34:56.364Z</time>
      </trkpt>
      <trkpt lat="44.63944" lon="-1.12039">
        <ele>49.112416</ele>
        <time>2022-12-25T13:35:00.365Z</time>
      </trkpt>
      <trkpt lat="44.63942" lon="-1.12022">
        <ele>49.107838</ele>
        <time>2022-12-25T13:35:04.372Z</time>
      </trkpt>
      <trkpt lat="44.6394" lon="-1.12008">
        <ele>49.103971</ele>
        <time>2022-12-25T13:35:07.365Z</time>
      </trkpt>
      <trkpt lat="44.63939" lon="-1.11995">
        <ele>49.120343</ele>
        <time>2022-12-25T13:35:10.362Z</time>
      </trkpt>
      <trkpt lat="44.63937" lon="-1.11981">
        <ele>49.186191</ele>
        <time>2022-12-25T13:35:14.372Z</time>
      </trkpt>
      <trkpt lat="44.63932" lon="-1.1197">
        <ele>49.248155</ele>
        <time>2022-12-25T13:35:47.370Z</time>
      </trkpt>
      <trkpt lat="44.63926" lon="-1.11961">
        <ele>49.311449</ele>
        <time>2022-12-25T13:35:57.382Z</time>
      </trkpt>
      <trkpt lat="44.63926" lon="-1.11948">
        <ele>49.374991</ele>
        <time>2022-12-25T13:36:02.364Z</time>
      </trkpt>
      <trkpt lat="44.63928" lon="-1.11935">
        <ele>49.438347</ele>
        <time>2022-12-25T13:36:05.372Z</time>
      </trkpt>
      <trkpt lat="44.63931" lon="-1.11921">
        <ele>49.509426</ele>
        <time>2022-12-25T13:36:08.387Z</time>
      </trkpt>
      <trkpt lat="44.63933" lon="-1.11905">
        <ele>49.586363</ele>
        <time>2022-12-25T13:36:11.376Z</time>
      </trkpt>
      <trkpt lat="44.63936" lon="-1.11889">
        <ele>49.667834</ele>
        <time>2022-12-25T13:36:14.379Z</time>
      </trkpt>
      <trkpt lat="44.6394" lon="-1.11871">
        <ele>49.754651</ele>
        <time>2022-12-25T13:36:17.387Z</time>
      </trkpt>
      <trkpt lat="44.63943" lon="-1.11853">
        <ele>49.84313</ele>
        <time>2022-12-25T13:36:20.372Z</time>
      </trkpt>
      <trkpt lat="44.63946" lon="-1.11835">
        <ele>49.930988</ele>
        <time>2022-12-25T13:36:23.367Z</time>
      </trkpt>
      <trkpt lat="44.63949" lon="-1.11818">
        <ele>50.019787</ele>
        <time>2022-12-25T13:36:26.377Z</time>
      </trkpt>
      <trkpt lat="44.63953" lon="-1.11799">
        <ele>50.110975</ele>
        <time>2022-12-25T13:36:29.382Z</time>
      </trkpt>
      <trkpt lat="44.63955" lon="-1.11786">
        <ele>50.176052</ele>
        <time>2022-12-25T13:36:31.364Z</time>
      </trkpt>
      <trkpt lat="44.63959" lon="-1.11768">
        <ele>50.266848</ele>
        <time>2022-12-25T13:36:34.368Z</time>
      </trkpt>
      <trkpt lat="44.63961" lon="-1.11756">
        <ele>50.314733</ele>
        <time>2022-12-25T13:36:36.382Z</time>
      </trkpt>
      <trkpt lat="44.63964" lon="-1.11743">
        <ele>50.300948</ele>
        <time>2022-12-25T13:36:38.377Z</time>
      </trkpt>
      <trkpt lat="44.63967" lon="-1.1173">
        <ele>50.286257</ele>
        <time>2022-12-25T13:36:40.386Z</time>
      </trkpt>
      <trkpt lat="44.63969" lon="-1.11713">
        <ele>50.266988</ele>
        <time>2022-12-25T13:36:43.365Z</time>
      </trkpt>
      <trkpt lat="44.6397" lon="-1.117">
        <ele>50.25326</ele>
        <time>2022-12-25T13:36:45.369Z</time>
      </trkpt>
      <trkpt lat="44.63968" lon="-1.11682">
        <ele>50.233583</ele>
        <time>2022-12-25T13:36:48.375Z</time>
      </trkpt>
      <trkpt lat="44.63964" lon="-1.11664">
        <ele>50.214161</ele>
        <time>2022-12-25T13:36:51.371Z</time>
      </trkpt>
      <trkpt lat="44.63959" lon="-1.1165">
        <ele>50.197673</ele>
        <time>2022-12-25T13:36:54.367Z</time>
      </trkpt>
      <trkpt lat="44.63955" lon="-1.11635">
        <ele>50.180622</ele>
        <time>2022-12-25T13:36:57.366Z</time>
      </trkpt>
      <trkpt lat="44.6395" lon="-1.11623">
        <ele>50.164884</ele>
        <time>2022-12-25T13:37:00.388Z</time>
      </trkpt>
      <trkpt lat="44.63942" lon="-1.11613">
        <ele>50.149032</ele>
        <time>2022-12-25T13:37:03.372Z</time>
      </trkpt>
      <trkpt lat="44.63934" lon="-1.11604">
        <ele>50.133676</ele>
        <time>2022-12-25T13:37:06.376Z</time>
      </trkpt>
      <trkpt lat="44.63932" lon="-1.11588">
        <ele>50.11654</ele>
        <time>2022-12-25T13:37:09.376Z</time>
      </trkpt>
      <trkpt lat="44.63932" lon="-1.1157">
        <ele>50.09694</ele>
        <time>2022-12-25T13:37:12.370Z</time>
      </trkpt>
      <trkpt lat="44.63929" lon="-1.11558">
        <ele>50.083156</ele>
        <time>2022-12-25T13:37:14.374Z</time>
      </trkpt>
      <trkpt lat="44.63925" lon="-1.11546">
        <ele>50.069477</ele>
        <time>2022-12-25T13:37:16.368Z</time>
      </trkpt>
      <trkpt lat="44.63919" lon="-1.11529">
        <ele>50.049026</ele>
        <time>2022-12-25T13:37:19.369Z</time>
      </trkpt>
      <trkpt lat="44.63915" lon="-1.11517">
        <ele>49.985261</ele>
        <time>2022-12-25T13:37:21.376Z</time>
      </trkpt>
      <trkpt lat="44.63909" lon="-1.115">
        <ele>49.881334</ele>
        <time>2022-12-25T13:37:24.376Z</time>
      </trkpt>
      <trkpt lat="44.63906" lon="-1.11489">
        <ele>49.809347</ele>
        <time>2022-12-25T13:37:26.374Z</time>
      </trkpt>
      <trkpt lat="44.63902" lon="-1.11477">
        <ele>49.735538</ele>
        <time>2022-12-25T13:37:28.380Z</time>
      </trkpt>
      <trkpt lat="44.63898" lon="-1.11465">
        <ele>49.663365</ele>
        <time>2022-12-25T13:37:30.374Z</time>
      </trkpt>
      <trkpt lat="44.63894" lon="-1.11453">
        <ele>49.592151</ele>
        <time>2022-12-25T13:37:32.377Z</time>
      </trkpt>
      <trkpt lat="44.63891" lon="-1.11442">
        <ele>49.521142</ele>
        <time>2022-12-25T13:37:34.385Z</time>
      </trkpt>
      <trkpt lat="44.63887" lon="-1.1143">
        <ele>49.446787</ele>
        <time>2022-12-25T13:37:36.371Z</time>
      </trkpt>
      <trkpt lat="44.63882" lon="-1.11417">
        <ele>49.367181</ele>
        <time>2022-12-25T13:37:38.374Z</time>
      </trkpt>
      <trkpt lat="44.63879" lon="-1.11405">
        <ele>49.294754</ele>
        <time>2022-12-25T13:37:40.375Z</time>
      </trkpt>
      <trkpt lat="44.63875" lon="-1.11393">
        <ele>49.220731</ele>
        <time>2022-12-25T13:37:42.385Z</time>
      </trkpt>
      <trkpt lat="44.63872" lon="-1.11381">
        <ele>49.149721</ele>
        <time>2022-12-25T13:37:44.366Z</time>
      </trkpt>
      <trkpt lat="44.63866" lon="-1.11367">
        <ele>49.055787</ele>
        <time>2022-12-25T13:37:47.373Z</time>
      </trkpt>
      <trkpt lat="44.63861" lon="-1.11353">
        <ele>48.968289</ele>
        <time>2022-12-25T13:37:50.390Z</time>
      </trkpt>
      <trkpt lat="44.63857" lon="-1.11338">
        <ele>48.880741</ele>
        <time>2022-12-25T13:37:53.370Z</time>
      </trkpt>
      <trkpt lat="44.63852" lon="-1.11323">
        <ele>48.788776</ele>
        <time>2022-12-25T13:37:56.377Z</time>
      </trkpt>
      <trkpt lat="44.63847" lon="-1.11308">
        <ele>48.694753</ele>
        <time>2022-12-25T13:37:59.374Z</time>
      </trkpt>
      <trkpt lat="44.63843" lon="-1.11295">
        <ele>48.639985</ele>
        <time>2022-12-25T13:38:02.367Z</time>
      </trkpt>
      <trkpt lat="44.63849" lon="-1.11284">
        <ele>48.715953</ele>
        <time>2022-12-25T13:38:06.379Z</time>
      </trkpt>
      <trkpt lat="44.63861" lon="-1.11288">
        <ele>48.808107</ele>
        <time>2022-12-25T13:38:10.361Z</time>
      </trkpt>
      <trkpt lat="44.63872" lon="-1.11293">
        <ele>48.895264</ele>
        <time>2022-12-25T13:38:13.364Z</time>
      </trkpt>
      <trkpt lat="44.63885" lon="-1.11297">
        <ele>48.98997</ele>
        <time>2022-12-25T13:38:16.376Z</time>
      </trkpt>
      <trkpt lat="44.63893" lon="-1.11301">
        <ele>49.057749</ele>
        <time>2022-12-25T13:38:18.388Z</time>
      </trkpt>
      <trkpt lat="44.63902" lon="-1.11305">
        <ele>49.125341</ele>
        <time>2022-12-25T13:38:20.361Z</time>
      </trkpt>
      <trkpt lat="44.63915" lon="-1.11311">
        <ele>49.228936</ele>
        <time>2022-12-25T13:38:23.368Z</time>
      </trkpt>
      <trkpt lat="44.63924" lon="-1.11316">
        <ele>49.299886</ele>
        <time>2022-12-25T13:38:25.376Z</time>
      </trkpt>
      <trkpt lat="44.63932" lon="-1.1132">
        <ele>49.3673</ele>
        <time>2022-12-25T13:38:27.364Z</time>
      </trkpt>
      <trkpt lat="44.63941" lon="-1.11325">
        <ele>49.441296</ele>
        <time>2022-12-25T13:38:29.375Z</time>
      </trkpt>
      <trkpt lat="44.6395" lon="-1.11329">
        <ele>49.508748</ele>
        <time>2022-12-25T13:38:31.388Z</time>
      </trkpt>
      <trkpt lat="44.63959" lon="-1.11333">
        <ele>49.577044</ele>
        <time>2022-12-25T13:38:33.387Z</time>
      </trkpt>
      <trkpt lat="44.63971" lon="-1.11339">
        <ele>49.675167</ele>
        <time>2022-12-25T13:38:36.371Z</time>
      </trkpt>
      <trkpt lat="44.63982" lon="-1.11346">
        <ele>49.762174</ele>
        <time>2022-12-25T13:38:39.367Z</time>
      </trkpt>
      <trkpt lat="44.63992" lon="-1.11349">
        <ele>49.839029</ele>
        <time>2022-12-25T13:38:42.370Z</time>
      </trkpt>
      <trkpt lat="44.64003" lon="-1.11352">
        <ele>49.926848</ele>
        <time>2022-12-25T13:38:45.386Z</time>
      </trkpt>
      <trkpt lat="44.64015" lon="-1.11355">
        <ele>49.977397</ele>
        <time>2022-12-25T13:38:48.387Z</time>
      </trkpt>
      <trkpt lat="44.64026" lon="-1.11357">
        <ele>49.983109</ele>
        <time>2022-12-25T13:38:51.373Z</time>
      </trkpt>
      <trkpt lat="44.64035" lon="-1.1136">
        <ele>49.987909</ele>
        <time>2022-12-25T13:38:54.387Z</time>
      </trkpt>
      <trkpt lat="44.64045" lon="-1.11363">
        <ele>49.993275</ele>
        <time>2022-12-25T13:38:58.377Z</time>
      </trkpt>
      <trkpt lat="44.64055" lon="-1.11367">
        <ele>49.999085</ele>
        <time>2022-12-25T13:39:03.373Z</time>
      </trkpt>
      <trkpt lat="44.64067" lon="-1.11369">
        <ele>50.005166</ele>
        <time>2022-12-25T13:39:08.379Z</time>
      </trkpt>
      <trkpt lat="44.6408" lon="-1.11371">
        <ele>50.012238</ele>
        <time>2022-12-25T13:39:11.388Z</time>
      </trkpt>
      <trkpt lat="44.64089" lon="-1.11373">
        <ele>50.017238</ele>
        <time>2022-12-25T13:39:13.375Z</time>
      </trkpt>
      <trkpt lat="44.641" lon="-1.11374">
        <ele>50.022781</ele>
        <time>2022-12-25T13:39:15.365Z</time>
      </trkpt>
      <trkpt lat="44.64109" lon="-1.11375">
        <ele>50.027803</ele>
        <time>2022-12-25T13:39:17.375Z</time>
      </trkpt>
      <trkpt lat="44.64119" lon="-1.11376">
        <ele>50.033028</ele>
        <time>2022-12-25T13:39:19.389Z</time>
      </trkpt>
      <trkpt lat="44.64128" lon="-1.11377">
        <ele>50.03793</ele>
        <time>2022-12-25T13:39:21.387Z</time>
      </trkpt>
      <trkpt lat="44.6414" lon="-1.11377">
        <ele>50.044103</ele>
        <time>2022-12-25T13:39:24.387Z</time>
      </trkpt>
      <trkpt lat="44.64149" lon="-1.11378">
        <ele>50.049218</ele>
        <time>2022-12-25T13:39:27.382Z</time>
      </trkpt>
      <trkpt lat="44.6416" lon="-1.11378">
        <ele>50.05502</ele>
        <time>2022-12-25T13:39:30.378Z</time>
      </trkpt>
      <trkpt lat="44.64172" lon="-1.11379">
        <ele>50.061142</ele>
        <time>2022-12-25T13:39:33.374Z</time>
      </trkpt>
      <trkpt lat="44.64183" lon="-1.11381">
        <ele>50.067145</ele>
        <time>2022-12-25T13:39:36.365Z</time>
      </trkpt>
      <trkpt lat="44.64193" lon="-1.11381">
        <ele>50.051594</ele>
        <time>2022-12-25T13:39:39.384Z</time>
      </trkpt>
      <trkpt lat="44.64203" lon="-1.11382">
        <ele>50.01783</ele>
        <time>2022-12-25T13:39:42.380Z</time>
      </trkpt>
      <trkpt lat="44.64214" lon="-1.11381">
        <ele>49.982057</ele>
        <time>2022-12-25T13:39:45.373Z</time>
      </trkpt>
      <trkpt lat="44.64224" lon="-1.11382">
        <ele>49.945241</ele>
        <time>2022-12-25T13:39:48.362Z</time>
      </trkpt>
      <trkpt lat="44.64236" lon="-1.11383">
        <ele>49.905655</ele>
        <time>2022-12-25T13:39:51.368Z</time>
      </trkpt>
      <trkpt lat="44.64249" lon="-1.11384">
        <ele>49.862031</ele>
        <time>2022-12-25T13:39:54.363Z</time>
      </trkpt>
      <trkpt lat="44.64262" lon="-1.11384">
        <ele>49.817356</ele>
        <time>2022-12-25T13:39:57.366Z</time>
      </trkpt>
      <trkpt lat="44.64274" lon="-1.11386">
        <ele>49.77704</ele>
        <time>2022-12-25T13:40:00.367Z</time>
      </trkpt>
      <trkpt lat="44.64285" lon="-1.11387">
        <ele>49.739168</ele>
        <time>2022-12-25T13:40:03.365Z</time>
      </trkpt>
      <trkpt lat="44.64294" lon="-1.11387">
        <ele>49.70646</ele>
        <time>2022-12-25T13:40:06.386Z</time>
      </trkpt>
      <trkpt lat="44.64304" lon="-1.1139">
        <ele>49.674396</ele>
        <time>2022-12-25T13:40:09.365Z</time>
      </trkpt>
      <trkpt lat="44.64312" lon="-1.11394">
        <ele>49.642967</ele>
        <time>2022-12-25T13:40:12.366Z</time>
      </trkpt>
      <trkpt lat="44.64322" lon="-1.11395">
        <ele>49.611516</ele>
        <time>2022-12-25T13:40:15.382Z</time>
      </trkpt>
      <trkpt lat="44.64332" lon="-1.11393">
        <ele>49.575148</ele>
        <time>2022-12-25T13:40:19.375Z</time>
      </trkpt>
      <trkpt lat="44.64343" lon="-1.11388">
        <ele>49.536663</ele>
        <time>2022-12-25T13:40:23.372Z</time>
      </trkpt>
      <trkpt lat="44.64351" lon="-1.11381">
        <ele>49.503402</ele>
        <time>2022-12-25T13:40:27.363Z</time>
      </trkpt>
      <trkpt lat="44.64354" lon="-1.11366">
        <ele>49.465335</ele>
        <time>2022-12-25T13:40:32.371Z</time>
      </trkpt>
      <trkpt lat="44.64356" lon="-1.11351">
        <ele>49.397757</ele>
        <time>2022-12-25T13:40:36.369Z</time>
      </trkpt>
      <trkpt lat="44.64357" lon="-1.11337">
        <ele>49.323486</ele>
        <time>2022-12-25T13:40:39.371Z</time>
      </trkpt>
      <trkpt lat="44.64361" lon="-1.11322">
        <ele>49.247547</ele>
        <time>2022-12-25T13:40:42.365Z</time>
      </trkpt>
      <trkpt lat="44.64365" lon="-1.11311">
        <ele>49.179017</ele>
        <time>2022-12-25T13:40:45.366Z</time>
      </trkpt>
      <trkpt lat="44.64372" lon="-1.11302">
        <ele>49.112846</ele>
        <time>2022-12-25T13:40:48.389Z</time>
      </trkpt>
      <trkpt lat="44.64381" lon="-1.1129">
        <ele>49.026876</ele>
        <time>2022-12-25T13:40:52.368Z</time>
      </trkpt>
      <trkpt lat="44.64387" lon="-1.11281">
        <ele>48.962086</ele>
        <time>2022-12-25T13:40:55.371Z</time>
      </trkpt>
      <trkpt lat="44.64392" lon="-1.11268">
        <ele>48.88924</ele>
        <time>2022-12-25T13:41:07.363Z</time>
      </trkpt>
      <trkpt lat="44.6439" lon="-1.11253">
        <ele>48.811581</ele>
        <time>2022-12-25T13:41:12.384Z</time>
      </trkpt>
      <trkpt lat="44.64387" lon="-1.11238">
        <ele>48.729013</ele>
        <time>2022-12-25T13:41:16.372Z</time>
      </trkpt>
      <trkpt lat="44.64386" lon="-1.11224">
        <ele>48.658488</ele>
        <time>2022-12-25T13:41:19.375Z</time>
      </trkpt>
      <trkpt lat="44.64384" lon="-1.11211">
        <ele>48.59384</ele>
        <time>2022-12-25T13:41:22.365Z</time>
      </trkpt>
      <trkpt lat="44.64383" lon="-1.11196">
        <ele>48.517428</ele>
        <time>2022-12-25T13:41:26.377Z</time>
      </trkpt>
      <trkpt lat="44.64382" lon="-1.11181">
        <ele>48.439441</ele>
        <time>2022-12-25T13:41:30.374Z</time>
      </trkpt>
      <trkpt lat="44.64381" lon="-1.11164">
        <ele>48.353232</ele>
        <time>2022-12-25T13:41:34.370Z</time>
      </trkpt>
      <trkpt lat="44.64381" lon="-1.11151">
        <ele>48.288194</ele>
        <time>2022-12-25T13:41:37.371Z</time>
      </trkpt>
      <trkpt lat="44.64381" lon="-1.11136">
        <ele>48.209912</ele>
        <time>2022-12-25T13:41:41.377Z</time>
      </trkpt>
      <trkpt lat="44.64381" lon="-1.11122">
        <ele>48.139291</ele>
        <time>2022-12-25T13:41:45.387Z</time>
      </trkpt>
      <trkpt lat="44.64383" lon="-1.11108">
        <ele>48.065906</ele>
        <time>2022-12-25T13:41:50.373Z</time>
      </trkpt>
      <trkpt lat="44.64381" lon="-1.11095">
        <ele>48.001099</ele>
        <time>2022-12-25T13:41:55.373Z</time>
      </trkpt>
      <trkpt lat="44.64389" lon="-1.11089">
        <ele>47.936339</ele>
        <time>2022-12-25T13:42:12.381Z</time>
      </trkpt>
      <trkpt lat="44.6439" lon="-1.11102">
        <ele>47.869893</ele>
        <time>2022-12-25T13:42:38.379Z</time>
      </trkpt>
      <trkpt lat="44.64386" lon="-1.11114">
        <ele>47.806362</ele>
        <time>2022-12-25T13:42:41.395Z</time>
      </trkpt>
      <trkpt lat="44.64383" lon="-1.11128">
        <ele>47.728313</ele>
        <time>2022-12-25T13:42:44.371Z</time>
      </trkpt>
      <trkpt lat="44.64381" lon="-1.11143">
        <ele>47.652415</ele>
        <time>2022-12-25T13:42:47.369Z</time>
      </trkpt>
      <trkpt lat="44.64381" lon="-1.11157">
        <ele>47.58434</ele>
        <time>2022-12-25T13:42:50.381Z</time>
      </trkpt>
      <trkpt lat="44.64381" lon="-1.11173">
        <ele>47.503202</ele>
        <time>2022-12-25T13:42:54.378Z</time>
      </trkpt>
      <trkpt lat="44.64383" lon="-1.11187">
        <ele>47.429659</ele>
        <time>2022-12-25T13:42:58.363Z</time>
      </trkpt>
      <trkpt lat="44.64385" lon="-1.112">
        <ele>47.366086</ele>
        <time>2022-12-25T13:43:01.363Z</time>
      </trkpt>
      <trkpt lat="44.64385" lon="-1.11214">
        <ele>47.296477</ele>
        <time>2022-12-25T13:43:04.371Z</time>
      </trkpt>
      <trkpt lat="44.64386" lon="-1.11228">
        <ele>47.226613</ele>
        <time>2022-12-25T13:43:07.362Z</time>
      </trkpt>
      <trkpt lat="44.64387" lon="-1.11241">
        <ele>47.161163</ele>
        <time>2022-12-25T13:43:10.370Z</time>
      </trkpt>
      <trkpt lat="44.64389" lon="-1.11257">
        <ele>47.080968</ele>
        <time>2022-12-25T13:43:14.368Z</time>
      </trkpt>
      <trkpt lat="44.64388" lon="-1.11273">
        <ele>46.997329</ele>
        <time>2022-12-25T13:43:18.375Z</time>
      </trkpt>
      <trkpt lat="44.64384" lon="-1.11289">
        <ele>46.913796</ele>
        <time>2022-12-25T13:43:22.374Z</time>
      </trkpt>
      <trkpt lat="44.64376" lon="-1.113">
        <ele>46.921846</ele>
        <time>2022-12-25T13:43:26.373Z</time>
      </trkpt>
      <trkpt lat="44.64368" lon="-1.11311">
        <ele>46.936841</ele>
        <time>2022-12-25T13:43:30.366Z</time>
      </trkpt>
      <trkpt lat="44.64362" lon="-1.11321">
        <ele>46.949726</ele>
        <time>2022-12-25T13:43:33.373Z</time>
      </trkpt>
      <trkpt lat="44.64357" lon="-1.11333">
        <ele>46.963727</ele>
        <time>2022-12-25T13:43:36.363Z</time>
      </trkpt>
      <trkpt lat="44.64355" lon="-1.11347">
        <ele>46.978017</ele>
        <time>2022-12-25T13:43:39.374Z</time>
      </trkpt>
      <trkpt lat="44.64354" lon="-1.1136">
        <ele>46.990818</ele>
        <time>2022-12-25T13:43:42.363Z</time>
      </trkpt>
      <trkpt lat="44.64353" lon="-1.11373">
        <ele>47.003388</ele>
        <time>2022-12-25T13:43:46.365Z</time>
      </trkpt>
      <trkpt lat="44.64356" lon="-1.11386">
        <ele>47.016901</ele>
        <time>2022-12-25T13:43:50.373Z</time>
      </trkpt>
      <trkpt lat="44.64365" lon="-1.1139">
        <ele>47.029812</ele>
        <time>2022-12-25T13:43:53.367Z</time>
      </trkpt>
      <trkpt lat="44.64374" lon="-1.11385">
        <ele>47.042691</ele>
        <time>2022-12-25T13:43:56.365Z</time>
      </trkpt>
      <trkpt lat="44.64384" lon="-1.11381">
        <ele>47.056677</ele>
        <time>2022-12-25T13:43:59.370Z</time>
      </trkpt>
      <trkpt lat="44.64395" lon="-1.11377">
        <ele>47.072072</ele>
        <time>2022-12-25T13:44:02.366Z</time>
      </trkpt>
      <trkpt lat="44.64405" lon="-1.11374">
        <ele>47.087377</ele>
        <time>2022-12-25T13:44:05.386Z</time>
      </trkpt>
      <trkpt lat="44.64417" lon="-1.1137">
        <ele>47.103153</ele>
        <time>2022-12-25T13:44:08.387Z</time>
      </trkpt>
      <trkpt lat="44.64429" lon="-1.11366">
        <ele>47.121115</ele>
        <time>2022-12-25T13:44:11.364Z</time>
      </trkpt>
      <trkpt lat="44.64442" lon="-1.11364">
        <ele>47.139195</ele>
        <time>2022-12-25T13:44:14.374Z</time>
      </trkpt>
      <trkpt lat="44.64455" lon="-1.11363">
        <ele>47.159415</ele>
        <time>2022-12-25T13:44:17.364Z</time>
      </trkpt>
      <trkpt lat="44.64465" lon="-1.11362">
        <ele>47.288229</ele>
        <time>2022-12-25T13:44:20.378Z</time>
      </trkpt>
      <trkpt lat="44.64476" lon="-1.11361">
        <ele>47.410238</ele>
        <time>2022-12-25T13:44:23.370Z</time>
      </trkpt>
      <trkpt lat="44.64485" lon="-1.11359">
        <ele>47.522292</ele>
        <time>2022-12-25T13:44:26.367Z</time>
      </trkpt>
      <trkpt lat="44.64497" lon="-1.11359">
        <ele>47.658166</ele>
        <time>2022-12-25T13:44:30.387Z</time>
      </trkpt>
      <trkpt lat="44.64504" lon="-1.11366">
        <ele>47.768387</ele>
        <time>2022-12-25T13:44:34.366Z</time>
      </trkpt>
      <trkpt lat="44.64507" lon="-1.11377">
        <ele>47.864254</ele>
        <time>2022-12-25T13:45:40.300Z</time>
      </trkpt>
      <trkpt lat="44.645" lon="-1.11368">
        <ele>47.979498</ele>
        <time>2022-12-25T13:57:29.372Z</time>
      </trkpt>
      <trkpt lat="44.64493" lon="-1.1136">
        <ele>48.085685</ele>
        <time>2022-12-25T13:57:34.367Z</time>
      </trkpt>
      <trkpt lat="44.64482" lon="-1.11362">
        <ele>48.213413</ele>
        <time>2022-12-25T13:57:39.380Z</time>
      </trkpt>
      <trkpt lat="44.64472" lon="-1.11363">
        <ele>48.332783</ele>
        <time>2022-12-25T13:57:43.388Z</time>
      </trkpt>
      <trkpt lat="44.64461" lon="-1.11365">
        <ele>48.465073</ele>
        <time>2022-12-25T13:57:48.376Z</time>
      </trkpt>
      <trkpt lat="44.64451" lon="-1.11365">
        <ele>48.583236</ele>
        <time>2022-12-25T14:01:24.376Z</time>
      </trkpt>
      <trkpt lat="44.6444" lon="-1.11368">
        <ele>48.712808</ele>
        <time>2022-12-25T14:01:29.376Z</time>
      </trkpt>
      <trkpt lat="44.6443" lon="-1.11371">
        <ele>48.838887</ele>
        <time>2022-12-25T14:01:33.364Z</time>
      </trkpt>
      <trkpt lat="44.64418" lon="-1.11372">
        <ele>48.975559</ele>
        <time>2022-12-25T14:01:37.362Z</time>
      </trkpt>
      <trkpt lat="44.64407" lon="-1.11375">
        <ele>49.111591</ele>
        <time>2022-12-25T14:01:41.368Z</time>
      </trkpt>
      <trkpt lat="44.64397" lon="-1.11377">
        <ele>49.230548</ele>
        <time>2022-12-25T14:01:44.370Z</time>
      </trkpt>
      <trkpt lat="44.64388" lon="-1.11381">
        <ele>49.250401</ele>
        <time>2022-12-25T14:01:47.361Z</time>
      </trkpt>
      <trkpt lat="44.64379" lon="-1.11385">
        <ele>49.193945</ele>
        <time>2022-12-25T14:01:50.371Z</time>
      </trkpt>
      <trkpt lat="44.6437" lon="-1.11389">
        <ele>49.138231</ele>
        <time>2022-12-25T14:01:53.371Z</time>
      </trkpt>
      <trkpt lat="44.64361" lon="-1.11392">
        <ele>49.08503</ele>
        <time>2022-12-25T14:01:56.366Z</time>
      </trkpt>
      <trkpt lat="44.64352" lon="-1.11394">
        <ele>49.030131</ele>
        <time>2022-12-25T14:01:59.359Z</time>
      </trkpt>
      <trkpt lat="44.64341" lon="-1.11397">
        <ele>48.962344</ele>
        <time>2022-12-25T14:02:03.364Z</time>
      </trkpt>
      <trkpt lat="44.64331" lon="-1.11399">
        <ele>48.905482</ele>
        <time>2022-12-25T14:02:06.361Z</time>
      </trkpt>
      <trkpt lat="44.64322" lon="-1.11401">
        <ele>48.851784</ele>
        <time>2022-12-25T14:02:09.366Z</time>
      </trkpt>
      <trkpt lat="44.64312" lon="-1.11399">
        <ele>48.790901</ele>
        <time>2022-12-25T14:02:12.366Z</time>
      </trkpt>
      <trkpt lat="44.64301" lon="-1.11396">
        <ele>48.7295</ele>
        <time>2022-12-25T14:02:15.372Z</time>
      </trkpt>
      <trkpt lat="44.64291" lon="-1.11393">
        <ele>48.669246</ele>
        <time>2022-12-25T14:02:18.365Z</time>
      </trkpt>
      <trkpt lat="44.64281" lon="-1.11391">
        <ele>48.605828</ele>
        <time>2022-12-25T14:02:21.373Z</time>
      </trkpt>
      <trkpt lat="44.64269" lon="-1.11388">
        <ele>48.53578</ele>
        <time>2022-12-25T14:02:24.368Z</time>
      </trkpt>
      <trkpt lat="44.64257" lon="-1.11389">
        <ele>48.465234</ele>
        <time>2022-12-25T14:02:27.365Z</time>
      </trkpt>
      <trkpt lat="44.64245" lon="-1.11389">
        <ele>48.39414</ele>
        <time>2022-12-25T14:02:30.377Z</time>
      </trkpt>
      <trkpt lat="44.64234" lon="-1.11387">
        <ele>48.328148</ele>
        <time>2022-12-25T14:02:33.372Z</time>
      </trkpt>
      <trkpt lat="44.64222" lon="-1.11387">
        <ele>48.258816</ele>
        <time>2022-12-25T14:02:36.370Z</time>
      </trkpt>
      <trkpt lat="44.64211" lon="-1.11387">
        <ele>48.237839</ele>
        <time>2022-12-25T14:02:39.372Z</time>
      </trkpt>
      <trkpt lat="44.642" lon="-1.11387">
        <ele>48.266765</ele>
        <time>2022-12-25T14:02:42.375Z</time>
      </trkpt>
      <trkpt lat="44.64191" lon="-1.11386">
        <ele>48.294079</ele>
        <time>2022-12-25T14:02:45.365Z</time>
      </trkpt>
      <trkpt lat="44.6418" lon="-1.11386">
        <ele>48.324409</ele>
        <time>2022-12-25T14:02:48.362Z</time>
      </trkpt>
      <trkpt lat="44.64169" lon="-1.11385">
        <ele>48.356184</ele>
        <time>2022-12-25T14:02:51.364Z</time>
      </trkpt>
      <trkpt lat="44.64158" lon="-1.11385">
        <ele>48.385135</ele>
        <time>2022-12-25T14:02:54.369Z</time>
      </trkpt>
      <trkpt lat="44.64148" lon="-1.11385">
        <ele>48.412658</ele>
        <time>2022-12-25T14:02:57.371Z</time>
      </trkpt>
      <trkpt lat="44.64138" lon="-1.11384">
        <ele>48.441889</ele>
        <time>2022-12-25T14:03:00.371Z</time>
      </trkpt>
      <trkpt lat="44.64128" lon="-1.11384">
        <ele>48.471394</ele>
        <time>2022-12-25T14:03:03.367Z</time>
      </trkpt>
      <trkpt lat="44.64116" lon="-1.11382">
        <ele>48.50273</ele>
        <time>2022-12-25T14:03:06.380Z</time>
      </trkpt>
      <trkpt lat="44.64106" lon="-1.11381">
        <ele>48.533126</ele>
        <time>2022-12-25T14:03:09.377Z</time>
      </trkpt>
      <trkpt lat="44.64094" lon="-1.11379">
        <ele>48.565321</ele>
        <time>2022-12-25T14:03:12.368Z</time>
      </trkpt>
      <trkpt lat="44.64083" lon="-1.11378">
        <ele>48.596378</ele>
        <time>2022-12-25T14:03:15.372Z</time>
      </trkpt>
      <trkpt lat="44.64072" lon="-1.11377">
        <ele>48.627908</ele>
        <time>2022-12-25T14:03:18.368Z</time>
      </trkpt>
      <trkpt lat="44.64062" lon="-1.11374">
        <ele>48.657885</ele>
        <time>2022-12-25T14:03:21.375Z</time>
      </trkpt>
      <trkpt lat="44.64052" lon="-1.11371">
        <ele>48.684682</ele>
        <time>2022-12-25T14:03:25.369Z</time>
      </trkpt>
      <trkpt lat="44.64044" lon="-1.11377">
        <ele>48.71029</ele>
        <time>2022-12-25T14:03:31.363Z</time>
      </trkpt>
      <trkpt lat="44.64041" lon="-1.11393">
        <ele>48.745117</ele>
        <time>2022-12-25T14:03:35.366Z</time>
      </trkpt>
      <trkpt lat="44.64037" lon="-1.11405">
        <ele>48.776916</ele>
        <time>2022-12-25T14:03:38.369Z</time>
      </trkpt>
      <trkpt lat="44.64034" lon="-1.11419">
        <ele>48.810264</ele>
        <time>2022-12-25T14:03:41.369Z</time>
      </trkpt>
      <trkpt lat="44.64031" lon="-1.11432">
        <ele>48.843264</ele>
        <time>2022-12-25T14:03:44.364Z</time>
      </trkpt>
      <trkpt lat="44.64028" lon="-1.11448">
        <ele>48.880207</ele>
        <time>2022-12-25T14:03:48.363Z</time>
      </trkpt>
      <trkpt lat="44.64025" lon="-1.1146">
        <ele>48.909852</ele>
        <time>2022-12-25T14:03:51.372Z</time>
      </trkpt>
      <trkpt lat="44.64023" lon="-1.11473">
        <ele>48.941604</ele>
        <time>2022-12-25T14:03:54.368Z</time>
      </trkpt>
      <trkpt lat="44.64021" lon="-1.11486">
        <ele>48.973546</ele>
        <time>2022-12-25T14:03:57.370Z</time>
      </trkpt>
      <trkpt lat="44.64017" lon="-1.115">
        <ele>49.007215</ele>
        <time>2022-12-25T14:04:00.367Z</time>
      </trkpt>
      <trkpt lat="44.64014" lon="-1.11515">
        <ele>49.044397</ele>
        <time>2022-12-25T14:04:04.365Z</time>
      </trkpt>
      <trkpt lat="44.64006" lon="-1.11525">
        <ele>49.079115</ele>
        <time>2022-12-25T14:04:09.364Z</time>
      </trkpt>
      <trkpt lat="44.64001" lon="-1.11539">
        <ele>49.114657</ele>
        <time>2022-12-25T14:04:14.371Z</time>
      </trkpt>
      <trkpt lat="44.63996" lon="-1.11551">
        <ele>49.146655</ele>
        <time>2022-12-25T14:04:19.389Z</time>
      </trkpt>
      <trkpt lat="44.63986" lon="-1.11557">
        <ele>49.182524</ele>
        <time>2022-12-25T14:04:24.384Z</time>
      </trkpt>
      <trkpt lat="44.63982" lon="-1.1157">
        <ele>49.215887</ele>
        <time>2022-12-25T14:04:27.377Z</time>
      </trkpt>
      <trkpt lat="44.63979" lon="-1.11583">
        <ele>49.249433</ele>
        <time>2022-12-25T14:04:30.369Z</time>
      </trkpt>
      <trkpt lat="44.63975" lon="-1.11595">
        <ele>49.280001</ele>
        <time>2022-12-25T14:04:33.371Z</time>
      </trkpt>
      <trkpt lat="44.63971" lon="-1.11608">
        <ele>49.312877</ele>
        <time>2022-12-25T14:04:37.368Z</time>
      </trkpt>
      <trkpt lat="44.63964" lon="-1.11619">
        <ele>49.305625</ele>
        <time>2022-12-25T14:04:42.377Z</time>
      </trkpt>
      <trkpt lat="44.63957" lon="-1.11609">
        <ele>49.288477</ele>
        <time>2022-12-25T14:04:46.373Z</time>
      </trkpt>
      <trkpt lat="44.63949" lon="-1.11606">
        <ele>49.272451</ele>
        <time>2022-12-25T14:04:51.363Z</time>
      </trkpt>
      <trkpt lat="44.63949" lon="-1.11619">
        <ele>49.255735</ele>
        <time>2022-12-25T14:04:55.374Z</time>
      </trkpt>
      <trkpt lat="44.63955" lon="-1.11633">
        <ele>49.234994</ele>
        <time>2022-12-25T14:04:59.368Z</time>
      </trkpt>
      <trkpt lat="44.63959" lon="-1.11645">
        <ele>49.218297</ele>
        <time>2022-12-25T14:05:02.365Z</time>
      </trkpt>
      <trkpt lat="44.63963" lon="-1.11657">
        <ele>49.201359</ele>
        <time>2022-12-25T14:05:05.364Z</time>
      </trkpt>
      <trkpt lat="44.63968" lon="-1.11671">
        <ele>49.182213</ele>
        <time>2022-12-25T14:05:08.365Z</time>
      </trkpt>
      <trkpt lat="44.63972" lon="-1.11686">
        <ele>49.162328</ele>
        <time>2022-12-25T14:05:11.364Z</time>
      </trkpt>
      <trkpt lat="44.63973" lon="-1.11701">
        <ele>49.142033</ele>
        <time>2022-12-25T14:05:15.363Z</time>
      </trkpt>
      <trkpt lat="44.63973" lon="-1.11717">
        <ele>49.122045</ele>
        <time>2022-12-25T14:05:18.363Z</time>
      </trkpt>
      <trkpt lat="44.6397" lon="-1.11735">
        <ele>49.099128</ele>
        <time>2022-12-25T14:05:21.367Z</time>
      </trkpt>
      <trkpt lat="44.63968" lon="-1.11748">
        <ele>49.081818</ele>
        <time>2022-12-25T14:05:23.368Z</time>
      </trkpt>
      <trkpt lat="44.63965" lon="-1.11761">
        <ele>49.064894</ele>
        <time>2022-12-25T14:05:25.365Z</time>
      </trkpt>
      <trkpt lat="44.63962" lon="-1.11774">
        <ele>49.048045</ele>
        <time>2022-12-25T14:05:27.369Z</time>
      </trkpt>
      <trkpt lat="44.63959" lon="-1.11787">
        <ele>49.030781</ele>
        <time>2022-12-25T14:05:29.367Z</time>
      </trkpt>
      <trkpt lat="44.63956" lon="-1.11799">
        <ele>49.014513</ele>
        <time>2022-12-25T14:05:31.361Z</time>
      </trkpt>
      <trkpt lat="44.63953" lon="-1.11812">
        <ele>49.019412</ele>
        <time>2022-12-25T14:05:33.366Z</time>
      </trkpt>
      <trkpt lat="44.63951" lon="-1.11825">
        <ele>49.090787</ele>
        <time>2022-12-25T14:05:35.368Z</time>
      </trkpt>
      <trkpt lat="44.63949" lon="-1.11837">
        <ele>49.162511</ele>
        <time>2022-12-25T14:05:37.363Z</time>
      </trkpt>
      <trkpt lat="44.63946" lon="-1.11855">
        <ele>49.26555</ele>
        <time>2022-12-25T14:05:40.365Z</time>
      </trkpt>
      <trkpt lat="44.63943" lon="-1.11868">
        <ele>49.342959</ele>
        <time>2022-12-25T14:05:42.371Z</time>
      </trkpt>
      <trkpt lat="44.6394" lon="-1.11881">
        <ele>49.417043</ele>
        <time>2022-12-25T14:05:44.371Z</time>
      </trkpt>
      <trkpt lat="44.63938" lon="-1.11893">
        <ele>49.489595</ele>
        <time>2022-12-25T14:05:46.372Z</time>
      </trkpt>
      <trkpt lat="44.63935" lon="-1.11906">
        <ele>49.564523</ele>
        <time>2022-12-25T14:05:48.385Z</time>
      </trkpt>
      <trkpt lat="44.63933" lon="-1.11918">
        <ele>49.635158</ele>
        <time>2022-12-25T14:05:50.364Z</time>
      </trkpt>
      <trkpt lat="44.63929" lon="-1.11934">
        <ele>49.72964</ele>
        <time>2022-12-25T14:05:53.364Z</time>
      </trkpt>
      <trkpt lat="44.63926" lon="-1.11949">
        <ele>49.817702</ele>
        <time>2022-12-25T14:05:56.370Z</time>
      </trkpt>
      <trkpt lat="44.63923" lon="-1.11962">
        <ele>49.894571</ele>
        <time>2022-12-25T14:05:59.361Z</time>
      </trkpt>
      <trkpt lat="44.6392" lon="-1.11978">
        <ele>49.985603</ele>
        <time>2022-12-25T14:06:02.367Z</time>
      </trkpt>
      <trkpt lat="44.63916" lon="-1.11996">
        <ele>50.092451</ele>
        <time>2022-12-25T14:06:05.363Z</time>
      </trkpt>
      <trkpt lat="44.63913" lon="-1.12008">
        <ele>50.163862</ele>
        <time>2022-12-25T14:06:07.363Z</time>
      </trkpt>
      <trkpt lat="44.6391" lon="-1.1202">
        <ele>50.235272</ele>
        <time>2022-12-25T14:06:09.367Z</time>
      </trkpt>
      <trkpt lat="44.63905" lon="-1.12038">
        <ele>50.340819</ele>
        <time>2022-12-25T14:06:12.367Z</time>
      </trkpt>
      <trkpt lat="44.63901" lon="-1.12053">
        <ele>50.416063</ele>
        <time>2022-12-25T14:06:15.372Z</time>
      </trkpt>
      <trkpt lat="44.63896" lon="-1.12067">
        <ele>50.38808</ele>
        <time>2022-12-25T14:06:18.368Z</time>
      </trkpt>
      <trkpt lat="44.63892" lon="-1.12083">
        <ele>50.359472</ele>
        <time>2022-12-25T14:06:21.369Z</time>
      </trkpt>
      <trkpt lat="44.63887" lon="-1.12098">
        <ele>50.330427</ele>
        <time>2022-12-25T14:06:24.365Z</time>
      </trkpt>
      <trkpt lat="44.63882" lon="-1.12114">
        <ele>50.299791</ele>
        <time>2022-12-25T14:06:27.380Z</time>
      </trkpt>
      <trkpt lat="44.63877" lon="-1.12131">
        <ele>50.268491</ele>
        <time>2022-12-25T14:06:30.378Z</time>
      </trkpt>
      <trkpt lat="44.63874" lon="-1.12148">
        <ele>50.238187</ele>
        <time>2022-12-25T14:06:33.374Z</time>
      </trkpt>
      <trkpt lat="44.63871" lon="-1.12165">
        <ele>50.208381</ele>
        <time>2022-12-25T14:06:36.366Z</time>
      </trkpt>
      <trkpt lat="44.63864" lon="-1.1218">
        <ele>50.177889</ele>
        <time>2022-12-25T14:06:39.363Z</time>
      </trkpt>
      <trkpt lat="44.63857" lon="-1.12194">
        <ele>50.148079</ele>
        <time>2022-12-25T14:06:42.363Z</time>
      </trkpt>
      <trkpt lat="44.63851" lon="-1.1221">
        <ele>50.11646</ele>
        <time>2022-12-25T14:06:45.382Z</time>
      </trkpt>
      <trkpt lat="44.63847" lon="-1.12222">
        <ele>50.094644</ele>
        <time>2022-12-25T14:06:47.371Z</time>
      </trkpt>
      <trkpt lat="44.63843" lon="-1.12233">
        <ele>50.072053</ele>
        <time>2022-12-25T14:06:49.369Z</time>
      </trkpt>
      <trkpt lat="44.63839" lon="-1.12245">
        <ele>50.050139</ele>
        <time>2022-12-25T14:06:51.363Z</time>
      </trkpt>
      <trkpt lat="44.63835" lon="-1.12262">
        <ele>50.01804</ele>
        <time>2022-12-25T14:06:54.367Z</time>
      </trkpt>
      <trkpt lat="44.63831" lon="-1.12274">
        <ele>49.995398</ele>
        <time>2022-12-25T14:06:56.363Z</time>
      </trkpt>
      <trkpt lat="44.63827" lon="-1.12286">
        <ele>49.964052</ele>
        <time>2022-12-25T14:06:58.365Z</time>
      </trkpt>
      <trkpt lat="44.63824" lon="-1.12298">
        <ele>49.923953</ele>
        <time>2022-12-25T14:07:00.367Z</time>
      </trkpt>
      <trkpt lat="44.6382" lon="-1.1231">
        <ele>49.881709</ele>
        <time>2022-12-25T14:07:02.361Z</time>
      </trkpt>
      <trkpt lat="44.63817" lon="-1.12324">
        <ele>49.837196</ele>
        <time>2022-12-25T14:07:04.368Z</time>
      </trkpt>
      <trkpt lat="44.63813" lon="-1.12336">
        <ele>49.795892</ele>
        <time>2022-12-25T14:07:06.366Z</time>
      </trkpt>
      <trkpt lat="44.63808" lon="-1.12347">
        <ele>49.755801</ele>
        <time>2022-12-25T14:07:08.380Z</time>
      </trkpt>
      <trkpt lat="44.63805" lon="-1.1236">
        <ele>49.714835</ele>
        <time>2022-12-25T14:07:10.374Z</time>
      </trkpt>
      <trkpt lat="44.63801" lon="-1.12371">
        <ele>49.674065</ele>
        <time>2022-12-25T14:07:12.368Z</time>
      </trkpt>
      <trkpt lat="44.63795" lon="-1.12389">
        <ele>49.614359</ele>
        <time>2022-12-25T14:07:15.366Z</time>
      </trkpt>
      <trkpt lat="44.63791" lon="-1.12401">
        <ele>49.571922</ele>
        <time>2022-12-25T14:07:17.364Z</time>
      </trkpt>
      <trkpt lat="44.63787" lon="-1.12414">
        <ele>49.528731</ele>
        <time>2022-12-25T14:07:19.364Z</time>
      </trkpt>
      <trkpt lat="44.63783" lon="-1.12426">
        <ele>49.486578</ele>
        <time>2022-12-25T14:07:21.378Z</time>
      </trkpt>
      <trkpt lat="44.6378" lon="-1.12438">
        <ele>49.44673</ele>
        <time>2022-12-25T14:07:23.371Z</time>
      </trkpt>
      <trkpt lat="44.63776" lon="-1.1245">
        <ele>49.407106</ele>
        <time>2022-12-25T14:07:25.366Z</time>
      </trkpt>
      <trkpt lat="44.6377" lon="-1.12466">
        <ele>49.349904</ele>
        <time>2022-12-25T14:07:28.364Z</time>
      </trkpt>
      <trkpt lat="44.63765" lon="-1.12481">
        <ele>49.296195</ele>
        <time>2022-12-25T14:07:31.364Z</time>
      </trkpt>
      <trkpt lat="44.63761" lon="-1.12497">
        <ele>49.246362</ele>
        <time>2022-12-25T14:07:34.361Z</time>
      </trkpt>
      <trkpt lat="44.63757" lon="-1.1251">
        <ele>49.199707</ele>
        <time>2022-12-25T14:07:37.363Z</time>
      </trkpt>
      <trkpt lat="44.6375" lon="-1.1252">
        <ele>49.087541</ele>
        <time>2022-12-25T14:07:40.367Z</time>
      </trkpt>
      <trkpt lat="44.63743" lon="-1.12529">
        <ele>48.972121</ele>
        <time>2022-12-25T14:07:43.368Z</time>
      </trkpt>
      <trkpt lat="44.63739" lon="-1.12541">
        <ele>48.859041</ele>
        <time>2022-12-25T14:07:46.364Z</time>
      </trkpt>
      <trkpt lat="44.63735" lon="-1.12555">
        <ele>48.726117</ele>
        <time>2022-12-25T14:07:49.364Z</time>
      </trkpt>
      <trkpt lat="44.63732" lon="-1.12571">
        <ele>48.584775</ele>
        <time>2022-12-25T14:07:52.362Z</time>
      </trkpt>
      <trkpt lat="44.63729" lon="-1.12586">
        <ele>48.450818</ele>
        <time>2022-12-25T14:07:55.367Z</time>
      </trkpt>
      <trkpt lat="44.63727" lon="-1.12602">
        <ele>48.313956</ele>
        <time>2022-12-25T14:07:58.368Z</time>
      </trkpt>
      <trkpt lat="44.63726" lon="-1.12617">
        <ele>48.177481</ele>
        <time>2022-12-25T14:08:01.364Z</time>
      </trkpt>
      <trkpt lat="44.63725" lon="-1.12634">
        <ele>48.033501</ele>
        <time>2022-12-25T14:08:04.375Z</time>
      </trkpt>
      <trkpt lat="44.63724" lon="-1.12651">
        <ele>47.883622</ele>
        <time>2022-12-25T14:08:07.367Z</time>
      </trkpt>
      <trkpt lat="44.63723" lon="-1.12668">
        <ele>47.737181</ele>
        <time>2022-12-25T14:08:10.366Z</time>
      </trkpt>
      <trkpt lat="44.63722" lon="-1.12686">
        <ele>47.582245</ele>
        <time>2022-12-25T14:08:13.365Z</time>
      </trkpt>
      <trkpt lat="44.6372" lon="-1.12703">
        <ele>47.432989</ele>
        <time>2022-12-25T14:08:16.366Z</time>
      </trkpt>
      <trkpt lat="44.63719" lon="-1.12721">
        <ele>47.279003</ele>
        <time>2022-12-25T14:08:19.366Z</time>
      </trkpt>
      <trkpt lat="44.63718" lon="-1.12739">
        <ele>47.123475</ele>
        <time>2022-12-25T14:08:22.367Z</time>
      </trkpt>
      <trkpt lat="44.63717" lon="-1.12757">
        <ele>47.026602</ele>
        <time>2022-12-25T14:08:25.362Z</time>
      </trkpt>
      <trkpt lat="44.63716" lon="-1.12772">
        <ele>47.062696</ele>
        <time>2022-12-25T14:08:28.361Z</time>
      </trkpt>
      <trkpt lat="44.63715" lon="-1.12785">
        <ele>47.093212</ele>
        <time>2022-12-25T14:08:31.364Z</time>
      </trkpt>
      <trkpt lat="44.63714" lon="-1.12798">
        <ele>47.124899</ele>
        <time>2022-12-25T14:08:34.363Z</time>
      </trkpt>
      <trkpt lat="44.63714" lon="-1.12813">
        <ele>47.159328</ele>
        <time>2022-12-25T14:08:37.365Z</time>
      </trkpt>
      <trkpt lat="44.63713" lon="-1.12828">
        <ele>47.195372</ele>
        <time>2022-12-25T14:08:40.365Z</time>
      </trkpt>
      <trkpt lat="44.63713" lon="-1.12844">
        <ele>47.232104</ele>
        <time>2022-12-25T14:08:43.378Z</time>
      </trkpt>
      <trkpt lat="44.63712" lon="-1.12859">
        <ele>47.268848</ele>
        <time>2022-12-25T14:08:46.365Z</time>
      </trkpt>
      <trkpt lat="44.63705" lon="-1.12872">
        <ele>47.307228</ele>
        <time>2022-12-25T14:08:50.365Z</time>
      </trkpt>
      <trkpt lat="44.63698" lon="-1.12883">
        <ele>47.341856</ele>
        <time>2022-12-25T14:08:54.362Z</time>
      </trkpt>
      <trkpt lat="44.637" lon="-1.12898">
        <ele>47.375524</ele>
        <time>2022-12-25T14:08:59.365Z</time>
      </trkpt>
      <trkpt lat="44.63706" lon="-1.12909">
        <ele>47.409296</ele>
        <time>2022-12-25T14:09:03.374Z</time>
      </trkpt>
      <trkpt lat="44.63705" lon="-1.12923">
        <ele>47.44132</ele>
        <time>2022-12-25T14:09:06.364Z</time>
      </trkpt>
      <trkpt lat="44.63705" lon="-1.12938">
        <ele>47.475934</ele>
        <time>2022-12-25T14:09:09.363Z</time>
      </trkpt>
      <trkpt lat="44.63703" lon="-1.12954">
        <ele>47.5145</ele>
        <time>2022-12-25T14:09:12.366Z</time>
      </trkpt>
      <trkpt lat="44.637" lon="-1.12969">
        <ele>47.550164</ele>
        <time>2022-12-25T14:09:15.375Z</time>
      </trkpt>
      <trkpt lat="44.63698" lon="-1.12982">
        <ele>47.583837</ele>
        <time>2022-12-25T14:09:18.361Z</time>
      </trkpt>
      <trkpt lat="44.63695" lon="-1.12997">
        <ele>47.601215</ele>
        <time>2022-12-25T14:09:22.363Z</time>
      </trkpt>
      <trkpt lat="44.63692" lon="-1.1301">
        <ele>47.572544</ele>
        <time>2022-12-25T14:09:27.368Z</time>
      </trkpt>
      <trkpt lat="44.63686" lon="-1.13036">
        <ele>47.515933</ele>
        <time>2022-12-25T14:10:37.387Z</time>
      </trkpt>
      <trkpt lat="44.63682" lon="-1.13051">
        <ele>47.483232</ele>
        <time>2022-12-25T14:10:41.362Z</time>
      </trkpt>
      <trkpt lat="44.63678" lon="-1.13063">
        <ele>47.455224</ele>
        <time>2022-12-25T14:10:45.379Z</time>
      </trkpt>
      <trkpt lat="44.63672" lon="-1.13077">
        <ele>47.420278</ele>
        <time>2022-12-25T14:10:49.366Z</time>
      </trkpt>
      <trkpt lat="44.6367" lon="-1.13093">
        <ele>47.38596</ele>
        <time>2022-12-25T14:10:53.364Z</time>
      </trkpt>
      <trkpt lat="44.63667" lon="-1.13105">
        <ele>47.35928</ele>
        <time>2022-12-25T14:10:56.361Z</time>
      </trkpt>
      <trkpt lat="44.63663" lon="-1.13119">
        <ele>47.32913</ele>
        <time>2022-12-25T14:10:59.368Z</time>
      </trkpt>
      <trkpt lat="44.63657" lon="-1.13132">
        <ele>47.296351</ele>
        <time>2022-12-25T14:11:02.362Z</time>
      </trkpt>
      <trkpt lat="44.63651" lon="-1.13145">
        <ele>47.264502</ele>
        <time>2022-12-25T14:11:05.367Z</time>
      </trkpt>
      <trkpt lat="44.63644" lon="-1.13157">
        <ele>47.233</ele>
        <time>2022-12-25T14:11:08.365Z</time>
      </trkpt>
      <trkpt lat="44.6364" lon="-1.13168">
        <ele>47.206055</ele>
        <time>2022-12-25T14:11:11.363Z</time>
      </trkpt>
      <trkpt lat="44.63635" lon="-1.1318">
        <ele>47.17637</ele>
        <time>2022-12-25T14:11:14.366Z</time>
      </trkpt>
      <trkpt lat="44.63629" lon="-1.13194">
        <ele>47.143592</ele>
        <time>2022-12-25T14:11:17.362Z</time>
      </trkpt>
      <trkpt lat="44.63623" lon="-1.13206">
        <ele>47.111747</ele>
        <time>2022-12-25T14:11:20.363Z</time>
      </trkpt>
      <trkpt lat="44.63616" lon="-1.13218">
        <ele>47.083725</ele>
        <time>2022-12-25T14:11:23.382Z</time>
      </trkpt>
      <trkpt lat="44.6361" lon="-1.13231">
        <ele>47.115843</ele>
        <time>2022-12-25T14:11:26.370Z</time>
      </trkpt>
      <trkpt lat="44.63604" lon="-1.13244">
        <ele>47.150396</ele>
        <time>2022-12-25T14:11:29.374Z</time>
      </trkpt>
      <trkpt lat="44.63598" lon="-1.13257">
        <ele>47.18406</ele>
        <time>2022-12-25T14:11:32.372Z</time>
      </trkpt>
      <trkpt lat="44.63591" lon="-1.1327">
        <ele>47.217194</ele>
        <time>2022-12-25T14:11:35.368Z</time>
      </trkpt>
      <trkpt lat="44.63585" lon="-1.13283">
        <ele>47.250538</ele>
        <time>2022-12-25T14:11:38.364Z</time>
      </trkpt>
      <trkpt lat="44.6358" lon="-1.13297">
        <ele>47.284505</ele>
        <time>2022-12-25T14:11:41.375Z</time>
      </trkpt>
      <trkpt lat="44.63575" lon="-1.13311">
        <ele>47.318222</ele>
        <time>2022-12-25T14:11:44.363Z</time>
      </trkpt>
      <trkpt lat="44.63569" lon="-1.13325">
        <ele>47.352494</ele>
        <time>2022-12-25T14:11:47.371Z</time>
      </trkpt>
      <trkpt lat="44.63565" lon="-1.13339">
        <ele>47.385055</ele>
        <time>2022-12-25T14:11:50.366Z</time>
      </trkpt>
      <trkpt lat="44.63559" lon="-1.13353">
        <ele>47.420739</ele>
        <time>2022-12-25T14:11:53.366Z</time>
      </trkpt>
      <trkpt lat="44.63554" lon="-1.13368">
        <ele>47.455935</ele>
        <time>2022-12-25T14:11:56.371Z</time>
      </trkpt>
      <trkpt lat="44.63548" lon="-1.13383">
        <ele>47.49113</ele>
        <time>2022-12-25T14:11:59.364Z</time>
      </trkpt>
      <trkpt lat="44.63544" lon="-1.13397">
        <ele>47.525293</ele>
        <time>2022-12-25T14:12:02.367Z</time>
      </trkpt>
      <trkpt lat="44.63539" lon="-1.13412">
        <ele>47.559587</ele>
        <time>2022-12-25T14:12:05.365Z</time>
      </trkpt>
      <trkpt lat="44.63533" lon="-1.13423">
        <ele>47.589236</ele>
        <time>2022-12-25T14:12:08.372Z</time>
      </trkpt>
      <trkpt lat="44.63528" lon="-1.13436">
        <ele>47.62143</ele>
        <time>2022-12-25T14:12:11.374Z</time>
      </trkpt>
      <trkpt lat="44.63523" lon="-1.1345">
        <ele>47.71466</ele>
        <time>2022-12-25T14:12:14.365Z</time>
      </trkpt>
      <trkpt lat="44.63519" lon="-1.13465">
        <ele>47.811223</ele>
        <time>2022-12-25T14:12:17.367Z</time>
      </trkpt>
      <trkpt lat="44.63513" lon="-1.1348">
        <ele>47.91535</ele>
        <time>2022-12-25T14:12:20.367Z</time>
      </trkpt>
      <trkpt lat="44.63508" lon="-1.13495">
        <ele>48.017916</ele>
        <time>2022-12-25T14:12:23.363Z</time>
      </trkpt>
      <trkpt lat="44.63503" lon="-1.1351">
        <ele>48.119374</ele>
        <time>2022-12-25T14:12:26.381Z</time>
      </trkpt>
      <trkpt lat="44.63498" lon="-1.13523">
        <ele>48.207866</ele>
        <time>2022-12-25T14:12:29.377Z</time>
      </trkpt>
      <trkpt lat="44.63494" lon="-1.13535">
        <ele>48.295466</ele>
        <time>2022-12-25T14:12:32.371Z</time>
      </trkpt>
      <trkpt lat="44.63489" lon="-1.13549">
        <ele>48.387931</ele>
        <time>2022-12-25T14:12:35.369Z</time>
      </trkpt>
      <trkpt lat="44.63484" lon="-1.13561">
        <ele>48.477151</ele>
        <time>2022-12-25T14:12:38.377Z</time>
      </trkpt>
      <trkpt lat="44.63479" lon="-1.13575">
        <ele>48.56992</ele>
        <time>2022-12-25T14:12:41.366Z</time>
      </trkpt>
      <trkpt lat="44.63474" lon="-1.13589">
        <ele>48.669343</ele>
        <time>2022-12-25T14:12:44.361Z</time>
      </trkpt>
      <trkpt lat="44.6347" lon="-1.13605">
        <ele>48.768668</ele>
        <time>2022-12-25T14:12:47.364Z</time>
      </trkpt>
      <trkpt lat="44.63465" lon="-1.13619">
        <ele>48.868481</ele>
        <time>2022-12-25T14:12:50.358Z</time>
      </trkpt>
      <trkpt lat="44.63462" lon="-1.13632">
        <ele>48.950805</ele>
        <time>2022-12-25T14:12:53.370Z</time>
      </trkpt>
      <trkpt lat="44.63458" lon="-1.13645">
        <ele>49.04234</ele>
        <time>2022-12-25T14:12:56.374Z</time>
      </trkpt>
      <trkpt lat="44.63454" lon="-1.13662">
        <ele>49.14775</ele>
        <time>2022-12-25T14:12:59.374Z</time>
      </trkpt>
      <trkpt lat="44.63448" lon="-1.13677">
        <ele>49.154348</ele>
        <time>2022-12-25T14:13:02.364Z</time>
      </trkpt>
      <trkpt lat="44.63441" lon="-1.13691">
        <ele>49.125783</ele>
        <time>2022-12-25T14:13:05.376Z</time>
      </trkpt>
      <trkpt lat="44.63438" lon="-1.13707">
        <ele>49.097174</ele>
        <time>2022-12-25T14:13:08.360Z</time>
      </trkpt>
      <trkpt lat="44.63434" lon="-1.13723">
        <ele>49.068016</ele>
        <time>2022-12-25T14:13:11.366Z</time>
      </trkpt>
      <trkpt lat="44.6343" lon="-1.13738">
        <ele>49.04126</ele>
        <time>2022-12-25T14:13:14.383Z</time>
      </trkpt>
      <trkpt lat="44.63427" lon="-1.13752">
        <ele>49.016544</ele>
        <time>2022-12-25T14:13:17.363Z</time>
      </trkpt>
      <trkpt lat="44.63423" lon="-1.13765">
        <ele>48.991154</ele>
        <time>2022-12-25T14:13:20.374Z</time>
      </trkpt>
      <trkpt lat="44.63419" lon="-1.13779">
        <ele>48.965943</ele>
        <time>2022-12-25T14:13:23.364Z</time>
      </trkpt>
      <trkpt lat="44.63415" lon="-1.13794">
        <ele>48.937648</ele>
        <time>2022-12-25T14:13:26.364Z</time>
      </trkpt>
      <trkpt lat="44.63411" lon="-1.1381">
        <ele>48.909855</ele>
        <time>2022-12-25T14:13:29.373Z</time>
      </trkpt>
      <trkpt lat="44.63407" lon="-1.13827">
        <ele>48.879066</ele>
        <time>2022-12-25T14:13:32.384Z</time>
      </trkpt>
      <trkpt lat="44.63403" lon="-1.13843">
        <ele>48.848854</ele>
        <time>2022-12-25T14:13:35.376Z</time>
      </trkpt>
      <trkpt lat="44.63399" lon="-1.1386">
        <ele>48.819049</ele>
        <time>2022-12-25T14:13:38.363Z</time>
      </trkpt>
      <trkpt lat="44.63395" lon="-1.13877">
        <ele>48.787791</ele>
        <time>2022-12-25T14:13:41.376Z</time>
      </trkpt>
      <trkpt lat="44.63392" lon="-1.13892">
        <ele>48.760911</ele>
        <time>2022-12-25T14:13:44.365Z</time>
      </trkpt>
      <trkpt lat="44.63389" lon="-1.13906">
        <ele>48.737564</ele>
        <time>2022-12-25T14:13:47.364Z</time>
      </trkpt>
      <trkpt lat="44.63387" lon="-1.13919">
        <ele>48.716785</ele>
        <time>2022-12-25T14:13:50.374Z</time>
      </trkpt>
      <trkpt lat="44.63385" lon="-1.13934">
        <ele>48.694087</ele>
        <time>2022-12-25T14:13:53.370Z</time>
      </trkpt>
      <trkpt lat="44.63383" lon="-1.13949">
        <ele>48.669409</ele>
        <time>2022-12-25T14:13:56.364Z</time>
      </trkpt>
      <trkpt lat="44.6338" lon="-1.13965">
        <ele>48.644778</ele>
        <time>2022-12-25T14:13:59.366Z</time>
      </trkpt>
      <trkpt lat="44.63377" lon="-1.13982">
        <ele>48.618764</ele>
        <time>2022-12-25T14:14:02.364Z</time>
      </trkpt>
      <trkpt lat="44.63374" lon="-1.13999">
        <ele>48.591963</ele>
        <time>2022-12-25T14:14:05.366Z</time>
      </trkpt>
      <trkpt lat="44.63372" lon="-1.14016">
        <ele>48.565969</ele>
        <time>2022-12-25T14:14:08.364Z</time>
      </trkpt>
      <trkpt lat="44.6337" lon="-1.14031">
        <ele>48.541997</ele>
        <time>2022-12-25T14:14:11.367Z</time>
      </trkpt>
      <trkpt lat="44.63368" lon="-1.14045">
        <ele>48.520921</ele>
        <time>2022-12-25T14:14:14.365Z</time>
      </trkpt>
      <trkpt lat="44.63366" lon="-1.1406">
        <ele>48.497399</ele>
        <time>2022-12-25T14:14:17.372Z</time>
      </trkpt>
      <trkpt lat="44.63363" lon="-1.14076">
        <ele>48.472857</ele>
        <time>2022-12-25T14:14:20.364Z</time>
      </trkpt>
      <trkpt lat="44.63361" lon="-1.14092">
        <ele>48.44761</ele>
        <time>2022-12-25T14:14:23.363Z</time>
      </trkpt>
      <trkpt lat="44.63359" lon="-1.14109">
        <ele>48.421204</ele>
        <time>2022-12-25T14:14:26.371Z</time>
      </trkpt>
      <trkpt lat="44.63357" lon="-1.14126">
        <ele>48.394929</ele>
        <time>2022-12-25T14:14:29.370Z</time>
      </trkpt>
      <trkpt lat="44.63355" lon="-1.14143">
        <ele>48.368171</ele>
        <time>2022-12-25T14:14:32.366Z</time>
      </trkpt>
      <trkpt lat="44.63353" lon="-1.14161">
        <ele>48.361273</ele>
        <time>2022-12-25T14:14:35.366Z</time>
      </trkpt>
      <trkpt lat="44.6335" lon="-1.14179">
        <ele>48.365858</ele>
        <time>2022-12-25T14:14:38.361Z</time>
      </trkpt>
      <trkpt lat="44.63348" lon="-1.14197">
        <ele>48.37048</ele>
        <time>2022-12-25T14:14:41.366Z</time>
      </trkpt>
      <trkpt lat="44.63347" lon="-1.14214">
        <ele>48.374732</ele>
        <time>2022-12-25T14:14:44.367Z</time>
      </trkpt>
      <trkpt lat="44.63345" lon="-1.1423">
        <ele>48.379065</ele>
        <time>2022-12-25T14:14:47.368Z</time>
      </trkpt>
      <trkpt lat="44.63342" lon="-1.14245">
        <ele>48.38281</ele>
        <time>2022-12-25T14:14:50.371Z</time>
      </trkpt>
      <trkpt lat="44.63339" lon="-1.1426">
        <ele>48.3868</ele>
        <time>2022-12-25T14:14:53.374Z</time>
      </trkpt>
      <trkpt lat="44.63337" lon="-1.14276">
        <ele>48.390905</ele>
        <time>2022-12-25T14:14:56.368Z</time>
      </trkpt>
      <trkpt lat="44.63334" lon="-1.14294">
        <ele>48.395379</ele>
        <time>2022-12-25T14:14:59.376Z</time>
      </trkpt>
      <trkpt lat="44.63332" lon="-1.14312">
        <ele>48.400001</ele>
        <time>2022-12-25T14:15:02.371Z</time>
      </trkpt>
      <trkpt lat="44.63328" lon="-1.14329">
        <ele>48.404496</ele>
        <time>2022-12-25T14:15:05.370Z</time>
      </trkpt>
      <trkpt lat="44.63326" lon="-1.14344">
        <ele>48.408558</ele>
        <time>2022-12-25T14:15:08.364Z</time>
      </trkpt>
      <trkpt lat="44.63322" lon="-1.14361">
        <ele>48.412888</ele>
        <time>2022-12-25T14:15:11.370Z</time>
      </trkpt>
      <trkpt lat="44.6332" lon="-1.14377">
        <ele>48.41702</ele>
        <time>2022-12-25T14:15:14.369Z</time>
      </trkpt>
      <trkpt lat="44.63318" lon="-1.14393">
        <ele>48.421152</ele>
        <time>2022-12-25T14:15:17.365Z</time>
      </trkpt>
      <trkpt lat="44.63315" lon="-1.14408">
        <ele>48.384476</ele>
        <time>2022-12-25T14:15:20.372Z</time>
      </trkpt>
      <trkpt lat="44.63313" lon="-1.14421">
        <ele>48.342164</ele>
        <time>2022-12-25T14:15:23.367Z</time>
      </trkpt>
      <trkpt lat="44.63311" lon="-1.14436">
        <ele>48.296228</ele>
        <time>2022-12-25T14:15:26.380Z</time>
      </trkpt>
      <trkpt lat="44.63309" lon="-1.1445">
        <ele>48.248192</ele>
        <time>2022-12-25T14:15:29.371Z</time>
      </trkpt>
      <trkpt lat="44.63307" lon="-1.14465">
        <ele>48.199093</ele>
        <time>2022-12-25T14:15:32.366Z</time>
      </trkpt>
      <trkpt lat="44.63308" lon="-1.1448">
        <ele>48.1516</ele>
        <time>2022-12-25T14:15:35.375Z</time>
      </trkpt>
      <trkpt lat="44.63314" lon="-1.14493">
        <ele>48.10324</ele>
        <time>2022-12-25T14:15:38.398Z</time>
      </trkpt>
      <trkpt lat="44.63315" lon="-1.14506">
        <ele>48.060262</ele>
        <time>2022-12-25T14:15:41.379Z</time>
      </trkpt>
      <trkpt lat="44.63306" lon="-1.14515">
        <ele>48.012823</ele>
        <time>2022-12-25T14:15:44.380Z</time>
      </trkpt>
      <trkpt lat="44.63295" lon="-1.14517">
        <ele>47.960625</ele>
        <time>2022-12-25T14:15:47.371Z</time>
      </trkpt>
      <trkpt lat="44.63284" lon="-1.14519">
        <ele>47.912607</ele>
        <time>2022-12-25T14:15:50.381Z</time>
      </trkpt>
      <trkpt lat="44.63276" lon="-1.14528">
        <ele>47.865215</ele>
        <time>2022-12-25T14:15:53.377Z</time>
      </trkpt>
      <trkpt lat="44.63275" lon="-1.14543">
        <ele>47.817246</ele>
        <time>2022-12-25T14:15:56.375Z</time>
      </trkpt>
      <trkpt lat="44.63275" lon="-1.14559">
        <ele>47.767416</ele>
        <time>2022-12-25T14:15:59.373Z</time>
      </trkpt>
      <trkpt lat="44.63275" lon="-1.14572">
        <ele>47.725785</ele>
        <time>2022-12-25T14:16:02.372Z</time>
      </trkpt>
      <trkpt lat="44.63274" lon="-1.14586">
        <ele>47.682555</ele>
        <time>2022-12-25T14:16:05.368Z</time>
      </trkpt>
      <trkpt lat="44.63275" lon="-1.14601">
        <ele>47.634172</ele>
        <time>2022-12-25T14:16:08.371Z</time>
      </trkpt>
      <trkpt lat="44.63276" lon="-1.14617">
        <ele>47.723132</ele>
        <time>2022-12-25T14:16:11.363Z</time>
      </trkpt>
      <trkpt lat="44.63278" lon="-1.14635">
        <ele>47.875911</ele>
        <time>2022-12-25T14:16:14.385Z</time>
      </trkpt>
      <trkpt lat="44.6328" lon="-1.14651">
        <ele>48.016948</ele>
        <time>2022-12-25T14:16:17.379Z</time>
      </trkpt>
      <trkpt lat="44.63281" lon="-1.14668">
        <ele>48.156887</ele>
        <time>2022-12-25T14:16:20.372Z</time>
      </trkpt>
      <trkpt lat="44.63283" lon="-1.14683">
        <ele>48.289664</ele>
        <time>2022-12-25T14:16:23.373Z</time>
      </trkpt>
      <trkpt lat="44.63284" lon="-1.14697">
        <ele>48.404301</ele>
        <time>2022-12-25T14:16:26.358Z</time>
      </trkpt>
      <trkpt lat="44.63285" lon="-1.1471">
        <ele>48.514213</ele>
        <time>2022-12-25T14:16:29.362Z</time>
      </trkpt>
      <trkpt lat="44.63285" lon="-1.14722">
        <ele>48.623096</ele>
        <time>2022-12-25T14:16:32.365Z</time>
      </trkpt>
      <trkpt lat="44.63286" lon="-1.14738">
        <ele>48.754161</ele>
        <time>2022-12-25T14:16:35.373Z</time>
      </trkpt>
      <trkpt lat="44.63286" lon="-1.14752">
        <ele>48.873849</ele>
        <time>2022-12-25T14:16:38.378Z</time>
      </trkpt>
      <trkpt lat="44.63287" lon="-1.14765">
        <ele>48.9878</ele>
        <time>2022-12-25T14:16:41.378Z</time>
      </trkpt>
      <trkpt lat="44.63296" lon="-1.14773">
        <ele>49.112607</ele>
        <time>2022-12-25T14:16:45.371Z</time>
      </trkpt>
      <trkpt lat="44.63306" lon="-1.14767">
        <ele>49.234214</ele>
        <time>2022-12-25T14:16:48.363Z</time>
      </trkpt>
      <trkpt lat="44.63317" lon="-1.14762">
        <ele>49.372645</ele>
        <time>2022-12-25T14:16:51.365Z</time>
      </trkpt>
      <trkpt lat="44.6333" lon="-1.14759">
        <ele>49.529042</ele>
        <time>2022-12-25T14:16:54.377Z</time>
      </trkpt>
      <trkpt lat="44.63343" lon="-1.14754">
        <ele>49.693375</ele>
        <time>2022-12-25T14:16:57.368Z</time>
      </trkpt>
      <trkpt lat="44.63353" lon="-1.14752">
        <ele>49.725951</ele>
        <time>2022-12-25T14:16:59.378Z</time>
      </trkpt>
      <trkpt lat="44.63365" lon="-1.14747">
        <ele>49.578851</ele>
        <time>2022-12-25T14:17:02.377Z</time>
      </trkpt>
      <trkpt lat="44.63377" lon="-1.14745">
        <ele>49.43405</ele>
        <time>2022-12-25T14:17:05.384Z</time>
      </trkpt>
      <trkpt lat="44.6339" lon="-1.14743">
        <ele>49.290388</ele>
        <time>2022-12-25T14:17:08.383Z</time>
      </trkpt>
      <trkpt lat="44.63402" lon="-1.14741">
        <ele>49.155514</ele>
        <time>2022-12-25T14:17:11.370Z</time>
      </trkpt>
      <trkpt lat="44.63413" lon="-1.1474">
        <ele>49.027577</ele>
        <time>2022-12-25T14:17:14.363Z</time>
      </trkpt>
      <trkpt lat="44.63423" lon="-1.14737">
        <ele>48.902711</ele>
        <time>2022-12-25T14:17:17.376Z</time>
      </trkpt>
      <trkpt lat="44.63433" lon="-1.14735">
        <ele>48.786187</ele>
        <time>2022-12-25T14:17:20.363Z</time>
      </trkpt>
      <trkpt lat="44.63444" lon="-1.14732">
        <ele>48.663725</ele>
        <time>2022-12-25T14:17:23.381Z</time>
      </trkpt>
      <trkpt lat="44.63454" lon="-1.1473">
        <ele>48.547061</ele>
        <time>2022-12-25T14:17:26.365Z</time>
      </trkpt>
      <trkpt lat="44.63463" lon="-1.14728">
        <ele>48.441618</ele>
        <time>2022-12-25T14:17:29.360Z</time>
      </trkpt>
      <trkpt lat="44.63474" lon="-1.14726">
        <ele>48.316894</ele>
        <time>2022-12-25T14:17:32.364Z</time>
      </trkpt>
      <trkpt lat="44.63485" lon="-1.14725">
        <ele>48.185789</ele>
        <time>2022-12-25T14:17:35.366Z</time>
      </trkpt>
      <trkpt lat="44.63496" lon="-1.14724">
        <ele>48.056772</ele>
        <time>2022-12-25T14:17:38.367Z</time>
      </trkpt>
      <trkpt lat="44.63509" lon="-1.14726">
        <ele>47.911384</ele>
        <time>2022-12-25T14:17:41.364Z</time>
      </trkpt>
      <trkpt lat="44.63518" lon="-1.14729">
        <ele>47.801791</ele>
        <time>2022-12-25T14:17:43.369Z</time>
      </trkpt>
      <trkpt lat="44.63528" lon="-1.1473">
        <ele>47.691431</ele>
        <time>2022-12-25T14:17:45.365Z</time>
      </trkpt>
      <trkpt lat="44.63538" lon="-1.14733">
        <ele>47.611927</ele>
        <time>2022-12-25T14:17:47.362Z</time>
      </trkpt>
      <trkpt lat="44.63547" lon="-1.14736">
        <ele>47.53874</ele>
        <time>2022-12-25T14:17:49.367Z</time>
      </trkpt>
      <trkpt lat="44.63556" lon="-1.14741">
        <ele>47.467742</ele>
        <time>2022-12-25T14:17:51.386Z</time>
      </trkpt>
      <trkpt lat="44.63568" lon="-1.14745">
        <ele>47.371938</ele>
        <time>2022-12-25T14:17:54.360Z</time>
      </trkpt>
      <trkpt lat="44.6358" lon="-1.14752">
        <ele>47.278075</ele>
        <time>2022-12-25T14:17:57.370Z</time>
      </trkpt>
      <trkpt lat="44.63589" lon="-1.14759">
        <ele>47.191714</ele>
        <time>2022-12-25T14:18:00.368Z</time>
      </trkpt>
      <trkpt lat="44.636" lon="-1.14767">
        <ele>47.09779</ele>
        <time>2022-12-25T14:18:03.369Z</time>
      </trkpt>
      <trkpt lat="44.63609" lon="-1.14773">
        <ele>47.025187</ele>
        <time>2022-12-25T14:18:05.365Z</time>
      </trkpt>
      <trkpt lat="44.6362" lon="-1.14782">
        <ele>46.924113</ele>
        <time>2022-12-25T14:18:08.376Z</time>
      </trkpt>
      <trkpt lat="44.63631" lon="-1.14791">
        <ele>46.828526</ele>
        <time>2022-12-25T14:18:11.364Z</time>
      </trkpt>
      <trkpt lat="44.63641" lon="-1.14799">
        <ele>46.736622</ele>
        <time>2022-12-25T14:18:14.370Z</time>
      </trkpt>
      <trkpt lat="44.63651" lon="-1.14808">
        <ele>46.648478</ele>
        <time>2022-12-25T14:18:17.372Z</time>
      </trkpt>
      <trkpt lat="44.6366" lon="-1.14816">
        <ele>46.569586</ele>
        <time>2022-12-25T14:18:20.384Z</time>
      </trkpt>
      <trkpt lat="44.63657" lon="-1.14829">
        <ele>46.491036</ele>
        <time>2022-12-25T14:18:25.387Z</time>
      </trkpt>
      <trkpt lat="44.63653" lon="-1.14844">
        <ele>46.407335</ele>
        <time>2022-12-25T14:18:29.386Z</time>
      </trkpt>
      <trkpt lat="44.63651" lon="-1.14857">
        <ele>46.333059</ele>
        <time>2022-12-25T14:18:32.371Z</time>
      </trkpt>
      <trkpt lat="44.63649" lon="-1.1487">
        <ele>46.32709</ele>
        <time>2022-12-25T14:18:35.379Z</time>
      </trkpt>
      <trkpt lat="44.63646" lon="-1.14884">
        <ele>46.338658</ele>
        <time>2022-12-25T14:18:39.379Z</time>
      </trkpt>
      <trkpt lat="44.63652" lon="-1.14902">
        <ele>46.35457</ele>
        <time>2022-12-25T14:19:05.369Z</time>
      </trkpt>
      <trkpt lat="44.63661" lon="-1.14904">
        <ele>46.364788</ele>
        <time>2022-12-25T14:19:08.388Z</time>
      </trkpt>
      <trkpt lat="44.63672" lon="-1.14907">
        <ele>46.377915</ele>
        <time>2022-12-25T14:19:11.365Z</time>
      </trkpt>
      <trkpt lat="44.63685" lon="-1.1491">
        <ele>46.392286</ele>
        <time>2022-12-25T14:19:14.371Z</time>
      </trkpt>
      <trkpt lat="44.63697" lon="-1.14913">
        <ele>46.406658</ele>
        <time>2022-12-25T14:19:17.389Z</time>
      </trkpt>
      <trkpt lat="44.63709" lon="-1.14917">
        <ele>46.420806</ele>
        <time>2022-12-25T14:19:20.368Z</time>
      </trkpt>
      <trkpt lat="44.6372" lon="-1.1492">
        <ele>46.433485</ele>
        <time>2022-12-25T14:19:23.369Z</time>
      </trkpt>
      <trkpt lat="44.63728" lon="-1.14929">
        <ele>46.444766</ele>
        <time>2022-12-25T14:19:27.371Z</time>
      </trkpt>
      <trkpt lat="44.63726" lon="-1.14945">
        <ele>46.45839</ele>
        <time>2022-12-25T14:19:31.372Z</time>
      </trkpt>
      <trkpt lat="44.63725" lon="-1.14959">
        <ele>46.469462</ele>
        <time>2022-12-25T14:19:34.377Z</time>
      </trkpt>
      <trkpt lat="44.63723" lon="-1.14973">
        <ele>46.481351</ele>
        <time>2022-12-25T14:19:37.368Z</time>
      </trkpt>
      <trkpt lat="44.63721" lon="-1.14989">
        <ele>46.493999</ele>
        <time>2022-12-25T14:19:40.377Z</time>
      </trkpt>
      <trkpt lat="44.63718" lon="-1.15003">
        <ele>46.506439</ele>
        <time>2022-12-25T14:19:43.374Z</time>
      </trkpt>
      <trkpt lat="44.63714" lon="-1.15019">
        <ele>46.519206</ele>
        <time>2022-12-25T14:19:46.367Z</time>
      </trkpt>
      <trkpt lat="44.63712" lon="-1.15034">
        <ele>46.640121</ele>
        <time>2022-12-25T14:19:49.377Z</time>
      </trkpt>
      <trkpt lat="44.63708" lon="-1.15049">
        <ele>46.808006</ele>
        <time>2022-12-25T14:19:52.364Z</time>
      </trkpt>
      <trkpt lat="44.63705" lon="-1.15063">
        <ele>46.971133</ele>
        <time>2022-12-25T14:19:55.364Z</time>
      </trkpt>
      <trkpt lat="44.63703" lon="-1.15079">
        <ele>47.14281</ele>
        <time>2022-12-25T14:19:58.379Z</time>
      </trkpt>
      <trkpt lat="44.63702" lon="-1.15094">
        <ele>47.311845</ele>
        <time>2022-12-25T14:20:01.361Z</time>
      </trkpt>
      <trkpt lat="44.63703" lon="-1.15109">
        <ele>47.47462</ele>
        <time>2022-12-25T14:20:04.388Z</time>
      </trkpt>
      <trkpt lat="44.63706" lon="-1.15123">
        <ele>47.636298</ele>
        <time>2022-12-25T14:20:07.359Z</time>
      </trkpt>
      <trkpt lat="44.63712" lon="-1.15135">
        <ele>47.792493</ele>
        <time>2022-12-25T14:20:10.372Z</time>
      </trkpt>
      <trkpt lat="44.63718" lon="-1.15146">
        <ele>47.939959</ele>
        <time>2022-12-25T14:20:13.373Z</time>
      </trkpt>
      <trkpt lat="44.63725" lon="-1.15158">
        <ele>48.108744</ele>
        <time>2022-12-25T14:20:16.363Z</time>
      </trkpt>
      <trkpt lat="44.63732" lon="-1.15171">
        <ele>48.285686</ele>
        <time>2022-12-25T14:20:19.366Z</time>
      </trkpt>
      <trkpt lat="44.63741" lon="-1.15185">
        <ele>48.482794</ele>
        <time>2022-12-25T14:20:22.365Z</time>
      </trkpt>
      <trkpt lat="44.63749" lon="-1.152">
        <ele>48.685944</ele>
        <time>2022-12-25T14:20:25.363Z</time>
      </trkpt>
      <trkpt lat="44.63756" lon="-1.15215">
        <ele>48.885453</ele>
        <time>2022-12-25T14:20:28.361Z</time>
      </trkpt>
      <trkpt lat="44.63763" lon="-1.15228">
        <ele>49.067309</ele>
        <time>2022-12-25T14:20:31.367Z</time>
      </trkpt>
      <trkpt lat="44.6377" lon="-1.15241">
        <ele>49.23329</ele>
        <time>2022-12-25T14:20:34.364Z</time>
      </trkpt>
      <trkpt lat="44.63778" lon="-1.15253">
        <ele>49.225006</ele>
        <time>2022-12-25T14:20:37.368Z</time>
      </trkpt>
      <trkpt lat="44.63786" lon="-1.15266">
        <ele>49.182391</ele>
        <time>2022-12-25T14:20:40.363Z</time>
      </trkpt>
      <trkpt lat="44.63793" lon="-1.15278">
        <ele>49.144173</ele>
        <time>2022-12-25T14:20:43.372Z</time>
      </trkpt>
      <trkpt lat="44.638" lon="-1.15289">
        <ele>49.106257</ele>
        <time>2022-12-25T14:20:46.363Z</time>
      </trkpt>
      <trkpt lat="44.63806" lon="-1.15302">
        <ele>49.067772</ele>
        <time>2022-12-25T14:20:49.367Z</time>
      </trkpt>
      <trkpt lat="44.63807" lon="-1.15317">
        <ele>49.030157</ele>
        <time>2022-12-25T14:20:52.377Z</time>
      </trkpt>
      <trkpt lat="44.63808" lon="-1.15333">
        <ele>48.991044</ele>
        <time>2022-12-25T14:20:55.362Z</time>
      </trkpt>
      <trkpt lat="44.63813" lon="-1.15346">
        <ele>48.955361</ele>
        <time>2022-12-25T14:20:58.385Z</time>
      </trkpt>
      <trkpt lat="44.63822" lon="-1.15357">
        <ele>48.913603</ele>
        <time>2022-12-25T14:21:01.372Z</time>
      </trkpt>
      <trkpt lat="44.63831" lon="-1.15369">
        <ele>48.868823</ele>
        <time>2022-12-25T14:21:04.369Z</time>
      </trkpt>
      <trkpt lat="44.63843" lon="-1.15377">
        <ele>48.823141</ele>
        <time>2022-12-25T14:21:07.377Z</time>
      </trkpt>
      <trkpt lat="44.63855" lon="-1.15386">
        <ele>48.775492</ele>
        <time>2022-12-25T14:21:10.363Z</time>
      </trkpt>
      <trkpt lat="44.63863" lon="-1.15392">
        <ele>48.74306</ele>
        <time>2022-12-25T14:21:12.373Z</time>
      </trkpt>
      <trkpt lat="44.63872" lon="-1.15399">
        <ele>48.708853</ele>
        <time>2022-12-25T14:21:14.372Z</time>
      </trkpt>
      <trkpt lat="44.6388" lon="-1.15406">
        <ele>48.675031</ele>
        <time>2022-12-25T14:21:16.377Z</time>
      </trkpt>
      <trkpt lat="44.63888" lon="-1.15413">
        <ele>48.641549</ele>
        <time>2022-12-25T14:21:18.366Z</time>
      </trkpt>
      <trkpt lat="44.63896" lon="-1.15421">
        <ele>48.613148</ele>
        <time>2022-12-25T14:21:20.373Z</time>
      </trkpt>
      <trkpt lat="44.63907" lon="-1.15432">
        <ele>48.575804</ele>
        <time>2022-12-25T14:21:23.378Z</time>
      </trkpt>
      <trkpt lat="44.63917" lon="-1.15441">
        <ele>48.542554</ele>
        <time>2022-12-25T14:21:26.367Z</time>
      </trkpt>
      <trkpt lat="44.63927" lon="-1.15448">
        <ele>48.509452</ele>
        <time>2022-12-25T14:21:29.377Z</time>
      </trkpt>
      <trkpt lat="44.63935" lon="-1.15455">
        <ele>48.484271</ele>
        <time>2022-12-25T14:21:31.367Z</time>
      </trkpt>
      <trkpt lat="44.63943" lon="-1.15462">
        <ele>48.457286</ele>
        <time>2022-12-25T14:21:33.360Z</time>
      </trkpt>
      <trkpt lat="44.63951" lon="-1.15469">
        <ele>48.432149</ele>
        <time>2022-12-25T14:21:35.368Z</time>
      </trkpt>
      <trkpt lat="44.63959" lon="-1.15475">
        <ele>48.40613</ele>
        <time>2022-12-25T14:21:37.367Z</time>
      </trkpt>
      <trkpt lat="44.63967" lon="-1.15483">
        <ele>48.379818</ele>
        <time>2022-12-25T14:21:39.380Z</time>
      </trkpt>
      <trkpt lat="44.63975" lon="-1.1549">
        <ele>48.353219</ele>
        <time>2022-12-25T14:21:41.370Z</time>
      </trkpt>
      <trkpt lat="44.63984" lon="-1.15497">
        <ele>48.324592</ele>
        <time>2022-12-25T14:21:43.375Z</time>
      </trkpt>
      <trkpt lat="44.63993" lon="-1.15504">
        <ele>48.295626</ele>
        <time>2022-12-25T14:21:45.372Z</time>
      </trkpt>
      <trkpt lat="44.64002" lon="-1.15512">
        <ele>48.265724</ele>
        <time>2022-12-25T14:21:47.373Z</time>
      </trkpt>
      <trkpt lat="44.64011" lon="-1.1552">
        <ele>48.236119</ele>
        <time>2022-12-25T14:21:49.368Z</time>
      </trkpt>
      <trkpt lat="44.64021" lon="-1.15526">
        <ele>48.206128</ele>
        <time>2022-12-25T14:21:51.372Z</time>
      </trkpt>
      <trkpt lat="44.64029" lon="-1.15533">
        <ele>48.179588</ele>
        <time>2022-12-25T14:21:53.381Z</time>
      </trkpt>
      <trkpt lat="44.64038" lon="-1.1554">
        <ele>48.151551</ele>
        <time>2022-12-25T14:21:55.381Z</time>
      </trkpt>
      <trkpt lat="44.64049" lon="-1.1555">
        <ele>48.106325</ele>
        <time>2022-12-25T14:21:58.373Z</time>
      </trkpt>
      <trkpt lat="44.64059" lon="-1.15559">
        <ele>48.050298</ele>
        <time>2022-12-25T14:22:01.376Z</time>
      </trkpt>
      <trkpt lat="44.64071" lon="-1.15569">
        <ele>47.989206</ele>
        <time>2022-12-25T14:22:04.370Z</time>
      </trkpt>
      <trkpt lat="44.64082" lon="-1.15579">
        <ele>47.92704</ele>
        <time>2022-12-25T14:22:07.375Z</time>
      </trkpt>
      <trkpt lat="44.64093" lon="-1.15589">
        <ele>47.86742</ele>
        <time>2022-12-25T14:22:10.372Z</time>
      </trkpt>
      <trkpt lat="44.64103" lon="-1.15596">
        <ele>47.816284</ele>
        <time>2022-12-25T14:22:13.376Z</time>
      </trkpt>
      <trkpt lat="44.64114" lon="-1.156">
        <ele>47.765748</ele>
        <time>2022-12-25T14:22:18.376Z</time>
      </trkpt>
      <trkpt lat="44.64126" lon="-1.15602">
        <ele>47.710101</ele>
        <time>2022-12-25T14:22:22.390Z</time>
      </trkpt>
      <trkpt lat="44.64137" lon="-1.156">
        <ele>47.661895</ele>
        <time>2022-12-25T14:22:25.367Z</time>
      </trkpt>
      <trkpt lat="44.64148" lon="-1.15599">
        <ele>47.610998</ele>
        <time>2022-12-25T14:22:28.377Z</time>
      </trkpt>
      <trkpt lat="44.64158" lon="-1.15598">
        <ele>47.561494</ele>
        <time>2022-12-25T14:22:31.359Z</time>
      </trkpt>
      <trkpt lat="44.64168" lon="-1.15596">
        <ele>47.517987</ele>
        <time>2022-12-25T14:22:34.378Z</time>
      </trkpt>
      <trkpt lat="44.64178" lon="-1.15595">
        <ele>47.470723</ele>
        <time>2022-12-25T14:22:37.377Z</time>
      </trkpt>
      <trkpt lat="44.6419" lon="-1.15596">
        <ele>47.417099</ele>
        <time>2022-12-25T14:22:40.369Z</time>
      </trkpt>
      <trkpt lat="44.64202" lon="-1.15602">
        <ele>47.360682</ele>
        <time>2022-12-25T14:22:43.374Z</time>
      </trkpt>
      <trkpt lat="44.64211" lon="-1.15613">
        <ele>47.322245</ele>
        <time>2022-12-25T14:22:46.370Z</time>
      </trkpt>
      <trkpt lat="44.64218" lon="-1.15626">
        <ele>47.492775</ele>
        <time>2022-12-25T14:22:49.368Z</time>
      </trkpt>
      <trkpt lat="44.64221" lon="-1.1564">
        <ele>47.648317</ele>
        <time>2022-12-25T14:22:52.370Z</time>
      </trkpt>
      <trkpt lat="44.64224" lon="-1.15653">
        <ele>47.794702</ele>
        <time>2022-12-25T14:22:55.373Z</time>
      </trkpt>
      <trkpt lat="44.64226" lon="-1.15667">
        <ele>47.942136</ele>
        <time>2022-12-25T14:22:58.370Z</time>
      </trkpt>
      <trkpt lat="44.64231" lon="-1.15681">
        <ele>48.098828</ele>
        <time>2022-12-25T14:23:01.372Z</time>
      </trkpt>
      <trkpt lat="44.64238" lon="-1.15693">
        <ele>48.273573</ele>
        <time>2022-12-25T14:23:04.363Z</time>
      </trkpt>
      <trkpt lat="44.64249" lon="-1.15702">
        <ele>48.45863</ele>
        <time>2022-12-25T14:23:07.362Z</time>
      </trkpt>
      <trkpt lat="44.64261" lon="-1.15708">
        <ele>48.642643</ele>
        <time>2022-12-25T14:23:10.377Z</time>
      </trkpt>
      <trkpt lat="44.64272" lon="-1.15712">
        <ele>48.808818</ele>
        <time>2022-12-25T14:23:13.367Z</time>
      </trkpt>
      <trkpt lat="44.64283" lon="-1.15715">
        <ele>48.978521</ele>
        <time>2022-12-25T14:23:16.362Z</time>
      </trkpt>
      <trkpt lat="44.64295" lon="-1.15719">
        <ele>49.165819</ele>
        <time>2022-12-25T14:23:19.364Z</time>
      </trkpt>
      <trkpt lat="44.64308" lon="-1.15723">
        <ele>49.358919</ele>
        <time>2022-12-25T14:23:22.370Z</time>
      </trkpt>
      <trkpt lat="44.64316" lon="-1.15727">
        <ele>49.494769</ele>
        <time>2022-12-25T14:23:24.363Z</time>
      </trkpt>
      <trkpt lat="44.64326" lon="-1.1573">
        <ele>49.640387</ele>
        <time>2022-12-25T14:23:26.371Z</time>
      </trkpt>
      <trkpt lat="44.64336" lon="-1.15734">
        <ele>49.788252</ele>
        <time>2022-12-25T14:23:28.370Z</time>
      </trkpt>
      <trkpt lat="44.64345" lon="-1.15738">
        <ele>49.92815</ele>
        <time>2022-12-25T14:23:30.368Z</time>
      </trkpt>
      <trkpt lat="44.64354" lon="-1.15742">
        <ele>50.050225</ele>
        <time>2022-12-25T14:23:32.364Z</time>
      </trkpt>
      <trkpt lat="44.64364" lon="-1.15746">
        <ele>50.15309</ele>
        <time>2022-12-25T14:23:34.366Z</time>
      </trkpt>
      <trkpt lat="44.64376" lon="-1.1575">
        <ele>50.284571</ele>
        <time>2022-12-25T14:23:37.378Z</time>
      </trkpt>
      <trkpt lat="44.64388" lon="-1.15752">
        <ele>50.404619</ele>
        <time>2022-12-25T14:23:40.367Z</time>
      </trkpt>
      <trkpt lat="44.64399" lon="-1.15753">
        <ele>50.519581</ele>
        <time>2022-12-25T14:23:43.369Z</time>
      </trkpt>
      <trkpt lat="44.64411" lon="-1.15756">
        <ele>50.646647</ele>
        <time>2022-12-25T14:23:46.367Z</time>
      </trkpt>
      <trkpt lat="44.64424" lon="-1.15759">
        <ele>50.786202</ele>
        <time>2022-12-25T14:23:49.377Z</time>
      </trkpt>
      <trkpt lat="44.64433" lon="-1.15761">
        <ele>50.881214</ele>
        <time>2022-12-25T14:23:51.367Z</time>
      </trkpt>
      <trkpt lat="44.64445" lon="-1.15763">
        <ele>51.011674</ele>
        <time>2022-12-25T14:23:54.387Z</time>
      </trkpt>
      <trkpt lat="44.64457" lon="-1.15766">
        <ele>51.134813</ele>
        <time>2022-12-25T14:23:57.368Z</time>
      </trkpt>
      <trkpt lat="44.64468" lon="-1.15769">
        <ele>51.253553</ele>
        <time>2022-12-25T14:24:00.382Z</time>
      </trkpt>
      <trkpt lat="44.64479" lon="-1.1577">
        <ele>51.366505</ele>
        <time>2022-12-25T14:24:03.370Z</time>
      </trkpt>
      <trkpt lat="44.6449" lon="-1.15772">
        <ele>51.486855</ele>
        <time>2022-12-25T14:24:06.365Z</time>
      </trkpt>
      <trkpt lat="44.64502" lon="-1.15774">
        <ele>51.612984</ele>
        <time>2022-12-25T14:24:09.368Z</time>
      </trkpt>
      <trkpt lat="44.64513" lon="-1.15776">
        <ele>51.728696</ele>
        <time>2022-12-25T14:24:12.368Z</time>
      </trkpt>
      <trkpt lat="44.64523" lon="-1.15778">
        <ele>51.830692</ele>
        <time>2022-12-25T14:24:15.375Z</time>
      </trkpt>
      <trkpt lat="44.64533" lon="-1.1578">
        <ele>51.798126</ele>
        <time>2022-12-25T14:24:18.380Z</time>
      </trkpt>
      <trkpt lat="44.64545" lon="-1.15784">
        <ele>51.714402</ele>
        <time>2022-12-25T14:24:21.365Z</time>
      </trkpt>
      <trkpt lat="44.64558" lon="-1.15786">
        <ele>51.62443</ele>
        <time>2022-12-25T14:24:24.377Z</time>
      </trkpt>
      <trkpt lat="44.64568" lon="-1.15787">
        <ele>51.550746</ele>
        <time>2022-12-25T14:24:27.372Z</time>
      </trkpt>
      <trkpt lat="44.64578" lon="-1.15787">
        <ele>51.478454</ele>
        <time>2022-12-25T14:24:30.373Z</time>
      </trkpt>
      <trkpt lat="44.64588" lon="-1.15786">
        <ele>51.413137</ele>
        <time>2022-12-25T14:24:33.372Z</time>
      </trkpt>
      <trkpt lat="44.64597" lon="-1.15784">
        <ele>51.350047</ele>
        <time>2022-12-25T14:24:36.365Z</time>
      </trkpt>
      <trkpt lat="44.64607" lon="-1.15779">
        <ele>51.274518</ele>
        <time>2022-12-25T14:24:40.371Z</time>
      </trkpt>
      <trkpt lat="44.64617" lon="-1.15773">
        <ele>51.194043</ele>
        <time>2022-12-25T14:24:44.367Z</time>
      </trkpt>
      <trkpt lat="44.64625" lon="-1.15765">
        <ele>51.127068</ele>
        <time>2022-12-25T14:24:47.373Z</time>
      </trkpt>
      <trkpt lat="44.64633" lon="-1.15756">
        <ele>51.054627</ele>
        <time>2022-12-25T14:24:50.374Z</time>
      </trkpt>
      <trkpt lat="44.64642" lon="-1.15747">
        <ele>50.981015</ele>
        <time>2022-12-25T14:24:53.359Z</time>
      </trkpt>
      <trkpt lat="44.6465" lon="-1.1574">
        <ele>50.909323</ele>
        <time>2022-12-25T14:24:56.371Z</time>
      </trkpt>
      <trkpt lat="44.64659" lon="-1.15733">
        <ele>50.842662</ele>
        <time>2022-12-25T14:25:00.360Z</time>
      </trkpt>
      <trkpt lat="44.64668" lon="-1.15736">
        <ele>50.779467</ele>
        <time>2022-12-25T14:25:05.377Z</time>
      </trkpt>
      <trkpt lat="44.64668" lon="-1.1575">
        <ele>50.708584</ele>
        <time>2022-12-25T14:25:11.377Z</time>
      </trkpt>
      <trkpt lat="44.64672" lon="-1.15762">
        <ele>50.640432</ele>
        <time>2022-12-25T14:25:16.363Z</time>
      </trkpt>
      <trkpt lat="44.6468" lon="-1.15772">
        <ele>50.577691</ele>
        <time>2022-12-25T14:25:21.378Z</time>
      </trkpt>
      <trkpt lat="44.6469" lon="-1.1577">
        <ele>50.52742</ele>
        <time>2022-12-25T14:25:26.366Z</time>
      </trkpt>
      <trkpt lat="44.64699" lon="-1.15767">
        <ele>50.485303</ele>
        <time>2022-12-25T14:25:30.365Z</time>
      </trkpt>
      <trkpt lat="44.64708" lon="-1.15773">
        <ele>50.44111</ele>
        <time>2022-12-25T14:25:34.370Z</time>
      </trkpt>
      <trkpt lat="44.64711" lon="-1.15786">
        <ele>50.395474</ele>
        <time>2022-12-25T14:25:39.370Z</time>
      </trkpt>
      <trkpt lat="44.64715" lon="-1.15797">
        <ele>50.35335</ele>
        <time>2022-12-25T14:25:43.381Z</time>
      </trkpt>
      <trkpt lat="44.64723" lon="-1.15808">
        <ele>50.30309</ele>
        <time>2022-12-25T14:25:48.366Z</time>
      </trkpt>
      <trkpt lat="44.64722" lon="-1.15822">
        <ele>50.260058</ele>
        <time>2022-12-25T14:25:52.369Z</time>
      </trkpt>
      <trkpt lat="44.64718" lon="-1.15835">
        <ele>50.210595</ele>
        <time>2022-12-25T14:25:57.374Z</time>
      </trkpt>
      <trkpt lat="44.64709" lon="-1.15841">
        <ele>50.167814</ele>
        <time>2022-12-25T14:26:01.375Z</time>
      </trkpt>
      <trkpt lat="44.64701" lon="-1.15849">
        <ele>50.120423</ele>
        <time>2022-12-25T14:26:05.370Z</time>
      </trkpt>
      <trkpt lat="44.64694" lon="-1.1586">
        <ele>50.072578</ele>
        <time>2022-12-25T14:26:10.375Z</time>
      </trkpt>
      <trkpt lat="44.647" lon="-1.15871">
        <ele>50.029493</ele>
        <time>2022-12-25T14:26:28.377Z</time>
      </trkpt>
      <trkpt lat="44.6471" lon="-1.15872">
        <ele>49.980717</ele>
        <time>2022-12-25T14:26:32.372Z</time>
      </trkpt>
      <trkpt lat="44.6472" lon="-1.15873">
        <ele>49.93454</ele>
        <time>2022-12-25T14:26:36.375Z</time>
      </trkpt>
      <trkpt lat="44.6473" lon="-1.15871">
        <ele>49.889429</ele>
        <time>2022-12-25T14:26:40.377Z</time>
      </trkpt>
      <trkpt lat="44.6474" lon="-1.15868">
        <ele>49.843796</ele>
        <time>2022-12-25T14:26:44.363Z</time>
      </trkpt>
      <trkpt lat="44.64749" lon="-1.15867">
        <ele>49.800292</ele>
        <time>2022-12-25T14:26:48.378Z</time>
      </trkpt>
      <trkpt lat="44.64759" lon="-1.15869">
        <ele>49.83342</ele>
        <time>2022-12-25T14:26:53.374Z</time>
      </trkpt>
      <trkpt lat="44.6477" lon="-1.15866">
        <ele>50.592808</ele>
        <time>2022-12-25T14:26:58.374Z</time>
      </trkpt>
      <trkpt lat="44.64782" lon="-1.15863">
        <ele>51.364487</ele>
        <time>2022-12-25T14:27:02.369Z</time>
      </trkpt>
      <trkpt lat="44.64791" lon="-1.15862">
        <ele>51.958548</ele>
        <time>2022-12-25T14:27:05.373Z</time>
      </trkpt>
      <trkpt lat="44.64801" lon="-1.15858">
        <ele>52.61353</ele>
        <time>2022-12-25T14:27:09.368Z</time>
      </trkpt>
      <trkpt lat="44.64811" lon="-1.15856">
        <ele>53.309761</ele>
        <time>2022-12-25T14:27:14.364Z</time>
      </trkpt>
      <trkpt lat="44.64822" lon="-1.15854">
        <ele>53.999418</ele>
        <time>2022-12-25T14:27:20.388Z</time>
      </trkpt>
      <trkpt lat="44.64832" lon="-1.15854">
        <ele>54.627819</ele>
        <time>2022-12-25T14:27:26.376Z</time>
      </trkpt>
      <trkpt lat="44.64841" lon="-1.15851">
        <ele>55.262001</ele>
        <time>2022-12-25T14:27:32.384Z</time>
      </trkpt>
      <trkpt lat="44.64852" lon="-1.15851">
        <ele>55.942155</ele>
        <time>2022-12-25T14:27:38.365Z</time>
      </trkpt>
      <trkpt lat="44.6486" lon="-1.15856">
        <ele>56.533057</ele>
        <time>2022-12-25T14:27:42.367Z</time>
      </trkpt>
      <trkpt lat="44.64869" lon="-1.15863">
        <ele>57.16998</ele>
        <time>2022-12-25T14:27:48.382Z</time>
      </trkpt>
      <trkpt lat="44.64873" lon="-1.15875">
        <ele>57.77651</ele>
        <time>2022-12-25T14:27:54.363Z</time>
      </trkpt>
      <trkpt lat="44.64875" lon="-1.15887">
        <ele>58.359832</ele>
        <time>2022-12-25T14:28:00.367Z</time>
      </trkpt>
      <trkpt lat="44.64879" lon="-1.159">
        <ele>58.985566</ele>
        <time>2022-12-25T14:28:06.367Z</time>
      </trkpt>
      <trkpt lat="44.64882" lon="-1.15912">
        <ele>59.576073</ele>
        <time>2022-12-25T14:28:12.369Z</time>
      </trkpt>
      <trkpt lat="44.64885" lon="-1.15925">
        <ele>60.216668</ele>
        <time>2022-12-25T14:28:18.370Z</time>
      </trkpt>
      <trkpt lat="44.64885" lon="-1.15938">
        <ele>60.798227</ele>
        <time>2022-12-25T14:28:23.371Z</time>
      </trkpt>
      <trkpt lat="44.64888" lon="-1.15953">
        <ele>61.400363</ele>
        <time>2022-12-25T14:28:28.373Z</time>
      </trkpt>
      <trkpt lat="44.64894" lon="-1.15964">
        <ele>61.326035</ele>
        <time>2022-12-25T14:28:34.364Z</time>
      </trkpt>
      <trkpt lat="44.64902" lon="-1.15975">
        <ele>61.24187</ele>
        <time>2022-12-25T14:29:00.367Z</time>
      </trkpt>
      <trkpt lat="44.64902" lon="-1.15987">
        <ele>61.172496</ele>
        <time>2022-12-25T14:29:04.374Z</time>
      </trkpt>
      <trkpt lat="44.64904" lon="-1.16002">
        <ele>61.092341</ele>
        <time>2022-12-25T14:29:08.376Z</time>
      </trkpt>
      <trkpt lat="44.64908" lon="-1.16018">
        <ele>60.997644</ele>
        <time>2022-12-25T14:29:12.366Z</time>
      </trkpt>
      <trkpt lat="44.64909" lon="-1.16032">
        <ele>60.924039</ele>
        <time>2022-12-25T14:29:15.375Z</time>
      </trkpt>
      <trkpt lat="44.64913" lon="-1.16048">
        <ele>60.83472</ele>
        <time>2022-12-25T14:29:19.368Z</time>
      </trkpt>
      <trkpt lat="44.64911" lon="-1.16062">
        <ele>60.754409</ele>
        <time>2022-12-25T14:29:23.363Z</time>
      </trkpt>
      <trkpt lat="44.64908" lon="-1.16075">
        <ele>60.681918</ele>
        <time>2022-12-25T14:29:26.364Z</time>
      </trkpt>
      <trkpt lat="44.64905" lon="-1.16091">
        <ele>60.591654</ele>
        <time>2022-12-25T14:29:29.372Z</time>
      </trkpt>
      <trkpt lat="44.64909" lon="-1.16106">
        <ele>60.508199</ele>
        <time>2022-12-25T14:29:32.367Z</time>
      </trkpt>
      <trkpt lat="44.64913" lon="-1.16117">
        <ele>60.438842</ele>
        <time>2022-12-25T14:29:35.368Z</time>
      </trkpt>
      <trkpt lat="44.64917" lon="-1.1613">
        <ele>60.360194</ele>
        <time>2022-12-25T14:29:38.364Z</time>
      </trkpt>
      <trkpt lat="44.6492" lon="-1.16143">
        <ele>60.286678</ele>
        <time>2022-12-25T14:29:41.378Z</time>
      </trkpt>
      <trkpt lat="44.64924" lon="-1.16156">
        <ele>60.212047</ele>
        <time>2022-12-25T14:29:44.372Z</time>
      </trkpt>
      <trkpt lat="44.64927" lon="-1.1617">
        <ele>60.130844</ele>
        <time>2022-12-25T14:29:47.372Z</time>
      </trkpt>
      <trkpt lat="44.64931" lon="-1.16183">
        <ele>60.056077</ele>
        <time>2022-12-25T14:29:50.362Z</time>
      </trkpt>
      <trkpt lat="44.64935" lon="-1.16195">
        <ele>60.099806</ele>
        <time>2022-12-25T14:29:53.370Z</time>
      </trkpt>
      <trkpt lat="44.64937" lon="-1.16207">
        <ele>60.163019</ele>
        <time>2022-12-25T14:29:57.375Z</time>
      </trkpt>
      <trkpt lat="44.6494" lon="-1.1622">
        <ele>60.230424</ele>
        <time>2022-12-25T14:30:00.378Z</time>
      </trkpt>
      <trkpt lat="44.64942" lon="-1.16236">
        <ele>60.307672</ele>
        <time>2022-12-25T14:30:03.370Z</time>
      </trkpt>
      <trkpt lat="44.64944" lon="-1.16249">
        <ele>60.37878</ele>
        <time>2022-12-25T14:30:06.363Z</time>
      </trkpt>
      <trkpt lat="44.64946" lon="-1.16263">
        <ele>60.449079</ele>
        <time>2022-12-25T14:30:09.366Z</time>
      </trkpt>
      <trkpt lat="44.64949" lon="-1.16278">
        <ele>60.527353</ele>
        <time>2022-12-25T14:30:12.371Z</time>
      </trkpt>
      <trkpt lat="44.6495" lon="-1.16296">
        <ele>60.615264</ele>
        <time>2022-12-25T14:30:15.373Z</time>
      </trkpt>
      <trkpt lat="44.64954" lon="-1.16313">
        <ele>60.706191</ele>
        <time>2022-12-25T14:30:18.367Z</time>
      </trkpt>
      <trkpt lat="44.64957" lon="-1.16332">
        <ele>60.80238</ele>
        <time>2022-12-25T14:30:21.380Z</time>
      </trkpt>
      <trkpt lat="44.64962" lon="-1.1635">
        <ele>60.895773</ele>
        <time>2022-12-25T14:30:24.361Z</time>
      </trkpt>
      <trkpt lat="44.64964" lon="-1.16367">
        <ele>60.984426</ele>
        <time>2022-12-25T14:30:27.367Z</time>
      </trkpt>
      <trkpt lat="44.64968" lon="-1.16384">
        <ele>61.075326</ele>
        <time>2022-12-25T14:30:30.376Z</time>
      </trkpt>
      <trkpt lat="44.64974" lon="-1.16399">
        <ele>61.163026</ele>
        <time>2022-12-25T14:30:33.368Z</time>
      </trkpt>
      <trkpt lat="44.6498" lon="-1.16414">
        <ele>61.247705</ele>
        <time>2022-12-25T14:30:36.373Z</time>
      </trkpt>
      <trkpt lat="44.64985" lon="-1.16427">
        <ele>61.29229</ele>
        <time>2022-12-25T14:30:39.376Z</time>
      </trkpt>
      <trkpt lat="44.64988" lon="-1.1644">
        <ele>61.196675</ele>
        <time>2022-12-25T14:30:42.367Z</time>
      </trkpt>
      <trkpt lat="44.64992" lon="-1.16454">
        <ele>61.093122</ele>
        <time>2022-12-25T14:30:45.376Z</time>
      </trkpt>
      <trkpt lat="44.64997" lon="-1.16465">
        <ele>60.999094</ele>
        <time>2022-12-25T14:30:48.371Z</time>
      </trkpt>
      <trkpt lat="44.65002" lon="-1.1648">
        <ele>60.883383</ele>
        <time>2022-12-25T14:30:52.375Z</time>
      </trkpt>
      <trkpt lat="44.65006" lon="-1.16492">
        <ele>60.793544</ele>
        <time>2022-12-25T14:30:55.366Z</time>
      </trkpt>
      <trkpt lat="44.6501" lon="-1.16504">
        <ele>60.697637</ele>
        <time>2022-12-25T14:30:58.366Z</time>
      </trkpt>
      <trkpt lat="44.65015" lon="-1.16517">
        <ele>60.598359</ele>
        <time>2022-12-25T14:31:01.378Z</time>
      </trkpt>
      <trkpt lat="44.65014" lon="-1.16533">
        <ele>60.489173</ele>
        <time>2022-12-25T14:31:04.376Z</time>
      </trkpt>
      <trkpt lat="44.65014" lon="-1.1655">
        <ele>60.370192</ele>
        <time>2022-12-25T14:31:07.377Z</time>
      </trkpt>
      <trkpt lat="44.65018" lon="-1.16563">
        <ele>60.271264</ele>
        <time>2022-12-25T14:31:10.372Z</time>
      </trkpt>
      <trkpt lat="44.65023" lon="-1.16575">
        <ele>60.16966</ele>
        <time>2022-12-25T14:31:14.382Z</time>
      </trkpt>
      <trkpt lat="44.65028" lon="-1.16588">
        <ele>60.064911</ele>
        <time>2022-12-25T14:31:18.379Z</time>
      </trkpt>
      <trkpt lat="44.65035" lon="-1.16603">
        <ele>59.944449</ele>
        <time>2022-12-25T14:31:22.375Z</time>
      </trkpt>
      <trkpt lat="44.65041" lon="-1.16616">
        <ele>59.834951</ele>
        <time>2022-12-25T14:31:25.384Z</time>
      </trkpt>
      <trkpt lat="44.65048" lon="-1.16626">
        <ele>59.731023</ele>
        <time>2022-12-25T14:31:28.375Z</time>
      </trkpt>
      <trkpt lat="44.65055" lon="-1.16638">
        <ele>59.627221</ele>
        <time>2022-12-25T14:31:32.368Z</time>
      </trkpt>
      <trkpt lat="44.65062" lon="-1.1665">
        <ele>59.519516</ele>
        <time>2022-12-25T14:31:36.387Z</time>
      </trkpt>
      <trkpt lat="44.65068" lon="-1.16663">
        <ele>59.390264</ele>
        <time>2022-12-25T14:31:40.373Z</time>
      </trkpt>
      <trkpt lat="44.65073" lon="-1.16675">
        <ele>59.27777</ele>
        <time>2022-12-25T14:31:43.371Z</time>
      </trkpt>
      <trkpt lat="44.65079" lon="-1.16686">
        <ele>59.167621</ele>
        <time>2022-12-25T14:31:46.361Z</time>
      </trkpt>
      <trkpt lat="44.65086" lon="-1.16698">
        <ele>59.038938</ele>
        <time>2022-12-25T14:31:49.372Z</time>
      </trkpt>
      <trkpt lat="44.65093" lon="-1.16712">
        <ele>58.895898</ele>
        <time>2022-12-25T14:31:52.362Z</time>
      </trkpt>
      <trkpt lat="44.65098" lon="-1.16729">
        <ele>58.751567</ele>
        <time>2022-12-25T14:31:55.363Z</time>
      </trkpt>
      <trkpt lat="44.65103" lon="-1.16745">
        <ele>58.610183</ele>
        <time>2022-12-25T14:31:58.366Z</time>
      </trkpt>
      <trkpt lat="44.65108" lon="-1.16761">
        <ele>58.47298</ele>
        <time>2022-12-25T14:32:01.365Z</time>
      </trkpt>
      <trkpt lat="44.65112" lon="-1.16775">
        <ele>58.348583</ele>
        <time>2022-12-25T14:32:05.365Z</time>
      </trkpt>
      <trkpt lat="44.65115" lon="-1.16788">
        <ele>58.232717</ele>
        <time>2022-12-25T14:32:08.374Z</time>
      </trkpt>
      <trkpt lat="44.65119" lon="-1.16801">
        <ele>58.124806</ele>
        <time>2022-12-25T14:32:11.367Z</time>
      </trkpt>
      <trkpt lat="44.65122" lon="-1.16813">
        <ele>58.01957</ele>
        <time>2022-12-25T14:32:14.372Z</time>
      </trkpt>
      <trkpt lat="44.65125" lon="-1.16826">
        <ele>57.907127</ele>
        <time>2022-12-25T14:32:17.364Z</time>
      </trkpt>
      <trkpt lat="44.6513" lon="-1.16839">
        <ele>57.790674</ele>
        <time>2022-12-25T14:32:20.365Z</time>
      </trkpt>
      <trkpt lat="44.65134" lon="-1.16852">
        <ele>57.675359</ele>
        <time>2022-12-25T14:32:23.373Z</time>
      </trkpt>
      <trkpt lat="44.65138" lon="-1.16865">
        <ele>57.560856</ele>
        <time>2022-12-25T14:32:26.374Z</time>
      </trkpt>
      <trkpt lat="44.65143" lon="-1.16878">
        <ele>57.463868</ele>
        <time>2022-12-25T14:32:29.372Z</time>
      </trkpt>
      <trkpt lat="44.65146" lon="-1.1689">
        <ele>57.39381</ele>
        <time>2022-12-25T14:32:32.364Z</time>
      </trkpt>
      <trkpt lat="44.65151" lon="-1.16902">
        <ele>57.326866</ele>
        <time>2022-12-25T14:32:35.367Z</time>
      </trkpt>
      <trkpt lat="44.65156" lon="-1.16913">
        <ele>57.261157</ele>
        <time>2022-12-25T14:32:38.372Z</time>
      </trkpt>
      <trkpt lat="44.65161" lon="-1.16926">
        <ele>57.181086</ele>
        <time>2022-12-25T14:32:42.367Z</time>
      </trkpt>
      <trkpt lat="44.65165" lon="-1.16939">
        <ele>57.110723</ele>
        <time>2022-12-25T14:32:47.369Z</time>
      </trkpt>
      <trkpt lat="44.6517" lon="-1.16953">
        <ele>57.027961</ele>
        <time>2022-12-25T14:32:51.361Z</time>
      </trkpt>
      <trkpt lat="44.65175" lon="-1.16966">
        <ele>56.951411</ele>
        <time>2022-12-25T14:32:55.367Z</time>
      </trkpt>
      <trkpt lat="44.65181" lon="-1.16977">
        <ele>56.882365</ele>
        <time>2022-12-25T14:32:58.377Z</time>
      </trkpt>
      <trkpt lat="44.65187" lon="-1.16989">
        <ele>56.804903</ele>
        <time>2022-12-25T14:33:02.374Z</time>
      </trkpt>
      <trkpt lat="44.65193" lon="-1.17001">
        <ele>56.729195</ele>
        <time>2022-12-25T14:33:06.390Z</time>
      </trkpt>
      <trkpt lat="44.65199" lon="-1.17015">
        <ele>56.647807</ele>
        <time>2022-12-25T14:33:10.376Z</time>
      </trkpt>
      <trkpt lat="44.65204" lon="-1.17025">
        <ele>56.582973</ele>
        <time>2022-12-25T14:33:14.370Z</time>
      </trkpt>
      <trkpt lat="44.6521" lon="-1.17035">
        <ele>56.515275</ele>
        <time>2022-12-25T14:33:19.383Z</time>
      </trkpt>
      <trkpt lat="44.65217" lon="-1.17048">
        <ele>56.43156</ele>
        <time>2022-12-25T14:33:24.366Z</time>
      </trkpt>
      <trkpt lat="44.65225" lon="-1.17059">
        <ele>56.355034</ele>
        <time>2022-12-25T14:33:28.372Z</time>
      </trkpt>
      <trkpt lat="44.65233" lon="-1.17067">
        <ele>56.28241</ele>
        <time>2022-12-25T14:33:32.361Z</time>
      </trkpt>
      <trkpt lat="44.65241" lon="-1.17075">
        <ele>56.2089</ele>
        <time>2022-12-25T14:33:36.362Z</time>
      </trkpt>
      <trkpt lat="44.65249" lon="-1.17083">
        <ele>56.277938</ele>
        <time>2022-12-25T14:33:40.372Z</time>
      </trkpt>
      <trkpt lat="44.65256" lon="-1.17095">
        <ele>56.401573</ele>
        <time>2022-12-25T14:33:44.369Z</time>
      </trkpt>
      <trkpt lat="44.65264" lon="-1.17106">
        <ele>56.515236</ele>
        <time>2022-12-25T14:33:48.374Z</time>
      </trkpt>
      <trkpt lat="44.65273" lon="-1.17114">
        <ele>56.628793</ele>
        <time>2022-12-25T14:33:52.367Z</time>
      </trkpt>
      <trkpt lat="44.65281" lon="-1.17127">
        <ele>56.754686</ele>
        <time>2022-12-25T14:33:56.372Z</time>
      </trkpt>
      <trkpt lat="44.65283" lon="-1.17142">
        <ele>56.869847</ele>
        <time>2022-12-25T14:34:00.369Z</time>
      </trkpt>
      <trkpt lat="44.65287" lon="-1.17154">
        <ele>56.968424</ele>
        <time>2022-12-25T14:34:03.365Z</time>
      </trkpt>
      <trkpt lat="44.65292" lon="-1.17166">
        <ele>57.070002</ele>
        <time>2022-12-25T14:34:06.370Z</time>
      </trkpt>
      <trkpt lat="44.65296" lon="-1.17177">
        <ele>57.166176</ele>
        <time>2022-12-25T14:34:09.363Z</time>
      </trkpt>
      <trkpt lat="44.65302" lon="-1.17188">
        <ele>57.27136</ele>
        <time>2022-12-25T14:34:13.382Z</time>
      </trkpt>
      <trkpt lat="44.65306" lon="-1.172">
        <ele>57.369465</ele>
        <time>2022-12-25T14:34:17.370Z</time>
      </trkpt>
      <trkpt lat="44.6531" lon="-1.17212">
        <ele>57.468446</ele>
        <time>2022-12-25T14:34:24.377Z</time>
      </trkpt>
      <trkpt lat="44.65311" lon="-1.17225">
        <ele>57.571126</ele>
        <time>2022-12-25T14:35:52.377Z</time>
      </trkpt>
      <trkpt lat="44.65314" lon="-1.1724">
        <ele>57.686591</ele>
        <time>2022-12-25T14:35:57.380Z</time>
      </trkpt>
      <trkpt lat="44.65323" lon="-1.1725">
        <ele>57.801117</ele>
        <time>2022-12-25T14:36:01.373Z</time>
      </trkpt>
      <trkpt lat="44.6533" lon="-1.17258">
        <ele>57.902626</ele>
        <time>2022-12-25T14:36:04.373Z</time>
      </trkpt>
      <trkpt lat="44.65338" lon="-1.1727">
        <ele>58.025139</ele>
        <time>2022-12-25T14:36:08.375Z</time>
      </trkpt>
      <trkpt lat="44.65345" lon="-1.17283">
        <ele>58.086741</ele>
        <time>2022-12-25T14:36:12.373Z</time>
      </trkpt>
      <trkpt lat="44.6535" lon="-1.17295">
        <ele>58.046923</ele>
        <time>2022-12-25T14:36:16.386Z</time>
      </trkpt>
      <trkpt lat="44.65356" lon="-1.17306">
        <ele>58.008224</ele>
        <time>2022-12-25T14:36:20.367Z</time>
      </trkpt>
      <trkpt lat="44.65362" lon="-1.17321">
        <ele>57.959922</ele>
        <time>2022-12-25T14:36:24.381Z</time>
      </trkpt>
      <trkpt lat="44.65367" lon="-1.17333">
        <ele>57.923189</ele>
        <time>2022-12-25T14:36:27.364Z</time>
      </trkpt>
      <trkpt lat="44.65373" lon="-1.17342">
        <ele>57.887546</ele>
        <time>2022-12-25T14:36:30.368Z</time>
      </trkpt>
      <trkpt lat="44.65379" lon="-1.17352">
        <ele>57.852197</ele>
        <time>2022-12-25T14:36:33.364Z</time>
      </trkpt>
      <trkpt lat="44.65384" lon="-1.17365">
        <ele>57.811026</ele>
        <time>2022-12-25T14:36:37.362Z</time>
      </trkpt>
      <trkpt lat="44.65389" lon="-1.17377">
        <ele>57.772919</ele>
        <time>2022-12-25T14:36:41.361Z</time>
      </trkpt>
      <trkpt lat="44.65393" lon="-1.17391">
        <ele>57.731808</ele>
        <time>2022-12-25T14:36:45.366Z</time>
      </trkpt>
      <trkpt lat="44.65398" lon="-1.17403">
        <ele>57.692537</ele>
        <time>2022-12-25T14:36:49.360Z</time>
      </trkpt>
      <trkpt lat="44.65403" lon="-1.17415">
        <ele>57.654488</ele>
        <time>2022-12-25T14:36:53.379Z</time>
      </trkpt>
      <trkpt lat="44.65408" lon="-1.17426">
        <ele>57.61743</ele>
        <time>2022-12-25T14:36:57.371Z</time>
      </trkpt>
      <trkpt lat="44.65418" lon="-1.17436">
        <ele>57.570063</ele>
        <time>2022-12-25T14:37:02.373Z</time>
      </trkpt>
      <trkpt lat="44.65425" lon="-1.1745">
        <ele>57.522614</ele>
        <time>2022-12-25T14:37:05.391Z</time>
      </trkpt>
      <trkpt lat="44.65439" lon="-1.17475">
        <ele>57.435125</ele>
        <time>2022-12-25T14:37:50.374Z</time>
      </trkpt>
      <trkpt lat="44.65447" lon="-1.17486">
        <ele>57.428777</ele>
        <time>2022-12-25T14:37:53.372Z</time>
      </trkpt>
      <trkpt lat="44.65452" lon="-1.17501">
        <ele>57.557495</ele>
        <time>2022-12-25T14:37:56.377Z</time>
      </trkpt>
      <trkpt lat="44.65457" lon="-1.17515">
        <ele>57.676961</ele>
        <time>2022-12-25T14:37:59.378Z</time>
      </trkpt>
      <trkpt lat="44.65461" lon="-1.17528">
        <ele>57.787945</ele>
        <time>2022-12-25T14:38:03.360Z</time>
      </trkpt>
      <trkpt lat="44.65458" lon="-1.17541">
        <ele>57.889678</ele>
        <time>2022-12-25T14:38:08.367Z</time>
      </trkpt>
      <trkpt lat="44.65453" lon="-1.17552">
        <ele>57.994658</ele>
        <time>2022-12-25T14:38:18.364Z</time>
      </trkpt>
      <trkpt lat="44.65445" lon="-1.17561">
        <ele>58.098983</ele>
        <time>2022-12-25T14:38:29.370Z</time>
      </trkpt>
      <trkpt lat="44.65438" lon="-1.1757">
        <ele>58.19926</ele>
        <time>2022-12-25T14:38:38.370Z</time>
      </trkpt>
      <trkpt lat="44.65439" lon="-1.17584">
        <ele>58.30344</ele>
        <time>2022-12-25T14:38:54.376Z</time>
      </trkpt>
      <trkpt lat="44.65444" lon="-1.17594">
        <ele>58.399617</ele>
        <time>2022-12-25T14:38:58.376Z</time>
      </trkpt>
      <trkpt lat="44.65451" lon="-1.17602">
        <ele>58.496479</ele>
        <time>2022-12-25T14:39:02.379Z</time>
      </trkpt>
      <trkpt lat="44.65458" lon="-1.17615">
        <ele>58.623185</ele>
        <time>2022-12-25T14:39:06.369Z</time>
      </trkpt>
      <trkpt lat="44.65462" lon="-1.17629">
        <ele>58.7387</ele>
        <time>2022-12-25T14:39:10.366Z</time>
      </trkpt>
      <trkpt lat="44.65467" lon="-1.1764">
        <ele>58.838648</ele>
        <time>2022-12-25T14:39:13.364Z</time>
      </trkpt>
      <trkpt lat="44.65474" lon="-1.17652">
        <ele>58.957679</ele>
        <time>2022-12-25T14:39:17.377Z</time>
      </trkpt>
      <trkpt lat="44.65483" lon="-1.17665">
        <ele>59.093973</ele>
        <time>2022-12-25T14:39:22.369Z</time>
      </trkpt>
      <trkpt lat="44.65489" lon="-1.1768">
        <ele>59.225279</ele>
        <time>2022-12-25T14:39:25.382Z</time>
      </trkpt>
      <trkpt lat="44.65492" lon="-1.17692">
        <ele>59.327936</ele>
        <time>2022-12-25T14:39:27.365Z</time>
      </trkpt>
      <trkpt lat="44.65488" lon="-1.17709">
        <ele>59.308861</ele>
        <time>2022-12-25T14:39:30.364Z</time>
      </trkpt>
      <trkpt lat="44.65481" lon="-1.17719">
        <ele>59.283928</ele>
        <time>2022-12-25T14:39:33.508Z</time>
      </trkpt>
      <trkpt lat="44.65473" lon="-1.17727">
        <ele>59.259639</ele>
        <time>2022-12-25T14:39:37.364Z</time>
      </trkpt>
      <trkpt lat="44.65467" lon="-1.17736">
        <ele>59.236994</ele>
        <time>2022-12-25T14:39:41.366Z</time>
      </trkpt>
      <trkpt lat="44.65462" lon="-1.17748">
        <ele>59.21325</ele>
        <time>2022-12-25T14:39:45.374Z</time>
      </trkpt>
      <trkpt lat="44.65457" lon="-1.17759">
        <ele>59.189033</ele>
        <time>2022-12-25T14:39:49.367Z</time>
      </trkpt>
      <trkpt lat="44.65452" lon="-1.17773">
        <ele>59.162106</ele>
        <time>2022-12-25T14:39:54.376Z</time>
      </trkpt>
      <trkpt lat="44.65445" lon="-1.17785">
        <ele>59.134491</ele>
        <time>2022-12-25T14:39:59.389Z</time>
      </trkpt>
      <trkpt lat="44.65439" lon="-1.17796">
        <ele>59.110359</ele>
        <time>2022-12-25T14:40:03.387Z</time>
      </trkpt>
      <trkpt lat="44.65432" lon="-1.17807">
        <ele>59.084313</ele>
        <time>2022-12-25T14:40:07.374Z</time>
      </trkpt>
      <trkpt lat="44.65425" lon="-1.17818">
        <ele>59.058008</ele>
        <time>2022-12-25T14:40:11.383Z</time>
      </trkpt>
      <trkpt lat="44.65418" lon="-1.17831">
        <ele>59.029175</ele>
        <time>2022-12-25T14:40:15.381Z</time>
      </trkpt>
      <trkpt lat="44.65411" lon="-1.17843">
        <ele>59.001121</ele>
        <time>2022-12-25T14:40:19.372Z</time>
      </trkpt>
      <trkpt lat="44.65406" lon="-1.17853">
        <ele>58.978412</ele>
        <time>2022-12-25T14:40:22.380Z</time>
      </trkpt>
      <trkpt lat="44.65397" lon="-1.17871">
        <ele>58.94154</ele>
        <time>2022-12-25T14:40:25.379Z</time>
      </trkpt>
      <trkpt lat="44.65391" lon="-1.17881">
        <ele>58.918352</ele>
        <time>2022-12-25T14:40:28.381Z</time>
      </trkpt>
      <trkpt lat="44.65384" lon="-1.17893">
        <ele>58.890264</ele>
        <time>2022-12-25T14:40:31.374Z</time>
      </trkpt>
      <trkpt lat="44.65379" lon="-1.17904">
        <ele>58.63836</ele>
        <time>2022-12-25T14:40:34.379Z</time>
      </trkpt>
      <trkpt lat="44.65373" lon="-1.17914">
        <ele>58.362562</ele>
        <time>2022-12-25T14:40:37.374Z</time>
      </trkpt>
      <trkpt lat="44.65366" lon="-1.17926">
        <ele>58.056354</ele>
        <time>2022-12-25T14:40:40.372Z</time>
      </trkpt>
      <trkpt lat="44.6536" lon="-1.1794">
        <ele>57.70897</ele>
        <time>2022-12-25T14:40:43.368Z</time>
      </trkpt>
      <trkpt lat="44.65353" lon="-1.17956">
        <ele>57.33921</ele>
        <time>2022-12-25T14:40:46.378Z</time>
      </trkpt>
      <trkpt lat="44.65347" lon="-1.17966">
        <ele>57.074917</ele>
        <time>2022-12-25T14:40:48.369Z</time>
      </trkpt>
      <trkpt lat="44.65341" lon="-1.17978">
        <ele>56.768897</ele>
        <time>2022-12-25T14:40:50.368Z</time>
      </trkpt>
      <trkpt lat="44.65333" lon="-1.17993">
        <ele>56.39677</ele>
        <time>2022-12-25T14:40:52.369Z</time>
      </trkpt>
      <trkpt lat="44.65327" lon="-1.18008">
        <ele>56.041925</ele>
        <time>2022-12-25T14:40:54.368Z</time>
      </trkpt>
      <trkpt lat="44.6532" lon="-1.18022">
        <ele>55.692301</ele>
        <time>2022-12-25T14:40:56.370Z</time>
      </trkpt>
      <trkpt lat="44.65313" lon="-1.18038">
        <ele>55.306893</ele>
        <time>2022-12-25T14:40:58.368Z</time>
      </trkpt>
      <trkpt lat="44.65305" lon="-1.18054">
        <ele>54.902878</ele>
        <time>2022-12-25T14:41:00.361Z</time>
      </trkpt>
      <trkpt lat="44.65296" lon="-1.18066">
        <ele>54.550864</ele>
        <time>2022-12-25T14:41:02.379Z</time>
      </trkpt>
      <trkpt lat="44.6529" lon="-1.18079">
        <ele>54.245126</ele>
        <time>2022-12-25T14:41:04.364Z</time>
      </trkpt>
      <trkpt lat="44.65281" lon="-1.18089">
        <ele>53.917338</ele>
        <time>2022-12-25T14:41:07.386Z</time>
      </trkpt>
      <trkpt lat="44.65274" lon="-1.181">
        <ele>53.836092</ele>
        <time>2022-12-25T14:41:11.382Z</time>
      </trkpt>
      <trkpt lat="44.65266" lon="-1.18107">
        <ele>54.04075</ele>
        <time>2022-12-25T14:41:15.369Z</time>
      </trkpt>
      <trkpt lat="44.65256" lon="-1.18109">
        <ele>54.24992</ele>
        <time>2022-12-25T14:41:20.381Z</time>
      </trkpt>
      <trkpt lat="44.65251" lon="-1.18098">
        <ele>54.450463</ele>
        <time>2022-12-25T14:41:25.375Z</time>
      </trkpt>
      <trkpt lat="44.65248" lon="-1.18083">
        <ele>54.699727</ele>
        <time>2022-12-25T14:41:30.371Z</time>
      </trkpt>
      <trkpt lat="44.65246" lon="-1.18067">
        <ele>54.956603</ele>
        <time>2022-12-25T14:41:34.363Z</time>
      </trkpt>
      <trkpt lat="44.65242" lon="-1.18051">
        <ele>55.218247</ele>
        <time>2022-12-25T14:41:38.372Z</time>
      </trkpt>
      <trkpt lat="44.65241" lon="-1.18038">
        <ele>55.419398</ele>
        <time>2022-12-25T14:41:43.376Z</time>
      </trkpt>
      <trkpt lat="44.65238" lon="-1.18023">
        <ele>55.661137</ele>
        <time>2022-12-25T14:41:47.365Z</time>
      </trkpt>
      <trkpt lat="44.65235" lon="-1.1801">
        <ele>55.882641</ele>
        <time>2022-12-25T14:41:50.364Z</time>
      </trkpt>
      <trkpt lat="44.65233" lon="-1.17997">
        <ele>56.085903</ele>
        <time>2022-12-25T14:41:53.362Z</time>
      </trkpt>
      <trkpt lat="44.65232" lon="-1.17982">
        <ele>56.32666</ele>
        <time>2022-12-25T14:41:57.367Z</time>
      </trkpt>
      <trkpt lat="44.65229" lon="-1.17966">
        <ele>56.589925</ele>
        <time>2022-12-25T14:42:01.379Z</time>
      </trkpt>
      <trkpt lat="44.65226" lon="-1.17952">
        <ele>56.820809</ele>
        <time>2022-12-25T14:42:04.361Z</time>
      </trkpt>
      <trkpt lat="44.65223" lon="-1.17939">
        <ele>57.039316</ele>
        <time>2022-12-25T14:42:08.373Z</time>
      </trkpt>
      <trkpt lat="44.65223" lon="-1.17912">
        <ele>57.454822</ele>
        <time>2022-12-25T14:42:52.385Z</time>
      </trkpt>
      <trkpt lat="44.65222" lon="-1.17898">
        <ele>57.682261</ele>
        <time>2022-12-25T14:42:56.382Z</time>
      </trkpt>
      <trkpt lat="44.65219" lon="-1.17881">
        <ele>58.225956</ele>
        <time>2022-12-25T14:43:00.387Z</time>
      </trkpt>
      <trkpt lat="44.65217" lon="-1.17869">
        <ele>58.648796</ele>
        <time>2022-12-25T14:43:03.375Z</time>
      </trkpt>
      <trkpt lat="44.65215" lon="-1.17856">
        <ele>59.08055</ele>
        <time>2022-12-25T14:43:07.367Z</time>
      </trkpt>
      <trkpt lat="44.65215" lon="-1.17843">
        <ele>59.530622</ele>
        <time>2022-12-25T14:43:12.366Z</time>
      </trkpt>
      <trkpt lat="44.65213" lon="-1.17829">
        <ele>59.989194</ele>
        <time>2022-12-25T14:43:17.379Z</time>
      </trkpt>
      <trkpt lat="44.65211" lon="-1.17814">
        <ele>60.489272</ele>
        <time>2022-12-25T14:43:23.380Z</time>
      </trkpt>
      <trkpt lat="44.65208" lon="-1.17801">
        <ele>60.947761</ele>
        <time>2022-12-25T14:43:28.367Z</time>
      </trkpt>
      <trkpt lat="44.65208" lon="-1.17788">
        <ele>61.382092</ele>
        <time>2022-12-25T14:43:34.368Z</time>
      </trkpt>
      <trkpt lat="44.65205" lon="-1.17774">
        <ele>61.865295</ele>
        <time>2022-12-25T14:43:39.368Z</time>
      </trkpt>
      <trkpt lat="44.65202" lon="-1.17761">
        <ele>62.333738</ele>
        <time>2022-12-25T14:43:45.390Z</time>
      </trkpt>
      <trkpt lat="44.65199" lon="-1.17747">
        <ele>62.790524</ele>
        <time>2022-12-25T14:43:52.374Z</time>
      </trkpt>
      <trkpt lat="44.65197" lon="-1.17733">
        <ele>63.264497</ele>
        <time>2022-12-25T14:43:58.367Z</time>
      </trkpt>
      <trkpt lat="44.65197" lon="-1.17719">
        <ele>63.724612</ele>
        <time>2022-12-25T14:44:07.392Z</time>
      </trkpt>
      <trkpt lat="44.65194" lon="-1.17705">
        <ele>64.233345</ele>
        <time>2022-12-25T14:44:13.376Z</time>
      </trkpt>
      <trkpt lat="44.65192" lon="-1.17691">
        <ele>64.678694</ele>
        <time>2022-12-25T14:44:19.379Z</time>
      </trkpt>
      <trkpt lat="44.65188" lon="-1.17678">
        <ele>65.165025</ele>
        <time>2022-12-25T14:44:25.371Z</time>
      </trkpt>
      <trkpt lat="44.65185" lon="-1.17665">
        <ele>65.609274</ele>
        <time>2022-12-25T14:44:32.373Z</time>
      </trkpt>
      <trkpt lat="44.65183" lon="-1.17652">
        <ele>66.042877</ele>
        <time>2022-12-25T14:44:39.376Z</time>
      </trkpt>
      <trkpt lat="44.65182" lon="-1.17638">
        <ele>66.061352</ele>
        <time>2022-12-25T14:44:46.375Z</time>
      </trkpt>
      <trkpt lat="44.6518" lon="-1.17624">
        <ele>66.061352</ele>
        <time>2022-12-25T14:44:54.371Z</time>
      </trkpt>
      <trkpt lat="44.65177" lon="-1.1761">
        <ele>66.061352</ele>
        <time>2022-12-25T14:45:00.367Z</time>
      </trkpt>
      <trkpt lat="44.65174" lon="-1.17596">
        <ele>66.061352</ele>
        <time>2022-12-25T14:45:06.367Z</time>
      </trkpt>
      <trkpt lat="44.65171" lon="-1.17582">
        <ele>66.061352</ele>
        <time>2022-12-25T14:45:12.392Z</time>
      </trkpt>
      <trkpt lat="44.6517" lon="-1.17569">
        <ele>66.061352</ele>
        <time>2022-12-25T14:45:19.369Z</time>
      </trkpt>
      <trkpt lat="44.65167" lon="-1.17556">
        <ele>66.061352</ele>
        <time>2022-12-25T14:45:24.385Z</time>
      </trkpt>
      <trkpt lat="44.65164" lon="-1.17542">
        <ele>66.061352</ele>
        <time>2022-12-25T14:45:30.364Z</time>
      </trkpt>
      <trkpt lat="44.65161" lon="-1.1753">
        <ele>66.061352</ele>
        <time>2022-12-25T14:45:35.371Z</time>
      </trkpt>
      <trkpt lat="44.65159" lon="-1.17516">
        <ele>66.061352</ele>
        <time>2022-12-25T14:45:41.380Z</time>
      </trkpt>
      <trkpt lat="44.65158" lon="-1.17502">
        <ele>66.061352</ele>
        <time>2022-12-25T14:45:47.376Z</time>
      </trkpt>
      <trkpt lat="44.65156" lon="-1.17489">
        <ele>66.061352</ele>
        <time>2022-12-25T14:45:52.369Z</time>
      </trkpt>
      <trkpt lat="44.65154" lon="-1.17474">
        <ele>66.061352</ele>
        <time>2022-12-25T14:45:58.377Z</time>
      </trkpt>
      <trkpt lat="44.65151" lon="-1.1746">
        <ele>66.061352</ele>
        <time>2022-12-25T14:46:04.385Z</time>
      </trkpt>
      <trkpt lat="44.65149" lon="-1.17447">
        <ele>66.061352</ele>
        <time>2022-12-25T14:46:09.373Z</time>
      </trkpt>
      <trkpt lat="44.65146" lon="-1.17434">
        <ele>66.061352</ele>
        <time>2022-12-25T14:46:15.373Z</time>
      </trkpt>
      <trkpt lat="44.65145" lon="-1.17427">
        <ele>66.061352</ele>
        <time>2022-12-25T14:46:29.671Z</time>
        <extensions>
          <visugpx:TrkExtension xmlns:visugpx="https://www.visugpx.com/editgpx/">
            <visugpx:node>1</visugpx:node>
            </visugpx:TrkExtension>
        </extensions>
      </trkpt>
    </trkseg>
  </trk>
  <trk>
    <name><![CDATA[Arcachon - La Teste de Buch]]></name>
    <extensions>
      <line xmlns="http://www.topografix.com/GPX/gpx_style/0/2">
        <color>ff0000</color>
        <width>4</width>
      </line>
    </extensions>
    <trkseg>
      <trkpt lat="44.65136" lon="-1.174">
        <ele>77.097072</ele>
        <time>2022-12-26T08:21:22.143Z</time>
      </trkpt>
      <trkpt lat="44.65144" lon="-1.17409">
        <ele>77.097072</ele>
        <time>2022-12-26T08:21:37.201Z</time>
      </trkpt>
      <trkpt lat="44.6515" lon="-1.17418">
        <ele>77.097072</ele>
        <time>2022-12-26T08:22:00.188Z</time>
      </trkpt>
      <trkpt lat="44.65152" lon="-1.17435">
        <ele>77.097072</ele>
        <time>2022-12-26T08:22:05.190Z</time>
      </trkpt>
      <trkpt lat="44.65155" lon="-1.17451">
        <ele>77.097072</ele>
        <time>2022-12-26T08:22:09.212Z</time>
      </trkpt>
      <trkpt lat="44.65157" lon="-1.17466">
        <ele>77.097072</ele>
        <time>2022-12-26T08:22:13.212Z</time>
      </trkpt>
      <trkpt lat="44.6516" lon="-1.17479">
        <ele>77.097072</ele>
        <time>2022-12-26T08:22:16.217Z</time>
      </trkpt>
      <trkpt lat="44.65161" lon="-1.17492">
        <ele>77.097072</ele>
        <time>2022-12-26T08:22:19.214Z</time>
      </trkpt>
      <trkpt lat="44.65163" lon="-1.17504">
        <ele>77.097072</ele>
        <time>2022-12-26T08:22:22.201Z</time>
      </trkpt>
      <trkpt lat="44.65166" lon="-1.17517">
        <ele>76.996381</ele>
        <time>2022-12-26T08:22:25.207Z</time>
      </trkpt>
      <trkpt lat="44.65168" lon="-1.17532">
        <ele>75.987717</ele>
        <time>2022-12-26T08:22:28.216Z</time>
      </trkpt>
      <trkpt lat="44.6517" lon="-1.17547">
        <ele>74.960941</ele>
        <time>2022-12-26T08:22:31.207Z</time>
      </trkpt>
      <trkpt lat="44.65172" lon="-1.17561">
        <ele>73.950629</ele>
        <time>2022-12-26T08:22:34.214Z</time>
      </trkpt>
      <trkpt lat="44.65175" lon="-1.17577">
        <ele>72.872244</ele>
        <time>2022-12-26T08:22:37.215Z</time>
      </trkpt>
      <trkpt lat="44.65177" lon="-1.17592">
        <ele>71.837019</ele>
        <time>2022-12-26T08:22:40.214Z</time>
      </trkpt>
      <trkpt lat="44.65179" lon="-1.17607">
        <ele>70.74859</ele>
        <time>2022-12-26T08:22:43.216Z</time>
      </trkpt>
      <trkpt lat="44.65181" lon="-1.17621">
        <ele>69.826048</ele>
        <time>2022-12-26T08:22:46.189Z</time>
      </trkpt>
      <trkpt lat="44.65183" lon="-1.17636">
        <ele>68.770884</ele>
        <time>2022-12-26T08:22:50.216Z</time>
      </trkpt>
      <trkpt lat="44.65186" lon="-1.17651">
        <ele>67.748317</ele>
        <time>2022-12-26T08:22:54.182Z</time>
      </trkpt>
      <trkpt lat="44.65189" lon="-1.17665">
        <ele>66.757019</ele>
        <time>2022-12-26T08:22:58.194Z</time>
      </trkpt>
      <trkpt lat="44.65192" lon="-1.17679">
        <ele>65.755504</ele>
        <time>2022-12-26T08:23:02.218Z</time>
      </trkpt>
      <trkpt lat="44.65194" lon="-1.17695">
        <ele>64.643696</ele>
        <time>2022-12-26T08:23:06.209Z</time>
      </trkpt>
      <trkpt lat="44.65196" lon="-1.17709">
        <ele>63.695242</ele>
        <time>2022-12-26T08:23:09.185Z</time>
      </trkpt>
      <trkpt lat="44.65199" lon="-1.17724">
        <ele>62.611673</ele>
        <time>2022-12-26T08:23:12.203Z</time>
      </trkpt>
      <trkpt lat="44.65201" lon="-1.17739">
        <ele>61.633246</ele>
        <time>2022-12-26T08:23:15.213Z</time>
      </trkpt>
      <trkpt lat="44.65203" lon="-1.17754">
        <ele>60.586507</ele>
        <time>2022-12-26T08:23:19.202Z</time>
      </trkpt>
      <trkpt lat="44.65206" lon="-1.17769">
        <ele>59.805429</ele>
        <time>2022-12-26T08:23:23.211Z</time>
      </trkpt>
      <trkpt lat="44.65208" lon="-1.17782">
        <ele>59.484143</ele>
        <time>2022-12-26T08:23:26.184Z</time>
      </trkpt>
      <trkpt lat="44.6521" lon="-1.17795">
        <ele>59.161934</ele>
        <time>2022-12-26T08:23:29.200Z</time>
      </trkpt>
      <trkpt lat="44.65211" lon="-1.17808">
        <ele>58.834449</ele>
        <time>2022-12-26T08:23:32.216Z</time>
      </trkpt>
      <trkpt lat="44.65214" lon="-1.17823">
        <ele>58.464987</ele>
        <time>2022-12-26T08:23:35.191Z</time>
      </trkpt>
      <trkpt lat="44.65217" lon="-1.1784">
        <ele>58.043704</ele>
        <time>2022-12-26T08:23:38.215Z</time>
      </trkpt>
      <trkpt lat="44.65219" lon="-1.17853">
        <ele>57.713759</ele>
        <time>2022-12-26T08:23:40.212Z</time>
      </trkpt>
      <trkpt lat="44.65222" lon="-1.17869">
        <ele>57.323158</ele>
        <time>2022-12-26T08:23:42.205Z</time>
      </trkpt>
      <trkpt lat="44.65225" lon="-1.17884">
        <ele>56.939607</ele>
        <time>2022-12-26T08:23:44.190Z</time>
      </trkpt>
      <trkpt lat="44.65227" lon="-1.17898">
        <ele>56.592927</ele>
        <time>2022-12-26T08:23:46.213Z</time>
      </trkpt>
      <trkpt lat="44.65228" lon="-1.17912">
        <ele>56.259465</ele>
        <time>2022-12-26T08:23:48.190Z</time>
      </trkpt>
      <trkpt lat="44.6523" lon="-1.17929">
        <ele>55.832286</ele>
        <time>2022-12-26T08:23:51.214Z</time>
      </trkpt>
      <trkpt lat="44.65232" lon="-1.17944">
        <ele>55.464496</ele>
        <time>2022-12-26T08:23:54.191Z</time>
      </trkpt>
      <trkpt lat="44.65233" lon="-1.17958">
        <ele>55.130139</ele>
        <time>2022-12-26T08:23:57.212Z</time>
      </trkpt>
      <trkpt lat="44.65235" lon="-1.17972">
        <ele>54.770884</ele>
        <time>2022-12-26T08:24:01.197Z</time>
      </trkpt>
      <trkpt lat="44.65237" lon="-1.17986">
        <ele>54.426584</ele>
        <time>2022-12-26T08:24:05.190Z</time>
      </trkpt>
      <trkpt lat="44.65239" lon="-1.18002">
        <ele>54.027969</ele>
        <time>2022-12-26T08:24:09.186Z</time>
      </trkpt>
      <trkpt lat="44.65241" lon="-1.18015">
        <ele>53.943858</ele>
        <time>2022-12-26T08:24:12.215Z</time>
      </trkpt>
      <trkpt lat="44.65243" lon="-1.18027">
        <ele>54.205929</ele>
        <time>2022-12-26T08:24:15.206Z</time>
      </trkpt>
      <trkpt lat="44.65246" lon="-1.18041">
        <ele>54.494237</ele>
        <time>2022-12-26T08:24:18.214Z</time>
      </trkpt>
      <trkpt lat="44.65248" lon="-1.18055">
        <ele>54.801466</ele>
        <time>2022-12-26T08:24:21.191Z</time>
      </trkpt>
      <trkpt lat="44.65251" lon="-1.18069">
        <ele>55.090053</ele>
        <time>2022-12-26T08:24:24.197Z</time>
      </trkpt>
      <trkpt lat="44.65254" lon="-1.18084">
        <ele>55.420501</ele>
        <time>2022-12-26T08:24:28.211Z</time>
      </trkpt>
      <trkpt lat="44.65256" lon="-1.18097">
        <ele>55.687293</ele>
        <time>2022-12-26T08:24:32.213Z</time>
      </trkpt>
      <trkpt lat="44.65263" lon="-1.18115">
        <ele>56.126257</ele>
        <time>2022-12-26T08:25:11.216Z</time>
      </trkpt>
      <trkpt lat="44.65268" lon="-1.18127">
        <ele>56.406519</ele>
        <time>2022-12-26T08:25:15.200Z</time>
      </trkpt>
      <trkpt lat="44.65259" lon="-1.18134">
        <ele>56.709376</ele>
        <time>2022-12-26T08:25:20.210Z</time>
      </trkpt>
      <trkpt lat="44.6525" lon="-1.18132">
        <ele>56.976914</ele>
        <time>2022-12-26T08:25:24.202Z</time>
      </trkpt>
      <trkpt lat="44.6524" lon="-1.18129">
        <ele>57.281891</ele>
        <time>2022-12-26T08:25:29.208Z</time>
      </trkpt>
      <trkpt lat="44.65231" lon="-1.18121">
        <ele>57.581324</ele>
        <time>2022-12-26T08:25:34.201Z</time>
      </trkpt>
      <trkpt lat="44.65223" lon="-1.18112">
        <ele>57.872201</ele>
        <time>2022-12-26T08:25:39.193Z</time>
      </trkpt>
      <trkpt lat="44.65215" lon="-1.18102">
        <ele>58.191994</ele>
        <time>2022-12-26T08:25:44.196Z</time>
      </trkpt>
      <trkpt lat="44.65207" lon="-1.18092">
        <ele>58.504433</ele>
        <time>2022-12-26T08:25:49.195Z</time>
      </trkpt>
      <trkpt lat="44.65199" lon="-1.18081">
        <ele>58.818155</ele>
        <time>2022-12-26T08:25:55.195Z</time>
      </trkpt>
      <trkpt lat="44.65191" lon="-1.18073">
        <ele>59.115622</ele>
        <time>2022-12-26T08:25:59.200Z</time>
      </trkpt>
      <trkpt lat="44.65184" lon="-1.18064">
        <ele>59.488444</ele>
        <time>2022-12-26T08:26:04.206Z</time>
      </trkpt>
      <trkpt lat="44.65176" lon="-1.18055">
        <ele>59.871831</ele>
        <time>2022-12-26T08:26:09.206Z</time>
      </trkpt>
      <trkpt lat="44.65167" lon="-1.18048">
        <ele>60.261026</ele>
        <time>2022-12-26T08:26:14.215Z</time>
      </trkpt>
      <trkpt lat="44.65159" lon="-1.18042">
        <ele>60.612997</ele>
        <time>2022-12-26T08:26:19.206Z</time>
      </trkpt>
      <trkpt lat="44.65151" lon="-1.18035">
        <ele>60.98227</ele>
        <time>2022-12-26T08:26:24.205Z</time>
      </trkpt>
      <trkpt lat="44.65142" lon="-1.18028">
        <ele>61.363482</ele>
        <time>2022-12-26T08:26:29.200Z</time>
      </trkpt>
      <trkpt lat="44.65133" lon="-1.18024">
        <ele>61.730729</ele>
        <time>2022-12-26T08:26:34.198Z</time>
      </trkpt>
      <trkpt lat="44.65123" lon="-1.18017">
        <ele>62.151177</ele>
        <time>2022-12-26T08:26:39.212Z</time>
      </trkpt>
      <trkpt lat="44.65113" lon="-1.1801">
        <ele>62.579626</ele>
        <time>2022-12-26T08:26:44.197Z</time>
      </trkpt>
      <trkpt lat="44.65105" lon="-1.18005">
        <ele>62.929202</ele>
        <time>2022-12-26T08:26:48.199Z</time>
      </trkpt>
      <trkpt lat="44.65096" lon="-1.18">
        <ele>63.275241</ele>
        <time>2022-12-26T08:26:52.199Z</time>
      </trkpt>
      <trkpt lat="44.65086" lon="-1.17994">
        <ele>63.681029</ele>
        <time>2022-12-26T08:26:57.201Z</time>
      </trkpt>
      <trkpt lat="44.65077" lon="-1.17989">
        <ele>64.05489</ele>
        <time>2022-12-26T08:27:01.205Z</time>
      </trkpt>
      <trkpt lat="44.65069" lon="-1.17985">
        <ele>64.408666</ele>
        <time>2022-12-26T08:27:05.202Z</time>
      </trkpt>
      <trkpt lat="44.65058" lon="-1.17981">
        <ele>64.821609</ele>
        <time>2022-12-26T08:27:09.196Z</time>
      </trkpt>
      <trkpt lat="44.65047" lon="-1.17976">
        <ele>65.267667</ele>
        <time>2022-12-26T08:27:13.197Z</time>
      </trkpt>
      <trkpt lat="44.65038" lon="-1.17973">
        <ele>65.622621</ele>
        <time>2022-12-26T08:27:16.202Z</time>
      </trkpt>
      <trkpt lat="44.65027" lon="-1.17968">
        <ele>66.015781</ele>
        <time>2022-12-26T08:27:20.195Z</time>
      </trkpt>
      <trkpt lat="44.65018" lon="-1.17964">
        <ele>66.274496</ele>
        <time>2022-12-26T08:27:24.196Z</time>
      </trkpt>
      <trkpt lat="44.65009" lon="-1.1796">
        <ele>66.543683</ele>
        <time>2022-12-26T08:27:28.203Z</time>
      </trkpt>
      <trkpt lat="44.64999" lon="-1.1796">
        <ele>66.816566</ele>
        <time>2022-12-26T08:27:32.203Z</time>
      </trkpt>
      <trkpt lat="44.6499" lon="-1.17957">
        <ele>67.085571</ele>
        <time>2022-12-26T08:27:36.201Z</time>
      </trkpt>
      <trkpt lat="44.64981" lon="-1.17949">
        <ele>67.369171</ele>
        <time>2022-12-26T08:27:40.198Z</time>
      </trkpt>
      <trkpt lat="44.64971" lon="-1.17943">
        <ele>67.654484</ele>
        <time>2022-12-26T08:27:44.196Z</time>
      </trkpt>
      <trkpt lat="44.6496" lon="-1.17939">
        <ele>67.971777</ele>
        <time>2022-12-26T08:27:49.196Z</time>
      </trkpt>
      <trkpt lat="44.64951" lon="-1.17933">
        <ele>68.247594</ele>
        <time>2022-12-26T08:27:53.211Z</time>
      </trkpt>
      <trkpt lat="44.64941" lon="-1.1793">
        <ele>68.525762</ele>
        <time>2022-12-26T08:27:57.195Z</time>
      </trkpt>
      <trkpt lat="44.64932" lon="-1.17927">
        <ele>68.793736</ele>
        <time>2022-12-26T08:28:01.198Z</time>
      </trkpt>
      <trkpt lat="44.64922" lon="-1.17922">
        <ele>69.075508</ele>
        <time>2022-12-26T08:28:05.199Z</time>
      </trkpt>
      <trkpt lat="44.64912" lon="-1.17919">
        <ele>69.366809</ele>
        <time>2022-12-26T08:28:09.197Z</time>
      </trkpt>
      <trkpt lat="44.64902" lon="-1.17915">
        <ele>69.654437</ele>
        <time>2022-12-26T08:28:13.200Z</time>
      </trkpt>
      <trkpt lat="44.64892" lon="-1.17912">
        <ele>69.926201</ele>
        <time>2022-12-26T08:28:17.196Z</time>
      </trkpt>
      <trkpt lat="44.64882" lon="-1.17909">
        <ele>70.200772</ele>
        <time>2022-12-26T08:28:21.197Z</time>
      </trkpt>
      <trkpt lat="44.64873" lon="-1.17906">
        <ele>70.466598</ele>
        <time>2022-12-26T08:28:25.202Z</time>
      </trkpt>
      <trkpt lat="44.64862" lon="-1.17903">
        <ele>70.776084</ele>
        <time>2022-12-26T08:28:30.201Z</time>
      </trkpt>
      <trkpt lat="44.64852" lon="-1.17899">
        <ele>70.767424</ele>
        <time>2022-12-26T08:28:34.197Z</time>
      </trkpt>
      <trkpt lat="44.64842" lon="-1.17896">
        <ele>70.597078</ele>
        <time>2022-12-26T08:28:38.200Z</time>
      </trkpt>
      <trkpt lat="44.64832" lon="-1.17893">
        <ele>70.410948</ele>
        <time>2022-12-26T08:28:42.197Z</time>
      </trkpt>
      <trkpt lat="44.64823" lon="-1.1789">
        <ele>70.255676</ele>
        <time>2022-12-26T08:28:45.198Z</time>
      </trkpt>
      <trkpt lat="44.64813" lon="-1.17887">
        <ele>70.082455</ele>
        <time>2022-12-26T08:28:48.194Z</time>
      </trkpt>
      <trkpt lat="44.64803" lon="-1.17884">
        <ele>69.897503</ele>
        <time>2022-12-26T08:28:51.211Z</time>
      </trkpt>
      <trkpt lat="44.64792" lon="-1.17881">
        <ele>69.701942</ele>
        <time>2022-12-26T08:28:54.203Z</time>
      </trkpt>
      <trkpt lat="44.64779" lon="-1.17878">
        <ele>69.472669</ele>
        <time>2022-12-26T08:28:57.203Z</time>
      </trkpt>
      <trkpt lat="44.64766" lon="-1.17873">
        <ele>69.242737</ele>
        <time>2022-12-26T08:29:00.201Z</time>
      </trkpt>
      <trkpt lat="44.64757" lon="-1.1787">
        <ele>69.080548</ele>
        <time>2022-12-26T08:29:02.198Z</time>
      </trkpt>
      <trkpt lat="44.64748" lon="-1.17868">
        <ele>68.923093</ele>
        <time>2022-12-26T08:29:04.198Z</time>
      </trkpt>
      <trkpt lat="44.64738" lon="-1.17865">
        <ele>68.749621</ele>
        <time>2022-12-26T08:29:06.196Z</time>
      </trkpt>
      <trkpt lat="44.64728" lon="-1.17862">
        <ele>68.575625</ele>
        <time>2022-12-26T08:29:08.188Z</time>
      </trkpt>
      <trkpt lat="44.64719" lon="-1.17859">
        <ele>68.405797</ele>
        <time>2022-12-26T08:29:10.200Z</time>
      </trkpt>
      <trkpt lat="44.64708" lon="-1.17855">
        <ele>68.213817</ele>
        <time>2022-12-26T08:29:12.197Z</time>
      </trkpt>
      <trkpt lat="44.64697" lon="-1.17853">
        <ele>68.030441</ele>
        <time>2022-12-26T08:29:14.201Z</time>
      </trkpt>
      <trkpt lat="44.64687" lon="-1.17851">
        <ele>67.841916</ele>
        <time>2022-12-26T08:29:16.195Z</time>
      </trkpt>
      <trkpt lat="44.64676" lon="-1.17847">
        <ele>67.767404</ele>
        <time>2022-12-26T08:29:18.199Z</time>
      </trkpt>
      <trkpt lat="44.64665" lon="-1.17843">
        <ele>67.767583</ele>
        <time>2022-12-26T08:29:20.201Z</time>
      </trkpt>
      <trkpt lat="44.64656" lon="-1.1784">
        <ele>67.767739</ele>
        <time>2022-12-26T08:29:22.199Z</time>
      </trkpt>
      <trkpt lat="44.64646" lon="-1.17837">
        <ele>67.767899</ele>
        <time>2022-12-26T08:29:24.221Z</time>
      </trkpt>
      <trkpt lat="44.64636" lon="-1.17835">
        <ele>67.768061</ele>
        <time>2022-12-26T08:29:26.197Z</time>
      </trkpt>
      <trkpt lat="44.64626" lon="-1.17832">
        <ele>67.768226</ele>
        <time>2022-12-26T08:29:28.199Z</time>
      </trkpt>
      <trkpt lat="44.64614" lon="-1.17829">
        <ele>67.76842</ele>
        <time>2022-12-26T08:29:31.201Z</time>
      </trkpt>
      <trkpt lat="44.64604" lon="-1.17835">
        <ele>67.768599</ele>
        <time>2022-12-26T08:29:34.200Z</time>
      </trkpt>
      <trkpt lat="44.64597" lon="-1.17843">
        <ele>67.768749</ele>
        <time>2022-12-26T08:29:38.200Z</time>
      </trkpt>
      <trkpt lat="44.64588" lon="-1.17845">
        <ele>67.768905</ele>
        <time>2022-12-26T08:29:43.202Z</time>
      </trkpt>
      <trkpt lat="44.64579" lon="-1.17836">
        <ele>67.769075</ele>
        <time>2022-12-26T08:29:47.202Z</time>
      </trkpt>
      <trkpt lat="44.64571" lon="-1.17827">
        <ele>67.769241</ele>
        <time>2022-12-26T08:29:51.229Z</time>
      </trkpt>
      <trkpt lat="44.64563" lon="-1.17818">
        <ele>67.769409</ele>
        <time>2022-12-26T08:29:55.201Z</time>
      </trkpt>
      <trkpt lat="44.64555" lon="-1.1781">
        <ele>67.769569</ele>
        <time>2022-12-26T08:29:59.191Z</time>
      </trkpt>
      <trkpt lat="44.64547" lon="-1.17802">
        <ele>67.769732</ele>
        <time>2022-12-26T08:30:03.197Z</time>
      </trkpt>
      <trkpt lat="44.64538" lon="-1.17794">
        <ele>67.769894</ele>
        <time>2022-12-26T08:30:07.196Z</time>
      </trkpt>
      <trkpt lat="44.6453" lon="-1.17786">
        <ele>67.770067</ele>
        <time>2022-12-26T08:30:11.211Z</time>
      </trkpt>
      <trkpt lat="44.64521" lon="-1.17777">
        <ele>67.825421</ele>
        <time>2022-12-26T08:30:15.199Z</time>
      </trkpt>
      <trkpt lat="44.64511" lon="-1.17769">
        <ele>68.164602</ele>
        <time>2022-12-26T08:30:19.207Z</time>
      </trkpt>
      <trkpt lat="44.64504" lon="-1.1776">
        <ele>68.466289</ele>
        <time>2022-12-26T08:30:23.198Z</time>
      </trkpt>
      <trkpt lat="44.64496" lon="-1.1775">
        <ele>68.777144</ele>
        <time>2022-12-26T08:30:27.208Z</time>
      </trkpt>
      <trkpt lat="44.64488" lon="-1.17742">
        <ele>69.079506</ele>
        <time>2022-12-26T08:30:31.192Z</time>
      </trkpt>
      <trkpt lat="44.6448" lon="-1.17733">
        <ele>69.391765</ele>
        <time>2022-12-26T08:30:35.206Z</time>
      </trkpt>
      <trkpt lat="44.64472" lon="-1.17723">
        <ele>69.711453</ele>
        <time>2022-12-26T08:30:40.205Z</time>
      </trkpt>
      <trkpt lat="44.64466" lon="-1.17714">
        <ele>69.99122</ele>
        <time>2022-12-26T08:30:44.213Z</time>
      </trkpt>
      <trkpt lat="44.64459" lon="-1.17704">
        <ele>70.298228</ele>
        <time>2022-12-26T08:30:48.203Z</time>
      </trkpt>
      <trkpt lat="44.64452" lon="-1.17693">
        <ele>70.59635</ele>
        <time>2022-12-26T08:30:52.204Z</time>
      </trkpt>
      <trkpt lat="44.64446" lon="-1.17681">
        <ele>70.934631</ele>
        <time>2022-12-26T08:30:57.196Z</time>
      </trkpt>
      <trkpt lat="44.64441" lon="-1.1767">
        <ele>71.211244</ele>
        <time>2022-12-26T08:31:01.200Z</time>
      </trkpt>
      <trkpt lat="44.64435" lon="-1.17659">
        <ele>71.502105</ele>
        <time>2022-12-26T08:31:05.191Z</time>
      </trkpt>
      <trkpt lat="44.64429" lon="-1.17649">
        <ele>71.791249</ele>
        <time>2022-12-26T08:31:09.195Z</time>
      </trkpt>
      <trkpt lat="44.64424" lon="-1.17636">
        <ele>72.11458</ele>
        <time>2022-12-26T08:31:13.197Z</time>
      </trkpt>
      <trkpt lat="44.64419" lon="-1.17623">
        <ele>72.432687</ele>
        <time>2022-12-26T08:31:17.196Z</time>
      </trkpt>
      <trkpt lat="44.64413" lon="-1.1761">
        <ele>72.759728</ele>
        <time>2022-12-26T08:31:21.213Z</time>
      </trkpt>
      <trkpt lat="44.64407" lon="-1.17597">
        <ele>73.098426</ele>
        <time>2022-12-26T08:31:25.201Z</time>
      </trkpt>
      <trkpt lat="44.64402" lon="-1.17582">
        <ele>73.408392</ele>
        <time>2022-12-26T08:31:29.198Z</time>
      </trkpt>
      <trkpt lat="44.64397" lon="-1.17568">
        <ele>73.669345</ele>
        <time>2022-12-26T08:31:33.200Z</time>
      </trkpt>
      <trkpt lat="44.64392" lon="-1.17554">
        <ele>73.93337</ele>
        <time>2022-12-26T08:31:37.202Z</time>
      </trkpt>
      <trkpt lat="44.64388" lon="-1.17543">
        <ele>74.153165</ele>
        <time>2022-12-26T08:31:40.211Z</time>
      </trkpt>
      <trkpt lat="44.64383" lon="-1.17529">
        <ele>74.429553</ele>
        <time>2022-12-26T08:31:44.217Z</time>
      </trkpt>
      <trkpt lat="44.6438" lon="-1.17517">
        <ele>74.649593</ele>
        <time>2022-12-26T08:31:47.201Z</time>
      </trkpt>
      <trkpt lat="44.64375" lon="-1.17505">
        <ele>74.878019</ele>
        <time>2022-12-26T08:31:50.196Z</time>
      </trkpt>
      <trkpt lat="44.64371" lon="-1.17494">
        <ele>75.096329</ele>
        <time>2022-12-26T08:31:53.204Z</time>
      </trkpt>
      <trkpt lat="44.64364" lon="-1.1748">
        <ele>75.381245</ele>
        <time>2022-12-26T08:31:57.197Z</time>
      </trkpt>
      <trkpt lat="44.64359" lon="-1.17469">
        <ele>75.601239</ele>
        <time>2022-12-26T08:32:00.203Z</time>
      </trkpt>
      <trkpt lat="44.64354" lon="-1.17459">
        <ele>75.821234</ele>
        <time>2022-12-26T08:32:03.204Z</time>
      </trkpt>
      <trkpt lat="44.64348" lon="-1.17446">
        <ele>76.083078</ele>
        <time>2022-12-26T08:32:07.196Z</time>
      </trkpt>
      <trkpt lat="44.64341" lon="-1.17434">
        <ele>76.347791</ele>
        <time>2022-12-26T08:32:11.200Z</time>
      </trkpt>
      <trkpt lat="44.64334" lon="-1.17421">
        <ele>76.624136</ele>
        <time>2022-12-26T08:32:15.199Z</time>
      </trkpt>
      <trkpt lat="44.64326" lon="-1.17409">
        <ele>76.898122</ele>
        <time>2022-12-26T08:32:19.214Z</time>
      </trkpt>
      <trkpt lat="44.64318" lon="-1.17398">
        <ele>77.163447</ele>
        <time>2022-12-26T08:32:23.194Z</time>
      </trkpt>
      <trkpt lat="44.64311" lon="-1.17387">
        <ele>77.415114</ele>
        <time>2022-12-26T08:32:28.205Z</time>
      </trkpt>
      <trkpt lat="44.64308" lon="-1.17375">
        <ele>77.545867</ele>
        <time>2022-12-26T08:32:42.201Z</time>
      </trkpt>
      <trkpt lat="44.643" lon="-1.17367">
        <ele>77.515001</ele>
        <time>2022-12-26T08:32:47.213Z</time>
      </trkpt>
      <trkpt lat="44.64294" lon="-1.17358">
        <ele>77.485924</ele>
        <time>2022-12-26T08:32:50.202Z</time>
      </trkpt>
      <trkpt lat="44.64286" lon="-1.17348">
        <ele>77.453389</ele>
        <time>2022-12-26T08:32:53.204Z</time>
      </trkpt>
      <trkpt lat="44.64277" lon="-1.17339">
        <ele>77.4188</ele>
        <time>2022-12-26T08:32:56.205Z</time>
      </trkpt>
      <trkpt lat="44.64268" lon="-1.1733">
        <ele>77.385631</ele>
        <time>2022-12-26T08:32:59.198Z</time>
      </trkpt>
      <trkpt lat="44.64261" lon="-1.17322">
        <ele>77.355283</ele>
        <time>2022-12-26T08:33:02.194Z</time>
      </trkpt>
      <trkpt lat="44.64253" lon="-1.17315">
        <ele>77.325555</ele>
        <time>2022-12-26T08:33:05.207Z</time>
      </trkpt>
      <trkpt lat="44.64245" lon="-1.17308">
        <ele>77.297065</ele>
        <time>2022-12-26T08:33:08.198Z</time>
      </trkpt>
      <trkpt lat="44.64235" lon="-1.17302">
        <ele>77.263249</ele>
        <time>2022-12-26T08:33:12.212Z</time>
      </trkpt>
      <trkpt lat="44.64229" lon="-1.17291">
        <ele>77.232125</ele>
        <time>2022-12-26T08:33:17.198Z</time>
      </trkpt>
      <trkpt lat="44.64222" lon="-1.17282">
        <ele>77.202657</ele>
        <time>2022-12-26T08:33:22.212Z</time>
      </trkpt>
      <trkpt lat="44.6421" lon="-1.17279">
        <ele>77.164043</ele>
        <time>2022-12-26T08:33:26.204Z</time>
      </trkpt>
      <trkpt lat="44.64199" lon="-1.17278">
        <ele>77.130453</ele>
        <time>2022-12-26T08:33:29.204Z</time>
      </trkpt>
      <trkpt lat="44.64189" lon="-1.17275">
        <ele>77.097436</ele>
        <time>2022-12-26T08:33:32.205Z</time>
      </trkpt>
      <trkpt lat="44.64178" lon="-1.17273">
        <ele>77.064648</ele>
        <time>2022-12-26T08:33:35.208Z</time>
      </trkpt>
      <trkpt lat="44.64168" lon="-1.1727">
        <ele>77.031511</ele>
        <time>2022-12-26T08:33:38.201Z</time>
      </trkpt>
      <trkpt lat="44.64157" lon="-1.17268">
        <ele>76.997329</ele>
        <time>2022-12-26T08:33:41.215Z</time>
      </trkpt>
      <trkpt lat="44.64146" lon="-1.17265">
        <ele>77.228457</ele>
        <time>2022-12-26T08:33:44.234Z</time>
      </trkpt>
      <trkpt lat="44.64136" lon="-1.17264">
        <ele>77.474767</ele>
        <time>2022-12-26T08:33:47.195Z</time>
      </trkpt>
      <trkpt lat="44.64126" lon="-1.17262">
        <ele>77.718705</ele>
        <time>2022-12-26T08:33:50.202Z</time>
      </trkpt>
      <trkpt lat="44.64115" lon="-1.1726">
        <ele>77.986192</ele>
        <time>2022-12-26T08:33:53.207Z</time>
      </trkpt>
      <trkpt lat="44.64105" lon="-1.17257">
        <ele>78.214052</ele>
        <time>2022-12-26T08:33:56.197Z</time>
      </trkpt>
      <trkpt lat="44.64096" lon="-1.17256">
        <ele>78.44194</ele>
        <time>2022-12-26T08:33:59.198Z</time>
      </trkpt>
      <trkpt lat="44.64085" lon="-1.17253">
        <ele>78.707157</ele>
        <time>2022-12-26T08:34:02.212Z</time>
      </trkpt>
      <trkpt lat="44.64074" lon="-1.1725">
        <ele>78.971381</ele>
        <time>2022-12-26T08:34:05.199Z</time>
      </trkpt>
      <trkpt lat="44.64064" lon="-1.17248">
        <ele>79.21623</ele>
        <time>2022-12-26T08:34:08.202Z</time>
      </trkpt>
      <trkpt lat="44.64054" lon="-1.17246">
        <ele>79.4479</ele>
        <time>2022-12-26T08:34:11.199Z</time>
      </trkpt>
      <trkpt lat="44.64045" lon="-1.17243">
        <ele>79.665774</ele>
        <time>2022-12-26T08:34:14.207Z</time>
      </trkpt>
      <trkpt lat="44.64034" lon="-1.1724">
        <ele>79.93468</ele>
        <time>2022-12-26T08:34:18.197Z</time>
      </trkpt>
      <trkpt lat="44.64023" lon="-1.17239">
        <ele>80.193165</ele>
        <time>2022-12-26T08:34:22.205Z</time>
      </trkpt>
      <trkpt lat="44.64011" lon="-1.17236">
        <ele>80.480001</ele>
        <time>2022-12-26T08:34:26.197Z</time>
      </trkpt>
      <trkpt lat="44.64001" lon="-1.17234">
        <ele>80.723974</ele>
        <time>2022-12-26T08:34:30.204Z</time>
      </trkpt>
      <trkpt lat="44.6399" lon="-1.17231">
        <ele>80.991872</ele>
        <time>2022-12-26T08:34:34.200Z</time>
      </trkpt>
      <trkpt lat="44.63979" lon="-1.17228">
        <ele>81.256507</ele>
        <time>2022-12-26T08:34:38.209Z</time>
      </trkpt>
      <trkpt lat="44.63967" lon="-1.17228">
        <ele>81.587704</ele>
        <time>2022-12-26T08:34:42.202Z</time>
      </trkpt>
      <trkpt lat="44.63956" lon="-1.17226">
        <ele>81.901037</ele>
        <time>2022-12-26T08:34:46.201Z</time>
      </trkpt>
      <trkpt lat="44.63945" lon="-1.17224">
        <ele>82.206374</ele>
        <time>2022-12-26T08:34:50.195Z</time>
      </trkpt>
      <trkpt lat="44.63935" lon="-1.17221">
        <ele>82.502501</ele>
        <time>2022-12-26T08:34:54.220Z</time>
      </trkpt>
      <trkpt lat="44.63925" lon="-1.17219">
        <ele>82.783906</ele>
        <time>2022-12-26T08:34:58.207Z</time>
      </trkpt>
      <trkpt lat="44.63913" lon="-1.17216">
        <ele>83.102986</ele>
        <time>2022-12-26T08:35:02.220Z</time>
      </trkpt>
      <trkpt lat="44.63902" lon="-1.17212">
        <ele>83.421149</ele>
        <time>2022-12-26T08:35:06.198Z</time>
      </trkpt>
      <trkpt lat="44.63892" lon="-1.17209">
        <ele>83.718964</ele>
        <time>2022-12-26T08:35:10.270Z</time>
      </trkpt>
      <trkpt lat="44.63882" lon="-1.17206">
        <ele>84.012915</ele>
        <time>2022-12-26T08:35:15.191Z</time>
      </trkpt>
      <trkpt lat="44.63872" lon="-1.17202">
        <ele>84.295177</ele>
        <time>2022-12-26T08:35:19.207Z</time>
      </trkpt>
      <trkpt lat="44.63862" lon="-1.17199">
        <ele>84.580537</ele>
        <time>2022-12-26T08:35:23.227Z</time>
      </trkpt>
      <trkpt lat="44.63852" lon="-1.17196">
        <ele>84.87053</ele>
        <time>2022-12-26T08:35:27.271Z</time>
      </trkpt>
      <trkpt lat="44.63842" lon="-1.17193">
        <ele>85.13831</ele>
        <time>2022-12-26T08:35:31.215Z</time>
      </trkpt>
      <trkpt lat="44.63833" lon="-1.17189">
        <ele>85.42108</ele>
        <time>2022-12-26T08:35:35.217Z</time>
      </trkpt>
      <trkpt lat="44.63823" lon="-1.17186">
        <ele>85.701898</ele>
        <time>2022-12-26T08:35:40.206Z</time>
      </trkpt>
      <trkpt lat="44.63813" lon="-1.17183">
        <ele>85.988392</ele>
        <time>2022-12-26T08:35:44.271Z</time>
      </trkpt>
      <trkpt lat="44.63802" lon="-1.1718">
        <ele>86.287787</ele>
        <time>2022-12-26T08:35:48.220Z</time>
      </trkpt>
      <trkpt lat="44.63792" lon="-1.17175">
        <ele>85.992044</ele>
        <time>2022-12-26T08:35:52.216Z</time>
      </trkpt>
      <trkpt lat="44.63783" lon="-1.17171">
        <ele>85.72551</ele>
        <time>2022-12-26T08:35:56.267Z</time>
      </trkpt>
      <trkpt lat="44.63774" lon="-1.17166">
        <ele>85.450938</ele>
        <time>2022-12-26T08:36:00.221Z</time>
      </trkpt>
      <trkpt lat="44.63765" lon="-1.17159">
        <ele>85.143111</ele>
        <time>2022-12-26T08:36:04.215Z</time>
      </trkpt>
      <trkpt lat="44.63756" lon="-1.17153">
        <ele>84.858716</ele>
        <time>2022-12-26T08:36:08.200Z</time>
      </trkpt>
      <trkpt lat="44.63748" lon="-1.17145">
        <ele>84.588558</ele>
        <time>2022-12-26T08:36:11.207Z</time>
      </trkpt>
      <trkpt lat="44.63739" lon="-1.17138">
        <ele>84.295784</ele>
        <time>2022-12-26T08:36:14.213Z</time>
      </trkpt>
      <trkpt lat="44.6373" lon="-1.17131">
        <ele>84.002482</ele>
        <time>2022-12-26T08:36:17.215Z</time>
      </trkpt>
      <trkpt lat="44.63721" lon="-1.17121">
        <ele>83.672847</ele>
        <time>2022-12-26T08:36:20.219Z</time>
      </trkpt>
      <trkpt lat="44.63712" lon="-1.17111">
        <ele>83.348792</ele>
        <time>2022-12-26T08:36:23.218Z</time>
      </trkpt>
      <trkpt lat="44.63702" lon="-1.17105">
        <ele>83.026594</ele>
        <time>2022-12-26T08:36:26.214Z</time>
      </trkpt>
      <trkpt lat="44.63693" lon="-1.17101">
        <ele>82.76134</ele>
        <time>2022-12-26T08:36:29.215Z</time>
      </trkpt>
      <trkpt lat="44.63682" lon="-1.17102">
        <ele>82.450679</ele>
        <time>2022-12-26T08:36:32.212Z</time>
      </trkpt>
      <trkpt lat="44.63672" lon="-1.17103">
        <ele>82.174121</ele>
        <time>2022-12-26T08:36:34.215Z</time>
      </trkpt>
      <trkpt lat="44.63663" lon="-1.171">
        <ele>81.902551</ele>
        <time>2022-12-26T08:36:36.263Z</time>
      </trkpt>
      <trkpt lat="44.63651" lon="-1.17097">
        <ele>81.579203</ele>
        <time>2022-12-26T08:36:39.218Z</time>
      </trkpt>
      <trkpt lat="44.6364" lon="-1.17092">
        <ele>81.244878</ele>
        <time>2022-12-26T08:36:42.216Z</time>
      </trkpt>
      <trkpt lat="44.63628" lon="-1.17085">
        <ele>80.526948</ele>
        <time>2022-12-26T08:36:45.220Z</time>
      </trkpt>
      <trkpt lat="44.63618" lon="-1.17078">
        <ele>79.77297</ele>
        <time>2022-12-26T08:36:48.202Z</time>
      </trkpt>
      <trkpt lat="44.63607" lon="-1.17072">
        <ele>79.06801</ele>
        <time>2022-12-26T08:36:51.217Z</time>
      </trkpt>
      <trkpt lat="44.63595" lon="-1.17064">
        <ele>78.206431</ele>
        <time>2022-12-26T08:36:54.218Z</time>
      </trkpt>
      <trkpt lat="44.63582" lon="-1.17059">
        <ele>77.400647</ele>
        <time>2022-12-26T08:36:57.219Z</time>
      </trkpt>
      <trkpt lat="44.6357" lon="-1.17055">
        <ele>76.571415</ele>
        <time>2022-12-26T08:37:00.197Z</time>
      </trkpt>
      <trkpt lat="44.63558" lon="-1.17054">
        <ele>75.821117</ele>
        <time>2022-12-26T08:37:03.224Z</time>
      </trkpt>
      <trkpt lat="44.63547" lon="-1.17055">
        <ele>75.127614</ele>
        <time>2022-12-26T08:37:06.220Z</time>
      </trkpt>
      <trkpt lat="44.63535" lon="-1.17055">
        <ele>74.391504</ele>
        <time>2022-12-26T08:37:09.216Z</time>
      </trkpt>
      <trkpt lat="44.63523" lon="-1.17052">
        <ele>73.655668</ele>
        <time>2022-12-26T08:37:12.202Z</time>
      </trkpt>
      <trkpt lat="44.63512" lon="-1.1705">
        <ele>72.951538</ele>
        <time>2022-12-26T08:37:15.221Z</time>
      </trkpt>
      <trkpt lat="44.635" lon="-1.17044">
        <ele>72.160563</ele>
        <time>2022-12-26T08:37:18.199Z</time>
      </trkpt>
      <trkpt lat="44.6349" lon="-1.17037">
        <ele>71.444598</ele>
        <time>2022-12-26T08:37:21.209Z</time>
      </trkpt>
      <trkpt lat="44.63481" lon="-1.17029">
        <ele>70.764863</ele>
        <time>2022-12-26T08:37:24.216Z</time>
      </trkpt>
      <trkpt lat="44.63471" lon="-1.17018">
        <ele>69.97202</ele>
        <time>2022-12-26T08:37:27.216Z</time>
      </trkpt>
      <trkpt lat="44.63462" lon="-1.17004">
        <ele>69.061907</ele>
        <time>2022-12-26T08:37:30.216Z</time>
      </trkpt>
      <trkpt lat="44.63456" lon="-1.16988">
        <ele>68.156952</ele>
        <time>2022-12-26T08:37:33.304Z</time>
      </trkpt>
      <trkpt lat="44.6345" lon="-1.16972">
        <ele>67.265291</ele>
        <time>2022-12-26T08:37:36.214Z</time>
      </trkpt>
      <trkpt lat="44.63445" lon="-1.1696">
        <ele>66.591783</ele>
        <time>2022-12-26T08:37:38.217Z</time>
      </trkpt>
      <trkpt lat="44.63441" lon="-1.16944">
        <ele>65.73584</ele>
        <time>2022-12-26T08:37:41.191Z</time>
      </trkpt>
      <trkpt lat="44.63436" lon="-1.1693">
        <ele>64.949929</ele>
        <time>2022-12-26T08:37:44.205Z</time>
      </trkpt>
      <trkpt lat="44.63431" lon="-1.16913">
        <ele>64.070267</ele>
        <time>2022-12-26T08:37:47.218Z</time>
      </trkpt>
      <trkpt lat="44.63425" lon="-1.16896">
        <ele>63.143425</ele>
        <time>2022-12-26T08:37:50.221Z</time>
      </trkpt>
      <trkpt lat="44.63421" lon="-1.16881">
        <ele>62.351751</ele>
        <time>2022-12-26T08:37:53.223Z</time>
      </trkpt>
      <trkpt lat="44.63417" lon="-1.16867">
        <ele>61.615429</ele>
        <time>2022-12-26T08:37:56.232Z</time>
      </trkpt>
      <trkpt lat="44.63413" lon="-1.16853">
        <ele>60.884711</ele>
        <time>2022-12-26T08:37:59.222Z</time>
      </trkpt>
      <trkpt lat="44.6341" lon="-1.16841">
        <ele>60.229863</ele>
        <time>2022-12-26T08:38:02.201Z</time>
      </trkpt>
      <trkpt lat="44.63407" lon="-1.16825">
        <ele>59.426581</ele>
        <time>2022-12-26T08:38:06.222Z</time>
      </trkpt>
      <trkpt lat="44.63402" lon="-1.16812">
        <ele>58.701663</ele>
        <time>2022-12-26T08:38:10.216Z</time>
      </trkpt>
      <trkpt lat="44.63394" lon="-1.16794">
        <ele>57.635117</ele>
        <time>2022-12-26T08:39:39.217Z</time>
      </trkpt>
      <trkpt lat="44.6339" lon="-1.1678">
        <ele>57.431144</ele>
        <time>2022-12-26T08:39:42.207Z</time>
      </trkpt>
      <trkpt lat="44.63385" lon="-1.16767">
        <ele>57.461977</ele>
        <time>2022-12-26T08:39:45.214Z</time>
      </trkpt>
      <trkpt lat="44.63383" lon="-1.16755">
        <ele>57.490117</ele>
        <time>2022-12-26T08:39:48.196Z</time>
      </trkpt>
      <trkpt lat="44.6338" lon="-1.16739">
        <ele>57.525135</ele>
        <time>2022-12-26T08:39:52.217Z</time>
      </trkpt>
      <trkpt lat="44.63378" lon="-1.16723">
        <ele>57.558687</ele>
        <time>2022-12-26T08:39:56.192Z</time>
      </trkpt>
      <trkpt lat="44.63376" lon="-1.16707">
        <ele>57.593066</ele>
        <time>2022-12-26T08:40:01.192Z</time>
      </trkpt>
      <trkpt lat="44.63376" lon="-1.16691">
        <ele>57.627662</ele>
        <time>2022-12-26T08:40:05.197Z</time>
      </trkpt>
      <trkpt lat="44.63373" lon="-1.16679">
        <ele>57.654968</ele>
        <time>2022-12-26T08:40:08.210Z</time>
      </trkpt>
      <trkpt lat="44.63372" lon="-1.16665">
        <ele>57.68429</ele>
        <time>2022-12-26T08:40:11.207Z</time>
      </trkpt>
      <trkpt lat="44.6337" lon="-1.1665">
        <ele>57.71767</ele>
        <time>2022-12-26T08:40:14.207Z</time>
      </trkpt>
      <trkpt lat="44.63368" lon="-1.16634">
        <ele>57.751838</ele>
        <time>2022-12-26T08:40:17.202Z</time>
      </trkpt>
      <trkpt lat="44.63366" lon="-1.16619">
        <ele>57.784688</ele>
        <time>2022-12-26T08:40:20.200Z</time>
      </trkpt>
      <trkpt lat="44.63365" lon="-1.16605">
        <ele>57.81638</ele>
        <time>2022-12-26T08:40:23.200Z</time>
      </trkpt>
      <trkpt lat="44.63363" lon="-1.16592">
        <ele>57.843699</ele>
        <time>2022-12-26T08:40:27.197Z</time>
      </trkpt>
      <trkpt lat="44.63362" lon="-1.16578">
        <ele>57.873841</ele>
        <time>2022-12-26T08:40:32.201Z</time>
      </trkpt>
      <trkpt lat="44.6336" lon="-1.16562">
        <ele>57.909225</ele>
        <time>2022-12-26T08:40:36.194Z</time>
      </trkpt>
      <trkpt lat="44.63358" lon="-1.16549">
        <ele>57.937783</ele>
        <time>2022-12-26T08:40:39.212Z</time>
      </trkpt>
      <trkpt lat="44.63357" lon="-1.16536">
        <ele>57.861312</ele>
        <time>2022-12-26T08:40:42.199Z</time>
      </trkpt>
      <trkpt lat="44.63355" lon="-1.1652">
        <ele>57.660861</ele>
        <time>2022-12-26T08:40:46.198Z</time>
      </trkpt>
      <trkpt lat="44.63353" lon="-1.16507">
        <ele>57.483994</ele>
        <time>2022-12-26T08:40:49.195Z</time>
      </trkpt>
      <trkpt lat="44.63351" lon="-1.16493">
        <ele>57.307004</ele>
        <time>2022-12-26T08:40:52.211Z</time>
      </trkpt>
      <trkpt lat="44.6335" lon="-1.16479">
        <ele>57.12972</ele>
        <time>2022-12-26T08:40:55.201Z</time>
      </trkpt>
      <trkpt lat="44.63348" lon="-1.16465">
        <ele>56.949661</ele>
        <time>2022-12-26T08:40:58.195Z</time>
      </trkpt>
      <trkpt lat="44.63347" lon="-1.16449">
        <ele>56.743644</ele>
        <time>2022-12-26T08:41:01.198Z</time>
      </trkpt>
      <trkpt lat="44.63345" lon="-1.16432">
        <ele>56.517339</ele>
        <time>2022-12-26T08:41:04.199Z</time>
      </trkpt>
      <trkpt lat="44.63343" lon="-1.16413">
        <ele>56.27684</ele>
        <time>2022-12-26T08:41:07.197Z</time>
      </trkpt>
      <trkpt lat="44.63342" lon="-1.16399">
        <ele>56.100423</ele>
        <time>2022-12-26T08:41:09.199Z</time>
      </trkpt>
      <trkpt lat="44.63341" lon="-1.16385">
        <ele>55.926536</ele>
        <time>2022-12-26T08:41:11.197Z</time>
      </trkpt>
      <trkpt lat="44.63341" lon="-1.16372">
        <ele>55.760854</ele>
        <time>2022-12-26T08:41:13.198Z</time>
      </trkpt>
      <trkpt lat="44.63341" lon="-1.16353">
        <ele>55.515291</ele>
        <time>2022-12-26T08:41:16.204Z</time>
      </trkpt>
      <trkpt lat="44.63341" lon="-1.16339">
        <ele>55.341044</ele>
        <time>2022-12-26T08:41:18.192Z</time>
      </trkpt>
      <trkpt lat="44.63342" lon="-1.16326">
        <ele>55.173663</ele>
        <time>2022-12-26T08:41:20.200Z</time>
      </trkpt>
      <trkpt lat="44.63342" lon="-1.16312">
        <ele>54.995574</ele>
        <time>2022-12-26T08:41:22.204Z</time>
      </trkpt>
      <trkpt lat="44.63343" lon="-1.16299">
        <ele>54.819737</ele>
        <time>2022-12-26T08:41:24.227Z</time>
      </trkpt>
      <trkpt lat="44.63344" lon="-1.16281">
        <ele>54.612906</ele>
        <time>2022-12-26T08:41:27.207Z</time>
      </trkpt>
      <trkpt lat="44.63346" lon="-1.16264">
        <ele>54.430327</ele>
        <time>2022-12-26T08:41:30.197Z</time>
      </trkpt>
      <trkpt lat="44.63348" lon="-1.16248">
        <ele>54.245309</ele>
        <time>2022-12-26T08:41:33.209Z</time>
      </trkpt>
      <trkpt lat="44.6335" lon="-1.16231">
        <ele>54.065499</ele>
        <time>2022-12-26T08:41:36.211Z</time>
      </trkpt>
      <trkpt lat="44.63352" lon="-1.16216">
        <ele>53.891278</ele>
        <time>2022-12-26T08:41:39.196Z</time>
      </trkpt>
      <trkpt lat="44.63354" lon="-1.162">
        <ele>53.716458</ele>
        <time>2022-12-26T08:41:42.199Z</time>
      </trkpt>
      <trkpt lat="44.63356" lon="-1.16186">
        <ele>53.560674</ele>
        <time>2022-12-26T08:41:45.205Z</time>
      </trkpt>
      <trkpt lat="44.63357" lon="-1.16172">
        <ele>53.407977</ele>
        <time>2022-12-26T08:41:48.210Z</time>
      </trkpt>
      <trkpt lat="44.63359" lon="-1.16159">
        <ele>53.263897</ele>
        <time>2022-12-26T08:41:51.210Z</time>
      </trkpt>
      <trkpt lat="44.6336" lon="-1.16145">
        <ele>53.102287</ele>
        <time>2022-12-26T08:41:55.200Z</time>
      </trkpt>
      <trkpt lat="44.63366" lon="-1.1612">
        <ele>52.81601</ele>
        <time>2022-12-26T08:42:29.217Z</time>
      </trkpt>
      <trkpt lat="44.63368" lon="-1.16104">
        <ele>52.637178</ele>
        <time>2022-12-26T08:42:33.211Z</time>
      </trkpt>
      <trkpt lat="44.6337" lon="-1.16091">
        <ele>52.490421</ele>
        <time>2022-12-26T08:42:36.206Z</time>
      </trkpt>
      <trkpt lat="44.63372" lon="-1.16076">
        <ele>52.330198</ele>
        <time>2022-12-26T08:42:39.202Z</time>
      </trkpt>
      <trkpt lat="44.63374" lon="-1.16063">
        <ele>52.180718</ele>
        <time>2022-12-26T08:42:42.210Z</time>
      </trkpt>
      <trkpt lat="44.63377" lon="-1.16051">
        <ele>52.040537</ele>
        <time>2022-12-26T08:42:45.199Z</time>
      </trkpt>
      <trkpt lat="44.63379" lon="-1.16037">
        <ele>51.890874</ele>
        <time>2022-12-26T08:42:49.200Z</time>
      </trkpt>
      <trkpt lat="44.63381" lon="-1.16013">
        <ele>51.634528</ele>
        <time>2022-12-26T08:43:34.205Z</time>
      </trkpt>
      <trkpt lat="44.63384" lon="-1.15996">
        <ele>51.456859</ele>
        <time>2022-12-26T08:43:38.205Z</time>
      </trkpt>
      <trkpt lat="44.63385" lon="-1.15983">
        <ele>51.320181</ele>
        <time>2022-12-26T08:43:41.193Z</time>
      </trkpt>
      <trkpt lat="44.63388" lon="-1.15969">
        <ele>51.168632</ele>
        <time>2022-12-26T08:43:58.197Z</time>
      </trkpt>
      <trkpt lat="44.6339" lon="-1.15955">
        <ele>51.013676</ele>
        <time>2022-12-26T08:44:02.203Z</time>
      </trkpt>
      <trkpt lat="44.63393" lon="-1.15942">
        <ele>50.870908</ele>
        <time>2022-12-26T08:44:05.213Z</time>
      </trkpt>
      <trkpt lat="44.63396" lon="-1.15927">
        <ele>50.707117</ele>
        <time>2022-12-26T08:44:09.192Z</time>
      </trkpt>
      <trkpt lat="44.63396" lon="-1.15912">
        <ele>50.549758</ele>
        <time>2022-12-26T08:44:13.200Z</time>
      </trkpt>
      <trkpt lat="44.63399" lon="-1.15898">
        <ele>50.40061</ele>
        <time>2022-12-26T08:44:16.224Z</time>
      </trkpt>
      <trkpt lat="44.63398" lon="-1.15884">
        <ele>50.256038</ele>
        <time>2022-12-26T08:44:20.223Z</time>
      </trkpt>
      <trkpt lat="44.63395" lon="-1.15869">
        <ele>50.093206</ele>
        <time>2022-12-26T08:44:24.198Z</time>
      </trkpt>
      <trkpt lat="44.63386" lon="-1.15863">
        <ele>49.943296</ele>
        <time>2022-12-26T08:44:27.196Z</time>
      </trkpt>
      <trkpt lat="44.63375" lon="-1.15861">
        <ele>49.783092</ele>
        <time>2022-12-26T08:44:30.200Z</time>
      </trkpt>
      <trkpt lat="44.63364" lon="-1.15859">
        <ele>49.625808</ele>
        <time>2022-12-26T08:44:33.192Z</time>
      </trkpt>
      <trkpt lat="44.63354" lon="-1.15855">
        <ele>49.472694</ele>
        <time>2022-12-26T08:44:36.205Z</time>
      </trkpt>
      <trkpt lat="44.63343" lon="-1.15852">
        <ele>49.351746</ele>
        <time>2022-12-26T08:44:39.206Z</time>
      </trkpt>
      <trkpt lat="44.63334" lon="-1.15851">
        <ele>49.574812</ele>
        <time>2022-12-26T08:44:42.203Z</time>
      </trkpt>
      <trkpt lat="44.63325" lon="-1.1585">
        <ele>49.790602</ele>
        <time>2022-12-26T08:44:44.201Z</time>
      </trkpt>
      <trkpt lat="44.63315" lon="-1.1585">
        <ele>50.018028</ele>
        <time>2022-12-26T08:44:46.205Z</time>
      </trkpt>
      <trkpt lat="44.63306" lon="-1.15849">
        <ele>50.233556</ele>
        <time>2022-12-26T08:44:48.199Z</time>
      </trkpt>
      <trkpt lat="44.63297" lon="-1.15844">
        <ele>50.478773</ele>
        <time>2022-12-26T08:44:52.197Z</time>
      </trkpt>
      <trkpt lat="44.63286" lon="-1.15838">
        <ele>50.757033</ele>
        <time>2022-12-26T08:44:58.190Z</time>
      </trkpt>
      <trkpt lat="44.63277" lon="-1.15837">
        <ele>50.980669</ele>
        <time>2022-12-26T08:45:01.216Z</time>
      </trkpt>
      <trkpt lat="44.63267" lon="-1.15835">
        <ele>51.21842</ele>
        <time>2022-12-26T08:45:04.195Z</time>
      </trkpt>
      <trkpt lat="44.63256" lon="-1.15831">
        <ele>51.493345</ele>
        <time>2022-12-26T08:45:08.206Z</time>
      </trkpt>
      <trkpt lat="44.63245" lon="-1.1583">
        <ele>51.743512</ele>
        <time>2022-12-26T08:45:12.196Z</time>
      </trkpt>
      <trkpt lat="44.63235" lon="-1.15823">
        <ele>52.015105</ele>
        <time>2022-12-26T08:45:16.203Z</time>
      </trkpt>
      <trkpt lat="44.63228" lon="-1.1581">
        <ele>52.285745</ele>
        <time>2022-12-26T08:45:20.205Z</time>
      </trkpt>
      <trkpt lat="44.63222" lon="-1.15797">
        <ele>52.553757</ele>
        <time>2022-12-26T08:45:24.196Z</time>
      </trkpt>
      <trkpt lat="44.63216" lon="-1.15783">
        <ele>52.832823</ele>
        <time>2022-12-26T08:45:28.204Z</time>
      </trkpt>
      <trkpt lat="44.6321" lon="-1.15771">
        <ele>53.08744</ele>
        <time>2022-12-26T08:45:32.198Z</time>
      </trkpt>
      <trkpt lat="44.63204" lon="-1.15758">
        <ele>53.337386</ele>
        <time>2022-12-26T08:45:36.205Z</time>
      </trkpt>
      <trkpt lat="44.63199" lon="-1.15746">
        <ele>53.581653</ele>
        <time>2022-12-26T08:45:41.212Z</time>
      </trkpt>
      <trkpt lat="44.63192" lon="-1.15736">
        <ele>53.747985</ele>
        <time>2022-12-26T08:45:45.203Z</time>
      </trkpt>
      <trkpt lat="44.63187" lon="-1.15725">
        <ele>53.895181</ele>
        <time>2022-12-26T08:45:50.205Z</time>
      </trkpt>
      <trkpt lat="44.63183" lon="-1.15714">
        <ele>54.036987</ele>
        <time>2022-12-26T08:45:55.211Z</time>
      </trkpt>
      <trkpt lat="44.63177" lon="-1.15702">
        <ele>54.189264</ele>
        <time>2022-12-26T08:45:59.205Z</time>
      </trkpt>
      <trkpt lat="44.6317" lon="-1.1569">
        <ele>54.364589</ele>
        <time>2022-12-26T08:46:03.210Z</time>
      </trkpt>
      <trkpt lat="44.63163" lon="-1.15678">
        <ele>54.539365</ele>
        <time>2022-12-26T08:46:07.210Z</time>
      </trkpt>
      <trkpt lat="44.63157" lon="-1.15665">
        <ele>54.707079</ele>
        <time>2022-12-26T08:46:11.192Z</time>
      </trkpt>
      <trkpt lat="44.63149" lon="-1.15658">
        <ele>54.85857</ele>
        <time>2022-12-26T08:46:15.196Z</time>
      </trkpt>
      <trkpt lat="44.63142" lon="-1.15649">
        <ele>55.0075</ele>
        <time>2022-12-26T08:46:19.212Z</time>
      </trkpt>
      <trkpt lat="44.63137" lon="-1.15637">
        <ele>55.15255</ele>
        <time>2022-12-26T08:46:23.221Z</time>
      </trkpt>
      <trkpt lat="44.63132" lon="-1.15624">
        <ele>55.314491</ele>
        <time>2022-12-26T08:46:27.210Z</time>
      </trkpt>
      <trkpt lat="44.63126" lon="-1.1561">
        <ele>55.503203</ele>
        <time>2022-12-26T08:46:31.200Z</time>
      </trkpt>
      <trkpt lat="44.63121" lon="-1.15599">
        <ele>55.647086</ele>
        <time>2022-12-26T08:46:34.207Z</time>
      </trkpt>
      <trkpt lat="44.63116" lon="-1.15588">
        <ele>55.788647</ele>
        <time>2022-12-26T08:46:37.198Z</time>
      </trkpt>
      <trkpt lat="44.63116" lon="-1.1557">
        <ele>55.98229</ele>
        <time>2022-12-26T08:46:41.206Z</time>
      </trkpt>
      <trkpt lat="44.63113" lon="-1.15554">
        <ele>56.171231</ele>
        <time>2022-12-26T08:46:44.200Z</time>
      </trkpt>
      <trkpt lat="44.63112" lon="-1.15536">
        <ele>56.37136</ele>
        <time>2022-12-26T08:46:47.196Z</time>
      </trkpt>
      <trkpt lat="44.63113" lon="-1.15523">
        <ele>56.240305</ele>
        <time>2022-12-26T08:46:49.215Z</time>
      </trkpt>
      <trkpt lat="44.63117" lon="-1.15505">
        <ele>55.838271</ele>
        <time>2022-12-26T08:46:52.213Z</time>
      </trkpt>
      <trkpt lat="44.63122" lon="-1.15489">
        <ele>55.451377</ele>
        <time>2022-12-26T08:46:55.203Z</time>
      </trkpt>
      <trkpt lat="44.63127" lon="-1.15473">
        <ele>55.051187</ele>
        <time>2022-12-26T08:46:58.219Z</time>
      </trkpt>
      <trkpt lat="44.63131" lon="-1.15459">
        <ele>54.721123</ele>
        <time>2022-12-26T08:47:01.218Z</time>
      </trkpt>
      <trkpt lat="44.63134" lon="-1.15445">
        <ele>54.401475</ele>
        <time>2022-12-26T08:47:05.200Z</time>
      </trkpt>
      <trkpt lat="44.63133" lon="-1.1546">
        <ele>54.075</ele>
        <time>2022-12-26T08:47:15.204Z</time>
      </trkpt>
      <trkpt lat="44.63141" lon="-1.15453">
        <ele>53.77326</ele>
        <time>2022-12-26T08:47:28.202Z</time>
      </trkpt>
      <trkpt lat="44.63144" lon="-1.15439">
        <ele>53.456938</ele>
        <time>2022-12-26T08:47:33.208Z</time>
      </trkpt>
      <trkpt lat="44.63153" lon="-1.15432">
        <ele>53.145457</ele>
        <time>2022-12-26T08:47:45.217Z</time>
      </trkpt>
      <trkpt lat="44.6315" lon="-1.15419">
        <ele>52.846576</ele>
        <time>2022-12-26T08:47:52.204Z</time>
      </trkpt>
      <trkpt lat="44.63153" lon="-1.15404">
        <ele>52.496048</ele>
        <time>2022-12-26T08:47:57.196Z</time>
      </trkpt>
      <trkpt lat="44.63156" lon="-1.15391">
        <ele>52.19593</ele>
        <time>2022-12-26T08:48:00.199Z</time>
      </trkpt>
      <trkpt lat="44.63159" lon="-1.15378">
        <ele>51.880325</ele>
        <time>2022-12-26T08:48:03.235Z</time>
      </trkpt>
      <trkpt lat="44.63163" lon="-1.15364">
        <ele>51.555473</ele>
        <time>2022-12-26T08:48:06.200Z</time>
      </trkpt>
      <trkpt lat="44.63166" lon="-1.15351">
        <ele>51.266936</ele>
        <time>2022-12-26T08:48:09.198Z</time>
      </trkpt>
      <trkpt lat="44.63168" lon="-1.15335">
        <ele>50.908287</ele>
        <time>2022-12-26T08:48:13.204Z</time>
      </trkpt>
      <trkpt lat="44.63172" lon="-1.15323">
        <ele>50.79996</ele>
        <time>2022-12-26T08:48:16.197Z</time>
      </trkpt>
      <trkpt lat="44.63176" lon="-1.15309">
        <ele>50.709574</ele>
        <time>2022-12-26T08:48:19.216Z</time>
      </trkpt>
      <trkpt lat="44.6318" lon="-1.15294">
        <ele>50.613865</ele>
        <time>2022-12-26T08:48:22.197Z</time>
      </trkpt>
      <trkpt lat="44.63185" lon="-1.1528">
        <ele>50.518483</ele>
        <time>2022-12-26T08:48:25.215Z</time>
      </trkpt>
      <trkpt lat="44.63188" lon="-1.15266">
        <ele>50.43147</ele>
        <time>2022-12-26T08:48:28.198Z</time>
      </trkpt>
      <trkpt lat="44.63192" lon="-1.15255">
        <ele>50.354384</ele>
        <time>2022-12-26T08:48:31.195Z</time>
      </trkpt>
      <trkpt lat="44.63195" lon="-1.15242">
        <ele>50.275035</ele>
        <time>2022-12-26T08:48:35.206Z</time>
      </trkpt>
      <trkpt lat="44.63202" lon="-1.15233">
        <ele>50.194024</ele>
        <time>2022-12-26T08:48:39.201Z</time>
      </trkpt>
      <trkpt lat="44.63204" lon="-1.15216">
        <ele>50.088472</ele>
        <time>2022-12-26T08:48:43.195Z</time>
      </trkpt>
      <trkpt lat="44.63206" lon="-1.15202">
        <ele>50.00659</ele>
        <time>2022-12-26T08:48:46.221Z</time>
      </trkpt>
      <trkpt lat="44.63206" lon="-1.15189">
        <ele>49.925684</ele>
        <time>2022-12-26T08:48:50.201Z</time>
      </trkpt>
      <trkpt lat="44.63203" lon="-1.15175">
        <ele>49.839725</ele>
        <time>2022-12-26T08:48:55.196Z</time>
      </trkpt>
      <trkpt lat="44.63203" lon="-1.15158">
        <ele>49.74011</ele>
        <time>2022-12-26T08:48:59.200Z</time>
      </trkpt>
      <trkpt lat="44.63204" lon="-1.15145">
        <ele>49.658584</ele>
        <time>2022-12-26T08:49:02.202Z</time>
      </trkpt>
      <trkpt lat="44.63206" lon="-1.1513">
        <ele>49.568079</ele>
        <time>2022-12-26T08:49:05.201Z</time>
      </trkpt>
      <trkpt lat="44.63208" lon="-1.15116">
        <ele>49.479505</ele>
        <time>2022-12-26T08:49:08.206Z</time>
      </trkpt>
      <trkpt lat="44.6321" lon="-1.15101">
        <ele>49.388871</ele>
        <time>2022-12-26T08:49:11.200Z</time>
      </trkpt>
      <trkpt lat="44.63212" lon="-1.15087">
        <ele>49.482497</ele>
        <time>2022-12-26T08:49:14.204Z</time>
      </trkpt>
      <trkpt lat="44.63215" lon="-1.15072">
        <ele>49.750613</ele>
        <time>2022-12-26T08:49:17.202Z</time>
      </trkpt>
      <trkpt lat="44.63219" lon="-1.15058">
        <ele>50.023653</ele>
        <time>2022-12-26T08:49:20.198Z</time>
      </trkpt>
      <trkpt lat="44.63223" lon="-1.15046">
        <ele>50.263352</ele>
        <time>2022-12-26T08:49:23.203Z</time>
      </trkpt>
      <trkpt lat="44.63225" lon="-1.1503">
        <ele>50.540354</ele>
        <time>2022-12-26T08:49:26.202Z</time>
      </trkpt>
      <trkpt lat="44.63227" lon="-1.15016">
        <ele>50.793424</ele>
        <time>2022-12-26T08:49:29.202Z</time>
      </trkpt>
      <trkpt lat="44.63229" lon="-1.15002">
        <ele>51.046472</ele>
        <time>2022-12-26T08:49:32.202Z</time>
      </trkpt>
      <trkpt lat="44.6323" lon="-1.14989">
        <ele>51.284669</ele>
        <time>2022-12-26T08:49:35.212Z</time>
      </trkpt>
      <trkpt lat="44.63234" lon="-1.14974">
        <ele>51.570223</ele>
        <time>2022-12-26T08:49:39.209Z</time>
      </trkpt>
      <trkpt lat="44.63236" lon="-1.1496">
        <ele>51.819386</ele>
        <time>2022-12-26T08:49:43.208Z</time>
      </trkpt>
      <trkpt lat="44.63236" lon="-1.14947">
        <ele>52.046579</ele>
        <time>2022-12-26T08:49:47.205Z</time>
      </trkpt>
      <trkpt lat="44.63238" lon="-1.14934">
        <ele>52.273319</ele>
        <time>2022-12-26T08:49:51.198Z</time>
      </trkpt>
      <trkpt lat="44.63241" lon="-1.14922">
        <ele>52.516266</ele>
        <time>2022-12-26T08:49:54.200Z</time>
      </trkpt>
      <trkpt lat="44.63246" lon="-1.14909">
        <ele>52.782559</ele>
        <time>2022-12-26T08:49:57.209Z</time>
      </trkpt>
      <trkpt lat="44.63253" lon="-1.14898">
        <ele>53.038469</ele>
        <time>2022-12-26T08:50:00.201Z</time>
      </trkpt>
      <trkpt lat="44.6326" lon="-1.14888">
        <ele>53.290465</ele>
        <time>2022-12-26T08:50:04.209Z</time>
      </trkpt>
      <trkpt lat="44.63256" lon="-1.14874">
        <ele>53.563205</ele>
        <time>2022-12-26T08:50:09.197Z</time>
      </trkpt>
      <trkpt lat="44.63247" lon="-1.14866">
        <ele>53.807841</ele>
        <time>2022-12-26T08:50:12.207Z</time>
      </trkpt>
      <trkpt lat="44.6324" lon="-1.14856">
        <ele>53.689501</ele>
        <time>2022-12-26T08:50:15.199Z</time>
      </trkpt>
      <trkpt lat="44.63233" lon="-1.14848">
        <ele>53.561781</ele>
        <time>2022-12-26T08:50:17.203Z</time>
      </trkpt>
      <trkpt lat="44.63223" lon="-1.14838">
        <ele>53.388312</ele>
        <time>2022-12-26T08:50:20.202Z</time>
      </trkpt>
      <trkpt lat="44.63214" lon="-1.14831">
        <ele>53.240603</ele>
        <time>2022-12-26T08:50:23.206Z</time>
      </trkpt>
      <trkpt lat="44.63203" lon="-1.14823">
        <ele>53.068519</ele>
        <time>2022-12-26T08:50:26.213Z</time>
      </trkpt>
      <trkpt lat="44.63194" lon="-1.14816">
        <ele>52.917687</ele>
        <time>2022-12-26T08:50:29.205Z</time>
      </trkpt>
      <trkpt lat="44.63184" lon="-1.14809">
        <ele>52.766192</ele>
        <time>2022-12-26T08:50:32.201Z</time>
      </trkpt>
      <trkpt lat="44.63174" lon="-1.14803">
        <ele>52.609185</ele>
        <time>2022-12-26T08:50:36.213Z</time>
      </trkpt>
      <trkpt lat="44.63169" lon="-1.1479">
        <ele>52.47162</ele>
        <time>2022-12-26T08:50:40.198Z</time>
      </trkpt>
      <trkpt lat="44.63173" lon="-1.14777">
        <ele>52.332768</ele>
        <time>2022-12-26T08:50:43.222Z</time>
      </trkpt>
      <trkpt lat="44.63178" lon="-1.14763">
        <ele>52.167377</ele>
        <time>2022-12-26T08:50:47.206Z</time>
      </trkpt>
      <trkpt lat="44.63182" lon="-1.14749">
        <ele>52.015614</ele>
        <time>2022-12-26T08:50:51.205Z</time>
      </trkpt>
      <trkpt lat="44.63185" lon="-1.14736">
        <ele>51.880108</ele>
        <time>2022-12-26T08:50:54.200Z</time>
      </trkpt>
      <trkpt lat="44.63189" lon="-1.14721">
        <ele>51.72273</ele>
        <time>2022-12-26T08:50:57.206Z</time>
      </trkpt>
      <trkpt lat="44.63193" lon="-1.1471">
        <ele>51.595509</ele>
        <time>2022-12-26T08:50:59.205Z</time>
      </trkpt>
      <trkpt lat="44.63196" lon="-1.14698">
        <ele>51.461742</ele>
        <time>2022-12-26T08:51:01.204Z</time>
      </trkpt>
      <trkpt lat="44.63198" lon="-1.14684">
        <ele>51.323427</ele>
        <time>2022-12-26T08:51:03.204Z</time>
      </trkpt>
      <trkpt lat="44.63202" lon="-1.14667">
        <ele>51.262384</ele>
        <time>2022-12-26T08:51:06.207Z</time>
      </trkpt>
      <trkpt lat="44.63208" lon="-1.14653">
        <ele>51.238682</ele>
        <time>2022-12-26T08:51:09.205Z</time>
      </trkpt>
      <trkpt lat="44.63214" lon="-1.14641">
        <ele>51.216558</ele>
        <time>2022-12-26T08:51:12.193Z</time>
      </trkpt>
      <trkpt lat="44.63225" lon="-1.14629">
        <ele>51.187741</ele>
        <time>2022-12-26T08:51:15.207Z</time>
      </trkpt>
      <trkpt lat="44.63234" lon="-1.14618">
        <ele>51.161693</ele>
        <time>2022-12-26T08:51:18.198Z</time>
      </trkpt>
      <trkpt lat="44.63244" lon="-1.14605">
        <ele>51.134438</ele>
        <time>2022-12-26T08:51:21.197Z</time>
      </trkpt>
      <trkpt lat="44.63251" lon="-1.14592">
        <ele>51.109635</ele>
        <time>2022-12-26T08:51:24.228Z</time>
      </trkpt>
      <trkpt lat="44.63258" lon="-1.14583">
        <ele>51.088803</ele>
        <time>2022-12-26T08:51:27.204Z</time>
      </trkpt>
      <trkpt lat="44.63269" lon="-1.14581">
        <ele>51.066533</ele>
        <time>2022-12-26T08:51:30.193Z</time>
      </trkpt>
      <trkpt lat="44.63277" lon="-1.14574">
        <ele>51.047111</ele>
        <time>2022-12-26T08:51:33.210Z</time>
      </trkpt>
      <trkpt lat="44.63278" lon="-1.14561">
        <ele>51.027219</ele>
        <time>2022-12-26T08:51:37.198Z</time>
      </trkpt>
      <trkpt lat="44.63277" lon="-1.14548">
        <ele>51.007155</ele>
        <time>2022-12-26T08:51:41.196Z</time>
      </trkpt>
      <trkpt lat="44.63277" lon="-1.14535">
        <ele>50.987521</ele>
        <time>2022-12-26T08:51:44.202Z</time>
      </trkpt>
      <trkpt lat="44.63278" lon="-1.14521">
        <ele>50.96693</ele>
        <time>2022-12-26T08:51:47.202Z</time>
      </trkpt>
      <trkpt lat="44.63288" lon="-1.14512">
        <ele>50.942804</ele>
        <time>2022-12-26T08:51:51.203Z</time>
      </trkpt>
      <trkpt lat="44.63298" lon="-1.14511">
        <ele>50.920565</ele>
        <time>2022-12-26T08:51:56.218Z</time>
      </trkpt>
      <trkpt lat="44.63303" lon="-1.14496">
        <ele>50.904702</ele>
        <time>2022-12-26T08:52:01.198Z</time>
      </trkpt>
      <trkpt lat="44.63304" lon="-1.14483">
        <ele>50.904154</ele>
        <time>2022-12-26T08:52:04.203Z</time>
      </trkpt>
      <trkpt lat="44.63304" lon="-1.14468">
        <ele>50.903484</ele>
        <time>2022-12-26T08:52:07.211Z</time>
      </trkpt>
      <trkpt lat="44.63306" lon="-1.14451">
        <ele>50.90276</ele>
        <time>2022-12-26T08:52:10.203Z</time>
      </trkpt>
      <trkpt lat="44.63309" lon="-1.14434">
        <ele>50.902026</ele>
        <time>2022-12-26T08:52:13.202Z</time>
      </trkpt>
      <trkpt lat="44.63312" lon="-1.14416">
        <ele>50.901251</ele>
        <time>2022-12-26T08:52:16.205Z</time>
      </trkpt>
      <trkpt lat="44.63314" lon="-1.14398">
        <ele>50.900461</ele>
        <time>2022-12-26T08:52:19.204Z</time>
      </trkpt>
      <trkpt lat="44.63318" lon="-1.14381">
        <ele>50.89973</ele>
        <time>2022-12-26T08:52:22.221Z</time>
      </trkpt>
      <trkpt lat="44.63319" lon="-1.14366">
        <ele>50.89908</ele>
        <time>2022-12-26T08:52:25.202Z</time>
      </trkpt>
      <trkpt lat="44.63322" lon="-1.14353">
        <ele>50.898492</ele>
        <time>2022-12-26T08:52:28.198Z</time>
      </trkpt>
      <trkpt lat="44.63324" lon="-1.1434">
        <ele>50.897914</ele>
        <time>2022-12-26T08:52:31.207Z</time>
      </trkpt>
      <trkpt lat="44.63327" lon="-1.14325">
        <ele>50.897255</ele>
        <time>2022-12-26T08:52:34.212Z</time>
      </trkpt>
      <trkpt lat="44.63329" lon="-1.1431">
        <ele>50.896617</ele>
        <time>2022-12-26T08:52:37.198Z</time>
      </trkpt>
      <trkpt lat="44.63331" lon="-1.14293">
        <ele>50.895891</ele>
        <time>2022-12-26T08:52:41.231Z</time>
      </trkpt>
      <trkpt lat="44.63333" lon="-1.14278">
        <ele>50.89526</ele>
        <time>2022-12-26T08:52:44.207Z</time>
      </trkpt>
      <trkpt lat="44.63335" lon="-1.14265">
        <ele>50.894678</ele>
        <time>2022-12-26T08:52:47.210Z</time>
      </trkpt>
      <trkpt lat="44.63336" lon="-1.14277">
        <ele>50.905421</ele>
        <time>2022-12-26T08:54:08.208Z</time>
      </trkpt>
      <trkpt lat="44.63329" lon="-1.14288">
        <ele>50.995336</ele>
        <time>2022-12-26T08:54:15.228Z</time>
      </trkpt>
      <trkpt lat="44.63318" lon="-1.14289">
        <ele>51.087858</ele>
        <time>2022-12-26T08:54:19.203Z</time>
      </trkpt>
      <trkpt lat="44.63309" lon="-1.14288">
        <ele>51.17181</ele>
        <time>2022-12-26T08:54:22.206Z</time>
      </trkpt>
      <trkpt lat="44.63298" lon="-1.14286">
        <ele>51.269013</ele>
        <time>2022-12-26T08:54:25.192Z</time>
      </trkpt>
      <trkpt lat="44.63286" lon="-1.14286">
        <ele>51.373745</ele>
        <time>2022-12-26T08:54:28.207Z</time>
      </trkpt>
      <trkpt lat="44.63274" lon="-1.14283">
        <ele>51.479312</ele>
        <time>2022-12-26T08:54:31.205Z</time>
      </trkpt>
      <trkpt lat="44.63264" lon="-1.14282">
        <ele>51.570456</ele>
        <time>2022-12-26T08:54:34.211Z</time>
      </trkpt>
      <trkpt lat="44.63255" lon="-1.1428">
        <ele>51.653404</ele>
        <time>2022-12-26T08:54:37.198Z</time>
      </trkpt>
      <trkpt lat="44.63245" lon="-1.14278">
        <ele>51.740982</ele>
        <time>2022-12-26T08:54:40.202Z</time>
      </trkpt>
      <trkpt lat="44.63234" lon="-1.14277">
        <ele>51.830774</ele>
        <time>2022-12-26T08:54:43.206Z</time>
      </trkpt>
      <trkpt lat="44.63223" lon="-1.14276">
        <ele>51.933909</ele>
        <time>2022-12-26T08:54:47.211Z</time>
      </trkpt>
      <trkpt lat="44.63214" lon="-1.14275">
        <ele>52.01436</ele>
        <time>2022-12-26T08:54:50.221Z</time>
      </trkpt>
      <trkpt lat="44.63204" lon="-1.14272">
        <ele>52.097571</ele>
        <time>2022-12-26T08:54:53.206Z</time>
      </trkpt>
      <trkpt lat="44.63195" lon="-1.14264">
        <ele>52.192728</ele>
        <time>2022-12-26T08:54:57.223Z</time>
      </trkpt>
      <trkpt lat="44.63187" lon="-1.14257">
        <ele>52.279927</ele>
        <time>2022-12-26T08:55:00.212Z</time>
      </trkpt>
      <trkpt lat="44.63178" lon="-1.14249">
        <ele>52.366143</ele>
        <time>2022-12-26T08:55:03.215Z</time>
      </trkpt>
      <trkpt lat="44.63169" lon="-1.14242">
        <ele>52.461724</ele>
        <time>2022-12-26T08:55:06.225Z</time>
      </trkpt>
      <trkpt lat="44.63158" lon="-1.14234">
        <ele>52.532302</ele>
        <time>2022-12-26T08:55:09.203Z</time>
      </trkpt>
      <trkpt lat="44.63147" lon="-1.14226">
        <ele>52.600467</ele>
        <time>2022-12-26T08:55:12.223Z</time>
      </trkpt>
      <trkpt lat="44.63136" lon="-1.1422">
        <ele>52.663364</ele>
        <time>2022-12-26T08:55:15.219Z</time>
      </trkpt>
      <trkpt lat="44.63125" lon="-1.14213">
        <ele>52.731833</ele>
        <time>2022-12-26T08:55:18.204Z</time>
      </trkpt>
      <trkpt lat="44.63114" lon="-1.14205">
        <ele>52.797664</ele>
        <time>2022-12-26T08:55:21.192Z</time>
      </trkpt>
      <trkpt lat="44.63104" lon="-1.14199">
        <ele>52.857615</ele>
        <time>2022-12-26T08:55:24.223Z</time>
      </trkpt>
      <trkpt lat="44.63093" lon="-1.14191">
        <ele>52.924774</ele>
        <time>2022-12-26T08:55:27.207Z</time>
      </trkpt>
      <trkpt lat="44.63082" lon="-1.14183">
        <ele>52.990451</ele>
        <time>2022-12-26T08:55:30.228Z</time>
      </trkpt>
      <trkpt lat="44.6307" lon="-1.14178">
        <ele>53.057607</ele>
        <time>2022-12-26T08:55:33.215Z</time>
      </trkpt>
      <trkpt lat="44.63059" lon="-1.1417">
        <ele>53.123454</ele>
        <time>2022-12-26T08:55:36.224Z</time>
      </trkpt>
      <trkpt lat="44.63049" lon="-1.14163">
        <ele>53.18588</ele>
        <time>2022-12-26T08:55:39.224Z</time>
      </trkpt>
      <trkpt lat="44.63038" lon="-1.14157">
        <ele>53.248684</ele>
        <time>2022-12-26T08:55:42.224Z</time>
      </trkpt>
      <trkpt lat="44.63027" lon="-1.14153">
        <ele>53.311316</ele>
        <time>2022-12-26T08:55:45.226Z</time>
      </trkpt>
      <trkpt lat="44.63017" lon="-1.14151">
        <ele>53.367102</ele>
        <time>2022-12-26T08:55:48.212Z</time>
      </trkpt>
      <trkpt lat="44.63005" lon="-1.14149">
        <ele>53.43093</ele>
        <time>2022-12-26T08:55:51.224Z</time>
      </trkpt>
      <trkpt lat="44.62992" lon="-1.14147">
        <ele>53.432669</ele>
        <time>2022-12-26T08:55:54.210Z</time>
      </trkpt>
      <trkpt lat="44.6298" lon="-1.14146">
        <ele>53.409124</ele>
        <time>2022-12-26T08:55:57.226Z</time>
      </trkpt>
      <trkpt lat="44.62967" lon="-1.14144">
        <ele>53.384607</ele>
        <time>2022-12-26T08:56:00.199Z</time>
      </trkpt>
      <trkpt lat="44.62954" lon="-1.14142">
        <ele>53.360806</ele>
        <time>2022-12-26T08:56:03.222Z</time>
      </trkpt>
      <trkpt lat="44.62942" lon="-1.1414">
        <ele>53.337974</ele>
        <time>2022-12-26T08:56:06.205Z</time>
      </trkpt>
      <trkpt lat="44.6293" lon="-1.14137">
        <ele>53.314867</ele>
        <time>2022-12-26T08:56:09.206Z</time>
      </trkpt>
      <trkpt lat="44.62917" lon="-1.14136">
        <ele>53.290782</ele>
        <time>2022-12-26T08:56:12.223Z</time>
      </trkpt>
      <trkpt lat="44.62907" lon="-1.14135">
        <ele>53.273378</ele>
        <time>2022-12-26T08:56:14.201Z</time>
      </trkpt>
      <trkpt lat="44.62898" lon="-1.14134">
        <ele>53.256146</ele>
        <time>2022-12-26T08:56:16.215Z</time>
      </trkpt>
      <trkpt lat="44.62889" lon="-1.14132">
        <ele>53.238886</ele>
        <time>2022-12-26T08:56:18.210Z</time>
      </trkpt>
      <trkpt lat="44.6288" lon="-1.14131">
        <ele>53.221455</ele>
        <time>2022-12-26T08:56:20.203Z</time>
      </trkpt>
      <trkpt lat="44.62867" lon="-1.14128">
        <ele>53.197109</ele>
        <time>2022-12-26T08:56:23.206Z</time>
      </trkpt>
      <trkpt lat="44.62854" lon="-1.14125">
        <ele>53.173026</ele>
        <time>2022-12-26T08:56:26.203Z</time>
      </trkpt>
      <trkpt lat="44.62841" lon="-1.14124">
        <ele>53.148718</ele>
        <time>2022-12-26T08:56:29.206Z</time>
      </trkpt>
      <trkpt lat="44.62828" lon="-1.14122">
        <ele>53.124652</ele>
        <time>2022-12-26T08:56:32.207Z</time>
      </trkpt>
      <trkpt lat="44.62816" lon="-1.1412">
        <ele>53.143612</ele>
        <time>2022-12-26T08:56:35.209Z</time>
      </trkpt>
      <trkpt lat="44.62805" lon="-1.14117">
        <ele>53.189156</ele>
        <time>2022-12-26T08:56:38.206Z</time>
      </trkpt>
      <trkpt lat="44.62793" lon="-1.14115">
        <ele>53.236693</ele>
        <time>2022-12-26T08:56:41.201Z</time>
      </trkpt>
      <trkpt lat="44.6278" lon="-1.14113">
        <ele>53.2883</ele>
        <time>2022-12-26T08:56:44.230Z</time>
      </trkpt>
      <trkpt lat="44.62768" lon="-1.14111">
        <ele>53.33965</ele>
        <time>2022-12-26T08:56:47.209Z</time>
      </trkpt>
      <trkpt lat="44.62756" lon="-1.14112">
        <ele>53.38925</ele>
        <time>2022-12-26T08:56:50.213Z</time>
      </trkpt>
      <trkpt lat="44.62743" lon="-1.14114">
        <ele>53.440653</ele>
        <time>2022-12-26T08:56:53.217Z</time>
      </trkpt>
      <trkpt lat="44.62731" lon="-1.14119">
        <ele>53.48997</ele>
        <time>2022-12-26T08:56:56.221Z</time>
      </trkpt>
      <trkpt lat="44.62719" lon="-1.14125">
        <ele>53.542522</ele>
        <time>2022-12-26T08:56:59.231Z</time>
      </trkpt>
      <trkpt lat="44.62708" lon="-1.14131">
        <ele>53.592281</ele>
        <time>2022-12-26T08:57:02.226Z</time>
      </trkpt>
      <trkpt lat="44.62697" lon="-1.14136">
        <ele>53.637436</ele>
        <time>2022-12-26T08:57:05.217Z</time>
      </trkpt>
      <trkpt lat="44.62688" lon="-1.1414">
        <ele>53.676665</ele>
        <time>2022-12-26T08:57:08.205Z</time>
      </trkpt>
      <trkpt lat="44.62677" lon="-1.14141">
        <ele>53.72124</ele>
        <time>2022-12-26T08:57:12.225Z</time>
      </trkpt>
      <trkpt lat="44.62669" lon="-1.14133">
        <ele>53.763655</ele>
        <time>2022-12-26T08:57:16.218Z</time>
      </trkpt>
      <trkpt lat="44.62662" lon="-1.14124">
        <ele>53.801832</ele>
        <time>2022-12-26T08:57:21.203Z</time>
      </trkpt>
      <trkpt lat="44.62651" lon="-1.14123">
        <ele>53.844533</ele>
        <time>2022-12-26T08:57:38.209Z</time>
      </trkpt>
      <trkpt lat="44.62643" lon="-1.14116">
        <ele>53.814144</ele>
        <time>2022-12-26T08:57:43.214Z</time>
      </trkpt>
      <trkpt lat="44.62638" lon="-1.14103">
        <ele>53.779769</ele>
        <time>2022-12-26T08:57:47.227Z</time>
      </trkpt>
      <trkpt lat="44.62633" lon="-1.14091">
        <ele>53.747728</ele>
        <time>2022-12-26T08:57:50.239Z</time>
      </trkpt>
      <trkpt lat="44.62629" lon="-1.14077">
        <ele>53.714447</ele>
        <time>2022-12-26T08:57:53.200Z</time>
      </trkpt>
      <trkpt lat="44.62625" lon="-1.14064">
        <ele>53.682847</ele>
        <time>2022-12-26T08:57:56.224Z</time>
      </trkpt>
      <trkpt lat="44.62619" lon="-1.1405">
        <ele>53.645159</ele>
        <time>2022-12-26T08:58:00.198Z</time>
      </trkpt>
      <trkpt lat="44.62613" lon="-1.14038">
        <ele>53.611422</ele>
        <time>2022-12-26T08:58:03.206Z</time>
      </trkpt>
      <trkpt lat="44.62608" lon="-1.14025">
        <ele>53.576714</ele>
        <time>2022-12-26T08:58:07.222Z</time>
      </trkpt>
      <trkpt lat="44.62602" lon="-1.14013">
        <ele>53.543489</ele>
        <time>2022-12-26T08:58:12.215Z</time>
      </trkpt>
      <trkpt lat="44.62592" lon="-1.14009">
        <ele>53.510755</ele>
        <time>2022-12-26T08:58:17.198Z</time>
      </trkpt>
      <trkpt lat="44.62583" lon="-1.14006">
        <ele>53.480188</ele>
        <time>2022-12-26T08:58:20.213Z</time>
      </trkpt>
      <trkpt lat="44.62573" lon="-1.14003">
        <ele>53.448136</ele>
        <time>2022-12-26T08:58:23.200Z</time>
      </trkpt>
      <trkpt lat="44.62564" lon="-1.13998">
        <ele>53.415049</ele>
        <time>2022-12-26T08:58:26.212Z</time>
      </trkpt>
      <trkpt lat="44.62554" lon="-1.13993">
        <ele>53.382906</ele>
        <time>2022-12-26T08:58:29.203Z</time>
      </trkpt>
      <trkpt lat="44.62544" lon="-1.13988">
        <ele>53.346196</ele>
        <time>2022-12-26T08:58:33.201Z</time>
      </trkpt>
      <trkpt lat="44.62523" lon="-1.13978">
        <ele>53.277516</ele>
        <time>2022-12-26T08:58:54.201Z</time>
      </trkpt>
      <trkpt lat="44.62513" lon="-1.13974">
        <ele>53.27281</ele>
        <time>2022-12-26T08:58:57.196Z</time>
      </trkpt>
      <trkpt lat="44.62502" lon="-1.13969">
        <ele>53.280957</ele>
        <time>2022-12-26T08:59:00.198Z</time>
      </trkpt>
      <trkpt lat="44.62492" lon="-1.13963">
        <ele>53.289298</ele>
        <time>2022-12-26T08:59:03.209Z</time>
      </trkpt>
      <trkpt lat="44.62482" lon="-1.13958">
        <ele>53.296917</ele>
        <time>2022-12-26T08:59:06.199Z</time>
      </trkpt>
      <trkpt lat="44.62472" lon="-1.13954">
        <ele>53.304054</ele>
        <time>2022-12-26T08:59:09.201Z</time>
      </trkpt>
      <trkpt lat="44.62462" lon="-1.1395">
        <ele>53.311613</ele>
        <time>2022-12-26T08:59:12.196Z</time>
      </trkpt>
      <trkpt lat="44.62451" lon="-1.13946">
        <ele>53.319954</ele>
        <time>2022-12-26T08:59:15.205Z</time>
      </trkpt>
      <trkpt lat="44.6244" lon="-1.13942">
        <ele>53.328385</ele>
        <time>2022-12-26T08:59:18.197Z</time>
      </trkpt>
      <trkpt lat="44.62429" lon="-1.13938">
        <ele>53.336853</ele>
        <time>2022-12-26T08:59:21.203Z</time>
      </trkpt>
      <trkpt lat="44.62418" lon="-1.13935">
        <ele>53.344964</ele>
        <time>2022-12-26T08:59:24.202Z</time>
      </trkpt>
      <trkpt lat="44.62407" lon="-1.13931">
        <ele>53.352662</ele>
        <time>2022-12-26T08:59:27.209Z</time>
      </trkpt>
      <trkpt lat="44.62397" lon="-1.13927">
        <ele>53.360399</ele>
        <time>2022-12-26T08:59:31.215Z</time>
      </trkpt>
      <trkpt lat="44.62389" lon="-1.1392">
        <ele>53.367413</ele>
        <time>2022-12-26T08:59:35.212Z</time>
      </trkpt>
      <trkpt lat="44.62386" lon="-1.13907">
        <ele>53.37481</ele>
        <time>2022-12-26T08:59:39.217Z</time>
      </trkpt>
      <trkpt lat="44.62388" lon="-1.13895">
        <ele>53.381453</ele>
        <time>2022-12-26T08:59:42.207Z</time>
      </trkpt>
      <trkpt lat="44.62392" lon="-1.13882">
        <ele>53.388438</ele>
        <time>2022-12-26T08:59:45.203Z</time>
      </trkpt>
      <trkpt lat="44.62396" lon="-1.13869">
        <ele>53.395733</ele>
        <time>2022-12-26T08:59:48.203Z</time>
      </trkpt>
      <trkpt lat="44.62401" lon="-1.13854">
        <ele>53.336631</ele>
        <time>2022-12-26T08:59:51.200Z</time>
      </trkpt>
      <trkpt lat="44.62405" lon="-1.1384">
        <ele>53.263464</ele>
        <time>2022-12-26T08:59:54.194Z</time>
      </trkpt>
      <trkpt lat="44.62407" lon="-1.13826">
        <ele>53.187745</ele>
        <time>2022-12-26T08:59:57.210Z</time>
      </trkpt>
      <trkpt lat="44.62411" lon="-1.13811">
        <ele>53.112206</ele>
        <time>2022-12-26T09:00:00.202Z</time>
      </trkpt>
      <trkpt lat="44.62413" lon="-1.13797">
        <ele>53.037736</ele>
        <time>2022-12-26T09:00:03.210Z</time>
      </trkpt>
      <trkpt lat="44.62415" lon="-1.13782">
        <ele>52.961721</ele>
        <time>2022-12-26T09:00:06.198Z</time>
      </trkpt>
      <trkpt lat="44.62418" lon="-1.13766">
        <ele>52.882754</ele>
        <time>2022-12-26T09:00:09.205Z</time>
      </trkpt>
      <trkpt lat="44.62421" lon="-1.1375">
        <ele>52.798236</ele>
        <time>2022-12-26T09:00:12.198Z</time>
      </trkpt>
      <trkpt lat="44.62424" lon="-1.13732">
        <ele>52.707859</ele>
        <time>2022-12-26T09:00:15.193Z</time>
      </trkpt>
      <trkpt lat="44.62426" lon="-1.13716">
        <ele>52.627393</ele>
        <time>2022-12-26T09:00:18.199Z</time>
      </trkpt>
      <trkpt lat="44.62429" lon="-1.13702">
        <ele>52.554258</ele>
        <time>2022-12-26T09:00:21.199Z</time>
      </trkpt>
      <trkpt lat="44.62431" lon="-1.1369">
        <ele>52.491143</ele>
        <time>2022-12-26T09:00:24.216Z</time>
      </trkpt>
      <trkpt lat="44.62434" lon="-1.13675">
        <ele>52.414094</ele>
        <time>2022-12-26T09:00:28.209Z</time>
      </trkpt>
      <trkpt lat="44.62438" lon="-1.13661">
        <ele>52.33815</ele>
        <time>2022-12-26T09:00:32.203Z</time>
      </trkpt>
      <trkpt lat="44.62441" lon="-1.13645">
        <ele>52.258322</ele>
        <time>2022-12-26T09:00:36.203Z</time>
      </trkpt>
      <trkpt lat="44.62445" lon="-1.13633">
        <ele>52.192969</ele>
        <time>2022-12-26T09:01:01.198Z</time>
      </trkpt>
      <trkpt lat="44.62449" lon="-1.13622">
        <ele>52.164368</ele>
        <time>2022-12-26T09:01:13.210Z</time>
      </trkpt>
      <trkpt lat="44.62447" lon="-1.13606">
        <ele>52.350253</ele>
        <time>2022-12-26T09:01:18.203Z</time>
      </trkpt>
      <trkpt lat="44.62441" lon="-1.13593">
        <ele>52.526237</ele>
        <time>2022-12-26T09:01:21.222Z</time>
      </trkpt>
      <trkpt lat="44.62436" lon="-1.13579">
        <ele>52.699363</ele>
        <time>2022-12-26T09:01:24.199Z</time>
      </trkpt>
      <trkpt lat="44.6243" lon="-1.13565">
        <ele>52.882116</ele>
        <time>2022-12-26T09:01:27.207Z</time>
      </trkpt>
      <trkpt lat="44.62425" lon="-1.1355">
        <ele>53.058768</ele>
        <time>2022-12-26T09:01:30.202Z</time>
      </trkpt>
      <trkpt lat="44.6242" lon="-1.13537">
        <ele>53.227759</ele>
        <time>2022-12-26T09:01:33.197Z</time>
      </trkpt>
      <trkpt lat="44.62417" lon="-1.13525">
        <ele>53.377465</ele>
        <time>2022-12-26T09:01:36.209Z</time>
      </trkpt>
      <trkpt lat="44.62412" lon="-1.1351">
        <ele>53.55448</ele>
        <time>2022-12-26T09:01:39.205Z</time>
      </trkpt>
      <trkpt lat="44.62407" lon="-1.13495">
        <ele>53.736847</ele>
        <time>2022-12-26T09:01:42.211Z</time>
      </trkpt>
      <trkpt lat="44.62402" lon="-1.1348">
        <ele>53.919521</ele>
        <time>2022-12-26T09:01:45.222Z</time>
      </trkpt>
      <trkpt lat="44.62397" lon="-1.13465">
        <ele>54.104941</ele>
        <time>2022-12-26T09:01:48.209Z</time>
      </trkpt>
      <trkpt lat="44.62392" lon="-1.13451">
        <ele>54.283596</ele>
        <time>2022-12-26T09:01:51.194Z</time>
      </trkpt>
      <trkpt lat="44.62387" lon="-1.13436">
        <ele>54.469297</ele>
        <time>2022-12-26T09:01:54.228Z</time>
      </trkpt>
      <trkpt lat="44.62381" lon="-1.13423">
        <ele>54.646447</ele>
        <time>2022-12-26T09:01:57.197Z</time>
      </trkpt>
      <trkpt lat="44.62372" lon="-1.13411">
        <ele>54.835879</ele>
        <time>2022-12-26T09:02:00.210Z</time>
      </trkpt>
      <trkpt lat="44.62363" lon="-1.13401">
        <ele>55.023285</ele>
        <time>2022-12-26T09:02:03.209Z</time>
      </trkpt>
      <trkpt lat="44.62353" lon="-1.1339">
        <ele>55.227112</ele>
        <time>2022-12-26T09:02:06.212Z</time>
      </trkpt>
      <trkpt lat="44.62341" lon="-1.1338">
        <ele>55.442347</ele>
        <time>2022-12-26T09:02:09.216Z</time>
      </trkpt>
      <trkpt lat="44.6233" lon="-1.1337">
        <ele>55.656823</ele>
        <time>2022-12-26T09:02:12.202Z</time>
      </trkpt>
      <trkpt lat="44.62319" lon="-1.1336">
        <ele>55.867091</ele>
        <time>2022-12-26T09:02:15.209Z</time>
      </trkpt>
      <trkpt lat="44.62311" lon="-1.13353">
        <ele>56.018099</ele>
        <time>2022-12-26T09:02:17.221Z</time>
      </trkpt>
      <trkpt lat="44.62303" lon="-1.13346">
        <ele>56.1642</ele>
        <time>2022-12-26T09:02:19.218Z</time>
      </trkpt>
      <trkpt lat="44.62292" lon="-1.13336">
        <ele>56.373413</ele>
        <time>2022-12-26T09:02:22.221Z</time>
      </trkpt>
      <trkpt lat="44.6228" lon="-1.13327">
        <ele>56.582096</ele>
        <time>2022-12-26T09:02:25.217Z</time>
      </trkpt>
      <trkpt lat="44.6227" lon="-1.13318">
        <ele>56.774741</ele>
        <time>2022-12-26T09:02:28.213Z</time>
      </trkpt>
      <trkpt lat="44.6226" lon="-1.13309">
        <ele>56.963805</ele>
        <time>2022-12-26T09:02:31.206Z</time>
      </trkpt>
      <trkpt lat="44.6225" lon="-1.133">
        <ele>57.151511</ele>
        <time>2022-12-26T09:02:34.215Z</time>
      </trkpt>
      <trkpt lat="44.62239" lon="-1.13291">
        <ele>57.35639</ele>
        <time>2022-12-26T09:02:37.202Z</time>
      </trkpt>
      <trkpt lat="44.62229" lon="-1.13282">
        <ele>57.554474</ele>
        <time>2022-12-26T09:02:40.208Z</time>
      </trkpt>
      <trkpt lat="44.62219" lon="-1.13273">
        <ele>57.74609</ele>
        <time>2022-12-26T09:02:43.201Z</time>
      </trkpt>
      <trkpt lat="44.62208" lon="-1.13265">
        <ele>57.796786</ele>
        <time>2022-12-26T09:02:46.203Z</time>
      </trkpt>
      <trkpt lat="44.62198" lon="-1.13255">
        <ele>57.737214</ele>
        <time>2022-12-26T09:02:49.225Z</time>
      </trkpt>
      <trkpt lat="44.62188" lon="-1.13246">
        <ele>57.677176</ele>
        <time>2022-12-26T09:02:52.202Z</time>
      </trkpt>
      <trkpt lat="44.62178" lon="-1.13237">
        <ele>57.615887</ele>
        <time>2022-12-26T09:02:55.206Z</time>
      </trkpt>
      <trkpt lat="44.62167" lon="-1.13228">
        <ele>57.554781</ele>
        <time>2022-12-26T09:02:58.207Z</time>
      </trkpt>
      <trkpt lat="44.62156" lon="-1.13218">
        <ele>57.493492</ele>
        <time>2022-12-26T09:03:01.208Z</time>
      </trkpt>
      <trkpt lat="44.62147" lon="-1.13211">
        <ele>57.440873</ele>
        <time>2022-12-26T09:03:04.222Z</time>
      </trkpt>
      <trkpt lat="44.62139" lon="-1.13203">
        <ele>57.391684</ele>
        <time>2022-12-26T09:03:07.209Z</time>
      </trkpt>
      <trkpt lat="44.62131" lon="-1.13196">
        <ele>57.344118</ele>
        <time>2022-12-26T09:03:10.204Z</time>
      </trkpt>
      <trkpt lat="44.62122" lon="-1.13189">
        <ele>57.295763</ele>
        <time>2022-12-26T09:03:13.222Z</time>
      </trkpt>
      <trkpt lat="44.62114" lon="-1.13181">
        <ele>57.246656</ele>
        <time>2022-12-26T09:03:16.202Z</time>
      </trkpt>
      <trkpt lat="44.62105" lon="-1.13171">
        <ele>57.193057</ele>
        <time>2022-12-26T09:03:20.202Z</time>
      </trkpt>
      <trkpt lat="44.62099" lon="-1.13161">
        <ele>57.144887</ele>
        <time>2022-12-26T09:03:25.204Z</time>
      </trkpt>
      <trkpt lat="44.62098" lon="-1.13147">
        <ele>57.096368</ele>
        <time>2022-12-26T09:03:42.211Z</time>
      </trkpt>
      <trkpt lat="44.62089" lon="-1.1314">
        <ele>57.046098</ele>
        <time>2022-12-26T09:03:47.227Z</time>
      </trkpt>
      <trkpt lat="44.62078" lon="-1.1314">
        <ele>56.992953</ele>
        <time>2022-12-26T09:03:51.221Z</time>
      </trkpt>
      <trkpt lat="44.62068" lon="-1.13139">
        <ele>56.94193</ele>
        <time>2022-12-26T09:03:55.226Z</time>
      </trkpt>
      <trkpt lat="44.62059" lon="-1.13139">
        <ele>56.802963</ele>
        <time>2022-12-26T09:03:58.206Z</time>
      </trkpt>
      <trkpt lat="44.62049" lon="-1.13137">
        <ele>56.649905</ele>
        <time>2022-12-26T09:04:01.201Z</time>
      </trkpt>
      <trkpt lat="44.62039" lon="-1.13131">
        <ele>56.494831</ele>
        <time>2022-12-26T09:04:04.196Z</time>
      </trkpt>
      <trkpt lat="44.62029" lon="-1.13123">
        <ele>56.316787</ele>
        <time>2022-12-26T09:04:07.206Z</time>
      </trkpt>
      <trkpt lat="44.62019" lon="-1.13115">
        <ele>56.139351</ele>
        <time>2022-12-26T09:04:10.198Z</time>
      </trkpt>
      <trkpt lat="44.62008" lon="-1.13107">
        <ele>55.956575</ele>
        <time>2022-12-26T09:04:13.220Z</time>
      </trkpt>
      <trkpt lat="44.61998" lon="-1.13099">
        <ele>55.783003</ele>
        <time>2022-12-26T09:04:16.211Z</time>
      </trkpt>
      <trkpt lat="44.61987" lon="-1.13092">
        <ele>55.602384</ele>
        <time>2022-12-26T09:04:19.226Z</time>
      </trkpt>
      <trkpt lat="44.61977" lon="-1.13084">
        <ele>55.417464</ele>
        <time>2022-12-26T09:04:22.223Z</time>
      </trkpt>
      <trkpt lat="44.61966" lon="-1.13075">
        <ele>55.228883</ele>
        <time>2022-12-26T09:04:25.211Z</time>
      </trkpt>
      <trkpt lat="44.61955" lon="-1.13068">
        <ele>55.049214</ele>
        <time>2022-12-26T09:04:28.224Z</time>
      </trkpt>
      <trkpt lat="44.61944" lon="-1.13061">
        <ele>54.869559</ele>
        <time>2022-12-26T09:04:31.228Z</time>
      </trkpt>
      <trkpt lat="44.61935" lon="-1.13054">
        <ele>54.710195</ele>
        <time>2022-12-26T09:04:34.205Z</time>
      </trkpt>
      <trkpt lat="44.61925" lon="-1.13046">
        <ele>54.539533</ele>
        <time>2022-12-26T09:04:38.209Z</time>
      </trkpt>
      <trkpt lat="44.61917" lon="-1.13039">
        <ele>54.403289</ele>
        <time>2022-12-26T09:04:41.226Z</time>
      </trkpt>
      <trkpt lat="44.61908" lon="-1.13033">
        <ele>54.250053</ele>
        <time>2022-12-26T09:04:44.210Z</time>
      </trkpt>
      <trkpt lat="44.61898" lon="-1.13025">
        <ele>54.22731</ele>
        <time>2022-12-26T09:04:48.206Z</time>
      </trkpt>
      <trkpt lat="44.61889" lon="-1.13019">
        <ele>54.227538</ele>
        <time>2022-12-26T09:04:52.207Z</time>
      </trkpt>
      <trkpt lat="44.6188" lon="-1.13011">
        <ele>54.227799</ele>
        <time>2022-12-26T09:04:57.220Z</time>
      </trkpt>
      <trkpt lat="44.61872" lon="-1.13004">
        <ele>54.22802</ele>
        <time>2022-12-26T09:05:00.212Z</time>
      </trkpt>
      <trkpt lat="44.61861" lon="-1.12997">
        <ele>54.22829</ele>
        <time>2022-12-26T09:05:03.210Z</time>
      </trkpt>
      <trkpt lat="44.61853" lon="-1.12993">
        <ele>54.228504</ele>
        <time>2022-12-26T09:05:05.222Z</time>
      </trkpt>
      <trkpt lat="44.61844" lon="-1.12986">
        <ele>54.228731</ele>
        <time>2022-12-26T09:05:07.205Z</time>
      </trkpt>
      <trkpt lat="44.61835" lon="-1.1298">
        <ele>54.228976</ele>
        <time>2022-12-26T09:05:09.224Z</time>
      </trkpt>
      <trkpt lat="44.61824" lon="-1.12974">
        <ele>54.229242</ele>
        <time>2022-12-26T09:05:11.207Z</time>
      </trkpt>
      <trkpt lat="44.61813" lon="-1.12969">
        <ele>54.229522</ele>
        <time>2022-12-26T09:05:13.214Z</time>
      </trkpt>
      <trkpt lat="44.61799" lon="-1.12971">
        <ele>54.22984</ele>
        <time>2022-12-26T09:05:15.209Z</time>
      </trkpt>
      <trkpt lat="44.61795" lon="-1.12956">
        <ele>54.230097</ele>
        <time>2022-12-26T09:05:17.208Z</time>
      </trkpt>
      <trkpt lat="44.61786" lon="-1.12951">
        <ele>54.230327</ele>
        <time>2022-12-26T09:05:20.200Z</time>
      </trkpt>
      <trkpt lat="44.61777" lon="-1.12947">
        <ele>54.230545</ele>
        <time>2022-12-26T09:05:24.210Z</time>
      </trkpt>
      <trkpt lat="44.61767" lon="-1.1294">
        <ele>54.230807</ele>
        <time>2022-12-26T09:05:28.205Z</time>
      </trkpt>
      <trkpt lat="44.61756" lon="-1.12935">
        <ele>54.231068</ele>
        <time>2022-12-26T09:05:32.226Z</time>
      </trkpt>
      <trkpt lat="44.61747" lon="-1.1293">
        <ele>54.231278</ele>
        <time>2022-12-26T09:05:36.218Z</time>
      </trkpt>
      <trkpt lat="44.61743" lon="-1.12918">
        <ele>54.231278</ele>
        <time>2022-12-26T09:05:52.205Z</time>
      </trkpt>
      <trkpt lat="44.61744" lon="-1.12905">
        <ele>54.231278</ele>
        <time>2022-12-26T09:05:57.200Z</time>
      </trkpt>
      <trkpt lat="44.61746" lon="-1.12891">
        <ele>54.231278</ele>
        <time>2022-12-26T09:06:01.196Z</time>
      </trkpt>
      <trkpt lat="44.61748" lon="-1.12876">
        <ele>54.231278</ele>
        <time>2022-12-26T09:06:05.207Z</time>
      </trkpt>
      <trkpt lat="44.61747" lon="-1.1286">
        <ele>54.231278</ele>
        <time>2022-12-26T09:06:08.210Z</time>
      </trkpt>
      <trkpt lat="44.61748" lon="-1.12847">
        <ele>54.231278</ele>
        <time>2022-12-26T09:06:11.208Z</time>
      </trkpt>
      <trkpt lat="44.61748" lon="-1.12834">
        <ele>54.231278</ele>
        <time>2022-12-26T09:06:15.205Z</time>
      </trkpt>
      <trkpt lat="44.6175" lon="-1.12819">
        <ele>54.231278</ele>
        <time>2022-12-26T09:06:19.204Z</time>
      </trkpt>
      <trkpt lat="44.61751" lon="-1.12807">
        <ele>54.231278</ele>
        <time>2022-12-26T09:06:23.206Z</time>
      </trkpt>
      <trkpt lat="44.61752" lon="-1.12792">
        <ele>54.231278</ele>
        <time>2022-12-26T09:06:27.203Z</time>
      </trkpt>
      <trkpt lat="44.61753" lon="-1.12777">
        <ele>54.231278</ele>
        <time>2022-12-26T09:06:31.208Z</time>
      </trkpt>
      <trkpt lat="44.61753" lon="-1.12762">
        <ele>54.231278</ele>
        <time>2022-12-26T09:06:35.213Z</time>
      </trkpt>
      <trkpt lat="44.61754" lon="-1.1276">
        <ele>54.231278</ele>
        <time>2022-12-26T09:06:52.403Z</time>
        <extensions>
          <visugpx:TrkExtension xmlns:visugpx="https://www.visugpx.com/editgpx/">
            <visugpx:node>1</visugpx:node>
            </visugpx:TrkExtension>
        </extensions>
      </trkpt>
    </trkseg>
  </trk>
  <trk>
    <name><![CDATA[La Teste de Buch - Uzeste]]></name>
    <extensions>
      <line xmlns="http://www.topografix.com/GPX/gpx_style/0/2">
        <color>0000ff</color>
        <width>4</width>
      </line>
    </extensions>
    <trkseg>
      <trkpt lat="44.62892" lon="-1.1466">
        <ele>54.585943</ele>
        <time>2022-12-27T10:33:59.403Z</time>
      </trkpt>
      <trkpt lat="44.629" lon="-1.14653">
        <ele>54.585943</ele>
        <time>2022-12-27T10:34:31.711Z</time>
      </trkpt>
      <trkpt lat="44.62909" lon="-1.14648">
        <ele>54.585943</ele>
        <time>2022-12-27T10:34:36.691Z</time>
      </trkpt>
      <trkpt lat="44.6292" lon="-1.14646">
        <ele>54.585943</ele>
        <time>2022-12-27T10:34:41.685Z</time>
      </trkpt>
      <trkpt lat="44.6293" lon="-1.14642">
        <ele>54.585943</ele>
        <time>2022-12-27T10:34:45.684Z</time>
      </trkpt>
      <trkpt lat="44.62939" lon="-1.14642">
        <ele>54.585943</ele>
        <time>2022-12-27T10:34:49.695Z</time>
      </trkpt>
      <trkpt lat="44.62948" lon="-1.14642">
        <ele>54.585943</ele>
        <time>2022-12-27T10:34:52.683Z</time>
      </trkpt>
      <trkpt lat="44.6296" lon="-1.14642">
        <ele>54.585943</ele>
        <time>2022-12-27T10:34:56.685Z</time>
      </trkpt>
      <trkpt lat="44.62971" lon="-1.14643">
        <ele>54.585943</ele>
        <time>2022-12-27T10:34:59.687Z</time>
      </trkpt>
      <trkpt lat="44.6298" lon="-1.14645">
        <ele>54.518927</ele>
        <time>2022-12-27T10:35:02.687Z</time>
      </trkpt>
      <trkpt lat="44.62991" lon="-1.14647">
        <ele>54.063518</ele>
        <time>2022-12-27T10:35:06.683Z</time>
      </trkpt>
      <trkpt lat="44.63001" lon="-1.14648">
        <ele>53.675964</ele>
        <time>2022-12-27T10:35:09.688Z</time>
      </trkpt>
      <trkpt lat="44.6301" lon="-1.1465">
        <ele>53.278285</ele>
        <time>2022-12-27T10:35:12.683Z</time>
      </trkpt>
      <trkpt lat="44.63021" lon="-1.14652">
        <ele>52.838278</ele>
        <time>2022-12-27T10:35:16.686Z</time>
      </trkpt>
      <trkpt lat="44.6303" lon="-1.14654">
        <ele>52.44256</ele>
        <time>2022-12-27T10:35:19.686Z</time>
      </trkpt>
      <trkpt lat="44.63039" lon="-1.14656">
        <ele>52.052311</ele>
        <time>2022-12-27T10:35:22.684Z</time>
      </trkpt>
      <trkpt lat="44.63048" lon="-1.14658">
        <ele>51.669834</ele>
        <time>2022-12-27T10:35:25.684Z</time>
      </trkpt>
      <trkpt lat="44.63059" lon="-1.1466">
        <ele>51.21667</ele>
        <time>2022-12-27T10:35:29.696Z</time>
      </trkpt>
      <trkpt lat="44.63071" lon="-1.14661">
        <ele>50.741473</ele>
        <time>2022-12-27T10:35:33.698Z</time>
      </trkpt>
      <trkpt lat="44.63082" lon="-1.14665">
        <ele>50.24618</ele>
        <time>2022-12-27T10:35:37.684Z</time>
      </trkpt>
      <trkpt lat="44.63093" lon="-1.14666">
        <ele>49.814223</ele>
        <time>2022-12-27T10:35:40.689Z</time>
      </trkpt>
      <trkpt lat="44.63102" lon="-1.14667">
        <ele>49.414003</ele>
        <time>2022-12-27T10:35:43.688Z</time>
      </trkpt>
      <trkpt lat="44.63112" lon="-1.1467">
        <ele>49.00289</ele>
        <time>2022-12-27T10:35:47.685Z</time>
      </trkpt>
      <trkpt lat="44.63122" lon="-1.14673">
        <ele>48.568247</ele>
        <time>2022-12-27T10:35:54.682Z</time>
      </trkpt>
      <trkpt lat="44.6313" lon="-1.14665">
        <ele>48.143084</ele>
        <time>2022-12-27T10:35:58.699Z</time>
      </trkpt>
      <trkpt lat="44.63134" lon="-1.14652">
        <ele>47.748463</ele>
        <time>2022-12-27T10:36:01.688Z</time>
      </trkpt>
      <trkpt lat="44.63136" lon="-1.14638">
        <ele>47.30944</ele>
        <time>2022-12-27T10:36:04.686Z</time>
      </trkpt>
      <trkpt lat="44.63139" lon="-1.14624">
        <ele>47.295101</ele>
        <time>2022-12-27T10:36:08.691Z</time>
      </trkpt>
      <trkpt lat="44.63139" lon="-1.14607">
        <ele>47.671475</ele>
        <time>2022-12-27T10:36:12.685Z</time>
      </trkpt>
      <trkpt lat="44.63138" lon="-1.14594">
        <ele>47.962692</ele>
        <time>2022-12-27T10:36:15.687Z</time>
      </trkpt>
      <trkpt lat="44.63138" lon="-1.14577">
        <ele>48.33561</ele>
        <time>2022-12-27T10:36:19.690Z</time>
      </trkpt>
      <trkpt lat="44.63138" lon="-1.14564">
        <ele>48.642555</ele>
        <time>2022-12-27T10:36:22.688Z</time>
      </trkpt>
      <trkpt lat="44.6314" lon="-1.14549">
        <ele>48.979427</ele>
        <time>2022-12-27T10:36:25.680Z</time>
      </trkpt>
      <trkpt lat="44.63141" lon="-1.14536">
        <ele>49.277127</ele>
        <time>2022-12-27T10:36:28.689Z</time>
      </trkpt>
      <trkpt lat="44.63141" lon="-1.14521">
        <ele>49.604228</ele>
        <time>2022-12-27T10:36:32.693Z</time>
      </trkpt>
      <trkpt lat="44.63141" lon="-1.14506">
        <ele>49.952127</ele>
        <time>2022-12-27T10:36:36.687Z</time>
      </trkpt>
      <trkpt lat="44.6314" lon="-1.14492">
        <ele>50.260404</ele>
        <time>2022-12-27T10:36:40.700Z</time>
      </trkpt>
      <trkpt lat="44.63141" lon="-1.14477">
        <ele>50.594004</ele>
        <time>2022-12-27T10:36:44.685Z</time>
      </trkpt>
      <trkpt lat="44.63145" lon="-1.14462">
        <ele>50.950908</ele>
        <time>2022-12-27T10:36:47.689Z</time>
      </trkpt>
      <trkpt lat="44.63149" lon="-1.14447">
        <ele>51.318133</ele>
        <time>2022-12-27T10:36:50.691Z</time>
      </trkpt>
      <trkpt lat="44.63151" lon="-1.14433">
        <ele>51.636564</ele>
        <time>2022-12-27T10:36:53.695Z</time>
      </trkpt>
      <trkpt lat="44.63154" lon="-1.14418">
        <ele>51.986741</ele>
        <time>2022-12-27T10:36:57.690Z</time>
      </trkpt>
      <trkpt lat="44.6316" lon="-1.14408">
        <ele>52.277454</ele>
        <time>2022-12-27T10:37:06.689Z</time>
      </trkpt>
      <trkpt lat="44.63171" lon="-1.14409">
        <ele>52.628456</ele>
        <time>2022-12-27T10:37:11.682Z</time>
      </trkpt>
      <trkpt lat="44.63181" lon="-1.14412">
        <ele>52.771455</ele>
        <time>2022-12-27T10:37:14.682Z</time>
      </trkpt>
      <trkpt lat="44.63193" lon="-1.14414">
        <ele>52.754429</ele>
        <time>2022-12-27T10:37:18.703Z</time>
      </trkpt>
      <trkpt lat="44.63204" lon="-1.14415">
        <ele>52.739493</ele>
        <time>2022-12-27T10:37:21.690Z</time>
      </trkpt>
      <trkpt lat="44.63213" lon="-1.14415">
        <ele>52.726494</ele>
        <time>2022-12-27T10:37:24.691Z</time>
      </trkpt>
      <trkpt lat="44.63218" lon="-1.14403">
        <ele>52.713487</ele>
        <time>2022-12-27T10:37:28.689Z</time>
      </trkpt>
      <trkpt lat="44.63217" lon="-1.14389">
        <ele>52.699862</ele>
        <time>2022-12-27T10:37:31.688Z</time>
      </trkpt>
      <trkpt lat="44.63216" lon="-1.14373">
        <ele>52.684245</ele>
        <time>2022-12-27T10:37:34.693Z</time>
      </trkpt>
      <trkpt lat="44.63214" lon="-1.1436">
        <ele>52.671237</ele>
        <time>2022-12-27T10:37:37.683Z</time>
      </trkpt>
      <trkpt lat="44.63213" lon="-1.14344">
        <ele>52.655052</ele>
        <time>2022-12-27T10:37:40.684Z</time>
      </trkpt>
      <trkpt lat="44.63211" lon="-1.1433">
        <ele>52.641179</ele>
        <time>2022-12-27T10:37:43.696Z</time>
      </trkpt>
      <trkpt lat="44.63209" lon="-1.14315">
        <ele>52.626711</ele>
        <time>2022-12-27T10:37:46.704Z</time>
      </trkpt>
      <trkpt lat="44.63208" lon="-1.14301">
        <ele>52.612988</ele>
        <time>2022-12-27T10:37:49.684Z</time>
      </trkpt>
      <trkpt lat="44.63206" lon="-1.14288">
        <ele>52.59995</ele>
        <time>2022-12-27T10:37:52.681Z</time>
      </trkpt>
      <trkpt lat="44.63202" lon="-1.14274">
        <ele>52.585735</ele>
        <time>2022-12-27T10:37:57.698Z</time>
      </trkpt>
      <trkpt lat="44.63198" lon="-1.14262">
        <ele>52.572928</ele>
        <time>2022-12-27T10:38:02.689Z</time>
      </trkpt>
      <trkpt lat="44.63192" lon="-1.14253">
        <ele>52.559964</ele>
        <time>2022-12-27T10:38:07.682Z</time>
      </trkpt>
      <trkpt lat="44.63175" lon="-1.14242">
        <ele>52.534947</ele>
        <time>2022-12-27T10:39:06.706Z</time>
      </trkpt>
      <trkpt lat="44.63166" lon="-1.14238">
        <ele>52.548931</ele>
        <time>2022-12-27T10:39:09.700Z</time>
      </trkpt>
      <trkpt lat="44.63157" lon="-1.14231">
        <ele>52.571414</ele>
        <time>2022-12-27T10:39:12.704Z</time>
      </trkpt>
      <trkpt lat="44.6315" lon="-1.14224">
        <ele>52.590888</ele>
        <time>2022-12-27T10:39:15.687Z</time>
      </trkpt>
      <trkpt lat="44.63139" lon="-1.14217">
        <ele>52.616101</ele>
        <time>2022-12-27T10:39:19.693Z</time>
      </trkpt>
      <trkpt lat="44.6313" lon="-1.14211">
        <ele>52.638171</ele>
        <time>2022-12-27T10:39:23.695Z</time>
      </trkpt>
      <trkpt lat="44.6312" lon="-1.14205">
        <ele>52.660637</ele>
        <time>2022-12-27T10:39:27.692Z</time>
      </trkpt>
      <trkpt lat="44.63111" lon="-1.14199">
        <ele>52.684018</ele>
        <time>2022-12-27T10:39:32.709Z</time>
      </trkpt>
      <trkpt lat="44.63092" lon="-1.14189">
        <ele>52.726119</ele>
        <time>2022-12-27T10:40:03.689Z</time>
      </trkpt>
      <trkpt lat="44.63083" lon="-1.14184">
        <ele>52.747804</ele>
        <time>2022-12-27T10:40:07.690Z</time>
      </trkpt>
      <trkpt lat="44.63075" lon="-1.14178">
        <ele>52.767459</ele>
        <time>2022-12-27T10:40:10.704Z</time>
      </trkpt>
      <trkpt lat="44.63067" lon="-1.14172">
        <ele>52.787385</ele>
        <time>2022-12-27T10:40:13.692Z</time>
      </trkpt>
      <trkpt lat="44.63056" lon="-1.14167">
        <ele>52.812077</ele>
        <time>2022-12-27T10:40:17.691Z</time>
      </trkpt>
      <trkpt lat="44.63047" lon="-1.14163">
        <ele>52.832818</ele>
        <time>2022-12-27T10:40:20.689Z</time>
      </trkpt>
      <trkpt lat="44.63038" lon="-1.14159">
        <ele>52.853124</ele>
        <time>2022-12-27T10:40:23.691Z</time>
      </trkpt>
      <trkpt lat="44.63028" lon="-1.14155">
        <ele>52.874349</ele>
        <time>2022-12-27T10:40:26.696Z</time>
      </trkpt>
      <trkpt lat="44.63018" lon="-1.14152">
        <ele>52.897524</ele>
        <time>2022-12-27T10:40:29.692Z</time>
      </trkpt>
      <trkpt lat="44.63007" lon="-1.14151">
        <ele>52.92398</ele>
        <time>2022-12-27T10:40:32.690Z</time>
      </trkpt>
      <trkpt lat="44.62995" lon="-1.14149">
        <ele>53.053836</ele>
        <time>2022-12-27T10:40:35.686Z</time>
      </trkpt>
      <trkpt lat="44.62984" lon="-1.14147">
        <ele>53.18142</ele>
        <time>2022-12-27T10:40:38.698Z</time>
      </trkpt>
      <trkpt lat="44.62973" lon="-1.14146">
        <ele>53.309004</ele>
        <time>2022-12-27T10:40:41.701Z</time>
      </trkpt>
      <trkpt lat="44.62963" lon="-1.14144">
        <ele>53.430658</ele>
        <time>2022-12-27T10:40:44.690Z</time>
      </trkpt>
      <trkpt lat="44.62952" lon="-1.14143">
        <ele>53.552474</ele>
        <time>2022-12-27T10:40:47.683Z</time>
      </trkpt>
      <trkpt lat="44.62943" lon="-1.14141">
        <ele>53.654717</ele>
        <time>2022-12-27T10:40:50.685Z</time>
      </trkpt>
      <trkpt lat="44.62934" lon="-1.14139">
        <ele>53.764867</ele>
        <time>2022-12-27T10:40:53.706Z</time>
      </trkpt>
      <trkpt lat="44.62923" lon="-1.14139">
        <ele>53.889481</ele>
        <time>2022-12-27T10:40:56.688Z</time>
      </trkpt>
      <trkpt lat="44.62911" lon="-1.14137">
        <ele>54.018036</ele>
        <time>2022-12-27T10:40:59.699Z</time>
      </trkpt>
      <trkpt lat="44.629" lon="-1.14136">
        <ele>54.14508</ele>
        <time>2022-12-27T10:41:02.689Z</time>
      </trkpt>
      <trkpt lat="44.62889" lon="-1.14134">
        <ele>54.273285</ele>
        <time>2022-12-27T10:41:05.690Z</time>
      </trkpt>
      <trkpt lat="44.62878" lon="-1.14132">
        <ele>54.399489</ele>
        <time>2022-12-27T10:41:08.689Z</time>
      </trkpt>
      <trkpt lat="44.62868" lon="-1.14131">
        <ele>54.522442</ele>
        <time>2022-12-27T10:41:11.690Z</time>
      </trkpt>
      <trkpt lat="44.62856" lon="-1.14128">
        <ele>54.65482</ele>
        <time>2022-12-27T10:41:14.692Z</time>
      </trkpt>
      <trkpt lat="44.62845" lon="-1.14126">
        <ele>54.785405</ele>
        <time>2022-12-27T10:41:17.691Z</time>
      </trkpt>
      <trkpt lat="44.62834" lon="-1.14123">
        <ele>54.909921</ele>
        <time>2022-12-27T10:41:20.691Z</time>
      </trkpt>
      <trkpt lat="44.62824" lon="-1.14122">
        <ele>54.949914</ele>
        <time>2022-12-27T10:41:23.692Z</time>
      </trkpt>
      <trkpt lat="44.62814" lon="-1.1412">
        <ele>54.896093</ele>
        <time>2022-12-27T10:41:26.709Z</time>
      </trkpt>
      <trkpt lat="44.62803" lon="-1.14118">
        <ele>54.83231</ele>
        <time>2022-12-27T10:41:30.689Z</time>
      </trkpt>
      <trkpt lat="44.62793" lon="-1.14116">
        <ele>54.77773</ele>
        <time>2022-12-27T10:41:33.693Z</time>
      </trkpt>
      <trkpt lat="44.62783" lon="-1.14114">
        <ele>54.720462</ele>
        <time>2022-12-27T10:41:36.690Z</time>
      </trkpt>
      <trkpt lat="44.62773" lon="-1.14113">
        <ele>54.662362</ele>
        <time>2022-12-27T10:41:39.688Z</time>
      </trkpt>
      <trkpt lat="44.62763" lon="-1.14113">
        <ele>54.606625</ele>
        <time>2022-12-27T10:41:42.697Z</time>
      </trkpt>
      <trkpt lat="44.62752" lon="-1.14113">
        <ele>54.543551</ele>
        <time>2022-12-27T10:41:45.720Z</time>
      </trkpt>
      <trkpt lat="44.6274" lon="-1.14115">
        <ele>54.478593</ele>
        <time>2022-12-27T10:41:48.708Z</time>
      </trkpt>
      <trkpt lat="44.62729" lon="-1.14121">
        <ele>54.412306</ele>
        <time>2022-12-27T10:41:51.691Z</time>
      </trkpt>
      <trkpt lat="44.62718" lon="-1.14126">
        <ele>54.343878</ele>
        <time>2022-12-27T10:41:54.689Z</time>
      </trkpt>
      <trkpt lat="44.62707" lon="-1.14131">
        <ele>54.280764</ele>
        <time>2022-12-27T10:41:57.786Z</time>
      </trkpt>
      <trkpt lat="44.62697" lon="-1.14136">
        <ele>54.219135</ele>
        <time>2022-12-27T10:42:00.690Z</time>
      </trkpt>
      <trkpt lat="44.62688" lon="-1.1414">
        <ele>54.164955</ele>
        <time>2022-12-27T10:42:03.695Z</time>
      </trkpt>
      <trkpt lat="44.62677" lon="-1.14143">
        <ele>54.106753</ele>
        <time>2022-12-27T10:42:07.696Z</time>
      </trkpt>
      <trkpt lat="44.62668" lon="-1.14136">
        <ele>54.044992</ele>
        <time>2022-12-27T10:42:12.697Z</time>
      </trkpt>
      <trkpt lat="44.62661" lon="-1.14127">
        <ele>53.990617</ele>
        <time>2022-12-27T10:42:17.693Z</time>
      </trkpt>
      <trkpt lat="44.62649" lon="-1.14122">
        <ele>54.053074</ele>
        <time>2022-12-27T10:43:43.721Z</time>
      </trkpt>
      <trkpt lat="44.62644" lon="-1.14111">
        <ele>54.167729</ele>
        <time>2022-12-27T10:43:48.706Z</time>
      </trkpt>
      <trkpt lat="44.62638" lon="-1.14097">
        <ele>54.309915</ele>
        <time>2022-12-27T10:43:52.697Z</time>
      </trkpt>
      <trkpt lat="44.62632" lon="-1.14085">
        <ele>54.436504</ele>
        <time>2022-12-27T10:43:56.718Z</time>
      </trkpt>
      <trkpt lat="44.62628" lon="-1.14073">
        <ele>54.555119</ele>
        <time>2022-12-27T10:44:00.700Z</time>
      </trkpt>
      <trkpt lat="44.62623" lon="-1.14061">
        <ele>54.67506</ele>
        <time>2022-12-27T10:44:04.691Z</time>
      </trkpt>
      <trkpt lat="44.62617" lon="-1.14048">
        <ele>54.81068</ele>
        <time>2022-12-27T10:44:08.695Z</time>
      </trkpt>
      <trkpt lat="44.62612" lon="-1.14036">
        <ele>54.931602</ele>
        <time>2022-12-27T10:44:12.704Z</time>
      </trkpt>
      <trkpt lat="44.62606" lon="-1.14023">
        <ele>55.069458</ele>
        <time>2022-12-27T10:44:16.735Z</time>
      </trkpt>
      <trkpt lat="44.62601" lon="-1.14011">
        <ele>55.187431</ele>
        <time>2022-12-27T10:44:20.706Z</time>
      </trkpt>
      <trkpt lat="44.62596" lon="-1.14">
        <ele>55.304338</ele>
        <time>2022-12-27T10:44:24.687Z</time>
      </trkpt>
      <trkpt lat="44.62591" lon="-1.13988">
        <ele>55.420371</ele>
        <time>2022-12-27T10:44:28.734Z</time>
      </trkpt>
      <trkpt lat="44.62586" lon="-1.13974">
        <ele>55.557624</ele>
        <time>2022-12-27T10:44:32.708Z</time>
      </trkpt>
      <trkpt lat="44.6258" lon="-1.13962">
        <ele>55.685452</ele>
        <time>2022-12-27T10:44:36.688Z</time>
      </trkpt>
      <trkpt lat="44.62574" lon="-1.13948">
        <ele>55.827639</ele>
        <time>2022-12-27T10:44:40.694Z</time>
      </trkpt>
      <trkpt lat="44.62569" lon="-1.13937">
        <ele>55.938939</ele>
        <time>2022-12-27T10:44:43.690Z</time>
      </trkpt>
      <trkpt lat="44.62564" lon="-1.13926">
        <ele>56.053393</ele>
        <time>2022-12-27T10:44:46.688Z</time>
      </trkpt>
      <trkpt lat="44.62558" lon="-1.13915">
        <ele>56.165328</ele>
        <time>2022-12-27T10:44:49.695Z</time>
      </trkpt>
      <trkpt lat="44.62553" lon="-1.13904">
        <ele>56.156165</ele>
        <time>2022-12-27T10:44:52.700Z</time>
      </trkpt>
      <trkpt lat="44.62547" lon="-1.1389">
        <ele>56.144973</ele>
        <time>2022-12-27T10:44:56.703Z</time>
      </trkpt>
      <trkpt lat="44.62542" lon="-1.13878">
        <ele>56.135683</ele>
        <time>2022-12-27T10:44:59.694Z</time>
      </trkpt>
      <trkpt lat="44.62537" lon="-1.13866">
        <ele>56.126664</ele>
        <time>2022-12-27T10:45:03.698Z</time>
      </trkpt>
      <trkpt lat="44.62533" lon="-1.13855">
        <ele>56.117927</ele>
        <time>2022-12-27T10:45:08.720Z</time>
      </trkpt>
      <trkpt lat="44.62534" lon="-1.13841">
        <ele>56.108285</ele>
        <time>2022-12-27T10:45:52.713Z</time>
      </trkpt>
      <trkpt lat="44.62538" lon="-1.13829">
        <ele>56.099611</ele>
        <time>2022-12-27T10:46:04.696Z</time>
      </trkpt>
      <trkpt lat="44.62532" lon="-1.13817">
        <ele>56.089688</ele>
        <time>2022-12-27T10:46:09.692Z</time>
      </trkpt>
      <trkpt lat="44.62528" lon="-1.13806">
        <ele>56.080833</ele>
        <time>2022-12-27T10:46:12.685Z</time>
      </trkpt>
      <trkpt lat="44.62522" lon="-1.13793">
        <ele>56.070816</ele>
        <time>2022-12-27T10:46:15.689Z</time>
      </trkpt>
      <trkpt lat="44.62516" lon="-1.1378">
        <ele>56.060519</ele>
        <time>2022-12-27T10:46:18.695Z</time>
      </trkpt>
      <trkpt lat="44.6251" lon="-1.13767">
        <ele>56.049828</ele>
        <time>2022-12-27T10:46:21.707Z</time>
      </trkpt>
      <trkpt lat="44.62504" lon="-1.13753">
        <ele>56.038958</ele>
        <time>2022-12-27T10:46:24.690Z</time>
      </trkpt>
      <trkpt lat="44.62498" lon="-1.13739">
        <ele>56.028138</ele>
        <time>2022-12-27T10:46:27.694Z</time>
      </trkpt>
      <trkpt lat="44.62493" lon="-1.13726">
        <ele>56.01751</ele>
        <time>2022-12-27T10:46:30.715Z</time>
      </trkpt>
      <trkpt lat="44.62487" lon="-1.13712">
        <ele>56.006632</ele>
        <time>2022-12-27T10:46:33.690Z</time>
      </trkpt>
      <trkpt lat="44.62481" lon="-1.13698">
        <ele>55.99558</ele>
        <time>2022-12-27T10:46:36.712Z</time>
      </trkpt>
      <trkpt lat="44.62475" lon="-1.13684">
        <ele>56.045916</ele>
        <time>2022-12-27T10:46:39.695Z</time>
      </trkpt>
      <trkpt lat="44.62469" lon="-1.1367">
        <ele>56.098533</ele>
        <time>2022-12-27T10:46:42.706Z</time>
      </trkpt>
      <trkpt lat="44.62463" lon="-1.13655">
        <ele>56.153643</ele>
        <time>2022-12-27T10:46:45.707Z</time>
      </trkpt>
      <trkpt lat="44.62457" lon="-1.13639">
        <ele>56.211035</ele>
        <time>2022-12-27T10:46:48.706Z</time>
      </trkpt>
      <trkpt lat="44.62451" lon="-1.13624">
        <ele>56.269284</ele>
        <time>2022-12-27T10:46:51.723Z</time>
      </trkpt>
      <trkpt lat="44.62445" lon="-1.13608">
        <ele>56.327152</ele>
        <time>2022-12-27T10:46:54.705Z</time>
      </trkpt>
      <trkpt lat="44.62438" lon="-1.13592">
        <ele>56.387471</ele>
        <time>2022-12-27T10:46:57.704Z</time>
      </trkpt>
      <trkpt lat="44.62433" lon="-1.13577">
        <ele>56.443578</ele>
        <time>2022-12-27T10:47:00.696Z</time>
      </trkpt>
      <trkpt lat="44.62428" lon="-1.13562">
        <ele>56.497092</ele>
        <time>2022-12-27T10:47:03.696Z</time>
      </trkpt>
      <trkpt lat="44.62422" lon="-1.13547">
        <ele>56.551295</ele>
        <time>2022-12-27T10:47:06.703Z</time>
      </trkpt>
      <trkpt lat="44.62417" lon="-1.13533">
        <ele>56.60084</ele>
        <time>2022-12-27T10:47:09.714Z</time>
      </trkpt>
      <trkpt lat="44.62414" lon="-1.13521">
        <ele>56.64278</ele>
        <time>2022-12-27T10:47:12.710Z</time>
      </trkpt>
      <trkpt lat="44.62411" lon="-1.13509">
        <ele>56.685026</ele>
        <time>2022-12-27T10:47:15.702Z</time>
      </trkpt>
      <trkpt lat="44.62407" lon="-1.13495">
        <ele>56.734155</ele>
        <time>2022-12-27T10:47:18.710Z</time>
      </trkpt>
      <trkpt lat="44.62402" lon="-1.13479">
        <ele>56.787615</ele>
        <time>2022-12-27T10:47:21.695Z</time>
      </trkpt>
      <trkpt lat="44.62398" lon="-1.13464">
        <ele>56.821968</ele>
        <time>2022-12-27T10:47:24.709Z</time>
      </trkpt>
      <trkpt lat="44.62394" lon="-1.13449">
        <ele>56.838703</ele>
        <time>2022-12-27T10:47:27.695Z</time>
      </trkpt>
      <trkpt lat="44.62389" lon="-1.13435">
        <ele>56.853819</ele>
        <time>2022-12-27T10:47:30.717Z</time>
      </trkpt>
      <trkpt lat="44.62383" lon="-1.13423">
        <ele>56.870104</ele>
        <time>2022-12-27T10:47:33.705Z</time>
      </trkpt>
      <trkpt lat="44.62374" lon="-1.13411">
        <ele>56.886834</ele>
        <time>2022-12-27T10:47:36.710Z</time>
      </trkpt>
      <trkpt lat="44.62366" lon="-1.134">
        <ele>56.903389</ele>
        <time>2022-12-27T10:47:39.698Z</time>
      </trkpt>
      <trkpt lat="44.62356" lon="-1.13391">
        <ele>56.920093</ele>
        <time>2022-12-27T10:47:42.700Z</time>
      </trkpt>
      <trkpt lat="44.62347" lon="-1.13384">
        <ele>56.935333</ele>
        <time>2022-12-27T10:47:45.691Z</time>
      </trkpt>
      <trkpt lat="44.6233" lon="-1.1337">
        <ele>56.963432</ele>
        <time>2022-12-27T10:48:15.691Z</time>
      </trkpt>
      <trkpt lat="44.62321" lon="-1.13363">
        <ele>56.977744</ele>
        <time>2022-12-27T10:48:18.712Z</time>
      </trkpt>
      <trkpt lat="44.62312" lon="-1.13355">
        <ele>56.99323</ele>
        <time>2022-12-27T10:48:21.711Z</time>
      </trkpt>
      <trkpt lat="44.62303" lon="-1.13347">
        <ele>57.008717</ele>
        <time>2022-12-27T10:48:24.705Z</time>
      </trkpt>
      <trkpt lat="44.62293" lon="-1.13338">
        <ele>57.024906</ele>
        <time>2022-12-27T10:48:27.715Z</time>
      </trkpt>
      <trkpt lat="44.62283" lon="-1.13331">
        <ele>57.041341</ele>
        <time>2022-12-27T10:48:30.694Z</time>
      </trkpt>
      <trkpt lat="44.62273" lon="-1.13321">
        <ele>57.058515</ele>
        <time>2022-12-27T10:48:33.718Z</time>
      </trkpt>
      <trkpt lat="44.62263" lon="-1.13312">
        <ele>57.068268</ele>
        <time>2022-12-27T10:48:36.712Z</time>
      </trkpt>
      <trkpt lat="44.62253" lon="-1.13303">
        <ele>57.058306</ele>
        <time>2022-12-27T10:48:39.698Z</time>
      </trkpt>
      <trkpt lat="44.62243" lon="-1.13294">
        <ele>57.048466</ele>
        <time>2022-12-27T10:48:42.713Z</time>
      </trkpt>
      <trkpt lat="44.62233" lon="-1.13286">
        <ele>57.038647</ele>
        <time>2022-12-27T10:48:45.711Z</time>
      </trkpt>
      <trkpt lat="44.62222" lon="-1.13276">
        <ele>57.028331</ele>
        <time>2022-12-27T10:48:48.722Z</time>
      </trkpt>
      <trkpt lat="44.62212" lon="-1.13267">
        <ele>57.017984</ele>
        <time>2022-12-27T10:48:51.718Z</time>
      </trkpt>
      <trkpt lat="44.62201" lon="-1.13257">
        <ele>57.00744</ele>
        <time>2022-12-27T10:48:54.716Z</time>
      </trkpt>
      <trkpt lat="44.6219" lon="-1.13248">
        <ele>56.996998</ele>
        <time>2022-12-27T10:48:57.711Z</time>
      </trkpt>
      <trkpt lat="44.6218" lon="-1.13238">
        <ele>56.98651</ele>
        <time>2022-12-27T10:49:00.690Z</time>
      </trkpt>
      <trkpt lat="44.62169" lon="-1.13229">
        <ele>56.975998</ele>
        <time>2022-12-27T10:49:03.690Z</time>
      </trkpt>
      <trkpt lat="44.62158" lon="-1.1322">
        <ele>56.965965</ele>
        <time>2022-12-27T10:49:06.688Z</time>
      </trkpt>
      <trkpt lat="44.62148" lon="-1.13211">
        <ele>56.955897</ele>
        <time>2022-12-27T10:49:09.717Z</time>
      </trkpt>
      <trkpt lat="44.62138" lon="-1.13201">
        <ele>56.945594</ele>
        <time>2022-12-27T10:49:12.702Z</time>
      </trkpt>
      <trkpt lat="44.62127" lon="-1.13192">
        <ele>56.935253</ele>
        <time>2022-12-27T10:49:15.691Z</time>
      </trkpt>
      <trkpt lat="44.62117" lon="-1.13183">
        <ele>56.924976</ele>
        <time>2022-12-27T10:49:18.725Z</time>
      </trkpt>
      <trkpt lat="44.62108" lon="-1.13175">
        <ele>56.92296</ele>
        <time>2022-12-27T10:49:21.705Z</time>
      </trkpt>
      <trkpt lat="44.62099" lon="-1.13167">
        <ele>56.92442</ele>
        <time>2022-12-27T10:49:27.692Z</time>
      </trkpt>
      <trkpt lat="44.62097" lon="-1.13153">
        <ele>56.925801</ele>
        <time>2022-12-27T10:49:33.687Z</time>
      </trkpt>
      <trkpt lat="44.62092" lon="-1.13141">
        <ele>56.92728</ele>
        <time>2022-12-27T10:49:38.721Z</time>
      </trkpt>
      <trkpt lat="44.62083" lon="-1.1314">
        <ele>56.928571</ele>
        <time>2022-12-27T10:49:42.697Z</time>
      </trkpt>
      <trkpt lat="44.62072" lon="-1.13139">
        <ele>56.930098</ele>
        <time>2022-12-27T10:49:47.709Z</time>
      </trkpt>
      <trkpt lat="44.62061" lon="-1.13139">
        <ele>56.931682</ele>
        <time>2022-12-27T10:49:52.716Z</time>
      </trkpt>
      <trkpt lat="44.62052" lon="-1.1314">
        <ele>56.933069</ele>
        <time>2022-12-27T10:49:56.684Z</time>
      </trkpt>
      <trkpt lat="44.62052" lon="-1.1312">
        <ele>56.935124</ele>
        <time>2022-12-27T10:50:31.687Z</time>
      </trkpt>
      <trkpt lat="44.62057" lon="-1.13105">
        <ele>56.936807</ele>
        <time>2022-12-27T10:50:35.704Z</time>
      </trkpt>
      <trkpt lat="44.62061" lon="-1.1309">
        <ele>56.9384</ele>
        <time>2022-12-27T10:50:39.685Z</time>
      </trkpt>
      <trkpt lat="44.62064" lon="-1.13077">
        <ele>56.939811</ele>
        <time>2022-12-27T10:50:43.683Z</time>
      </trkpt>
      <trkpt lat="44.62057" lon="-1.13066">
        <ele>56.941264</ele>
        <time>2022-12-27T10:50:47.684Z</time>
      </trkpt>
      <trkpt lat="44.6205" lon="-1.13058">
        <ele>56.942644</ele>
        <time>2022-12-27T10:50:50.695Z</time>
      </trkpt>
      <trkpt lat="44.62043" lon="-1.13045">
        <ele>56.944208</ele>
        <time>2022-12-27T10:50:53.686Z</time>
      </trkpt>
      <trkpt lat="44.62039" lon="-1.13031">
        <ele>56.945812</ele>
        <time>2022-12-27T10:50:56.715Z</time>
      </trkpt>
      <trkpt lat="44.62034" lon="-1.13017">
        <ele>56.947366</ele>
        <time>2022-12-27T10:50:59.709Z</time>
      </trkpt>
      <trkpt lat="44.6203" lon="-1.13002">
        <ele>57.006177</ele>
        <time>2022-12-27T10:51:02.699Z</time>
      </trkpt>
      <trkpt lat="44.62025" lon="-1.12987">
        <ele>57.076757</ele>
        <time>2022-12-27T10:51:05.716Z</time>
      </trkpt>
      <trkpt lat="44.6202" lon="-1.12973">
        <ele>57.146949</ele>
        <time>2022-12-27T10:51:08.704Z</time>
      </trkpt>
      <trkpt lat="44.62015" lon="-1.12959">
        <ele>57.21398</ele>
        <time>2022-12-27T10:51:11.688Z</time>
      </trkpt>
      <trkpt lat="44.6201" lon="-1.12944">
        <ele>57.286263</ele>
        <time>2022-12-27T10:51:15.712Z</time>
      </trkpt>
      <trkpt lat="44.62007" lon="-1.12932">
        <ele>57.342224</ele>
        <time>2022-12-27T10:51:18.690Z</time>
      </trkpt>
      <trkpt lat="44.62003" lon="-1.12919">
        <ele>57.403479</ele>
        <time>2022-12-27T10:51:21.684Z</time>
      </trkpt>
      <trkpt lat="44.61998" lon="-1.12907">
        <ele>57.461837</ele>
        <time>2022-12-27T10:51:24.712Z</time>
      </trkpt>
      <trkpt lat="44.61994" lon="-1.12895">
        <ele>57.521249</ele>
        <time>2022-12-27T10:51:27.697Z</time>
      </trkpt>
      <trkpt lat="44.6199" lon="-1.12884">
        <ele>57.578713</ele>
        <time>2022-12-27T10:51:30.686Z</time>
      </trkpt>
      <trkpt lat="44.61985" lon="-1.12868">
        <ele>57.650794</ele>
        <time>2022-12-27T10:51:34.722Z</time>
      </trkpt>
      <trkpt lat="44.61981" lon="-1.12855">
        <ele>57.714147</ele>
        <time>2022-12-27T10:51:38.719Z</time>
      </trkpt>
      <trkpt lat="44.61976" lon="-1.12841">
        <ele>57.784507</ele>
        <time>2022-12-27T10:51:42.717Z</time>
      </trkpt>
      <trkpt lat="44.61971" lon="-1.12826">
        <ele>57.853388</ele>
        <time>2022-12-27T10:51:46.706Z</time>
      </trkpt>
      <trkpt lat="44.61966" lon="-1.12812">
        <ele>57.926357</ele>
        <time>2022-12-27T10:51:50.696Z</time>
      </trkpt>
      <trkpt lat="44.61963" lon="-1.128">
        <ele>57.981659</ele>
        <time>2022-12-27T10:51:53.705Z</time>
      </trkpt>
      <trkpt lat="44.61958" lon="-1.12786">
        <ele>58.04632</ele>
        <time>2022-12-27T10:51:57.710Z</time>
      </trkpt>
      <trkpt lat="44.61954" lon="-1.12774">
        <ele>57.981141</ele>
        <time>2022-12-27T10:52:01.712Z</time>
      </trkpt>
      <trkpt lat="44.6195" lon="-1.12761">
        <ele>57.897459</ele>
        <time>2022-12-27T10:52:05.712Z</time>
      </trkpt>
      <trkpt lat="44.61945" lon="-1.12747">
        <ele>57.8049</ele>
        <time>2022-12-27T10:52:09.715Z</time>
      </trkpt>
      <trkpt lat="44.61941" lon="-1.12734">
        <ele>57.725525</ele>
        <time>2022-12-27T10:52:12.693Z</time>
      </trkpt>
      <trkpt lat="44.61937" lon="-1.12723">
        <ele>57.651581</ele>
        <time>2022-12-27T10:52:15.685Z</time>
      </trkpt>
      <trkpt lat="44.61933" lon="-1.1271">
        <ele>57.57277</ele>
        <time>2022-12-27T10:52:18.724Z</time>
      </trkpt>
      <trkpt lat="44.61928" lon="-1.12696">
        <ele>57.481916</ele>
        <time>2022-12-27T10:52:22.716Z</time>
      </trkpt>
      <trkpt lat="44.61924" lon="-1.12684">
        <ele>57.404498</ele>
        <time>2022-12-27T10:52:25.708Z</time>
      </trkpt>
      <trkpt lat="44.6192" lon="-1.12669">
        <ele>57.310542</ele>
        <time>2022-12-27T10:52:29.756Z</time>
      </trkpt>
      <trkpt lat="44.61916" lon="-1.12654">
        <ele>57.21987</ele>
        <time>2022-12-27T10:52:33.691Z</time>
      </trkpt>
      <trkpt lat="44.61911" lon="-1.12642">
        <ele>57.139976</ele>
        <time>2022-12-27T10:52:36.687Z</time>
      </trkpt>
      <trkpt lat="44.61907" lon="-1.12628">
        <ele>57.050366</ele>
        <time>2022-12-27T10:52:40.701Z</time>
      </trkpt>
      <trkpt lat="44.61901" lon="-1.12614">
        <ele>56.957591</ele>
        <time>2022-12-27T10:52:44.704Z</time>
      </trkpt>
      <trkpt lat="44.61895" lon="-1.126">
        <ele>56.866323</ele>
        <time>2022-12-27T10:52:48.723Z</time>
      </trkpt>
      <trkpt lat="44.61891" lon="-1.12585">
        <ele>56.770456</ele>
        <time>2022-12-27T10:52:52.744Z</time>
      </trkpt>
      <trkpt lat="44.61886" lon="-1.12571">
        <ele>56.680847</ele>
        <time>2022-12-27T10:52:56.693Z</time>
      </trkpt>
      <trkpt lat="44.61882" lon="-1.12559">
        <ele>56.606551</ele>
        <time>2022-12-27T10:53:00.690Z</time>
      </trkpt>
      <trkpt lat="44.61882" lon="-1.12545">
        <ele>56.624371</ele>
        <time>2022-12-27T10:53:04.683Z</time>
      </trkpt>
      <trkpt lat="44.61885" lon="-1.1253">
        <ele>56.669369</ele>
        <time>2022-12-27T10:53:08.693Z</time>
      </trkpt>
      <trkpt lat="44.61892" lon="-1.12518">
        <ele>56.712573</ele>
        <time>2022-12-27T10:53:11.705Z</time>
      </trkpt>
      <trkpt lat="44.61901" lon="-1.12506">
        <ele>56.761253</ele>
        <time>2022-12-27T10:53:14.715Z</time>
      </trkpt>
      <trkpt lat="44.61909" lon="-1.12495">
        <ele>56.807883</ele>
        <time>2022-12-27T10:53:17.717Z</time>
      </trkpt>
      <trkpt lat="44.61915" lon="-1.12483">
        <ele>56.851514</ele>
        <time>2022-12-27T10:53:20.690Z</time>
      </trkpt>
      <trkpt lat="44.61913" lon="-1.12469">
        <ele>56.893413</ele>
        <time>2022-12-27T10:53:23.685Z</time>
      </trkpt>
      <trkpt lat="44.61909" lon="-1.12457">
        <ele>56.930583</ele>
        <time>2022-12-27T10:53:26.697Z</time>
      </trkpt>
      <trkpt lat="44.61904" lon="-1.12444">
        <ele>56.974301</ele>
        <time>2022-12-27T10:53:30.692Z</time>
      </trkpt>
      <trkpt lat="44.61897" lon="-1.12432">
        <ele>57.019322</ele>
        <time>2022-12-27T10:53:34.684Z</time>
      </trkpt>
      <trkpt lat="44.61891" lon="-1.1242">
        <ele>57.060341</ele>
        <time>2022-12-27T10:53:37.712Z</time>
      </trkpt>
      <trkpt lat="44.61886" lon="-1.12405">
        <ele>57.105852</ele>
        <time>2022-12-27T10:53:40.689Z</time>
      </trkpt>
      <trkpt lat="44.61883" lon="-1.12389">
        <ele>57.154222</ele>
        <time>2022-12-27T10:53:43.713Z</time>
      </trkpt>
      <trkpt lat="44.6188" lon="-1.12373">
        <ele>57.202227</ele>
        <time>2022-12-27T10:53:46.714Z</time>
      </trkpt>
      <trkpt lat="44.61874" lon="-1.12358">
        <ele>57.252048</ele>
        <time>2022-12-27T10:53:49.685Z</time>
      </trkpt>
      <trkpt lat="44.61868" lon="-1.12342">
        <ele>57.304334</ele>
        <time>2022-12-27T10:53:52.713Z</time>
      </trkpt>
      <trkpt lat="44.61863" lon="-1.12325">
        <ele>57.312574</ele>
        <time>2022-12-27T10:53:55.704Z</time>
      </trkpt>
      <trkpt lat="44.6186" lon="-1.12307">
        <ele>57.305634</ele>
        <time>2022-12-27T10:53:58.689Z</time>
      </trkpt>
      <trkpt lat="44.61861" lon="-1.12294">
        <ele>57.30093</ele>
        <time>2022-12-27T10:54:00.702Z</time>
      </trkpt>
      <trkpt lat="44.61864" lon="-1.12276">
        <ele>57.294087</ele>
        <time>2022-12-27T10:54:03.703Z</time>
      </trkpt>
      <trkpt lat="44.61865" lon="-1.12259">
        <ele>57.287684</ele>
        <time>2022-12-27T10:54:06.684Z</time>
      </trkpt>
      <trkpt lat="44.61861" lon="-1.12242">
        <ele>57.280938</ele>
        <time>2022-12-27T10:54:09.703Z</time>
      </trkpt>
      <trkpt lat="44.61857" lon="-1.12224">
        <ele>57.274025</ele>
        <time>2022-12-27T10:54:12.715Z</time>
      </trkpt>
      <trkpt lat="44.61852" lon="-1.12207">
        <ele>57.267288</ele>
        <time>2022-12-27T10:54:15.715Z</time>
      </trkpt>
      <trkpt lat="44.61848" lon="-1.12195">
        <ele>57.262433</ele>
        <time>2022-12-27T10:54:17.708Z</time>
      </trkpt>
      <trkpt lat="44.61842" lon="-1.1218">
        <ele>57.255781</ele>
        <time>2022-12-27T10:54:20.681Z</time>
      </trkpt>
      <trkpt lat="44.61838" lon="-1.12163">
        <ele>57.249162</ele>
        <time>2022-12-27T10:54:23.715Z</time>
      </trkpt>
      <trkpt lat="44.61835" lon="-1.12145">
        <ele>57.242584</ele>
        <time>2022-12-27T10:54:26.699Z</time>
      </trkpt>
      <trkpt lat="44.61832" lon="-1.12128">
        <ele>57.235885</ele>
        <time>2022-12-27T10:54:29.689Z</time>
      </trkpt>
      <trkpt lat="44.61829" lon="-1.1211">
        <ele>57.229102</ele>
        <time>2022-12-27T10:54:32.696Z</time>
      </trkpt>
      <trkpt lat="44.61827" lon="-1.12092">
        <ele>57.241397</ele>
        <time>2022-12-27T10:54:35.714Z</time>
      </trkpt>
      <trkpt lat="44.61827" lon="-1.12075">
        <ele>57.314019</ele>
        <time>2022-12-27T10:54:38.723Z</time>
      </trkpt>
      <trkpt lat="44.61827" lon="-1.1206">
        <ele>57.382301</ele>
        <time>2022-12-27T10:54:41.712Z</time>
      </trkpt>
      <trkpt lat="44.61827" lon="-1.12044">
        <ele>57.449734</ele>
        <time>2022-12-27T10:54:44.705Z</time>
      </trkpt>
      <trkpt lat="44.61831" lon="-1.1203">
        <ele>57.515722</ele>
        <time>2022-12-27T10:54:47.714Z</time>
      </trkpt>
      <trkpt lat="44.61835" lon="-1.12017">
        <ele>57.579452</ele>
        <time>2022-12-27T10:54:51.712Z</time>
      </trkpt>
      <trkpt lat="44.61835" lon="-1.12031">
        <ele>57.64069</ele>
        <time>2022-12-27T10:55:03.695Z</time>
      </trkpt>
      <trkpt lat="44.61832" lon="-1.12045">
        <ele>57.703293</ele>
        <time>2022-12-27T10:55:07.708Z</time>
      </trkpt>
      <trkpt lat="44.6183" lon="-1.1206">
        <ele>57.771971</ele>
        <time>2022-12-27T10:55:11.695Z</time>
      </trkpt>
      <trkpt lat="44.61824" lon="-1.12071">
        <ele>57.829732</ele>
        <time>2022-12-27T10:55:16.688Z</time>
      </trkpt>
      <trkpt lat="44.61818" lon="-1.12059">
        <ele>57.896761</ele>
        <time>2022-12-27T10:55:25.691Z</time>
      </trkpt>
      <trkpt lat="44.61816" lon="-1.12042">
        <ele>57.96901</ele>
        <time>2022-12-27T10:55:29.713Z</time>
      </trkpt>
      <trkpt lat="44.61815" lon="-1.12029">
        <ele>58.028521</ele>
        <time>2022-12-27T10:55:32.721Z</time>
      </trkpt>
      <trkpt lat="44.61814" lon="-1.12014">
        <ele>58.094982</ele>
        <time>2022-12-27T10:55:35.683Z</time>
      </trkpt>
      <trkpt lat="44.61812" lon="-1.11998">
        <ele>58.166008</ele>
        <time>2022-12-27T10:55:38.704Z</time>
      </trkpt>
      <trkpt lat="44.61811" lon="-1.11982">
        <ele>58.235219</ele>
        <time>2022-12-27T10:55:41.712Z</time>
      </trkpt>
      <trkpt lat="44.61809" lon="-1.11965">
        <ele>58.307546</ele>
        <time>2022-12-27T10:55:44.708Z</time>
      </trkpt>
      <trkpt lat="44.61807" lon="-1.11948">
        <ele>58.407216</ele>
        <time>2022-12-27T10:55:47.715Z</time>
      </trkpt>
      <trkpt lat="44.61805" lon="-1.11931">
        <ele>58.513506</ele>
        <time>2022-12-27T10:55:50.700Z</time>
      </trkpt>
      <trkpt lat="44.61804" lon="-1.11914">
        <ele>58.620875</ele>
        <time>2022-12-27T10:55:53.713Z</time>
      </trkpt>
      <trkpt lat="44.61801" lon="-1.11897">
        <ele>58.731434</ele>
        <time>2022-12-27T10:55:56.706Z</time>
      </trkpt>
      <trkpt lat="44.61799" lon="-1.1188">
        <ele>58.842939</ele>
        <time>2022-12-27T10:55:59.714Z</time>
      </trkpt>
      <trkpt lat="44.61796" lon="-1.11862">
        <ele>58.95768</ele>
        <time>2022-12-27T10:56:02.712Z</time>
      </trkpt>
      <trkpt lat="44.61794" lon="-1.11844">
        <ele>59.069312</ele>
        <time>2022-12-27T10:56:05.715Z</time>
      </trkpt>
      <trkpt lat="44.61792" lon="-1.11826">
        <ele>59.180391</ele>
        <time>2022-12-27T10:56:08.724Z</time>
      </trkpt>
      <trkpt lat="44.6179" lon="-1.11808">
        <ele>59.294181</ele>
        <time>2022-12-27T10:56:11.714Z</time>
      </trkpt>
      <trkpt lat="44.61787" lon="-1.1179">
        <ele>59.41277</ele>
        <time>2022-12-27T10:56:14.708Z</time>
      </trkpt>
      <trkpt lat="44.61786" lon="-1.11777">
        <ele>59.493194</ele>
        <time>2022-12-27T10:56:16.706Z</time>
      </trkpt>
      <trkpt lat="44.61784" lon="-1.11764">
        <ele>59.574703</ele>
        <time>2022-12-27T10:56:18.714Z</time>
      </trkpt>
      <trkpt lat="44.61781" lon="-1.11746">
        <ele>59.691565</ele>
        <time>2022-12-27T10:56:21.713Z</time>
      </trkpt>
      <trkpt lat="44.6178" lon="-1.11733">
        <ele>59.771522</ele>
        <time>2022-12-27T10:56:23.706Z</time>
      </trkpt>
      <trkpt lat="44.61778" lon="-1.11716">
        <ele>59.883154</ele>
        <time>2022-12-27T10:56:26.712Z</time>
      </trkpt>
      <trkpt lat="44.61776" lon="-1.117">
        <ele>59.875096</ele>
        <time>2022-12-27T10:56:29.705Z</time>
      </trkpt>
      <trkpt lat="44.61774" lon="-1.11685">
        <ele>59.836161</ele>
        <time>2022-12-27T10:56:32.720Z</time>
      </trkpt>
      <trkpt lat="44.61774" lon="-1.11672">
        <ele>59.800186</ele>
        <time>2022-12-27T10:56:35.706Z</time>
      </trkpt>
      <trkpt lat="44.61782" lon="-1.11665">
        <ele>59.764612</ele>
        <time>2022-12-27T10:56:39.712Z</time>
      </trkpt>
      <trkpt lat="44.61791" lon="-1.11661">
        <ele>59.728389</ele>
        <time>2022-12-27T10:56:43.713Z</time>
      </trkpt>
      <trkpt lat="44.61795" lon="-1.11648">
        <ele>59.692374</ele>
        <time>2022-12-27T10:56:47.688Z</time>
      </trkpt>
      <trkpt lat="44.61793" lon="-1.11634">
        <ele>59.654502</ele>
        <time>2022-12-27T10:56:50.685Z</time>
      </trkpt>
      <trkpt lat="44.61792" lon="-1.11616">
        <ele>59.606471</ele>
        <time>2022-12-27T10:56:53.714Z</time>
      </trkpt>
      <trkpt lat="44.6179" lon="-1.11599">
        <ele>59.561897</ele>
        <time>2022-12-27T10:56:56.695Z</time>
      </trkpt>
      <trkpt lat="44.61788" lon="-1.11586">
        <ele>59.527408</ele>
        <time>2022-12-27T10:56:58.708Z</time>
      </trkpt>
      <trkpt lat="44.61785" lon="-1.11574">
        <ele>59.492807</ele>
        <time>2022-12-27T10:57:00.689Z</time>
      </trkpt>
      <trkpt lat="44.61783" lon="-1.11561">
        <ele>59.458659</ele>
        <time>2022-12-27T10:57:02.709Z</time>
      </trkpt>
      <trkpt lat="44.61783" lon="-1.11548">
        <ele>59.424933</ele>
        <time>2022-12-27T10:57:04.684Z</time>
      </trkpt>
      <trkpt lat="44.61782" lon="-1.1153">
        <ele>59.375855</ele>
        <time>2022-12-27T10:57:07.712Z</time>
      </trkpt>
      <trkpt lat="44.6178" lon="-1.11511">
        <ele>59.325834</ele>
        <time>2022-12-27T10:57:10.692Z</time>
      </trkpt>
      <trkpt lat="44.61777" lon="-1.11498">
        <ele>59.290624</ele>
        <time>2022-12-27T10:57:12.728Z</time>
      </trkpt>
      <trkpt lat="44.61775" lon="-1.11486">
        <ele>59.255958</ele>
        <time>2022-12-27T10:57:14.697Z</time>
      </trkpt>
      <trkpt lat="44.61771" lon="-1.11468">
        <ele>59.304392</ele>
        <time>2022-12-27T10:57:17.715Z</time>
      </trkpt>
      <trkpt lat="44.6177" lon="-1.11453">
        <ele>59.386587</ele>
        <time>2022-12-27T10:57:20.682Z</time>
      </trkpt>
      <trkpt lat="44.61764" lon="-1.11438">
        <ele>59.474691</ele>
        <time>2022-12-27T10:57:23.716Z</time>
      </trkpt>
      <trkpt lat="44.6176" lon="-1.11421">
        <ele>59.569071</ele>
        <time>2022-12-27T10:57:26.686Z</time>
      </trkpt>
      <trkpt lat="44.61757" lon="-1.11404">
        <ele>59.66236</ele>
        <time>2022-12-27T10:57:29.703Z</time>
      </trkpt>
      <trkpt lat="44.61754" lon="-1.11386">
        <ele>59.762942</ele>
        <time>2022-12-27T10:57:32.711Z</time>
      </trkpt>
      <trkpt lat="44.61753" lon="-1.11373">
        <ele>59.830254</ele>
        <time>2022-12-27T10:57:34.713Z</time>
      </trkpt>
      <trkpt lat="44.61753" lon="-1.1136">
        <ele>59.901189</ele>
        <time>2022-12-27T10:57:36.704Z</time>
      </trkpt>
      <trkpt lat="44.61752" lon="-1.11347">
        <ele>59.971061</ele>
        <time>2022-12-27T10:57:38.722Z</time>
      </trkpt>
      <trkpt lat="44.61751" lon="-1.11333">
        <ele>60.042562</ele>
        <time>2022-12-27T10:57:40.693Z</time>
      </trkpt>
      <trkpt lat="44.61748" lon="-1.11315">
        <ele>60.141944</ele>
        <time>2022-12-27T10:57:43.715Z</time>
      </trkpt>
      <trkpt lat="44.61745" lon="-1.113">
        <ele>60.228511</ele>
        <time>2022-12-27T10:57:46.683Z</time>
      </trkpt>
      <trkpt lat="44.61741" lon="-1.11287">
        <ele>60.303269</ele>
        <time>2022-12-27T10:57:49.697Z</time>
      </trkpt>
      <trkpt lat="44.61733" lon="-1.11277">
        <ele>60.383553</ele>
        <time>2022-12-27T10:57:53.708Z</time>
      </trkpt>
      <trkpt lat="44.61722" lon="-1.11277">
        <ele>60.464426</ele>
        <time>2022-12-27T10:57:57.698Z</time>
      </trkpt>
      <trkpt lat="44.61718" lon="-1.11264">
        <ele>60.539654</ele>
        <time>2022-12-27T10:58:01.686Z</time>
      </trkpt>
      <trkpt lat="44.61716" lon="-1.1125">
        <ele>60.588812</ele>
        <time>2022-12-27T10:58:04.713Z</time>
      </trkpt>
      <trkpt lat="44.61715" lon="-1.11235">
        <ele>60.59921</ele>
        <time>2022-12-27T10:58:07.689Z</time>
      </trkpt>
      <trkpt lat="44.61714" lon="-1.11219">
        <ele>60.609327</ele>
        <time>2022-12-27T10:58:10.687Z</time>
      </trkpt>
      <trkpt lat="44.61712" lon="-1.11204">
        <ele>60.619478</ele>
        <time>2022-12-27T10:58:13.713Z</time>
      </trkpt>
      <trkpt lat="44.61714" lon="-1.11188">
        <ele>60.630196</ele>
        <time>2022-12-27T10:58:16.685Z</time>
      </trkpt>
      <trkpt lat="44.61716" lon="-1.11173">
        <ele>60.640506</ele>
        <time>2022-12-27T10:58:19.697Z</time>
      </trkpt>
      <trkpt lat="44.61715" lon="-1.11157">
        <ele>60.650987</ele>
        <time>2022-12-27T10:58:22.706Z</time>
      </trkpt>
      <trkpt lat="44.61713" lon="-1.1114">
        <ele>60.662202</ele>
        <time>2022-12-27T10:58:25.691Z</time>
      </trkpt>
      <trkpt lat="44.6171" lon="-1.11123">
        <ele>60.673581</ele>
        <time>2022-12-27T10:58:28.721Z</time>
      </trkpt>
      <trkpt lat="44.61708" lon="-1.11105">
        <ele>60.685521</ele>
        <time>2022-12-27T10:58:31.712Z</time>
      </trkpt>
      <trkpt lat="44.61706" lon="-1.11087">
        <ele>60.697554</ele>
        <time>2022-12-27T10:58:34.696Z</time>
      </trkpt>
      <trkpt lat="44.61704" lon="-1.11069">
        <ele>60.709397</ele>
        <time>2022-12-27T10:58:37.687Z</time>
      </trkpt>
      <trkpt lat="44.61702" lon="-1.11051">
        <ele>60.721182</ele>
        <time>2022-12-27T10:58:40.690Z</time>
      </trkpt>
      <trkpt lat="44.61701" lon="-1.11038">
        <ele>60.729593</ele>
        <time>2022-12-27T10:58:42.718Z</time>
      </trkpt>
      <trkpt lat="44.61699" lon="-1.11026">
        <ele>60.737871</ele>
        <time>2022-12-27T10:58:44.717Z</time>
      </trkpt>
      <trkpt lat="44.61698" lon="-1.11013">
        <ele>60.746489</ele>
        <time>2022-12-27T10:58:46.702Z</time>
      </trkpt>
      <trkpt lat="44.61696" lon="-1.11">
        <ele>60.710734</ele>
        <time>2022-12-27T10:58:48.721Z</time>
      </trkpt>
      <trkpt lat="44.61694" lon="-1.10988">
        <ele>60.632188</ele>
        <time>2022-12-27T10:58:50.690Z</time>
      </trkpt>
      <trkpt lat="44.61693" lon="-1.10975">
        <ele>60.554892</ele>
        <time>2022-12-27T10:58:52.715Z</time>
      </trkpt>
      <trkpt lat="44.6169" lon="-1.10958">
        <ele>60.445108</ele>
        <time>2022-12-27T10:58:55.719Z</time>
      </trkpt>
      <trkpt lat="44.61687" lon="-1.10941">
        <ele>60.339</ele>
        <time>2022-12-27T10:58:58.707Z</time>
      </trkpt>
      <trkpt lat="44.61686" lon="-1.10924">
        <ele>60.234853</ele>
        <time>2022-12-27T10:59:01.686Z</time>
      </trkpt>
      <trkpt lat="44.61685" lon="-1.10907">
        <ele>60.12617</ele>
        <time>2022-12-27T10:59:04.685Z</time>
      </trkpt>
      <trkpt lat="44.61683" lon="-1.1089">
        <ele>60.020888</ele>
        <time>2022-12-27T10:59:07.710Z</time>
      </trkpt>
      <trkpt lat="44.61682" lon="-1.10876">
        <ele>59.934449</ele>
        <time>2022-12-27T10:59:10.693Z</time>
      </trkpt>
      <trkpt lat="44.6168" lon="-1.10861">
        <ele>59.843794</ele>
        <time>2022-12-27T10:59:13.690Z</time>
      </trkpt>
      <trkpt lat="44.61679" lon="-1.10844">
        <ele>59.736886</ele>
        <time>2022-12-27T10:59:16.694Z</time>
      </trkpt>
      <trkpt lat="44.61678" lon="-1.10828">
        <ele>59.637476</ele>
        <time>2022-12-27T10:59:19.700Z</time>
      </trkpt>
      <trkpt lat="44.61677" lon="-1.10811">
        <ele>59.531695</ele>
        <time>2022-12-27T10:59:22.716Z</time>
      </trkpt>
      <trkpt lat="44.61676" lon="-1.10793">
        <ele>59.423041</ele>
        <time>2022-12-27T10:59:25.715Z</time>
      </trkpt>
      <trkpt lat="44.61677" lon="-1.10775">
        <ele>59.311959</ele>
        <time>2022-12-27T10:59:28.700Z</time>
      </trkpt>
      <trkpt lat="44.61677" lon="-1.10758">
        <ele>59.208858</ele>
        <time>2022-12-27T10:59:31.696Z</time>
      </trkpt>
      <trkpt lat="44.61676" lon="-1.10744">
        <ele>59.008508</ele>
        <time>2022-12-27T10:59:34.694Z</time>
      </trkpt>
      <trkpt lat="44.61674" lon="-1.10731">
        <ele>58.796059</ele>
        <time>2022-12-27T10:59:37.710Z</time>
      </trkpt>
      <trkpt lat="44.61681" lon="-1.10719">
        <ele>58.550648</ele>
        <time>2022-12-27T10:59:41.686Z</time>
      </trkpt>
      <trkpt lat="44.61692" lon="-1.10715">
        <ele>58.29639</ele>
        <time>2022-12-27T10:59:44.704Z</time>
      </trkpt>
      <trkpt lat="44.61704" lon="-1.10711">
        <ele>58.026739</ele>
        <time>2022-12-27T10:59:47.696Z</time>
      </trkpt>
      <trkpt lat="44.61713" lon="-1.1071">
        <ele>57.821112</ele>
        <time>2022-12-27T10:59:49.694Z</time>
      </trkpt>
      <trkpt lat="44.61722" lon="-1.10707">
        <ele>57.616798</ele>
        <time>2022-12-27T10:59:51.695Z</time>
      </trkpt>
      <trkpt lat="44.61736" lon="-1.10704">
        <ele>57.309555</ele>
        <time>2022-12-27T10:59:54.698Z</time>
      </trkpt>
      <trkpt lat="44.61746" lon="-1.10701">
        <ele>57.092576</ele>
        <time>2022-12-27T10:59:56.692Z</time>
      </trkpt>
      <trkpt lat="44.61755" lon="-1.10698">
        <ele>56.871561</ele>
        <time>2022-12-27T10:59:58.709Z</time>
      </trkpt>
      <trkpt lat="44.61766" lon="-1.10696">
        <ele>56.635811</ele>
        <time>2022-12-27T11:00:00.691Z</time>
      </trkpt>
      <trkpt lat="44.61777" lon="-1.10696">
        <ele>56.404745</ele>
        <time>2022-12-27T11:00:02.718Z</time>
      </trkpt>
      <trkpt lat="44.61786" lon="-1.10695">
        <ele>56.186472</ele>
        <time>2022-12-27T11:00:04.710Z</time>
      </trkpt>
      <trkpt lat="44.61796" lon="-1.10692">
        <ele>55.978976</ele>
        <time>2022-12-27T11:00:06.713Z</time>
      </trkpt>
      <trkpt lat="44.61805" lon="-1.1069">
        <ele>55.780797</ele>
        <time>2022-12-27T11:00:08.721Z</time>
      </trkpt>
      <trkpt lat="44.61814" lon="-1.10687">
        <ele>55.57492</ele>
        <time>2022-12-27T11:00:10.690Z</time>
      </trkpt>
      <trkpt lat="44.61824" lon="-1.10685">
        <ele>55.35489</ele>
        <time>2022-12-27T11:00:12.716Z</time>
      </trkpt>
      <trkpt lat="44.61833" lon="-1.1068">
        <ele>55.231409</ele>
        <time>2022-12-27T11:00:14.726Z</time>
      </trkpt>
      <trkpt lat="44.61843" lon="-1.10675">
        <ele>55.208239</ele>
        <time>2022-12-27T11:00:16.710Z</time>
      </trkpt>
      <trkpt lat="44.61853" lon="-1.10672">
        <ele>55.186647</ele>
        <time>2022-12-27T11:00:18.702Z</time>
      </trkpt>
      <trkpt lat="44.61864" lon="-1.1067">
        <ele>55.163091</ele>
        <time>2022-12-27T11:00:20.693Z</time>
      </trkpt>
      <trkpt lat="44.61873" lon="-1.10668">
        <ele>55.143379</ele>
        <time>2022-12-27T11:00:22.699Z</time>
      </trkpt>
      <trkpt lat="44.61887" lon="-1.10665">
        <ele>55.11379</ele>
        <time>2022-12-27T11:00:25.704Z</time>
      </trkpt>
      <trkpt lat="44.619" lon="-1.10663">
        <ele>55.085394</ele>
        <time>2022-12-27T11:00:28.725Z</time>
      </trkpt>
      <trkpt lat="44.61909" lon="-1.1066">
        <ele>55.065023</ele>
        <time>2022-12-27T11:00:30.702Z</time>
      </trkpt>
      <trkpt lat="44.61918" lon="-1.10656">
        <ele>55.044661</ele>
        <time>2022-12-27T11:00:32.717Z</time>
      </trkpt>
      <trkpt lat="44.61928" lon="-1.10653">
        <ele>55.023765</ele>
        <time>2022-12-27T11:00:34.713Z</time>
      </trkpt>
      <trkpt lat="44.61937" lon="-1.10651">
        <ele>55.002693</ele>
        <time>2022-12-27T11:00:36.694Z</time>
      </trkpt>
      <trkpt lat="44.61948" lon="-1.10648">
        <ele>54.980405</ele>
        <time>2022-12-27T11:00:38.705Z</time>
      </trkpt>
      <trkpt lat="44.61957" lon="-1.10645">
        <ele>54.959961</ele>
        <time>2022-12-27T11:00:40.689Z</time>
      </trkpt>
      <trkpt lat="44.6197" lon="-1.10641">
        <ele>54.931777</ele>
        <time>2022-12-27T11:00:43.714Z</time>
      </trkpt>
      <trkpt lat="44.61979" lon="-1.10638">
        <ele>54.911996</ele>
        <time>2022-12-27T11:00:45.714Z</time>
      </trkpt>
      <trkpt lat="44.61992" lon="-1.10634">
        <ele>54.882936</ele>
        <time>2022-12-27T11:00:48.773Z</time>
      </trkpt>
      <trkpt lat="44.62001" lon="-1.10631">
        <ele>54.862879</ele>
        <time>2022-12-27T11:00:50.688Z</time>
      </trkpt>
      <trkpt lat="44.62013" lon="-1.10628">
        <ele>54.832468</ele>
        <time>2022-12-27T11:00:53.700Z</time>
      </trkpt>
      <trkpt lat="44.62024" lon="-1.10624">
        <ele>54.802496</ele>
        <time>2022-12-27T11:00:56.714Z</time>
      </trkpt>
      <trkpt lat="44.62036" lon="-1.1062">
        <ele>54.771608</ele>
        <time>2022-12-27T11:00:59.713Z</time>
      </trkpt>
      <trkpt lat="44.62047" lon="-1.10617">
        <ele>54.743266</ele>
        <time>2022-12-27T11:01:02.715Z</time>
      </trkpt>
      <trkpt lat="44.62057" lon="-1.10614">
        <ele>54.715861</ele>
        <time>2022-12-27T11:01:05.716Z</time>
      </trkpt>
      <trkpt lat="44.62065" lon="-1.10607">
        <ele>54.692008</ele>
        <time>2022-12-27T11:01:09.687Z</time>
      </trkpt>
      <trkpt lat="44.62059" lon="-1.10595">
        <ele>54.665539</ele>
        <time>2022-12-27T11:01:13.689Z</time>
      </trkpt>
      <trkpt lat="44.62051" lon="-1.10588">
        <ele>54.640461</ele>
        <time>2022-12-27T11:01:16.687Z</time>
      </trkpt>
      <trkpt lat="44.62043" lon="-1.1058">
        <ele>54.614068</ele>
        <time>2022-12-27T11:01:19.689Z</time>
      </trkpt>
      <trkpt lat="44.62033" lon="-1.10573">
        <ele>54.586163</ele>
        <time>2022-12-27T11:01:22.691Z</time>
      </trkpt>
      <trkpt lat="44.62024" lon="-1.10567">
        <ele>54.560231</ele>
        <time>2022-12-27T11:01:25.716Z</time>
      </trkpt>
      <trkpt lat="44.62015" lon="-1.10562">
        <ele>54.53487</ele>
        <time>2022-12-27T11:01:29.712Z</time>
      </trkpt>
      <trkpt lat="44.62015" lon="-1.10549">
        <ele>54.510926</ele>
        <time>2022-12-27T11:01:38.702Z</time>
      </trkpt>
      <trkpt lat="44.6202" lon="-1.10536">
        <ele>54.4845</ele>
        <time>2022-12-27T11:01:45.705Z</time>
      </trkpt>
      <trkpt lat="44.62021" lon="-1.10522">
        <ele>54.45832</ele>
        <time>2022-12-27T11:01:50.691Z</time>
      </trkpt>
      <trkpt lat="44.62019" lon="-1.10507">
        <ele>54.429928</ele>
        <time>2022-12-27T11:01:54.696Z</time>
      </trkpt>
      <trkpt lat="44.6201" lon="-1.105">
        <ele>54.403914</ele>
        <time>2022-12-27T11:01:58.688Z</time>
      </trkpt>
      <trkpt lat="44.62001" lon="-1.10493">
        <ele>54.478767</ele>
        <time>2022-12-27T11:02:02.688Z</time>
      </trkpt>
      <trkpt lat="44.6199" lon="-1.10486">
        <ele>54.63198</ele>
        <time>2022-12-27T11:02:06.707Z</time>
      </trkpt>
      <trkpt lat="44.6198" lon="-1.10481">
        <ele>54.760513</ele>
        <time>2022-12-27T11:02:09.711Z</time>
      </trkpt>
      <trkpt lat="44.61969" lon="-1.10477">
        <ele>54.906262</ele>
        <time>2022-12-27T11:02:12.714Z</time>
      </trkpt>
      <trkpt lat="44.61959" lon="-1.10472">
        <ele>55.040699</ele>
        <time>2022-12-27T11:02:15.935Z</time>
      </trkpt>
      <trkpt lat="44.61949" lon="-1.10464">
        <ele>55.182231</ele>
        <time>2022-12-27T11:02:18.696Z</time>
      </trkpt>
      <trkpt lat="44.61938" lon="-1.10456">
        <ele>55.329232</ele>
        <time>2022-12-27T11:02:21.708Z</time>
      </trkpt>
      <trkpt lat="44.61928" lon="-1.10448">
        <ele>55.47927</ele>
        <time>2022-12-27T11:02:24.698Z</time>
      </trkpt>
      <trkpt lat="44.61917" lon="-1.1044">
        <ele>55.632912</ele>
        <time>2022-12-27T11:02:27.709Z</time>
      </trkpt>
      <trkpt lat="44.61907" lon="-1.10431">
        <ele>55.78463</ele>
        <time>2022-12-27T11:02:30.702Z</time>
      </trkpt>
      <trkpt lat="44.61896" lon="-1.10421">
        <ele>55.946474</ele>
        <time>2022-12-27T11:02:33.684Z</time>
      </trkpt>
      <trkpt lat="44.61884" lon="-1.10413">
        <ele>56.104975</ele>
        <time>2022-12-27T11:02:36.705Z</time>
      </trkpt>
      <trkpt lat="44.61872" lon="-1.10405">
        <ele>56.27098</ele>
        <time>2022-12-27T11:02:39.694Z</time>
      </trkpt>
      <trkpt lat="44.61862" lon="-1.10397">
        <ele>56.416644</ele>
        <time>2022-12-27T11:02:42.713Z</time>
      </trkpt>
      <trkpt lat="44.61854" lon="-1.1039">
        <ele>56.542276</ele>
        <time>2022-12-27T11:02:45.691Z</time>
      </trkpt>
      <trkpt lat="44.61846" lon="-1.10381">
        <ele>56.634948</ele>
        <time>2022-12-27T11:02:48.709Z</time>
      </trkpt>
      <trkpt lat="44.61839" lon="-1.10373">
        <ele>56.623222</ele>
        <time>2022-12-27T11:02:51.692Z</time>
      </trkpt>
      <trkpt lat="44.61832" lon="-1.10363">
        <ele>56.611375</ele>
        <time>2022-12-27T11:02:54.690Z</time>
      </trkpt>
      <trkpt lat="44.61826" lon="-1.10353">
        <ele>56.599309</ele>
        <time>2022-12-27T11:02:57.715Z</time>
      </trkpt>
      <trkpt lat="44.61817" lon="-1.10347">
        <ele>56.587616</ele>
        <time>2022-12-27T11:03:00.693Z</time>
      </trkpt>
      <trkpt lat="44.61807" lon="-1.10341">
        <ele>56.574316</ele>
        <time>2022-12-27T11:03:04.710Z</time>
      </trkpt>
      <trkpt lat="44.61798" lon="-1.10339">
        <ele>56.562216</ele>
        <time>2022-12-27T11:03:08.721Z</time>
      </trkpt>
      <trkpt lat="44.61808" lon="-1.10338">
        <ele>56.549028</ele>
        <time>2022-12-27T11:03:46.694Z</time>
      </trkpt>
      <trkpt lat="44.61818" lon="-1.10346">
        <ele>56.535113</ele>
        <time>2022-12-27T11:03:49.710Z</time>
      </trkpt>
      <trkpt lat="44.61828" lon="-1.10353">
        <ele>56.521071</ele>
        <time>2022-12-27T11:03:52.705Z</time>
      </trkpt>
      <trkpt lat="44.61835" lon="-1.10365">
        <ele>56.508014</ele>
        <time>2022-12-27T11:03:55.691Z</time>
      </trkpt>
      <trkpt lat="44.61842" lon="-1.10376">
        <ele>56.494833</ele>
        <time>2022-12-27T11:03:58.722Z</time>
      </trkpt>
      <trkpt lat="44.61849" lon="-1.10386">
        <ele>56.481819</ele>
        <time>2022-12-27T11:04:00.712Z</time>
      </trkpt>
      <trkpt lat="44.61858" lon="-1.10394">
        <ele>56.46943</ele>
        <time>2022-12-27T11:04:02.689Z</time>
      </trkpt>
      <trkpt lat="44.61866" lon="-1.10401">
        <ele>56.457266</ele>
        <time>2022-12-27T11:04:04.689Z</time>
      </trkpt>
      <trkpt lat="44.61875" lon="-1.10408">
        <ele>56.444846</ele>
        <time>2022-12-27T11:04:06.713Z</time>
      </trkpt>
      <trkpt lat="44.61884" lon="-1.10413">
        <ele>56.432541</ele>
        <time>2022-12-27T11:04:08.704Z</time>
      </trkpt>
      <trkpt lat="44.61893" lon="-1.10418">
        <ele>56.420943</ele>
        <time>2022-12-27T11:04:10.711Z</time>
      </trkpt>
      <trkpt lat="44.61904" lon="-1.10428">
        <ele>56.433417</ele>
        <time>2022-12-27T11:04:13.699Z</time>
      </trkpt>
      <trkpt lat="44.61913" lon="-1.10436">
        <ele>56.461096</ele>
        <time>2022-12-27T11:04:16.717Z</time>
      </trkpt>
      <trkpt lat="44.61924" lon="-1.10445">
        <ele>56.49061</ele>
        <time>2022-12-27T11:04:19.685Z</time>
      </trkpt>
      <trkpt lat="44.61936" lon="-1.10455">
        <ele>56.525283</ele>
        <time>2022-12-27T11:04:22.708Z</time>
      </trkpt>
      <trkpt lat="44.61945" lon="-1.10461">
        <ele>56.548861</ele>
        <time>2022-12-27T11:04:24.716Z</time>
      </trkpt>
      <trkpt lat="44.61957" lon="-1.1047">
        <ele>56.582655</ele>
        <time>2022-12-27T11:04:27.712Z</time>
      </trkpt>
      <trkpt lat="44.61965" lon="-1.10476">
        <ele>56.605486</ele>
        <time>2022-12-27T11:04:29.713Z</time>
      </trkpt>
      <trkpt lat="44.61974" lon="-1.1048">
        <ele>56.627918</ele>
        <time>2022-12-27T11:04:31.685Z</time>
      </trkpt>
      <trkpt lat="44.61985" lon="-1.10485">
        <ele>56.656133</ele>
        <time>2022-12-27T11:04:34.713Z</time>
      </trkpt>
      <trkpt lat="44.61994" lon="-1.1049">
        <ele>56.678277</ele>
        <time>2022-12-27T11:04:37.714Z</time>
      </trkpt>
      <trkpt lat="44.62004" lon="-1.10494">
        <ele>56.703787</ele>
        <time>2022-12-27T11:04:41.691Z</time>
      </trkpt>
      <trkpt lat="44.62011" lon="-1.10485">
        <ele>56.726442</ele>
        <time>2022-12-27T11:04:45.737Z</time>
      </trkpt>
      <trkpt lat="44.62015" lon="-1.10474">
        <ele>56.749117</ele>
        <time>2022-12-27T11:04:48.710Z</time>
      </trkpt>
      <trkpt lat="44.6202" lon="-1.10462">
        <ele>56.771221</ele>
        <time>2022-12-27T11:04:51.713Z</time>
      </trkpt>
      <trkpt lat="44.62028" lon="-1.10452">
        <ele>56.798369</ele>
        <time>2022-12-27T11:04:55.688Z</time>
      </trkpt>
      <trkpt lat="44.62035" lon="-1.10441">
        <ele>56.823449</ele>
        <time>2022-12-27T11:04:58.712Z</time>
      </trkpt>
      <trkpt lat="44.62041" lon="-1.10429">
        <ele>56.849534</ele>
        <time>2022-12-27T11:05:01.691Z</time>
      </trkpt>
      <trkpt lat="44.62046" lon="-1.10416">
        <ele>56.921577</ele>
        <time>2022-12-27T11:05:04.689Z</time>
      </trkpt>
      <trkpt lat="44.62051" lon="-1.10401">
        <ele>57.009851</ele>
        <time>2022-12-27T11:05:07.697Z</time>
      </trkpt>
      <trkpt lat="44.62056" lon="-1.10385">
        <ele>57.105175</ele>
        <time>2022-12-27T11:05:10.689Z</time>
      </trkpt>
      <trkpt lat="44.6206" lon="-1.10373">
        <ele>57.17262</ele>
        <time>2022-12-27T11:05:12.722Z</time>
      </trkpt>
      <trkpt lat="44.62065" lon="-1.10362">
        <ele>57.242553</ele>
        <time>2022-12-27T11:05:14.686Z</time>
      </trkpt>
      <trkpt lat="44.62069" lon="-1.10351">
        <ele>57.310044</ele>
        <time>2022-12-27T11:05:16.715Z</time>
      </trkpt>
      <trkpt lat="44.62075" lon="-1.1034">
        <ele>57.382519</ele>
        <time>2022-12-27T11:05:18.721Z</time>
      </trkpt>
      <trkpt lat="44.6208" lon="-1.10329">
        <ele>57.453169</ele>
        <time>2022-12-27T11:05:21.693Z</time>
      </trkpt>
      <trkpt lat="44.62085" lon="-1.10317">
        <ele>57.525246</ele>
        <time>2022-12-27T11:05:24.689Z</time>
      </trkpt>
      <trkpt lat="44.62089" lon="-1.10304">
        <ele>57.603033</ele>
        <time>2022-12-27T11:05:28.721Z</time>
      </trkpt>
      <trkpt lat="44.62093" lon="-1.10292">
        <ele>57.674175</ele>
        <time>2022-12-27T11:05:32.685Z</time>
      </trkpt>
      <trkpt lat="44.62092" lon="-1.10308">
        <ele>57.758436</ele>
        <time>2022-12-27T11:05:47.700Z</time>
      </trkpt>
      <trkpt lat="44.62098" lon="-1.1032">
        <ele>57.836882</ele>
        <time>2022-12-27T11:05:52.715Z</time>
      </trkpt>
      <trkpt lat="44.62109" lon="-1.10327">
        <ele>57.922433</ele>
        <time>2022-12-27T11:05:56.713Z</time>
      </trkpt>
      <trkpt lat="44.62119" lon="-1.10335">
        <ele>58.010151</ele>
        <time>2022-12-27T11:05:59.692Z</time>
      </trkpt>
      <trkpt lat="44.62127" lon="-1.10343">
        <ele>58.085737</ele>
        <time>2022-12-27T11:06:02.687Z</time>
      </trkpt>
      <trkpt lat="44.62138" lon="-1.10353">
        <ele>58.18114</ele>
        <time>2022-12-27T11:06:05.708Z</time>
      </trkpt>
      <trkpt lat="44.62149" lon="-1.10362">
        <ele>58.193823</ele>
        <time>2022-12-27T11:06:08.702Z</time>
      </trkpt>
      <trkpt lat="44.6216" lon="-1.10369">
        <ele>58.191563</ele>
        <time>2022-12-27T11:06:11.690Z</time>
      </trkpt>
      <trkpt lat="44.62164" lon="-1.10371">
        <ele>58.190845</ele>
        <time>2022-12-27T11:06:12.810Z</time>
      </trkpt>
      <trkpt lat="44.62292" lon="-1.02473">
        <ele>57.511867</ele>
        <time>2022-12-27T11:37:03.930Z</time>
      </trkpt>
      <trkpt lat="44.62288" lon="-1.02468">
        <ele>57.525736</ele>
        <time>2022-12-27T12:00:20.540Z</time>
      </trkpt>
      <trkpt lat="44.62287" lon="-1.02448">
        <ele>57.566338</ele>
        <time>2022-12-27T12:00:43.702Z</time>
      </trkpt>
      <trkpt lat="44.62289" lon="-1.02435">
        <ele>57.592273</ele>
        <time>2022-12-27T12:00:47.694Z</time>
      </trkpt>
      <trkpt lat="44.62295" lon="-1.02424">
        <ele>57.61982</ele>
        <time>2022-12-27T12:00:51.697Z</time>
      </trkpt>
      <trkpt lat="44.62297" lon="-1.02411">
        <ele>57.646392</ele>
        <time>2022-12-27T12:00:55.706Z</time>
      </trkpt>
      <trkpt lat="44.62293" lon="-1.02399">
        <ele>57.673182</ele>
        <time>2022-12-27T12:00:58.692Z</time>
      </trkpt>
      <trkpt lat="44.62288" lon="-1.02385">
        <ele>57.703104</ele>
        <time>2022-12-27T12:01:01.695Z</time>
      </trkpt>
      <trkpt lat="44.62284" lon="-1.0237">
        <ele>57.735723</ele>
        <time>2022-12-27T12:01:04.722Z</time>
      </trkpt>
      <trkpt lat="44.6228" lon="-1.02356">
        <ele>57.765198</ele>
        <time>2022-12-27T12:01:07.691Z</time>
      </trkpt>
      <trkpt lat="44.62276" lon="-1.02343">
        <ele>57.793511</ele>
        <time>2022-12-27T12:01:10.716Z</time>
      </trkpt>
      <trkpt lat="44.62272" lon="-1.02328">
        <ele>57.783442</ele>
        <time>2022-12-27T12:01:13.714Z</time>
      </trkpt>
      <trkpt lat="44.62267" lon="-1.02313">
        <ele>57.728849</ele>
        <time>2022-12-27T12:01:16.716Z</time>
      </trkpt>
      <trkpt lat="44.62262" lon="-1.02298">
        <ele>57.677889</ele>
        <time>2022-12-27T12:01:19.714Z</time>
      </trkpt>
      <trkpt lat="44.62257" lon="-1.02284">
        <ele>57.627881</ele>
        <time>2022-12-27T12:01:22.712Z</time>
      </trkpt>
      <trkpt lat="44.62253" lon="-1.0227">
        <ele>57.581669</ele>
        <time>2022-12-27T12:01:25.728Z</time>
      </trkpt>
      <trkpt lat="44.62249" lon="-1.02257">
        <ele>57.536674</ele>
        <time>2022-12-27T12:01:28.697Z</time>
      </trkpt>
      <trkpt lat="44.62244" lon="-1.02244">
        <ele>57.490236</ele>
        <time>2022-12-27T12:01:31.694Z</time>
      </trkpt>
      <trkpt lat="44.62239" lon="-1.02228">
        <ele>57.434693</ele>
        <time>2022-12-27T12:01:34.705Z</time>
      </trkpt>
      <trkpt lat="44.62235" lon="-1.02212">
        <ele>57.381026</ele>
        <time>2022-12-27T12:01:37.713Z</time>
      </trkpt>
      <trkpt lat="44.62232" lon="-1.022">
        <ele>57.340597</ele>
        <time>2022-12-27T12:01:39.699Z</time>
      </trkpt>
      <trkpt lat="44.62228" lon="-1.02182">
        <ele>57.282082</ele>
        <time>2022-12-27T12:01:42.727Z</time>
      </trkpt>
      <trkpt lat="44.62224" lon="-1.02165">
        <ele>57.225366</ele>
        <time>2022-12-27T12:01:45.697Z</time>
      </trkpt>
      <trkpt lat="44.62219" lon="-1.02148">
        <ele>57.166533</ele>
        <time>2022-12-27T12:01:48.711Z</time>
      </trkpt>
      <trkpt lat="44.62216" lon="-1.02136">
        <ele>57.12586</ele>
        <time>2022-12-27T12:01:50.696Z</time>
      </trkpt>
      <trkpt lat="44.62212" lon="-1.02118">
        <ele>57.066174</ele>
        <time>2022-12-27T12:01:53.712Z</time>
      </trkpt>
      <trkpt lat="44.62208" lon="-1.02101">
        <ele>57.011574</ele>
        <time>2022-12-27T12:01:56.725Z</time>
      </trkpt>
      <trkpt lat="44.62205" lon="-1.02086">
        <ele>56.942558</ele>
        <time>2022-12-27T12:01:59.714Z</time>
      </trkpt>
      <trkpt lat="44.62201" lon="-1.02071">
        <ele>56.87372</ele>
        <time>2022-12-27T12:02:02.716Z</time>
      </trkpt>
      <trkpt lat="44.62198" lon="-1.02054">
        <ele>56.797115</ele>
        <time>2022-12-27T12:02:05.721Z</time>
      </trkpt>
      <trkpt lat="44.62195" lon="-1.02035">
        <ele>56.711482</ele>
        <time>2022-12-27T12:02:08.699Z</time>
      </trkpt>
      <trkpt lat="44.62192" lon="-1.02022">
        <ele>56.651957</ele>
        <time>2022-12-27T12:02:10.713Z</time>
      </trkpt>
      <trkpt lat="44.62189" lon="-1.02009">
        <ele>56.593277</ele>
        <time>2022-12-27T12:02:12.715Z</time>
      </trkpt>
      <trkpt lat="44.62188" lon="-1.01996">
        <ele>56.535719</ele>
        <time>2022-12-27T12:02:14.713Z</time>
      </trkpt>
      <trkpt lat="44.62184" lon="-1.01977">
        <ele>56.44956</ele>
        <time>2022-12-27T12:02:17.698Z</time>
      </trkpt>
      <trkpt lat="44.62181" lon="-1.01959">
        <ele>56.36836</ele>
        <time>2022-12-27T12:02:20.719Z</time>
      </trkpt>
      <trkpt lat="44.62179" lon="-1.01941">
        <ele>56.28842</ele>
        <time>2022-12-27T12:02:23.701Z</time>
      </trkpt>
      <trkpt lat="44.62177" lon="-1.01924">
        <ele>56.213124</ele>
        <time>2022-12-27T12:02:26.716Z</time>
      </trkpt>
      <trkpt lat="44.62175" lon="-1.01907">
        <ele>56.137705</ele>
        <time>2022-12-27T12:02:29.716Z</time>
      </trkpt>
      <trkpt lat="44.62171" lon="-1.0189">
        <ele>56.0611</ele>
        <time>2022-12-27T12:02:32.703Z</time>
      </trkpt>
      <trkpt lat="44.62168" lon="-1.01873">
        <ele>55.98469</ele>
        <time>2022-12-27T12:02:35.723Z</time>
      </trkpt>
      <trkpt lat="44.62166" lon="-1.01857">
        <ele>55.911931</ele>
        <time>2022-12-27T12:02:38.729Z</time>
      </trkpt>
      <trkpt lat="44.62162" lon="-1.01843">
        <ele>55.88235</ele>
        <time>2022-12-27T12:02:41.693Z</time>
      </trkpt>
      <trkpt lat="44.62157" lon="-1.0183">
        <ele>55.855803</ele>
        <time>2022-12-27T12:02:44.726Z</time>
      </trkpt>
      <trkpt lat="44.62159" lon="-1.01815">
        <ele>55.827508</ele>
        <time>2022-12-27T12:02:47.705Z</time>
      </trkpt>
      <trkpt lat="44.6216" lon="-1.01799">
        <ele>55.797523</ele>
        <time>2022-12-27T12:02:50.697Z</time>
      </trkpt>
      <trkpt lat="44.62158" lon="-1.01782">
        <ele>55.764177</ele>
        <time>2022-12-27T12:02:53.702Z</time>
      </trkpt>
      <trkpt lat="44.62155" lon="-1.01765">
        <ele>55.731794</ele>
        <time>2022-12-27T12:02:56.722Z</time>
      </trkpt>
      <trkpt lat="44.62151" lon="-1.0175">
        <ele>55.702067</ele>
        <time>2022-12-27T12:02:59.695Z</time>
      </trkpt>
      <trkpt lat="44.62149" lon="-1.01734">
        <ele>55.672553</ele>
        <time>2022-12-27T12:03:02.694Z</time>
      </trkpt>
      <trkpt lat="44.62148" lon="-1.01716">
        <ele>55.639786</ele>
        <time>2022-12-27T12:03:05.699Z</time>
      </trkpt>
      <trkpt lat="44.62147" lon="-1.01704">
        <ele>55.616124</ele>
        <time>2022-12-27T12:03:07.704Z</time>
      </trkpt>
      <trkpt lat="44.62145" lon="-1.01685">
        <ele>55.581288</ele>
        <time>2022-12-27T12:03:10.704Z</time>
      </trkpt>
      <trkpt lat="44.62143" lon="-1.01673">
        <ele>55.557535</ele>
        <time>2022-12-27T12:03:12.709Z</time>
      </trkpt>
      <trkpt lat="44.62142" lon="-1.0166">
        <ele>55.534091</ele>
        <time>2022-12-27T12:03:14.712Z</time>
      </trkpt>
      <trkpt lat="44.6214" lon="-1.01642">
        <ele>55.499438</ele>
        <time>2022-12-27T12:03:17.720Z</time>
      </trkpt>
      <trkpt lat="44.62137" lon="-1.01623">
        <ele>55.463239</ele>
        <time>2022-12-27T12:03:20.714Z</time>
      </trkpt>
      <trkpt lat="44.62134" lon="-1.0161">
        <ele>55.436259</ele>
        <time>2022-12-27T12:03:22.694Z</time>
      </trkpt>
      <trkpt lat="44.62133" lon="-1.01597">
        <ele>55.390104</ele>
        <time>2022-12-27T12:03:24.720Z</time>
      </trkpt>
      <trkpt lat="44.62132" lon="-1.01583">
        <ele>55.342582</ele>
        <time>2022-12-27T12:03:26.693Z</time>
      </trkpt>
      <trkpt lat="44.62131" lon="-1.01571">
        <ele>55.296881</ele>
        <time>2022-12-27T12:03:28.701Z</time>
      </trkpt>
      <trkpt lat="44.6213" lon="-1.01558">
        <ele>55.250582</ele>
        <time>2022-12-27T12:03:30.700Z</time>
      </trkpt>
      <trkpt lat="44.62128" lon="-1.01539">
        <ele>55.18532</ele>
        <time>2022-12-27T12:03:33.699Z</time>
      </trkpt>
      <trkpt lat="44.62125" lon="-1.0152">
        <ele>55.116195</ele>
        <time>2022-12-27T12:03:36.692Z</time>
      </trkpt>
      <trkpt lat="44.62123" lon="-1.01502">
        <ele>55.050777</ele>
        <time>2022-12-27T12:03:39.710Z</time>
      </trkpt>
      <trkpt lat="44.62121" lon="-1.01484">
        <ele>54.984469</ele>
        <time>2022-12-27T12:03:42.700Z</time>
      </trkpt>
      <trkpt lat="44.62118" lon="-1.01466">
        <ele>54.920197</ele>
        <time>2022-12-27T12:03:45.713Z</time>
      </trkpt>
      <trkpt lat="44.62116" lon="-1.0145">
        <ele>54.861439</ele>
        <time>2022-12-27T12:03:48.725Z</time>
      </trkpt>
      <trkpt lat="44.62115" lon="-1.01435">
        <ele>54.81024</ele>
        <time>2022-12-27T12:03:51.694Z</time>
      </trkpt>
      <trkpt lat="44.62113" lon="-1.01422">
        <ele>54.761839</ele>
        <time>2022-12-27T12:03:54.697Z</time>
      </trkpt>
      <trkpt lat="44.62111" lon="-1.01406">
        <ele>54.704918</ele>
        <time>2022-12-27T12:03:57.711Z</time>
      </trkpt>
      <trkpt lat="44.62109" lon="-1.01392">
        <ele>54.654896</ele>
        <time>2022-12-27T12:04:00.704Z</time>
      </trkpt>
      <trkpt lat="44.62106" lon="-1.01376">
        <ele>54.595918</ele>
        <time>2022-12-27T12:04:03.710Z</time>
      </trkpt>
      <trkpt lat="44.62104" lon="-1.01362">
        <ele>54.544363</ele>
        <time>2022-12-27T12:04:05.720Z</time>
      </trkpt>
      <trkpt lat="44.62104" lon="-1.01348">
        <ele>54.61724</ele>
        <time>2022-12-27T12:04:07.712Z</time>
      </trkpt>
      <trkpt lat="44.62102" lon="-1.0133">
        <ele>54.711555</ele>
        <time>2022-12-27T12:04:10.713Z</time>
      </trkpt>
      <trkpt lat="44.621" lon="-1.01315">
        <ele>54.787561</ele>
        <time>2022-12-27T12:04:13.710Z</time>
      </trkpt>
      <trkpt lat="44.62097" lon="-1.01302">
        <ele>54.860583</ele>
        <time>2022-12-27T12:04:16.699Z</time>
      </trkpt>
      <trkpt lat="44.62093" lon="-1.01285">
        <ele>54.95148</ele>
        <time>2022-12-27T12:04:19.713Z</time>
      </trkpt>
      <trkpt lat="44.62089" lon="-1.01269">
        <ele>55.040244</ele>
        <time>2022-12-27T12:04:22.714Z</time>
      </trkpt>
      <trkpt lat="44.62086" lon="-1.01256">
        <ele>55.112855</ele>
        <time>2022-12-27T12:04:24.710Z</time>
      </trkpt>
      <trkpt lat="44.62082" lon="-1.01243">
        <ele>55.182649</ele>
        <time>2022-12-27T12:04:26.704Z</time>
      </trkpt>
      <trkpt lat="44.62077" lon="-1.01227">
        <ele>55.27633</ele>
        <time>2022-12-27T12:04:29.722Z</time>
      </trkpt>
      <trkpt lat="44.62072" lon="-1.01211">
        <ele>55.365637</ele>
        <time>2022-12-27T12:04:32.709Z</time>
      </trkpt>
      <trkpt lat="44.62067" lon="-1.01198">
        <ele>55.444805</ele>
        <time>2022-12-27T12:04:35.712Z</time>
      </trkpt>
      <trkpt lat="44.62063" lon="-1.01185">
        <ele>55.514512</ele>
        <time>2022-12-27T12:04:38.713Z</time>
      </trkpt>
      <trkpt lat="44.62059" lon="-1.01173">
        <ele>55.587007</ele>
        <time>2022-12-27T12:04:42.697Z</time>
      </trkpt>
      <trkpt lat="44.62051" lon="-1.01162">
        <ele>55.666584</ele>
        <time>2022-12-27T12:04:46.692Z</time>
      </trkpt>
      <trkpt lat="44.62041" lon="-1.0116">
        <ele>55.737081</ele>
        <time>2022-12-27T12:04:50.695Z</time>
      </trkpt>
      <trkpt lat="44.62032" lon="-1.01151">
        <ele>55.819398</ele>
        <time>2022-12-27T12:04:54.708Z</time>
      </trkpt>
      <trkpt lat="44.62026" lon="-1.01138">
        <ele>55.789547</ele>
        <time>2022-12-27T12:04:58.701Z</time>
      </trkpt>
      <trkpt lat="44.62021" lon="-1.01126">
        <ele>55.686203</ele>
        <time>2022-12-27T12:05:01.701Z</time>
      </trkpt>
      <trkpt lat="44.62015" lon="-1.01114">
        <ele>55.580893</ele>
        <time>2022-12-27T12:05:04.704Z</time>
      </trkpt>
      <trkpt lat="44.62011" lon="-1.011">
        <ele>55.465866</ele>
        <time>2022-12-27T12:05:07.701Z</time>
      </trkpt>
      <trkpt lat="44.62008" lon="-1.01084">
        <ele>55.346635</ele>
        <time>2022-12-27T12:05:10.703Z</time>
      </trkpt>
      <trkpt lat="44.62002" lon="-1.01068">
        <ele>55.218093</ele>
        <time>2022-12-27T12:05:13.724Z</time>
      </trkpt>
      <trkpt lat="44.61997" lon="-1.01054">
        <ele>55.099505</ele>
        <time>2022-12-27T12:05:16.698Z</time>
      </trkpt>
      <trkpt lat="44.62006" lon="-1.01064">
        <ele>54.985427</ele>
        <time>2022-12-27T12:05:43.697Z</time>
      </trkpt>
      <trkpt lat="44.6201" lon="-1.01076">
        <ele>54.887103</ele>
        <time>2022-12-27T12:05:46.711Z</time>
      </trkpt>
      <trkpt lat="44.62015" lon="-1.0109">
        <ele>54.775373</ele>
        <time>2022-12-27T12:05:49.703Z</time>
      </trkpt>
      <trkpt lat="44.6202" lon="-1.01104">
        <ele>54.655205</ele>
        <time>2022-12-27T12:05:52.691Z</time>
      </trkpt>
      <trkpt lat="44.62025" lon="-1.01119">
        <ele>54.539475</ele>
        <time>2022-12-27T12:05:55.710Z</time>
      </trkpt>
      <trkpt lat="44.62029" lon="-1.01132">
        <ele>54.430174</ele>
        <time>2022-12-27T12:05:58.694Z</time>
      </trkpt>
      <trkpt lat="44.62033" lon="-1.01144">
        <ele>54.335212</ele>
        <time>2022-12-27T12:06:01.694Z</time>
      </trkpt>
      <trkpt lat="44.62041" lon="-1.01153">
        <ele>54.225727</ele>
        <time>2022-12-27T12:06:05.713Z</time>
      </trkpt>
      <trkpt lat="44.62052" lon="-1.01153">
        <ele>54.119622</ele>
        <time>2022-12-27T12:06:08.693Z</time>
      </trkpt>
      <trkpt lat="44.62062" lon="-1.01149">
        <ele>54.008925</ele>
        <time>2022-12-27T12:06:12.709Z</time>
      </trkpt>
      <trkpt lat="44.62073" lon="-1.01147">
        <ele>54.016726</ele>
        <time>2022-12-27T12:06:15.718Z</time>
      </trkpt>
      <trkpt lat="44.62083" lon="-1.01144">
        <ele>54.030608</ele>
        <time>2022-12-27T12:06:17.706Z</time>
      </trkpt>
      <trkpt lat="44.62095" lon="-1.01143">
        <ele>54.047956</ele>
        <time>2022-12-27T12:06:20.697Z</time>
      </trkpt>
      <trkpt lat="44.62105" lon="-1.01142">
        <ele>54.061077</ele>
        <time>2022-12-27T12:06:22.706Z</time>
      </trkpt>
      <trkpt lat="44.62114" lon="-1.01142">
        <ele>54.074732</ele>
        <time>2022-12-27T12:06:24.711Z</time>
      </trkpt>
      <trkpt lat="44.62124" lon="-1.01142">
        <ele>54.087826</ele>
        <time>2022-12-27T12:06:26.716Z</time>
      </trkpt>
      <trkpt lat="44.62136" lon="-1.0114">
        <ele>54.105765</ele>
        <time>2022-12-27T12:06:29.708Z</time>
      </trkpt>
      <trkpt lat="44.62149" lon="-1.01139">
        <ele>54.123804</ele>
        <time>2022-12-27T12:06:32.697Z</time>
      </trkpt>
      <trkpt lat="44.62162" lon="-1.0114">
        <ele>54.141975</ele>
        <time>2022-12-27T12:06:35.702Z</time>
      </trkpt>
      <trkpt lat="44.62175" lon="-1.0114">
        <ele>54.160276</ele>
        <time>2022-12-27T12:06:38.717Z</time>
      </trkpt>
      <trkpt lat="44.62189" lon="-1.01139">
        <ele>54.179878</ele>
        <time>2022-12-27T12:06:41.707Z</time>
      </trkpt>
      <trkpt lat="44.62198" lon="-1.01138">
        <ele>54.193194</ele>
        <time>2022-12-27T12:06:43.693Z</time>
      </trkpt>
      <trkpt lat="44.62208" lon="-1.01137">
        <ele>54.20605</ele>
        <time>2022-12-27T12:06:45.701Z</time>
      </trkpt>
      <trkpt lat="44.62217" lon="-1.01136">
        <ele>54.219853</ele>
        <time>2022-12-27T12:06:47.695Z</time>
      </trkpt>
      <trkpt lat="44.62227" lon="-1.01136">
        <ele>54.232803</ele>
        <time>2022-12-27T12:06:49.697Z</time>
      </trkpt>
      <trkpt lat="44.6224" lon="-1.01136">
        <ele>54.251243</ele>
        <time>2022-12-27T12:06:52.696Z</time>
      </trkpt>
      <trkpt lat="44.62249" lon="-1.01136">
        <ele>54.322362</ele>
        <time>2022-12-27T12:06:54.725Z</time>
      </trkpt>
      <trkpt lat="44.62258" lon="-1.01136">
        <ele>54.412295</ele>
        <time>2022-12-27T12:06:56.713Z</time>
      </trkpt>
      <trkpt lat="44.62267" lon="-1.01136">
        <ele>54.50527</ele>
        <time>2022-12-27T12:06:58.715Z</time>
      </trkpt>
      <trkpt lat="44.62279" lon="-1.01135">
        <ele>54.620264</ele>
        <time>2022-12-27T12:07:01.692Z</time>
      </trkpt>
      <trkpt lat="44.62288" lon="-1.01134">
        <ele>54.716637</ele>
        <time>2022-12-27T12:07:03.711Z</time>
      </trkpt>
      <trkpt lat="44.623" lon="-1.01133">
        <ele>54.836651</ele>
        <time>2022-12-27T12:07:06.723Z</time>
      </trkpt>
      <trkpt lat="44.62313" lon="-1.01133">
        <ele>54.963559</ele>
        <time>2022-12-27T12:07:09.714Z</time>
      </trkpt>
      <trkpt lat="44.62326" lon="-1.01133">
        <ele>55.09451</ele>
        <time>2022-12-27T12:07:12.718Z</time>
      </trkpt>
      <trkpt lat="44.62336" lon="-1.01132">
        <ele>55.190534</ele>
        <time>2022-12-27T12:07:14.713Z</time>
      </trkpt>
      <trkpt lat="44.62348" lon="-1.01132">
        <ele>55.318441</ele>
        <time>2022-12-27T12:07:17.722Z</time>
      </trkpt>
      <trkpt lat="44.6236" lon="-1.01131">
        <ele>55.438487</ele>
        <time>2022-12-27T12:07:20.720Z</time>
      </trkpt>
      <trkpt lat="44.62371" lon="-1.01131">
        <ele>55.540433</ele>
        <time>2022-12-27T12:07:23.718Z</time>
      </trkpt>
      <trkpt lat="44.62379" lon="-1.01135">
        <ele>55.633534</ele>
        <time>2022-12-27T12:07:26.706Z</time>
      </trkpt>
      <trkpt lat="44.62389" lon="-1.01138">
        <ele>55.732632</ele>
        <time>2022-12-27T12:07:30.707Z</time>
      </trkpt>
      <trkpt lat="44.62401" lon="-1.01138">
        <ele>55.854544</ele>
        <time>2022-12-27T12:07:34.696Z</time>
      </trkpt>
      <trkpt lat="44.62412" lon="-1.01133">
        <ele>55.963215</ele>
        <time>2022-12-27T12:07:37.703Z</time>
      </trkpt>
      <trkpt lat="44.62423" lon="-1.01128">
        <ele>56.046766</ele>
        <time>2022-12-27T12:07:40.711Z</time>
      </trkpt>
      <trkpt lat="44.62434" lon="-1.01128">
        <ele>56.024297</ele>
        <time>2022-12-27T12:07:43.707Z</time>
      </trkpt>
      <trkpt lat="44.62445" lon="-1.0113">
        <ele>56.001403</ele>
        <time>2022-12-27T12:07:46.706Z</time>
      </trkpt>
      <trkpt lat="44.62457" lon="-1.01129">
        <ele>55.977864</ele>
        <time>2022-12-27T12:07:49.706Z</time>
      </trkpt>
      <trkpt lat="44.62469" lon="-1.01127">
        <ele>55.954931</ele>
        <time>2022-12-27T12:07:52.710Z</time>
      </trkpt>
      <trkpt lat="44.62482" lon="-1.01127">
        <ele>55.929075</ele>
        <time>2022-12-27T12:07:55.721Z</time>
      </trkpt>
      <trkpt lat="44.62491" lon="-1.01127">
        <ele>55.909793</ele>
        <time>2022-12-27T12:07:57.714Z</time>
      </trkpt>
      <trkpt lat="44.625" lon="-1.01127">
        <ele>55.891901</ele>
        <time>2022-12-27T12:07:59.715Z</time>
      </trkpt>
      <trkpt lat="44.62512" lon="-1.01126">
        <ele>55.868628</ele>
        <time>2022-12-27T12:08:02.713Z</time>
      </trkpt>
      <trkpt lat="44.62524" lon="-1.01126">
        <ele>55.845549</ele>
        <time>2022-12-27T12:08:05.716Z</time>
      </trkpt>
      <trkpt lat="44.62536" lon="-1.01126">
        <ele>55.821695</ele>
        <time>2022-12-27T12:08:08.723Z</time>
      </trkpt>
      <trkpt lat="44.62547" lon="-1.01126">
        <ele>55.799034</ele>
        <time>2022-12-27T12:08:11.700Z</time>
      </trkpt>
      <trkpt lat="44.62556" lon="-1.01126">
        <ele>55.78113</ele>
        <time>2022-12-27T12:08:14.697Z</time>
      </trkpt>
      <trkpt lat="44.62565" lon="-1.01127">
        <ele>55.76222</ele>
        <time>2022-12-27T12:08:17.696Z</time>
      </trkpt>
      <trkpt lat="44.62577" lon="-1.01126">
        <ele>55.73992</ele>
        <time>2022-12-27T12:08:20.716Z</time>
      </trkpt>
      <trkpt lat="44.62589" lon="-1.01125">
        <ele>55.715246</ele>
        <time>2022-12-27T12:08:23.715Z</time>
      </trkpt>
      <trkpt lat="44.626" lon="-1.01125">
        <ele>55.687617</ele>
        <time>2022-12-27T12:08:26.712Z</time>
      </trkpt>
      <trkpt lat="44.62609" lon="-1.01124">
        <ele>55.60179</ele>
        <time>2022-12-27T12:08:29.713Z</time>
      </trkpt>
      <trkpt lat="44.6262" lon="-1.01124">
        <ele>55.506977</ele>
        <time>2022-12-27T12:08:32.703Z</time>
      </trkpt>
      <trkpt lat="44.6263" lon="-1.01123">
        <ele>55.407296</ele>
        <time>2022-12-27T12:08:35.701Z</time>
      </trkpt>
      <trkpt lat="44.62642" lon="-1.01123">
        <ele>55.303185</ele>
        <time>2022-12-27T12:08:38.711Z</time>
      </trkpt>
      <trkpt lat="44.62653" lon="-1.01123">
        <ele>55.194378</ele>
        <time>2022-12-27T12:08:41.698Z</time>
      </trkpt>
      <trkpt lat="44.62665" lon="-1.01122">
        <ele>55.08078</ele>
        <time>2022-12-27T12:08:44.693Z</time>
      </trkpt>
      <trkpt lat="44.62677" lon="-1.01122">
        <ele>54.973865</ele>
        <time>2022-12-27T12:08:47.694Z</time>
      </trkpt>
      <trkpt lat="44.62689" lon="-1.01121">
        <ele>54.862037</ele>
        <time>2022-12-27T12:08:50.694Z</time>
      </trkpt>
      <trkpt lat="44.62701" lon="-1.01121">
        <ele>54.749555</ele>
        <time>2022-12-27T12:08:53.720Z</time>
      </trkpt>
      <trkpt lat="44.62712" lon="-1.01122">
        <ele>54.645311</ele>
        <time>2022-12-27T12:08:56.727Z</time>
      </trkpt>
      <trkpt lat="44.62722" lon="-1.01123">
        <ele>54.551034</ele>
        <time>2022-12-27T12:08:59.716Z</time>
      </trkpt>
      <trkpt lat="44.62734" lon="-1.01122">
        <ele>54.441061</ele>
        <time>2022-12-27T12:09:02.714Z</time>
      </trkpt>
      <trkpt lat="44.62746" lon="-1.0112">
        <ele>54.331724</ele>
        <time>2022-12-27T12:09:05.713Z</time>
      </trkpt>
      <trkpt lat="44.62757" lon="-1.01116">
        <ele>54.227712</ele>
        <time>2022-12-27T12:09:08.699Z</time>
      </trkpt>
      <trkpt lat="44.62765" lon="-1.01108">
        <ele>54.135666</ele>
        <time>2022-12-27T12:09:11.692Z</time>
      </trkpt>
      <trkpt lat="44.62772" lon="-1.01099">
        <ele>54.045682</ele>
        <time>2022-12-27T12:09:15.701Z</time>
      </trkpt>
      <trkpt lat="44.62782" lon="-1.01091">
        <ele>54.057782</ele>
        <time>2022-12-27T12:09:20.700Z</time>
      </trkpt>
      <trkpt lat="44.62782" lon="-1.01076">
        <ele>54.102178</ele>
        <time>2022-12-27T12:09:25.696Z</time>
      </trkpt>
      <trkpt lat="44.62782" lon="-1.01061">
        <ele>54.142626</ele>
        <time>2022-12-27T12:09:38.718Z</time>
      </trkpt>
      <trkpt lat="44.62778" lon="-1.01048">
        <ele>54.183034</ele>
        <time>2022-12-27T12:09:43.702Z</time>
      </trkpt>
      <trkpt lat="44.62774" lon="-1.01036">
        <ele>54.220427</ele>
        <time>2022-12-27T12:09:46.699Z</time>
      </trkpt>
      <trkpt lat="44.62769" lon="-1.01022">
        <ele>54.265903</ele>
        <time>2022-12-27T12:09:49.701Z</time>
      </trkpt>
      <trkpt lat="44.62765" lon="-1.01007">
        <ele>54.311466</ele>
        <time>2022-12-27T12:09:52.700Z</time>
      </trkpt>
      <trkpt lat="44.62759" lon="-1.00992">
        <ele>54.359148</ele>
        <time>2022-12-27T12:09:55.707Z</time>
      </trkpt>
      <trkpt lat="44.62754" lon="-1.00977">
        <ele>54.405639</ele>
        <time>2022-12-27T12:09:58.698Z</time>
      </trkpt>
      <trkpt lat="44.62749" lon="-1.00962">
        <ele>54.453577</ele>
        <time>2022-12-27T12:10:01.698Z</time>
      </trkpt>
      <trkpt lat="44.62743" lon="-1.00945">
        <ele>54.505432</ele>
        <time>2022-12-27T12:10:04.716Z</time>
      </trkpt>
      <trkpt lat="44.62738" lon="-1.0093">
        <ele>54.554632</ele>
        <time>2022-12-27T12:10:07.712Z</time>
      </trkpt>
      <trkpt lat="44.62732" lon="-1.00914">
        <ele>54.60427</ele>
        <time>2022-12-27T12:10:10.711Z</time>
      </trkpt>
      <trkpt lat="44.62726" lon="-1.00898">
        <ele>54.654167</ele>
        <time>2022-12-27T12:10:13.710Z</time>
      </trkpt>
      <trkpt lat="44.62721" lon="-1.00881">
        <ele>54.707131</ele>
        <time>2022-12-27T12:10:16.708Z</time>
      </trkpt>
      <trkpt lat="44.62715" lon="-1.00865">
        <ele>54.733023</ele>
        <time>2022-12-27T12:10:19.699Z</time>
      </trkpt>
      <trkpt lat="44.6271" lon="-1.00848">
        <ele>54.723103</ele>
        <time>2022-12-27T12:10:22.702Z</time>
      </trkpt>
      <trkpt lat="44.62705" lon="-1.00829">
        <ele>54.712838</ele>
        <time>2022-12-27T12:10:25.695Z</time>
      </trkpt>
      <trkpt lat="44.62701" lon="-1.00818">
        <ele>54.70597</ele>
        <time>2022-12-27T12:10:27.711Z</time>
      </trkpt>
      <trkpt lat="44.62699" lon="-1.00805">
        <ele>54.698971</ele>
        <time>2022-12-27T12:10:29.708Z</time>
      </trkpt>
      <trkpt lat="44.62695" lon="-1.00793">
        <ele>54.691813</ele>
        <time>2022-12-27T12:10:31.694Z</time>
      </trkpt>
      <trkpt lat="44.6269" lon="-1.00776">
        <ele>54.682011</ele>
        <time>2022-12-27T12:10:34.695Z</time>
      </trkpt>
      <trkpt lat="44.62686" lon="-1.00762">
        <ele>54.674617</ele>
        <time>2022-12-27T12:10:36.715Z</time>
      </trkpt>
      <trkpt lat="44.62681" lon="-1.00743">
        <ele>54.663627</ele>
        <time>2022-12-27T12:10:39.708Z</time>
      </trkpt>
      <trkpt lat="44.62677" lon="-1.00728">
        <ele>54.655064</ele>
        <time>2022-12-27T12:10:41.704Z</time>
      </trkpt>
      <trkpt lat="44.62674" lon="-1.00715">
        <ele>54.647721</ele>
        <time>2022-12-27T12:10:43.711Z</time>
      </trkpt>
      <trkpt lat="44.6267" lon="-1.00703">
        <ele>54.640902</ele>
        <time>2022-12-27T12:10:45.720Z</time>
      </trkpt>
      <trkpt lat="44.62666" lon="-1.00691">
        <ele>54.633792</ele>
        <time>2022-12-27T12:10:47.711Z</time>
      </trkpt>
      <trkpt lat="44.62662" lon="-1.00679">
        <ele>54.626766</ele>
        <time>2022-12-27T12:10:49.722Z</time>
      </trkpt>
      <trkpt lat="44.62657" lon="-1.00662">
        <ele>54.617057</ele>
        <time>2022-12-27T12:10:52.712Z</time>
      </trkpt>
      <trkpt lat="44.62652" lon="-1.00646">
        <ele>54.60743</ele>
        <time>2022-12-27T12:10:55.718Z</time>
      </trkpt>
      <trkpt lat="44.62646" lon="-1.0063">
        <ele>54.61387</ele>
        <time>2022-12-27T12:10:58.701Z</time>
      </trkpt>
      <trkpt lat="44.62644" lon="-1.00617">
        <ele>54.629842</ele>
        <time>2022-12-27T12:11:00.713Z</time>
      </trkpt>
      <trkpt lat="44.6264" lon="-1.00605">
        <ele>54.645659</ele>
        <time>2022-12-27T12:11:02.716Z</time>
      </trkpt>
      <trkpt lat="44.62635" lon="-1.00588">
        <ele>54.667183</ele>
        <time>2022-12-27T12:11:05.716Z</time>
      </trkpt>
      <trkpt lat="44.6263" lon="-1.00572">
        <ele>54.688838</ele>
        <time>2022-12-27T12:11:08.719Z</time>
      </trkpt>
      <trkpt lat="44.62626" lon="-1.00559">
        <ele>54.705555</ele>
        <time>2022-12-27T12:11:10.719Z</time>
      </trkpt>
      <trkpt lat="44.62622" lon="-1.00545">
        <ele>54.722933</ele>
        <time>2022-12-27T12:11:12.725Z</time>
      </trkpt>
      <trkpt lat="44.62618" lon="-1.00532">
        <ele>54.739917</ele>
        <time>2022-12-27T12:11:14.714Z</time>
      </trkpt>
      <trkpt lat="44.62614" lon="-1.00518">
        <ele>54.757789</ele>
        <time>2022-12-27T12:11:16.715Z</time>
      </trkpt>
      <trkpt lat="44.62611" lon="-1.00505">
        <ele>54.774421</ele>
        <time>2022-12-27T12:11:18.711Z</time>
      </trkpt>
      <trkpt lat="44.62608" lon="-1.00493">
        <ele>54.789559</ele>
        <time>2022-12-27T12:11:20.713Z</time>
      </trkpt>
      <trkpt lat="44.62603" lon="-1.0048">
        <ele>54.806406</ele>
        <time>2022-12-27T12:11:22.715Z</time>
      </trkpt>
      <trkpt lat="44.626" lon="-1.00467">
        <ele>54.823279</ele>
        <time>2022-12-27T12:11:24.712Z</time>
      </trkpt>
      <trkpt lat="44.62596" lon="-1.00454">
        <ele>54.840364</ele>
        <time>2022-12-27T12:11:26.706Z</time>
      </trkpt>
      <trkpt lat="44.62593" lon="-1.00442">
        <ele>54.855647</ele>
        <time>2022-12-27T12:11:28.715Z</time>
      </trkpt>
      <trkpt lat="44.6259" lon="-1.00429">
        <ele>54.872114</ele>
        <time>2022-12-27T12:11:30.707Z</time>
      </trkpt>
      <trkpt lat="44.62587" lon="-1.00416">
        <ele>54.887581</ele>
        <time>2022-12-27T12:11:32.718Z</time>
      </trkpt>
      <trkpt lat="44.62584" lon="-1.00403">
        <ele>54.903717</ele>
        <time>2022-12-27T12:11:34.714Z</time>
      </trkpt>
      <trkpt lat="44.62583" lon="-1.0039">
        <ele>54.818835</ele>
        <time>2022-12-27T12:11:36.711Z</time>
      </trkpt>
      <trkpt lat="44.6258" lon="-1.00375">
        <ele>54.726744</ele>
        <time>2022-12-27T12:11:38.711Z</time>
      </trkpt>
      <trkpt lat="44.62579" lon="-1.00361">
        <ele>54.634717</ele>
        <time>2022-12-27T12:11:40.699Z</time>
      </trkpt>
      <trkpt lat="44.62579" lon="-1.00348">
        <ele>54.549391</ele>
        <time>2022-12-27T12:11:42.715Z</time>
      </trkpt>
      <trkpt lat="44.62579" lon="-1.00333">
        <ele>54.45386</ele>
        <time>2022-12-27T12:11:44.702Z</time>
      </trkpt>
      <trkpt lat="44.62579" lon="-1.00318">
        <ele>54.358852</ele>
        <time>2022-12-27T12:11:46.711Z</time>
      </trkpt>
      <trkpt lat="44.6258" lon="-1.00303">
        <ele>54.2676</ele>
        <time>2022-12-27T12:11:48.698Z</time>
      </trkpt>
      <trkpt lat="44.62582" lon="-1.00291">
        <ele>54.18641</ele>
        <time>2022-12-27T12:11:50.712Z</time>
      </trkpt>
      <trkpt lat="44.62583" lon="-1.00277">
        <ele>54.097469</ele>
        <time>2022-12-27T12:11:52.712Z</time>
      </trkpt>
      <trkpt lat="44.62585" lon="-1.00264">
        <ele>54.013322</ele>
        <time>2022-12-27T12:11:54.705Z</time>
      </trkpt>
      <trkpt lat="44.62585" lon="-1.0025">
        <ele>53.926447</ele>
        <time>2022-12-27T12:11:56.712Z</time>
      </trkpt>
      <trkpt lat="44.62586" lon="-1.00237">
        <ele>53.839115</ele>
        <time>2022-12-27T12:11:58.727Z</time>
      </trkpt>
      <trkpt lat="44.62588" lon="-1.00218">
        <ele>53.715165</ele>
        <time>2022-12-27T12:12:01.696Z</time>
      </trkpt>
      <trkpt lat="44.6259" lon="-1.00205">
        <ele>53.63317</ele>
        <time>2022-12-27T12:12:03.720Z</time>
      </trkpt>
      <trkpt lat="44.62592" lon="-1.0019">
        <ele>53.538786</ele>
        <time>2022-12-27T12:12:05.715Z</time>
      </trkpt>
      <trkpt lat="44.62594" lon="-1.00175">
        <ele>53.442587</ele>
        <time>2022-12-27T12:12:07.714Z</time>
      </trkpt>
      <trkpt lat="44.62595" lon="-1.0016">
        <ele>53.344852</ele>
        <time>2022-12-27T12:12:09.719Z</time>
      </trkpt>
      <trkpt lat="44.62596" lon="-1.00145">
        <ele>53.245801</ele>
        <time>2022-12-27T12:12:11.709Z</time>
      </trkpt>
      <trkpt lat="44.62597" lon="-1.00129">
        <ele>53.143236</ele>
        <time>2022-12-27T12:12:13.721Z</time>
      </trkpt>
      <trkpt lat="44.62598" lon="-1.00114">
        <ele>53.040584</ele>
        <time>2022-12-27T12:12:15.724Z</time>
      </trkpt>
      <trkpt lat="44.626" lon="-1.001">
        <ele>52.944402</ele>
        <time>2022-12-27T12:12:17.707Z</time>
      </trkpt>
      <trkpt lat="44.62603" lon="-1.00088">
        <ele>52.859963</ele>
        <time>2022-12-27T12:12:19.698Z</time>
      </trkpt>
      <trkpt lat="44.62609" lon="-1.00075">
        <ele>52.760659</ele>
        <time>2022-12-27T12:12:22.719Z</time>
      </trkpt>
      <trkpt lat="44.62613" lon="-1.00057">
        <ele>52.640201</ele>
        <time>2022-12-27T12:12:25.705Z</time>
      </trkpt>
      <trkpt lat="44.62616" lon="-1.00039">
        <ele>52.514688</ele>
        <time>2022-12-27T12:12:28.693Z</time>
      </trkpt>
      <trkpt lat="44.62621" lon="-1.00026">
        <ele>52.422962</ele>
        <time>2022-12-27T12:12:30.721Z</time>
      </trkpt>
      <trkpt lat="44.62629" lon="-1.00013">
        <ele>52.305029</ele>
        <time>2022-12-27T12:12:33.701Z</time>
      </trkpt>
      <trkpt lat="44.62637" lon="-0.99998">
        <ele>52.186889</ele>
        <time>2022-12-27T12:12:36.704Z</time>
      </trkpt>
      <trkpt lat="44.62641" lon="-0.99986">
        <ele>52.099565</ele>
        <time>2022-12-27T12:12:38.700Z</time>
      </trkpt>
      <trkpt lat="44.62644" lon="-0.99974">
        <ele>52.009131</ele>
        <time>2022-12-27T12:12:40.713Z</time>
      </trkpt>
      <trkpt lat="44.62649" lon="-0.99962">
        <ele>51.917959</ele>
        <time>2022-12-27T12:12:42.713Z</time>
      </trkpt>
      <trkpt lat="44.62654" lon="-0.9995">
        <ele>51.827696</ele>
        <time>2022-12-27T12:12:44.705Z</time>
      </trkpt>
      <trkpt lat="44.62656" lon="-0.99936">
        <ele>51.733854</ele>
        <time>2022-12-27T12:12:47.704Z</time>
      </trkpt>
      <trkpt lat="44.62656" lon="-0.9992">
        <ele>51.632474</ele>
        <time>2022-12-27T12:12:51.696Z</time>
      </trkpt>
      <trkpt lat="44.62654" lon="-0.99908">
        <ele>51.781775</ele>
        <time>2022-12-27T12:12:54.715Z</time>
      </trkpt>
      <trkpt lat="44.62648" lon="-0.99896">
        <ele>51.947854</ele>
        <time>2022-12-27T12:12:57.695Z</time>
      </trkpt>
      <trkpt lat="44.62639" lon="-0.99885">
        <ele>52.149528</ele>
        <time>2022-12-27T12:13:00.704Z</time>
      </trkpt>
      <trkpt lat="44.62634" lon="-0.9987">
        <ele>52.336841</ele>
        <time>2022-12-27T12:13:03.697Z</time>
      </trkpt>
      <trkpt lat="44.62632" lon="-0.99854">
        <ele>52.530225</ele>
        <time>2022-12-27T12:13:06.710Z</time>
      </trkpt>
      <trkpt lat="44.62631" lon="-0.99838">
        <ele>52.723916</ele>
        <time>2022-12-27T12:13:09.711Z</time>
      </trkpt>
      <trkpt lat="44.62632" lon="-0.99822">
        <ele>52.919574</ele>
        <time>2022-12-27T12:13:12.700Z</time>
      </trkpt>
      <trkpt lat="44.62633" lon="-0.99805">
        <ele>53.112084</ele>
        <time>2022-12-27T12:13:15.715Z</time>
      </trkpt>
      <trkpt lat="44.62634" lon="-0.99792">
        <ele>53.277441</ele>
        <time>2022-12-27T12:13:18.709Z</time>
      </trkpt>
      <trkpt lat="44.62635" lon="-0.99778">
        <ele>53.442958</ele>
        <time>2022-12-27T12:13:21.694Z</time>
      </trkpt>
      <trkpt lat="44.62636" lon="-0.99763">
        <ele>53.615716</ele>
        <time>2022-12-27T12:13:24.715Z</time>
      </trkpt>
      <trkpt lat="44.62636" lon="-0.99747">
        <ele>53.809006</ele>
        <time>2022-12-27T12:13:27.727Z</time>
      </trkpt>
      <trkpt lat="44.62638" lon="-0.9973">
        <ele>54.015688</ele>
        <time>2022-12-27T12:13:30.711Z</time>
      </trkpt>
      <trkpt lat="44.62639" lon="-0.99712">
        <ele>54.226182</ele>
        <time>2022-12-27T12:13:33.703Z</time>
      </trkpt>
      <trkpt lat="44.62641" lon="-0.99694">
        <ele>54.441766</ele>
        <time>2022-12-27T12:13:36.725Z</time>
      </trkpt>
      <trkpt lat="44.62643" lon="-0.99676">
        <ele>54.615562</ele>
        <time>2022-12-27T12:13:39.721Z</time>
      </trkpt>
      <trkpt lat="44.62644" lon="-0.99661">
        <ele>54.562892</ele>
        <time>2022-12-27T12:13:42.721Z</time>
      </trkpt>
      <trkpt lat="44.62646" lon="-0.99645">
        <ele>54.505741</ele>
        <time>2022-12-27T12:13:46.710Z</time>
      </trkpt>
      <trkpt lat="44.62648" lon="-0.99632">
        <ele>54.456978</ele>
        <time>2022-12-27T12:13:49.712Z</time>
      </trkpt>
      <trkpt lat="44.62649" lon="-0.99616">
        <ele>54.40234</ele>
        <time>2022-12-27T12:13:52.719Z</time>
      </trkpt>
      <trkpt lat="44.62651" lon="-0.996">
        <ele>54.345189</ele>
        <time>2022-12-27T12:13:55.715Z</time>
      </trkpt>
      <trkpt lat="44.62653" lon="-0.99584">
        <ele>54.28645</ele>
        <time>2022-12-27T12:13:58.716Z</time>
      </trkpt>
      <trkpt lat="44.62654" lon="-0.99567">
        <ele>54.226593</ele>
        <time>2022-12-27T12:14:01.702Z</time>
      </trkpt>
      <trkpt lat="44.62656" lon="-0.99548">
        <ele>54.159061</ele>
        <time>2022-12-27T12:14:04.719Z</time>
      </trkpt>
      <trkpt lat="44.62658" lon="-0.99529">
        <ele>54.091529</ele>
        <time>2022-12-27T12:14:07.691Z</time>
      </trkpt>
      <trkpt lat="44.62659" lon="-0.99516">
        <ele>54.046392</ele>
        <time>2022-12-27T12:14:09.700Z</time>
      </trkpt>
      <trkpt lat="44.6266" lon="-0.99503">
        <ele>53.999918</ele>
        <time>2022-12-27T12:14:11.707Z</time>
      </trkpt>
      <trkpt lat="44.62662" lon="-0.9949">
        <ele>53.952126</ele>
        <time>2022-12-27T12:14:13.724Z</time>
      </trkpt>
      <trkpt lat="44.62663" lon="-0.99471">
        <ele>53.884922</ele>
        <time>2022-12-27T12:14:16.693Z</time>
      </trkpt>
      <trkpt lat="44.62665" lon="-0.99453">
        <ele>53.82241</ele>
        <time>2022-12-27T12:14:19.693Z</time>
      </trkpt>
      <trkpt lat="44.62666" lon="-0.9944">
        <ele>53.77601</ele>
        <time>2022-12-27T12:14:22.717Z</time>
      </trkpt>
      <trkpt lat="44.62667" lon="-0.99421">
        <ele>53.749662</ele>
        <time>2022-12-27T12:14:46.713Z</time>
      </trkpt>
      <trkpt lat="44.62669" lon="-0.99405">
        <ele>53.78179</ele>
        <time>2022-12-27T12:14:49.714Z</time>
      </trkpt>
      <trkpt lat="44.6267" lon="-0.99388">
        <ele>53.817674</ele>
        <time>2022-12-27T12:14:52.722Z</time>
      </trkpt>
      <trkpt lat="44.62672" lon="-0.9937">
        <ele>53.856852</ele>
        <time>2022-12-27T12:14:55.711Z</time>
      </trkpt>
      <trkpt lat="44.62674" lon="-0.99356">
        <ele>53.88515</ele>
        <time>2022-12-27T12:14:57.718Z</time>
      </trkpt>
      <trkpt lat="44.62675" lon="-0.99342">
        <ele>53.914485</ele>
        <time>2022-12-27T12:14:59.715Z</time>
      </trkpt>
      <trkpt lat="44.62677" lon="-0.99328">
        <ele>53.943964</ele>
        <time>2022-12-27T12:15:01.701Z</time>
      </trkpt>
      <trkpt lat="44.62679" lon="-0.99314">
        <ele>53.974701</ele>
        <time>2022-12-27T12:15:03.722Z</time>
      </trkpt>
      <trkpt lat="44.62681" lon="-0.99301">
        <ele>54.003681</ele>
        <time>2022-12-27T12:15:05.713Z</time>
      </trkpt>
      <trkpt lat="44.62684" lon="-0.99286">
        <ele>54.034356</ele>
        <time>2022-12-27T12:15:07.722Z</time>
      </trkpt>
      <trkpt lat="44.62687" lon="-0.99271">
        <ele>54.066606</ele>
        <time>2022-12-27T12:15:09.719Z</time>
      </trkpt>
      <trkpt lat="44.62691" lon="-0.99257">
        <ele>54.099211</ele>
        <time>2022-12-27T12:15:11.693Z</time>
      </trkpt>
      <trkpt lat="44.62695" lon="-0.99244">
        <ele>54.128096</ele>
        <time>2022-12-27T12:15:13.719Z</time>
      </trkpt>
      <trkpt lat="44.62699" lon="-0.9923">
        <ele>54.160089</ele>
        <time>2022-12-27T12:15:15.714Z</time>
      </trkpt>
      <trkpt lat="44.62704" lon="-0.99216">
        <ele>54.192517</ele>
        <time>2022-12-27T12:15:17.726Z</time>
      </trkpt>
      <trkpt lat="44.62709" lon="-0.99204">
        <ele>54.221754</ele>
        <time>2022-12-27T12:15:19.710Z</time>
      </trkpt>
      <trkpt lat="44.62715" lon="-0.99192">
        <ele>54.250448</ele>
        <time>2022-12-27T12:15:21.696Z</time>
      </trkpt>
      <trkpt lat="44.6272" lon="-0.99181">
        <ele>54.253509</ele>
        <time>2022-12-27T12:15:23.695Z</time>
      </trkpt>
      <trkpt lat="44.62726" lon="-0.9917">
        <ele>54.243747</ele>
        <time>2022-12-27T12:15:25.697Z</time>
      </trkpt>
      <trkpt lat="44.62732" lon="-0.99158">
        <ele>54.233756</ele>
        <time>2022-12-27T12:15:27.696Z</time>
      </trkpt>
      <trkpt lat="44.62738" lon="-0.99145">
        <ele>54.223069</ele>
        <time>2022-12-27T12:15:29.698Z</time>
      </trkpt>
      <trkpt lat="44.62743" lon="-0.99133">
        <ele>54.21284</ele>
        <time>2022-12-27T12:15:31.697Z</time>
      </trkpt>
      <trkpt lat="44.6275" lon="-0.99121">
        <ele>54.201986</ele>
        <time>2022-12-27T12:15:33.720Z</time>
      </trkpt>
      <trkpt lat="44.62756" lon="-0.99107">
        <ele>54.190771</ele>
        <time>2022-12-27T12:15:35.718Z</time>
      </trkpt>
      <trkpt lat="44.62762" lon="-0.99094">
        <ele>54.179632</ele>
        <time>2022-12-27T12:15:37.713Z</time>
      </trkpt>
      <trkpt lat="44.62768" lon="-0.99082">
        <ele>54.16895</ele>
        <time>2022-12-27T12:15:39.716Z</time>
      </trkpt>
      <trkpt lat="44.62774" lon="-0.9907">
        <ele>54.158833</ele>
        <time>2022-12-27T12:15:41.696Z</time>
      </trkpt>
      <trkpt lat="44.62779" lon="-0.99058">
        <ele>54.149238</ele>
        <time>2022-12-27T12:15:43.713Z</time>
      </trkpt>
      <trkpt lat="44.62785" lon="-0.99047">
        <ele>54.139708</ele>
        <time>2022-12-27T12:15:45.711Z</time>
      </trkpt>
      <trkpt lat="44.62789" lon="-0.99036">
        <ele>54.130707</ele>
        <time>2022-12-27T12:15:47.704Z</time>
      </trkpt>
      <trkpt lat="44.62794" lon="-0.99024">
        <ele>54.120928</ele>
        <time>2022-12-27T12:15:49.715Z</time>
      </trkpt>
      <trkpt lat="44.628" lon="-0.99011">
        <ele>54.110392</ele>
        <time>2022-12-27T12:15:51.694Z</time>
      </trkpt>
      <trkpt lat="44.62805" lon="-0.98999">
        <ele>54.100544</ele>
        <time>2022-12-27T12:15:53.702Z</time>
      </trkpt>
      <trkpt lat="44.6281" lon="-0.98987">
        <ele>54.090532</ele>
        <time>2022-12-27T12:15:55.722Z</time>
      </trkpt>
      <trkpt lat="44.62816" lon="-0.98976">
        <ele>54.076312</ele>
        <time>2022-12-27T12:15:57.722Z</time>
      </trkpt>
      <trkpt lat="44.62821" lon="-0.98963">
        <ele>54.035404</ele>
        <time>2022-12-27T12:15:59.703Z</time>
      </trkpt>
      <trkpt lat="44.62826" lon="-0.98951">
        <ele>53.995835</ele>
        <time>2022-12-27T12:16:01.694Z</time>
      </trkpt>
      <trkpt lat="44.62832" lon="-0.98939">
        <ele>53.954905</ele>
        <time>2022-12-27T12:16:03.691Z</time>
      </trkpt>
      <trkpt lat="44.62838" lon="-0.98927">
        <ele>53.914867</ele>
        <time>2022-12-27T12:16:05.696Z</time>
      </trkpt>
      <trkpt lat="44.62843" lon="-0.98915">
        <ele>53.875275</ele>
        <time>2022-12-27T12:16:07.710Z</time>
      </trkpt>
      <trkpt lat="44.62849" lon="-0.98902">
        <ele>53.832514</ele>
        <time>2022-12-27T12:16:09.704Z</time>
      </trkpt>
      <trkpt lat="44.62854" lon="-0.98888">
        <ele>53.790441</ele>
        <time>2022-12-27T12:16:11.697Z</time>
      </trkpt>
      <trkpt lat="44.6286" lon="-0.98876">
        <ele>53.748099</ele>
        <time>2022-12-27T12:16:13.726Z</time>
      </trkpt>
      <trkpt lat="44.62866" lon="-0.98863">
        <ele>53.704476</ele>
        <time>2022-12-27T12:16:15.717Z</time>
      </trkpt>
      <trkpt lat="44.62871" lon="-0.9885">
        <ele>53.664436</ele>
        <time>2022-12-27T12:16:17.702Z</time>
      </trkpt>
      <trkpt lat="44.62878" lon="-0.98838">
        <ele>53.622177</ele>
        <time>2022-12-27T12:16:19.700Z</time>
      </trkpt>
      <trkpt lat="44.62884" lon="-0.98824">
        <ele>53.576029</ele>
        <time>2022-12-27T12:16:21.695Z</time>
      </trkpt>
      <trkpt lat="44.6289" lon="-0.98812">
        <ele>53.533988</ele>
        <time>2022-12-27T12:16:23.700Z</time>
      </trkpt>
      <trkpt lat="44.62896" lon="-0.988">
        <ele>53.494533</ele>
        <time>2022-12-27T12:16:25.725Z</time>
      </trkpt>
      <trkpt lat="44.629" lon="-0.98788">
        <ele>53.456337</ele>
        <time>2022-12-27T12:16:27.699Z</time>
      </trkpt>
      <trkpt lat="44.62905" lon="-0.98776">
        <ele>53.418077</ele>
        <time>2022-12-27T12:16:29.692Z</time>
      </trkpt>
      <trkpt lat="44.62911" lon="-0.98765">
        <ele>53.380132</ele>
        <time>2022-12-27T12:16:31.694Z</time>
      </trkpt>
      <trkpt lat="44.62916" lon="-0.98753">
        <ele>53.370932</ele>
        <time>2022-12-27T12:16:33.720Z</time>
      </trkpt>
      <trkpt lat="44.62921" lon="-0.98742">
        <ele>53.364393</ele>
        <time>2022-12-27T12:16:35.704Z</time>
      </trkpt>
      <trkpt lat="44.62928" lon="-0.98726">
        <ele>53.354887</ele>
        <time>2022-12-27T12:16:38.701Z</time>
      </trkpt>
      <trkpt lat="44.62933" lon="-0.98714">
        <ele>53.347998</ele>
        <time>2022-12-27T12:16:40.714Z</time>
      </trkpt>
      <trkpt lat="44.62938" lon="-0.98704">
        <ele>53.341536</ele>
        <time>2022-12-27T12:16:42.723Z</time>
      </trkpt>
      <trkpt lat="44.62943" lon="-0.98692">
        <ele>53.334777</ele>
        <time>2022-12-27T12:16:44.703Z</time>
      </trkpt>
      <trkpt lat="44.6295" lon="-0.98678">
        <ele>53.326233</ele>
        <time>2022-12-27T12:16:47.713Z</time>
      </trkpt>
      <trkpt lat="44.62955" lon="-0.98666">
        <ele>53.31907</ele>
        <time>2022-12-27T12:16:50.697Z</time>
      </trkpt>
      <trkpt lat="44.6296" lon="-0.98655">
        <ele>53.312362</ele>
        <time>2022-12-27T12:16:53.697Z</time>
      </trkpt>
      <trkpt lat="44.62965" lon="-0.98642">
        <ele>53.305194</ele>
        <time>2022-12-27T12:16:56.699Z</time>
      </trkpt>
      <trkpt lat="44.62971" lon="-0.98631">
        <ele>53.298082</ele>
        <time>2022-12-27T12:16:59.711Z</time>
      </trkpt>
      <trkpt lat="44.62977" lon="-0.98617">
        <ele>53.289842</ele>
        <time>2022-12-27T12:17:02.716Z</time>
      </trkpt>
      <trkpt lat="44.62984" lon="-0.98601">
        <ele>53.280629</ele>
        <time>2022-12-27T12:17:05.694Z</time>
      </trkpt>
      <trkpt lat="44.6299" lon="-0.9859">
        <ele>53.273682</ele>
        <time>2022-12-27T12:17:07.721Z</time>
      </trkpt>
      <trkpt lat="44.62995" lon="-0.98578">
        <ele>53.266923</ele>
        <time>2022-12-27T12:17:09.726Z</time>
      </trkpt>
      <trkpt lat="44.63001" lon="-0.98567">
        <ele>53.260178</ele>
        <time>2022-12-27T12:17:11.703Z</time>
      </trkpt>
      <trkpt lat="44.63006" lon="-0.98555">
        <ele>53.252765</ele>
        <time>2022-12-27T12:17:13.725Z</time>
      </trkpt>
      <trkpt lat="44.63012" lon="-0.98542">
        <ele>53.225602</ele>
        <time>2022-12-27T12:17:15.725Z</time>
      </trkpt>
      <trkpt lat="44.63018" lon="-0.9853">
        <ele>53.188776</ele>
        <time>2022-12-27T12:17:17.722Z</time>
      </trkpt>
      <trkpt lat="44.63024" lon="-0.98517">
        <ele>53.152138</ele>
        <time>2022-12-27T12:17:19.713Z</time>
      </trkpt>
      <trkpt lat="44.63031" lon="-0.98504">
        <ele>53.115507</ele>
        <time>2022-12-27T12:17:21.695Z</time>
      </trkpt>
      <trkpt lat="44.63036" lon="-0.98491">
        <ele>53.080381</ele>
        <time>2022-12-27T12:17:23.724Z</time>
      </trkpt>
      <trkpt lat="44.63041" lon="-0.98479">
        <ele>53.045607</ele>
        <time>2022-12-27T12:17:25.725Z</time>
      </trkpt>
      <trkpt lat="44.63046" lon="-0.98467">
        <ele>53.013516</ele>
        <time>2022-12-27T12:17:27.712Z</time>
      </trkpt>
      <trkpt lat="44.63052" lon="-0.98456">
        <ele>52.981512</ele>
        <time>2022-12-27T12:17:29.714Z</time>
      </trkpt>
      <trkpt lat="44.63057" lon="-0.98445">
        <ele>52.950645</ele>
        <time>2022-12-27T12:17:31.695Z</time>
      </trkpt>
      <trkpt lat="44.63062" lon="-0.98434">
        <ele>52.920158</ele>
        <time>2022-12-27T12:17:33.714Z</time>
      </trkpt>
      <trkpt lat="44.63067" lon="-0.98422">
        <ele>52.888202</ele>
        <time>2022-12-27T12:17:35.698Z</time>
      </trkpt>
      <trkpt lat="44.63072" lon="-0.98411">
        <ele>52.854825</ele>
        <time>2022-12-27T12:17:37.715Z</time>
      </trkpt>
      <trkpt lat="44.63078" lon="-0.98398">
        <ele>52.820452</ele>
        <time>2022-12-27T12:17:39.697Z</time>
      </trkpt>
      <trkpt lat="44.63083" lon="-0.98386">
        <ele>52.785701</ele>
        <time>2022-12-27T12:17:41.690Z</time>
      </trkpt>
      <trkpt lat="44.63089" lon="-0.98374">
        <ele>52.751328</ele>
        <time>2022-12-27T12:17:43.697Z</time>
      </trkpt>
      <trkpt lat="44.63094" lon="-0.98361">
        <ele>52.717102</ele>
        <time>2022-12-27T12:17:45.698Z</time>
      </trkpt>
      <trkpt lat="44.63099" lon="-0.98349">
        <ele>52.68426</ele>
        <time>2022-12-27T12:17:47.699Z</time>
      </trkpt>
      <trkpt lat="44.63105" lon="-0.98339">
        <ele>52.654185</ele>
        <time>2022-12-27T12:17:49.699Z</time>
      </trkpt>
      <trkpt lat="44.63111" lon="-0.9833">
        <ele>52.726262</ele>
        <time>2022-12-27T12:17:51.697Z</time>
      </trkpt>
      <trkpt lat="44.63118" lon="-0.98315">
        <ele>52.831035</ele>
        <time>2022-12-27T12:17:54.707Z</time>
      </trkpt>
      <trkpt lat="44.63121" lon="-0.983">
        <ele>52.928537</ele>
        <time>2022-12-27T12:17:57.726Z</time>
      </trkpt>
      <trkpt lat="44.63127" lon="-0.98285">
        <ele>53.031236</ele>
        <time>2022-12-27T12:18:00.690Z</time>
      </trkpt>
      <trkpt lat="44.63133" lon="-0.9827">
        <ele>53.136886</ele>
        <time>2022-12-27T12:18:03.724Z</time>
      </trkpt>
      <trkpt lat="44.6314" lon="-0.98255">
        <ele>53.246205</ele>
        <time>2022-12-27T12:18:06.727Z</time>
      </trkpt>
      <trkpt lat="44.63146" lon="-0.98239">
        <ele>53.358107</ele>
        <time>2022-12-27T12:18:09.705Z</time>
      </trkpt>
      <trkpt lat="44.63151" lon="-0.98227">
        <ele>53.440902</ele>
        <time>2022-12-27T12:18:11.690Z</time>
      </trkpt>
      <trkpt lat="44.63159" lon="-0.98211">
        <ele>53.558131</ele>
        <time>2022-12-27T12:18:14.711Z</time>
      </trkpt>
      <trkpt lat="44.63165" lon="-0.98194">
        <ele>53.675159</ele>
        <time>2022-12-27T12:18:17.718Z</time>
      </trkpt>
      <trkpt lat="44.63171" lon="-0.98183">
        <ele>53.755229</ele>
        <time>2022-12-27T12:18:19.715Z</time>
      </trkpt>
      <trkpt lat="44.63177" lon="-0.98167">
        <ele>53.865736</ele>
        <time>2022-12-27T12:18:22.710Z</time>
      </trkpt>
      <trkpt lat="44.63184" lon="-0.98153">
        <ele>53.968484</ele>
        <time>2022-12-27T12:18:25.713Z</time>
      </trkpt>
      <trkpt lat="44.63191" lon="-0.98138">
        <ele>54.078611</ele>
        <time>2022-12-27T12:18:28.719Z</time>
      </trkpt>
      <trkpt lat="44.63198" lon="-0.98123">
        <ele>54.18636</ele>
        <time>2022-12-27T12:18:31.695Z</time>
      </trkpt>
      <trkpt lat="44.63205" lon="-0.98109">
        <ele>54.252554</ele>
        <time>2022-12-27T12:18:34.766Z</time>
      </trkpt>
      <trkpt lat="44.63212" lon="-0.98095">
        <ele>54.32104</ele>
        <time>2022-12-27T12:18:37.707Z</time>
      </trkpt>
      <trkpt lat="44.63218" lon="-0.98081">
        <ele>54.385654</ele>
        <time>2022-12-27T12:18:40.704Z</time>
      </trkpt>
      <trkpt lat="44.63224" lon="-0.98068">
        <ele>54.44752</ele>
        <time>2022-12-27T12:18:43.694Z</time>
      </trkpt>
      <trkpt lat="44.63231" lon="-0.98055">
        <ele>54.511457</ele>
        <time>2022-12-27T12:18:46.718Z</time>
      </trkpt>
      <trkpt lat="44.63237" lon="-0.98041">
        <ele>54.579034</ele>
        <time>2022-12-27T12:18:49.720Z</time>
      </trkpt>
      <trkpt lat="44.63243" lon="-0.98026">
        <ele>54.647092</ele>
        <time>2022-12-27T12:18:52.720Z</time>
      </trkpt>
      <trkpt lat="44.6325" lon="-0.98011">
        <ele>54.716115</ele>
        <time>2022-12-27T12:18:55.724Z</time>
      </trkpt>
      <trkpt lat="44.63256" lon="-0.97997">
        <ele>54.780708</ele>
        <time>2022-12-27T12:18:58.717Z</time>
      </trkpt>
      <trkpt lat="44.63263" lon="-0.97987">
        <ele>54.836524</ele>
        <time>2022-12-27T12:19:01.697Z</time>
      </trkpt>
      <trkpt lat="44.63272" lon="-0.97977">
        <ele>54.898734</ele>
        <time>2022-12-27T12:19:05.695Z</time>
      </trkpt>
      <trkpt lat="44.63278" lon="-0.97966">
        <ele>54.957631</ele>
        <time>2022-12-27T12:19:10.694Z</time>
      </trkpt>
      <trkpt lat="44.63279" lon="-0.97951">
        <ele>55.016206</ele>
        <time>2022-12-27T12:19:15.710Z</time>
      </trkpt>
      <trkpt lat="44.63282" lon="-0.97938">
        <ele>55.069291</ele>
        <time>2022-12-27T12:19:19.721Z</time>
      </trkpt>
      <trkpt lat="44.63287" lon="-0.97927">
        <ele>55.121016</ele>
        <time>2022-12-27T12:19:22.695Z</time>
      </trkpt>
      <trkpt lat="44.63293" lon="-0.97914">
        <ele>55.182087</ele>
        <time>2022-12-27T12:19:25.714Z</time>
      </trkpt>
      <trkpt lat="44.63299" lon="-0.979">
        <ele>55.25698</ele>
        <time>2022-12-27T12:19:28.714Z</time>
      </trkpt>
      <trkpt lat="44.63305" lon="-0.97887">
        <ele>55.332847</ele>
        <time>2022-12-27T12:19:31.696Z</time>
      </trkpt>
      <trkpt lat="44.63311" lon="-0.97872">
        <ele>55.410981</ele>
        <time>2022-12-27T12:19:34.715Z</time>
      </trkpt>
      <trkpt lat="44.63317" lon="-0.97858">
        <ele>55.488659</ele>
        <time>2022-12-27T12:19:37.724Z</time>
      </trkpt>
      <trkpt lat="44.63324" lon="-0.97844">
        <ele>55.567555</ele>
        <time>2022-12-27T12:19:40.711Z</time>
      </trkpt>
      <trkpt lat="44.63331" lon="-0.9783">
        <ele>55.647169</ele>
        <time>2022-12-27T12:19:43.724Z</time>
      </trkpt>
      <trkpt lat="44.63337" lon="-0.97816">
        <ele>55.727925</ele>
        <time>2022-12-27T12:19:46.730Z</time>
      </trkpt>
      <trkpt lat="44.63344" lon="-0.97801">
        <ele>55.80811</ele>
        <time>2022-12-27T12:19:49.726Z</time>
      </trkpt>
      <trkpt lat="44.6335" lon="-0.97786">
        <ele>55.890974</ele>
        <time>2022-12-27T12:19:52.722Z</time>
      </trkpt>
      <trkpt lat="44.63356" lon="-0.97772">
        <ele>55.967631</ele>
        <time>2022-12-27T12:19:55.722Z</time>
      </trkpt>
      <trkpt lat="44.63363" lon="-0.97758">
        <ele>56.043891</ele>
        <time>2022-12-27T12:19:58.715Z</time>
      </trkpt>
      <trkpt lat="44.63369" lon="-0.97743">
        <ele>56.124816</ele>
        <time>2022-12-27T12:20:01.695Z</time>
      </trkpt>
      <trkpt lat="44.63376" lon="-0.97728">
        <ele>56.209505</ele>
        <time>2022-12-27T12:20:04.723Z</time>
      </trkpt>
      <trkpt lat="44.63382" lon="-0.97714">
        <ele>56.285765</ele>
        <time>2022-12-27T12:20:07.714Z</time>
      </trkpt>
      <trkpt lat="44.63388" lon="-0.97701">
        <ele>56.35931</ele>
        <time>2022-12-27T12:20:10.722Z</time>
      </trkpt>
      <trkpt lat="44.63395" lon="-0.97687">
        <ele>56.444657</ele>
        <time>2022-12-27T12:20:13.716Z</time>
      </trkpt>
      <trkpt lat="44.63402" lon="-0.97672">
        <ele>56.53446</ele>
        <time>2022-12-27T12:20:16.719Z</time>
      </trkpt>
      <trkpt lat="44.63408" lon="-0.97657">
        <ele>56.625922</ele>
        <time>2022-12-27T12:20:19.706Z</time>
      </trkpt>
      <trkpt lat="44.63415" lon="-0.97641">
        <ele>56.719513</ele>
        <time>2022-12-27T12:20:22.714Z</time>
      </trkpt>
      <trkpt lat="44.63422" lon="-0.97626">
        <ele>56.810692</ele>
        <time>2022-12-27T12:20:25.702Z</time>
      </trkpt>
      <trkpt lat="44.63427" lon="-0.97612">
        <ele>56.89557</ele>
        <time>2022-12-27T12:20:28.724Z</time>
      </trkpt>
      <trkpt lat="44.63433" lon="-0.97599">
        <ele>56.972184</ele>
        <time>2022-12-27T12:20:31.704Z</time>
      </trkpt>
      <trkpt lat="44.63439" lon="-0.97586">
        <ele>57.049937</ele>
        <time>2022-12-27T12:20:34.715Z</time>
      </trkpt>
      <trkpt lat="44.63445" lon="-0.97573">
        <ele>57.13348</ele>
        <time>2022-12-27T12:20:37.726Z</time>
      </trkpt>
      <trkpt lat="44.63451" lon="-0.97559">
        <ele>57.213031</ele>
        <time>2022-12-27T12:20:40.706Z</time>
      </trkpt>
      <trkpt lat="44.63456" lon="-0.97547">
        <ele>57.286167</ele>
        <time>2022-12-27T12:20:43.698Z</time>
      </trkpt>
      <trkpt lat="44.63462" lon="-0.97536">
        <ele>57.358015</ele>
        <time>2022-12-27T12:20:46.699Z</time>
      </trkpt>
      <trkpt lat="44.63468" lon="-0.97526">
        <ele>57.42396</ele>
        <time>2022-12-27T12:20:49.724Z</time>
      </trkpt>
      <trkpt lat="44.63478" lon="-0.97521">
        <ele>57.501769</ele>
        <time>2022-12-27T12:20:53.694Z</time>
      </trkpt>
      <trkpt lat="44.63485" lon="-0.9751">
        <ele>57.574513</ele>
        <time>2022-12-27T12:20:57.699Z</time>
      </trkpt>
      <trkpt lat="44.6349" lon="-0.97498">
        <ele>57.648534</ele>
        <time>2022-12-27T12:21:01.697Z</time>
      </trkpt>
      <trkpt lat="44.6349" lon="-0.97483">
        <ele>57.714513</ele>
        <time>2022-12-27T12:21:05.725Z</time>
      </trkpt>
      <trkpt lat="44.63493" lon="-0.97468">
        <ele>57.787034</ele>
        <time>2022-12-27T12:21:09.723Z</time>
      </trkpt>
      <trkpt lat="44.63499" lon="-0.97455">
        <ele>57.852196</ele>
        <time>2022-12-27T12:21:12.709Z</time>
      </trkpt>
      <trkpt lat="44.63505" lon="-0.97442">
        <ele>57.921713</ele>
        <time>2022-12-27T12:21:15.716Z</time>
      </trkpt>
      <trkpt lat="44.63511" lon="-0.9743">
        <ele>57.986754</ele>
        <time>2022-12-27T12:21:18.716Z</time>
      </trkpt>
      <trkpt lat="44.63516" lon="-0.9742">
        <ele>58.047095</ele>
        <time>2022-12-27T12:21:21.697Z</time>
      </trkpt>
      <trkpt lat="44.63521" lon="-0.97407">
        <ele>58.110267</ele>
        <time>2022-12-27T12:21:25.719Z</time>
      </trkpt>
      <trkpt lat="44.63526" lon="-0.97395">
        <ele>58.169107</ele>
        <time>2022-12-27T12:21:31.695Z</time>
      </trkpt>
      <trkpt lat="44.63533" lon="-0.97384">
        <ele>58.235667</ele>
        <time>2022-12-27T12:21:36.723Z</time>
      </trkpt>
      <trkpt lat="44.63537" lon="-0.97372">
        <ele>58.298661</ele>
        <time>2022-12-27T12:21:42.706Z</time>
      </trkpt>
      <trkpt lat="44.63532" lon="-0.97359">
        <ele>58.366108</ele>
        <time>2022-12-27T12:21:48.697Z</time>
      </trkpt>
      <trkpt lat="44.63536" lon="-0.97345">
        <ele>58.431933</ele>
        <time>2022-12-27T12:21:53.699Z</time>
      </trkpt>
      <trkpt lat="44.63543" lon="-0.97331">
        <ele>58.507544</ele>
        <time>2022-12-27T12:21:57.715Z</time>
      </trkpt>
      <trkpt lat="44.63549" lon="-0.97318">
        <ele>58.579615</ele>
        <time>2022-12-27T12:22:01.700Z</time>
      </trkpt>
      <trkpt lat="44.63555" lon="-0.97304">
        <ele>58.648473</ele>
        <time>2022-12-27T12:22:05.701Z</time>
      </trkpt>
      <trkpt lat="44.6356" lon="-0.97293">
        <ele>58.710103</ele>
        <time>2022-12-27T12:22:09.713Z</time>
      </trkpt>
      <trkpt lat="44.63565" lon="-0.97281">
        <ele>58.771955</ele>
        <time>2022-12-27T12:22:12.722Z</time>
      </trkpt>
      <trkpt lat="44.63571" lon="-0.97268">
        <ele>58.850925</ele>
        <time>2022-12-27T12:22:15.718Z</time>
      </trkpt>
      <trkpt lat="44.63577" lon="-0.97256">
        <ele>58.93007</ele>
        <time>2022-12-27T12:22:18.717Z</time>
      </trkpt>
      <trkpt lat="44.63583" lon="-0.97243">
        <ele>59.013278</ele>
        <time>2022-12-27T12:22:23.703Z</time>
      </trkpt>
      <trkpt lat="44.63588" lon="-0.97231">
        <ele>59.092056</ele>
        <time>2022-12-27T12:22:27.720Z</time>
      </trkpt>
      <trkpt lat="44.63593" lon="-0.9722">
        <ele>59.160707</ele>
        <time>2022-12-27T12:22:30.711Z</time>
      </trkpt>
      <trkpt lat="44.63599" lon="-0.97207">
        <ele>59.245986</ele>
        <time>2022-12-27T12:22:34.714Z</time>
      </trkpt>
      <trkpt lat="44.63605" lon="-0.97196">
        <ele>59.318456</ele>
        <time>2022-12-27T12:22:37.728Z</time>
      </trkpt>
      <trkpt lat="44.6361" lon="-0.97182">
        <ele>59.401966</ele>
        <time>2022-12-27T12:22:41.702Z</time>
      </trkpt>
      <trkpt lat="44.63615" lon="-0.97171">
        <ele>59.474929</ele>
        <time>2022-12-27T12:22:44.713Z</time>
      </trkpt>
      <trkpt lat="44.63621" lon="-0.97157">
        <ele>59.561704</ele>
        <time>2022-12-27T12:22:48.717Z</time>
      </trkpt>
      <trkpt lat="44.63627" lon="-0.97144">
        <ele>59.647926</ele>
        <time>2022-12-27T12:22:52.721Z</time>
      </trkpt>
      <trkpt lat="44.63631" lon="-0.97132">
        <ele>59.718148</ele>
        <time>2022-12-27T12:22:55.713Z</time>
      </trkpt>
      <trkpt lat="44.63635" lon="-0.97119">
        <ele>59.797341</ele>
        <time>2022-12-27T12:22:59.701Z</time>
      </trkpt>
      <trkpt lat="44.63635" lon="-0.97115">
        <ele>59.817948</ele>
        <time>2022-12-27T12:23:07.845Z</time>
      </trkpt>
      <trkpt lat="44.63644" lon="-0.97108">
        <ele>59.894137</ele>
        <time>2022-12-27T12:30:02.711Z</time>
      </trkpt>
      <trkpt lat="44.63647" lon="-0.97095">
        <ele>59.974155</ele>
        <time>2022-12-27T12:30:06.714Z</time>
      </trkpt>
      <trkpt lat="44.63655" lon="-0.97084">
        <ele>60.053096</ele>
        <time>2022-12-27T12:30:11.702Z</time>
      </trkpt>
      <trkpt lat="44.6366" lon="-0.97073">
        <ele>60.126891</ele>
        <time>2022-12-27T12:30:15.700Z</time>
      </trkpt>
      <trkpt lat="44.63665" lon="-0.9706">
        <ele>60.198796</ele>
        <time>2022-12-27T12:30:19.720Z</time>
      </trkpt>
      <trkpt lat="44.63671" lon="-0.97048">
        <ele>60.265146</ele>
        <time>2022-12-27T12:30:23.709Z</time>
      </trkpt>
      <trkpt lat="44.63677" lon="-0.97033">
        <ele>60.340467</ele>
        <time>2022-12-27T12:30:27.727Z</time>
      </trkpt>
      <trkpt lat="44.63682" lon="-0.97022">
        <ele>60.400921</ele>
        <time>2022-12-27T12:30:30.714Z</time>
      </trkpt>
      <trkpt lat="44.63688" lon="-0.97011">
        <ele>60.461</ele>
        <time>2022-12-27T12:30:33.722Z</time>
      </trkpt>
      <trkpt lat="44.63692" lon="-0.96999">
        <ele>60.519498</ele>
        <time>2022-12-27T12:30:36.723Z</time>
      </trkpt>
      <trkpt lat="44.63697" lon="-0.96988">
        <ele>60.578647</ele>
        <time>2022-12-27T12:30:39.718Z</time>
      </trkpt>
      <trkpt lat="44.63702" lon="-0.96977">
        <ele>60.640227</ele>
        <time>2022-12-27T12:30:42.717Z</time>
      </trkpt>
      <trkpt lat="44.63707" lon="-0.96965">
        <ele>60.701056</ele>
        <time>2022-12-27T12:30:45.729Z</time>
      </trkpt>
      <trkpt lat="44.63713" lon="-0.96951">
        <ele>60.774455</ele>
        <time>2022-12-27T12:30:49.712Z</time>
      </trkpt>
      <trkpt lat="44.6372" lon="-0.96938">
        <ele>60.846233</ele>
        <time>2022-12-27T12:30:53.718Z</time>
      </trkpt>
      <trkpt lat="44.63725" lon="-0.96928">
        <ele>60.903753</ele>
        <time>2022-12-27T12:30:56.716Z</time>
      </trkpt>
      <trkpt lat="44.6373" lon="-0.96917">
        <ele>60.963941</ele>
        <time>2022-12-27T12:30:59.731Z</time>
      </trkpt>
      <trkpt lat="44.63735" lon="-0.96906">
        <ele>61.022269</ele>
        <time>2022-12-27T12:31:02.705Z</time>
      </trkpt>
      <trkpt lat="44.6374" lon="-0.96894">
        <ele>61.082075</ele>
        <time>2022-12-27T12:31:05.730Z</time>
      </trkpt>
      <trkpt lat="44.63745" lon="-0.96883">
        <ele>61.142557</ele>
        <time>2022-12-27T12:31:08.722Z</time>
      </trkpt>
      <trkpt lat="44.63751" lon="-0.9687">
        <ele>61.21305</ele>
        <time>2022-12-27T12:31:12.730Z</time>
      </trkpt>
      <trkpt lat="44.63756" lon="-0.96856">
        <ele>61.281997</ele>
        <time>2022-12-27T12:31:16.718Z</time>
      </trkpt>
      <trkpt lat="44.63753" lon="-0.96842">
        <ele>61.164613</ele>
        <time>2022-12-27T12:31:20.716Z</time>
      </trkpt>
      <trkpt lat="44.63753" lon="-0.96829">
        <ele>61.000187</ele>
        <time>2022-12-27T12:31:24.729Z</time>
      </trkpt>
      <trkpt lat="44.63757" lon="-0.96817">
        <ele>60.845466</ele>
        <time>2022-12-27T12:31:28.717Z</time>
      </trkpt>
      <trkpt lat="44.63764" lon="-0.96806">
        <ele>60.669317</ele>
        <time>2022-12-27T12:31:34.716Z</time>
      </trkpt>
      <trkpt lat="44.63763" lon="-0.96792">
        <ele>60.49786</ele>
        <time>2022-12-27T12:31:39.722Z</time>
      </trkpt>
      <trkpt lat="44.63756" lon="-0.96779">
        <ele>60.305027</ele>
        <time>2022-12-27T12:31:43.720Z</time>
      </trkpt>
      <trkpt lat="44.63749" lon="-0.96767">
        <ele>60.10651</ele>
        <time>2022-12-27T12:31:47.724Z</time>
      </trkpt>
      <trkpt lat="44.63742" lon="-0.96754">
        <ele>59.9135</ele>
        <time>2022-12-27T12:31:51.705Z</time>
      </trkpt>
      <trkpt lat="44.63736" lon="-0.96743">
        <ele>59.73538</ele>
        <time>2022-12-27T12:31:55.716Z</time>
      </trkpt>
      <trkpt lat="44.6373" lon="-0.96717">
        <ele>59.41496</ele>
        <time>2022-12-27T12:32:56.707Z</time>
      </trkpt>
      <trkpt lat="44.63722" lon="-0.96707">
        <ele>59.231216</ele>
        <time>2022-12-27T12:33:00.725Z</time>
      </trkpt>
      <trkpt lat="44.63715" lon="-0.96696">
        <ele>59.059124</ele>
        <time>2022-12-27T12:33:04.707Z</time>
      </trkpt>
      <trkpt lat="44.6371" lon="-0.96685">
        <ele>58.900622</ele>
        <time>2022-12-27T12:33:08.719Z</time>
      </trkpt>
      <trkpt lat="44.63704" lon="-0.96674">
        <ele>58.73519</ele>
        <time>2022-12-27T12:33:14.713Z</time>
      </trkpt>
      <trkpt lat="44.63696" lon="-0.96668">
        <ele>58.582444</ele>
        <time>2022-12-27T12:33:31.696Z</time>
      </trkpt>
      <trkpt lat="44.63691" lon="-0.96656">
        <ele>58.404339</ele>
        <time>2022-12-27T12:33:34.713Z</time>
      </trkpt>
      <trkpt lat="44.63682" lon="-0.96644">
        <ele>58.264789</ele>
        <time>2022-12-27T12:33:37.705Z</time>
      </trkpt>
      <trkpt lat="44.63675" lon="-0.96633">
        <ele>58.335998</ele>
        <time>2022-12-27T12:33:40.716Z</time>
      </trkpt>
      <trkpt lat="44.63669" lon="-0.96622">
        <ele>58.409419</ele>
        <time>2022-12-27T12:33:44.717Z</time>
      </trkpt>
      <trkpt lat="44.63662" lon="-0.96614">
        <ele>58.47431</ele>
        <time>2022-12-27T12:33:48.727Z</time>
      </trkpt>
      <trkpt lat="44.63661" lon="-0.966">
        <ele>58.5438</ele>
        <time>2022-12-27T12:33:54.701Z</time>
      </trkpt>
      <trkpt lat="44.63654" lon="-0.96592">
        <ele>58.610751</ele>
        <time>2022-12-27T12:33:59.703Z</time>
      </trkpt>
      <trkpt lat="44.63644" lon="-0.96589">
        <ele>58.681975</ele>
        <time>2022-12-27T12:34:04.703Z</time>
      </trkpt>
      <trkpt lat="44.63637" lon="-0.96579">
        <ele>58.755795</ele>
        <time>2022-12-27T12:34:08.718Z</time>
      </trkpt>
      <trkpt lat="44.63629" lon="-0.96571">
        <ele>58.823862</ele>
        <time>2022-12-27T12:34:11.699Z</time>
      </trkpt>
      <trkpt lat="44.63621" lon="-0.9656">
        <ele>58.906069</ele>
        <time>2022-12-27T12:34:15.707Z</time>
      </trkpt>
      <trkpt lat="44.63614" lon="-0.96551">
        <ele>58.971331</ele>
        <time>2022-12-27T12:34:18.716Z</time>
      </trkpt>
      <trkpt lat="44.63607" lon="-0.96543">
        <ele>59.039314</ele>
        <time>2022-12-27T12:34:21.702Z</time>
      </trkpt>
      <trkpt lat="44.63598" lon="-0.96533">
        <ele>59.117392</ele>
        <time>2022-12-27T12:34:24.704Z</time>
      </trkpt>
      <trkpt lat="44.6359" lon="-0.96524">
        <ele>59.194642</ele>
        <time>2022-12-27T12:34:27.701Z</time>
      </trkpt>
      <trkpt lat="44.6358" lon="-0.96515">
        <ele>59.276235</ele>
        <time>2022-12-27T12:34:30.717Z</time>
      </trkpt>
      <trkpt lat="44.63573" lon="-0.96507">
        <ele>59.343252</ele>
        <time>2022-12-27T12:34:33.721Z</time>
      </trkpt>
      <trkpt lat="44.63564" lon="-0.96498">
        <ele>59.425127</ele>
        <time>2022-12-27T12:34:37.725Z</time>
      </trkpt>
      <trkpt lat="44.63555" lon="-0.96491">
        <ele>59.495287</ele>
        <time>2022-12-27T12:34:40.717Z</time>
      </trkpt>
      <trkpt lat="44.63547" lon="-0.96482">
        <ele>59.530943</ele>
        <time>2022-12-27T12:34:43.721Z</time>
      </trkpt>
      <trkpt lat="44.63537" lon="-0.96473">
        <ele>59.525097</ele>
        <time>2022-12-27T12:34:46.711Z</time>
      </trkpt>
      <trkpt lat="44.63528" lon="-0.96464">
        <ele>59.519051</ele>
        <time>2022-12-27T12:34:49.730Z</time>
      </trkpt>
      <trkpt lat="44.63518" lon="-0.96456">
        <ele>59.512995</ele>
        <time>2022-12-27T12:34:52.703Z</time>
      </trkpt>
      <trkpt lat="44.63508" lon="-0.96447">
        <ele>59.506737</ele>
        <time>2022-12-27T12:34:55.731Z</time>
      </trkpt>
      <trkpt lat="44.63499" lon="-0.96438">
        <ele>59.500564</ele>
        <time>2022-12-27T12:34:58.718Z</time>
      </trkpt>
      <trkpt lat="44.63489" lon="-0.96428">
        <ele>59.494176</ele>
        <time>2022-12-27T12:35:01.702Z</time>
      </trkpt>
      <trkpt lat="44.63478" lon="-0.96419">
        <ele>59.487777</ele>
        <time>2022-12-27T12:35:04.721Z</time>
      </trkpt>
      <trkpt lat="44.63469" lon="-0.9641">
        <ele>59.481953</ele>
        <time>2022-12-27T12:35:07.722Z</time>
      </trkpt>
      <trkpt lat="44.63461" lon="-0.96404">
        <ele>59.476951</ele>
        <time>2022-12-27T12:35:10.715Z</time>
      </trkpt>
      <trkpt lat="44.63453" lon="-0.96396">
        <ele>59.471684</ele>
        <time>2022-12-27T12:35:13.712Z</time>
      </trkpt>
      <trkpt lat="44.63443" lon="-0.96387">
        <ele>59.465492</ele>
        <time>2022-12-27T12:35:16.715Z</time>
      </trkpt>
      <trkpt lat="44.63432" lon="-0.96378">
        <ele>59.458878</ele>
        <time>2022-12-27T12:35:19.730Z</time>
      </trkpt>
      <trkpt lat="44.63422" lon="-0.96369">
        <ele>59.452414</ele>
        <time>2022-12-27T12:35:22.709Z</time>
      </trkpt>
      <trkpt lat="44.63411" lon="-0.96359">
        <ele>59.445736</ele>
        <time>2022-12-27T12:35:25.714Z</time>
      </trkpt>
      <trkpt lat="44.63401" lon="-0.9635">
        <ele>59.439536</ele>
        <time>2022-12-27T12:35:28.727Z</time>
      </trkpt>
      <trkpt lat="44.63393" lon="-0.96342">
        <ele>59.42116</ele>
        <time>2022-12-27T12:35:31.705Z</time>
      </trkpt>
      <trkpt lat="44.63385" lon="-0.96334">
        <ele>59.401024</ele>
        <time>2022-12-27T12:35:34.713Z</time>
      </trkpt>
      <trkpt lat="44.63376" lon="-0.96326">
        <ele>59.380236</ele>
        <time>2022-12-27T12:35:37.723Z</time>
      </trkpt>
      <trkpt lat="44.63366" lon="-0.96317">
        <ele>59.357063</ele>
        <time>2022-12-27T12:35:41.708Z</time>
      </trkpt>
      <trkpt lat="44.63358" lon="-0.9631">
        <ele>59.337797</ele>
        <time>2022-12-27T12:35:44.724Z</time>
      </trkpt>
      <trkpt lat="44.6335" lon="-0.96302">
        <ele>59.317906</ele>
        <time>2022-12-27T12:35:47.726Z</time>
      </trkpt>
      <trkpt lat="44.63342" lon="-0.96294">
        <ele>59.299399</ele>
        <time>2022-12-27T12:35:50.723Z</time>
      </trkpt>
      <trkpt lat="44.63333" lon="-0.96284">
        <ele>59.276406</ele>
        <time>2022-12-27T12:35:54.719Z</time>
      </trkpt>
      <trkpt lat="44.63325" lon="-0.96275">
        <ele>59.255293</ele>
        <time>2022-12-27T12:35:59.716Z</time>
      </trkpt>
      <trkpt lat="44.63325" lon="-0.96262">
        <ele>59.237142</ele>
        <time>2022-12-27T12:36:04.720Z</time>
      </trkpt>
      <trkpt lat="44.63315" lon="-0.96261">
        <ele>59.217204</ele>
        <time>2022-12-27T12:36:11.695Z</time>
      </trkpt>
      <trkpt lat="44.63307" lon="-0.96268">
        <ele>59.199158</ele>
        <time>2022-12-27T12:36:15.708Z</time>
      </trkpt>
      <trkpt lat="44.63295" lon="-0.96263">
        <ele>59.17449</ele>
        <time>2022-12-27T12:36:19.706Z</time>
      </trkpt>
      <trkpt lat="44.63286" lon="-0.96255">
        <ele>59.152857</ele>
        <time>2022-12-27T12:36:22.722Z</time>
      </trkpt>
      <trkpt lat="44.63277" lon="-0.96247">
        <ele>59.131251</ele>
        <time>2022-12-27T12:36:25.716Z</time>
      </trkpt>
      <trkpt lat="44.63267" lon="-0.96238">
        <ele>59.107402</ele>
        <time>2022-12-27T12:36:28.717Z</time>
      </trkpt>
      <trkpt lat="44.63258" lon="-0.96228">
        <ele>59.085046</ele>
        <time>2022-12-27T12:36:31.704Z</time>
      </trkpt>
      <trkpt lat="44.63249" lon="-0.96221">
        <ele>58.894608</ele>
        <time>2022-12-27T12:36:34.708Z</time>
      </trkpt>
      <trkpt lat="44.63241" lon="-0.96214">
        <ele>58.664567</ele>
        <time>2022-12-27T12:36:37.725Z</time>
      </trkpt>
      <trkpt lat="44.63233" lon="-0.96207">
        <ele>58.444772</ele>
        <time>2022-12-27T12:36:40.723Z</time>
      </trkpt>
      <trkpt lat="44.63224" lon="-0.96198">
        <ele>58.183861</ele>
        <time>2022-12-27T12:36:43.698Z</time>
      </trkpt>
      <trkpt lat="44.63214" lon="-0.96189">
        <ele>57.890142</ele>
        <time>2022-12-27T12:36:46.721Z</time>
      </trkpt>
      <trkpt lat="44.63203" lon="-0.9618">
        <ele>57.599607</ele>
        <time>2022-12-27T12:36:49.728Z</time>
      </trkpt>
      <trkpt lat="44.63192" lon="-0.96171">
        <ele>57.300619</ele>
        <time>2022-12-27T12:36:52.720Z</time>
      </trkpt>
      <trkpt lat="44.63182" lon="-0.96161">
        <ele>56.999087</ele>
        <time>2022-12-27T12:36:55.730Z</time>
      </trkpt>
      <trkpt lat="44.63173" lon="-0.96155">
        <ele>56.775238</ele>
        <time>2022-12-27T12:36:57.722Z</time>
      </trkpt>
      <trkpt lat="44.63164" lon="-0.9615">
        <ele>56.540825</ele>
        <time>2022-12-27T12:36:59.726Z</time>
      </trkpt>
      <trkpt lat="44.63155" lon="-0.96145">
        <ele>56.311768</ele>
        <time>2022-12-27T12:37:01.705Z</time>
      </trkpt>
      <trkpt lat="44.63146" lon="-0.96141">
        <ele>56.091457</ele>
        <time>2022-12-27T12:37:03.727Z</time>
      </trkpt>
      <trkpt lat="44.63137" lon="-0.96137">
        <ele>55.86662</ele>
        <time>2022-12-27T12:37:05.723Z</time>
      </trkpt>
      <trkpt lat="44.63129" lon="-0.96134">
        <ele>55.6522</ele>
        <time>2022-12-27T12:37:07.721Z</time>
      </trkpt>
      <trkpt lat="44.63116" lon="-0.96136">
        <ele>55.357749</ele>
        <time>2022-12-27T12:37:10.720Z</time>
      </trkpt>
      <trkpt lat="44.63105" lon="-0.96143">
        <ele>55.069331</ele>
        <time>2022-12-27T12:37:13.716Z</time>
      </trkpt>
      <trkpt lat="44.63097" lon="-0.96138">
        <ele>54.844787</ele>
        <time>2022-12-27T12:37:16.722Z</time>
      </trkpt>
      <trkpt lat="44.63091" lon="-0.96125">
        <ele>54.85416</ele>
        <time>2022-12-27T12:37:19.698Z</time>
      </trkpt>
      <trkpt lat="44.63082" lon="-0.96118">
        <ele>54.910144</ele>
        <time>2022-12-27T12:37:22.728Z</time>
      </trkpt>
      <trkpt lat="44.63071" lon="-0.96116">
        <ele>54.969884</ele>
        <time>2022-12-27T12:37:25.695Z</time>
      </trkpt>
      <trkpt lat="44.6306" lon="-0.96116">
        <ele>55.028204</ele>
        <time>2022-12-27T12:37:28.726Z</time>
      </trkpt>
      <trkpt lat="44.63051" lon="-0.96117">
        <ele>55.08126</ele>
        <time>2022-12-27T12:37:31.704Z</time>
      </trkpt>
      <trkpt lat="44.63039" lon="-0.96116">
        <ele>55.14386</ele>
        <time>2022-12-27T12:37:35.731Z</time>
      </trkpt>
      <trkpt lat="44.63027" lon="-0.96118">
        <ele>55.208317</ele>
        <time>2022-12-27T12:37:38.707Z</time>
      </trkpt>
      <trkpt lat="44.63014" lon="-0.96118">
        <ele>55.279485</ele>
        <time>2022-12-27T12:37:41.703Z</time>
      </trkpt>
      <trkpt lat="44.63" lon="-0.9612">
        <ele>55.349777</ele>
        <time>2022-12-27T12:37:44.728Z</time>
      </trkpt>
      <trkpt lat="44.62988" lon="-0.96119">
        <ele>55.414534</ele>
        <time>2022-12-27T12:37:47.718Z</time>
      </trkpt>
      <trkpt lat="44.62979" lon="-0.96119">
        <ele>55.464833</ele>
        <time>2022-12-27T12:37:50.706Z</time>
      </trkpt>
      <trkpt lat="44.6297" lon="-0.9612">
        <ele>55.513594</ele>
        <time>2022-12-27T12:37:53.729Z</time>
      </trkpt>
      <trkpt lat="44.62959" lon="-0.9612">
        <ele>55.570842</ele>
        <time>2022-12-27T12:37:57.720Z</time>
      </trkpt>
      <trkpt lat="44.62947" lon="-0.96121">
        <ele>55.635064</ele>
        <time>2022-12-27T12:38:00.708Z</time>
      </trkpt>
      <trkpt lat="44.62935" lon="-0.96121">
        <ele>55.701462</ele>
        <time>2022-12-27T12:38:03.727Z</time>
      </trkpt>
      <trkpt lat="44.62925" lon="-0.96123">
        <ele>55.754128</ele>
        <time>2022-12-27T12:38:06.726Z</time>
      </trkpt>
      <trkpt lat="44.62915" lon="-0.96125">
        <ele>55.848611</ele>
        <time>2022-12-27T12:38:09.709Z</time>
      </trkpt>
      <trkpt lat="44.62905" lon="-0.96126">
        <ele>55.955999</ele>
        <time>2022-12-27T12:38:12.737Z</time>
      </trkpt>
      <trkpt lat="44.62896" lon="-0.96128">
        <ele>56.060906</ele>
        <time>2022-12-27T12:38:15.705Z</time>
      </trkpt>
      <trkpt lat="44.62886" lon="-0.96127">
        <ele>56.16871</ele>
        <time>2022-12-27T12:38:18.717Z</time>
      </trkpt>
      <trkpt lat="44.62874" lon="-0.96126">
        <ele>56.295315</ele>
        <time>2022-12-27T12:38:22.731Z</time>
      </trkpt>
      <trkpt lat="44.62863" lon="-0.96121">
        <ele>56.423158</ele>
        <time>2022-12-27T12:38:26.729Z</time>
      </trkpt>
      <trkpt lat="44.62854" lon="-0.96117">
        <ele>56.528689</ele>
        <time>2022-12-27T12:38:29.746Z</time>
      </trkpt>
      <trkpt lat="44.62845" lon="-0.96111">
        <ele>56.62989</ele>
        <time>2022-12-27T12:38:32.717Z</time>
      </trkpt>
      <trkpt lat="44.62837" lon="-0.96104">
        <ele>56.734081</ele>
        <time>2022-12-27T12:38:35.732Z</time>
      </trkpt>
      <trkpt lat="44.62829" lon="-0.96097">
        <ele>56.838517</ele>
        <time>2022-12-27T12:38:38.713Z</time>
      </trkpt>
      <trkpt lat="44.6282" lon="-0.96091">
        <ele>56.949019</ele>
        <time>2022-12-27T12:38:41.697Z</time>
      </trkpt>
      <trkpt lat="44.62812" lon="-0.96084">
        <ele>57.053055</ele>
        <time>2022-12-27T12:38:44.718Z</time>
      </trkpt>
      <trkpt lat="44.62801" lon="-0.96075">
        <ele>57.182534</ele>
        <time>2022-12-27T12:38:48.745Z</time>
      </trkpt>
      <trkpt lat="44.62792" lon="-0.96068">
        <ele>57.299638</ele>
        <time>2022-12-27T12:38:52.718Z</time>
      </trkpt>
      <trkpt lat="44.62783" lon="-0.96063">
        <ele>57.402547</ele>
        <time>2022-12-27T12:38:56.718Z</time>
      </trkpt>
      <trkpt lat="44.62775" lon="-0.96058">
        <ele>57.501974</ele>
        <time>2022-12-27T12:39:00.717Z</time>
      </trkpt>
      <trkpt lat="44.62766" lon="-0.96068">
        <ele>57.625436</ele>
        <time>2022-12-27T12:39:05.724Z</time>
      </trkpt>
      <trkpt lat="44.6276" lon="-0.96079">
        <ele>57.745524</ele>
        <time>2022-12-27T12:39:08.704Z</time>
      </trkpt>
      <trkpt lat="44.62754" lon="-0.9609">
        <ele>57.972953</ele>
        <time>2022-12-27T12:39:12.705Z</time>
      </trkpt>
      <trkpt lat="44.62749" lon="-0.96102">
        <ele>58.201446</ele>
        <time>2022-12-27T12:39:16.694Z</time>
      </trkpt>
      <trkpt lat="44.62743" lon="-0.96113">
        <ele>58.427003</ele>
        <time>2022-12-27T12:39:20.721Z</time>
      </trkpt>
      <trkpt lat="44.62739" lon="-0.96126">
        <ele>58.65779</ele>
        <time>2022-12-27T12:39:23.717Z</time>
      </trkpt>
      <trkpt lat="44.62736" lon="-0.96141">
        <ele>58.902287</ele>
        <time>2022-12-27T12:39:26.716Z</time>
      </trkpt>
      <trkpt lat="44.62732" lon="-0.96156">
        <ele>59.162661</ele>
        <time>2022-12-27T12:39:29.720Z</time>
      </trkpt>
      <trkpt lat="44.6273" lon="-0.96168">
        <ele>59.372183</ele>
        <time>2022-12-27T12:39:31.713Z</time>
      </trkpt>
      <trkpt lat="44.62726" lon="-0.96182">
        <ele>59.614351</ele>
        <time>2022-12-27T12:39:34.709Z</time>
      </trkpt>
      <trkpt lat="44.62723" lon="-0.96198">
        <ele>59.886849</ele>
        <time>2022-12-27T12:39:37.723Z</time>
      </trkpt>
      <trkpt lat="44.62719" lon="-0.96213">
        <ele>60.134294</ele>
        <time>2022-12-27T12:39:40.719Z</time>
      </trkpt>
      <trkpt lat="44.62715" lon="-0.96229">
        <ele>60.41756</ele>
        <time>2022-12-27T12:39:43.724Z</time>
      </trkpt>
      <trkpt lat="44.62712" lon="-0.96245">
        <ele>60.687996</ele>
        <time>2022-12-27T12:39:46.719Z</time>
      </trkpt>
      <trkpt lat="44.62708" lon="-0.96262">
        <ele>60.975127</ele>
        <time>2022-12-27T12:39:49.718Z</time>
      </trkpt>
      <trkpt lat="44.62705" lon="-0.96278">
        <ele>61.240155</ele>
        <time>2022-12-27T12:39:52.722Z</time>
      </trkpt>
      <trkpt lat="44.62702" lon="-0.96294">
        <ele>61.51304</ele>
        <time>2022-12-27T12:39:55.725Z</time>
      </trkpt>
      <trkpt lat="44.62696" lon="-0.96305">
        <ele>61.743529</ele>
        <time>2022-12-27T12:39:57.727Z</time>
      </trkpt>
      <trkpt lat="44.62687" lon="-0.96311">
        <ele>61.565617</ele>
        <time>2022-12-27T12:39:59.709Z</time>
      </trkpt>
      <trkpt lat="44.62674" lon="-0.96316">
        <ele>61.037249</ele>
        <time>2022-12-27T12:40:02.717Z</time>
      </trkpt>
      <trkpt lat="44.62662" lon="-0.96322">
        <ele>60.520118</ele>
        <time>2022-12-27T12:40:05.716Z</time>
      </trkpt>
      <trkpt lat="44.62652" lon="-0.96327">
        <ele>60.087284</ele>
        <time>2022-12-27T12:40:08.727Z</time>
      </trkpt>
      <trkpt lat="44.62645" lon="-0.96337">
        <ele>59.679436</ele>
        <time>2022-12-27T12:40:11.727Z</time>
      </trkpt>
      <trkpt lat="44.62639" lon="-0.96352">
        <ele>59.174164</ele>
        <time>2022-12-27T12:40:14.735Z</time>
      </trkpt>
      <trkpt lat="44.62634" lon="-0.96365">
        <ele>58.75618</ele>
        <time>2022-12-27T12:40:16.707Z</time>
      </trkpt>
      <trkpt lat="44.6263" lon="-0.96378">
        <ele>58.34291</ele>
        <time>2022-12-27T12:40:18.722Z</time>
      </trkpt>
      <trkpt lat="44.62626" lon="-0.9639">
        <ele>57.942235</ele>
        <time>2022-12-27T12:40:20.722Z</time>
      </trkpt>
      <trkpt lat="44.62621" lon="-0.96402">
        <ele>57.547067</ele>
        <time>2022-12-27T12:40:22.722Z</time>
      </trkpt>
      <trkpt lat="44.62616" lon="-0.96414">
        <ele>57.169362</ele>
        <time>2022-12-27T12:40:24.721Z</time>
      </trkpt>
      <trkpt lat="44.62612" lon="-0.96429">
        <ele>56.694221</ele>
        <time>2022-12-27T12:40:27.713Z</time>
      </trkpt>
      <trkpt lat="44.62607" lon="-0.96444">
        <ele>56.193653</ele>
        <time>2022-12-27T12:40:30.712Z</time>
      </trkpt>
      <trkpt lat="44.62601" lon="-0.9646">
        <ele>55.684471</ele>
        <time>2022-12-27T12:40:33.752Z</time>
      </trkpt>
      <trkpt lat="44.62595" lon="-0.96476">
        <ele>55.175993</ele>
        <time>2022-12-27T12:40:36.721Z</time>
      </trkpt>
      <trkpt lat="44.62589" lon="-0.9649">
        <ele>54.682725</ele>
        <time>2022-12-27T12:40:39.715Z</time>
      </trkpt>
      <trkpt lat="44.6258" lon="-0.965">
        <ele>54.683673</ele>
        <time>2022-12-27T12:40:42.720Z</time>
      </trkpt>
      <trkpt lat="44.62568" lon="-0.96501">
        <ele>54.947975</ele>
        <time>2022-12-27T12:40:45.706Z</time>
      </trkpt>
      <trkpt lat="44.62558" lon="-0.96492">
        <ele>55.207344</ele>
        <time>2022-12-27T12:40:48.714Z</time>
      </trkpt>
      <trkpt lat="44.62549" lon="-0.96482">
        <ele>55.475457</ele>
        <time>2022-12-27T12:40:51.712Z</time>
      </trkpt>
      <trkpt lat="44.62539" lon="-0.9647">
        <ele>55.754712</ele>
        <time>2022-12-27T12:40:54.730Z</time>
      </trkpt>
      <trkpt lat="44.62532" lon="-0.96462">
        <ele>55.956204</ele>
        <time>2022-12-27T12:40:56.721Z</time>
      </trkpt>
      <trkpt lat="44.62525" lon="-0.96454">
        <ele>56.157904</ele>
        <time>2022-12-27T12:40:58.719Z</time>
      </trkpt>
      <trkpt lat="44.62518" lon="-0.96446">
        <ele>56.364307</ele>
        <time>2022-12-27T12:41:00.724Z</time>
      </trkpt>
      <trkpt lat="44.62508" lon="-0.96435">
        <ele>56.642875</ele>
        <time>2022-12-27T12:41:03.716Z</time>
      </trkpt>
      <trkpt lat="44.62499" lon="-0.96425">
        <ele>56.904345</ele>
        <time>2022-12-27T12:41:06.728Z</time>
      </trkpt>
      <trkpt lat="44.62489" lon="-0.96414">
        <ele>57.178634</ele>
        <time>2022-12-27T12:41:09.724Z</time>
      </trkpt>
      <trkpt lat="44.62481" lon="-0.96403">
        <ele>57.415864</ele>
        <time>2022-12-27T12:41:12.719Z</time>
      </trkpt>
      <trkpt lat="44.62473" lon="-0.96393">
        <ele>57.667742</ele>
        <time>2022-12-27T12:41:16.725Z</time>
      </trkpt>
      <trkpt lat="44.62465" lon="-0.96383">
        <ele>57.902966</ele>
        <time>2022-12-27T12:41:20.719Z</time>
      </trkpt>
      <trkpt lat="44.62457" lon="-0.96373">
        <ele>58.143973</ele>
        <time>2022-12-27T12:41:24.724Z</time>
      </trkpt>
      <trkpt lat="44.62448" lon="-0.96363">
        <ele>58.390372</ele>
        <time>2022-12-27T12:41:28.713Z</time>
      </trkpt>
      <trkpt lat="44.6244" lon="-0.96353">
        <ele>58.536674</ele>
        <time>2022-12-27T12:41:32.700Z</time>
      </trkpt>
      <trkpt lat="44.62433" lon="-0.96344">
        <ele>58.591527</ele>
        <time>2022-12-27T12:41:36.723Z</time>
      </trkpt>
      <trkpt lat="44.62425" lon="-0.96335">
        <ele>58.644861</ele>
        <time>2022-12-27T12:41:40.724Z</time>
      </trkpt>
      <trkpt lat="44.62418" lon="-0.96326">
        <ele>58.698962</ele>
        <time>2022-12-27T12:41:44.726Z</time>
      </trkpt>
      <trkpt lat="44.62411" lon="-0.96318">
        <ele>58.750625</ele>
        <time>2022-12-27T12:41:48.717Z</time>
      </trkpt>
      <trkpt lat="44.62403" lon="-0.9631">
        <ele>58.804209</ele>
        <time>2022-12-27T12:41:52.720Z</time>
      </trkpt>
      <trkpt lat="44.62394" lon="-0.96304">
        <ele>58.855253</ele>
        <time>2022-12-27T12:41:56.705Z</time>
      </trkpt>
      <trkpt lat="44.62385" lon="-0.96295">
        <ele>58.916937</ele>
        <time>2022-12-27T12:42:01.724Z</time>
      </trkpt>
      <trkpt lat="44.62377" lon="-0.96288">
        <ele>58.969722</ele>
        <time>2022-12-27T12:42:05.731Z</time>
      </trkpt>
      <trkpt lat="44.62368" lon="-0.96281">
        <ele>59.026549</ele>
        <time>2022-12-27T12:42:09.695Z</time>
      </trkpt>
      <trkpt lat="44.6236" lon="-0.96275">
        <ele>59.076924</ele>
        <time>2022-12-27T12:42:12.721Z</time>
      </trkpt>
      <trkpt lat="44.62352" lon="-0.96268">
        <ele>59.130652</ele>
        <time>2022-12-27T12:42:15.716Z</time>
      </trkpt>
      <trkpt lat="44.62344" lon="-0.9626">
        <ele>59.183337</ele>
        <time>2022-12-27T12:42:18.720Z</time>
      </trkpt>
      <trkpt lat="44.62333" lon="-0.96255">
        <ele>59.244255</ele>
        <time>2022-12-27T12:42:21.709Z</time>
      </trkpt>
      <trkpt lat="44.62324" lon="-0.96265">
        <ele>59.308629</ele>
        <time>2022-12-27T12:42:24.720Z</time>
      </trkpt>
      <trkpt lat="44.62318" lon="-0.9628">
        <ele>59.375256</ele>
        <time>2022-12-27T12:42:27.725Z</time>
      </trkpt>
      <trkpt lat="44.62312" lon="-0.96293">
        <ele>59.437781</ele>
        <time>2022-12-27T12:42:30.703Z</time>
      </trkpt>
      <trkpt lat="44.62303" lon="-0.96298">
        <ele>59.488476</ele>
        <time>2022-12-27T12:42:33.717Z</time>
      </trkpt>
      <trkpt lat="44.62296" lon="-0.96286">
        <ele>59.32509</ele>
        <time>2022-12-27T12:42:37.726Z</time>
      </trkpt>
      <trkpt lat="44.62295" lon="-0.96272">
        <ele>59.147469</ele>
        <time>2022-12-27T12:42:40.717Z</time>
      </trkpt>
      <trkpt lat="44.62297" lon="-0.96256">
        <ele>58.943269</ele>
        <time>2022-12-27T12:42:43.726Z</time>
      </trkpt>
      <trkpt lat="44.62301" lon="-0.96238">
        <ele>58.722203</ele>
        <time>2022-12-27T12:42:46.727Z</time>
      </trkpt>
      <trkpt lat="44.62303" lon="-0.96221">
        <ele>58.499547</ele>
        <time>2022-12-27T12:42:49.718Z</time>
      </trkpt>
      <trkpt lat="44.62303" lon="-0.96202">
        <ele>58.262347</ele>
        <time>2022-12-27T12:42:52.720Z</time>
      </trkpt>
      <trkpt lat="44.62298" lon="-0.96189">
        <ele>58.089543</ele>
        <time>2022-12-27T12:42:54.717Z</time>
      </trkpt>
      <trkpt lat="44.6229" lon="-0.96179">
        <ele>57.908657</ele>
        <time>2022-12-27T12:42:56.726Z</time>
      </trkpt>
      <trkpt lat="44.62283" lon="-0.96171">
        <ele>57.7374</ele>
        <time>2022-12-27T12:42:58.723Z</time>
      </trkpt>
      <trkpt lat="44.62275" lon="-0.96162">
        <ele>57.568431</ele>
        <time>2022-12-27T12:43:00.704Z</time>
      </trkpt>
      <trkpt lat="44.62265" lon="-0.9615">
        <ele>57.340468</ele>
        <time>2022-12-27T12:43:03.730Z</time>
      </trkpt>
      <trkpt lat="44.62255" lon="-0.96139">
        <ele>57.117978</ele>
        <time>2022-12-27T12:43:06.717Z</time>
      </trkpt>
      <trkpt lat="44.62247" lon="-0.9613">
        <ele>56.93544</ele>
        <time>2022-12-27T12:43:08.722Z</time>
      </trkpt>
      <trkpt lat="44.6224" lon="-0.9612">
        <ele>56.760908</ele>
        <time>2022-12-27T12:43:10.723Z</time>
      </trkpt>
      <trkpt lat="44.62232" lon="-0.96112">
        <ele>56.594074</ele>
        <time>2022-12-27T12:43:12.723Z</time>
      </trkpt>
      <trkpt lat="44.62224" lon="-0.96103">
        <ele>56.416477</ele>
        <time>2022-12-27T12:43:14.722Z</time>
      </trkpt>
      <trkpt lat="44.62217" lon="-0.96095">
        <ele>56.342353</ele>
        <time>2022-12-27T12:43:16.715Z</time>
      </trkpt>
      <trkpt lat="44.6221" lon="-0.96086">
        <ele>56.305267</ele>
        <time>2022-12-27T12:43:18.729Z</time>
      </trkpt>
      <trkpt lat="44.62202" lon="-0.96077">
        <ele>56.267278</ele>
        <time>2022-12-27T12:43:20.714Z</time>
      </trkpt>
      <trkpt lat="44.62193" lon="-0.96068">
        <ele>56.228918</ele>
        <time>2022-12-27T12:43:22.732Z</time>
      </trkpt>
      <trkpt lat="44.62185" lon="-0.96059">
        <ele>56.189899</ele>
        <time>2022-12-27T12:43:24.707Z</time>
      </trkpt>
      <trkpt lat="44.62176" lon="-0.96049">
        <ele>56.148643</ele>
        <time>2022-12-27T12:43:26.727Z</time>
      </trkpt>
      <trkpt lat="44.62168" lon="-0.96039">
        <ele>56.108429</ele>
        <time>2022-12-27T12:43:28.723Z</time>
      </trkpt>
      <trkpt lat="44.6216" lon="-0.9603">
        <ele>56.071404</ele>
        <time>2022-12-27T12:43:30.719Z</time>
      </trkpt>
      <trkpt lat="44.62152" lon="-0.9602">
        <ele>56.031559</ele>
        <time>2022-12-27T12:43:32.717Z</time>
      </trkpt>
      <trkpt lat="44.62144" lon="-0.96011">
        <ele>55.992047</ele>
        <time>2022-12-27T12:43:34.717Z</time>
      </trkpt>
      <trkpt lat="44.62135" lon="-0.96002">
        <ele>55.953804</ele>
        <time>2022-12-27T12:43:36.718Z</time>
      </trkpt>
      <trkpt lat="44.62127" lon="-0.95993">
        <ele>55.915362</ele>
        <time>2022-12-27T12:43:38.723Z</time>
      </trkpt>
      <trkpt lat="44.6212" lon="-0.95982">
        <ele>55.875759</ele>
        <time>2022-12-27T12:43:40.719Z</time>
      </trkpt>
      <trkpt lat="44.62112" lon="-0.95973">
        <ele>55.837099</ele>
        <time>2022-12-27T12:43:42.710Z</time>
      </trkpt>
      <trkpt lat="44.62104" lon="-0.95965">
        <ele>55.801916</ele>
        <time>2022-12-27T12:43:44.727Z</time>
      </trkpt>
      <trkpt lat="44.62097" lon="-0.95956">
        <ele>55.76609</ele>
        <time>2022-12-27T12:43:46.725Z</time>
      </trkpt>
      <trkpt lat="44.6209" lon="-0.95947">
        <ele>55.731663</ele>
        <time>2022-12-27T12:43:48.715Z</time>
      </trkpt>
      <trkpt lat="44.62081" lon="-0.95939">
        <ele>55.707524</ele>
        <time>2022-12-27T12:43:50.728Z</time>
      </trkpt>
      <trkpt lat="44.62073" lon="-0.9593">
        <ele>55.741355</ele>
        <time>2022-12-27T12:43:52.726Z</time>
      </trkpt>
      <trkpt lat="44.62066" lon="-0.95921">
        <ele>55.77626</ele>
        <time>2022-12-27T12:43:54.706Z</time>
      </trkpt>
      <trkpt lat="44.62058" lon="-0.95911">
        <ele>55.810626</ele>
        <time>2022-12-27T12:43:56.711Z</time>
      </trkpt>
      <trkpt lat="44.6205" lon="-0.95902">
        <ele>55.843766</ele>
        <time>2022-12-27T12:43:58.726Z</time>
      </trkpt>
      <trkpt lat="44.62043" lon="-0.95893">
        <ele>55.875338</ele>
        <time>2022-12-27T12:44:00.726Z</time>
      </trkpt>
      <trkpt lat="44.62035" lon="-0.95885">
        <ele>55.91064</ele>
        <time>2022-12-27T12:44:02.729Z</time>
      </trkpt>
      <trkpt lat="44.62028" lon="-0.95876">
        <ele>55.941486</ele>
        <time>2022-12-27T12:44:04.719Z</time>
      </trkpt>
      <trkpt lat="44.62018" lon="-0.95865">
        <ele>55.984596</ele>
        <time>2022-12-27T12:44:07.716Z</time>
      </trkpt>
      <trkpt lat="44.62008" lon="-0.95853">
        <ele>56.026479</ele>
        <time>2022-12-27T12:44:10.732Z</time>
      </trkpt>
      <trkpt lat="44.61999" lon="-0.95842">
        <ele>56.065554</ele>
        <time>2022-12-27T12:44:13.728Z</time>
      </trkpt>
      <trkpt lat="44.6199" lon="-0.95832">
        <ele>56.106469</ele>
        <time>2022-12-27T12:44:16.715Z</time>
      </trkpt>
      <trkpt lat="44.6198" lon="-0.95821">
        <ele>56.148058</ele>
        <time>2022-12-27T12:44:19.698Z</time>
      </trkpt>
      <trkpt lat="44.6197" lon="-0.95809">
        <ele>56.191578</ele>
        <time>2022-12-27T12:44:22.725Z</time>
      </trkpt>
      <trkpt lat="44.61961" lon="-0.95797">
        <ele>56.234374</ele>
        <time>2022-12-27T12:44:25.720Z</time>
      </trkpt>
      <trkpt lat="44.61951" lon="-0.95785">
        <ele>56.27759</ele>
        <time>2022-12-27T12:44:28.710Z</time>
      </trkpt>
      <trkpt lat="44.61944" lon="-0.95777">
        <ele>56.308914</ele>
        <time>2022-12-27T12:44:30.716Z</time>
      </trkpt>
      <trkpt lat="44.61936" lon="-0.95769">
        <ele>56.342251</ele>
        <time>2022-12-27T12:44:32.714Z</time>
      </trkpt>
      <trkpt lat="44.61929" lon="-0.9576">
        <ele>56.373467</ele>
        <time>2022-12-27T12:44:34.723Z</time>
      </trkpt>
      <trkpt lat="44.61922" lon="-0.95752">
        <ele>56.406733</ele>
        <time>2022-12-27T12:44:36.712Z</time>
      </trkpt>
      <trkpt lat="44.61914" lon="-0.95743">
        <ele>56.439841</ele>
        <time>2022-12-27T12:44:38.726Z</time>
      </trkpt>
      <trkpt lat="44.61907" lon="-0.95734">
        <ele>56.47232</ele>
        <time>2022-12-27T12:44:40.696Z</time>
      </trkpt>
      <trkpt lat="44.619" lon="-0.95726">
        <ele>56.504214</ele>
        <time>2022-12-27T12:44:42.724Z</time>
      </trkpt>
      <trkpt lat="44.61892" lon="-0.95718">
        <ele>56.536827</ele>
        <time>2022-12-27T12:44:44.718Z</time>
      </trkpt>
      <trkpt lat="44.61885" lon="-0.9571">
        <ele>56.569829</ele>
        <time>2022-12-27T12:44:46.729Z</time>
      </trkpt>
      <trkpt lat="44.61878" lon="-0.95702">
        <ele>56.601575</ele>
        <time>2022-12-27T12:44:48.716Z</time>
      </trkpt>
      <trkpt lat="44.61871" lon="-0.95694">
        <ele>56.633313</ele>
        <time>2022-12-27T12:44:50.719Z</time>
      </trkpt>
      <trkpt lat="44.61864" lon="-0.95685">
        <ele>56.665112</ele>
        <time>2022-12-27T12:44:52.726Z</time>
      </trkpt>
      <trkpt lat="44.61857" lon="-0.95677">
        <ele>56.697334</ele>
        <time>2022-12-27T12:44:54.716Z</time>
      </trkpt>
      <trkpt lat="44.61849" lon="-0.95668">
        <ele>56.731022</ele>
        <time>2022-12-27T12:44:56.730Z</time>
      </trkpt>
      <trkpt lat="44.61842" lon="-0.95659">
        <ele>56.763242</ele>
        <time>2022-12-27T12:44:58.722Z</time>
      </trkpt>
      <trkpt lat="44.61835" lon="-0.95651">
        <ele>56.795773</ele>
        <time>2022-12-27T12:45:00.728Z</time>
      </trkpt>
      <trkpt lat="44.61825" lon="-0.95639">
        <ele>56.838845</ele>
        <time>2022-12-27T12:45:03.720Z</time>
      </trkpt>
      <trkpt lat="44.61818" lon="-0.95631">
        <ele>56.870763</ele>
        <time>2022-12-27T12:45:05.727Z</time>
      </trkpt>
      <trkpt lat="44.61811" lon="-0.95624">
        <ele>56.902258</ele>
        <time>2022-12-27T12:45:07.728Z</time>
      </trkpt>
      <trkpt lat="44.61803" lon="-0.95615">
        <ele>56.928545</ele>
        <time>2022-12-27T12:45:09.711Z</time>
      </trkpt>
      <trkpt lat="44.61793" lon="-0.95604">
        <ele>56.949585</ele>
        <time>2022-12-27T12:45:12.733Z</time>
      </trkpt>
      <trkpt lat="44.61783" lon="-0.95592">
        <ele>56.970746</ele>
        <time>2022-12-27T12:45:15.715Z</time>
      </trkpt>
      <trkpt lat="44.61774" lon="-0.95582">
        <ele>56.990281</ele>
        <time>2022-12-27T12:45:18.707Z</time>
      </trkpt>
      <trkpt lat="44.61765" lon="-0.95572">
        <ele>57.007506</ele>
        <time>2022-12-27T12:45:21.705Z</time>
      </trkpt>
      <trkpt lat="44.61758" lon="-0.95563">
        <ele>57.02394</ele>
        <time>2022-12-27T12:45:24.717Z</time>
      </trkpt>
      <trkpt lat="44.61749" lon="-0.95552">
        <ele>57.043398</ele>
        <time>2022-12-27T12:45:27.713Z</time>
      </trkpt>
      <trkpt lat="44.61739" lon="-0.95541">
        <ele>57.062925</ele>
        <time>2022-12-27T12:45:30.715Z</time>
      </trkpt>
      <trkpt lat="44.61729" lon="-0.9553">
        <ele>57.083877</ele>
        <time>2022-12-27T12:45:33.707Z</time>
      </trkpt>
      <trkpt lat="44.61722" lon="-0.95521">
        <ele>57.0994</ele>
        <time>2022-12-27T12:45:35.728Z</time>
      </trkpt>
      <trkpt lat="44.61714" lon="-0.95513">
        <ele>57.114979</ele>
        <time>2022-12-27T12:45:37.715Z</time>
      </trkpt>
      <trkpt lat="44.61707" lon="-0.95504">
        <ele>57.130521</ele>
        <time>2022-12-27T12:45:39.714Z</time>
      </trkpt>
      <trkpt lat="44.61699" lon="-0.95496">
        <ele>57.146189</ele>
        <time>2022-12-27T12:45:41.722Z</time>
      </trkpt>
      <trkpt lat="44.61692" lon="-0.95487">
        <ele>57.16235</ele>
        <time>2022-12-27T12:45:43.728Z</time>
      </trkpt>
      <trkpt lat="44.61684" lon="-0.95478">
        <ele>57.178342</ele>
        <time>2022-12-27T12:45:45.719Z</time>
      </trkpt>
      <trkpt lat="44.61676" lon="-0.95469">
        <ele>57.19446</ele>
        <time>2022-12-27T12:45:47.719Z</time>
      </trkpt>
      <trkpt lat="44.61669" lon="-0.95461">
        <ele>57.209905</ele>
        <time>2022-12-27T12:45:49.726Z</time>
      </trkpt>
      <trkpt lat="44.61661" lon="-0.95452">
        <ele>57.150955</ele>
        <time>2022-12-27T12:45:51.725Z</time>
      </trkpt>
      <trkpt lat="44.61654" lon="-0.95444">
        <ele>57.064822</ele>
        <time>2022-12-27T12:45:53.722Z</time>
      </trkpt>
      <trkpt lat="44.61647" lon="-0.95435">
        <ele>56.982175</ele>
        <time>2022-12-27T12:45:55.713Z</time>
      </trkpt>
      <trkpt lat="44.61639" lon="-0.95426">
        <ele>56.894849</ele>
        <time>2022-12-27T12:45:57.699Z</time>
      </trkpt>
      <trkpt lat="44.61632" lon="-0.95417">
        <ele>56.807685</ele>
        <time>2022-12-27T12:45:59.704Z</time>
      </trkpt>
      <trkpt lat="44.61624" lon="-0.95409">
        <ele>56.722711</ele>
        <time>2022-12-27T12:46:01.706Z</time>
      </trkpt>
      <trkpt lat="44.61618" lon="-0.95401">
        <ele>56.640176</ele>
        <time>2022-12-27T12:46:03.700Z</time>
      </trkpt>
      <trkpt lat="44.6161" lon="-0.95393">
        <ele>56.558737</ele>
        <time>2022-12-27T12:46:05.728Z</time>
      </trkpt>
      <trkpt lat="44.61603" lon="-0.95384">
        <ele>56.474587</ele>
        <time>2022-12-27T12:46:07.715Z</time>
      </trkpt>
      <trkpt lat="44.61596" lon="-0.95375">
        <ele>56.385914</ele>
        <time>2022-12-27T12:46:09.721Z</time>
      </trkpt>
      <trkpt lat="44.61588" lon="-0.95366">
        <ele>56.299844</ele>
        <time>2022-12-27T12:46:11.706Z</time>
      </trkpt>
      <trkpt lat="44.61581" lon="-0.95358">
        <ele>56.215282</ele>
        <time>2022-12-27T12:46:13.710Z</time>
      </trkpt>
      <trkpt lat="44.61573" lon="-0.95348">
        <ele>56.123742</ele>
        <time>2022-12-27T12:46:15.708Z</time>
      </trkpt>
      <trkpt lat="44.61565" lon="-0.9534">
        <ele>56.031796</ele>
        <time>2022-12-27T12:46:17.725Z</time>
      </trkpt>
      <trkpt lat="44.61558" lon="-0.95331">
        <ele>55.942576</ele>
        <time>2022-12-27T12:46:19.724Z</time>
      </trkpt>
      <trkpt lat="44.6155" lon="-0.95322">
        <ele>55.854579</ele>
        <time>2022-12-27T12:46:21.715Z</time>
      </trkpt>
      <trkpt lat="44.61542" lon="-0.95313">
        <ele>55.761076</ele>
        <time>2022-12-27T12:46:23.729Z</time>
      </trkpt>
      <trkpt lat="44.61534" lon="-0.95304">
        <ele>55.670611</ele>
        <time>2022-12-27T12:46:25.730Z</time>
      </trkpt>
      <trkpt lat="44.61526" lon="-0.95295">
        <ele>55.608544</ele>
        <time>2022-12-27T12:46:27.725Z</time>
      </trkpt>
      <trkpt lat="44.61518" lon="-0.95286">
        <ele>55.622961</ele>
        <time>2022-12-27T12:46:29.721Z</time>
      </trkpt>
      <trkpt lat="44.61511" lon="-0.95277">
        <ele>55.637553</ele>
        <time>2022-12-27T12:46:31.713Z</time>
      </trkpt>
      <trkpt lat="44.61503" lon="-0.95268">
        <ele>55.651521</ele>
        <time>2022-12-27T12:46:33.720Z</time>
      </trkpt>
      <trkpt lat="44.61495" lon="-0.9526">
        <ele>55.665615</ele>
        <time>2022-12-27T12:46:35.730Z</time>
      </trkpt>
      <trkpt lat="44.61488" lon="-0.9525">
        <ele>55.680193</ele>
        <time>2022-12-27T12:46:37.729Z</time>
      </trkpt>
      <trkpt lat="44.6148" lon="-0.95241">
        <ele>55.695025</ele>
        <time>2022-12-27T12:46:39.705Z</time>
      </trkpt>
      <trkpt lat="44.61472" lon="-0.95231">
        <ele>55.709661</ele>
        <time>2022-12-27T12:46:41.710Z</time>
      </trkpt>
      <trkpt lat="44.61464" lon="-0.95222">
        <ele>55.724123</ele>
        <time>2022-12-27T12:46:43.719Z</time>
      </trkpt>
      <trkpt lat="44.61456" lon="-0.95213">
        <ele>55.738979</ele>
        <time>2022-12-27T12:46:45.724Z</time>
      </trkpt>
      <trkpt lat="44.61448" lon="-0.95204">
        <ele>55.753647</ele>
        <time>2022-12-27T12:46:47.725Z</time>
      </trkpt>
      <trkpt lat="44.6144" lon="-0.95196">
        <ele>55.76744</ele>
        <time>2022-12-27T12:46:49.701Z</time>
      </trkpt>
      <trkpt lat="44.61432" lon="-0.95187">
        <ele>55.781625</ele>
        <time>2022-12-27T12:46:51.709Z</time>
      </trkpt>
      <trkpt lat="44.61425" lon="-0.95178">
        <ele>55.796</ele>
        <time>2022-12-27T12:46:53.728Z</time>
      </trkpt>
      <trkpt lat="44.61417" lon="-0.95169">
        <ele>55.810223</ele>
        <time>2022-12-27T12:46:55.733Z</time>
      </trkpt>
      <trkpt lat="44.61409" lon="-0.9516">
        <ele>55.82425</ele>
        <time>2022-12-27T12:46:57.724Z</time>
      </trkpt>
      <trkpt lat="44.61401" lon="-0.95151">
        <ele>55.839107</ele>
        <time>2022-12-27T12:46:59.729Z</time>
      </trkpt>
      <trkpt lat="44.61393" lon="-0.95142">
        <ele>55.853743</ele>
        <time>2022-12-27T12:47:01.707Z</time>
      </trkpt>
      <trkpt lat="44.61385" lon="-0.95133">
        <ele>55.888949</ele>
        <time>2022-12-27T12:47:03.716Z</time>
      </trkpt>
      <trkpt lat="44.61377" lon="-0.95125">
        <ele>55.934649</ele>
        <time>2022-12-27T12:47:05.704Z</time>
      </trkpt>
      <trkpt lat="44.61371" lon="-0.95116">
        <ele>55.980217</ele>
        <time>2022-12-27T12:47:07.719Z</time>
      </trkpt>
      <trkpt lat="44.61364" lon="-0.95107">
        <ele>56.026756</ele>
        <time>2022-12-27T12:47:09.725Z</time>
      </trkpt>
      <trkpt lat="44.61356" lon="-0.95099">
        <ele>56.074841</ele>
        <time>2022-12-27T12:47:11.702Z</time>
      </trkpt>
      <trkpt lat="44.61348" lon="-0.9509">
        <ele>56.12394</ele>
        <time>2022-12-27T12:47:13.715Z</time>
      </trkpt>
      <trkpt lat="44.61341" lon="-0.95081">
        <ele>56.172896</ele>
        <time>2022-12-27T12:47:15.723Z</time>
      </trkpt>
      <trkpt lat="44.61332" lon="-0.95073">
        <ele>56.222814</ele>
        <time>2022-12-27T12:47:17.719Z</time>
      </trkpt>
      <trkpt lat="44.61325" lon="-0.95065">
        <ele>56.272216</ele>
        <time>2022-12-27T12:47:19.713Z</time>
      </trkpt>
      <trkpt lat="44.61317" lon="-0.95055">
        <ele>56.323508</ele>
        <time>2022-12-27T12:47:21.723Z</time>
      </trkpt>
      <trkpt lat="44.61309" lon="-0.95046">
        <ele>56.37305</ele>
        <time>2022-12-27T12:47:23.716Z</time>
      </trkpt>
      <trkpt lat="44.61302" lon="-0.95036">
        <ele>56.422148</ele>
        <time>2022-12-27T12:47:25.725Z</time>
      </trkpt>
      <trkpt lat="44.61295" lon="-0.95028">
        <ele>56.468595</ele>
        <time>2022-12-27T12:47:27.722Z</time>
      </trkpt>
      <trkpt lat="44.61287" lon="-0.9502">
        <ele>56.514034</ele>
        <time>2022-12-27T12:47:29.716Z</time>
      </trkpt>
      <trkpt lat="44.61281" lon="-0.95011">
        <ele>56.559602</ele>
        <time>2022-12-27T12:47:31.702Z</time>
      </trkpt>
      <trkpt lat="44.61273" lon="-0.95003">
        <ele>56.606654</ele>
        <time>2022-12-27T12:47:33.704Z</time>
      </trkpt>
      <trkpt lat="44.61266" lon="-0.94993">
        <ele>56.6578</ele>
        <time>2022-12-27T12:47:35.724Z</time>
      </trkpt>
      <trkpt lat="44.61258" lon="-0.94984">
        <ele>56.710078</ele>
        <time>2022-12-27T12:47:37.722Z</time>
      </trkpt>
      <trkpt lat="44.6125" lon="-0.94974">
        <ele>56.75778</ele>
        <time>2022-12-27T12:47:39.725Z</time>
      </trkpt>
      <trkpt lat="44.61242" lon="-0.94966">
        <ele>56.788307</ele>
        <time>2022-12-27T12:47:41.707Z</time>
      </trkpt>
      <trkpt lat="44.61233" lon="-0.94957">
        <ele>56.820869</ele>
        <time>2022-12-27T12:47:43.715Z</time>
      </trkpt>
      <trkpt lat="44.61225" lon="-0.94947">
        <ele>56.852094</ele>
        <time>2022-12-27T12:47:45.726Z</time>
      </trkpt>
      <trkpt lat="44.61217" lon="-0.94937">
        <ele>56.883293</ele>
        <time>2022-12-27T12:47:47.726Z</time>
      </trkpt>
      <trkpt lat="44.61209" lon="-0.94928">
        <ele>56.914587</ele>
        <time>2022-12-27T12:47:49.726Z</time>
      </trkpt>
      <trkpt lat="44.61201" lon="-0.94919">
        <ele>56.944825</ele>
        <time>2022-12-27T12:47:51.704Z</time>
      </trkpt>
      <trkpt lat="44.61193" lon="-0.9491">
        <ele>56.974751</ele>
        <time>2022-12-27T12:47:53.718Z</time>
      </trkpt>
      <trkpt lat="44.61186" lon="-0.94902">
        <ele>57.002345</ele>
        <time>2022-12-27T12:47:55.729Z</time>
      </trkpt>
      <trkpt lat="44.61177" lon="-0.94891">
        <ele>57.039004</ele>
        <time>2022-12-27T12:47:58.725Z</time>
      </trkpt>
      <trkpt lat="44.61167" lon="-0.94881">
        <ele>57.075164</ele>
        <time>2022-12-27T12:48:01.701Z</time>
      </trkpt>
      <trkpt lat="44.61158" lon="-0.94869">
        <ele>57.112678</ele>
        <time>2022-12-27T12:48:04.708Z</time>
      </trkpt>
      <trkpt lat="44.61148" lon="-0.94859">
        <ele>57.148446</ele>
        <time>2022-12-27T12:48:07.718Z</time>
      </trkpt>
      <trkpt lat="44.61139" lon="-0.94848">
        <ele>57.183768</ele>
        <time>2022-12-27T12:48:10.716Z</time>
      </trkpt>
      <trkpt lat="44.61129" lon="-0.94837">
        <ele>57.221659</ele>
        <time>2022-12-27T12:48:13.719Z</time>
      </trkpt>
      <trkpt lat="44.61119" lon="-0.94825">
        <ele>57.262421</ele>
        <time>2022-12-27T12:48:16.725Z</time>
      </trkpt>
      <trkpt lat="44.61112" lon="-0.94817">
        <ele>57.289384</ele>
        <time>2022-12-27T12:48:18.720Z</time>
      </trkpt>
      <trkpt lat="44.61104" lon="-0.94809">
        <ele>57.195496</ele>
        <time>2022-12-27T12:48:20.721Z</time>
      </trkpt>
      <trkpt lat="44.61097" lon="-0.94801">
        <ele>57.099903</ele>
        <time>2022-12-27T12:48:22.729Z</time>
      </trkpt>
      <trkpt lat="44.6109" lon="-0.94792">
        <ele>57.001443</ele>
        <time>2022-12-27T12:48:24.717Z</time>
      </trkpt>
      <trkpt lat="44.61082" lon="-0.94783">
        <ele>56.901251</ele>
        <time>2022-12-27T12:48:26.719Z</time>
      </trkpt>
      <trkpt lat="44.61075" lon="-0.94774">
        <ele>56.804049</ele>
        <time>2022-12-27T12:48:28.728Z</time>
      </trkpt>
      <trkpt lat="44.61064" lon="-0.94763">
        <ele>56.665751</ele>
        <time>2022-12-27T12:48:31.705Z</time>
      </trkpt>
      <trkpt lat="44.61057" lon="-0.94754">
        <ele>56.563659</ele>
        <time>2022-12-27T12:48:33.723Z</time>
      </trkpt>
      <trkpt lat="44.61049" lon="-0.94746">
        <ele>56.463836</ele>
        <time>2022-12-27T12:48:35.714Z</time>
      </trkpt>
      <trkpt lat="44.61041" lon="-0.94736">
        <ele>56.356568</ele>
        <time>2022-12-27T12:48:37.725Z</time>
      </trkpt>
      <trkpt lat="44.61033" lon="-0.94727">
        <ele>56.251955</ele>
        <time>2022-12-27T12:48:39.725Z</time>
      </trkpt>
      <trkpt lat="44.61025" lon="-0.94718">
        <ele>56.147451</ele>
        <time>2022-12-27T12:48:41.720Z</time>
      </trkpt>
      <trkpt lat="44.61018" lon="-0.94709">
        <ele>56.045217</ele>
        <time>2022-12-27T12:48:43.728Z</time>
      </trkpt>
      <trkpt lat="44.6101" lon="-0.94702">
        <ele>55.948412</ele>
        <time>2022-12-27T12:48:45.726Z</time>
      </trkpt>
      <trkpt lat="44.61003" lon="-0.94692">
        <ele>55.84726</ele>
        <time>2022-12-27T12:48:47.730Z</time>
      </trkpt>
      <trkpt lat="44.60996" lon="-0.94684">
        <ele>55.753047</ele>
        <time>2022-12-27T12:48:49.714Z</time>
      </trkpt>
      <trkpt lat="44.60988" lon="-0.94675">
        <ele>55.654111</ele>
        <time>2022-12-27T12:48:51.721Z</time>
      </trkpt>
      <trkpt lat="44.60981" lon="-0.94668">
        <ele>55.560261</ele>
        <time>2022-12-27T12:48:53.714Z</time>
      </trkpt>
      <trkpt lat="44.60971" lon="-0.94656">
        <ele>55.44146</ele>
        <time>2022-12-27T12:48:56.729Z</time>
      </trkpt>
      <trkpt lat="44.60961" lon="-0.94646">
        <ele>55.450463</ele>
        <time>2022-12-27T12:48:59.726Z</time>
      </trkpt>
      <trkpt lat="44.60953" lon="-0.94637">
        <ele>55.457491</ele>
        <time>2022-12-27T12:49:01.722Z</time>
      </trkpt>
      <trkpt lat="44.60947" lon="-0.94628">
        <ele>55.464001</ele>
        <time>2022-12-27T12:49:03.728Z</time>
      </trkpt>
      <trkpt lat="44.60939" lon="-0.94619">
        <ele>55.471038</ele>
        <time>2022-12-27T12:49:05.716Z</time>
      </trkpt>
      <trkpt lat="44.6093" lon="-0.9461">
        <ele>55.478448</ele>
        <time>2022-12-27T12:49:07.719Z</time>
      </trkpt>
      <trkpt lat="44.60923" lon="-0.94601">
        <ele>55.485796</ele>
        <time>2022-12-27T12:49:09.717Z</time>
      </trkpt>
      <trkpt lat="44.60915" lon="-0.94592">
        <ele>55.492689</ele>
        <time>2022-12-27T12:49:11.716Z</time>
      </trkpt>
      <trkpt lat="44.60908" lon="-0.94583">
        <ele>55.499451</ele>
        <time>2022-12-27T12:49:13.705Z</time>
      </trkpt>
      <trkpt lat="44.60898" lon="-0.94571">
        <ele>55.509164</ele>
        <time>2022-12-27T12:49:16.712Z</time>
      </trkpt>
      <trkpt lat="44.60891" lon="-0.94562">
        <ele>55.515674</ele>
        <time>2022-12-27T12:49:18.711Z</time>
      </trkpt>
      <trkpt lat="44.60884" lon="-0.94553">
        <ele>55.522307</ele>
        <time>2022-12-27T12:49:20.728Z</time>
      </trkpt>
      <trkpt lat="44.60874" lon="-0.94541">
        <ele>55.531461</ele>
        <time>2022-12-27T12:49:23.725Z</time>
      </trkpt>
      <trkpt lat="44.60865" lon="-0.94532">
        <ele>55.539796</ele>
        <time>2022-12-27T12:49:26.719Z</time>
      </trkpt>
      <trkpt lat="44.60855" lon="-0.9452">
        <ele>55.548598</ele>
        <time>2022-12-27T12:49:29.724Z</time>
      </trkpt>
      <trkpt lat="44.60846" lon="-0.9451">
        <ele>55.556933</ele>
        <time>2022-12-27T12:49:32.731Z</time>
      </trkpt>
      <trkpt lat="44.60838" lon="-0.945">
        <ele>55.564683</ele>
        <time>2022-12-27T12:49:35.728Z</time>
      </trkpt>
      <trkpt lat="44.6083" lon="-0.9449">
        <ele>55.616781</ele>
        <time>2022-12-27T12:49:38.731Z</time>
      </trkpt>
      <trkpt lat="44.60821" lon="-0.94482">
        <ele>55.718128</ele>
        <time>2022-12-27T12:49:42.735Z</time>
      </trkpt>
      <trkpt lat="44.60813" lon="-0.94473">
        <ele>55.814522</ele>
        <time>2022-12-27T12:49:47.725Z</time>
      </trkpt>
      <trkpt lat="44.60806" lon="-0.94463">
        <ele>55.907678</ele>
        <time>2022-12-27T12:49:51.713Z</time>
      </trkpt>
      <trkpt lat="44.60798" lon="-0.94454">
        <ele>55.999259</ele>
        <time>2022-12-27T12:49:54.724Z</time>
      </trkpt>
      <trkpt lat="44.60789" lon="-0.94444">
        <ele>56.108499</ele>
        <time>2022-12-27T12:49:57.731Z</time>
      </trkpt>
      <trkpt lat="44.60779" lon="-0.94432">
        <ele>56.233404</ele>
        <time>2022-12-27T12:50:00.732Z</time>
      </trkpt>
      <trkpt lat="44.60771" lon="-0.94424">
        <ele>56.323782</ele>
        <time>2022-12-27T12:50:02.784Z</time>
      </trkpt>
      <trkpt lat="44.60764" lon="-0.94415">
        <ele>56.411789</ele>
        <time>2022-12-27T12:50:04.733Z</time>
      </trkpt>
      <trkpt lat="44.60756" lon="-0.94407">
        <ele>56.499435</ele>
        <time>2022-12-27T12:50:06.729Z</time>
      </trkpt>
      <trkpt lat="44.60749" lon="-0.94398">
        <ele>56.587114</ele>
        <time>2022-12-27T12:50:08.812Z</time>
      </trkpt>
      <trkpt lat="44.60742" lon="-0.9439">
        <ele>56.671565</ele>
        <time>2022-12-27T12:50:10.731Z</time>
      </trkpt>
      <trkpt lat="44.60732" lon="-0.94379">
        <ele>56.792855</ele>
        <time>2022-12-27T12:50:13.734Z</time>
      </trkpt>
      <trkpt lat="44.60725" lon="-0.9437">
        <ele>56.877818</ele>
        <time>2022-12-27T12:50:15.728Z</time>
      </trkpt>
      <trkpt lat="44.60715" lon="-0.94359">
        <ele>56.997326</ele>
        <time>2022-12-27T12:50:18.731Z</time>
      </trkpt>
      <trkpt lat="44.60705" lon="-0.94348">
        <ele>57.117474</ele>
        <time>2022-12-27T12:50:21.705Z</time>
      </trkpt>
      <trkpt lat="44.60695" lon="-0.94336">
        <ele>57.241962</ele>
        <time>2022-12-27T12:50:24.719Z</time>
      </trkpt>
      <trkpt lat="44.60685" lon="-0.94324">
        <ele>57.410863</ele>
        <time>2022-12-27T12:50:27.733Z</time>
      </trkpt>
      <trkpt lat="44.60676" lon="-0.94314">
        <ele>57.566951</ele>
        <time>2022-12-27T12:50:30.732Z</time>
      </trkpt>
      <trkpt lat="44.60666" lon="-0.94304">
        <ele>57.724325</ele>
        <time>2022-12-27T12:50:33.719Z</time>
      </trkpt>
      <trkpt lat="44.60659" lon="-0.94296">
        <ele>57.847568</ele>
        <time>2022-12-27T12:50:35.728Z</time>
      </trkpt>
      <trkpt lat="44.60649" lon="-0.94284">
        <ele>58.022762</ele>
        <time>2022-12-27T12:50:38.716Z</time>
      </trkpt>
      <trkpt lat="44.6064" lon="-0.94274">
        <ele>58.172135</ele>
        <time>2022-12-27T12:50:40.708Z</time>
      </trkpt>
      <trkpt lat="44.60632" lon="-0.94264">
        <ele>58.313147</ele>
        <time>2022-12-27T12:50:42.736Z</time>
      </trkpt>
      <trkpt lat="44.60624" lon="-0.94254">
        <ele>58.448667</ele>
        <time>2022-12-27T12:50:44.711Z</time>
      </trkpt>
      <trkpt lat="44.60616" lon="-0.94245">
        <ele>58.581431</ele>
        <time>2022-12-27T12:50:46.702Z</time>
      </trkpt>
      <trkpt lat="44.6061" lon="-0.94235">
        <ele>58.707213</ele>
        <time>2022-12-27T12:50:48.734Z</time>
      </trkpt>
      <trkpt lat="44.60601" lon="-0.94223">
        <ele>58.87866</ele>
        <time>2022-12-27T12:50:51.708Z</time>
      </trkpt>
      <trkpt lat="44.60591" lon="-0.94212">
        <ele>59.038355</ele>
        <time>2022-12-27T12:50:54.732Z</time>
      </trkpt>
      <trkpt lat="44.60583" lon="-0.94201">
        <ele>59.190882</ele>
        <time>2022-12-27T12:50:57.735Z</time>
      </trkpt>
      <trkpt lat="44.60574" lon="-0.94191">
        <ele>59.339122</ele>
        <time>2022-12-27T12:51:00.736Z</time>
      </trkpt>
      <trkpt lat="44.60565" lon="-0.94182">
        <ele>59.477764</ele>
        <time>2022-12-27T12:51:03.734Z</time>
      </trkpt>
      <trkpt lat="44.60558" lon="-0.94172">
        <ele>59.606686</ele>
        <time>2022-12-27T12:51:06.728Z</time>
      </trkpt>
      <trkpt lat="44.6055" lon="-0.94164">
        <ele>59.377972</ele>
        <time>2022-12-27T12:51:09.729Z</time>
      </trkpt>
      <trkpt lat="44.60542" lon="-0.94157">
        <ele>59.130335</ele>
        <time>2022-12-27T12:51:14.734Z</time>
      </trkpt>
      <trkpt lat="44.6053" lon="-0.94142">
        <ele>58.758927</ele>
        <time>2022-12-27T12:52:15.737Z</time>
      </trkpt>
      <trkpt lat="44.60522" lon="-0.94133">
        <ele>58.515023</ele>
        <time>2022-12-27T12:52:18.798Z</time>
      </trkpt>
      <trkpt lat="44.60514" lon="-0.94123">
        <ele>58.24525</ele>
        <time>2022-12-27T12:52:21.712Z</time>
      </trkpt>
      <trkpt lat="44.60504" lon="-0.94114">
        <ele>57.962971</ele>
        <time>2022-12-27T12:52:24.712Z</time>
      </trkpt>
      <trkpt lat="44.60495" lon="-0.94103">
        <ele>57.663274</ele>
        <time>2022-12-27T12:52:27.733Z</time>
      </trkpt>
      <trkpt lat="44.60486" lon="-0.94092">
        <ele>57.373968</ele>
        <time>2022-12-27T12:52:30.734Z</time>
      </trkpt>
      <trkpt lat="44.60476" lon="-0.9408">
        <ele>57.060235</ele>
        <time>2022-12-27T12:52:33.733Z</time>
      </trkpt>
      <trkpt lat="44.60467" lon="-0.94073">
        <ele>56.819458</ele>
        <time>2022-12-27T12:52:35.768Z</time>
      </trkpt>
      <trkpt lat="44.6046" lon="-0.94064">
        <ele>56.592208</ele>
        <time>2022-12-27T12:52:37.736Z</time>
      </trkpt>
      <trkpt lat="44.60453" lon="-0.94055">
        <ele>56.366534</ele>
        <time>2022-12-27T12:52:39.735Z</time>
      </trkpt>
      <trkpt lat="44.60446" lon="-0.94046">
        <ele>56.134008</ele>
        <time>2022-12-27T12:52:41.707Z</time>
      </trkpt>
      <trkpt lat="44.60439" lon="-0.94037">
        <ele>55.907392</ele>
        <time>2022-12-27T12:52:43.711Z</time>
      </trkpt>
      <trkpt lat="44.60432" lon="-0.94028">
        <ele>55.67431</ele>
        <time>2022-12-27T12:52:45.727Z</time>
      </trkpt>
      <trkpt lat="44.60425" lon="-0.94018">
        <ele>55.43591</ele>
        <time>2022-12-27T12:52:47.728Z</time>
      </trkpt>
      <trkpt lat="44.60418" lon="-0.94008">
        <ele>55.299497</ele>
        <time>2022-12-27T12:52:49.756Z</time>
      </trkpt>
      <trkpt lat="44.60411" lon="-0.93998">
        <ele>55.449722</ele>
        <time>2022-12-27T12:52:51.723Z</time>
      </trkpt>
      <trkpt lat="44.60404" lon="-0.93989">
        <ele>55.587265</ele>
        <time>2022-12-27T12:52:53.729Z</time>
      </trkpt>
      <trkpt lat="44.60398" lon="-0.9398">
        <ele>55.72747</ele>
        <time>2022-12-27T12:52:55.728Z</time>
      </trkpt>
      <trkpt lat="44.60389" lon="-0.93968">
        <ele>55.904948</ele>
        <time>2022-12-27T12:52:58.716Z</time>
      </trkpt>
      <trkpt lat="44.60384" lon="-0.93956">
        <ele>56.058989</ele>
        <time>2022-12-27T12:53:01.703Z</time>
      </trkpt>
      <trkpt lat="44.60377" lon="-0.93947">
        <ele>56.193664</ele>
        <time>2022-12-27T12:53:03.711Z</time>
      </trkpt>
      <trkpt lat="44.60368" lon="-0.93933">
        <ele>56.390565</ele>
        <time>2022-12-27T12:53:06.709Z</time>
      </trkpt>
      <trkpt lat="44.60359" lon="-0.93919">
        <ele>56.58803</ele>
        <time>2022-12-27T12:53:09.712Z</time>
      </trkpt>
      <trkpt lat="44.60353" lon="-0.93909">
        <ele>56.723757</ele>
        <time>2022-12-27T12:53:11.711Z</time>
      </trkpt>
      <trkpt lat="44.60348" lon="-0.93899">
        <ele>56.859713</ele>
        <time>2022-12-27T12:53:13.727Z</time>
      </trkpt>
      <trkpt lat="44.60342" lon="-0.93889">
        <ele>56.995023</ele>
        <time>2022-12-27T12:53:15.729Z</time>
      </trkpt>
      <trkpt lat="44.60336" lon="-0.93879">
        <ele>57.133737</ele>
        <time>2022-12-27T12:53:17.863Z</time>
      </trkpt>
      <trkpt lat="44.60331" lon="-0.93868">
        <ele>57.268048</ele>
        <time>2022-12-27T12:53:19.718Z</time>
      </trkpt>
      <trkpt lat="44.60326" lon="-0.93858">
        <ele>57.405111</ele>
        <time>2022-12-27T12:53:21.718Z</time>
      </trkpt>
      <trkpt lat="44.60319" lon="-0.93848">
        <ele>57.546156</ele>
        <time>2022-12-27T12:53:23.728Z</time>
      </trkpt>
      <trkpt lat="44.60311" lon="-0.93833">
        <ele>57.739859</ele>
        <time>2022-12-27T12:53:26.737Z</time>
      </trkpt>
      <trkpt lat="44.60306" lon="-0.93823">
        <ele>57.876678</ele>
        <time>2022-12-27T12:53:28.728Z</time>
      </trkpt>
      <trkpt lat="44.60301" lon="-0.93812">
        <ele>57.900384</ele>
        <time>2022-12-27T12:53:30.792Z</time>
      </trkpt>
      <trkpt lat="44.60295" lon="-0.93802">
        <ele>57.854495</ele>
        <time>2022-12-27T12:53:32.727Z</time>
      </trkpt>
      <trkpt lat="44.60288" lon="-0.93787">
        <ele>57.789143</ele>
        <time>2022-12-27T12:53:35.723Z</time>
      </trkpt>
      <trkpt lat="44.60282" lon="-0.93773">
        <ele>57.732104</ele>
        <time>2022-12-27T12:53:38.772Z</time>
      </trkpt>
      <trkpt lat="44.60276" lon="-0.93761">
        <ele>57.679754</ele>
        <time>2022-12-27T12:53:41.714Z</time>
      </trkpt>
      <trkpt lat="44.60272" lon="-0.93749">
        <ele>57.632659</ele>
        <time>2022-12-27T12:53:44.707Z</time>
      </trkpt>
      <trkpt lat="44.60266" lon="-0.93735">
        <ele>57.577143</ele>
        <time>2022-12-27T12:53:48.736Z</time>
      </trkpt>
      <trkpt lat="44.6026" lon="-0.93725">
        <ele>57.528306</ele>
        <time>2022-12-27T12:53:52.731Z</time>
      </trkpt>
      <trkpt lat="44.60258" lon="-0.93711">
        <ele>57.477299</ele>
        <time>2022-12-27T12:53:58.729Z</time>
      </trkpt>
      <trkpt lat="44.60251" lon="-0.93701">
        <ele>57.426248</ele>
        <time>2022-12-27T12:54:04.809Z</time>
      </trkpt>
      <trkpt lat="44.60245" lon="-0.93689">
        <ele>57.374836</ele>
        <time>2022-12-27T12:54:08.731Z</time>
      </trkpt>
      <trkpt lat="44.60244" lon="-0.93677">
        <ele>57.329134</ele>
        <time>2022-12-27T12:54:12.733Z</time>
      </trkpt>
      <trkpt lat="44.60237" lon="-0.93667">
        <ele>57.280394</ele>
        <time>2022-12-27T12:54:16.732Z</time>
      </trkpt>
      <trkpt lat="44.60227" lon="-0.93662">
        <ele>57.227004</ele>
        <time>2022-12-27T12:54:19.736Z</time>
      </trkpt>
      <trkpt lat="44.6022" lon="-0.9365">
        <ele>57.170407</ele>
        <time>2022-12-27T12:54:22.731Z</time>
      </trkpt>
      <trkpt lat="44.60214" lon="-0.93636">
        <ele>57.112044</ele>
        <time>2022-12-27T12:54:25.737Z</time>
      </trkpt>
      <trkpt lat="44.60208" lon="-0.93622">
        <ele>57.052</ele>
        <time>2022-12-27T12:54:28.726Z</time>
      </trkpt>
      <trkpt lat="44.60201" lon="-0.93607">
        <ele>57.044302</ele>
        <time>2022-12-27T12:54:31.706Z</time>
      </trkpt>
      <trkpt lat="44.60195" lon="-0.93592">
        <ele>57.070617</ele>
        <time>2022-12-27T12:54:34.730Z</time>
      </trkpt>
      <trkpt lat="44.60188" lon="-0.93577">
        <ele>57.096406</ele>
        <time>2022-12-27T12:54:37.734Z</time>
      </trkpt>
      <trkpt lat="44.60181" lon="-0.93563">
        <ele>57.122087</ele>
        <time>2022-12-27T12:54:40.732Z</time>
      </trkpt>
      <trkpt lat="44.60175" lon="-0.93548">
        <ele>57.147914</ele>
        <time>2022-12-27T12:54:43.733Z</time>
      </trkpt>
      <trkpt lat="44.60168" lon="-0.93533">
        <ele>57.174843</ele>
        <time>2022-12-27T12:54:46.733Z</time>
      </trkpt>
      <trkpt lat="44.60163" lon="-0.93522">
        <ele>57.193759</ele>
        <time>2022-12-27T12:54:48.729Z</time>
      </trkpt>
      <trkpt lat="44.60158" lon="-0.93511">
        <ele>57.212689</ele>
        <time>2022-12-27T12:54:50.782Z</time>
      </trkpt>
      <trkpt lat="44.60154" lon="-0.935">
        <ele>57.231741</ele>
        <time>2022-12-27T12:54:52.722Z</time>
      </trkpt>
      <trkpt lat="44.60149" lon="-0.93488">
        <ele>57.251152</ele>
        <time>2022-12-27T12:54:54.716Z</time>
      </trkpt>
      <trkpt lat="44.60144" lon="-0.93471">
        <ele>57.278747</ele>
        <time>2022-12-27T12:54:57.730Z</time>
      </trkpt>
      <trkpt lat="44.6014" lon="-0.93454">
        <ele>57.305858</ele>
        <time>2022-12-27T12:55:00.731Z</time>
      </trkpt>
      <trkpt lat="44.60135" lon="-0.93436">
        <ele>57.334716</ele>
        <time>2022-12-27T12:55:03.733Z</time>
      </trkpt>
      <trkpt lat="44.60132" lon="-0.93423">
        <ele>57.35518</ele>
        <time>2022-12-27T12:55:05.735Z</time>
      </trkpt>
      <trkpt lat="44.60127" lon="-0.93411">
        <ele>57.375707</ele>
        <time>2022-12-27T12:55:07.737Z</time>
      </trkpt>
      <trkpt lat="44.60122" lon="-0.93399">
        <ele>57.39571</ele>
        <time>2022-12-27T12:55:09.712Z</time>
      </trkpt>
      <trkpt lat="44.60117" lon="-0.93387">
        <ele>57.340476</ele>
        <time>2022-12-27T12:55:11.713Z</time>
      </trkpt>
      <trkpt lat="44.60112" lon="-0.93375">
        <ele>57.234451</ele>
        <time>2022-12-27T12:55:13.716Z</time>
      </trkpt>
      <trkpt lat="44.60107" lon="-0.93363">
        <ele>57.131499</ele>
        <time>2022-12-27T12:55:15.730Z</time>
      </trkpt>
      <trkpt lat="44.60102" lon="-0.93351">
        <ele>57.024297</ele>
        <time>2022-12-27T12:55:17.731Z</time>
      </trkpt>
      <trkpt lat="44.60096" lon="-0.93339">
        <ele>56.923291</ele>
        <time>2022-12-27T12:55:19.710Z</time>
      </trkpt>
      <trkpt lat="44.60091" lon="-0.93328">
        <ele>56.827658</ele>
        <time>2022-12-27T12:55:21.708Z</time>
      </trkpt>
      <trkpt lat="44.60086" lon="-0.93317">
        <ele>56.730768</ele>
        <time>2022-12-27T12:55:23.713Z</time>
      </trkpt>
      <trkpt lat="44.60082" lon="-0.93306">
        <ele>56.634845</ele>
        <time>2022-12-27T12:55:25.803Z</time>
      </trkpt>
      <trkpt lat="44.60074" lon="-0.9329">
        <ele>56.493413</ele>
        <time>2022-12-27T12:55:28.731Z</time>
      </trkpt>
      <trkpt lat="44.60068" lon="-0.93275">
        <ele>56.362165</ele>
        <time>2022-12-27T12:55:31.744Z</time>
      </trkpt>
      <trkpt lat="44.6006" lon="-0.93259">
        <ele>56.220707</ele>
        <time>2022-12-27T12:55:34.735Z</time>
      </trkpt>
      <trkpt lat="44.60055" lon="-0.93248">
        <ele>56.12521</ele>
        <time>2022-12-27T12:55:36.727Z</time>
      </trkpt>
      <trkpt lat="44.60048" lon="-0.93231">
        <ele>55.975002</ele>
        <time>2022-12-27T12:55:39.730Z</time>
      </trkpt>
      <trkpt lat="44.60044" lon="-0.9322">
        <ele>55.881092</ele>
        <time>2022-12-27T12:55:41.717Z</time>
      </trkpt>
      <trkpt lat="44.60039" lon="-0.93208">
        <ele>55.782438</ele>
        <time>2022-12-27T12:55:43.729Z</time>
      </trkpt>
      <trkpt lat="44.60034" lon="-0.93197">
        <ele>55.684482</ele>
        <time>2022-12-27T12:55:45.709Z</time>
      </trkpt>
      <trkpt lat="44.6003" lon="-0.93185">
        <ele>55.585977</ele>
        <time>2022-12-27T12:55:47.729Z</time>
      </trkpt>
      <trkpt lat="44.60025" lon="-0.93174">
        <ele>55.533657</ele>
        <time>2022-12-27T12:55:49.731Z</time>
      </trkpt>
      <trkpt lat="44.6002" lon="-0.93163">
        <ele>55.542566</ele>
        <time>2022-12-27T12:55:51.708Z</time>
      </trkpt>
      <trkpt lat="44.60012" lon="-0.93149">
        <ele>55.554975</ele>
        <time>2022-12-27T12:55:54.790Z</time>
      </trkpt>
      <trkpt lat="44.60006" lon="-0.93137">
        <ele>55.564609</ele>
        <time>2022-12-27T12:55:56.728Z</time>
      </trkpt>
      <trkpt lat="44.60002" lon="-0.93125">
        <ele>55.573764</ele>
        <time>2022-12-27T12:55:58.733Z</time>
      </trkpt>
      <trkpt lat="44.59995" lon="-0.9311">
        <ele>55.586309</ele>
        <time>2022-12-27T12:56:01.737Z</time>
      </trkpt>
      <trkpt lat="44.59988" lon="-0.93094">
        <ele>55.59842</ele>
        <time>2022-12-27T12:56:04.735Z</time>
      </trkpt>
      <trkpt lat="44.59982" lon="-0.93079">
        <ele>55.610327</ele>
        <time>2022-12-27T12:56:07.732Z</time>
      </trkpt>
      <trkpt lat="44.59975" lon="-0.93063">
        <ele>55.623155</ele>
        <time>2022-12-27T12:56:10.734Z</time>
      </trkpt>
      <trkpt lat="44.59969" lon="-0.93048">
        <ele>55.634754</ele>
        <time>2022-12-27T12:56:13.728Z</time>
      </trkpt>
      <trkpt lat="44.59962" lon="-0.93033">
        <ele>55.647408</ele>
        <time>2022-12-27T12:56:16.728Z</time>
      </trkpt>
      <trkpt lat="44.59956" lon="-0.93017">
        <ele>55.659897</ele>
        <time>2022-12-27T12:56:19.738Z</time>
      </trkpt>
      <trkpt lat="44.59951" lon="-0.93006">
        <ele>55.668611</ele>
        <time>2022-12-27T12:56:21.712Z</time>
      </trkpt>
      <trkpt lat="44.59947" lon="-0.92994">
        <ele>55.677622</ele>
        <time>2022-12-27T12:56:23.733Z</time>
      </trkpt>
      <trkpt lat="44.5994" lon="-0.92978">
        <ele>55.690146</ele>
        <time>2022-12-27T12:56:26.726Z</time>
      </trkpt>
      <trkpt lat="44.59933" lon="-0.92962">
        <ele>55.717854</ele>
        <time>2022-12-27T12:56:29.706Z</time>
      </trkpt>
      <trkpt lat="44.59927" lon="-0.92947">
        <ele>56.033728</ele>
        <time>2022-12-27T12:56:32.731Z</time>
      </trkpt>
      <trkpt lat="44.5992" lon="-0.92931">
        <ele>56.366636</ele>
        <time>2022-12-27T12:56:35.731Z</time>
      </trkpt>
      <trkpt lat="44.59915" lon="-0.9292">
        <ele>56.619352</ele>
        <time>2022-12-27T12:56:37.737Z</time>
      </trkpt>
      <trkpt lat="44.5991" lon="-0.92908">
        <ele>56.860352</ele>
        <time>2022-12-27T12:56:39.733Z</time>
      </trkpt>
      <trkpt lat="44.59903" lon="-0.92891">
        <ele>57.204431</ele>
        <time>2022-12-27T12:56:42.734Z</time>
      </trkpt>
      <trkpt lat="44.59899" lon="-0.9288">
        <ele>57.441698</ele>
        <time>2022-12-27T12:56:44.732Z</time>
      </trkpt>
      <trkpt lat="44.59893" lon="-0.92867">
        <ele>57.704308</ele>
        <time>2022-12-27T12:56:46.734Z</time>
      </trkpt>
      <trkpt lat="44.59888" lon="-0.92855">
        <ele>57.960285</ele>
        <time>2022-12-27T12:56:48.737Z</time>
      </trkpt>
      <trkpt lat="44.59884" lon="-0.92843">
        <ele>58.205281</ele>
        <time>2022-12-27T12:56:50.732Z</time>
      </trkpt>
      <trkpt lat="44.59879" lon="-0.92831">
        <ele>58.457859</ele>
        <time>2022-12-27T12:56:52.730Z</time>
      </trkpt>
      <trkpt lat="44.59874" lon="-0.92819">
        <ele>58.705739</ele>
        <time>2022-12-27T12:56:54.729Z</time>
      </trkpt>
      <trkpt lat="44.59868" lon="-0.92808">
        <ele>58.952518</ele>
        <time>2022-12-27T12:56:56.708Z</time>
      </trkpt>
      <trkpt lat="44.59862" lon="-0.92797">
        <ele>59.208147</ele>
        <time>2022-12-27T12:56:58.716Z</time>
      </trkpt>
      <trkpt lat="44.59856" lon="-0.92784">
        <ele>59.485994</ele>
        <time>2022-12-27T12:57:00.729Z</time>
      </trkpt>
      <trkpt lat="44.59849" lon="-0.92767">
        <ele>59.843554</ele>
        <time>2022-12-27T12:57:03.789Z</time>
      </trkpt>
      <trkpt lat="44.59845" lon="-0.92755">
        <ele>60.08575</ele>
        <time>2022-12-27T12:57:05.735Z</time>
      </trkpt>
      <trkpt lat="44.59838" lon="-0.92742">
        <ele>60.196524</ele>
        <time>2022-12-27T12:57:07.713Z</time>
      </trkpt>
      <trkpt lat="44.59833" lon="-0.92728">
        <ele>60.065126</ele>
        <time>2022-12-27T12:57:09.734Z</time>
      </trkpt>
      <trkpt lat="44.59827" lon="-0.92716">
        <ele>59.932157</ele>
        <time>2022-12-27T12:57:11.708Z</time>
      </trkpt>
      <trkpt lat="44.59818" lon="-0.927">
        <ele>59.756994</ele>
        <time>2022-12-27T12:57:14.754Z</time>
      </trkpt>
      <trkpt lat="44.59812" lon="-0.92687">
        <ele>59.622574</ele>
        <time>2022-12-27T12:57:16.735Z</time>
      </trkpt>
      <trkpt lat="44.59806" lon="-0.92673">
        <ele>59.478008</ele>
        <time>2022-12-27T12:57:18.731Z</time>
      </trkpt>
      <trkpt lat="44.59801" lon="-0.92659">
        <ele>59.341969</ele>
        <time>2022-12-27T12:57:20.734Z</time>
      </trkpt>
      <trkpt lat="44.59795" lon="-0.92646">
        <ele>59.205119</ele>
        <time>2022-12-27T12:57:22.742Z</time>
      </trkpt>
      <trkpt lat="44.59789" lon="-0.92631">
        <ele>59.056116</ele>
        <time>2022-12-27T12:57:24.719Z</time>
      </trkpt>
      <trkpt lat="44.59784" lon="-0.92619">
        <ele>58.926667</ele>
        <time>2022-12-27T12:57:26.735Z</time>
      </trkpt>
      <trkpt lat="44.59778" lon="-0.92606">
        <ele>58.800394</ele>
        <time>2022-12-27T12:57:28.737Z</time>
      </trkpt>
      <trkpt lat="44.59773" lon="-0.92594">
        <ele>58.679373</ele>
        <time>2022-12-27T12:57:30.729Z</time>
      </trkpt>
      <trkpt lat="44.59769" lon="-0.92583">
        <ele>58.563462</ele>
        <time>2022-12-27T12:57:32.735Z</time>
      </trkpt>
      <trkpt lat="44.59763" lon="-0.92569">
        <ele>58.428192</ele>
        <time>2022-12-27T12:57:34.733Z</time>
      </trkpt>
      <trkpt lat="44.59758" lon="-0.92557">
        <ele>58.304675</ele>
        <time>2022-12-27T12:57:36.730Z</time>
      </trkpt>
      <trkpt lat="44.59753" lon="-0.92545">
        <ele>58.175088</ele>
        <time>2022-12-27T12:57:38.734Z</time>
      </trkpt>
      <trkpt lat="44.59747" lon="-0.9253">
        <ele>58.040229</ele>
        <time>2022-12-27T12:57:40.732Z</time>
      </trkpt>
      <trkpt lat="44.59742" lon="-0.92517">
        <ele>58.031611</ele>
        <time>2022-12-27T12:57:42.737Z</time>
      </trkpt>
      <trkpt lat="44.59736" lon="-0.92503">
        <ele>58.022115</ele>
        <time>2022-12-27T12:57:44.726Z</time>
      </trkpt>
      <trkpt lat="44.59731" lon="-0.92488">
        <ele>58.012695</ele>
        <time>2022-12-27T12:57:46.728Z</time>
      </trkpt>
      <trkpt lat="44.59725" lon="-0.92475">
        <ele>58.003258</ele>
        <time>2022-12-27T12:57:48.724Z</time>
      </trkpt>
      <trkpt lat="44.59719" lon="-0.92461">
        <ele>57.994177</ele>
        <time>2022-12-27T12:57:50.726Z</time>
      </trkpt>
      <trkpt lat="44.59714" lon="-0.92447">
        <ele>57.985088</ele>
        <time>2022-12-27T12:57:52.728Z</time>
      </trkpt>
      <trkpt lat="44.59709" lon="-0.92433">
        <ele>57.976293</ele>
        <time>2022-12-27T12:57:54.770Z</time>
      </trkpt>
      <trkpt lat="44.59704" lon="-0.9242">
        <ele>57.967585</ele>
        <time>2022-12-27T12:57:56.729Z</time>
      </trkpt>
      <trkpt lat="44.59697" lon="-0.92406">
        <ele>57.957969</ele>
        <time>2022-12-27T12:57:58.731Z</time>
      </trkpt>
      <trkpt lat="44.59691" lon="-0.92393">
        <ele>57.94863</ele>
        <time>2022-12-27T12:58:00.788Z</time>
      </trkpt>
      <trkpt lat="44.59686" lon="-0.9238">
        <ele>57.939989</ele>
        <time>2022-12-27T12:58:02.729Z</time>
      </trkpt>
      <trkpt lat="44.5968" lon="-0.92369">
        <ele>57.93222</ele>
        <time>2022-12-27T12:58:04.719Z</time>
      </trkpt>
      <trkpt lat="44.59675" lon="-0.92358">
        <ele>57.924497</ele>
        <time>2022-12-27T12:58:06.798Z</time>
      </trkpt>
      <trkpt lat="44.59669" lon="-0.92346">
        <ele>57.916286</ele>
        <time>2022-12-27T12:58:08.734Z</time>
      </trkpt>
      <trkpt lat="44.59666" lon="-0.92333">
        <ele>57.908248</ele>
        <time>2022-12-27T12:58:10.731Z</time>
      </trkpt>
      <trkpt lat="44.5966" lon="-0.9232">
        <ele>57.899325</ele>
        <time>2022-12-27T12:58:12.735Z</time>
      </trkpt>
      <trkpt lat="44.59654" lon="-0.92307">
        <ele>57.838537</ele>
        <time>2022-12-27T12:58:14.734Z</time>
      </trkpt>
      <trkpt lat="44.59648" lon="-0.92294">
        <ele>57.726208</ele>
        <time>2022-12-27T12:58:16.710Z</time>
      </trkpt>
      <trkpt lat="44.59644" lon="-0.92282">
        <ele>57.631005</ele>
        <time>2022-12-27T12:58:18.732Z</time>
      </trkpt>
      <trkpt lat="44.59639" lon="-0.92272">
        <ele>57.539186</ele>
        <time>2022-12-27T12:58:20.732Z</time>
      </trkpt>
      <trkpt lat="44.59633" lon="-0.9226">
        <ele>57.440365</ele>
        <time>2022-12-27T12:58:22.732Z</time>
      </trkpt>
      <trkpt lat="44.59629" lon="-0.92249">
        <ele>57.348395</ele>
        <time>2022-12-27T12:58:24.720Z</time>
      </trkpt>
      <trkpt lat="44.59622" lon="-0.92238">
        <ele>57.246006</ele>
        <time>2022-12-27T12:58:26.723Z</time>
      </trkpt>
      <trkpt lat="44.59618" lon="-0.92226">
        <ele>57.147416</ele>
        <time>2022-12-27T12:58:28.713Z</time>
      </trkpt>
      <trkpt lat="44.59612" lon="-0.92215">
        <ele>57.047464</ele>
        <time>2022-12-27T12:58:30.716Z</time>
      </trkpt>
      <trkpt lat="44.59606" lon="-0.92206">
        <ele>56.957026</ele>
        <time>2022-12-27T12:58:32.731Z</time>
      </trkpt>
      <trkpt lat="44.59599" lon="-0.92193">
        <ele>56.841185</ele>
        <time>2022-12-27T12:58:35.803Z</time>
      </trkpt>
      <trkpt lat="44.59593" lon="-0.92179">
        <ele>56.722367</ele>
        <time>2022-12-27T12:58:37.731Z</time>
      </trkpt>
      <trkpt lat="44.59585" lon="-0.92169">
        <ele>56.615026</ele>
        <time>2022-12-27T12:58:39.729Z</time>
      </trkpt>
      <trkpt lat="44.59579" lon="-0.92158">
        <ele>56.51713</ele>
        <time>2022-12-27T12:58:41.736Z</time>
      </trkpt>
      <trkpt lat="44.59573" lon="-0.92148">
        <ele>56.421218</ele>
        <time>2022-12-27T12:58:43.734Z</time>
      </trkpt>
      <trkpt lat="44.59567" lon="-0.92137">
        <ele>56.321725</ele>
        <time>2022-12-27T12:58:45.733Z</time>
      </trkpt>
      <trkpt lat="44.59558" lon="-0.92124">
        <ele>56.193308</ele>
        <time>2022-12-27T12:58:48.735Z</time>
      </trkpt>
      <trkpt lat="44.59549" lon="-0.9211">
        <ele>56.080918</ele>
        <time>2022-12-27T12:58:51.715Z</time>
      </trkpt>
      <trkpt lat="44.59541" lon="-0.92096">
        <ele>56.160494</ele>
        <time>2022-12-27T12:58:54.714Z</time>
      </trkpt>
      <trkpt lat="44.59533" lon="-0.92082">
        <ele>56.237104</ele>
        <time>2022-12-27T12:58:57.710Z</time>
      </trkpt>
      <trkpt lat="44.59526" lon="-0.92072">
        <ele>56.293337</ele>
        <time>2022-12-27T12:58:59.728Z</time>
      </trkpt>
      <trkpt lat="44.59521" lon="-0.92062">
        <ele>56.348133</ele>
        <time>2022-12-27T12:59:01.709Z</time>
      </trkpt>
      <trkpt lat="44.59513" lon="-0.9205">
        <ele>56.416813</ele>
        <time>2022-12-27T12:59:04.722Z</time>
      </trkpt>
      <trkpt lat="44.59506" lon="-0.92038">
        <ele>56.484606</ele>
        <time>2022-12-27T12:59:07.735Z</time>
      </trkpt>
      <trkpt lat="44.59498" lon="-0.92025">
        <ele>56.558481</ele>
        <time>2022-12-27T12:59:10.730Z</time>
      </trkpt>
      <trkpt lat="44.5949" lon="-0.92012">
        <ele>56.63189</ele>
        <time>2022-12-27T12:59:13.721Z</time>
      </trkpt>
      <trkpt lat="44.59481" lon="-0.91999">
        <ele>56.708207</ele>
        <time>2022-12-27T12:59:16.731Z</time>
      </trkpt>
      <trkpt lat="44.59474" lon="-0.91986">
        <ele>56.780706</ele>
        <time>2022-12-27T12:59:19.722Z</time>
      </trkpt>
      <trkpt lat="44.59468" lon="-0.91977">
        <ele>56.835645</ele>
        <time>2022-12-27T12:59:21.750Z</time>
      </trkpt>
      <trkpt lat="44.59461" lon="-0.91968">
        <ele>56.891438</ele>
        <time>2022-12-27T12:59:23.732Z</time>
      </trkpt>
      <trkpt lat="44.59453" lon="-0.91955">
        <ele>56.966436</ele>
        <time>2022-12-27T12:59:26.727Z</time>
      </trkpt>
      <trkpt lat="44.59444" lon="-0.91943">
        <ele>57.040281</ele>
        <time>2022-12-27T12:59:29.731Z</time>
      </trkpt>
      <trkpt lat="44.59435" lon="-0.91931">
        <ele>57.114632</ele>
        <time>2022-12-27T12:59:32.733Z</time>
      </trkpt>
      <trkpt lat="44.59428" lon="-0.91922">
        <ele>57.193278</ele>
        <time>2022-12-27T12:59:34.733Z</time>
      </trkpt>
      <trkpt lat="44.59418" lon="-0.9191">
        <ele>57.422055</ele>
        <time>2022-12-27T12:59:37.733Z</time>
      </trkpt>
      <trkpt lat="44.59408" lon="-0.91897">
        <ele>57.631599</ele>
        <time>2022-12-27T12:59:40.733Z</time>
      </trkpt>
      <trkpt lat="44.59399" lon="-0.91884">
        <ele>57.851661</ele>
        <time>2022-12-27T12:59:43.734Z</time>
      </trkpt>
      <trkpt lat="44.59391" lon="-0.91873">
        <ele>58.0411</ele>
        <time>2022-12-27T12:59:46.732Z</time>
      </trkpt>
      <trkpt lat="44.59381" lon="-0.91862">
        <ele>58.241097</ele>
        <time>2022-12-27T12:59:49.732Z</time>
      </trkpt>
      <trkpt lat="44.59373" lon="-0.9185">
        <ele>58.441011</ele>
        <time>2022-12-27T12:59:52.753Z</time>
      </trkpt>
      <trkpt lat="44.59364" lon="-0.91838">
        <ele>58.648954</ele>
        <time>2022-12-27T12:59:55.732Z</time>
      </trkpt>
      <trkpt lat="44.59357" lon="-0.9183">
        <ele>58.797867</ele>
        <time>2022-12-27T12:59:57.734Z</time>
      </trkpt>
      <trkpt lat="44.59347" lon="-0.91818">
        <ele>59.017799</ele>
        <time>2022-12-27T13:00:00.734Z</time>
      </trkpt>
      <trkpt lat="44.59337" lon="-0.91806">
        <ele>59.231796</ele>
        <time>2022-12-27T13:00:03.732Z</time>
      </trkpt>
      <trkpt lat="44.59327" lon="-0.91794">
        <ele>59.442659</ele>
        <time>2022-12-27T13:00:06.706Z</time>
      </trkpt>
      <trkpt lat="44.59317" lon="-0.91783">
        <ele>59.654807</ele>
        <time>2022-12-27T13:00:09.732Z</time>
      </trkpt>
      <trkpt lat="44.59308" lon="-0.91772">
        <ele>59.851734</ele>
        <time>2022-12-27T13:00:12.731Z</time>
      </trkpt>
      <trkpt lat="44.59299" lon="-0.91762">
        <ele>60.044179</ele>
        <time>2022-12-27T13:00:15.730Z</time>
      </trkpt>
      <trkpt lat="44.59289" lon="-0.91751">
        <ele>60.171935</ele>
        <time>2022-12-27T13:00:18.731Z</time>
      </trkpt>
      <trkpt lat="44.59279" lon="-0.91739">
        <ele>60.246767</ele>
        <time>2022-12-27T13:00:21.703Z</time>
      </trkpt>
      <trkpt lat="44.59269" lon="-0.91729">
        <ele>60.318343</ele>
        <time>2022-12-27T13:00:24.729Z</time>
      </trkpt>
      <trkpt lat="44.59259" lon="-0.91718">
        <ele>60.393419</ele>
        <time>2022-12-27T13:00:27.730Z</time>
      </trkpt>
      <trkpt lat="44.59248" lon="-0.91708">
        <ele>60.46543</ele>
        <time>2022-12-27T13:00:30.731Z</time>
      </trkpt>
      <trkpt lat="44.59241" lon="-0.91701">
        <ele>60.517643</ele>
        <time>2022-12-27T13:00:32.733Z</time>
      </trkpt>
      <trkpt lat="44.59234" lon="-0.91693">
        <ele>60.569651</ele>
        <time>2022-12-27T13:00:34.731Z</time>
      </trkpt>
      <trkpt lat="44.59224" lon="-0.91683">
        <ele>60.64143</ele>
        <time>2022-12-27T13:00:37.732Z</time>
      </trkpt>
      <trkpt lat="44.59214" lon="-0.91673">
        <ele>60.711549</ele>
        <time>2022-12-27T13:00:40.733Z</time>
      </trkpt>
      <trkpt lat="44.59206" lon="-0.91666">
        <ele>60.764027</ele>
        <time>2022-12-27T13:00:42.730Z</time>
      </trkpt>
      <trkpt lat="44.59195" lon="-0.91657">
        <ele>60.838317</ele>
        <time>2022-12-27T13:00:45.732Z</time>
      </trkpt>
      <trkpt lat="44.59185" lon="-0.91647">
        <ele>60.909159</ele>
        <time>2022-12-27T13:00:48.734Z</time>
      </trkpt>
      <trkpt lat="44.59174" lon="-0.91637">
        <ele>60.983294</ele>
        <time>2022-12-27T13:00:51.712Z</time>
      </trkpt>
      <trkpt lat="44.59165" lon="-0.91628">
        <ele>61.047748</ele>
        <time>2022-12-27T13:00:54.734Z</time>
      </trkpt>
      <trkpt lat="44.59155" lon="-0.91618">
        <ele>61.121883</ele>
        <time>2022-12-27T13:00:57.732Z</time>
      </trkpt>
      <trkpt lat="44.59145" lon="-0.91609">
        <ele>61.221486</ele>
        <time>2022-12-27T13:01:00.748Z</time>
      </trkpt>
      <trkpt lat="44.59135" lon="-0.91599">
        <ele>61.382007</ele>
        <time>2022-12-27T13:01:03.733Z</time>
      </trkpt>
      <trkpt lat="44.59125" lon="-0.91591">
        <ele>61.544008</ele>
        <time>2022-12-27T13:01:06.744Z</time>
      </trkpt>
      <trkpt lat="44.59115" lon="-0.91581">
        <ele>61.712483</ele>
        <time>2022-12-27T13:01:09.733Z</time>
      </trkpt>
      <trkpt lat="44.59105" lon="-0.91571">
        <ele>61.889428</ele>
        <time>2022-12-27T13:01:12.731Z</time>
      </trkpt>
      <trkpt lat="44.59094" lon="-0.91561">
        <ele>62.065235</ele>
        <time>2022-12-27T13:01:15.719Z</time>
      </trkpt>
      <trkpt lat="44.59084" lon="-0.91551">
        <ele>62.238778</ele>
        <time>2022-12-27T13:01:18.724Z</time>
      </trkpt>
      <trkpt lat="44.59074" lon="-0.91541">
        <ele>62.412907</ele>
        <time>2022-12-27T13:01:21.705Z</time>
      </trkpt>
      <trkpt lat="44.59064" lon="-0.9153">
        <ele>62.583744</ele>
        <time>2022-12-27T13:01:24.732Z</time>
      </trkpt>
      <trkpt lat="44.59054" lon="-0.9152">
        <ele>62.757287</ele>
        <time>2022-12-27T13:01:27.732Z</time>
      </trkpt>
      <trkpt lat="44.59043" lon="-0.9151">
        <ele>62.930864</ele>
        <time>2022-12-27T13:01:30.732Z</time>
      </trkpt>
      <trkpt lat="44.59033" lon="-0.91499">
        <ele>63.111245</ele>
        <time>2022-12-27T13:01:33.708Z</time>
      </trkpt>
      <trkpt lat="44.59025" lon="-0.91492">
        <ele>63.237209</ele>
        <time>2022-12-27T13:01:35.736Z</time>
      </trkpt>
      <trkpt lat="44.59018" lon="-0.91485">
        <ele>63.363113</ele>
        <time>2022-12-27T13:01:37.732Z</time>
      </trkpt>
      <trkpt lat="44.5901" lon="-0.91478">
        <ele>63.489621</ele>
        <time>2022-12-27T13:01:39.732Z</time>
      </trkpt>
      <trkpt lat="44.59002" lon="-0.91471">
        <ele>63.619408</ele>
        <time>2022-12-27T13:01:41.709Z</time>
      </trkpt>
      <trkpt lat="44.58994" lon="-0.91465">
        <ele>63.735671</ele>
        <time>2022-12-27T13:01:43.783Z</time>
      </trkpt>
      <trkpt lat="44.58987" lon="-0.91457">
        <ele>63.846557</ele>
        <time>2022-12-27T13:01:45.733Z</time>
      </trkpt>
      <trkpt lat="44.58976" lon="-0.91448">
        <ele>63.999269</ele>
        <time>2022-12-27T13:01:48.732Z</time>
      </trkpt>
      <trkpt lat="44.58967" lon="-0.91439">
        <ele>64.133018</ele>
        <time>2022-12-27T13:01:51.712Z</time>
      </trkpt>
      <trkpt lat="44.58959" lon="-0.9143">
        <ele>64.265775</ele>
        <time>2022-12-27T13:01:54.730Z</time>
      </trkpt>
      <trkpt lat="44.58949" lon="-0.9142">
        <ele>64.415444</ele>
        <time>2022-12-27T13:01:57.728Z</time>
      </trkpt>
      <trkpt lat="44.58939" lon="-0.9141">
        <ele>64.556163</ele>
        <time>2022-12-27T13:02:00.731Z</time>
      </trkpt>
      <trkpt lat="44.5893" lon="-0.91401">
        <ele>64.691424</ele>
        <time>2022-12-27T13:02:03.733Z</time>
      </trkpt>
      <trkpt lat="44.58923" lon="-0.91394">
        <ele>64.801328</ele>
        <time>2022-12-27T13:02:05.732Z</time>
      </trkpt>
      <trkpt lat="44.58912" lon="-0.91383">
        <ele>64.96549</ele>
        <time>2022-12-27T13:02:08.732Z</time>
      </trkpt>
      <trkpt lat="44.58901" lon="-0.91373">
        <ele>65.126098</ele>
        <time>2022-12-27T13:02:11.711Z</time>
      </trkpt>
      <trkpt lat="44.58892" lon="-0.91363">
        <ele>65.264478</ele>
        <time>2022-12-27T13:02:13.732Z</time>
      </trkpt>
      <trkpt lat="44.58884" lon="-0.91357">
        <ele>65.374677</ele>
        <time>2022-12-27T13:02:15.730Z</time>
      </trkpt>
      <trkpt lat="44.58872" lon="-0.91347">
        <ele>65.5411</ele>
        <time>2022-12-27T13:02:18.808Z</time>
      </trkpt>
      <trkpt lat="44.5886" lon="-0.91336">
        <ele>65.71364</ele>
        <time>2022-12-27T13:02:21.713Z</time>
      </trkpt>
      <trkpt lat="44.58852" lon="-0.91327">
        <ele>65.841954</ele>
        <time>2022-12-27T13:02:23.732Z</time>
      </trkpt>
      <trkpt lat="44.58843" lon="-0.9132">
        <ele>65.757113</ele>
        <time>2022-12-27T13:02:25.728Z</time>
      </trkpt>
      <trkpt lat="44.58834" lon="-0.91312">
        <ele>65.662266</ele>
        <time>2022-12-27T13:02:27.747Z</time>
      </trkpt>
      <trkpt lat="44.58827" lon="-0.91304">
        <ele>65.57717</ele>
        <time>2022-12-27T13:02:29.725Z</time>
      </trkpt>
      <trkpt lat="44.58819" lon="-0.91296">
        <ele>65.484596</ele>
        <time>2022-12-27T13:02:31.715Z</time>
      </trkpt>
      <trkpt lat="44.58811" lon="-0.91287">
        <ele>65.394997</ele>
        <time>2022-12-27T13:02:33.731Z</time>
      </trkpt>
      <trkpt lat="44.58803" lon="-0.9128">
        <ele>65.306538</ele>
        <time>2022-12-27T13:02:35.735Z</time>
      </trkpt>
      <trkpt lat="44.58791" lon="-0.91269">
        <ele>65.179898</ele>
        <time>2022-12-27T13:02:38.736Z</time>
      </trkpt>
      <trkpt lat="44.58782" lon="-0.91262">
        <ele>65.088245</ele>
        <time>2022-12-27T13:02:40.734Z</time>
      </trkpt>
      <trkpt lat="44.58774" lon="-0.91254">
        <ele>64.998276</ele>
        <time>2022-12-27T13:02:42.768Z</time>
      </trkpt>
      <trkpt lat="44.58766" lon="-0.91247">
        <ele>64.909972</ele>
        <time>2022-12-27T13:02:44.729Z</time>
      </trkpt>
      <trkpt lat="44.58758" lon="-0.9124">
        <ele>64.822241</ele>
        <time>2022-12-27T13:02:46.734Z</time>
      </trkpt>
      <trkpt lat="44.5875" lon="-0.91232">
        <ele>64.733782</ele>
        <time>2022-12-27T13:02:48.778Z</time>
      </trkpt>
      <trkpt lat="44.58742" lon="-0.91225">
        <ele>64.647928</ele>
        <time>2022-12-27T13:02:50.729Z</time>
      </trkpt>
      <trkpt lat="44.58734" lon="-0.91217">
        <ele>64.560954</ele>
        <time>2022-12-27T13:02:52.730Z</time>
      </trkpt>
      <trkpt lat="44.58726" lon="-0.9121">
        <ele>64.471867</ele>
        <time>2022-12-27T13:02:54.807Z</time>
      </trkpt>
      <trkpt lat="44.58718" lon="-0.91202">
        <ele>64.387476</ele>
        <time>2022-12-27T13:02:56.734Z</time>
      </trkpt>
      <trkpt lat="44.58711" lon="-0.91195">
        <ele>64.303816</ele>
        <time>2022-12-27T13:02:58.733Z</time>
      </trkpt>
      <trkpt lat="44.58703" lon="-0.91188">
        <ele>64.218347</ele>
        <time>2022-12-27T13:03:00.725Z</time>
      </trkpt>
      <trkpt lat="44.58695" lon="-0.9118">
        <ele>64.128761</ele>
        <time>2022-12-27T13:03:02.733Z</time>
      </trkpt>
      <trkpt lat="44.58687" lon="-0.91173">
        <ele>64.03676</ele>
        <time>2022-12-27T13:03:04.732Z</time>
      </trkpt>
      <trkpt lat="44.58678" lon="-0.91165">
        <ele>63.939708</ele>
        <time>2022-12-27T13:03:06.727Z</time>
      </trkpt>
      <trkpt lat="44.5867" lon="-0.91157">
        <ele>63.847345</ele>
        <time>2022-12-27T13:03:08.730Z</time>
      </trkpt>
      <trkpt lat="44.58662" lon="-0.91149">
        <ele>63.751113</ele>
        <time>2022-12-27T13:03:10.732Z</time>
      </trkpt>
      <trkpt lat="44.58654" lon="-0.91141">
        <ele>63.655948</ele>
        <time>2022-12-27T13:03:12.734Z</time>
      </trkpt>
      <trkpt lat="44.58645" lon="-0.91134">
        <ele>63.559889</ele>
        <time>2022-12-27T13:03:14.809Z</time>
      </trkpt>
      <trkpt lat="44.58637" lon="-0.91126">
        <ele>63.467905</ele>
        <time>2022-12-27T13:03:16.736Z</time>
      </trkpt>
      <trkpt lat="44.58629" lon="-0.91118">
        <ele>63.37708</ele>
        <time>2022-12-27T13:03:18.734Z</time>
      </trkpt>
      <trkpt lat="44.58619" lon="-0.91107">
        <ele>63.254559</ele>
        <time>2022-12-27T13:03:21.711Z</time>
      </trkpt>
      <trkpt lat="44.5861" lon="-0.911">
        <ele>63.161838</ele>
        <time>2022-12-27T13:03:23.733Z</time>
      </trkpt>
      <trkpt lat="44.58602" lon="-0.91093">
        <ele>63.068988</ele>
        <time>2022-12-27T13:03:25.785Z</time>
      </trkpt>
      <trkpt lat="44.58595" lon="-0.91085">
        <ele>62.98217</ele>
        <time>2022-12-27T13:03:27.733Z</time>
      </trkpt>
      <trkpt lat="44.58586" lon="-0.91077">
        <ele>62.884603</ele>
        <time>2022-12-27T13:03:29.735Z</time>
      </trkpt>
      <trkpt lat="44.58577" lon="-0.9107">
        <ele>62.791201</ele>
        <time>2022-12-27T13:03:31.746Z</time>
      </trkpt>
      <trkpt lat="44.58569" lon="-0.91062">
        <ele>62.694201</ele>
        <time>2022-12-27T13:03:33.712Z</time>
      </trkpt>
      <trkpt lat="44.58558" lon="-0.91051">
        <ele>62.57208</ele>
        <time>2022-12-27T13:03:36.731Z</time>
      </trkpt>
      <trkpt lat="44.58551" lon="-0.91045">
        <ele>62.512882</ele>
        <time>2022-12-27T13:03:38.717Z</time>
      </trkpt>
      <trkpt lat="44.58543" lon="-0.91036">
        <ele>62.542658</ele>
        <time>2022-12-27T13:03:40.735Z</time>
      </trkpt>
      <trkpt lat="44.58533" lon="-0.91029">
        <ele>62.57487</ele>
        <time>2022-12-27T13:03:42.732Z</time>
      </trkpt>
      <trkpt lat="44.58526" lon="-0.91021">
        <ele>62.603412</ele>
        <time>2022-12-27T13:03:44.734Z</time>
      </trkpt>
      <trkpt lat="44.58518" lon="-0.91014">
        <ele>62.630738</ele>
        <time>2022-12-27T13:03:46.732Z</time>
      </trkpt>
      <trkpt lat="44.5851" lon="-0.91006">
        <ele>62.661371</ele>
        <time>2022-12-27T13:03:48.734Z</time>
      </trkpt>
      <trkpt lat="44.58502" lon="-0.90998">
        <ele>62.689933</ele>
        <time>2022-12-27T13:03:50.734Z</time>
      </trkpt>
      <trkpt lat="44.58494" lon="-0.9099">
        <ele>62.718863</ele>
        <time>2022-12-27T13:03:52.732Z</time>
      </trkpt>
      <trkpt lat="44.58487" lon="-0.90982">
        <ele>62.746548</ele>
        <time>2022-12-27T13:03:54.719Z</time>
      </trkpt>
      <trkpt lat="44.58479" lon="-0.90974">
        <ele>62.775459</ele>
        <time>2022-12-27T13:03:56.733Z</time>
      </trkpt>
      <trkpt lat="44.5847" lon="-0.90967">
        <ele>62.804699</ele>
        <time>2022-12-27T13:03:58.730Z</time>
      </trkpt>
      <trkpt lat="44.58462" lon="-0.9096">
        <ele>62.833538</ele>
        <time>2022-12-27T13:04:00.734Z</time>
      </trkpt>
      <trkpt lat="44.58454" lon="-0.90952">
        <ele>62.863188</ele>
        <time>2022-12-27T13:04:02.733Z</time>
      </trkpt>
      <trkpt lat="44.58445" lon="-0.90944">
        <ele>62.894627</ele>
        <time>2022-12-27T13:04:04.734Z</time>
      </trkpt>
      <trkpt lat="44.58437" lon="-0.90936">
        <ele>62.924277</ele>
        <time>2022-12-27T13:04:06.727Z</time>
      </trkpt>
      <trkpt lat="44.58429" lon="-0.90929">
        <ele>62.953807</ele>
        <time>2022-12-27T13:04:08.709Z</time>
      </trkpt>
      <trkpt lat="44.58421" lon="-0.90921">
        <ele>62.983944</ele>
        <time>2022-12-27T13:04:10.732Z</time>
      </trkpt>
      <trkpt lat="44.58413" lon="-0.90913">
        <ele>63.01143</ele>
        <time>2022-12-27T13:04:12.735Z</time>
      </trkpt>
      <trkpt lat="44.58405" lon="-0.90906">
        <ele>63.039411</ele>
        <time>2022-12-27T13:04:14.735Z</time>
      </trkpt>
      <trkpt lat="44.58397" lon="-0.90895">
        <ele>63.193505</ele>
        <time>2022-12-27T13:04:17.731Z</time>
      </trkpt>
      <trkpt lat="44.58385" lon="-0.90884">
        <ele>63.399608</ele>
        <time>2022-12-27T13:04:20.728Z</time>
      </trkpt>
      <trkpt lat="44.58375" lon="-0.90875">
        <ele>63.565001</ele>
        <time>2022-12-27T13:04:22.733Z</time>
      </trkpt>
      <trkpt lat="44.58366" lon="-0.90867">
        <ele>63.726387</ele>
        <time>2022-12-27T13:04:24.776Z</time>
      </trkpt>
      <trkpt lat="44.58358" lon="-0.90861">
        <ele>63.861667</ele>
        <time>2022-12-27T13:04:26.732Z</time>
      </trkpt>
      <trkpt lat="44.58349" lon="-0.9085">
        <ele>64.040879</ele>
        <time>2022-12-27T13:04:29.731Z</time>
      </trkpt>
      <trkpt lat="44.58339" lon="-0.9084">
        <ele>64.221167</ele>
        <time>2022-12-27T13:04:32.734Z</time>
      </trkpt>
      <trkpt lat="44.58328" lon="-0.90829">
        <ele>64.418239</ele>
        <time>2022-12-27T13:04:35.733Z</time>
      </trkpt>
      <trkpt lat="44.58318" lon="-0.90819">
        <ele>64.598528</ele>
        <time>2022-12-27T13:04:38.734Z</time>
      </trkpt>
      <trkpt lat="44.58309" lon="-0.90809">
        <ele>64.764745</ele>
        <time>2022-12-27T13:04:41.713Z</time>
      </trkpt>
      <trkpt lat="44.583" lon="-0.908">
        <ele>64.922174</ele>
        <time>2022-12-27T13:04:43.733Z</time>
      </trkpt>
      <trkpt lat="44.58292" lon="-0.90794">
        <ele>65.067361</ele>
        <time>2022-12-27T13:04:45.752Z</time>
      </trkpt>
      <trkpt lat="44.58282" lon="-0.90783">
        <ele>65.24765</ele>
        <time>2022-12-27T13:04:50.731Z</time>
      </trkpt>
      <trkpt lat="44.58272" lon="-0.90775">
        <ele>65.421622</ele>
        <time>2022-12-27T13:04:54.787Z</time>
      </trkpt>
      <trkpt lat="44.58262" lon="-0.90766">
        <ele>65.58926</ele>
        <time>2022-12-27T13:04:57.731Z</time>
      </trkpt>
      <trkpt lat="44.58254" lon="-0.90757">
        <ele>65.677836</ele>
        <time>2022-12-27T13:04:59.731Z</time>
      </trkpt>
      <trkpt lat="44.58246" lon="-0.90749">
        <ele>65.656074</ele>
        <time>2022-12-27T13:05:01.711Z</time>
      </trkpt>
      <trkpt lat="44.58238" lon="-0.90742">
        <ele>65.634125</ele>
        <time>2022-12-27T13:05:03.738Z</time>
      </trkpt>
      <trkpt lat="44.5823" lon="-0.90734">
        <ele>65.610581</ele>
        <time>2022-12-27T13:05:05.732Z</time>
      </trkpt>
      <trkpt lat="44.58223" lon="-0.90726">
        <ele>65.589702</ele>
        <time>2022-12-27T13:05:07.737Z</time>
      </trkpt>
      <trkpt lat="44.58214" lon="-0.90717">
        <ele>65.565487</ele>
        <time>2022-12-27T13:05:10.732Z</time>
      </trkpt>
      <trkpt lat="44.58204" lon="-0.90705">
        <ele>65.534914</ele>
        <time>2022-12-27T13:05:13.720Z</time>
      </trkpt>
      <trkpt lat="44.58193" lon="-0.90694">
        <ele>65.504746</ele>
        <time>2022-12-27T13:05:15.731Z</time>
      </trkpt>
      <trkpt lat="44.58182" lon="-0.90685">
        <ele>65.475746</ele>
        <time>2022-12-27T13:05:17.718Z</time>
      </trkpt>
      <trkpt lat="44.58171" lon="-0.90675">
        <ele>65.446118</ele>
        <time>2022-12-27T13:05:19.725Z</time>
      </trkpt>
      <trkpt lat="44.5816" lon="-0.90665">
        <ele>65.4146</ele>
        <time>2022-12-27T13:05:21.706Z</time>
      </trkpt>
      <trkpt lat="44.5815" lon="-0.90656">
        <ele>65.389009</ele>
        <time>2022-12-27T13:05:23.782Z</time>
      </trkpt>
      <trkpt lat="44.58142" lon="-0.90647">
        <ele>65.364817</ele>
        <time>2022-12-27T13:05:25.731Z</time>
      </trkpt>
      <trkpt lat="44.58133" lon="-0.90636">
        <ele>65.337831</ele>
        <time>2022-12-27T13:05:28.734Z</time>
      </trkpt>
      <trkpt lat="44.58123" lon="-0.90627">
        <ele>65.309998</ele>
        <time>2022-12-27T13:05:31.713Z</time>
      </trkpt>
      <trkpt lat="44.58112" lon="-0.90617">
        <ele>65.281277</ele>
        <time>2022-12-27T13:05:33.732Z</time>
      </trkpt>
      <trkpt lat="44.58102" lon="-0.90609">
        <ele>65.006043</ele>
        <time>2022-12-27T13:05:35.734Z</time>
      </trkpt>
      <trkpt lat="44.58092" lon="-0.906">
        <ele>64.658869</ele>
        <time>2022-12-27T13:05:37.730Z</time>
      </trkpt>
      <trkpt lat="44.58083" lon="-0.9059">
        <ele>64.30935</ele>
        <time>2022-12-27T13:05:39.734Z</time>
      </trkpt>
      <trkpt lat="44.58074" lon="-0.90581">
        <ele>63.985356</ele>
        <time>2022-12-27T13:05:41.708Z</time>
      </trkpt>
      <trkpt lat="44.58063" lon="-0.90571">
        <ele>63.606325</ele>
        <time>2022-12-27T13:05:43.732Z</time>
      </trkpt>
      <trkpt lat="44.58053" lon="-0.90562">
        <ele>63.245542</ele>
        <time>2022-12-27T13:05:45.728Z</time>
      </trkpt>
      <trkpt lat="44.58044" lon="-0.90553">
        <ele>62.904524</ele>
        <time>2022-12-27T13:05:47.730Z</time>
      </trkpt>
      <trkpt lat="44.58035" lon="-0.90544">
        <ele>62.590072</ele>
        <time>2022-12-27T13:05:49.728Z</time>
      </trkpt>
      <trkpt lat="44.58027" lon="-0.90535">
        <ele>62.283091</ele>
        <time>2022-12-27T13:05:51.741Z</time>
      </trkpt>
      <trkpt lat="44.58017" lon="-0.90527">
        <ele>61.935211</ele>
        <time>2022-12-27T13:05:53.730Z</time>
      </trkpt>
      <trkpt lat="44.58009" lon="-0.90517">
        <ele>61.632943</ele>
        <time>2022-12-27T13:05:55.732Z</time>
      </trkpt>
      <trkpt lat="44.57999" lon="-0.90508">
        <ele>61.257561</ele>
        <time>2022-12-27T13:05:57.738Z</time>
      </trkpt>
      <trkpt lat="44.57989" lon="-0.90499">
        <ele>60.908217</ele>
        <time>2022-12-27T13:05:59.732Z</time>
      </trkpt>
      <trkpt lat="44.57978" lon="-0.9049">
        <ele>60.539889</ele>
        <time>2022-12-27T13:06:01.711Z</time>
      </trkpt>
      <trkpt lat="44.57967" lon="-0.9048">
        <ele>60.158657</ele>
        <time>2022-12-27T13:06:03.733Z</time>
      </trkpt>
      <trkpt lat="44.57958" lon="-0.90471">
        <ele>59.856894</ele>
        <time>2022-12-27T13:06:05.734Z</time>
      </trkpt>
      <trkpt lat="44.57948" lon="-0.90461">
        <ele>59.644327</ele>
        <time>2022-12-27T13:06:07.736Z</time>
      </trkpt>
      <trkpt lat="44.57938" lon="-0.90452">
        <ele>59.439605</ele>
        <time>2022-12-27T13:06:09.731Z</time>
      </trkpt>
      <trkpt lat="44.57929" lon="-0.90443">
        <ele>59.232029</ele>
        <time>2022-12-27T13:06:11.721Z</time>
      </trkpt>
      <trkpt lat="44.57919" lon="-0.90434">
        <ele>59.022987</ele>
        <time>2022-12-27T13:06:13.717Z</time>
      </trkpt>
      <trkpt lat="44.57909" lon="-0.90424">
        <ele>58.809683</ele>
        <time>2022-12-27T13:06:15.738Z</time>
      </trkpt>
      <trkpt lat="44.57899" lon="-0.90414">
        <ele>58.591346</ele>
        <time>2022-12-27T13:06:17.700Z</time>
      </trkpt>
      <trkpt lat="44.57888" lon="-0.90404">
        <ele>58.370847</ele>
        <time>2022-12-27T13:06:19.733Z</time>
      </trkpt>
      <trkpt lat="44.57879" lon="-0.90395">
        <ele>58.170175</ele>
        <time>2022-12-27T13:06:21.710Z</time>
      </trkpt>
      <trkpt lat="44.57869" lon="-0.90386">
        <ele>57.971249</ele>
        <time>2022-12-27T13:06:23.733Z</time>
      </trkpt>
      <trkpt lat="44.57861" lon="-0.90378">
        <ele>57.790356</ele>
        <time>2022-12-27T13:06:25.729Z</time>
      </trkpt>
      <trkpt lat="44.57853" lon="-0.90369">
        <ele>57.607974</ele>
        <time>2022-12-27T13:06:27.728Z</time>
      </trkpt>
      <trkpt lat="44.57845" lon="-0.9036">
        <ele>57.425476</ele>
        <time>2022-12-27T13:06:29.746Z</time>
      </trkpt>
      <trkpt lat="44.57836" lon="-0.90351">
        <ele>57.240818</ele>
        <time>2022-12-27T13:06:31.716Z</time>
      </trkpt>
      <trkpt lat="44.57828" lon="-0.90342">
        <ele>57.053441</ele>
        <time>2022-12-27T13:06:33.730Z</time>
      </trkpt>
      <trkpt lat="44.57819" lon="-0.90333">
        <ele>56.854422</ele>
        <time>2022-12-27T13:06:35.732Z</time>
      </trkpt>
      <trkpt lat="44.5781" lon="-0.90324">
        <ele>56.755819</ele>
        <time>2022-12-27T13:06:37.708Z</time>
      </trkpt>
      <trkpt lat="44.57801" lon="-0.90314">
        <ele>56.756282</ele>
        <time>2022-12-27T13:06:39.731Z</time>
      </trkpt>
      <trkpt lat="44.57793" lon="-0.90304">
        <ele>56.756731</ele>
        <time>2022-12-27T13:06:41.718Z</time>
      </trkpt>
      <trkpt lat="44.57784" lon="-0.90294">
        <ele>56.757204</ele>
        <time>2022-12-27T13:06:43.728Z</time>
      </trkpt>
      <trkpt lat="44.57776" lon="-0.90285">
        <ele>56.757643</ele>
        <time>2022-12-27T13:06:45.734Z</time>
      </trkpt>
      <trkpt lat="44.57766" lon="-0.90274">
        <ele>56.758175</ele>
        <time>2022-12-27T13:06:47.734Z</time>
      </trkpt>
      <trkpt lat="44.57757" lon="-0.90263">
        <ele>56.75867</ele>
        <time>2022-12-27T13:06:49.731Z</time>
      </trkpt>
      <trkpt lat="44.57747" lon="-0.90253">
        <ele>56.759155</ele>
        <time>2022-12-27T13:06:51.719Z</time>
      </trkpt>
      <trkpt lat="44.57738" lon="-0.90245">
        <ele>56.759629</ele>
        <time>2022-12-27T13:06:53.713Z</time>
      </trkpt>
      <trkpt lat="44.57729" lon="-0.90235">
        <ele>56.760113</ele>
        <time>2022-12-27T13:06:55.729Z</time>
      </trkpt>
      <trkpt lat="44.5772" lon="-0.90224">
        <ele>56.760599</ele>
        <time>2022-12-27T13:06:57.731Z</time>
      </trkpt>
      <trkpt lat="44.57712" lon="-0.90213">
        <ele>56.76107</ele>
        <time>2022-12-27T13:06:59.734Z</time>
      </trkpt>
      <trkpt lat="44.57703" lon="-0.90203">
        <ele>56.76154</ele>
        <time>2022-12-27T13:07:01.713Z</time>
      </trkpt>
      <trkpt lat="44.57693" lon="-0.90194">
        <ele>56.762024</ele>
        <time>2022-12-27T13:07:03.697Z</time>
      </trkpt>
      <trkpt lat="44.57686" lon="-0.90183">
        <ele>56.762457</ele>
        <time>2022-12-27T13:07:05.718Z</time>
      </trkpt>
      <trkpt lat="44.57679" lon="-0.90173">
        <ele>56.762873</ele>
        <time>2022-12-27T13:07:07.731Z</time>
      </trkpt>
      <trkpt lat="44.5767" lon="-0.90164">
        <ele>56.787982</ele>
        <time>2022-12-27T13:07:09.736Z</time>
      </trkpt>
      <trkpt lat="44.57662" lon="-0.90154">
        <ele>56.833996</ele>
        <time>2022-12-27T13:07:11.728Z</time>
      </trkpt>
      <trkpt lat="44.57654" lon="-0.90144">
        <ele>56.879249</ele>
        <time>2022-12-27T13:07:13.726Z</time>
      </trkpt>
      <trkpt lat="44.57646" lon="-0.90133">
        <ele>56.924781</ele>
        <time>2022-12-27T13:07:15.785Z</time>
      </trkpt>
      <trkpt lat="44.57638" lon="-0.90123">
        <ele>56.969606</ele>
        <time>2022-12-27T13:07:17.733Z</time>
      </trkpt>
      <trkpt lat="44.5763" lon="-0.90113">
        <ele>57.011386</ele>
        <time>2022-12-27T13:07:19.731Z</time>
      </trkpt>
      <trkpt lat="44.57623" lon="-0.90105">
        <ele>57.050026</ele>
        <time>2022-12-27T13:07:21.756Z</time>
      </trkpt>
      <trkpt lat="44.57616" lon="-0.90095">
        <ele>57.093423</ele>
        <time>2022-12-27T13:07:23.738Z</time>
      </trkpt>
      <trkpt lat="44.57607" lon="-0.90085">
        <ele>57.138177</ele>
        <time>2022-12-27T13:07:25.735Z</time>
      </trkpt>
      <trkpt lat="44.576" lon="-0.90074">
        <ele>57.181951</ele>
        <time>2022-12-27T13:07:27.751Z</time>
      </trkpt>
      <trkpt lat="44.57593" lon="-0.90064">
        <ele>57.225366</ele>
        <time>2022-12-27T13:07:29.737Z</time>
      </trkpt>
      <trkpt lat="44.57586" lon="-0.90054">
        <ele>57.267354</ele>
        <time>2022-12-27T13:07:31.717Z</time>
      </trkpt>
      <trkpt lat="44.57579" lon="-0.90044">
        <ele>57.30989</ele>
        <time>2022-12-27T13:07:33.785Z</time>
      </trkpt>
      <trkpt lat="44.57571" lon="-0.90034">
        <ele>57.353899</ele>
        <time>2022-12-27T13:07:35.731Z</time>
      </trkpt>
      <trkpt lat="44.57564" lon="-0.90023">
        <ele>57.396077</ele>
        <time>2022-12-27T13:07:37.730Z</time>
      </trkpt>
      <trkpt lat="44.57556" lon="-0.90013">
        <ele>57.442618</ele>
        <time>2022-12-27T13:07:39.792Z</time>
      </trkpt>
      <trkpt lat="44.57549" lon="-0.90002">
        <ele>57.485825</ele>
        <time>2022-12-27T13:07:41.711Z</time>
      </trkpt>
      <trkpt lat="44.57541" lon="-0.89992">
        <ele>57.56752</ele>
        <time>2022-12-27T13:07:43.733Z</time>
      </trkpt>
      <trkpt lat="44.57534" lon="-0.89981">
        <ele>57.716843</ele>
        <time>2022-12-27T13:07:45.787Z</time>
      </trkpt>
      <trkpt lat="44.57526" lon="-0.89971">
        <ele>57.862593</ele>
        <time>2022-12-27T13:07:47.709Z</time>
      </trkpt>
      <trkpt lat="44.5752" lon="-0.8996">
        <ele>58.000482</ele>
        <time>2022-12-27T13:07:49.734Z</time>
      </trkpt>
      <trkpt lat="44.57513" lon="-0.8995">
        <ele>58.139381</ele>
        <time>2022-12-27T13:07:51.704Z</time>
      </trkpt>
      <trkpt lat="44.57506" lon="-0.8994">
        <ele>58.280873</ele>
        <time>2022-12-27T13:07:53.732Z</time>
      </trkpt>
      <trkpt lat="44.57498" lon="-0.89929">
        <ele>58.427993</ele>
        <time>2022-12-27T13:07:55.732Z</time>
      </trkpt>
      <trkpt lat="44.5749" lon="-0.89919">
        <ele>58.573814</ele>
        <time>2022-12-27T13:07:57.734Z</time>
      </trkpt>
      <trkpt lat="44.57483" lon="-0.89908">
        <ele>58.721737</ele>
        <time>2022-12-27T13:07:59.709Z</time>
      </trkpt>
      <trkpt lat="44.57475" lon="-0.89897">
        <ele>58.871902</ele>
        <time>2022-12-27T13:08:01.710Z</time>
      </trkpt>
      <trkpt lat="44.57467" lon="-0.89887">
        <ele>59.02073</ele>
        <time>2022-12-27T13:08:03.733Z</time>
      </trkpt>
      <trkpt lat="44.57461" lon="-0.89877">
        <ele>59.154335</ele>
        <time>2022-12-27T13:08:05.734Z</time>
      </trkpt>
      <trkpt lat="44.57454" lon="-0.89867">
        <ele>59.296111</ele>
        <time>2022-12-27T13:08:07.732Z</time>
      </trkpt>
      <trkpt lat="44.57446" lon="-0.89857">
        <ele>59.436905</ele>
        <time>2022-12-27T13:08:09.730Z</time>
      </trkpt>
      <trkpt lat="44.5744" lon="-0.89847">
        <ele>59.575626</ele>
        <time>2022-12-27T13:08:11.719Z</time>
      </trkpt>
      <trkpt lat="44.57433" lon="-0.89836">
        <ele>59.715445</ele>
        <time>2022-12-27T13:08:13.795Z</time>
      </trkpt>
      <trkpt lat="44.57425" lon="-0.89827">
        <ele>59.854166</ele>
        <time>2022-12-27T13:08:15.712Z</time>
      </trkpt>
      <trkpt lat="44.57419" lon="-0.89817">
        <ele>59.984971</ele>
        <time>2022-12-27T13:08:17.733Z</time>
      </trkpt>
      <trkpt lat="44.57412" lon="-0.89807">
        <ele>59.961133</ele>
        <time>2022-12-27T13:08:19.799Z</time>
      </trkpt>
      <trkpt lat="44.57405" lon="-0.89797">
        <ele>59.91593</ele>
        <time>2022-12-27T13:08:21.722Z</time>
      </trkpt>
      <trkpt lat="44.57398" lon="-0.89786">
        <ele>59.872311</ele>
        <time>2022-12-27T13:08:23.731Z</time>
      </trkpt>
      <trkpt lat="44.57391" lon="-0.89777">
        <ele>59.828978</ele>
        <time>2022-12-27T13:08:25.736Z</time>
      </trkpt>
      <trkpt lat="44.57383" lon="-0.89768">
        <ele>59.785858</ele>
        <time>2022-12-27T13:08:27.730Z</time>
      </trkpt>
      <trkpt lat="44.57377" lon="-0.89757">
        <ele>59.743232</ele>
        <time>2022-12-27T13:08:29.732Z</time>
      </trkpt>
      <trkpt lat="44.5737" lon="-0.89747">
        <ele>59.698426</ele>
        <time>2022-12-27T13:08:31.718Z</time>
      </trkpt>
      <trkpt lat="44.57362" lon="-0.89737">
        <ele>59.652871</ele>
        <time>2022-12-27T13:08:33.732Z</time>
      </trkpt>
      <trkpt lat="44.57355" lon="-0.89727">
        <ele>59.608477</ele>
        <time>2022-12-27T13:08:35.733Z</time>
      </trkpt>
      <trkpt lat="44.57349" lon="-0.89718">
        <ele>59.568239</ele>
        <time>2022-12-27T13:08:37.734Z</time>
      </trkpt>
      <trkpt lat="44.57341" lon="-0.89708">
        <ele>59.523845</ele>
        <time>2022-12-27T13:08:39.733Z</time>
      </trkpt>
      <trkpt lat="44.57332" lon="-0.89695">
        <ele>59.468132</ele>
        <time>2022-12-27T13:08:42.731Z</time>
      </trkpt>
      <trkpt lat="44.57324" lon="-0.89685">
        <ele>59.418378</ele>
        <time>2022-12-27T13:08:44.736Z</time>
      </trkpt>
      <trkpt lat="44.57317" lon="-0.89676">
        <ele>59.375385</ele>
        <time>2022-12-27T13:08:46.736Z</time>
      </trkpt>
      <trkpt lat="44.5731" lon="-0.89665">
        <ele>59.331993</ele>
        <time>2022-12-27T13:08:48.734Z</time>
      </trkpt>
      <trkpt lat="44.573" lon="-0.89655">
        <ele>59.279144</ele>
        <time>2022-12-27T13:08:50.735Z</time>
      </trkpt>
      <trkpt lat="44.57294" lon="-0.89645">
        <ele>59.236703</ele>
        <time>2022-12-27T13:08:52.743Z</time>
      </trkpt>
      <trkpt lat="44.57287" lon="-0.89633">
        <ele>59.289725</ele>
        <time>2022-12-27T13:08:54.722Z</time>
      </trkpt>
      <trkpt lat="44.5728" lon="-0.89623">
        <ele>59.453144</ele>
        <time>2022-12-27T13:08:56.732Z</time>
      </trkpt>
      <trkpt lat="44.57274" lon="-0.89612">
        <ele>59.603156</ele>
        <time>2022-12-27T13:08:58.736Z</time>
      </trkpt>
      <trkpt lat="44.57267" lon="-0.89599">
        <ele>59.776307</ele>
        <time>2022-12-27T13:09:00.716Z</time>
      </trkpt>
      <trkpt lat="44.57261" lon="-0.89589">
        <ele>59.925255</ele>
        <time>2022-12-27T13:09:02.731Z</time>
      </trkpt>
      <trkpt lat="44.57252" lon="-0.89578">
        <ele>60.101303</ele>
        <time>2022-12-27T13:09:04.736Z</time>
      </trkpt>
      <trkpt lat="44.57244" lon="-0.89566">
        <ele>60.283254</ele>
        <time>2022-12-27T13:09:06.725Z</time>
      </trkpt>
      <trkpt lat="44.57235" lon="-0.89556">
        <ele>60.463973</ele>
        <time>2022-12-27T13:09:08.733Z</time>
      </trkpt>
      <trkpt lat="44.57228" lon="-0.89546">
        <ele>60.613746</ele>
        <time>2022-12-27T13:09:10.732Z</time>
      </trkpt>
      <trkpt lat="44.57219" lon="-0.89534">
        <ele>60.800193</ele>
        <time>2022-12-27T13:09:12.727Z</time>
      </trkpt>
      <trkpt lat="44.57212" lon="-0.89524">
        <ele>60.961485</ele>
        <time>2022-12-27T13:09:14.709Z</time>
      </trkpt>
      <trkpt lat="44.57202" lon="-0.89513">
        <ele>61.148578</ele>
        <time>2022-12-27T13:09:16.719Z</time>
      </trkpt>
      <trkpt lat="44.57196" lon="-0.89501">
        <ele>61.311048</ele>
        <time>2022-12-27T13:09:18.717Z</time>
      </trkpt>
      <trkpt lat="44.57189" lon="-0.89492">
        <ele>61.456763</ele>
        <time>2022-12-27T13:09:20.715Z</time>
      </trkpt>
      <trkpt lat="44.57183" lon="-0.89483">
        <ele>61.602478</ele>
        <time>2022-12-27T13:09:22.720Z</time>
      </trkpt>
      <trkpt lat="44.57175" lon="-0.89473">
        <ele>61.759055</ele>
        <time>2022-12-27T13:09:24.731Z</time>
      </trkpt>
      <trkpt lat="44.57167" lon="-0.89462">
        <ele>61.929452</ele>
        <time>2022-12-27T13:09:26.725Z</time>
      </trkpt>
      <trkpt lat="44.57159" lon="-0.8945">
        <ele>61.880188</ele>
        <time>2022-12-27T13:09:29.732Z</time>
      </trkpt>
      <trkpt lat="44.5715" lon="-0.89437">
        <ele>61.72865</ele>
        <time>2022-12-27T13:09:32.734Z</time>
      </trkpt>
      <trkpt lat="44.57142" lon="-0.89425">
        <ele>61.590768</ele>
        <time>2022-12-27T13:09:35.796Z</time>
      </trkpt>
      <trkpt lat="44.57135" lon="-0.89416">
        <ele>61.481683</ele>
        <time>2022-12-27T13:09:37.734Z</time>
      </trkpt>
      <trkpt lat="44.57126" lon="-0.89403">
        <ele>61.327539</ele>
        <time>2022-12-27T13:09:40.751Z</time>
      </trkpt>
      <trkpt lat="44.5712" lon="-0.89393">
        <ele>61.217781</ele>
        <time>2022-12-27T13:09:42.741Z</time>
      </trkpt>
      <trkpt lat="44.57114" lon="-0.89383">
        <ele>61.109572</ele>
        <time>2022-12-27T13:09:44.783Z</time>
      </trkpt>
      <trkpt lat="44.57105" lon="-0.8937">
        <ele>60.962058</ele>
        <time>2022-12-27T13:09:47.733Z</time>
      </trkpt>
      <trkpt lat="44.57097" lon="-0.89355">
        <ele>60.810712</ele>
        <time>2022-12-27T13:09:50.781Z</time>
      </trkpt>
      <trkpt lat="44.57089" lon="-0.89343">
        <ele>60.665405</ele>
        <time>2022-12-27T13:09:53.731Z</time>
      </trkpt>
      <trkpt lat="44.57079" lon="-0.89329">
        <ele>60.507452</ele>
        <time>2022-12-27T13:09:56.788Z</time>
      </trkpt>
      <trkpt lat="44.57072" lon="-0.8932">
        <ele>60.392389</ele>
        <time>2022-12-27T13:09:58.738Z</time>
      </trkpt>
      <trkpt lat="44.57066" lon="-0.8931">
        <ele>60.282289</ele>
        <time>2022-12-27T13:10:00.737Z</time>
      </trkpt>
      <trkpt lat="44.57059" lon="-0.89301">
        <ele>60.175369</ele>
        <time>2022-12-27T13:10:02.792Z</time>
      </trkpt>
      <trkpt lat="44.57053" lon="-0.89291">
        <ele>60.065973</ele>
        <time>2022-12-27T13:10:04.734Z</time>
      </trkpt>
      <trkpt lat="44.57046" lon="-0.89282">
        <ele>59.952816</ele>
        <time>2022-12-27T13:10:06.737Z</time>
      </trkpt>
      <trkpt lat="44.57039" lon="-0.89271">
        <ele>59.931537</ele>
        <time>2022-12-27T13:10:08.783Z</time>
      </trkpt>
      <trkpt lat="44.57031" lon="-0.89261">
        <ele>60.077356</ele>
        <time>2022-12-27T13:10:10.737Z</time>
      </trkpt>
      <trkpt lat="44.57025" lon="-0.89252">
        <ele>60.203725</ele>
        <time>2022-12-27T13:10:12.732Z</time>
      </trkpt>
      <trkpt lat="44.57018" lon="-0.89243">
        <ele>60.326014</ele>
        <time>2022-12-27T13:10:14.736Z</time>
      </trkpt>
      <trkpt lat="44.57009" lon="-0.89229">
        <ele>60.5083</ele>
        <time>2022-12-27T13:10:17.715Z</time>
      </trkpt>
      <trkpt lat="44.57003" lon="-0.8922">
        <ele>60.634557</ele>
        <time>2022-12-27T13:10:19.735Z</time>
      </trkpt>
      <trkpt lat="44.56993" lon="-0.89207">
        <ele>60.808087</ele>
        <time>2022-12-27T13:10:22.725Z</time>
      </trkpt>
      <trkpt lat="44.56985" lon="-0.89195">
        <ele>60.971255</ele>
        <time>2022-12-27T13:10:25.739Z</time>
      </trkpt>
      <trkpt lat="44.56977" lon="-0.89185">
        <ele>61.113445</ele>
        <time>2022-12-27T13:10:27.734Z</time>
      </trkpt>
      <trkpt lat="44.5697" lon="-0.89174">
        <ele>61.256506</ele>
        <time>2022-12-27T13:10:29.735Z</time>
      </trkpt>
      <trkpt lat="44.56964" lon="-0.89164">
        <ele>61.388483</ele>
        <time>2022-12-27T13:10:31.711Z</time>
      </trkpt>
      <trkpt lat="44.56957" lon="-0.89154">
        <ele>61.524133</ele>
        <time>2022-12-27T13:10:33.735Z</time>
      </trkpt>
      <trkpt lat="44.5695" lon="-0.89144">
        <ele>61.661365</ele>
        <time>2022-12-27T13:10:35.735Z</time>
      </trkpt>
      <trkpt lat="44.56941" lon="-0.8913">
        <ele>61.836965</ele>
        <time>2022-12-27T13:10:38.790Z</time>
      </trkpt>
      <trkpt lat="44.56935" lon="-0.89118">
        <ele>61.977818</ele>
        <time>2022-12-27T13:10:41.718Z</time>
      </trkpt>
      <trkpt lat="44.56927" lon="-0.89105">
        <ele>62.143068</ele>
        <time>2022-12-27T13:10:44.785Z</time>
      </trkpt>
      <trkpt lat="44.5692" lon="-0.89095">
        <ele>62.280968</ele>
        <time>2022-12-27T13:10:46.736Z</time>
      </trkpt>
      <trkpt lat="44.56913" lon="-0.89086">
        <ele>62.507053</ele>
        <time>2022-12-27T13:10:48.732Z</time>
      </trkpt>
      <trkpt lat="44.56905" lon="-0.89077">
        <ele>62.802538</ele>
        <time>2022-12-27T13:10:50.735Z</time>
      </trkpt>
      <trkpt lat="44.56896" lon="-0.89066">
        <ele>63.16225</ele>
        <time>2022-12-27T13:10:52.735Z</time>
      </trkpt>
      <trkpt lat="44.56887" lon="-0.89057">
        <ele>63.477267</ele>
        <time>2022-12-27T13:10:55.783Z</time>
      </trkpt>
      <trkpt lat="44.56881" lon="-0.89045">
        <ele>63.775264</ele>
        <time>2022-12-27T13:10:57.733Z</time>
      </trkpt>
      <trkpt lat="44.56873" lon="-0.89034">
        <ele>64.107841</ele>
        <time>2022-12-27T13:11:00.733Z</time>
      </trkpt>
      <trkpt lat="44.56866" lon="-0.89023">
        <ele>64.412853</ele>
        <time>2022-12-27T13:11:03.732Z</time>
      </trkpt>
      <trkpt lat="44.5686" lon="-0.89012">
        <ele>64.711343</ele>
        <time>2022-12-27T13:11:06.722Z</time>
      </trkpt>
      <trkpt lat="44.5685" lon="-0.88998">
        <ele>65.097084</ele>
        <time>2022-12-27T13:11:09.732Z</time>
      </trkpt>
      <trkpt lat="44.56843" lon="-0.88989">
        <ele>65.382198</ele>
        <time>2022-12-27T13:11:11.718Z</time>
      </trkpt>
      <trkpt lat="44.56837" lon="-0.8898">
        <ele>65.643918</ele>
        <time>2022-12-27T13:11:13.737Z</time>
      </trkpt>
      <trkpt lat="44.56828" lon="-0.88968">
        <ele>66.001355</ele>
        <time>2022-12-27T13:11:16.732Z</time>
      </trkpt>
      <trkpt lat="44.5682" lon="-0.88956">
        <ele>66.34095</ele>
        <time>2022-12-27T13:11:19.734Z</time>
      </trkpt>
      <trkpt lat="44.56812" lon="-0.88944">
        <ele>66.689072</ele>
        <time>2022-12-27T13:11:22.733Z</time>
      </trkpt>
      <trkpt lat="44.56803" lon="-0.88932">
        <ele>67.050876</ele>
        <time>2022-12-27T13:11:25.724Z</time>
      </trkpt>
      <trkpt lat="44.56795" lon="-0.88921">
        <ele>67.375688</ele>
        <time>2022-12-27T13:11:28.766Z</time>
      </trkpt>
      <trkpt lat="44.56788" lon="-0.88909">
        <ele>67.385036</ele>
        <time>2022-12-27T13:11:31.716Z</time>
      </trkpt>
      <trkpt lat="44.56781" lon="-0.88899">
        <ele>67.081663</ele>
        <time>2022-12-27T13:11:33.733Z</time>
      </trkpt>
      <trkpt lat="44.56774" lon="-0.88889">
        <ele>66.717028</ele>
        <time>2022-12-27T13:11:35.734Z</time>
      </trkpt>
      <trkpt lat="44.56767" lon="-0.8888">
        <ele>66.409413</ele>
        <time>2022-12-27T13:11:37.738Z</time>
      </trkpt>
      <trkpt lat="44.56759" lon="-0.88867">
        <ele>65.988665</ele>
        <time>2022-12-27T13:11:40.791Z</time>
      </trkpt>
      <trkpt lat="44.56749" lon="-0.88854">
        <ele>65.542733</ele>
        <time>2022-12-27T13:11:43.732Z</time>
      </trkpt>
      <trkpt lat="44.56742" lon="-0.88845">
        <ele>65.235801</ele>
        <time>2022-12-27T13:11:45.733Z</time>
      </trkpt>
      <trkpt lat="44.56736" lon="-0.88836">
        <ele>64.935271</ele>
        <time>2022-12-27T13:11:47.725Z</time>
      </trkpt>
      <trkpt lat="44.56726" lon="-0.88823">
        <ele>64.492555</ele>
        <time>2022-12-27T13:11:50.732Z</time>
      </trkpt>
      <trkpt lat="44.56718" lon="-0.8881">
        <ele>64.062485</ele>
        <time>2022-12-27T13:11:53.712Z</time>
      </trkpt>
      <trkpt lat="44.56711" lon="-0.88801">
        <ele>63.740242</ele>
        <time>2022-12-27T13:11:56.734Z</time>
      </trkpt>
      <trkpt lat="44.56702" lon="-0.8879">
        <ele>63.369994</ele>
        <time>2022-12-27T13:11:59.731Z</time>
      </trkpt>
      <trkpt lat="44.56694" lon="-0.88779">
        <ele>62.99558</ele>
        <time>2022-12-27T13:12:02.732Z</time>
      </trkpt>
      <trkpt lat="44.56688" lon="-0.8877">
        <ele>62.690325</ele>
        <time>2022-12-27T13:12:04.786Z</time>
      </trkpt>
      <trkpt lat="44.56681" lon="-0.88761">
        <ele>62.372905</ele>
        <time>2022-12-27T13:12:06.733Z</time>
      </trkpt>
      <trkpt lat="44.56674" lon="-0.88752">
        <ele>62.061202</ele>
        <time>2022-12-27T13:12:08.732Z</time>
      </trkpt>
      <trkpt lat="44.56668" lon="-0.88743">
        <ele>61.760669</ele>
        <time>2022-12-27T13:12:10.796Z</time>
      </trkpt>
      <trkpt lat="44.56659" lon="-0.88729">
        <ele>61.473768</ele>
        <time>2022-12-27T13:12:13.733Z</time>
      </trkpt>
      <trkpt lat="44.56652" lon="-0.8872">
        <ele>61.380944</ele>
        <time>2022-12-27T13:12:15.730Z</time>
      </trkpt>
      <trkpt lat="44.56643" lon="-0.88706">
        <ele>61.245064</ele>
        <time>2022-12-27T13:12:18.735Z</time>
      </trkpt>
      <trkpt lat="44.56633" lon="-0.88694">
        <ele>61.113802</ele>
        <time>2022-12-27T13:12:21.717Z</time>
      </trkpt>
      <trkpt lat="44.56624" lon="-0.88681">
        <ele>60.985603</ele>
        <time>2022-12-27T13:12:24.733Z</time>
      </trkpt>
      <trkpt lat="44.56615" lon="-0.88668">
        <ele>60.855497</ele>
        <time>2022-12-27T13:12:27.735Z</time>
      </trkpt>
      <trkpt lat="44.56606" lon="-0.88655">
        <ele>60.726401</ele>
        <time>2022-12-27T13:12:30.734Z</time>
      </trkpt>
      <trkpt lat="44.56597" lon="-0.88642">
        <ele>60.597687</ele>
        <time>2022-12-27T13:12:33.733Z</time>
      </trkpt>
      <trkpt lat="44.56588" lon="-0.8863">
        <ele>60.470861</ele>
        <time>2022-12-27T13:12:36.737Z</time>
      </trkpt>
      <trkpt lat="44.56579" lon="-0.88617">
        <ele>60.341958</ele>
        <time>2022-12-27T13:12:39.734Z</time>
      </trkpt>
      <trkpt lat="44.5657" lon="-0.88604">
        <ele>60.212862</ele>
        <time>2022-12-27T13:12:42.731Z</time>
      </trkpt>
      <trkpt lat="44.56561" lon="-0.88591">
        <ele>60.082047</ele>
        <time>2022-12-27T13:12:45.726Z</time>
      </trkpt>
      <trkpt lat="44.56552" lon="-0.88577">
        <ele>59.94919</ele>
        <time>2022-12-27T13:12:48.735Z</time>
      </trkpt>
      <trkpt lat="44.56542" lon="-0.88564">
        <ele>59.814935</ele>
        <time>2022-12-27T13:12:51.711Z</time>
      </trkpt>
      <trkpt lat="44.56536" lon="-0.88555">
        <ele>59.760072</ele>
        <time>2022-12-27T13:12:53.734Z</time>
      </trkpt>
      <trkpt lat="44.56526" lon="-0.88542">
        <ele>59.908132</ele>
        <time>2022-12-27T13:12:56.733Z</time>
      </trkpt>
      <trkpt lat="44.5652" lon="-0.88531">
        <ele>60.013972</ele>
        <time>2022-12-27T13:12:58.790Z</time>
      </trkpt>
      <trkpt lat="44.56514" lon="-0.88522">
        <ele>60.111803</ele>
        <time>2022-12-27T13:13:00.731Z</time>
      </trkpt>
      <trkpt lat="44.56505" lon="-0.88509">
        <ele>60.25101</ele>
        <time>2022-12-27T13:13:03.734Z</time>
      </trkpt>
      <trkpt lat="44.56495" lon="-0.88497">
        <ele>60.391672</ele>
        <time>2022-12-27T13:13:06.731Z</time>
      </trkpt>
      <trkpt lat="44.56489" lon="-0.88486">
        <ele>60.497185</ele>
        <time>2022-12-27T13:13:08.741Z</time>
      </trkpt>
      <trkpt lat="44.56482" lon="-0.88477">
        <ele>60.601013</ele>
        <time>2022-12-27T13:13:10.787Z</time>
      </trkpt>
      <trkpt lat="44.56475" lon="-0.88467">
        <ele>60.708347</ele>
        <time>2022-12-27T13:13:12.726Z</time>
      </trkpt>
      <trkpt lat="44.56468" lon="-0.88457">
        <ele>60.815156</ele>
        <time>2022-12-27T13:13:14.714Z</time>
      </trkpt>
      <trkpt lat="44.56462" lon="-0.88447">
        <ele>60.919754</ele>
        <time>2022-12-27T13:13:16.716Z</time>
      </trkpt>
      <trkpt lat="44.56455" lon="-0.88439">
        <ele>61.01749</ele>
        <time>2022-12-27T13:13:18.733Z</time>
      </trkpt>
      <trkpt lat="44.56448" lon="-0.8843">
        <ele>61.114988</ele>
        <time>2022-12-27T13:13:20.731Z</time>
      </trkpt>
      <trkpt lat="44.5644" lon="-0.88416">
        <ele>61.252603</ele>
        <time>2022-12-27T13:13:23.731Z</time>
      </trkpt>
      <trkpt lat="44.56431" lon="-0.88403">
        <ele>61.393879</ele>
        <time>2022-12-27T13:13:26.725Z</time>
      </trkpt>
      <trkpt lat="44.56424" lon="-0.88394">
        <ele>61.491612</ele>
        <time>2022-12-27T13:13:28.733Z</time>
      </trkpt>
      <trkpt lat="44.56417" lon="-0.88385">
        <ele>61.59595</ele>
        <time>2022-12-27T13:13:30.738Z</time>
      </trkpt>
      <trkpt lat="44.56408" lon="-0.88373">
        <ele>61.670823</ele>
        <time>2022-12-27T13:13:33.736Z</time>
      </trkpt>
      <trkpt lat="44.56399" lon="-0.88359">
        <ele>61.619518</ele>
        <time>2022-12-27T13:13:36.718Z</time>
      </trkpt>
      <trkpt lat="44.56393" lon="-0.88349">
        <ele>61.584627</ele>
        <time>2022-12-27T13:13:38.730Z</time>
      </trkpt>
      <trkpt lat="44.56385" lon="-0.8834">
        <ele>61.545859</ele>
        <time>2022-12-27T13:13:40.733Z</time>
      </trkpt>
      <trkpt lat="44.56379" lon="-0.8833">
        <ele>61.511232</ele>
        <time>2022-12-27T13:13:42.731Z</time>
      </trkpt>
      <trkpt lat="44.56372" lon="-0.88321">
        <ele>61.475828</ele>
        <time>2022-12-27T13:13:44.715Z</time>
      </trkpt>
      <trkpt lat="44.56365" lon="-0.88312">
        <ele>61.438557</ele>
        <time>2022-12-27T13:13:46.719Z</time>
      </trkpt>
      <trkpt lat="44.56358" lon="-0.88302">
        <ele>61.400613</ele>
        <time>2022-12-27T13:13:48.711Z</time>
      </trkpt>
      <trkpt lat="44.56351" lon="-0.88292">
        <ele>61.361888</ele>
        <time>2022-12-27T13:13:50.728Z</time>
      </trkpt>
      <trkpt lat="44.56345" lon="-0.88282">
        <ele>61.324678</ele>
        <time>2022-12-27T13:13:52.784Z</time>
      </trkpt>
      <trkpt lat="44.56337" lon="-0.88272">
        <ele>61.285804</ele>
        <time>2022-12-27T13:13:54.732Z</time>
      </trkpt>
      <trkpt lat="44.5633" lon="-0.88262">
        <ele>61.246946</ele>
        <time>2022-12-27T13:13:56.734Z</time>
      </trkpt>
      <trkpt lat="44.56323" lon="-0.88252">
        <ele>61.208728</ele>
        <time>2022-12-27T13:13:58.729Z</time>
      </trkpt>
      <trkpt lat="44.56317" lon="-0.88242">
        <ele>61.169929</ele>
        <time>2022-12-27T13:14:00.735Z</time>
      </trkpt>
      <trkpt lat="44.5631" lon="-0.88232">
        <ele>61.133647</ele>
        <time>2022-12-27T13:14:02.737Z</time>
      </trkpt>
      <trkpt lat="44.56303" lon="-0.88223">
        <ele>61.096</ele>
        <time>2022-12-27T13:14:04.739Z</time>
      </trkpt>
      <trkpt lat="44.56296" lon="-0.88214">
        <ele>61.061036</ele>
        <time>2022-12-27T13:14:06.736Z</time>
      </trkpt>
      <trkpt lat="44.56288" lon="-0.88201">
        <ele>61.012791</ele>
        <time>2022-12-27T13:14:09.786Z</time>
      </trkpt>
      <trkpt lat="44.56278" lon="-0.88188">
        <ele>61.079493</ele>
        <time>2022-12-27T13:14:12.733Z</time>
      </trkpt>
      <trkpt lat="44.56271" lon="-0.88178">
        <ele>61.17881</ele>
        <time>2022-12-27T13:14:15.783Z</time>
      </trkpt>
      <trkpt lat="44.56264" lon="-0.88168">
        <ele>61.267727</ele>
        <time>2022-12-27T13:14:18.730Z</time>
      </trkpt>
      <trkpt lat="44.56255" lon="-0.88157">
        <ele>61.370794</ele>
        <time>2022-12-27T13:14:21.757Z</time>
      </trkpt>
      <trkpt lat="44.56247" lon="-0.88144">
        <ele>61.482094</ele>
        <time>2022-12-27T13:14:24.732Z</time>
      </trkpt>
      <trkpt lat="44.56238" lon="-0.88131">
        <ele>61.603267</ele>
        <time>2022-12-27T13:14:27.784Z</time>
      </trkpt>
      <trkpt lat="44.56231" lon="-0.88122">
        <ele>61.691531</ele>
        <time>2022-12-27T13:14:29.735Z</time>
      </trkpt>
      <trkpt lat="44.56224" lon="-0.88113">
        <ele>61.77604</ele>
        <time>2022-12-27T13:14:31.717Z</time>
      </trkpt>
      <trkpt lat="44.56217" lon="-0.88103">
        <ele>61.861104</ele>
        <time>2022-12-27T13:14:33.811Z</time>
      </trkpt>
      <trkpt lat="44.5621" lon="-0.88094">
        <ele>61.950468</ele>
        <time>2022-12-27T13:14:35.734Z</time>
      </trkpt>
      <trkpt lat="44.56203" lon="-0.88084">
        <ele>62.037839</ele>
        <time>2022-12-27T13:14:37.735Z</time>
      </trkpt>
      <trkpt lat="44.56196" lon="-0.88074">
        <ele>62.128377</ele>
        <time>2022-12-27T13:14:39.789Z</time>
      </trkpt>
      <trkpt lat="44.56189" lon="-0.88065">
        <ele>62.215166</ele>
        <time>2022-12-27T13:14:41.705Z</time>
      </trkpt>
      <trkpt lat="44.56182" lon="-0.88055">
        <ele>62.305886</ele>
        <time>2022-12-27T13:14:43.734Z</time>
      </trkpt>
      <trkpt lat="44.56175" lon="-0.88045">
        <ele>62.394149</ele>
        <time>2022-12-27T13:14:45.781Z</time>
      </trkpt>
      <trkpt lat="44.56168" lon="-0.88035">
        <ele>62.485149</ele>
        <time>2022-12-27T13:14:47.717Z</time>
      </trkpt>
      <trkpt lat="44.56162" lon="-0.88025">
        <ele>62.57558</ele>
        <time>2022-12-27T13:14:49.732Z</time>
      </trkpt>
      <trkpt lat="44.56155" lon="-0.88015">
        <ele>62.742404</ele>
        <time>2022-12-27T13:14:51.726Z</time>
      </trkpt>
      <trkpt lat="44.56148" lon="-0.88006">
        <ele>63.028</ele>
        <time>2022-12-27T13:14:53.732Z</time>
      </trkpt>
      <trkpt lat="44.56142" lon="-0.87996">
        <ele>63.299278</ele>
        <time>2022-12-27T13:14:55.732Z</time>
      </trkpt>
      <trkpt lat="44.56133" lon="-0.87983">
        <ele>63.688124</ele>
        <time>2022-12-27T13:14:58.738Z</time>
      </trkpt>
      <trkpt lat="44.56126" lon="-0.87974">
        <ele>63.956353</ele>
        <time>2022-12-27T13:15:00.735Z</time>
      </trkpt>
      <trkpt lat="44.5612" lon="-0.87964">
        <ele>64.243472</ele>
        <time>2022-12-27T13:15:02.735Z</time>
      </trkpt>
      <trkpt lat="44.5611" lon="-0.87949">
        <ele>64.658681</ele>
        <time>2022-12-27T13:15:05.735Z</time>
      </trkpt>
      <trkpt lat="44.56101" lon="-0.87935">
        <ele>65.066887</ele>
        <time>2022-12-27T13:15:08.732Z</time>
      </trkpt>
      <trkpt lat="44.56094" lon="-0.87926">
        <ele>65.349464</ele>
        <time>2022-12-27T13:15:10.732Z</time>
      </trkpt>
      <trkpt lat="44.56087" lon="-0.87916">
        <ele>65.64733</ele>
        <time>2022-12-27T13:15:12.733Z</time>
      </trkpt>
      <trkpt lat="44.5608" lon="-0.87906">
        <ele>65.946389</ele>
        <time>2022-12-27T13:15:14.735Z</time>
      </trkpt>
      <trkpt lat="44.56073" lon="-0.87897">
        <ele>66.225161</ele>
        <time>2022-12-27T13:15:16.732Z</time>
      </trkpt>
      <trkpt lat="44.56067" lon="-0.87887">
        <ele>66.509323</ele>
        <time>2022-12-27T13:15:18.712Z</time>
      </trkpt>
      <trkpt lat="44.56061" lon="-0.87876">
        <ele>66.801434</ele>
        <time>2022-12-27T13:15:20.736Z</time>
      </trkpt>
      <trkpt lat="44.56054" lon="-0.87866">
        <ele>67.098687</ele>
        <time>2022-12-27T13:15:22.729Z</time>
      </trkpt>
      <trkpt lat="44.56049" lon="-0.87855">
        <ele>67.365585</ele>
        <time>2022-12-27T13:15:24.733Z</time>
      </trkpt>
      <trkpt lat="44.56041" lon="-0.87841">
        <ele>67.744508</ele>
        <time>2022-12-27T13:15:27.787Z</time>
      </trkpt>
      <trkpt lat="44.56034" lon="-0.87829">
        <ele>67.937583</ele>
        <time>2022-12-27T13:15:30.732Z</time>
      </trkpt>
      <trkpt lat="44.56028" lon="-0.87817">
        <ele>67.864538</ele>
        <time>2022-12-27T13:15:33.764Z</time>
      </trkpt>
      <trkpt lat="44.5602" lon="-0.87801">
        <ele>67.774414</ele>
        <time>2022-12-27T13:15:36.736Z</time>
      </trkpt>
      <trkpt lat="44.56014" lon="-0.87786">
        <ele>67.688324</ele>
        <time>2022-12-27T13:15:39.722Z</time>
      </trkpt>
      <trkpt lat="44.56008" lon="-0.87773">
        <ele>67.613281</ele>
        <time>2022-12-27T13:15:42.734Z</time>
      </trkpt>
      <trkpt lat="44.56002" lon="-0.87761">
        <ele>67.542221</ele>
        <time>2022-12-27T13:15:45.739Z</time>
      </trkpt>
      <trkpt lat="44.55996" lon="-0.87749">
        <ele>67.47267</ele>
        <time>2022-12-27T13:15:48.735Z</time>
      </trkpt>
      <trkpt lat="44.55991" lon="-0.87735">
        <ele>67.394741</ele>
        <time>2022-12-27T13:15:51.719Z</time>
      </trkpt>
      <trkpt lat="44.55984" lon="-0.87719">
        <ele>67.305465</ele>
        <time>2022-12-27T13:15:54.735Z</time>
      </trkpt>
      <trkpt lat="44.5598" lon="-0.87708">
        <ele>67.244396</ele>
        <time>2022-12-27T13:15:56.789Z</time>
      </trkpt>
      <trkpt lat="44.55973" lon="-0.87692">
        <ele>67.150854</ele>
        <time>2022-12-27T13:15:59.732Z</time>
      </trkpt>
      <trkpt lat="44.55968" lon="-0.8768">
        <ele>67.084126</ele>
        <time>2022-12-27T13:16:01.720Z</time>
      </trkpt>
      <trkpt lat="44.55964" lon="-0.87669">
        <ele>67.020132</ele>
        <time>2022-12-27T13:16:03.729Z</time>
      </trkpt>
      <trkpt lat="44.55959" lon="-0.87657">
        <ele>66.955084</ele>
        <time>2022-12-27T13:16:05.718Z</time>
      </trkpt>
      <trkpt lat="44.55953" lon="-0.87641">
        <ele>66.868563</ele>
        <time>2022-12-27T13:16:08.784Z</time>
      </trkpt>
      <trkpt lat="44.55947" lon="-0.87626">
        <ele>66.781064</ele>
        <time>2022-12-27T13:16:11.715Z</time>
      </trkpt>
      <trkpt lat="44.55941" lon="-0.8761">
        <ele>66.808929</ele>
        <time>2022-12-27T13:16:14.805Z</time>
      </trkpt>
      <trkpt lat="44.55936" lon="-0.87598">
        <ele>66.919156</ele>
        <time>2022-12-27T13:16:16.734Z</time>
      </trkpt>
      <trkpt lat="44.55932" lon="-0.87587">
        <ele>67.028541</ele>
        <time>2022-12-27T13:16:18.733Z</time>
      </trkpt>
      <trkpt lat="44.55926" lon="-0.87572">
        <ele>67.176257</ele>
        <time>2022-12-27T13:16:21.717Z</time>
      </trkpt>
      <trkpt lat="44.5592" lon="-0.87556">
        <ele>67.325282</ele>
        <time>2022-12-27T13:16:24.735Z</time>
      </trkpt>
      <trkpt lat="44.55915" lon="-0.87544">
        <ele>67.439922</ele>
        <time>2022-12-27T13:16:26.793Z</time>
      </trkpt>
      <trkpt lat="44.55911" lon="-0.87532">
        <ele>67.551502</ele>
        <time>2022-12-27T13:16:28.735Z</time>
      </trkpt>
      <trkpt lat="44.55905" lon="-0.87517">
        <ele>67.705357</ele>
        <time>2022-12-27T13:16:31.717Z</time>
      </trkpt>
      <trkpt lat="44.55899" lon="-0.87506">
        <ele>67.816598</ele>
        <time>2022-12-27T13:16:33.731Z</time>
      </trkpt>
      <trkpt lat="44.55893" lon="-0.8749">
        <ele>67.974114</ele>
        <time>2022-12-27T13:16:36.735Z</time>
      </trkpt>
      <trkpt lat="44.55885" lon="-0.87475">
        <ele>68.130891</ele>
        <time>2022-12-27T13:16:39.738Z</time>
      </trkpt>
      <trkpt lat="44.5588" lon="-0.87461">
        <ele>68.26086</ele>
        <time>2022-12-27T13:16:41.716Z</time>
      </trkpt>
      <trkpt lat="44.55874" lon="-0.8745">
        <ele>68.376243</ele>
        <time>2022-12-27T13:16:43.733Z</time>
      </trkpt>
      <trkpt lat="44.55869" lon="-0.87438">
        <ele>68.494533</ele>
        <time>2022-12-27T13:16:45.740Z</time>
      </trkpt>
      <trkpt lat="44.55864" lon="-0.87426">
        <ele>68.613638</ele>
        <time>2022-12-27T13:16:47.732Z</time>
      </trkpt>
      <trkpt lat="44.55858" lon="-0.87415">
        <ele>68.731799</ele>
        <time>2022-12-27T13:16:49.786Z</time>
      </trkpt>
      <trkpt lat="44.55854" lon="-0.87403">
        <ele>68.846158</ele>
        <time>2022-12-27T13:16:51.719Z</time>
      </trkpt>
      <trkpt lat="44.55846" lon="-0.87387">
        <ele>68.839473</ele>
        <time>2022-12-27T13:16:54.734Z</time>
      </trkpt>
      <trkpt lat="44.55839" lon="-0.87374">
        <ele>68.801009</ele>
        <time>2022-12-27T13:16:57.738Z</time>
      </trkpt>
      <trkpt lat="44.55832" lon="-0.87362">
        <ele>68.766873</ele>
        <time>2022-12-27T13:17:00.735Z</time>
      </trkpt>
      <trkpt lat="44.55827" lon="-0.87352">
        <ele>68.736108</ele>
        <time>2022-12-27T13:17:03.733Z</time>
      </trkpt>
      <trkpt lat="44.5582" lon="-0.87341">
        <ele>68.702759</ele>
        <time>2022-12-27T13:17:07.731Z</time>
      </trkpt>
      <trkpt lat="44.55818" lon="-0.87327">
        <ele>68.670717</ele>
        <time>2022-12-27T13:17:12.811Z</time>
      </trkpt>
      <trkpt lat="44.55818" lon="-0.87313">
        <ele>68.638948</ele>
        <time>2022-12-27T13:17:16.732Z</time>
      </trkpt>
      <trkpt lat="44.5581" lon="-0.87305">
        <ele>68.60457</ele>
        <time>2022-12-27T13:17:21.714Z</time>
      </trkpt>
      <trkpt lat="44.55801" lon="-0.87297">
        <ele>68.571824</ele>
        <time>2022-12-27T13:17:24.759Z</time>
      </trkpt>
      <trkpt lat="44.55792" lon="-0.87288">
        <ele>68.536431</ele>
        <time>2022-12-27T13:17:27.710Z</time>
      </trkpt>
      <trkpt lat="44.55784" lon="-0.87276">
        <ele>68.498489</ele>
        <time>2022-12-27T13:17:30.741Z</time>
      </trkpt>
      <trkpt lat="44.55775" lon="-0.87264">
        <ele>68.458618</ele>
        <time>2022-12-27T13:17:33.739Z</time>
      </trkpt>
      <trkpt lat="44.55766" lon="-0.87251">
        <ele>68.417941</ele>
        <time>2022-12-27T13:17:36.734Z</time>
      </trkpt>
      <trkpt lat="44.55758" lon="-0.8724">
        <ele>68.380194</ele>
        <time>2022-12-27T13:17:39.735Z</time>
      </trkpt>
      <trkpt lat="44.55749" lon="-0.87229">
        <ele>68.342579</ele>
        <time>2022-12-27T13:17:42.745Z</time>
      </trkpt>
      <trkpt lat="44.55741" lon="-0.87221">
        <ele>68.308319</ele>
        <time>2022-12-27T13:17:45.732Z</time>
      </trkpt>
      <trkpt lat="44.55733" lon="-0.87211">
        <ele>68.223615</ele>
        <time>2022-12-27T13:17:48.731Z</time>
      </trkpt>
      <trkpt lat="44.55725" lon="-0.87202">
        <ele>68.102915</ele>
        <time>2022-12-27T13:17:51.713Z</time>
      </trkpt>
      <trkpt lat="44.55718" lon="-0.87193">
        <ele>67.986577</ele>
        <time>2022-12-27T13:17:54.732Z</time>
      </trkpt>
      <trkpt lat="44.55711" lon="-0.87184">
        <ele>67.876767</ele>
        <time>2022-12-27T13:17:57.735Z</time>
      </trkpt>
      <trkpt lat="44.55702" lon="-0.87174">
        <ele>67.734915</ele>
        <time>2022-12-27T13:18:01.719Z</time>
      </trkpt>
      <trkpt lat="44.55694" lon="-0.87164">
        <ele>67.609042</ele>
        <time>2022-12-27T13:18:04.786Z</time>
      </trkpt>
      <trkpt lat="44.55685" lon="-0.87154">
        <ele>67.470687</ele>
        <time>2022-12-27T13:18:07.734Z</time>
      </trkpt>
      <trkpt lat="44.55676" lon="-0.87143">
        <ele>67.326597</ele>
        <time>2022-12-27T13:18:10.801Z</time>
      </trkpt>
      <trkpt lat="44.55667" lon="-0.87131">
        <ele>67.176967</ele>
        <time>2022-12-27T13:18:13.733Z</time>
      </trkpt>
      <trkpt lat="44.55658" lon="-0.87119">
        <ele>67.027082</ele>
        <time>2022-12-27T13:18:16.790Z</time>
      </trkpt>
      <trkpt lat="44.55648" lon="-0.87108">
        <ele>66.873822</ele>
        <time>2022-12-27T13:18:19.739Z</time>
      </trkpt>
      <trkpt lat="44.55638" lon="-0.87096">
        <ele>66.718723</ele>
        <time>2022-12-27T13:18:22.788Z</time>
      </trkpt>
      <trkpt lat="44.55628" lon="-0.87084">
        <ele>66.560844</ele>
        <time>2022-12-27T13:18:25.734Z</time>
      </trkpt>
      <trkpt lat="44.55622" lon="-0.87076">
        <ele>66.452465</ele>
        <time>2022-12-27T13:18:27.737Z</time>
      </trkpt>
      <trkpt lat="44.55615" lon="-0.87068">
        <ele>66.3439</ele>
        <time>2022-12-27T13:18:29.733Z</time>
      </trkpt>
      <trkpt lat="44.55604" lon="-0.87056">
        <ele>66.184139</ele>
        <time>2022-12-27T13:18:32.735Z</time>
      </trkpt>
      <trkpt lat="44.55594" lon="-0.87044">
        <ele>66.090188</ele>
        <time>2022-12-27T13:18:35.734Z</time>
      </trkpt>
      <trkpt lat="44.55584" lon="-0.87032">
        <ele>66.029153</ele>
        <time>2022-12-27T13:18:38.729Z</time>
      </trkpt>
      <trkpt lat="44.55574" lon="-0.8702">
        <ele>65.971365</ele>
        <time>2022-12-27T13:18:41.718Z</time>
      </trkpt>
      <trkpt lat="44.55565" lon="-0.87009">
        <ele>65.918336</ele>
        <time>2022-12-27T13:18:44.737Z</time>
      </trkpt>
      <trkpt lat="44.55557" lon="-0.86999">
        <ele>65.8679</ele>
        <time>2022-12-27T13:18:47.734Z</time>
      </trkpt>
      <trkpt lat="44.55548" lon="-0.86988">
        <ele>65.813642</ele>
        <time>2022-12-27T13:18:50.732Z</time>
      </trkpt>
      <trkpt lat="44.55538" lon="-0.86976">
        <ele>65.753849</ele>
        <time>2022-12-27T13:18:53.737Z</time>
      </trkpt>
      <trkpt lat="44.55531" lon="-0.86968">
        <ele>65.712558</ele>
        <time>2022-12-27T13:18:55.710Z</time>
      </trkpt>
      <trkpt lat="44.5552" lon="-0.86956">
        <ele>65.65263</ele>
        <time>2022-12-27T13:18:58.733Z</time>
      </trkpt>
      <trkpt lat="44.55511" lon="-0.86944">
        <ele>65.593391</ele>
        <time>2022-12-27T13:19:01.719Z</time>
      </trkpt>
      <trkpt lat="44.55501" lon="-0.86933">
        <ele>65.537131</ele>
        <time>2022-12-27T13:19:04.738Z</time>
      </trkpt>
      <trkpt lat="44.55492" lon="-0.86922">
        <ele>65.482524</ele>
        <time>2022-12-27T13:19:07.732Z</time>
      </trkpt>
      <trkpt lat="44.55483" lon="-0.86912">
        <ele>65.431741</ele>
        <time>2022-12-27T13:19:10.734Z</time>
      </trkpt>
      <trkpt lat="44.55475" lon="-0.86902">
        <ele>65.385525</ele>
        <time>2022-12-27T13:19:13.752Z</time>
      </trkpt>
      <trkpt lat="44.55467" lon="-0.86893">
        <ele>65.33747</ele>
        <time>2022-12-27T13:19:17.719Z</time>
      </trkpt>
      <trkpt lat="44.55459" lon="-0.86884">
        <ele>65.534844</ele>
        <time>2022-12-27T13:19:22.734Z</time>
      </trkpt>
      <trkpt lat="44.55451" lon="-0.86873">
        <ele>65.919135</ele>
        <time>2022-12-27T13:19:26.732Z</time>
      </trkpt>
      <trkpt lat="44.55444" lon="-0.86865">
        <ele>66.245653</ele>
        <time>2022-12-27T13:19:30.717Z</time>
      </trkpt>
      <trkpt lat="44.55436" lon="-0.86857">
        <ele>66.593975</ele>
        <time>2022-12-27T13:19:35.727Z</time>
      </trkpt>
      <trkpt lat="44.55429" lon="-0.86847">
        <ele>66.928055</ele>
        <time>2022-12-27T13:19:54.732Z</time>
      </trkpt>
      <trkpt lat="44.55427" lon="-0.86845">
        <ele>67.028704</ele>
        <time>2022-12-27T13:20:16.832Z</time>
      </trkpt>
      <trkpt lat="44.55421" lon="-0.86835">
        <ele>67.359913</ele>
        <time>2022-12-27T13:39:53.717Z</time>
      </trkpt>
      <trkpt lat="44.55413" lon="-0.86825">
        <ele>67.739881</ele>
        <time>2022-12-27T13:39:58.723Z</time>
      </trkpt>
      <trkpt lat="44.55406" lon="-0.86817">
        <ele>68.061553</ele>
        <time>2022-12-27T13:40:01.726Z</time>
      </trkpt>
      <trkpt lat="44.55398" lon="-0.86809">
        <ele>68.407521</ele>
        <time>2022-12-27T13:40:04.735Z</time>
      </trkpt>
      <trkpt lat="44.55391" lon="-0.86799">
        <ele>68.75807</ele>
        <time>2022-12-27T13:40:07.731Z</time>
      </trkpt>
      <trkpt lat="44.55384" lon="-0.8679">
        <ele>69.11466</ele>
        <time>2022-12-27T13:40:10.739Z</time>
      </trkpt>
      <trkpt lat="44.55375" lon="-0.86779">
        <ele>69.51462</ele>
        <time>2022-12-27T13:40:13.715Z</time>
      </trkpt>
      <trkpt lat="44.55367" lon="-0.86769">
        <ele>69.906884</ele>
        <time>2022-12-27T13:40:16.733Z</time>
      </trkpt>
      <trkpt lat="44.55358" lon="-0.86759">
        <ele>70.300769</ele>
        <time>2022-12-27T13:40:19.739Z</time>
      </trkpt>
      <trkpt lat="44.5535" lon="-0.86749">
        <ele>70.701779</ele>
        <time>2022-12-27T13:40:22.732Z</time>
      </trkpt>
      <trkpt lat="44.55341" lon="-0.8674">
        <ele>71.077536</ele>
        <time>2022-12-27T13:40:25.738Z</time>
      </trkpt>
      <trkpt lat="44.55333" lon="-0.86731">
        <ele>71.470281</ele>
        <time>2022-12-27T13:40:28.737Z</time>
      </trkpt>
      <trkpt lat="44.55325" lon="-0.86721">
        <ele>71.764624</ele>
        <time>2022-12-27T13:40:31.734Z</time>
      </trkpt>
      <trkpt lat="44.55316" lon="-0.8671">
        <ele>71.920467</ele>
        <time>2022-12-27T13:40:34.712Z</time>
      </trkpt>
      <trkpt lat="44.55306" lon="-0.86701">
        <ele>72.082862</ele>
        <time>2022-12-27T13:40:37.737Z</time>
      </trkpt>
      <trkpt lat="44.55297" lon="-0.86692">
        <ele>72.234074</ele>
        <time>2022-12-27T13:40:40.736Z</time>
      </trkpt>
      <trkpt lat="44.55288" lon="-0.86683">
        <ele>72.386384</ele>
        <time>2022-12-27T13:40:43.745Z</time>
      </trkpt>
      <trkpt lat="44.55278" lon="-0.86674">
        <ele>72.54592</ele>
        <time>2022-12-27T13:40:46.738Z</time>
      </trkpt>
      <trkpt lat="44.55268" lon="-0.86664">
        <ele>72.70605</ele>
        <time>2022-12-27T13:40:49.734Z</time>
      </trkpt>
      <trkpt lat="44.55258" lon="-0.86655">
        <ele>72.867918</ele>
        <time>2022-12-27T13:40:52.734Z</time>
      </trkpt>
      <trkpt lat="44.55249" lon="-0.86646">
        <ele>73.026922</ele>
        <time>2022-12-27T13:40:55.718Z</time>
      </trkpt>
      <trkpt lat="44.55239" lon="-0.86636">
        <ele>73.189318</ele>
        <time>2022-12-27T13:40:58.744Z</time>
      </trkpt>
      <trkpt lat="44.55229" lon="-0.86627">
        <ele>73.349978</ele>
        <time>2022-12-27T13:41:01.725Z</time>
      </trkpt>
      <trkpt lat="44.55219" lon="-0.86618">
        <ele>73.508108</ele>
        <time>2022-12-27T13:41:04.736Z</time>
      </trkpt>
      <trkpt lat="44.5521" lon="-0.86609">
        <ele>73.666037</ele>
        <time>2022-12-27T13:41:07.737Z</time>
      </trkpt>
      <trkpt lat="44.552" lon="-0.86601">
        <ele>73.823014</ele>
        <time>2022-12-27T13:41:10.736Z</time>
      </trkpt>
      <trkpt lat="44.5519" lon="-0.86593">
        <ele>73.974368</ele>
        <time>2022-12-27T13:41:13.739Z</time>
      </trkpt>
      <trkpt lat="44.55181" lon="-0.86585">
        <ele>74.123851</ele>
        <time>2022-12-27T13:41:16.745Z</time>
      </trkpt>
      <trkpt lat="44.55172" lon="-0.86577">
        <ele>74.284992</ele>
        <time>2022-12-27T13:41:19.738Z</time>
      </trkpt>
      <trkpt lat="44.55165" lon="-0.86567">
        <ele>74.458096</ele>
        <time>2022-12-27T13:41:23.738Z</time>
      </trkpt>
      <trkpt lat="44.55155" lon="-0.86561">
        <ele>74.627129</ele>
        <time>2022-12-27T13:41:29.725Z</time>
      </trkpt>
      <trkpt lat="44.55145" lon="-0.8656">
        <ele>74.795818</ele>
        <time>2022-12-27T13:41:34.716Z</time>
      </trkpt>
      <trkpt lat="44.55138" lon="-0.86551">
        <ele>74.948796</ele>
        <time>2022-12-27T13:41:37.717Z</time>
      </trkpt>
      <trkpt lat="44.55129" lon="-0.86544">
        <ele>75.12027</ele>
        <time>2022-12-27T13:41:40.735Z</time>
      </trkpt>
      <trkpt lat="44.55119" lon="-0.86536">
        <ele>75.306411</ele>
        <time>2022-12-27T13:41:43.737Z</time>
      </trkpt>
      <trkpt lat="44.55109" lon="-0.86529">
        <ele>75.502271</ele>
        <time>2022-12-27T13:41:46.737Z</time>
      </trkpt>
      <trkpt lat="44.55098" lon="-0.86521">
        <ele>75.705916</ele>
        <time>2022-12-27T13:41:49.737Z</time>
      </trkpt>
      <trkpt lat="44.55087" lon="-0.86513">
        <ele>75.90712</ele>
        <time>2022-12-27T13:41:52.738Z</time>
      </trkpt>
      <trkpt lat="44.55076" lon="-0.86505">
        <ele>76.118414</ele>
        <time>2022-12-27T13:41:55.740Z</time>
      </trkpt>
      <trkpt lat="44.55065" lon="-0.86497">
        <ele>76.329588</ele>
        <time>2022-12-27T13:41:58.733Z</time>
      </trkpt>
      <trkpt lat="44.55053" lon="-0.8649">
        <ele>76.546821</ele>
        <time>2022-12-27T13:42:01.730Z</time>
      </trkpt>
      <trkpt lat="44.5504" lon="-0.86483">
        <ele>76.765541</ele>
        <time>2022-12-27T13:42:04.732Z</time>
      </trkpt>
      <trkpt lat="44.55029" lon="-0.86477">
        <ele>76.972564</ele>
        <time>2022-12-27T13:42:07.724Z</time>
      </trkpt>
      <trkpt lat="44.55017" lon="-0.86471">
        <ele>77.137641</ele>
        <time>2022-12-27T13:42:10.736Z</time>
      </trkpt>
      <trkpt lat="44.55005" lon="-0.86463">
        <ele>77.11699</ele>
        <time>2022-12-27T13:42:13.718Z</time>
      </trkpt>
      <trkpt lat="44.54997" lon="-0.86457">
        <ele>77.102772</ele>
        <time>2022-12-27T13:42:15.736Z</time>
      </trkpt>
      <trkpt lat="44.54988" lon="-0.86452">
        <ele>77.088182</ele>
        <time>2022-12-27T13:42:17.739Z</time>
      </trkpt>
      <trkpt lat="44.54977" lon="-0.86444">
        <ele>77.067249</ele>
        <time>2022-12-27T13:42:20.737Z</time>
      </trkpt>
      <trkpt lat="44.54964" lon="-0.86436">
        <ele>77.046408</ele>
        <time>2022-12-27T13:42:23.737Z</time>
      </trkpt>
      <trkpt lat="44.54953" lon="-0.86428">
        <ele>77.025813</ele>
        <time>2022-12-27T13:42:26.737Z</time>
      </trkpt>
      <trkpt lat="44.54944" lon="-0.86423">
        <ele>77.011605</ele>
        <time>2022-12-27T13:42:28.735Z</time>
      </trkpt>
      <trkpt lat="44.54936" lon="-0.86418">
        <ele>76.997343</ele>
        <time>2022-12-27T13:42:30.738Z</time>
      </trkpt>
      <trkpt lat="44.54924" lon="-0.86411">
        <ele>76.976634</ele>
        <time>2022-12-27T13:42:33.734Z</time>
      </trkpt>
      <trkpt lat="44.54912" lon="-0.86404">
        <ele>76.956227</ele>
        <time>2022-12-27T13:42:36.736Z</time>
      </trkpt>
      <trkpt lat="44.54901" lon="-0.86397">
        <ele>76.937253</ele>
        <time>2022-12-27T13:42:39.738Z</time>
      </trkpt>
      <trkpt lat="44.54891" lon="-0.86391">
        <ele>76.920146</ele>
        <time>2022-12-27T13:42:42.723Z</time>
      </trkpt>
      <trkpt lat="44.54883" lon="-0.86385">
        <ele>76.905212</ele>
        <time>2022-12-27T13:42:45.746Z</time>
      </trkpt>
      <trkpt lat="44.54872" lon="-0.86378">
        <ele>76.887236</ele>
        <time>2022-12-27T13:42:49.742Z</time>
      </trkpt>
      <trkpt lat="44.54865" lon="-0.8637">
        <ele>76.8725</ele>
        <time>2022-12-27T13:42:53.732Z</time>
      </trkpt>
      <trkpt lat="44.54855" lon="-0.86369">
        <ele>76.844844</ele>
        <time>2022-12-27T13:42:58.713Z</time>
      </trkpt>
      <trkpt lat="44.54845" lon="-0.86368">
        <ele>76.69431</ele>
        <time>2022-12-27T13:43:02.717Z</time>
      </trkpt>
      <trkpt lat="44.54837" lon="-0.86359">
        <ele>76.544144</ele>
        <time>2022-12-27T13:43:05.716Z</time>
      </trkpt>
      <trkpt lat="44.54827" lon="-0.86351">
        <ele>76.357006</ele>
        <time>2022-12-27T13:43:09.730Z</time>
      </trkpt>
      <trkpt lat="44.54816" lon="-0.86345">
        <ele>76.179499</ele>
        <time>2022-12-27T13:43:12.734Z</time>
      </trkpt>
      <trkpt lat="44.54804" lon="-0.86338">
        <ele>75.982475</ele>
        <time>2022-12-27T13:43:15.734Z</time>
      </trkpt>
      <trkpt lat="44.54796" lon="-0.86332">
        <ele>75.838975</ele>
        <time>2022-12-27T13:43:17.739Z</time>
      </trkpt>
      <trkpt lat="44.54783" lon="-0.86325">
        <ele>75.630203</ele>
        <time>2022-12-27T13:43:20.738Z</time>
      </trkpt>
      <trkpt lat="44.54774" lon="-0.8632">
        <ele>75.486653</ele>
        <time>2022-12-27T13:43:22.738Z</time>
      </trkpt>
      <trkpt lat="44.54766" lon="-0.86314">
        <ele>75.348689</ele>
        <time>2022-12-27T13:43:24.737Z</time>
      </trkpt>
      <trkpt lat="44.54754" lon="-0.86307">
        <ele>75.141193</ele>
        <time>2022-12-27T13:43:27.737Z</time>
      </trkpt>
      <trkpt lat="44.54744" lon="-0.86302">
        <ele>74.979898</ele>
        <time>2022-12-27T13:43:29.737Z</time>
      </trkpt>
      <trkpt lat="44.54734" lon="-0.86296">
        <ele>74.822247</ele>
        <time>2022-12-27T13:43:31.733Z</time>
      </trkpt>
      <trkpt lat="44.54724" lon="-0.8629">
        <ele>74.656046</ele>
        <time>2022-12-27T13:43:33.735Z</time>
      </trkpt>
      <trkpt lat="44.54715" lon="-0.86285">
        <ele>74.496168</ele>
        <time>2022-12-27T13:43:35.735Z</time>
      </trkpt>
      <trkpt lat="44.54705" lon="-0.86279">
        <ele>74.338823</ele>
        <time>2022-12-27T13:43:37.737Z</time>
      </trkpt>
      <trkpt lat="44.54696" lon="-0.86272">
        <ele>74.173993</ele>
        <time>2022-12-27T13:43:39.736Z</time>
      </trkpt>
      <trkpt lat="44.54686" lon="-0.86266">
        <ele>74.022129</ele>
        <time>2022-12-27T13:43:41.713Z</time>
      </trkpt>
      <trkpt lat="44.54676" lon="-0.8626">
        <ele>73.872315</ele>
        <time>2022-12-27T13:43:43.746Z</time>
      </trkpt>
      <trkpt lat="44.54665" lon="-0.86254">
        <ele>73.708953</ele>
        <time>2022-12-27T13:43:45.739Z</time>
      </trkpt>
      <trkpt lat="44.54655" lon="-0.86248">
        <ele>73.560032</ele>
        <time>2022-12-27T13:43:47.727Z</time>
      </trkpt>
      <trkpt lat="44.54644" lon="-0.86242">
        <ele>73.403844</ele>
        <time>2022-12-27T13:43:49.721Z</time>
      </trkpt>
      <trkpt lat="44.54634" lon="-0.86235">
        <ele>73.249236</ele>
        <time>2022-12-27T13:43:51.722Z</time>
      </trkpt>
      <trkpt lat="44.54624" lon="-0.86229">
        <ele>73.095238</ele>
        <time>2022-12-27T13:43:53.741Z</time>
      </trkpt>
      <trkpt lat="44.54614" lon="-0.86223">
        <ele>72.946008</ele>
        <time>2022-12-27T13:43:55.747Z</time>
      </trkpt>
      <trkpt lat="44.54605" lon="-0.86219">
        <ele>72.820007</ele>
        <time>2022-12-27T13:43:57.746Z</time>
      </trkpt>
      <trkpt lat="44.54595" lon="-0.86212">
        <ele>72.670316</ele>
        <time>2022-12-27T13:43:59.738Z</time>
      </trkpt>
      <trkpt lat="44.54586" lon="-0.86206">
        <ele>72.531044</ele>
        <time>2022-12-27T13:44:01.729Z</time>
      </trkpt>
      <trkpt lat="44.54576" lon="-0.86201">
        <ele>72.386509</ele>
        <time>2022-12-27T13:44:03.736Z</time>
      </trkpt>
      <trkpt lat="44.54566" lon="-0.86195">
        <ele>72.240586</ele>
        <time>2022-12-27T13:44:05.722Z</time>
      </trkpt>
      <trkpt lat="44.54556" lon="-0.86188">
        <ele>72.083076</ele>
        <time>2022-12-27T13:44:07.718Z</time>
      </trkpt>
      <trkpt lat="44.54546" lon="-0.86182">
        <ele>71.928828</ele>
        <time>2022-12-27T13:44:09.726Z</time>
      </trkpt>
      <trkpt lat="44.54536" lon="-0.86177">
        <ele>71.785927</ele>
        <time>2022-12-27T13:44:11.725Z</time>
      </trkpt>
      <trkpt lat="44.54527" lon="-0.86171">
        <ele>71.653277</ele>
        <time>2022-12-27T13:44:13.735Z</time>
      </trkpt>
      <trkpt lat="44.54518" lon="-0.86165">
        <ele>71.593784</ele>
        <time>2022-12-27T13:44:15.713Z</time>
      </trkpt>
      <trkpt lat="44.54508" lon="-0.8616">
        <ele>71.543517</ele>
        <time>2022-12-27T13:44:17.730Z</time>
      </trkpt>
      <trkpt lat="44.54498" lon="-0.86153">
        <ele>71.487787</ele>
        <time>2022-12-27T13:44:19.736Z</time>
      </trkpt>
      <trkpt lat="44.54489" lon="-0.86146">
        <ele>71.436413</ele>
        <time>2022-12-27T13:44:21.716Z</time>
      </trkpt>
      <trkpt lat="44.54479" lon="-0.8614">
        <ele>71.382296</ele>
        <time>2022-12-27T13:44:23.746Z</time>
      </trkpt>
      <trkpt lat="44.54466" lon="-0.86132">
        <ele>71.313815</ele>
        <time>2022-12-27T13:44:26.737Z</time>
      </trkpt>
      <trkpt lat="44.54457" lon="-0.86126">
        <ele>71.265864</ele>
        <time>2022-12-27T13:44:28.734Z</time>
      </trkpt>
      <trkpt lat="44.54446" lon="-0.8612">
        <ele>71.208762</ele>
        <time>2022-12-27T13:44:30.733Z</time>
      </trkpt>
      <trkpt lat="44.54437" lon="-0.86115">
        <ele>71.157692</ele>
        <time>2022-12-27T13:44:32.719Z</time>
      </trkpt>
      <trkpt lat="44.54427" lon="-0.86109">
        <ele>71.104184</ele>
        <time>2022-12-27T13:44:34.737Z</time>
      </trkpt>
      <trkpt lat="44.54417" lon="-0.86102">
        <ele>71.051111</ele>
        <time>2022-12-27T13:44:36.739Z</time>
      </trkpt>
      <trkpt lat="44.54407" lon="-0.86097">
        <ele>71.000721</ele>
        <time>2022-12-27T13:44:38.735Z</time>
      </trkpt>
      <trkpt lat="44.54397" lon="-0.86091">
        <ele>70.946293</ele>
        <time>2022-12-27T13:44:40.741Z</time>
      </trkpt>
      <trkpt lat="44.54388" lon="-0.86085">
        <ele>70.896334</ele>
        <time>2022-12-27T13:44:42.746Z</time>
      </trkpt>
      <trkpt lat="44.5438" lon="-0.86078">
        <ele>70.850599</ele>
        <time>2022-12-27T13:44:44.741Z</time>
      </trkpt>
      <trkpt lat="44.54369" lon="-0.86074">
        <ele>70.797097</ele>
        <time>2022-12-27T13:44:46.747Z</time>
      </trkpt>
      <trkpt lat="44.5436" lon="-0.86069">
        <ele>70.762329</ele>
        <time>2022-12-27T13:44:48.737Z</time>
      </trkpt>
      <trkpt lat="44.5435" lon="-0.86065">
        <ele>70.789484</ele>
        <time>2022-12-27T13:44:50.741Z</time>
      </trkpt>
      <trkpt lat="44.54338" lon="-0.8606">
        <ele>70.822735</ele>
        <time>2022-12-27T13:44:53.738Z</time>
      </trkpt>
      <trkpt lat="44.5433" lon="-0.86055">
        <ele>70.84684</ele>
        <time>2022-12-27T13:44:55.738Z</time>
      </trkpt>
      <trkpt lat="44.54321" lon="-0.86048">
        <ele>70.87343</ele>
        <time>2022-12-27T13:44:57.743Z</time>
      </trkpt>
      <trkpt lat="44.54309" lon="-0.86043">
        <ele>70.907389</ele>
        <time>2022-12-27T13:45:00.735Z</time>
      </trkpt>
      <trkpt lat="44.54297" lon="-0.86036">
        <ele>70.942043</ele>
        <time>2022-12-27T13:45:03.738Z</time>
      </trkpt>
      <trkpt lat="44.54286" lon="-0.86029">
        <ele>70.97402</ele>
        <time>2022-12-27T13:45:05.736Z</time>
      </trkpt>
      <trkpt lat="44.54275" lon="-0.8602">
        <ele>71.007735</ele>
        <time>2022-12-27T13:45:08.734Z</time>
      </trkpt>
      <trkpt lat="44.54266" lon="-0.86012">
        <ele>71.036632</ele>
        <time>2022-12-27T13:45:10.719Z</time>
      </trkpt>
      <trkpt lat="44.54255" lon="-0.86007">
        <ele>71.066209</ele>
        <time>2022-12-27T13:45:13.716Z</time>
      </trkpt>
      <trkpt lat="44.54245" lon="-0.86">
        <ele>71.09762</ele>
        <time>2022-12-27T13:45:16.738Z</time>
      </trkpt>
      <trkpt lat="44.54233" lon="-0.85991">
        <ele>71.132675</ele>
        <time>2022-12-27T13:45:19.734Z</time>
      </trkpt>
      <trkpt lat="44.54221" lon="-0.85983">
        <ele>71.169071</ele>
        <time>2022-12-27T13:45:22.733Z</time>
      </trkpt>
      <trkpt lat="44.54209" lon="-0.85977">
        <ele>71.201422</ele>
        <time>2022-12-27T13:45:25.723Z</time>
      </trkpt>
      <trkpt lat="44.54197" lon="-0.85971">
        <ele>71.234583</ele>
        <time>2022-12-27T13:45:28.737Z</time>
      </trkpt>
      <trkpt lat="44.54186" lon="-0.85964">
        <ele>71.077218</ele>
        <time>2022-12-27T13:45:31.716Z</time>
      </trkpt>
      <trkpt lat="44.54175" lon="-0.85956">
        <ele>70.905706</ele>
        <time>2022-12-27T13:45:34.748Z</time>
      </trkpt>
      <trkpt lat="44.54162" lon="-0.85946">
        <ele>70.716925</ele>
        <time>2022-12-27T13:45:37.737Z</time>
      </trkpt>
      <trkpt lat="44.5415" lon="-0.85937">
        <ele>70.535335</ele>
        <time>2022-12-27T13:45:40.745Z</time>
      </trkpt>
      <trkpt lat="44.54142" lon="-0.8593">
        <ele>70.406819</ele>
        <time>2022-12-27T13:45:42.734Z</time>
      </trkpt>
      <trkpt lat="44.54133" lon="-0.85924">
        <ele>70.279918</ele>
        <time>2022-12-27T13:45:44.741Z</time>
      </trkpt>
      <trkpt lat="44.54124" lon="-0.85917">
        <ele>70.143526</ele>
        <time>2022-12-27T13:45:46.740Z</time>
      </trkpt>
      <trkpt lat="44.54116" lon="-0.8591">
        <ele>70.013852</ele>
        <time>2022-12-27T13:45:48.721Z</time>
      </trkpt>
      <trkpt lat="44.54108" lon="-0.85903">
        <ele>69.889127</ele>
        <time>2022-12-27T13:45:50.741Z</time>
      </trkpt>
      <trkpt lat="44.54099" lon="-0.85897">
        <ele>69.765685</ele>
        <time>2022-12-27T13:45:52.737Z</time>
      </trkpt>
      <trkpt lat="44.54087" lon="-0.85888">
        <ele>69.577465</ele>
        <time>2022-12-27T13:45:55.744Z</time>
      </trkpt>
      <trkpt lat="44.54076" lon="-0.85878">
        <ele>69.401934</ele>
        <time>2022-12-27T13:45:58.737Z</time>
      </trkpt>
      <trkpt lat="44.54067" lon="-0.85871">
        <ele>69.276645</ele>
        <time>2022-12-27T13:46:00.737Z</time>
      </trkpt>
      <trkpt lat="44.54059" lon="-0.85865">
        <ele>69.153669</ele>
        <time>2022-12-27T13:46:02.736Z</time>
      </trkpt>
      <trkpt lat="44.54051" lon="-0.85859">
        <ele>69.033923</ele>
        <time>2022-12-27T13:46:04.733Z</time>
      </trkpt>
      <trkpt lat="44.54043" lon="-0.85852">
        <ele>68.909198</ele>
        <time>2022-12-27T13:46:06.738Z</time>
      </trkpt>
      <trkpt lat="44.54035" lon="-0.85844">
        <ele>68.950217</ele>
        <time>2022-12-27T13:46:08.739Z</time>
      </trkpt>
      <trkpt lat="44.54026" lon="-0.85837">
        <ele>69.11107</ele>
        <time>2022-12-27T13:46:10.735Z</time>
      </trkpt>
      <trkpt lat="44.54019" lon="-0.85829">
        <ele>69.265794</ele>
        <time>2022-12-27T13:46:12.739Z</time>
      </trkpt>
      <trkpt lat="44.54011" lon="-0.85821">
        <ele>69.416557</ele>
        <time>2022-12-27T13:46:14.736Z</time>
      </trkpt>
      <trkpt lat="44.54003" lon="-0.85814">
        <ele>69.567487</ele>
        <time>2022-12-27T13:46:16.737Z</time>
      </trkpt>
      <trkpt lat="44.53995" lon="-0.85806">
        <ele>69.723467</ele>
        <time>2022-12-27T13:46:18.739Z</time>
      </trkpt>
      <trkpt lat="44.53987" lon="-0.85798">
        <ele>69.882117</ele>
        <time>2022-12-27T13:46:20.732Z</time>
      </trkpt>
      <trkpt lat="44.53978" lon="-0.85791">
        <ele>70.038913</ele>
        <time>2022-12-27T13:46:22.721Z</time>
      </trkpt>
      <trkpt lat="44.53971" lon="-0.85784">
        <ele>70.183808</ele>
        <time>2022-12-27T13:46:24.735Z</time>
      </trkpt>
      <trkpt lat="44.53961" lon="-0.85774">
        <ele>70.378947</ele>
        <time>2022-12-27T13:46:27.735Z</time>
      </trkpt>
      <trkpt lat="44.53953" lon="-0.85767">
        <ele>70.522571</ele>
        <time>2022-12-27T13:46:29.732Z</time>
      </trkpt>
      <trkpt lat="44.53945" lon="-0.85758">
        <ele>70.687702</ele>
        <time>2022-12-27T13:46:31.726Z</time>
      </trkpt>
      <trkpt lat="44.53937" lon="-0.8575">
        <ele>70.836554</ele>
        <time>2022-12-27T13:46:33.738Z</time>
      </trkpt>
      <trkpt lat="44.5393" lon="-0.85742">
        <ele>70.988322</ele>
        <time>2022-12-27T13:46:35.736Z</time>
      </trkpt>
      <trkpt lat="44.53923" lon="-0.85733">
        <ele>71.141039</ele>
        <time>2022-12-27T13:46:37.734Z</time>
      </trkpt>
      <trkpt lat="44.53915" lon="-0.85725">
        <ele>71.291388</ele>
        <time>2022-12-27T13:46:39.714Z</time>
      </trkpt>
      <trkpt lat="44.53908" lon="-0.85717">
        <ele>71.444834</ele>
        <time>2022-12-27T13:46:41.727Z</time>
      </trkpt>
      <trkpt lat="44.53899" lon="-0.85708">
        <ele>71.611396</ele>
        <time>2022-12-27T13:46:43.731Z</time>
      </trkpt>
      <trkpt lat="44.53893" lon="-0.85699">
        <ele>71.774629</ele>
        <time>2022-12-27T13:46:45.736Z</time>
      </trkpt>
      <trkpt lat="44.53886" lon="-0.8569">
        <ele>71.964265</ele>
        <time>2022-12-27T13:46:47.735Z</time>
      </trkpt>
      <trkpt lat="44.53879" lon="-0.85681">
        <ele>72.159376</ele>
        <time>2022-12-27T13:46:49.740Z</time>
      </trkpt>
      <trkpt lat="44.53869" lon="-0.85669">
        <ele>72.442413</ele>
        <time>2022-12-27T13:46:52.731Z</time>
      </trkpt>
      <trkpt lat="44.53861" lon="-0.8566">
        <ele>72.647451</ele>
        <time>2022-12-27T13:46:54.727Z</time>
      </trkpt>
      <trkpt lat="44.53854" lon="-0.85651">
        <ele>72.847119</ele>
        <time>2022-12-27T13:46:56.742Z</time>
      </trkpt>
      <trkpt lat="44.53847" lon="-0.85642">
        <ele>73.056464</ele>
        <time>2022-12-27T13:46:58.738Z</time>
      </trkpt>
      <trkpt lat="44.5384" lon="-0.85632">
        <ele>73.260253</ele>
        <time>2022-12-27T13:47:00.708Z</time>
      </trkpt>
      <trkpt lat="44.53833" lon="-0.85623">
        <ele>73.463479</ele>
        <time>2022-12-27T13:47:02.735Z</time>
      </trkpt>
      <trkpt lat="44.53826" lon="-0.85614">
        <ele>73.663383</ele>
        <time>2022-12-27T13:47:04.733Z</time>
      </trkpt>
      <trkpt lat="44.53819" lon="-0.85605">
        <ele>73.854901</ele>
        <time>2022-12-27T13:47:06.739Z</time>
      </trkpt>
      <trkpt lat="44.53809" lon="-0.85593">
        <ele>74.137773</ele>
        <time>2022-12-27T13:47:09.736Z</time>
      </trkpt>
      <trkpt lat="44.53802" lon="-0.85584">
        <ele>74.332885</ele>
        <time>2022-12-27T13:47:11.726Z</time>
      </trkpt>
      <trkpt lat="44.53793" lon="-0.85571">
        <ele>74.607553</ele>
        <time>2022-12-27T13:47:14.739Z</time>
      </trkpt>
      <trkpt lat="44.53784" lon="-0.85557">
        <ele>74.883223</ele>
        <time>2022-12-27T13:47:17.737Z</time>
      </trkpt>
      <trkpt lat="44.53777" lon="-0.85548">
        <ele>75.083354</ele>
        <time>2022-12-27T13:47:19.736Z</time>
      </trkpt>
      <trkpt lat="44.53771" lon="-0.85539">
        <ele>75.279513</ele>
        <time>2022-12-27T13:47:21.724Z</time>
      </trkpt>
      <trkpt lat="44.53763" lon="-0.8553">
        <ele>75.475626</ele>
        <time>2022-12-27T13:47:23.737Z</time>
      </trkpt>
      <trkpt lat="44.53755" lon="-0.85519">
        <ele>75.460111</ele>
        <time>2022-12-27T13:47:26.735Z</time>
      </trkpt>
      <trkpt lat="44.53748" lon="-0.85508">
        <ele>75.427265</ele>
        <time>2022-12-27T13:47:28.736Z</time>
      </trkpt>
      <trkpt lat="44.53742" lon="-0.85497">
        <ele>75.39294</ele>
        <time>2022-12-27T13:47:30.741Z</time>
      </trkpt>
      <trkpt lat="44.53734" lon="-0.85485">
        <ele>75.356329</ele>
        <time>2022-12-27T13:47:32.737Z</time>
      </trkpt>
      <trkpt lat="44.53724" lon="-0.8547">
        <ele>75.307459</ele>
        <time>2022-12-27T13:47:35.746Z</time>
      </trkpt>
      <trkpt lat="44.53717" lon="-0.8546">
        <ele>75.274838</ele>
        <time>2022-12-27T13:47:37.743Z</time>
      </trkpt>
      <trkpt lat="44.5371" lon="-0.8545">
        <ele>75.243119</ele>
        <time>2022-12-27T13:47:39.733Z</time>
      </trkpt>
      <trkpt lat="44.53703" lon="-0.8544">
        <ele>75.211056</ele>
        <time>2022-12-27T13:47:41.716Z</time>
      </trkpt>
      <trkpt lat="44.53697" lon="-0.8543">
        <ele>75.180293</ele>
        <time>2022-12-27T13:47:43.733Z</time>
      </trkpt>
      <trkpt lat="44.5369" lon="-0.8542">
        <ele>75.146383</ele>
        <time>2022-12-27T13:47:45.736Z</time>
      </trkpt>
      <trkpt lat="44.53683" lon="-0.85408">
        <ele>75.110085</ele>
        <time>2022-12-27T13:47:47.739Z</time>
      </trkpt>
      <trkpt lat="44.53676" lon="-0.85397">
        <ele>75.076569</ele>
        <time>2022-12-27T13:47:49.738Z</time>
      </trkpt>
      <trkpt lat="44.53669" lon="-0.85386">
        <ele>75.04338</ele>
        <time>2022-12-27T13:47:51.725Z</time>
      </trkpt>
      <trkpt lat="44.53662" lon="-0.85376">
        <ele>75.010311</ele>
        <time>2022-12-27T13:47:53.726Z</time>
      </trkpt>
      <trkpt lat="44.53652" lon="-0.85361">
        <ele>74.962389</ele>
        <time>2022-12-27T13:47:56.724Z</time>
      </trkpt>
      <trkpt lat="44.53645" lon="-0.85351">
        <ele>74.928704</ele>
        <time>2022-12-27T13:47:58.735Z</time>
      </trkpt>
      <trkpt lat="44.53638" lon="-0.85341">
        <ele>74.81239</ele>
        <time>2022-12-27T13:48:00.738Z</time>
      </trkpt>
      <trkpt lat="44.53631" lon="-0.8533">
        <ele>74.564962</ele>
        <time>2022-12-27T13:48:02.723Z</time>
      </trkpt>
      <trkpt lat="44.53625" lon="-0.8532">
        <ele>74.315609</ele>
        <time>2022-12-27T13:48:04.736Z</time>
      </trkpt>
      <trkpt lat="44.53618" lon="-0.8531">
        <ele>74.076188</ele>
        <time>2022-12-27T13:48:06.738Z</time>
      </trkpt>
      <trkpt lat="44.53612" lon="-0.853">
        <ele>73.849661</ele>
        <time>2022-12-27T13:48:08.734Z</time>
      </trkpt>
      <trkpt lat="44.53605" lon="-0.8529">
        <ele>73.588063</ele>
        <time>2022-12-27T13:48:10.739Z</time>
      </trkpt>
      <trkpt lat="44.53597" lon="-0.85279">
        <ele>73.317531</ele>
        <time>2022-12-27T13:48:12.745Z</time>
      </trkpt>
      <trkpt lat="44.5359" lon="-0.85269">
        <ele>73.071655</ele>
        <time>2022-12-27T13:48:14.750Z</time>
      </trkpt>
      <trkpt lat="44.53583" lon="-0.85259">
        <ele>72.824605</ele>
        <time>2022-12-27T13:48:16.734Z</time>
      </trkpt>
      <trkpt lat="44.53576" lon="-0.85249">
        <ele>72.574546</ele>
        <time>2022-12-27T13:48:18.739Z</time>
      </trkpt>
      <trkpt lat="44.5357" lon="-0.85239">
        <ele>72.34167</ele>
        <time>2022-12-27T13:48:20.737Z</time>
      </trkpt>
      <trkpt lat="44.53562" lon="-0.85227">
        <ele>72.054616</ele>
        <time>2022-12-27T13:48:23.734Z</time>
      </trkpt>
      <trkpt lat="44.53555" lon="-0.85216">
        <ele>71.785742</ele>
        <time>2022-12-27T13:48:26.738Z</time>
      </trkpt>
      <trkpt lat="44.53548" lon="-0.85207">
        <ele>71.55157</ele>
        <time>2022-12-27T13:48:29.737Z</time>
      </trkpt>
      <trkpt lat="44.5354" lon="-0.85196">
        <ele>71.267333</ele>
        <time>2022-12-27T13:48:32.738Z</time>
      </trkpt>
      <trkpt lat="44.53531" lon="-0.85184">
        <ele>70.964602</ele>
        <time>2022-12-27T13:48:35.736Z</time>
      </trkpt>
      <trkpt lat="44.53524" lon="-0.85175">
        <ele>70.7368</ele>
        <time>2022-12-27T13:48:37.734Z</time>
      </trkpt>
      <trkpt lat="44.53516" lon="-0.85163">
        <ele>70.436451</ele>
        <time>2022-12-27T13:48:40.736Z</time>
      </trkpt>
      <trkpt lat="44.53506" lon="-0.85152">
        <ele>70.337725</ele>
        <time>2022-12-27T13:48:43.733Z</time>
      </trkpt>
      <trkpt lat="44.53499" lon="-0.85144">
        <ele>70.268594</ele>
        <time>2022-12-27T13:48:45.737Z</time>
      </trkpt>
      <trkpt lat="44.53492" lon="-0.85135">
        <ele>70.196267</ele>
        <time>2022-12-27T13:48:47.737Z</time>
      </trkpt>
      <trkpt lat="44.53485" lon="-0.85126">
        <ele>70.124668</ele>
        <time>2022-12-27T13:48:49.731Z</time>
      </trkpt>
      <trkpt lat="44.53477" lon="-0.85118">
        <ele>70.053113</ele>
        <time>2022-12-27T13:48:51.725Z</time>
      </trkpt>
      <trkpt lat="44.53471" lon="-0.85109">
        <ele>69.982209</ele>
        <time>2022-12-27T13:48:53.747Z</time>
      </trkpt>
      <trkpt lat="44.53463" lon="-0.851">
        <ele>69.906381</ele>
        <time>2022-12-27T13:48:55.735Z</time>
      </trkpt>
      <trkpt lat="44.53455" lon="-0.85092">
        <ele>69.830464</ele>
        <time>2022-12-27T13:48:57.740Z</time>
      </trkpt>
      <trkpt lat="44.53446" lon="-0.85083">
        <ele>69.743795</ele>
        <time>2022-12-27T13:48:59.732Z</time>
      </trkpt>
      <trkpt lat="44.53438" lon="-0.85073">
        <ele>69.65896</ele>
        <time>2022-12-27T13:49:01.729Z</time>
      </trkpt>
      <trkpt lat="44.53429" lon="-0.85064">
        <ele>69.572292</ele>
        <time>2022-12-27T13:49:03.734Z</time>
      </trkpt>
      <trkpt lat="44.5342" lon="-0.85055">
        <ele>69.487562</ele>
        <time>2022-12-27T13:49:05.740Z</time>
      </trkpt>
      <trkpt lat="44.53411" lon="-0.85045">
        <ele>69.401548</ele>
        <time>2022-12-27T13:49:07.735Z</time>
      </trkpt>
      <trkpt lat="44.53402" lon="-0.85036">
        <ele>69.317098</ele>
        <time>2022-12-27T13:49:09.757Z</time>
      </trkpt>
      <trkpt lat="44.53393" lon="-0.85028">
        <ele>69.23394</ele>
        <time>2022-12-27T13:49:11.722Z</time>
      </trkpt>
      <trkpt lat="44.53384" lon="-0.8502">
        <ele>69.151659</ele>
        <time>2022-12-27T13:49:13.739Z</time>
      </trkpt>
      <trkpt lat="44.53376" lon="-0.85012">
        <ele>69.075433</ele>
        <time>2022-12-27T13:49:15.739Z</time>
      </trkpt>
      <trkpt lat="44.53368" lon="-0.85004">
        <ele>69.06859</ele>
        <time>2022-12-27T13:49:17.740Z</time>
      </trkpt>
      <trkpt lat="44.5336" lon="-0.84997">
        <ele>69.087591</ele>
        <time>2022-12-27T13:49:19.748Z</time>
      </trkpt>
      <trkpt lat="44.53349" lon="-0.84988">
        <ele>69.11542</ele>
        <time>2022-12-27T13:49:22.734Z</time>
      </trkpt>
      <trkpt lat="44.53338" lon="-0.8498">
        <ele>69.141945</ele>
        <time>2022-12-27T13:49:25.737Z</time>
      </trkpt>
      <trkpt lat="44.5333" lon="-0.84973">
        <ele>69.161463</ele>
        <time>2022-12-27T13:49:27.734Z</time>
      </trkpt>
      <trkpt lat="44.5332" lon="-0.84964">
        <ele>69.186729</ele>
        <time>2022-12-27T13:49:30.728Z</time>
      </trkpt>
      <trkpt lat="44.53309" lon="-0.84956">
        <ele>69.211993</ele>
        <time>2022-12-27T13:49:33.736Z</time>
      </trkpt>
      <trkpt lat="44.533" lon="-0.8495">
        <ele>69.233792</ele>
        <time>2022-12-27T13:49:37.720Z</time>
      </trkpt>
      <trkpt lat="44.53291" lon="-0.84943">
        <ele>69.255195</ele>
        <time>2022-12-27T13:49:42.728Z</time>
      </trkpt>
      <trkpt lat="44.53281" lon="-0.84935">
        <ele>69.278834</ele>
        <time>2022-12-27T13:49:48.721Z</time>
      </trkpt>
      <trkpt lat="44.53271" lon="-0.84927">
        <ele>69.303249</ele>
        <time>2022-12-27T13:49:52.747Z</time>
      </trkpt>
      <trkpt lat="44.53262" lon="-0.8492">
        <ele>69.325564</ele>
        <time>2022-12-27T13:49:55.735Z</time>
      </trkpt>
      <trkpt lat="44.53252" lon="-0.84912">
        <ele>69.350604</ele>
        <time>2022-12-27T13:49:58.744Z</time>
      </trkpt>
      <trkpt lat="44.53241" lon="-0.84903">
        <ele>69.376936</ele>
        <time>2022-12-27T13:50:01.729Z</time>
      </trkpt>
      <trkpt lat="44.5323" lon="-0.84894">
        <ele>69.404336</ele>
        <time>2022-12-27T13:50:04.736Z</time>
      </trkpt>
      <trkpt lat="44.53218" lon="-0.84885">
        <ele>69.43251</ele>
        <time>2022-12-27T13:50:07.734Z</time>
      </trkpt>
      <trkpt lat="44.53207" lon="-0.84876">
        <ele>69.662694</ele>
        <time>2022-12-27T13:50:10.726Z</time>
      </trkpt>
      <trkpt lat="44.53196" lon="-0.84867">
        <ele>69.909484</ele>
        <time>2022-12-27T13:50:13.725Z</time>
      </trkpt>
      <trkpt lat="44.53185" lon="-0.84858">
        <ele>70.156274</ele>
        <time>2022-12-27T13:50:16.747Z</time>
      </trkpt>
      <trkpt lat="44.53174" lon="-0.84848">
        <ele>70.406411</ele>
        <time>2022-12-27T13:50:19.735Z</time>
      </trkpt>
      <trkpt lat="44.53163" lon="-0.84839">
        <ele>70.651156</ele>
        <time>2022-12-27T13:50:22.730Z</time>
      </trkpt>
      <trkpt lat="44.53152" lon="-0.8483">
        <ele>70.902643</ele>
        <time>2022-12-27T13:50:25.740Z</time>
      </trkpt>
      <trkpt lat="44.53144" lon="-0.84823">
        <ele>71.07776</ele>
        <time>2022-12-27T13:50:27.715Z</time>
      </trkpt>
      <trkpt lat="44.53136" lon="-0.84817">
        <ele>71.254234</ele>
        <time>2022-12-27T13:50:29.736Z</time>
      </trkpt>
      <trkpt lat="44.53125" lon="-0.84809">
        <ele>71.489604</ele>
        <time>2022-12-27T13:50:32.725Z</time>
      </trkpt>
      <trkpt lat="44.53114" lon="-0.848">
        <ele>71.732005</ele>
        <time>2022-12-27T13:50:35.720Z</time>
      </trkpt>
      <trkpt lat="44.53103" lon="-0.84791">
        <ele>71.981838</ele>
        <time>2022-12-27T13:50:38.731Z</time>
      </trkpt>
      <trkpt lat="44.53092" lon="-0.84782">
        <ele>72.227672</ele>
        <time>2022-12-27T13:50:41.731Z</time>
      </trkpt>
      <trkpt lat="44.53081" lon="-0.84773">
        <ele>72.469125</ele>
        <time>2022-12-27T13:50:44.737Z</time>
      </trkpt>
      <trkpt lat="44.53069" lon="-0.84764">
        <ele>72.717309</ele>
        <time>2022-12-27T13:50:47.729Z</time>
      </trkpt>
      <trkpt lat="44.53058" lon="-0.84755">
        <ele>72.920455</ele>
        <time>2022-12-27T13:50:50.744Z</time>
      </trkpt>
      <trkpt lat="44.53046" lon="-0.84746">
        <ele>73.019685</ele>
        <time>2022-12-27T13:50:53.720Z</time>
      </trkpt>
      <trkpt lat="44.53035" lon="-0.84737">
        <ele>73.117614</ele>
        <time>2022-12-27T13:50:56.722Z</time>
      </trkpt>
      <trkpt lat="44.53023" lon="-0.84728">
        <ele>73.216074</ele>
        <time>2022-12-27T13:50:59.720Z</time>
      </trkpt>
      <trkpt lat="44.53011" lon="-0.84719">
        <ele>73.317126</ele>
        <time>2022-12-27T13:51:02.722Z</time>
      </trkpt>
      <trkpt lat="44.53003" lon="-0.84713">
        <ele>73.384759</ele>
        <time>2022-12-27T13:51:04.739Z</time>
      </trkpt>
      <trkpt lat="44.52992" lon="-0.84705">
        <ele>73.482057</ele>
        <time>2022-12-27T13:51:07.748Z</time>
      </trkpt>
      <trkpt lat="44.52982" lon="-0.84696">
        <ele>73.569184</ele>
        <time>2022-12-27T13:51:10.737Z</time>
      </trkpt>
      <trkpt lat="44.52972" lon="-0.84689">
        <ele>73.649802</ele>
        <time>2022-12-27T13:51:13.739Z</time>
      </trkpt>
      <trkpt lat="44.52962" lon="-0.84681">
        <ele>73.738103</ele>
        <time>2022-12-27T13:51:16.715Z</time>
      </trkpt>
      <trkpt lat="44.52951" lon="-0.84672">
        <ele>73.833559</ele>
        <time>2022-12-27T13:51:19.740Z</time>
      </trkpt>
      <trkpt lat="44.52939" lon="-0.84663">
        <ele>73.931555</ele>
        <time>2022-12-27T13:51:22.724Z</time>
      </trkpt>
      <trkpt lat="44.52929" lon="-0.84654">
        <ele>74.024407</ele>
        <time>2022-12-27T13:51:25.738Z</time>
      </trkpt>
      <trkpt lat="44.52917" lon="-0.84645">
        <ele>74.125986</ele>
        <time>2022-12-27T13:51:28.709Z</time>
      </trkpt>
      <trkpt lat="44.52908" lon="-0.84638">
        <ele>74.197869</ele>
        <time>2022-12-27T13:51:30.714Z</time>
      </trkpt>
      <trkpt lat="44.529" lon="-0.84631">
        <ele>74.222474</ele>
        <time>2022-12-27T13:51:32.760Z</time>
      </trkpt>
      <trkpt lat="44.52892" lon="-0.84625">
        <ele>74.210466</ele>
        <time>2022-12-27T13:51:34.717Z</time>
      </trkpt>
      <trkpt lat="44.52883" lon="-0.84618">
        <ele>74.196993</ele>
        <time>2022-12-27T13:51:36.713Z</time>
      </trkpt>
      <trkpt lat="44.52874" lon="-0.84611">
        <ele>74.184669</ele>
        <time>2022-12-27T13:51:38.738Z</time>
      </trkpt>
      <trkpt lat="44.52866" lon="-0.84605">
        <ele>74.172085</ele>
        <time>2022-12-27T13:51:40.729Z</time>
      </trkpt>
      <trkpt lat="44.52857" lon="-0.84598">
        <ele>74.158973</ele>
        <time>2022-12-27T13:51:42.728Z</time>
      </trkpt>
      <trkpt lat="44.52848" lon="-0.84591">
        <ele>74.145947</ele>
        <time>2022-12-27T13:51:44.714Z</time>
      </trkpt>
      <trkpt lat="44.5284" lon="-0.84585">
        <ele>74.133623</ele>
        <time>2022-12-27T13:51:46.720Z</time>
      </trkpt>
      <trkpt lat="44.52831" lon="-0.84578">
        <ele>74.1206</ele>
        <time>2022-12-27T13:51:48.738Z</time>
      </trkpt>
      <trkpt lat="44.52822" lon="-0.84571">
        <ele>74.107775</ele>
        <time>2022-12-27T13:51:50.723Z</time>
      </trkpt>
      <trkpt lat="44.52814" lon="-0.84564">
        <ele>74.094893</ele>
        <time>2022-12-27T13:51:52.735Z</time>
      </trkpt>
      <trkpt lat="44.52805" lon="-0.84556">
        <ele>74.081375</ele>
        <time>2022-12-27T13:51:54.741Z</time>
      </trkpt>
      <trkpt lat="44.52796" lon="-0.84549">
        <ele>74.068306</ele>
        <time>2022-12-27T13:51:56.719Z</time>
      </trkpt>
      <trkpt lat="44.52786" lon="-0.84541">
        <ele>74.054064</ele>
        <time>2022-12-27T13:51:58.735Z</time>
      </trkpt>
      <trkpt lat="44.52777" lon="-0.84535">
        <ele>74.040108</ele>
        <time>2022-12-27T13:52:00.726Z</time>
      </trkpt>
      <trkpt lat="44.52767" lon="-0.84527">
        <ele>74.025977</ele>
        <time>2022-12-27T13:52:02.743Z</time>
      </trkpt>
      <trkpt lat="44.52758" lon="-0.84519">
        <ele>74.011735</ele>
        <time>2022-12-27T13:52:04.738Z</time>
      </trkpt>
      <trkpt lat="44.52748" lon="-0.84512">
        <ele>73.99736</ele>
        <time>2022-12-27T13:52:06.735Z</time>
      </trkpt>
      <trkpt lat="44.52739" lon="-0.84504">
        <ele>73.937854</ele>
        <time>2022-12-27T13:52:08.739Z</time>
      </trkpt>
      <trkpt lat="44.52729" lon="-0.84497">
        <ele>73.877226</ele>
        <time>2022-12-27T13:52:10.733Z</time>
      </trkpt>
      <trkpt lat="44.5272" lon="-0.8449">
        <ele>73.819521</ele>
        <time>2022-12-27T13:52:12.740Z</time>
      </trkpt>
      <trkpt lat="44.52711" lon="-0.84482">
        <ele>73.758873</ele>
        <time>2022-12-27T13:52:14.739Z</time>
      </trkpt>
      <trkpt lat="44.52702" lon="-0.84475">
        <ele>73.700538</ele>
        <time>2022-12-27T13:52:16.747Z</time>
      </trkpt>
      <trkpt lat="44.52692" lon="-0.84468">
        <ele>73.639127</ele>
        <time>2022-12-27T13:52:18.746Z</time>
      </trkpt>
      <trkpt lat="44.52683" lon="-0.8446">
        <ele>73.5806</ele>
        <time>2022-12-27T13:52:20.733Z</time>
      </trkpt>
      <trkpt lat="44.52674" lon="-0.84453">
        <ele>73.521337</ele>
        <time>2022-12-27T13:52:22.736Z</time>
      </trkpt>
      <trkpt lat="44.52665" lon="-0.84446">
        <ele>73.463814</ele>
        <time>2022-12-27T13:52:24.737Z</time>
      </trkpt>
      <trkpt lat="44.52656" lon="-0.84439">
        <ele>73.407875</ele>
        <time>2022-12-27T13:52:26.721Z</time>
      </trkpt>
      <trkpt lat="44.52648" lon="-0.84433">
        <ele>73.355841</ele>
        <time>2022-12-27T13:52:28.738Z</time>
      </trkpt>
      <trkpt lat="44.5264" lon="-0.84427">
        <ele>73.303807</ele>
        <time>2022-12-27T13:52:30.729Z</time>
      </trkpt>
      <trkpt lat="44.52632" lon="-0.8442">
        <ele>73.250208</ele>
        <time>2022-12-27T13:52:32.737Z</time>
      </trkpt>
      <trkpt lat="44.5262" lon="-0.8441">
        <ele>73.173767</ele>
        <time>2022-12-27T13:52:35.733Z</time>
      </trkpt>
      <trkpt lat="44.52611" lon="-0.84404">
        <ele>73.116739</ele>
        <time>2022-12-27T13:52:37.734Z</time>
      </trkpt>
      <trkpt lat="44.52601" lon="-0.84396">
        <ele>73.056012</ele>
        <time>2022-12-27T13:52:39.740Z</time>
      </trkpt>
      <trkpt lat="44.52593" lon="-0.84389">
        <ele>73.000073</ele>
        <time>2022-12-27T13:52:41.715Z</time>
      </trkpt>
      <trkpt lat="44.52583" lon="-0.84382">
        <ele>73.102454</ele>
        <time>2022-12-27T13:52:43.737Z</time>
      </trkpt>
      <trkpt lat="44.52575" lon="-0.84375">
        <ele>73.224981</ele>
        <time>2022-12-27T13:52:45.740Z</time>
      </trkpt>
      <trkpt lat="44.52567" lon="-0.84369">
        <ele>73.3403</ele>
        <time>2022-12-27T13:52:47.740Z</time>
      </trkpt>
      <trkpt lat="44.52559" lon="-0.84364">
        <ele>73.45373</ele>
        <time>2022-12-27T13:52:49.724Z</time>
      </trkpt>
      <trkpt lat="44.5255" lon="-0.84357">
        <ele>73.578558</ele>
        <time>2022-12-27T13:52:51.725Z</time>
      </trkpt>
      <trkpt lat="44.52541" lon="-0.8435">
        <ele>73.700757</ele>
        <time>2022-12-27T13:52:53.736Z</time>
      </trkpt>
      <trkpt lat="44.52529" lon="-0.8434">
        <ele>73.876452</ele>
        <time>2022-12-27T13:52:56.736Z</time>
      </trkpt>
      <trkpt lat="44.5252" lon="-0.84333">
        <ele>74.004455</ele>
        <time>2022-12-27T13:52:58.735Z</time>
      </trkpt>
      <trkpt lat="44.52512" lon="-0.84326">
        <ele>74.123119</ele>
        <time>2022-12-27T13:53:00.737Z</time>
      </trkpt>
      <trkpt lat="44.52503" lon="-0.8432">
        <ele>74.24867</ele>
        <time>2022-12-27T13:53:02.751Z</time>
      </trkpt>
      <trkpt lat="44.52495" lon="-0.84314">
        <ele>74.36399</ele>
        <time>2022-12-27T13:53:04.740Z</time>
      </trkpt>
      <trkpt lat="44.52486" lon="-0.84307">
        <ele>74.490666</ele>
        <time>2022-12-27T13:53:06.737Z</time>
      </trkpt>
      <trkpt lat="44.52478" lon="-0.84299">
        <ele>74.617853</ele>
        <time>2022-12-27T13:53:08.738Z</time>
      </trkpt>
      <trkpt lat="44.52469" lon="-0.84291">
        <ele>74.744071</ele>
        <time>2022-12-27T13:53:10.735Z</time>
      </trkpt>
      <trkpt lat="44.52461" lon="-0.84284">
        <ele>74.86948</ele>
        <time>2022-12-27T13:53:12.719Z</time>
      </trkpt>
      <trkpt lat="44.52452" lon="-0.84277">
        <ele>74.995515</ele>
        <time>2022-12-27T13:53:14.740Z</time>
      </trkpt>
      <trkpt lat="44.52443" lon="-0.8427">
        <ele>75.126571</ele>
        <time>2022-12-27T13:53:16.735Z</time>
      </trkpt>
      <trkpt lat="44.52434" lon="-0.84263">
        <ele>75.235584</ele>
        <time>2022-12-27T13:53:18.734Z</time>
      </trkpt>
      <trkpt lat="44.52425" lon="-0.84256">
        <ele>75.171223</ele>
        <time>2022-12-27T13:53:20.725Z</time>
      </trkpt>
      <trkpt lat="44.52416" lon="-0.8425">
        <ele>75.109021</ele>
        <time>2022-12-27T13:53:22.738Z</time>
      </trkpt>
      <trkpt lat="44.52407" lon="-0.84243">
        <ele>75.044873</ele>
        <time>2022-12-27T13:53:24.737Z</time>
      </trkpt>
      <trkpt lat="44.52398" lon="-0.84236">
        <ele>74.983142</ele>
        <time>2022-12-27T13:53:26.739Z</time>
      </trkpt>
      <trkpt lat="44.5239" lon="-0.84229">
        <ele>74.918987</ele>
        <time>2022-12-27T13:53:28.735Z</time>
      </trkpt>
      <trkpt lat="44.52381" lon="-0.84222">
        <ele>74.855827</ele>
        <time>2022-12-27T13:53:30.746Z</time>
      </trkpt>
      <trkpt lat="44.52372" lon="-0.84215">
        <ele>74.791578</ele>
        <time>2022-12-27T13:53:32.738Z</time>
      </trkpt>
      <trkpt lat="44.52363" lon="-0.84208">
        <ele>74.728095</ele>
        <time>2022-12-27T13:53:34.744Z</time>
      </trkpt>
      <trkpt lat="44.52354" lon="-0.84201">
        <ele>74.66505</ele>
        <time>2022-12-27T13:53:36.748Z</time>
      </trkpt>
      <trkpt lat="44.52345" lon="-0.84194">
        <ele>74.598351</ele>
        <time>2022-12-27T13:53:38.748Z</time>
      </trkpt>
      <trkpt lat="44.52336" lon="-0.84187">
        <ele>74.532886</ele>
        <time>2022-12-27T13:53:40.739Z</time>
      </trkpt>
      <trkpt lat="44.52327" lon="-0.84181">
        <ele>74.471371</ele>
        <time>2022-12-27T13:53:42.738Z</time>
      </trkpt>
      <trkpt lat="44.52319" lon="-0.84172">
        <ele>74.408122</ele>
        <time>2022-12-27T13:53:44.750Z</time>
      </trkpt>
      <trkpt lat="44.52311" lon="-0.84163">
        <ele>74.342332</ele>
        <time>2022-12-27T13:53:46.725Z</time>
      </trkpt>
      <trkpt lat="44.52302" lon="-0.84155">
        <ele>74.274218</ele>
        <time>2022-12-27T13:53:48.734Z</time>
      </trkpt>
      <trkpt lat="44.52294" lon="-0.84147">
        <ele>74.213334</ele>
        <time>2022-12-27T13:53:50.737Z</time>
      </trkpt>
      <trkpt lat="44.52284" lon="-0.84139">
        <ele>74.14368</ele>
        <time>2022-12-27T13:53:52.740Z</time>
      </trkpt>
      <trkpt lat="44.52276" lon="-0.8413">
        <ele>74.087865</ele>
        <time>2022-12-27T13:53:54.735Z</time>
      </trkpt>
      <trkpt lat="44.52268" lon="-0.8412">
        <ele>74.036899</ele>
        <time>2022-12-27T13:53:56.713Z</time>
      </trkpt>
      <trkpt lat="44.52259" lon="-0.8411">
        <ele>73.982843</ele>
        <time>2022-12-27T13:53:58.741Z</time>
      </trkpt>
      <trkpt lat="44.52251" lon="-0.84101">
        <ele>73.934245</ele>
        <time>2022-12-27T13:54:00.750Z</time>
      </trkpt>
      <trkpt lat="44.52243" lon="-0.84092">
        <ele>73.886147</ele>
        <time>2022-12-27T13:54:02.749Z</time>
      </trkpt>
      <trkpt lat="44.52235" lon="-0.84082">
        <ele>73.8374</ele>
        <time>2022-12-27T13:54:04.746Z</time>
      </trkpt>
      <trkpt lat="44.52228" lon="-0.84073">
        <ele>73.791298</ele>
        <time>2022-12-27T13:54:06.745Z</time>
      </trkpt>
      <trkpt lat="44.52221" lon="-0.84064">
        <ele>73.745774</ele>
        <time>2022-12-27T13:54:08.743Z</time>
      </trkpt>
      <trkpt lat="44.52213" lon="-0.84055">
        <ele>73.698969</ele>
        <time>2022-12-27T13:54:10.738Z</time>
      </trkpt>
      <trkpt lat="44.52206" lon="-0.84045">
        <ele>73.650588</ele>
        <time>2022-12-27T13:54:12.733Z</time>
      </trkpt>
      <trkpt lat="44.52198" lon="-0.84034">
        <ele>73.598531</ele>
        <time>2022-12-27T13:54:14.738Z</time>
      </trkpt>
      <trkpt lat="44.52191" lon="-0.84024">
        <ele>73.553381</ele>
        <time>2022-12-27T13:54:16.725Z</time>
      </trkpt>
      <trkpt lat="44.52182" lon="-0.84011">
        <ele>73.491075</ele>
        <time>2022-12-27T13:54:19.737Z</time>
      </trkpt>
      <trkpt lat="44.52175" lon="-0.84002">
        <ele>73.447727</ele>
        <time>2022-12-27T13:54:21.727Z</time>
      </trkpt>
      <trkpt lat="44.5217" lon="-0.83991">
        <ele>73.402173</ele>
        <time>2022-12-27T13:54:23.737Z</time>
      </trkpt>
      <trkpt lat="44.52162" lon="-0.8398">
        <ele>73.353139</ele>
        <time>2022-12-27T13:54:25.732Z</time>
      </trkpt>
      <trkpt lat="44.52153" lon="-0.83967">
        <ele>73.291595</ele>
        <time>2022-12-27T13:54:28.736Z</time>
      </trkpt>
      <trkpt lat="44.52143" lon="-0.83954">
        <ele>73.156661</ele>
        <time>2022-12-27T13:54:31.723Z</time>
      </trkpt>
      <trkpt lat="44.52135" lon="-0.83942">
        <ele>73.006803</ele>
        <time>2022-12-27T13:54:34.732Z</time>
      </trkpt>
      <trkpt lat="44.52129" lon="-0.83932">
        <ele>72.874798</ele>
        <time>2022-12-27T13:54:37.722Z</time>
      </trkpt>
      <trkpt lat="44.52123" lon="-0.83922">
        <ele>72.754808</ele>
        <time>2022-12-27T13:54:40.735Z</time>
      </trkpt>
      <trkpt lat="44.52116" lon="-0.83911">
        <ele>72.622803</ele>
        <time>2022-12-27T13:54:43.732Z</time>
      </trkpt>
      <trkpt lat="44.52109" lon="-0.839">
        <ele>72.484885</ele>
        <time>2022-12-27T13:54:46.736Z</time>
      </trkpt>
      <trkpt lat="44.521" lon="-0.8389">
        <ele>72.335438</ele>
        <time>2022-12-27T13:54:49.735Z</time>
      </trkpt>
      <trkpt lat="44.52087" lon="-0.83888">
        <ele>72.165284</ele>
        <time>2022-12-27T13:54:52.736Z</time>
      </trkpt>
      <trkpt lat="44.52078" lon="-0.8389">
        <ele>72.042398</ele>
        <time>2022-12-27T13:54:54.733Z</time>
      </trkpt>
      <trkpt lat="44.52068" lon="-0.83894">
        <ele>71.908539</ele>
        <time>2022-12-27T13:54:56.739Z</time>
      </trkpt>
      <trkpt lat="44.52057" lon="-0.83897">
        <ele>71.770081</ele>
        <time>2022-12-27T13:54:58.741Z</time>
      </trkpt>
      <trkpt lat="44.52047" lon="-0.83901">
        <ele>71.630738</ele>
        <time>2022-12-27T13:55:00.739Z</time>
      </trkpt>
      <trkpt lat="44.52037" lon="-0.83905">
        <ele>71.493416</ele>
        <time>2022-12-27T13:55:02.736Z</time>
      </trkpt>
      <trkpt lat="44.52027" lon="-0.83908">
        <ele>71.363743</ele>
        <time>2022-12-27T13:55:04.739Z</time>
      </trkpt>
      <trkpt lat="44.52018" lon="-0.83911">
        <ele>71.240014</ele>
        <time>2022-12-27T13:55:06.735Z</time>
      </trkpt>
      <trkpt lat="44.52007" lon="-0.83913">
        <ele>71.103782</ele>
        <time>2022-12-27T13:55:08.749Z</time>
      </trkpt>
      <trkpt lat="44.51997" lon="-0.83918">
        <ele>70.970106</ele>
        <time>2022-12-27T13:55:10.727Z</time>
      </trkpt>
      <trkpt lat="44.51986" lon="-0.83922">
        <ele>70.733159</ele>
        <time>2022-12-27T13:55:12.736Z</time>
      </trkpt>
      <trkpt lat="44.51976" lon="-0.83926">
        <ele>70.477086</ele>
        <time>2022-12-27T13:55:14.738Z</time>
      </trkpt>
      <trkpt lat="44.51966" lon="-0.8393">
        <ele>70.231347</ele>
        <time>2022-12-27T13:55:16.748Z</time>
      </trkpt>
      <trkpt lat="44.51956" lon="-0.83933">
        <ele>70.008076</ele>
        <time>2022-12-27T13:55:18.731Z</time>
      </trkpt>
      <trkpt lat="44.51947" lon="-0.83936">
        <ele>69.785254</ele>
        <time>2022-12-27T13:55:20.739Z</time>
      </trkpt>
      <trkpt lat="44.51938" lon="-0.83939">
        <ele>69.574459</ele>
        <time>2022-12-27T13:55:22.736Z</time>
      </trkpt>
      <trkpt lat="44.51929" lon="-0.83942">
        <ele>69.346402</ele>
        <time>2022-12-27T13:55:24.736Z</time>
      </trkpt>
      <trkpt lat="44.51919" lon="-0.83946">
        <ele>69.128458</ele>
        <time>2022-12-27T13:55:26.740Z</time>
      </trkpt>
      <trkpt lat="44.5191" lon="-0.8395">
        <ele>68.892573</ele>
        <time>2022-12-27T13:55:28.748Z</time>
      </trkpt>
      <trkpt lat="44.51901" lon="-0.83953">
        <ele>68.682583</ele>
        <time>2022-12-27T13:55:30.735Z</time>
      </trkpt>
      <trkpt lat="44.51888" lon="-0.83958">
        <ele>68.380727</ele>
        <time>2022-12-27T13:55:33.736Z</time>
      </trkpt>
      <trkpt lat="44.51876" lon="-0.83962">
        <ele>68.075914</ele>
        <time>2022-12-27T13:55:36.743Z</time>
      </trkpt>
      <trkpt lat="44.51866" lon="-0.83966">
        <ele>67.842827</ele>
        <time>2022-12-27T13:55:38.736Z</time>
      </trkpt>
      <trkpt lat="44.51853" lon="-0.8397">
        <ele>67.533865</ele>
        <time>2022-12-27T13:55:41.729Z</time>
      </trkpt>
      <trkpt lat="44.51841" lon="-0.83976">
        <ele>67.243852</ele>
        <time>2022-12-27T13:55:44.740Z</time>
      </trkpt>
      <trkpt lat="44.51831" lon="-0.83981">
        <ele>66.984532</ele>
        <time>2022-12-27T13:55:47.746Z</time>
      </trkpt>
      <trkpt lat="44.5182" lon="-0.83985">
        <ele>66.729297</ele>
        <time>2022-12-27T13:55:49.733Z</time>
      </trkpt>
      <trkpt lat="44.5181" lon="-0.83989">
        <ele>66.399292</ele>
        <time>2022-12-27T13:55:51.735Z</time>
      </trkpt>
      <trkpt lat="44.51797" lon="-0.83994">
        <ele>66.015787</ele>
        <time>2022-12-27T13:55:53.737Z</time>
      </trkpt>
      <trkpt lat="44.51785" lon="-0.84">
        <ele>65.622476</ele>
        <time>2022-12-27T13:55:55.733Z</time>
      </trkpt>
      <trkpt lat="44.51773" lon="-0.84005">
        <ele>65.242763</ele>
        <time>2022-12-27T13:55:57.745Z</time>
      </trkpt>
      <trkpt lat="44.5176" lon="-0.84011">
        <ele>64.851869</ele>
        <time>2022-12-27T13:55:59.740Z</time>
      </trkpt>
      <trkpt lat="44.51748" lon="-0.84017">
        <ele>64.480666</ele>
        <time>2022-12-27T13:56:01.718Z</time>
      </trkpt>
      <trkpt lat="44.51737" lon="-0.84022">
        <ele>64.132631</ele>
        <time>2022-12-27T13:56:03.712Z</time>
      </trkpt>
      <trkpt lat="44.51727" lon="-0.84026">
        <ele>63.799762</ele>
        <time>2022-12-27T13:56:05.735Z</time>
      </trkpt>
      <trkpt lat="44.51717" lon="-0.84029">
        <ele>63.507075</ele>
        <time>2022-12-27T13:56:07.736Z</time>
      </trkpt>
      <trkpt lat="44.51707" lon="-0.84033">
        <ele>63.19202</ele>
        <time>2022-12-27T13:56:09.744Z</time>
      </trkpt>
      <trkpt lat="44.51697" lon="-0.84038">
        <ele>62.884184</ele>
        <time>2022-12-27T13:56:11.719Z</time>
      </trkpt>
      <trkpt lat="44.51687" lon="-0.84042">
        <ele>62.569342</ele>
        <time>2022-12-27T13:56:13.744Z</time>
      </trkpt>
      <trkpt lat="44.51677" lon="-0.84047">
        <ele>62.252587</ele>
        <time>2022-12-27T13:56:15.737Z</time>
      </trkpt>
      <trkpt lat="44.51667" lon="-0.84051">
        <ele>61.939071</ele>
        <time>2022-12-27T13:56:17.737Z</time>
      </trkpt>
      <trkpt lat="44.51657" lon="-0.84054">
        <ele>61.63334</ele>
        <time>2022-12-27T13:56:19.734Z</time>
      </trkpt>
      <trkpt lat="44.51647" lon="-0.84057">
        <ele>61.423623</ele>
        <time>2022-12-27T13:56:21.732Z</time>
      </trkpt>
      <trkpt lat="44.51638" lon="-0.84061">
        <ele>61.543191</ele>
        <time>2022-12-27T13:56:23.730Z</time>
      </trkpt>
      <trkpt lat="44.51625" lon="-0.84066">
        <ele>61.704595</ele>
        <time>2022-12-27T13:56:26.748Z</time>
      </trkpt>
      <trkpt lat="44.51616" lon="-0.84069">
        <ele>61.824672</ele>
        <time>2022-12-27T13:56:28.738Z</time>
      </trkpt>
      <trkpt lat="44.51604" lon="-0.84067">
        <ele>61.976373</ele>
        <time>2022-12-27T13:56:31.737Z</time>
      </trkpt>
      <trkpt lat="44.51597" lon="-0.84054">
        <ele>62.120534</ele>
        <time>2022-12-27T13:56:34.735Z</time>
      </trkpt>
      <trkpt lat="44.51594" lon="-0.84039">
        <ele>62.255376</ele>
        <time>2022-12-27T13:56:37.721Z</time>
      </trkpt>
      <trkpt lat="44.51591" lon="-0.84025">
        <ele>62.37939</ele>
        <time>2022-12-27T13:56:41.736Z</time>
      </trkpt>
      <trkpt lat="44.51593" lon="-0.8401">
        <ele>62.515053</ele>
        <time>2022-12-27T13:56:44.731Z</time>
      </trkpt>
      <trkpt lat="44.51599" lon="-0.83999">
        <ele>62.639939</ele>
        <time>2022-12-27T13:56:47.718Z</time>
      </trkpt>
      <trkpt lat="44.51608" lon="-0.83991">
        <ele>62.776701</ele>
        <time>2022-12-27T13:56:51.721Z</time>
      </trkpt>
      <trkpt lat="44.51619" lon="-0.83985">
        <ele>62.914678</ele>
        <time>2022-12-27T13:56:55.724Z</time>
      </trkpt>
      <trkpt lat="44.51629" lon="-0.83981">
        <ele>63.045464</ele>
        <time>2022-12-27T13:56:59.737Z</time>
      </trkpt>
      <trkpt lat="44.51638" lon="-0.83978">
        <ele>63.164996</ele>
        <time>2022-12-27T13:57:02.734Z</time>
      </trkpt>
      <trkpt lat="44.51647" lon="-0.83974">
        <ele>63.283805</ele>
        <time>2022-12-27T13:57:05.722Z</time>
      </trkpt>
      <trkpt lat="44.51656" lon="-0.83971">
        <ele>63.397433</ele>
        <time>2022-12-27T13:57:08.734Z</time>
      </trkpt>
      <trkpt lat="44.51668" lon="-0.83968">
        <ele>63.539876</ele>
        <time>2022-12-27T13:57:12.719Z</time>
      </trkpt>
      <trkpt lat="44.51679" lon="-0.83964">
        <ele>63.830061</ele>
        <time>2022-12-27T13:57:16.738Z</time>
      </trkpt>
      <trkpt lat="44.51687" lon="-0.8396">
        <ele>64.267894</ele>
        <time>2022-12-27T13:57:19.743Z</time>
      </trkpt>
      <trkpt lat="44.51698" lon="-0.83956">
        <ele>64.813225</ele>
        <time>2022-12-27T13:57:23.739Z</time>
      </trkpt>
      <trkpt lat="44.51709" lon="-0.83951">
        <ele>65.359907</ele>
        <time>2022-12-27T13:57:27.727Z</time>
      </trkpt>
      <trkpt lat="44.51719" lon="-0.83948">
        <ele>65.842999</ele>
        <time>2022-12-27T13:57:31.726Z</time>
      </trkpt>
      <trkpt lat="44.51729" lon="-0.83944">
        <ele>66.359602</ele>
        <time>2022-12-27T13:57:35.754Z</time>
      </trkpt>
      <trkpt lat="44.5174" lon="-0.83941">
        <ele>66.915497</ele>
        <time>2022-12-27T13:57:39.725Z</time>
      </trkpt>
      <trkpt lat="44.51752" lon="-0.83936">
        <ele>67.479396</ele>
        <time>2022-12-27T13:57:43.743Z</time>
      </trkpt>
      <trkpt lat="44.51762" lon="-0.83932">
        <ele>67.998969</ele>
        <time>2022-12-27T13:57:47.748Z</time>
      </trkpt>
      <trkpt lat="44.51771" lon="-0.83928">
        <ele>68.467458</ele>
        <time>2022-12-27T13:57:51.726Z</time>
      </trkpt>
      <trkpt lat="44.5178" lon="-0.83924">
        <ele>68.921128</ele>
        <time>2022-12-27T13:57:55.737Z</time>
      </trkpt>
      <trkpt lat="44.51791" lon="-0.83919">
        <ele>69.447197</ele>
        <time>2022-12-27T13:58:00.756Z</time>
      </trkpt>
      <trkpt lat="44.51801" lon="-0.83912">
        <ele>69.978021</ele>
        <time>2022-12-27T13:58:05.748Z</time>
      </trkpt>
      <trkpt lat="44.5181" lon="-0.83905">
        <ele>70.511477</ele>
        <time>2022-12-27T13:58:10.736Z</time>
      </trkpt>
      <trkpt lat="44.51819" lon="-0.83898">
        <ele>70.986954</ele>
        <time>2022-12-27T13:58:15.737Z</time>
      </trkpt>
      <trkpt lat="44.51829" lon="-0.83894">
        <ele>71.490695</ele>
        <time>2022-12-27T13:58:21.727Z</time>
      </trkpt>
      <trkpt lat="44.51839" lon="-0.83889">
        <ele>71.990629</ele>
        <time>2022-12-27T13:58:27.728Z</time>
      </trkpt>
      <trkpt lat="44.51848" lon="-0.83885">
        <ele>72.380092</ele>
        <time>2022-12-27T13:58:32.725Z</time>
      </trkpt>
      <trkpt lat="44.51858" lon="-0.8388">
        <ele>72.628032</ele>
        <time>2022-12-27T13:58:37.726Z</time>
      </trkpt>
      <trkpt lat="44.51867" lon="-0.83876">
        <ele>72.861728</ele>
        <time>2022-12-27T13:58:42.728Z</time>
      </trkpt>
      <trkpt lat="44.51882" lon="-0.83871">
        <ele>73.241272</ele>
        <time>2022-12-27T13:58:45.724Z</time>
      </trkpt>
      <trkpt lat="44.51892" lon="-0.83865">
        <ele>73.503375</ele>
        <time>2022-12-27T13:58:49.743Z</time>
      </trkpt>
      <trkpt lat="44.51903" lon="-0.83862">
        <ele>73.755164</ele>
        <time>2022-12-27T13:58:53.737Z</time>
      </trkpt>
      <trkpt lat="44.51913" lon="-0.83856">
        <ele>74.024305</ele>
        <time>2022-12-27T13:58:57.717Z</time>
      </trkpt>
      <trkpt lat="44.51924" lon="-0.83852">
        <ele>74.30587</ele>
        <time>2022-12-27T13:59:01.733Z</time>
      </trkpt>
      <trkpt lat="44.51934" lon="-0.83848">
        <ele>74.551527</ele>
        <time>2022-12-27T13:59:05.739Z</time>
      </trkpt>
      <trkpt lat="44.51944" lon="-0.83844">
        <ele>74.806063</ele>
        <time>2022-12-27T13:59:09.738Z</time>
      </trkpt>
      <trkpt lat="44.51954" lon="-0.83839">
        <ele>75.062092</ele>
        <time>2022-12-27T13:59:13.733Z</time>
      </trkpt>
      <trkpt lat="44.51965" lon="-0.83835">
        <ele>75.339906</ele>
        <time>2022-12-27T13:59:17.744Z</time>
      </trkpt>
      <trkpt lat="44.51977" lon="-0.83831">
        <ele>75.623401</ele>
        <time>2022-12-27T13:59:20.749Z</time>
      </trkpt>
      <trkpt lat="44.51987" lon="-0.83827">
        <ele>75.890445</ele>
        <time>2022-12-27T13:59:23.746Z</time>
      </trkpt>
      <trkpt lat="44.51999" lon="-0.83824">
        <ele>76.184197</ele>
        <time>2022-12-27T13:59:26.736Z</time>
      </trkpt>
      <trkpt lat="44.52011" lon="-0.83821">
        <ele>76.470155</ele>
        <time>2022-12-27T13:59:29.746Z</time>
      </trkpt>
      <trkpt lat="44.52022" lon="-0.83817">
        <ele>76.61373</ele>
        <time>2022-12-27T13:59:32.747Z</time>
      </trkpt>
      <trkpt lat="44.52033" lon="-0.83815">
        <ele>76.549247</ele>
        <time>2022-12-27T13:59:35.762Z</time>
      </trkpt>
      <trkpt lat="44.52043" lon="-0.83811">
        <ele>76.486151</ele>
        <time>2022-12-27T13:59:38.741Z</time>
      </trkpt>
      <trkpt lat="44.52053" lon="-0.83809">
        <ele>76.425824</ele>
        <time>2022-12-27T13:59:41.720Z</time>
      </trkpt>
      <trkpt lat="44.52058" lon="-0.83795">
        <ele>76.362109</ele>
        <time>2022-12-27T13:59:45.723Z</time>
      </trkpt>
      <trkpt lat="44.52052" lon="-0.83781">
        <ele>76.295579</ele>
        <time>2022-12-27T13:59:48.737Z</time>
      </trkpt>
      <trkpt lat="44.52045" lon="-0.83766">
        <ele>76.221591</ele>
        <time>2022-12-27T13:59:51.731Z</time>
      </trkpt>
      <trkpt lat="44.52038" lon="-0.83752">
        <ele>76.152903</ele>
        <time>2022-12-27T13:59:54.741Z</time>
      </trkpt>
      <trkpt lat="44.52033" lon="-0.83738">
        <ele>76.084644</ele>
        <time>2022-12-27T13:59:57.736Z</time>
      </trkpt>
      <trkpt lat="44.52027" lon="-0.83724">
        <ele>76.016671</ele>
        <time>2022-12-27T14:00:00.744Z</time>
      </trkpt>
      <trkpt lat="44.52021" lon="-0.8371">
        <ele>75.948122</ele>
        <time>2022-12-27T14:00:03.748Z</time>
      </trkpt>
      <trkpt lat="44.52015" lon="-0.83694">
        <ele>75.877135</ele>
        <time>2022-12-27T14:00:06.728Z</time>
      </trkpt>
      <trkpt lat="44.52011" lon="-0.83683">
        <ele>75.823715</ele>
        <time>2022-12-27T14:00:08.749Z</time>
      </trkpt>
      <trkpt lat="44.52005" lon="-0.83667">
        <ele>75.7466</ele>
        <time>2022-12-27T14:00:11.727Z</time>
      </trkpt>
      <trkpt lat="44.52" lon="-0.83651">
        <ele>75.674262</ele>
        <time>2022-12-27T14:00:14.741Z</time>
      </trkpt>
      <trkpt lat="44.51996" lon="-0.83639">
        <ele>75.620512</ele>
        <time>2022-12-27T14:00:16.736Z</time>
      </trkpt>
      <trkpt lat="44.51992" lon="-0.83621">
        <ele>75.626996</ele>
        <time>2022-12-27T14:00:19.740Z</time>
      </trkpt>
      <trkpt lat="44.51987" lon="-0.83604">
        <ele>75.68356</ele>
        <time>2022-12-27T14:00:22.742Z</time>
      </trkpt>
      <trkpt lat="44.51982" lon="-0.83588">
        <ele>75.738114</ele>
        <time>2022-12-27T14:00:25.737Z</time>
      </trkpt>
      <trkpt lat="44.51977" lon="-0.83572">
        <ele>75.79227</ele>
        <time>2022-12-27T14:00:28.748Z</time>
      </trkpt>
      <trkpt lat="44.51971" lon="-0.83557">
        <ele>75.844534</ele>
        <time>2022-12-27T14:00:31.726Z</time>
      </trkpt>
      <trkpt lat="44.51967" lon="-0.83541">
        <ele>75.898591</ele>
        <time>2022-12-27T14:00:34.735Z</time>
      </trkpt>
      <trkpt lat="44.51962" lon="-0.83525">
        <ele>75.95349</ele>
        <time>2022-12-27T14:00:37.735Z</time>
      </trkpt>
      <trkpt lat="44.51957" lon="-0.83508">
        <ele>76.008389</ele>
        <time>2022-12-27T14:00:40.740Z</time>
      </trkpt>
      <trkpt lat="44.51952" lon="-0.83492">
        <ele>76.063572</ele>
        <time>2022-12-27T14:00:43.738Z</time>
      </trkpt>
      <trkpt lat="44.51947" lon="-0.83476">
        <ele>76.118581</ele>
        <time>2022-12-27T14:00:46.734Z</time>
      </trkpt>
      <trkpt lat="44.51942" lon="-0.8346">
        <ele>76.171995</ele>
        <time>2022-12-27T14:00:49.746Z</time>
      </trkpt>
      <trkpt lat="44.51937" lon="-0.83444">
        <ele>76.226436</ele>
        <time>2022-12-27T14:00:52.736Z</time>
      </trkpt>
      <trkpt lat="44.51932" lon="-0.83433">
        <ele>76.26656</ele>
        <time>2022-12-27T14:00:54.740Z</time>
      </trkpt>
      <trkpt lat="44.51927" lon="-0.83416">
        <ele>76.322426</ele>
        <time>2022-12-27T14:00:57.742Z</time>
      </trkpt>
      <trkpt lat="44.51922" lon="-0.834">
        <ele>76.377787</ele>
        <time>2022-12-27T14:01:00.743Z</time>
      </trkpt>
      <trkpt lat="44.51917" lon="-0.83384">
        <ele>76.467893</ele>
        <time>2022-12-27T14:01:03.737Z</time>
      </trkpt>
      <trkpt lat="44.51914" lon="-0.83371">
        <ele>76.535535</ele>
        <time>2022-12-27T14:01:05.748Z</time>
      </trkpt>
      <trkpt lat="44.51908" lon="-0.83354">
        <ele>76.627405</ele>
        <time>2022-12-27T14:01:08.738Z</time>
      </trkpt>
      <trkpt lat="44.51903" lon="-0.83338">
        <ele>76.714221</ele>
        <time>2022-12-27T14:01:11.728Z</time>
      </trkpt>
      <trkpt lat="44.51898" lon="-0.83323">
        <ele>76.798755</ele>
        <time>2022-12-27T14:01:14.736Z</time>
      </trkpt>
      <trkpt lat="44.51893" lon="-0.83306">
        <ele>76.886483</ele>
        <time>2022-12-27T14:01:17.738Z</time>
      </trkpt>
      <trkpt lat="44.51888" lon="-0.83291">
        <ele>76.973416</ele>
        <time>2022-12-27T14:01:20.738Z</time>
      </trkpt>
      <trkpt lat="44.51883" lon="-0.83275">
        <ele>77.059224</ele>
        <time>2022-12-27T14:01:23.738Z</time>
      </trkpt>
      <trkpt lat="44.51879" lon="-0.83263">
        <ele>77.123741</ele>
        <time>2022-12-27T14:01:25.738Z</time>
      </trkpt>
      <trkpt lat="44.51876" lon="-0.83251">
        <ele>77.187196</ele>
        <time>2022-12-27T14:01:27.727Z</time>
      </trkpt>
      <trkpt lat="44.51872" lon="-0.83238">
        <ele>77.253473</ele>
        <time>2022-12-27T14:01:29.734Z</time>
      </trkpt>
      <trkpt lat="44.51869" lon="-0.83226">
        <ele>77.32047</ele>
        <time>2022-12-27T14:01:31.717Z</time>
      </trkpt>
      <trkpt lat="44.51865" lon="-0.83213">
        <ele>77.388852</ele>
        <time>2022-12-27T14:01:33.720Z</time>
      </trkpt>
      <trkpt lat="44.51861" lon="-0.832">
        <ele>77.459776</ele>
        <time>2022-12-27T14:01:35.736Z</time>
      </trkpt>
      <trkpt lat="44.51857" lon="-0.83187">
        <ele>77.530325</ele>
        <time>2022-12-27T14:01:37.742Z</time>
      </trkpt>
      <trkpt lat="44.51852" lon="-0.83175">
        <ele>77.599298</ele>
        <time>2022-12-27T14:01:39.747Z</time>
      </trkpt>
      <trkpt lat="44.51848" lon="-0.83162">
        <ele>77.518863</ele>
        <time>2022-12-27T14:01:41.730Z</time>
      </trkpt>
      <trkpt lat="44.51845" lon="-0.83149">
        <ele>77.337358</ele>
        <time>2022-12-27T14:01:43.739Z</time>
      </trkpt>
      <trkpt lat="44.51841" lon="-0.83136">
        <ele>77.161736</ele>
        <time>2022-12-27T14:01:45.728Z</time>
      </trkpt>
      <trkpt lat="44.51838" lon="-0.83123">
        <ele>76.984399</ele>
        <time>2022-12-27T14:01:47.730Z</time>
      </trkpt>
      <trkpt lat="44.51834" lon="-0.8311">
        <ele>76.801602</ele>
        <time>2022-12-27T14:01:49.727Z</time>
      </trkpt>
      <trkpt lat="44.5183" lon="-0.83097">
        <ele>76.614856</ele>
        <time>2022-12-27T14:01:51.731Z</time>
      </trkpt>
      <trkpt lat="44.51826" lon="-0.83084">
        <ele>76.438274</ele>
        <time>2022-12-27T14:01:53.741Z</time>
      </trkpt>
      <trkpt lat="44.51821" lon="-0.83073">
        <ele>76.265511</ele>
        <time>2022-12-27T14:01:55.737Z</time>
      </trkpt>
      <trkpt lat="44.51817" lon="-0.83057">
        <ele>76.044868</ele>
        <time>2022-12-27T14:01:58.746Z</time>
      </trkpt>
      <trkpt lat="44.51812" lon="-0.83041">
        <ele>75.822808</ele>
        <time>2022-12-27T14:02:01.711Z</time>
      </trkpt>
      <trkpt lat="44.51807" lon="-0.83024">
        <ele>75.587218</ele>
        <time>2022-12-27T14:02:04.737Z</time>
      </trkpt>
      <trkpt lat="44.51802" lon="-0.83012">
        <ele>75.413393</ele>
        <time>2022-12-27T14:02:06.746Z</time>
      </trkpt>
      <trkpt lat="44.51799" lon="-0.83">
        <ele>75.24084</ele>
        <time>2022-12-27T14:02:08.739Z</time>
      </trkpt>
      <trkpt lat="44.51795" lon="-0.82986">
        <ele>75.05599</ele>
        <time>2022-12-27T14:02:10.735Z</time>
      </trkpt>
      <trkpt lat="44.51791" lon="-0.82974">
        <ele>74.880593</ele>
        <time>2022-12-27T14:02:12.733Z</time>
      </trkpt>
      <trkpt lat="44.51786" lon="-0.82961">
        <ele>74.693846</ele>
        <time>2022-12-27T14:02:14.737Z</time>
      </trkpt>
      <trkpt lat="44.51782" lon="-0.82949">
        <ele>74.521185</ele>
        <time>2022-12-27T14:02:16.742Z</time>
      </trkpt>
      <trkpt lat="44.51778" lon="-0.82936">
        <ele>74.367061</ele>
        <time>2022-12-27T14:02:18.725Z</time>
      </trkpt>
      <trkpt lat="44.51774" lon="-0.82922">
        <ele>74.324666</ele>
        <time>2022-12-27T14:02:20.738Z</time>
      </trkpt>
      <trkpt lat="44.5177" lon="-0.8291">
        <ele>74.285531</ele>
        <time>2022-12-27T14:02:22.723Z</time>
      </trkpt>
      <trkpt lat="44.51765" lon="-0.82892">
        <ele>74.229835</ele>
        <time>2022-12-27T14:02:25.727Z</time>
      </trkpt>
      <trkpt lat="44.51762" lon="-0.8288">
        <ele>74.193128</ele>
        <time>2022-12-27T14:02:27.741Z</time>
      </trkpt>
      <trkpt lat="44.51758" lon="-0.82868">
        <ele>74.15407</ele>
        <time>2022-12-27T14:02:29.716Z</time>
      </trkpt>
      <trkpt lat="44.51754" lon="-0.82856">
        <ele>74.115979</ele>
        <time>2022-12-27T14:02:31.736Z</time>
      </trkpt>
      <trkpt lat="44.51749" lon="-0.82838">
        <ele>74.062209</ele>
        <time>2022-12-27T14:02:34.740Z</time>
      </trkpt>
      <trkpt lat="44.51746" lon="-0.82823">
        <ele>74.016298</ele>
        <time>2022-12-27T14:02:36.735Z</time>
      </trkpt>
      <trkpt lat="44.51742" lon="-0.82811">
        <ele>73.97942</ele>
        <time>2022-12-27T14:02:38.736Z</time>
      </trkpt>
      <trkpt lat="44.51737" lon="-0.82799">
        <ele>73.938654</ele>
        <time>2022-12-27T14:02:40.740Z</time>
      </trkpt>
      <trkpt lat="44.51733" lon="-0.82787">
        <ele>73.901217</ele>
        <time>2022-12-27T14:02:42.748Z</time>
      </trkpt>
      <trkpt lat="44.51727" lon="-0.82769">
        <ele>73.843735</ele>
        <time>2022-12-27T14:02:45.736Z</time>
      </trkpt>
      <trkpt lat="44.51724" lon="-0.82757">
        <ele>73.806209</ele>
        <time>2022-12-27T14:02:47.739Z</time>
      </trkpt>
      <trkpt lat="44.51718" lon="-0.82738">
        <ele>73.746815</ele>
        <time>2022-12-27T14:02:50.732Z</time>
      </trkpt>
      <trkpt lat="44.51711" lon="-0.82719">
        <ele>73.685757</ele>
        <time>2022-12-27T14:02:53.737Z</time>
      </trkpt>
      <trkpt lat="44.51706" lon="-0.82705">
        <ele>73.651645</ele>
        <time>2022-12-27T14:02:55.717Z</time>
      </trkpt>
      <trkpt lat="44.51702" lon="-0.82693">
        <ele>73.658129</ele>
        <time>2022-12-27T14:02:57.742Z</time>
      </trkpt>
      <trkpt lat="44.51698" lon="-0.82681">
        <ele>73.664904</ele>
        <time>2022-12-27T14:02:59.746Z</time>
      </trkpt>
      <trkpt lat="44.51695" lon="-0.82669">
        <ele>73.671309</ele>
        <time>2022-12-27T14:03:01.730Z</time>
      </trkpt>
      <trkpt lat="44.5169" lon="-0.82651">
        <ele>73.680654</ele>
        <time>2022-12-27T14:03:04.734Z</time>
      </trkpt>
      <trkpt lat="44.51685" lon="-0.82639">
        <ele>73.687193</ele>
        <time>2022-12-27T14:03:06.743Z</time>
      </trkpt>
      <trkpt lat="44.51682" lon="-0.82628">
        <ele>73.693451</ele>
        <time>2022-12-27T14:03:08.752Z</time>
      </trkpt>
      <trkpt lat="44.51678" lon="-0.82613">
        <ele>73.701197</ele>
        <time>2022-12-27T14:03:11.725Z</time>
      </trkpt>
      <trkpt lat="44.51674" lon="-0.82599">
        <ele>73.708344</ele>
        <time>2022-12-27T14:03:14.738Z</time>
      </trkpt>
      <trkpt lat="44.5167" lon="-0.82585">
        <ele>73.716105</ele>
        <time>2022-12-27T14:03:17.744Z</time>
      </trkpt>
      <trkpt lat="44.51665" lon="-0.8257">
        <ele>73.724437</ele>
        <time>2022-12-27T14:03:20.744Z</time>
      </trkpt>
      <trkpt lat="44.5166" lon="-0.82555">
        <ele>73.732221</ele>
        <time>2022-12-27T14:03:23.742Z</time>
      </trkpt>
      <trkpt lat="44.51656" lon="-0.82543">
        <ele>73.738699</ele>
        <time>2022-12-27T14:03:26.743Z</time>
      </trkpt>
      <trkpt lat="44.51651" lon="-0.8253">
        <ele>73.746126</ele>
        <time>2022-12-27T14:03:30.748Z</time>
      </trkpt>
      <trkpt lat="44.51647" lon="-0.82518">
        <ele>73.752537</ele>
        <time>2022-12-27T14:03:35.734Z</time>
      </trkpt>
      <trkpt lat="44.51643" lon="-0.82504">
        <ele>73.760098</ele>
        <time>2022-12-27T14:03:40.718Z</time>
      </trkpt>
      <trkpt lat="44.51639" lon="-0.82489">
        <ele>73.767911</ele>
        <time>2022-12-27T14:03:44.721Z</time>
      </trkpt>
      <trkpt lat="44.51635" lon="-0.82477">
        <ele>73.780044</ele>
        <time>2022-12-27T14:03:47.737Z</time>
      </trkpt>
      <trkpt lat="44.5163" lon="-0.82462">
        <ele>73.970681</ele>
        <time>2022-12-27T14:03:51.727Z</time>
      </trkpt>
      <trkpt lat="44.51627" lon="-0.8245">
        <ele>74.123104</ele>
        <time>2022-12-27T14:03:56.725Z</time>
      </trkpt>
      <trkpt lat="44.51623" lon="-0.82439">
        <ele>74.274474</ele>
        <time>2022-12-27T14:04:01.716Z</time>
      </trkpt>
      <trkpt lat="44.5162" lon="-0.82424">
        <ele>74.455023</ele>
        <time>2022-12-27T14:04:08.715Z</time>
      </trkpt>
      <trkpt lat="44.51615" lon="-0.82413">
        <ele>74.609592</ele>
        <time>2022-12-27T14:04:12.748Z</time>
      </trkpt>
      <trkpt lat="44.51611" lon="-0.82401">
        <ele>74.768162</ele>
        <time>2022-12-27T14:04:15.738Z</time>
      </trkpt>
      <trkpt lat="44.51607" lon="-0.82388">
        <ele>74.940546</ele>
        <time>2022-12-27T14:04:18.737Z</time>
      </trkpt>
      <trkpt lat="44.51603" lon="-0.82374">
        <ele>75.123503</ele>
        <time>2022-12-27T14:04:21.725Z</time>
      </trkpt>
      <trkpt lat="44.51598" lon="-0.82359">
        <ele>75.307743</ele>
        <time>2022-12-27T14:04:24.734Z</time>
      </trkpt>
      <trkpt lat="44.51594" lon="-0.82344">
        <ele>75.507365</ele>
        <time>2022-12-27T14:04:27.742Z</time>
      </trkpt>
      <trkpt lat="44.51589" lon="-0.82329">
        <ele>75.709176</ele>
        <time>2022-12-27T14:04:30.723Z</time>
      </trkpt>
      <trkpt lat="44.51584" lon="-0.82314">
        <ele>75.899127</ele>
        <time>2022-12-27T14:04:33.745Z</time>
      </trkpt>
      <trkpt lat="44.5158" lon="-0.82299">
        <ele>76.09775</ele>
        <time>2022-12-27T14:04:36.741Z</time>
      </trkpt>
      <trkpt lat="44.51575" lon="-0.82284">
        <ele>76.288667</ele>
        <time>2022-12-27T14:04:39.734Z</time>
      </trkpt>
      <trkpt lat="44.51571" lon="-0.8227">
        <ele>76.474929</ele>
        <time>2022-12-27T14:04:42.736Z</time>
      </trkpt>
      <trkpt lat="44.51566" lon="-0.82256">
        <ele>76.66027</ele>
        <time>2022-12-27T14:04:45.739Z</time>
      </trkpt>
      <trkpt lat="44.51562" lon="-0.82241">
        <ele>76.878772</ele>
        <time>2022-12-27T14:04:48.739Z</time>
      </trkpt>
      <trkpt lat="44.51557" lon="-0.82227">
        <ele>77.157516</ele>
        <time>2022-12-27T14:04:51.718Z</time>
      </trkpt>
      <trkpt lat="44.51553" lon="-0.82213">
        <ele>77.439932</ele>
        <time>2022-12-27T14:04:54.745Z</time>
      </trkpt>
      <trkpt lat="44.51549" lon="-0.82198">
        <ele>77.732783</ele>
        <time>2022-12-27T14:04:57.737Z</time>
      </trkpt>
      <trkpt lat="44.51544" lon="-0.82183">
        <ele>78.026552</ele>
        <time>2022-12-27T14:05:00.746Z</time>
      </trkpt>
      <trkpt lat="44.51539" lon="-0.82169">
        <ele>78.310605</ele>
        <time>2022-12-27T14:05:03.745Z</time>
      </trkpt>
      <trkpt lat="44.51534" lon="-0.82154">
        <ele>78.597352</ele>
        <time>2022-12-27T14:05:06.739Z</time>
      </trkpt>
      <trkpt lat="44.5153" lon="-0.8214">
        <ele>78.878458</ele>
        <time>2022-12-27T14:05:09.736Z</time>
      </trkpt>
      <trkpt lat="44.51525" lon="-0.82126">
        <ele>79.167847</ele>
        <time>2022-12-27T14:05:12.740Z</time>
      </trkpt>
      <trkpt lat="44.5152" lon="-0.82111">
        <ele>79.456247</ele>
        <time>2022-12-27T14:05:15.735Z</time>
      </trkpt>
      <trkpt lat="44.51516" lon="-0.82096">
        <ele>79.747328</ele>
        <time>2022-12-27T14:05:18.738Z</time>
      </trkpt>
      <trkpt lat="44.51511" lon="-0.82082">
        <ele>80.032426</ele>
        <time>2022-12-27T14:05:21.729Z</time>
      </trkpt>
      <trkpt lat="44.51507" lon="-0.82067">
        <ele>80.319208</ele>
        <time>2022-12-27T14:05:24.742Z</time>
      </trkpt>
      <trkpt lat="44.51503" lon="-0.82052">
        <ele>80.605339</ele>
        <time>2022-12-27T14:05:27.735Z</time>
      </trkpt>
      <trkpt lat="44.51498" lon="-0.82038">
        <ele>80.896533</ele>
        <time>2022-12-27T14:05:30.737Z</time>
      </trkpt>
      <trkpt lat="44.51493" lon="-0.82023">
        <ele>81.183919</ele>
        <time>2022-12-27T14:05:33.748Z</time>
      </trkpt>
      <trkpt lat="44.51489" lon="-0.8201">
        <ele>81.378793</ele>
        <time>2022-12-27T14:05:36.744Z</time>
      </trkpt>
      <trkpt lat="44.51484" lon="-0.81996">
        <ele>81.463488</ele>
        <time>2022-12-27T14:05:39.745Z</time>
      </trkpt>
      <trkpt lat="44.5148" lon="-0.81982">
        <ele>81.548869</ele>
        <time>2022-12-27T14:05:42.741Z</time>
      </trkpt>
      <trkpt lat="44.51475" lon="-0.81967">
        <ele>81.63981</ele>
        <time>2022-12-27T14:05:45.716Z</time>
      </trkpt>
      <trkpt lat="44.51471" lon="-0.81952">
        <ele>81.730463</ele>
        <time>2022-12-27T14:05:48.746Z</time>
      </trkpt>
      <trkpt lat="44.51466" lon="-0.81935">
        <ele>81.83168</ele>
        <time>2022-12-27T14:05:51.729Z</time>
      </trkpt>
      <trkpt lat="44.51462" lon="-0.8192">
        <ele>81.922333</ele>
        <time>2022-12-27T14:05:54.743Z</time>
      </trkpt>
      <trkpt lat="44.51457" lon="-0.81905">
        <ele>82.017994</ele>
        <time>2022-12-27T14:05:57.745Z</time>
      </trkpt>
      <trkpt lat="44.51452" lon="-0.8189">
        <ele>82.109529</ele>
        <time>2022-12-27T14:06:00.722Z</time>
      </trkpt>
      <trkpt lat="44.51448" lon="-0.81875">
        <ele>82.198182</ele>
        <time>2022-12-27T14:06:03.726Z</time>
      </trkpt>
      <trkpt lat="44.51443" lon="-0.8186">
        <ele>82.291672</ele>
        <time>2022-12-27T14:06:06.731Z</time>
      </trkpt>
      <trkpt lat="44.51438" lon="-0.81844">
        <ele>82.385574</ele>
        <time>2022-12-27T14:06:09.736Z</time>
      </trkpt>
      <trkpt lat="44.51434" lon="-0.81828">
        <ele>82.483395</ele>
        <time>2022-12-27T14:06:12.736Z</time>
      </trkpt>
      <trkpt lat="44.51429" lon="-0.81811">
        <ele>82.586343</ele>
        <time>2022-12-27T14:06:15.736Z</time>
      </trkpt>
      <trkpt lat="44.51423" lon="-0.81795">
        <ele>82.686414</ele>
        <time>2022-12-27T14:06:18.738Z</time>
      </trkpt>
      <trkpt lat="44.51418" lon="-0.81779">
        <ele>82.7633</ele>
        <time>2022-12-27T14:06:21.724Z</time>
      </trkpt>
      <trkpt lat="44.51413" lon="-0.81762">
        <ele>82.790118</ele>
        <time>2022-12-27T14:06:24.738Z</time>
      </trkpt>
      <trkpt lat="44.51408" lon="-0.81746">
        <ele>82.818031</ele>
        <time>2022-12-27T14:06:27.737Z</time>
      </trkpt>
      <trkpt lat="44.51404" lon="-0.81734">
        <ele>82.837263</ele>
        <time>2022-12-27T14:06:29.745Z</time>
      </trkpt>
      <trkpt lat="44.51398" lon="-0.81718">
        <ele>82.864991</ele>
        <time>2022-12-27T14:06:32.734Z</time>
      </trkpt>
      <trkpt lat="44.51393" lon="-0.81701">
        <ele>82.89292</ele>
        <time>2022-12-27T14:06:35.722Z</time>
      </trkpt>
      <trkpt lat="44.51388" lon="-0.81684">
        <ele>82.920068</ele>
        <time>2022-12-27T14:06:38.733Z</time>
      </trkpt>
      <trkpt lat="44.51383" lon="-0.81668">
        <ele>82.946747</ele>
        <time>2022-12-27T14:06:41.727Z</time>
      </trkpt>
      <trkpt lat="44.51378" lon="-0.81652">
        <ele>82.974174</ele>
        <time>2022-12-27T14:06:44.735Z</time>
      </trkpt>
      <trkpt lat="44.51373" lon="-0.81635">
        <ele>83.002362</ele>
        <time>2022-12-27T14:06:47.748Z</time>
      </trkpt>
      <trkpt lat="44.51369" lon="-0.81623">
        <ele>83.021755</ele>
        <time>2022-12-27T14:06:49.736Z</time>
      </trkpt>
      <trkpt lat="44.51365" lon="-0.81611">
        <ele>83.04158</ele>
        <time>2022-12-27T14:06:51.726Z</time>
      </trkpt>
      <trkpt lat="44.51361" lon="-0.81599">
        <ele>83.062006</ele>
        <time>2022-12-27T14:06:53.732Z</time>
      </trkpt>
      <trkpt lat="44.51355" lon="-0.81582">
        <ele>83.090652</ele>
        <time>2022-12-27T14:06:56.749Z</time>
      </trkpt>
      <trkpt lat="44.51352" lon="-0.81569">
        <ele>83.111312</ele>
        <time>2022-12-27T14:06:58.725Z</time>
      </trkpt>
      <trkpt lat="44.51348" lon="-0.81557">
        <ele>83.131374</ele>
        <time>2022-12-27T14:07:00.735Z</time>
      </trkpt>
      <trkpt lat="44.51344" lon="-0.81545">
        <ele>83.157771</ele>
        <time>2022-12-27T14:07:02.738Z</time>
      </trkpt>
      <trkpt lat="44.5134" lon="-0.8153">
        <ele>83.196176</ele>
        <time>2022-12-27T14:07:05.741Z</time>
      </trkpt>
      <trkpt lat="44.51334" lon="-0.81514">
        <ele>83.237296</ele>
        <time>2022-12-27T14:07:08.744Z</time>
      </trkpt>
      <trkpt lat="44.5133" lon="-0.81498">
        <ele>83.27857</ele>
        <time>2022-12-27T14:07:11.728Z</time>
      </trkpt>
      <trkpt lat="44.51325" lon="-0.81481">
        <ele>83.320276</ele>
        <time>2022-12-27T14:07:14.737Z</time>
      </trkpt>
      <trkpt lat="44.51321" lon="-0.81465">
        <ele>83.359882</ele>
        <time>2022-12-27T14:07:17.734Z</time>
      </trkpt>
      <trkpt lat="44.51316" lon="-0.8145">
        <ele>83.3971</ele>
        <time>2022-12-27T14:07:20.738Z</time>
      </trkpt>
      <trkpt lat="44.51312" lon="-0.81435">
        <ele>83.434948</ele>
        <time>2022-12-27T14:07:23.734Z</time>
      </trkpt>
      <trkpt lat="44.51307" lon="-0.8142">
        <ele>83.473564</ele>
        <time>2022-12-27T14:07:26.735Z</time>
      </trkpt>
      <trkpt lat="44.51302" lon="-0.81404">
        <ele>83.514056</ele>
        <time>2022-12-27T14:07:29.751Z</time>
      </trkpt>
      <trkpt lat="44.51297" lon="-0.81389">
        <ele>83.553364</ele>
        <time>2022-12-27T14:07:32.726Z</time>
      </trkpt>
      <trkpt lat="44.51292" lon="-0.81373">
        <ele>83.593347</ele>
        <time>2022-12-27T14:07:35.737Z</time>
      </trkpt>
      <trkpt lat="44.51287" lon="-0.81356">
        <ele>83.634993</ele>
        <time>2022-12-27T14:07:38.747Z</time>
      </trkpt>
      <trkpt lat="44.51282" lon="-0.8134">
        <ele>83.67639</ele>
        <time>2022-12-27T14:07:41.733Z</time>
      </trkpt>
      <trkpt lat="44.51276" lon="-0.81324">
        <ele>83.717523</ele>
        <time>2022-12-27T14:07:44.742Z</time>
      </trkpt>
      <trkpt lat="44.51271" lon="-0.81308">
        <ele>83.701966</ele>
        <time>2022-12-27T14:07:47.727Z</time>
      </trkpt>
      <trkpt lat="44.51267" lon="-0.81293">
        <ele>83.678143</ele>
        <time>2022-12-27T14:07:50.745Z</time>
      </trkpt>
      <trkpt lat="44.51262" lon="-0.81277">
        <ele>83.651352</ele>
        <time>2022-12-27T14:07:53.745Z</time>
      </trkpt>
      <trkpt lat="44.51258" lon="-0.81263">
        <ele>83.628791</ele>
        <time>2022-12-27T14:07:56.727Z</time>
      </trkpt>
      <trkpt lat="44.51254" lon="-0.81249">
        <ele>83.606309</ele>
        <time>2022-12-27T14:07:59.737Z</time>
      </trkpt>
      <trkpt lat="44.51249" lon="-0.81235">
        <ele>83.583531</ele>
        <time>2022-12-27T14:08:02.733Z</time>
      </trkpt>
      <trkpt lat="44.51244" lon="-0.8122">
        <ele>83.558356</ele>
        <time>2022-12-27T14:08:05.745Z</time>
      </trkpt>
      <trkpt lat="44.51239" lon="-0.81204">
        <ele>83.532775</ele>
        <time>2022-12-27T14:08:08.744Z</time>
      </trkpt>
      <trkpt lat="44.51233" lon="-0.81188">
        <ele>83.506321</ele>
        <time>2022-12-27T14:08:11.727Z</time>
      </trkpt>
      <trkpt lat="44.51227" lon="-0.81172">
        <ele>83.479844</ele>
        <time>2022-12-27T14:08:14.741Z</time>
      </trkpt>
      <trkpt lat="44.51222" lon="-0.81157">
        <ele>83.454127</ele>
        <time>2022-12-27T14:08:17.740Z</time>
      </trkpt>
      <trkpt lat="44.51218" lon="-0.8114">
        <ele>83.427839</ele>
        <time>2022-12-27T14:08:20.735Z</time>
      </trkpt>
      <trkpt lat="44.51213" lon="-0.81124">
        <ele>83.401413</ele>
        <time>2022-12-27T14:08:23.739Z</time>
      </trkpt>
      <trkpt lat="44.51208" lon="-0.81108">
        <ele>83.376249</ele>
        <time>2022-12-27T14:08:26.747Z</time>
      </trkpt>
      <trkpt lat="44.51203" lon="-0.81093">
        <ele>83.350667</ele>
        <time>2022-12-27T14:08:29.720Z</time>
      </trkpt>
      <trkpt lat="44.51198" lon="-0.81079">
        <ele>83.391165</ele>
        <time>2022-12-27T14:08:32.738Z</time>
      </trkpt>
      <trkpt lat="44.51195" lon="-0.81067">
        <ele>83.43396</ele>
        <time>2022-12-27T14:08:35.737Z</time>
      </trkpt>
      <trkpt lat="44.51191" lon="-0.81055">
        <ele>83.478008</ele>
        <time>2022-12-27T14:08:38.742Z</time>
      </trkpt>
      <trkpt lat="44.51187" lon="-0.81041">
        <ele>83.52762</ele>
        <time>2022-12-27T14:08:41.726Z</time>
      </trkpt>
      <trkpt lat="44.51183" lon="-0.81025">
        <ele>83.582996</ele>
        <time>2022-12-27T14:08:44.737Z</time>
      </trkpt>
      <trkpt lat="44.51178" lon="-0.8101">
        <ele>83.637646</ele>
        <time>2022-12-27T14:08:47.738Z</time>
      </trkpt>
      <trkpt lat="44.51173" lon="-0.80993">
        <ele>83.6958</ele>
        <time>2022-12-27T14:08:50.749Z</time>
      </trkpt>
      <trkpt lat="44.51168" lon="-0.80977">
        <ele>83.755152</ele>
        <time>2022-12-27T14:08:53.743Z</time>
      </trkpt>
      <trkpt lat="44.51164" lon="-0.80965">
        <ele>83.796954</ele>
        <time>2022-12-27T14:08:55.739Z</time>
      </trkpt>
      <trkpt lat="44.5116" lon="-0.80954">
        <ele>83.838927</ele>
        <time>2022-12-27T14:08:57.743Z</time>
      </trkpt>
      <trkpt lat="44.51155" lon="-0.80939">
        <ele>83.892562</ele>
        <time>2022-12-27T14:09:00.745Z</time>
      </trkpt>
      <trkpt lat="44.51152" lon="-0.80926">
        <ele>83.939375</ele>
        <time>2022-12-27T14:09:03.737Z</time>
      </trkpt>
      <trkpt lat="44.51147" lon="-0.80911">
        <ele>83.992012</ele>
        <time>2022-12-27T14:09:06.736Z</time>
      </trkpt>
      <trkpt lat="44.51141" lon="-0.80896">
        <ele>84.048136</ele>
        <time>2022-12-27T14:09:09.735Z</time>
      </trkpt>
      <trkpt lat="44.51136" lon="-0.80881">
        <ele>84.104636</ele>
        <time>2022-12-27T14:09:12.745Z</time>
      </trkpt>
      <trkpt lat="44.51129" lon="-0.80865">
        <ele>84.164593</ele>
        <time>2022-12-27T14:09:15.724Z</time>
      </trkpt>
      <trkpt lat="44.51121" lon="-0.80846">
        <ele>84.286797</ele>
        <time>2022-12-27T14:09:18.736Z</time>
      </trkpt>
      <trkpt lat="44.51115" lon="-0.80831">
        <ele>84.382852</ele>
        <time>2022-12-27T14:09:21.728Z</time>
      </trkpt>
      <trkpt lat="44.51109" lon="-0.80819">
        <ele>84.464235</ele>
        <time>2022-12-27T14:09:23.739Z</time>
      </trkpt>
      <trkpt lat="44.51105" lon="-0.80808">
        <ele>84.539818</ele>
        <time>2022-12-27T14:09:25.747Z</time>
      </trkpt>
      <trkpt lat="44.51098" lon="-0.80794">
        <ele>84.638837</ele>
        <time>2022-12-27T14:09:28.743Z</time>
      </trkpt>
      <trkpt lat="44.5109" lon="-0.80777">
        <ele>84.752708</ele>
        <time>2022-12-27T14:09:31.725Z</time>
      </trkpt>
      <trkpt lat="44.51083" lon="-0.80763">
        <ele>84.852958</ele>
        <time>2022-12-27T14:09:34.732Z</time>
      </trkpt>
      <trkpt lat="44.51075" lon="-0.80749">
        <ele>84.958849</ele>
        <time>2022-12-27T14:09:37.737Z</time>
      </trkpt>
      <trkpt lat="44.51067" lon="-0.80735">
        <ele>85.061956</ele>
        <time>2022-12-27T14:09:40.742Z</time>
      </trkpt>
      <trkpt lat="44.5106" lon="-0.80722">
        <ele>85.159471</ele>
        <time>2022-12-27T14:09:42.725Z</time>
      </trkpt>
      <trkpt lat="44.51054" lon="-0.80711">
        <ele>85.234848</ele>
        <time>2022-12-27T14:09:44.750Z</time>
      </trkpt>
      <trkpt lat="44.51048" lon="-0.80701">
        <ele>85.312378</ele>
        <time>2022-12-27T14:09:46.737Z</time>
      </trkpt>
      <trkpt lat="44.5104" lon="-0.8069">
        <ele>85.401191</ele>
        <time>2022-12-27T14:09:48.720Z</time>
      </trkpt>
      <trkpt lat="44.51031" lon="-0.8068">
        <ele>85.494435</ele>
        <time>2022-12-27T14:09:50.726Z</time>
      </trkpt>
      <trkpt lat="44.51023" lon="-0.8067">
        <ele>85.58007</ele>
        <time>2022-12-27T14:09:52.720Z</time>
      </trkpt>
      <trkpt lat="44.51016" lon="-0.8066">
        <ele>85.569685</ele>
        <time>2022-12-27T14:09:54.742Z</time>
      </trkpt>
      <trkpt lat="44.51009" lon="-0.8065">
        <ele>85.390639</ele>
        <time>2022-12-27T14:09:56.727Z</time>
      </trkpt>
      <trkpt lat="44.51001" lon="-0.80641">
        <ele>85.226589</ele>
        <time>2022-12-27T14:09:58.734Z</time>
      </trkpt>
      <trkpt lat="44.50995" lon="-0.80631">
        <ele>85.064411</ele>
        <time>2022-12-27T14:10:00.735Z</time>
      </trkpt>
      <trkpt lat="44.50989" lon="-0.80621">
        <ele>84.893452</ele>
        <time>2022-12-27T14:10:03.738Z</time>
      </trkpt>
      <trkpt lat="44.50981" lon="-0.80611">
        <ele>84.715666</ele>
        <time>2022-12-27T14:10:05.724Z</time>
      </trkpt>
      <trkpt lat="44.50972" lon="-0.80602">
        <ele>84.517085</ele>
        <time>2022-12-27T14:10:07.745Z</time>
      </trkpt>
      <trkpt lat="44.50964" lon="-0.80591">
        <ele>84.333406</ele>
        <time>2022-12-27T14:10:09.735Z</time>
      </trkpt>
      <trkpt lat="44.50957" lon="-0.80584">
        <ele>84.177929</ele>
        <time>2022-12-27T14:10:11.727Z</time>
      </trkpt>
      <trkpt lat="44.50949" lon="-0.80576">
        <ele>84.006921</ele>
        <time>2022-12-27T14:10:13.746Z</time>
      </trkpt>
      <trkpt lat="44.50941" lon="-0.80568">
        <ele>83.84564</ele>
        <time>2022-12-27T14:10:15.741Z</time>
      </trkpt>
      <trkpt lat="44.50935" lon="-0.80559">
        <ele>83.68969</ele>
        <time>2022-12-27T14:10:17.732Z</time>
      </trkpt>
      <trkpt lat="44.50927" lon="-0.80551">
        <ele>83.518563</ele>
        <time>2022-12-27T14:10:19.720Z</time>
      </trkpt>
      <trkpt lat="44.50915" lon="-0.8054">
        <ele>83.275883</ele>
        <time>2022-12-27T14:10:22.733Z</time>
      </trkpt>
      <trkpt lat="44.50904" lon="-0.80531">
        <ele>83.064744</ele>
        <time>2022-12-27T14:10:25.734Z</time>
      </trkpt>
      <trkpt lat="44.50894" lon="-0.80521">
        <ele>82.840028</ele>
        <time>2022-12-27T14:10:28.717Z</time>
      </trkpt>
      <trkpt lat="44.50884" lon="-0.80513">
        <ele>82.6479</ele>
        <time>2022-12-27T14:10:31.718Z</time>
      </trkpt>
      <trkpt lat="44.50875" lon="-0.80506">
        <ele>82.529007</ele>
        <time>2022-12-27T14:10:34.736Z</time>
      </trkpt>
      <trkpt lat="44.50867" lon="-0.80499">
        <ele>82.531846</ele>
        <time>2022-12-27T14:10:37.735Z</time>
      </trkpt>
      <trkpt lat="44.50857" lon="-0.80492">
        <ele>82.534949</ele>
        <time>2022-12-27T14:10:40.737Z</time>
      </trkpt>
      <trkpt lat="44.50847" lon="-0.80485">
        <ele>82.538249</ele>
        <time>2022-12-27T14:10:43.735Z</time>
      </trkpt>
      <trkpt lat="44.50837" lon="-0.80477">
        <ele>82.54144</ele>
        <time>2022-12-27T14:10:47.728Z</time>
      </trkpt>
      <trkpt lat="44.50826" lon="-0.80468">
        <ele>82.544865</ele>
        <time>2022-12-27T14:10:51.720Z</time>
      </trkpt>
      <trkpt lat="44.50816" lon="-0.80462">
        <ele>82.548216</ele>
        <time>2022-12-27T14:10:55.733Z</time>
      </trkpt>
      <trkpt lat="44.50808" lon="-0.80456">
        <ele>82.550813</ele>
        <time>2022-12-27T14:10:58.738Z</time>
      </trkpt>
      <trkpt lat="44.50799" lon="-0.8045">
        <ele>82.55364</ele>
        <time>2022-12-27T14:11:01.723Z</time>
      </trkpt>
      <trkpt lat="44.50789" lon="-0.80443">
        <ele>82.556768</ele>
        <time>2022-12-27T14:11:04.735Z</time>
      </trkpt>
      <trkpt lat="44.50778" lon="-0.80436">
        <ele>82.560187</ele>
        <time>2022-12-27T14:11:07.735Z</time>
      </trkpt>
      <trkpt lat="44.50767" lon="-0.80429">
        <ele>82.563701</ele>
        <time>2022-12-27T14:11:10.736Z</time>
      </trkpt>
      <trkpt lat="44.50756" lon="-0.80421">
        <ele>82.567032</ele>
        <time>2022-12-27T14:11:13.728Z</time>
      </trkpt>
      <trkpt lat="44.50747" lon="-0.80414">
        <ele>82.570168</ele>
        <time>2022-12-27T14:11:16.735Z</time>
      </trkpt>
      <trkpt lat="44.50735" lon="-0.80408">
        <ele>82.573531</ele>
        <time>2022-12-27T14:11:19.723Z</time>
      </trkpt>
      <trkpt lat="44.50726" lon="-0.80402">
        <ele>82.576641</ele>
        <time>2022-12-27T14:11:22.728Z</time>
      </trkpt>
      <trkpt lat="44.50716" lon="-0.80393">
        <ele>82.612267</ele>
        <time>2022-12-27T14:11:25.738Z</time>
      </trkpt>
      <trkpt lat="44.50708" lon="-0.80389">
        <ele>82.775672</ele>
        <time>2022-12-27T14:11:28.732Z</time>
      </trkpt>
      <trkpt lat="44.50695" lon="-0.80381">
        <ele>83.01541</ele>
        <time>2022-12-27T14:11:31.718Z</time>
      </trkpt>
      <trkpt lat="44.50684" lon="-0.80373">
        <ele>83.246114</ele>
        <time>2022-12-27T14:11:34.744Z</time>
      </trkpt>
      <trkpt lat="44.50674" lon="-0.80367">
        <ele>83.439715</ele>
        <time>2022-12-27T14:11:37.721Z</time>
      </trkpt>
      <trkpt lat="44.50663" lon="-0.8036">
        <ele>83.650486</ele>
        <time>2022-12-27T14:11:41.731Z</time>
      </trkpt>
      <trkpt lat="44.50654" lon="-0.80351">
        <ele>83.846801</ele>
        <time>2022-12-27T14:11:45.744Z</time>
      </trkpt>
      <trkpt lat="44.50644" lon="-0.80343">
        <ele>84.047241</ele>
        <time>2022-12-27T14:11:48.747Z</time>
      </trkpt>
      <trkpt lat="44.50636" lon="-0.80336">
        <ele>84.225775</ele>
        <time>2022-12-27T14:11:51.728Z</time>
      </trkpt>
      <trkpt lat="44.50628" lon="-0.80329">
        <ele>84.385014</ele>
        <time>2022-12-27T14:11:54.736Z</time>
      </trkpt>
      <trkpt lat="44.5062" lon="-0.80322">
        <ele>84.558547</ele>
        <time>2022-12-27T14:11:58.740Z</time>
      </trkpt>
      <trkpt lat="44.5061" lon="-0.80314">
        <ele>84.759298</ele>
        <time>2022-12-27T14:12:02.736Z</time>
      </trkpt>
      <trkpt lat="44.50601" lon="-0.80305">
        <ele>84.951973</ele>
        <time>2022-12-27T14:12:06.743Z</time>
      </trkpt>
      <trkpt lat="44.50582" lon="-0.80287">
        <ele>85.367208</ele>
        <time>2022-12-27T14:14:10.751Z</time>
      </trkpt>
      <trkpt lat="44.50575" lon="-0.80278">
        <ele>85.527837</ele>
        <time>2022-12-27T14:14:13.724Z</time>
      </trkpt>
      <trkpt lat="44.50567" lon="-0.8027">
        <ele>85.70526</ele>
        <time>2022-12-27T14:14:16.742Z</time>
      </trkpt>
      <trkpt lat="44.50559" lon="-0.80261">
        <ele>85.695248</ele>
        <time>2022-12-27T14:14:19.729Z</time>
      </trkpt>
      <trkpt lat="44.50552" lon="-0.80253">
        <ele>85.569604</ele>
        <time>2022-12-27T14:14:22.748Z</time>
      </trkpt>
      <trkpt lat="44.50544" lon="-0.80244">
        <ele>85.424861</ele>
        <time>2022-12-27T14:14:25.730Z</time>
      </trkpt>
      <trkpt lat="44.50534" lon="-0.80233">
        <ele>85.260232</ele>
        <time>2022-12-27T14:14:28.733Z</time>
      </trkpt>
      <trkpt lat="44.50525" lon="-0.80221">
        <ele>85.088762</ele>
        <time>2022-12-27T14:14:31.761Z</time>
      </trkpt>
      <trkpt lat="44.50515" lon="-0.80211">
        <ele>84.925899</ele>
        <time>2022-12-27T14:14:34.736Z</time>
      </trkpt>
      <trkpt lat="44.50505" lon="-0.802">
        <ele>84.75859</ele>
        <time>2022-12-27T14:14:37.739Z</time>
      </trkpt>
      <trkpt lat="44.50497" lon="-0.8019">
        <ele>84.615394</ele>
        <time>2022-12-27T14:14:40.739Z</time>
      </trkpt>
      <trkpt lat="44.50489" lon="-0.80178">
        <ele>84.454108</ele>
        <time>2022-12-27T14:14:45.738Z</time>
      </trkpt>
      <trkpt lat="44.50481" lon="-0.80167">
        <ele>84.30077</ele>
        <time>2022-12-27T14:14:49.731Z</time>
      </trkpt>
      <trkpt lat="44.50473" lon="-0.80156">
        <ele>84.155853</ele>
        <time>2022-12-27T14:14:53.734Z</time>
      </trkpt>
      <trkpt lat="44.50466" lon="-0.80146">
        <ele>84.021146</ele>
        <time>2022-12-27T14:15:09.724Z</time>
      </trkpt>
      <trkpt lat="44.50459" lon="-0.80137">
        <ele>83.886429</ele>
        <time>2022-12-27T14:15:14.723Z</time>
      </trkpt>
      <trkpt lat="44.50451" lon="-0.80126">
        <ele>83.734039</ele>
        <time>2022-12-27T14:15:18.727Z</time>
      </trkpt>
      <trkpt lat="44.50444" lon="-0.80117">
        <ele>83.609796</ele>
        <time>2022-12-27T14:15:21.723Z</time>
      </trkpt>
      <trkpt lat="44.50438" lon="-0.80105">
        <ele>83.469381</ele>
        <time>2022-12-27T14:15:24.749Z</time>
      </trkpt>
      <trkpt lat="44.5043" lon="-0.80093">
        <ele>83.464079</ele>
        <time>2022-12-27T14:15:27.723Z</time>
      </trkpt>
      <trkpt lat="44.50423" lon="-0.80081">
        <ele>83.880177</ele>
        <time>2022-12-27T14:15:30.748Z</time>
      </trkpt>
      <trkpt lat="44.50414" lon="-0.80067">
        <ele>84.397817</ele>
        <time>2022-12-27T14:15:33.724Z</time>
      </trkpt>
      <trkpt lat="44.50408" lon="-0.80057">
        <ele>84.747614</ele>
        <time>2022-12-27T14:15:35.724Z</time>
      </trkpt>
      <trkpt lat="44.50402" lon="-0.80042">
        <ele>85.231862</ele>
        <time>2022-12-27T14:15:38.745Z</time>
      </trkpt>
      <trkpt lat="44.50396" lon="-0.80031">
        <ele>85.575099</ele>
        <time>2022-12-27T14:15:40.739Z</time>
      </trkpt>
      <trkpt lat="44.50389" lon="-0.80017">
        <ele>86.073206</ele>
        <time>2022-12-27T14:15:43.735Z</time>
      </trkpt>
      <trkpt lat="44.50381" lon="-0.80001">
        <ele>86.573633</ele>
        <time>2022-12-27T14:15:46.717Z</time>
      </trkpt>
      <trkpt lat="44.50374" lon="-0.79986">
        <ele>87.076441</ele>
        <time>2022-12-27T14:15:49.749Z</time>
      </trkpt>
      <trkpt lat="44.50367" lon="-0.79971">
        <ele>87.570719</ele>
        <time>2022-12-27T14:15:52.747Z</time>
      </trkpt>
      <trkpt lat="44.5036" lon="-0.79955">
        <ele>88.056932</ele>
        <time>2022-12-27T14:15:55.732Z</time>
      </trkpt>
      <trkpt lat="44.50355" lon="-0.79943">
        <ele>88.45432</ele>
        <time>2022-12-27T14:15:58.753Z</time>
      </trkpt>
      <trkpt lat="44.5035" lon="-0.7993">
        <ele>88.868594</ele>
        <time>2022-12-27T14:16:01.720Z</time>
      </trkpt>
      <trkpt lat="44.50344" lon="-0.79915">
        <ele>89.317394</ele>
        <time>2022-12-27T14:16:04.748Z</time>
      </trkpt>
      <trkpt lat="44.50337" lon="-0.79901">
        <ele>89.787704</ele>
        <time>2022-12-27T14:16:07.738Z</time>
      </trkpt>
      <trkpt lat="44.50332" lon="-0.79885">
        <ele>90.207096</ele>
        <time>2022-12-27T14:16:10.742Z</time>
      </trkpt>
      <trkpt lat="44.50326" lon="-0.79871">
        <ele>90.211368</ele>
        <time>2022-12-27T14:16:13.737Z</time>
      </trkpt>
      <trkpt lat="44.50321" lon="-0.79854">
        <ele>90.216255</ele>
        <time>2022-12-27T14:16:16.748Z</time>
      </trkpt>
      <trkpt lat="44.50316" lon="-0.79839">
        <ele>90.220774</ele>
        <time>2022-12-27T14:16:19.723Z</time>
      </trkpt>
      <trkpt lat="44.50311" lon="-0.79824">
        <ele>90.225062</ele>
        <time>2022-12-27T14:16:22.736Z</time>
      </trkpt>
      <trkpt lat="44.50306" lon="-0.79809">
        <ele>90.229349</ele>
        <time>2022-12-27T14:16:25.741Z</time>
      </trkpt>
      <trkpt lat="44.50302" lon="-0.79794">
        <ele>90.233715</ele>
        <time>2022-12-27T14:16:28.737Z</time>
      </trkpt>
      <trkpt lat="44.50297" lon="-0.79778">
        <ele>90.238329</ele>
        <time>2022-12-27T14:16:31.720Z</time>
      </trkpt>
      <trkpt lat="44.50293" lon="-0.79762">
        <ele>90.242973</ele>
        <time>2022-12-27T14:16:34.714Z</time>
      </trkpt>
      <trkpt lat="44.50289" lon="-0.79746">
        <ele>90.247417</ele>
        <time>2022-12-27T14:16:37.744Z</time>
      </trkpt>
      <trkpt lat="44.50285" lon="-0.7973">
        <ele>90.251929</ele>
        <time>2022-12-27T14:16:40.732Z</time>
      </trkpt>
      <trkpt lat="44.50281" lon="-0.79713">
        <ele>90.256517</ele>
        <time>2022-12-27T14:16:43.739Z</time>
      </trkpt>
      <trkpt lat="44.50278" lon="-0.79697">
        <ele>90.261124</ele>
        <time>2022-12-27T14:16:46.741Z</time>
      </trkpt>
      <trkpt lat="44.50274" lon="-0.7968">
        <ele>90.265764</ele>
        <time>2022-12-27T14:16:49.739Z</time>
      </trkpt>
      <trkpt lat="44.5027" lon="-0.79664">
        <ele>90.270402</ele>
        <time>2022-12-27T14:16:52.738Z</time>
      </trkpt>
      <trkpt lat="44.50266" lon="-0.79647">
        <ele>90.29953</ele>
        <time>2022-12-27T14:16:55.738Z</time>
      </trkpt>
      <trkpt lat="44.50262" lon="-0.79632">
        <ele>90.377636</ele>
        <time>2022-12-27T14:16:58.737Z</time>
      </trkpt>
      <trkpt lat="44.50257" lon="-0.79616">
        <ele>90.462351</ele>
        <time>2022-12-27T14:17:01.722Z</time>
      </trkpt>
      <trkpt lat="44.50253" lon="-0.79599">
        <ele>90.54689</ele>
        <time>2022-12-27T14:17:04.749Z</time>
      </trkpt>
      <trkpt lat="44.50249" lon="-0.79582">
        <ele>90.633804</ele>
        <time>2022-12-27T14:17:07.736Z</time>
      </trkpt>
      <trkpt lat="44.50244" lon="-0.79564">
        <ele>90.723915</ele>
        <time>2022-12-27T14:17:10.743Z</time>
      </trkpt>
      <trkpt lat="44.5024" lon="-0.79547">
        <ele>90.809833</ele>
        <time>2022-12-27T14:17:13.720Z</time>
      </trkpt>
      <trkpt lat="44.50236" lon="-0.7953">
        <ele>90.895395</ele>
        <time>2022-12-27T14:17:16.739Z</time>
      </trkpt>
      <trkpt lat="44.50233" lon="-0.79513">
        <ele>90.979871</ele>
        <time>2022-12-27T14:17:19.736Z</time>
      </trkpt>
      <trkpt lat="44.50229" lon="-0.79498">
        <ele>91.057073</ele>
        <time>2022-12-27T14:17:22.735Z</time>
      </trkpt>
      <trkpt lat="44.50225" lon="-0.79482">
        <ele>91.137237</ele>
        <time>2022-12-27T14:17:25.737Z</time>
      </trkpt>
      <trkpt lat="44.50221" lon="-0.79465">
        <ele>91.223495</ele>
        <time>2022-12-27T14:17:28.714Z</time>
      </trkpt>
      <trkpt lat="44.50217" lon="-0.79449">
        <ele>91.305941</ele>
        <time>2022-12-27T14:17:31.740Z</time>
      </trkpt>
      <trkpt lat="44.50213" lon="-0.79433">
        <ele>91.384498</ele>
        <time>2022-12-27T14:17:34.749Z</time>
      </trkpt>
      <trkpt lat="44.50209" lon="-0.79418">
        <ele>91.463287</ele>
        <time>2022-12-27T14:17:37.740Z</time>
      </trkpt>
      <trkpt lat="44.50205" lon="-0.79401">
        <ele>91.607165</ele>
        <time>2022-12-27T14:17:40.738Z</time>
      </trkpt>
      <trkpt lat="44.50201" lon="-0.79384">
        <ele>91.777352</ele>
        <time>2022-12-27T14:17:43.738Z</time>
      </trkpt>
      <trkpt lat="44.50196" lon="-0.79367">
        <ele>91.947083</ele>
        <time>2022-12-27T14:17:46.749Z</time>
      </trkpt>
      <trkpt lat="44.50193" lon="-0.79351">
        <ele>92.096896</ele>
        <time>2022-12-27T14:17:49.725Z</time>
      </trkpt>
      <trkpt lat="44.50189" lon="-0.79334">
        <ele>92.258864</ele>
        <time>2022-12-27T14:17:52.742Z</time>
      </trkpt>
      <trkpt lat="44.50185" lon="-0.79318">
        <ele>92.419912</ele>
        <time>2022-12-27T14:17:55.724Z</time>
      </trkpt>
      <trkpt lat="44.50181" lon="-0.79301">
        <ele>92.580541</ele>
        <time>2022-12-27T14:17:58.749Z</time>
      </trkpt>
      <trkpt lat="44.50177" lon="-0.79284">
        <ele>92.750314</ele>
        <time>2022-12-27T14:18:01.722Z</time>
      </trkpt>
      <trkpt lat="44.50173" lon="-0.79267">
        <ele>92.915401</ele>
        <time>2022-12-27T14:18:04.743Z</time>
      </trkpt>
      <trkpt lat="44.50168" lon="-0.7925">
        <ele>93.083401</ele>
        <time>2022-12-27T14:18:07.725Z</time>
      </trkpt>
      <trkpt lat="44.50164" lon="-0.79233">
        <ele>93.24445</ele>
        <time>2022-12-27T14:18:10.748Z</time>
      </trkpt>
      <trkpt lat="44.5016" lon="-0.79216">
        <ele>93.409927</ele>
        <time>2022-12-27T14:18:13.747Z</time>
      </trkpt>
      <trkpt lat="44.50156" lon="-0.792">
        <ele>93.570977</ele>
        <time>2022-12-27T14:18:16.745Z</time>
      </trkpt>
      <trkpt lat="44.50152" lon="-0.79183">
        <ele>93.731194</ele>
        <time>2022-12-27T14:18:19.744Z</time>
      </trkpt>
      <trkpt lat="44.50149" lon="-0.79169">
        <ele>93.845184</ele>
        <time>2022-12-27T14:18:22.738Z</time>
      </trkpt>
      <trkpt lat="44.50145" lon="-0.79154">
        <ele>93.930717</ele>
        <time>2022-12-27T14:18:25.747Z</time>
      </trkpt>
      <trkpt lat="44.50141" lon="-0.79139">
        <ele>94.017021</ele>
        <time>2022-12-27T14:18:28.750Z</time>
      </trkpt>
      <trkpt lat="44.50137" lon="-0.79123">
        <ele>94.108709</ele>
        <time>2022-12-27T14:18:31.722Z</time>
      </trkpt>
      <trkpt lat="44.50133" lon="-0.79107">
        <ele>94.204258</ele>
        <time>2022-12-27T14:18:34.746Z</time>
      </trkpt>
      <trkpt lat="44.50129" lon="-0.7909">
        <ele>94.298603</ele>
        <time>2022-12-27T14:18:37.745Z</time>
      </trkpt>
      <trkpt lat="44.50125" lon="-0.79074">
        <ele>94.390032</ele>
        <time>2022-12-27T14:18:40.749Z</time>
      </trkpt>
      <trkpt lat="44.50121" lon="-0.79059">
        <ele>94.477358</ele>
        <time>2022-12-27T14:18:43.749Z</time>
      </trkpt>
      <trkpt lat="44.50117" lon="-0.79045">
        <ele>94.561869</ele>
        <time>2022-12-27T14:18:46.729Z</time>
      </trkpt>
      <trkpt lat="44.50114" lon="-0.79031">
        <ele>94.64126</ele>
        <time>2022-12-27T14:18:49.738Z</time>
      </trkpt>
      <trkpt lat="44.50111" lon="-0.79019">
        <ele>94.710432</ele>
        <time>2022-12-27T14:18:52.736Z</time>
      </trkpt>
      <trkpt lat="44.50107" lon="-0.79005">
        <ele>94.788566</ele>
        <time>2022-12-27T14:18:56.743Z</time>
      </trkpt>
      <trkpt lat="44.50104" lon="-0.78992">
        <ele>94.866194</ele>
        <time>2022-12-27T14:19:01.725Z</time>
      </trkpt>
      <trkpt lat="44.50101" lon="-0.78979">
        <ele>94.94061</ele>
        <time>2022-12-27T14:19:06.748Z</time>
      </trkpt>
      <trkpt lat="44.501" lon="-0.78963">
        <ele>95.027926</ele>
        <time>2022-12-27T14:19:11.737Z</time>
      </trkpt>
      <trkpt lat="44.50097" lon="-0.78948">
        <ele>95.110467</ele>
        <time>2022-12-27T14:19:14.742Z</time>
      </trkpt>
      <trkpt lat="44.50093" lon="-0.78934">
        <ele>95.185426</ele>
        <time>2022-12-27T14:19:17.717Z</time>
      </trkpt>
      <trkpt lat="44.5009" lon="-0.78922">
        <ele>95.218616</ele>
        <time>2022-12-27T14:19:20.749Z</time>
      </trkpt>
      <trkpt lat="44.50085" lon="-0.78907">
        <ele>95.260335</ele>
        <time>2022-12-27T14:19:24.744Z</time>
      </trkpt>
      <trkpt lat="44.50083" lon="-0.78894">
        <ele>95.294065</ele>
        <time>2022-12-27T14:19:27.750Z</time>
      </trkpt>
      <trkpt lat="44.5008" lon="-0.7888">
        <ele>95.331025</ele>
        <time>2022-12-27T14:19:30.748Z</time>
      </trkpt>
      <trkpt lat="44.50075" lon="-0.78865">
        <ele>95.373589</ele>
        <time>2022-12-27T14:19:33.727Z</time>
      </trkpt>
      <trkpt lat="44.50071" lon="-0.78851">
        <ele>95.413265</ele>
        <time>2022-12-27T14:19:36.745Z</time>
      </trkpt>
      <trkpt lat="44.50067" lon="-0.78836">
        <ele>95.452595</ele>
        <time>2022-12-27T14:19:39.733Z</time>
      </trkpt>
      <trkpt lat="44.50065" lon="-0.78821">
        <ele>95.492166</ele>
        <time>2022-12-27T14:19:42.743Z</time>
      </trkpt>
      <trkpt lat="44.50061" lon="-0.78805">
        <ele>95.53474</ele>
        <time>2022-12-27T14:19:45.744Z</time>
      </trkpt>
      <trkpt lat="44.50057" lon="-0.78789">
        <ele>95.579215</ele>
        <time>2022-12-27T14:19:48.744Z</time>
      </trkpt>
      <trkpt lat="44.50053" lon="-0.78772">
        <ele>95.624547</ele>
        <time>2022-12-27T14:19:51.746Z</time>
      </trkpt>
      <trkpt lat="44.50048" lon="-0.78755">
        <ele>95.671316</ele>
        <time>2022-12-27T14:19:54.748Z</time>
      </trkpt>
      <trkpt lat="44.50044" lon="-0.78738">
        <ele>95.716637</ele>
        <time>2022-12-27T14:19:57.745Z</time>
      </trkpt>
      <trkpt lat="44.5004" lon="-0.7872">
        <ele>95.764861</ele>
        <time>2022-12-27T14:20:00.743Z</time>
      </trkpt>
      <trkpt lat="44.50037" lon="-0.78708">
        <ele>95.797357</ele>
        <time>2022-12-27T14:20:02.728Z</time>
      </trkpt>
      <trkpt lat="44.50032" lon="-0.7869">
        <ele>95.857258</ele>
        <time>2022-12-27T14:20:05.746Z</time>
      </trkpt>
      <trkpt lat="44.50029" lon="-0.78678">
        <ele>95.908214</ele>
        <time>2022-12-27T14:20:07.729Z</time>
      </trkpt>
      <trkpt lat="44.50026" lon="-0.78666">
        <ele>95.957889</ele>
        <time>2022-12-27T14:20:09.738Z</time>
      </trkpt>
      <trkpt lat="44.50023" lon="-0.78653">
        <ele>96.009582</ele>
        <time>2022-12-27T14:20:11.730Z</time>
      </trkpt>
      <trkpt lat="44.50019" lon="-0.78636">
        <ele>96.079408</ele>
        <time>2022-12-27T14:20:14.747Z</time>
      </trkpt>
      <trkpt lat="44.50015" lon="-0.7862">
        <ele>96.146868</ele>
        <time>2022-12-27T14:20:17.746Z</time>
      </trkpt>
      <trkpt lat="44.50011" lon="-0.78606">
        <ele>96.205934</ele>
        <time>2022-12-27T14:20:20.730Z</time>
      </trkpt>
      <trkpt lat="44.50008" lon="-0.78591">
        <ele>96.264794</ele>
        <time>2022-12-27T14:20:23.750Z</time>
      </trkpt>
      <trkpt lat="44.50003" lon="-0.78577">
        <ele>96.326221</ele>
        <time>2022-12-27T14:20:26.728Z</time>
      </trkpt>
      <trkpt lat="44.5" lon="-0.78564">
        <ele>96.380105</ele>
        <time>2022-12-27T14:20:30.721Z</time>
      </trkpt>
      <trkpt lat="44.49996" lon="-0.7855">
        <ele>96.436945</ele>
        <time>2022-12-27T14:20:35.720Z</time>
      </trkpt>
      <trkpt lat="44.49993" lon="-0.78533">
        <ele>96.505607</ele>
        <time>2022-12-27T14:20:39.745Z</time>
      </trkpt>
      <trkpt lat="44.49989" lon="-0.78517">
        <ele>96.573418</ele>
        <time>2022-12-27T14:20:42.748Z</time>
      </trkpt>
      <trkpt lat="44.49985" lon="-0.78501">
        <ele>96.641241</ele>
        <time>2022-12-27T14:20:45.742Z</time>
      </trkpt>
      <trkpt lat="44.4998" lon="-0.78483">
        <ele>96.712903</ele>
        <time>2022-12-27T14:20:48.735Z</time>
      </trkpt>
      <trkpt lat="44.49977" lon="-0.78466">
        <ele>96.781237</ele>
        <time>2022-12-27T14:20:51.718Z</time>
      </trkpt>
      <trkpt lat="44.49973" lon="-0.78449">
        <ele>96.879133</ele>
        <time>2022-12-27T14:20:54.748Z</time>
      </trkpt>
      <trkpt lat="44.49969" lon="-0.78432">
        <ele>96.984227</ele>
        <time>2022-12-27T14:20:57.740Z</time>
      </trkpt>
      <trkpt lat="44.49966" lon="-0.78419">
        <ele>97.062769</ele>
        <time>2022-12-27T14:20:59.742Z</time>
      </trkpt>
      <trkpt lat="44.49962" lon="-0.78407">
        <ele>97.138573</ele>
        <time>2022-12-27T14:21:01.726Z</time>
      </trkpt>
      <trkpt lat="44.49959" lon="-0.78391">
        <ele>97.236204</ele>
        <time>2022-12-27T14:21:04.736Z</time>
      </trkpt>
      <trkpt lat="44.49955" lon="-0.78375">
        <ele>97.338065</ele>
        <time>2022-12-27T14:21:07.724Z</time>
      </trkpt>
      <trkpt lat="44.49951" lon="-0.78358">
        <ele>97.443959</ele>
        <time>2022-12-27T14:21:10.739Z</time>
      </trkpt>
      <trkpt lat="44.49946" lon="-0.78341">
        <ele>97.549299</ele>
        <time>2022-12-27T14:21:13.726Z</time>
      </trkpt>
      <trkpt lat="44.49943" lon="-0.78329">
        <ele>97.625187</ele>
        <time>2022-12-27T14:21:15.740Z</time>
      </trkpt>
      <trkpt lat="44.49939" lon="-0.78317">
        <ele>97.701843</ele>
        <time>2022-12-27T14:21:17.759Z</time>
      </trkpt>
      <trkpt lat="44.49936" lon="-0.78304">
        <ele>97.782316</ele>
        <time>2022-12-27T14:21:19.745Z</time>
      </trkpt>
      <trkpt lat="44.49933" lon="-0.78286">
        <ele>97.892981</ele>
        <time>2022-12-27T14:21:22.749Z</time>
      </trkpt>
      <trkpt lat="44.49929" lon="-0.78274">
        <ele>97.967582</ele>
        <time>2022-12-27T14:21:24.739Z</time>
      </trkpt>
      <trkpt lat="44.49926" lon="-0.78261">
        <ele>98.046682</ele>
        <time>2022-12-27T14:21:26.732Z</time>
      </trkpt>
      <trkpt lat="44.49924" lon="-0.78248">
        <ele>98.124595</ele>
        <time>2022-12-27T14:21:28.735Z</time>
      </trkpt>
      <trkpt lat="44.4992" lon="-0.78236">
        <ele>98.202341</ele>
        <time>2022-12-27T14:21:30.742Z</time>
      </trkpt>
      <trkpt lat="44.49918" lon="-0.78224">
        <ele>98.277928</ele>
        <time>2022-12-27T14:21:32.761Z</time>
      </trkpt>
      <trkpt lat="44.49914" lon="-0.78211">
        <ele>98.26506</ele>
        <time>2022-12-27T14:21:34.752Z</time>
      </trkpt>
      <trkpt lat="44.49911" lon="-0.78198">
        <ele>98.246067</ele>
        <time>2022-12-27T14:21:36.736Z</time>
      </trkpt>
      <trkpt lat="44.49908" lon="-0.78186">
        <ele>98.227619</ele>
        <time>2022-12-27T14:21:38.740Z</time>
      </trkpt>
      <trkpt lat="44.49903" lon="-0.78168">
        <ele>98.199289</ele>
        <time>2022-12-27T14:21:41.727Z</time>
      </trkpt>
      <trkpt lat="44.49899" lon="-0.78156">
        <ele>98.180131</ele>
        <time>2022-12-27T14:21:43.720Z</time>
      </trkpt>
      <trkpt lat="44.49897" lon="-0.78143">
        <ele>98.161139</ele>
        <time>2022-12-27T14:21:45.741Z</time>
      </trkpt>
      <trkpt lat="44.49893" lon="-0.7813">
        <ele>98.141618</ele>
        <time>2022-12-27T14:21:47.721Z</time>
      </trkpt>
      <trkpt lat="44.4989" lon="-0.78118">
        <ele>98.122776</ele>
        <time>2022-12-27T14:21:49.746Z</time>
      </trkpt>
      <trkpt lat="44.49888" lon="-0.78105">
        <ele>98.104155</ele>
        <time>2022-12-27T14:21:51.728Z</time>
      </trkpt>
      <trkpt lat="44.49884" lon="-0.78093">
        <ele>98.085364</ele>
        <time>2022-12-27T14:21:53.746Z</time>
      </trkpt>
      <trkpt lat="44.49882" lon="-0.78081">
        <ele>98.066417</ele>
        <time>2022-12-27T14:21:55.738Z</time>
      </trkpt>
      <trkpt lat="44.49879" lon="-0.78067">
        <ele>98.046423</ele>
        <time>2022-12-27T14:21:57.745Z</time>
      </trkpt>
      <trkpt lat="44.49876" lon="-0.78055">
        <ele>98.027431</ele>
        <time>2022-12-27T14:21:59.751Z</time>
      </trkpt>
      <trkpt lat="44.49873" lon="-0.78043">
        <ele>98.009124</ele>
        <time>2022-12-27T14:22:01.733Z</time>
      </trkpt>
      <trkpt lat="44.4987" lon="-0.78031">
        <ele>97.990257</ele>
        <time>2022-12-27T14:22:03.754Z</time>
      </trkpt>
      <trkpt lat="44.49867" lon="-0.78019">
        <ele>97.972025</ele>
        <time>2022-12-27T14:22:05.747Z</time>
      </trkpt>
      <trkpt lat="44.49863" lon="-0.78006">
        <ele>97.952913</ele>
        <time>2022-12-27T14:22:07.747Z</time>
      </trkpt>
      <trkpt lat="44.49861" lon="-0.77993">
        <ele>97.933151</ele>
        <time>2022-12-27T14:22:09.740Z</time>
      </trkpt>
      <trkpt lat="44.49857" lon="-0.7798">
        <ele>97.912326</ele>
        <time>2022-12-27T14:22:11.730Z</time>
      </trkpt>
      <trkpt lat="44.49854" lon="-0.77966">
        <ele>97.890693</ele>
        <time>2022-12-27T14:22:13.730Z</time>
      </trkpt>
      <trkpt lat="44.4985" lon="-0.77951">
        <ele>97.867298</ele>
        <time>2022-12-27T14:22:15.722Z</time>
      </trkpt>
      <trkpt lat="44.49848" lon="-0.77937">
        <ele>97.845127</ele>
        <time>2022-12-27T14:22:17.718Z</time>
      </trkpt>
      <trkpt lat="44.49844" lon="-0.77923">
        <ele>97.822851</ele>
        <time>2022-12-27T14:22:19.720Z</time>
      </trkpt>
      <trkpt lat="44.4984" lon="-0.77909">
        <ele>97.800578</ele>
        <time>2022-12-27T14:22:21.726Z</time>
      </trkpt>
      <trkpt lat="44.49836" lon="-0.77894">
        <ele>97.777114</ele>
        <time>2022-12-27T14:22:23.748Z</time>
      </trkpt>
      <trkpt lat="44.49833" lon="-0.7788">
        <ele>97.755802</ele>
        <time>2022-12-27T14:22:25.724Z</time>
      </trkpt>
      <trkpt lat="44.4983" lon="-0.77867">
        <ele>97.73452</ele>
        <time>2022-12-27T14:22:27.740Z</time>
      </trkpt>
      <trkpt lat="44.49827" lon="-0.77854">
        <ele>97.714816</ele>
        <time>2022-12-27T14:22:29.743Z</time>
      </trkpt>
      <trkpt lat="44.49823" lon="-0.77837">
        <ele>97.688042</ele>
        <time>2022-12-27T14:22:32.749Z</time>
      </trkpt>
      <trkpt lat="44.4982" lon="-0.77825">
        <ele>97.669278</ele>
        <time>2022-12-27T14:22:34.752Z</time>
      </trkpt>
      <trkpt lat="44.49817" lon="-0.77809">
        <ele>97.644258</ele>
        <time>2022-12-27T14:22:37.721Z</time>
      </trkpt>
      <trkpt lat="44.49812" lon="-0.77796">
        <ele>97.622887</ele>
        <time>2022-12-27T14:22:40.745Z</time>
      </trkpt>
      <trkpt lat="44.49808" lon="-0.77783">
        <ele>97.600838</ele>
        <time>2022-12-27T14:22:44.721Z</time>
      </trkpt>
      <trkpt lat="44.49805" lon="-0.77769">
        <ele>97.579555</ele>
        <time>2022-12-27T14:22:50.726Z</time>
      </trkpt>
      <trkpt lat="44.49801" lon="-0.77755">
        <ele>97.557282</ele>
        <time>2022-12-27T14:22:54.750Z</time>
      </trkpt>
      <trkpt lat="44.49798" lon="-0.77741">
        <ele>97.548741</ele>
        <time>2022-12-27T14:22:57.744Z</time>
      </trkpt>
      <trkpt lat="44.49795" lon="-0.77726">
        <ele>97.560904</ele>
        <time>2022-12-27T14:23:00.740Z</time>
      </trkpt>
      <trkpt lat="44.49791" lon="-0.77709">
        <ele>97.574226</ele>
        <time>2022-12-27T14:23:03.747Z</time>
      </trkpt>
      <trkpt lat="44.49789" lon="-0.77696">
        <ele>97.583789</ele>
        <time>2022-12-27T14:23:05.745Z</time>
      </trkpt>
      <trkpt lat="44.49786" lon="-0.77684">
        <ele>97.593562</ele>
        <time>2022-12-27T14:23:07.738Z</time>
      </trkpt>
      <trkpt lat="44.49782" lon="-0.77671">
        <ele>97.603827</ele>
        <time>2022-12-27T14:23:09.724Z</time>
      </trkpt>
      <trkpt lat="44.49779" lon="-0.77658">
        <ele>97.613916</ele>
        <time>2022-12-27T14:23:11.727Z</time>
      </trkpt>
      <trkpt lat="44.49775" lon="-0.77646">
        <ele>97.624237</ele>
        <time>2022-12-27T14:23:13.724Z</time>
      </trkpt>
      <trkpt lat="44.49771" lon="-0.77633">
        <ele>97.634684</ele>
        <time>2022-12-27T14:23:15.749Z</time>
      </trkpt>
      <trkpt lat="44.49768" lon="-0.7762">
        <ele>97.645005</ele>
        <time>2022-12-27T14:23:17.723Z</time>
      </trkpt>
      <trkpt lat="44.49764" lon="-0.77608">
        <ele>97.655106</ele>
        <time>2022-12-27T14:23:19.735Z</time>
      </trkpt>
      <trkpt lat="44.4976" lon="-0.77595">
        <ele>97.665105</ele>
        <time>2022-12-27T14:23:21.726Z</time>
      </trkpt>
      <trkpt lat="44.49755" lon="-0.77583">
        <ele>97.675804</ele>
        <time>2022-12-27T14:23:23.740Z</time>
      </trkpt>
      <trkpt lat="44.4975" lon="-0.77569">
        <ele>97.687092</ele>
        <time>2022-12-27T14:23:25.728Z</time>
      </trkpt>
      <trkpt lat="44.49746" lon="-0.77557">
        <ele>97.697429</ele>
        <time>2022-12-27T14:23:27.720Z</time>
      </trkpt>
      <trkpt lat="44.49741" lon="-0.77544">
        <ele>97.708329</ele>
        <time>2022-12-27T14:23:29.742Z</time>
      </trkpt>
      <trkpt lat="44.49737" lon="-0.7753">
        <ele>97.719182</ele>
        <time>2022-12-27T14:23:31.725Z</time>
      </trkpt>
      <trkpt lat="44.49732" lon="-0.77518">
        <ele>97.730036</ele>
        <time>2022-12-27T14:23:33.724Z</time>
      </trkpt>
      <trkpt lat="44.49727" lon="-0.77506">
        <ele>97.742895</ele>
        <time>2022-12-27T14:23:35.727Z</time>
      </trkpt>
      <trkpt lat="44.49721" lon="-0.77491">
        <ele>97.762517</ele>
        <time>2022-12-27T14:23:38.743Z</time>
      </trkpt>
      <trkpt lat="44.49716" lon="-0.77479">
        <ele>97.777227</ele>
        <time>2022-12-27T14:23:40.738Z</time>
      </trkpt>
      <trkpt lat="44.49712" lon="-0.77467">
        <ele>97.791392</ele>
        <time>2022-12-27T14:23:42.745Z</time>
      </trkpt>
      <trkpt lat="44.49706" lon="-0.77456">
        <ele>97.806504</ele>
        <time>2022-12-27T14:23:44.746Z</time>
      </trkpt>
      <trkpt lat="44.49701" lon="-0.77445">
        <ele>97.820523</ele>
        <time>2022-12-27T14:23:46.727Z</time>
      </trkpt>
      <trkpt lat="44.49695" lon="-0.77434">
        <ele>97.835254</ele>
        <time>2022-12-27T14:23:48.739Z</time>
      </trkpt>
      <trkpt lat="44.49689" lon="-0.77423">
        <ele>97.850422</ele>
        <time>2022-12-27T14:23:50.744Z</time>
      </trkpt>
      <trkpt lat="44.49684" lon="-0.77412">
        <ele>97.865322</ele>
        <time>2022-12-27T14:23:52.735Z</time>
      </trkpt>
      <trkpt lat="44.49678" lon="-0.774">
        <ele>97.88049</ele>
        <time>2022-12-27T14:23:54.740Z</time>
      </trkpt>
      <trkpt lat="44.49672" lon="-0.77389">
        <ele>97.895763</ele>
        <time>2022-12-27T14:23:56.735Z</time>
      </trkpt>
      <trkpt lat="44.49667" lon="-0.77377">
        <ele>97.910853</ele>
        <time>2022-12-27T14:23:58.750Z</time>
      </trkpt>
      <trkpt lat="44.49661" lon="-0.77366">
        <ele>97.925312</ele>
        <time>2022-12-27T14:24:00.738Z</time>
      </trkpt>
      <trkpt lat="44.49656" lon="-0.77354">
        <ele>97.940563</ele>
        <time>2022-12-27T14:24:02.737Z</time>
      </trkpt>
      <trkpt lat="44.4965" lon="-0.77343">
        <ele>97.956168</ele>
        <time>2022-12-27T14:24:04.737Z</time>
      </trkpt>
      <trkpt lat="44.49644" lon="-0.77332">
        <ele>97.970628</ele>
        <time>2022-12-27T14:24:06.751Z</time>
      </trkpt>
      <trkpt lat="44.49638" lon="-0.77321">
        <ele>97.985197</ele>
        <time>2022-12-27T14:24:08.721Z</time>
      </trkpt>
      <trkpt lat="44.49633" lon="-0.77311">
        <ele>97.9994</ele>
        <time>2022-12-27T14:24:10.748Z</time>
      </trkpt>
      <trkpt lat="44.49627" lon="-0.773">
        <ele>98.057904</ele>
        <time>2022-12-27T14:24:12.750Z</time>
      </trkpt>
      <trkpt lat="44.49622" lon="-0.77289">
        <ele>98.149134</ele>
        <time>2022-12-27T14:24:14.743Z</time>
      </trkpt>
      <trkpt lat="44.49616" lon="-0.77279">
        <ele>98.239774</ele>
        <time>2022-12-27T14:24:16.746Z</time>
      </trkpt>
      <trkpt lat="44.49609" lon="-0.77264">
        <ele>98.371725</ele>
        <time>2022-12-27T14:24:19.736Z</time>
      </trkpt>
      <trkpt lat="44.49601" lon="-0.77248">
        <ele>98.503665</ele>
        <time>2022-12-27T14:24:22.750Z</time>
      </trkpt>
      <trkpt lat="44.49593" lon="-0.77233">
        <ele>98.637325</ele>
        <time>2022-12-27T14:24:25.739Z</time>
      </trkpt>
      <trkpt lat="44.49585" lon="-0.77219">
        <ele>98.764171</ele>
        <time>2022-12-27T14:24:28.747Z</time>
      </trkpt>
      <trkpt lat="44.4958" lon="-0.77208">
        <ele>98.853662</ele>
        <time>2022-12-27T14:24:30.756Z</time>
      </trkpt>
      <trkpt lat="44.49575" lon="-0.77198">
        <ele>98.944299</ele>
        <time>2022-12-27T14:24:32.726Z</time>
      </trkpt>
      <trkpt lat="44.49567" lon="-0.77182">
        <ele>99.078028</ele>
        <time>2022-12-27T14:24:35.719Z</time>
      </trkpt>
      <trkpt lat="44.49562" lon="-0.77171">
        <ele>99.172163</ele>
        <time>2022-12-27T14:24:37.741Z</time>
      </trkpt>
      <trkpt lat="44.49557" lon="-0.77161">
        <ele>99.261229</ele>
        <time>2022-12-27T14:24:39.745Z</time>
      </trkpt>
      <trkpt lat="44.49551" lon="-0.7715">
        <ele>99.35302</ele>
        <time>2022-12-27T14:24:41.730Z</time>
      </trkpt>
      <trkpt lat="44.49546" lon="-0.77139">
        <ele>99.446531</ele>
        <time>2022-12-27T14:24:43.726Z</time>
      </trkpt>
      <trkpt lat="44.4954" lon="-0.77128">
        <ele>99.544495</ele>
        <time>2022-12-27T14:24:45.739Z</time>
      </trkpt>
      <trkpt lat="44.49534" lon="-0.77117">
        <ele>99.641448</ele>
        <time>2022-12-27T14:24:47.746Z</time>
      </trkpt>
      <trkpt lat="44.49529" lon="-0.77106">
        <ele>99.736155</ele>
        <time>2022-12-27T14:24:49.737Z</time>
      </trkpt>
      <trkpt lat="44.49521" lon="-0.77091">
        <ele>99.776337</ele>
        <time>2022-12-27T14:24:52.723Z</time>
      </trkpt>
      <trkpt lat="44.49514" lon="-0.77077">
        <ele>99.767107</ele>
        <time>2022-12-27T14:24:55.747Z</time>
      </trkpt>
      <trkpt lat="44.49507" lon="-0.77062">
        <ele>99.757614</ele>
        <time>2022-12-27T14:24:58.748Z</time>
      </trkpt>
      <trkpt lat="44.49502" lon="-0.77052">
        <ele>99.750735</ele>
        <time>2022-12-27T14:25:00.747Z</time>
      </trkpt>
      <trkpt lat="44.49496" lon="-0.77041">
        <ele>99.743638</ele>
        <time>2022-12-27T14:25:02.727Z</time>
      </trkpt>
      <trkpt lat="44.49491" lon="-0.7703">
        <ele>99.736584</ele>
        <time>2022-12-27T14:25:04.740Z</time>
      </trkpt>
      <trkpt lat="44.49485" lon="-0.7702">
        <ele>99.72953</ele>
        <time>2022-12-27T14:25:06.752Z</time>
      </trkpt>
      <trkpt lat="44.4948" lon="-0.77008">
        <ele>99.722122</ele>
        <time>2022-12-27T14:25:08.744Z</time>
      </trkpt>
      <trkpt lat="44.49474" lon="-0.76997">
        <ele>99.714676</ele>
        <time>2022-12-27T14:25:10.748Z</time>
      </trkpt>
      <trkpt lat="44.49468" lon="-0.76985">
        <ele>99.706883</ele>
        <time>2022-12-27T14:25:12.719Z</time>
      </trkpt>
      <trkpt lat="44.49462" lon="-0.76973">
        <ele>99.699176</ele>
        <time>2022-12-27T14:25:14.721Z</time>
      </trkpt>
      <trkpt lat="44.49456" lon="-0.76962">
        <ele>99.691514</ele>
        <time>2022-12-27T14:25:16.725Z</time>
      </trkpt>
      <trkpt lat="44.49449" lon="-0.76949">
        <ele>99.68337</ele>
        <time>2022-12-27T14:25:18.743Z</time>
      </trkpt>
      <trkpt lat="44.49443" lon="-0.76938">
        <ele>99.675792</ele>
        <time>2022-12-27T14:25:20.751Z</time>
      </trkpt>
      <trkpt lat="44.49437" lon="-0.76926">
        <ele>99.667997</ele>
        <time>2022-12-27T14:25:22.729Z</time>
      </trkpt>
      <trkpt lat="44.49432" lon="-0.76915">
        <ele>99.660725</ele>
        <time>2022-12-27T14:25:24.749Z</time>
      </trkpt>
      <trkpt lat="44.49425" lon="-0.76903">
        <ele>99.652409</ele>
        <time>2022-12-27T14:25:26.750Z</time>
      </trkpt>
      <trkpt lat="44.4942" lon="-0.76891">
        <ele>99.644753</ele>
        <time>2022-12-27T14:25:28.730Z</time>
      </trkpt>
      <trkpt lat="44.49414" lon="-0.7688">
        <ele>99.636125</ele>
        <time>2022-12-27T14:25:30.738Z</time>
      </trkpt>
      <trkpt lat="44.49408" lon="-0.76869">
        <ele>99.627693</ele>
        <time>2022-12-27T14:25:32.746Z</time>
      </trkpt>
      <trkpt lat="44.49402" lon="-0.76859">
        <ele>99.619915</ele>
        <time>2022-12-27T14:25:34.750Z</time>
      </trkpt>
      <trkpt lat="44.49395" lon="-0.76845">
        <ele>99.60923</ele>
        <time>2022-12-27T14:25:37.726Z</time>
      </trkpt>
      <trkpt lat="44.49389" lon="-0.76831">
        <ele>99.598992</ele>
        <time>2022-12-27T14:25:40.737Z</time>
      </trkpt>
      <trkpt lat="44.49383" lon="-0.76818">
        <ele>99.58951</ele>
        <time>2022-12-27T14:25:43.750Z</time>
      </trkpt>
      <trkpt lat="44.49376" lon="-0.76806">
        <ele>99.580133</ele>
        <time>2022-12-27T14:25:47.723Z</time>
      </trkpt>
      <trkpt lat="44.49368" lon="-0.76787">
        <ele>99.566259</ele>
        <time>2022-12-27T14:26:19.736Z</time>
      </trkpt>
      <trkpt lat="44.49362" lon="-0.76775">
        <ele>99.557432</ele>
        <time>2022-12-27T14:26:22.750Z</time>
      </trkpt>
      <trkpt lat="44.49355" lon="-0.76762">
        <ele>99.547245</ele>
        <time>2022-12-27T14:26:25.726Z</time>
      </trkpt>
      <trkpt lat="44.49348" lon="-0.76747">
        <ele>99.53646</ele>
        <time>2022-12-27T14:26:28.729Z</time>
      </trkpt>
      <trkpt lat="44.4934" lon="-0.76732">
        <ele>99.524926</ele>
        <time>2022-12-27T14:26:31.715Z</time>
      </trkpt>
      <trkpt lat="44.49332" lon="-0.76717">
        <ele>99.513438</ele>
        <time>2022-12-27T14:26:34.721Z</time>
      </trkpt>
      <trkpt lat="44.49326" lon="-0.76706">
        <ele>99.504812</ele>
        <time>2022-12-27T14:26:36.746Z</time>
      </trkpt>
      <trkpt lat="44.49321" lon="-0.76695">
        <ele>99.496537</ele>
        <time>2022-12-27T14:26:38.727Z</time>
      </trkpt>
      <trkpt lat="44.49314" lon="-0.76684">
        <ele>99.557046</ele>
        <time>2022-12-27T14:26:40.749Z</time>
      </trkpt>
      <trkpt lat="44.49309" lon="-0.76673">
        <ele>99.674678</ele>
        <time>2022-12-27T14:26:42.727Z</time>
      </trkpt>
      <trkpt lat="44.49303" lon="-0.76663">
        <ele>99.795995</ele>
        <time>2022-12-27T14:26:44.730Z</time>
      </trkpt>
      <trkpt lat="44.49297" lon="-0.76651">
        <ele>99.924644</ele>
        <time>2022-12-27T14:26:46.724Z</time>
      </trkpt>
      <trkpt lat="44.49291" lon="-0.76639">
        <ele>100.061381</ele>
        <time>2022-12-27T14:26:48.740Z</time>
      </trkpt>
      <trkpt lat="44.49285" lon="-0.76627">
        <ele>100.191518</ele>
        <time>2022-12-27T14:26:50.747Z</time>
      </trkpt>
      <trkpt lat="44.49278" lon="-0.76615">
        <ele>100.3285</ele>
        <time>2022-12-27T14:26:52.738Z</time>
      </trkpt>
      <trkpt lat="44.49273" lon="-0.76604">
        <ele>100.450013</ele>
        <time>2022-12-27T14:26:54.743Z</time>
      </trkpt>
      <trkpt lat="44.49267" lon="-0.76592">
        <ele>100.580135</ele>
        <time>2022-12-27T14:26:56.745Z</time>
      </trkpt>
      <trkpt lat="44.49261" lon="-0.7658">
        <ele>100.720549</ele>
        <time>2022-12-27T14:26:58.741Z</time>
      </trkpt>
      <trkpt lat="44.49255" lon="-0.76568">
        <ele>100.849236</ele>
        <time>2022-12-27T14:27:00.740Z</time>
      </trkpt>
      <trkpt lat="44.49248" lon="-0.76555">
        <ele>100.993395</ele>
        <time>2022-12-27T14:27:02.744Z</time>
      </trkpt>
      <trkpt lat="44.49242" lon="-0.76544">
        <ele>101.120593</ele>
        <time>2022-12-27T14:27:04.733Z</time>
      </trkpt>
      <trkpt lat="44.49236" lon="-0.76532">
        <ele>101.255221</ele>
        <time>2022-12-27T14:27:06.747Z</time>
      </trkpt>
      <trkpt lat="44.4923" lon="-0.7652">
        <ele>101.383872</ele>
        <time>2022-12-27T14:27:08.745Z</time>
      </trkpt>
      <trkpt lat="44.49224" lon="-0.76509">
        <ele>101.511856</ele>
        <time>2022-12-27T14:27:10.749Z</time>
      </trkpt>
      <trkpt lat="44.49218" lon="-0.76497">
        <ele>101.639037</ele>
        <time>2022-12-27T14:27:12.745Z</time>
      </trkpt>
      <trkpt lat="44.49211" lon="-0.76482">
        <ele>101.802797</ele>
        <time>2022-12-27T14:27:15.750Z</time>
      </trkpt>
      <trkpt lat="44.49203" lon="-0.76468">
        <ele>101.944731</ele>
        <time>2022-12-27T14:27:18.735Z</time>
      </trkpt>
      <trkpt lat="44.49197" lon="-0.76456">
        <ele>102.068514</ele>
        <time>2022-12-27T14:27:21.721Z</time>
      </trkpt>
      <trkpt lat="44.49189" lon="-0.76443">
        <ele>102.21184</ele>
        <time>2022-12-27T14:27:25.747Z</time>
      </trkpt>
      <trkpt lat="44.49184" lon="-0.7643">
        <ele>102.330235</ele>
        <time>2022-12-27T14:27:28.743Z</time>
      </trkpt>
      <trkpt lat="44.49177" lon="-0.76416">
        <ele>102.471474</ele>
        <time>2022-12-27T14:27:31.728Z</time>
      </trkpt>
      <trkpt lat="44.4917" lon="-0.76401">
        <ele>102.621455</ele>
        <time>2022-12-27T14:27:34.740Z</time>
      </trkpt>
      <trkpt lat="44.49162" lon="-0.76387">
        <ele>102.770133</ele>
        <time>2022-12-27T14:27:37.741Z</time>
      </trkpt>
      <trkpt lat="44.49157" lon="-0.76377">
        <ele>102.876426</ele>
        <time>2022-12-27T14:27:39.740Z</time>
      </trkpt>
      <trkpt lat="44.49151" lon="-0.76366">
        <ele>102.984045</ele>
        <time>2022-12-27T14:27:41.726Z</time>
      </trkpt>
      <trkpt lat="44.49146" lon="-0.76355">
        <ele>103.096379</ele>
        <time>2022-12-27T14:27:43.747Z</time>
      </trkpt>
      <trkpt lat="44.49138" lon="-0.76339">
        <ele>103.2531</ele>
        <time>2022-12-27T14:27:46.739Z</time>
      </trkpt>
      <trkpt lat="44.49133" lon="-0.76328">
        <ele>103.359631</ele>
        <time>2022-12-27T14:27:48.723Z</time>
      </trkpt>
      <trkpt lat="44.49127" lon="-0.76318">
        <ele>103.472146</ele>
        <time>2022-12-27T14:27:50.749Z</time>
      </trkpt>
      <trkpt lat="44.49122" lon="-0.76307">
        <ele>103.578916</ele>
        <time>2022-12-27T14:27:52.743Z</time>
      </trkpt>
      <trkpt lat="44.49115" lon="-0.76291">
        <ele>103.73513</ele>
        <time>2022-12-27T14:27:55.750Z</time>
      </trkpt>
      <trkpt lat="44.49109" lon="-0.76279">
        <ele>103.851397</ele>
        <time>2022-12-27T14:27:57.742Z</time>
      </trkpt>
      <trkpt lat="44.49104" lon="-0.76268">
        <ele>103.825543</ele>
        <time>2022-12-27T14:27:59.793Z</time>
      </trkpt>
      <trkpt lat="44.49096" lon="-0.76255">
        <ele>103.793116</ele>
        <time>2022-12-27T14:28:01.724Z</time>
      </trkpt>
      <trkpt lat="44.49091" lon="-0.76245">
        <ele>103.767726</ele>
        <time>2022-12-27T14:28:03.740Z</time>
      </trkpt>
      <trkpt lat="44.49084" lon="-0.76232">
        <ele>103.737203</ele>
        <time>2022-12-27T14:28:05.751Z</time>
      </trkpt>
      <trkpt lat="44.49079" lon="-0.76222">
        <ele>103.712272</ele>
        <time>2022-12-27T14:28:07.718Z</time>
      </trkpt>
      <trkpt lat="44.49073" lon="-0.7621">
        <ele>103.685153</ele>
        <time>2022-12-27T14:28:09.749Z</time>
      </trkpt>
      <trkpt lat="44.49068" lon="-0.76198">
        <ele>103.656545</ele>
        <time>2022-12-27T14:28:11.728Z</time>
      </trkpt>
      <trkpt lat="44.49063" lon="-0.76187">
        <ele>103.631819</ele>
        <time>2022-12-27T14:28:13.739Z</time>
      </trkpt>
      <trkpt lat="44.49057" lon="-0.76176">
        <ele>103.602948</ele>
        <time>2022-12-27T14:28:15.751Z</time>
      </trkpt>
      <trkpt lat="44.49052" lon="-0.76164">
        <ele>103.576251</ele>
        <time>2022-12-27T14:28:17.748Z</time>
      </trkpt>
      <trkpt lat="44.49045" lon="-0.76152">
        <ele>103.54624</ele>
        <time>2022-12-27T14:28:19.726Z</time>
      </trkpt>
      <trkpt lat="44.49038" lon="-0.76141">
        <ele>103.517425</ele>
        <time>2022-12-27T14:28:21.725Z</time>
      </trkpt>
      <trkpt lat="44.49032" lon="-0.76126">
        <ele>103.483373</ele>
        <time>2022-12-27T14:28:24.749Z</time>
      </trkpt>
      <trkpt lat="44.49024" lon="-0.76111">
        <ele>103.44732</ele>
        <time>2022-12-27T14:28:27.752Z</time>
      </trkpt>
      <trkpt lat="44.49017" lon="-0.76097">
        <ele>103.412867</ele>
        <time>2022-12-27T14:28:30.739Z</time>
      </trkpt>
      <trkpt lat="44.49008" lon="-0.76081">
        <ele>103.372792</ele>
        <time>2022-12-27T14:28:33.747Z</time>
      </trkpt>
      <trkpt lat="44.49002" lon="-0.7607">
        <ele>103.332484</ele>
        <time>2022-12-27T14:28:35.718Z</time>
      </trkpt>
      <trkpt lat="44.48996" lon="-0.76059">
        <ele>103.274672</ele>
        <time>2022-12-27T14:28:37.740Z</time>
      </trkpt>
      <trkpt lat="44.48991" lon="-0.76048">
        <ele>103.215451</ele>
        <time>2022-12-27T14:28:39.737Z</time>
      </trkpt>
      <trkpt lat="44.48985" lon="-0.76037">
        <ele>103.156571</ele>
        <time>2022-12-27T14:28:41.728Z</time>
      </trkpt>
      <trkpt lat="44.4898" lon="-0.76026">
        <ele>103.100534</ele>
        <time>2022-12-27T14:28:43.741Z</time>
      </trkpt>
      <trkpt lat="44.48974" lon="-0.76015">
        <ele>103.041955</ele>
        <time>2022-12-27T14:28:45.743Z</time>
      </trkpt>
      <trkpt lat="44.48967" lon="-0.76001">
        <ele>102.967239</ele>
        <time>2022-12-27T14:28:48.726Z</time>
      </trkpt>
      <trkpt lat="44.48959" lon="-0.75989">
        <ele>102.895085</ele>
        <time>2022-12-27T14:28:51.726Z</time>
      </trkpt>
      <trkpt lat="44.48953" lon="-0.75978">
        <ele>102.836229</ele>
        <time>2022-12-27T14:28:53.737Z</time>
      </trkpt>
      <trkpt lat="44.48948" lon="-0.75967">
        <ele>102.780519</ele>
        <time>2022-12-27T14:28:55.745Z</time>
      </trkpt>
      <trkpt lat="44.48942" lon="-0.75956">
        <ele>102.720954</ele>
        <time>2022-12-27T14:28:57.745Z</time>
      </trkpt>
      <trkpt lat="44.48937" lon="-0.75945">
        <ele>102.664545</ele>
        <time>2022-12-27T14:28:59.749Z</time>
      </trkpt>
      <trkpt lat="44.48931" lon="-0.75935">
        <ele>102.607442</ele>
        <time>2022-12-27T14:29:01.721Z</time>
      </trkpt>
      <trkpt lat="44.48926" lon="-0.75924">
        <ele>102.549258</ele>
        <time>2022-12-27T14:29:03.745Z</time>
      </trkpt>
      <trkpt lat="44.4892" lon="-0.75913">
        <ele>102.492164</ele>
        <time>2022-12-27T14:29:05.755Z</time>
      </trkpt>
      <trkpt lat="44.48915" lon="-0.75903">
        <ele>102.43565</ele>
        <time>2022-12-27T14:29:07.744Z</time>
      </trkpt>
      <trkpt lat="44.48909" lon="-0.75892">
        <ele>102.377128</ele>
        <time>2022-12-27T14:29:09.747Z</time>
      </trkpt>
      <trkpt lat="44.48904" lon="-0.75881">
        <ele>102.319327</ele>
        <time>2022-12-27T14:29:11.739Z</time>
      </trkpt>
      <trkpt lat="44.48898" lon="-0.75869">
        <ele>102.261619</ele>
        <time>2022-12-27T14:29:13.748Z</time>
      </trkpt>
      <trkpt lat="44.48892" lon="-0.75858">
        <ele>102.216788</ele>
        <time>2022-12-27T14:29:15.745Z</time>
      </trkpt>
      <trkpt lat="44.48886" lon="-0.75847">
        <ele>102.172444</ele>
        <time>2022-12-27T14:29:17.729Z</time>
      </trkpt>
      <trkpt lat="44.4888" lon="-0.75835">
        <ele>102.125533</ele>
        <time>2022-12-27T14:29:19.750Z</time>
      </trkpt>
      <trkpt lat="44.48874" lon="-0.75823">
        <ele>102.080161</ele>
        <time>2022-12-27T14:29:21.732Z</time>
      </trkpt>
      <trkpt lat="44.48868" lon="-0.75812">
        <ele>102.034805</ele>
        <time>2022-12-27T14:29:23.747Z</time>
      </trkpt>
      <trkpt lat="44.48863" lon="-0.75801">
        <ele>101.992515</ele>
        <time>2022-12-27T14:29:25.738Z</time>
      </trkpt>
      <trkpt lat="44.48857" lon="-0.75789">
        <ele>101.946912</ele>
        <time>2022-12-27T14:29:27.743Z</time>
      </trkpt>
      <trkpt lat="44.48851" lon="-0.75779">
        <ele>101.904869</ele>
        <time>2022-12-27T14:29:29.746Z</time>
      </trkpt>
      <trkpt lat="44.48845" lon="-0.75767">
        <ele>101.858991</ele>
        <time>2022-12-27T14:29:31.722Z</time>
      </trkpt>
      <trkpt lat="44.48838" lon="-0.75756">
        <ele>101.813566</ele>
        <time>2022-12-27T14:29:33.746Z</time>
      </trkpt>
      <trkpt lat="44.48833" lon="-0.75745">
        <ele>101.76948</ele>
        <time>2022-12-27T14:29:35.750Z</time>
      </trkpt>
      <trkpt lat="44.48828" lon="-0.75734">
        <ele>101.726718</ele>
        <time>2022-12-27T14:29:37.736Z</time>
      </trkpt>
      <trkpt lat="44.48822" lon="-0.75723">
        <ele>101.683947</ele>
        <time>2022-12-27T14:29:39.718Z</time>
      </trkpt>
      <trkpt lat="44.48815" lon="-0.75708">
        <ele>101.626931</ele>
        <time>2022-12-27T14:29:42.726Z</time>
      </trkpt>
      <trkpt lat="44.48808" lon="-0.75694">
        <ele>101.570956</ele>
        <time>2022-12-27T14:29:45.739Z</time>
      </trkpt>
      <trkpt lat="44.488" lon="-0.75679">
        <ele>101.514208</ele>
        <time>2022-12-27T14:29:48.748Z</time>
      </trkpt>
      <trkpt lat="44.48793" lon="-0.75663">
        <ele>101.454134</ele>
        <time>2022-12-27T14:29:51.720Z</time>
      </trkpt>
      <trkpt lat="44.48787" lon="-0.75653">
        <ele>101.41253</ele>
        <time>2022-12-27T14:29:53.737Z</time>
      </trkpt>
      <trkpt lat="44.48782" lon="-0.75642">
        <ele>101.370377</ele>
        <time>2022-12-27T14:29:55.727Z</time>
      </trkpt>
      <trkpt lat="44.48777" lon="-0.75632">
        <ele>101.329043</ele>
        <time>2022-12-27T14:29:57.737Z</time>
      </trkpt>
      <trkpt lat="44.48772" lon="-0.75621">
        <ele>101.286371</ele>
        <time>2022-12-27T14:29:59.744Z</time>
      </trkpt>
      <trkpt lat="44.48765" lon="-0.7561">
        <ele>101.24208</ele>
        <time>2022-12-27T14:30:01.722Z</time>
      </trkpt>
      <trkpt lat="44.4876" lon="-0.756">
        <ele>101.199695</ele>
        <time>2022-12-27T14:30:03.741Z</time>
      </trkpt>
      <trkpt lat="44.48754" lon="-0.75588">
        <ele>101.155459</ele>
        <time>2022-12-27T14:30:05.724Z</time>
      </trkpt>
      <trkpt lat="44.48748" lon="-0.75576">
        <ele>101.108336</ele>
        <time>2022-12-27T14:30:07.727Z</time>
      </trkpt>
      <trkpt lat="44.48743" lon="-0.75565">
        <ele>101.063057</ele>
        <time>2022-12-27T14:30:09.736Z</time>
      </trkpt>
      <trkpt lat="44.48737" lon="-0.75554">
        <ele>101.018564</ele>
        <time>2022-12-27T14:30:11.724Z</time>
      </trkpt>
      <trkpt lat="44.48731" lon="-0.75542">
        <ele>100.971959</ele>
        <time>2022-12-27T14:30:13.726Z</time>
      </trkpt>
      <trkpt lat="44.48725" lon="-0.75531">
        <ele>100.927994</ele>
        <time>2022-12-27T14:30:15.738Z</time>
      </trkpt>
      <trkpt lat="44.4872" lon="-0.7552">
        <ele>100.885338</ele>
        <time>2022-12-27T14:30:17.739Z</time>
      </trkpt>
      <trkpt lat="44.48714" lon="-0.75509">
        <ele>100.840316</ele>
        <time>2022-12-27T14:30:19.739Z</time>
      </trkpt>
      <trkpt lat="44.48708" lon="-0.75498">
        <ele>100.794764</ele>
        <time>2022-12-27T14:30:21.732Z</time>
      </trkpt>
      <trkpt lat="44.48702" lon="-0.75486">
        <ele>100.748681</ele>
        <time>2022-12-27T14:30:23.733Z</time>
      </trkpt>
      <trkpt lat="44.48697" lon="-0.75474">
        <ele>100.702851</ele>
        <time>2022-12-27T14:30:25.736Z</time>
      </trkpt>
      <trkpt lat="44.48691" lon="-0.75462">
        <ele>100.656513</ele>
        <time>2022-12-27T14:30:27.741Z</time>
      </trkpt>
      <trkpt lat="44.48685" lon="-0.7545">
        <ele>100.659606</ele>
        <time>2022-12-27T14:30:29.743Z</time>
      </trkpt>
      <trkpt lat="44.48679" lon="-0.75438">
        <ele>100.671672</ele>
        <time>2022-12-27T14:30:31.737Z</time>
      </trkpt>
      <trkpt lat="44.48673" lon="-0.75427">
        <ele>100.683536</ele>
        <time>2022-12-27T14:30:33.748Z</time>
      </trkpt>
      <trkpt lat="44.48667" lon="-0.75415">
        <ele>100.695398</ele>
        <time>2022-12-27T14:30:35.745Z</time>
      </trkpt>
      <trkpt lat="44.48661" lon="-0.75403">
        <ele>100.707462</ele>
        <time>2022-12-27T14:30:37.741Z</time>
      </trkpt>
      <trkpt lat="44.48655" lon="-0.75392">
        <ele>100.719199</ele>
        <time>2022-12-27T14:30:39.740Z</time>
      </trkpt>
      <trkpt lat="44.48649" lon="-0.75381">
        <ele>100.730654</ele>
        <time>2022-12-27T14:30:41.721Z</time>
      </trkpt>
      <trkpt lat="44.48643" lon="-0.75369">
        <ele>100.74265</ele>
        <time>2022-12-27T14:30:43.748Z</time>
      </trkpt>
      <trkpt lat="44.48637" lon="-0.75358">
        <ele>100.754309</ele>
        <time>2022-12-27T14:30:45.724Z</time>
      </trkpt>
      <trkpt lat="44.48632" lon="-0.75346">
        <ele>100.765836</ele>
        <time>2022-12-27T14:30:47.745Z</time>
      </trkpt>
      <trkpt lat="44.48626" lon="-0.75335">
        <ele>100.777631</ele>
        <time>2022-12-27T14:30:49.749Z</time>
      </trkpt>
      <trkpt lat="44.4862" lon="-0.75324">
        <ele>100.789226</ele>
        <time>2022-12-27T14:30:51.731Z</time>
      </trkpt>
      <trkpt lat="44.48614" lon="-0.75312">
        <ele>100.801157</ele>
        <time>2022-12-27T14:30:53.744Z</time>
      </trkpt>
      <trkpt lat="44.48608" lon="-0.75301">
        <ele>100.812679</ele>
        <time>2022-12-27T14:30:55.739Z</time>
      </trkpt>
      <trkpt lat="44.48602" lon="-0.7529">
        <ele>100.824066</ele>
        <time>2022-12-27T14:30:57.748Z</time>
      </trkpt>
      <trkpt lat="44.48596" lon="-0.75279">
        <ele>100.835194</ele>
        <time>2022-12-27T14:30:59.742Z</time>
      </trkpt>
      <trkpt lat="44.48591" lon="-0.75268">
        <ele>100.846187</ele>
        <time>2022-12-27T14:31:01.730Z</time>
      </trkpt>
      <trkpt lat="44.48586" lon="-0.75257">
        <ele>100.857642</ele>
        <time>2022-12-27T14:31:03.741Z</time>
      </trkpt>
      <trkpt lat="44.4858" lon="-0.75247">
        <ele>100.821212</ele>
        <time>2022-12-27T14:31:05.745Z</time>
      </trkpt>
      <trkpt lat="44.48574" lon="-0.75235">
        <ele>100.774954</ele>
        <time>2022-12-27T14:31:07.741Z</time>
      </trkpt>
      <trkpt lat="44.48568" lon="-0.75223">
        <ele>100.728163</ele>
        <time>2022-12-27T14:31:09.749Z</time>
      </trkpt>
      <trkpt lat="44.48562" lon="-0.75212">
        <ele>100.683413</ele>
        <time>2022-12-27T14:31:11.729Z</time>
      </trkpt>
      <trkpt lat="44.48556" lon="-0.752">
        <ele>100.638199</ele>
        <time>2022-12-27T14:31:13.746Z</time>
      </trkpt>
      <trkpt lat="44.48551" lon="-0.75189">
        <ele>100.59536</ele>
        <time>2022-12-27T14:31:15.741Z</time>
      </trkpt>
      <trkpt lat="44.48544" lon="-0.75175">
        <ele>100.53833</ele>
        <time>2022-12-27T14:31:18.762Z</time>
      </trkpt>
      <trkpt lat="44.48537" lon="-0.75162">
        <ele>100.483902</ele>
        <time>2022-12-27T14:31:21.722Z</time>
      </trkpt>
      <trkpt lat="44.4853" lon="-0.75149">
        <ele>100.434201</ele>
        <time>2022-12-27T14:31:24.729Z</time>
      </trkpt>
      <trkpt lat="44.48523" lon="-0.75136">
        <ele>100.381365</ele>
        <time>2022-12-27T14:31:27.754Z</time>
      </trkpt>
      <trkpt lat="44.48515" lon="-0.75122">
        <ele>100.322999</ele>
        <time>2022-12-27T14:31:30.747Z</time>
      </trkpt>
      <trkpt lat="44.48508" lon="-0.75106">
        <ele>100.262204</ele>
        <time>2022-12-27T14:31:33.748Z</time>
      </trkpt>
      <trkpt lat="44.48502" lon="-0.75095">
        <ele>100.2191</ele>
        <time>2022-12-27T14:31:35.742Z</time>
      </trkpt>
      <trkpt lat="44.48497" lon="-0.75085">
        <ele>100.177037</ele>
        <time>2022-12-27T14:31:37.747Z</time>
      </trkpt>
      <trkpt lat="44.48491" lon="-0.75074">
        <ele>100.13341</ele>
        <time>2022-12-27T14:31:39.750Z</time>
      </trkpt>
      <trkpt lat="44.48485" lon="-0.75062">
        <ele>100.08847</ele>
        <time>2022-12-27T14:31:41.725Z</time>
      </trkpt>
      <trkpt lat="44.4848" lon="-0.75051">
        <ele>100.045721</ele>
        <time>2022-12-27T14:31:43.750Z</time>
      </trkpt>
      <trkpt lat="44.48474" lon="-0.75039">
        <ele>100.064133</ele>
        <time>2022-12-27T14:31:45.750Z</time>
      </trkpt>
      <trkpt lat="44.48468" lon="-0.75027">
        <ele>100.083275</ele>
        <time>2022-12-27T14:31:47.735Z</time>
      </trkpt>
      <trkpt lat="44.48462" lon="-0.75015">
        <ele>100.102213</ele>
        <time>2022-12-27T14:31:49.737Z</time>
      </trkpt>
      <trkpt lat="44.48456" lon="-0.75003">
        <ele>100.121048</ele>
        <time>2022-12-27T14:31:51.739Z</time>
      </trkpt>
      <trkpt lat="44.4845" lon="-0.74991">
        <ele>100.139982</ele>
        <time>2022-12-27T14:31:53.745Z</time>
      </trkpt>
      <trkpt lat="44.48443" lon="-0.74978">
        <ele>100.160171</ele>
        <time>2022-12-27T14:31:55.745Z</time>
      </trkpt>
      <trkpt lat="44.48437" lon="-0.74966">
        <ele>100.179526</ele>
        <time>2022-12-27T14:31:57.749Z</time>
      </trkpt>
      <trkpt lat="44.48431" lon="-0.74954">
        <ele>100.198047</ele>
        <time>2022-12-27T14:31:59.725Z</time>
      </trkpt>
      <trkpt lat="44.48425" lon="-0.74942">
        <ele>100.217305</ele>
        <time>2022-12-27T14:32:01.739Z</time>
      </trkpt>
      <trkpt lat="44.48419" lon="-0.7493">
        <ele>100.236448</ele>
        <time>2022-12-27T14:32:03.736Z</time>
      </trkpt>
      <trkpt lat="44.48412" lon="-0.74917">
        <ele>100.25623</ele>
        <time>2022-12-27T14:32:05.749Z</time>
      </trkpt>
      <trkpt lat="44.48406" lon="-0.74906">
        <ele>100.274749</ele>
        <time>2022-12-27T14:32:07.733Z</time>
      </trkpt>
      <trkpt lat="44.484" lon="-0.74893">
        <ele>100.294208</ele>
        <time>2022-12-27T14:32:09.741Z</time>
      </trkpt>
      <trkpt lat="44.48394" lon="-0.7488">
        <ele>100.314088</ele>
        <time>2022-12-27T14:32:11.726Z</time>
      </trkpt>
      <trkpt lat="44.48388" lon="-0.74868">
        <ele>100.332916</ele>
        <time>2022-12-27T14:32:13.746Z</time>
      </trkpt>
      <trkpt lat="44.48382" lon="-0.74856">
        <ele>100.351747</ele>
        <time>2022-12-27T14:32:15.752Z</time>
      </trkpt>
      <trkpt lat="44.48375" lon="-0.74844">
        <ele>100.372386</ele>
        <time>2022-12-27T14:32:17.753Z</time>
      </trkpt>
      <trkpt lat="44.48369" lon="-0.74832">
        <ele>100.401635</ele>
        <time>2022-12-27T14:32:19.750Z</time>
      </trkpt>
      <trkpt lat="44.48363" lon="-0.74822">
        <ele>100.428152</ele>
        <time>2022-12-27T14:32:21.723Z</time>
      </trkpt>
      <trkpt lat="44.48358" lon="-0.74811">
        <ele>100.453362</ele>
        <time>2022-12-27T14:32:23.737Z</time>
      </trkpt>
      <trkpt lat="44.48353" lon="-0.74801">
        <ele>100.478426</ele>
        <time>2022-12-27T14:32:25.739Z</time>
      </trkpt>
      <trkpt lat="44.48347" lon="-0.74791">
        <ele>100.504284</ele>
        <time>2022-12-27T14:32:27.738Z</time>
      </trkpt>
      <trkpt lat="44.48342" lon="-0.7478">
        <ele>100.530142</ele>
        <time>2022-12-27T14:32:29.735Z</time>
      </trkpt>
      <trkpt lat="44.48336" lon="-0.7477">
        <ele>100.555681</ele>
        <time>2022-12-27T14:32:31.723Z</time>
      </trkpt>
      <trkpt lat="44.48331" lon="-0.74758">
        <ele>100.583176</ele>
        <time>2022-12-27T14:32:33.745Z</time>
      </trkpt>
      <trkpt lat="44.48325" lon="-0.74746">
        <ele>100.612587</ele>
        <time>2022-12-27T14:32:35.746Z</time>
      </trkpt>
      <trkpt lat="44.48319" lon="-0.74735">
        <ele>100.640867</ele>
        <time>2022-12-27T14:32:37.744Z</time>
      </trkpt>
      <trkpt lat="44.48313" lon="-0.74723">
        <ele>100.669798</ele>
        <time>2022-12-27T14:32:39.727Z</time>
      </trkpt>
      <trkpt lat="44.48306" lon="-0.74712">
        <ele>100.69811</ele>
        <time>2022-12-27T14:32:41.723Z</time>
      </trkpt>
      <trkpt lat="44.48301" lon="-0.747">
        <ele>100.726078</ele>
        <time>2022-12-27T14:32:43.737Z</time>
      </trkpt>
      <trkpt lat="44.48295" lon="-0.74688">
        <ele>100.755181</ele>
        <time>2022-12-27T14:32:45.739Z</time>
      </trkpt>
      <trkpt lat="44.48289" lon="-0.74676">
        <ele>100.784268</ele>
        <time>2022-12-27T14:32:47.744Z</time>
      </trkpt>
      <trkpt lat="44.48283" lon="-0.74664">
        <ele>100.813691</ele>
        <time>2022-12-27T14:32:49.746Z</time>
      </trkpt>
      <trkpt lat="44.48276" lon="-0.74652">
        <ele>100.843248</ele>
        <time>2022-12-27T14:32:51.728Z</time>
      </trkpt>
      <trkpt lat="44.4827" lon="-0.74641">
        <ele>100.866084</ele>
        <time>2022-12-27T14:32:53.746Z</time>
      </trkpt>
      <trkpt lat="44.48264" lon="-0.74628">
        <ele>100.815143</ele>
        <time>2022-12-27T14:32:55.743Z</time>
      </trkpt>
      <trkpt lat="44.48258" lon="-0.74616">
        <ele>100.765505</ele>
        <time>2022-12-27T14:32:57.741Z</time>
      </trkpt>
      <trkpt lat="44.48252" lon="-0.74604">
        <ele>100.718304</ele>
        <time>2022-12-27T14:32:59.743Z</time>
      </trkpt>
      <trkpt lat="44.48246" lon="-0.74592">
        <ele>100.670602</ele>
        <time>2022-12-27T14:33:01.738Z</time>
      </trkpt>
      <trkpt lat="44.4824" lon="-0.7458">
        <ele>100.623704</ele>
        <time>2022-12-27T14:33:03.725Z</time>
      </trkpt>
      <trkpt lat="44.48234" lon="-0.74569">
        <ele>100.576808</ele>
        <time>2022-12-27T14:33:05.744Z</time>
      </trkpt>
      <trkpt lat="44.48228" lon="-0.74557">
        <ele>100.52884</ele>
        <time>2022-12-27T14:33:07.742Z</time>
      </trkpt>
      <trkpt lat="44.48222" lon="-0.74545">
        <ele>100.480872</ele>
        <time>2022-12-27T14:33:09.748Z</time>
      </trkpt>
      <trkpt lat="44.48216" lon="-0.74533">
        <ele>100.431553</ele>
        <time>2022-12-27T14:33:11.722Z</time>
      </trkpt>
      <trkpt lat="44.48209" lon="-0.74521">
        <ele>100.381977</ele>
        <time>2022-12-27T14:33:13.749Z</time>
      </trkpt>
      <trkpt lat="44.48204" lon="-0.74509">
        <ele>100.333718</ele>
        <time>2022-12-27T14:33:15.744Z</time>
      </trkpt>
      <trkpt lat="44.48198" lon="-0.74497">
        <ele>100.287358</ele>
        <time>2022-12-27T14:33:17.740Z</time>
      </trkpt>
      <trkpt lat="44.48192" lon="-0.74487">
        <ele>100.244448</ele>
        <time>2022-12-27T14:33:19.745Z</time>
      </trkpt>
      <trkpt lat="44.48186" lon="-0.74477">
        <ele>100.202081</ele>
        <time>2022-12-27T14:33:21.725Z</time>
      </trkpt>
      <trkpt lat="44.48181" lon="-0.74466">
        <ele>100.159201</ele>
        <time>2022-12-27T14:33:23.740Z</time>
      </trkpt>
      <trkpt lat="44.48176" lon="-0.74455">
        <ele>100.114449</ele>
        <time>2022-12-27T14:33:25.725Z</time>
      </trkpt>
      <trkpt lat="44.4817" lon="-0.74444">
        <ele>100.068344</ele>
        <time>2022-12-27T14:33:27.747Z</time>
      </trkpt>
      <trkpt lat="44.48164" lon="-0.74432">
        <ele>100.044244</ele>
        <time>2022-12-27T14:33:29.720Z</time>
      </trkpt>
      <trkpt lat="44.48158" lon="-0.7442">
        <ele>100.056334</ele>
        <time>2022-12-27T14:33:31.724Z</time>
      </trkpt>
      <trkpt lat="44.48152" lon="-0.74408">
        <ele>100.0691</ele>
        <time>2022-12-27T14:33:33.737Z</time>
      </trkpt>
      <trkpt lat="44.48145" lon="-0.74396">
        <ele>100.081674</ele>
        <time>2022-12-27T14:33:35.745Z</time>
      </trkpt>
      <trkpt lat="44.48139" lon="-0.74384">
        <ele>100.093965</ele>
        <time>2022-12-27T14:33:37.745Z</time>
      </trkpt>
      <trkpt lat="44.48132" lon="-0.74371">
        <ele>100.107141</ele>
        <time>2022-12-27T14:33:39.721Z</time>
      </trkpt>
      <trkpt lat="44.48126" lon="-0.74358">
        <ele>100.120317</ele>
        <time>2022-12-27T14:33:41.721Z</time>
      </trkpt>
      <trkpt lat="44.48119" lon="-0.74346">
        <ele>100.133361</ele>
        <time>2022-12-27T14:33:43.738Z</time>
      </trkpt>
      <trkpt lat="44.48113" lon="-0.74334">
        <ele>100.146128</ele>
        <time>2022-12-27T14:33:45.750Z</time>
      </trkpt>
      <trkpt lat="44.48106" lon="-0.74321">
        <ele>100.159235</ele>
        <time>2022-12-27T14:33:47.746Z</time>
      </trkpt>
      <trkpt lat="44.48101" lon="-0.74309">
        <ele>100.171665</ele>
        <time>2022-12-27T14:33:49.750Z</time>
      </trkpt>
      <trkpt lat="44.48094" lon="-0.74296">
        <ele>100.184434</ele>
        <time>2022-12-27T14:33:51.747Z</time>
      </trkpt>
      <trkpt lat="44.48087" lon="-0.74283">
        <ele>100.197952</ele>
        <time>2022-12-27T14:33:53.721Z</time>
      </trkpt>
      <trkpt lat="44.48081" lon="-0.74271">
        <ele>100.211061</ele>
        <time>2022-12-27T14:33:55.749Z</time>
      </trkpt>
      <trkpt lat="44.48075" lon="-0.74258">
        <ele>100.22349</ele>
        <time>2022-12-27T14:33:57.728Z</time>
      </trkpt>
      <trkpt lat="44.48069" lon="-0.74247">
        <ele>100.234893</ele>
        <time>2022-12-27T14:33:59.726Z</time>
      </trkpt>
      <trkpt lat="44.48063" lon="-0.74236">
        <ele>100.246518</ele>
        <time>2022-12-27T14:34:01.723Z</time>
      </trkpt>
      <trkpt lat="44.48058" lon="-0.74226">
        <ele>100.271273</ele>
        <time>2022-12-27T14:34:03.734Z</time>
      </trkpt>
      <trkpt lat="44.48051" lon="-0.74213">
        <ele>100.314651</ele>
        <time>2022-12-27T14:34:06.746Z</time>
      </trkpt>
      <trkpt lat="44.48045" lon="-0.74199">
        <ele>100.357596</ele>
        <time>2022-12-27T14:34:10.753Z</time>
      </trkpt>
      <trkpt lat="44.4804" lon="-0.74189">
        <ele>100.393276</ele>
        <time>2022-12-27T14:34:13.737Z</time>
      </trkpt>
      <trkpt lat="44.48033" lon="-0.74176">
        <ele>100.436216</ele>
        <time>2022-12-27T14:34:16.739Z</time>
      </trkpt>
      <trkpt lat="44.48026" lon="-0.74162">
        <ele>100.482497</ele>
        <time>2022-12-27T14:34:19.752Z</time>
      </trkpt>
      <trkpt lat="44.48018" lon="-0.74148">
        <ele>100.530504</ele>
        <time>2022-12-27T14:34:22.743Z</time>
      </trkpt>
      <trkpt lat="44.48013" lon="-0.74137">
        <ele>100.567277</ele>
        <time>2022-12-27T14:34:24.746Z</time>
      </trkpt>
      <trkpt lat="44.48007" lon="-0.74126">
        <ele>100.604493</ele>
        <time>2022-12-27T14:34:26.733Z</time>
      </trkpt>
      <trkpt lat="44.47999" lon="-0.7411">
        <ele>100.656238</ele>
        <time>2022-12-27T14:34:29.747Z</time>
      </trkpt>
      <trkpt lat="44.47993" lon="-0.74099">
        <ele>100.694122</ele>
        <time>2022-12-27T14:34:31.722Z</time>
      </trkpt>
      <trkpt lat="44.47988" lon="-0.74087">
        <ele>100.731012</ele>
        <time>2022-12-27T14:34:33.736Z</time>
      </trkpt>
      <trkpt lat="44.47982" lon="-0.74076">
        <ele>100.766904</ele>
        <time>2022-12-27T14:34:35.736Z</time>
      </trkpt>
      <trkpt lat="44.47977" lon="-0.74066">
        <ele>100.802422</ele>
        <time>2022-12-27T14:34:40.746Z</time>
      </trkpt>
      <trkpt lat="44.47971" lon="-0.74054">
        <ele>100.842725</ele>
        <time>2022-12-27T14:34:58.730Z</time>
      </trkpt>
      <trkpt lat="44.47965" lon="-0.74042">
        <ele>100.881919</ele>
        <time>2022-12-27T14:35:02.731Z</time>
      </trkpt>
      <trkpt lat="44.47958" lon="-0.74032">
        <ele>100.919821</ele>
        <time>2022-12-27T14:35:05.750Z</time>
      </trkpt>
      <trkpt lat="44.47952" lon="-0.74018">
        <ele>100.993192</ele>
        <time>2022-12-27T14:35:08.751Z</time>
      </trkpt>
      <trkpt lat="44.47945" lon="-0.74004">
        <ele>101.086753</ele>
        <time>2022-12-27T14:35:11.722Z</time>
      </trkpt>
      <trkpt lat="44.47938" lon="-0.7399">
        <ele>101.183434</ele>
        <time>2022-12-27T14:35:14.745Z</time>
      </trkpt>
      <trkpt lat="44.47932" lon="-0.73977">
        <ele>101.275142</ele>
        <time>2022-12-27T14:35:17.743Z</time>
      </trkpt>
      <trkpt lat="44.47923" lon="-0.73962">
        <ele>101.381947</ele>
        <time>2022-12-27T14:35:20.746Z</time>
      </trkpt>
      <trkpt lat="44.47917" lon="-0.73947">
        <ele>101.477083</ele>
        <time>2022-12-27T14:35:23.740Z</time>
      </trkpt>
      <trkpt lat="44.4791" lon="-0.73936">
        <ele>101.556604</ele>
        <time>2022-12-27T14:35:25.739Z</time>
      </trkpt>
      <trkpt lat="44.47905" lon="-0.73925">
        <ele>101.626967</ele>
        <time>2022-12-27T14:35:27.745Z</time>
      </trkpt>
      <trkpt lat="44.47899" lon="-0.73914">
        <ele>101.704647</ele>
        <time>2022-12-27T14:35:29.742Z</time>
      </trkpt>
      <trkpt lat="44.47894" lon="-0.73903">
        <ele>101.781921</ele>
        <time>2022-12-27T14:35:31.727Z</time>
      </trkpt>
      <trkpt lat="44.47888" lon="-0.73891">
        <ele>101.858653</ele>
        <time>2022-12-27T14:35:33.745Z</time>
      </trkpt>
      <trkpt lat="44.47882" lon="-0.73879">
        <ele>101.942623</ele>
        <time>2022-12-27T14:35:35.738Z</time>
      </trkpt>
      <trkpt lat="44.47877" lon="-0.73867">
        <ele>102.021463</ele>
        <time>2022-12-27T14:35:37.727Z</time>
      </trkpt>
      <trkpt lat="44.47872" lon="-0.73856">
        <ele>102.094558</ele>
        <time>2022-12-27T14:35:39.722Z</time>
      </trkpt>
      <trkpt lat="44.47865" lon="-0.73845">
        <ele>102.174906</ele>
        <time>2022-12-27T14:35:41.733Z</time>
      </trkpt>
      <trkpt lat="44.47859" lon="-0.73834">
        <ele>102.252586</ele>
        <time>2022-12-27T14:35:43.741Z</time>
      </trkpt>
      <trkpt lat="44.47853" lon="-0.73821">
        <ele>102.334764</ele>
        <time>2022-12-27T14:35:45.750Z</time>
      </trkpt>
      <trkpt lat="44.47848" lon="-0.7381">
        <ele>102.25633</ele>
        <time>2022-12-27T14:35:47.742Z</time>
      </trkpt>
      <trkpt lat="44.47841" lon="-0.73797">
        <ele>102.163699</ele>
        <time>2022-12-27T14:35:49.727Z</time>
      </trkpt>
      <trkpt lat="44.47836" lon="-0.73785">
        <ele>102.071905</ele>
        <time>2022-12-27T14:35:51.722Z</time>
      </trkpt>
      <trkpt lat="44.4783" lon="-0.73772">
        <ele>101.978223</ele>
        <time>2022-12-27T14:35:53.742Z</time>
      </trkpt>
      <trkpt lat="44.47825" lon="-0.73759">
        <ele>101.889314</ele>
        <time>2022-12-27T14:35:55.740Z</time>
      </trkpt>
      <trkpt lat="44.47819" lon="-0.73746">
        <ele>101.798224</ele>
        <time>2022-12-27T14:35:57.744Z</time>
      </trkpt>
      <trkpt lat="44.47814" lon="-0.73733">
        <ele>101.706277</ele>
        <time>2022-12-27T14:35:59.738Z</time>
      </trkpt>
      <trkpt lat="44.47809" lon="-0.7372">
        <ele>101.615287</ele>
        <time>2022-12-27T14:36:01.728Z</time>
      </trkpt>
      <trkpt lat="44.47803" lon="-0.73708">
        <ele>101.526907</ele>
        <time>2022-12-27T14:36:03.742Z</time>
      </trkpt>
      <trkpt lat="44.47798" lon="-0.73694">
        <ele>101.43243</ele>
        <time>2022-12-27T14:36:05.750Z</time>
      </trkpt>
      <trkpt lat="44.47794" lon="-0.73681">
        <ele>101.34406</ele>
        <time>2022-12-27T14:36:07.728Z</time>
      </trkpt>
      <trkpt lat="44.47789" lon="-0.73668">
        <ele>101.255939</ele>
        <time>2022-12-27T14:36:09.722Z</time>
      </trkpt>
      <trkpt lat="44.47785" lon="-0.73654">
        <ele>101.164995</ele>
        <time>2022-12-27T14:36:11.721Z</time>
      </trkpt>
      <trkpt lat="44.4778" lon="-0.7364">
        <ele>101.072513</ele>
        <time>2022-12-27T14:36:13.746Z</time>
      </trkpt>
      <trkpt lat="44.47776" lon="-0.73627">
        <ele>100.985139</ele>
        <time>2022-12-27T14:36:15.721Z</time>
      </trkpt>
      <trkpt lat="44.47772" lon="-0.73614">
        <ele>100.899066</ele>
        <time>2022-12-27T14:36:17.748Z</time>
      </trkpt>
      <trkpt lat="44.47768" lon="-0.73601">
        <ele>100.808446</ele>
        <time>2022-12-27T14:36:19.739Z</time>
      </trkpt>
      <trkpt lat="44.47764" lon="-0.73588">
        <ele>100.786285</ele>
        <time>2022-12-27T14:36:21.748Z</time>
      </trkpt>
      <trkpt lat="44.4776" lon="-0.73574">
        <ele>100.766064</ele>
        <time>2022-12-27T14:36:23.738Z</time>
      </trkpt>
      <trkpt lat="44.47756" lon="-0.7356">
        <ele>100.745686</ele>
        <time>2022-12-27T14:36:25.735Z</time>
      </trkpt>
      <trkpt lat="44.47752" lon="-0.73547">
        <ele>100.725977</ele>
        <time>2022-12-27T14:36:27.720Z</time>
      </trkpt>
      <trkpt lat="44.47749" lon="-0.73533">
        <ele>100.706081</ele>
        <time>2022-12-27T14:36:29.743Z</time>
      </trkpt>
      <trkpt lat="44.47746" lon="-0.7352">
        <ele>100.686889</ele>
        <time>2022-12-27T14:36:31.726Z</time>
      </trkpt>
      <trkpt lat="44.47743" lon="-0.73507">
        <ele>100.669082</ele>
        <time>2022-12-27T14:36:33.743Z</time>
      </trkpt>
      <trkpt lat="44.4774" lon="-0.73495">
        <ele>100.650801</ele>
        <time>2022-12-27T14:36:35.736Z</time>
      </trkpt>
      <trkpt lat="44.47737" lon="-0.73481">
        <ele>100.631385</ele>
        <time>2022-12-27T14:36:37.750Z</time>
      </trkpt>
      <trkpt lat="44.47734" lon="-0.73468">
        <ele>100.612974</ele>
        <time>2022-12-27T14:36:39.749Z</time>
      </trkpt>
      <trkpt lat="44.47732" lon="-0.73455">
        <ele>100.594021</ele>
        <time>2022-12-27T14:36:41.746Z</time>
      </trkpt>
      <trkpt lat="44.47729" lon="-0.73441">
        <ele>100.574492</ele>
        <time>2022-12-27T14:36:43.743Z</time>
      </trkpt>
      <trkpt lat="44.47726" lon="-0.73428">
        <ele>100.554979</ele>
        <time>2022-12-27T14:36:45.730Z</time>
      </trkpt>
      <trkpt lat="44.47724" lon="-0.73415">
        <ele>100.536671</ele>
        <time>2022-12-27T14:36:47.730Z</time>
      </trkpt>
      <trkpt lat="44.47722" lon="-0.73402">
        <ele>100.519006</ele>
        <time>2022-12-27T14:36:49.746Z</time>
      </trkpt>
      <trkpt lat="44.4772" lon="-0.73389">
        <ele>100.500899</ele>
        <time>2022-12-27T14:36:51.747Z</time>
      </trkpt>
      <trkpt lat="44.47718" lon="-0.73376">
        <ele>100.48212</ele>
        <time>2022-12-27T14:36:53.749Z</time>
      </trkpt>
      <trkpt lat="44.47716" lon="-0.73363">
        <ele>100.464187</ele>
        <time>2022-12-27T14:36:55.747Z</time>
      </trkpt>
      <trkpt lat="44.47714" lon="-0.73347">
        <ele>100.692748</ele>
        <time>2022-12-27T14:36:58.747Z</time>
      </trkpt>
      <trkpt lat="44.47711" lon="-0.73332">
        <ele>100.972646</ele>
        <time>2022-12-27T14:37:01.731Z</time>
      </trkpt>
      <trkpt lat="44.4771" lon="-0.73318">
        <ele>101.221154</ele>
        <time>2022-12-27T14:37:04.764Z</time>
      </trkpt>
      <trkpt lat="44.47708" lon="-0.73305">
        <ele>101.461277</ele>
        <time>2022-12-27T14:37:07.747Z</time>
      </trkpt>
      <trkpt lat="44.47707" lon="-0.73292">
        <ele>101.705371</ele>
        <time>2022-12-27T14:37:10.741Z</time>
      </trkpt>
      <trkpt lat="44.47706" lon="-0.73278">
        <ele>101.95419</ele>
        <time>2022-12-27T14:37:13.750Z</time>
      </trkpt>
      <trkpt lat="44.47705" lon="-0.73262">
        <ele>102.239541</ele>
        <time>2022-12-27T14:37:16.749Z</time>
      </trkpt>
      <trkpt lat="44.47704" lon="-0.73245">
        <ele>102.553657</ele>
        <time>2022-12-27T14:37:19.749Z</time>
      </trkpt>
      <trkpt lat="44.47703" lon="-0.73227">
        <ele>102.879823</ele>
        <time>2022-12-27T14:37:22.750Z</time>
      </trkpt>
      <trkpt lat="44.47702" lon="-0.73209">
        <ele>103.215804</ele>
        <time>2022-12-27T14:37:25.737Z</time>
      </trkpt>
      <trkpt lat="44.47701" lon="-0.73196">
        <ele>103.447426</ele>
        <time>2022-12-27T14:37:27.750Z</time>
      </trkpt>
      <trkpt lat="44.477" lon="-0.73178">
        <ele>103.781066</ele>
        <time>2022-12-27T14:37:30.749Z</time>
      </trkpt>
      <trkpt lat="44.47701" lon="-0.7316">
        <ele>104.092876</ele>
        <time>2022-12-27T14:37:33.726Z</time>
      </trkpt>
      <trkpt lat="44.477" lon="-0.73143">
        <ele>104.410937</ele>
        <time>2022-12-27T14:37:36.743Z</time>
      </trkpt>
      <trkpt lat="44.47699" lon="-0.73125">
        <ele>104.740034</ele>
        <time>2022-12-27T14:37:39.732Z</time>
      </trkpt>
      <trkpt lat="44.47698" lon="-0.73108">
        <ele>105.044924</ele>
        <time>2022-12-27T14:37:42.743Z</time>
      </trkpt>
      <trkpt lat="44.47697" lon="-0.73094">
        <ele>105.246797</ele>
        <time>2022-12-27T14:37:44.746Z</time>
      </trkpt>
      <trkpt lat="44.47698" lon="-0.73075">
        <ele>105.531074</ele>
        <time>2022-12-27T14:37:47.751Z</time>
      </trkpt>
      <trkpt lat="44.47698" lon="-0.73056">
        <ele>105.81395</ele>
        <time>2022-12-27T14:37:50.746Z</time>
      </trkpt>
      <trkpt lat="44.47701" lon="-0.73039">
        <ele>106.081924</ele>
        <time>2022-12-27T14:37:53.746Z</time>
      </trkpt>
      <trkpt lat="44.47701" lon="-0.73025">
        <ele>106.276768</ele>
        <time>2022-12-27T14:37:55.743Z</time>
      </trkpt>
      <trkpt lat="44.477" lon="-0.73012">
        <ele>106.476173</ele>
        <time>2022-12-27T14:37:57.746Z</time>
      </trkpt>
      <trkpt lat="44.47703" lon="-0.72994">
        <ele>106.748532</ele>
        <time>2022-12-27T14:38:00.753Z</time>
      </trkpt>
      <trkpt lat="44.47704" lon="-0.72981">
        <ele>106.937889</ele>
        <time>2022-12-27T14:38:02.752Z</time>
      </trkpt>
      <trkpt lat="44.47706" lon="-0.72965">
        <ele>107.180956</ele>
        <time>2022-12-27T14:38:05.749Z</time>
      </trkpt>
      <trkpt lat="44.47709" lon="-0.7295">
        <ele>107.411514</ele>
        <time>2022-12-27T14:38:08.751Z</time>
      </trkpt>
      <trkpt lat="44.47711" lon="-0.72934">
        <ele>107.66522</ele>
        <time>2022-12-27T14:38:11.728Z</time>
      </trkpt>
      <trkpt lat="44.47711" lon="-0.72917">
        <ele>107.913644</ele>
        <time>2022-12-27T14:38:14.750Z</time>
      </trkpt>
      <trkpt lat="44.47712" lon="-0.72899">
        <ele>108.178599</ele>
        <time>2022-12-27T14:38:17.751Z</time>
      </trkpt>
      <trkpt lat="44.47711" lon="-0.72886">
        <ele>108.369027</ele>
        <time>2022-12-27T14:38:19.752Z</time>
      </trkpt>
      <trkpt lat="44.47712" lon="-0.72869">
        <ele>108.627183</ele>
        <time>2022-12-27T14:38:22.742Z</time>
      </trkpt>
      <trkpt lat="44.47715" lon="-0.72851">
        <ele>108.672906</ele>
        <time>2022-12-27T14:38:25.743Z</time>
      </trkpt>
      <trkpt lat="44.47717" lon="-0.72838">
        <ele>108.517135</ele>
        <time>2022-12-27T14:38:27.723Z</time>
      </trkpt>
      <trkpt lat="44.4772" lon="-0.72821">
        <ele>108.294298</ele>
        <time>2022-12-27T14:38:30.722Z</time>
      </trkpt>
      <trkpt lat="44.47722" lon="-0.72808">
        <ele>108.133854</ele>
        <time>2022-12-27T14:38:32.748Z</time>
      </trkpt>
      <trkpt lat="44.47724" lon="-0.72791">
        <ele>107.917417</ele>
        <time>2022-12-27T14:38:35.721Z</time>
      </trkpt>
      <trkpt lat="44.47728" lon="-0.72776">
        <ele>107.719206</ele>
        <time>2022-12-27T14:38:38.740Z</time>
      </trkpt>
      <trkpt lat="44.47731" lon="-0.7276">
        <ele>107.522169</ele>
        <time>2022-12-27T14:38:41.743Z</time>
      </trkpt>
      <trkpt lat="44.47735" lon="-0.72747">
        <ele>107.343637</ele>
        <time>2022-12-27T14:38:44.750Z</time>
      </trkpt>
      <trkpt lat="44.47739" lon="-0.72731">
        <ele>107.140722</ele>
        <time>2022-12-27T14:38:48.753Z</time>
      </trkpt>
      <trkpt lat="44.47742" lon="-0.72717">
        <ele>106.956487</ele>
        <time>2022-12-27T14:38:52.748Z</time>
      </trkpt>
      <trkpt lat="44.47745" lon="-0.72702">
        <ele>106.764056</ele>
        <time>2022-12-27T14:38:56.751Z</time>
      </trkpt>
      <trkpt lat="44.47748" lon="-0.7269">
        <ele>106.602546</ele>
        <time>2022-12-27T14:38:59.747Z</time>
      </trkpt>
      <trkpt lat="44.4775" lon="-0.72676">
        <ele>106.424492</ele>
        <time>2022-12-27T14:39:02.747Z</time>
      </trkpt>
      <trkpt lat="44.47754" lon="-0.72659">
        <ele>106.214119</ele>
        <time>2022-12-27T14:39:05.747Z</time>
      </trkpt>
      <trkpt lat="44.47757" lon="-0.72643">
        <ele>106.008398</ele>
        <time>2022-12-27T14:39:08.750Z</time>
      </trkpt>
      <trkpt lat="44.47761" lon="-0.72627">
        <ele>105.793183</ele>
        <time>2022-12-27T14:39:11.751Z</time>
      </trkpt>
      <trkpt lat="44.47763" lon="-0.7261">
        <ele>105.740723</ele>
        <time>2022-12-27T14:39:14.754Z</time>
      </trkpt>
      <trkpt lat="44.47768" lon="-0.72594">
        <ele>105.914337</ele>
        <time>2022-12-27T14:39:17.720Z</time>
      </trkpt>
      <trkpt lat="44.47772" lon="-0.72577">
        <ele>106.090222</ele>
        <time>2022-12-27T14:39:20.750Z</time>
      </trkpt>
      <trkpt lat="44.47776" lon="-0.72561">
        <ele>106.267975</ele>
        <time>2022-12-27T14:39:23.752Z</time>
      </trkpt>
      <trkpt lat="44.47779" lon="-0.72544">
        <ele>106.437695</ele>
        <time>2022-12-27T14:39:26.751Z</time>
      </trkpt>
      <trkpt lat="44.47782" lon="-0.72528">
        <ele>106.610118</ele>
        <time>2022-12-27T14:39:29.742Z</time>
      </trkpt>
      <trkpt lat="44.47786" lon="-0.72511">
        <ele>106.787489</ele>
        <time>2022-12-27T14:39:32.744Z</time>
      </trkpt>
      <trkpt lat="44.47789" lon="-0.72495">
        <ele>106.964586</ele>
        <time>2022-12-27T14:39:35.721Z</time>
      </trkpt>
      <trkpt lat="44.47793" lon="-0.72478">
        <ele>107.139179</ele>
        <time>2022-12-27T14:39:38.748Z</time>
      </trkpt>
      <trkpt lat="44.47796" lon="-0.72461">
        <ele>107.312811</ele>
        <time>2022-12-27T14:39:41.724Z</time>
      </trkpt>
      <trkpt lat="44.47799" lon="-0.72445">
        <ele>107.485234</ele>
        <time>2022-12-27T14:39:44.741Z</time>
      </trkpt>
      <trkpt lat="44.47802" lon="-0.72429">
        <ele>107.655222</ele>
        <time>2022-12-27T14:39:47.722Z</time>
      </trkpt>
      <trkpt lat="44.47805" lon="-0.72412">
        <ele>107.825918</ele>
        <time>2022-12-27T14:39:50.722Z</time>
      </trkpt>
      <trkpt lat="44.47809" lon="-0.72396">
        <ele>108.000102</ele>
        <time>2022-12-27T14:39:53.727Z</time>
      </trkpt>
      <trkpt lat="44.47811" lon="-0.72379">
        <ele>108.170786</ele>
        <time>2022-12-27T14:39:56.744Z</time>
      </trkpt>
      <trkpt lat="44.47815" lon="-0.72364">
        <ele>108.287181</ele>
        <time>2022-12-27T14:39:59.730Z</time>
      </trkpt>
      <trkpt lat="44.4782" lon="-0.72342">
        <ele>108.418598</ele>
        <time>2022-12-27T14:40:03.749Z</time>
      </trkpt>
      <trkpt lat="44.47823" lon="-0.72326">
        <ele>108.514763</ele>
        <time>2022-12-27T14:40:06.733Z</time>
      </trkpt>
      <trkpt lat="44.47827" lon="-0.72309">
        <ele>108.614152</ele>
        <time>2022-12-27T14:40:09.731Z</time>
      </trkpt>
      <trkpt lat="44.4783" lon="-0.72292">
        <ele>108.71598</ele>
        <time>2022-12-27T14:40:12.743Z</time>
      </trkpt>
      <trkpt lat="44.47834" lon="-0.72276">
        <ele>108.815798</ele>
        <time>2022-12-27T14:40:15.735Z</time>
      </trkpt>
      <trkpt lat="44.47837" lon="-0.72259">
        <ele>108.914726</ele>
        <time>2022-12-27T14:40:18.726Z</time>
      </trkpt>
      <trkpt lat="44.4784" lon="-0.72243">
        <ele>109.013219</ele>
        <time>2022-12-27T14:40:21.718Z</time>
      </trkpt>
      <trkpt lat="44.47843" lon="-0.72228">
        <ele>109.100645</ele>
        <time>2022-12-27T14:40:24.731Z</time>
      </trkpt>
      <trkpt lat="44.47846" lon="-0.72214">
        <ele>109.182093</ele>
        <time>2022-12-27T14:40:27.722Z</time>
      </trkpt>
      <trkpt lat="44.47849" lon="-0.72201">
        <ele>109.260247</ele>
        <time>2022-12-27T14:40:30.756Z</time>
      </trkpt>
      <trkpt lat="44.47852" lon="-0.72187">
        <ele>109.347211</ele>
        <time>2022-12-27T14:40:33.740Z</time>
      </trkpt>
      <trkpt lat="44.47856" lon="-0.72171">
        <ele>109.442156</ele>
        <time>2022-12-27T14:40:36.719Z</time>
      </trkpt>
      <trkpt lat="44.47859" lon="-0.72156">
        <ele>109.535329</ele>
        <time>2022-12-27T14:40:39.751Z</time>
      </trkpt>
      <trkpt lat="44.47862" lon="-0.7214">
        <ele>109.629475</ele>
        <time>2022-12-27T14:40:42.751Z</time>
      </trkpt>
      <trkpt lat="44.47865" lon="-0.72124">
        <ele>109.715614</ele>
        <time>2022-12-27T14:40:45.749Z</time>
      </trkpt>
      <trkpt lat="44.47869" lon="-0.72107">
        <ele>109.79536</ele>
        <time>2022-12-27T14:40:48.750Z</time>
      </trkpt>
      <trkpt lat="44.47872" lon="-0.7209">
        <ele>109.87741</ele>
        <time>2022-12-27T14:40:51.728Z</time>
      </trkpt>
      <trkpt lat="44.47876" lon="-0.72074">
        <ele>109.95459</ele>
        <time>2022-12-27T14:40:54.738Z</time>
      </trkpt>
      <trkpt lat="44.4788" lon="-0.72057">
        <ele>110.035067</ele>
        <time>2022-12-27T14:40:57.730Z</time>
      </trkpt>
      <trkpt lat="44.47883" lon="-0.7204">
        <ele>110.112922</ele>
        <time>2022-12-27T14:41:00.743Z</time>
      </trkpt>
      <trkpt lat="44.47886" lon="-0.72023">
        <ele>110.195515</ele>
        <time>2022-12-27T14:41:03.750Z</time>
      </trkpt>
      <trkpt lat="44.47889" lon="-0.72005">
        <ele>110.27899</ele>
        <time>2022-12-27T14:41:06.753Z</time>
      </trkpt>
      <trkpt lat="44.47893" lon="-0.71987">
        <ele>110.362971</ele>
        <time>2022-12-27T14:41:09.752Z</time>
      </trkpt>
      <trkpt lat="44.47897" lon="-0.71969">
        <ele>110.448539</ele>
        <time>2022-12-27T14:41:12.750Z</time>
      </trkpt>
      <trkpt lat="44.479" lon="-0.71951">
        <ele>110.533398</ele>
        <time>2022-12-27T14:41:15.751Z</time>
      </trkpt>
      <trkpt lat="44.47903" lon="-0.71939">
        <ele>110.591316</ele>
        <time>2022-12-27T14:41:17.748Z</time>
      </trkpt>
      <trkpt lat="44.47905" lon="-0.71927">
        <ele>110.649176</ele>
        <time>2022-12-27T14:41:19.749Z</time>
      </trkpt>
      <trkpt lat="44.47907" lon="-0.71914">
        <ele>110.70929</ele>
        <time>2022-12-27T14:41:21.726Z</time>
      </trkpt>
      <trkpt lat="44.4791" lon="-0.71902">
        <ele>110.769404</ele>
        <time>2022-12-27T14:41:23.731Z</time>
      </trkpt>
      <trkpt lat="44.47912" lon="-0.71889">
        <ele>110.826173</ele>
        <time>2022-12-27T14:41:25.732Z</time>
      </trkpt>
      <trkpt lat="44.47915" lon="-0.71876">
        <ele>110.875676</ele>
        <time>2022-12-27T14:41:27.749Z</time>
      </trkpt>
      <trkpt lat="44.47918" lon="-0.71864">
        <ele>110.92157</ele>
        <time>2022-12-27T14:41:29.739Z</time>
      </trkpt>
      <trkpt lat="44.4792" lon="-0.7185">
        <ele>110.970807</ele>
        <time>2022-12-27T14:41:31.730Z</time>
      </trkpt>
      <trkpt lat="44.47924" lon="-0.71833">
        <ele>111.032886</ele>
        <time>2022-12-27T14:41:34.748Z</time>
      </trkpt>
      <trkpt lat="44.47927" lon="-0.71818">
        <ele>111.089122</ele>
        <time>2022-12-27T14:41:37.750Z</time>
      </trkpt>
      <trkpt lat="44.4793" lon="-0.71804">
        <ele>111.141553</ele>
        <time>2022-12-27T14:41:40.749Z</time>
      </trkpt>
      <trkpt lat="44.47933" lon="-0.71788">
        <ele>111.197665</ele>
        <time>2022-12-27T14:41:43.750Z</time>
      </trkpt>
      <trkpt lat="44.47936" lon="-0.71772">
        <ele>111.255595</ele>
        <time>2022-12-27T14:41:46.749Z</time>
      </trkpt>
      <trkpt lat="44.4794" lon="-0.71756">
        <ele>111.315696</ele>
        <time>2022-12-27T14:41:49.751Z</time>
      </trkpt>
      <trkpt lat="44.47943" lon="-0.7174">
        <ele>111.376067</ele>
        <time>2022-12-27T14:41:52.750Z</time>
      </trkpt>
      <trkpt lat="44.47946" lon="-0.71723">
        <ele>111.43492</ele>
        <time>2022-12-27T14:41:55.749Z</time>
      </trkpt>
      <trkpt lat="44.47949" lon="-0.71707">
        <ele>111.495973</ele>
        <time>2022-12-27T14:41:58.747Z</time>
      </trkpt>
      <trkpt lat="44.47953" lon="-0.7169">
        <ele>111.558873</ele>
        <time>2022-12-27T14:42:01.733Z</time>
      </trkpt>
      <trkpt lat="44.47956" lon="-0.71672">
        <ele>111.621852</ele>
        <time>2022-12-27T14:42:04.749Z</time>
      </trkpt>
      <trkpt lat="44.4796" lon="-0.71656">
        <ele>111.682062</ele>
        <time>2022-12-27T14:42:07.749Z</time>
      </trkpt>
      <trkpt lat="44.47964" lon="-0.7164">
        <ele>111.711528</ele>
        <time>2022-12-27T14:42:10.720Z</time>
      </trkpt>
      <trkpt lat="44.47967" lon="-0.71623">
        <ele>111.71181</ele>
        <time>2022-12-27T14:42:13.724Z</time>
      </trkpt>
      <trkpt lat="44.47971" lon="-0.71605">
        <ele>111.712093</ele>
        <time>2022-12-27T14:42:16.753Z</time>
      </trkpt>
      <trkpt lat="44.47973" lon="-0.71592">
        <ele>111.712289</ele>
        <time>2022-12-27T14:42:18.753Z</time>
      </trkpt>
      <trkpt lat="44.47977" lon="-0.71575">
        <ele>111.712574</ele>
        <time>2022-12-27T14:42:21.728Z</time>
      </trkpt>
      <trkpt lat="44.4798" lon="-0.71562">
        <ele>111.712775</ele>
        <time>2022-12-27T14:42:23.748Z</time>
      </trkpt>
      <trkpt lat="44.47982" lon="-0.7155">
        <ele>111.712969</ele>
        <time>2022-12-27T14:42:25.745Z</time>
      </trkpt>
      <trkpt lat="44.47987" lon="-0.71533">
        <ele>111.713255</ele>
        <time>2022-12-27T14:42:28.748Z</time>
      </trkpt>
      <trkpt lat="44.4799" lon="-0.71514">
        <ele>111.713551</ele>
        <time>2022-12-27T14:42:31.745Z</time>
      </trkpt>
      <trkpt lat="44.47992" lon="-0.71501">
        <ele>111.713759</ele>
        <time>2022-12-27T14:42:33.732Z</time>
      </trkpt>
      <trkpt lat="44.47996" lon="-0.71483">
        <ele>111.714042</ele>
        <time>2022-12-27T14:42:36.727Z</time>
      </trkpt>
      <trkpt lat="44.47999" lon="-0.71465">
        <ele>111.714323</ele>
        <time>2022-12-27T14:42:39.742Z</time>
      </trkpt>
      <trkpt lat="44.48003" lon="-0.71448">
        <ele>111.714607</ele>
        <time>2022-12-27T14:42:42.750Z</time>
      </trkpt>
      <trkpt lat="44.48006" lon="-0.71435">
        <ele>111.714818</ele>
        <time>2022-12-27T14:42:44.749Z</time>
      </trkpt>
      <trkpt lat="44.48009" lon="-0.71422">
        <ele>111.715017</ele>
        <time>2022-12-27T14:42:46.751Z</time>
      </trkpt>
      <trkpt lat="44.48011" lon="-0.7141">
        <ele>111.715219</ele>
        <time>2022-12-27T14:42:48.746Z</time>
      </trkpt>
      <trkpt lat="44.48014" lon="-0.71393">
        <ele>111.622897</ele>
        <time>2022-12-27T14:42:51.726Z</time>
      </trkpt>
      <trkpt lat="44.48017" lon="-0.71377">
        <ele>111.515478</ele>
        <time>2022-12-27T14:42:54.751Z</time>
      </trkpt>
      <trkpt lat="44.48021" lon="-0.71361">
        <ele>111.40122</ele>
        <time>2022-12-27T14:42:57.733Z</time>
      </trkpt>
      <trkpt lat="44.48024" lon="-0.71343">
        <ele>111.280898</ele>
        <time>2022-12-27T14:43:00.728Z</time>
      </trkpt>
      <trkpt lat="44.48027" lon="-0.71331">
        <ele>111.195874</ele>
        <time>2022-12-27T14:43:02.750Z</time>
      </trkpt>
      <trkpt lat="44.48029" lon="-0.71318">
        <ele>111.112283</ele>
        <time>2022-12-27T14:43:04.746Z</time>
      </trkpt>
      <trkpt lat="44.48033" lon="-0.713">
        <ele>110.989175</ele>
        <time>2022-12-27T14:43:07.747Z</time>
      </trkpt>
      <trkpt lat="44.48036" lon="-0.71288">
        <ele>110.904694</ele>
        <time>2022-12-27T14:43:09.746Z</time>
      </trkpt>
      <trkpt lat="44.48039" lon="-0.71276">
        <ele>110.820634</ele>
        <time>2022-12-27T14:43:11.724Z</time>
      </trkpt>
      <trkpt lat="44.48041" lon="-0.71264">
        <ele>110.735886</ele>
        <time>2022-12-27T14:43:13.730Z</time>
      </trkpt>
      <trkpt lat="44.48045" lon="-0.71246">
        <ele>110.612899</ele>
        <time>2022-12-27T14:43:16.739Z</time>
      </trkpt>
      <trkpt lat="44.48048" lon="-0.71233">
        <ele>110.522719</ele>
        <time>2022-12-27T14:43:18.747Z</time>
      </trkpt>
      <trkpt lat="44.4805" lon="-0.7122">
        <ele>110.435182</ele>
        <time>2022-12-27T14:43:20.743Z</time>
      </trkpt>
      <trkpt lat="44.48053" lon="-0.71208">
        <ele>110.351063</ele>
        <time>2022-12-27T14:43:22.752Z</time>
      </trkpt>
      <trkpt lat="44.48055" lon="-0.71195">
        <ele>110.262562</ele>
        <time>2022-12-27T14:43:24.755Z</time>
      </trkpt>
      <trkpt lat="44.48058" lon="-0.71182">
        <ele>110.176554</ele>
        <time>2022-12-27T14:43:26.744Z</time>
      </trkpt>
      <trkpt lat="44.48062" lon="-0.71164">
        <ele>110.054116</ele>
        <time>2022-12-27T14:43:29.751Z</time>
      </trkpt>
      <trkpt lat="44.48064" lon="-0.71151">
        <ele>110.021183</ele>
        <time>2022-12-27T14:43:31.728Z</time>
      </trkpt>
      <trkpt lat="44.48066" lon="-0.71139">
        <ele>109.989672</ele>
        <time>2022-12-27T14:43:33.747Z</time>
      </trkpt>
      <trkpt lat="44.48069" lon="-0.71126">
        <ele>109.956838</ele>
        <time>2022-12-27T14:43:35.752Z</time>
      </trkpt>
      <trkpt lat="44.48074" lon="-0.71108">
        <ele>109.909368</ele>
        <time>2022-12-27T14:43:38.750Z</time>
      </trkpt>
      <trkpt lat="44.48078" lon="-0.7109">
        <ele>109.86352</ele>
        <time>2022-12-27T14:43:41.752Z</time>
      </trkpt>
      <trkpt lat="44.48081" lon="-0.71078">
        <ele>109.83256</ele>
        <time>2022-12-27T14:43:43.749Z</time>
      </trkpt>
      <trkpt lat="44.48084" lon="-0.7106">
        <ele>109.786506</ele>
        <time>2022-12-27T14:43:46.748Z</time>
      </trkpt>
      <trkpt lat="44.48087" lon="-0.71047">
        <ele>109.753671</ele>
        <time>2022-12-27T14:43:48.733Z</time>
      </trkpt>
      <trkpt lat="44.4809" lon="-0.71034">
        <ele>109.721875</ele>
        <time>2022-12-27T14:43:50.748Z</time>
      </trkpt>
      <trkpt lat="44.48091" lon="-0.71021">
        <ele>109.687951</ele>
        <time>2022-12-27T14:43:52.732Z</time>
      </trkpt>
      <trkpt lat="44.48094" lon="-0.71008">
        <ele>109.655819</ele>
        <time>2022-12-27T14:43:54.753Z</time>
      </trkpt>
      <trkpt lat="44.48096" lon="-0.70996">
        <ele>109.623447</ele>
        <time>2022-12-27T14:43:56.728Z</time>
      </trkpt>
      <trkpt lat="44.48099" lon="-0.70982">
        <ele>109.589563</ele>
        <time>2022-12-27T14:43:58.752Z</time>
      </trkpt>
      <trkpt lat="44.48103" lon="-0.70964">
        <ele>109.543092</ele>
        <time>2022-12-27T14:44:01.749Z</time>
      </trkpt>
      <trkpt lat="44.48105" lon="-0.70952">
        <ele>109.512152</ele>
        <time>2022-12-27T14:44:03.739Z</time>
      </trkpt>
      <trkpt lat="44.48109" lon="-0.70934">
        <ele>109.467188</ele>
        <time>2022-12-27T14:44:06.756Z</time>
      </trkpt>
      <trkpt lat="44.48112" lon="-0.70919">
        <ele>109.46618</ele>
        <time>2022-12-27T14:44:09.730Z</time>
      </trkpt>
      <trkpt lat="44.48116" lon="-0.70902">
        <ele>109.633761</ele>
        <time>2022-12-27T14:44:12.765Z</time>
      </trkpt>
      <trkpt lat="44.48118" lon="-0.7089">
        <ele>109.750758</ele>
        <time>2022-12-27T14:44:14.749Z</time>
      </trkpt>
      <trkpt lat="44.48122" lon="-0.70871">
        <ele>109.926492</ele>
        <time>2022-12-27T14:44:17.746Z</time>
      </trkpt>
      <trkpt lat="44.48125" lon="-0.70854">
        <ele>110.094606</ele>
        <time>2022-12-27T14:44:20.742Z</time>
      </trkpt>
      <trkpt lat="44.48129" lon="-0.70836">
        <ele>110.265561</ele>
        <time>2022-12-27T14:44:23.755Z</time>
      </trkpt>
      <trkpt lat="44.48132" lon="-0.70823">
        <ele>110.385732</ele>
        <time>2022-12-27T14:44:25.750Z</time>
      </trkpt>
      <trkpt lat="44.48137" lon="-0.70806">
        <ele>110.556996</ele>
        <time>2022-12-27T14:44:28.752Z</time>
      </trkpt>
      <trkpt lat="44.48139" lon="-0.70794">
        <ele>110.675916</ele>
        <time>2022-12-27T14:44:30.735Z</time>
      </trkpt>
      <trkpt lat="44.48143" lon="-0.70775">
        <ele>110.850928</ele>
        <time>2022-12-27T14:44:33.747Z</time>
      </trkpt>
      <trkpt lat="44.48146" lon="-0.70762">
        <ele>110.978161</ele>
        <time>2022-12-27T14:44:35.725Z</time>
      </trkpt>
      <trkpt lat="44.48148" lon="-0.7075">
        <ele>111.096657</ele>
        <time>2022-12-27T14:44:37.740Z</time>
      </trkpt>
      <trkpt lat="44.4815" lon="-0.70737">
        <ele>111.212763</ele>
        <time>2022-12-27T14:44:39.746Z</time>
      </trkpt>
      <trkpt lat="44.48154" lon="-0.7072">
        <ele>111.384395</ele>
        <time>2022-12-27T14:44:42.740Z</time>
      </trkpt>
      <trkpt lat="44.48157" lon="-0.70707">
        <ele>111.503501</ele>
        <time>2022-12-27T14:44:44.743Z</time>
      </trkpt>
      <trkpt lat="44.48159" lon="-0.70695">
        <ele>111.620197</ele>
        <time>2022-12-27T14:44:46.728Z</time>
      </trkpt>
      <trkpt lat="44.48162" lon="-0.70678">
        <ele>111.782153</ele>
        <time>2022-12-27T14:44:49.747Z</time>
      </trkpt>
      <trkpt lat="44.48165" lon="-0.70661">
        <ele>111.951137</ele>
        <time>2022-12-27T14:44:52.749Z</time>
      </trkpt>
      <trkpt lat="44.48169" lon="-0.70644">
        <ele>112.120387</ele>
        <time>2022-12-27T14:44:55.745Z</time>
      </trkpt>
      <trkpt lat="44.48173" lon="-0.70626">
        <ele>112.298302</ele>
        <time>2022-12-27T14:44:58.748Z</time>
      </trkpt>
      <trkpt lat="44.48175" lon="-0.70608">
        <ele>112.474154</ele>
        <time>2022-12-27T14:45:01.738Z</time>
      </trkpt>
      <trkpt lat="44.48178" lon="-0.70596">
        <ele>112.596772</ele>
        <time>2022-12-27T14:45:03.740Z</time>
      </trkpt>
      <trkpt lat="44.4818" lon="-0.70584">
        <ele>112.719501</ele>
        <time>2022-12-27T14:45:05.749Z</time>
      </trkpt>
      <trkpt lat="44.48183" lon="-0.70566">
        <ele>112.894416</ele>
        <time>2022-12-27T14:45:08.752Z</time>
      </trkpt>
      <trkpt lat="44.48187" lon="-0.70549">
        <ele>113.061712</ele>
        <time>2022-12-27T14:45:11.729Z</time>
      </trkpt>
      <trkpt lat="44.4819" lon="-0.70532">
        <ele>113.234499</ele>
        <time>2022-12-27T14:45:14.746Z</time>
      </trkpt>
      <trkpt lat="44.48193" lon="-0.70514">
        <ele>113.41375</ele>
        <time>2022-12-27T14:45:17.743Z</time>
      </trkpt>
      <trkpt lat="44.48196" lon="-0.70501">
        <ele>113.537918</ele>
        <time>2022-12-27T14:45:19.748Z</time>
      </trkpt>
      <trkpt lat="44.48198" lon="-0.70483">
        <ele>113.719682</ele>
        <time>2022-12-27T14:45:22.728Z</time>
      </trkpt>
      <trkpt lat="44.48202" lon="-0.7047">
        <ele>113.845768</ele>
        <time>2022-12-27T14:45:24.752Z</time>
      </trkpt>
      <trkpt lat="44.48205" lon="-0.70454">
        <ele>114.01263</ele>
        <time>2022-12-27T14:45:27.743Z</time>
      </trkpt>
      <trkpt lat="44.48209" lon="-0.70437">
        <ele>114.178851</ele>
        <time>2022-12-27T14:45:30.753Z</time>
      </trkpt>
      <trkpt lat="44.48213" lon="-0.7042">
        <ele>114.270282</ele>
        <time>2022-12-27T14:45:33.754Z</time>
      </trkpt>
      <trkpt lat="44.48217" lon="-0.70402">
        <ele>114.364969</ele>
        <time>2022-12-27T14:45:36.752Z</time>
      </trkpt>
      <trkpt lat="44.48221" lon="-0.70384">
        <ele>114.457375</ele>
        <time>2022-12-27T14:45:39.749Z</time>
      </trkpt>
      <trkpt lat="44.48224" lon="-0.70369">
        <ele>114.539991</ele>
        <time>2022-12-27T14:45:42.726Z</time>
      </trkpt>
      <trkpt lat="44.48227" lon="-0.70353">
        <ele>114.620302</ele>
        <time>2022-12-27T14:45:45.755Z</time>
      </trkpt>
      <trkpt lat="44.4823" lon="-0.70337">
        <ele>114.703436</ele>
        <time>2022-12-27T14:45:48.750Z</time>
      </trkpt>
      <trkpt lat="44.48232" lon="-0.70321">
        <ele>114.790331</ele>
        <time>2022-12-27T14:45:51.730Z</time>
      </trkpt>
      <trkpt lat="44.48236" lon="-0.70304">
        <ele>114.880863</ele>
        <time>2022-12-27T14:45:54.751Z</time>
      </trkpt>
      <trkpt lat="44.4824" lon="-0.70288">
        <ele>114.964282</ele>
        <time>2022-12-27T14:45:57.749Z</time>
      </trkpt>
      <trkpt lat="44.48243" lon="-0.70271">
        <ele>115.053127</ele>
        <time>2022-12-27T14:46:00.741Z</time>
      </trkpt>
      <trkpt lat="44.48245" lon="-0.70254">
        <ele>115.137711</ele>
        <time>2022-12-27T14:46:03.753Z</time>
      </trkpt>
      <trkpt lat="44.48249" lon="-0.70237">
        <ele>115.229126</ele>
        <time>2022-12-27T14:46:06.731Z</time>
      </trkpt>
      <trkpt lat="44.48252" lon="-0.7022">
        <ele>115.315595</ele>
        <time>2022-12-27T14:46:09.727Z</time>
      </trkpt>
      <trkpt lat="44.48256" lon="-0.70204">
        <ele>115.401794</ele>
        <time>2022-12-27T14:46:12.748Z</time>
      </trkpt>
      <trkpt lat="44.4826" lon="-0.70188">
        <ele>115.492079</ele>
        <time>2022-12-27T14:46:15.750Z</time>
      </trkpt>
      <trkpt lat="44.48264" lon="-0.70171">
        <ele>115.582169</ele>
        <time>2022-12-27T14:46:18.748Z</time>
      </trkpt>
      <trkpt lat="44.48267" lon="-0.70154">
        <ele>115.675972</ele>
        <time>2022-12-27T14:46:21.731Z</time>
      </trkpt>
      <trkpt lat="44.4827" lon="-0.70137">
        <ele>115.768394</ele>
        <time>2022-12-27T14:46:24.726Z</time>
      </trkpt>
      <trkpt lat="44.48273" lon="-0.70121">
        <ele>115.856605</ele>
        <time>2022-12-27T14:46:27.727Z</time>
      </trkpt>
      <trkpt lat="44.48277" lon="-0.70104">
        <ele>115.946306</ele>
        <time>2022-12-27T14:46:30.750Z</time>
      </trkpt>
      <trkpt lat="44.4828" lon="-0.70089">
        <ele>116.031289</ele>
        <time>2022-12-27T14:46:33.748Z</time>
      </trkpt>
      <trkpt lat="44.48284" lon="-0.70073">
        <ele>116.117908</ele>
        <time>2022-12-27T14:46:36.727Z</time>
      </trkpt>
      <trkpt lat="44.48286" lon="-0.70058">
        <ele>116.197281</ele>
        <time>2022-12-27T14:46:39.754Z</time>
      </trkpt>
      <trkpt lat="44.4829" lon="-0.70043">
        <ele>116.282669</ele>
        <time>2022-12-27T14:46:42.748Z</time>
      </trkpt>
      <trkpt lat="44.48294" lon="-0.70026">
        <ele>116.375215</ele>
        <time>2022-12-27T14:46:45.749Z</time>
      </trkpt>
      <trkpt lat="44.48297" lon="-0.70012">
        <ele>116.454328</ele>
        <time>2022-12-27T14:46:48.752Z</time>
      </trkpt>
      <trkpt lat="44.48301" lon="-0.69998">
        <ele>116.5338</ele>
        <time>2022-12-27T14:46:51.738Z</time>
      </trkpt>
      <trkpt lat="44.48304" lon="-0.69981">
        <ele>116.624041</ele>
        <time>2022-12-27T14:46:55.751Z</time>
      </trkpt>
      <trkpt lat="44.48307" lon="-0.69967">
        <ele>116.698215</ele>
        <time>2022-12-27T14:46:58.745Z</time>
      </trkpt>
      <trkpt lat="44.4831" lon="-0.69953">
        <ele>116.781761</ele>
        <time>2022-12-27T14:47:01.753Z</time>
      </trkpt>
      <trkpt lat="44.48313" lon="-0.69938">
        <ele>116.933748</ele>
        <time>2022-12-27T14:47:04.750Z</time>
      </trkpt>
      <trkpt lat="44.48316" lon="-0.69922">
        <ele>117.098241</ele>
        <time>2022-12-27T14:47:07.752Z</time>
      </trkpt>
      <trkpt lat="44.48319" lon="-0.69906">
        <ele>117.26049</ele>
        <time>2022-12-27T14:47:10.759Z</time>
      </trkpt>
      <trkpt lat="44.48323" lon="-0.69891">
        <ele>117.424221</ele>
        <time>2022-12-27T14:47:13.755Z</time>
      </trkpt>
      <trkpt lat="44.48326" lon="-0.69874">
        <ele>117.592301</ele>
        <time>2022-12-27T14:47:16.748Z</time>
      </trkpt>
      <trkpt lat="44.48329" lon="-0.69859">
        <ele>117.74655</ele>
        <time>2022-12-27T14:47:19.749Z</time>
      </trkpt>
      <trkpt lat="44.48332" lon="-0.69846">
        <ele>117.882788</ele>
        <time>2022-12-27T14:47:22.749Z</time>
      </trkpt>
      <trkpt lat="44.48335" lon="-0.69831">
        <ele>118.033473</ele>
        <time>2022-12-27T14:47:25.743Z</time>
      </trkpt>
      <trkpt lat="44.48338" lon="-0.69816">
        <ele>118.19169</ele>
        <time>2022-12-27T14:47:28.755Z</time>
      </trkpt>
      <trkpt lat="44.48341" lon="-0.69799">
        <ele>118.359994</ele>
        <time>2022-12-27T14:47:31.727Z</time>
      </trkpt>
      <trkpt lat="44.48344" lon="-0.69783">
        <ele>118.527125</ele>
        <time>2022-12-27T14:47:34.752Z</time>
      </trkpt>
      <trkpt lat="44.48347" lon="-0.69766">
        <ele>118.696663</ele>
        <time>2022-12-27T14:47:37.753Z</time>
      </trkpt>
      <trkpt lat="44.4835" lon="-0.69749">
        <ele>118.866876</ele>
        <time>2022-12-27T14:47:40.751Z</time>
      </trkpt>
      <trkpt lat="44.48354" lon="-0.69732">
        <ele>119.041977</ele>
        <time>2022-12-27T14:47:43.751Z</time>
      </trkpt>
      <trkpt lat="44.48357" lon="-0.69715">
        <ele>119.221629</ele>
        <time>2022-12-27T14:47:46.755Z</time>
      </trkpt>
      <trkpt lat="44.4836" lon="-0.69697">
        <ele>119.379974</ele>
        <time>2022-12-27T14:47:49.753Z</time>
      </trkpt>
      <trkpt lat="44.48365" lon="-0.6968">
        <ele>119.534667</ele>
        <time>2022-12-27T14:47:52.756Z</time>
      </trkpt>
      <trkpt lat="44.48368" lon="-0.69663">
        <ele>119.68797</ele>
        <time>2022-12-27T14:47:55.753Z</time>
      </trkpt>
      <trkpt lat="44.48371" lon="-0.69645">
        <ele>119.844563</ele>
        <time>2022-12-27T14:47:58.753Z</time>
      </trkpt>
      <trkpt lat="44.48374" lon="-0.69628">
        <ele>119.994887</ele>
        <time>2022-12-27T14:48:01.734Z</time>
      </trkpt>
      <trkpt lat="44.48378" lon="-0.69611">
        <ele>120.140961</ele>
        <time>2022-12-27T14:48:04.748Z</time>
      </trkpt>
      <trkpt lat="44.48381" lon="-0.69594">
        <ele>120.292738</ele>
        <time>2022-12-27T14:48:07.725Z</time>
      </trkpt>
      <trkpt lat="44.48384" lon="-0.69579">
        <ele>120.424116</ele>
        <time>2022-12-27T14:48:10.750Z</time>
      </trkpt>
      <trkpt lat="44.48387" lon="-0.69566">
        <ele>120.542603</ele>
        <time>2022-12-27T14:48:13.749Z</time>
      </trkpt>
      <trkpt lat="44.4839" lon="-0.69552">
        <ele>120.666311</ele>
        <time>2022-12-27T14:48:16.762Z</time>
      </trkpt>
      <trkpt lat="44.48393" lon="-0.69536">
        <ele>120.801278</ele>
        <time>2022-12-27T14:48:19.754Z</time>
      </trkpt>
      <trkpt lat="44.48396" lon="-0.69521">
        <ele>120.936576</ele>
        <time>2022-12-27T14:48:22.750Z</time>
      </trkpt>
      <trkpt lat="44.48399" lon="-0.69506">
        <ele>121.072041</ele>
        <time>2022-12-27T14:48:25.751Z</time>
      </trkpt>
      <trkpt lat="44.48403" lon="-0.69491">
        <ele>121.202003</ele>
        <time>2022-12-27T14:48:28.754Z</time>
      </trkpt>
      <trkpt lat="44.48406" lon="-0.69477">
        <ele>121.323966</ele>
        <time>2022-12-27T14:48:31.733Z</time>
      </trkpt>
      <trkpt lat="44.48408" lon="-0.69462">
        <ele>121.402323</ele>
        <time>2022-12-27T14:48:34.755Z</time>
      </trkpt>
      <trkpt lat="44.48411" lon="-0.69446">
        <ele>121.415001</ele>
        <time>2022-12-27T14:48:37.750Z</time>
      </trkpt>
      <trkpt lat="44.48414" lon="-0.69431">
        <ele>121.427384</ele>
        <time>2022-12-27T14:48:40.755Z</time>
      </trkpt>
      <trkpt lat="44.48418" lon="-0.69414">
        <ele>121.440889</ele>
        <time>2022-12-27T14:48:43.725Z</time>
      </trkpt>
      <trkpt lat="44.48421" lon="-0.69396">
        <ele>121.455043</ele>
        <time>2022-12-27T14:48:46.751Z</time>
      </trkpt>
      <trkpt lat="44.48425" lon="-0.6938">
        <ele>121.468091</ele>
        <time>2022-12-27T14:48:49.740Z</time>
      </trkpt>
      <trkpt lat="44.48428" lon="-0.69365">
        <ele>121.480023</ele>
        <time>2022-12-27T14:48:52.752Z</time>
      </trkpt>
      <trkpt lat="44.48431" lon="-0.69349">
        <ele>121.492793</ele>
        <time>2022-12-27T14:48:55.751Z</time>
      </trkpt>
      <trkpt lat="44.48434" lon="-0.69332">
        <ele>121.506003</ele>
        <time>2022-12-27T14:48:58.751Z</time>
      </trkpt>
      <trkpt lat="44.48439" lon="-0.69315">
        <ele>121.519629</ele>
        <time>2022-12-27T14:49:01.749Z</time>
      </trkpt>
      <trkpt lat="44.48442" lon="-0.69298">
        <ele>121.533392</ele>
        <time>2022-12-27T14:49:04.749Z</time>
      </trkpt>
      <trkpt lat="44.48445" lon="-0.69281">
        <ele>121.547163</ele>
        <time>2022-12-27T14:49:07.763Z</time>
      </trkpt>
      <trkpt lat="44.48449" lon="-0.69263">
        <ele>121.561184</ele>
        <time>2022-12-27T14:49:10.752Z</time>
      </trkpt>
      <trkpt lat="44.48452" lon="-0.69246">
        <ele>121.575029</ele>
        <time>2022-12-27T14:49:13.751Z</time>
      </trkpt>
      <trkpt lat="44.48456" lon="-0.6923">
        <ele>121.588083</ele>
        <time>2022-12-27T14:49:16.754Z</time>
      </trkpt>
      <trkpt lat="44.48459" lon="-0.69213">
        <ele>121.655159</ele>
        <time>2022-12-27T14:49:19.750Z</time>
      </trkpt>
      <trkpt lat="44.48463" lon="-0.69195">
        <ele>121.738656</ele>
        <time>2022-12-27T14:49:22.751Z</time>
      </trkpt>
      <trkpt lat="44.48466" lon="-0.69183">
        <ele>121.796528</ele>
        <time>2022-12-27T14:49:24.752Z</time>
      </trkpt>
      <trkpt lat="44.48468" lon="-0.6917">
        <ele>121.856654</ele>
        <time>2022-12-27T14:49:26.750Z</time>
      </trkpt>
      <trkpt lat="44.48471" lon="-0.69157">
        <ele>121.919739</ele>
        <time>2022-12-27T14:49:28.749Z</time>
      </trkpt>
      <trkpt lat="44.48474" lon="-0.69144">
        <ele>121.981017</ele>
        <time>2022-12-27T14:49:30.729Z</time>
      </trkpt>
      <trkpt lat="44.48477" lon="-0.69131">
        <ele>122.042489</ele>
        <time>2022-12-27T14:49:32.733Z</time>
      </trkpt>
      <trkpt lat="44.48479" lon="-0.69118">
        <ele>122.104365</ele>
        <time>2022-12-27T14:49:34.742Z</time>
      </trkpt>
      <trkpt lat="44.48482" lon="-0.69105">
        <ele>122.165273</ele>
        <time>2022-12-27T14:49:36.752Z</time>
      </trkpt>
      <trkpt lat="44.48486" lon="-0.69086">
        <ele>122.252152</ele>
        <time>2022-12-27T14:49:39.735Z</time>
      </trkpt>
      <trkpt lat="44.48488" lon="-0.69074">
        <ele>122.312625</ele>
        <time>2022-12-27T14:49:41.723Z</time>
      </trkpt>
      <trkpt lat="44.48491" lon="-0.6906">
        <ele>122.375816</ele>
        <time>2022-12-27T14:49:43.753Z</time>
      </trkpt>
      <trkpt lat="44.48493" lon="-0.69047">
        <ele>122.43797</ele>
        <time>2022-12-27T14:49:45.750Z</time>
      </trkpt>
      <trkpt lat="44.48496" lon="-0.69033">
        <ele>122.50228</ele>
        <time>2022-12-27T14:49:47.733Z</time>
      </trkpt>
      <trkpt lat="44.48499" lon="-0.6902">
        <ele>122.563126</ele>
        <time>2022-12-27T14:49:49.748Z</time>
      </trkpt>
      <trkpt lat="44.48501" lon="-0.69007">
        <ele>122.624688</ele>
        <time>2022-12-27T14:49:51.731Z</time>
      </trkpt>
      <trkpt lat="44.48503" lon="-0.68994">
        <ele>122.685697</ele>
        <time>2022-12-27T14:49:53.754Z</time>
      </trkpt>
      <trkpt lat="44.48507" lon="-0.68976">
        <ele>122.807385</ele>
        <time>2022-12-27T14:49:56.750Z</time>
      </trkpt>
      <trkpt lat="44.4851" lon="-0.68964">
        <ele>122.915452</ele>
        <time>2022-12-27T14:49:58.755Z</time>
      </trkpt>
      <trkpt lat="44.48512" lon="-0.6895">
        <ele>123.033811</ele>
        <time>2022-12-27T14:50:00.725Z</time>
      </trkpt>
      <trkpt lat="44.48514" lon="-0.68937">
        <ele>123.152915</ele>
        <time>2022-12-27T14:50:02.756Z</time>
      </trkpt>
      <trkpt lat="44.48517" lon="-0.68923">
        <ele>123.272549</ele>
        <time>2022-12-27T14:50:04.753Z</time>
      </trkpt>
      <trkpt lat="44.48519" lon="-0.68909">
        <ele>123.393581</ele>
        <time>2022-12-27T14:50:06.801Z</time>
      </trkpt>
      <trkpt lat="44.48521" lon="-0.68896">
        <ele>123.513498</ele>
        <time>2022-12-27T14:50:08.753Z</time>
      </trkpt>
      <trkpt lat="44.48524" lon="-0.68883">
        <ele>123.629264</ele>
        <time>2022-12-27T14:50:10.742Z</time>
      </trkpt>
      <trkpt lat="44.48526" lon="-0.68869">
        <ele>123.753715</ele>
        <time>2022-12-27T14:50:12.751Z</time>
      </trkpt>
      <trkpt lat="44.48529" lon="-0.68855">
        <ele>123.873229</ele>
        <time>2022-12-27T14:50:14.753Z</time>
      </trkpt>
      <trkpt lat="44.48533" lon="-0.68841">
        <ele>124.003468</ele>
        <time>2022-12-27T14:50:16.752Z</time>
      </trkpt>
      <trkpt lat="44.48536" lon="-0.68827">
        <ele>124.132564</ele>
        <time>2022-12-27T14:50:18.756Z</time>
      </trkpt>
      <trkpt lat="44.48539" lon="-0.68812">
        <ele>124.26108</ele>
        <time>2022-12-27T14:50:20.745Z</time>
      </trkpt>
      <trkpt lat="44.48542" lon="-0.68798">
        <ele>124.387653</ele>
        <time>2022-12-27T14:50:22.751Z</time>
      </trkpt>
      <trkpt lat="44.48545" lon="-0.68784">
        <ele>124.511785</ele>
        <time>2022-12-27T14:50:24.742Z</time>
      </trkpt>
      <trkpt lat="44.48549" lon="-0.6877">
        <ele>124.637559</ele>
        <time>2022-12-27T14:50:26.749Z</time>
      </trkpt>
      <trkpt lat="44.48552" lon="-0.68755">
        <ele>124.769464</ele>
        <time>2022-12-27T14:50:28.753Z</time>
      </trkpt>
      <trkpt lat="44.48555" lon="-0.68742">
        <ele>124.888646</ele>
        <time>2022-12-27T14:50:30.753Z</time>
      </trkpt>
      <trkpt lat="44.48557" lon="-0.68729">
        <ele>124.874925</ele>
        <time>2022-12-27T14:50:32.748Z</time>
      </trkpt>
      <trkpt lat="44.48561" lon="-0.68717">
        <ele>124.859601</ele>
        <time>2022-12-27T14:50:34.723Z</time>
      </trkpt>
      <trkpt lat="44.48565" lon="-0.68699">
        <ele>124.837345</ele>
        <time>2022-12-27T14:50:37.749Z</time>
      </trkpt>
      <trkpt lat="44.48568" lon="-0.68686">
        <ele>124.82141</ele>
        <time>2022-12-27T14:50:39.751Z</time>
      </trkpt>
      <trkpt lat="44.48569" lon="-0.68672">
        <ele>124.80554</ele>
        <time>2022-12-27T14:50:41.731Z</time>
      </trkpt>
      <trkpt lat="44.48572" lon="-0.68659">
        <ele>124.78896</ele>
        <time>2022-12-27T14:50:43.736Z</time>
      </trkpt>
      <trkpt lat="44.48575" lon="-0.68645">
        <ele>124.771693</ele>
        <time>2022-12-27T14:50:45.733Z</time>
      </trkpt>
      <trkpt lat="44.48578" lon="-0.68631">
        <ele>124.754475</ele>
        <time>2022-12-27T14:50:47.752Z</time>
      </trkpt>
      <trkpt lat="44.48581" lon="-0.68616">
        <ele>124.736855</ele>
        <time>2022-12-27T14:50:49.749Z</time>
      </trkpt>
      <trkpt lat="44.48583" lon="-0.68602">
        <ele>124.719709</ele>
        <time>2022-12-27T14:50:51.751Z</time>
      </trkpt>
      <trkpt lat="44.48587" lon="-0.68588">
        <ele>124.702042</ele>
        <time>2022-12-27T14:50:53.753Z</time>
      </trkpt>
      <trkpt lat="44.48589" lon="-0.68573">
        <ele>124.684674</ele>
        <time>2022-12-27T14:50:55.753Z</time>
      </trkpt>
      <trkpt lat="44.48592" lon="-0.68559">
        <ele>124.66771</ele>
        <time>2022-12-27T14:50:57.730Z</time>
      </trkpt>
      <trkpt lat="44.48595" lon="-0.68546">
        <ele>124.651338</ele>
        <time>2022-12-27T14:50:59.748Z</time>
      </trkpt>
      <trkpt lat="44.48598" lon="-0.68533">
        <ele>124.635411</ele>
        <time>2022-12-27T14:51:01.733Z</time>
      </trkpt>
      <trkpt lat="44.486" lon="-0.68521">
        <ele>124.620135</ele>
        <time>2022-12-27T14:51:03.740Z</time>
      </trkpt>
      <trkpt lat="44.48603" lon="-0.68503">
        <ele>124.598956</ele>
        <time>2022-12-27T14:51:06.732Z</time>
      </trkpt>
      <trkpt lat="44.48607" lon="-0.68485">
        <ele>124.554074</ele>
        <time>2022-12-27T14:51:09.723Z</time>
      </trkpt>
      <trkpt lat="44.4861" lon="-0.68472">
        <ele>124.516929</ele>
        <time>2022-12-27T14:51:11.726Z</time>
      </trkpt>
      <trkpt lat="44.48612" lon="-0.68459">
        <ele>124.479658</ele>
        <time>2022-12-27T14:51:13.719Z</time>
      </trkpt>
      <trkpt lat="44.48615" lon="-0.68446">
        <ele>124.442326</ele>
        <time>2022-12-27T14:51:15.725Z</time>
      </trkpt>
      <trkpt lat="44.48617" lon="-0.68433">
        <ele>124.40542</ele>
        <time>2022-12-27T14:51:17.730Z</time>
      </trkpt>
      <trkpt lat="44.48621" lon="-0.68418">
        <ele>124.364223</ele>
        <time>2022-12-27T14:51:19.726Z</time>
      </trkpt>
      <trkpt lat="44.48623" lon="-0.68404">
        <ele>124.32502</ele>
        <time>2022-12-27T14:51:21.746Z</time>
      </trkpt>
      <trkpt lat="44.48626" lon="-0.6839">
        <ele>124.283782</ele>
        <time>2022-12-27T14:51:23.752Z</time>
      </trkpt>
      <trkpt lat="44.48629" lon="-0.68375">
        <ele>124.242675</ele>
        <time>2022-12-27T14:51:25.732Z</time>
      </trkpt>
      <trkpt lat="44.48632" lon="-0.68361">
        <ele>124.203887</ele>
        <time>2022-12-27T14:51:27.737Z</time>
      </trkpt>
      <trkpt lat="44.48635" lon="-0.68347">
        <ele>124.164319</ele>
        <time>2022-12-27T14:51:29.749Z</time>
      </trkpt>
      <trkpt lat="44.48638" lon="-0.68335">
        <ele>124.128143</ele>
        <time>2022-12-27T14:51:31.731Z</time>
      </trkpt>
      <trkpt lat="44.48641" lon="-0.68322">
        <ele>124.092694</ele>
        <time>2022-12-27T14:51:33.753Z</time>
      </trkpt>
      <trkpt lat="44.48645" lon="-0.68305">
        <ele>124.042784</ele>
        <time>2022-12-27T14:51:36.728Z</time>
      </trkpt>
      <trkpt lat="44.48648" lon="-0.68286">
        <ele>123.991644</ele>
        <time>2022-12-27T14:51:39.737Z</time>
      </trkpt>
      <trkpt lat="44.4865" lon="-0.68274">
        <ele>123.956195</ele>
        <time>2022-12-27T14:51:41.724Z</time>
      </trkpt>
      <trkpt lat="44.48653" lon="-0.68262">
        <ele>123.92117</ele>
        <time>2022-12-27T14:51:43.752Z</time>
      </trkpt>
      <trkpt lat="44.48656" lon="-0.68249">
        <ele>123.889638</ele>
        <time>2022-12-27T14:51:45.733Z</time>
      </trkpt>
      <trkpt lat="44.48659" lon="-0.68236">
        <ele>123.860347</ele>
        <time>2022-12-27T14:51:47.740Z</time>
      </trkpt>
      <trkpt lat="44.48662" lon="-0.68222">
        <ele>123.829316</ele>
        <time>2022-12-27T14:51:49.748Z</time>
      </trkpt>
      <trkpt lat="44.48664" lon="-0.68208">
        <ele>123.798395</ele>
        <time>2022-12-27T14:51:51.730Z</time>
      </trkpt>
      <trkpt lat="44.48667" lon="-0.68194">
        <ele>123.767945</ele>
        <time>2022-12-27T14:51:53.748Z</time>
      </trkpt>
      <trkpt lat="44.48669" lon="-0.68181">
        <ele>123.737935</ele>
        <time>2022-12-27T14:51:55.752Z</time>
      </trkpt>
      <trkpt lat="44.48672" lon="-0.68166">
        <ele>123.70483</ele>
        <time>2022-12-27T14:51:57.742Z</time>
      </trkpt>
      <trkpt lat="44.48675" lon="-0.68152">
        <ele>123.674611</ele>
        <time>2022-12-27T14:51:59.756Z</time>
      </trkpt>
      <trkpt lat="44.48677" lon="-0.68138">
        <ele>123.643746</ele>
        <time>2022-12-27T14:52:01.736Z</time>
      </trkpt>
      <trkpt lat="44.4868" lon="-0.68125">
        <ele>123.614209</ele>
        <time>2022-12-27T14:52:03.751Z</time>
      </trkpt>
      <trkpt lat="44.48684" lon="-0.68108">
        <ele>123.57528</ele>
        <time>2022-12-27T14:52:06.731Z</time>
      </trkpt>
      <trkpt lat="44.48686" lon="-0.68096">
        <ele>123.547486</ele>
        <time>2022-12-27T14:52:08.752Z</time>
      </trkpt>
      <trkpt lat="44.48688" lon="-0.68083">
        <ele>123.520192</ele>
        <time>2022-12-27T14:52:10.751Z</time>
      </trkpt>
      <trkpt lat="44.4869" lon="-0.6807">
        <ele>123.491862</ele>
        <time>2022-12-27T14:52:12.758Z</time>
      </trkpt>
      <trkpt lat="44.48693" lon="-0.68057">
        <ele>123.462092</ele>
        <time>2022-12-27T14:52:14.756Z</time>
      </trkpt>
      <trkpt lat="44.48696" lon="-0.68044">
        <ele>123.431434</ele>
        <time>2022-12-27T14:52:16.754Z</time>
      </trkpt>
      <trkpt lat="44.487" lon="-0.6803">
        <ele>123.399434</ele>
        <time>2022-12-27T14:52:18.753Z</time>
      </trkpt>
      <trkpt lat="44.48702" lon="-0.68016">
        <ele>123.368091</ele>
        <time>2022-12-27T14:52:20.731Z</time>
      </trkpt>
      <trkpt lat="44.48705" lon="-0.68001">
        <ele>123.341757</ele>
        <time>2022-12-27T14:52:22.755Z</time>
      </trkpt>
      <trkpt lat="44.48708" lon="-0.67987">
        <ele>123.316763</ele>
        <time>2022-12-27T14:52:24.753Z</time>
      </trkpt>
      <trkpt lat="44.48711" lon="-0.67973">
        <ele>123.291341</ele>
        <time>2022-12-27T14:52:26.745Z</time>
      </trkpt>
      <trkpt lat="44.48714" lon="-0.67961">
        <ele>123.269191</ele>
        <time>2022-12-27T14:52:28.737Z</time>
      </trkpt>
      <trkpt lat="44.48717" lon="-0.67943">
        <ele>123.237784</ele>
        <time>2022-12-27T14:52:31.736Z</time>
      </trkpt>
      <trkpt lat="44.48721" lon="-0.67925">
        <ele>123.205484</ele>
        <time>2022-12-27T14:52:34.750Z</time>
      </trkpt>
      <trkpt lat="44.48723" lon="-0.67912">
        <ele>123.182505</ele>
        <time>2022-12-27T14:52:36.750Z</time>
      </trkpt>
      <trkpt lat="44.48726" lon="-0.67899">
        <ele>123.159628</ele>
        <time>2022-12-27T14:52:38.735Z</time>
      </trkpt>
      <trkpt lat="44.48729" lon="-0.67886">
        <ele>123.135923</ele>
        <time>2022-12-27T14:52:40.759Z</time>
      </trkpt>
      <trkpt lat="44.48731" lon="-0.67873">
        <ele>123.111756</ele>
        <time>2022-12-27T14:52:42.750Z</time>
      </trkpt>
      <trkpt lat="44.48734" lon="-0.67859">
        <ele>123.087387</ele>
        <time>2022-12-27T14:52:44.755Z</time>
      </trkpt>
      <trkpt lat="44.48737" lon="-0.67845">
        <ele>123.063286</ele>
        <time>2022-12-27T14:52:46.753Z</time>
      </trkpt>
      <trkpt lat="44.48739" lon="-0.67831">
        <ele>123.038644</ele>
        <time>2022-12-27T14:52:48.748Z</time>
      </trkpt>
      <trkpt lat="44.48742" lon="-0.67817">
        <ele>123.01368</ele>
        <time>2022-12-27T14:52:50.752Z</time>
      </trkpt>
      <trkpt lat="44.48745" lon="-0.67803">
        <ele>122.988621</ele>
        <time>2022-12-27T14:52:52.745Z</time>
      </trkpt>
      <trkpt lat="44.48748" lon="-0.6779">
        <ele>122.963514</ele>
        <time>2022-12-27T14:52:54.750Z</time>
      </trkpt>
      <trkpt lat="44.48751" lon="-0.67775">
        <ele>122.937658</ele>
        <time>2022-12-27T14:52:56.753Z</time>
      </trkpt>
      <trkpt lat="44.48754" lon="-0.67761">
        <ele>122.969019</ele>
        <time>2022-12-27T14:52:58.748Z</time>
      </trkpt>
      <trkpt lat="44.48757" lon="-0.67747">
        <ele>123.01617</ele>
        <time>2022-12-27T14:53:00.739Z</time>
      </trkpt>
      <trkpt lat="44.48759" lon="-0.67733">
        <ele>123.060638</ele>
        <time>2022-12-27T14:53:02.736Z</time>
      </trkpt>
      <trkpt lat="44.48762" lon="-0.67719">
        <ele>123.104875</ele>
        <time>2022-12-27T14:53:04.753Z</time>
      </trkpt>
      <trkpt lat="44.48765" lon="-0.67704">
        <ele>123.150822</ele>
        <time>2022-12-27T14:53:06.755Z</time>
      </trkpt>
      <trkpt lat="44.48767" lon="-0.67691">
        <ele>123.192739</ele>
        <time>2022-12-27T14:53:08.754Z</time>
      </trkpt>
      <trkpt lat="44.4877" lon="-0.67679">
        <ele>123.232463</ele>
        <time>2022-12-27T14:53:10.746Z</time>
      </trkpt>
      <trkpt lat="44.48773" lon="-0.67667">
        <ele>123.272833</ele>
        <time>2022-12-27T14:53:12.754Z</time>
      </trkpt>
      <trkpt lat="44.48775" lon="-0.67654">
        <ele>123.313685</ele>
        <time>2022-12-27T14:53:14.757Z</time>
      </trkpt>
      <trkpt lat="44.48778" lon="-0.6764">
        <ele>123.357147</ele>
        <time>2022-12-27T14:53:16.755Z</time>
      </trkpt>
      <trkpt lat="44.48781" lon="-0.67627">
        <ele>123.400613</ele>
        <time>2022-12-27T14:53:18.741Z</time>
      </trkpt>
      <trkpt lat="44.48783" lon="-0.67613">
        <ele>123.445461</ele>
        <time>2022-12-27T14:53:20.748Z</time>
      </trkpt>
      <trkpt lat="44.48786" lon="-0.67599">
        <ele>123.491054</ele>
        <time>2022-12-27T14:53:22.741Z</time>
      </trkpt>
      <trkpt lat="44.48789" lon="-0.67584">
        <ele>123.536529</ele>
        <time>2022-12-27T14:53:24.749Z</time>
      </trkpt>
      <trkpt lat="44.48792" lon="-0.6757">
        <ele>123.583428</ele>
        <time>2022-12-27T14:53:26.732Z</time>
      </trkpt>
      <trkpt lat="44.48796" lon="-0.67555">
        <ele>123.632437</ele>
        <time>2022-12-27T14:53:28.753Z</time>
      </trkpt>
      <trkpt lat="44.48799" lon="-0.6754">
        <ele>123.679336</ele>
        <time>2022-12-27T14:53:30.753Z</time>
      </trkpt>
      <trkpt lat="44.48802" lon="-0.67526">
        <ele>123.705691</ele>
        <time>2022-12-27T14:53:32.752Z</time>
      </trkpt>
      <trkpt lat="44.48805" lon="-0.67511">
        <ele>123.6881</ele>
        <time>2022-12-27T14:53:34.726Z</time>
      </trkpt>
      <trkpt lat="44.48807" lon="-0.67498">
        <ele>123.671125</ele>
        <time>2022-12-27T14:53:36.728Z</time>
      </trkpt>
      <trkpt lat="44.4881" lon="-0.67485">
        <ele>123.655345</ele>
        <time>2022-12-27T14:53:38.757Z</time>
      </trkpt>
      <trkpt lat="44.48813" lon="-0.67473">
        <ele>123.639983</ele>
        <time>2022-12-27T14:53:40.751Z</time>
      </trkpt>
      <trkpt lat="44.48815" lon="-0.67455">
        <ele>123.618938</ele>
        <time>2022-12-27T14:53:43.739Z</time>
      </trkpt>
      <trkpt lat="44.48819" lon="-0.67437">
        <ele>123.596604</ele>
        <time>2022-12-27T14:53:46.762Z</time>
      </trkpt>
      <trkpt lat="44.48822" lon="-0.67425">
        <ele>123.581046</ele>
        <time>2022-12-27T14:53:48.755Z</time>
      </trkpt>
      <trkpt lat="44.48824" lon="-0.67412">
        <ele>123.565224</ele>
        <time>2022-12-27T14:53:50.753Z</time>
      </trkpt>
      <trkpt lat="44.48827" lon="-0.67399">
        <ele>123.548691</ele>
        <time>2022-12-27T14:53:52.751Z</time>
      </trkpt>
      <trkpt lat="44.4883" lon="-0.67386">
        <ele>123.532287</ele>
        <time>2022-12-27T14:53:54.748Z</time>
      </trkpt>
      <trkpt lat="44.48833" lon="-0.67372">
        <ele>123.515342</ele>
        <time>2022-12-27T14:53:56.750Z</time>
      </trkpt>
      <trkpt lat="44.48835" lon="-0.67358">
        <ele>123.497748</ele>
        <time>2022-12-27T14:53:58.752Z</time>
      </trkpt>
      <trkpt lat="44.48838" lon="-0.67343">
        <ele>123.48019</ele>
        <time>2022-12-27T14:54:00.751Z</time>
      </trkpt>
      <trkpt lat="44.4884" lon="-0.67329">
        <ele>123.462596</ele>
        <time>2022-12-27T14:54:02.729Z</time>
      </trkpt>
      <trkpt lat="44.48843" lon="-0.67315">
        <ele>123.444729</ele>
        <time>2022-12-27T14:54:04.753Z</time>
      </trkpt>
      <trkpt lat="44.48847" lon="-0.67301">
        <ele>123.426871</ele>
        <time>2022-12-27T14:54:06.754Z</time>
      </trkpt>
      <trkpt lat="44.4885" lon="-0.67287">
        <ele>123.408191</ele>
        <time>2022-12-27T14:54:08.730Z</time>
      </trkpt>
      <trkpt lat="44.48852" lon="-0.67273">
        <ele>123.366254</ele>
        <time>2022-12-27T14:54:10.753Z</time>
      </trkpt>
      <trkpt lat="44.48855" lon="-0.67259">
        <ele>123.323373</ele>
        <time>2022-12-27T14:54:12.749Z</time>
      </trkpt>
      <trkpt lat="44.48858" lon="-0.67245">
        <ele>123.281432</ele>
        <time>2022-12-27T14:54:14.750Z</time>
      </trkpt>
      <trkpt lat="44.48861" lon="-0.67231">
        <ele>123.239092</ele>
        <time>2022-12-27T14:54:16.757Z</time>
      </trkpt>
      <trkpt lat="44.48864" lon="-0.67217">
        <ele>123.196412</ele>
        <time>2022-12-27T14:54:18.747Z</time>
      </trkpt>
      <trkpt lat="44.48867" lon="-0.67202">
        <ele>123.153243</ele>
        <time>2022-12-27T14:54:20.750Z</time>
      </trkpt>
      <trkpt lat="44.4887" lon="-0.67189">
        <ele>123.111867</ele>
        <time>2022-12-27T14:54:22.751Z</time>
      </trkpt>
      <trkpt lat="44.48872" lon="-0.67174">
        <ele>123.068905</ele>
        <time>2022-12-27T14:54:24.753Z</time>
      </trkpt>
      <trkpt lat="44.48875" lon="-0.6716">
        <ele>123.025918</ele>
        <time>2022-12-27T14:54:26.753Z</time>
      </trkpt>
      <trkpt lat="44.48878" lon="-0.67146">
        <ele>122.984652</ele>
        <time>2022-12-27T14:54:28.741Z</time>
      </trkpt>
      <trkpt lat="44.4888" lon="-0.67132">
        <ele>122.942996</ele>
        <time>2022-12-27T14:54:30.746Z</time>
      </trkpt>
      <trkpt lat="44.48883" lon="-0.67119">
        <ele>122.90256</ele>
        <time>2022-12-27T14:54:32.750Z</time>
      </trkpt>
      <trkpt lat="44.48886" lon="-0.67106">
        <ele>122.8624</ele>
        <time>2022-12-27T14:54:34.754Z</time>
      </trkpt>
      <trkpt lat="44.4889" lon="-0.67088">
        <ele>122.809881</ele>
        <time>2022-12-27T14:54:37.747Z</time>
      </trkpt>
      <trkpt lat="44.48893" lon="-0.67071">
        <ele>122.758173</ele>
        <time>2022-12-27T14:54:40.752Z</time>
      </trkpt>
      <trkpt lat="44.48896" lon="-0.67059">
        <ele>122.720985</ele>
        <time>2022-12-27T14:54:42.753Z</time>
      </trkpt>
      <trkpt lat="44.48898" lon="-0.67047">
        <ele>122.683797</ele>
        <time>2022-12-27T14:54:44.746Z</time>
      </trkpt>
      <trkpt lat="44.48901" lon="-0.67034">
        <ele>122.665528</ele>
        <time>2022-12-27T14:54:46.744Z</time>
      </trkpt>
      <trkpt lat="44.48903" lon="-0.6702">
        <ele>122.648466</ele>
        <time>2022-12-27T14:54:48.747Z</time>
      </trkpt>
      <trkpt lat="44.48906" lon="-0.67006">
        <ele>122.631009</ele>
        <time>2022-12-27T14:54:50.747Z</time>
      </trkpt>
      <trkpt lat="44.48909" lon="-0.66993">
        <ele>122.613881</ele>
        <time>2022-12-27T14:54:52.748Z</time>
      </trkpt>
      <trkpt lat="44.48912" lon="-0.66979">
        <ele>122.596188</ele>
        <time>2022-12-27T14:54:54.751Z</time>
      </trkpt>
      <trkpt lat="44.48915" lon="-0.66965">
        <ele>122.578506</ele>
        <time>2022-12-27T14:54:56.730Z</time>
      </trkpt>
      <trkpt lat="44.48918" lon="-0.6695">
        <ele>122.559871</ele>
        <time>2022-12-27T14:54:58.751Z</time>
      </trkpt>
      <trkpt lat="44.4892" lon="-0.66935">
        <ele>122.540999</ele>
        <time>2022-12-27T14:55:00.741Z</time>
      </trkpt>
      <trkpt lat="44.48923" lon="-0.6692">
        <ele>122.522144</ele>
        <time>2022-12-27T14:55:02.752Z</time>
      </trkpt>
      <trkpt lat="44.48927" lon="-0.66906">
        <ele>122.504567</ele>
        <time>2022-12-27T14:55:04.758Z</time>
      </trkpt>
      <trkpt lat="44.48929" lon="-0.66894">
        <ele>122.488235</ele>
        <time>2022-12-27T14:55:06.755Z</time>
      </trkpt>
      <trkpt lat="44.48932" lon="-0.66881">
        <ele>122.472391</ele>
        <time>2022-12-27T14:55:08.752Z</time>
      </trkpt>
      <trkpt lat="44.48935" lon="-0.66862">
        <ele>122.449022</ele>
        <time>2022-12-27T14:55:11.753Z</time>
      </trkpt>
      <trkpt lat="44.48938" lon="-0.6685">
        <ele>122.433053</ele>
        <time>2022-12-27T14:55:13.754Z</time>
      </trkpt>
      <trkpt lat="44.48941" lon="-0.66836">
        <ele>122.41602</ele>
        <time>2022-12-27T14:55:15.725Z</time>
      </trkpt>
      <trkpt lat="44.48944" lon="-0.66823">
        <ele>122.399022</ele>
        <time>2022-12-27T14:55:17.731Z</time>
      </trkpt>
      <trkpt lat="44.48947" lon="-0.6681">
        <ele>122.38234</ele>
        <time>2022-12-27T14:55:19.750Z</time>
      </trkpt>
      <trkpt lat="44.48949" lon="-0.66797">
        <ele>122.390054</ele>
        <time>2022-12-27T14:55:21.751Z</time>
      </trkpt>
      <trkpt lat="44.48952" lon="-0.66783">
        <ele>122.426361</ele>
        <time>2022-12-27T14:55:23.750Z</time>
      </trkpt>
      <trkpt lat="44.48955" lon="-0.66769">
        <ele>122.46307</ele>
        <time>2022-12-27T14:55:25.740Z</time>
      </trkpt>
      <trkpt lat="44.48958" lon="-0.66754">
        <ele>122.502129</ele>
        <time>2022-12-27T14:55:27.732Z</time>
      </trkpt>
      <trkpt lat="44.48961" lon="-0.6674">
        <ele>122.54002</ele>
        <time>2022-12-27T14:55:29.747Z</time>
      </trkpt>
      <trkpt lat="44.48964" lon="-0.66725">
        <ele>122.580057</ele>
        <time>2022-12-27T14:55:31.748Z</time>
      </trkpt>
      <trkpt lat="44.48967" lon="-0.6671">
        <ele>122.62015</ele>
        <time>2022-12-27T14:55:33.748Z</time>
      </trkpt>
      <trkpt lat="44.4897" lon="-0.66695">
        <ele>122.658092</ele>
        <time>2022-12-27T14:55:35.755Z</time>
      </trkpt>
      <trkpt lat="44.48973" lon="-0.66681">
        <ele>122.696048</ele>
        <time>2022-12-27T14:55:37.757Z</time>
      </trkpt>
      <trkpt lat="44.48976" lon="-0.66665">
        <ele>122.73682</ele>
        <time>2022-12-27T14:55:39.749Z</time>
      </trkpt>
      <trkpt lat="44.48979" lon="-0.66651">
        <ele>122.775109</ele>
        <time>2022-12-27T14:55:41.751Z</time>
      </trkpt>
      <trkpt lat="44.48982" lon="-0.66637">
        <ele>122.812219</ele>
        <time>2022-12-27T14:55:43.735Z</time>
      </trkpt>
      <trkpt lat="44.48985" lon="-0.66622">
        <ele>122.8511</ele>
        <time>2022-12-27T14:55:45.730Z</time>
      </trkpt>
      <trkpt lat="44.48988" lon="-0.66608">
        <ele>122.888453</ele>
        <time>2022-12-27T14:55:47.757Z</time>
      </trkpt>
      <trkpt lat="44.48992" lon="-0.66594">
        <ele>122.927442</ele>
        <time>2022-12-27T14:55:49.733Z</time>
      </trkpt>
      <trkpt lat="44.48995" lon="-0.66579">
        <ele>122.964796</ele>
        <time>2022-12-27T14:55:51.739Z</time>
      </trkpt>
      <trkpt lat="44.48997" lon="-0.66565">
        <ele>123.003079</ele>
        <time>2022-12-27T14:55:53.754Z</time>
      </trkpt>
      <trkpt lat="44.49" lon="-0.6655">
        <ele>123.025263</ele>
        <time>2022-12-27T14:55:55.752Z</time>
      </trkpt>
      <trkpt lat="44.49002" lon="-0.66535">
        <ele>123.040216</ele>
        <time>2022-12-27T14:55:57.750Z</time>
      </trkpt>
      <trkpt lat="44.49005" lon="-0.66521">
        <ele>123.055335</ele>
        <time>2022-12-27T14:55:59.734Z</time>
      </trkpt>
      <trkpt lat="44.49008" lon="-0.66508">
        <ele>123.069074</ele>
        <time>2022-12-27T14:56:01.748Z</time>
      </trkpt>
      <trkpt lat="44.49011" lon="-0.66496">
        <ele>123.082093</ele>
        <time>2022-12-27T14:56:03.742Z</time>
      </trkpt>
      <trkpt lat="44.49014" lon="-0.66484">
        <ele>123.095003</ele>
        <time>2022-12-27T14:56:05.759Z</time>
      </trkpt>
      <trkpt lat="44.49017" lon="-0.66466">
        <ele>123.114112</ele>
        <time>2022-12-27T14:56:08.755Z</time>
      </trkpt>
      <trkpt lat="44.49021" lon="-0.66448">
        <ele>123.132985</ele>
        <time>2022-12-27T14:56:11.751Z</time>
      </trkpt>
      <trkpt lat="44.49023" lon="-0.66435">
        <ele>123.146681</ele>
        <time>2022-12-27T14:56:13.750Z</time>
      </trkpt>
      <trkpt lat="44.49026" lon="-0.66422">
        <ele>123.160416</ele>
        <time>2022-12-27T14:56:15.733Z</time>
      </trkpt>
      <trkpt lat="44.49028" lon="-0.66409">
        <ele>123.174561</ele>
        <time>2022-12-27T14:56:17.749Z</time>
      </trkpt>
      <trkpt lat="44.49031" lon="-0.66396">
        <ele>123.188432</ele>
        <time>2022-12-27T14:56:19.753Z</time>
      </trkpt>
      <trkpt lat="44.49034" lon="-0.66382">
        <ele>123.203226</ele>
        <time>2022-12-27T14:56:21.752Z</time>
      </trkpt>
      <trkpt lat="44.49036" lon="-0.66368">
        <ele>123.21785</ele>
        <time>2022-12-27T14:56:23.745Z</time>
      </trkpt>
      <trkpt lat="44.49039" lon="-0.66354">
        <ele>123.232387</ele>
        <time>2022-12-27T14:56:25.750Z</time>
      </trkpt>
      <trkpt lat="44.49042" lon="-0.66341">
        <ele>123.246705</ele>
        <time>2022-12-27T14:56:27.756Z</time>
      </trkpt>
      <trkpt lat="44.49045" lon="-0.66326">
        <ele>123.262288</ele>
        <time>2022-12-27T14:56:29.750Z</time>
      </trkpt>
      <trkpt lat="44.49048" lon="-0.66312">
        <ele>123.24816</ele>
        <time>2022-12-27T14:56:31.731Z</time>
      </trkpt>
      <trkpt lat="44.49051" lon="-0.66298">
        <ele>123.198392</ele>
        <time>2022-12-27T14:56:33.750Z</time>
      </trkpt>
      <trkpt lat="44.49052" lon="-0.66286">
        <ele>123.153276</ele>
        <time>2022-12-27T14:56:35.750Z</time>
      </trkpt>
      <trkpt lat="44.49054" lon="-0.66274">
        <ele>123.108744</ele>
        <time>2022-12-27T14:56:37.752Z</time>
      </trkpt>
      <trkpt lat="44.49057" lon="-0.66261">
        <ele>123.06339</ele>
        <time>2022-12-27T14:56:39.756Z</time>
      </trkpt>
      <trkpt lat="44.4906" lon="-0.66249">
        <ele>123.018666</ele>
        <time>2022-12-27T14:56:41.751Z</time>
      </trkpt>
      <trkpt lat="44.49062" lon="-0.66236">
        <ele>122.970357</ele>
        <time>2022-12-27T14:56:43.749Z</time>
      </trkpt>
      <trkpt lat="44.49065" lon="-0.66223">
        <ele>122.923717</ele>
        <time>2022-12-27T14:56:45.754Z</time>
      </trkpt>
      <trkpt lat="44.49067" lon="-0.66209">
        <ele>122.873071</ele>
        <time>2022-12-27T14:56:47.759Z</time>
      </trkpt>
      <trkpt lat="44.4907" lon="-0.66195">
        <ele>122.82147</ele>
        <time>2022-12-27T14:56:49.752Z</time>
      </trkpt>
      <trkpt lat="44.49074" lon="-0.66181">
        <ele>122.769088</ele>
        <time>2022-12-27T14:56:51.733Z</time>
      </trkpt>
      <trkpt lat="44.49077" lon="-0.66167">
        <ele>122.717487</ele>
        <time>2022-12-27T14:56:53.751Z</time>
      </trkpt>
      <trkpt lat="44.49079" lon="-0.66153">
        <ele>122.664255</ele>
        <time>2022-12-27T14:56:55.759Z</time>
      </trkpt>
      <trkpt lat="44.49082" lon="-0.66139">
        <ele>122.61353</ele>
        <time>2022-12-27T14:56:57.752Z</time>
      </trkpt>
      <trkpt lat="44.49085" lon="-0.66124">
        <ele>122.560844</ele>
        <time>2022-12-27T14:56:59.755Z</time>
      </trkpt>
      <trkpt lat="44.49087" lon="-0.6611">
        <ele>122.509179</ele>
        <time>2022-12-27T14:57:01.754Z</time>
      </trkpt>
      <trkpt lat="44.4909" lon="-0.66096">
        <ele>122.45704</ele>
        <time>2022-12-27T14:57:03.754Z</time>
      </trkpt>
      <trkpt lat="44.49093" lon="-0.66082">
        <ele>122.404013</ele>
        <time>2022-12-27T14:57:05.752Z</time>
      </trkpt>
      <trkpt lat="44.49096" lon="-0.66066">
        <ele>122.327642</ele>
        <time>2022-12-27T14:57:07.738Z</time>
      </trkpt>
      <trkpt lat="44.49099" lon="-0.66051">
        <ele>122.241873</ele>
        <time>2022-12-27T14:57:09.753Z</time>
      </trkpt>
      <trkpt lat="44.49103" lon="-0.66038">
        <ele>122.163584</ele>
        <time>2022-12-27T14:57:11.731Z</time>
      </trkpt>
      <trkpt lat="44.49106" lon="-0.66025">
        <ele>122.088197</ele>
        <time>2022-12-27T14:57:13.750Z</time>
      </trkpt>
      <trkpt lat="44.49107" lon="-0.66013">
        <ele>122.017546</ele>
        <time>2022-12-27T14:57:15.734Z</time>
      </trkpt>
      <trkpt lat="44.49111" lon="-0.65996">
        <ele>121.917787</ele>
        <time>2022-12-27T14:57:18.754Z</time>
      </trkpt>
      <trkpt lat="44.49114" lon="-0.65984">
        <ele>121.844782</ele>
        <time>2022-12-27T14:57:20.757Z</time>
      </trkpt>
      <trkpt lat="44.49117" lon="-0.6597">
        <ele>121.764378</ele>
        <time>2022-12-27T14:57:22.749Z</time>
      </trkpt>
      <trkpt lat="44.49119" lon="-0.65956">
        <ele>121.684312</ele>
        <time>2022-12-27T14:57:24.752Z</time>
      </trkpt>
      <trkpt lat="44.49122" lon="-0.65943">
        <ele>121.607794</ele>
        <time>2022-12-27T14:57:26.757Z</time>
      </trkpt>
      <trkpt lat="44.49125" lon="-0.65929">
        <ele>121.527932</ele>
        <time>2022-12-27T14:57:28.755Z</time>
      </trkpt>
      <trkpt lat="44.49127" lon="-0.65916">
        <ele>121.450231</ele>
        <time>2022-12-27T14:57:30.754Z</time>
      </trkpt>
      <trkpt lat="44.4913" lon="-0.65902">
        <ele>121.37295</ele>
        <time>2022-12-27T14:57:32.753Z</time>
      </trkpt>
      <trkpt lat="44.49133" lon="-0.65889">
        <ele>121.295435</ele>
        <time>2022-12-27T14:57:34.731Z</time>
      </trkpt>
      <trkpt lat="44.49136" lon="-0.65875">
        <ele>121.214289</ele>
        <time>2022-12-27T14:57:36.764Z</time>
      </trkpt>
      <trkpt lat="44.49139" lon="-0.65861">
        <ele>121.132261</ele>
        <time>2022-12-27T14:57:38.752Z</time>
      </trkpt>
      <trkpt lat="44.49141" lon="-0.65847">
        <ele>121.051316</ele>
        <time>2022-12-27T14:57:40.750Z</time>
      </trkpt>
      <trkpt lat="44.49144" lon="-0.65833">
        <ele>120.969994</ele>
        <time>2022-12-27T14:57:42.744Z</time>
      </trkpt>
      <trkpt lat="44.49147" lon="-0.65819">
        <ele>120.985562</ele>
        <time>2022-12-27T14:57:44.751Z</time>
      </trkpt>
      <trkpt lat="44.4915" lon="-0.65805">
        <ele>121.00123</ele>
        <time>2022-12-27T14:57:46.752Z</time>
      </trkpt>
      <trkpt lat="44.49154" lon="-0.6579">
        <ele>121.017501</ele>
        <time>2022-12-27T14:57:48.751Z</time>
      </trkpt>
      <trkpt lat="44.49157" lon="-0.65776">
        <ele>121.033308</ele>
        <time>2022-12-27T14:57:50.752Z</time>
      </trkpt>
      <trkpt lat="44.4916" lon="-0.65763">
        <ele>121.047898</ele>
        <time>2022-12-27T14:57:52.735Z</time>
      </trkpt>
      <trkpt lat="44.49162" lon="-0.65749">
        <ele>121.062095</ele>
        <time>2022-12-27T14:57:54.755Z</time>
      </trkpt>
      <trkpt lat="44.49166" lon="-0.65732">
        <ele>121.081123</ele>
        <time>2022-12-27T14:57:57.730Z</time>
      </trkpt>
      <trkpt lat="44.4917" lon="-0.65714">
        <ele>121.100714</ele>
        <time>2022-12-27T14:58:00.745Z</time>
      </trkpt>
      <trkpt lat="44.49172" lon="-0.65701">
        <ele>121.114567</ele>
        <time>2022-12-27T14:58:02.751Z</time>
      </trkpt>
      <trkpt lat="44.49175" lon="-0.65689">
        <ele>121.128936</ele>
        <time>2022-12-27T14:58:04.751Z</time>
      </trkpt>
      <trkpt lat="44.49178" lon="-0.65675">
        <ele>121.143712</ele>
        <time>2022-12-27T14:58:06.754Z</time>
      </trkpt>
      <trkpt lat="44.4918" lon="-0.65662">
        <ele>121.157799</ele>
        <time>2022-12-27T14:58:08.756Z</time>
      </trkpt>
      <trkpt lat="44.49184" lon="-0.65649">
        <ele>121.171921</ele>
        <time>2022-12-27T14:58:10.744Z</time>
      </trkpt>
      <trkpt lat="44.49186" lon="-0.65636">
        <ele>121.18704</ele>
        <time>2022-12-27T14:58:12.749Z</time>
      </trkpt>
      <trkpt lat="44.49189" lon="-0.65622">
        <ele>121.201307</ele>
        <time>2022-12-27T14:58:14.752Z</time>
      </trkpt>
      <trkpt lat="44.49191" lon="-0.65609">
        <ele>121.216185</ele>
        <time>2022-12-27T14:58:16.760Z</time>
      </trkpt>
      <trkpt lat="44.49193" lon="-0.65596">
        <ele>121.23038</ele>
        <time>2022-12-27T14:58:18.753Z</time>
      </trkpt>
      <trkpt lat="44.49196" lon="-0.65583">
        <ele>121.20278</ele>
        <time>2022-12-27T14:58:20.761Z</time>
      </trkpt>
      <trkpt lat="44.492" lon="-0.65566">
        <ele>121.135583</ele>
        <time>2022-12-27T14:58:23.747Z</time>
      </trkpt>
      <trkpt lat="44.49203" lon="-0.65548">
        <ele>121.068259</ele>
        <time>2022-12-27T14:58:26.743Z</time>
      </trkpt>
      <trkpt lat="44.49206" lon="-0.65533">
        <ele>121.008398</ele>
        <time>2022-12-27T14:58:29.737Z</time>
      </trkpt>
      <trkpt lat="44.4921" lon="-0.65518">
        <ele>120.950442</ele>
        <time>2022-12-27T14:58:32.757Z</time>
      </trkpt>
      <trkpt lat="44.49213" lon="-0.65502">
        <ele>120.887695</ele>
        <time>2022-12-27T14:58:35.731Z</time>
      </trkpt>
      <trkpt lat="44.49217" lon="-0.65486">
        <ele>120.821817</ele>
        <time>2022-12-27T14:58:38.754Z</time>
      </trkpt>
      <trkpt lat="44.4922" lon="-0.65468">
        <ele>120.752468</ele>
        <time>2022-12-27T14:58:41.732Z</time>
      </trkpt>
      <trkpt lat="44.49222" lon="-0.65455">
        <ele>120.704822</ele>
        <time>2022-12-27T14:58:43.753Z</time>
      </trkpt>
      <trkpt lat="44.49225" lon="-0.65442">
        <ele>120.653874</ele>
        <time>2022-12-27T14:58:45.753Z</time>
      </trkpt>
      <trkpt lat="44.49227" lon="-0.65429">
        <ele>120.604232</ele>
        <time>2022-12-27T14:58:47.751Z</time>
      </trkpt>
      <trkpt lat="44.4923" lon="-0.65417">
        <ele>120.552636</ele>
        <time>2022-12-27T14:58:49.730Z</time>
      </trkpt>
      <trkpt lat="44.49233" lon="-0.65403">
        <ele>120.498226</ele>
        <time>2022-12-27T14:58:51.738Z</time>
      </trkpt>
      <trkpt lat="44.49236" lon="-0.65388">
        <ele>120.441075</ele>
        <time>2022-12-27T14:58:53.734Z</time>
      </trkpt>
      <trkpt lat="44.49239" lon="-0.65374">
        <ele>120.386795</ele>
        <time>2022-12-27T14:58:55.750Z</time>
      </trkpt>
      <trkpt lat="44.49242" lon="-0.6536">
        <ele>120.330798</ele>
        <time>2022-12-27T14:58:57.760Z</time>
      </trkpt>
      <trkpt lat="44.49246" lon="-0.65345">
        <ele>120.28349</ele>
        <time>2022-12-27T14:58:59.733Z</time>
      </trkpt>
      <trkpt lat="44.49249" lon="-0.65331">
        <ele>120.263054</ele>
        <time>2022-12-27T14:59:01.751Z</time>
      </trkpt>
      <trkpt lat="44.49252" lon="-0.65316">
        <ele>120.242699</ele>
        <time>2022-12-27T14:59:03.752Z</time>
      </trkpt>
      <trkpt lat="44.49256" lon="-0.65303">
        <ele>120.223543</ele>
        <time>2022-12-27T14:59:05.755Z</time>
      </trkpt>
      <trkpt lat="44.49259" lon="-0.65289">
        <ele>120.204057</ele>
        <time>2022-12-27T14:59:07.733Z</time>
      </trkpt>
      <trkpt lat="44.49261" lon="-0.65275">
        <ele>120.184747</ele>
        <time>2022-12-27T14:59:09.762Z</time>
      </trkpt>
      <trkpt lat="44.49263" lon="-0.6526">
        <ele>120.16479</ele>
        <time>2022-12-27T14:59:11.731Z</time>
      </trkpt>
      <trkpt lat="44.49266" lon="-0.65246">
        <ele>120.144786</ele>
        <time>2022-12-27T14:59:13.756Z</time>
      </trkpt>
      <trkpt lat="44.49269" lon="-0.65233">
        <ele>120.126561</ele>
        <time>2022-12-27T14:59:15.749Z</time>
      </trkpt>
      <trkpt lat="44.49272" lon="-0.65215">
        <ele>120.101824</ele>
        <time>2022-12-27T14:59:18.750Z</time>
      </trkpt>
      <trkpt lat="44.49274" lon="-0.65202">
        <ele>120.083859</ele>
        <time>2022-12-27T14:59:20.754Z</time>
      </trkpt>
      <trkpt lat="44.49277" lon="-0.65188">
        <ele>120.065503</ele>
        <time>2022-12-27T14:59:22.753Z</time>
      </trkpt>
      <trkpt lat="44.49279" lon="-0.65175">
        <ele>120.046885</ele>
        <time>2022-12-27T14:59:24.751Z</time>
      </trkpt>
      <trkpt lat="44.49282" lon="-0.6516">
        <ele>120.026941</ele>
        <time>2022-12-27T14:59:26.754Z</time>
      </trkpt>
      <trkpt lat="44.49284" lon="-0.65147">
        <ele>120.008021</ele>
        <time>2022-12-27T14:59:28.756Z</time>
      </trkpt>
      <trkpt lat="44.49286" lon="-0.65133">
        <ele>119.98945</ele>
        <time>2022-12-27T14:59:30.751Z</time>
      </trkpt>
      <trkpt lat="44.49289" lon="-0.65119">
        <ele>119.969816</ele>
        <time>2022-12-27T14:59:32.751Z</time>
      </trkpt>
      <trkpt lat="44.49291" lon="-0.65106">
        <ele>119.952033</ele>
        <time>2022-12-27T14:59:34.751Z</time>
      </trkpt>
      <trkpt lat="44.49293" lon="-0.65092">
        <ele>120.034613</ele>
        <time>2022-12-27T14:59:36.753Z</time>
      </trkpt>
      <trkpt lat="44.49295" lon="-0.65078">
        <ele>120.116531</ele>
        <time>2022-12-27T14:59:38.757Z</time>
      </trkpt>
      <trkpt lat="44.49296" lon="-0.65064">
        <ele>120.198351</ele>
        <time>2022-12-27T14:59:40.754Z</time>
      </trkpt>
      <trkpt lat="44.49298" lon="-0.6505">
        <ele>120.283447</ele>
        <time>2022-12-27T14:59:42.754Z</time>
      </trkpt>
      <trkpt lat="44.49301" lon="-0.65037">
        <ele>120.364176</ele>
        <time>2022-12-27T14:59:44.754Z</time>
      </trkpt>
      <trkpt lat="44.49303" lon="-0.65022">
        <ele>120.449823</ele>
        <time>2022-12-27T14:59:46.755Z</time>
      </trkpt>
      <trkpt lat="44.49303" lon="-0.65009">
        <ele>120.527691</ele>
        <time>2022-12-27T14:59:48.751Z</time>
      </trkpt>
      <trkpt lat="44.49304" lon="-0.64996">
        <ele>120.605485</ele>
        <time>2022-12-27T14:59:50.757Z</time>
      </trkpt>
      <trkpt lat="44.49306" lon="-0.64977">
        <ele>120.712849</ele>
        <time>2022-12-27T14:59:53.736Z</time>
      </trkpt>
      <trkpt lat="44.49307" lon="-0.6496">
        <ele>120.813501</ele>
        <time>2022-12-27T14:59:56.748Z</time>
      </trkpt>
      <trkpt lat="44.49307" lon="-0.64941">
        <ele>120.923105</ele>
        <time>2022-12-27T14:59:59.744Z</time>
      </trkpt>
      <trkpt lat="44.49307" lon="-0.64928">
        <ele>121.001794</ele>
        <time>2022-12-27T15:00:01.747Z</time>
      </trkpt>
      <trkpt lat="44.49308" lon="-0.64915">
        <ele>121.078305</ele>
        <time>2022-12-27T15:00:03.750Z</time>
      </trkpt>
      <trkpt lat="44.49308" lon="-0.64901">
        <ele>121.155824</ele>
        <time>2022-12-27T15:00:05.757Z</time>
      </trkpt>
      <trkpt lat="44.49308" lon="-0.64888">
        <ele>121.236262</ele>
        <time>2022-12-27T15:00:07.754Z</time>
      </trkpt>
      <trkpt lat="44.49307" lon="-0.64873">
        <ele>121.320228</ele>
        <time>2022-12-27T15:00:09.756Z</time>
      </trkpt>
      <trkpt lat="44.49307" lon="-0.64859">
        <ele>121.401844</ele>
        <time>2022-12-27T15:00:11.755Z</time>
      </trkpt>
      <trkpt lat="44.49307" lon="-0.64845">
        <ele>121.428534</ele>
        <time>2022-12-27T15:00:13.753Z</time>
      </trkpt>
      <trkpt lat="44.49307" lon="-0.6483">
        <ele>121.43764</ele>
        <time>2022-12-27T15:00:15.755Z</time>
      </trkpt>
      <trkpt lat="44.49306" lon="-0.64817">
        <ele>121.445922</ele>
        <time>2022-12-27T15:00:17.761Z</time>
      </trkpt>
      <trkpt lat="44.49305" lon="-0.64804">
        <ele>121.45411</ele>
        <time>2022-12-27T15:00:19.734Z</time>
      </trkpt>
      <trkpt lat="44.49305" lon="-0.64792">
        <ele>121.462151</ele>
        <time>2022-12-27T15:00:21.755Z</time>
      </trkpt>
      <trkpt lat="44.49302" lon="-0.64774">
        <ele>121.473246</ele>
        <time>2022-12-27T15:00:24.736Z</time>
      </trkpt>
      <trkpt lat="44.49301" lon="-0.64757">
        <ele>121.484298</ele>
        <time>2022-12-27T15:00:27.753Z</time>
      </trkpt>
      <trkpt lat="44.493" lon="-0.64741">
        <ele>121.494501</ele>
        <time>2022-12-27T15:00:30.747Z</time>
      </trkpt>
      <trkpt lat="44.49299" lon="-0.64725">
        <ele>121.504585</ele>
        <time>2022-12-27T15:00:33.753Z</time>
      </trkpt>
      <trkpt lat="44.49297" lon="-0.64709">
        <ele>121.514925</ele>
        <time>2022-12-27T15:00:36.755Z</time>
      </trkpt>
      <trkpt lat="44.49295" lon="-0.64692">
        <ele>121.525854</ele>
        <time>2022-12-27T15:00:39.754Z</time>
      </trkpt>
      <trkpt lat="44.49293" lon="-0.64675">
        <ele>121.536659</ele>
        <time>2022-12-27T15:00:42.761Z</time>
      </trkpt>
      <trkpt lat="44.49289" lon="-0.64662">
        <ele>121.545443</ele>
        <time>2022-12-27T15:00:44.753Z</time>
      </trkpt>
      <trkpt lat="44.49287" lon="-0.64643">
        <ele>121.557737</ele>
        <time>2022-12-27T15:00:47.756Z</time>
      </trkpt>
      <trkpt lat="44.49285" lon="-0.6463">
        <ele>121.566205</ele>
        <time>2022-12-27T15:00:49.755Z</time>
      </trkpt>
      <trkpt lat="44.49282" lon="-0.64616">
        <ele>121.575146</ele>
        <time>2022-12-27T15:00:51.736Z</time>
      </trkpt>
      <trkpt lat="44.4928" lon="-0.64603">
        <ele>121.581299</ele>
        <time>2022-12-27T15:00:53.754Z</time>
      </trkpt>
      <trkpt lat="44.49277" lon="-0.64589">
        <ele>121.582404</ele>
        <time>2022-12-27T15:00:55.732Z</time>
      </trkpt>
      <trkpt lat="44.49274" lon="-0.64571">
        <ele>121.583837</ele>
        <time>2022-12-27T15:00:58.749Z</time>
      </trkpt>
      <trkpt lat="44.49271" lon="-0.64558">
        <ele>121.584888</ele>
        <time>2022-12-27T15:01:00.754Z</time>
      </trkpt>
      <trkpt lat="44.49267" lon="-0.64541">
        <ele>121.586264</ele>
        <time>2022-12-27T15:01:03.751Z</time>
      </trkpt>
      <trkpt lat="44.49262" lon="-0.64526">
        <ele>121.587565</ele>
        <time>2022-12-27T15:01:06.741Z</time>
      </trkpt>
      <trkpt lat="44.49258" lon="-0.64512">
        <ele>121.588703</ele>
        <time>2022-12-27T15:01:09.752Z</time>
      </trkpt>
      <trkpt lat="44.49254" lon="-0.64498">
        <ele>121.589837</ele>
        <time>2022-12-27T15:01:12.757Z</time>
      </trkpt>
      <trkpt lat="44.4925" lon="-0.64483">
        <ele>121.591069</ele>
        <time>2022-12-27T15:01:15.747Z</time>
      </trkpt>
      <trkpt lat="44.49246" lon="-0.64469">
        <ele>121.592259</ele>
        <time>2022-12-27T15:01:18.750Z</time>
      </trkpt>
      <trkpt lat="44.49241" lon="-0.64455">
        <ele>121.593421</ele>
        <time>2022-12-27T15:01:21.734Z</time>
      </trkpt>
      <trkpt lat="44.49238" lon="-0.64442">
        <ele>121.594547</ele>
        <time>2022-12-27T15:01:24.750Z</time>
      </trkpt>
      <trkpt lat="44.49234" lon="-0.64429">
        <ele>121.595589</ele>
        <time>2022-12-27T15:01:27.752Z</time>
      </trkpt>
      <trkpt lat="44.49229" lon="-0.64416">
        <ele>121.596697</ele>
        <time>2022-12-27T15:01:30.755Z</time>
      </trkpt>
      <trkpt lat="44.49225" lon="-0.64402">
        <ele>121.5979</ele>
        <time>2022-12-27T15:01:33.751Z</time>
      </trkpt>
      <trkpt lat="44.49222" lon="-0.64388">
        <ele>121.599048</ele>
        <time>2022-12-27T15:01:36.756Z</time>
      </trkpt>
      <trkpt lat="44.49218" lon="-0.64373">
        <ele>121.600221</ele>
        <time>2022-12-27T15:01:39.756Z</time>
      </trkpt>
      <trkpt lat="44.49213" lon="-0.64358">
        <ele>121.539305</ele>
        <time>2022-12-27T15:01:42.757Z</time>
      </trkpt>
      <trkpt lat="44.49209" lon="-0.64342">
        <ele>121.466991</ele>
        <time>2022-12-27T15:01:45.758Z</time>
      </trkpt>
      <trkpt lat="44.49204" lon="-0.64326">
        <ele>121.392785</ele>
        <time>2022-12-27T15:01:48.753Z</time>
      </trkpt>
      <trkpt lat="44.492" lon="-0.64309">
        <ele>121.316375</ele>
        <time>2022-12-27T15:01:51.744Z</time>
      </trkpt>
      <trkpt lat="44.49195" lon="-0.64292">
        <ele>121.242677</ele>
        <time>2022-12-27T15:01:54.755Z</time>
      </trkpt>
      <trkpt lat="44.49191" lon="-0.6428">
        <ele>121.185121</ele>
        <time>2022-12-27T15:01:56.754Z</time>
      </trkpt>
      <trkpt lat="44.49188" lon="-0.64267">
        <ele>121.130771</ele>
        <time>2022-12-27T15:01:58.753Z</time>
      </trkpt>
      <trkpt lat="44.49184" lon="-0.64256">
        <ele>121.078013</ele>
        <time>2022-12-27T15:02:00.752Z</time>
      </trkpt>
      <trkpt lat="44.49181" lon="-0.64243">
        <ele>121.021713</ele>
        <time>2022-12-27T15:02:02.753Z</time>
      </trkpt>
      <trkpt lat="44.49178" lon="-0.64231">
        <ele>120.967751</ele>
        <time>2022-12-27T15:02:04.753Z</time>
      </trkpt>
      <trkpt lat="44.49173" lon="-0.64214">
        <ele>120.892155</ele>
        <time>2022-12-27T15:02:07.734Z</time>
      </trkpt>
      <trkpt lat="44.49168" lon="-0.64197">
        <ele>120.812764</ele>
        <time>2022-12-27T15:02:10.754Z</time>
      </trkpt>
      <trkpt lat="44.49164" lon="-0.64185">
        <ele>120.75813</ele>
        <time>2022-12-27T15:02:12.753Z</time>
      </trkpt>
      <trkpt lat="44.4916" lon="-0.64172">
        <ele>120.702009</ele>
        <time>2022-12-27T15:02:14.752Z</time>
      </trkpt>
      <trkpt lat="44.49156" lon="-0.6416">
        <ele>120.647374</ele>
        <time>2022-12-27T15:02:16.756Z</time>
      </trkpt>
      <trkpt lat="44.49151" lon="-0.64144">
        <ele>120.571986</ele>
        <time>2022-12-27T15:02:19.755Z</time>
      </trkpt>
      <trkpt lat="44.49146" lon="-0.64128">
        <ele>120.570355</ele>
        <time>2022-12-27T15:02:22.752Z</time>
      </trkpt>
      <trkpt lat="44.49143" lon="-0.64114">
        <ele>120.604091</ele>
        <time>2022-12-27T15:02:25.755Z</time>
      </trkpt>
      <trkpt lat="44.49139" lon="-0.64101">
        <ele>120.635121</ele>
        <time>2022-12-27T15:02:28.754Z</time>
      </trkpt>
      <trkpt lat="44.49135" lon="-0.64089">
        <ele>120.662918</ele>
        <time>2022-12-27T15:02:31.753Z</time>
      </trkpt>
      <trkpt lat="44.49131" lon="-0.64074">
        <ele>120.698097</ele>
        <time>2022-12-27T15:02:35.759Z</time>
      </trkpt>
      <trkpt lat="44.49126" lon="-0.64052">
        <ele>120.749012</ele>
        <time>2022-12-27T15:05:41.730Z</time>
      </trkpt>
      <trkpt lat="44.49122" lon="-0.64038">
        <ele>120.781619</ele>
        <time>2022-12-27T15:05:46.751Z</time>
      </trkpt>
      <trkpt lat="44.49117" lon="-0.64023">
        <ele>120.817063</ele>
        <time>2022-12-27T15:05:50.749Z</time>
      </trkpt>
      <trkpt lat="44.49113" lon="-0.64011">
        <ele>120.846926</ele>
        <time>2022-12-27T15:05:53.747Z</time>
      </trkpt>
      <trkpt lat="44.4911" lon="-0.63998">
        <ele>120.87552</ele>
        <time>2022-12-27T15:05:56.749Z</time>
      </trkpt>
      <trkpt lat="44.49106" lon="-0.63985">
        <ele>120.90655</ele>
        <time>2022-12-27T15:06:00.750Z</time>
      </trkpt>
      <trkpt lat="44.49101" lon="-0.63974">
        <ele>120.936112</ele>
        <time>2022-12-27T15:06:05.729Z</time>
      </trkpt>
      <trkpt lat="44.49097" lon="-0.63961">
        <ele>120.966419</ele>
        <time>2022-12-27T15:06:11.727Z</time>
      </trkpt>
      <trkpt lat="44.49094" lon="-0.63947">
        <ele>120.999294</ele>
        <time>2022-12-27T15:06:15.747Z</time>
      </trkpt>
      <trkpt lat="44.49091" lon="-0.63934">
        <ele>121.028292</ele>
        <time>2022-12-27T15:06:18.746Z</time>
      </trkpt>
      <trkpt lat="44.49086" lon="-0.63921">
        <ele>121.060304</ele>
        <time>2022-12-27T15:06:21.749Z</time>
      </trkpt>
      <trkpt lat="44.49082" lon="-0.63907">
        <ele>121.093902</ele>
        <time>2022-12-27T15:06:24.747Z</time>
      </trkpt>
      <trkpt lat="44.49078" lon="-0.63892">
        <ele>120.920219</ele>
        <time>2022-12-27T15:06:27.750Z</time>
      </trkpt>
      <trkpt lat="44.49074" lon="-0.63877">
        <ele>120.720133</ele>
        <time>2022-12-27T15:06:30.725Z</time>
      </trkpt>
      <trkpt lat="44.4907" lon="-0.6386">
        <ele>120.505088</ele>
        <time>2022-12-27T15:06:33.749Z</time>
      </trkpt>
      <trkpt lat="44.49064" lon="-0.63843">
        <ele>120.275676</ele>
        <time>2022-12-27T15:06:36.744Z</time>
      </trkpt>
      <trkpt lat="44.49061" lon="-0.63831">
        <ele>120.119183</ele>
        <time>2022-12-27T15:06:38.739Z</time>
      </trkpt>
      <trkpt lat="44.49056" lon="-0.63814">
        <ele>119.895828</ele>
        <time>2022-12-27T15:06:41.746Z</time>
      </trkpt>
      <trkpt lat="44.49051" lon="-0.63797">
        <ele>119.668592</ele>
        <time>2022-12-27T15:06:44.744Z</time>
      </trkpt>
      <trkpt lat="44.49045" lon="-0.63779">
        <ele>119.438061</ele>
        <time>2022-12-27T15:06:47.747Z</time>
      </trkpt>
      <trkpt lat="44.49041" lon="-0.63762">
        <ele>119.215553</ele>
        <time>2022-12-27T15:06:50.740Z</time>
      </trkpt>
      <trkpt lat="44.49036" lon="-0.63745">
        <ele>118.993487</ele>
        <time>2022-12-27T15:06:53.729Z</time>
      </trkpt>
      <trkpt lat="44.49033" lon="-0.63734">
        <ele>118.839053</ele>
        <time>2022-12-27T15:06:55.739Z</time>
      </trkpt>
      <trkpt lat="44.49029" lon="-0.63721">
        <ele>118.674596</ele>
        <time>2022-12-27T15:06:57.749Z</time>
      </trkpt>
      <trkpt lat="44.49026" lon="-0.63708">
        <ele>118.507247</ele>
        <time>2022-12-27T15:06:59.741Z</time>
      </trkpt>
      <trkpt lat="44.49022" lon="-0.63697">
        <ele>118.351885</ele>
        <time>2022-12-27T15:07:01.745Z</time>
      </trkpt>
      <trkpt lat="44.49018" lon="-0.63684">
        <ele>118.184209</ele>
        <time>2022-12-27T15:07:03.752Z</time>
      </trkpt>
      <trkpt lat="44.49014" lon="-0.63666">
        <ele>118.016632</ele>
        <time>2022-12-27T15:07:06.748Z</time>
      </trkpt>
      <trkpt lat="44.4901" lon="-0.63654">
        <ele>118.010997</ele>
        <time>2022-12-27T15:07:08.733Z</time>
      </trkpt>
      <trkpt lat="44.49007" lon="-0.63642">
        <ele>118.005169</ele>
        <time>2022-12-27T15:07:10.733Z</time>
      </trkpt>
      <trkpt lat="44.49003" lon="-0.6363">
        <ele>117.999412</ele>
        <time>2022-12-27T15:07:12.748Z</time>
      </trkpt>
      <trkpt lat="44.48997" lon="-0.63613">
        <ele>117.991074</ele>
        <time>2022-12-27T15:07:15.745Z</time>
      </trkpt>
      <trkpt lat="44.48993" lon="-0.63596">
        <ele>117.982937</ele>
        <time>2022-12-27T15:07:18.750Z</time>
      </trkpt>
      <trkpt lat="44.48989" lon="-0.63583">
        <ele>117.977138</ele>
        <time>2022-12-27T15:07:20.752Z</time>
      </trkpt>
      <trkpt lat="44.48986" lon="-0.63571">
        <ele>117.971339</ele>
        <time>2022-12-27T15:07:22.748Z</time>
      </trkpt>
      <trkpt lat="44.48982" lon="-0.63559">
        <ele>117.965697</ele>
        <time>2022-12-27T15:07:24.753Z</time>
      </trkpt>
      <trkpt lat="44.48979" lon="-0.63545">
        <ele>117.95901</ele>
        <time>2022-12-27T15:07:27.746Z</time>
      </trkpt>
      <trkpt lat="44.48974" lon="-0.6353">
        <ele>117.951597</ele>
        <time>2022-12-27T15:07:30.749Z</time>
      </trkpt>
      <trkpt lat="44.48969" lon="-0.63514">
        <ele>117.944013</ele>
        <time>2022-12-27T15:07:33.726Z</time>
      </trkpt>
      <trkpt lat="44.48964" lon="-0.63497">
        <ele>117.936017</ele>
        <time>2022-12-27T15:07:36.752Z</time>
      </trkpt>
      <trkpt lat="44.48959" lon="-0.63481">
        <ele>117.928288</ele>
        <time>2022-12-27T15:07:39.747Z</time>
      </trkpt>
      <trkpt lat="44.48954" lon="-0.63464">
        <ele>117.920237</ele>
        <time>2022-12-27T15:07:42.751Z</time>
      </trkpt>
      <trkpt lat="44.4895" lon="-0.63447">
        <ele>117.912411</ele>
        <time>2022-12-27T15:07:45.748Z</time>
      </trkpt>
      <trkpt lat="44.48945" lon="-0.63432">
        <ele>118.00336</ele>
        <time>2022-12-27T15:07:48.751Z</time>
      </trkpt>
      <trkpt lat="44.48943" lon="-0.6342">
        <ele>118.200114</ele>
        <time>2022-12-27T15:07:51.730Z</time>
      </trkpt>
      <trkpt lat="44.48937" lon="-0.63405">
        <ele>118.444427</ele>
        <time>2022-12-27T15:07:55.750Z</time>
      </trkpt>
      <trkpt lat="44.48933" lon="-0.63392">
        <ele>118.656253</ele>
        <time>2022-12-27T15:07:58.753Z</time>
      </trkpt>
      <trkpt lat="44.4893" lon="-0.63378">
        <ele>118.889903</ele>
        <time>2022-12-27T15:08:01.730Z</time>
      </trkpt>
      <trkpt lat="44.48925" lon="-0.63363">
        <ele>119.129455</ele>
        <time>2022-12-27T15:08:04.745Z</time>
      </trkpt>
      <trkpt lat="44.48921" lon="-0.63348">
        <ele>119.373009</ele>
        <time>2022-12-27T15:08:07.752Z</time>
      </trkpt>
      <trkpt lat="44.48917" lon="-0.63333">
        <ele>119.612395</ele>
        <time>2022-12-27T15:08:10.749Z</time>
      </trkpt>
      <trkpt lat="44.48913" lon="-0.63319">
        <ele>119.841389</ele>
        <time>2022-12-27T15:08:13.741Z</time>
      </trkpt>
      <trkpt lat="44.48909" lon="-0.63303">
        <ele>120.102753</ele>
        <time>2022-12-27T15:08:16.753Z</time>
      </trkpt>
      <trkpt lat="44.48904" lon="-0.63287">
        <ele>120.356468</ele>
        <time>2022-12-27T15:08:19.749Z</time>
      </trkpt>
      <trkpt lat="44.48899" lon="-0.63272">
        <ele>120.609861</ele>
        <time>2022-12-27T15:08:22.747Z</time>
      </trkpt>
      <trkpt lat="44.48894" lon="-0.63257">
        <ele>120.860866</ele>
        <time>2022-12-27T15:08:25.750Z</time>
      </trkpt>
      <trkpt lat="44.4889" lon="-0.63241">
        <ele>121.116496</ele>
        <time>2022-12-27T15:08:28.751Z</time>
      </trkpt>
      <trkpt lat="44.48886" lon="-0.63225">
        <ele>121.37301</ele>
        <time>2022-12-27T15:08:31.725Z</time>
      </trkpt>
      <trkpt lat="44.48881" lon="-0.6321">
        <ele>121.612814</ele>
        <time>2022-12-27T15:08:34.745Z</time>
      </trkpt>
      <trkpt lat="44.48877" lon="-0.63195">
        <ele>121.693936</ele>
        <time>2022-12-27T15:08:37.744Z</time>
      </trkpt>
      <trkpt lat="44.48872" lon="-0.6318">
        <ele>121.667777</ele>
        <time>2022-12-27T15:08:40.753Z</time>
      </trkpt>
      <trkpt lat="44.48867" lon="-0.63164">
        <ele>121.641904</ele>
        <time>2022-12-27T15:08:43.743Z</time>
      </trkpt>
      <trkpt lat="44.48863" lon="-0.63149">
        <ele>121.615832</ele>
        <time>2022-12-27T15:08:46.732Z</time>
      </trkpt>
      <trkpt lat="44.48858" lon="-0.63134">
        <ele>121.589701</ele>
        <time>2022-12-27T15:08:49.734Z</time>
      </trkpt>
      <trkpt lat="44.48854" lon="-0.63118">
        <ele>121.56359</ele>
        <time>2022-12-27T15:08:52.745Z</time>
      </trkpt>
      <trkpt lat="44.48849" lon="-0.63102">
        <ele>121.53682</ele>
        <time>2022-12-27T15:08:55.746Z</time>
      </trkpt>
      <trkpt lat="44.48845" lon="-0.63086">
        <ele>121.510353</ele>
        <time>2022-12-27T15:08:58.751Z</time>
      </trkpt>
      <trkpt lat="44.4884" lon="-0.6307">
        <ele>121.483357</ele>
        <time>2022-12-27T15:09:01.726Z</time>
      </trkpt>
      <trkpt lat="44.48836" lon="-0.63054">
        <ele>121.456957</ele>
        <time>2022-12-27T15:09:04.752Z</time>
      </trkpt>
      <trkpt lat="44.48831" lon="-0.63038">
        <ele>121.429406</ele>
        <time>2022-12-27T15:09:07.751Z</time>
      </trkpt>
      <trkpt lat="44.48828" lon="-0.63026">
        <ele>121.409172</ele>
        <time>2022-12-27T15:09:09.753Z</time>
      </trkpt>
      <trkpt lat="44.48824" lon="-0.63014">
        <ele>121.388909</ele>
        <time>2022-12-27T15:09:11.754Z</time>
      </trkpt>
      <trkpt lat="44.4882" lon="-0.63002">
        <ele>121.368989</ele>
        <time>2022-12-27T15:09:13.725Z</time>
      </trkpt>
      <trkpt lat="44.48815" lon="-0.62986">
        <ele>121.340856</ele>
        <time>2022-12-27T15:09:16.730Z</time>
      </trkpt>
      <trkpt lat="44.48811" lon="-0.62968">
        <ele>121.30448</ele>
        <time>2022-12-27T15:09:19.748Z</time>
      </trkpt>
      <trkpt lat="44.48806" lon="-0.62951">
        <ele>121.237403</ele>
        <time>2022-12-27T15:09:22.751Z</time>
      </trkpt>
      <trkpt lat="44.48802" lon="-0.62934">
        <ele>121.172402</ele>
        <time>2022-12-27T15:09:25.744Z</time>
      </trkpt>
      <trkpt lat="44.48797" lon="-0.6292">
        <ele>121.114725</ele>
        <time>2022-12-27T15:09:28.747Z</time>
      </trkpt>
      <trkpt lat="44.48793" lon="-0.62905">
        <ele>121.056683</ele>
        <time>2022-12-27T15:09:31.754Z</time>
      </trkpt>
      <trkpt lat="44.48788" lon="-0.62889">
        <ele>120.99237</ele>
        <time>2022-12-27T15:09:34.750Z</time>
      </trkpt>
      <trkpt lat="44.48785" lon="-0.62877">
        <ele>120.945848</ele>
        <time>2022-12-27T15:09:36.740Z</time>
      </trkpt>
      <trkpt lat="44.4878" lon="-0.6286">
        <ele>120.876064</ele>
        <time>2022-12-27T15:09:39.730Z</time>
      </trkpt>
      <trkpt lat="44.48775" lon="-0.62843">
        <ele>120.808819</ele>
        <time>2022-12-27T15:09:42.752Z</time>
      </trkpt>
      <trkpt lat="44.48771" lon="-0.62826">
        <ele>120.745895</ele>
        <time>2022-12-27T15:09:45.740Z</time>
      </trkpt>
      <trkpt lat="44.48767" lon="-0.62812">
        <ele>120.687983</ele>
        <time>2022-12-27T15:09:48.748Z</time>
      </trkpt>
      <trkpt lat="44.48763" lon="-0.62799">
        <ele>120.635475</ele>
        <time>2022-12-27T15:09:51.726Z</time>
      </trkpt>
      <trkpt lat="44.48759" lon="-0.62786">
        <ele>120.586068</ele>
        <time>2022-12-27T15:09:54.729Z</time>
      </trkpt>
      <trkpt lat="44.48755" lon="-0.62774">
        <ele>120.536784</ele>
        <time>2022-12-27T15:09:57.735Z</time>
      </trkpt>
      <trkpt lat="44.48751" lon="-0.62757">
        <ele>120.469192</ele>
        <time>2022-12-27T15:10:00.735Z</time>
      </trkpt>
      <trkpt lat="44.48746" lon="-0.62741">
        <ele>120.405908</ele>
        <time>2022-12-27T15:10:03.752Z</time>
      </trkpt>
      <trkpt lat="44.48743" lon="-0.62729">
        <ele>120.390337</ele>
        <time>2022-12-27T15:10:05.734Z</time>
      </trkpt>
      <trkpt lat="44.4874" lon="-0.62716">
        <ele>120.388081</ele>
        <time>2022-12-27T15:10:07.749Z</time>
      </trkpt>
      <trkpt lat="44.48737" lon="-0.62704">
        <ele>120.385859</ele>
        <time>2022-12-27T15:10:09.751Z</time>
      </trkpt>
      <trkpt lat="44.48734" lon="-0.62691">
        <ele>120.383717</ele>
        <time>2022-12-27T15:10:11.729Z</time>
      </trkpt>
      <trkpt lat="44.48731" lon="-0.62679">
        <ele>120.381549</ele>
        <time>2022-12-27T15:10:13.748Z</time>
      </trkpt>
      <trkpt lat="44.48726" lon="-0.62662">
        <ele>120.378435</ele>
        <time>2022-12-27T15:10:16.733Z</time>
      </trkpt>
      <trkpt lat="44.4872" lon="-0.62643">
        <ele>120.3751</ele>
        <time>2022-12-27T15:10:19.743Z</time>
      </trkpt>
      <trkpt lat="44.48717" lon="-0.6263">
        <ele>120.372779</ele>
        <time>2022-12-27T15:10:21.727Z</time>
      </trkpt>
      <trkpt lat="44.48713" lon="-0.62618">
        <ele>120.370551</ele>
        <time>2022-12-27T15:10:23.751Z</time>
      </trkpt>
      <trkpt lat="44.48709" lon="-0.62605">
        <ele>120.368242</ele>
        <time>2022-12-27T15:10:25.749Z</time>
      </trkpt>
      <trkpt lat="44.48705" lon="-0.62592">
        <ele>120.365854</ele>
        <time>2022-12-27T15:10:27.730Z</time>
      </trkpt>
      <trkpt lat="44.48701" lon="-0.62579">
        <ele>120.363448</ele>
        <time>2022-12-27T15:10:29.747Z</time>
      </trkpt>
      <trkpt lat="44.48697" lon="-0.62567">
        <ele>120.36128</ele>
        <time>2022-12-27T15:10:31.757Z</time>
      </trkpt>
      <trkpt lat="44.48693" lon="-0.62555">
        <ele>120.359001</ele>
        <time>2022-12-27T15:10:33.752Z</time>
      </trkpt>
      <trkpt lat="44.48689" lon="-0.62543">
        <ele>120.356763</ele>
        <time>2022-12-27T15:10:35.729Z</time>
      </trkpt>
      <trkpt lat="44.48685" lon="-0.62531">
        <ele>120.354595</ele>
        <time>2022-12-27T15:10:37.738Z</time>
      </trkpt>
      <trkpt lat="44.4868" lon="-0.62518">
        <ele>120.352201</ele>
        <time>2022-12-27T15:10:39.750Z</time>
      </trkpt>
      <trkpt lat="44.48676" lon="-0.62505">
        <ele>120.349785</ele>
        <time>2022-12-27T15:10:41.730Z</time>
      </trkpt>
      <trkpt lat="44.48672" lon="-0.62492">
        <ele>120.418045</ele>
        <time>2022-12-27T15:10:43.725Z</time>
      </trkpt>
      <trkpt lat="44.48667" lon="-0.62479">
        <ele>120.485257</ele>
        <time>2022-12-27T15:10:45.740Z</time>
      </trkpt>
      <trkpt lat="44.48662" lon="-0.62467">
        <ele>120.55382</ele>
        <time>2022-12-27T15:10:47.751Z</time>
      </trkpt>
      <trkpt lat="44.48657" lon="-0.62455">
        <ele>120.617257</ele>
        <time>2022-12-27T15:10:49.748Z</time>
      </trkpt>
      <trkpt lat="44.48653" lon="-0.62443">
        <ele>120.678732</ele>
        <time>2022-12-27T15:10:51.727Z</time>
      </trkpt>
      <trkpt lat="44.48649" lon="-0.62431">
        <ele>120.741199</ele>
        <time>2022-12-27T15:10:53.748Z</time>
      </trkpt>
      <trkpt lat="44.48645" lon="-0.6242">
        <ele>120.801284</ele>
        <time>2022-12-27T15:10:55.749Z</time>
      </trkpt>
      <trkpt lat="44.4864" lon="-0.62408">
        <ele>120.866707</ele>
        <time>2022-12-27T15:10:57.727Z</time>
      </trkpt>
      <trkpt lat="44.48635" lon="-0.62397">
        <ele>120.930659</ele>
        <time>2022-12-27T15:10:59.751Z</time>
      </trkpt>
      <trkpt lat="44.48629" lon="-0.6238">
        <ele>121.018595</ele>
        <time>2022-12-27T15:11:02.728Z</time>
      </trkpt>
      <trkpt lat="44.48625" lon="-0.62369">
        <ele>121.079222</ele>
        <time>2022-12-27T15:11:04.751Z</time>
      </trkpt>
      <trkpt lat="44.4862" lon="-0.62358">
        <ele>121.141416</ele>
        <time>2022-12-27T15:11:06.751Z</time>
      </trkpt>
      <trkpt lat="44.48616" lon="-0.62346">
        <ele>121.205184</ele>
        <time>2022-12-27T15:11:08.750Z</time>
      </trkpt>
      <trkpt lat="44.48612" lon="-0.62334">
        <ele>121.268082</ele>
        <time>2022-12-27T15:11:10.748Z</time>
      </trkpt>
      <trkpt lat="44.48607" lon="-0.62323">
        <ele>121.328103</ele>
        <time>2022-12-27T15:11:12.748Z</time>
      </trkpt>
      <trkpt lat="44.48602" lon="-0.62312">
        <ele>121.389653</ele>
        <time>2022-12-27T15:11:14.733Z</time>
      </trkpt>
      <trkpt lat="44.48598" lon="-0.62301">
        <ele>121.450611</ele>
        <time>2022-12-27T15:11:16.751Z</time>
      </trkpt>
      <trkpt lat="44.48591" lon="-0.62284">
        <ele>121.541024</ele>
        <time>2022-12-27T15:11:19.750Z</time>
      </trkpt>
      <trkpt lat="44.48586" lon="-0.62273">
        <ele>121.615179</ele>
        <time>2022-12-27T15:11:21.727Z</time>
      </trkpt>
      <trkpt lat="44.48581" lon="-0.62262">
        <ele>121.68628</ele>
        <time>2022-12-27T15:11:23.743Z</time>
      </trkpt>
      <trkpt lat="44.48574" lon="-0.62246">
        <ele>121.786812</ele>
        <time>2022-12-27T15:11:26.750Z</time>
      </trkpt>
      <trkpt lat="44.48568" lon="-0.62232">
        <ele>121.883756</ele>
        <time>2022-12-27T15:11:29.750Z</time>
      </trkpt>
      <trkpt lat="44.48561" lon="-0.62217">
        <ele>121.981052</ele>
        <time>2022-12-27T15:11:32.749Z</time>
      </trkpt>
      <trkpt lat="44.48554" lon="-0.62201">
        <ele>122.084185</ele>
        <time>2022-12-27T15:11:35.750Z</time>
      </trkpt>
      <trkpt lat="44.48547" lon="-0.62186">
        <ele>122.185925</ele>
        <time>2022-12-27T15:11:38.751Z</time>
      </trkpt>
      <trkpt lat="44.48539" lon="-0.6217">
        <ele>122.291701</ele>
        <time>2022-12-27T15:11:41.748Z</time>
      </trkpt>
      <trkpt lat="44.48534" lon="-0.62159">
        <ele>122.362278</ele>
        <time>2022-12-27T15:11:43.748Z</time>
      </trkpt>
      <trkpt lat="44.48529" lon="-0.62149">
        <ele>122.432783</ele>
        <time>2022-12-27T15:11:45.751Z</time>
      </trkpt>
      <trkpt lat="44.48521" lon="-0.62134">
        <ele>122.536276</ele>
        <time>2022-12-27T15:11:48.733Z</time>
      </trkpt>
      <trkpt lat="44.48515" lon="-0.62123">
        <ele>122.611294</ele>
        <time>2022-12-27T15:11:50.751Z</time>
      </trkpt>
      <trkpt lat="44.4851" lon="-0.62112">
        <ele>122.685412</ele>
        <time>2022-12-27T15:11:52.750Z</time>
      </trkpt>
      <trkpt lat="44.48505" lon="-0.62101">
        <ele>122.757718</ele>
        <time>2022-12-27T15:11:54.753Z</time>
      </trkpt>
      <trkpt lat="44.48499" lon="-0.62091">
        <ele>122.829567</ele>
        <time>2022-12-27T15:11:56.751Z</time>
      </trkpt>
      <trkpt lat="44.48494" lon="-0.62081">
        <ele>122.900617</ele>
        <time>2022-12-27T15:11:58.751Z</time>
      </trkpt>
      <trkpt lat="44.48488" lon="-0.6207">
        <ele>122.93724</ele>
        <time>2022-12-27T15:12:00.728Z</time>
      </trkpt>
      <trkpt lat="44.48479" lon="-0.62055">
        <ele>122.904053</ele>
        <time>2022-12-27T15:12:03.726Z</time>
      </trkpt>
      <trkpt lat="44.48474" lon="-0.62045">
        <ele>122.881031</ele>
        <time>2022-12-27T15:12:05.730Z</time>
      </trkpt>
      <trkpt lat="44.48468" lon="-0.62033">
        <ele>122.856586</ele>
        <time>2022-12-27T15:12:07.749Z</time>
      </trkpt>
      <trkpt lat="44.48462" lon="-0.62023">
        <ele>122.833278</ele>
        <time>2022-12-27T15:12:09.725Z</time>
      </trkpt>
      <trkpt lat="44.48456" lon="-0.62013">
        <ele>122.810893</ele>
        <time>2022-12-27T15:12:11.729Z</time>
      </trkpt>
      <trkpt lat="44.48448" lon="-0.61999">
        <ele>122.779541</ele>
        <time>2022-12-27T15:12:14.750Z</time>
      </trkpt>
      <trkpt lat="44.48442" lon="-0.61989">
        <ele>122.757177</ele>
        <time>2022-12-27T15:12:16.751Z</time>
      </trkpt>
      <trkpt lat="44.48434" lon="-0.61976">
        <ele>122.727631</ele>
        <time>2022-12-27T15:12:19.746Z</time>
      </trkpt>
      <trkpt lat="44.48427" lon="-0.61962">
        <ele>122.696345</ele>
        <time>2022-12-27T15:12:22.754Z</time>
      </trkpt>
      <trkpt lat="44.48418" lon="-0.61948">
        <ele>122.663828</ele>
        <time>2022-12-27T15:12:25.751Z</time>
      </trkpt>
      <trkpt lat="44.48412" lon="-0.61939">
        <ele>122.641608</ele>
        <time>2022-12-27T15:12:27.734Z</time>
      </trkpt>
      <trkpt lat="44.48405" lon="-0.61928">
        <ele>122.617602</ele>
        <time>2022-12-27T15:12:29.747Z</time>
      </trkpt>
      <trkpt lat="44.48396" lon="-0.61915">
        <ele>122.585474</ele>
        <time>2022-12-27T15:12:32.752Z</time>
      </trkpt>
      <trkpt lat="44.4839" lon="-0.61905">
        <ele>122.562239</ele>
        <time>2022-12-27T15:12:34.751Z</time>
      </trkpt>
      <trkpt lat="44.48381" lon="-0.61891">
        <ele>122.529899</ele>
        <time>2022-12-27T15:12:37.744Z</time>
      </trkpt>
      <trkpt lat="44.48375" lon="-0.61881">
        <ele>122.505907</ele>
        <time>2022-12-27T15:12:39.746Z</time>
      </trkpt>
      <trkpt lat="44.48365" lon="-0.61869">
        <ele>122.409414</ele>
        <time>2022-12-27T15:12:42.747Z</time>
      </trkpt>
      <trkpt lat="44.48356" lon="-0.61855">
        <ele>122.306561</ele>
        <time>2022-12-27T15:12:45.752Z</time>
      </trkpt>
      <trkpt lat="44.48346" lon="-0.61842">
        <ele>122.203016</ele>
        <time>2022-12-27T15:12:48.730Z</time>
      </trkpt>
      <trkpt lat="44.4834" lon="-0.61832">
        <ele>122.13128</ele>
        <time>2022-12-27T15:12:50.754Z</time>
      </trkpt>
      <trkpt lat="44.48331" lon="-0.61818">
        <ele>122.026711</ele>
        <time>2022-12-27T15:12:53.751Z</time>
      </trkpt>
      <trkpt lat="44.48324" lon="-0.61808">
        <ele>121.952331</ele>
        <time>2022-12-27T15:12:55.749Z</time>
      </trkpt>
      <trkpt lat="44.48317" lon="-0.61798">
        <ele>121.875726</ele>
        <time>2022-12-27T15:12:57.751Z</time>
      </trkpt>
      <trkpt lat="44.48311" lon="-0.61788">
        <ele>121.803778</ele>
        <time>2022-12-27T15:12:59.750Z</time>
      </trkpt>
      <trkpt lat="44.48304" lon="-0.61779">
        <ele>121.731462</ele>
        <time>2022-12-27T15:13:01.726Z</time>
      </trkpt>
      <trkpt lat="44.48297" lon="-0.61769">
        <ele>121.654641</ele>
        <time>2022-12-27T15:13:03.751Z</time>
      </trkpt>
      <trkpt lat="44.48287" lon="-0.61756">
        <ele>121.551005</ele>
        <time>2022-12-27T15:13:06.749Z</time>
      </trkpt>
      <trkpt lat="44.4828" lon="-0.61748">
        <ele>121.480527</ele>
        <time>2022-12-27T15:13:08.749Z</time>
      </trkpt>
      <trkpt lat="44.48271" lon="-0.61734">
        <ele>121.378071</ele>
        <time>2022-12-27T15:13:11.731Z</time>
      </trkpt>
      <trkpt lat="44.48264" lon="-0.61725">
        <ele>121.305381</ele>
        <time>2022-12-27T15:13:13.750Z</time>
      </trkpt>
      <trkpt lat="44.48257" lon="-0.61714">
        <ele>121.229074</ele>
        <time>2022-12-27T15:13:15.735Z</time>
      </trkpt>
      <trkpt lat="44.4825" lon="-0.61705">
        <ele>121.152295</ele>
        <time>2022-12-27T15:13:17.733Z</time>
      </trkpt>
      <trkpt lat="44.48243" lon="-0.61696">
        <ele>121.211991</ele>
        <time>2022-12-27T15:13:19.749Z</time>
      </trkpt>
      <trkpt lat="44.48236" lon="-0.61687">
        <ele>121.322016</ele>
        <time>2022-12-27T15:13:21.746Z</time>
      </trkpt>
      <trkpt lat="44.4823" lon="-0.61677">
        <ele>121.433455</ele>
        <time>2022-12-27T15:13:23.749Z</time>
      </trkpt>
      <trkpt lat="44.48223" lon="-0.61668">
        <ele>121.54549</ele>
        <time>2022-12-27T15:13:25.734Z</time>
      </trkpt>
      <trkpt lat="44.48216" lon="-0.61659">
        <ele>121.654332</ele>
        <time>2022-12-27T15:13:27.732Z</time>
      </trkpt>
      <trkpt lat="44.48209" lon="-0.6165">
        <ele>121.761747</ele>
        <time>2022-12-27T15:13:29.749Z</time>
      </trkpt>
      <trkpt lat="44.48203" lon="-0.61642">
        <ele>121.869162</ele>
        <time>2022-12-27T15:13:31.730Z</time>
      </trkpt>
      <trkpt lat="44.48193" lon="-0.61629">
        <ele>122.023575</ele>
        <time>2022-12-27T15:13:34.753Z</time>
      </trkpt>
      <trkpt lat="44.48184" lon="-0.61615">
        <ele>122.183774</ele>
        <time>2022-12-27T15:13:37.746Z</time>
      </trkpt>
      <trkpt lat="44.48174" lon="-0.61603">
        <ele>122.33329</ele>
        <time>2022-12-27T15:13:40.751Z</time>
      </trkpt>
      <trkpt lat="44.48165" lon="-0.6159">
        <ele>122.481695</ele>
        <time>2022-12-27T15:13:43.752Z</time>
      </trkpt>
      <trkpt lat="44.48156" lon="-0.61577">
        <ele>122.63436</ele>
        <time>2022-12-27T15:13:46.740Z</time>
      </trkpt>
      <trkpt lat="44.48146" lon="-0.61565">
        <ele>122.786187</ele>
        <time>2022-12-27T15:13:49.731Z</time>
      </trkpt>
      <trkpt lat="44.48138" lon="-0.61553">
        <ele>122.93009</ele>
        <time>2022-12-27T15:13:52.748Z</time>
      </trkpt>
      <trkpt lat="44.48129" lon="-0.6154">
        <ele>123.082256</ele>
        <time>2022-12-27T15:13:55.749Z</time>
      </trkpt>
      <trkpt lat="44.4812" lon="-0.61527">
        <ele>123.230411</ele>
        <time>2022-12-27T15:13:58.749Z</time>
      </trkpt>
      <trkpt lat="44.4811" lon="-0.61514">
        <ele>123.472866</ele>
        <time>2022-12-27T15:14:01.727Z</time>
      </trkpt>
      <trkpt lat="44.48101" lon="-0.61501">
        <ele>123.719757</ele>
        <time>2022-12-27T15:14:04.750Z</time>
      </trkpt>
      <trkpt lat="44.48092" lon="-0.61489">
        <ele>123.95187</ele>
        <time>2022-12-27T15:14:07.748Z</time>
      </trkpt>
      <trkpt lat="44.48084" lon="-0.61478">
        <ele>124.156148</ele>
        <time>2022-12-27T15:14:10.750Z</time>
      </trkpt>
      <trkpt lat="44.48077" lon="-0.61468">
        <ele>124.347064</ele>
        <time>2022-12-27T15:14:13.749Z</time>
      </trkpt>
      <trkpt lat="44.48069" lon="-0.61458">
        <ele>124.553079</ele>
        <time>2022-12-27T15:14:16.729Z</time>
      </trkpt>
      <trkpt lat="44.48061" lon="-0.61446">
        <ele>124.762808</ele>
        <time>2022-12-27T15:14:19.745Z</time>
      </trkpt>
      <trkpt lat="44.48053" lon="-0.61436">
        <ele>124.977235</ele>
        <time>2022-12-27T15:14:22.749Z</time>
      </trkpt>
      <trkpt lat="44.48045" lon="-0.61425">
        <ele>125.191946</ele>
        <time>2022-12-27T15:14:25.749Z</time>
      </trkpt>
      <trkpt lat="44.48035" lon="-0.61412">
        <ele>125.428093</ele>
        <time>2022-12-27T15:14:28.750Z</time>
      </trkpt>
      <trkpt lat="44.48026" lon="-0.614">
        <ele>125.67213</ele>
        <time>2022-12-27T15:14:31.728Z</time>
      </trkpt>
      <trkpt lat="44.48016" lon="-0.61387">
        <ele>125.927477</ele>
        <time>2022-12-27T15:14:34.749Z</time>
      </trkpt>
      <trkpt lat="44.4801" lon="-0.61378">
        <ele>126.099761</ele>
        <time>2022-12-27T15:14:36.748Z</time>
      </trkpt>
      <trkpt lat="44.48003" lon="-0.61368">
        <ele>126.275264</ele>
        <time>2022-12-27T15:14:38.750Z</time>
      </trkpt>
      <trkpt lat="44.47996" lon="-0.61359">
        <ele>126.460801</ele>
        <time>2022-12-27T15:14:40.740Z</time>
      </trkpt>
      <trkpt lat="44.4799" lon="-0.61349">
        <ele>126.614052</ele>
        <time>2022-12-27T15:14:42.754Z</time>
      </trkpt>
      <trkpt lat="44.47983" lon="-0.6134">
        <ele>126.64712</ele>
        <time>2022-12-27T15:14:44.759Z</time>
      </trkpt>
      <trkpt lat="44.47976" lon="-0.61331">
        <ele>126.680282</ele>
        <time>2022-12-27T15:14:46.729Z</time>
      </trkpt>
      <trkpt lat="44.4797" lon="-0.61321">
        <ele>126.714406</ele>
        <time>2022-12-27T15:14:48.750Z</time>
      </trkpt>
      <trkpt lat="44.47963" lon="-0.61312">
        <ele>126.74756</ele>
        <time>2022-12-27T15:14:50.750Z</time>
      </trkpt>
      <trkpt lat="44.47956" lon="-0.61303">
        <ele>126.781747</ele>
        <time>2022-12-27T15:14:52.749Z</time>
      </trkpt>
      <trkpt lat="44.47949" lon="-0.61294">
        <ele>126.814129</ele>
        <time>2022-12-27T15:14:54.752Z</time>
      </trkpt>
      <trkpt lat="44.47942" lon="-0.61285">
        <ele>126.847646</ele>
        <time>2022-12-27T15:14:56.756Z</time>
      </trkpt>
      <trkpt lat="44.47933" lon="-0.61272">
        <ele>126.895018</ele>
        <time>2022-12-27T15:14:59.734Z</time>
      </trkpt>
      <trkpt lat="44.47923" lon="-0.61258">
        <ele>126.944562</ele>
        <time>2022-12-27T15:15:02.749Z</time>
      </trkpt>
      <trkpt lat="44.47916" lon="-0.61248">
        <ele>126.978664</ele>
        <time>2022-12-27T15:15:04.750Z</time>
      </trkpt>
      <trkpt lat="44.47909" lon="-0.6124">
        <ele>127.011409</ele>
        <time>2022-12-27T15:15:06.752Z</time>
      </trkpt>
      <trkpt lat="44.47902" lon="-0.61231">
        <ele>127.045255</ele>
        <time>2022-12-27T15:15:08.745Z</time>
      </trkpt>
      <trkpt lat="44.47895" lon="-0.61222">
        <ele>127.078322</ele>
        <time>2022-12-27T15:15:10.751Z</time>
      </trkpt>
      <trkpt lat="44.47889" lon="-0.61212">
        <ele>127.111591</ele>
        <time>2022-12-27T15:15:12.747Z</time>
      </trkpt>
      <trkpt lat="44.47879" lon="-0.61199">
        <ele>127.157353</ele>
        <time>2022-12-27T15:15:15.752Z</time>
      </trkpt>
      <trkpt lat="44.4787" lon="-0.61186">
        <ele>127.203902</ele>
        <time>2022-12-27T15:15:18.749Z</time>
      </trkpt>
      <trkpt lat="44.4786" lon="-0.61173">
        <ele>127.253166</ele>
        <time>2022-12-27T15:15:21.730Z</time>
      </trkpt>
      <trkpt lat="44.47851" lon="-0.6116">
        <ele>127.310297</ele>
        <time>2022-12-27T15:15:24.747Z</time>
      </trkpt>
      <trkpt lat="44.47845" lon="-0.61151">
        <ele>127.348876</ele>
        <time>2022-12-27T15:15:26.749Z</time>
      </trkpt>
      <trkpt lat="44.47838" lon="-0.61142">
        <ele>127.389805</ele>
        <time>2022-12-27T15:15:28.747Z</time>
      </trkpt>
      <trkpt lat="44.47831" lon="-0.61132">
        <ele>127.429951</ele>
        <time>2022-12-27T15:15:30.747Z</time>
      </trkpt>
      <trkpt lat="44.47824" lon="-0.61124">
        <ele>127.470006</ele>
        <time>2022-12-27T15:15:32.742Z</time>
      </trkpt>
      <trkpt lat="44.47817" lon="-0.61115">
        <ele>127.511509</ele>
        <time>2022-12-27T15:15:34.761Z</time>
      </trkpt>
      <trkpt lat="44.4781" lon="-0.61106">
        <ele>127.550512</ele>
        <time>2022-12-27T15:15:36.753Z</time>
      </trkpt>
      <trkpt lat="44.47804" lon="-0.61097">
        <ele>127.589922</ele>
        <time>2022-12-27T15:15:38.755Z</time>
      </trkpt>
      <trkpt lat="44.47797" lon="-0.61088">
        <ele>127.630282</ele>
        <time>2022-12-27T15:15:40.747Z</time>
      </trkpt>
      <trkpt lat="44.4779" lon="-0.61079">
        <ele>127.671074</ele>
        <time>2022-12-27T15:15:42.750Z</time>
      </trkpt>
      <trkpt lat="44.47784" lon="-0.6107">
        <ele>127.710281</ele>
        <time>2022-12-27T15:15:44.750Z</time>
      </trkpt>
      <trkpt lat="44.47777" lon="-0.61062">
        <ele>127.748759</ele>
        <time>2022-12-27T15:15:46.754Z</time>
      </trkpt>
      <trkpt lat="44.4777" lon="-0.61053">
        <ele>127.791527</ele>
        <time>2022-12-27T15:15:48.754Z</time>
      </trkpt>
      <trkpt lat="44.47763" lon="-0.61043">
        <ele>127.832625</ele>
        <time>2022-12-27T15:15:50.750Z</time>
      </trkpt>
      <trkpt lat="44.47756" lon="-0.61034">
        <ele>127.87287</ele>
        <time>2022-12-27T15:15:52.753Z</time>
      </trkpt>
      <trkpt lat="44.47749" lon="-0.61024">
        <ele>127.91521</ele>
        <time>2022-12-27T15:15:54.746Z</time>
      </trkpt>
      <trkpt lat="44.47743" lon="-0.61015">
        <ele>127.954139</ele>
        <time>2022-12-27T15:15:56.750Z</time>
      </trkpt>
      <trkpt lat="44.47734" lon="-0.61002">
        <ele>128.008573</ele>
        <time>2022-12-27T15:15:59.746Z</time>
      </trkpt>
      <trkpt lat="44.47725" lon="-0.6099">
        <ele>128.032782</ele>
        <time>2022-12-27T15:16:02.753Z</time>
      </trkpt>
      <trkpt lat="44.47716" lon="-0.60978">
        <ele>128.049888</ele>
        <time>2022-12-27T15:16:05.751Z</time>
      </trkpt>
      <trkpt lat="44.47707" lon="-0.60965">
        <ele>128.067456</ele>
        <time>2022-12-27T15:16:08.752Z</time>
      </trkpt>
      <trkpt lat="44.47698" lon="-0.60953">
        <ele>128.084362</ele>
        <time>2022-12-27T15:16:11.751Z</time>
      </trkpt>
      <trkpt lat="44.47689" lon="-0.60942">
        <ele>128.100712</ele>
        <time>2022-12-27T15:16:14.758Z</time>
      </trkpt>
      <trkpt lat="44.4768" lon="-0.60929">
        <ele>128.117643</ele>
        <time>2022-12-27T15:16:17.749Z</time>
      </trkpt>
      <trkpt lat="44.47671" lon="-0.60916">
        <ele>128.135039</ele>
        <time>2022-12-27T15:16:20.751Z</time>
      </trkpt>
      <trkpt lat="44.47665" lon="-0.60907">
        <ele>128.147327</ele>
        <time>2022-12-27T15:16:22.748Z</time>
      </trkpt>
      <trkpt lat="44.47658" lon="-0.60898">
        <ele>128.159867</ele>
        <time>2022-12-27T15:16:24.747Z</time>
      </trkpt>
      <trkpt lat="44.47651" lon="-0.60888">
        <ele>128.172576</ele>
        <time>2022-12-27T15:16:26.753Z</time>
      </trkpt>
      <trkpt lat="44.47645" lon="-0.60879">
        <ele>128.184864</ele>
        <time>2022-12-27T15:16:28.753Z</time>
      </trkpt>
      <trkpt lat="44.47634" lon="-0.60867">
        <ele>128.203063</ele>
        <time>2022-12-27T15:16:31.750Z</time>
      </trkpt>
      <trkpt lat="44.47627" lon="-0.60859">
        <ele>128.215421</ele>
        <time>2022-12-27T15:16:33.749Z</time>
      </trkpt>
      <trkpt lat="44.4762" lon="-0.60849">
        <ele>128.228717</ele>
        <time>2022-12-27T15:16:35.750Z</time>
      </trkpt>
      <trkpt lat="44.47613" lon="-0.60839">
        <ele>128.242447</ele>
        <time>2022-12-27T15:16:37.750Z</time>
      </trkpt>
      <trkpt lat="44.47606" lon="-0.60829">
        <ele>128.255842</ele>
        <time>2022-12-27T15:16:39.750Z</time>
      </trkpt>
      <trkpt lat="44.47596" lon="-0.60816">
        <ele>128.302166</ele>
        <time>2022-12-27T15:16:42.754Z</time>
      </trkpt>
      <trkpt lat="44.47589" lon="-0.60806">
        <ele>128.345754</ele>
        <time>2022-12-27T15:16:44.751Z</time>
      </trkpt>
      <trkpt lat="44.47582" lon="-0.60795">
        <ele>128.389114</ele>
        <time>2022-12-27T15:16:46.729Z</time>
      </trkpt>
      <trkpt lat="44.47575" lon="-0.60785">
        <ele>128.433818</ele>
        <time>2022-12-27T15:16:48.750Z</time>
      </trkpt>
      <trkpt lat="44.47568" lon="-0.60776">
        <ele>128.475947</ele>
        <time>2022-12-27T15:16:50.753Z</time>
      </trkpt>
      <trkpt lat="44.47562" lon="-0.60766">
        <ele>128.515374</ele>
        <time>2022-12-27T15:16:52.750Z</time>
      </trkpt>
      <trkpt lat="44.47555" lon="-0.60756">
        <ele>128.559499</ele>
        <time>2022-12-27T15:16:54.752Z</time>
      </trkpt>
      <trkpt lat="44.47545" lon="-0.60744">
        <ele>128.615208</ele>
        <time>2022-12-27T15:16:57.729Z</time>
      </trkpt>
      <trkpt lat="44.47538" lon="-0.60735">
        <ele>128.65566</ele>
        <time>2022-12-27T15:16:59.750Z</time>
      </trkpt>
      <trkpt lat="44.47531" lon="-0.60726">
        <ele>128.696214</ele>
        <time>2022-12-27T15:17:01.732Z</time>
      </trkpt>
      <trkpt lat="44.47525" lon="-0.60717">
        <ele>128.735937</ele>
        <time>2022-12-27T15:17:03.731Z</time>
      </trkpt>
      <trkpt lat="44.47518" lon="-0.60709">
        <ele>128.77586</ele>
        <time>2022-12-27T15:17:05.750Z</time>
      </trkpt>
      <trkpt lat="44.47511" lon="-0.60699">
        <ele>128.817878</ele>
        <time>2022-12-27T15:17:07.744Z</time>
      </trkpt>
      <trkpt lat="44.47504" lon="-0.6069">
        <ele>128.857692</ele>
        <time>2022-12-27T15:17:09.730Z</time>
      </trkpt>
      <trkpt lat="44.47495" lon="-0.60677">
        <ele>128.915195</ele>
        <time>2022-12-27T15:17:12.751Z</time>
      </trkpt>
      <trkpt lat="44.47486" lon="-0.60666">
        <ele>128.967113</ele>
        <time>2022-12-27T15:17:15.752Z</time>
      </trkpt>
      <trkpt lat="44.47477" lon="-0.60654">
        <ele>129.020413</ele>
        <time>2022-12-27T15:17:18.747Z</time>
      </trkpt>
      <trkpt lat="44.47468" lon="-0.60641">
        <ele>129.019468</ele>
        <time>2022-12-27T15:17:21.728Z</time>
      </trkpt>
      <trkpt lat="44.47461" lon="-0.60631">
        <ele>128.996634</ele>
        <time>2022-12-27T15:17:23.739Z</time>
      </trkpt>
      <trkpt lat="44.47454" lon="-0.60621">
        <ele>128.975908</ele>
        <time>2022-12-27T15:17:25.738Z</time>
      </trkpt>
      <trkpt lat="44.47446" lon="-0.60611">
        <ele>128.949879</ele>
        <time>2022-12-27T15:17:28.748Z</time>
      </trkpt>
      <trkpt lat="44.47436" lon="-0.60598">
        <ele>128.91921</ele>
        <time>2022-12-27T15:17:31.754Z</time>
      </trkpt>
      <trkpt lat="44.4743" lon="-0.60588">
        <ele>128.898178</ele>
        <time>2022-12-27T15:17:33.748Z</time>
      </trkpt>
      <trkpt lat="44.47421" lon="-0.60577">
        <ele>128.870052</ele>
        <time>2022-12-27T15:17:36.752Z</time>
      </trkpt>
      <trkpt lat="44.47414" lon="-0.60568">
        <ele>128.848241</ele>
        <time>2022-12-27T15:17:38.752Z</time>
      </trkpt>
      <trkpt lat="44.47406" lon="-0.60558">
        <ele>128.824713</ele>
        <time>2022-12-27T15:17:40.747Z</time>
      </trkpt>
      <trkpt lat="44.47399" lon="-0.60548">
        <ele>128.802459</ele>
        <time>2022-12-27T15:17:42.754Z</time>
      </trkpt>
      <trkpt lat="44.47392" lon="-0.60538">
        <ele>128.7799</ele>
        <time>2022-12-27T15:17:44.754Z</time>
      </trkpt>
      <trkpt lat="44.47386" lon="-0.60528">
        <ele>128.758115</ele>
        <time>2022-12-27T15:17:46.750Z</time>
      </trkpt>
      <trkpt lat="44.47377" lon="-0.60517">
        <ele>128.730492</ele>
        <time>2022-12-27T15:17:49.750Z</time>
      </trkpt>
      <trkpt lat="44.47369" lon="-0.60506">
        <ele>128.706187</ele>
        <time>2022-12-27T15:17:52.750Z</time>
      </trkpt>
      <trkpt lat="44.47362" lon="-0.60497">
        <ele>128.685318</ele>
        <time>2022-12-27T15:17:55.751Z</time>
      </trkpt>
      <trkpt lat="44.47356" lon="-0.60488">
        <ele>128.663999</ele>
        <time>2022-12-27T15:17:59.742Z</time>
      </trkpt>
      <trkpt lat="44.47349" lon="-0.60479">
        <ele>128.642465</ele>
        <time>2022-12-27T15:18:02.750Z</time>
      </trkpt>
      <trkpt lat="44.47341" lon="-0.60469">
        <ele>128.59426</ele>
        <time>2022-12-27T15:18:05.750Z</time>
      </trkpt>
      <trkpt lat="44.47333" lon="-0.60456">
        <ele>128.51375</ele>
        <time>2022-12-27T15:18:08.744Z</time>
      </trkpt>
      <trkpt lat="44.47324" lon="-0.60442">
        <ele>128.423006</ele>
        <time>2022-12-27T15:18:11.732Z</time>
      </trkpt>
      <trkpt lat="44.47314" lon="-0.60429">
        <ele>128.334897</ele>
        <time>2022-12-27T15:18:14.755Z</time>
      </trkpt>
      <trkpt lat="44.47307" lon="-0.60422">
        <ele>128.274973</ele>
        <time>2022-12-27T15:18:16.750Z</time>
      </trkpt>
      <trkpt lat="44.47299" lon="-0.60412">
        <ele>128.20479</ele>
        <time>2022-12-27T15:18:18.755Z</time>
      </trkpt>
      <trkpt lat="44.47292" lon="-0.60403">
        <ele>128.141102</ele>
        <time>2022-12-27T15:18:20.754Z</time>
      </trkpt>
      <trkpt lat="44.47282" lon="-0.6039">
        <ele>128.050282</ele>
        <time>2022-12-27T15:18:23.746Z</time>
      </trkpt>
      <trkpt lat="44.47276" lon="-0.6038">
        <ele>127.986123</ele>
        <time>2022-12-27T15:18:25.746Z</time>
      </trkpt>
      <trkpt lat="44.47269" lon="-0.60372">
        <ele>127.92525</ele>
        <time>2022-12-27T15:18:27.737Z</time>
      </trkpt>
      <trkpt lat="44.4726" lon="-0.60358">
        <ele>127.834971</ele>
        <time>2022-12-27T15:18:30.753Z</time>
      </trkpt>
      <trkpt lat="44.47252" lon="-0.60349">
        <ele>127.770679</ele>
        <time>2022-12-27T15:18:32.742Z</time>
      </trkpt>
      <trkpt lat="44.47245" lon="-0.60338">
        <ele>127.696985</ele>
        <time>2022-12-27T15:18:34.750Z</time>
      </trkpt>
      <trkpt lat="44.47237" lon="-0.60328">
        <ele>127.628464</ele>
        <time>2022-12-27T15:18:36.749Z</time>
      </trkpt>
      <trkpt lat="44.4723" lon="-0.60319">
        <ele>127.561727</ele>
        <time>2022-12-27T15:18:38.750Z</time>
      </trkpt>
      <trkpt lat="44.47222" lon="-0.60308">
        <ele>127.4893</ele>
        <time>2022-12-27T15:18:40.748Z</time>
      </trkpt>
      <trkpt lat="44.47213" lon="-0.60296">
        <ele>127.449587</ele>
        <time>2022-12-27T15:18:43.750Z</time>
      </trkpt>
      <trkpt lat="44.47204" lon="-0.60284">
        <ele>127.518932</ele>
        <time>2022-12-27T15:18:46.750Z</time>
      </trkpt>
      <trkpt lat="44.47195" lon="-0.60271">
        <ele>127.589411</ele>
        <time>2022-12-27T15:18:49.748Z</time>
      </trkpt>
      <trkpt lat="44.47189" lon="-0.6026">
        <ele>127.646254</ele>
        <time>2022-12-27T15:18:51.740Z</time>
      </trkpt>
      <trkpt lat="44.47182" lon="-0.60252">
        <ele>127.697014</ele>
        <time>2022-12-27T15:18:53.733Z</time>
      </trkpt>
      <trkpt lat="44.47174" lon="-0.60243">
        <ele>127.757878</ele>
        <time>2022-12-27T15:18:56.755Z</time>
      </trkpt>
      <trkpt lat="44.47167" lon="-0.60233">
        <ele>127.814729</ele>
        <time>2022-12-27T15:18:58.753Z</time>
      </trkpt>
      <trkpt lat="44.47159" lon="-0.60223">
        <ele>127.870866</ele>
        <time>2022-12-27T15:19:00.754Z</time>
      </trkpt>
      <trkpt lat="44.47153" lon="-0.60213">
        <ele>127.926147</ele>
        <time>2022-12-27T15:19:02.749Z</time>
      </trkpt>
      <trkpt lat="44.47145" lon="-0.60204">
        <ele>127.980793</ele>
        <time>2022-12-27T15:19:04.751Z</time>
      </trkpt>
      <trkpt lat="44.47138" lon="-0.60194">
        <ele>128.040224</ele>
        <time>2022-12-27T15:19:06.756Z</time>
      </trkpt>
      <trkpt lat="44.47131" lon="-0.60185">
        <ele>128.09349</ele>
        <time>2022-12-27T15:19:08.750Z</time>
      </trkpt>
      <trkpt lat="44.47123" lon="-0.60176">
        <ele>128.151129</ele>
        <time>2022-12-27T15:19:10.751Z</time>
      </trkpt>
      <trkpt lat="44.47116" lon="-0.60166">
        <ele>128.207808</ele>
        <time>2022-12-27T15:19:12.746Z</time>
      </trkpt>
      <trkpt lat="44.47108" lon="-0.60156">
        <ele>128.26531</ele>
        <time>2022-12-27T15:19:14.757Z</time>
      </trkpt>
      <trkpt lat="44.47101" lon="-0.60148">
        <ele>128.319002</ele>
        <time>2022-12-27T15:19:16.745Z</time>
      </trkpt>
      <trkpt lat="44.47094" lon="-0.60138">
        <ele>128.374485</ele>
        <time>2022-12-27T15:19:18.747Z</time>
      </trkpt>
      <trkpt lat="44.47087" lon="-0.60129">
        <ele>128.42843</ele>
        <time>2022-12-27T15:19:20.728Z</time>
      </trkpt>
      <trkpt lat="44.4708" lon="-0.60119">
        <ele>128.474436</ele>
        <time>2022-12-27T15:19:22.759Z</time>
      </trkpt>
      <trkpt lat="44.47073" lon="-0.60108">
        <ele>128.516047</ele>
        <time>2022-12-27T15:19:24.753Z</time>
      </trkpt>
      <trkpt lat="44.47065" lon="-0.60098">
        <ele>128.558321</ele>
        <time>2022-12-27T15:19:26.746Z</time>
      </trkpt>
      <trkpt lat="44.47058" lon="-0.60089">
        <ele>128.597723</ele>
        <time>2022-12-27T15:19:28.750Z</time>
      </trkpt>
      <trkpt lat="44.47051" lon="-0.60079">
        <ele>128.639047</ele>
        <time>2022-12-27T15:19:30.753Z</time>
      </trkpt>
      <trkpt lat="44.47044" lon="-0.60069">
        <ele>128.679959</ele>
        <time>2022-12-27T15:19:32.743Z</time>
      </trkpt>
      <trkpt lat="44.47036" lon="-0.60059">
        <ele>128.723334</ele>
        <time>2022-12-27T15:19:34.730Z</time>
      </trkpt>
      <trkpt lat="44.47029" lon="-0.60049">
        <ele>128.765358</ele>
        <time>2022-12-27T15:19:36.736Z</time>
      </trkpt>
      <trkpt lat="44.47022" lon="-0.60038">
        <ele>128.808991</ele>
        <time>2022-12-27T15:19:38.745Z</time>
      </trkpt>
      <trkpt lat="44.47015" lon="-0.60027">
        <ele>128.849686</ele>
        <time>2022-12-27T15:19:40.750Z</time>
      </trkpt>
      <trkpt lat="44.47007" lon="-0.60017">
        <ele>128.892857</ele>
        <time>2022-12-27T15:19:42.754Z</time>
      </trkpt>
      <trkpt lat="44.47" lon="-0.60008">
        <ele>128.932565</ele>
        <time>2022-12-27T15:19:44.749Z</time>
      </trkpt>
      <trkpt lat="44.46989" lon="-0.59994">
        <ele>128.99108</ele>
        <time>2022-12-27T15:19:47.747Z</time>
      </trkpt>
      <trkpt lat="44.46983" lon="-0.59984">
        <ele>129.031012</ele>
        <time>2022-12-27T15:19:49.732Z</time>
      </trkpt>
      <trkpt lat="44.46975" lon="-0.59973">
        <ele>129.075665</ele>
        <time>2022-12-27T15:19:51.731Z</time>
      </trkpt>
      <trkpt lat="44.46964" lon="-0.5996">
        <ele>129.133717</ele>
        <time>2022-12-27T15:19:54.746Z</time>
      </trkpt>
      <trkpt lat="44.46956" lon="-0.59952">
        <ele>129.173</ele>
        <time>2022-12-27T15:19:56.739Z</time>
      </trkpt>
      <trkpt lat="44.46949" lon="-0.59942">
        <ele>129.06913</ele>
        <time>2022-12-27T15:19:58.746Z</time>
      </trkpt>
      <trkpt lat="44.46942" lon="-0.59932">
        <ele>128.956274</ele>
        <time>2022-12-27T15:20:00.758Z</time>
      </trkpt>
      <trkpt lat="44.46933" lon="-0.59918">
        <ele>128.809986</ele>
        <time>2022-12-27T15:20:03.734Z</time>
      </trkpt>
      <trkpt lat="44.46927" lon="-0.59908">
        <ele>128.704499</ele>
        <time>2022-12-27T15:20:05.751Z</time>
      </trkpt>
      <trkpt lat="44.46918" lon="-0.59896">
        <ele>128.56349</ele>
        <time>2022-12-27T15:20:08.744Z</time>
      </trkpt>
      <trkpt lat="44.46907" lon="-0.59883">
        <ele>128.40648</ele>
        <time>2022-12-27T15:20:11.730Z</time>
      </trkpt>
      <trkpt lat="44.46901" lon="-0.59873">
        <ele>128.301749</ele>
        <time>2022-12-27T15:20:13.750Z</time>
      </trkpt>
      <trkpt lat="44.46894" lon="-0.59864">
        <ele>128.19459</ele>
        <time>2022-12-27T15:20:15.746Z</time>
      </trkpt>
      <trkpt lat="44.46887" lon="-0.59854">
        <ele>128.083931</ele>
        <time>2022-12-27T15:20:17.756Z</time>
      </trkpt>
      <trkpt lat="44.4688" lon="-0.59844">
        <ele>127.972099</ele>
        <time>2022-12-27T15:20:19.752Z</time>
      </trkpt>
      <trkpt lat="44.46872" lon="-0.59834">
        <ele>127.860071</ele>
        <time>2022-12-27T15:20:21.747Z</time>
      </trkpt>
      <trkpt lat="44.46865" lon="-0.59824">
        <ele>127.74711</ele>
        <time>2022-12-27T15:20:23.746Z</time>
      </trkpt>
      <trkpt lat="44.46858" lon="-0.59815">
        <ele>127.641282</ele>
        <time>2022-12-27T15:20:25.747Z</time>
      </trkpt>
      <trkpt lat="44.46851" lon="-0.59805">
        <ele>127.529094</ele>
        <time>2022-12-27T15:20:27.753Z</time>
      </trkpt>
      <trkpt lat="44.46844" lon="-0.59795">
        <ele>127.417587</ele>
        <time>2022-12-27T15:20:29.744Z</time>
      </trkpt>
      <trkpt lat="44.46837" lon="-0.59785">
        <ele>127.307178</ele>
        <time>2022-12-27T15:20:31.751Z</time>
      </trkpt>
      <trkpt lat="44.4683" lon="-0.59776">
        <ele>127.203978</ele>
        <time>2022-12-27T15:20:33.750Z</time>
      </trkpt>
      <trkpt lat="44.46824" lon="-0.59768">
        <ele>127.16924</ele>
        <time>2022-12-27T15:20:35.745Z</time>
      </trkpt>
      <trkpt lat="44.46817" lon="-0.59758">
        <ele>127.15792</ele>
        <time>2022-12-27T15:20:37.747Z</time>
      </trkpt>
      <trkpt lat="44.4681" lon="-0.59749">
        <ele>127.145835</ele>
        <time>2022-12-27T15:20:39.750Z</time>
      </trkpt>
      <trkpt lat="44.46803" lon="-0.59739">
        <ele>127.133048</ele>
        <time>2022-12-27T15:20:41.746Z</time>
      </trkpt>
      <trkpt lat="44.46796" lon="-0.59729">
        <ele>127.120991</ele>
        <time>2022-12-27T15:20:43.752Z</time>
      </trkpt>
      <trkpt lat="44.46789" lon="-0.59719">
        <ele>127.107777</ele>
        <time>2022-12-27T15:20:45.754Z</time>
      </trkpt>
      <trkpt lat="44.46782" lon="-0.59709">
        <ele>127.095418</ele>
        <time>2022-12-27T15:20:47.757Z</time>
      </trkpt>
      <trkpt lat="44.46774" lon="-0.59698">
        <ele>127.081926</ele>
        <time>2022-12-27T15:20:49.750Z</time>
      </trkpt>
      <trkpt lat="44.46767" lon="-0.59688">
        <ele>127.069014</ele>
        <time>2022-12-27T15:20:51.729Z</time>
      </trkpt>
      <trkpt lat="44.46759" lon="-0.59677">
        <ele>127.055673</ele>
        <time>2022-12-27T15:20:53.748Z</time>
      </trkpt>
      <trkpt lat="44.46751" lon="-0.59668">
        <ele>127.04264</ele>
        <time>2022-12-27T15:20:55.748Z</time>
      </trkpt>
      <trkpt lat="44.46744" lon="-0.59657">
        <ele>127.029513</ele>
        <time>2022-12-27T15:20:57.762Z</time>
      </trkpt>
      <trkpt lat="44.46737" lon="-0.59647">
        <ele>127.017125</ele>
        <time>2022-12-27T15:20:59.736Z</time>
      </trkpt>
      <trkpt lat="44.4673" lon="-0.59638">
        <ele>127.005163</ele>
        <time>2022-12-27T15:21:01.737Z</time>
      </trkpt>
      <trkpt lat="44.46723" lon="-0.59629">
        <ele>126.993471</ele>
        <time>2022-12-27T15:21:03.748Z</time>
      </trkpt>
      <trkpt lat="44.46716" lon="-0.59619">
        <ele>126.981627</ele>
        <time>2022-12-27T15:21:05.746Z</time>
      </trkpt>
      <trkpt lat="44.4671" lon="-0.5961">
        <ele>126.969961</ele>
        <time>2022-12-27T15:21:07.750Z</time>
      </trkpt>
      <trkpt lat="44.46703" lon="-0.596">
        <ele>126.957715</ele>
        <time>2022-12-27T15:21:09.729Z</time>
      </trkpt>
      <trkpt lat="44.46696" lon="-0.59591">
        <ele>126.985178</ele>
        <time>2022-12-27T15:21:11.737Z</time>
      </trkpt>
      <trkpt lat="44.46689" lon="-0.59582">
        <ele>127.035138</ele>
        <time>2022-12-27T15:21:13.748Z</time>
      </trkpt>
      <trkpt lat="44.46683" lon="-0.59572">
        <ele>127.085641</ele>
        <time>2022-12-27T15:21:15.750Z</time>
      </trkpt>
      <trkpt lat="44.46676" lon="-0.59563">
        <ele>127.134526</ele>
        <time>2022-12-27T15:21:17.747Z</time>
      </trkpt>
      <trkpt lat="44.46667" lon="-0.59551">
        <ele>127.202158</ele>
        <time>2022-12-27T15:21:20.724Z</time>
      </trkpt>
      <trkpt lat="44.46657" lon="-0.59539">
        <ele>127.272248</ele>
        <time>2022-12-27T15:21:23.743Z</time>
      </trkpt>
      <trkpt lat="44.4665" lon="-0.59529">
        <ele>127.321405</ele>
        <time>2022-12-27T15:21:25.751Z</time>
      </trkpt>
      <trkpt lat="44.46644" lon="-0.59521">
        <ele>127.370289</ele>
        <time>2022-12-27T15:21:27.748Z</time>
      </trkpt>
      <trkpt lat="44.46637" lon="-0.59511">
        <ele>127.420619</ele>
        <time>2022-12-27T15:21:29.743Z</time>
      </trkpt>
      <trkpt lat="44.4663" lon="-0.59501">
        <ele>127.471864</ele>
        <time>2022-12-27T15:21:31.732Z</time>
      </trkpt>
      <trkpt lat="44.46624" lon="-0.59492">
        <ele>127.522199</ele>
        <time>2022-12-27T15:21:33.753Z</time>
      </trkpt>
      <trkpt lat="44.46617" lon="-0.59483">
        <ele>127.572891</ele>
        <time>2022-12-27T15:21:35.750Z</time>
      </trkpt>
      <trkpt lat="44.4661" lon="-0.59473">
        <ele>127.624626</ele>
        <time>2022-12-27T15:21:37.750Z</time>
      </trkpt>
      <trkpt lat="44.46603" lon="-0.59464">
        <ele>127.676098</ele>
        <time>2022-12-27T15:21:39.751Z</time>
      </trkpt>
      <trkpt lat="44.46596" lon="-0.59454">
        <ele>127.726989</ele>
        <time>2022-12-27T15:21:41.729Z</time>
      </trkpt>
      <trkpt lat="44.4659" lon="-0.59444">
        <ele>127.777862</ele>
        <time>2022-12-27T15:21:43.745Z</time>
      </trkpt>
      <trkpt lat="44.46583" lon="-0.59434">
        <ele>127.831038</ele>
        <time>2022-12-27T15:21:45.748Z</time>
      </trkpt>
      <trkpt lat="44.46575" lon="-0.59425">
        <ele>127.885481</ele>
        <time>2022-12-27T15:21:47.747Z</time>
      </trkpt>
      <trkpt lat="44.46568" lon="-0.59415">
        <ele>127.922041</ele>
        <time>2022-12-27T15:21:49.734Z</time>
      </trkpt>
      <trkpt lat="44.46561" lon="-0.59406">
        <ele>127.946082</ele>
        <time>2022-12-27T15:21:51.729Z</time>
      </trkpt>
      <trkpt lat="44.46554" lon="-0.59396">
        <ele>127.97174</ele>
        <time>2022-12-27T15:21:53.751Z</time>
      </trkpt>
      <trkpt lat="44.46547" lon="-0.59387">
        <ele>127.996277</ele>
        <time>2022-12-27T15:21:55.750Z</time>
      </trkpt>
      <trkpt lat="44.4654" lon="-0.59378">
        <ele>128.020217</ele>
        <time>2022-12-27T15:21:57.750Z</time>
      </trkpt>
      <trkpt lat="44.46531" lon="-0.59366">
        <ele>128.052368</ele>
        <time>2022-12-27T15:22:00.751Z</time>
      </trkpt>
      <trkpt lat="44.46524" lon="-0.59354">
        <ele>128.08121</ele>
        <time>2022-12-27T15:22:03.747Z</time>
      </trkpt>
      <trkpt lat="44.46515" lon="-0.59342">
        <ele>128.114027</ele>
        <time>2022-12-27T15:22:06.739Z</time>
      </trkpt>
      <trkpt lat="44.46506" lon="-0.59329">
        <ele>128.147513</ele>
        <time>2022-12-27T15:22:09.750Z</time>
      </trkpt>
      <trkpt lat="44.46495" lon="-0.59316">
        <ele>128.182316</ele>
        <time>2022-12-27T15:22:12.753Z</time>
      </trkpt>
      <trkpt lat="44.46488" lon="-0.59308">
        <ele>128.205428</ele>
        <time>2022-12-27T15:22:14.729Z</time>
      </trkpt>
      <trkpt lat="44.46481" lon="-0.59299">
        <ele>128.230469</ele>
        <time>2022-12-27T15:22:16.757Z</time>
      </trkpt>
      <trkpt lat="44.46475" lon="-0.59289">
        <ele>128.25454</ele>
        <time>2022-12-27T15:22:18.751Z</time>
      </trkpt>
      <trkpt lat="44.46468" lon="-0.5928">
        <ele>128.278969</ele>
        <time>2022-12-27T15:22:20.750Z</time>
      </trkpt>
      <trkpt lat="44.46461" lon="-0.5927">
        <ele>128.303969</ele>
        <time>2022-12-27T15:22:22.736Z</time>
      </trkpt>
      <trkpt lat="44.46454" lon="-0.5926">
        <ele>128.329325</ele>
        <time>2022-12-27T15:22:24.750Z</time>
      </trkpt>
      <trkpt lat="44.46447" lon="-0.5925">
        <ele>128.354858</ele>
        <time>2022-12-27T15:22:26.744Z</time>
      </trkpt>
      <trkpt lat="44.4644" lon="-0.59241">
        <ele>128.352031</ele>
        <time>2022-12-27T15:22:28.752Z</time>
      </trkpt>
      <trkpt lat="44.46431" lon="-0.59229">
        <ele>128.298682</ele>
        <time>2022-12-27T15:22:31.730Z</time>
      </trkpt>
      <trkpt lat="44.46423" lon="-0.59218">
        <ele>128.248989</ele>
        <time>2022-12-27T15:22:34.734Z</time>
      </trkpt>
      <trkpt lat="44.46414" lon="-0.59206">
        <ele>128.196796</ele>
        <time>2022-12-27T15:22:37.746Z</time>
      </trkpt>
      <trkpt lat="44.46405" lon="-0.59193">
        <ele>128.140949</ele>
        <time>2022-12-27T15:22:40.745Z</time>
      </trkpt>
      <trkpt lat="44.46395" lon="-0.5918">
        <ele>128.084671</ele>
        <time>2022-12-27T15:22:43.749Z</time>
      </trkpt>
      <trkpt lat="44.46386" lon="-0.59167">
        <ele>128.027177</ele>
        <time>2022-12-27T15:22:46.729Z</time>
      </trkpt>
      <trkpt lat="44.46379" lon="-0.59157">
        <ele>127.985893</ele>
        <time>2022-12-27T15:22:48.743Z</time>
      </trkpt>
      <trkpt lat="44.46372" lon="-0.59148">
        <ele>127.945859</ele>
        <time>2022-12-27T15:22:50.749Z</time>
      </trkpt>
      <trkpt lat="44.46365" lon="-0.59139">
        <ele>127.906343</ele>
        <time>2022-12-27T15:22:52.751Z</time>
      </trkpt>
      <trkpt lat="44.46358" lon="-0.5913">
        <ele>127.865059</ele>
        <time>2022-12-27T15:22:54.740Z</time>
      </trkpt>
      <trkpt lat="44.46349" lon="-0.59117">
        <ele>127.807982</ele>
        <time>2022-12-27T15:22:57.730Z</time>
      </trkpt>
      <trkpt lat="44.46342" lon="-0.59108">
        <ele>127.767948</ele>
        <time>2022-12-27T15:22:59.761Z</time>
      </trkpt>
      <trkpt lat="44.46335" lon="-0.591">
        <ele>127.728542</ele>
        <time>2022-12-27T15:23:01.746Z</time>
      </trkpt>
      <trkpt lat="44.46328" lon="-0.5909">
        <ele>127.688083</ele>
        <time>2022-12-27T15:23:03.750Z</time>
      </trkpt>
      <trkpt lat="44.46321" lon="-0.5908">
        <ele>127.646585</ele>
        <time>2022-12-27T15:23:05.749Z</time>
      </trkpt>
      <trkpt lat="44.46315" lon="-0.59071">
        <ele>127.605819</ele>
        <time>2022-12-27T15:23:07.739Z</time>
      </trkpt>
      <trkpt lat="44.46308" lon="-0.59061">
        <ele>127.615609</ele>
        <time>2022-12-27T15:23:09.750Z</time>
      </trkpt>
      <trkpt lat="44.46301" lon="-0.59051">
        <ele>127.631331</ele>
        <time>2022-12-27T15:23:11.731Z</time>
      </trkpt>
      <trkpt lat="44.46293" lon="-0.59042">
        <ele>127.647597</ele>
        <time>2022-12-27T15:23:13.749Z</time>
      </trkpt>
      <trkpt lat="44.46286" lon="-0.59032">
        <ele>127.663745</ele>
        <time>2022-12-27T15:23:15.748Z</time>
      </trkpt>
      <trkpt lat="44.46279" lon="-0.59022">
        <ele>127.679845</ele>
        <time>2022-12-27T15:23:17.750Z</time>
      </trkpt>
      <trkpt lat="44.46272" lon="-0.59012">
        <ele>127.695923</ele>
        <time>2022-12-27T15:23:19.751Z</time>
      </trkpt>
      <trkpt lat="44.46264" lon="-0.59002">
        <ele>127.71274</ele>
        <time>2022-12-27T15:23:21.731Z</time>
      </trkpt>
      <trkpt lat="44.46257" lon="-0.58991">
        <ele>127.729504</ele>
        <time>2022-12-27T15:23:23.739Z</time>
      </trkpt>
      <trkpt lat="44.4625" lon="-0.58981">
        <ele>127.746296</ele>
        <time>2022-12-27T15:23:25.730Z</time>
      </trkpt>
      <trkpt lat="44.46242" lon="-0.58971">
        <ele>127.763113</ele>
        <time>2022-12-27T15:23:27.750Z</time>
      </trkpt>
      <trkpt lat="44.46235" lon="-0.58962">
        <ele>127.778481</ele>
        <time>2022-12-27T15:23:29.747Z</time>
      </trkpt>
      <trkpt lat="44.46228" lon="-0.58952">
        <ele>127.794398</ele>
        <time>2022-12-27T15:23:31.738Z</time>
      </trkpt>
      <trkpt lat="44.46221" lon="-0.58942">
        <ele>127.811141</ele>
        <time>2022-12-27T15:23:33.750Z</time>
      </trkpt>
      <trkpt lat="44.46213" lon="-0.58931">
        <ele>127.828354</ele>
        <time>2022-12-27T15:23:35.752Z</time>
      </trkpt>
      <trkpt lat="44.46206" lon="-0.58922">
        <ele>127.844387</ele>
        <time>2022-12-27T15:23:37.757Z</time>
      </trkpt>
      <trkpt lat="44.46198" lon="-0.58913">
        <ele>127.860224</ele>
        <time>2022-12-27T15:23:39.751Z</time>
      </trkpt>
      <trkpt lat="44.46191" lon="-0.58902">
        <ele>127.877001</ele>
        <time>2022-12-27T15:23:41.743Z</time>
      </trkpt>
      <trkpt lat="44.46184" lon="-0.58891">
        <ele>127.89473</ele>
        <time>2022-12-27T15:23:43.751Z</time>
      </trkpt>
      <trkpt lat="44.46176" lon="-0.58881">
        <ele>127.918087</ele>
        <time>2022-12-27T15:23:45.733Z</time>
      </trkpt>
      <trkpt lat="44.46169" lon="-0.5887">
        <ele>127.941214</ele>
        <time>2022-12-27T15:23:47.738Z</time>
      </trkpt>
      <trkpt lat="44.46162" lon="-0.5886">
        <ele>127.962794</ele>
        <time>2022-12-27T15:23:49.752Z</time>
      </trkpt>
      <trkpt lat="44.46154" lon="-0.5885">
        <ele>127.984112</ele>
        <time>2022-12-27T15:23:51.728Z</time>
      </trkpt>
      <trkpt lat="44.46147" lon="-0.5884">
        <ele>128.006713</ele>
        <time>2022-12-27T15:23:53.735Z</time>
      </trkpt>
      <trkpt lat="44.46139" lon="-0.58829">
        <ele>128.030073</ele>
        <time>2022-12-27T15:23:55.735Z</time>
      </trkpt>
      <trkpt lat="44.46131" lon="-0.58819">
        <ele>128.053167</ele>
        <time>2022-12-27T15:23:57.760Z</time>
      </trkpt>
      <trkpt lat="44.46124" lon="-0.58809">
        <ele>128.075658</ele>
        <time>2022-12-27T15:23:59.750Z</time>
      </trkpt>
      <trkpt lat="44.46117" lon="-0.58799">
        <ele>128.097028</ele>
        <time>2022-12-27T15:24:01.742Z</time>
      </trkpt>
      <trkpt lat="44.46109" lon="-0.5879">
        <ele>128.118343</ele>
        <time>2022-12-27T15:24:03.744Z</time>
      </trkpt>
      <trkpt lat="44.46103" lon="-0.58781">
        <ele>128.137795</ele>
        <time>2022-12-27T15:24:05.753Z</time>
      </trkpt>
      <trkpt lat="44.46093" lon="-0.58768">
        <ele>128.166079</ele>
        <time>2022-12-27T15:24:08.750Z</time>
      </trkpt>
      <trkpt lat="44.46087" lon="-0.58759">
        <ele>128.186791</ele>
        <time>2022-12-27T15:24:10.753Z</time>
      </trkpt>
      <trkpt lat="44.4608" lon="-0.5875">
        <ele>128.207057</ele>
        <time>2022-12-27T15:24:12.749Z</time>
      </trkpt>
      <trkpt lat="44.46073" lon="-0.5874">
        <ele>128.22764</ele>
        <time>2022-12-27T15:24:14.753Z</time>
      </trkpt>
      <trkpt lat="44.46066" lon="-0.58731">
        <ele>128.248544</ele>
        <time>2022-12-27T15:24:16.751Z</time>
      </trkpt>
      <trkpt lat="44.46059" lon="-0.58722">
        <ele>128.269755</ele>
        <time>2022-12-27T15:24:18.751Z</time>
      </trkpt>
      <trkpt lat="44.46051" lon="-0.58711">
        <ele>128.279873</ele>
        <time>2022-12-27T15:24:20.754Z</time>
      </trkpt>
      <trkpt lat="44.46044" lon="-0.58701">
        <ele>128.284289</ele>
        <time>2022-12-27T15:24:22.749Z</time>
      </trkpt>
      <trkpt lat="44.46037" lon="-0.5869">
        <ele>128.288765</ele>
        <time>2022-12-27T15:24:24.750Z</time>
      </trkpt>
      <trkpt lat="44.46029" lon="-0.5868">
        <ele>128.29324</ele>
        <time>2022-12-27T15:24:26.755Z</time>
      </trkpt>
      <trkpt lat="44.46022" lon="-0.58669">
        <ele>128.297846</ele>
        <time>2022-12-27T15:24:28.749Z</time>
      </trkpt>
      <trkpt lat="44.46014" lon="-0.58659">
        <ele>128.302342</ele>
        <time>2022-12-27T15:24:30.752Z</time>
      </trkpt>
      <trkpt lat="44.46007" lon="-0.5865">
        <ele>128.30662</ele>
        <time>2022-12-27T15:24:32.751Z</time>
      </trkpt>
      <trkpt lat="44.45999" lon="-0.5864">
        <ele>128.310929</ele>
        <time>2022-12-27T15:24:34.749Z</time>
      </trkpt>
      <trkpt lat="44.45992" lon="-0.5863">
        <ele>128.315302</ele>
        <time>2022-12-27T15:24:36.745Z</time>
      </trkpt>
      <trkpt lat="44.45985" lon="-0.5862">
        <ele>128.319569</ele>
        <time>2022-12-27T15:24:38.745Z</time>
      </trkpt>
      <trkpt lat="44.45977" lon="-0.5861">
        <ele>128.323992</ele>
        <time>2022-12-27T15:24:40.756Z</time>
      </trkpt>
      <trkpt lat="44.4597" lon="-0.586">
        <ele>128.328341</ele>
        <time>2022-12-27T15:24:42.749Z</time>
      </trkpt>
      <trkpt lat="44.45963" lon="-0.58589">
        <ele>128.332683</ele>
        <time>2022-12-27T15:24:44.729Z</time>
      </trkpt>
      <trkpt lat="44.45956" lon="-0.58579">
        <ele>128.337127</ele>
        <time>2022-12-27T15:24:46.748Z</time>
      </trkpt>
      <trkpt lat="44.45949" lon="-0.58569">
        <ele>128.341531</ele>
        <time>2022-12-27T15:24:48.750Z</time>
      </trkpt>
      <trkpt lat="44.45942" lon="-0.58558">
        <ele>128.345887</ele>
        <time>2022-12-27T15:24:50.762Z</time>
      </trkpt>
      <trkpt lat="44.45934" lon="-0.58549">
        <ele>128.3503</ele>
        <time>2022-12-27T15:24:52.747Z</time>
      </trkpt>
      <trkpt lat="44.45926" lon="-0.58538">
        <ele>128.334061</ele>
        <time>2022-12-27T15:24:54.753Z</time>
      </trkpt>
      <trkpt lat="44.45919" lon="-0.58528">
        <ele>128.264827</ele>
        <time>2022-12-27T15:24:56.754Z</time>
      </trkpt>
      <trkpt lat="44.45911" lon="-0.58517">
        <ele>128.193948</ele>
        <time>2022-12-27T15:24:58.754Z</time>
      </trkpt>
      <trkpt lat="44.45904" lon="-0.58507">
        <ele>128.124388</ele>
        <time>2022-12-27T15:25:00.747Z</time>
      </trkpt>
      <trkpt lat="44.45896" lon="-0.58497">
        <ele>128.055788</ele>
        <time>2022-12-27T15:25:02.751Z</time>
      </trkpt>
      <trkpt lat="44.45888" lon="-0.58487">
        <ele>127.985606</ele>
        <time>2022-12-27T15:25:04.750Z</time>
      </trkpt>
      <trkpt lat="44.4588" lon="-0.58476">
        <ele>127.915576</ele>
        <time>2022-12-27T15:25:06.752Z</time>
      </trkpt>
      <trkpt lat="44.45873" lon="-0.58467">
        <ele>127.850174</ele>
        <time>2022-12-27T15:25:08.745Z</time>
      </trkpt>
      <trkpt lat="44.45867" lon="-0.58457">
        <ele>127.789833</ele>
        <time>2022-12-27T15:25:10.756Z</time>
      </trkpt>
      <trkpt lat="44.4586" lon="-0.58448">
        <ele>127.730176</ele>
        <time>2022-12-27T15:25:12.749Z</time>
      </trkpt>
      <trkpt lat="44.45851" lon="-0.58435">
        <ele>127.644672</ele>
        <time>2022-12-27T15:25:15.745Z</time>
      </trkpt>
      <trkpt lat="44.45841" lon="-0.58422">
        <ele>127.554215</ele>
        <time>2022-12-27T15:25:18.729Z</time>
      </trkpt>
      <trkpt lat="44.45834" lon="-0.58412">
        <ele>127.491667</ele>
        <time>2022-12-27T15:25:20.751Z</time>
      </trkpt>
      <trkpt lat="44.45828" lon="-0.58402">
        <ele>127.427118</ele>
        <time>2022-12-27T15:25:22.747Z</time>
      </trkpt>
      <trkpt lat="44.45821" lon="-0.58393">
        <ele>127.363953</ele>
        <time>2022-12-27T15:25:24.739Z</time>
      </trkpt>
      <trkpt lat="44.45814" lon="-0.58384">
        <ele>127.301262</ele>
        <time>2022-12-27T15:25:26.749Z</time>
      </trkpt>
      <trkpt lat="44.45806" lon="-0.58374">
        <ele>127.236342</ele>
        <time>2022-12-27T15:25:28.748Z</time>
      </trkpt>
      <trkpt lat="44.45799" lon="-0.58365">
        <ele>127.17662</ele>
        <time>2022-12-27T15:25:30.751Z</time>
      </trkpt>
      <trkpt lat="44.45792" lon="-0.58355">
        <ele>127.185339</ele>
        <time>2022-12-27T15:25:32.748Z</time>
      </trkpt>
      <trkpt lat="44.45785" lon="-0.58344">
        <ele>127.193949</ele>
        <time>2022-12-27T15:25:34.750Z</time>
      </trkpt>
      <trkpt lat="44.45777" lon="-0.58335">
        <ele>127.202521</ele>
        <time>2022-12-27T15:25:36.749Z</time>
      </trkpt>
      <trkpt lat="44.4577" lon="-0.58325">
        <ele>127.21132</ele>
        <time>2022-12-27T15:25:38.730Z</time>
      </trkpt>
      <trkpt lat="44.45762" lon="-0.58315">
        <ele>127.220037</ele>
        <time>2022-12-27T15:25:40.751Z</time>
      </trkpt>
      <trkpt lat="44.45755" lon="-0.58304">
        <ele>127.229059</ele>
        <time>2022-12-27T15:25:42.734Z</time>
      </trkpt>
      <trkpt lat="44.45748" lon="-0.58294">
        <ele>127.237699</ele>
        <time>2022-12-27T15:25:44.754Z</time>
      </trkpt>
      <trkpt lat="44.45741" lon="-0.58284">
        <ele>127.246314</ele>
        <time>2022-12-27T15:25:46.751Z</time>
      </trkpt>
      <trkpt lat="44.45734" lon="-0.58274">
        <ele>127.255071</ele>
        <time>2022-12-27T15:25:48.748Z</time>
      </trkpt>
      <trkpt lat="44.45726" lon="-0.58264">
        <ele>127.263893</ele>
        <time>2022-12-27T15:25:50.754Z</time>
      </trkpt>
      <trkpt lat="44.45719" lon="-0.58254">
        <ele>127.272819</ele>
        <time>2022-12-27T15:25:52.749Z</time>
      </trkpt>
      <trkpt lat="44.45712" lon="-0.58244">
        <ele>127.28133</ele>
        <time>2022-12-27T15:25:54.728Z</time>
      </trkpt>
      <trkpt lat="44.45705" lon="-0.58234">
        <ele>127.289781</ele>
        <time>2022-12-27T15:25:56.752Z</time>
      </trkpt>
      <trkpt lat="44.45698" lon="-0.58224">
        <ele>127.298269</ele>
        <time>2022-12-27T15:25:58.752Z</time>
      </trkpt>
      <trkpt lat="44.4569" lon="-0.58215">
        <ele>127.306637</ele>
        <time>2022-12-27T15:26:00.748Z</time>
      </trkpt>
      <trkpt lat="44.45683" lon="-0.58205">
        <ele>127.315234</ele>
        <time>2022-12-27T15:26:02.748Z</time>
      </trkpt>
      <trkpt lat="44.45676" lon="-0.58195">
        <ele>127.323978</ele>
        <time>2022-12-27T15:26:04.743Z</time>
      </trkpt>
      <trkpt lat="44.45669" lon="-0.58185">
        <ele>127.30783</ele>
        <time>2022-12-27T15:26:06.750Z</time>
      </trkpt>
      <trkpt lat="44.45662" lon="-0.58175">
        <ele>127.25192</ele>
        <time>2022-12-27T15:26:08.752Z</time>
      </trkpt>
      <trkpt lat="44.45654" lon="-0.58165">
        <ele>127.192955</ele>
        <time>2022-12-27T15:26:10.747Z</time>
      </trkpt>
      <trkpt lat="44.45647" lon="-0.58156">
        <ele>127.135114</ele>
        <time>2022-12-27T15:26:12.756Z</time>
      </trkpt>
      <trkpt lat="44.4564" lon="-0.58146">
        <ele>127.077819</ele>
        <time>2022-12-27T15:26:14.746Z</time>
      </trkpt>
      <trkpt lat="44.45632" lon="-0.58136">
        <ele>127.019699</ele>
        <time>2022-12-27T15:26:16.754Z</time>
      </trkpt>
      <trkpt lat="44.45625" lon="-0.58125">
        <ele>126.956983</ele>
        <time>2022-12-27T15:26:18.745Z</time>
      </trkpt>
      <trkpt lat="44.45617" lon="-0.58115">
        <ele>126.897194</ele>
        <time>2022-12-27T15:26:20.767Z</time>
      </trkpt>
      <trkpt lat="44.45609" lon="-0.58105">
        <ele>126.837543</ele>
        <time>2022-12-27T15:26:22.730Z</time>
      </trkpt>
      <trkpt lat="44.45601" lon="-0.58095">
        <ele>126.777197</ele>
        <time>2022-12-27T15:26:24.751Z</time>
      </trkpt>
      <trkpt lat="44.45594" lon="-0.58086">
        <ele>126.721301</ele>
        <time>2022-12-27T15:26:26.753Z</time>
      </trkpt>
      <trkpt lat="44.45587" lon="-0.58075">
        <ele>126.660311</ele>
        <time>2022-12-27T15:26:28.746Z</time>
      </trkpt>
      <trkpt lat="44.4558" lon="-0.58065">
        <ele>126.602268</ele>
        <time>2022-12-27T15:26:30.750Z</time>
      </trkpt>
      <trkpt lat="44.45572" lon="-0.58054">
        <ele>126.541966</ele>
        <time>2022-12-27T15:26:32.747Z</time>
      </trkpt>
      <trkpt lat="44.45565" lon="-0.58044">
        <ele>126.480469</ele>
        <time>2022-12-27T15:26:34.751Z</time>
      </trkpt>
      <trkpt lat="44.45557" lon="-0.58033">
        <ele>126.419832</ele>
        <time>2022-12-27T15:26:36.749Z</time>
      </trkpt>
      <trkpt lat="44.4555" lon="-0.58023">
        <ele>126.360323</ele>
        <time>2022-12-27T15:26:38.750Z</time>
      </trkpt>
      <trkpt lat="44.45543" lon="-0.58012">
        <ele>126.304427</ele>
        <time>2022-12-27T15:26:40.753Z</time>
      </trkpt>
      <trkpt lat="44.45535" lon="-0.58003">
        <ele>126.335761</ele>
        <time>2022-12-27T15:26:42.730Z</time>
      </trkpt>
      <trkpt lat="44.45528" lon="-0.57992">
        <ele>126.368585</ele>
        <time>2022-12-27T15:26:44.745Z</time>
      </trkpt>
      <trkpt lat="44.45521" lon="-0.57982">
        <ele>126.401309</ele>
        <time>2022-12-27T15:26:46.749Z</time>
      </trkpt>
      <trkpt lat="44.45513" lon="-0.57973">
        <ele>126.433955</ele>
        <time>2022-12-27T15:26:48.746Z</time>
      </trkpt>
      <trkpt lat="44.45506" lon="-0.57962">
        <ele>126.468029</ele>
        <time>2022-12-27T15:26:50.747Z</time>
      </trkpt>
      <trkpt lat="44.45498" lon="-0.57952">
        <ele>126.500469</ele>
        <time>2022-12-27T15:26:52.728Z</time>
      </trkpt>
      <trkpt lat="44.45491" lon="-0.57942">
        <ele>126.532657</ele>
        <time>2022-12-27T15:26:54.751Z</time>
      </trkpt>
      <trkpt lat="44.45484" lon="-0.57932">
        <ele>126.562606</ele>
        <time>2022-12-27T15:26:56.750Z</time>
      </trkpt>
      <trkpt lat="44.45474" lon="-0.57919">
        <ele>126.605519</ele>
        <time>2022-12-27T15:26:59.751Z</time>
      </trkpt>
      <trkpt lat="44.45466" lon="-0.57907">
        <ele>126.64391</ele>
        <time>2022-12-27T15:27:02.749Z</time>
      </trkpt>
      <trkpt lat="44.45457" lon="-0.57896">
        <ele>126.682349</ele>
        <time>2022-12-27T15:27:05.749Z</time>
      </trkpt>
      <trkpt lat="44.45448" lon="-0.57883">
        <ele>126.722883</ele>
        <time>2022-12-27T15:27:08.754Z</time>
      </trkpt>
      <trkpt lat="44.45441" lon="-0.57874">
        <ele>126.751905</ele>
        <time>2022-12-27T15:27:10.730Z</time>
      </trkpt>
      <trkpt lat="44.45434" lon="-0.57865">
        <ele>126.782545</ele>
        <time>2022-12-27T15:27:12.750Z</time>
      </trkpt>
      <trkpt lat="44.45427" lon="-0.57856">
        <ele>126.811955</ele>
        <time>2022-12-27T15:27:14.750Z</time>
      </trkpt>
      <trkpt lat="44.4542" lon="-0.57847">
        <ele>126.843449</ele>
        <time>2022-12-27T15:27:16.755Z</time>
      </trkpt>
      <trkpt lat="44.45413" lon="-0.57837">
        <ele>126.878945</ele>
        <time>2022-12-27T15:27:18.757Z</time>
      </trkpt>
      <trkpt lat="44.45406" lon="-0.57828">
        <ele>126.973079</ele>
        <time>2022-12-27T15:27:20.736Z</time>
      </trkpt>
      <trkpt lat="44.45399" lon="-0.57818">
        <ele>127.065854</ele>
        <time>2022-12-27T15:27:22.757Z</time>
      </trkpt>
      <trkpt lat="44.45392" lon="-0.57807">
        <ele>127.166209</ele>
        <time>2022-12-27T15:27:24.731Z</time>
      </trkpt>
      <trkpt lat="44.45385" lon="-0.57796">
        <ele>127.264548</ele>
        <time>2022-12-27T15:27:26.751Z</time>
      </trkpt>
      <trkpt lat="44.45378" lon="-0.57787">
        <ele>127.358682</ele>
        <time>2022-12-27T15:27:28.749Z</time>
      </trkpt>
      <trkpt lat="44.45371" lon="-0.57778">
        <ele>127.448625</ele>
        <time>2022-12-27T15:27:30.732Z</time>
      </trkpt>
      <trkpt lat="44.45364" lon="-0.57768">
        <ele>127.540378</ele>
        <time>2022-12-27T15:27:32.742Z</time>
      </trkpt>
      <trkpt lat="44.45358" lon="-0.57759">
        <ele>127.629993</ele>
        <time>2022-12-27T15:27:34.748Z</time>
      </trkpt>
      <trkpt lat="44.45349" lon="-0.57746">
        <ele>127.749406</ele>
        <time>2022-12-27T15:27:37.748Z</time>
      </trkpt>
      <trkpt lat="44.45342" lon="-0.57734">
        <ele>127.854342</ele>
        <time>2022-12-27T15:27:40.752Z</time>
      </trkpt>
      <trkpt lat="44.45335" lon="-0.57723">
        <ele>127.953494</ele>
        <time>2022-12-27T15:27:43.740Z</time>
      </trkpt>
      <trkpt lat="44.45327" lon="-0.57712">
        <ele>128.064127</ele>
        <time>2022-12-27T15:27:46.753Z</time>
      </trkpt>
      <trkpt lat="44.45319" lon="-0.57699">
        <ele>128.181275</ele>
        <time>2022-12-27T15:27:49.752Z</time>
      </trkpt>
      <trkpt lat="44.45311" lon="-0.57685">
        <ele>128.299629</ele>
        <time>2022-12-27T15:27:52.751Z</time>
      </trkpt>
      <trkpt lat="44.45303" lon="-0.57672">
        <ele>128.417906</ele>
        <time>2022-12-27T15:27:55.750Z</time>
      </trkpt>
      <trkpt lat="44.45296" lon="-0.57658">
        <ele>128.531581</ele>
        <time>2022-12-27T15:27:58.750Z</time>
      </trkpt>
      <trkpt lat="44.4529" lon="-0.57647">
        <ele>128.620274</ele>
        <time>2022-12-27T15:28:01.730Z</time>
      </trkpt>
      <trkpt lat="44.45284" lon="-0.57638">
        <ele>128.686193</ele>
        <time>2022-12-27T15:28:04.750Z</time>
      </trkpt>
      <trkpt lat="44.45278" lon="-0.57627">
        <ele>128.754213</ele>
        <time>2022-12-27T15:28:07.751Z</time>
      </trkpt>
      <trkpt lat="44.45274" lon="-0.57614">
        <ele>128.826434</ele>
        <time>2022-12-27T15:28:10.754Z</time>
      </trkpt>
      <trkpt lat="44.45268" lon="-0.57602">
        <ele>128.903698</ele>
        <time>2022-12-27T15:28:13.733Z</time>
      </trkpt>
      <trkpt lat="44.45262" lon="-0.57588">
        <ele>128.986699</ele>
        <time>2022-12-27T15:28:16.750Z</time>
      </trkpt>
      <trkpt lat="44.45257" lon="-0.57572">
        <ele>129.07724</ele>
        <time>2022-12-27T15:28:19.753Z</time>
      </trkpt>
      <trkpt lat="44.45252" lon="-0.57557">
        <ele>129.164116</ele>
        <time>2022-12-27T15:28:22.729Z</time>
      </trkpt>
      <trkpt lat="44.45247" lon="-0.57541">
        <ele>129.250236</ele>
        <time>2022-12-27T15:28:25.746Z</time>
      </trkpt>
      <trkpt lat="44.45241" lon="-0.57526">
        <ele>129.343599</ele>
        <time>2022-12-27T15:28:28.750Z</time>
      </trkpt>
      <trkpt lat="44.45236" lon="-0.57509">
        <ele>129.435883</ele>
        <time>2022-12-27T15:28:31.749Z</time>
      </trkpt>
      <trkpt lat="44.45231" lon="-0.57497">
        <ele>129.509802</ele>
        <time>2022-12-27T15:28:33.750Z</time>
      </trkpt>
      <trkpt lat="44.45227" lon="-0.57485">
        <ele>129.577041</ele>
        <time>2022-12-27T15:28:35.750Z</time>
      </trkpt>
      <trkpt lat="44.45221" lon="-0.57468">
        <ele>129.677366</ele>
        <time>2022-12-27T15:28:38.753Z</time>
      </trkpt>
      <trkpt lat="44.45217" lon="-0.57455">
        <ele>129.746699</ele>
        <time>2022-12-27T15:28:40.736Z</time>
      </trkpt>
      <trkpt lat="44.45213" lon="-0.57443">
        <ele>129.818135</ele>
        <time>2022-12-27T15:28:42.751Z</time>
      </trkpt>
      <trkpt lat="44.45209" lon="-0.5743">
        <ele>129.886042</ele>
        <time>2022-12-27T15:28:44.734Z</time>
      </trkpt>
      <trkpt lat="44.45204" lon="-0.57412">
        <ele>129.771838</ele>
        <time>2022-12-27T15:28:47.731Z</time>
      </trkpt>
      <trkpt lat="44.45199" lon="-0.57399">
        <ele>129.681247</ele>
        <time>2022-12-27T15:28:49.735Z</time>
      </trkpt>
      <trkpt lat="44.45194" lon="-0.57386">
        <ele>129.594261</ele>
        <time>2022-12-27T15:28:51.731Z</time>
      </trkpt>
      <trkpt lat="44.45189" lon="-0.57375">
        <ele>129.513943</ele>
        <time>2022-12-27T15:28:53.748Z</time>
      </trkpt>
      <trkpt lat="44.45185" lon="-0.57362">
        <ele>129.429995</ele>
        <time>2022-12-27T15:28:55.749Z</time>
      </trkpt>
      <trkpt lat="44.4518" lon="-0.5735">
        <ele>129.345276</ele>
        <time>2022-12-27T15:28:57.752Z</time>
      </trkpt>
      <trkpt lat="44.45176" lon="-0.57338">
        <ele>129.263637</ele>
        <time>2022-12-27T15:28:59.731Z</time>
      </trkpt>
      <trkpt lat="44.45171" lon="-0.57325">
        <ele>129.176242</ele>
        <time>2022-12-27T15:29:01.730Z</time>
      </trkpt>
      <trkpt lat="44.45167" lon="-0.5731">
        <ele>129.078247</ele>
        <time>2022-12-27T15:29:04.752Z</time>
      </trkpt>
      <trkpt lat="44.45161" lon="-0.57294">
        <ele>128.970588</ele>
        <time>2022-12-27T15:29:07.745Z</time>
      </trkpt>
      <trkpt lat="44.45156" lon="-0.57278">
        <ele>128.860567</ele>
        <time>2022-12-27T15:29:10.754Z</time>
      </trkpt>
      <trkpt lat="44.45151" lon="-0.5726">
        <ele>128.744855</ele>
        <time>2022-12-27T15:29:13.750Z</time>
      </trkpt>
      <trkpt lat="44.45146" lon="-0.57242">
        <ele>128.62895</ele>
        <time>2022-12-27T15:29:16.737Z</time>
      </trkpt>
      <trkpt lat="44.45143" lon="-0.57229">
        <ele>128.547789</ele>
        <time>2022-12-27T15:29:18.736Z</time>
      </trkpt>
      <trkpt lat="44.4514" lon="-0.57216">
        <ele>128.462562</ele>
        <time>2022-12-27T15:29:20.728Z</time>
      </trkpt>
      <trkpt lat="44.45138" lon="-0.57202">
        <ele>128.374096</ele>
        <time>2022-12-27T15:29:22.752Z</time>
      </trkpt>
      <trkpt lat="44.45136" lon="-0.57189">
        <ele>128.253828</ele>
        <time>2022-12-27T15:29:24.731Z</time>
      </trkpt>
      <trkpt lat="44.45135" lon="-0.57176">
        <ele>128.125477</ele>
        <time>2022-12-27T15:29:26.750Z</time>
      </trkpt>
      <trkpt lat="44.45133" lon="-0.57162">
        <ele>127.98161</ele>
        <time>2022-12-27T15:29:28.755Z</time>
      </trkpt>
      <trkpt lat="44.45131" lon="-0.57146">
        <ele>127.821543</ele>
        <time>2022-12-27T15:29:30.749Z</time>
      </trkpt>
      <trkpt lat="44.45129" lon="-0.57131">
        <ele>127.667115</ele>
        <time>2022-12-27T15:29:32.750Z</time>
      </trkpt>
      <trkpt lat="44.45126" lon="-0.57116">
        <ele>127.512814</ele>
        <time>2022-12-27T15:29:34.735Z</time>
      </trkpt>
      <trkpt lat="44.45123" lon="-0.571">
        <ele>127.357824</ele>
        <time>2022-12-27T15:29:36.756Z</time>
      </trkpt>
      <trkpt lat="44.45121" lon="-0.57087">
        <ele>127.216397</ele>
        <time>2022-12-27T15:29:38.741Z</time>
      </trkpt>
      <trkpt lat="44.45119" lon="-0.57074">
        <ele>127.086219</ele>
        <time>2022-12-27T15:29:40.753Z</time>
      </trkpt>
      <trkpt lat="44.45116" lon="-0.5706">
        <ele>126.944139</ele>
        <time>2022-12-27T15:29:42.751Z</time>
      </trkpt>
      <trkpt lat="44.45114" lon="-0.57046">
        <ele>126.798835</ele>
        <time>2022-12-27T15:29:44.754Z</time>
      </trkpt>
      <trkpt lat="44.45112" lon="-0.57032">
        <ele>126.656442</ele>
        <time>2022-12-27T15:29:46.755Z</time>
      </trkpt>
      <trkpt lat="44.45109" lon="-0.57018">
        <ele>126.517555</ele>
        <time>2022-12-27T15:29:48.751Z</time>
      </trkpt>
      <trkpt lat="44.45107" lon="-0.57003">
        <ele>126.368065</ele>
        <time>2022-12-27T15:29:50.744Z</time>
      </trkpt>
      <trkpt lat="44.45105" lon="-0.56987">
        <ele>126.206319</ele>
        <time>2022-12-27T15:29:52.735Z</time>
      </trkpt>
      <trkpt lat="44.45103" lon="-0.56972">
        <ele>126.057018</ele>
        <time>2022-12-27T15:29:54.745Z</time>
      </trkpt>
      <trkpt lat="44.45101" lon="-0.56958">
        <ele>125.906994</ele>
        <time>2022-12-27T15:29:56.747Z</time>
      </trkpt>
      <trkpt lat="44.45099" lon="-0.56943">
        <ele>125.897096</ele>
        <time>2022-12-27T15:29:58.749Z</time>
      </trkpt>
      <trkpt lat="44.45096" lon="-0.56927">
        <ele>125.949669</ele>
        <time>2022-12-27T15:30:00.748Z</time>
      </trkpt>
      <trkpt lat="44.45094" lon="-0.56912">
        <ele>125.999666</ele>
        <time>2022-12-27T15:30:02.746Z</time>
      </trkpt>
      <trkpt lat="44.45092" lon="-0.56897">
        <ele>126.049432</ele>
        <time>2022-12-27T15:30:04.749Z</time>
      </trkpt>
      <trkpt lat="44.4509" lon="-0.56882">
        <ele>126.099476</ele>
        <time>2022-12-27T15:30:06.749Z</time>
      </trkpt>
      <trkpt lat="44.45087" lon="-0.56867">
        <ele>126.149727</ele>
        <time>2022-12-27T15:30:08.750Z</time>
      </trkpt>
      <trkpt lat="44.45086" lon="-0.56852">
        <ele>126.20053</ele>
        <time>2022-12-27T15:30:10.730Z</time>
      </trkpt>
      <trkpt lat="44.45083" lon="-0.56836">
        <ele>126.252706</ele>
        <time>2022-12-27T15:30:12.750Z</time>
      </trkpt>
      <trkpt lat="44.45081" lon="-0.56821">
        <ele>126.303664</ele>
        <time>2022-12-27T15:30:14.752Z</time>
      </trkpt>
      <trkpt lat="44.45079" lon="-0.56806">
        <ele>126.35381</ele>
        <time>2022-12-27T15:30:16.752Z</time>
      </trkpt>
      <trkpt lat="44.45077" lon="-0.5679">
        <ele>126.405577</ele>
        <time>2022-12-27T15:30:18.756Z</time>
      </trkpt>
      <trkpt lat="44.45074" lon="-0.56776">
        <ele>126.453298</ele>
        <time>2022-12-27T15:30:20.749Z</time>
      </trkpt>
      <trkpt lat="44.45072" lon="-0.56761">
        <ele>126.500971</ele>
        <time>2022-12-27T15:30:22.733Z</time>
      </trkpt>
      <trkpt lat="44.45071" lon="-0.56748">
        <ele>126.544638</ele>
        <time>2022-12-27T15:30:24.735Z</time>
      </trkpt>
      <trkpt lat="44.45069" lon="-0.56736">
        <ele>126.586383</ele>
        <time>2022-12-27T15:30:26.755Z</time>
      </trkpt>
      <trkpt lat="44.45067" lon="-0.56718">
        <ele>126.645045</ele>
        <time>2022-12-27T15:30:29.751Z</time>
      </trkpt>
      <trkpt lat="44.45065" lon="-0.56705">
        <ele>126.684155</ele>
        <time>2022-12-27T15:30:31.729Z</time>
      </trkpt>
      <trkpt lat="44.45063" lon="-0.56692">
        <ele>126.687722</ele>
        <time>2022-12-27T15:30:33.731Z</time>
      </trkpt>
      <trkpt lat="44.45061" lon="-0.56673">
        <ele>126.692811</ele>
        <time>2022-12-27T15:30:36.748Z</time>
      </trkpt>
      <trkpt lat="44.45058" lon="-0.56657">
        <ele>126.6971</ele>
        <time>2022-12-27T15:30:38.732Z</time>
      </trkpt>
      <trkpt lat="44.45056" lon="-0.56643">
        <ele>126.70093</ele>
        <time>2022-12-27T15:30:40.750Z</time>
      </trkpt>
      <trkpt lat="44.45054" lon="-0.56628">
        <ele>126.705047</ele>
        <time>2022-12-27T15:30:42.751Z</time>
      </trkpt>
      <trkpt lat="44.4505" lon="-0.56607">
        <ele>126.710696</ele>
        <time>2022-12-27T15:30:45.749Z</time>
      </trkpt>
      <trkpt lat="44.45048" lon="-0.56593">
        <ele>126.714351</ele>
        <time>2022-12-27T15:30:47.751Z</time>
      </trkpt>
      <trkpt lat="44.45046" lon="-0.56579">
        <ele>126.718161</ele>
        <time>2022-12-27T15:30:49.745Z</time>
      </trkpt>
      <trkpt lat="44.45045" lon="-0.56563">
        <ele>126.72256</ele>
        <time>2022-12-27T15:30:51.752Z</time>
      </trkpt>
      <trkpt lat="44.45042" lon="-0.56548">
        <ele>126.726712</ele>
        <time>2022-12-27T15:30:53.750Z</time>
      </trkpt>
      <trkpt lat="44.4504" lon="-0.56535">
        <ele>126.730178</ele>
        <time>2022-12-27T15:30:55.749Z</time>
      </trkpt>
      <trkpt lat="44.45038" lon="-0.5652">
        <ele>126.734145</ele>
        <time>2022-12-27T15:30:57.751Z</time>
      </trkpt>
      <trkpt lat="44.45036" lon="-0.56505">
        <ele>126.73836</ele>
        <time>2022-12-27T15:30:59.741Z</time>
      </trkpt>
      <trkpt lat="44.45034" lon="-0.56488">
        <ele>126.742718</ele>
        <time>2022-12-27T15:31:01.748Z</time>
      </trkpt>
      <trkpt lat="44.45031" lon="-0.56474">
        <ele>126.74669</ele>
        <time>2022-12-27T15:31:03.751Z</time>
      </trkpt>
      <trkpt lat="44.45029" lon="-0.56459">
        <ele>126.749391</ele>
        <time>2022-12-27T15:31:05.751Z</time>
      </trkpt>
      <trkpt lat="44.45027" lon="-0.56445">
        <ele>126.718281</ele>
        <time>2022-12-27T15:31:07.752Z</time>
      </trkpt>
      <trkpt lat="44.45026" lon="-0.56431">
        <ele>126.686517</ele>
        <time>2022-12-27T15:31:09.750Z</time>
      </trkpt>
      <trkpt lat="44.45023" lon="-0.56417">
        <ele>126.653537</ele>
        <time>2022-12-27T15:31:11.732Z</time>
      </trkpt>
      <trkpt lat="44.45021" lon="-0.56402">
        <ele>126.62062</ele>
        <time>2022-12-27T15:31:13.750Z</time>
      </trkpt>
      <trkpt lat="44.45019" lon="-0.56386">
        <ele>126.584973</ele>
        <time>2022-12-27T15:31:15.751Z</time>
      </trkpt>
      <trkpt lat="44.45018" lon="-0.56372">
        <ele>126.553325</ele>
        <time>2022-12-27T15:31:17.755Z</time>
      </trkpt>
      <trkpt lat="44.45016" lon="-0.56359">
        <ele>126.522494</ele>
        <time>2022-12-27T15:31:19.753Z</time>
      </trkpt>
      <trkpt lat="44.45014" lon="-0.56346">
        <ele>126.492652</ele>
        <time>2022-12-27T15:31:21.749Z</time>
      </trkpt>
      <trkpt lat="44.45012" lon="-0.56333">
        <ele>126.464299</ele>
        <time>2022-12-27T15:31:23.748Z</time>
      </trkpt>
      <trkpt lat="44.4501" lon="-0.56321">
        <ele>126.435946</ele>
        <time>2022-12-27T15:31:25.751Z</time>
      </trkpt>
      <trkpt lat="44.45008" lon="-0.56308">
        <ele>126.406577</ele>
        <time>2022-12-27T15:31:27.749Z</time>
      </trkpt>
      <trkpt lat="44.45006" lon="-0.56295">
        <ele>126.377611</ele>
        <time>2022-12-27T15:31:29.748Z</time>
      </trkpt>
      <trkpt lat="44.45004" lon="-0.56282">
        <ele>126.347957</ele>
        <time>2022-12-27T15:31:31.749Z</time>
      </trkpt>
      <trkpt lat="44.45001" lon="-0.56266">
        <ele>126.311518</ele>
        <time>2022-12-27T15:31:34.754Z</time>
      </trkpt>
      <trkpt lat="44.45" lon="-0.56253">
        <ele>126.282711</ele>
        <time>2022-12-27T15:31:37.741Z</time>
      </trkpt>
      <trkpt lat="44.44997" lon="-0.56235">
        <ele>126.241863</ele>
        <time>2022-12-27T15:31:40.757Z</time>
      </trkpt>
      <trkpt lat="44.44995" lon="-0.56221">
        <ele>126.2091</ele>
        <time>2022-12-27T15:31:42.748Z</time>
      </trkpt>
      <trkpt lat="44.44993" lon="-0.56207">
        <ele>126.200983</ele>
        <time>2022-12-27T15:31:44.747Z</time>
      </trkpt>
      <trkpt lat="44.44991" lon="-0.56194">
        <ele>126.226666</ele>
        <time>2022-12-27T15:31:46.753Z</time>
      </trkpt>
      <trkpt lat="44.44989" lon="-0.5618">
        <ele>126.25387</ele>
        <time>2022-12-27T15:31:48.747Z</time>
      </trkpt>
      <trkpt lat="44.44987" lon="-0.56166">
        <ele>126.28172</ele>
        <time>2022-12-27T15:31:50.753Z</time>
      </trkpt>
      <trkpt lat="44.44985" lon="-0.56151">
        <ele>126.310185</ele>
        <time>2022-12-27T15:31:52.751Z</time>
      </trkpt>
      <trkpt lat="44.44983" lon="-0.56136">
        <ele>126.339641</ele>
        <time>2022-12-27T15:31:54.750Z</time>
      </trkpt>
      <trkpt lat="44.44981" lon="-0.56121">
        <ele>126.368642</ele>
        <time>2022-12-27T15:31:56.747Z</time>
      </trkpt>
      <trkpt lat="44.44979" lon="-0.56106">
        <ele>126.397775</ele>
        <time>2022-12-27T15:31:58.733Z</time>
      </trkpt>
      <trkpt lat="44.44976" lon="-0.56092">
        <ele>126.425972</ele>
        <time>2022-12-27T15:32:00.735Z</time>
      </trkpt>
      <trkpt lat="44.44974" lon="-0.56077">
        <ele>126.455518</ele>
        <time>2022-12-27T15:32:02.750Z</time>
      </trkpt>
      <trkpt lat="44.44972" lon="-0.56062">
        <ele>126.484171</ele>
        <time>2022-12-27T15:32:04.746Z</time>
      </trkpt>
      <trkpt lat="44.44971" lon="-0.56047">
        <ele>126.513529</ele>
        <time>2022-12-27T15:32:06.751Z</time>
      </trkpt>
      <trkpt lat="44.44968" lon="-0.56032">
        <ele>126.54303</ele>
        <time>2022-12-27T15:32:08.793Z</time>
      </trkpt>
      <trkpt lat="44.44965" lon="-0.56018">
        <ele>126.570243</ele>
        <time>2022-12-27T15:32:10.741Z</time>
      </trkpt>
      <trkpt lat="44.44963" lon="-0.56003">
        <ele>126.59979</ele>
        <time>2022-12-27T15:32:12.749Z</time>
      </trkpt>
      <trkpt lat="44.44961" lon="-0.55988">
        <ele>126.62797</ele>
        <time>2022-12-27T15:32:14.749Z</time>
      </trkpt>
      <trkpt lat="44.44959" lon="-0.55974">
        <ele>126.655418</ele>
        <time>2022-12-27T15:32:16.734Z</time>
      </trkpt>
      <trkpt lat="44.44958" lon="-0.55961">
        <ele>126.659473</ele>
        <time>2022-12-27T15:32:18.747Z</time>
      </trkpt>
      <trkpt lat="44.44956" lon="-0.55949">
        <ele>126.622322</ele>
        <time>2022-12-27T15:32:20.739Z</time>
      </trkpt>
      <trkpt lat="44.44954" lon="-0.55936">
        <ele>126.584896</ele>
        <time>2022-12-27T15:32:22.745Z</time>
      </trkpt>
      <trkpt lat="44.44952" lon="-0.55923">
        <ele>126.545182</ele>
        <time>2022-12-27T15:32:24.751Z</time>
      </trkpt>
      <trkpt lat="44.4495" lon="-0.5591">
        <ele>126.506793</ele>
        <time>2022-12-27T15:32:26.748Z</time>
      </trkpt>
      <trkpt lat="44.44948" lon="-0.55896">
        <ele>126.465542</ele>
        <time>2022-12-27T15:32:28.748Z</time>
      </trkpt>
      <trkpt lat="44.44946" lon="-0.55882">
        <ele>126.421533</ele>
        <time>2022-12-27T15:32:30.752Z</time>
      </trkpt>
      <trkpt lat="44.44944" lon="-0.55868">
        <ele>126.380143</ele>
        <time>2022-12-27T15:32:32.752Z</time>
      </trkpt>
      <trkpt lat="44.44941" lon="-0.55854">
        <ele>126.336724</ele>
        <time>2022-12-27T15:32:34.745Z</time>
      </trkpt>
      <trkpt lat="44.4494" lon="-0.55839">
        <ele>126.293447</ele>
        <time>2022-12-27T15:32:36.749Z</time>
      </trkpt>
      <trkpt lat="44.44938" lon="-0.55823">
        <ele>126.245764</ele>
        <time>2022-12-27T15:32:38.749Z</time>
      </trkpt>
      <trkpt lat="44.44935" lon="-0.55807">
        <ele>126.198635</ele>
        <time>2022-12-27T15:32:40.752Z</time>
      </trkpt>
      <trkpt lat="44.44933" lon="-0.55791">
        <ele>126.15032</ele>
        <time>2022-12-27T15:32:42.745Z</time>
      </trkpt>
      <trkpt lat="44.44931" lon="-0.55776">
        <ele>126.104672</ele>
        <time>2022-12-27T15:32:44.746Z</time>
      </trkpt>
      <trkpt lat="44.44929" lon="-0.5576">
        <ele>126.058236</ele>
        <time>2022-12-27T15:32:46.754Z</time>
      </trkpt>
      <trkpt lat="44.44927" lon="-0.55744">
        <ele>126.010284</ele>
        <time>2022-12-27T15:32:48.753Z</time>
      </trkpt>
      <trkpt lat="44.44924" lon="-0.55727">
        <ele>125.95906</ele>
        <time>2022-12-27T15:32:50.735Z</time>
      </trkpt>
      <trkpt lat="44.44922" lon="-0.55711">
        <ele>125.873729</ele>
        <time>2022-12-27T15:32:52.744Z</time>
      </trkpt>
      <trkpt lat="44.4492" lon="-0.55696">
        <ele>125.748617</ele>
        <time>2022-12-27T15:32:54.747Z</time>
      </trkpt>
      <trkpt lat="44.44918" lon="-0.55679">
        <ele>125.617054</ele>
        <time>2022-12-27T15:32:56.755Z</time>
      </trkpt>
      <trkpt lat="44.44916" lon="-0.55663">
        <ele>125.482731</ele>
        <time>2022-12-27T15:32:58.750Z</time>
      </trkpt>
      <trkpt lat="44.44914" lon="-0.55647">
        <ele>125.354421</ele>
        <time>2022-12-27T15:33:00.730Z</time>
      </trkpt>
      <trkpt lat="44.44911" lon="-0.5563">
        <ele>125.216325</ele>
        <time>2022-12-27T15:33:02.762Z</time>
      </trkpt>
      <trkpt lat="44.44909" lon="-0.55614">
        <ele>125.08846</ele>
        <time>2022-12-27T15:33:04.756Z</time>
      </trkpt>
      <trkpt lat="44.44905" lon="-0.55598">
        <ele>124.952049</ele>
        <time>2022-12-27T15:33:06.750Z</time>
      </trkpt>
      <trkpt lat="44.44903" lon="-0.55582">
        <ele>124.822829</ele>
        <time>2022-12-27T15:33:08.748Z</time>
      </trkpt>
      <trkpt lat="44.44901" lon="-0.55566">
        <ele>124.693011</ele>
        <time>2022-12-27T15:33:10.751Z</time>
      </trkpt>
      <trkpt lat="44.44898" lon="-0.55549">
        <ele>124.558795</ele>
        <time>2022-12-27T15:33:12.750Z</time>
      </trkpt>
      <trkpt lat="44.44896" lon="-0.55532">
        <ele>124.420579</ele>
        <time>2022-12-27T15:33:14.750Z</time>
      </trkpt>
      <trkpt lat="44.44893" lon="-0.55514">
        <ele>124.275305</ele>
        <time>2022-12-27T15:33:16.751Z</time>
      </trkpt>
      <trkpt lat="44.4489" lon="-0.55497">
        <ele>124.133184</ele>
        <time>2022-12-27T15:33:18.762Z</time>
      </trkpt>
      <trkpt lat="44.44888" lon="-0.5548">
        <ele>123.994967</ele>
        <time>2022-12-27T15:33:20.754Z</time>
      </trkpt>
      <trkpt lat="44.44885" lon="-0.55461">
        <ele>123.723539</ele>
        <time>2022-12-27T15:33:22.749Z</time>
      </trkpt>
      <trkpt lat="44.44883" lon="-0.55444">
        <ele>123.372199</ele>
        <time>2022-12-27T15:33:24.751Z</time>
      </trkpt>
      <trkpt lat="44.4488" lon="-0.55425">
        <ele>123.010009</ele>
        <time>2022-12-27T15:33:26.753Z</time>
      </trkpt>
      <trkpt lat="44.44878" lon="-0.55408">
        <ele>122.657659</ele>
        <time>2022-12-27T15:33:28.749Z</time>
      </trkpt>
      <trkpt lat="44.44875" lon="-0.5539">
        <ele>122.314282</ele>
        <time>2022-12-27T15:33:30.751Z</time>
      </trkpt>
      <trkpt lat="44.44872" lon="-0.55374">
        <ele>121.991777</ele>
        <time>2022-12-27T15:33:32.754Z</time>
      </trkpt>
      <trkpt lat="44.4487" lon="-0.5536">
        <ele>121.703281</ele>
        <time>2022-12-27T15:33:34.754Z</time>
      </trkpt>
      <trkpt lat="44.44868" lon="-0.55344">
        <ele>121.384376</ele>
        <time>2022-12-27T15:33:36.752Z</time>
      </trkpt>
      <trkpt lat="44.44865" lon="-0.55327">
        <ele>121.064087</ele>
        <time>2022-12-27T15:33:38.752Z</time>
      </trkpt>
      <trkpt lat="44.44863" lon="-0.55312">
        <ele>120.755753</ele>
        <time>2022-12-27T15:33:40.755Z</time>
      </trkpt>
      <trkpt lat="44.44861" lon="-0.55294">
        <ele>120.408234</ele>
        <time>2022-12-27T15:33:42.751Z</time>
      </trkpt>
      <trkpt lat="44.44859" lon="-0.55277">
        <ele>120.064009</ele>
        <time>2022-12-27T15:33:44.750Z</time>
      </trkpt>
      <trkpt lat="44.44857" lon="-0.55258">
        <ele>119.700715</ele>
        <time>2022-12-27T15:33:46.750Z</time>
      </trkpt>
      <trkpt lat="44.44854" lon="-0.5524">
        <ele>119.339106</ele>
        <time>2022-12-27T15:33:48.750Z</time>
      </trkpt>
      <trkpt lat="44.44851" lon="-0.55222">
        <ele>119.052524</ele>
        <time>2022-12-27T15:33:50.751Z</time>
      </trkpt>
      <trkpt lat="44.44848" lon="-0.55205">
        <ele>119.120439</ele>
        <time>2022-12-27T15:33:52.755Z</time>
      </trkpt>
      <trkpt lat="44.44846" lon="-0.55188">
        <ele>119.190985</ele>
        <time>2022-12-27T15:33:54.750Z</time>
      </trkpt>
      <trkpt lat="44.44844" lon="-0.55171">
        <ele>119.25905</ele>
        <time>2022-12-27T15:33:56.759Z</time>
      </trkpt>
      <trkpt lat="44.44842" lon="-0.55155">
        <ele>119.32585</ele>
        <time>2022-12-27T15:33:58.750Z</time>
      </trkpt>
      <trkpt lat="44.44839" lon="-0.55138">
        <ele>119.392993</ele>
        <time>2022-12-27T15:34:00.748Z</time>
      </trkpt>
      <trkpt lat="44.44837" lon="-0.55123">
        <ele>119.453694</ele>
        <time>2022-12-27T15:34:02.740Z</time>
      </trkpt>
      <trkpt lat="44.44835" lon="-0.55108">
        <ele>119.516297</ele>
        <time>2022-12-27T15:34:04.733Z</time>
      </trkpt>
      <trkpt lat="44.44832" lon="-0.55094">
        <ele>119.57462</ele>
        <time>2022-12-27T15:34:06.750Z</time>
      </trkpt>
      <trkpt lat="44.4483" lon="-0.55079">
        <ele>119.634377</ele>
        <time>2022-12-27T15:34:08.759Z</time>
      </trkpt>
      <trkpt lat="44.44828" lon="-0.55064">
        <ele>119.695365</ele>
        <time>2022-12-27T15:34:10.757Z</time>
      </trkpt>
      <trkpt lat="44.44826" lon="-0.55049">
        <ele>119.758712</ele>
        <time>2022-12-27T15:34:12.755Z</time>
      </trkpt>
      <trkpt lat="44.44824" lon="-0.55032">
        <ele>119.825511</ele>
        <time>2022-12-27T15:34:14.756Z</time>
      </trkpt>
      <trkpt lat="44.44822" lon="-0.55016">
        <ele>119.89242</ele>
        <time>2022-12-27T15:34:16.753Z</time>
      </trkpt>
      <trkpt lat="44.4482" lon="-0.54999">
        <ele>119.960099</ele>
        <time>2022-12-27T15:34:18.750Z</time>
      </trkpt>
      <trkpt lat="44.44817" lon="-0.54983">
        <ele>120.027401</ele>
        <time>2022-12-27T15:34:20.738Z</time>
      </trkpt>
      <trkpt lat="44.44815" lon="-0.54966">
        <ele>119.908114</ele>
        <time>2022-12-27T15:34:22.755Z</time>
      </trkpt>
      <trkpt lat="44.44812" lon="-0.5495">
        <ele>119.726619</ele>
        <time>2022-12-27T15:34:24.752Z</time>
      </trkpt>
      <trkpt lat="44.4481" lon="-0.54933">
        <ele>119.529909</ele>
        <time>2022-12-27T15:34:26.754Z</time>
      </trkpt>
      <trkpt lat="44.44808" lon="-0.54916">
        <ele>119.342594</ele>
        <time>2022-12-27T15:34:28.753Z</time>
      </trkpt>
      <trkpt lat="44.44805" lon="-0.54899">
        <ele>119.146793</ele>
        <time>2022-12-27T15:34:30.757Z</time>
      </trkpt>
      <trkpt lat="44.44803" lon="-0.54882">
        <ele>118.953348</ele>
        <time>2022-12-27T15:34:32.743Z</time>
      </trkpt>
      <trkpt lat="44.448" lon="-0.54866">
        <ele>118.769566</ele>
        <time>2022-12-27T15:34:34.753Z</time>
      </trkpt>
      <trkpt lat="44.44798" lon="-0.54849">
        <ele>118.582801</ele>
        <time>2022-12-27T15:34:36.750Z</time>
      </trkpt>
      <trkpt lat="44.44795" lon="-0.54834">
        <ele>118.405278</ele>
        <time>2022-12-27T15:34:38.752Z</time>
      </trkpt>
      <trkpt lat="44.44793" lon="-0.54818">
        <ele>118.230979</ele>
        <time>2022-12-27T15:34:40.741Z</time>
      </trkpt>
      <trkpt lat="44.44791" lon="-0.54803">
        <ele>118.062109</ele>
        <time>2022-12-27T15:34:42.751Z</time>
      </trkpt>
      <trkpt lat="44.44789" lon="-0.54789">
        <ele>117.894212</ele>
        <time>2022-12-27T15:34:44.755Z</time>
      </trkpt>
      <trkpt lat="44.44786" lon="-0.54773">
        <ele>117.712913</ele>
        <time>2022-12-27T15:34:46.750Z</time>
      </trkpt>
      <trkpt lat="44.44784" lon="-0.54757">
        <ele>117.534891</ele>
        <time>2022-12-27T15:34:48.751Z</time>
      </trkpt>
      <trkpt lat="44.44783" lon="-0.54741">
        <ele>117.360633</ele>
        <time>2022-12-27T15:34:50.751Z</time>
      </trkpt>
      <trkpt lat="44.44779" lon="-0.54726">
        <ele>117.182159</ele>
        <time>2022-12-27T15:34:52.755Z</time>
      </trkpt>
      <trkpt lat="44.44777" lon="-0.5471">
        <ele>117.002523</ele>
        <time>2022-12-27T15:34:54.753Z</time>
      </trkpt>
      <trkpt lat="44.44775" lon="-0.54694">
        <ele>116.823863</ele>
        <time>2022-12-27T15:34:56.753Z</time>
      </trkpt>
      <trkpt lat="44.44772" lon="-0.54678">
        <ele>116.642258</ele>
        <time>2022-12-27T15:34:58.753Z</time>
      </trkpt>
      <trkpt lat="44.4477" lon="-0.54662">
        <ele>116.464677</ele>
        <time>2022-12-27T15:35:00.751Z</time>
      </trkpt>
      <trkpt lat="44.44768" lon="-0.54646">
        <ele>116.287096</ele>
        <time>2022-12-27T15:35:02.752Z</time>
      </trkpt>
      <trkpt lat="44.44766" lon="-0.54631">
        <ele>116.11255</ele>
        <time>2022-12-27T15:35:04.736Z</time>
      </trkpt>
      <trkpt lat="44.44763" lon="-0.54615">
        <ele>115.930344</ele>
        <time>2022-12-27T15:35:06.755Z</time>
      </trkpt>
      <trkpt lat="44.44761" lon="-0.54598">
        <ele>115.747817</ele>
        <time>2022-12-27T15:35:08.755Z</time>
      </trkpt>
      <trkpt lat="44.44759" lon="-0.54582">
        <ele>115.564327</ele>
        <time>2022-12-27T15:35:10.742Z</time>
      </trkpt>
      <trkpt lat="44.44756" lon="-0.54566">
        <ele>115.385045</ele>
        <time>2022-12-27T15:35:12.752Z</time>
      </trkpt>
      <trkpt lat="44.44754" lon="-0.5455">
        <ele>115.206161</ele>
        <time>2022-12-27T15:35:14.752Z</time>
      </trkpt>
      <trkpt lat="44.44752" lon="-0.54535">
        <ele>115.034283</ele>
        <time>2022-12-27T15:35:16.747Z</time>
      </trkpt>
      <trkpt lat="44.4475" lon="-0.54519">
        <ele>114.858084</ele>
        <time>2022-12-27T15:35:18.753Z</time>
      </trkpt>
      <trkpt lat="44.44747" lon="-0.54503">
        <ele>114.67911</ele>
        <time>2022-12-27T15:35:20.756Z</time>
      </trkpt>
      <trkpt lat="44.44745" lon="-0.54488">
        <ele>114.505647</ele>
        <time>2022-12-27T15:35:22.733Z</time>
      </trkpt>
      <trkpt lat="44.44742" lon="-0.54471">
        <ele>114.317296</ele>
        <time>2022-12-27T15:35:24.756Z</time>
      </trkpt>
      <trkpt lat="44.44741" lon="-0.54458">
        <ele>114.161612</ele>
        <time>2022-12-27T15:35:26.752Z</time>
      </trkpt>
      <trkpt lat="44.44738" lon="-0.54438">
        <ele>113.937034</ele>
        <time>2022-12-27T15:35:29.749Z</time>
      </trkpt>
      <trkpt lat="44.44735" lon="-0.54425">
        <ele>113.789652</ele>
        <time>2022-12-27T15:35:31.752Z</time>
      </trkpt>
      <trkpt lat="44.44733" lon="-0.54411">
        <ele>113.627884</ele>
        <time>2022-12-27T15:35:33.755Z</time>
      </trkpt>
      <trkpt lat="44.44729" lon="-0.54397">
        <ele>113.464391</ele>
        <time>2022-12-27T15:35:36.755Z</time>
      </trkpt>
      <trkpt lat="44.44729" lon="-0.54383">
        <ele>113.305863</ele>
        <time>2022-12-27T15:35:38.754Z</time>
      </trkpt>
      <trkpt lat="44.44729" lon="-0.54369">
        <ele>113.151921</ele>
        <time>2022-12-27T15:35:40.753Z</time>
      </trkpt>
      <trkpt lat="44.44726" lon="-0.54356">
        <ele>112.998309</ele>
        <time>2022-12-27T15:35:42.756Z</time>
      </trkpt>
      <trkpt lat="44.44725" lon="-0.54341">
        <ele>112.833765</ele>
        <time>2022-12-27T15:35:44.751Z</time>
      </trkpt>
      <trkpt lat="44.44722" lon="-0.54326">
        <ele>112.655748</ele>
        <time>2022-12-27T15:35:46.751Z</time>
      </trkpt>
      <trkpt lat="44.4472" lon="-0.5431">
        <ele>112.479457</ele>
        <time>2022-12-27T15:35:48.753Z</time>
      </trkpt>
      <trkpt lat="44.44718" lon="-0.54296">
        <ele>112.310153</ele>
        <time>2022-12-27T15:35:50.753Z</time>
      </trkpt>
      <trkpt lat="44.44715" lon="-0.54281">
        <ele>112.143378</ele>
        <time>2022-12-27T15:35:52.753Z</time>
      </trkpt>
      <trkpt lat="44.44713" lon="-0.54266">
        <ele>111.973721</ele>
        <time>2022-12-27T15:35:54.749Z</time>
      </trkpt>
      <trkpt lat="44.44711" lon="-0.54253">
        <ele>111.827495</ele>
        <time>2022-12-27T15:35:56.750Z</time>
      </trkpt>
      <trkpt lat="44.4471" lon="-0.54238">
        <ele>111.661425</ele>
        <time>2022-12-27T15:35:58.750Z</time>
      </trkpt>
      <trkpt lat="44.44708" lon="-0.54225">
        <ele>111.792553</ele>
        <time>2022-12-27T15:36:00.751Z</time>
      </trkpt>
      <trkpt lat="44.44705" lon="-0.54211">
        <ele>111.936507</ele>
        <time>2022-12-27T15:36:02.752Z</time>
      </trkpt>
      <trkpt lat="44.44703" lon="-0.54197">
        <ele>112.074423</ele>
        <time>2022-12-27T15:36:04.755Z</time>
      </trkpt>
      <trkpt lat="44.44701" lon="-0.54182">
        <ele>112.220338</ele>
        <time>2022-12-27T15:36:06.749Z</time>
      </trkpt>
      <trkpt lat="44.447" lon="-0.54169">
        <ele>112.352946</ele>
        <time>2022-12-27T15:36:08.733Z</time>
      </trkpt>
      <trkpt lat="44.44698" lon="-0.54155">
        <ele>112.498268</ele>
        <time>2022-12-27T15:36:10.742Z</time>
      </trkpt>
      <trkpt lat="44.44695" lon="-0.54139">
        <ele>112.651009</ele>
        <time>2022-12-27T15:36:12.737Z</time>
      </trkpt>
      <trkpt lat="44.44693" lon="-0.54123">
        <ele>112.815201</ele>
        <time>2022-12-27T15:36:14.753Z</time>
      </trkpt>
      <trkpt lat="44.4469" lon="-0.54108">
        <ele>112.964982</ele>
        <time>2022-12-27T15:36:16.752Z</time>
      </trkpt>
      <trkpt lat="44.44688" lon="-0.54092">
        <ele>113.131258</ele>
        <time>2022-12-27T15:36:18.752Z</time>
      </trkpt>
      <trkpt lat="44.44686" lon="-0.54077">
        <ele>113.282353</ele>
        <time>2022-12-27T15:36:20.756Z</time>
      </trkpt>
      <trkpt lat="44.44684" lon="-0.54061">
        <ele>113.440899</ele>
        <time>2022-12-27T15:36:22.752Z</time>
      </trkpt>
      <trkpt lat="44.44682" lon="-0.54045">
        <ele>113.60161</ele>
        <time>2022-12-27T15:36:24.753Z</time>
      </trkpt>
      <trkpt lat="44.4468" lon="-0.54029">
        <ele>113.760857</ele>
        <time>2022-12-27T15:36:26.750Z</time>
      </trkpt>
      <trkpt lat="44.44678" lon="-0.54013">
        <ele>113.915012</ele>
        <time>2022-12-27T15:36:28.724Z</time>
      </trkpt>
      <trkpt lat="44.44676" lon="-0.53998">
        <ele>114.06671</ele>
        <time>2022-12-27T15:36:30.752Z</time>
      </trkpt>
      <trkpt lat="44.44674" lon="-0.53984">
        <ele>114.106829</ele>
        <time>2022-12-27T15:36:32.752Z</time>
      </trkpt>
      <trkpt lat="44.44672" lon="-0.53969">
        <ele>114.043856</ele>
        <time>2022-12-27T15:36:34.749Z</time>
      </trkpt>
      <trkpt lat="44.4467" lon="-0.53954">
        <ele>113.981898</ele>
        <time>2022-12-27T15:36:36.732Z</time>
      </trkpt>
      <trkpt lat="44.44668" lon="-0.53938">
        <ele>113.915623</ele>
        <time>2022-12-27T15:36:38.755Z</time>
      </trkpt>
      <trkpt lat="44.44666" lon="-0.53924">
        <ele>113.853255</ele>
        <time>2022-12-27T15:36:40.732Z</time>
      </trkpt>
      <trkpt lat="44.44663" lon="-0.53908">
        <ele>113.784851</ele>
        <time>2022-12-27T15:36:42.747Z</time>
      </trkpt>
      <trkpt lat="44.44661" lon="-0.53892">
        <ele>113.71847</ele>
        <time>2022-12-27T15:36:44.753Z</time>
      </trkpt>
      <trkpt lat="44.44658" lon="-0.53876">
        <ele>113.650045</ele>
        <time>2022-12-27T15:36:46.742Z</time>
      </trkpt>
      <trkpt lat="44.44656" lon="-0.5386">
        <ele>113.583154</ele>
        <time>2022-12-27T15:36:48.748Z</time>
      </trkpt>
      <trkpt lat="44.44654" lon="-0.53844">
        <ele>113.513727</ele>
        <time>2022-12-27T15:36:50.752Z</time>
      </trkpt>
      <trkpt lat="44.44652" lon="-0.53828">
        <ele>113.447269</ele>
        <time>2022-12-27T15:36:52.738Z</time>
      </trkpt>
      <trkpt lat="44.44649" lon="-0.53812">
        <ele>113.376506</ele>
        <time>2022-12-27T15:36:54.754Z</time>
      </trkpt>
      <trkpt lat="44.44647" lon="-0.53795">
        <ele>113.305391</ele>
        <time>2022-12-27T15:36:56.757Z</time>
      </trkpt>
      <trkpt lat="44.44645" lon="-0.53779">
        <ele>113.238524</ele>
        <time>2022-12-27T15:36:58.750Z</time>
      </trkpt>
      <trkpt lat="44.44642" lon="-0.53762">
        <ele>113.164048</ele>
        <time>2022-12-27T15:37:00.751Z</time>
      </trkpt>
      <trkpt lat="44.44639" lon="-0.53744">
        <ele>113.085555</ele>
        <time>2022-12-27T15:37:02.760Z</time>
      </trkpt>
      <trkpt lat="44.44636" lon="-0.53727">
        <ele>112.848509</ele>
        <time>2022-12-27T15:37:04.754Z</time>
      </trkpt>
      <trkpt lat="44.44634" lon="-0.53709">
        <ele>112.612768</ele>
        <time>2022-12-27T15:37:06.731Z</time>
      </trkpt>
      <trkpt lat="44.44631" lon="-0.53692">
        <ele>112.373788</ele>
        <time>2022-12-27T15:37:08.753Z</time>
      </trkpt>
      <trkpt lat="44.44628" lon="-0.53675">
        <ele>112.148608</ele>
        <time>2022-12-27T15:37:10.754Z</time>
      </trkpt>
      <trkpt lat="44.44625" lon="-0.53658">
        <ele>111.909143</ele>
        <time>2022-12-27T15:37:12.761Z</time>
      </trkpt>
      <trkpt lat="44.44623" lon="-0.5364">
        <ele>111.67539</ele>
        <time>2022-12-27T15:37:14.749Z</time>
      </trkpt>
      <trkpt lat="44.44621" lon="-0.53624">
        <ele>111.453614</ele>
        <time>2022-12-27T15:37:16.755Z</time>
      </trkpt>
      <trkpt lat="44.44619" lon="-0.53608">
        <ele>111.239477</ele>
        <time>2022-12-27T15:37:18.755Z</time>
      </trkpt>
      <trkpt lat="44.44616" lon="-0.53593">
        <ele>111.026792</ele>
        <time>2022-12-27T15:37:20.753Z</time>
      </trkpt>
      <trkpt lat="44.44614" lon="-0.53578">
        <ele>110.823807</ele>
        <time>2022-12-27T15:37:22.753Z</time>
      </trkpt>
      <trkpt lat="44.44612" lon="-0.53563">
        <ele>110.630649</ele>
        <time>2022-12-27T15:37:24.751Z</time>
      </trkpt>
      <trkpt lat="44.44609" lon="-0.53549">
        <ele>110.427901</ele>
        <time>2022-12-27T15:37:26.751Z</time>
      </trkpt>
      <trkpt lat="44.44607" lon="-0.53532">
        <ele>110.205312</ele>
        <time>2022-12-27T15:37:28.751Z</time>
      </trkpt>
      <trkpt lat="44.44604" lon="-0.53516">
        <ele>109.982295</ele>
        <time>2022-12-27T15:37:30.753Z</time>
      </trkpt>
      <trkpt lat="44.44601" lon="-0.53499">
        <ele>109.746324</ele>
        <time>2022-12-27T15:37:32.755Z</time>
      </trkpt>
      <trkpt lat="44.44599" lon="-0.53483">
        <ele>109.777164</ele>
        <time>2022-12-27T15:37:34.750Z</time>
      </trkpt>
      <trkpt lat="44.44596" lon="-0.53468">
        <ele>109.817354</ele>
        <time>2022-12-27T15:37:36.754Z</time>
      </trkpt>
      <trkpt lat="44.44594" lon="-0.53452">
        <ele>109.85763</ele>
        <time>2022-12-27T15:37:38.751Z</time>
      </trkpt>
      <trkpt lat="44.44591" lon="-0.53436">
        <ele>109.89898</ele>
        <time>2022-12-27T15:37:40.753Z</time>
      </trkpt>
      <trkpt lat="44.44588" lon="-0.53419">
        <ele>109.941753</ele>
        <time>2022-12-27T15:37:42.747Z</time>
      </trkpt>
      <trkpt lat="44.44586" lon="-0.53401">
        <ele>109.986169</ele>
        <time>2022-12-27T15:37:44.753Z</time>
      </trkpt>
      <trkpt lat="44.44582" lon="-0.53383">
        <ele>110.034413</ele>
        <time>2022-12-27T15:37:46.751Z</time>
      </trkpt>
      <trkpt lat="44.44578" lon="-0.53365">
        <ele>110.082347</ele>
        <time>2022-12-27T15:37:48.752Z</time>
      </trkpt>
      <trkpt lat="44.44574" lon="-0.53348">
        <ele>110.126312</ele>
        <time>2022-12-27T15:37:50.756Z</time>
      </trkpt>
      <trkpt lat="44.44571" lon="-0.53333">
        <ele>110.165415</ele>
        <time>2022-12-27T15:37:52.750Z</time>
      </trkpt>
      <trkpt lat="44.44568" lon="-0.53317">
        <ele>110.205767</ele>
        <time>2022-12-27T15:37:54.753Z</time>
      </trkpt>
      <trkpt lat="44.44565" lon="-0.53301">
        <ele>110.246122</ele>
        <time>2022-12-27T15:37:56.756Z</time>
      </trkpt>
      <trkpt lat="44.44562" lon="-0.53287">
        <ele>110.283118</ele>
        <time>2022-12-27T15:37:58.751Z</time>
      </trkpt>
      <trkpt lat="44.44558" lon="-0.53273">
        <ele>110.320177</ele>
        <time>2022-12-27T15:38:00.754Z</time>
      </trkpt>
      <trkpt lat="44.44555" lon="-0.5326">
        <ele>110.353929</ele>
        <time>2022-12-27T15:38:02.760Z</time>
      </trkpt>
      <trkpt lat="44.44552" lon="-0.53245">
        <ele>110.373722</ele>
        <time>2022-12-27T15:38:04.756Z</time>
      </trkpt>
      <trkpt lat="44.44549" lon="-0.53232">
        <ele>110.383489</ele>
        <time>2022-12-27T15:38:06.756Z</time>
      </trkpt>
      <trkpt lat="44.44546" lon="-0.53218">
        <ele>110.393688</ele>
        <time>2022-12-27T15:38:08.754Z</time>
      </trkpt>
      <trkpt lat="44.44544" lon="-0.53204">
        <ele>110.403699</ele>
        <time>2022-12-27T15:38:10.755Z</time>
      </trkpt>
      <trkpt lat="44.44541" lon="-0.53189">
        <ele>110.41486</ele>
        <time>2022-12-27T15:38:12.763Z</time>
      </trkpt>
      <trkpt lat="44.44537" lon="-0.53174">
        <ele>110.426176</ele>
        <time>2022-12-27T15:38:14.753Z</time>
      </trkpt>
      <trkpt lat="44.44533" lon="-0.53157">
        <ele>110.438415</ele>
        <time>2022-12-27T15:38:16.752Z</time>
      </trkpt>
      <trkpt lat="44.4453" lon="-0.53144">
        <ele>110.448385</ele>
        <time>2022-12-27T15:38:18.741Z</time>
      </trkpt>
      <trkpt lat="44.44528" lon="-0.53129">
        <ele>110.4588</ele>
        <time>2022-12-27T15:38:20.755Z</time>
      </trkpt>
      <trkpt lat="44.44525" lon="-0.53117">
        <ele>110.46797</ele>
        <time>2022-12-27T15:38:22.753Z</time>
      </trkpt>
      <trkpt lat="44.44523" lon="-0.53104">
        <ele>110.477725</ele>
        <time>2022-12-27T15:38:24.740Z</time>
      </trkpt>
      <trkpt lat="44.4452" lon="-0.53091">
        <ele>110.487193</ele>
        <time>2022-12-27T15:38:26.752Z</time>
      </trkpt>
      <trkpt lat="44.44517" lon="-0.53078">
        <ele>110.496797</ele>
        <time>2022-12-27T15:38:28.753Z</time>
      </trkpt>
      <trkpt lat="44.44515" lon="-0.53065">
        <ele>110.505726</ele>
        <time>2022-12-27T15:38:30.743Z</time>
      </trkpt>
      <trkpt lat="44.44512" lon="-0.53052">
        <ele>110.515262</ele>
        <time>2022-12-27T15:38:32.734Z</time>
      </trkpt>
      <trkpt lat="44.44509" lon="-0.53034">
        <ele>110.528487</ele>
        <time>2022-12-27T15:38:35.752Z</time>
      </trkpt>
      <trkpt lat="44.44505" lon="-0.53016">
        <ele>110.541959</ele>
        <time>2022-12-27T15:38:38.757Z</time>
      </trkpt>
      <trkpt lat="44.44502" lon="-0.53003">
        <ele>110.348219</ele>
        <time>2022-12-27T15:38:40.739Z</time>
      </trkpt>
      <trkpt lat="44.44499" lon="-0.52989">
        <ele>110.069974</ele>
        <time>2022-12-27T15:38:42.753Z</time>
      </trkpt>
      <trkpt lat="44.44496" lon="-0.52975">
        <ele>109.805032</ele>
        <time>2022-12-27T15:38:44.754Z</time>
      </trkpt>
      <trkpt lat="44.44493" lon="-0.52963">
        <ele>109.55488</ele>
        <time>2022-12-27T15:38:46.749Z</time>
      </trkpt>
      <trkpt lat="44.44489" lon="-0.52948">
        <ele>109.261859</ele>
        <time>2022-12-27T15:38:49.754Z</time>
      </trkpt>
      <trkpt lat="44.44487" lon="-0.52934">
        <ele>109.010976</ele>
        <time>2022-12-27T15:38:52.753Z</time>
      </trkpt>
      <trkpt lat="44.44485" lon="-0.5292">
        <ele>108.735646</ele>
        <time>2022-12-27T15:38:55.751Z</time>
      </trkpt>
      <trkpt lat="44.44482" lon="-0.52907">
        <ele>108.479122</ele>
        <time>2022-12-27T15:38:58.753Z</time>
      </trkpt>
      <trkpt lat="44.44478" lon="-0.52895">
        <ele>108.241593</ele>
        <time>2022-12-27T15:39:33.753Z</time>
      </trkpt>
      <trkpt lat="44.44475" lon="-0.52883">
        <ele>107.992047</ele>
        <time>2022-12-27T15:39:36.753Z</time>
      </trkpt>
      <trkpt lat="44.44471" lon="-0.52868">
        <ele>107.691247</ele>
        <time>2022-12-27T15:39:39.747Z</time>
      </trkpt>
      <trkpt lat="44.44467" lon="-0.5285">
        <ele>107.357121</ele>
        <time>2022-12-27T15:39:42.752Z</time>
      </trkpt>
      <trkpt lat="44.44464" lon="-0.52834">
        <ele>107.049908</ele>
        <time>2022-12-27T15:39:45.734Z</time>
      </trkpt>
      <trkpt lat="44.44461" lon="-0.52816">
        <ele>106.69992</ele>
        <time>2022-12-27T15:39:48.750Z</time>
      </trkpt>
      <trkpt lat="44.44461" lon="-0.52798">
        <ele>106.365692</ele>
        <time>2022-12-27T15:39:50.752Z</time>
      </trkpt>
      <trkpt lat="44.44457" lon="-0.52784">
        <ele>106.083103</ele>
        <time>2022-12-27T15:39:52.757Z</time>
      </trkpt>
      <trkpt lat="44.44455" lon="-0.5277">
        <ele>105.850872</ele>
        <time>2022-12-27T15:39:54.766Z</time>
      </trkpt>
      <trkpt lat="44.44451" lon="-0.52755">
        <ele>105.767724</ele>
        <time>2022-12-27T15:39:56.754Z</time>
      </trkpt>
      <trkpt lat="44.44448" lon="-0.52739">
        <ele>105.683574</ele>
        <time>2022-12-27T15:39:58.751Z</time>
      </trkpt>
      <trkpt lat="44.44444" lon="-0.52724">
        <ele>105.597238</ele>
        <time>2022-12-27T15:40:00.751Z</time>
      </trkpt>
      <trkpt lat="44.44442" lon="-0.52709">
        <ele>105.51739</ele>
        <time>2022-12-27T15:40:02.752Z</time>
      </trkpt>
      <trkpt lat="44.44438" lon="-0.52692">
        <ele>105.42295</ele>
        <time>2022-12-27T15:40:04.750Z</time>
      </trkpt>
      <trkpt lat="44.44435" lon="-0.52676">
        <ele>105.338842</ele>
        <time>2022-12-27T15:40:06.740Z</time>
      </trkpt>
      <trkpt lat="44.44432" lon="-0.5266">
        <ele>105.251598</ele>
        <time>2022-12-27T15:40:08.755Z</time>
      </trkpt>
      <trkpt lat="44.44428" lon="-0.52643">
        <ele>105.155784</ele>
        <time>2022-12-27T15:40:10.763Z</time>
      </trkpt>
      <trkpt lat="44.44425" lon="-0.52628">
        <ele>105.070659</ele>
        <time>2022-12-27T15:40:12.755Z</time>
      </trkpt>
      <trkpt lat="44.44422" lon="-0.52612">
        <ele>104.985339</ele>
        <time>2022-12-27T15:40:14.755Z</time>
      </trkpt>
      <trkpt lat="44.44418" lon="-0.52597">
        <ele>104.900687</ele>
        <time>2022-12-27T15:40:16.753Z</time>
      </trkpt>
      <trkpt lat="44.44415" lon="-0.52581">
        <ele>104.817134</ele>
        <time>2022-12-27T15:40:18.735Z</time>
      </trkpt>
      <trkpt lat="44.44412" lon="-0.52565">
        <ele>104.72857</ele>
        <time>2022-12-27T15:40:20.738Z</time>
      </trkpt>
      <trkpt lat="44.44408" lon="-0.52549">
        <ele>104.638951</ele>
        <time>2022-12-27T15:40:22.756Z</time>
      </trkpt>
      <trkpt lat="44.44405" lon="-0.52532">
        <ele>104.547247</ele>
        <time>2022-12-27T15:40:24.742Z</time>
      </trkpt>
      <trkpt lat="44.44402" lon="-0.52516">
        <ele>104.40283</ele>
        <time>2022-12-27T15:40:26.750Z</time>
      </trkpt>
      <trkpt lat="44.44399" lon="-0.52499">
        <ele>104.236825</ele>
        <time>2022-12-27T15:40:28.750Z</time>
      </trkpt>
      <trkpt lat="44.44397" lon="-0.52485">
        <ele>104.103944</ele>
        <time>2022-12-27T15:40:30.751Z</time>
      </trkpt>
      <trkpt lat="44.44394" lon="-0.52471">
        <ele>103.971316</ele>
        <time>2022-12-27T15:40:32.754Z</time>
      </trkpt>
      <trkpt lat="44.44391" lon="-0.52456">
        <ele>103.824034</ele>
        <time>2022-12-27T15:40:34.755Z</time>
      </trkpt>
      <trkpt lat="44.44388" lon="-0.52443">
        <ele>103.690762</ele>
        <time>2022-12-27T15:40:36.750Z</time>
      </trkpt>
      <trkpt lat="44.44385" lon="-0.52429">
        <ele>103.556877</ele>
        <time>2022-12-27T15:40:38.754Z</time>
      </trkpt>
      <trkpt lat="44.44381" lon="-0.52413">
        <ele>103.400086</ele>
        <time>2022-12-27T15:40:40.739Z</time>
      </trkpt>
      <trkpt lat="44.44379" lon="-0.52399">
        <ele>103.266352</ele>
        <time>2022-12-27T15:40:42.746Z</time>
      </trkpt>
      <trkpt lat="44.44375" lon="-0.52381">
        <ele>103.096112</ele>
        <time>2022-12-27T15:40:44.754Z</time>
      </trkpt>
      <trkpt lat="44.4437" lon="-0.52364">
        <ele>102.925969</ele>
        <time>2022-12-27T15:40:46.734Z</time>
      </trkpt>
      <trkpt lat="44.44367" lon="-0.52348">
        <ele>102.767387</ele>
        <time>2022-12-27T15:40:48.738Z</time>
      </trkpt>
      <trkpt lat="44.44364" lon="-0.52334">
        <ele>102.634394</ele>
        <time>2022-12-27T15:40:50.757Z</time>
      </trkpt>
      <trkpt lat="44.4436" lon="-0.52318">
        <ele>102.472926</ele>
        <time>2022-12-27T15:40:52.751Z</time>
      </trkpt>
      <trkpt lat="44.44357" lon="-0.52303">
        <ele>102.333835</ele>
        <time>2022-12-27T15:40:54.755Z</time>
      </trkpt>
      <trkpt lat="44.44354" lon="-0.52286">
        <ele>102.219406</ele>
        <time>2022-12-27T15:40:56.762Z</time>
      </trkpt>
      <trkpt lat="44.44351" lon="-0.52272">
        <ele>102.358247</ele>
        <time>2022-12-27T15:40:58.751Z</time>
      </trkpt>
      <trkpt lat="44.44348" lon="-0.52258">
        <ele>102.490951</ele>
        <time>2022-12-27T15:41:00.754Z</time>
      </trkpt>
      <trkpt lat="44.44346" lon="-0.52246">
        <ele>102.612345</ele>
        <time>2022-12-27T15:41:02.761Z</time>
      </trkpt>
      <trkpt lat="44.44343" lon="-0.5223">
        <ele>102.762195</ele>
        <time>2022-12-27T15:41:04.751Z</time>
      </trkpt>
      <trkpt lat="44.44341" lon="-0.52216">
        <ele>102.903574</ele>
        <time>2022-12-27T15:41:06.757Z</time>
      </trkpt>
      <trkpt lat="44.44338" lon="-0.52202">
        <ele>103.032787</ele>
        <time>2022-12-27T15:41:08.744Z</time>
      </trkpt>
      <trkpt lat="44.44336" lon="-0.52187">
        <ele>103.178116</ele>
        <time>2022-12-27T15:41:10.733Z</time>
      </trkpt>
      <trkpt lat="44.44332" lon="-0.52171">
        <ele>103.338828</ele>
        <time>2022-12-27T15:41:12.737Z</time>
      </trkpt>
      <trkpt lat="44.4433" lon="-0.52159">
        <ele>103.457465</ele>
        <time>2022-12-27T15:41:14.756Z</time>
      </trkpt>
      <trkpt lat="44.44326" lon="-0.52144">
        <ele>103.601402</ele>
        <time>2022-12-27T15:41:16.752Z</time>
      </trkpt>
      <trkpt lat="44.44323" lon="-0.52129">
        <ele>103.752033</ele>
        <time>2022-12-27T15:41:18.750Z</time>
      </trkpt>
      <trkpt lat="44.44319" lon="-0.52113">
        <ele>103.905477</ele>
        <time>2022-12-27T15:41:20.766Z</time>
      </trkpt>
      <trkpt lat="44.44317" lon="-0.52099">
        <ele>104.043252</ele>
        <time>2022-12-27T15:41:22.754Z</time>
      </trkpt>
      <trkpt lat="44.44313" lon="-0.52085">
        <ele>104.1863</ele>
        <time>2022-12-27T15:41:24.753Z</time>
      </trkpt>
      <trkpt lat="44.4431" lon="-0.52068">
        <ele>104.351133</ele>
        <time>2022-12-27T15:41:27.751Z</time>
      </trkpt>
      <trkpt lat="44.44307" lon="-0.52054">
        <ele>104.480772</ele>
        <time>2022-12-27T15:41:30.742Z</time>
      </trkpt>
      <trkpt lat="44.44309" lon="-0.52048">
        <ele>104.539064</ele>
        <time>2022-12-27T15:42:28.149Z</time>
      </trkpt>
      <trkpt lat="44.44261" lon="-0.51833">
        <ele>104.358248</ele>
        <time>2022-12-27T15:46:42.757Z</time>
      </trkpt>
      <trkpt lat="44.44258" lon="-0.51815">
        <ele>104.341311</ele>
        <time>2022-12-27T15:46:45.758Z</time>
      </trkpt>
      <trkpt lat="44.44255" lon="-0.51802">
        <ele>104.347277</ele>
        <time>2022-12-27T15:46:47.757Z</time>
      </trkpt>
      <trkpt lat="44.44252" lon="-0.51787">
        <ele>104.397877</ele>
        <time>2022-12-27T15:46:49.767Z</time>
      </trkpt>
      <trkpt lat="44.44249" lon="-0.51775">
        <ele>104.443489</ele>
        <time>2022-12-27T15:46:51.747Z</time>
      </trkpt>
      <trkpt lat="44.44247" lon="-0.5176">
        <ele>104.494508</ele>
        <time>2022-12-27T15:46:53.759Z</time>
      </trkpt>
      <trkpt lat="44.44244" lon="-0.51747">
        <ele>104.543987</ele>
        <time>2022-12-27T15:46:55.757Z</time>
      </trkpt>
      <trkpt lat="44.44241" lon="-0.51732">
        <ele>104.596118</ele>
        <time>2022-12-27T15:46:57.759Z</time>
      </trkpt>
      <trkpt lat="44.44238" lon="-0.51717">
        <ele>104.647888</ele>
        <time>2022-12-27T15:46:59.752Z</time>
      </trkpt>
      <trkpt lat="44.44235" lon="-0.51702">
        <ele>104.701393</ele>
        <time>2022-12-27T15:47:01.746Z</time>
      </trkpt>
      <trkpt lat="44.44232" lon="-0.51688">
        <ele>104.754079</ele>
        <time>2022-12-27T15:47:03.761Z</time>
      </trkpt>
      <trkpt lat="44.44229" lon="-0.51674">
        <ele>104.801636</ele>
        <time>2022-12-27T15:47:05.753Z</time>
      </trkpt>
      <trkpt lat="44.44226" lon="-0.51659">
        <ele>104.855346</ele>
        <time>2022-12-27T15:47:07.763Z</time>
      </trkpt>
      <trkpt lat="44.44223" lon="-0.51645">
        <ele>104.908095</ele>
        <time>2022-12-27T15:47:09.756Z</time>
      </trkpt>
      <trkpt lat="44.4422" lon="-0.51629">
        <ele>104.963846</ele>
        <time>2022-12-27T15:47:11.746Z</time>
      </trkpt>
      <trkpt lat="44.44217" lon="-0.51614">
        <ele>105.01729</ele>
        <time>2022-12-27T15:47:13.757Z</time>
      </trkpt>
      <trkpt lat="44.44214" lon="-0.51599">
        <ele>105.06988</ele>
        <time>2022-12-27T15:47:15.743Z</time>
      </trkpt>
      <trkpt lat="44.44211" lon="-0.51584">
        <ele>105.123717</ele>
        <time>2022-12-27T15:47:17.756Z</time>
      </trkpt>
      <trkpt lat="44.44208" lon="-0.51569">
        <ele>105.17782</ele>
        <time>2022-12-27T15:47:19.757Z</time>
      </trkpt>
      <trkpt lat="44.44204" lon="-0.51554">
        <ele>105.253828</ele>
        <time>2022-12-27T15:47:21.748Z</time>
      </trkpt>
      <trkpt lat="44.44202" lon="-0.51539">
        <ele>105.337101</ele>
        <time>2022-12-27T15:47:23.756Z</time>
      </trkpt>
      <trkpt lat="44.44199" lon="-0.51525">
        <ele>105.417709</ele>
        <time>2022-12-27T15:47:25.753Z</time>
      </trkpt>
      <trkpt lat="44.44196" lon="-0.5151">
        <ele>105.501979</ele>
        <time>2022-12-27T15:47:27.761Z</time>
      </trkpt>
      <trkpt lat="44.44192" lon="-0.51494">
        <ele>105.592236</ele>
        <time>2022-12-27T15:47:29.755Z</time>
      </trkpt>
      <trkpt lat="44.44189" lon="-0.51479">
        <ele>105.678295</ele>
        <time>2022-12-27T15:47:31.743Z</time>
      </trkpt>
      <trkpt lat="44.44186" lon="-0.51464">
        <ele>105.762565</ele>
        <time>2022-12-27T15:47:33.754Z</time>
      </trkpt>
      <trkpt lat="44.44183" lon="-0.51449">
        <ele>105.850582</ele>
        <time>2022-12-27T15:47:35.760Z</time>
      </trkpt>
      <trkpt lat="44.4418" lon="-0.51435">
        <ele>105.927707</ele>
        <time>2022-12-27T15:47:37.755Z</time>
      </trkpt>
      <trkpt lat="44.44176" lon="-0.51419">
        <ele>106.019963</ele>
        <time>2022-12-27T15:47:39.755Z</time>
      </trkpt>
      <trkpt lat="44.44173" lon="-0.51404">
        <ele>106.103496</ele>
        <time>2022-12-27T15:47:41.746Z</time>
      </trkpt>
      <trkpt lat="44.44171" lon="-0.51389">
        <ele>106.190514</ele>
        <time>2022-12-27T15:47:43.754Z</time>
      </trkpt>
      <trkpt lat="44.44167" lon="-0.51374">
        <ele>106.27575</ele>
        <time>2022-12-27T15:47:45.767Z</time>
      </trkpt>
      <trkpt lat="44.44165" lon="-0.5136">
        <ele>106.357963</ele>
        <time>2022-12-27T15:47:47.755Z</time>
      </trkpt>
      <trkpt lat="44.44161" lon="-0.51345">
        <ele>106.442453</ele>
        <time>2022-12-27T15:47:49.757Z</time>
      </trkpt>
      <trkpt lat="44.44158" lon="-0.5133">
        <ele>106.528512</ele>
        <time>2022-12-27T15:47:51.740Z</time>
      </trkpt>
      <trkpt lat="44.44155" lon="-0.51313">
        <ele>106.525506</ele>
        <time>2022-12-27T15:47:53.758Z</time>
      </trkpt>
      <trkpt lat="44.44153" lon="-0.51299">
        <ele>106.44366</ele>
        <time>2022-12-27T15:47:55.752Z</time>
      </trkpt>
      <trkpt lat="44.4415" lon="-0.51286">
        <ele>106.363119</ele>
        <time>2022-12-27T15:47:57.767Z</time>
      </trkpt>
      <trkpt lat="44.44146" lon="-0.51271">
        <ele>106.27723</ele>
        <time>2022-12-27T15:47:59.767Z</time>
      </trkpt>
      <trkpt lat="44.44143" lon="-0.51256">
        <ele>106.186241</ele>
        <time>2022-12-27T15:48:01.738Z</time>
      </trkpt>
      <trkpt lat="44.4414" lon="-0.51242">
        <ele>106.103553</ele>
        <time>2022-12-27T15:48:03.753Z</time>
      </trkpt>
      <trkpt lat="44.44136" lon="-0.51226">
        <ele>106.0086</ele>
        <time>2022-12-27T15:48:05.760Z</time>
      </trkpt>
      <trkpt lat="44.44134" lon="-0.51212">
        <ele>105.925657</ele>
        <time>2022-12-27T15:48:07.757Z</time>
      </trkpt>
      <trkpt lat="44.44131" lon="-0.51197">
        <ele>105.834201</ele>
        <time>2022-12-27T15:48:09.767Z</time>
      </trkpt>
      <trkpt lat="44.44127" lon="-0.51182">
        <ele>105.747658</ele>
        <time>2022-12-27T15:48:11.745Z</time>
      </trkpt>
      <trkpt lat="44.44125" lon="-0.51167">
        <ele>105.661555</ele>
        <time>2022-12-27T15:48:13.755Z</time>
      </trkpt>
      <trkpt lat="44.44121" lon="-0.51152">
        <ele>105.568883</ele>
        <time>2022-12-27T15:48:15.767Z</time>
      </trkpt>
      <trkpt lat="44.44118" lon="-0.51137">
        <ele>105.48125</ele>
        <time>2022-12-27T15:48:17.759Z</time>
      </trkpt>
      <trkpt lat="44.44115" lon="-0.51121">
        <ele>105.388908</ele>
        <time>2022-12-27T15:48:19.758Z</time>
      </trkpt>
      <trkpt lat="44.44112" lon="-0.51106">
        <ele>105.298166</ele>
        <time>2022-12-27T15:48:21.750Z</time>
      </trkpt>
      <trkpt lat="44.44109" lon="-0.51091">
        <ele>105.209871</ele>
        <time>2022-12-27T15:48:23.758Z</time>
      </trkpt>
      <trkpt lat="44.44105" lon="-0.51076">
        <ele>105.097469</ele>
        <time>2022-12-27T15:48:25.764Z</time>
      </trkpt>
      <trkpt lat="44.44102" lon="-0.51061">
        <ele>104.941406</ele>
        <time>2022-12-27T15:48:27.756Z</time>
      </trkpt>
      <trkpt lat="44.44099" lon="-0.51046">
        <ele>104.790735</ele>
        <time>2022-12-27T15:48:29.757Z</time>
      </trkpt>
      <trkpt lat="44.44096" lon="-0.51031">
        <ele>104.63272</ele>
        <time>2022-12-27T15:48:31.747Z</time>
      </trkpt>
      <trkpt lat="44.44094" lon="-0.51017">
        <ele>104.483283</ele>
        <time>2022-12-27T15:48:33.764Z</time>
      </trkpt>
      <trkpt lat="44.44091" lon="-0.51003">
        <ele>104.334438</ele>
        <time>2022-12-27T15:48:35.770Z</time>
      </trkpt>
      <trkpt lat="44.44088" lon="-0.50989">
        <ele>104.185058</ele>
        <time>2022-12-27T15:48:37.766Z</time>
      </trkpt>
      <trkpt lat="44.44085" lon="-0.50975">
        <ele>104.037429</ele>
        <time>2022-12-27T15:48:39.762Z</time>
      </trkpt>
      <trkpt lat="44.44082" lon="-0.5096">
        <ele>103.883316</ele>
        <time>2022-12-27T15:48:41.749Z</time>
      </trkpt>
      <trkpt lat="44.44079" lon="-0.50946">
        <ele>103.730331</ele>
        <time>2022-12-27T15:48:43.756Z</time>
      </trkpt>
      <trkpt lat="44.44075" lon="-0.5093">
        <ele>103.558321</ele>
        <time>2022-12-27T15:48:45.758Z</time>
      </trkpt>
      <trkpt lat="44.44072" lon="-0.50915">
        <ele>103.401401</ele>
        <time>2022-12-27T15:48:47.766Z</time>
      </trkpt>
      <trkpt lat="44.44069" lon="-0.509">
        <ele>103.241045</ele>
        <time>2022-12-27T15:48:49.755Z</time>
      </trkpt>
      <trkpt lat="44.44066" lon="-0.50885">
        <ele>103.08436</ele>
        <time>2022-12-27T15:48:51.748Z</time>
      </trkpt>
      <trkpt lat="44.44063" lon="-0.50872">
        <ele>102.947169</ele>
        <time>2022-12-27T15:48:53.758Z</time>
      </trkpt>
      <trkpt lat="44.44061" lon="-0.50858">
        <ele>102.803089</ele>
        <time>2022-12-27T15:48:55.755Z</time>
      </trkpt>
      <trkpt lat="44.44058" lon="-0.50845">
        <ele>102.660874</ele>
        <time>2022-12-27T15:48:57.756Z</time>
      </trkpt>
      <trkpt lat="44.44055" lon="-0.50832">
        <ele>102.560788</ele>
        <time>2022-12-27T15:48:59.753Z</time>
      </trkpt>
      <trkpt lat="44.44052" lon="-0.50817">
        <ele>102.483196</ele>
        <time>2022-12-27T15:49:01.774Z</time>
      </trkpt>
      <trkpt lat="44.44049" lon="-0.50802">
        <ele>102.409145</ele>
        <time>2022-12-27T15:49:03.755Z</time>
      </trkpt>
      <trkpt lat="44.44046" lon="-0.50788">
        <ele>102.33888</ele>
        <time>2022-12-27T15:49:05.768Z</time>
      </trkpt>
      <trkpt lat="44.44043" lon="-0.50773">
        <ele>102.265097</ele>
        <time>2022-12-27T15:49:07.756Z</time>
      </trkpt>
      <trkpt lat="44.4404" lon="-0.50758">
        <ele>102.189201</ele>
        <time>2022-12-27T15:49:09.759Z</time>
      </trkpt>
      <trkpt lat="44.44037" lon="-0.50744">
        <ele>102.116651</ele>
        <time>2022-12-27T15:49:11.745Z</time>
      </trkpt>
      <trkpt lat="44.44034" lon="-0.5073">
        <ele>102.046562</ele>
        <time>2022-12-27T15:49:13.757Z</time>
      </trkpt>
      <trkpt lat="44.4403" lon="-0.50714">
        <ele>101.968253</ele>
        <time>2022-12-27T15:49:15.754Z</time>
      </trkpt>
      <trkpt lat="44.44028" lon="-0.507">
        <ele>101.899836</ele>
        <time>2022-12-27T15:49:17.758Z</time>
      </trkpt>
      <trkpt lat="44.44025" lon="-0.50686">
        <ele>101.826497</ele>
        <time>2022-12-27T15:49:19.755Z</time>
      </trkpt>
      <trkpt lat="44.44022" lon="-0.50672">
        <ele>101.758608</ele>
        <time>2022-12-27T15:49:21.740Z</time>
      </trkpt>
      <trkpt lat="44.44019" lon="-0.50656">
        <ele>101.680219</ele>
        <time>2022-12-27T15:49:23.768Z</time>
      </trkpt>
      <trkpt lat="44.44016" lon="-0.50641">
        <ele>101.602825</ele>
        <time>2022-12-27T15:49:25.753Z</time>
      </trkpt>
      <trkpt lat="44.44013" lon="-0.50627">
        <ele>101.534026</ele>
        <time>2022-12-27T15:49:27.752Z</time>
      </trkpt>
      <trkpt lat="44.4401" lon="-0.50612">
        <ele>101.457804</ele>
        <time>2022-12-27T15:49:29.757Z</time>
      </trkpt>
      <trkpt lat="44.44007" lon="-0.50599">
        <ele>101.39353</ele>
        <time>2022-12-27T15:49:31.748Z</time>
      </trkpt>
      <trkpt lat="44.44005" lon="-0.50586">
        <ele>101.350395</ele>
        <time>2022-12-27T15:49:33.761Z</time>
      </trkpt>
      <trkpt lat="44.44002" lon="-0.50572">
        <ele>101.312837</ele>
        <time>2022-12-27T15:49:35.756Z</time>
      </trkpt>
      <trkpt lat="44.44" lon="-0.50559">
        <ele>101.27644</ele>
        <time>2022-12-27T15:49:37.766Z</time>
      </trkpt>
      <trkpt lat="44.43997" lon="-0.50545">
        <ele>101.239835</ele>
        <time>2022-12-27T15:49:39.766Z</time>
      </trkpt>
      <trkpt lat="44.43994" lon="-0.5053">
        <ele>101.199085</ele>
        <time>2022-12-27T15:49:41.745Z</time>
      </trkpt>
      <trkpt lat="44.4399" lon="-0.50516">
        <ele>101.158381</ele>
        <time>2022-12-27T15:49:43.759Z</time>
      </trkpt>
      <trkpt lat="44.43987" lon="-0.50501">
        <ele>101.116361</ele>
        <time>2022-12-27T15:49:45.760Z</time>
      </trkpt>
      <trkpt lat="44.43983" lon="-0.50485">
        <ele>101.074395</ele>
        <time>2022-12-27T15:49:47.756Z</time>
      </trkpt>
      <trkpt lat="44.4398" lon="-0.5047">
        <ele>101.031603</ele>
        <time>2022-12-27T15:49:49.760Z</time>
      </trkpt>
      <trkpt lat="44.43977" lon="-0.50453">
        <ele>100.986947</ele>
        <time>2022-12-27T15:49:51.759Z</time>
      </trkpt>
      <trkpt lat="44.43974" lon="-0.50438">
        <ele>100.945804</ele>
        <time>2022-12-27T15:49:53.761Z</time>
      </trkpt>
      <trkpt lat="44.4397" lon="-0.50423">
        <ele>100.903784</ele>
        <time>2022-12-27T15:49:55.742Z</time>
      </trkpt>
      <trkpt lat="44.43967" lon="-0.50407">
        <ele>100.860047</ele>
        <time>2022-12-27T15:49:57.754Z</time>
      </trkpt>
      <trkpt lat="44.43964" lon="-0.50392">
        <ele>100.818981</ele>
        <time>2022-12-27T15:49:59.747Z</time>
      </trkpt>
      <trkpt lat="44.43961" lon="-0.50376">
        <ele>100.776257</ele>
        <time>2022-12-27T15:50:01.738Z</time>
      </trkpt>
      <trkpt lat="44.43958" lon="-0.50362">
        <ele>100.737449</ele>
        <time>2022-12-27T15:50:03.755Z</time>
      </trkpt>
      <trkpt lat="44.43955" lon="-0.5035">
        <ele>100.659558</ele>
        <time>2022-12-27T15:50:05.752Z</time>
      </trkpt>
      <trkpt lat="44.43952" lon="-0.50334">
        <ele>100.475103</ele>
        <time>2022-12-27T15:50:07.759Z</time>
      </trkpt>
      <trkpt lat="44.43949" lon="-0.50319">
        <ele>100.304471</ele>
        <time>2022-12-27T15:50:09.754Z</time>
      </trkpt>
      <trkpt lat="44.43946" lon="-0.50304">
        <ele>100.133996</ele>
        <time>2022-12-27T15:50:11.747Z</time>
      </trkpt>
      <trkpt lat="44.43943" lon="-0.50288">
        <ele>99.947379</ele>
        <time>2022-12-27T15:50:13.759Z</time>
      </trkpt>
      <trkpt lat="44.4394" lon="-0.50273">
        <ele>99.76419</ele>
        <time>2022-12-27T15:50:15.758Z</time>
      </trkpt>
      <trkpt lat="44.43936" lon="-0.50258">
        <ele>99.59005</ele>
        <time>2022-12-27T15:50:17.756Z</time>
      </trkpt>
      <trkpt lat="44.43933" lon="-0.50244">
        <ele>99.42971</ele>
        <time>2022-12-27T15:50:19.758Z</time>
      </trkpt>
      <trkpt lat="44.4393" lon="-0.5023">
        <ele>99.263829</ele>
        <time>2022-12-27T15:50:21.748Z</time>
      </trkpt>
      <trkpt lat="44.43927" lon="-0.50217">
        <ele>99.111324</ele>
        <time>2022-12-27T15:50:23.762Z</time>
      </trkpt>
      <trkpt lat="44.43925" lon="-0.50204">
        <ele>98.954352</ele>
        <time>2022-12-27T15:50:25.755Z</time>
      </trkpt>
      <trkpt lat="44.43922" lon="-0.5019">
        <ele>98.794483</ele>
        <time>2022-12-27T15:50:27.766Z</time>
      </trkpt>
      <trkpt lat="44.4392" lon="-0.50176">
        <ele>98.629837</ele>
        <time>2022-12-27T15:50:29.757Z</time>
      </trkpt>
      <trkpt lat="44.43917" lon="-0.50162">
        <ele>98.465465</ele>
        <time>2022-12-27T15:50:31.745Z</time>
      </trkpt>
      <trkpt lat="44.43914" lon="-0.50147">
        <ele>98.298504</ele>
        <time>2022-12-27T15:50:33.768Z</time>
      </trkpt>
      <trkpt lat="44.4391" lon="-0.50133">
        <ele>98.127093</ele>
        <time>2022-12-27T15:50:35.754Z</time>
      </trkpt>
      <trkpt lat="44.43908" lon="-0.5012">
        <ele>97.971358</ele>
        <time>2022-12-27T15:50:37.759Z</time>
      </trkpt>
      <trkpt lat="44.43905" lon="-0.50106">
        <ele>97.865961</ele>
        <time>2022-12-27T15:50:39.765Z</time>
      </trkpt>
      <trkpt lat="44.43902" lon="-0.50092">
        <ele>97.823367</ele>
        <time>2022-12-27T15:50:41.751Z</time>
      </trkpt>
      <trkpt lat="44.43899" lon="-0.50079">
        <ele>97.783443</ele>
        <time>2022-12-27T15:50:43.758Z</time>
      </trkpt>
      <trkpt lat="44.43896" lon="-0.50065">
        <ele>97.741563</ele>
        <time>2022-12-27T15:50:45.765Z</time>
      </trkpt>
      <trkpt lat="44.43892" lon="-0.50053">
        <ele>97.701291</ele>
        <time>2022-12-27T15:50:47.756Z</time>
      </trkpt>
      <trkpt lat="44.43889" lon="-0.50039">
        <ele>97.657691</ele>
        <time>2022-12-27T15:50:49.768Z</time>
      </trkpt>
      <trkpt lat="44.43887" lon="-0.50026">
        <ele>97.62054</ele>
        <time>2022-12-27T15:50:51.740Z</time>
      </trkpt>
      <trkpt lat="44.43884" lon="-0.5001">
        <ele>97.570484</ele>
        <time>2022-12-27T15:50:53.755Z</time>
      </trkpt>
      <trkpt lat="44.43881" lon="-0.49997">
        <ele>97.529136</ele>
        <time>2022-12-27T15:50:55.756Z</time>
      </trkpt>
      <trkpt lat="44.43878" lon="-0.49982">
        <ele>97.483488</ele>
        <time>2022-12-27T15:50:57.758Z</time>
      </trkpt>
      <trkpt lat="44.43875" lon="-0.49968">
        <ele>97.442262</ele>
        <time>2022-12-27T15:50:59.759Z</time>
      </trkpt>
      <trkpt lat="44.43871" lon="-0.49952">
        <ele>97.393175</ele>
        <time>2022-12-27T15:51:01.749Z</time>
      </trkpt>
      <trkpt lat="44.43868" lon="-0.49937">
        <ele>97.347526</ele>
        <time>2022-12-27T15:51:03.759Z</time>
      </trkpt>
      <trkpt lat="44.43865" lon="-0.49922">
        <ele>97.300109</ele>
        <time>2022-12-27T15:51:05.772Z</time>
      </trkpt>
      <trkpt lat="44.43861" lon="-0.49907">
        <ele>97.254053</ele>
        <time>2022-12-27T15:51:07.757Z</time>
      </trkpt>
      <trkpt lat="44.43858" lon="-0.49891">
        <ele>97.204621</ele>
        <time>2022-12-27T15:51:09.759Z</time>
      </trkpt>
      <trkpt lat="44.43855" lon="-0.49876">
        <ele>97.157742</ele>
        <time>2022-12-27T15:51:11.746Z</time>
      </trkpt>
      <trkpt lat="44.43852" lon="-0.49861">
        <ele>97.361597</ele>
        <time>2022-12-27T15:51:13.758Z</time>
      </trkpt>
      <trkpt lat="44.43849" lon="-0.49846">
        <ele>97.678355</ele>
        <time>2022-12-27T15:51:15.754Z</time>
      </trkpt>
      <trkpt lat="44.43846" lon="-0.49832">
        <ele>97.980357</ele>
        <time>2022-12-27T15:51:17.754Z</time>
      </trkpt>
      <trkpt lat="44.43843" lon="-0.49818">
        <ele>98.271877</ele>
        <time>2022-12-27T15:51:19.760Z</time>
      </trkpt>
      <trkpt lat="44.43841" lon="-0.49804">
        <ele>98.55478</ele>
        <time>2022-12-27T15:51:21.746Z</time>
      </trkpt>
      <trkpt lat="44.43839" lon="-0.4979">
        <ele>98.845328</ele>
        <time>2022-12-27T15:51:23.755Z</time>
      </trkpt>
      <trkpt lat="44.43836" lon="-0.49776">
        <ele>99.148243</ele>
        <time>2022-12-27T15:51:25.764Z</time>
      </trkpt>
      <trkpt lat="44.43833" lon="-0.49763">
        <ele>99.436979</ele>
        <time>2022-12-27T15:51:27.736Z</time>
      </trkpt>
      <trkpt lat="44.43829" lon="-0.49748">
        <ele>99.745686</ele>
        <time>2022-12-27T15:51:29.756Z</time>
      </trkpt>
      <trkpt lat="44.43826" lon="-0.49733">
        <ele>100.05822</ele>
        <time>2022-12-27T15:51:31.751Z</time>
      </trkpt>
      <trkpt lat="44.43823" lon="-0.49715">
        <ele>100.440124</ele>
        <time>2022-12-27T15:51:34.764Z</time>
      </trkpt>
      <trkpt lat="44.4382" lon="-0.49701">
        <ele>100.747154</ele>
        <time>2022-12-27T15:51:36.754Z</time>
      </trkpt>
      <trkpt lat="44.43817" lon="-0.49686">
        <ele>101.060423</ele>
        <time>2022-12-27T15:51:38.759Z</time>
      </trkpt>
      <trkpt lat="44.43814" lon="-0.49671">
        <ele>101.36316</ele>
        <time>2022-12-27T15:51:40.758Z</time>
      </trkpt>
      <trkpt lat="44.43811" lon="-0.49657">
        <ele>101.66744</ele>
        <time>2022-12-27T15:51:42.768Z</time>
      </trkpt>
      <trkpt lat="44.43808" lon="-0.49644">
        <ele>101.939842</ele>
        <time>2022-12-27T15:51:44.757Z</time>
      </trkpt>
      <trkpt lat="44.43805" lon="-0.49629">
        <ele>102.253849</ele>
        <time>2022-12-27T15:51:46.766Z</time>
      </trkpt>
      <trkpt lat="44.43802" lon="-0.49615">
        <ele>102.209039</ele>
        <time>2022-12-27T15:51:48.749Z</time>
      </trkpt>
      <trkpt lat="44.43798" lon="-0.49599">
        <ele>102.158748</ele>
        <time>2022-12-27T15:51:50.766Z</time>
      </trkpt>
      <trkpt lat="44.43795" lon="-0.49585">
        <ele>102.1148</ele>
        <time>2022-12-27T15:51:52.763Z</time>
      </trkpt>
      <trkpt lat="44.43792" lon="-0.49571">
        <ele>102.071766</ele>
        <time>2022-12-27T15:51:54.759Z</time>
      </trkpt>
      <trkpt lat="44.43788" lon="-0.49553">
        <ele>102.014706</ele>
        <time>2022-12-27T15:51:57.753Z</time>
      </trkpt>
      <trkpt lat="44.43784" lon="-0.49536">
        <ele>101.961722</ele>
        <time>2022-12-27T15:51:59.757Z</time>
      </trkpt>
      <trkpt lat="44.43781" lon="-0.49522">
        <ele>101.917747</ele>
        <time>2022-12-27T15:52:01.738Z</time>
      </trkpt>
      <trkpt lat="44.43778" lon="-0.49507">
        <ele>101.87073</ele>
        <time>2022-12-27T15:52:03.745Z</time>
      </trkpt>
      <trkpt lat="44.43775" lon="-0.49491">
        <ele>101.822136</ele>
        <time>2022-12-27T15:52:05.766Z</time>
      </trkpt>
      <trkpt lat="44.43771" lon="-0.49476">
        <ele>101.775026</ele>
        <time>2022-12-27T15:52:07.760Z</time>
      </trkpt>
      <trkpt lat="44.43767" lon="-0.49459">
        <ele>101.723608</ele>
        <time>2022-12-27T15:52:09.767Z</time>
      </trkpt>
      <trkpt lat="44.43764" lon="-0.49443">
        <ele>101.672421</ele>
        <time>2022-12-27T15:52:11.747Z</time>
      </trkpt>
      <trkpt lat="44.43762" lon="-0.49429">
        <ele>101.629273</ele>
        <time>2022-12-27T15:52:13.760Z</time>
      </trkpt>
      <trkpt lat="44.43759" lon="-0.49414">
        <ele>101.583019</ele>
        <time>2022-12-27T15:52:15.750Z</time>
      </trkpt>
      <trkpt lat="44.43756" lon="-0.494">
        <ele>101.541195</ele>
        <time>2022-12-27T15:52:17.765Z</time>
      </trkpt>
      <trkpt lat="44.43753" lon="-0.49388">
        <ele>101.50325</ele>
        <time>2022-12-27T15:52:19.760Z</time>
      </trkpt>
      <trkpt lat="44.43751" lon="-0.49375">
        <ele>101.502459</ele>
        <time>2022-12-27T15:52:21.748Z</time>
      </trkpt>
      <trkpt lat="44.43747" lon="-0.49357">
        <ele>101.502459</ele>
        <time>2022-12-27T15:52:24.750Z</time>
      </trkpt>
      <trkpt lat="44.43744" lon="-0.49339">
        <ele>101.502459</ele>
        <time>2022-12-27T15:52:27.765Z</time>
      </trkpt>
      <trkpt lat="44.43741" lon="-0.49326">
        <ele>101.502459</ele>
        <time>2022-12-27T15:52:29.754Z</time>
      </trkpt>
      <trkpt lat="44.43738" lon="-0.49309">
        <ele>101.502459</ele>
        <time>2022-12-27T15:52:32.767Z</time>
      </trkpt>
      <trkpt lat="44.43734" lon="-0.49293">
        <ele>101.502459</ele>
        <time>2022-12-27T15:52:35.793Z</time>
      </trkpt>
      <trkpt lat="44.43731" lon="-0.49277">
        <ele>101.502459</ele>
        <time>2022-12-27T15:52:38.757Z</time>
      </trkpt>
      <trkpt lat="44.43728" lon="-0.49262">
        <ele>101.502459</ele>
        <time>2022-12-27T15:52:41.758Z</time>
      </trkpt>
      <trkpt lat="44.43724" lon="-0.49248">
        <ele>101.502459</ele>
        <time>2022-12-27T15:52:44.757Z</time>
      </trkpt>
      <trkpt lat="44.43722" lon="-0.49238">
        <ele>101.502459</ele>
        <time>2022-12-27T15:52:54.955Z</time>
      </trkpt>
      <trkpt lat="44.43723" lon="-0.49239">
        <ele>103.315863</ele>
        <time>2022-12-27T15:56:09.442Z</time>
      </trkpt>
      <trkpt lat="44.43719" lon="-0.49222">
        <ele>103.315863</ele>
        <time>2022-12-27T15:56:22.730Z</time>
      </trkpt>
      <trkpt lat="44.43716" lon="-0.49207">
        <ele>103.315863</ele>
        <time>2022-12-27T15:56:26.726Z</time>
      </trkpt>
      <trkpt lat="44.43714" lon="-0.49194">
        <ele>103.315863</ele>
        <time>2022-12-27T15:56:29.745Z</time>
      </trkpt>
      <trkpt lat="44.4371" lon="-0.49179">
        <ele>103.315863</ele>
        <time>2022-12-27T15:56:32.736Z</time>
      </trkpt>
      <trkpt lat="44.43705" lon="-0.49164">
        <ele>103.315863</ele>
        <time>2022-12-27T15:56:35.746Z</time>
      </trkpt>
      <trkpt lat="44.43702" lon="-0.49146">
        <ele>103.315863</ele>
        <time>2022-12-27T15:56:38.744Z</time>
      </trkpt>
      <trkpt lat="44.43702" lon="-0.49133">
        <ele>103.315863</ele>
        <time>2022-12-27T15:56:40.745Z</time>
      </trkpt>
      <trkpt lat="44.43699" lon="-0.4912">
        <ele>103.315863</ele>
        <time>2022-12-27T15:56:42.742Z</time>
      </trkpt>
      <trkpt lat="44.43697" lon="-0.49107">
        <ele>103.240674</ele>
        <time>2022-12-27T15:56:44.746Z</time>
      </trkpt>
      <trkpt lat="44.43694" lon="-0.49094">
        <ele>103.157095</ele>
        <time>2022-12-27T15:56:46.732Z</time>
      </trkpt>
      <trkpt lat="44.43692" lon="-0.4908">
        <ele>103.067281</ele>
        <time>2022-12-27T15:56:48.737Z</time>
      </trkpt>
      <trkpt lat="44.43689" lon="-0.49066">
        <ele>102.976333</ele>
        <time>2022-12-27T15:56:50.732Z</time>
      </trkpt>
      <trkpt lat="44.43686" lon="-0.49053">
        <ele>102.885385</ele>
        <time>2022-12-27T15:56:52.745Z</time>
      </trkpt>
      <trkpt lat="44.43683" lon="-0.4904">
        <ele>102.799581</ele>
        <time>2022-12-27T15:56:54.729Z</time>
      </trkpt>
      <trkpt lat="44.4368" lon="-0.49026">
        <ele>102.70778</ele>
        <time>2022-12-27T15:56:56.752Z</time>
      </trkpt>
      <trkpt lat="44.43677" lon="-0.49013">
        <ele>102.622992</ele>
        <time>2022-12-27T15:56:58.744Z</time>
      </trkpt>
      <trkpt lat="44.43674" lon="-0.49">
        <ele>102.538653</ele>
        <time>2022-12-27T15:57:00.746Z</time>
      </trkpt>
      <trkpt lat="44.43671" lon="-0.48982">
        <ele>102.426414</ele>
        <time>2022-12-27T15:57:03.736Z</time>
      </trkpt>
      <trkpt lat="44.43669" lon="-0.4897">
        <ele>102.347543</ele>
        <time>2022-12-27T15:57:05.744Z</time>
      </trkpt>
      <trkpt lat="44.43665" lon="-0.48952">
        <ele>102.228284</ele>
        <time>2022-12-27T15:57:08.743Z</time>
      </trkpt>
      <trkpt lat="44.43661" lon="-0.48934">
        <ele>102.109796</ele>
        <time>2022-12-27T15:57:11.753Z</time>
      </trkpt>
      <trkpt lat="44.43659" lon="-0.48922">
        <ele>102.028117</ele>
        <time>2022-12-27T15:57:13.734Z</time>
      </trkpt>
      <trkpt lat="44.43656" lon="-0.48907">
        <ele>101.934754</ele>
        <time>2022-12-27T15:57:15.743Z</time>
      </trkpt>
      <trkpt lat="44.43653" lon="-0.48893">
        <ele>101.843296</ele>
        <time>2022-12-27T15:57:17.750Z</time>
      </trkpt>
      <trkpt lat="44.4365" lon="-0.48879">
        <ele>101.749087</ele>
        <time>2022-12-27T15:57:19.744Z</time>
      </trkpt>
      <trkpt lat="44.43647" lon="-0.48865">
        <ele>101.521226</ele>
        <time>2022-12-27T15:57:21.744Z</time>
      </trkpt>
      <trkpt lat="44.43644" lon="-0.48851">
        <ele>101.259546</ele>
        <time>2022-12-27T15:57:23.746Z</time>
      </trkpt>
      <trkpt lat="44.43641" lon="-0.48837">
        <ele>101.006765</ele>
        <time>2022-12-27T15:57:25.745Z</time>
      </trkpt>
      <trkpt lat="44.43638" lon="-0.48823">
        <ele>100.746061</ele>
        <time>2022-12-27T15:57:27.744Z</time>
      </trkpt>
      <trkpt lat="44.43635" lon="-0.48809">
        <ele>100.490492</ele>
        <time>2022-12-27T15:57:29.745Z</time>
      </trkpt>
      <trkpt lat="44.43632" lon="-0.48795">
        <ele>100.229512</ele>
        <time>2022-12-27T15:57:31.743Z</time>
      </trkpt>
      <trkpt lat="44.4363" lon="-0.48781">
        <ele>99.967658</ele>
        <time>2022-12-27T15:57:33.746Z</time>
      </trkpt>
      <trkpt lat="44.43627" lon="-0.48767">
        <ele>99.7118</ele>
        <time>2022-12-27T15:57:35.747Z</time>
      </trkpt>
      <trkpt lat="44.43624" lon="-0.48755">
        <ele>99.473082</ele>
        <time>2022-12-27T15:57:37.747Z</time>
      </trkpt>
      <trkpt lat="44.43621" lon="-0.48741">
        <ele>99.217224</ele>
        <time>2022-12-27T15:57:39.746Z</time>
      </trkpt>
      <trkpt lat="44.43618" lon="-0.48727">
        <ele>98.956689</ele>
        <time>2022-12-27T15:57:41.751Z</time>
      </trkpt>
      <trkpt lat="44.43615" lon="-0.48713">
        <ele>98.701817</ele>
        <time>2022-12-27T15:57:43.747Z</time>
      </trkpt>
      <trkpt lat="44.43612" lon="-0.487">
        <ele>98.465922</ele>
        <time>2022-12-27T15:57:45.731Z</time>
      </trkpt>
      <trkpt lat="44.4361" lon="-0.48687">
        <ele>98.224744</ele>
        <time>2022-12-27T15:57:47.755Z</time>
      </trkpt>
      <trkpt lat="44.43608" lon="-0.48675">
        <ele>97.998597</ele>
        <time>2022-12-27T15:57:49.744Z</time>
      </trkpt>
      <trkpt lat="44.43604" lon="-0.48661">
        <ele>97.736373</ele>
        <time>2022-12-27T15:57:51.744Z</time>
      </trkpt>
      <trkpt lat="44.43602" lon="-0.48647">
        <ele>97.486335</ele>
        <time>2022-12-27T15:57:53.745Z</time>
      </trkpt>
      <trkpt lat="44.43599" lon="-0.48633">
        <ele>97.237691</ele>
        <time>2022-12-27T15:57:55.733Z</time>
      </trkpt>
      <trkpt lat="44.43596" lon="-0.48619">
        <ele>97.093007</ele>
        <time>2022-12-27T15:57:57.744Z</time>
      </trkpt>
      <trkpt lat="44.43593" lon="-0.48604">
        <ele>96.948323</ele>
        <time>2022-12-27T15:57:59.749Z</time>
      </trkpt>
      <trkpt lat="44.4359" lon="-0.4859">
        <ele>96.802315</ele>
        <time>2022-12-27T15:58:01.759Z</time>
      </trkpt>
      <trkpt lat="44.43587" lon="-0.48576">
        <ele>96.664478</ele>
        <time>2022-12-27T15:58:03.752Z</time>
      </trkpt>
      <trkpt lat="44.43584" lon="-0.48561">
        <ele>96.515895</ele>
        <time>2022-12-27T15:58:05.745Z</time>
      </trkpt>
      <trkpt lat="44.4358" lon="-0.48547">
        <ele>96.363594</ele>
        <time>2022-12-27T15:58:07.733Z</time>
      </trkpt>
      <trkpt lat="44.43577" lon="-0.48532">
        <ele>96.213342</ele>
        <time>2022-12-27T15:58:09.746Z</time>
      </trkpt>
      <trkpt lat="44.43574" lon="-0.48516">
        <ele>96.054506</ele>
        <time>2022-12-27T15:58:11.743Z</time>
      </trkpt>
      <trkpt lat="44.43571" lon="-0.485">
        <ele>95.895505</ele>
        <time>2022-12-27T15:58:13.743Z</time>
      </trkpt>
      <trkpt lat="44.43568" lon="-0.48485">
        <ele>95.737565</ele>
        <time>2022-12-27T15:58:15.742Z</time>
      </trkpt>
      <trkpt lat="44.43564" lon="-0.4847">
        <ele>95.584775</ele>
        <time>2022-12-27T15:58:17.743Z</time>
      </trkpt>
      <trkpt lat="44.4356" lon="-0.48455">
        <ele>95.431596</ele>
        <time>2022-12-27T15:58:19.745Z</time>
      </trkpt>
      <trkpt lat="44.43556" lon="-0.4844">
        <ele>95.275193</ele>
        <time>2022-12-27T15:58:21.727Z</time>
      </trkpt>
      <trkpt lat="44.43552" lon="-0.48425">
        <ele>95.124205</ele>
        <time>2022-12-27T15:58:23.747Z</time>
      </trkpt>
      <trkpt lat="44.43547" lon="-0.48411">
        <ele>94.974431</ele>
        <time>2022-12-27T15:58:25.743Z</time>
      </trkpt>
      <trkpt lat="44.43542" lon="-0.48396">
        <ele>94.812366</ele>
        <time>2022-12-27T15:58:27.745Z</time>
      </trkpt>
      <trkpt lat="44.43536" lon="-0.48382">
        <ele>94.763582</ele>
        <time>2022-12-27T15:58:29.743Z</time>
      </trkpt>
      <trkpt lat="44.4353" lon="-0.48367">
        <ele>94.712593</ele>
        <time>2022-12-27T15:58:31.744Z</time>
      </trkpt>
      <trkpt lat="44.43525" lon="-0.48353">
        <ele>94.664876</ele>
        <time>2022-12-27T15:58:33.745Z</time>
      </trkpt>
      <trkpt lat="44.43519" lon="-0.48341">
        <ele>94.62166</ele>
        <time>2022-12-27T15:58:35.746Z</time>
      </trkpt>
      <trkpt lat="44.43514" lon="-0.4833">
        <ele>94.58117</ele>
        <time>2022-12-27T15:58:37.746Z</time>
      </trkpt>
      <trkpt lat="44.43509" lon="-0.48318">
        <ele>94.538416</ele>
        <time>2022-12-27T15:58:39.747Z</time>
      </trkpt>
      <trkpt lat="44.43503" lon="-0.48307">
        <ele>94.495219</ele>
        <time>2022-12-27T15:58:41.730Z</time>
      </trkpt>
      <trkpt lat="44.43496" lon="-0.48294">
        <ele>94.448328</ele>
        <time>2022-12-27T15:58:43.753Z</time>
      </trkpt>
      <trkpt lat="44.4349" lon="-0.48282">
        <ele>94.402157</ele>
        <time>2022-12-27T15:58:45.727Z</time>
      </trkpt>
      <trkpt lat="44.43483" lon="-0.4827">
        <ele>94.355872</ele>
        <time>2022-12-27T15:58:47.751Z</time>
      </trkpt>
      <trkpt lat="44.43476" lon="-0.48259">
        <ele>94.311016</ele>
        <time>2022-12-27T15:58:49.740Z</time>
      </trkpt>
      <trkpt lat="44.43468" lon="-0.48248">
        <ele>94.264307</ele>
        <time>2022-12-27T15:58:51.734Z</time>
      </trkpt>
      <trkpt lat="44.43461" lon="-0.48238">
        <ele>94.220085</ele>
        <time>2022-12-27T15:58:53.744Z</time>
      </trkpt>
      <trkpt lat="44.43454" lon="-0.48227">
        <ele>94.176455</ele>
        <time>2022-12-27T15:58:55.741Z</time>
      </trkpt>
      <trkpt lat="44.43447" lon="-0.48218">
        <ele>94.135688</ele>
        <time>2022-12-27T15:58:57.728Z</time>
      </trkpt>
      <trkpt lat="44.43439" lon="-0.48209">
        <ele>94.095373</ele>
        <time>2022-12-27T15:58:59.743Z</time>
      </trkpt>
      <trkpt lat="44.43429" lon="-0.48196">
        <ele>94.014474</ele>
        <time>2022-12-27T15:59:02.756Z</time>
      </trkpt>
      <trkpt lat="44.43421" lon="-0.48186">
        <ele>93.8954</ele>
        <time>2022-12-27T15:59:04.743Z</time>
      </trkpt>
      <trkpt lat="44.43413" lon="-0.48177">
        <ele>93.780157</ele>
        <time>2022-12-27T15:59:06.748Z</time>
      </trkpt>
      <trkpt lat="44.43404" lon="-0.48171">
        <ele>93.673704</ele>
        <time>2022-12-27T15:59:08.744Z</time>
      </trkpt>
      <trkpt lat="44.43395" lon="-0.4816">
        <ele>93.542185</ele>
        <time>2022-12-27T15:59:10.743Z</time>
      </trkpt>
      <trkpt lat="44.43384" lon="-0.48151">
        <ele>93.405815</ele>
        <time>2022-12-27T15:59:12.749Z</time>
      </trkpt>
      <trkpt lat="44.43374" lon="-0.48142">
        <ele>93.272317</ele>
        <time>2022-12-27T15:59:14.754Z</time>
      </trkpt>
      <trkpt lat="44.43364" lon="-0.48133">
        <ele>93.141083</ele>
        <time>2022-12-27T15:59:16.746Z</time>
      </trkpt>
      <trkpt lat="44.43354" lon="-0.48124">
        <ele>93.012971</ele>
        <time>2022-12-27T15:59:18.741Z</time>
      </trkpt>
      <trkpt lat="44.43345" lon="-0.48118">
        <ele>92.898603</ele>
        <time>2022-12-27T15:59:20.737Z</time>
      </trkpt>
      <trkpt lat="44.43336" lon="-0.48111">
        <ele>92.783576</ele>
        <time>2022-12-27T15:59:22.750Z</time>
      </trkpt>
      <trkpt lat="44.43327" lon="-0.48105">
        <ele>92.678196</ele>
        <time>2022-12-27T15:59:24.746Z</time>
      </trkpt>
      <trkpt lat="44.43318" lon="-0.48099">
        <ele>92.570407</ele>
        <time>2022-12-27T15:59:26.725Z</time>
      </trkpt>
      <trkpt lat="44.4331" lon="-0.48093">
        <ele>92.47146</ele>
        <time>2022-12-27T15:59:28.742Z</time>
      </trkpt>
      <trkpt lat="44.43298" lon="-0.48086">
        <ele>92.328009</ele>
        <time>2022-12-27T15:59:31.730Z</time>
      </trkpt>
      <trkpt lat="44.43289" lon="-0.48083">
        <ele>92.222179</ele>
        <time>2022-12-27T15:59:33.756Z</time>
      </trkpt>
      <trkpt lat="44.43279" lon="-0.48078">
        <ele>92.112703</ele>
        <time>2022-12-27T15:59:35.742Z</time>
      </trkpt>
      <trkpt lat="44.4327" lon="-0.48073">
        <ele>92.115183</ele>
        <time>2022-12-27T15:59:37.734Z</time>
      </trkpt>
      <trkpt lat="44.43261" lon="-0.48069">
        <ele>92.16986</ele>
        <time>2022-12-27T15:59:39.752Z</time>
      </trkpt>
      <trkpt lat="44.43249" lon="-0.48064">
        <ele>92.246433</ele>
        <time>2022-12-27T15:59:42.731Z</time>
      </trkpt>
      <trkpt lat="44.43237" lon="-0.48061">
        <ele>92.315265</ele>
        <time>2022-12-27T15:59:45.745Z</time>
      </trkpt>
      <trkpt lat="44.43226" lon="-0.48059">
        <ele>92.377025</ele>
        <time>2022-12-27T15:59:48.744Z</time>
      </trkpt>
      <trkpt lat="44.43217" lon="-0.48057">
        <ele>92.429446</ele>
        <time>2022-12-27T15:59:51.746Z</time>
      </trkpt>
      <trkpt lat="44.43206" lon="-0.48054">
        <ele>92.497008</ele>
        <time>2022-12-27T15:59:55.745Z</time>
      </trkpt>
      <trkpt lat="44.43194" lon="-0.48052">
        <ele>92.565162</ele>
        <time>2022-12-27T15:59:59.728Z</time>
      </trkpt>
      <trkpt lat="44.43184" lon="-0.4805">
        <ele>92.620059</ele>
        <time>2022-12-27T16:00:02.750Z</time>
      </trkpt>
      <trkpt lat="44.43174" lon="-0.48049">
        <ele>92.679328</ele>
        <time>2022-12-27T16:00:05.728Z</time>
      </trkpt>
      <trkpt lat="44.43164" lon="-0.48048">
        <ele>92.738678</ele>
        <time>2022-12-27T16:00:08.743Z</time>
      </trkpt>
      <trkpt lat="44.43153" lon="-0.48048">
        <ele>92.801877</ele>
        <time>2022-12-27T16:00:11.748Z</time>
      </trkpt>
      <trkpt lat="44.43142" lon="-0.48049">
        <ele>92.863441</ele>
        <time>2022-12-27T16:00:14.743Z</time>
      </trkpt>
      <trkpt lat="44.43131" lon="-0.4805">
        <ele>92.925185</ele>
        <time>2022-12-27T16:00:17.744Z</time>
      </trkpt>
      <trkpt lat="44.4312" lon="-0.4805">
        <ele>92.987822</ele>
        <time>2022-12-27T16:00:20.742Z</time>
      </trkpt>
      <trkpt lat="44.4311" lon="-0.48052">
        <ele>93.049791</ele>
        <time>2022-12-27T16:00:23.745Z</time>
      </trkpt>
      <trkpt lat="44.43098" lon="-0.48054">
        <ele>93.139818</ele>
        <time>2022-12-27T16:00:26.745Z</time>
      </trkpt>
      <trkpt lat="44.43087" lon="-0.48055">
        <ele>93.329728</ele>
        <time>2022-12-27T16:00:29.733Z</time>
      </trkpt>
      <trkpt lat="44.43076" lon="-0.4806">
        <ele>93.554618</ele>
        <time>2022-12-27T16:00:32.744Z</time>
      </trkpt>
      <trkpt lat="44.43065" lon="-0.48064">
        <ele>93.76595</ele>
        <time>2022-12-27T16:00:35.743Z</time>
      </trkpt>
      <trkpt lat="44.43054" lon="-0.48068">
        <ele>93.975814</ele>
        <time>2022-12-27T16:00:38.755Z</time>
      </trkpt>
      <trkpt lat="44.43043" lon="-0.48073">
        <ele>94.179937</ele>
        <time>2022-12-27T16:00:41.744Z</time>
      </trkpt>
      <trkpt lat="44.43033" lon="-0.48079">
        <ele>94.383318</ele>
        <time>2022-12-27T16:00:44.745Z</time>
      </trkpt>
      <trkpt lat="44.43022" lon="-0.48085">
        <ele>94.601222</ele>
        <time>2022-12-27T16:00:47.745Z</time>
      </trkpt>
      <trkpt lat="44.43012" lon="-0.48091">
        <ele>94.810757</ele>
        <time>2022-12-27T16:00:50.748Z</time>
      </trkpt>
      <trkpt lat="44.43002" lon="-0.48098">
        <ele>95.007775</ele>
        <time>2022-12-27T16:00:53.757Z</time>
      </trkpt>
      <trkpt lat="44.42992" lon="-0.48106">
        <ele>95.22616</ele>
        <time>2022-12-27T16:00:56.744Z</time>
      </trkpt>
      <trkpt lat="44.42982" lon="-0.48113">
        <ele>95.439638</ele>
        <time>2022-12-27T16:00:59.741Z</time>
      </trkpt>
      <trkpt lat="44.42973" lon="-0.4812">
        <ele>95.623318</ele>
        <time>2022-12-27T16:01:02.744Z</time>
      </trkpt>
      <trkpt lat="44.42965" lon="-0.48129">
        <ele>95.821137</ele>
        <time>2022-12-27T16:01:06.743Z</time>
      </trkpt>
      <trkpt lat="44.42956" lon="-0.48138">
        <ele>96.026437</ele>
        <time>2022-12-27T16:01:10.742Z</time>
      </trkpt>
      <trkpt lat="44.42947" lon="-0.48146">
        <ele>96.21281</ele>
        <time>2022-12-27T16:01:15.729Z</time>
      </trkpt>
      <trkpt lat="44.42931" lon="-0.48164">
        <ele>96.546205</ele>
        <time>2022-12-27T16:01:36.728Z</time>
      </trkpt>
      <trkpt lat="44.42925" lon="-0.48173">
        <ele>96.651379</ele>
        <time>2022-12-27T16:01:42.733Z</time>
      </trkpt>
      <trkpt lat="44.42915" lon="-0.48183">
        <ele>96.794392</ele>
        <time>2022-12-27T16:02:40.740Z</time>
      </trkpt>
      <trkpt lat="44.42906" lon="-0.48196">
        <ele>96.936934</ele>
        <time>2022-12-27T16:02:44.753Z</time>
      </trkpt>
      <trkpt lat="44.429" lon="-0.48206">
        <ele>97.053258</ele>
        <time>2022-12-27T16:02:47.748Z</time>
      </trkpt>
      <trkpt lat="44.42894" lon="-0.48217">
        <ele>97.16042</ele>
        <time>2022-12-27T16:02:50.726Z</time>
      </trkpt>
      <trkpt lat="44.42889" lon="-0.48228">
        <ele>97.273833</ele>
        <time>2022-12-27T16:02:53.756Z</time>
      </trkpt>
      <trkpt lat="44.42882" lon="-0.48238">
        <ele>97.382992</ele>
        <time>2022-12-27T16:02:57.725Z</time>
      </trkpt>
      <trkpt lat="44.42872" lon="-0.48234">
        <ele>97.507217</ele>
        <time>2022-12-27T16:03:02.734Z</time>
      </trkpt>
      <trkpt lat="44.4287" lon="-0.4822">
        <ele>97.623804</ele>
        <time>2022-12-27T16:03:07.748Z</time>
      </trkpt>
      <trkpt lat="44.42876" lon="-0.48208">
        <ele>97.741125</ele>
        <time>2022-12-27T16:03:10.749Z</time>
      </trkpt>
      <trkpt lat="44.42882" lon="-0.48195">
        <ele>97.874205</ele>
        <time>2022-12-27T16:03:13.744Z</time>
      </trkpt>
      <trkpt lat="44.42887" lon="-0.4818">
        <ele>98.014786</ele>
        <time>2022-12-27T16:03:16.746Z</time>
      </trkpt>
      <trkpt lat="44.42891" lon="-0.48162">
        <ele>98.167662</ele>
        <time>2022-12-27T16:03:19.743Z</time>
      </trkpt>
      <trkpt lat="44.42895" lon="-0.48149">
        <ele>98.279199</ele>
        <time>2022-12-27T16:03:21.731Z</time>
      </trkpt>
      <trkpt lat="44.42897" lon="-0.48137">
        <ele>98.389084</ele>
        <time>2022-12-27T16:03:23.746Z</time>
      </trkpt>
      <trkpt lat="44.42901" lon="-0.48118">
        <ele>98.534686</ele>
        <time>2022-12-27T16:03:26.722Z</time>
      </trkpt>
      <trkpt lat="44.42903" lon="-0.48105">
        <ele>98.517292</ele>
        <time>2022-12-27T16:03:28.746Z</time>
      </trkpt>
      <trkpt lat="44.42905" lon="-0.48092">
        <ele>98.500547</ele>
        <time>2022-12-27T16:03:30.748Z</time>
      </trkpt>
      <trkpt lat="44.42907" lon="-0.4808">
        <ele>98.48365</ele>
        <time>2022-12-27T16:03:32.748Z</time>
      </trkpt>
      <trkpt lat="44.42909" lon="-0.48066">
        <ele>98.465133</ele>
        <time>2022-12-27T16:03:34.756Z</time>
      </trkpt>
      <trkpt lat="44.42912" lon="-0.48052">
        <ele>98.447532</ele>
        <time>2022-12-27T16:03:36.753Z</time>
      </trkpt>
      <trkpt lat="44.42914" lon="-0.48039">
        <ele>98.429595</ele>
        <time>2022-12-27T16:03:38.759Z</time>
      </trkpt>
      <trkpt lat="44.42917" lon="-0.48026">
        <ele>98.411935</ele>
        <time>2022-12-27T16:03:40.741Z</time>
      </trkpt>
      <trkpt lat="44.4292" lon="-0.48012">
        <ele>98.39378</ele>
        <time>2022-12-27T16:03:42.756Z</time>
      </trkpt>
      <trkpt lat="44.42922" lon="-0.47998">
        <ele>98.37484</ele>
        <time>2022-12-27T16:03:44.750Z</time>
      </trkpt>
      <trkpt lat="44.42924" lon="-0.47983">
        <ele>98.355306</ele>
        <time>2022-12-27T16:03:46.750Z</time>
      </trkpt>
      <trkpt lat="44.42926" lon="-0.47969">
        <ele>98.33683</ele>
        <time>2022-12-27T16:03:48.749Z</time>
      </trkpt>
      <trkpt lat="44.42927" lon="-0.47955">
        <ele>98.319102</ele>
        <time>2022-12-27T16:03:50.735Z</time>
      </trkpt>
      <trkpt lat="44.4293" lon="-0.47941">
        <ele>98.300916</ele>
        <time>2022-12-27T16:03:52.745Z</time>
      </trkpt>
      <trkpt lat="44.42932" lon="-0.47927">
        <ele>98.281734</ele>
        <time>2022-12-27T16:03:54.746Z</time>
      </trkpt>
      <trkpt lat="44.42934" lon="-0.47913">
        <ele>98.263672</ele>
        <time>2022-12-27T16:03:56.745Z</time>
      </trkpt>
      <trkpt lat="44.42936" lon="-0.47899">
        <ele>98.244838</ele>
        <time>2022-12-27T16:03:58.752Z</time>
      </trkpt>
      <trkpt lat="44.42938" lon="-0.47884">
        <ele>98.225685</ele>
        <time>2022-12-27T16:04:00.764Z</time>
      </trkpt>
      <trkpt lat="44.4294" lon="-0.47871">
        <ele>98.218427</ele>
        <time>2022-12-27T16:04:02.751Z</time>
      </trkpt>
      <trkpt lat="44.42942" lon="-0.47856">
        <ele>98.248313</ele>
        <time>2022-12-27T16:04:04.748Z</time>
      </trkpt>
      <trkpt lat="44.42944" lon="-0.47842">
        <ele>98.278107</ele>
        <time>2022-12-27T16:04:06.753Z</time>
      </trkpt>
      <trkpt lat="44.42946" lon="-0.47827">
        <ele>98.307737</ele>
        <time>2022-12-27T16:04:08.744Z</time>
      </trkpt>
      <trkpt lat="44.42948" lon="-0.47813">
        <ele>98.337198</ele>
        <time>2022-12-27T16:04:10.749Z</time>
      </trkpt>
      <trkpt lat="44.42951" lon="-0.47799">
        <ele>98.366135</ele>
        <time>2022-12-27T16:04:12.753Z</time>
      </trkpt>
      <trkpt lat="44.42953" lon="-0.47784">
        <ele>98.395872</ele>
        <time>2022-12-27T16:04:14.731Z</time>
      </trkpt>
      <trkpt lat="44.42955" lon="-0.4777">
        <ele>98.424711</ele>
        <time>2022-12-27T16:04:16.737Z</time>
      </trkpt>
      <trkpt lat="44.42956" lon="-0.47756">
        <ele>98.453208</ele>
        <time>2022-12-27T16:04:18.725Z</time>
      </trkpt>
      <trkpt lat="44.42958" lon="-0.47742">
        <ele>98.482298</ele>
        <time>2022-12-27T16:04:20.732Z</time>
      </trkpt>
      <trkpt lat="44.42961" lon="-0.47728">
        <ele>98.511692</ele>
        <time>2022-12-27T16:04:22.743Z</time>
      </trkpt>
      <trkpt lat="44.42963" lon="-0.47714">
        <ele>98.540334</ele>
        <time>2022-12-27T16:04:24.747Z</time>
      </trkpt>
      <trkpt lat="44.42965" lon="-0.47699">
        <ele>98.569964</ele>
        <time>2022-12-27T16:04:26.744Z</time>
      </trkpt>
      <trkpt lat="44.42967" lon="-0.47685">
        <ele>98.599621</ele>
        <time>2022-12-27T16:04:28.732Z</time>
      </trkpt>
      <trkpt lat="44.42969" lon="-0.4767">
        <ele>98.629357</ele>
        <time>2022-12-27T16:04:30.731Z</time>
      </trkpt>
      <trkpt lat="44.42971" lon="-0.47656">
        <ele>98.658231</ele>
        <time>2022-12-27T16:04:32.749Z</time>
      </trkpt>
      <trkpt lat="44.42974" lon="-0.47643">
        <ele>98.686408</ele>
        <time>2022-12-27T16:04:34.753Z</time>
      </trkpt>
      <trkpt lat="44.42976" lon="-0.47629">
        <ele>98.715301</ele>
        <time>2022-12-27T16:04:36.748Z</time>
      </trkpt>
      <trkpt lat="44.42977" lon="-0.47614">
        <ele>98.672866</ele>
        <time>2022-12-27T16:04:38.744Z</time>
      </trkpt>
      <trkpt lat="44.4298" lon="-0.476">
        <ele>98.621305</ele>
        <time>2022-12-27T16:04:40.757Z</time>
      </trkpt>
      <trkpt lat="44.42982" lon="-0.47586">
        <ele>98.572187</ele>
        <time>2022-12-27T16:04:42.744Z</time>
      </trkpt>
      <trkpt lat="44.42985" lon="-0.47572">
        <ele>98.524975</ele>
        <time>2022-12-27T16:04:44.745Z</time>
      </trkpt>
      <trkpt lat="44.42987" lon="-0.47559">
        <ele>98.476079</ele>
        <time>2022-12-27T16:04:46.750Z</time>
      </trkpt>
      <trkpt lat="44.42988" lon="-0.47543">
        <ele>98.423053</ele>
        <time>2022-12-27T16:04:48.749Z</time>
      </trkpt>
      <trkpt lat="44.42991" lon="-0.4753">
        <ele>98.374726</ele>
        <time>2022-12-27T16:04:50.746Z</time>
      </trkpt>
      <trkpt lat="44.42992" lon="-0.47516">
        <ele>98.327124</ele>
        <time>2022-12-27T16:04:52.744Z</time>
      </trkpt>
      <trkpt lat="44.42995" lon="-0.47502">
        <ele>98.2789</ele>
        <time>2022-12-27T16:04:54.759Z</time>
      </trkpt>
      <trkpt lat="44.42997" lon="-0.47489">
        <ele>98.231581</ele>
        <time>2022-12-27T16:04:56.747Z</time>
      </trkpt>
      <trkpt lat="44.42999" lon="-0.47475">
        <ele>98.182249</ele>
        <time>2022-12-27T16:04:58.747Z</time>
      </trkpt>
      <trkpt lat="44.43002" lon="-0.47461">
        <ele>98.131582</ele>
        <time>2022-12-27T16:05:00.747Z</time>
      </trkpt>
      <trkpt lat="44.43004" lon="-0.47448">
        <ele>98.086941</ele>
        <time>2022-12-27T16:05:02.750Z</time>
      </trkpt>
      <trkpt lat="44.43006" lon="-0.47429">
        <ele>98.020232</ele>
        <time>2022-12-27T16:05:05.753Z</time>
      </trkpt>
      <trkpt lat="44.43008" lon="-0.47416">
        <ele>97.973917</ele>
        <time>2022-12-27T16:05:07.751Z</time>
      </trkpt>
      <trkpt lat="44.4301" lon="-0.47403">
        <ele>97.927238</ele>
        <time>2022-12-27T16:05:09.746Z</time>
      </trkpt>
      <trkpt lat="44.43012" lon="-0.47389">
        <ele>97.878678</ele>
        <time>2022-12-27T16:05:11.751Z</time>
      </trkpt>
      <trkpt lat="44.43014" lon="-0.47374">
        <ele>97.840848</ele>
        <time>2022-12-27T16:05:13.731Z</time>
      </trkpt>
      <trkpt lat="44.43016" lon="-0.4736">
        <ele>97.817234</ele>
        <time>2022-12-27T16:05:15.746Z</time>
      </trkpt>
      <trkpt lat="44.43018" lon="-0.47345">
        <ele>97.794264</ele>
        <time>2022-12-27T16:05:17.742Z</time>
      </trkpt>
      <trkpt lat="44.4302" lon="-0.4733">
        <ele>97.770262</ele>
        <time>2022-12-27T16:05:19.743Z</time>
      </trkpt>
      <trkpt lat="44.43022" lon="-0.47317">
        <ele>97.74829</ele>
        <time>2022-12-27T16:05:21.730Z</time>
      </trkpt>
      <trkpt lat="44.43024" lon="-0.47302">
        <ele>97.724663</ele>
        <time>2022-12-27T16:05:23.745Z</time>
      </trkpt>
      <trkpt lat="44.43026" lon="-0.47288">
        <ele>97.702194</ele>
        <time>2022-12-27T16:05:25.758Z</time>
      </trkpt>
      <trkpt lat="44.43028" lon="-0.47273">
        <ele>97.678702</ele>
        <time>2022-12-27T16:05:27.751Z</time>
      </trkpt>
      <trkpt lat="44.4303" lon="-0.4726">
        <ele>97.657807</ele>
        <time>2022-12-27T16:05:29.737Z</time>
      </trkpt>
      <trkpt lat="44.43032" lon="-0.47247">
        <ele>97.63599</ele>
        <time>2022-12-27T16:05:31.758Z</time>
      </trkpt>
      <trkpt lat="44.43035" lon="-0.47228">
        <ele>97.605922</ele>
        <time>2022-12-27T16:05:34.759Z</time>
      </trkpt>
      <trkpt lat="44.43037" lon="-0.47214">
        <ele>97.583994</ele>
        <time>2022-12-27T16:05:36.751Z</time>
      </trkpt>
      <trkpt lat="44.43039" lon="-0.47201">
        <ele>97.562682</ele>
        <time>2022-12-27T16:05:38.746Z</time>
      </trkpt>
      <trkpt lat="44.43041" lon="-0.47187">
        <ele>97.540924</ele>
        <time>2022-12-27T16:05:40.755Z</time>
      </trkpt>
      <trkpt lat="44.43043" lon="-0.47174">
        <ele>97.519117</ele>
        <time>2022-12-27T16:05:42.759Z</time>
      </trkpt>
      <trkpt lat="44.43045" lon="-0.47161">
        <ele>97.498505</ele>
        <time>2022-12-27T16:05:44.740Z</time>
      </trkpt>
      <trkpt lat="44.43047" lon="-0.47147">
        <ele>97.476688</ele>
        <time>2022-12-27T16:05:46.744Z</time>
      </trkpt>
      <trkpt lat="44.4305" lon="-0.47133">
        <ele>97.464233</ele>
        <time>2022-12-27T16:05:48.745Z</time>
      </trkpt>
      <trkpt lat="44.43052" lon="-0.47119">
        <ele>97.545137</ele>
        <time>2022-12-27T16:05:50.751Z</time>
      </trkpt>
      <trkpt lat="44.43054" lon="-0.47106">
        <ele>97.624183</ele>
        <time>2022-12-27T16:05:52.744Z</time>
      </trkpt>
      <trkpt lat="44.43056" lon="-0.47091">
        <ele>97.710521</ele>
        <time>2022-12-27T16:05:54.745Z</time>
      </trkpt>
      <trkpt lat="44.43059" lon="-0.47077">
        <ele>97.792161</ele>
        <time>2022-12-27T16:05:56.747Z</time>
      </trkpt>
      <trkpt lat="44.43061" lon="-0.47062">
        <ele>97.880033</ele>
        <time>2022-12-27T16:05:58.749Z</time>
      </trkpt>
      <trkpt lat="44.43062" lon="-0.47048">
        <ele>97.960863</ele>
        <time>2022-12-27T16:06:00.749Z</time>
      </trkpt>
      <trkpt lat="44.43065" lon="-0.47033">
        <ele>98.049375</ele>
        <time>2022-12-27T16:06:02.743Z</time>
      </trkpt>
      <trkpt lat="44.43067" lon="-0.47018">
        <ele>98.135873</ele>
        <time>2022-12-27T16:06:04.753Z</time>
      </trkpt>
      <trkpt lat="44.43069" lon="-0.47004">
        <ele>98.219661</ele>
        <time>2022-12-27T16:06:06.756Z</time>
      </trkpt>
      <trkpt lat="44.43071" lon="-0.4699">
        <ele>98.301761</ele>
        <time>2022-12-27T16:06:08.744Z</time>
      </trkpt>
      <trkpt lat="44.43073" lon="-0.46975">
        <ele>98.389071</ele>
        <time>2022-12-27T16:06:10.758Z</time>
      </trkpt>
      <trkpt lat="44.43075" lon="-0.4696">
        <ele>98.47442</ele>
        <time>2022-12-27T16:06:12.731Z</time>
      </trkpt>
      <trkpt lat="44.43077" lon="-0.46945">
        <ele>98.561886</ele>
        <time>2022-12-27T16:06:14.745Z</time>
      </trkpt>
      <trkpt lat="44.43079" lon="-0.46931">
        <ele>98.642968</ele>
        <time>2022-12-27T16:06:16.746Z</time>
      </trkpt>
      <trkpt lat="44.43081" lon="-0.46916">
        <ele>98.730999</ele>
        <time>2022-12-27T16:06:18.729Z</time>
      </trkpt>
      <trkpt lat="44.43083" lon="-0.46901">
        <ele>98.816545</ele>
        <time>2022-12-27T16:06:20.735Z</time>
      </trkpt>
      <trkpt lat="44.43086" lon="-0.46887">
        <ele>98.895388</ele>
        <time>2022-12-27T16:06:22.743Z</time>
      </trkpt>
      <trkpt lat="44.43088" lon="-0.46874">
        <ele>98.842622</ele>
        <time>2022-12-27T16:06:24.744Z</time>
      </trkpt>
      <trkpt lat="44.43091" lon="-0.4686">
        <ele>98.786515</ele>
        <time>2022-12-27T16:06:26.750Z</time>
      </trkpt>
      <trkpt lat="44.43093" lon="-0.46845">
        <ele>98.729572</ele>
        <time>2022-12-27T16:06:28.755Z</time>
      </trkpt>
      <trkpt lat="44.43095" lon="-0.46829">
        <ele>98.670145</ele>
        <time>2022-12-27T16:06:30.728Z</time>
      </trkpt>
      <trkpt lat="44.43098" lon="-0.46814">
        <ele>98.61087</ele>
        <time>2022-12-27T16:06:32.742Z</time>
      </trkpt>
      <trkpt lat="44.431" lon="-0.46799">
        <ele>98.551337</ele>
        <time>2022-12-27T16:06:34.744Z</time>
      </trkpt>
      <trkpt lat="44.43102" lon="-0.46784">
        <ele>98.493126</ele>
        <time>2022-12-27T16:06:36.742Z</time>
      </trkpt>
      <trkpt lat="44.43104" lon="-0.46768">
        <ele>98.432685</ele>
        <time>2022-12-27T16:06:38.750Z</time>
      </trkpt>
      <trkpt lat="44.43106" lon="-0.46753">
        <ele>98.376702</ele>
        <time>2022-12-27T16:06:40.738Z</time>
      </trkpt>
      <trkpt lat="44.43108" lon="-0.46739">
        <ele>98.320077</ele>
        <time>2022-12-27T16:06:42.754Z</time>
      </trkpt>
      <trkpt lat="44.4311" lon="-0.46726">
        <ele>98.271928</ele>
        <time>2022-12-27T16:06:44.753Z</time>
      </trkpt>
      <trkpt lat="44.43112" lon="-0.46712">
        <ele>98.217904</ele>
        <time>2022-12-27T16:06:46.736Z</time>
      </trkpt>
      <trkpt lat="44.43114" lon="-0.46699">
        <ele>98.165938</ele>
        <time>2022-12-27T16:06:48.754Z</time>
      </trkpt>
      <trkpt lat="44.43116" lon="-0.46684">
        <ele>98.108879</ele>
        <time>2022-12-27T16:06:50.745Z</time>
      </trkpt>
      <trkpt lat="44.43119" lon="-0.46669">
        <ele>98.049737</ele>
        <time>2022-12-27T16:06:52.733Z</time>
      </trkpt>
      <trkpt lat="44.43122" lon="-0.46654">
        <ele>97.990101</ele>
        <time>2022-12-27T16:06:54.746Z</time>
      </trkpt>
      <trkpt lat="44.43124" lon="-0.46638">
        <ele>97.926176</ele>
        <time>2022-12-27T16:06:56.744Z</time>
      </trkpt>
      <trkpt lat="44.43127" lon="-0.46623">
        <ele>97.843164</ele>
        <time>2022-12-27T16:06:58.744Z</time>
      </trkpt>
      <trkpt lat="44.43129" lon="-0.46607">
        <ele>97.756425</ele>
        <time>2022-12-27T16:07:00.745Z</time>
      </trkpt>
      <trkpt lat="44.43132" lon="-0.46593">
        <ele>97.679102</ele>
        <time>2022-12-27T16:07:02.727Z</time>
      </trkpt>
      <trkpt lat="44.43135" lon="-0.46579">
        <ele>97.600933</ele>
        <time>2022-12-27T16:07:04.743Z</time>
      </trkpt>
      <trkpt lat="44.43137" lon="-0.46565">
        <ele>97.525867</ele>
        <time>2022-12-27T16:07:06.755Z</time>
      </trkpt>
      <trkpt lat="44.4314" lon="-0.46553">
        <ele>97.458941</ele>
        <time>2022-12-27T16:07:08.747Z</time>
      </trkpt>
      <trkpt lat="44.43144" lon="-0.46541">
        <ele>97.391432</ele>
        <time>2022-12-27T16:07:10.750Z</time>
      </trkpt>
      <trkpt lat="44.43147" lon="-0.46529">
        <ele>97.320776</ele>
        <time>2022-12-27T16:07:12.745Z</time>
      </trkpt>
      <trkpt lat="44.43151" lon="-0.46515">
        <ele>97.244528</ele>
        <time>2022-12-27T16:07:14.746Z</time>
      </trkpt>
      <trkpt lat="44.43155" lon="-0.46501">
        <ele>97.16589</ele>
        <time>2022-12-27T16:07:16.743Z</time>
      </trkpt>
      <trkpt lat="44.43159" lon="-0.46487">
        <ele>97.086</ele>
        <time>2022-12-27T16:07:18.745Z</time>
      </trkpt>
      <trkpt lat="44.43163" lon="-0.46474">
        <ele>97.00703</ele>
        <time>2022-12-27T16:07:20.760Z</time>
      </trkpt>
      <trkpt lat="44.43166" lon="-0.4646">
        <ele>96.929148</ele>
        <time>2022-12-27T16:07:22.730Z</time>
      </trkpt>
      <trkpt lat="44.43171" lon="-0.46446">
        <ele>96.850565</ele>
        <time>2022-12-27T16:07:24.743Z</time>
      </trkpt>
      <trkpt lat="44.43175" lon="-0.46432">
        <ele>96.7681</ele>
        <time>2022-12-27T16:07:26.746Z</time>
      </trkpt>
      <trkpt lat="44.43179" lon="-0.46417">
        <ele>96.686746</ele>
        <time>2022-12-27T16:07:28.755Z</time>
      </trkpt>
      <trkpt lat="44.43183" lon="-0.46403">
        <ele>96.621489</ele>
        <time>2022-12-27T16:07:30.726Z</time>
      </trkpt>
      <trkpt lat="44.43188" lon="-0.46389">
        <ele>96.745679</ele>
        <time>2022-12-27T16:07:32.747Z</time>
      </trkpt>
      <trkpt lat="44.43193" lon="-0.46375">
        <ele>96.866314</ele>
        <time>2022-12-27T16:07:34.745Z</time>
      </trkpt>
      <trkpt lat="44.43198" lon="-0.46362">
        <ele>96.979322</ele>
        <time>2022-12-27T16:07:36.757Z</time>
      </trkpt>
      <trkpt lat="44.43203" lon="-0.46349">
        <ele>97.089971</ele>
        <time>2022-12-27T16:07:38.745Z</time>
      </trkpt>
      <trkpt lat="44.43208" lon="-0.46337">
        <ele>97.199595</ele>
        <time>2022-12-27T16:07:40.741Z</time>
      </trkpt>
      <trkpt lat="44.43213" lon="-0.46324">
        <ele>97.318414</ele>
        <time>2022-12-27T16:07:42.751Z</time>
      </trkpt>
      <trkpt lat="44.43219" lon="-0.4631">
        <ele>97.438875</ele>
        <time>2022-12-27T16:07:44.746Z</time>
      </trkpt>
      <trkpt lat="44.43224" lon="-0.46296">
        <ele>97.559176</ele>
        <time>2022-12-27T16:07:46.757Z</time>
      </trkpt>
      <trkpt lat="44.43229" lon="-0.46283">
        <ele>97.670931</ele>
        <time>2022-12-27T16:07:48.750Z</time>
      </trkpt>
      <trkpt lat="44.43234" lon="-0.46268">
        <ele>97.797527</ele>
        <time>2022-12-27T16:07:50.761Z</time>
      </trkpt>
      <trkpt lat="44.43239" lon="-0.46255">
        <ele>97.913582</ele>
        <time>2022-12-27T16:07:52.754Z</time>
      </trkpt>
      <trkpt lat="44.43244" lon="-0.46241">
        <ele>98.032063</ele>
        <time>2022-12-27T16:07:54.745Z</time>
      </trkpt>
      <trkpt lat="44.4325" lon="-0.46228">
        <ele>98.152243</ele>
        <time>2022-12-27T16:07:56.754Z</time>
      </trkpt>
      <trkpt lat="44.43256" lon="-0.46215">
        <ele>98.268958</ele>
        <time>2022-12-27T16:07:58.759Z</time>
      </trkpt>
      <trkpt lat="44.43262" lon="-0.46202">
        <ele>98.386149</ele>
        <time>2022-12-27T16:08:00.746Z</time>
      </trkpt>
      <trkpt lat="44.43267" lon="-0.46188">
        <ele>98.510008</ele>
        <time>2022-12-27T16:08:02.746Z</time>
      </trkpt>
      <trkpt lat="44.43272" lon="-0.46174">
        <ele>98.450901</ele>
        <time>2022-12-27T16:08:04.749Z</time>
      </trkpt>
      <trkpt lat="44.43277" lon="-0.46161">
        <ele>98.307381</ele>
        <time>2022-12-27T16:08:06.753Z</time>
      </trkpt>
      <trkpt lat="44.43282" lon="-0.46147">
        <ele>98.158739</ele>
        <time>2022-12-27T16:08:08.759Z</time>
      </trkpt>
      <trkpt lat="44.43287" lon="-0.46135">
        <ele>98.022709</ele>
        <time>2022-12-27T16:08:10.745Z</time>
      </trkpt>
      <trkpt lat="44.43292" lon="-0.46122">
        <ele>97.882692</ele>
        <time>2022-12-27T16:08:12.736Z</time>
      </trkpt>
      <trkpt lat="44.43296" lon="-0.4611">
        <ele>97.755293</ele>
        <time>2022-12-27T16:08:14.746Z</time>
      </trkpt>
      <trkpt lat="44.43303" lon="-0.46094">
        <ele>97.574286</ele>
        <time>2022-12-27T16:08:17.760Z</time>
      </trkpt>
      <trkpt lat="44.43307" lon="-0.46082">
        <ele>97.450304</ele>
        <time>2022-12-27T16:08:19.748Z</time>
      </trkpt>
      <trkpt lat="44.43312" lon="-0.46069">
        <ele>97.315934</ele>
        <time>2022-12-27T16:08:21.752Z</time>
      </trkpt>
      <trkpt lat="44.43316" lon="-0.46057">
        <ele>97.182675</ele>
        <time>2022-12-27T16:08:23.756Z</time>
      </trkpt>
      <trkpt lat="44.43322" lon="-0.46044">
        <ele>97.037184</ele>
        <time>2022-12-27T16:08:25.755Z</time>
      </trkpt>
      <trkpt lat="44.43328" lon="-0.46031">
        <ele>96.892455</ele>
        <time>2022-12-27T16:08:27.729Z</time>
      </trkpt>
      <trkpt lat="44.43333" lon="-0.46018">
        <ele>96.747407</ele>
        <time>2022-12-27T16:08:29.731Z</time>
      </trkpt>
      <trkpt lat="44.43338" lon="-0.46004">
        <ele>96.599407</ele>
        <time>2022-12-27T16:08:31.745Z</time>
      </trkpt>
      <trkpt lat="44.43343" lon="-0.4599">
        <ele>96.453636</ele>
        <time>2022-12-27T16:08:33.741Z</time>
      </trkpt>
      <trkpt lat="44.43347" lon="-0.45977">
        <ele>96.309887</ele>
        <time>2022-12-27T16:08:35.754Z</time>
      </trkpt>
      <trkpt lat="44.43353" lon="-0.45964">
        <ele>96.164042</ele>
        <time>2022-12-27T16:08:37.753Z</time>
      </trkpt>
      <trkpt lat="44.43359" lon="-0.4595">
        <ele>96.248651</ele>
        <time>2022-12-27T16:08:39.756Z</time>
      </trkpt>
      <trkpt lat="44.43364" lon="-0.45937">
        <ele>96.357347</ele>
        <time>2022-12-27T16:08:41.740Z</time>
      </trkpt>
      <trkpt lat="44.43368" lon="-0.45924">
        <ele>96.468551</ele>
        <time>2022-12-27T16:08:43.744Z</time>
      </trkpt>
      <trkpt lat="44.43373" lon="-0.45912">
        <ele>96.577647</ele>
        <time>2022-12-27T16:08:45.753Z</time>
      </trkpt>
      <trkpt lat="44.43378" lon="-0.459">
        <ele>96.680816</ele>
        <time>2022-12-27T16:08:47.747Z</time>
      </trkpt>
      <trkpt lat="44.43382" lon="-0.45888">
        <ele>96.77679</ele>
        <time>2022-12-27T16:08:49.735Z</time>
      </trkpt>
      <trkpt lat="44.43387" lon="-0.45877">
        <ele>96.878386</ele>
        <time>2022-12-27T16:08:51.752Z</time>
      </trkpt>
      <trkpt lat="44.43392" lon="-0.45865">
        <ele>96.979713</ele>
        <time>2022-12-27T16:08:53.733Z</time>
      </trkpt>
      <trkpt lat="44.43396" lon="-0.45854">
        <ele>97.076422</ele>
        <time>2022-12-27T16:08:55.752Z</time>
      </trkpt>
      <trkpt lat="44.43401" lon="-0.45842">
        <ele>97.183429</ele>
        <time>2022-12-27T16:08:57.745Z</time>
      </trkpt>
      <trkpt lat="44.43406" lon="-0.4583">
        <ele>97.290145</ele>
        <time>2022-12-27T16:08:59.751Z</time>
      </trkpt>
      <trkpt lat="44.4341" lon="-0.45818">
        <ele>97.393159</ele>
        <time>2022-12-27T16:09:01.750Z</time>
      </trkpt>
      <trkpt lat="44.43415" lon="-0.45804">
        <ele>97.506518</ele>
        <time>2022-12-27T16:09:03.743Z</time>
      </trkpt>
      <trkpt lat="44.43421" lon="-0.45791">
        <ele>97.621272</ele>
        <time>2022-12-27T16:09:05.731Z</time>
      </trkpt>
      <trkpt lat="44.43426" lon="-0.45778">
        <ele>97.736646</ele>
        <time>2022-12-27T16:09:07.746Z</time>
      </trkpt>
      <trkpt lat="44.43431" lon="-0.45764">
        <ele>97.851347</ele>
        <time>2022-12-27T16:09:09.744Z</time>
      </trkpt>
      <trkpt lat="44.43436" lon="-0.45751">
        <ele>97.963211</ele>
        <time>2022-12-27T16:09:11.749Z</time>
      </trkpt>
      <trkpt lat="44.43441" lon="-0.45738">
        <ele>98.073458</ele>
        <time>2022-12-27T16:09:13.756Z</time>
      </trkpt>
      <trkpt lat="44.43446" lon="-0.45725">
        <ele>98.167064</ele>
        <time>2022-12-27T16:09:15.740Z</time>
      </trkpt>
      <trkpt lat="44.43451" lon="-0.45712">
        <ele>98.25931</ele>
        <time>2022-12-27T16:09:17.747Z</time>
      </trkpt>
      <trkpt lat="44.43456" lon="-0.45699">
        <ele>98.351007</ele>
        <time>2022-12-27T16:09:19.731Z</time>
      </trkpt>
      <trkpt lat="44.43461" lon="-0.45686">
        <ele>98.43696</ele>
        <time>2022-12-27T16:09:21.735Z</time>
      </trkpt>
      <trkpt lat="44.43466" lon="-0.45673">
        <ele>98.530707</ele>
        <time>2022-12-27T16:09:23.735Z</time>
      </trkpt>
      <trkpt lat="44.43471" lon="-0.4566">
        <ele>98.622559</ele>
        <time>2022-12-27T16:09:25.755Z</time>
      </trkpt>
      <trkpt lat="44.43476" lon="-0.45648">
        <ele>98.709891</ele>
        <time>2022-12-27T16:09:27.746Z</time>
      </trkpt>
      <trkpt lat="44.43481" lon="-0.45636">
        <ele>98.797908</ele>
        <time>2022-12-27T16:09:29.748Z</time>
      </trkpt>
      <trkpt lat="44.43487" lon="-0.45622">
        <ele>98.893206</ele>
        <time>2022-12-27T16:09:31.752Z</time>
      </trkpt>
      <trkpt lat="44.43492" lon="-0.45609">
        <ele>98.986139</ele>
        <time>2022-12-27T16:09:33.746Z</time>
      </trkpt>
      <trkpt lat="44.43497" lon="-0.45596">
        <ele>99.078541</ele>
        <time>2022-12-27T16:09:35.745Z</time>
      </trkpt>
      <trkpt lat="44.43502" lon="-0.45583">
        <ele>99.168345</ele>
        <time>2022-12-27T16:09:37.756Z</time>
      </trkpt>
      <trkpt lat="44.43506" lon="-0.45572">
        <ele>99.246785</ele>
        <time>2022-12-27T16:09:39.758Z</time>
      </trkpt>
      <trkpt lat="44.4351" lon="-0.4556">
        <ele>99.3317</ele>
        <time>2022-12-27T16:09:41.750Z</time>
      </trkpt>
      <trkpt lat="44.43515" lon="-0.45547">
        <ele>99.423396</ele>
        <time>2022-12-27T16:09:43.749Z</time>
      </trkpt>
      <trkpt lat="44.4352" lon="-0.45534">
        <ele>99.511141</ele>
        <time>2022-12-27T16:09:45.728Z</time>
      </trkpt>
      <trkpt lat="44.43524" lon="-0.45522">
        <ele>99.596685</ele>
        <time>2022-12-27T16:09:47.738Z</time>
      </trkpt>
      <trkpt lat="44.43529" lon="-0.45509">
        <ele>99.581783</ele>
        <time>2022-12-27T16:09:49.738Z</time>
      </trkpt>
      <trkpt lat="44.43534" lon="-0.45496">
        <ele>99.537204</ele>
        <time>2022-12-27T16:09:51.746Z</time>
      </trkpt>
      <trkpt lat="44.43539" lon="-0.45484">
        <ele>99.493833</ele>
        <time>2022-12-27T16:09:53.732Z</time>
      </trkpt>
      <trkpt lat="44.43544" lon="-0.45472">
        <ele>99.453076</ele>
        <time>2022-12-27T16:09:55.745Z</time>
      </trkpt>
      <trkpt lat="44.43552" lon="-0.45456">
        <ele>99.394062</ele>
        <time>2022-12-27T16:09:58.757Z</time>
      </trkpt>
      <trkpt lat="44.43556" lon="-0.45443">
        <ele>99.352334</ele>
        <time>2022-12-27T16:10:00.749Z</time>
      </trkpt>
      <trkpt lat="44.4356" lon="-0.45431">
        <ele>99.310419</ele>
        <time>2022-12-27T16:10:02.750Z</time>
      </trkpt>
      <trkpt lat="44.43567" lon="-0.45415">
        <ele>99.25364</ele>
        <time>2022-12-27T16:10:05.751Z</time>
      </trkpt>
      <trkpt lat="44.43573" lon="-0.45399">
        <ele>99.200331</ele>
        <time>2022-12-27T16:10:08.745Z</time>
      </trkpt>
      <trkpt lat="44.43579" lon="-0.45384">
        <ele>99.148389</ele>
        <time>2022-12-27T16:10:11.729Z</time>
      </trkpt>
      <trkpt lat="44.43585" lon="-0.45369">
        <ele>99.094609</ele>
        <time>2022-12-27T16:10:14.754Z</time>
      </trkpt>
      <trkpt lat="44.4359" lon="-0.45357">
        <ele>99.05231</ele>
        <time>2022-12-27T16:10:16.756Z</time>
      </trkpt>
      <trkpt lat="44.43595" lon="-0.45345">
        <ele>99.010139</ele>
        <time>2022-12-27T16:10:18.742Z</time>
      </trkpt>
      <trkpt lat="44.43602" lon="-0.45328">
        <ele>98.952945</ele>
        <time>2022-12-27T16:10:21.728Z</time>
      </trkpt>
      <trkpt lat="44.43607" lon="-0.45316">
        <ele>98.910248</ele>
        <time>2022-12-27T16:10:23.729Z</time>
      </trkpt>
      <trkpt lat="44.43611" lon="-0.45303">
        <ele>98.866054</ele>
        <time>2022-12-27T16:10:25.735Z</time>
      </trkpt>
      <trkpt lat="44.43616" lon="-0.4529">
        <ele>98.768748</ele>
        <time>2022-12-27T16:10:27.730Z</time>
      </trkpt>
      <trkpt lat="44.43621" lon="-0.45278">
        <ele>98.661207</ele>
        <time>2022-12-27T16:10:29.730Z</time>
      </trkpt>
      <trkpt lat="44.43626" lon="-0.45267">
        <ele>98.556782</ele>
        <time>2022-12-27T16:10:31.728Z</time>
      </trkpt>
      <trkpt lat="44.43632" lon="-0.45249">
        <ele>98.402054</ele>
        <time>2022-12-27T16:10:34.730Z</time>
      </trkpt>
      <trkpt lat="44.43637" lon="-0.45237">
        <ele>98.291918</ele>
        <time>2022-12-27T16:10:36.744Z</time>
      </trkpt>
      <trkpt lat="44.43641" lon="-0.45225">
        <ele>98.185585</ele>
        <time>2022-12-27T16:10:38.760Z</time>
      </trkpt>
      <trkpt lat="44.43646" lon="-0.45213">
        <ele>98.07421</ele>
        <time>2022-12-27T16:10:40.743Z</time>
      </trkpt>
      <trkpt lat="44.43651" lon="-0.45201">
        <ele>97.961842</ele>
        <time>2022-12-27T16:10:42.746Z</time>
      </trkpt>
      <trkpt lat="44.43656" lon="-0.45189">
        <ele>97.851706</ele>
        <time>2022-12-27T16:10:44.730Z</time>
      </trkpt>
      <trkpt lat="44.43661" lon="-0.45176">
        <ele>97.739091</ele>
        <time>2022-12-27T16:10:46.753Z</time>
      </trkpt>
      <trkpt lat="44.43666" lon="-0.45164">
        <ele>97.624671</ele>
        <time>2022-12-27T16:10:48.732Z</time>
      </trkpt>
      <trkpt lat="44.4367" lon="-0.45152">
        <ele>97.517701</ele>
        <time>2022-12-27T16:10:50.732Z</time>
      </trkpt>
      <trkpt lat="44.43675" lon="-0.4514">
        <ele>97.409646</ele>
        <time>2022-12-27T16:10:52.744Z</time>
      </trkpt>
      <trkpt lat="44.4368" lon="-0.45128">
        <ele>97.298647</ele>
        <time>2022-12-27T16:10:54.756Z</time>
      </trkpt>
      <trkpt lat="44.43685" lon="-0.45115">
        <ele>97.181779</ele>
        <time>2022-12-27T16:10:56.757Z</time>
      </trkpt>
      <trkpt lat="44.4369" lon="-0.45102">
        <ele>97.063759</ele>
        <time>2022-12-27T16:10:58.746Z</time>
      </trkpt>
      <trkpt lat="44.43695" lon="-0.45088">
        <ele>96.939209</ele>
        <time>2022-12-27T16:11:00.736Z</time>
      </trkpt>
      <trkpt lat="44.437" lon="-0.45074">
        <ele>96.884716</ele>
        <time>2022-12-27T16:11:02.733Z</time>
      </trkpt>
      <trkpt lat="44.43705" lon="-0.45061">
        <ele>97.013413</ele>
        <time>2022-12-27T16:11:04.730Z</time>
      </trkpt>
      <trkpt lat="44.4371" lon="-0.45047">
        <ele>97.149233</ele>
        <time>2022-12-27T16:11:06.750Z</time>
      </trkpt>
      <trkpt lat="44.43715" lon="-0.45033">
        <ele>97.280458</ele>
        <time>2022-12-27T16:11:08.735Z</time>
      </trkpt>
      <trkpt lat="44.43721" lon="-0.45019">
        <ele>97.413604</ele>
        <time>2022-12-27T16:11:10.745Z</time>
      </trkpt>
      <trkpt lat="44.43726" lon="-0.45006">
        <ele>97.539861</ele>
        <time>2022-12-27T16:11:12.744Z</time>
      </trkpt>
      <trkpt lat="44.43731" lon="-0.44993">
        <ele>97.659191</ele>
        <time>2022-12-27T16:11:14.732Z</time>
      </trkpt>
      <trkpt lat="44.43736" lon="-0.44982">
        <ele>97.773801</ele>
        <time>2022-12-27T16:11:16.741Z</time>
      </trkpt>
      <trkpt lat="44.43741" lon="-0.4497">
        <ele>97.891073</ele>
        <time>2022-12-27T16:11:18.758Z</time>
      </trkpt>
      <trkpt lat="44.43746" lon="-0.44958">
        <ele>98.008149</ele>
        <time>2022-12-27T16:11:20.745Z</time>
      </trkpt>
      <trkpt lat="44.43751" lon="-0.44946">
        <ele>98.124723</ele>
        <time>2022-12-27T16:11:22.756Z</time>
      </trkpt>
      <trkpt lat="44.43755" lon="-0.44933">
        <ele>98.245393</ele>
        <time>2022-12-27T16:11:24.744Z</time>
      </trkpt>
      <trkpt lat="44.4376" lon="-0.4492">
        <ele>98.369054</ele>
        <time>2022-12-27T16:11:26.750Z</time>
      </trkpt>
      <trkpt lat="44.43765" lon="-0.44907">
        <ele>98.490111</ele>
        <time>2022-12-27T16:11:28.749Z</time>
      </trkpt>
      <trkpt lat="44.4377" lon="-0.44893">
        <ele>98.622377</ele>
        <time>2022-12-27T16:11:30.759Z</time>
      </trkpt>
      <trkpt lat="44.43775" lon="-0.4488">
        <ele>98.754678</ele>
        <time>2022-12-27T16:11:32.749Z</time>
      </trkpt>
      <trkpt lat="44.4378" lon="-0.44868">
        <ele>98.872</ele>
        <time>2022-12-27T16:11:34.746Z</time>
      </trkpt>
      <trkpt lat="44.43785" lon="-0.44854">
        <ele>99.061354</ele>
        <time>2022-12-27T16:11:36.749Z</time>
      </trkpt>
      <trkpt lat="44.4379" lon="-0.44841">
        <ele>99.495838</ele>
        <time>2022-12-27T16:11:38.751Z</time>
      </trkpt>
      <trkpt lat="44.43796" lon="-0.44828">
        <ele>99.945698</ele>
        <time>2022-12-27T16:11:40.744Z</time>
      </trkpt>
      <trkpt lat="44.438" lon="-0.44815">
        <ele>100.358072</ele>
        <time>2022-12-27T16:11:42.752Z</time>
      </trkpt>
      <trkpt lat="44.43805" lon="-0.44802">
        <ele>100.7848</ele>
        <time>2022-12-27T16:11:44.739Z</time>
      </trkpt>
      <trkpt lat="44.43809" lon="-0.4479">
        <ele>101.196198</ele>
        <time>2022-12-27T16:11:46.745Z</time>
      </trkpt>
      <trkpt lat="44.43813" lon="-0.44777">
        <ele>101.596487</ele>
        <time>2022-12-27T16:11:48.747Z</time>
      </trkpt>
      <trkpt lat="44.43818" lon="-0.44765">
        <ele>101.98093</ele>
        <time>2022-12-27T16:11:50.750Z</time>
      </trkpt>
      <trkpt lat="44.43822" lon="-0.44754">
        <ele>102.352973</ele>
        <time>2022-12-27T16:11:52.739Z</time>
      </trkpt>
      <trkpt lat="44.4383" lon="-0.44738">
        <ele>102.928636</ele>
        <time>2022-12-27T16:11:55.754Z</time>
      </trkpt>
      <trkpt lat="44.43834" lon="-0.44725">
        <ele>103.334138</ele>
        <time>2022-12-27T16:11:57.757Z</time>
      </trkpt>
      <trkpt lat="44.43839" lon="-0.44714">
        <ele>103.721647</ele>
        <time>2022-12-27T16:11:59.744Z</time>
      </trkpt>
      <trkpt lat="44.43844" lon="-0.447">
        <ele>104.179608</ele>
        <time>2022-12-27T16:12:01.733Z</time>
      </trkpt>
      <trkpt lat="44.43848" lon="-0.44688">
        <ele>104.565482</ele>
        <time>2022-12-27T16:12:03.745Z</time>
      </trkpt>
      <trkpt lat="44.43853" lon="-0.44674">
        <ele>105.008941</ele>
        <time>2022-12-27T16:12:05.748Z</time>
      </trkpt>
      <trkpt lat="44.43857" lon="-0.44662">
        <ele>105.41</ele>
        <time>2022-12-27T16:12:07.752Z</time>
      </trkpt>
      <trkpt lat="44.43863" lon="-0.4465">
        <ele>105.828507</ele>
        <time>2022-12-27T16:12:09.757Z</time>
      </trkpt>
      <trkpt lat="44.43867" lon="-0.44636">
        <ele>106.275552</ele>
        <time>2022-12-27T16:12:11.747Z</time>
      </trkpt>
      <trkpt lat="44.43871" lon="-0.44624">
        <ele>105.951356</ele>
        <time>2022-12-27T16:12:13.745Z</time>
      </trkpt>
      <trkpt lat="44.43877" lon="-0.44611">
        <ele>105.458924</ele>
        <time>2022-12-27T16:12:15.747Z</time>
      </trkpt>
      <trkpt lat="44.43884" lon="-0.44594">
        <ele>104.824888</ele>
        <time>2022-12-27T16:12:17.751Z</time>
      </trkpt>
      <trkpt lat="44.43892" lon="-0.44581">
        <ele>104.250233</ele>
        <time>2022-12-27T16:12:20.747Z</time>
      </trkpt>
      <trkpt lat="44.43898" lon="-0.44561">
        <ele>103.574496</ele>
        <time>2022-12-27T16:12:23.745Z</time>
      </trkpt>
      <trkpt lat="44.43905" lon="-0.44548">
        <ele>103.015773</ele>
        <time>2022-12-27T16:12:25.748Z</time>
      </trkpt>
      <trkpt lat="44.43913" lon="-0.44537">
        <ele>102.516594</ele>
        <time>2022-12-27T16:12:27.755Z</time>
      </trkpt>
      <trkpt lat="44.43917" lon="-0.44523">
        <ele>102.032904</ele>
        <time>2022-12-27T16:12:29.729Z</time>
      </trkpt>
      <trkpt lat="44.43922" lon="-0.44511">
        <ele>101.562647</ele>
        <time>2022-12-27T16:12:31.727Z</time>
      </trkpt>
      <trkpt lat="44.43927" lon="-0.44498">
        <ele>101.094577</ele>
        <time>2022-12-27T16:12:33.733Z</time>
      </trkpt>
      <trkpt lat="44.43932" lon="-0.4448">
        <ele>100.465197</ele>
        <time>2022-12-27T16:12:35.747Z</time>
      </trkpt>
      <trkpt lat="44.43936" lon="-0.44466">
        <ele>99.960498</ele>
        <time>2022-12-27T16:12:37.747Z</time>
      </trkpt>
      <trkpt lat="44.43941" lon="-0.44453">
        <ele>99.467384</ele>
        <time>2022-12-27T16:12:39.752Z</time>
      </trkpt>
      <trkpt lat="44.43948" lon="-0.44438">
        <ele>98.906897</ele>
        <time>2022-12-27T16:12:41.741Z</time>
      </trkpt>
      <trkpt lat="44.43953" lon="-0.44424">
        <ele>98.402986</ele>
        <time>2022-12-27T16:12:43.747Z</time>
      </trkpt>
      <trkpt lat="44.43958" lon="-0.44411">
        <ele>98.053289</ele>
        <time>2022-12-27T16:12:45.747Z</time>
      </trkpt>
      <trkpt lat="44.43963" lon="-0.44397">
        <ele>97.926858</ele>
        <time>2022-12-27T16:12:47.762Z</time>
      </trkpt>
      <trkpt lat="44.43968" lon="-0.44383">
        <ele>97.7993</ele>
        <time>2022-12-27T16:12:49.748Z</time>
      </trkpt>
      <trkpt lat="44.43974" lon="-0.4437">
        <ele>97.675581</ele>
        <time>2022-12-27T16:12:51.744Z</time>
      </trkpt>
      <trkpt lat="44.43979" lon="-0.44356">
        <ele>97.548024</ele>
        <time>2022-12-27T16:12:53.743Z</time>
      </trkpt>
      <trkpt lat="44.43985" lon="-0.44342">
        <ele>97.414717</ele>
        <time>2022-12-27T16:12:55.744Z</time>
      </trkpt>
      <trkpt lat="44.4399" lon="-0.44328">
        <ele>97.287567</ele>
        <time>2022-12-27T16:12:57.757Z</time>
      </trkpt>
      <trkpt lat="44.43996" lon="-0.44315">
        <ele>97.16245</ele>
        <time>2022-12-27T16:12:59.732Z</time>
      </trkpt>
      <trkpt lat="44.44001" lon="-0.44301">
        <ele>97.037775</ele>
        <time>2022-12-27T16:13:01.761Z</time>
      </trkpt>
      <trkpt lat="44.44005" lon="-0.44289">
        <ele>96.925155</ele>
        <time>2022-12-27T16:13:03.758Z</time>
      </trkpt>
      <trkpt lat="44.44011" lon="-0.44276">
        <ele>96.803304</ele>
        <time>2022-12-27T16:13:05.745Z</time>
      </trkpt>
      <trkpt lat="44.44016" lon="-0.44263">
        <ele>96.679899</ele>
        <time>2022-12-27T16:13:07.740Z</time>
      </trkpt>
      <trkpt lat="44.44021" lon="-0.44249">
        <ele>96.557221</ele>
        <time>2022-12-27T16:13:09.746Z</time>
      </trkpt>
      <trkpt lat="44.44026" lon="-0.44235">
        <ele>96.425581</ele>
        <time>2022-12-27T16:13:11.775Z</time>
      </trkpt>
      <trkpt lat="44.44032" lon="-0.44222">
        <ele>96.298777</ele>
        <time>2022-12-27T16:13:13.750Z</time>
      </trkpt>
      <trkpt lat="44.44037" lon="-0.44208">
        <ele>96.169281</ele>
        <time>2022-12-27T16:13:15.748Z</time>
      </trkpt>
      <trkpt lat="44.44043" lon="-0.44193">
        <ele>96.058295</ele>
        <time>2022-12-27T16:13:17.756Z</time>
      </trkpt>
      <trkpt lat="44.44048" lon="-0.44179">
        <ele>96.09368</ele>
        <time>2022-12-27T16:13:19.752Z</time>
      </trkpt>
      <trkpt lat="44.44053" lon="-0.44165">
        <ele>96.129888</ele>
        <time>2022-12-27T16:13:21.742Z</time>
      </trkpt>
      <trkpt lat="44.44059" lon="-0.4415">
        <ele>96.167052</ele>
        <time>2022-12-27T16:13:23.757Z</time>
      </trkpt>
      <trkpt lat="44.44064" lon="-0.44136">
        <ele>96.203328</ele>
        <time>2022-12-27T16:13:25.729Z</time>
      </trkpt>
      <trkpt lat="44.44075" lon="-0.44106">
        <ele>96.279467</ele>
        <time>2022-12-27T16:13:27.432Z</time>
      </trkpt>
      <trkpt lat="44.44081" lon="-0.44091">
        <ele>96.316133</ele>
        <time>2022-12-27T16:13:29.436Z</time>
      </trkpt>
      <trkpt lat="44.44086" lon="-0.44077">
        <ele>96.351537</ele>
        <time>2022-12-27T16:13:31.434Z</time>
      </trkpt>
      <trkpt lat="44.44091" lon="-0.44063">
        <ele>96.385799</ele>
        <time>2022-12-27T16:13:33.433Z</time>
      </trkpt>
      <trkpt lat="44.44096" lon="-0.44052">
        <ele>96.416643</ele>
        <time>2022-12-27T16:13:35.434Z</time>
      </trkpt>
      <trkpt lat="44.44101" lon="-0.44039">
        <ele>96.448138</ele>
        <time>2022-12-27T16:13:37.444Z</time>
      </trkpt>
      <trkpt lat="44.44106" lon="-0.44027">
        <ele>96.478855</ele>
        <time>2022-12-27T16:13:39.440Z</time>
      </trkpt>
      <trkpt lat="44.44111" lon="-0.44015">
        <ele>96.510082</ele>
        <time>2022-12-27T16:13:41.434Z</time>
      </trkpt>
      <trkpt lat="44.44116" lon="-0.44003">
        <ele>96.54212</ele>
        <time>2022-12-27T16:13:43.432Z</time>
      </trkpt>
      <trkpt lat="44.4412" lon="-0.4399">
        <ele>96.574638</ele>
        <time>2022-12-27T16:13:45.439Z</time>
      </trkpt>
      <trkpt lat="44.44126" lon="-0.43977">
        <ele>96.607992</ele>
        <time>2022-12-27T16:13:47.428Z</time>
      </trkpt>
      <trkpt lat="44.4413" lon="-0.43964">
        <ele>96.622837</ele>
        <time>2022-12-27T16:13:49.427Z</time>
      </trkpt>
      <trkpt lat="44.44135" lon="-0.4395">
        <ele>96.631812</ele>
        <time>2022-12-27T16:13:51.433Z</time>
      </trkpt>
      <trkpt lat="44.44141" lon="-0.43936">
        <ele>96.641054</ele>
        <time>2022-12-27T16:13:53.439Z</time>
      </trkpt>
      <trkpt lat="44.44147" lon="-0.43921">
        <ele>96.650885</ele>
        <time>2022-12-27T16:13:55.438Z</time>
      </trkpt>
      <trkpt lat="44.44152" lon="-0.43909">
        <ele>96.659345</ele>
        <time>2022-12-27T16:13:57.445Z</time>
      </trkpt>
      <trkpt lat="44.44159" lon="-0.43894">
        <ele>96.66978</ele>
        <time>2022-12-27T16:13:59.433Z</time>
      </trkpt>
      <trkpt lat="44.44163" lon="-0.4388">
        <ele>96.678423</ele>
        <time>2022-12-27T16:14:01.428Z</time>
      </trkpt>
      <trkpt lat="44.44168" lon="-0.43866">
        <ele>96.687123</ele>
        <time>2022-12-27T16:14:03.444Z</time>
      </trkpt>
      <trkpt lat="44.44174" lon="-0.43852">
        <ele>96.697003</ele>
        <time>2022-12-27T16:14:05.447Z</time>
      </trkpt>
      <trkpt lat="44.4418" lon="-0.43837">
        <ele>96.706615</ele>
        <time>2022-12-27T16:14:07.451Z</time>
      </trkpt>
      <trkpt lat="44.44185" lon="-0.43825">
        <ele>96.715026</ele>
        <time>2022-12-27T16:14:09.443Z</time>
      </trkpt>
      <trkpt lat="44.4419" lon="-0.4381">
        <ele>96.724626</ele>
        <time>2022-12-27T16:14:11.434Z</time>
      </trkpt>
      <trkpt lat="44.44196" lon="-0.43796">
        <ele>96.733872</ele>
        <time>2022-12-27T16:14:13.446Z</time>
      </trkpt>
      <trkpt lat="44.44202" lon="-0.43784">
        <ele>96.742753</ele>
        <time>2022-12-27T16:14:15.456Z</time>
      </trkpt>
      <trkpt lat="44.44207" lon="-0.4377">
        <ele>96.751656</ele>
        <time>2022-12-27T16:14:17.444Z</time>
      </trkpt>
      <trkpt lat="44.44212" lon="-0.43756">
        <ele>96.760552</ele>
        <time>2022-12-27T16:14:19.448Z</time>
      </trkpt>
      <trkpt lat="44.44217" lon="-0.43743">
        <ele>96.699179</ele>
        <time>2022-12-27T16:14:21.457Z</time>
      </trkpt>
      <trkpt lat="44.44223" lon="-0.4373">
        <ele>96.614889</ele>
        <time>2022-12-27T16:14:23.443Z</time>
      </trkpt>
      <trkpt lat="44.44228" lon="-0.43717">
        <ele>96.528284</ele>
        <time>2022-12-27T16:14:25.453Z</time>
      </trkpt>
      <trkpt lat="44.44234" lon="-0.43704">
        <ele>96.439185</ele>
        <time>2022-12-27T16:14:27.447Z</time>
      </trkpt>
      <trkpt lat="44.44239" lon="-0.43689">
        <ele>96.343811</ele>
        <time>2022-12-27T16:14:29.429Z</time>
      </trkpt>
      <trkpt lat="44.44244" lon="-0.43674">
        <ele>96.250199</ele>
        <time>2022-12-27T16:14:31.444Z</time>
      </trkpt>
      <trkpt lat="44.4425" lon="-0.43659">
        <ele>96.155483</ele>
        <time>2022-12-27T16:14:33.451Z</time>
      </trkpt>
      <trkpt lat="44.44257" lon="-0.43643">
        <ele>96.051973</ele>
        <time>2022-12-27T16:14:35.445Z</time>
      </trkpt>
      <trkpt lat="44.44262" lon="-0.43628">
        <ele>95.954419</ele>
        <time>2022-12-27T16:14:37.445Z</time>
      </trkpt>
      <trkpt lat="44.44268" lon="-0.43613">
        <ele>95.856046</ele>
        <time>2022-12-27T16:14:39.451Z</time>
      </trkpt>
      <trkpt lat="44.44274" lon="-0.43597">
        <ele>95.751156</ele>
        <time>2022-12-27T16:14:41.449Z</time>
      </trkpt>
      <trkpt lat="44.4428" lon="-0.43581">
        <ele>95.651517</ele>
        <time>2022-12-27T16:14:43.460Z</time>
      </trkpt>
      <trkpt lat="44.44287" lon="-0.43566">
        <ele>95.551583</ele>
        <time>2022-12-27T16:14:45.427Z</time>
      </trkpt>
      <trkpt lat="44.44293" lon="-0.43551">
        <ele>95.450914</ele>
        <time>2022-12-27T16:14:47.444Z</time>
      </trkpt>
      <trkpt lat="44.44299" lon="-0.43534">
        <ele>95.343385</ele>
        <time>2022-12-27T16:14:49.444Z</time>
      </trkpt>
      <trkpt lat="44.44306" lon="-0.43519">
        <ele>95.191585</ele>
        <time>2022-12-27T16:14:51.443Z</time>
      </trkpt>
      <trkpt lat="44.44312" lon="-0.43502">
        <ele>95.025437</ele>
        <time>2022-12-27T16:14:53.449Z</time>
      </trkpt>
      <trkpt lat="44.44318" lon="-0.43487">
        <ele>94.874195</ele>
        <time>2022-12-27T16:14:55.452Z</time>
      </trkpt>
      <trkpt lat="44.44324" lon="-0.4347">
        <ele>94.710957</ele>
        <time>2022-12-27T16:14:57.444Z</time>
      </trkpt>
      <trkpt lat="44.4433" lon="-0.43454">
        <ele>94.552363</ele>
        <time>2022-12-27T16:14:59.431Z</time>
      </trkpt>
      <trkpt lat="44.44337" lon="-0.43438">
        <ele>94.39043</ele>
        <time>2022-12-27T16:15:01.454Z</time>
      </trkpt>
      <trkpt lat="44.44343" lon="-0.43423">
        <ele>94.231239</ele>
        <time>2022-12-27T16:15:03.454Z</time>
      </trkpt>
      <trkpt lat="44.44349" lon="-0.43407">
        <ele>94.072609</ele>
        <time>2022-12-27T16:15:05.451Z</time>
      </trkpt>
      <trkpt lat="44.44355" lon="-0.43391">
        <ele>93.913724</ele>
        <time>2022-12-27T16:15:07.453Z</time>
      </trkpt>
      <trkpt lat="44.44361" lon="-0.43376">
        <ele>93.770432</ele>
        <time>2022-12-27T16:15:09.450Z</time>
      </trkpt>
      <trkpt lat="44.44367" lon="-0.43361">
        <ele>93.614562</ele>
        <time>2022-12-27T16:15:11.445Z</time>
      </trkpt>
      <trkpt lat="44.44372" lon="-0.43345">
        <ele>93.459065</ele>
        <time>2022-12-27T16:15:13.458Z</time>
      </trkpt>
      <trkpt lat="44.44378" lon="-0.43331">
        <ele>93.310263</ele>
        <time>2022-12-27T16:15:15.452Z</time>
      </trkpt>
      <trkpt lat="44.44384" lon="-0.43315">
        <ele>93.157105</ele>
        <time>2022-12-27T16:15:17.451Z</time>
      </trkpt>
      <trkpt lat="44.4439" lon="-0.433">
        <ele>93.069115</ele>
        <time>2022-12-27T16:15:19.430Z</time>
      </trkpt>
      <trkpt lat="44.44397" lon="-0.43284">
        <ele>93.003676</ele>
        <time>2022-12-27T16:15:21.454Z</time>
      </trkpt>
      <trkpt lat="44.44403" lon="-0.43269">
        <ele>92.938618</ele>
        <time>2022-12-27T16:15:23.456Z</time>
      </trkpt>
      <trkpt lat="44.44409" lon="-0.43253">
        <ele>92.87462</ele>
        <time>2022-12-27T16:15:25.445Z</time>
      </trkpt>
      <trkpt lat="44.44415" lon="-0.43237">
        <ele>92.810286</ele>
        <time>2022-12-27T16:15:27.430Z</time>
      </trkpt>
      <trkpt lat="44.4442" lon="-0.43222">
        <ele>92.749399</ele>
        <time>2022-12-27T16:15:29.464Z</time>
      </trkpt>
      <trkpt lat="44.44426" lon="-0.43207">
        <ele>92.687227</ele>
        <time>2022-12-27T16:15:31.456Z</time>
      </trkpt>
      <trkpt lat="44.44432" lon="-0.43192">
        <ele>92.62474</ele>
        <time>2022-12-27T16:15:33.458Z</time>
      </trkpt>
      <trkpt lat="44.44438" lon="-0.43177">
        <ele>92.56169</ele>
        <time>2022-12-27T16:15:35.449Z</time>
      </trkpt>
      <trkpt lat="44.44445" lon="-0.43162">
        <ele>92.49845</ele>
        <time>2022-12-27T16:15:37.438Z</time>
      </trkpt>
      <trkpt lat="44.44451" lon="-0.43147">
        <ele>92.435647</ele>
        <time>2022-12-27T16:15:39.446Z</time>
      </trkpt>
      <trkpt lat="44.44457" lon="-0.43131">
        <ele>92.373327</ele>
        <time>2022-12-27T16:15:41.452Z</time>
      </trkpt>
      <trkpt lat="44.44462" lon="-0.43116">
        <ele>92.309408</ele>
        <time>2022-12-27T16:15:43.431Z</time>
      </trkpt>
      <trkpt lat="44.44468" lon="-0.431">
        <ele>92.246685</ele>
        <time>2022-12-27T16:15:45.446Z</time>
      </trkpt>
      <trkpt lat="44.44474" lon="-0.43086">
        <ele>92.205457</ele>
        <time>2022-12-27T16:15:47.448Z</time>
      </trkpt>
      <trkpt lat="44.4448" lon="-0.43071">
        <ele>92.212412</ele>
        <time>2022-12-27T16:15:49.460Z</time>
      </trkpt>
      <trkpt lat="44.44485" lon="-0.43058">
        <ele>92.21903</ele>
        <time>2022-12-27T16:15:51.438Z</time>
      </trkpt>
      <trkpt lat="44.4449" lon="-0.43044">
        <ele>92.225359</ele>
        <time>2022-12-27T16:15:53.437Z</time>
      </trkpt>
      <trkpt lat="44.44495" lon="-0.43033">
        <ele>92.231132</ele>
        <time>2022-12-27T16:15:55.441Z</time>
      </trkpt>
      <trkpt lat="44.44501" lon="-0.4302">
        <ele>92.237151</ele>
        <time>2022-12-27T16:15:57.431Z</time>
      </trkpt>
      <trkpt lat="44.44506" lon="-0.43007">
        <ele>92.24361</ele>
        <time>2022-12-27T16:15:59.439Z</time>
      </trkpt>
      <trkpt lat="44.44511" lon="-0.42993">
        <ele>92.250245</ele>
        <time>2022-12-27T16:16:01.458Z</time>
      </trkpt>
      <trkpt lat="44.44516" lon="-0.42979">
        <ele>92.256741</ele>
        <time>2022-12-27T16:16:03.434Z</time>
      </trkpt>
      <trkpt lat="44.44521" lon="-0.42965">
        <ele>92.263395</ele>
        <time>2022-12-27T16:16:05.447Z</time>
      </trkpt>
      <trkpt lat="44.44527" lon="-0.42951">
        <ele>92.270124</ele>
        <time>2022-12-27T16:16:07.458Z</time>
      </trkpt>
      <trkpt lat="44.44532" lon="-0.42936">
        <ele>92.277037</ele>
        <time>2022-12-27T16:16:09.444Z</time>
      </trkpt>
      <trkpt lat="44.44537" lon="-0.42922">
        <ele>92.284009</ele>
        <time>2022-12-27T16:16:11.448Z</time>
      </trkpt>
      <trkpt lat="44.44543" lon="-0.42907">
        <ele>92.29111</ele>
        <time>2022-12-27T16:16:13.446Z</time>
      </trkpt>
      <trkpt lat="44.44549" lon="-0.42892">
        <ele>92.298061</ele>
        <time>2022-12-27T16:16:15.445Z</time>
      </trkpt>
      <trkpt lat="44.44554" lon="-0.42878">
        <ele>92.304789</ele>
        <time>2022-12-27T16:16:17.438Z</time>
      </trkpt>
      <trkpt lat="44.4456" lon="-0.42865">
        <ele>92.363702</ele>
        <time>2022-12-27T16:16:19.445Z</time>
      </trkpt>
      <trkpt lat="44.44566" lon="-0.42852">
        <ele>92.578167</ele>
        <time>2022-12-27T16:16:21.438Z</time>
      </trkpt>
      <trkpt lat="44.44571" lon="-0.42838">
        <ele>92.778919</ele>
        <time>2022-12-27T16:16:23.437Z</time>
      </trkpt>
      <trkpt lat="44.44577" lon="-0.42824">
        <ele>93.002257</ele>
        <time>2022-12-27T16:16:25.445Z</time>
      </trkpt>
      <trkpt lat="44.44582" lon="-0.4281">
        <ele>93.210416</ele>
        <time>2022-12-27T16:16:27.447Z</time>
      </trkpt>
      <trkpt lat="44.44588" lon="-0.42795">
        <ele>93.429362</ele>
        <time>2022-12-27T16:16:29.448Z</time>
      </trkpt>
      <trkpt lat="44.44593" lon="-0.42781">
        <ele>93.649471</ele>
        <time>2022-12-27T16:16:31.451Z</time>
      </trkpt>
      <trkpt lat="44.44598" lon="-0.42767">
        <ele>93.852278</ele>
        <time>2022-12-27T16:16:33.447Z</time>
      </trkpt>
      <trkpt lat="44.44606" lon="-0.42753">
        <ele>94.087208</ele>
        <time>2022-12-27T16:16:35.444Z</time>
      </trkpt>
      <trkpt lat="44.44611" lon="-0.42739">
        <ele>94.296126</ele>
        <time>2022-12-27T16:16:37.452Z</time>
      </trkpt>
      <trkpt lat="44.44616" lon="-0.42723">
        <ele>94.533528</ele>
        <time>2022-12-27T16:16:39.460Z</time>
      </trkpt>
      <trkpt lat="44.44621" lon="-0.42709">
        <ele>94.736843</ele>
        <time>2022-12-27T16:16:41.447Z</time>
      </trkpt>
      <trkpt lat="44.44626" lon="-0.42696">
        <ele>94.934362</ele>
        <time>2022-12-27T16:16:43.455Z</time>
      </trkpt>
      <trkpt lat="44.44631" lon="-0.42684">
        <ele>95.12142</ele>
        <time>2022-12-27T16:16:45.447Z</time>
      </trkpt>
      <trkpt lat="44.44636" lon="-0.42672">
        <ele>95.311712</ele>
        <time>2022-12-27T16:16:47.449Z</time>
      </trkpt>
      <trkpt lat="44.44641" lon="-0.42657">
        <ele>95.520274</ele>
        <time>2022-12-27T16:16:49.457Z</time>
      </trkpt>
      <trkpt lat="44.44646" lon="-0.42643">
        <ele>95.663238</ele>
        <time>2022-12-27T16:16:51.457Z</time>
      </trkpt>
      <trkpt lat="44.44651" lon="-0.4263">
        <ele>95.673509</ele>
        <time>2022-12-27T16:16:53.459Z</time>
      </trkpt>
      <trkpt lat="44.44656" lon="-0.42616">
        <ele>95.684466</ele>
        <time>2022-12-27T16:16:55.451Z</time>
      </trkpt>
      <trkpt lat="44.44661" lon="-0.42602">
        <ele>95.694808</ele>
        <time>2022-12-27T16:16:57.448Z</time>
      </trkpt>
      <trkpt lat="44.44667" lon="-0.42591">
        <ele>95.70385</ele>
        <time>2022-12-27T16:16:59.447Z</time>
      </trkpt>
      <trkpt lat="44.44672" lon="-0.4258">
        <ele>95.712885</ele>
        <time>2022-12-27T16:17:01.446Z</time>
      </trkpt>
      <trkpt lat="44.44677" lon="-0.42568">
        <ele>95.7223</ele>
        <time>2022-12-27T16:17:03.459Z</time>
      </trkpt>
      <trkpt lat="44.44682" lon="-0.42553">
        <ele>95.733615</ele>
        <time>2022-12-27T16:17:06.453Z</time>
      </trkpt>
      <trkpt lat="44.44687" lon="-0.42538">
        <ele>95.745038</ele>
        <time>2022-12-27T16:17:09.458Z</time>
      </trkpt>
      <trkpt lat="44.44693" lon="-0.42524">
        <ele>95.756452</ele>
        <time>2022-12-27T16:17:12.457Z</time>
      </trkpt>
      <trkpt lat="44.44698" lon="-0.42512">
        <ele>95.765432</ele>
        <time>2022-12-27T16:17:14.456Z</time>
      </trkpt>
      <trkpt lat="44.44704" lon="-0.425">
        <ele>95.775633</ele>
        <time>2022-12-27T16:17:16.450Z</time>
      </trkpt>
      <trkpt lat="44.44708" lon="-0.42487">
        <ele>95.785271</ele>
        <time>2022-12-27T16:17:18.458Z</time>
      </trkpt>
      <trkpt lat="44.44711" lon="-0.42474">
        <ele>95.794547</ele>
        <time>2022-12-27T16:17:20.440Z</time>
      </trkpt>
      <trkpt lat="44.44717" lon="-0.42463">
        <ele>95.803751</ele>
        <time>2022-12-27T16:17:22.456Z</time>
      </trkpt>
      <trkpt lat="44.44721" lon="-0.4245">
        <ele>95.813477</ele>
        <time>2022-12-27T16:17:24.449Z</time>
      </trkpt>
      <trkpt lat="44.44727" lon="-0.42438">
        <ele>95.82347</ele>
        <time>2022-12-27T16:17:26.452Z</time>
      </trkpt>
      <trkpt lat="44.44732" lon="-0.42425">
        <ele>95.765562</ele>
        <time>2022-12-27T16:17:28.436Z</time>
      </trkpt>
      <trkpt lat="44.44736" lon="-0.42413">
        <ele>95.462891</ele>
        <time>2022-12-27T16:17:30.446Z</time>
      </trkpt>
      <trkpt lat="44.44742" lon="-0.424">
        <ele>95.137279</ele>
        <time>2022-12-27T16:17:32.428Z</time>
      </trkpt>
      <trkpt lat="44.44747" lon="-0.42388">
        <ele>94.843566</ele>
        <time>2022-12-27T16:17:34.449Z</time>
      </trkpt>
      <trkpt lat="44.44752" lon="-0.42376">
        <ele>94.536709</ele>
        <time>2022-12-27T16:17:36.455Z</time>
      </trkpt>
      <trkpt lat="44.44757" lon="-0.42364">
        <ele>94.223728</ele>
        <time>2022-12-27T16:17:38.432Z</time>
      </trkpt>
      <trkpt lat="44.44762" lon="-0.4235">
        <ele>93.892486</ele>
        <time>2022-12-27T16:17:40.445Z</time>
      </trkpt>
      <trkpt lat="44.44767" lon="-0.42337">
        <ele>93.564076</ele>
        <time>2022-12-27T16:17:42.460Z</time>
      </trkpt>
      <trkpt lat="44.44772" lon="-0.42324">
        <ele>93.245802</ele>
        <time>2022-12-27T16:17:44.459Z</time>
      </trkpt>
      <trkpt lat="44.44777" lon="-0.42312">
        <ele>92.927363</ele>
        <time>2022-12-27T16:17:46.443Z</time>
      </trkpt>
      <trkpt lat="44.44782" lon="-0.42298">
        <ele>92.60365</ele>
        <time>2022-12-27T16:17:48.447Z</time>
      </trkpt>
      <trkpt lat="44.44787" lon="-0.42285">
        <ele>92.262286</ele>
        <time>2022-12-27T16:17:50.459Z</time>
      </trkpt>
      <trkpt lat="44.44793" lon="-0.4227">
        <ele>91.894455</ele>
        <time>2022-12-27T16:17:52.449Z</time>
      </trkpt>
      <trkpt lat="44.44799" lon="-0.42255">
        <ele>91.52168</ele>
        <time>2022-12-27T16:17:54.448Z</time>
      </trkpt>
      <trkpt lat="44.44804" lon="-0.42241">
        <ele>91.188992</ele>
        <time>2022-12-27T16:17:56.447Z</time>
      </trkpt>
      <trkpt lat="44.44809" lon="-0.42228">
        <ele>90.85524</ele>
        <time>2022-12-27T16:17:58.448Z</time>
      </trkpt>
      <trkpt lat="44.44815" lon="-0.42213">
        <ele>90.480973</ele>
        <time>2022-12-27T16:18:00.453Z</time>
      </trkpt>
      <trkpt lat="44.44819" lon="-0.42199">
        <ele>90.307303</ele>
        <time>2022-12-27T16:18:02.451Z</time>
      </trkpt>
      <trkpt lat="44.44825" lon="-0.42185">
        <ele>90.254164</ele>
        <time>2022-12-27T16:18:04.457Z</time>
      </trkpt>
      <trkpt lat="44.4483" lon="-0.42171">
        <ele>90.201024</ele>
        <time>2022-12-27T16:18:06.443Z</time>
      </trkpt>
      <trkpt lat="44.44836" lon="-0.42158">
        <ele>90.149747</ele>
        <time>2022-12-27T16:18:08.456Z</time>
      </trkpt>
      <trkpt lat="44.44841" lon="-0.42145">
        <ele>90.100728</ele>
        <time>2022-12-27T16:18:10.457Z</time>
      </trkpt>
      <trkpt lat="44.44846" lon="-0.42133">
        <ele>90.05421</ele>
        <time>2022-12-27T16:18:12.446Z</time>
      </trkpt>
      <trkpt lat="44.4485" lon="-0.42121">
        <ele>90.008135</ele>
        <time>2022-12-27T16:18:14.432Z</time>
      </trkpt>
      <trkpt lat="44.44855" lon="-0.42108">
        <ele>89.961252</ele>
        <time>2022-12-27T16:18:16.446Z</time>
      </trkpt>
      <trkpt lat="44.4486" lon="-0.42095">
        <ele>89.9123</ele>
        <time>2022-12-27T16:18:18.455Z</time>
      </trkpt>
      <trkpt lat="44.44865" lon="-0.42082">
        <ele>89.862913</ele>
        <time>2022-12-27T16:18:20.451Z</time>
      </trkpt>
      <trkpt lat="44.4487" lon="-0.4207">
        <ele>89.81522</ele>
        <time>2022-12-27T16:18:22.455Z</time>
      </trkpt>
      <trkpt lat="44.44875" lon="-0.42056">
        <ele>89.76354</ele>
        <time>2022-12-27T16:18:24.435Z</time>
      </trkpt>
      <trkpt lat="44.44881" lon="-0.42043">
        <ele>89.711533</ele>
        <time>2022-12-27T16:18:26.450Z</time>
      </trkpt>
      <trkpt lat="44.44886" lon="-0.42029">
        <ele>89.658234</ele>
        <time>2022-12-27T16:18:28.450Z</time>
      </trkpt>
      <trkpt lat="44.44892" lon="-0.42015">
        <ele>89.604756</ele>
        <time>2022-12-27T16:18:30.456Z</time>
      </trkpt>
      <trkpt lat="44.44898" lon="-0.42001">
        <ele>89.550753</ele>
        <time>2022-12-27T16:18:32.447Z</time>
      </trkpt>
      <trkpt lat="44.44904" lon="-0.41988">
        <ele>89.498423</ele>
        <time>2022-12-27T16:18:34.456Z</time>
      </trkpt>
      <trkpt lat="44.44909" lon="-0.41974">
        <ele>89.501882</ele>
        <time>2022-12-27T16:18:36.461Z</time>
      </trkpt>
      <trkpt lat="44.44913" lon="-0.4196">
        <ele>89.510527</ele>
        <time>2022-12-27T16:18:38.446Z</time>
      </trkpt>
      <trkpt lat="44.44918" lon="-0.41946">
        <ele>89.518955</ele>
        <time>2022-12-27T16:18:40.453Z</time>
      </trkpt>
      <trkpt lat="44.44924" lon="-0.41932">
        <ele>89.528543</ele>
        <time>2022-12-27T16:18:42.448Z</time>
      </trkpt>
      <trkpt lat="44.44929" lon="-0.41918">
        <ele>89.537325</ele>
        <time>2022-12-27T16:18:44.446Z</time>
      </trkpt>
      <trkpt lat="44.44935" lon="-0.41904">
        <ele>89.546438</ele>
        <time>2022-12-27T16:18:46.449Z</time>
      </trkpt>
      <trkpt lat="44.44939" lon="-0.41889">
        <ele>89.555526</ele>
        <time>2022-12-27T16:18:48.439Z</time>
      </trkpt>
      <trkpt lat="44.44945" lon="-0.41875">
        <ele>89.564344</ele>
        <time>2022-12-27T16:18:50.456Z</time>
      </trkpt>
      <trkpt lat="44.4495" lon="-0.41861">
        <ele>89.573041</ele>
        <time>2022-12-27T16:18:52.439Z</time>
      </trkpt>
      <trkpt lat="44.44955" lon="-0.41847">
        <ele>89.581822</ele>
        <time>2022-12-27T16:18:54.456Z</time>
      </trkpt>
      <trkpt lat="44.4496" lon="-0.41834">
        <ele>89.590354</ele>
        <time>2022-12-27T16:18:56.448Z</time>
      </trkpt>
      <trkpt lat="44.44964" lon="-0.41819">
        <ele>89.599153</ele>
        <time>2022-12-27T16:18:58.428Z</time>
      </trkpt>
      <trkpt lat="44.44969" lon="-0.41806">
        <ele>89.607586</ele>
        <time>2022-12-27T16:19:00.445Z</time>
      </trkpt>
      <trkpt lat="44.44974" lon="-0.41792">
        <ele>89.616554</ele>
        <time>2022-12-27T16:19:02.441Z</time>
      </trkpt>
      <trkpt lat="44.44979" lon="-0.41777">
        <ele>89.625744</ele>
        <time>2022-12-27T16:19:04.433Z</time>
      </trkpt>
      <trkpt lat="44.44984" lon="-0.41763">
        <ele>89.634272</ele>
        <time>2022-12-27T16:19:06.455Z</time>
      </trkpt>
      <trkpt lat="44.44987" lon="-0.41749">
        <ele>89.646852</ele>
        <time>2022-12-27T16:19:08.446Z</time>
      </trkpt>
      <trkpt lat="44.44991" lon="-0.41737">
        <ele>89.659417</ele>
        <time>2022-12-27T16:19:10.479Z</time>
      </trkpt>
      <trkpt lat="44.44995" lon="-0.41725">
        <ele>89.67173</ele>
        <time>2022-12-27T16:19:12.454Z</time>
      </trkpt>
      <trkpt lat="44.44999" lon="-0.41713">
        <ele>89.684096</ele>
        <time>2022-12-27T16:19:14.447Z</time>
      </trkpt>
      <trkpt lat="44.45004" lon="-0.41697">
        <ele>89.699642</ele>
        <time>2022-12-27T16:19:17.433Z</time>
      </trkpt>
      <trkpt lat="44.45008" lon="-0.41686">
        <ele>89.711343</ele>
        <time>2022-12-27T16:19:19.435Z</time>
      </trkpt>
      <trkpt lat="44.45013" lon="-0.41668">
        <ele>89.728915</ele>
        <time>2022-12-27T16:19:22.447Z</time>
      </trkpt>
      <trkpt lat="44.45016" lon="-0.41655">
        <ele>89.741344</ele>
        <time>2022-12-27T16:19:24.451Z</time>
      </trkpt>
      <trkpt lat="44.4502" lon="-0.41643">
        <ele>89.753674</ele>
        <time>2022-12-27T16:19:26.448Z</time>
      </trkpt>
      <trkpt lat="44.45024" lon="-0.41629">
        <ele>89.76726</ele>
        <time>2022-12-27T16:19:28.448Z</time>
      </trkpt>
      <trkpt lat="44.45028" lon="-0.41616">
        <ele>89.780408</ele>
        <time>2022-12-27T16:19:30.448Z</time>
      </trkpt>
      <trkpt lat="44.45031" lon="-0.41603">
        <ele>89.792904</ele>
        <time>2022-12-27T16:19:32.445Z</time>
      </trkpt>
      <trkpt lat="44.45034" lon="-0.41589">
        <ele>89.806182</ele>
        <time>2022-12-27T16:19:34.433Z</time>
      </trkpt>
      <trkpt lat="44.45037" lon="-0.41575">
        <ele>89.819849</ele>
        <time>2022-12-27T16:19:36.446Z</time>
      </trkpt>
      <trkpt lat="44.45041" lon="-0.41561">
        <ele>89.833568</ele>
        <time>2022-12-27T16:19:38.450Z</time>
      </trkpt>
      <trkpt lat="44.45044" lon="-0.41547">
        <ele>89.847626</ele>
        <time>2022-12-27T16:19:40.448Z</time>
      </trkpt>
      <trkpt lat="44.45047" lon="-0.41533">
        <ele>89.860913</ele>
        <time>2022-12-27T16:19:42.460Z</time>
      </trkpt>
      <trkpt lat="44.45051" lon="-0.41518">
        <ele>89.857586</ele>
        <time>2022-12-27T16:19:44.459Z</time>
      </trkpt>
      <trkpt lat="44.45054" lon="-0.41503">
        <ele>89.83972</ele>
        <time>2022-12-27T16:19:46.457Z</time>
      </trkpt>
      <trkpt lat="44.45057" lon="-0.41488">
        <ele>89.822566</ele>
        <time>2022-12-27T16:19:48.453Z</time>
      </trkpt>
      <trkpt lat="44.45059" lon="-0.41473">
        <ele>89.805075</ele>
        <time>2022-12-27T16:19:50.446Z</time>
      </trkpt>
      <trkpt lat="44.45062" lon="-0.41459">
        <ele>89.787783</ele>
        <time>2022-12-27T16:19:52.459Z</time>
      </trkpt>
      <trkpt lat="44.45066" lon="-0.41444">
        <ele>89.77041</ele>
        <time>2022-12-27T16:19:54.451Z</time>
      </trkpt>
      <trkpt lat="44.45068" lon="-0.4143">
        <ele>89.753786</ele>
        <time>2022-12-27T16:19:56.456Z</time>
      </trkpt>
      <trkpt lat="44.45071" lon="-0.41415">
        <ele>89.736473</ele>
        <time>2022-12-27T16:19:58.452Z</time>
      </trkpt>
      <trkpt lat="44.45073" lon="-0.41401">
        <ele>89.719788</ele>
        <time>2022-12-27T16:20:00.446Z</time>
      </trkpt>
      <trkpt lat="44.45076" lon="-0.41385">
        <ele>89.701448</ele>
        <time>2022-12-27T16:20:02.460Z</time>
      </trkpt>
      <trkpt lat="44.4508" lon="-0.41371">
        <ele>89.684104</ele>
        <time>2022-12-27T16:20:04.451Z</time>
      </trkpt>
      <trkpt lat="44.45083" lon="-0.41357">
        <ele>89.666812</ele>
        <time>2022-12-27T16:20:06.448Z</time>
      </trkpt>
      <trkpt lat="44.45087" lon="-0.41342">
        <ele>89.649278</ele>
        <time>2022-12-27T16:20:08.448Z</time>
      </trkpt>
      <trkpt lat="44.45092" lon="-0.41327">
        <ele>89.630953</ele>
        <time>2022-12-27T16:20:10.458Z</time>
      </trkpt>
      <trkpt lat="44.45094" lon="-0.41313">
        <ele>89.614609</ele>
        <time>2022-12-27T16:20:12.453Z</time>
      </trkpt>
      <trkpt lat="44.45098" lon="-0.41299">
        <ele>89.597068</ele>
        <time>2022-12-27T16:20:14.457Z</time>
      </trkpt>
      <trkpt lat="44.45102" lon="-0.41284">
        <ele>89.570435</ele>
        <time>2022-12-27T16:20:16.456Z</time>
      </trkpt>
      <trkpt lat="44.45104" lon="-0.41269">
        <ele>89.464568</ele>
        <time>2022-12-27T16:20:18.435Z</time>
      </trkpt>
      <trkpt lat="44.45107" lon="-0.41255">
        <ele>89.362834</ele>
        <time>2022-12-27T16:20:20.434Z</time>
      </trkpt>
      <trkpt lat="44.4511" lon="-0.41239">
        <ele>89.248766</ele>
        <time>2022-12-27T16:20:22.447Z</time>
      </trkpt>
      <trkpt lat="44.45112" lon="-0.41224">
        <ele>89.14757</ele>
        <time>2022-12-27T16:20:24.457Z</time>
      </trkpt>
      <trkpt lat="44.45116" lon="-0.41211">
        <ele>89.047022</ele>
        <time>2022-12-27T16:20:26.454Z</time>
      </trkpt>
      <trkpt lat="44.45118" lon="-0.41196">
        <ele>88.947824</ele>
        <time>2022-12-27T16:20:28.450Z</time>
      </trkpt>
      <trkpt lat="44.45121" lon="-0.41182">
        <ele>88.846928</ele>
        <time>2022-12-27T16:20:30.457Z</time>
      </trkpt>
      <trkpt lat="44.45125" lon="-0.41168">
        <ele>88.745078</ele>
        <time>2022-12-27T16:20:32.434Z</time>
      </trkpt>
      <trkpt lat="44.45128" lon="-0.41154">
        <ele>88.64542</ele>
        <time>2022-12-27T16:20:34.441Z</time>
      </trkpt>
      <trkpt lat="44.45131" lon="-0.4114">
        <ele>88.54118</ele>
        <time>2022-12-27T16:20:36.459Z</time>
      </trkpt>
      <trkpt lat="44.45134" lon="-0.41125">
        <ele>88.437723</ele>
        <time>2022-12-27T16:20:38.445Z</time>
      </trkpt>
      <trkpt lat="44.45136" lon="-0.41111">
        <ele>88.338743</ele>
        <time>2022-12-27T16:20:40.457Z</time>
      </trkpt>
      <trkpt lat="44.45139" lon="-0.41097">
        <ele>88.238586</ele>
        <time>2022-12-27T16:20:42.439Z</time>
      </trkpt>
      <trkpt lat="44.45141" lon="-0.41084">
        <ele>88.143142</ele>
        <time>2022-12-27T16:20:44.445Z</time>
      </trkpt>
      <trkpt lat="44.45144" lon="-0.41071">
        <ele>88.050216</ele>
        <time>2022-12-27T16:20:46.453Z</time>
      </trkpt>
      <trkpt lat="44.45148" lon="-0.41053">
        <ele>87.928478</ele>
        <time>2022-12-27T16:20:49.447Z</time>
      </trkpt>
      <trkpt lat="44.45152" lon="-0.41037">
        <ele>87.800955</ele>
        <time>2022-12-27T16:20:52.458Z</time>
      </trkpt>
      <trkpt lat="44.45156" lon="-0.41019">
        <ele>87.634296</ele>
        <time>2022-12-27T16:20:55.446Z</time>
      </trkpt>
      <trkpt lat="44.45159" lon="-0.41007">
        <ele>87.520758</ele>
        <time>2022-12-27T16:20:57.433Z</time>
      </trkpt>
      <trkpt lat="44.45162" lon="-0.40994">
        <ele>87.403716</ele>
        <time>2022-12-27T16:20:59.448Z</time>
      </trkpt>
      <trkpt lat="44.45165" lon="-0.40981">
        <ele>87.287785</ele>
        <time>2022-12-27T16:21:01.442Z</time>
      </trkpt>
      <trkpt lat="44.45169" lon="-0.40968">
        <ele>87.168187</ele>
        <time>2022-12-27T16:21:03.431Z</time>
      </trkpt>
      <trkpt lat="44.45171" lon="-0.40954">
        <ele>87.046162</ele>
        <time>2022-12-27T16:21:05.428Z</time>
      </trkpt>
      <trkpt lat="44.45174" lon="-0.40941">
        <ele>86.923157</ele>
        <time>2022-12-27T16:21:07.457Z</time>
      </trkpt>
      <trkpt lat="44.45178" lon="-0.40927">
        <ele>86.799511</ele>
        <time>2022-12-27T16:21:09.448Z</time>
      </trkpt>
      <trkpt lat="44.45181" lon="-0.40914">
        <ele>86.682768</ele>
        <time>2022-12-27T16:21:11.448Z</time>
      </trkpt>
      <trkpt lat="44.45184" lon="-0.40901">
        <ele>86.561413</ele>
        <time>2022-12-27T16:21:13.457Z</time>
      </trkpt>
      <trkpt lat="44.45186" lon="-0.40886">
        <ele>86.435224</ele>
        <time>2022-12-27T16:21:15.458Z</time>
      </trkpt>
      <trkpt lat="44.45189" lon="-0.40873">
        <ele>86.310901</ele>
        <time>2022-12-27T16:21:17.439Z</time>
      </trkpt>
      <trkpt lat="44.45192" lon="-0.40859">
        <ele>86.186001</ele>
        <time>2022-12-27T16:21:19.435Z</time>
      </trkpt>
      <trkpt lat="44.45195" lon="-0.40845">
        <ele>86.062831</ele>
        <time>2022-12-27T16:21:21.448Z</time>
      </trkpt>
      <trkpt lat="44.45198" lon="-0.4083">
        <ele>85.932539</ele>
        <time>2022-12-27T16:21:23.456Z</time>
      </trkpt>
      <trkpt lat="44.45201" lon="-0.40816">
        <ele>85.805403</ele>
        <time>2022-12-27T16:21:25.447Z</time>
      </trkpt>
      <trkpt lat="44.45204" lon="-0.40802">
        <ele>85.687785</ele>
        <time>2022-12-27T16:21:27.450Z</time>
      </trkpt>
      <trkpt lat="44.45207" lon="-0.40786">
        <ele>85.683622</ele>
        <time>2022-12-27T16:21:29.448Z</time>
      </trkpt>
      <trkpt lat="44.4521" lon="-0.40772">
        <ele>85.679566</ele>
        <time>2022-12-27T16:21:31.458Z</time>
      </trkpt>
      <trkpt lat="44.45213" lon="-0.40757">
        <ele>85.675545</ele>
        <time>2022-12-27T16:21:33.430Z</time>
      </trkpt>
      <trkpt lat="44.45216" lon="-0.40742">
        <ele>85.671528</ele>
        <time>2022-12-27T16:21:35.438Z</time>
      </trkpt>
      <trkpt lat="44.4522" lon="-0.40727">
        <ele>85.667467</ele>
        <time>2022-12-27T16:21:37.457Z</time>
      </trkpt>
      <trkpt lat="44.45223" lon="-0.40712">
        <ele>85.663353</ele>
        <time>2022-12-27T16:21:39.446Z</time>
      </trkpt>
      <trkpt lat="44.45227" lon="-0.40697">
        <ele>85.659096</ele>
        <time>2022-12-27T16:21:41.444Z</time>
      </trkpt>
      <trkpt lat="44.45229" lon="-0.40681">
        <ele>85.654816</ele>
        <time>2022-12-27T16:21:43.444Z</time>
      </trkpt>
      <trkpt lat="44.45232" lon="-0.40666">
        <ele>85.650784</ele>
        <time>2022-12-27T16:21:45.453Z</time>
      </trkpt>
      <trkpt lat="44.45236" lon="-0.40651">
        <ele>85.646582</ele>
        <time>2022-12-27T16:21:47.455Z</time>
      </trkpt>
      <trkpt lat="44.45239" lon="-0.40636">
        <ele>85.642566</ele>
        <time>2022-12-27T16:21:49.456Z</time>
      </trkpt>
      <trkpt lat="44.45242" lon="-0.40621">
        <ele>85.638499</ele>
        <time>2022-12-27T16:21:51.461Z</time>
      </trkpt>
      <trkpt lat="44.45245" lon="-0.40607">
        <ele>85.634724</ele>
        <time>2022-12-27T16:21:53.453Z</time>
      </trkpt>
      <trkpt lat="44.45248" lon="-0.40593">
        <ele>85.630884</ele>
        <time>2022-12-27T16:21:55.455Z</time>
      </trkpt>
      <trkpt lat="44.45252" lon="-0.4058">
        <ele>85.627154</ele>
        <time>2022-12-27T16:21:57.446Z</time>
      </trkpt>
      <trkpt lat="44.45254" lon="-0.40567">
        <ele>85.62367</ele>
        <time>2022-12-27T16:21:59.460Z</time>
      </trkpt>
      <trkpt lat="44.45257" lon="-0.40554">
        <ele>85.604599</ele>
        <time>2022-12-27T16:22:01.460Z</time>
      </trkpt>
      <trkpt lat="44.4526" lon="-0.40537">
        <ele>85.56569</ele>
        <time>2022-12-27T16:22:04.437Z</time>
      </trkpt>
      <trkpt lat="44.45263" lon="-0.40521">
        <ele>85.529401</ele>
        <time>2022-12-27T16:22:07.457Z</time>
      </trkpt>
      <trkpt lat="44.45266" lon="-0.40505">
        <ele>85.493462</ele>
        <time>2022-12-27T16:22:10.455Z</time>
      </trkpt>
      <trkpt lat="44.45269" lon="-0.40488">
        <ele>85.455025</ele>
        <time>2022-12-27T16:22:13.460Z</time>
      </trkpt>
      <trkpt lat="44.45272" lon="-0.40475">
        <ele>85.426343</ele>
        <time>2022-12-27T16:22:15.444Z</time>
      </trkpt>
      <trkpt lat="44.45274" lon="-0.40463">
        <ele>85.398951</ele>
        <time>2022-12-27T16:22:17.429Z</time>
      </trkpt>
      <trkpt lat="44.45278" lon="-0.4045">
        <ele>85.369109</ele>
        <time>2022-12-27T16:22:19.456Z</time>
      </trkpt>
      <trkpt lat="44.45281" lon="-0.40437">
        <ele>85.338742</ele>
        <time>2022-12-27T16:22:21.460Z</time>
      </trkpt>
      <trkpt lat="44.45284" lon="-0.40424">
        <ele>85.308901</ele>
        <time>2022-12-27T16:22:23.444Z</time>
      </trkpt>
      <trkpt lat="44.45287" lon="-0.4041">
        <ele>85.277286</ele>
        <time>2022-12-27T16:22:25.445Z</time>
      </trkpt>
      <trkpt lat="44.45289" lon="-0.40398">
        <ele>85.249752</ele>
        <time>2022-12-27T16:22:27.460Z</time>
      </trkpt>
      <trkpt lat="44.45292" lon="-0.40384">
        <ele>85.218179</ele>
        <time>2022-12-27T16:22:29.456Z</time>
      </trkpt>
      <trkpt lat="44.45295" lon="-0.40369">
        <ele>85.186024</ele>
        <time>2022-12-27T16:22:31.457Z</time>
      </trkpt>
      <trkpt lat="44.45298" lon="-0.40356">
        <ele>85.154734</ele>
        <time>2022-12-27T16:22:33.454Z</time>
      </trkpt>
      <trkpt lat="44.45301" lon="-0.40342">
        <ele>85.122523</ele>
        <time>2022-12-27T16:22:35.456Z</time>
      </trkpt>
      <trkpt lat="44.45303" lon="-0.40328">
        <ele>85.09279</ele>
        <time>2022-12-27T16:22:37.458Z</time>
      </trkpt>
      <trkpt lat="44.45306" lon="-0.40315">
        <ele>85.060048</ele>
        <time>2022-12-27T16:22:39.458Z</time>
      </trkpt>
      <trkpt lat="44.45309" lon="-0.40303">
        <ele>85.023988</ele>
        <time>2022-12-27T16:22:41.457Z</time>
      </trkpt>
      <trkpt lat="44.45311" lon="-0.40289">
        <ele>84.985138</ele>
        <time>2022-12-27T16:22:43.454Z</time>
      </trkpt>
      <trkpt lat="44.45314" lon="-0.40276">
        <ele>84.947283</ele>
        <time>2022-12-27T16:22:45.436Z</time>
      </trkpt>
      <trkpt lat="44.45317" lon="-0.40263">
        <ele>84.907145</ele>
        <time>2022-12-27T16:22:47.444Z</time>
      </trkpt>
      <trkpt lat="44.4532" lon="-0.40248">
        <ele>84.865477</ele>
        <time>2022-12-27T16:22:49.458Z</time>
      </trkpt>
      <trkpt lat="44.45323" lon="-0.40234">
        <ele>84.824535</ele>
        <time>2022-12-27T16:22:51.450Z</time>
      </trkpt>
      <trkpt lat="44.45327" lon="-0.4022">
        <ele>84.781827</ele>
        <time>2022-12-27T16:22:53.452Z</time>
      </trkpt>
      <trkpt lat="44.4533" lon="-0.40205">
        <ele>84.738736</ele>
        <time>2022-12-27T16:22:55.448Z</time>
      </trkpt>
      <trkpt lat="44.45333" lon="-0.40191">
        <ele>84.697068</ele>
        <time>2022-12-27T16:22:57.450Z</time>
      </trkpt>
      <trkpt lat="44.45336" lon="-0.40176">
        <ele>84.654988</ele>
        <time>2022-12-27T16:22:59.441Z</time>
      </trkpt>
      <trkpt lat="44.4534" lon="-0.40162">
        <ele>84.61281</ele>
        <time>2022-12-27T16:23:01.448Z</time>
      </trkpt>
      <trkpt lat="44.45342" lon="-0.40147">
        <ele>84.570375</ele>
        <time>2022-12-27T16:23:03.448Z</time>
      </trkpt>
      <trkpt lat="44.45346" lon="-0.40133">
        <ele>84.528321</ele>
        <time>2022-12-27T16:23:05.449Z</time>
      </trkpt>
      <trkpt lat="44.45349" lon="-0.40118">
        <ele>84.48587</ele>
        <time>2022-12-27T16:23:07.452Z</time>
      </trkpt>
      <trkpt lat="44.45352" lon="-0.40104">
        <ele>84.44408</ele>
        <time>2022-12-27T16:23:09.458Z</time>
      </trkpt>
      <trkpt lat="44.45355" lon="-0.4009">
        <ele>84.403514</ele>
        <time>2022-12-27T16:23:11.449Z</time>
      </trkpt>
      <trkpt lat="44.45358" lon="-0.40075">
        <ele>84.343462</ele>
        <time>2022-12-27T16:23:13.457Z</time>
      </trkpt>
      <trkpt lat="44.45361" lon="-0.40061">
        <ele>84.226775</ele>
        <time>2022-12-27T16:23:15.450Z</time>
      </trkpt>
      <trkpt lat="44.45364" lon="-0.40046">
        <ele>84.113345</ele>
        <time>2022-12-27T16:23:17.444Z</time>
      </trkpt>
      <trkpt lat="44.45367" lon="-0.40031">
        <ele>83.997993</ele>
        <time>2022-12-27T16:23:19.454Z</time>
      </trkpt>
      <trkpt lat="44.4537" lon="-0.40017">
        <ele>83.88254</ele>
        <time>2022-12-27T16:23:21.452Z</time>
      </trkpt>
      <trkpt lat="44.45373" lon="-0.40003">
        <ele>83.769099</ele>
        <time>2022-12-27T16:23:23.452Z</time>
      </trkpt>
      <trkpt lat="44.45377" lon="-0.3999">
        <ele>83.664415</ele>
        <time>2022-12-27T16:23:25.451Z</time>
      </trkpt>
      <trkpt lat="44.4538" lon="-0.39977">
        <ele>83.561288</ele>
        <time>2022-12-27T16:23:27.455Z</time>
      </trkpt>
      <trkpt lat="44.45383" lon="-0.39964">
        <ele>83.45905</ele>
        <time>2022-12-27T16:23:29.461Z</time>
      </trkpt>
      <trkpt lat="44.45386" lon="-0.39946">
        <ele>83.31897</ele>
        <time>2022-12-27T16:23:32.460Z</time>
      </trkpt>
      <trkpt lat="44.45388" lon="-0.39933">
        <ele>83.222881</ele>
        <time>2022-12-27T16:23:34.460Z</time>
      </trkpt>
      <trkpt lat="44.45391" lon="-0.39917">
        <ele>83.093922</ele>
        <time>2022-12-27T16:23:37.457Z</time>
      </trkpt>
      <trkpt lat="44.45394" lon="-0.39899">
        <ele>82.960098</ele>
        <time>2022-12-27T16:23:40.459Z</time>
      </trkpt>
      <trkpt lat="44.45395" lon="-0.39887">
        <ele>82.864009</ele>
        <time>2022-12-27T16:23:42.459Z</time>
      </trkpt>
      <trkpt lat="44.45397" lon="-0.39874">
        <ele>82.768621</ele>
        <time>2022-12-27T16:23:44.441Z</time>
      </trkpt>
      <trkpt lat="44.45398" lon="-0.39861">
        <ele>82.667849</ele>
        <time>2022-12-27T16:23:46.431Z</time>
      </trkpt>
      <trkpt lat="44.45399" lon="-0.39848">
        <ele>82.567813</ele>
        <time>2022-12-27T16:23:48.457Z</time>
      </trkpt>
      <trkpt lat="44.45399" lon="-0.39834">
        <ele>82.465663</ele>
        <time>2022-12-27T16:23:50.454Z</time>
      </trkpt>
      <trkpt lat="44.45401" lon="-0.3982">
        <ele>82.40903</ele>
        <time>2022-12-27T16:23:52.453Z</time>
      </trkpt>
      <trkpt lat="44.45401" lon="-0.39803">
        <ele>82.344639</ele>
        <time>2022-12-27T16:23:54.456Z</time>
      </trkpt>
      <trkpt lat="44.45402" lon="-0.39786">
        <ele>82.280899</ele>
        <time>2022-12-27T16:23:56.430Z</time>
      </trkpt>
      <trkpt lat="44.45403" lon="-0.39771">
        <ele>82.221502</ele>
        <time>2022-12-27T16:23:58.457Z</time>
      </trkpt>
      <trkpt lat="44.45404" lon="-0.39752">
        <ele>82.14901</ele>
        <time>2022-12-27T16:24:00.458Z</time>
      </trkpt>
      <trkpt lat="44.45404" lon="-0.39735">
        <ele>82.082313</ele>
        <time>2022-12-27T16:24:02.446Z</time>
      </trkpt>
      <trkpt lat="44.45405" lon="-0.39717">
        <ele>82.014899</ele>
        <time>2022-12-27T16:24:04.448Z</time>
      </trkpt>
      <trkpt lat="44.45404" lon="-0.39701">
        <ele>81.949739</ele>
        <time>2022-12-27T16:24:06.458Z</time>
      </trkpt>
      <trkpt lat="44.45404" lon="-0.39683">
        <ele>81.882274</ele>
        <time>2022-12-27T16:24:08.437Z</time>
      </trkpt>
      <trkpt lat="44.45403" lon="-0.39666">
        <ele>81.816312</ele>
        <time>2022-12-27T16:24:10.459Z</time>
      </trkpt>
      <trkpt lat="44.45401" lon="-0.3965">
        <ele>81.753181</ele>
        <time>2022-12-27T16:24:12.462Z</time>
      </trkpt>
      <trkpt lat="44.454" lon="-0.39633">
        <ele>81.689539</ele>
        <time>2022-12-27T16:24:14.431Z</time>
      </trkpt>
      <trkpt lat="44.45398" lon="-0.39618">
        <ele>81.629712</ele>
        <time>2022-12-27T16:24:16.458Z</time>
      </trkpt>
      <trkpt lat="44.45397" lon="-0.39603">
        <ele>81.571411</ele>
        <time>2022-12-27T16:24:18.439Z</time>
      </trkpt>
      <trkpt lat="44.45395" lon="-0.39588">
        <ele>81.51154</ele>
        <time>2022-12-27T16:24:20.440Z</time>
      </trkpt>
      <trkpt lat="44.45393" lon="-0.39572">
        <ele>81.560038</ele>
        <time>2022-12-27T16:24:22.447Z</time>
      </trkpt>
      <trkpt lat="44.4539" lon="-0.39555">
        <ele>81.642318</ele>
        <time>2022-12-27T16:24:24.457Z</time>
      </trkpt>
      <trkpt lat="44.45388" lon="-0.3954">
        <ele>81.716956</ele>
        <time>2022-12-27T16:24:26.440Z</time>
      </trkpt>
      <trkpt lat="44.45385" lon="-0.39524">
        <ele>81.803585</ele>
        <time>2022-12-27T16:24:28.453Z</time>
      </trkpt>
      <trkpt lat="44.45382" lon="-0.39506">
        <ele>81.893948</ele>
        <time>2022-12-27T16:24:30.454Z</time>
      </trkpt>
      <trkpt lat="44.45378" lon="-0.39488">
        <ele>81.983527</ele>
        <time>2022-12-27T16:24:32.456Z</time>
      </trkpt>
      <trkpt lat="44.45374" lon="-0.39471">
        <ele>82.074721</ele>
        <time>2022-12-27T16:24:34.455Z</time>
      </trkpt>
      <trkpt lat="44.4537" lon="-0.39452">
        <ele>82.16894</ele>
        <time>2022-12-27T16:24:36.459Z</time>
      </trkpt>
      <trkpt lat="44.45367" lon="-0.39434">
        <ele>82.260604</ele>
        <time>2022-12-27T16:24:38.457Z</time>
      </trkpt>
      <trkpt lat="44.45363" lon="-0.39417">
        <ele>82.347707</ele>
        <time>2022-12-27T16:24:40.462Z</time>
      </trkpt>
      <trkpt lat="44.4536" lon="-0.39401">
        <ele>82.43332</ele>
        <time>2022-12-27T16:24:42.446Z</time>
      </trkpt>
      <trkpt lat="44.45356" lon="-0.39384">
        <ele>82.521882</ele>
        <time>2022-12-27T16:24:44.457Z</time>
      </trkpt>
      <trkpt lat="44.45352" lon="-0.39366">
        <ele>82.612343</ele>
        <time>2022-12-27T16:24:46.460Z</time>
      </trkpt>
      <trkpt lat="44.45347" lon="-0.3935">
        <ele>82.698583</ele>
        <time>2022-12-27T16:24:48.455Z</time>
      </trkpt>
      <trkpt lat="44.45345" lon="-0.39333">
        <ele>82.805208</ele>
        <time>2022-12-27T16:24:50.453Z</time>
      </trkpt>
      <trkpt lat="44.45342" lon="-0.39317">
        <ele>82.918188</ele>
        <time>2022-12-27T16:24:52.453Z</time>
      </trkpt>
      <trkpt lat="44.45339" lon="-0.39302">
        <ele>83.029374</ele>
        <time>2022-12-27T16:24:54.445Z</time>
      </trkpt>
      <trkpt lat="44.45337" lon="-0.39288">
        <ele>83.130982</ele>
        <time>2022-12-27T16:24:56.456Z</time>
      </trkpt>
      <trkpt lat="44.45335" lon="-0.39274">
        <ele>83.228994</ele>
        <time>2022-12-27T16:24:58.445Z</time>
      </trkpt>
      <trkpt lat="44.45333" lon="-0.39261">
        <ele>83.329205</ele>
        <time>2022-12-27T16:25:00.458Z</time>
      </trkpt>
      <trkpt lat="44.45331" lon="-0.39247">
        <ele>83.428206</ele>
        <time>2022-12-27T16:25:02.458Z</time>
      </trkpt>
      <trkpt lat="44.45329" lon="-0.39234">
        <ele>83.520055</ele>
        <time>2022-12-27T16:25:04.461Z</time>
      </trkpt>
      <trkpt lat="44.45327" lon="-0.39218">
        <ele>83.637378</ele>
        <time>2022-12-27T16:25:07.470Z</time>
      </trkpt>
      <trkpt lat="44.45325" lon="-0.392">
        <ele>83.768558</ele>
        <time>2022-12-27T16:25:10.460Z</time>
      </trkpt>
      <trkpt lat="44.45324" lon="-0.39182">
        <ele>83.891681</ele>
        <time>2022-12-27T16:25:13.451Z</time>
      </trkpt>
      <trkpt lat="44.45322" lon="-0.39165">
        <ele>84.012844</ele>
        <time>2022-12-27T16:25:16.458Z</time>
      </trkpt>
      <trkpt lat="44.45322" lon="-0.3915">
        <ele>84.124219</ele>
        <time>2022-12-27T16:25:19.455Z</time>
      </trkpt>
      <trkpt lat="44.45322" lon="-0.39134">
        <ele>84.233503</ele>
        <time>2022-12-27T16:25:22.451Z</time>
      </trkpt>
      <trkpt lat="44.45321" lon="-0.39118">
        <ele>84.350701</ele>
        <time>2022-12-27T16:25:25.460Z</time>
      </trkpt>
      <trkpt lat="44.45321" lon="-0.39101">
        <ele>84.471359</ele>
        <time>2022-12-27T16:25:28.461Z</time>
      </trkpt>
      <trkpt lat="44.4532" lon="-0.39084">
        <ele>84.704217</ele>
        <time>2022-12-27T16:25:31.456Z</time>
      </trkpt>
      <trkpt lat="44.4532" lon="-0.39066">
        <ele>85.037435</ele>
        <time>2022-12-27T16:25:34.459Z</time>
      </trkpt>
      <trkpt lat="44.4532" lon="-0.39048">
        <ele>85.383982</ele>
        <time>2022-12-27T16:25:37.455Z</time>
      </trkpt>
      <trkpt lat="44.45319" lon="-0.3903">
        <ele>85.738495</ele>
        <time>2022-12-27T16:25:40.450Z</time>
      </trkpt>
      <trkpt lat="44.45319" lon="-0.39011">
        <ele>86.086935</ele>
        <time>2022-12-27T16:25:43.443Z</time>
      </trkpt>
      <trkpt lat="44.4532" lon="-0.38998">
        <ele>86.336493</ele>
        <time>2022-12-27T16:25:45.448Z</time>
      </trkpt>
      <trkpt lat="44.4532" lon="-0.38985">
        <ele>86.586279</ele>
        <time>2022-12-27T16:25:47.442Z</time>
      </trkpt>
      <trkpt lat="44.4532" lon="-0.38971">
        <ele>86.854802</ele>
        <time>2022-12-27T16:25:49.446Z</time>
      </trkpt>
      <trkpt lat="44.4532" lon="-0.38958">
        <ele>87.096631</ele>
        <time>2022-12-27T16:25:51.431Z</time>
      </trkpt>
      <trkpt lat="44.4532" lon="-0.38944">
        <ele>87.361306</ele>
        <time>2022-12-27T16:25:53.455Z</time>
      </trkpt>
      <trkpt lat="44.45321" lon="-0.38931">
        <ele>87.609993</ele>
        <time>2022-12-27T16:25:55.456Z</time>
      </trkpt>
      <trkpt lat="44.45323" lon="-0.38918">
        <ele>87.859295</ele>
        <time>2022-12-27T16:25:57.455Z</time>
      </trkpt>
      <trkpt lat="44.45324" lon="-0.38906">
        <ele>88.10133</ele>
        <time>2022-12-27T16:25:59.456Z</time>
      </trkpt>
      <trkpt lat="44.45325" lon="-0.38891">
        <ele>88.37824</ele>
        <time>2022-12-27T16:26:01.458Z</time>
      </trkpt>
      <trkpt lat="44.45327" lon="-0.38872">
        <ele>88.747688</ele>
        <time>2022-12-27T16:26:04.461Z</time>
      </trkpt>
      <trkpt lat="44.45328" lon="-0.38859">
        <ele>88.992119</ele>
        <time>2022-12-27T16:26:06.456Z</time>
      </trkpt>
      <trkpt lat="44.45329" lon="-0.38843">
        <ele>89.306301</ele>
        <time>2022-12-27T16:26:09.440Z</time>
      </trkpt>
      <trkpt lat="44.45332" lon="-0.38827">
        <ele>89.220796</ele>
        <time>2022-12-27T16:26:12.458Z</time>
      </trkpt>
      <trkpt lat="44.45335" lon="-0.3881">
        <ele>89.107139</ele>
        <time>2022-12-27T16:26:15.451Z</time>
      </trkpt>
      <trkpt lat="44.45336" lon="-0.38797">
        <ele>89.022026</ele>
        <time>2022-12-27T16:26:17.433Z</time>
      </trkpt>
      <trkpt lat="44.45338" lon="-0.38782">
        <ele>88.925192</ele>
        <time>2022-12-27T16:26:19.459Z</time>
      </trkpt>
      <trkpt lat="44.45338" lon="-0.3877">
        <ele>88.84274</ele>
        <time>2022-12-27T16:26:21.454Z</time>
      </trkpt>
      <trkpt lat="44.45339" lon="-0.38757">
        <ele>88.757578</ele>
        <time>2022-12-27T16:26:23.449Z</time>
      </trkpt>
      <trkpt lat="44.4534" lon="-0.38742">
        <ele>88.663219</ele>
        <time>2022-12-27T16:26:25.453Z</time>
      </trkpt>
      <trkpt lat="44.45342" lon="-0.38728">
        <ele>88.563932</ele>
        <time>2022-12-27T16:26:27.458Z</time>
      </trkpt>
      <trkpt lat="44.45343" lon="-0.38712">
        <ele>88.459959</ele>
        <time>2022-12-27T16:26:29.459Z</time>
      </trkpt>
      <trkpt lat="44.45346" lon="-0.38697">
        <ele>88.360491</ele>
        <time>2022-12-27T16:26:31.463Z</time>
      </trkpt>
      <trkpt lat="44.45346" lon="-0.38682">
        <ele>88.261569</ele>
        <time>2022-12-27T16:26:33.448Z</time>
      </trkpt>
      <trkpt lat="44.45348" lon="-0.38666">
        <ele>88.16073</ele>
        <time>2022-12-27T16:26:35.445Z</time>
      </trkpt>
      <trkpt lat="44.45349" lon="-0.38652">
        <ele>88.062706</ele>
        <time>2022-12-27T16:26:37.459Z</time>
      </trkpt>
      <trkpt lat="44.4535" lon="-0.38639">
        <ele>87.979198</ele>
        <time>2022-12-27T16:26:39.450Z</time>
      </trkpt>
      <trkpt lat="44.45352" lon="-0.38626">
        <ele>87.893271</ele>
        <time>2022-12-27T16:26:41.446Z</time>
      </trkpt>
      <trkpt lat="44.45354" lon="-0.38611">
        <ele>87.795769</ele>
        <time>2022-12-27T16:26:43.457Z</time>
      </trkpt>
      <trkpt lat="44.45355" lon="-0.38596">
        <ele>87.698015</ele>
        <time>2022-12-27T16:26:45.447Z</time>
      </trkpt>
      <trkpt lat="44.45357" lon="-0.38581">
        <ele>87.586277</ele>
        <time>2022-12-27T16:26:47.461Z</time>
      </trkpt>
      <trkpt lat="44.45359" lon="-0.38567">
        <ele>87.480255</ele>
        <time>2022-12-27T16:26:49.458Z</time>
      </trkpt>
      <trkpt lat="44.4536" lon="-0.38551">
        <ele>87.366424</ele>
        <time>2022-12-27T16:26:51.457Z</time>
      </trkpt>
      <trkpt lat="44.45361" lon="-0.38536">
        <ele>87.260929</ele>
        <time>2022-12-27T16:26:53.444Z</time>
      </trkpt>
      <trkpt lat="44.45362" lon="-0.38522">
        <ele>87.158621</ele>
        <time>2022-12-27T16:26:55.445Z</time>
      </trkpt>
      <trkpt lat="44.45364" lon="-0.38507">
        <ele>87.04957</ele>
        <time>2022-12-27T16:26:57.458Z</time>
      </trkpt>
      <trkpt lat="44.45365" lon="-0.38495">
        <ele>86.958418</ele>
        <time>2022-12-27T16:26:59.431Z</time>
      </trkpt>
      <trkpt lat="44.45366" lon="-0.3848">
        <ele>86.853313</ele>
        <time>2022-12-27T16:27:01.436Z</time>
      </trkpt>
      <trkpt lat="44.45367" lon="-0.38465">
        <ele>86.743715</ele>
        <time>2022-12-27T16:27:03.430Z</time>
      </trkpt>
      <trkpt lat="44.45367" lon="-0.38452">
        <ele>86.644373</ele>
        <time>2022-12-27T16:27:05.433Z</time>
      </trkpt>
      <trkpt lat="44.45369" lon="-0.38438">
        <ele>86.548488</ele>
        <time>2022-12-27T16:27:07.466Z</time>
      </trkpt>
      <trkpt lat="44.4537" lon="-0.38424">
        <ele>86.446321</ele>
        <time>2022-12-27T16:27:09.451Z</time>
      </trkpt>
      <trkpt lat="44.45372" lon="-0.38409">
        <ele>86.335129</ele>
        <time>2022-12-27T16:27:11.445Z</time>
      </trkpt>
      <trkpt lat="44.45374" lon="-0.38395">
        <ele>86.231387</ele>
        <time>2022-12-27T16:27:13.447Z</time>
      </trkpt>
      <trkpt lat="44.45375" lon="-0.38382">
        <ele>86.134075</ele>
        <time>2022-12-27T16:27:15.461Z</time>
      </trkpt>
      <trkpt lat="44.45377" lon="-0.38366">
        <ele>86.020951</ele>
        <time>2022-12-27T16:27:17.457Z</time>
      </trkpt>
      <trkpt lat="44.45379" lon="-0.38351">
        <ele>85.909196</ele>
        <time>2022-12-27T16:27:19.441Z</time>
      </trkpt>
      <trkpt lat="44.45381" lon="-0.38337">
        <ele>85.798712</ele>
        <time>2022-12-27T16:27:21.454Z</time>
      </trkpt>
      <trkpt lat="44.45383" lon="-0.3832">
        <ele>85.665425</ele>
        <time>2022-12-27T16:27:23.432Z</time>
      </trkpt>
      <trkpt lat="44.45384" lon="-0.38305">
        <ele>85.538184</ele>
        <time>2022-12-27T16:27:25.458Z</time>
      </trkpt>
      <trkpt lat="44.45385" lon="-0.38288">
        <ele>85.406665</ele>
        <time>2022-12-27T16:27:27.449Z</time>
      </trkpt>
      <trkpt lat="44.45386" lon="-0.38273">
        <ele>85.282097</ele>
        <time>2022-12-27T16:27:29.456Z</time>
      </trkpt>
      <trkpt lat="44.45387" lon="-0.38258">
        <ele>85.16028</ele>
        <time>2022-12-27T16:27:31.456Z</time>
      </trkpt>
      <trkpt lat="44.45389" lon="-0.38243">
        <ele>85.043148</ele>
        <time>2022-12-27T16:27:33.455Z</time>
      </trkpt>
      <trkpt lat="44.4539" lon="-0.3823">
        <ele>84.93322</ele>
        <time>2022-12-27T16:27:35.452Z</time>
      </trkpt>
      <trkpt lat="44.45392" lon="-0.38216">
        <ele>84.820457</ele>
        <time>2022-12-27T16:27:37.458Z</time>
      </trkpt>
      <trkpt lat="44.45395" lon="-0.38196">
        <ele>84.656347</ele>
        <time>2022-12-27T16:27:40.451Z</time>
      </trkpt>
      <trkpt lat="44.45397" lon="-0.38182">
        <ele>84.53831</ele>
        <time>2022-12-27T16:27:42.461Z</time>
      </trkpt>
      <trkpt lat="44.45398" lon="-0.38168">
        <ele>84.42661</ele>
        <time>2022-12-27T16:27:44.453Z</time>
      </trkpt>
      <trkpt lat="44.454" lon="-0.38154">
        <ele>84.313203</ele>
        <time>2022-12-27T16:27:46.457Z</time>
      </trkpt>
      <trkpt lat="44.45401" lon="-0.3814">
        <ele>84.198999</ele>
        <time>2022-12-27T16:27:48.460Z</time>
      </trkpt>
      <trkpt lat="44.45402" lon="-0.38123">
        <ele>84.064469</ele>
        <time>2022-12-27T16:27:50.459Z</time>
      </trkpt>
      <trkpt lat="44.45403" lon="-0.38108">
        <ele>83.939103</ele>
        <time>2022-12-27T16:27:52.462Z</time>
      </trkpt>
      <trkpt lat="44.45405" lon="-0.38091">
        <ele>83.798561</ele>
        <time>2022-12-27T16:27:54.458Z</time>
      </trkpt>
      <trkpt lat="44.45407" lon="-0.38076">
        <ele>83.637942</ele>
        <time>2022-12-27T16:27:56.456Z</time>
      </trkpt>
      <trkpt lat="44.45408" lon="-0.38061">
        <ele>83.488591</ele>
        <time>2022-12-27T16:27:58.459Z</time>
      </trkpt>
      <trkpt lat="44.45409" lon="-0.38046">
        <ele>83.329991</ele>
        <time>2022-12-27T16:28:00.445Z</time>
      </trkpt>
      <trkpt lat="44.45411" lon="-0.3803">
        <ele>83.17341</ele>
        <time>2022-12-27T16:28:02.462Z</time>
      </trkpt>
      <trkpt lat="44.45412" lon="-0.38015">
        <ele>83.015645</ele>
        <time>2022-12-27T16:28:04.461Z</time>
      </trkpt>
      <trkpt lat="44.45413" lon="-0.37999">
        <ele>82.857695</ele>
        <time>2022-12-27T16:28:06.439Z</time>
      </trkpt>
      <trkpt lat="44.45415" lon="-0.37984">
        <ele>82.702435</ele>
        <time>2022-12-27T16:28:08.438Z</time>
      </trkpt>
      <trkpt lat="44.45415" lon="-0.37971">
        <ele>82.563635</ele>
        <time>2022-12-27T16:28:10.431Z</time>
      </trkpt>
      <trkpt lat="44.45417" lon="-0.37956">
        <ele>82.418148</ele>
        <time>2022-12-27T16:28:12.462Z</time>
      </trkpt>
      <trkpt lat="44.45419" lon="-0.37943">
        <ele>82.281305</ele>
        <time>2022-12-27T16:28:14.456Z</time>
      </trkpt>
      <trkpt lat="44.4542" lon="-0.37929">
        <ele>82.134276</ele>
        <time>2022-12-27T16:28:16.458Z</time>
      </trkpt>
      <trkpt lat="44.4542" lon="-0.37916">
        <ele>82.003058</ele>
        <time>2022-12-27T16:28:18.456Z</time>
      </trkpt>
      <trkpt lat="44.45421" lon="-0.37902">
        <ele>81.862097</ele>
        <time>2022-12-27T16:28:20.451Z</time>
      </trkpt>
      <trkpt lat="44.45422" lon="-0.37888">
        <ele>81.714594</ele>
        <time>2022-12-27T16:28:22.460Z</time>
      </trkpt>
      <trkpt lat="44.45423" lon="-0.37874">
        <ele>81.575794</ele>
        <time>2022-12-27T16:28:24.430Z</time>
      </trkpt>
      <trkpt lat="44.45425" lon="-0.3786">
        <ele>81.429703</ele>
        <time>2022-12-27T16:28:26.449Z</time>
      </trkpt>
      <trkpt lat="44.45427" lon="-0.37845">
        <ele>81.279372</ele>
        <time>2022-12-27T16:28:28.458Z</time>
      </trkpt>
      <trkpt lat="44.45428" lon="-0.37831">
        <ele>81.109506</ele>
        <time>2022-12-27T16:28:30.458Z</time>
      </trkpt>
      <trkpt lat="44.45429" lon="-0.37817">
        <ele>80.940425</ele>
        <time>2022-12-27T16:28:32.455Z</time>
      </trkpt>
      <trkpt lat="44.4543" lon="-0.37804">
        <ele>80.775532</ele>
        <time>2022-12-27T16:28:34.452Z</time>
      </trkpt>
      <trkpt lat="44.45431" lon="-0.37789">
        <ele>80.600115</ele>
        <time>2022-12-27T16:28:36.458Z</time>
      </trkpt>
      <trkpt lat="44.45432" lon="-0.37775">
        <ele>80.431336</ele>
        <time>2022-12-27T16:28:38.454Z</time>
      </trkpt>
      <trkpt lat="44.45434" lon="-0.37761">
        <ele>80.262643</ele>
        <time>2022-12-27T16:28:40.455Z</time>
      </trkpt>
      <trkpt lat="44.45435" lon="-0.37748">
        <ele>80.100551</ele>
        <time>2022-12-27T16:28:42.459Z</time>
      </trkpt>
      <trkpt lat="44.45435" lon="-0.37735">
        <ele>79.941888</ele>
        <time>2022-12-27T16:28:44.458Z</time>
      </trkpt>
      <trkpt lat="44.45436" lon="-0.37719">
        <ele>79.74992</ele>
        <time>2022-12-27T16:28:47.445Z</time>
      </trkpt>
      <trkpt lat="44.45437" lon="-0.37705">
        <ele>79.588012</ele>
        <time>2022-12-27T16:28:51.448Z</time>
      </trkpt>
      <trkpt lat="44.45439" lon="-0.3769">
        <ele>79.402811</ele>
        <time>2022-12-27T16:28:55.446Z</time>
      </trkpt>
      <trkpt lat="44.4544" lon="-0.37675">
        <ele>79.216058</ele>
        <time>2022-12-27T16:28:58.457Z</time>
      </trkpt>
      <trkpt lat="44.45441" lon="-0.37657">
        <ele>79.002689</ele>
        <time>2022-12-27T16:29:01.451Z</time>
      </trkpt>
      <trkpt lat="44.45442" lon="-0.37638">
        <ele>78.777552</ele>
        <time>2022-12-27T16:29:04.458Z</time>
      </trkpt>
      <trkpt lat="44.45443" lon="-0.37625">
        <ele>78.610685</ele>
        <time>2022-12-27T16:29:06.448Z</time>
      </trkpt>
      <trkpt lat="44.45444" lon="-0.37611">
        <ele>78.442234</ele>
        <time>2022-12-27T16:29:08.453Z</time>
      </trkpt>
      <trkpt lat="44.45445" lon="-0.37597">
        <ele>78.277936</ele>
        <time>2022-12-27T16:29:10.460Z</time>
      </trkpt>
      <trkpt lat="44.45446" lon="-0.37582">
        <ele>78.20721</ele>
        <time>2022-12-27T16:29:12.456Z</time>
      </trkpt>
      <trkpt lat="44.45447" lon="-0.37567">
        <ele>78.163868</ele>
        <time>2022-12-27T16:29:14.460Z</time>
      </trkpt>
      <trkpt lat="44.45448" lon="-0.37552">
        <ele>78.119892</ele>
        <time>2022-12-27T16:29:16.457Z</time>
      </trkpt>
      <trkpt lat="44.45448" lon="-0.37537">
        <ele>78.078778</ele>
        <time>2022-12-27T16:29:18.447Z</time>
      </trkpt>
      <trkpt lat="44.45449" lon="-0.37524">
        <ele>78.040743</ele>
        <time>2022-12-27T16:29:20.458Z</time>
      </trkpt>
      <trkpt lat="44.4545" lon="-0.37511">
        <ele>78.002172</ele>
        <time>2022-12-27T16:29:22.449Z</time>
      </trkpt>
      <trkpt lat="44.45451" lon="-0.37491">
        <ele>77.946719</ele>
        <time>2022-12-27T16:29:25.459Z</time>
      </trkpt>
      <trkpt lat="44.45452" lon="-0.37478">
        <ele>77.90818</ele>
        <time>2022-12-27T16:29:27.461Z</time>
      </trkpt>
      <trkpt lat="44.45453" lon="-0.37464">
        <ele>77.868644</ele>
        <time>2022-12-27T16:29:29.456Z</time>
      </trkpt>
      <trkpt lat="44.45454" lon="-0.37451">
        <ele>77.829869</ele>
        <time>2022-12-27T16:29:31.459Z</time>
      </trkpt>
      <trkpt lat="44.45455" lon="-0.37438">
        <ele>77.791584</ele>
        <time>2022-12-27T16:29:33.462Z</time>
      </trkpt>
      <trkpt lat="44.45456" lon="-0.37419">
        <ele>77.738622</ele>
        <time>2022-12-27T16:29:36.448Z</time>
      </trkpt>
      <trkpt lat="44.45455" lon="-0.37401">
        <ele>77.686985</ele>
        <time>2022-12-27T16:29:39.461Z</time>
      </trkpt>
      <trkpt lat="44.45454" lon="-0.37386">
        <ele>77.642219</ele>
        <time>2022-12-27T16:29:42.432Z</time>
      </trkpt>
      <trkpt lat="44.45454" lon="-0.37372">
        <ele>77.603707</ele>
        <time>2022-12-27T16:29:45.435Z</time>
      </trkpt>
      <trkpt lat="44.45455" lon="-0.37358">
        <ele>77.561737</ele>
        <time>2022-12-27T16:29:49.446Z</time>
      </trkpt>
      <trkpt lat="44.45456" lon="-0.37343">
        <ele>77.520279</ele>
        <time>2022-12-27T16:29:52.456Z</time>
      </trkpt>
      <trkpt lat="44.45456" lon="-0.37329">
        <ele>77.56738</ele>
        <time>2022-12-27T16:29:55.453Z</time>
      </trkpt>
      <trkpt lat="44.45456" lon="-0.37312">
        <ele>77.619711</ele>
        <time>2022-12-27T16:29:58.457Z</time>
      </trkpt>
      <trkpt lat="44.45456" lon="-0.37295">
        <ele>77.674633</ele>
        <time>2022-12-27T16:30:01.457Z</time>
      </trkpt>
      <trkpt lat="44.45457" lon="-0.37277">
        <ele>77.733833</ele>
        <time>2022-12-27T16:30:04.461Z</time>
      </trkpt>
      <trkpt lat="44.45457" lon="-0.37264">
        <ele>77.775269</ele>
        <time>2022-12-27T16:30:06.457Z</time>
      </trkpt>
      <trkpt lat="44.45459" lon="-0.3725">
        <ele>77.82132</ele>
        <time>2022-12-27T16:30:08.455Z</time>
      </trkpt>
      <trkpt lat="44.4546" lon="-0.37237">
        <ele>77.86457</ele>
        <time>2022-12-27T16:30:10.459Z</time>
      </trkpt>
      <trkpt lat="44.45461" lon="-0.37223">
        <ele>77.909939</ele>
        <time>2022-12-27T16:30:12.459Z</time>
      </trkpt>
      <trkpt lat="44.45462" lon="-0.37209">
        <ele>77.956505</ele>
        <time>2022-12-27T16:30:14.446Z</time>
      </trkpt>
      <trkpt lat="44.45464" lon="-0.37195">
        <ele>78.000234</ele>
        <time>2022-12-27T16:30:16.450Z</time>
      </trkpt>
      <trkpt lat="44.45465" lon="-0.37183">
        <ele>78.041742</ele>
        <time>2022-12-27T16:30:18.453Z</time>
      </trkpt>
      <trkpt lat="44.45469" lon="-0.37165">
        <ele>78.099394</ele>
        <time>2022-12-27T16:30:21.460Z</time>
      </trkpt>
      <trkpt lat="44.45471" lon="-0.37149">
        <ele>78.155146</ele>
        <time>2022-12-27T16:30:24.454Z</time>
      </trkpt>
      <trkpt lat="44.45473" lon="-0.37133">
        <ele>78.205392</ele>
        <time>2022-12-27T16:30:27.437Z</time>
      </trkpt>
      <trkpt lat="44.45476" lon="-0.37119">
        <ele>78.252747</ele>
        <time>2022-12-27T16:30:30.449Z</time>
      </trkpt>
      <trkpt lat="44.45478" lon="-0.37105">
        <ele>78.299184</ele>
        <time>2022-12-27T16:30:33.456Z</time>
      </trkpt>
      <trkpt lat="44.45479" lon="-0.37091">
        <ele>78.320169</ele>
        <time>2022-12-27T16:30:36.455Z</time>
      </trkpt>
      <trkpt lat="44.45479" lon="-0.37075">
        <ele>78.259277</ele>
        <time>2022-12-27T16:30:40.453Z</time>
      </trkpt>
      <trkpt lat="44.45479" lon="-0.3706">
        <ele>78.20028</ele>
        <time>2022-12-27T16:30:44.458Z</time>
      </trkpt>
      <trkpt lat="44.4548" lon="-0.37044">
        <ele>78.139581</ele>
        <time>2022-12-27T16:30:48.449Z</time>
      </trkpt>
      <trkpt lat="44.4548" lon="-0.3703">
        <ele>78.086348</ele>
        <time>2022-12-27T16:30:51.453Z</time>
      </trkpt>
      <trkpt lat="44.4548" lon="-0.37015">
        <ele>78.027695</ele>
        <time>2022-12-27T16:30:54.458Z</time>
      </trkpt>
      <trkpt lat="44.45479" lon="-0.36998">
        <ele>77.964505</ele>
        <time>2022-12-27T16:30:57.438Z</time>
      </trkpt>
      <trkpt lat="44.4548" lon="-0.36981">
        <ele>77.898245</ele>
        <time>2022-12-27T16:31:00.458Z</time>
      </trkpt>
      <trkpt lat="44.45479" lon="-0.36964">
        <ele>77.832681</ele>
        <time>2022-12-27T16:31:03.440Z</time>
      </trkpt>
      <trkpt lat="44.45479" lon="-0.36946">
        <ele>77.764515</ele>
        <time>2022-12-27T16:31:06.458Z</time>
      </trkpt>
      <trkpt lat="44.45478" lon="-0.36927">
        <ele>77.692392</ele>
        <time>2022-12-27T16:31:09.461Z</time>
      </trkpt>
      <trkpt lat="44.45477" lon="-0.36914">
        <ele>77.640741</ele>
        <time>2022-12-27T16:31:11.459Z</time>
      </trkpt>
      <trkpt lat="44.45475" lon="-0.369">
        <ele>77.585601</ele>
        <time>2022-12-27T16:31:13.457Z</time>
      </trkpt>
      <trkpt lat="44.45473" lon="-0.36887">
        <ele>77.536299</ele>
        <time>2022-12-27T16:31:15.457Z</time>
      </trkpt>
      <trkpt lat="44.45471" lon="-0.36874">
        <ele>77.485025</ele>
        <time>2022-12-27T16:31:17.460Z</time>
      </trkpt>
      <trkpt lat="44.45469" lon="-0.36861">
        <ele>77.435918</ele>
        <time>2022-12-27T16:31:19.461Z</time>
      </trkpt>
      <trkpt lat="44.45467" lon="-0.36848">
        <ele>77.383867</ele>
        <time>2022-12-27T16:31:21.451Z</time>
      </trkpt>
      <trkpt lat="44.45464" lon="-0.3683">
        <ele>77.187126</ele>
        <time>2022-12-27T16:31:24.465Z</time>
      </trkpt>
      <trkpt lat="44.45461" lon="-0.36812">
        <ele>76.963435</ele>
        <time>2022-12-27T16:31:27.458Z</time>
      </trkpt>
      <trkpt lat="44.45459" lon="-0.36796">
        <ele>76.758436</ele>
        <time>2022-12-27T16:31:30.436Z</time>
      </trkpt>
      <trkpt lat="44.45456" lon="-0.36781">
        <ele>76.576035</ele>
        <time>2022-12-27T16:31:33.458Z</time>
      </trkpt>
      <trkpt lat="44.45453" lon="-0.36765">
        <ele>76.373176</ele>
        <time>2022-12-27T16:31:36.462Z</time>
      </trkpt>
      <trkpt lat="44.45449" lon="-0.36753">
        <ele>76.211908</ele>
        <time>2022-12-27T16:31:38.458Z</time>
      </trkpt>
      <trkpt lat="44.45446" lon="-0.36741">
        <ele>76.048632</ele>
        <time>2022-12-27T16:31:40.455Z</time>
      </trkpt>
      <trkpt lat="44.45442" lon="-0.36728">
        <ele>75.874514</ele>
        <time>2022-12-27T16:31:42.447Z</time>
      </trkpt>
      <trkpt lat="44.45439" lon="-0.36714">
        <ele>75.70581</ele>
        <time>2022-12-27T16:31:44.458Z</time>
      </trkpt>
      <trkpt lat="44.45435" lon="-0.36701">
        <ele>75.526389</ele>
        <time>2022-12-27T16:31:46.460Z</time>
      </trkpt>
      <trkpt lat="44.45432" lon="-0.36687">
        <ele>75.346937</ele>
        <time>2022-12-27T16:31:48.446Z</time>
      </trkpt>
      <trkpt lat="44.45428" lon="-0.36674">
        <ele>75.176167</ele>
        <time>2022-12-27T16:31:50.456Z</time>
      </trkpt>
      <trkpt lat="44.45425" lon="-0.36661">
        <ele>75.005846</ele>
        <time>2022-12-27T16:31:52.463Z</time>
      </trkpt>
      <trkpt lat="44.4542" lon="-0.36649">
        <ele>74.842442</ele>
        <time>2022-12-27T16:31:54.462Z</time>
      </trkpt>
      <trkpt lat="44.45417" lon="-0.36637">
        <ele>74.686544</ele>
        <time>2022-12-27T16:31:56.451Z</time>
      </trkpt>
      <trkpt lat="44.45413" lon="-0.36625">
        <ele>74.526596</ele>
        <time>2022-12-27T16:31:58.458Z</time>
      </trkpt>
      <trkpt lat="44.45408" lon="-0.36609">
        <ele>74.30381</ele>
        <time>2022-12-27T16:32:01.459Z</time>
      </trkpt>
      <trkpt lat="44.45404" lon="-0.36593">
        <ele>74.478615</ele>
        <time>2022-12-27T16:32:04.459Z</time>
      </trkpt>
      <trkpt lat="44.454" lon="-0.36578">
        <ele>74.700487</ele>
        <time>2022-12-27T16:32:07.459Z</time>
      </trkpt>
      <trkpt lat="44.45396" lon="-0.3656">
        <ele>74.944837</ele>
        <time>2022-12-27T16:32:10.434Z</time>
      </trkpt>
      <trkpt lat="44.45391" lon="-0.36544">
        <ele>75.175985</ele>
        <time>2022-12-27T16:32:13.460Z</time>
      </trkpt>
      <trkpt lat="44.45388" lon="-0.36527">
        <ele>75.410635</ele>
        <time>2022-12-27T16:32:16.458Z</time>
      </trkpt>
      <trkpt lat="44.45383" lon="-0.36513">
        <ele>75.62386</ele>
        <time>2022-12-27T16:32:19.438Z</time>
      </trkpt>
      <trkpt lat="44.45378" lon="-0.36497">
        <ele>75.854705</ele>
        <time>2022-12-27T16:32:22.460Z</time>
      </trkpt>
      <trkpt lat="44.45374" lon="-0.3648">
        <ele>76.106004</ele>
        <time>2022-12-27T16:32:25.456Z</time>
      </trkpt>
      <trkpt lat="44.45371" lon="-0.36467">
        <ele>76.284222</ele>
        <time>2022-12-27T16:32:27.437Z</time>
      </trkpt>
      <trkpt lat="44.45368" lon="-0.36454">
        <ele>76.460451</ele>
        <time>2022-12-27T16:32:29.458Z</time>
      </trkpt>
      <trkpt lat="44.45366" lon="-0.36442">
        <ele>76.629637</ele>
        <time>2022-12-27T16:32:31.461Z</time>
      </trkpt>
      <trkpt lat="44.45363" lon="-0.36424">
        <ele>76.877563</ele>
        <time>2022-12-27T16:32:34.458Z</time>
      </trkpt>
      <trkpt lat="44.4536" lon="-0.36406">
        <ele>77.123433</ele>
        <time>2022-12-27T16:32:37.457Z</time>
      </trkpt>
      <trkpt lat="44.45358" lon="-0.36389">
        <ele>77.352445</ele>
        <time>2022-12-27T16:32:40.455Z</time>
      </trkpt>
      <trkpt lat="44.45357" lon="-0.36374">
        <ele>77.562708</ele>
        <time>2022-12-27T16:32:43.460Z</time>
      </trkpt>
      <trkpt lat="44.45354" lon="-0.36358">
        <ele>77.795224</ele>
        <time>2022-12-27T16:32:46.457Z</time>
      </trkpt>
      <trkpt lat="44.45352" lon="-0.36341">
        <ele>78.038986</ele>
        <time>2022-12-27T16:32:49.458Z</time>
      </trkpt>
      <trkpt lat="44.45351" lon="-0.36324">
        <ele>78.289207</ele>
        <time>2022-12-27T16:32:52.458Z</time>
      </trkpt>
      <trkpt lat="44.4535" lon="-0.36307">
        <ele>78.52959</ele>
        <time>2022-12-27T16:32:55.458Z</time>
      </trkpt>
      <trkpt lat="44.45348" lon="-0.3629">
        <ele>78.779952</ele>
        <time>2022-12-27T16:32:58.465Z</time>
      </trkpt>
      <trkpt lat="44.45347" lon="-0.36274">
        <ele>79.017632</ele>
        <time>2022-12-27T16:33:01.436Z</time>
      </trkpt>
      <trkpt lat="44.45347" lon="-0.36258">
        <ele>79.244988</ele>
        <time>2022-12-27T16:33:04.464Z</time>
      </trkpt>
      <trkpt lat="44.45347" lon="-0.36244">
        <ele>79.444671</ele>
        <time>2022-12-27T16:33:07.459Z</time>
      </trkpt>
      <trkpt lat="44.45347" lon="-0.3623">
        <ele>79.65324</ele>
        <time>2022-12-27T16:33:10.455Z</time>
      </trkpt>
      <trkpt lat="44.45348" lon="-0.36213">
        <ele>79.893467</ele>
        <time>2022-12-27T16:33:13.454Z</time>
      </trkpt>
      <trkpt lat="44.45348" lon="-0.36196">
        <ele>80.13514</ele>
        <time>2022-12-27T16:33:16.439Z</time>
      </trkpt>
      <trkpt lat="44.45349" lon="-0.36182">
        <ele>80.34842</ele>
        <time>2022-12-27T16:33:19.444Z</time>
      </trkpt>
      <trkpt lat="44.45349" lon="-0.36166">
        <ele>80.580208</ele>
        <time>2022-12-27T16:33:22.457Z</time>
      </trkpt>
      <trkpt lat="44.4535" lon="-0.36148">
        <ele>80.833775</ele>
        <time>2022-12-27T16:33:25.451Z</time>
      </trkpt>
      <trkpt lat="44.45351" lon="-0.36131">
        <ele>81.087237</ele>
        <time>2022-12-27T16:33:28.460Z</time>
      </trkpt>
      <trkpt lat="44.45351" lon="-0.36114">
        <ele>81.312224</ele>
        <time>2022-12-27T16:33:31.453Z</time>
      </trkpt>
      <trkpt lat="44.45353" lon="-0.36099">
        <ele>81.398372</ele>
        <time>2022-12-27T16:33:34.450Z</time>
      </trkpt>
      <trkpt lat="44.45355" lon="-0.36083">
        <ele>81.481607</ele>
        <time>2022-12-27T16:33:37.459Z</time>
      </trkpt>
      <trkpt lat="44.45357" lon="-0.36068">
        <ele>81.563939</ele>
        <time>2022-12-27T16:33:40.462Z</time>
      </trkpt>
      <trkpt lat="44.45359" lon="-0.36053">
        <ele>81.64757</ele>
        <time>2022-12-27T16:33:43.437Z</time>
      </trkpt>
      <trkpt lat="44.45361" lon="-0.36039">
        <ele>81.724446</ele>
        <time>2022-12-27T16:33:46.461Z</time>
      </trkpt>
      <trkpt lat="44.45364" lon="-0.36023">
        <ele>81.81297</ele>
        <time>2022-12-27T16:33:50.438Z</time>
      </trkpt>
      <trkpt lat="44.45366" lon="-0.36009">
        <ele>81.885553</ele>
        <time>2022-12-27T16:33:53.461Z</time>
      </trkpt>
      <trkpt lat="44.45368" lon="-0.35995">
        <ele>81.964356</ele>
        <time>2022-12-27T16:33:56.457Z</time>
      </trkpt>
      <trkpt lat="44.45371" lon="-0.3598">
        <ele>82.045656</ele>
        <time>2022-12-27T16:33:59.433Z</time>
      </trkpt>
      <trkpt lat="44.45373" lon="-0.35965">
        <ele>82.128365</ele>
        <time>2022-12-27T16:34:02.460Z</time>
      </trkpt>
      <trkpt lat="44.45377" lon="-0.3595">
        <ele>82.21481</ele>
        <time>2022-12-27T16:34:05.441Z</time>
      </trkpt>
      <trkpt lat="44.4538" lon="-0.35934">
        <ele>82.303527</ele>
        <time>2022-12-27T16:34:08.435Z</time>
      </trkpt>
      <trkpt lat="44.45383" lon="-0.35918">
        <ele>82.393605</ele>
        <time>2022-12-27T16:34:11.462Z</time>
      </trkpt>
      <trkpt lat="44.45386" lon="-0.35901">
        <ele>82.483683</ele>
        <time>2022-12-27T16:34:14.461Z</time>
      </trkpt>
      <trkpt lat="44.45389" lon="-0.35885">
        <ele>82.576097</ele>
        <time>2022-12-27T16:34:17.440Z</time>
      </trkpt>
      <trkpt lat="44.45392" lon="-0.35868">
        <ele>82.685589</ele>
        <time>2022-12-27T16:34:20.457Z</time>
      </trkpt>
      <trkpt lat="44.45396" lon="-0.35851">
        <ele>82.874384</ele>
        <time>2022-12-27T16:34:23.446Z</time>
      </trkpt>
      <trkpt lat="44.45398" lon="-0.35835">
        <ele>83.062258</ele>
        <time>2022-12-27T16:34:26.436Z</time>
      </trkpt>
      <trkpt lat="44.45401" lon="-0.35817">
        <ele>83.255221</ele>
        <time>2022-12-27T16:34:29.458Z</time>
      </trkpt>
      <trkpt lat="44.45404" lon="-0.35801">
        <ele>83.444199</ele>
        <time>2022-12-27T16:34:32.457Z</time>
      </trkpt>
      <trkpt lat="44.45407" lon="-0.35784">
        <ele>83.635643</ele>
        <time>2022-12-27T16:34:35.449Z</time>
      </trkpt>
      <trkpt lat="44.4541" lon="-0.35767">
        <ele>83.829724</ele>
        <time>2022-12-27T16:34:38.457Z</time>
      </trkpt>
      <trkpt lat="44.45413" lon="-0.35749">
        <ele>84.027576</ele>
        <time>2022-12-27T16:34:41.458Z</time>
      </trkpt>
      <trkpt lat="44.45416" lon="-0.35732">
        <ele>84.225792</ele>
        <time>2022-12-27T16:34:44.446Z</time>
      </trkpt>
      <trkpt lat="44.45419" lon="-0.35714">
        <ele>84.428279</ele>
        <time>2022-12-27T16:34:47.458Z</time>
      </trkpt>
      <trkpt lat="44.45422" lon="-0.35697">
        <ele>84.620074</ele>
        <time>2022-12-27T16:34:50.461Z</time>
      </trkpt>
      <trkpt lat="44.45426" lon="-0.3568">
        <ele>84.809623</ele>
        <time>2022-12-27T16:34:53.437Z</time>
      </trkpt>
      <trkpt lat="44.45429" lon="-0.35664">
        <ele>84.997361</ele>
        <time>2022-12-27T16:34:56.453Z</time>
      </trkpt>
      <trkpt lat="44.45432" lon="-0.35649">
        <ele>85.169031</ele>
        <time>2022-12-27T16:34:59.445Z</time>
      </trkpt>
      <trkpt lat="44.45435" lon="-0.35633">
        <ele>85.353712</ele>
        <time>2022-12-27T16:35:02.455Z</time>
      </trkpt>
      <trkpt lat="44.45438" lon="-0.35616">
        <ele>85.577489</ele>
        <time>2022-12-27T16:35:05.460Z</time>
      </trkpt>
      <trkpt lat="44.45441" lon="-0.35601">
        <ele>85.805206</ele>
        <time>2022-12-27T16:35:08.462Z</time>
      </trkpt>
      <trkpt lat="44.45444" lon="-0.35585">
        <ele>86.044744</ele>
        <time>2022-12-27T16:35:11.458Z</time>
      </trkpt>
      <trkpt lat="44.45447" lon="-0.3557">
        <ele>86.271454</ele>
        <time>2022-12-27T16:35:14.438Z</time>
      </trkpt>
      <trkpt lat="44.45449" lon="-0.35556">
        <ele>86.483519</ele>
        <time>2022-12-27T16:35:17.457Z</time>
      </trkpt>
      <trkpt lat="44.45453" lon="-0.35541">
        <ele>86.711214</ele>
        <time>2022-12-27T16:35:21.458Z</time>
      </trkpt>
      <trkpt lat="44.45456" lon="-0.35526">
        <ele>86.939035</ele>
        <time>2022-12-27T16:35:25.449Z</time>
      </trkpt>
      <trkpt lat="44.45459" lon="-0.35514">
        <ele>87.133135</ele>
        <time>2022-12-27T16:35:28.458Z</time>
      </trkpt>
      <trkpt lat="44.45463" lon="-0.35502">
        <ele>87.323798</ele>
        <time>2022-12-27T16:35:31.457Z</time>
      </trkpt>
      <trkpt lat="44.45465" lon="-0.35486">
        <ele>87.550508</ele>
        <time>2022-12-27T16:35:34.460Z</time>
      </trkpt>
      <trkpt lat="44.45468" lon="-0.3547">
        <ele>87.79326</ele>
        <time>2022-12-27T16:35:37.459Z</time>
      </trkpt>
      <trkpt lat="44.45471" lon="-0.35454">
        <ele>88.032705</ele>
        <time>2022-12-27T16:35:40.460Z</time>
      </trkpt>
      <trkpt lat="44.45474" lon="-0.35438">
        <ele>88.283505</ele>
        <time>2022-12-27T16:35:43.457Z</time>
      </trkpt>
      <trkpt lat="44.45476" lon="-0.35422">
        <ele>88.509727</ele>
        <time>2022-12-27T16:35:46.456Z</time>
      </trkpt>
      <trkpt lat="44.45478" lon="-0.35407">
        <ele>88.74379</ele>
        <time>2022-12-27T16:35:49.459Z</time>
      </trkpt>
      <trkpt lat="44.45481" lon="-0.35391">
        <ele>88.985618</ele>
        <time>2022-12-27T16:35:52.460Z</time>
      </trkpt>
      <trkpt lat="44.45484" lon="-0.35376">
        <ele>89.154609</ele>
        <time>2022-12-27T16:35:55.456Z</time>
      </trkpt>
      <trkpt lat="44.45486" lon="-0.35361">
        <ele>89.292192</ele>
        <time>2022-12-27T16:35:58.437Z</time>
      </trkpt>
      <trkpt lat="44.45488" lon="-0.35345">
        <ele>89.427163</ele>
        <time>2022-12-27T16:36:01.460Z</time>
      </trkpt>
      <trkpt lat="44.45489" lon="-0.35329">
        <ele>89.566293</ele>
        <time>2022-12-27T16:36:04.460Z</time>
      </trkpt>
      <trkpt lat="44.45491" lon="-0.35316">
        <ele>89.679797</ele>
        <time>2022-12-27T16:36:07.455Z</time>
      </trkpt>
      <trkpt lat="44.45491" lon="-0.35301">
        <ele>89.810907</ele>
        <time>2022-12-27T16:36:11.463Z</time>
      </trkpt>
      <trkpt lat="44.45492" lon="-0.35286">
        <ele>89.937986</ele>
        <time>2022-12-27T16:36:16.455Z</time>
      </trkpt>
      <trkpt lat="44.45497" lon="-0.35259">
        <ele>90.171681</ele>
        <time>2022-12-27T16:37:48.437Z</time>
      </trkpt>
      <trkpt lat="44.45497" lon="-0.35247">
        <ele>90.281527</ele>
        <time>2022-12-27T16:37:52.434Z</time>
      </trkpt>
      <trkpt lat="44.45498" lon="-0.35231">
        <ele>90.415466</ele>
        <time>2022-12-27T16:37:56.437Z</time>
      </trkpt>
      <trkpt lat="44.45499" lon="-0.35215">
        <ele>90.551796</ele>
        <time>2022-12-27T16:38:00.459Z</time>
      </trkpt>
      <trkpt lat="44.45498" lon="-0.35198">
        <ele>90.698448</ele>
        <time>2022-12-27T16:38:04.461Z</time>
      </trkpt>
      <trkpt lat="44.45498" lon="-0.35183">
        <ele>90.825359</ele>
        <time>2022-12-27T16:38:07.459Z</time>
      </trkpt>
      <trkpt lat="44.45497" lon="-0.35169">
        <ele>90.949223</ele>
        <time>2022-12-27T16:38:10.457Z</time>
      </trkpt>
      <trkpt lat="44.45496" lon="-0.35155">
        <ele>91.06882</ele>
        <time>2022-12-27T16:38:13.457Z</time>
      </trkpt>
      <trkpt lat="44.45493" lon="-0.35137">
        <ele>91.22259</ele>
        <time>2022-12-27T16:38:16.460Z</time>
      </trkpt>
      <trkpt lat="44.45491" lon="-0.35121">
        <ele>91.350089</ele>
        <time>2022-12-27T16:38:19.462Z</time>
      </trkpt>
      <trkpt lat="44.4549" lon="-0.35106">
        <ele>91.455859</ele>
        <time>2022-12-27T16:38:22.459Z</time>
      </trkpt>
      <trkpt lat="44.45487" lon="-0.35089">
        <ele>91.578183</ele>
        <time>2022-12-27T16:38:25.439Z</time>
      </trkpt>
      <trkpt lat="44.45485" lon="-0.35074">
        <ele>91.688188</ele>
        <time>2022-12-27T16:38:28.459Z</time>
      </trkpt>
      <trkpt lat="44.45481" lon="-0.3506">
        <ele>91.796215</ele>
        <time>2022-12-27T16:38:31.460Z</time>
      </trkpt>
      <trkpt lat="44.45479" lon="-0.35046">
        <ele>91.898196</ele>
        <time>2022-12-27T16:38:34.463Z</time>
      </trkpt>
      <trkpt lat="44.45476" lon="-0.35032">
        <ele>92.006057</ele>
        <time>2022-12-27T16:38:37.460Z</time>
      </trkpt>
      <trkpt lat="44.45474" lon="-0.35015">
        <ele>92.128234</ele>
        <time>2022-12-27T16:38:40.461Z</time>
      </trkpt>
      <trkpt lat="44.45469" lon="-0.34999">
        <ele>92.251719</ele>
        <time>2022-12-27T16:38:43.461Z</time>
      </trkpt>
      <trkpt lat="44.45466" lon="-0.34984">
        <ele>92.366431</ele>
        <time>2022-12-27T16:38:46.454Z</time>
      </trkpt>
      <trkpt lat="44.45461" lon="-0.34969">
        <ele>92.477577</ele>
        <time>2022-12-27T16:38:49.459Z</time>
      </trkpt>
      <trkpt lat="44.45457" lon="-0.34955">
        <ele>92.592298</ele>
        <time>2022-12-27T16:38:52.457Z</time>
      </trkpt>
      <trkpt lat="44.45453" lon="-0.34943">
        <ele>92.687394</ele>
        <time>2022-12-27T16:38:55.452Z</time>
      </trkpt>
      <trkpt lat="44.45448" lon="-0.3493">
        <ele>92.787959</ele>
        <time>2022-12-27T16:38:58.463Z</time>
      </trkpt>
      <trkpt lat="44.45442" lon="-0.34915">
        <ele>92.908748</ele>
        <time>2022-12-27T16:39:01.452Z</time>
      </trkpt>
      <trkpt lat="44.45437" lon="-0.34902">
        <ele>93.017345</ele>
        <time>2022-12-27T16:39:04.462Z</time>
      </trkpt>
      <trkpt lat="44.45431" lon="-0.3489">
        <ele>93.117524</ele>
        <time>2022-12-27T16:39:07.456Z</time>
      </trkpt>
      <trkpt lat="44.45426" lon="-0.34879">
        <ele>93.205135</ele>
        <time>2022-12-27T16:39:10.460Z</time>
      </trkpt>
      <trkpt lat="44.45421" lon="-0.34868">
        <ele>93.296063</ele>
        <time>2022-12-27T16:39:14.459Z</time>
      </trkpt>
      <trkpt lat="44.45416" lon="-0.34857">
        <ele>93.386081</ele>
        <time>2022-12-27T16:39:18.458Z</time>
      </trkpt>
      <trkpt lat="44.4541" lon="-0.34843">
        <ele>93.500155</ele>
        <time>2022-12-27T16:39:22.460Z</time>
      </trkpt>
      <trkpt lat="44.45404" lon="-0.34833">
        <ele>93.586737</ele>
        <time>2022-12-27T16:39:25.458Z</time>
      </trkpt>
      <trkpt lat="44.45397" lon="-0.34821">
        <ele>93.696056</ele>
        <time>2022-12-27T16:39:28.459Z</time>
      </trkpt>
      <trkpt lat="44.4539" lon="-0.34809">
        <ele>93.795733</ele>
        <time>2022-12-27T16:39:31.451Z</time>
      </trkpt>
      <trkpt lat="44.45383" lon="-0.34797">
        <ele>93.90462</ele>
        <time>2022-12-27T16:39:34.463Z</time>
      </trkpt>
      <trkpt lat="44.45376" lon="-0.34784">
        <ele>94.012283</ele>
        <time>2022-12-27T16:39:37.452Z</time>
      </trkpt>
      <trkpt lat="44.45369" lon="-0.34773">
        <ele>94.110339</ele>
        <time>2022-12-27T16:39:40.460Z</time>
      </trkpt>
      <trkpt lat="44.45363" lon="-0.34762">
        <ele>94.207815</ele>
        <time>2022-12-27T16:39:43.460Z</time>
      </trkpt>
      <trkpt lat="44.45356" lon="-0.34749">
        <ele>94.315478</ele>
        <time>2022-12-27T16:39:46.461Z</time>
      </trkpt>
      <trkpt lat="44.45349" lon="-0.34737">
        <ele>94.423999</ele>
        <time>2022-12-27T16:39:49.461Z</time>
      </trkpt>
      <trkpt lat="44.45342" lon="-0.34725">
        <ele>94.527927</ele>
        <time>2022-12-27T16:39:52.459Z</time>
      </trkpt>
      <trkpt lat="44.45335" lon="-0.34712">
        <ele>94.639203</ele>
        <time>2022-12-27T16:39:55.457Z</time>
      </trkpt>
      <trkpt lat="44.45328" lon="-0.34699">
        <ele>94.752236</ele>
        <time>2022-12-27T16:39:58.451Z</time>
      </trkpt>
      <trkpt lat="44.45321" lon="-0.34685">
        <ele>94.95479</ele>
        <time>2022-12-27T16:40:01.458Z</time>
      </trkpt>
      <trkpt lat="44.45313" lon="-0.34673">
        <ele>95.1693</ele>
        <time>2022-12-27T16:40:04.455Z</time>
      </trkpt>
      <trkpt lat="44.45306" lon="-0.3466">
        <ele>95.392303</ele>
        <time>2022-12-27T16:40:07.459Z</time>
      </trkpt>
      <trkpt lat="44.45299" lon="-0.34646">
        <ele>95.609989</ele>
        <time>2022-12-27T16:40:10.455Z</time>
      </trkpt>
      <trkpt lat="44.45293" lon="-0.34633">
        <ele>95.826477</ele>
        <time>2022-12-27T16:40:13.461Z</time>
      </trkpt>
      <trkpt lat="44.45286" lon="-0.34618">
        <ele>96.056984</ele>
        <time>2022-12-27T16:40:16.458Z</time>
      </trkpt>
      <trkpt lat="44.45279" lon="-0.34604">
        <ele>96.272905</ele>
        <time>2022-12-27T16:40:19.455Z</time>
      </trkpt>
      <trkpt lat="44.45274" lon="-0.34592">
        <ele>96.472316</ele>
        <time>2022-12-27T16:40:22.462Z</time>
      </trkpt>
      <trkpt lat="44.45269" lon="-0.34579">
        <ele>96.664243</ele>
        <time>2022-12-27T16:40:25.457Z</time>
      </trkpt>
      <trkpt lat="44.45263" lon="-0.34566">
        <ele>96.858227</ele>
        <time>2022-12-27T16:40:28.466Z</time>
      </trkpt>
      <trkpt lat="44.45259" lon="-0.34553">
        <ele>97.051065</ele>
        <time>2022-12-27T16:40:31.458Z</time>
      </trkpt>
      <trkpt lat="44.45255" lon="-0.3454">
        <ele>97.240641</ele>
        <time>2022-12-27T16:40:34.440Z</time>
      </trkpt>
      <trkpt lat="44.45251" lon="-0.34527">
        <ele>97.419559</ele>
        <time>2022-12-27T16:40:37.461Z</time>
      </trkpt>
      <trkpt lat="44.45248" lon="-0.34514">
        <ele>97.612115</ele>
        <time>2022-12-27T16:40:40.460Z</time>
      </trkpt>
      <trkpt lat="44.45244" lon="-0.34499">
        <ele>97.814669</ele>
        <time>2022-12-27T16:40:43.458Z</time>
      </trkpt>
      <trkpt lat="44.4524" lon="-0.34484">
        <ele>98.026122</ele>
        <time>2022-12-27T16:40:46.458Z</time>
      </trkpt>
      <trkpt lat="44.45238" lon="-0.34469">
        <ele>98.256669</ele>
        <time>2022-12-27T16:40:49.469Z</time>
      </trkpt>
      <trkpt lat="44.45234" lon="-0.34454">
        <ele>98.484898</ele>
        <time>2022-12-27T16:40:52.458Z</time>
      </trkpt>
      <trkpt lat="44.4523" lon="-0.3444">
        <ele>98.718851</ele>
        <time>2022-12-27T16:40:56.462Z</time>
      </trkpt>
      <trkpt lat="44.45228" lon="-0.34427">
        <ele>98.91236</ele>
        <time>2022-12-27T16:40:59.441Z</time>
      </trkpt>
      <trkpt lat="44.45227" lon="-0.34413">
        <ele>99.130177</ele>
        <time>2022-12-27T16:41:02.447Z</time>
      </trkpt>
      <trkpt lat="44.45225" lon="-0.34397">
        <ele>99.369811</ele>
        <time>2022-12-27T16:41:05.459Z</time>
      </trkpt>
      <trkpt lat="44.45224" lon="-0.34382">
        <ele>99.602324</ele>
        <time>2022-12-27T16:41:08.456Z</time>
      </trkpt>
      <trkpt lat="44.45223" lon="-0.34368">
        <ele>99.824972</ele>
        <time>2022-12-27T16:41:11.444Z</time>
      </trkpt>
      <trkpt lat="44.45222" lon="-0.34351">
        <ele>100.071684</ele>
        <time>2022-12-27T16:41:14.462Z</time>
      </trkpt>
      <trkpt lat="44.45221" lon="-0.34335">
        <ele>100.315562</ele>
        <time>2022-12-27T16:41:17.445Z</time>
      </trkpt>
      <trkpt lat="44.45219" lon="-0.34319">
        <ele>100.557591</ele>
        <time>2022-12-27T16:41:20.460Z</time>
      </trkpt>
      <trkpt lat="44.45218" lon="-0.34305">
        <ele>100.770408</ele>
        <time>2022-12-27T16:41:23.454Z</time>
      </trkpt>
      <trkpt lat="44.45216" lon="-0.34289">
        <ele>101.016666</ele>
        <time>2022-12-27T16:41:26.460Z</time>
      </trkpt>
      <trkpt lat="44.45214" lon="-0.34273">
        <ele>101.262924</ele>
        <time>2022-12-27T16:41:29.460Z</time>
      </trkpt>
      <trkpt lat="44.45212" lon="-0.34258">
        <ele>101.495442</ele>
        <time>2022-12-27T16:41:32.448Z</time>
      </trkpt>
      <trkpt lat="44.45212" lon="-0.34244">
        <ele>101.704379</ele>
        <time>2022-12-27T16:41:35.456Z</time>
      </trkpt>
      <trkpt lat="44.45211" lon="-0.3423">
        <ele>101.912006</ele>
        <time>2022-12-27T16:41:38.461Z</time>
      </trkpt>
      <trkpt lat="44.45211" lon="-0.34218">
        <ele>102.151458</ele>
        <time>2022-12-27T16:41:41.459Z</time>
      </trkpt>
      <trkpt lat="44.45208" lon="-0.34202">
        <ele>102.448809</ele>
        <time>2022-12-27T16:41:44.460Z</time>
      </trkpt>
      <trkpt lat="44.45207" lon="-0.34186">
        <ele>102.751167</ele>
        <time>2022-12-27T16:41:48.459Z</time>
      </trkpt>
      <trkpt lat="44.45207" lon="-0.3417">
        <ele>103.051751</ele>
        <time>2022-12-27T16:41:52.461Z</time>
      </trkpt>
      <trkpt lat="44.45205" lon="-0.34155">
        <ele>103.323403</ele>
        <time>2022-12-27T16:41:55.458Z</time>
      </trkpt>
      <trkpt lat="44.45204" lon="-0.34141">
        <ele>103.589142</ele>
        <time>2022-12-27T16:41:58.457Z</time>
      </trkpt>
      <trkpt lat="44.45204" lon="-0.34128">
        <ele>103.843013</ele>
        <time>2022-12-27T16:42:01.460Z</time>
      </trkpt>
      <trkpt lat="44.45203" lon="-0.34115">
        <ele>104.087089</ele>
        <time>2022-12-27T16:42:04.462Z</time>
      </trkpt>
      <trkpt lat="44.45201" lon="-0.341">
        <ele>104.371115</ele>
        <time>2022-12-27T16:42:07.461Z</time>
      </trkpt>
      <trkpt lat="44.452" lon="-0.34084">
        <ele>104.669311</ele>
        <time>2022-12-27T16:42:10.452Z</time>
      </trkpt>
      <trkpt lat="44.45198" lon="-0.34071">
        <ele>104.91805</ele>
        <time>2022-12-27T16:42:13.459Z</time>
      </trkpt>
      <trkpt lat="44.45197" lon="-0.34055">
        <ele>105.219724</ele>
        <time>2022-12-27T16:42:16.462Z</time>
      </trkpt>
      <trkpt lat="44.45197" lon="-0.34041">
        <ele>105.475943</ele>
        <time>2022-12-27T16:42:19.461Z</time>
      </trkpt>
      <trkpt lat="44.45194" lon="-0.34025">
        <ele>105.773296</ele>
        <time>2022-12-27T16:42:22.459Z</time>
      </trkpt>
      <trkpt lat="44.45193" lon="-0.3401">
        <ele>106.062203</ele>
        <time>2022-12-27T16:42:25.438Z</time>
      </trkpt>
      <trkpt lat="44.45192" lon="-0.33994">
        <ele>106.357889</ele>
        <time>2022-12-27T16:42:28.460Z</time>
      </trkpt>
      <trkpt lat="44.45191" lon="-0.33982">
        <ele>106.595191</ele>
        <time>2022-12-27T16:42:31.464Z</time>
      </trkpt>
      <trkpt lat="44.45191" lon="-0.33965">
        <ele>106.649317</ele>
        <time>2022-12-27T16:42:35.458Z</time>
      </trkpt>
      <trkpt lat="44.4519" lon="-0.3395">
        <ele>106.683924</ele>
        <time>2022-12-27T16:42:38.460Z</time>
      </trkpt>
      <trkpt lat="44.45189" lon="-0.33933">
        <ele>106.724973</ele>
        <time>2022-12-27T16:42:42.451Z</time>
      </trkpt>
      <trkpt lat="44.45189" lon="-0.33918">
        <ele>106.760408</ele>
        <time>2022-12-27T16:42:45.456Z</time>
      </trkpt>
      <trkpt lat="44.45188" lon="-0.33903">
        <ele>106.79422</ele>
        <time>2022-12-27T16:42:48.438Z</time>
      </trkpt>
      <trkpt lat="44.45187" lon="-0.3389">
        <ele>106.825477</ele>
        <time>2022-12-27T16:42:51.459Z</time>
      </trkpt>
      <trkpt lat="44.45186" lon="-0.33876">
        <ele>106.858289</ele>
        <time>2022-12-27T16:42:54.457Z</time>
      </trkpt>
      <trkpt lat="44.45184" lon="-0.33862">
        <ele>106.892113</ele>
        <time>2022-12-27T16:42:57.459Z</time>
      </trkpt>
      <trkpt lat="44.45181" lon="-0.33847">
        <ele>106.928882</ele>
        <time>2022-12-27T16:43:00.451Z</time>
      </trkpt>
      <trkpt lat="44.45179" lon="-0.33831">
        <ele>106.96726</ele>
        <time>2022-12-27T16:43:03.459Z</time>
      </trkpt>
      <trkpt lat="44.45176" lon="-0.33816">
        <ele>107.005252</ele>
        <time>2022-12-27T16:43:06.453Z</time>
      </trkpt>
      <trkpt lat="44.45173" lon="-0.33799">
        <ele>107.044696</ele>
        <time>2022-12-27T16:43:09.461Z</time>
      </trkpt>
      <trkpt lat="44.45171" lon="-0.33784">
        <ele>107.082615</ele>
        <time>2022-12-27T16:43:12.459Z</time>
      </trkpt>
      <trkpt lat="44.45168" lon="-0.33769">
        <ele>107.117941</ele>
        <time>2022-12-27T16:43:15.459Z</time>
      </trkpt>
      <trkpt lat="44.45164" lon="-0.33753">
        <ele>107.157971</ele>
        <time>2022-12-27T16:43:18.460Z</time>
      </trkpt>
      <trkpt lat="44.45161" lon="-0.33738">
        <ele>107.194649</ele>
        <time>2022-12-27T16:43:21.461Z</time>
      </trkpt>
      <trkpt lat="44.45158" lon="-0.33723">
        <ele>107.290808</ele>
        <time>2022-12-27T16:43:24.462Z</time>
      </trkpt>
      <trkpt lat="44.45154" lon="-0.33708">
        <ele>107.409837</ele>
        <time>2022-12-27T16:43:27.462Z</time>
      </trkpt>
      <trkpt lat="44.45151" lon="-0.33692">
        <ele>107.535678</ele>
        <time>2022-12-27T16:43:30.464Z</time>
      </trkpt>
      <trkpt lat="44.45147" lon="-0.33677">
        <ele>107.655511</ele>
        <time>2022-12-27T16:43:33.462Z</time>
      </trkpt>
      <trkpt lat="44.45144" lon="-0.33663">
        <ele>107.774301</ele>
        <time>2022-12-27T16:43:36.461Z</time>
      </trkpt>
      <trkpt lat="44.45141" lon="-0.33649">
        <ele>107.885756</ele>
        <time>2022-12-27T16:43:39.460Z</time>
      </trkpt>
      <trkpt lat="44.45137" lon="-0.33634">
        <ele>108.003681</ele>
        <time>2022-12-27T16:43:42.461Z</time>
      </trkpt>
      <trkpt lat="44.45133" lon="-0.33619">
        <ele>108.125982</ele>
        <time>2022-12-27T16:43:45.447Z</time>
      </trkpt>
      <trkpt lat="44.45129" lon="-0.33606">
        <ele>108.239813</ele>
        <time>2022-12-27T16:43:48.464Z</time>
      </trkpt>
      <trkpt lat="44.45124" lon="-0.33591">
        <ele>108.362825</ele>
        <time>2022-12-27T16:43:51.461Z</time>
      </trkpt>
      <trkpt lat="44.4512" lon="-0.33577">
        <ele>108.480938</ele>
        <time>2022-12-27T16:43:54.461Z</time>
      </trkpt>
      <trkpt lat="44.45115" lon="-0.33563">
        <ele>108.598854</ele>
        <time>2022-12-27T16:43:57.456Z</time>
      </trkpt>
      <trkpt lat="44.45111" lon="-0.33549">
        <ele>108.714089</ele>
        <time>2022-12-27T16:44:00.463Z</time>
      </trkpt>
      <trkpt lat="44.45107" lon="-0.33537">
        <ele>108.812484</ele>
        <time>2022-12-27T16:44:03.461Z</time>
      </trkpt>
      <trkpt lat="44.45102" lon="-0.33522">
        <ele>108.937169</ele>
        <time>2022-12-27T16:44:07.460Z</time>
      </trkpt>
      <trkpt lat="44.45097" lon="-0.3351">
        <ele>109.04486</ele>
        <time>2022-12-27T16:44:10.464Z</time>
      </trkpt>
      <trkpt lat="44.45092" lon="-0.33496">
        <ele>109.220127</ele>
        <time>2022-12-27T16:44:13.462Z</time>
      </trkpt>
      <trkpt lat="44.45086" lon="-0.33482">
        <ele>109.529685</ele>
        <time>2022-12-27T16:44:16.462Z</time>
      </trkpt>
      <trkpt lat="44.4508" lon="-0.33468">
        <ele>109.836793</ele>
        <time>2022-12-27T16:44:19.463Z</time>
      </trkpt>
      <trkpt lat="44.45074" lon="-0.33453">
        <ele>110.172967</ele>
        <time>2022-12-27T16:44:22.463Z</time>
      </trkpt>
      <trkpt lat="44.45068" lon="-0.3344">
        <ele>110.46525</ele>
        <time>2022-12-27T16:44:25.457Z</time>
      </trkpt>
      <trkpt lat="44.45062" lon="-0.33428">
        <ele>110.749265</ele>
        <time>2022-12-27T16:44:28.458Z</time>
      </trkpt>
      <trkpt lat="44.45057" lon="-0.33416">
        <ele>111.020438</ele>
        <time>2022-12-27T16:44:31.460Z</time>
      </trkpt>
      <trkpt lat="44.45052" lon="-0.33404">
        <ele>111.283073</ele>
        <time>2022-12-27T16:44:34.460Z</time>
      </trkpt>
      <trkpt lat="44.45047" lon="-0.33393">
        <ele>111.527902</ele>
        <time>2022-12-27T16:44:37.438Z</time>
      </trkpt>
      <trkpt lat="44.45041" lon="-0.33381">
        <ele>111.808633</ele>
        <time>2022-12-27T16:44:40.459Z</time>
      </trkpt>
      <trkpt lat="44.45035" lon="-0.3337">
        <ele>112.083073</ele>
        <time>2022-12-27T16:44:43.460Z</time>
      </trkpt>
      <trkpt lat="44.4503" lon="-0.33359">
        <ele>112.328235</ele>
        <time>2022-12-27T16:44:46.458Z</time>
      </trkpt>
      <trkpt lat="44.45024" lon="-0.33345">
        <ele>112.637386</ele>
        <time>2022-12-27T16:44:49.465Z</time>
      </trkpt>
      <trkpt lat="44.45017" lon="-0.33331">
        <ele>112.97425</ele>
        <time>2022-12-27T16:44:52.459Z</time>
      </trkpt>
      <trkpt lat="44.45011" lon="-0.33318">
        <ele>113.25966</ele>
        <time>2022-12-27T16:44:55.459Z</time>
      </trkpt>
      <trkpt lat="44.45006" lon="-0.33305">
        <ele>113.542566</ele>
        <time>2022-12-27T16:44:58.461Z</time>
      </trkpt>
      <trkpt lat="44.45" lon="-0.33291">
        <ele>113.869976</ele>
        <time>2022-12-27T16:45:01.463Z</time>
      </trkpt>
      <trkpt lat="44.44994" lon="-0.33276">
        <ele>113.81792</ele>
        <time>2022-12-27T16:45:04.461Z</time>
      </trkpt>
      <trkpt lat="44.44988" lon="-0.33262">
        <ele>113.636411</ele>
        <time>2022-12-27T16:45:07.461Z</time>
      </trkpt>
      <trkpt lat="44.44981" lon="-0.33248">
        <ele>113.454311</ele>
        <time>2022-12-27T16:45:10.445Z</time>
      </trkpt>
      <trkpt lat="44.44975" lon="-0.33235">
        <ele>113.275019</ele>
        <time>2022-12-27T16:45:13.461Z</time>
      </trkpt>
      <trkpt lat="44.44968" lon="-0.3322">
        <ele>113.073038</ele>
        <time>2022-12-27T16:45:16.462Z</time>
      </trkpt>
      <trkpt lat="44.44961" lon="-0.33206">
        <ele>112.879287</ele>
        <time>2022-12-27T16:45:19.460Z</time>
      </trkpt>
      <trkpt lat="44.44953" lon="-0.3319">
        <ele>112.668289</ele>
        <time>2022-12-27T16:45:22.462Z</time>
      </trkpt>
      <trkpt lat="44.44948" lon="-0.33179">
        <ele>112.517205</ele>
        <time>2022-12-27T16:45:24.461Z</time>
      </trkpt>
      <trkpt lat="44.44941" lon="-0.33164">
        <ele>112.322317</ele>
        <time>2022-12-27T16:45:27.459Z</time>
      </trkpt>
      <trkpt lat="44.44934" lon="-0.33151">
        <ele>112.134963</ele>
        <time>2022-12-27T16:45:30.462Z</time>
      </trkpt>
      <trkpt lat="44.44928" lon="-0.33138">
        <ele>111.962711</ele>
        <time>2022-12-27T16:45:33.458Z</time>
      </trkpt>
      <trkpt lat="44.44921" lon="-0.33122">
        <ele>111.758927</ele>
        <time>2022-12-27T16:45:36.459Z</time>
      </trkpt>
      <trkpt lat="44.44915" lon="-0.33107">
        <ele>111.562335</ele>
        <time>2022-12-27T16:45:39.443Z</time>
      </trkpt>
      <trkpt lat="44.44908" lon="-0.33092">
        <ele>111.357267</ele>
        <time>2022-12-27T16:45:42.459Z</time>
      </trkpt>
      <trkpt lat="44.449" lon="-0.33076">
        <ele>111.151678</ele>
        <time>2022-12-27T16:45:45.459Z</time>
      </trkpt>
      <trkpt lat="44.44894" lon="-0.33062">
        <ele>111.404327</ele>
        <time>2022-12-27T16:45:48.461Z</time>
      </trkpt>
      <trkpt lat="44.44887" lon="-0.33048">
        <ele>111.676853</ele>
        <time>2022-12-27T16:45:51.460Z</time>
      </trkpt>
      <trkpt lat="44.44881" lon="-0.33035">
        <ele>111.930364</ele>
        <time>2022-12-27T16:45:54.463Z</time>
      </trkpt>
      <trkpt lat="44.44875" lon="-0.33023">
        <ele>112.174512</ele>
        <time>2022-12-27T16:45:57.461Z</time>
      </trkpt>
      <trkpt lat="44.44869" lon="-0.3301">
        <ele>112.434657</ele>
        <time>2022-12-27T16:46:00.451Z</time>
      </trkpt>
      <trkpt lat="44.44863" lon="-0.32995">
        <ele>112.707185</ele>
        <time>2022-12-27T16:46:03.462Z</time>
      </trkpt>
      <trkpt lat="44.44856" lon="-0.32983">
        <ele>112.957879</ele>
        <time>2022-12-27T16:46:06.458Z</time>
      </trkpt>
      <trkpt lat="44.44851" lon="-0.32972">
        <ele>113.183249</ele>
        <time>2022-12-27T16:46:09.453Z</time>
      </trkpt>
      <trkpt lat="44.44844" lon="-0.3296">
        <ele>113.431282</ele>
        <time>2022-12-27T16:46:12.434Z</time>
      </trkpt>
      <trkpt lat="44.44837" lon="-0.32946">
        <ele>113.718138</ele>
        <time>2022-12-27T16:46:15.462Z</time>
      </trkpt>
      <trkpt lat="44.44832" lon="-0.32934">
        <ele>113.939785</ele>
        <time>2022-12-27T16:46:17.440Z</time>
      </trkpt>
      <trkpt lat="44.44827" lon="-0.32923">
        <ele>114.154823</ele>
        <time>2022-12-27T16:46:19.462Z</time>
      </trkpt>
      <trkpt lat="44.44821" lon="-0.32911">
        <ele>114.384464</ele>
        <time>2022-12-27T16:46:21.462Z</time>
      </trkpt>
      <trkpt lat="44.44816" lon="-0.32901">
        <ele>114.595254</ele>
        <time>2022-12-27T16:46:23.455Z</time>
      </trkpt>
      <trkpt lat="44.44809" lon="-0.32885">
        <ele>114.902123</ele>
        <time>2022-12-27T16:46:26.461Z</time>
      </trkpt>
      <trkpt lat="44.44803" lon="-0.32874">
        <ele>115.134233</ele>
        <time>2022-12-27T16:46:28.457Z</time>
      </trkpt>
      <trkpt lat="44.44798" lon="-0.32863">
        <ele>115.374537</ele>
        <time>2022-12-27T16:46:30.463Z</time>
      </trkpt>
      <trkpt lat="44.44793" lon="-0.32852">
        <ele>115.671778</ele>
        <time>2022-12-27T16:46:32.464Z</time>
      </trkpt>
      <trkpt lat="44.44786" lon="-0.32837">
        <ele>116.087909</ele>
        <time>2022-12-27T16:46:35.460Z</time>
      </trkpt>
      <trkpt lat="44.4478" lon="-0.32823">
        <ele>116.464642</ele>
        <time>2022-12-27T16:46:38.440Z</time>
      </trkpt>
      <trkpt lat="44.44774" lon="-0.3281">
        <ele>116.830474</ele>
        <time>2022-12-27T16:46:41.460Z</time>
      </trkpt>
      <trkpt lat="44.44768" lon="-0.32798">
        <ele>117.145556</ele>
        <time>2022-12-27T16:46:44.462Z</time>
      </trkpt>
      <trkpt lat="44.44764" lon="-0.32787">
        <ele>117.453654</ele>
        <time>2022-12-27T16:46:47.459Z</time>
      </trkpt>
      <trkpt lat="44.44759" lon="-0.32775">
        <ele>117.776318</ele>
        <time>2022-12-27T16:46:50.460Z</time>
      </trkpt>
      <trkpt lat="44.44753" lon="-0.32763">
        <ele>118.094438</ele>
        <time>2022-12-27T16:46:53.461Z</time>
      </trkpt>
      <trkpt lat="44.44747" lon="-0.3275">
        <ele>118.468141</ele>
        <time>2022-12-27T16:46:56.462Z</time>
      </trkpt>
      <trkpt lat="44.44741" lon="-0.32735">
        <ele>118.854816</ele>
        <time>2022-12-27T16:46:59.459Z</time>
      </trkpt>
      <trkpt lat="44.44734" lon="-0.32721">
        <ele>119.244773</ele>
        <time>2022-12-27T16:47:02.462Z</time>
      </trkpt>
      <trkpt lat="44.44727" lon="-0.32707">
        <ele>119.638195</ele>
        <time>2022-12-27T16:47:05.461Z</time>
      </trkpt>
      <trkpt lat="44.4472" lon="-0.32693">
        <ele>120.039141</ele>
        <time>2022-12-27T16:47:08.461Z</time>
      </trkpt>
      <trkpt lat="44.44715" lon="-0.32682">
        <ele>120.355725</ele>
        <time>2022-12-27T16:47:10.462Z</time>
      </trkpt>
      <trkpt lat="44.44708" lon="-0.32667">
        <ele>120.755203</ele>
        <time>2022-12-27T16:47:13.467Z</time>
      </trkpt>
      <trkpt lat="44.44702" lon="-0.32654">
        <ele>121.093678</ele>
        <time>2022-12-27T16:47:16.463Z</time>
      </trkpt>
      <trkpt lat="44.44696" lon="-0.3264">
        <ele>121.062187</ele>
        <time>2022-12-27T16:47:19.453Z</time>
      </trkpt>
      <trkpt lat="44.44689" lon="-0.32625">
        <ele>121.027897</ele>
        <time>2022-12-27T16:47:22.462Z</time>
      </trkpt>
      <trkpt lat="44.44682" lon="-0.32611">
        <ele>120.996107</ele>
        <time>2022-12-27T16:47:25.448Z</time>
      </trkpt>
      <trkpt lat="44.44675" lon="-0.32597">
        <ele>120.962269</ele>
        <time>2022-12-27T16:47:28.460Z</time>
      </trkpt>
      <trkpt lat="44.44668" lon="-0.32582">
        <ele>120.92906</ele>
        <time>2022-12-27T16:47:31.462Z</time>
      </trkpt>
      <trkpt lat="44.44663" lon="-0.32568">
        <ele>120.89776</ele>
        <time>2022-12-27T16:47:34.462Z</time>
      </trkpt>
      <trkpt lat="44.44657" lon="-0.32556">
        <ele>120.869264</ele>
        <time>2022-12-27T16:47:37.462Z</time>
      </trkpt>
      <trkpt lat="44.44651" lon="-0.32543">
        <ele>120.84041</ele>
        <time>2022-12-27T16:47:40.470Z</time>
      </trkpt>
      <trkpt lat="44.44645" lon="-0.3253">
        <ele>120.811229</ele>
        <time>2022-12-27T16:47:43.462Z</time>
      </trkpt>
      <trkpt lat="44.44639" lon="-0.32516">
        <ele>120.779398</ele>
        <time>2022-12-27T16:47:46.462Z</time>
      </trkpt>
      <trkpt lat="44.44633" lon="-0.32503">
        <ele>120.748504</ele>
        <time>2022-12-27T16:47:49.465Z</time>
      </trkpt>
      <trkpt lat="44.44628" lon="-0.32492">
        <ele>120.72415</ele>
        <time>2022-12-27T16:47:52.459Z</time>
      </trkpt>
      <trkpt lat="44.44623" lon="-0.3248">
        <ele>120.697497</ele>
        <time>2022-12-27T16:47:55.461Z</time>
      </trkpt>
      <trkpt lat="44.44617" lon="-0.32468">
        <ele>120.670068</ele>
        <time>2022-12-27T16:47:58.462Z</time>
      </trkpt>
      <trkpt lat="44.44612" lon="-0.32457">
        <ele>120.644985</ele>
        <time>2022-12-27T16:48:01.462Z</time>
      </trkpt>
      <trkpt lat="44.44607" lon="-0.32445">
        <ele>120.617429</ele>
        <time>2022-12-27T16:48:04.461Z</time>
      </trkpt>
      <trkpt lat="44.44601" lon="-0.32433">
        <ele>120.611499</ele>
        <time>2022-12-27T16:48:07.460Z</time>
      </trkpt>
      <trkpt lat="44.44595" lon="-0.32421">
        <ele>120.611499</ele>
        <time>2022-12-27T16:48:10.459Z</time>
      </trkpt>
      <trkpt lat="44.44589" lon="-0.32409">
        <ele>120.611499</ele>
        <time>2022-12-27T16:48:13.464Z</time>
      </trkpt>
      <trkpt lat="44.44583" lon="-0.32395">
        <ele>120.611499</ele>
        <time>2022-12-27T16:48:16.444Z</time>
      </trkpt>
      <trkpt lat="44.44577" lon="-0.32383">
        <ele>120.611499</ele>
        <time>2022-12-27T16:48:19.444Z</time>
      </trkpt>
      <trkpt lat="44.44571" lon="-0.32371">
        <ele>120.611499</ele>
        <time>2022-12-27T16:48:22.461Z</time>
      </trkpt>
      <trkpt lat="44.44565" lon="-0.32358">
        <ele>120.611499</ele>
        <time>2022-12-27T16:48:25.461Z</time>
      </trkpt>
      <trkpt lat="44.4456" lon="-0.32344">
        <ele>120.611499</ele>
        <time>2022-12-27T16:48:28.464Z</time>
      </trkpt>
      <trkpt lat="44.44554" lon="-0.3233">
        <ele>120.611499</ele>
        <time>2022-12-27T16:48:31.460Z</time>
      </trkpt>
      <trkpt lat="44.44548" lon="-0.32316">
        <ele>120.611499</ele>
        <time>2022-12-27T16:48:34.460Z</time>
      </trkpt>
      <trkpt lat="44.44542" lon="-0.32302">
        <ele>120.611499</ele>
        <time>2022-12-27T16:48:37.463Z</time>
      </trkpt>
      <trkpt lat="44.44536" lon="-0.32287">
        <ele>120.611499</ele>
        <time>2022-12-27T16:48:40.463Z</time>
      </trkpt>
      <trkpt lat="44.4453" lon="-0.32273">
        <ele>120.611499</ele>
        <time>2022-12-27T16:48:43.462Z</time>
      </trkpt>
      <trkpt lat="44.44526" lon="-0.3226">
        <ele>120.611499</ele>
        <time>2022-12-27T16:48:46.458Z</time>
      </trkpt>
      <trkpt lat="44.44522" lon="-0.32247">
        <ele>120.611499</ele>
        <time>2022-12-27T16:48:50.463Z</time>
      </trkpt>
      <trkpt lat="44.44517" lon="-0.32235">
        <ele>120.611499</ele>
        <time>2022-12-27T16:48:54.444Z</time>
      </trkpt>
      <trkpt lat="44.44511" lon="-0.3222">
        <ele>120.611499</ele>
        <time>2022-12-27T16:48:58.460Z</time>
      </trkpt>
      <trkpt lat="44.44506" lon="-0.32206">
        <ele>120.611499</ele>
        <time>2022-12-27T16:49:02.460Z</time>
      </trkpt>
      <trkpt lat="44.445" lon="-0.32192">
        <ele>120.611499</ele>
        <time>2022-12-27T16:49:06.461Z</time>
      </trkpt>
      <trkpt lat="44.44495" lon="-0.3218">
        <ele>120.611499</ele>
        <time>2022-12-27T16:49:10.462Z</time>
      </trkpt>
      <trkpt lat="44.44489" lon="-0.32168">
        <ele>120.611499</ele>
        <time>2022-12-27T16:49:15.440Z</time>
      </trkpt>
      <trkpt lat="44.44488" lon="-0.32165">
        <ele>120.611499</ele>
        <time>2022-12-27T16:49:25.638Z</time>
        <extensions>
          <visugpx:TrkExtension xmlns:visugpx="https://www.visugpx.com/editgpx/">
            <visugpx:node>1</visugpx:node>
            </visugpx:TrkExtension>
        </extensions>
      </trkpt>
    </trkseg>
  </trk>
  <trk>
    <name><![CDATA[Uzeste - Caureyges]]></name>
    <extensions>
      <line xmlns="http://www.topografix.com/GPX/gpx_style/0/2">
        <color>ff0000</color>
        <width>4</width>
      </line>
    </extensions>
    <trkseg>
      <trkpt lat="44.44086" lon="-0.31955">
        <ele>112.241743</ele>
        <time>2022-12-28T11:11:00.853Z</time>
      </trkpt>
      <trkpt lat="44.44087" lon="-0.31969">
        <ele>112.241743</ele>
        <time>2022-12-28T11:11:10.706Z</time>
      </trkpt>
      <trkpt lat="44.4409" lon="-0.31983">
        <ele>112.241743</ele>
        <time>2022-12-28T11:11:16.703Z</time>
      </trkpt>
      <trkpt lat="44.44091" lon="-0.31998">
        <ele>112.241743</ele>
        <time>2022-12-28T11:11:21.725Z</time>
      </trkpt>
      <trkpt lat="44.44092" lon="-0.32011">
        <ele>112.241743</ele>
        <time>2022-12-28T11:11:41.716Z</time>
      </trkpt>
      <trkpt lat="44.44093" lon="-0.32027">
        <ele>112.241743</ele>
        <time>2022-12-28T11:11:46.725Z</time>
      </trkpt>
      <trkpt lat="44.44093" lon="-0.3204">
        <ele>112.241743</ele>
        <time>2022-12-28T11:11:49.724Z</time>
      </trkpt>
      <trkpt lat="44.44094" lon="-0.32055">
        <ele>112.241743</ele>
        <time>2022-12-28T11:11:53.722Z</time>
      </trkpt>
      <trkpt lat="44.44096" lon="-0.32069">
        <ele>112.241743</ele>
        <time>2022-12-28T11:11:57.719Z</time>
      </trkpt>
      <trkpt lat="44.44097" lon="-0.32081">
        <ele>112.259001</ele>
        <time>2022-12-28T11:12:00.702Z</time>
      </trkpt>
      <trkpt lat="44.44099" lon="-0.32095">
        <ele>112.37876</ele>
        <time>2022-12-28T11:12:03.719Z</time>
      </trkpt>
      <trkpt lat="44.441" lon="-0.32111">
        <ele>112.517686</ele>
        <time>2022-12-28T11:12:06.725Z</time>
      </trkpt>
      <trkpt lat="44.44101" lon="-0.32127">
        <ele>112.662027</ele>
        <time>2022-12-28T11:12:09.727Z</time>
      </trkpt>
      <trkpt lat="44.44102" lon="-0.32143">
        <ele>112.802583</ele>
        <time>2022-12-28T11:12:12.722Z</time>
      </trkpt>
      <trkpt lat="44.44103" lon="-0.32159">
        <ele>112.94094</ele>
        <time>2022-12-28T11:12:15.725Z</time>
      </trkpt>
      <trkpt lat="44.44105" lon="-0.32174">
        <ele>113.07126</ele>
        <time>2022-12-28T11:12:18.714Z</time>
      </trkpt>
      <trkpt lat="44.44105" lon="-0.32188">
        <ele>113.201247</ele>
        <time>2022-12-28T11:12:21.723Z</time>
      </trkpt>
      <trkpt lat="44.44107" lon="-0.32203">
        <ele>113.333494</ele>
        <time>2022-12-28T11:12:24.713Z</time>
      </trkpt>
      <trkpt lat="44.44109" lon="-0.32217">
        <ele>113.453058</ele>
        <time>2022-12-28T11:12:27.705Z</time>
      </trkpt>
      <trkpt lat="44.4411" lon="-0.3223">
        <ele>113.573706</ele>
        <time>2022-12-28T11:12:30.726Z</time>
      </trkpt>
      <trkpt lat="44.44111" lon="-0.32245">
        <ele>113.699573</ele>
        <time>2022-12-28T11:12:33.706Z</time>
      </trkpt>
      <trkpt lat="44.44113" lon="-0.32257">
        <ele>113.812531</ele>
        <time>2022-12-28T11:12:36.725Z</time>
      </trkpt>
      <trkpt lat="44.44116" lon="-0.3227">
        <ele>113.925888</ele>
        <time>2022-12-28T11:12:39.702Z</time>
      </trkpt>
      <trkpt lat="44.44119" lon="-0.32283">
        <ele>114.04999</ele>
        <time>2022-12-28T11:12:42.725Z</time>
      </trkpt>
      <trkpt lat="44.44123" lon="-0.32296">
        <ele>114.172014</ele>
        <time>2022-12-28T11:12:45.725Z</time>
      </trkpt>
      <trkpt lat="44.44127" lon="-0.32309">
        <ele>114.295894</ele>
        <time>2022-12-28T11:12:48.722Z</time>
      </trkpt>
      <trkpt lat="44.4413" lon="-0.32322">
        <ele>114.413983</ele>
        <time>2022-12-28T11:12:51.714Z</time>
      </trkpt>
      <trkpt lat="44.44136" lon="-0.32332">
        <ele>114.413673</ele>
        <time>2022-12-28T11:12:55.713Z</time>
      </trkpt>
      <trkpt lat="44.44146" lon="-0.32332">
        <ele>114.365354</ele>
        <time>2022-12-28T11:13:02.716Z</time>
      </trkpt>
      <trkpt lat="44.44166" lon="-0.32324">
        <ele>114.263271</ele>
        <time>2022-12-28T11:13:48.702Z</time>
      </trkpt>
      <trkpt lat="44.44174" lon="-0.32331">
        <ele>114.218956</ele>
        <time>2022-12-28T11:14:00.704Z</time>
      </trkpt>
      <trkpt lat="44.44185" lon="-0.32329">
        <ele>114.16493</ele>
        <time>2022-12-28T11:14:06.706Z</time>
      </trkpt>
      <trkpt lat="44.44195" lon="-0.32327">
        <ele>114.117819</ele>
        <time>2022-12-28T11:14:09.724Z</time>
      </trkpt>
      <trkpt lat="44.44207" lon="-0.32326">
        <ele>114.057816</ele>
        <time>2022-12-28T11:14:11.726Z</time>
      </trkpt>
      <trkpt lat="44.44221" lon="-0.32324">
        <ele>113.990642</ele>
        <time>2022-12-28T11:14:14.724Z</time>
      </trkpt>
      <trkpt lat="44.4423" lon="-0.32324">
        <ele>113.946679</ele>
        <time>2022-12-28T11:14:16.714Z</time>
      </trkpt>
      <trkpt lat="44.4424" lon="-0.3232">
        <ele>113.895451</ele>
        <time>2022-12-28T11:14:18.717Z</time>
      </trkpt>
      <trkpt lat="44.44252" lon="-0.32313">
        <ele>113.835325</ele>
        <time>2022-12-28T11:14:21.711Z</time>
      </trkpt>
      <trkpt lat="44.44262" lon="-0.32306">
        <ele>113.78151</ele>
        <time>2022-12-28T11:14:24.702Z</time>
      </trkpt>
      <trkpt lat="44.44272" lon="-0.323">
        <ele>113.729895</ele>
        <time>2022-12-28T11:14:27.724Z</time>
      </trkpt>
      <trkpt lat="44.4428" lon="-0.32294">
        <ele>113.681599</ele>
        <time>2022-12-28T11:14:30.717Z</time>
      </trkpt>
      <trkpt lat="44.44289" lon="-0.32288">
        <ele>113.635492</ele>
        <time>2022-12-28T11:14:33.720Z</time>
      </trkpt>
      <trkpt lat="44.44298" lon="-0.32283">
        <ele>113.591313</ele>
        <time>2022-12-28T11:14:36.725Z</time>
      </trkpt>
      <trkpt lat="44.44307" lon="-0.32276">
        <ele>113.755911</ele>
        <time>2022-12-28T11:14:41.725Z</time>
      </trkpt>
      <trkpt lat="44.44315" lon="-0.3227">
        <ele>113.956633</ele>
        <time>2022-12-28T11:14:45.710Z</time>
      </trkpt>
      <trkpt lat="44.44323" lon="-0.32264">
        <ele>114.160914</ele>
        <time>2022-12-28T11:14:49.725Z</time>
      </trkpt>
      <trkpt lat="44.44332" lon="-0.32258">
        <ele>114.376403</ele>
        <time>2022-12-28T11:14:52.714Z</time>
      </trkpt>
      <trkpt lat="44.44341" lon="-0.32251">
        <ele>114.589216</ele>
        <time>2022-12-28T11:14:55.726Z</time>
      </trkpt>
      <trkpt lat="44.44349" lon="-0.32246">
        <ele>114.79923</ele>
        <time>2022-12-28T11:14:58.723Z</time>
      </trkpt>
      <trkpt lat="44.4436" lon="-0.32239">
        <ele>115.06241</ele>
        <time>2022-12-28T11:15:02.707Z</time>
      </trkpt>
      <trkpt lat="44.44371" lon="-0.32233">
        <ele>115.312518</ele>
        <time>2022-12-28T11:15:06.715Z</time>
      </trkpt>
      <trkpt lat="44.44379" lon="-0.32228">
        <ele>115.518833</ele>
        <time>2022-12-28T11:15:09.726Z</time>
      </trkpt>
      <trkpt lat="44.44389" lon="-0.32221">
        <ele>115.755748</ele>
        <time>2022-12-28T11:15:13.700Z</time>
      </trkpt>
      <trkpt lat="44.44397" lon="-0.32215">
        <ele>115.965886</ele>
        <time>2022-12-28T11:15:17.706Z</time>
      </trkpt>
      <trkpt lat="44.44406" lon="-0.32209">
        <ele>116.176023</ele>
        <time>2022-12-28T11:15:21.722Z</time>
      </trkpt>
      <trkpt lat="44.44415" lon="-0.32202">
        <ele>116.398674</ele>
        <time>2022-12-28T11:15:25.720Z</time>
      </trkpt>
      <trkpt lat="44.44424" lon="-0.32196">
        <ele>116.616681</ele>
        <time>2022-12-28T11:15:29.729Z</time>
      </trkpt>
      <trkpt lat="44.44433" lon="-0.3219">
        <ele>116.847333</ele>
        <time>2022-12-28T11:15:33.727Z</time>
      </trkpt>
      <trkpt lat="44.44442" lon="-0.32185">
        <ele>117.062986</ele>
        <time>2022-12-28T11:15:37.725Z</time>
      </trkpt>
      <trkpt lat="44.44452" lon="-0.32179">
        <ele>117.299363</ele>
        <time>2022-12-28T11:15:41.700Z</time>
      </trkpt>
      <trkpt lat="44.44463" lon="-0.32173">
        <ele>117.536049</ele>
        <time>2022-12-28T11:15:45.720Z</time>
      </trkpt>
      <trkpt lat="44.44473" lon="-0.32166">
        <ele>117.553388</ele>
        <time>2022-12-28T11:15:49.724Z</time>
      </trkpt>
      <trkpt lat="44.4448" lon="-0.32157">
        <ele>117.568094</ele>
        <time>2022-12-28T11:15:54.723Z</time>
      </trkpt>
      <trkpt lat="44.4448" lon="-0.32143">
        <ele>117.583137</ele>
        <time>2022-12-28T11:15:58.721Z</time>
      </trkpt>
      <trkpt lat="44.44477" lon="-0.32127">
        <ele>117.600809</ele>
        <time>2022-12-28T11:16:02.722Z</time>
      </trkpt>
      <trkpt lat="44.44474" lon="-0.32113">
        <ele>117.616801</ele>
        <time>2022-12-28T11:16:05.724Z</time>
      </trkpt>
      <trkpt lat="44.44471" lon="-0.32099">
        <ele>117.632073</ele>
        <time>2022-12-28T11:16:08.709Z</time>
      </trkpt>
      <trkpt lat="44.44468" lon="-0.32086">
        <ele>117.647016</ele>
        <time>2022-12-28T11:16:11.721Z</time>
      </trkpt>
      <trkpt lat="44.44466" lon="-0.32073">
        <ele>117.662081</ele>
        <time>2022-12-28T11:16:14.727Z</time>
      </trkpt>
      <trkpt lat="44.44464" lon="-0.32058">
        <ele>117.678144</ele>
        <time>2022-12-28T11:16:17.711Z</time>
      </trkpt>
      <trkpt lat="44.44462" lon="-0.32043">
        <ele>117.694042</ele>
        <time>2022-12-28T11:16:20.722Z</time>
      </trkpt>
      <trkpt lat="44.4446" lon="-0.32027">
        <ele>117.711577</ele>
        <time>2022-12-28T11:16:23.716Z</time>
      </trkpt>
      <trkpt lat="44.44458" lon="-0.32011">
        <ele>117.729105</ele>
        <time>2022-12-28T11:16:26.722Z</time>
      </trkpt>
      <trkpt lat="44.44456" lon="-0.31995">
        <ele>117.746232</ele>
        <time>2022-12-28T11:16:29.705Z</time>
      </trkpt>
      <trkpt lat="44.44455" lon="-0.3198">
        <ele>117.762435</ele>
        <time>2022-12-28T11:16:32.725Z</time>
      </trkpt>
      <trkpt lat="44.44454" lon="-0.31965">
        <ele>117.778825</ele>
        <time>2022-12-28T11:16:35.728Z</time>
      </trkpt>
      <trkpt lat="44.44454" lon="-0.31951">
        <ele>117.793773</ele>
        <time>2022-12-28T11:16:38.725Z</time>
      </trkpt>
      <trkpt lat="44.44454" lon="-0.31938">
        <ele>117.814051</ele>
        <time>2022-12-28T11:16:41.728Z</time>
      </trkpt>
      <trkpt lat="44.44453" lon="-0.31923">
        <ele>117.88089</ele>
        <time>2022-12-28T11:16:44.715Z</time>
      </trkpt>
      <trkpt lat="44.44452" lon="-0.31909">
        <ele>117.946406</ele>
        <time>2022-12-28T11:16:47.717Z</time>
      </trkpt>
      <trkpt lat="44.4445" lon="-0.31894">
        <ele>118.015392</ele>
        <time>2022-12-28T11:16:50.728Z</time>
      </trkpt>
      <trkpt lat="44.4445" lon="-0.3188">
        <ele>118.080305</ele>
        <time>2022-12-28T11:16:53.726Z</time>
      </trkpt>
      <trkpt lat="44.44451" lon="-0.31867">
        <ele>118.142059</ele>
        <time>2022-12-28T11:16:56.726Z</time>
      </trkpt>
      <trkpt lat="44.44451" lon="-0.31852">
        <ele>118.207616</ele>
        <time>2022-12-28T11:16:59.713Z</time>
      </trkpt>
      <trkpt lat="44.44452" lon="-0.31838">
        <ele>118.27348</ele>
        <time>2022-12-28T11:17:02.716Z</time>
      </trkpt>
      <trkpt lat="44.44453" lon="-0.31825">
        <ele>118.332331</ele>
        <time>2022-12-28T11:17:05.723Z</time>
      </trkpt>
      <trkpt lat="44.44454" lon="-0.31812">
        <ele>118.394534</ele>
        <time>2022-12-28T11:17:08.710Z</time>
      </trkpt>
      <trkpt lat="44.44456" lon="-0.31798">
        <ele>118.456075</ele>
        <time>2022-12-28T11:17:11.709Z</time>
      </trkpt>
      <trkpt lat="44.44457" lon="-0.31784">
        <ele>118.521745</ele>
        <time>2022-12-28T11:17:14.704Z</time>
      </trkpt>
      <trkpt lat="44.44459" lon="-0.31772">
        <ele>118.581075</ele>
        <time>2022-12-28T11:17:17.713Z</time>
      </trkpt>
      <trkpt lat="44.44463" lon="-0.31757">
        <ele>118.648941</ele>
        <time>2022-12-28T11:17:20.705Z</time>
      </trkpt>
      <trkpt lat="44.44465" lon="-0.31742">
        <ele>118.720031</ele>
        <time>2022-12-28T11:17:23.723Z</time>
      </trkpt>
      <trkpt lat="44.44466" lon="-0.31726">
        <ele>118.792586</ele>
        <time>2022-12-28T11:17:26.724Z</time>
      </trkpt>
      <trkpt lat="44.44467" lon="-0.31711">
        <ele>118.864823</ele>
        <time>2022-12-28T11:17:29.723Z</time>
      </trkpt>
      <trkpt lat="44.44469" lon="-0.31695">
        <ele>118.935582</ele>
        <time>2022-12-28T11:17:32.714Z</time>
      </trkpt>
      <trkpt lat="44.44472" lon="-0.3168">
        <ele>119.14911</ele>
        <time>2022-12-28T11:17:35.704Z</time>
      </trkpt>
      <trkpt lat="44.44475" lon="-0.31666">
        <ele>119.428909</ele>
        <time>2022-12-28T11:17:38.724Z</time>
      </trkpt>
      <trkpt lat="44.44479" lon="-0.31652">
        <ele>119.692724</ele>
        <time>2022-12-28T11:17:41.727Z</time>
      </trkpt>
      <trkpt lat="44.44483" lon="-0.31637">
        <ele>119.976413</ele>
        <time>2022-12-28T11:17:44.729Z</time>
      </trkpt>
      <trkpt lat="44.44487" lon="-0.31622">
        <ele>120.26727</ele>
        <time>2022-12-28T11:17:47.727Z</time>
      </trkpt>
      <trkpt lat="44.44491" lon="-0.31607">
        <ele>120.559186</ele>
        <time>2022-12-28T11:17:50.714Z</time>
      </trkpt>
      <trkpt lat="44.44495" lon="-0.31591">
        <ele>120.851375</ele>
        <time>2022-12-28T11:17:53.729Z</time>
      </trkpt>
      <trkpt lat="44.44499" lon="-0.31576">
        <ele>121.147821</ele>
        <time>2022-12-28T11:17:56.724Z</time>
      </trkpt>
      <trkpt lat="44.44504" lon="-0.3156">
        <ele>121.465193</ele>
        <time>2022-12-28T11:17:59.717Z</time>
      </trkpt>
      <trkpt lat="44.44508" lon="-0.31547">
        <ele>121.71525</ele>
        <time>2022-12-28T11:18:02.726Z</time>
      </trkpt>
      <trkpt lat="44.44513" lon="-0.31534">
        <ele>121.97294</ele>
        <time>2022-12-28T11:18:05.722Z</time>
      </trkpt>
      <trkpt lat="44.44518" lon="-0.31521">
        <ele>122.246005</ele>
        <time>2022-12-28T11:18:08.724Z</time>
      </trkpt>
      <trkpt lat="44.44523" lon="-0.31507">
        <ele>122.532552</ele>
        <time>2022-12-28T11:18:11.727Z</time>
      </trkpt>
      <trkpt lat="44.4453" lon="-0.31493">
        <ele>122.832858</ele>
        <time>2022-12-28T11:18:14.725Z</time>
      </trkpt>
      <trkpt lat="44.44535" lon="-0.31479">
        <ele>123.121785</ele>
        <time>2022-12-28T11:18:17.720Z</time>
      </trkpt>
      <trkpt lat="44.44542" lon="-0.31465">
        <ele>123.416338</ele>
        <time>2022-12-28T11:18:20.727Z</time>
      </trkpt>
      <trkpt lat="44.44547" lon="-0.31453">
        <ele>123.608204</ele>
        <time>2022-12-28T11:18:23.712Z</time>
      </trkpt>
      <trkpt lat="44.44552" lon="-0.31439">
        <ele>123.782644</ele>
        <time>2022-12-28T11:18:26.704Z</time>
      </trkpt>
      <trkpt lat="44.44557" lon="-0.31427">
        <ele>123.937185</ele>
        <time>2022-12-28T11:18:29.726Z</time>
      </trkpt>
      <trkpt lat="44.44564" lon="-0.31413">
        <ele>124.127374</ele>
        <time>2022-12-28T11:18:33.712Z</time>
      </trkpt>
      <trkpt lat="44.44571" lon="-0.31401">
        <ele>124.297516</ele>
        <time>2022-12-28T11:18:36.724Z</time>
      </trkpt>
      <trkpt lat="44.44578" lon="-0.3139">
        <ele>124.464371</ele>
        <time>2022-12-28T11:18:39.723Z</time>
      </trkpt>
      <trkpt lat="44.44583" lon="-0.31379">
        <ele>124.606133</ele>
        <time>2022-12-28T11:18:42.714Z</time>
      </trkpt>
      <trkpt lat="44.44589" lon="-0.31369">
        <ele>124.765992</ele>
        <time>2022-12-28T11:18:46.709Z</time>
      </trkpt>
      <trkpt lat="44.44597" lon="-0.31357">
        <ele>124.945126</ele>
        <time>2022-12-28T11:18:51.714Z</time>
      </trkpt>
      <trkpt lat="44.44603" lon="-0.31346">
        <ele>125.098173</ele>
        <time>2022-12-28T11:18:54.724Z</time>
      </trkpt>
      <trkpt lat="44.4461" lon="-0.31335">
        <ele>125.265797</ele>
        <time>2022-12-28T11:18:57.725Z</time>
      </trkpt>
      <trkpt lat="44.44618" lon="-0.31324">
        <ele>125.435914</ele>
        <time>2022-12-28T11:19:00.704Z</time>
      </trkpt>
      <trkpt lat="44.44624" lon="-0.31313">
        <ele>125.594572</ele>
        <time>2022-12-28T11:19:03.721Z</time>
      </trkpt>
      <trkpt lat="44.44631" lon="-0.31302">
        <ele>125.757687</ele>
        <time>2022-12-28T11:19:06.703Z</time>
      </trkpt>
      <trkpt lat="44.44638" lon="-0.31292">
        <ele>125.918228</ele>
        <time>2022-12-28T11:19:09.706Z</time>
      </trkpt>
      <trkpt lat="44.44645" lon="-0.31281">
        <ele>126.088081</ele>
        <time>2022-12-28T11:19:12.728Z</time>
      </trkpt>
      <trkpt lat="44.44654" lon="-0.31271">
        <ele>126.262115</ele>
        <time>2022-12-28T11:19:15.721Z</time>
      </trkpt>
      <trkpt lat="44.44661" lon="-0.3126">
        <ele>126.551578</ele>
        <time>2022-12-28T11:19:18.725Z</time>
      </trkpt>
      <trkpt lat="44.44669" lon="-0.31248">
        <ele>126.952917</ele>
        <time>2022-12-28T11:19:21.711Z</time>
      </trkpt>
      <trkpt lat="44.44677" lon="-0.31235">
        <ele>127.371577</ele>
        <time>2022-12-28T11:19:24.726Z</time>
      </trkpt>
      <trkpt lat="44.44684" lon="-0.31225">
        <ele>127.736862</ele>
        <time>2022-12-28T11:19:27.724Z</time>
      </trkpt>
      <trkpt lat="44.44691" lon="-0.31213">
        <ele>128.097107</ele>
        <time>2022-12-28T11:19:30.719Z</time>
      </trkpt>
      <trkpt lat="44.44699" lon="-0.31203">
        <ele>128.466544</ele>
        <time>2022-12-28T11:19:33.722Z</time>
      </trkpt>
      <trkpt lat="44.44705" lon="-0.31192">
        <ele>128.822693</ele>
        <time>2022-12-28T11:19:36.729Z</time>
      </trkpt>
      <trkpt lat="44.44712" lon="-0.3118">
        <ele>129.196331</ele>
        <time>2022-12-28T11:19:39.724Z</time>
      </trkpt>
      <trkpt lat="44.4472" lon="-0.31169">
        <ele>129.578233</ele>
        <time>2022-12-28T11:19:42.704Z</time>
      </trkpt>
      <trkpt lat="44.44727" lon="-0.31159">
        <ele>129.916551</ele>
        <time>2022-12-28T11:19:45.723Z</time>
      </trkpt>
      <trkpt lat="44.44733" lon="-0.31149">
        <ele>130.235713</ele>
        <time>2022-12-28T11:19:48.725Z</time>
      </trkpt>
      <trkpt lat="44.4474" lon="-0.3114">
        <ele>130.554268</ele>
        <time>2022-12-28T11:19:51.722Z</time>
      </trkpt>
      <trkpt lat="44.44747" lon="-0.3113">
        <ele>130.902955</ele>
        <time>2022-12-28T11:19:54.722Z</time>
      </trkpt>
      <trkpt lat="44.44755" lon="-0.31118">
        <ele>131.292474</ele>
        <time>2022-12-28T11:19:57.726Z</time>
      </trkpt>
      <trkpt lat="44.44762" lon="-0.31107">
        <ele>131.663917</ele>
        <time>2022-12-28T11:20:00.725Z</time>
      </trkpt>
      <trkpt lat="44.4477" lon="-0.31096">
        <ele>132.048256</ele>
        <time>2022-12-28T11:20:03.725Z</time>
      </trkpt>
      <trkpt lat="44.44777" lon="-0.31084">
        <ele>132.424908</ele>
        <time>2022-12-28T11:20:06.726Z</time>
      </trkpt>
      <trkpt lat="44.44785" lon="-0.31072">
        <ele>132.797188</ele>
        <time>2022-12-28T11:20:09.725Z</time>
      </trkpt>
      <trkpt lat="44.44793" lon="-0.3106">
        <ele>133.177964</ele>
        <time>2022-12-28T11:20:12.726Z</time>
      </trkpt>
      <trkpt lat="44.448" lon="-0.3105">
        <ele>133.507603</ele>
        <time>2022-12-28T11:20:15.717Z</time>
      </trkpt>
      <trkpt lat="44.44808" lon="-0.31038">
        <ele>133.871852</ele>
        <time>2022-12-28T11:20:18.725Z</time>
      </trkpt>
      <trkpt lat="44.44816" lon="-0.31026">
        <ele>134.242248</ele>
        <time>2022-12-28T11:20:21.726Z</time>
      </trkpt>
      <trkpt lat="44.44822" lon="-0.31013">
        <ele>134.61946</ele>
        <time>2022-12-28T11:20:24.725Z</time>
      </trkpt>
      <trkpt lat="44.44829" lon="-0.31001">
        <ele>134.957103</ele>
        <time>2022-12-28T11:20:27.726Z</time>
      </trkpt>
      <trkpt lat="44.44837" lon="-0.3099">
        <ele>135.324193</ele>
        <time>2022-12-28T11:20:30.726Z</time>
      </trkpt>
      <trkpt lat="44.44845" lon="-0.30979">
        <ele>135.656478</ele>
        <time>2022-12-28T11:20:33.727Z</time>
      </trkpt>
      <trkpt lat="44.44851" lon="-0.30969">
        <ele>135.970785</ele>
        <time>2022-12-28T11:20:36.705Z</time>
      </trkpt>
      <trkpt lat="44.44857" lon="-0.3096">
        <ele>136.260524</ele>
        <time>2022-12-28T11:20:39.723Z</time>
      </trkpt>
      <trkpt lat="44.44864" lon="-0.30949">
        <ele>136.602377</ele>
        <time>2022-12-28T11:20:42.725Z</time>
      </trkpt>
      <trkpt lat="44.44872" lon="-0.30937">
        <ele>136.95452</ele>
        <time>2022-12-28T11:20:45.710Z</time>
      </trkpt>
      <trkpt lat="44.44879" lon="-0.30925">
        <ele>137.321973</ele>
        <time>2022-12-28T11:20:48.725Z</time>
      </trkpt>
      <trkpt lat="44.44887" lon="-0.30913">
        <ele>137.690126</ele>
        <time>2022-12-28T11:20:51.726Z</time>
      </trkpt>
      <trkpt lat="44.44894" lon="-0.309">
        <ele>138.061884</ele>
        <time>2022-12-28T11:20:54.710Z</time>
      </trkpt>
      <trkpt lat="44.449" lon="-0.30889">
        <ele>138.243234</ele>
        <time>2022-12-28T11:20:57.727Z</time>
      </trkpt>
      <trkpt lat="44.44906" lon="-0.30876">
        <ele>138.265291</ele>
        <time>2022-12-28T11:21:00.725Z</time>
      </trkpt>
      <trkpt lat="44.44913" lon="-0.30865">
        <ele>138.287429</ele>
        <time>2022-12-28T11:21:03.706Z</time>
      </trkpt>
      <trkpt lat="44.4492" lon="-0.30855">
        <ele>138.306185</ele>
        <time>2022-12-28T11:21:06.718Z</time>
      </trkpt>
      <trkpt lat="44.44926" lon="-0.30844">
        <ele>138.327606</ele>
        <time>2022-12-28T11:21:09.725Z</time>
      </trkpt>
      <trkpt lat="44.44934" lon="-0.30832">
        <ele>138.349503</ele>
        <time>2022-12-28T11:21:12.706Z</time>
      </trkpt>
      <trkpt lat="44.44942" lon="-0.30821">
        <ele>138.372641</ele>
        <time>2022-12-28T11:21:15.727Z</time>
      </trkpt>
      <trkpt lat="44.4495" lon="-0.3081">
        <ele>138.395562</ele>
        <time>2022-12-28T11:21:18.723Z</time>
      </trkpt>
      <trkpt lat="44.44959" lon="-0.30798">
        <ele>138.419115</ele>
        <time>2022-12-28T11:21:21.724Z</time>
      </trkpt>
      <trkpt lat="44.44966" lon="-0.30786">
        <ele>138.441907</ele>
        <time>2022-12-28T11:21:24.703Z</time>
      </trkpt>
      <trkpt lat="44.44973" lon="-0.30773">
        <ele>138.465268</ele>
        <time>2022-12-28T11:21:27.725Z</time>
      </trkpt>
      <trkpt lat="44.44982" lon="-0.30761">
        <ele>138.489437</ele>
        <time>2022-12-28T11:21:30.708Z</time>
      </trkpt>
      <trkpt lat="44.4499" lon="-0.30748">
        <ele>138.514128</ele>
        <time>2022-12-28T11:21:33.721Z</time>
      </trkpt>
      <trkpt lat="44.44997" lon="-0.30735">
        <ele>138.537267</ele>
        <time>2022-12-28T11:21:36.728Z</time>
      </trkpt>
      <trkpt lat="44.45005" lon="-0.30723">
        <ele>138.559823</ele>
        <time>2022-12-28T11:21:39.723Z</time>
      </trkpt>
      <trkpt lat="44.45012" lon="-0.30712">
        <ele>138.580969</ele>
        <time>2022-12-28T11:21:42.709Z</time>
      </trkpt>
      <trkpt lat="44.4502" lon="-0.30701">
        <ele>138.56525</ele>
        <time>2022-12-28T11:21:45.725Z</time>
      </trkpt>
      <trkpt lat="44.45027" lon="-0.30691">
        <ele>138.504411</ele>
        <time>2022-12-28T11:21:48.727Z</time>
      </trkpt>
      <trkpt lat="44.45035" lon="-0.3068">
        <ele>138.438524</ele>
        <time>2022-12-28T11:21:51.724Z</time>
      </trkpt>
      <trkpt lat="44.45043" lon="-0.30669">
        <ele>138.371296</ele>
        <time>2022-12-28T11:21:54.721Z</time>
      </trkpt>
      <trkpt lat="44.4505" lon="-0.30657">
        <ele>138.304163</ele>
        <time>2022-12-28T11:21:57.727Z</time>
      </trkpt>
      <trkpt lat="44.45058" lon="-0.30644">
        <ele>138.232181</ele>
        <time>2022-12-28T11:22:00.725Z</time>
      </trkpt>
      <trkpt lat="44.45066" lon="-0.30633">
        <ele>138.16608</ele>
        <time>2022-12-28T11:22:03.724Z</time>
      </trkpt>
      <trkpt lat="44.45073" lon="-0.30621">
        <ele>138.098257</ele>
        <time>2022-12-28T11:22:06.710Z</time>
      </trkpt>
      <trkpt lat="44.4508" lon="-0.30611">
        <ele>138.036249</ele>
        <time>2022-12-28T11:22:09.727Z</time>
      </trkpt>
      <trkpt lat="44.45088" lon="-0.306">
        <ele>137.975087</ele>
        <time>2022-12-28T11:22:12.722Z</time>
      </trkpt>
      <trkpt lat="44.45095" lon="-0.30588">
        <ele>137.906289</ele>
        <time>2022-12-28T11:22:15.724Z</time>
      </trkpt>
      <trkpt lat="44.45102" lon="-0.30575">
        <ele>137.83647</ele>
        <time>2022-12-28T11:22:18.702Z</time>
      </trkpt>
      <trkpt lat="44.45111" lon="-0.30563">
        <ele>137.763772</ele>
        <time>2022-12-28T11:22:21.722Z</time>
      </trkpt>
      <trkpt lat="44.45119" lon="-0.30549">
        <ele>137.687924</ele>
        <time>2022-12-28T11:22:24.724Z</time>
      </trkpt>
      <trkpt lat="44.45127" lon="-0.30535">
        <ele>137.611462</ele>
        <time>2022-12-28T11:22:27.728Z</time>
      </trkpt>
      <trkpt lat="44.45135" lon="-0.30522">
        <ele>137.53821</ele>
        <time>2022-12-28T11:22:30.725Z</time>
      </trkpt>
      <trkpt lat="44.45144" lon="-0.30508">
        <ele>137.676888</ele>
        <time>2022-12-28T11:22:33.726Z</time>
      </trkpt>
      <trkpt lat="44.45152" lon="-0.30496">
        <ele>137.870837</ele>
        <time>2022-12-28T11:22:36.726Z</time>
      </trkpt>
      <trkpt lat="44.45159" lon="-0.30485">
        <ele>138.034926</ele>
        <time>2022-12-28T11:22:39.720Z</time>
      </trkpt>
      <trkpt lat="44.45167" lon="-0.30474">
        <ele>138.204946</ele>
        <time>2022-12-28T11:22:42.727Z</time>
      </trkpt>
      <trkpt lat="44.45175" lon="-0.30462">
        <ele>138.381673</ele>
        <time>2022-12-28T11:22:45.727Z</time>
      </trkpt>
      <trkpt lat="44.45184" lon="-0.3045">
        <ele>138.583946</ele>
        <time>2022-12-28T11:22:48.726Z</time>
      </trkpt>
      <trkpt lat="44.4519" lon="-0.3044">
        <ele>138.730548</ele>
        <time>2022-12-28T11:22:50.725Z</time>
      </trkpt>
      <trkpt lat="44.45197" lon="-0.30431">
        <ele>138.873382</ele>
        <time>2022-12-28T11:22:52.727Z</time>
      </trkpt>
      <trkpt lat="44.45203" lon="-0.30422">
        <ele>139.013035</ele>
        <time>2022-12-28T11:22:54.726Z</time>
      </trkpt>
      <trkpt lat="44.4521" lon="-0.30408">
        <ele>139.207292</ele>
        <time>2022-12-28T11:22:57.727Z</time>
      </trkpt>
      <trkpt lat="44.45219" lon="-0.30395">
        <ele>139.401396</ele>
        <time>2022-12-28T11:23:00.720Z</time>
      </trkpt>
      <trkpt lat="44.45227" lon="-0.30381">
        <ele>139.608378</ele>
        <time>2022-12-28T11:23:03.724Z</time>
      </trkpt>
      <trkpt lat="44.45234" lon="-0.30372">
        <ele>139.751491</ele>
        <time>2022-12-28T11:23:05.701Z</time>
      </trkpt>
      <trkpt lat="44.4524" lon="-0.30363">
        <ele>139.896208</ele>
        <time>2022-12-28T11:23:07.717Z</time>
      </trkpt>
      <trkpt lat="44.45249" lon="-0.30349">
        <ele>140.10281</ele>
        <time>2022-12-28T11:23:10.726Z</time>
      </trkpt>
      <trkpt lat="44.45258" lon="-0.30336">
        <ele>140.30805</ele>
        <time>2022-12-28T11:23:13.715Z</time>
      </trkpt>
      <trkpt lat="44.45267" lon="-0.30323">
        <ele>140.348476</ele>
        <time>2022-12-28T11:23:16.702Z</time>
      </trkpt>
      <trkpt lat="44.45275" lon="-0.3031">
        <ele>140.371369</ele>
        <time>2022-12-28T11:23:19.722Z</time>
      </trkpt>
      <trkpt lat="44.45283" lon="-0.30298">
        <ele>140.394637</ele>
        <time>2022-12-28T11:23:22.728Z</time>
      </trkpt>
      <trkpt lat="44.45291" lon="-0.30284">
        <ele>140.419044</ele>
        <time>2022-12-28T11:23:25.722Z</time>
      </trkpt>
      <trkpt lat="44.453" lon="-0.30271">
        <ele>140.442997</ele>
        <time>2022-12-28T11:23:28.723Z</time>
      </trkpt>
      <trkpt lat="44.45308" lon="-0.30259">
        <ele>140.464742</ele>
        <time>2022-12-28T11:23:31.729Z</time>
      </trkpt>
      <trkpt lat="44.45316" lon="-0.30247">
        <ele>140.486978</ele>
        <time>2022-12-28T11:23:34.711Z</time>
      </trkpt>
      <trkpt lat="44.45323" lon="-0.30235">
        <ele>140.509293</ele>
        <time>2022-12-28T11:23:37.726Z</time>
      </trkpt>
      <trkpt lat="44.45331" lon="-0.30222">
        <ele>140.531804</ele>
        <time>2022-12-28T11:23:40.726Z</time>
      </trkpt>
      <trkpt lat="44.45339" lon="-0.30209">
        <ele>140.555199</ele>
        <time>2022-12-28T11:23:43.727Z</time>
      </trkpt>
      <trkpt lat="44.45346" lon="-0.30197">
        <ele>140.577657</ele>
        <time>2022-12-28T11:23:46.725Z</time>
      </trkpt>
      <trkpt lat="44.45355" lon="-0.30183">
        <ele>140.601996</ele>
        <time>2022-12-28T11:23:49.726Z</time>
      </trkpt>
      <trkpt lat="44.45361" lon="-0.30173">
        <ele>140.620126</ele>
        <time>2022-12-28T11:23:51.728Z</time>
      </trkpt>
      <trkpt lat="44.45368" lon="-0.30164">
        <ele>140.638099</ele>
        <time>2022-12-28T11:23:53.727Z</time>
      </trkpt>
      <trkpt lat="44.45375" lon="-0.30155">
        <ele>140.655514</ele>
        <time>2022-12-28T11:23:55.715Z</time>
      </trkpt>
      <trkpt lat="44.45383" lon="-0.30142">
        <ele>140.675482</ele>
        <time>2022-12-28T11:23:58.702Z</time>
      </trkpt>
      <trkpt lat="44.45392" lon="-0.3013">
        <ele>140.689628</ele>
        <time>2022-12-28T11:24:01.721Z</time>
      </trkpt>
      <trkpt lat="44.45401" lon="-0.30118">
        <ele>140.703634</ele>
        <time>2022-12-28T11:24:04.723Z</time>
      </trkpt>
      <trkpt lat="44.45409" lon="-0.30105">
        <ele>140.717656</ele>
        <time>2022-12-28T11:24:07.723Z</time>
      </trkpt>
      <trkpt lat="44.45416" lon="-0.30097">
        <ele>140.727998</ele>
        <time>2022-12-28T11:24:09.727Z</time>
      </trkpt>
      <trkpt lat="44.45423" lon="-0.30083">
        <ele>140.742182</ele>
        <time>2022-12-28T11:24:12.726Z</time>
      </trkpt>
      <trkpt lat="44.4543" lon="-0.30071">
        <ele>140.754786</ele>
        <time>2022-12-28T11:24:15.726Z</time>
      </trkpt>
      <trkpt lat="44.45436" lon="-0.30061">
        <ele>140.765723</ele>
        <time>2022-12-28T11:24:18.722Z</time>
      </trkpt>
      <trkpt lat="44.45445" lon="-0.30048">
        <ele>140.779703</ele>
        <time>2022-12-28T11:24:22.711Z</time>
      </trkpt>
      <trkpt lat="44.45451" lon="-0.30039">
        <ele>140.79044</ele>
        <time>2022-12-28T11:24:25.703Z</time>
      </trkpt>
      <trkpt lat="44.45458" lon="-0.30028">
        <ele>140.802099</ele>
        <time>2022-12-28T11:24:28.711Z</time>
      </trkpt>
      <trkpt lat="44.45466" lon="-0.30017">
        <ele>140.814844</ele>
        <time>2022-12-28T11:24:31.712Z</time>
      </trkpt>
      <trkpt lat="44.45473" lon="-0.30005">
        <ele>140.82787</ele>
        <time>2022-12-28T11:24:34.721Z</time>
      </trkpt>
      <trkpt lat="44.45479" lon="-0.29992">
        <ele>140.840414</ele>
        <time>2022-12-28T11:24:37.713Z</time>
      </trkpt>
      <trkpt lat="44.45487" lon="-0.29979">
        <ele>140.854376</ele>
        <time>2022-12-28T11:24:40.709Z</time>
      </trkpt>
      <trkpt lat="44.45496" lon="-0.29966">
        <ele>140.868651</ele>
        <time>2022-12-28T11:24:43.728Z</time>
      </trkpt>
      <trkpt lat="44.45504" lon="-0.29954">
        <ele>140.959573</ele>
        <time>2022-12-28T11:24:46.721Z</time>
      </trkpt>
      <trkpt lat="44.45512" lon="-0.29942">
        <ele>141.114723</ele>
        <time>2022-12-28T11:24:49.722Z</time>
      </trkpt>
      <trkpt lat="44.4552" lon="-0.29929">
        <ele>141.278327</ele>
        <time>2022-12-28T11:24:52.724Z</time>
      </trkpt>
      <trkpt lat="44.45528" lon="-0.29917">
        <ele>141.432062</ele>
        <time>2022-12-28T11:24:55.710Z</time>
      </trkpt>
      <trkpt lat="44.45538" lon="-0.29904">
        <ele>141.602464</ele>
        <time>2022-12-28T11:24:58.727Z</time>
      </trkpt>
      <trkpt lat="44.45546" lon="-0.29891">
        <ele>141.767103</ele>
        <time>2022-12-28T11:25:01.724Z</time>
      </trkpt>
      <trkpt lat="44.45554" lon="-0.29878">
        <ele>141.928437</ele>
        <time>2022-12-28T11:25:04.722Z</time>
      </trkpt>
      <trkpt lat="44.45562" lon="-0.29866">
        <ele>142.077275</ele>
        <time>2022-12-28T11:25:07.723Z</time>
      </trkpt>
      <trkpt lat="44.45569" lon="-0.29855">
        <ele>142.220855</ele>
        <time>2022-12-28T11:25:10.728Z</time>
      </trkpt>
      <trkpt lat="44.45577" lon="-0.29844">
        <ele>142.359356</ele>
        <time>2022-12-28T11:25:13.710Z</time>
      </trkpt>
      <trkpt lat="44.45585" lon="-0.29833">
        <ele>142.507414</ele>
        <time>2022-12-28T11:25:16.726Z</time>
      </trkpt>
      <trkpt lat="44.45592" lon="-0.2982">
        <ele>142.663532</ele>
        <time>2022-12-28T11:25:19.707Z</time>
      </trkpt>
      <trkpt lat="44.45599" lon="-0.29808">
        <ele>142.811179</ele>
        <time>2022-12-28T11:25:22.726Z</time>
      </trkpt>
      <trkpt lat="44.45607" lon="-0.29794">
        <ele>142.974945</ele>
        <time>2022-12-28T11:25:25.723Z</time>
      </trkpt>
      <trkpt lat="44.45616" lon="-0.2978">
        <ele>143.147632</ele>
        <time>2022-12-28T11:25:28.714Z</time>
      </trkpt>
      <trkpt lat="44.45622" lon="-0.29771">
        <ele>143.330088</ele>
        <time>2022-12-28T11:25:30.721Z</time>
      </trkpt>
      <trkpt lat="44.4563" lon="-0.29758">
        <ele>143.812989</ele>
        <time>2022-12-28T11:25:33.726Z</time>
      </trkpt>
      <trkpt lat="44.45637" lon="-0.29748">
        <ele>144.150656</ele>
        <time>2022-12-28T11:25:35.727Z</time>
      </trkpt>
      <trkpt lat="44.45645" lon="-0.29734">
        <ele>144.63635</ele>
        <time>2022-12-28T11:25:38.726Z</time>
      </trkpt>
      <trkpt lat="44.45653" lon="-0.2972">
        <ele>145.1173</ele>
        <time>2022-12-28T11:25:41.727Z</time>
      </trkpt>
      <trkpt lat="44.45661" lon="-0.29706">
        <ele>145.608688</ele>
        <time>2022-12-28T11:25:44.725Z</time>
      </trkpt>
      <trkpt lat="44.4567" lon="-0.29692">
        <ele>146.095582</ele>
        <time>2022-12-28T11:25:47.727Z</time>
      </trkpt>
      <trkpt lat="44.45676" lon="-0.29683">
        <ele>146.436602</ele>
        <time>2022-12-28T11:25:49.725Z</time>
      </trkpt>
      <trkpt lat="44.45684" lon="-0.29668">
        <ele>146.939725</ele>
        <time>2022-12-28T11:25:52.730Z</time>
      </trkpt>
      <trkpt lat="44.45693" lon="-0.29655">
        <ele>147.422147</ele>
        <time>2022-12-28T11:25:55.722Z</time>
      </trkpt>
      <trkpt lat="44.45702" lon="-0.29641">
        <ele>147.902227</ele>
        <time>2022-12-28T11:25:58.706Z</time>
      </trkpt>
      <trkpt lat="44.4571" lon="-0.29628">
        <ele>148.367701</ele>
        <time>2022-12-28T11:26:01.722Z</time>
      </trkpt>
      <trkpt lat="44.45718" lon="-0.29615">
        <ele>148.850121</ele>
        <time>2022-12-28T11:26:04.724Z</time>
      </trkpt>
      <trkpt lat="44.45725" lon="-0.29606">
        <ele>149.191056</ele>
        <time>2022-12-28T11:26:06.720Z</time>
      </trkpt>
      <trkpt lat="44.45731" lon="-0.29596">
        <ele>149.553487</ele>
        <time>2022-12-28T11:26:08.724Z</time>
      </trkpt>
      <trkpt lat="44.4574" lon="-0.29582">
        <ele>149.95807</ele>
        <time>2022-12-28T11:26:11.710Z</time>
      </trkpt>
      <trkpt lat="44.45749" lon="-0.29568">
        <ele>149.972297</ele>
        <time>2022-12-28T11:26:14.725Z</time>
      </trkpt>
      <trkpt lat="44.45756" lon="-0.29558">
        <ele>149.981891</ele>
        <time>2022-12-28T11:26:16.714Z</time>
      </trkpt>
      <trkpt lat="44.45764" lon="-0.29546">
        <ele>149.994982</ele>
        <time>2022-12-28T11:26:19.722Z</time>
      </trkpt>
      <trkpt lat="44.45772" lon="-0.29534">
        <ele>150.006785</ele>
        <time>2022-12-28T11:26:22.710Z</time>
      </trkpt>
      <trkpt lat="44.45779" lon="-0.29522">
        <ele>150.01799</ele>
        <time>2022-12-28T11:26:25.722Z</time>
      </trkpt>
      <trkpt lat="44.45786" lon="-0.2951">
        <ele>150.029766</ele>
        <time>2022-12-28T11:26:28.724Z</time>
      </trkpt>
      <trkpt lat="44.45793" lon="-0.29499">
        <ele>150.040562</ele>
        <time>2022-12-28T11:26:31.725Z</time>
      </trkpt>
      <trkpt lat="44.45801" lon="-0.29486">
        <ele>150.053834</ele>
        <time>2022-12-28T11:26:34.723Z</time>
      </trkpt>
      <trkpt lat="44.4581" lon="-0.29472">
        <ele>150.067258</ele>
        <time>2022-12-28T11:26:37.721Z</time>
      </trkpt>
      <trkpt lat="44.45818" lon="-0.29458">
        <ele>150.081177</ele>
        <time>2022-12-28T11:26:40.726Z</time>
      </trkpt>
      <trkpt lat="44.45824" lon="-0.29448">
        <ele>150.090573</ele>
        <time>2022-12-28T11:26:42.726Z</time>
      </trkpt>
      <trkpt lat="44.45834" lon="-0.29435">
        <ele>150.104367</ele>
        <time>2022-12-28T11:26:45.726Z</time>
      </trkpt>
      <trkpt lat="44.4584" lon="-0.29426">
        <ele>150.113888</ele>
        <time>2022-12-28T11:26:47.723Z</time>
      </trkpt>
      <trkpt lat="44.45846" lon="-0.29415">
        <ele>150.123781</ele>
        <time>2022-12-28T11:26:49.708Z</time>
      </trkpt>
      <trkpt lat="44.45854" lon="-0.29401">
        <ele>150.137567</ele>
        <time>2022-12-28T11:26:52.706Z</time>
      </trkpt>
      <trkpt lat="44.45862" lon="-0.29389">
        <ele>150.210376</ele>
        <time>2022-12-28T11:26:55.723Z</time>
      </trkpt>
      <trkpt lat="44.4587" lon="-0.29375">
        <ele>150.330457</ele>
        <time>2022-12-28T11:26:58.726Z</time>
      </trkpt>
      <trkpt lat="44.45878" lon="-0.29362">
        <ele>150.444264</ele>
        <time>2022-12-28T11:27:01.721Z</time>
      </trkpt>
      <trkpt lat="44.45886" lon="-0.2935">
        <ele>150.563747</ele>
        <time>2022-12-28T11:27:04.728Z</time>
      </trkpt>
      <trkpt lat="44.45892" lon="-0.2934">
        <ele>150.653197</ele>
        <time>2022-12-28T11:27:06.728Z</time>
      </trkpt>
      <trkpt lat="44.45899" lon="-0.2933">
        <ele>150.7533</ele>
        <time>2022-12-28T11:27:08.727Z</time>
      </trkpt>
      <trkpt lat="44.45906" lon="-0.2932">
        <ele>150.843231</ele>
        <time>2022-12-28T11:27:10.706Z</time>
      </trkpt>
      <trkpt lat="44.45914" lon="-0.29306">
        <ele>150.968763</ele>
        <time>2022-12-28T11:27:13.702Z</time>
      </trkpt>
      <trkpt lat="44.4592" lon="-0.29297">
        <ele>151.056957</ele>
        <time>2022-12-28T11:27:15.725Z</time>
      </trkpt>
      <trkpt lat="44.45927" lon="-0.29288">
        <ele>151.148924</ele>
        <time>2022-12-28T11:27:17.708Z</time>
      </trkpt>
      <trkpt lat="44.45935" lon="-0.2928">
        <ele>151.241992</ele>
        <time>2022-12-28T11:27:19.723Z</time>
      </trkpt>
      <trkpt lat="44.45942" lon="-0.29271">
        <ele>151.329575</ele>
        <time>2022-12-28T11:27:21.722Z</time>
      </trkpt>
      <trkpt lat="44.45952" lon="-0.29262">
        <ele>151.448634</ele>
        <time>2022-12-28T11:27:24.724Z</time>
      </trkpt>
      <trkpt lat="44.45961" lon="-0.29251">
        <ele>151.566448</ele>
        <time>2022-12-28T11:27:27.703Z</time>
      </trkpt>
      <trkpt lat="44.45968" lon="-0.29242">
        <ele>151.655397</ele>
        <time>2022-12-28T11:27:30.714Z</time>
      </trkpt>
      <trkpt lat="44.45977" lon="-0.29233">
        <ele>151.762834</ele>
        <time>2022-12-28T11:27:33.711Z</time>
      </trkpt>
      <trkpt lat="44.45988" lon="-0.29225">
        <ele>151.883637</ele>
        <time>2022-12-28T11:27:36.719Z</time>
      </trkpt>
      <trkpt lat="44.45999" lon="-0.29217">
        <ele>151.706121</ele>
        <time>2022-12-28T11:27:39.725Z</time>
      </trkpt>
      <trkpt lat="44.4601" lon="-0.2921">
        <ele>151.527699</ele>
        <time>2022-12-28T11:27:42.725Z</time>
      </trkpt>
      <trkpt lat="44.4602" lon="-0.29204">
        <ele>151.372418</ele>
        <time>2022-12-28T11:27:45.726Z</time>
      </trkpt>
      <trkpt lat="44.46029" lon="-0.29198">
        <ele>151.231464</ele>
        <time>2022-12-28T11:27:48.716Z</time>
      </trkpt>
      <trkpt lat="44.4604" lon="-0.29192">
        <ele>151.062345</ele>
        <time>2022-12-28T11:27:51.711Z</time>
      </trkpt>
      <trkpt lat="44.46052" lon="-0.29188">
        <ele>150.8823</ele>
        <time>2022-12-28T11:27:54.710Z</time>
      </trkpt>
      <trkpt lat="44.46061" lon="-0.29186">
        <ele>150.751983</ele>
        <time>2022-12-28T11:27:56.718Z</time>
      </trkpt>
      <trkpt lat="44.46071" lon="-0.29183">
        <ele>150.607549</ele>
        <time>2022-12-28T11:27:59.713Z</time>
      </trkpt>
      <trkpt lat="44.46081" lon="-0.2918">
        <ele>150.454615</ele>
        <time>2022-12-28T11:28:02.708Z</time>
      </trkpt>
      <trkpt lat="44.46093" lon="-0.29178">
        <ele>150.281978</ele>
        <time>2022-12-28T11:28:05.725Z</time>
      </trkpt>
      <trkpt lat="44.46104" lon="-0.29177">
        <ele>150.12688</ele>
        <time>2022-12-28T11:28:08.725Z</time>
      </trkpt>
      <trkpt lat="44.46116" lon="-0.29176">
        <ele>149.951898</ele>
        <time>2022-12-28T11:28:11.725Z</time>
      </trkpt>
      <trkpt lat="44.46129" lon="-0.29176">
        <ele>149.756942</ele>
        <time>2022-12-28T11:28:14.722Z</time>
      </trkpt>
      <trkpt lat="44.46139" lon="-0.29176">
        <ele>149.613977</ele>
        <time>2022-12-28T11:28:16.722Z</time>
      </trkpt>
      <trkpt lat="44.46152" lon="-0.29176">
        <ele>149.430472</ele>
        <time>2022-12-28T11:28:19.711Z</time>
      </trkpt>
      <trkpt lat="44.46163" lon="-0.29177">
        <ele>149.268729</ele>
        <time>2022-12-28T11:28:21.711Z</time>
      </trkpt>
      <trkpt lat="44.46173" lon="-0.29178">
        <ele>149.125328</ele>
        <time>2022-12-28T11:28:23.725Z</time>
      </trkpt>
      <trkpt lat="44.46182" lon="-0.2918">
        <ele>148.998274</ele>
        <time>2022-12-28T11:28:25.726Z</time>
      </trkpt>
      <trkpt lat="44.46195" lon="-0.29184">
        <ele>148.819556</ele>
        <time>2022-12-28T11:28:28.727Z</time>
      </trkpt>
      <trkpt lat="44.46204" lon="-0.29187">
        <ele>148.690557</ele>
        <time>2022-12-28T11:28:30.723Z</time>
      </trkpt>
      <trkpt lat="44.46216" lon="-0.2919">
        <ele>148.521951</ele>
        <time>2022-12-28T11:28:33.726Z</time>
      </trkpt>
      <trkpt lat="44.46227" lon="-0.29194">
        <ele>148.367526</ele>
        <time>2022-12-28T11:28:36.729Z</time>
      </trkpt>
      <trkpt lat="44.46236" lon="-0.29197">
        <ele>148.237429</ele>
        <time>2022-12-28T11:28:39.723Z</time>
      </trkpt>
      <trkpt lat="44.46237" lon="-0.29184">
        <ele>148.104381</ele>
        <time>2022-12-28T11:28:53.717Z</time>
      </trkpt>
      <trkpt lat="44.46229" lon="-0.29177">
        <ele>147.977611</ele>
        <time>2022-12-28T11:28:56.725Z</time>
      </trkpt>
      <trkpt lat="44.4622" lon="-0.2917">
        <ele>147.833411</ele>
        <time>2022-12-28T11:28:59.724Z</time>
      </trkpt>
      <trkpt lat="44.46209" lon="-0.29162">
        <ele>147.661222</ele>
        <time>2022-12-28T11:29:02.720Z</time>
      </trkpt>
      <trkpt lat="44.46198" lon="-0.29153">
        <ele>147.48918</ele>
        <time>2022-12-28T11:29:05.703Z</time>
      </trkpt>
      <trkpt lat="44.46186" lon="-0.29145">
        <ele>147.300141</ele>
        <time>2022-12-28T11:29:08.712Z</time>
      </trkpt>
      <trkpt lat="44.46175" lon="-0.29135">
        <ele>147.111921</ele>
        <time>2022-12-28T11:29:11.716Z</time>
      </trkpt>
      <trkpt lat="44.46166" lon="-0.29128">
        <ele>146.977837</ele>
        <time>2022-12-28T11:29:13.701Z</time>
      </trkpt>
      <trkpt lat="44.46156" lon="-0.29119">
        <ele>146.804378</ele>
        <time>2022-12-28T11:29:16.722Z</time>
      </trkpt>
      <trkpt lat="44.46145" lon="-0.29111">
        <ele>146.694941</ele>
        <time>2022-12-28T11:29:19.723Z</time>
      </trkpt>
      <trkpt lat="44.46135" lon="-0.29103">
        <ele>146.590274</ele>
        <time>2022-12-28T11:29:22.719Z</time>
      </trkpt>
      <trkpt lat="44.46124" lon="-0.29095">
        <ele>146.483757</ele>
        <time>2022-12-28T11:29:25.725Z</time>
      </trkpt>
      <trkpt lat="44.46115" lon="-0.29087">
        <ele>146.393295</ele>
        <time>2022-12-28T11:29:27.713Z</time>
      </trkpt>
      <trkpt lat="44.46105" lon="-0.29077">
        <ele>146.284007</ele>
        <time>2022-12-28T11:29:30.709Z</time>
      </trkpt>
      <trkpt lat="44.46098" lon="-0.29066">
        <ele>146.196098</ele>
        <time>2022-12-28T11:29:32.702Z</time>
      </trkpt>
      <trkpt lat="44.46087" lon="-0.29052">
        <ele>146.066105</ele>
        <time>2022-12-28T11:29:35.706Z</time>
      </trkpt>
      <trkpt lat="44.46076" lon="-0.29043">
        <ele>145.953972</ele>
        <time>2022-12-28T11:29:38.723Z</time>
      </trkpt>
      <trkpt lat="44.46068" lon="-0.29037">
        <ele>145.874714</ele>
        <time>2022-12-28T11:29:41.723Z</time>
      </trkpt>
      <trkpt lat="44.46058" lon="-0.29031">
        <ele>145.778259</ele>
        <time>2022-12-28T11:29:44.718Z</time>
      </trkpt>
      <trkpt lat="44.4605" lon="-0.29023">
        <ele>145.69933</ele>
        <time>2022-12-28T11:29:46.714Z</time>
      </trkpt>
      <trkpt lat="44.46041" lon="-0.29014">
        <ele>145.596475</ele>
        <time>2022-12-28T11:29:49.724Z</time>
      </trkpt>
      <trkpt lat="44.4603" lon="-0.29007">
        <ele>145.497444</ele>
        <time>2022-12-28T11:29:53.726Z</time>
      </trkpt>
      <trkpt lat="44.46019" lon="-0.29004">
        <ele>145.392863</ele>
        <time>2022-12-28T11:29:56.717Z</time>
      </trkpt>
      <trkpt lat="44.46008" lon="-0.28998">
        <ele>145.296372</ele>
        <time>2022-12-28T11:29:59.710Z</time>
      </trkpt>
      <trkpt lat="44.45998" lon="-0.28992">
        <ele>145.301457</ele>
        <time>2022-12-28T11:30:03.724Z</time>
      </trkpt>
      <trkpt lat="44.45988" lon="-0.28984">
        <ele>145.634825</ele>
        <time>2022-12-28T11:30:06.715Z</time>
      </trkpt>
      <trkpt lat="44.45982" lon="-0.28976">
        <ele>145.898607</ele>
        <time>2022-12-28T11:30:08.718Z</time>
      </trkpt>
      <trkpt lat="44.45972" lon="-0.28969">
        <ele>146.217546</ele>
        <time>2022-12-28T11:30:11.729Z</time>
      </trkpt>
      <trkpt lat="44.45961" lon="-0.28959">
        <ele>146.584742</ele>
        <time>2022-12-28T11:30:14.725Z</time>
      </trkpt>
      <trkpt lat="44.45947" lon="-0.2895">
        <ele>147.039724</ele>
        <time>2022-12-28T11:30:17.723Z</time>
      </trkpt>
      <trkpt lat="44.45937" lon="-0.28941">
        <ele>147.393412</ele>
        <time>2022-12-28T11:30:20.706Z</time>
      </trkpt>
      <trkpt lat="44.45928" lon="-0.28933">
        <ele>147.699106</ele>
        <time>2022-12-28T11:30:23.722Z</time>
      </trkpt>
      <trkpt lat="44.45921" lon="-0.28925">
        <ele>147.979489</ele>
        <time>2022-12-28T11:30:26.724Z</time>
      </trkpt>
      <trkpt lat="44.4591" lon="-0.28916">
        <ele>148.343868</ele>
        <time>2022-12-28T11:30:29.725Z</time>
      </trkpt>
      <trkpt lat="44.45901" lon="-0.28908">
        <ele>148.648132</ele>
        <time>2022-12-28T11:30:32.712Z</time>
      </trkpt>
      <trkpt lat="44.45894" lon="-0.28899">
        <ele>148.930357</ele>
        <time>2022-12-28T11:30:35.727Z</time>
      </trkpt>
      <trkpt lat="44.45884" lon="-0.2889">
        <ele>149.294812</ele>
        <time>2022-12-28T11:30:38.727Z</time>
      </trkpt>
      <trkpt lat="44.45876" lon="-0.28879">
        <ele>149.600532</ele>
        <time>2022-12-28T11:30:41.707Z</time>
      </trkpt>
      <trkpt lat="44.45868" lon="-0.28869">
        <ele>149.915508</ele>
        <time>2022-12-28T11:30:44.721Z</time>
      </trkpt>
      <trkpt lat="44.45859" lon="-0.2886">
        <ele>150.231822</ele>
        <time>2022-12-28T11:30:47.728Z</time>
      </trkpt>
      <trkpt lat="44.45849" lon="-0.28852">
        <ele>150.519653</ele>
        <time>2022-12-28T11:30:50.725Z</time>
      </trkpt>
      <trkpt lat="44.45841" lon="-0.28845">
        <ele>150.632363</ele>
        <time>2022-12-28T11:30:52.722Z</time>
      </trkpt>
      <trkpt lat="44.45831" lon="-0.28835">
        <ele>150.767013</ele>
        <time>2022-12-28T11:30:55.707Z</time>
      </trkpt>
      <trkpt lat="44.45822" lon="-0.28826">
        <ele>150.896502</ele>
        <time>2022-12-28T11:30:58.729Z</time>
      </trkpt>
      <trkpt lat="44.45815" lon="-0.28817">
        <ele>151.006951</ele>
        <time>2022-12-28T11:31:01.727Z</time>
      </trkpt>
      <trkpt lat="44.45807" lon="-0.28808">
        <ele>151.127705</ele>
        <time>2022-12-28T11:31:04.723Z</time>
      </trkpt>
      <trkpt lat="44.45798" lon="-0.28798">
        <ele>151.253347</ele>
        <time>2022-12-28T11:31:07.724Z</time>
      </trkpt>
      <trkpt lat="44.45787" lon="-0.28787">
        <ele>151.404879</ele>
        <time>2022-12-28T11:31:10.707Z</time>
      </trkpt>
      <trkpt lat="44.45778" lon="-0.28776">
        <ele>151.541527</ele>
        <time>2022-12-28T11:31:13.701Z</time>
      </trkpt>
      <trkpt lat="44.45768" lon="-0.28765">
        <ele>151.689718</ele>
        <time>2022-12-28T11:31:16.722Z</time>
      </trkpt>
      <trkpt lat="44.45757" lon="-0.28755">
        <ele>151.83649</ele>
        <time>2022-12-28T11:31:19.722Z</time>
      </trkpt>
      <trkpt lat="44.45749" lon="-0.28743">
        <ele>151.969862</ele>
        <time>2022-12-28T11:31:22.705Z</time>
      </trkpt>
      <trkpt lat="44.45742" lon="-0.2873">
        <ele>152.103975</ele>
        <time>2022-12-28T11:31:25.709Z</time>
      </trkpt>
      <trkpt lat="44.45732" lon="-0.28719">
        <ele>152.244288</ele>
        <time>2022-12-28T11:31:28.724Z</time>
      </trkpt>
      <trkpt lat="44.45723" lon="-0.2871">
        <ele>152.373773</ele>
        <time>2022-12-28T11:31:31.726Z</time>
      </trkpt>
      <trkpt lat="44.45714" lon="-0.287">
        <ele>152.509322</ele>
        <time>2022-12-28T11:31:34.710Z</time>
      </trkpt>
      <trkpt lat="44.45703" lon="-0.28689">
        <ele>152.743682</ele>
        <time>2022-12-28T11:31:37.726Z</time>
      </trkpt>
      <trkpt lat="44.45692" lon="-0.28679">
        <ele>152.989381</ele>
        <time>2022-12-28T11:31:40.727Z</time>
      </trkpt>
      <trkpt lat="44.45683" lon="-0.28669">
        <ele>153.217728</ele>
        <time>2022-12-28T11:31:43.722Z</time>
      </trkpt>
      <trkpt lat="44.45673" lon="-0.28659">
        <ele>153.450035</ele>
        <time>2022-12-28T11:31:46.728Z</time>
      </trkpt>
      <trkpt lat="44.45666" lon="-0.2865">
        <ele>153.627891</ele>
        <time>2022-12-28T11:31:48.725Z</time>
      </trkpt>
      <trkpt lat="44.45657" lon="-0.28637">
        <ele>153.878445</ele>
        <time>2022-12-28T11:31:51.722Z</time>
      </trkpt>
      <trkpt lat="44.45649" lon="-0.28625">
        <ele>154.100762</ele>
        <time>2022-12-28T11:31:54.707Z</time>
      </trkpt>
      <trkpt lat="44.4564" lon="-0.28614">
        <ele>154.32908</ele>
        <time>2022-12-28T11:31:57.723Z</time>
      </trkpt>
      <trkpt lat="44.45631" lon="-0.28602">
        <ele>154.566205</ele>
        <time>2022-12-28T11:32:00.722Z</time>
      </trkpt>
      <trkpt lat="44.45621" lon="-0.2859">
        <ele>154.817045</ele>
        <time>2022-12-28T11:32:03.726Z</time>
      </trkpt>
      <trkpt lat="44.45611" lon="-0.28577">
        <ele>155.087532</ele>
        <time>2022-12-28T11:32:06.715Z</time>
      </trkpt>
      <trkpt lat="44.45604" lon="-0.28567">
        <ele>155.276114</ele>
        <time>2022-12-28T11:32:08.725Z</time>
      </trkpt>
      <trkpt lat="44.45595" lon="-0.28555">
        <ele>155.52164</ele>
        <time>2022-12-28T11:32:11.739Z</time>
      </trkpt>
      <trkpt lat="44.45589" lon="-0.28546">
        <ele>155.694384</ele>
        <time>2022-12-28T11:32:13.724Z</time>
      </trkpt>
      <trkpt lat="44.4558" lon="-0.28532">
        <ele>155.942244</ele>
        <time>2022-12-28T11:32:16.715Z</time>
      </trkpt>
      <trkpt lat="44.45572" lon="-0.28519">
        <ele>156.123801</ele>
        <time>2022-12-28T11:32:19.722Z</time>
      </trkpt>
      <trkpt lat="44.45564" lon="-0.28505">
        <ele>156.292124</ele>
        <time>2022-12-28T11:32:22.727Z</time>
      </trkpt>
      <trkpt lat="44.45557" lon="-0.28496">
        <ele>156.422232</ele>
        <time>2022-12-28T11:32:24.725Z</time>
      </trkpt>
      <trkpt lat="44.45548" lon="-0.28483">
        <ele>156.592383</ele>
        <time>2022-12-28T11:32:27.725Z</time>
      </trkpt>
      <trkpt lat="44.45542" lon="-0.28472">
        <ele>156.726158</ele>
        <time>2022-12-28T11:32:29.709Z</time>
      </trkpt>
      <trkpt lat="44.45536" lon="-0.28462">
        <ele>156.852589</ele>
        <time>2022-12-28T11:32:31.715Z</time>
      </trkpt>
      <trkpt lat="44.4553" lon="-0.28452">
        <ele>156.979224</ele>
        <time>2022-12-28T11:32:33.727Z</time>
      </trkpt>
      <trkpt lat="44.45524" lon="-0.28442">
        <ele>157.101179</ele>
        <time>2022-12-28T11:32:35.725Z</time>
      </trkpt>
      <trkpt lat="44.45518" lon="-0.28432">
        <ele>157.223194</ele>
        <time>2022-12-28T11:32:37.724Z</time>
      </trkpt>
      <trkpt lat="44.45512" lon="-0.28423">
        <ele>157.34883</ele>
        <time>2022-12-28T11:32:39.727Z</time>
      </trkpt>
      <trkpt lat="44.45505" lon="-0.28414">
        <ele>157.474724</ele>
        <time>2022-12-28T11:32:41.709Z</time>
      </trkpt>
      <trkpt lat="44.45499" lon="-0.28403">
        <ele>157.605995</ele>
        <time>2022-12-28T11:32:43.728Z</time>
      </trkpt>
      <trkpt lat="44.45494" lon="-0.28392">
        <ele>157.737278</ele>
        <time>2022-12-28T11:32:45.709Z</time>
      </trkpt>
      <trkpt lat="44.45488" lon="-0.28381">
        <ele>157.86331</ele>
        <time>2022-12-28T11:32:47.727Z</time>
      </trkpt>
      <trkpt lat="44.45482" lon="-0.28372">
        <ele>157.985977</ele>
        <time>2022-12-28T11:32:49.721Z</time>
      </trkpt>
      <trkpt lat="44.45474" lon="-0.28357">
        <ele>158.156312</ele>
        <time>2022-12-28T11:32:52.727Z</time>
      </trkpt>
      <trkpt lat="44.45468" lon="-0.28347">
        <ele>158.291343</ele>
        <time>2022-12-28T11:32:54.728Z</time>
      </trkpt>
      <trkpt lat="44.45462" lon="-0.28336">
        <ele>158.416395</ele>
        <time>2022-12-28T11:32:56.721Z</time>
      </trkpt>
      <trkpt lat="44.45457" lon="-0.28325">
        <ele>158.507845</ele>
        <time>2022-12-28T11:32:58.703Z</time>
      </trkpt>
      <trkpt lat="44.45451" lon="-0.28314">
        <ele>158.609504</ele>
        <time>2022-12-28T11:33:01.701Z</time>
      </trkpt>
      <trkpt lat="44.45442" lon="-0.283">
        <ele>158.734684</ele>
        <time>2022-12-28T11:33:04.713Z</time>
      </trkpt>
      <trkpt lat="44.45437" lon="-0.28288">
        <ele>158.84028</ele>
        <time>2022-12-28T11:33:07.709Z</time>
      </trkpt>
      <trkpt lat="44.45431" lon="-0.28277">
        <ele>158.935526</ele>
        <time>2022-12-28T11:33:09.710Z</time>
      </trkpt>
      <trkpt lat="44.45424" lon="-0.28267">
        <ele>159.032824</ele>
        <time>2022-12-28T11:33:11.709Z</time>
      </trkpt>
      <trkpt lat="44.45419" lon="-0.28256">
        <ele>159.12684</ele>
        <time>2022-12-28T11:33:13.706Z</time>
      </trkpt>
      <trkpt lat="44.45413" lon="-0.28245">
        <ele>159.222585</ele>
        <time>2022-12-28T11:33:15.712Z</time>
      </trkpt>
      <trkpt lat="44.45408" lon="-0.28235">
        <ele>159.31544</ele>
        <time>2022-12-28T11:33:17.709Z</time>
      </trkpt>
      <trkpt lat="44.45401" lon="-0.28226">
        <ele>159.409027</ele>
        <time>2022-12-28T11:33:19.711Z</time>
      </trkpt>
      <trkpt lat="44.45395" lon="-0.28213">
        <ele>159.510675</ele>
        <time>2022-12-28T11:33:21.712Z</time>
      </trkpt>
      <trkpt lat="44.4539" lon="-0.28201">
        <ele>159.617577</ele>
        <time>2022-12-28T11:33:23.702Z</time>
      </trkpt>
      <trkpt lat="44.45384" lon="-0.28188">
        <ele>159.723173</ele>
        <time>2022-12-28T11:33:25.707Z</time>
      </trkpt>
      <trkpt lat="44.45378" lon="-0.28176">
        <ele>159.824224</ele>
        <time>2022-12-28T11:33:27.711Z</time>
      </trkpt>
      <trkpt lat="44.45373" lon="-0.28164">
        <ele>159.925872</ele>
        <time>2022-12-28T11:33:29.709Z</time>
      </trkpt>
      <trkpt lat="44.45367" lon="-0.28151">
        <ele>160.034425</ele>
        <time>2022-12-28T11:33:31.729Z</time>
      </trkpt>
      <trkpt lat="44.45362" lon="-0.28138">
        <ele>160.142392</ele>
        <time>2022-12-28T11:33:33.725Z</time>
      </trkpt>
      <trkpt lat="44.45357" lon="-0.28126">
        <ele>160.237391</ele>
        <time>2022-12-28T11:33:35.712Z</time>
      </trkpt>
      <trkpt lat="44.45352" lon="-0.28115">
        <ele>160.32392</ele>
        <time>2022-12-28T11:33:37.710Z</time>
      </trkpt>
      <trkpt lat="44.45347" lon="-0.28104">
        <ele>160.407852</ele>
        <time>2022-12-28T11:33:39.715Z</time>
      </trkpt>
      <trkpt lat="44.45341" lon="-0.28089">
        <ele>160.524008</ele>
        <time>2022-12-28T11:33:42.723Z</time>
      </trkpt>
      <trkpt lat="44.45334" lon="-0.28074">
        <ele>160.641326</ele>
        <time>2022-12-28T11:33:45.731Z</time>
      </trkpt>
      <trkpt lat="44.45327" lon="-0.28059">
        <ele>160.75831</ele>
        <time>2022-12-28T11:33:48.722Z</time>
      </trkpt>
      <trkpt lat="44.45321" lon="-0.28042">
        <ele>160.87967</ele>
        <time>2022-12-28T11:33:51.722Z</time>
      </trkpt>
      <trkpt lat="44.45317" lon="-0.28031">
        <ele>160.966835</ele>
        <time>2022-12-28T11:33:53.711Z</time>
      </trkpt>
      <trkpt lat="44.45311" lon="-0.28019">
        <ele>161.058269</ele>
        <time>2022-12-28T11:33:55.726Z</time>
      </trkpt>
      <trkpt lat="44.45307" lon="-0.28007">
        <ele>161.147695</ele>
        <time>2022-12-28T11:33:57.708Z</time>
      </trkpt>
      <trkpt lat="44.45304" lon="-0.27994">
        <ele>161.240663</ele>
        <time>2022-12-28T11:33:59.719Z</time>
      </trkpt>
      <trkpt lat="44.45298" lon="-0.27982">
        <ele>161.33222</ele>
        <time>2022-12-28T11:34:01.725Z</time>
      </trkpt>
      <trkpt lat="44.45293" lon="-0.27971">
        <ele>161.418267</ele>
        <time>2022-12-28T11:34:03.721Z</time>
      </trkpt>
      <trkpt lat="44.45288" lon="-0.27959">
        <ele>161.512336</ele>
        <time>2022-12-28T11:34:05.724Z</time>
      </trkpt>
      <trkpt lat="44.45282" lon="-0.27949">
        <ele>161.597861</ele>
        <time>2022-12-28T11:34:07.718Z</time>
      </trkpt>
      <trkpt lat="44.45276" lon="-0.27937">
        <ele>161.691384</ele>
        <time>2022-12-28T11:34:09.715Z</time>
      </trkpt>
      <trkpt lat="44.45271" lon="-0.27926">
        <ele>161.782942</ele>
        <time>2022-12-28T11:34:11.726Z</time>
      </trkpt>
      <trkpt lat="44.45266" lon="-0.27915">
        <ele>161.825396</ele>
        <time>2022-12-28T11:34:13.726Z</time>
      </trkpt>
      <trkpt lat="44.45262" lon="-0.27902">
        <ele>161.670128</ele>
        <time>2022-12-28T11:34:15.721Z</time>
      </trkpt>
      <trkpt lat="44.45257" lon="-0.27891">
        <ele>161.517056</ele>
        <time>2022-12-28T11:34:17.717Z</time>
      </trkpt>
      <trkpt lat="44.45252" lon="-0.2788">
        <ele>161.370116</ele>
        <time>2022-12-28T11:34:19.709Z</time>
      </trkpt>
      <trkpt lat="44.45248" lon="-0.27869">
        <ele>161.220674</ele>
        <time>2022-12-28T11:34:21.733Z</time>
      </trkpt>
      <trkpt lat="44.45243" lon="-0.27857">
        <ele>161.057534</ele>
        <time>2022-12-28T11:34:23.722Z</time>
      </trkpt>
      <trkpt lat="44.45236" lon="-0.2784">
        <ele>160.830069</ele>
        <time>2022-12-28T11:34:26.705Z</time>
      </trkpt>
      <trkpt lat="44.45229" lon="-0.27823">
        <ele>160.60601</ele>
        <time>2022-12-28T11:34:29.706Z</time>
      </trkpt>
      <trkpt lat="44.45225" lon="-0.27811">
        <ele>160.458376</ele>
        <time>2022-12-28T11:34:31.718Z</time>
      </trkpt>
      <trkpt lat="44.4522" lon="-0.278">
        <ele>160.299672</ele>
        <time>2022-12-28T11:34:33.722Z</time>
      </trkpt>
      <trkpt lat="44.45215" lon="-0.27789">
        <ele>160.148048</ele>
        <time>2022-12-28T11:34:35.726Z</time>
      </trkpt>
      <trkpt lat="44.4521" lon="-0.27778">
        <ele>159.99907</ele>
        <time>2022-12-28T11:34:37.727Z</time>
      </trkpt>
      <trkpt lat="44.45205" lon="-0.27766">
        <ele>159.844806</ele>
        <time>2022-12-28T11:34:39.725Z</time>
      </trkpt>
      <trkpt lat="44.45198" lon="-0.27752">
        <ele>159.642365</ele>
        <time>2022-12-28T11:34:42.723Z</time>
      </trkpt>
      <trkpt lat="44.45192" lon="-0.27739">
        <ele>159.460503</ele>
        <time>2022-12-28T11:34:45.708Z</time>
      </trkpt>
      <trkpt lat="44.45185" lon="-0.27724">
        <ele>159.253038</ele>
        <time>2022-12-28T11:34:48.725Z</time>
      </trkpt>
      <trkpt lat="44.45179" lon="-0.27708">
        <ele>159.050128</ele>
        <time>2022-12-28T11:34:51.709Z</time>
      </trkpt>
      <trkpt lat="44.45173" lon="-0.27694">
        <ele>158.848003</ele>
        <time>2022-12-28T11:34:54.712Z</time>
      </trkpt>
      <trkpt lat="44.45168" lon="-0.2768">
        <ele>158.646866</ele>
        <time>2022-12-28T11:34:57.702Z</time>
      </trkpt>
      <trkpt lat="44.45162" lon="-0.27666">
        <ele>158.452903</ele>
        <time>2022-12-28T11:35:01.713Z</time>
      </trkpt>
      <trkpt lat="44.45155" lon="-0.27657">
        <ele>158.27935</ele>
        <time>2022-12-28T11:35:27.712Z</time>
      </trkpt>
      <trkpt lat="44.4515" lon="-0.27643">
        <ele>158.087324</ele>
        <time>2022-12-28T11:35:32.704Z</time>
      </trkpt>
      <trkpt lat="44.45144" lon="-0.27628">
        <ele>157.868775</ele>
        <time>2022-12-28T11:35:36.725Z</time>
      </trkpt>
      <trkpt lat="44.45138" lon="-0.27614">
        <ele>157.669743</ele>
        <time>2022-12-28T11:35:39.727Z</time>
      </trkpt>
      <trkpt lat="44.45132" lon="-0.27599">
        <ele>157.4471</ele>
        <time>2022-12-28T11:35:42.714Z</time>
      </trkpt>
      <trkpt lat="44.45126" lon="-0.27588">
        <ele>157.278082</ele>
        <time>2022-12-28T11:35:44.726Z</time>
      </trkpt>
      <trkpt lat="44.4512" lon="-0.27572">
        <ele>157.043744</ele>
        <time>2022-12-28T11:35:47.718Z</time>
      </trkpt>
      <trkpt lat="44.45115" lon="-0.27561">
        <ele>156.876757</ele>
        <time>2022-12-28T11:35:49.713Z</time>
      </trkpt>
      <trkpt lat="44.4511" lon="-0.2755">
        <ele>156.714795</ele>
        <time>2022-12-28T11:35:51.705Z</time>
      </trkpt>
      <trkpt lat="44.45101" lon="-0.27535">
        <ele>156.466142</ele>
        <time>2022-12-28T11:35:54.721Z</time>
      </trkpt>
      <trkpt lat="44.45095" lon="-0.27518">
        <ele>156.231328</ele>
        <time>2022-12-28T11:35:57.705Z</time>
      </trkpt>
      <trkpt lat="44.4509" lon="-0.27506">
        <ele>156.053901</ele>
        <time>2022-12-28T11:35:59.725Z</time>
      </trkpt>
      <trkpt lat="44.45085" lon="-0.27495">
        <ele>155.892882</ele>
        <time>2022-12-28T11:36:01.715Z</time>
      </trkpt>
      <trkpt lat="44.45078" lon="-0.2748">
        <ele>155.863866</ele>
        <time>2022-12-28T11:36:04.727Z</time>
      </trkpt>
      <trkpt lat="44.45073" lon="-0.27469">
        <ele>156.009596</ele>
        <time>2022-12-28T11:36:06.708Z</time>
      </trkpt>
      <trkpt lat="44.45066" lon="-0.27453">
        <ele>156.213946</ele>
        <time>2022-12-28T11:36:09.725Z</time>
      </trkpt>
      <trkpt lat="44.45061" lon="-0.27442">
        <ele>156.365702</ele>
        <time>2022-12-28T11:36:11.726Z</time>
      </trkpt>
      <trkpt lat="44.45055" lon="-0.27426">
        <ele>156.57419</ele>
        <time>2022-12-28T11:36:14.727Z</time>
      </trkpt>
      <trkpt lat="44.45048" lon="-0.27413">
        <ele>156.762939</ele>
        <time>2022-12-28T11:36:17.725Z</time>
      </trkpt>
      <trkpt lat="44.45043" lon="-0.27398">
        <ele>156.947399</ele>
        <time>2022-12-28T11:36:20.728Z</time>
      </trkpt>
      <trkpt lat="44.45038" lon="-0.27384">
        <ele>157.130131</ele>
        <time>2022-12-28T11:36:23.724Z</time>
      </trkpt>
      <trkpt lat="44.45033" lon="-0.27368">
        <ele>157.328469</ele>
        <time>2022-12-28T11:36:26.728Z</time>
      </trkpt>
      <trkpt lat="44.45027" lon="-0.27353">
        <ele>157.523539</ele>
        <time>2022-12-28T11:36:29.723Z</time>
      </trkpt>
      <trkpt lat="44.4502" lon="-0.27338">
        <ele>157.717471</ele>
        <time>2022-12-28T11:36:32.727Z</time>
      </trkpt>
      <trkpt lat="44.45014" lon="-0.27323">
        <ele>157.917914</ele>
        <time>2022-12-28T11:36:35.726Z</time>
      </trkpt>
      <trkpt lat="44.45006" lon="-0.27309">
        <ele>158.127214</ele>
        <time>2022-12-28T11:36:38.705Z</time>
      </trkpt>
      <trkpt lat="44.44998" lon="-0.27294">
        <ele>158.329843</ele>
        <time>2022-12-28T11:36:41.723Z</time>
      </trkpt>
      <trkpt lat="44.44992" lon="-0.27279">
        <ele>158.526294</ele>
        <time>2022-12-28T11:36:44.725Z</time>
      </trkpt>
      <trkpt lat="44.44989" lon="-0.27265">
        <ele>158.717975</ele>
        <time>2022-12-28T11:36:47.721Z</time>
      </trkpt>
      <trkpt lat="44.44986" lon="-0.27252">
        <ele>158.9457</ele>
        <time>2022-12-28T11:36:50.726Z</time>
      </trkpt>
      <trkpt lat="44.44982" lon="-0.27237">
        <ele>159.20458</ele>
        <time>2022-12-28T11:36:53.723Z</time>
      </trkpt>
      <trkpt lat="44.44975" lon="-0.27222">
        <ele>159.48755</ele>
        <time>2022-12-28T11:36:56.722Z</time>
      </trkpt>
      <trkpt lat="44.44969" lon="-0.27207">
        <ele>159.77743</ele>
        <time>2022-12-28T11:36:59.720Z</time>
      </trkpt>
      <trkpt lat="44.44962" lon="-0.27193">
        <ele>160.054603</ele>
        <time>2022-12-28T11:37:02.709Z</time>
      </trkpt>
      <trkpt lat="44.44955" lon="-0.2718">
        <ele>160.308124</ele>
        <time>2022-12-28T11:37:05.726Z</time>
      </trkpt>
      <trkpt lat="44.4495" lon="-0.27166">
        <ele>160.572009</ele>
        <time>2022-12-28T11:37:08.728Z</time>
      </trkpt>
      <trkpt lat="44.44943" lon="-0.27152">
        <ele>160.850506</ele>
        <time>2022-12-28T11:37:11.729Z</time>
      </trkpt>
      <trkpt lat="44.44937" lon="-0.27137">
        <ele>161.118082</ele>
        <time>2022-12-28T11:37:14.727Z</time>
      </trkpt>
      <trkpt lat="44.44931" lon="-0.27122">
        <ele>161.401496</ele>
        <time>2022-12-28T11:37:17.725Z</time>
      </trkpt>
      <trkpt lat="44.44924" lon="-0.27108">
        <ele>161.671076</ele>
        <time>2022-12-28T11:37:20.710Z</time>
      </trkpt>
      <trkpt lat="44.44918" lon="-0.27094">
        <ele>161.940531</ele>
        <time>2022-12-28T11:37:23.726Z</time>
      </trkpt>
      <trkpt lat="44.44912" lon="-0.2708">
        <ele>162.200473</ele>
        <time>2022-12-28T11:37:26.725Z</time>
      </trkpt>
      <trkpt lat="44.44907" lon="-0.27066">
        <ele>162.460704</ele>
        <time>2022-12-28T11:37:29.730Z</time>
      </trkpt>
      <trkpt lat="44.44901" lon="-0.2705">
        <ele>162.723062</ele>
        <time>2022-12-28T11:37:32.732Z</time>
      </trkpt>
      <trkpt lat="44.44895" lon="-0.27034">
        <ele>162.779201</ele>
        <time>2022-12-28T11:37:35.707Z</time>
      </trkpt>
      <trkpt lat="44.44888" lon="-0.2702">
        <ele>162.832949</ele>
        <time>2022-12-28T11:37:38.733Z</time>
      </trkpt>
      <trkpt lat="44.44881" lon="-0.27007">
        <ele>162.880486</ele>
        <time>2022-12-28T11:37:41.728Z</time>
      </trkpt>
      <trkpt lat="44.44877" lon="-0.26992">
        <ele>162.928716</ele>
        <time>2022-12-28T11:37:44.707Z</time>
      </trkpt>
      <trkpt lat="44.44871" lon="-0.26977">
        <ele>162.980052</ele>
        <time>2022-12-28T11:37:47.708Z</time>
      </trkpt>
      <trkpt lat="44.44865" lon="-0.26963">
        <ele>163.030664</ele>
        <time>2022-12-28T11:37:50.720Z</time>
      </trkpt>
      <trkpt lat="44.44857" lon="-0.26949">
        <ele>163.083877</ele>
        <time>2022-12-28T11:37:53.715Z</time>
      </trkpt>
      <trkpt lat="44.44851" lon="-0.26935">
        <ele>163.134749</ele>
        <time>2022-12-28T11:37:56.726Z</time>
      </trkpt>
      <trkpt lat="44.44846" lon="-0.2692">
        <ele>163.183899</ele>
        <time>2022-12-28T11:37:59.726Z</time>
      </trkpt>
      <trkpt lat="44.44841" lon="-0.26906">
        <ele>163.233238</ele>
        <time>2022-12-28T11:38:02.728Z</time>
      </trkpt>
      <trkpt lat="44.44835" lon="-0.26891">
        <ele>163.28552</ele>
        <time>2022-12-28T11:38:05.726Z</time>
      </trkpt>
      <trkpt lat="44.4483" lon="-0.26877">
        <ele>163.331095</ele>
        <time>2022-12-28T11:38:08.713Z</time>
      </trkpt>
      <trkpt lat="44.44822" lon="-0.26863">
        <ele>163.384805</ele>
        <time>2022-12-28T11:38:11.715Z</time>
      </trkpt>
      <trkpt lat="44.44815" lon="-0.26848">
        <ele>163.440089</ele>
        <time>2022-12-28T11:38:14.722Z</time>
      </trkpt>
      <trkpt lat="44.44809" lon="-0.26837">
        <ele>163.482809</ele>
        <time>2022-12-28T11:38:16.727Z</time>
      </trkpt>
      <trkpt lat="44.44804" lon="-0.26826">
        <ele>163.523447</ele>
        <time>2022-12-28T11:38:18.726Z</time>
      </trkpt>
      <trkpt lat="44.44798" lon="-0.26812">
        <ele>163.577864</ele>
        <time>2022-12-28T11:38:21.716Z</time>
      </trkpt>
      <trkpt lat="44.44789" lon="-0.26797">
        <ele>163.639186</ele>
        <time>2022-12-28T11:38:24.708Z</time>
      </trkpt>
      <trkpt lat="44.44783" lon="-0.26787">
        <ele>163.679775</ele>
        <time>2022-12-28T11:38:26.725Z</time>
      </trkpt>
      <trkpt lat="44.44778" lon="-0.26771">
        <ele>163.736179</ele>
        <time>2022-12-28T11:38:29.705Z</time>
      </trkpt>
      <trkpt lat="44.4477" lon="-0.26756">
        <ele>163.794629</ele>
        <time>2022-12-28T11:38:32.708Z</time>
      </trkpt>
      <trkpt lat="44.44763" lon="-0.26747">
        <ele>163.839189</ele>
        <time>2022-12-28T11:38:34.728Z</time>
      </trkpt>
      <trkpt lat="44.44756" lon="-0.26738">
        <ele>163.87963</ele>
        <time>2022-12-28T11:38:36.703Z</time>
      </trkpt>
      <trkpt lat="44.44749" lon="-0.26726">
        <ele>163.927493</ele>
        <time>2022-12-28T11:38:39.726Z</time>
      </trkpt>
      <trkpt lat="44.44743" lon="-0.26715">
        <ele>163.97046</ele>
        <time>2022-12-28T11:38:41.718Z</time>
      </trkpt>
      <trkpt lat="44.44739" lon="-0.26698">
        <ele>164.030005</ele>
        <time>2022-12-28T11:38:44.721Z</time>
      </trkpt>
      <trkpt lat="44.44734" lon="-0.26683">
        <ele>164.080694</ele>
        <time>2022-12-28T11:38:47.715Z</time>
      </trkpt>
      <trkpt lat="44.44728" lon="-0.26667">
        <ele>164.139297</ele>
        <time>2022-12-28T11:38:50.724Z</time>
      </trkpt>
      <trkpt lat="44.44726" lon="-0.26651">
        <ele>164.190179</ele>
        <time>2022-12-28T11:38:53.729Z</time>
      </trkpt>
      <trkpt lat="44.44719" lon="-0.26637">
        <ele>164.243949</ele>
        <time>2022-12-28T11:38:56.713Z</time>
      </trkpt>
      <trkpt lat="44.44712" lon="-0.26621">
        <ele>164.320412</ele>
        <time>2022-12-28T11:38:59.721Z</time>
      </trkpt>
      <trkpt lat="44.44706" lon="-0.26605">
        <ele>164.421788</ele>
        <time>2022-12-28T11:39:02.723Z</time>
      </trkpt>
      <trkpt lat="44.447" lon="-0.26589">
        <ele>164.527609</ele>
        <time>2022-12-28T11:39:05.707Z</time>
      </trkpt>
      <trkpt lat="44.44695" lon="-0.26573">
        <ele>164.632252</ele>
        <time>2022-12-28T11:39:08.722Z</time>
      </trkpt>
      <trkpt lat="44.44688" lon="-0.26557">
        <ele>164.737987</ele>
        <time>2022-12-28T11:39:11.720Z</time>
      </trkpt>
      <trkpt lat="44.44683" lon="-0.26546">
        <ele>164.812446</ele>
        <time>2022-12-28T11:39:13.725Z</time>
      </trkpt>
      <trkpt lat="44.44678" lon="-0.2653">
        <ele>164.916406</ele>
        <time>2022-12-28T11:39:16.726Z</time>
      </trkpt>
      <trkpt lat="44.44672" lon="-0.26514">
        <ele>165.02121</ele>
        <time>2022-12-28T11:39:19.726Z</time>
      </trkpt>
      <trkpt lat="44.44665" lon="-0.26497">
        <ele>165.130517</ele>
        <time>2022-12-28T11:39:22.717Z</time>
      </trkpt>
      <trkpt lat="44.44658" lon="-0.26482">
        <ele>165.23508</ele>
        <time>2022-12-28T11:39:25.724Z</time>
      </trkpt>
      <trkpt lat="44.44651" lon="-0.26466">
        <ele>165.345045</ele>
        <time>2022-12-28T11:39:28.727Z</time>
      </trkpt>
      <trkpt lat="44.44645" lon="-0.26455">
        <ele>165.424613</ele>
        <time>2022-12-28T11:39:30.717Z</time>
      </trkpt>
      <trkpt lat="44.44639" lon="-0.26439">
        <ele>165.532477</ele>
        <time>2022-12-28T11:39:33.726Z</time>
      </trkpt>
      <trkpt lat="44.44634" lon="-0.26428">
        <ele>165.605725</ele>
        <time>2022-12-28T11:39:35.725Z</time>
      </trkpt>
      <trkpt lat="44.44626" lon="-0.26416">
        <ele>165.702534</ele>
        <time>2022-12-28T11:39:37.716Z</time>
      </trkpt>
      <trkpt lat="44.44622" lon="-0.26404">
        <ele>165.762655</ele>
        <time>2022-12-28T11:39:39.730Z</time>
      </trkpt>
      <trkpt lat="44.44616" lon="-0.26388">
        <ele>165.826178</ele>
        <time>2022-12-28T11:39:42.711Z</time>
      </trkpt>
      <trkpt lat="44.44612" lon="-0.26376">
        <ele>165.873329</ele>
        <time>2022-12-28T11:39:44.705Z</time>
      </trkpt>
      <trkpt lat="44.44605" lon="-0.2636">
        <ele>165.93987</ele>
        <time>2022-12-28T11:39:47.716Z</time>
      </trkpt>
      <trkpt lat="44.44601" lon="-0.26348">
        <ele>165.984825</ele>
        <time>2022-12-28T11:39:49.731Z</time>
      </trkpt>
      <trkpt lat="44.44596" lon="-0.26338">
        <ele>166.02984</ele>
        <time>2022-12-28T11:39:51.715Z</time>
      </trkpt>
      <trkpt lat="44.44592" lon="-0.26326">
        <ele>166.077058</ele>
        <time>2022-12-28T11:39:53.724Z</time>
      </trkpt>
      <trkpt lat="44.44587" lon="-0.26314">
        <ele>166.124705</ele>
        <time>2022-12-28T11:39:55.725Z</time>
      </trkpt>
      <trkpt lat="44.44583" lon="-0.26303">
        <ele>166.171453</ele>
        <time>2022-12-28T11:39:57.723Z</time>
      </trkpt>
      <trkpt lat="44.44576" lon="-0.26286">
        <ele>166.238931</ele>
        <time>2022-12-28T11:40:00.727Z</time>
      </trkpt>
      <trkpt lat="44.44571" lon="-0.26274">
        <ele>166.287439</ele>
        <time>2022-12-28T11:40:02.737Z</time>
      </trkpt>
      <trkpt lat="44.44564" lon="-0.26259">
        <ele>166.350987</ele>
        <time>2022-12-28T11:40:05.731Z</time>
      </trkpt>
      <trkpt lat="44.44558" lon="-0.26244">
        <ele>166.413275</ele>
        <time>2022-12-28T11:40:08.724Z</time>
      </trkpt>
      <trkpt lat="44.44552" lon="-0.2623">
        <ele>166.46893</ele>
        <time>2022-12-28T11:40:11.729Z</time>
      </trkpt>
      <trkpt lat="44.44546" lon="-0.26216">
        <ele>166.529238</ele>
        <time>2022-12-28T11:40:14.727Z</time>
      </trkpt>
      <trkpt lat="44.4454" lon="-0.262">
        <ele>166.590874</ele>
        <time>2022-12-28T11:40:17.727Z</time>
      </trkpt>
      <trkpt lat="44.44534" lon="-0.26185">
        <ele>166.63344</ele>
        <time>2022-12-28T11:40:20.726Z</time>
      </trkpt>
      <trkpt lat="44.44527" lon="-0.26172">
        <ele>166.637321</ele>
        <time>2022-12-28T11:40:23.728Z</time>
      </trkpt>
      <trkpt lat="44.44522" lon="-0.26158">
        <ele>166.641426</ele>
        <time>2022-12-28T11:40:27.719Z</time>
      </trkpt>
      <trkpt lat="44.44516" lon="-0.26145">
        <ele>166.645145</ele>
        <time>2022-12-28T11:40:30.728Z</time>
      </trkpt>
      <trkpt lat="44.4451" lon="-0.26131">
        <ele>166.649297</ele>
        <time>2022-12-28T11:40:33.721Z</time>
      </trkpt>
      <trkpt lat="44.44503" lon="-0.26116">
        <ele>166.653593</ele>
        <time>2022-12-28T11:40:36.729Z</time>
      </trkpt>
      <trkpt lat="44.44497" lon="-0.26101">
        <ele>166.657876</ele>
        <time>2022-12-28T11:40:39.728Z</time>
      </trkpt>
      <trkpt lat="44.4449" lon="-0.26085">
        <ele>166.662589</ele>
        <time>2022-12-28T11:40:42.726Z</time>
      </trkpt>
      <trkpt lat="44.44486" lon="-0.26074">
        <ele>166.665747</ele>
        <time>2022-12-28T11:40:44.725Z</time>
      </trkpt>
      <trkpt lat="44.44482" lon="-0.26062">
        <ele>166.66899</ele>
        <time>2022-12-28T11:40:46.707Z</time>
      </trkpt>
      <trkpt lat="44.44478" lon="-0.26051">
        <ele>166.672148</ele>
        <time>2022-12-28T11:40:48.712Z</time>
      </trkpt>
      <trkpt lat="44.44473" lon="-0.26035">
        <ele>166.676513</ele>
        <time>2022-12-28T11:40:51.714Z</time>
      </trkpt>
      <trkpt lat="44.44468" lon="-0.26023">
        <ele>166.679808</ele>
        <time>2022-12-28T11:40:53.727Z</time>
      </trkpt>
      <trkpt lat="44.44462" lon="-0.26006">
        <ele>166.684444</ele>
        <time>2022-12-28T11:40:56.716Z</time>
      </trkpt>
      <trkpt lat="44.44458" lon="-0.25994">
        <ele>166.687725</ele>
        <time>2022-12-28T11:40:58.722Z</time>
      </trkpt>
      <trkpt lat="44.44454" lon="-0.25983">
        <ele>166.690917</ele>
        <time>2022-12-28T11:41:00.717Z</time>
      </trkpt>
      <trkpt lat="44.44449" lon="-0.25971">
        <ele>166.694251</ele>
        <time>2022-12-28T11:41:02.717Z</time>
      </trkpt>
      <trkpt lat="44.44445" lon="-0.25959">
        <ele>166.691349</ele>
        <time>2022-12-28T11:41:04.708Z</time>
      </trkpt>
      <trkpt lat="44.44442" lon="-0.25947">
        <ele>166.687673</ele>
        <time>2022-12-28T11:41:06.727Z</time>
      </trkpt>
      <trkpt lat="44.44436" lon="-0.2593">
        <ele>166.682246</ele>
        <time>2022-12-28T11:41:09.716Z</time>
      </trkpt>
      <trkpt lat="44.44431" lon="-0.25918">
        <ele>166.678146</ele>
        <time>2022-12-28T11:41:11.715Z</time>
      </trkpt>
      <trkpt lat="44.44426" lon="-0.259">
        <ele>166.67286</ele>
        <time>2022-12-28T11:41:14.703Z</time>
      </trkpt>
      <trkpt lat="44.44421" lon="-0.25884">
        <ele>166.667879</ele>
        <time>2022-12-28T11:41:17.716Z</time>
      </trkpt>
      <trkpt lat="44.44417" lon="-0.2587">
        <ele>166.663592</ele>
        <time>2022-12-28T11:41:20.725Z</time>
      </trkpt>
      <trkpt lat="44.44413" lon="-0.25854">
        <ele>166.65885</ele>
        <time>2022-12-28T11:41:23.706Z</time>
      </trkpt>
      <trkpt lat="44.44408" lon="-0.25837">
        <ele>166.653681</ele>
        <time>2022-12-28T11:41:26.727Z</time>
      </trkpt>
      <trkpt lat="44.44404" lon="-0.2582">
        <ele>166.648463</ele>
        <time>2022-12-28T11:41:29.725Z</time>
      </trkpt>
      <trkpt lat="44.444" lon="-0.25802">
        <ele>166.643204</ele>
        <time>2022-12-28T11:41:32.712Z</time>
      </trkpt>
      <trkpt lat="44.44396" lon="-0.2579">
        <ele>166.639516</ele>
        <time>2022-12-28T11:41:34.722Z</time>
      </trkpt>
      <trkpt lat="44.44392" lon="-0.25772">
        <ele>166.634151</ele>
        <time>2022-12-28T11:41:37.730Z</time>
      </trkpt>
      <trkpt lat="44.44389" lon="-0.25759">
        <ele>166.630477</ele>
        <time>2022-12-28T11:41:39.725Z</time>
      </trkpt>
      <trkpt lat="44.44386" lon="-0.25748">
        <ele>166.626895</ele>
        <time>2022-12-28T11:41:41.731Z</time>
      </trkpt>
      <trkpt lat="44.44383" lon="-0.25735">
        <ele>166.629629</ele>
        <time>2022-12-28T11:41:43.727Z</time>
      </trkpt>
      <trkpt lat="44.4438" lon="-0.25718">
        <ele>167.021043</ele>
        <time>2022-12-28T11:41:46.717Z</time>
      </trkpt>
      <trkpt lat="44.44376" lon="-0.25702">
        <ele>167.396048</ele>
        <time>2022-12-28T11:41:49.728Z</time>
      </trkpt>
      <trkpt lat="44.44373" lon="-0.25686">
        <ele>167.743289</ele>
        <time>2022-12-28T11:41:52.727Z</time>
      </trkpt>
      <trkpt lat="44.44372" lon="-0.25678">
        <ele>167.918368</ele>
        <time>2022-12-28T11:43:00.571Z</time>
      </trkpt>
      <trkpt lat="44.44375" lon="-0.25692">
        <ele>168.231341</ele>
        <time>2022-12-28T11:50:45.724Z</time>
      </trkpt>
      <trkpt lat="44.44373" lon="-0.2568">
        <ele>168.5181</ele>
        <time>2022-12-28T11:51:04.706Z</time>
      </trkpt>
      <trkpt lat="44.44371" lon="-0.25674">
        <ele>168.639725</ele>
        <time>2022-12-28T11:51:19.818Z</time>
      </trkpt>
      <trkpt lat="44.44367" lon="-0.25655">
        <ele>169.095279</ele>
        <time>2022-12-28T11:53:10.723Z</time>
      </trkpt>
      <trkpt lat="44.44365" lon="-0.2564">
        <ele>169.420707</ele>
        <time>2022-12-28T11:53:15.706Z</time>
      </trkpt>
      <trkpt lat="44.44362" lon="-0.25626">
        <ele>169.743588</ele>
        <time>2022-12-28T11:53:19.718Z</time>
      </trkpt>
      <trkpt lat="44.4436" lon="-0.25612">
        <ele>170.045204</ele>
        <time>2022-12-28T11:53:23.732Z</time>
      </trkpt>
      <trkpt lat="44.44358" lon="-0.256">
        <ele>170.331965</ele>
        <time>2022-12-28T11:53:27.727Z</time>
      </trkpt>
      <trkpt lat="44.44355" lon="-0.25585">
        <ele>170.667097</ele>
        <time>2022-12-28T11:53:32.730Z</time>
      </trkpt>
      <trkpt lat="44.44354" lon="-0.25569">
        <ele>171.003348</ele>
        <time>2022-12-28T11:53:37.722Z</time>
      </trkpt>
      <trkpt lat="44.44352" lon="-0.25554">
        <ele>171.347026</ele>
        <time>2022-12-28T11:53:42.728Z</time>
      </trkpt>
      <trkpt lat="44.44349" lon="-0.25539">
        <ele>171.685015</ele>
        <time>2022-12-28T11:53:47.730Z</time>
      </trkpt>
      <trkpt lat="44.44347" lon="-0.25524">
        <ele>172.024374</ele>
        <time>2022-12-28T11:53:52.716Z</time>
      </trkpt>
      <trkpt lat="44.44344" lon="-0.2551">
        <ele>172.106688</ele>
        <time>2022-12-28T11:53:56.728Z</time>
      </trkpt>
      <trkpt lat="44.44341" lon="-0.25497">
        <ele>172.058301</ele>
        <time>2022-12-28T11:54:00.730Z</time>
      </trkpt>
      <trkpt lat="44.44338" lon="-0.25484">
        <ele>172.010558</ele>
        <time>2022-12-28T11:54:04.729Z</time>
      </trkpt>
      <trkpt lat="44.44334" lon="-0.25471">
        <ele>171.962149</ele>
        <time>2022-12-28T11:54:08.720Z</time>
      </trkpt>
      <trkpt lat="44.4433" lon="-0.25458">
        <ele>171.914056</ele>
        <time>2022-12-28T11:54:12.718Z</time>
      </trkpt>
      <trkpt lat="44.44322" lon="-0.25448">
        <ele>171.864545</ele>
        <time>2022-12-28T11:54:16.713Z</time>
      </trkpt>
      <trkpt lat="44.44314" lon="-0.25438">
        <ele>171.812707</ele>
        <time>2022-12-28T11:54:20.715Z</time>
      </trkpt>
      <trkpt lat="44.44306" lon="-0.25428">
        <ele>171.761672</ele>
        <time>2022-12-28T11:54:24.711Z</time>
      </trkpt>
      <trkpt lat="44.44299" lon="-0.25419">
        <ele>171.717173</ele>
        <time>2022-12-28T11:54:27.729Z</time>
      </trkpt>
      <trkpt lat="44.44293" lon="-0.25407">
        <ele>171.66355</ele>
        <time>2022-12-28T11:54:30.710Z</time>
      </trkpt>
      <trkpt lat="44.44288" lon="-0.25388">
        <ele>171.597135</ele>
        <time>2022-12-28T11:54:33.708Z</time>
      </trkpt>
      <trkpt lat="44.44289" lon="-0.25373">
        <ele>171.546917</ele>
        <time>2022-12-28T11:54:35.720Z</time>
      </trkpt>
      <trkpt lat="44.44292" lon="-0.25358">
        <ele>171.492906</ele>
        <time>2022-12-28T11:54:37.716Z</time>
      </trkpt>
      <trkpt lat="44.44298" lon="-0.25344">
        <ele>171.436763</ele>
        <time>2022-12-28T11:54:39.719Z</time>
      </trkpt>
      <trkpt lat="44.44304" lon="-0.2533">
        <ele>171.382367</ele>
        <time>2022-12-28T11:54:41.719Z</time>
      </trkpt>
      <trkpt lat="44.44308" lon="-0.25317">
        <ele>171.332103</ele>
        <time>2022-12-28T11:54:43.731Z</time>
      </trkpt>
      <trkpt lat="44.44313" lon="-0.25304">
        <ele>171.282458</ele>
        <time>2022-12-28T11:54:45.710Z</time>
      </trkpt>
      <trkpt lat="44.44315" lon="-0.25289">
        <ele>171.135165</ele>
        <time>2022-12-28T11:54:47.746Z</time>
      </trkpt>
      <trkpt lat="44.44317" lon="-0.25273">
        <ele>170.970049</ele>
        <time>2022-12-28T11:54:49.727Z</time>
      </trkpt>
      <trkpt lat="44.44316" lon="-0.25256">
        <ele>170.798521</ele>
        <time>2022-12-28T11:54:51.730Z</time>
      </trkpt>
      <trkpt lat="44.44315" lon="-0.2524">
        <ele>170.633247</ele>
        <time>2022-12-28T11:54:53.732Z</time>
      </trkpt>
      <trkpt lat="44.44313" lon="-0.25223">
        <ele>170.448725</ele>
        <time>2022-12-28T11:54:56.716Z</time>
      </trkpt>
      <trkpt lat="44.4431" lon="-0.25204">
        <ele>170.255561</ele>
        <time>2022-12-28T11:54:59.729Z</time>
      </trkpt>
      <trkpt lat="44.44309" lon="-0.25187">
        <ele>170.070101</ele>
        <time>2022-12-28T11:55:02.732Z</time>
      </trkpt>
      <trkpt lat="44.44307" lon="-0.25174">
        <ele>169.939433</ele>
        <time>2022-12-28T11:55:04.731Z</time>
      </trkpt>
      <trkpt lat="44.44306" lon="-0.25162">
        <ele>169.807745</ele>
        <time>2022-12-28T11:55:06.729Z</time>
      </trkpt>
      <trkpt lat="44.44304" lon="-0.25149">
        <ele>169.67277</ele>
        <time>2022-12-28T11:55:08.733Z</time>
      </trkpt>
      <trkpt lat="44.44303" lon="-0.25136">
        <ele>169.539056</ele>
        <time>2022-12-28T11:55:10.723Z</time>
      </trkpt>
      <trkpt lat="44.443" lon="-0.25123">
        <ele>169.406441</ele>
        <time>2022-12-28T11:55:12.730Z</time>
      </trkpt>
      <trkpt lat="44.44298" lon="-0.25105">
        <ele>169.208681</ele>
        <time>2022-12-28T11:55:15.731Z</time>
      </trkpt>
      <trkpt lat="44.44297" lon="-0.25092">
        <ele>169.076383</ele>
        <time>2022-12-28T11:55:17.732Z</time>
      </trkpt>
      <trkpt lat="44.44296" lon="-0.25079">
        <ele>168.941191</ele>
        <time>2022-12-28T11:55:19.732Z</time>
      </trkpt>
      <trkpt lat="44.44295" lon="-0.25066">
        <ele>168.805419</ele>
        <time>2022-12-28T11:55:21.729Z</time>
      </trkpt>
      <trkpt lat="44.44293" lon="-0.25053">
        <ele>168.674966</ele>
        <time>2022-12-28T11:55:23.731Z</time>
      </trkpt>
      <trkpt lat="44.44292" lon="-0.2504">
        <ele>168.626543</ele>
        <time>2022-12-28T11:55:25.733Z</time>
      </trkpt>
      <trkpt lat="44.44291" lon="-0.25027">
        <ele>168.576384</ele>
        <time>2022-12-28T11:55:27.735Z</time>
      </trkpt>
      <trkpt lat="44.44289" lon="-0.25014">
        <ele>168.527231</ele>
        <time>2022-12-28T11:55:29.735Z</time>
      </trkpt>
      <trkpt lat="44.44288" lon="-0.25001">
        <ele>168.477271</ele>
        <time>2022-12-28T11:55:31.727Z</time>
      </trkpt>
      <trkpt lat="44.44287" lon="-0.24987">
        <ele>168.424972</ele>
        <time>2022-12-28T11:55:33.713Z</time>
      </trkpt>
      <trkpt lat="44.44285" lon="-0.24974">
        <ele>168.373958</ele>
        <time>2022-12-28T11:55:35.726Z</time>
      </trkpt>
      <trkpt lat="44.44284" lon="-0.2496">
        <ele>168.322943</ele>
        <time>2022-12-28T11:55:37.729Z</time>
      </trkpt>
      <trkpt lat="44.44283" lon="-0.24947">
        <ele>168.273409</ele>
        <time>2022-12-28T11:55:39.726Z</time>
      </trkpt>
      <trkpt lat="44.44281" lon="-0.24933">
        <ele>168.220838</ele>
        <time>2022-12-28T11:55:41.706Z</time>
      </trkpt>
      <trkpt lat="44.4428" lon="-0.24919">
        <ele>168.169006</ele>
        <time>2022-12-28T11:55:43.731Z</time>
      </trkpt>
      <trkpt lat="44.44278" lon="-0.24906">
        <ele>168.116354</ele>
        <time>2022-12-28T11:55:45.708Z</time>
      </trkpt>
      <trkpt lat="44.44276" lon="-0.24891">
        <ele>168.061494</ele>
        <time>2022-12-28T11:55:47.719Z</time>
      </trkpt>
      <trkpt lat="44.44275" lon="-0.24877">
        <ele>168.008764</ele>
        <time>2022-12-28T11:55:49.730Z</time>
      </trkpt>
      <trkpt lat="44.44274" lon="-0.24863">
        <ele>167.954978</ele>
        <time>2022-12-28T11:55:51.730Z</time>
      </trkpt>
      <trkpt lat="44.44272" lon="-0.24849">
        <ele>167.903064</ele>
        <time>2022-12-28T11:55:53.730Z</time>
      </trkpt>
      <trkpt lat="44.44271" lon="-0.24836">
        <ele>167.855223</ele>
        <time>2022-12-28T11:55:55.721Z</time>
      </trkpt>
      <trkpt lat="44.44269" lon="-0.24823">
        <ele>167.805233</ele>
        <time>2022-12-28T11:55:57.743Z</time>
      </trkpt>
      <trkpt lat="44.44268" lon="-0.2481">
        <ele>167.754792</ele>
        <time>2022-12-28T11:55:59.726Z</time>
      </trkpt>
      <trkpt lat="44.44266" lon="-0.24795">
        <ele>167.722858</ele>
        <time>2022-12-28T11:56:01.731Z</time>
      </trkpt>
      <trkpt lat="44.44265" lon="-0.2478">
        <ele>167.706146</ele>
        <time>2022-12-28T11:56:03.730Z</time>
      </trkpt>
      <trkpt lat="44.44263" lon="-0.24766">
        <ele>167.69065</ele>
        <time>2022-12-28T11:56:05.723Z</time>
      </trkpt>
      <trkpt lat="44.44261" lon="-0.24751">
        <ele>167.674028</ele>
        <time>2022-12-28T11:56:07.731Z</time>
      </trkpt>
      <trkpt lat="44.44259" lon="-0.24737">
        <ele>167.657816</ele>
        <time>2022-12-28T11:56:09.742Z</time>
      </trkpt>
      <trkpt lat="44.44258" lon="-0.24722">
        <ele>167.641495</ele>
        <time>2022-12-28T11:56:11.724Z</time>
      </trkpt>
      <trkpt lat="44.44255" lon="-0.24709">
        <ele>167.626254</ele>
        <time>2022-12-28T11:56:13.729Z</time>
      </trkpt>
      <trkpt lat="44.44254" lon="-0.24695">
        <ele>167.610976</ele>
        <time>2022-12-28T11:56:15.737Z</time>
      </trkpt>
      <trkpt lat="44.44252" lon="-0.24681">
        <ele>167.595363</ele>
        <time>2022-12-28T11:56:17.717Z</time>
      </trkpt>
      <trkpt lat="44.4425" lon="-0.24667">
        <ele>167.580584</ele>
        <time>2022-12-28T11:56:19.728Z</time>
      </trkpt>
      <trkpt lat="44.44248" lon="-0.24649">
        <ele>167.560055</ele>
        <time>2022-12-28T11:56:22.731Z</time>
      </trkpt>
      <trkpt lat="44.44247" lon="-0.24636">
        <ele>167.545994</ele>
        <time>2022-12-28T11:56:24.733Z</time>
      </trkpt>
      <trkpt lat="44.44246" lon="-0.24623">
        <ele>167.531735</ele>
        <time>2022-12-28T11:56:26.728Z</time>
      </trkpt>
      <trkpt lat="44.44244" lon="-0.2461">
        <ele>167.516581</ele>
        <time>2022-12-28T11:56:28.730Z</time>
      </trkpt>
      <trkpt lat="44.44243" lon="-0.24596">
        <ele>167.501776</ele>
        <time>2022-12-28T11:56:30.715Z</time>
      </trkpt>
      <trkpt lat="44.44241" lon="-0.24582">
        <ele>167.485648</ele>
        <time>2022-12-28T11:56:32.721Z</time>
      </trkpt>
      <trkpt lat="44.44239" lon="-0.24567">
        <ele>167.469251</ele>
        <time>2022-12-28T11:56:34.729Z</time>
      </trkpt>
      <trkpt lat="44.44237" lon="-0.24552">
        <ele>167.460296</ele>
        <time>2022-12-28T11:56:36.718Z</time>
      </trkpt>
      <trkpt lat="44.44236" lon="-0.24537">
        <ele>167.475473</ele>
        <time>2022-12-28T11:56:38.719Z</time>
      </trkpt>
      <trkpt lat="44.44234" lon="-0.24522">
        <ele>167.490529</ele>
        <time>2022-12-28T11:56:40.722Z</time>
      </trkpt>
      <trkpt lat="44.44232" lon="-0.24507">
        <ele>167.504942</ele>
        <time>2022-12-28T11:56:42.730Z</time>
      </trkpt>
      <trkpt lat="44.44231" lon="-0.24494">
        <ele>167.51876</ele>
        <time>2022-12-28T11:56:44.720Z</time>
      </trkpt>
      <trkpt lat="44.44229" lon="-0.24481">
        <ele>167.531657</ele>
        <time>2022-12-28T11:56:46.730Z</time>
      </trkpt>
      <trkpt lat="44.44227" lon="-0.24463">
        <ele>167.549353</ele>
        <time>2022-12-28T11:56:49.730Z</time>
      </trkpt>
      <trkpt lat="44.44225" lon="-0.24447">
        <ele>167.5656</ele>
        <time>2022-12-28T11:56:52.709Z</time>
      </trkpt>
      <trkpt lat="44.44223" lon="-0.24429">
        <ele>167.583405</ele>
        <time>2022-12-28T11:56:55.731Z</time>
      </trkpt>
      <trkpt lat="44.44222" lon="-0.2441">
        <ele>167.602054</ele>
        <time>2022-12-28T11:56:58.711Z</time>
      </trkpt>
      <trkpt lat="44.44221" lon="-0.24396">
        <ele>167.616139</ele>
        <time>2022-12-28T11:57:00.728Z</time>
      </trkpt>
      <trkpt lat="44.44219" lon="-0.24381">
        <ele>167.630863</ele>
        <time>2022-12-28T11:57:02.718Z</time>
      </trkpt>
      <trkpt lat="44.44217" lon="-0.24366">
        <ele>167.645481</ele>
        <time>2022-12-28T11:57:04.732Z</time>
      </trkpt>
      <trkpt lat="44.44216" lon="-0.24351">
        <ele>167.660854</ele>
        <time>2022-12-28T11:57:06.709Z</time>
      </trkpt>
      <trkpt lat="44.44214" lon="-0.24336">
        <ele>167.675968</ele>
        <time>2022-12-28T11:57:08.726Z</time>
      </trkpt>
      <trkpt lat="44.44212" lon="-0.2432">
        <ele>167.691798</ele>
        <time>2022-12-28T11:57:10.723Z</time>
      </trkpt>
      <trkpt lat="44.4421" lon="-0.24303">
        <ele>167.702066</ele>
        <time>2022-12-28T11:57:12.720Z</time>
      </trkpt>
      <trkpt lat="44.44208" lon="-0.24286">
        <ele>167.691043</ele>
        <time>2022-12-28T11:57:14.719Z</time>
      </trkpt>
      <trkpt lat="44.44206" lon="-0.2427">
        <ele>167.679985</ele>
        <time>2022-12-28T11:57:16.728Z</time>
      </trkpt>
      <trkpt lat="44.44204" lon="-0.24253">
        <ele>167.668897</ele>
        <time>2022-12-28T11:57:18.729Z</time>
      </trkpt>
      <trkpt lat="44.44202" lon="-0.24236">
        <ele>167.657372</ele>
        <time>2022-12-28T11:57:20.755Z</time>
      </trkpt>
      <trkpt lat="44.44201" lon="-0.24219">
        <ele>167.646167</ele>
        <time>2022-12-28T11:57:22.727Z</time>
      </trkpt>
      <trkpt lat="44.44199" lon="-0.24204">
        <ele>167.636272</ele>
        <time>2022-12-28T11:57:24.722Z</time>
      </trkpt>
      <trkpt lat="44.44198" lon="-0.24188">
        <ele>167.625783</ele>
        <time>2022-12-28T11:57:26.721Z</time>
      </trkpt>
      <trkpt lat="44.44196" lon="-0.24173">
        <ele>167.615808</ele>
        <time>2022-12-28T11:57:28.730Z</time>
      </trkpt>
      <trkpt lat="44.44194" lon="-0.24158">
        <ele>167.605696</ele>
        <time>2022-12-28T11:57:30.721Z</time>
      </trkpt>
      <trkpt lat="44.44193" lon="-0.24145">
        <ele>167.5972</ele>
        <time>2022-12-28T11:57:32.729Z</time>
      </trkpt>
      <trkpt lat="44.44192" lon="-0.24128">
        <ele>167.586362</ele>
        <time>2022-12-28T11:57:34.727Z</time>
      </trkpt>
      <trkpt lat="44.4419" lon="-0.24113">
        <ele>167.576237</ele>
        <time>2022-12-28T11:57:36.739Z</time>
      </trkpt>
      <trkpt lat="44.44188" lon="-0.24097">
        <ele>167.565833</ele>
        <time>2022-12-28T11:57:38.730Z</time>
      </trkpt>
      <trkpt lat="44.44186" lon="-0.24081">
        <ele>167.555267</ele>
        <time>2022-12-28T11:57:40.719Z</time>
      </trkpt>
      <trkpt lat="44.44185" lon="-0.24066">
        <ele>167.545345</ele>
        <time>2022-12-28T11:57:42.728Z</time>
      </trkpt>
      <trkpt lat="44.44184" lon="-0.2405">
        <ele>167.478518</ele>
        <time>2022-12-28T11:57:44.718Z</time>
      </trkpt>
      <trkpt lat="44.44182" lon="-0.24034">
        <ele>167.351387</ele>
        <time>2022-12-28T11:57:46.727Z</time>
      </trkpt>
      <trkpt lat="44.44181" lon="-0.24018">
        <ele>167.225988</ele>
        <time>2022-12-28T11:57:48.734Z</time>
      </trkpt>
      <trkpt lat="44.44179" lon="-0.24003">
        <ele>167.106373</ele>
        <time>2022-12-28T11:57:50.713Z</time>
      </trkpt>
      <trkpt lat="44.44176" lon="-0.23986">
        <ele>166.972713</ele>
        <time>2022-12-28T11:57:52.731Z</time>
      </trkpt>
      <trkpt lat="44.44175" lon="-0.2397">
        <ele>166.848832</ele>
        <time>2022-12-28T11:57:54.728Z</time>
      </trkpt>
      <trkpt lat="44.44173" lon="-0.23954">
        <ele>166.717313</ele>
        <time>2022-12-28T11:57:56.728Z</time>
      </trkpt>
      <trkpt lat="44.44171" lon="-0.23938">
        <ele>166.59213</ele>
        <time>2022-12-28T11:57:58.731Z</time>
      </trkpt>
      <trkpt lat="44.44168" lon="-0.23922">
        <ele>166.464354</ele>
        <time>2022-12-28T11:58:00.728Z</time>
      </trkpt>
      <trkpt lat="44.44166" lon="-0.23907">
        <ele>166.342433</ele>
        <time>2022-12-28T11:58:02.733Z</time>
      </trkpt>
      <trkpt lat="44.44164" lon="-0.2389">
        <ele>166.213986</ele>
        <time>2022-12-28T11:58:04.729Z</time>
      </trkpt>
      <trkpt lat="44.44162" lon="-0.23875">
        <ele>166.091106</ele>
        <time>2022-12-28T11:58:06.721Z</time>
      </trkpt>
      <trkpt lat="44.4416" lon="-0.2386">
        <ele>165.973597</ele>
        <time>2022-12-28T11:58:08.713Z</time>
      </trkpt>
      <trkpt lat="44.44159" lon="-0.23846">
        <ele>165.866044</ele>
        <time>2022-12-28T11:58:10.729Z</time>
      </trkpt>
      <trkpt lat="44.44158" lon="-0.23834">
        <ele>165.766104</ele>
        <time>2022-12-28T11:58:12.729Z</time>
      </trkpt>
      <trkpt lat="44.44156" lon="-0.2382">
        <ele>165.659518</ele>
        <time>2022-12-28T11:58:14.732Z</time>
      </trkpt>
      <trkpt lat="44.44155" lon="-0.23807">
        <ele>165.535235</ele>
        <time>2022-12-28T11:58:16.722Z</time>
      </trkpt>
      <trkpt lat="44.44153" lon="-0.2379">
        <ele>165.206689</ele>
        <time>2022-12-28T11:58:19.732Z</time>
      </trkpt>
      <trkpt lat="44.44151" lon="-0.23774">
        <ele>164.914898</ele>
        <time>2022-12-28T11:58:22.732Z</time>
      </trkpt>
      <trkpt lat="44.44143" lon="-0.23764">
        <ele>164.632629</ele>
        <time>2022-12-28T11:58:26.712Z</time>
      </trkpt>
      <trkpt lat="44.44134" lon="-0.23769">
        <ele>164.386536</ele>
        <time>2022-12-28T11:58:28.708Z</time>
      </trkpt>
      <trkpt lat="44.44125" lon="-0.23773">
        <ele>164.139324</ele>
        <time>2022-12-28T11:58:30.716Z</time>
      </trkpt>
      <trkpt lat="44.44115" lon="-0.23779">
        <ele>163.861805</ele>
        <time>2022-12-28T11:58:32.715Z</time>
      </trkpt>
      <trkpt lat="44.44105" lon="-0.23784">
        <ele>163.582779</ele>
        <time>2022-12-28T11:58:34.730Z</time>
      </trkpt>
      <trkpt lat="44.44094" lon="-0.23789">
        <ele>163.300124</ele>
        <time>2022-12-28T11:58:36.731Z</time>
      </trkpt>
      <trkpt lat="44.44084" lon="-0.23794">
        <ele>163.019696</ele>
        <time>2022-12-28T11:58:38.732Z</time>
      </trkpt>
      <trkpt lat="44.44074" lon="-0.23799">
        <ele>162.734733</ele>
        <time>2022-12-28T11:58:40.732Z</time>
      </trkpt>
      <trkpt lat="44.44063" lon="-0.23804">
        <ele>162.451588</ele>
        <time>2022-12-28T11:58:42.732Z</time>
      </trkpt>
      <trkpt lat="44.44053" lon="-0.23808">
        <ele>162.18563</ele>
        <time>2022-12-28T11:58:44.733Z</time>
      </trkpt>
      <trkpt lat="44.44044" lon="-0.23812">
        <ele>161.926079</ele>
        <time>2022-12-28T11:58:46.732Z</time>
      </trkpt>
      <trkpt lat="44.44034" lon="-0.23815">
        <ele>161.677973</ele>
        <time>2022-12-28T11:58:48.731Z</time>
      </trkpt>
      <trkpt lat="44.44025" lon="-0.23819">
        <ele>161.415964</ele>
        <time>2022-12-28T11:58:50.727Z</time>
      </trkpt>
      <trkpt lat="44.44015" lon="-0.23824">
        <ele>161.156579</ele>
        <time>2022-12-28T11:58:52.730Z</time>
      </trkpt>
      <trkpt lat="44.44005" lon="-0.23829">
        <ele>160.877699</ele>
        <time>2022-12-28T11:58:54.731Z</time>
      </trkpt>
      <trkpt lat="44.43996" lon="-0.23834">
        <ele>160.574949</ele>
        <time>2022-12-28T11:58:56.721Z</time>
      </trkpt>
      <trkpt lat="44.43987" lon="-0.23841">
        <ele>160.263455</ele>
        <time>2022-12-28T11:58:58.710Z</time>
      </trkpt>
      <trkpt lat="44.43978" lon="-0.23848">
        <ele>159.962615</ele>
        <time>2022-12-28T11:59:00.710Z</time>
      </trkpt>
      <trkpt lat="44.4397" lon="-0.23855">
        <ele>159.68478</ele>
        <time>2022-12-28T11:59:02.712Z</time>
      </trkpt>
      <trkpt lat="44.4396" lon="-0.23867">
        <ele>159.294533</ele>
        <time>2022-12-28T11:59:05.731Z</time>
      </trkpt>
      <trkpt lat="44.4395" lon="-0.23875">
        <ele>158.936903</ele>
        <time>2022-12-28T11:59:08.711Z</time>
      </trkpt>
      <trkpt lat="44.43938" lon="-0.2388">
        <ele>158.577277</ele>
        <time>2022-12-28T11:59:11.718Z</time>
      </trkpt>
      <trkpt lat="44.43927" lon="-0.23881">
        <ele>158.223274</ele>
        <time>2022-12-28T11:59:14.719Z</time>
      </trkpt>
      <trkpt lat="44.43916" lon="-0.23883">
        <ele>157.914092</ele>
        <time>2022-12-28T11:59:17.733Z</time>
      </trkpt>
      <trkpt lat="44.43908" lon="-0.23873">
        <ele>157.599803</ele>
        <time>2022-12-28T11:59:20.715Z</time>
      </trkpt>
      <trkpt lat="44.43901" lon="-0.23855">
        <ele>157.15522</ele>
        <time>2022-12-28T11:59:41.720Z</time>
      </trkpt>
      <trkpt lat="44.43897" lon="-0.23842">
        <ele>156.860834</ele>
        <time>2022-12-28T11:59:44.721Z</time>
      </trkpt>
      <trkpt lat="44.43894" lon="-0.23827">
        <ele>156.522365</ele>
        <time>2022-12-28T11:59:47.711Z</time>
      </trkpt>
      <trkpt lat="44.43889" lon="-0.2381">
        <ele>156.1293</ele>
        <time>2022-12-28T11:59:50.714Z</time>
      </trkpt>
      <trkpt lat="44.43884" lon="-0.23793">
        <ele>155.735939</ele>
        <time>2022-12-28T11:59:53.730Z</time>
      </trkpt>
      <trkpt lat="44.43878" lon="-0.23778">
        <ele>155.69167</ele>
        <time>2022-12-28T11:59:56.732Z</time>
      </trkpt>
      <trkpt lat="44.43873" lon="-0.23763">
        <ele>155.985561</ele>
        <time>2022-12-28T11:59:59.731Z</time>
      </trkpt>
      <trkpt lat="44.43868" lon="-0.23747">
        <ele>156.281819</ele>
        <time>2022-12-28T12:00:02.722Z</time>
      </trkpt>
      <trkpt lat="44.43863" lon="-0.23731">
        <ele>156.59311</ele>
        <time>2022-12-28T12:00:05.729Z</time>
      </trkpt>
      <trkpt lat="44.43859" lon="-0.23716">
        <ele>156.872783</ele>
        <time>2022-12-28T12:00:08.730Z</time>
      </trkpt>
      <trkpt lat="44.43856" lon="-0.23701">
        <ele>157.149331</ele>
        <time>2022-12-28T12:00:12.712Z</time>
      </trkpt>
      <trkpt lat="44.43854" lon="-0.23686">
        <ele>157.40982</ele>
        <time>2022-12-28T12:00:16.709Z</time>
      </trkpt>
      <trkpt lat="44.4386" lon="-0.23675">
        <ele>157.644942</ele>
        <time>2022-12-28T12:00:21.728Z</time>
      </trkpt>
      <trkpt lat="44.43869" lon="-0.23671">
        <ele>157.870436</ele>
        <time>2022-12-28T12:00:33.709Z</time>
      </trkpt>
      <trkpt lat="44.43877" lon="-0.23667">
        <ele>158.091854</ele>
        <time>2022-12-28T12:00:37.714Z</time>
      </trkpt>
      <trkpt lat="44.43887" lon="-0.23661">
        <ele>158.353702</ele>
        <time>2022-12-28T12:00:41.711Z</time>
      </trkpt>
      <trkpt lat="44.43897" lon="-0.23655">
        <ele>158.619457</ele>
        <time>2022-12-28T12:00:45.711Z</time>
      </trkpt>
      <trkpt lat="44.43908" lon="-0.23648">
        <ele>158.907522</ele>
        <time>2022-12-28T12:00:49.733Z</time>
      </trkpt>
      <trkpt lat="44.43917" lon="-0.23644">
        <ele>159.135426</ele>
        <time>2022-12-28T12:00:52.733Z</time>
      </trkpt>
      <trkpt lat="44.43926" lon="-0.23639">
        <ele>159.365598</ele>
        <time>2022-12-28T12:00:55.732Z</time>
      </trkpt>
      <trkpt lat="44.43934" lon="-0.23633">
        <ele>159.596214</ele>
        <time>2022-12-28T12:00:58.734Z</time>
      </trkpt>
      <trkpt lat="44.43942" lon="-0.23628">
        <ele>159.820245</ele>
        <time>2022-12-28T12:01:01.726Z</time>
      </trkpt>
      <trkpt lat="44.43951" lon="-0.23622">
        <ele>160.096654</ele>
        <time>2022-12-28T12:01:04.730Z</time>
      </trkpt>
      <trkpt lat="44.43959" lon="-0.23617">
        <ele>160.429772</ele>
        <time>2022-12-28T12:01:07.726Z</time>
      </trkpt>
      <trkpt lat="44.43968" lon="-0.23612">
        <ele>160.787904</ele>
        <time>2022-12-28T12:01:11.719Z</time>
      </trkpt>
      <trkpt lat="44.43978" lon="-0.23605">
        <ele>161.188174</ele>
        <time>2022-12-28T12:01:16.714Z</time>
      </trkpt>
      <trkpt lat="44.43988" lon="-0.23599">
        <ele>161.591517</ele>
        <time>2022-12-28T12:01:20.730Z</time>
      </trkpt>
      <trkpt lat="44.43998" lon="-0.23592">
        <ele>161.983898</ele>
        <time>2022-12-28T12:01:24.714Z</time>
      </trkpt>
      <trkpt lat="44.44007" lon="-0.23585">
        <ele>162.359182</ele>
        <time>2022-12-28T12:01:28.730Z</time>
      </trkpt>
      <trkpt lat="44.44014" lon="-0.23578">
        <ele>162.698961</ele>
        <time>2022-12-28T12:01:32.749Z</time>
      </trkpt>
      <trkpt lat="44.44023" lon="-0.23572">
        <ele>163.045294</ele>
        <time>2022-12-28T12:01:36.713Z</time>
      </trkpt>
      <trkpt lat="44.44033" lon="-0.23564">
        <ele>163.450391</ele>
        <time>2022-12-28T12:01:41.717Z</time>
      </trkpt>
      <trkpt lat="44.44041" lon="-0.23557">
        <ele>163.790289</ele>
        <time>2022-12-28T12:01:45.711Z</time>
      </trkpt>
      <trkpt lat="44.4405" lon="-0.23551">
        <ele>164.157602</ele>
        <time>2022-12-28T12:01:49.734Z</time>
      </trkpt>
      <trkpt lat="44.44058" lon="-0.23542">
        <ele>164.528637</ele>
        <time>2022-12-28T12:01:53.729Z</time>
      </trkpt>
      <trkpt lat="44.44066" lon="-0.23532">
        <ele>164.915346</ele>
        <time>2022-12-28T12:01:57.734Z</time>
      </trkpt>
      <trkpt lat="44.44074" lon="-0.23524">
        <ele>165.284914</ele>
        <time>2022-12-28T12:02:01.731Z</time>
      </trkpt>
      <trkpt lat="44.44082" lon="-0.23512">
        <ele>165.705527</ele>
        <time>2022-12-28T12:02:05.733Z</time>
      </trkpt>
      <trkpt lat="44.44085" lon="-0.23499">
        <ele>166.056658</ele>
        <time>2022-12-28T12:02:08.719Z</time>
      </trkpt>
      <trkpt lat="44.44084" lon="-0.23485">
        <ele>166.420425</ele>
        <time>2022-12-28T12:02:11.717Z</time>
      </trkpt>
      <trkpt lat="44.44081" lon="-0.23473">
        <ele>166.446812</ele>
        <time>2022-12-28T12:02:14.716Z</time>
      </trkpt>
      <trkpt lat="44.44074" lon="-0.23464">
        <ele>166.411607</ele>
        <time>2022-12-28T12:02:17.721Z</time>
      </trkpt>
      <trkpt lat="44.44066" lon="-0.23453">
        <ele>166.3692</ele>
        <time>2022-12-28T12:02:21.732Z</time>
      </trkpt>
      <trkpt lat="44.4406" lon="-0.23441">
        <ele>166.330063</ele>
        <time>2022-12-28T12:02:25.717Z</time>
      </trkpt>
      <trkpt lat="44.44054" lon="-0.23431">
        <ele>166.294867</ele>
        <time>2022-12-28T12:02:28.709Z</time>
      </trkpt>
      <trkpt lat="44.44047" lon="-0.23418">
        <ele>166.252119</ele>
        <time>2022-12-28T12:02:31.735Z</time>
      </trkpt>
      <trkpt lat="44.4404" lon="-0.23405">
        <ele>166.206619</ele>
        <time>2022-12-28T12:02:34.733Z</time>
      </trkpt>
      <trkpt lat="44.44033" lon="-0.23391">
        <ele>166.159132</ele>
        <time>2022-12-28T12:02:37.732Z</time>
      </trkpt>
      <trkpt lat="44.44025" lon="-0.23377">
        <ele>166.113124</ele>
        <time>2022-12-28T12:02:40.731Z</time>
      </trkpt>
      <trkpt lat="44.44018" lon="-0.23363">
        <ele>166.064985</ele>
        <time>2022-12-28T12:02:43.730Z</time>
      </trkpt>
      <trkpt lat="44.44012" lon="-0.23353">
        <ele>166.029291</ele>
        <time>2022-12-28T12:02:45.720Z</time>
      </trkpt>
      <trkpt lat="44.44006" lon="-0.23342">
        <ele>165.994779</ele>
        <time>2022-12-28T12:02:47.729Z</time>
      </trkpt>
      <trkpt lat="44.43999" lon="-0.23326">
        <ele>165.943928</ele>
        <time>2022-12-28T12:02:50.733Z</time>
      </trkpt>
      <trkpt lat="44.43994" lon="-0.23316">
        <ele>165.908534</ele>
        <time>2022-12-28T12:02:52.733Z</time>
      </trkpt>
      <trkpt lat="44.43988" lon="-0.23305">
        <ele>165.872478</ele>
        <time>2022-12-28T12:02:54.717Z</time>
      </trkpt>
      <trkpt lat="44.43982" lon="-0.23294">
        <ele>165.835104</ele>
        <time>2022-12-28T12:02:56.728Z</time>
      </trkpt>
      <trkpt lat="44.43976" lon="-0.23283">
        <ele>165.797676</ele>
        <time>2022-12-28T12:02:58.729Z</time>
      </trkpt>
      <trkpt lat="44.4397" lon="-0.23271">
        <ele>165.563151</ele>
        <time>2022-12-28T12:03:00.714Z</time>
      </trkpt>
      <trkpt lat="44.43965" lon="-0.23261">
        <ele>165.341599</ele>
        <time>2022-12-28T12:03:02.728Z</time>
      </trkpt>
      <trkpt lat="44.4396" lon="-0.2325">
        <ele>165.117255</ele>
        <time>2022-12-28T12:03:04.709Z</time>
      </trkpt>
      <trkpt lat="44.43954" lon="-0.23238">
        <ele>164.864973</ele>
        <time>2022-12-28T12:03:06.722Z</time>
      </trkpt>
      <trkpt lat="44.43948" lon="-0.23227">
        <ele>164.622521</ele>
        <time>2022-12-28T12:03:08.736Z</time>
      </trkpt>
      <trkpt lat="44.43941" lon="-0.23215">
        <ele>164.361384</ele>
        <time>2022-12-28T12:03:10.731Z</time>
      </trkpt>
      <trkpt lat="44.43935" lon="-0.23203">
        <ele>164.104999</ele>
        <time>2022-12-28T12:03:12.726Z</time>
      </trkpt>
      <trkpt lat="44.43929" lon="-0.23191">
        <ele>163.858366</ele>
        <time>2022-12-28T12:03:14.729Z</time>
      </trkpt>
      <trkpt lat="44.43922" lon="-0.23179">
        <ele>163.608833</ele>
        <time>2022-12-28T12:03:16.733Z</time>
      </trkpt>
      <trkpt lat="44.43916" lon="-0.23169">
        <ele>163.374227</ele>
        <time>2022-12-28T12:03:18.736Z</time>
      </trkpt>
      <trkpt lat="44.4391" lon="-0.23157">
        <ele>163.117587</ele>
        <time>2022-12-28T12:03:20.730Z</time>
      </trkpt>
      <trkpt lat="44.43903" lon="-0.23145">
        <ele>162.855123</ele>
        <time>2022-12-28T12:03:22.734Z</time>
      </trkpt>
      <trkpt lat="44.43896" lon="-0.23133">
        <ele>162.602855</ele>
        <time>2022-12-28T12:03:24.713Z</time>
      </trkpt>
      <trkpt lat="44.4389" lon="-0.23121">
        <ele>162.338108</ele>
        <time>2022-12-28T12:03:26.729Z</time>
      </trkpt>
      <trkpt lat="44.43884" lon="-0.2311">
        <ele>162.103287</ele>
        <time>2022-12-28T12:03:28.730Z</time>
      </trkpt>
      <trkpt lat="44.43878" lon="-0.23099">
        <ele>161.865004</ele>
        <time>2022-12-28T12:03:30.718Z</time>
      </trkpt>
      <trkpt lat="44.43872" lon="-0.23088">
        <ele>161.626018</ele>
        <time>2022-12-28T12:03:32.730Z</time>
      </trkpt>
      <trkpt lat="44.43865" lon="-0.23076">
        <ele>161.391833</ele>
        <time>2022-12-28T12:03:34.731Z</time>
      </trkpt>
      <trkpt lat="44.43859" lon="-0.23064">
        <ele>161.175672</ele>
        <time>2022-12-28T12:03:36.746Z</time>
      </trkpt>
      <trkpt lat="44.43852" lon="-0.23051">
        <ele>160.954926</ele>
        <time>2022-12-28T12:03:38.738Z</time>
      </trkpt>
      <trkpt lat="44.43845" lon="-0.23038">
        <ele>160.7296</ele>
        <time>2022-12-28T12:03:40.731Z</time>
      </trkpt>
      <trkpt lat="44.43839" lon="-0.23025">
        <ele>160.498508</ele>
        <time>2022-12-28T12:03:42.722Z</time>
      </trkpt>
      <trkpt lat="44.43832" lon="-0.23012">
        <ele>160.275478</ele>
        <time>2022-12-28T12:03:44.731Z</time>
      </trkpt>
      <trkpt lat="44.43826" lon="-0.23">
        <ele>160.065087</ele>
        <time>2022-12-28T12:03:46.733Z</time>
      </trkpt>
      <trkpt lat="44.43819" lon="-0.22987">
        <ele>159.840848</ele>
        <time>2022-12-28T12:03:48.733Z</time>
      </trkpt>
      <trkpt lat="44.43812" lon="-0.22976">
        <ele>159.629107</ele>
        <time>2022-12-28T12:03:50.735Z</time>
      </trkpt>
      <trkpt lat="44.43807" lon="-0.22964">
        <ele>159.426743</ele>
        <time>2022-12-28T12:03:52.731Z</time>
      </trkpt>
      <trkpt lat="44.43801" lon="-0.22953">
        <ele>159.239215</ele>
        <time>2022-12-28T12:03:54.743Z</time>
      </trkpt>
      <trkpt lat="44.43795" lon="-0.22942">
        <ele>159.050646</ele>
        <time>2022-12-28T12:03:56.731Z</time>
      </trkpt>
      <trkpt lat="44.43788" lon="-0.22928">
        <ele>158.790747</ele>
        <time>2022-12-28T12:03:59.730Z</time>
      </trkpt>
      <trkpt lat="44.4378" lon="-0.22914">
        <ele>158.551528</ele>
        <time>2022-12-28T12:04:02.731Z</time>
      </trkpt>
      <trkpt lat="44.43774" lon="-0.22902">
        <ele>158.335366</ele>
        <time>2022-12-28T12:04:05.732Z</time>
      </trkpt>
      <trkpt lat="44.43768" lon="-0.2289">
        <ele>158.129411</ele>
        <time>2022-12-28T12:04:08.728Z</time>
      </trkpt>
      <trkpt lat="44.43762" lon="-0.22879">
        <ele>157.938896</ele>
        <time>2022-12-28T12:04:12.732Z</time>
      </trkpt>
      <trkpt lat="44.43766" lon="-0.22865">
        <ele>157.977134</ele>
        <time>2022-12-28T12:04:16.721Z</time>
      </trkpt>
      <trkpt lat="44.43775" lon="-0.22857">
        <ele>158.029012</ele>
        <time>2022-12-28T12:04:19.715Z</time>
      </trkpt>
      <trkpt lat="44.43784" lon="-0.22849">
        <ele>158.079579</ele>
        <time>2022-12-28T12:04:22.709Z</time>
      </trkpt>
      <trkpt lat="44.43793" lon="-0.2284">
        <ele>158.134203</ele>
        <time>2022-12-28T12:04:26.735Z</time>
      </trkpt>
      <trkpt lat="44.43799" lon="-0.22836">
        <ele>158.164714</ele>
        <time>2022-12-28T12:04:36.722Z</time>
      </trkpt>
      <trkpt lat="44.43812" lon="-0.2287">
        <ele>158.299883</ele>
        <time>2022-12-28T13:14:05.190Z</time>
      </trkpt>
      <trkpt lat="44.43815" lon="-0.22858">
        <ele>158.344247</ele>
        <time>2022-12-28T13:14:47.724Z</time>
      </trkpt>
      <trkpt lat="44.43813" lon="-0.22844">
        <ele>158.392949</ele>
        <time>2022-12-28T13:14:51.723Z</time>
      </trkpt>
      <trkpt lat="44.43812" lon="-0.22829">
        <ele>158.445805</ele>
        <time>2022-12-28T13:14:55.722Z</time>
      </trkpt>
      <trkpt lat="44.43819" lon="-0.22818">
        <ele>158.495912</ele>
        <time>2022-12-28T13:14:59.717Z</time>
      </trkpt>
      <trkpt lat="44.43827" lon="-0.2281">
        <ele>158.541994</ele>
        <time>2022-12-28T13:15:03.724Z</time>
      </trkpt>
      <trkpt lat="44.43834" lon="-0.228">
        <ele>158.588292</ele>
        <time>2022-12-28T13:15:07.738Z</time>
      </trkpt>
      <trkpt lat="44.43833" lon="-0.22788">
        <ele>158.632341</ele>
        <time>2022-12-28T13:15:12.719Z</time>
      </trkpt>
      <trkpt lat="44.43831" lon="-0.22775">
        <ele>158.67714</ele>
        <time>2022-12-28T13:15:16.713Z</time>
      </trkpt>
      <trkpt lat="44.43827" lon="-0.22763">
        <ele>158.721255</ele>
        <time>2022-12-28T13:15:19.731Z</time>
      </trkpt>
      <trkpt lat="44.43823" lon="-0.22751">
        <ele>158.768993</ele>
        <time>2022-12-28T13:15:22.738Z</time>
      </trkpt>
      <trkpt lat="44.43818" lon="-0.22739">
        <ele>158.72016</ele>
        <time>2022-12-28T13:15:25.744Z</time>
      </trkpt>
      <trkpt lat="44.43813" lon="-0.22729">
        <ele>158.573489</ele>
        <time>2022-12-28T13:15:28.721Z</time>
      </trkpt>
      <trkpt lat="44.4381" lon="-0.22716">
        <ele>158.421242</ele>
        <time>2022-12-28T13:15:31.730Z</time>
      </trkpt>
      <trkpt lat="44.43806" lon="-0.22703">
        <ele>158.257003</ele>
        <time>2022-12-28T13:15:34.739Z</time>
      </trkpt>
      <trkpt lat="44.43802" lon="-0.2269">
        <ele>158.096438</ele>
        <time>2022-12-28T13:15:37.741Z</time>
      </trkpt>
      <trkpt lat="44.43797" lon="-0.2268">
        <ele>157.946924</ele>
        <time>2022-12-28T13:15:40.737Z</time>
      </trkpt>
      <trkpt lat="44.43792" lon="-0.22667">
        <ele>157.784818</ele>
        <time>2022-12-28T13:15:43.720Z</time>
      </trkpt>
      <trkpt lat="44.43787" lon="-0.22656">
        <ele>157.629804</ele>
        <time>2022-12-28T13:15:46.715Z</time>
      </trkpt>
      <trkpt lat="44.43783" lon="-0.22644">
        <ele>157.481182</ele>
        <time>2022-12-28T13:15:49.735Z</time>
      </trkpt>
      <trkpt lat="44.43778" lon="-0.22631">
        <ele>157.310134</ele>
        <time>2022-12-28T13:15:52.744Z</time>
      </trkpt>
      <trkpt lat="44.43773" lon="-0.22618">
        <ele>157.136642</ele>
        <time>2022-12-28T13:15:55.721Z</time>
      </trkpt>
      <trkpt lat="44.43768" lon="-0.22606">
        <ele>156.97019</ele>
        <time>2022-12-28T13:15:58.745Z</time>
      </trkpt>
      <trkpt lat="44.43763" lon="-0.22593">
        <ele>156.808333</ele>
        <time>2022-12-28T13:16:01.728Z</time>
      </trkpt>
      <trkpt lat="44.43758" lon="-0.22582">
        <ele>156.65286</ele>
        <time>2022-12-28T13:16:04.731Z</time>
      </trkpt>
      <trkpt lat="44.43755" lon="-0.2257">
        <ele>156.504858</ele>
        <time>2022-12-28T13:16:07.734Z</time>
      </trkpt>
      <trkpt lat="44.4375" lon="-0.22558">
        <ele>156.349367</ele>
        <time>2022-12-28T13:16:10.725Z</time>
      </trkpt>
      <trkpt lat="44.43746" lon="-0.22545">
        <ele>156.182882</ele>
        <time>2022-12-28T13:16:13.739Z</time>
      </trkpt>
      <trkpt lat="44.43741" lon="-0.22533">
        <ele>156.029235</ele>
        <time>2022-12-28T13:16:16.713Z</time>
      </trkpt>
      <trkpt lat="44.43735" lon="-0.22521">
        <ele>155.85061</ele>
        <time>2022-12-28T13:16:19.715Z</time>
      </trkpt>
      <trkpt lat="44.4373" lon="-0.22509">
        <ele>155.594196</ele>
        <time>2022-12-28T13:16:22.717Z</time>
      </trkpt>
      <trkpt lat="44.43726" lon="-0.22496">
        <ele>155.346046</ele>
        <time>2022-12-28T13:16:25.741Z</time>
      </trkpt>
      <trkpt lat="44.43722" lon="-0.22483">
        <ele>155.085351</ele>
        <time>2022-12-28T13:16:28.720Z</time>
      </trkpt>
      <trkpt lat="44.43717" lon="-0.2247">
        <ele>154.829263</ele>
        <time>2022-12-28T13:16:31.723Z</time>
      </trkpt>
      <trkpt lat="44.43711" lon="-0.22458">
        <ele>154.574998</ele>
        <time>2022-12-28T13:16:34.725Z</time>
      </trkpt>
      <trkpt lat="44.43706" lon="-0.22445">
        <ele>154.30035</ele>
        <time>2022-12-28T13:16:37.741Z</time>
      </trkpt>
      <trkpt lat="44.43701" lon="-0.22433">
        <ele>154.062559</ele>
        <time>2022-12-28T13:16:40.725Z</time>
      </trkpt>
      <trkpt lat="44.43696" lon="-0.22421">
        <ele>153.812339</ele>
        <time>2022-12-28T13:16:43.745Z</time>
      </trkpt>
      <trkpt lat="44.43691" lon="-0.22409">
        <ele>153.565354</ele>
        <time>2022-12-28T13:16:46.745Z</time>
      </trkpt>
      <trkpt lat="44.43686" lon="-0.22394">
        <ele>153.274639</ele>
        <time>2022-12-28T13:16:50.715Z</time>
      </trkpt>
      <trkpt lat="44.4368" lon="-0.22384">
        <ele>153.045856</ele>
        <time>2022-12-28T13:16:53.716Z</time>
      </trkpt>
      <trkpt lat="44.43676" lon="-0.22373">
        <ele>152.812933</ele>
        <time>2022-12-28T13:16:56.737Z</time>
      </trkpt>
      <trkpt lat="44.43672" lon="-0.22361">
        <ele>152.578402</ele>
        <time>2022-12-28T13:16:59.746Z</time>
      </trkpt>
      <trkpt lat="44.43668" lon="-0.22347">
        <ele>152.322841</ele>
        <time>2022-12-28T13:17:02.719Z</time>
      </trkpt>
      <trkpt lat="44.43663" lon="-0.22333">
        <ele>152.044865</ele>
        <time>2022-12-28T13:17:05.738Z</time>
      </trkpt>
      <trkpt lat="44.43658" lon="-0.22319">
        <ele>151.765292</ele>
        <time>2022-12-28T13:17:08.735Z</time>
      </trkpt>
      <trkpt lat="44.43653" lon="-0.22306">
        <ele>151.492041</ele>
        <time>2022-12-28T13:17:11.738Z</time>
      </trkpt>
      <trkpt lat="44.43648" lon="-0.22292">
        <ele>151.170225</ele>
        <time>2022-12-28T13:17:14.735Z</time>
      </trkpt>
      <trkpt lat="44.43642" lon="-0.22279">
        <ele>150.822637</ele>
        <time>2022-12-28T13:17:17.726Z</time>
      </trkpt>
      <trkpt lat="44.43637" lon="-0.22265">
        <ele>150.490343</ele>
        <time>2022-12-28T13:17:20.712Z</time>
      </trkpt>
      <trkpt lat="44.43632" lon="-0.22253">
        <ele>150.172471</ele>
        <time>2022-12-28T13:17:23.743Z</time>
      </trkpt>
      <trkpt lat="44.43627" lon="-0.2224">
        <ele>149.836106</ele>
        <time>2022-12-28T13:17:26.716Z</time>
      </trkpt>
      <trkpt lat="44.43621" lon="-0.22225">
        <ele>149.454003</ele>
        <time>2022-12-28T13:17:29.758Z</time>
      </trkpt>
      <trkpt lat="44.43614" lon="-0.22211">
        <ele>149.068594</ele>
        <time>2022-12-28T13:17:32.737Z</time>
      </trkpt>
      <trkpt lat="44.43608" lon="-0.22197">
        <ele>148.705264</ele>
        <time>2022-12-28T13:17:35.742Z</time>
      </trkpt>
      <trkpt lat="44.43604" lon="-0.22183">
        <ele>148.366263</ele>
        <time>2022-12-28T13:17:38.743Z</time>
      </trkpt>
      <trkpt lat="44.43599" lon="-0.22169">
        <ele>148.015152</ele>
        <time>2022-12-28T13:17:41.734Z</time>
      </trkpt>
      <trkpt lat="44.43593" lon="-0.22153">
        <ele>147.617725</ele>
        <time>2022-12-28T13:17:44.737Z</time>
      </trkpt>
      <trkpt lat="44.43589" lon="-0.22141">
        <ele>147.32524</ele>
        <time>2022-12-28T13:17:46.740Z</time>
      </trkpt>
      <trkpt lat="44.43581" lon="-0.22126">
        <ele>146.924042</ele>
        <time>2022-12-28T13:17:49.718Z</time>
      </trkpt>
      <trkpt lat="44.43574" lon="-0.22112">
        <ele>146.537397</ele>
        <time>2022-12-28T13:17:52.738Z</time>
      </trkpt>
      <trkpt lat="44.43568" lon="-0.22098">
        <ele>146.157426</ele>
        <time>2022-12-28T13:17:55.736Z</time>
      </trkpt>
      <trkpt lat="44.43565" lon="-0.22085">
        <ele>145.866448</ele>
        <time>2022-12-28T13:17:57.721Z</time>
      </trkpt>
      <trkpt lat="44.4356" lon="-0.22074">
        <ele>145.610553</ele>
        <time>2022-12-28T13:17:59.720Z</time>
      </trkpt>
      <trkpt lat="44.43556" lon="-0.22061">
        <ele>145.359542</ele>
        <time>2022-12-28T13:18:01.733Z</time>
      </trkpt>
      <trkpt lat="44.43551" lon="-0.22048">
        <ele>145.115956</ele>
        <time>2022-12-28T13:18:03.719Z</time>
      </trkpt>
      <trkpt lat="44.43547" lon="-0.22037">
        <ele>144.88188</ele>
        <time>2022-12-28T13:18:05.745Z</time>
      </trkpt>
      <trkpt lat="44.43542" lon="-0.22024">
        <ele>144.626387</ele>
        <time>2022-12-28T13:18:07.739Z</time>
      </trkpt>
      <trkpt lat="44.43537" lon="-0.22008">
        <ele>144.320405</ele>
        <time>2022-12-28T13:18:10.729Z</time>
      </trkpt>
      <trkpt lat="44.43531" lon="-0.21992">
        <ele>144.006311</ele>
        <time>2022-12-28T13:18:13.737Z</time>
      </trkpt>
      <trkpt lat="44.43526" lon="-0.21976">
        <ele>143.693854</ele>
        <time>2022-12-28T13:18:16.736Z</time>
      </trkpt>
      <trkpt lat="44.43522" lon="-0.21964">
        <ele>143.469735</ele>
        <time>2022-12-28T13:18:18.737Z</time>
      </trkpt>
      <trkpt lat="44.43519" lon="-0.21952">
        <ele>143.246236</ele>
        <time>2022-12-28T13:18:20.720Z</time>
      </trkpt>
      <trkpt lat="44.43514" lon="-0.21939">
        <ele>142.991561</ele>
        <time>2022-12-28T13:18:22.744Z</time>
      </trkpt>
      <trkpt lat="44.43508" lon="-0.21928">
        <ele>142.743877</ele>
        <time>2022-12-28T13:18:24.720Z</time>
      </trkpt>
      <trkpt lat="44.435" lon="-0.21919">
        <ele>142.485263</ele>
        <time>2022-12-28T13:18:26.721Z</time>
      </trkpt>
      <trkpt lat="44.4349" lon="-0.21916">
        <ele>142.224989</ele>
        <time>2022-12-28T13:18:28.720Z</time>
      </trkpt>
      <trkpt lat="44.4348" lon="-0.21918">
        <ele>141.977562</ele>
        <time>2022-12-28T13:18:30.722Z</time>
      </trkpt>
      <trkpt lat="44.4347" lon="-0.21922">
        <ele>141.732819</ele>
        <time>2022-12-28T13:18:32.719Z</time>
      </trkpt>
      <trkpt lat="44.4346" lon="-0.21927">
        <ele>141.472325</ele>
        <time>2022-12-28T13:18:34.721Z</time>
      </trkpt>
      <trkpt lat="44.43451" lon="-0.21932">
        <ele>141.225807</ele>
        <time>2022-12-28T13:18:36.718Z</time>
      </trkpt>
      <trkpt lat="44.43442" lon="-0.21938">
        <ele>140.974862</ele>
        <time>2022-12-28T13:18:38.728Z</time>
      </trkpt>
      <trkpt lat="44.43432" lon="-0.21943">
        <ele>140.717632</ele>
        <time>2022-12-28T13:18:40.736Z</time>
      </trkpt>
      <trkpt lat="44.43423" lon="-0.21948">
        <ele>140.470893</ele>
        <time>2022-12-28T13:18:42.737Z</time>
      </trkpt>
      <trkpt lat="44.43414" lon="-0.21953">
        <ele>140.227437</ele>
        <time>2022-12-28T13:18:44.743Z</time>
      </trkpt>
      <trkpt lat="44.43405" lon="-0.21959">
        <ele>139.971898</ele>
        <time>2022-12-28T13:18:46.745Z</time>
      </trkpt>
      <trkpt lat="44.43396" lon="-0.21965">
        <ele>139.727733</ele>
        <time>2022-12-28T13:18:48.745Z</time>
      </trkpt>
      <trkpt lat="44.43388" lon="-0.21969">
        <ele>139.501971</ele>
        <time>2022-12-28T13:18:50.721Z</time>
      </trkpt>
      <trkpt lat="44.43378" lon="-0.21969">
        <ele>139.247663</ele>
        <time>2022-12-28T13:18:52.715Z</time>
      </trkpt>
      <trkpt lat="44.43368" lon="-0.21969">
        <ele>138.99089</ele>
        <time>2022-12-28T13:18:54.723Z</time>
      </trkpt>
      <trkpt lat="44.43356" lon="-0.21961">
        <ele>138.66239</ele>
        <time>2022-12-28T13:18:57.718Z</time>
      </trkpt>
      <trkpt lat="44.43349" lon="-0.21951">
        <ele>138.413952</ele>
        <time>2022-12-28T13:18:59.718Z</time>
      </trkpt>
      <trkpt lat="44.43344" lon="-0.21938">
        <ele>138.160413</ele>
        <time>2022-12-28T13:19:01.715Z</time>
      </trkpt>
      <trkpt lat="44.43339" lon="-0.21926">
        <ele>137.903189</ele>
        <time>2022-12-28T13:19:03.715Z</time>
      </trkpt>
      <trkpt lat="44.43333" lon="-0.21912">
        <ele>137.606848</ele>
        <time>2022-12-28T13:19:05.720Z</time>
      </trkpt>
      <trkpt lat="44.43329" lon="-0.21898">
        <ele>137.32983</ele>
        <time>2022-12-28T13:19:07.715Z</time>
      </trkpt>
      <trkpt lat="44.43322" lon="-0.21883">
        <ele>137.026031</ele>
        <time>2022-12-28T13:19:09.738Z</time>
      </trkpt>
      <trkpt lat="44.43317" lon="-0.21869">
        <ele>136.678886</ele>
        <time>2022-12-28T13:19:11.737Z</time>
      </trkpt>
      <trkpt lat="44.43311" lon="-0.21854">
        <ele>136.246637</ele>
        <time>2022-12-28T13:19:13.725Z</time>
      </trkpt>
      <trkpt lat="44.43305" lon="-0.21838">
        <ele>135.789362</ele>
        <time>2022-12-28T13:19:15.736Z</time>
      </trkpt>
      <trkpt lat="44.43298" lon="-0.21825">
        <ele>135.359995</ele>
        <time>2022-12-28T13:19:17.725Z</time>
      </trkpt>
      <trkpt lat="44.4329" lon="-0.21813">
        <ele>134.947773</ele>
        <time>2022-12-28T13:19:19.729Z</time>
      </trkpt>
      <trkpt lat="44.43283" lon="-0.218">
        <ele>134.513052</ele>
        <time>2022-12-28T13:19:21.745Z</time>
      </trkpt>
      <trkpt lat="44.43278" lon="-0.21787">
        <ele>134.143504</ele>
        <time>2022-12-28T13:19:23.742Z</time>
      </trkpt>
      <trkpt lat="44.43273" lon="-0.21773">
        <ele>133.7344</ele>
        <time>2022-12-28T13:19:25.721Z</time>
      </trkpt>
      <trkpt lat="44.43269" lon="-0.21759">
        <ele>133.339334</ele>
        <time>2022-12-28T13:19:27.714Z</time>
      </trkpt>
      <trkpt lat="44.43264" lon="-0.21745">
        <ele>132.943702</ele>
        <time>2022-12-28T13:19:29.741Z</time>
      </trkpt>
      <trkpt lat="44.4326" lon="-0.21732">
        <ele>132.579001</ele>
        <time>2022-12-28T13:19:31.737Z</time>
      </trkpt>
      <trkpt lat="44.43256" lon="-0.2172">
        <ele>132.246745</ele>
        <time>2022-12-28T13:19:33.725Z</time>
      </trkpt>
      <trkpt lat="44.43251" lon="-0.2171">
        <ele>131.919206</ele>
        <time>2022-12-28T13:19:35.722Z</time>
      </trkpt>
      <trkpt lat="44.43244" lon="-0.21695">
        <ele>131.467759</ele>
        <time>2022-12-28T13:19:38.738Z</time>
      </trkpt>
      <trkpt lat="44.43238" lon="-0.21681">
        <ele>131.045347</ele>
        <time>2022-12-28T13:19:41.735Z</time>
      </trkpt>
      <trkpt lat="44.43233" lon="-0.21666">
        <ele>130.613695</ele>
        <time>2022-12-28T13:19:44.747Z</time>
      </trkpt>
      <trkpt lat="44.43228" lon="-0.21652">
        <ele>130.358928</ele>
        <time>2022-12-28T13:19:47.735Z</time>
      </trkpt>
      <trkpt lat="44.43222" lon="-0.21638">
        <ele>130.447867</ele>
        <time>2022-12-28T13:19:50.744Z</time>
      </trkpt>
      <trkpt lat="44.43217" lon="-0.21626">
        <ele>130.529979</ele>
        <time>2022-12-28T13:19:53.744Z</time>
      </trkpt>
      <trkpt lat="44.43213" lon="-0.21613">
        <ele>130.615649</ele>
        <time>2022-12-28T13:19:56.718Z</time>
      </trkpt>
      <trkpt lat="44.43208" lon="-0.21598">
        <ele>130.71174</ele>
        <time>2022-12-28T13:19:59.732Z</time>
      </trkpt>
      <trkpt lat="44.43202" lon="-0.21586">
        <ele>130.790237</ele>
        <time>2022-12-28T13:20:01.722Z</time>
      </trkpt>
      <trkpt lat="44.43198" lon="-0.21574">
        <ele>130.867078</ele>
        <time>2022-12-28T13:20:03.722Z</time>
      </trkpt>
      <trkpt lat="44.43193" lon="-0.21561">
        <ele>130.954596</ele>
        <time>2022-12-28T13:20:05.719Z</time>
      </trkpt>
      <trkpt lat="44.43188" lon="-0.21549">
        <ele>131.035928</ele>
        <time>2022-12-28T13:20:07.725Z</time>
      </trkpt>
      <trkpt lat="44.43184" lon="-0.21535">
        <ele>131.120778</ele>
        <time>2022-12-28T13:20:09.736Z</time>
      </trkpt>
      <trkpt lat="44.43181" lon="-0.21523">
        <ele>131.196384</ele>
        <time>2022-12-28T13:20:11.735Z</time>
      </trkpt>
      <trkpt lat="44.43176" lon="-0.2151">
        <ele>131.282055</ele>
        <time>2022-12-28T13:20:13.738Z</time>
      </trkpt>
      <trkpt lat="44.43173" lon="-0.21497">
        <ele>131.36144</ele>
        <time>2022-12-28T13:20:15.732Z</time>
      </trkpt>
      <trkpt lat="44.43171" lon="-0.2148">
        <ele>131.456921</ele>
        <time>2022-12-28T13:20:18.735Z</time>
      </trkpt>
      <trkpt lat="44.43168" lon="-0.21466">
        <ele>131.544912</ele>
        <time>2022-12-28T13:20:21.746Z</time>
      </trkpt>
      <trkpt lat="44.43167" lon="-0.21451">
        <ele>131.630313</ele>
        <time>2022-12-28T13:20:24.740Z</time>
      </trkpt>
      <trkpt lat="44.43165" lon="-0.21436">
        <ele>131.716418</ele>
        <time>2022-12-28T13:20:27.739Z</time>
      </trkpt>
      <trkpt lat="44.43163" lon="-0.21423">
        <ele>131.811966</ele>
        <time>2022-12-28T13:20:30.738Z</time>
      </trkpt>
      <trkpt lat="44.43159" lon="-0.21407">
        <ele>132.052771</ele>
        <time>2022-12-28T13:20:34.738Z</time>
      </trkpt>
      <trkpt lat="44.43157" lon="-0.2139">
        <ele>132.300282</ele>
        <time>2022-12-28T13:20:38.718Z</time>
      </trkpt>
      <trkpt lat="44.43157" lon="-0.21377">
        <ele>132.4989</ele>
        <time>2022-12-28T13:20:41.740Z</time>
      </trkpt>
      <trkpt lat="44.43157" lon="-0.21362">
        <ele>132.722792</ele>
        <time>2022-12-28T13:20:45.717Z</time>
      </trkpt>
      <trkpt lat="44.4316" lon="-0.21349">
        <ele>132.92223</ele>
        <time>2022-12-28T13:20:49.724Z</time>
      </trkpt>
      <trkpt lat="44.43171" lon="-0.21342">
        <ele>133.161281</ele>
        <time>2022-12-28T13:20:53.719Z</time>
      </trkpt>
      <trkpt lat="44.43179" lon="-0.2134">
        <ele>133.346104</ele>
        <time>2022-12-28T13:20:56.719Z</time>
      </trkpt>
      <trkpt lat="44.43191" lon="-0.21337">
        <ele>133.580786</ele>
        <time>2022-12-28T13:20:59.737Z</time>
      </trkpt>
      <trkpt lat="44.43202" lon="-0.21335">
        <ele>133.818354</ele>
        <time>2022-12-28T13:21:02.720Z</time>
      </trkpt>
      <trkpt lat="44.43215" lon="-0.21334">
        <ele>134.070239</ele>
        <time>2022-12-28T13:21:05.744Z</time>
      </trkpt>
      <trkpt lat="44.43225" lon="-0.21331">
        <ele>134.277978</ele>
        <time>2022-12-28T13:21:08.717Z</time>
      </trkpt>
      <trkpt lat="44.43235" lon="-0.21329">
        <ele>134.503627</ele>
        <time>2022-12-28T13:21:11.739Z</time>
      </trkpt>
      <trkpt lat="44.43246" lon="-0.21327">
        <ele>134.714258</ele>
        <time>2022-12-28T13:21:14.737Z</time>
      </trkpt>
      <trkpt lat="44.43257" lon="-0.21324">
        <ele>134.946926</ele>
        <time>2022-12-28T13:21:17.738Z</time>
      </trkpt>
      <trkpt lat="44.43262" lon="-0.21313">
        <ele>135.146701</ele>
        <time>2022-12-28T13:21:20.713Z</time>
      </trkpt>
      <trkpt lat="44.43258" lon="-0.21298">
        <ele>135.372236</ele>
        <time>2022-12-28T13:21:23.718Z</time>
      </trkpt>
      <trkpt lat="44.43254" lon="-0.21286">
        <ele>135.369129</ele>
        <time>2022-12-28T13:21:25.717Z</time>
      </trkpt>
      <trkpt lat="44.43248" lon="-0.21273">
        <ele>135.171903</ele>
        <time>2022-12-28T13:21:27.735Z</time>
      </trkpt>
      <trkpt lat="44.43243" lon="-0.21259">
        <ele>134.965685</ele>
        <time>2022-12-28T13:21:29.746Z</time>
      </trkpt>
      <trkpt lat="44.43236" lon="-0.21245">
        <ele>134.746613</ele>
        <time>2022-12-28T13:21:31.743Z</time>
      </trkpt>
      <trkpt lat="44.43231" lon="-0.21232">
        <ele>134.557054</ele>
        <time>2022-12-28T13:21:33.745Z</time>
      </trkpt>
      <trkpt lat="44.43226" lon="-0.21218">
        <ele>134.36044</ele>
        <time>2022-12-28T13:21:35.738Z</time>
      </trkpt>
      <trkpt lat="44.43221" lon="-0.21207">
        <ele>134.194536</ele>
        <time>2022-12-28T13:21:37.719Z</time>
      </trkpt>
      <trkpt lat="44.43214" lon="-0.21198">
        <ele>134.025558</ele>
        <time>2022-12-28T13:21:39.714Z</time>
      </trkpt>
      <trkpt lat="44.43206" lon="-0.21192">
        <ele>133.861429</ele>
        <time>2022-12-28T13:21:41.737Z</time>
      </trkpt>
      <trkpt lat="44.43196" lon="-0.21186">
        <ele>133.670246</ele>
        <time>2022-12-28T13:21:44.713Z</time>
      </trkpt>
      <trkpt lat="44.43188" lon="-0.21177">
        <ele>133.492408</ele>
        <time>2022-12-28T13:21:48.720Z</time>
      </trkpt>
      <trkpt lat="44.43184" lon="-0.21167">
        <ele>133.328393</ele>
        <time>2022-12-28T13:21:52.713Z</time>
      </trkpt>
      <trkpt lat="44.43178" lon="-0.21156">
        <ele>133.157129</ele>
        <time>2022-12-28T13:21:56.738Z</time>
      </trkpt>
      <trkpt lat="44.43172" lon="-0.21144">
        <ele>132.964117</ele>
        <time>2022-12-28T13:22:00.738Z</time>
      </trkpt>
      <trkpt lat="44.43166" lon="-0.21133">
        <ele>132.788865</ele>
        <time>2022-12-28T13:22:04.726Z</time>
      </trkpt>
      <trkpt lat="44.43158" lon="-0.21122">
        <ele>132.600301</ele>
        <time>2022-12-28T13:22:09.734Z</time>
      </trkpt>
      <trkpt lat="44.43154" lon="-0.21111">
        <ele>132.436151</ele>
        <time>2022-12-28T13:22:14.739Z</time>
      </trkpt>
      <trkpt lat="44.43149" lon="-0.21099">
        <ele>132.250829</ele>
        <time>2022-12-28T13:22:20.713Z</time>
      </trkpt>
      <trkpt lat="44.43148" lon="-0.21086">
        <ele>131.99821</ele>
        <time>2022-12-28T13:22:25.734Z</time>
      </trkpt>
      <trkpt lat="44.4315" lon="-0.21072">
        <ele>131.712305</ele>
        <time>2022-12-28T13:22:30.736Z</time>
      </trkpt>
      <trkpt lat="44.43153" lon="-0.2106">
        <ele>131.439166</ele>
        <time>2022-12-28T13:22:35.720Z</time>
      </trkpt>
      <trkpt lat="44.43159" lon="-0.21048">
        <ele>131.133838</ele>
        <time>2022-12-28T13:22:41.719Z</time>
      </trkpt>
      <trkpt lat="44.43165" lon="-0.21037">
        <ele>130.848712</ele>
        <time>2022-12-28T13:22:47.716Z</time>
      </trkpt>
      <trkpt lat="44.4317" lon="-0.21026">
        <ele>130.580081</ele>
        <time>2022-12-28T13:22:52.735Z</time>
      </trkpt>
      <trkpt lat="44.43174" lon="-0.21013">
        <ele>130.273552</ele>
        <time>2022-12-28T13:22:58.719Z</time>
      </trkpt>
      <trkpt lat="44.43176" lon="-0.20999">
        <ele>129.988039</ele>
        <time>2022-12-28T13:23:03.724Z</time>
      </trkpt>
      <trkpt lat="44.4318" lon="-0.20984">
        <ele>129.651181</ele>
        <time>2022-12-28T13:23:08.727Z</time>
      </trkpt>
      <trkpt lat="44.43183" lon="-0.2097">
        <ele>129.336862</ele>
        <time>2022-12-28T13:23:11.733Z</time>
      </trkpt>
      <trkpt lat="44.43187" lon="-0.20957">
        <ele>129.051073</ele>
        <time>2022-12-28T13:23:14.721Z</time>
      </trkpt>
      <trkpt lat="44.4319" lon="-0.20945">
        <ele>128.77463</ele>
        <time>2022-12-28T13:23:17.722Z</time>
      </trkpt>
      <trkpt lat="44.43193" lon="-0.20932">
        <ele>128.486251</ele>
        <time>2022-12-28T13:23:20.719Z</time>
      </trkpt>
      <trkpt lat="44.43193" lon="-0.20916">
        <ele>128.165012</ele>
        <time>2022-12-28T13:23:23.716Z</time>
      </trkpt>
      <trkpt lat="44.43193" lon="-0.20901">
        <ele>127.855665</ele>
        <time>2022-12-28T13:23:26.721Z</time>
      </trkpt>
      <trkpt lat="44.43193" lon="-0.20889">
        <ele>127.592617</ele>
        <time>2022-12-28T13:23:29.724Z</time>
      </trkpt>
      <trkpt lat="44.43195" lon="-0.20875">
        <ele>127.303548</ele>
        <time>2022-12-28T13:23:34.713Z</time>
      </trkpt>
      <trkpt lat="44.43197" lon="-0.20862">
        <ele>127.027601</ele>
        <time>2022-12-28T13:23:38.720Z</time>
      </trkpt>
      <trkpt lat="44.43199" lon="-0.2085">
        <ele>126.715265</ele>
        <time>2022-12-28T13:23:41.733Z</time>
      </trkpt>
      <trkpt lat="44.432" lon="-0.20835">
        <ele>126.34597</ele>
        <time>2022-12-28T13:23:44.738Z</time>
      </trkpt>
      <trkpt lat="44.432" lon="-0.20819">
        <ele>125.950019</ele>
        <time>2022-12-28T13:23:47.720Z</time>
      </trkpt>
      <trkpt lat="44.432" lon="-0.20806">
        <ele>125.616045</ele>
        <time>2022-12-28T13:23:50.735Z</time>
      </trkpt>
      <trkpt lat="44.432" lon="-0.2079">
        <ele>125.225027</ele>
        <time>2022-12-28T13:23:53.735Z</time>
      </trkpt>
      <trkpt lat="44.43201" lon="-0.20774">
        <ele>124.813426</ele>
        <time>2022-12-28T13:23:56.719Z</time>
      </trkpt>
      <trkpt lat="44.43201" lon="-0.20758">
        <ele>124.424569</ele>
        <time>2022-12-28T13:23:59.735Z</time>
      </trkpt>
      <trkpt lat="44.43203" lon="-0.20741">
        <ele>123.991013</ele>
        <time>2022-12-28T13:24:02.736Z</time>
      </trkpt>
      <trkpt lat="44.43203" lon="-0.20725">
        <ele>123.590097</ele>
        <time>2022-12-28T13:24:05.715Z</time>
      </trkpt>
      <trkpt lat="44.43203" lon="-0.2071">
        <ele>123.216166</ele>
        <time>2022-12-28T13:24:08.718Z</time>
      </trkpt>
      <trkpt lat="44.43203" lon="-0.20696">
        <ele>122.884809</ele>
        <time>2022-12-28T13:24:11.726Z</time>
      </trkpt>
      <trkpt lat="44.43204" lon="-0.20683">
        <ele>122.561069</ele>
        <time>2022-12-28T13:24:16.722Z</time>
      </trkpt>
      <trkpt lat="44.43202" lon="-0.20681">
        <ele>122.488844</ele>
        <time>2022-12-28T13:24:37.349Z</time>
      </trkpt>
      <trkpt lat="44.43199" lon="-0.20657">
        <ele>121.883748</ele>
        <time>2022-12-28T13:25:29.743Z</time>
      </trkpt>
      <trkpt lat="44.43197" lon="-0.20643">
        <ele>121.519388</ele>
        <time>2022-12-28T13:25:33.736Z</time>
      </trkpt>
      <trkpt lat="44.43196" lon="-0.2063">
        <ele>121.191318</ele>
        <time>2022-12-28T13:25:36.748Z</time>
      </trkpt>
      <trkpt lat="44.43194" lon="-0.20616">
        <ele>120.834353</ele>
        <time>2022-12-28T13:25:39.722Z</time>
      </trkpt>
      <trkpt lat="44.43192" lon="-0.20602">
        <ele>120.338286</ele>
        <time>2022-12-28T13:25:42.748Z</time>
      </trkpt>
      <trkpt lat="44.43191" lon="-0.20589">
        <ele>119.768325</ele>
        <time>2022-12-28T13:25:45.740Z</time>
      </trkpt>
      <trkpt lat="44.43189" lon="-0.20572">
        <ele>119.080248</ele>
        <time>2022-12-28T13:25:48.747Z</time>
      </trkpt>
      <trkpt lat="44.43187" lon="-0.20555">
        <ele>118.356407</ele>
        <time>2022-12-28T13:25:51.734Z</time>
      </trkpt>
      <trkpt lat="44.43184" lon="-0.2054">
        <ele>117.691889</ele>
        <time>2022-12-28T13:25:54.750Z</time>
      </trkpt>
      <trkpt lat="44.43184" lon="-0.20525">
        <ele>117.084705</ele>
        <time>2022-12-28T13:25:57.746Z</time>
      </trkpt>
      <trkpt lat="44.43182" lon="-0.20512">
        <ele>116.52959</ele>
        <time>2022-12-28T13:26:00.743Z</time>
      </trkpt>
      <trkpt lat="44.43181" lon="-0.20495">
        <ele>115.823279</ele>
        <time>2022-12-28T13:26:03.751Z</time>
      </trkpt>
      <trkpt lat="44.43179" lon="-0.20479">
        <ele>115.124093</ele>
        <time>2022-12-28T13:26:06.743Z</time>
      </trkpt>
      <trkpt lat="44.43177" lon="-0.20466">
        <ele>114.582968</ele>
        <time>2022-12-28T13:26:08.726Z</time>
      </trkpt>
      <trkpt lat="44.43175" lon="-0.20452">
        <ele>113.993636</ele>
        <time>2022-12-28T13:26:10.733Z</time>
      </trkpt>
      <trkpt lat="44.43174" lon="-0.20436">
        <ele>113.31993</ele>
        <time>2022-12-28T13:26:12.745Z</time>
      </trkpt>
      <trkpt lat="44.43172" lon="-0.20419">
        <ele>112.598851</ele>
        <time>2022-12-28T13:26:14.743Z</time>
      </trkpt>
      <trkpt lat="44.4317" lon="-0.20402">
        <ele>111.865782</ele>
        <time>2022-12-28T13:26:16.725Z</time>
      </trkpt>
      <trkpt lat="44.43167" lon="-0.20383">
        <ele>111.08214</ele>
        <time>2022-12-28T13:26:18.740Z</time>
      </trkpt>
      <trkpt lat="44.43164" lon="-0.20365">
        <ele>110.311042</ele>
        <time>2022-12-28T13:26:20.738Z</time>
      </trkpt>
      <trkpt lat="44.43162" lon="-0.20349">
        <ele>110.493726</ele>
        <time>2022-12-28T13:26:22.740Z</time>
      </trkpt>
      <trkpt lat="44.43161" lon="-0.20335">
        <ele>110.799146</ele>
        <time>2022-12-28T13:26:24.740Z</time>
      </trkpt>
      <trkpt lat="44.4316" lon="-0.20317">
        <ele>111.17378</ele>
        <time>2022-12-28T13:26:27.744Z</time>
      </trkpt>
      <trkpt lat="44.43159" lon="-0.20304">
        <ele>111.449974</ele>
        <time>2022-12-28T13:26:30.739Z</time>
      </trkpt>
      <trkpt lat="44.43157" lon="-0.20291">
        <ele>111.737296</ele>
        <time>2022-12-28T13:26:33.741Z</time>
      </trkpt>
      <trkpt lat="44.43155" lon="-0.20278">
        <ele>112.01567</ele>
        <time>2022-12-28T13:26:36.736Z</time>
      </trkpt>
      <trkpt lat="44.43153" lon="-0.20262">
        <ele>112.371078</ele>
        <time>2022-12-28T13:26:40.734Z</time>
      </trkpt>
      <trkpt lat="44.43151" lon="-0.20246">
        <ele>112.715931</ele>
        <time>2022-12-28T13:26:44.739Z</time>
      </trkpt>
      <trkpt lat="44.4315" lon="-0.20231">
        <ele>113.030649</ele>
        <time>2022-12-28T13:26:48.739Z</time>
      </trkpt>
      <trkpt lat="44.43148" lon="-0.20217">
        <ele>113.32998</ele>
        <time>2022-12-28T13:26:52.719Z</time>
      </trkpt>
      <trkpt lat="44.43147" lon="-0.20204">
        <ele>113.622996</ele>
        <time>2022-12-28T13:26:56.716Z</time>
      </trkpt>
      <trkpt lat="44.43146" lon="-0.2019">
        <ele>113.924423</ele>
        <time>2022-12-28T13:27:00.737Z</time>
      </trkpt>
      <trkpt lat="44.43144" lon="-0.20175">
        <ele>114.241506</ele>
        <time>2022-12-28T13:27:04.732Z</time>
      </trkpt>
      <trkpt lat="44.43142" lon="-0.2016">
        <ele>114.56548</ele>
        <time>2022-12-28T13:27:08.726Z</time>
      </trkpt>
      <trkpt lat="44.43139" lon="-0.20146">
        <ele>114.874121</ele>
        <time>2022-12-28T13:27:12.730Z</time>
      </trkpt>
      <trkpt lat="44.43138" lon="-0.20132">
        <ele>115.181206</ele>
        <time>2022-12-28T13:27:16.742Z</time>
      </trkpt>
      <trkpt lat="44.43136" lon="-0.20118">
        <ele>115.470999</ele>
        <time>2022-12-28T13:27:20.741Z</time>
      </trkpt>
      <trkpt lat="44.43134" lon="-0.20106">
        <ele>115.823995</ele>
        <time>2022-12-28T13:27:24.741Z</time>
      </trkpt>
      <trkpt lat="44.43133" lon="-0.20093">
        <ele>116.232836</ele>
        <time>2022-12-28T13:27:28.718Z</time>
      </trkpt>
      <trkpt lat="44.43131" lon="-0.20078">
        <ele>116.710375</ele>
        <time>2022-12-28T13:27:33.732Z</time>
      </trkpt>
      <trkpt lat="44.4313" lon="-0.20063">
        <ele>117.171824</ele>
        <time>2022-12-28T13:27:38.742Z</time>
      </trkpt>
      <trkpt lat="44.43128" lon="-0.20049">
        <ele>117.626523</ele>
        <time>2022-12-28T13:27:43.719Z</time>
      </trkpt>
      <trkpt lat="44.43126" lon="-0.20035">
        <ele>118.075495</ele>
        <time>2022-12-28T13:27:48.727Z</time>
      </trkpt>
      <trkpt lat="44.43125" lon="-0.20021">
        <ele>118.517079</ele>
        <time>2022-12-28T13:27:54.737Z</time>
      </trkpt>
      <trkpt lat="44.43123" lon="-0.20007">
        <ele>118.93483</ele>
        <time>2022-12-28T13:27:59.739Z</time>
      </trkpt>
      <trkpt lat="44.43122" lon="-0.19995">
        <ele>119.334419</ele>
        <time>2022-12-28T13:28:04.718Z</time>
      </trkpt>
      <trkpt lat="44.43119" lon="-0.19982">
        <ele>119.735386</ele>
        <time>2022-12-28T13:28:09.723Z</time>
      </trkpt>
      <trkpt lat="44.43117" lon="-0.19967">
        <ele>120.226246</ele>
        <time>2022-12-28T13:28:15.735Z</time>
      </trkpt>
      <trkpt lat="44.43115" lon="-0.19954">
        <ele>120.650914</ele>
        <time>2022-12-28T13:28:20.723Z</time>
      </trkpt>
      <trkpt lat="44.43114" lon="-0.1994">
        <ele>121.067437</ele>
        <time>2022-12-28T13:28:25.729Z</time>
      </trkpt>
      <trkpt lat="44.43113" lon="-0.19928">
        <ele>121.462285</ele>
        <time>2022-12-28T13:28:30.729Z</time>
      </trkpt>
      <trkpt lat="44.43111" lon="-0.19914">
        <ele>121.893964</ele>
        <time>2022-12-28T13:28:36.730Z</time>
      </trkpt>
      <trkpt lat="44.43109" lon="-0.19899">
        <ele>122.356579</ele>
        <time>2022-12-28T13:28:42.724Z</time>
      </trkpt>
      <trkpt lat="44.43108" lon="-0.19885">
        <ele>122.797114</ele>
        <time>2022-12-28T13:28:48.715Z</time>
      </trkpt>
      <trkpt lat="44.43107" lon="-0.19873">
        <ele>123.193021</ele>
        <time>2022-12-28T13:28:53.722Z</time>
      </trkpt>
      <trkpt lat="44.43106" lon="-0.19859">
        <ele>123.608768</ele>
        <time>2022-12-28T13:28:58.714Z</time>
      </trkpt>
      <trkpt lat="44.43105" lon="-0.19845">
        <ele>124.050669</ele>
        <time>2022-12-28T13:29:03.736Z</time>
      </trkpt>
      <trkpt lat="44.43103" lon="-0.19832">
        <ele>124.469957</ele>
        <time>2022-12-28T13:29:08.723Z</time>
      </trkpt>
      <trkpt lat="44.43101" lon="-0.19819">
        <ele>124.879021</ele>
        <time>2022-12-28T13:29:13.718Z</time>
      </trkpt>
      <trkpt lat="44.43098" lon="-0.19805">
        <ele>125.311691</ele>
        <time>2022-12-28T13:29:18.738Z</time>
      </trkpt>
      <trkpt lat="44.43094" lon="-0.19793">
        <ele>125.737697</ele>
        <time>2022-12-28T13:29:23.758Z</time>
      </trkpt>
      <trkpt lat="44.43089" lon="-0.19781">
        <ele>126.1369</ele>
        <time>2022-12-28T13:29:28.720Z</time>
      </trkpt>
      <trkpt lat="44.43084" lon="-0.1977">
        <ele>126.559146</ele>
        <time>2022-12-28T13:29:33.741Z</time>
      </trkpt>
      <trkpt lat="44.43078" lon="-0.19758">
        <ele>126.989286</ele>
        <time>2022-12-28T13:29:38.741Z</time>
      </trkpt>
      <trkpt lat="44.43074" lon="-0.19746">
        <ele>127.420871</ele>
        <time>2022-12-28T13:29:43.742Z</time>
      </trkpt>
      <trkpt lat="44.43068" lon="-0.19733">
        <ele>127.86888</ele>
        <time>2022-12-28T13:29:48.729Z</time>
      </trkpt>
      <trkpt lat="44.43062" lon="-0.19721">
        <ele>128.316334</ele>
        <time>2022-12-28T13:29:53.740Z</time>
      </trkpt>
      <trkpt lat="44.43057" lon="-0.19708">
        <ele>128.777449</ele>
        <time>2022-12-28T13:29:58.723Z</time>
      </trkpt>
      <trkpt lat="44.43052" lon="-0.19696">
        <ele>129.20825</ele>
        <time>2022-12-28T13:30:03.741Z</time>
      </trkpt>
      <trkpt lat="44.43046" lon="-0.19683">
        <ele>129.694019</ele>
        <time>2022-12-28T13:30:08.733Z</time>
      </trkpt>
      <trkpt lat="44.43041" lon="-0.19672">
        <ele>130.091924</ele>
        <time>2022-12-28T13:30:12.732Z</time>
      </trkpt>
      <trkpt lat="44.43035" lon="-0.19659">
        <ele>130.547781</ele>
        <time>2022-12-28T13:30:16.732Z</time>
      </trkpt>
      <trkpt lat="44.43031" lon="-0.19647">
        <ele>130.950248</ele>
        <time>2022-12-28T13:30:19.723Z</time>
      </trkpt>
      <trkpt lat="44.43026" lon="-0.19635">
        <ele>131.205793</ele>
        <time>2022-12-28T13:30:22.741Z</time>
      </trkpt>
      <trkpt lat="44.43021" lon="-0.19623">
        <ele>131.327438</ele>
        <time>2022-12-28T13:30:25.738Z</time>
      </trkpt>
      <trkpt lat="44.43016" lon="-0.19611">
        <ele>131.448242</ele>
        <time>2022-12-28T13:30:28.728Z</time>
      </trkpt>
      <trkpt lat="44.4301" lon="-0.19598">
        <ele>131.574792</ele>
        <time>2022-12-28T13:30:31.750Z</time>
      </trkpt>
      <trkpt lat="44.43004" lon="-0.19585">
        <ele>131.705229</ele>
        <time>2022-12-28T13:30:34.742Z</time>
      </trkpt>
      <trkpt lat="44.42999" lon="-0.19573">
        <ele>131.831569</ele>
        <time>2022-12-28T13:30:37.723Z</time>
      </trkpt>
      <trkpt lat="44.42994" lon="-0.1956">
        <ele>131.955734</ele>
        <time>2022-12-28T13:30:40.742Z</time>
      </trkpt>
      <trkpt lat="44.42988" lon="-0.19547">
        <ele>132.082284</ele>
        <time>2022-12-28T13:30:43.732Z</time>
      </trkpt>
      <trkpt lat="44.42983" lon="-0.19535">
        <ele>132.208834</ele>
        <time>2022-12-28T13:30:46.730Z</time>
      </trkpt>
      <trkpt lat="44.42978" lon="-0.19522">
        <ele>132.331953</ele>
        <time>2022-12-28T13:30:49.735Z</time>
      </trkpt>
      <trkpt lat="44.42973" lon="-0.19509">
        <ele>132.458946</ele>
        <time>2022-12-28T13:30:52.725Z</time>
      </trkpt>
      <trkpt lat="44.42967" lon="-0.19497">
        <ele>132.586114</ele>
        <time>2022-12-28T13:30:55.745Z</time>
      </trkpt>
      <trkpt lat="44.42961" lon="-0.19484">
        <ele>132.714464</ele>
        <time>2022-12-28T13:30:58.722Z</time>
      </trkpt>
      <trkpt lat="44.42956" lon="-0.19471">
        <ele>132.846656</ele>
        <time>2022-12-28T13:31:01.742Z</time>
      </trkpt>
      <trkpt lat="44.42951" lon="-0.19457">
        <ele>132.976479</ele>
        <time>2022-12-28T13:31:04.728Z</time>
      </trkpt>
      <trkpt lat="44.42945" lon="-0.19445">
        <ele>133.10438</ele>
        <time>2022-12-28T13:31:07.741Z</time>
      </trkpt>
      <trkpt lat="44.4294" lon="-0.19431">
        <ele>133.237453</ele>
        <time>2022-12-28T13:31:10.738Z</time>
      </trkpt>
      <trkpt lat="44.42934" lon="-0.19418">
        <ele>133.382821</ele>
        <time>2022-12-28T13:31:13.729Z</time>
      </trkpt>
      <trkpt lat="44.42929" lon="-0.19404">
        <ele>133.536118</ele>
        <time>2022-12-28T13:31:16.742Z</time>
      </trkpt>
      <trkpt lat="44.42924" lon="-0.19391">
        <ele>133.692758</ele>
        <time>2022-12-28T13:31:19.746Z</time>
      </trkpt>
      <trkpt lat="44.42918" lon="-0.19378">
        <ele>133.848913</ele>
        <time>2022-12-28T13:31:22.717Z</time>
      </trkpt>
      <trkpt lat="44.42912" lon="-0.19364">
        <ele>134.008712</ele>
        <time>2022-12-28T13:31:25.738Z</time>
      </trkpt>
      <trkpt lat="44.42906" lon="-0.1935">
        <ele>134.173869</ele>
        <time>2022-12-28T13:31:28.721Z</time>
      </trkpt>
      <trkpt lat="44.429" lon="-0.19337">
        <ele>134.327434</ele>
        <time>2022-12-28T13:31:31.746Z</time>
      </trkpt>
      <trkpt lat="44.42895" lon="-0.19324">
        <ele>134.480893</ele>
        <time>2022-12-28T13:31:34.738Z</time>
      </trkpt>
      <trkpt lat="44.42889" lon="-0.19311">
        <ele>134.639208</ele>
        <time>2022-12-28T13:31:37.750Z</time>
      </trkpt>
      <trkpt lat="44.42883" lon="-0.19298">
        <ele>134.794635</ele>
        <time>2022-12-28T13:31:40.742Z</time>
      </trkpt>
      <trkpt lat="44.42877" lon="-0.19285">
        <ele>134.954991</ele>
        <time>2022-12-28T13:31:43.737Z</time>
      </trkpt>
      <trkpt lat="44.42872" lon="-0.1927">
        <ele>135.12009</ele>
        <time>2022-12-28T13:31:46.733Z</time>
      </trkpt>
      <trkpt lat="44.42866" lon="-0.19256">
        <ele>135.283781</ele>
        <time>2022-12-28T13:31:49.737Z</time>
      </trkpt>
      <trkpt lat="44.4286" lon="-0.19242">
        <ele>135.449938</ele>
        <time>2022-12-28T13:31:52.741Z</time>
      </trkpt>
      <trkpt lat="44.42854" lon="-0.19228">
        <ele>135.618879</ele>
        <time>2022-12-28T13:31:55.750Z</time>
      </trkpt>
      <trkpt lat="44.42847" lon="-0.19213">
        <ele>135.796635</ele>
        <time>2022-12-28T13:31:58.723Z</time>
      </trkpt>
      <trkpt lat="44.42841" lon="-0.19198">
        <ele>135.925663</ele>
        <time>2022-12-28T13:32:01.736Z</time>
      </trkpt>
      <trkpt lat="44.42835" lon="-0.19183">
        <ele>136.036147</ele>
        <time>2022-12-28T13:32:04.745Z</time>
      </trkpt>
      <trkpt lat="44.42829" lon="-0.19168">
        <ele>136.148063</ele>
        <time>2022-12-28T13:32:07.735Z</time>
      </trkpt>
      <trkpt lat="44.42822" lon="-0.19154">
        <ele>136.257919</ele>
        <time>2022-12-28T13:32:10.731Z</time>
      </trkpt>
      <trkpt lat="44.42816" lon="-0.19139">
        <ele>136.36896</ele>
        <time>2022-12-28T13:32:13.724Z</time>
      </trkpt>
      <trkpt lat="44.4281" lon="-0.19125">
        <ele>136.476465</ele>
        <time>2022-12-28T13:32:16.744Z</time>
      </trkpt>
      <trkpt lat="44.42804" lon="-0.19111">
        <ele>136.582193</ele>
        <time>2022-12-28T13:32:19.733Z</time>
      </trkpt>
      <trkpt lat="44.42798" lon="-0.19097">
        <ele>136.686427</ele>
        <time>2022-12-28T13:32:22.743Z</time>
      </trkpt>
      <trkpt lat="44.42793" lon="-0.19083">
        <ele>136.793369</ele>
        <time>2022-12-28T13:32:25.730Z</time>
      </trkpt>
      <trkpt lat="44.42786" lon="-0.19069">
        <ele>136.900604</ele>
        <time>2022-12-28T13:32:28.723Z</time>
      </trkpt>
      <trkpt lat="44.4278" lon="-0.19055">
        <ele>137.008109</ele>
        <time>2022-12-28T13:32:31.750Z</time>
      </trkpt>
      <trkpt lat="44.42774" lon="-0.19042">
        <ele>137.111065</ele>
        <time>2022-12-28T13:32:34.734Z</time>
      </trkpt>
      <trkpt lat="44.42769" lon="-0.19028">
        <ele>137.216324</ele>
        <time>2022-12-28T13:32:37.741Z</time>
      </trkpt>
      <trkpt lat="44.42763" lon="-0.19014">
        <ele>137.32078</ele>
        <time>2022-12-28T13:32:40.739Z</time>
      </trkpt>
      <trkpt lat="44.42757" lon="-0.19">
        <ele>137.42548</ele>
        <time>2022-12-28T13:32:43.716Z</time>
      </trkpt>
      <trkpt lat="44.42751" lon="-0.18986">
        <ele>137.558689</ele>
        <time>2022-12-28T13:32:46.723Z</time>
      </trkpt>
      <trkpt lat="44.42746" lon="-0.18973">
        <ele>137.710392</ele>
        <time>2022-12-28T13:32:49.741Z</time>
      </trkpt>
      <trkpt lat="44.42741" lon="-0.18962">
        <ele>137.839708</ele>
        <time>2022-12-28T13:32:52.728Z</time>
      </trkpt>
      <trkpt lat="44.42736" lon="-0.18951">
        <ele>137.973863</ele>
        <time>2022-12-28T13:32:55.743Z</time>
      </trkpt>
      <trkpt lat="44.42731" lon="-0.18939">
        <ele>138.119597</ele>
        <time>2022-12-28T13:32:58.722Z</time>
      </trkpt>
      <trkpt lat="44.42725" lon="-0.18926">
        <ele>138.274344</ele>
        <time>2022-12-28T13:33:01.726Z</time>
      </trkpt>
      <trkpt lat="44.42719" lon="-0.18913">
        <ele>138.431162</ele>
        <time>2022-12-28T13:33:04.735Z</time>
      </trkpt>
      <trkpt lat="44.42713" lon="-0.18899">
        <ele>138.594439</ele>
        <time>2022-12-28T13:33:07.728Z</time>
      </trkpt>
      <trkpt lat="44.42707" lon="-0.18885">
        <ele>138.763298</ele>
        <time>2022-12-28T13:33:10.728Z</time>
      </trkpt>
      <trkpt lat="44.42701" lon="-0.1887">
        <ele>138.935349</ele>
        <time>2022-12-28T13:33:13.729Z</time>
      </trkpt>
      <trkpt lat="44.42695" lon="-0.18856">
        <ele>139.107967</ele>
        <time>2022-12-28T13:33:16.742Z</time>
      </trkpt>
      <trkpt lat="44.4269" lon="-0.18841">
        <ele>139.276337</ele>
        <time>2022-12-28T13:33:19.743Z</time>
      </trkpt>
      <trkpt lat="44.42684" lon="-0.18829">
        <ele>139.427169</ele>
        <time>2022-12-28T13:33:22.742Z</time>
      </trkpt>
      <trkpt lat="44.42679" lon="-0.18818">
        <ele>139.561324</ele>
        <time>2022-12-28T13:33:25.737Z</time>
      </trkpt>
      <trkpt lat="44.42674" lon="-0.18806">
        <ele>139.698102</ele>
        <time>2022-12-28T13:33:28.721Z</time>
      </trkpt>
      <trkpt lat="44.42669" lon="-0.18795">
        <ele>139.831388</ele>
        <time>2022-12-28T13:33:31.730Z</time>
      </trkpt>
      <trkpt lat="44.42664" lon="-0.18783">
        <ele>139.974633</ele>
        <time>2022-12-28T13:33:34.741Z</time>
      </trkpt>
      <trkpt lat="44.42659" lon="-0.18771">
        <ele>139.977141</ele>
        <time>2022-12-28T13:33:37.747Z</time>
      </trkpt>
      <trkpt lat="44.42654" lon="-0.18759">
        <ele>139.808096</ele>
        <time>2022-12-28T13:33:40.731Z</time>
      </trkpt>
      <trkpt lat="44.42649" lon="-0.18748">
        <ele>139.640956</ele>
        <time>2022-12-28T13:33:43.751Z</time>
      </trkpt>
      <trkpt lat="44.42644" lon="-0.18736">
        <ele>139.463195</ele>
        <time>2022-12-28T13:33:46.747Z</time>
      </trkpt>
      <trkpt lat="44.42639" lon="-0.18723">
        <ele>139.269616</ele>
        <time>2022-12-28T13:33:49.750Z</time>
      </trkpt>
      <trkpt lat="44.42633" lon="-0.18708">
        <ele>139.053907</ele>
        <time>2022-12-28T13:33:52.735Z</time>
      </trkpt>
      <trkpt lat="44.42626" lon="-0.18692">
        <ele>138.817911</ele>
        <time>2022-12-28T13:33:55.728Z</time>
      </trkpt>
      <trkpt lat="44.42621" lon="-0.1868">
        <ele>138.643088</ele>
        <time>2022-12-28T13:33:57.726Z</time>
      </trkpt>
      <trkpt lat="44.42615" lon="-0.18667">
        <ele>138.45483</ele>
        <time>2022-12-28T13:33:59.741Z</time>
      </trkpt>
      <trkpt lat="44.4261" lon="-0.18655">
        <ele>138.273031</ele>
        <time>2022-12-28T13:34:01.737Z</time>
      </trkpt>
      <trkpt lat="44.42604" lon="-0.18642">
        <ele>138.077797</ele>
        <time>2022-12-28T13:34:03.748Z</time>
      </trkpt>
      <trkpt lat="44.42599" lon="-0.18627">
        <ele>137.868366</ele>
        <time>2022-12-28T13:34:05.743Z</time>
      </trkpt>
      <trkpt lat="44.42593" lon="-0.18613">
        <ele>137.666687</ele>
        <time>2022-12-28T13:34:07.740Z</time>
      </trkpt>
      <trkpt lat="44.42588" lon="-0.18599">
        <ele>137.464158</ele>
        <time>2022-12-28T13:34:09.746Z</time>
      </trkpt>
      <trkpt lat="44.42582" lon="-0.18585">
        <ele>137.256287</ele>
        <time>2022-12-28T13:34:11.737Z</time>
      </trkpt>
      <trkpt lat="44.42576" lon="-0.18571">
        <ele>137.05042</ele>
        <time>2022-12-28T13:34:13.741Z</time>
      </trkpt>
      <trkpt lat="44.4257" lon="-0.18557">
        <ele>136.841594</ele>
        <time>2022-12-28T13:34:15.732Z</time>
      </trkpt>
      <trkpt lat="44.42563" lon="-0.18543">
        <ele>136.65563</ele>
        <time>2022-12-28T13:34:17.732Z</time>
      </trkpt>
      <trkpt lat="44.42557" lon="-0.18527">
        <ele>136.452566</ele>
        <time>2022-12-28T13:34:19.732Z</time>
      </trkpt>
      <trkpt lat="44.4255" lon="-0.18511">
        <ele>136.244258</ele>
        <time>2022-12-28T13:34:21.730Z</time>
      </trkpt>
      <trkpt lat="44.42543" lon="-0.18495">
        <ele>136.039619</ele>
        <time>2022-12-28T13:34:23.729Z</time>
      </trkpt>
      <trkpt lat="44.42536" lon="-0.1848">
        <ele>135.83498</ele>
        <time>2022-12-28T13:34:25.747Z</time>
      </trkpt>
      <trkpt lat="44.4253" lon="-0.18464">
        <ele>135.631915</ele>
        <time>2022-12-28T13:34:27.747Z</time>
      </trkpt>
      <trkpt lat="44.42523" lon="-0.18448">
        <ele>135.431558</ele>
        <time>2022-12-28T13:34:29.754Z</time>
      </trkpt>
      <trkpt lat="44.42517" lon="-0.18434">
        <ele>135.241942</ele>
        <time>2022-12-28T13:34:31.725Z</time>
      </trkpt>
      <trkpt lat="44.4251" lon="-0.18419">
        <ele>135.047735</ele>
        <time>2022-12-28T13:34:33.730Z</time>
      </trkpt>
      <trkpt lat="44.42504" lon="-0.18404">
        <ele>134.852186</ele>
        <time>2022-12-28T13:34:35.741Z</time>
      </trkpt>
      <trkpt lat="44.42497" lon="-0.18388">
        <ele>134.644666</ele>
        <time>2022-12-28T13:34:37.741Z</time>
      </trkpt>
      <trkpt lat="44.42491" lon="-0.18373">
        <ele>134.454364</ele>
        <time>2022-12-28T13:34:39.738Z</time>
      </trkpt>
      <trkpt lat="44.42484" lon="-0.18359">
        <ele>134.264648</ele>
        <time>2022-12-28T13:34:41.741Z</time>
      </trkpt>
      <trkpt lat="44.42479" lon="-0.18345">
        <ele>134.08247</ele>
        <time>2022-12-28T13:34:43.738Z</time>
      </trkpt>
      <trkpt lat="44.42473" lon="-0.18332">
        <ele>133.789548</ele>
        <time>2022-12-28T13:34:45.742Z</time>
      </trkpt>
      <trkpt lat="44.42468" lon="-0.1832">
        <ele>133.499615</ele>
        <time>2022-12-28T13:34:47.739Z</time>
      </trkpt>
      <trkpt lat="44.42462" lon="-0.18304">
        <ele>133.102195</ele>
        <time>2022-12-28T13:34:50.737Z</time>
      </trkpt>
      <trkpt lat="44.42457" lon="-0.18292">
        <ele>132.82366</ele>
        <time>2022-12-28T13:34:52.749Z</time>
      </trkpt>
      <trkpt lat="44.42453" lon="-0.18281">
        <ele>132.543612</ele>
        <time>2022-12-28T13:34:54.729Z</time>
      </trkpt>
      <trkpt lat="44.42449" lon="-0.18268">
        <ele>132.252725</ele>
        <time>2022-12-28T13:34:56.745Z</time>
      </trkpt>
      <trkpt lat="44.42444" lon="-0.18256">
        <ele>131.955415</ele>
        <time>2022-12-28T13:34:58.745Z</time>
      </trkpt>
      <trkpt lat="44.4244" lon="-0.18245">
        <ele>131.684831</ele>
        <time>2022-12-28T13:35:00.722Z</time>
      </trkpt>
      <trkpt lat="44.42434" lon="-0.18227">
        <ele>131.262896</ele>
        <time>2022-12-28T13:35:03.726Z</time>
      </trkpt>
      <trkpt lat="44.42428" lon="-0.18215">
        <ele>130.972327</ele>
        <time>2022-12-28T13:35:05.748Z</time>
      </trkpt>
      <trkpt lat="44.42423" lon="-0.18205">
        <ele>130.700545</ele>
        <time>2022-12-28T13:35:07.740Z</time>
      </trkpt>
      <trkpt lat="44.42418" lon="-0.18193">
        <ele>130.392765</ele>
        <time>2022-12-28T13:35:09.724Z</time>
      </trkpt>
      <trkpt lat="44.42411" lon="-0.1818">
        <ele>130.067792</ele>
        <time>2022-12-28T13:35:11.742Z</time>
      </trkpt>
      <trkpt lat="44.42405" lon="-0.18168">
        <ele>129.744524</ele>
        <time>2022-12-28T13:35:13.725Z</time>
      </trkpt>
      <trkpt lat="44.42399" lon="-0.18156">
        <ele>129.428097</ele>
        <time>2022-12-28T13:35:15.742Z</time>
      </trkpt>
      <trkpt lat="44.42392" lon="-0.18143">
        <ele>129.096188</ele>
        <time>2022-12-28T13:35:17.738Z</time>
      </trkpt>
      <trkpt lat="44.42386" lon="-0.18132">
        <ele>128.812644</ele>
        <time>2022-12-28T13:35:19.731Z</time>
      </trkpt>
      <trkpt lat="44.42381" lon="-0.18122">
        <ele>128.290113</ele>
        <time>2022-12-28T13:35:21.726Z</time>
      </trkpt>
      <trkpt lat="44.42375" lon="-0.18112">
        <ele>127.609483</ele>
        <time>2022-12-28T13:35:23.738Z</time>
      </trkpt>
      <trkpt lat="44.42368" lon="-0.18101">
        <ele>126.888549</ele>
        <time>2022-12-28T13:35:25.745Z</time>
      </trkpt>
      <trkpt lat="44.42362" lon="-0.18088">
        <ele>126.118027</ele>
        <time>2022-12-28T13:35:27.750Z</time>
      </trkpt>
      <trkpt lat="44.42356" lon="-0.18076">
        <ele>125.326999</ele>
        <time>2022-12-28T13:35:29.731Z</time>
      </trkpt>
      <trkpt lat="44.4235" lon="-0.18063">
        <ele>124.523412</ele>
        <time>2022-12-28T13:35:31.731Z</time>
      </trkpt>
      <trkpt lat="44.42344" lon="-0.1805">
        <ele>123.750385</ele>
        <time>2022-12-28T13:35:33.749Z</time>
      </trkpt>
      <trkpt lat="44.42339" lon="-0.18036">
        <ele>122.952126</ele>
        <time>2022-12-28T13:35:35.743Z</time>
      </trkpt>
      <trkpt lat="44.42335" lon="-0.18022">
        <ele>122.187454</ele>
        <time>2022-12-28T13:35:37.745Z</time>
      </trkpt>
      <trkpt lat="44.4233" lon="-0.18009">
        <ele>121.426817</ele>
        <time>2022-12-28T13:35:39.745Z</time>
      </trkpt>
      <trkpt lat="44.42327" lon="-0.17993">
        <ele>120.604884</ele>
        <time>2022-12-28T13:35:41.736Z</time>
      </trkpt>
      <trkpt lat="44.42323" lon="-0.17979">
        <ele>119.812128</ele>
        <time>2022-12-28T13:35:43.739Z</time>
      </trkpt>
      <trkpt lat="44.42321" lon="-0.17963">
        <ele>118.962653</ele>
        <time>2022-12-28T13:35:45.741Z</time>
      </trkpt>
      <trkpt lat="44.42319" lon="-0.17946">
        <ele>118.097493</ele>
        <time>2022-12-28T13:35:47.735Z</time>
      </trkpt>
      <trkpt lat="44.42318" lon="-0.17929">
        <ele>117.240109</ele>
        <time>2022-12-28T13:35:49.731Z</time>
      </trkpt>
      <trkpt lat="44.42317" lon="-0.17912">
        <ele>116.374037</ele>
        <time>2022-12-28T13:35:51.741Z</time>
      </trkpt>
      <trkpt lat="44.42316" lon="-0.17895">
        <ele>115.627334</ele>
        <time>2022-12-28T13:35:53.740Z</time>
      </trkpt>
      <trkpt lat="44.42316" lon="-0.17879">
        <ele>115.161378</ele>
        <time>2022-12-28T13:35:55.743Z</time>
      </trkpt>
      <trkpt lat="44.42316" lon="-0.17863">
        <ele>114.656272</ele>
        <time>2022-12-28T13:35:57.750Z</time>
      </trkpt>
      <trkpt lat="44.42317" lon="-0.17846">
        <ele>114.148073</ele>
        <time>2022-12-28T13:35:59.738Z</time>
      </trkpt>
      <trkpt lat="44.42317" lon="-0.17829">
        <ele>113.654613</ele>
        <time>2022-12-28T13:36:01.744Z</time>
      </trkpt>
      <trkpt lat="44.42317" lon="-0.17811">
        <ele>113.101222</ele>
        <time>2022-12-28T13:36:03.740Z</time>
      </trkpt>
      <trkpt lat="44.42318" lon="-0.17793">
        <ele>112.547303</ele>
        <time>2022-12-28T13:36:05.753Z</time>
      </trkpt>
      <trkpt lat="44.42319" lon="-0.17774">
        <ele>111.991867</ele>
        <time>2022-12-28T13:36:07.749Z</time>
      </trkpt>
      <trkpt lat="44.4232" lon="-0.17753">
        <ele>111.358877</ele>
        <time>2022-12-28T13:36:09.740Z</time>
      </trkpt>
      <trkpt lat="44.42322" lon="-0.17731">
        <ele>110.683605</ele>
        <time>2022-12-28T13:36:11.741Z</time>
      </trkpt>
      <trkpt lat="44.42322" lon="-0.17707">
        <ele>109.968088</ele>
        <time>2022-12-28T13:36:13.741Z</time>
      </trkpt>
      <trkpt lat="44.42322" lon="-0.17694">
        <ele>109.589312</ele>
        <time>2022-12-28T13:36:14.745Z</time>
      </trkpt>
      <trkpt lat="44.42322" lon="-0.17669">
        <ele>108.840729</ele>
        <time>2022-12-28T13:36:16.743Z</time>
      </trkpt>
      <trkpt lat="44.42321" lon="-0.17657">
        <ele>108.455848</ele>
        <time>2022-12-28T13:36:17.749Z</time>
      </trkpt>
      <trkpt lat="44.4232" lon="-0.17632">
        <ele>108.341967</ele>
        <time>2022-12-28T13:36:19.739Z</time>
      </trkpt>
      <trkpt lat="44.42319" lon="-0.17608">
        <ele>108.460014</ele>
        <time>2022-12-28T13:36:21.742Z</time>
      </trkpt>
      <trkpt lat="44.42318" lon="-0.17585">
        <ele>108.575833</ele>
        <time>2022-12-28T13:36:23.740Z</time>
      </trkpt>
      <trkpt lat="44.42316" lon="-0.17561">
        <ele>108.689844</ele>
        <time>2022-12-28T13:36:25.721Z</time>
      </trkpt>
      <trkpt lat="44.42313" lon="-0.17541">
        <ele>108.791743</ele>
        <time>2022-12-28T13:36:27.729Z</time>
      </trkpt>
      <trkpt lat="44.4231" lon="-0.17522">
        <ele>108.885108</ele>
        <time>2022-12-28T13:36:29.744Z</time>
      </trkpt>
      <trkpt lat="44.42306" lon="-0.17506">
        <ele>108.96831</ele>
        <time>2022-12-28T13:36:31.743Z</time>
      </trkpt>
      <trkpt lat="44.42303" lon="-0.17492">
        <ele>109.040631</ele>
        <time>2022-12-28T13:36:33.742Z</time>
      </trkpt>
      <trkpt lat="44.423" lon="-0.1748">
        <ele>109.103246</ele>
        <time>2022-12-28T13:36:35.792Z</time>
      </trkpt>
      <trkpt lat="44.42296" lon="-0.17465">
        <ele>109.180126</ele>
        <time>2022-12-28T13:36:38.749Z</time>
      </trkpt>
      <trkpt lat="44.42292" lon="-0.17452">
        <ele>109.250669</ele>
        <time>2022-12-28T13:36:41.794Z</time>
      </trkpt>
      <trkpt lat="44.42287" lon="-0.17437">
        <ele>109.328642</ele>
        <time>2022-12-28T13:36:45.743Z</time>
      </trkpt>
      <trkpt lat="44.42283" lon="-0.17424">
        <ele>109.402071</ele>
        <time>2022-12-28T13:36:49.743Z</time>
      </trkpt>
      <trkpt lat="44.42278" lon="-0.17411">
        <ele>109.473869</ele>
        <time>2022-12-28T13:36:53.723Z</time>
      </trkpt>
      <trkpt lat="44.42273" lon="-0.17398">
        <ele>109.939652</ele>
        <time>2022-12-28T13:36:58.821Z</time>
      </trkpt>
      <trkpt lat="44.42268" lon="-0.17385">
        <ele>110.506935</ele>
        <time>2022-12-28T13:37:04.811Z</time>
      </trkpt>
      <trkpt lat="44.42263" lon="-0.17372">
        <ele>111.09314</ele>
        <time>2022-12-28T13:37:10.746Z</time>
      </trkpt>
      <trkpt lat="44.42259" lon="-0.17361">
        <ele>111.590104</ele>
        <time>2022-12-28T13:37:15.794Z</time>
      </trkpt>
      <trkpt lat="44.42253" lon="-0.17349">
        <ele>112.154761</ele>
        <time>2022-12-28T13:37:21.765Z</time>
      </trkpt>
      <trkpt lat="44.42248" lon="-0.17337">
        <ele>112.680816</ele>
        <time>2022-12-28T13:37:26.743Z</time>
      </trkpt>
      <trkpt lat="44.42243" lon="-0.17324">
        <ele>113.24405</ele>
        <time>2022-12-28T13:37:32.743Z</time>
      </trkpt>
      <trkpt lat="44.42238" lon="-0.17313">
        <ele>113.789712</ele>
        <time>2022-12-28T13:37:38.748Z</time>
      </trkpt>
      <trkpt lat="44.42232" lon="-0.17301">
        <ele>114.360159</ele>
        <time>2022-12-28T13:37:44.747Z</time>
      </trkpt>
      <trkpt lat="44.42226" lon="-0.17288">
        <ele>114.949793</ele>
        <time>2022-12-28T13:37:50.757Z</time>
      </trkpt>
      <trkpt lat="44.4222" lon="-0.17276">
        <ele>115.50432</ele>
        <time>2022-12-28T13:37:57.743Z</time>
      </trkpt>
      <trkpt lat="44.42214" lon="-0.17265">
        <ele>116.059763</ele>
        <time>2022-12-28T13:38:03.748Z</time>
      </trkpt>
      <trkpt lat="44.42208" lon="-0.17254">
        <ele>116.588978</ele>
        <time>2022-12-28T13:38:09.744Z</time>
      </trkpt>
      <trkpt lat="44.42202" lon="-0.17241">
        <ele>117.175378</ele>
        <time>2022-12-28T13:38:15.746Z</time>
      </trkpt>
      <trkpt lat="44.42197" lon="-0.17231">
        <ele>117.676303</ele>
        <time>2022-12-28T13:38:20.749Z</time>
      </trkpt>
      <trkpt lat="44.42191" lon="-0.17218">
        <ele>118.261851</ele>
        <time>2022-12-28T13:38:26.742Z</time>
      </trkpt>
      <trkpt lat="44.42185" lon="-0.17207">
        <ele>118.822669</ele>
        <time>2022-12-28T13:38:32.747Z</time>
      </trkpt>
      <trkpt lat="44.4218" lon="-0.17196">
        <ele>119.321643</ele>
        <time>2022-12-28T13:38:38.748Z</time>
      </trkpt>
      <trkpt lat="44.42174" lon="-0.17184">
        <ele>119.925008</ele>
        <time>2022-12-28T13:38:44.731Z</time>
      </trkpt>
      <trkpt lat="44.42168" lon="-0.17171">
        <ele>120.535579</ele>
        <time>2022-12-28T13:38:50.747Z</time>
      </trkpt>
      <trkpt lat="44.42163" lon="-0.17159">
        <ele>121.143045</ele>
        <time>2022-12-28T13:38:56.743Z</time>
      </trkpt>
      <trkpt lat="44.42157" lon="-0.17147">
        <ele>121.734434</ele>
        <time>2022-12-28T13:39:02.743Z</time>
      </trkpt>
      <trkpt lat="44.42152" lon="-0.17134">
        <ele>122.352775</ele>
        <time>2022-12-28T13:39:08.727Z</time>
      </trkpt>
      <trkpt lat="44.42147" lon="-0.17121">
        <ele>122.936044</ele>
        <time>2022-12-28T13:39:14.744Z</time>
      </trkpt>
      <trkpt lat="44.42141" lon="-0.17109">
        <ele>123.529412</ele>
        <time>2022-12-28T13:39:21.742Z</time>
      </trkpt>
      <trkpt lat="44.42136" lon="-0.17098">
        <ele>124.083658</ele>
        <time>2022-12-28T13:39:27.746Z</time>
      </trkpt>
      <trkpt lat="44.42131" lon="-0.17084">
        <ele>124.706754</ele>
        <time>2022-12-28T13:39:33.745Z</time>
      </trkpt>
      <trkpt lat="44.42126" lon="-0.17073">
        <ele>125.25381</ele>
        <time>2022-12-28T13:39:38.743Z</time>
      </trkpt>
      <trkpt lat="44.42122" lon="-0.1706">
        <ele>125.801304</ele>
        <time>2022-12-28T13:39:43.744Z</time>
      </trkpt>
      <trkpt lat="44.42119" lon="-0.17048">
        <ele>126.353375</ele>
        <time>2022-12-28T13:39:48.746Z</time>
      </trkpt>
      <trkpt lat="44.42115" lon="-0.17036">
        <ele>126.890286</ele>
        <time>2022-12-28T13:39:54.750Z</time>
      </trkpt>
      <trkpt lat="44.42111" lon="-0.17023">
        <ele>127.465224</ele>
        <time>2022-12-28T13:40:00.742Z</time>
      </trkpt>
      <trkpt lat="44.42108" lon="-0.17011">
        <ele>127.98792</ele>
        <time>2022-12-28T13:40:05.744Z</time>
      </trkpt>
      <trkpt lat="44.42105" lon="-0.16998">
        <ele>128.555221</ele>
        <time>2022-12-28T13:40:10.743Z</time>
      </trkpt>
      <trkpt lat="44.42102" lon="-0.16984">
        <ele>129.153929</ele>
        <time>2022-12-28T13:40:15.751Z</time>
      </trkpt>
      <trkpt lat="44.42098" lon="-0.16972">
        <ele>129.661504</ele>
        <time>2022-12-28T13:40:19.744Z</time>
      </trkpt>
      <trkpt lat="44.42095" lon="-0.16957">
        <ele>130.121166</ele>
        <time>2022-12-28T13:40:24.744Z</time>
      </trkpt>
      <trkpt lat="44.42091" lon="-0.16944">
        <ele>130.553782</ele>
        <time>2022-12-28T13:40:29.746Z</time>
      </trkpt>
      <trkpt lat="44.42088" lon="-0.16931">
        <ele>130.96573</ele>
        <time>2022-12-28T13:40:34.744Z</time>
      </trkpt>
      <trkpt lat="44.42084" lon="-0.16916">
        <ele>131.44226</ele>
        <time>2022-12-28T13:40:39.747Z</time>
      </trkpt>
      <trkpt lat="44.42081" lon="-0.16904">
        <ele>131.825193</ele>
        <time>2022-12-28T13:40:43.744Z</time>
      </trkpt>
      <trkpt lat="44.42077" lon="-0.16891">
        <ele>132.2564</ele>
        <time>2022-12-28T13:40:48.806Z</time>
      </trkpt>
      <trkpt lat="44.42074" lon="-0.16877">
        <ele>132.685114</ele>
        <time>2022-12-28T13:40:53.746Z</time>
      </trkpt>
      <trkpt lat="44.42071" lon="-0.16865">
        <ele>133.073739</ele>
        <time>2022-12-28T13:40:57.727Z</time>
      </trkpt>
      <trkpt lat="44.42067" lon="-0.16852">
        <ele>133.50008</ele>
        <time>2022-12-28T13:41:01.744Z</time>
      </trkpt>
      <trkpt lat="44.42063" lon="-0.16838">
        <ele>133.969571</ele>
        <time>2022-12-28T13:41:05.789Z</time>
      </trkpt>
      <trkpt lat="44.4206" lon="-0.16824">
        <ele>134.409248</ele>
        <time>2022-12-28T13:41:09.744Z</time>
      </trkpt>
      <trkpt lat="44.42056" lon="-0.16811">
        <ele>134.813639</ele>
        <time>2022-12-28T13:41:13.745Z</time>
      </trkpt>
      <trkpt lat="44.42052" lon="-0.16799">
        <ele>135.231146</ele>
        <time>2022-12-28T13:41:18.744Z</time>
      </trkpt>
      <trkpt lat="44.42049" lon="-0.16785">
        <ele>135.653909</ele>
        <time>2022-12-28T13:41:22.746Z</time>
      </trkpt>
      <trkpt lat="44.42045" lon="-0.1677">
        <ele>136.136164</ele>
        <time>2022-12-28T13:41:26.747Z</time>
      </trkpt>
      <trkpt lat="44.42041" lon="-0.16757">
        <ele>136.576019</ele>
        <time>2022-12-28T13:41:30.745Z</time>
      </trkpt>
      <trkpt lat="44.42038" lon="-0.16744">
        <ele>136.983064</ele>
        <time>2022-12-28T13:41:34.822Z</time>
      </trkpt>
      <trkpt lat="44.42034" lon="-0.1673">
        <ele>137.323789</ele>
        <time>2022-12-28T13:41:38.743Z</time>
      </trkpt>
      <trkpt lat="44.4203" lon="-0.16716">
        <ele>137.586053</ele>
        <time>2022-12-28T13:41:42.743Z</time>
      </trkpt>
      <trkpt lat="44.42027" lon="-0.16702">
        <ele>137.840294</ele>
        <time>2022-12-28T13:41:46.822Z</time>
      </trkpt>
      <trkpt lat="44.42023" lon="-0.16688">
        <ele>138.094384</ele>
        <time>2022-12-28T13:41:50.744Z</time>
      </trkpt>
      <trkpt lat="44.42018" lon="-0.16674">
        <ele>138.365867</ele>
        <time>2022-12-28T13:41:54.745Z</time>
      </trkpt>
      <trkpt lat="44.42014" lon="-0.16662">
        <ele>138.586979</ele>
        <time>2022-12-28T13:41:57.745Z</time>
      </trkpt>
      <trkpt lat="44.4201" lon="-0.16651">
        <ele>138.805035</ele>
        <time>2022-12-28T13:42:00.744Z</time>
      </trkpt>
      <trkpt lat="44.42005" lon="-0.16639">
        <ele>139.030214</ele>
        <time>2022-12-28T13:42:03.721Z</time>
      </trkpt>
      <trkpt lat="44.42" lon="-0.16629">
        <ele>139.247528</ele>
        <time>2022-12-28T13:42:06.745Z</time>
      </trkpt>
      <trkpt lat="44.41995" lon="-0.16618">
        <ele>139.471463</ele>
        <time>2022-12-28T13:42:09.746Z</time>
      </trkpt>
      <trkpt lat="44.41988" lon="-0.16604">
        <ele>139.75795</ele>
        <time>2022-12-28T13:42:13.748Z</time>
      </trkpt>
      <trkpt lat="44.41983" lon="-0.16593">
        <ele>139.987339</ele>
        <time>2022-12-28T13:42:16.797Z</time>
      </trkpt>
      <trkpt lat="44.41977" lon="-0.16582">
        <ele>140.218276</ele>
        <time>2022-12-28T13:42:19.748Z</time>
      </trkpt>
      <trkpt lat="44.41971" lon="-0.16572">
        <ele>140.442945</ele>
        <time>2022-12-28T13:42:22.806Z</time>
      </trkpt>
      <trkpt lat="44.41964" lon="-0.16563">
        <ele>140.672253</ele>
        <time>2022-12-28T13:42:25.744Z</time>
      </trkpt>
      <trkpt lat="44.41957" lon="-0.16553">
        <ele>140.90113</ele>
        <time>2022-12-28T13:42:28.821Z</time>
      </trkpt>
      <trkpt lat="44.41951" lon="-0.16543">
        <ele>141.129219</ele>
        <time>2022-12-28T13:42:31.744Z</time>
      </trkpt>
      <trkpt lat="44.41944" lon="-0.16535">
        <ele>141.350186</ele>
        <time>2022-12-28T13:42:34.726Z</time>
      </trkpt>
      <trkpt lat="44.41937" lon="-0.16526">
        <ele>141.561439</ele>
        <time>2022-12-28T13:42:37.744Z</time>
      </trkpt>
      <trkpt lat="44.41931" lon="-0.16517">
        <ele>141.749482</ele>
        <time>2022-12-28T13:42:40.742Z</time>
      </trkpt>
      <trkpt lat="44.41924" lon="-0.16508">
        <ele>141.938546</ele>
        <time>2022-12-28T13:42:43.745Z</time>
      </trkpt>
      <trkpt lat="44.41915" lon="-0.16496">
        <ele>142.185336</ele>
        <time>2022-12-28T13:42:47.746Z</time>
      </trkpt>
      <trkpt lat="44.41908" lon="-0.16486">
        <ele>142.380821</ele>
        <time>2022-12-28T13:42:50.793Z</time>
      </trkpt>
      <trkpt lat="44.41901" lon="-0.16478">
        <ele>142.57461</ele>
        <time>2022-12-28T13:42:53.745Z</time>
      </trkpt>
      <trkpt lat="44.41894" lon="-0.16469">
        <ele>142.769087</ele>
        <time>2022-12-28T13:42:56.795Z</time>
      </trkpt>
      <trkpt lat="44.41887" lon="-0.16457">
        <ele>142.995358</ele>
        <time>2022-12-28T13:43:00.742Z</time>
      </trkpt>
      <trkpt lat="44.41879" lon="-0.16446">
        <ele>143.231851</ele>
        <time>2022-12-28T13:43:04.743Z</time>
      </trkpt>
      <trkpt lat="44.41872" lon="-0.16437">
        <ele>143.41907</ele>
        <time>2022-12-28T13:43:07.790Z</time>
      </trkpt>
      <trkpt lat="44.41865" lon="-0.16428">
        <ele>143.607576</ele>
        <time>2022-12-28T13:43:10.742Z</time>
      </trkpt>
      <trkpt lat="44.41859" lon="-0.16419">
        <ele>143.792595</ele>
        <time>2022-12-28T13:43:13.747Z</time>
      </trkpt>
      <trkpt lat="44.41852" lon="-0.1641">
        <ele>143.98607</ele>
        <time>2022-12-28T13:43:16.744Z</time>
      </trkpt>
      <trkpt lat="44.41845" lon="-0.16401">
        <ele>144.176594</ele>
        <time>2022-12-28T13:43:19.718Z</time>
      </trkpt>
      <trkpt lat="44.41839" lon="-0.16391">
        <ele>144.375872</ele>
        <time>2022-12-28T13:43:22.744Z</time>
      </trkpt>
      <trkpt lat="44.41831" lon="-0.16378">
        <ele>144.61368</ele>
        <time>2022-12-28T13:43:26.745Z</time>
      </trkpt>
      <trkpt lat="44.41825" lon="-0.16369">
        <ele>144.803192</ele>
        <time>2022-12-28T13:43:30.744Z</time>
      </trkpt>
      <trkpt lat="44.41818" lon="-0.16359">
        <ele>145.007996</ele>
        <time>2022-12-28T13:43:34.779Z</time>
      </trkpt>
      <trkpt lat="44.4181" lon="-0.16349">
        <ele>145.251168</ele>
        <time>2022-12-28T13:43:38.743Z</time>
      </trkpt>
      <trkpt lat="44.41802" lon="-0.16339">
        <ele>145.606289</ele>
        <time>2022-12-28T13:43:42.743Z</time>
      </trkpt>
      <trkpt lat="44.41795" lon="-0.16329">
        <ele>145.952559</ele>
        <time>2022-12-28T13:43:46.742Z</time>
      </trkpt>
      <trkpt lat="44.41787" lon="-0.16318">
        <ele>146.306403</ele>
        <time>2022-12-28T13:43:50.729Z</time>
      </trkpt>
      <trkpt lat="44.4178" lon="-0.16309">
        <ele>146.628561</ele>
        <time>2022-12-28T13:43:54.742Z</time>
      </trkpt>
      <trkpt lat="44.41773" lon="-0.163">
        <ele>146.930531</ele>
        <time>2022-12-28T13:43:58.748Z</time>
      </trkpt>
      <trkpt lat="44.41767" lon="-0.1629">
        <ele>147.248447</ele>
        <time>2022-12-28T13:44:02.738Z</time>
      </trkpt>
      <trkpt lat="44.4176" lon="-0.1628">
        <ele>147.572631</ele>
        <time>2022-12-28T13:44:06.746Z</time>
      </trkpt>
      <trkpt lat="44.41753" lon="-0.16271">
        <ele>147.884405</ele>
        <time>2022-12-28T13:44:10.740Z</time>
      </trkpt>
      <trkpt lat="44.41747" lon="-0.16261">
        <ele>148.200064</ele>
        <time>2022-12-28T13:44:14.745Z</time>
      </trkpt>
      <trkpt lat="44.4174" lon="-0.16251">
        <ele>148.520257</ele>
        <time>2022-12-28T13:44:18.745Z</time>
      </trkpt>
      <trkpt lat="44.41734" lon="-0.16242">
        <ele>148.826775</ele>
        <time>2022-12-28T13:44:22.744Z</time>
      </trkpt>
      <trkpt lat="44.41727" lon="-0.16234">
        <ele>149.13395</ele>
        <time>2022-12-28T13:44:27.811Z</time>
      </trkpt>
      <trkpt lat="44.41719" lon="-0.16222">
        <ele>149.496315</ele>
        <time>2022-12-28T13:44:32.745Z</time>
      </trkpt>
      <trkpt lat="44.41711" lon="-0.16212">
        <ele>149.856325</ele>
        <time>2022-12-28T13:44:37.749Z</time>
      </trkpt>
      <trkpt lat="44.41703" lon="-0.16202">
        <ele>150.213173</ele>
        <time>2022-12-28T13:44:42.751Z</time>
      </trkpt>
      <trkpt lat="44.41695" lon="-0.16191">
        <ele>150.57569</ele>
        <time>2022-12-28T13:44:47.747Z</time>
      </trkpt>
      <trkpt lat="44.41688" lon="-0.16179">
        <ele>150.94279</ele>
        <time>2022-12-28T13:44:52.746Z</time>
      </trkpt>
      <trkpt lat="44.41681" lon="-0.16168">
        <ele>151.333505</ele>
        <time>2022-12-28T13:44:57.731Z</time>
      </trkpt>
      <trkpt lat="44.41673" lon="-0.16158">
        <ele>151.76067</ele>
        <time>2022-12-28T13:45:02.745Z</time>
      </trkpt>
      <trkpt lat="44.41666" lon="-0.16147">
        <ele>152.178005</ele>
        <time>2022-12-28T13:45:07.792Z</time>
      </trkpt>
      <trkpt lat="44.41658" lon="-0.16136">
        <ele>152.620652</ele>
        <time>2022-12-28T13:45:12.739Z</time>
      </trkpt>
      <trkpt lat="44.41651" lon="-0.16126">
        <ele>153.022798</ele>
        <time>2022-12-28T13:45:17.747Z</time>
      </trkpt>
      <trkpt lat="44.41643" lon="-0.16116">
        <ele>153.466372</ele>
        <time>2022-12-28T13:45:22.744Z</time>
      </trkpt>
      <trkpt lat="44.41636" lon="-0.16105">
        <ele>153.899639</ele>
        <time>2022-12-28T13:45:27.748Z</time>
      </trkpt>
      <trkpt lat="44.41628" lon="-0.16094">
        <ele>154.310234</ele>
        <time>2022-12-28T13:45:32.722Z</time>
      </trkpt>
      <trkpt lat="44.41621" lon="-0.16083">
        <ele>154.753121</ele>
        <time>2022-12-28T13:45:37.745Z</time>
      </trkpt>
      <trkpt lat="44.41613" lon="-0.16073">
        <ele>155.18602</ele>
        <time>2022-12-28T13:45:42.798Z</time>
      </trkpt>
      <trkpt lat="44.41605" lon="-0.16062">
        <ele>155.605238</ele>
        <time>2022-12-28T13:45:47.745Z</time>
      </trkpt>
      <trkpt lat="44.41598" lon="-0.16052">
        <ele>156.011507</ele>
        <time>2022-12-28T13:45:52.745Z</time>
      </trkpt>
      <trkpt lat="44.41591" lon="-0.16041">
        <ele>156.448387</ele>
        <time>2022-12-28T13:45:57.742Z</time>
      </trkpt>
      <trkpt lat="44.41583" lon="-0.16031">
        <ele>156.879589</ele>
        <time>2022-12-28T13:46:02.747Z</time>
      </trkpt>
      <trkpt lat="44.41576" lon="-0.16021">
        <ele>157.286575</ele>
        <time>2022-12-28T13:46:07.746Z</time>
      </trkpt>
      <trkpt lat="44.4157" lon="-0.16011">
        <ele>157.648015</ele>
        <time>2022-12-28T13:46:11.822Z</time>
      </trkpt>
      <trkpt lat="44.41563" lon="-0.16001">
        <ele>158.031701</ele>
        <time>2022-12-28T13:46:15.745Z</time>
      </trkpt>
      <trkpt lat="44.41556" lon="-0.15991">
        <ele>158.415125</ele>
        <time>2022-12-28T13:46:19.744Z</time>
      </trkpt>
      <trkpt lat="44.41549" lon="-0.15981">
        <ele>158.721267</ele>
        <time>2022-12-28T13:46:23.799Z</time>
      </trkpt>
      <trkpt lat="44.41543" lon="-0.15971">
        <ele>159.0039</ele>
        <time>2022-12-28T13:46:27.727Z</time>
      </trkpt>
      <trkpt lat="44.41535" lon="-0.15961">
        <ele>159.318922</ele>
        <time>2022-12-28T13:46:31.750Z</time>
      </trkpt>
      <trkpt lat="44.41528" lon="-0.1595">
        <ele>159.646023</ele>
        <time>2022-12-28T13:46:35.749Z</time>
      </trkpt>
      <trkpt lat="44.41519" lon="-0.1594">
        <ele>159.993833</ele>
        <time>2022-12-28T13:46:39.730Z</time>
      </trkpt>
      <trkpt lat="44.41511" lon="-0.1593">
        <ele>160.31736</ele>
        <time>2022-12-28T13:46:43.746Z</time>
      </trkpt>
      <trkpt lat="44.41503" lon="-0.15919">
        <ele>160.63787</ele>
        <time>2022-12-28T13:46:47.754Z</time>
      </trkpt>
      <trkpt lat="44.41496" lon="-0.15909">
        <ele>160.955583</ele>
        <time>2022-12-28T13:46:51.752Z</time>
      </trkpt>
      <trkpt lat="44.41488" lon="-0.15897">
        <ele>161.303553</ele>
        <time>2022-12-28T13:46:55.746Z</time>
      </trkpt>
      <trkpt lat="44.4148" lon="-0.15885">
        <ele>161.6677</ele>
        <time>2022-12-28T13:46:59.730Z</time>
      </trkpt>
      <trkpt lat="44.41473" lon="-0.15875">
        <ele>161.956648</ele>
        <time>2022-12-28T13:47:02.745Z</time>
      </trkpt>
      <trkpt lat="44.41465" lon="-0.15864">
        <ele>162.304448</ele>
        <time>2022-12-28T13:47:06.745Z</time>
      </trkpt>
      <trkpt lat="44.41459" lon="-0.15855">
        <ele>162.579311</ele>
        <time>2022-12-28T13:47:09.737Z</time>
      </trkpt>
      <trkpt lat="44.41452" lon="-0.15846">
        <ele>162.865111</ele>
        <time>2022-12-28T13:47:12.734Z</time>
      </trkpt>
      <trkpt lat="44.41446" lon="-0.15836">
        <ele>163.143646</ele>
        <time>2022-12-28T13:47:15.746Z</time>
      </trkpt>
      <trkpt lat="44.41438" lon="-0.15825">
        <ele>163.490771</ele>
        <time>2022-12-28T13:47:19.731Z</time>
      </trkpt>
      <trkpt lat="44.41431" lon="-0.15816">
        <ele>163.768129</ele>
        <time>2022-12-28T13:47:22.720Z</time>
      </trkpt>
      <trkpt lat="44.41424" lon="-0.15807">
        <ele>163.939558</ele>
        <time>2022-12-28T13:47:25.745Z</time>
      </trkpt>
      <trkpt lat="44.41418" lon="-0.15797">
        <ele>164.1129</ele>
        <time>2022-12-28T13:47:28.744Z</time>
      </trkpt>
      <trkpt lat="44.4141" lon="-0.15786">
        <ele>164.320609</ele>
        <time>2022-12-28T13:47:32.745Z</time>
      </trkpt>
      <trkpt lat="44.41402" lon="-0.15774">
        <ele>164.535875</ele>
        <time>2022-12-28T13:47:36.738Z</time>
      </trkpt>
      <trkpt lat="44.41395" lon="-0.15765">
        <ele>164.702731</ele>
        <time>2022-12-28T13:47:39.745Z</time>
      </trkpt>
      <trkpt lat="44.41389" lon="-0.15756">
        <ele>164.870632</ele>
        <time>2022-12-28T13:47:42.730Z</time>
      </trkpt>
      <trkpt lat="44.41382" lon="-0.15747">
        <ele>165.04154</ele>
        <time>2022-12-28T13:47:45.738Z</time>
      </trkpt>
      <trkpt lat="44.41375" lon="-0.15738">
        <ele>165.220505</ele>
        <time>2022-12-28T13:47:49.730Z</time>
      </trkpt>
      <trkpt lat="44.41368" lon="-0.15727">
        <ele>165.422995</ele>
        <time>2022-12-28T13:47:53.797Z</time>
      </trkpt>
      <trkpt lat="44.41359" lon="-0.15715">
        <ele>165.639248</ele>
        <time>2022-12-28T13:47:57.746Z</time>
      </trkpt>
      <trkpt lat="44.41352" lon="-0.15706">
        <ele>165.808346</ele>
        <time>2022-12-28T13:48:00.721Z</time>
      </trkpt>
      <trkpt lat="44.41346" lon="-0.15696">
        <ele>165.981449</ele>
        <time>2022-12-28T13:48:03.745Z</time>
      </trkpt>
      <trkpt lat="44.4134" lon="-0.15687">
        <ele>166.150648</ele>
        <time>2022-12-28T13:48:06.741Z</time>
      </trkpt>
      <trkpt lat="44.41333" lon="-0.15678">
        <ele>166.330631</ele>
        <time>2022-12-28T13:48:09.745Z</time>
      </trkpt>
      <trkpt lat="44.41326" lon="-0.15668">
        <ele>166.50454</ele>
        <time>2022-12-28T13:48:12.747Z</time>
      </trkpt>
      <trkpt lat="44.41319" lon="-0.15657">
        <ele>166.694337</ele>
        <time>2022-12-28T13:48:15.742Z</time>
      </trkpt>
      <trkpt lat="44.41313" lon="-0.15648">
        <ele>166.863808</ele>
        <time>2022-12-28T13:48:18.747Z</time>
      </trkpt>
      <trkpt lat="44.41304" lon="-0.15636">
        <ele>167.061228</ele>
        <time>2022-12-28T13:48:22.744Z</time>
      </trkpt>
      <trkpt lat="44.41296" lon="-0.15626">
        <ele>167.026088</ele>
        <time>2022-12-28T13:48:25.746Z</time>
      </trkpt>
      <trkpt lat="44.41289" lon="-0.15614">
        <ele>166.989411</ele>
        <time>2022-12-28T13:48:28.745Z</time>
      </trkpt>
      <trkpt lat="44.4128" lon="-0.15604">
        <ele>166.953323</ele>
        <time>2022-12-28T13:48:31.747Z</time>
      </trkpt>
      <trkpt lat="44.41273" lon="-0.15593">
        <ele>166.918156</ele>
        <time>2022-12-28T13:48:34.742Z</time>
      </trkpt>
      <trkpt lat="44.41265" lon="-0.15582">
        <ele>166.881705</ele>
        <time>2022-12-28T13:48:37.746Z</time>
      </trkpt>
      <trkpt lat="44.41256" lon="-0.1557">
        <ele>166.842762</ele>
        <time>2022-12-28T13:48:40.737Z</time>
      </trkpt>
      <trkpt lat="44.41247" lon="-0.15558">
        <ele>166.802639</ele>
        <time>2022-12-28T13:48:43.746Z</time>
      </trkpt>
      <trkpt lat="44.41238" lon="-0.15547">
        <ele>166.762058</ele>
        <time>2022-12-28T13:48:46.747Z</time>
      </trkpt>
      <trkpt lat="44.41228" lon="-0.15536">
        <ele>166.721699</ele>
        <time>2022-12-28T13:48:49.749Z</time>
      </trkpt>
      <trkpt lat="44.41218" lon="-0.15526">
        <ele>166.68185</ele>
        <time>2022-12-28T13:48:52.735Z</time>
      </trkpt>
      <trkpt lat="44.41209" lon="-0.15515">
        <ele>166.643341</ele>
        <time>2022-12-28T13:48:55.748Z</time>
      </trkpt>
      <trkpt lat="44.412" lon="-0.15505">
        <ele>166.605517</ele>
        <time>2022-12-28T13:48:58.748Z</time>
      </trkpt>
      <trkpt lat="44.41191" lon="-0.15495">
        <ele>166.567805</ele>
        <time>2022-12-28T13:49:01.744Z</time>
      </trkpt>
      <trkpt lat="44.41181" lon="-0.15485">
        <ele>166.528129</ele>
        <time>2022-12-28T13:49:04.744Z</time>
      </trkpt>
      <trkpt lat="44.4117" lon="-0.15474">
        <ele>166.485961</ele>
        <time>2022-12-28T13:49:07.748Z</time>
      </trkpt>
      <trkpt lat="44.41163" lon="-0.15466">
        <ele>166.707813</ele>
        <time>2022-12-28T13:49:09.744Z</time>
      </trkpt>
      <trkpt lat="44.41155" lon="-0.15459">
        <ele>166.96413</ele>
        <time>2022-12-28T13:49:11.719Z</time>
      </trkpt>
      <trkpt lat="44.41145" lon="-0.15447">
        <ele>167.326223</ele>
        <time>2022-12-28T13:49:14.746Z</time>
      </trkpt>
      <trkpt lat="44.41137" lon="-0.15439">
        <ele>167.572966</ele>
        <time>2022-12-28T13:49:16.746Z</time>
      </trkpt>
      <trkpt lat="44.41127" lon="-0.15429">
        <ele>167.906191</ele>
        <time>2022-12-28T13:49:19.746Z</time>
      </trkpt>
      <trkpt lat="44.41118" lon="-0.15419">
        <ele>168.233925</ele>
        <time>2022-12-28T13:49:22.733Z</time>
      </trkpt>
      <trkpt lat="44.41108" lon="-0.15408">
        <ele>168.576881</ele>
        <time>2022-12-28T13:49:25.747Z</time>
      </trkpt>
      <trkpt lat="44.41098" lon="-0.15397">
        <ele>168.91954</ele>
        <time>2022-12-28T13:49:28.748Z</time>
      </trkpt>
      <trkpt lat="44.41088" lon="-0.15386">
        <ele>169.254601</ele>
        <time>2022-12-28T13:49:31.746Z</time>
      </trkpt>
      <trkpt lat="44.41079" lon="-0.15376">
        <ele>169.568416</ele>
        <time>2022-12-28T13:49:34.745Z</time>
      </trkpt>
      <trkpt lat="44.41071" lon="-0.15368">
        <ele>169.853852</ele>
        <time>2022-12-28T13:49:37.745Z</time>
      </trkpt>
      <trkpt lat="44.41062" lon="-0.15358">
        <ele>170.149501</ele>
        <time>2022-12-28T13:49:40.744Z</time>
      </trkpt>
      <trkpt lat="44.41053" lon="-0.15348">
        <ele>170.467358</ele>
        <time>2022-12-28T13:49:43.745Z</time>
      </trkpt>
      <trkpt lat="44.41044" lon="-0.15339">
        <ele>170.783857</ele>
        <time>2022-12-28T13:49:46.746Z</time>
      </trkpt>
      <trkpt lat="44.41035" lon="-0.15329">
        <ele>171.081899</ele>
        <time>2022-12-28T13:49:49.745Z</time>
      </trkpt>
      <trkpt lat="44.41027" lon="-0.15322">
        <ele>171.337133</ele>
        <time>2022-12-28T13:49:52.746Z</time>
      </trkpt>
      <trkpt lat="44.41019" lon="-0.15313">
        <ele>171.237483</ele>
        <time>2022-12-28T13:49:55.747Z</time>
      </trkpt>
      <trkpt lat="44.41011" lon="-0.15304">
        <ele>171.073457</ele>
        <time>2022-12-28T13:49:58.745Z</time>
      </trkpt>
      <trkpt lat="44.41003" lon="-0.15295">
        <ele>170.912199</ele>
        <time>2022-12-28T13:50:01.745Z</time>
      </trkpt>
      <trkpt lat="44.40994" lon="-0.15285">
        <ele>170.735854</ele>
        <time>2022-12-28T13:50:04.743Z</time>
      </trkpt>
      <trkpt lat="44.40985" lon="-0.15275">
        <ele>170.555173</ele>
        <time>2022-12-28T13:50:07.743Z</time>
      </trkpt>
      <trkpt lat="44.40975" lon="-0.15267">
        <ele>170.37664</ele>
        <time>2022-12-28T13:50:10.747Z</time>
      </trkpt>
      <trkpt lat="44.40966" lon="-0.15257">
        <ele>170.197868</ele>
        <time>2022-12-28T13:50:13.744Z</time>
      </trkpt>
      <trkpt lat="44.40957" lon="-0.15247">
        <ele>170.020002</ele>
        <time>2022-12-28T13:50:16.760Z</time>
      </trkpt>
      <trkpt lat="44.40948" lon="-0.15237">
        <ele>169.835323</ele>
        <time>2022-12-28T13:50:19.745Z</time>
      </trkpt>
      <trkpt lat="44.40939" lon="-0.15227">
        <ele>169.660679</ele>
        <time>2022-12-28T13:50:22.746Z</time>
      </trkpt>
      <trkpt lat="44.4093" lon="-0.15218">
        <ele>169.488459</ele>
        <time>2022-12-28T13:50:25.748Z</time>
      </trkpt>
      <trkpt lat="44.40921" lon="-0.1521">
        <ele>169.325678</ele>
        <time>2022-12-28T13:50:28.747Z</time>
      </trkpt>
      <trkpt lat="44.40913" lon="-0.15203">
        <ele>169.176989</ele>
        <time>2022-12-28T13:50:31.747Z</time>
      </trkpt>
      <trkpt lat="44.40904" lon="-0.15197">
        <ele>169.027661</ele>
        <time>2022-12-28T13:50:34.745Z</time>
      </trkpt>
      <trkpt lat="44.40896" lon="-0.15188">
        <ele>168.874648</ele>
        <time>2022-12-28T13:50:37.728Z</time>
      </trkpt>
      <trkpt lat="44.40888" lon="-0.15181">
        <ele>168.724162</ele>
        <time>2022-12-28T13:50:40.744Z</time>
      </trkpt>
      <trkpt lat="44.4088" lon="-0.15173">
        <ele>168.577875</ele>
        <time>2022-12-28T13:50:43.794Z</time>
      </trkpt>
      <trkpt lat="44.40872" lon="-0.15164">
        <ele>168.613539</ele>
        <time>2022-12-28T13:50:46.745Z</time>
      </trkpt>
      <trkpt lat="44.40864" lon="-0.15156">
        <ele>168.649348</ele>
        <time>2022-12-28T13:50:49.767Z</time>
      </trkpt>
      <trkpt lat="44.40855" lon="-0.15147">
        <ele>168.686144</ele>
        <time>2022-12-28T13:50:52.745Z</time>
      </trkpt>
      <trkpt lat="44.40845" lon="-0.15138">
        <ele>168.727767</ele>
        <time>2022-12-28T13:50:55.794Z</time>
      </trkpt>
      <trkpt lat="44.40836" lon="-0.15128">
        <ele>168.766649</ele>
        <time>2022-12-28T13:50:58.745Z</time>
      </trkpt>
      <trkpt lat="44.40829" lon="-0.15121">
        <ele>168.798354</ele>
        <time>2022-12-28T13:51:01.795Z</time>
      </trkpt>
      <trkpt lat="44.4082" lon="-0.15112">
        <ele>168.836869</ele>
        <time>2022-12-28T13:51:04.726Z</time>
      </trkpt>
      <trkpt lat="44.40811" lon="-0.15101">
        <ele>168.877341</ele>
        <time>2022-12-28T13:51:07.797Z</time>
      </trkpt>
      <trkpt lat="44.40802" lon="-0.15092">
        <ele>168.917413</ele>
        <time>2022-12-28T13:51:10.741Z</time>
      </trkpt>
      <trkpt lat="44.40792" lon="-0.15082">
        <ele>168.958059</ele>
        <time>2022-12-28T13:51:13.795Z</time>
      </trkpt>
      <trkpt lat="44.40783" lon="-0.15073">
        <ele>168.996982</ele>
        <time>2022-12-28T13:51:16.731Z</time>
      </trkpt>
      <trkpt lat="44.40773" lon="-0.15063">
        <ele>169.039611</ele>
        <time>2022-12-28T13:51:19.799Z</time>
      </trkpt>
      <trkpt lat="44.40763" lon="-0.15051">
        <ele>169.084449</ele>
        <time>2022-12-28T13:51:22.747Z</time>
      </trkpt>
      <trkpt lat="44.40753" lon="-0.15041">
        <ele>169.128504</ele>
        <time>2022-12-28T13:51:25.792Z</time>
      </trkpt>
      <trkpt lat="44.40742" lon="-0.15029">
        <ele>169.174891</ele>
        <time>2022-12-28T13:51:28.746Z</time>
      </trkpt>
      <trkpt lat="44.40735" lon="-0.15022">
        <ele>169.245565</ele>
        <time>2022-12-28T13:51:30.726Z</time>
      </trkpt>
      <trkpt lat="44.40725" lon="-0.15009">
        <ele>169.615022</ele>
        <time>2022-12-28T13:51:33.751Z</time>
      </trkpt>
      <trkpt lat="44.40718" lon="-0.15001">
        <ele>169.864206</ele>
        <time>2022-12-28T13:51:35.756Z</time>
      </trkpt>
      <trkpt lat="44.40707" lon="-0.1499">
        <ele>170.23468</ele>
        <time>2022-12-28T13:51:38.747Z</time>
      </trkpt>
      <trkpt lat="44.40697" lon="-0.14978">
        <ele>170.604138</ele>
        <time>2022-12-28T13:51:41.744Z</time>
      </trkpt>
      <trkpt lat="44.40686" lon="-0.14966">
        <ele>170.971237</ele>
        <time>2022-12-28T13:51:44.744Z</time>
      </trkpt>
      <trkpt lat="44.40675" lon="-0.14954">
        <ele>171.355626</ele>
        <time>2022-12-28T13:51:47.748Z</time>
      </trkpt>
      <trkpt lat="44.40668" lon="-0.14946">
        <ele>171.609153</ele>
        <time>2022-12-28T13:51:49.727Z</time>
      </trkpt>
      <trkpt lat="44.40657" lon="-0.14935">
        <ele>171.978616</ele>
        <time>2022-12-28T13:51:52.743Z</time>
      </trkpt>
      <trkpt lat="44.4065" lon="-0.14927">
        <ele>172.231524</ele>
        <time>2022-12-28T13:51:54.824Z</time>
      </trkpt>
      <trkpt lat="44.40642" lon="-0.14919">
        <ele>172.488152</ele>
        <time>2022-12-28T13:51:56.748Z</time>
      </trkpt>
      <trkpt lat="44.40633" lon="-0.14909">
        <ele>172.830616</ele>
        <time>2022-12-28T13:51:59.746Z</time>
      </trkpt>
      <trkpt lat="44.40624" lon="-0.149">
        <ele>173.136819</ele>
        <time>2022-12-28T13:52:02.743Z</time>
      </trkpt>
      <trkpt lat="44.40614" lon="-0.1489">
        <ele>173.462093</ele>
        <time>2022-12-28T13:52:05.731Z</time>
      </trkpt>
      <trkpt lat="44.40605" lon="-0.1488">
        <ele>173.776595</ele>
        <time>2022-12-28T13:52:08.747Z</time>
      </trkpt>
      <trkpt lat="44.40596" lon="-0.1487">
        <ele>174.103653</ele>
        <time>2022-12-28T13:52:11.750Z</time>
      </trkpt>
      <trkpt lat="44.40586" lon="-0.14859">
        <ele>174.165421</ele>
        <time>2022-12-28T13:52:14.747Z</time>
      </trkpt>
      <trkpt lat="44.40576" lon="-0.1485">
        <ele>174.191162</ele>
        <time>2022-12-28T13:52:17.723Z</time>
      </trkpt>
      <trkpt lat="44.40566" lon="-0.1484">
        <ele>174.217521</ele>
        <time>2022-12-28T13:52:20.745Z</time>
      </trkpt>
      <trkpt lat="44.40556" lon="-0.1483">
        <ele>174.243648</ele>
        <time>2022-12-28T13:52:23.749Z</time>
      </trkpt>
      <trkpt lat="44.40546" lon="-0.1482">
        <ele>174.270628</ele>
        <time>2022-12-28T13:52:26.747Z</time>
      </trkpt>
      <trkpt lat="44.40535" lon="-0.14809">
        <ele>174.299445</ele>
        <time>2022-12-28T13:52:29.745Z</time>
      </trkpt>
      <trkpt lat="44.40525" lon="-0.14798">
        <ele>174.32648</ele>
        <time>2022-12-28T13:52:32.751Z</time>
      </trkpt>
      <trkpt lat="44.40515" lon="-0.14787">
        <ele>174.353612</ele>
        <time>2022-12-28T13:52:35.739Z</time>
      </trkpt>
      <trkpt lat="44.40505" lon="-0.14775">
        <ele>174.381509</ele>
        <time>2022-12-28T13:52:38.737Z</time>
      </trkpt>
      <trkpt lat="44.40496" lon="-0.14765">
        <ele>174.406565</ele>
        <time>2022-12-28T13:52:41.744Z</time>
      </trkpt>
      <trkpt lat="44.40486" lon="-0.14755">
        <ele>174.432645</ele>
        <time>2022-12-28T13:52:44.744Z</time>
      </trkpt>
      <trkpt lat="44.40477" lon="-0.14743">
        <ele>174.458414</ele>
        <time>2022-12-28T13:52:47.743Z</time>
      </trkpt>
      <trkpt lat="44.40468" lon="-0.14732">
        <ele>174.484138</ele>
        <time>2022-12-28T13:52:50.745Z</time>
      </trkpt>
      <trkpt lat="44.4046" lon="-0.14721">
        <ele>174.509905</ele>
        <time>2022-12-28T13:52:53.799Z</time>
      </trkpt>
      <trkpt lat="44.40451" lon="-0.14708">
        <ele>174.55216</ele>
        <time>2022-12-28T13:52:56.752Z</time>
      </trkpt>
      <trkpt lat="44.40443" lon="-0.14696">
        <ele>174.627562</ele>
        <time>2022-12-28T13:52:59.795Z</time>
      </trkpt>
      <trkpt lat="44.40434" lon="-0.14682">
        <ele>174.707446</ele>
        <time>2022-12-28T13:53:02.747Z</time>
      </trkpt>
      <trkpt lat="44.40427" lon="-0.14667">
        <ele>174.785747</ele>
        <time>2022-12-28T13:53:05.804Z</time>
      </trkpt>
      <trkpt lat="44.40419" lon="-0.14652">
        <ele>174.866202</ele>
        <time>2022-12-28T13:53:08.744Z</time>
      </trkpt>
      <trkpt lat="44.40413" lon="-0.14637">
        <ele>174.945375</ele>
        <time>2022-12-28T13:53:11.748Z</time>
      </trkpt>
      <trkpt lat="44.40406" lon="-0.14621">
        <ele>175.025647</ele>
        <time>2022-12-28T13:53:14.745Z</time>
      </trkpt>
      <trkpt lat="44.404" lon="-0.14605">
        <ele>175.10737</ele>
        <time>2022-12-28T13:53:17.750Z</time>
      </trkpt>
      <trkpt lat="44.40394" lon="-0.14588">
        <ele>175.188564</ele>
        <time>2022-12-28T13:53:20.746Z</time>
      </trkpt>
      <trkpt lat="44.40389" lon="-0.14572">
        <ele>175.267</ele>
        <time>2022-12-28T13:53:23.747Z</time>
      </trkpt>
      <trkpt lat="44.40384" lon="-0.14556">
        <ele>175.343597</ele>
        <time>2022-12-28T13:53:26.745Z</time>
      </trkpt>
      <trkpt lat="44.4038" lon="-0.14539">
        <ele>175.420974</ele>
        <time>2022-12-28T13:53:29.741Z</time>
      </trkpt>
      <trkpt lat="44.40375" lon="-0.14522">
        <ele>175.500658</ele>
        <time>2022-12-28T13:53:32.744Z</time>
      </trkpt>
      <trkpt lat="44.4037" lon="-0.14505">
        <ele>175.58202</ele>
        <time>2022-12-28T13:53:35.747Z</time>
      </trkpt>
      <trkpt lat="44.40367" lon="-0.14493">
        <ele>175.648711</ele>
        <time>2022-12-28T13:53:37.745Z</time>
      </trkpt>
      <trkpt lat="44.40363" lon="-0.14481">
        <ele>175.800919</ele>
        <time>2022-12-28T13:53:39.745Z</time>
      </trkpt>
      <trkpt lat="44.40358" lon="-0.14464">
        <ele>176.001497</ele>
        <time>2022-12-28T13:53:42.735Z</time>
      </trkpt>
      <trkpt lat="44.40355" lon="-0.14452">
        <ele>176.147238</ele>
        <time>2022-12-28T13:53:44.741Z</time>
      </trkpt>
      <trkpt lat="44.40349" lon="-0.14434">
        <ele>176.360389</ele>
        <time>2022-12-28T13:53:47.744Z</time>
      </trkpt>
      <trkpt lat="44.40345" lon="-0.14422">
        <ele>176.515829</ele>
        <time>2022-12-28T13:53:49.747Z</time>
      </trkpt>
      <trkpt lat="44.40341" lon="-0.14404">
        <ele>176.722339</ele>
        <time>2022-12-28T13:53:52.745Z</time>
      </trkpt>
      <trkpt lat="44.40335" lon="-0.14387">
        <ele>176.936109</ele>
        <time>2022-12-28T13:53:55.749Z</time>
      </trkpt>
      <trkpt lat="44.40331" lon="-0.14371">
        <ele>177.12569</ele>
        <time>2022-12-28T13:53:58.748Z</time>
      </trkpt>
      <trkpt lat="44.40328" lon="-0.14355">
        <ele>177.313707</ele>
        <time>2022-12-28T13:54:01.745Z</time>
      </trkpt>
      <trkpt lat="44.40322" lon="-0.14337">
        <ele>177.527288</ele>
        <time>2022-12-28T13:54:04.744Z</time>
      </trkpt>
      <trkpt lat="44.40319" lon="-0.14326">
        <ele>177.668348</ele>
        <time>2022-12-28T13:54:06.800Z</time>
      </trkpt>
      <trkpt lat="44.40314" lon="-0.14309">
        <ele>177.878407</ele>
        <time>2022-12-28T13:54:09.746Z</time>
      </trkpt>
      <trkpt lat="44.40311" lon="-0.14296">
        <ele>178.02256</ele>
        <time>2022-12-28T13:54:11.728Z</time>
      </trkpt>
      <trkpt lat="44.40308" lon="-0.14284">
        <ele>178.169355</ele>
        <time>2022-12-28T13:54:13.746Z</time>
      </trkpt>
      <trkpt lat="44.40304" lon="-0.14272">
        <ele>178.319913</ele>
        <time>2022-12-28T13:54:15.746Z</time>
      </trkpt>
      <trkpt lat="44.40301" lon="-0.14259">
        <ele>178.463019</ele>
        <time>2022-12-28T13:54:17.745Z</time>
      </trkpt>
      <trkpt lat="44.40297" lon="-0.14248">
        <ele>178.537016</ele>
        <time>2022-12-28T13:54:19.744Z</time>
      </trkpt>
      <trkpt lat="44.40294" lon="-0.14235">
        <ele>178.615557</ele>
        <time>2022-12-28T13:54:21.746Z</time>
      </trkpt>
      <trkpt lat="44.4029" lon="-0.14222">
        <ele>178.693077</ele>
        <time>2022-12-28T13:54:23.747Z</time>
      </trkpt>
      <trkpt lat="44.40287" lon="-0.1421">
        <ele>178.767304</ele>
        <time>2022-12-28T13:54:25.754Z</time>
      </trkpt>
      <trkpt lat="44.40283" lon="-0.14199">
        <ele>178.840995</ele>
        <time>2022-12-28T13:54:27.744Z</time>
      </trkpt>
      <trkpt lat="44.4028" lon="-0.14186">
        <ele>178.916535</ele>
        <time>2022-12-28T13:54:29.742Z</time>
      </trkpt>
      <trkpt lat="44.40277" lon="-0.14174">
        <ele>178.994292</ele>
        <time>2022-12-28T13:54:31.746Z</time>
      </trkpt>
      <trkpt lat="44.40274" lon="-0.14161">
        <ele>179.073667</ele>
        <time>2022-12-28T13:54:33.724Z</time>
      </trkpt>
      <trkpt lat="44.4027" lon="-0.14148">
        <ele>179.156932</ele>
        <time>2022-12-28T13:54:35.745Z</time>
      </trkpt>
      <trkpt lat="44.40266" lon="-0.14134">
        <ele>179.239974</ele>
        <time>2022-12-28T13:54:37.747Z</time>
      </trkpt>
      <trkpt lat="44.40261" lon="-0.1412">
        <ele>179.331332</ele>
        <time>2022-12-28T13:54:39.746Z</time>
      </trkpt>
      <trkpt lat="44.40258" lon="-0.14102">
        <ele>179.439032</ele>
        <time>2022-12-28T13:54:42.768Z</time>
      </trkpt>
      <trkpt lat="44.40253" lon="-0.14089">
        <ele>179.520779</ele>
        <time>2022-12-28T13:54:44.749Z</time>
      </trkpt>
      <trkpt lat="44.40249" lon="-0.14077">
        <ele>179.598924</ele>
        <time>2022-12-28T13:54:46.746Z</time>
      </trkpt>
      <trkpt lat="44.40246" lon="-0.14064">
        <ele>179.675845</ele>
        <time>2022-12-28T13:54:48.808Z</time>
      </trkpt>
      <trkpt lat="44.40243" lon="-0.1405">
        <ele>179.763939</ele>
        <time>2022-12-28T13:54:50.750Z</time>
      </trkpt>
      <trkpt lat="44.4024" lon="-0.14037">
        <ele>179.844935</ele>
        <time>2022-12-28T13:54:52.746Z</time>
      </trkpt>
      <trkpt lat="44.40234" lon="-0.14018">
        <ele>179.931603</ele>
        <time>2022-12-28T13:54:55.748Z</time>
      </trkpt>
      <trkpt lat="44.4023" lon="-0.14006">
        <ele>179.958327</ele>
        <time>2022-12-28T13:54:57.731Z</time>
      </trkpt>
      <trkpt lat="44.40225" lon="-0.13988">
        <ele>179.995191</ele>
        <time>2022-12-28T13:55:00.793Z</time>
      </trkpt>
      <trkpt lat="44.40222" lon="-0.13976">
        <ele>180.020741</ele>
        <time>2022-12-28T13:55:02.744Z</time>
      </trkpt>
      <trkpt lat="44.40218" lon="-0.13964">
        <ele>180.046217</ele>
        <time>2022-12-28T13:55:04.744Z</time>
      </trkpt>
      <trkpt lat="44.40213" lon="-0.13946">
        <ele>180.082846</ele>
        <time>2022-12-28T13:55:07.747Z</time>
      </trkpt>
      <trkpt lat="44.40208" lon="-0.13929">
        <ele>180.119761</ele>
        <time>2022-12-28T13:55:10.818Z</time>
      </trkpt>
      <trkpt lat="44.40204" lon="-0.13916">
        <ele>180.146347</ele>
        <time>2022-12-28T13:55:12.739Z</time>
      </trkpt>
      <trkpt lat="44.40201" lon="-0.13904">
        <ele>180.172539</ele>
        <time>2022-12-28T13:55:14.748Z</time>
      </trkpt>
      <trkpt lat="44.40198" lon="-0.13891">
        <ele>180.19827</ele>
        <time>2022-12-28T13:55:16.818Z</time>
      </trkpt>
      <trkpt lat="44.40195" lon="-0.13879">
        <ele>180.224004</ele>
        <time>2022-12-28T13:55:18.748Z</time>
      </trkpt>
      <trkpt lat="44.40191" lon="-0.13866">
        <ele>180.25138</ele>
        <time>2022-12-28T13:55:20.743Z</time>
      </trkpt>
      <trkpt lat="44.40188" lon="-0.13853">
        <ele>180.277671</ele>
        <time>2022-12-28T13:55:22.802Z</time>
      </trkpt>
      <trkpt lat="44.40184" lon="-0.1384">
        <ele>180.305654</ele>
        <time>2022-12-28T13:55:24.745Z</time>
      </trkpt>
      <trkpt lat="44.4018" lon="-0.13826">
        <ele>180.334798</ele>
        <time>2022-12-28T13:55:26.744Z</time>
      </trkpt>
      <trkpt lat="44.40176" lon="-0.13812">
        <ele>180.364224</ele>
        <time>2022-12-28T13:55:28.745Z</time>
      </trkpt>
      <trkpt lat="44.40172" lon="-0.13799">
        <ele>180.391434</ele>
        <time>2022-12-28T13:55:30.745Z</time>
      </trkpt>
      <trkpt lat="44.40168" lon="-0.13785">
        <ele>180.46498</ele>
        <time>2022-12-28T13:55:32.747Z</time>
      </trkpt>
      <trkpt lat="44.40165" lon="-0.13772">
        <ele>180.581856</ele>
        <time>2022-12-28T13:55:34.747Z</time>
      </trkpt>
      <trkpt lat="44.40161" lon="-0.13758">
        <ele>180.70837</ele>
        <time>2022-12-28T13:55:36.745Z</time>
      </trkpt>
      <trkpt lat="44.40156" lon="-0.13745">
        <ele>180.833018</ele>
        <time>2022-12-28T13:55:38.745Z</time>
      </trkpt>
      <trkpt lat="44.40153" lon="-0.13731">
        <ele>180.952681</ele>
        <time>2022-12-28T13:55:40.740Z</time>
      </trkpt>
      <trkpt lat="44.40149" lon="-0.13718">
        <ele>181.076995</ele>
        <time>2022-12-28T13:55:42.745Z</time>
      </trkpt>
      <trkpt lat="44.40145" lon="-0.13704">
        <ele>181.206555</ele>
        <time>2022-12-28T13:55:44.745Z</time>
      </trkpt>
      <trkpt lat="44.4014" lon="-0.13689">
        <ele>181.336771</ele>
        <time>2022-12-28T13:55:46.745Z</time>
      </trkpt>
      <trkpt lat="44.40136" lon="-0.13677">
        <ele>181.451232</ele>
        <time>2022-12-28T13:55:48.746Z</time>
      </trkpt>
      <trkpt lat="44.40132" lon="-0.13662">
        <ele>181.58321</ele>
        <time>2022-12-28T13:55:50.746Z</time>
      </trkpt>
      <trkpt lat="44.40127" lon="-0.13648">
        <ele>181.715879</ele>
        <time>2022-12-28T13:55:52.746Z</time>
      </trkpt>
      <trkpt lat="44.40124" lon="-0.13633">
        <ele>181.845632</ele>
        <time>2022-12-28T13:55:54.745Z</time>
      </trkpt>
      <trkpt lat="44.40121" lon="-0.13619">
        <ele>181.975572</ele>
        <time>2022-12-28T13:55:56.747Z</time>
      </trkpt>
      <trkpt lat="44.40116" lon="-0.13604">
        <ele>182.11033</ele>
        <time>2022-12-28T13:55:58.746Z</time>
      </trkpt>
      <trkpt lat="44.40113" lon="-0.1359">
        <ele>182.23162</ele>
        <time>2022-12-28T13:56:00.724Z</time>
      </trkpt>
      <trkpt lat="44.40108" lon="-0.13577">
        <ele>182.359525</ele>
        <time>2022-12-28T13:56:02.728Z</time>
      </trkpt>
      <trkpt lat="44.40105" lon="-0.13563">
        <ele>182.478769</ele>
        <time>2022-12-28T13:56:04.723Z</time>
      </trkpt>
      <trkpt lat="44.40101" lon="-0.13549">
        <ele>182.447075</ele>
        <time>2022-12-28T13:56:06.732Z</time>
      </trkpt>
      <trkpt lat="44.40098" lon="-0.13536">
        <ele>182.325289</ele>
        <time>2022-12-28T13:56:08.749Z</time>
      </trkpt>
      <trkpt lat="44.40093" lon="-0.13518">
        <ele>182.167455</ele>
        <time>2022-12-28T13:56:11.747Z</time>
      </trkpt>
      <trkpt lat="44.40088" lon="-0.13501">
        <ele>182.012064</ele>
        <time>2022-12-28T13:56:14.746Z</time>
      </trkpt>
      <trkpt lat="44.40085" lon="-0.13489">
        <ele>181.904442</ele>
        <time>2022-12-28T13:56:16.720Z</time>
      </trkpt>
      <trkpt lat="44.40082" lon="-0.13477">
        <ele>181.798078</ele>
        <time>2022-12-28T13:56:18.721Z</time>
      </trkpt>
      <trkpt lat="44.40078" lon="-0.13465">
        <ele>181.687556</ele>
        <time>2022-12-28T13:56:20.744Z</time>
      </trkpt>
      <trkpt lat="44.40073" lon="-0.13451">
        <ele>181.557394</ele>
        <time>2022-12-28T13:56:22.747Z</time>
      </trkpt>
      <trkpt lat="44.4007" lon="-0.13437">
        <ele>181.432003</ele>
        <time>2022-12-28T13:56:24.731Z</time>
      </trkpt>
      <trkpt lat="44.40067" lon="-0.13423">
        <ele>181.314525</ele>
        <time>2022-12-28T13:56:26.726Z</time>
      </trkpt>
      <trkpt lat="44.40063" lon="-0.1341">
        <ele>181.195879</ele>
        <time>2022-12-28T13:56:28.731Z</time>
      </trkpt>
      <trkpt lat="44.40059" lon="-0.13395">
        <ele>181.060642</ele>
        <time>2022-12-28T13:56:30.740Z</time>
      </trkpt>
      <trkpt lat="44.40055" lon="-0.13382">
        <ele>180.937653</ele>
        <time>2022-12-28T13:56:32.746Z</time>
      </trkpt>
      <trkpt lat="44.40051" lon="-0.13368">
        <ele>180.81215</ele>
        <time>2022-12-28T13:56:34.746Z</time>
      </trkpt>
      <trkpt lat="44.40047" lon="-0.13354">
        <ele>180.684031</ele>
        <time>2022-12-28T13:56:36.744Z</time>
      </trkpt>
      <trkpt lat="44.40044" lon="-0.13341">
        <ele>180.570856</ele>
        <time>2022-12-28T13:56:38.746Z</time>
      </trkpt>
      <trkpt lat="44.4004" lon="-0.13328">
        <ele>180.44823</ele>
        <time>2022-12-28T13:56:40.744Z</time>
      </trkpt>
      <trkpt lat="44.40036" lon="-0.13314">
        <ele>180.372379</ele>
        <time>2022-12-28T13:56:42.734Z</time>
      </trkpt>
      <trkpt lat="44.40032" lon="-0.133">
        <ele>180.312843</ele>
        <time>2022-12-28T13:56:44.745Z</time>
      </trkpt>
      <trkpt lat="44.40028" lon="-0.13287">
        <ele>180.255999</ele>
        <time>2022-12-28T13:56:46.744Z</time>
      </trkpt>
      <trkpt lat="44.40025" lon="-0.13274">
        <ele>180.204361</ele>
        <time>2022-12-28T13:56:48.746Z</time>
      </trkpt>
      <trkpt lat="44.4002" lon="-0.13261">
        <ele>180.147746</ele>
        <time>2022-12-28T13:56:50.743Z</time>
      </trkpt>
      <trkpt lat="44.40016" lon="-0.13248">
        <ele>180.091791</ele>
        <time>2022-12-28T13:56:52.717Z</time>
      </trkpt>
      <trkpt lat="44.40013" lon="-0.13235">
        <ele>180.039238</ele>
        <time>2022-12-28T13:56:54.728Z</time>
      </trkpt>
      <trkpt lat="44.4001" lon="-0.13223">
        <ele>179.98797</ele>
        <time>2022-12-28T13:56:56.727Z</time>
      </trkpt>
      <trkpt lat="44.40006" lon="-0.13211">
        <ele>179.935002</ele>
        <time>2022-12-28T13:56:58.721Z</time>
      </trkpt>
      <trkpt lat="44.40002" lon="-0.13197">
        <ele>179.87754</ele>
        <time>2022-12-28T13:57:00.746Z</time>
      </trkpt>
      <trkpt lat="44.39999" lon="-0.13183">
        <ele>179.821932</ele>
        <time>2022-12-28T13:57:02.750Z</time>
      </trkpt>
      <trkpt lat="44.39995" lon="-0.13171">
        <ele>179.768446</ele>
        <time>2022-12-28T13:57:04.747Z</time>
      </trkpt>
      <trkpt lat="44.39992" lon="-0.13158">
        <ele>179.716441</ele>
        <time>2022-12-28T13:57:06.744Z</time>
      </trkpt>
      <trkpt lat="44.39988" lon="-0.13146">
        <ele>179.664638</ele>
        <time>2022-12-28T13:57:08.744Z</time>
      </trkpt>
      <trkpt lat="44.39985" lon="-0.13132">
        <ele>179.606564</ele>
        <time>2022-12-28T13:57:10.742Z</time>
      </trkpt>
      <trkpt lat="44.39981" lon="-0.13118">
        <ele>179.547722</ele>
        <time>2022-12-28T13:57:12.745Z</time>
      </trkpt>
      <trkpt lat="44.39977" lon="-0.13103">
        <ele>179.487259</ele>
        <time>2022-12-28T13:57:14.805Z</time>
      </trkpt>
      <trkpt lat="44.39973" lon="-0.13089">
        <ele>179.42466</ele>
        <time>2022-12-28T13:57:16.730Z</time>
      </trkpt>
      <trkpt lat="44.3997" lon="-0.13074">
        <ele>179.343507</ele>
        <time>2022-12-28T13:57:18.754Z</time>
      </trkpt>
      <trkpt lat="44.39966" lon="-0.13062">
        <ele>179.269482</ele>
        <time>2022-12-28T13:57:20.802Z</time>
      </trkpt>
      <trkpt lat="44.39962" lon="-0.13049">
        <ele>179.191707</ele>
        <time>2022-12-28T13:57:22.745Z</time>
      </trkpt>
      <trkpt lat="44.39959" lon="-0.13037">
        <ele>179.118079</ele>
        <time>2022-12-28T13:57:24.746Z</time>
      </trkpt>
      <trkpt lat="44.39955" lon="-0.13024">
        <ele>179.045554</ele>
        <time>2022-12-28T13:57:26.799Z</time>
      </trkpt>
      <trkpt lat="44.39952" lon="-0.13012">
        <ele>178.975847</ele>
        <time>2022-12-28T13:57:28.745Z</time>
      </trkpt>
      <trkpt lat="44.39948" lon="-0.13">
        <ele>178.900186</ele>
        <time>2022-12-28T13:57:30.745Z</time>
      </trkpt>
      <trkpt lat="44.39944" lon="-0.12986">
        <ele>178.820082</ele>
        <time>2022-12-28T13:57:32.753Z</time>
      </trkpt>
      <trkpt lat="44.39941" lon="-0.12975">
        <ele>178.750137</ele>
        <time>2022-12-28T13:57:34.744Z</time>
      </trkpt>
      <trkpt lat="44.39937" lon="-0.1296">
        <ele>178.665595</ele>
        <time>2022-12-28T13:57:36.744Z</time>
      </trkpt>
      <trkpt lat="44.39933" lon="-0.12947">
        <ele>178.585407</ele>
        <time>2022-12-28T13:57:38.801Z</time>
      </trkpt>
      <trkpt lat="44.39928" lon="-0.12932">
        <ele>178.493881</ele>
        <time>2022-12-28T13:57:40.747Z</time>
      </trkpt>
      <trkpt lat="44.39924" lon="-0.12916">
        <ele>178.404258</ele>
        <time>2022-12-28T13:57:42.746Z</time>
      </trkpt>
      <trkpt lat="44.3992" lon="-0.12902">
        <ele>178.323175</ele>
        <time>2022-12-28T13:57:44.760Z</time>
      </trkpt>
      <trkpt lat="44.39916" lon="-0.12889">
        <ele>178.245107</ele>
        <time>2022-12-28T13:57:46.729Z</time>
      </trkpt>
      <trkpt lat="44.39913" lon="-0.12876">
        <ele>178.168177</ele>
        <time>2022-12-28T13:57:48.723Z</time>
      </trkpt>
      <trkpt lat="44.3991" lon="-0.12862">
        <ele>178.088365</ele>
        <time>2022-12-28T13:57:50.730Z</time>
      </trkpt>
      <trkpt lat="44.39906" lon="-0.1285">
        <ele>178.019477</ele>
        <time>2022-12-28T13:57:52.744Z</time>
      </trkpt>
      <trkpt lat="44.39902" lon="-0.12837">
        <ele>177.95902</ele>
        <time>2022-12-28T13:57:54.767Z</time>
      </trkpt>
      <trkpt lat="44.39899" lon="-0.12824">
        <ele>177.89553</ele>
        <time>2022-12-28T13:57:56.739Z</time>
      </trkpt>
      <trkpt lat="44.39895" lon="-0.1281">
        <ele>177.828858</ele>
        <time>2022-12-28T13:57:58.743Z</time>
      </trkpt>
      <trkpt lat="44.3989" lon="-0.12796">
        <ele>177.763232</ele>
        <time>2022-12-28T13:58:00.740Z</time>
      </trkpt>
      <trkpt lat="44.39887" lon="-0.1278">
        <ele>177.691903</ele>
        <time>2022-12-28T13:58:02.734Z</time>
      </trkpt>
      <trkpt lat="44.39882" lon="-0.12766">
        <ele>177.620385</ele>
        <time>2022-12-28T13:58:04.748Z</time>
      </trkpt>
      <trkpt lat="44.39878" lon="-0.1275">
        <ele>177.547183</ele>
        <time>2022-12-28T13:58:06.747Z</time>
      </trkpt>
      <trkpt lat="44.39873" lon="-0.12733">
        <ele>177.467997</ele>
        <time>2022-12-28T13:58:08.744Z</time>
      </trkpt>
      <trkpt lat="44.39868" lon="-0.12717">
        <ele>177.391156</ele>
        <time>2022-12-28T13:58:10.746Z</time>
      </trkpt>
      <trkpt lat="44.39864" lon="-0.12702">
        <ele>177.317921</ele>
        <time>2022-12-28T13:58:12.745Z</time>
      </trkpt>
      <trkpt lat="44.39859" lon="-0.12685">
        <ele>177.241625</ele>
        <time>2022-12-28T13:58:14.740Z</time>
      </trkpt>
      <trkpt lat="44.39855" lon="-0.12669">
        <ele>177.165079</ele>
        <time>2022-12-28T13:58:16.727Z</time>
      </trkpt>
      <trkpt lat="44.3985" lon="-0.12653">
        <ele>177.089929</ele>
        <time>2022-12-28T13:58:18.734Z</time>
      </trkpt>
      <trkpt lat="44.39845" lon="-0.12638">
        <ele>177.016058</ele>
        <time>2022-12-28T13:58:20.745Z</time>
      </trkpt>
      <trkpt lat="44.39841" lon="-0.12622">
        <ele>176.942822</ele>
        <time>2022-12-28T13:58:22.746Z</time>
      </trkpt>
      <trkpt lat="44.39837" lon="-0.12606">
        <ele>176.702912</ele>
        <time>2022-12-28T13:58:24.724Z</time>
      </trkpt>
      <trkpt lat="44.39832" lon="-0.1259">
        <ele>176.465396</ele>
        <time>2022-12-28T13:58:26.730Z</time>
      </trkpt>
      <trkpt lat="44.39828" lon="-0.12574">
        <ele>176.220745</ele>
        <time>2022-12-28T13:58:28.724Z</time>
      </trkpt>
      <trkpt lat="44.39823" lon="-0.12558">
        <ele>175.972136</ele>
        <time>2022-12-28T13:58:30.743Z</time>
      </trkpt>
      <trkpt lat="44.39819" lon="-0.12542">
        <ele>175.729586</ele>
        <time>2022-12-28T13:58:32.743Z</time>
      </trkpt>
      <trkpt lat="44.39814" lon="-0.12525">
        <ele>175.474982</ele>
        <time>2022-12-28T13:58:34.731Z</time>
      </trkpt>
      <trkpt lat="44.3981" lon="-0.12509">
        <ele>175.232785</ele>
        <time>2022-12-28T13:58:36.727Z</time>
      </trkpt>
      <trkpt lat="44.39805" lon="-0.12493">
        <ele>174.984041</ele>
        <time>2022-12-28T13:58:38.724Z</time>
      </trkpt>
      <trkpt lat="44.398" lon="-0.12475">
        <ele>174.717323</ele>
        <time>2022-12-28T13:58:40.745Z</time>
      </trkpt>
      <trkpt lat="44.39796" lon="-0.12458">
        <ele>174.458111</ele>
        <time>2022-12-28T13:58:42.736Z</time>
      </trkpt>
      <trkpt lat="44.39791" lon="-0.1244">
        <ele>174.188871</ele>
        <time>2022-12-28T13:58:44.746Z</time>
      </trkpt>
      <trkpt lat="44.39786" lon="-0.12422">
        <ele>173.918996</ele>
        <time>2022-12-28T13:58:46.726Z</time>
      </trkpt>
      <trkpt lat="44.39781" lon="-0.12405">
        <ele>173.656768</ele>
        <time>2022-12-28T13:58:48.748Z</time>
      </trkpt>
      <trkpt lat="44.39776" lon="-0.12389">
        <ele>173.401563</ele>
        <time>2022-12-28T13:58:50.748Z</time>
      </trkpt>
      <trkpt lat="44.39771" lon="-0.12372">
        <ele>173.141607</ele>
        <time>2022-12-28T13:58:52.748Z</time>
      </trkpt>
      <trkpt lat="44.39766" lon="-0.12356">
        <ele>172.880241</ele>
        <time>2022-12-28T13:58:54.741Z</time>
      </trkpt>
      <trkpt lat="44.39762" lon="-0.12339">
        <ele>172.61553</ele>
        <time>2022-12-28T13:58:56.726Z</time>
      </trkpt>
      <trkpt lat="44.39758" lon="-0.12324">
        <ele>172.372608</ele>
        <time>2022-12-28T13:58:58.745Z</time>
      </trkpt>
      <trkpt lat="44.39753" lon="-0.12308">
        <ele>172.11862</ele>
        <time>2022-12-28T13:59:00.746Z</time>
      </trkpt>
      <trkpt lat="44.39749" lon="-0.12292">
        <ele>171.857552</ele>
        <time>2022-12-28T13:59:02.744Z</time>
      </trkpt>
      <trkpt lat="44.39743" lon="-0.12275">
        <ele>171.590202</ele>
        <time>2022-12-28T13:59:04.740Z</time>
      </trkpt>
      <trkpt lat="44.39739" lon="-0.12258">
        <ele>171.32071</ele>
        <time>2022-12-28T13:59:06.749Z</time>
      </trkpt>
      <trkpt lat="44.39734" lon="-0.1224">
        <ele>171.0393</ele>
        <time>2022-12-28T13:59:08.757Z</time>
      </trkpt>
      <trkpt lat="44.39729" lon="-0.12223">
        <ele>170.761265</ele>
        <time>2022-12-28T13:59:10.730Z</time>
      </trkpt>
      <trkpt lat="44.39725" lon="-0.12205">
        <ele>170.479136</ele>
        <time>2022-12-28T13:59:12.744Z</time>
      </trkpt>
      <trkpt lat="44.39719" lon="-0.12187">
        <ele>170.190514</ele>
        <time>2022-12-28T13:59:14.792Z</time>
      </trkpt>
      <trkpt lat="44.39714" lon="-0.12169">
        <ele>169.897558</ele>
        <time>2022-12-28T13:59:16.746Z</time>
      </trkpt>
      <trkpt lat="44.39709" lon="-0.12151">
        <ele>169.619639</ele>
        <time>2022-12-28T13:59:18.744Z</time>
      </trkpt>
      <trkpt lat="44.39704" lon="-0.12134">
        <ele>169.364182</ele>
        <time>2022-12-28T13:59:20.801Z</time>
      </trkpt>
      <trkpt lat="44.39699" lon="-0.12117">
        <ele>169.113648</ele>
        <time>2022-12-28T13:59:22.745Z</time>
      </trkpt>
      <trkpt lat="44.39694" lon="-0.12099">
        <ele>168.862569</ele>
        <time>2022-12-28T13:59:24.746Z</time>
      </trkpt>
      <trkpt lat="44.3969" lon="-0.12083">
        <ele>168.618657</ele>
        <time>2022-12-28T13:59:26.796Z</time>
      </trkpt>
      <trkpt lat="44.39684" lon="-0.12066">
        <ele>168.36963</ele>
        <time>2022-12-28T13:59:28.748Z</time>
      </trkpt>
      <trkpt lat="44.3968" lon="-0.12049">
        <ele>168.121942</ele>
        <time>2022-12-28T13:59:30.732Z</time>
      </trkpt>
      <trkpt lat="44.39676" lon="-0.12032">
        <ele>167.880654</ele>
        <time>2022-12-28T13:59:32.808Z</time>
      </trkpt>
      <trkpt lat="44.39672" lon="-0.12017">
        <ele>167.658627</ele>
        <time>2022-12-28T13:59:34.729Z</time>
      </trkpt>
      <trkpt lat="44.39667" lon="-0.12001">
        <ele>167.421206</ele>
        <time>2022-12-28T13:59:36.752Z</time>
      </trkpt>
      <trkpt lat="44.39664" lon="-0.11985">
        <ele>167.20046</ele>
        <time>2022-12-28T13:59:38.824Z</time>
      </trkpt>
      <trkpt lat="44.39659" lon="-0.11971">
        <ele>166.988763</ele>
        <time>2022-12-28T13:59:40.746Z</time>
      </trkpt>
      <trkpt lat="44.39655" lon="-0.11956">
        <ele>166.766668</ele>
        <time>2022-12-28T13:59:42.725Z</time>
      </trkpt>
      <trkpt lat="44.39651" lon="-0.11942">
        <ele>166.559403</ele>
        <time>2022-12-28T13:59:44.797Z</time>
      </trkpt>
      <trkpt lat="44.39646" lon="-0.11927">
        <ele>166.333392</ele>
        <time>2022-12-28T13:59:46.747Z</time>
      </trkpt>
      <trkpt lat="44.39642" lon="-0.11911">
        <ele>166.15744</ele>
        <time>2022-12-28T13:59:48.730Z</time>
      </trkpt>
      <trkpt lat="44.39638" lon="-0.11895">
        <ele>166.044636</ele>
        <time>2022-12-28T13:59:50.732Z</time>
      </trkpt>
      <trkpt lat="44.39633" lon="-0.11879">
        <ele>165.932127</ele>
        <time>2022-12-28T13:59:52.747Z</time>
      </trkpt>
      <trkpt lat="44.39629" lon="-0.11863">
        <ele>165.814511</ele>
        <time>2022-12-28T13:59:54.748Z</time>
      </trkpt>
      <trkpt lat="44.39624" lon="-0.11847">
        <ele>165.697514</ele>
        <time>2022-12-28T13:59:56.748Z</time>
      </trkpt>
      <trkpt lat="44.3962" lon="-0.1183">
        <ele>165.580619</ele>
        <time>2022-12-28T13:59:58.745Z</time>
      </trkpt>
      <trkpt lat="44.39615" lon="-0.11813">
        <ele>165.458345</ele>
        <time>2022-12-28T14:00:00.731Z</time>
      </trkpt>
      <trkpt lat="44.3961" lon="-0.11797">
        <ele>165.340107</ele>
        <time>2022-12-28T14:00:02.745Z</time>
      </trkpt>
      <trkpt lat="44.39605" lon="-0.11781">
        <ele>165.22399</ele>
        <time>2022-12-28T14:00:04.758Z</time>
      </trkpt>
      <trkpt lat="44.396" lon="-0.11764">
        <ele>165.102211</ele>
        <time>2022-12-28T14:00:06.746Z</time>
      </trkpt>
      <trkpt lat="44.39596" lon="-0.11748">
        <ele>164.985282</ele>
        <time>2022-12-28T14:00:08.746Z</time>
      </trkpt>
      <trkpt lat="44.39592" lon="-0.11732">
        <ele>164.876858</ele>
        <time>2022-12-28T14:00:10.746Z</time>
      </trkpt>
      <trkpt lat="44.39588" lon="-0.11718">
        <ele>164.773754</ele>
        <time>2022-12-28T14:00:12.797Z</time>
      </trkpt>
      <trkpt lat="44.39584" lon="-0.11704">
        <ele>164.670081</ele>
        <time>2022-12-28T14:00:14.747Z</time>
      </trkpt>
      <trkpt lat="44.3958" lon="-0.11689">
        <ele>164.567362</ele>
        <time>2022-12-28T14:00:16.746Z</time>
      </trkpt>
      <trkpt lat="44.39576" lon="-0.11676">
        <ele>164.492206</ele>
        <time>2022-12-28T14:00:18.804Z</time>
      </trkpt>
      <trkpt lat="44.39572" lon="-0.11662">
        <ele>164.429963</ele>
        <time>2022-12-28T14:00:20.744Z</time>
      </trkpt>
      <trkpt lat="44.39568" lon="-0.11647">
        <ele>164.36543</ele>
        <time>2022-12-28T14:00:22.746Z</time>
      </trkpt>
      <trkpt lat="44.39564" lon="-0.11632">
        <ele>164.297964</ele>
        <time>2022-12-28T14:00:24.797Z</time>
      </trkpt>
      <trkpt lat="44.39559" lon="-0.11617">
        <ele>164.23157</ele>
        <time>2022-12-28T14:00:26.747Z</time>
      </trkpt>
      <trkpt lat="44.39555" lon="-0.11601">
        <ele>164.163388</ele>
        <time>2022-12-28T14:00:28.744Z</time>
      </trkpt>
      <trkpt lat="44.39551" lon="-0.11586">
        <ele>164.095541</ele>
        <time>2022-12-28T14:00:30.800Z</time>
      </trkpt>
      <trkpt lat="44.39547" lon="-0.1157">
        <ele>164.025988</ele>
        <time>2022-12-28T14:00:32.747Z</time>
      </trkpt>
      <trkpt lat="44.39543" lon="-0.11556">
        <ele>163.963423</ele>
        <time>2022-12-28T14:00:34.725Z</time>
      </trkpt>
      <trkpt lat="44.39539" lon="-0.1154">
        <ele>163.894072</ele>
        <time>2022-12-28T14:00:36.795Z</time>
      </trkpt>
      <trkpt lat="44.39534" lon="-0.11524">
        <ele>163.82452</ele>
        <time>2022-12-28T14:00:38.745Z</time>
      </trkpt>
      <trkpt lat="44.3953" lon="-0.11509">
        <ele>163.755094</ele>
        <time>2022-12-28T14:00:40.739Z</time>
      </trkpt>
      <trkpt lat="44.39526" lon="-0.11492">
        <ele>163.683806</ele>
        <time>2022-12-28T14:00:42.805Z</time>
      </trkpt>
      <trkpt lat="44.39521" lon="-0.11477">
        <ele>163.616721</ele>
        <time>2022-12-28T14:00:44.739Z</time>
      </trkpt>
      <trkpt lat="44.39517" lon="-0.11462">
        <ele>163.549571</ele>
        <time>2022-12-28T14:00:46.720Z</time>
      </trkpt>
      <trkpt lat="44.39513" lon="-0.11448">
        <ele>163.495436</ele>
        <time>2022-12-28T14:00:48.746Z</time>
      </trkpt>
      <trkpt lat="44.39509" lon="-0.11434">
        <ele>163.524675</ele>
        <time>2022-12-28T14:00:50.748Z</time>
      </trkpt>
      <trkpt lat="44.39505" lon="-0.1142">
        <ele>163.553633</ele>
        <time>2022-12-28T14:00:52.742Z</time>
      </trkpt>
      <trkpt lat="44.39501" lon="-0.11406">
        <ele>163.581006</ele>
        <time>2022-12-28T14:00:54.745Z</time>
      </trkpt>
      <trkpt lat="44.39497" lon="-0.11392">
        <ele>163.610956</ele>
        <time>2022-12-28T14:00:56.746Z</time>
      </trkpt>
      <trkpt lat="44.39493" lon="-0.11377">
        <ele>163.6411</ele>
        <time>2022-12-28T14:00:58.746Z</time>
      </trkpt>
      <trkpt lat="44.39489" lon="-0.11362">
        <ele>163.672748</ele>
        <time>2022-12-28T14:01:00.744Z</time>
      </trkpt>
      <trkpt lat="44.39485" lon="-0.11346">
        <ele>163.704754</ele>
        <time>2022-12-28T14:01:02.745Z</time>
      </trkpt>
      <trkpt lat="44.3948" lon="-0.11331">
        <ele>163.735429</ele>
        <time>2022-12-28T14:01:04.746Z</time>
      </trkpt>
      <trkpt lat="44.39476" lon="-0.11315">
        <ele>163.767078</ele>
        <time>2022-12-28T14:01:06.744Z</time>
      </trkpt>
      <trkpt lat="44.39471" lon="-0.113">
        <ele>163.79935</ele>
        <time>2022-12-28T14:01:08.745Z</time>
      </trkpt>
      <trkpt lat="44.39467" lon="-0.11285">
        <ele>163.830224</ele>
        <time>2022-12-28T14:01:10.747Z</time>
      </trkpt>
      <trkpt lat="44.39463" lon="-0.11269">
        <ele>163.861513</ele>
        <time>2022-12-28T14:01:12.748Z</time>
      </trkpt>
      <trkpt lat="44.39459" lon="-0.11253">
        <ele>163.89443</ele>
        <time>2022-12-28T14:01:14.729Z</time>
      </trkpt>
      <trkpt lat="44.39455" lon="-0.11237">
        <ele>163.92716</ele>
        <time>2022-12-28T14:01:16.748Z</time>
      </trkpt>
      <trkpt lat="44.3945" lon="-0.11222">
        <ele>163.958012</ele>
        <time>2022-12-28T14:01:18.743Z</time>
      </trkpt>
      <trkpt lat="44.39445" lon="-0.11207">
        <ele>164.03831</ele>
        <time>2022-12-28T14:01:20.749Z</time>
      </trkpt>
      <trkpt lat="44.39441" lon="-0.11192">
        <ele>164.15787</ele>
        <time>2022-12-28T14:01:22.746Z</time>
      </trkpt>
      <trkpt lat="44.39438" lon="-0.11178">
        <ele>164.268169</ele>
        <time>2022-12-28T14:01:24.746Z</time>
      </trkpt>
      <trkpt lat="44.39434" lon="-0.11165">
        <ele>164.379979</ele>
        <time>2022-12-28T14:01:26.744Z</time>
      </trkpt>
      <trkpt lat="44.3943" lon="-0.11151">
        <ele>164.487814</ele>
        <time>2022-12-28T14:01:28.744Z</time>
      </trkpt>
      <trkpt lat="44.39427" lon="-0.11137">
        <ele>164.596113</ele>
        <time>2022-12-28T14:01:30.745Z</time>
      </trkpt>
      <trkpt lat="44.39424" lon="-0.11124">
        <ele>164.701461</ele>
        <time>2022-12-28T14:01:32.746Z</time>
      </trkpt>
      <trkpt lat="44.3942" lon="-0.11112">
        <ele>164.799321</ele>
        <time>2022-12-28T14:01:34.744Z</time>
      </trkpt>
      <trkpt lat="44.39416" lon="-0.11098">
        <ele>164.910741</ele>
        <time>2022-12-28T14:01:36.745Z</time>
      </trkpt>
      <trkpt lat="44.39412" lon="-0.11085">
        <ele>165.022551</ele>
        <time>2022-12-28T14:01:38.746Z</time>
      </trkpt>
      <trkpt lat="44.39408" lon="-0.11071">
        <ele>165.135455</ele>
        <time>2022-12-28T14:01:40.752Z</time>
      </trkpt>
      <trkpt lat="44.39404" lon="-0.11058">
        <ele>165.241723</ele>
        <time>2022-12-28T14:01:42.735Z</time>
      </trkpt>
      <trkpt lat="44.394" lon="-0.11043">
        <ele>165.357021</ele>
        <time>2022-12-28T14:01:44.746Z</time>
      </trkpt>
      <trkpt lat="44.39396" lon="-0.11029">
        <ele>165.474891</ele>
        <time>2022-12-28T14:01:46.746Z</time>
      </trkpt>
      <trkpt lat="44.39391" lon="-0.11015">
        <ele>165.591786</ele>
        <time>2022-12-28T14:01:48.745Z</time>
      </trkpt>
      <trkpt lat="44.39388" lon="-0.11">
        <ele>165.710928</ele>
        <time>2022-12-28T14:01:50.746Z</time>
      </trkpt>
      <trkpt lat="44.39384" lon="-0.10985">
        <ele>165.829406</ele>
        <time>2022-12-28T14:01:52.745Z</time>
      </trkpt>
      <trkpt lat="44.3938" lon="-0.1097">
        <ele>165.730188</ele>
        <time>2022-12-28T14:01:54.795Z</time>
      </trkpt>
      <trkpt lat="44.39376" lon="-0.10955">
        <ele>165.534542</ele>
        <time>2022-12-28T14:01:56.747Z</time>
      </trkpt>
      <trkpt lat="44.39371" lon="-0.10941">
        <ele>165.346208</ele>
        <time>2022-12-28T14:01:58.746Z</time>
      </trkpt>
      <trkpt lat="44.39367" lon="-0.10926">
        <ele>165.160016</ele>
        <time>2022-12-28T14:02:00.734Z</time>
      </trkpt>
      <trkpt lat="44.39363" lon="-0.10912">
        <ele>164.976043</ele>
        <time>2022-12-28T14:02:02.720Z</time>
      </trkpt>
      <trkpt lat="44.39359" lon="-0.10897">
        <ele>164.79276</ele>
        <time>2022-12-28T14:02:04.745Z</time>
      </trkpt>
      <trkpt lat="44.39355" lon="-0.10884">
        <ele>164.618262</ele>
        <time>2022-12-28T14:02:06.747Z</time>
      </trkpt>
      <trkpt lat="44.39352" lon="-0.10871">
        <ele>164.449604</ele>
        <time>2022-12-28T14:02:08.730Z</time>
      </trkpt>
      <trkpt lat="44.39348" lon="-0.10858">
        <ele>164.281259</ele>
        <time>2022-12-28T14:02:10.798Z</time>
      </trkpt>
      <trkpt lat="44.39344" lon="-0.10844">
        <ele>164.106971</ele>
        <time>2022-12-28T14:02:12.726Z</time>
      </trkpt>
      <trkpt lat="44.39341" lon="-0.10831">
        <ele>163.941615</ele>
        <time>2022-12-28T14:02:14.746Z</time>
      </trkpt>
      <trkpt lat="44.39337" lon="-0.10817">
        <ele>163.762263</ele>
        <time>2022-12-28T14:02:16.796Z</time>
      </trkpt>
      <trkpt lat="44.39333" lon="-0.10802">
        <ele>163.575048</ele>
        <time>2022-12-28T14:02:18.744Z</time>
      </trkpt>
      <trkpt lat="44.39329" lon="-0.10787">
        <ele>163.383882</ele>
        <time>2022-12-28T14:02:20.745Z</time>
      </trkpt>
      <trkpt lat="44.39325" lon="-0.10772">
        <ele>163.195467</ele>
        <time>2022-12-28T14:02:22.797Z</time>
      </trkpt>
      <trkpt lat="44.39321" lon="-0.10757">
        <ele>163.002633</ele>
        <time>2022-12-28T14:02:24.745Z</time>
      </trkpt>
      <trkpt lat="44.39318" lon="-0.10743">
        <ele>162.840454</ele>
        <time>2022-12-28T14:02:26.746Z</time>
      </trkpt>
      <trkpt lat="44.39314" lon="-0.10729">
        <ele>162.752856</ele>
        <time>2022-12-28T14:02:28.796Z</time>
      </trkpt>
      <trkpt lat="44.3931" lon="-0.10716">
        <ele>162.66581</ele>
        <time>2022-12-28T14:02:30.745Z</time>
      </trkpt>
      <trkpt lat="44.39306" lon="-0.10701">
        <ele>162.573369</ele>
        <time>2022-12-28T14:02:32.729Z</time>
      </trkpt>
      <trkpt lat="44.39301" lon="-0.10687">
        <ele>162.483521</ele>
        <time>2022-12-28T14:02:34.744Z</time>
      </trkpt>
      <trkpt lat="44.39297" lon="-0.10673">
        <ele>162.393472</ele>
        <time>2022-12-28T14:02:36.745Z</time>
      </trkpt>
      <trkpt lat="44.39293" lon="-0.1066">
        <ele>162.304082</ele>
        <time>2022-12-28T14:02:38.747Z</time>
      </trkpt>
      <trkpt lat="44.39288" lon="-0.10646">
        <ele>162.215665</ele>
        <time>2022-12-28T14:02:40.748Z</time>
      </trkpt>
      <trkpt lat="44.39283" lon="-0.10633">
        <ele>162.127249</ele>
        <time>2022-12-28T14:02:42.742Z</time>
      </trkpt>
      <trkpt lat="44.39278" lon="-0.1062">
        <ele>162.039794</ele>
        <time>2022-12-28T14:02:44.727Z</time>
      </trkpt>
      <trkpt lat="44.39273" lon="-0.10607">
        <ele>161.951032</ele>
        <time>2022-12-28T14:02:46.744Z</time>
      </trkpt>
      <trkpt lat="44.39268" lon="-0.10594">
        <ele>161.864403</ele>
        <time>2022-12-28T14:02:48.744Z</time>
      </trkpt>
      <trkpt lat="44.39263" lon="-0.10581">
        <ele>161.775427</ele>
        <time>2022-12-28T14:02:50.746Z</time>
      </trkpt>
      <trkpt lat="44.39257" lon="-0.10568">
        <ele>161.685516</ele>
        <time>2022-12-28T14:02:52.745Z</time>
      </trkpt>
      <trkpt lat="44.39252" lon="-0.10555">
        <ele>161.596731</ele>
        <time>2022-12-28T14:02:54.747Z</time>
      </trkpt>
      <trkpt lat="44.39247" lon="-0.10542">
        <ele>161.509804</ele>
        <time>2022-12-28T14:02:56.748Z</time>
      </trkpt>
      <trkpt lat="44.39242" lon="-0.10528">
        <ele>161.419086</ele>
        <time>2022-12-28T14:02:58.747Z</time>
      </trkpt>
      <trkpt lat="44.39237" lon="-0.10516">
        <ele>161.367064</ele>
        <time>2022-12-28T14:03:00.747Z</time>
      </trkpt>
      <trkpt lat="44.39231" lon="-0.10502">
        <ele>161.37031</ele>
        <time>2022-12-28T14:03:02.749Z</time>
      </trkpt>
      <trkpt lat="44.39226" lon="-0.10488">
        <ele>161.37333</ele>
        <time>2022-12-28T14:03:04.747Z</time>
      </trkpt>
      <trkpt lat="44.39221" lon="-0.10476">
        <ele>161.376349</ele>
        <time>2022-12-28T14:03:06.748Z</time>
      </trkpt>
      <trkpt lat="44.39216" lon="-0.10462">
        <ele>161.379433</ele>
        <time>2022-12-28T14:03:08.744Z</time>
      </trkpt>
      <trkpt lat="44.39211" lon="-0.10451">
        <ele>161.382149</ele>
        <time>2022-12-28T14:03:10.747Z</time>
      </trkpt>
      <trkpt lat="44.39207" lon="-0.10439">
        <ele>161.384806</ele>
        <time>2022-12-28T14:03:12.749Z</time>
      </trkpt>
      <trkpt lat="44.39202" lon="-0.10428">
        <ele>161.387492</ele>
        <time>2022-12-28T14:03:14.745Z</time>
      </trkpt>
      <trkpt lat="44.39198" lon="-0.10417">
        <ele>161.390162</ele>
        <time>2022-12-28T14:03:16.746Z</time>
      </trkpt>
      <trkpt lat="44.39193" lon="-0.10404">
        <ele>161.392981</ele>
        <time>2022-12-28T14:03:18.743Z</time>
      </trkpt>
      <trkpt lat="44.39188" lon="-0.10393">
        <ele>161.39572</ele>
        <time>2022-12-28T14:03:20.745Z</time>
      </trkpt>
      <trkpt lat="44.39183" lon="-0.10381">
        <ele>161.398548</ele>
        <time>2022-12-28T14:03:22.744Z</time>
      </trkpt>
      <trkpt lat="44.39178" lon="-0.10368">
        <ele>161.401468</ele>
        <time>2022-12-28T14:03:24.744Z</time>
      </trkpt>
      <trkpt lat="44.39173" lon="-0.10356">
        <ele>161.404485</ele>
        <time>2022-12-28T14:03:26.746Z</time>
      </trkpt>
      <trkpt lat="44.39168" lon="-0.10343">
        <ele>161.407426</ele>
        <time>2022-12-28T14:03:28.745Z</time>
      </trkpt>
      <trkpt lat="44.39163" lon="-0.10331">
        <ele>161.410299</ele>
        <time>2022-12-28T14:03:30.747Z</time>
      </trkpt>
      <trkpt lat="44.39157" lon="-0.10319">
        <ele>161.413255</ele>
        <time>2022-12-28T14:03:32.746Z</time>
      </trkpt>
      <trkpt lat="44.39152" lon="-0.10305">
        <ele>161.416357</ele>
        <time>2022-12-28T14:03:34.744Z</time>
      </trkpt>
      <trkpt lat="44.39147" lon="-0.10292">
        <ele>161.25438</ele>
        <time>2022-12-28T14:03:36.747Z</time>
      </trkpt>
      <trkpt lat="44.39141" lon="-0.10278">
        <ele>161.020963</ele>
        <time>2022-12-28T14:03:38.727Z</time>
      </trkpt>
      <trkpt lat="44.39136" lon="-0.10264">
        <ele>160.789503</ele>
        <time>2022-12-28T14:03:40.724Z</time>
      </trkpt>
      <trkpt lat="44.3913" lon="-0.1025">
        <ele>160.557298</ele>
        <time>2022-12-28T14:03:42.746Z</time>
      </trkpt>
      <trkpt lat="44.39125" lon="-0.10236">
        <ele>160.308884</ele>
        <time>2022-12-28T14:03:44.733Z</time>
      </trkpt>
      <trkpt lat="44.39119" lon="-0.10221">
        <ele>160.065885</ele>
        <time>2022-12-28T14:03:46.746Z</time>
      </trkpt>
      <trkpt lat="44.39114" lon="-0.10207">
        <ele>159.833023</ele>
        <time>2022-12-28T14:03:48.746Z</time>
      </trkpt>
      <trkpt lat="44.39108" lon="-0.10193">
        <ele>159.594712</ele>
        <time>2022-12-28T14:03:50.749Z</time>
      </trkpt>
      <trkpt lat="44.39102" lon="-0.10179">
        <ele>159.351712</ele>
        <time>2022-12-28T14:03:52.747Z</time>
      </trkpt>
      <trkpt lat="44.39097" lon="-0.10164">
        <ele>159.105884</ele>
        <time>2022-12-28T14:03:54.746Z</time>
      </trkpt>
      <trkpt lat="44.39091" lon="-0.1015">
        <ele>158.86205</ele>
        <time>2022-12-28T14:03:56.746Z</time>
      </trkpt>
      <trkpt lat="44.39086" lon="-0.10136">
        <ele>158.630871</ele>
        <time>2022-12-28T14:03:58.743Z</time>
      </trkpt>
      <trkpt lat="44.3908" lon="-0.10122">
        <ele>158.395513</ele>
        <time>2022-12-28T14:04:00.745Z</time>
      </trkpt>
      <trkpt lat="44.39075" lon="-0.10109">
        <ele>158.167328</ele>
        <time>2022-12-28T14:04:02.743Z</time>
      </trkpt>
      <trkpt lat="44.39069" lon="-0.10094">
        <ele>157.918803</ele>
        <time>2022-12-28T14:04:04.746Z</time>
      </trkpt>
      <trkpt lat="44.39063" lon="-0.10079">
        <ele>157.679658</ele>
        <time>2022-12-28T14:04:06.745Z</time>
      </trkpt>
      <trkpt lat="44.39058" lon="-0.10065">
        <ele>157.580769</ele>
        <time>2022-12-28T14:04:08.743Z</time>
      </trkpt>
      <trkpt lat="44.39051" lon="-0.10051">
        <ele>157.478222</ele>
        <time>2022-12-28T14:04:10.745Z</time>
      </trkpt>
      <trkpt lat="44.39046" lon="-0.10036">
        <ele>157.370792</ele>
        <time>2022-12-28T14:04:12.744Z</time>
      </trkpt>
      <trkpt lat="44.39039" lon="-0.10021">
        <ele>157.262727</ele>
        <time>2022-12-28T14:04:14.733Z</time>
      </trkpt>
      <trkpt lat="44.39033" lon="-0.10005">
        <ele>157.144131</ele>
        <time>2022-12-28T14:04:16.746Z</time>
      </trkpt>
      <trkpt lat="44.39027" lon="-0.0999">
        <ele>157.037808</ele>
        <time>2022-12-28T14:04:18.745Z</time>
      </trkpt>
      <trkpt lat="44.39021" lon="-0.09974">
        <ele>156.929326</ele>
        <time>2022-12-28T14:04:20.748Z</time>
      </trkpt>
      <trkpt lat="44.39017" lon="-0.0996">
        <ele>156.832325</ele>
        <time>2022-12-28T14:04:22.745Z</time>
      </trkpt>
      <trkpt lat="44.39011" lon="-0.09946">
        <ele>156.733024</ele>
        <time>2022-12-28T14:04:24.758Z</time>
      </trkpt>
      <trkpt lat="44.39006" lon="-0.09933">
        <ele>156.637043</ele>
        <time>2022-12-28T14:04:26.740Z</time>
      </trkpt>
      <trkpt lat="44.39" lon="-0.09919">
        <ele>156.535026</ele>
        <time>2022-12-28T14:04:28.749Z</time>
      </trkpt>
      <trkpt lat="44.38995" lon="-0.09907">
        <ele>156.448631</ele>
        <time>2022-12-28T14:04:30.750Z</time>
      </trkpt>
      <trkpt lat="44.3899" lon="-0.09895">
        <ele>156.363111</ele>
        <time>2022-12-28T14:04:32.750Z</time>
      </trkpt>
      <trkpt lat="44.38985" lon="-0.09883">
        <ele>156.275525</ele>
        <time>2022-12-28T14:04:34.747Z</time>
      </trkpt>
      <trkpt lat="44.3898" lon="-0.09871">
        <ele>156.19082</ele>
        <time>2022-12-28T14:04:36.748Z</time>
      </trkpt>
      <trkpt lat="44.38976" lon="-0.0986">
        <ele>156.150762</ele>
        <time>2022-12-28T14:04:38.747Z</time>
      </trkpt>
      <trkpt lat="44.38972" lon="-0.09848">
        <ele>156.433757</ele>
        <time>2022-12-28T14:04:40.727Z</time>
      </trkpt>
      <trkpt lat="44.38967" lon="-0.09837">
        <ele>156.713712</ele>
        <time>2022-12-28T14:04:42.746Z</time>
      </trkpt>
      <trkpt lat="44.38964" lon="-0.09825">
        <ele>156.993095</ele>
        <time>2022-12-28T14:04:44.748Z</time>
      </trkpt>
      <trkpt lat="44.3896" lon="-0.09809">
        <ele>157.372037</ele>
        <time>2022-12-28T14:04:47.745Z</time>
      </trkpt>
      <trkpt lat="44.38956" lon="-0.09792">
        <ele>157.766387</ele>
        <time>2022-12-28T14:04:50.752Z</time>
      </trkpt>
      <trkpt lat="44.38953" lon="-0.09775">
        <ele>158.149343</ele>
        <time>2022-12-28T14:04:53.746Z</time>
      </trkpt>
      <trkpt lat="44.3895" lon="-0.09759">
        <ele>158.513507</ele>
        <time>2022-12-28T14:04:56.747Z</time>
      </trkpt>
      <trkpt lat="44.38947" lon="-0.09743">
        <ele>158.861221</ele>
        <time>2022-12-28T14:04:59.750Z</time>
      </trkpt>
      <trkpt lat="44.38946" lon="-0.09727">
        <ele>159.204139</ele>
        <time>2022-12-28T14:05:02.749Z</time>
      </trkpt>
      <trkpt lat="44.38944" lon="-0.09711">
        <ele>159.564176</ele>
        <time>2022-12-28T14:05:05.746Z</time>
      </trkpt>
      <trkpt lat="44.38942" lon="-0.09695">
        <ele>159.927011</ele>
        <time>2022-12-28T14:05:08.748Z</time>
      </trkpt>
      <trkpt lat="44.3894" lon="-0.09679">
        <ele>160.268248</ele>
        <time>2022-12-28T14:05:11.746Z</time>
      </trkpt>
      <trkpt lat="44.38939" lon="-0.09664">
        <ele>160.614853</ele>
        <time>2022-12-28T14:05:14.749Z</time>
      </trkpt>
      <trkpt lat="44.3894" lon="-0.09649">
        <ele>160.931231</ele>
        <time>2022-12-28T14:05:17.745Z</time>
      </trkpt>
      <trkpt lat="44.3894" lon="-0.09634">
        <ele>161.268341</ele>
        <time>2022-12-28T14:05:20.746Z</time>
      </trkpt>
      <trkpt lat="44.38939" lon="-0.0962">
        <ele>161.581781</ele>
        <time>2022-12-28T14:05:23.746Z</time>
      </trkpt>
      <trkpt lat="44.38939" lon="-0.09607">
        <ele>161.801751</ele>
        <time>2022-12-28T14:05:26.745Z</time>
      </trkpt>
      <trkpt lat="44.38939" lon="-0.09593">
        <ele>162.028748</ele>
        <time>2022-12-28T14:05:29.744Z</time>
      </trkpt>
      <trkpt lat="44.38938" lon="-0.09578">
        <ele>162.283556</ele>
        <time>2022-12-28T14:05:32.745Z</time>
      </trkpt>
      <trkpt lat="44.38937" lon="-0.09564">
        <ele>162.512357</ele>
        <time>2022-12-28T14:05:35.747Z</time>
      </trkpt>
      <trkpt lat="44.38936" lon="-0.09548">
        <ele>162.785864</ele>
        <time>2022-12-28T14:05:39.748Z</time>
      </trkpt>
      <trkpt lat="44.38936" lon="-0.09534">
        <ele>163.014383</ele>
        <time>2022-12-28T14:05:43.746Z</time>
      </trkpt>
      <trkpt lat="44.38934" lon="-0.09519">
        <ele>163.268937</ele>
        <time>2022-12-28T14:05:47.810Z</time>
      </trkpt>
      <trkpt lat="44.38934" lon="-0.09503">
        <ele>163.531904</ele>
        <time>2022-12-28T14:05:51.746Z</time>
      </trkpt>
      <trkpt lat="44.38935" lon="-0.09487">
        <ele>163.788412</ele>
        <time>2022-12-28T14:05:55.745Z</time>
      </trkpt>
      <trkpt lat="44.38934" lon="-0.09472">
        <ele>164.04171</ele>
        <time>2022-12-28T14:05:59.746Z</time>
      </trkpt>
      <trkpt lat="44.38934" lon="-0.09456">
        <ele>164.298062</ele>
        <time>2022-12-28T14:06:03.748Z</time>
      </trkpt>
      <trkpt lat="44.38933" lon="-0.09441">
        <ele>164.545565</ele>
        <time>2022-12-28T14:06:07.746Z</time>
      </trkpt>
      <trkpt lat="44.38933" lon="-0.09427">
        <ele>164.787421</ele>
        <time>2022-12-28T14:06:11.791Z</time>
      </trkpt>
      <trkpt lat="44.38932" lon="-0.09411">
        <ele>165.044024</ele>
        <time>2022-12-28T14:06:15.749Z</time>
      </trkpt>
      <trkpt lat="44.38932" lon="-0.09396">
        <ele>165.305695</ele>
        <time>2022-12-28T14:06:19.745Z</time>
      </trkpt>
      <trkpt lat="44.3893" lon="-0.0938">
        <ele>165.568725</ele>
        <time>2022-12-28T14:06:23.797Z</time>
      </trkpt>
      <trkpt lat="44.38929" lon="-0.09364">
        <ele>165.824886</ele>
        <time>2022-12-28T14:06:27.747Z</time>
      </trkpt>
      <trkpt lat="44.38929" lon="-0.09348">
        <ele>166.043208</ele>
        <time>2022-12-28T14:06:31.745Z</time>
      </trkpt>
      <trkpt lat="44.38928" lon="-0.09335">
        <ele>166.219737</ele>
        <time>2022-12-28T14:06:34.784Z</time>
      </trkpt>
      <trkpt lat="44.38928" lon="-0.09323">
        <ele>166.39601</ele>
        <time>2022-12-28T14:06:37.747Z</time>
      </trkpt>
      <trkpt lat="44.38928" lon="-0.09308">
        <ele>166.607192</ele>
        <time>2022-12-28T14:06:41.734Z</time>
      </trkpt>
      <trkpt lat="44.38928" lon="-0.09292">
        <ele>166.825169</ele>
        <time>2022-12-28T14:06:45.744Z</time>
      </trkpt>
      <trkpt lat="44.38927" lon="-0.09275">
        <ele>167.057604</ele>
        <time>2022-12-28T14:06:49.745Z</time>
      </trkpt>
      <trkpt lat="44.38927" lon="-0.09262">
        <ele>167.234037</ele>
        <time>2022-12-28T14:06:52.763Z</time>
      </trkpt>
      <trkpt lat="44.38927" lon="-0.09249">
        <ele>167.424337</ele>
        <time>2022-12-28T14:06:55.737Z</time>
      </trkpt>
      <trkpt lat="44.38927" lon="-0.09234">
        <ele>167.624231</ele>
        <time>2022-12-28T14:06:58.818Z</time>
      </trkpt>
      <trkpt lat="44.38927" lon="-0.0922">
        <ele>167.824238</ele>
        <time>2022-12-28T14:07:01.747Z</time>
      </trkpt>
      <trkpt lat="44.38928" lon="-0.09206">
        <ele>168.024433</ele>
        <time>2022-12-28T14:07:04.734Z</time>
      </trkpt>
      <trkpt lat="44.38929" lon="-0.0919">
        <ele>168.246776</ele>
        <time>2022-12-28T14:07:07.746Z</time>
      </trkpt>
      <trkpt lat="44.38931" lon="-0.09174">
        <ele>168.466101</ele>
        <time>2022-12-28T14:07:10.747Z</time>
      </trkpt>
      <trkpt lat="44.38933" lon="-0.09159">
        <ele>168.673846</ele>
        <time>2022-12-28T14:07:13.748Z</time>
      </trkpt>
      <trkpt lat="44.38935" lon="-0.09143">
        <ele>168.899981</ele>
        <time>2022-12-28T14:07:16.759Z</time>
      </trkpt>
      <trkpt lat="44.38938" lon="-0.09127">
        <ele>169.136399</ele>
        <time>2022-12-28T14:07:19.746Z</time>
      </trkpt>
      <trkpt lat="44.38941" lon="-0.0911">
        <ele>169.305167</ele>
        <time>2022-12-28T14:07:22.730Z</time>
      </trkpt>
      <trkpt lat="44.38945" lon="-0.09094">
        <ele>169.374255</ele>
        <time>2022-12-28T14:07:25.745Z</time>
      </trkpt>
      <trkpt lat="44.38949" lon="-0.09077">
        <ele>169.446322</ele>
        <time>2022-12-28T14:07:28.745Z</time>
      </trkpt>
      <trkpt lat="44.38954" lon="-0.09059">
        <ele>169.519909</ele>
        <time>2022-12-28T14:07:31.747Z</time>
      </trkpt>
      <trkpt lat="44.38957" lon="-0.09047">
        <ele>169.571263</ele>
        <time>2022-12-28T14:07:33.771Z</time>
      </trkpt>
      <trkpt lat="44.3896" lon="-0.09035">
        <ele>169.622828</ele>
        <time>2022-12-28T14:07:35.748Z</time>
      </trkpt>
      <trkpt lat="44.38964" lon="-0.09023">
        <ele>169.675899</ele>
        <time>2022-12-28T14:07:37.747Z</time>
      </trkpt>
      <trkpt lat="44.38967" lon="-0.09011">
        <ele>169.726717</ele>
        <time>2022-12-28T14:07:39.792Z</time>
      </trkpt>
      <trkpt lat="44.38972" lon="-0.08994">
        <ele>169.796989</ele>
        <time>2022-12-28T14:07:42.747Z</time>
      </trkpt>
      <trkpt lat="44.38976" lon="-0.08978">
        <ele>169.866828</ele>
        <time>2022-12-28T14:07:45.795Z</time>
      </trkpt>
      <trkpt lat="44.3898" lon="-0.08961">
        <ele>169.937972</ele>
        <time>2022-12-28T14:07:48.741Z</time>
      </trkpt>
      <trkpt lat="44.38985" lon="-0.08943">
        <ele>170.011346</ele>
        <time>2022-12-28T14:07:51.816Z</time>
      </trkpt>
      <trkpt lat="44.3899" lon="-0.08926">
        <ele>170.084767</ele>
        <time>2022-12-28T14:07:54.749Z</time>
      </trkpt>
      <trkpt lat="44.38992" lon="-0.08914">
        <ele>170.134621</ele>
        <time>2022-12-28T14:07:56.746Z</time>
      </trkpt>
      <trkpt lat="44.38996" lon="-0.08902">
        <ele>170.185963</ele>
        <time>2022-12-28T14:07:58.748Z</time>
      </trkpt>
      <trkpt lat="44.38999" lon="-0.08889">
        <ele>170.237873</ele>
        <time>2022-12-28T14:08:00.746Z</time>
      </trkpt>
      <trkpt lat="44.39002" lon="-0.08877">
        <ele>170.282565</ele>
        <time>2022-12-28T14:08:02.738Z</time>
      </trkpt>
      <trkpt lat="44.39005" lon="-0.08865">
        <ele>170.307856</ele>
        <time>2022-12-28T14:08:04.739Z</time>
      </trkpt>
      <trkpt lat="44.39009" lon="-0.08853">
        <ele>170.333862</ele>
        <time>2022-12-28T14:08:06.749Z</time>
      </trkpt>
      <trkpt lat="44.39013" lon="-0.08834">
        <ele>170.371093</ele>
        <time>2022-12-28T14:08:09.748Z</time>
      </trkpt>
      <trkpt lat="44.39017" lon="-0.08822">
        <ele>170.396307</ele>
        <time>2022-12-28T14:08:11.749Z</time>
      </trkpt>
      <trkpt lat="44.3902" lon="-0.08809">
        <ele>170.422847</ele>
        <time>2022-12-28T14:08:13.740Z</time>
      </trkpt>
      <trkpt lat="44.39024" lon="-0.08797">
        <ele>170.447487</ele>
        <time>2022-12-28T14:08:15.748Z</time>
      </trkpt>
      <trkpt lat="44.39027" lon="-0.08784">
        <ele>170.474572</ele>
        <time>2022-12-28T14:08:17.746Z</time>
      </trkpt>
      <trkpt lat="44.3903" lon="-0.08772">
        <ele>170.499405</ele>
        <time>2022-12-28T14:08:19.748Z</time>
      </trkpt>
      <trkpt lat="44.39034" lon="-0.08759">
        <ele>170.526146</ele>
        <time>2022-12-28T14:08:21.747Z</time>
      </trkpt>
      <trkpt lat="44.39038" lon="-0.08742">
        <ele>170.561477</ele>
        <time>2022-12-28T14:08:24.745Z</time>
      </trkpt>
      <trkpt lat="44.39043" lon="-0.08726">
        <ele>170.594458</ele>
        <time>2022-12-28T14:08:27.731Z</time>
      </trkpt>
      <trkpt lat="44.39047" lon="-0.0871">
        <ele>170.626614</ele>
        <time>2022-12-28T14:08:30.746Z</time>
      </trkpt>
      <trkpt lat="44.39051" lon="-0.08694">
        <ele>170.658977</ele>
        <time>2022-12-28T14:08:33.747Z</time>
      </trkpt>
      <trkpt lat="44.39057" lon="-0.08678">
        <ele>170.693669</ele>
        <time>2022-12-28T14:08:36.730Z</time>
      </trkpt>
      <trkpt lat="44.39061" lon="-0.08661">
        <ele>170.728367</ele>
        <time>2022-12-28T14:08:39.745Z</time>
      </trkpt>
      <trkpt lat="44.39065" lon="-0.08643">
        <ele>170.758184</ele>
        <time>2022-12-28T14:08:42.748Z</time>
      </trkpt>
      <trkpt lat="44.39069" lon="-0.08625">
        <ele>170.73245</ele>
        <time>2022-12-28T14:08:45.748Z</time>
      </trkpt>
      <trkpt lat="44.39074" lon="-0.08607">
        <ele>170.707525</ele>
        <time>2022-12-28T14:08:48.746Z</time>
      </trkpt>
      <trkpt lat="44.39077" lon="-0.08595">
        <ele>170.690474</ele>
        <time>2022-12-28T14:08:50.805Z</time>
      </trkpt>
      <trkpt lat="44.3908" lon="-0.08583">
        <ele>170.673292</ele>
        <time>2022-12-28T14:08:52.759Z</time>
      </trkpt>
      <trkpt lat="44.39083" lon="-0.0857">
        <ele>170.655366</ele>
        <time>2022-12-28T14:08:54.746Z</time>
      </trkpt>
      <trkpt lat="44.39086" lon="-0.08558">
        <ele>170.638436</ele>
        <time>2022-12-28T14:08:56.808Z</time>
      </trkpt>
      <trkpt lat="44.3909" lon="-0.08541">
        <ele>170.614934</ele>
        <time>2022-12-28T14:08:59.745Z</time>
      </trkpt>
      <trkpt lat="44.39094" lon="-0.08526">
        <ele>170.594002</ele>
        <time>2022-12-28T14:09:02.746Z</time>
      </trkpt>
      <trkpt lat="44.39097" lon="-0.0851">
        <ele>170.57137</ele>
        <time>2022-12-28T14:09:05.745Z</time>
      </trkpt>
      <trkpt lat="44.39101" lon="-0.08492">
        <ele>170.546997</ele>
        <time>2022-12-28T14:09:08.746Z</time>
      </trkpt>
      <trkpt lat="44.39105" lon="-0.08475">
        <ele>170.523068</ele>
        <time>2022-12-28T14:09:11.748Z</time>
      </trkpt>
      <trkpt lat="44.39108" lon="-0.08457">
        <ele>170.49872</ele>
        <time>2022-12-28T14:09:14.743Z</time>
      </trkpt>
      <trkpt lat="44.3911" lon="-0.08445">
        <ele>170.481935</ele>
        <time>2022-12-28T14:09:16.745Z</time>
      </trkpt>
      <trkpt lat="44.39112" lon="-0.08432">
        <ele>170.464925</ele>
        <time>2022-12-28T14:09:18.748Z</time>
      </trkpt>
      <trkpt lat="44.39113" lon="-0.0842">
        <ele>170.448127</ele>
        <time>2022-12-28T14:09:20.748Z</time>
      </trkpt>
      <trkpt lat="44.39113" lon="-0.08406">
        <ele>170.43004</ele>
        <time>2022-12-28T14:09:22.747Z</time>
      </trkpt>
      <trkpt lat="44.39114" lon="-0.08393">
        <ele>170.459095</ele>
        <time>2022-12-28T14:09:24.756Z</time>
      </trkpt>
      <trkpt lat="44.39114" lon="-0.08379">
        <ele>170.500434</ele>
        <time>2022-12-28T14:09:26.746Z</time>
      </trkpt>
      <trkpt lat="44.39115" lon="-0.08365">
        <ele>170.540028</ele>
        <time>2022-12-28T14:09:28.744Z</time>
      </trkpt>
      <trkpt lat="44.39115" lon="-0.08351">
        <ele>170.581023</ele>
        <time>2022-12-28T14:09:30.789Z</time>
      </trkpt>
      <trkpt lat="44.39115" lon="-0.08338">
        <ele>170.62172</ele>
        <time>2022-12-28T14:09:32.745Z</time>
      </trkpt>
      <trkpt lat="44.39114" lon="-0.08324">
        <ele>170.661745</ele>
        <time>2022-12-28T14:09:34.750Z</time>
      </trkpt>
      <trkpt lat="44.39113" lon="-0.0831">
        <ele>170.703493</ele>
        <time>2022-12-28T14:09:36.803Z</time>
      </trkpt>
      <trkpt lat="44.39112" lon="-0.08296">
        <ele>170.744598</ele>
        <time>2022-12-28T14:09:38.749Z</time>
      </trkpt>
      <trkpt lat="44.3911" lon="-0.08282">
        <ele>170.786817</ele>
        <time>2022-12-28T14:09:40.748Z</time>
      </trkpt>
      <trkpt lat="44.39109" lon="-0.08268">
        <ele>170.827108</ele>
        <time>2022-12-28T14:09:42.771Z</time>
      </trkpt>
      <trkpt lat="44.39108" lon="-0.08254">
        <ele>170.86869</ele>
        <time>2022-12-28T14:09:44.746Z</time>
      </trkpt>
      <trkpt lat="44.39106" lon="-0.08241">
        <ele>170.910032</ele>
        <time>2022-12-28T14:09:46.747Z</time>
      </trkpt>
      <trkpt lat="44.39105" lon="-0.08227">
        <ele>170.951275</ele>
        <time>2022-12-28T14:09:48.805Z</time>
      </trkpt>
      <trkpt lat="44.39104" lon="-0.08213">
        <ele>170.99126</ele>
        <time>2022-12-28T14:09:50.748Z</time>
      </trkpt>
      <trkpt lat="44.39103" lon="-0.08199">
        <ele>171.033241</ele>
        <time>2022-12-28T14:09:52.748Z</time>
      </trkpt>
      <trkpt lat="44.39102" lon="-0.08186">
        <ele>171.073361</ele>
        <time>2022-12-28T14:09:54.748Z</time>
      </trkpt>
      <trkpt lat="44.39101" lon="-0.08172">
        <ele>171.114944</ele>
        <time>2022-12-28T14:09:56.747Z</time>
      </trkpt>
      <trkpt lat="44.39099" lon="-0.08158">
        <ele>171.155817</ele>
        <time>2022-12-28T14:09:58.748Z</time>
      </trkpt>
      <trkpt lat="44.39097" lon="-0.08144">
        <ele>171.210556</ele>
        <time>2022-12-28T14:10:00.747Z</time>
      </trkpt>
      <trkpt lat="44.39096" lon="-0.08129">
        <ele>171.272327</ele>
        <time>2022-12-28T14:10:02.747Z</time>
      </trkpt>
      <trkpt lat="44.39095" lon="-0.08115">
        <ele>171.334602</ele>
        <time>2022-12-28T14:10:04.747Z</time>
      </trkpt>
      <trkpt lat="44.39093" lon="-0.08101">
        <ele>171.397128</ele>
        <time>2022-12-28T14:10:06.748Z</time>
      </trkpt>
      <trkpt lat="44.39093" lon="-0.08085">
        <ele>171.461791</ele>
        <time>2022-12-28T14:10:08.746Z</time>
      </trkpt>
      <trkpt lat="44.39091" lon="-0.08072">
        <ele>171.522053</ele>
        <time>2022-12-28T14:10:10.751Z</time>
      </trkpt>
      <trkpt lat="44.3909" lon="-0.08058">
        <ele>171.57909</ele>
        <time>2022-12-28T14:10:12.743Z</time>
      </trkpt>
      <trkpt lat="44.39089" lon="-0.08045">
        <ele>171.63588</ele>
        <time>2022-12-28T14:10:14.758Z</time>
      </trkpt>
      <trkpt lat="44.39087" lon="-0.08027">
        <ele>171.71474</ele>
        <time>2022-12-28T14:10:17.823Z</time>
      </trkpt>
      <trkpt lat="44.39086" lon="-0.08014">
        <ele>171.769988</ele>
        <time>2022-12-28T14:10:19.749Z</time>
      </trkpt>
      <trkpt lat="44.39085" lon="-0.08001">
        <ele>171.82439</ele>
        <time>2022-12-28T14:10:21.758Z</time>
      </trkpt>
      <trkpt lat="44.39084" lon="-0.07988">
        <ele>171.881754</ele>
        <time>2022-12-28T14:10:23.816Z</time>
      </trkpt>
      <trkpt lat="44.39083" lon="-0.07974">
        <ele>171.940409</ele>
        <time>2022-12-28T14:10:25.751Z</time>
      </trkpt>
      <trkpt lat="44.39082" lon="-0.0796">
        <ele>172.002902</ele>
        <time>2022-12-28T14:10:27.759Z</time>
      </trkpt>
      <trkpt lat="44.39081" lon="-0.07946">
        <ele>172.064243</ele>
        <time>2022-12-28T14:10:29.820Z</time>
      </trkpt>
      <trkpt lat="44.3908" lon="-0.07931">
        <ele>172.124855</ele>
        <time>2022-12-28T14:10:31.760Z</time>
      </trkpt>
      <trkpt lat="44.39079" lon="-0.07918">
        <ele>172.18087</ele>
        <time>2022-12-28T14:10:33.750Z</time>
      </trkpt>
      <trkpt lat="44.39077" lon="-0.07905">
        <ele>172.238411</ele>
        <time>2022-12-28T14:10:35.805Z</time>
      </trkpt>
      <trkpt lat="44.39076" lon="-0.07892">
        <ele>172.174772</ele>
        <time>2022-12-28T14:10:37.757Z</time>
      </trkpt>
      <trkpt lat="44.39074" lon="-0.07874">
        <ele>172.063278</ele>
        <time>2022-12-28T14:10:40.750Z</time>
      </trkpt>
      <trkpt lat="44.39073" lon="-0.07857">
        <ele>171.957269</ele>
        <time>2022-12-28T14:10:43.760Z</time>
      </trkpt>
      <trkpt lat="44.39072" lon="-0.07839">
        <ele>171.846245</ele>
        <time>2022-12-28T14:10:46.747Z</time>
      </trkpt>
      <trkpt lat="44.39069" lon="-0.0782">
        <ele>171.731334</ele>
        <time>2022-12-28T14:10:49.747Z</time>
      </trkpt>
      <trkpt lat="44.39067" lon="-0.07808">
        <ele>171.65254</ele>
        <time>2022-12-28T14:10:51.747Z</time>
      </trkpt>
      <trkpt lat="44.39066" lon="-0.07795">
        <ele>171.572426</ele>
        <time>2022-12-28T14:10:53.796Z</time>
      </trkpt>
      <trkpt lat="44.39066" lon="-0.07781">
        <ele>171.489526</ele>
        <time>2022-12-28T14:10:55.747Z</time>
      </trkpt>
      <trkpt lat="44.39065" lon="-0.07768">
        <ele>171.40872</ele>
        <time>2022-12-28T14:10:57.734Z</time>
      </trkpt>
      <trkpt lat="44.39063" lon="-0.07754">
        <ele>171.326508</ele>
        <time>2022-12-28T14:10:59.821Z</time>
      </trkpt>
      <trkpt lat="44.39063" lon="-0.07741">
        <ele>171.24411</ele>
        <time>2022-12-28T14:11:01.751Z</time>
      </trkpt>
      <trkpt lat="44.39062" lon="-0.07727">
        <ele>171.162319</ele>
        <time>2022-12-28T14:11:03.747Z</time>
      </trkpt>
      <trkpt lat="44.39061" lon="-0.07713">
        <ele>171.074851</ele>
        <time>2022-12-28T14:11:05.821Z</time>
      </trkpt>
      <trkpt lat="44.3906" lon="-0.07699">
        <ele>170.989619</ele>
        <time>2022-12-28T14:11:07.748Z</time>
      </trkpt>
      <trkpt lat="44.39059" lon="-0.07685">
        <ele>170.901017</ele>
        <time>2022-12-28T14:11:09.744Z</time>
      </trkpt>
      <trkpt lat="44.39057" lon="-0.07671">
        <ele>170.81905</ele>
        <time>2022-12-28T14:11:11.813Z</time>
      </trkpt>
      <trkpt lat="44.39056" lon="-0.07658">
        <ele>170.737685</ele>
        <time>2022-12-28T14:11:13.746Z</time>
      </trkpt>
      <trkpt lat="44.39054" lon="-0.07646">
        <ele>170.692253</ele>
        <time>2022-12-28T14:11:15.747Z</time>
      </trkpt>
      <trkpt lat="44.39053" lon="-0.07633">
        <ele>170.661882</ele>
        <time>2022-12-28T14:11:17.791Z</time>
      </trkpt>
      <trkpt lat="44.39051" lon="-0.0762">
        <ele>170.630204</ele>
        <time>2022-12-28T14:11:19.750Z</time>
      </trkpt>
      <trkpt lat="44.3905" lon="-0.07607">
        <ele>170.598226</ele>
        <time>2022-12-28T14:11:21.750Z</time>
      </trkpt>
      <trkpt lat="44.39048" lon="-0.07594">
        <ele>170.565915</ele>
        <time>2022-12-28T14:11:23.804Z</time>
      </trkpt>
      <trkpt lat="44.39047" lon="-0.07579">
        <ele>170.531653</ele>
        <time>2022-12-28T14:11:25.750Z</time>
      </trkpt>
      <trkpt lat="44.39046" lon="-0.07566">
        <ele>170.498763</ele>
        <time>2022-12-28T14:11:27.750Z</time>
      </trkpt>
      <trkpt lat="44.39044" lon="-0.07551">
        <ele>170.463577</ele>
        <time>2022-12-28T14:11:29.803Z</time>
      </trkpt>
      <trkpt lat="44.39042" lon="-0.07537">
        <ele>170.428808</ele>
        <time>2022-12-28T14:11:31.750Z</time>
      </trkpt>
      <trkpt lat="44.39041" lon="-0.07522">
        <ele>170.393996</ele>
        <time>2022-12-28T14:11:33.755Z</time>
      </trkpt>
      <trkpt lat="44.3904" lon="-0.07508">
        <ele>170.360792</ele>
        <time>2022-12-28T14:11:35.805Z</time>
      </trkpt>
      <trkpt lat="44.39038" lon="-0.07494">
        <ele>170.327198</ele>
        <time>2022-12-28T14:11:37.753Z</time>
      </trkpt>
      <trkpt lat="44.39037" lon="-0.07481">
        <ele>170.295136</ele>
        <time>2022-12-28T14:11:39.753Z</time>
      </trkpt>
      <trkpt lat="44.39037" lon="-0.07468">
        <ele>170.265113</ele>
        <time>2022-12-28T14:11:41.798Z</time>
      </trkpt>
      <trkpt lat="44.39034" lon="-0.07451">
        <ele>170.22296</ele>
        <time>2022-12-28T14:11:44.743Z</time>
      </trkpt>
      <trkpt lat="44.39033" lon="-0.07434">
        <ele>170.183246</ele>
        <time>2022-12-28T14:11:47.748Z</time>
      </trkpt>
      <trkpt lat="44.39032" lon="-0.07422">
        <ele>170.153201</ele>
        <time>2022-12-28T14:11:49.747Z</time>
      </trkpt>
      <trkpt lat="44.39032" lon="-0.07402">
        <ele>170.108812</ele>
        <time>2022-12-28T14:11:52.733Z</time>
      </trkpt>
      <trkpt lat="44.3903" lon="-0.0739">
        <ele>170.089029</ele>
        <time>2022-12-28T14:11:54.748Z</time>
      </trkpt>
      <trkpt lat="44.3903" lon="-0.07377">
        <ele>170.069168</ele>
        <time>2022-12-28T14:11:56.747Z</time>
      </trkpt>
      <trkpt lat="44.39028" lon="-0.07364">
        <ele>170.048425</ele>
        <time>2022-12-28T14:11:58.747Z</time>
      </trkpt>
      <trkpt lat="44.39026" lon="-0.0735">
        <ele>170.026452</ele>
        <time>2022-12-28T14:12:00.749Z</time>
      </trkpt>
      <trkpt lat="44.39025" lon="-0.07337">
        <ele>170.005154</ele>
        <time>2022-12-28T14:12:02.746Z</time>
      </trkpt>
      <trkpt lat="44.39024" lon="-0.07323">
        <ele>169.983671</ele>
        <time>2022-12-28T14:12:04.773Z</time>
      </trkpt>
      <trkpt lat="44.39022" lon="-0.0731">
        <ele>169.961909</ele>
        <time>2022-12-28T14:12:06.748Z</time>
      </trkpt>
      <trkpt lat="44.39021" lon="-0.07295">
        <ele>169.939464</ele>
        <time>2022-12-28T14:12:08.747Z</time>
      </trkpt>
      <trkpt lat="44.39021" lon="-0.07282">
        <ele>169.918316</ele>
        <time>2022-12-28T14:12:10.755Z</time>
      </trkpt>
      <trkpt lat="44.39019" lon="-0.07267">
        <ele>169.89575</ele>
        <time>2022-12-28T14:12:12.802Z</time>
      </trkpt>
      <trkpt lat="44.39018" lon="-0.07253">
        <ele>169.87274</ele>
        <time>2022-12-28T14:12:14.743Z</time>
      </trkpt>
      <trkpt lat="44.39017" lon="-0.07239">
        <ele>169.850158</ele>
        <time>2022-12-28T14:12:16.748Z</time>
      </trkpt>
      <trkpt lat="44.39015" lon="-0.07224">
        <ele>169.826844</ele>
        <time>2022-12-28T14:12:18.797Z</time>
      </trkpt>
      <trkpt lat="44.39013" lon="-0.07209">
        <ele>169.802963</ele>
        <time>2022-12-28T14:12:20.729Z</time>
      </trkpt>
      <trkpt lat="44.39012" lon="-0.07194">
        <ele>169.780297</ele>
        <time>2022-12-28T14:12:22.747Z</time>
      </trkpt>
      <trkpt lat="44.3901" lon="-0.0718">
        <ele>169.757595</ele>
        <time>2022-12-28T14:12:24.746Z</time>
      </trkpt>
      <trkpt lat="44.39009" lon="-0.07165">
        <ele>169.734436</ele>
        <time>2022-12-28T14:12:26.756Z</time>
      </trkpt>
      <trkpt lat="44.39007" lon="-0.0715">
        <ele>169.731775</ele>
        <time>2022-12-28T14:12:28.746Z</time>
      </trkpt>
      <trkpt lat="44.39007" lon="-0.07136">
        <ele>169.765692</ele>
        <time>2022-12-28T14:12:30.732Z</time>
      </trkpt>
      <trkpt lat="44.39006" lon="-0.07122">
        <ele>169.798489</ele>
        <time>2022-12-28T14:12:32.730Z</time>
      </trkpt>
      <trkpt lat="44.39004" lon="-0.07108">
        <ele>169.830471</ele>
        <time>2022-12-28T14:12:34.746Z</time>
      </trkpt>
      <trkpt lat="44.39004" lon="-0.07094">
        <ele>169.861636</ele>
        <time>2022-12-28T14:12:36.746Z</time>
      </trkpt>
      <trkpt lat="44.39002" lon="-0.0708">
        <ele>169.89393</ele>
        <time>2022-12-28T14:12:38.748Z</time>
      </trkpt>
      <trkpt lat="44.39001" lon="-0.07067">
        <ele>169.925227</ele>
        <time>2022-12-28T14:12:40.753Z</time>
      </trkpt>
      <trkpt lat="44.39" lon="-0.07053">
        <ele>169.957935</ele>
        <time>2022-12-28T14:12:42.728Z</time>
      </trkpt>
      <trkpt lat="44.38999" lon="-0.07038">
        <ele>169.991481</ele>
        <time>2022-12-28T14:12:44.744Z</time>
      </trkpt>
      <trkpt lat="44.38997" lon="-0.07024">
        <ele>170.024504</ele>
        <time>2022-12-28T14:12:46.734Z</time>
      </trkpt>
      <trkpt lat="44.38996" lon="-0.0701">
        <ele>170.057576</ele>
        <time>2022-12-28T14:12:48.721Z</time>
      </trkpt>
      <trkpt lat="44.38994" lon="-0.06996">
        <ele>170.090701</ele>
        <time>2022-12-28T14:12:50.729Z</time>
      </trkpt>
      <trkpt lat="44.38993" lon="-0.06982">
        <ele>170.122587</ele>
        <time>2022-12-28T14:12:52.770Z</time>
      </trkpt>
      <trkpt lat="44.38993" lon="-0.06968">
        <ele>170.15435</ele>
        <time>2022-12-28T14:12:54.745Z</time>
      </trkpt>
      <trkpt lat="44.38991" lon="-0.06954">
        <ele>170.186918</ele>
        <time>2022-12-28T14:12:56.725Z</time>
      </trkpt>
      <trkpt lat="44.3899" lon="-0.0694">
        <ele>170.219397</ele>
        <time>2022-12-28T14:12:58.795Z</time>
      </trkpt>
      <trkpt lat="44.38988" lon="-0.06927">
        <ele>170.250087</ele>
        <time>2022-12-28T14:13:00.746Z</time>
      </trkpt>
      <trkpt lat="44.38987" lon="-0.06914">
        <ele>170.280168</ele>
        <time>2022-12-28T14:13:02.745Z</time>
      </trkpt>
      <trkpt lat="44.38985" lon="-0.06896">
        <ele>170.370457</ele>
        <time>2022-12-28T14:13:05.745Z</time>
      </trkpt>
      <trkpt lat="44.38984" lon="-0.06877">
        <ele>170.496317</ele>
        <time>2022-12-28T14:13:08.757Z</time>
      </trkpt>
      <trkpt lat="44.38982" lon="-0.06859">
        <ele>170.624649</ele>
        <time>2022-12-28T14:13:11.759Z</time>
      </trkpt>
      <trkpt lat="44.38981" lon="-0.06846">
        <ele>170.712405</ele>
        <time>2022-12-28T14:13:13.752Z</time>
      </trkpt>
      <trkpt lat="44.3898" lon="-0.06833">
        <ele>170.802569</ele>
        <time>2022-12-28T14:13:15.813Z</time>
      </trkpt>
      <trkpt lat="44.38979" lon="-0.06819">
        <ele>170.896725</ele>
        <time>2022-12-28T14:13:17.750Z</time>
      </trkpt>
      <trkpt lat="44.38978" lon="-0.06807">
        <ele>170.98372</ele>
        <time>2022-12-28T14:13:19.751Z</time>
      </trkpt>
      <trkpt lat="44.38976" lon="-0.06794">
        <ele>171.075048</ele>
        <time>2022-12-28T14:13:21.793Z</time>
      </trkpt>
      <trkpt lat="44.38975" lon="-0.0678">
        <ele>171.166679</ele>
        <time>2022-12-28T14:13:23.749Z</time>
      </trkpt>
      <trkpt lat="44.38974" lon="-0.06767">
        <ele>171.256654</ele>
        <time>2022-12-28T14:13:25.747Z</time>
      </trkpt>
      <trkpt lat="44.38972" lon="-0.06749">
        <ele>171.38295</ele>
        <time>2022-12-28T14:13:28.741Z</time>
      </trkpt>
      <trkpt lat="44.38971" lon="-0.06731">
        <ele>171.504864</ele>
        <time>2022-12-28T14:13:31.747Z</time>
      </trkpt>
      <trkpt lat="44.38969" lon="-0.06712">
        <ele>171.63427</ele>
        <time>2022-12-28T14:13:34.747Z</time>
      </trkpt>
      <trkpt lat="44.38968" lon="-0.06694">
        <ele>171.760228</ele>
        <time>2022-12-28T14:13:37.749Z</time>
      </trkpt>
      <trkpt lat="44.38968" lon="-0.06677">
        <ele>171.880091</ele>
        <time>2022-12-28T14:13:40.746Z</time>
      </trkpt>
      <trkpt lat="44.38966" lon="-0.06658">
        <ele>172.006268</ele>
        <time>2022-12-28T14:13:43.800Z</time>
      </trkpt>
      <trkpt lat="44.38965" lon="-0.0664">
        <ele>171.863239</ele>
        <time>2022-12-28T14:13:46.746Z</time>
      </trkpt>
      <trkpt lat="44.38962" lon="-0.06622">
        <ele>171.679613</ele>
        <time>2022-12-28T14:13:49.799Z</time>
      </trkpt>
      <trkpt lat="44.38961" lon="-0.06603">
        <ele>171.497449</ele>
        <time>2022-12-28T14:13:52.746Z</time>
      </trkpt>
      <trkpt lat="44.3896" lon="-0.06586">
        <ele>171.330477</ele>
        <time>2022-12-28T14:13:55.798Z</time>
      </trkpt>
      <trkpt lat="44.38958" lon="-0.06569">
        <ele>171.158368</ele>
        <time>2022-12-28T14:13:58.734Z</time>
      </trkpt>
      <trkpt lat="44.38956" lon="-0.06553">
        <ele>170.99962</ele>
        <time>2022-12-28T14:14:01.807Z</time>
      </trkpt>
      <trkpt lat="44.38954" lon="-0.06536">
        <ele>170.83101</ele>
        <time>2022-12-28T14:14:04.754Z</time>
      </trkpt>
      <trkpt lat="44.38952" lon="-0.06517">
        <ele>170.649637</ele>
        <time>2022-12-28T14:14:07.806Z</time>
      </trkpt>
      <trkpt lat="44.3895" lon="-0.06499">
        <ele>170.46601</ele>
        <time>2022-12-28T14:14:10.746Z</time>
      </trkpt>
      <trkpt lat="44.38949" lon="-0.06481">
        <ele>170.289028</ele>
        <time>2022-12-28T14:14:13.804Z</time>
      </trkpt>
      <trkpt lat="44.38947" lon="-0.06462">
        <ele>170.109771</ele>
        <time>2022-12-28T14:14:16.746Z</time>
      </trkpt>
      <trkpt lat="44.38945" lon="-0.06444">
        <ele>169.931971</ele>
        <time>2022-12-28T14:14:19.811Z</time>
      </trkpt>
      <trkpt lat="44.38944" lon="-0.06426">
        <ele>169.74654</ele>
        <time>2022-12-28T14:14:22.750Z</time>
      </trkpt>
      <trkpt lat="44.38942" lon="-0.06407">
        <ele>169.562837</ele>
        <time>2022-12-28T14:14:25.725Z</time>
      </trkpt>
      <trkpt lat="44.38941" lon="-0.06394">
        <ele>169.67543</ele>
        <time>2022-12-28T14:14:27.741Z</time>
      </trkpt>
      <trkpt lat="44.38939" lon="-0.06375">
        <ele>169.83805</ele>
        <time>2022-12-28T14:14:30.737Z</time>
      </trkpt>
      <trkpt lat="44.38937" lon="-0.06357">
        <ele>169.998237</ele>
        <time>2022-12-28T14:14:33.746Z</time>
      </trkpt>
      <trkpt lat="44.38936" lon="-0.06345">
        <ele>170.109117</ele>
        <time>2022-12-28T14:14:35.746Z</time>
      </trkpt>
      <trkpt lat="44.38935" lon="-0.06332">
        <ele>170.221416</ele>
        <time>2022-12-28T14:14:37.746Z</time>
      </trkpt>
      <trkpt lat="44.38934" lon="-0.06318">
        <ele>170.337635</ele>
        <time>2022-12-28T14:14:39.746Z</time>
      </trkpt>
      <trkpt lat="44.38933" lon="-0.06306">
        <ele>170.449696</ele>
        <time>2022-12-28T14:14:41.745Z</time>
      </trkpt>
      <trkpt lat="44.38932" lon="-0.06293">
        <ele>170.561605</ele>
        <time>2022-12-28T14:14:43.743Z</time>
      </trkpt>
      <trkpt lat="44.3893" lon="-0.06275">
        <ele>170.713467</ele>
        <time>2022-12-28T14:14:46.745Z</time>
      </trkpt>
      <trkpt lat="44.38929" lon="-0.0626">
        <ele>170.843918</ele>
        <time>2022-12-28T14:14:49.732Z</time>
      </trkpt>
      <trkpt lat="44.38928" lon="-0.06246">
        <ele>170.973354</ele>
        <time>2022-12-28T14:14:52.742Z</time>
      </trkpt>
      <trkpt lat="44.38926" lon="-0.06232">
        <ele>171.09471</ele>
        <time>2022-12-28T14:14:55.735Z</time>
      </trkpt>
      <trkpt lat="44.38925" lon="-0.06217">
        <ele>171.22819</ele>
        <time>2022-12-28T14:14:58.746Z</time>
      </trkpt>
      <trkpt lat="44.38923" lon="-0.06201">
        <ele>171.361738</ele>
        <time>2022-12-28T14:15:01.736Z</time>
      </trkpt>
      <trkpt lat="44.38922" lon="-0.06187">
        <ele>171.489307</ele>
        <time>2022-12-28T14:15:04.749Z</time>
      </trkpt>
      <trkpt lat="44.38921" lon="-0.06173">
        <ele>171.613736</ele>
        <time>2022-12-28T14:15:07.746Z</time>
      </trkpt>
      <trkpt lat="44.3892" lon="-0.06159">
        <ele>171.735867</ele>
        <time>2022-12-28T14:15:10.748Z</time>
      </trkpt>
      <trkpt lat="44.38919" lon="-0.06144">
        <ele>172.071157</ele>
        <time>2022-12-28T14:15:13.748Z</time>
      </trkpt>
      <trkpt lat="44.38917" lon="-0.0613">
        <ele>172.426366</ele>
        <time>2022-12-28T14:15:16.744Z</time>
      </trkpt>
      <trkpt lat="44.38916" lon="-0.06117">
        <ele>172.777413</ele>
        <time>2022-12-28T14:15:19.747Z</time>
      </trkpt>
      <trkpt lat="44.38914" lon="-0.06103">
        <ele>173.120187</ele>
        <time>2022-12-28T14:15:22.759Z</time>
      </trkpt>
      <trkpt lat="44.38913" lon="-0.0609">
        <ele>173.45374</ele>
        <time>2022-12-28T14:15:25.750Z</time>
      </trkpt>
      <trkpt lat="44.38912" lon="-0.06075">
        <ele>173.844431</ele>
        <time>2022-12-28T14:15:29.797Z</time>
      </trkpt>
      <trkpt lat="44.38911" lon="-0.06059">
        <ele>174.256487</ele>
        <time>2022-12-28T14:15:33.749Z</time>
      </trkpt>
      <trkpt lat="44.38909" lon="-0.06045">
        <ele>174.593575</ele>
        <time>2022-12-28T14:15:36.749Z</time>
      </trkpt>
      <trkpt lat="44.38908" lon="-0.06031">
        <ele>174.947124</ele>
        <time>2022-12-28T14:15:39.751Z</time>
      </trkpt>
      <trkpt lat="44.38907" lon="-0.06017">
        <ele>175.308177</ele>
        <time>2022-12-28T14:15:42.756Z</time>
      </trkpt>
      <trkpt lat="44.38906" lon="-0.06004">
        <ele>175.649817</ele>
        <time>2022-12-28T14:15:45.753Z</time>
      </trkpt>
      <trkpt lat="44.38905" lon="-0.05991">
        <ele>175.968917</ele>
        <time>2022-12-28T14:15:48.753Z</time>
      </trkpt>
      <trkpt lat="44.38903" lon="-0.05978">
        <ele>176.301025</ele>
        <time>2022-12-28T14:15:51.746Z</time>
      </trkpt>
      <trkpt lat="44.38902" lon="-0.05965">
        <ele>176.640152</ele>
        <time>2022-12-28T14:15:54.738Z</time>
      </trkpt>
      <trkpt lat="44.38901" lon="-0.05952">
        <ele>176.961689</ele>
        <time>2022-12-28T14:15:57.754Z</time>
      </trkpt>
      <trkpt lat="44.38902" lon="-0.05935">
        <ele>177.387924</ele>
        <time>2022-12-28T14:16:01.732Z</time>
      </trkpt>
      <trkpt lat="44.389" lon="-0.05921">
        <ele>177.760994</ele>
        <time>2022-12-28T14:16:04.746Z</time>
      </trkpt>
      <trkpt lat="44.38898" lon="-0.05907">
        <ele>178.104184</ele>
        <time>2022-12-28T14:16:07.748Z</time>
      </trkpt>
      <trkpt lat="44.38896" lon="-0.05891">
        <ele>178.38817</ele>
        <time>2022-12-28T14:16:11.809Z</time>
      </trkpt>
      <trkpt lat="44.38895" lon="-0.05878">
        <ele>178.613679</ele>
        <time>2022-12-28T14:16:14.760Z</time>
      </trkpt>
      <trkpt lat="44.38894" lon="-0.05865">
        <ele>178.846685</ele>
        <time>2022-12-28T14:16:17.790Z</time>
      </trkpt>
      <trkpt lat="44.38893" lon="-0.05852">
        <ele>179.070449</ele>
        <time>2022-12-28T14:16:20.746Z</time>
      </trkpt>
      <trkpt lat="44.38892" lon="-0.0584">
        <ele>179.293548</ele>
        <time>2022-12-28T14:16:23.801Z</time>
      </trkpt>
      <trkpt lat="44.3889" lon="-0.05827">
        <ele>179.520093</ele>
        <time>2022-12-28T14:16:26.755Z</time>
      </trkpt>
      <trkpt lat="44.38889" lon="-0.05814">
        <ele>179.745855</ele>
        <time>2022-12-28T14:16:29.797Z</time>
      </trkpt>
      <trkpt lat="44.38888" lon="-0.05802">
        <ele>179.972536</ele>
        <time>2022-12-28T14:16:32.759Z</time>
      </trkpt>
      <trkpt lat="44.38887" lon="-0.05789">
        <ele>180.198045</ele>
        <time>2022-12-28T14:16:35.805Z</time>
      </trkpt>
      <trkpt lat="44.38886" lon="-0.05776">
        <ele>180.425074</ele>
        <time>2022-12-28T14:16:38.728Z</time>
      </trkpt>
      <trkpt lat="44.38885" lon="-0.05763">
        <ele>180.656066</ele>
        <time>2022-12-28T14:16:41.806Z</time>
      </trkpt>
      <trkpt lat="44.38884" lon="-0.0575">
        <ele>180.890545</ele>
        <time>2022-12-28T14:16:44.749Z</time>
      </trkpt>
      <trkpt lat="44.38883" lon="-0.05737">
        <ele>181.11202</ele>
        <time>2022-12-28T14:16:47.823Z</time>
      </trkpt>
      <trkpt lat="44.38881" lon="-0.05721">
        <ele>181.40335</ele>
        <time>2022-12-28T14:16:51.739Z</time>
      </trkpt>
      <trkpt lat="44.3888" lon="-0.05708">
        <ele>181.631767</ele>
        <time>2022-12-28T14:16:54.746Z</time>
      </trkpt>
      <trkpt lat="44.38878" lon="-0.05691">
        <ele>181.925198</ele>
        <time>2022-12-28T14:16:58.749Z</time>
      </trkpt>
      <trkpt lat="44.38876" lon="-0.05675">
        <ele>182.209873</ele>
        <time>2022-12-28T14:17:02.745Z</time>
      </trkpt>
      <trkpt lat="44.38875" lon="-0.05659">
        <ele>182.500428</ele>
        <time>2022-12-28T14:17:06.747Z</time>
      </trkpt>
      <trkpt lat="44.38873" lon="-0.05645">
        <ele>182.50375</ele>
        <time>2022-12-28T14:17:10.749Z</time>
      </trkpt>
      <trkpt lat="44.38871" lon="-0.05631">
        <ele>182.498445</ele>
        <time>2022-12-28T14:17:14.730Z</time>
      </trkpt>
      <trkpt lat="44.3887" lon="-0.05615">
        <ele>182.492481</ele>
        <time>2022-12-28T14:17:18.730Z</time>
      </trkpt>
      <trkpt lat="44.38869" lon="-0.05599">
        <ele>182.486595</ele>
        <time>2022-12-28T14:17:22.734Z</time>
      </trkpt>
      <trkpt lat="44.38867" lon="-0.05586">
        <ele>182.481689</ele>
        <time>2022-12-28T14:17:25.745Z</time>
      </trkpt>
      <trkpt lat="44.38866" lon="-0.05572">
        <ele>182.476421</ele>
        <time>2022-12-28T14:17:28.743Z</time>
      </trkpt>
      <trkpt lat="44.38865" lon="-0.05558">
        <ele>182.471383</ele>
        <time>2022-12-28T14:17:31.744Z</time>
      </trkpt>
      <trkpt lat="44.38864" lon="-0.05545">
        <ele>182.466596</ele>
        <time>2022-12-28T14:17:34.743Z</time>
      </trkpt>
      <trkpt lat="44.38863" lon="-0.05533">
        <ele>182.461796</ele>
        <time>2022-12-28T14:17:37.745Z</time>
      </trkpt>
      <trkpt lat="44.38861" lon="-0.05517">
        <ele>182.455892</ele>
        <time>2022-12-28T14:17:41.749Z</time>
      </trkpt>
      <trkpt lat="44.38858" lon="-0.05487">
        <ele>182.444643</ele>
        <time>2022-12-28T14:19:24.828Z</time>
      </trkpt>
      <trkpt lat="44.38856" lon="-0.0547">
        <ele>182.43849</ele>
        <time>2022-12-28T14:19:28.747Z</time>
      </trkpt>
      <trkpt lat="44.38855" lon="-0.05457">
        <ele>182.433521</ele>
        <time>2022-12-28T14:19:31.749Z</time>
      </trkpt>
      <trkpt lat="44.38853" lon="-0.05443">
        <ele>182.428421</ele>
        <time>2022-12-28T14:19:34.745Z</time>
      </trkpt>
      <trkpt lat="44.38852" lon="-0.0543">
        <ele>182.423488</ele>
        <time>2022-12-28T14:19:37.746Z</time>
      </trkpt>
      <trkpt lat="44.38851" lon="-0.05417">
        <ele>182.418676</ele>
        <time>2022-12-28T14:19:40.746Z</time>
      </trkpt>
      <trkpt lat="44.3885" lon="-0.05404">
        <ele>182.560976</ele>
        <time>2022-12-28T14:19:43.746Z</time>
      </trkpt>
      <trkpt lat="44.38849" lon="-0.05391">
        <ele>182.925155</ele>
        <time>2022-12-28T14:19:46.748Z</time>
      </trkpt>
      <trkpt lat="44.38848" lon="-0.05378">
        <ele>183.280857</ele>
        <time>2022-12-28T14:19:49.756Z</time>
      </trkpt>
      <trkpt lat="44.38846" lon="-0.05362">
        <ele>183.735876</ele>
        <time>2022-12-28T14:19:53.753Z</time>
      </trkpt>
      <trkpt lat="44.38846" lon="-0.05347">
        <ele>184.131427</ele>
        <time>2022-12-28T14:19:57.741Z</time>
      </trkpt>
      <trkpt lat="44.38846" lon="-0.05333">
        <ele>184.516541</ele>
        <time>2022-12-28T14:20:01.752Z</time>
      </trkpt>
      <trkpt lat="44.38844" lon="-0.05319">
        <ele>184.920828</ele>
        <time>2022-12-28T14:20:05.749Z</time>
      </trkpt>
      <trkpt lat="44.38842" lon="-0.05306">
        <ele>185.276209</ele>
        <time>2022-12-28T14:20:09.813Z</time>
      </trkpt>
      <trkpt lat="44.38841" lon="-0.05291">
        <ele>185.707814</ele>
        <time>2022-12-28T14:20:14.745Z</time>
      </trkpt>
      <trkpt lat="44.3884" lon="-0.05278">
        <ele>186.058417</ele>
        <time>2022-12-28T14:20:18.733Z</time>
      </trkpt>
      <trkpt lat="44.38839" lon="-0.05265">
        <ele>186.411769</ele>
        <time>2022-12-28T14:20:22.736Z</time>
      </trkpt>
      <trkpt lat="44.38837" lon="-0.05253">
        <ele>186.766387</ele>
        <time>2022-12-28T14:20:26.745Z</time>
      </trkpt>
      <trkpt lat="44.38836" lon="-0.05237">
        <ele>187.198585</ele>
        <time>2022-12-28T14:20:31.746Z</time>
      </trkpt>
      <trkpt lat="44.38834" lon="-0.05222">
        <ele>187.620579</ele>
        <time>2022-12-28T14:20:36.752Z</time>
      </trkpt>
      <trkpt lat="44.38831" lon="-0.05209">
        <ele>188.010784</ele>
        <time>2022-12-28T14:20:41.748Z</time>
      </trkpt>
      <trkpt lat="44.38831" lon="-0.05196">
        <ele>188.363055</ele>
        <time>2022-12-28T14:20:45.750Z</time>
      </trkpt>
      <trkpt lat="44.3883" lon="-0.05182">
        <ele>188.742432</ele>
        <time>2022-12-28T14:20:49.745Z</time>
      </trkpt>
      <trkpt lat="44.3883" lon="-0.05167">
        <ele>189.157285</ele>
        <time>2022-12-28T14:20:53.758Z</time>
      </trkpt>
      <trkpt lat="44.38829" lon="-0.05152">
        <ele>189.445859</ele>
        <time>2022-12-28T14:20:57.728Z</time>
      </trkpt>
      <trkpt lat="44.38828" lon="-0.05136">
        <ele>189.589349</ele>
        <time>2022-12-28T14:21:01.745Z</time>
      </trkpt>
      <trkpt lat="44.38826" lon="-0.05123">
        <ele>189.705584</ele>
        <time>2022-12-28T14:21:04.751Z</time>
      </trkpt>
      <trkpt lat="44.38825" lon="-0.05109">
        <ele>189.827459</ele>
        <time>2022-12-28T14:21:07.798Z</time>
      </trkpt>
      <trkpt lat="44.38823" lon="-0.05096">
        <ele>189.944821</ele>
        <time>2022-12-28T14:21:10.751Z</time>
      </trkpt>
      <trkpt lat="44.38823" lon="-0.05083">
        <ele>190.064137</ele>
        <time>2022-12-28T14:21:13.741Z</time>
      </trkpt>
      <trkpt lat="44.38822" lon="-0.05069">
        <ele>190.187227</ele>
        <time>2022-12-28T14:21:16.749Z</time>
      </trkpt>
      <trkpt lat="44.38821" lon="-0.05056">
        <ele>190.309989</ele>
        <time>2022-12-28T14:21:19.755Z</time>
      </trkpt>
      <trkpt lat="44.38819" lon="-0.05039">
        <ele>190.459398</ele>
        <time>2022-12-28T14:21:23.752Z</time>
      </trkpt>
      <trkpt lat="44.38818" lon="-0.05026">
        <ele>190.577728</ele>
        <time>2022-12-28T14:21:26.750Z</time>
      </trkpt>
      <trkpt lat="44.38817" lon="-0.05012">
        <ele>190.701072</ele>
        <time>2022-12-28T14:21:29.759Z</time>
      </trkpt>
      <trkpt lat="44.38816" lon="-0.04999">
        <ele>190.822787</ele>
        <time>2022-12-28T14:21:32.759Z</time>
      </trkpt>
      <trkpt lat="44.38813" lon="-0.04983">
        <ele>190.971069</ele>
        <time>2022-12-28T14:21:36.796Z</time>
      </trkpt>
      <trkpt lat="44.38812" lon="-0.04968">
        <ele>191.101528</ele>
        <time>2022-12-28T14:21:39.757Z</time>
      </trkpt>
      <trkpt lat="44.3881" lon="-0.04953">
        <ele>191.24183</ele>
        <time>2022-12-28T14:21:42.759Z</time>
      </trkpt>
      <trkpt lat="44.38809" lon="-0.04936">
        <ele>191.392269</ele>
        <time>2022-12-28T14:21:45.822Z</time>
      </trkpt>
      <trkpt lat="44.38807" lon="-0.04919">
        <ele>191.544963</ele>
        <time>2022-12-28T14:21:48.749Z</time>
      </trkpt>
      <trkpt lat="44.38806" lon="-0.04902">
        <ele>191.658958</ele>
        <time>2022-12-28T14:21:51.801Z</time>
      </trkpt>
      <trkpt lat="44.38804" lon="-0.04885">
        <ele>191.727452</ele>
        <time>2022-12-28T14:21:54.744Z</time>
      </trkpt>
      <trkpt lat="44.38803" lon="-0.04867">
        <ele>191.79704</ele>
        <time>2022-12-28T14:21:57.793Z</time>
      </trkpt>
      <trkpt lat="44.38801" lon="-0.04849">
        <ele>191.868681</ele>
        <time>2022-12-28T14:22:00.751Z</time>
      </trkpt>
      <trkpt lat="44.388" lon="-0.04837">
        <ele>191.917838</ele>
        <time>2022-12-28T14:22:02.750Z</time>
      </trkpt>
      <trkpt lat="44.38799" lon="-0.04824">
        <ele>191.968473</ele>
        <time>2022-12-28T14:22:04.745Z</time>
      </trkpt>
      <trkpt lat="44.38798" lon="-0.04811">
        <ele>192.01853</ele>
        <time>2022-12-28T14:22:06.747Z</time>
      </trkpt>
      <trkpt lat="44.38797" lon="-0.04798">
        <ele>192.070881</ele>
        <time>2022-12-28T14:22:08.817Z</time>
      </trkpt>
      <trkpt lat="44.38796" lon="-0.04779">
        <ele>192.1458</ele>
        <time>2022-12-28T14:22:11.746Z</time>
      </trkpt>
      <trkpt lat="44.38794" lon="-0.04761">
        <ele>192.216945</ele>
        <time>2022-12-28T14:22:14.800Z</time>
      </trkpt>
      <trkpt lat="44.38792" lon="-0.04743">
        <ele>192.287846</ele>
        <time>2022-12-28T14:22:17.752Z</time>
      </trkpt>
      <trkpt lat="44.38791" lon="-0.04726">
        <ele>192.356417</ele>
        <time>2022-12-28T14:22:20.819Z</time>
      </trkpt>
      <trkpt lat="44.38789" lon="-0.04711">
        <ele>192.415824</ele>
        <time>2022-12-28T14:22:23.747Z</time>
      </trkpt>
      <trkpt lat="44.38787" lon="-0.04695">
        <ele>192.477417</ele>
        <time>2022-12-28T14:22:26.805Z</time>
      </trkpt>
      <trkpt lat="44.38786" lon="-0.04679">
        <ele>192.539195</ele>
        <time>2022-12-28T14:22:29.747Z</time>
      </trkpt>
      <trkpt lat="44.38785" lon="-0.04663">
        <ele>192.604145</ele>
        <time>2022-12-28T14:22:32.810Z</time>
      </trkpt>
      <trkpt lat="44.38784" lon="-0.04646">
        <ele>192.689851</ele>
        <time>2022-12-28T14:22:35.748Z</time>
      </trkpt>
      <trkpt lat="44.38783" lon="-0.0463">
        <ele>192.779245</ele>
        <time>2022-12-28T14:22:38.762Z</time>
      </trkpt>
      <trkpt lat="44.38781" lon="-0.04614">
        <ele>192.865767</ele>
        <time>2022-12-28T14:22:41.747Z</time>
      </trkpt>
      <trkpt lat="44.3878" lon="-0.04598">
        <ele>192.953898</ele>
        <time>2022-12-28T14:22:44.796Z</time>
      </trkpt>
      <trkpt lat="44.38779" lon="-0.04582">
        <ele>193.039257</ele>
        <time>2022-12-28T14:22:47.747Z</time>
      </trkpt>
      <trkpt lat="44.38777" lon="-0.04566">
        <ele>193.127047</ele>
        <time>2022-12-28T14:22:50.797Z</time>
      </trkpt>
      <trkpt lat="44.38775" lon="-0.04549">
        <ele>193.217616</ele>
        <time>2022-12-28T14:22:53.735Z</time>
      </trkpt>
      <trkpt lat="44.38773" lon="-0.04533">
        <ele>193.309999</ele>
        <time>2022-12-28T14:22:56.748Z</time>
      </trkpt>
      <trkpt lat="44.38769" lon="-0.04515">
        <ele>193.408414</ele>
        <time>2022-12-28T14:22:59.748Z</time>
      </trkpt>
      <trkpt lat="44.38764" lon="-0.045">
        <ele>193.499557</ele>
        <time>2022-12-28T14:23:02.746Z</time>
      </trkpt>
      <trkpt lat="44.38759" lon="-0.04484">
        <ele>193.59366</ele>
        <time>2022-12-28T14:23:05.750Z</time>
      </trkpt>
      <trkpt lat="44.38754" lon="-0.04473">
        <ele>193.663545</ele>
        <time>2022-12-28T14:23:07.747Z</time>
      </trkpt>
      <trkpt lat="44.38748" lon="-0.04459">
        <ele>193.75399</ele>
        <time>2022-12-28T14:23:10.747Z</time>
      </trkpt>
      <trkpt lat="44.38741" lon="-0.04445">
        <ele>193.845422</ele>
        <time>2022-12-28T14:23:13.764Z</time>
      </trkpt>
      <trkpt lat="44.3873" lon="-0.04434">
        <ele>193.946987</ele>
        <time>2022-12-28T14:23:16.753Z</time>
      </trkpt>
      <trkpt lat="44.38721" lon="-0.0442">
        <ele>193.94852</ele>
        <time>2022-12-28T14:23:19.758Z</time>
      </trkpt>
      <trkpt lat="44.38715" lon="-0.04411">
        <ele>193.923266</ele>
        <time>2022-12-28T14:23:21.750Z</time>
      </trkpt>
      <trkpt lat="44.38708" lon="-0.04401">
        <ele>193.894934</ele>
        <time>2022-12-28T14:23:23.749Z</time>
      </trkpt>
      <trkpt lat="44.38699" lon="-0.04388">
        <ele>193.85893</ele>
        <time>2022-12-28T14:23:26.760Z</time>
      </trkpt>
      <trkpt lat="44.38691" lon="-0.04375">
        <ele>193.824634</ele>
        <time>2022-12-28T14:23:29.759Z</time>
      </trkpt>
      <trkpt lat="44.38684" lon="-0.04363">
        <ele>193.793271</ele>
        <time>2022-12-28T14:23:32.722Z</time>
      </trkpt>
      <trkpt lat="44.38675" lon="-0.04351">
        <ele>193.760454</ele>
        <time>2022-12-28T14:23:35.747Z</time>
      </trkpt>
      <trkpt lat="44.38664" lon="-0.04338">
        <ele>193.718779</ele>
        <time>2022-12-28T14:23:38.746Z</time>
      </trkpt>
      <trkpt lat="44.38657" lon="-0.04327">
        <ele>193.691108</ele>
        <time>2022-12-28T14:23:40.750Z</time>
      </trkpt>
      <trkpt lat="44.38649" lon="-0.04313">
        <ele>193.655027</ele>
        <time>2022-12-28T14:23:43.759Z</time>
      </trkpt>
      <trkpt lat="44.38641" lon="-0.04303">
        <ele>193.62418</ele>
        <time>2022-12-28T14:23:45.756Z</time>
      </trkpt>
      <trkpt lat="44.38634" lon="-0.04292">
        <ele>193.596325</ele>
        <time>2022-12-28T14:23:47.805Z</time>
      </trkpt>
      <trkpt lat="44.38627" lon="-0.04282">
        <ele>193.567952</ele>
        <time>2022-12-28T14:23:49.748Z</time>
      </trkpt>
      <trkpt lat="44.38618" lon="-0.04266">
        <ele>193.528454</ele>
        <time>2022-12-28T14:23:52.742Z</time>
      </trkpt>
      <trkpt lat="44.38613" lon="-0.04256">
        <ele>193.502682</ele>
        <time>2022-12-28T14:23:54.736Z</time>
      </trkpt>
      <trkpt lat="44.38607" lon="-0.04245">
        <ele>193.475445</ele>
        <time>2022-12-28T14:23:56.753Z</time>
      </trkpt>
      <trkpt lat="44.38601" lon="-0.04234">
        <ele>193.397379</ele>
        <time>2022-12-28T14:23:58.759Z</time>
      </trkpt>
      <trkpt lat="44.38596" lon="-0.04223">
        <ele>193.319975</ele>
        <time>2022-12-28T14:24:00.751Z</time>
      </trkpt>
      <trkpt lat="44.3859" lon="-0.04212">
        <ele>193.238351</ele>
        <time>2022-12-28T14:24:02.750Z</time>
      </trkpt>
      <trkpt lat="44.38583" lon="-0.04201">
        <ele>193.152411</ele>
        <time>2022-12-28T14:24:04.758Z</time>
      </trkpt>
      <trkpt lat="44.38577" lon="-0.0419">
        <ele>193.071302</ele>
        <time>2022-12-28T14:24:06.750Z</time>
      </trkpt>
      <trkpt lat="44.38572" lon="-0.04179">
        <ele>192.991638</ele>
        <time>2022-12-28T14:24:08.761Z</time>
      </trkpt>
      <trkpt lat="44.38565" lon="-0.04167">
        <ele>192.901454</ele>
        <time>2022-12-28T14:24:10.749Z</time>
      </trkpt>
      <trkpt lat="44.38559" lon="-0.04155">
        <ele>192.816023</ele>
        <time>2022-12-28T14:24:12.739Z</time>
      </trkpt>
      <trkpt lat="44.38553" lon="-0.04145">
        <ele>192.736723</ele>
        <time>2022-12-28T14:24:14.730Z</time>
      </trkpt>
      <trkpt lat="44.38547" lon="-0.04135">
        <ele>192.660852</ele>
        <time>2022-12-28T14:24:16.749Z</time>
      </trkpt>
      <trkpt lat="44.38541" lon="-0.04124">
        <ele>192.579726</ele>
        <time>2022-12-28T14:24:18.736Z</time>
      </trkpt>
      <trkpt lat="44.38536" lon="-0.04113">
        <ele>192.501005</ele>
        <time>2022-12-28T14:24:20.754Z</time>
      </trkpt>
      <trkpt lat="44.38527" lon="-0.04098">
        <ele>192.389636</ele>
        <time>2022-12-28T14:24:23.810Z</time>
      </trkpt>
      <trkpt lat="44.38522" lon="-0.04086">
        <ele>192.302744</ele>
        <time>2022-12-28T14:24:25.748Z</time>
      </trkpt>
      <trkpt lat="44.38515" lon="-0.04075">
        <ele>192.221545</ele>
        <time>2022-12-28T14:24:27.745Z</time>
      </trkpt>
      <trkpt lat="44.38509" lon="-0.04063">
        <ele>192.136101</ele>
        <time>2022-12-28T14:24:29.799Z</time>
      </trkpt>
      <trkpt lat="44.38503" lon="-0.04052">
        <ele>192.052589</ele>
        <time>2022-12-28T14:24:31.747Z</time>
      </trkpt>
      <trkpt lat="44.38497" lon="-0.04041">
        <ele>192.022856</ele>
        <time>2022-12-28T14:24:33.748Z</time>
      </trkpt>
      <trkpt lat="44.3849" lon="-0.0403">
        <ele>192.164594</ele>
        <time>2022-12-28T14:24:35.799Z</time>
      </trkpt>
      <trkpt lat="44.38485" lon="-0.04018">
        <ele>192.299946</ele>
        <time>2022-12-28T14:24:37.757Z</time>
      </trkpt>
      <trkpt lat="44.38477" lon="-0.04004">
        <ele>192.472791</ele>
        <time>2022-12-28T14:24:40.749Z</time>
      </trkpt>
      <trkpt lat="44.38469" lon="-0.0399">
        <ele>192.648684</ele>
        <time>2022-12-28T14:24:43.750Z</time>
      </trkpt>
      <trkpt lat="44.38463" lon="-0.03977">
        <ele>192.804626</ele>
        <time>2022-12-28T14:24:46.752Z</time>
      </trkpt>
      <trkpt lat="44.38456" lon="-0.03965">
        <ele>192.954943</ele>
        <time>2022-12-28T14:24:49.752Z</time>
      </trkpt>
      <trkpt lat="44.38449" lon="-0.03953">
        <ele>193.110107</ele>
        <time>2022-12-28T14:24:52.819Z</time>
      </trkpt>
      <trkpt lat="44.38443" lon="-0.0394">
        <ele>193.260371</ele>
        <time>2022-12-28T14:24:55.739Z</time>
      </trkpt>
      <trkpt lat="44.38436" lon="-0.03928">
        <ele>193.409197</ele>
        <time>2022-12-28T14:24:58.801Z</time>
      </trkpt>
      <trkpt lat="44.3843" lon="-0.03916">
        <ele>193.558689</ele>
        <time>2022-12-28T14:25:01.745Z</time>
      </trkpt>
      <trkpt lat="44.38423" lon="-0.03904">
        <ele>193.70684</ele>
        <time>2022-12-28T14:25:04.748Z</time>
      </trkpt>
      <trkpt lat="44.38416" lon="-0.03892">
        <ele>193.862736</ele>
        <time>2022-12-28T14:25:07.753Z</time>
      </trkpt>
      <trkpt lat="44.38409" lon="-0.03879">
        <ele>194.01635</ele>
        <time>2022-12-28T14:25:10.731Z</time>
      </trkpt>
      <trkpt lat="44.38403" lon="-0.03869">
        <ele>194.150048</ele>
        <time>2022-12-28T14:25:13.760Z</time>
      </trkpt>
      <trkpt lat="44.38397" lon="-0.03858">
        <ele>194.28434</ele>
        <time>2022-12-28T14:25:16.751Z</time>
      </trkpt>
      <trkpt lat="44.38391" lon="-0.03846">
        <ele>194.433808</ele>
        <time>2022-12-28T14:25:19.749Z</time>
      </trkpt>
      <trkpt lat="44.38384" lon="-0.03833">
        <ele>194.388874</ele>
        <time>2022-12-28T14:25:22.749Z</time>
      </trkpt>
      <trkpt lat="44.38377" lon="-0.0382">
        <ele>194.299892</ele>
        <time>2022-12-28T14:25:25.751Z</time>
      </trkpt>
      <trkpt lat="44.3837" lon="-0.03806">
        <ele>194.200486</ele>
        <time>2022-12-28T14:25:28.747Z</time>
      </trkpt>
      <trkpt lat="44.38362" lon="-0.03791">
        <ele>194.098814</ele>
        <time>2022-12-28T14:25:31.748Z</time>
      </trkpt>
      <trkpt lat="44.38354" lon="-0.03777">
        <ele>193.998812</ele>
        <time>2022-12-28T14:25:34.761Z</time>
      </trkpt>
      <trkpt lat="44.38346" lon="-0.03763">
        <ele>193.89613</ele>
        <time>2022-12-28T14:25:37.761Z</time>
      </trkpt>
      <trkpt lat="44.38338" lon="-0.03748">
        <ele>193.794468</ele>
        <time>2022-12-28T14:25:40.759Z</time>
      </trkpt>
      <trkpt lat="44.38332" lon="-0.03738">
        <ele>193.721808</ele>
        <time>2022-12-28T14:25:42.758Z</time>
      </trkpt>
      <trkpt lat="44.38325" lon="-0.03724">
        <ele>193.619196</ele>
        <time>2022-12-28T14:25:45.795Z</time>
      </trkpt>
      <trkpt lat="44.38319" lon="-0.03714">
        <ele>193.547568</ele>
        <time>2022-12-28T14:25:47.762Z</time>
      </trkpt>
      <trkpt lat="44.38313" lon="-0.03703">
        <ele>193.475971</ele>
        <time>2022-12-28T14:25:49.748Z</time>
      </trkpt>
      <trkpt lat="44.38308" lon="-0.03692">
        <ele>193.401635</ele>
        <time>2022-12-28T14:25:51.801Z</time>
      </trkpt>
      <trkpt lat="44.38302" lon="-0.03682">
        <ele>193.322011</ele>
        <time>2022-12-28T14:25:53.747Z</time>
      </trkpt>
      <trkpt lat="44.38296" lon="-0.0367">
        <ele>193.244963</ele>
        <time>2022-12-28T14:25:55.751Z</time>
      </trkpt>
      <trkpt lat="44.3829" lon="-0.03659">
        <ele>193.166094</ele>
        <time>2022-12-28T14:25:57.801Z</time>
      </trkpt>
      <trkpt lat="44.38284" lon="-0.03647">
        <ele>193.08358</ele>
        <time>2022-12-28T14:25:59.748Z</time>
      </trkpt>
      <trkpt lat="44.38277" lon="-0.03636">
        <ele>193.02923</ele>
        <time>2022-12-28T14:26:01.750Z</time>
      </trkpt>
      <trkpt lat="44.38271" lon="-0.03624">
        <ele>192.993294</ele>
        <time>2022-12-28T14:26:03.810Z</time>
      </trkpt>
      <trkpt lat="44.38266" lon="-0.03613">
        <ele>192.959636</ele>
        <time>2022-12-28T14:26:05.750Z</time>
      </trkpt>
      <trkpt lat="44.3826" lon="-0.03603">
        <ele>192.925987</ele>
        <time>2022-12-28T14:26:07.748Z</time>
      </trkpt>
      <trkpt lat="44.38254" lon="-0.03592">
        <ele>192.890435</ele>
        <time>2022-12-28T14:26:09.769Z</time>
      </trkpt>
      <trkpt lat="44.38248" lon="-0.03581">
        <ele>192.854884</ele>
        <time>2022-12-28T14:26:11.761Z</time>
      </trkpt>
      <trkpt lat="44.38242" lon="-0.0357">
        <ele>192.818753</ele>
        <time>2022-12-28T14:26:13.759Z</time>
      </trkpt>
      <trkpt lat="44.38236" lon="-0.03559">
        <ele>192.782599</ele>
        <time>2022-12-28T14:26:15.817Z</time>
      </trkpt>
      <trkpt lat="44.3823" lon="-0.03548">
        <ele>192.748291</ele>
        <time>2022-12-28T14:26:17.759Z</time>
      </trkpt>
      <trkpt lat="44.38224" lon="-0.03537">
        <ele>192.711312</ele>
        <time>2022-12-28T14:26:19.759Z</time>
      </trkpt>
      <trkpt lat="44.38217" lon="-0.03525">
        <ele>192.67536</ele>
        <time>2022-12-28T14:26:21.822Z</time>
      </trkpt>
      <trkpt lat="44.38211" lon="-0.03514">
        <ele>192.637961</ele>
        <time>2022-12-28T14:26:23.761Z</time>
      </trkpt>
      <trkpt lat="44.38205" lon="-0.03502">
        <ele>192.601831</ele>
        <time>2022-12-28T14:26:25.746Z</time>
      </trkpt>
      <trkpt lat="44.38198" lon="-0.03491">
        <ele>192.56381</ele>
        <time>2022-12-28T14:26:27.796Z</time>
      </trkpt>
      <trkpt lat="44.38192" lon="-0.03479">
        <ele>192.527466</ele>
        <time>2022-12-28T14:26:29.740Z</time>
      </trkpt>
      <trkpt lat="44.38186" lon="-0.03468">
        <ele>192.491122</ele>
        <time>2022-12-28T14:26:31.753Z</time>
      </trkpt>
      <trkpt lat="44.3818" lon="-0.03456">
        <ele>192.454786</ele>
        <time>2022-12-28T14:26:33.806Z</time>
      </trkpt>
      <trkpt lat="44.38174" lon="-0.03445">
        <ele>192.418612</ele>
        <time>2022-12-28T14:26:35.751Z</time>
      </trkpt>
      <trkpt lat="44.38167" lon="-0.03433">
        <ele>192.427758</ele>
        <time>2022-12-28T14:26:37.761Z</time>
      </trkpt>
      <trkpt lat="44.38161" lon="-0.03422">
        <ele>192.453326</ele>
        <time>2022-12-28T14:26:39.749Z</time>
      </trkpt>
      <trkpt lat="44.38155" lon="-0.0341">
        <ele>192.477219</ele>
        <time>2022-12-28T14:26:41.746Z</time>
      </trkpt>
      <trkpt lat="44.38148" lon="-0.03398">
        <ele>192.501956</ele>
        <time>2022-12-28T14:26:43.739Z</time>
      </trkpt>
      <trkpt lat="44.38142" lon="-0.03386">
        <ele>192.527078</ele>
        <time>2022-12-28T14:26:45.730Z</time>
      </trkpt>
      <trkpt lat="44.38135" lon="-0.03374">
        <ele>192.552647</ele>
        <time>2022-12-28T14:26:47.740Z</time>
      </trkpt>
      <trkpt lat="44.38129" lon="-0.03363">
        <ele>192.575861</ele>
        <time>2022-12-28T14:26:49.726Z</time>
      </trkpt>
      <trkpt lat="44.38123" lon="-0.03352">
        <ele>192.599755</ele>
        <time>2022-12-28T14:26:51.742Z</time>
      </trkpt>
      <trkpt lat="44.38117" lon="-0.0334">
        <ele>192.624063</ele>
        <time>2022-12-28T14:26:53.726Z</time>
      </trkpt>
      <trkpt lat="44.38111" lon="-0.03328">
        <ele>192.648639</ele>
        <time>2022-12-28T14:26:55.730Z</time>
      </trkpt>
      <trkpt lat="44.38105" lon="-0.03317">
        <ele>192.672813</ele>
        <time>2022-12-28T14:26:57.725Z</time>
      </trkpt>
      <trkpt lat="44.38098" lon="-0.03305">
        <ele>192.697453</ele>
        <time>2022-12-28T14:26:59.727Z</time>
      </trkpt>
      <trkpt lat="44.38092" lon="-0.03293">
        <ele>192.721621</ele>
        <time>2022-12-28T14:27:01.727Z</time>
      </trkpt>
      <trkpt lat="44.38086" lon="-0.03282">
        <ele>192.746241</ele>
        <time>2022-12-28T14:27:03.742Z</time>
      </trkpt>
      <trkpt lat="44.3808" lon="-0.03271">
        <ele>192.769179</ele>
        <time>2022-12-28T14:27:05.739Z</time>
      </trkpt>
      <trkpt lat="44.38074" lon="-0.0326">
        <ele>192.791575</ele>
        <time>2022-12-28T14:27:07.775Z</time>
      </trkpt>
      <trkpt lat="44.38069" lon="-0.0325">
        <ele>192.81342</ele>
        <time>2022-12-28T14:27:09.731Z</time>
      </trkpt>
      <trkpt lat="44.38062" lon="-0.03238">
        <ele>192.837737</ele>
        <time>2022-12-28T14:27:11.730Z</time>
      </trkpt>
      <trkpt lat="44.38056" lon="-0.03228">
        <ele>192.861322</ele>
        <time>2022-12-28T14:27:13.804Z</time>
      </trkpt>
      <trkpt lat="44.38048" lon="-0.03213">
        <ele>192.891983</ele>
        <time>2022-12-28T14:27:16.746Z</time>
      </trkpt>
      <trkpt lat="44.38043" lon="-0.03201">
        <ele>192.914628</ele>
        <time>2022-12-28T14:27:18.747Z</time>
      </trkpt>
      <trkpt lat="44.38037" lon="-0.03191">
        <ele>192.936667</ele>
        <time>2022-12-28T14:27:20.730Z</time>
      </trkpt>
      <trkpt lat="44.38031" lon="-0.03181">
        <ele>192.95948</ele>
        <time>2022-12-28T14:27:22.743Z</time>
      </trkpt>
      <trkpt lat="44.38024" lon="-0.0317">
        <ele>192.982735</ele>
        <time>2022-12-28T14:27:24.751Z</time>
      </trkpt>
      <trkpt lat="44.38016" lon="-0.03154">
        <ele>193.014872</ele>
        <time>2022-12-28T14:27:27.748Z</time>
      </trkpt>
      <trkpt lat="44.3801" lon="-0.03143">
        <ele>193.038352</ele>
        <time>2022-12-28T14:27:29.728Z</time>
      </trkpt>
      <trkpt lat="44.38004" lon="-0.03133">
        <ele>193.060602</ele>
        <time>2022-12-28T14:27:31.800Z</time>
      </trkpt>
      <trkpt lat="44.37998" lon="-0.03121">
        <ele>193.084214</ele>
        <time>2022-12-28T14:27:33.734Z</time>
      </trkpt>
      <trkpt lat="44.37992" lon="-0.0311">
        <ele>193.10835</ele>
        <time>2022-12-28T14:27:35.750Z</time>
      </trkpt>
      <trkpt lat="44.37986" lon="-0.03099">
        <ele>193.131149</ele>
        <time>2022-12-28T14:27:37.813Z</time>
      </trkpt>
      <trkpt lat="44.3798" lon="-0.03088">
        <ele>193.153659</ele>
        <time>2022-12-28T14:27:39.760Z</time>
      </trkpt>
      <trkpt lat="44.37974" lon="-0.03077">
        <ele>193.176341</ele>
        <time>2022-12-28T14:27:41.747Z</time>
      </trkpt>
      <trkpt lat="44.37969" lon="-0.03066">
        <ele>193.198987</ele>
        <time>2022-12-28T14:27:43.818Z</time>
      </trkpt>
      <trkpt lat="44.37963" lon="-0.03055">
        <ele>193.222039</ele>
        <time>2022-12-28T14:27:45.754Z</time>
      </trkpt>
      <trkpt lat="44.37957" lon="-0.03044">
        <ele>193.245145</ele>
        <time>2022-12-28T14:27:47.741Z</time>
      </trkpt>
      <trkpt lat="44.37951" lon="-0.03033">
        <ele>193.14944</ele>
        <time>2022-12-28T14:27:49.807Z</time>
      </trkpt>
      <trkpt lat="44.37945" lon="-0.03022">
        <ele>193.007088</ele>
        <time>2022-12-28T14:27:51.748Z</time>
      </trkpt>
      <trkpt lat="44.3794" lon="-0.03012">
        <ele>192.873911</ele>
        <time>2022-12-28T14:27:53.760Z</time>
      </trkpt>
      <trkpt lat="44.37934" lon="-0.03001">
        <ele>192.739946</ele>
        <time>2022-12-28T14:27:55.794Z</time>
      </trkpt>
      <trkpt lat="44.37929" lon="-0.0299">
        <ele>192.604309</ele>
        <time>2022-12-28T14:27:57.745Z</time>
      </trkpt>
      <trkpt lat="44.37924" lon="-0.0298">
        <ele>192.473612</ele>
        <time>2022-12-28T14:27:59.746Z</time>
      </trkpt>
      <trkpt lat="44.37916" lon="-0.02966">
        <ele>192.286427</ele>
        <time>2022-12-28T14:28:02.726Z</time>
      </trkpt>
      <trkpt lat="44.37908" lon="-0.02952">
        <ele>192.102127</ele>
        <time>2022-12-28T14:28:05.748Z</time>
      </trkpt>
      <trkpt lat="44.37902" lon="-0.02941">
        <ele>191.967993</ele>
        <time>2022-12-28T14:28:07.736Z</time>
      </trkpt>
      <trkpt lat="44.37896" lon="-0.02931">
        <ele>191.832047</ele>
        <time>2022-12-28T14:28:09.734Z</time>
      </trkpt>
      <trkpt lat="44.37891" lon="-0.0292">
        <ele>191.697979</ele>
        <time>2022-12-28T14:28:11.747Z</time>
      </trkpt>
      <trkpt lat="44.37885" lon="-0.0291">
        <ele>191.566118</ele>
        <time>2022-12-28T14:28:13.758Z</time>
      </trkpt>
      <trkpt lat="44.37879" lon="-0.02899">
        <ele>191.421954</ele>
        <time>2022-12-28T14:28:15.736Z</time>
      </trkpt>
      <trkpt lat="44.37872" lon="-0.02888">
        <ele>191.273583</ele>
        <time>2022-12-28T14:28:17.736Z</time>
      </trkpt>
      <trkpt lat="44.37866" lon="-0.02878">
        <ele>191.134434</ele>
        <time>2022-12-28T14:28:19.748Z</time>
      </trkpt>
      <trkpt lat="44.3786" lon="-0.02866">
        <ele>190.986952</ele>
        <time>2022-12-28T14:28:21.760Z</time>
      </trkpt>
      <trkpt lat="44.37854" lon="-0.02855">
        <ele>190.841274</ele>
        <time>2022-12-28T14:28:23.751Z</time>
      </trkpt>
      <trkpt lat="44.37848" lon="-0.02843">
        <ele>190.69047</ele>
        <time>2022-12-28T14:28:25.748Z</time>
      </trkpt>
      <trkpt lat="44.37841" lon="-0.02831">
        <ele>190.532451</ele>
        <time>2022-12-28T14:28:27.748Z</time>
      </trkpt>
      <trkpt lat="44.37835" lon="-0.0282">
        <ele>190.374885</ele>
        <time>2022-12-28T14:28:29.751Z</time>
      </trkpt>
      <trkpt lat="44.37828" lon="-0.02807">
        <ele>190.209541</ele>
        <time>2022-12-28T14:28:31.747Z</time>
      </trkpt>
      <trkpt lat="44.37822" lon="-0.02795">
        <ele>190.038081</ele>
        <time>2022-12-28T14:28:33.742Z</time>
      </trkpt>
      <trkpt lat="44.37815" lon="-0.02782">
        <ele>189.871642</ele>
        <time>2022-12-28T14:28:35.754Z</time>
      </trkpt>
      <trkpt lat="44.37808" lon="-0.0277">
        <ele>189.700967</ele>
        <time>2022-12-28T14:28:37.761Z</time>
      </trkpt>
      <trkpt lat="44.37801" lon="-0.02757">
        <ele>189.531066</ele>
        <time>2022-12-28T14:28:39.747Z</time>
      </trkpt>
      <trkpt lat="44.37794" lon="-0.02745">
        <ele>189.364713</ele>
        <time>2022-12-28T14:28:41.748Z</time>
      </trkpt>
      <trkpt lat="44.37788" lon="-0.02733">
        <ele>189.205482</ele>
        <time>2022-12-28T14:28:43.747Z</time>
      </trkpt>
      <trkpt lat="44.37781" lon="-0.02721">
        <ele>189.037513</ele>
        <time>2022-12-28T14:28:45.749Z</time>
      </trkpt>
      <trkpt lat="44.37775" lon="-0.02709">
        <ele>188.875554</ele>
        <time>2022-12-28T14:28:47.746Z</time>
      </trkpt>
      <trkpt lat="44.37768" lon="-0.02697">
        <ele>188.711938</ele>
        <time>2022-12-28T14:28:49.758Z</time>
      </trkpt>
      <trkpt lat="44.37762" lon="-0.02684">
        <ele>188.543101</ele>
        <time>2022-12-28T14:28:51.761Z</time>
      </trkpt>
      <trkpt lat="44.37755" lon="-0.02672">
        <ele>188.380392</ele>
        <time>2022-12-28T14:28:53.764Z</time>
      </trkpt>
      <trkpt lat="44.37749" lon="-0.02659">
        <ele>188.211529</ele>
        <time>2022-12-28T14:28:55.748Z</time>
      </trkpt>
      <trkpt lat="44.37742" lon="-0.02646">
        <ele>188.043563</ele>
        <time>2022-12-28T14:28:57.763Z</time>
      </trkpt>
      <trkpt lat="44.37735" lon="-0.02634">
        <ele>187.985819</ele>
        <time>2022-12-28T14:28:59.760Z</time>
      </trkpt>
      <trkpt lat="44.37729" lon="-0.02622">
        <ele>188.04401</ele>
        <time>2022-12-28T14:29:01.751Z</time>
      </trkpt>
      <trkpt lat="44.37722" lon="-0.02609">
        <ele>188.104108</ele>
        <time>2022-12-28T14:29:03.761Z</time>
      </trkpt>
      <trkpt lat="44.37715" lon="-0.02597">
        <ele>188.164803</ele>
        <time>2022-12-28T14:29:05.752Z</time>
      </trkpt>
      <trkpt lat="44.37709" lon="-0.02584">
        <ele>188.221754</ele>
        <time>2022-12-28T14:29:07.746Z</time>
      </trkpt>
      <trkpt lat="44.37703" lon="-0.02572">
        <ele>188.280301</ele>
        <time>2022-12-28T14:29:09.747Z</time>
      </trkpt>
      <trkpt lat="44.37697" lon="-0.02562">
        <ele>188.332499</ele>
        <time>2022-12-28T14:29:11.768Z</time>
      </trkpt>
      <trkpt lat="44.3769" lon="-0.0255">
        <ele>188.388946</ele>
        <time>2022-12-28T14:29:13.750Z</time>
      </trkpt>
      <trkpt lat="44.37685" lon="-0.0254">
        <ele>188.439579</ele>
        <time>2022-12-28T14:29:15.750Z</time>
      </trkpt>
      <trkpt lat="44.37677" lon="-0.02526">
        <ele>188.508489</ele>
        <time>2022-12-28T14:29:18.759Z</time>
      </trkpt>
      <trkpt lat="44.37669" lon="-0.02511">
        <ele>188.577684</ele>
        <time>2022-12-28T14:29:21.751Z</time>
      </trkpt>
      <trkpt lat="44.37661" lon="-0.02496">
        <ele>188.649696</ele>
        <time>2022-12-28T14:29:24.749Z</time>
      </trkpt>
      <trkpt lat="44.37653" lon="-0.02482">
        <ele>188.720518</ele>
        <time>2022-12-28T14:29:27.741Z</time>
      </trkpt>
      <trkpt lat="44.37645" lon="-0.02467">
        <ele>188.791949</ele>
        <time>2022-12-28T14:29:30.748Z</time>
      </trkpt>
      <trkpt lat="44.37637" lon="-0.02453">
        <ele>188.863685</ele>
        <time>2022-12-28T14:29:33.748Z</time>
      </trkpt>
      <trkpt lat="44.37629" lon="-0.02438">
        <ele>188.946479</ele>
        <time>2022-12-28T14:29:36.753Z</time>
      </trkpt>
      <trkpt lat="44.37624" lon="-0.02428">
        <ele>189.126979</ele>
        <time>2022-12-28T14:29:38.745Z</time>
      </trkpt>
      <trkpt lat="44.37617" lon="-0.02413">
        <ele>189.38673</ele>
        <time>2022-12-28T14:29:41.746Z</time>
      </trkpt>
      <trkpt lat="44.37611" lon="-0.02403">
        <ele>189.579035</ele>
        <time>2022-12-28T14:29:43.741Z</time>
      </trkpt>
      <trkpt lat="44.37603" lon="-0.02388">
        <ele>189.842199</ele>
        <time>2022-12-28T14:29:46.733Z</time>
      </trkpt>
      <trkpt lat="44.37595" lon="-0.02374">
        <ele>190.087847</ele>
        <time>2022-12-28T14:29:49.758Z</time>
      </trkpt>
      <trkpt lat="44.37588" lon="-0.02361">
        <ele>190.33244</ele>
        <time>2022-12-28T14:29:52.751Z</time>
      </trkpt>
      <trkpt lat="44.3758" lon="-0.02347">
        <ele>190.582996</ele>
        <time>2022-12-28T14:29:55.746Z</time>
      </trkpt>
      <trkpt lat="44.37573" lon="-0.02334">
        <ele>190.816004</ele>
        <time>2022-12-28T14:29:58.748Z</time>
      </trkpt>
      <trkpt lat="44.37566" lon="-0.02321">
        <ele>191.051097</ele>
        <time>2022-12-28T14:30:01.750Z</time>
      </trkpt>
      <trkpt lat="44.37559" lon="-0.02308">
        <ele>191.282731</ele>
        <time>2022-12-28T14:30:04.754Z</time>
      </trkpt>
      <trkpt lat="44.37552" lon="-0.02295">
        <ele>191.521482</ele>
        <time>2022-12-28T14:30:07.800Z</time>
      </trkpt>
      <trkpt lat="44.37545" lon="-0.02282">
        <ele>191.757877</ele>
        <time>2022-12-28T14:30:10.750Z</time>
      </trkpt>
      <trkpt lat="44.37537" lon="-0.02268">
        <ele>192.003604</ele>
        <time>2022-12-28T14:30:13.815Z</time>
      </trkpt>
      <trkpt lat="44.37531" lon="-0.02255">
        <ele>192.229416</ele>
        <time>2022-12-28T14:30:16.759Z</time>
      </trkpt>
      <trkpt lat="44.37524" lon="-0.02242">
        <ele>192.457522</ele>
        <time>2022-12-28T14:30:19.800Z</time>
      </trkpt>
      <trkpt lat="44.37518" lon="-0.0223">
        <ele>192.577508</ele>
        <time>2022-12-28T14:30:22.759Z</time>
      </trkpt>
      <trkpt lat="44.3751" lon="-0.02217">
        <ele>192.654164</ele>
        <time>2022-12-28T14:30:25.799Z</time>
      </trkpt>
      <trkpt lat="44.37504" lon="-0.02204">
        <ele>192.732677</ele>
        <time>2022-12-28T14:30:28.746Z</time>
      </trkpt>
      <trkpt lat="44.37496" lon="-0.02191">
        <ele>192.813597</ele>
        <time>2022-12-28T14:30:31.790Z</time>
      </trkpt>
      <trkpt lat="44.3749" lon="-0.02177">
        <ele>192.889921</ele>
        <time>2022-12-28T14:30:34.738Z</time>
      </trkpt>
      <trkpt lat="44.37484" lon="-0.02162">
        <ele>192.973112</ele>
        <time>2022-12-28T14:30:37.810Z</time>
      </trkpt>
      <trkpt lat="44.37476" lon="-0.02148">
        <ele>193.062038</ele>
        <time>2022-12-28T14:30:40.757Z</time>
      </trkpt>
      <trkpt lat="44.37467" lon="-0.02137">
        <ele>193.139495</ele>
        <time>2022-12-28T14:30:43.798Z</time>
      </trkpt>
      <trkpt lat="44.37459" lon="-0.02123">
        <ele>193.226158</ele>
        <time>2022-12-28T14:30:46.759Z</time>
      </trkpt>
      <trkpt lat="44.37451" lon="-0.0211">
        <ele>193.310296</ele>
        <time>2022-12-28T14:30:49.800Z</time>
      </trkpt>
      <trkpt lat="44.37443" lon="-0.02096">
        <ele>193.392844</ele>
        <time>2022-12-28T14:30:52.759Z</time>
      </trkpt>
      <trkpt lat="44.37435" lon="-0.02082">
        <ele>193.478447</ele>
        <time>2022-12-28T14:30:55.802Z</time>
      </trkpt>
      <trkpt lat="44.37428" lon="-0.02069">
        <ele>193.558197</ele>
        <time>2022-12-28T14:30:58.738Z</time>
      </trkpt>
      <trkpt lat="44.3742" lon="-0.02056">
        <ele>193.640326</ele>
        <time>2022-12-28T14:31:01.808Z</time>
      </trkpt>
      <trkpt lat="44.37415" lon="-0.02045">
        <ele>193.703629</ele>
        <time>2022-12-28T14:31:03.752Z</time>
      </trkpt>
      <trkpt lat="44.37407" lon="-0.02032">
        <ele>193.808957</ele>
        <time>2022-12-28T14:31:06.763Z</time>
      </trkpt>
      <trkpt lat="44.374" lon="-0.02018">
        <ele>193.93877</ele>
        <time>2022-12-28T14:31:09.750Z</time>
      </trkpt>
      <trkpt lat="44.37392" lon="-0.02004">
        <ele>194.06943</ele>
        <time>2022-12-28T14:31:12.745Z</time>
      </trkpt>
      <trkpt lat="44.37384" lon="-0.01992">
        <ele>194.187164</ele>
        <time>2022-12-28T14:31:15.749Z</time>
      </trkpt>
      <trkpt lat="44.37378" lon="-0.01982">
        <ele>194.286303</ele>
        <time>2022-12-28T14:31:17.752Z</time>
      </trkpt>
      <trkpt lat="44.37369" lon="-0.01969">
        <ele>194.422149</ele>
        <time>2022-12-28T14:31:20.735Z</time>
      </trkpt>
      <trkpt lat="44.37362" lon="-0.0196">
        <ele>194.517322</ele>
        <time>2022-12-28T14:31:22.759Z</time>
      </trkpt>
      <trkpt lat="44.37353" lon="-0.01947">
        <ele>194.652646</ele>
        <time>2022-12-28T14:31:25.752Z</time>
      </trkpt>
      <trkpt lat="44.37347" lon="-0.01937">
        <ele>194.749777</ele>
        <time>2022-12-28T14:31:27.739Z</time>
      </trkpt>
      <trkpt lat="44.3734" lon="-0.01928">
        <ele>194.843544</ele>
        <time>2022-12-28T14:31:29.749Z</time>
      </trkpt>
      <trkpt lat="44.37331" lon="-0.01915">
        <ele>194.980122</ele>
        <time>2022-12-28T14:31:32.761Z</time>
      </trkpt>
      <trkpt lat="44.37324" lon="-0.01907">
        <ele>195.076104</ele>
        <time>2022-12-28T14:31:34.748Z</time>
      </trkpt>
      <trkpt lat="44.37317" lon="-0.01898">
        <ele>195.17441</ele>
        <time>2022-12-28T14:31:36.735Z</time>
      </trkpt>
      <trkpt lat="44.3731" lon="-0.01888">
        <ele>195.271369</ele>
        <time>2022-12-28T14:31:38.746Z</time>
      </trkpt>
      <trkpt lat="44.37304" lon="-0.0188">
        <ele>195.365825</ele>
        <time>2022-12-28T14:31:40.801Z</time>
      </trkpt>
      <trkpt lat="44.37296" lon="-0.01871">
        <ele>195.466182</ele>
        <time>2022-12-28T14:31:42.749Z</time>
      </trkpt>
      <trkpt lat="44.37289" lon="-0.01861">
        <ele>195.568211</ele>
        <time>2022-12-28T14:31:44.747Z</time>
      </trkpt>
      <trkpt lat="44.37282" lon="-0.01851">
        <ele>195.517174</ele>
        <time>2022-12-28T14:31:46.812Z</time>
      </trkpt>
      <trkpt lat="44.37275" lon="-0.01842">
        <ele>195.415284</ele>
        <time>2022-12-28T14:31:48.760Z</time>
      </trkpt>
      <trkpt lat="44.37267" lon="-0.01832">
        <ele>195.306579</ele>
        <time>2022-12-28T14:31:50.750Z</time>
      </trkpt>
      <trkpt lat="44.3726" lon="-0.01823">
        <ele>195.204406</ele>
        <time>2022-12-28T14:31:52.761Z</time>
      </trkpt>
      <trkpt lat="44.37252" lon="-0.01813">
        <ele>195.098987</ele>
        <time>2022-12-28T14:31:54.762Z</time>
      </trkpt>
      <trkpt lat="44.37245" lon="-0.01804">
        <ele>194.993663</ele>
        <time>2022-12-28T14:31:56.764Z</time>
      </trkpt>
      <trkpt lat="44.37238" lon="-0.01795">
        <ele>194.892526</ele>
        <time>2022-12-28T14:31:58.746Z</time>
      </trkpt>
      <trkpt lat="44.37231" lon="-0.01785">
        <ele>194.790559</ele>
        <time>2022-12-28T14:32:00.733Z</time>
      </trkpt>
      <trkpt lat="44.37223" lon="-0.01776">
        <ele>194.689654</ele>
        <time>2022-12-28T14:32:02.745Z</time>
      </trkpt>
      <trkpt lat="44.37216" lon="-0.01768">
        <ele>194.592746</ele>
        <time>2022-12-28T14:32:04.761Z</time>
      </trkpt>
      <trkpt lat="44.37209" lon="-0.01758">
        <ele>194.493087</ele>
        <time>2022-12-28T14:32:06.745Z</time>
      </trkpt>
      <trkpt lat="44.37202" lon="-0.01749">
        <ele>194.391714</ele>
        <time>2022-12-28T14:32:08.749Z</time>
      </trkpt>
      <trkpt lat="44.37192" lon="-0.01736">
        <ele>194.249335</ele>
        <time>2022-12-28T14:32:11.753Z</time>
      </trkpt>
      <trkpt lat="44.37185" lon="-0.01727">
        <ele>194.15504</ele>
        <time>2022-12-28T14:32:13.761Z</time>
      </trkpt>
      <trkpt lat="44.37178" lon="-0.01719">
        <ele>194.055109</ele>
        <time>2022-12-28T14:32:15.803Z</time>
      </trkpt>
      <trkpt lat="44.37171" lon="-0.01709">
        <ele>193.953225</ele>
        <time>2022-12-28T14:32:17.754Z</time>
      </trkpt>
      <trkpt lat="44.37164" lon="-0.017">
        <ele>193.854088</ele>
        <time>2022-12-28T14:32:19.749Z</time>
      </trkpt>
      <trkpt lat="44.37157" lon="-0.0169">
        <ele>193.752965</ele>
        <time>2022-12-28T14:32:21.820Z</time>
      </trkpt>
      <trkpt lat="44.3715" lon="-0.01681">
        <ele>193.591951</ele>
        <time>2022-12-28T14:32:23.751Z</time>
      </trkpt>
      <trkpt lat="44.37143" lon="-0.01671">
        <ele>193.409844</ele>
        <time>2022-12-28T14:32:25.763Z</time>
      </trkpt>
      <trkpt lat="44.37135" lon="-0.01661">
        <ele>193.218088</ele>
        <time>2022-12-28T14:32:27.824Z</time>
      </trkpt>
      <trkpt lat="44.37127" lon="-0.01651">
        <ele>193.028041</ele>
        <time>2022-12-28T14:32:29.750Z</time>
      </trkpt>
      <trkpt lat="44.37119" lon="-0.01641">
        <ele>192.834939</ele>
        <time>2022-12-28T14:32:31.747Z</time>
      </trkpt>
      <trkpt lat="44.3711" lon="-0.01631">
        <ele>192.637499</ele>
        <time>2022-12-28T14:32:33.805Z</time>
      </trkpt>
      <trkpt lat="44.37102" lon="-0.0162">
        <ele>192.432593</ele>
        <time>2022-12-28T14:32:35.747Z</time>
      </trkpt>
      <trkpt lat="44.37094" lon="-0.01609">
        <ele>192.221981</ele>
        <time>2022-12-28T14:32:37.758Z</time>
      </trkpt>
      <trkpt lat="44.37085" lon="-0.01598">
        <ele>192.00651</ele>
        <time>2022-12-28T14:32:39.812Z</time>
      </trkpt>
      <trkpt lat="44.37076" lon="-0.01587">
        <ele>191.797217</ele>
        <time>2022-12-28T14:32:41.754Z</time>
      </trkpt>
      <trkpt lat="44.37068" lon="-0.01576">
        <ele>191.589236</ele>
        <time>2022-12-28T14:32:43.748Z</time>
      </trkpt>
      <trkpt lat="44.37059" lon="-0.01565">
        <ele>191.385618</ele>
        <time>2022-12-28T14:32:45.751Z</time>
      </trkpt>
      <trkpt lat="44.37051" lon="-0.01554">
        <ele>191.178072</ele>
        <time>2022-12-28T14:32:47.752Z</time>
      </trkpt>
      <trkpt lat="44.37042" lon="-0.01544">
        <ele>190.972928</ele>
        <time>2022-12-28T14:32:49.762Z</time>
      </trkpt>
      <trkpt lat="44.37033" lon="-0.01534">
        <ele>190.7642</ele>
        <time>2022-12-28T14:32:51.759Z</time>
      </trkpt>
      <trkpt lat="44.37025" lon="-0.01523">
        <ele>190.557977</ele>
        <time>2022-12-28T14:32:53.762Z</time>
      </trkpt>
      <trkpt lat="44.37016" lon="-0.01512">
        <ele>190.41378</ele>
        <time>2022-12-28T14:32:55.753Z</time>
      </trkpt>
      <trkpt lat="44.37007" lon="-0.01502">
        <ele>190.292598</ele>
        <time>2022-12-28T14:32:57.750Z</time>
      </trkpt>
      <trkpt lat="44.36999" lon="-0.01491">
        <ele>190.176336</ele>
        <time>2022-12-28T14:32:59.755Z</time>
      </trkpt>
      <trkpt lat="44.36991" lon="-0.0148">
        <ele>190.057341</ele>
        <time>2022-12-28T14:33:01.750Z</time>
      </trkpt>
      <trkpt lat="44.36982" lon="-0.01469">
        <ele>189.941584</ele>
        <time>2022-12-28T14:33:03.761Z</time>
      </trkpt>
      <trkpt lat="44.36974" lon="-0.01458">
        <ele>189.826566</ele>
        <time>2022-12-28T14:33:05.753Z</time>
      </trkpt>
      <trkpt lat="44.36966" lon="-0.01447">
        <ele>189.711811</ele>
        <time>2022-12-28T14:33:07.749Z</time>
      </trkpt>
      <trkpt lat="44.36959" lon="-0.01437">
        <ele>189.605374</ele>
        <time>2022-12-28T14:33:09.750Z</time>
      </trkpt>
      <trkpt lat="44.36951" lon="-0.01426">
        <ele>189.49058</ele>
        <time>2022-12-28T14:33:11.759Z</time>
      </trkpt>
      <trkpt lat="44.36942" lon="-0.01414">
        <ele>189.369586</ele>
        <time>2022-12-28T14:33:13.760Z</time>
      </trkpt>
      <trkpt lat="44.36934" lon="-0.01403">
        <ele>189.252336</ele>
        <time>2022-12-28T14:33:15.755Z</time>
      </trkpt>
      <trkpt lat="44.36926" lon="-0.01393">
        <ele>189.140574</ele>
        <time>2022-12-28T14:33:17.748Z</time>
      </trkpt>
      <trkpt lat="44.36915" lon="-0.01382">
        <ele>189.006261</ele>
        <time>2022-12-28T14:33:19.749Z</time>
      </trkpt>
      <trkpt lat="44.36907" lon="-0.01372">
        <ele>188.894454</ele>
        <time>2022-12-28T14:33:21.747Z</time>
      </trkpt>
      <trkpt lat="44.36899" lon="-0.01361">
        <ele>188.779443</ele>
        <time>2022-12-28T14:33:23.747Z</time>
      </trkpt>
      <trkpt lat="44.36891" lon="-0.01351">
        <ele>188.6659</ele>
        <time>2022-12-28T14:33:25.748Z</time>
      </trkpt>
      <trkpt lat="44.36883" lon="-0.01341">
        <ele>188.674007</ele>
        <time>2022-12-28T14:33:27.756Z</time>
      </trkpt>
      <trkpt lat="44.36874" lon="-0.01331">
        <ele>188.700691</ele>
        <time>2022-12-28T14:33:29.749Z</time>
      </trkpt>
      <trkpt lat="44.36866" lon="-0.01321">
        <ele>188.727794</ele>
        <time>2022-12-28T14:33:31.748Z</time>
      </trkpt>
      <trkpt lat="44.36859" lon="-0.01312">
        <ele>188.752287</ele>
        <time>2022-12-28T14:33:33.757Z</time>
      </trkpt>
      <trkpt lat="44.36851" lon="-0.01302">
        <ele>188.778699</ele>
        <time>2022-12-28T14:33:35.749Z</time>
      </trkpt>
      <trkpt lat="44.36842" lon="-0.01291">
        <ele>188.807857</ele>
        <time>2022-12-28T14:33:37.746Z</time>
      </trkpt>
      <trkpt lat="44.36834" lon="-0.01281">
        <ele>188.834906</ele>
        <time>2022-12-28T14:33:39.752Z</time>
      </trkpt>
      <trkpt lat="44.36827" lon="-0.0127">
        <ele>188.860927</ele>
        <time>2022-12-28T14:33:41.760Z</time>
      </trkpt>
      <trkpt lat="44.36819" lon="-0.0126">
        <ele>188.888082</ele>
        <time>2022-12-28T14:33:43.754Z</time>
      </trkpt>
      <trkpt lat="44.36811" lon="-0.0125">
        <ele>188.913965</ele>
        <time>2022-12-28T14:33:45.750Z</time>
      </trkpt>
      <trkpt lat="44.36803" lon="-0.01239">
        <ele>188.941186</ele>
        <time>2022-12-28T14:33:47.739Z</time>
      </trkpt>
      <trkpt lat="44.36795" lon="-0.0123">
        <ele>188.967103</ele>
        <time>2022-12-28T14:33:49.761Z</time>
      </trkpt>
      <trkpt lat="44.36788" lon="-0.01221">
        <ele>188.991899</ele>
        <time>2022-12-28T14:33:51.742Z</time>
      </trkpt>
      <trkpt lat="44.3678" lon="-0.01212">
        <ele>189.016373</ele>
        <time>2022-12-28T14:33:53.759Z</time>
      </trkpt>
      <trkpt lat="44.36772" lon="-0.01201">
        <ele>189.0442</ele>
        <time>2022-12-28T14:33:55.752Z</time>
      </trkpt>
      <trkpt lat="44.36764" lon="-0.01191">
        <ele>189.069539</ele>
        <time>2022-12-28T14:33:57.744Z</time>
      </trkpt>
      <trkpt lat="44.36756" lon="-0.01182">
        <ele>189.095504</ele>
        <time>2022-12-28T14:33:59.750Z</time>
      </trkpt>
      <trkpt lat="44.36749" lon="-0.01172">
        <ele>189.048013</ele>
        <time>2022-12-28T14:34:01.806Z</time>
      </trkpt>
      <trkpt lat="44.36741" lon="-0.01161">
        <ele>188.990729</ele>
        <time>2022-12-28T14:34:03.746Z</time>
      </trkpt>
      <trkpt lat="44.36733" lon="-0.01151">
        <ele>188.934198</ele>
        <time>2022-12-28T14:34:05.762Z</time>
      </trkpt>
      <trkpt lat="44.36725" lon="-0.01141">
        <ele>188.878803</ele>
        <time>2022-12-28T14:34:07.814Z</time>
      </trkpt>
      <trkpt lat="44.36716" lon="-0.01129">
        <ele>188.817906</ele>
        <time>2022-12-28T14:34:09.753Z</time>
      </trkpt>
      <trkpt lat="44.36708" lon="-0.01119">
        <ele>188.761011</ele>
        <time>2022-12-28T14:34:11.749Z</time>
      </trkpt>
      <trkpt lat="44.36699" lon="-0.01108">
        <ele>188.702109</ele>
        <time>2022-12-28T14:34:13.814Z</time>
      </trkpt>
      <trkpt lat="44.36692" lon="-0.01097">
        <ele>188.645814</ele>
        <time>2022-12-28T14:34:15.760Z</time>
      </trkpt>
      <trkpt lat="44.36683" lon="-0.01087">
        <ele>188.585305</ele>
        <time>2022-12-28T14:34:17.753Z</time>
      </trkpt>
      <trkpt lat="44.36674" lon="-0.01076">
        <ele>188.526156</ele>
        <time>2022-12-28T14:34:19.820Z</time>
      </trkpt>
      <trkpt lat="44.36665" lon="-0.01065">
        <ele>188.464224</ele>
        <time>2022-12-28T14:34:21.750Z</time>
      </trkpt>
      <trkpt lat="44.36656" lon="-0.01053">
        <ele>188.400065</ele>
        <time>2022-12-28T14:34:23.753Z</time>
      </trkpt>
      <trkpt lat="44.36647" lon="-0.01042">
        <ele>188.338412</ele>
        <time>2022-12-28T14:34:25.795Z</time>
      </trkpt>
      <trkpt lat="44.36638" lon="-0.0103">
        <ele>188.278262</ele>
        <time>2022-12-28T14:34:27.748Z</time>
      </trkpt>
      <trkpt lat="44.36629" lon="-0.01019">
        <ele>188.217099</ele>
        <time>2022-12-28T14:34:29.753Z</time>
      </trkpt>
      <trkpt lat="44.36621" lon="-0.01008">
        <ele>188.162849</ele>
        <time>2022-12-28T14:34:31.796Z</time>
      </trkpt>
      <trkpt lat="44.36613" lon="-0.00997">
        <ele>188.122773</ele>
        <time>2022-12-28T14:34:33.752Z</time>
      </trkpt>
      <trkpt lat="44.36603" lon="-0.00987">
        <ele>188.080014</ele>
        <time>2022-12-28T14:34:35.760Z</time>
      </trkpt>
      <trkpt lat="44.36595" lon="-0.00976">
        <ele>188.039174</ele>
        <time>2022-12-28T14:34:37.762Z</time>
      </trkpt>
      <trkpt lat="44.36586" lon="-0.00964">
        <ele>187.997817</ele>
        <time>2022-12-28T14:34:39.754Z</time>
      </trkpt>
      <trkpt lat="44.36578" lon="-0.00953">
        <ele>187.958171</ele>
        <time>2022-12-28T14:34:41.760Z</time>
      </trkpt>
      <trkpt lat="44.3657" lon="-0.00944">
        <ele>187.920494</ele>
        <time>2022-12-28T14:34:43.760Z</time>
      </trkpt>
      <trkpt lat="44.36561" lon="-0.00934">
        <ele>187.878952</ele>
        <time>2022-12-28T14:34:45.762Z</time>
      </trkpt>
      <trkpt lat="44.36552" lon="-0.00923">
        <ele>187.836937</ele>
        <time>2022-12-28T14:34:47.759Z</time>
      </trkpt>
      <trkpt lat="44.36543" lon="-0.00912">
        <ele>187.795827</ele>
        <time>2022-12-28T14:34:49.759Z</time>
      </trkpt>
      <trkpt lat="44.36534" lon="-0.00901">
        <ele>187.75421</ele>
        <time>2022-12-28T14:34:51.749Z</time>
      </trkpt>
      <trkpt lat="44.36526" lon="-0.0089">
        <ele>187.712593</ele>
        <time>2022-12-28T14:34:53.747Z</time>
      </trkpt>
      <trkpt lat="44.36517" lon="-0.00879">
        <ele>187.672529</ele>
        <time>2022-12-28T14:34:55.759Z</time>
      </trkpt>
      <trkpt lat="44.36509" lon="-0.00868">
        <ele>187.631603</ele>
        <time>2022-12-28T14:34:57.749Z</time>
      </trkpt>
      <trkpt lat="44.36501" lon="-0.00858">
        <ele>187.592221</ele>
        <time>2022-12-28T14:34:59.754Z</time>
      </trkpt>
      <trkpt lat="44.36492" lon="-0.00847">
        <ele>187.552328</ele>
        <time>2022-12-28T14:35:01.751Z</time>
      </trkpt>
      <trkpt lat="44.36484" lon="-0.00837">
        <ele>187.33117</ele>
        <time>2022-12-28T14:35:03.748Z</time>
      </trkpt>
      <trkpt lat="44.36475" lon="-0.00826">
        <ele>187.020658</ele>
        <time>2022-12-28T14:35:05.757Z</time>
      </trkpt>
      <trkpt lat="44.36467" lon="-0.00816">
        <ele>186.721981</ele>
        <time>2022-12-28T14:35:07.748Z</time>
      </trkpt>
      <trkpt lat="44.36459" lon="-0.00806">
        <ele>186.421595</ele>
        <time>2022-12-28T14:35:09.747Z</time>
      </trkpt>
      <trkpt lat="44.36451" lon="-0.00795">
        <ele>186.119206</ele>
        <time>2022-12-28T14:35:11.759Z</time>
      </trkpt>
      <trkpt lat="44.36443" lon="-0.00786">
        <ele>185.841454</ele>
        <time>2022-12-28T14:35:13.754Z</time>
      </trkpt>
      <trkpt lat="44.36435" lon="-0.00776">
        <ele>185.539065</ele>
        <time>2022-12-28T14:35:15.751Z</time>
      </trkpt>
      <trkpt lat="44.36427" lon="-0.00767">
        <ele>185.255814</ele>
        <time>2022-12-28T14:35:17.747Z</time>
      </trkpt>
      <trkpt lat="44.36419" lon="-0.00757">
        <ele>184.982105</ele>
        <time>2022-12-28T14:35:19.733Z</time>
      </trkpt>
      <trkpt lat="44.36411" lon="-0.00748">
        <ele>184.693707</ele>
        <time>2022-12-28T14:35:21.749Z</time>
      </trkpt>
      <trkpt lat="44.36404" lon="-0.00738">
        <ele>184.411995</ele>
        <time>2022-12-28T14:35:23.755Z</time>
      </trkpt>
      <trkpt lat="44.36396" lon="-0.00728">
        <ele>184.132299</ele>
        <time>2022-12-28T14:35:25.759Z</time>
      </trkpt>
      <trkpt lat="44.36389" lon="-0.00718">
        <ele>183.841256</ele>
        <time>2022-12-28T14:35:27.760Z</time>
      </trkpt>
      <trkpt lat="44.36381" lon="-0.00708">
        <ele>183.549524</ele>
        <time>2022-12-28T14:35:29.758Z</time>
      </trkpt>
      <trkpt lat="44.36374" lon="-0.00698">
        <ele>183.280267</ele>
        <time>2022-12-28T14:35:31.750Z</time>
      </trkpt>
      <trkpt lat="44.36367" lon="-0.00689">
        <ele>183.01893</ele>
        <time>2022-12-28T14:35:33.756Z</time>
      </trkpt>
      <trkpt lat="44.36359" lon="-0.00679">
        <ele>182.727188</ele>
        <time>2022-12-28T14:35:35.750Z</time>
      </trkpt>
      <trkpt lat="44.36351" lon="-0.00669">
        <ele>182.609347</ele>
        <time>2022-12-28T14:35:37.759Z</time>
      </trkpt>
      <trkpt lat="44.36341" lon="-0.00658">
        <ele>182.599568</ele>
        <time>2022-12-28T14:35:40.748Z</time>
      </trkpt>
      <trkpt lat="44.36333" lon="-0.00649">
        <ele>182.592312</ele>
        <time>2022-12-28T14:35:42.819Z</time>
      </trkpt>
      <trkpt lat="44.36326" lon="-0.00639">
        <ele>182.584795</ele>
        <time>2022-12-28T14:35:44.747Z</time>
      </trkpt>
      <trkpt lat="44.36316" lon="-0.00626">
        <ele>182.574788</ele>
        <time>2022-12-28T14:35:47.756Z</time>
      </trkpt>
      <trkpt lat="44.36309" lon="-0.00617">
        <ele>182.567974</ele>
        <time>2022-12-28T14:35:49.753Z</time>
      </trkpt>
      <trkpt lat="44.36302" lon="-0.00609">
        <ele>182.561314</ele>
        <time>2022-12-28T14:35:51.758Z</time>
      </trkpt>
      <trkpt lat="44.36295" lon="-0.00599">
        <ele>182.553931</ele>
        <time>2022-12-28T14:35:53.748Z</time>
      </trkpt>
      <trkpt lat="44.36288" lon="-0.00591">
        <ele>182.547173</ele>
        <time>2022-12-28T14:35:55.740Z</time>
      </trkpt>
      <trkpt lat="44.36281" lon="-0.00582">
        <ele>182.540131</ele>
        <time>2022-12-28T14:35:57.749Z</time>
      </trkpt>
      <trkpt lat="44.36273" lon="-0.00573">
        <ele>182.532883</ele>
        <time>2022-12-28T14:35:59.762Z</time>
      </trkpt>
      <trkpt lat="44.36266" lon="-0.00565">
        <ele>182.526215</ele>
        <time>2022-12-28T14:36:01.762Z</time>
      </trkpt>
      <trkpt lat="44.36259" lon="-0.00556">
        <ele>182.519546</ele>
        <time>2022-12-28T14:36:03.746Z</time>
      </trkpt>
      <trkpt lat="44.36252" lon="-0.00547">
        <ele>182.512557</ele>
        <time>2022-12-28T14:36:05.805Z</time>
      </trkpt>
      <trkpt lat="44.36245" lon="-0.00538">
        <ele>182.505514</ele>
        <time>2022-12-28T14:36:07.747Z</time>
      </trkpt>
      <trkpt lat="44.36235" lon="-0.00526">
        <ele>182.4958</ele>
        <time>2022-12-28T14:36:10.751Z</time>
      </trkpt>
      <trkpt lat="44.36229" lon="-0.00517">
        <ele>182.489051</ele>
        <time>2022-12-28T14:36:12.764Z</time>
      </trkpt>
      <trkpt lat="44.36222" lon="-0.00508">
        <ele>182.482326</ele>
        <time>2022-12-28T14:36:14.759Z</time>
      </trkpt>
      <trkpt lat="44.36212" lon="-0.00494">
        <ele>182.781649</ele>
        <time>2022-12-28T14:36:17.812Z</time>
      </trkpt>
      <trkpt lat="44.36203" lon="-0.00483">
        <ele>183.055213</ele>
        <time>2022-12-28T14:36:20.762Z</time>
      </trkpt>
      <trkpt lat="44.36194" lon="-0.00472">
        <ele>183.322673</ele>
        <time>2022-12-28T14:36:23.771Z</time>
      </trkpt>
      <trkpt lat="44.36186" lon="-0.00461">
        <ele>183.575848</ele>
        <time>2022-12-28T14:36:26.763Z</time>
      </trkpt>
      <trkpt lat="44.36177" lon="-0.0045">
        <ele>183.841629</ele>
        <time>2022-12-28T14:36:29.752Z</time>
      </trkpt>
      <trkpt lat="44.36168" lon="-0.00439">
        <ele>184.106369</ele>
        <time>2022-12-28T14:36:32.749Z</time>
      </trkpt>
      <trkpt lat="44.3616" lon="-0.00428">
        <ele>184.363384</ele>
        <time>2022-12-28T14:36:35.761Z</time>
      </trkpt>
      <trkpt lat="44.36151" lon="-0.00417">
        <ele>184.61788</ele>
        <time>2022-12-28T14:36:38.735Z</time>
      </trkpt>
      <trkpt lat="44.36143" lon="-0.00407">
        <ele>184.862966</ele>
        <time>2022-12-28T14:36:41.760Z</time>
      </trkpt>
      <trkpt lat="44.36134" lon="-0.00396">
        <ele>185.129194</ele>
        <time>2022-12-28T14:36:45.807Z</time>
      </trkpt>
      <trkpt lat="44.36125" lon="-0.00385">
        <ele>185.381284</ele>
        <time>2022-12-28T14:36:49.753Z</time>
      </trkpt>
      <trkpt lat="44.36118" lon="-0.00376">
        <ele>185.591647</ele>
        <time>2022-12-28T14:36:52.759Z</time>
      </trkpt>
      <trkpt lat="44.36111" lon="-0.00367">
        <ele>185.810144</ele>
        <time>2022-12-28T14:36:55.756Z</time>
      </trkpt>
      <trkpt lat="44.36104" lon="-0.00358">
        <ele>186.031978</ele>
        <time>2022-12-28T14:36:58.748Z</time>
      </trkpt>
      <trkpt lat="44.36097" lon="-0.00349">
        <ele>186.248373</ele>
        <time>2022-12-28T14:37:01.749Z</time>
      </trkpt>
      <trkpt lat="44.36089" lon="-0.0034">
        <ele>186.465402</ele>
        <time>2022-12-28T14:37:04.754Z</time>
      </trkpt>
      <trkpt lat="44.36082" lon="-0.0033">
        <ele>186.489787</ele>
        <time>2022-12-28T14:37:07.753Z</time>
      </trkpt>
      <trkpt lat="44.36074" lon="-0.0032">
        <ele>186.498134</ele>
        <time>2022-12-28T14:37:10.758Z</time>
      </trkpt>
      <trkpt lat="44.36067" lon="-0.00311">
        <ele>186.506581</ele>
        <time>2022-12-28T14:37:13.745Z</time>
      </trkpt>
      <trkpt lat="44.36059" lon="-0.00301">
        <ele>186.515035</ele>
        <time>2022-12-28T14:37:16.755Z</time>
      </trkpt>
      <trkpt lat="44.36051" lon="-0.00292">
        <ele>186.523629</ele>
        <time>2022-12-28T14:37:19.760Z</time>
      </trkpt>
      <trkpt lat="44.36043" lon="-0.00282">
        <ele>186.532459</ele>
        <time>2022-12-28T14:37:22.734Z</time>
      </trkpt>
      <trkpt lat="44.36035" lon="-0.00272">
        <ele>186.54127</ele>
        <time>2022-12-28T14:37:25.751Z</time>
      </trkpt>
      <trkpt lat="44.36027" lon="-0.00262">
        <ele>186.55012</ele>
        <time>2022-12-28T14:37:28.750Z</time>
      </trkpt>
      <trkpt lat="44.36019" lon="-0.00251">
        <ele>186.559474</ele>
        <time>2022-12-28T14:37:31.750Z</time>
      </trkpt>
      <trkpt lat="44.3601" lon="-0.0024">
        <ele>186.569148</ele>
        <time>2022-12-28T14:37:34.750Z</time>
      </trkpt>
      <trkpt lat="44.36001" lon="-0.00229">
        <ele>186.579002</ele>
        <time>2022-12-28T14:37:37.758Z</time>
      </trkpt>
      <trkpt lat="44.35993" lon="-0.00217">
        <ele>186.588977</ele>
        <time>2022-12-28T14:37:40.756Z</time>
      </trkpt>
      <trkpt lat="44.35983" lon="-0.00206">
        <ele>186.599054</ele>
        <time>2022-12-28T14:37:43.749Z</time>
      </trkpt>
      <trkpt lat="44.35974" lon="-0.00195">
        <ele>186.609531</ele>
        <time>2022-12-28T14:37:46.746Z</time>
      </trkpt>
      <trkpt lat="44.35964" lon="-0.00183">
        <ele>186.620337</ele>
        <time>2022-12-28T14:37:49.761Z</time>
      </trkpt>
      <trkpt lat="44.35954" lon="-0.0017">
        <ele>186.640515</ele>
        <time>2022-12-28T14:37:52.764Z</time>
      </trkpt>
      <trkpt lat="44.35944" lon="-0.00158">
        <ele>186.775624</ele>
        <time>2022-12-28T14:37:55.749Z</time>
      </trkpt>
      <trkpt lat="44.35937" lon="-0.00149">
        <ele>186.870352</ele>
        <time>2022-12-28T14:37:57.761Z</time>
      </trkpt>
      <trkpt lat="44.3593" lon="-0.0014">
        <ele>186.960708</ele>
        <time>2022-12-28T14:37:59.806Z</time>
      </trkpt>
      <trkpt lat="44.35923" lon="-0.00131">
        <ele>187.05349</ele>
        <time>2022-12-28T14:38:01.751Z</time>
      </trkpt>
      <trkpt lat="44.35916" lon="-0.00123">
        <ele>187.14416</ele>
        <time>2022-12-28T14:38:03.735Z</time>
      </trkpt>
      <trkpt lat="44.35907" lon="-0.0011">
        <ele>187.277022</ele>
        <time>2022-12-28T14:38:06.758Z</time>
      </trkpt>
      <trkpt lat="44.35897" lon="-0.00097">
        <ele>187.411857</ele>
        <time>2022-12-28T14:38:09.765Z</time>
      </trkpt>
      <trkpt lat="44.35889" lon="-0.00089">
        <ele>187.504252</ele>
        <time>2022-12-28T14:38:11.804Z</time>
      </trkpt>
      <trkpt lat="44.35882" lon="-0.0008">
        <ele>187.599226</ele>
        <time>2022-12-28T14:38:13.755Z</time>
      </trkpt>
      <trkpt lat="44.35875" lon="-0.00071">
        <ele>187.696693</ele>
        <time>2022-12-28T14:38:15.741Z</time>
      </trkpt>
      <trkpt lat="44.35868" lon="-0.00061">
        <ele>187.795367</ele>
        <time>2022-12-28T14:38:17.819Z</time>
      </trkpt>
      <trkpt lat="44.35861" lon="-0.00052">
        <ele>187.893265</ele>
        <time>2022-12-28T14:38:19.762Z</time>
      </trkpt>
      <trkpt lat="44.35854" lon="-0.00043">
        <ele>187.991257</ele>
        <time>2022-12-28T14:38:21.752Z</time>
      </trkpt>
      <trkpt lat="44.35846" lon="-0.00034">
        <ele>188.087938</ele>
        <time>2022-12-28T14:38:23.816Z</time>
      </trkpt>
      <trkpt lat="44.35839" lon="-0.00024">
        <ele>188.188271</ele>
        <time>2022-12-28T14:38:25.762Z</time>
      </trkpt>
      <trkpt lat="44.35831" lon="-0.00014">
        <ele>188.293208</ele>
        <time>2022-12-28T14:38:27.751Z</time>
      </trkpt>
      <trkpt lat="44.35824" lon="-4.0E-5">
        <ele>188.396442</ele>
        <time>2022-12-28T14:38:29.816Z</time>
      </trkpt>
      <trkpt lat="44.35816" lon="5.0E-5">
        <ele>188.430008</ele>
        <time>2022-12-28T14:38:31.760Z</time>
      </trkpt>
      <trkpt lat="44.35807" lon="0.00016">
        <ele>188.44235</ele>
        <time>2022-12-28T14:38:33.751Z</time>
      </trkpt>
      <trkpt lat="44.358" lon="0.00026">
        <ele>188.45306</ele>
        <time>2022-12-28T14:38:35.819Z</time>
      </trkpt>
      <trkpt lat="44.35792" lon="0.00035">
        <ele>188.464242</ele>
        <time>2022-12-28T14:38:37.761Z</time>
      </trkpt>
      <trkpt lat="44.35784" lon="0.00044">
        <ele>188.474441</ele>
        <time>2022-12-28T14:38:39.750Z</time>
      </trkpt>
      <trkpt lat="44.35777" lon="0.00054">
        <ele>188.484869</ele>
        <time>2022-12-28T14:38:41.822Z</time>
      </trkpt>
      <trkpt lat="44.3577" lon="0.00062">
        <ele>188.495045</ele>
        <time>2022-12-28T14:38:43.750Z</time>
      </trkpt>
      <trkpt lat="44.35763" lon="0.00071">
        <ele>188.504739</ele>
        <time>2022-12-28T14:38:45.761Z</time>
      </trkpt>
      <trkpt lat="44.35755" lon="0.00081">
        <ele>188.515277</ele>
        <time>2022-12-28T14:38:47.732Z</time>
      </trkpt>
      <trkpt lat="44.35748" lon="0.0009">
        <ele>188.525595</ele>
        <time>2022-12-28T14:38:49.761Z</time>
      </trkpt>
      <trkpt lat="44.35741" lon="0.00099">
        <ele>188.535716</ele>
        <time>2022-12-28T14:38:51.731Z</time>
      </trkpt>
      <trkpt lat="44.35733" lon="0.00108">
        <ele>188.546228</ele>
        <time>2022-12-28T14:38:53.753Z</time>
      </trkpt>
      <trkpt lat="44.35726" lon="0.00117">
        <ele>188.555687</ele>
        <time>2022-12-28T14:38:55.754Z</time>
      </trkpt>
      <trkpt lat="44.35719" lon="0.00126">
        <ele>188.566534</ele>
        <time>2022-12-28T14:38:57.764Z</time>
      </trkpt>
      <trkpt lat="44.35712" lon="0.00136">
        <ele>188.577105</ele>
        <time>2022-12-28T14:38:59.761Z</time>
      </trkpt>
      <trkpt lat="44.35705" lon="0.00146">
        <ele>188.587623</ele>
        <time>2022-12-28T14:39:01.754Z</time>
      </trkpt>
      <trkpt lat="44.35698" lon="0.00157">
        <ele>188.598341</ele>
        <time>2022-12-28T14:39:03.760Z</time>
      </trkpt>
      <trkpt lat="44.35691" lon="0.00168">
        <ele>188.608888</ele>
        <time>2022-12-28T14:39:05.755Z</time>
      </trkpt>
      <trkpt lat="44.35685" lon="0.00178">
        <ele>188.554089</ele>
        <time>2022-12-28T14:39:07.755Z</time>
      </trkpt>
      <trkpt lat="44.35677" lon="0.00191">
        <ele>188.478434</ele>
        <time>2022-12-28T14:39:09.761Z</time>
      </trkpt>
      <trkpt lat="44.35671" lon="0.00202">
        <ele>188.410821</ele>
        <time>2022-12-28T14:39:11.757Z</time>
      </trkpt>
      <trkpt lat="44.35665" lon="0.00214">
        <ele>188.341723</ele>
        <time>2022-12-28T14:39:13.761Z</time>
      </trkpt>
      <trkpt lat="44.35659" lon="0.00226">
        <ele>188.272655</ele>
        <time>2022-12-28T14:39:15.763Z</time>
      </trkpt>
      <trkpt lat="44.35652" lon="0.00238">
        <ele>188.201297</ele>
        <time>2022-12-28T14:39:17.755Z</time>
      </trkpt>
      <trkpt lat="44.35647" lon="0.00251">
        <ele>188.129783</ele>
        <time>2022-12-28T14:39:19.740Z</time>
      </trkpt>
      <trkpt lat="44.35641" lon="0.00263">
        <ele>188.060714</ele>
        <time>2022-12-28T14:39:21.760Z</time>
      </trkpt>
      <trkpt lat="44.35634" lon="0.00275">
        <ele>187.989356</ele>
        <time>2022-12-28T14:39:23.751Z</time>
      </trkpt>
      <trkpt lat="44.35628" lon="0.00288">
        <ele>187.917224</ele>
        <time>2022-12-28T14:39:25.754Z</time>
      </trkpt>
      <trkpt lat="44.35622" lon="0.003">
        <ele>187.844719</ele>
        <time>2022-12-28T14:39:27.760Z</time>
      </trkpt>
      <trkpt lat="44.35616" lon="0.00311">
        <ele>187.779403</ele>
        <time>2022-12-28T14:39:29.749Z</time>
      </trkpt>
      <trkpt lat="44.35609" lon="0.00324">
        <ele>187.70573</ele>
        <time>2022-12-28T14:39:31.761Z</time>
      </trkpt>
      <trkpt lat="44.35603" lon="0.00336">
        <ele>187.633184</ele>
        <time>2022-12-28T14:39:33.758Z</time>
      </trkpt>
      <trkpt lat="44.35596" lon="0.00347">
        <ele>187.563892</ele>
        <time>2022-12-28T14:39:35.731Z</time>
      </trkpt>
      <trkpt lat="44.35589" lon="0.0036">
        <ele>187.489086</ele>
        <time>2022-12-28T14:39:37.772Z</time>
      </trkpt>
      <trkpt lat="44.35583" lon="0.00373">
        <ele>187.41921</ele>
        <time>2022-12-28T14:39:39.759Z</time>
      </trkpt>
      <trkpt lat="44.35576" lon="0.00388">
        <ele>187.371747</ele>
        <time>2022-12-28T14:39:41.752Z</time>
      </trkpt>
      <trkpt lat="44.35569" lon="0.004">
        <ele>187.325923</ele>
        <time>2022-12-28T14:39:43.761Z</time>
      </trkpt>
      <trkpt lat="44.35563" lon="0.00413">
        <ele>187.282228</ele>
        <time>2022-12-28T14:39:45.764Z</time>
      </trkpt>
      <trkpt lat="44.35556" lon="0.00425">
        <ele>187.240384</ele>
        <time>2022-12-28T14:39:47.761Z</time>
      </trkpt>
      <trkpt lat="44.3555" lon="0.00438">
        <ele>187.195802</ele>
        <time>2022-12-28T14:39:49.774Z</time>
      </trkpt>
      <trkpt lat="44.35543" lon="0.00451">
        <ele>187.151463</ele>
        <time>2022-12-28T14:39:51.760Z</time>
      </trkpt>
      <trkpt lat="44.35537" lon="0.00462">
        <ele>187.111191</ele>
        <time>2022-12-28T14:39:53.758Z</time>
      </trkpt>
      <trkpt lat="44.35532" lon="0.00474">
        <ele>187.073571</ele>
        <time>2022-12-28T14:39:55.806Z</time>
      </trkpt>
      <trkpt lat="44.35525" lon="0.00485">
        <ele>187.033685</ele>
        <time>2022-12-28T14:39:57.761Z</time>
      </trkpt>
      <trkpt lat="44.3552" lon="0.00496">
        <ele>186.997957</ele>
        <time>2022-12-28T14:39:59.749Z</time>
      </trkpt>
      <trkpt lat="44.35513" lon="0.00507">
        <ele>186.956889</ele>
        <time>2022-12-28T14:40:01.816Z</time>
      </trkpt>
      <trkpt lat="44.35507" lon="0.00518">
        <ele>186.917958</ele>
        <time>2022-12-28T14:40:03.757Z</time>
      </trkpt>
      <trkpt lat="44.355" lon="0.0053">
        <ele>186.871203</ele>
        <time>2022-12-28T14:40:06.758Z</time>
      </trkpt>
      <trkpt lat="44.35491" lon="0.00544">
        <ele>186.820348</ele>
        <time>2022-12-28T14:40:09.758Z</time>
      </trkpt>
      <trkpt lat="44.35484" lon="0.00553">
        <ele>186.782888</ele>
        <time>2022-12-28T14:40:11.763Z</time>
      </trkpt>
      <trkpt lat="44.35477" lon="0.00563">
        <ele>186.743808</ele>
        <time>2022-12-28T14:40:13.754Z</time>
      </trkpt>
      <trkpt lat="44.35467" lon="0.00575">
        <ele>186.865155</ele>
        <time>2022-12-28T14:40:16.757Z</time>
      </trkpt>
      <trkpt lat="44.35457" lon="0.00587">
        <ele>187.138318</ele>
        <time>2022-12-28T14:40:19.741Z</time>
      </trkpt>
      <trkpt lat="44.35447" lon="0.00598">
        <ele>187.393155</ele>
        <time>2022-12-28T14:40:22.761Z</time>
      </trkpt>
      <trkpt lat="44.35438" lon="0.00608">
        <ele>187.644634</ele>
        <time>2022-12-28T14:40:25.753Z</time>
      </trkpt>
      <trkpt lat="44.35428" lon="0.00618">
        <ele>187.894327</ele>
        <time>2022-12-28T14:40:28.762Z</time>
      </trkpt>
      <trkpt lat="44.35418" lon="0.00626">
        <ele>188.122232</ele>
        <time>2022-12-28T14:40:31.753Z</time>
      </trkpt>
      <trkpt lat="44.35408" lon="0.00634">
        <ele>188.36046</ele>
        <time>2022-12-28T14:40:34.750Z</time>
      </trkpt>
      <trkpt lat="44.35399" lon="0.00642">
        <ele>188.587751</ele>
        <time>2022-12-28T14:40:37.761Z</time>
      </trkpt>
      <trkpt lat="44.35389" lon="0.0065">
        <ele>188.819876</ele>
        <time>2022-12-28T14:40:40.755Z</time>
      </trkpt>
      <trkpt lat="44.35379" lon="0.00658">
        <ele>189.06506</ele>
        <time>2022-12-28T14:40:43.745Z</time>
      </trkpt>
      <trkpt lat="44.35369" lon="0.00667">
        <ele>189.294699</ele>
        <time>2022-12-28T14:40:46.754Z</time>
      </trkpt>
      <trkpt lat="44.35361" lon="0.00675">
        <ele>189.506648</ele>
        <time>2022-12-28T14:40:49.752Z</time>
      </trkpt>
      <trkpt lat="44.35353" lon="0.00683">
        <ele>189.716003</ele>
        <time>2022-12-28T14:40:52.737Z</time>
      </trkpt>
      <trkpt lat="44.35344" lon="0.00691">
        <ele>189.926046</ele>
        <time>2022-12-28T14:40:55.751Z</time>
      </trkpt>
      <trkpt lat="44.35335" lon="0.00698">
        <ele>190.140261</ele>
        <time>2022-12-28T14:40:58.736Z</time>
      </trkpt>
      <trkpt lat="44.35326" lon="0.00705">
        <ele>190.348333</ele>
        <time>2022-12-28T14:41:01.750Z</time>
      </trkpt>
      <trkpt lat="44.35319" lon="0.00713">
        <ele>190.43254</ele>
        <time>2022-12-28T14:41:04.750Z</time>
      </trkpt>
      <trkpt lat="44.35311" lon="0.00723">
        <ele>190.44825</ele>
        <time>2022-12-28T14:41:07.746Z</time>
      </trkpt>
      <trkpt lat="44.35306" lon="0.00737">
        <ele>190.46507</ele>
        <time>2022-12-28T14:41:11.761Z</time>
      </trkpt>
      <trkpt lat="44.35298" lon="0.0075">
        <ele>190.482923</ele>
        <time>2022-12-28T14:41:15.741Z</time>
      </trkpt>
      <trkpt lat="44.35293" lon="0.00763">
        <ele>190.499481</ele>
        <time>2022-12-28T14:41:18.754Z</time>
      </trkpt>
      <trkpt lat="44.35286" lon="0.00778">
        <ele>190.518393</ele>
        <time>2022-12-28T14:41:21.762Z</time>
      </trkpt>
      <trkpt lat="44.35282" lon="0.00794">
        <ele>190.536139</ele>
        <time>2022-12-28T14:41:24.751Z</time>
      </trkpt>
      <trkpt lat="44.35278" lon="0.00808">
        <ele>190.552219</ele>
        <time>2022-12-28T14:41:27.749Z</time>
      </trkpt>
      <trkpt lat="44.35276" lon="0.00822">
        <ele>190.56761</ele>
        <time>2022-12-28T14:41:30.751Z</time>
      </trkpt>
      <trkpt lat="44.35274" lon="0.00835">
        <ele>190.581753</ele>
        <time>2022-12-28T14:41:33.761Z</time>
      </trkpt>
      <trkpt lat="44.35272" lon="0.00848">
        <ele>190.596341</ele>
        <time>2022-12-28T14:41:36.760Z</time>
      </trkpt>
      <trkpt lat="44.3527" lon="0.00863">
        <ele>190.612303</ele>
        <time>2022-12-28T14:41:39.744Z</time>
      </trkpt>
      <trkpt lat="44.35268" lon="0.00877">
        <ele>190.628535</ele>
        <time>2022-12-28T14:41:42.758Z</time>
      </trkpt>
      <trkpt lat="44.35266" lon="0.00893">
        <ele>190.645609</ele>
        <time>2022-12-28T14:41:45.753Z</time>
      </trkpt>
      <trkpt lat="44.35264" lon="0.00909">
        <ele>190.663344</ele>
        <time>2022-12-28T14:41:48.750Z</time>
      </trkpt>
      <trkpt lat="44.35261" lon="0.00926">
        <ele>190.682011</ele>
        <time>2022-12-28T14:41:51.753Z</time>
      </trkpt>
      <trkpt lat="44.35258" lon="0.00943">
        <ele>190.714387</ele>
        <time>2022-12-28T14:41:54.750Z</time>
      </trkpt>
      <trkpt lat="44.35255" lon="0.0096">
        <ele>190.766967</ele>
        <time>2022-12-28T14:41:57.752Z</time>
      </trkpt>
      <trkpt lat="44.35251" lon="0.00974">
        <ele>190.816108</ele>
        <time>2022-12-28T14:42:00.740Z</time>
      </trkpt>
      <trkpt lat="44.35247" lon="0.00987">
        <ele>190.85944</ele>
        <time>2022-12-28T14:42:03.751Z</time>
      </trkpt>
      <trkpt lat="44.35241" lon="0.01">
        <ele>190.907865</ele>
        <time>2022-12-28T14:42:06.826Z</time>
      </trkpt>
      <trkpt lat="44.35234" lon="0.01013">
        <ele>190.959076</ele>
        <time>2022-12-28T14:42:09.748Z</time>
      </trkpt>
      <trkpt lat="44.3523" lon="0.01028">
        <ele>191.008199</ele>
        <time>2022-12-28T14:42:12.815Z</time>
      </trkpt>
      <trkpt lat="44.35227" lon="0.01044">
        <ele>191.059603</ele>
        <time>2022-12-28T14:42:15.761Z</time>
      </trkpt>
      <trkpt lat="44.35224" lon="0.01059">
        <ele>191.10909</ele>
        <time>2022-12-28T14:42:18.847Z</time>
      </trkpt>
      <trkpt lat="44.35224" lon="0.01075">
        <ele>191.156838</ele>
        <time>2022-12-28T14:42:21.753Z</time>
      </trkpt>
      <trkpt lat="44.35222" lon="0.01089">
        <ele>191.202466</ele>
        <time>2022-12-28T14:42:24.731Z</time>
      </trkpt>
      <trkpt lat="44.3522" lon="0.01105">
        <ele>191.253076</ele>
        <time>2022-12-28T14:42:27.763Z</time>
      </trkpt>
      <trkpt lat="44.35218" lon="0.01121">
        <ele>191.303518</ele>
        <time>2022-12-28T14:42:30.755Z</time>
      </trkpt>
      <trkpt lat="44.35218" lon="0.01138">
        <ele>191.355234</ele>
        <time>2022-12-28T14:42:33.753Z</time>
      </trkpt>
      <trkpt lat="44.35218" lon="0.01154">
        <ele>191.406622</ele>
        <time>2022-12-28T14:42:36.734Z</time>
      </trkpt>
      <trkpt lat="44.35216" lon="0.01171">
        <ele>191.458604</ele>
        <time>2022-12-28T14:42:39.763Z</time>
      </trkpt>
      <trkpt lat="44.35213" lon="0.01189">
        <ele>191.409197</ele>
        <time>2022-12-28T14:42:42.763Z</time>
      </trkpt>
      <trkpt lat="44.35213" lon="0.01202">
        <ele>191.337425</ele>
        <time>2022-12-28T14:42:44.731Z</time>
      </trkpt>
      <trkpt lat="44.35213" lon="0.01221">
        <ele>191.235903</ele>
        <time>2022-12-28T14:42:47.757Z</time>
      </trkpt>
      <trkpt lat="44.35212" lon="0.01239">
        <ele>191.136324</ele>
        <time>2022-12-28T14:42:50.763Z</time>
      </trkpt>
      <trkpt lat="44.35211" lon="0.01258">
        <ele>191.036924</ele>
        <time>2022-12-28T14:42:53.753Z</time>
      </trkpt>
      <trkpt lat="44.3521" lon="0.0127">
        <ele>190.968424</ele>
        <time>2022-12-28T14:42:55.755Z</time>
      </trkpt>
      <trkpt lat="44.35209" lon="0.01288">
        <ele>190.870514</ele>
        <time>2022-12-28T14:42:58.791Z</time>
      </trkpt>
      <trkpt lat="44.35208" lon="0.01306">
        <ele>190.774638</ele>
        <time>2022-12-28T14:43:01.750Z</time>
      </trkpt>
      <trkpt lat="44.35207" lon="0.01323">
        <ele>190.680175</ele>
        <time>2022-12-28T14:43:04.750Z</time>
      </trkpt>
      <trkpt lat="44.35207" lon="0.01342">
        <ele>190.58081</ele>
        <time>2022-12-28T14:43:07.757Z</time>
      </trkpt>
      <trkpt lat="44.35206" lon="0.01355">
        <ele>190.51194</ele>
        <time>2022-12-28T14:43:09.815Z</time>
      </trkpt>
      <trkpt lat="44.35204" lon="0.01374">
        <ele>190.408192</ele>
        <time>2022-12-28T14:43:12.760Z</time>
      </trkpt>
      <trkpt lat="44.35204" lon="0.01388">
        <ele>190.332088</ele>
        <time>2022-12-28T14:43:14.761Z</time>
      </trkpt>
      <trkpt lat="44.35203" lon="0.01401">
        <ele>190.259301</ele>
        <time>2022-12-28T14:43:16.750Z</time>
      </trkpt>
      <trkpt lat="44.35201" lon="0.01416">
        <ele>190.179005</ele>
        <time>2022-12-28T14:43:18.749Z</time>
      </trkpt>
      <trkpt lat="44.35201" lon="0.0143">
        <ele>190.112406</ele>
        <time>2022-12-28T14:43:20.756Z</time>
      </trkpt>
      <trkpt lat="44.352" lon="0.01444">
        <ele>190.081613</ele>
        <time>2022-12-28T14:43:22.734Z</time>
      </trkpt>
      <trkpt lat="44.35199" lon="0.01458">
        <ele>190.051589</ele>
        <time>2022-12-28T14:43:24.736Z</time>
      </trkpt>
      <trkpt lat="44.35198" lon="0.01471">
        <ele>190.02221</ele>
        <time>2022-12-28T14:43:26.792Z</time>
      </trkpt>
      <trkpt lat="44.35197" lon="0.01484">
        <ele>189.994029</ele>
        <time>2022-12-28T14:43:28.755Z</time>
      </trkpt>
      <trkpt lat="44.35196" lon="0.01497">
        <ele>189.96534</ele>
        <time>2022-12-28T14:43:30.760Z</time>
      </trkpt>
      <trkpt lat="44.35194" lon="0.0151">
        <ele>189.93577</ele>
        <time>2022-12-28T14:43:32.759Z</time>
      </trkpt>
      <trkpt lat="44.35192" lon="0.01524">
        <ele>189.904259</ele>
        <time>2022-12-28T14:43:34.751Z</time>
      </trkpt>
      <trkpt lat="44.3519" lon="0.01539">
        <ele>189.871668</ele>
        <time>2022-12-28T14:43:36.758Z</time>
      </trkpt>
      <trkpt lat="44.35188" lon="0.01554">
        <ele>189.839441</ele>
        <time>2022-12-28T14:43:38.747Z</time>
      </trkpt>
      <trkpt lat="44.35186" lon="0.01568">
        <ele>189.807646</ele>
        <time>2022-12-28T14:43:40.739Z</time>
      </trkpt>
      <trkpt lat="44.35184" lon="0.01583">
        <ele>189.774466</ele>
        <time>2022-12-28T14:43:42.759Z</time>
      </trkpt>
      <trkpt lat="44.35181" lon="0.01597">
        <ele>189.742269</ele>
        <time>2022-12-28T14:43:44.751Z</time>
      </trkpt>
      <trkpt lat="44.35179" lon="0.01611">
        <ele>189.710256</ele>
        <time>2022-12-28T14:43:46.758Z</time>
      </trkpt>
      <trkpt lat="44.35176" lon="0.01625">
        <ele>189.677611</ele>
        <time>2022-12-28T14:43:48.754Z</time>
      </trkpt>
      <trkpt lat="44.35173" lon="0.01639">
        <ele>189.646377</ele>
        <time>2022-12-28T14:43:50.765Z</time>
      </trkpt>
      <trkpt lat="44.35171" lon="0.01653">
        <ele>189.614981</ele>
        <time>2022-12-28T14:43:52.741Z</time>
      </trkpt>
      <trkpt lat="44.35168" lon="0.01667">
        <ele>189.584608</ele>
        <time>2022-12-28T14:43:54.763Z</time>
      </trkpt>
      <trkpt lat="44.35165" lon="0.0168">
        <ele>189.602803</ele>
        <time>2022-12-28T14:43:56.742Z</time>
      </trkpt>
      <trkpt lat="44.35162" lon="0.01693">
        <ele>189.671457</ele>
        <time>2022-12-28T14:43:58.762Z</time>
      </trkpt>
      <trkpt lat="44.35159" lon="0.01706">
        <ele>189.737804</ele>
        <time>2022-12-28T14:44:00.764Z</time>
      </trkpt>
      <trkpt lat="44.35156" lon="0.01719">
        <ele>189.804229</ele>
        <time>2022-12-28T14:44:02.758Z</time>
      </trkpt>
      <trkpt lat="44.35153" lon="0.01731">
        <ele>189.86992</ele>
        <time>2022-12-28T14:44:04.761Z</time>
      </trkpt>
      <trkpt lat="44.35149" lon="0.01744">
        <ele>189.939161</ele>
        <time>2022-12-28T14:44:06.752Z</time>
      </trkpt>
      <trkpt lat="44.35145" lon="0.01757">
        <ele>190.007872</ele>
        <time>2022-12-28T14:44:08.750Z</time>
      </trkpt>
      <trkpt lat="44.35142" lon="0.0177">
        <ele>190.074442</ele>
        <time>2022-12-28T14:44:10.736Z</time>
      </trkpt>
      <trkpt lat="44.35138" lon="0.01783">
        <ele>190.142861</ele>
        <time>2022-12-28T14:44:12.751Z</time>
      </trkpt>
      <trkpt lat="44.35135" lon="0.01796">
        <ele>190.207594</ele>
        <time>2022-12-28T14:44:14.761Z</time>
      </trkpt>
      <trkpt lat="44.35131" lon="0.01813">
        <ele>190.297946</ele>
        <time>2022-12-28T14:44:17.750Z</time>
      </trkpt>
      <trkpt lat="44.35127" lon="0.0183">
        <ele>190.384363</ele>
        <time>2022-12-28T14:44:20.757Z</time>
      </trkpt>
      <trkpt lat="44.35123" lon="0.01847">
        <ele>190.471675</ele>
        <time>2022-12-28T14:44:23.763Z</time>
      </trkpt>
      <trkpt lat="44.35119" lon="0.01864">
        <ele>190.558748</ele>
        <time>2022-12-28T14:44:26.758Z</time>
      </trkpt>
      <trkpt lat="44.35114" lon="0.0188">
        <ele>190.646098</ele>
        <time>2022-12-28T14:44:29.756Z</time>
      </trkpt>
      <trkpt lat="44.35109" lon="0.01897">
        <ele>190.735774</ele>
        <time>2022-12-28T14:44:32.762Z</time>
      </trkpt>
      <trkpt lat="44.35106" lon="0.0191">
        <ele>190.798686</ele>
        <time>2022-12-28T14:44:34.748Z</time>
      </trkpt>
      <trkpt lat="44.35103" lon="0.01922">
        <ele>190.7377</ele>
        <time>2022-12-28T14:44:36.749Z</time>
      </trkpt>
      <trkpt lat="44.35099" lon="0.0194">
        <ele>190.646382</ele>
        <time>2022-12-28T14:44:39.752Z</time>
      </trkpt>
      <trkpt lat="44.35095" lon="0.01954">
        <ele>190.58002</ele>
        <time>2022-12-28T14:44:41.762Z</time>
      </trkpt>
      <trkpt lat="44.35092" lon="0.01967">
        <ele>190.51386</ele>
        <time>2022-12-28T14:44:43.808Z</time>
      </trkpt>
      <trkpt lat="44.35088" lon="0.0198">
        <ele>190.445593</ele>
        <time>2022-12-28T14:44:45.761Z</time>
      </trkpt>
      <trkpt lat="44.35085" lon="0.01994">
        <ele>190.37691</ele>
        <time>2022-12-28T14:44:47.753Z</time>
      </trkpt>
      <trkpt lat="44.35082" lon="0.02008">
        <ele>190.307046</ele>
        <time>2022-12-28T14:44:49.821Z</time>
      </trkpt>
      <trkpt lat="44.35079" lon="0.02022">
        <ele>190.235738</ele>
        <time>2022-12-28T14:44:51.761Z</time>
      </trkpt>
      <trkpt lat="44.35076" lon="0.02036">
        <ele>190.166403</ele>
        <time>2022-12-28T14:44:53.761Z</time>
      </trkpt>
      <trkpt lat="44.35073" lon="0.0205">
        <ele>190.096082</ele>
        <time>2022-12-28T14:44:55.821Z</time>
      </trkpt>
      <trkpt lat="44.3507" lon="0.02065">
        <ele>190.022965</ele>
        <time>2022-12-28T14:44:57.761Z</time>
      </trkpt>
      <trkpt lat="44.35066" lon="0.02079">
        <ele>189.950249</ele>
        <time>2022-12-28T14:44:59.750Z</time>
      </trkpt>
      <trkpt lat="44.35064" lon="0.02094">
        <ele>189.877516</ele>
        <time>2022-12-28T14:45:01.803Z</time>
      </trkpt>
      <trkpt lat="44.35062" lon="0.0211">
        <ele>189.799702</ele>
        <time>2022-12-28T14:45:03.758Z</time>
      </trkpt>
      <trkpt lat="44.3506" lon="0.02125">
        <ele>189.729838</ele>
        <time>2022-12-28T14:45:05.749Z</time>
      </trkpt>
      <trkpt lat="44.35058" lon="0.0214">
        <ele>189.655774</ele>
        <time>2022-12-28T14:45:07.811Z</time>
      </trkpt>
      <trkpt lat="44.35056" lon="0.02156">
        <ele>189.590616</ele>
        <time>2022-12-28T14:45:09.766Z</time>
      </trkpt>
      <trkpt lat="44.35053" lon="0.0217">
        <ele>189.5559</ele>
        <time>2022-12-28T14:45:11.749Z</time>
      </trkpt>
      <trkpt lat="44.3505" lon="0.02184">
        <ele>189.521371</ele>
        <time>2022-12-28T14:45:13.819Z</time>
      </trkpt>
      <trkpt lat="44.35048" lon="0.02198">
        <ele>189.486487</ele>
        <time>2022-12-28T14:45:15.757Z</time>
      </trkpt>
      <trkpt lat="44.35046" lon="0.02212">
        <ele>189.452768</ele>
        <time>2022-12-28T14:45:17.766Z</time>
      </trkpt>
      <trkpt lat="44.35044" lon="0.02225">
        <ele>189.420525</ele>
        <time>2022-12-28T14:45:19.770Z</time>
      </trkpt>
      <trkpt lat="44.35042" lon="0.02239">
        <ele>189.388686</ele>
        <time>2022-12-28T14:45:21.762Z</time>
      </trkpt>
      <trkpt lat="44.3504" lon="0.02251">
        <ele>189.358528</ele>
        <time>2022-12-28T14:45:23.767Z</time>
      </trkpt>
      <trkpt lat="44.35039" lon="0.02264">
        <ele>189.326743</ele>
        <time>2022-12-28T14:45:25.834Z</time>
      </trkpt>
      <trkpt lat="44.35037" lon="0.02278">
        <ele>189.293508</ele>
        <time>2022-12-28T14:45:27.764Z</time>
      </trkpt>
      <trkpt lat="44.35035" lon="0.02292">
        <ele>189.259792</ele>
        <time>2022-12-28T14:45:29.755Z</time>
      </trkpt>
      <trkpt lat="44.35033" lon="0.02306">
        <ele>189.224969</ele>
        <time>2022-12-28T14:45:31.810Z</time>
      </trkpt>
      <trkpt lat="44.3503" lon="0.02321">
        <ele>189.188934</ele>
        <time>2022-12-28T14:45:33.750Z</time>
      </trkpt>
      <trkpt lat="44.35028" lon="0.02336">
        <ele>189.152844</ele>
        <time>2022-12-28T14:45:35.747Z</time>
      </trkpt>
      <trkpt lat="44.35025" lon="0.02351">
        <ele>189.114288</ele>
        <time>2022-12-28T14:45:37.800Z</time>
      </trkpt>
      <trkpt lat="44.35022" lon="0.02367">
        <ele>189.075115</ele>
        <time>2022-12-28T14:45:39.751Z</time>
      </trkpt>
      <trkpt lat="44.3502" lon="0.02383">
        <ele>189.03756</ele>
        <time>2022-12-28T14:45:41.740Z</time>
      </trkpt>
      <trkpt lat="44.35017" lon="0.02398">
        <ele>189.001537</ele>
        <time>2022-12-28T14:45:43.816Z</time>
      </trkpt>
      <trkpt lat="44.35014" lon="0.02414">
        <ele>188.979671</ele>
        <time>2022-12-28T14:45:45.759Z</time>
      </trkpt>
      <trkpt lat="44.35012" lon="0.0243">
        <ele>188.958387</ele>
        <time>2022-12-28T14:45:47.749Z</time>
      </trkpt>
      <trkpt lat="44.3501" lon="0.02447">
        <ele>188.936781</ele>
        <time>2022-12-28T14:45:49.817Z</time>
      </trkpt>
      <trkpt lat="44.35007" lon="0.02462">
        <ele>188.915122</ele>
        <time>2022-12-28T14:45:51.752Z</time>
      </trkpt>
      <trkpt lat="44.35004" lon="0.02477">
        <ele>188.8947</ele>
        <time>2022-12-28T14:45:53.761Z</time>
      </trkpt>
      <trkpt lat="44.35002" lon="0.02493">
        <ele>188.874518</ele>
        <time>2022-12-28T14:45:55.805Z</time>
      </trkpt>
      <trkpt lat="44.35001" lon="0.02507">
        <ele>188.854742</ele>
        <time>2022-12-28T14:45:57.730Z</time>
      </trkpt>
      <trkpt lat="44.34998" lon="0.02522">
        <ele>188.835522</ele>
        <time>2022-12-28T14:45:59.751Z</time>
      </trkpt>
      <trkpt lat="44.34996" lon="0.02536">
        <ele>188.816303</ele>
        <time>2022-12-28T14:46:01.741Z</time>
      </trkpt>
      <trkpt lat="44.34995" lon="0.02549">
        <ele>188.798645</ele>
        <time>2022-12-28T14:46:03.758Z</time>
      </trkpt>
      <trkpt lat="44.34993" lon="0.02563">
        <ele>188.779852</ele>
        <time>2022-12-28T14:46:05.754Z</time>
      </trkpt>
      <trkpt lat="44.34991" lon="0.02577">
        <ele>188.761613</ele>
        <time>2022-12-28T14:46:07.749Z</time>
      </trkpt>
      <trkpt lat="44.34989" lon="0.02589">
        <ele>188.744689</ele>
        <time>2022-12-28T14:46:09.761Z</time>
      </trkpt>
      <trkpt lat="44.34987" lon="0.02603">
        <ele>188.727084</ele>
        <time>2022-12-28T14:46:11.753Z</time>
      </trkpt>
      <trkpt lat="44.34984" lon="0.02616">
        <ele>188.707836</ele>
        <time>2022-12-28T14:46:13.753Z</time>
      </trkpt>
      <trkpt lat="44.3498" lon="0.0263">
        <ele>188.689149</ele>
        <time>2022-12-28T14:46:15.747Z</time>
      </trkpt>
      <trkpt lat="44.34979" lon="0.02644">
        <ele>188.69054</ele>
        <time>2022-12-28T14:46:17.743Z</time>
      </trkpt>
      <trkpt lat="44.34977" lon="0.02659">
        <ele>188.789908</ele>
        <time>2022-12-28T14:46:19.738Z</time>
      </trkpt>
      <trkpt lat="44.34975" lon="0.02672">
        <ele>188.881294</ele>
        <time>2022-12-28T14:46:21.757Z</time>
      </trkpt>
      <trkpt lat="44.34972" lon="0.02685">
        <ele>188.975405</ele>
        <time>2022-12-28T14:46:23.759Z</time>
      </trkpt>
      <trkpt lat="44.3497" lon="0.02699">
        <ele>189.070817</ele>
        <time>2022-12-28T14:46:25.736Z</time>
      </trkpt>
      <trkpt lat="44.34968" lon="0.02713">
        <ele>189.163666</ele>
        <time>2022-12-28T14:46:27.770Z</time>
      </trkpt>
      <trkpt lat="44.34967" lon="0.02726">
        <ele>189.252476</ele>
        <time>2022-12-28T14:46:29.756Z</time>
      </trkpt>
      <trkpt lat="44.34965" lon="0.02739">
        <ele>189.343821</ele>
        <time>2022-12-28T14:46:31.762Z</time>
      </trkpt>
      <trkpt lat="44.34963" lon="0.02753">
        <ele>189.439069</ele>
        <time>2022-12-28T14:46:33.752Z</time>
      </trkpt>
      <trkpt lat="44.34961" lon="0.02765">
        <ele>189.526627</ele>
        <time>2022-12-28T14:46:35.759Z</time>
      </trkpt>
      <trkpt lat="44.34959" lon="0.02778">
        <ele>189.617137</ele>
        <time>2022-12-28T14:46:37.760Z</time>
      </trkpt>
      <trkpt lat="44.34956" lon="0.02792">
        <ele>189.709962</ele>
        <time>2022-12-28T14:46:39.752Z</time>
      </trkpt>
      <trkpt lat="44.34954" lon="0.02805">
        <ele>189.80603</ele>
        <time>2022-12-28T14:46:41.754Z</time>
      </trkpt>
      <trkpt lat="44.34951" lon="0.02818">
        <ele>189.896634</ele>
        <time>2022-12-28T14:46:43.742Z</time>
      </trkpt>
      <trkpt lat="44.34948" lon="0.02833">
        <ele>189.998401</ele>
        <time>2022-12-28T14:46:45.748Z</time>
      </trkpt>
      <trkpt lat="44.34947" lon="0.02847">
        <ele>190.094392</ele>
        <time>2022-12-28T14:46:47.746Z</time>
      </trkpt>
      <trkpt lat="44.34944" lon="0.02861">
        <ele>190.193734</ele>
        <time>2022-12-28T14:46:49.750Z</time>
      </trkpt>
      <trkpt lat="44.34942" lon="0.02875">
        <ele>190.288397</ele>
        <time>2022-12-28T14:46:51.735Z</time>
      </trkpt>
      <trkpt lat="44.3494" lon="0.0289">
        <ele>190.388962</ele>
        <time>2022-12-28T14:46:53.753Z</time>
      </trkpt>
      <trkpt lat="44.34938" lon="0.02905">
        <ele>190.492085</ele>
        <time>2022-12-28T14:46:55.748Z</time>
      </trkpt>
      <trkpt lat="44.34935" lon="0.0292">
        <ele>190.599915</ele>
        <time>2022-12-28T14:46:57.761Z</time>
      </trkpt>
      <trkpt lat="44.34932" lon="0.02935">
        <ele>190.703368</ele>
        <time>2022-12-28T14:46:59.795Z</time>
      </trkpt>
      <trkpt lat="44.34929" lon="0.02951">
        <ele>190.812025</ele>
        <time>2022-12-28T14:47:01.751Z</time>
      </trkpt>
      <trkpt lat="44.34926" lon="0.02965">
        <ele>190.913568</ele>
        <time>2022-12-28T14:47:03.752Z</time>
      </trkpt>
      <trkpt lat="44.34923" lon="0.02982">
        <ele>191.028544</ele>
        <time>2022-12-28T14:47:05.764Z</time>
      </trkpt>
      <trkpt lat="44.3492" lon="0.02996">
        <ele>191.132293</ele>
        <time>2022-12-28T14:47:07.740Z</time>
      </trkpt>
      <trkpt lat="44.34916" lon="0.03012">
        <ele>191.243366</ele>
        <time>2022-12-28T14:47:09.760Z</time>
      </trkpt>
      <trkpt lat="44.34912" lon="0.03027">
        <ele>191.345486</ele>
        <time>2022-12-28T14:47:11.739Z</time>
      </trkpt>
      <trkpt lat="44.34909" lon="0.03041">
        <ele>191.445408</ele>
        <time>2022-12-28T14:47:13.739Z</time>
      </trkpt>
      <trkpt lat="44.34905" lon="0.03055">
        <ele>191.545338</ele>
        <time>2022-12-28T14:47:15.758Z</time>
      </trkpt>
      <trkpt lat="44.34902" lon="0.03066">
        <ele>191.629524</ele>
        <time>2022-12-28T14:47:17.739Z</time>
      </trkpt>
      <trkpt lat="44.34898" lon="0.03079">
        <ele>191.721485</ele>
        <time>2022-12-28T14:47:19.759Z</time>
      </trkpt>
      <trkpt lat="44.34893" lon="0.03091">
        <ele>191.81625</ele>
        <time>2022-12-28T14:47:21.762Z</time>
      </trkpt>
      <trkpt lat="44.3489" lon="0.03105">
        <ele>191.915842</ele>
        <time>2022-12-28T14:47:23.752Z</time>
      </trkpt>
      <trkpt lat="44.34886" lon="0.03119">
        <ele>192.012484</ele>
        <time>2022-12-28T14:47:25.760Z</time>
      </trkpt>
      <trkpt lat="44.34882" lon="0.03133">
        <ele>192.089599</ele>
        <time>2022-12-28T14:47:27.808Z</time>
      </trkpt>
      <trkpt lat="44.34877" lon="0.03146">
        <ele>192.143691</ele>
        <time>2022-12-28T14:47:29.749Z</time>
      </trkpt>
      <trkpt lat="44.34874" lon="0.03159">
        <ele>192.195926</ele>
        <time>2022-12-28T14:47:31.762Z</time>
      </trkpt>
      <trkpt lat="44.34869" lon="0.03174">
        <ele>192.252775</ele>
        <time>2022-12-28T14:47:33.811Z</time>
      </trkpt>
      <trkpt lat="44.34864" lon="0.03188">
        <ele>192.312053</ele>
        <time>2022-12-28T14:47:35.760Z</time>
      </trkpt>
      <trkpt lat="44.34859" lon="0.03202">
        <ele>192.368261</ele>
        <time>2022-12-28T14:47:37.750Z</time>
      </trkpt>
      <trkpt lat="44.34855" lon="0.03214">
        <ele>192.417601</ele>
        <time>2022-12-28T14:47:39.797Z</time>
      </trkpt>
      <trkpt lat="44.34849" lon="0.03229">
        <ele>192.482518</ele>
        <time>2022-12-28T14:47:41.764Z</time>
      </trkpt>
      <trkpt lat="44.34843" lon="0.03243">
        <ele>192.539775</ele>
        <time>2022-12-28T14:47:43.764Z</time>
      </trkpt>
      <trkpt lat="44.34836" lon="0.03257">
        <ele>192.601405</ele>
        <time>2022-12-28T14:47:45.812Z</time>
      </trkpt>
      <trkpt lat="44.34831" lon="0.0327">
        <ele>192.656954</ele>
        <time>2022-12-28T14:47:47.744Z</time>
      </trkpt>
      <trkpt lat="44.34825" lon="0.03283">
        <ele>192.710519</ele>
        <time>2022-12-28T14:47:49.761Z</time>
      </trkpt>
      <trkpt lat="44.34819" lon="0.03296">
        <ele>192.768911</ele>
        <time>2022-12-28T14:47:51.763Z</time>
      </trkpt>
      <trkpt lat="44.34813" lon="0.03309">
        <ele>192.825665</ele>
        <time>2022-12-28T14:47:53.750Z</time>
      </trkpt>
      <trkpt lat="44.34807" lon="0.03323">
        <ele>192.886736</ele>
        <time>2022-12-28T14:47:55.752Z</time>
      </trkpt>
      <trkpt lat="44.34801" lon="0.03337">
        <ele>192.945703</ele>
        <time>2022-12-28T14:47:57.735Z</time>
      </trkpt>
      <trkpt lat="44.34795" lon="0.0335">
        <ele>192.883068</ele>
        <time>2022-12-28T14:47:59.759Z</time>
      </trkpt>
      <trkpt lat="44.34789" lon="0.03364">
        <ele>192.621233</ele>
        <time>2022-12-28T14:48:01.762Z</time>
      </trkpt>
      <trkpt lat="44.34782" lon="0.03379">
        <ele>192.341011</ele>
        <time>2022-12-28T14:48:03.760Z</time>
      </trkpt>
      <trkpt lat="44.34776" lon="0.03393">
        <ele>192.063351</ele>
        <time>2022-12-28T14:48:05.748Z</time>
      </trkpt>
      <trkpt lat="44.34769" lon="0.03408">
        <ele>191.777853</ele>
        <time>2022-12-28T14:48:07.811Z</time>
      </trkpt>
      <trkpt lat="44.34761" lon="0.03423">
        <ele>191.486182</ele>
        <time>2022-12-28T14:48:09.763Z</time>
      </trkpt>
      <trkpt lat="44.34755" lon="0.03439">
        <ele>191.187572</ele>
        <time>2022-12-28T14:48:11.758Z</time>
      </trkpt>
      <trkpt lat="44.34748" lon="0.03456">
        <ele>190.885604</ele>
        <time>2022-12-28T14:48:13.809Z</time>
      </trkpt>
      <trkpt lat="44.34741" lon="0.03472">
        <ele>190.570103</ele>
        <time>2022-12-28T14:48:15.769Z</time>
      </trkpt>
      <trkpt lat="44.34733" lon="0.03488">
        <ele>190.26757</ele>
        <time>2022-12-28T14:48:17.763Z</time>
      </trkpt>
      <trkpt lat="44.34726" lon="0.03504">
        <ele>189.965837</ele>
        <time>2022-12-28T14:48:19.805Z</time>
      </trkpt>
      <trkpt lat="44.3472" lon="0.03519">
        <ele>189.682514</ele>
        <time>2022-12-28T14:48:21.766Z</time>
      </trkpt>
      <trkpt lat="44.34713" lon="0.03534">
        <ele>189.400764</ele>
        <time>2022-12-28T14:48:23.759Z</time>
      </trkpt>
      <trkpt lat="44.34707" lon="0.03548">
        <ele>189.132131</ele>
        <time>2022-12-28T14:48:25.802Z</time>
      </trkpt>
      <trkpt lat="44.34701" lon="0.03563">
        <ele>188.988322</ele>
        <time>2022-12-28T14:48:27.750Z</time>
      </trkpt>
      <trkpt lat="44.34695" lon="0.03575">
        <ele>189.144982</ele>
        <time>2022-12-28T14:48:29.750Z</time>
      </trkpt>
      <trkpt lat="44.34689" lon="0.03588">
        <ele>189.304709</ele>
        <time>2022-12-28T14:48:31.807Z</time>
      </trkpt>
      <trkpt lat="44.34683" lon="0.03599">
        <ele>189.452587</ele>
        <time>2022-12-28T14:48:33.751Z</time>
      </trkpt>
      <trkpt lat="44.34679" lon="0.03613">
        <ele>189.615297</ele>
        <time>2022-12-28T14:48:35.749Z</time>
      </trkpt>
      <trkpt lat="44.34671" lon="0.03626">
        <ele>189.789701</ele>
        <time>2022-12-28T14:48:37.796Z</time>
      </trkpt>
      <trkpt lat="44.34666" lon="0.03642">
        <ele>189.981805</ele>
        <time>2022-12-28T14:48:40.758Z</time>
      </trkpt>
      <trkpt lat="44.3466" lon="0.03654">
        <ele>190.132056</ele>
        <time>2022-12-28T14:48:42.760Z</time>
      </trkpt>
      <trkpt lat="44.34653" lon="0.0367">
        <ele>190.3256</ele>
        <time>2022-12-28T14:48:45.764Z</time>
      </trkpt>
      <trkpt lat="44.34647" lon="0.03685">
        <ele>190.508835</ele>
        <time>2022-12-28T14:48:48.815Z</time>
      </trkpt>
      <trkpt lat="44.3464" lon="0.03699">
        <ele>190.684785</ele>
        <time>2022-12-28T14:48:51.755Z</time>
      </trkpt>
      <trkpt lat="44.34635" lon="0.03711">
        <ele>190.836789</ele>
        <time>2022-12-28T14:48:54.820Z</time>
      </trkpt>
      <trkpt lat="44.34629" lon="0.03722">
        <ele>190.982036</ele>
        <time>2022-12-28T14:48:57.761Z</time>
      </trkpt>
      <trkpt lat="44.34625" lon="0.03734">
        <ele>191.126401</ele>
        <time>2022-12-28T14:49:00.801Z</time>
      </trkpt>
      <trkpt lat="44.3462" lon="0.03746">
        <ele>191.2669</ele>
        <time>2022-12-28T14:49:03.748Z</time>
      </trkpt>
      <trkpt lat="44.34615" lon="0.03757">
        <ele>191.403922</ele>
        <time>2022-12-28T14:49:06.842Z</time>
      </trkpt>
      <trkpt lat="44.34609" lon="0.03771">
        <ele>191.579615</ele>
        <time>2022-12-28T14:49:10.751Z</time>
      </trkpt>
      <trkpt lat="44.34604" lon="0.03783">
        <ele>191.771069</ele>
        <time>2022-12-28T14:49:13.752Z</time>
      </trkpt>
      <trkpt lat="44.346" lon="0.03794">
        <ele>191.971054</ele>
        <time>2022-12-28T14:49:16.750Z</time>
      </trkpt>
      <trkpt lat="44.34595" lon="0.03804">
        <ele>192.163002</ele>
        <time>2022-12-28T14:49:19.750Z</time>
      </trkpt>
      <trkpt lat="44.34588" lon="0.03816">
        <ele>192.389886</ele>
        <time>2022-12-28T14:49:23.817Z</time>
      </trkpt>
      <trkpt lat="44.34582" lon="0.03828">
        <ele>192.608044</ele>
        <time>2022-12-28T14:49:27.763Z</time>
      </trkpt>
      <trkpt lat="44.34576" lon="0.03841">
        <ele>192.846924</ele>
        <time>2022-12-28T14:49:31.733Z</time>
      </trkpt>
      <trkpt lat="44.34569" lon="0.03855">
        <ele>193.098272</ele>
        <time>2022-12-28T14:49:35.749Z</time>
      </trkpt>
      <trkpt lat="44.34564" lon="0.03865">
        <ele>193.291377</ele>
        <time>2022-12-28T14:49:38.758Z</time>
      </trkpt>
      <trkpt lat="44.34559" lon="0.03875">
        <ele>193.483222</ele>
        <time>2022-12-28T14:49:41.761Z</time>
      </trkpt>
      <trkpt lat="44.34552" lon="0.03889">
        <ele>193.739437</ele>
        <time>2022-12-28T14:49:45.755Z</time>
      </trkpt>
      <trkpt lat="44.34546" lon="0.03899">
        <ele>193.939056</ele>
        <time>2022-12-28T14:49:48.750Z</time>
      </trkpt>
      <trkpt lat="44.34539" lon="0.03909">
        <ele>194.159308</ele>
        <time>2022-12-28T14:49:51.793Z</time>
      </trkpt>
      <trkpt lat="44.34532" lon="0.0392">
        <ele>194.372021</ele>
        <time>2022-12-28T14:49:54.750Z</time>
      </trkpt>
      <trkpt lat="44.34526" lon="0.0393">
        <ele>194.570459</ele>
        <time>2022-12-28T14:49:57.797Z</time>
      </trkpt>
      <trkpt lat="44.34521" lon="0.03941">
        <ele>194.776205</ele>
        <time>2022-12-28T14:50:00.766Z</time>
      </trkpt>
      <trkpt lat="44.34513" lon="0.03954">
        <ele>195.029352</ele>
        <time>2022-12-28T14:50:04.754Z</time>
      </trkpt>
      <trkpt lat="44.34508" lon="0.03964">
        <ele>195.223732</ele>
        <time>2022-12-28T14:50:07.738Z</time>
      </trkpt>
      <trkpt lat="44.34501" lon="0.03978">
        <ele>195.45355</ele>
        <time>2022-12-28T14:50:11.757Z</time>
      </trkpt>
      <trkpt lat="44.34495" lon="0.03988">
        <ele>195.582325</ele>
        <time>2022-12-28T14:50:14.765Z</time>
      </trkpt>
      <trkpt lat="44.34489" lon="0.04">
        <ele>195.717239</ele>
        <time>2022-12-28T14:50:17.753Z</time>
      </trkpt>
      <trkpt lat="44.34483" lon="0.04012">
        <ele>195.857566</ele>
        <time>2022-12-28T14:50:20.806Z</time>
      </trkpt>
      <trkpt lat="44.34477" lon="0.04023">
        <ele>195.99171</ele>
        <time>2022-12-28T14:50:23.760Z</time>
      </trkpt>
      <trkpt lat="44.34472" lon="0.04035">
        <ele>196.124575</ele>
        <time>2022-12-28T14:50:26.794Z</time>
      </trkpt>
      <trkpt lat="44.34465" lon="0.04047">
        <ele>196.267245</ele>
        <time>2022-12-28T14:50:29.761Z</time>
      </trkpt>
      <trkpt lat="44.34458" lon="0.0406">
        <ele>196.42144</ele>
        <time>2022-12-28T14:50:32.824Z</time>
      </trkpt>
      <trkpt lat="44.34451" lon="0.04074">
        <ele>196.578712</ele>
        <time>2022-12-28T14:50:35.750Z</time>
      </trkpt>
      <trkpt lat="44.34444" lon="0.04087">
        <ele>196.740801</ele>
        <time>2022-12-28T14:50:38.812Z</time>
      </trkpt>
      <trkpt lat="44.34436" lon="0.04101">
        <ele>196.909165</ele>
        <time>2022-12-28T14:50:41.759Z</time>
      </trkpt>
      <trkpt lat="44.34428" lon="0.04115">
        <ele>197.070284</ele>
        <time>2022-12-28T14:50:44.800Z</time>
      </trkpt>
      <trkpt lat="44.34421" lon="0.04128">
        <ele>197.235508</ele>
        <time>2022-12-28T14:50:47.754Z</time>
      </trkpt>
      <trkpt lat="44.34413" lon="0.04142">
        <ele>197.403041</ele>
        <time>2022-12-28T14:50:50.802Z</time>
      </trkpt>
      <trkpt lat="44.34406" lon="0.04155">
        <ele>197.549539</ele>
        <time>2022-12-28T14:50:53.760Z</time>
      </trkpt>
      <trkpt lat="44.34401" lon="0.04166">
        <ele>197.677558</ele>
        <time>2022-12-28T14:50:56.793Z</time>
      </trkpt>
      <trkpt lat="44.34394" lon="0.04178">
        <ele>197.798003</ele>
        <time>2022-12-28T14:50:59.753Z</time>
      </trkpt>
      <trkpt lat="44.34387" lon="0.04191">
        <ele>197.76629</ele>
        <time>2022-12-28T14:51:02.755Z</time>
      </trkpt>
      <trkpt lat="44.34381" lon="0.04204">
        <ele>197.732958</ele>
        <time>2022-12-28T14:51:05.760Z</time>
      </trkpt>
      <trkpt lat="44.34373" lon="0.04218">
        <ele>197.697843</ele>
        <time>2022-12-28T14:51:08.759Z</time>
      </trkpt>
      <trkpt lat="44.34365" lon="0.04233">
        <ele>197.66093</ele>
        <time>2022-12-28T14:51:11.764Z</time>
      </trkpt>
      <trkpt lat="44.34357" lon="0.04248">
        <ele>197.624016</ele>
        <time>2022-12-28T14:51:14.759Z</time>
      </trkpt>
      <trkpt lat="44.34351" lon="0.04258">
        <ele>197.598266</ele>
        <time>2022-12-28T14:51:16.762Z</time>
      </trkpt>
      <trkpt lat="44.34346" lon="0.04269">
        <ele>197.572378</ele>
        <time>2022-12-28T14:51:18.737Z</time>
      </trkpt>
      <trkpt lat="44.3434" lon="0.04279">
        <ele>197.546413</ele>
        <time>2022-12-28T14:51:20.765Z</time>
      </trkpt>
      <trkpt lat="44.34333" lon="0.04289">
        <ele>197.518638</ele>
        <time>2022-12-28T14:51:22.751Z</time>
      </trkpt>
      <trkpt lat="44.34325" lon="0.04305">
        <ele>197.480776</ele>
        <time>2022-12-28T14:51:25.761Z</time>
      </trkpt>
      <trkpt lat="44.3432" lon="0.04315">
        <ele>197.455692</ele>
        <time>2022-12-28T14:51:27.738Z</time>
      </trkpt>
      <trkpt lat="44.34314" lon="0.04326">
        <ele>197.428014</ele>
        <time>2022-12-28T14:51:29.760Z</time>
      </trkpt>
      <trkpt lat="44.34309" lon="0.04337">
        <ele>197.402436</ele>
        <time>2022-12-28T14:51:31.829Z</time>
      </trkpt>
      <trkpt lat="44.34303" lon="0.04347">
        <ele>197.375232</ele>
        <time>2022-12-28T14:51:33.750Z</time>
      </trkpt>
      <trkpt lat="44.34298" lon="0.04358">
        <ele>197.349168</ele>
        <time>2022-12-28T14:51:35.766Z</time>
      </trkpt>
      <trkpt lat="44.34292" lon="0.04369">
        <ele>197.32328</ele>
        <time>2022-12-28T14:51:37.821Z</time>
      </trkpt>
      <trkpt lat="44.34286" lon="0.04379">
        <ele>197.282133</ele>
        <time>2022-12-28T14:51:39.761Z</time>
      </trkpt>
      <trkpt lat="44.34279" lon="0.04395">
        <ele>197.128792</ele>
        <time>2022-12-28T14:51:42.759Z</time>
      </trkpt>
      <trkpt lat="44.34273" lon="0.0441">
        <ele>196.9835</ele>
        <time>2022-12-28T14:51:45.758Z</time>
      </trkpt>
      <trkpt lat="44.34266" lon="0.04426">
        <ele>196.829219</ele>
        <time>2022-12-28T14:51:48.797Z</time>
      </trkpt>
      <trkpt lat="44.34261" lon="0.04437">
        <ele>196.721449</ele>
        <time>2022-12-28T14:51:50.754Z</time>
      </trkpt>
      <trkpt lat="44.34256" lon="0.04449">
        <ele>196.60631</ele>
        <time>2022-12-28T14:51:52.755Z</time>
      </trkpt>
      <trkpt lat="44.34251" lon="0.04462">
        <ele>196.486104</ele>
        <time>2022-12-28T14:51:54.744Z</time>
      </trkpt>
      <trkpt lat="44.34246" lon="0.04475">
        <ele>196.360779</ele>
        <time>2022-12-28T14:51:56.743Z</time>
      </trkpt>
      <trkpt lat="44.34241" lon="0.0449">
        <ele>196.226971</ele>
        <time>2022-12-28T14:51:58.754Z</time>
      </trkpt>
      <trkpt lat="44.34237" lon="0.04504">
        <ele>196.097434</ele>
        <time>2022-12-28T14:52:00.765Z</time>
      </trkpt>
      <trkpt lat="44.34232" lon="0.04519">
        <ele>195.964656</ele>
        <time>2022-12-28T14:52:02.759Z</time>
      </trkpt>
      <trkpt lat="44.34227" lon="0.04534">
        <ele>195.827659</ele>
        <time>2022-12-28T14:52:04.756Z</time>
      </trkpt>
      <trkpt lat="44.34222" lon="0.0455">
        <ele>195.689149</ele>
        <time>2022-12-28T14:52:06.764Z</time>
      </trkpt>
      <trkpt lat="44.34218" lon="0.04564">
        <ele>195.558074</ele>
        <time>2022-12-28T14:52:08.763Z</time>
      </trkpt>
      <trkpt lat="44.34214" lon="0.0458">
        <ele>195.419564</ele>
        <time>2022-12-28T14:52:10.756Z</time>
      </trkpt>
      <trkpt lat="44.3421" lon="0.04596">
        <ele>195.275099</ele>
        <time>2022-12-28T14:52:12.756Z</time>
      </trkpt>
      <trkpt lat="44.34206" lon="0.04613">
        <ele>195.283311</ele>
        <time>2022-12-28T14:52:14.753Z</time>
      </trkpt>
      <trkpt lat="44.34202" lon="0.04629">
        <ele>195.380451</ele>
        <time>2022-12-28T14:52:16.738Z</time>
      </trkpt>
      <trkpt lat="44.34197" lon="0.04646">
        <ele>195.481283</ele>
        <time>2022-12-28T14:52:18.761Z</time>
      </trkpt>
      <trkpt lat="44.34193" lon="0.04663">
        <ele>195.579758</ele>
        <time>2022-12-28T14:52:20.756Z</time>
      </trkpt>
      <trkpt lat="44.34189" lon="0.04678">
        <ele>195.674806</ele>
        <time>2022-12-28T14:52:22.764Z</time>
      </trkpt>
      <trkpt lat="44.34185" lon="0.04695">
        <ele>195.769852</ele>
        <time>2022-12-28T14:52:24.755Z</time>
      </trkpt>
      <trkpt lat="44.34181" lon="0.0471">
        <ele>195.86331</ele>
        <time>2022-12-28T14:52:26.750Z</time>
      </trkpt>
      <trkpt lat="44.34177" lon="0.04726">
        <ele>195.955185</ele>
        <time>2022-12-28T14:52:28.761Z</time>
      </trkpt>
      <trkpt lat="44.34174" lon="0.0474">
        <ele>196.041285</ele>
        <time>2022-12-28T14:52:30.737Z</time>
      </trkpt>
      <trkpt lat="44.3417" lon="0.04755">
        <ele>196.1261</ele>
        <time>2022-12-28T14:52:32.759Z</time>
      </trkpt>
      <trkpt lat="44.34165" lon="0.04768">
        <ele>196.210904</ele>
        <time>2022-12-28T14:52:34.756Z</time>
      </trkpt>
      <trkpt lat="44.34161" lon="0.04782">
        <ele>196.296011</ele>
        <time>2022-12-28T14:52:36.744Z</time>
      </trkpt>
      <trkpt lat="44.34157" lon="0.04796">
        <ele>196.379356</ele>
        <time>2022-12-28T14:52:38.759Z</time>
      </trkpt>
      <trkpt lat="44.34153" lon="0.04809">
        <ele>196.460615</ele>
        <time>2022-12-28T14:52:40.828Z</time>
      </trkpt>
      <trkpt lat="44.34148" lon="0.04823">
        <ele>196.543221</ele>
        <time>2022-12-28T14:52:42.760Z</time>
      </trkpt>
      <trkpt lat="44.34143" lon="0.04835">
        <ele>196.625263</ele>
        <time>2022-12-28T14:52:44.763Z</time>
      </trkpt>
      <trkpt lat="44.34137" lon="0.04849">
        <ele>196.117315</ele>
        <time>2022-12-28T14:52:46.818Z</time>
      </trkpt>
      <trkpt lat="44.34131" lon="0.04861">
        <ele>195.598315</ele>
        <time>2022-12-28T14:52:48.763Z</time>
      </trkpt>
      <trkpt lat="44.34125" lon="0.04875">
        <ele>195.047318</ele>
        <time>2022-12-28T14:52:50.764Z</time>
      </trkpt>
      <trkpt lat="44.34119" lon="0.04887">
        <ele>194.553882</ele>
        <time>2022-12-28T14:52:52.828Z</time>
      </trkpt>
      <trkpt lat="44.34114" lon="0.04897">
        <ele>194.115852</ele>
        <time>2022-12-28T14:52:54.754Z</time>
      </trkpt>
      <trkpt lat="44.34108" lon="0.04909">
        <ele>193.630473</ele>
        <time>2022-12-28T14:52:56.751Z</time>
      </trkpt>
      <trkpt lat="44.34103" lon="0.04921">
        <ele>193.131317</ele>
        <time>2022-12-28T14:52:58.786Z</time>
      </trkpt>
      <trkpt lat="44.34096" lon="0.04933">
        <ele>192.631667</ele>
        <time>2022-12-28T14:53:00.765Z</time>
      </trkpt>
      <trkpt lat="44.3409" lon="0.04945">
        <ele>192.115535</ele>
        <time>2022-12-28T14:53:02.761Z</time>
      </trkpt>
      <trkpt lat="44.34084" lon="0.04958">
        <ele>191.588654</ele>
        <time>2022-12-28T14:53:04.761Z</time>
      </trkpt>
      <trkpt lat="44.34077" lon="0.04969">
        <ele>191.068945</ele>
        <time>2022-12-28T14:53:06.761Z</time>
      </trkpt>
      <trkpt lat="44.34071" lon="0.04983">
        <ele>190.507124</ele>
        <time>2022-12-28T14:53:08.764Z</time>
      </trkpt>
      <trkpt lat="44.34064" lon="0.04996">
        <ele>189.971789</ele>
        <time>2022-12-28T14:53:10.768Z</time>
      </trkpt>
      <trkpt lat="44.34058" lon="0.05009">
        <ele>189.428185</ele>
        <time>2022-12-28T14:53:12.761Z</time>
      </trkpt>
      <trkpt lat="44.3405" lon="0.05024">
        <ele>188.81474</ele>
        <time>2022-12-28T14:53:14.763Z</time>
      </trkpt>
      <trkpt lat="44.34043" lon="0.05039">
        <ele>188.181328</ele>
        <time>2022-12-28T14:53:16.760Z</time>
      </trkpt>
      <trkpt lat="44.34035" lon="0.05055">
        <ele>187.161451</ele>
        <time>2022-12-28T14:53:18.762Z</time>
      </trkpt>
      <trkpt lat="44.34028" lon="0.0507">
        <ele>186.163936</ele>
        <time>2022-12-28T14:53:20.766Z</time>
      </trkpt>
      <trkpt lat="44.34021" lon="0.05085">
        <ele>185.157426</ele>
        <time>2022-12-28T14:53:22.758Z</time>
      </trkpt>
      <trkpt lat="44.34014" lon="0.051">
        <ele>184.15883</ele>
        <time>2022-12-28T14:53:24.749Z</time>
      </trkpt>
      <trkpt lat="44.34007" lon="0.05116">
        <ele>183.143313</ele>
        <time>2022-12-28T14:53:26.760Z</time>
      </trkpt>
      <trkpt lat="44.33999" lon="0.05131">
        <ele>182.087231</ele>
        <time>2022-12-28T14:53:28.763Z</time>
      </trkpt>
      <trkpt lat="44.33991" lon="0.05147">
        <ele>180.957742</ele>
        <time>2022-12-28T14:53:30.760Z</time>
      </trkpt>
      <trkpt lat="44.33984" lon="0.05163">
        <ele>179.880429</ele>
        <time>2022-12-28T14:53:32.754Z</time>
      </trkpt>
      <trkpt lat="44.33975" lon="0.05179">
        <ele>178.783086</ele>
        <time>2022-12-28T14:53:34.755Z</time>
      </trkpt>
      <trkpt lat="44.33968" lon="0.05197">
        <ele>177.63578</ele>
        <time>2022-12-28T14:53:36.737Z</time>
      </trkpt>
      <trkpt lat="44.33959" lon="0.05215">
        <ele>176.391539</ele>
        <time>2022-12-28T14:53:38.749Z</time>
      </trkpt>
      <trkpt lat="44.33951" lon="0.05233">
        <ele>175.20248</ele>
        <time>2022-12-28T14:53:40.756Z</time>
      </trkpt>
      <trkpt lat="44.33942" lon="0.05251">
        <ele>173.958236</ele>
        <time>2022-12-28T14:53:42.758Z</time>
      </trkpt>
      <trkpt lat="44.33933" lon="0.05269">
        <ele>172.780023</ele>
        <time>2022-12-28T14:53:44.815Z</time>
      </trkpt>
      <trkpt lat="44.33924" lon="0.05287">
        <ele>171.554234</ele>
        <time>2022-12-28T14:53:46.759Z</time>
      </trkpt>
      <trkpt lat="44.33915" lon="0.05306">
        <ele>170.315337</ele>
        <time>2022-12-28T14:53:48.763Z</time>
      </trkpt>
      <trkpt lat="44.33906" lon="0.05325">
        <ele>169.071627</ele>
        <time>2022-12-28T14:53:50.802Z</time>
      </trkpt>
      <trkpt lat="44.33897" lon="0.05344">
        <ele>167.801464</ele>
        <time>2022-12-28T14:53:52.755Z</time>
      </trkpt>
      <trkpt lat="44.33887" lon="0.05363">
        <ele>166.540356</ele>
        <time>2022-12-28T14:53:54.760Z</time>
      </trkpt>
      <trkpt lat="44.33878" lon="0.05383">
        <ele>165.230433</ele>
        <time>2022-12-28T14:53:56.807Z</time>
      </trkpt>
      <trkpt lat="44.33868" lon="0.05402">
        <ele>163.947106</ele>
        <time>2022-12-28T14:53:58.752Z</time>
      </trkpt>
      <trkpt lat="44.33858" lon="0.05421">
        <ele>162.650547</ele>
        <time>2022-12-28T14:54:00.742Z</time>
      </trkpt>
      <trkpt lat="44.33853" lon="0.05432">
        <ele>161.955521</ele>
        <time>2022-12-28T14:54:01.760Z</time>
      </trkpt>
      <trkpt lat="44.33844" lon="0.05452">
        <ele>160.627063</ele>
        <time>2022-12-28T14:54:03.745Z</time>
      </trkpt>
      <trkpt lat="44.33834" lon="0.05472">
        <ele>159.627559</ele>
        <time>2022-12-28T14:54:05.764Z</time>
      </trkpt>
      <trkpt lat="44.33824" lon="0.05491">
        <ele>158.844082</ele>
        <time>2022-12-28T14:54:07.763Z</time>
      </trkpt>
      <trkpt lat="44.33815" lon="0.05511">
        <ele>158.036074</ele>
        <time>2022-12-28T14:54:09.742Z</time>
      </trkpt>
      <trkpt lat="44.33805" lon="0.0553">
        <ele>157.255466</ele>
        <time>2022-12-28T14:54:11.763Z</time>
      </trkpt>
      <trkpt lat="44.33795" lon="0.05549">
        <ele>156.474817</ele>
        <time>2022-12-28T14:54:13.757Z</time>
      </trkpt>
      <trkpt lat="44.33786" lon="0.05569">
        <ele>155.666942</ele>
        <time>2022-12-28T14:54:15.756Z</time>
      </trkpt>
      <trkpt lat="44.33775" lon="0.0559">
        <ele>154.826691</ele>
        <time>2022-12-28T14:54:17.745Z</time>
      </trkpt>
      <trkpt lat="44.33765" lon="0.0561">
        <ele>154.002701</ele>
        <time>2022-12-28T14:54:19.746Z</time>
      </trkpt>
      <trkpt lat="44.3376" lon="0.05621">
        <ele>153.579747</ele>
        <time>2022-12-28T14:54:20.746Z</time>
      </trkpt>
      <trkpt lat="44.3375" lon="0.05641">
        <ele>152.774698</ele>
        <time>2022-12-28T14:54:22.762Z</time>
      </trkpt>
      <trkpt lat="44.3374" lon="0.0566">
        <ele>151.980331</ele>
        <time>2022-12-28T14:54:24.761Z</time>
      </trkpt>
      <trkpt lat="44.33731" lon="0.0568">
        <ele>151.382006</ele>
        <time>2022-12-28T14:54:26.762Z</time>
      </trkpt>
      <trkpt lat="44.33721" lon="0.057">
        <ele>150.863266</ele>
        <time>2022-12-28T14:54:28.760Z</time>
      </trkpt>
      <trkpt lat="44.33712" lon="0.05719">
        <ele>150.349606</ele>
        <time>2022-12-28T14:54:30.762Z</time>
      </trkpt>
      <trkpt lat="44.33702" lon="0.05738">
        <ele>149.846501</ele>
        <time>2022-12-28T14:54:32.764Z</time>
      </trkpt>
      <trkpt lat="44.33692" lon="0.05757">
        <ele>149.352072</ele>
        <time>2022-12-28T14:54:34.758Z</time>
      </trkpt>
      <trkpt lat="44.33682" lon="0.05774">
        <ele>148.88132</ele>
        <time>2022-12-28T14:54:36.738Z</time>
      </trkpt>
      <trkpt lat="44.33671" lon="0.05792">
        <ele>148.379205</ele>
        <time>2022-12-28T14:54:38.759Z</time>
      </trkpt>
      <trkpt lat="44.33661" lon="0.05808">
        <ele>147.909305</ele>
        <time>2022-12-28T14:54:40.761Z</time>
      </trkpt>
      <trkpt lat="44.3365" lon="0.05824">
        <ele>147.437916</ele>
        <time>2022-12-28T14:54:42.806Z</time>
      </trkpt>
      <trkpt lat="44.33639" lon="0.0584">
        <ele>146.968015</ele>
        <time>2022-12-28T14:54:44.764Z</time>
      </trkpt>
      <trkpt lat="44.33629" lon="0.05855">
        <ele>146.51007</ele>
        <time>2022-12-28T14:54:46.753Z</time>
      </trkpt>
      <trkpt lat="44.33618" lon="0.0587">
        <ele>145.868221</ele>
        <time>2022-12-28T14:54:48.843Z</time>
      </trkpt>
      <trkpt lat="44.33608" lon="0.05884">
        <ele>145.093836</ele>
        <time>2022-12-28T14:54:50.762Z</time>
      </trkpt>
      <trkpt lat="44.33597" lon="0.05898">
        <ele>144.308728</ele>
        <time>2022-12-28T14:54:52.750Z</time>
      </trkpt>
      <trkpt lat="44.33587" lon="0.05913">
        <ele>143.513741</ele>
        <time>2022-12-28T14:54:54.805Z</time>
      </trkpt>
      <trkpt lat="44.33577" lon="0.05927">
        <ele>142.726301</ele>
        <time>2022-12-28T14:54:56.763Z</time>
      </trkpt>
      <trkpt lat="44.33566" lon="0.05942">
        <ele>141.949798</ele>
        <time>2022-12-28T14:54:58.739Z</time>
      </trkpt>
      <trkpt lat="44.33556" lon="0.05956">
        <ele>141.186919</ele>
        <time>2022-12-28T14:55:00.784Z</time>
      </trkpt>
      <trkpt lat="44.33546" lon="0.05969">
        <ele>140.430893</ele>
        <time>2022-12-28T14:55:02.738Z</time>
      </trkpt>
      <trkpt lat="44.33536" lon="0.05983">
        <ele>139.648739</ele>
        <time>2022-12-28T14:55:04.735Z</time>
      </trkpt>
      <trkpt lat="44.33525" lon="0.05997">
        <ele>138.878203</ele>
        <time>2022-12-28T14:55:06.801Z</time>
      </trkpt>
      <trkpt lat="44.33515" lon="0.06011">
        <ele>138.137553</ele>
        <time>2022-12-28T14:55:08.759Z</time>
      </trkpt>
      <trkpt lat="44.33505" lon="0.06024">
        <ele>137.406354</ele>
        <time>2022-12-28T14:55:10.750Z</time>
      </trkpt>
      <trkpt lat="44.33496" lon="0.06038">
        <ele>136.66881</ele>
        <time>2022-12-28T14:55:12.814Z</time>
      </trkpt>
      <trkpt lat="44.33485" lon="0.06052">
        <ele>136.067324</ele>
        <time>2022-12-28T14:55:14.761Z</time>
      </trkpt>
      <trkpt lat="44.33475" lon="0.06066">
        <ele>135.488589</ele>
        <time>2022-12-28T14:55:16.762Z</time>
      </trkpt>
      <trkpt lat="44.33465" lon="0.0608">
        <ele>134.901683</ele>
        <time>2022-12-28T14:55:18.808Z</time>
      </trkpt>
      <trkpt lat="44.33455" lon="0.06094">
        <ele>134.300681</ele>
        <time>2022-12-28T14:55:20.730Z</time>
      </trkpt>
      <trkpt lat="44.33445" lon="0.06109">
        <ele>133.697796</ele>
        <time>2022-12-28T14:55:22.752Z</time>
      </trkpt>
      <trkpt lat="44.33434" lon="0.06124">
        <ele>133.077705</ele>
        <time>2022-12-28T14:55:24.809Z</time>
      </trkpt>
      <trkpt lat="44.33423" lon="0.0614">
        <ele>132.42097</ele>
        <time>2022-12-28T14:55:26.753Z</time>
      </trkpt>
      <trkpt lat="44.33411" lon="0.06156">
        <ele>131.759789</ele>
        <time>2022-12-28T14:55:28.762Z</time>
      </trkpt>
      <trkpt lat="44.334" lon="0.06172">
        <ele>131.092767</ele>
        <time>2022-12-28T14:55:30.808Z</time>
      </trkpt>
      <trkpt lat="44.33388" lon="0.06188">
        <ele>130.425746</ele>
        <time>2022-12-28T14:55:32.763Z</time>
      </trkpt>
      <trkpt lat="44.33377" lon="0.06204">
        <ele>129.763306</ele>
        <time>2022-12-28T14:55:34.763Z</time>
      </trkpt>
      <trkpt lat="44.33366" lon="0.06221">
        <ele>129.146337</ele>
        <time>2022-12-28T14:55:36.818Z</time>
      </trkpt>
      <trkpt lat="44.33354" lon="0.06239">
        <ele>128.647209</ele>
        <time>2022-12-28T14:55:38.742Z</time>
      </trkpt>
      <trkpt lat="44.33342" lon="0.06255">
        <ele>128.141183</ele>
        <time>2022-12-28T14:55:40.765Z</time>
      </trkpt>
      <trkpt lat="44.3333" lon="0.06273">
        <ele>127.631878</ele>
        <time>2022-12-28T14:55:42.816Z</time>
      </trkpt>
      <trkpt lat="44.33318" lon="0.0629">
        <ele>127.117846</ele>
        <time>2022-12-28T14:55:44.764Z</time>
      </trkpt>
      <trkpt lat="44.33306" lon="0.06308">
        <ele>126.604515</ele>
        <time>2022-12-28T14:55:46.755Z</time>
      </trkpt>
      <trkpt lat="44.33294" lon="0.06325">
        <ele>126.105384</ele>
        <time>2022-12-28T14:55:48.819Z</time>
      </trkpt>
      <trkpt lat="44.33283" lon="0.06343">
        <ele>125.614356</ele>
        <time>2022-12-28T14:55:50.758Z</time>
      </trkpt>
      <trkpt lat="44.33273" lon="0.0636">
        <ele>125.146684</ele>
        <time>2022-12-28T14:55:52.759Z</time>
      </trkpt>
      <trkpt lat="44.33263" lon="0.06377">
        <ele>124.685799</ele>
        <time>2022-12-28T14:55:54.806Z</time>
      </trkpt>
      <trkpt lat="44.33254" lon="0.06393">
        <ele>124.252366</ele>
        <time>2022-12-28T14:55:56.761Z</time>
      </trkpt>
      <trkpt lat="44.33245" lon="0.0641">
        <ele>123.874132</ele>
        <time>2022-12-28T14:55:58.761Z</time>
      </trkpt>
      <trkpt lat="44.33237" lon="0.06427">
        <ele>123.60163</ele>
        <time>2022-12-28T14:56:00.842Z</time>
      </trkpt>
      <trkpt lat="44.33228" lon="0.06443">
        <ele>123.333469</ele>
        <time>2022-12-28T14:56:02.762Z</time>
      </trkpt>
      <trkpt lat="44.33219" lon="0.06459">
        <ele>123.060967</ele>
        <time>2022-12-28T14:56:04.763Z</time>
      </trkpt>
      <trkpt lat="44.33211" lon="0.06475">
        <ele>122.804864</ele>
        <time>2022-12-28T14:56:06.763Z</time>
      </trkpt>
      <trkpt lat="44.33204" lon="0.06489">
        <ele>122.56615</ele>
        <time>2022-12-28T14:56:08.764Z</time>
      </trkpt>
      <trkpt lat="44.33197" lon="0.06504">
        <ele>122.322022</ele>
        <time>2022-12-28T14:56:10.739Z</time>
      </trkpt>
      <trkpt lat="44.33189" lon="0.06517">
        <ele>122.091414</ele>
        <time>2022-12-28T14:56:12.764Z</time>
      </trkpt>
      <trkpt lat="44.33181" lon="0.06531">
        <ele>121.853409</ele>
        <time>2022-12-28T14:56:14.764Z</time>
      </trkpt>
      <trkpt lat="44.33173" lon="0.06544">
        <ele>121.618513</ele>
        <time>2022-12-28T14:56:16.753Z</time>
      </trkpt>
      <trkpt lat="44.33164" lon="0.06557">
        <ele>121.381927</ele>
        <time>2022-12-28T14:56:18.762Z</time>
      </trkpt>
      <trkpt lat="44.33156" lon="0.06569">
        <ele>121.160165</ele>
        <time>2022-12-28T14:56:20.761Z</time>
      </trkpt>
      <trkpt lat="44.33147" lon="0.06582">
        <ele>120.922606</ele>
        <time>2022-12-28T14:56:22.763Z</time>
      </trkpt>
      <trkpt lat="44.33138" lon="0.06594">
        <ele>120.695112</ele>
        <time>2022-12-28T14:56:24.743Z</time>
      </trkpt>
      <trkpt lat="44.33129" lon="0.06606">
        <ele>120.685611</ele>
        <time>2022-12-28T14:56:26.754Z</time>
      </trkpt>
      <trkpt lat="44.33119" lon="0.06617">
        <ele>120.762527</ele>
        <time>2022-12-28T14:56:28.750Z</time>
      </trkpt>
      <trkpt lat="44.33108" lon="0.06628">
        <ele>120.84306</ele>
        <time>2022-12-28T14:56:30.745Z</time>
      </trkpt>
      <trkpt lat="44.33098" lon="0.06639">
        <ele>120.921105</ele>
        <time>2022-12-28T14:56:32.754Z</time>
      </trkpt>
      <trkpt lat="44.33088" lon="0.06647">
        <ele>120.994692</ele>
        <time>2022-12-28T14:56:34.758Z</time>
      </trkpt>
      <trkpt lat="44.33077" lon="0.06656">
        <ele>121.070592</ele>
        <time>2022-12-28T14:56:36.762Z</time>
      </trkpt>
      <trkpt lat="44.33067" lon="0.06666">
        <ele>121.148855</ele>
        <time>2022-12-28T14:56:38.762Z</time>
      </trkpt>
      <trkpt lat="44.33056" lon="0.06675">
        <ele>121.223863</ele>
        <time>2022-12-28T14:56:40.747Z</time>
      </trkpt>
      <trkpt lat="44.33047" lon="0.06681">
        <ele>121.286754</ele>
        <time>2022-12-28T14:56:42.738Z</time>
      </trkpt>
      <trkpt lat="44.33037" lon="0.06688">
        <ele>121.352274</ele>
        <time>2022-12-28T14:56:44.758Z</time>
      </trkpt>
      <trkpt lat="44.33029" lon="0.06695">
        <ele>121.409283</ele>
        <time>2022-12-28T14:56:46.761Z</time>
      </trkpt>
      <trkpt lat="44.33018" lon="0.06704">
        <ele>121.490157</ele>
        <time>2022-12-28T14:56:49.763Z</time>
      </trkpt>
      <trkpt lat="44.3301" lon="0.06711">
        <ele>121.547232</ele>
        <time>2022-12-28T14:56:51.762Z</time>
      </trkpt>
      <trkpt lat="44.32999" lon="0.06719">
        <ele>121.624153</ele>
        <time>2022-12-28T14:56:54.749Z</time>
      </trkpt>
      <trkpt lat="44.32988" lon="0.06727">
        <ele>121.698349</ele>
        <time>2022-12-28T14:56:57.761Z</time>
      </trkpt>
      <trkpt lat="44.32979" lon="0.06734">
        <ele>121.844353</ele>
        <time>2022-12-28T14:57:00.732Z</time>
      </trkpt>
      <trkpt lat="44.32971" lon="0.06741">
        <ele>122.064413</ele>
        <time>2022-12-28T14:57:03.763Z</time>
      </trkpt>
      <trkpt lat="44.32963" lon="0.06748">
        <ele>122.274072</ele>
        <time>2022-12-28T14:57:06.749Z</time>
      </trkpt>
      <trkpt lat="44.32955" lon="0.06755">
        <ele>122.475708</ele>
        <time>2022-12-28T14:57:09.763Z</time>
      </trkpt>
      <trkpt lat="44.32946" lon="0.06762">
        <ele>122.70624</ele>
        <time>2022-12-28T14:57:12.762Z</time>
      </trkpt>
      <trkpt lat="44.32937" lon="0.06768">
        <ele>122.925321</ele>
        <time>2022-12-28T14:57:15.764Z</time>
      </trkpt>
      <trkpt lat="44.32928" lon="0.06776">
        <ele>123.15826</ele>
        <time>2022-12-28T14:57:18.739Z</time>
      </trkpt>
      <trkpt lat="44.32919" lon="0.06783">
        <ele>123.390117</ele>
        <time>2022-12-28T14:57:21.750Z</time>
      </trkpt>
      <trkpt lat="44.32911" lon="0.0679">
        <ele>123.606245</ele>
        <time>2022-12-28T14:57:24.762Z</time>
      </trkpt>
      <trkpt lat="44.32902" lon="0.06798">
        <ele>123.830207</ele>
        <time>2022-12-28T14:57:27.761Z</time>
      </trkpt>
      <trkpt lat="44.32894" lon="0.06806">
        <ele>124.065326</ele>
        <time>2022-12-28T14:57:30.754Z</time>
      </trkpt>
      <trkpt lat="44.32885" lon="0.06814">
        <ele>124.295865</ele>
        <time>2022-12-28T14:57:33.758Z</time>
      </trkpt>
      <trkpt lat="44.32877" lon="0.06823">
        <ele>124.52718</ele>
        <time>2022-12-28T14:57:36.759Z</time>
      </trkpt>
      <trkpt lat="44.32869" lon="0.06832">
        <ele>124.754754</ele>
        <time>2022-12-28T14:57:39.752Z</time>
      </trkpt>
      <trkpt lat="44.32861" lon="0.06842">
        <ele>124.990188</ele>
        <time>2022-12-28T14:57:42.761Z</time>
      </trkpt>
      <trkpt lat="44.32853" lon="0.06852">
        <ele>125.231492</ele>
        <time>2022-12-28T14:57:45.761Z</time>
      </trkpt>
      <trkpt lat="44.32845" lon="0.06863">
        <ele>125.483911</ele>
        <time>2022-12-28T14:57:48.761Z</time>
      </trkpt>
      <trkpt lat="44.32837" lon="0.06875">
        <ele>125.73279</ele>
        <time>2022-12-28T14:57:51.843Z</time>
      </trkpt>
      <trkpt lat="44.32829" lon="0.06886">
        <ele>125.821381</ele>
        <time>2022-12-28T14:57:54.771Z</time>
      </trkpt>
      <trkpt lat="44.32823" lon="0.06898">
        <ele>125.902736</ele>
        <time>2022-12-28T14:57:57.739Z</time>
      </trkpt>
      <trkpt lat="44.32816" lon="0.06909">
        <ele>125.98746</ele>
        <time>2022-12-28T14:58:00.763Z</time>
      </trkpt>
      <trkpt lat="44.32808" lon="0.0692">
        <ele>126.084678</ele>
        <time>2022-12-28T14:58:03.765Z</time>
      </trkpt>
      <trkpt lat="44.328" lon="0.06934">
        <ele>126.18481</ele>
        <time>2022-12-28T14:58:06.754Z</time>
      </trkpt>
      <trkpt lat="44.32792" lon="0.06948">
        <ele>126.28865</ele>
        <time>2022-12-28T14:58:09.762Z</time>
      </trkpt>
      <trkpt lat="44.32786" lon="0.06959">
        <ele>126.362587</ele>
        <time>2022-12-28T14:58:11.762Z</time>
      </trkpt>
      <trkpt lat="44.32781" lon="0.06969">
        <ele>126.437429</ele>
        <time>2022-12-28T14:58:13.753Z</time>
      </trkpt>
      <trkpt lat="44.32775" lon="0.06979">
        <ele>126.511782</ele>
        <time>2022-12-28T14:58:15.754Z</time>
      </trkpt>
      <trkpt lat="44.32769" lon="0.0699">
        <ele>126.589397</ele>
        <time>2022-12-28T14:58:17.760Z</time>
      </trkpt>
      <trkpt lat="44.32763" lon="0.07">
        <ele>126.665806</ele>
        <time>2022-12-28T14:58:19.764Z</time>
      </trkpt>
      <trkpt lat="44.32757" lon="0.07011">
        <ele>126.744851</ele>
        <time>2022-12-28T14:58:21.750Z</time>
      </trkpt>
      <trkpt lat="44.32751" lon="0.07023">
        <ele>126.828996</ele>
        <time>2022-12-28T14:58:23.761Z</time>
      </trkpt>
      <trkpt lat="44.32745" lon="0.07034">
        <ele>126.906124</ele>
        <time>2022-12-28T14:58:25.740Z</time>
      </trkpt>
      <trkpt lat="44.3274" lon="0.07046">
        <ele>126.989834</ele>
        <time>2022-12-28T14:58:27.759Z</time>
      </trkpt>
      <trkpt lat="44.32734" lon="0.07057">
        <ele>127.069825</ele>
        <time>2022-12-28T14:58:29.764Z</time>
      </trkpt>
      <trkpt lat="44.32727" lon="0.07068">
        <ele>127.152714</ele>
        <time>2022-12-28T14:58:31.760Z</time>
      </trkpt>
      <trkpt lat="44.32721" lon="0.0708">
        <ele>126.956561</ele>
        <time>2022-12-28T14:58:33.760Z</time>
      </trkpt>
      <trkpt lat="44.32714" lon="0.07091">
        <ele>126.669653</ele>
        <time>2022-12-28T14:58:35.733Z</time>
      </trkpt>
      <trkpt lat="44.32709" lon="0.07102">
        <ele>126.405181</ele>
        <time>2022-12-28T14:58:37.751Z</time>
      </trkpt>
      <trkpt lat="44.32702" lon="0.07114">
        <ele>126.110548</ele>
        <time>2022-12-28T14:58:39.756Z</time>
      </trkpt>
      <trkpt lat="44.32696" lon="0.07125">
        <ele>125.849151</ele>
        <time>2022-12-28T14:58:41.811Z</time>
      </trkpt>
      <trkpt lat="44.3269" lon="0.07137">
        <ele>125.567264</ele>
        <time>2022-12-28T14:58:43.751Z</time>
      </trkpt>
      <trkpt lat="44.32685" lon="0.07149">
        <ele>125.283377</ele>
        <time>2022-12-28T14:58:45.759Z</time>
      </trkpt>
      <trkpt lat="44.32677" lon="0.07162">
        <ele>124.950954</ele>
        <time>2022-12-28T14:58:47.784Z</time>
      </trkpt>
      <trkpt lat="44.3267" lon="0.07175">
        <ele>124.627827</ele>
        <time>2022-12-28T14:58:49.763Z</time>
      </trkpt>
      <trkpt lat="44.32662" lon="0.07189">
        <ele>124.297901</ele>
        <time>2022-12-28T14:58:51.765Z</time>
      </trkpt>
      <trkpt lat="44.32654" lon="0.07202">
        <ele>123.951579</ele>
        <time>2022-12-28T14:58:53.819Z</time>
      </trkpt>
      <trkpt lat="44.32646" lon="0.07216">
        <ele>123.607725</ele>
        <time>2022-12-28T14:58:55.758Z</time>
      </trkpt>
      <trkpt lat="44.32638" lon="0.0723">
        <ele>123.257461</ele>
        <time>2022-12-28T14:58:57.744Z</time>
      </trkpt>
      <trkpt lat="44.32631" lon="0.07244">
        <ele>122.924835</ele>
        <time>2022-12-28T14:58:59.779Z</time>
      </trkpt>
      <trkpt lat="44.32623" lon="0.07258">
        <ele>122.585828</ele>
        <time>2022-12-28T14:59:01.762Z</time>
      </trkpt>
      <trkpt lat="44.32615" lon="0.07272">
        <ele>122.233059</ele>
        <time>2022-12-28T14:59:03.737Z</time>
      </trkpt>
      <trkpt lat="44.32607" lon="0.07286">
        <ele>121.869213</ele>
        <time>2022-12-28T14:59:05.747Z</time>
      </trkpt>
      <trkpt lat="44.326" lon="0.07299">
        <ele>121.52689</ele>
        <time>2022-12-28T14:59:07.758Z</time>
      </trkpt>
      <trkpt lat="44.32592" lon="0.07311">
        <ele>121.191722</ele>
        <time>2022-12-28T14:59:09.762Z</time>
      </trkpt>
      <trkpt lat="44.32584" lon="0.07325">
        <ele>120.836596</ele>
        <time>2022-12-28T14:59:11.804Z</time>
      </trkpt>
      <trkpt lat="44.32576" lon="0.07337">
        <ele>120.474921</ele>
        <time>2022-12-28T14:59:13.753Z</time>
      </trkpt>
      <trkpt lat="44.32567" lon="0.0735">
        <ele>120.117131</ele>
        <time>2022-12-28T14:59:15.751Z</time>
      </trkpt>
      <trkpt lat="44.32557" lon="0.07361">
        <ele>119.738386</ele>
        <time>2022-12-28T14:59:17.815Z</time>
      </trkpt>
      <trkpt lat="44.32546" lon="0.07372">
        <ele>119.37322</ele>
        <time>2022-12-28T14:59:19.753Z</time>
      </trkpt>
      <trkpt lat="44.32536" lon="0.07381">
        <ele>119.02405</ele>
        <time>2022-12-28T14:59:21.763Z</time>
      </trkpt>
      <trkpt lat="44.32526" lon="0.0739">
        <ele>118.682176</ele>
        <time>2022-12-28T14:59:23.765Z</time>
      </trkpt>
      <trkpt lat="44.32516" lon="0.07398">
        <ele>118.349767</ele>
        <time>2022-12-28T14:59:25.754Z</time>
      </trkpt>
      <trkpt lat="44.32505" lon="0.07405">
        <ele>118.014676</ele>
        <time>2022-12-28T14:59:27.764Z</time>
      </trkpt>
      <trkpt lat="44.32495" lon="0.07413">
        <ele>117.69126</ele>
        <time>2022-12-28T14:59:29.736Z</time>
      </trkpt>
      <trkpt lat="44.32486" lon="0.07421">
        <ele>117.368826</ele>
        <time>2022-12-28T14:59:31.758Z</time>
      </trkpt>
      <trkpt lat="44.32476" lon="0.07429">
        <ele>117.036071</ele>
        <time>2022-12-28T14:59:33.754Z</time>
      </trkpt>
      <trkpt lat="44.32465" lon="0.07438">
        <ele>116.657616</ele>
        <time>2022-12-28T14:59:35.756Z</time>
      </trkpt>
      <trkpt lat="44.32456" lon="0.07446">
        <ele>116.330607</ele>
        <time>2022-12-28T14:59:37.752Z</time>
      </trkpt>
      <trkpt lat="44.32445" lon="0.07453">
        <ele>115.970472</ele>
        <time>2022-12-28T14:59:39.755Z</time>
      </trkpt>
      <trkpt lat="44.32436" lon="0.0746">
        <ele>115.633168</ele>
        <time>2022-12-28T14:59:41.761Z</time>
      </trkpt>
      <trkpt lat="44.32426" lon="0.07465">
        <ele>115.30964</ele>
        <time>2022-12-28T14:59:43.757Z</time>
      </trkpt>
      <trkpt lat="44.32416" lon="0.07472">
        <ele>114.970768</ele>
        <time>2022-12-28T14:59:45.766Z</time>
      </trkpt>
      <trkpt lat="44.32406" lon="0.0748">
        <ele>114.626605</ele>
        <time>2022-12-28T14:59:47.743Z</time>
      </trkpt>
      <trkpt lat="44.32395" lon="0.07488">
        <ele>114.253715</ele>
        <time>2022-12-28T14:59:49.761Z</time>
      </trkpt>
      <trkpt lat="44.32385" lon="0.07497">
        <ele>113.877629</ele>
        <time>2022-12-28T14:59:51.762Z</time>
      </trkpt>
      <trkpt lat="44.32374" lon="0.07506">
        <ele>113.495622</ele>
        <time>2022-12-28T14:59:53.761Z</time>
      </trkpt>
      <trkpt lat="44.32363" lon="0.07514">
        <ele>113.123736</ele>
        <time>2022-12-28T14:59:55.757Z</time>
      </trkpt>
      <trkpt lat="44.32353" lon="0.07523">
        <ele>112.754848</ele>
        <time>2022-12-28T14:59:57.760Z</time>
      </trkpt>
      <trkpt lat="44.32343" lon="0.07531">
        <ele>112.394186</ele>
        <time>2022-12-28T14:59:59.744Z</time>
      </trkpt>
      <trkpt lat="44.32333" lon="0.07538">
        <ele>112.0597</ele>
        <time>2022-12-28T15:00:01.758Z</time>
      </trkpt>
      <trkpt lat="44.32324" lon="0.07545">
        <ele>111.747069</ele>
        <time>2022-12-28T15:00:03.760Z</time>
      </trkpt>
      <trkpt lat="44.32315" lon="0.07553">
        <ele>111.533151</ele>
        <time>2022-12-28T15:00:05.753Z</time>
      </trkpt>
      <trkpt lat="44.32306" lon="0.07559">
        <ele>111.397723</ele>
        <time>2022-12-28T15:00:07.761Z</time>
      </trkpt>
      <trkpt lat="44.32297" lon="0.07566">
        <ele>111.243406</ele>
        <time>2022-12-28T15:00:09.764Z</time>
      </trkpt>
      <trkpt lat="44.32287" lon="0.07575">
        <ele>111.084773</ele>
        <time>2022-12-28T15:00:11.763Z</time>
      </trkpt>
      <trkpt lat="44.32277" lon="0.07582">
        <ele>110.922106</ele>
        <time>2022-12-28T15:00:13.762Z</time>
      </trkpt>
      <trkpt lat="44.32267" lon="0.0759">
        <ele>110.759011</ele>
        <time>2022-12-28T15:00:15.767Z</time>
      </trkpt>
      <trkpt lat="44.32256" lon="0.07599">
        <ele>110.580767</ele>
        <time>2022-12-28T15:00:17.761Z</time>
      </trkpt>
      <trkpt lat="44.32246" lon="0.07607">
        <ele>110.420857</ele>
        <time>2022-12-28T15:00:19.760Z</time>
      </trkpt>
      <trkpt lat="44.32235" lon="0.07614">
        <ele>110.251133</ele>
        <time>2022-12-28T15:00:21.760Z</time>
      </trkpt>
      <trkpt lat="44.32225" lon="0.07622">
        <ele>110.089995</ele>
        <time>2022-12-28T15:00:23.751Z</time>
      </trkpt>
      <trkpt lat="44.32214" lon="0.0763">
        <ele>109.919327</ele>
        <time>2022-12-28T15:00:25.763Z</time>
      </trkpt>
      <trkpt lat="44.32204" lon="0.07639">
        <ele>109.747333</ele>
        <time>2022-12-28T15:00:27.758Z</time>
      </trkpt>
      <trkpt lat="44.32193" lon="0.07648">
        <ele>109.578377</ele>
        <time>2022-12-28T15:00:29.750Z</time>
      </trkpt>
      <trkpt lat="44.32182" lon="0.07655">
        <ele>109.40902</ele>
        <time>2022-12-28T15:00:31.754Z</time>
      </trkpt>
      <trkpt lat="44.32172" lon="0.07663">
        <ele>109.248831</ele>
        <time>2022-12-28T15:00:33.763Z</time>
      </trkpt>
      <trkpt lat="44.32162" lon="0.07672">
        <ele>109.102845</ele>
        <time>2022-12-28T15:00:35.764Z</time>
      </trkpt>
      <trkpt lat="44.32151" lon="0.0768">
        <ele>109.065401</ele>
        <time>2022-12-28T15:00:37.757Z</time>
      </trkpt>
      <trkpt lat="44.32141" lon="0.07688">
        <ele>109.029552</ele>
        <time>2022-12-28T15:00:39.764Z</time>
      </trkpt>
      <trkpt lat="44.32131" lon="0.07695">
        <ele>108.993796</ele>
        <time>2022-12-28T15:00:41.743Z</time>
      </trkpt>
      <trkpt lat="44.32121" lon="0.07703">
        <ele>108.957564</ele>
        <time>2022-12-28T15:00:43.761Z</time>
      </trkpt>
      <trkpt lat="44.32111" lon="0.07709">
        <ele>108.924647</ele>
        <time>2022-12-28T15:00:45.754Z</time>
      </trkpt>
      <trkpt lat="44.32102" lon="0.07716">
        <ele>108.892295</ele>
        <time>2022-12-28T15:00:47.761Z</time>
      </trkpt>
      <trkpt lat="44.32092" lon="0.07723">
        <ele>108.858121</ele>
        <time>2022-12-28T15:00:49.761Z</time>
      </trkpt>
      <trkpt lat="44.32081" lon="0.07729">
        <ele>108.820735</ele>
        <time>2022-12-28T15:00:51.761Z</time>
      </trkpt>
      <trkpt lat="44.32071" lon="0.07736">
        <ele>108.78602</ele>
        <time>2022-12-28T15:00:53.763Z</time>
      </trkpt>
      <trkpt lat="44.32062" lon="0.07743">
        <ele>108.75202</ele>
        <time>2022-12-28T15:00:55.758Z</time>
      </trkpt>
      <trkpt lat="44.32052" lon="0.07748">
        <ele>108.71983</ele>
        <time>2022-12-28T15:00:57.788Z</time>
      </trkpt>
      <trkpt lat="44.32043" lon="0.07754">
        <ele>108.6881</ele>
        <time>2022-12-28T15:00:59.739Z</time>
      </trkpt>
      <trkpt lat="44.32034" lon="0.0776">
        <ele>108.656697</ele>
        <time>2022-12-28T15:01:01.761Z</time>
      </trkpt>
      <trkpt lat="44.32025" lon="0.07765">
        <ele>108.626788</ele>
        <time>2022-12-28T15:01:03.752Z</time>
      </trkpt>
      <trkpt lat="44.32016" lon="0.07769">
        <ele>108.596156</ele>
        <time>2022-12-28T15:01:05.740Z</time>
      </trkpt>
      <trkpt lat="44.32006" lon="0.07774">
        <ele>108.56538</ele>
        <time>2022-12-28T15:01:07.762Z</time>
      </trkpt>
      <trkpt lat="44.31998" lon="0.07779">
        <ele>108.576173</ele>
        <time>2022-12-28T15:01:09.763Z</time>
      </trkpt>
      <trkpt lat="44.31988" lon="0.07784">
        <ele>108.641749</ele>
        <time>2022-12-28T15:01:11.762Z</time>
      </trkpt>
      <trkpt lat="44.31979" lon="0.07791">
        <ele>108.708963</ele>
        <time>2022-12-28T15:01:13.762Z</time>
      </trkpt>
      <trkpt lat="44.31971" lon="0.07797">
        <ele>108.770124</ele>
        <time>2022-12-28T15:01:15.760Z</time>
      </trkpt>
      <trkpt lat="44.31963" lon="0.07805">
        <ele>108.835304</ele>
        <time>2022-12-28T15:01:17.763Z</time>
      </trkpt>
      <trkpt lat="44.31954" lon="0.07812">
        <ele>108.902136</ele>
        <time>2022-12-28T15:01:19.753Z</time>
      </trkpt>
      <trkpt lat="44.31947" lon="0.07822">
        <ele>108.96699</ele>
        <time>2022-12-28T15:01:21.764Z</time>
      </trkpt>
      <trkpt lat="44.31939" lon="0.07832">
        <ele>109.040366</ele>
        <time>2022-12-28T15:01:23.762Z</time>
      </trkpt>
      <trkpt lat="44.31931" lon="0.07843">
        <ele>109.11335</ele>
        <time>2022-12-28T15:01:25.743Z</time>
      </trkpt>
      <trkpt lat="44.31923" lon="0.07855">
        <ele>109.18827</ele>
        <time>2022-12-28T15:01:27.750Z</time>
      </trkpt>
      <trkpt lat="44.31915" lon="0.07866">
        <ele>109.26365</ele>
        <time>2022-12-28T15:01:29.762Z</time>
      </trkpt>
      <trkpt lat="44.31907" lon="0.07877">
        <ele>109.339494</ele>
        <time>2022-12-28T15:01:31.763Z</time>
      </trkpt>
      <trkpt lat="44.31899" lon="0.07889">
        <ele>109.416605</ele>
        <time>2022-12-28T15:01:33.762Z</time>
      </trkpt>
      <trkpt lat="44.3189" lon="0.079">
        <ele>109.495134</ele>
        <time>2022-12-28T15:01:35.768Z</time>
      </trkpt>
      <trkpt lat="44.31882" lon="0.07912">
        <ele>109.572691</ele>
        <time>2022-12-28T15:01:37.764Z</time>
      </trkpt>
      <trkpt lat="44.31873" lon="0.07923">
        <ele>109.649767</ele>
        <time>2022-12-28T15:01:39.761Z</time>
      </trkpt>
      <trkpt lat="44.31865" lon="0.07933">
        <ele>109.721761</ele>
        <time>2022-12-28T15:01:41.752Z</time>
      </trkpt>
      <trkpt lat="44.31857" lon="0.07943">
        <ele>109.672367</ele>
        <time>2022-12-28T15:01:43.759Z</time>
      </trkpt>
      <trkpt lat="44.3185" lon="0.07953">
        <ele>109.60218</ele>
        <time>2022-12-28T15:01:45.739Z</time>
      </trkpt>
      <trkpt lat="44.3184" lon="0.07966">
        <ele>109.507998</ele>
        <time>2022-12-28T15:01:48.726Z</time>
      </trkpt>
      <trkpt lat="44.31832" lon="0.07977">
        <ele>109.424175</ele>
        <time>2022-12-28T15:01:51.758Z</time>
      </trkpt>
      <trkpt lat="44.31824" lon="0.07988">
        <ele>109.344019</ele>
        <time>2022-12-28T15:01:54.749Z</time>
      </trkpt>
      <trkpt lat="44.31814" lon="0.08">
        <ele>109.251709</ele>
        <time>2022-12-28T15:01:57.758Z</time>
      </trkpt>
      <trkpt lat="44.31808" lon="0.0801">
        <ele>109.185068</ele>
        <time>2022-12-28T15:01:59.756Z</time>
      </trkpt>
      <trkpt lat="44.318" lon="0.08019">
        <ele>109.113275</ele>
        <time>2022-12-28T15:02:01.759Z</time>
      </trkpt>
      <trkpt lat="44.31793" lon="0.08028">
        <ele>109.044776</ele>
        <time>2022-12-28T15:02:03.758Z</time>
      </trkpt>
      <trkpt lat="44.31785" lon="0.08039">
        <ele>108.965873</ele>
        <time>2022-12-28T15:02:05.750Z</time>
      </trkpt>
      <trkpt lat="44.31777" lon="0.0805">
        <ele>108.883156</ele>
        <time>2022-12-28T15:02:07.761Z</time>
      </trkpt>
      <trkpt lat="44.31769" lon="0.0806">
        <ele>108.806643</ele>
        <time>2022-12-28T15:02:09.762Z</time>
      </trkpt>
      <trkpt lat="44.31761" lon="0.0807">
        <ele>108.730689</ele>
        <time>2022-12-28T15:02:11.761Z</time>
      </trkpt>
      <trkpt lat="44.31753" lon="0.08081">
        <ele>108.652617</ele>
        <time>2022-12-28T15:02:13.739Z</time>
      </trkpt>
      <trkpt lat="44.31746" lon="0.08091">
        <ele>108.579578</ele>
        <time>2022-12-28T15:02:15.760Z</time>
      </trkpt>
      <trkpt lat="44.31738" lon="0.081">
        <ele>108.509342</ele>
        <time>2022-12-28T15:02:17.757Z</time>
      </trkpt>
      <trkpt lat="44.31731" lon="0.0811">
        <ele>108.476863</ele>
        <time>2022-12-28T15:02:19.759Z</time>
      </trkpt>
      <trkpt lat="44.31724" lon="0.0812">
        <ele>108.55683</ele>
        <time>2022-12-28T15:02:21.740Z</time>
      </trkpt>
      <trkpt lat="44.31716" lon="0.08129">
        <ele>108.639203</ele>
        <time>2022-12-28T15:02:23.751Z</time>
      </trkpt>
      <trkpt lat="44.31707" lon="0.08138">
        <ele>108.722021</ele>
        <time>2022-12-28T15:02:25.762Z</time>
      </trkpt>
      <trkpt lat="44.317" lon="0.08148">
        <ele>108.803716</ele>
        <time>2022-12-28T15:02:27.761Z</time>
      </trkpt>
      <trkpt lat="44.31692" lon="0.08159">
        <ele>108.887028</ele>
        <time>2022-12-28T15:02:29.741Z</time>
      </trkpt>
      <trkpt lat="44.31685" lon="0.08169">
        <ele>108.969823</ele>
        <time>2022-12-28T15:02:31.752Z</time>
      </trkpt>
      <trkpt lat="44.31677" lon="0.08179">
        <ele>109.059072</ele>
        <time>2022-12-28T15:02:33.749Z</time>
      </trkpt>
      <trkpt lat="44.31669" lon="0.08191">
        <ele>109.148379</ele>
        <time>2022-12-28T15:02:35.760Z</time>
      </trkpt>
      <trkpt lat="44.31661" lon="0.08201">
        <ele>109.235861</ele>
        <time>2022-12-28T15:02:37.761Z</time>
      </trkpt>
      <trkpt lat="44.31652" lon="0.08212">
        <ele>109.326827</ele>
        <time>2022-12-28T15:02:39.756Z</time>
      </trkpt>
      <trkpt lat="44.31644" lon="0.08224">
        <ele>109.421174</ele>
        <time>2022-12-28T15:02:41.739Z</time>
      </trkpt>
      <trkpt lat="44.31636" lon="0.08234">
        <ele>109.502678</ele>
        <time>2022-12-28T15:02:43.739Z</time>
      </trkpt>
      <trkpt lat="44.31629" lon="0.08244">
        <ele>109.585355</ele>
        <time>2022-12-28T15:02:45.756Z</time>
      </trkpt>
      <trkpt lat="44.31621" lon="0.08254">
        <ele>109.669401</ele>
        <time>2022-12-28T15:02:47.764Z</time>
      </trkpt>
      <trkpt lat="44.31613" lon="0.08263">
        <ele>109.748404</ele>
        <time>2022-12-28T15:02:49.744Z</time>
      </trkpt>
      <trkpt lat="44.31605" lon="0.08272">
        <ele>109.830614</ele>
        <time>2022-12-28T15:02:51.739Z</time>
      </trkpt>
      <trkpt lat="44.31599" lon="0.08283">
        <ele>109.868959</ele>
        <time>2022-12-28T15:02:53.753Z</time>
      </trkpt>
      <trkpt lat="44.31592" lon="0.08293">
        <ele>109.84889</ele>
        <time>2022-12-28T15:02:55.761Z</time>
      </trkpt>
      <trkpt lat="44.31584" lon="0.08303">
        <ele>109.828223</ele>
        <time>2022-12-28T15:02:57.763Z</time>
      </trkpt>
      <trkpt lat="44.31577" lon="0.08313">
        <ele>109.807915</ele>
        <time>2022-12-28T15:02:59.745Z</time>
      </trkpt>
      <trkpt lat="44.3157" lon="0.08323">
        <ele>109.788042</ele>
        <time>2022-12-28T15:03:01.760Z</time>
      </trkpt>
      <trkpt lat="44.31562" lon="0.08332">
        <ele>109.768217</ele>
        <time>2022-12-28T15:03:03.758Z</time>
      </trkpt>
      <trkpt lat="44.31555" lon="0.08342">
        <ele>109.748057</ele>
        <time>2022-12-28T15:03:05.759Z</time>
      </trkpt>
      <trkpt lat="44.31548" lon="0.08352">
        <ele>109.728479</ele>
        <time>2022-12-28T15:03:07.746Z</time>
      </trkpt>
      <trkpt lat="44.31541" lon="0.08362">
        <ele>109.709271</ele>
        <time>2022-12-28T15:03:09.744Z</time>
      </trkpt>
      <trkpt lat="44.31534" lon="0.08372">
        <ele>109.689515</ele>
        <time>2022-12-28T15:03:11.750Z</time>
      </trkpt>
      <trkpt lat="44.31527" lon="0.08382">
        <ele>109.669402</ele>
        <time>2022-12-28T15:03:13.763Z</time>
      </trkpt>
      <trkpt lat="44.3152" lon="0.08392">
        <ele>109.649475</ele>
        <time>2022-12-28T15:03:15.753Z</time>
      </trkpt>
      <trkpt lat="44.31512" lon="0.08401">
        <ele>109.629545</ele>
        <time>2022-12-28T15:03:17.759Z</time>
      </trkpt>
      <trkpt lat="44.31504" lon="0.08411">
        <ele>109.609075</ele>
        <time>2022-12-28T15:03:19.763Z</time>
      </trkpt>
      <trkpt lat="44.31497" lon="0.08421">
        <ele>109.588231</ele>
        <time>2022-12-28T15:03:21.753Z</time>
      </trkpt>
      <trkpt lat="44.3149" lon="0.08431">
        <ele>109.569232</ele>
        <time>2022-12-28T15:03:23.739Z</time>
      </trkpt>
      <trkpt lat="44.31483" lon="0.08439">
        <ele>109.551029</ele>
        <time>2022-12-28T15:03:25.742Z</time>
      </trkpt>
      <trkpt lat="44.31475" lon="0.08452">
        <ele>109.526222</ele>
        <time>2022-12-28T15:03:28.751Z</time>
      </trkpt>
      <trkpt lat="44.31466" lon="0.08464">
        <ele>109.568117</ele>
        <time>2022-12-28T15:03:31.763Z</time>
      </trkpt>
      <trkpt lat="44.31458" lon="0.08476">
        <ele>109.618658</ele>
        <time>2022-12-28T15:03:34.770Z</time>
      </trkpt>
      <trkpt lat="44.31449" lon="0.08487">
        <ele>109.670375</ele>
        <time>2022-12-28T15:03:37.742Z</time>
      </trkpt>
      <trkpt lat="44.31442" lon="0.08497">
        <ele>109.718713</ele>
        <time>2022-12-28T15:03:40.753Z</time>
      </trkpt>
      <trkpt lat="44.31433" lon="0.08506">
        <ele>109.766826</ele>
        <time>2022-12-28T15:03:43.733Z</time>
      </trkpt>
      <trkpt lat="44.31423" lon="0.08511">
        <ele>109.811914</ele>
        <time>2022-12-28T15:03:46.762Z</time>
      </trkpt>
      <trkpt lat="44.31413" lon="0.08511">
        <ele>109.859253</ele>
        <time>2022-12-28T15:03:49.763Z</time>
      </trkpt>
      <trkpt lat="44.31402" lon="0.08512">
        <ele>109.907971</ele>
        <time>2022-12-28T15:03:52.762Z</time>
      </trkpt>
      <trkpt lat="44.31393" lon="0.08523">
        <ele>109.961882</ele>
        <time>2022-12-28T15:03:55.763Z</time>
      </trkpt>
      <trkpt lat="44.31389" lon="0.0854">
        <ele>110.018528</ele>
        <time>2022-12-28T15:03:58.761Z</time>
      </trkpt>
      <trkpt lat="44.31388" lon="0.08556">
        <ele>110.070642</ele>
        <time>2022-12-28T15:04:01.761Z</time>
      </trkpt>
      <trkpt lat="44.31386" lon="0.08572">
        <ele>110.120024</ele>
        <time>2022-12-28T15:04:04.763Z</time>
      </trkpt>
      <trkpt lat="44.31385" lon="0.08589">
        <ele>110.175309</ele>
        <time>2022-12-28T15:04:07.764Z</time>
      </trkpt>
      <trkpt lat="44.31384" lon="0.08606">
        <ele>110.231095</ele>
        <time>2022-12-28T15:04:10.729Z</time>
      </trkpt>
      <trkpt lat="44.31381" lon="0.08624">
        <ele>110.287332</ele>
        <time>2022-12-28T15:04:13.760Z</time>
      </trkpt>
      <trkpt lat="44.31376" lon="0.08641">
        <ele>110.357468</ele>
        <time>2022-12-28T15:04:16.763Z</time>
      </trkpt>
      <trkpt lat="44.31371" lon="0.08657">
        <ele>110.443515</ele>
        <time>2022-12-28T15:04:19.754Z</time>
      </trkpt>
      <trkpt lat="44.31365" lon="0.08674">
        <ele>110.533791</ele>
        <time>2022-12-28T15:04:22.763Z</time>
      </trkpt>
      <trkpt lat="44.31361" lon="0.08686">
        <ele>110.600696</ele>
        <time>2022-12-28T15:04:24.761Z</time>
      </trkpt>
      <trkpt lat="44.31357" lon="0.08699">
        <ele>110.671726</ele>
        <time>2022-12-28T15:04:26.759Z</time>
      </trkpt>
      <trkpt lat="44.31354" lon="0.08713">
        <ele>110.73904</ele>
        <time>2022-12-28T15:04:28.823Z</time>
      </trkpt>
      <trkpt lat="44.31351" lon="0.08727">
        <ele>110.809807</ele>
        <time>2022-12-28T15:04:30.740Z</time>
      </trkpt>
      <trkpt lat="44.31349" lon="0.08741">
        <ele>110.8813</ele>
        <time>2022-12-28T15:04:32.764Z</time>
      </trkpt>
      <trkpt lat="44.31349" lon="0.08757">
        <ele>110.958575</ele>
        <time>2022-12-28T15:04:34.840Z</time>
      </trkpt>
      <trkpt lat="44.31348" lon="0.08773">
        <ele>111.034913</ele>
        <time>2022-12-28T15:04:36.758Z</time>
      </trkpt>
      <trkpt lat="44.31347" lon="0.08791">
        <ele>111.125478</ele>
        <time>2022-12-28T15:04:39.758Z</time>
      </trkpt>
      <trkpt lat="44.31346" lon="0.08804">
        <ele>111.189603</ele>
        <time>2022-12-28T15:04:41.753Z</time>
      </trkpt>
      <trkpt lat="44.31346" lon="0.08823">
        <ele>111.280399</ele>
        <time>2022-12-28T15:04:44.754Z</time>
      </trkpt>
      <trkpt lat="44.31343" lon="0.0884">
        <ele>111.366218</ele>
        <time>2022-12-28T15:04:47.759Z</time>
      </trkpt>
      <trkpt lat="44.31341" lon="0.08859">
        <ele>111.458503</ele>
        <time>2022-12-28T15:04:50.761Z</time>
      </trkpt>
      <trkpt lat="44.3134" lon="0.08878">
        <ele>111.542696</ele>
        <time>2022-12-28T15:04:53.762Z</time>
      </trkpt>
      <trkpt lat="44.3134" lon="0.08891">
        <ele>111.500009</ele>
        <time>2022-12-28T15:04:55.762Z</time>
      </trkpt>
      <trkpt lat="44.31339" lon="0.08909">
        <ele>111.44152</ele>
        <time>2022-12-28T15:04:58.760Z</time>
      </trkpt>
      <trkpt lat="44.31336" lon="0.08927">
        <ele>111.382756</ele>
        <time>2022-12-28T15:05:01.744Z</time>
      </trkpt>
      <trkpt lat="44.31333" lon="0.08945">
        <ele>111.325229</ele>
        <time>2022-12-28T15:05:04.759Z</time>
      </trkpt>
      <trkpt lat="44.3133" lon="0.08962">
        <ele>111.269768</ele>
        <time>2022-12-28T15:05:07.750Z</time>
      </trkpt>
      <trkpt lat="44.31328" lon="0.0898">
        <ele>111.210592</ele>
        <time>2022-12-28T15:05:10.759Z</time>
      </trkpt>
      <trkpt lat="44.31326" lon="0.08999">
        <ele>111.150397</ele>
        <time>2022-12-28T15:05:13.765Z</time>
      </trkpt>
      <trkpt lat="44.31324" lon="0.09011">
        <ele>111.109386</ele>
        <time>2022-12-28T15:05:15.763Z</time>
      </trkpt>
      <trkpt lat="44.31321" lon="0.09025">
        <ele>111.065967</ele>
        <time>2022-12-28T15:05:17.750Z</time>
      </trkpt>
      <trkpt lat="44.31318" lon="0.09042">
        <ele>111.008327</ele>
        <time>2022-12-28T15:05:20.744Z</time>
      </trkpt>
      <trkpt lat="44.31316" lon="0.09054">
        <ele>110.968089</ele>
        <time>2022-12-28T15:05:22.753Z</time>
      </trkpt>
      <trkpt lat="44.31314" lon="0.09071">
        <ele>110.912831</ele>
        <time>2022-12-28T15:05:25.822Z</time>
      </trkpt>
      <trkpt lat="44.31313" lon="0.09086">
        <ele>110.867267</ele>
        <time>2022-12-28T15:05:28.762Z</time>
      </trkpt>
      <trkpt lat="44.31313" lon="0.09099">
        <ele>110.82571</ele>
        <time>2022-12-28T15:05:31.817Z</time>
      </trkpt>
      <trkpt lat="44.31311" lon="0.09115">
        <ele>110.774215</ele>
        <time>2022-12-28T15:05:35.751Z</time>
      </trkpt>
      <trkpt lat="44.31308" lon="0.0913">
        <ele>110.76087</ele>
        <time>2022-12-28T15:05:39.762Z</time>
      </trkpt>
      <trkpt lat="44.31302" lon="0.09143">
        <ele>110.799345</ele>
        <time>2022-12-28T15:05:42.812Z</time>
      </trkpt>
      <trkpt lat="44.31295" lon="0.09154">
        <ele>110.835845</ele>
        <time>2022-12-28T15:05:45.764Z</time>
      </trkpt>
      <trkpt lat="44.31286" lon="0.09161">
        <ele>110.870985</ele>
        <time>2022-12-28T15:05:48.813Z</time>
      </trkpt>
      <trkpt lat="44.31278" lon="0.09169">
        <ele>110.90526</ele>
        <time>2022-12-28T15:05:51.753Z</time>
      </trkpt>
      <trkpt lat="44.31271" lon="0.09177">
        <ele>110.938106</ele>
        <time>2022-12-28T15:05:54.814Z</time>
      </trkpt>
      <trkpt lat="44.31263" lon="0.09184">
        <ele>110.970952</ele>
        <time>2022-12-28T15:05:57.761Z</time>
      </trkpt>
      <trkpt lat="44.31253" lon="0.09194">
        <ele>111.012228</ele>
        <time>2022-12-28T15:06:01.753Z</time>
      </trkpt>
      <trkpt lat="44.31245" lon="0.09201">
        <ele>111.043744</ele>
        <time>2022-12-28T15:06:04.760Z</time>
      </trkpt>
      <trkpt lat="44.31237" lon="0.09204">
        <ele>111.075912</ele>
        <time>2022-12-28T15:06:07.738Z</time>
      </trkpt>
      <trkpt lat="44.31228" lon="0.09208">
        <ele>111.108548</ele>
        <time>2022-12-28T15:06:10.733Z</time>
      </trkpt>
      <trkpt lat="44.31217" lon="0.09213">
        <ele>111.147945</ele>
        <time>2022-12-28T15:06:14.757Z</time>
      </trkpt>
      <trkpt lat="44.31206" lon="0.09217">
        <ele>111.18715</ele>
        <time>2022-12-28T15:06:18.760Z</time>
      </trkpt>
      <trkpt lat="44.31195" lon="0.09222">
        <ele>111.227941</ele>
        <time>2022-12-28T15:06:22.748Z</time>
      </trkpt>
      <trkpt lat="44.31184" lon="0.09228">
        <ele>111.267427</ele>
        <time>2022-12-28T15:06:26.758Z</time>
      </trkpt>
      <trkpt lat="44.31174" lon="0.09234">
        <ele>111.307506</ele>
        <time>2022-12-28T15:06:30.833Z</time>
      </trkpt>
      <trkpt lat="44.31165" lon="0.09239">
        <ele>111.339961</ele>
        <time>2022-12-28T15:06:33.765Z</time>
      </trkpt>
      <trkpt lat="44.31154" lon="0.09243">
        <ele>111.414929</ele>
        <time>2022-12-28T15:06:37.762Z</time>
      </trkpt>
      <trkpt lat="44.31145" lon="0.09248">
        <ele>111.646537</ele>
        <time>2022-12-28T15:06:41.813Z</time>
      </trkpt>
      <trkpt lat="44.31133" lon="0.09254">
        <ele>111.911629</ele>
        <time>2022-12-28T15:06:45.759Z</time>
      </trkpt>
      <trkpt lat="44.31122" lon="0.09258">
        <ele>112.172747</ele>
        <time>2022-12-28T15:06:49.764Z</time>
      </trkpt>
      <trkpt lat="44.31112" lon="0.09261">
        <ele>112.40892</ele>
        <time>2022-12-28T15:06:53.744Z</time>
      </trkpt>
      <trkpt lat="44.31102" lon="0.09266">
        <ele>112.624799</ele>
        <time>2022-12-28T15:06:57.761Z</time>
      </trkpt>
      <trkpt lat="44.31092" lon="0.09271">
        <ele>112.87938</ele>
        <time>2022-12-28T15:07:01.750Z</time>
      </trkpt>
      <trkpt lat="44.31081" lon="0.09275">
        <ele>113.134605</ele>
        <time>2022-12-28T15:07:05.753Z</time>
      </trkpt>
      <trkpt lat="44.31069" lon="0.09281">
        <ele>113.394398</ele>
        <time>2022-12-28T15:07:09.819Z</time>
      </trkpt>
      <trkpt lat="44.31061" lon="0.09285">
        <ele>113.596753</ele>
        <time>2022-12-28T15:07:12.763Z</time>
      </trkpt>
      <trkpt lat="44.31052" lon="0.09289">
        <ele>113.803752</ele>
        <time>2022-12-28T15:07:15.803Z</time>
      </trkpt>
      <trkpt lat="44.31043" lon="0.09292">
        <ele>114.00383</ele>
        <time>2022-12-28T15:07:18.750Z</time>
      </trkpt>
      <trkpt lat="44.31035" lon="0.09297">
        <ele>114.207688</ele>
        <time>2022-12-28T15:07:21.823Z</time>
      </trkpt>
      <trkpt lat="44.31023" lon="0.09301">
        <ele>114.475181</ele>
        <time>2022-12-28T15:07:25.740Z</time>
      </trkpt>
      <trkpt lat="44.31014" lon="0.09306">
        <ele>114.677637</ele>
        <time>2022-12-28T15:07:28.761Z</time>
      </trkpt>
      <trkpt lat="44.31006" lon="0.09311">
        <ele>114.886286</ele>
        <time>2022-12-28T15:07:31.756Z</time>
      </trkpt>
      <trkpt lat="44.30997" lon="0.09315">
        <ele>115.091236</ele>
        <time>2022-12-28T15:07:34.761Z</time>
      </trkpt>
      <trkpt lat="44.30987" lon="0.09319">
        <ele>115.3197</ele>
        <time>2022-12-28T15:07:38.757Z</time>
      </trkpt>
      <trkpt lat="44.30976" lon="0.09324">
        <ele>115.268324</ele>
        <time>2022-12-28T15:07:42.762Z</time>
      </trkpt>
      <trkpt lat="44.30965" lon="0.09321">
        <ele>115.171021</ele>
        <time>2022-12-28T15:07:46.776Z</time>
      </trkpt>
      <trkpt lat="44.30958" lon="0.09328">
        <ele>115.089431</ele>
        <time>2022-12-28T15:07:51.830Z</time>
      </trkpt>
      <trkpt lat="44.30957" lon="0.09331">
        <ele>115.072003</ele>
        <time>2022-12-28T15:08:05.099Z</time>
      </trkpt>
      <trkpt lat="44.30938" lon="0.09343">
        <ele>114.894989</ele>
        <time>2022-12-28T15:12:38.755Z</time>
      </trkpt>
      <trkpt lat="44.30927" lon="0.09347">
        <ele>114.793457</ele>
        <time>2022-12-28T15:12:42.762Z</time>
      </trkpt>
      <trkpt lat="44.30918" lon="0.09352">
        <ele>114.707557</ele>
        <time>2022-12-28T15:12:45.761Z</time>
      </trkpt>
      <trkpt lat="44.30909" lon="0.09357">
        <ele>114.621217</ele>
        <time>2022-12-28T15:12:48.761Z</time>
      </trkpt>
      <trkpt lat="44.309" lon="0.09362">
        <ele>114.539192</ele>
        <time>2022-12-28T15:12:51.733Z</time>
      </trkpt>
      <trkpt lat="44.30891" lon="0.09366">
        <ele>114.452252</ele>
        <time>2022-12-28T15:12:54.759Z</time>
      </trkpt>
      <trkpt lat="44.30881" lon="0.09371">
        <ele>114.363012</ele>
        <time>2022-12-28T15:12:57.762Z</time>
      </trkpt>
      <trkpt lat="44.30871" lon="0.09374">
        <ele>114.274836</ele>
        <time>2022-12-28T15:13:00.746Z</time>
      </trkpt>
      <trkpt lat="44.30861" lon="0.09379">
        <ele>114.182246</ele>
        <time>2022-12-28T15:13:03.738Z</time>
      </trkpt>
      <trkpt lat="44.30851" lon="0.09383">
        <ele>114.086394</ele>
        <time>2022-12-28T15:13:06.749Z</time>
      </trkpt>
      <trkpt lat="44.3084" lon="0.09388">
        <ele>113.986394</ele>
        <time>2022-12-28T15:13:09.752Z</time>
      </trkpt>
      <trkpt lat="44.30829" lon="0.09392">
        <ele>113.885549</ele>
        <time>2022-12-28T15:13:12.735Z</time>
      </trkpt>
      <trkpt lat="44.30818" lon="0.09396">
        <ele>113.788756</ele>
        <time>2022-12-28T15:13:15.753Z</time>
      </trkpt>
      <trkpt lat="44.30807" lon="0.09399">
        <ele>113.843891</ele>
        <time>2022-12-28T15:13:18.741Z</time>
      </trkpt>
      <trkpt lat="44.30797" lon="0.09403">
        <ele>113.916273</ele>
        <time>2022-12-28T15:13:21.756Z</time>
      </trkpt>
      <trkpt lat="44.30787" lon="0.09408">
        <ele>113.991477</ele>
        <time>2022-12-28T15:13:24.753Z</time>
      </trkpt>
      <trkpt lat="44.30777" lon="0.09412">
        <ele>114.06706</ele>
        <time>2022-12-28T15:13:27.753Z</time>
      </trkpt>
      <trkpt lat="44.30766" lon="0.09417">
        <ele>114.143402</ele>
        <time>2022-12-28T15:13:30.753Z</time>
      </trkpt>
      <trkpt lat="44.30757" lon="0.09424">
        <ele>114.21556</ele>
        <time>2022-12-28T15:13:33.756Z</time>
      </trkpt>
      <trkpt lat="44.30747" lon="0.09428">
        <ele>114.281992</ele>
        <time>2022-12-28T15:13:36.748Z</time>
      </trkpt>
      <trkpt lat="44.30738" lon="0.09432">
        <ele>114.347139</ele>
        <time>2022-12-28T15:13:39.752Z</time>
      </trkpt>
      <trkpt lat="44.30729" lon="0.09437">
        <ele>114.419925</ele>
        <time>2022-12-28T15:13:42.757Z</time>
      </trkpt>
      <trkpt lat="44.30718" lon="0.09443">
        <ele>114.499514</ele>
        <time>2022-12-28T15:13:45.771Z</time>
      </trkpt>
      <trkpt lat="44.30707" lon="0.09448">
        <ele>114.577659</ele>
        <time>2022-12-28T15:13:48.766Z</time>
      </trkpt>
      <trkpt lat="44.30695" lon="0.09454">
        <ele>114.664394</ele>
        <time>2022-12-28T15:13:51.760Z</time>
      </trkpt>
      <trkpt lat="44.30683" lon="0.09459">
        <ele>114.749254</ele>
        <time>2022-12-28T15:13:54.753Z</time>
      </trkpt>
      <trkpt lat="44.30672" lon="0.09463">
        <ele>114.827473</ele>
        <time>2022-12-28T15:13:57.761Z</time>
      </trkpt>
      <trkpt lat="44.30662" lon="0.09468">
        <ele>114.902849</ele>
        <time>2022-12-28T15:14:00.746Z</time>
      </trkpt>
      <trkpt lat="44.30652" lon="0.09472">
        <ele>114.973997</ele>
        <time>2022-12-28T15:14:03.758Z</time>
      </trkpt>
      <trkpt lat="44.30641" lon="0.09477">
        <ele>114.960811</ele>
        <time>2022-12-28T15:14:06.753Z</time>
      </trkpt>
      <trkpt lat="44.3063" lon="0.09482">
        <ele>114.838838</ele>
        <time>2022-12-28T15:14:09.756Z</time>
      </trkpt>
      <trkpt lat="44.30619" lon="0.09488">
        <ele>114.721336</ele>
        <time>2022-12-28T15:14:12.737Z</time>
      </trkpt>
      <trkpt lat="44.30608" lon="0.09494">
        <ele>114.60676</ele>
        <time>2022-12-28T15:14:15.756Z</time>
      </trkpt>
      <trkpt lat="44.30598" lon="0.09497">
        <ele>114.497208</ele>
        <time>2022-12-28T15:14:18.765Z</time>
      </trkpt>
      <trkpt lat="44.30587" lon="0.09503">
        <ele>114.38212</ele>
        <time>2022-12-28T15:14:21.757Z</time>
      </trkpt>
      <trkpt lat="44.30576" lon="0.09508">
        <ele>114.267563</ele>
        <time>2022-12-28T15:14:24.763Z</time>
      </trkpt>
      <trkpt lat="44.30565" lon="0.09514">
        <ele>114.148171</ele>
        <time>2022-12-28T15:14:27.762Z</time>
      </trkpt>
      <trkpt lat="44.30555" lon="0.09519">
        <ele>114.039835</ele>
        <time>2022-12-28T15:14:30.750Z</time>
      </trkpt>
      <trkpt lat="44.30544" lon="0.09523">
        <ele>113.918822</ele>
        <time>2022-12-28T15:14:33.741Z</time>
      </trkpt>
      <trkpt lat="44.30533" lon="0.09528">
        <ele>113.799354</ele>
        <time>2022-12-28T15:14:36.756Z</time>
      </trkpt>
      <trkpt lat="44.30521" lon="0.09533">
        <ele>113.681828</ele>
        <time>2022-12-28T15:14:39.757Z</time>
      </trkpt>
      <trkpt lat="44.3051" lon="0.09538">
        <ele>113.556669</ele>
        <time>2022-12-28T15:14:42.770Z</time>
      </trkpt>
      <trkpt lat="44.30499" lon="0.09542">
        <ele>113.449702</ele>
        <time>2022-12-28T15:14:45.767Z</time>
      </trkpt>
      <trkpt lat="44.30491" lon="0.09545">
        <ele>113.357377</ele>
        <time>2022-12-28T15:14:48.759Z</time>
      </trkpt>
      <trkpt lat="44.30481" lon="0.09549">
        <ele>113.251357</ele>
        <time>2022-12-28T15:14:51.768Z</time>
      </trkpt>
      <trkpt lat="44.30472" lon="0.09553">
        <ele>113.269652</ele>
        <time>2022-12-28T15:14:54.760Z</time>
      </trkpt>
      <trkpt lat="44.30463" lon="0.09557">
        <ele>113.482684</ele>
        <time>2022-12-28T15:14:57.760Z</time>
      </trkpt>
      <trkpt lat="44.30452" lon="0.09563">
        <ele>113.747506</ele>
        <time>2022-12-28T15:15:01.742Z</time>
      </trkpt>
      <trkpt lat="44.30442" lon="0.09567">
        <ele>113.990254</ele>
        <time>2022-12-28T15:15:05.743Z</time>
      </trkpt>
      <trkpt lat="44.30432" lon="0.09573">
        <ele>114.242223</ele>
        <time>2022-12-28T15:15:09.759Z</time>
      </trkpt>
      <trkpt lat="44.30421" lon="0.09578">
        <ele>114.504341</ele>
        <time>2022-12-28T15:15:13.757Z</time>
      </trkpt>
      <trkpt lat="44.30411" lon="0.09583">
        <ele>114.751942</ele>
        <time>2022-12-28T15:15:17.763Z</time>
      </trkpt>
      <trkpt lat="44.30401" lon="0.09587">
        <ele>114.990131</ele>
        <time>2022-12-28T15:15:21.766Z</time>
      </trkpt>
      <trkpt lat="44.30391" lon="0.09591">
        <ele>115.222187</ele>
        <time>2022-12-28T15:15:25.761Z</time>
      </trkpt>
      <trkpt lat="44.30381" lon="0.09597">
        <ele>115.466867</ele>
        <time>2022-12-28T15:15:29.755Z</time>
      </trkpt>
      <trkpt lat="44.30372" lon="0.09601">
        <ele>115.693401</ele>
        <time>2022-12-28T15:15:33.769Z</time>
      </trkpt>
      <trkpt lat="44.30362" lon="0.09605">
        <ele>115.925457</ele>
        <time>2022-12-28T15:15:37.754Z</time>
      </trkpt>
      <trkpt lat="44.30353" lon="0.09609">
        <ele>116.143946</ele>
        <time>2022-12-28T15:15:41.768Z</time>
      </trkpt>
      <trkpt lat="44.30343" lon="0.09614">
        <ele>116.372139</ele>
        <time>2022-12-28T15:15:45.768Z</time>
      </trkpt>
      <trkpt lat="44.30333" lon="0.09618">
        <ele>116.620775</ele>
        <time>2022-12-28T15:15:49.762Z</time>
      </trkpt>
      <trkpt lat="44.30323" lon="0.09623">
        <ele>116.871272</ele>
        <time>2022-12-28T15:15:53.765Z</time>
      </trkpt>
      <trkpt lat="44.30313" lon="0.09627">
        <ele>117.090269</ele>
        <time>2022-12-28T15:15:57.765Z</time>
      </trkpt>
      <trkpt lat="44.30304" lon="0.09631">
        <ele>117.333619</ele>
        <time>2022-12-28T15:16:01.749Z</time>
      </trkpt>
      <trkpt lat="44.30293" lon="0.09634">
        <ele>117.794506</ele>
        <time>2022-12-28T15:16:06.735Z</time>
      </trkpt>
      <trkpt lat="44.30282" lon="0.09639">
        <ele>118.24774</ele>
        <time>2022-12-28T15:16:10.755Z</time>
      </trkpt>
      <trkpt lat="44.30273" lon="0.09645">
        <ele>118.676437</ele>
        <time>2022-12-28T15:16:14.761Z</time>
      </trkpt>
      <trkpt lat="44.30264" lon="0.09651">
        <ele>119.061252</ele>
        <time>2022-12-28T15:16:18.757Z</time>
      </trkpt>
      <trkpt lat="44.30256" lon="0.09656">
        <ele>119.460961</ele>
        <time>2022-12-28T15:16:22.747Z</time>
      </trkpt>
      <trkpt lat="44.30245" lon="0.0966">
        <ele>119.909449</ele>
        <time>2022-12-28T15:16:26.749Z</time>
      </trkpt>
      <trkpt lat="44.30236" lon="0.09664">
        <ele>120.309582</ele>
        <time>2022-12-28T15:16:30.762Z</time>
      </trkpt>
      <trkpt lat="44.30227" lon="0.09668">
        <ele>120.709714</ele>
        <time>2022-12-28T15:16:34.755Z</time>
      </trkpt>
      <trkpt lat="44.30217" lon="0.09673">
        <ele>121.115989</ele>
        <time>2022-12-28T15:16:38.751Z</time>
      </trkpt>
      <trkpt lat="44.30207" lon="0.09678">
        <ele>121.569454</ele>
        <time>2022-12-28T15:16:42.736Z</time>
      </trkpt>
      <trkpt lat="44.30197" lon="0.09682">
        <ele>121.990181</ele>
        <time>2022-12-28T15:16:46.747Z</time>
      </trkpt>
      <trkpt lat="44.30186" lon="0.09686">
        <ele>122.460886</ele>
        <time>2022-12-28T15:16:50.766Z</time>
      </trkpt>
      <trkpt lat="44.30177" lon="0.0969">
        <ele>122.847488</ele>
        <time>2022-12-28T15:16:53.770Z</time>
      </trkpt>
      <trkpt lat="44.30168" lon="0.09693">
        <ele>123.243634</ele>
        <time>2022-12-28T15:16:56.757Z</time>
      </trkpt>
      <trkpt lat="44.30158" lon="0.09697">
        <ele>123.665193</ele>
        <time>2022-12-28T15:16:59.767Z</time>
      </trkpt>
      <trkpt lat="44.30148" lon="0.097">
        <ele>124.078</ele>
        <time>2022-12-28T15:17:02.767Z</time>
      </trkpt>
      <trkpt lat="44.30139" lon="0.09703">
        <ele>124.470925</ele>
        <time>2022-12-28T15:17:05.757Z</time>
      </trkpt>
      <trkpt lat="44.30128" lon="0.09708">
        <ele>125.097765</ele>
        <time>2022-12-28T15:17:09.769Z</time>
      </trkpt>
      <trkpt lat="44.30117" lon="0.09714">
        <ele>125.866254</ele>
        <time>2022-12-28T15:17:13.742Z</time>
      </trkpt>
      <trkpt lat="44.30106" lon="0.09719">
        <ele>126.634744</ele>
        <time>2022-12-28T15:17:17.766Z</time>
      </trkpt>
      <trkpt lat="44.30096" lon="0.09724">
        <ele>127.364556</ele>
        <time>2022-12-28T15:17:21.767Z</time>
      </trkpt>
      <trkpt lat="44.30085" lon="0.09727">
        <ele>128.057199</ele>
        <time>2022-12-28T15:17:25.756Z</time>
      </trkpt>
      <trkpt lat="44.30076" lon="0.09732">
        <ele>128.730064</ele>
        <time>2022-12-28T15:17:29.747Z</time>
      </trkpt>
      <trkpt lat="44.30066" lon="0.09737">
        <ele>129.421349</ele>
        <time>2022-12-28T15:17:33.770Z</time>
      </trkpt>
      <trkpt lat="44.30057" lon="0.09741">
        <ele>130.08589</ele>
        <time>2022-12-28T15:17:37.749Z</time>
      </trkpt>
      <trkpt lat="44.30047" lon="0.09745">
        <ele>130.755791</ele>
        <time>2022-12-28T15:17:41.741Z</time>
      </trkpt>
      <trkpt lat="44.30037" lon="0.0975">
        <ele>131.446129</ele>
        <time>2022-12-28T15:17:45.768Z</time>
      </trkpt>
      <trkpt lat="44.30028" lon="0.09755">
        <ele>132.083552</ele>
        <time>2022-12-28T15:17:49.763Z</time>
      </trkpt>
      <trkpt lat="44.30018" lon="0.09759">
        <ele>132.805623</ele>
        <time>2022-12-28T15:17:54.755Z</time>
      </trkpt>
      <trkpt lat="44.30007" lon="0.09763">
        <ele>133.521164</ele>
        <time>2022-12-28T15:17:59.755Z</time>
      </trkpt>
      <trkpt lat="44.29999" lon="0.09766">
        <ele>134.124227</ele>
        <time>2022-12-28T15:18:03.757Z</time>
      </trkpt>
      <trkpt lat="44.2999" lon="0.0977">
        <ele>134.718729</ele>
        <time>2022-12-28T15:18:07.742Z</time>
      </trkpt>
      <trkpt lat="44.29981" lon="0.09774">
        <ele>135.346067</ele>
        <time>2022-12-28T15:18:12.736Z</time>
      </trkpt>
      <trkpt lat="44.29972" lon="0.09779">
        <ele>135.970414</ele>
        <time>2022-12-28T15:18:17.757Z</time>
      </trkpt>
      <trkpt lat="44.29964" lon="0.09784">
        <ele>136.604954</ele>
        <time>2022-12-28T15:18:22.753Z</time>
      </trkpt>
      <trkpt lat="44.29955" lon="0.09788">
        <ele>137.063629</ele>
        <time>2022-12-28T15:18:26.738Z</time>
      </trkpt>
      <trkpt lat="44.29946" lon="0.09792">
        <ele>137.529241</ele>
        <time>2022-12-28T15:18:30.755Z</time>
      </trkpt>
      <trkpt lat="44.29935" lon="0.09796">
        <ele>138.063811</ele>
        <time>2022-12-28T15:18:35.753Z</time>
      </trkpt>
      <trkpt lat="44.29926" lon="0.09801">
        <ele>138.545535</ele>
        <time>2022-12-28T15:18:40.755Z</time>
      </trkpt>
      <trkpt lat="44.29916" lon="0.09805">
        <ele>139.053034</ele>
        <time>2022-12-28T15:18:45.758Z</time>
      </trkpt>
      <trkpt lat="44.29906" lon="0.0981">
        <ele>139.559807</ele>
        <time>2022-12-28T15:18:51.737Z</time>
      </trkpt>
      <trkpt lat="44.29896" lon="0.09815">
        <ele>140.043627</ele>
        <time>2022-12-28T15:18:57.739Z</time>
      </trkpt>
      <trkpt lat="44.29888" lon="0.0982">
        <ele>140.493317</ele>
        <time>2022-12-28T15:19:02.739Z</time>
      </trkpt>
      <trkpt lat="44.29878" lon="0.09824">
        <ele>140.986337</ele>
        <time>2022-12-28T15:19:07.741Z</time>
      </trkpt>
      <trkpt lat="44.29869" lon="0.09827">
        <ele>141.439976</ele>
        <time>2022-12-28T15:19:12.756Z</time>
      </trkpt>
      <trkpt lat="44.2986" lon="0.09831">
        <ele>141.913037</ele>
        <time>2022-12-28T15:19:18.748Z</time>
      </trkpt>
      <trkpt lat="44.29851" lon="0.09835">
        <ele>142.367555</ele>
        <time>2022-12-28T15:19:24.744Z</time>
      </trkpt>
      <trkpt lat="44.29841" lon="0.09839">
        <ele>142.854912</ele>
        <time>2022-12-28T15:19:30.744Z</time>
      </trkpt>
      <trkpt lat="44.29832" lon="0.09843">
        <ele>143.328947</ele>
        <time>2022-12-28T15:19:35.739Z</time>
      </trkpt>
      <trkpt lat="44.29822" lon="0.09848">
        <ele>143.801661</ele>
        <time>2022-12-28T15:19:41.741Z</time>
      </trkpt>
      <trkpt lat="44.29814" lon="0.09851">
        <ele>144.245931</ele>
        <time>2022-12-28T15:19:55.745Z</time>
      </trkpt>
      <trkpt lat="44.298" lon="0.09859">
        <ele>144.961755</ele>
        <time>2022-12-28T15:20:25.742Z</time>
      </trkpt>
      <trkpt lat="44.29791" lon="0.09861">
        <ele>145.373412</ele>
        <time>2022-12-28T15:20:30.739Z</time>
      </trkpt>
      <trkpt lat="44.29781" lon="0.09864">
        <ele>145.496697</ele>
        <time>2022-12-28T15:20:35.754Z</time>
      </trkpt>
      <trkpt lat="44.29772" lon="0.09867">
        <ele>145.619978</ele>
        <time>2022-12-28T15:20:40.740Z</time>
      </trkpt>
      <trkpt lat="44.29763" lon="0.09872">
        <ele>145.733396</ele>
        <time>2022-12-28T15:20:45.755Z</time>
      </trkpt>
      <trkpt lat="44.29753" lon="0.09877">
        <ele>145.866915</ele>
        <time>2022-12-28T15:20:51.744Z</time>
      </trkpt>
      <trkpt lat="44.29744" lon="0.09882">
        <ele>145.995979</ele>
        <time>2022-12-28T15:20:56.740Z</time>
      </trkpt>
      <trkpt lat="44.29735" lon="0.09887">
        <ele>146.113566</ele>
        <time>2022-12-28T15:21:01.760Z</time>
      </trkpt>
      <trkpt lat="44.29726" lon="0.0989">
        <ele>146.231314</ele>
        <time>2022-12-28T15:21:06.743Z</time>
      </trkpt>
      <trkpt lat="44.29717" lon="0.09893">
        <ele>146.350209</ele>
        <time>2022-12-28T15:21:11.754Z</time>
      </trkpt>
      <trkpt lat="44.29707" lon="0.09898">
        <ele>146.481057</ele>
        <time>2022-12-28T15:21:16.746Z</time>
      </trkpt>
      <trkpt lat="44.29697" lon="0.09902">
        <ele>146.609657</ele>
        <time>2022-12-28T15:21:21.744Z</time>
      </trkpt>
      <trkpt lat="44.29687" lon="0.09906">
        <ele>146.735089</ele>
        <time>2022-12-28T15:21:26.744Z</time>
      </trkpt>
      <trkpt lat="44.29678" lon="0.09909">
        <ele>146.855937</ele>
        <time>2022-12-28T15:21:38.735Z</time>
      </trkpt>
      <trkpt lat="44.29668" lon="0.09913">
        <ele>146.987907</ele>
        <time>2022-12-28T15:21:43.741Z</time>
      </trkpt>
      <trkpt lat="44.29657" lon="0.09918">
        <ele>147.128562</ele>
        <time>2022-12-28T15:21:47.741Z</time>
      </trkpt>
      <trkpt lat="44.29649" lon="0.09923">
        <ele>147.246365</ele>
        <time>2022-12-28T15:21:50.736Z</time>
      </trkpt>
      <trkpt lat="44.29639" lon="0.09926">
        <ele>147.372306</ele>
        <time>2022-12-28T15:21:53.754Z</time>
      </trkpt>
      <trkpt lat="44.29629" lon="0.0993">
        <ele>147.505246</ele>
        <time>2022-12-28T15:21:56.756Z</time>
      </trkpt>
      <trkpt lat="44.29619" lon="0.09935">
        <ele>147.608565</ele>
        <time>2022-12-28T15:21:59.770Z</time>
      </trkpt>
      <trkpt lat="44.29608" lon="0.09939">
        <ele>147.484725</ele>
        <time>2022-12-28T15:22:02.760Z</time>
      </trkpt>
      <trkpt lat="44.29598" lon="0.09943">
        <ele>147.354398</ele>
        <time>2022-12-28T15:22:05.758Z</time>
      </trkpt>
      <trkpt lat="44.29588" lon="0.09949">
        <ele>147.222754</ele>
        <time>2022-12-28T15:22:08.754Z</time>
      </trkpt>
      <trkpt lat="44.29577" lon="0.09954">
        <ele>147.092942</ele>
        <time>2022-12-28T15:22:11.763Z</time>
      </trkpt>
      <trkpt lat="44.29566" lon="0.09959">
        <ele>146.952595</ele>
        <time>2022-12-28T15:22:14.759Z</time>
      </trkpt>
      <trkpt lat="44.29555" lon="0.09964">
        <ele>146.821179</ele>
        <time>2022-12-28T15:22:17.767Z</time>
      </trkpt>
      <trkpt lat="44.29544" lon="0.09969">
        <ele>146.68273</ele>
        <time>2022-12-28T15:22:20.754Z</time>
      </trkpt>
      <trkpt lat="44.29533" lon="0.09972">
        <ele>146.549062</ele>
        <time>2022-12-28T15:22:23.768Z</time>
      </trkpt>
      <trkpt lat="44.29522" lon="0.09976">
        <ele>146.418824</ele>
        <time>2022-12-28T15:22:26.753Z</time>
      </trkpt>
      <trkpt lat="44.29511" lon="0.09982">
        <ele>146.272311</ele>
        <time>2022-12-28T15:22:29.766Z</time>
      </trkpt>
      <trkpt lat="44.29499" lon="0.09987">
        <ele>146.123846</ele>
        <time>2022-12-28T15:22:32.749Z</time>
      </trkpt>
      <trkpt lat="44.29488" lon="0.09993">
        <ele>145.986425</ele>
        <time>2022-12-28T15:22:35.739Z</time>
      </trkpt>
      <trkpt lat="44.29476" lon="0.09998">
        <ele>145.840963</ele>
        <time>2022-12-28T15:22:38.765Z</time>
      </trkpt>
      <trkpt lat="44.29464" lon="0.10003">
        <ele>145.695501</ele>
        <time>2022-12-28T15:22:41.767Z</time>
      </trkpt>
      <trkpt lat="44.29455" lon="0.10007">
        <ele>145.586199</ele>
        <time>2022-12-28T15:22:43.760Z</time>
      </trkpt>
      <trkpt lat="44.29443" lon="0.10012">
        <ele>145.773432</ele>
        <time>2022-12-28T15:22:46.769Z</time>
      </trkpt>
      <trkpt lat="44.2943" lon="0.10018">
        <ele>146.360165</ele>
        <time>2022-12-28T15:22:49.758Z</time>
      </trkpt>
      <trkpt lat="44.29418" lon="0.10024">
        <ele>146.919849</ele>
        <time>2022-12-28T15:22:52.765Z</time>
      </trkpt>
      <trkpt lat="44.29406" lon="0.1003">
        <ele>147.483556</ele>
        <time>2022-12-28T15:22:55.745Z</time>
      </trkpt>
      <trkpt lat="44.29396" lon="0.10035">
        <ele>147.95861</ele>
        <time>2022-12-28T15:22:58.749Z</time>
      </trkpt>
      <trkpt lat="44.29387" lon="0.10039">
        <ele>148.378222</ele>
        <time>2022-12-28T15:23:01.751Z</time>
      </trkpt>
      <trkpt lat="44.29376" lon="0.10043">
        <ele>148.860365</ele>
        <time>2022-12-28T15:23:04.759Z</time>
      </trkpt>
      <trkpt lat="44.29367" lon="0.10048">
        <ele>149.297552</ele>
        <time>2022-12-28T15:23:07.763Z</time>
      </trkpt>
      <trkpt lat="44.29357" lon="0.10052">
        <ele>149.733605</ele>
        <time>2022-12-28T15:23:10.763Z</time>
      </trkpt>
      <trkpt lat="44.29347" lon="0.10057">
        <ele>150.217627</ele>
        <time>2022-12-28T15:23:13.743Z</time>
      </trkpt>
      <trkpt lat="44.29336" lon="0.10063">
        <ele>150.725437</ele>
        <time>2022-12-28T15:23:16.751Z</time>
      </trkpt>
      <trkpt lat="44.29325" lon="0.10069">
        <ele>151.2455</ele>
        <time>2022-12-28T15:23:19.755Z</time>
      </trkpt>
      <trkpt lat="44.29315" lon="0.10076">
        <ele>151.742614</ele>
        <time>2022-12-28T15:23:22.760Z</time>
      </trkpt>
      <trkpt lat="44.29305" lon="0.10083">
        <ele>152.239729</ele>
        <time>2022-12-28T15:23:25.755Z</time>
      </trkpt>
      <trkpt lat="44.29294" lon="0.1009">
        <ele>152.752085</ele>
        <time>2022-12-28T15:23:28.766Z</time>
      </trkpt>
      <trkpt lat="44.29284" lon="0.101">
        <ele>153.291182</ele>
        <time>2022-12-28T15:23:31.750Z</time>
      </trkpt>
      <trkpt lat="44.29275" lon="0.10109">
        <ele>153.393838</ele>
        <time>2022-12-28T15:23:34.753Z</time>
      </trkpt>
      <trkpt lat="44.29265" lon="0.10118">
        <ele>153.36888</ele>
        <time>2022-12-28T15:23:37.758Z</time>
      </trkpt>
      <trkpt lat="44.29255" lon="0.10127">
        <ele>153.342858</ele>
        <time>2022-12-28T15:23:40.756Z</time>
      </trkpt>
      <trkpt lat="44.29245" lon="0.10136">
        <ele>153.317634</ele>
        <time>2022-12-28T15:23:43.751Z</time>
      </trkpt>
      <trkpt lat="44.29236" lon="0.10145">
        <ele>153.293477</ele>
        <time>2022-12-28T15:23:46.765Z</time>
      </trkpt>
      <trkpt lat="44.29227" lon="0.10154">
        <ele>153.269778</ele>
        <time>2022-12-28T15:23:49.760Z</time>
      </trkpt>
      <trkpt lat="44.29219" lon="0.10163">
        <ele>153.246592</ele>
        <time>2022-12-28T15:23:52.761Z</time>
      </trkpt>
      <trkpt lat="44.29212" lon="0.10172">
        <ele>153.226202</ele>
        <time>2022-12-28T15:23:55.748Z</time>
      </trkpt>
      <trkpt lat="44.29203" lon="0.1018">
        <ele>153.202574</ele>
        <time>2022-12-28T15:23:58.741Z</time>
      </trkpt>
      <trkpt lat="44.29195" lon="0.10189">
        <ele>153.180697</ele>
        <time>2022-12-28T15:24:01.752Z</time>
      </trkpt>
      <trkpt lat="44.29186" lon="0.10196">
        <ele>153.158997</ele>
        <time>2022-12-28T15:24:04.764Z</time>
      </trkpt>
      <trkpt lat="44.29176" lon="0.10206">
        <ele>153.132694</ele>
        <time>2022-12-28T15:24:08.763Z</time>
      </trkpt>
      <trkpt lat="44.29168" lon="0.10213">
        <ele>153.112391</ele>
        <time>2022-12-28T15:24:11.737Z</time>
      </trkpt>
      <trkpt lat="44.2916" lon="0.10221">
        <ele>153.090988</ele>
        <time>2022-12-28T15:24:14.738Z</time>
      </trkpt>
      <trkpt lat="44.29152" lon="0.10231">
        <ele>153.066992</ele>
        <time>2022-12-28T15:24:17.754Z</time>
      </trkpt>
      <trkpt lat="44.29143" lon="0.1024">
        <ele>153.043024</ele>
        <time>2022-12-28T15:24:20.768Z</time>
      </trkpt>
      <trkpt lat="44.29133" lon="0.10249">
        <ele>152.943285</ele>
        <time>2022-12-28T15:24:23.758Z</time>
      </trkpt>
      <trkpt lat="44.29122" lon="0.10258">
        <ele>152.586067</ele>
        <time>2022-12-28T15:24:26.770Z</time>
      </trkpt>
      <trkpt lat="44.29114" lon="0.10265">
        <ele>152.319065</ele>
        <time>2022-12-28T15:24:28.750Z</time>
      </trkpt>
      <trkpt lat="44.29105" lon="0.10273">
        <ele>152.015964</ele>
        <time>2022-12-28T15:24:30.759Z</time>
      </trkpt>
      <trkpt lat="44.29095" lon="0.10283">
        <ele>151.689252</ele>
        <time>2022-12-28T15:24:32.768Z</time>
      </trkpt>
      <trkpt lat="44.29085" lon="0.10292">
        <ele>151.346563</ele>
        <time>2022-12-28T15:24:34.760Z</time>
      </trkpt>
      <trkpt lat="44.29075" lon="0.10301">
        <ele>151.021265</ele>
        <time>2022-12-28T15:24:36.755Z</time>
      </trkpt>
      <trkpt lat="44.29066" lon="0.10311">
        <ele>150.706279</ele>
        <time>2022-12-28T15:24:38.757Z</time>
      </trkpt>
      <trkpt lat="44.29055" lon="0.10321">
        <ele>150.330495</ele>
        <time>2022-12-28T15:24:40.742Z</time>
      </trkpt>
      <trkpt lat="44.29044" lon="0.10331">
        <ele>149.962787</ele>
        <time>2022-12-28T15:24:42.768Z</time>
      </trkpt>
      <trkpt lat="44.29033" lon="0.10343">
        <ele>149.570807</ele>
        <time>2022-12-28T15:24:44.757Z</time>
      </trkpt>
      <trkpt lat="44.29021" lon="0.10353">
        <ele>149.189926</ele>
        <time>2022-12-28T15:24:46.750Z</time>
      </trkpt>
      <trkpt lat="44.29011" lon="0.10363">
        <ele>148.843942</ele>
        <time>2022-12-28T15:24:48.750Z</time>
      </trkpt>
      <trkpt lat="44.29" lon="0.10374">
        <ele>148.469888</ele>
        <time>2022-12-28T15:24:50.754Z</time>
      </trkpt>
      <trkpt lat="44.28989" lon="0.10385">
        <ele>148.083799</ele>
        <time>2022-12-28T15:24:52.763Z</time>
      </trkpt>
      <trkpt lat="44.28977" lon="0.10395">
        <ele>147.524711</ele>
        <time>2022-12-28T15:24:54.768Z</time>
      </trkpt>
      <trkpt lat="44.28966" lon="0.10405">
        <ele>146.925825</ele>
        <time>2022-12-28T15:24:56.767Z</time>
      </trkpt>
      <trkpt lat="44.28955" lon="0.10416">
        <ele>146.311837</ele>
        <time>2022-12-28T15:24:58.766Z</time>
      </trkpt>
      <trkpt lat="44.28944" lon="0.10428">
        <ele>145.695959</ele>
        <time>2022-12-28T15:25:00.766Z</time>
      </trkpt>
      <trkpt lat="44.28933" lon="0.10439">
        <ele>145.083922</ele>
        <time>2022-12-28T15:25:02.768Z</time>
      </trkpt>
      <trkpt lat="44.28921" lon="0.10448">
        <ele>144.476244</ele>
        <time>2022-12-28T15:25:04.762Z</time>
      </trkpt>
      <trkpt lat="44.2891" lon="0.10459">
        <ele>143.864056</ele>
        <time>2022-12-28T15:25:06.751Z</time>
      </trkpt>
      <trkpt lat="44.28899" lon="0.1047">
        <ele>143.26667</ele>
        <time>2022-12-28T15:25:08.760Z</time>
      </trkpt>
      <trkpt lat="44.28888" lon="0.10481">
        <ele>142.66538</ele>
        <time>2022-12-28T15:25:10.754Z</time>
      </trkpt>
      <trkpt lat="44.28876" lon="0.10492">
        <ele>142.042201</ele>
        <time>2022-12-28T15:25:12.762Z</time>
      </trkpt>
      <trkpt lat="44.28865" lon="0.10503">
        <ele>141.419093</ele>
        <time>2022-12-28T15:25:14.758Z</time>
      </trkpt>
      <trkpt lat="44.28853" lon="0.10514">
        <ele>140.801186</ele>
        <time>2022-12-28T15:25:16.769Z</time>
      </trkpt>
      <trkpt lat="44.28841" lon="0.10525">
        <ele>140.146576</ele>
        <time>2022-12-28T15:25:18.772Z</time>
      </trkpt>
      <trkpt lat="44.28828" lon="0.10537">
        <ele>139.353956</ele>
        <time>2022-12-28T15:25:20.766Z</time>
      </trkpt>
      <trkpt lat="44.28815" lon="0.1055">
        <ele>138.495856</ele>
        <time>2022-12-28T15:25:22.753Z</time>
      </trkpt>
      <trkpt lat="44.28803" lon="0.10562">
        <ele>137.655513</ele>
        <time>2022-12-28T15:25:24.747Z</time>
      </trkpt>
      <trkpt lat="44.2879" lon="0.10574">
        <ele>136.797411</ele>
        <time>2022-12-28T15:25:26.751Z</time>
      </trkpt>
      <trkpt lat="44.28776" lon="0.10587">
        <ele>135.919262</ele>
        <time>2022-12-28T15:25:28.755Z</time>
      </trkpt>
      <trkpt lat="44.28763" lon="0.10601">
        <ele>135.000898</ele>
        <time>2022-12-28T15:25:30.763Z</time>
      </trkpt>
      <trkpt lat="44.2875" lon="0.10614">
        <ele>134.147246</ele>
        <time>2022-12-28T15:25:32.762Z</time>
      </trkpt>
      <trkpt lat="44.28736" lon="0.10627">
        <ele>133.222182</ele>
        <time>2022-12-28T15:25:34.769Z</time>
      </trkpt>
      <trkpt lat="44.28722" lon="0.10641">
        <ele>132.290534</ele>
        <time>2022-12-28T15:25:36.759Z</time>
      </trkpt>
      <trkpt lat="44.28708" lon="0.10654">
        <ele>131.38334</ele>
        <time>2022-12-28T15:25:38.766Z</time>
      </trkpt>
      <trkpt lat="44.28695" lon="0.10667">
        <ele>130.495566</ele>
        <time>2022-12-28T15:25:40.766Z</time>
      </trkpt>
      <trkpt lat="44.28681" lon="0.1068">
        <ele>129.955762</ele>
        <time>2022-12-28T15:25:42.752Z</time>
      </trkpt>
      <trkpt lat="44.28668" lon="0.10693">
        <ele>129.613416</ele>
        <time>2022-12-28T15:25:44.762Z</time>
      </trkpt>
      <trkpt lat="44.28655" lon="0.10706">
        <ele>129.288949</ele>
        <time>2022-12-28T15:25:46.753Z</time>
      </trkpt>
      <trkpt lat="44.28642" lon="0.10717">
        <ele>128.972787</ele>
        <time>2022-12-28T15:25:48.761Z</time>
      </trkpt>
      <trkpt lat="44.28631" lon="0.10729">
        <ele>128.681356</ele>
        <time>2022-12-28T15:25:50.765Z</time>
      </trkpt>
      <trkpt lat="44.2862" lon="0.1074">
        <ele>128.395209</ele>
        <time>2022-12-28T15:25:52.752Z</time>
      </trkpt>
      <trkpt lat="44.28608" lon="0.10751">
        <ele>128.111608</ele>
        <time>2022-12-28T15:25:54.757Z</time>
      </trkpt>
      <trkpt lat="44.28597" lon="0.1076">
        <ele>127.842942</ele>
        <time>2022-12-28T15:25:56.766Z</time>
      </trkpt>
      <trkpt lat="44.28588" lon="0.10771">
        <ele>127.598936</ele>
        <time>2022-12-28T15:25:58.754Z</time>
      </trkpt>
      <trkpt lat="44.28579" lon="0.1078">
        <ele>127.357032</ele>
        <time>2022-12-28T15:26:00.735Z</time>
      </trkpt>
      <trkpt lat="44.28569" lon="0.10787">
        <ele>127.137957</ele>
        <time>2022-12-28T15:26:02.751Z</time>
      </trkpt>
      <trkpt lat="44.28561" lon="0.10796">
        <ele>126.919954</ele>
        <time>2022-12-28T15:26:04.765Z</time>
      </trkpt>
      <trkpt lat="44.28552" lon="0.10804">
        <ele>126.697644</ele>
        <time>2022-12-28T15:26:06.757Z</time>
      </trkpt>
      <trkpt lat="44.28543" lon="0.10812">
        <ele>126.477887</ele>
        <time>2022-12-28T15:26:08.759Z</time>
      </trkpt>
      <trkpt lat="44.28533" lon="0.10821">
        <ele>126.329231</ele>
        <time>2022-12-28T15:26:10.758Z</time>
      </trkpt>
      <trkpt lat="44.28524" lon="0.1083">
        <ele>126.20385</ele>
        <time>2022-12-28T15:26:12.765Z</time>
      </trkpt>
      <trkpt lat="44.28515" lon="0.10841">
        <ele>126.077334</ele>
        <time>2022-12-28T15:26:14.756Z</time>
      </trkpt>
      <trkpt lat="44.28506" lon="0.10849">
        <ele>125.95509</ele>
        <time>2022-12-28T15:26:16.752Z</time>
      </trkpt>
      <trkpt lat="44.28497" lon="0.10858">
        <ele>125.82694</ele>
        <time>2022-12-28T15:26:18.764Z</time>
      </trkpt>
      <trkpt lat="44.28487" lon="0.10866">
        <ele>125.705184</ele>
        <time>2022-12-28T15:26:20.764Z</time>
      </trkpt>
      <trkpt lat="44.28478" lon="0.10875">
        <ele>125.57884</ele>
        <time>2022-12-28T15:26:22.766Z</time>
      </trkpt>
      <trkpt lat="44.28469" lon="0.10885">
        <ele>125.451592</ele>
        <time>2022-12-28T15:26:24.754Z</time>
      </trkpt>
      <trkpt lat="44.2846" lon="0.10894">
        <ele>125.327286</ele>
        <time>2022-12-28T15:26:26.762Z</time>
      </trkpt>
      <trkpt lat="44.2845" lon="0.10904">
        <ele>125.190444</ele>
        <time>2022-12-28T15:26:28.759Z</time>
      </trkpt>
      <trkpt lat="44.2844" lon="0.10913">
        <ele>125.061852</ele>
        <time>2022-12-28T15:26:30.763Z</time>
      </trkpt>
      <trkpt lat="44.2843" lon="0.10922">
        <ele>124.925443</ele>
        <time>2022-12-28T15:26:32.768Z</time>
      </trkpt>
      <trkpt lat="44.2842" lon="0.10931">
        <ele>124.795434</ele>
        <time>2022-12-28T15:26:34.767Z</time>
      </trkpt>
      <trkpt lat="44.28411" lon="0.10941">
        <ele>124.670978</ele>
        <time>2022-12-28T15:26:36.759Z</time>
      </trkpt>
      <trkpt lat="44.28402" lon="0.1095">
        <ele>124.541019</ele>
        <time>2022-12-28T15:26:38.752Z</time>
      </trkpt>
      <trkpt lat="44.28392" lon="0.10959">
        <ele>124.457736</ele>
        <time>2022-12-28T15:26:40.746Z</time>
      </trkpt>
      <trkpt lat="44.28382" lon="0.10966">
        <ele>124.525658</ele>
        <time>2022-12-28T15:26:42.739Z</time>
      </trkpt>
      <trkpt lat="44.28373" lon="0.10974">
        <ele>124.591194</ele>
        <time>2022-12-28T15:26:44.761Z</time>
      </trkpt>
      <trkpt lat="44.28363" lon="0.10983">
        <ele>124.661756</ele>
        <time>2022-12-28T15:26:46.739Z</time>
      </trkpt>
      <trkpt lat="44.28354" lon="0.10991">
        <ele>124.72921</ele>
        <time>2022-12-28T15:26:48.760Z</time>
      </trkpt>
      <trkpt lat="44.28345" lon="0.10999">
        <ele>124.794701</ele>
        <time>2022-12-28T15:26:50.738Z</time>
      </trkpt>
      <trkpt lat="44.28336" lon="0.11009">
        <ele>124.863464</ele>
        <time>2022-12-28T15:26:52.737Z</time>
      </trkpt>
      <trkpt lat="44.28328" lon="0.11016">
        <ele>124.924698</ele>
        <time>2022-12-28T15:26:54.760Z</time>
      </trkpt>
      <trkpt lat="44.28319" lon="0.11024">
        <ele>124.989721</ele>
        <time>2022-12-28T15:26:56.759Z</time>
      </trkpt>
      <trkpt lat="44.2831" lon="0.1103">
        <ele>125.046143</ele>
        <time>2022-12-28T15:26:58.750Z</time>
      </trkpt>
      <trkpt lat="44.28301" lon="0.11038">
        <ele>125.115253</ele>
        <time>2022-12-28T15:27:00.757Z</time>
      </trkpt>
      <trkpt lat="44.28291" lon="0.11047">
        <ele>125.182808</ele>
        <time>2022-12-28T15:27:02.766Z</time>
      </trkpt>
      <trkpt lat="44.28283" lon="0.11054">
        <ele>125.243047</ele>
        <time>2022-12-28T15:27:04.765Z</time>
      </trkpt>
      <trkpt lat="44.28275" lon="0.11063">
        <ele>125.306567</ele>
        <time>2022-12-28T15:27:06.767Z</time>
      </trkpt>
      <trkpt lat="44.28266" lon="0.11071">
        <ele>125.369553</ele>
        <time>2022-12-28T15:27:08.767Z</time>
      </trkpt>
      <trkpt lat="44.28259" lon="0.1108">
        <ele>125.427366</ele>
        <time>2022-12-28T15:27:10.766Z</time>
      </trkpt>
      <trkpt lat="44.28251" lon="0.11087">
        <ele>125.488908</ele>
        <time>2022-12-28T15:27:12.755Z</time>
      </trkpt>
      <trkpt lat="44.28242" lon="0.11096">
        <ele>125.610082</ele>
        <time>2022-12-28T15:27:14.767Z</time>
      </trkpt>
      <trkpt lat="44.28235" lon="0.11104">
        <ele>125.974837</ele>
        <time>2022-12-28T15:27:16.762Z</time>
      </trkpt>
      <trkpt lat="44.28226" lon="0.11113">
        <ele>126.378986</ele>
        <time>2022-12-28T15:27:18.761Z</time>
      </trkpt>
      <trkpt lat="44.28218" lon="0.11122">
        <ele>126.760429</ele>
        <time>2022-12-28T15:27:20.763Z</time>
      </trkpt>
      <trkpt lat="44.28208" lon="0.1113">
        <ele>127.19381</ele>
        <time>2022-12-28T15:27:22.744Z</time>
      </trkpt>
      <trkpt lat="44.28199" lon="0.1114">
        <ele>127.595151</ele>
        <time>2022-12-28T15:27:24.740Z</time>
      </trkpt>
      <trkpt lat="44.28191" lon="0.11148">
        <ele>127.980996</ele>
        <time>2022-12-28T15:27:26.762Z</time>
      </trkpt>
      <trkpt lat="44.28181" lon="0.11156">
        <ele>128.397366</ele>
        <time>2022-12-28T15:27:28.753Z</time>
      </trkpt>
      <trkpt lat="44.28172" lon="0.11164">
        <ele>128.814572</ele>
        <time>2022-12-28T15:27:30.748Z</time>
      </trkpt>
      <trkpt lat="44.28163" lon="0.11172">
        <ele>129.197464</ele>
        <time>2022-12-28T15:27:32.752Z</time>
      </trkpt>
      <trkpt lat="44.28155" lon="0.11181">
        <ele>129.598806</ele>
        <time>2022-12-28T15:27:34.767Z</time>
      </trkpt>
      <trkpt lat="44.28146" lon="0.1119">
        <ele>129.992617</ele>
        <time>2022-12-28T15:27:36.764Z</time>
      </trkpt>
      <trkpt lat="44.28138" lon="0.11199">
        <ele>130.387783</ele>
        <time>2022-12-28T15:27:38.743Z</time>
      </trkpt>
      <trkpt lat="44.2813" lon="0.11206">
        <ele>130.736146</ele>
        <time>2022-12-28T15:27:40.768Z</time>
      </trkpt>
      <trkpt lat="44.28121" lon="0.11215">
        <ele>131.118992</ele>
        <time>2022-12-28T15:27:42.769Z</time>
      </trkpt>
      <trkpt lat="44.28113" lon="0.11222">
        <ele>131.483853</ele>
        <time>2022-12-28T15:27:44.769Z</time>
      </trkpt>
      <trkpt lat="44.28105" lon="0.1123">
        <ele>131.848937</ele>
        <time>2022-12-28T15:27:46.767Z</time>
      </trkpt>
      <trkpt lat="44.28096" lon="0.11239">
        <ele>132.234302</ele>
        <time>2022-12-28T15:27:48.765Z</time>
      </trkpt>
      <trkpt lat="44.28086" lon="0.11246">
        <ele>132.26203</ele>
        <time>2022-12-28T15:27:50.749Z</time>
      </trkpt>
      <trkpt lat="44.28077" lon="0.11254">
        <ele>132.290182</ele>
        <time>2022-12-28T15:27:52.766Z</time>
      </trkpt>
      <trkpt lat="44.28069" lon="0.11263">
        <ele>132.316329</ele>
        <time>2022-12-28T15:27:54.787Z</time>
      </trkpt>
      <trkpt lat="44.2806" lon="0.11271">
        <ele>132.34309</ele>
        <time>2022-12-28T15:27:56.767Z</time>
      </trkpt>
      <trkpt lat="44.28051" lon="0.1128">
        <ele>132.371376</ele>
        <time>2022-12-28T15:27:58.752Z</time>
      </trkpt>
      <trkpt lat="44.28043" lon="0.11289">
        <ele>132.39795</ele>
        <time>2022-12-28T15:28:00.758Z</time>
      </trkpt>
      <trkpt lat="44.28034" lon="0.11299">
        <ele>132.424948</ele>
        <time>2022-12-28T15:28:02.768Z</time>
      </trkpt>
      <trkpt lat="44.28026" lon="0.11307">
        <ele>132.451151</ele>
        <time>2022-12-28T15:28:04.753Z</time>
      </trkpt>
      <trkpt lat="44.28017" lon="0.11316">
        <ele>132.478184</ele>
        <time>2022-12-28T15:28:06.757Z</time>
      </trkpt>
      <trkpt lat="44.28009" lon="0.11324">
        <ele>132.503912</ele>
        <time>2022-12-28T15:28:08.758Z</time>
      </trkpt>
      <trkpt lat="44.28" lon="0.11332">
        <ele>132.530032</ele>
        <time>2022-12-28T15:28:10.753Z</time>
      </trkpt>
      <trkpt lat="44.27992" lon="0.11341">
        <ele>132.556035</ele>
        <time>2022-12-28T15:28:12.766Z</time>
      </trkpt>
      <trkpt lat="44.27983" lon="0.11349">
        <ele>132.583897</ele>
        <time>2022-12-28T15:28:14.753Z</time>
      </trkpt>
      <trkpt lat="44.27974" lon="0.11358">
        <ele>132.610536</ele>
        <time>2022-12-28T15:28:16.758Z</time>
      </trkpt>
      <trkpt lat="44.27966" lon="0.11367">
        <ele>132.636539</ele>
        <time>2022-12-28T15:28:18.744Z</time>
      </trkpt>
      <trkpt lat="44.27958" lon="0.11375">
        <ele>132.662335</ele>
        <time>2022-12-28T15:28:20.759Z</time>
      </trkpt>
      <trkpt lat="44.2795" lon="0.11382">
        <ele>132.685445</ele>
        <time>2022-12-28T15:28:22.751Z</time>
      </trkpt>
      <trkpt lat="44.27941" lon="0.1139">
        <ele>132.3957</ele>
        <time>2022-12-28T15:28:24.758Z</time>
      </trkpt>
      <trkpt lat="44.27933" lon="0.11398">
        <ele>132.11748</ele>
        <time>2022-12-28T15:28:26.758Z</time>
      </trkpt>
      <trkpt lat="44.27926" lon="0.11405">
        <ele>131.855652</ele>
        <time>2022-12-28T15:28:28.750Z</time>
      </trkpt>
      <trkpt lat="44.27918" lon="0.11413">
        <ele>131.574104</ele>
        <time>2022-12-28T15:28:30.766Z</time>
      </trkpt>
      <trkpt lat="44.2791" lon="0.11422">
        <ele>131.296632</ele>
        <time>2022-12-28T15:28:32.737Z</time>
      </trkpt>
      <trkpt lat="44.27902" lon="0.11429">
        <ele>131.024856</ele>
        <time>2022-12-28T15:28:34.768Z</time>
      </trkpt>
      <trkpt lat="44.27893" lon="0.11435">
        <ele>130.738866</ele>
        <time>2022-12-28T15:28:36.770Z</time>
      </trkpt>
      <trkpt lat="44.27884" lon="0.11442">
        <ele>130.443283</ele>
        <time>2022-12-28T15:28:38.760Z</time>
      </trkpt>
      <trkpt lat="44.27875" lon="0.1145">
        <ele>130.137931</ele>
        <time>2022-12-28T15:28:40.754Z</time>
      </trkpt>
      <trkpt lat="44.27868" lon="0.11458">
        <ele>129.879232</ele>
        <time>2022-12-28T15:28:42.760Z</time>
      </trkpt>
      <trkpt lat="44.2786" lon="0.11466">
        <ele>129.601144</ele>
        <time>2022-12-28T15:28:44.756Z</time>
      </trkpt>
      <trkpt lat="44.27852" lon="0.11474">
        <ele>129.323055</ele>
        <time>2022-12-28T15:28:46.747Z</time>
      </trkpt>
      <trkpt lat="44.27844" lon="0.11481">
        <ele>129.045677</ele>
        <time>2022-12-28T15:28:48.747Z</time>
      </trkpt>
      <trkpt lat="44.27836" lon="0.11488">
        <ele>128.788618</ele>
        <time>2022-12-28T15:28:50.767Z</time>
      </trkpt>
      <trkpt lat="44.27829" lon="0.11497">
        <ele>128.523442</ele>
        <time>2022-12-28T15:28:52.740Z</time>
      </trkpt>
      <trkpt lat="44.27821" lon="0.11504">
        <ele>128.258981</ele>
        <time>2022-12-28T15:28:54.762Z</time>
      </trkpt>
      <trkpt lat="44.27814" lon="0.11511">
        <ele>127.998417</ele>
        <time>2022-12-28T15:28:56.758Z</time>
      </trkpt>
      <trkpt lat="44.27807" lon="0.11519">
        <ele>127.736217</ele>
        <time>2022-12-28T15:28:58.764Z</time>
      </trkpt>
      <trkpt lat="44.27799" lon="0.11527">
        <ele>127.489067</ele>
        <time>2022-12-28T15:29:00.765Z</time>
      </trkpt>
      <trkpt lat="44.27792" lon="0.11535">
        <ele>127.265481</ele>
        <time>2022-12-28T15:29:02.740Z</time>
      </trkpt>
      <trkpt lat="44.27781" lon="0.11547">
        <ele>126.950575</ele>
        <time>2022-12-28T15:29:05.757Z</time>
      </trkpt>
      <trkpt lat="44.2777" lon="0.11558">
        <ele>126.639392</ele>
        <time>2022-12-28T15:29:08.740Z</time>
      </trkpt>
      <trkpt lat="44.27763" lon="0.11565">
        <ele>126.427859</ele>
        <time>2022-12-28T15:29:10.762Z</time>
      </trkpt>
      <trkpt lat="44.27752" lon="0.11577">
        <ele>126.113359</ele>
        <time>2022-12-28T15:29:13.740Z</time>
      </trkpt>
      <trkpt lat="44.27744" lon="0.11583">
        <ele>125.899391</ele>
        <time>2022-12-28T15:29:15.744Z</time>
      </trkpt>
      <trkpt lat="44.27737" lon="0.11591">
        <ele>125.677453</ele>
        <time>2022-12-28T15:29:17.757Z</time>
      </trkpt>
      <trkpt lat="44.27726" lon="0.11601">
        <ele>125.367482</ele>
        <time>2022-12-28T15:29:20.766Z</time>
      </trkpt>
      <trkpt lat="44.27718" lon="0.11609">
        <ele>125.138843</ele>
        <time>2022-12-28T15:29:22.751Z</time>
      </trkpt>
      <trkpt lat="44.2771" lon="0.11617">
        <ele>124.909947</ele>
        <time>2022-12-28T15:29:24.758Z</time>
      </trkpt>
      <trkpt lat="44.27701" lon="0.11625">
        <ele>124.671729</ele>
        <time>2022-12-28T15:29:26.741Z</time>
      </trkpt>
      <trkpt lat="44.27693" lon="0.11633">
        <ele>124.441143</ele>
        <time>2022-12-28T15:29:28.755Z</time>
      </trkpt>
      <trkpt lat="44.27685" lon="0.1164">
        <ele>124.217222</ele>
        <time>2022-12-28T15:29:30.739Z</time>
      </trkpt>
      <trkpt lat="44.27677" lon="0.11649">
        <ele>123.978921</ele>
        <time>2022-12-28T15:29:32.756Z</time>
      </trkpt>
      <trkpt lat="44.27668" lon="0.11656">
        <ele>123.744071</ele>
        <time>2022-12-28T15:29:34.760Z</time>
      </trkpt>
      <trkpt lat="44.27662" lon="0.11666">
        <ele>123.50936</ele>
        <time>2022-12-28T15:29:36.754Z</time>
      </trkpt>
      <trkpt lat="44.27653" lon="0.11673">
        <ele>123.498154</ele>
        <time>2022-12-28T15:29:38.756Z</time>
      </trkpt>
      <trkpt lat="44.27645" lon="0.11682">
        <ele>123.925857</ele>
        <time>2022-12-28T15:29:40.758Z</time>
      </trkpt>
      <trkpt lat="44.27637" lon="0.11691">
        <ele>124.32383</ele>
        <time>2022-12-28T15:29:42.737Z</time>
      </trkpt>
      <trkpt lat="44.27629" lon="0.11697">
        <ele>124.701118</ele>
        <time>2022-12-28T15:29:44.765Z</time>
      </trkpt>
      <trkpt lat="44.27622" lon="0.11707">
        <ele>125.090761</ele>
        <time>2022-12-28T15:29:46.760Z</time>
      </trkpt>
      <trkpt lat="44.27614" lon="0.11714">
        <ele>125.476392</ele>
        <time>2022-12-28T15:29:48.766Z</time>
      </trkpt>
      <trkpt lat="44.27605" lon="0.11723">
        <ele>125.904731</ele>
        <time>2022-12-28T15:29:50.768Z</time>
      </trkpt>
      <trkpt lat="44.27597" lon="0.1173">
        <ele>126.284737</ele>
        <time>2022-12-28T15:29:52.755Z</time>
      </trkpt>
      <trkpt lat="44.27589" lon="0.11739">
        <ele>126.704224</ele>
        <time>2022-12-28T15:29:54.765Z</time>
      </trkpt>
      <trkpt lat="44.2758" lon="0.11746">
        <ele>127.132298</ele>
        <time>2022-12-28T15:29:56.760Z</time>
      </trkpt>
      <trkpt lat="44.2757" lon="0.11755">
        <ele>127.58479</ele>
        <time>2022-12-28T15:29:58.755Z</time>
      </trkpt>
      <trkpt lat="44.27563" lon="0.11764">
        <ele>127.991072</ele>
        <time>2022-12-28T15:30:00.766Z</time>
      </trkpt>
      <trkpt lat="44.27554" lon="0.11772">
        <ele>128.391124</ele>
        <time>2022-12-28T15:30:02.757Z</time>
      </trkpt>
      <trkpt lat="44.27547" lon="0.11779">
        <ele>128.763155</ele>
        <time>2022-12-28T15:30:04.757Z</time>
      </trkpt>
      <trkpt lat="44.27538" lon="0.11786">
        <ele>129.149895</ele>
        <time>2022-12-28T15:30:06.757Z</time>
      </trkpt>
      <trkpt lat="44.27529" lon="0.11796">
        <ele>129.643235</ele>
        <time>2022-12-28T15:30:09.766Z</time>
      </trkpt>
      <trkpt lat="44.27519" lon="0.11806">
        <ele>130.10548</ele>
        <time>2022-12-28T15:30:12.751Z</time>
      </trkpt>
      <trkpt lat="44.2751" lon="0.11815">
        <ele>130.556258</ele>
        <time>2022-12-28T15:30:15.755Z</time>
      </trkpt>
      <trkpt lat="44.27501" lon="0.11824">
        <ele>130.907368</ele>
        <time>2022-12-28T15:30:18.756Z</time>
      </trkpt>
      <trkpt lat="44.27492" lon="0.11831">
        <ele>131.217875</ele>
        <time>2022-12-28T15:30:21.747Z</time>
      </trkpt>
      <trkpt lat="44.27484" lon="0.11839">
        <ele>131.536705</ele>
        <time>2022-12-28T15:30:24.768Z</time>
      </trkpt>
      <trkpt lat="44.27475" lon="0.11847">
        <ele>131.868505</ele>
        <time>2022-12-28T15:30:27.751Z</time>
      </trkpt>
      <trkpt lat="44.27467" lon="0.11855">
        <ele>132.191195</ele>
        <time>2022-12-28T15:30:30.750Z</time>
      </trkpt>
      <trkpt lat="44.27459" lon="0.11863">
        <ele>132.501063</ele>
        <time>2022-12-28T15:30:33.742Z</time>
      </trkpt>
      <trkpt lat="44.27451" lon="0.11871">
        <ele>132.797192</ele>
        <time>2022-12-28T15:30:36.762Z</time>
      </trkpt>
      <trkpt lat="44.27444" lon="0.11879">
        <ele>133.086765</ele>
        <time>2022-12-28T15:30:39.762Z</time>
      </trkpt>
      <trkpt lat="44.27437" lon="0.11888">
        <ele>133.378365</ele>
        <time>2022-12-28T15:30:42.760Z</time>
      </trkpt>
      <trkpt lat="44.27429" lon="0.11895">
        <ele>133.658787</ele>
        <time>2022-12-28T15:30:45.758Z</time>
      </trkpt>
      <trkpt lat="44.2742" lon="0.11903">
        <ele>133.995556</ele>
        <time>2022-12-28T15:30:49.766Z</time>
      </trkpt>
      <trkpt lat="44.27412" lon="0.1191">
        <ele>134.28924</ele>
        <time>2022-12-28T15:30:52.744Z</time>
      </trkpt>
      <trkpt lat="44.27404" lon="0.11918">
        <ele>134.602966</ele>
        <time>2022-12-28T15:30:55.746Z</time>
      </trkpt>
      <trkpt lat="44.27397" lon="0.11926">
        <ele>134.893605</ele>
        <time>2022-12-28T15:30:58.736Z</time>
      </trkpt>
      <trkpt lat="44.2739" lon="0.11935">
        <ele>135.175682</ele>
        <time>2022-12-28T15:31:01.759Z</time>
      </trkpt>
      <trkpt lat="44.2738" lon="0.11944">
        <ele>135.543175</ele>
        <time>2022-12-28T15:31:05.758Z</time>
      </trkpt>
      <trkpt lat="44.27371" lon="0.11948">
        <ele>135.862077</ele>
        <time>2022-12-28T15:31:08.742Z</time>
      </trkpt>
      <trkpt lat="44.27364" lon="0.11959">
        <ele>136.176236</ele>
        <time>2022-12-28T15:31:11.746Z</time>
      </trkpt>
      <trkpt lat="44.27356" lon="0.11969">
        <ele>135.789912</ele>
        <time>2022-12-28T15:31:14.756Z</time>
      </trkpt>
      <trkpt lat="44.27347" lon="0.11978">
        <ele>135.351732</ele>
        <time>2022-12-28T15:31:17.759Z</time>
      </trkpt>
      <trkpt lat="44.27338" lon="0.11987">
        <ele>134.887738</ele>
        <time>2022-12-28T15:31:20.767Z</time>
      </trkpt>
      <trkpt lat="44.27327" lon="0.11998">
        <ele>134.354679</ele>
        <time>2022-12-28T15:31:23.764Z</time>
      </trkpt>
      <trkpt lat="44.27319" lon="0.12004">
        <ele>133.980102</ele>
        <time>2022-12-28T15:31:25.770Z</time>
      </trkpt>
      <trkpt lat="44.27311" lon="0.12011">
        <ele>133.614518</ele>
        <time>2022-12-28T15:31:27.766Z</time>
      </trkpt>
      <trkpt lat="44.27301" lon="0.12023">
        <ele>133.090157</ele>
        <time>2022-12-28T15:31:30.760Z</time>
      </trkpt>
      <trkpt lat="44.27293" lon="0.1203">
        <ele>132.69792</ele>
        <time>2022-12-28T15:31:32.754Z</time>
      </trkpt>
      <trkpt lat="44.27282" lon="0.12041">
        <ele>132.166139</ele>
        <time>2022-12-28T15:31:35.758Z</time>
      </trkpt>
      <trkpt lat="44.27275" lon="0.12048">
        <ele>131.788021</ele>
        <time>2022-12-28T15:31:37.760Z</time>
      </trkpt>
      <trkpt lat="44.27266" lon="0.12054">
        <ele>131.391309</ele>
        <time>2022-12-28T15:31:39.767Z</time>
      </trkpt>
      <trkpt lat="44.27259" lon="0.12063">
        <ele>131.01864</ele>
        <time>2022-12-28T15:31:41.768Z</time>
      </trkpt>
      <trkpt lat="44.27251" lon="0.12071">
        <ele>130.608763</ele>
        <time>2022-12-28T15:31:43.742Z</time>
      </trkpt>
      <trkpt lat="44.27241" lon="0.12079">
        <ele>130.172132</ele>
        <time>2022-12-28T15:31:45.767Z</time>
      </trkpt>
      <trkpt lat="44.27231" lon="0.12089">
        <ele>129.656862</ele>
        <time>2022-12-28T15:31:48.732Z</time>
      </trkpt>
      <trkpt lat="44.2722" lon="0.12094">
        <ele>129.192144</ele>
        <time>2022-12-28T15:31:50.767Z</time>
      </trkpt>
      <trkpt lat="44.27213" lon="0.12105">
        <ele>128.886691</ele>
        <time>2022-12-28T15:31:52.739Z</time>
      </trkpt>
      <trkpt lat="44.27207" lon="0.12116">
        <ele>128.730809</ele>
        <time>2022-12-28T15:31:54.762Z</time>
      </trkpt>
      <trkpt lat="44.27199" lon="0.12126">
        <ele>128.579224</ele>
        <time>2022-12-28T15:31:56.747Z</time>
      </trkpt>
      <trkpt lat="44.27191" lon="0.12133">
        <ele>128.42737</ele>
        <time>2022-12-28T15:31:58.750Z</time>
      </trkpt>
      <trkpt lat="44.27182" lon="0.12141">
        <ele>128.269637</ele>
        <time>2022-12-28T15:32:00.758Z</time>
      </trkpt>
      <trkpt lat="44.27175" lon="0.12149">
        <ele>128.125905</ele>
        <time>2022-12-28T15:32:02.750Z</time>
      </trkpt>
      <trkpt lat="44.27167" lon="0.12157">
        <ele>127.972192</ele>
        <time>2022-12-28T15:32:04.750Z</time>
      </trkpt>
      <trkpt lat="44.27158" lon="0.12163">
        <ele>127.818223</ele>
        <time>2022-12-28T15:32:06.747Z</time>
      </trkpt>
      <trkpt lat="44.2715" lon="0.12171">
        <ele>127.665638</ele>
        <time>2022-12-28T15:32:08.768Z</time>
      </trkpt>
      <trkpt lat="44.27142" lon="0.12179">
        <ele>127.522003</ele>
        <time>2022-12-28T15:32:10.752Z</time>
      </trkpt>
      <trkpt lat="44.27133" lon="0.12187">
        <ele>127.362627</ele>
        <time>2022-12-28T15:32:12.749Z</time>
      </trkpt>
      <trkpt lat="44.27125" lon="0.12194">
        <ele>127.208205</ele>
        <time>2022-12-28T15:32:14.737Z</time>
      </trkpt>
      <trkpt lat="44.27117" lon="0.12202">
        <ele>127.061389</ele>
        <time>2022-12-28T15:32:16.739Z</time>
      </trkpt>
      <trkpt lat="44.27109" lon="0.1221">
        <ele>126.908969</ele>
        <time>2022-12-28T15:32:18.756Z</time>
      </trkpt>
      <trkpt lat="44.271" lon="0.12217">
        <ele>126.760875</ele>
        <time>2022-12-28T15:32:20.759Z</time>
      </trkpt>
      <trkpt lat="44.27092" lon="0.12222">
        <ele>126.61711</ele>
        <time>2022-12-28T15:32:22.741Z</time>
      </trkpt>
      <trkpt lat="44.27084" lon="0.12231">
        <ele>126.462505</ele>
        <time>2022-12-28T15:32:24.759Z</time>
      </trkpt>
      <trkpt lat="44.27077" lon="0.12239">
        <ele>126.316092</ele>
        <time>2022-12-28T15:32:26.746Z</time>
      </trkpt>
      <trkpt lat="44.27068" lon="0.12247">
        <ele>126.249122</ele>
        <time>2022-12-28T15:32:28.763Z</time>
      </trkpt>
      <trkpt lat="44.27058" lon="0.12253">
        <ele>126.404979</ele>
        <time>2022-12-28T15:32:30.765Z</time>
      </trkpt>
      <trkpt lat="44.2705" lon="0.12261">
        <ele>126.534606</ele>
        <time>2022-12-28T15:32:32.755Z</time>
      </trkpt>
      <trkpt lat="44.27042" lon="0.12268">
        <ele>126.671139</ele>
        <time>2022-12-28T15:32:34.752Z</time>
      </trkpt>
      <trkpt lat="44.27032" lon="0.1228">
        <ele>126.858034</ele>
        <time>2022-12-28T15:32:37.751Z</time>
      </trkpt>
      <trkpt lat="44.27024" lon="0.12287">
        <ele>126.996332</ele>
        <time>2022-12-28T15:32:39.766Z</time>
      </trkpt>
      <trkpt lat="44.27017" lon="0.12297">
        <ele>127.127373</ele>
        <time>2022-12-28T15:32:41.767Z</time>
      </trkpt>
      <trkpt lat="44.2701" lon="0.12306">
        <ele>127.260738</ele>
        <time>2022-12-28T15:32:43.741Z</time>
      </trkpt>
      <trkpt lat="44.27002" lon="0.12313">
        <ele>127.39739</ele>
        <time>2022-12-28T15:32:45.763Z</time>
      </trkpt>
      <trkpt lat="44.26991" lon="0.12323">
        <ele>127.578876</ele>
        <time>2022-12-28T15:32:48.766Z</time>
      </trkpt>
      <trkpt lat="44.2698" lon="0.12335">
        <ele>127.774909</ele>
        <time>2022-12-28T15:32:51.767Z</time>
      </trkpt>
      <trkpt lat="44.26972" lon="0.12342">
        <ele>127.90741</ele>
        <time>2022-12-28T15:32:53.754Z</time>
      </trkpt>
      <trkpt lat="44.26965" lon="0.12351">
        <ele>128.040438</ele>
        <time>2022-12-28T15:32:55.750Z</time>
      </trkpt>
      <trkpt lat="44.26957" lon="0.12358">
        <ele>128.1695</ele>
        <time>2022-12-28T15:32:57.759Z</time>
      </trkpt>
      <trkpt lat="44.26949" lon="0.12364">
        <ele>128.304257</ele>
        <time>2022-12-28T15:32:59.768Z</time>
      </trkpt>
      <trkpt lat="44.26939" lon="0.12376">
        <ele>128.491675</ele>
        <time>2022-12-28T15:33:02.760Z</time>
      </trkpt>
      <trkpt lat="44.26931" lon="0.12383">
        <ele>128.618413</ele>
        <time>2022-12-28T15:33:04.762Z</time>
      </trkpt>
      <trkpt lat="44.26924" lon="0.12391">
        <ele>128.745906</ele>
        <time>2022-12-28T15:33:06.771Z</time>
      </trkpt>
      <trkpt lat="44.26917" lon="0.12398">
        <ele>128.866103</ele>
        <time>2022-12-28T15:33:08.759Z</time>
      </trkpt>
      <trkpt lat="44.26908" lon="0.12405">
        <ele>128.988235</ele>
        <time>2022-12-28T15:33:10.746Z</time>
      </trkpt>
      <trkpt lat="44.269" lon="0.12411">
        <ele>129.106751</ele>
        <time>2022-12-28T15:33:12.738Z</time>
      </trkpt>
      <trkpt lat="44.26893" lon="0.12419">
        <ele>129.225285</ele>
        <time>2022-12-28T15:33:14.741Z</time>
      </trkpt>
      <trkpt lat="44.26885" lon="0.12427">
        <ele>129.346448</ele>
        <time>2022-12-28T15:33:16.745Z</time>
      </trkpt>
      <trkpt lat="44.26878" lon="0.12434">
        <ele>129.470245</ele>
        <time>2022-12-28T15:33:18.744Z</time>
      </trkpt>
      <trkpt lat="44.26868" lon="0.12446">
        <ele>129.63524</ele>
        <time>2022-12-28T15:33:21.752Z</time>
      </trkpt>
      <trkpt lat="44.26861" lon="0.12454">
        <ele>129.752048</ele>
        <time>2022-12-28T15:33:23.763Z</time>
      </trkpt>
      <trkpt lat="44.26853" lon="0.12462">
        <ele>129.873214</ele>
        <time>2022-12-28T15:33:25.742Z</time>
      </trkpt>
      <trkpt lat="44.26845" lon="0.12469">
        <ele>129.992281</ele>
        <time>2022-12-28T15:33:27.757Z</time>
      </trkpt>
      <trkpt lat="44.26835" lon="0.1248">
        <ele>130.16582</ele>
        <time>2022-12-28T15:33:30.765Z</time>
      </trkpt>
      <trkpt lat="44.26826" lon="0.12489">
        <ele>130.305482</ele>
        <time>2022-12-28T15:33:33.746Z</time>
      </trkpt>
      <trkpt lat="44.26816" lon="0.12498">
        <ele>130.462982</ele>
        <time>2022-12-28T15:33:36.743Z</time>
      </trkpt>
      <trkpt lat="44.26805" lon="0.12507">
        <ele>130.62488</ele>
        <time>2022-12-28T15:33:39.753Z</time>
      </trkpt>
      <trkpt lat="44.26794" lon="0.12517">
        <ele>130.791668</ele>
        <time>2022-12-28T15:33:42.759Z</time>
      </trkpt>
      <trkpt lat="44.26784" lon="0.12527">
        <ele>130.952032</ele>
        <time>2022-12-28T15:33:45.752Z</time>
      </trkpt>
      <trkpt lat="44.26773" lon="0.12536">
        <ele>131.241794</ele>
        <time>2022-12-28T15:33:48.754Z</time>
      </trkpt>
      <trkpt lat="44.26763" lon="0.12546">
        <ele>131.747031</ele>
        <time>2022-12-28T15:33:51.771Z</time>
      </trkpt>
      <trkpt lat="44.26753" lon="0.12555">
        <ele>132.248739</ele>
        <time>2022-12-28T15:33:54.766Z</time>
      </trkpt>
      <trkpt lat="44.26743" lon="0.12563">
        <ele>132.738655</ele>
        <time>2022-12-28T15:33:57.766Z</time>
      </trkpt>
      <trkpt lat="44.26734" lon="0.12573">
        <ele>133.237193</ele>
        <time>2022-12-28T15:34:00.760Z</time>
      </trkpt>
      <trkpt lat="44.26724" lon="0.12583">
        <ele>133.738935</ele>
        <time>2022-12-28T15:34:03.765Z</time>
      </trkpt>
      <trkpt lat="44.26714" lon="0.12593">
        <ele>134.23895</ele>
        <time>2022-12-28T15:34:06.769Z</time>
      </trkpt>
      <trkpt lat="44.26704" lon="0.12602">
        <ele>134.73554</ele>
        <time>2022-12-28T15:34:09.769Z</time>
      </trkpt>
      <trkpt lat="44.26695" lon="0.12611">
        <ele>135.187759</ele>
        <time>2022-12-28T15:34:12.768Z</time>
      </trkpt>
      <trkpt lat="44.26687" lon="0.1262">
        <ele>135.642362</ele>
        <time>2022-12-28T15:34:15.768Z</time>
      </trkpt>
      <trkpt lat="44.26678" lon="0.1263">
        <ele>136.093695</ele>
        <time>2022-12-28T15:34:18.768Z</time>
      </trkpt>
      <trkpt lat="44.2667" lon="0.12639">
        <ele>136.548752</ele>
        <time>2022-12-28T15:34:21.749Z</time>
      </trkpt>
      <trkpt lat="44.26661" lon="0.12648">
        <ele>136.990801</ele>
        <time>2022-12-28T15:34:24.764Z</time>
      </trkpt>
      <trkpt lat="44.26652" lon="0.12656">
        <ele>137.42441</ele>
        <time>2022-12-28T15:34:27.768Z</time>
      </trkpt>
      <trkpt lat="44.26644" lon="0.12664">
        <ele>137.849433</ele>
        <time>2022-12-28T15:34:30.764Z</time>
      </trkpt>
      <trkpt lat="44.26636" lon="0.12672">
        <ele>138.243661</ele>
        <time>2022-12-28T15:34:33.747Z</time>
      </trkpt>
      <trkpt lat="44.26627" lon="0.12681">
        <ele>138.768119</ele>
        <time>2022-12-28T15:34:37.768Z</time>
      </trkpt>
      <trkpt lat="44.26619" lon="0.12688">
        <ele>139.307931</ele>
        <time>2022-12-28T15:34:41.750Z</time>
      </trkpt>
      <trkpt lat="44.26611" lon="0.12697">
        <ele>139.873195</ele>
        <time>2022-12-28T15:34:45.770Z</time>
      </trkpt>
      <trkpt lat="44.26603" lon="0.12704">
        <ele>140.442901</ele>
        <time>2022-12-28T15:34:49.756Z</time>
      </trkpt>
      <trkpt lat="44.26595" lon="0.12712">
        <ele>141.000984</ele>
        <time>2022-12-28T15:34:53.758Z</time>
      </trkpt>
      <trkpt lat="44.26587" lon="0.12719">
        <ele>141.523119</ele>
        <time>2022-12-28T15:34:57.752Z</time>
      </trkpt>
      <trkpt lat="44.26579" lon="0.12727">
        <ele>142.079082</ele>
        <time>2022-12-28T15:35:01.768Z</time>
      </trkpt>
      <trkpt lat="44.26571" lon="0.12734">
        <ele>142.607392</ele>
        <time>2022-12-28T15:35:05.765Z</time>
      </trkpt>
      <trkpt lat="44.26563" lon="0.12742">
        <ele>143.163122</ele>
        <time>2022-12-28T15:35:09.768Z</time>
      </trkpt>
      <trkpt lat="44.26556" lon="0.12749">
        <ele>143.676235</ele>
        <time>2022-12-28T15:35:13.767Z</time>
      </trkpt>
      <trkpt lat="44.26548" lon="0.12756">
        <ele>144.19944</ele>
        <time>2022-12-28T15:35:17.753Z</time>
      </trkpt>
      <trkpt lat="44.2654" lon="0.12764">
        <ele>144.745948</ele>
        <time>2022-12-28T15:35:21.762Z</time>
      </trkpt>
      <trkpt lat="44.26532" lon="0.12772">
        <ele>145.317986</ele>
        <time>2022-12-28T15:35:26.749Z</time>
      </trkpt>
      <trkpt lat="44.26525" lon="0.12782">
        <ele>145.879934</ele>
        <time>2022-12-28T15:35:31.764Z</time>
      </trkpt>
      <trkpt lat="44.26517" lon="0.1279">
        <ele>146.454347</ele>
        <time>2022-12-28T15:35:36.760Z</time>
      </trkpt>
      <trkpt lat="44.26508" lon="0.12798">
        <ele>147.02403</ele>
        <time>2022-12-28T15:35:41.740Z</time>
      </trkpt>
      <trkpt lat="44.265" lon="0.12807">
        <ele>147.633323</ele>
        <time>2022-12-28T15:35:46.759Z</time>
      </trkpt>
      <trkpt lat="44.26491" lon="0.12816">
        <ele>148.240442</ele>
        <time>2022-12-28T15:35:51.768Z</time>
      </trkpt>
      <trkpt lat="44.26482" lon="0.12824">
        <ele>148.749862</ele>
        <time>2022-12-28T15:35:56.765Z</time>
      </trkpt>
      <trkpt lat="44.26474" lon="0.12832">
        <ele>148.774366</ele>
        <time>2022-12-28T15:36:00.762Z</time>
      </trkpt>
      <trkpt lat="44.26466" lon="0.12839">
        <ele>148.798136</ele>
        <time>2022-12-28T15:36:04.757Z</time>
      </trkpt>
      <trkpt lat="44.26457" lon="0.12848">
        <ele>148.825457</ele>
        <time>2022-12-28T15:36:09.744Z</time>
      </trkpt>
      <trkpt lat="44.26449" lon="0.12855">
        <ele>148.850492</ele>
        <time>2022-12-28T15:36:13.738Z</time>
      </trkpt>
      <trkpt lat="44.26441" lon="0.12863">
        <ele>148.875622</ele>
        <time>2022-12-28T15:36:17.767Z</time>
      </trkpt>
      <trkpt lat="44.26433" lon="0.12872">
        <ele>148.900642</ele>
        <time>2022-12-28T15:36:21.767Z</time>
      </trkpt>
      <trkpt lat="44.26423" lon="0.1288">
        <ele>148.929093</ele>
        <time>2022-12-28T15:36:25.762Z</time>
      </trkpt>
      <trkpt lat="44.26414" lon="0.12888">
        <ele>148.95733</ele>
        <time>2022-12-28T15:36:29.768Z</time>
      </trkpt>
      <trkpt lat="44.26405" lon="0.12898">
        <ele>148.985757</ele>
        <time>2022-12-28T15:36:33.768Z</time>
      </trkpt>
      <trkpt lat="44.26395" lon="0.12907">
        <ele>149.01566</ele>
        <time>2022-12-28T15:36:37.750Z</time>
      </trkpt>
      <trkpt lat="44.26388" lon="0.12915">
        <ele>149.038452</ele>
        <time>2022-12-28T15:36:40.758Z</time>
      </trkpt>
      <trkpt lat="44.26379" lon="0.12922">
        <ele>149.063561</ele>
        <time>2022-12-28T15:36:43.787Z</time>
      </trkpt>
      <trkpt lat="44.26372" lon="0.1293">
        <ele>149.086911</ele>
        <time>2022-12-28T15:36:46.757Z</time>
      </trkpt>
      <trkpt lat="44.26363" lon="0.12936">
        <ele>149.110542</ele>
        <time>2022-12-28T15:36:49.754Z</time>
      </trkpt>
      <trkpt lat="44.26355" lon="0.12944">
        <ele>149.136471</ele>
        <time>2022-12-28T15:36:52.740Z</time>
      </trkpt>
      <trkpt lat="44.26347" lon="0.12954">
        <ele>149.163089</ele>
        <time>2022-12-28T15:36:55.750Z</time>
      </trkpt>
      <trkpt lat="44.26338" lon="0.12963">
        <ele>149.190575</ele>
        <time>2022-12-28T15:36:58.747Z</time>
      </trkpt>
      <trkpt lat="44.26328" lon="0.12972">
        <ele>149.05842</ele>
        <time>2022-12-28T15:37:01.766Z</time>
      </trkpt>
      <trkpt lat="44.2632" lon="0.12982">
        <ele>148.890039</ele>
        <time>2022-12-28T15:37:04.757Z</time>
      </trkpt>
      <trkpt lat="44.26311" lon="0.12991">
        <ele>148.725527</ele>
        <time>2022-12-28T15:37:07.766Z</time>
      </trkpt>
      <trkpt lat="44.26302" lon="0.12999">
        <ele>148.568024</ele>
        <time>2022-12-28T15:37:10.767Z</time>
      </trkpt>
      <trkpt lat="44.26293" lon="0.13007">
        <ele>148.404151</ele>
        <time>2022-12-28T15:37:13.742Z</time>
      </trkpt>
      <trkpt lat="44.26284" lon="0.13016">
        <ele>148.238548</ele>
        <time>2022-12-28T15:37:16.748Z</time>
      </trkpt>
      <trkpt lat="44.26275" lon="0.13025">
        <ele>148.068593</ele>
        <time>2022-12-28T15:37:19.757Z</time>
      </trkpt>
      <trkpt lat="44.26266" lon="0.13034">
        <ele>147.890546</ele>
        <time>2022-12-28T15:37:22.754Z</time>
      </trkpt>
      <trkpt lat="44.26256" lon="0.13044">
        <ele>147.712835</ele>
        <time>2022-12-28T15:37:25.755Z</time>
      </trkpt>
      <trkpt lat="44.26246" lon="0.13054">
        <ele>147.527914</ele>
        <time>2022-12-28T15:37:28.748Z</time>
      </trkpt>
      <trkpt lat="44.26236" lon="0.13064">
        <ele>147.33426</ele>
        <time>2022-12-28T15:37:31.753Z</time>
      </trkpt>
      <trkpt lat="44.26227" lon="0.13078">
        <ele>147.131822</ele>
        <time>2022-12-28T15:37:34.769Z</time>
      </trkpt>
      <trkpt lat="44.26219" lon="0.13084">
        <ele>146.992889</ele>
        <time>2022-12-28T15:37:36.758Z</time>
      </trkpt>
      <trkpt lat="44.26208" lon="0.13094">
        <ele>146.794749</ele>
        <time>2022-12-28T15:37:39.765Z</time>
      </trkpt>
      <trkpt lat="44.26197" lon="0.13104">
        <ele>146.605434</ele>
        <time>2022-12-28T15:37:42.769Z</time>
      </trkpt>
      <trkpt lat="44.26188" lon="0.13115">
        <ele>146.60227</ele>
        <time>2022-12-28T15:37:45.753Z</time>
      </trkpt>
      <trkpt lat="44.2618" lon="0.13122">
        <ele>146.97531</ele>
        <time>2022-12-28T15:37:47.760Z</time>
      </trkpt>
      <trkpt lat="44.26172" lon="0.13129">
        <ele>147.354215</ele>
        <time>2022-12-28T15:37:49.755Z</time>
      </trkpt>
      <trkpt lat="44.26161" lon="0.13141">
        <ele>147.887504</ele>
        <time>2022-12-28T15:37:52.756Z</time>
      </trkpt>
      <trkpt lat="44.26153" lon="0.13148">
        <ele>148.275203</ele>
        <time>2022-12-28T15:37:54.768Z</time>
      </trkpt>
      <trkpt lat="44.26145" lon="0.13155">
        <ele>148.654302</ele>
        <time>2022-12-28T15:37:56.774Z</time>
      </trkpt>
      <trkpt lat="44.26135" lon="0.13166">
        <ele>149.16058</ele>
        <time>2022-12-28T15:37:59.763Z</time>
      </trkpt>
      <trkpt lat="44.26124" lon="0.13176">
        <ele>149.678234</ele>
        <time>2022-12-28T15:38:02.765Z</time>
      </trkpt>
      <trkpt lat="44.26116" lon="0.13184">
        <ele>150.070246</ele>
        <time>2022-12-28T15:38:04.749Z</time>
      </trkpt>
      <trkpt lat="44.26106" lon="0.13194">
        <ele>150.566727</ele>
        <time>2022-12-28T15:38:07.749Z</time>
      </trkpt>
      <trkpt lat="44.26097" lon="0.13202">
        <ele>150.984823</ele>
        <time>2022-12-28T15:38:10.766Z</time>
      </trkpt>
      <trkpt lat="44.26088" lon="0.13212">
        <ele>151.453487</ele>
        <time>2022-12-28T15:38:13.767Z</time>
      </trkpt>
      <trkpt lat="44.26078" lon="0.13221">
        <ele>151.911148</ele>
        <time>2022-12-28T15:38:16.751Z</time>
      </trkpt>
      <trkpt lat="44.26067" lon="0.1323">
        <ele>152.408268</ele>
        <time>2022-12-28T15:38:19.754Z</time>
      </trkpt>
      <trkpt lat="44.26057" lon="0.13241">
        <ele>152.927353</ele>
        <time>2022-12-28T15:38:22.755Z</time>
      </trkpt>
      <trkpt lat="44.26048" lon="0.13251">
        <ele>153.394375</ele>
        <time>2022-12-28T15:38:25.737Z</time>
      </trkpt>
      <trkpt lat="44.26038" lon="0.13261">
        <ele>153.949317</ele>
        <time>2022-12-28T15:38:28.743Z</time>
      </trkpt>
      <trkpt lat="44.26026" lon="0.13271">
        <ele>154.584439</ele>
        <time>2022-12-28T15:38:31.770Z</time>
      </trkpt>
      <trkpt lat="44.26015" lon="0.1328">
        <ele>155.211431</ele>
        <time>2022-12-28T15:38:34.759Z</time>
      </trkpt>
      <trkpt lat="44.26005" lon="0.1329">
        <ele>155.780758</ele>
        <time>2022-12-28T15:38:37.764Z</time>
      </trkpt>
      <trkpt lat="44.25995" lon="0.13299">
        <ele>156.319157</ele>
        <time>2022-12-28T15:38:40.767Z</time>
      </trkpt>
      <trkpt lat="44.25987" lon="0.13308">
        <ele>156.814903</ele>
        <time>2022-12-28T15:38:43.741Z</time>
      </trkpt>
      <trkpt lat="44.25978" lon="0.13315">
        <ele>157.303582</ele>
        <time>2022-12-28T15:38:46.766Z</time>
      </trkpt>
      <trkpt lat="44.25971" lon="0.13325">
        <ele>157.780631</ele>
        <time>2022-12-28T15:38:49.743Z</time>
      </trkpt>
      <trkpt lat="44.25963" lon="0.13335">
        <ele>158.263607</ele>
        <time>2022-12-28T15:38:52.767Z</time>
      </trkpt>
      <trkpt lat="44.25953" lon="0.13343">
        <ele>158.829346</ele>
        <time>2022-12-28T15:38:55.739Z</time>
      </trkpt>
      <trkpt lat="44.25945" lon="0.13353">
        <ele>159.321743</ele>
        <time>2022-12-28T15:38:58.768Z</time>
      </trkpt>
      <trkpt lat="44.25936" lon="0.13361">
        <ele>159.837216</ele>
        <time>2022-12-28T15:39:01.736Z</time>
      </trkpt>
      <trkpt lat="44.25928" lon="0.1337">
        <ele>160.31295</ele>
        <time>2022-12-28T15:39:04.755Z</time>
      </trkpt>
      <trkpt lat="44.25921" lon="0.13378">
        <ele>160.754615</ele>
        <time>2022-12-28T15:39:07.766Z</time>
      </trkpt>
      <trkpt lat="44.25912" lon="0.13385">
        <ele>161.250881</ele>
        <time>2022-12-28T15:39:11.761Z</time>
      </trkpt>
      <trkpt lat="44.25904" lon="0.13395">
        <ele>161.747522</ele>
        <time>2022-12-28T15:39:15.759Z</time>
      </trkpt>
      <trkpt lat="44.25894" lon="0.13405">
        <ele>162.124526</ele>
        <time>2022-12-28T15:39:19.745Z</time>
      </trkpt>
      <trkpt lat="44.25886" lon="0.13411">
        <ele>162.123689</ele>
        <time>2022-12-28T15:39:22.763Z</time>
      </trkpt>
      <trkpt lat="44.25878" lon="0.13416">
        <ele>162.122875</ele>
        <time>2022-12-28T15:39:25.764Z</time>
      </trkpt>
      <trkpt lat="44.2587" lon="0.13424">
        <ele>162.122049</ele>
        <time>2022-12-28T15:39:28.750Z</time>
      </trkpt>
      <trkpt lat="44.25862" lon="0.13434">
        <ele>162.121083</ele>
        <time>2022-12-28T15:39:32.754Z</time>
      </trkpt>
      <trkpt lat="44.25854" lon="0.13442">
        <ele>162.120236</ele>
        <time>2022-12-28T15:39:35.767Z</time>
      </trkpt>
      <trkpt lat="44.25845" lon="0.13451">
        <ele>162.1192</ele>
        <time>2022-12-28T15:39:39.771Z</time>
      </trkpt>
      <trkpt lat="44.25837" lon="0.13459">
        <ele>162.118368</ele>
        <time>2022-12-28T15:39:42.747Z</time>
      </trkpt>
      <trkpt lat="44.25829" lon="0.13467">
        <ele>162.117493</ele>
        <time>2022-12-28T15:39:45.767Z</time>
      </trkpt>
      <trkpt lat="44.25821" lon="0.13475">
        <ele>162.116603</ele>
        <time>2022-12-28T15:39:48.771Z</time>
      </trkpt>
      <trkpt lat="44.25813" lon="0.13482">
        <ele>162.115754</ele>
        <time>2022-12-28T15:39:51.760Z</time>
      </trkpt>
      <trkpt lat="44.25804" lon="0.13491">
        <ele>162.114805</ele>
        <time>2022-12-28T15:39:54.758Z</time>
      </trkpt>
      <trkpt lat="44.25796" lon="0.13498">
        <ele>162.113987</ele>
        <time>2022-12-28T15:39:57.756Z</time>
      </trkpt>
      <trkpt lat="44.25788" lon="0.13506">
        <ele>162.113057</ele>
        <time>2022-12-28T15:40:00.759Z</time>
      </trkpt>
      <trkpt lat="44.2578" lon="0.13516">
        <ele>162.112097</ele>
        <time>2022-12-28T15:40:03.759Z</time>
      </trkpt>
      <trkpt lat="44.25771" lon="0.13524">
        <ele>162.111156</ele>
        <time>2022-12-28T15:40:06.763Z</time>
      </trkpt>
      <trkpt lat="44.25762" lon="0.13532">
        <ele>162.110265</ele>
        <time>2022-12-28T15:40:09.769Z</time>
      </trkpt>
      <trkpt lat="44.25754" lon="0.13538">
        <ele>162.109393</ele>
        <time>2022-12-28T15:40:12.768Z</time>
      </trkpt>
      <trkpt lat="44.25745" lon="0.13546">
        <ele>162.216755</ele>
        <time>2022-12-28T15:40:15.765Z</time>
      </trkpt>
      <trkpt lat="44.25737" lon="0.13554">
        <ele>162.447439</ele>
        <time>2022-12-28T15:40:18.769Z</time>
      </trkpt>
      <trkpt lat="44.25728" lon="0.13562">
        <ele>162.686843</ele>
        <time>2022-12-28T15:40:21.763Z</time>
      </trkpt>
      <trkpt lat="44.2572" lon="0.13569">
        <ele>162.918787</ele>
        <time>2022-12-28T15:40:24.759Z</time>
      </trkpt>
      <trkpt lat="44.25712" lon="0.13578">
        <ele>163.158113</ele>
        <time>2022-12-28T15:40:27.756Z</time>
      </trkpt>
      <trkpt lat="44.25703" lon="0.13587">
        <ele>163.405124</ele>
        <time>2022-12-28T15:40:30.770Z</time>
      </trkpt>
      <trkpt lat="44.25695" lon="0.13596">
        <ele>163.644058</ele>
        <time>2022-12-28T15:40:33.768Z</time>
      </trkpt>
      <trkpt lat="44.25686" lon="0.13607">
        <ele>163.913172</ele>
        <time>2022-12-28T15:40:36.758Z</time>
      </trkpt>
      <trkpt lat="44.25678" lon="0.13617">
        <ele>164.171261</ele>
        <time>2022-12-28T15:40:39.768Z</time>
      </trkpt>
      <trkpt lat="44.2567" lon="0.13626">
        <ele>164.40857</ele>
        <time>2022-12-28T15:40:42.768Z</time>
      </trkpt>
      <trkpt lat="44.25661" lon="0.13636">
        <ele>164.670679</ele>
        <time>2022-12-28T15:40:45.768Z</time>
      </trkpt>
      <trkpt lat="44.25651" lon="0.13644">
        <ele>164.92955</ele>
        <time>2022-12-28T15:40:48.762Z</time>
      </trkpt>
      <trkpt lat="44.25641" lon="0.13652">
        <ele>165.200445</ele>
        <time>2022-12-28T15:40:51.753Z</time>
      </trkpt>
      <trkpt lat="44.25631" lon="0.1366">
        <ele>165.464743</ele>
        <time>2022-12-28T15:40:54.749Z</time>
      </trkpt>
      <trkpt lat="44.25622" lon="0.13668">
        <ele>165.721216</ele>
        <time>2022-12-28T15:40:57.762Z</time>
      </trkpt>
      <trkpt lat="44.25614" lon="0.13678">
        <ele>165.963722</ele>
        <time>2022-12-28T15:41:00.739Z</time>
      </trkpt>
      <trkpt lat="44.25606" lon="0.13687">
        <ele>166.195926</ele>
        <time>2022-12-28T15:41:03.770Z</time>
      </trkpt>
      <trkpt lat="44.25598" lon="0.13696">
        <ele>166.176736</ele>
        <time>2022-12-28T15:41:06.760Z</time>
      </trkpt>
      <trkpt lat="44.2559" lon="0.13704">
        <ele>166.031409</ele>
        <time>2022-12-28T15:41:09.768Z</time>
      </trkpt>
      <trkpt lat="44.25579" lon="0.13711">
        <ele>165.866706</ele>
        <time>2022-12-28T15:41:12.762Z</time>
      </trkpt>
      <trkpt lat="44.2557" lon="0.13718">
        <ele>165.727338</ele>
        <time>2022-12-28T15:41:15.757Z</time>
      </trkpt>
      <trkpt lat="44.25561" lon="0.13728">
        <ele>165.5747</ele>
        <time>2022-12-28T15:41:18.764Z</time>
      </trkpt>
      <trkpt lat="44.25552" lon="0.13738">
        <ele>165.412228</ele>
        <time>2022-12-28T15:41:21.752Z</time>
      </trkpt>
      <trkpt lat="44.2554" lon="0.13748">
        <ele>165.209964</ele>
        <time>2022-12-28T15:41:24.739Z</time>
      </trkpt>
      <trkpt lat="44.25532" lon="0.13755">
        <ele>165.083646</ele>
        <time>2022-12-28T15:41:26.750Z</time>
      </trkpt>
      <trkpt lat="44.25524" lon="0.13762">
        <ele>164.958336</ele>
        <time>2022-12-28T15:41:28.766Z</time>
      </trkpt>
      <trkpt lat="44.25514" lon="0.13774">
        <ele>164.773866</ele>
        <time>2022-12-28T15:41:31.761Z</time>
      </trkpt>
      <trkpt lat="44.25508" lon="0.13783">
        <ele>164.647956</ele>
        <time>2022-12-28T15:41:33.741Z</time>
      </trkpt>
      <trkpt lat="44.25499" lon="0.13792">
        <ele>164.492572</ele>
        <time>2022-12-28T15:41:36.762Z</time>
      </trkpt>
      <trkpt lat="44.2549" lon="0.13799">
        <ele>164.358539</ele>
        <time>2022-12-28T15:41:38.769Z</time>
      </trkpt>
      <trkpt lat="44.25483" lon="0.13808">
        <ele>164.227602</ele>
        <time>2022-12-28T15:41:40.768Z</time>
      </trkpt>
      <trkpt lat="44.25473" lon="0.13819">
        <ele>164.054583</ele>
        <time>2022-12-28T15:41:43.751Z</time>
      </trkpt>
      <trkpt lat="44.25465" lon="0.13825">
        <ele>163.919141</ele>
        <time>2022-12-28T15:41:45.738Z</time>
      </trkpt>
      <trkpt lat="44.25457" lon="0.13833">
        <ele>163.76578</ele>
        <time>2022-12-28T15:41:47.770Z</time>
      </trkpt>
      <trkpt lat="44.25449" lon="0.13842">
        <ele>163.384854</ele>
        <time>2022-12-28T15:41:49.747Z</time>
      </trkpt>
      <trkpt lat="44.25441" lon="0.13848">
        <ele>163.022447</ele>
        <time>2022-12-28T15:41:51.740Z</time>
      </trkpt>
      <trkpt lat="44.25432" lon="0.13852">
        <ele>162.662938</ele>
        <time>2022-12-28T15:41:53.749Z</time>
      </trkpt>
      <trkpt lat="44.25424" lon="0.1386">
        <ele>162.294156</ele>
        <time>2022-12-28T15:41:55.741Z</time>
      </trkpt>
      <trkpt lat="44.25417" lon="0.1387">
        <ele>161.904882</ele>
        <time>2022-12-28T15:41:57.755Z</time>
      </trkpt>
      <trkpt lat="44.25407" lon="0.13883">
        <ele>161.365759</ele>
        <time>2022-12-28T15:42:00.742Z</time>
      </trkpt>
      <trkpt lat="44.25399" lon="0.13891">
        <ele>160.993454</ele>
        <time>2022-12-28T15:42:02.738Z</time>
      </trkpt>
      <trkpt lat="44.25392" lon="0.13899">
        <ele>160.622088</ele>
        <time>2022-12-28T15:42:04.762Z</time>
      </trkpt>
      <trkpt lat="44.25384" lon="0.13908">
        <ele>160.22449</ele>
        <time>2022-12-28T15:42:06.764Z</time>
      </trkpt>
      <trkpt lat="44.25376" lon="0.13917">
        <ele>159.810951</ele>
        <time>2022-12-28T15:42:08.768Z</time>
      </trkpt>
      <trkpt lat="44.25367" lon="0.13925">
        <ele>159.395737</ele>
        <time>2022-12-28T15:42:10.773Z</time>
      </trkpt>
      <trkpt lat="44.25357" lon="0.13934">
        <ele>158.959832</ele>
        <time>2022-12-28T15:42:12.755Z</time>
      </trkpt>
      <trkpt lat="44.25349" lon="0.13944">
        <ele>158.519771</ele>
        <time>2022-12-28T15:42:14.762Z</time>
      </trkpt>
      <trkpt lat="44.25339" lon="0.13954">
        <ele>158.05338</ele>
        <time>2022-12-28T15:42:16.740Z</time>
      </trkpt>
      <trkpt lat="44.25329" lon="0.13964">
        <ele>157.576033</ele>
        <time>2022-12-28T15:42:18.752Z</time>
      </trkpt>
      <trkpt lat="44.2532" lon="0.13973">
        <ele>157.13046</ele>
        <time>2022-12-28T15:42:20.757Z</time>
      </trkpt>
      <trkpt lat="44.25311" lon="0.13983">
        <ele>156.650977</ele>
        <time>2022-12-28T15:42:22.742Z</time>
      </trkpt>
      <trkpt lat="44.25301" lon="0.13993">
        <ele>156.047281</ele>
        <time>2022-12-28T15:42:24.767Z</time>
      </trkpt>
      <trkpt lat="44.25291" lon="0.14003">
        <ele>155.430846</ele>
        <time>2022-12-28T15:42:26.738Z</time>
      </trkpt>
      <trkpt lat="44.25282" lon="0.14012">
        <ele>154.870569</ele>
        <time>2022-12-28T15:42:28.767Z</time>
      </trkpt>
      <trkpt lat="44.25272" lon="0.14021">
        <ele>154.264497</ele>
        <time>2022-12-28T15:42:30.767Z</time>
      </trkpt>
      <trkpt lat="44.25262" lon="0.1403">
        <ele>153.644288</ele>
        <time>2022-12-28T15:42:32.771Z</time>
      </trkpt>
      <trkpt lat="44.25252" lon="0.14038">
        <ele>153.055117</ele>
        <time>2022-12-28T15:42:34.759Z</time>
      </trkpt>
      <trkpt lat="44.25241" lon="0.14048">
        <ele>152.408011</ele>
        <time>2022-12-28T15:42:36.750Z</time>
      </trkpt>
      <trkpt lat="44.25231" lon="0.14055">
        <ele>151.827122</ele>
        <time>2022-12-28T15:42:38.768Z</time>
      </trkpt>
      <trkpt lat="44.25221" lon="0.14064">
        <ele>151.244364</ele>
        <time>2022-12-28T15:42:40.755Z</time>
      </trkpt>
      <trkpt lat="44.25212" lon="0.14073">
        <ele>150.663643</ele>
        <time>2022-12-28T15:42:42.762Z</time>
      </trkpt>
      <trkpt lat="44.25202" lon="0.14081">
        <ele>150.083221</ele>
        <time>2022-12-28T15:42:44.769Z</time>
      </trkpt>
      <trkpt lat="44.25192" lon="0.14091">
        <ele>149.488016</ele>
        <time>2022-12-28T15:42:46.751Z</time>
      </trkpt>
      <trkpt lat="44.25184" lon="0.14101">
        <ele>148.909099</ele>
        <time>2022-12-28T15:42:48.741Z</time>
      </trkpt>
      <trkpt lat="44.25174" lon="0.14109">
        <ele>148.349075</ele>
        <time>2022-12-28T15:42:50.739Z</time>
      </trkpt>
      <trkpt lat="44.25166" lon="0.14121">
        <ele>147.747833</ele>
        <time>2022-12-28T15:42:52.761Z</time>
      </trkpt>
      <trkpt lat="44.25157" lon="0.14129">
        <ele>147.657574</ele>
        <time>2022-12-28T15:42:54.751Z</time>
      </trkpt>
      <trkpt lat="44.25148" lon="0.14137">
        <ele>147.628307</ele>
        <time>2022-12-28T15:42:56.747Z</time>
      </trkpt>
      <trkpt lat="44.2514" lon="0.14146">
        <ele>147.597369</ele>
        <time>2022-12-28T15:42:58.745Z</time>
      </trkpt>
      <trkpt lat="44.25131" lon="0.14156">
        <ele>147.565173</ele>
        <time>2022-12-28T15:43:00.741Z</time>
      </trkpt>
      <trkpt lat="44.25122" lon="0.14165">
        <ele>147.532132</ele>
        <time>2022-12-28T15:43:02.763Z</time>
      </trkpt>
      <trkpt lat="44.25113" lon="0.14173">
        <ele>147.501697</ele>
        <time>2022-12-28T15:43:04.757Z</time>
      </trkpt>
      <trkpt lat="44.25105" lon="0.14182">
        <ele>147.472676</ele>
        <time>2022-12-28T15:43:06.763Z</time>
      </trkpt>
      <trkpt lat="44.25096" lon="0.1419">
        <ele>147.441635</ele>
        <time>2022-12-28T15:43:08.760Z</time>
      </trkpt>
      <trkpt lat="44.25087" lon="0.14198">
        <ele>147.410219</ele>
        <time>2022-12-28T15:43:10.750Z</time>
      </trkpt>
      <trkpt lat="44.25076" lon="0.14205">
        <ele>147.3767</ele>
        <time>2022-12-28T15:43:12.742Z</time>
      </trkpt>
      <trkpt lat="44.25067" lon="0.14214">
        <ele>147.342801</ele>
        <time>2022-12-28T15:43:14.763Z</time>
      </trkpt>
      <trkpt lat="44.25059" lon="0.14222">
        <ele>147.313638</ele>
        <time>2022-12-28T15:43:16.737Z</time>
      </trkpt>
      <trkpt lat="44.25049" lon="0.1423">
        <ele>147.280245</ele>
        <time>2022-12-28T15:43:18.738Z</time>
      </trkpt>
      <trkpt lat="44.25039" lon="0.14241">
        <ele>147.246013</ele>
        <time>2022-12-28T15:43:20.776Z</time>
      </trkpt>
      <trkpt lat="44.2503" lon="0.14251">
        <ele>147.210583</ele>
        <time>2022-12-28T15:43:22.755Z</time>
      </trkpt>
      <trkpt lat="44.25022" lon="0.14262">
        <ele>147.179554</ele>
        <time>2022-12-28T15:43:24.757Z</time>
      </trkpt>
      <trkpt lat="44.25014" lon="0.14274">
        <ele>147.37713</ele>
        <time>2022-12-28T15:43:26.759Z</time>
      </trkpt>
      <trkpt lat="44.25004" lon="0.14281">
        <ele>147.720632</ele>
        <time>2022-12-28T15:43:28.761Z</time>
      </trkpt>
      <trkpt lat="44.24994" lon="0.14291">
        <ele>148.108297</ele>
        <time>2022-12-28T15:43:30.761Z</time>
      </trkpt>
      <trkpt lat="44.24986" lon="0.143">
        <ele>148.43925</ele>
        <time>2022-12-28T15:43:32.760Z</time>
      </trkpt>
      <trkpt lat="44.24976" lon="0.14309">
        <ele>148.825635</ele>
        <time>2022-12-28T15:43:34.768Z</time>
      </trkpt>
      <trkpt lat="44.24967" lon="0.14319">
        <ele>149.191855</ele>
        <time>2022-12-28T15:43:36.762Z</time>
      </trkpt>
      <trkpt lat="44.24956" lon="0.14329">
        <ele>149.583639</ele>
        <time>2022-12-28T15:43:38.759Z</time>
      </trkpt>
      <trkpt lat="44.24947" lon="0.14338">
        <ele>149.938936</ele>
        <time>2022-12-28T15:43:40.755Z</time>
      </trkpt>
      <trkpt lat="44.24938" lon="0.14346">
        <ele>150.278787</ele>
        <time>2022-12-28T15:43:42.760Z</time>
      </trkpt>
      <trkpt lat="44.2493" lon="0.14355">
        <ele>150.608995</ele>
        <time>2022-12-28T15:43:44.768Z</time>
      </trkpt>
      <trkpt lat="44.24921" lon="0.14363">
        <ele>150.942019</ele>
        <time>2022-12-28T15:43:46.769Z</time>
      </trkpt>
      <trkpt lat="44.24913" lon="0.14371">
        <ele>151.270234</ele>
        <time>2022-12-28T15:43:48.759Z</time>
      </trkpt>
      <trkpt lat="44.24905" lon="0.14379">
        <ele>151.577513</ele>
        <time>2022-12-28T15:43:50.768Z</time>
      </trkpt>
      <trkpt lat="44.24898" lon="0.14388">
        <ele>151.869409</ele>
        <time>2022-12-28T15:43:52.772Z</time>
      </trkpt>
      <trkpt lat="44.24889" lon="0.14395">
        <ele>152.187183</ele>
        <time>2022-12-28T15:43:54.759Z</time>
      </trkpt>
      <trkpt lat="44.24882" lon="0.14402">
        <ele>152.480249</ele>
        <time>2022-12-28T15:43:56.760Z</time>
      </trkpt>
      <trkpt lat="44.24873" lon="0.1441">
        <ele>152.807048</ele>
        <time>2022-12-28T15:43:58.758Z</time>
      </trkpt>
      <trkpt lat="44.24865" lon="0.14418">
        <ele>152.892877</ele>
        <time>2022-12-28T15:44:00.770Z</time>
      </trkpt>
      <trkpt lat="44.24856" lon="0.14425">
        <ele>152.945395</ele>
        <time>2022-12-28T15:44:02.764Z</time>
      </trkpt>
      <trkpt lat="44.24848" lon="0.14433">
        <ele>152.99546</ele>
        <time>2022-12-28T15:44:04.769Z</time>
      </trkpt>
      <trkpt lat="44.24839" lon="0.1444">
        <ele>153.048161</ele>
        <time>2022-12-28T15:44:06.739Z</time>
      </trkpt>
      <trkpt lat="44.24831" lon="0.14449">
        <ele>153.09893</ele>
        <time>2022-12-28T15:44:08.771Z</time>
      </trkpt>
      <trkpt lat="44.24823" lon="0.14456">
        <ele>153.146303</ele>
        <time>2022-12-28T15:44:10.763Z</time>
      </trkpt>
      <trkpt lat="44.24816" lon="0.14465">
        <ele>153.19606</ele>
        <time>2022-12-28T15:44:12.758Z</time>
      </trkpt>
      <trkpt lat="44.24807" lon="0.14473">
        <ele>153.246796</ele>
        <time>2022-12-28T15:44:14.760Z</time>
      </trkpt>
      <trkpt lat="44.24799" lon="0.14481">
        <ele>153.29624</ele>
        <time>2022-12-28T15:44:16.762Z</time>
      </trkpt>
      <trkpt lat="44.24791" lon="0.14488">
        <ele>153.345117</ele>
        <time>2022-12-28T15:44:18.768Z</time>
      </trkpt>
      <trkpt lat="44.24781" lon="0.14499">
        <ele>153.411438</ele>
        <time>2022-12-28T15:44:21.755Z</time>
      </trkpt>
      <trkpt lat="44.24772" lon="0.14505">
        <ele>153.458722</ele>
        <time>2022-12-28T15:44:23.760Z</time>
      </trkpt>
      <trkpt lat="44.24764" lon="0.14513">
        <ele>153.511906</ele>
        <time>2022-12-28T15:44:25.736Z</time>
      </trkpt>
      <trkpt lat="44.24756" lon="0.14521">
        <ele>153.560937</ele>
        <time>2022-12-28T15:44:27.754Z</time>
      </trkpt>
      <trkpt lat="44.24747" lon="0.14529">
        <ele>153.61246</ele>
        <time>2022-12-28T15:44:29.737Z</time>
      </trkpt>
      <trkpt lat="44.24739" lon="0.14537">
        <ele>153.66151</ele>
        <time>2022-12-28T15:44:31.764Z</time>
      </trkpt>
      <trkpt lat="44.24731" lon="0.14545">
        <ele>153.711159</ele>
        <time>2022-12-28T15:44:33.767Z</time>
      </trkpt>
      <trkpt lat="44.24723" lon="0.14553">
        <ele>153.753197</ele>
        <time>2022-12-28T15:44:35.754Z</time>
      </trkpt>
      <trkpt lat="44.24716" lon="0.14561">
        <ele>153.464007</ele>
        <time>2022-12-28T15:44:37.767Z</time>
      </trkpt>
      <trkpt lat="44.24707" lon="0.14568">
        <ele>153.136394</ele>
        <time>2022-12-28T15:44:39.770Z</time>
      </trkpt>
      <trkpt lat="44.24696" lon="0.14581">
        <ele>152.699622</ele>
        <time>2022-12-28T15:44:42.767Z</time>
      </trkpt>
      <trkpt lat="44.24688" lon="0.1459">
        <ele>152.389492</ele>
        <time>2022-12-28T15:44:44.757Z</time>
      </trkpt>
      <trkpt lat="44.2468" lon="0.14597">
        <ele>152.088921</ele>
        <time>2022-12-28T15:44:46.757Z</time>
      </trkpt>
      <trkpt lat="44.24671" lon="0.14605">
        <ele>151.7481</ele>
        <time>2022-12-28T15:44:48.766Z</time>
      </trkpt>
      <trkpt lat="44.24662" lon="0.14615">
        <ele>151.413685</ele>
        <time>2022-12-28T15:44:50.768Z</time>
      </trkpt>
      <trkpt lat="44.24652" lon="0.14624">
        <ele>151.042887</ele>
        <time>2022-12-28T15:44:52.765Z</time>
      </trkpt>
      <trkpt lat="44.24643" lon="0.14634">
        <ele>150.676878</ele>
        <time>2022-12-28T15:44:54.768Z</time>
      </trkpt>
      <trkpt lat="44.24633" lon="0.14646">
        <ele>150.261568</ele>
        <time>2022-12-28T15:44:56.760Z</time>
      </trkpt>
      <trkpt lat="44.24623" lon="0.14656">
        <ele>149.871718</ele>
        <time>2022-12-28T15:44:58.758Z</time>
      </trkpt>
      <trkpt lat="44.24611" lon="0.14667">
        <ele>149.438695</ele>
        <time>2022-12-28T15:45:00.756Z</time>
      </trkpt>
      <trkpt lat="44.246" lon="0.14678">
        <ele>149.005579</ele>
        <time>2022-12-28T15:45:02.768Z</time>
      </trkpt>
      <trkpt lat="44.24588" lon="0.1469">
        <ele>148.564859</ele>
        <time>2022-12-28T15:45:04.768Z</time>
      </trkpt>
      <trkpt lat="44.24577" lon="0.14701">
        <ele>148.142521</ele>
        <time>2022-12-28T15:45:06.748Z</time>
      </trkpt>
      <trkpt lat="44.24564" lon="0.14712">
        <ele>147.769471</ele>
        <time>2022-12-28T15:45:08.772Z</time>
      </trkpt>
      <trkpt lat="44.24553" lon="0.14724">
        <ele>147.423246</ele>
        <time>2022-12-28T15:45:10.756Z</time>
      </trkpt>
      <trkpt lat="44.24541" lon="0.14735">
        <ele>147.073881</ele>
        <time>2022-12-28T15:45:12.746Z</time>
      </trkpt>
      <trkpt lat="44.24527" lon="0.14748">
        <ele>146.663566</ele>
        <time>2022-12-28T15:45:14.768Z</time>
      </trkpt>
      <trkpt lat="44.24513" lon="0.14762">
        <ele>146.262027</ele>
        <time>2022-12-28T15:45:16.771Z</time>
      </trkpt>
      <trkpt lat="44.245" lon="0.14775">
        <ele>145.860818</ele>
        <time>2022-12-28T15:45:18.773Z</time>
      </trkpt>
      <trkpt lat="44.24487" lon="0.14788">
        <ele>145.472153</ele>
        <time>2022-12-28T15:45:20.748Z</time>
      </trkpt>
      <trkpt lat="44.2448" lon="0.14796">
        <ele>145.241819</ele>
        <time>2022-12-28T15:45:21.771Z</time>
      </trkpt>
      <trkpt lat="44.24468" lon="0.14806">
        <ele>144.907952</ele>
        <time>2022-12-28T15:45:23.769Z</time>
      </trkpt>
      <trkpt lat="44.24455" lon="0.14819">
        <ele>144.518735</ele>
        <time>2022-12-28T15:45:25.761Z</time>
      </trkpt>
      <trkpt lat="44.24444" lon="0.14831">
        <ele>144.172412</ele>
        <time>2022-12-28T15:45:27.771Z</time>
      </trkpt>
      <trkpt lat="44.24431" lon="0.14843">
        <ele>143.80718</ele>
        <time>2022-12-28T15:45:29.768Z</time>
      </trkpt>
      <trkpt lat="44.2442" lon="0.14854">
        <ele>144.077841</ele>
        <time>2022-12-28T15:45:31.757Z</time>
      </trkpt>
      <trkpt lat="44.24409" lon="0.14864">
        <ele>144.383987</ele>
        <time>2022-12-28T15:45:33.767Z</time>
      </trkpt>
      <trkpt lat="44.24399" lon="0.14874">
        <ele>144.670355</ele>
        <time>2022-12-28T15:45:35.754Z</time>
      </trkpt>
      <trkpt lat="44.2439" lon="0.14884">
        <ele>144.92367</ele>
        <time>2022-12-28T15:45:37.768Z</time>
      </trkpt>
      <trkpt lat="44.24381" lon="0.14891">
        <ele>145.147078</ele>
        <time>2022-12-28T15:45:39.757Z</time>
      </trkpt>
      <trkpt lat="44.24373" lon="0.14899">
        <ele>145.385901</ele>
        <time>2022-12-28T15:45:41.770Z</time>
      </trkpt>
      <trkpt lat="44.24365" lon="0.14906">
        <ele>145.596202</ele>
        <time>2022-12-28T15:45:43.769Z</time>
      </trkpt>
      <trkpt lat="44.24355" lon="0.14917">
        <ele>145.889277</ele>
        <time>2022-12-28T15:45:46.760Z</time>
      </trkpt>
      <trkpt lat="44.24344" lon="0.14927">
        <ele>146.171914</ele>
        <time>2022-12-28T15:45:49.769Z</time>
      </trkpt>
      <trkpt lat="44.24334" lon="0.14937">
        <ele>146.454551</ele>
        <time>2022-12-28T15:45:52.766Z</time>
      </trkpt>
      <trkpt lat="44.24324" lon="0.14948">
        <ele>146.747566</ele>
        <time>2022-12-28T15:45:55.768Z</time>
      </trkpt>
      <trkpt lat="44.24314" lon="0.14958">
        <ele>147.019962</ele>
        <time>2022-12-28T15:45:58.763Z</time>
      </trkpt>
      <trkpt lat="44.24305" lon="0.14967">
        <ele>147.29048</ele>
        <time>2022-12-28T15:46:01.770Z</time>
      </trkpt>
      <trkpt lat="44.24295" lon="0.14976">
        <ele>147.560157</ele>
        <time>2022-12-28T15:46:04.762Z</time>
      </trkpt>
      <trkpt lat="44.24285" lon="0.14985">
        <ele>147.827936</ele>
        <time>2022-12-28T15:46:07.767Z</time>
      </trkpt>
      <trkpt lat="44.24276" lon="0.14994">
        <ele>148.142228</ele>
        <time>2022-12-28T15:46:10.767Z</time>
      </trkpt>
      <trkpt lat="44.24268" lon="0.15001">
        <ele>148.447052</ele>
        <time>2022-12-28T15:46:13.753Z</time>
      </trkpt>
      <trkpt lat="44.2426" lon="0.15009">
        <ele>148.767558</ele>
        <time>2022-12-28T15:46:16.769Z</time>
      </trkpt>
      <trkpt lat="44.24252" lon="0.15017">
        <ele>149.090718</ele>
        <time>2022-12-28T15:46:19.758Z</time>
      </trkpt>
      <trkpt lat="44.24244" lon="0.15025">
        <ele>149.415234</ele>
        <time>2022-12-28T15:46:22.749Z</time>
      </trkpt>
      <trkpt lat="44.24235" lon="0.15034">
        <ele>149.742476</ele>
        <time>2022-12-28T15:46:25.769Z</time>
      </trkpt>
      <trkpt lat="44.24227" lon="0.15042">
        <ele>150.074757</ele>
        <time>2022-12-28T15:46:28.771Z</time>
      </trkpt>
      <trkpt lat="44.24219" lon="0.1505">
        <ele>150.361253</ele>
        <time>2022-12-28T15:46:31.763Z</time>
      </trkpt>
      <trkpt lat="44.24211" lon="0.15058">
        <ele>150.688336</ele>
        <time>2022-12-28T15:46:35.761Z</time>
      </trkpt>
      <trkpt lat="44.24202" lon="0.15066">
        <ele>151.044262</ele>
        <time>2022-12-28T15:46:40.760Z</time>
      </trkpt>
      <trkpt lat="44.24193" lon="0.15075">
        <ele>151.385834</ele>
        <time>2022-12-28T15:46:44.763Z</time>
      </trkpt>
      <trkpt lat="44.24186" lon="0.15084">
        <ele>151.691168</ele>
        <time>2022-12-28T15:46:48.739Z</time>
      </trkpt>
      <trkpt lat="44.24178" lon="0.15093">
        <ele>152.018654</ele>
        <time>2022-12-28T15:46:52.743Z</time>
      </trkpt>
      <trkpt lat="44.24168" lon="0.15101">
        <ele>152.377125</ele>
        <time>2022-12-28T15:46:56.740Z</time>
      </trkpt>
      <trkpt lat="44.24159" lon="0.15111">
        <ele>152.757941</ele>
        <time>2022-12-28T15:47:00.760Z</time>
      </trkpt>
      <trkpt lat="44.24149" lon="0.15121">
        <ele>153.129472</ele>
        <time>2022-12-28T15:47:04.767Z</time>
      </trkpt>
      <trkpt lat="44.2414" lon="0.15128">
        <ele>153.465982</ele>
        <time>2022-12-28T15:47:08.755Z</time>
      </trkpt>
      <trkpt lat="44.24131" lon="0.15136">
        <ele>153.581465</ele>
        <time>2022-12-28T15:47:12.739Z</time>
      </trkpt>
      <trkpt lat="44.24121" lon="0.15145">
        <ele>153.513666</ele>
        <time>2022-12-28T15:47:16.752Z</time>
      </trkpt>
      <trkpt lat="44.24113" lon="0.15154">
        <ele>153.455717</ele>
        <time>2022-12-28T15:47:20.744Z</time>
      </trkpt>
      <trkpt lat="44.24106" lon="0.15163">
        <ele>153.399315</ele>
        <time>2022-12-28T15:47:24.770Z</time>
      </trkpt>
      <trkpt lat="44.24099" lon="0.15172">
        <ele>153.346517</ele>
        <time>2022-12-28T15:47:28.766Z</time>
      </trkpt>
      <trkpt lat="44.24092" lon="0.15181">
        <ele>153.294512</ele>
        <time>2022-12-28T15:47:31.763Z</time>
      </trkpt>
      <trkpt lat="44.24085" lon="0.15193">
        <ele>153.230974</ele>
        <time>2022-12-28T15:47:35.749Z</time>
      </trkpt>
      <trkpt lat="44.24077" lon="0.15203">
        <ele>153.172921</ele>
        <time>2022-12-28T15:47:38.743Z</time>
      </trkpt>
      <trkpt lat="44.24069" lon="0.15214">
        <ele>153.109708</ele>
        <time>2022-12-28T15:47:41.772Z</time>
      </trkpt>
      <trkpt lat="44.24061" lon="0.15224">
        <ele>153.047952</ele>
        <time>2022-12-28T15:47:44.771Z</time>
      </trkpt>
      <trkpt lat="44.24053" lon="0.15235">
        <ele>152.981784</ele>
        <time>2022-12-28T15:47:47.770Z</time>
      </trkpt>
      <trkpt lat="44.24045" lon="0.15247">
        <ele>152.91749</ele>
        <time>2022-12-28T15:47:50.752Z</time>
      </trkpt>
      <trkpt lat="44.24038" lon="0.15255">
        <ele>152.864418</ele>
        <time>2022-12-28T15:47:52.748Z</time>
      </trkpt>
      <trkpt lat="44.24031" lon="0.15265">
        <ele>152.809783</ele>
        <time>2022-12-28T15:47:54.774Z</time>
      </trkpt>
      <trkpt lat="44.24021" lon="0.15279">
        <ele>152.730061</ele>
        <time>2022-12-28T15:47:57.752Z</time>
      </trkpt>
      <trkpt lat="44.24013" lon="0.15289">
        <ele>152.668163</ele>
        <time>2022-12-28T15:47:59.772Z</time>
      </trkpt>
      <trkpt lat="44.24004" lon="0.153">
        <ele>152.602161</ele>
        <time>2022-12-28T15:48:01.765Z</time>
      </trkpt>
      <trkpt lat="44.23997" lon="0.1531">
        <ele>152.71015</ele>
        <time>2022-12-28T15:48:03.753Z</time>
      </trkpt>
      <trkpt lat="44.23989" lon="0.15319">
        <ele>152.837623</ele>
        <time>2022-12-28T15:48:05.758Z</time>
      </trkpt>
      <trkpt lat="44.23983" lon="0.1533">
        <ele>152.962085</ele>
        <time>2022-12-28T15:48:07.770Z</time>
      </trkpt>
      <trkpt lat="44.23975" lon="0.15339">
        <ele>153.075467</ele>
        <time>2022-12-28T15:48:09.761Z</time>
      </trkpt>
      <trkpt lat="44.23967" lon="0.15353">
        <ele>153.232003</ele>
        <time>2022-12-28T15:48:12.747Z</time>
      </trkpt>
      <trkpt lat="44.2396" lon="0.15362">
        <ele>153.348208</ele>
        <time>2022-12-28T15:48:14.758Z</time>
      </trkpt>
      <trkpt lat="44.23951" lon="0.15375">
        <ele>153.504699</ele>
        <time>2022-12-28T15:48:17.766Z</time>
      </trkpt>
      <trkpt lat="44.23945" lon="0.15384">
        <ele>153.616953</ele>
        <time>2022-12-28T15:48:19.752Z</time>
      </trkpt>
      <trkpt lat="44.23937" lon="0.15398">
        <ele>153.769113</ele>
        <time>2022-12-28T15:48:22.758Z</time>
      </trkpt>
      <trkpt lat="44.23932" lon="0.15409">
        <ele>153.880505</ele>
        <time>2022-12-28T15:48:24.757Z</time>
      </trkpt>
      <trkpt lat="44.23928" lon="0.15425">
        <ele>154.026868</ele>
        <time>2022-12-28T15:48:27.750Z</time>
      </trkpt>
      <trkpt lat="44.23925" lon="0.1544">
        <ele>154.163885</ele>
        <time>2022-12-28T15:48:30.768Z</time>
      </trkpt>
      <trkpt lat="44.23922" lon="0.15456">
        <ele>154.305184</ele>
        <time>2022-12-28T15:48:33.753Z</time>
      </trkpt>
      <trkpt lat="44.23918" lon="0.15471">
        <ele>154.442672</ele>
        <time>2022-12-28T15:48:36.758Z</time>
      </trkpt>
      <trkpt lat="44.23914" lon="0.15485">
        <ele>154.577555</ele>
        <time>2022-12-28T15:48:39.767Z</time>
      </trkpt>
      <trkpt lat="44.23909" lon="0.155">
        <ele>154.719472</ele>
        <time>2022-12-28T15:48:42.760Z</time>
      </trkpt>
      <trkpt lat="44.23905" lon="0.15514">
        <ele>154.969665</ele>
        <time>2022-12-28T15:48:45.765Z</time>
      </trkpt>
      <trkpt lat="44.23898" lon="0.15522">
        <ele>155.235118</ele>
        <time>2022-12-28T15:48:54.767Z</time>
      </trkpt>
      <trkpt lat="44.23898" lon="0.15523">
        <ele>155.250224</ele>
        <time>2022-12-28T15:49:00.784Z</time>
      </trkpt>
      <trkpt lat="44.23892" lon="0.15537">
        <ele>155.595198</ele>
        <time>2022-12-28T15:49:56.738Z</time>
      </trkpt>
      <trkpt lat="44.23884" lon="0.15549">
        <ele>155.942584</ele>
        <time>2022-12-28T15:50:00.762Z</time>
      </trkpt>
      <trkpt lat="44.23876" lon="0.1556">
        <ele>156.269236</ele>
        <time>2022-12-28T15:50:03.769Z</time>
      </trkpt>
      <trkpt lat="44.23867" lon="0.15571">
        <ele>156.611735</ele>
        <time>2022-12-28T15:50:06.762Z</time>
      </trkpt>
      <trkpt lat="44.23859" lon="0.15583">
        <ele>156.96378</ele>
        <time>2022-12-28T15:50:09.771Z</time>
      </trkpt>
      <trkpt lat="44.23851" lon="0.15594">
        <ele>157.315825</ele>
        <time>2022-12-28T15:50:12.757Z</time>
      </trkpt>
      <trkpt lat="44.23842" lon="0.15607">
        <ele>157.682388</ele>
        <time>2022-12-28T15:50:15.735Z</time>
      </trkpt>
      <trkpt lat="44.23835" lon="0.15616">
        <ele>157.962816</ele>
        <time>2022-12-28T15:50:17.762Z</time>
      </trkpt>
      <trkpt lat="44.23826" lon="0.15629">
        <ele>158.347466</ele>
        <time>2022-12-28T15:50:20.742Z</time>
      </trkpt>
      <trkpt lat="44.23816" lon="0.15643">
        <ele>158.758126</ele>
        <time>2022-12-28T15:50:23.754Z</time>
      </trkpt>
      <trkpt lat="44.2381" lon="0.15652">
        <ele>159.028585</ele>
        <time>2022-12-28T15:50:25.765Z</time>
      </trkpt>
      <trkpt lat="44.238" lon="0.15665">
        <ele>159.431733</ele>
        <time>2022-12-28T15:50:28.763Z</time>
      </trkpt>
      <trkpt lat="44.23794" lon="0.15674">
        <ele>159.697504</ele>
        <time>2022-12-28T15:50:30.770Z</time>
      </trkpt>
      <trkpt lat="44.23787" lon="0.15684">
        <ele>159.98804</ele>
        <time>2022-12-28T15:50:32.748Z</time>
      </trkpt>
      <trkpt lat="44.2378" lon="0.15693">
        <ele>160.200868</ele>
        <time>2022-12-28T15:50:34.757Z</time>
      </trkpt>
      <trkpt lat="44.23771" lon="0.15706">
        <ele>160.455143</ele>
        <time>2022-12-28T15:50:37.747Z</time>
      </trkpt>
      <trkpt lat="44.23762" lon="0.15719">
        <ele>160.710776</ele>
        <time>2022-12-28T15:50:40.743Z</time>
      </trkpt>
      <trkpt lat="44.23756" lon="0.15728">
        <ele>160.887439</ele>
        <time>2022-12-28T15:50:42.750Z</time>
      </trkpt>
      <trkpt lat="44.23746" lon="0.1574">
        <ele>161.134627</ele>
        <time>2022-12-28T15:50:45.735Z</time>
      </trkpt>
      <trkpt lat="44.23738" lon="0.15752">
        <ele>161.365695</ele>
        <time>2022-12-28T15:50:48.758Z</time>
      </trkpt>
      <trkpt lat="44.23731" lon="0.15761">
        <ele>161.561823</ele>
        <time>2022-12-28T15:50:51.742Z</time>
      </trkpt>
      <trkpt lat="44.23723" lon="0.15772">
        <ele>161.782816</ele>
        <time>2022-12-28T15:50:55.747Z</time>
      </trkpt>
      <trkpt lat="44.23713" lon="0.15779">
        <ele>161.992489</ele>
        <time>2022-12-28T15:50:59.763Z</time>
      </trkpt>
      <trkpt lat="44.2371" lon="0.15786">
        <ele>162.105289</ele>
        <time>2022-12-28T15:51:12.682Z</time>
      </trkpt>
      <trkpt lat="44.22184" lon="0.17937">
        <ele>198.65444</ele>
        <time>2022-12-28T16:42:50.910Z</time>
      </trkpt>
      <trkpt lat="44.2219" lon="0.17928">
        <ele>197.162087</ele>
        <time>2022-12-28T16:43:06.770Z</time>
      </trkpt>
      <trkpt lat="44.222" lon="0.17932">
        <ele>195.480205</ele>
        <time>2022-12-28T16:43:24.766Z</time>
      </trkpt>
      <trkpt lat="44.22212" lon="0.17935">
        <ele>193.432584</ele>
        <time>2022-12-28T16:43:28.765Z</time>
      </trkpt>
      <trkpt lat="44.22223" lon="0.17939">
        <ele>191.599234</ele>
        <time>2022-12-28T16:43:31.765Z</time>
      </trkpt>
      <trkpt lat="44.22233" lon="0.17943">
        <ele>189.864815</ele>
        <time>2022-12-28T16:43:34.765Z</time>
      </trkpt>
      <trkpt lat="44.22244" lon="0.17947">
        <ele>188.085535</ele>
        <time>2022-12-28T16:43:37.748Z</time>
      </trkpt>
      <trkpt lat="44.22255" lon="0.17952">
        <ele>186.792866</ele>
        <time>2022-12-28T16:43:40.755Z</time>
      </trkpt>
      <trkpt lat="44.22267" lon="0.17956">
        <ele>185.600587</ele>
        <time>2022-12-28T16:43:43.766Z</time>
      </trkpt>
      <trkpt lat="44.22278" lon="0.17961">
        <ele>184.462325</ele>
        <time>2022-12-28T16:43:46.747Z</time>
      </trkpt>
      <trkpt lat="44.2229" lon="0.17965">
        <ele>183.290657</ele>
        <time>2022-12-28T16:43:49.769Z</time>
      </trkpt>
      <trkpt lat="44.22302" lon="0.1797">
        <ele>182.092676</ele>
        <time>2022-12-28T16:43:52.760Z</time>
      </trkpt>
      <trkpt lat="44.22314" lon="0.17975">
        <ele>180.882103</ele>
        <time>2022-12-28T16:43:55.767Z</time>
      </trkpt>
      <trkpt lat="44.22326" lon="0.1798">
        <ele>179.686129</ele>
        <time>2022-12-28T16:43:58.768Z</time>
      </trkpt>
      <trkpt lat="44.22338" lon="0.17985">
        <ele>178.510572</ele>
        <time>2022-12-28T16:44:01.770Z</time>
      </trkpt>
      <trkpt lat="44.22349" lon="0.17988">
        <ele>177.380721</ele>
        <time>2022-12-28T16:44:04.768Z</time>
      </trkpt>
      <trkpt lat="44.22361" lon="0.17993">
        <ele>176.205315</ele>
        <time>2022-12-28T16:44:07.764Z</time>
      </trkpt>
      <trkpt lat="44.22374" lon="0.17997">
        <ele>174.94089</ele>
        <time>2022-12-28T16:44:10.769Z</time>
      </trkpt>
      <trkpt lat="44.22387" lon="0.18002">
        <ele>173.665389</ele>
        <time>2022-12-28T16:44:13.785Z</time>
      </trkpt>
      <trkpt lat="44.22396" lon="0.18005">
        <ele>172.780915</ele>
        <time>2022-12-28T16:44:15.766Z</time>
      </trkpt>
      <trkpt lat="44.22409" lon="0.1801">
        <ele>171.479246</ele>
        <time>2022-12-28T16:44:18.766Z</time>
      </trkpt>
      <trkpt lat="44.22417" lon="0.18013">
        <ele>170.604104</ele>
        <time>2022-12-28T16:44:20.769Z</time>
      </trkpt>
      <trkpt lat="44.22427" lon="0.18017">
        <ele>170.356157</ele>
        <time>2022-12-28T16:44:22.771Z</time>
      </trkpt>
      <trkpt lat="44.22436" lon="0.1802">
        <ele>170.268014</ele>
        <time>2022-12-28T16:44:24.778Z</time>
      </trkpt>
      <trkpt lat="44.22446" lon="0.18023">
        <ele>170.17378</ele>
        <time>2022-12-28T16:44:26.763Z</time>
      </trkpt>
      <trkpt lat="44.22455" lon="0.18027">
        <ele>170.085064</ele>
        <time>2022-12-28T16:44:28.764Z</time>
      </trkpt>
      <trkpt lat="44.22464" lon="0.18031">
        <ele>169.996039</ele>
        <time>2022-12-28T16:44:30.765Z</time>
      </trkpt>
      <trkpt lat="44.22477" lon="0.18036">
        <ele>169.870046</ele>
        <time>2022-12-28T16:44:33.776Z</time>
      </trkpt>
      <trkpt lat="44.22489" lon="0.18041">
        <ele>169.747887</ele>
        <time>2022-12-28T16:44:36.763Z</time>
      </trkpt>
      <trkpt lat="44.22498" lon="0.18045">
        <ele>169.66206</ele>
        <time>2022-12-28T16:44:38.768Z</time>
      </trkpt>
      <trkpt lat="44.22507" lon="0.18048">
        <ele>169.574837</ele>
        <time>2022-12-28T16:44:40.776Z</time>
      </trkpt>
      <trkpt lat="44.22516" lon="0.18051">
        <ele>169.487768</ele>
        <time>2022-12-28T16:44:42.778Z</time>
      </trkpt>
      <trkpt lat="44.22525" lon="0.18054">
        <ele>169.400858</ele>
        <time>2022-12-28T16:44:44.764Z</time>
      </trkpt>
      <trkpt lat="44.22534" lon="0.18057">
        <ele>169.312825</ele>
        <time>2022-12-28T16:44:46.769Z</time>
      </trkpt>
      <trkpt lat="44.22543" lon="0.1806">
        <ele>169.223771</ele>
        <time>2022-12-28T16:44:48.762Z</time>
      </trkpt>
      <trkpt lat="44.22552" lon="0.18064">
        <ele>169.134638</ele>
        <time>2022-12-28T16:44:50.779Z</time>
      </trkpt>
      <trkpt lat="44.22561" lon="0.18068">
        <ele>169.045074</ele>
        <time>2022-12-28T16:44:52.777Z</time>
      </trkpt>
      <trkpt lat="44.22571" lon="0.18071">
        <ele>168.952211</ele>
        <time>2022-12-28T16:44:54.769Z</time>
      </trkpt>
      <trkpt lat="44.22581" lon="0.18074">
        <ele>168.85661</ele>
        <time>2022-12-28T16:44:56.748Z</time>
      </trkpt>
      <trkpt lat="44.2259" lon="0.18078">
        <ele>168.768468</ele>
        <time>2022-12-28T16:44:58.764Z</time>
      </trkpt>
      <trkpt lat="44.22599" lon="0.18081">
        <ele>168.681775</ele>
        <time>2022-12-28T16:45:00.763Z</time>
      </trkpt>
      <trkpt lat="44.22611" lon="0.18087">
        <ele>168.559363</ele>
        <time>2022-12-28T16:45:03.749Z</time>
      </trkpt>
      <trkpt lat="44.22623" lon="0.18092">
        <ele>168.438472</ele>
        <time>2022-12-28T16:45:06.763Z</time>
      </trkpt>
      <trkpt lat="44.22636" lon="0.18096">
        <ele>168.311296</ele>
        <time>2022-12-28T16:45:09.773Z</time>
      </trkpt>
      <trkpt lat="44.22645" lon="0.181">
        <ele>168.223563</ele>
        <time>2022-12-28T16:45:11.774Z</time>
      </trkpt>
      <trkpt lat="44.22654" lon="0.18103">
        <ele>168.134937</ele>
        <time>2022-12-28T16:45:13.755Z</time>
      </trkpt>
      <trkpt lat="44.22663" lon="0.18107">
        <ele>168.046119</ele>
        <time>2022-12-28T16:45:15.779Z</time>
      </trkpt>
      <trkpt lat="44.22672" lon="0.18109">
        <ele>167.956845</ele>
        <time>2022-12-28T16:45:17.750Z</time>
      </trkpt>
      <trkpt lat="44.22681" lon="0.18112">
        <ele>167.866483</ele>
        <time>2022-12-28T16:45:19.760Z</time>
      </trkpt>
      <trkpt lat="44.2269" lon="0.18116">
        <ele>167.778176</ele>
        <time>2022-12-28T16:45:21.776Z</time>
      </trkpt>
      <trkpt lat="44.22699" lon="0.1812">
        <ele>167.683101</ele>
        <time>2022-12-28T16:45:23.764Z</time>
      </trkpt>
      <trkpt lat="44.22708" lon="0.18124">
        <ele>167.593461</ele>
        <time>2022-12-28T16:45:25.751Z</time>
      </trkpt>
      <trkpt lat="44.22721" lon="0.18129">
        <ele>167.470013</ele>
        <time>2022-12-28T16:45:28.770Z</time>
      </trkpt>
      <trkpt lat="44.22734" lon="0.18133">
        <ele>167.341573</ele>
        <time>2022-12-28T16:45:31.768Z</time>
      </trkpt>
      <trkpt lat="44.22746" lon="0.18138">
        <ele>167.219032</ele>
        <time>2022-12-28T16:45:34.763Z</time>
      </trkpt>
      <trkpt lat="44.22758" lon="0.18143">
        <ele>167.096692</ele>
        <time>2022-12-28T16:45:37.776Z</time>
      </trkpt>
      <trkpt lat="44.22768" lon="0.18146">
        <ele>167.002905</ele>
        <time>2022-12-28T16:45:39.775Z</time>
      </trkpt>
      <trkpt lat="44.22777" lon="0.18149">
        <ele>166.89816</ele>
        <time>2022-12-28T16:45:41.750Z</time>
      </trkpt>
      <trkpt lat="44.22787" lon="0.18152">
        <ele>166.785595</ele>
        <time>2022-12-28T16:45:43.771Z</time>
      </trkpt>
      <trkpt lat="44.22796" lon="0.18155">
        <ele>166.679019</ele>
        <time>2022-12-28T16:45:45.765Z</time>
      </trkpt>
      <trkpt lat="44.22805" lon="0.18158">
        <ele>166.56787</ele>
        <time>2022-12-28T16:45:47.767Z</time>
      </trkpt>
      <trkpt lat="44.22815" lon="0.18163">
        <ele>166.45258</ele>
        <time>2022-12-28T16:45:49.779Z</time>
      </trkpt>
      <trkpt lat="44.22825" lon="0.18167">
        <ele>166.3354</ele>
        <time>2022-12-28T16:45:51.762Z</time>
      </trkpt>
      <trkpt lat="44.22836" lon="0.1817">
        <ele>166.212803</ele>
        <time>2022-12-28T16:45:53.780Z</time>
      </trkpt>
      <trkpt lat="44.22846" lon="0.18174">
        <ele>166.092771</ele>
        <time>2022-12-28T16:45:55.768Z</time>
      </trkpt>
      <trkpt lat="44.22857" lon="0.18177">
        <ele>165.968922</ele>
        <time>2022-12-28T16:45:57.771Z</time>
      </trkpt>
      <trkpt lat="44.22868" lon="0.18181">
        <ele>165.845039</ele>
        <time>2022-12-28T16:45:59.765Z</time>
      </trkpt>
      <trkpt lat="44.22878" lon="0.18185">
        <ele>165.728065</ele>
        <time>2022-12-28T16:46:01.767Z</time>
      </trkpt>
      <trkpt lat="44.22887" lon="0.18189">
        <ele>165.616061</ele>
        <time>2022-12-28T16:46:03.768Z</time>
      </trkpt>
      <trkpt lat="44.22897" lon="0.18192">
        <ele>165.505496</ele>
        <time>2022-12-28T16:46:05.764Z</time>
      </trkpt>
      <trkpt lat="44.22907" lon="0.18195">
        <ele>165.396206</ele>
        <time>2022-12-28T16:46:07.766Z</time>
      </trkpt>
      <trkpt lat="44.22916" lon="0.18199">
        <ele>165.291759</ele>
        <time>2022-12-28T16:46:09.764Z</time>
      </trkpt>
      <trkpt lat="44.22925" lon="0.18202">
        <ele>165.187099</ele>
        <time>2022-12-28T16:46:11.784Z</time>
      </trkpt>
      <trkpt lat="44.22934" lon="0.18205">
        <ele>165.078519</ele>
        <time>2022-12-28T16:46:13.767Z</time>
      </trkpt>
      <trkpt lat="44.22943" lon="0.1821">
        <ele>164.984903</ele>
        <time>2022-12-28T16:46:15.778Z</time>
      </trkpt>
      <trkpt lat="44.22953" lon="0.18213">
        <ele>164.919589</ele>
        <time>2022-12-28T16:46:17.777Z</time>
      </trkpt>
      <trkpt lat="44.22963" lon="0.18217">
        <ele>164.854276</ele>
        <time>2022-12-28T16:46:19.767Z</time>
      </trkpt>
      <trkpt lat="44.22973" lon="0.1822">
        <ele>164.78688</ele>
        <time>2022-12-28T16:46:21.775Z</time>
      </trkpt>
      <trkpt lat="44.22983" lon="0.18224">
        <ele>164.715665</ele>
        <time>2022-12-28T16:46:23.765Z</time>
      </trkpt>
      <trkpt lat="44.22993" lon="0.18228">
        <ele>164.647472</ele>
        <time>2022-12-28T16:46:25.766Z</time>
      </trkpt>
      <trkpt lat="44.23004" lon="0.18232">
        <ele>164.578894</ele>
        <time>2022-12-28T16:46:27.761Z</time>
      </trkpt>
      <trkpt lat="44.23013" lon="0.18235">
        <ele>164.51396</ele>
        <time>2022-12-28T16:46:29.767Z</time>
      </trkpt>
      <trkpt lat="44.23023" lon="0.18239">
        <ele>164.446352</ele>
        <time>2022-12-28T16:46:31.781Z</time>
      </trkpt>
      <trkpt lat="44.23033" lon="0.18242">
        <ele>164.382126</ele>
        <time>2022-12-28T16:46:33.776Z</time>
      </trkpt>
      <trkpt lat="44.23042" lon="0.18246">
        <ele>164.317946</ele>
        <time>2022-12-28T16:46:35.778Z</time>
      </trkpt>
      <trkpt lat="44.23051" lon="0.18249">
        <ele>164.258255</ele>
        <time>2022-12-28T16:46:37.763Z</time>
      </trkpt>
      <trkpt lat="44.23061" lon="0.18253">
        <ele>164.194573</ele>
        <time>2022-12-28T16:46:39.775Z</time>
      </trkpt>
      <trkpt lat="44.23074" lon="0.18257">
        <ele>164.106369</ele>
        <time>2022-12-28T16:46:42.765Z</time>
      </trkpt>
      <trkpt lat="44.23087" lon="0.18262">
        <ele>164.020871</ele>
        <time>2022-12-28T16:46:45.748Z</time>
      </trkpt>
      <trkpt lat="44.23099" lon="0.18266">
        <ele>163.935516</ele>
        <time>2022-12-28T16:46:48.764Z</time>
      </trkpt>
      <trkpt lat="44.23112" lon="0.18268">
        <ele>163.85341</ele>
        <time>2022-12-28T16:46:51.769Z</time>
      </trkpt>
      <trkpt lat="44.23124" lon="0.18269">
        <ele>163.900035</ele>
        <time>2022-12-28T16:46:54.767Z</time>
      </trkpt>
      <trkpt lat="44.23136" lon="0.18269">
        <ele>163.98488</ele>
        <time>2022-12-28T16:46:57.765Z</time>
      </trkpt>
      <trkpt lat="44.23149" lon="0.18267">
        <ele>164.076467</ele>
        <time>2022-12-28T16:47:00.769Z</time>
      </trkpt>
      <trkpt lat="44.23162" lon="0.18266">
        <ele>164.171346</ele>
        <time>2022-12-28T16:47:03.756Z</time>
      </trkpt>
      <trkpt lat="44.23171" lon="0.18266">
        <ele>164.237178</ele>
        <time>2022-12-28T16:47:05.768Z</time>
      </trkpt>
      <trkpt lat="44.2318" lon="0.18264">
        <ele>164.30249</ele>
        <time>2022-12-28T16:47:07.779Z</time>
      </trkpt>
      <trkpt lat="44.23194" lon="0.18264">
        <ele>164.397207</ele>
        <time>2022-12-28T16:47:10.765Z</time>
      </trkpt>
      <trkpt lat="44.23207" lon="0.18264">
        <ele>164.492651</ele>
        <time>2022-12-28T16:47:13.765Z</time>
      </trkpt>
      <trkpt lat="44.2322" lon="0.18263">
        <ele>164.585414</ele>
        <time>2022-12-28T16:47:16.770Z</time>
      </trkpt>
      <trkpt lat="44.23233" lon="0.18262">
        <ele>164.670995</ele>
        <time>2022-12-28T16:47:19.766Z</time>
      </trkpt>
      <trkpt lat="44.23244" lon="0.18261">
        <ele>164.754587</ele>
        <time>2022-12-28T16:47:22.768Z</time>
      </trkpt>
      <trkpt lat="44.23256" lon="0.18262">
        <ele>164.836619</ele>
        <time>2022-12-28T16:47:25.771Z</time>
      </trkpt>
      <trkpt lat="44.23269" lon="0.18261">
        <ele>164.92641</ele>
        <time>2022-12-28T16:47:28.754Z</time>
      </trkpt>
      <trkpt lat="44.23281" lon="0.1826">
        <ele>165.013682</ele>
        <time>2022-12-28T16:47:31.764Z</time>
      </trkpt>
      <trkpt lat="44.23293" lon="0.18259">
        <ele>165.0957</ele>
        <time>2022-12-28T16:47:34.769Z</time>
      </trkpt>
      <trkpt lat="44.23304" lon="0.18259">
        <ele>165.091792</ele>
        <time>2022-12-28T16:47:37.783Z</time>
      </trkpt>
      <trkpt lat="44.23315" lon="0.18259">
        <ele>165.074477</ele>
        <time>2022-12-28T16:47:40.769Z</time>
      </trkpt>
      <trkpt lat="44.23327" lon="0.18259">
        <ele>165.056551</ele>
        <time>2022-12-28T16:47:43.750Z</time>
      </trkpt>
      <trkpt lat="44.23339" lon="0.18258">
        <ele>165.038</ele>
        <time>2022-12-28T16:47:46.750Z</time>
      </trkpt>
      <trkpt lat="44.23351" lon="0.18258">
        <ele>165.019754</ele>
        <time>2022-12-28T16:47:49.758Z</time>
      </trkpt>
      <trkpt lat="44.23362" lon="0.18258">
        <ele>165.002751</ele>
        <time>2022-12-28T16:47:52.766Z</time>
      </trkpt>
      <trkpt lat="44.23373" lon="0.18258">
        <ele>164.985752</ele>
        <time>2022-12-28T16:47:55.764Z</time>
      </trkpt>
      <trkpt lat="44.23385" lon="0.18256">
        <ele>164.967103</ele>
        <time>2022-12-28T16:47:58.764Z</time>
      </trkpt>
      <trkpt lat="44.23397" lon="0.18255">
        <ele>164.947279</ele>
        <time>2022-12-28T16:48:01.746Z</time>
      </trkpt>
      <trkpt lat="44.23409" lon="0.18254">
        <ele>164.92979</ele>
        <time>2022-12-28T16:48:04.746Z</time>
      </trkpt>
      <trkpt lat="44.23418" lon="0.18252">
        <ele>164.915603</ele>
        <time>2022-12-28T16:48:08.762Z</time>
      </trkpt>
      <trkpt lat="44.23429" lon="0.18251">
        <ele>164.898809</ele>
        <time>2022-12-28T16:48:12.765Z</time>
      </trkpt>
      <trkpt lat="44.23438" lon="0.1825">
        <ele>164.884277</ele>
        <time>2022-12-28T16:48:15.765Z</time>
      </trkpt>
      <trkpt lat="44.23449" lon="0.1825">
        <ele>164.867267</ele>
        <time>2022-12-28T16:48:18.766Z</time>
      </trkpt>
      <trkpt lat="44.23461" lon="0.1825">
        <ele>164.849497</ele>
        <time>2022-12-28T16:48:21.778Z</time>
      </trkpt>
      <trkpt lat="44.23473" lon="0.1825">
        <ele>164.830933</ele>
        <time>2022-12-28T16:48:24.757Z</time>
      </trkpt>
      <trkpt lat="44.23484" lon="0.1825">
        <ele>164.936218</ele>
        <time>2022-12-28T16:48:27.773Z</time>
      </trkpt>
      <trkpt lat="44.23495" lon="0.1825">
        <ele>165.044873</ele>
        <time>2022-12-28T16:48:30.769Z</time>
      </trkpt>
      <trkpt lat="44.23505" lon="0.18251">
        <ele>165.153528</ele>
        <time>2022-12-28T16:48:33.759Z</time>
      </trkpt>
      <trkpt lat="44.23516" lon="0.18249">
        <ele>165.259593</ele>
        <time>2022-12-28T16:48:36.757Z</time>
      </trkpt>
      <trkpt lat="44.23525" lon="0.18247">
        <ele>165.361902</ele>
        <time>2022-12-28T16:48:39.778Z</time>
      </trkpt>
      <trkpt lat="44.23533" lon="0.1826">
        <ele>165.485431</ele>
        <time>2022-12-28T16:49:26.764Z</time>
      </trkpt>
      <trkpt lat="44.23531" lon="0.18273">
        <ele>165.581682</ele>
        <time>2022-12-28T16:49:31.759Z</time>
      </trkpt>
      <trkpt lat="44.2353" lon="0.18286">
        <ele>165.676135</ele>
        <time>2022-12-28T16:49:35.755Z</time>
      </trkpt>
      <trkpt lat="44.23532" lon="0.183">
        <ele>165.786533</ele>
        <time>2022-12-28T16:49:39.771Z</time>
      </trkpt>
      <trkpt lat="44.23537" lon="0.18313">
        <ele>165.892229</ele>
        <time>2022-12-28T16:49:43.765Z</time>
      </trkpt>
      <trkpt lat="44.23546" lon="0.18319">
        <ele>165.996548</ele>
        <time>2022-12-28T16:49:47.761Z</time>
      </trkpt>
      <trkpt lat="44.23556" lon="0.18322">
        <ele>166.097988</ele>
        <time>2022-12-28T16:49:51.772Z</time>
      </trkpt>
      <trkpt lat="44.23566" lon="0.18325">
        <ele>166.201593</ele>
        <time>2022-12-28T16:49:55.756Z</time>
      </trkpt>
      <trkpt lat="44.23576" lon="0.18328">
        <ele>166.304047</ele>
        <time>2022-12-28T16:49:59.759Z</time>
      </trkpt>
      <trkpt lat="44.23587" lon="0.18331">
        <ele>166.421465</ele>
        <time>2022-12-28T16:50:03.765Z</time>
      </trkpt>
      <trkpt lat="44.23596" lon="0.18333">
        <ele>166.516944</ele>
        <time>2022-12-28T16:50:06.765Z</time>
      </trkpt>
      <trkpt lat="44.23606" lon="0.18335">
        <ele>166.619986</ele>
        <time>2022-12-28T16:50:09.754Z</time>
      </trkpt>
      <trkpt lat="44.23617" lon="0.18339">
        <ele>166.64568</ele>
        <time>2022-12-28T16:50:12.756Z</time>
      </trkpt>
      <trkpt lat="44.23627" lon="0.18341">
        <ele>166.597804</ele>
        <time>2022-12-28T16:50:15.756Z</time>
      </trkpt>
      <trkpt lat="44.23637" lon="0.18343">
        <ele>166.554103</ele>
        <time>2022-12-28T16:50:18.759Z</time>
      </trkpt>
      <trkpt lat="44.23648" lon="0.18346">
        <ele>166.506312</ele>
        <time>2022-12-28T16:50:22.770Z</time>
      </trkpt>
      <trkpt lat="44.23657" lon="0.18348">
        <ele>166.465594</ele>
        <time>2022-12-28T16:50:26.756Z</time>
      </trkpt>
      <trkpt lat="44.23668" lon="0.18351">
        <ele>166.41589</ele>
        <time>2022-12-28T16:51:31.791Z</time>
      </trkpt>
      <trkpt lat="44.23679" lon="0.18355">
        <ele>166.368181</ele>
        <time>2022-12-28T16:52:49.819Z</time>
      </trkpt>
      <trkpt lat="44.23689" lon="0.18358">
        <ele>166.325213</ele>
        <time>2022-12-28T16:52:53.759Z</time>
      </trkpt>
      <trkpt lat="44.23697" lon="0.18362">
        <ele>166.285198</ele>
        <time>2022-12-28T16:52:56.755Z</time>
      </trkpt>
      <trkpt lat="44.23707" lon="0.18365">
        <ele>166.239874</ele>
        <time>2022-12-28T16:52:59.761Z</time>
      </trkpt>
      <trkpt lat="44.23718" lon="0.18369">
        <ele>166.192591</ele>
        <time>2022-12-28T16:53:02.760Z</time>
      </trkpt>
      <trkpt lat="44.23728" lon="0.18373">
        <ele>166.146226</ele>
        <time>2022-12-28T16:53:05.759Z</time>
      </trkpt>
      <trkpt lat="44.23738" lon="0.18377">
        <ele>166.101216</ele>
        <time>2022-12-28T16:53:08.756Z</time>
      </trkpt>
      <trkpt lat="44.23748" lon="0.18382">
        <ele>166.053826</ele>
        <time>2022-12-28T16:53:11.757Z</time>
      </trkpt>
      <trkpt lat="44.23759" lon="0.18386">
        <ele>166.004712</ele>
        <time>2022-12-28T16:53:14.763Z</time>
      </trkpt>
      <trkpt lat="44.23771" lon="0.18391">
        <ele>165.950034</ele>
        <time>2022-12-28T16:53:17.759Z</time>
      </trkpt>
      <trkpt lat="44.23783" lon="0.18396">
        <ele>165.895864</ele>
        <time>2022-12-28T16:53:20.759Z</time>
      </trkpt>
      <trkpt lat="44.23795" lon="0.184">
        <ele>165.471952</ele>
        <time>2022-12-28T16:53:23.766Z</time>
      </trkpt>
      <trkpt lat="44.23806" lon="0.18404">
        <ele>164.971332</ele>
        <time>2022-12-28T16:53:26.751Z</time>
      </trkpt>
      <trkpt lat="44.23817" lon="0.1841">
        <ele>164.459391</ele>
        <time>2022-12-28T16:53:29.750Z</time>
      </trkpt>
      <trkpt lat="44.23829" lon="0.18414">
        <ele>163.915653</ele>
        <time>2022-12-28T16:53:32.756Z</time>
      </trkpt>
      <trkpt lat="44.23838" lon="0.18418">
        <ele>163.51781</ele>
        <time>2022-12-28T16:53:34.760Z</time>
      </trkpt>
      <trkpt lat="44.23848" lon="0.18421">
        <ele>163.074964</ele>
        <time>2022-12-28T16:53:36.763Z</time>
      </trkpt>
      <trkpt lat="44.23858" lon="0.18425">
        <ele>162.651229</ele>
        <time>2022-12-28T16:53:38.766Z</time>
      </trkpt>
      <trkpt lat="44.23867" lon="0.18429">
        <ele>162.233421</ele>
        <time>2022-12-28T16:53:40.753Z</time>
      </trkpt>
      <trkpt lat="44.23877" lon="0.18433">
        <ele>161.803228</ele>
        <time>2022-12-28T16:53:42.757Z</time>
      </trkpt>
      <trkpt lat="44.23886" lon="0.18436">
        <ele>161.367985</ele>
        <time>2022-12-28T16:53:44.775Z</time>
      </trkpt>
      <trkpt lat="44.23897" lon="0.18441">
        <ele>160.909904</ele>
        <time>2022-12-28T16:53:46.767Z</time>
      </trkpt>
      <trkpt lat="44.23907" lon="0.18445">
        <ele>160.450554</ele>
        <time>2022-12-28T16:53:48.766Z</time>
      </trkpt>
      <trkpt lat="44.23917" lon="0.1845">
        <ele>159.994385</ele>
        <time>2022-12-28T16:53:50.756Z</time>
      </trkpt>
      <trkpt lat="44.23927" lon="0.18455">
        <ele>159.515014</ele>
        <time>2022-12-28T16:53:52.760Z</time>
      </trkpt>
      <trkpt lat="44.23938" lon="0.18459">
        <ele>159.029295</ele>
        <time>2022-12-28T16:53:54.760Z</time>
      </trkpt>
      <trkpt lat="44.23949" lon="0.18463">
        <ele>158.556028</ele>
        <time>2022-12-28T16:53:56.753Z</time>
      </trkpt>
      <trkpt lat="44.2396" lon="0.18468">
        <ele>158.129876</ele>
        <time>2022-12-28T16:53:58.764Z</time>
      </trkpt>
      <trkpt lat="44.23971" lon="0.18473">
        <ele>158.052441</ele>
        <time>2022-12-28T16:54:00.767Z</time>
      </trkpt>
      <trkpt lat="44.23982" lon="0.18477">
        <ele>157.978243</ele>
        <time>2022-12-28T16:54:02.757Z</time>
      </trkpt>
      <trkpt lat="44.23994" lon="0.18481">
        <ele>157.899057</ele>
        <time>2022-12-28T16:54:04.766Z</time>
      </trkpt>
      <trkpt lat="44.24004" lon="0.18485">
        <ele>157.830244</ele>
        <time>2022-12-28T16:54:06.771Z</time>
      </trkpt>
      <trkpt lat="44.24013" lon="0.18488">
        <ele>157.767216</ele>
        <time>2022-12-28T16:54:08.769Z</time>
      </trkpt>
      <trkpt lat="44.24021" lon="0.18492">
        <ele>157.706109</ele>
        <time>2022-12-28T16:54:10.755Z</time>
      </trkpt>
      <trkpt lat="44.24034" lon="0.18496">
        <ele>157.619457</ele>
        <time>2022-12-28T16:54:13.753Z</time>
      </trkpt>
      <trkpt lat="44.24048" lon="0.18499">
        <ele>157.528044</ele>
        <time>2022-12-28T16:54:16.769Z</time>
      </trkpt>
      <trkpt lat="44.2406" lon="0.18503">
        <ele>157.445832</ele>
        <time>2022-12-28T16:54:19.758Z</time>
      </trkpt>
      <trkpt lat="44.24072" lon="0.18507">
        <ele>157.363619</ele>
        <time>2022-12-28T16:54:22.755Z</time>
      </trkpt>
      <trkpt lat="44.24084" lon="0.18511">
        <ele>157.281407</ele>
        <time>2022-12-28T16:54:25.761Z</time>
      </trkpt>
      <trkpt lat="44.24093" lon="0.18514">
        <ele>157.217642</ele>
        <time>2022-12-28T16:54:27.763Z</time>
      </trkpt>
      <trkpt lat="44.24106" lon="0.18517">
        <ele>157.129506</ele>
        <time>2022-12-28T16:54:30.760Z</time>
      </trkpt>
      <trkpt lat="44.24119" lon="0.1852">
        <ele>157.039877</ele>
        <time>2022-12-28T16:54:33.769Z</time>
      </trkpt>
      <trkpt lat="44.24132" lon="0.18523">
        <ele>156.954857</ele>
        <time>2022-12-28T16:54:36.753Z</time>
      </trkpt>
      <trkpt lat="44.24144" lon="0.18526">
        <ele>156.973133</ele>
        <time>2022-12-28T16:54:39.765Z</time>
      </trkpt>
      <trkpt lat="44.24155" lon="0.18529">
        <ele>156.999876</ele>
        <time>2022-12-28T16:54:42.778Z</time>
      </trkpt>
      <trkpt lat="44.24166" lon="0.18532">
        <ele>157.023893</ele>
        <time>2022-12-28T16:54:45.764Z</time>
      </trkpt>
      <trkpt lat="44.24176" lon="0.18533">
        <ele>157.047113</ele>
        <time>2022-12-28T16:54:48.755Z</time>
      </trkpt>
      <trkpt lat="44.24186" lon="0.18536">
        <ele>157.070904</ele>
        <time>2022-12-28T16:54:51.770Z</time>
      </trkpt>
      <trkpt lat="44.24197" lon="0.18538">
        <ele>157.097036</ele>
        <time>2022-12-28T16:54:54.771Z</time>
      </trkpt>
      <trkpt lat="44.24208" lon="0.1854">
        <ele>157.123854</ele>
        <time>2022-12-28T16:54:57.761Z</time>
      </trkpt>
      <trkpt lat="44.24219" lon="0.18543">
        <ele>157.149577</ele>
        <time>2022-12-28T16:55:00.760Z</time>
      </trkpt>
      <trkpt lat="44.2423" lon="0.18545">
        <ele>157.174793</ele>
        <time>2022-12-28T16:55:03.768Z</time>
      </trkpt>
      <trkpt lat="44.24241" lon="0.18546">
        <ele>157.200473</ele>
        <time>2022-12-28T16:55:06.766Z</time>
      </trkpt>
      <trkpt lat="44.24251" lon="0.18548">
        <ele>157.223325</ele>
        <time>2022-12-28T16:55:09.755Z</time>
      </trkpt>
      <trkpt lat="44.24262" lon="0.18551">
        <ele>157.247908</ele>
        <time>2022-12-28T16:55:12.758Z</time>
      </trkpt>
      <trkpt lat="44.24271" lon="0.18553">
        <ele>157.269371</ele>
        <time>2022-12-28T16:55:15.764Z</time>
      </trkpt>
      <trkpt lat="44.24281" lon="0.18556">
        <ele>157.294475</ele>
        <time>2022-12-28T16:55:19.756Z</time>
      </trkpt>
      <trkpt lat="44.24297" lon="0.18561">
        <ele>157.330533</ele>
        <time>2022-12-28T16:55:40.776Z</time>
      </trkpt>
      <trkpt lat="44.24304" lon="0.18569">
        <ele>157.353477</ele>
        <time>2022-12-28T16:55:44.757Z</time>
      </trkpt>
      <trkpt lat="44.24312" lon="0.18582">
        <ele>157.560784</ele>
        <time>2022-12-28T16:55:48.761Z</time>
      </trkpt>
      <trkpt lat="44.24318" lon="0.18592">
        <ele>157.811627</ele>
        <time>2022-12-28T16:55:51.765Z</time>
      </trkpt>
      <trkpt lat="44.24325" lon="0.18603">
        <ele>158.060163</ele>
        <time>2022-12-28T16:55:54.768Z</time>
      </trkpt>
      <trkpt lat="44.24331" lon="0.18614">
        <ele>158.314142</ele>
        <time>2022-12-28T16:55:57.761Z</time>
      </trkpt>
      <trkpt lat="44.24338" lon="0.18626">
        <ele>158.613081</ele>
        <time>2022-12-28T16:56:01.756Z</time>
      </trkpt>
      <trkpt lat="44.24346" lon="0.18639">
        <ele>158.916078</ele>
        <time>2022-12-28T16:56:05.758Z</time>
      </trkpt>
      <trkpt lat="44.24352" lon="0.18649">
        <ele>159.152723</ele>
        <time>2022-12-28T16:56:08.761Z</time>
      </trkpt>
      <trkpt lat="44.24358" lon="0.18659">
        <ele>159.393376</ele>
        <time>2022-12-28T16:56:11.762Z</time>
      </trkpt>
      <trkpt lat="44.24364" lon="0.18669">
        <ele>159.625578</ele>
        <time>2022-12-28T16:56:14.771Z</time>
      </trkpt>
      <trkpt lat="44.24371" lon="0.18681">
        <ele>159.909095</ele>
        <time>2022-12-28T16:56:18.753Z</time>
      </trkpt>
      <trkpt lat="44.24377" lon="0.18693">
        <ele>160.188297</ele>
        <time>2022-12-28T16:56:22.749Z</time>
      </trkpt>
      <trkpt lat="44.24385" lon="0.18705">
        <ele>160.469757</ele>
        <time>2022-12-28T16:56:26.764Z</time>
      </trkpt>
      <trkpt lat="44.24392" lon="0.18717">
        <ele>160.763118</ele>
        <time>2022-12-28T16:56:30.758Z</time>
      </trkpt>
      <trkpt lat="44.24399" lon="0.18728">
        <ele>161.019122</ele>
        <time>2022-12-28T16:56:34.749Z</time>
      </trkpt>
      <trkpt lat="44.24406" lon="0.18736">
        <ele>161.249951</ele>
        <time>2022-12-28T16:56:37.765Z</time>
      </trkpt>
      <trkpt lat="44.24413" lon="0.18746">
        <ele>161.503782</ele>
        <time>2022-12-28T16:56:40.752Z</time>
      </trkpt>
      <trkpt lat="44.2442" lon="0.18757">
        <ele>161.771267</ele>
        <time>2022-12-28T16:56:43.754Z</time>
      </trkpt>
      <trkpt lat="44.24427" lon="0.18767">
        <ele>162.041224</ele>
        <time>2022-12-28T16:56:46.767Z</time>
      </trkpt>
      <trkpt lat="44.24436" lon="0.18777">
        <ele>162.309751</ele>
        <time>2022-12-28T16:56:49.767Z</time>
      </trkpt>
      <trkpt lat="44.24444" lon="0.18785">
        <ele>162.559108</ele>
        <time>2022-12-28T16:56:52.754Z</time>
      </trkpt>
      <trkpt lat="44.24452" lon="0.18793">
        <ele>162.802418</ele>
        <time>2022-12-28T16:56:55.753Z</time>
      </trkpt>
      <trkpt lat="44.2446" lon="0.18801">
        <ele>163.037796</ele>
        <time>2022-12-28T16:56:58.756Z</time>
      </trkpt>
      <trkpt lat="44.2447" lon="0.18811">
        <ele>163.32186</ele>
        <time>2022-12-28T16:57:02.768Z</time>
      </trkpt>
      <trkpt lat="44.24479" lon="0.18818">
        <ele>163.589173</ele>
        <time>2022-12-28T16:57:06.776Z</time>
      </trkpt>
      <trkpt lat="44.24489" lon="0.18826">
        <ele>163.85479</ele>
        <time>2022-12-28T16:57:10.754Z</time>
      </trkpt>
      <trkpt lat="44.24499" lon="0.18833">
        <ele>164.123025</ele>
        <time>2022-12-28T16:57:14.756Z</time>
      </trkpt>
      <trkpt lat="44.24509" lon="0.18841">
        <ele>164.4069</ele>
        <time>2022-12-28T16:57:18.766Z</time>
      </trkpt>
      <trkpt lat="44.24519" lon="0.18848">
        <ele>164.670041</ele>
        <time>2022-12-28T16:57:22.766Z</time>
      </trkpt>
      <trkpt lat="44.24528" lon="0.18855">
        <ele>164.924327</ele>
        <time>2022-12-28T16:57:26.773Z</time>
      </trkpt>
      <trkpt lat="44.24537" lon="0.1886">
        <ele>165.16698</ele>
        <time>2022-12-28T16:57:30.772Z</time>
      </trkpt>
      <trkpt lat="44.24546" lon="0.18867">
        <ele>165.40142</ele>
        <time>2022-12-28T16:57:34.772Z</time>
      </trkpt>
      <trkpt lat="44.24555" lon="0.18872">
        <ele>165.646057</ele>
        <time>2022-12-28T16:57:38.760Z</time>
      </trkpt>
      <trkpt lat="44.24564" lon="0.18878">
        <ele>165.892086</ele>
        <time>2022-12-28T16:57:42.774Z</time>
      </trkpt>
      <trkpt lat="44.24574" lon="0.18886">
        <ele>166.170823</ele>
        <time>2022-12-28T16:57:47.764Z</time>
      </trkpt>
      <trkpt lat="44.24585" lon="0.18893">
        <ele>166.059366</ele>
        <time>2022-12-28T16:57:51.765Z</time>
      </trkpt>
      <trkpt lat="44.24594" lon="0.189">
        <ele>165.671248</ele>
        <time>2022-12-28T16:57:54.764Z</time>
      </trkpt>
      <trkpt lat="44.24604" lon="0.18908">
        <ele>165.241584</ele>
        <time>2022-12-28T16:57:57.769Z</time>
      </trkpt>
      <trkpt lat="44.24614" lon="0.18916">
        <ele>164.796106</ele>
        <time>2022-12-28T16:58:00.764Z</time>
      </trkpt>
      <trkpt lat="44.24625" lon="0.18924">
        <ele>164.32357</ele>
        <time>2022-12-28T16:58:03.755Z</time>
      </trkpt>
      <trkpt lat="44.24637" lon="0.18934">
        <ele>163.814006</ele>
        <time>2022-12-28T16:58:06.776Z</time>
      </trkpt>
      <trkpt lat="44.24648" lon="0.18943">
        <ele>163.301739</ele>
        <time>2022-12-28T16:58:09.759Z</time>
      </trkpt>
      <trkpt lat="44.24656" lon="0.18951">
        <ele>162.94326</ele>
        <time>2022-12-28T16:58:11.766Z</time>
      </trkpt>
      <trkpt lat="44.24665" lon="0.18958">
        <ele>162.54275</ele>
        <time>2022-12-28T16:58:13.759Z</time>
      </trkpt>
      <trkpt lat="44.24674" lon="0.18966">
        <ele>162.157897</ele>
        <time>2022-12-28T16:58:15.772Z</time>
      </trkpt>
      <trkpt lat="44.24682" lon="0.18974">
        <ele>161.772916</ele>
        <time>2022-12-28T16:58:17.765Z</time>
      </trkpt>
      <trkpt lat="44.2469" lon="0.18983">
        <ele>161.390403</ele>
        <time>2022-12-28T16:58:19.762Z</time>
      </trkpt>
      <trkpt lat="44.24698" lon="0.1899">
        <ele>161.01798</ele>
        <time>2022-12-28T16:58:21.754Z</time>
      </trkpt>
      <trkpt lat="44.24706" lon="0.18998">
        <ele>160.647091</ele>
        <time>2022-12-28T16:58:23.759Z</time>
      </trkpt>
      <trkpt lat="44.24714" lon="0.19005">
        <ele>160.303693</ele>
        <time>2022-12-28T16:58:25.776Z</time>
      </trkpt>
      <trkpt lat="44.24721" lon="0.19013">
        <ele>159.960422</ele>
        <time>2022-12-28T16:58:27.774Z</time>
      </trkpt>
      <trkpt lat="44.24732" lon="0.19023">
        <ele>159.467568</ele>
        <time>2022-12-28T16:58:30.762Z</time>
      </trkpt>
      <trkpt lat="44.24738" lon="0.19032">
        <ele>159.106542</ele>
        <time>2022-12-28T16:58:32.769Z</time>
      </trkpt>
      <trkpt lat="44.24746" lon="0.19041">
        <ele>158.730883</ele>
        <time>2022-12-28T16:58:34.767Z</time>
      </trkpt>
      <trkpt lat="44.24753" lon="0.1905">
        <ele>158.349012</ele>
        <time>2022-12-28T16:58:36.768Z</time>
      </trkpt>
      <trkpt lat="44.2476" lon="0.19059">
        <ele>157.973353</ele>
        <time>2022-12-28T16:58:38.756Z</time>
      </trkpt>
      <trkpt lat="44.24768" lon="0.19068">
        <ele>157.592933</ele>
        <time>2022-12-28T16:58:40.761Z</time>
      </trkpt>
      <trkpt lat="44.24776" lon="0.19077">
        <ele>157.200495</ele>
        <time>2022-12-28T16:58:42.772Z</time>
      </trkpt>
      <trkpt lat="44.24784" lon="0.19086">
        <ele>156.800244</ele>
        <time>2022-12-28T16:58:44.764Z</time>
      </trkpt>
      <trkpt lat="44.24792" lon="0.19096">
        <ele>156.383282</ele>
        <time>2022-12-28T16:58:46.774Z</time>
      </trkpt>
      <trkpt lat="44.248" lon="0.19106">
        <ele>155.950994</ele>
        <time>2022-12-28T16:58:48.756Z</time>
      </trkpt>
      <trkpt lat="44.24809" lon="0.19116">
        <ele>155.499682</ele>
        <time>2022-12-28T16:58:50.771Z</time>
      </trkpt>
      <trkpt lat="44.24818" lon="0.19127">
        <ele>155.044251</ele>
        <time>2022-12-28T16:58:52.764Z</time>
      </trkpt>
      <trkpt lat="44.24827" lon="0.19137">
        <ele>154.586335</ele>
        <time>2022-12-28T16:58:54.769Z</time>
      </trkpt>
      <trkpt lat="44.24837" lon="0.19148">
        <ele>154.113622</ele>
        <time>2022-12-28T16:58:56.771Z</time>
      </trkpt>
      <trkpt lat="44.24846" lon="0.19159">
        <ele>153.638522</ele>
        <time>2022-12-28T16:58:58.774Z</time>
      </trkpt>
      <trkpt lat="44.24855" lon="0.1917">
        <ele>153.16803</ele>
        <time>2022-12-28T16:59:00.756Z</time>
      </trkpt>
      <trkpt lat="44.24865" lon="0.19181">
        <ele>152.689973</ele>
        <time>2022-12-28T16:59:02.755Z</time>
      </trkpt>
      <trkpt lat="44.24874" lon="0.19192">
        <ele>152.363683</ele>
        <time>2022-12-28T16:59:04.768Z</time>
      </trkpt>
      <trkpt lat="44.24884" lon="0.19204">
        <ele>152.115451</ele>
        <time>2022-12-28T16:59:06.772Z</time>
      </trkpt>
      <trkpt lat="44.24894" lon="0.19216">
        <ele>151.866319</ele>
        <time>2022-12-28T16:59:08.757Z</time>
      </trkpt>
      <trkpt lat="44.24904" lon="0.19228">
        <ele>151.604672</ele>
        <time>2022-12-28T16:59:10.766Z</time>
      </trkpt>
      <trkpt lat="44.24913" lon="0.19242">
        <ele>151.342922</ele>
        <time>2022-12-28T16:59:12.764Z</time>
      </trkpt>
      <trkpt lat="44.24923" lon="0.19256">
        <ele>151.066702</ele>
        <time>2022-12-28T16:59:14.757Z</time>
      </trkpt>
      <trkpt lat="44.24933" lon="0.1927">
        <ele>150.802739</ele>
        <time>2022-12-28T16:59:16.753Z</time>
      </trkpt>
      <trkpt lat="44.24942" lon="0.19283">
        <ele>150.546206</ele>
        <time>2022-12-28T16:59:18.758Z</time>
      </trkpt>
      <trkpt lat="44.24952" lon="0.19298">
        <ele>150.278527</ele>
        <time>2022-12-28T16:59:20.777Z</time>
      </trkpt>
      <trkpt lat="44.24961" lon="0.19311">
        <ele>150.021816</ele>
        <time>2022-12-28T16:59:22.757Z</time>
      </trkpt>
      <trkpt lat="44.24969" lon="0.19325">
        <ele>149.780029</ele>
        <time>2022-12-28T16:59:24.763Z</time>
      </trkpt>
      <trkpt lat="44.24978" lon="0.19337">
        <ele>149.530895</ele>
        <time>2022-12-28T16:59:26.761Z</time>
      </trkpt>
      <trkpt lat="44.24987" lon="0.1935">
        <ele>149.290684</ele>
        <time>2022-12-28T16:59:28.757Z</time>
      </trkpt>
      <trkpt lat="44.24995" lon="0.19362">
        <ele>149.059849</ele>
        <time>2022-12-28T16:59:30.758Z</time>
      </trkpt>
      <trkpt lat="44.25003" lon="0.19374">
        <ele>149.121975</ele>
        <time>2022-12-28T16:59:32.758Z</time>
      </trkpt>
      <trkpt lat="44.25011" lon="0.19385">
        <ele>149.179184</ele>
        <time>2022-12-28T16:59:34.764Z</time>
      </trkpt>
      <trkpt lat="44.25018" lon="0.19394">
        <ele>149.231767</ele>
        <time>2022-12-28T16:59:36.771Z</time>
      </trkpt>
      <trkpt lat="44.25023" lon="0.19405">
        <ele>149.281505</ele>
        <time>2022-12-28T16:59:38.768Z</time>
      </trkpt>
      <trkpt lat="44.25032" lon="0.19419">
        <ele>149.353915</ele>
        <time>2022-12-28T16:59:41.756Z</time>
      </trkpt>
      <trkpt lat="44.2504" lon="0.19432">
        <ele>149.419837</ele>
        <time>2022-12-28T16:59:44.756Z</time>
      </trkpt>
      <trkpt lat="44.25048" lon="0.19444">
        <ele>149.482245</ele>
        <time>2022-12-28T16:59:47.757Z</time>
      </trkpt>
      <trkpt lat="44.25055" lon="0.19455">
        <ele>149.541957</ele>
        <time>2022-12-28T16:59:50.765Z</time>
      </trkpt>
      <trkpt lat="44.25064" lon="0.19465">
        <ele>149.598764</ele>
        <time>2022-12-28T16:59:53.760Z</time>
      </trkpt>
      <trkpt lat="44.25071" lon="0.19477">
        <ele>149.658386</ele>
        <time>2022-12-28T16:59:56.758Z</time>
      </trkpt>
      <trkpt lat="44.25078" lon="0.19488">
        <ele>149.717545</ele>
        <time>2022-12-28T16:59:59.768Z</time>
      </trkpt>
      <trkpt lat="44.25086" lon="0.19499">
        <ele>149.776886</ele>
        <time>2022-12-28T17:00:02.770Z</time>
      </trkpt>
      <trkpt lat="44.25094" lon="0.1951">
        <ele>149.839573</ele>
        <time>2022-12-28T17:00:05.766Z</time>
      </trkpt>
      <trkpt lat="44.25102" lon="0.19523">
        <ele>149.903981</ele>
        <time>2022-12-28T17:00:08.757Z</time>
      </trkpt>
      <trkpt lat="44.25111" lon="0.19536">
        <ele>149.971296</ele>
        <time>2022-12-28T17:00:11.773Z</time>
      </trkpt>
      <trkpt lat="44.25119" lon="0.19548">
        <ele>150.034148</ele>
        <time>2022-12-28T17:00:14.755Z</time>
      </trkpt>
      <trkpt lat="44.25127" lon="0.1956">
        <ele>150.080501</ele>
        <time>2022-12-28T17:00:17.750Z</time>
      </trkpt>
      <trkpt lat="44.25135" lon="0.19571">
        <ele>150.123341</ele>
        <time>2022-12-28T17:00:20.771Z</time>
      </trkpt>
      <trkpt lat="44.25142" lon="0.1958">
        <ele>150.162278</ele>
        <time>2022-12-28T17:00:23.763Z</time>
      </trkpt>
      <trkpt lat="44.25149" lon="0.1959">
        <ele>150.202301</ele>
        <time>2022-12-28T17:00:26.767Z</time>
      </trkpt>
      <trkpt lat="44.25156" lon="0.19601">
        <ele>150.244392</ele>
        <time>2022-12-28T17:00:29.772Z</time>
      </trkpt>
      <trkpt lat="44.25163" lon="0.19613">
        <ele>150.289035</ele>
        <time>2022-12-28T17:00:32.767Z</time>
      </trkpt>
      <trkpt lat="44.25171" lon="0.19625">
        <ele>150.335388</ele>
        <time>2022-12-28T17:00:35.766Z</time>
      </trkpt>
      <trkpt lat="44.25179" lon="0.19637">
        <ele>150.383141</ele>
        <time>2022-12-28T17:00:38.784Z</time>
      </trkpt>
      <trkpt lat="44.25188" lon="0.19649">
        <ele>150.431719</ele>
        <time>2022-12-28T17:00:41.765Z</time>
      </trkpt>
      <trkpt lat="44.25196" lon="0.19661">
        <ele>150.479813</ele>
        <time>2022-12-28T17:00:44.759Z</time>
      </trkpt>
      <trkpt lat="44.25205" lon="0.19674">
        <ele>150.529197</ele>
        <time>2022-12-28T17:00:47.763Z</time>
      </trkpt>
      <trkpt lat="44.25213" lon="0.19687">
        <ele>150.578735</ele>
        <time>2022-12-28T17:00:50.767Z</time>
      </trkpt>
      <trkpt lat="44.25222" lon="0.197">
        <ele>150.629354</ele>
        <time>2022-12-28T17:00:53.768Z</time>
      </trkpt>
      <trkpt lat="44.25231" lon="0.19713">
        <ele>150.681417</ele>
        <time>2022-12-28T17:00:56.763Z</time>
      </trkpt>
      <trkpt lat="44.2524" lon="0.19725">
        <ele>150.733483</ele>
        <time>2022-12-28T17:00:59.768Z</time>
      </trkpt>
      <trkpt lat="44.25249" lon="0.19738">
        <ele>150.689644</ele>
        <time>2022-12-28T17:01:02.757Z</time>
      </trkpt>
      <trkpt lat="44.25257" lon="0.19751">
        <ele>150.625211</ele>
        <time>2022-12-28T17:01:05.764Z</time>
      </trkpt>
      <trkpt lat="44.25266" lon="0.19762">
        <ele>150.561581</ele>
        <time>2022-12-28T17:01:08.774Z</time>
      </trkpt>
      <trkpt lat="44.25274" lon="0.19774">
        <ele>150.4992</ele>
        <time>2022-12-28T17:01:11.765Z</time>
      </trkpt>
      <trkpt lat="44.25282" lon="0.19787">
        <ele>150.436799</ele>
        <time>2022-12-28T17:01:14.757Z</time>
      </trkpt>
      <trkpt lat="44.2529" lon="0.19797">
        <ele>150.382081</ele>
        <time>2022-12-28T17:01:17.777Z</time>
      </trkpt>
      <trkpt lat="44.25296" lon="0.19807">
        <ele>150.332004</ele>
        <time>2022-12-28T17:01:20.761Z</time>
      </trkpt>
      <trkpt lat="44.25303" lon="0.19816">
        <ele>150.27972</ele>
        <time>2022-12-28T17:01:23.775Z</time>
      </trkpt>
      <trkpt lat="44.25311" lon="0.19826">
        <ele>150.226673</ele>
        <time>2022-12-28T17:01:26.756Z</time>
      </trkpt>
      <trkpt lat="44.25318" lon="0.19836">
        <ele>150.174136</ele>
        <time>2022-12-28T17:01:29.768Z</time>
      </trkpt>
      <trkpt lat="44.25326" lon="0.19846">
        <ele>150.11963</ele>
        <time>2022-12-28T17:01:32.772Z</time>
      </trkpt>
      <trkpt lat="44.25333" lon="0.19856">
        <ele>150.063263</ele>
        <time>2022-12-28T17:01:35.755Z</time>
      </trkpt>
      <trkpt lat="44.25341" lon="0.19866">
        <ele>150.007494</ele>
        <time>2022-12-28T17:01:38.767Z</time>
      </trkpt>
      <trkpt lat="44.25349" lon="0.19876">
        <ele>149.952279</ele>
        <time>2022-12-28T17:01:41.757Z</time>
      </trkpt>
      <trkpt lat="44.25357" lon="0.19886">
        <ele>149.896112</ele>
        <time>2022-12-28T17:01:44.758Z</time>
      </trkpt>
      <trkpt lat="44.25365" lon="0.19895">
        <ele>149.842704</ele>
        <time>2022-12-28T17:01:47.757Z</time>
      </trkpt>
      <trkpt lat="44.25373" lon="0.19902">
        <ele>149.848819</ele>
        <time>2022-12-28T17:01:50.762Z</time>
      </trkpt>
      <trkpt lat="44.2538" lon="0.1991">
        <ele>150.121408</ele>
        <time>2022-12-28T17:01:53.763Z</time>
      </trkpt>
      <trkpt lat="44.25389" lon="0.19921">
        <ele>150.469703</ele>
        <time>2022-12-28T17:01:57.761Z</time>
      </trkpt>
      <trkpt lat="44.25397" lon="0.19931">
        <ele>150.809383</ele>
        <time>2022-12-28T17:02:01.763Z</time>
      </trkpt>
      <trkpt lat="44.25406" lon="0.1994">
        <ele>151.139706</ele>
        <time>2022-12-28T17:02:05.775Z</time>
      </trkpt>
      <trkpt lat="44.25415" lon="0.1995">
        <ele>151.491029</ele>
        <time>2022-12-28T17:02:09.772Z</time>
      </trkpt>
      <trkpt lat="44.25422" lon="0.19959">
        <ele>151.767284</ele>
        <time>2022-12-28T17:02:12.772Z</time>
      </trkpt>
      <trkpt lat="44.2543" lon="0.19966">
        <ele>152.04828</ele>
        <time>2022-12-28T17:02:15.751Z</time>
      </trkpt>
      <trkpt lat="44.25439" lon="0.19977">
        <ele>152.409918</ele>
        <time>2022-12-28T17:02:19.760Z</time>
      </trkpt>
      <trkpt lat="44.25449" lon="0.19987">
        <ele>152.76953</ele>
        <time>2022-12-28T17:02:23.772Z</time>
      </trkpt>
      <trkpt lat="44.25458" lon="0.19995">
        <ele>153.098531</ele>
        <time>2022-12-28T17:02:27.765Z</time>
      </trkpt>
      <trkpt lat="44.25467" lon="0.20003">
        <ele>153.397206</ele>
        <time>2022-12-28T17:02:31.779Z</time>
      </trkpt>
      <trkpt lat="44.25476" lon="0.20009">
        <ele>153.698231</ele>
        <time>2022-12-28T17:02:36.769Z</time>
      </trkpt>
      <trkpt lat="44.25484" lon="0.20017">
        <ele>153.996906</ele>
        <time>2022-12-28T17:02:41.769Z</time>
      </trkpt>
      <trkpt lat="44.25494" lon="0.20022">
        <ele>154.305637</ele>
        <time>2022-12-28T17:02:46.774Z</time>
      </trkpt>
      <trkpt lat="44.25503" lon="0.20027">
        <ele>154.594182</ele>
        <time>2022-12-28T17:02:51.771Z</time>
      </trkpt>
      <trkpt lat="44.25512" lon="0.20031">
        <ele>154.877947</ele>
        <time>2022-12-28T17:02:56.759Z</time>
      </trkpt>
      <trkpt lat="44.25522" lon="0.20036">
        <ele>155.210331</ele>
        <time>2022-12-28T17:03:02.776Z</time>
      </trkpt>
      <trkpt lat="44.2553" lon="0.2004">
        <ele>155.872306</ele>
        <time>2022-12-28T17:03:08.772Z</time>
      </trkpt>
      <trkpt lat="44.25539" lon="0.20043">
        <ele>156.535784</ele>
        <time>2022-12-28T17:03:29.762Z</time>
      </trkpt>
      <trkpt lat="44.25548" lon="0.20047">
        <ele>157.20777</ele>
        <time>2022-12-28T17:03:43.760Z</time>
      </trkpt>
      <trkpt lat="44.25557" lon="0.2005">
        <ele>157.91719</ele>
        <time>2022-12-28T17:03:49.760Z</time>
      </trkpt>
      <trkpt lat="44.25566" lon="0.20055">
        <ele>158.588063</ele>
        <time>2022-12-28T17:03:54.759Z</time>
      </trkpt>
      <trkpt lat="44.25576" lon="0.20057">
        <ele>159.337462</ele>
        <time>2022-12-28T17:04:00.776Z</time>
      </trkpt>
      <trkpt lat="44.25586" lon="0.2006">
        <ele>160.075416</ele>
        <time>2022-12-28T17:04:06.769Z</time>
      </trkpt>
      <trkpt lat="44.25595" lon="0.20064">
        <ele>160.81253</ele>
        <time>2022-12-28T17:04:13.765Z</time>
      </trkpt>
      <trkpt lat="44.25605" lon="0.20068">
        <ele>161.551795</ele>
        <time>2022-12-28T17:04:20.765Z</time>
      </trkpt>
      <trkpt lat="44.25615" lon="0.20071">
        <ele>162.267251</ele>
        <time>2022-12-28T17:04:27.768Z</time>
      </trkpt>
      <trkpt lat="44.25624" lon="0.20076">
        <ele>163.009702</ele>
        <time>2022-12-28T17:04:34.769Z</time>
      </trkpt>
      <trkpt lat="44.25633" lon="0.20082">
        <ele>163.682674</ele>
        <time>2022-12-28T17:04:41.769Z</time>
      </trkpt>
      <trkpt lat="44.25642" lon="0.20083">
        <ele>164.381391</ele>
        <time>2022-12-28T17:04:47.761Z</time>
      </trkpt>
      <trkpt lat="44.25652" lon="0.20087">
        <ele>165.109735</ele>
        <time>2022-12-28T17:04:54.764Z</time>
      </trkpt>
      <trkpt lat="44.25661" lon="0.20092">
        <ele>165.814459</ele>
        <time>2022-12-28T17:05:00.755Z</time>
      </trkpt>
      <trkpt lat="44.2567" lon="0.20095">
        <ele>166.493417</ele>
        <time>2022-12-28T17:05:06.759Z</time>
      </trkpt>
      <trkpt lat="44.25679" lon="0.20101">
        <ele>167.251935</ele>
        <time>2022-12-28T17:05:13.763Z</time>
      </trkpt>
      <trkpt lat="44.25689" lon="0.20106">
        <ele>167.97347</ele>
        <time>2022-12-28T17:05:19.772Z</time>
      </trkpt>
      <trkpt lat="44.25697" lon="0.20112">
        <ele>168.47358</ele>
        <time>2022-12-28T17:05:25.769Z</time>
      </trkpt>
      <trkpt lat="44.25706" lon="0.20118">
        <ele>168.799867</ele>
        <time>2022-12-28T17:05:31.759Z</time>
      </trkpt>
      <trkpt lat="44.25714" lon="0.20127">
        <ele>169.129292</ele>
        <time>2022-12-28T17:05:37.759Z</time>
      </trkpt>
      <trkpt lat="44.25714" lon="0.20114">
        <ele>169.427465</ele>
        <time>2022-12-28T17:05:47.767Z</time>
      </trkpt>
      <trkpt lat="44.25706" lon="0.20106">
        <ele>169.774064</ele>
        <time>2022-12-28T17:05:53.780Z</time>
      </trkpt>
      <trkpt lat="44.25698" lon="0.20097">
        <ele>170.098596</ele>
        <time>2022-12-28T17:05:58.768Z</time>
      </trkpt>
      <trkpt lat="44.25695" lon="0.20083">
        <ele>170.413167</ele>
        <time>2022-12-28T17:06:03.776Z</time>
      </trkpt>
      <trkpt lat="44.25698" lon="0.2007">
        <ele>170.743014</ele>
        <time>2022-12-28T17:06:08.768Z</time>
      </trkpt>
      <trkpt lat="44.25702" lon="0.20057">
        <ele>171.050713</ele>
        <time>2022-12-28T17:06:12.769Z</time>
      </trkpt>
      <trkpt lat="44.25706" lon="0.20042">
        <ele>171.410247</ele>
        <time>2022-12-28T17:06:16.768Z</time>
      </trkpt>
      <trkpt lat="44.25709" lon="0.20027">
        <ele>171.769772</ele>
        <time>2022-12-28T17:06:20.767Z</time>
      </trkpt>
      <trkpt lat="44.25713" lon="0.20015">
        <ele>172.075316</ele>
        <time>2022-12-28T17:06:24.770Z</time>
      </trkpt>
      <trkpt lat="44.25715" lon="0.2">
        <ele>172.436087</ele>
        <time>2022-12-28T17:06:28.769Z</time>
      </trkpt>
      <trkpt lat="44.25719" lon="0.19986">
        <ele>172.779405</ele>
        <time>2022-12-28T17:06:32.772Z</time>
      </trkpt>
      <trkpt lat="44.25723" lon="0.19972">
        <ele>173.120564</ele>
        <time>2022-12-28T17:06:37.774Z</time>
      </trkpt>
      <trkpt lat="44.25726" lon="0.19958">
        <ele>173.458842</ele>
        <time>2022-12-28T17:06:42.769Z</time>
      </trkpt>
      <trkpt lat="44.25728" lon="0.19945">
        <ele>173.758016</ele>
        <time>2022-12-28T17:06:46.761Z</time>
      </trkpt>
      <trkpt lat="44.25729" lon="0.1993">
        <ele>174.067407</ele>
        <time>2022-12-28T17:06:51.764Z</time>
      </trkpt>
      <trkpt lat="44.25732" lon="0.19916">
        <ele>174.067407</ele>
        <time>2022-12-28T17:06:56.778Z</time>
      </trkpt>
      <trkpt lat="44.25736" lon="0.19904">
        <ele>174.067407</ele>
        <time>2022-12-28T17:07:01.765Z</time>
      </trkpt>
      <trkpt lat="44.25739" lon="0.19893">
        <ele>174.067407</ele>
        <time>2022-12-28T17:07:15.779Z</time>
      </trkpt>
      <trkpt lat="44.25743" lon="0.19879">
        <ele>174.067407</ele>
        <time>2022-12-28T17:07:27.770Z</time>
      </trkpt>
      <trkpt lat="44.25746" lon="0.19864">
        <ele>174.067407</ele>
        <time>2022-12-28T17:07:32.770Z</time>
      </trkpt>
      <trkpt lat="44.25749" lon="0.19849">
        <ele>174.067407</ele>
        <time>2022-12-28T17:07:36.761Z</time>
      </trkpt>
      <trkpt lat="44.25751" lon="0.19834">
        <ele>174.067407</ele>
        <time>2022-12-28T17:07:40.767Z</time>
      </trkpt>
      <trkpt lat="44.25752" lon="0.1982">
        <ele>174.067407</ele>
        <time>2022-12-28T17:07:44.765Z</time>
      </trkpt>
      <trkpt lat="44.25753" lon="0.19804">
        <ele>174.067407</ele>
        <time>2022-12-28T17:07:49.766Z</time>
      </trkpt>
      <trkpt lat="44.25756" lon="0.19789">
        <ele>174.067407</ele>
        <time>2022-12-28T17:07:54.781Z</time>
      </trkpt>
      <trkpt lat="44.25758" lon="0.19775">
        <ele>174.067407</ele>
        <time>2022-12-28T17:07:59.760Z</time>
      </trkpt>
      <trkpt lat="44.25758" lon="0.1977">
        <ele>174.067407</ele>
        <time>2022-12-28T17:08:15.530Z</time>
        <extensions>
          <visugpx:TrkExtension xmlns:visugpx="https://www.visugpx.com/editgpx/">
            <visugpx:node>1</visugpx:node>
            </visugpx:TrkExtension>
        </extensions>
      </trkpt>
    </trkseg>
  </trk>
  <trk>
    <name><![CDATA[Caureyges - Valence d'Agen]]></name>
    <extensions>
      <line xmlns="http://www.topografix.com/GPX/gpx_style/0/2">
        <color>0000ff</color>
        <width>4</width>
      </line>
    </extensions>
    <trkseg>
      <trkpt lat="44.25763" lon="0.19754">
        <ele>175.824501</ele>
        <time>2022-12-29T09:24:36.173Z</time>
      </trkpt>
      <trkpt lat="44.25758" lon="0.19765">
        <ele>175.824501</ele>
        <time>2022-12-29T09:24:45.864Z</time>
      </trkpt>
      <trkpt lat="44.25755" lon="0.1978">
        <ele>175.824501</ele>
        <time>2022-12-29T09:25:14.867Z</time>
      </trkpt>
      <trkpt lat="44.25752" lon="0.19794">
        <ele>175.824501</ele>
        <time>2022-12-29T09:25:19.885Z</time>
      </trkpt>
      <trkpt lat="44.2575" lon="0.19807">
        <ele>175.824501</ele>
        <time>2022-12-29T09:25:23.870Z</time>
      </trkpt>
      <trkpt lat="44.25748" lon="0.19823">
        <ele>175.824501</ele>
        <time>2022-12-29T09:25:27.866Z</time>
      </trkpt>
      <trkpt lat="44.25745" lon="0.19838">
        <ele>175.824501</ele>
        <time>2022-12-29T09:25:31.878Z</time>
      </trkpt>
      <trkpt lat="44.25742" lon="0.19852">
        <ele>175.824501</ele>
        <time>2022-12-29T09:25:35.865Z</time>
      </trkpt>
      <trkpt lat="44.2574" lon="0.19868">
        <ele>175.824501</ele>
        <time>2022-12-29T09:25:39.879Z</time>
      </trkpt>
      <trkpt lat="44.25736" lon="0.19883">
        <ele>175.748474</ele>
        <time>2022-12-29T09:25:43.877Z</time>
      </trkpt>
      <trkpt lat="44.25733" lon="0.19899">
        <ele>175.623456</ele>
        <time>2022-12-29T09:25:47.864Z</time>
      </trkpt>
      <trkpt lat="44.25729" lon="0.19912">
        <ele>175.514713</ele>
        <time>2022-12-29T09:25:51.867Z</time>
      </trkpt>
      <trkpt lat="44.25726" lon="0.19924">
        <ele>175.413246</ele>
        <time>2022-12-29T09:25:54.865Z</time>
      </trkpt>
      <trkpt lat="44.25723" lon="0.19938">
        <ele>175.301076</ele>
        <time>2022-12-29T09:25:57.883Z</time>
      </trkpt>
      <trkpt lat="44.25722" lon="0.19954">
        <ele>175.180401</ele>
        <time>2022-12-29T09:26:01.879Z</time>
      </trkpt>
      <trkpt lat="44.2572" lon="0.19966">
        <ele>175.083233</ele>
        <time>2022-12-29T09:26:04.884Z</time>
      </trkpt>
      <trkpt lat="44.25716" lon="0.1998">
        <ele>174.970889</ele>
        <time>2022-12-29T09:26:07.865Z</time>
      </trkpt>
      <trkpt lat="44.25713" lon="0.19994">
        <ele>174.856731</ele>
        <time>2022-12-29T09:26:10.866Z</time>
      </trkpt>
      <trkpt lat="44.25709" lon="0.20007">
        <ele>174.747177</ele>
        <time>2022-12-29T09:26:13.871Z</time>
      </trkpt>
      <trkpt lat="44.25706" lon="0.20021">
        <ele>174.635376</ele>
        <time>2022-12-29T09:26:16.882Z</time>
      </trkpt>
      <trkpt lat="44.25703" lon="0.20035">
        <ele>174.522193</ele>
        <time>2022-12-29T09:26:20.878Z</time>
      </trkpt>
      <trkpt lat="44.25699" lon="0.2005">
        <ele>174.398951</ele>
        <time>2022-12-29T09:26:24.872Z</time>
      </trkpt>
      <trkpt lat="44.25696" lon="0.20063">
        <ele>174.292798</ele>
        <time>2022-12-29T09:26:27.882Z</time>
      </trkpt>
      <trkpt lat="44.25693" lon="0.20075">
        <ele>174.190644</ele>
        <time>2022-12-29T09:26:30.888Z</time>
      </trkpt>
      <trkpt lat="44.25691" lon="0.2009">
        <ele>174.077572</ele>
        <time>2022-12-29T09:26:34.885Z</time>
      </trkpt>
      <trkpt lat="44.25697" lon="0.201">
        <ele>173.976239</ele>
        <time>2022-12-29T09:26:38.887Z</time>
      </trkpt>
      <trkpt lat="44.25706" lon="0.20108">
        <ele>173.903054</ele>
        <time>2022-12-29T09:26:42.863Z</time>
      </trkpt>
      <trkpt lat="44.25716" lon="0.20118">
        <ele>173.97569</ele>
        <time>2022-12-29T09:26:46.881Z</time>
      </trkpt>
      <trkpt lat="44.25722" lon="0.20127">
        <ele>174.03596</ele>
        <time>2022-12-29T09:26:52.872Z</time>
      </trkpt>
      <trkpt lat="44.2573" lon="0.20137">
        <ele>174.101531</ele>
        <time>2022-12-29T09:26:58.871Z</time>
      </trkpt>
      <trkpt lat="44.25738" lon="0.20145">
        <ele>174.163781</ele>
        <time>2022-12-29T09:27:02.885Z</time>
      </trkpt>
      <trkpt lat="44.25746" lon="0.20156">
        <ele>174.236637</ele>
        <time>2022-12-29T09:27:06.894Z</time>
      </trkpt>
      <trkpt lat="44.25754" lon="0.20166">
        <ele>174.307455</ele>
        <time>2022-12-29T09:27:10.885Z</time>
      </trkpt>
      <trkpt lat="44.25762" lon="0.20174">
        <ele>174.36678</ele>
        <time>2022-12-29T09:27:13.877Z</time>
      </trkpt>
      <trkpt lat="44.25768" lon="0.20183">
        <ele>174.426533</ele>
        <time>2022-12-29T09:27:16.882Z</time>
      </trkpt>
      <trkpt lat="44.25776" lon="0.20194">
        <ele>174.493654</ele>
        <time>2022-12-29T09:27:19.878Z</time>
      </trkpt>
      <trkpt lat="44.25783" lon="0.20203">
        <ele>174.559789</ele>
        <time>2022-12-29T09:27:22.883Z</time>
      </trkpt>
      <trkpt lat="44.2579" lon="0.20213">
        <ele>174.623116</ele>
        <time>2022-12-29T09:27:25.881Z</time>
      </trkpt>
      <trkpt lat="44.25797" lon="0.20224">
        <ele>174.686091</ele>
        <time>2022-12-29T09:27:28.886Z</time>
      </trkpt>
      <trkpt lat="44.25802" lon="0.20233">
        <ele>174.744297</ele>
        <time>2022-12-29T09:27:31.874Z</time>
      </trkpt>
      <trkpt lat="44.25808" lon="0.20244">
        <ele>174.805353</ele>
        <time>2022-12-29T09:27:34.865Z</time>
      </trkpt>
      <trkpt lat="44.25816" lon="0.20257">
        <ele>174.882944</ele>
        <time>2022-12-29T09:27:38.881Z</time>
      </trkpt>
      <trkpt lat="44.25821" lon="0.20268">
        <ele>174.94231</ele>
        <time>2022-12-29T09:27:41.869Z</time>
      </trkpt>
      <trkpt lat="44.25826" lon="0.2028">
        <ele>175.005623</ele>
        <time>2022-12-29T09:27:44.883Z</time>
      </trkpt>
      <trkpt lat="44.25831" lon="0.20292">
        <ele>175.174607</ele>
        <time>2022-12-29T09:27:47.866Z</time>
      </trkpt>
      <trkpt lat="44.25835" lon="0.20304">
        <ele>175.429706</ele>
        <time>2022-12-29T09:27:50.885Z</time>
      </trkpt>
      <trkpt lat="44.25837" lon="0.20316">
        <ele>175.674727</ele>
        <time>2022-12-29T09:27:53.881Z</time>
      </trkpt>
      <trkpt lat="44.2584" lon="0.20331">
        <ele>175.974698</ele>
        <time>2022-12-29T09:27:57.877Z</time>
      </trkpt>
      <trkpt lat="44.25839" lon="0.20345">
        <ele>176.241876</ele>
        <time>2022-12-29T09:28:01.868Z</time>
      </trkpt>
      <trkpt lat="44.25833" lon="0.20357">
        <ele>176.524876</ele>
        <time>2022-12-29T09:28:05.871Z</time>
      </trkpt>
      <trkpt lat="44.25827" lon="0.20369">
        <ele>176.81916</ele>
        <time>2022-12-29T09:28:09.885Z</time>
      </trkpt>
      <trkpt lat="44.25823" lon="0.20381">
        <ele>177.076825</ele>
        <time>2022-12-29T09:28:12.882Z</time>
      </trkpt>
      <trkpt lat="44.25818" lon="0.20393">
        <ele>177.34388</ele>
        <time>2022-12-29T09:28:15.883Z</time>
      </trkpt>
      <trkpt lat="44.25812" lon="0.20404">
        <ele>177.59698</ele>
        <time>2022-12-29T09:28:18.884Z</time>
      </trkpt>
      <trkpt lat="44.25806" lon="0.20414">
        <ele>177.853662</ele>
        <time>2022-12-29T09:28:21.874Z</time>
      </trkpt>
      <trkpt lat="44.25801" lon="0.20425">
        <ele>178.102149</ele>
        <time>2022-12-29T09:28:24.881Z</time>
      </trkpt>
      <trkpt lat="44.25795" lon="0.20436">
        <ele>178.377247</ele>
        <time>2022-12-29T09:28:28.874Z</time>
      </trkpt>
      <trkpt lat="44.25789" lon="0.20447">
        <ele>178.644452</ele>
        <time>2022-12-29T09:28:33.866Z</time>
      </trkpt>
      <trkpt lat="44.25785" lon="0.2046">
        <ele>178.912275</ele>
        <time>2022-12-29T09:28:37.865Z</time>
      </trkpt>
      <trkpt lat="44.25779" lon="0.20472">
        <ele>179.203111</ele>
        <time>2022-12-29T09:28:41.896Z</time>
      </trkpt>
      <trkpt lat="44.25772" lon="0.20484">
        <ele>179.501874</ele>
        <time>2022-12-29T09:28:45.889Z</time>
      </trkpt>
      <trkpt lat="44.25765" lon="0.20498">
        <ele>179.813261</ele>
        <time>2022-12-29T09:28:49.882Z</time>
      </trkpt>
      <trkpt lat="44.25759" lon="0.20509">
        <ele>179.891462</ele>
        <time>2022-12-29T09:28:53.885Z</time>
      </trkpt>
      <trkpt lat="44.25754" lon="0.20521">
        <ele>179.893056</ele>
        <time>2022-12-29T09:28:57.875Z</time>
      </trkpt>
      <trkpt lat="44.25747" lon="0.20532">
        <ele>179.894561</ele>
        <time>2022-12-29T09:29:01.874Z</time>
      </trkpt>
      <trkpt lat="44.25743" lon="0.20543">
        <ele>179.895965</ele>
        <time>2022-12-29T09:29:04.867Z</time>
      </trkpt>
      <trkpt lat="44.25738" lon="0.20555">
        <ele>179.897519</ele>
        <time>2022-12-29T09:29:07.881Z</time>
      </trkpt>
      <trkpt lat="44.25733" lon="0.20567">
        <ele>179.899154</ele>
        <time>2022-12-29T09:29:10.877Z</time>
      </trkpt>
      <trkpt lat="44.25728" lon="0.20579">
        <ele>179.900721</ele>
        <time>2022-12-29T09:29:13.885Z</time>
      </trkpt>
      <trkpt lat="44.25722" lon="0.20591">
        <ele>179.902341</ele>
        <time>2022-12-29T09:29:16.886Z</time>
      </trkpt>
      <trkpt lat="44.25717" lon="0.20602">
        <ele>179.903761</ele>
        <time>2022-12-29T09:29:19.866Z</time>
      </trkpt>
      <trkpt lat="44.25709" lon="0.20614">
        <ele>179.905604</ele>
        <time>2022-12-29T09:29:23.878Z</time>
      </trkpt>
      <trkpt lat="44.25704" lon="0.20628">
        <ele>179.907352</ele>
        <time>2022-12-29T09:29:27.870Z</time>
      </trkpt>
      <trkpt lat="44.25698" lon="0.20639">
        <ele>179.908899</ele>
        <time>2022-12-29T09:29:31.889Z</time>
      </trkpt>
      <trkpt lat="44.25692" lon="0.20651">
        <ele>179.910555</ele>
        <time>2022-12-29T09:29:36.882Z</time>
      </trkpt>
      <trkpt lat="44.25686" lon="0.20663">
        <ele>179.912075</ele>
        <time>2022-12-29T09:29:39.889Z</time>
      </trkpt>
      <trkpt lat="44.25681" lon="0.20675">
        <ele>179.913761</ele>
        <time>2022-12-29T09:29:42.869Z</time>
      </trkpt>
      <trkpt lat="44.25675" lon="0.20686">
        <ele>179.915262</ele>
        <time>2022-12-29T09:29:45.864Z</time>
      </trkpt>
      <trkpt lat="44.25669" lon="0.20698">
        <ele>179.916873</ele>
        <time>2022-12-29T09:29:49.867Z</time>
      </trkpt>
      <trkpt lat="44.25663" lon="0.20711">
        <ele>179.912887</ele>
        <time>2022-12-29T09:29:53.889Z</time>
      </trkpt>
      <trkpt lat="44.25658" lon="0.20722">
        <ele>179.87836</ele>
        <time>2022-12-29T09:29:56.882Z</time>
      </trkpt>
      <trkpt lat="44.25653" lon="0.20733">
        <ele>179.843154</ele>
        <time>2022-12-29T09:29:59.883Z</time>
      </trkpt>
      <trkpt lat="44.25647" lon="0.20745">
        <ele>179.805251</ele>
        <time>2022-12-29T09:30:02.885Z</time>
      </trkpt>
      <trkpt lat="44.25642" lon="0.20758">
        <ele>179.765039</ele>
        <time>2022-12-29T09:30:05.892Z</time>
      </trkpt>
      <trkpt lat="44.25636" lon="0.2077">
        <ele>179.726156</ele>
        <time>2022-12-29T09:30:08.880Z</time>
      </trkpt>
      <trkpt lat="44.2563" lon="0.20782">
        <ele>179.688787</ele>
        <time>2022-12-29T09:30:11.884Z</time>
      </trkpt>
      <trkpt lat="44.25624" lon="0.20792">
        <ele>179.653576</ele>
        <time>2022-12-29T09:30:14.881Z</time>
      </trkpt>
      <trkpt lat="44.25618" lon="0.20804">
        <ele>179.614271</ele>
        <time>2022-12-29T09:30:17.877Z</time>
      </trkpt>
      <trkpt lat="44.25612" lon="0.20818">
        <ele>179.571997</ele>
        <time>2022-12-29T09:30:20.882Z</time>
      </trkpt>
      <trkpt lat="44.25606" lon="0.20832">
        <ele>179.527048</ele>
        <time>2022-12-29T09:30:23.890Z</time>
      </trkpt>
      <trkpt lat="44.25599" lon="0.20846">
        <ele>179.483153</ele>
        <time>2022-12-29T09:30:26.899Z</time>
      </trkpt>
      <trkpt lat="44.25593" lon="0.20859">
        <ele>179.441142</ele>
        <time>2022-12-29T09:30:29.887Z</time>
      </trkpt>
      <trkpt lat="44.25588" lon="0.20872">
        <ele>179.401104</ele>
        <time>2022-12-29T09:30:32.885Z</time>
      </trkpt>
      <trkpt lat="44.25581" lon="0.20884">
        <ele>179.362662</ele>
        <time>2022-12-29T09:30:35.880Z</time>
      </trkpt>
      <trkpt lat="44.25575" lon="0.20896">
        <ele>179.323141</ele>
        <time>2022-12-29T09:30:38.884Z</time>
      </trkpt>
      <trkpt lat="44.2557" lon="0.20909">
        <ele>179.283004</ele>
        <time>2022-12-29T09:30:41.864Z</time>
      </trkpt>
      <trkpt lat="44.25566" lon="0.20923">
        <ele>179.204232</ele>
        <time>2022-12-29T09:30:44.887Z</time>
      </trkpt>
      <trkpt lat="44.25561" lon="0.20938">
        <ele>178.93521</ele>
        <time>2022-12-29T09:30:47.887Z</time>
      </trkpt>
      <trkpt lat="44.25556" lon="0.20953">
        <ele>178.663498</ele>
        <time>2022-12-29T09:30:50.885Z</time>
      </trkpt>
      <trkpt lat="44.25552" lon="0.20968">
        <ele>178.398672</ele>
        <time>2022-12-29T09:30:53.868Z</time>
      </trkpt>
      <trkpt lat="44.25548" lon="0.20983">
        <ele>178.134057</ele>
        <time>2022-12-29T09:30:56.888Z</time>
      </trkpt>
      <trkpt lat="44.25544" lon="0.20998">
        <ele>177.889511</ele>
        <time>2022-12-29T09:30:59.888Z</time>
      </trkpt>
      <trkpt lat="44.25541" lon="0.21012">
        <ele>177.647283</ele>
        <time>2022-12-29T09:31:02.885Z</time>
      </trkpt>
      <trkpt lat="44.25537" lon="0.21024">
        <ele>177.426511</ele>
        <time>2022-12-29T09:31:05.884Z</time>
      </trkpt>
      <trkpt lat="44.25534" lon="0.21038">
        <ele>177.198828</ele>
        <time>2022-12-29T09:31:08.887Z</time>
      </trkpt>
      <trkpt lat="44.2553" lon="0.21052">
        <ele>176.942022</ele>
        <time>2022-12-29T09:31:11.884Z</time>
      </trkpt>
      <trkpt lat="44.25526" lon="0.21068">
        <ele>176.675262</ele>
        <time>2022-12-29T09:31:14.889Z</time>
      </trkpt>
      <trkpt lat="44.25522" lon="0.21083">
        <ele>176.411305</ele>
        <time>2022-12-29T09:31:17.884Z</time>
      </trkpt>
      <trkpt lat="44.25517" lon="0.21099">
        <ele>176.129966</ele>
        <time>2022-12-29T09:31:20.881Z</time>
      </trkpt>
      <trkpt lat="44.25514" lon="0.21114">
        <ele>175.865453</ele>
        <time>2022-12-29T09:31:23.890Z</time>
      </trkpt>
      <trkpt lat="44.2551" lon="0.21128">
        <ele>175.631157</ele>
        <time>2022-12-29T09:31:26.865Z</time>
      </trkpt>
      <trkpt lat="44.25506" lon="0.21141">
        <ele>175.395048</ele>
        <time>2022-12-29T09:31:29.882Z</time>
      </trkpt>
      <trkpt lat="44.25502" lon="0.21156">
        <ele>175.174496</ele>
        <time>2022-12-29T09:31:32.885Z</time>
      </trkpt>
      <trkpt lat="44.25498" lon="0.21172">
        <ele>175.316665</ele>
        <time>2022-12-29T09:31:35.895Z</time>
      </trkpt>
      <trkpt lat="44.25494" lon="0.21187">
        <ele>175.458057</ele>
        <time>2022-12-29T09:31:38.895Z</time>
      </trkpt>
      <trkpt lat="44.25489" lon="0.21202">
        <ele>175.604135</ele>
        <time>2022-12-29T09:31:41.890Z</time>
      </trkpt>
      <trkpt lat="44.25486" lon="0.21219">
        <ele>175.752902</ele>
        <time>2022-12-29T09:31:44.897Z</time>
      </trkpt>
      <trkpt lat="44.25482" lon="0.21235">
        <ele>175.906935</ele>
        <time>2022-12-29T09:31:47.882Z</time>
      </trkpt>
      <trkpt lat="44.25477" lon="0.21252">
        <ele>176.064226</ele>
        <time>2022-12-29T09:31:50.889Z</time>
      </trkpt>
      <trkpt lat="44.25472" lon="0.21268">
        <ele>176.213854</ele>
        <time>2022-12-29T09:31:53.883Z</time>
      </trkpt>
      <trkpt lat="44.25468" lon="0.21284">
        <ele>176.363407</ele>
        <time>2022-12-29T09:31:56.883Z</time>
      </trkpt>
      <trkpt lat="44.25464" lon="0.21301">
        <ele>176.518703</ele>
        <time>2022-12-29T09:31:59.869Z</time>
      </trkpt>
      <trkpt lat="44.2546" lon="0.21318">
        <ele>176.670704</ele>
        <time>2022-12-29T09:32:02.880Z</time>
      </trkpt>
      <trkpt lat="44.25455" lon="0.21335">
        <ele>176.830044</ele>
        <time>2022-12-29T09:32:05.883Z</time>
      </trkpt>
      <trkpt lat="44.25453" lon="0.21347">
        <ele>176.940173</ele>
        <time>2022-12-29T09:32:07.881Z</time>
      </trkpt>
      <trkpt lat="44.25448" lon="0.21363">
        <ele>177.086891</ele>
        <time>2022-12-29T09:32:10.883Z</time>
      </trkpt>
      <trkpt lat="44.25443" lon="0.21378">
        <ele>177.22837</ele>
        <time>2022-12-29T09:32:13.884Z</time>
      </trkpt>
      <trkpt lat="44.25439" lon="0.21392">
        <ele>177.385814</ele>
        <time>2022-12-29T09:32:16.880Z</time>
      </trkpt>
      <trkpt lat="44.25435" lon="0.21408">
        <ele>177.663347</ele>
        <time>2022-12-29T09:32:19.883Z</time>
      </trkpt>
      <trkpt lat="44.25431" lon="0.21425">
        <ele>177.963419</ele>
        <time>2022-12-29T09:32:22.882Z</time>
      </trkpt>
      <trkpt lat="44.25426" lon="0.21442">
        <ele>178.266768</ele>
        <time>2022-12-29T09:32:25.873Z</time>
      </trkpt>
      <trkpt lat="44.25423" lon="0.21455">
        <ele>178.487133</ele>
        <time>2022-12-29T09:32:27.885Z</time>
      </trkpt>
      <trkpt lat="44.25417" lon="0.21471">
        <ele>178.793745</ele>
        <time>2022-12-29T09:32:30.877Z</time>
      </trkpt>
      <trkpt lat="44.25413" lon="0.21486">
        <ele>179.061778</ele>
        <time>2022-12-29T09:32:33.873Z</time>
      </trkpt>
      <trkpt lat="44.25409" lon="0.215">
        <ele>179.309166</ele>
        <time>2022-12-29T09:32:36.883Z</time>
      </trkpt>
      <trkpt lat="44.25405" lon="0.21514">
        <ele>179.554119</ele>
        <time>2022-12-29T09:32:39.885Z</time>
      </trkpt>
      <trkpt lat="44.25401" lon="0.2153">
        <ele>179.846443</ele>
        <time>2022-12-29T09:32:42.884Z</time>
      </trkpt>
      <trkpt lat="44.25398" lon="0.21543">
        <ele>180.059007</ele>
        <time>2022-12-29T09:32:44.887Z</time>
      </trkpt>
      <trkpt lat="44.25395" lon="0.21555">
        <ele>180.281007</ele>
        <time>2022-12-29T09:32:46.878Z</time>
      </trkpt>
      <trkpt lat="44.25391" lon="0.21568">
        <ele>180.505356</ele>
        <time>2022-12-29T09:32:48.883Z</time>
      </trkpt>
      <trkpt lat="44.25389" lon="0.2158">
        <ele>180.720805</ele>
        <time>2022-12-29T09:32:50.890Z</time>
      </trkpt>
      <trkpt lat="44.25385" lon="0.21593">
        <ele>180.938125</ele>
        <time>2022-12-29T09:32:52.874Z</time>
      </trkpt>
      <trkpt lat="44.25382" lon="0.21604">
        <ele>181.148927</ele>
        <time>2022-12-29T09:32:54.874Z</time>
      </trkpt>
      <trkpt lat="44.25379" lon="0.21616">
        <ele>181.360744</ele>
        <time>2022-12-29T09:32:56.881Z</time>
      </trkpt>
      <trkpt lat="44.25375" lon="0.2163">
        <ele>181.457133</ele>
        <time>2022-12-29T09:32:58.881Z</time>
      </trkpt>
      <trkpt lat="44.25371" lon="0.21643">
        <ele>181.318508</ele>
        <time>2022-12-29T09:33:00.884Z</time>
      </trkpt>
      <trkpt lat="44.25366" lon="0.2166">
        <ele>181.132733</ele>
        <time>2022-12-29T09:33:03.866Z</time>
      </trkpt>
      <trkpt lat="44.25363" lon="0.21672">
        <ele>181.009443</ele>
        <time>2022-12-29T09:33:05.884Z</time>
      </trkpt>
      <trkpt lat="44.25358" lon="0.2169">
        <ele>180.821285</ele>
        <time>2022-12-29T09:33:08.883Z</time>
      </trkpt>
      <trkpt lat="44.25353" lon="0.21706">
        <ele>180.649733</ele>
        <time>2022-12-29T09:33:11.881Z</time>
      </trkpt>
      <trkpt lat="44.25349" lon="0.21721">
        <ele>180.48984</ele>
        <time>2022-12-29T09:33:14.876Z</time>
      </trkpt>
      <trkpt lat="44.25344" lon="0.21735">
        <ele>180.338523</ele>
        <time>2022-12-29T09:33:17.883Z</time>
      </trkpt>
      <trkpt lat="44.25339" lon="0.21749">
        <ele>180.176352</ele>
        <time>2022-12-29T09:33:20.893Z</time>
      </trkpt>
      <trkpt lat="44.25334" lon="0.21767">
        <ele>179.990036</ele>
        <time>2022-12-29T09:33:23.882Z</time>
      </trkpt>
      <trkpt lat="44.25331" lon="0.21779">
        <ele>179.862123</ele>
        <time>2022-12-29T09:33:25.882Z</time>
      </trkpt>
      <trkpt lat="44.25328" lon="0.21792">
        <ele>179.735069</ele>
        <time>2022-12-29T09:33:27.886Z</time>
      </trkpt>
      <trkpt lat="44.25325" lon="0.21805">
        <ele>179.602374</ele>
        <time>2022-12-29T09:33:29.883Z</time>
      </trkpt>
      <trkpt lat="44.25323" lon="0.21817">
        <ele>179.476277</ele>
        <time>2022-12-29T09:33:31.864Z</time>
      </trkpt>
      <trkpt lat="44.2532" lon="0.21829">
        <ele>179.351514</ele>
        <time>2022-12-29T09:33:33.881Z</time>
      </trkpt>
      <trkpt lat="44.25317" lon="0.21841">
        <ele>179.226693</ele>
        <time>2022-12-29T09:33:35.887Z</time>
      </trkpt>
      <trkpt lat="44.25313" lon="0.21858">
        <ele>179.050026</ele>
        <time>2022-12-29T09:33:38.883Z</time>
      </trkpt>
      <trkpt lat="44.25309" lon="0.21873">
        <ele>179.105684</ele>
        <time>2022-12-29T09:33:41.904Z</time>
      </trkpt>
      <trkpt lat="44.25306" lon="0.21887">
        <ele>179.166574</ele>
        <time>2022-12-29T09:33:44.884Z</time>
      </trkpt>
      <trkpt lat="44.25302" lon="0.21899">
        <ele>179.224371</ele>
        <time>2022-12-29T09:33:47.882Z</time>
      </trkpt>
      <trkpt lat="44.25299" lon="0.21911">
        <ele>179.282143</ele>
        <time>2022-12-29T09:33:50.872Z</time>
      </trkpt>
      <trkpt lat="44.25296" lon="0.21923">
        <ele>179.340745</ele>
        <time>2022-12-29T09:33:53.879Z</time>
      </trkpt>
      <trkpt lat="44.25293" lon="0.21936">
        <ele>179.397309</ele>
        <time>2022-12-29T09:33:56.886Z</time>
      </trkpt>
      <trkpt lat="44.25289" lon="0.21951">
        <ele>179.468312</ele>
        <time>2022-12-29T09:34:00.883Z</time>
      </trkpt>
      <trkpt lat="44.25284" lon="0.21965">
        <ele>179.536161</ele>
        <time>2022-12-29T09:34:04.882Z</time>
      </trkpt>
      <trkpt lat="44.2528" lon="0.21979">
        <ele>179.60344</ele>
        <time>2022-12-29T09:34:08.886Z</time>
      </trkpt>
      <trkpt lat="44.25277" lon="0.21994">
        <ele>179.671017</ele>
        <time>2022-12-29T09:34:12.886Z</time>
      </trkpt>
      <trkpt lat="44.25274" lon="0.22009">
        <ele>179.74202</ele>
        <time>2022-12-29T09:34:16.884Z</time>
      </trkpt>
      <trkpt lat="44.25271" lon="0.22022">
        <ele>179.799568</ele>
        <time>2022-12-29T09:34:19.892Z</time>
      </trkpt>
      <trkpt lat="44.25268" lon="0.22033">
        <ele>179.854831</ele>
        <time>2022-12-29T09:34:22.865Z</time>
      </trkpt>
      <trkpt lat="44.25265" lon="0.22046">
        <ele>179.911546</ele>
        <time>2022-12-29T09:34:25.881Z</time>
      </trkpt>
      <trkpt lat="44.25261" lon="0.22061">
        <ele>179.984828</ele>
        <time>2022-12-29T09:34:29.882Z</time>
      </trkpt>
      <trkpt lat="44.25257" lon="0.22073">
        <ele>180.040344</ele>
        <time>2022-12-29T09:34:32.886Z</time>
      </trkpt>
      <trkpt lat="44.25252" lon="0.22089">
        <ele>180.115743</ele>
        <time>2022-12-29T09:34:36.884Z</time>
      </trkpt>
      <trkpt lat="44.25249" lon="0.22101">
        <ele>180.174953</ele>
        <time>2022-12-29T09:34:39.876Z</time>
      </trkpt>
      <trkpt lat="44.25245" lon="0.22117">
        <ele>180.250212</ele>
        <time>2022-12-29T09:34:43.881Z</time>
      </trkpt>
      <trkpt lat="44.25242" lon="0.22129">
        <ele>180.309694</ele>
        <time>2022-12-29T09:34:46.891Z</time>
      </trkpt>
      <trkpt lat="44.25238" lon="0.22141">
        <ele>180.367463</ele>
        <time>2022-12-29T09:34:49.864Z</time>
      </trkpt>
      <trkpt lat="44.25234" lon="0.22152">
        <ele>180.425551</ele>
        <time>2022-12-29T09:34:52.872Z</time>
      </trkpt>
      <trkpt lat="44.25231" lon="0.22164">
        <ele>180.482908</ele>
        <time>2022-12-29T09:34:55.883Z</time>
      </trkpt>
      <trkpt lat="44.25229" lon="0.22178">
        <ele>180.54508</ele>
        <time>2022-12-29T09:34:58.885Z</time>
      </trkpt>
      <trkpt lat="44.25225" lon="0.22192">
        <ele>180.612239</ele>
        <time>2022-12-29T09:35:01.884Z</time>
      </trkpt>
      <trkpt lat="44.25221" lon="0.22205">
        <ele>180.678974</ele>
        <time>2022-12-29T09:35:04.883Z</time>
      </trkpt>
      <trkpt lat="44.25217" lon="0.22219">
        <ele>180.746983</ele>
        <time>2022-12-29T09:35:07.879Z</time>
      </trkpt>
      <trkpt lat="44.25214" lon="0.22233">
        <ele>180.813286</ele>
        <time>2022-12-29T09:35:10.881Z</time>
      </trkpt>
      <trkpt lat="44.25211" lon="0.22246">
        <ele>180.875539</ele>
        <time>2022-12-29T09:35:13.887Z</time>
      </trkpt>
      <trkpt lat="44.25207" lon="0.22259">
        <ele>180.938241</ele>
        <time>2022-12-29T09:35:16.886Z</time>
      </trkpt>
      <trkpt lat="44.25203" lon="0.22273">
        <ele>181.003264</ele>
        <time>2022-12-29T09:35:19.884Z</time>
      </trkpt>
      <trkpt lat="44.252" lon="0.22286">
        <ele>181.067647</ele>
        <time>2022-12-29T09:35:22.876Z</time>
      </trkpt>
      <trkpt lat="44.25197" lon="0.22299">
        <ele>181.128193</ele>
        <time>2022-12-29T09:35:25.886Z</time>
      </trkpt>
      <trkpt lat="44.25194" lon="0.22311">
        <ele>181.186367</ele>
        <time>2022-12-29T09:35:28.886Z</time>
      </trkpt>
      <trkpt lat="44.2519" lon="0.22326">
        <ele>181.262114</ele>
        <time>2022-12-29T09:35:32.873Z</time>
      </trkpt>
      <trkpt lat="44.25186" lon="0.22342">
        <ele>181.759217</ele>
        <time>2022-12-29T09:35:36.864Z</time>
      </trkpt>
      <trkpt lat="44.25182" lon="0.22358">
        <ele>182.384882</ele>
        <time>2022-12-29T09:35:40.877Z</time>
      </trkpt>
      <trkpt lat="44.25178" lon="0.22369">
        <ele>182.874548</ele>
        <time>2022-12-29T09:35:43.881Z</time>
      </trkpt>
      <trkpt lat="44.25174" lon="0.22382">
        <ele>183.377399</ele>
        <time>2022-12-29T09:35:46.884Z</time>
      </trkpt>
      <trkpt lat="44.25171" lon="0.22394">
        <ele>183.885304</ele>
        <time>2022-12-29T09:35:49.876Z</time>
      </trkpt>
      <trkpt lat="44.25167" lon="0.22407">
        <ele>184.385982</ele>
        <time>2022-12-29T09:35:52.887Z</time>
      </trkpt>
      <trkpt lat="44.25164" lon="0.2242">
        <ele>184.897358</ele>
        <time>2022-12-29T09:35:55.877Z</time>
      </trkpt>
      <trkpt lat="44.25159" lon="0.22435">
        <ele>185.523806</ele>
        <time>2022-12-29T09:35:59.883Z</time>
      </trkpt>
      <trkpt lat="44.25156" lon="0.22449">
        <ele>186.074074</ele>
        <time>2022-12-29T09:36:03.883Z</time>
      </trkpt>
      <trkpt lat="44.25151" lon="0.22462">
        <ele>186.626887</ele>
        <time>2022-12-29T09:36:07.884Z</time>
      </trkpt>
      <trkpt lat="44.25147" lon="0.22477">
        <ele>187.233794</ele>
        <time>2022-12-29T09:36:11.884Z</time>
      </trkpt>
      <trkpt lat="44.25144" lon="0.2249">
        <ele>187.755745</ele>
        <time>2022-12-29T09:36:15.884Z</time>
      </trkpt>
      <trkpt lat="44.25139" lon="0.22503">
        <ele>188.300735</ele>
        <time>2022-12-29T09:36:19.888Z</time>
      </trkpt>
      <trkpt lat="44.25135" lon="0.22517">
        <ele>188.859197</ele>
        <time>2022-12-29T09:36:23.894Z</time>
      </trkpt>
      <trkpt lat="44.25131" lon="0.22531">
        <ele>189.43618</ele>
        <time>2022-12-29T09:36:27.890Z</time>
      </trkpt>
      <trkpt lat="44.25128" lon="0.22544">
        <ele>189.953069</ele>
        <time>2022-12-29T09:36:31.883Z</time>
      </trkpt>
      <trkpt lat="44.25126" lon="0.22557">
        <ele>190.447787</ele>
        <time>2022-12-29T09:36:35.872Z</time>
      </trkpt>
      <trkpt lat="44.25123" lon="0.2257">
        <ele>190.94001</ele>
        <time>2022-12-29T09:36:39.883Z</time>
      </trkpt>
      <trkpt lat="44.25118" lon="0.22582">
        <ele>191.417146</ele>
        <time>2022-12-29T09:36:43.886Z</time>
      </trkpt>
      <trkpt lat="44.25114" lon="0.22594">
        <ele>191.888889</ele>
        <time>2022-12-29T09:36:49.872Z</time>
      </trkpt>
      <trkpt lat="44.2511" lon="0.22607">
        <ele>192.385163</ele>
        <time>2022-12-29T09:36:54.868Z</time>
      </trkpt>
      <trkpt lat="44.25106" lon="0.2262">
        <ele>192.915353</ele>
        <time>2022-12-29T09:36:59.881Z</time>
      </trkpt>
      <trkpt lat="44.25102" lon="0.22633">
        <ele>193.390793</ele>
        <time>2022-12-29T09:37:04.884Z</time>
      </trkpt>
      <trkpt lat="44.25099" lon="0.22646">
        <ele>193.876089</ele>
        <time>2022-12-29T09:37:09.869Z</time>
      </trkpt>
      <trkpt lat="44.25094" lon="0.22659">
        <ele>194.411748</ele>
        <time>2022-12-29T09:37:15.885Z</time>
      </trkpt>
      <trkpt lat="44.25089" lon="0.22672">
        <ele>194.943089</ele>
        <time>2022-12-29T09:37:21.865Z</time>
      </trkpt>
      <trkpt lat="44.25085" lon="0.22685">
        <ele>195.427654</ele>
        <time>2022-12-29T09:37:26.867Z</time>
      </trkpt>
      <trkpt lat="44.2508" lon="0.22697">
        <ele>195.931996</ele>
        <time>2022-12-29T09:37:31.872Z</time>
      </trkpt>
      <trkpt lat="44.25075" lon="0.2271">
        <ele>196.450566</ele>
        <time>2022-12-29T09:37:37.869Z</time>
      </trkpt>
      <trkpt lat="44.2507" lon="0.22724">
        <ele>196.991625</ele>
        <time>2022-12-29T09:37:43.867Z</time>
      </trkpt>
      <trkpt lat="44.25066" lon="0.22738">
        <ele>197.50684</ele>
        <time>2022-12-29T09:37:48.869Z</time>
      </trkpt>
      <trkpt lat="44.25063" lon="0.22751">
        <ele>198.005686</ele>
        <time>2022-12-29T09:37:53.867Z</time>
      </trkpt>
      <trkpt lat="44.2506" lon="0.22763">
        <ele>198.462229</ele>
        <time>2022-12-29T09:37:58.872Z</time>
      </trkpt>
      <trkpt lat="44.25057" lon="0.22775">
        <ele>198.905559</ele>
        <time>2022-12-29T09:38:03.876Z</time>
      </trkpt>
      <trkpt lat="44.25052" lon="0.22788">
        <ele>199.42707</ele>
        <time>2022-12-29T09:38:08.865Z</time>
      </trkpt>
      <trkpt lat="44.25046" lon="0.228">
        <ele>199.946444</ele>
        <time>2022-12-29T09:38:13.869Z</time>
      </trkpt>
      <trkpt lat="44.25042" lon="0.22812">
        <ele>200.426943</ele>
        <time>2022-12-29T09:38:18.867Z</time>
      </trkpt>
      <trkpt lat="44.25038" lon="0.22825">
        <ele>200.91898</ele>
        <time>2022-12-29T09:38:23.872Z</time>
      </trkpt>
      <trkpt lat="44.25035" lon="0.22837">
        <ele>201.369345</ele>
        <time>2022-12-29T09:38:28.868Z</time>
      </trkpt>
      <trkpt lat="44.25031" lon="0.22849">
        <ele>201.841278</ele>
        <time>2022-12-29T09:38:33.871Z</time>
      </trkpt>
      <trkpt lat="44.25028" lon="0.22862">
        <ele>202.304721</ele>
        <time>2022-12-29T09:38:39.870Z</time>
      </trkpt>
      <trkpt lat="44.25024" lon="0.22875">
        <ele>202.831113</ele>
        <time>2022-12-29T09:38:45.865Z</time>
      </trkpt>
      <trkpt lat="44.2502" lon="0.22888">
        <ele>203.323213</ele>
        <time>2022-12-29T09:38:51.872Z</time>
      </trkpt>
      <trkpt lat="44.25016" lon="0.22901">
        <ele>203.824932</ele>
        <time>2022-12-29T09:38:57.871Z</time>
      </trkpt>
      <trkpt lat="44.25012" lon="0.22914">
        <ele>204.313824</ele>
        <time>2022-12-29T09:39:03.872Z</time>
      </trkpt>
      <trkpt lat="44.25008" lon="0.22926">
        <ele>204.788938</ele>
        <time>2022-12-29T09:39:10.867Z</time>
      </trkpt>
      <trkpt lat="44.25004" lon="0.22939">
        <ele>205.305659</ele>
        <time>2022-12-29T09:39:16.863Z</time>
      </trkpt>
      <trkpt lat="44.25" lon="0.22952">
        <ele>205.797698</ele>
        <time>2022-12-29T09:39:22.868Z</time>
      </trkpt>
      <trkpt lat="44.24996" lon="0.22966">
        <ele>206.322836</ele>
        <time>2022-12-29T09:39:28.869Z</time>
      </trkpt>
      <trkpt lat="44.24992" lon="0.22977">
        <ele>206.780246</ele>
        <time>2022-12-29T09:39:33.872Z</time>
      </trkpt>
      <trkpt lat="44.2499" lon="0.2299">
        <ele>207.251066</ele>
        <time>2022-12-29T09:39:38.871Z</time>
      </trkpt>
      <trkpt lat="44.24987" lon="0.23002">
        <ele>207.706218</ele>
        <time>2022-12-29T09:39:43.868Z</time>
      </trkpt>
      <trkpt lat="44.24983" lon="0.23016">
        <ele>208.226801</ele>
        <time>2022-12-29T09:39:49.873Z</time>
      </trkpt>
      <trkpt lat="44.2498" lon="0.2303">
        <ele>208.740159</ele>
        <time>2022-12-29T09:39:55.866Z</time>
      </trkpt>
      <trkpt lat="44.24976" lon="0.23044">
        <ele>209.301228</ele>
        <time>2022-12-29T09:40:01.870Z</time>
      </trkpt>
      <trkpt lat="44.24974" lon="0.23057">
        <ele>209.822852</ele>
        <time>2022-12-29T09:40:07.868Z</time>
      </trkpt>
      <trkpt lat="44.24972" lon="0.23071">
        <ele>210.354648</ele>
        <time>2022-12-29T09:40:13.866Z</time>
      </trkpt>
      <trkpt lat="44.24969" lon="0.23083">
        <ele>210.856403</ele>
        <time>2022-12-29T09:40:19.874Z</time>
      </trkpt>
      <trkpt lat="44.24967" lon="0.23096">
        <ele>211.357048</ele>
        <time>2022-12-29T09:40:24.873Z</time>
      </trkpt>
      <trkpt lat="44.24964" lon="0.2311">
        <ele>211.918322</ele>
        <time>2022-12-29T09:40:30.870Z</time>
      </trkpt>
      <trkpt lat="44.24962" lon="0.23123">
        <ele>212.394429</ele>
        <time>2022-12-29T09:40:34.882Z</time>
      </trkpt>
      <trkpt lat="44.24961" lon="0.23135">
        <ele>212.879136</ele>
        <time>2022-12-29T09:40:38.882Z</time>
      </trkpt>
      <trkpt lat="44.24959" lon="0.2315">
        <ele>213.445483</ele>
        <time>2022-12-29T09:40:43.883Z</time>
      </trkpt>
      <trkpt lat="44.24958" lon="0.23164">
        <ele>213.969886</ele>
        <time>2022-12-29T09:40:48.876Z</time>
      </trkpt>
      <trkpt lat="44.24957" lon="0.23177">
        <ele>214.46461</ele>
        <time>2022-12-29T09:40:53.871Z</time>
      </trkpt>
      <trkpt lat="44.24957" lon="0.23192">
        <ele>215.047342</ele>
        <time>2022-12-29T09:40:58.871Z</time>
      </trkpt>
      <trkpt lat="44.24959" lon="0.23206">
        <ele>215.566313</ele>
        <time>2022-12-29T09:41:02.885Z</time>
      </trkpt>
      <trkpt lat="44.24962" lon="0.23221">
        <ele>216.168842</ele>
        <time>2022-12-29T09:41:07.883Z</time>
      </trkpt>
      <trkpt lat="44.24966" lon="0.23234">
        <ele>216.712239</ele>
        <time>2022-12-29T09:41:11.882Z</time>
      </trkpt>
      <trkpt lat="44.24971" lon="0.23247">
        <ele>217.278939</ele>
        <time>2022-12-29T09:41:15.866Z</time>
      </trkpt>
      <trkpt lat="44.24976" lon="0.2326">
        <ele>217.806428</ele>
        <time>2022-12-29T09:41:19.876Z</time>
      </trkpt>
      <trkpt lat="44.24982" lon="0.23272">
        <ele>217.971239</ele>
        <time>2022-12-29T09:41:24.883Z</time>
      </trkpt>
      <trkpt lat="44.24987" lon="0.23283">
        <ele>217.936984</ele>
        <time>2022-12-29T09:41:28.878Z</time>
      </trkpt>
      <trkpt lat="44.24993" lon="0.23296">
        <ele>217.897979</ele>
        <time>2022-12-29T09:41:32.870Z</time>
      </trkpt>
      <trkpt lat="44.25" lon="0.23306">
        <ele>217.861998</ele>
        <time>2022-12-29T09:41:36.863Z</time>
      </trkpt>
      <trkpt lat="44.25007" lon="0.23316">
        <ele>217.827168</ele>
        <time>2022-12-29T09:41:40.892Z</time>
      </trkpt>
      <trkpt lat="44.25012" lon="0.23328">
        <ele>217.79022</ele>
        <time>2022-12-29T09:41:44.871Z</time>
      </trkpt>
      <trkpt lat="44.25016" lon="0.23342">
        <ele>217.751739</ele>
        <time>2022-12-29T09:41:48.867Z</time>
      </trkpt>
      <trkpt lat="44.25019" lon="0.23356">
        <ele>217.71297</ele>
        <time>2022-12-29T09:41:52.873Z</time>
      </trkpt>
      <trkpt lat="44.25023" lon="0.23372">
        <ele>217.67065</ele>
        <time>2022-12-29T09:41:56.865Z</time>
      </trkpt>
      <trkpt lat="44.25027" lon="0.23387">
        <ele>217.629418</ele>
        <time>2022-12-29T09:42:00.877Z</time>
      </trkpt>
      <trkpt lat="44.25034" lon="0.234">
        <ele>217.587649</ele>
        <time>2022-12-29T09:42:04.866Z</time>
      </trkpt>
      <trkpt lat="44.25041" lon="0.23411">
        <ele>217.54851</ele>
        <time>2022-12-29T09:42:08.895Z</time>
      </trkpt>
      <trkpt lat="44.25048" lon="0.23421">
        <ele>217.513392</ele>
        <time>2022-12-29T09:42:12.870Z</time>
      </trkpt>
      <trkpt lat="44.25056" lon="0.23429">
        <ele>217.476474</ele>
        <time>2022-12-29T09:42:16.872Z</time>
      </trkpt>
      <trkpt lat="44.25067" lon="0.23438">
        <ele>217.433643</ele>
        <time>2022-12-29T09:42:20.891Z</time>
      </trkpt>
      <trkpt lat="44.25075" lon="0.23445">
        <ele>217.398814</ele>
        <time>2022-12-29T09:42:23.888Z</time>
      </trkpt>
      <trkpt lat="44.25086" lon="0.2345">
        <ele>217.356066</ele>
        <time>2022-12-29T09:42:26.886Z</time>
      </trkpt>
      <trkpt lat="44.25098" lon="0.23454">
        <ele>216.960626</ele>
        <time>2022-12-29T09:42:29.883Z</time>
      </trkpt>
      <trkpt lat="44.25108" lon="0.23457">
        <ele>216.583495</ele>
        <time>2022-12-29T09:42:32.885Z</time>
      </trkpt>
      <trkpt lat="44.25118" lon="0.23462">
        <ele>216.193488</ele>
        <time>2022-12-29T09:42:35.894Z</time>
      </trkpt>
      <trkpt lat="44.25128" lon="0.23468">
        <ele>215.775744</ele>
        <time>2022-12-29T09:42:37.865Z</time>
      </trkpt>
      <trkpt lat="44.25138" lon="0.23474">
        <ele>215.387956</ele>
        <time>2022-12-29T09:42:39.879Z</time>
      </trkpt>
      <trkpt lat="44.25146" lon="0.23482">
        <ele>215.027649</ele>
        <time>2022-12-29T09:42:41.868Z</time>
      </trkpt>
      <trkpt lat="44.25157" lon="0.23491">
        <ele>214.561501</ele>
        <time>2022-12-29T09:42:44.885Z</time>
      </trkpt>
      <trkpt lat="44.25166" lon="0.235">
        <ele>214.141144</ele>
        <time>2022-12-29T09:42:46.883Z</time>
      </trkpt>
      <trkpt lat="44.25175" lon="0.2351">
        <ele>213.708578</ele>
        <time>2022-12-29T09:42:48.886Z</time>
      </trkpt>
      <trkpt lat="44.25184" lon="0.2352">
        <ele>213.295308</ele>
        <time>2022-12-29T09:42:50.883Z</time>
      </trkpt>
      <trkpt lat="44.25191" lon="0.23531">
        <ele>212.898032</ele>
        <time>2022-12-29T09:42:52.872Z</time>
      </trkpt>
      <trkpt lat="44.25199" lon="0.23542">
        <ele>212.48771</ele>
        <time>2022-12-29T09:42:54.893Z</time>
      </trkpt>
      <trkpt lat="44.25207" lon="0.23553">
        <ele>212.093607</ele>
        <time>2022-12-29T09:42:56.877Z</time>
      </trkpt>
      <trkpt lat="44.25213" lon="0.23563">
        <ele>211.725083</ele>
        <time>2022-12-29T09:42:58.881Z</time>
      </trkpt>
      <trkpt lat="44.25221" lon="0.23578">
        <ele>211.237615</ele>
        <time>2022-12-29T09:43:01.894Z</time>
      </trkpt>
      <trkpt lat="44.25227" lon="0.23588">
        <ele>210.898025</ele>
        <time>2022-12-29T09:43:03.881Z</time>
      </trkpt>
      <trkpt lat="44.25232" lon="0.23599">
        <ele>210.483601</ele>
        <time>2022-12-29T09:43:05.894Z</time>
      </trkpt>
      <trkpt lat="44.2524" lon="0.23611">
        <ele>209.812365</ele>
        <time>2022-12-29T09:43:08.890Z</time>
      </trkpt>
      <trkpt lat="44.25247" lon="0.23623">
        <ele>209.226942</ele>
        <time>2022-12-29T09:43:11.890Z</time>
      </trkpt>
      <trkpt lat="44.25253" lon="0.23634">
        <ele>208.693719</ele>
        <time>2022-12-29T09:43:14.871Z</time>
      </trkpt>
      <trkpt lat="44.25258" lon="0.23648">
        <ele>208.073747</ele>
        <time>2022-12-29T09:43:18.894Z</time>
      </trkpt>
      <trkpt lat="44.25263" lon="0.23661">
        <ele>207.494478</ele>
        <time>2022-12-29T09:43:22.898Z</time>
      </trkpt>
      <trkpt lat="44.25267" lon="0.23673">
        <ele>206.952607</ele>
        <time>2022-12-29T09:43:25.877Z</time>
      </trkpt>
      <trkpt lat="44.25271" lon="0.23686">
        <ele>206.432503</ele>
        <time>2022-12-29T09:43:28.895Z</time>
      </trkpt>
      <trkpt lat="44.25275" lon="0.237">
        <ele>205.809151</ele>
        <time>2022-12-29T09:43:31.896Z</time>
      </trkpt>
      <trkpt lat="44.25278" lon="0.23716">
        <ele>205.166036</ele>
        <time>2022-12-29T09:43:34.879Z</time>
      </trkpt>
      <trkpt lat="44.25281" lon="0.23733">
        <ele>204.479796</ele>
        <time>2022-12-29T09:43:37.895Z</time>
      </trkpt>
      <trkpt lat="44.25282" lon="0.23746">
        <ele>203.979755</ele>
        <time>2022-12-29T09:43:39.891Z</time>
      </trkpt>
      <trkpt lat="44.25288" lon="0.23762">
        <ele>203.254684</ele>
        <time>2022-12-29T09:43:42.890Z</time>
      </trkpt>
      <trkpt lat="44.2529" lon="0.23779">
        <ele>202.569544</ele>
        <time>2022-12-29T09:43:45.885Z</time>
      </trkpt>
      <trkpt lat="44.25293" lon="0.23798">
        <ele>201.825584</ele>
        <time>2022-12-29T09:43:48.897Z</time>
      </trkpt>
      <trkpt lat="44.25295" lon="0.23816">
        <ele>201.11839</ele>
        <time>2022-12-29T09:43:51.893Z</time>
      </trkpt>
      <trkpt lat="44.253" lon="0.23831">
        <ele>200.689456</ele>
        <time>2022-12-29T09:43:54.896Z</time>
      </trkpt>
      <trkpt lat="44.25304" lon="0.23847">
        <ele>200.408546</ele>
        <time>2022-12-29T09:43:57.892Z</time>
      </trkpt>
      <trkpt lat="44.25309" lon="0.23864">
        <ele>200.100898</ele>
        <time>2022-12-29T09:44:00.876Z</time>
      </trkpt>
      <trkpt lat="44.25315" lon="0.2388">
        <ele>199.807456</ele>
        <time>2022-12-29T09:44:03.861Z</time>
      </trkpt>
      <trkpt lat="44.2532" lon="0.23895">
        <ele>199.520336</ele>
        <time>2022-12-29T09:44:06.895Z</time>
      </trkpt>
      <trkpt lat="44.25325" lon="0.23907">
        <ele>199.307223</ele>
        <time>2022-12-29T09:44:08.893Z</time>
      </trkpt>
      <trkpt lat="44.25331" lon="0.23923">
        <ele>198.990172</ele>
        <time>2022-12-29T09:44:11.894Z</time>
      </trkpt>
      <trkpt lat="44.25337" lon="0.23935">
        <ele>198.751634</ele>
        <time>2022-12-29T09:44:13.886Z</time>
      </trkpt>
      <trkpt lat="44.25344" lon="0.23951">
        <ele>198.434855</ele>
        <time>2022-12-29T09:44:16.890Z</time>
      </trkpt>
      <trkpt lat="44.2535" lon="0.23968">
        <ele>198.119766</ele>
        <time>2022-12-29T09:44:19.874Z</time>
      </trkpt>
      <trkpt lat="44.25356" lon="0.2398">
        <ele>197.887951</ele>
        <time>2022-12-29T09:44:21.869Z</time>
      </trkpt>
      <trkpt lat="44.2536" lon="0.23992">
        <ele>197.670523</ele>
        <time>2022-12-29T09:44:23.872Z</time>
      </trkpt>
      <trkpt lat="44.25364" lon="0.24004">
        <ele>197.449869</ele>
        <time>2022-12-29T09:44:25.867Z</time>
      </trkpt>
      <trkpt lat="44.25364" lon="0.24017">
        <ele>197.225919</ele>
        <time>2022-12-29T09:44:27.873Z</time>
      </trkpt>
      <trkpt lat="44.25365" lon="0.24031">
        <ele>197.00244</ele>
        <time>2022-12-29T09:44:29.874Z</time>
      </trkpt>
      <trkpt lat="44.25366" lon="0.24047">
        <ele>196.72432</ele>
        <time>2022-12-29T09:44:32.879Z</time>
      </trkpt>
      <trkpt lat="44.25364" lon="0.24062">
        <ele>196.117497</ele>
        <time>2022-12-29T09:44:35.866Z</time>
      </trkpt>
      <trkpt lat="44.2536" lon="0.24078">
        <ele>195.431045</ele>
        <time>2022-12-29T09:44:38.866Z</time>
      </trkpt>
      <trkpt lat="44.25357" lon="0.24092">
        <ele>194.751541</ele>
        <time>2022-12-29T09:44:41.888Z</time>
      </trkpt>
      <trkpt lat="44.25352" lon="0.24104">
        <ele>194.200214</ele>
        <time>2022-12-29T09:44:43.866Z</time>
      </trkpt>
      <trkpt lat="44.25348" lon="0.24115">
        <ele>193.624212</ele>
        <time>2022-12-29T09:44:45.887Z</time>
      </trkpt>
      <trkpt lat="44.25343" lon="0.24127">
        <ele>193.035951</ele>
        <time>2022-12-29T09:44:47.890Z</time>
      </trkpt>
      <trkpt lat="44.25338" lon="0.24139">
        <ele>192.443897</ele>
        <time>2022-12-29T09:44:49.869Z</time>
      </trkpt>
      <trkpt lat="44.2533" lon="0.24155">
        <ele>191.61414</ele>
        <time>2022-12-29T09:44:52.879Z</time>
      </trkpt>
      <trkpt lat="44.25326" lon="0.24166">
        <ele>191.057947</ele>
        <time>2022-12-29T09:44:54.882Z</time>
      </trkpt>
      <trkpt lat="44.25321" lon="0.24177">
        <ele>190.518591</ele>
        <time>2022-12-29T09:44:56.898Z</time>
      </trkpt>
      <trkpt lat="44.25315" lon="0.24192">
        <ele>189.770784</ele>
        <time>2022-12-29T09:44:59.894Z</time>
      </trkpt>
      <trkpt lat="44.25309" lon="0.24206">
        <ele>189.058317</ele>
        <time>2022-12-29T09:45:02.890Z</time>
      </trkpt>
      <trkpt lat="44.25304" lon="0.2422">
        <ele>188.387171</ele>
        <time>2022-12-29T09:45:05.872Z</time>
      </trkpt>
      <trkpt lat="44.25299" lon="0.24234">
        <ele>187.698673</ele>
        <time>2022-12-29T09:45:08.883Z</time>
      </trkpt>
      <trkpt lat="44.25292" lon="0.24247">
        <ele>187.013459</ele>
        <time>2022-12-29T09:45:11.893Z</time>
      </trkpt>
      <trkpt lat="44.25286" lon="0.24262">
        <ele>186.252047</ele>
        <time>2022-12-29T09:45:14.897Z</time>
      </trkpt>
      <trkpt lat="44.25279" lon="0.24276">
        <ele>185.483013</ele>
        <time>2022-12-29T09:45:17.891Z</time>
      </trkpt>
      <trkpt lat="44.25272" lon="0.2429">
        <ele>184.739278</ele>
        <time>2022-12-29T09:45:20.887Z</time>
      </trkpt>
      <trkpt lat="44.25267" lon="0.24303">
        <ele>184.049371</ele>
        <time>2022-12-29T09:45:23.885Z</time>
      </trkpt>
      <trkpt lat="44.2526" lon="0.24316">
        <ele>183.320783</ele>
        <time>2022-12-29T09:45:26.892Z</time>
      </trkpt>
      <trkpt lat="44.25253" lon="0.24329">
        <ele>182.577294</ele>
        <time>2022-12-29T09:45:29.883Z</time>
      </trkpt>
      <trkpt lat="44.25248" lon="0.24345">
        <ele>181.765473</ele>
        <time>2022-12-29T09:45:32.884Z</time>
      </trkpt>
      <trkpt lat="44.25241" lon="0.24361">
        <ele>180.926399</ele>
        <time>2022-12-29T09:45:35.880Z</time>
      </trkpt>
      <trkpt lat="44.25235" lon="0.24376">
        <ele>180.116115</ele>
        <time>2022-12-29T09:45:38.880Z</time>
      </trkpt>
      <trkpt lat="44.25229" lon="0.24391">
        <ele>179.322552</ele>
        <time>2022-12-29T09:45:41.883Z</time>
      </trkpt>
      <trkpt lat="44.25223" lon="0.24407">
        <ele>178.500709</ele>
        <time>2022-12-29T09:45:44.888Z</time>
      </trkpt>
      <trkpt lat="44.25217" lon="0.24422">
        <ele>177.674523</ele>
        <time>2022-12-29T09:45:47.892Z</time>
      </trkpt>
      <trkpt lat="44.2521" lon="0.24437">
        <ele>176.898455</ele>
        <time>2022-12-29T09:45:50.897Z</time>
      </trkpt>
      <trkpt lat="44.25203" lon="0.24451">
        <ele>176.110127</ele>
        <time>2022-12-29T09:45:53.884Z</time>
      </trkpt>
      <trkpt lat="44.25196" lon="0.24465">
        <ele>175.284406</ele>
        <time>2022-12-29T09:45:56.887Z</time>
      </trkpt>
      <trkpt lat="44.25189" lon="0.24481">
        <ele>174.431119</ele>
        <time>2022-12-29T09:45:59.895Z</time>
      </trkpt>
      <trkpt lat="44.25182" lon="0.24496">
        <ele>173.901093</ele>
        <time>2022-12-29T09:46:02.874Z</time>
      </trkpt>
      <trkpt lat="44.25175" lon="0.2451">
        <ele>173.451284</ele>
        <time>2022-12-29T09:46:05.890Z</time>
      </trkpt>
      <trkpt lat="44.25168" lon="0.24523">
        <ele>173.008598</ele>
        <time>2022-12-29T09:46:08.895Z</time>
      </trkpt>
      <trkpt lat="44.25162" lon="0.24538">
        <ele>172.561155</ele>
        <time>2022-12-29T09:46:11.889Z</time>
      </trkpt>
      <trkpt lat="44.25156" lon="0.24551">
        <ele>172.143585</ele>
        <time>2022-12-29T09:46:14.896Z</time>
      </trkpt>
      <trkpt lat="44.2515" lon="0.24565">
        <ele>171.704531</ele>
        <time>2022-12-29T09:46:17.897Z</time>
      </trkpt>
      <trkpt lat="44.25144" lon="0.24579">
        <ele>171.272656</ele>
        <time>2022-12-29T09:46:20.888Z</time>
      </trkpt>
      <trkpt lat="44.25139" lon="0.24592">
        <ele>170.866994</ele>
        <time>2022-12-29T09:46:23.885Z</time>
      </trkpt>
      <trkpt lat="44.25133" lon="0.24606">
        <ele>170.440652</ele>
        <time>2022-12-29T09:46:26.894Z</time>
      </trkpt>
      <trkpt lat="44.25126" lon="0.24619">
        <ele>170.014848</ele>
        <time>2022-12-29T09:46:29.895Z</time>
      </trkpt>
      <trkpt lat="44.25121" lon="0.24632">
        <ele>169.610566</ele>
        <time>2022-12-29T09:46:32.885Z</time>
      </trkpt>
      <trkpt lat="44.25116" lon="0.24643">
        <ele>169.257982</ele>
        <time>2022-12-29T09:46:35.895Z</time>
      </trkpt>
      <trkpt lat="44.2511" lon="0.24656">
        <ele>168.844938</ele>
        <time>2022-12-29T09:46:38.888Z</time>
      </trkpt>
      <trkpt lat="44.25103" lon="0.24669">
        <ele>168.430436</ele>
        <time>2022-12-29T09:46:41.893Z</time>
      </trkpt>
      <trkpt lat="44.25097" lon="0.24682">
        <ele>168.004972</ele>
        <time>2022-12-29T09:46:44.881Z</time>
      </trkpt>
      <trkpt lat="44.25091" lon="0.24695">
        <ele>167.608458</ele>
        <time>2022-12-29T09:46:47.890Z</time>
      </trkpt>
      <trkpt lat="44.25086" lon="0.24708">
        <ele>167.496044</ele>
        <time>2022-12-29T09:46:50.875Z</time>
      </trkpt>
      <trkpt lat="44.25081" lon="0.24719">
        <ele>167.412717</ele>
        <time>2022-12-29T09:46:53.884Z</time>
      </trkpt>
      <trkpt lat="44.25075" lon="0.24733">
        <ele>167.312063</ele>
        <time>2022-12-29T09:46:57.888Z</time>
      </trkpt>
      <trkpt lat="44.2507" lon="0.24745">
        <ele>167.22647</ele>
        <time>2022-12-29T09:47:01.879Z</time>
      </trkpt>
      <trkpt lat="44.25068" lon="0.24759">
        <ele>167.135179</ele>
        <time>2022-12-29T09:47:05.869Z</time>
      </trkpt>
      <trkpt lat="44.25068" lon="0.24774">
        <ele>167.040139</ele>
        <time>2022-12-29T09:47:09.875Z</time>
      </trkpt>
      <trkpt lat="44.25071" lon="0.24789">
        <ele>166.94358</ele>
        <time>2022-12-29T09:47:13.865Z</time>
      </trkpt>
      <trkpt lat="44.25075" lon="0.24801">
        <ele>166.865079</ele>
        <time>2022-12-29T09:47:16.878Z</time>
      </trkpt>
      <trkpt lat="44.2508" lon="0.24815">
        <ele>166.769117</ele>
        <time>2022-12-29T09:47:20.886Z</time>
      </trkpt>
      <trkpt lat="44.25082" lon="0.2483">
        <ele>166.671953</ele>
        <time>2022-12-29T09:47:24.879Z</time>
      </trkpt>
      <trkpt lat="44.25088" lon="0.24843">
        <ele>166.574992</ele>
        <time>2022-12-29T09:47:28.879Z</time>
      </trkpt>
      <trkpt lat="44.25091" lon="0.24856">
        <ele>166.492364</ele>
        <time>2022-12-29T09:47:31.897Z</time>
      </trkpt>
      <trkpt lat="44.25095" lon="0.2487">
        <ele>166.396835</ele>
        <time>2022-12-29T09:47:34.882Z</time>
      </trkpt>
      <trkpt lat="44.25099" lon="0.24885">
        <ele>166.296916</ele>
        <time>2022-12-29T09:47:37.893Z</time>
      </trkpt>
      <trkpt lat="44.25102" lon="0.24898">
        <ele>166.212506</ele>
        <time>2022-12-29T09:47:40.890Z</time>
      </trkpt>
      <trkpt lat="44.25103" lon="0.24914">
        <ele>166.1134</ele>
        <time>2022-12-29T09:47:44.885Z</time>
      </trkpt>
      <trkpt lat="44.25103" lon="0.24926">
        <ele>166.03466</ele>
        <time>2022-12-29T09:47:47.874Z</time>
      </trkpt>
      <trkpt lat="44.25101" lon="0.24939">
        <ele>166.535045</ele>
        <time>2022-12-29T09:47:50.873Z</time>
      </trkpt>
      <trkpt lat="44.25097" lon="0.24951">
        <ele>167.225151</ele>
        <time>2022-12-29T09:47:55.867Z</time>
      </trkpt>
      <trkpt lat="44.25092" lon="0.24963">
        <ele>167.893602</ele>
        <time>2022-12-29T09:47:59.892Z</time>
      </trkpt>
      <trkpt lat="44.25085" lon="0.24974">
        <ele>168.646429</ele>
        <time>2022-12-29T09:48:04.883Z</time>
      </trkpt>
      <trkpt lat="44.25079" lon="0.24984">
        <ele>169.334847</ele>
        <time>2022-12-29T09:48:09.896Z</time>
      </trkpt>
      <trkpt lat="44.25072" lon="0.24995">
        <ele>170.077156</ele>
        <time>2022-12-29T09:48:15.876Z</time>
      </trkpt>
      <trkpt lat="44.25065" lon="0.25005">
        <ele>170.816072</ele>
        <time>2022-12-29T09:48:22.866Z</time>
      </trkpt>
      <trkpt lat="44.25059" lon="0.25016">
        <ele>171.476689</ele>
        <time>2022-12-29T09:48:28.866Z</time>
      </trkpt>
      <trkpt lat="44.25054" lon="0.25026">
        <ele>172.141211</ele>
        <time>2022-12-29T09:48:34.873Z</time>
      </trkpt>
      <trkpt lat="44.25047" lon="0.25036">
        <ele>172.823547</ele>
        <time>2022-12-29T09:48:39.872Z</time>
      </trkpt>
      <trkpt lat="44.25042" lon="0.25048">
        <ele>173.556865</ele>
        <time>2022-12-29T09:48:45.872Z</time>
      </trkpt>
      <trkpt lat="44.25035" lon="0.25059">
        <ele>174.313329</ele>
        <time>2022-12-29T09:48:50.872Z</time>
      </trkpt>
      <trkpt lat="44.25032" lon="0.25073">
        <ele>175.03559</ele>
        <time>2022-12-29T09:48:56.867Z</time>
      </trkpt>
      <trkpt lat="44.25034" lon="0.25088">
        <ele>175.789109</ele>
        <time>2022-12-29T09:49:02.870Z</time>
      </trkpt>
      <trkpt lat="44.2504" lon="0.25099">
        <ele>176.537961</ele>
        <time>2022-12-29T09:49:09.871Z</time>
      </trkpt>
      <trkpt lat="44.25048" lon="0.25108">
        <ele>177.230663</ele>
        <time>2022-12-29T09:49:17.873Z</time>
      </trkpt>
      <trkpt lat="44.25057" lon="0.25114">
        <ele>177.963654</ele>
        <time>2022-12-29T09:49:25.866Z</time>
      </trkpt>
      <trkpt lat="44.25066" lon="0.25119">
        <ele>178.652641</ele>
        <time>2022-12-29T09:49:33.869Z</time>
      </trkpt>
      <trkpt lat="44.25074" lon="0.25125">
        <ele>179.107996</ele>
        <time>2022-12-29T09:49:40.875Z</time>
      </trkpt>
      <trkpt lat="44.25083" lon="0.25131">
        <ele>179.521939</ele>
        <time>2022-12-29T09:49:46.878Z</time>
      </trkpt>
      <trkpt lat="44.25092" lon="0.25139">
        <ele>179.95543</ele>
        <time>2022-12-29T09:49:51.873Z</time>
      </trkpt>
      <trkpt lat="44.25101" lon="0.25146">
        <ele>180.385944</ele>
        <time>2022-12-29T09:49:57.873Z</time>
      </trkpt>
      <trkpt lat="44.2511" lon="0.25152">
        <ele>180.778817</ele>
        <time>2022-12-29T09:50:03.869Z</time>
      </trkpt>
      <trkpt lat="44.25118" lon="0.2516">
        <ele>181.199848</ele>
        <time>2022-12-29T09:50:08.875Z</time>
      </trkpt>
      <trkpt lat="44.25126" lon="0.2517">
        <ele>181.632315</ele>
        <time>2022-12-29T09:50:14.872Z</time>
      </trkpt>
      <trkpt lat="44.25134" lon="0.25178">
        <ele>182.021746</ele>
        <time>2022-12-29T09:50:19.871Z</time>
      </trkpt>
      <trkpt lat="44.25141" lon="0.25187">
        <ele>182.414874</ele>
        <time>2022-12-29T09:50:24.872Z</time>
      </trkpt>
      <trkpt lat="44.25148" lon="0.25196">
        <ele>182.799137</ele>
        <time>2022-12-29T09:50:29.874Z</time>
      </trkpt>
      <trkpt lat="44.25155" lon="0.25204">
        <ele>183.174252</ele>
        <time>2022-12-29T09:50:34.890Z</time>
      </trkpt>
      <trkpt lat="44.25162" lon="0.25213">
        <ele>183.56629</ele>
        <time>2022-12-29T09:50:39.872Z</time>
      </trkpt>
      <trkpt lat="44.25169" lon="0.25222">
        <ele>183.95572</ele>
        <time>2022-12-29T09:50:44.894Z</time>
      </trkpt>
      <trkpt lat="44.25175" lon="0.25234">
        <ele>184.388641</ele>
        <time>2022-12-29T09:50:50.867Z</time>
      </trkpt>
      <trkpt lat="44.25181" lon="0.25245">
        <ele>184.787099</ele>
        <time>2022-12-29T09:50:56.879Z</time>
      </trkpt>
      <trkpt lat="44.25187" lon="0.25254">
        <ele>185.158508</ele>
        <time>2022-12-29T09:51:01.868Z</time>
      </trkpt>
      <trkpt lat="44.25192" lon="0.25265">
        <ele>185.544652</ele>
        <time>2022-12-29T09:51:06.872Z</time>
      </trkpt>
      <trkpt lat="44.25198" lon="0.25277">
        <ele>185.956693</ele>
        <time>2022-12-29T09:51:11.879Z</time>
      </trkpt>
      <trkpt lat="44.25202" lon="0.25289">
        <ele>186.365466</ele>
        <time>2022-12-29T09:51:16.863Z</time>
      </trkpt>
      <trkpt lat="44.25206" lon="0.25301">
        <ele>186.783398</ele>
        <time>2022-12-29T09:51:21.870Z</time>
      </trkpt>
      <trkpt lat="44.2521" lon="0.25314">
        <ele>187.216749</ele>
        <time>2022-12-29T09:51:26.888Z</time>
      </trkpt>
      <trkpt lat="44.25213" lon="0.25326">
        <ele>187.632951</ele>
        <time>2022-12-29T09:51:31.880Z</time>
      </trkpt>
      <trkpt lat="44.25216" lon="0.2534">
        <ele>188.074039</ele>
        <time>2022-12-29T09:51:37.878Z</time>
      </trkpt>
      <trkpt lat="44.25217" lon="0.25353">
        <ele>188.48581</ele>
        <time>2022-12-29T09:51:42.870Z</time>
      </trkpt>
      <trkpt lat="44.25218" lon="0.25367">
        <ele>188.919954</ele>
        <time>2022-12-29T09:51:48.876Z</time>
      </trkpt>
      <trkpt lat="44.25218" lon="0.2538">
        <ele>189.354277</ele>
        <time>2022-12-29T09:51:53.873Z</time>
      </trkpt>
      <trkpt lat="44.25216" lon="0.25393">
        <ele>189.760982</ele>
        <time>2022-12-29T09:51:58.866Z</time>
      </trkpt>
      <trkpt lat="44.25214" lon="0.25407">
        <ele>190.194681</ele>
        <time>2022-12-29T09:52:04.863Z</time>
      </trkpt>
      <trkpt lat="44.25213" lon="0.25419">
        <ele>190.592932</ele>
        <time>2022-12-29T09:52:09.872Z</time>
      </trkpt>
      <trkpt lat="44.25213" lon="0.25432">
        <ele>190.995066</ele>
        <time>2022-12-29T09:52:14.874Z</time>
      </trkpt>
      <trkpt lat="44.25215" lon="0.25445">
        <ele>191.413645</ele>
        <time>2022-12-29T09:52:19.871Z</time>
      </trkpt>
      <trkpt lat="44.25217" lon="0.2546">
        <ele>191.896868</ele>
        <time>2022-12-29T09:52:24.870Z</time>
      </trkpt>
      <trkpt lat="44.25221" lon="0.25474">
        <ele>192.368768</ele>
        <time>2022-12-29T09:52:29.874Z</time>
      </trkpt>
      <trkpt lat="44.25227" lon="0.25486">
        <ele>192.831033</ele>
        <time>2022-12-29T09:52:33.867Z</time>
      </trkpt>
      <trkpt lat="44.25232" lon="0.25498">
        <ele>193.272953</ele>
        <time>2022-12-29T09:52:38.884Z</time>
      </trkpt>
      <trkpt lat="44.25239" lon="0.25508">
        <ele>193.688972</ele>
        <time>2022-12-29T09:52:43.864Z</time>
      </trkpt>
      <trkpt lat="44.25245" lon="0.2552">
        <ele>194.091445</ele>
        <time>2022-12-29T09:52:49.872Z</time>
      </trkpt>
      <trkpt lat="44.25252" lon="0.25533">
        <ele>194.129528</ele>
        <time>2022-12-29T09:52:54.891Z</time>
      </trkpt>
      <trkpt lat="44.25257" lon="0.25546">
        <ele>194.164824</ele>
        <time>2022-12-29T09:52:59.884Z</time>
      </trkpt>
      <trkpt lat="44.25261" lon="0.25557">
        <ele>194.195861</ele>
        <time>2022-12-29T09:53:04.887Z</time>
      </trkpt>
      <trkpt lat="44.2526" lon="0.25571">
        <ele>194.229312</ele>
        <time>2022-12-29T09:53:09.873Z</time>
      </trkpt>
      <trkpt lat="44.2526" lon="0.25584">
        <ele>194.260266</ele>
        <time>2022-12-29T09:53:13.886Z</time>
      </trkpt>
      <trkpt lat="44.25259" lon="0.25598">
        <ele>194.291967</ele>
        <time>2022-12-29T09:53:16.889Z</time>
      </trkpt>
      <trkpt lat="44.25256" lon="0.25612">
        <ele>194.327532</ele>
        <time>2022-12-29T09:53:21.883Z</time>
      </trkpt>
      <trkpt lat="44.25253" lon="0.25627">
        <ele>194.365417</ele>
        <time>2022-12-29T09:53:25.871Z</time>
      </trkpt>
      <trkpt lat="44.25253" lon="0.25641">
        <ele>194.398377</ele>
        <time>2022-12-29T09:53:28.868Z</time>
      </trkpt>
      <trkpt lat="44.25254" lon="0.25657">
        <ele>194.435968</ele>
        <time>2022-12-29T09:53:31.879Z</time>
      </trkpt>
      <trkpt lat="44.25254" lon="0.25674">
        <ele>194.477536</ele>
        <time>2022-12-29T09:53:34.886Z</time>
      </trkpt>
      <trkpt lat="44.25254" lon="0.25687">
        <ele>194.508122</ele>
        <time>2022-12-29T09:53:36.886Z</time>
      </trkpt>
      <trkpt lat="44.25256" lon="0.257">
        <ele>194.540388</ele>
        <time>2022-12-29T09:53:38.875Z</time>
      </trkpt>
      <trkpt lat="44.25258" lon="0.25714">
        <ele>194.572544</ele>
        <time>2022-12-29T09:53:40.870Z</time>
      </trkpt>
      <trkpt lat="44.25258" lon="0.25729">
        <ele>194.609635</ele>
        <time>2022-12-29T09:53:42.868Z</time>
      </trkpt>
      <trkpt lat="44.2526" lon="0.25743">
        <ele>194.643313</ele>
        <time>2022-12-29T09:53:44.888Z</time>
      </trkpt>
      <trkpt lat="44.25263" lon="0.25757">
        <ele>194.678004</ele>
        <time>2022-12-29T09:53:46.898Z</time>
      </trkpt>
      <trkpt lat="44.25263" lon="0.25772">
        <ele>194.517968</ele>
        <time>2022-12-29T09:53:48.891Z</time>
      </trkpt>
      <trkpt lat="44.25265" lon="0.25785">
        <ele>194.333749</ele>
        <time>2022-12-29T09:53:50.895Z</time>
      </trkpt>
      <trkpt lat="44.25266" lon="0.258">
        <ele>194.122862</ele>
        <time>2022-12-29T09:53:52.893Z</time>
      </trkpt>
      <trkpt lat="44.25267" lon="0.25815">
        <ele>193.919545</ele>
        <time>2022-12-29T09:53:54.883Z</time>
      </trkpt>
      <trkpt lat="44.25269" lon="0.2583">
        <ele>193.697626</ele>
        <time>2022-12-29T09:53:56.885Z</time>
      </trkpt>
      <trkpt lat="44.25271" lon="0.25844">
        <ele>193.502588</ele>
        <time>2022-12-29T09:53:58.896Z</time>
      </trkpt>
      <trkpt lat="44.25272" lon="0.25858">
        <ele>193.301397</ele>
        <time>2022-12-29T09:54:00.876Z</time>
      </trkpt>
      <trkpt lat="44.25274" lon="0.25873">
        <ele>193.092489</ele>
        <time>2022-12-29T09:54:02.870Z</time>
      </trkpt>
      <trkpt lat="44.25275" lon="0.25887">
        <ele>192.891951</ele>
        <time>2022-12-29T09:54:04.893Z</time>
      </trkpt>
      <trkpt lat="44.25277" lon="0.25901">
        <ele>192.69231</ele>
        <time>2022-12-29T09:54:06.889Z</time>
      </trkpt>
      <trkpt lat="44.25279" lon="0.25915">
        <ele>192.501793</ele>
        <time>2022-12-29T09:54:08.889Z</time>
      </trkpt>
      <trkpt lat="44.25279" lon="0.25928">
        <ele>192.318786</ele>
        <time>2022-12-29T09:54:10.889Z</time>
      </trkpt>
      <trkpt lat="44.25282" lon="0.25941">
        <ele>192.119587</ele>
        <time>2022-12-29T09:54:12.885Z</time>
      </trkpt>
      <trkpt lat="44.25284" lon="0.25957">
        <ele>191.899348</ele>
        <time>2022-12-29T09:54:14.880Z</time>
      </trkpt>
      <trkpt lat="44.25288" lon="0.25972">
        <ele>191.669951</ele>
        <time>2022-12-29T09:54:16.897Z</time>
      </trkpt>
      <trkpt lat="44.25292" lon="0.25986">
        <ele>191.464964</ele>
        <time>2022-12-29T09:54:18.897Z</time>
      </trkpt>
      <trkpt lat="44.25293" lon="0.26">
        <ele>191.266543</ele>
        <time>2022-12-29T09:54:20.889Z</time>
      </trkpt>
      <trkpt lat="44.25295" lon="0.26015">
        <ele>190.974375</ele>
        <time>2022-12-29T09:54:22.894Z</time>
      </trkpt>
      <trkpt lat="44.25297" lon="0.26031">
        <ele>190.616081</ele>
        <time>2022-12-29T09:54:24.880Z</time>
      </trkpt>
      <trkpt lat="44.25299" lon="0.26047">
        <ele>190.235647</ele>
        <time>2022-12-29T09:54:26.897Z</time>
      </trkpt>
      <trkpt lat="44.25301" lon="0.26064">
        <ele>189.850539</ele>
        <time>2022-12-29T09:54:28.885Z</time>
      </trkpt>
      <trkpt lat="44.25301" lon="0.26079">
        <ele>189.500529</ele>
        <time>2022-12-29T09:54:30.882Z</time>
      </trkpt>
      <trkpt lat="44.25301" lon="0.26093">
        <ele>189.184818</ele>
        <time>2022-12-29T09:54:32.895Z</time>
      </trkpt>
      <trkpt lat="44.25301" lon="0.26107">
        <ele>188.884856</ele>
        <time>2022-12-29T09:54:34.886Z</time>
      </trkpt>
      <trkpt lat="44.25303" lon="0.26126">
        <ele>188.451345</ele>
        <time>2022-12-29T09:54:37.897Z</time>
      </trkpt>
      <trkpt lat="44.25302" lon="0.26144">
        <ele>188.042069</ele>
        <time>2022-12-29T09:54:40.876Z</time>
      </trkpt>
      <trkpt lat="44.25302" lon="0.26162">
        <ele>187.633235</ele>
        <time>2022-12-29T09:54:43.889Z</time>
      </trkpt>
      <trkpt lat="44.25304" lon="0.26178">
        <ele>187.266728</ele>
        <time>2022-12-29T09:54:46.896Z</time>
      </trkpt>
      <trkpt lat="44.25305" lon="0.2619">
        <ele>186.970845</ele>
        <time>2022-12-29T09:54:49.894Z</time>
      </trkpt>
      <trkpt lat="44.25307" lon="0.26203">
        <ele>186.683648</ele>
        <time>2022-12-29T09:54:53.894Z</time>
      </trkpt>
      <trkpt lat="44.2531" lon="0.26216">
        <ele>186.374391</ele>
        <time>2022-12-29T09:54:57.877Z</time>
      </trkpt>
      <trkpt lat="44.25313" lon="0.26231">
        <ele>186.012725</ele>
        <time>2022-12-29T09:55:01.888Z</time>
      </trkpt>
      <trkpt lat="44.25316" lon="0.26243">
        <ele>185.713902</ele>
        <time>2022-12-29T09:55:04.896Z</time>
      </trkpt>
      <trkpt lat="44.2532" lon="0.26257">
        <ele>185.451243</ele>
        <time>2022-12-29T09:55:07.895Z</time>
      </trkpt>
      <trkpt lat="44.25324" lon="0.26269">
        <ele>185.367563</ele>
        <time>2022-12-29T09:55:10.898Z</time>
      </trkpt>
      <trkpt lat="44.25327" lon="0.26283">
        <ele>185.268764</ele>
        <time>2022-12-29T09:55:14.878Z</time>
      </trkpt>
      <trkpt lat="44.25331" lon="0.26299">
        <ele>185.161059</ele>
        <time>2022-12-29T09:55:18.882Z</time>
      </trkpt>
      <trkpt lat="44.25334" lon="0.26313">
        <ele>185.07105</ele>
        <time>2022-12-29T09:55:21.896Z</time>
      </trkpt>
      <trkpt lat="44.25337" lon="0.26326">
        <ele>184.979167</ele>
        <time>2022-12-29T09:55:24.885Z</time>
      </trkpt>
      <trkpt lat="44.25341" lon="0.2634">
        <ele>184.885784</ele>
        <time>2022-12-29T09:55:27.897Z</time>
      </trkpt>
      <trkpt lat="44.25343" lon="0.26353">
        <ele>184.795785</ele>
        <time>2022-12-29T09:55:30.888Z</time>
      </trkpt>
      <trkpt lat="44.25348" lon="0.26366">
        <ele>184.705144</ele>
        <time>2022-12-29T09:55:33.890Z</time>
      </trkpt>
      <trkpt lat="44.25352" lon="0.26378">
        <ele>184.617218</ele>
        <time>2022-12-29T09:55:36.883Z</time>
      </trkpt>
      <trkpt lat="44.25356" lon="0.2639">
        <ele>184.530834</ele>
        <time>2022-12-29T09:55:39.894Z</time>
      </trkpt>
      <trkpt lat="44.25362" lon="0.26403">
        <ele>184.433631</ele>
        <time>2022-12-29T09:55:42.896Z</time>
      </trkpt>
      <trkpt lat="44.25368" lon="0.26415">
        <ele>184.338363</ele>
        <time>2022-12-29T09:55:45.892Z</time>
      </trkpt>
      <trkpt lat="44.25375" lon="0.26426">
        <ele>184.245672</ele>
        <time>2022-12-29T09:55:48.875Z</time>
      </trkpt>
      <trkpt lat="44.25381" lon="0.26435">
        <ele>184.164194</ele>
        <time>2022-12-29T09:55:51.889Z</time>
      </trkpt>
      <trkpt lat="44.25386" lon="0.26446">
        <ele>184.081496</ele>
        <time>2022-12-29T09:55:54.864Z</time>
      </trkpt>
      <trkpt lat="44.25392" lon="0.26458">
        <ele>183.98569</ele>
        <time>2022-12-29T09:55:57.868Z</time>
      </trkpt>
      <trkpt lat="44.25398" lon="0.26471">
        <ele>183.886144</ele>
        <time>2022-12-29T09:56:00.869Z</time>
      </trkpt>
      <trkpt lat="44.25403" lon="0.26484">
        <ele>183.539144</ele>
        <time>2022-12-29T09:56:03.868Z</time>
      </trkpt>
      <trkpt lat="44.25406" lon="0.26498">
        <ele>183.108169</ele>
        <time>2022-12-29T09:56:06.886Z</time>
      </trkpt>
      <trkpt lat="44.25411" lon="0.2651">
        <ele>182.702334</ele>
        <time>2022-12-29T09:56:09.885Z</time>
      </trkpt>
      <trkpt lat="44.25415" lon="0.26522">
        <ele>182.301851</ele>
        <time>2022-12-29T09:56:12.896Z</time>
      </trkpt>
      <trkpt lat="44.25418" lon="0.26534">
        <ele>181.908294</ele>
        <time>2022-12-29T09:56:15.892Z</time>
      </trkpt>
      <trkpt lat="44.2542" lon="0.26546">
        <ele>181.528653</ele>
        <time>2022-12-29T09:56:18.886Z</time>
      </trkpt>
      <trkpt lat="44.25425" lon="0.26559">
        <ele>181.101935</ele>
        <time>2022-12-29T09:56:21.887Z</time>
      </trkpt>
      <trkpt lat="44.2543" lon="0.2657">
        <ele>180.70644</ele>
        <time>2022-12-29T09:56:24.880Z</time>
      </trkpt>
      <trkpt lat="44.25437" lon="0.26579">
        <ele>180.301327</ele>
        <time>2022-12-29T09:56:27.872Z</time>
      </trkpt>
      <trkpt lat="44.25445" lon="0.26588">
        <ele>179.874011</ele>
        <time>2022-12-29T09:56:30.890Z</time>
      </trkpt>
      <trkpt lat="44.25452" lon="0.26596">
        <ele>179.471101</ele>
        <time>2022-12-29T09:56:33.891Z</time>
      </trkpt>
      <trkpt lat="44.25461" lon="0.26604">
        <ele>179.044125</ele>
        <time>2022-12-29T09:56:36.884Z</time>
      </trkpt>
      <trkpt lat="44.2547" lon="0.26613">
        <ele>178.555126</ele>
        <time>2022-12-29T09:56:40.897Z</time>
      </trkpt>
      <trkpt lat="44.25478" lon="0.26622">
        <ele>178.141483</ele>
        <time>2022-12-29T09:56:44.867Z</time>
      </trkpt>
      <trkpt lat="44.25478" lon="0.26635">
        <ele>177.745894</ele>
        <time>2022-12-29T09:56:48.873Z</time>
      </trkpt>
      <trkpt lat="44.25469" lon="0.26643">
        <ele>177.284315</ele>
        <time>2022-12-29T09:56:51.868Z</time>
      </trkpt>
      <trkpt lat="44.2546" lon="0.26648">
        <ele>176.881166</ele>
        <time>2022-12-29T09:56:53.869Z</time>
      </trkpt>
      <trkpt lat="44.2545" lon="0.26652">
        <ele>176.442817</ele>
        <time>2022-12-29T09:56:55.872Z</time>
      </trkpt>
      <trkpt lat="44.25441" lon="0.26654">
        <ele>175.870822</ele>
        <time>2022-12-29T09:56:57.889Z</time>
      </trkpt>
      <trkpt lat="44.25431" lon="0.26658">
        <ele>175.02342</ele>
        <time>2022-12-29T09:56:59.896Z</time>
      </trkpt>
      <trkpt lat="44.2542" lon="0.26662">
        <ele>174.221689</ele>
        <time>2022-12-29T09:57:01.896Z</time>
      </trkpt>
      <trkpt lat="44.2541" lon="0.26665">
        <ele>173.397507</ele>
        <time>2022-12-29T09:57:03.869Z</time>
      </trkpt>
      <trkpt lat="44.254" lon="0.26669">
        <ele>172.568327</ele>
        <time>2022-12-29T09:57:05.894Z</time>
      </trkpt>
      <trkpt lat="44.2539" lon="0.26672">
        <ele>171.832231</ele>
        <time>2022-12-29T09:57:07.896Z</time>
      </trkpt>
      <trkpt lat="44.25382" lon="0.26678">
        <ele>171.126765</ele>
        <time>2022-12-29T09:57:09.895Z</time>
      </trkpt>
      <trkpt lat="44.25371" lon="0.26688">
        <ele>170.081221</ele>
        <time>2022-12-29T09:57:12.868Z</time>
      </trkpt>
      <trkpt lat="44.25364" lon="0.26702">
        <ele>169.143584</ele>
        <time>2022-12-29T09:57:15.870Z</time>
      </trkpt>
      <trkpt lat="44.2536" lon="0.26719">
        <ele>168.143277</ele>
        <time>2022-12-29T09:57:18.876Z</time>
      </trkpt>
      <trkpt lat="44.2536" lon="0.26737">
        <ele>167.182837</ele>
        <time>2022-12-29T09:57:21.875Z</time>
      </trkpt>
      <trkpt lat="44.25363" lon="0.26755">
        <ele>166.180386</ele>
        <time>2022-12-29T09:57:24.889Z</time>
      </trkpt>
      <trkpt lat="44.25364" lon="0.26768">
        <ele>165.434875</ele>
        <time>2022-12-29T09:57:26.890Z</time>
      </trkpt>
      <trkpt lat="44.25367" lon="0.26781">
        <ele>164.684756</ele>
        <time>2022-12-29T09:57:28.897Z</time>
      </trkpt>
      <trkpt lat="44.25368" lon="0.26795">
        <ele>163.914531</ele>
        <time>2022-12-29T09:57:30.896Z</time>
      </trkpt>
      <trkpt lat="44.25371" lon="0.26809">
        <ele>163.0878</ele>
        <time>2022-12-29T09:57:32.884Z</time>
      </trkpt>
      <trkpt lat="44.25373" lon="0.26824">
        <ele>162.225417</ele>
        <time>2022-12-29T09:57:34.890Z</time>
      </trkpt>
      <trkpt lat="44.25374" lon="0.26841">
        <ele>161.18672</ele>
        <time>2022-12-29T09:57:36.890Z</time>
      </trkpt>
      <trkpt lat="44.25376" lon="0.26858">
        <ele>160.112823</ele>
        <time>2022-12-29T09:57:38.882Z</time>
      </trkpt>
      <trkpt lat="44.25377" lon="0.26875">
        <ele>159.034405</ele>
        <time>2022-12-29T09:57:40.878Z</time>
      </trkpt>
      <trkpt lat="44.25378" lon="0.26892">
        <ele>157.953348</ele>
        <time>2022-12-29T09:57:42.890Z</time>
      </trkpt>
      <trkpt lat="44.2538" lon="0.26909">
        <ele>156.88566</ele>
        <time>2022-12-29T09:57:44.891Z</time>
      </trkpt>
      <trkpt lat="44.2538" lon="0.26926">
        <ele>155.835917</ele>
        <time>2022-12-29T09:57:46.896Z</time>
      </trkpt>
      <trkpt lat="44.25381" lon="0.26942">
        <ele>154.860291</ele>
        <time>2022-12-29T09:57:48.882Z</time>
      </trkpt>
      <trkpt lat="44.25381" lon="0.26956">
        <ele>153.976253</ele>
        <time>2022-12-29T09:57:50.881Z</time>
      </trkpt>
      <trkpt lat="44.25382" lon="0.2697">
        <ele>153.06111</ele>
        <time>2022-12-29T09:57:52.894Z</time>
      </trkpt>
      <trkpt lat="44.25383" lon="0.26985">
        <ele>152.147297</ele>
        <time>2022-12-29T09:57:54.895Z</time>
      </trkpt>
      <trkpt lat="44.25383" lon="0.27">
        <ele>151.22287</ele>
        <time>2022-12-29T09:57:56.884Z</time>
      </trkpt>
      <trkpt lat="44.25384" lon="0.27015">
        <ele>150.273267</ele>
        <time>2022-12-29T09:57:58.887Z</time>
      </trkpt>
      <trkpt lat="44.25384" lon="0.2703">
        <ele>149.315832</ele>
        <time>2022-12-29T09:58:00.889Z</time>
      </trkpt>
      <trkpt lat="44.25385" lon="0.27044">
        <ele>148.452434</ele>
        <time>2022-12-29T09:58:02.884Z</time>
      </trkpt>
      <trkpt lat="44.25386" lon="0.27057">
        <ele>147.631457</ele>
        <time>2022-12-29T09:58:04.871Z</time>
      </trkpt>
      <trkpt lat="44.25386" lon="0.2707">
        <ele>146.838148</ele>
        <time>2022-12-29T09:58:06.890Z</time>
      </trkpt>
      <trkpt lat="44.25387" lon="0.27087">
        <ele>146.498724</ele>
        <time>2022-12-29T09:58:09.866Z</time>
      </trkpt>
      <trkpt lat="44.25388" lon="0.27106">
        <ele>146.20316</ele>
        <time>2022-12-29T09:58:12.890Z</time>
      </trkpt>
      <trkpt lat="44.25389" lon="0.2712">
        <ele>145.984777</ele>
        <time>2022-12-29T09:58:14.870Z</time>
      </trkpt>
      <trkpt lat="44.25392" lon="0.27134">
        <ele>145.770857</ele>
        <time>2022-12-29T09:58:16.866Z</time>
      </trkpt>
      <trkpt lat="44.25396" lon="0.27147">
        <ele>145.553258</ele>
        <time>2022-12-29T09:58:18.894Z</time>
      </trkpt>
      <trkpt lat="44.25401" lon="0.27159">
        <ele>145.340823</ele>
        <time>2022-12-29T09:58:20.872Z</time>
      </trkpt>
      <trkpt lat="44.25406" lon="0.27171">
        <ele>145.118509</ele>
        <time>2022-12-29T09:58:22.872Z</time>
      </trkpt>
      <trkpt lat="44.25411" lon="0.27185">
        <ele>144.878697</ele>
        <time>2022-12-29T09:58:24.878Z</time>
      </trkpt>
      <trkpt lat="44.25415" lon="0.27199">
        <ele>144.648929</ele>
        <time>2022-12-29T09:58:26.869Z</time>
      </trkpt>
      <trkpt lat="44.25417" lon="0.27213">
        <ele>144.429527</ele>
        <time>2022-12-29T09:58:28.870Z</time>
      </trkpt>
      <trkpt lat="44.25419" lon="0.27226">
        <ele>144.224575</ele>
        <time>2022-12-29T09:58:30.880Z</time>
      </trkpt>
      <trkpt lat="44.25421" lon="0.27243">
        <ele>143.950844</ele>
        <time>2022-12-29T09:58:33.887Z</time>
      </trkpt>
      <trkpt lat="44.25424" lon="0.2726">
        <ele>143.690061</ele>
        <time>2022-12-29T09:58:36.868Z</time>
      </trkpt>
      <trkpt lat="44.25427" lon="0.27277">
        <ele>143.427231</ele>
        <time>2022-12-29T09:58:39.906Z</time>
      </trkpt>
      <trkpt lat="44.25426" lon="0.27294">
        <ele>143.162987</ele>
        <time>2022-12-29T09:58:42.869Z</time>
      </trkpt>
      <trkpt lat="44.25419" lon="0.27308">
        <ele>142.902921</ele>
        <time>2022-12-29T09:58:45.868Z</time>
      </trkpt>
      <trkpt lat="44.25411" lon="0.27317">
        <ele>143.021653</ele>
        <time>2022-12-29T09:58:48.867Z</time>
      </trkpt>
      <trkpt lat="44.25403" lon="0.27323">
        <ele>143.161721</ele>
        <time>2022-12-29T09:58:51.872Z</time>
      </trkpt>
      <trkpt lat="44.25397" lon="0.27333">
        <ele>143.300121</ele>
        <time>2022-12-29T09:58:54.870Z</time>
      </trkpt>
      <trkpt lat="44.2539" lon="0.27342">
        <ele>143.441446</ele>
        <time>2022-12-29T09:58:57.885Z</time>
      </trkpt>
      <trkpt lat="44.25384" lon="0.27351">
        <ele>143.586522</ele>
        <time>2022-12-29T09:59:01.876Z</time>
      </trkpt>
      <trkpt lat="44.25378" lon="0.27361">
        <ele>143.731254</ele>
        <time>2022-12-29T09:59:06.886Z</time>
      </trkpt>
      <trkpt lat="44.25374" lon="0.27374">
        <ele>143.883925</ele>
        <time>2022-12-29T09:59:11.872Z</time>
      </trkpt>
      <trkpt lat="44.25372" lon="0.27388">
        <ele>144.043827</ele>
        <time>2022-12-29T09:59:16.894Z</time>
      </trkpt>
      <trkpt lat="44.2537" lon="0.27403">
        <ele>144.212612</ele>
        <time>2022-12-29T09:59:21.896Z</time>
      </trkpt>
      <trkpt lat="44.25367" lon="0.27415">
        <ele>144.355798</ele>
        <time>2022-12-29T09:59:26.870Z</time>
      </trkpt>
      <trkpt lat="44.25363" lon="0.27429">
        <ele>144.524106</ele>
        <time>2022-12-29T09:59:31.875Z</time>
      </trkpt>
      <trkpt lat="44.25356" lon="0.27439">
        <ele>144.666218</ele>
        <time>2022-12-29T09:59:35.873Z</time>
      </trkpt>
      <trkpt lat="44.25348" lon="0.27449">
        <ele>144.839541</ele>
        <time>2022-12-29T09:59:39.871Z</time>
      </trkpt>
      <trkpt lat="44.2534" lon="0.2746">
        <ele>145.018513</ele>
        <time>2022-12-29T09:59:43.890Z</time>
      </trkpt>
      <trkpt lat="44.25334" lon="0.27471">
        <ele>145.168867</ele>
        <time>2022-12-29T09:59:46.868Z</time>
      </trkpt>
      <trkpt lat="44.2533" lon="0.27483">
        <ele>145.317841</ele>
        <time>2022-12-29T09:59:49.870Z</time>
      </trkpt>
      <trkpt lat="44.25329" lon="0.27499">
        <ele>145.49059</ele>
        <time>2022-12-29T09:59:52.874Z</time>
      </trkpt>
      <trkpt lat="44.2533" lon="0.27517">
        <ele>145.508068</ele>
        <time>2022-12-29T09:59:55.872Z</time>
      </trkpt>
      <trkpt lat="44.25331" lon="0.27531">
        <ele>144.901597</ele>
        <time>2022-12-29T09:59:57.888Z</time>
      </trkpt>
      <trkpt lat="44.25333" lon="0.27544">
        <ele>144.309676</ele>
        <time>2022-12-29T09:59:59.896Z</time>
      </trkpt>
      <trkpt lat="44.25335" lon="0.27557">
        <ele>143.744593</ele>
        <time>2022-12-29T10:00:01.889Z</time>
      </trkpt>
      <trkpt lat="44.25337" lon="0.2757">
        <ele>143.151173</ele>
        <time>2022-12-29T10:00:03.899Z</time>
      </trkpt>
      <trkpt lat="44.25339" lon="0.27583">
        <ele>142.593059</ele>
        <time>2022-12-29T10:00:05.887Z</time>
      </trkpt>
      <trkpt lat="44.25341" lon="0.27596">
        <ele>142.009445</ele>
        <time>2022-12-29T10:00:07.877Z</time>
      </trkpt>
      <trkpt lat="44.25343" lon="0.2761">
        <ele>141.387424</ele>
        <time>2022-12-29T10:00:09.876Z</time>
      </trkpt>
      <trkpt lat="44.25345" lon="0.27623">
        <ele>140.80381</ele>
        <time>2022-12-29T10:00:11.900Z</time>
      </trkpt>
      <trkpt lat="44.25347" lon="0.27635">
        <ele>140.247033</ele>
        <time>2022-12-29T10:00:13.889Z</time>
      </trkpt>
      <trkpt lat="44.25349" lon="0.27648">
        <ele>139.690256</ele>
        <time>2022-12-29T10:00:15.895Z</time>
      </trkpt>
      <trkpt lat="44.25351" lon="0.2766">
        <ele>139.138982</ele>
        <time>2022-12-29T10:00:17.888Z</time>
      </trkpt>
      <trkpt lat="44.25354" lon="0.27674">
        <ele>138.52298</ele>
        <time>2022-12-29T10:00:19.895Z</time>
      </trkpt>
      <trkpt lat="44.25355" lon="0.27688">
        <ele>137.906188</ele>
        <time>2022-12-29T10:00:21.895Z</time>
      </trkpt>
      <trkpt lat="44.25356" lon="0.27701">
        <ele>137.333388</ele>
        <time>2022-12-29T10:00:23.885Z</time>
      </trkpt>
      <trkpt lat="44.25358" lon="0.27714">
        <ele>136.757949</ele>
        <time>2022-12-29T10:00:25.897Z</time>
      </trkpt>
      <trkpt lat="44.2536" lon="0.27733">
        <ele>135.94705</ele>
        <time>2022-12-29T10:00:28.890Z</time>
      </trkpt>
      <trkpt lat="44.25362" lon="0.27746">
        <ele>135.356132</ele>
        <time>2022-12-29T10:00:30.890Z</time>
      </trkpt>
      <trkpt lat="44.25363" lon="0.2776">
        <ele>134.719216</ele>
        <time>2022-12-29T10:00:32.887Z</time>
      </trkpt>
      <trkpt lat="44.25365" lon="0.27775">
        <ele>134.46499</ele>
        <time>2022-12-29T10:00:34.877Z</time>
      </trkpt>
      <trkpt lat="44.25365" lon="0.27788">
        <ele>134.228048</ele>
        <time>2022-12-29T10:00:36.899Z</time>
      </trkpt>
      <trkpt lat="44.25367" lon="0.27801">
        <ele>134.004218</ele>
        <time>2022-12-29T10:00:38.891Z</time>
      </trkpt>
      <trkpt lat="44.25369" lon="0.27817">
        <ele>133.710381</ele>
        <time>2022-12-29T10:00:41.890Z</time>
      </trkpt>
      <trkpt lat="44.25365" lon="0.27834">
        <ele>133.407976</ele>
        <time>2022-12-29T10:00:44.869Z</time>
      </trkpt>
      <trkpt lat="44.25358" lon="0.27849">
        <ele>133.09115</ele>
        <time>2022-12-29T10:00:47.874Z</time>
      </trkpt>
      <trkpt lat="44.2535" lon="0.27861">
        <ele>132.803498</ele>
        <time>2022-12-29T10:00:50.869Z</time>
      </trkpt>
      <trkpt lat="44.25343" lon="0.27874">
        <ele>132.524996</ele>
        <time>2022-12-29T10:00:53.895Z</time>
      </trkpt>
      <trkpt lat="44.25338" lon="0.27889">
        <ele>132.227837</ele>
        <time>2022-12-29T10:00:56.888Z</time>
      </trkpt>
      <trkpt lat="44.25332" lon="0.27906">
        <ele>131.909273</ele>
        <time>2022-12-29T10:00:59.869Z</time>
      </trkpt>
      <trkpt lat="44.25328" lon="0.27923">
        <ele>131.587501</ele>
        <time>2022-12-29T10:01:02.888Z</time>
      </trkpt>
      <trkpt lat="44.25326" lon="0.27936">
        <ele>131.354393</ele>
        <time>2022-12-29T10:01:04.886Z</time>
      </trkpt>
      <trkpt lat="44.25324" lon="0.27951">
        <ele>131.089733</ele>
        <time>2022-12-29T10:01:06.887Z</time>
      </trkpt>
      <trkpt lat="44.25321" lon="0.27964">
        <ele>130.854866</ele>
        <time>2022-12-29T10:01:08.874Z</time>
      </trkpt>
      <trkpt lat="44.2532" lon="0.27977">
        <ele>130.624636</ele>
        <time>2022-12-29T10:01:10.887Z</time>
      </trkpt>
      <trkpt lat="44.25319" lon="0.27996">
        <ele>130.254148</ele>
        <time>2022-12-29T10:01:13.898Z</time>
      </trkpt>
      <trkpt lat="44.25318" lon="0.28011">
        <ele>129.77482</ele>
        <time>2022-12-29T10:01:15.890Z</time>
      </trkpt>
      <trkpt lat="44.25316" lon="0.28025">
        <ele>129.280065</ele>
        <time>2022-12-29T10:01:17.887Z</time>
      </trkpt>
      <trkpt lat="44.25314" lon="0.28042">
        <ele>128.73986</ele>
        <time>2022-12-29T10:01:19.887Z</time>
      </trkpt>
      <trkpt lat="44.25313" lon="0.28058">
        <ele>128.2062</ele>
        <time>2022-12-29T10:01:21.886Z</time>
      </trkpt>
      <trkpt lat="44.25311" lon="0.28074">
        <ele>127.653753</ele>
        <time>2022-12-29T10:01:23.896Z</time>
      </trkpt>
      <trkpt lat="44.25308" lon="0.28089">
        <ele>127.136157</ele>
        <time>2022-12-29T10:01:25.885Z</time>
      </trkpt>
      <trkpt lat="44.25306" lon="0.28105">
        <ele>126.617919</ele>
        <time>2022-12-29T10:01:27.886Z</time>
      </trkpt>
      <trkpt lat="44.25305" lon="0.2812">
        <ele>126.122614</ele>
        <time>2022-12-29T10:01:29.892Z</time>
      </trkpt>
      <trkpt lat="44.25304" lon="0.28134">
        <ele>125.652121</ele>
        <time>2022-12-29T10:01:31.895Z</time>
      </trkpt>
      <trkpt lat="44.25303" lon="0.28148">
        <ele>125.188687</ele>
        <time>2022-12-29T10:01:33.896Z</time>
      </trkpt>
      <trkpt lat="44.25302" lon="0.28161">
        <ele>124.773981</ele>
        <time>2022-12-29T10:01:35.884Z</time>
      </trkpt>
      <trkpt lat="44.25301" lon="0.28174">
        <ele>124.337451</ele>
        <time>2022-12-29T10:01:37.876Z</time>
      </trkpt>
      <trkpt lat="44.25301" lon="0.28191">
        <ele>123.78457</ele>
        <time>2022-12-29T10:01:40.894Z</time>
      </trkpt>
      <trkpt lat="44.25301" lon="0.28207">
        <ele>123.244907</ele>
        <time>2022-12-29T10:01:43.886Z</time>
      </trkpt>
      <trkpt lat="44.25301" lon="0.28224">
        <ele>122.685501</ele>
        <time>2022-12-29T10:01:46.889Z</time>
      </trkpt>
      <trkpt lat="44.253" lon="0.28243">
        <ele>122.07056</ele>
        <time>2022-12-29T10:01:49.889Z</time>
      </trkpt>
      <trkpt lat="44.253" lon="0.28256">
        <ele>121.690947</ele>
        <time>2022-12-29T10:01:51.894Z</time>
      </trkpt>
      <trkpt lat="44.25298" lon="0.2827">
        <ele>121.292963</ele>
        <time>2022-12-29T10:01:53.876Z</time>
      </trkpt>
      <trkpt lat="44.25297" lon="0.28284">
        <ele>120.872587</ele>
        <time>2022-12-29T10:01:55.888Z</time>
      </trkpt>
      <trkpt lat="44.25296" lon="0.28298">
        <ele>120.478033</ele>
        <time>2022-12-29T10:01:57.888Z</time>
      </trkpt>
      <trkpt lat="44.25295" lon="0.28312">
        <ele>120.083537</ele>
        <time>2022-12-29T10:01:59.884Z</time>
      </trkpt>
      <trkpt lat="44.25294" lon="0.28327">
        <ele>119.642942</ele>
        <time>2022-12-29T10:02:01.894Z</time>
      </trkpt>
      <trkpt lat="44.25293" lon="0.28342">
        <ele>119.212162</ele>
        <time>2022-12-29T10:02:03.886Z</time>
      </trkpt>
      <trkpt lat="44.25294" lon="0.28357">
        <ele>118.786117</ele>
        <time>2022-12-29T10:02:05.893Z</time>
      </trkpt>
      <trkpt lat="44.25295" lon="0.28372">
        <ele>118.358622</ele>
        <time>2022-12-29T10:02:07.872Z</time>
      </trkpt>
      <trkpt lat="44.25296" lon="0.28385">
        <ele>117.991607</ele>
        <time>2022-12-29T10:02:09.888Z</time>
      </trkpt>
      <trkpt lat="44.25297" lon="0.28398">
        <ele>117.62582</ele>
        <time>2022-12-29T10:02:11.884Z</time>
      </trkpt>
      <trkpt lat="44.25298" lon="0.2841">
        <ele>117.266777</ele>
        <time>2022-12-29T10:02:13.888Z</time>
      </trkpt>
      <trkpt lat="44.25299" lon="0.28424">
        <ele>116.886891</ele>
        <time>2022-12-29T10:02:15.892Z</time>
      </trkpt>
      <trkpt lat="44.25301" lon="0.28438">
        <ele>116.47826</ele>
        <time>2022-12-29T10:02:17.887Z</time>
      </trkpt>
      <trkpt lat="44.25302" lon="0.28452">
        <ele>116.071843</ele>
        <time>2022-12-29T10:02:19.887Z</time>
      </trkpt>
      <trkpt lat="44.25304" lon="0.28465">
        <ele>115.691956</ele>
        <time>2022-12-29T10:02:21.894Z</time>
      </trkpt>
      <trkpt lat="44.25305" lon="0.28482">
        <ele>115.217705</ele>
        <time>2022-12-29T10:02:24.894Z</time>
      </trkpt>
      <trkpt lat="44.25303" lon="0.28498">
        <ele>114.742944</ele>
        <time>2022-12-29T10:02:27.871Z</time>
      </trkpt>
      <trkpt lat="44.25297" lon="0.2851">
        <ele>114.326316</ele>
        <time>2022-12-29T10:02:29.870Z</time>
      </trkpt>
      <trkpt lat="44.2529" lon="0.28519">
        <ele>113.957868</ele>
        <time>2022-12-29T10:02:31.871Z</time>
      </trkpt>
      <trkpt lat="44.25281" lon="0.28525">
        <ele>113.566097</ele>
        <time>2022-12-29T10:02:33.880Z</time>
      </trkpt>
      <trkpt lat="44.25273" lon="0.28532">
        <ele>113.203757</ele>
        <time>2022-12-29T10:02:35.891Z</time>
      </trkpt>
      <trkpt lat="44.25265" lon="0.28539">
        <ele>112.805125</ele>
        <time>2022-12-29T10:02:38.881Z</time>
      </trkpt>
      <trkpt lat="44.25256" lon="0.28548">
        <ele>112.387149</ele>
        <time>2022-12-29T10:02:41.897Z</time>
      </trkpt>
      <trkpt lat="44.25246" lon="0.28558">
        <ele>111.900966</ele>
        <time>2022-12-29T10:02:44.891Z</time>
      </trkpt>
      <trkpt lat="44.25236" lon="0.2857">
        <ele>111.388435</ele>
        <time>2022-12-29T10:02:47.897Z</time>
      </trkpt>
      <trkpt lat="44.25228" lon="0.28582">
        <ele>110.897877</ele>
        <time>2022-12-29T10:02:50.887Z</time>
      </trkpt>
      <trkpt lat="44.25219" lon="0.28596">
        <ele>110.378017</ele>
        <time>2022-12-29T10:02:53.895Z</time>
      </trkpt>
      <trkpt lat="44.25211" lon="0.2861">
        <ele>109.872705</ele>
        <time>2022-12-29T10:02:56.901Z</time>
      </trkpt>
      <trkpt lat="44.25204" lon="0.28626">
        <ele>109.353422</ele>
        <time>2022-12-29T10:02:59.868Z</time>
      </trkpt>
      <trkpt lat="44.252" lon="0.28637">
        <ele>108.987308</ele>
        <time>2022-12-29T10:03:01.883Z</time>
      </trkpt>
      <trkpt lat="44.25196" lon="0.28649">
        <ele>108.629945</ele>
        <time>2022-12-29T10:03:03.868Z</time>
      </trkpt>
      <trkpt lat="44.25193" lon="0.28661">
        <ele>108.267531</ele>
        <time>2022-12-29T10:03:05.876Z</time>
      </trkpt>
      <trkpt lat="44.25191" lon="0.28673">
        <ele>107.910544</ele>
        <time>2022-12-29T10:03:07.874Z</time>
      </trkpt>
      <trkpt lat="44.25189" lon="0.28686">
        <ele>107.486682</ele>
        <time>2022-12-29T10:03:09.888Z</time>
      </trkpt>
      <trkpt lat="44.25188" lon="0.28704">
        <ele>106.824795</ele>
        <time>2022-12-29T10:03:12.883Z</time>
      </trkpt>
      <trkpt lat="44.25186" lon="0.28722">
        <ele>106.188413</ele>
        <time>2022-12-29T10:03:15.893Z</time>
      </trkpt>
      <trkpt lat="44.25183" lon="0.28739">
        <ele>105.542559</ele>
        <time>2022-12-29T10:03:18.891Z</time>
      </trkpt>
      <trkpt lat="44.25178" lon="0.28756">
        <ele>104.889578</ele>
        <time>2022-12-29T10:03:21.871Z</time>
      </trkpt>
      <trkpt lat="44.25173" lon="0.28772">
        <ele>104.268258</ele>
        <time>2022-12-29T10:03:24.870Z</time>
      </trkpt>
      <trkpt lat="44.25165" lon="0.28786">
        <ele>103.651451</ele>
        <time>2022-12-29T10:03:27.875Z</time>
      </trkpt>
      <trkpt lat="44.25157" lon="0.288">
        <ele>102.992946</ele>
        <time>2022-12-29T10:03:30.894Z</time>
      </trkpt>
      <trkpt lat="44.25147" lon="0.28813">
        <ele>102.335208</ele>
        <time>2022-12-29T10:03:33.898Z</time>
      </trkpt>
      <trkpt lat="44.25139" lon="0.2882">
        <ele>101.858152</ele>
        <time>2022-12-29T10:03:35.869Z</time>
      </trkpt>
      <trkpt lat="44.25131" lon="0.28827">
        <ele>101.389401</ele>
        <time>2022-12-29T10:03:37.874Z</time>
      </trkpt>
      <trkpt lat="44.25123" lon="0.28832">
        <ele>100.940207</ele>
        <time>2022-12-29T10:03:39.868Z</time>
      </trkpt>
      <trkpt lat="44.25112" lon="0.28837">
        <ele>100.377143</ele>
        <time>2022-12-29T10:03:42.875Z</time>
      </trkpt>
      <trkpt lat="44.25103" lon="0.2884">
        <ele>99.897002</ele>
        <time>2022-12-29T10:03:45.896Z</time>
      </trkpt>
      <trkpt lat="44.25096" lon="0.28841">
        <ele>99.536948</ele>
        <time>2022-12-29T10:04:04.434Z</time>
      </trkpt>
      <trkpt lat="44.25092" lon="0.28855">
        <ele>98.985442</ele>
        <time>2022-12-29T10:05:47.905Z</time>
      </trkpt>
      <trkpt lat="44.25097" lon="0.2887">
        <ele>98.728768</ele>
        <time>2022-12-29T10:05:52.875Z</time>
      </trkpt>
      <trkpt lat="44.25101" lon="0.28881">
        <ele>98.595673</ele>
        <time>2022-12-29T10:05:55.873Z</time>
      </trkpt>
      <trkpt lat="44.25106" lon="0.28893">
        <ele>98.447357</ele>
        <time>2022-12-29T10:05:58.872Z</time>
      </trkpt>
      <trkpt lat="44.25112" lon="0.28905">
        <ele>98.292703</ele>
        <time>2022-12-29T10:06:01.869Z</time>
      </trkpt>
      <trkpt lat="44.25118" lon="0.28917">
        <ele>98.136652</ele>
        <time>2022-12-29T10:06:04.876Z</time>
      </trkpt>
      <trkpt lat="44.25126" lon="0.2893">
        <ele>97.96068</ele>
        <time>2022-12-29T10:06:07.874Z</time>
      </trkpt>
      <trkpt lat="44.25135" lon="0.28943">
        <ele>97.765104</ele>
        <time>2022-12-29T10:06:10.868Z</time>
      </trkpt>
      <trkpt lat="44.25141" lon="0.28953">
        <ele>97.630973</ele>
        <time>2022-12-29T10:06:12.877Z</time>
      </trkpt>
      <trkpt lat="44.25149" lon="0.28966">
        <ele>97.438942</ele>
        <time>2022-12-29T10:06:15.881Z</time>
      </trkpt>
      <trkpt lat="44.25157" lon="0.28981">
        <ele>97.243958</ele>
        <time>2022-12-29T10:06:18.889Z</time>
      </trkpt>
      <trkpt lat="44.25165" lon="0.28995">
        <ele>97.055886</ele>
        <time>2022-12-29T10:06:21.892Z</time>
      </trkpt>
      <trkpt lat="44.25173" lon="0.2901">
        <ele>96.861061</ele>
        <time>2022-12-29T10:06:24.871Z</time>
      </trkpt>
      <trkpt lat="44.2518" lon="0.29025">
        <ele>96.671389</ele>
        <time>2022-12-29T10:06:27.876Z</time>
      </trkpt>
      <trkpt lat="44.25185" lon="0.29039">
        <ele>96.501051</ele>
        <time>2022-12-29T10:06:30.879Z</time>
      </trkpt>
      <trkpt lat="44.2519" lon="0.29055">
        <ele>96.320755</ele>
        <time>2022-12-29T10:06:33.890Z</time>
      </trkpt>
      <trkpt lat="44.25193" lon="0.29071">
        <ele>96.22277</ele>
        <time>2022-12-29T10:06:36.870Z</time>
      </trkpt>
      <trkpt lat="44.25198" lon="0.29088">
        <ele>96.280622</ele>
        <time>2022-12-29T10:06:39.884Z</time>
      </trkpt>
      <trkpt lat="44.25201" lon="0.291">
        <ele>96.32068</ele>
        <time>2022-12-29T10:06:41.886Z</time>
      </trkpt>
      <trkpt lat="44.25207" lon="0.29117">
        <ele>96.380548</ele>
        <time>2022-12-29T10:06:44.870Z</time>
      </trkpt>
      <trkpt lat="44.25212" lon="0.29133">
        <ele>96.435834</ele>
        <time>2022-12-29T10:06:47.873Z</time>
      </trkpt>
      <trkpt lat="44.25218" lon="0.29147">
        <ele>96.488398</ele>
        <time>2022-12-29T10:06:50.873Z</time>
      </trkpt>
      <trkpt lat="44.25226" lon="0.2916">
        <ele>96.540427</ele>
        <time>2022-12-29T10:06:53.891Z</time>
      </trkpt>
      <trkpt lat="44.25234" lon="0.29172">
        <ele>96.592388</ele>
        <time>2022-12-29T10:06:56.873Z</time>
      </trkpt>
      <trkpt lat="44.25242" lon="0.29184">
        <ele>96.645687</ele>
        <time>2022-12-29T10:06:59.872Z</time>
      </trkpt>
      <trkpt lat="44.2525" lon="0.29196">
        <ele>96.697198</ele>
        <time>2022-12-29T10:07:02.880Z</time>
      </trkpt>
      <trkpt lat="44.25258" lon="0.29207">
        <ele>96.747523</ele>
        <time>2022-12-29T10:07:05.899Z</time>
      </trkpt>
      <trkpt lat="44.25266" lon="0.29219">
        <ele>96.798012</ele>
        <time>2022-12-29T10:07:08.877Z</time>
      </trkpt>
      <trkpt lat="44.25274" lon="0.29232">
        <ele>96.851033</ele>
        <time>2022-12-29T10:07:11.883Z</time>
      </trkpt>
      <trkpt lat="44.25282" lon="0.29246">
        <ele>96.909851</ele>
        <time>2022-12-29T10:07:14.884Z</time>
      </trkpt>
      <trkpt lat="44.25288" lon="0.29256">
        <ele>96.950227</ele>
        <time>2022-12-29T10:07:16.874Z</time>
      </trkpt>
      <trkpt lat="44.25295" lon="0.29272">
        <ele>97.008461</ele>
        <time>2022-12-29T10:07:19.877Z</time>
      </trkpt>
      <trkpt lat="44.25301" lon="0.29281">
        <ele>97.05209</ele>
        <time>2022-12-29T10:07:21.892Z</time>
      </trkpt>
      <trkpt lat="44.25308" lon="0.29295">
        <ele>97.111612</ele>
        <time>2022-12-29T10:07:24.882Z</time>
      </trkpt>
      <trkpt lat="44.25316" lon="0.29309">
        <ele>97.170016</ele>
        <time>2022-12-29T10:07:27.874Z</time>
      </trkpt>
      <trkpt lat="44.25323" lon="0.29323">
        <ele>97.230372</ele>
        <time>2022-12-29T10:07:30.879Z</time>
      </trkpt>
      <trkpt lat="44.25331" lon="0.29335">
        <ele>97.287603</ele>
        <time>2022-12-29T10:07:33.888Z</time>
      </trkpt>
      <trkpt lat="44.2534" lon="0.29348">
        <ele>97.347755</ele>
        <time>2022-12-29T10:07:36.875Z</time>
      </trkpt>
      <trkpt lat="44.25349" lon="0.29359">
        <ele>97.408032</ele>
        <time>2022-12-29T10:07:39.867Z</time>
      </trkpt>
      <trkpt lat="44.2536" lon="0.2937">
        <ele>97.470106</ele>
        <time>2022-12-29T10:07:42.874Z</time>
      </trkpt>
      <trkpt lat="44.2537" lon="0.29379">
        <ele>97.528851</ele>
        <time>2022-12-29T10:07:45.884Z</time>
      </trkpt>
      <trkpt lat="44.25381" lon="0.29386">
        <ele>97.584855</ele>
        <time>2022-12-29T10:07:48.869Z</time>
      </trkpt>
      <trkpt lat="44.25391" lon="0.29393">
        <ele>97.639172</ele>
        <time>2022-12-29T10:07:51.871Z</time>
      </trkpt>
      <trkpt lat="44.25402" lon="0.29396">
        <ele>97.691527</ele>
        <time>2022-12-29T10:07:54.867Z</time>
      </trkpt>
      <trkpt lat="44.25412" lon="0.29401">
        <ele>97.742259</ele>
        <time>2022-12-29T10:07:58.875Z</time>
      </trkpt>
      <trkpt lat="44.25421" lon="0.29405">
        <ele>97.7859</ele>
        <time>2022-12-29T10:08:00.873Z</time>
      </trkpt>
      <trkpt lat="44.2543" lon="0.29402">
        <ele>97.833504</ele>
        <time>2022-12-29T10:08:01.868Z</time>
      </trkpt>
      <trkpt lat="44.25441" lon="0.29406">
        <ele>97.833314</ele>
        <time>2022-12-29T10:08:03.878Z</time>
      </trkpt>
      <trkpt lat="44.2545" lon="0.29409">
        <ele>97.798243</ele>
        <time>2022-12-29T10:08:05.883Z</time>
      </trkpt>
      <trkpt lat="44.25464" lon="0.29412">
        <ele>97.745548</ele>
        <time>2022-12-29T10:08:08.907Z</time>
      </trkpt>
      <trkpt lat="44.25476" lon="0.29416">
        <ele>97.69737</ele>
        <time>2022-12-29T10:08:11.870Z</time>
      </trkpt>
      <trkpt lat="44.25485" lon="0.29418">
        <ele>97.661443</ele>
        <time>2022-12-29T10:08:13.867Z</time>
      </trkpt>
      <trkpt lat="44.25499" lon="0.2942">
        <ele>97.61155</ele>
        <time>2022-12-29T10:08:16.881Z</time>
      </trkpt>
      <trkpt lat="44.25511" lon="0.29423">
        <ele>97.563008</ele>
        <time>2022-12-29T10:08:19.878Z</time>
      </trkpt>
      <trkpt lat="44.25523" lon="0.29426">
        <ele>97.515584</ele>
        <time>2022-12-29T10:08:22.891Z</time>
      </trkpt>
      <trkpt lat="44.25535" lon="0.29429">
        <ele>97.470767</ele>
        <time>2022-12-29T10:08:25.882Z</time>
      </trkpt>
      <trkpt lat="44.25546" lon="0.29432">
        <ele>97.427489</ele>
        <time>2022-12-29T10:08:28.882Z</time>
      </trkpt>
      <trkpt lat="44.25557" lon="0.29436">
        <ele>97.387493</ele>
        <time>2022-12-29T10:08:31.874Z</time>
      </trkpt>
      <trkpt lat="44.25566" lon="0.29438">
        <ele>97.351695</ele>
        <time>2022-12-29T10:08:34.881Z</time>
      </trkpt>
      <trkpt lat="44.25575" lon="0.29441">
        <ele>97.316685</ele>
        <time>2022-12-29T10:08:38.880Z</time>
      </trkpt>
      <trkpt lat="44.25584" lon="0.29445">
        <ele>97.280396</ele>
        <time>2022-12-29T10:08:56.879Z</time>
      </trkpt>
      <trkpt lat="44.25594" lon="0.29442">
        <ele>97.242636</ele>
        <time>2022-12-29T10:09:01.875Z</time>
      </trkpt>
      <trkpt lat="44.25602" lon="0.29449">
        <ele>97.205771</ele>
        <time>2022-12-29T10:09:05.886Z</time>
      </trkpt>
      <trkpt lat="44.25612" lon="0.29458">
        <ele>97.220028</ele>
        <time>2022-12-29T10:09:09.876Z</time>
      </trkpt>
      <trkpt lat="44.25621" lon="0.29465">
        <ele>97.32738</ele>
        <time>2022-12-29T10:09:12.870Z</time>
      </trkpt>
      <trkpt lat="44.2563" lon="0.29471">
        <ele>97.443512</ele>
        <time>2022-12-29T10:09:15.882Z</time>
      </trkpt>
      <trkpt lat="44.25639" lon="0.29479">
        <ele>97.567098</ele>
        <time>2022-12-29T10:09:18.872Z</time>
      </trkpt>
      <trkpt lat="44.25649" lon="0.29486">
        <ele>97.691356</ele>
        <time>2022-12-29T10:09:21.881Z</time>
      </trkpt>
      <trkpt lat="44.25658" lon="0.29493">
        <ele>97.809046</ele>
        <time>2022-12-29T10:09:24.871Z</time>
      </trkpt>
      <trkpt lat="44.25667" lon="0.295">
        <ele>97.929707</ele>
        <time>2022-12-29T10:09:27.880Z</time>
      </trkpt>
      <trkpt lat="44.25675" lon="0.29506">
        <ele>98.036038</ele>
        <time>2022-12-29T10:09:30.874Z</time>
      </trkpt>
      <trkpt lat="44.25683" lon="0.29512">
        <ele>98.138788</ele>
        <time>2022-12-29T10:09:33.873Z</time>
      </trkpt>
      <trkpt lat="44.25691" lon="0.29519">
        <ele>98.249505</ele>
        <time>2022-12-29T10:09:36.880Z</time>
      </trkpt>
      <trkpt lat="44.257" lon="0.29526">
        <ele>98.359236</ele>
        <time>2022-12-29T10:09:39.886Z</time>
      </trkpt>
      <trkpt lat="44.25709" lon="0.29532">
        <ele>98.47644</ele>
        <time>2022-12-29T10:09:42.885Z</time>
      </trkpt>
      <trkpt lat="44.25718" lon="0.29539">
        <ele>98.590732</ele>
        <time>2022-12-29T10:09:45.880Z</time>
      </trkpt>
      <trkpt lat="44.25726" lon="0.29546">
        <ele>98.699706</ele>
        <time>2022-12-29T10:09:48.873Z</time>
      </trkpt>
      <trkpt lat="44.25733" lon="0.29554">
        <ele>98.807218</ele>
        <time>2022-12-29T10:09:51.873Z</time>
      </trkpt>
      <trkpt lat="44.25739" lon="0.29564">
        <ele>98.911375</ele>
        <time>2022-12-29T10:09:54.885Z</time>
      </trkpt>
      <trkpt lat="44.25745" lon="0.29574">
        <ele>99.019086</ele>
        <time>2022-12-29T10:09:57.891Z</time>
      </trkpt>
      <trkpt lat="44.2575" lon="0.29586">
        <ele>99.129201</ele>
        <time>2022-12-29T10:10:00.873Z</time>
      </trkpt>
      <trkpt lat="44.25754" lon="0.29598">
        <ele>99.204487</ele>
        <time>2022-12-29T10:10:03.877Z</time>
      </trkpt>
      <trkpt lat="44.25758" lon="0.29611">
        <ele>99.066708</ele>
        <time>2022-12-29T10:10:06.875Z</time>
      </trkpt>
      <trkpt lat="44.25762" lon="0.29625">
        <ele>98.923936</ele>
        <time>2022-12-29T10:10:09.884Z</time>
      </trkpt>
      <trkpt lat="44.25766" lon="0.29638">
        <ele>98.777273</ele>
        <time>2022-12-29T10:10:12.877Z</time>
      </trkpt>
      <trkpt lat="44.25771" lon="0.29652">
        <ele>98.624761</ele>
        <time>2022-12-29T10:10:15.881Z</time>
      </trkpt>
      <trkpt lat="44.25776" lon="0.29667">
        <ele>98.466976</ele>
        <time>2022-12-29T10:10:18.869Z</time>
      </trkpt>
      <trkpt lat="44.2578" lon="0.29682">
        <ele>98.29745</ele>
        <time>2022-12-29T10:10:21.865Z</time>
      </trkpt>
      <trkpt lat="44.25785" lon="0.29699">
        <ele>98.120758</ele>
        <time>2022-12-29T10:10:24.881Z</time>
      </trkpt>
      <trkpt lat="44.2579" lon="0.29717">
        <ele>97.934525</ele>
        <time>2022-12-29T10:10:27.879Z</time>
      </trkpt>
      <trkpt lat="44.25793" lon="0.29729">
        <ele>97.802874</ele>
        <time>2022-12-29T10:10:29.885Z</time>
      </trkpt>
      <trkpt lat="44.25797" lon="0.29741">
        <ele>97.674891</ele>
        <time>2022-12-29T10:10:31.871Z</time>
      </trkpt>
      <trkpt lat="44.25801" lon="0.29754">
        <ele>97.539977</ele>
        <time>2022-12-29T10:10:33.877Z</time>
      </trkpt>
      <trkpt lat="44.25804" lon="0.29766">
        <ele>97.405845</ele>
        <time>2022-12-29T10:10:35.882Z</time>
      </trkpt>
      <trkpt lat="44.25809" lon="0.29779">
        <ele>97.269154</ele>
        <time>2022-12-29T10:10:37.886Z</time>
      </trkpt>
      <trkpt lat="44.25812" lon="0.29791">
        <ele>97.138003</ele>
        <time>2022-12-29T10:10:39.881Z</time>
      </trkpt>
      <trkpt lat="44.25815" lon="0.29804">
        <ele>97.005485</ele>
        <time>2022-12-29T10:10:41.892Z</time>
      </trkpt>
      <trkpt lat="44.25818" lon="0.29816">
        <ele>96.880515</ele>
        <time>2022-12-29T10:10:43.881Z</time>
      </trkpt>
      <trkpt lat="44.25822" lon="0.29832">
        <ele>96.677202</ele>
        <time>2022-12-29T10:10:46.872Z</time>
      </trkpt>
      <trkpt lat="44.25824" lon="0.29846">
        <ele>96.34801</ele>
        <time>2022-12-29T10:10:49.878Z</time>
      </trkpt>
      <trkpt lat="44.25825" lon="0.2986">
        <ele>96.040155</ele>
        <time>2022-12-29T10:10:52.875Z</time>
      </trkpt>
      <trkpt lat="44.25825" lon="0.29875">
        <ele>95.719197</ele>
        <time>2022-12-29T10:10:55.874Z</time>
      </trkpt>
      <trkpt lat="44.25826" lon="0.2989">
        <ele>95.393516</ele>
        <time>2022-12-29T10:10:58.874Z</time>
      </trkpt>
      <trkpt lat="44.25827" lon="0.29903">
        <ele>95.105872</ele>
        <time>2022-12-29T10:11:01.937Z</time>
      </trkpt>
      <trkpt lat="44.25827" lon="0.29918">
        <ele>94.780319</ele>
        <time>2022-12-29T10:11:04.871Z</time>
      </trkpt>
      <trkpt lat="44.25828" lon="0.29931">
        <ele>94.498514</ele>
        <time>2022-12-29T10:11:07.872Z</time>
      </trkpt>
      <trkpt lat="44.25828" lon="0.29944">
        <ele>94.216841</ele>
        <time>2022-12-29T10:11:11.890Z</time>
      </trkpt>
      <trkpt lat="44.25828" lon="0.29959">
        <ele>93.895883</ele>
        <time>2022-12-29T10:11:16.872Z</time>
      </trkpt>
      <trkpt lat="44.25826" lon="0.29968">
        <ele>93.692001</ele>
        <time>2022-12-29T10:13:25.870Z</time>
      </trkpt>
      <trkpt lat="44.25829" lon="0.29981">
        <ele>93.394711</ele>
        <time>2022-12-29T10:16:59.877Z</time>
      </trkpt>
      <trkpt lat="44.25829" lon="0.29994">
        <ele>93.099954</ele>
        <time>2022-12-29T10:17:03.876Z</time>
      </trkpt>
      <trkpt lat="44.2583" lon="0.3001">
        <ele>92.74466</ele>
        <time>2022-12-29T10:17:07.877Z</time>
      </trkpt>
      <trkpt lat="44.2583" lon="0.30025">
        <ele>92.425754</ele>
        <time>2022-12-29T10:17:10.891Z</time>
      </trkpt>
      <trkpt lat="44.25831" lon="0.3004">
        <ele>92.086658</ele>
        <time>2022-12-29T10:17:13.892Z</time>
      </trkpt>
      <trkpt lat="44.2583" lon="0.30055">
        <ele>91.767519</ele>
        <time>2022-12-29T10:17:16.878Z</time>
      </trkpt>
      <trkpt lat="44.2583" lon="0.30069">
        <ele>91.466212</ele>
        <time>2022-12-29T10:17:19.880Z</time>
      </trkpt>
      <trkpt lat="44.2583" lon="0.30085">
        <ele>91.165639</ele>
        <time>2022-12-29T10:17:23.891Z</time>
      </trkpt>
      <trkpt lat="44.2583" lon="0.30102">
        <ele>90.931651</ele>
        <time>2022-12-29T10:17:27.892Z</time>
      </trkpt>
      <trkpt lat="44.2583" lon="0.30118">
        <ele>90.717067</ele>
        <time>2022-12-29T10:17:30.898Z</time>
      </trkpt>
      <trkpt lat="44.25831" lon="0.30134">
        <ele>90.493775</ele>
        <time>2022-12-29T10:17:33.880Z</time>
      </trkpt>
      <trkpt lat="44.25831" lon="0.3015">
        <ele>90.272202</ele>
        <time>2022-12-29T10:17:36.874Z</time>
      </trkpt>
      <trkpt lat="44.25831" lon="0.30164">
        <ele>90.067281</ele>
        <time>2022-12-29T10:17:39.895Z</time>
      </trkpt>
      <trkpt lat="44.25832" lon="0.30178">
        <ele>89.873124</ele>
        <time>2022-12-29T10:17:42.883Z</time>
      </trkpt>
      <trkpt lat="44.25831" lon="0.30192">
        <ele>89.687258</ele>
        <time>2022-12-29T10:17:45.892Z</time>
      </trkpt>
      <trkpt lat="44.25832" lon="0.30206">
        <ele>89.495426</ele>
        <time>2022-12-29T10:17:48.895Z</time>
      </trkpt>
      <trkpt lat="44.25832" lon="0.3022">
        <ele>89.298762</ele>
        <time>2022-12-29T10:17:51.896Z</time>
      </trkpt>
      <trkpt lat="44.25832" lon="0.30236">
        <ele>89.081204</ele>
        <time>2022-12-29T10:17:54.883Z</time>
      </trkpt>
      <trkpt lat="44.25832" lon="0.3025">
        <ele>88.87631</ele>
        <time>2022-12-29T10:17:57.898Z</time>
      </trkpt>
      <trkpt lat="44.25831" lon="0.30263">
        <ele>88.700327</ele>
        <time>2022-12-29T10:18:00.897Z</time>
      </trkpt>
      <trkpt lat="44.25831" lon="0.30276">
        <ele>88.524248</ele>
        <time>2022-12-29T10:18:03.880Z</time>
      </trkpt>
      <trkpt lat="44.25829" lon="0.30289">
        <ele>88.334149</ele>
        <time>2022-12-29T10:18:07.895Z</time>
      </trkpt>
      <trkpt lat="44.2583" lon="0.30303">
        <ele>88.138801</ele>
        <time>2022-12-29T10:18:11.892Z</time>
      </trkpt>
      <trkpt lat="44.25834" lon="0.30319">
        <ele>87.910365</ele>
        <time>2022-12-29T10:18:15.877Z</time>
      </trkpt>
      <trkpt lat="44.25839" lon="0.30333">
        <ele>87.656188</ele>
        <time>2022-12-29T10:18:19.880Z</time>
      </trkpt>
      <trkpt lat="44.25843" lon="0.30347">
        <ele>87.397533</ele>
        <time>2022-12-29T10:18:24.892Z</time>
      </trkpt>
      <trkpt lat="44.25849" lon="0.30359">
        <ele>87.140299</ele>
        <time>2022-12-29T10:18:36.878Z</time>
      </trkpt>
      <trkpt lat="44.25855" lon="0.3037">
        <ele>86.880499</ele>
        <time>2022-12-29T10:18:42.876Z</time>
      </trkpt>
      <trkpt lat="44.25859" lon="0.30382">
        <ele>86.644457</ele>
        <time>2022-12-29T10:18:46.881Z</time>
      </trkpt>
      <trkpt lat="44.25852" lon="0.30392">
        <ele>86.38259</ele>
        <time>2022-12-29T10:18:50.891Z</time>
      </trkpt>
      <trkpt lat="44.25841" lon="0.30401">
        <ele>86.067932</ele>
        <time>2022-12-29T10:18:53.902Z</time>
      </trkpt>
      <trkpt lat="44.2583" lon="0.3041">
        <ele>85.747594</ele>
        <time>2022-12-29T10:18:56.888Z</time>
      </trkpt>
      <trkpt lat="44.25818" lon="0.30418">
        <ele>85.431176</ele>
        <time>2022-12-29T10:18:59.881Z</time>
      </trkpt>
      <trkpt lat="44.25807" lon="0.30426">
        <ele>85.107012</ele>
        <time>2022-12-29T10:19:02.877Z</time>
      </trkpt>
      <trkpt lat="44.25798" lon="0.30434">
        <ele>84.838461</ele>
        <time>2022-12-29T10:19:05.886Z</time>
      </trkpt>
      <trkpt lat="44.25789" lon="0.3044">
        <ele>84.59944</ele>
        <time>2022-12-29T10:19:08.877Z</time>
      </trkpt>
      <trkpt lat="44.2578" lon="0.30449">
        <ele>84.327029</ele>
        <time>2022-12-29T10:19:12.887Z</time>
      </trkpt>
      <trkpt lat="44.25772" lon="0.30458">
        <ele>84.062267</ele>
        <time>2022-12-29T10:19:17.890Z</time>
      </trkpt>
      <trkpt lat="44.25764" lon="0.30465">
        <ele>83.815244</ele>
        <time>2022-12-29T10:19:21.877Z</time>
      </trkpt>
      <trkpt lat="44.25756" lon="0.30472">
        <ele>83.58974</ele>
        <time>2022-12-29T10:19:25.892Z</time>
      </trkpt>
      <trkpt lat="44.25753" lon="0.30486">
        <ele>83.317785</ele>
        <time>2022-12-29T10:19:31.878Z</time>
      </trkpt>
      <trkpt lat="44.2576" lon="0.30501">
        <ele>83.271929</ele>
        <time>2022-12-29T10:19:34.895Z</time>
      </trkpt>
      <trkpt lat="44.25766" lon="0.30513">
        <ele>83.26643</ele>
        <time>2022-12-29T10:19:36.879Z</time>
      </trkpt>
      <trkpt lat="44.25772" lon="0.30524">
        <ele>83.261058</ele>
        <time>2022-12-29T10:19:38.898Z</time>
      </trkpt>
      <trkpt lat="44.25779" lon="0.3054">
        <ele>83.254164</ele>
        <time>2022-12-29T10:19:41.889Z</time>
      </trkpt>
      <trkpt lat="44.25784" lon="0.30552">
        <ele>83.248814</ele>
        <time>2022-12-29T10:19:45.880Z</time>
      </trkpt>
      <trkpt lat="44.25782" lon="0.30565">
        <ele>83.243481</ele>
        <time>2022-12-29T10:19:50.888Z</time>
      </trkpt>
      <trkpt lat="44.25775" lon="0.30578">
        <ele>83.237356</ele>
        <time>2022-12-29T10:19:53.875Z</time>
      </trkpt>
      <trkpt lat="44.25769" lon="0.30588">
        <ele>83.232255</ele>
        <time>2022-12-29T10:19:55.890Z</time>
      </trkpt>
      <trkpt lat="44.25763" lon="0.30599">
        <ele>83.226947</ele>
        <time>2022-12-29T10:19:57.884Z</time>
      </trkpt>
      <trkpt lat="44.25757" lon="0.3061">
        <ele>83.221912</ele>
        <time>2022-12-29T10:19:59.891Z</time>
      </trkpt>
      <trkpt lat="44.25751" lon="0.30619">
        <ele>83.217126</ele>
        <time>2022-12-29T10:20:01.889Z</time>
      </trkpt>
      <trkpt lat="44.25741" lon="0.30631">
        <ele>83.210519</ele>
        <time>2022-12-29T10:20:04.886Z</time>
      </trkpt>
      <trkpt lat="44.25733" lon="0.3064">
        <ele>83.204702</ele>
        <time>2022-12-29T10:20:07.884Z</time>
      </trkpt>
      <trkpt lat="44.25724" lon="0.30648">
        <ele>83.199226</ele>
        <time>2022-12-29T10:20:10.877Z</time>
      </trkpt>
      <trkpt lat="44.25715" lon="0.30655">
        <ele>83.193423</ele>
        <time>2022-12-29T10:20:13.891Z</time>
      </trkpt>
      <trkpt lat="44.25705" lon="0.30661">
        <ele>83.187749</ele>
        <time>2022-12-29T10:20:16.890Z</time>
      </trkpt>
      <trkpt lat="44.25695" lon="0.30666">
        <ele>83.182816</ele>
        <time>2022-12-29T10:20:19.878Z</time>
      </trkpt>
      <trkpt lat="44.25686" lon="0.30671">
        <ele>83.358508</ele>
        <time>2022-12-29T10:20:22.886Z</time>
      </trkpt>
      <trkpt lat="44.25677" lon="0.30677">
        <ele>83.537977</ele>
        <time>2022-12-29T10:20:25.891Z</time>
      </trkpt>
      <trkpt lat="44.25668" lon="0.30684">
        <ele>83.718447</ele>
        <time>2022-12-29T10:20:28.880Z</time>
      </trkpt>
      <trkpt lat="44.2566" lon="0.30691">
        <ele>83.883328</ele>
        <time>2022-12-29T10:20:31.880Z</time>
      </trkpt>
      <trkpt lat="44.25652" lon="0.307">
        <ele>84.065308</ele>
        <time>2022-12-29T10:20:35.888Z</time>
      </trkpt>
      <trkpt lat="44.25644" lon="0.30709">
        <ele>84.254632</ele>
        <time>2022-12-29T10:20:39.882Z</time>
      </trkpt>
      <trkpt lat="44.25638" lon="0.30719">
        <ele>84.429253</ele>
        <time>2022-12-29T10:20:43.931Z</time>
      </trkpt>
      <trkpt lat="44.25633" lon="0.3073">
        <ele>84.595033</ele>
        <time>2022-12-29T10:20:48.881Z</time>
      </trkpt>
      <trkpt lat="44.25635" lon="0.30744">
        <ele>84.774411</ele>
        <time>2022-12-29T10:20:53.883Z</time>
      </trkpt>
      <trkpt lat="44.2564" lon="0.30757">
        <ele>84.967297</ele>
        <time>2022-12-29T10:20:57.894Z</time>
      </trkpt>
      <trkpt lat="44.25644" lon="0.30771">
        <ele>85.15755</ele>
        <time>2022-12-29T10:21:01.893Z</time>
      </trkpt>
      <trkpt lat="44.25645" lon="0.30787">
        <ele>85.357269</ele>
        <time>2022-12-29T10:21:06.885Z</time>
      </trkpt>
      <trkpt lat="44.25638" lon="0.30799">
        <ele>85.570403</ele>
        <time>2022-12-29T10:21:10.881Z</time>
      </trkpt>
      <trkpt lat="44.25629" lon="0.30807">
        <ele>85.757487</ele>
        <time>2022-12-29T10:21:13.907Z</time>
      </trkpt>
      <trkpt lat="44.25619" lon="0.30813">
        <ele>85.943246</ele>
        <time>2022-12-29T10:21:16.880Z</time>
      </trkpt>
      <trkpt lat="44.2561" lon="0.30819">
        <ele>86.13394</ele>
        <time>2022-12-29T10:21:19.875Z</time>
      </trkpt>
      <trkpt lat="44.25599" lon="0.30825">
        <ele>86.341936</ele>
        <time>2022-12-29T10:21:22.881Z</time>
      </trkpt>
      <trkpt lat="44.25589" lon="0.30831">
        <ele>86.46922</ele>
        <time>2022-12-29T10:21:25.891Z</time>
      </trkpt>
      <trkpt lat="44.25578" lon="0.30837">
        <ele>86.573404</ele>
        <time>2022-12-29T10:21:28.896Z</time>
      </trkpt>
      <trkpt lat="44.25567" lon="0.30843">
        <ele>86.682801</ele>
        <time>2022-12-29T10:21:31.880Z</time>
      </trkpt>
      <trkpt lat="44.25559" lon="0.30851">
        <ele>86.775525</ele>
        <time>2022-12-29T10:21:34.888Z</time>
      </trkpt>
      <trkpt lat="44.25551" lon="0.30858">
        <ele>86.864475</ele>
        <time>2022-12-29T10:21:37.880Z</time>
      </trkpt>
      <trkpt lat="44.25544" lon="0.3087">
        <ele>86.967155</ele>
        <time>2022-12-29T10:21:40.880Z</time>
      </trkpt>
      <trkpt lat="44.25538" lon="0.30885">
        <ele>87.083169</ele>
        <time>2022-12-29T10:21:43.893Z</time>
      </trkpt>
      <trkpt lat="44.25531" lon="0.309">
        <ele>87.197859</ele>
        <time>2022-12-29T10:21:46.884Z</time>
      </trkpt>
      <trkpt lat="44.25526" lon="0.30912">
        <ele>87.295179</ele>
        <time>2022-12-29T10:21:49.887Z</time>
      </trkpt>
      <trkpt lat="44.25521" lon="0.30924">
        <ele>87.382625</ele>
        <time>2022-12-29T10:21:52.884Z</time>
      </trkpt>
      <trkpt lat="44.25518" lon="0.30936">
        <ele>87.469534</ele>
        <time>2022-12-29T10:21:55.895Z</time>
      </trkpt>
      <trkpt lat="44.25514" lon="0.30949">
        <ele>87.561171</ele>
        <time>2022-12-29T10:21:58.883Z</time>
      </trkpt>
      <trkpt lat="44.25509" lon="0.30961">
        <ele>87.656948</ele>
        <time>2022-12-29T10:22:01.884Z</time>
      </trkpt>
      <trkpt lat="44.25504" lon="0.30974">
        <ele>87.75361</ele>
        <time>2022-12-29T10:22:04.877Z</time>
      </trkpt>
      <trkpt lat="44.25499" lon="0.30988">
        <ele>87.85945</ele>
        <time>2022-12-29T10:22:07.896Z</time>
      </trkpt>
      <trkpt lat="44.25494" lon="0.31">
        <ele>87.948389</ele>
        <time>2022-12-29T10:22:09.893Z</time>
      </trkpt>
      <trkpt lat="44.25489" lon="0.31011">
        <ele>88.031913</ele>
        <time>2022-12-29T10:22:11.894Z</time>
      </trkpt>
      <trkpt lat="44.25485" lon="0.31022">
        <ele>88.274218</ele>
        <time>2022-12-29T10:22:13.873Z</time>
      </trkpt>
      <trkpt lat="44.2548" lon="0.31037">
        <ele>88.70236</ele>
        <time>2022-12-29T10:22:16.877Z</time>
      </trkpt>
      <trkpt lat="44.25476" lon="0.31052">
        <ele>89.118326</ele>
        <time>2022-12-29T10:22:19.880Z</time>
      </trkpt>
      <trkpt lat="44.25471" lon="0.31066">
        <ele>89.509912</ele>
        <time>2022-12-29T10:22:21.891Z</time>
      </trkpt>
      <trkpt lat="44.25465" lon="0.3108">
        <ele>89.956946</ele>
        <time>2022-12-29T10:22:24.877Z</time>
      </trkpt>
      <trkpt lat="44.25459" lon="0.31097">
        <ele>90.437787</ele>
        <time>2022-12-29T10:22:27.878Z</time>
      </trkpt>
      <trkpt lat="44.25453" lon="0.31114">
        <ele>90.930101</ele>
        <time>2022-12-29T10:22:30.888Z</time>
      </trkpt>
      <trkpt lat="44.25447" lon="0.31129">
        <ele>91.387056</ele>
        <time>2022-12-29T10:22:33.881Z</time>
      </trkpt>
      <trkpt lat="44.25441" lon="0.31144">
        <ele>91.827849</ele>
        <time>2022-12-29T10:22:36.879Z</time>
      </trkpt>
      <trkpt lat="44.25437" lon="0.31156">
        <ele>92.18327</ele>
        <time>2022-12-29T10:22:38.891Z</time>
      </trkpt>
      <trkpt lat="44.25432" lon="0.31168">
        <ele>92.530053</ele>
        <time>2022-12-29T10:22:40.889Z</time>
      </trkpt>
      <trkpt lat="44.25428" lon="0.31179">
        <ele>92.85613</ele>
        <time>2022-12-29T10:22:42.880Z</time>
      </trkpt>
      <trkpt lat="44.25422" lon="0.31191">
        <ele>93.220754</ele>
        <time>2022-12-29T10:22:44.886Z</time>
      </trkpt>
      <trkpt lat="44.25417" lon="0.31206">
        <ele>93.684395</ele>
        <time>2022-12-29T10:22:47.879Z</time>
      </trkpt>
      <trkpt lat="44.25411" lon="0.31222">
        <ele>94.13253</ele>
        <time>2022-12-29T10:22:50.892Z</time>
      </trkpt>
      <trkpt lat="44.25405" lon="0.31238">
        <ele>94.596539</ele>
        <time>2022-12-29T10:22:53.894Z</time>
      </trkpt>
      <trkpt lat="44.254" lon="0.3125">
        <ele>94.3284</ele>
        <time>2022-12-29T10:22:56.890Z</time>
      </trkpt>
      <trkpt lat="44.25394" lon="0.31265">
        <ele>94.01536</ele>
        <time>2022-12-29T10:22:59.878Z</time>
      </trkpt>
      <trkpt lat="44.2539" lon="0.31277">
        <ele>93.75823</ele>
        <time>2022-12-29T10:23:01.898Z</time>
      </trkpt>
      <trkpt lat="44.25384" lon="0.31293">
        <ele>93.437354</ele>
        <time>2022-12-29T10:23:04.884Z</time>
      </trkpt>
      <trkpt lat="44.2538" lon="0.31304">
        <ele>93.191415</ele>
        <time>2022-12-29T10:23:06.888Z</time>
      </trkpt>
      <trkpt lat="44.25376" lon="0.31318">
        <ele>92.918398</ele>
        <time>2022-12-29T10:23:08.877Z</time>
      </trkpt>
      <trkpt lat="44.2537" lon="0.31333">
        <ele>92.588469</ele>
        <time>2022-12-29T10:23:11.890Z</time>
      </trkpt>
      <trkpt lat="44.25366" lon="0.31347">
        <ele>92.306593</ele>
        <time>2022-12-29T10:23:14.890Z</time>
      </trkpt>
      <trkpt lat="44.2536" lon="0.31362">
        <ele>91.987371</ele>
        <time>2022-12-29T10:23:17.897Z</time>
      </trkpt>
      <trkpt lat="44.25353" lon="0.31379">
        <ele>91.632291</ele>
        <time>2022-12-29T10:23:20.890Z</time>
      </trkpt>
      <trkpt lat="44.25349" lon="0.3139">
        <ele>91.392535</ele>
        <time>2022-12-29T10:23:22.891Z</time>
      </trkpt>
      <trkpt lat="44.25344" lon="0.31405">
        <ele>91.087602</ele>
        <time>2022-12-29T10:23:25.879Z</time>
      </trkpt>
      <trkpt lat="44.2534" lon="0.31417">
        <ele>90.840459</ele>
        <time>2022-12-29T10:23:27.884Z</time>
      </trkpt>
      <trkpt lat="44.25336" lon="0.31429">
        <ele>90.59612</ele>
        <time>2022-12-29T10:23:29.889Z</time>
      </trkpt>
      <trkpt lat="44.25332" lon="0.3144">
        <ele>90.348011</ele>
        <time>2022-12-29T10:23:31.872Z</time>
      </trkpt>
      <trkpt lat="44.25326" lon="0.31457">
        <ele>90.008772</ele>
        <time>2022-12-29T10:23:34.877Z</time>
      </trkpt>
      <trkpt lat="44.25322" lon="0.31468">
        <ele>89.917361</ele>
        <time>2022-12-29T10:23:36.878Z</time>
      </trkpt>
      <trkpt lat="44.25315" lon="0.31484">
        <ele>89.960237</ele>
        <time>2022-12-29T10:23:39.885Z</time>
      </trkpt>
      <trkpt lat="44.25311" lon="0.31495">
        <ele>89.989567</ele>
        <time>2022-12-29T10:23:41.882Z</time>
      </trkpt>
      <trkpt lat="44.25307" lon="0.31507">
        <ele>90.019841</ele>
        <time>2022-12-29T10:23:43.881Z</time>
      </trkpt>
      <trkpt lat="44.25302" lon="0.31518">
        <ele>90.049891</ele>
        <time>2022-12-29T10:23:45.880Z</time>
      </trkpt>
      <trkpt lat="44.25297" lon="0.31533">
        <ele>90.089356</ele>
        <time>2022-12-29T10:23:48.890Z</time>
      </trkpt>
      <trkpt lat="44.25289" lon="0.31549">
        <ele>90.1333</ele>
        <time>2022-12-29T10:23:51.882Z</time>
      </trkpt>
      <trkpt lat="44.25284" lon="0.31562">
        <ele>90.167061</ele>
        <time>2022-12-29T10:23:53.892Z</time>
      </trkpt>
      <trkpt lat="44.25279" lon="0.31578">
        <ele>90.208274</ele>
        <time>2022-12-29T10:23:56.893Z</time>
      </trkpt>
      <trkpt lat="44.25273" lon="0.31594">
        <ele>90.250665</ele>
        <time>2022-12-29T10:23:59.881Z</time>
      </trkpt>
      <trkpt lat="44.25266" lon="0.31609">
        <ele>90.291885</ele>
        <time>2022-12-29T10:24:02.887Z</time>
      </trkpt>
      <trkpt lat="44.25261" lon="0.31625">
        <ele>90.331805</ele>
        <time>2022-12-29T10:24:05.878Z</time>
      </trkpt>
      <trkpt lat="44.25255" lon="0.31641">
        <ele>90.375674</ele>
        <time>2022-12-29T10:24:08.892Z</time>
      </trkpt>
      <trkpt lat="44.2525" lon="0.31652">
        <ele>90.40516</ele>
        <time>2022-12-29T10:24:10.876Z</time>
      </trkpt>
      <trkpt lat="44.25246" lon="0.31665">
        <ele>90.438385</ele>
        <time>2022-12-29T10:24:12.881Z</time>
      </trkpt>
      <trkpt lat="44.2524" lon="0.31681">
        <ele>90.480272</ele>
        <time>2022-12-29T10:24:15.899Z</time>
      </trkpt>
      <trkpt lat="44.25235" lon="0.31692">
        <ele>90.497884</ele>
        <time>2022-12-29T10:24:17.887Z</time>
      </trkpt>
      <trkpt lat="44.25231" lon="0.31705">
        <ele>90.516245</ele>
        <time>2022-12-29T10:24:20.875Z</time>
      </trkpt>
      <trkpt lat="44.25225" lon="0.31718">
        <ele>90.53472</ele>
        <time>2022-12-29T10:24:24.881Z</time>
      </trkpt>
      <trkpt lat="44.25219" lon="0.31734">
        <ele>90.556484</ele>
        <time>2022-12-29T10:24:28.890Z</time>
      </trkpt>
      <trkpt lat="44.25213" lon="0.31749">
        <ele>90.57776</ele>
        <time>2022-12-29T10:24:31.878Z</time>
      </trkpt>
      <trkpt lat="44.25206" lon="0.31765">
        <ele>90.600718</ele>
        <time>2022-12-29T10:24:34.882Z</time>
      </trkpt>
      <trkpt lat="44.252" lon="0.31781">
        <ele>90.622677</ele>
        <time>2022-12-29T10:24:37.892Z</time>
      </trkpt>
      <trkpt lat="44.25195" lon="0.31797">
        <ele>90.645257</ele>
        <time>2022-12-29T10:24:40.893Z</time>
      </trkpt>
      <trkpt lat="44.25189" lon="0.31813">
        <ele>90.666435</ele>
        <time>2022-12-29T10:24:43.878Z</time>
      </trkpt>
      <trkpt lat="44.25184" lon="0.31829">
        <ele>90.68846</ele>
        <time>2022-12-29T10:24:46.884Z</time>
      </trkpt>
      <trkpt lat="44.25179" lon="0.31844">
        <ele>90.708414</ele>
        <time>2022-12-29T10:24:49.895Z</time>
      </trkpt>
      <trkpt lat="44.25173" lon="0.31859">
        <ele>90.729419</ele>
        <time>2022-12-29T10:24:52.897Z</time>
      </trkpt>
      <trkpt lat="44.25167" lon="0.31874">
        <ele>90.751076</ele>
        <time>2022-12-29T10:24:55.878Z</time>
      </trkpt>
      <trkpt lat="44.25161" lon="0.31891">
        <ele>90.774168</ele>
        <time>2022-12-29T10:24:58.881Z</time>
      </trkpt>
      <trkpt lat="44.25155" lon="0.31906">
        <ele>90.794936</ele>
        <time>2022-12-29T10:25:00.887Z</time>
      </trkpt>
      <trkpt lat="44.25148" lon="0.31922">
        <ele>90.817349</ele>
        <time>2022-12-29T10:25:03.879Z</time>
      </trkpt>
      <trkpt lat="44.25142" lon="0.31937">
        <ele>90.837819</ele>
        <time>2022-12-29T10:25:06.896Z</time>
      </trkpt>
      <trkpt lat="44.25138" lon="0.3195">
        <ele>90.855255</ele>
        <time>2022-12-29T10:25:09.897Z</time>
      </trkpt>
      <trkpt lat="44.25132" lon="0.31966">
        <ele>90.876089</ele>
        <time>2022-12-29T10:25:12.900Z</time>
      </trkpt>
      <trkpt lat="44.25126" lon="0.31981">
        <ele>90.89738</ele>
        <time>2022-12-29T10:25:15.876Z</time>
      </trkpt>
      <trkpt lat="44.25119" lon="0.31997">
        <ele>90.918533</ele>
        <time>2022-12-29T10:25:18.897Z</time>
      </trkpt>
      <trkpt lat="44.25113" lon="0.32011">
        <ele>90.938153</ele>
        <time>2022-12-29T10:25:21.886Z</time>
      </trkpt>
      <trkpt lat="44.25108" lon="0.32023">
        <ele>90.955612</ele>
        <time>2022-12-29T10:25:24.891Z</time>
      </trkpt>
      <trkpt lat="44.25101" lon="0.32039">
        <ele>90.977156</ele>
        <time>2022-12-29T10:25:27.881Z</time>
      </trkpt>
      <trkpt lat="44.25094" lon="0.32054">
        <ele>90.998572</ele>
        <time>2022-12-29T10:25:30.885Z</time>
      </trkpt>
      <trkpt lat="44.25088" lon="0.32069">
        <ele>91.019574</ele>
        <time>2022-12-29T10:25:33.882Z</time>
      </trkpt>
      <trkpt lat="44.2508" lon="0.32084">
        <ele>91.041343</ele>
        <time>2022-12-29T10:25:36.888Z</time>
      </trkpt>
      <trkpt lat="44.25073" lon="0.32098">
        <ele>91.061757</ele>
        <time>2022-12-29T10:25:39.890Z</time>
      </trkpt>
      <trkpt lat="44.25064" lon="0.32114">
        <ele>91.08596</ele>
        <time>2022-12-29T10:25:42.898Z</time>
      </trkpt>
      <trkpt lat="44.25059" lon="0.32125">
        <ele>91.132133</ele>
        <time>2022-12-29T10:25:44.900Z</time>
      </trkpt>
      <trkpt lat="44.25053" lon="0.32135">
        <ele>91.201419</ele>
        <time>2022-12-29T10:25:46.896Z</time>
      </trkpt>
      <trkpt lat="44.25044" lon="0.32149">
        <ele>91.297139</ele>
        <time>2022-12-29T10:25:49.891Z</time>
      </trkpt>
      <trkpt lat="44.25036" lon="0.32161">
        <ele>91.382497</ele>
        <time>2022-12-29T10:25:52.889Z</time>
      </trkpt>
      <trkpt lat="44.25028" lon="0.32173">
        <ele>91.469055</ele>
        <time>2022-12-29T10:25:55.896Z</time>
      </trkpt>
      <trkpt lat="44.25021" lon="0.32185">
        <ele>91.551692</ele>
        <time>2022-12-29T10:25:58.884Z</time>
      </trkpt>
      <trkpt lat="44.25011" lon="0.32197">
        <ele>91.65112</ele>
        <time>2022-12-29T10:26:01.890Z</time>
      </trkpt>
      <trkpt lat="44.25002" lon="0.32208">
        <ele>91.735402</ele>
        <time>2022-12-29T10:26:04.884Z</time>
      </trkpt>
      <trkpt lat="44.24995" lon="0.32217">
        <ele>91.803895</ele>
        <time>2022-12-29T10:26:06.881Z</time>
      </trkpt>
      <trkpt lat="44.24987" lon="0.32228">
        <ele>91.887406</ele>
        <time>2022-12-29T10:26:09.890Z</time>
      </trkpt>
      <trkpt lat="44.24978" lon="0.32238">
        <ele>91.973928</ele>
        <time>2022-12-29T10:26:12.885Z</time>
      </trkpt>
      <trkpt lat="44.24968" lon="0.3225">
        <ele>92.069549</ele>
        <time>2022-12-29T10:26:15.881Z</time>
      </trkpt>
      <trkpt lat="44.24958" lon="0.32261">
        <ele>92.159439</ele>
        <time>2022-12-29T10:26:18.883Z</time>
      </trkpt>
      <trkpt lat="44.24949" lon="0.32272">
        <ele>92.251128</ele>
        <time>2022-12-29T10:26:21.878Z</time>
      </trkpt>
      <trkpt lat="44.24938" lon="0.32282">
        <ele>92.349098</ele>
        <time>2022-12-29T10:26:24.893Z</time>
      </trkpt>
      <trkpt lat="44.24927" lon="0.32292">
        <ele>92.322149</ele>
        <time>2022-12-29T10:26:27.889Z</time>
      </trkpt>
      <trkpt lat="44.24919" lon="0.32299">
        <ele>92.121456</ele>
        <time>2022-12-29T10:26:29.891Z</time>
      </trkpt>
      <trkpt lat="44.24912" lon="0.32306">
        <ele>91.919901</ele>
        <time>2022-12-29T10:26:32.903Z</time>
      </trkpt>
      <trkpt lat="44.24902" lon="0.32314">
        <ele>91.687095</ele>
        <time>2022-12-29T10:26:36.878Z</time>
      </trkpt>
      <trkpt lat="44.24892" lon="0.32323">
        <ele>91.413984</ele>
        <time>2022-12-29T10:26:39.877Z</time>
      </trkpt>
      <trkpt lat="44.2488" lon="0.32333">
        <ele>91.124439</ele>
        <time>2022-12-29T10:26:42.886Z</time>
      </trkpt>
      <trkpt lat="44.2487" lon="0.32341">
        <ele>90.861244</ele>
        <time>2022-12-29T10:26:45.919Z</time>
      </trkpt>
      <trkpt lat="44.24858" lon="0.32348">
        <ele>90.577567</ele>
        <time>2022-12-29T10:26:48.906Z</time>
      </trkpt>
      <trkpt lat="44.24846" lon="0.32354">
        <ele>90.31034</ele>
        <time>2022-12-29T10:26:51.878Z</time>
      </trkpt>
      <trkpt lat="44.24835" lon="0.32362">
        <ele>90.036257</ele>
        <time>2022-12-29T10:26:54.892Z</time>
      </trkpt>
      <trkpt lat="44.24823" lon="0.32369">
        <ele>89.757197</ele>
        <time>2022-12-29T10:26:57.892Z</time>
      </trkpt>
      <trkpt lat="44.24811" lon="0.32376">
        <ele>89.468634</ele>
        <time>2022-12-29T10:27:00.877Z</time>
      </trkpt>
      <trkpt lat="44.24802" lon="0.32381">
        <ele>89.263809</ele>
        <time>2022-12-29T10:27:02.876Z</time>
      </trkpt>
      <trkpt lat="44.24789" lon="0.32387">
        <ele>88.95529</ele>
        <time>2022-12-29T10:27:05.895Z</time>
      </trkpt>
      <trkpt lat="44.24776" lon="0.32394">
        <ele>88.654578</ele>
        <time>2022-12-29T10:27:08.879Z</time>
      </trkpt>
      <trkpt lat="44.24763" lon="0.32401">
        <ele>88.475367</ele>
        <time>2022-12-29T10:27:11.891Z</time>
      </trkpt>
      <trkpt lat="44.24751" lon="0.32406">
        <ele>88.431781</ele>
        <time>2022-12-29T10:27:14.902Z</time>
      </trkpt>
      <trkpt lat="44.24738" lon="0.3241">
        <ele>88.384827</ele>
        <time>2022-12-29T10:27:17.894Z</time>
      </trkpt>
      <trkpt lat="44.24726" lon="0.32414">
        <ele>88.344465</ele>
        <time>2022-12-29T10:27:20.899Z</time>
      </trkpt>
      <trkpt lat="44.24715" lon="0.32419">
        <ele>88.302897</ele>
        <time>2022-12-29T10:27:23.902Z</time>
      </trkpt>
      <trkpt lat="44.24704" lon="0.32423">
        <ele>88.262324</ele>
        <time>2022-12-29T10:27:26.875Z</time>
      </trkpt>
      <trkpt lat="44.24691" lon="0.32427">
        <ele>88.218478</ele>
        <time>2022-12-29T10:27:29.902Z</time>
      </trkpt>
      <trkpt lat="44.24678" lon="0.3243">
        <ele>88.172577</ele>
        <time>2022-12-29T10:27:32.903Z</time>
      </trkpt>
      <trkpt lat="44.24665" lon="0.32432">
        <ele>88.125328</ele>
        <time>2022-12-29T10:27:35.905Z</time>
      </trkpt>
      <trkpt lat="44.24653" lon="0.32435">
        <ele>88.084655</ele>
        <time>2022-12-29T10:27:38.886Z</time>
      </trkpt>
      <trkpt lat="44.2464" lon="0.32437">
        <ele>88.037696</ele>
        <time>2022-12-29T10:27:41.878Z</time>
      </trkpt>
      <trkpt lat="44.24627" lon="0.3244">
        <ele>87.991752</ele>
        <time>2022-12-29T10:27:44.946Z</time>
      </trkpt>
      <trkpt lat="44.24618" lon="0.32441">
        <ele>87.960413</ele>
        <time>2022-12-29T10:27:46.908Z</time>
      </trkpt>
      <trkpt lat="44.24608" lon="0.32442">
        <ele>87.926355</ele>
        <time>2022-12-29T10:27:48.905Z</time>
      </trkpt>
      <trkpt lat="44.24598" lon="0.32445">
        <ele>87.88902</ele>
        <time>2022-12-29T10:27:50.905Z</time>
      </trkpt>
      <trkpt lat="44.24589" lon="0.32446">
        <ele>87.911414</ele>
        <time>2022-12-29T10:27:52.899Z</time>
      </trkpt>
      <trkpt lat="44.24579" lon="0.32446">
        <ele>87.992426</ele>
        <time>2022-12-29T10:27:54.879Z</time>
      </trkpt>
      <trkpt lat="44.2457" lon="0.32447">
        <ele>88.071615</ele>
        <time>2022-12-29T10:27:56.901Z</time>
      </trkpt>
      <trkpt lat="44.24559" lon="0.32449">
        <ele>88.168699</ele>
        <time>2022-12-29T10:27:59.909Z</time>
      </trkpt>
      <trkpt lat="44.24547" lon="0.32451">
        <ele>88.274247</ele>
        <time>2022-12-29T10:28:02.885Z</time>
      </trkpt>
      <trkpt lat="44.24534" lon="0.32453">
        <ele>88.382293</ele>
        <time>2022-12-29T10:28:05.891Z</time>
      </trkpt>
      <trkpt lat="44.24523" lon="0.32454">
        <ele>88.479951</ele>
        <time>2022-12-29T10:28:08.885Z</time>
      </trkpt>
      <trkpt lat="44.24512" lon="0.32455">
        <ele>88.570401</ele>
        <time>2022-12-29T10:28:11.936Z</time>
      </trkpt>
      <trkpt lat="44.245" lon="0.32456">
        <ele>88.676222</ele>
        <time>2022-12-29T10:28:15.903Z</time>
      </trkpt>
      <trkpt lat="44.24488" lon="0.32458">
        <ele>88.780454</ele>
        <time>2022-12-29T10:28:18.886Z</time>
      </trkpt>
      <trkpt lat="44.24476" lon="0.32461">
        <ele>88.885911</ele>
        <time>2022-12-29T10:28:21.900Z</time>
      </trkpt>
      <trkpt lat="44.24466" lon="0.32461">
        <ele>88.96763</ele>
        <time>2022-12-29T10:28:23.914Z</time>
      </trkpt>
      <trkpt lat="44.24457" lon="0.32464">
        <ele>89.052878</ele>
        <time>2022-12-29T10:28:25.891Z</time>
      </trkpt>
      <trkpt lat="44.24447" lon="0.32465">
        <ele>89.132385</ele>
        <time>2022-12-29T10:28:27.908Z</time>
      </trkpt>
      <trkpt lat="44.24434" lon="0.32467">
        <ele>89.245217</ele>
        <time>2022-12-29T10:28:30.910Z</time>
      </trkpt>
      <trkpt lat="44.24422" lon="0.3247">
        <ele>89.353623</ele>
        <time>2022-12-29T10:28:33.882Z</time>
      </trkpt>
      <trkpt lat="44.2441" lon="0.32474">
        <ele>89.300468</ele>
        <time>2022-12-29T10:28:36.910Z</time>
      </trkpt>
      <trkpt lat="44.24397" lon="0.32476">
        <ele>89.005849</ele>
        <time>2022-12-29T10:28:39.881Z</time>
      </trkpt>
      <trkpt lat="44.24384" lon="0.32478">
        <ele>88.691227</ele>
        <time>2022-12-29T10:28:42.903Z</time>
      </trkpt>
      <trkpt lat="44.24371" lon="0.32479">
        <ele>88.370906</ele>
        <time>2022-12-29T10:28:45.909Z</time>
      </trkpt>
      <trkpt lat="44.24362" lon="0.32479">
        <ele>88.154868</ele>
        <time>2022-12-29T10:28:47.905Z</time>
      </trkpt>
      <trkpt lat="44.24349" lon="0.3248">
        <ele>87.866981</ele>
        <time>2022-12-29T10:28:50.905Z</time>
      </trkpt>
      <trkpt lat="44.24336" lon="0.32482">
        <ele>87.554369</ele>
        <time>2022-12-29T10:28:53.911Z</time>
      </trkpt>
      <trkpt lat="44.24327" lon="0.32482">
        <ele>87.329009</ele>
        <time>2022-12-29T10:28:55.879Z</time>
      </trkpt>
      <trkpt lat="44.24317" lon="0.32482">
        <ele>87.103623</ele>
        <time>2022-12-29T10:28:57.905Z</time>
      </trkpt>
      <trkpt lat="44.24308" lon="0.32483">
        <ele>86.878103</ele>
        <time>2022-12-29T10:28:59.903Z</time>
      </trkpt>
      <trkpt lat="44.24295" lon="0.32484">
        <ele>86.583458</ele>
        <time>2022-12-29T10:29:02.890Z</time>
      </trkpt>
      <trkpt lat="44.24282" lon="0.32485">
        <ele>86.271655</ele>
        <time>2022-12-29T10:29:05.906Z</time>
      </trkpt>
      <trkpt lat="44.2427" lon="0.32486">
        <ele>85.982</ele>
        <time>2022-12-29T10:29:08.905Z</time>
      </trkpt>
      <trkpt lat="44.24261" lon="0.32487">
        <ele>85.753357</ele>
        <time>2022-12-29T10:29:10.880Z</time>
      </trkpt>
      <trkpt lat="44.24247" lon="0.32489">
        <ele>85.436205</ele>
        <time>2022-12-29T10:29:13.906Z</time>
      </trkpt>
      <trkpt lat="44.24238" lon="0.32491">
        <ele>85.216478</ele>
        <time>2022-12-29T10:29:15.903Z</time>
      </trkpt>
      <trkpt lat="44.24229" lon="0.32492">
        <ele>85.318977</ele>
        <time>2022-12-29T10:29:17.900Z</time>
      </trkpt>
      <trkpt lat="44.24216" lon="0.32494">
        <ele>85.635263</ele>
        <time>2022-12-29T10:29:20.887Z</time>
      </trkpt>
      <trkpt lat="44.24203" lon="0.32497">
        <ele>85.944973</ele>
        <time>2022-12-29T10:29:23.905Z</time>
      </trkpt>
      <trkpt lat="44.24194" lon="0.32498">
        <ele>86.175569</ele>
        <time>2022-12-29T10:29:25.895Z</time>
      </trkpt>
      <trkpt lat="44.24184" lon="0.325">
        <ele>86.42004</ele>
        <time>2022-12-29T10:29:27.900Z</time>
      </trkpt>
      <trkpt lat="44.24172" lon="0.32502">
        <ele>86.718598</ele>
        <time>2022-12-29T10:29:30.912Z</time>
      </trkpt>
      <trkpt lat="44.24159" lon="0.32504">
        <ele>87.0377</ele>
        <time>2022-12-29T10:29:33.902Z</time>
      </trkpt>
      <trkpt lat="44.24146" lon="0.32506">
        <ele>87.365751</ele>
        <time>2022-12-29T10:29:36.964Z</time>
      </trkpt>
      <trkpt lat="44.24137" lon="0.32507">
        <ele>87.598359</ele>
        <time>2022-12-29T10:29:38.905Z</time>
      </trkpt>
      <trkpt lat="44.24123" lon="0.32508">
        <ele>87.923574</ele>
        <time>2022-12-29T10:29:41.902Z</time>
      </trkpt>
      <trkpt lat="44.24111" lon="0.3251">
        <ele>88.231744</ele>
        <time>2022-12-29T10:29:44.903Z</time>
      </trkpt>
      <trkpt lat="44.24101" lon="0.3251">
        <ele>88.467928</ele>
        <time>2022-12-29T10:29:46.902Z</time>
      </trkpt>
      <trkpt lat="44.24092" lon="0.32512">
        <ele>88.688546</ele>
        <time>2022-12-29T10:29:48.907Z</time>
      </trkpt>
      <trkpt lat="44.24079" lon="0.32513">
        <ele>89.023283</ele>
        <time>2022-12-29T10:29:51.881Z</time>
      </trkpt>
      <trkpt lat="44.24066" lon="0.32515">
        <ele>89.333034</ele>
        <time>2022-12-29T10:29:54.905Z</time>
      </trkpt>
      <trkpt lat="44.24054" lon="0.32516">
        <ele>89.545279</ele>
        <time>2022-12-29T10:29:57.887Z</time>
      </trkpt>
      <trkpt lat="44.24041" lon="0.32519">
        <ele>89.389213</ele>
        <time>2022-12-29T10:30:00.907Z</time>
      </trkpt>
      <trkpt lat="44.24031" lon="0.3252">
        <ele>89.264389</ele>
        <time>2022-12-29T10:30:02.903Z</time>
      </trkpt>
      <trkpt lat="44.24021" lon="0.32522">
        <ele>89.149873</ele>
        <time>2022-12-29T10:30:04.888Z</time>
      </trkpt>
      <trkpt lat="44.24008" lon="0.32523">
        <ele>88.990875</ele>
        <time>2022-12-29T10:30:07.903Z</time>
      </trkpt>
      <trkpt lat="44.23998" lon="0.32524">
        <ele>88.871816</ele>
        <time>2022-12-29T10:30:09.944Z</time>
      </trkpt>
      <trkpt lat="44.23985" lon="0.32525">
        <ele>88.728013</ele>
        <time>2022-12-29T10:30:12.889Z</time>
      </trkpt>
      <trkpt lat="44.23974" lon="0.32526">
        <ele>88.591364</ele>
        <time>2022-12-29T10:30:15.899Z</time>
      </trkpt>
      <trkpt lat="44.23962" lon="0.32527">
        <ele>88.452405</ele>
        <time>2022-12-29T10:30:18.907Z</time>
      </trkpt>
      <trkpt lat="44.23953" lon="0.32529">
        <ele>88.338864</ele>
        <time>2022-12-29T10:30:20.901Z</time>
      </trkpt>
      <trkpt lat="44.23943" lon="0.32531">
        <ele>88.221057</ele>
        <time>2022-12-29T10:30:22.873Z</time>
      </trkpt>
      <trkpt lat="44.23934" lon="0.32532">
        <ele>88.109362</ele>
        <time>2022-12-29T10:30:24.884Z</time>
      </trkpt>
      <trkpt lat="44.23924" lon="0.32534">
        <ele>87.999455</ele>
        <time>2022-12-29T10:30:26.879Z</time>
      </trkpt>
      <trkpt lat="44.23913" lon="0.32536">
        <ele>87.857703</ele>
        <time>2022-12-29T10:30:29.902Z</time>
      </trkpt>
      <trkpt lat="44.23902" lon="0.32537">
        <ele>87.737607</ele>
        <time>2022-12-29T10:30:31.889Z</time>
      </trkpt>
      <trkpt lat="44.2389" lon="0.32539">
        <ele>87.590995</ele>
        <time>2022-12-29T10:30:34.904Z</time>
      </trkpt>
      <trkpt lat="44.2388" lon="0.3254">
        <ele>87.47102</ele>
        <time>2022-12-29T10:30:36.880Z</time>
      </trkpt>
      <trkpt lat="44.2387" lon="0.32542">
        <ele>87.356755</ele>
        <time>2022-12-29T10:30:38.902Z</time>
      </trkpt>
      <trkpt lat="44.23857" lon="0.32544">
        <ele>87.215758</ele>
        <time>2022-12-29T10:30:41.873Z</time>
      </trkpt>
      <trkpt lat="44.23847" lon="0.32545">
        <ele>87.099436</ele>
        <time>2022-12-29T10:30:44.892Z</time>
      </trkpt>
      <trkpt lat="44.23837" lon="0.32547">
        <ele>86.994971</ele>
        <time>2022-12-29T10:30:47.901Z</time>
      </trkpt>
      <trkpt lat="44.23828" lon="0.3255">
        <ele>86.887382</ele>
        <time>2022-12-29T10:30:50.883Z</time>
      </trkpt>
      <trkpt lat="44.23819" lon="0.32553">
        <ele>86.786605</ele>
        <time>2022-12-29T10:30:53.901Z</time>
      </trkpt>
      <trkpt lat="44.23808" lon="0.32557">
        <ele>86.660681</ele>
        <time>2022-12-29T10:30:56.902Z</time>
      </trkpt>
      <trkpt lat="44.23796" lon="0.32561">
        <ele>86.533013</ele>
        <time>2022-12-29T10:30:59.879Z</time>
      </trkpt>
      <trkpt lat="44.23786" lon="0.32567">
        <ele>86.408276</ele>
        <time>2022-12-29T10:31:02.915Z</time>
      </trkpt>
      <trkpt lat="44.23776" lon="0.32572">
        <ele>86.289168</ele>
        <time>2022-12-29T10:31:05.901Z</time>
      </trkpt>
      <trkpt lat="44.23767" lon="0.32579">
        <ele>86.178812</ele>
        <time>2022-12-29T10:31:08.884Z</time>
      </trkpt>
      <trkpt lat="44.23758" lon="0.32585">
        <ele>86.073184</ele>
        <time>2022-12-29T10:31:11.901Z</time>
      </trkpt>
      <trkpt lat="44.2375" lon="0.32591">
        <ele>85.971088</ele>
        <time>2022-12-29T10:31:14.904Z</time>
      </trkpt>
      <trkpt lat="44.23741" lon="0.32599">
        <ele>85.8547</ele>
        <time>2022-12-29T10:31:18.903Z</time>
      </trkpt>
      <trkpt lat="44.23732" lon="0.32607">
        <ele>85.742357</ele>
        <time>2022-12-29T10:31:23.878Z</time>
      </trkpt>
      <trkpt lat="44.23723" lon="0.32602">
        <ele>85.629014</ele>
        <time>2022-12-29T10:31:29.895Z</time>
      </trkpt>
      <trkpt lat="44.23715" lon="0.32593">
        <ele>85.517969</ele>
        <time>2022-12-29T10:31:33.883Z</time>
      </trkpt>
      <trkpt lat="44.23707" lon="0.32585">
        <ele>85.370168</ele>
        <time>2022-12-29T10:31:37.902Z</time>
      </trkpt>
      <trkpt lat="44.23697" lon="0.32587">
        <ele>85.185808</ele>
        <time>2022-12-29T10:31:43.903Z</time>
      </trkpt>
      <trkpt lat="44.23701" lon="0.32598">
        <ele>85.017397</ele>
        <time>2022-12-29T10:32:30.879Z</time>
      </trkpt>
      <trkpt lat="44.237" lon="0.32599">
        <ele>85.0044</ele>
        <time>2022-12-29T10:32:43.545Z</time>
      </trkpt>
      <trkpt lat="44.237" lon="0.32597">
        <ele>84.964728</ele>
        <time>2022-12-29T10:57:11.569Z</time>
      </trkpt>
      <trkpt lat="44.23687" lon="0.32609">
        <ele>84.668908</ele>
        <time>2022-12-29T10:58:13.886Z</time>
      </trkpt>
      <trkpt lat="44.23677" lon="0.32618">
        <ele>84.460645</ele>
        <time>2022-12-29T10:58:17.897Z</time>
      </trkpt>
      <trkpt lat="44.23668" lon="0.32628">
        <ele>84.247735</ele>
        <time>2022-12-29T10:58:21.902Z</time>
      </trkpt>
      <trkpt lat="44.2366" lon="0.32636">
        <ele>84.053924</ele>
        <time>2022-12-29T10:58:25.897Z</time>
      </trkpt>
      <trkpt lat="44.23652" lon="0.32645">
        <ele>83.864893</ele>
        <time>2022-12-29T10:58:29.884Z</time>
      </trkpt>
      <trkpt lat="44.23644" lon="0.32656">
        <ele>83.650717</ele>
        <time>2022-12-29T10:58:34.899Z</time>
      </trkpt>
      <trkpt lat="44.23636" lon="0.32668">
        <ele>83.437807</ele>
        <time>2022-12-29T10:58:38.899Z</time>
      </trkpt>
      <trkpt lat="44.23627" lon="0.3268">
        <ele>83.207288</ele>
        <time>2022-12-29T10:58:42.879Z</time>
      </trkpt>
      <trkpt lat="44.2362" lon="0.3269">
        <ele>83.023056</ele>
        <time>2022-12-29T10:58:45.895Z</time>
      </trkpt>
      <trkpt lat="44.23612" lon="0.327">
        <ele>82.824214</ele>
        <time>2022-12-29T10:58:48.897Z</time>
      </trkpt>
      <trkpt lat="44.23604" lon="0.3271">
        <ele>82.628163</ele>
        <time>2022-12-29T10:58:51.900Z</time>
      </trkpt>
      <trkpt lat="44.23597" lon="0.32721">
        <ele>82.428382</ele>
        <time>2022-12-29T10:58:54.886Z</time>
      </trkpt>
      <trkpt lat="44.23589" lon="0.32731">
        <ele>82.231798</ele>
        <time>2022-12-29T10:58:57.896Z</time>
      </trkpt>
      <trkpt lat="44.23582" lon="0.32742">
        <ele>82.207284</ele>
        <time>2022-12-29T10:59:00.899Z</time>
      </trkpt>
      <trkpt lat="44.23573" lon="0.32752">
        <ele>82.401722</ele>
        <time>2022-12-29T10:59:03.896Z</time>
      </trkpt>
      <trkpt lat="44.23565" lon="0.32762">
        <ele>82.58953</ele>
        <time>2022-12-29T10:59:06.886Z</time>
      </trkpt>
      <trkpt lat="44.23558" lon="0.32773">
        <ele>82.776238</ele>
        <time>2022-12-29T10:59:09.907Z</time>
      </trkpt>
      <trkpt lat="44.23551" lon="0.32785">
        <ele>82.964821</ele>
        <time>2022-12-29T10:59:12.878Z</time>
      </trkpt>
      <trkpt lat="44.23546" lon="0.32796">
        <ele>83.138032</ele>
        <time>2022-12-29T10:59:15.875Z</time>
      </trkpt>
      <trkpt lat="44.23541" lon="0.32807">
        <ele>83.298988</ele>
        <time>2022-12-29T10:59:18.898Z</time>
      </trkpt>
      <trkpt lat="44.23533" lon="0.32818">
        <ele>83.490185</ele>
        <time>2022-12-29T10:59:22.875Z</time>
      </trkpt>
      <trkpt lat="44.23526" lon="0.32829">
        <ele>83.681786</ele>
        <time>2022-12-29T10:59:26.898Z</time>
      </trkpt>
      <trkpt lat="44.23518" lon="0.32841">
        <ele>83.881142</ele>
        <time>2022-12-29T10:59:30.877Z</time>
      </trkpt>
      <trkpt lat="44.2351" lon="0.32853">
        <ele>84.090483</ele>
        <time>2022-12-29T10:59:34.889Z</time>
      </trkpt>
      <trkpt lat="44.23502" lon="0.32862">
        <ele>84.261675</ele>
        <time>2022-12-29T10:59:37.893Z</time>
      </trkpt>
      <trkpt lat="44.23494" lon="0.32874">
        <ele>84.463442</ele>
        <time>2022-12-29T10:59:41.897Z</time>
      </trkpt>
      <trkpt lat="44.23487" lon="0.32884">
        <ele>84.636212</ele>
        <time>2022-12-29T10:59:45.901Z</time>
      </trkpt>
      <trkpt lat="44.23481" lon="0.32894">
        <ele>84.808013</ele>
        <time>2022-12-29T10:59:50.895Z</time>
      </trkpt>
      <trkpt lat="44.2348" lon="0.32907">
        <ele>84.972057</ele>
        <time>2022-12-29T10:59:56.878Z</time>
      </trkpt>
      <trkpt lat="44.23475" lon="0.32918">
        <ele>85.135164</ele>
        <time>2022-12-29T11:00:03.881Z</time>
      </trkpt>
      <trkpt lat="44.23469" lon="0.32928">
        <ele>85.306044</ele>
        <time>2022-12-29T11:00:14.873Z</time>
      </trkpt>
      <trkpt lat="44.23462" lon="0.32937">
        <ele>85.498965</ele>
        <time>2022-12-29T11:00:24.875Z</time>
      </trkpt>
      <trkpt lat="44.23455" lon="0.32946">
        <ele>85.679317</ele>
        <time>2022-12-29T11:00:35.877Z</time>
      </trkpt>
      <trkpt lat="44.23448" lon="0.32955">
        <ele>85.866937</ele>
        <time>2022-12-29T11:00:47.877Z</time>
      </trkpt>
      <trkpt lat="44.23441" lon="0.32964">
        <ele>86.055653</ele>
        <time>2022-12-29T11:01:00.878Z</time>
      </trkpt>
      <trkpt lat="44.23433" lon="0.32971">
        <ele>86.252366</ele>
        <time>2022-12-29T11:01:11.884Z</time>
      </trkpt>
      <trkpt lat="44.23424" lon="0.32975">
        <ele>86.43241</ele>
        <time>2022-12-29T11:01:17.876Z</time>
      </trkpt>
      <trkpt lat="44.23419" lon="0.32986">
        <ele>86.621349</ele>
        <time>2022-12-29T11:01:24.881Z</time>
      </trkpt>
      <trkpt lat="44.23412" lon="0.32996">
        <ele>86.811451</ele>
        <time>2022-12-29T11:01:29.876Z</time>
      </trkpt>
      <trkpt lat="44.23405" lon="0.33006">
        <ele>87.021647</ele>
        <time>2022-12-29T11:01:34.900Z</time>
      </trkpt>
      <trkpt lat="44.23396" lon="0.33018">
        <ele>87.256134</ele>
        <time>2022-12-29T11:01:38.901Z</time>
      </trkpt>
      <trkpt lat="44.2339" lon="0.33028">
        <ele>87.44927</ele>
        <time>2022-12-29T11:01:41.896Z</time>
      </trkpt>
      <trkpt lat="44.23382" lon="0.33038">
        <ele>87.655384</ele>
        <time>2022-12-29T11:01:44.895Z</time>
      </trkpt>
      <trkpt lat="44.23374" lon="0.33048">
        <ele>87.860203</ele>
        <time>2022-12-29T11:01:47.897Z</time>
      </trkpt>
      <trkpt lat="44.23366" lon="0.33059">
        <ele>88.093585</ele>
        <time>2022-12-29T11:01:51.896Z</time>
      </trkpt>
      <trkpt lat="44.23358" lon="0.3307">
        <ele>88.312522</ele>
        <time>2022-12-29T11:01:55.893Z</time>
      </trkpt>
      <trkpt lat="44.2335" lon="0.33083">
        <ele>88.553848</ele>
        <time>2022-12-29T11:01:59.895Z</time>
      </trkpt>
      <trkpt lat="44.23342" lon="0.33092">
        <ele>88.755885</ele>
        <time>2022-12-29T11:02:02.881Z</time>
      </trkpt>
      <trkpt lat="44.23335" lon="0.33102">
        <ele>88.766164</ele>
        <time>2022-12-29T11:02:05.896Z</time>
      </trkpt>
      <trkpt lat="44.23327" lon="0.33113">
        <ele>88.675079</ele>
        <time>2022-12-29T11:02:08.892Z</time>
      </trkpt>
      <trkpt lat="44.23318" lon="0.33124">
        <ele>88.577869</ele>
        <time>2022-12-29T11:02:11.900Z</time>
      </trkpt>
      <trkpt lat="44.2331" lon="0.33136">
        <ele>88.482818</ele>
        <time>2022-12-29T11:02:14.896Z</time>
      </trkpt>
      <trkpt lat="44.23302" lon="0.33146">
        <ele>88.393979</ele>
        <time>2022-12-29T11:02:17.895Z</time>
      </trkpt>
      <trkpt lat="44.23295" lon="0.33155">
        <ele>88.317082</ele>
        <time>2022-12-29T11:02:20.896Z</time>
      </trkpt>
      <trkpt lat="44.23287" lon="0.33166">
        <ele>88.222863</ele>
        <time>2022-12-29T11:02:24.901Z</time>
      </trkpt>
      <trkpt lat="44.2328" lon="0.33174">
        <ele>88.147891</ele>
        <time>2022-12-29T11:02:27.900Z</time>
      </trkpt>
      <trkpt lat="44.23272" lon="0.33185">
        <ele>88.0592</ele>
        <time>2022-12-29T11:02:31.891Z</time>
      </trkpt>
      <trkpt lat="44.23265" lon="0.33195">
        <ele>87.978572</ele>
        <time>2022-12-29T11:02:34.888Z</time>
      </trkpt>
      <trkpt lat="44.23258" lon="0.33206">
        <ele>87.89103</ele>
        <time>2022-12-29T11:02:37.900Z</time>
      </trkpt>
      <trkpt lat="44.2325" lon="0.33217">
        <ele>87.801801</ele>
        <time>2022-12-29T11:02:40.902Z</time>
      </trkpt>
      <trkpt lat="44.23242" lon="0.33228">
        <ele>87.706166</ele>
        <time>2022-12-29T11:02:43.899Z</time>
      </trkpt>
      <trkpt lat="44.23233" lon="0.3324">
        <ele>87.609538</ele>
        <time>2022-12-29T11:02:46.899Z</time>
      </trkpt>
      <trkpt lat="44.23224" lon="0.33251">
        <ele>87.507891</ele>
        <time>2022-12-29T11:02:49.904Z</time>
      </trkpt>
      <trkpt lat="44.23216" lon="0.33262">
        <ele>87.416661</ele>
        <time>2022-12-29T11:02:52.879Z</time>
      </trkpt>
      <trkpt lat="44.23209" lon="0.33272">
        <ele>87.351764</ele>
        <time>2022-12-29T11:02:55.900Z</time>
      </trkpt>
      <trkpt lat="44.23201" lon="0.33282">
        <ele>87.342152</ele>
        <time>2022-12-29T11:02:58.905Z</time>
      </trkpt>
      <trkpt lat="44.23194" lon="0.33292">
        <ele>87.332866</ele>
        <time>2022-12-29T11:03:01.897Z</time>
      </trkpt>
      <trkpt lat="44.23187" lon="0.33301">
        <ele>87.324008</ele>
        <time>2022-12-29T11:03:04.895Z</time>
      </trkpt>
      <trkpt lat="44.2318" lon="0.3331">
        <ele>87.315549</ele>
        <time>2022-12-29T11:03:07.892Z</time>
      </trkpt>
      <trkpt lat="44.23173" lon="0.3332">
        <ele>87.3065</ele>
        <time>2022-12-29T11:03:10.900Z</time>
      </trkpt>
      <trkpt lat="44.23166" lon="0.33331">
        <ele>87.296954</ele>
        <time>2022-12-29T11:03:13.901Z</time>
      </trkpt>
      <trkpt lat="44.23158" lon="0.33341">
        <ele>87.286894</ele>
        <time>2022-12-29T11:03:16.900Z</time>
      </trkpt>
      <trkpt lat="44.2315" lon="0.33352">
        <ele>87.27688</ele>
        <time>2022-12-29T11:03:19.900Z</time>
      </trkpt>
      <trkpt lat="44.23141" lon="0.33363">
        <ele>87.26618</ele>
        <time>2022-12-29T11:03:22.876Z</time>
      </trkpt>
      <trkpt lat="44.23133" lon="0.33375">
        <ele>87.255529</ele>
        <time>2022-12-29T11:03:25.900Z</time>
      </trkpt>
      <trkpt lat="44.23124" lon="0.33388">
        <ele>87.243541</ele>
        <time>2022-12-29T11:03:28.902Z</time>
      </trkpt>
      <trkpt lat="44.23115" lon="0.33399">
        <ele>87.232752</ele>
        <time>2022-12-29T11:03:31.906Z</time>
      </trkpt>
      <trkpt lat="44.23106" lon="0.33411">
        <ele>87.221597</ele>
        <time>2022-12-29T11:03:34.892Z</time>
      </trkpt>
      <trkpt lat="44.23097" lon="0.33424">
        <ele>87.209908</ele>
        <time>2022-12-29T11:03:37.883Z</time>
      </trkpt>
      <trkpt lat="44.2309" lon="0.33436">
        <ele>87.199517</ele>
        <time>2022-12-29T11:03:40.887Z</time>
      </trkpt>
      <trkpt lat="44.23082" lon="0.33449">
        <ele>87.19554</ele>
        <time>2022-12-29T11:03:43.902Z</time>
      </trkpt>
      <trkpt lat="44.23073" lon="0.33462">
        <ele>87.225621</ele>
        <time>2022-12-29T11:03:46.894Z</time>
      </trkpt>
      <trkpt lat="44.23066" lon="0.33473">
        <ele>87.251809</ele>
        <time>2022-12-29T11:03:49.900Z</time>
      </trkpt>
      <trkpt lat="44.23058" lon="0.33484">
        <ele>87.278627</ele>
        <time>2022-12-29T11:03:52.877Z</time>
      </trkpt>
      <trkpt lat="44.2305" lon="0.33497">
        <ele>87.307428</ele>
        <time>2022-12-29T11:03:55.898Z</time>
      </trkpt>
      <trkpt lat="44.23044" lon="0.33508">
        <ele>87.330603</ele>
        <time>2022-12-29T11:03:58.895Z</time>
      </trkpt>
      <trkpt lat="44.23037" lon="0.3352">
        <ele>87.357732</ele>
        <time>2022-12-29T11:04:01.874Z</time>
      </trkpt>
      <trkpt lat="44.23029" lon="0.33534">
        <ele>87.388435</ele>
        <time>2022-12-29T11:04:04.899Z</time>
      </trkpt>
      <trkpt lat="44.23022" lon="0.33549">
        <ele>87.418716</ele>
        <time>2022-12-29T11:04:07.896Z</time>
      </trkpt>
      <trkpt lat="44.23015" lon="0.33563">
        <ele>87.447756</ele>
        <time>2022-12-29T11:04:10.893Z</time>
      </trkpt>
      <trkpt lat="44.23009" lon="0.33577">
        <ele>87.4762</ele>
        <time>2022-12-29T11:04:13.899Z</time>
      </trkpt>
      <trkpt lat="44.23003" lon="0.33591">
        <ele>87.504107</ele>
        <time>2022-12-29T11:04:16.900Z</time>
      </trkpt>
      <trkpt lat="44.22998" lon="0.33606">
        <ele>87.532729</ele>
        <time>2022-12-29T11:04:19.876Z</time>
      </trkpt>
      <trkpt lat="44.2299" lon="0.3362">
        <ele>87.563577</ele>
        <time>2022-12-29T11:04:22.881Z</time>
      </trkpt>
      <trkpt lat="44.22984" lon="0.33634">
        <ele>87.591263</ele>
        <time>2022-12-29T11:04:25.882Z</time>
      </trkpt>
      <trkpt lat="44.22978" lon="0.33649">
        <ele>87.620569</ele>
        <time>2022-12-29T11:04:28.899Z</time>
      </trkpt>
      <trkpt lat="44.22973" lon="0.33664">
        <ele>87.399747</ele>
        <time>2022-12-29T11:04:31.905Z</time>
      </trkpt>
      <trkpt lat="44.22968" lon="0.3368">
        <ele>87.172795</ele>
        <time>2022-12-29T11:04:34.894Z</time>
      </trkpt>
      <trkpt lat="44.22962" lon="0.33697">
        <ele>86.926385</ele>
        <time>2022-12-29T11:04:37.890Z</time>
      </trkpt>
      <trkpt lat="44.22959" lon="0.33709">
        <ele>86.756706</ele>
        <time>2022-12-29T11:04:39.898Z</time>
      </trkpt>
      <trkpt lat="44.22955" lon="0.33727">
        <ele>86.513759</ele>
        <time>2022-12-29T11:04:42.881Z</time>
      </trkpt>
      <trkpt lat="44.22951" lon="0.33739">
        <ele>86.344329</ele>
        <time>2022-12-29T11:04:44.899Z</time>
      </trkpt>
      <trkpt lat="44.22947" lon="0.33755">
        <ele>86.123573</ele>
        <time>2022-12-29T11:04:47.890Z</time>
      </trkpt>
      <trkpt lat="44.22944" lon="0.33768">
        <ele>85.939241</ele>
        <time>2022-12-29T11:04:50.892Z</time>
      </trkpt>
      <trkpt lat="44.22941" lon="0.33783">
        <ele>85.740497</ele>
        <time>2022-12-29T11:04:53.900Z</time>
      </trkpt>
      <trkpt lat="44.22938" lon="0.338">
        <ele>85.513325</ele>
        <time>2022-12-29T11:04:56.891Z</time>
      </trkpt>
      <trkpt lat="44.22936" lon="0.33817">
        <ele>85.280633</ele>
        <time>2022-12-29T11:04:59.897Z</time>
      </trkpt>
      <trkpt lat="44.22933" lon="0.33836">
        <ele>85.035173</ele>
        <time>2022-12-29T11:05:02.877Z</time>
      </trkpt>
      <trkpt lat="44.22931" lon="0.33848">
        <ele>84.865969</ele>
        <time>2022-12-29T11:05:04.899Z</time>
      </trkpt>
      <trkpt lat="44.2293" lon="0.33861">
        <ele>84.6995</ele>
        <time>2022-12-29T11:05:06.895Z</time>
      </trkpt>
      <trkpt lat="44.22928" lon="0.33879">
        <ele>84.459124</ele>
        <time>2022-12-29T11:05:09.899Z</time>
      </trkpt>
      <trkpt lat="44.22927" lon="0.33897">
        <ele>84.336619</ele>
        <time>2022-12-29T11:05:12.877Z</time>
      </trkpt>
      <trkpt lat="44.22925" lon="0.33915">
        <ele>84.342572</ele>
        <time>2022-12-29T11:05:15.883Z</time>
      </trkpt>
      <trkpt lat="44.22925" lon="0.33933">
        <ele>84.348657</ele>
        <time>2022-12-29T11:05:18.897Z</time>
      </trkpt>
      <trkpt lat="44.22924" lon="0.33952">
        <ele>84.354744</ele>
        <time>2022-12-29T11:05:21.894Z</time>
      </trkpt>
      <trkpt lat="44.22924" lon="0.33969">
        <ele>84.36049</ele>
        <time>2022-12-29T11:05:24.897Z</time>
      </trkpt>
      <trkpt lat="44.22925" lon="0.33987">
        <ele>84.366411</ele>
        <time>2022-12-29T11:05:27.899Z</time>
      </trkpt>
      <trkpt lat="44.22925" lon="0.34006">
        <ele>84.372629</ele>
        <time>2022-12-29T11:05:30.896Z</time>
      </trkpt>
      <trkpt lat="44.22926" lon="0.34024">
        <ele>84.378614</ele>
        <time>2022-12-29T11:05:33.895Z</time>
      </trkpt>
      <trkpt lat="44.22927" lon="0.3404">
        <ele>84.384236</ele>
        <time>2022-12-29T11:05:36.900Z</time>
      </trkpt>
      <trkpt lat="44.22928" lon="0.34056">
        <ele>84.389448</ele>
        <time>2022-12-29T11:05:39.892Z</time>
      </trkpt>
      <trkpt lat="44.22928" lon="0.3407">
        <ele>84.394135</ele>
        <time>2022-12-29T11:05:42.879Z</time>
      </trkpt>
      <trkpt lat="44.22929" lon="0.34085">
        <ele>84.399105</ele>
        <time>2022-12-29T11:05:45.897Z</time>
      </trkpt>
      <trkpt lat="44.22932" lon="0.34101">
        <ele>84.404426</ele>
        <time>2022-12-29T11:05:48.875Z</time>
      </trkpt>
      <trkpt lat="44.22935" lon="0.34117">
        <ele>84.409929</ele>
        <time>2022-12-29T11:05:51.887Z</time>
      </trkpt>
      <trkpt lat="44.22938" lon="0.34133">
        <ele>84.415659</ele>
        <time>2022-12-29T11:05:54.888Z</time>
      </trkpt>
      <trkpt lat="44.22941" lon="0.34151">
        <ele>84.544939</ele>
        <time>2022-12-29T11:05:57.900Z</time>
      </trkpt>
      <trkpt lat="44.22944" lon="0.34167">
        <ele>84.70389</ele>
        <time>2022-12-29T11:06:00.877Z</time>
      </trkpt>
      <trkpt lat="44.22947" lon="0.34182">
        <ele>84.856007</ele>
        <time>2022-12-29T11:06:03.900Z</time>
      </trkpt>
      <trkpt lat="44.22949" lon="0.34197">
        <ele>85.000796</ele>
        <time>2022-12-29T11:06:06.897Z</time>
      </trkpt>
      <trkpt lat="44.22953" lon="0.34212">
        <ele>85.150649</ele>
        <time>2022-12-29T11:06:09.881Z</time>
      </trkpt>
      <trkpt lat="44.22956" lon="0.34229">
        <ele>85.308918</ele>
        <time>2022-12-29T11:06:12.878Z</time>
      </trkpt>
      <trkpt lat="44.22959" lon="0.34244">
        <ele>85.461495</ele>
        <time>2022-12-29T11:06:15.898Z</time>
      </trkpt>
      <trkpt lat="44.22961" lon="0.34257">
        <ele>85.586338</ele>
        <time>2022-12-29T11:06:18.878Z</time>
      </trkpt>
      <trkpt lat="44.22964" lon="0.34269">
        <ele>85.707511</ele>
        <time>2022-12-29T11:06:21.901Z</time>
      </trkpt>
      <trkpt lat="44.22968" lon="0.34281">
        <ele>85.834174</ele>
        <time>2022-12-29T11:06:24.878Z</time>
      </trkpt>
      <trkpt lat="44.22971" lon="0.34294">
        <ele>85.963864</ele>
        <time>2022-12-29T11:06:27.902Z</time>
      </trkpt>
      <trkpt lat="44.22974" lon="0.34307">
        <ele>86.093709</ele>
        <time>2022-12-29T11:06:30.899Z</time>
      </trkpt>
      <trkpt lat="44.22978" lon="0.34321">
        <ele>86.23831</ele>
        <time>2022-12-29T11:06:34.900Z</time>
      </trkpt>
      <trkpt lat="44.22983" lon="0.34333">
        <ele>86.365962</ele>
        <time>2022-12-29T11:06:38.899Z</time>
      </trkpt>
      <trkpt lat="44.22989" lon="0.34343">
        <ele>86.492826</ele>
        <time>2022-12-29T11:06:44.884Z</time>
      </trkpt>
      <trkpt lat="44.22987" lon="0.34359">
        <ele>86.641796</ele>
        <time>2022-12-29T11:06:49.894Z</time>
      </trkpt>
      <trkpt lat="44.22989" lon="0.34374">
        <ele>86.781925</ele>
        <time>2022-12-29T11:06:53.885Z</time>
      </trkpt>
      <trkpt lat="44.22992" lon="0.34386">
        <ele>86.801986</ele>
        <time>2022-12-29T11:06:56.885Z</time>
      </trkpt>
      <trkpt lat="44.22995" lon="0.34399">
        <ele>86.81361</ele>
        <time>2022-12-29T11:06:59.894Z</time>
      </trkpt>
      <trkpt lat="44.22999" lon="0.34412">
        <ele>86.826082</ele>
        <time>2022-12-29T11:07:02.878Z</time>
      </trkpt>
      <trkpt lat="44.23002" lon="0.34427">
        <ele>86.839679</ele>
        <time>2022-12-29T11:07:05.890Z</time>
      </trkpt>
      <trkpt lat="44.23006" lon="0.34444">
        <ele>86.855472</ele>
        <time>2022-12-29T11:07:08.902Z</time>
      </trkpt>
      <trkpt lat="44.2301" lon="0.3446">
        <ele>86.869546</ele>
        <time>2022-12-29T11:07:11.892Z</time>
      </trkpt>
      <trkpt lat="44.23012" lon="0.34474">
        <ele>86.88211</ele>
        <time>2022-12-29T11:07:14.885Z</time>
      </trkpt>
      <trkpt lat="44.23016" lon="0.34487">
        <ele>86.894057</ele>
        <time>2022-12-29T11:07:17.899Z</time>
      </trkpt>
      <trkpt lat="44.23019" lon="0.34501">
        <ele>86.907146</ele>
        <time>2022-12-29T11:07:20.903Z</time>
      </trkpt>
      <trkpt lat="44.23022" lon="0.34517">
        <ele>86.921515</ele>
        <time>2022-12-29T11:07:23.883Z</time>
      </trkpt>
      <trkpt lat="44.23025" lon="0.34533">
        <ele>86.935571</ele>
        <time>2022-12-29T11:07:26.899Z</time>
      </trkpt>
      <trkpt lat="44.23027" lon="0.3455">
        <ele>86.950795</ele>
        <time>2022-12-29T11:07:29.892Z</time>
      </trkpt>
      <trkpt lat="44.2303" lon="0.34567">
        <ele>86.966189</ele>
        <time>2022-12-29T11:07:32.886Z</time>
      </trkpt>
      <trkpt lat="44.23033" lon="0.34584">
        <ele>86.980864</ele>
        <time>2022-12-29T11:07:35.898Z</time>
      </trkpt>
      <trkpt lat="44.23035" lon="0.34599">
        <ele>86.994922</ele>
        <time>2022-12-29T11:07:38.897Z</time>
      </trkpt>
      <trkpt lat="44.23037" lon="0.34613">
        <ele>87.006704</ele>
        <time>2022-12-29T11:07:41.899Z</time>
      </trkpt>
      <trkpt lat="44.23039" lon="0.34626">
        <ele>87.000059</ele>
        <time>2022-12-29T11:07:44.876Z</time>
      </trkpt>
      <trkpt lat="44.23041" lon="0.34642">
        <ele>86.985562</ele>
        <time>2022-12-29T11:07:47.886Z</time>
      </trkpt>
      <trkpt lat="44.23042" lon="0.3466">
        <ele>86.96987</ele>
        <time>2022-12-29T11:07:50.885Z</time>
      </trkpt>
      <trkpt lat="44.23043" lon="0.34676">
        <ele>86.955621</ele>
        <time>2022-12-29T11:07:53.898Z</time>
      </trkpt>
      <trkpt lat="44.23045" lon="0.3469">
        <ele>86.942516</ele>
        <time>2022-12-29T11:07:56.886Z</time>
      </trkpt>
      <trkpt lat="44.23048" lon="0.34703">
        <ele>86.930733</ele>
        <time>2022-12-29T11:07:59.898Z</time>
      </trkpt>
      <trkpt lat="44.23049" lon="0.34716">
        <ele>86.919432</ele>
        <time>2022-12-29T11:08:02.874Z</time>
      </trkpt>
      <trkpt lat="44.23046" lon="0.3473">
        <ele>86.906387</ele>
        <time>2022-12-29T11:08:05.878Z</time>
      </trkpt>
      <trkpt lat="44.23044" lon="0.34745">
        <ele>86.892794</ele>
        <time>2022-12-29T11:08:08.895Z</time>
      </trkpt>
      <trkpt lat="44.23043" lon="0.34759">
        <ele>86.879963</ele>
        <time>2022-12-29T11:08:11.893Z</time>
      </trkpt>
      <trkpt lat="44.23042" lon="0.34775">
        <ele>86.866181</ele>
        <time>2022-12-29T11:08:14.899Z</time>
      </trkpt>
      <trkpt lat="44.2304" lon="0.3479">
        <ele>86.852698</ele>
        <time>2022-12-29T11:08:17.881Z</time>
      </trkpt>
      <trkpt lat="44.23039" lon="0.34804">
        <ele>86.840387</ele>
        <time>2022-12-29T11:08:20.891Z</time>
      </trkpt>
      <trkpt lat="44.23037" lon="0.34818">
        <ele>86.827326</ele>
        <time>2022-12-29T11:08:23.898Z</time>
      </trkpt>
      <trkpt lat="44.23035" lon="0.34833">
        <ele>86.813657</ele>
        <time>2022-12-29T11:08:26.901Z</time>
      </trkpt>
      <trkpt lat="44.23034" lon="0.3485">
        <ele>86.7989</ele>
        <time>2022-12-29T11:08:29.899Z</time>
      </trkpt>
      <trkpt lat="44.23032" lon="0.34867">
        <ele>86.743695</ele>
        <time>2022-12-29T11:08:32.884Z</time>
      </trkpt>
      <trkpt lat="44.2303" lon="0.34885">
        <ele>86.546405</ele>
        <time>2022-12-29T11:08:35.898Z</time>
      </trkpt>
      <trkpt lat="44.23027" lon="0.34897">
        <ele>86.40892</ele>
        <time>2022-12-29T11:08:37.897Z</time>
      </trkpt>
      <trkpt lat="44.23024" lon="0.34909">
        <ele>86.271904</ele>
        <time>2022-12-29T11:08:39.886Z</time>
      </trkpt>
      <trkpt lat="44.2302" lon="0.34925">
        <ele>86.094276</ele>
        <time>2022-12-29T11:08:42.880Z</time>
      </trkpt>
      <trkpt lat="44.23017" lon="0.34938">
        <ele>85.939309</ele>
        <time>2022-12-29T11:08:45.901Z</time>
      </trkpt>
      <trkpt lat="44.23014" lon="0.34954">
        <ele>85.768596</ele>
        <time>2022-12-29T11:08:48.900Z</time>
      </trkpt>
      <trkpt lat="44.2301" lon="0.34969">
        <ele>85.59038</ele>
        <time>2022-12-29T11:08:51.899Z</time>
      </trkpt>
      <trkpt lat="44.23005" lon="0.34986">
        <ele>85.39535</ele>
        <time>2022-12-29T11:08:54.889Z</time>
      </trkpt>
      <trkpt lat="44.22999" lon="0.35002">
        <ele>85.20282</ele>
        <time>2022-12-29T11:08:57.890Z</time>
      </trkpt>
      <trkpt lat="44.22994" lon="0.35018">
        <ele>85.008782</ele>
        <time>2022-12-29T11:09:00.878Z</time>
      </trkpt>
      <trkpt lat="44.22989" lon="0.35033">
        <ele>84.831143</ele>
        <time>2022-12-29T11:09:03.897Z</time>
      </trkpt>
      <trkpt lat="44.22985" lon="0.35046">
        <ele>84.684962</ele>
        <time>2022-12-29T11:09:06.897Z</time>
      </trkpt>
      <trkpt lat="44.2298" lon="0.35059">
        <ele>84.524072</ele>
        <time>2022-12-29T11:09:10.874Z</time>
      </trkpt>
      <trkpt lat="44.22974" lon="0.35072">
        <ele>84.356428</ele>
        <time>2022-12-29T11:09:13.891Z</time>
      </trkpt>
      <trkpt lat="44.22968" lon="0.35088">
        <ele>84.166815</ele>
        <time>2022-12-29T11:09:16.892Z</time>
      </trkpt>
      <trkpt lat="44.22961" lon="0.35103">
        <ele>84.302059</ele>
        <time>2022-12-29T11:09:19.880Z</time>
      </trkpt>
      <trkpt lat="44.22955" lon="0.35118">
        <ele>84.651126</ele>
        <time>2022-12-29T11:09:22.879Z</time>
      </trkpt>
      <trkpt lat="44.22949" lon="0.35132">
        <ele>84.99237</ele>
        <time>2022-12-29T11:09:25.888Z</time>
      </trkpt>
      <trkpt lat="44.22942" lon="0.35147">
        <ele>85.348602</ele>
        <time>2022-12-29T11:09:28.879Z</time>
      </trkpt>
      <trkpt lat="44.22936" lon="0.35162">
        <ele>85.705104</ele>
        <time>2022-12-29T11:09:31.886Z</time>
      </trkpt>
      <trkpt lat="44.22928" lon="0.35175">
        <ele>86.058914</ele>
        <time>2022-12-29T11:09:34.900Z</time>
      </trkpt>
      <trkpt lat="44.22921" lon="0.35187">
        <ele>86.37147</ele>
        <time>2022-12-29T11:09:37.880Z</time>
      </trkpt>
      <trkpt lat="44.22915" lon="0.352">
        <ele>86.688804</ele>
        <time>2022-12-29T11:09:40.882Z</time>
      </trkpt>
      <trkpt lat="44.22909" lon="0.35213">
        <ele>87.01418</ele>
        <time>2022-12-29T11:09:43.901Z</time>
      </trkpt>
      <trkpt lat="44.22903" lon="0.35225">
        <ele>87.311251</ele>
        <time>2022-12-29T11:09:46.880Z</time>
      </trkpt>
      <trkpt lat="44.22895" lon="0.3524">
        <ele>87.683253</ele>
        <time>2022-12-29T11:09:49.881Z</time>
      </trkpt>
      <trkpt lat="44.22888" lon="0.35254">
        <ele>88.046972</ele>
        <time>2022-12-29T11:09:52.882Z</time>
      </trkpt>
      <trkpt lat="44.22881" lon="0.35269">
        <ele>88.3995</ele>
        <time>2022-12-29T11:09:55.896Z</time>
      </trkpt>
      <trkpt lat="44.22875" lon="0.35283">
        <ele>88.741844</ele>
        <time>2022-12-29T11:09:58.884Z</time>
      </trkpt>
      <trkpt lat="44.22867" lon="0.35297">
        <ele>89.107169</ele>
        <time>2022-12-29T11:10:01.890Z</time>
      </trkpt>
      <trkpt lat="44.22861" lon="0.35312">
        <ele>89.154545</ele>
        <time>2022-12-29T11:10:04.896Z</time>
      </trkpt>
      <trkpt lat="44.22855" lon="0.35325">
        <ele>89.044905</ele>
        <time>2022-12-29T11:10:07.883Z</time>
      </trkpt>
      <trkpt lat="44.22849" lon="0.35335">
        <ele>88.952187</ele>
        <time>2022-12-29T11:10:10.878Z</time>
      </trkpt>
      <trkpt lat="44.22845" lon="0.35346">
        <ele>88.861447</ele>
        <time>2022-12-29T11:10:13.881Z</time>
      </trkpt>
      <trkpt lat="44.22838" lon="0.35359">
        <ele>88.745334</ele>
        <time>2022-12-29T11:10:16.886Z</time>
      </trkpt>
      <trkpt lat="44.22832" lon="0.35373">
        <ele>88.626377</ele>
        <time>2022-12-29T11:10:19.883Z</time>
      </trkpt>
      <trkpt lat="44.22825" lon="0.35387">
        <ele>88.506831</ele>
        <time>2022-12-29T11:10:22.876Z</time>
      </trkpt>
      <trkpt lat="44.22819" lon="0.35401">
        <ele>88.388775</ele>
        <time>2022-12-29T11:10:25.883Z</time>
      </trkpt>
      <trkpt lat="44.22812" lon="0.35413">
        <ele>88.278543</ele>
        <time>2022-12-29T11:10:28.892Z</time>
      </trkpt>
      <trkpt lat="44.22807" lon="0.35425">
        <ele>88.178767</ele>
        <time>2022-12-29T11:10:31.883Z</time>
      </trkpt>
      <trkpt lat="44.22801" lon="0.35438">
        <ele>88.069443</ele>
        <time>2022-12-29T11:10:34.873Z</time>
      </trkpt>
      <trkpt lat="44.22795" lon="0.3545">
        <ele>87.963269</ele>
        <time>2022-12-29T11:10:37.890Z</time>
      </trkpt>
      <trkpt lat="44.2279" lon="0.35464">
        <ele>87.854105</ele>
        <time>2022-12-29T11:10:41.900Z</time>
      </trkpt>
      <trkpt lat="44.22783" lon="0.35476">
        <ele>87.744981</ele>
        <time>2022-12-29T11:10:46.897Z</time>
      </trkpt>
      <trkpt lat="44.22778" lon="0.35489">
        <ele>87.637408</ele>
        <time>2022-12-29T11:10:50.900Z</time>
      </trkpt>
      <trkpt lat="44.22778" lon="0.35502">
        <ele>87.541815</ele>
        <time>2022-12-29T11:10:54.888Z</time>
      </trkpt>
      <trkpt lat="44.22774" lon="0.35515">
        <ele>87.441241</ele>
        <time>2022-12-29T11:10:59.884Z</time>
      </trkpt>
      <trkpt lat="44.22764" lon="0.35523">
        <ele>87.240727</ele>
        <time>2022-12-29T11:11:03.876Z</time>
      </trkpt>
      <trkpt lat="44.22757" lon="0.35533">
        <ele>87.032649</ele>
        <time>2022-12-29T11:11:07.895Z</time>
      </trkpt>
      <trkpt lat="44.22751" lon="0.35546">
        <ele>86.81275</ele>
        <time>2022-12-29T11:11:11.885Z</time>
      </trkpt>
      <trkpt lat="44.22744" lon="0.35558">
        <ele>86.61209</ele>
        <time>2022-12-29T11:11:15.896Z</time>
      </trkpt>
      <trkpt lat="44.22737" lon="0.35569">
        <ele>86.403559</ele>
        <time>2022-12-29T11:11:19.876Z</time>
      </trkpt>
      <trkpt lat="44.22733" lon="0.35579">
        <ele>86.22782</ele>
        <time>2022-12-29T11:11:22.877Z</time>
      </trkpt>
      <trkpt lat="44.22727" lon="0.35592">
        <ele>86.024035</ele>
        <time>2022-12-29T11:11:26.899Z</time>
      </trkpt>
      <trkpt lat="44.22722" lon="0.35602">
        <ele>85.84283</ele>
        <time>2022-12-29T11:11:29.877Z</time>
      </trkpt>
      <trkpt lat="44.22716" lon="0.35613">
        <ele>85.660552</ele>
        <time>2022-12-29T11:11:32.878Z</time>
      </trkpt>
      <trkpt lat="44.22711" lon="0.35625">
        <ele>85.453016</ele>
        <time>2022-12-29T11:11:35.900Z</time>
      </trkpt>
      <trkpt lat="44.22704" lon="0.35639">
        <ele>85.22487</ele>
        <time>2022-12-29T11:11:38.897Z</time>
      </trkpt>
      <trkpt lat="44.22698" lon="0.35653">
        <ele>84.987531</ele>
        <time>2022-12-29T11:11:41.890Z</time>
      </trkpt>
      <trkpt lat="44.22692" lon="0.35666">
        <ele>84.772155</ele>
        <time>2022-12-29T11:11:44.888Z</time>
      </trkpt>
      <trkpt lat="44.22686" lon="0.35677">
        <ele>84.575061</ele>
        <time>2022-12-29T11:11:47.890Z</time>
      </trkpt>
      <trkpt lat="44.2268" lon="0.3569">
        <ele>84.369866</ele>
        <time>2022-12-29T11:11:50.888Z</time>
      </trkpt>
      <trkpt lat="44.22674" lon="0.35703">
        <ele>84.154872</ele>
        <time>2022-12-29T11:11:53.880Z</time>
      </trkpt>
      <trkpt lat="44.22669" lon="0.35716">
        <ele>83.937899</ele>
        <time>2022-12-29T11:11:56.901Z</time>
      </trkpt>
      <trkpt lat="44.22663" lon="0.3573">
        <ele>83.997066</ele>
        <time>2022-12-29T11:11:59.888Z</time>
      </trkpt>
      <trkpt lat="44.22656" lon="0.35742">
        <ele>84.085592</ele>
        <time>2022-12-29T11:12:02.881Z</time>
      </trkpt>
      <trkpt lat="44.22649" lon="0.35755">
        <ele>84.178295</ele>
        <time>2022-12-29T11:12:05.897Z</time>
      </trkpt>
      <trkpt lat="44.22642" lon="0.35768">
        <ele>84.27056</ele>
        <time>2022-12-29T11:12:08.894Z</time>
      </trkpt>
      <trkpt lat="44.22636" lon="0.35781">
        <ele>84.360476</ele>
        <time>2022-12-29T11:12:11.895Z</time>
      </trkpt>
      <trkpt lat="44.22629" lon="0.35794">
        <ele>84.453653</ele>
        <time>2022-12-29T11:12:14.903Z</time>
      </trkpt>
      <trkpt lat="44.22624" lon="0.35805">
        <ele>84.5298</ele>
        <time>2022-12-29T11:12:17.878Z</time>
      </trkpt>
      <trkpt lat="44.22617" lon="0.35816">
        <ele>84.609109</ele>
        <time>2022-12-29T11:12:20.900Z</time>
      </trkpt>
      <trkpt lat="44.22611" lon="0.35828">
        <ele>84.690713</ele>
        <time>2022-12-29T11:12:23.898Z</time>
      </trkpt>
      <trkpt lat="44.22605" lon="0.3584">
        <ele>84.775996</ele>
        <time>2022-12-29T11:12:26.899Z</time>
      </trkpt>
      <trkpt lat="44.22599" lon="0.35853">
        <ele>84.867906</ele>
        <time>2022-12-29T11:12:29.878Z</time>
      </trkpt>
      <trkpt lat="44.22592" lon="0.35867">
        <ele>84.96207</ele>
        <time>2022-12-29T11:12:32.878Z</time>
      </trkpt>
      <trkpt lat="44.22586" lon="0.35881">
        <ele>85.054109</ele>
        <time>2022-12-29T11:12:35.901Z</time>
      </trkpt>
      <trkpt lat="44.2258" lon="0.35895">
        <ele>85.145332</ele>
        <time>2022-12-29T11:12:38.902Z</time>
      </trkpt>
      <trkpt lat="44.22575" lon="0.35907">
        <ele>85.228784</ele>
        <time>2022-12-29T11:12:41.899Z</time>
      </trkpt>
      <trkpt lat="44.22569" lon="0.35917">
        <ele>85.302539</ele>
        <time>2022-12-29T11:12:44.897Z</time>
      </trkpt>
      <trkpt lat="44.22564" lon="0.35928">
        <ele>85.355728</ele>
        <time>2022-12-29T11:12:47.899Z</time>
      </trkpt>
      <trkpt lat="44.22557" lon="0.3594">
        <ele>85.383783</ele>
        <time>2022-12-29T11:12:50.879Z</time>
      </trkpt>
      <trkpt lat="44.22551" lon="0.35953">
        <ele>85.412442</ele>
        <time>2022-12-29T11:12:53.891Z</time>
      </trkpt>
      <trkpt lat="44.22545" lon="0.35967">
        <ele>85.441608</ele>
        <time>2022-12-29T11:12:56.899Z</time>
      </trkpt>
      <trkpt lat="44.22538" lon="0.3598">
        <ele>85.470697</ele>
        <time>2022-12-29T11:12:59.901Z</time>
      </trkpt>
      <trkpt lat="44.22532" lon="0.35993">
        <ele>85.499112</ele>
        <time>2022-12-29T11:13:02.881Z</time>
      </trkpt>
      <trkpt lat="44.22526" lon="0.36008">
        <ele>85.530181</ele>
        <time>2022-12-29T11:13:05.895Z</time>
      </trkpt>
      <trkpt lat="44.22519" lon="0.36022">
        <ele>85.561096</ele>
        <time>2022-12-29T11:13:08.897Z</time>
      </trkpt>
      <trkpt lat="44.22512" lon="0.36037">
        <ele>85.592856</ele>
        <time>2022-12-29T11:13:11.895Z</time>
      </trkpt>
      <trkpt lat="44.22506" lon="0.36051">
        <ele>85.623881</ele>
        <time>2022-12-29T11:13:14.901Z</time>
      </trkpt>
      <trkpt lat="44.22499" lon="0.36065">
        <ele>85.654171</ele>
        <time>2022-12-29T11:13:17.894Z</time>
      </trkpt>
      <trkpt lat="44.22492" lon="0.3608">
        <ele>85.686301</ele>
        <time>2022-12-29T11:13:20.894Z</time>
      </trkpt>
      <trkpt lat="44.22485" lon="0.36095">
        <ele>85.71879</ele>
        <time>2022-12-29T11:13:23.901Z</time>
      </trkpt>
      <trkpt lat="44.22478" lon="0.36109">
        <ele>85.750093</ele>
        <time>2022-12-29T11:13:26.898Z</time>
      </trkpt>
      <trkpt lat="44.22471" lon="0.36124">
        <ele>85.781626</ele>
        <time>2022-12-29T11:13:29.894Z</time>
      </trkpt>
      <trkpt lat="44.22464" lon="0.36138">
        <ele>85.777916</ele>
        <time>2022-12-29T11:13:32.878Z</time>
      </trkpt>
      <trkpt lat="44.22458" lon="0.36154">
        <ele>85.706781</ele>
        <time>2022-12-29T11:13:35.900Z</time>
      </trkpt>
      <trkpt lat="44.22452" lon="0.36168">
        <ele>85.64072</ele>
        <time>2022-12-29T11:13:38.902Z</time>
      </trkpt>
      <trkpt lat="44.22445" lon="0.36184">
        <ele>85.567326</ele>
        <time>2022-12-29T11:13:41.899Z</time>
      </trkpt>
      <trkpt lat="44.22438" lon="0.362">
        <ele>85.494414</ele>
        <time>2022-12-29T11:13:44.899Z</time>
      </trkpt>
      <trkpt lat="44.22431" lon="0.36215">
        <ele>85.423158</ele>
        <time>2022-12-29T11:13:47.898Z</time>
      </trkpt>
      <trkpt lat="44.22424" lon="0.3623">
        <ele>85.353165</ele>
        <time>2022-12-29T11:13:50.896Z</time>
      </trkpt>
      <trkpt lat="44.22416" lon="0.36245">
        <ele>85.277454</ele>
        <time>2022-12-29T11:13:53.899Z</time>
      </trkpt>
      <trkpt lat="44.22408" lon="0.36261">
        <ele>85.204873</ele>
        <time>2022-12-29T11:13:56.882Z</time>
      </trkpt>
      <trkpt lat="44.22402" lon="0.36276">
        <ele>85.134567</ele>
        <time>2022-12-29T11:13:59.893Z</time>
      </trkpt>
      <trkpt lat="44.22396" lon="0.36292">
        <ele>85.06377</ele>
        <time>2022-12-29T11:14:02.881Z</time>
      </trkpt>
      <trkpt lat="44.22389" lon="0.36306">
        <ele>84.997772</ele>
        <time>2022-12-29T11:14:05.895Z</time>
      </trkpt>
      <trkpt lat="44.22384" lon="0.36319">
        <ele>84.935721</ele>
        <time>2022-12-29T11:14:08.893Z</time>
      </trkpt>
      <trkpt lat="44.22377" lon="0.36334">
        <ele>84.869382</ele>
        <time>2022-12-29T11:14:11.902Z</time>
      </trkpt>
      <trkpt lat="44.22371" lon="0.36349">
        <ele>84.802142</ele>
        <time>2022-12-29T11:14:14.897Z</time>
      </trkpt>
      <trkpt lat="44.22365" lon="0.36366">
        <ele>84.748856</ele>
        <time>2022-12-29T11:14:17.896Z</time>
      </trkpt>
      <trkpt lat="44.2236" lon="0.36377">
        <ele>84.709722</ele>
        <time>2022-12-29T11:14:19.887Z</time>
      </trkpt>
      <trkpt lat="44.22355" lon="0.36389">
        <ele>84.671448</ele>
        <time>2022-12-29T11:14:21.883Z</time>
      </trkpt>
      <trkpt lat="44.22351" lon="0.36401">
        <ele>84.633099</ele>
        <time>2022-12-29T11:14:23.877Z</time>
      </trkpt>
      <trkpt lat="44.22347" lon="0.36412">
        <ele>84.596226</ele>
        <time>2022-12-29T11:14:25.903Z</time>
      </trkpt>
      <trkpt lat="44.22343" lon="0.36424">
        <ele>84.559238</ele>
        <time>2022-12-29T11:14:27.900Z</time>
      </trkpt>
      <trkpt lat="44.22336" lon="0.3644">
        <ele>84.505814</ele>
        <time>2022-12-29T11:14:30.900Z</time>
      </trkpt>
      <trkpt lat="44.22332" lon="0.36455">
        <ele>84.45822</ele>
        <time>2022-12-29T11:14:33.899Z</time>
      </trkpt>
      <trkpt lat="44.22327" lon="0.36468">
        <ele>84.416266</ele>
        <time>2022-12-29T11:14:36.887Z</time>
      </trkpt>
      <trkpt lat="44.22322" lon="0.36479">
        <ele>84.378946</ele>
        <time>2022-12-29T11:14:39.903Z</time>
      </trkpt>
      <trkpt lat="44.22316" lon="0.36493">
        <ele>84.331581</ele>
        <time>2022-12-29T11:14:43.898Z</time>
      </trkpt>
      <trkpt lat="44.22313" lon="0.36505">
        <ele>84.293224</ele>
        <time>2022-12-29T11:14:46.900Z</time>
      </trkpt>
      <trkpt lat="44.22308" lon="0.36519">
        <ele>84.249804</ele>
        <time>2022-12-29T11:14:49.892Z</time>
      </trkpt>
      <trkpt lat="44.22303" lon="0.36533">
        <ele>84.204916</ele>
        <time>2022-12-29T11:14:52.883Z</time>
      </trkpt>
      <trkpt lat="44.22298" lon="0.36547">
        <ele>84.158479</ele>
        <time>2022-12-29T11:14:55.898Z</time>
      </trkpt>
      <trkpt lat="44.22292" lon="0.36563">
        <ele>84.106272</ele>
        <time>2022-12-29T11:14:58.902Z</time>
      </trkpt>
      <trkpt lat="44.22286" lon="0.36578">
        <ele>83.960765</ele>
        <time>2022-12-29T11:15:01.896Z</time>
      </trkpt>
      <trkpt lat="44.22281" lon="0.36593">
        <ele>83.755179</ele>
        <time>2022-12-29T11:15:04.893Z</time>
      </trkpt>
      <trkpt lat="44.22276" lon="0.36609">
        <ele>83.547345</ele>
        <time>2022-12-29T11:15:07.896Z</time>
      </trkpt>
      <trkpt lat="44.22271" lon="0.36623">
        <ele>83.343182</ele>
        <time>2022-12-29T11:15:10.883Z</time>
      </trkpt>
      <trkpt lat="44.22265" lon="0.36639">
        <ele>83.125715</ele>
        <time>2022-12-29T11:15:13.900Z</time>
      </trkpt>
      <trkpt lat="44.22262" lon="0.36651">
        <ele>82.969585</ele>
        <time>2022-12-29T11:15:15.902Z</time>
      </trkpt>
      <trkpt lat="44.22255" lon="0.36667">
        <ele>82.744499</ele>
        <time>2022-12-29T11:15:18.882Z</time>
      </trkpt>
      <trkpt lat="44.2225" lon="0.36683">
        <ele>82.524422</ele>
        <time>2022-12-29T11:15:21.899Z</time>
      </trkpt>
      <trkpt lat="44.22244" lon="0.36698">
        <ele>82.309185</ele>
        <time>2022-12-29T11:15:24.897Z</time>
      </trkpt>
      <trkpt lat="44.22239" lon="0.36714">
        <ele>82.099099</ele>
        <time>2022-12-29T11:15:27.897Z</time>
      </trkpt>
      <trkpt lat="44.22234" lon="0.3673">
        <ele>81.883796</ele>
        <time>2022-12-29T11:15:30.879Z</time>
      </trkpt>
      <trkpt lat="44.2223" lon="0.36743">
        <ele>81.701271</ele>
        <time>2022-12-29T11:15:33.896Z</time>
      </trkpt>
      <trkpt lat="44.22225" lon="0.36754">
        <ele>81.537131</ele>
        <time>2022-12-29T11:15:36.882Z</time>
      </trkpt>
      <trkpt lat="44.22219" lon="0.36767">
        <ele>81.359744</ele>
        <time>2022-12-29T11:15:40.884Z</time>
      </trkpt>
      <trkpt lat="44.22215" lon="0.36782">
        <ele>81.148963</ele>
        <time>2022-12-29T11:15:44.879Z</time>
      </trkpt>
      <trkpt lat="44.22212" lon="0.36796">
        <ele>80.978539</ele>
        <time>2022-12-29T11:15:47.900Z</time>
      </trkpt>
      <trkpt lat="44.22208" lon="0.36811">
        <ele>80.899833</ele>
        <time>2022-12-29T11:15:50.898Z</time>
      </trkpt>
      <trkpt lat="44.22204" lon="0.36825">
        <ele>80.823505</ele>
        <time>2022-12-29T11:15:53.897Z</time>
      </trkpt>
      <trkpt lat="44.22199" lon="0.36841">
        <ele>80.739099</ele>
        <time>2022-12-29T11:15:56.898Z</time>
      </trkpt>
      <trkpt lat="44.22195" lon="0.36857">
        <ele>80.650235</ele>
        <time>2022-12-29T11:15:59.898Z</time>
      </trkpt>
      <trkpt lat="44.2219" lon="0.36872">
        <ele>80.569146</ele>
        <time>2022-12-29T11:16:02.877Z</time>
      </trkpt>
      <trkpt lat="44.22186" lon="0.36888">
        <ele>80.48194</ele>
        <time>2022-12-29T11:16:05.881Z</time>
      </trkpt>
      <trkpt lat="44.22181" lon="0.36903">
        <ele>80.40102</ele>
        <time>2022-12-29T11:16:08.891Z</time>
      </trkpt>
      <trkpt lat="44.22177" lon="0.36916">
        <ele>80.330519</ele>
        <time>2022-12-29T11:16:11.884Z</time>
      </trkpt>
      <trkpt lat="44.22173" lon="0.36931">
        <ele>80.250428</ele>
        <time>2022-12-29T11:16:15.890Z</time>
      </trkpt>
      <trkpt lat="44.22167" lon="0.36946">
        <ele>80.166486</ele>
        <time>2022-12-29T11:16:19.887Z</time>
      </trkpt>
      <trkpt lat="44.22163" lon="0.36959">
        <ele>80.093815</ele>
        <time>2022-12-29T11:16:22.879Z</time>
      </trkpt>
      <trkpt lat="44.22159" lon="0.36973">
        <ele>80.019296</ele>
        <time>2022-12-29T11:16:25.896Z</time>
      </trkpt>
      <trkpt lat="44.22155" lon="0.36988">
        <ele>79.939185</ele>
        <time>2022-12-29T11:16:28.886Z</time>
      </trkpt>
      <trkpt lat="44.22151" lon="0.37002">
        <ele>79.858297</ele>
        <time>2022-12-29T11:16:31.900Z</time>
      </trkpt>
      <trkpt lat="44.22147" lon="0.37018">
        <ele>79.77442</ele>
        <time>2022-12-29T11:16:34.900Z</time>
      </trkpt>
      <trkpt lat="44.22143" lon="0.37034">
        <ele>79.832319</ele>
        <time>2022-12-29T11:16:37.874Z</time>
      </trkpt>
      <trkpt lat="44.22139" lon="0.37049">
        <ele>80.068601</ele>
        <time>2022-12-29T11:16:40.895Z</time>
      </trkpt>
      <trkpt lat="44.22135" lon="0.37066">
        <ele>80.320926</ele>
        <time>2022-12-29T11:16:43.900Z</time>
      </trkpt>
      <trkpt lat="44.2213" lon="0.37081">
        <ele>80.572876</ele>
        <time>2022-12-29T11:16:46.900Z</time>
      </trkpt>
      <trkpt lat="44.22126" lon="0.37098">
        <ele>80.83425</ele>
        <time>2022-12-29T11:16:49.896Z</time>
      </trkpt>
      <trkpt lat="44.22122" lon="0.37115">
        <ele>81.107532</ele>
        <time>2022-12-29T11:16:52.880Z</time>
      </trkpt>
      <trkpt lat="44.22118" lon="0.37132">
        <ele>81.369812</ele>
        <time>2022-12-29T11:16:55.891Z</time>
      </trkpt>
      <trkpt lat="44.22114" lon="0.37146">
        <ele>81.595134</ele>
        <time>2022-12-29T11:16:58.898Z</time>
      </trkpt>
      <trkpt lat="44.2211" lon="0.37158">
        <ele>81.785461</ele>
        <time>2022-12-29T11:17:01.900Z</time>
      </trkpt>
      <trkpt lat="44.22107" lon="0.37173">
        <ele>82.0092</ele>
        <time>2022-12-29T11:17:04.899Z</time>
      </trkpt>
      <trkpt lat="44.22104" lon="0.37189">
        <ele>82.258032</ele>
        <time>2022-12-29T11:17:07.885Z</time>
      </trkpt>
      <trkpt lat="44.221" lon="0.37206">
        <ele>82.52376</ele>
        <time>2022-12-29T11:17:10.897Z</time>
      </trkpt>
      <trkpt lat="44.22096" lon="0.37225">
        <ele>82.811583</ele>
        <time>2022-12-29T11:17:13.892Z</time>
      </trkpt>
      <trkpt lat="44.22091" lon="0.3724">
        <ele>83.057079</ele>
        <time>2022-12-29T11:17:16.897Z</time>
      </trkpt>
      <trkpt lat="44.22088" lon="0.37255">
        <ele>83.294902</ele>
        <time>2022-12-29T11:17:19.901Z</time>
      </trkpt>
      <trkpt lat="44.22085" lon="0.37272">
        <ele>83.458854</ele>
        <time>2022-12-29T11:17:22.879Z</time>
      </trkpt>
      <trkpt lat="44.22082" lon="0.37287">
        <ele>83.497614</ele>
        <time>2022-12-29T11:17:25.906Z</time>
      </trkpt>
      <trkpt lat="44.22079" lon="0.37305">
        <ele>83.541874</ele>
        <time>2022-12-29T11:17:28.897Z</time>
      </trkpt>
      <trkpt lat="44.22076" lon="0.37323">
        <ele>83.586521</ele>
        <time>2022-12-29T11:17:31.897Z</time>
      </trkpt>
      <trkpt lat="44.22073" lon="0.37339">
        <ele>83.626454</ele>
        <time>2022-12-29T11:17:34.900Z</time>
      </trkpt>
      <trkpt lat="44.2207" lon="0.37353">
        <ele>83.66284</ele>
        <time>2022-12-29T11:17:37.896Z</time>
      </trkpt>
      <trkpt lat="44.22067" lon="0.37366">
        <ele>83.694278</ele>
        <time>2022-12-29T11:17:40.902Z</time>
      </trkpt>
      <trkpt lat="44.22064" lon="0.37379">
        <ele>83.728917</ele>
        <time>2022-12-29T11:17:43.896Z</time>
      </trkpt>
      <trkpt lat="44.22061" lon="0.37394">
        <ele>83.766181</ele>
        <time>2022-12-29T11:17:46.896Z</time>
      </trkpt>
      <trkpt lat="44.22058" lon="0.37409">
        <ele>83.80541</ele>
        <time>2022-12-29T11:17:49.898Z</time>
      </trkpt>
      <trkpt lat="44.22055" lon="0.37425">
        <ele>83.844681</ele>
        <time>2022-12-29T11:17:52.881Z</time>
      </trkpt>
      <trkpt lat="44.22052" lon="0.37441">
        <ele>83.884936</ele>
        <time>2022-12-29T11:17:55.904Z</time>
      </trkpt>
      <trkpt lat="44.22049" lon="0.37458">
        <ele>83.927774</ele>
        <time>2022-12-29T11:17:58.900Z</time>
      </trkpt>
      <trkpt lat="44.22046" lon="0.37475">
        <ele>83.970539</ele>
        <time>2022-12-29T11:18:01.898Z</time>
      </trkpt>
      <trkpt lat="44.22043" lon="0.37491">
        <ele>84.010935</ele>
        <time>2022-12-29T11:18:04.898Z</time>
      </trkpt>
      <trkpt lat="44.22041" lon="0.37508">
        <ele>84.055736</ele>
        <time>2022-12-29T11:18:07.891Z</time>
      </trkpt>
      <trkpt lat="44.22036" lon="0.37522">
        <ele>84.177527</ele>
        <time>2022-12-29T11:18:10.877Z</time>
      </trkpt>
      <trkpt lat="44.22033" lon="0.37537">
        <ele>84.302481</ele>
        <time>2022-12-29T11:18:13.896Z</time>
      </trkpt>
      <trkpt lat="44.22031" lon="0.37552">
        <ele>84.420557</ele>
        <time>2022-12-29T11:18:16.892Z</time>
      </trkpt>
      <trkpt lat="44.22029" lon="0.37567">
        <ele>84.536233</ele>
        <time>2022-12-29T11:18:19.884Z</time>
      </trkpt>
      <trkpt lat="44.22025" lon="0.3758">
        <ele>84.644843</ele>
        <time>2022-12-29T11:18:22.883Z</time>
      </trkpt>
      <trkpt lat="44.22024" lon="0.37594">
        <ele>84.759371</ele>
        <time>2022-12-29T11:18:25.897Z</time>
      </trkpt>
      <trkpt lat="44.22022" lon="0.37607">
        <ele>84.859216</ele>
        <time>2022-12-29T11:18:28.897Z</time>
      </trkpt>
      <trkpt lat="44.2202" lon="0.37623">
        <ele>84.988992</ele>
        <time>2022-12-29T11:18:32.881Z</time>
      </trkpt>
      <trkpt lat="44.22018" lon="0.37638">
        <ele>85.110849</ele>
        <time>2022-12-29T11:18:35.900Z</time>
      </trkpt>
      <trkpt lat="44.22017" lon="0.37653">
        <ele>85.231411</ele>
        <time>2022-12-29T11:18:38.896Z</time>
      </trkpt>
      <trkpt lat="44.22016" lon="0.37668">
        <ele>85.347973</ele>
        <time>2022-12-29T11:18:41.903Z</time>
      </trkpt>
      <trkpt lat="44.22013" lon="0.37682">
        <ele>85.457384</ele>
        <time>2022-12-29T11:18:44.893Z</time>
      </trkpt>
      <trkpt lat="44.22011" lon="0.37696">
        <ele>85.567328</ele>
        <time>2022-12-29T11:18:47.885Z</time>
      </trkpt>
      <trkpt lat="44.22009" lon="0.3771">
        <ele>85.682232</ele>
        <time>2022-12-29T11:18:50.902Z</time>
      </trkpt>
      <trkpt lat="44.22008" lon="0.37725">
        <ele>85.799452</ele>
        <time>2022-12-29T11:18:53.902Z</time>
      </trkpt>
      <trkpt lat="44.22006" lon="0.37739">
        <ele>85.915128</ele>
        <time>2022-12-29T11:18:56.898Z</time>
      </trkpt>
      <trkpt lat="44.22004" lon="0.37753">
        <ele>86.026898</ele>
        <time>2022-12-29T11:18:59.897Z</time>
      </trkpt>
      <trkpt lat="44.22001" lon="0.37766">
        <ele>86.138436</ele>
        <time>2022-12-29T11:19:02.877Z</time>
      </trkpt>
      <trkpt lat="44.21999" lon="0.37778">
        <ele>86.248119</ele>
        <time>2022-12-29T11:19:05.899Z</time>
      </trkpt>
      <trkpt lat="44.21997" lon="0.37791">
        <ele>86.355848</ele>
        <time>2022-12-29T11:19:08.899Z</time>
      </trkpt>
      <trkpt lat="44.21994" lon="0.37807">
        <ele>86.49609</ele>
        <time>2022-12-29T11:19:12.878Z</time>
      </trkpt>
      <trkpt lat="44.21992" lon="0.37819">
        <ele>86.606803</ele>
        <time>2022-12-29T11:19:15.910Z</time>
      </trkpt>
      <trkpt lat="44.21989" lon="0.37833">
        <ele>86.732859</ele>
        <time>2022-12-29T11:19:19.902Z</time>
      </trkpt>
      <trkpt lat="44.21986" lon="0.37846">
        <ele>86.846814</ele>
        <time>2022-12-29T11:19:23.889Z</time>
      </trkpt>
      <trkpt lat="44.21983" lon="0.37859">
        <ele>86.957879</ele>
        <time>2022-12-29T11:19:27.898Z</time>
      </trkpt>
      <trkpt lat="44.21981" lon="0.37873">
        <ele>87.080733</ele>
        <time>2022-12-29T11:19:32.879Z</time>
      </trkpt>
      <trkpt lat="44.21979" lon="0.37887">
        <ele>87.207338</ele>
        <time>2022-12-29T11:19:39.875Z</time>
      </trkpt>
      <trkpt lat="44.2198" lon="0.37905">
        <ele>87.362473</ele>
        <time>2022-12-29T11:19:43.892Z</time>
      </trkpt>
      <trkpt lat="44.21979" lon="0.3792">
        <ele>87.483531</ele>
        <time>2022-12-29T11:19:45.896Z</time>
      </trkpt>
      <trkpt lat="44.21979" lon="0.37935">
        <ele>87.611526</ele>
        <time>2022-12-29T11:19:47.881Z</time>
      </trkpt>
      <trkpt lat="44.21979" lon="0.37952">
        <ele>87.756279</ele>
        <time>2022-12-29T11:19:49.898Z</time>
      </trkpt>
      <trkpt lat="44.21978" lon="0.37971">
        <ele>87.918342</ele>
        <time>2022-12-29T11:19:51.898Z</time>
      </trkpt>
      <trkpt lat="44.21977" lon="0.37987">
        <ele>88.061634</ele>
        <time>2022-12-29T11:19:53.896Z</time>
      </trkpt>
      <trkpt lat="44.21977" lon="0.38003">
        <ele>88.131432</ele>
        <time>2022-12-29T11:19:55.896Z</time>
      </trkpt>
      <trkpt lat="44.21975" lon="0.38017">
        <ele>88.049598</ele>
        <time>2022-12-29T11:19:57.896Z</time>
      </trkpt>
      <trkpt lat="44.21974" lon="0.3803">
        <ele>87.976505</ele>
        <time>2022-12-29T11:19:59.883Z</time>
      </trkpt>
      <trkpt lat="44.21974" lon="0.38043">
        <ele>87.901051</ele>
        <time>2022-12-29T11:20:01.896Z</time>
      </trkpt>
      <trkpt lat="44.21973" lon="0.38059">
        <ele>87.804042</ele>
        <time>2022-12-29T11:20:04.879Z</time>
      </trkpt>
      <trkpt lat="44.21971" lon="0.38076">
        <ele>87.706208</ele>
        <time>2022-12-29T11:20:07.900Z</time>
      </trkpt>
      <trkpt lat="44.2197" lon="0.38089">
        <ele>87.629081</ele>
        <time>2022-12-29T11:20:10.901Z</time>
      </trkpt>
      <trkpt lat="44.21968" lon="0.38104">
        <ele>87.539258</ele>
        <time>2022-12-29T11:20:13.883Z</time>
      </trkpt>
      <trkpt lat="44.21967" lon="0.38123">
        <ele>87.433682</ele>
        <time>2022-12-29T11:20:16.898Z</time>
      </trkpt>
      <trkpt lat="44.21966" lon="0.38141">
        <ele>87.327741</ele>
        <time>2022-12-29T11:20:19.896Z</time>
      </trkpt>
      <trkpt lat="44.21966" lon="0.38159">
        <ele>87.224353</ele>
        <time>2022-12-29T11:20:22.878Z</time>
      </trkpt>
      <trkpt lat="44.21965" lon="0.38176">
        <ele>87.120309</ele>
        <time>2022-12-29T11:20:25.898Z</time>
      </trkpt>
      <trkpt lat="44.21964" lon="0.38195">
        <ele>87.010112</ele>
        <time>2022-12-29T11:20:28.895Z</time>
      </trkpt>
      <trkpt lat="44.21963" lon="0.38209">
        <ele>86.930397</ele>
        <time>2022-12-29T11:20:30.898Z</time>
      </trkpt>
      <trkpt lat="44.21962" lon="0.38222">
        <ele>86.855575</ele>
        <time>2022-12-29T11:20:32.877Z</time>
      </trkpt>
      <trkpt lat="44.21961" lon="0.38235">
        <ele>86.779773</ele>
        <time>2022-12-29T11:20:34.897Z</time>
      </trkpt>
      <trkpt lat="44.21961" lon="0.38248">
        <ele>86.704903</ele>
        <time>2022-12-29T11:20:36.900Z</time>
      </trkpt>
      <trkpt lat="44.2196" lon="0.38261">
        <ele>86.718955</ele>
        <time>2022-12-29T11:20:38.886Z</time>
      </trkpt>
      <trkpt lat="44.21959" lon="0.38274">
        <ele>86.737982</ele>
        <time>2022-12-29T11:20:40.897Z</time>
      </trkpt>
      <trkpt lat="44.21958" lon="0.38291">
        <ele>86.764402</ele>
        <time>2022-12-29T11:20:43.882Z</time>
      </trkpt>
      <trkpt lat="44.21957" lon="0.38304">
        <ele>86.783005</ele>
        <time>2022-12-29T11:20:45.893Z</time>
      </trkpt>
      <trkpt lat="44.21956" lon="0.38317">
        <ele>86.802156</ele>
        <time>2022-12-29T11:20:47.885Z</time>
      </trkpt>
      <trkpt lat="44.21955" lon="0.3833">
        <ele>86.821566</ele>
        <time>2022-12-29T11:20:49.900Z</time>
      </trkpt>
      <trkpt lat="44.21953" lon="0.38348">
        <ele>86.84855</ele>
        <time>2022-12-29T11:20:52.879Z</time>
      </trkpt>
      <trkpt lat="44.21953" lon="0.38361">
        <ele>86.867567</ele>
        <time>2022-12-29T11:20:54.896Z</time>
      </trkpt>
      <trkpt lat="44.21953" lon="0.38379">
        <ele>86.893835</ele>
        <time>2022-12-29T11:20:57.900Z</time>
      </trkpt>
      <trkpt lat="44.21952" lon="0.38392">
        <ele>86.913628</ele>
        <time>2022-12-29T11:20:59.894Z</time>
      </trkpt>
      <trkpt lat="44.21952" lon="0.3841">
        <ele>86.93974</ele>
        <time>2022-12-29T11:21:02.883Z</time>
      </trkpt>
      <trkpt lat="44.21951" lon="0.38422">
        <ele>86.958177</ele>
        <time>2022-12-29T11:21:04.881Z</time>
      </trkpt>
      <trkpt lat="44.21951" lon="0.38441">
        <ele>86.985919</ele>
        <time>2022-12-29T11:21:07.891Z</time>
      </trkpt>
      <trkpt lat="44.2195" lon="0.38455">
        <ele>87.006182</ele>
        <time>2022-12-29T11:21:09.887Z</time>
      </trkpt>
      <trkpt lat="44.21949" lon="0.38473">
        <ele>87.032326</ele>
        <time>2022-12-29T11:21:12.883Z</time>
      </trkpt>
      <trkpt lat="44.21948" lon="0.38492">
        <ele>87.061161</ele>
        <time>2022-12-29T11:21:15.900Z</time>
      </trkpt>
      <trkpt lat="44.21948" lon="0.38505">
        <ele>87.03965</ele>
        <time>2022-12-29T11:21:17.899Z</time>
      </trkpt>
      <trkpt lat="44.21949" lon="0.38523">
        <ele>86.953173</ele>
        <time>2022-12-29T11:21:20.901Z</time>
      </trkpt>
      <trkpt lat="44.21948" lon="0.38536">
        <ele>86.893138</ele>
        <time>2022-12-29T11:21:22.878Z</time>
      </trkpt>
      <trkpt lat="44.21947" lon="0.38554">
        <ele>86.810938</ele>
        <time>2022-12-29T11:21:25.902Z</time>
      </trkpt>
      <trkpt lat="44.21947" lon="0.38572">
        <ele>86.725703</ele>
        <time>2022-12-29T11:21:28.901Z</time>
      </trkpt>
      <trkpt lat="44.21947" lon="0.38584">
        <ele>86.666782</ele>
        <time>2022-12-29T11:21:30.897Z</time>
      </trkpt>
      <trkpt lat="44.21946" lon="0.38598">
        <ele>86.600998</ele>
        <time>2022-12-29T11:21:32.880Z</time>
      </trkpt>
      <trkpt lat="44.21945" lon="0.38614">
        <ele>86.5237</ele>
        <time>2022-12-29T11:21:35.898Z</time>
      </trkpt>
      <trkpt lat="44.21945" lon="0.38631">
        <ele>86.447783</ele>
        <time>2022-12-29T11:21:38.883Z</time>
      </trkpt>
      <trkpt lat="44.21943" lon="0.38646">
        <ele>86.374368</ele>
        <time>2022-12-29T11:21:41.897Z</time>
      </trkpt>
      <trkpt lat="44.21942" lon="0.38659">
        <ele>86.314741</ele>
        <time>2022-12-29T11:21:44.894Z</time>
      </trkpt>
      <trkpt lat="44.21942" lon="0.38675">
        <ele>86.238444</ele>
        <time>2022-12-29T11:21:47.898Z</time>
      </trkpt>
      <trkpt lat="44.21942" lon="0.38694">
        <ele>86.150383</ele>
        <time>2022-12-29T11:21:50.900Z</time>
      </trkpt>
      <trkpt lat="44.21942" lon="0.38707">
        <ele>86.088569</ele>
        <time>2022-12-29T11:21:52.881Z</time>
      </trkpt>
      <trkpt lat="44.21941" lon="0.38727">
        <ele>85.993221</ele>
        <time>2022-12-29T11:21:55.900Z</time>
      </trkpt>
      <trkpt lat="44.2194" lon="0.38739">
        <ele>85.933992</ele>
        <time>2022-12-29T11:21:57.902Z</time>
      </trkpt>
      <trkpt lat="44.21941" lon="0.38752">
        <ele>85.885909</ele>
        <time>2022-12-29T11:21:59.897Z</time>
      </trkpt>
      <trkpt lat="44.2194" lon="0.38766">
        <ele>85.874383</ele>
        <time>2022-12-29T11:22:01.893Z</time>
      </trkpt>
      <trkpt lat="44.2194" lon="0.38779">
        <ele>85.863297</ele>
        <time>2022-12-29T11:22:03.898Z</time>
      </trkpt>
      <trkpt lat="44.21939" lon="0.38792">
        <ele>85.851736</ele>
        <time>2022-12-29T11:22:05.907Z</time>
      </trkpt>
      <trkpt lat="44.21939" lon="0.38806">
        <ele>85.840134</ele>
        <time>2022-12-29T11:22:07.899Z</time>
      </trkpt>
      <trkpt lat="44.21938" lon="0.38823">
        <ele>85.824993</ele>
        <time>2022-12-29T11:22:10.901Z</time>
      </trkpt>
      <trkpt lat="44.21937" lon="0.3884">
        <ele>85.810888</ele>
        <time>2022-12-29T11:22:13.899Z</time>
      </trkpt>
      <trkpt lat="44.21937" lon="0.38855">
        <ele>85.797547</ele>
        <time>2022-12-29T11:22:16.899Z</time>
      </trkpt>
      <trkpt lat="44.21936" lon="0.38871">
        <ele>85.783942</ele>
        <time>2022-12-29T11:22:19.900Z</time>
      </trkpt>
      <trkpt lat="44.21935" lon="0.38888">
        <ele>85.769536</ele>
        <time>2022-12-29T11:22:22.880Z</time>
      </trkpt>
      <trkpt lat="44.21933" lon="0.38904">
        <ele>85.75525</ele>
        <time>2022-12-29T11:22:25.902Z</time>
      </trkpt>
      <trkpt lat="44.21932" lon="0.3892">
        <ele>85.741871</ele>
        <time>2022-12-29T11:22:28.899Z</time>
      </trkpt>
      <trkpt lat="44.21931" lon="0.38937">
        <ele>85.72665</ele>
        <time>2022-12-29T11:22:31.898Z</time>
      </trkpt>
      <trkpt lat="44.21931" lon="0.38955">
        <ele>85.711166</ele>
        <time>2022-12-29T11:22:34.879Z</time>
      </trkpt>
      <trkpt lat="44.21931" lon="0.38973">
        <ele>85.695704</ele>
        <time>2022-12-29T11:22:37.902Z</time>
      </trkpt>
      <trkpt lat="44.21931" lon="0.38992">
        <ele>85.679625</ele>
        <time>2022-12-29T11:22:40.881Z</time>
      </trkpt>
      <trkpt lat="44.21931" lon="0.3901">
        <ele>85.78675</ele>
        <time>2022-12-29T11:22:43.896Z</time>
      </trkpt>
      <trkpt lat="44.2193" lon="0.39028">
        <ele>85.9688</ele>
        <time>2022-12-29T11:22:46.890Z</time>
      </trkpt>
      <trkpt lat="44.2193" lon="0.39046">
        <ele>86.14532</ele>
        <time>2022-12-29T11:22:49.900Z</time>
      </trkpt>
      <trkpt lat="44.2193" lon="0.39061">
        <ele>86.304537</ele>
        <time>2022-12-29T11:22:52.881Z</time>
      </trkpt>
      <trkpt lat="44.21929" lon="0.39077">
        <ele>86.463024</ele>
        <time>2022-12-29T11:22:55.898Z</time>
      </trkpt>
      <trkpt lat="44.21927" lon="0.39094">
        <ele>86.63368</ele>
        <time>2022-12-29T11:22:58.898Z</time>
      </trkpt>
      <trkpt lat="44.21926" lon="0.39108">
        <ele>86.781384</ele>
        <time>2022-12-29T11:23:01.900Z</time>
      </trkpt>
      <trkpt lat="44.21925" lon="0.39122">
        <ele>86.925531</ele>
        <time>2022-12-29T11:23:04.879Z</time>
      </trkpt>
      <trkpt lat="44.21924" lon="0.39137">
        <ele>87.072095</ele>
        <time>2022-12-29T11:23:07.899Z</time>
      </trkpt>
      <trkpt lat="44.21924" lon="0.39151">
        <ele>87.216085</ele>
        <time>2022-12-29T11:23:10.897Z</time>
      </trkpt>
      <trkpt lat="44.21924" lon="0.39166">
        <ele>87.371247</ele>
        <time>2022-12-29T11:23:13.891Z</time>
      </trkpt>
      <trkpt lat="44.21923" lon="0.39183">
        <ele>87.540158</ele>
        <time>2022-12-29T11:23:16.899Z</time>
      </trkpt>
      <trkpt lat="44.21923" lon="0.39199">
        <ele>87.703559</ele>
        <time>2022-12-29T11:23:19.896Z</time>
      </trkpt>
      <trkpt lat="44.21923" lon="0.39215">
        <ele>87.870958</ele>
        <time>2022-12-29T11:23:22.879Z</time>
      </trkpt>
      <trkpt lat="44.21923" lon="0.39233">
        <ele>88.045411</ele>
        <time>2022-12-29T11:23:25.898Z</time>
      </trkpt>
      <trkpt lat="44.21922" lon="0.39251">
        <ele>88.221625</ele>
        <time>2022-12-29T11:23:28.892Z</time>
      </trkpt>
      <trkpt lat="44.21922" lon="0.39263">
        <ele>88.262051</ele>
        <time>2022-12-29T11:23:30.900Z</time>
      </trkpt>
      <trkpt lat="44.21921" lon="0.39277">
        <ele>88.303901</ele>
        <time>2022-12-29T11:23:32.880Z</time>
      </trkpt>
      <trkpt lat="44.2192" lon="0.39289">
        <ele>88.344007</ele>
        <time>2022-12-29T11:23:34.896Z</time>
      </trkpt>
      <trkpt lat="44.21919" lon="0.39307">
        <ele>88.401993</ele>
        <time>2022-12-29T11:23:37.880Z</time>
      </trkpt>
      <trkpt lat="44.21918" lon="0.39324">
        <ele>88.455509</ele>
        <time>2022-12-29T11:23:40.889Z</time>
      </trkpt>
      <trkpt lat="44.21918" lon="0.3934">
        <ele>88.505507</ele>
        <time>2022-12-29T11:23:43.900Z</time>
      </trkpt>
      <trkpt lat="44.21917" lon="0.39354">
        <ele>88.552307</ele>
        <time>2022-12-29T11:23:46.898Z</time>
      </trkpt>
      <trkpt lat="44.21917" lon="0.3937">
        <ele>88.601696</ele>
        <time>2022-12-29T11:23:49.901Z</time>
      </trkpt>
      <trkpt lat="44.21916" lon="0.39386">
        <ele>88.65299</ele>
        <time>2022-12-29T11:23:52.882Z</time>
      </trkpt>
      <trkpt lat="44.21915" lon="0.39405">
        <ele>88.712306</ele>
        <time>2022-12-29T11:23:55.893Z</time>
      </trkpt>
      <trkpt lat="44.21914" lon="0.39422">
        <ele>88.767366</ele>
        <time>2022-12-29T11:23:58.898Z</time>
      </trkpt>
      <trkpt lat="44.21914" lon="0.39439">
        <ele>88.822152</ele>
        <time>2022-12-29T11:24:01.901Z</time>
      </trkpt>
      <trkpt lat="44.21913" lon="0.39452">
        <ele>88.862917</ele>
        <time>2022-12-29T11:24:03.896Z</time>
      </trkpt>
      <trkpt lat="44.21912" lon="0.3947">
        <ele>88.920765</ele>
        <time>2022-12-29T11:24:06.899Z</time>
      </trkpt>
      <trkpt lat="44.21911" lon="0.39488">
        <ele>88.978496</ele>
        <time>2022-12-29T11:24:09.879Z</time>
      </trkpt>
      <trkpt lat="44.2191" lon="0.39507">
        <ele>88.985485</ele>
        <time>2022-12-29T11:24:12.885Z</time>
      </trkpt>
      <trkpt lat="44.21909" lon="0.39521">
        <ele>88.927824</ele>
        <time>2022-12-29T11:24:14.896Z</time>
      </trkpt>
      <trkpt lat="44.21908" lon="0.39538">
        <ele>88.852562</ele>
        <time>2022-12-29T11:24:17.896Z</time>
      </trkpt>
      <trkpt lat="44.21907" lon="0.39553">
        <ele>88.786553</ele>
        <time>2022-12-29T11:24:20.894Z</time>
      </trkpt>
      <trkpt lat="44.21907" lon="0.39568">
        <ele>88.725643</ele>
        <time>2022-12-29T11:24:23.891Z</time>
      </trkpt>
      <trkpt lat="44.21906" lon="0.39583">
        <ele>88.658377</ele>
        <time>2022-12-29T11:24:26.882Z</time>
      </trkpt>
      <trkpt lat="44.21906" lon="0.396">
        <ele>88.588479</ele>
        <time>2022-12-29T11:24:29.887Z</time>
      </trkpt>
      <trkpt lat="44.21906" lon="0.39617">
        <ele>88.513502</ele>
        <time>2022-12-29T11:24:32.883Z</time>
      </trkpt>
      <trkpt lat="44.21905" lon="0.39635">
        <ele>88.434526</ele>
        <time>2022-12-29T11:24:35.903Z</time>
      </trkpt>
      <trkpt lat="44.21905" lon="0.39652">
        <ele>88.362001</ele>
        <time>2022-12-29T11:24:38.899Z</time>
      </trkpt>
      <trkpt lat="44.21904" lon="0.3967">
        <ele>88.28572</ele>
        <time>2022-12-29T11:24:41.898Z</time>
      </trkpt>
      <trkpt lat="44.21904" lon="0.39688">
        <ele>88.210735</ele>
        <time>2022-12-29T11:24:44.888Z</time>
      </trkpt>
      <trkpt lat="44.21903" lon="0.39704">
        <ele>88.141073</ele>
        <time>2022-12-29T11:24:47.894Z</time>
      </trkpt>
      <trkpt lat="44.21902" lon="0.39718">
        <ele>88.079703</ele>
        <time>2022-12-29T11:24:50.899Z</time>
      </trkpt>
      <trkpt lat="44.21901" lon="0.39733">
        <ele>88.015161</ele>
        <time>2022-12-29T11:24:53.893Z</time>
      </trkpt>
      <trkpt lat="44.21901" lon="0.39749">
        <ele>87.945753</ele>
        <time>2022-12-29T11:24:56.877Z</time>
      </trkpt>
      <trkpt lat="44.219" lon="0.39767">
        <ele>87.929345</ele>
        <time>2022-12-29T11:24:59.899Z</time>
      </trkpt>
      <trkpt lat="44.219" lon="0.39785">
        <ele>87.91684</ele>
        <time>2022-12-29T11:25:02.880Z</time>
      </trkpt>
      <trkpt lat="44.21899" lon="0.39803">
        <ele>87.904299</ele>
        <time>2022-12-29T11:25:05.892Z</time>
      </trkpt>
      <trkpt lat="44.21899" lon="0.39819">
        <ele>87.893238</ele>
        <time>2022-12-29T11:25:08.891Z</time>
      </trkpt>
      <trkpt lat="44.21897" lon="0.39833">
        <ele>87.883487</ele>
        <time>2022-12-29T11:25:11.896Z</time>
      </trkpt>
      <trkpt lat="44.21896" lon="0.39848">
        <ele>87.872663</ele>
        <time>2022-12-29T11:25:14.900Z</time>
      </trkpt>
      <trkpt lat="44.21895" lon="0.39865">
        <ele>87.861237</ele>
        <time>2022-12-29T11:25:17.899Z</time>
      </trkpt>
      <trkpt lat="44.21894" lon="0.39882">
        <ele>87.84954</ele>
        <time>2022-12-29T11:25:20.896Z</time>
      </trkpt>
      <trkpt lat="44.21894" lon="0.39897">
        <ele>87.838773</ele>
        <time>2022-12-29T11:25:23.903Z</time>
      </trkpt>
      <trkpt lat="44.21894" lon="0.39912">
        <ele>87.828071</ele>
        <time>2022-12-29T11:25:26.880Z</time>
      </trkpt>
      <trkpt lat="44.21893" lon="0.39927">
        <ele>87.817997</ele>
        <time>2022-12-29T11:25:29.901Z</time>
      </trkpt>
      <trkpt lat="44.21893" lon="0.3994">
        <ele>87.808958</ele>
        <time>2022-12-29T11:25:32.878Z</time>
      </trkpt>
      <trkpt lat="44.21893" lon="0.39953">
        <ele>87.799914</ele>
        <time>2022-12-29T11:25:35.898Z</time>
      </trkpt>
      <trkpt lat="44.21892" lon="0.39966">
        <ele>87.790736</ele>
        <time>2022-12-29T11:25:38.895Z</time>
      </trkpt>
      <trkpt lat="44.21892" lon="0.39981">
        <ele>87.78059</ele>
        <time>2022-12-29T11:25:42.878Z</time>
      </trkpt>
      <trkpt lat="44.21891" lon="0.39994">
        <ele>87.77124</ele>
        <time>2022-12-29T11:25:45.901Z</time>
      </trkpt>
      <trkpt lat="44.21892" lon="0.40007">
        <ele>87.749817</ele>
        <time>2022-12-29T11:25:48.889Z</time>
      </trkpt>
      <trkpt lat="44.21891" lon="0.4002">
        <ele>87.714681</ele>
        <time>2022-12-29T11:25:51.901Z</time>
      </trkpt>
      <trkpt lat="44.2189" lon="0.40034">
        <ele>87.677054</ele>
        <time>2022-12-29T11:25:54.898Z</time>
      </trkpt>
      <trkpt lat="44.2189" lon="0.40047">
        <ele>87.641375</ele>
        <time>2022-12-29T11:25:57.896Z</time>
      </trkpt>
      <trkpt lat="44.21889" lon="0.40061">
        <ele>87.601486</ele>
        <time>2022-12-29T11:26:01.899Z</time>
      </trkpt>
      <trkpt lat="44.21889" lon="0.40074">
        <ele>87.567217</ele>
        <time>2022-12-29T11:26:04.886Z</time>
      </trkpt>
      <trkpt lat="44.21889" lon="0.40089">
        <ele>87.527493</ele>
        <time>2022-12-29T11:26:07.886Z</time>
      </trkpt>
      <trkpt lat="44.21889" lon="0.40103">
        <ele>87.487233</ele>
        <time>2022-12-29T11:26:10.888Z</time>
      </trkpt>
      <trkpt lat="44.21888" lon="0.40116">
        <ele>87.452711</ele>
        <time>2022-12-29T11:26:13.899Z</time>
      </trkpt>
      <trkpt lat="44.21888" lon="0.4013">
        <ele>87.414083</ele>
        <time>2022-12-29T11:26:16.898Z</time>
      </trkpt>
      <trkpt lat="44.21888" lon="0.40146">
        <ele>87.372184</ele>
        <time>2022-12-29T11:26:19.878Z</time>
      </trkpt>
      <trkpt lat="44.21886" lon="0.40164">
        <ele>87.321627</ele>
        <time>2022-12-29T11:26:22.878Z</time>
      </trkpt>
      <trkpt lat="44.21886" lon="0.40177">
        <ele>87.286491</ele>
        <time>2022-12-29T11:26:24.887Z</time>
      </trkpt>
      <trkpt lat="44.21885" lon="0.40194">
        <ele>87.240216</ele>
        <time>2022-12-29T11:26:27.894Z</time>
      </trkpt>
      <trkpt lat="44.21885" lon="0.40211">
        <ele>87.194782</ele>
        <time>2022-12-29T11:26:30.880Z</time>
      </trkpt>
      <trkpt lat="44.21884" lon="0.40225">
        <ele>87.155308</ele>
        <time>2022-12-29T11:26:33.880Z</time>
      </trkpt>
      <trkpt lat="44.21883" lon="0.4024">
        <ele>87.115571</ele>
        <time>2022-12-29T11:26:36.898Z</time>
      </trkpt>
      <trkpt lat="44.21882" lon="0.40255">
        <ele>87.027682</ele>
        <time>2022-12-29T11:26:39.889Z</time>
      </trkpt>
      <trkpt lat="44.21881" lon="0.40271">
        <ele>86.767568</ele>
        <time>2022-12-29T11:26:42.876Z</time>
      </trkpt>
      <trkpt lat="44.2188" lon="0.40288">
        <ele>86.502931</ele>
        <time>2022-12-29T11:26:45.897Z</time>
      </trkpt>
      <trkpt lat="44.2188" lon="0.40306">
        <ele>86.221538</ele>
        <time>2022-12-29T11:26:48.882Z</time>
      </trkpt>
      <trkpt lat="44.21879" lon="0.40324">
        <ele>85.934004</ele>
        <time>2022-12-29T11:26:51.882Z</time>
      </trkpt>
      <trkpt lat="44.21877" lon="0.40343">
        <ele>85.636862</ele>
        <time>2022-12-29T11:26:54.899Z</time>
      </trkpt>
      <trkpt lat="44.21877" lon="0.40361">
        <ele>85.358745</ele>
        <time>2022-12-29T11:26:57.898Z</time>
      </trkpt>
      <trkpt lat="44.21876" lon="0.40376">
        <ele>85.110466</ele>
        <time>2022-12-29T11:27:00.895Z</time>
      </trkpt>
      <trkpt lat="44.21876" lon="0.40392">
        <ele>84.860549</ele>
        <time>2022-12-29T11:27:03.899Z</time>
      </trkpt>
      <trkpt lat="44.21876" lon="0.40409">
        <ele>84.598072</ele>
        <time>2022-12-29T11:27:06.898Z</time>
      </trkpt>
      <trkpt lat="44.21875" lon="0.40425">
        <ele>84.34493</ele>
        <time>2022-12-29T11:27:09.880Z</time>
      </trkpt>
      <trkpt lat="44.21875" lon="0.40441">
        <ele>84.093443</ele>
        <time>2022-12-29T11:27:12.881Z</time>
      </trkpt>
      <trkpt lat="44.21873" lon="0.40456">
        <ele>83.859219</ele>
        <time>2022-12-29T11:27:15.899Z</time>
      </trkpt>
      <trkpt lat="44.21873" lon="0.40472">
        <ele>83.610408</ele>
        <time>2022-12-29T11:27:18.898Z</time>
      </trkpt>
      <trkpt lat="44.21872" lon="0.40487">
        <ele>83.366297</ele>
        <time>2022-12-29T11:27:21.910Z</time>
      </trkpt>
      <trkpt lat="44.21871" lon="0.40502">
        <ele>83.142497</ele>
        <time>2022-12-29T11:27:24.890Z</time>
      </trkpt>
      <trkpt lat="44.21871" lon="0.40517">
        <ele>83.157957</ele>
        <time>2022-12-29T11:27:27.877Z</time>
      </trkpt>
      <trkpt lat="44.21871" lon="0.40531">
        <ele>83.172374</ele>
        <time>2022-12-29T11:27:30.897Z</time>
      </trkpt>
      <trkpt lat="44.21871" lon="0.40544">
        <ele>83.185858</ele>
        <time>2022-12-29T11:27:33.898Z</time>
      </trkpt>
      <trkpt lat="44.2187" lon="0.40558">
        <ele>83.200714</ele>
        <time>2022-12-29T11:27:36.886Z</time>
      </trkpt>
      <trkpt lat="44.21869" lon="0.40574">
        <ele>83.216574</ele>
        <time>2022-12-29T11:27:39.899Z</time>
      </trkpt>
      <trkpt lat="44.21869" lon="0.40591">
        <ele>83.234531</ele>
        <time>2022-12-29T11:27:42.880Z</time>
      </trkpt>
      <trkpt lat="44.21868" lon="0.40608">
        <ele>83.252719</ele>
        <time>2022-12-29T11:27:45.898Z</time>
      </trkpt>
      <trkpt lat="44.21867" lon="0.40625">
        <ele>83.270492</ele>
        <time>2022-12-29T11:27:48.898Z</time>
      </trkpt>
      <trkpt lat="44.21867" lon="0.40641">
        <ele>83.286584</ele>
        <time>2022-12-29T11:27:51.889Z</time>
      </trkpt>
      <trkpt lat="44.21866" lon="0.40657">
        <ele>83.303758</ele>
        <time>2022-12-29T11:27:54.898Z</time>
      </trkpt>
      <trkpt lat="44.21866" lon="0.40673">
        <ele>83.320042</ele>
        <time>2022-12-29T11:27:57.901Z</time>
      </trkpt>
      <trkpt lat="44.21865" lon="0.4069">
        <ele>83.337599</ele>
        <time>2022-12-29T11:28:00.899Z</time>
      </trkpt>
      <trkpt lat="44.21864" lon="0.40708">
        <ele>83.355867</ele>
        <time>2022-12-29T11:28:03.897Z</time>
      </trkpt>
      <trkpt lat="44.21863" lon="0.40724">
        <ele>83.37279</ele>
        <time>2022-12-29T11:28:06.896Z</time>
      </trkpt>
      <trkpt lat="44.21862" lon="0.40741">
        <ele>83.390651</ele>
        <time>2022-12-29T11:28:09.901Z</time>
      </trkpt>
      <trkpt lat="44.21862" lon="0.40757">
        <ele>83.390965</ele>
        <time>2022-12-29T11:28:12.879Z</time>
      </trkpt>
      <trkpt lat="44.2186" lon="0.40774">
        <ele>83.354892</ele>
        <time>2022-12-29T11:28:15.893Z</time>
      </trkpt>
      <trkpt lat="44.21859" lon="0.4079">
        <ele>83.319825</ele>
        <time>2022-12-29T11:28:18.900Z</time>
      </trkpt>
      <trkpt lat="44.21858" lon="0.40805">
        <ele>83.287534</ele>
        <time>2022-12-29T11:28:21.895Z</time>
      </trkpt>
      <trkpt lat="44.21858" lon="0.40818">
        <ele>83.259081</ele>
        <time>2022-12-29T11:28:24.900Z</time>
      </trkpt>
      <trkpt lat="44.21857" lon="0.40831">
        <ele>83.231969</ele>
        <time>2022-12-29T11:28:27.898Z</time>
      </trkpt>
      <trkpt lat="44.21857" lon="0.40844">
        <ele>83.203319</ele>
        <time>2022-12-29T11:28:30.879Z</time>
      </trkpt>
      <trkpt lat="44.21856" lon="0.4086">
        <ele>83.168637</ele>
        <time>2022-12-29T11:28:34.897Z</time>
      </trkpt>
      <trkpt lat="44.21856" lon="0.40874">
        <ele>83.138037</ele>
        <time>2022-12-29T11:28:38.881Z</time>
      </trkpt>
      <trkpt lat="44.21855" lon="0.40888">
        <ele>83.108111</ele>
        <time>2022-12-29T11:28:42.880Z</time>
      </trkpt>
      <trkpt lat="44.21854" lon="0.40903">
        <ele>83.076316</ele>
        <time>2022-12-29T11:28:47.899Z</time>
      </trkpt>
      <trkpt lat="44.21854" lon="0.40917">
        <ele>83.046376</ele>
        <time>2022-12-29T11:28:51.902Z</time>
      </trkpt>
      <trkpt lat="44.21854" lon="0.4093">
        <ele>83.01731</ele>
        <time>2022-12-29T11:28:55.884Z</time>
      </trkpt>
      <trkpt lat="44.21853" lon="0.40943">
        <ele>82.99018</ele>
        <time>2022-12-29T11:29:18.878Z</time>
      </trkpt>
      <trkpt lat="44.21853" lon="0.40967">
        <ele>82.937256</ele>
        <time>2022-12-29T11:29:50.901Z</time>
      </trkpt>
      <trkpt lat="44.21853" lon="0.40983">
        <ele>82.904337</ele>
        <time>2022-12-29T11:29:52.880Z</time>
      </trkpt>
      <trkpt lat="44.21852" lon="0.40997">
        <ele>82.873522</ele>
        <time>2022-12-29T11:29:54.898Z</time>
      </trkpt>
      <trkpt lat="44.21851" lon="0.41011">
        <ele>82.819356</ele>
        <time>2022-12-29T11:29:56.897Z</time>
      </trkpt>
      <trkpt lat="44.21851" lon="0.41025">
        <ele>82.757205</ele>
        <time>2022-12-29T11:29:58.893Z</time>
      </trkpt>
      <trkpt lat="44.21851" lon="0.41042">
        <ele>82.676291</ele>
        <time>2022-12-29T11:30:01.893Z</time>
      </trkpt>
      <trkpt lat="44.21851" lon="0.41058">
        <ele>82.600554</ele>
        <time>2022-12-29T11:30:04.882Z</time>
      </trkpt>
      <trkpt lat="44.21851" lon="0.41073">
        <ele>82.528568</ele>
        <time>2022-12-29T11:30:07.892Z</time>
      </trkpt>
      <trkpt lat="44.2185" lon="0.41088">
        <ele>82.460713</ele>
        <time>2022-12-29T11:30:10.882Z</time>
      </trkpt>
      <trkpt lat="44.2185" lon="0.41101">
        <ele>82.399089</ele>
        <time>2022-12-29T11:30:13.896Z</time>
      </trkpt>
      <trkpt lat="44.21849" lon="0.41115">
        <ele>82.332209</ele>
        <time>2022-12-29T11:30:16.893Z</time>
      </trkpt>
      <trkpt lat="44.21849" lon="0.4113">
        <ele>82.26063</ele>
        <time>2022-12-29T11:30:19.882Z</time>
      </trkpt>
      <trkpt lat="44.21849" lon="0.41146">
        <ele>82.187668</ele>
        <time>2022-12-29T11:30:22.880Z</time>
      </trkpt>
      <trkpt lat="44.21848" lon="0.41161">
        <ele>82.116801</ele>
        <time>2022-12-29T11:30:25.900Z</time>
      </trkpt>
      <trkpt lat="44.21846" lon="0.41176">
        <ele>82.042125</ele>
        <time>2022-12-29T11:30:28.880Z</time>
      </trkpt>
      <trkpt lat="44.21846" lon="0.41192">
        <ele>81.966316</ele>
        <time>2022-12-29T11:30:31.895Z</time>
      </trkpt>
      <trkpt lat="44.21845" lon="0.41208">
        <ele>81.89217</ele>
        <time>2022-12-29T11:30:34.898Z</time>
      </trkpt>
      <trkpt lat="44.21844" lon="0.41224">
        <ele>81.818241</ele>
        <time>2022-12-29T11:30:37.895Z</time>
      </trkpt>
      <trkpt lat="44.21844" lon="0.41239">
        <ele>81.747159</ele>
        <time>2022-12-29T11:30:40.881Z</time>
      </trkpt>
      <trkpt lat="44.21844" lon="0.41255">
        <ele>81.682129</ele>
        <time>2022-12-29T11:30:43.899Z</time>
      </trkpt>
      <trkpt lat="44.21844" lon="0.41272">
        <ele>81.686418</ele>
        <time>2022-12-29T11:30:46.900Z</time>
      </trkpt>
      <trkpt lat="44.21843" lon="0.41288">
        <ele>81.690411</ele>
        <time>2022-12-29T11:30:49.879Z</time>
      </trkpt>
      <trkpt lat="44.21843" lon="0.41304">
        <ele>81.694474</ele>
        <time>2022-12-29T11:30:52.880Z</time>
      </trkpt>
      <trkpt lat="44.21842" lon="0.41319">
        <ele>81.698178</ele>
        <time>2022-12-29T11:30:55.884Z</time>
      </trkpt>
      <trkpt lat="44.21841" lon="0.41334">
        <ele>81.701982</ele>
        <time>2022-12-29T11:30:58.886Z</time>
      </trkpt>
      <trkpt lat="44.21841" lon="0.4135">
        <ele>81.705949</ele>
        <time>2022-12-29T11:31:01.890Z</time>
      </trkpt>
      <trkpt lat="44.2184" lon="0.41367">
        <ele>81.710221</ele>
        <time>2022-12-29T11:31:04.911Z</time>
      </trkpt>
      <trkpt lat="44.21839" lon="0.41384">
        <ele>81.714566</ele>
        <time>2022-12-29T11:31:07.891Z</time>
      </trkpt>
      <trkpt lat="44.21839" lon="0.41402">
        <ele>81.719031</ele>
        <time>2022-12-29T11:31:10.888Z</time>
      </trkpt>
      <trkpt lat="44.21839" lon="0.4142">
        <ele>81.723474</ele>
        <time>2022-12-29T11:31:13.895Z</time>
      </trkpt>
      <trkpt lat="44.21838" lon="0.41438">
        <ele>81.728003</ele>
        <time>2022-12-29T11:31:16.881Z</time>
      </trkpt>
      <trkpt lat="44.21837" lon="0.41456">
        <ele>81.732523</ele>
        <time>2022-12-29T11:31:19.892Z</time>
      </trkpt>
      <trkpt lat="44.21837" lon="0.41474">
        <ele>81.737114</ele>
        <time>2022-12-29T11:31:22.882Z</time>
      </trkpt>
      <trkpt lat="44.21836" lon="0.41493">
        <ele>81.741837</ele>
        <time>2022-12-29T11:31:25.898Z</time>
      </trkpt>
      <trkpt lat="44.21835" lon="0.41505">
        <ele>81.762758</ele>
        <time>2022-12-29T11:31:27.902Z</time>
      </trkpt>
      <trkpt lat="44.21834" lon="0.41519">
        <ele>81.878314</ele>
        <time>2022-12-29T11:31:29.900Z</time>
      </trkpt>
      <trkpt lat="44.21834" lon="0.41537">
        <ele>82.039013</ele>
        <time>2022-12-29T11:31:32.880Z</time>
      </trkpt>
      <trkpt lat="44.21833" lon="0.4155">
        <ele>82.152941</ele>
        <time>2022-12-29T11:31:34.881Z</time>
      </trkpt>
      <trkpt lat="44.21832" lon="0.41568">
        <ele>82.314519</ele>
        <time>2022-12-29T11:31:37.889Z</time>
      </trkpt>
      <trkpt lat="44.21832" lon="0.41586">
        <ele>82.474206</ele>
        <time>2022-12-29T11:31:40.898Z</time>
      </trkpt>
      <trkpt lat="44.21831" lon="0.41599">
        <ele>82.587074</ele>
        <time>2022-12-29T11:31:42.880Z</time>
      </trkpt>
      <trkpt lat="44.2183" lon="0.41617">
        <ele>82.746185</ele>
        <time>2022-12-29T11:31:45.899Z</time>
      </trkpt>
      <trkpt lat="44.21831" lon="0.41634">
        <ele>82.893445</ele>
        <time>2022-12-29T11:31:48.894Z</time>
      </trkpt>
      <trkpt lat="44.2183" lon="0.4165">
        <ele>83.042893</ele>
        <time>2022-12-29T11:31:51.898Z</time>
      </trkpt>
      <trkpt lat="44.21829" lon="0.41668">
        <ele>83.196319</ele>
        <time>2022-12-29T11:31:54.900Z</time>
      </trkpt>
      <trkpt lat="44.21829" lon="0.41686">
        <ele>83.352431</ele>
        <time>2022-12-29T11:31:57.899Z</time>
      </trkpt>
      <trkpt lat="44.21828" lon="0.41703">
        <ele>83.504096</ele>
        <time>2022-12-29T11:32:00.900Z</time>
      </trkpt>
      <trkpt lat="44.21827" lon="0.41719">
        <ele>83.650387</ele>
        <time>2022-12-29T11:32:03.901Z</time>
      </trkpt>
      <trkpt lat="44.21826" lon="0.41735">
        <ele>83.792618</ele>
        <time>2022-12-29T11:32:06.894Z</time>
      </trkpt>
      <trkpt lat="44.21826" lon="0.41753">
        <ele>83.947161</ele>
        <time>2022-12-29T11:32:09.894Z</time>
      </trkpt>
      <trkpt lat="44.21825" lon="0.4177">
        <ele>83.963994</ele>
        <time>2022-12-29T11:32:12.883Z</time>
      </trkpt>
      <trkpt lat="44.21824" lon="0.41788">
        <ele>83.972315</ele>
        <time>2022-12-29T11:32:15.896Z</time>
      </trkpt>
      <trkpt lat="44.21825" lon="0.41807">
        <ele>83.981442</ele>
        <time>2022-12-29T11:32:18.901Z</time>
      </trkpt>
      <trkpt lat="44.21825" lon="0.4182">
        <ele>83.987525</ele>
        <time>2022-12-29T11:32:20.881Z</time>
      </trkpt>
      <trkpt lat="44.21824" lon="0.41837">
        <ele>83.995906</ele>
        <time>2022-12-29T11:32:23.900Z</time>
      </trkpt>
      <trkpt lat="44.21824" lon="0.41853">
        <ele>84.003415</ele>
        <time>2022-12-29T11:32:26.900Z</time>
      </trkpt>
      <trkpt lat="44.21824" lon="0.41867">
        <ele>84.010307</ele>
        <time>2022-12-29T11:32:29.898Z</time>
      </trkpt>
      <trkpt lat="44.21822" lon="0.41884">
        <ele>84.018142</ele>
        <time>2022-12-29T11:32:33.895Z</time>
      </trkpt>
      <trkpt lat="44.21822" lon="0.41899">
        <ele>84.025153</ele>
        <time>2022-12-29T11:32:36.899Z</time>
      </trkpt>
      <trkpt lat="44.21821" lon="0.41915">
        <ele>84.033002</ele>
        <time>2022-12-29T11:32:39.899Z</time>
      </trkpt>
      <trkpt lat="44.21821" lon="0.41933">
        <ele>84.04137</ele>
        <time>2022-12-29T11:32:42.879Z</time>
      </trkpt>
      <trkpt lat="44.2182" lon="0.41946">
        <ele>84.047551</ele>
        <time>2022-12-29T11:32:44.900Z</time>
      </trkpt>
      <trkpt lat="44.21819" lon="0.41963">
        <ele>84.055818</ele>
        <time>2022-12-29T11:32:47.903Z</time>
      </trkpt>
      <trkpt lat="44.21819" lon="0.41981">
        <ele>84.064329</ele>
        <time>2022-12-29T11:32:50.899Z</time>
      </trkpt>
      <trkpt lat="44.21818" lon="0.41999">
        <ele>84.073133</ele>
        <time>2022-12-29T11:32:53.899Z</time>
      </trkpt>
      <trkpt lat="44.21816" lon="0.42017">
        <ele>84.16696</ele>
        <time>2022-12-29T11:32:56.901Z</time>
      </trkpt>
      <trkpt lat="44.21815" lon="0.42034">
        <ele>84.296456</ele>
        <time>2022-12-29T11:32:59.903Z</time>
      </trkpt>
      <trkpt lat="44.21815" lon="0.42047">
        <ele>84.390743</ele>
        <time>2022-12-29T11:33:01.899Z</time>
      </trkpt>
      <trkpt lat="44.21815" lon="0.42065">
        <ele>84.524406</ele>
        <time>2022-12-29T11:33:04.903Z</time>
      </trkpt>
      <trkpt lat="44.21814" lon="0.42082">
        <ele>84.656954</ele>
        <time>2022-12-29T11:33:07.901Z</time>
      </trkpt>
      <trkpt lat="44.21813" lon="0.42101">
        <ele>84.794485</ele>
        <time>2022-12-29T11:33:10.882Z</time>
      </trkpt>
      <trkpt lat="44.21813" lon="0.42114">
        <ele>84.891736</ele>
        <time>2022-12-29T11:33:12.880Z</time>
      </trkpt>
      <trkpt lat="44.21812" lon="0.42132">
        <ele>85.028067</ele>
        <time>2022-12-29T11:33:15.896Z</time>
      </trkpt>
      <trkpt lat="44.21811" lon="0.42148">
        <ele>85.148038</ele>
        <time>2022-12-29T11:33:18.895Z</time>
      </trkpt>
      <trkpt lat="44.2181" lon="0.42164">
        <ele>85.263922</ele>
        <time>2022-12-29T11:33:21.898Z</time>
      </trkpt>
      <trkpt lat="44.2181" lon="0.42181">
        <ele>85.388175</ele>
        <time>2022-12-29T11:33:24.902Z</time>
      </trkpt>
      <trkpt lat="44.21809" lon="0.42197">
        <ele>85.511935</ele>
        <time>2022-12-29T11:33:27.893Z</time>
      </trkpt>
      <trkpt lat="44.21807" lon="0.42214">
        <ele>85.636641</ele>
        <time>2022-12-29T11:33:30.899Z</time>
      </trkpt>
      <trkpt lat="44.21807" lon="0.42231">
        <ele>85.762849</ele>
        <time>2022-12-29T11:33:33.899Z</time>
      </trkpt>
      <trkpt lat="44.21808" lon="0.42248">
        <ele>85.887585</ele>
        <time>2022-12-29T11:33:36.892Z</time>
      </trkpt>
      <trkpt lat="44.21807" lon="0.42266">
        <ele>85.83492</ele>
        <time>2022-12-29T11:33:39.899Z</time>
      </trkpt>
      <trkpt lat="44.21806" lon="0.42284">
        <ele>85.664058</ele>
        <time>2022-12-29T11:33:42.879Z</time>
      </trkpt>
      <trkpt lat="44.21806" lon="0.42296">
        <ele>85.544282</ele>
        <time>2022-12-29T11:33:44.898Z</time>
      </trkpt>
      <trkpt lat="44.21805" lon="0.42309">
        <ele>85.425544</ele>
        <time>2022-12-29T11:33:46.899Z</time>
      </trkpt>
      <trkpt lat="44.21804" lon="0.42327">
        <ele>85.249356</ele>
        <time>2022-12-29T11:33:49.895Z</time>
      </trkpt>
      <trkpt lat="44.21804" lon="0.42346">
        <ele>85.07159</ele>
        <time>2022-12-29T11:33:52.880Z</time>
      </trkpt>
      <trkpt lat="44.21803" lon="0.42364">
        <ele>84.89677</ele>
        <time>2022-12-29T11:33:55.893Z</time>
      </trkpt>
      <trkpt lat="44.21803" lon="0.42381">
        <ele>84.738985</ele>
        <time>2022-12-29T11:33:58.900Z</time>
      </trkpt>
      <trkpt lat="44.21803" lon="0.42395">
        <ele>84.600276</ele>
        <time>2022-12-29T11:34:01.900Z</time>
      </trkpt>
      <trkpt lat="44.21803" lon="0.4241">
        <ele>84.462415</ele>
        <time>2022-12-29T11:34:04.899Z</time>
      </trkpt>
      <trkpt lat="44.21802" lon="0.42426">
        <ele>84.307256</ele>
        <time>2022-12-29T11:34:07.892Z</time>
      </trkpt>
      <trkpt lat="44.21801" lon="0.42442">
        <ele>84.161467</ele>
        <time>2022-12-29T11:34:10.899Z</time>
      </trkpt>
      <trkpt lat="44.21801" lon="0.42455">
        <ele>84.031255</ele>
        <time>2022-12-29T11:34:13.896Z</time>
      </trkpt>
      <trkpt lat="44.21799" lon="0.4247">
        <ele>83.889928</ele>
        <time>2022-12-29T11:34:16.898Z</time>
      </trkpt>
      <trkpt lat="44.21797" lon="0.42486">
        <ele>83.731804</ele>
        <time>2022-12-29T11:34:19.901Z</time>
      </trkpt>
      <trkpt lat="44.21795" lon="0.42503">
        <ele>83.573853</ele>
        <time>2022-12-29T11:34:22.881Z</time>
      </trkpt>
      <trkpt lat="44.21795" lon="0.4252">
        <ele>83.602519</ele>
        <time>2022-12-29T11:34:25.895Z</time>
      </trkpt>
      <trkpt lat="44.21795" lon="0.42538">
        <ele>83.657972</ele>
        <time>2022-12-29T11:34:28.894Z</time>
      </trkpt>
      <trkpt lat="44.21794" lon="0.42556">
        <ele>83.714353</ele>
        <time>2022-12-29T11:34:31.896Z</time>
      </trkpt>
      <trkpt lat="44.21793" lon="0.42575">
        <ele>83.772073</ele>
        <time>2022-12-29T11:34:34.891Z</time>
      </trkpt>
      <trkpt lat="44.21793" lon="0.42587">
        <ele>83.811102</ele>
        <time>2022-12-29T11:34:36.901Z</time>
      </trkpt>
      <trkpt lat="44.21792" lon="0.42605">
        <ele>83.866246</ele>
        <time>2022-12-29T11:34:39.894Z</time>
      </trkpt>
      <trkpt lat="44.21792" lon="0.42624">
        <ele>83.925687</ele>
        <time>2022-12-29T11:34:42.882Z</time>
      </trkpt>
      <trkpt lat="44.21791" lon="0.42637">
        <ele>83.965925</ele>
        <time>2022-12-29T11:34:44.901Z</time>
      </trkpt>
      <trkpt lat="44.21792" lon="0.42651">
        <ele>84.007704</ele>
        <time>2022-12-29T11:34:46.895Z</time>
      </trkpt>
      <trkpt lat="44.21791" lon="0.42669">
        <ele>84.064498</ele>
        <time>2022-12-29T11:34:49.897Z</time>
      </trkpt>
      <trkpt lat="44.2179" lon="0.42688">
        <ele>84.121879</ele>
        <time>2022-12-29T11:34:52.880Z</time>
      </trkpt>
      <trkpt lat="44.21789" lon="0.427">
        <ele>84.160892</ele>
        <time>2022-12-29T11:34:54.897Z</time>
      </trkpt>
      <trkpt lat="44.21788" lon="0.42718">
        <ele>84.216112</ele>
        <time>2022-12-29T11:34:57.894Z</time>
      </trkpt>
      <trkpt lat="44.21788" lon="0.42735">
        <ele>84.268188</ele>
        <time>2022-12-29T11:35:00.885Z</time>
      </trkpt>
      <trkpt lat="44.21787" lon="0.42753">
        <ele>84.324643</ele>
        <time>2022-12-29T11:35:03.902Z</time>
      </trkpt>
      <trkpt lat="44.21787" lon="0.42766">
        <ele>84.493588</ele>
        <time>2022-12-29T11:35:05.898Z</time>
      </trkpt>
      <trkpt lat="44.21787" lon="0.4278">
        <ele>84.693714</ele>
        <time>2022-12-29T11:35:07.898Z</time>
      </trkpt>
      <trkpt lat="44.21786" lon="0.42793">
        <ele>84.890725</ele>
        <time>2022-12-29T11:35:09.899Z</time>
      </trkpt>
      <trkpt lat="44.21785" lon="0.42807">
        <ele>85.098144</ele>
        <time>2022-12-29T11:35:11.899Z</time>
      </trkpt>
      <trkpt lat="44.21785" lon="0.4282">
        <ele>85.29924</ele>
        <time>2022-12-29T11:35:13.882Z</time>
      </trkpt>
      <trkpt lat="44.21785" lon="0.42833">
        <ele>85.496394</ele>
        <time>2022-12-29T11:35:15.894Z</time>
      </trkpt>
      <trkpt lat="44.21784" lon="0.42847">
        <ele>85.706673</ele>
        <time>2022-12-29T11:35:17.890Z</time>
      </trkpt>
      <trkpt lat="44.21783" lon="0.42861">
        <ele>85.904178</ele>
        <time>2022-12-29T11:35:19.910Z</time>
      </trkpt>
      <trkpt lat="44.21783" lon="0.42875">
        <ele>86.121658</ele>
        <time>2022-12-29T11:35:21.897Z</time>
      </trkpt>
      <trkpt lat="44.21783" lon="0.42888">
        <ele>86.316829</ele>
        <time>2022-12-29T11:35:23.898Z</time>
      </trkpt>
      <trkpt lat="44.21782" lon="0.42906">
        <ele>86.575194</ele>
        <time>2022-12-29T11:35:26.894Z</time>
      </trkpt>
      <trkpt lat="44.21782" lon="0.42922">
        <ele>86.820974</ele>
        <time>2022-12-29T11:35:29.894Z</time>
      </trkpt>
      <trkpt lat="44.21781" lon="0.42939">
        <ele>87.077711</ele>
        <time>2022-12-29T11:35:32.908Z</time>
      </trkpt>
      <trkpt lat="44.21781" lon="0.42957">
        <ele>87.345897</ele>
        <time>2022-12-29T11:35:35.894Z</time>
      </trkpt>
      <trkpt lat="44.21781" lon="0.4297">
        <ele>87.539635</ele>
        <time>2022-12-29T11:35:37.880Z</time>
      </trkpt>
      <trkpt lat="44.2178" lon="0.42983">
        <ele>87.727878</ele>
        <time>2022-12-29T11:35:39.899Z</time>
      </trkpt>
      <trkpt lat="44.21779" lon="0.42996">
        <ele>87.922228</ele>
        <time>2022-12-29T11:35:41.899Z</time>
      </trkpt>
      <trkpt lat="44.21779" lon="0.4301">
        <ele>88.058304</ele>
        <time>2022-12-29T11:35:43.903Z</time>
      </trkpt>
      <trkpt lat="44.21778" lon="0.43023">
        <ele>88.017523</ele>
        <time>2022-12-29T11:35:45.900Z</time>
      </trkpt>
      <trkpt lat="44.21778" lon="0.43037">
        <ele>87.976013</ele>
        <time>2022-12-29T11:35:47.899Z</time>
      </trkpt>
      <trkpt lat="44.21777" lon="0.43051">
        <ele>87.931334</ele>
        <time>2022-12-29T11:35:49.899Z</time>
      </trkpt>
      <trkpt lat="44.21777" lon="0.43064">
        <ele>87.891712</ele>
        <time>2022-12-29T11:35:51.900Z</time>
      </trkpt>
      <trkpt lat="44.21776" lon="0.43078">
        <ele>87.851862</ele>
        <time>2022-12-29T11:35:53.893Z</time>
      </trkpt>
      <trkpt lat="44.21775" lon="0.43095">
        <ele>87.799682</ele>
        <time>2022-12-29T11:35:56.896Z</time>
      </trkpt>
      <trkpt lat="44.21775" lon="0.43112">
        <ele>87.747364</ele>
        <time>2022-12-29T11:35:59.883Z</time>
      </trkpt>
      <trkpt lat="44.21774" lon="0.4313">
        <ele>87.691362</ele>
        <time>2022-12-29T11:36:02.883Z</time>
      </trkpt>
      <trkpt lat="44.21773" lon="0.4315">
        <ele>87.632217</ele>
        <time>2022-12-29T11:36:05.908Z</time>
      </trkpt>
      <trkpt lat="44.21772" lon="0.43162">
        <ele>87.593337</ele>
        <time>2022-12-29T11:36:07.901Z</time>
      </trkpt>
      <trkpt lat="44.21771" lon="0.43177">
        <ele>87.549801</ele>
        <time>2022-12-29T11:36:09.900Z</time>
      </trkpt>
      <trkpt lat="44.2177" lon="0.4319">
        <ele>87.508292</ele>
        <time>2022-12-29T11:36:11.889Z</time>
      </trkpt>
      <trkpt lat="44.2177" lon="0.43204">
        <ele>87.467867</ele>
        <time>2022-12-29T11:36:13.895Z</time>
      </trkpt>
      <trkpt lat="44.2177" lon="0.43218">
        <ele>87.425298</ele>
        <time>2022-12-29T11:36:15.898Z</time>
      </trkpt>
      <trkpt lat="44.21769" lon="0.43236">
        <ele>87.368104</ele>
        <time>2022-12-29T11:36:18.899Z</time>
      </trkpt>
      <trkpt lat="44.21769" lon="0.43255">
        <ele>87.311263</ele>
        <time>2022-12-29T11:36:21.898Z</time>
      </trkpt>
      <trkpt lat="44.21768" lon="0.43273">
        <ele>87.284119</ele>
        <time>2022-12-29T11:36:24.905Z</time>
      </trkpt>
      <trkpt lat="44.21768" lon="0.43286">
        <ele>87.266697</ele>
        <time>2022-12-29T11:36:26.903Z</time>
      </trkpt>
      <trkpt lat="44.21768" lon="0.43299">
        <ele>87.249027</ele>
        <time>2022-12-29T11:36:28.902Z</time>
      </trkpt>
      <trkpt lat="44.21767" lon="0.43313">
        <ele>87.229984</ele>
        <time>2022-12-29T11:36:30.899Z</time>
      </trkpt>
      <trkpt lat="44.21767" lon="0.43327">
        <ele>87.211073</ele>
        <time>2022-12-29T11:36:32.884Z</time>
      </trkpt>
      <trkpt lat="44.21767" lon="0.43341">
        <ele>87.191619</ele>
        <time>2022-12-29T11:36:34.893Z</time>
      </trkpt>
      <trkpt lat="44.21766" lon="0.43355">
        <ele>87.172409</ele>
        <time>2022-12-29T11:36:36.895Z</time>
      </trkpt>
      <trkpt lat="44.21766" lon="0.43374">
        <ele>87.146655</ele>
        <time>2022-12-29T11:36:39.896Z</time>
      </trkpt>
      <trkpt lat="44.21765" lon="0.4339">
        <ele>87.124639</ele>
        <time>2022-12-29T11:36:42.888Z</time>
      </trkpt>
      <trkpt lat="44.21765" lon="0.43408">
        <ele>87.099566</ele>
        <time>2022-12-29T11:36:45.892Z</time>
      </trkpt>
      <trkpt lat="44.21764" lon="0.43426">
        <ele>87.075148</ele>
        <time>2022-12-29T11:36:48.900Z</time>
      </trkpt>
      <trkpt lat="44.21763" lon="0.43439">
        <ele>87.057412</ele>
        <time>2022-12-29T11:36:50.903Z</time>
      </trkpt>
      <trkpt lat="44.21762" lon="0.43457">
        <ele>87.031423</ele>
        <time>2022-12-29T11:36:53.892Z</time>
      </trkpt>
      <trkpt lat="44.21762" lon="0.43472">
        <ele>87.011973</ele>
        <time>2022-12-29T11:36:55.899Z</time>
      </trkpt>
      <trkpt lat="44.21762" lon="0.43486">
        <ele>86.992781</ele>
        <time>2022-12-29T11:36:57.899Z</time>
      </trkpt>
      <trkpt lat="44.21762" lon="0.43499">
        <ele>86.974016</ele>
        <time>2022-12-29T11:36:59.902Z</time>
      </trkpt>
      <trkpt lat="44.21761" lon="0.43512">
        <ele>86.97861</ele>
        <time>2022-12-29T11:37:01.898Z</time>
      </trkpt>
      <trkpt lat="44.2176" lon="0.43525">
        <ele>87.015562</ele>
        <time>2022-12-29T11:37:03.892Z</time>
      </trkpt>
      <trkpt lat="44.2176" lon="0.43538">
        <ele>87.055744</ele>
        <time>2022-12-29T11:37:05.881Z</time>
      </trkpt>
      <trkpt lat="44.21761" lon="0.43552">
        <ele>87.094567</ele>
        <time>2022-12-29T11:37:07.894Z</time>
      </trkpt>
      <trkpt lat="44.2176" lon="0.43568">
        <ele>87.142482</ele>
        <time>2022-12-29T11:37:10.888Z</time>
      </trkpt>
      <trkpt lat="44.21759" lon="0.43586">
        <ele>87.193759</ele>
        <time>2022-12-29T11:37:13.888Z</time>
      </trkpt>
      <trkpt lat="44.21759" lon="0.43604">
        <ele>87.246744</ele>
        <time>2022-12-29T11:37:16.898Z</time>
      </trkpt>
      <trkpt lat="44.21757" lon="0.43622">
        <ele>87.299111</ele>
        <time>2022-12-29T11:37:19.902Z</time>
      </trkpt>
      <trkpt lat="44.21757" lon="0.4364">
        <ele>87.351828</ele>
        <time>2022-12-29T11:37:22.883Z</time>
      </trkpt>
      <trkpt lat="44.21756" lon="0.43657">
        <ele>87.4014</ele>
        <time>2022-12-29T11:37:25.900Z</time>
      </trkpt>
      <trkpt lat="44.21755" lon="0.43671">
        <ele>87.444263</ele>
        <time>2022-12-29T11:37:28.897Z</time>
      </trkpt>
      <trkpt lat="44.21754" lon="0.43686">
        <ele>87.48696</ele>
        <time>2022-12-29T11:37:31.900Z</time>
      </trkpt>
      <trkpt lat="44.21754" lon="0.43703">
        <ele>87.537091</ele>
        <time>2022-12-29T11:37:34.894Z</time>
      </trkpt>
      <trkpt lat="44.21753" lon="0.43721">
        <ele>87.588935</ele>
        <time>2022-12-29T11:37:37.894Z</time>
      </trkpt>
      <trkpt lat="44.21752" lon="0.43739">
        <ele>87.641784</ele>
        <time>2022-12-29T11:37:40.883Z</time>
      </trkpt>
      <trkpt lat="44.21751" lon="0.43758">
        <ele>87.692443</ele>
        <time>2022-12-29T11:37:43.907Z</time>
      </trkpt>
      <trkpt lat="44.21751" lon="0.43775">
        <ele>87.636085</ele>
        <time>2022-12-29T11:37:46.892Z</time>
      </trkpt>
      <trkpt lat="44.21746" lon="0.43786">
        <ele>87.594531</ele>
        <time>2022-12-29T11:38:01.903Z</time>
      </trkpt>
      <trkpt lat="44.21745" lon="0.43804">
        <ele>87.534319</ele>
        <time>2022-12-29T11:38:17.890Z</time>
      </trkpt>
      <trkpt lat="44.21745" lon="0.43817">
        <ele>87.490907</ele>
        <time>2022-12-29T11:38:20.900Z</time>
      </trkpt>
      <trkpt lat="44.21746" lon="0.43832">
        <ele>87.440127</ele>
        <time>2022-12-29T11:38:23.885Z</time>
      </trkpt>
      <trkpt lat="44.21746" lon="0.43848">
        <ele>87.387498</ele>
        <time>2022-12-29T11:38:26.882Z</time>
      </trkpt>
      <trkpt lat="44.21745" lon="0.43865">
        <ele>87.333795</ele>
        <time>2022-12-29T11:38:29.880Z</time>
      </trkpt>
      <trkpt lat="44.21745" lon="0.43882">
        <ele>87.276568</ele>
        <time>2022-12-29T11:38:32.885Z</time>
      </trkpt>
      <trkpt lat="44.21745" lon="0.439">
        <ele>87.217369</ele>
        <time>2022-12-29T11:38:35.894Z</time>
      </trkpt>
      <trkpt lat="44.21746" lon="0.43914">
        <ele>87.171268</ele>
        <time>2022-12-29T11:38:37.901Z</time>
      </trkpt>
      <trkpt lat="44.21745" lon="0.43927">
        <ele>87.127818</ele>
        <time>2022-12-29T11:38:39.900Z</time>
      </trkpt>
      <trkpt lat="44.21745" lon="0.43941">
        <ele>87.083748</ele>
        <time>2022-12-29T11:38:41.902Z</time>
      </trkpt>
      <trkpt lat="44.21745" lon="0.43953">
        <ele>87.041971</ele>
        <time>2022-12-29T11:38:43.900Z</time>
      </trkpt>
      <trkpt lat="44.21744" lon="0.43967">
        <ele>86.9988</ele>
        <time>2022-12-29T11:38:45.902Z</time>
      </trkpt>
      <trkpt lat="44.21743" lon="0.43979">
        <ele>86.957259</ele>
        <time>2022-12-29T11:38:47.901Z</time>
      </trkpt>
      <trkpt lat="44.21742" lon="0.43997">
        <ele>86.898276</ele>
        <time>2022-12-29T11:38:50.893Z</time>
      </trkpt>
      <trkpt lat="44.21742" lon="0.44015">
        <ele>87.029436</ele>
        <time>2022-12-29T11:38:53.900Z</time>
      </trkpt>
      <trkpt lat="44.21741" lon="0.44028">
        <ele>87.269899</ele>
        <time>2022-12-29T11:38:55.890Z</time>
      </trkpt>
      <trkpt lat="44.21741" lon="0.44046">
        <ele>87.617933</ele>
        <time>2022-12-29T11:38:58.891Z</time>
      </trkpt>
      <trkpt lat="44.2174" lon="0.44059">
        <ele>87.8547</ele>
        <time>2022-12-29T11:39:00.901Z</time>
      </trkpt>
      <trkpt lat="44.2174" lon="0.44073">
        <ele>88.102916</ele>
        <time>2022-12-29T11:39:02.883Z</time>
      </trkpt>
      <trkpt lat="44.2174" lon="0.44086">
        <ele>88.352498</ele>
        <time>2022-12-29T11:39:04.882Z</time>
      </trkpt>
      <trkpt lat="44.21739" lon="0.441">
        <ele>88.606249</ele>
        <time>2022-12-29T11:39:06.886Z</time>
      </trkpt>
      <trkpt lat="44.21739" lon="0.44113">
        <ele>88.850503</ele>
        <time>2022-12-29T11:39:08.886Z</time>
      </trkpt>
      <trkpt lat="44.21738" lon="0.44132">
        <ele>89.199025</ele>
        <time>2022-12-29T11:39:11.893Z</time>
      </trkpt>
      <trkpt lat="44.21737" lon="0.44145">
        <ele>89.450931</ele>
        <time>2022-12-29T11:39:13.887Z</time>
      </trkpt>
      <trkpt lat="44.21737" lon="0.44158">
        <ele>89.687923</ele>
        <time>2022-12-29T11:39:15.907Z</time>
      </trkpt>
      <trkpt lat="44.21736" lon="0.44175">
        <ele>90.001425</ele>
        <time>2022-12-29T11:39:18.894Z</time>
      </trkpt>
      <trkpt lat="44.21735" lon="0.4419">
        <ele>90.286554</ele>
        <time>2022-12-29T11:39:21.895Z</time>
      </trkpt>
      <trkpt lat="44.21734" lon="0.44205">
        <ele>90.550342</ele>
        <time>2022-12-29T11:39:24.899Z</time>
      </trkpt>
      <trkpt lat="44.21733" lon="0.44218">
        <ele>90.804094</ele>
        <time>2022-12-29T11:39:27.902Z</time>
      </trkpt>
      <trkpt lat="44.21732" lon="0.44232">
        <ele>91.054086</ele>
        <time>2022-12-29T11:39:30.901Z</time>
      </trkpt>
      <trkpt lat="44.21731" lon="0.44247">
        <ele>91.341802</ele>
        <time>2022-12-29T11:39:34.901Z</time>
      </trkpt>
      <trkpt lat="44.2173" lon="0.44261">
        <ele>91.545602</ele>
        <time>2022-12-29T11:39:38.890Z</time>
      </trkpt>
      <trkpt lat="44.21729" lon="0.44273">
        <ele>91.651577</ele>
        <time>2022-12-29T11:39:42.884Z</time>
      </trkpt>
      <trkpt lat="44.21726" lon="0.44286">
        <ele>91.763703</ele>
        <time>2022-12-29T11:39:47.885Z</time>
      </trkpt>
      <trkpt lat="44.21724" lon="0.44299">
        <ele>91.878281</ele>
        <time>2022-12-29T11:39:51.904Z</time>
      </trkpt>
      <trkpt lat="44.21724" lon="0.44315">
        <ele>92.006905</ele>
        <time>2022-12-29T11:39:57.902Z</time>
      </trkpt>
      <trkpt lat="44.21724" lon="0.4433">
        <ele>92.135342</ele>
        <time>2022-12-29T11:40:00.911Z</time>
      </trkpt>
      <trkpt lat="44.21722" lon="0.44344">
        <ele>92.256833</ele>
        <time>2022-12-29T11:40:02.891Z</time>
      </trkpt>
      <trkpt lat="44.21721" lon="0.44359">
        <ele>92.37756</ele>
        <time>2022-12-29T11:40:04.909Z</time>
      </trkpt>
      <trkpt lat="44.21719" lon="0.44374">
        <ele>92.512505</ele>
        <time>2022-12-29T11:40:06.900Z</time>
      </trkpt>
      <trkpt lat="44.21718" lon="0.44391">
        <ele>92.650886</ele>
        <time>2022-12-29T11:40:08.885Z</time>
      </trkpt>
      <trkpt lat="44.21718" lon="0.4441">
        <ele>92.809692</ele>
        <time>2022-12-29T11:40:10.965Z</time>
      </trkpt>
      <trkpt lat="44.21717" lon="0.44426">
        <ele>92.943576</ele>
        <time>2022-12-29T11:40:12.884Z</time>
      </trkpt>
      <trkpt lat="44.21715" lon="0.44441">
        <ele>93.07194</ele>
        <time>2022-12-29T11:40:14.913Z</time>
      </trkpt>
      <trkpt lat="44.21714" lon="0.44458">
        <ele>93.213551</ele>
        <time>2022-12-29T11:40:16.912Z</time>
      </trkpt>
      <trkpt lat="44.21713" lon="0.44472">
        <ele>93.331652</ele>
        <time>2022-12-29T11:40:18.906Z</time>
      </trkpt>
      <trkpt lat="44.21712" lon="0.44485">
        <ele>93.443497</ele>
        <time>2022-12-29T11:40:20.911Z</time>
      </trkpt>
      <trkpt lat="44.21711" lon="0.44498">
        <ele>93.551459</ele>
        <time>2022-12-29T11:40:22.890Z</time>
      </trkpt>
      <trkpt lat="44.21711" lon="0.44513">
        <ele>93.564827</ele>
        <time>2022-12-29T11:40:25.903Z</time>
      </trkpt>
      <trkpt lat="44.2171" lon="0.44528">
        <ele>93.471658</ele>
        <time>2022-12-29T11:40:28.891Z</time>
      </trkpt>
      <trkpt lat="44.21709" lon="0.44543">
        <ele>93.377728</ele>
        <time>2022-12-29T11:40:32.889Z</time>
      </trkpt>
      <trkpt lat="44.21708" lon="0.44559">
        <ele>93.282392</ele>
        <time>2022-12-29T11:40:35.909Z</time>
      </trkpt>
      <trkpt lat="44.21708" lon="0.44574">
        <ele>93.185129</ele>
        <time>2022-12-29T11:40:38.900Z</time>
      </trkpt>
      <trkpt lat="44.21706" lon="0.4459">
        <ele>93.091116</ele>
        <time>2022-12-29T11:40:41.902Z</time>
      </trkpt>
      <trkpt lat="44.21706" lon="0.44606">
        <ele>92.98767</ele>
        <time>2022-12-29T11:40:44.909Z</time>
      </trkpt>
      <trkpt lat="44.21707" lon="0.44622">
        <ele>92.889123</ele>
        <time>2022-12-29T11:40:47.904Z</time>
      </trkpt>
      <trkpt lat="44.21707" lon="0.44638">
        <ele>92.788125</ele>
        <time>2022-12-29T11:40:50.910Z</time>
      </trkpt>
      <trkpt lat="44.21707" lon="0.44654">
        <ele>92.692731</ele>
        <time>2022-12-29T11:40:53.907Z</time>
      </trkpt>
      <trkpt lat="44.21707" lon="0.44667">
        <ele>92.608451</ele>
        <time>2022-12-29T11:40:56.906Z</time>
      </trkpt>
      <trkpt lat="44.21707" lon="0.4468">
        <ele>92.527927</ele>
        <time>2022-12-29T11:40:59.918Z</time>
      </trkpt>
      <trkpt lat="44.21706" lon="0.44694">
        <ele>92.44649</ele>
        <time>2022-12-29T11:41:03.910Z</time>
      </trkpt>
      <trkpt lat="44.21704" lon="0.44709">
        <ele>92.349229</ele>
        <time>2022-12-29T11:41:18.914Z</time>
      </trkpt>
      <trkpt lat="44.21703" lon="0.44724">
        <ele>92.258602</ele>
        <time>2022-12-29T11:41:22.888Z</time>
      </trkpt>
      <trkpt lat="44.21702" lon="0.44739">
        <ele>92.162896</ele>
        <time>2022-12-29T11:41:25.900Z</time>
      </trkpt>
      <trkpt lat="44.21702" lon="0.44758">
        <ele>92.017386</ele>
        <time>2022-12-29T11:41:28.903Z</time>
      </trkpt>
      <trkpt lat="44.21702" lon="0.44774">
        <ele>91.707616</ele>
        <time>2022-12-29T11:41:30.909Z</time>
      </trkpt>
      <trkpt lat="44.21702" lon="0.44788">
        <ele>91.448445</ele>
        <time>2022-12-29T11:41:32.943Z</time>
      </trkpt>
      <trkpt lat="44.21701" lon="0.44801">
        <ele>91.196998</ele>
        <time>2022-12-29T11:41:34.914Z</time>
      </trkpt>
      <trkpt lat="44.21701" lon="0.44815">
        <ele>90.927358</ele>
        <time>2022-12-29T11:41:36.910Z</time>
      </trkpt>
      <trkpt lat="44.21701" lon="0.44828">
        <ele>90.687192</ele>
        <time>2022-12-29T11:41:38.959Z</time>
      </trkpt>
      <trkpt lat="44.21701" lon="0.44847">
        <ele>90.331927</ele>
        <time>2022-12-29T11:41:41.912Z</time>
      </trkpt>
      <trkpt lat="44.21699" lon="0.44861">
        <ele>90.055307</ele>
        <time>2022-12-29T11:41:44.963Z</time>
      </trkpt>
      <trkpt lat="44.217" lon="0.44877">
        <ele>89.755096</ele>
        <time>2022-12-29T11:41:47.897Z</time>
      </trkpt>
      <trkpt lat="44.21699" lon="0.44896">
        <ele>89.408073</ele>
        <time>2022-12-29T11:41:50.954Z</time>
      </trkpt>
      <trkpt lat="44.21699" lon="0.44915">
        <ele>89.053442</ele>
        <time>2022-12-29T11:41:53.913Z</time>
      </trkpt>
      <trkpt lat="44.21699" lon="0.44932">
        <ele>88.729125</ele>
        <time>2022-12-29T11:41:56.961Z</time>
      </trkpt>
      <trkpt lat="44.21699" lon="0.44949">
        <ele>88.397109</ele>
        <time>2022-12-29T11:41:59.910Z</time>
      </trkpt>
      <trkpt lat="44.21699" lon="0.44963">
        <ele>88.147874</ele>
        <time>2022-12-29T11:42:01.908Z</time>
      </trkpt>
      <trkpt lat="44.21699" lon="0.44976">
        <ele>87.894998</ele>
        <time>2022-12-29T11:42:03.910Z</time>
      </trkpt>
      <trkpt lat="44.217" lon="0.44991">
        <ele>87.6194</ele>
        <time>2022-12-29T11:42:05.907Z</time>
      </trkpt>
      <trkpt lat="44.217" lon="0.45004">
        <ele>87.3592</ele>
        <time>2022-12-29T11:42:07.932Z</time>
      </trkpt>
      <trkpt lat="44.217" lon="0.45018">
        <ele>87.439075</ele>
        <time>2022-12-29T11:42:09.890Z</time>
      </trkpt>
      <trkpt lat="44.217" lon="0.45032">
        <ele>87.557412</ele>
        <time>2022-12-29T11:42:11.897Z</time>
      </trkpt>
      <trkpt lat="44.21701" lon="0.4505">
        <ele>87.717366</ele>
        <time>2022-12-29T11:42:14.896Z</time>
      </trkpt>
      <trkpt lat="44.217" lon="0.45064">
        <ele>87.843698</ele>
        <time>2022-12-29T11:42:17.909Z</time>
      </trkpt>
      <trkpt lat="44.217" lon="0.45078">
        <ele>87.96772</ele>
        <time>2022-12-29T11:42:20.914Z</time>
      </trkpt>
      <trkpt lat="44.21698" lon="0.45091">
        <ele>88.084414</ele>
        <time>2022-12-29T11:42:23.913Z</time>
      </trkpt>
      <trkpt lat="44.21697" lon="0.45107">
        <ele>88.221428</ele>
        <time>2022-12-29T11:42:26.901Z</time>
      </trkpt>
      <trkpt lat="44.21698" lon="0.45124">
        <ele>88.37716</ele>
        <time>2022-12-29T11:42:29.892Z</time>
      </trkpt>
      <trkpt lat="44.21699" lon="0.45139">
        <ele>88.505919</ele>
        <time>2022-12-29T11:42:32.925Z</time>
      </trkpt>
      <trkpt lat="44.21699" lon="0.45153">
        <ele>88.631321</ele>
        <time>2022-12-29T11:42:35.900Z</time>
      </trkpt>
      <trkpt lat="44.217" lon="0.45169">
        <ele>88.768749</ele>
        <time>2022-12-29T11:42:38.909Z</time>
      </trkpt>
      <trkpt lat="44.217" lon="0.45181">
        <ele>88.882665</ele>
        <time>2022-12-29T11:42:40.908Z</time>
      </trkpt>
      <trkpt lat="44.217" lon="0.45194">
        <ele>88.994923</ele>
        <time>2022-12-29T11:42:42.914Z</time>
      </trkpt>
      <trkpt lat="44.21701" lon="0.4521">
        <ele>89.132732</ele>
        <time>2022-12-29T11:42:45.900Z</time>
      </trkpt>
      <trkpt lat="44.21702" lon="0.45224">
        <ele>89.255781</ele>
        <time>2022-12-29T11:42:48.896Z</time>
      </trkpt>
      <trkpt lat="44.21702" lon="0.45238">
        <ele>89.379631</ele>
        <time>2022-12-29T11:42:51.912Z</time>
      </trkpt>
      <trkpt lat="44.21703" lon="0.45253">
        <ele>89.51406</ele>
        <time>2022-12-29T11:42:56.895Z</time>
      </trkpt>
      <trkpt lat="44.21704" lon="0.45269">
        <ele>89.352267</ele>
        <time>2022-12-29T11:43:00.909Z</time>
      </trkpt>
      <trkpt lat="44.21705" lon="0.45284">
        <ele>89.126</ele>
        <time>2022-12-29T11:43:04.901Z</time>
      </trkpt>
      <trkpt lat="44.21704" lon="0.45297">
        <ele>88.933693</ele>
        <time>2022-12-29T11:43:08.910Z</time>
      </trkpt>
      <trkpt lat="44.21701" lon="0.45311">
        <ele>88.70799</ele>
        <time>2022-12-29T11:43:13.912Z</time>
      </trkpt>
      <trkpt lat="44.21692" lon="0.45314">
        <ele>88.504566</ele>
        <time>2022-12-29T11:43:16.913Z</time>
      </trkpt>
      <trkpt lat="44.2168" lon="0.45315">
        <ele>88.267345</ele>
        <time>2022-12-29T11:43:19.907Z</time>
      </trkpt>
      <trkpt lat="44.2167" lon="0.45315">
        <ele>88.043707</ele>
        <time>2022-12-29T11:43:22.910Z</time>
      </trkpt>
      <trkpt lat="44.21661" lon="0.45315">
        <ele>87.847515</ele>
        <time>2022-12-29T11:43:25.909Z</time>
      </trkpt>
      <trkpt lat="44.21651" lon="0.45315">
        <ele>87.636555</ele>
        <time>2022-12-29T11:43:29.891Z</time>
      </trkpt>
      <trkpt lat="44.2164" lon="0.45317">
        <ele>87.40534</ele>
        <time>2022-12-29T11:43:33.915Z</time>
      </trkpt>
      <trkpt lat="44.21629" lon="0.45314">
        <ele>87.185042</ele>
        <time>2022-12-29T11:43:37.912Z</time>
      </trkpt>
      <trkpt lat="44.2162" lon="0.45315">
        <ele>86.990483</ele>
        <time>2022-12-29T11:43:49.917Z</time>
      </trkpt>
      <trkpt lat="44.21606" lon="0.4531">
        <ele>86.678499</ele>
        <time>2022-12-29T11:44:49.890Z</time>
      </trkpt>
      <trkpt lat="44.21597" lon="0.45305">
        <ele>86.470213</ele>
        <time>2022-12-29T11:44:52.886Z</time>
      </trkpt>
      <trkpt lat="44.21586" lon="0.45299">
        <ele>86.237433</ele>
        <time>2022-12-29T11:44:55.892Z</time>
      </trkpt>
      <trkpt lat="44.21576" lon="0.45292">
        <ele>85.990033</ele>
        <time>2022-12-29T11:44:58.895Z</time>
      </trkpt>
      <trkpt lat="44.21564" lon="0.45284">
        <ele>85.750091</ele>
        <time>2022-12-29T11:45:01.888Z</time>
      </trkpt>
      <trkpt lat="44.21552" lon="0.45277">
        <ele>85.747293</ele>
        <time>2022-12-29T11:45:04.901Z</time>
      </trkpt>
      <trkpt lat="44.2154" lon="0.45273">
        <ele>85.744771</ele>
        <time>2022-12-29T11:45:07.892Z</time>
      </trkpt>
      <trkpt lat="44.2153" lon="0.4527">
        <ele>85.742444</ele>
        <time>2022-12-29T11:45:10.885Z</time>
      </trkpt>
      <trkpt lat="44.21518" lon="0.45268">
        <ele>85.739931</ele>
        <time>2022-12-29T11:45:13.887Z</time>
      </trkpt>
      <trkpt lat="44.21506" lon="0.45265">
        <ele>85.737276</ele>
        <time>2022-12-29T11:45:16.905Z</time>
      </trkpt>
      <trkpt lat="44.21494" lon="0.45262">
        <ele>85.734583</ele>
        <time>2022-12-29T11:45:19.882Z</time>
      </trkpt>
      <trkpt lat="44.21481" lon="0.45258">
        <ele>85.731905</ele>
        <time>2022-12-29T11:45:22.884Z</time>
      </trkpt>
      <trkpt lat="44.21469" lon="0.45254">
        <ele>85.729104</ele>
        <time>2022-12-29T11:45:25.885Z</time>
      </trkpt>
      <trkpt lat="44.21457" lon="0.45251">
        <ele>85.726558</ele>
        <time>2022-12-29T11:45:28.893Z</time>
      </trkpt>
      <trkpt lat="44.21446" lon="0.45247">
        <ele>85.724157</ele>
        <time>2022-12-29T11:45:31.893Z</time>
      </trkpt>
      <trkpt lat="44.21436" lon="0.45244">
        <ele>85.722012</ele>
        <time>2022-12-29T11:45:34.912Z</time>
      </trkpt>
      <trkpt lat="44.21426" lon="0.45241">
        <ele>85.7198</ele>
        <time>2022-12-29T11:45:37.884Z</time>
      </trkpt>
      <trkpt lat="44.21416" lon="0.45239">
        <ele>85.717501</ele>
        <time>2022-12-29T11:45:40.890Z</time>
      </trkpt>
      <trkpt lat="44.21404" lon="0.45237">
        <ele>85.715061</ele>
        <time>2022-12-29T11:45:43.885Z</time>
      </trkpt>
      <trkpt lat="44.21392" lon="0.45236">
        <ele>85.712479</ele>
        <time>2022-12-29T11:45:46.887Z</time>
      </trkpt>
      <trkpt lat="44.2138" lon="0.45235">
        <ele>85.754354</ele>
        <time>2022-12-29T11:45:49.888Z</time>
      </trkpt>
      <trkpt lat="44.21368" lon="0.45236">
        <ele>85.808132</ele>
        <time>2022-12-29T11:45:52.881Z</time>
      </trkpt>
      <trkpt lat="44.21358" lon="0.45236">
        <ele>85.848573</ele>
        <time>2022-12-29T11:45:54.882Z</time>
      </trkpt>
      <trkpt lat="44.21349" lon="0.45236">
        <ele>85.889014</ele>
        <time>2022-12-29T11:45:56.894Z</time>
      </trkpt>
      <trkpt lat="44.21339" lon="0.45235">
        <ele>85.93075</ele>
        <time>2022-12-29T11:45:58.903Z</time>
      </trkpt>
      <trkpt lat="44.21329" lon="0.45236">
        <ele>85.972053</ele>
        <time>2022-12-29T11:46:00.904Z</time>
      </trkpt>
      <trkpt lat="44.2132" lon="0.45235">
        <ele>86.012182</ele>
        <time>2022-12-29T11:46:02.887Z</time>
      </trkpt>
      <trkpt lat="44.21311" lon="0.45234">
        <ele>86.053094</ele>
        <time>2022-12-29T11:46:04.899Z</time>
      </trkpt>
      <trkpt lat="44.21301" lon="0.45234">
        <ele>86.095266</ele>
        <time>2022-12-29T11:46:06.891Z</time>
      </trkpt>
      <trkpt lat="44.21291" lon="0.45233">
        <ele>86.136577</ele>
        <time>2022-12-29T11:46:08.900Z</time>
      </trkpt>
      <trkpt lat="44.21282" lon="0.45233">
        <ele>86.175297</ele>
        <time>2022-12-29T11:46:10.919Z</time>
      </trkpt>
      <trkpt lat="44.2127" lon="0.45232">
        <ele>86.229273</ele>
        <time>2022-12-29T11:46:13.888Z</time>
      </trkpt>
      <trkpt lat="44.2126" lon="0.45235">
        <ele>86.273412</ele>
        <time>2022-12-29T11:46:16.894Z</time>
      </trkpt>
      <trkpt lat="44.21256" lon="0.45249">
        <ele>86.320592</ele>
        <time>2022-12-29T11:46:20.882Z</time>
      </trkpt>
      <trkpt lat="44.21261" lon="0.45262">
        <ele>86.363508</ele>
        <time>2022-12-29T11:46:23.907Z</time>
      </trkpt>
      <trkpt lat="44.21268" lon="0.45276">
        <ele>86.417902</ele>
        <time>2022-12-29T11:46:26.899Z</time>
      </trkpt>
      <trkpt lat="44.21273" lon="0.45287">
        <ele>86.457257</ele>
        <time>2022-12-29T11:46:28.890Z</time>
      </trkpt>
      <trkpt lat="44.21278" lon="0.45298">
        <ele>86.497782</ele>
        <time>2022-12-29T11:46:30.899Z</time>
      </trkpt>
      <trkpt lat="44.21283" lon="0.4531">
        <ele>86.539817</ele>
        <time>2022-12-29T11:46:32.887Z</time>
      </trkpt>
      <trkpt lat="44.21288" lon="0.45321">
        <ele>86.58021</ele>
        <time>2022-12-29T11:46:34.902Z</time>
      </trkpt>
      <trkpt lat="44.21294" lon="0.45333">
        <ele>86.622778</ele>
        <time>2022-12-29T11:46:36.904Z</time>
      </trkpt>
      <trkpt lat="44.21299" lon="0.45345">
        <ele>86.665318</ele>
        <time>2022-12-29T11:46:38.892Z</time>
      </trkpt>
      <trkpt lat="44.21305" lon="0.45356">
        <ele>86.706838</ele>
        <time>2022-12-29T11:46:40.900Z</time>
      </trkpt>
      <trkpt lat="44.2131" lon="0.45368">
        <ele>86.749312</ele>
        <time>2022-12-29T11:46:42.885Z</time>
      </trkpt>
      <trkpt lat="44.21315" lon="0.45379">
        <ele>86.789447</ele>
        <time>2022-12-29T11:46:44.904Z</time>
      </trkpt>
      <trkpt lat="44.2132" lon="0.45391">
        <ele>86.831534</ele>
        <time>2022-12-29T11:46:46.893Z</time>
      </trkpt>
      <trkpt lat="44.21325" lon="0.45402">
        <ele>86.871382</ele>
        <time>2022-12-29T11:46:48.904Z</time>
      </trkpt>
      <trkpt lat="44.21332" lon="0.45418">
        <ele>86.928223</ele>
        <time>2022-12-29T11:46:51.891Z</time>
      </trkpt>
      <trkpt lat="44.21337" lon="0.45429">
        <ele>86.967145</ele>
        <time>2022-12-29T11:46:53.904Z</time>
      </trkpt>
      <trkpt lat="44.21342" lon="0.4544">
        <ele>87.006738</ele>
        <time>2022-12-29T11:46:55.897Z</time>
      </trkpt>
      <trkpt lat="44.21347" lon="0.45451">
        <ele>87.045342</ele>
        <time>2022-12-29T11:46:57.901Z</time>
      </trkpt>
      <trkpt lat="44.21352" lon="0.45462">
        <ele>87.083571</ele>
        <time>2022-12-29T11:46:59.904Z</time>
      </trkpt>
      <trkpt lat="44.21357" lon="0.45473">
        <ele>87.123791</ele>
        <time>2022-12-29T11:47:01.901Z</time>
      </trkpt>
      <trkpt lat="44.21361" lon="0.45485">
        <ele>87.162888</ele>
        <time>2022-12-29T11:47:03.901Z</time>
      </trkpt>
      <trkpt lat="44.21364" lon="0.45498">
        <ele>87.203728</ele>
        <time>2022-12-29T11:47:05.903Z</time>
      </trkpt>
      <trkpt lat="44.21367" lon="0.4551">
        <ele>87.243308</ele>
        <time>2022-12-29T11:47:07.891Z</time>
      </trkpt>
      <trkpt lat="44.2137" lon="0.45526">
        <ele>87.319013</ele>
        <time>2022-12-29T11:47:10.897Z</time>
      </trkpt>
      <trkpt lat="44.21373" lon="0.45541">
        <ele>87.389277</ele>
        <time>2022-12-29T11:47:13.892Z</time>
      </trkpt>
      <trkpt lat="44.21375" lon="0.45557">
        <ele>87.461629</ele>
        <time>2022-12-29T11:47:16.900Z</time>
      </trkpt>
      <trkpt lat="44.21376" lon="0.45573">
        <ele>87.536674</ele>
        <time>2022-12-29T11:47:19.885Z</time>
      </trkpt>
      <trkpt lat="44.21378" lon="0.45591">
        <ele>87.620332</ele>
        <time>2022-12-29T11:47:22.885Z</time>
      </trkpt>
      <trkpt lat="44.2138" lon="0.45609">
        <ele>87.702088</ele>
        <time>2022-12-29T11:47:25.887Z</time>
      </trkpt>
      <trkpt lat="44.21382" lon="0.45625">
        <ele>87.775178</ele>
        <time>2022-12-29T11:47:28.888Z</time>
      </trkpt>
      <trkpt lat="44.21383" lon="0.45639">
        <ele>87.839625</ele>
        <time>2022-12-29T11:47:31.897Z</time>
      </trkpt>
      <trkpt lat="44.21388" lon="0.4565">
        <ele>87.900511</ele>
        <time>2022-12-29T11:47:34.888Z</time>
      </trkpt>
      <trkpt lat="44.21395" lon="0.4566">
        <ele>87.963843</ele>
        <time>2022-12-29T11:47:37.895Z</time>
      </trkpt>
      <trkpt lat="44.21404" lon="0.45671">
        <ele>88.03737</ele>
        <time>2022-12-29T11:47:40.883Z</time>
      </trkpt>
      <trkpt lat="44.21415" lon="0.45681">
        <ele>88.119722</ele>
        <time>2022-12-29T11:47:43.885Z</time>
      </trkpt>
      <trkpt lat="44.21426" lon="0.45689">
        <ele>88.202709</ele>
        <time>2022-12-29T11:47:46.878Z</time>
      </trkpt>
      <trkpt lat="44.21438" lon="0.45697">
        <ele>88.287568</ele>
        <time>2022-12-29T11:47:49.899Z</time>
      </trkpt>
      <trkpt lat="44.21447" lon="0.45702">
        <ele>88.346635</ele>
        <time>2022-12-29T11:47:51.900Z</time>
      </trkpt>
      <trkpt lat="44.21455" lon="0.45707">
        <ele>88.397321</ele>
        <time>2022-12-29T11:47:53.901Z</time>
      </trkpt>
      <trkpt lat="44.21463" lon="0.45713">
        <ele>88.423333</ele>
        <time>2022-12-29T11:47:55.900Z</time>
      </trkpt>
      <trkpt lat="44.21471" lon="0.45719">
        <ele>88.449361</ele>
        <time>2022-12-29T11:47:57.906Z</time>
      </trkpt>
      <trkpt lat="44.2148" lon="0.45724">
        <ele>88.476357</ele>
        <time>2022-12-29T11:47:59.903Z</time>
      </trkpt>
      <trkpt lat="44.21489" lon="0.45729">
        <ele>88.504048</ele>
        <time>2022-12-29T11:48:01.901Z</time>
      </trkpt>
      <trkpt lat="44.21497" lon="0.45734">
        <ele>88.530941</ele>
        <time>2022-12-29T11:48:03.893Z</time>
      </trkpt>
      <trkpt lat="44.21506" lon="0.45739">
        <ele>88.559167</ele>
        <time>2022-12-29T11:48:05.903Z</time>
      </trkpt>
      <trkpt lat="44.21515" lon="0.45745">
        <ele>88.587371</ele>
        <time>2022-12-29T11:48:07.899Z</time>
      </trkpt>
      <trkpt lat="44.21524" lon="0.4575">
        <ele>88.614715</ele>
        <time>2022-12-29T11:48:09.883Z</time>
      </trkpt>
      <trkpt lat="44.21533" lon="0.45755">
        <ele>88.644135</ele>
        <time>2022-12-29T11:48:11.904Z</time>
      </trkpt>
      <trkpt lat="44.21542" lon="0.4576">
        <ele>88.670589</ele>
        <time>2022-12-29T11:48:13.897Z</time>
      </trkpt>
      <trkpt lat="44.21554" lon="0.45768">
        <ele>88.708172</ele>
        <time>2022-12-29T11:48:16.912Z</time>
      </trkpt>
      <trkpt lat="44.21564" lon="0.45774">
        <ele>88.740247</ele>
        <time>2022-12-29T11:48:19.895Z</time>
      </trkpt>
      <trkpt lat="44.21574" lon="0.4578">
        <ele>88.77239</ele>
        <time>2022-12-29T11:48:22.885Z</time>
      </trkpt>
      <trkpt lat="44.21584" lon="0.45787">
        <ele>88.806109</ele>
        <time>2022-12-29T11:48:25.882Z</time>
      </trkpt>
      <trkpt lat="44.21596" lon="0.45794">
        <ele>88.843449</ele>
        <time>2022-12-29T11:48:28.888Z</time>
      </trkpt>
      <trkpt lat="44.21608" lon="0.45802">
        <ele>88.882426</ele>
        <time>2022-12-29T11:48:31.903Z</time>
      </trkpt>
      <trkpt lat="44.2162" lon="0.45811">
        <ele>88.933255</ele>
        <time>2022-12-29T11:48:34.904Z</time>
      </trkpt>
      <trkpt lat="44.21627" lon="0.4582">
        <ele>88.993897</ele>
        <time>2022-12-29T11:48:36.884Z</time>
      </trkpt>
      <trkpt lat="44.21636" lon="0.45834">
        <ele>89.084224</ele>
        <time>2022-12-29T11:48:39.884Z</time>
      </trkpt>
      <trkpt lat="44.2164" lon="0.45846">
        <ele>89.146209</ele>
        <time>2022-12-29T11:48:41.883Z</time>
      </trkpt>
      <trkpt lat="44.21644" lon="0.45858">
        <ele>89.208033</ele>
        <time>2022-12-29T11:48:43.885Z</time>
      </trkpt>
      <trkpt lat="44.21648" lon="0.45871">
        <ele>89.272164</ele>
        <time>2022-12-29T11:48:45.894Z</time>
      </trkpt>
      <trkpt lat="44.21653" lon="0.45888">
        <ele>89.358379</ele>
        <time>2022-12-29T11:48:48.887Z</time>
      </trkpt>
      <trkpt lat="44.21657" lon="0.45905">
        <ele>89.439755</ele>
        <time>2022-12-29T11:48:51.905Z</time>
      </trkpt>
      <trkpt lat="44.21661" lon="0.4592">
        <ele>89.514331</ele>
        <time>2022-12-29T11:48:54.890Z</time>
      </trkpt>
      <trkpt lat="44.21665" lon="0.45935">
        <ele>89.592019</ele>
        <time>2022-12-29T11:48:57.901Z</time>
      </trkpt>
      <trkpt lat="44.2167" lon="0.45952">
        <ele>89.674494</ele>
        <time>2022-12-29T11:49:00.893Z</time>
      </trkpt>
      <trkpt lat="44.21674" lon="0.45969">
        <ele>89.760475</ele>
        <time>2022-12-29T11:49:03.896Z</time>
      </trkpt>
      <trkpt lat="44.21678" lon="0.45981">
        <ele>89.820172</ele>
        <time>2022-12-29T11:49:05.885Z</time>
      </trkpt>
      <trkpt lat="44.21681" lon="0.45993">
        <ele>89.879182</ele>
        <time>2022-12-29T11:49:07.890Z</time>
      </trkpt>
      <trkpt lat="44.21686" lon="0.46003">
        <ele>89.937478</ele>
        <time>2022-12-29T11:49:09.900Z</time>
      </trkpt>
      <trkpt lat="44.21693" lon="0.46018">
        <ele>90.018911</ele>
        <time>2022-12-29T11:49:12.882Z</time>
      </trkpt>
      <trkpt lat="44.21701" lon="0.46025">
        <ele>90.079453</ele>
        <time>2022-12-29T11:49:15.892Z</time>
      </trkpt>
      <trkpt lat="44.21711" lon="0.4603">
        <ele>89.984941</ele>
        <time>2022-12-29T11:49:20.892Z</time>
      </trkpt>
      <trkpt lat="44.2172" lon="0.46032">
        <ele>89.909135</ele>
        <time>2022-12-29T11:49:24.907Z</time>
      </trkpt>
      <trkpt lat="44.2173" lon="0.46031">
        <ele>89.82646</ele>
        <time>2022-12-29T11:49:29.883Z</time>
      </trkpt>
      <trkpt lat="44.2174" lon="0.4603">
        <ele>89.740745</ele>
        <time>2022-12-29T11:49:34.890Z</time>
      </trkpt>
      <trkpt lat="44.21751" lon="0.46028">
        <ele>89.649912</ele>
        <time>2022-12-29T11:49:39.885Z</time>
      </trkpt>
      <trkpt lat="44.2176" lon="0.46029">
        <ele>89.574038</ele>
        <time>2022-12-29T11:49:44.890Z</time>
      </trkpt>
      <trkpt lat="44.21769" lon="0.46033">
        <ele>89.493143</ele>
        <time>2022-12-29T11:49:55.884Z</time>
      </trkpt>
      <trkpt lat="44.21768" lon="0.46045">
        <ele>89.415971</ele>
        <time>2022-12-29T11:49:59.886Z</time>
      </trkpt>
      <trkpt lat="44.21768" lon="0.46059">
        <ele>89.334697</ele>
        <time>2022-12-29T11:50:02.885Z</time>
      </trkpt>
      <trkpt lat="44.21768" lon="0.46075">
        <ele>89.236497</ele>
        <time>2022-12-29T11:50:05.888Z</time>
      </trkpt>
      <trkpt lat="44.21769" lon="0.46094">
        <ele>89.125962</ele>
        <time>2022-12-29T11:50:08.902Z</time>
      </trkpt>
      <trkpt lat="44.21772" lon="0.46108">
        <ele>89.033456</ele>
        <time>2022-12-29T11:50:10.886Z</time>
      </trkpt>
      <trkpt lat="44.21772" lon="0.46122">
        <ele>88.949792</ele>
        <time>2022-12-29T11:50:12.882Z</time>
      </trkpt>
      <trkpt lat="44.21773" lon="0.4614">
        <ele>88.844125</ele>
        <time>2022-12-29T11:50:15.892Z</time>
      </trkpt>
      <trkpt lat="44.21774" lon="0.46157">
        <ele>88.741985</ele>
        <time>2022-12-29T11:50:18.882Z</time>
      </trkpt>
      <trkpt lat="44.21773" lon="0.46173">
        <ele>88.644151</ele>
        <time>2022-12-29T11:50:21.887Z</time>
      </trkpt>
      <trkpt lat="44.21773" lon="0.46191">
        <ele>88.582438</ele>
        <time>2022-12-29T11:50:24.884Z</time>
      </trkpt>
      <trkpt lat="44.21774" lon="0.46209">
        <ele>88.62672</ele>
        <time>2022-12-29T11:50:27.885Z</time>
      </trkpt>
      <trkpt lat="44.21775" lon="0.46227">
        <ele>88.67284</ele>
        <time>2022-12-29T11:50:30.882Z</time>
      </trkpt>
      <trkpt lat="44.21779" lon="0.4624">
        <ele>88.706121</ele>
        <time>2022-12-29T11:50:32.882Z</time>
      </trkpt>
      <trkpt lat="44.2178" lon="0.46252">
        <ele>88.737531</ele>
        <time>2022-12-29T11:50:34.890Z</time>
      </trkpt>
      <trkpt lat="44.2178" lon="0.46265">
        <ele>88.768874</ele>
        <time>2022-12-29T11:50:36.890Z</time>
      </trkpt>
      <trkpt lat="44.21781" lon="0.46279">
        <ele>88.802825</ele>
        <time>2022-12-29T11:50:38.893Z</time>
      </trkpt>
      <trkpt lat="44.21782" lon="0.46292">
        <ele>88.837055</ele>
        <time>2022-12-29T11:50:40.891Z</time>
      </trkpt>
      <trkpt lat="44.21782" lon="0.46305">
        <ele>88.86869</ele>
        <time>2022-12-29T11:50:42.892Z</time>
      </trkpt>
      <trkpt lat="44.21783" lon="0.4632">
        <ele>88.905564</ele>
        <time>2022-12-29T11:50:44.887Z</time>
      </trkpt>
      <trkpt lat="44.21783" lon="0.46333">
        <ele>88.937921</ele>
        <time>2022-12-29T11:50:46.891Z</time>
      </trkpt>
      <trkpt lat="44.21783" lon="0.46346">
        <ele>88.969764</ele>
        <time>2022-12-29T11:50:48.882Z</time>
      </trkpt>
      <trkpt lat="44.21783" lon="0.46359">
        <ele>89.002092</ele>
        <time>2022-12-29T11:50:50.885Z</time>
      </trkpt>
      <trkpt lat="44.21784" lon="0.46373">
        <ele>89.035908</ele>
        <time>2022-12-29T11:50:52.893Z</time>
      </trkpt>
      <trkpt lat="44.21785" lon="0.46392">
        <ele>89.083169</ele>
        <time>2022-12-29T11:50:55.883Z</time>
      </trkpt>
      <trkpt lat="44.21787" lon="0.46405">
        <ele>89.117057</ele>
        <time>2022-12-29T11:50:57.883Z</time>
      </trkpt>
      <trkpt lat="44.21788" lon="0.46419">
        <ele>89.150401</ele>
        <time>2022-12-29T11:50:59.892Z</time>
      </trkpt>
      <trkpt lat="44.21789" lon="0.46433">
        <ele>89.184422</ele>
        <time>2022-12-29T11:51:01.880Z</time>
      </trkpt>
      <trkpt lat="44.2179" lon="0.46446">
        <ele>88.958076</ele>
        <time>2022-12-29T11:51:03.892Z</time>
      </trkpt>
      <trkpt lat="44.2179" lon="0.46459">
        <ele>88.720707</ele>
        <time>2022-12-29T11:51:05.881Z</time>
      </trkpt>
      <trkpt lat="44.2179" lon="0.46478">
        <ele>88.370304</ele>
        <time>2022-12-29T11:51:08.886Z</time>
      </trkpt>
      <trkpt lat="44.21791" lon="0.46494">
        <ele>88.070657</ele>
        <time>2022-12-29T11:51:11.886Z</time>
      </trkpt>
      <trkpt lat="44.21792" lon="0.46509">
        <ele>87.776079</ele>
        <time>2022-12-29T11:51:14.891Z</time>
      </trkpt>
      <trkpt lat="44.21792" lon="0.46523">
        <ele>87.514232</ele>
        <time>2022-12-29T11:51:17.894Z</time>
      </trkpt>
      <trkpt lat="44.21794" lon="0.46538">
        <ele>87.227468</ele>
        <time>2022-12-29T11:51:20.885Z</time>
      </trkpt>
      <trkpt lat="44.21794" lon="0.46555">
        <ele>86.905233</ele>
        <time>2022-12-29T11:51:24.887Z</time>
      </trkpt>
      <trkpt lat="44.21795" lon="0.46571">
        <ele>86.610248</ele>
        <time>2022-12-29T11:51:28.899Z</time>
      </trkpt>
      <trkpt lat="44.21794" lon="0.46578">
        <ele>86.463709</ele>
        <time>2022-12-29T11:51:51.483Z</time>
      </trkpt>
      <trkpt lat="44.21793" lon="0.4659">
        <ele>86.2386</ele>
        <time>2022-12-29T12:09:28.484Z</time>
      </trkpt>
      <trkpt lat="44.21795" lon="0.46603">
        <ele>85.997594</ele>
        <time>2022-12-29T12:09:41.891Z</time>
      </trkpt>
      <trkpt lat="44.21795" lon="0.46617">
        <ele>85.728151</ele>
        <time>2022-12-29T12:09:45.884Z</time>
      </trkpt>
      <trkpt lat="44.21797" lon="0.46633">
        <ele>85.428696</ele>
        <time>2022-12-29T12:09:49.884Z</time>
      </trkpt>
      <trkpt lat="44.21799" lon="0.46647">
        <ele>85.167265</ele>
        <time>2022-12-29T12:09:52.889Z</time>
      </trkpt>
      <trkpt lat="44.218" lon="0.46661">
        <ele>84.897973</ele>
        <time>2022-12-29T12:09:55.897Z</time>
      </trkpt>
      <trkpt lat="44.21802" lon="0.46675">
        <ele>84.617938</ele>
        <time>2022-12-29T12:09:58.896Z</time>
      </trkpt>
      <trkpt lat="44.21803" lon="0.46692">
        <ele>84.463263</ele>
        <time>2022-12-29T12:10:01.891Z</time>
      </trkpt>
      <trkpt lat="44.21804" lon="0.46711">
        <ele>84.466567</ele>
        <time>2022-12-29T12:10:04.890Z</time>
      </trkpt>
      <trkpt lat="44.21805" lon="0.46728">
        <ele>84.469626</ele>
        <time>2022-12-29T12:10:07.892Z</time>
      </trkpt>
      <trkpt lat="44.21808" lon="0.46741">
        <ele>84.47198</ele>
        <time>2022-12-29T12:10:09.892Z</time>
      </trkpt>
      <trkpt lat="44.21808" lon="0.46756">
        <ele>84.474603</ele>
        <time>2022-12-29T12:10:11.884Z</time>
      </trkpt>
      <trkpt lat="44.21809" lon="0.46769">
        <ele>84.476792</ele>
        <time>2022-12-29T12:10:13.888Z</time>
      </trkpt>
      <trkpt lat="44.21809" lon="0.46782">
        <ele>84.479089</ele>
        <time>2022-12-29T12:10:15.893Z</time>
      </trkpt>
      <trkpt lat="44.21809" lon="0.468">
        <ele>84.482162</ele>
        <time>2022-12-29T12:10:18.895Z</time>
      </trkpt>
      <trkpt lat="44.2181" lon="0.46818">
        <ele>84.485416</ele>
        <time>2022-12-29T12:10:21.888Z</time>
      </trkpt>
      <trkpt lat="44.21811" lon="0.46838">
        <ele>84.488734</ele>
        <time>2022-12-29T12:10:24.889Z</time>
      </trkpt>
      <trkpt lat="44.21812" lon="0.46855">
        <ele>84.491821</ele>
        <time>2022-12-29T12:10:27.884Z</time>
      </trkpt>
      <trkpt lat="44.21814" lon="0.46871">
        <ele>84.494667</ele>
        <time>2022-12-29T12:10:30.892Z</time>
      </trkpt>
      <trkpt lat="44.21816" lon="0.46886">
        <ele>84.497313</ele>
        <time>2022-12-29T12:10:33.884Z</time>
      </trkpt>
      <trkpt lat="44.21819" lon="0.469">
        <ele>84.499814</ele>
        <time>2022-12-29T12:10:36.890Z</time>
      </trkpt>
      <trkpt lat="44.2182" lon="0.46917">
        <ele>84.502722</ele>
        <time>2022-12-29T12:10:39.890Z</time>
      </trkpt>
      <trkpt lat="44.21822" lon="0.46935">
        <ele>84.545083</ele>
        <time>2022-12-29T12:10:42.886Z</time>
      </trkpt>
      <trkpt lat="44.21823" lon="0.46952">
        <ele>84.775839</ele>
        <time>2022-12-29T12:10:45.889Z</time>
      </trkpt>
      <trkpt lat="44.21825" lon="0.46969">
        <ele>85.012003</ele>
        <time>2022-12-29T12:10:48.887Z</time>
      </trkpt>
      <trkpt lat="44.21825" lon="0.46987">
        <ele>85.258202</ele>
        <time>2022-12-29T12:10:51.887Z</time>
      </trkpt>
      <trkpt lat="44.21826" lon="0.47003">
        <ele>85.467589</ele>
        <time>2022-12-29T12:10:54.890Z</time>
      </trkpt>
      <trkpt lat="44.21825" lon="0.4702">
        <ele>85.704044</ele>
        <time>2022-12-29T12:10:57.889Z</time>
      </trkpt>
      <trkpt lat="44.21826" lon="0.47039">
        <ele>85.955479</ele>
        <time>2022-12-29T12:11:00.896Z</time>
      </trkpt>
      <trkpt lat="44.21826" lon="0.47056">
        <ele>86.190553</ele>
        <time>2022-12-29T12:11:03.915Z</time>
      </trkpt>
      <trkpt lat="44.21828" lon="0.47072">
        <ele>86.417616</ele>
        <time>2022-12-29T12:11:06.896Z</time>
      </trkpt>
      <trkpt lat="44.2183" lon="0.47088">
        <ele>86.634022</ele>
        <time>2022-12-29T12:11:09.886Z</time>
      </trkpt>
      <trkpt lat="44.21832" lon="0.47103">
        <ele>86.844114</ele>
        <time>2022-12-29T12:11:12.892Z</time>
      </trkpt>
      <trkpt lat="44.21833" lon="0.4712">
        <ele>87.069875</ele>
        <time>2022-12-29T12:11:15.887Z</time>
      </trkpt>
      <trkpt lat="44.21834" lon="0.47137">
        <ele>87.308413</ele>
        <time>2022-12-29T12:11:18.891Z</time>
      </trkpt>
      <trkpt lat="44.21835" lon="0.47154">
        <ele>87.535357</ele>
        <time>2022-12-29T12:11:21.888Z</time>
      </trkpt>
      <trkpt lat="44.21836" lon="0.47168">
        <ele>87.726723</ele>
        <time>2022-12-29T12:11:24.889Z</time>
      </trkpt>
      <trkpt lat="44.21839" lon="0.47182">
        <ele>87.91975</ele>
        <time>2022-12-29T12:11:27.889Z</time>
      </trkpt>
      <trkpt lat="44.2184" lon="0.47197">
        <ele>88.058991</ele>
        <time>2022-12-29T12:11:30.904Z</time>
      </trkpt>
      <trkpt lat="44.21841" lon="0.47215">
        <ele>88.209241</ele>
        <time>2022-12-29T12:11:33.895Z</time>
      </trkpt>
      <trkpt lat="44.21841" lon="0.47233">
        <ele>88.366881</ele>
        <time>2022-12-29T12:11:36.883Z</time>
      </trkpt>
      <trkpt lat="44.21841" lon="0.47251">
        <ele>88.524747</ele>
        <time>2022-12-29T12:11:39.901Z</time>
      </trkpt>
      <trkpt lat="44.21841" lon="0.47268">
        <ele>88.673644</ele>
        <time>2022-12-29T12:11:42.891Z</time>
      </trkpt>
      <trkpt lat="44.21843" lon="0.47285">
        <ele>88.826481</ele>
        <time>2022-12-29T12:11:45.888Z</time>
      </trkpt>
      <trkpt lat="44.21845" lon="0.47301">
        <ele>88.971428</ele>
        <time>2022-12-29T12:11:48.890Z</time>
      </trkpt>
      <trkpt lat="44.21847" lon="0.47318">
        <ele>89.121638</ele>
        <time>2022-12-29T12:11:51.890Z</time>
      </trkpt>
      <trkpt lat="44.21847" lon="0.47334">
        <ele>89.260887</ele>
        <time>2022-12-29T12:11:54.894Z</time>
      </trkpt>
      <trkpt lat="44.21847" lon="0.4735">
        <ele>89.406266</ele>
        <time>2022-12-29T12:11:57.892Z</time>
      </trkpt>
      <trkpt lat="44.21847" lon="0.47365">
        <ele>89.530772</ele>
        <time>2022-12-29T12:12:00.890Z</time>
      </trkpt>
      <trkpt lat="44.21846" lon="0.47379">
        <ele>89.658131</ele>
        <time>2022-12-29T12:12:03.891Z</time>
      </trkpt>
      <trkpt lat="44.21848" lon="0.47395">
        <ele>89.795104</ele>
        <time>2022-12-29T12:12:06.891Z</time>
      </trkpt>
      <trkpt lat="44.21849" lon="0.47411">
        <ele>89.942842</ele>
        <time>2022-12-29T12:12:09.892Z</time>
      </trkpt>
      <trkpt lat="44.21849" lon="0.47429">
        <ele>90.096219</ele>
        <time>2022-12-29T12:12:12.885Z</time>
      </trkpt>
      <trkpt lat="44.21848" lon="0.47447">
        <ele>90.02576</ele>
        <time>2022-12-29T12:12:15.891Z</time>
      </trkpt>
      <trkpt lat="44.21847" lon="0.4746">
        <ele>89.956539</ele>
        <time>2022-12-29T12:12:17.891Z</time>
      </trkpt>
      <trkpt lat="44.21847" lon="0.47474">
        <ele>89.886162</ele>
        <time>2022-12-29T12:12:19.886Z</time>
      </trkpt>
      <trkpt lat="44.21848" lon="0.47492">
        <ele>89.790232</ele>
        <time>2022-12-29T12:12:22.887Z</time>
      </trkpt>
      <trkpt lat="44.21849" lon="0.47508">
        <ele>89.703619</ele>
        <time>2022-12-29T12:12:25.906Z</time>
      </trkpt>
      <trkpt lat="44.21848" lon="0.47523">
        <ele>89.626817</ele>
        <time>2022-12-29T12:12:28.891Z</time>
      </trkpt>
      <trkpt lat="44.21849" lon="0.4754">
        <ele>89.533976</ele>
        <time>2022-12-29T12:12:31.896Z</time>
      </trkpt>
      <trkpt lat="44.21849" lon="0.47557">
        <ele>89.445733</ele>
        <time>2022-12-29T12:12:34.898Z</time>
      </trkpt>
      <trkpt lat="44.2185" lon="0.47575">
        <ele>89.348751</ele>
        <time>2022-12-29T12:12:37.887Z</time>
      </trkpt>
      <trkpt lat="44.21852" lon="0.47594">
        <ele>89.250126</ele>
        <time>2022-12-29T12:12:40.888Z</time>
      </trkpt>
      <trkpt lat="44.21852" lon="0.47612">
        <ele>89.15612</ele>
        <time>2022-12-29T12:12:43.906Z</time>
      </trkpt>
      <trkpt lat="44.21852" lon="0.4763">
        <ele>89.060002</ele>
        <time>2022-12-29T12:12:46.905Z</time>
      </trkpt>
      <trkpt lat="44.21852" lon="0.47647">
        <ele>88.967536</ele>
        <time>2022-12-29T12:12:49.888Z</time>
      </trkpt>
      <trkpt lat="44.21852" lon="0.47662">
        <ele>88.891432</ele>
        <time>2022-12-29T12:12:52.904Z</time>
      </trkpt>
      <trkpt lat="44.21853" lon="0.47677">
        <ele>88.809546</ele>
        <time>2022-12-29T12:12:56.899Z</time>
      </trkpt>
      <trkpt lat="44.21853" lon="0.47694">
        <ele>88.666901</ele>
        <time>2022-12-29T12:13:00.893Z</time>
      </trkpt>
      <trkpt lat="44.21853" lon="0.4771">
        <ele>88.515835</ele>
        <time>2022-12-29T12:13:04.902Z</time>
      </trkpt>
      <trkpt lat="44.21852" lon="0.47724">
        <ele>88.383942</ele>
        <time>2022-12-29T12:13:08.908Z</time>
      </trkpt>
      <trkpt lat="44.2185" lon="0.47739">
        <ele>88.242161</ele>
        <time>2022-12-29T12:13:13.890Z</time>
      </trkpt>
      <trkpt lat="44.21847" lon="0.47752">
        <ele>88.114517</ele>
        <time>2022-12-29T12:13:17.894Z</time>
      </trkpt>
      <trkpt lat="44.21846" lon="0.47766">
        <ele>87.974284</ele>
        <time>2022-12-29T12:13:22.909Z</time>
      </trkpt>
      <trkpt lat="44.21846" lon="0.47782">
        <ele>87.826993</ele>
        <time>2022-12-29T12:13:27.910Z</time>
      </trkpt>
      <trkpt lat="44.21848" lon="0.47795">
        <ele>87.701177</ele>
        <time>2022-12-29T12:13:30.901Z</time>
      </trkpt>
      <trkpt lat="44.21849" lon="0.47813">
        <ele>87.530617</ele>
        <time>2022-12-29T12:13:33.889Z</time>
      </trkpt>
      <trkpt lat="44.2185" lon="0.47829">
        <ele>87.383798</ele>
        <time>2022-12-29T12:13:35.889Z</time>
      </trkpt>
      <trkpt lat="44.2185" lon="0.47844">
        <ele>87.241179</ele>
        <time>2022-12-29T12:13:37.891Z</time>
      </trkpt>
      <trkpt lat="44.21851" lon="0.47858">
        <ele>87.10978</ele>
        <time>2022-12-29T12:13:39.890Z</time>
      </trkpt>
      <trkpt lat="44.21851" lon="0.47872">
        <ele>86.9738</ele>
        <time>2022-12-29T12:13:41.892Z</time>
      </trkpt>
      <trkpt lat="44.21852" lon="0.4789">
        <ele>86.80523</ele>
        <time>2022-12-29T12:13:44.908Z</time>
      </trkpt>
      <trkpt lat="44.21853" lon="0.47905">
        <ele>86.658829</ele>
        <time>2022-12-29T12:13:47.905Z</time>
      </trkpt>
      <trkpt lat="44.21854" lon="0.4792">
        <ele>86.520759</ele>
        <time>2022-12-29T12:13:50.896Z</time>
      </trkpt>
      <trkpt lat="44.21855" lon="0.47935">
        <ele>86.463</ele>
        <time>2022-12-29T12:13:53.890Z</time>
      </trkpt>
      <trkpt lat="44.21854" lon="0.47952">
        <ele>86.631579</ele>
        <time>2022-12-29T12:13:56.897Z</time>
      </trkpt>
      <trkpt lat="44.21853" lon="0.47968">
        <ele>86.79372</ele>
        <time>2022-12-29T12:13:59.905Z</time>
      </trkpt>
      <trkpt lat="44.21853" lon="0.47985">
        <ele>86.956638</ele>
        <time>2022-12-29T12:14:02.905Z</time>
      </trkpt>
      <trkpt lat="44.21852" lon="0.48001">
        <ele>87.116231</ele>
        <time>2022-12-29T12:14:05.893Z</time>
      </trkpt>
      <trkpt lat="44.21852" lon="0.48018">
        <ele>87.28382</ele>
        <time>2022-12-29T12:14:08.890Z</time>
      </trkpt>
      <trkpt lat="44.21851" lon="0.48033">
        <ele>87.438587</ele>
        <time>2022-12-29T12:14:11.893Z</time>
      </trkpt>
      <trkpt lat="44.2185" lon="0.48048">
        <ele>87.586909</ele>
        <time>2022-12-29T12:14:14.905Z</time>
      </trkpt>
      <trkpt lat="44.2185" lon="0.48064">
        <ele>87.747849</ele>
        <time>2022-12-29T12:14:17.885Z</time>
      </trkpt>
      <trkpt lat="44.21849" lon="0.48081">
        <ele>87.91648</ele>
        <time>2022-12-29T12:14:20.891Z</time>
      </trkpt>
      <trkpt lat="44.2185" lon="0.48099">
        <ele>88.090122</ele>
        <time>2022-12-29T12:14:23.905Z</time>
      </trkpt>
      <trkpt lat="44.2185" lon="0.48116">
        <ele>88.262581</ele>
        <time>2022-12-29T12:14:26.903Z</time>
      </trkpt>
      <trkpt lat="44.2185" lon="0.48132">
        <ele>88.416259</ele>
        <time>2022-12-29T12:14:29.905Z</time>
      </trkpt>
      <trkpt lat="44.21848" lon="0.48146">
        <ele>88.55814</ele>
        <time>2022-12-29T12:14:32.904Z</time>
      </trkpt>
      <trkpt lat="44.21847" lon="0.48162">
        <ele>88.719863</ele>
        <time>2022-12-29T12:14:35.888Z</time>
      </trkpt>
      <trkpt lat="44.21846" lon="0.48179">
        <ele>88.88764</ele>
        <time>2022-12-29T12:14:38.897Z</time>
      </trkpt>
      <trkpt lat="44.21846" lon="0.48196">
        <ele>88.787864</ele>
        <time>2022-12-29T12:14:41.904Z</time>
      </trkpt>
      <trkpt lat="44.21845" lon="0.48212">
        <ele>88.659273</ele>
        <time>2022-12-29T12:14:44.905Z</time>
      </trkpt>
      <trkpt lat="44.21845" lon="0.48228">
        <ele>88.525911</ele>
        <time>2022-12-29T12:14:47.896Z</time>
      </trkpt>
      <trkpt lat="44.21847" lon="0.48245">
        <ele>88.389301</ele>
        <time>2022-12-29T12:14:50.904Z</time>
      </trkpt>
      <trkpt lat="44.21852" lon="0.48259">
        <ele>88.266378</ele>
        <time>2022-12-29T12:14:53.908Z</time>
      </trkpt>
      <trkpt lat="44.21858" lon="0.4827">
        <ele>88.156658</ele>
        <time>2022-12-29T12:14:56.896Z</time>
      </trkpt>
      <trkpt lat="44.21866" lon="0.48281">
        <ele>88.029815</ele>
        <time>2022-12-29T12:14:59.904Z</time>
      </trkpt>
      <trkpt lat="44.21871" lon="0.48295">
        <ele>87.90178</ele>
        <time>2022-12-29T12:15:02.908Z</time>
      </trkpt>
      <trkpt lat="44.21873" lon="0.4831">
        <ele>87.778946</ele>
        <time>2022-12-29T12:15:05.889Z</time>
      </trkpt>
      <trkpt lat="44.21873" lon="0.48326">
        <ele>87.656582</ele>
        <time>2022-12-29T12:15:08.907Z</time>
      </trkpt>
      <trkpt lat="44.2187" lon="0.48342">
        <ele>87.521426</ele>
        <time>2022-12-29T12:15:11.906Z</time>
      </trkpt>
      <trkpt lat="44.21868" lon="0.4836">
        <ele>87.37736</ele>
        <time>2022-12-29T12:15:14.908Z</time>
      </trkpt>
      <trkpt lat="44.21866" lon="0.48377">
        <ele>87.235387</ele>
        <time>2022-12-29T12:15:17.907Z</time>
      </trkpt>
      <trkpt lat="44.21865" lon="0.48395">
        <ele>87.094305</ele>
        <time>2022-12-29T12:15:20.907Z</time>
      </trkpt>
      <trkpt lat="44.21863" lon="0.48412">
        <ele>86.953687</ele>
        <time>2022-12-29T12:15:23.906Z</time>
      </trkpt>
      <trkpt lat="44.21862" lon="0.48429">
        <ele>86.933607</ele>
        <time>2022-12-29T12:15:26.908Z</time>
      </trkpt>
      <trkpt lat="44.2186" lon="0.48445">
        <ele>86.981679</ele>
        <time>2022-12-29T12:15:29.913Z</time>
      </trkpt>
      <trkpt lat="44.21858" lon="0.48459">
        <ele>87.02468</ele>
        <time>2022-12-29T12:15:32.888Z</time>
      </trkpt>
      <trkpt lat="44.21853" lon="0.48474">
        <ele>87.074434</ele>
        <time>2022-12-29T12:15:36.905Z</time>
      </trkpt>
      <trkpt lat="44.21846" lon="0.48484">
        <ele>87.116565</ele>
        <time>2022-12-29T12:15:39.889Z</time>
      </trkpt>
      <trkpt lat="44.21839" lon="0.48493">
        <ele>87.157909</ele>
        <time>2022-12-29T12:15:42.910Z</time>
      </trkpt>
      <trkpt lat="44.21831" lon="0.485">
        <ele>87.196326</ele>
        <time>2022-12-29T12:15:45.906Z</time>
      </trkpt>
      <trkpt lat="44.21822" lon="0.48511">
        <ele>87.246609</ele>
        <time>2022-12-29T12:15:49.903Z</time>
      </trkpt>
      <trkpt lat="44.21817" lon="0.48523">
        <ele>87.287582</ele>
        <time>2022-12-29T12:15:53.906Z</time>
      </trkpt>
      <trkpt lat="44.21813" lon="0.48537">
        <ele>87.335987</ele>
        <time>2022-12-29T12:15:57.890Z</time>
      </trkpt>
      <trkpt lat="44.2181" lon="0.48551">
        <ele>87.378724</ele>
        <time>2022-12-29T12:16:00.907Z</time>
      </trkpt>
      <trkpt lat="44.21807" lon="0.48564">
        <ele>87.421134</ele>
        <time>2022-12-29T12:16:03.896Z</time>
      </trkpt>
      <trkpt lat="44.21806" lon="0.48577">
        <ele>87.45975</ele>
        <time>2022-12-29T12:16:06.906Z</time>
      </trkpt>
      <trkpt lat="44.21805" lon="0.48591">
        <ele>87.504226</ele>
        <time>2022-12-29T12:16:10.915Z</time>
      </trkpt>
      <trkpt lat="44.21803" lon="0.48606">
        <ele>87.549592</ele>
        <time>2022-12-29T12:16:14.903Z</time>
      </trkpt>
      <trkpt lat="44.21802" lon="0.48619">
        <ele>87.590596</ele>
        <time>2022-12-29T12:16:18.904Z</time>
      </trkpt>
      <trkpt lat="44.21799" lon="0.48635">
        <ele>87.638043</ele>
        <time>2022-12-29T12:16:22.890Z</time>
      </trkpt>
      <trkpt lat="44.21798" lon="0.48648">
        <ele>87.669021</ele>
        <time>2022-12-29T12:16:25.887Z</time>
      </trkpt>
      <trkpt lat="44.21797" lon="0.48662">
        <ele>87.685161</ele>
        <time>2022-12-29T12:16:28.905Z</time>
      </trkpt>
      <trkpt lat="44.21796" lon="0.48678">
        <ele>87.702619</ele>
        <time>2022-12-29T12:16:31.909Z</time>
      </trkpt>
      <trkpt lat="44.21794" lon="0.48694">
        <ele>87.721334</ele>
        <time>2022-12-29T12:16:34.895Z</time>
      </trkpt>
      <trkpt lat="44.21791" lon="0.48711">
        <ele>87.740577</ele>
        <time>2022-12-29T12:16:37.892Z</time>
      </trkpt>
      <trkpt lat="44.21789" lon="0.48728">
        <ele>87.760453</ele>
        <time>2022-12-29T12:16:40.910Z</time>
      </trkpt>
      <trkpt lat="44.21786" lon="0.48745">
        <ele>87.779838</ele>
        <time>2022-12-29T12:16:43.887Z</time>
      </trkpt>
      <trkpt lat="44.21785" lon="0.48763">
        <ele>87.799832</ele>
        <time>2022-12-29T12:16:46.905Z</time>
      </trkpt>
      <trkpt lat="44.21783" lon="0.4878">
        <ele>87.819184</ele>
        <time>2022-12-29T12:16:49.891Z</time>
      </trkpt>
      <trkpt lat="44.2178" lon="0.48797">
        <ele>87.838711</ele>
        <time>2022-12-29T12:16:52.892Z</time>
      </trkpt>
      <trkpt lat="44.21778" lon="0.48812">
        <ele>87.856745</ele>
        <time>2022-12-29T12:16:55.906Z</time>
      </trkpt>
      <trkpt lat="44.21775" lon="0.48827">
        <ele>87.873757</ele>
        <time>2022-12-29T12:16:58.907Z</time>
      </trkpt>
      <trkpt lat="44.21773" lon="0.48843">
        <ele>87.891385</ele>
        <time>2022-12-29T12:17:01.906Z</time>
      </trkpt>
      <trkpt lat="44.2177" lon="0.48858">
        <ele>87.909451</ele>
        <time>2022-12-29T12:17:04.906Z</time>
      </trkpt>
      <trkpt lat="44.21768" lon="0.48875">
        <ele>87.928886</ele>
        <time>2022-12-29T12:17:07.901Z</time>
      </trkpt>
      <trkpt lat="44.21766" lon="0.48892">
        <ele>87.937575</ele>
        <time>2022-12-29T12:17:10.907Z</time>
      </trkpt>
      <trkpt lat="44.21763" lon="0.48908">
        <ele>87.892823</ele>
        <time>2022-12-29T12:17:13.901Z</time>
      </trkpt>
      <trkpt lat="44.21761" lon="0.48925">
        <ele>87.847922</ele>
        <time>2022-12-29T12:17:16.895Z</time>
      </trkpt>
      <trkpt lat="44.21758" lon="0.4894">
        <ele>87.803658</ele>
        <time>2022-12-29T12:17:19.884Z</time>
      </trkpt>
      <trkpt lat="44.21756" lon="0.48955">
        <ele>87.761927</ele>
        <time>2022-12-29T12:17:22.903Z</time>
      </trkpt>
      <trkpt lat="44.21754" lon="0.48972">
        <ele>87.715611</ele>
        <time>2022-12-29T12:17:25.908Z</time>
      </trkpt>
      <trkpt lat="44.21751" lon="0.48987">
        <ele>87.672037</ele>
        <time>2022-12-29T12:17:28.913Z</time>
      </trkpt>
      <trkpt lat="44.21748" lon="0.49004">
        <ele>87.625207</ele>
        <time>2022-12-29T12:17:31.905Z</time>
      </trkpt>
      <trkpt lat="44.21745" lon="0.49021">
        <ele>87.577744</ele>
        <time>2022-12-29T12:17:34.905Z</time>
      </trkpt>
      <trkpt lat="44.21743" lon="0.49039">
        <ele>87.528895</ele>
        <time>2022-12-29T12:17:37.908Z</time>
      </trkpt>
      <trkpt lat="44.2174" lon="0.49057">
        <ele>87.478335</ele>
        <time>2022-12-29T12:17:40.905Z</time>
      </trkpt>
      <trkpt lat="44.21737" lon="0.49075">
        <ele>87.427694</ele>
        <time>2022-12-29T12:17:43.903Z</time>
      </trkpt>
      <trkpt lat="44.21734" lon="0.49092">
        <ele>87.379554</ele>
        <time>2022-12-29T12:17:46.907Z</time>
      </trkpt>
      <trkpt lat="44.21731" lon="0.49108">
        <ele>87.332724</ele>
        <time>2022-12-29T12:17:49.890Z</time>
      </trkpt>
      <trkpt lat="44.21729" lon="0.49121">
        <ele>87.297314</ele>
        <time>2022-12-29T12:17:51.909Z</time>
      </trkpt>
      <trkpt lat="44.21726" lon="0.49139">
        <ele>87.235545</ele>
        <time>2022-12-29T12:17:54.906Z</time>
      </trkpt>
      <trkpt lat="44.21722" lon="0.49156">
        <ele>87.134214</ele>
        <time>2022-12-29T12:17:57.910Z</time>
      </trkpt>
      <trkpt lat="44.21718" lon="0.49173">
        <ele>87.032414</ele>
        <time>2022-12-29T12:18:00.909Z</time>
      </trkpt>
      <trkpt lat="44.21715" lon="0.4919">
        <ele>86.935095</ele>
        <time>2022-12-29T12:18:03.911Z</time>
      </trkpt>
      <trkpt lat="44.21712" lon="0.49208">
        <ele>86.833415</ele>
        <time>2022-12-29T12:18:06.908Z</time>
      </trkpt>
      <trkpt lat="44.2171" lon="0.49226">
        <ele>86.731432</ele>
        <time>2022-12-29T12:18:09.894Z</time>
      </trkpt>
      <trkpt lat="44.21707" lon="0.49243">
        <ele>86.631566</ele>
        <time>2022-12-29T12:18:12.896Z</time>
      </trkpt>
      <trkpt lat="44.21704" lon="0.49259">
        <ele>86.542236</ele>
        <time>2022-12-29T12:18:15.903Z</time>
      </trkpt>
      <trkpt lat="44.21703" lon="0.49274">
        <ele>86.457794</ele>
        <time>2022-12-29T12:18:18.904Z</time>
      </trkpt>
      <trkpt lat="44.21701" lon="0.49291">
        <ele>86.357191</ele>
        <time>2022-12-29T12:18:21.891Z</time>
      </trkpt>
      <trkpt lat="44.21699" lon="0.49304">
        <ele>86.286381</ele>
        <time>2022-12-29T12:18:23.893Z</time>
      </trkpt>
      <trkpt lat="44.21695" lon="0.49321">
        <ele>86.183014</ele>
        <time>2022-12-29T12:18:26.905Z</time>
      </trkpt>
      <trkpt lat="44.21693" lon="0.49339">
        <ele>86.081031</ele>
        <time>2022-12-29T12:18:29.890Z</time>
      </trkpt>
      <trkpt lat="44.21689" lon="0.49354">
        <ele>85.991622</ele>
        <time>2022-12-29T12:18:32.897Z</time>
      </trkpt>
      <trkpt lat="44.21686" lon="0.4937">
        <ele>85.900533</ele>
        <time>2022-12-29T12:18:35.902Z</time>
      </trkpt>
      <trkpt lat="44.21683" lon="0.49383">
        <ele>85.897667</ele>
        <time>2022-12-29T12:18:38.891Z</time>
      </trkpt>
      <trkpt lat="44.2168" lon="0.49397">
        <ele>85.998524</ele>
        <time>2022-12-29T12:18:41.889Z</time>
      </trkpt>
      <trkpt lat="44.21679" lon="0.49414">
        <ele>86.113749</ele>
        <time>2022-12-29T12:18:44.888Z</time>
      </trkpt>
      <trkpt lat="44.21676" lon="0.49428">
        <ele>86.222245</ele>
        <time>2022-12-29T12:18:47.905Z</time>
      </trkpt>
      <trkpt lat="44.21673" lon="0.49444">
        <ele>86.335451</ele>
        <time>2022-12-29T12:18:50.890Z</time>
      </trkpt>
      <trkpt lat="44.2167" lon="0.49459">
        <ele>86.448557</ele>
        <time>2022-12-29T12:18:53.911Z</time>
      </trkpt>
      <trkpt lat="44.21667" lon="0.49477">
        <ele>86.57526</ele>
        <time>2022-12-29T12:18:56.907Z</time>
      </trkpt>
      <trkpt lat="44.21664" lon="0.49495">
        <ele>86.707006</ele>
        <time>2022-12-29T12:18:59.906Z</time>
      </trkpt>
      <trkpt lat="44.21662" lon="0.49513">
        <ele>86.835349</ele>
        <time>2022-12-29T12:19:02.890Z</time>
      </trkpt>
      <trkpt lat="44.2166" lon="0.4953">
        <ele>86.958265</ele>
        <time>2022-12-29T12:19:05.910Z</time>
      </trkpt>
      <trkpt lat="44.21657" lon="0.49547">
        <ele>87.081998</ele>
        <time>2022-12-29T12:19:08.910Z</time>
      </trkpt>
      <trkpt lat="44.21654" lon="0.49564">
        <ele>87.20413</ele>
        <time>2022-12-29T12:19:11.906Z</time>
      </trkpt>
      <trkpt lat="44.21651" lon="0.4958">
        <ele>87.316203</ele>
        <time>2022-12-29T12:19:14.896Z</time>
      </trkpt>
      <trkpt lat="44.21648" lon="0.49594">
        <ele>87.420475</ele>
        <time>2022-12-29T12:19:17.903Z</time>
      </trkpt>
      <trkpt lat="44.21645" lon="0.49606">
        <ele>87.515448</ele>
        <time>2022-12-29T12:19:21.910Z</time>
      </trkpt>
      <trkpt lat="44.21642" lon="0.49622">
        <ele>87.619187</ele>
        <time>2022-12-29T12:19:27.905Z</time>
      </trkpt>
      <trkpt lat="44.21639" lon="0.49638">
        <ele>87.533393</ele>
        <time>2022-12-29T12:19:30.892Z</time>
      </trkpt>
      <trkpt lat="44.21636" lon="0.49652">
        <ele>87.451413</ele>
        <time>2022-12-29T12:19:33.911Z</time>
      </trkpt>
      <trkpt lat="44.21633" lon="0.49668">
        <ele>87.362105</ele>
        <time>2022-12-29T12:19:36.908Z</time>
      </trkpt>
      <trkpt lat="44.2163" lon="0.49683">
        <ele>87.282823</ele>
        <time>2022-12-29T12:19:39.888Z</time>
      </trkpt>
      <trkpt lat="44.21628" lon="0.49704">
        <ele>87.165246</ele>
        <time>2022-12-29T12:20:43.901Z</time>
      </trkpt>
      <trkpt lat="44.21625" lon="0.49719">
        <ele>87.083692</ele>
        <time>2022-12-29T12:20:47.901Z</time>
      </trkpt>
      <trkpt lat="44.21622" lon="0.49731">
        <ele>87.016208</ele>
        <time>2022-12-29T12:20:50.897Z</time>
      </trkpt>
      <trkpt lat="44.21619" lon="0.49746">
        <ele>86.934038</ele>
        <time>2022-12-29T12:20:53.900Z</time>
      </trkpt>
      <trkpt lat="44.21617" lon="0.49761">
        <ele>86.847467</ele>
        <time>2022-12-29T12:20:56.904Z</time>
      </trkpt>
      <trkpt lat="44.21614" lon="0.49778">
        <ele>86.754449</ele>
        <time>2022-12-29T12:20:59.913Z</time>
      </trkpt>
      <trkpt lat="44.21612" lon="0.49797">
        <ele>86.652604</ele>
        <time>2022-12-29T12:21:02.915Z</time>
      </trkpt>
      <trkpt lat="44.21609" lon="0.49814">
        <ele>86.558582</ele>
        <time>2022-12-29T12:21:05.908Z</time>
      </trkpt>
      <trkpt lat="44.21606" lon="0.49831">
        <ele>86.464036</ele>
        <time>2022-12-29T12:21:08.908Z</time>
      </trkpt>
      <trkpt lat="44.21603" lon="0.49849">
        <ele>86.368283</ele>
        <time>2022-12-29T12:21:11.906Z</time>
      </trkpt>
      <trkpt lat="44.216" lon="0.49866">
        <ele>86.27422</ele>
        <time>2022-12-29T12:21:14.911Z</time>
      </trkpt>
      <trkpt lat="44.21597" lon="0.49882">
        <ele>86.221224</ele>
        <time>2022-12-29T12:21:17.912Z</time>
      </trkpt>
      <trkpt lat="44.21593" lon="0.49898">
        <ele>86.166926</ele>
        <time>2022-12-29T12:21:20.908Z</time>
      </trkpt>
      <trkpt lat="44.2159" lon="0.49915">
        <ele>86.110015</ele>
        <time>2022-12-29T12:21:23.917Z</time>
      </trkpt>
      <trkpt lat="44.21588" lon="0.49931">
        <ele>86.056246</ele>
        <time>2022-12-29T12:21:26.912Z</time>
      </trkpt>
      <trkpt lat="44.21585" lon="0.49947">
        <ele>86.003647</ele>
        <time>2022-12-29T12:21:29.889Z</time>
      </trkpt>
      <trkpt lat="44.21583" lon="0.49964">
        <ele>85.947025</ele>
        <time>2022-12-29T12:21:32.918Z</time>
      </trkpt>
      <trkpt lat="44.2158" lon="0.49983">
        <ele>85.883528</ele>
        <time>2022-12-29T12:21:35.906Z</time>
      </trkpt>
      <trkpt lat="44.21578" lon="0.49997">
        <ele>85.840192</ele>
        <time>2022-12-29T12:21:37.908Z</time>
      </trkpt>
      <trkpt lat="44.21576" lon="0.50009">
        <ele>85.797762</ele>
        <time>2022-12-29T12:21:39.908Z</time>
      </trkpt>
      <trkpt lat="44.21572" lon="0.50026">
        <ele>85.740353</ele>
        <time>2022-12-29T12:21:42.905Z</time>
      </trkpt>
      <trkpt lat="44.21568" lon="0.50043">
        <ele>85.682676</ele>
        <time>2022-12-29T12:21:45.908Z</time>
      </trkpt>
      <trkpt lat="44.21566" lon="0.50056">
        <ele>85.641505</ele>
        <time>2022-12-29T12:21:47.914Z</time>
      </trkpt>
      <trkpt lat="44.21563" lon="0.50073">
        <ele>85.583048</ele>
        <time>2022-12-29T12:21:50.894Z</time>
      </trkpt>
      <trkpt lat="44.21561" lon="0.50088">
        <ele>85.534208</ele>
        <time>2022-12-29T12:21:53.884Z</time>
      </trkpt>
      <trkpt lat="44.21559" lon="0.50104">
        <ele>85.48224</ele>
        <time>2022-12-29T12:21:56.908Z</time>
      </trkpt>
      <trkpt lat="44.21555" lon="0.50123">
        <ele>85.546516</ele>
        <time>2022-12-29T12:21:59.897Z</time>
      </trkpt>
      <trkpt lat="44.21553" lon="0.50139">
        <ele>85.638545</ele>
        <time>2022-12-29T12:22:01.905Z</time>
      </trkpt>
      <trkpt lat="44.21551" lon="0.50152">
        <ele>85.712512</ele>
        <time>2022-12-29T12:22:03.910Z</time>
      </trkpt>
      <trkpt lat="44.21549" lon="0.50164">
        <ele>85.783739</ele>
        <time>2022-12-29T12:22:05.910Z</time>
      </trkpt>
      <trkpt lat="44.21548" lon="0.50177">
        <ele>85.854817</ele>
        <time>2022-12-29T12:22:07.906Z</time>
      </trkpt>
      <trkpt lat="44.21544" lon="0.50192">
        <ele>85.946084</ele>
        <time>2022-12-29T12:22:10.905Z</time>
      </trkpt>
      <trkpt lat="44.21541" lon="0.50205">
        <ele>86.019122</ele>
        <time>2022-12-29T12:22:12.914Z</time>
      </trkpt>
      <trkpt lat="44.21539" lon="0.50218">
        <ele>86.094117</ele>
        <time>2022-12-29T12:22:14.919Z</time>
      </trkpt>
      <trkpt lat="44.21536" lon="0.50233">
        <ele>86.184889</ele>
        <time>2022-12-29T12:22:17.908Z</time>
      </trkpt>
      <trkpt lat="44.21534" lon="0.50251">
        <ele>86.285124</ele>
        <time>2022-12-29T12:22:20.906Z</time>
      </trkpt>
      <trkpt lat="44.2153" lon="0.50266">
        <ele>86.372555</ele>
        <time>2022-12-29T12:22:22.908Z</time>
      </trkpt>
      <trkpt lat="44.21527" lon="0.50281">
        <ele>86.457546</ele>
        <time>2022-12-29T12:22:24.909Z</time>
      </trkpt>
      <trkpt lat="44.21524" lon="0.50299">
        <ele>86.561875</ele>
        <time>2022-12-29T12:22:27.889Z</time>
      </trkpt>
      <trkpt lat="44.21521" lon="0.50314">
        <ele>86.650806</ele>
        <time>2022-12-29T12:22:30.891Z</time>
      </trkpt>
      <trkpt lat="44.21519" lon="0.50332">
        <ele>86.750063</ele>
        <time>2022-12-29T12:22:33.888Z</time>
      </trkpt>
      <trkpt lat="44.21518" lon="0.50344">
        <ele>86.819965</ele>
        <time>2022-12-29T12:22:35.906Z</time>
      </trkpt>
      <trkpt lat="44.21516" lon="0.50356">
        <ele>86.869796</ele>
        <time>2022-12-29T12:22:37.917Z</time>
      </trkpt>
      <trkpt lat="44.21513" lon="0.50369">
        <ele>86.874409</ele>
        <time>2022-12-29T12:22:39.911Z</time>
      </trkpt>
      <trkpt lat="44.21511" lon="0.50384">
        <ele>86.879697</ele>
        <time>2022-12-29T12:22:41.907Z</time>
      </trkpt>
      <trkpt lat="44.21508" lon="0.50397">
        <ele>86.884467</ele>
        <time>2022-12-29T12:22:43.895Z</time>
      </trkpt>
      <trkpt lat="44.21506" lon="0.50415">
        <ele>86.890962</ele>
        <time>2022-12-29T12:22:46.905Z</time>
      </trkpt>
      <trkpt lat="44.21503" lon="0.5043">
        <ele>86.896667</ele>
        <time>2022-12-29T12:22:49.908Z</time>
      </trkpt>
      <trkpt lat="44.21499" lon="0.50448">
        <ele>86.903085</ele>
        <time>2022-12-29T12:22:52.888Z</time>
      </trkpt>
      <trkpt lat="44.21496" lon="0.50463">
        <ele>86.908602</ele>
        <time>2022-12-29T12:22:55.914Z</time>
      </trkpt>
      <trkpt lat="44.21492" lon="0.50475">
        <ele>86.913445</ele>
        <time>2022-12-29T12:22:58.909Z</time>
      </trkpt>
      <trkpt lat="44.21489" lon="0.50489">
        <ele>86.918533</ele>
        <time>2022-12-29T12:23:01.909Z</time>
      </trkpt>
      <trkpt lat="44.21487" lon="0.50505">
        <ele>86.924341</ele>
        <time>2022-12-29T12:23:04.890Z</time>
      </trkpt>
      <trkpt lat="44.21486" lon="0.50519">
        <ele>86.929057</ele>
        <time>2022-12-29T12:23:06.896Z</time>
      </trkpt>
      <trkpt lat="44.21485" lon="0.50531">
        <ele>86.93353</ele>
        <time>2022-12-29T12:23:08.899Z</time>
      </trkpt>
      <trkpt lat="44.21483" lon="0.50544">
        <ele>86.938053</ele>
        <time>2022-12-29T12:23:10.912Z</time>
      </trkpt>
      <trkpt lat="44.2148" lon="0.50561">
        <ele>86.944117</ele>
        <time>2022-12-29T12:23:13.883Z</time>
      </trkpt>
      <trkpt lat="44.21478" lon="0.50573">
        <ele>86.948591</ele>
        <time>2022-12-29T12:23:15.892Z</time>
      </trkpt>
      <trkpt lat="44.21476" lon="0.50585">
        <ele>86.953063</ele>
        <time>2022-12-29T12:23:17.910Z</time>
      </trkpt>
      <trkpt lat="44.21474" lon="0.50598">
        <ele>86.962898</ele>
        <time>2022-12-29T12:23:19.914Z</time>
      </trkpt>
      <trkpt lat="44.21472" lon="0.50611">
        <ele>86.994278</ele>
        <time>2022-12-29T12:23:21.887Z</time>
      </trkpt>
      <trkpt lat="44.21469" lon="0.50625">
        <ele>87.026664</ele>
        <time>2022-12-29T12:23:23.908Z</time>
      </trkpt>
      <trkpt lat="44.21466" lon="0.50643">
        <ele>87.071935</ele>
        <time>2022-12-29T12:23:26.913Z</time>
      </trkpt>
      <trkpt lat="44.21463" lon="0.50662">
        <ele>87.116167</ele>
        <time>2022-12-29T12:23:29.910Z</time>
      </trkpt>
      <trkpt lat="44.21459" lon="0.50681">
        <ele>87.161757</ele>
        <time>2022-12-29T12:23:32.887Z</time>
      </trkpt>
      <trkpt lat="44.21458" lon="0.50697">
        <ele>87.201044</ele>
        <time>2022-12-29T12:23:34.903Z</time>
      </trkpt>
      <trkpt lat="44.21454" lon="0.50714">
        <ele>87.241304</ele>
        <time>2022-12-29T12:23:37.904Z</time>
      </trkpt>
      <trkpt lat="44.21451" lon="0.50726">
        <ele>87.272532</ele>
        <time>2022-12-29T12:23:39.888Z</time>
      </trkpt>
      <trkpt lat="44.21448" lon="0.50739">
        <ele>87.302768</ele>
        <time>2022-12-29T12:23:41.903Z</time>
      </trkpt>
      <trkpt lat="44.21444" lon="0.50758">
        <ele>87.349264</ele>
        <time>2022-12-29T12:23:44.895Z</time>
      </trkpt>
      <trkpt lat="44.21442" lon="0.50772">
        <ele>87.383148</ele>
        <time>2022-12-29T12:23:46.910Z</time>
      </trkpt>
      <trkpt lat="44.21437" lon="0.5079">
        <ele>87.428592</ele>
        <time>2022-12-29T12:23:49.885Z</time>
      </trkpt>
      <trkpt lat="44.21435" lon="0.50802">
        <ele>87.457988</ele>
        <time>2022-12-29T12:23:51.906Z</time>
      </trkpt>
      <trkpt lat="44.21433" lon="0.50819">
        <ele>87.49829</ele>
        <time>2022-12-29T12:23:54.902Z</time>
      </trkpt>
      <trkpt lat="44.21431" lon="0.50835">
        <ele>87.535211</ele>
        <time>2022-12-29T12:23:57.889Z</time>
      </trkpt>
      <trkpt lat="44.2143" lon="0.50848">
        <ele>87.554159</ele>
        <time>2022-12-29T12:23:59.905Z</time>
      </trkpt>
      <trkpt lat="44.21429" lon="0.50861">
        <ele>87.567995</ele>
        <time>2022-12-29T12:24:01.898Z</time>
      </trkpt>
      <trkpt lat="44.21426" lon="0.5088">
        <ele>87.587788</ele>
        <time>2022-12-29T12:24:04.895Z</time>
      </trkpt>
      <trkpt lat="44.21424" lon="0.50892">
        <ele>87.601451</ele>
        <time>2022-12-29T12:24:06.909Z</time>
      </trkpt>
      <trkpt lat="44.21422" lon="0.50905">
        <ele>87.615044</ele>
        <time>2022-12-29T12:24:08.913Z</time>
      </trkpt>
      <trkpt lat="44.21419" lon="0.50921">
        <ele>87.63212</ele>
        <time>2022-12-29T12:24:11.912Z</time>
      </trkpt>
      <trkpt lat="44.21417" lon="0.50934">
        <ele>87.645753</ele>
        <time>2022-12-29T12:24:13.894Z</time>
      </trkpt>
      <trkpt lat="44.21416" lon="0.50947">
        <ele>87.660024</ele>
        <time>2022-12-29T12:24:15.906Z</time>
      </trkpt>
      <trkpt lat="44.21414" lon="0.50961">
        <ele>87.674295</ele>
        <time>2022-12-29T12:24:17.904Z</time>
      </trkpt>
      <trkpt lat="44.2141" lon="0.50977">
        <ele>87.691821</ele>
        <time>2022-12-29T12:24:19.910Z</time>
      </trkpt>
      <trkpt lat="44.21407" lon="0.50989">
        <ele>87.706012</ele>
        <time>2022-12-29T12:24:21.894Z</time>
      </trkpt>
      <trkpt lat="44.21403" lon="0.51009">
        <ele>87.727251</ele>
        <time>2022-12-29T12:24:24.885Z</time>
      </trkpt>
      <trkpt lat="44.214" lon="0.51028">
        <ele>87.747069</ele>
        <time>2022-12-29T12:24:27.903Z</time>
      </trkpt>
      <trkpt lat="44.21398" lon="0.51041">
        <ele>87.760748</ele>
        <time>2022-12-29T12:24:29.906Z</time>
      </trkpt>
      <trkpt lat="44.21396" lon="0.51053">
        <ele>87.774342</ele>
        <time>2022-12-29T12:24:31.904Z</time>
      </trkpt>
      <trkpt lat="44.21393" lon="0.51066">
        <ele>87.788087</ele>
        <time>2022-12-29T12:24:33.889Z</time>
      </trkpt>
      <trkpt lat="44.21389" lon="0.51083">
        <ele>87.811461</ele>
        <time>2022-12-29T12:24:36.907Z</time>
      </trkpt>
      <trkpt lat="44.21387" lon="0.51099">
        <ele>88.202948</ele>
        <time>2022-12-29T12:24:38.901Z</time>
      </trkpt>
      <trkpt lat="44.21385" lon="0.51114">
        <ele>88.54601</ele>
        <time>2022-12-29T12:24:40.892Z</time>
      </trkpt>
      <trkpt lat="44.21383" lon="0.51127">
        <ele>88.866141</ele>
        <time>2022-12-29T12:24:42.898Z</time>
      </trkpt>
      <trkpt lat="44.21382" lon="0.51141">
        <ele>89.183251</ele>
        <time>2022-12-29T12:24:44.905Z</time>
      </trkpt>
      <trkpt lat="44.21378" lon="0.51157">
        <ele>89.598502</ele>
        <time>2022-12-29T12:24:47.910Z</time>
      </trkpt>
      <trkpt lat="44.21375" lon="0.51175">
        <ele>90.024042</ele>
        <time>2022-12-29T12:24:50.910Z</time>
      </trkpt>
      <trkpt lat="44.21374" lon="0.5119">
        <ele>90.369485</ele>
        <time>2022-12-29T12:24:52.906Z</time>
      </trkpt>
      <trkpt lat="44.21373" lon="0.51203">
        <ele>90.669145</ele>
        <time>2022-12-29T12:24:54.910Z</time>
      </trkpt>
      <trkpt lat="44.2137" lon="0.51215">
        <ele>90.981136</ele>
        <time>2022-12-29T12:24:56.914Z</time>
      </trkpt>
      <trkpt lat="44.21367" lon="0.51232">
        <ele>91.399814</ele>
        <time>2022-12-29T12:24:59.914Z</time>
      </trkpt>
      <trkpt lat="44.21364" lon="0.51245">
        <ele>91.715483</ele>
        <time>2022-12-29T12:25:01.903Z</time>
      </trkpt>
      <trkpt lat="44.21362" lon="0.51258">
        <ele>92.023346</ele>
        <time>2022-12-29T12:25:03.902Z</time>
      </trkpt>
      <trkpt lat="44.21359" lon="0.51274">
        <ele>92.421016</ele>
        <time>2022-12-29T12:25:06.909Z</time>
      </trkpt>
      <trkpt lat="44.21355" lon="0.51288">
        <ele>92.756786</ele>
        <time>2022-12-29T12:25:09.917Z</time>
      </trkpt>
      <trkpt lat="44.21353" lon="0.51302">
        <ele>93.085168</ele>
        <time>2022-12-29T12:25:13.919Z</time>
      </trkpt>
      <trkpt lat="44.2135" lon="0.51315">
        <ele>93.417299</ele>
        <time>2022-12-29T12:25:19.891Z</time>
      </trkpt>
      <trkpt lat="44.21348" lon="0.51329">
        <ele>93.644888</ele>
        <time>2022-12-29T12:25:22.907Z</time>
      </trkpt>
      <trkpt lat="44.21346" lon="0.51345">
        <ele>93.42906</ele>
        <time>2022-12-29T12:25:25.900Z</time>
      </trkpt>
      <trkpt lat="44.21343" lon="0.51361">
        <ele>93.204707</ele>
        <time>2022-12-29T12:25:28.904Z</time>
      </trkpt>
      <trkpt lat="44.21341" lon="0.51379">
        <ele>92.966645</ele>
        <time>2022-12-29T12:25:31.909Z</time>
      </trkpt>
      <trkpt lat="44.21339" lon="0.51398">
        <ele>92.710581</ele>
        <time>2022-12-29T12:25:34.915Z</time>
      </trkpt>
      <trkpt lat="44.21338" lon="0.51411">
        <ele>92.537038</ele>
        <time>2022-12-29T12:25:36.912Z</time>
      </trkpt>
      <trkpt lat="44.21334" lon="0.51427">
        <ele>92.316837</ele>
        <time>2022-12-29T12:25:39.911Z</time>
      </trkpt>
      <trkpt lat="44.21332" lon="0.51441">
        <ele>92.12882</ele>
        <time>2022-12-29T12:25:41.909Z</time>
      </trkpt>
      <trkpt lat="44.2133" lon="0.51454">
        <ele>91.948922</ele>
        <time>2022-12-29T12:25:43.901Z</time>
      </trkpt>
      <trkpt lat="44.21327" lon="0.51466">
        <ele>91.780805</ele>
        <time>2022-12-29T12:25:45.905Z</time>
      </trkpt>
      <trkpt lat="44.21323" lon="0.51482">
        <ele>91.566159</ele>
        <time>2022-12-29T12:25:48.910Z</time>
      </trkpt>
      <trkpt lat="44.2132" lon="0.51495">
        <ele>91.380648</ele>
        <time>2022-12-29T12:25:51.911Z</time>
      </trkpt>
      <trkpt lat="44.21318" lon="0.51511">
        <ele>91.172395</ele>
        <time>2022-12-29T12:25:54.916Z</time>
      </trkpt>
      <trkpt lat="44.21315" lon="0.51528">
        <ele>90.932153</ele>
        <time>2022-12-29T12:25:57.899Z</time>
      </trkpt>
      <trkpt lat="44.21312" lon="0.51546">
        <ele>90.692007</ele>
        <time>2022-12-29T12:26:00.914Z</time>
      </trkpt>
      <trkpt lat="44.21308" lon="0.51564">
        <ele>90.445454</ele>
        <time>2022-12-29T12:26:03.910Z</time>
      </trkpt>
      <trkpt lat="44.21306" lon="0.51578">
        <ele>90.349957</ele>
        <time>2022-12-29T12:26:05.898Z</time>
      </trkpt>
      <trkpt lat="44.21303" lon="0.51591">
        <ele>90.316402</ele>
        <time>2022-12-29T12:26:07.911Z</time>
      </trkpt>
      <trkpt lat="44.213" lon="0.51604">
        <ele>90.284408</ele>
        <time>2022-12-29T12:26:09.906Z</time>
      </trkpt>
      <trkpt lat="44.21296" lon="0.51622">
        <ele>90.238532</ele>
        <time>2022-12-29T12:26:12.916Z</time>
      </trkpt>
      <trkpt lat="44.21292" lon="0.51635">
        <ele>90.205866</ele>
        <time>2022-12-29T12:26:14.915Z</time>
      </trkpt>
      <trkpt lat="44.21289" lon="0.51647">
        <ele>90.175493</ele>
        <time>2022-12-29T12:26:16.905Z</time>
      </trkpt>
      <trkpt lat="44.21289" lon="0.5166">
        <ele>90.145678</ele>
        <time>2022-12-29T12:26:18.915Z</time>
      </trkpt>
      <trkpt lat="44.21285" lon="0.51677">
        <ele>90.103201</ele>
        <time>2022-12-29T12:26:21.913Z</time>
      </trkpt>
      <trkpt lat="44.21283" lon="0.5169">
        <ele>90.071746</ele>
        <time>2022-12-29T12:26:23.901Z</time>
      </trkpt>
      <trkpt lat="44.21281" lon="0.51707">
        <ele>90.029646</ele>
        <time>2022-12-29T12:26:26.908Z</time>
      </trkpt>
      <trkpt lat="44.21278" lon="0.51721">
        <ele>89.995866</ele>
        <time>2022-12-29T12:26:29.905Z</time>
      </trkpt>
      <trkpt lat="44.21276" lon="0.51738">
        <ele>89.955232</ele>
        <time>2022-12-29T12:26:32.909Z</time>
      </trkpt>
      <trkpt lat="44.21273" lon="0.51753">
        <ele>89.917864</ele>
        <time>2022-12-29T12:26:35.907Z</time>
      </trkpt>
      <trkpt lat="44.21272" lon="0.51766">
        <ele>89.887627</ele>
        <time>2022-12-29T12:26:38.910Z</time>
      </trkpt>
      <trkpt lat="44.2127" lon="0.51782">
        <ele>89.84665</ele>
        <time>2022-12-29T12:26:41.911Z</time>
      </trkpt>
      <trkpt lat="44.21267" lon="0.51795">
        <ele>89.815448</ele>
        <time>2022-12-29T12:26:43.900Z</time>
      </trkpt>
      <trkpt lat="44.21263" lon="0.51813">
        <ele>89.780739</ele>
        <time>2022-12-29T12:26:46.915Z</time>
      </trkpt>
      <trkpt lat="44.21259" lon="0.51826">
        <ele>89.902476</ele>
        <time>2022-12-29T12:26:48.923Z</time>
      </trkpt>
      <trkpt lat="44.21255" lon="0.51844">
        <ele>90.058365</ele>
        <time>2022-12-29T12:26:51.906Z</time>
      </trkpt>
      <trkpt lat="44.21252" lon="0.51859">
        <ele>90.194607</ele>
        <time>2022-12-29T12:26:53.930Z</time>
      </trkpt>
      <trkpt lat="44.2125" lon="0.51872">
        <ele>90.308877</ele>
        <time>2022-12-29T12:26:55.912Z</time>
      </trkpt>
      <trkpt lat="44.21248" lon="0.51891">
        <ele>90.473057</ele>
        <time>2022-12-29T12:26:58.901Z</time>
      </trkpt>
      <trkpt lat="44.21246" lon="0.51908">
        <ele>90.62488</ele>
        <time>2022-12-29T12:27:01.905Z</time>
      </trkpt>
      <trkpt lat="44.21244" lon="0.51922">
        <ele>90.741603</ele>
        <time>2022-12-29T12:27:03.915Z</time>
      </trkpt>
      <trkpt lat="44.21241" lon="0.51936">
        <ele>90.867787</ele>
        <time>2022-12-29T12:27:05.911Z</time>
      </trkpt>
      <trkpt lat="44.21238" lon="0.51949">
        <ele>90.986241</ele>
        <time>2022-12-29T12:27:07.917Z</time>
      </trkpt>
      <trkpt lat="44.21236" lon="0.51968">
        <ele>91.154964</ele>
        <time>2022-12-29T12:27:10.904Z</time>
      </trkpt>
      <trkpt lat="44.21233" lon="0.51982">
        <ele>91.277325</ele>
        <time>2022-12-29T12:27:12.904Z</time>
      </trkpt>
      <trkpt lat="44.2123" lon="0.52001">
        <ele>91.441659</ele>
        <time>2022-12-29T12:27:15.912Z</time>
      </trkpt>
      <trkpt lat="44.21229" lon="0.52014">
        <ele>91.556645</ele>
        <time>2022-12-29T12:27:17.920Z</time>
      </trkpt>
      <trkpt lat="44.21226" lon="0.52032">
        <ele>91.714533</ele>
        <time>2022-12-29T12:27:20.898Z</time>
      </trkpt>
      <trkpt lat="44.21225" lon="0.52046">
        <ele>91.838666</ele>
        <time>2022-12-29T12:27:22.915Z</time>
      </trkpt>
      <trkpt lat="44.21222" lon="0.52065">
        <ele>91.949977</ele>
        <time>2022-12-29T12:27:25.907Z</time>
      </trkpt>
      <trkpt lat="44.21219" lon="0.52077">
        <ele>91.98546</ele>
        <time>2022-12-29T12:27:27.900Z</time>
      </trkpt>
      <trkpt lat="44.21217" lon="0.52092">
        <ele>92.023906</ele>
        <time>2022-12-29T12:27:29.891Z</time>
      </trkpt>
      <trkpt lat="44.21215" lon="0.52104">
        <ele>92.058419</ele>
        <time>2022-12-29T12:27:31.912Z</time>
      </trkpt>
      <trkpt lat="44.21213" lon="0.52119">
        <ele>92.098857</ele>
        <time>2022-12-29T12:27:33.918Z</time>
      </trkpt>
      <trkpt lat="44.2121" lon="0.52132">
        <ele>92.134383</ele>
        <time>2022-12-29T12:27:35.914Z</time>
      </trkpt>
      <trkpt lat="44.21206" lon="0.52147">
        <ele>92.174781</ele>
        <time>2022-12-29T12:27:37.908Z</time>
      </trkpt>
      <trkpt lat="44.21204" lon="0.5216">
        <ele>92.211879</ele>
        <time>2022-12-29T12:27:39.911Z</time>
      </trkpt>
      <trkpt lat="44.21202" lon="0.52174">
        <ele>92.248108</ele>
        <time>2022-12-29T12:27:41.914Z</time>
      </trkpt>
      <trkpt lat="44.21199" lon="0.52185">
        <ele>92.28139</ele>
        <time>2022-12-29T12:27:43.909Z</time>
      </trkpt>
      <trkpt lat="44.21195" lon="0.52197">
        <ele>92.315096</ele>
        <time>2022-12-29T12:27:45.914Z</time>
      </trkpt>
      <trkpt lat="44.21193" lon="0.52211">
        <ele>92.353104</ele>
        <time>2022-12-29T12:27:47.914Z</time>
      </trkpt>
      <trkpt lat="44.21192" lon="0.52225">
        <ele>92.39169</ele>
        <time>2022-12-29T12:27:49.914Z</time>
      </trkpt>
      <trkpt lat="44.21189" lon="0.5224">
        <ele>92.431145</ele>
        <time>2022-12-29T12:27:51.912Z</time>
      </trkpt>
      <trkpt lat="44.21186" lon="0.52258">
        <ele>92.480344</ele>
        <time>2022-12-29T12:27:54.918Z</time>
      </trkpt>
      <trkpt lat="44.21183" lon="0.5227">
        <ele>92.513793</ele>
        <time>2022-12-29T12:27:56.913Z</time>
      </trkpt>
      <trkpt lat="44.21182" lon="0.52286">
        <ele>92.556092</ele>
        <time>2022-12-29T12:27:58.910Z</time>
      </trkpt>
      <trkpt lat="44.2118" lon="0.52299">
        <ele>92.592622</ele>
        <time>2022-12-29T12:28:00.916Z</time>
      </trkpt>
      <trkpt lat="44.21176" lon="0.52315">
        <ele>92.642374</ele>
        <time>2022-12-29T12:28:03.917Z</time>
      </trkpt>
      <trkpt lat="44.21174" lon="0.52333">
        <ele>92.696659</ele>
        <time>2022-12-29T12:28:06.910Z</time>
      </trkpt>
      <trkpt lat="44.21171" lon="0.5235">
        <ele>92.748539</ele>
        <time>2022-12-29T12:28:09.917Z</time>
      </trkpt>
      <trkpt lat="44.21169" lon="0.52365">
        <ele>92.793377</ele>
        <time>2022-12-29T12:28:12.910Z</time>
      </trkpt>
      <trkpt lat="44.21166" lon="0.52382">
        <ele>92.845787</ele>
        <time>2022-12-29T12:28:15.920Z</time>
      </trkpt>
      <trkpt lat="44.21162" lon="0.524">
        <ele>92.900298</ele>
        <time>2022-12-29T12:28:18.889Z</time>
      </trkpt>
      <trkpt lat="44.21159" lon="0.52416">
        <ele>92.948405</ele>
        <time>2022-12-29T12:28:20.902Z</time>
      </trkpt>
      <trkpt lat="44.21159" lon="0.52428">
        <ele>92.985472</ele>
        <time>2022-12-29T12:28:22.892Z</time>
      </trkpt>
      <trkpt lat="44.21157" lon="0.52441">
        <ele>93.023162</ele>
        <time>2022-12-29T12:28:24.911Z</time>
      </trkpt>
      <trkpt lat="44.21154" lon="0.52453">
        <ele>93.060937</ele>
        <time>2022-12-29T12:28:26.915Z</time>
      </trkpt>
      <trkpt lat="44.21152" lon="0.52465">
        <ele>93.098741</ele>
        <time>2022-12-29T12:28:28.906Z</time>
      </trkpt>
      <trkpt lat="44.21149" lon="0.52477">
        <ele>93.135979</ele>
        <time>2022-12-29T12:28:30.897Z</time>
      </trkpt>
      <trkpt lat="44.21145" lon="0.52494">
        <ele>93.189201</ele>
        <time>2022-12-29T12:28:33.898Z</time>
      </trkpt>
      <trkpt lat="44.21143" lon="0.52509">
        <ele>93.232494</ele>
        <time>2022-12-29T12:28:35.902Z</time>
      </trkpt>
      <trkpt lat="44.21139" lon="0.52527">
        <ele>93.287823</ele>
        <time>2022-12-29T12:28:38.912Z</time>
      </trkpt>
      <trkpt lat="44.21138" lon="0.52544">
        <ele>93.368152</ele>
        <time>2022-12-29T12:28:41.914Z</time>
      </trkpt>
      <trkpt lat="44.21134" lon="0.52559">
        <ele>93.713446</ele>
        <time>2022-12-29T12:28:43.889Z</time>
      </trkpt>
      <trkpt lat="44.21134" lon="0.52572">
        <ele>93.983438</ele>
        <time>2022-12-29T12:28:45.911Z</time>
      </trkpt>
      <trkpt lat="44.21133" lon="0.52586">
        <ele>94.271187</ele>
        <time>2022-12-29T12:28:47.900Z</time>
      </trkpt>
      <trkpt lat="44.21131" lon="0.52602">
        <ele>94.633729</ele>
        <time>2022-12-29T12:28:50.909Z</time>
      </trkpt>
      <trkpt lat="44.21128" lon="0.52619">
        <ele>95.001826</ele>
        <time>2022-12-29T12:28:53.909Z</time>
      </trkpt>
      <trkpt lat="44.21125" lon="0.52637">
        <ele>95.388491</ele>
        <time>2022-12-29T12:28:56.914Z</time>
      </trkpt>
      <trkpt lat="44.21123" lon="0.52653">
        <ele>95.74457</ele>
        <time>2022-12-29T12:28:59.916Z</time>
      </trkpt>
      <trkpt lat="44.21121" lon="0.52669">
        <ele>96.089407</ele>
        <time>2022-12-29T12:29:02.913Z</time>
      </trkpt>
      <trkpt lat="44.21121" lon="0.52684">
        <ele>96.402044</ele>
        <time>2022-12-29T12:29:05.912Z</time>
      </trkpt>
      <trkpt lat="44.21121" lon="0.52699">
        <ele>96.727323</ele>
        <time>2022-12-29T12:29:07.895Z</time>
      </trkpt>
      <trkpt lat="44.21118" lon="0.52714">
        <ele>97.040333</ele>
        <time>2022-12-29T12:29:10.909Z</time>
      </trkpt>
      <trkpt lat="44.21117" lon="0.52727">
        <ele>97.32866</ele>
        <time>2022-12-29T12:29:12.914Z</time>
      </trkpt>
      <trkpt lat="44.21116" lon="0.52741">
        <ele>97.633592</ele>
        <time>2022-12-29T12:29:14.922Z</time>
      </trkpt>
      <trkpt lat="44.21115" lon="0.52755">
        <ele>97.930046</ele>
        <time>2022-12-29T12:29:17.910Z</time>
      </trkpt>
      <trkpt lat="44.21113" lon="0.52773">
        <ele>98.309358</ele>
        <time>2022-12-29T12:29:20.907Z</time>
      </trkpt>
      <trkpt lat="44.21114" lon="0.52788">
        <ele>98.637233</ele>
        <time>2022-12-29T12:29:23.916Z</time>
      </trkpt>
      <trkpt lat="44.21114" lon="0.52803">
        <ele>98.47351</ele>
        <time>2022-12-29T12:29:26.911Z</time>
      </trkpt>
      <trkpt lat="44.21114" lon="0.52818">
        <ele>98.240139</ele>
        <time>2022-12-29T12:29:29.887Z</time>
      </trkpt>
      <trkpt lat="44.21113" lon="0.52831">
        <ele>98.047408</ele>
        <time>2022-12-29T12:29:31.891Z</time>
      </trkpt>
      <trkpt lat="44.21113" lon="0.52847">
        <ele>97.796858</ele>
        <time>2022-12-29T12:29:34.896Z</time>
      </trkpt>
      <trkpt lat="44.21111" lon="0.52863">
        <ele>97.555308</ele>
        <time>2022-12-29T12:29:37.890Z</time>
      </trkpt>
      <trkpt lat="44.2111" lon="0.5288">
        <ele>97.294101</ele>
        <time>2022-12-29T12:29:40.913Z</time>
      </trkpt>
      <trkpt lat="44.2111" lon="0.52894">
        <ele>97.07296</ele>
        <time>2022-12-29T12:29:43.891Z</time>
      </trkpt>
      <trkpt lat="44.2111" lon="0.5291">
        <ele>96.830328</ele>
        <time>2022-12-29T12:29:47.911Z</time>
      </trkpt>
      <trkpt lat="44.2111" lon="0.52923">
        <ele>96.630502</ele>
        <time>2022-12-29T12:29:50.911Z</time>
      </trkpt>
      <trkpt lat="44.2111" lon="0.5294">
        <ele>96.38025</ele>
        <time>2022-12-29T12:29:53.894Z</time>
      </trkpt>
      <trkpt lat="44.21111" lon="0.52955">
        <ele>96.151817</ele>
        <time>2022-12-29T12:29:56.906Z</time>
      </trkpt>
      <trkpt lat="44.21114" lon="0.52968">
        <ele>95.94143</ele>
        <time>2022-12-29T12:29:59.909Z</time>
      </trkpt>
      <trkpt lat="44.21119" lon="0.5298">
        <ele>95.724726</ele>
        <time>2022-12-29T12:30:02.907Z</time>
      </trkpt>
      <trkpt lat="44.21126" lon="0.52992">
        <ele>95.487726</ele>
        <time>2022-12-29T12:30:05.910Z</time>
      </trkpt>
      <trkpt lat="44.21132" lon="0.53006">
        <ele>95.231917</ele>
        <time>2022-12-29T12:30:08.917Z</time>
      </trkpt>
      <trkpt lat="44.21138" lon="0.53022">
        <ele>94.972766</ele>
        <time>2022-12-29T12:30:11.914Z</time>
      </trkpt>
      <trkpt lat="44.21141" lon="0.53036">
        <ele>94.801945</ele>
        <time>2022-12-29T12:30:14.908Z</time>
      </trkpt>
      <trkpt lat="44.21141" lon="0.53052">
        <ele>94.706035</ele>
        <time>2022-12-29T12:30:17.920Z</time>
      </trkpt>
      <trkpt lat="44.21143" lon="0.53068">
        <ele>94.604555</ele>
        <time>2022-12-29T12:30:20.906Z</time>
      </trkpt>
      <trkpt lat="44.21143" lon="0.53084">
        <ele>94.506827</ele>
        <time>2022-12-29T12:30:23.908Z</time>
      </trkpt>
      <trkpt lat="44.21144" lon="0.53101">
        <ele>94.403365</ele>
        <time>2022-12-29T12:30:26.913Z</time>
      </trkpt>
      <trkpt lat="44.21144" lon="0.53119">
        <ele>94.289508</ele>
        <time>2022-12-29T12:30:29.903Z</time>
      </trkpt>
      <trkpt lat="44.21144" lon="0.53136">
        <ele>94.185037</ele>
        <time>2022-12-29T12:30:32.915Z</time>
      </trkpt>
      <trkpt lat="44.21143" lon="0.53151">
        <ele>94.092606</ele>
        <time>2022-12-29T12:30:35.901Z</time>
      </trkpt>
      <trkpt lat="44.21141" lon="0.53166">
        <ele>93.998012</ele>
        <time>2022-12-29T12:30:38.913Z</time>
      </trkpt>
      <trkpt lat="44.21137" lon="0.53181">
        <ele>93.895299</ele>
        <time>2022-12-29T12:30:41.917Z</time>
      </trkpt>
      <trkpt lat="44.21132" lon="0.53197">
        <ele>93.791492</ele>
        <time>2022-12-29T12:30:44.973Z</time>
      </trkpt>
      <trkpt lat="44.21128" lon="0.53211">
        <ele>93.695063</ele>
        <time>2022-12-29T12:30:47.916Z</time>
      </trkpt>
      <trkpt lat="44.21124" lon="0.53224">
        <ele>93.607378</ele>
        <time>2022-12-29T12:30:50.971Z</time>
      </trkpt>
      <trkpt lat="44.21122" lon="0.53237">
        <ele>93.52681</ele>
        <time>2022-12-29T12:30:53.897Z</time>
      </trkpt>
      <trkpt lat="44.21122" lon="0.53251">
        <ele>93.441505</ele>
        <time>2022-12-29T12:30:56.941Z</time>
      </trkpt>
      <trkpt lat="44.21122" lon="0.53267">
        <ele>93.342465</ele>
        <time>2022-12-29T12:30:59.915Z</time>
      </trkpt>
      <trkpt lat="44.21124" lon="0.53283">
        <ele>93.202738</ele>
        <time>2022-12-29T12:31:02.963Z</time>
      </trkpt>
      <trkpt lat="44.21126" lon="0.53298">
        <ele>93.043305</ele>
        <time>2022-12-29T12:31:05.918Z</time>
      </trkpt>
      <trkpt lat="44.21128" lon="0.53314">
        <ele>92.866225</ele>
        <time>2022-12-29T12:31:08.896Z</time>
      </trkpt>
      <trkpt lat="44.2113" lon="0.53331">
        <ele>92.68786</ele>
        <time>2022-12-29T12:31:11.919Z</time>
      </trkpt>
      <trkpt lat="44.21132" lon="0.53348">
        <ele>92.50472</ele>
        <time>2022-12-29T12:31:14.917Z</time>
      </trkpt>
      <trkpt lat="44.21134" lon="0.53367">
        <ele>92.304377</ele>
        <time>2022-12-29T12:31:17.919Z</time>
      </trkpt>
      <trkpt lat="44.21136" lon="0.5338">
        <ele>92.158304</ele>
        <time>2022-12-29T12:31:19.965Z</time>
      </trkpt>
      <trkpt lat="44.21138" lon="0.53399">
        <ele>91.953548</ele>
        <time>2022-12-29T12:31:22.919Z</time>
      </trkpt>
      <trkpt lat="44.2114" lon="0.53413">
        <ele>91.809352</ele>
        <time>2022-12-29T12:31:24.915Z</time>
      </trkpt>
      <trkpt lat="44.21142" lon="0.53426">
        <ele>91.662973</ele>
        <time>2022-12-29T12:31:26.918Z</time>
      </trkpt>
      <trkpt lat="44.21144" lon="0.53439">
        <ele>91.524526</ele>
        <time>2022-12-29T12:31:28.918Z</time>
      </trkpt>
      <trkpt lat="44.21147" lon="0.53457">
        <ele>91.323545</ele>
        <time>2022-12-29T12:31:31.962Z</time>
      </trkpt>
      <trkpt lat="44.21149" lon="0.53471">
        <ele>91.180125</ele>
        <time>2022-12-29T12:31:33.919Z</time>
      </trkpt>
      <trkpt lat="44.21153" lon="0.53489">
        <ele>90.978241</ele>
        <time>2022-12-29T12:31:36.914Z</time>
      </trkpt>
      <trkpt lat="44.21155" lon="0.53502">
        <ele>90.840769</ele>
        <time>2022-12-29T12:31:38.918Z</time>
      </trkpt>
      <trkpt lat="44.21157" lon="0.53514">
        <ele>90.706789</ele>
        <time>2022-12-29T12:31:40.917Z</time>
      </trkpt>
      <trkpt lat="44.21159" lon="0.53532">
        <ele>90.468951</ele>
        <time>2022-12-29T12:31:43.976Z</time>
      </trkpt>
      <trkpt lat="44.21162" lon="0.53548">
        <ele>90.224575</ele>
        <time>2022-12-29T12:31:46.918Z</time>
      </trkpt>
      <trkpt lat="44.21164" lon="0.53564">
        <ele>89.989366</ele>
        <time>2022-12-29T12:31:49.933Z</time>
      </trkpt>
      <trkpt lat="44.21167" lon="0.53579">
        <ele>89.756951</ele>
        <time>2022-12-29T12:31:52.917Z</time>
      </trkpt>
      <trkpt lat="44.21171" lon="0.53596">
        <ele>89.501037</ele>
        <time>2022-12-29T12:31:55.971Z</time>
      </trkpt>
      <trkpt lat="44.21176" lon="0.53612">
        <ele>89.236604</ele>
        <time>2022-12-29T12:31:58.916Z</time>
      </trkpt>
      <trkpt lat="44.2118" lon="0.5363">
        <ele>88.966973</ele>
        <time>2022-12-29T12:32:01.993Z</time>
      </trkpt>
      <trkpt lat="44.21183" lon="0.53648">
        <ele>88.690343</ele>
        <time>2022-12-29T12:32:04.916Z</time>
      </trkpt>
      <trkpt lat="44.21186" lon="0.53666">
        <ele>88.423565</ele>
        <time>2022-12-29T12:32:07.964Z</time>
      </trkpt>
      <trkpt lat="44.21189" lon="0.53683">
        <ele>88.165786</ele>
        <time>2022-12-29T12:32:10.919Z</time>
      </trkpt>
      <trkpt lat="44.21193" lon="0.537">
        <ele>87.898054</ele>
        <time>2022-12-29T12:32:13.904Z</time>
      </trkpt>
      <trkpt lat="44.21196" lon="0.53712">
        <ele>87.71395</ele>
        <time>2022-12-29T12:32:15.919Z</time>
      </trkpt>
      <trkpt lat="44.21199" lon="0.5373">
        <ele>87.440055</ele>
        <time>2022-12-29T12:32:18.915Z</time>
      </trkpt>
      <trkpt lat="44.21203" lon="0.53742">
        <ele>87.247394</ele>
        <time>2022-12-29T12:32:20.922Z</time>
      </trkpt>
      <trkpt lat="44.21207" lon="0.5376">
        <ele>86.966746</ele>
        <time>2022-12-29T12:32:23.918Z</time>
      </trkpt>
      <trkpt lat="44.21209" lon="0.53773">
        <ele>86.722228</ele>
        <time>2022-12-29T12:32:25.917Z</time>
      </trkpt>
      <trkpt lat="44.21212" lon="0.53787">
        <ele>86.448191</ele>
        <time>2022-12-29T12:32:27.919Z</time>
      </trkpt>
      <trkpt lat="44.21216" lon="0.53799">
        <ele>86.186587</ele>
        <time>2022-12-29T12:32:29.965Z</time>
      </trkpt>
      <trkpt lat="44.21219" lon="0.53812">
        <ele>85.92968</ele>
        <time>2022-12-29T12:32:31.919Z</time>
      </trkpt>
      <trkpt lat="44.21223" lon="0.53823">
        <ele>85.682999</ele>
        <time>2022-12-29T12:32:33.918Z</time>
      </trkpt>
      <trkpt lat="44.21226" lon="0.53836">
        <ele>85.422964</ele>
        <time>2022-12-29T12:32:35.903Z</time>
      </trkpt>
      <trkpt lat="44.21228" lon="0.5385">
        <ele>85.149102</ele>
        <time>2022-12-29T12:32:37.917Z</time>
      </trkpt>
      <trkpt lat="44.21231" lon="0.53864">
        <ele>84.873087</ele>
        <time>2022-12-29T12:32:39.919Z</time>
      </trkpt>
      <trkpt lat="44.21234" lon="0.53878">
        <ele>84.595412</ele>
        <time>2022-12-29T12:32:41.916Z</time>
      </trkpt>
      <trkpt lat="44.21238" lon="0.5389">
        <ele>84.331239</ele>
        <time>2022-12-29T12:32:43.916Z</time>
      </trkpt>
      <trkpt lat="44.21241" lon="0.53904">
        <ele>84.057143</ele>
        <time>2022-12-29T12:32:45.918Z</time>
      </trkpt>
      <trkpt lat="44.21243" lon="0.53917">
        <ele>83.794175</ele>
        <time>2022-12-29T12:32:47.904Z</time>
      </trkpt>
      <trkpt lat="44.21246" lon="0.53931">
        <ele>83.511598</ele>
        <time>2022-12-29T12:32:49.915Z</time>
      </trkpt>
      <trkpt lat="44.2125" lon="0.53944">
        <ele>83.251137</ele>
        <time>2022-12-29T12:32:51.911Z</time>
      </trkpt>
      <trkpt lat="44.21253" lon="0.53956">
        <ele>83.006017</ele>
        <time>2022-12-29T12:32:53.895Z</time>
      </trkpt>
      <trkpt lat="44.21256" lon="0.53968">
        <ele>82.760952</ele>
        <time>2022-12-29T12:32:55.913Z</time>
      </trkpt>
      <trkpt lat="44.21259" lon="0.53985">
        <ele>82.420386</ele>
        <time>2022-12-29T12:32:58.914Z</time>
      </trkpt>
      <trkpt lat="44.21263" lon="0.53999">
        <ele>82.130074</ele>
        <time>2022-12-29T12:33:01.892Z</time>
      </trkpt>
      <trkpt lat="44.21266" lon="0.54014">
        <ele>82.217832</ele>
        <time>2022-12-29T12:33:04.910Z</time>
      </trkpt>
      <trkpt lat="44.21271" lon="0.54029">
        <ele>82.315709</ele>
        <time>2022-12-29T12:33:07.936Z</time>
      </trkpt>
      <trkpt lat="44.21274" lon="0.54045">
        <ele>82.417679</ele>
        <time>2022-12-29T12:33:10.922Z</time>
      </trkpt>
      <trkpt lat="44.21278" lon="0.54062">
        <ele>82.525327</ele>
        <time>2022-12-29T12:33:13.968Z</time>
      </trkpt>
      <trkpt lat="44.21282" lon="0.5408">
        <ele>82.637836</ele>
        <time>2022-12-29T12:33:16.904Z</time>
      </trkpt>
      <trkpt lat="44.21284" lon="0.54093">
        <ele>82.714886</ele>
        <time>2022-12-29T12:33:18.917Z</time>
      </trkpt>
      <trkpt lat="44.21286" lon="0.54105">
        <ele>82.792661</ele>
        <time>2022-12-29T12:33:20.918Z</time>
      </trkpt>
      <trkpt lat="44.2129" lon="0.54123">
        <ele>82.906565</ele>
        <time>2022-12-29T12:33:23.926Z</time>
      </trkpt>
      <trkpt lat="44.21292" lon="0.54136">
        <ele>82.98434</ele>
        <time>2022-12-29T12:33:25.984Z</time>
      </trkpt>
      <trkpt lat="44.21296" lon="0.54153">
        <ele>83.094643</ele>
        <time>2022-12-29T12:33:28.919Z</time>
      </trkpt>
      <trkpt lat="44.213" lon="0.54171">
        <ele>83.204994</ele>
        <time>2022-12-29T12:33:31.970Z</time>
      </trkpt>
      <trkpt lat="44.21304" lon="0.54187">
        <ele>83.311368</ele>
        <time>2022-12-29T12:33:34.922Z</time>
      </trkpt>
      <trkpt lat="44.21309" lon="0.54205">
        <ele>83.425192</ele>
        <time>2022-12-29T12:33:37.964Z</time>
      </trkpt>
      <trkpt lat="44.21311" lon="0.54217">
        <ele>83.50132</ele>
        <time>2022-12-29T12:33:39.914Z</time>
      </trkpt>
      <trkpt lat="44.21315" lon="0.54234">
        <ele>83.609988</ele>
        <time>2022-12-29T12:33:42.918Z</time>
      </trkpt>
      <trkpt lat="44.2132" lon="0.54251">
        <ele>83.684977</ele>
        <time>2022-12-29T12:33:45.918Z</time>
      </trkpt>
      <trkpt lat="44.21323" lon="0.54263">
        <ele>83.731592</ele>
        <time>2022-12-29T12:33:47.904Z</time>
      </trkpt>
      <trkpt lat="44.21327" lon="0.5428">
        <ele>83.799121</ele>
        <time>2022-12-29T12:33:50.918Z</time>
      </trkpt>
      <trkpt lat="44.2133" lon="0.54297">
        <ele>83.863721</ele>
        <time>2022-12-29T12:33:53.921Z</time>
      </trkpt>
      <trkpt lat="44.21333" lon="0.54315">
        <ele>83.929518</ele>
        <time>2022-12-29T12:33:56.907Z</time>
      </trkpt>
      <trkpt lat="44.21337" lon="0.54331">
        <ele>83.993547</ele>
        <time>2022-12-29T12:33:59.917Z</time>
      </trkpt>
      <trkpt lat="44.2134" lon="0.54349">
        <ele>84.06209</ele>
        <time>2022-12-29T12:34:02.918Z</time>
      </trkpt>
      <trkpt lat="44.21343" lon="0.54362">
        <ele>84.109076</ele>
        <time>2022-12-29T12:34:04.917Z</time>
      </trkpt>
      <trkpt lat="44.21346" lon="0.54374">
        <ele>84.155265</ele>
        <time>2022-12-29T12:34:06.921Z</time>
      </trkpt>
      <trkpt lat="44.2135" lon="0.54392">
        <ele>84.225939</ele>
        <time>2022-12-29T12:34:09.929Z</time>
      </trkpt>
      <trkpt lat="44.21355" lon="0.54409">
        <ele>84.291787</ele>
        <time>2022-12-29T12:34:12.921Z</time>
      </trkpt>
      <trkpt lat="44.21359" lon="0.54427">
        <ele>84.360759</ele>
        <time>2022-12-29T12:34:15.919Z</time>
      </trkpt>
      <trkpt lat="44.21362" lon="0.54445">
        <ele>84.42878</ele>
        <time>2022-12-29T12:34:18.916Z</time>
      </trkpt>
      <trkpt lat="44.21364" lon="0.54458">
        <ele>84.478522</ele>
        <time>2022-12-29T12:34:20.919Z</time>
      </trkpt>
      <trkpt lat="44.21367" lon="0.5447">
        <ele>84.527037</ele>
        <time>2022-12-29T12:34:22.913Z</time>
      </trkpt>
      <trkpt lat="44.21372" lon="0.54487">
        <ele>84.645478</ele>
        <time>2022-12-29T12:34:25.976Z</time>
      </trkpt>
      <trkpt lat="44.21375" lon="0.54503">
        <ele>84.813195</ele>
        <time>2022-12-29T12:34:28.916Z</time>
      </trkpt>
      <trkpt lat="44.21378" lon="0.54518">
        <ele>84.973728</ele>
        <time>2022-12-29T12:34:31.960Z</time>
      </trkpt>
      <trkpt lat="44.21382" lon="0.54533">
        <ele>85.128898</ele>
        <time>2022-12-29T12:34:34.917Z</time>
      </trkpt>
      <trkpt lat="44.21385" lon="0.54547">
        <ele>85.277936</ele>
        <time>2022-12-29T12:34:37.950Z</time>
      </trkpt>
      <trkpt lat="44.21388" lon="0.54561">
        <ele>85.420441</ele>
        <time>2022-12-29T12:34:40.918Z</time>
      </trkpt>
      <trkpt lat="44.21391" lon="0.54576">
        <ele>85.575063</ele>
        <time>2022-12-29T12:34:43.966Z</time>
      </trkpt>
      <trkpt lat="44.21394" lon="0.54592">
        <ele>85.741014</ele>
        <time>2022-12-29T12:34:46.917Z</time>
      </trkpt>
      <trkpt lat="44.21397" lon="0.54608">
        <ele>85.906942</ele>
        <time>2022-12-29T12:34:49.973Z</time>
      </trkpt>
      <trkpt lat="44.21401" lon="0.54624">
        <ele>86.081211</ele>
        <time>2022-12-29T12:34:52.924Z</time>
      </trkpt>
      <trkpt lat="44.21405" lon="0.54641">
        <ele>86.254006</ele>
        <time>2022-12-29T12:34:55.964Z</time>
      </trkpt>
      <trkpt lat="44.2141" lon="0.54657">
        <ele>86.429162</ele>
        <time>2022-12-29T12:34:58.914Z</time>
      </trkpt>
      <trkpt lat="44.21413" lon="0.54674">
        <ele>86.607226</ele>
        <time>2022-12-29T12:35:01.991Z</time>
      </trkpt>
      <trkpt lat="44.21417" lon="0.54692">
        <ele>86.788284</ele>
        <time>2022-12-29T12:35:04.914Z</time>
      </trkpt>
      <trkpt lat="44.21421" lon="0.54709">
        <ele>86.968788</ele>
        <time>2022-12-29T12:35:07.932Z</time>
      </trkpt>
      <trkpt lat="44.21424" lon="0.54727">
        <ele>87.061226</ele>
        <time>2022-12-29T12:35:10.920Z</time>
      </trkpt>
      <trkpt lat="44.21427" lon="0.5474">
        <ele>87.059133</ele>
        <time>2022-12-29T12:35:12.904Z</time>
      </trkpt>
      <trkpt lat="44.21431" lon="0.54757">
        <ele>87.056207</ele>
        <time>2022-12-29T12:35:15.917Z</time>
      </trkpt>
      <trkpt lat="44.21435" lon="0.54769">
        <ele>87.054195</ele>
        <time>2022-12-29T12:35:17.918Z</time>
      </trkpt>
      <trkpt lat="44.21438" lon="0.54787">
        <ele>87.051243</ele>
        <time>2022-12-29T12:35:20.918Z</time>
      </trkpt>
      <trkpt lat="44.21441" lon="0.54799">
        <ele>87.049263</ele>
        <time>2022-12-29T12:35:22.932Z</time>
      </trkpt>
      <trkpt lat="44.21445" lon="0.54817">
        <ele>87.046262</ele>
        <time>2022-12-29T12:35:25.969Z</time>
      </trkpt>
      <trkpt lat="44.21448" lon="0.5483">
        <ele>87.044187</ele>
        <time>2022-12-29T12:35:27.921Z</time>
      </trkpt>
      <trkpt lat="44.2145" lon="0.54843">
        <ele>87.042085</ele>
        <time>2022-12-29T12:35:29.919Z</time>
      </trkpt>
      <trkpt lat="44.21453" lon="0.54855">
        <ele>87.039946</ele>
        <time>2022-12-29T12:35:31.968Z</time>
      </trkpt>
      <trkpt lat="44.21457" lon="0.54868">
        <ele>87.0378</ele>
        <time>2022-12-29T12:35:33.916Z</time>
      </trkpt>
      <trkpt lat="44.2146" lon="0.54881">
        <ele>87.035712</ele>
        <time>2022-12-29T12:35:35.918Z</time>
      </trkpt>
      <trkpt lat="44.21463" lon="0.54893">
        <ele>87.03361</ele>
        <time>2022-12-29T12:35:37.918Z</time>
      </trkpt>
      <trkpt lat="44.21466" lon="0.54906">
        <ele>87.031522</ele>
        <time>2022-12-29T12:35:39.917Z</time>
      </trkpt>
      <trkpt lat="44.21469" lon="0.54918">
        <ele>87.029435</ele>
        <time>2022-12-29T12:35:41.918Z</time>
      </trkpt>
      <trkpt lat="44.21472" lon="0.54931">
        <ele>87.027371</ele>
        <time>2022-12-29T12:35:43.900Z</time>
      </trkpt>
      <trkpt lat="44.21475" lon="0.54944">
        <ele>87.025232</ele>
        <time>2022-12-29T12:35:45.930Z</time>
      </trkpt>
      <trkpt lat="44.21477" lon="0.54957">
        <ele>87.023078</ele>
        <time>2022-12-29T12:35:47.919Z</time>
      </trkpt>
      <trkpt lat="44.21479" lon="0.54971">
        <ele>86.879211</ele>
        <time>2022-12-29T12:35:49.901Z</time>
      </trkpt>
      <trkpt lat="44.21481" lon="0.54984">
        <ele>86.745067</ele>
        <time>2022-12-29T12:35:51.919Z</time>
      </trkpt>
      <trkpt lat="44.21485" lon="0.54996">
        <ele>86.612852</ele>
        <time>2022-12-29T12:35:53.918Z</time>
      </trkpt>
      <trkpt lat="44.21488" lon="0.55008">
        <ele>86.48206</ele>
        <time>2022-12-29T12:35:55.921Z</time>
      </trkpt>
      <trkpt lat="44.21492" lon="0.55026">
        <ele>86.295422</ele>
        <time>2022-12-29T12:35:58.918Z</time>
      </trkpt>
      <trkpt lat="44.21495" lon="0.55038">
        <ele>86.162709</ele>
        <time>2022-12-29T12:36:00.920Z</time>
      </trkpt>
      <trkpt lat="44.21496" lon="0.55051">
        <ele>86.031615</ele>
        <time>2022-12-29T12:36:02.927Z</time>
      </trkpt>
      <trkpt lat="44.21499" lon="0.55064">
        <ele>85.896705</ele>
        <time>2022-12-29T12:36:04.920Z</time>
      </trkpt>
      <trkpt lat="44.21502" lon="0.55076">
        <ele>85.759719</ele>
        <time>2022-12-29T12:36:06.920Z</time>
      </trkpt>
      <trkpt lat="44.21504" lon="0.55093">
        <ele>85.587862</ele>
        <time>2022-12-29T12:36:09.912Z</time>
      </trkpt>
      <trkpt lat="44.21505" lon="0.55108">
        <ele>85.431454</ele>
        <time>2022-12-29T12:36:12.918Z</time>
      </trkpt>
      <trkpt lat="44.21507" lon="0.55121">
        <ele>85.298932</ele>
        <time>2022-12-29T12:36:15.920Z</time>
      </trkpt>
      <trkpt lat="44.21509" lon="0.55136">
        <ele>85.145213</ele>
        <time>2022-12-29T12:36:19.897Z</time>
      </trkpt>
      <trkpt lat="44.2151" lon="0.55152">
        <ele>84.982767</ele>
        <time>2022-12-29T12:36:23.918Z</time>
      </trkpt>
      <trkpt lat="44.21511" lon="0.55165">
        <ele>84.848012</ele>
        <time>2022-12-29T12:36:26.917Z</time>
      </trkpt>
      <trkpt lat="44.21512" lon="0.55181">
        <ele>84.683871</ele>
        <time>2022-12-29T12:36:29.917Z</time>
      </trkpt>
      <trkpt lat="44.21514" lon="0.55196">
        <ele>84.530647</ele>
        <time>2022-12-29T12:36:32.916Z</time>
      </trkpt>
      <trkpt lat="44.21515" lon="0.55211">
        <ele>84.535953</ele>
        <time>2022-12-29T12:36:35.919Z</time>
      </trkpt>
      <trkpt lat="44.21518" lon="0.55224">
        <ele>84.619322</ele>
        <time>2022-12-29T12:36:37.920Z</time>
      </trkpt>
      <trkpt lat="44.21517" lon="0.55241">
        <ele>84.72653</ele>
        <time>2022-12-29T12:36:40.919Z</time>
      </trkpt>
      <trkpt lat="44.21516" lon="0.55257">
        <ele>84.822532</ele>
        <time>2022-12-29T12:36:43.919Z</time>
      </trkpt>
      <trkpt lat="44.21516" lon="0.55272">
        <ele>84.917918</ele>
        <time>2022-12-29T12:36:46.919Z</time>
      </trkpt>
      <trkpt lat="44.21514" lon="0.5529">
        <ele>85.027526</ele>
        <time>2022-12-29T12:36:49.916Z</time>
      </trkpt>
      <trkpt lat="44.21514" lon="0.55305">
        <ele>85.11796</ele>
        <time>2022-12-29T12:36:52.920Z</time>
      </trkpt>
      <trkpt lat="44.21514" lon="0.55319">
        <ele>85.206544</ele>
        <time>2022-12-29T12:36:55.916Z</time>
      </trkpt>
      <trkpt lat="44.21513" lon="0.55333">
        <ele>85.291477</ele>
        <time>2022-12-29T12:36:58.917Z</time>
      </trkpt>
      <trkpt lat="44.21513" lon="0.55345">
        <ele>85.369721</ele>
        <time>2022-12-29T12:37:01.919Z</time>
      </trkpt>
      <trkpt lat="44.21512" lon="0.55358">
        <ele>85.450152</ele>
        <time>2022-12-29T12:37:04.922Z</time>
      </trkpt>
      <trkpt lat="44.21512" lon="0.55373">
        <ele>85.538126</ele>
        <time>2022-12-29T12:37:07.921Z</time>
      </trkpt>
      <trkpt lat="44.21511" lon="0.55386">
        <ele>85.620589</ele>
        <time>2022-12-29T12:37:10.920Z</time>
      </trkpt>
      <trkpt lat="44.21508" lon="0.55404">
        <ele>85.732777</ele>
        <time>2022-12-29T12:37:13.918Z</time>
      </trkpt>
      <trkpt lat="44.21504" lon="0.55421">
        <ele>85.844285</ele>
        <time>2022-12-29T12:37:16.920Z</time>
      </trkpt>
      <trkpt lat="44.21502" lon="0.55434">
        <ele>85.924712</ele>
        <time>2022-12-29T12:37:18.916Z</time>
      </trkpt>
      <trkpt lat="44.21498" lon="0.5545">
        <ele>86.04858</ele>
        <time>2022-12-29T12:37:21.918Z</time>
      </trkpt>
      <trkpt lat="44.21495" lon="0.55466">
        <ele>86.373785</ele>
        <time>2022-12-29T12:37:24.919Z</time>
      </trkpt>
      <trkpt lat="44.21492" lon="0.5548">
        <ele>86.677495</ele>
        <time>2022-12-29T12:37:27.914Z</time>
      </trkpt>
      <trkpt lat="44.21489" lon="0.55496">
        <ele>87.027462</ele>
        <time>2022-12-29T12:37:30.916Z</time>
      </trkpt>
      <trkpt lat="44.21486" lon="0.55512">
        <ele>87.357269</ele>
        <time>2022-12-29T12:37:33.916Z</time>
      </trkpt>
      <trkpt lat="44.21483" lon="0.55529">
        <ele>87.704196</ele>
        <time>2022-12-29T12:37:36.914Z</time>
      </trkpt>
      <trkpt lat="44.2148" lon="0.55546">
        <ele>88.06363</ele>
        <time>2022-12-29T12:37:39.920Z</time>
      </trkpt>
      <trkpt lat="44.21477" lon="0.55561">
        <ele>88.379199</ele>
        <time>2022-12-29T12:37:42.920Z</time>
      </trkpt>
      <trkpt lat="44.21475" lon="0.55575">
        <ele>88.678679</ele>
        <time>2022-12-29T12:37:45.916Z</time>
      </trkpt>
      <trkpt lat="44.21474" lon="0.55591">
        <ele>89.002134</ele>
        <time>2022-12-29T12:37:48.901Z</time>
      </trkpt>
      <trkpt lat="44.21472" lon="0.55604">
        <ele>89.256896</ele>
        <time>2022-12-29T12:37:50.917Z</time>
      </trkpt>
      <trkpt lat="44.21468" lon="0.55621">
        <ele>89.634452</ele>
        <time>2022-12-29T12:37:53.923Z</time>
      </trkpt>
      <trkpt lat="44.21464" lon="0.55639">
        <ele>90.009624</ele>
        <time>2022-12-29T12:37:56.922Z</time>
      </trkpt>
      <trkpt lat="44.21462" lon="0.55651">
        <ele>90.271664</ele>
        <time>2022-12-29T12:37:58.919Z</time>
      </trkpt>
      <trkpt lat="44.21458" lon="0.55668">
        <ele>90.616364</ele>
        <time>2022-12-29T12:38:01.921Z</time>
      </trkpt>
      <trkpt lat="44.21456" lon="0.55684">
        <ele>90.958035</ele>
        <time>2022-12-29T12:38:04.918Z</time>
      </trkpt>
      <trkpt lat="44.21452" lon="0.55701">
        <ele>91.169183</ele>
        <time>2022-12-29T12:38:07.931Z</time>
      </trkpt>
      <trkpt lat="44.21449" lon="0.55719">
        <ele>91.264689</ele>
        <time>2022-12-29T12:38:10.916Z</time>
      </trkpt>
      <trkpt lat="44.21446" lon="0.55737">
        <ele>91.364056</ele>
        <time>2022-12-29T12:38:13.917Z</time>
      </trkpt>
      <trkpt lat="44.21443" lon="0.55749">
        <ele>91.430767</ele>
        <time>2022-12-29T12:38:15.923Z</time>
      </trkpt>
      <trkpt lat="44.21441" lon="0.55761">
        <ele>91.497243</ele>
        <time>2022-12-29T12:38:17.916Z</time>
      </trkpt>
      <trkpt lat="44.21439" lon="0.55779">
        <ele>91.589232</ele>
        <time>2022-12-29T12:38:20.921Z</time>
      </trkpt>
      <trkpt lat="44.21436" lon="0.55797">
        <ele>91.688794</ele>
        <time>2022-12-29T12:38:23.931Z</time>
      </trkpt>
      <trkpt lat="44.21433" lon="0.55809">
        <ele>91.756011</ele>
        <time>2022-12-29T12:38:25.919Z</time>
      </trkpt>
      <trkpt lat="44.2143" lon="0.55826">
        <ele>91.848802</ele>
        <time>2022-12-29T12:38:28.922Z</time>
      </trkpt>
      <trkpt lat="44.21427" lon="0.55839">
        <ele>91.917345</ele>
        <time>2022-12-29T12:38:30.974Z</time>
      </trkpt>
      <trkpt lat="44.21425" lon="0.55853">
        <ele>91.992185</ele>
        <time>2022-12-29T12:38:32.918Z</time>
      </trkpt>
      <trkpt lat="44.21422" lon="0.55865">
        <ele>92.06025</ele>
        <time>2022-12-29T12:38:34.920Z</time>
      </trkpt>
      <trkpt lat="44.21419" lon="0.55878">
        <ele>92.129185</ele>
        <time>2022-12-29T12:38:36.962Z</time>
      </trkpt>
      <trkpt lat="44.21416" lon="0.55891">
        <ele>92.202188</ele>
        <time>2022-12-29T12:38:38.915Z</time>
      </trkpt>
      <trkpt lat="44.21414" lon="0.55903">
        <ele>92.270923</ele>
        <time>2022-12-29T12:38:40.915Z</time>
      </trkpt>
      <trkpt lat="44.2141" lon="0.55915">
        <ele>92.339603</ele>
        <time>2022-12-29T12:38:42.996Z</time>
      </trkpt>
      <trkpt lat="44.21408" lon="0.55929">
        <ele>92.412451</ele>
        <time>2022-12-29T12:38:44.895Z</time>
      </trkpt>
      <trkpt lat="44.21405" lon="0.55947">
        <ele>92.405004</ele>
        <time>2022-12-29T12:38:47.918Z</time>
      </trkpt>
      <trkpt lat="44.21402" lon="0.55959">
        <ele>92.375439</ele>
        <time>2022-12-29T12:38:49.918Z</time>
      </trkpt>
      <trkpt lat="44.21399" lon="0.55972">
        <ele>92.345678</ele>
        <time>2022-12-29T12:38:51.916Z</time>
      </trkpt>
      <trkpt lat="44.21397" lon="0.55985">
        <ele>92.315952</ele>
        <time>2022-12-29T12:38:53.903Z</time>
      </trkpt>
      <trkpt lat="44.21394" lon="0.55997">
        <ele>92.286387</ele>
        <time>2022-12-29T12:38:55.912Z</time>
      </trkpt>
      <trkpt lat="44.21392" lon="0.5601">
        <ele>92.256883</ele>
        <time>2022-12-29T12:38:57.917Z</time>
      </trkpt>
      <trkpt lat="44.2139" lon="0.56022">
        <ele>92.228416</ele>
        <time>2022-12-29T12:38:59.918Z</time>
      </trkpt>
      <trkpt lat="44.21387" lon="0.56035">
        <ele>92.197043</ele>
        <time>2022-12-29T12:39:01.916Z</time>
      </trkpt>
      <trkpt lat="44.21384" lon="0.56047">
        <ele>92.16779</ele>
        <time>2022-12-29T12:39:03.912Z</time>
      </trkpt>
      <trkpt lat="44.21381" lon="0.5606">
        <ele>92.137381</ele>
        <time>2022-12-29T12:39:05.901Z</time>
      </trkpt>
      <trkpt lat="44.21377" lon="0.56072">
        <ele>92.106119</ele>
        <time>2022-12-29T12:39:07.917Z</time>
      </trkpt>
      <trkpt lat="44.21373" lon="0.56085">
        <ele>92.075813</ele>
        <time>2022-12-29T12:39:09.919Z</time>
      </trkpt>
      <trkpt lat="44.2137" lon="0.56098">
        <ele>92.044872</ele>
        <time>2022-12-29T12:39:11.927Z</time>
      </trkpt>
      <trkpt lat="44.21367" lon="0.56111">
        <ele>92.012418</ele>
        <time>2022-12-29T12:39:13.914Z</time>
      </trkpt>
      <trkpt lat="44.21366" lon="0.56124">
        <ele>91.983038</ele>
        <time>2022-12-29T12:39:15.921Z</time>
      </trkpt>
      <trkpt lat="44.21362" lon="0.56136">
        <ele>91.953905</ele>
        <time>2022-12-29T12:39:17.915Z</time>
      </trkpt>
      <trkpt lat="44.21359" lon="0.56149">
        <ele>91.921945</ele>
        <time>2022-12-29T12:39:19.916Z</time>
      </trkpt>
      <trkpt lat="44.21357" lon="0.56166">
        <ele>91.883385</ele>
        <time>2022-12-29T12:39:22.918Z</time>
      </trkpt>
      <trkpt lat="44.21354" lon="0.56182">
        <ele>91.682045</ele>
        <time>2022-12-29T12:39:25.918Z</time>
      </trkpt>
      <trkpt lat="44.21349" lon="0.56198">
        <ele>91.328962</ele>
        <time>2022-12-29T12:39:28.911Z</time>
      </trkpt>
      <trkpt lat="44.21345" lon="0.56215">
        <ele>90.959543</ele>
        <time>2022-12-29T12:39:31.917Z</time>
      </trkpt>
      <trkpt lat="44.21342" lon="0.56234">
        <ele>90.559078</ele>
        <time>2022-12-29T12:39:34.919Z</time>
      </trkpt>
      <trkpt lat="44.21339" lon="0.56246">
        <ele>90.29447</ele>
        <time>2022-12-29T12:39:36.918Z</time>
      </trkpt>
      <trkpt lat="44.21335" lon="0.56259">
        <ele>90.010483</ele>
        <time>2022-12-29T12:39:38.921Z</time>
      </trkpt>
      <trkpt lat="44.2133" lon="0.56277">
        <ele>89.618681</ele>
        <time>2022-12-29T12:39:41.917Z</time>
      </trkpt>
      <trkpt lat="44.21327" lon="0.5629">
        <ele>89.33928</ele>
        <time>2022-12-29T12:39:43.918Z</time>
      </trkpt>
      <trkpt lat="44.21323" lon="0.56303">
        <ele>89.05422</ele>
        <time>2022-12-29T12:39:45.902Z</time>
      </trkpt>
      <trkpt lat="44.2132" lon="0.56315">
        <ele>88.792386</ele>
        <time>2022-12-29T12:39:47.920Z</time>
      </trkpt>
      <trkpt lat="44.21316" lon="0.56326">
        <ele>88.536295</ele>
        <time>2022-12-29T12:39:49.921Z</time>
      </trkpt>
      <trkpt lat="44.2131" lon="0.56341">
        <ele>88.189289</ele>
        <time>2022-12-29T12:39:52.919Z</time>
      </trkpt>
      <trkpt lat="44.21307" lon="0.56354">
        <ele>87.91686</ele>
        <time>2022-12-29T12:39:54.930Z</time>
      </trkpt>
      <trkpt lat="44.21303" lon="0.56367">
        <ele>87.625827</ele>
        <time>2022-12-29T12:39:56.968Z</time>
      </trkpt>
      <trkpt lat="44.213" lon="0.5638">
        <ele>87.344904</ele>
        <time>2022-12-29T12:39:58.920Z</time>
      </trkpt>
      <trkpt lat="44.21296" lon="0.56392">
        <ele>87.081169</ele>
        <time>2022-12-29T12:40:00.920Z</time>
      </trkpt>
      <trkpt lat="44.21292" lon="0.56407">
        <ele>86.74657</ele>
        <time>2022-12-29T12:40:03.920Z</time>
      </trkpt>
      <trkpt lat="44.21288" lon="0.56421">
        <ele>86.655219</ele>
        <time>2022-12-29T12:40:06.920Z</time>
      </trkpt>
      <trkpt lat="44.21284" lon="0.56436">
        <ele>86.561662</ele>
        <time>2022-12-29T12:40:09.921Z</time>
      </trkpt>
      <trkpt lat="44.21279" lon="0.56451">
        <ele>86.474385</ele>
        <time>2022-12-29T12:40:12.918Z</time>
      </trkpt>
      <trkpt lat="44.21274" lon="0.56467">
        <ele>86.374174</ele>
        <time>2022-12-29T12:40:15.917Z</time>
      </trkpt>
      <trkpt lat="44.21268" lon="0.56484">
        <ele>86.269924</ele>
        <time>2022-12-29T12:40:18.918Z</time>
      </trkpt>
      <trkpt lat="44.21263" lon="0.56501">
        <ele>86.167151</ele>
        <time>2022-12-29T12:40:21.919Z</time>
      </trkpt>
      <trkpt lat="44.21258" lon="0.56519">
        <ele>86.060978</ele>
        <time>2022-12-29T12:40:24.919Z</time>
      </trkpt>
      <trkpt lat="44.21254" lon="0.5653">
        <ele>85.988592</ele>
        <time>2022-12-29T12:40:26.962Z</time>
      </trkpt>
      <trkpt lat="44.2125" lon="0.56542">
        <ele>85.917536</ele>
        <time>2022-12-29T12:40:28.918Z</time>
      </trkpt>
      <trkpt lat="44.21246" lon="0.56553">
        <ele>85.846867</ele>
        <time>2022-12-29T12:40:30.918Z</time>
      </trkpt>
      <trkpt lat="44.21241" lon="0.56569">
        <ele>85.751986</ele>
        <time>2022-12-29T12:40:33.932Z</time>
      </trkpt>
      <trkpt lat="44.21236" lon="0.56586">
        <ele>85.647964</ele>
        <time>2022-12-29T12:40:36.920Z</time>
      </trkpt>
      <trkpt lat="44.21231" lon="0.56603">
        <ele>85.543552</ele>
        <time>2022-12-29T12:40:39.919Z</time>
      </trkpt>
      <trkpt lat="44.21224" lon="0.5662">
        <ele>85.438852</ele>
        <time>2022-12-29T12:40:42.922Z</time>
      </trkpt>
      <trkpt lat="44.21219" lon="0.56636">
        <ele>85.340802</ele>
        <time>2022-12-29T12:40:45.918Z</time>
      </trkpt>
      <trkpt lat="44.21214" lon="0.56653">
        <ele>85.440723</ele>
        <time>2022-12-29T12:40:48.911Z</time>
      </trkpt>
      <trkpt lat="44.2121" lon="0.56665">
        <ele>85.518051</ele>
        <time>2022-12-29T12:40:50.919Z</time>
      </trkpt>
      <trkpt lat="44.21207" lon="0.56677">
        <ele>85.59529</ele>
        <time>2022-12-29T12:40:52.918Z</time>
      </trkpt>
      <trkpt lat="44.21203" lon="0.5669">
        <ele>85.678959</ele>
        <time>2022-12-29T12:40:54.920Z</time>
      </trkpt>
      <trkpt lat="44.21198" lon="0.56701">
        <ele>85.755764</ele>
        <time>2022-12-29T12:40:56.916Z</time>
      </trkpt>
      <trkpt lat="44.21194" lon="0.56714">
        <ele>85.837681</ele>
        <time>2022-12-29T12:40:58.919Z</time>
      </trkpt>
      <trkpt lat="44.21188" lon="0.56732">
        <ele>85.952874</ele>
        <time>2022-12-29T12:41:01.993Z</time>
      </trkpt>
      <trkpt lat="44.21183" lon="0.56742">
        <ele>86.027045</ele>
        <time>2022-12-29T12:41:03.920Z</time>
      </trkpt>
      <trkpt lat="44.21178" lon="0.56756">
        <ele>86.115674</ele>
        <time>2022-12-29T12:41:06.917Z</time>
      </trkpt>
      <trkpt lat="44.21173" lon="0.5677">
        <ele>86.212086</ele>
        <time>2022-12-29T12:41:09.916Z</time>
      </trkpt>
      <trkpt lat="44.21168" lon="0.56786">
        <ele>86.31239</ele>
        <time>2022-12-29T12:41:12.921Z</time>
      </trkpt>
      <trkpt lat="44.21164" lon="0.56799">
        <ele>86.397654</ele>
        <time>2022-12-29T12:41:14.900Z</time>
      </trkpt>
      <trkpt lat="44.21158" lon="0.56811">
        <ele>86.481919</ele>
        <time>2022-12-29T12:41:16.919Z</time>
      </trkpt>
      <trkpt lat="44.21152" lon="0.56827">
        <ele>86.590392</ele>
        <time>2022-12-29T12:41:19.896Z</time>
      </trkpt>
      <trkpt lat="44.21146" lon="0.56838">
        <ele>86.670223</ele>
        <time>2022-12-29T12:41:21.919Z</time>
      </trkpt>
      <trkpt lat="44.21141" lon="0.56849">
        <ele>86.74798</ele>
        <time>2022-12-29T12:41:23.916Z</time>
      </trkpt>
      <trkpt lat="44.21135" lon="0.56867">
        <ele>87.016903</ele>
        <time>2022-12-29T12:41:26.916Z</time>
      </trkpt>
      <trkpt lat="44.21131" lon="0.56879">
        <ele>87.352834</ele>
        <time>2022-12-29T12:41:28.916Z</time>
      </trkpt>
      <trkpt lat="44.21124" lon="0.56896">
        <ele>87.819859</ele>
        <time>2022-12-29T12:41:31.902Z</time>
      </trkpt>
      <trkpt lat="44.21118" lon="0.56908">
        <ele>88.184993</ele>
        <time>2022-12-29T12:41:33.919Z</time>
      </trkpt>
      <trkpt lat="44.21113" lon="0.56919">
        <ele>88.499351</ele>
        <time>2022-12-29T12:41:35.917Z</time>
      </trkpt>
      <trkpt lat="44.2111" lon="0.56932">
        <ele>88.836882</ele>
        <time>2022-12-29T12:41:37.918Z</time>
      </trkpt>
      <trkpt lat="44.21106" lon="0.56943">
        <ele>89.152872</ele>
        <time>2022-12-29T12:41:39.922Z</time>
      </trkpt>
      <trkpt lat="44.21101" lon="0.56954">
        <ele>89.469341</ele>
        <time>2022-12-29T12:41:41.918Z</time>
      </trkpt>
      <trkpt lat="44.21094" lon="0.56968">
        <ele>89.892316</ele>
        <time>2022-12-29T12:41:44.918Z</time>
      </trkpt>
      <trkpt lat="44.21086" lon="0.56982">
        <ele>90.303526</ele>
        <time>2022-12-29T12:41:47.918Z</time>
      </trkpt>
      <trkpt lat="44.21081" lon="0.56995">
        <ele>90.685174</ele>
        <time>2022-12-29T12:41:50.897Z</time>
      </trkpt>
      <trkpt lat="44.21076" lon="0.57008">
        <ele>91.047333</ele>
        <time>2022-12-29T12:41:53.918Z</time>
      </trkpt>
      <trkpt lat="44.21071" lon="0.5702">
        <ele>91.379295</ele>
        <time>2022-12-29T12:41:56.917Z</time>
      </trkpt>
      <trkpt lat="44.21065" lon="0.57031">
        <ele>91.724815</ele>
        <time>2022-12-29T12:41:59.919Z</time>
      </trkpt>
      <trkpt lat="44.2106" lon="0.57045">
        <ele>92.113287</ele>
        <time>2022-12-29T12:42:02.924Z</time>
      </trkpt>
      <trkpt lat="44.21053" lon="0.57059">
        <ele>92.530797</ele>
        <time>2022-12-29T12:42:05.917Z</time>
      </trkpt>
      <trkpt lat="44.21046" lon="0.57074">
        <ele>92.965927</ele>
        <time>2022-12-29T12:42:08.917Z</time>
      </trkpt>
      <trkpt lat="44.2104" lon="0.57086">
        <ele>92.985404</ele>
        <time>2022-12-29T12:42:11.918Z</time>
      </trkpt>
      <trkpt lat="44.21034" lon="0.57101">
        <ele>93.000812</ele>
        <time>2022-12-29T12:42:14.921Z</time>
      </trkpt>
      <trkpt lat="44.21029" lon="0.57112">
        <ele>93.012535</ele>
        <time>2022-12-29T12:42:16.918Z</time>
      </trkpt>
      <trkpt lat="44.21022" lon="0.57128">
        <ele>93.029407</ele>
        <time>2022-12-29T12:42:19.921Z</time>
      </trkpt>
      <trkpt lat="44.21017" lon="0.57139">
        <ele>93.042023</ele>
        <time>2022-12-29T12:42:21.926Z</time>
      </trkpt>
      <trkpt lat="44.2101" lon="0.5715">
        <ele>93.054725</ele>
        <time>2022-12-29T12:42:23.972Z</time>
      </trkpt>
      <trkpt lat="44.21002" lon="0.57166">
        <ele>93.072287</ele>
        <time>2022-12-29T12:42:26.929Z</time>
      </trkpt>
      <trkpt lat="44.20996" lon="0.57178">
        <ele>93.086004</ele>
        <time>2022-12-29T12:42:28.902Z</time>
      </trkpt>
      <trkpt lat="44.20991" lon="0.5719">
        <ele>93.098856</ele>
        <time>2022-12-29T12:42:30.919Z</time>
      </trkpt>
      <trkpt lat="44.20986" lon="0.57201">
        <ele>93.110809</ele>
        <time>2022-12-29T12:42:32.920Z</time>
      </trkpt>
      <trkpt lat="44.20981" lon="0.57212">
        <ele>93.122616</ele>
        <time>2022-12-29T12:42:34.920Z</time>
      </trkpt>
      <trkpt lat="44.20974" lon="0.57225">
        <ele>93.137287</ele>
        <time>2022-12-29T12:42:37.919Z</time>
      </trkpt>
      <trkpt lat="44.20968" lon="0.57238">
        <ele>93.150939</ele>
        <time>2022-12-29T12:42:40.918Z</time>
      </trkpt>
      <trkpt lat="44.20962" lon="0.5725">
        <ele>93.164301</ele>
        <time>2022-12-29T12:42:43.919Z</time>
      </trkpt>
      <trkpt lat="44.20955" lon="0.57266">
        <ele>93.180544</ele>
        <time>2022-12-29T12:42:46.918Z</time>
      </trkpt>
      <trkpt lat="44.20948" lon="0.57281">
        <ele>93.196788</ele>
        <time>2022-12-29T12:42:49.918Z</time>
      </trkpt>
      <trkpt lat="44.20943" lon="0.57296">
        <ele>93.112775</ele>
        <time>2022-12-29T12:42:52.918Z</time>
      </trkpt>
      <trkpt lat="44.20936" lon="0.5731">
        <ele>93</ele>
        <time>2022-12-29T12:42:55.918Z</time>
      </trkpt>
      <trkpt lat="44.20929" lon="0.57325">
        <ele>92.887312</ele>
        <time>2022-12-29T12:42:58.917Z</time>
      </trkpt>
      <trkpt lat="44.20922" lon="0.5734">
        <ele>92.774586</ele>
        <time>2022-12-29T12:43:01.918Z</time>
      </trkpt>
      <trkpt lat="44.20916" lon="0.5735">
        <ele>92.691276</ele>
        <time>2022-12-29T12:43:03.920Z</time>
      </trkpt>
      <trkpt lat="44.20909" lon="0.57365">
        <ele>92.570777</ele>
        <time>2022-12-29T12:43:06.927Z</time>
      </trkpt>
      <trkpt lat="44.20903" lon="0.57377">
        <ele>92.481015</ele>
        <time>2022-12-29T12:43:08.922Z</time>
      </trkpt>
      <trkpt lat="44.20896" lon="0.57391">
        <ele>92.368868</ele>
        <time>2022-12-29T12:43:11.919Z</time>
      </trkpt>
      <trkpt lat="44.20889" lon="0.57402">
        <ele>92.274908</ele>
        <time>2022-12-29T12:43:14.918Z</time>
      </trkpt>
      <trkpt lat="44.20884" lon="0.57414">
        <ele>92.18432</ele>
        <time>2022-12-29T12:43:17.923Z</time>
      </trkpt>
      <trkpt lat="44.20878" lon="0.57428">
        <ele>92.079973</ele>
        <time>2022-12-29T12:43:20.918Z</time>
      </trkpt>
      <trkpt lat="44.2087" lon="0.57443">
        <ele>91.961512</ele>
        <time>2022-12-29T12:43:23.917Z</time>
      </trkpt>
      <trkpt lat="44.20863" lon="0.57458">
        <ele>91.841521</ele>
        <time>2022-12-29T12:43:26.917Z</time>
      </trkpt>
      <trkpt lat="44.20856" lon="0.57473">
        <ele>91.725113</ele>
        <time>2022-12-29T12:43:29.904Z</time>
      </trkpt>
      <trkpt lat="44.20849" lon="0.57489">
        <ele>91.608799</ele>
        <time>2022-12-29T12:43:32.898Z</time>
      </trkpt>
      <trkpt lat="44.20844" lon="0.575">
        <ele>91.424821</ele>
        <time>2022-12-29T12:43:34.907Z</time>
      </trkpt>
      <trkpt lat="44.20838" lon="0.5751">
        <ele>91.193161</ele>
        <time>2022-12-29T12:43:36.918Z</time>
      </trkpt>
      <trkpt lat="44.20834" lon="0.57522">
        <ele>90.965223</ele>
        <time>2022-12-29T12:43:38.917Z</time>
      </trkpt>
      <trkpt lat="44.20827" lon="0.57537">
        <ele>90.648476</ele>
        <time>2022-12-29T12:43:41.916Z</time>
      </trkpt>
      <trkpt lat="44.2082" lon="0.57551">
        <ele>90.351394</ele>
        <time>2022-12-29T12:43:44.982Z</time>
      </trkpt>
      <trkpt lat="44.20817" lon="0.57567">
        <ele>90.057423</ele>
        <time>2022-12-29T12:43:47.918Z</time>
      </trkpt>
      <trkpt lat="44.20813" lon="0.57581">
        <ele>89.808867</ele>
        <time>2022-12-29T12:43:49.935Z</time>
      </trkpt>
      <trkpt lat="44.2081" lon="0.57593">
        <ele>89.583337</ele>
        <time>2022-12-29T12:43:51.921Z</time>
      </trkpt>
      <trkpt lat="44.20807" lon="0.57605">
        <ele>89.357677</ele>
        <time>2022-12-29T12:43:53.918Z</time>
      </trkpt>
      <trkpt lat="44.20803" lon="0.57619">
        <ele>89.103168</ele>
        <time>2022-12-29T12:43:55.919Z</time>
      </trkpt>
      <trkpt lat="44.20798" lon="0.57633">
        <ele>88.827008</ele>
        <time>2022-12-29T12:43:57.910Z</time>
      </trkpt>
      <trkpt lat="44.20793" lon="0.57647">
        <ele>88.545066</ele>
        <time>2022-12-29T12:43:59.918Z</time>
      </trkpt>
      <trkpt lat="44.20787" lon="0.57662">
        <ele>88.252308</ele>
        <time>2022-12-29T12:44:01.918Z</time>
      </trkpt>
      <trkpt lat="44.2078" lon="0.57676">
        <ele>87.946623</ele>
        <time>2022-12-29T12:44:03.905Z</time>
      </trkpt>
      <trkpt lat="44.20773" lon="0.57691">
        <ele>87.645275</ele>
        <time>2022-12-29T12:44:05.916Z</time>
      </trkpt>
      <trkpt lat="44.20766" lon="0.57706">
        <ele>87.333258</ele>
        <time>2022-12-29T12:44:07.918Z</time>
      </trkpt>
      <trkpt lat="44.20759" lon="0.57717">
        <ele>87.391421</ele>
        <time>2022-12-29T12:44:09.903Z</time>
      </trkpt>
      <trkpt lat="44.20754" lon="0.57728">
        <ele>87.741152</ele>
        <time>2022-12-29T12:44:11.932Z</time>
      </trkpt>
      <trkpt lat="44.20747" lon="0.57741">
        <ele>88.189482</ele>
        <time>2022-12-29T12:44:14.998Z</time>
      </trkpt>
      <trkpt lat="44.2074" lon="0.57751">
        <ele>88.605609</ele>
        <time>2022-12-29T12:44:17.899Z</time>
      </trkpt>
      <trkpt lat="44.20731" lon="0.57763">
        <ele>89.074135</ele>
        <time>2022-12-29T12:44:21.916Z</time>
      </trkpt>
      <trkpt lat="44.20724" lon="0.57772">
        <ele>89.440444</ele>
        <time>2022-12-29T12:44:24.917Z</time>
      </trkpt>
      <trkpt lat="44.20716" lon="0.57782">
        <ele>89.841436</ele>
        <time>2022-12-29T12:44:27.921Z</time>
      </trkpt>
      <trkpt lat="44.20707" lon="0.57792">
        <ele>90.286263</ele>
        <time>2022-12-29T12:44:31.915Z</time>
      </trkpt>
      <trkpt lat="44.20701" lon="0.57802">
        <ele>90.655039</ele>
        <time>2022-12-29T12:44:35.917Z</time>
      </trkpt>
      <trkpt lat="44.20694" lon="0.57812">
        <ele>91.019835</ele>
        <time>2022-12-29T12:44:39.918Z</time>
      </trkpt>
      <trkpt lat="44.20688" lon="0.57823">
        <ele>91.414285</ele>
        <time>2022-12-29T12:44:43.979Z</time>
      </trkpt>
      <trkpt lat="44.20683" lon="0.57834">
        <ele>91.770743</ele>
        <time>2022-12-29T12:44:46.916Z</time>
      </trkpt>
      <trkpt lat="44.20678" lon="0.57846">
        <ele>92.158854</ele>
        <time>2022-12-29T12:44:49.936Z</time>
      </trkpt>
      <trkpt lat="44.20671" lon="0.57857">
        <ele>92.555772</ele>
        <time>2022-12-29T12:44:52.920Z</time>
      </trkpt>
      <trkpt lat="44.20666" lon="0.57869">
        <ele>92.946778</ele>
        <time>2022-12-29T12:44:55.965Z</time>
      </trkpt>
      <trkpt lat="44.2066" lon="0.57883">
        <ele>93.371699</ele>
        <time>2022-12-29T12:44:59.916Z</time>
      </trkpt>
      <trkpt lat="44.20655" lon="0.57895">
        <ele>93.773783</ele>
        <time>2022-12-29T12:45:04.916Z</time>
      </trkpt>
      <trkpt lat="44.2065" lon="0.57908">
        <ele>94.10884</ele>
        <time>2022-12-29T12:45:08.917Z</time>
      </trkpt>
      <trkpt lat="44.20644" lon="0.57919">
        <ele>94.086515</ele>
        <time>2022-12-29T12:45:11.918Z</time>
      </trkpt>
      <trkpt lat="44.20637" lon="0.57934">
        <ele>94.05679</ele>
        <time>2022-12-29T12:45:15.916Z</time>
      </trkpt>
      <trkpt lat="44.20632" lon="0.57948">
        <ele>94.029932</ele>
        <time>2022-12-29T12:45:18.916Z</time>
      </trkpt>
      <trkpt lat="44.20626" lon="0.57962">
        <ele>94.002214</ele>
        <time>2022-12-29T12:45:21.919Z</time>
      </trkpt>
      <trkpt lat="44.20619" lon="0.57976">
        <ele>93.974085</ele>
        <time>2022-12-29T12:45:24.968Z</time>
      </trkpt>
      <trkpt lat="44.20613" lon="0.5799">
        <ele>93.946964</ele>
        <time>2022-12-29T12:45:27.914Z</time>
      </trkpt>
      <trkpt lat="44.20605" lon="0.58004">
        <ele>93.917529</ele>
        <time>2022-12-29T12:45:30.980Z</time>
      </trkpt>
      <trkpt lat="44.20598" lon="0.58018">
        <ele>93.887411</ele>
        <time>2022-12-29T12:45:33.919Z</time>
      </trkpt>
      <trkpt lat="44.20591" lon="0.58032">
        <ele>93.858106</ele>
        <time>2022-12-29T12:45:36.994Z</time>
      </trkpt>
      <trkpt lat="44.20583" lon="0.58047">
        <ele>93.828399</ele>
        <time>2022-12-29T12:45:39.918Z</time>
      </trkpt>
      <trkpt lat="44.20576" lon="0.58061">
        <ele>93.79896</ele>
        <time>2022-12-29T12:45:42.974Z</time>
      </trkpt>
      <trkpt lat="44.20569" lon="0.58076">
        <ele>93.767674</ele>
        <time>2022-12-29T12:45:45.921Z</time>
      </trkpt>
      <trkpt lat="44.20563" lon="0.58087">
        <ele>93.746317</ele>
        <time>2022-12-29T12:45:47.919Z</time>
      </trkpt>
      <trkpt lat="44.20559" lon="0.58098">
        <ele>93.724952</ele>
        <time>2022-12-29T12:45:49.930Z</time>
      </trkpt>
      <trkpt lat="44.20553" lon="0.5811">
        <ele>93.700834</ele>
        <time>2022-12-29T12:45:51.918Z</time>
      </trkpt>
      <trkpt lat="44.20547" lon="0.58125">
        <ele>93.653343</ele>
        <time>2022-12-29T12:45:54.975Z</time>
      </trkpt>
      <trkpt lat="44.20539" lon="0.58139">
        <ele>93.60087</ele>
        <time>2022-12-29T12:45:57.916Z</time>
      </trkpt>
      <trkpt lat="44.20533" lon="0.58151">
        <ele>93.554641</ele>
        <time>2022-12-29T12:46:00.970Z</time>
      </trkpt>
      <trkpt lat="44.20526" lon="0.58164">
        <ele>93.507164</ele>
        <time>2022-12-29T12:46:03.919Z</time>
      </trkpt>
      <trkpt lat="44.2052" lon="0.58179">
        <ele>93.452776</ele>
        <time>2022-12-29T12:46:06.971Z</time>
      </trkpt>
      <trkpt lat="44.20513" lon="0.58193">
        <ele>93.402226</ele>
        <time>2022-12-29T12:46:09.918Z</time>
      </trkpt>
      <trkpt lat="44.20506" lon="0.58208">
        <ele>93.346977</ele>
        <time>2022-12-29T12:46:12.992Z</time>
      </trkpt>
      <trkpt lat="44.20501" lon="0.5822">
        <ele>93.304191</ele>
        <time>2022-12-29T12:46:14.917Z</time>
      </trkpt>
      <trkpt lat="44.20493" lon="0.58235">
        <ele>93.24749</ele>
        <time>2022-12-29T12:46:17.914Z</time>
      </trkpt>
      <trkpt lat="44.20488" lon="0.58245">
        <ele>93.208219</ele>
        <time>2022-12-29T12:46:19.915Z</time>
      </trkpt>
      <trkpt lat="44.20481" lon="0.58258">
        <ele>93.158751</ele>
        <time>2022-12-29T12:46:22.923Z</time>
      </trkpt>
      <trkpt lat="44.20474" lon="0.58274">
        <ele>93.103036</ele>
        <time>2022-12-29T12:46:25.919Z</time>
      </trkpt>
      <trkpt lat="44.20465" lon="0.58289">
        <ele>93.04281</ele>
        <time>2022-12-29T12:46:28.930Z</time>
      </trkpt>
      <trkpt lat="44.20459" lon="0.58301">
        <ele>92.999549</ele>
        <time>2022-12-29T12:46:30.991Z</time>
      </trkpt>
      <trkpt lat="44.20455" lon="0.58312">
        <ele>92.9588</ele>
        <time>2022-12-29T12:46:32.915Z</time>
      </trkpt>
      <trkpt lat="44.20449" lon="0.58324">
        <ele>92.907814</ele>
        <time>2022-12-29T12:46:34.902Z</time>
      </trkpt>
      <trkpt lat="44.20445" lon="0.58336">
        <ele>92.808861</ele>
        <time>2022-12-29T12:46:36.970Z</time>
      </trkpt>
      <trkpt lat="44.20437" lon="0.5835">
        <ele>92.679469</ele>
        <time>2022-12-29T12:46:39.920Z</time>
      </trkpt>
      <trkpt lat="44.20432" lon="0.5836">
        <ele>92.587452</ele>
        <time>2022-12-29T12:46:41.926Z</time>
      </trkpt>
      <trkpt lat="44.20425" lon="0.58376">
        <ele>92.455276</ele>
        <time>2022-12-29T12:46:44.919Z</time>
      </trkpt>
      <trkpt lat="44.20419" lon="0.58391">
        <ele>92.323274</ele>
        <time>2022-12-29T12:46:47.919Z</time>
      </trkpt>
      <trkpt lat="44.20413" lon="0.58402">
        <ele>92.231257</ele>
        <time>2022-12-29T12:46:49.925Z</time>
      </trkpt>
      <trkpt lat="44.20406" lon="0.58417">
        <ele>92.097119</ele>
        <time>2022-12-29T12:46:52.918Z</time>
      </trkpt>
      <trkpt lat="44.20399" lon="0.58431">
        <ele>91.970369</ele>
        <time>2022-12-29T12:46:55.903Z</time>
      </trkpt>
      <trkpt lat="44.20393" lon="0.58446">
        <ele>91.842995</ele>
        <time>2022-12-29T12:46:58.917Z</time>
      </trkpt>
      <trkpt lat="44.20387" lon="0.58458">
        <ele>91.742602</ele>
        <time>2022-12-29T12:47:00.917Z</time>
      </trkpt>
      <trkpt lat="44.20381" lon="0.58468">
        <ele>91.647931</ele>
        <time>2022-12-29T12:47:02.916Z</time>
      </trkpt>
      <trkpt lat="44.20376" lon="0.58478">
        <ele>91.555309</ele>
        <time>2022-12-29T12:47:04.919Z</time>
      </trkpt>
      <trkpt lat="44.20369" lon="0.58493">
        <ele>91.422354</ele>
        <time>2022-12-29T12:47:07.919Z</time>
      </trkpt>
      <trkpt lat="44.20363" lon="0.58508">
        <ele>91.295963</ele>
        <time>2022-12-29T12:47:10.921Z</time>
      </trkpt>
      <trkpt lat="44.20357" lon="0.58521">
        <ele>91.187776</ele>
        <time>2022-12-29T12:47:13.918Z</time>
      </trkpt>
      <trkpt lat="44.20354" lon="0.58533">
        <ele>91.090929</ele>
        <time>2022-12-29T12:47:16.968Z</time>
      </trkpt>
      <trkpt lat="44.20354" lon="0.58549">
        <ele>91.018633</ele>
        <time>2022-12-29T12:47:20.917Z</time>
      </trkpt>
      <trkpt lat="44.20354" lon="0.58564">
        <ele>90.94863</ele>
        <time>2022-12-29T12:47:23.903Z</time>
      </trkpt>
      <trkpt lat="44.20357" lon="0.58578">
        <ele>90.882185</ele>
        <time>2022-12-29T12:47:26.921Z</time>
      </trkpt>
      <trkpt lat="44.2036" lon="0.58594">
        <ele>90.805406</ele>
        <time>2022-12-29T12:47:29.917Z</time>
      </trkpt>
      <trkpt lat="44.20363" lon="0.5861">
        <ele>90.730305</ele>
        <time>2022-12-29T12:47:32.917Z</time>
      </trkpt>
      <trkpt lat="44.20366" lon="0.58624">
        <ele>90.661805</ele>
        <time>2022-12-29T12:47:35.902Z</time>
      </trkpt>
      <trkpt lat="44.20371" lon="0.58637">
        <ele>90.596607</ele>
        <time>2022-12-29T12:47:38.919Z</time>
      </trkpt>
      <trkpt lat="44.20374" lon="0.5865">
        <ele>90.531272</ele>
        <time>2022-12-29T12:47:41.918Z</time>
      </trkpt>
      <trkpt lat="44.20376" lon="0.58664">
        <ele>90.466763</ele>
        <time>2022-12-29T12:47:44.906Z</time>
      </trkpt>
      <trkpt lat="44.20378" lon="0.58677">
        <ele>90.404952</ele>
        <time>2022-12-29T12:47:47.915Z</time>
      </trkpt>
      <trkpt lat="44.20382" lon="0.58692">
        <ele>90.33333</ele>
        <time>2022-12-29T12:47:52.993Z</time>
      </trkpt>
      <trkpt lat="44.20385" lon="0.58704">
        <ele>90.273708</ele>
        <time>2022-12-29T12:47:56.933Z</time>
      </trkpt>
      <trkpt lat="44.20387" lon="0.58716">
        <ele>90.215795</ele>
        <time>2022-12-29T12:47:59.901Z</time>
      </trkpt>
      <trkpt lat="44.20391" lon="0.5873">
        <ele>90.148031</ele>
        <time>2022-12-29T12:48:02.913Z</time>
      </trkpt>
      <trkpt lat="44.20395" lon="0.58745">
        <ele>90.075193</ele>
        <time>2022-12-29T12:48:05.902Z</time>
      </trkpt>
      <trkpt lat="44.20398" lon="0.58761">
        <ele>89.998792</ele>
        <time>2022-12-29T12:48:08.919Z</time>
      </trkpt>
      <trkpt lat="44.20401" lon="0.58774">
        <ele>89.941407</ele>
        <time>2022-12-29T12:48:11.918Z</time>
      </trkpt>
      <trkpt lat="44.20405" lon="0.58788">
        <ele>90.420073</ele>
        <time>2022-12-29T12:48:15.918Z</time>
      </trkpt>
      <trkpt lat="44.20409" lon="0.588">
        <ele>90.815314</ele>
        <time>2022-12-29T12:48:18.918Z</time>
      </trkpt>
      <trkpt lat="44.20412" lon="0.58815">
        <ele>91.313352</ele>
        <time>2022-12-29T12:48:21.897Z</time>
      </trkpt>
      <trkpt lat="44.20415" lon="0.58832">
        <ele>91.831568</ele>
        <time>2022-12-29T12:48:24.919Z</time>
      </trkpt>
      <trkpt lat="44.20417" lon="0.58844">
        <ele>92.225371</ele>
        <time>2022-12-29T12:48:26.919Z</time>
      </trkpt>
      <trkpt lat="44.2042" lon="0.58856">
        <ele>92.61525</ele>
        <time>2022-12-29T12:48:28.967Z</time>
      </trkpt>
      <trkpt lat="44.20425" lon="0.58873">
        <ele>93.183669</ele>
        <time>2022-12-29T12:48:31.932Z</time>
      </trkpt>
      <trkpt lat="44.20429" lon="0.58891">
        <ele>93.778884</ele>
        <time>2022-12-29T12:48:34.905Z</time>
      </trkpt>
      <trkpt lat="44.20434" lon="0.58909">
        <ele>94.358682</ele>
        <time>2022-12-29T12:48:37.916Z</time>
      </trkpt>
      <trkpt lat="44.20439" lon="0.58924">
        <ele>94.863732</ele>
        <time>2022-12-29T12:48:40.916Z</time>
      </trkpt>
      <trkpt lat="44.20442" lon="0.58937">
        <ele>95.291434</ele>
        <time>2022-12-29T12:48:44.917Z</time>
      </trkpt>
      <trkpt lat="44.20447" lon="0.58949">
        <ele>95.725708</ele>
        <time>2022-12-29T12:49:12.919Z</time>
      </trkpt>
      <trkpt lat="44.20449" lon="0.58962">
        <ele>96.145825</ele>
        <time>2022-12-29T12:49:18.917Z</time>
      </trkpt>
      <trkpt lat="44.20453" lon="0.58976">
        <ele>96.594087</ele>
        <time>2022-12-29T12:49:22.916Z</time>
      </trkpt>
      <trkpt lat="44.20456" lon="0.58989">
        <ele>97.030924</ele>
        <time>2022-12-29T12:49:26.915Z</time>
      </trkpt>
      <trkpt lat="44.20458" lon="0.59003">
        <ele>97.457882</ele>
        <time>2022-12-29T12:49:29.901Z</time>
      </trkpt>
      <trkpt lat="44.20461" lon="0.59018">
        <ele>97.641106</ele>
        <time>2022-12-29T12:49:32.964Z</time>
      </trkpt>
      <trkpt lat="44.20463" lon="0.59032">
        <ele>97.549035</ele>
        <time>2022-12-29T12:49:35.920Z</time>
      </trkpt>
      <trkpt lat="44.20467" lon="0.59046">
        <ele>97.454873</ele>
        <time>2022-12-29T12:49:38.916Z</time>
      </trkpt>
      <trkpt lat="44.20472" lon="0.59061">
        <ele>97.34903</ele>
        <time>2022-12-29T12:49:41.934Z</time>
      </trkpt>
      <trkpt lat="44.20475" lon="0.59075">
        <ele>97.255156</ele>
        <time>2022-12-29T12:49:44.918Z</time>
      </trkpt>
      <trkpt lat="44.20477" lon="0.59088">
        <ele>97.174186</ele>
        <time>2022-12-29T12:49:47.917Z</time>
      </trkpt>
      <trkpt lat="44.2048" lon="0.59103">
        <ele>97.074277</ele>
        <time>2022-12-29T12:49:51.921Z</time>
      </trkpt>
      <trkpt lat="44.20483" lon="0.59119">
        <ele>96.965556</ele>
        <time>2022-12-29T12:49:55.972Z</time>
      </trkpt>
      <trkpt lat="44.20486" lon="0.59132">
        <ele>96.882443</ele>
        <time>2022-12-29T12:49:57.923Z</time>
      </trkpt>
      <trkpt lat="44.20489" lon="0.59148">
        <ele>96.775242</ele>
        <time>2022-12-29T12:50:00.921Z</time>
      </trkpt>
      <trkpt lat="44.20492" lon="0.59164">
        <ele>96.670809</ele>
        <time>2022-12-29T12:50:03.916Z</time>
      </trkpt>
      <trkpt lat="44.20495" lon="0.59179">
        <ele>96.572636</ele>
        <time>2022-12-29T12:50:06.921Z</time>
      </trkpt>
      <trkpt lat="44.20498" lon="0.59195">
        <ele>96.467629</ele>
        <time>2022-12-29T12:50:09.917Z</time>
      </trkpt>
      <trkpt lat="44.20501" lon="0.59211">
        <ele>96.363436</ele>
        <time>2022-12-29T12:50:12.917Z</time>
      </trkpt>
      <trkpt lat="44.20503" lon="0.59226">
        <ele>96.264384</ele>
        <time>2022-12-29T12:50:15.916Z</time>
      </trkpt>
      <trkpt lat="44.20508" lon="0.59241">
        <ele>96.163217</ele>
        <time>2022-12-29T12:50:18.917Z</time>
      </trkpt>
      <trkpt lat="44.20513" lon="0.59256">
        <ele>95.904549</ele>
        <time>2022-12-29T12:50:21.915Z</time>
      </trkpt>
      <trkpt lat="44.20517" lon="0.59268">
        <ele>95.550221</ele>
        <time>2022-12-29T12:50:23.916Z</time>
      </trkpt>
      <trkpt lat="44.2052" lon="0.5928">
        <ele>95.199803</ele>
        <time>2022-12-29T12:50:25.914Z</time>
      </trkpt>
      <trkpt lat="44.20523" lon="0.59297">
        <ele>94.687685</ele>
        <time>2022-12-29T12:50:28.898Z</time>
      </trkpt>
      <trkpt lat="44.20525" lon="0.59311">
        <ele>94.2927</ele>
        <time>2022-12-29T12:50:30.963Z</time>
      </trkpt>
      <trkpt lat="44.20529" lon="0.59329">
        <ele>93.768112</ele>
        <time>2022-12-29T12:50:33.919Z</time>
      </trkpt>
      <trkpt lat="44.20534" lon="0.59345">
        <ele>93.284868</ele>
        <time>2022-12-29T12:50:36.979Z</time>
      </trkpt>
      <trkpt lat="44.20536" lon="0.59358">
        <ele>92.921447</ele>
        <time>2022-12-29T12:50:39.918Z</time>
      </trkpt>
      <trkpt lat="44.20538" lon="0.59372">
        <ele>92.513959</ele>
        <time>2022-12-29T12:50:42.976Z</time>
      </trkpt>
      <trkpt lat="44.20542" lon="0.59388">
        <ele>92.064158</ele>
        <time>2022-12-29T12:50:45.918Z</time>
      </trkpt>
      <trkpt lat="44.20547" lon="0.59405">
        <ele>91.559257</ele>
        <time>2022-12-29T12:50:48.995Z</time>
      </trkpt>
      <trkpt lat="44.20551" lon="0.59421">
        <ele>91.056806</ele>
        <time>2022-12-29T12:50:51.925Z</time>
      </trkpt>
      <trkpt lat="44.20555" lon="0.59439">
        <ele>90.554192</ele>
        <time>2022-12-29T12:50:54.935Z</time>
      </trkpt>
      <trkpt lat="44.20559" lon="0.59455">
        <ele>90.062427</ele>
        <time>2022-12-29T12:50:57.919Z</time>
      </trkpt>
      <trkpt lat="44.20564" lon="0.59473">
        <ele>89.536218</ele>
        <time>2022-12-29T12:51:00.929Z</time>
      </trkpt>
      <trkpt lat="44.20565" lon="0.59486">
        <ele>89.175532</ele>
        <time>2022-12-29T12:51:02.921Z</time>
      </trkpt>
      <trkpt lat="44.2057" lon="0.59503">
        <ele>89.138908</ele>
        <time>2022-12-29T12:51:05.970Z</time>
      </trkpt>
      <trkpt lat="44.20572" lon="0.59516">
        <ele>89.166005</ele>
        <time>2022-12-29T12:51:07.920Z</time>
      </trkpt>
      <trkpt lat="44.20576" lon="0.59527">
        <ele>89.192316</ele>
        <time>2022-12-29T12:51:09.917Z</time>
      </trkpt>
      <trkpt lat="44.2058" lon="0.59544">
        <ele>89.228633</ele>
        <time>2022-12-29T12:51:12.904Z</time>
      </trkpt>
      <trkpt lat="44.20583" lon="0.59556">
        <ele>89.254343</ele>
        <time>2022-12-29T12:51:14.931Z</time>
      </trkpt>
      <trkpt lat="44.20586" lon="0.59572">
        <ele>89.288646</ele>
        <time>2022-12-29T12:51:17.911Z</time>
      </trkpt>
      <trkpt lat="44.2059" lon="0.59586">
        <ele>89.31969</ele>
        <time>2022-12-29T12:51:20.919Z</time>
      </trkpt>
      <trkpt lat="44.20593" lon="0.59599">
        <ele>89.347618</ele>
        <time>2022-12-29T12:51:23.979Z</time>
      </trkpt>
      <trkpt lat="44.20596" lon="0.59613">
        <ele>89.376365</ele>
        <time>2022-12-29T12:51:26.917Z</time>
      </trkpt>
      <trkpt lat="44.20599" lon="0.59627">
        <ele>89.407183</ele>
        <time>2022-12-29T12:51:29.983Z</time>
      </trkpt>
      <trkpt lat="44.206" lon="0.59642">
        <ele>89.437747</ele>
        <time>2022-12-29T12:51:33.895Z</time>
      </trkpt>
      <trkpt lat="44.20601" lon="0.59655">
        <ele>89.464031</ele>
        <time>2022-12-29T12:51:37.907Z</time>
      </trkpt>
      <trkpt lat="44.20604" lon="0.5967">
        <ele>89.49633</ele>
        <time>2022-12-29T12:51:41.906Z</time>
      </trkpt>
      <trkpt lat="44.20605" lon="0.59683">
        <ele>89.522774</ele>
        <time>2022-12-29T12:51:44.893Z</time>
      </trkpt>
      <trkpt lat="44.20606" lon="0.59696">
        <ele>89.549421</ele>
        <time>2022-12-29T12:51:47.893Z</time>
      </trkpt>
      <trkpt lat="44.20608" lon="0.5971">
        <ele>89.578298</ele>
        <time>2022-12-29T12:51:50.899Z</time>
      </trkpt>
      <trkpt lat="44.20611" lon="0.59723">
        <ele>89.606624</ele>
        <time>2022-12-29T12:51:53.899Z</time>
      </trkpt>
      <trkpt lat="44.20614" lon="0.59737">
        <ele>89.648409</ele>
        <time>2022-12-29T12:51:56.904Z</time>
      </trkpt>
      <trkpt lat="44.20617" lon="0.59751">
        <ele>89.700903</ele>
        <time>2022-12-29T12:51:59.906Z</time>
      </trkpt>
      <trkpt lat="44.20619" lon="0.59765">
        <ele>89.752975</ele>
        <time>2022-12-29T12:52:02.910Z</time>
      </trkpt>
      <trkpt lat="44.20624" lon="0.59779">
        <ele>89.8082</ele>
        <time>2022-12-29T12:52:05.911Z</time>
      </trkpt>
      <trkpt lat="44.20628" lon="0.59794">
        <ele>89.865559</ele>
        <time>2022-12-29T12:52:08.921Z</time>
      </trkpt>
      <trkpt lat="44.20632" lon="0.59809">
        <ele>89.922909</ele>
        <time>2022-12-29T12:52:11.910Z</time>
      </trkpt>
      <trkpt lat="44.20636" lon="0.59825">
        <ele>89.982435</ele>
        <time>2022-12-29T12:52:14.920Z</time>
      </trkpt>
      <trkpt lat="44.20639" lon="0.5984">
        <ele>90.038426</ele>
        <time>2022-12-29T12:52:17.902Z</time>
      </trkpt>
      <trkpt lat="44.20642" lon="0.59853">
        <ele>90.086227</ele>
        <time>2022-12-29T12:52:20.911Z</time>
      </trkpt>
      <trkpt lat="44.20645" lon="0.59865">
        <ele>90.133952</ele>
        <time>2022-12-29T12:52:23.904Z</time>
      </trkpt>
      <trkpt lat="44.20649" lon="0.59881">
        <ele>90.191488</ele>
        <time>2022-12-29T12:52:26.908Z</time>
      </trkpt>
      <trkpt lat="44.20652" lon="0.59897">
        <ele>90.252935</ele>
        <time>2022-12-29T12:52:29.900Z</time>
      </trkpt>
      <trkpt lat="44.20656" lon="0.59913">
        <ele>90.313505</ele>
        <time>2022-12-29T12:52:32.907Z</time>
      </trkpt>
      <trkpt lat="44.20659" lon="0.59929">
        <ele>90.372408</ele>
        <time>2022-12-29T12:52:35.903Z</time>
      </trkpt>
      <trkpt lat="44.20662" lon="0.59944">
        <ele>90.427446</ele>
        <time>2022-12-29T12:52:38.920Z</time>
      </trkpt>
      <trkpt lat="44.20665" lon="0.59956">
        <ele>90.475011</ele>
        <time>2022-12-29T12:52:41.920Z</time>
      </trkpt>
      <trkpt lat="44.20669" lon="0.59971">
        <ele>90.535431</ele>
        <time>2022-12-29T12:52:45.951Z</time>
      </trkpt>
      <trkpt lat="44.20672" lon="0.59984">
        <ele>90.614174</ele>
        <time>2022-12-29T12:52:49.921Z</time>
      </trkpt>
      <trkpt lat="44.20676" lon="0.59999">
        <ele>90.694948</ele>
        <time>2022-12-29T12:52:53.897Z</time>
      </trkpt>
      <trkpt lat="44.20683" lon="0.60008">
        <ele>90.76698</ele>
        <time>2022-12-29T12:52:58.917Z</time>
      </trkpt>
      <trkpt lat="44.2069" lon="0.60017">
        <ele>90.843424</ele>
        <time>2022-12-29T12:53:04.898Z</time>
      </trkpt>
      <trkpt lat="44.20697" lon="0.6003">
        <ele>90.927215</ele>
        <time>2022-12-29T12:53:09.901Z</time>
      </trkpt>
      <trkpt lat="44.20696" lon="0.60045">
        <ele>91.007139</ele>
        <time>2022-12-29T12:53:14.970Z</time>
      </trkpt>
      <trkpt lat="44.2069" lon="0.60057">
        <ele>91.086982</ele>
        <time>2022-12-29T12:53:19.918Z</time>
      </trkpt>
      <trkpt lat="44.20684" lon="0.60067">
        <ele>91.157023</ele>
        <time>2022-12-29T12:53:24.918Z</time>
      </trkpt>
      <trkpt lat="44.20686" lon="0.6008">
        <ele>91.229467</ele>
        <time>2022-12-29T12:53:38.901Z</time>
      </trkpt>
      <trkpt lat="44.20689" lon="0.60094">
        <ele>91.308394</ele>
        <time>2022-12-29T12:53:42.919Z</time>
      </trkpt>
      <trkpt lat="44.20691" lon="0.6011">
        <ele>91.397274</ele>
        <time>2022-12-29T12:53:46.919Z</time>
      </trkpt>
      <trkpt lat="44.20696" lon="0.60123">
        <ele>91.475846</ele>
        <time>2022-12-29T12:53:50.906Z</time>
      </trkpt>
      <trkpt lat="44.20702" lon="0.60135">
        <ele>91.553165</ele>
        <time>2022-12-29T12:53:54.900Z</time>
      </trkpt>
      <trkpt lat="44.20707" lon="0.60145">
        <ele>91.622534</ele>
        <time>2022-12-29T12:53:57.924Z</time>
      </trkpt>
      <trkpt lat="44.20712" lon="0.60158">
        <ele>91.697201</ele>
        <time>2022-12-29T12:54:01.921Z</time>
      </trkpt>
      <trkpt lat="44.20716" lon="0.60171">
        <ele>91.773485</ele>
        <time>2022-12-29T12:54:06.982Z</time>
      </trkpt>
      <trkpt lat="44.20719" lon="0.60183">
        <ele>91.84664</ele>
        <time>2022-12-29T12:54:10.926Z</time>
      </trkpt>
      <trkpt lat="44.20721" lon="0.60198">
        <ele>91.805106</ele>
        <time>2022-12-29T12:54:14.920Z</time>
      </trkpt>
      <trkpt lat="44.20721" lon="0.60211">
        <ele>91.715356</ele>
        <time>2022-12-29T12:54:18.972Z</time>
      </trkpt>
      <trkpt lat="44.20721" lon="0.60224">
        <ele>91.625374</ele>
        <time>2022-12-29T12:54:23.923Z</time>
      </trkpt>
      <trkpt lat="44.20721" lon="0.60237">
        <ele>91.536978</ele>
        <time>2022-12-29T12:54:41.918Z</time>
      </trkpt>
      <trkpt lat="44.20722" lon="0.60251">
        <ele>91.439182</ele>
        <time>2022-12-29T12:54:49.923Z</time>
      </trkpt>
      <trkpt lat="44.20724" lon="0.60264">
        <ele>91.343545</ele>
        <time>2022-12-29T12:54:56.923Z</time>
      </trkpt>
      <trkpt lat="44.20727" lon="0.60277">
        <ele>91.252901</ele>
        <time>2022-12-29T12:55:03.921Z</time>
      </trkpt>
      <trkpt lat="44.2073" lon="0.60289">
        <ele>91.162791</ele>
        <time>2022-12-29T12:55:10.929Z</time>
      </trkpt>
      <trkpt lat="44.20732" lon="0.60302">
        <ele>91.068438</ele>
        <time>2022-12-29T12:55:17.974Z</time>
      </trkpt>
      <trkpt lat="44.20736" lon="0.60314">
        <ele>90.980066</ele>
        <time>2022-12-29T12:55:24.905Z</time>
      </trkpt>
      <trkpt lat="44.20739" lon="0.60327">
        <ele>90.887465</ele>
        <time>2022-12-29T12:55:31.930Z</time>
      </trkpt>
      <trkpt lat="44.20742" lon="0.6034">
        <ele>90.791886</ele>
        <time>2022-12-29T12:55:38.926Z</time>
      </trkpt>
      <trkpt lat="44.20745" lon="0.60353">
        <ele>90.697253</ele>
        <time>2022-12-29T12:55:45.933Z</time>
      </trkpt>
      <trkpt lat="44.20747" lon="0.60367">
        <ele>90.599435</ele>
        <time>2022-12-29T12:55:52.921Z</time>
      </trkpt>
      <trkpt lat="44.2075" lon="0.60381">
        <ele>90.5007</ele>
        <time>2022-12-29T12:55:59.939Z</time>
      </trkpt>
      <trkpt lat="44.20753" lon="0.60395">
        <ele>90.402198</ele>
        <time>2022-12-29T12:56:06.927Z</time>
      </trkpt>
      <trkpt lat="44.20756" lon="0.60408">
        <ele>90.304354</ele>
        <time>2022-12-29T12:56:13.920Z</time>
      </trkpt>
      <trkpt lat="44.20759" lon="0.60421">
        <ele>90.212059</ele>
        <time>2022-12-29T12:56:20.930Z</time>
      </trkpt>
      <trkpt lat="44.20762" lon="0.60434">
        <ele>90.169577</ele>
        <time>2022-12-29T12:56:27.915Z</time>
      </trkpt>
      <trkpt lat="44.20765" lon="0.60447">
        <ele>90.275036</ele>
        <time>2022-12-29T12:56:34.974Z</time>
      </trkpt>
      <trkpt lat="44.20769" lon="0.60461">
        <ele>90.379781</ele>
        <time>2022-12-29T12:56:41.926Z</time>
      </trkpt>
      <trkpt lat="44.20772" lon="0.60474">
        <ele>90.48451</ele>
        <time>2022-12-29T12:56:48.920Z</time>
      </trkpt>
      <trkpt lat="44.20774" lon="0.60487">
        <ele>90.587867</ele>
        <time>2022-12-29T12:56:55.918Z</time>
      </trkpt>
      <trkpt lat="44.20778" lon="0.60501">
        <ele>90.698012</ele>
        <time>2022-12-29T12:57:02.917Z</time>
      </trkpt>
      <trkpt lat="44.20781" lon="0.60514">
        <ele>90.804572</ele>
        <time>2022-12-29T12:57:09.988Z</time>
      </trkpt>
      <trkpt lat="44.20784" lon="0.60528">
        <ele>90.909301</ele>
        <time>2022-12-29T12:57:16.929Z</time>
      </trkpt>
      <trkpt lat="44.20787" lon="0.60541">
        <ele>91.0135</ele>
        <time>2022-12-29T12:57:23.926Z</time>
      </trkpt>
      <trkpt lat="44.2079" lon="0.60554">
        <ele>91.12177</ele>
        <time>2022-12-29T12:57:30.923Z</time>
      </trkpt>
      <trkpt lat="44.20793" lon="0.60567">
        <ele>91.225092</ele>
        <time>2022-12-29T12:57:37.924Z</time>
      </trkpt>
      <trkpt lat="44.20797" lon="0.60581">
        <ele>91.329821</ele>
        <time>2022-12-29T12:57:44.934Z</time>
      </trkpt>
      <trkpt lat="44.20799" lon="0.60594">
        <ele>91.437079</ele>
        <time>2022-12-29T12:57:51.966Z</time>
      </trkpt>
      <trkpt lat="44.20803" lon="0.60608">
        <ele>91.546434</ele>
        <time>2022-12-29T12:57:58.927Z</time>
      </trkpt>
      <trkpt lat="44.20805" lon="0.6062">
        <ele>91.642829</ele>
        <time>2022-12-29T12:58:04.924Z</time>
      </trkpt>
      <trkpt lat="44.20809" lon="0.60634">
        <ele>91.750758</ele>
        <time>2022-12-29T12:58:11.917Z</time>
      </trkpt>
      <trkpt lat="44.20811" lon="0.60648">
        <ele>91.857845</ele>
        <time>2022-12-29T12:58:18.922Z</time>
      </trkpt>
      <trkpt lat="44.20814" lon="0.6066">
        <ele>91.95208</ele>
        <time>2022-12-29T12:58:24.924Z</time>
      </trkpt>
      <trkpt lat="44.20817" lon="0.60674">
        <ele>92.041986</ele>
        <time>2022-12-29T12:58:31.921Z</time>
      </trkpt>
      <trkpt lat="44.2082" lon="0.60687">
        <ele>92.08766</ele>
        <time>2022-12-29T12:58:38.971Z</time>
      </trkpt>
      <trkpt lat="44.20824" lon="0.60701">
        <ele>92.133578</ele>
        <time>2022-12-29T12:58:45.926Z</time>
      </trkpt>
      <trkpt lat="44.20827" lon="0.60715">
        <ele>92.179002</ele>
        <time>2022-12-29T12:58:52.922Z</time>
      </trkpt>
      <trkpt lat="44.2083" lon="0.60728">
        <ele>92.223734</ele>
        <time>2022-12-29T12:58:59.926Z</time>
      </trkpt>
      <trkpt lat="44.20833" lon="0.6074">
        <ele>92.264142</ele>
        <time>2022-12-29T12:59:05.980Z</time>
      </trkpt>
      <trkpt lat="44.20836" lon="0.60754">
        <ele>92.309018</ele>
        <time>2022-12-29T12:59:12.922Z</time>
      </trkpt>
      <trkpt lat="44.2084" lon="0.60767">
        <ele>92.352851</ele>
        <time>2022-12-29T12:59:19.907Z</time>
      </trkpt>
      <trkpt lat="44.20844" lon="0.60779">
        <ele>92.396611</ele>
        <time>2022-12-29T12:59:26.935Z</time>
      </trkpt>
      <trkpt lat="44.20847" lon="0.60793">
        <ele>92.441345</ele>
        <time>2022-12-29T12:59:33.931Z</time>
      </trkpt>
      <trkpt lat="44.2085" lon="0.60807">
        <ele>92.487018</ele>
        <time>2022-12-29T12:59:40.914Z</time>
      </trkpt>
      <trkpt lat="44.20853" lon="0.6082">
        <ele>92.532443</ele>
        <time>2022-12-29T12:59:47.920Z</time>
      </trkpt>
      <trkpt lat="44.20856" lon="0.60834">
        <ele>92.577341</ele>
        <time>2022-12-29T12:59:54.903Z</time>
      </trkpt>
      <trkpt lat="44.20859" lon="0.60847">
        <ele>92.621977</ele>
        <time>2022-12-29T13:00:01.913Z</time>
      </trkpt>
      <trkpt lat="44.20861" lon="0.60859">
        <ele>92.662114</ele>
        <time>2022-12-29T13:00:07.919Z</time>
      </trkpt>
      <trkpt lat="44.20864" lon="0.60873">
        <ele>92.708031</ele>
        <time>2022-12-29T13:00:14.932Z</time>
      </trkpt>
      <trkpt lat="44.20867" lon="0.60887">
        <ele>92.753231</ele>
        <time>2022-12-29T13:00:21.906Z</time>
      </trkpt>
      <trkpt lat="44.2087" lon="0.609">
        <ele>92.797209</ele>
        <time>2022-12-29T13:00:28.913Z</time>
      </trkpt>
      <trkpt lat="44.20879" lon="0.60923">
        <ele>93.055859</ele>
        <time>2022-12-29T13:01:04.923Z</time>
      </trkpt>
      <trkpt lat="44.20883" lon="0.60935">
        <ele>93.224984</ele>
        <time>2022-12-29T13:01:08.907Z</time>
      </trkpt>
      <trkpt lat="44.20887" lon="0.60949">
        <ele>93.415957</ele>
        <time>2022-12-29T13:01:12.929Z</time>
      </trkpt>
      <trkpt lat="44.20891" lon="0.60963">
        <ele>93.61112</ele>
        <time>2022-12-29T13:01:16.922Z</time>
      </trkpt>
      <trkpt lat="44.20894" lon="0.60977">
        <ele>93.801462</ele>
        <time>2022-12-29T13:01:21.932Z</time>
      </trkpt>
      <trkpt lat="44.20897" lon="0.6099">
        <ele>93.967128</ele>
        <time>2022-12-29T13:01:25.919Z</time>
      </trkpt>
      <trkpt lat="44.209" lon="0.61005">
        <ele>94.165572</ele>
        <time>2022-12-29T13:01:29.930Z</time>
      </trkpt>
      <trkpt lat="44.20903" lon="0.61018">
        <ele>94.346326</ele>
        <time>2022-12-29T13:01:33.918Z</time>
      </trkpt>
      <trkpt lat="44.20908" lon="0.6103">
        <ele>94.524421</ele>
        <time>2022-12-29T13:01:38.920Z</time>
      </trkpt>
      <trkpt lat="44.20912" lon="0.61043">
        <ele>94.70839</ele>
        <time>2022-12-29T13:01:43.932Z</time>
      </trkpt>
      <trkpt lat="44.20916" lon="0.61055">
        <ele>94.878665</ele>
        <time>2022-12-29T13:01:48.994Z</time>
      </trkpt>
      <trkpt lat="44.20919" lon="0.61069">
        <ele>95.062366</ele>
        <time>2022-12-29T13:01:53.928Z</time>
      </trkpt>
      <trkpt lat="44.20924" lon="0.61083">
        <ele>95.2589</ele>
        <time>2022-12-29T13:01:58.922Z</time>
      </trkpt>
      <trkpt lat="44.20928" lon="0.61095">
        <ele>95.435564</ele>
        <time>2022-12-29T13:02:03.921Z</time>
      </trkpt>
      <trkpt lat="44.20931" lon="0.61108">
        <ele>95.604793</ele>
        <time>2022-12-29T13:02:09.906Z</time>
      </trkpt>
      <trkpt lat="44.20928" lon="0.6112">
        <ele>95.777668</ele>
        <time>2022-12-29T13:02:16.932Z</time>
      </trkpt>
      <trkpt lat="44.20918" lon="0.61127">
        <ele>95.987695</ele>
        <time>2022-12-29T13:02:21.930Z</time>
      </trkpt>
      <trkpt lat="44.20906" lon="0.61131">
        <ele>95.779809</ele>
        <time>2022-12-29T13:02:25.929Z</time>
      </trkpt>
      <trkpt lat="44.20897" lon="0.61134">
        <ele>95.471749</ele>
        <time>2022-12-29T13:02:28.921Z</time>
      </trkpt>
      <trkpt lat="44.20885" lon="0.61135">
        <ele>95.086461</ele>
        <time>2022-12-29T13:02:31.931Z</time>
      </trkpt>
      <trkpt lat="44.20876" lon="0.61135">
        <ele>94.797088</ele>
        <time>2022-12-29T13:02:33.924Z</time>
      </trkpt>
      <trkpt lat="44.20866" lon="0.61135">
        <ele>94.479333</ele>
        <time>2022-12-29T13:02:35.988Z</time>
      </trkpt>
      <trkpt lat="44.20855" lon="0.61136">
        <ele>94.14233</ele>
        <time>2022-12-29T13:02:37.917Z</time>
      </trkpt>
      <trkpt lat="44.20846" lon="0.61136">
        <ele>93.840256</ele>
        <time>2022-12-29T13:02:39.933Z</time>
      </trkpt>
      <trkpt lat="44.20836" lon="0.61138">
        <ele>93.526177</ele>
        <time>2022-12-29T13:02:41.982Z</time>
      </trkpt>
      <trkpt lat="44.20826" lon="0.61139">
        <ele>93.22346</ele>
        <time>2022-12-29T13:02:43.920Z</time>
      </trkpt>
      <trkpt lat="44.20816" lon="0.6114">
        <ele>92.889446</ele>
        <time>2022-12-29T13:02:45.922Z</time>
      </trkpt>
      <trkpt lat="44.20805" lon="0.61141">
        <ele>92.535309</ele>
        <time>2022-12-29T13:02:47.964Z</time>
      </trkpt>
      <trkpt lat="44.20793" lon="0.61142">
        <ele>92.156944</ele>
        <time>2022-12-29T13:02:49.903Z</time>
      </trkpt>
      <trkpt lat="44.2078" lon="0.61142">
        <ele>91.759526</ele>
        <time>2022-12-29T13:02:51.922Z</time>
      </trkpt>
      <trkpt lat="44.20768" lon="0.61144">
        <ele>91.377083</ele>
        <time>2022-12-29T13:02:53.991Z</time>
      </trkpt>
      <trkpt lat="44.20756" lon="0.61145">
        <ele>90.994809</ele>
        <time>2022-12-29T13:02:55.925Z</time>
      </trkpt>
      <trkpt lat="44.20743" lon="0.61146">
        <ele>90.584284</ele>
        <time>2022-12-29T13:02:57.928Z</time>
      </trkpt>
      <trkpt lat="44.2073" lon="0.61147">
        <ele>90.415928</ele>
        <time>2022-12-29T13:02:59.905Z</time>
      </trkpt>
      <trkpt lat="44.20718" lon="0.61148">
        <ele>90.636807</ele>
        <time>2022-12-29T13:03:01.931Z</time>
      </trkpt>
      <trkpt lat="44.20706" lon="0.61149">
        <ele>90.849173</ele>
        <time>2022-12-29T13:03:03.930Z</time>
      </trkpt>
      <trkpt lat="44.20693" lon="0.6115">
        <ele>91.075289</ele>
        <time>2022-12-29T13:03:05.903Z</time>
      </trkpt>
      <trkpt lat="44.2068" lon="0.6115">
        <ele>91.308417</ele>
        <time>2022-12-29T13:03:07.919Z</time>
      </trkpt>
      <trkpt lat="44.20666" lon="0.6115">
        <ele>91.548485</ele>
        <time>2022-12-29T13:03:09.929Z</time>
      </trkpt>
      <trkpt lat="44.20653" lon="0.61151">
        <ele>91.788953</ele>
        <time>2022-12-29T13:03:11.931Z</time>
      </trkpt>
      <trkpt lat="44.2064" lon="0.61152">
        <ele>92.008069</ele>
        <time>2022-12-29T13:03:13.922Z</time>
      </trkpt>
      <trkpt lat="44.20628" lon="0.61153">
        <ele>92.230572</ele>
        <time>2022-12-29T13:03:15.980Z</time>
      </trkpt>
      <trkpt lat="44.20615" lon="0.61153">
        <ele>92.456529</ele>
        <time>2022-12-29T13:03:17.922Z</time>
      </trkpt>
      <trkpt lat="44.20603" lon="0.61153">
        <ele>92.659541</ele>
        <time>2022-12-29T13:03:19.931Z</time>
      </trkpt>
      <trkpt lat="44.20593" lon="0.61153">
        <ele>92.844954</ele>
        <time>2022-12-29T13:03:21.966Z</time>
      </trkpt>
      <trkpt lat="44.20584" lon="0.61154">
        <ele>93.007843</ele>
        <time>2022-12-29T13:03:23.924Z</time>
      </trkpt>
      <trkpt lat="44.20575" lon="0.61156">
        <ele>93.169314</ele>
        <time>2022-12-29T13:03:25.925Z</time>
      </trkpt>
      <trkpt lat="44.20565" lon="0.61159">
        <ele>93.336683</ele>
        <time>2022-12-29T13:03:27.994Z</time>
      </trkpt>
      <trkpt lat="44.20556" lon="0.61161">
        <ele>93.497174</ele>
        <time>2022-12-29T13:03:29.910Z</time>
      </trkpt>
      <trkpt lat="44.20547" lon="0.61162">
        <ele>93.575579</ele>
        <time>2022-12-29T13:03:32.925Z</time>
      </trkpt>
      <trkpt lat="44.20536" lon="0.61161">
        <ele>93.659689</ele>
        <time>2022-12-29T13:03:35.921Z</time>
      </trkpt>
      <trkpt lat="44.20523" lon="0.61163">
        <ele>93.759514</ele>
        <time>2022-12-29T13:03:38.983Z</time>
      </trkpt>
      <trkpt lat="44.20513" lon="0.61163">
        <ele>93.836022</ele>
        <time>2022-12-29T13:03:40.918Z</time>
      </trkpt>
      <trkpt lat="44.20504" lon="0.61165">
        <ele>93.909915</ele>
        <time>2022-12-29T13:03:42.919Z</time>
      </trkpt>
      <trkpt lat="44.2049" lon="0.61165">
        <ele>94.010984</ele>
        <time>2022-12-29T13:03:45.922Z</time>
      </trkpt>
      <trkpt lat="44.20478" lon="0.61166">
        <ele>94.10996</ele>
        <time>2022-12-29T13:03:48.928Z</time>
      </trkpt>
      <trkpt lat="44.20467" lon="0.61166">
        <ele>94.193284</ele>
        <time>2022-12-29T13:03:51.930Z</time>
      </trkpt>
      <trkpt lat="44.20457" lon="0.61166">
        <ele>94.268128</ele>
        <time>2022-12-29T13:03:55.900Z</time>
      </trkpt>
      <trkpt lat="44.20447" lon="0.61165">
        <ele>94.344605</ele>
        <time>2022-12-29T13:04:11.934Z</time>
      </trkpt>
      <trkpt lat="44.20438" lon="0.61166">
        <ele>94.41945</ele>
        <time>2022-12-29T13:04:15.910Z</time>
      </trkpt>
      <trkpt lat="44.20427" lon="0.61166">
        <ele>94.503609</ele>
        <time>2022-12-29T13:04:18.924Z</time>
      </trkpt>
      <trkpt lat="44.20414" lon="0.61169">
        <ele>94.59891</ele>
        <time>2022-12-29T13:04:21.925Z</time>
      </trkpt>
      <trkpt lat="44.20403" lon="0.6117">
        <ele>94.684948</ele>
        <time>2022-12-29T13:04:24.934Z</time>
      </trkpt>
      <trkpt lat="44.20393" lon="0.61171">
        <ele>94.767507</ele>
        <time>2022-12-29T13:04:27.921Z</time>
      </trkpt>
      <trkpt lat="44.20381" lon="0.6117">
        <ele>94.858605</ele>
        <time>2022-12-29T13:04:30.920Z</time>
      </trkpt>
      <trkpt lat="44.20372" lon="0.6117">
        <ele>94.651991</ele>
        <time>2022-12-29T13:04:33.911Z</time>
      </trkpt>
      <trkpt lat="44.20362" lon="0.61172">
        <ele>94.181524</ele>
        <time>2022-12-29T13:04:36.931Z</time>
      </trkpt>
      <trkpt lat="44.20348" lon="0.61174">
        <ele>93.50602</ele>
        <time>2022-12-29T13:04:39.938Z</time>
      </trkpt>
      <trkpt lat="44.20339" lon="0.61175">
        <ele>93.028111</ele>
        <time>2022-12-29T13:04:41.916Z</time>
      </trkpt>
      <trkpt lat="44.2033" lon="0.61176">
        <ele>92.588775</ele>
        <time>2022-12-29T13:04:43.929Z</time>
      </trkpt>
      <trkpt lat="44.20318" lon="0.61177">
        <ele>92.014058</ele>
        <time>2022-12-29T13:04:46.930Z</time>
      </trkpt>
      <trkpt lat="44.20307" lon="0.61179">
        <ele>91.465041</ele>
        <time>2022-12-29T13:04:50.990Z</time>
      </trkpt>
      <trkpt lat="44.20297" lon="0.6118">
        <ele>91.020252</ele>
        <time>2022-12-29T13:04:58.928Z</time>
      </trkpt>
      <trkpt lat="44.20287" lon="0.61179">
        <ele>90.528579</ele>
        <time>2022-12-29T13:05:06.921Z</time>
      </trkpt>
      <trkpt lat="44.20278" lon="0.61181">
        <ele>90.085109</ele>
        <time>2022-12-29T13:05:09.926Z</time>
      </trkpt>
      <trkpt lat="44.20267" lon="0.61181">
        <ele>89.51091</ele>
        <time>2022-12-29T13:05:12.933Z</time>
      </trkpt>
      <trkpt lat="44.20256" lon="0.6118">
        <ele>88.992094</ele>
        <time>2022-12-29T13:05:15.924Z</time>
      </trkpt>
      <trkpt lat="44.20245" lon="0.61176">
        <ele>88.440654</ele>
        <time>2022-12-29T13:05:19.922Z</time>
      </trkpt>
      <trkpt lat="44.20235" lon="0.61176">
        <ele>87.963726</ele>
        <time>2022-12-29T13:05:22.931Z</time>
      </trkpt>
      <trkpt lat="44.20224" lon="0.61175">
        <ele>87.437621</ele>
        <time>2022-12-29T13:05:25.972Z</time>
      </trkpt>
      <trkpt lat="44.20213" lon="0.61176">
        <ele>86.873112</ele>
        <time>2022-12-29T13:05:29.927Z</time>
      </trkpt>
      <trkpt lat="44.20203" lon="0.61177">
        <ele>86.374703</ele>
        <time>2022-12-29T13:05:32.923Z</time>
      </trkpt>
      <trkpt lat="44.20192" lon="0.61178">
        <ele>85.994827</ele>
        <time>2022-12-29T13:05:35.908Z</time>
      </trkpt>
      <trkpt lat="44.20181" lon="0.61179">
        <ele>85.693821</ele>
        <time>2022-12-29T13:05:38.911Z</time>
      </trkpt>
      <trkpt lat="44.20169" lon="0.6118">
        <ele>85.355335</ele>
        <time>2022-12-29T13:05:41.921Z</time>
      </trkpt>
      <trkpt lat="44.20156" lon="0.61181">
        <ele>85.01138</ele>
        <time>2022-12-29T13:05:44.902Z</time>
      </trkpt>
      <trkpt lat="44.20143" lon="0.61182">
        <ele>84.658848</ele>
        <time>2022-12-29T13:05:47.919Z</time>
      </trkpt>
      <trkpt lat="44.2013" lon="0.61183">
        <ele>84.32332</ele>
        <time>2022-12-29T13:05:50.930Z</time>
      </trkpt>
      <trkpt lat="44.20117" lon="0.61184">
        <ele>83.976799</ele>
        <time>2022-12-29T13:05:53.932Z</time>
      </trkpt>
      <trkpt lat="44.20106" lon="0.61183">
        <ele>83.66271</ele>
        <time>2022-12-29T13:05:56.912Z</time>
      </trkpt>
      <trkpt lat="44.20094" lon="0.61184">
        <ele>83.34077</ele>
        <time>2022-12-29T13:05:59.915Z</time>
      </trkpt>
      <trkpt lat="44.20081" lon="0.61184">
        <ele>83.005374</ele>
        <time>2022-12-29T13:06:02.920Z</time>
      </trkpt>
      <trkpt lat="44.20069" lon="0.61185">
        <ele>82.688797</ele>
        <time>2022-12-29T13:06:05.911Z</time>
      </trkpt>
      <trkpt lat="44.20058" lon="0.61184">
        <ele>82.374902</ele>
        <time>2022-12-29T13:06:08.911Z</time>
      </trkpt>
      <trkpt lat="44.20048" lon="0.61185">
        <ele>82.109266</ele>
        <time>2022-12-29T13:06:11.921Z</time>
      </trkpt>
      <trkpt lat="44.20038" lon="0.61185">
        <ele>81.84885</ele>
        <time>2022-12-29T13:06:14.907Z</time>
      </trkpt>
      <trkpt lat="44.20028" lon="0.61186">
        <ele>81.584822</ele>
        <time>2022-12-29T13:06:18.924Z</time>
      </trkpt>
      <trkpt lat="44.20018" lon="0.61188">
        <ele>81.316461</ele>
        <time>2022-12-29T13:06:23.927Z</time>
      </trkpt>
      <trkpt lat="44.20007" lon="0.61189">
        <ele>81.387572</ele>
        <time>2022-12-29T13:06:27.921Z</time>
      </trkpt>
      <trkpt lat="44.19997" lon="0.6119">
        <ele>81.459846</ele>
        <time>2022-12-29T13:06:30.952Z</time>
      </trkpt>
      <trkpt lat="44.19986" lon="0.61192">
        <ele>81.534674</ele>
        <time>2022-12-29T13:06:33.921Z</time>
      </trkpt>
      <trkpt lat="44.19974" lon="0.61194">
        <ele>81.616006</ele>
        <time>2022-12-29T13:06:36.987Z</time>
      </trkpt>
      <trkpt lat="44.19962" lon="0.61196">
        <ele>81.702021</ele>
        <time>2022-12-29T13:06:39.921Z</time>
      </trkpt>
      <trkpt lat="44.19949" lon="0.61197">
        <ele>81.787453</ele>
        <time>2022-12-29T13:06:42.974Z</time>
      </trkpt>
      <trkpt lat="44.19936" lon="0.61197">
        <ele>81.876998</ele>
        <time>2022-12-29T13:06:45.929Z</time>
      </trkpt>
      <trkpt lat="44.19923" lon="0.61199">
        <ele>81.966039</ele>
        <time>2022-12-29T13:06:48.977Z</time>
      </trkpt>
      <trkpt lat="44.19911" lon="0.61199">
        <ele>82.049458</ele>
        <time>2022-12-29T13:06:51.920Z</time>
      </trkpt>
      <trkpt lat="44.199" lon="0.612">
        <ele>82.124055</ele>
        <time>2022-12-29T13:06:54.933Z</time>
      </trkpt>
      <trkpt lat="44.19889" lon="0.61201">
        <ele>82.198035</ele>
        <time>2022-12-29T13:06:57.910Z</time>
      </trkpt>
      <trkpt lat="44.1988" lon="0.61202">
        <ele>82.261601</ele>
        <time>2022-12-29T13:07:00.921Z</time>
      </trkpt>
      <trkpt lat="44.19868" lon="0.61202">
        <ele>82.343635</ele>
        <time>2022-12-29T13:07:04.931Z</time>
      </trkpt>
      <trkpt lat="44.19857" lon="0.61202">
        <ele>82.418799</ele>
        <time>2022-12-29T13:07:07.935Z</time>
      </trkpt>
      <trkpt lat="44.19846" lon="0.61203">
        <ele>82.496757</ele>
        <time>2022-12-29T13:07:10.932Z</time>
      </trkpt>
      <trkpt lat="44.19834" lon="0.61205">
        <ele>82.556808</ele>
        <time>2022-12-29T13:07:13.922Z</time>
      </trkpt>
      <trkpt lat="44.19821" lon="0.61206">
        <ele>82.591535</ele>
        <time>2022-12-29T13:07:16.932Z</time>
      </trkpt>
      <trkpt lat="44.1981" lon="0.61207">
        <ele>82.624723</ele>
        <time>2022-12-29T13:07:19.935Z</time>
      </trkpt>
      <trkpt lat="44.19798" lon="0.61209">
        <ele>82.657839</ele>
        <time>2022-12-29T13:07:22.935Z</time>
      </trkpt>
      <trkpt lat="44.19785" lon="0.61209">
        <ele>82.692012</ele>
        <time>2022-12-29T13:07:25.927Z</time>
      </trkpt>
      <trkpt lat="44.19773" lon="0.6121">
        <ele>82.726738</ele>
        <time>2022-12-29T13:07:28.935Z</time>
      </trkpt>
      <trkpt lat="44.19761" lon="0.61211">
        <ele>82.758718</ele>
        <time>2022-12-29T13:07:31.978Z</time>
      </trkpt>
      <trkpt lat="44.1975" lon="0.61212">
        <ele>82.790369</ele>
        <time>2022-12-29T13:07:34.934Z</time>
      </trkpt>
      <trkpt lat="44.19738" lon="0.61212">
        <ele>82.823113</ele>
        <time>2022-12-29T13:07:37.974Z</time>
      </trkpt>
      <trkpt lat="44.19726" lon="0.61213">
        <ele>82.857008</ele>
        <time>2022-12-29T13:07:40.932Z</time>
      </trkpt>
      <trkpt lat="44.19714" lon="0.61214">
        <ele>82.890616</ele>
        <time>2022-12-29T13:07:43.981Z</time>
      </trkpt>
      <trkpt lat="44.19702" lon="0.61215">
        <ele>82.922284</ele>
        <time>2022-12-29T13:07:46.922Z</time>
      </trkpt>
      <trkpt lat="44.19692" lon="0.61215">
        <ele>82.951971</ele>
        <time>2022-12-29T13:07:49.975Z</time>
      </trkpt>
      <trkpt lat="44.19682" lon="0.61216">
        <ele>82.979483</ele>
        <time>2022-12-29T13:07:52.927Z</time>
      </trkpt>
      <trkpt lat="44.19671" lon="0.61216">
        <ele>83.010054</ele>
        <time>2022-12-29T13:07:55.971Z</time>
      </trkpt>
      <trkpt lat="44.19661" lon="0.61217">
        <ele>83.037302</ele>
        <time>2022-12-29T13:07:58.930Z</time>
      </trkpt>
      <trkpt lat="44.19652" lon="0.61217">
        <ele>83.336995</ele>
        <time>2022-12-29T13:08:01.982Z</time>
      </trkpt>
      <trkpt lat="44.19641" lon="0.61218">
        <ele>83.733168</ele>
        <time>2022-12-29T13:08:04.934Z</time>
      </trkpt>
      <trkpt lat="44.19632" lon="0.61219">
        <ele>84.087572</ele>
        <time>2022-12-29T13:08:07.997Z</time>
      </trkpt>
      <trkpt lat="44.19622" lon="0.6122">
        <ele>84.49958</ele>
        <time>2022-12-29T13:08:11.906Z</time>
      </trkpt>
      <trkpt lat="44.19611" lon="0.6122">
        <ele>84.911277</ele>
        <time>2022-12-29T13:08:15.934Z</time>
      </trkpt>
      <trkpt lat="44.19601" lon="0.6122">
        <ele>85.311331</ele>
        <time>2022-12-29T13:08:19.933Z</time>
      </trkpt>
      <trkpt lat="44.19591" lon="0.61221">
        <ele>85.680548</ele>
        <time>2022-12-29T13:08:23.931Z</time>
      </trkpt>
      <trkpt lat="44.1958" lon="0.61221">
        <ele>86.107852</ele>
        <time>2022-12-29T13:08:28.922Z</time>
      </trkpt>
      <trkpt lat="44.1957" lon="0.61222">
        <ele>86.519737</ele>
        <time>2022-12-29T13:08:33.930Z</time>
      </trkpt>
      <trkpt lat="44.19559" lon="0.61225">
        <ele>86.946749</ele>
        <time>2022-12-29T13:08:38.925Z</time>
      </trkpt>
      <trkpt lat="44.19548" lon="0.61226">
        <ele>87.37513</ele>
        <time>2022-12-29T13:08:43.969Z</time>
      </trkpt>
      <trkpt lat="44.19538" lon="0.61228">
        <ele>87.778886</ele>
        <time>2022-12-29T13:08:48.933Z</time>
      </trkpt>
      <trkpt lat="44.19528" lon="0.61227">
        <ele>88.148994</ele>
        <time>2022-12-29T13:08:54.943Z</time>
      </trkpt>
      <trkpt lat="44.19528" lon="0.61227">
        <ele>88.160397</ele>
        <time>2022-12-29T13:09:22.513Z</time>
      </trkpt>
      <trkpt lat="44.1952" lon="0.61234">
        <ele>88.527453</ele>
        <time>2022-12-29T13:10:38.897Z</time>
      </trkpt>
      <trkpt lat="44.19511" lon="0.61231">
        <ele>88.881735</ele>
        <time>2022-12-29T13:10:49.909Z</time>
      </trkpt>
      <trkpt lat="44.195" lon="0.61231">
        <ele>89.312838</ele>
        <time>2022-12-29T13:10:53.913Z</time>
      </trkpt>
      <trkpt lat="44.19491" lon="0.6123">
        <ele>89.666849</ele>
        <time>2022-12-29T13:10:56.911Z</time>
      </trkpt>
      <trkpt lat="44.19481" lon="0.6123">
        <ele>90.01496</ele>
        <time>2022-12-29T13:10:59.906Z</time>
      </trkpt>
      <trkpt lat="44.19467" lon="0.61231">
        <ele>89.821913</ele>
        <time>2022-12-29T13:11:02.923Z</time>
      </trkpt>
      <trkpt lat="44.19457" lon="0.61231">
        <ele>89.673727</ele>
        <time>2022-12-29T13:11:04.924Z</time>
      </trkpt>
      <trkpt lat="44.19445" lon="0.61232">
        <ele>89.511397</ele>
        <time>2022-12-29T13:11:06.920Z</time>
      </trkpt>
      <trkpt lat="44.19432" lon="0.61233">
        <ele>89.335003</ele>
        <time>2022-12-29T13:11:08.926Z</time>
      </trkpt>
      <trkpt lat="44.1942" lon="0.61235">
        <ele>89.163824</ele>
        <time>2022-12-29T13:11:10.923Z</time>
      </trkpt>
      <trkpt lat="44.19407" lon="0.61236">
        <ele>88.974921</ele>
        <time>2022-12-29T13:11:12.924Z</time>
      </trkpt>
      <trkpt lat="44.19394" lon="0.61238">
        <ele>88.801841</ele>
        <time>2022-12-29T13:11:14.924Z</time>
      </trkpt>
      <trkpt lat="44.19384" lon="0.61239">
        <ele>88.658925</ele>
        <time>2022-12-29T13:11:16.915Z</time>
      </trkpt>
      <trkpt lat="44.19372" lon="0.6124">
        <ele>88.487983</ele>
        <time>2022-12-29T13:11:18.913Z</time>
      </trkpt>
      <trkpt lat="44.1936" lon="0.61241">
        <ele>88.316804</ele>
        <time>2022-12-29T13:11:20.921Z</time>
      </trkpt>
      <trkpt lat="44.19349" lon="0.61242">
        <ele>88.161269</ele>
        <time>2022-12-29T13:11:22.921Z</time>
      </trkpt>
      <trkpt lat="44.19339" lon="0.61243">
        <ele>88.01842</ele>
        <time>2022-12-29T13:11:24.919Z</time>
      </trkpt>
      <trkpt lat="44.19329" lon="0.61245">
        <ele>87.890224</ele>
        <time>2022-12-29T13:11:26.922Z</time>
      </trkpt>
      <trkpt lat="44.1932" lon="0.61245">
        <ele>87.764396</ele>
        <time>2022-12-29T13:11:28.928Z</time>
      </trkpt>
      <trkpt lat="44.19307" lon="0.61248">
        <ele>87.574052</ele>
        <time>2022-12-29T13:11:31.919Z</time>
      </trkpt>
      <trkpt lat="44.19293" lon="0.61249">
        <ele>87.556907</ele>
        <time>2022-12-29T13:11:34.920Z</time>
      </trkpt>
      <trkpt lat="44.19283" lon="0.61251">
        <ele>87.607023</ele>
        <time>2022-12-29T13:11:36.921Z</time>
      </trkpt>
      <trkpt lat="44.19273" lon="0.61251">
        <ele>87.656898</ele>
        <time>2022-12-29T13:11:38.915Z</time>
      </trkpt>
      <trkpt lat="44.19264" lon="0.61253">
        <ele>87.705213</ele>
        <time>2022-12-29T13:11:40.914Z</time>
      </trkpt>
      <trkpt lat="44.19253" lon="0.61255">
        <ele>87.75834</ele>
        <time>2022-12-29T13:11:42.915Z</time>
      </trkpt>
      <trkpt lat="44.19243" lon="0.61256">
        <ele>87.811332</ele>
        <time>2022-12-29T13:11:44.928Z</time>
      </trkpt>
      <trkpt lat="44.19231" lon="0.61257">
        <ele>87.868663</ele>
        <time>2022-12-29T13:11:46.922Z</time>
      </trkpt>
      <trkpt lat="44.19221" lon="0.61257">
        <ele>87.919036</ele>
        <time>2022-12-29T13:11:48.921Z</time>
      </trkpt>
      <trkpt lat="44.19212" lon="0.61257">
        <ele>87.965875</ele>
        <time>2022-12-29T13:11:50.924Z</time>
      </trkpt>
      <trkpt lat="44.192" lon="0.61258">
        <ele>88.025755</ele>
        <time>2022-12-29T13:11:53.920Z</time>
      </trkpt>
      <trkpt lat="44.19188" lon="0.61259">
        <ele>88.081728</ele>
        <time>2022-12-29T13:11:56.922Z</time>
      </trkpt>
      <trkpt lat="44.19176" lon="0.61261">
        <ele>88.145181</ele>
        <time>2022-12-29T13:11:59.921Z</time>
      </trkpt>
      <trkpt lat="44.19163" lon="0.61263">
        <ele>88.210726</ele>
        <time>2022-12-29T13:12:02.903Z</time>
      </trkpt>
      <trkpt lat="44.1915" lon="0.61267">
        <ele>88.275936</ele>
        <time>2022-12-29T13:12:05.908Z</time>
      </trkpt>
      <trkpt lat="44.19138" lon="0.61273">
        <ele>88.338403</ele>
        <time>2022-12-29T13:12:08.920Z</time>
      </trkpt>
      <trkpt lat="44.19127" lon="0.61279">
        <ele>88.400505</ele>
        <time>2022-12-29T13:12:11.911Z</time>
      </trkpt>
      <trkpt lat="44.19116" lon="0.61287">
        <ele>88.335131</ele>
        <time>2022-12-29T13:12:14.922Z</time>
      </trkpt>
      <trkpt lat="44.19106" lon="0.61296">
        <ele>88.253334</ele>
        <time>2022-12-29T13:12:17.921Z</time>
      </trkpt>
      <trkpt lat="44.19096" lon="0.61303">
        <ele>88.176723</ele>
        <time>2022-12-29T13:12:20.921Z</time>
      </trkpt>
      <trkpt lat="44.19087" lon="0.61311">
        <ele>88.100748</ele>
        <time>2022-12-29T13:12:23.926Z</time>
      </trkpt>
      <trkpt lat="44.19077" lon="0.61314">
        <ele>88.034272</ele>
        <time>2022-12-29T13:12:26.910Z</time>
      </trkpt>
      <trkpt lat="44.19068" lon="0.61311">
        <ele>87.966128</ele>
        <time>2022-12-29T13:12:29.912Z</time>
      </trkpt>
      <trkpt lat="44.19058" lon="0.61302">
        <ele>87.888411</ele>
        <time>2022-12-29T13:12:32.909Z</time>
      </trkpt>
      <trkpt lat="44.19048" lon="0.61297">
        <ele>87.812215</ele>
        <time>2022-12-29T13:12:35.903Z</time>
      </trkpt>
      <trkpt lat="44.19038" lon="0.61298">
        <ele>87.744999</ele>
        <time>2022-12-29T13:12:38.911Z</time>
      </trkpt>
      <trkpt lat="44.19028" lon="0.61302">
        <ele>87.675309</ele>
        <time>2022-12-29T13:12:41.924Z</time>
      </trkpt>
      <trkpt lat="44.19019" lon="0.61313">
        <ele>87.590804</ele>
        <time>2022-12-29T13:12:44.912Z</time>
      </trkpt>
      <trkpt lat="44.19014" lon="0.61327">
        <ele>87.510506</ele>
        <time>2022-12-29T13:12:47.899Z</time>
      </trkpt>
      <trkpt lat="44.19014" lon="0.61344">
        <ele>87.430545</ele>
        <time>2022-12-29T13:12:50.926Z</time>
      </trkpt>
      <trkpt lat="44.19016" lon="0.6136">
        <ele>87.349145</ele>
        <time>2022-12-29T13:12:53.923Z</time>
      </trkpt>
      <trkpt lat="44.19015" lon="0.61376">
        <ele>87.268511</ele>
        <time>2022-12-29T13:12:56.914Z</time>
      </trkpt>
      <trkpt lat="44.1901" lon="0.61387">
        <ele>87.200654</ele>
        <time>2022-12-29T13:12:58.913Z</time>
      </trkpt>
      <trkpt lat="44.19004" lon="0.61398">
        <ele>87.251971</ele>
        <time>2022-12-29T13:13:00.905Z</time>
      </trkpt>
      <trkpt lat="44.18997" lon="0.6141">
        <ele>87.50532</ele>
        <time>2022-12-29T13:13:04.913Z</time>
      </trkpt>
      <trkpt lat="44.18993" lon="0.61399">
        <ele>87.714319</ele>
        <time>2022-12-29T13:13:11.909Z</time>
      </trkpt>
      <trkpt lat="44.19" lon="0.61388">
        <ele>87.946547</ele>
        <time>2022-12-29T13:13:15.912Z</time>
      </trkpt>
      <trkpt lat="44.19004" lon="0.61377">
        <ele>88.152383</ele>
        <time>2022-12-29T13:13:23.921Z</time>
      </trkpt>
      <trkpt lat="44.19007" lon="0.61376">
        <ele>88.220686</ele>
        <time>2022-12-29T13:13:39.001Z</time>
      </trkpt>
      <trkpt lat="44.19007" lon="0.61371">
        <ele>88.301683</ele>
        <time>2022-12-29T14:33:43.707Z</time>
      </trkpt>
      <trkpt lat="44.19008" lon="0.61372">
        <ele>88.332885</ele>
        <time>2022-12-29T14:34:54.079Z</time>
      </trkpt>
      <trkpt lat="44.18998" lon="0.61388">
        <ele>88.681473</ele>
        <time>2022-12-29T14:37:14.937Z</time>
      </trkpt>
      <trkpt lat="44.18993" lon="0.61401">
        <ele>88.924339</ele>
        <time>2022-12-29T14:37:19.906Z</time>
      </trkpt>
      <trkpt lat="44.18992" lon="0.61414">
        <ele>89.138077</ele>
        <time>2022-12-29T14:37:23.906Z</time>
      </trkpt>
      <trkpt lat="44.18991" lon="0.61428">
        <ele>89.370453</ele>
        <time>2022-12-29T14:37:27.914Z</time>
      </trkpt>
      <trkpt lat="44.18985" lon="0.61438">
        <ele>89.584923</ele>
        <time>2022-12-29T14:37:31.914Z</time>
      </trkpt>
      <trkpt lat="44.18977" lon="0.61449">
        <ele>89.825656</ele>
        <time>2022-12-29T14:37:35.906Z</time>
      </trkpt>
      <trkpt lat="44.1897" lon="0.61457">
        <ele>90.037103</ele>
        <time>2022-12-29T14:37:38.905Z</time>
      </trkpt>
      <trkpt lat="44.18961" lon="0.61466">
        <ele>90.287288</ele>
        <time>2022-12-29T14:37:41.918Z</time>
      </trkpt>
      <trkpt lat="44.18953" lon="0.61475">
        <ele>90.533673</ele>
        <time>2022-12-29T14:37:44.906Z</time>
      </trkpt>
      <trkpt lat="44.18943" lon="0.61485">
        <ele>90.807151</ele>
        <time>2022-12-29T14:37:47.904Z</time>
      </trkpt>
      <trkpt lat="44.18933" lon="0.61496">
        <ele>91.103093</ele>
        <time>2022-12-29T14:37:50.924Z</time>
      </trkpt>
      <trkpt lat="44.18922" lon="0.61507">
        <ele>91.307598</ele>
        <time>2022-12-29T14:37:53.909Z</time>
      </trkpt>
      <trkpt lat="44.18912" lon="0.61517">
        <ele>91.398169</ele>
        <time>2022-12-29T14:37:56.905Z</time>
      </trkpt>
      <trkpt lat="44.18903" lon="0.61526">
        <ele>91.477069</ele>
        <time>2022-12-29T14:37:59.919Z</time>
      </trkpt>
      <trkpt lat="44.18895" lon="0.61534">
        <ele>91.547136</ele>
        <time>2022-12-29T14:38:02.919Z</time>
      </trkpt>
      <trkpt lat="44.18888" lon="0.61542">
        <ele>91.614843</ele>
        <time>2022-12-29T14:38:05.903Z</time>
      </trkpt>
      <trkpt lat="44.18878" lon="0.61552">
        <ele>91.702589</ele>
        <time>2022-12-29T14:38:09.912Z</time>
      </trkpt>
      <trkpt lat="44.18869" lon="0.61563">
        <ele>91.782856</ele>
        <time>2022-12-29T14:38:12.903Z</time>
      </trkpt>
      <trkpt lat="44.1886" lon="0.61572">
        <ele>91.863779</ele>
        <time>2022-12-29T14:38:15.909Z</time>
      </trkpt>
      <trkpt lat="44.18851" lon="0.61581">
        <ele>91.94379</ele>
        <time>2022-12-29T14:38:18.904Z</time>
      </trkpt>
      <trkpt lat="44.18842" lon="0.61591">
        <ele>92.02507</ele>
        <time>2022-12-29T14:38:21.901Z</time>
      </trkpt>
      <trkpt lat="44.18832" lon="0.61599">
        <ele>92.107811</ele>
        <time>2022-12-29T14:38:24.913Z</time>
      </trkpt>
      <trkpt lat="44.18822" lon="0.61607">
        <ele>92.193852</ele>
        <time>2022-12-29T14:38:27.913Z</time>
      </trkpt>
      <trkpt lat="44.18811" lon="0.61613">
        <ele>92.278921</ele>
        <time>2022-12-29T14:38:30.907Z</time>
      </trkpt>
      <trkpt lat="44.18799" lon="0.61618">
        <ele>92.361669</ele>
        <time>2022-12-29T14:38:33.915Z</time>
      </trkpt>
      <trkpt lat="44.18788" lon="0.6162">
        <ele>92.443774</ele>
        <time>2022-12-29T14:38:36.915Z</time>
      </trkpt>
      <trkpt lat="44.18776" lon="0.61622">
        <ele>92.527946</ele>
        <time>2022-12-29T14:38:39.900Z</time>
      </trkpt>
      <trkpt lat="44.18764" lon="0.61622">
        <ele>92.658278</ele>
        <time>2022-12-29T14:38:42.911Z</time>
      </trkpt>
      <trkpt lat="44.18752" lon="0.61622">
        <ele>92.808983</ele>
        <time>2022-12-29T14:38:45.909Z</time>
      </trkpt>
      <trkpt lat="44.18741" lon="0.6162">
        <ele>92.947219</ele>
        <time>2022-12-29T14:38:48.908Z</time>
      </trkpt>
      <trkpt lat="44.18732" lon="0.61618">
        <ele>93.061947</ele>
        <time>2022-12-29T14:38:51.917Z</time>
      </trkpt>
      <trkpt lat="44.18721" lon="0.6161">
        <ele>93.210569</ele>
        <time>2022-12-29T14:38:55.904Z</time>
      </trkpt>
      <trkpt lat="44.1871" lon="0.61615">
        <ele>93.352925</ele>
        <time>2022-12-29T14:38:58.919Z</time>
      </trkpt>
      <trkpt lat="44.18701" lon="0.61625">
        <ele>93.497853</ele>
        <time>2022-12-29T14:39:01.908Z</time>
      </trkpt>
      <trkpt lat="44.18691" lon="0.61632">
        <ele>93.634154</ele>
        <time>2022-12-29T14:39:04.909Z</time>
      </trkpt>
      <trkpt lat="44.18679" lon="0.61635">
        <ele>93.787676</ele>
        <time>2022-12-29T14:39:07.914Z</time>
      </trkpt>
      <trkpt lat="44.1867" lon="0.61636">
        <ele>93.901074</ele>
        <time>2022-12-29T14:39:09.913Z</time>
      </trkpt>
      <trkpt lat="44.18657" lon="0.6164">
        <ele>94.06235</ele>
        <time>2022-12-29T14:39:12.903Z</time>
      </trkpt>
      <trkpt lat="44.18644" lon="0.61644">
        <ele>94.227574</ele>
        <time>2022-12-29T14:39:15.909Z</time>
      </trkpt>
      <trkpt lat="44.18634" lon="0.61647">
        <ele>94.353212</ele>
        <time>2022-12-29T14:39:17.904Z</time>
      </trkpt>
      <trkpt lat="44.18621" lon="0.61649">
        <ele>94.517625</ele>
        <time>2022-12-29T14:39:20.908Z</time>
      </trkpt>
      <trkpt lat="44.18612" lon="0.61651">
        <ele>94.629291</ele>
        <time>2022-12-29T14:39:22.917Z</time>
      </trkpt>
      <trkpt lat="44.186" lon="0.61653">
        <ele>94.773653</ele>
        <time>2022-12-29T14:39:25.907Z</time>
      </trkpt>
      <trkpt lat="44.1859" lon="0.61655">
        <ele>94.74856</ele>
        <time>2022-12-29T14:39:28.907Z</time>
      </trkpt>
      <trkpt lat="44.18579" lon="0.6166">
        <ele>94.721258</ele>
        <time>2022-12-29T14:39:31.926Z</time>
      </trkpt>
      <trkpt lat="44.18568" lon="0.61664">
        <ele>94.693675</ele>
        <time>2022-12-29T14:39:34.923Z</time>
      </trkpt>
      <trkpt lat="44.18556" lon="0.61667">
        <ele>94.666198</ele>
        <time>2022-12-29T14:39:37.911Z</time>
      </trkpt>
      <trkpt lat="44.18545" lon="0.6167">
        <ele>94.639255</ele>
        <time>2022-12-29T14:39:40.901Z</time>
      </trkpt>
      <trkpt lat="44.18534" lon="0.61673">
        <ele>94.612515</ele>
        <time>2022-12-29T14:39:43.906Z</time>
      </trkpt>
      <trkpt lat="44.18524" lon="0.61675">
        <ele>94.586837</ele>
        <time>2022-12-29T14:39:46.911Z</time>
      </trkpt>
      <trkpt lat="44.18512" lon="0.61673">
        <ele>94.558714</ele>
        <time>2022-12-29T14:39:49.913Z</time>
      </trkpt>
      <trkpt lat="44.18498" lon="0.61677">
        <ele>94.526072</ele>
        <time>2022-12-29T14:39:52.920Z</time>
      </trkpt>
      <trkpt lat="44.18489" lon="0.61683">
        <ele>94.501467</ele>
        <time>2022-12-29T14:39:54.903Z</time>
      </trkpt>
      <trkpt lat="44.1848" lon="0.61686">
        <ele>94.479812</ele>
        <time>2022-12-29T14:39:56.916Z</time>
      </trkpt>
      <trkpt lat="44.18472" lon="0.61689">
        <ele>94.458152</ele>
        <time>2022-12-29T14:39:58.904Z</time>
      </trkpt>
      <trkpt lat="44.18462" lon="0.61691">
        <ele>94.434987</ele>
        <time>2022-12-29T14:40:00.914Z</time>
      </trkpt>
      <trkpt lat="44.18453" lon="0.61695">
        <ele>94.413101</ele>
        <time>2022-12-29T14:40:02.908Z</time>
      </trkpt>
      <trkpt lat="44.18443" lon="0.61698">
        <ele>94.38928</ele>
        <time>2022-12-29T14:40:04.908Z</time>
      </trkpt>
      <trkpt lat="44.18435" lon="0.61702">
        <ele>94.36758</ele>
        <time>2022-12-29T14:40:06.913Z</time>
      </trkpt>
      <trkpt lat="44.18425" lon="0.61704">
        <ele>94.34296</ele>
        <time>2022-12-29T14:40:08.921Z</time>
      </trkpt>
      <trkpt lat="44.18416" lon="0.61706">
        <ele>94.297507</ele>
        <time>2022-12-29T14:40:10.931Z</time>
      </trkpt>
      <trkpt lat="44.18403" lon="0.61709">
        <ele>94.229043</ele>
        <time>2022-12-29T14:40:13.906Z</time>
      </trkpt>
      <trkpt lat="44.18394" lon="0.61711">
        <ele>94.181961</ele>
        <time>2022-12-29T14:40:15.910Z</time>
      </trkpt>
      <trkpt lat="44.18381" lon="0.61713">
        <ele>94.11782</ele>
        <time>2022-12-29T14:40:18.914Z</time>
      </trkpt>
      <trkpt lat="44.1837" lon="0.61715">
        <ele>94.058741</ele>
        <time>2022-12-29T14:40:21.907Z</time>
      </trkpt>
      <trkpt lat="44.18357" lon="0.61718">
        <ele>93.993639</ele>
        <time>2022-12-29T14:40:24.906Z</time>
      </trkpt>
      <trkpt lat="44.18348" lon="0.6172">
        <ele>93.947997</ele>
        <time>2022-12-29T14:40:26.910Z</time>
      </trkpt>
      <trkpt lat="44.18336" lon="0.61724">
        <ele>93.880707</ele>
        <time>2022-12-29T14:40:29.916Z</time>
      </trkpt>
      <trkpt lat="44.18323" lon="0.6173">
        <ele>93.812915</ele>
        <time>2022-12-29T14:40:32.907Z</time>
      </trkpt>
      <trkpt lat="44.18314" lon="0.61733">
        <ele>93.766554</ele>
        <time>2022-12-29T14:40:34.903Z</time>
      </trkpt>
      <trkpt lat="44.18302" lon="0.61737">
        <ele>93.701671</ele>
        <time>2022-12-29T14:40:37.904Z</time>
      </trkpt>
      <trkpt lat="44.18291" lon="0.6174">
        <ele>93.643657</ele>
        <time>2022-12-29T14:40:40.898Z</time>
      </trkpt>
      <trkpt lat="44.18279" lon="0.61744">
        <ele>93.582731</ele>
        <time>2022-12-29T14:40:43.910Z</time>
      </trkpt>
      <trkpt lat="44.18266" lon="0.61747">
        <ele>93.515999</ele>
        <time>2022-12-29T14:40:46.903Z</time>
      </trkpt>
      <trkpt lat="44.18253" lon="0.6175">
        <ele>93.446567</ele>
        <time>2022-12-29T14:40:49.910Z</time>
      </trkpt>
      <trkpt lat="44.18243" lon="0.61753">
        <ele>93.481485</ele>
        <time>2022-12-29T14:40:51.905Z</time>
      </trkpt>
      <trkpt lat="44.18234" lon="0.61755">
        <ele>93.55901</ele>
        <time>2022-12-29T14:40:53.907Z</time>
      </trkpt>
      <trkpt lat="44.1822" lon="0.61759">
        <ele>93.673996</ele>
        <time>2022-12-29T14:40:56.909Z</time>
      </trkpt>
      <trkpt lat="44.18212" lon="0.61762">
        <ele>93.751056</ele>
        <time>2022-12-29T14:40:58.926Z</time>
      </trkpt>
      <trkpt lat="44.182" lon="0.61763">
        <ele>93.849291</ele>
        <time>2022-12-29T14:41:01.904Z</time>
      </trkpt>
      <trkpt lat="44.18188" lon="0.61765">
        <ele>93.94842</ele>
        <time>2022-12-29T14:41:04.904Z</time>
      </trkpt>
      <trkpt lat="44.18176" lon="0.61767">
        <ele>94.050237</ele>
        <time>2022-12-29T14:41:07.910Z</time>
      </trkpt>
      <trkpt lat="44.18165" lon="0.6177">
        <ele>94.148529</ele>
        <time>2022-12-29T14:41:10.919Z</time>
      </trkpt>
      <trkpt lat="44.18154" lon="0.61771">
        <ele>94.237571</ele>
        <time>2022-12-29T14:41:13.907Z</time>
      </trkpt>
      <trkpt lat="44.18144" lon="0.61774">
        <ele>94.323987</ele>
        <time>2022-12-29T14:41:16.907Z</time>
      </trkpt>
      <trkpt lat="44.18135" lon="0.61776">
        <ele>94.401512</ele>
        <time>2022-12-29T14:41:19.906Z</time>
      </trkpt>
      <trkpt lat="44.18124" lon="0.6178">
        <ele>94.499857</ele>
        <time>2022-12-29T14:41:22.916Z</time>
      </trkpt>
      <trkpt lat="44.18111" lon="0.61784">
        <ele>94.609752</ele>
        <time>2022-12-29T14:41:25.904Z</time>
      </trkpt>
      <trkpt lat="44.18103" lon="0.61786">
        <ele>94.686118</ele>
        <time>2022-12-29T14:41:27.907Z</time>
      </trkpt>
      <trkpt lat="44.18094" lon="0.61789">
        <ele>94.763731</ele>
        <time>2022-12-29T14:41:29.912Z</time>
      </trkpt>
      <trkpt lat="44.18081" lon="0.61794">
        <ele>94.874447</ele>
        <time>2022-12-29T14:41:32.903Z</time>
      </trkpt>
      <trkpt lat="44.18069" lon="0.61797">
        <ele>94.927572</ele>
        <time>2022-12-29T14:41:35.907Z</time>
      </trkpt>
      <trkpt lat="44.18058" lon="0.61801">
        <ele>94.843374</ele>
        <time>2022-12-29T14:41:38.906Z</time>
      </trkpt>
      <trkpt lat="44.18046" lon="0.61805">
        <ele>94.758143</ele>
        <time>2022-12-29T14:41:41.921Z</time>
      </trkpt>
      <trkpt lat="44.18036" lon="0.61806">
        <ele>94.686985</ele>
        <time>2022-12-29T14:41:44.908Z</time>
      </trkpt>
      <trkpt lat="44.18021" lon="0.61823">
        <ele>94.55026</ele>
        <time>2022-12-29T14:42:24.910Z</time>
      </trkpt>
      <trkpt lat="44.18012" lon="0.61827">
        <ele>94.481453</ele>
        <time>2022-12-29T14:42:28.926Z</time>
      </trkpt>
      <trkpt lat="44.18003" lon="0.61831">
        <ele>94.413882</ele>
        <time>2022-12-29T14:42:31.908Z</time>
      </trkpt>
      <trkpt lat="44.17994" lon="0.61836">
        <ele>94.344635</ele>
        <time>2022-12-29T14:42:34.906Z</time>
      </trkpt>
      <trkpt lat="44.17984" lon="0.61839">
        <ele>94.274886</ele>
        <time>2022-12-29T14:42:37.908Z</time>
      </trkpt>
      <trkpt lat="44.17975" lon="0.61843">
        <ele>94.209308</ele>
        <time>2022-12-29T14:42:40.917Z</time>
      </trkpt>
      <trkpt lat="44.17965" lon="0.61848">
        <ele>94.134778</ele>
        <time>2022-12-29T14:42:44.919Z</time>
      </trkpt>
      <trkpt lat="44.17957" lon="0.61853">
        <ele>94.069415</ele>
        <time>2022-12-29T14:42:49.910Z</time>
      </trkpt>
      <trkpt lat="44.17946" lon="0.61857">
        <ele>93.990928</ele>
        <time>2022-12-29T14:42:55.903Z</time>
      </trkpt>
      <trkpt lat="44.17935" lon="0.61859">
        <ele>93.911794</ele>
        <time>2022-12-29T14:42:59.907Z</time>
      </trkpt>
      <trkpt lat="44.17926" lon="0.61864">
        <ele>93.84773</ele>
        <time>2022-12-29T14:43:02.904Z</time>
      </trkpt>
      <trkpt lat="44.17917" lon="0.61868">
        <ele>93.777271</ele>
        <time>2022-12-29T14:43:05.906Z</time>
      </trkpt>
      <trkpt lat="44.17908" lon="0.61872">
        <ele>93.709031</ele>
        <time>2022-12-29T14:43:08.914Z</time>
      </trkpt>
      <trkpt lat="44.17899" lon="0.61879">
        <ele>93.66046</ele>
        <time>2022-12-29T14:43:11.905Z</time>
      </trkpt>
      <trkpt lat="44.17893" lon="0.61889">
        <ele>93.6337</ele>
        <time>2022-12-29T14:43:14.912Z</time>
      </trkpt>
      <trkpt lat="44.17891" lon="0.61902">
        <ele>93.607395</ele>
        <time>2022-12-29T14:43:19.908Z</time>
      </trkpt>
      <trkpt lat="44.17887" lon="0.61914">
        <ele>93.58054</ele>
        <time>2022-12-29T14:43:23.908Z</time>
      </trkpt>
      <trkpt lat="44.17888" lon="0.61927">
        <ele>93.552577</ele>
        <time>2022-12-29T14:43:26.910Z</time>
      </trkpt>
      <trkpt lat="44.1789" lon="0.61942">
        <ele>93.521777</ele>
        <time>2022-12-29T14:43:29.903Z</time>
      </trkpt>
      <trkpt lat="44.17892" lon="0.61959">
        <ele>93.488169</ele>
        <time>2022-12-29T14:43:32.911Z</time>
      </trkpt>
      <trkpt lat="44.17894" lon="0.61975">
        <ele>93.454411</ele>
        <time>2022-12-29T14:43:35.909Z</time>
      </trkpt>
      <trkpt lat="44.17896" lon="0.61991">
        <ele>93.421689</ele>
        <time>2022-12-29T14:43:38.917Z</time>
      </trkpt>
      <trkpt lat="44.17898" lon="0.62005">
        <ele>93.392142</ele>
        <time>2022-12-29T14:43:41.904Z</time>
      </trkpt>
      <trkpt lat="44.17899" lon="0.6202">
        <ele>93.361106</ele>
        <time>2022-12-29T14:43:44.901Z</time>
      </trkpt>
      <trkpt lat="44.17902" lon="0.62037">
        <ele>93.326643</ele>
        <time>2022-12-29T14:43:47.901Z</time>
      </trkpt>
      <trkpt lat="44.17903" lon="0.62054">
        <ele>93.289874</ele>
        <time>2022-12-29T14:43:50.905Z</time>
      </trkpt>
      <trkpt lat="44.17905" lon="0.6207">
        <ele>93.256768</ele>
        <time>2022-12-29T14:43:53.899Z</time>
      </trkpt>
      <trkpt lat="44.17907" lon="0.62085">
        <ele>93.226215</ele>
        <time>2022-12-29T14:43:56.906Z</time>
      </trkpt>
      <trkpt lat="44.17909" lon="0.62101">
        <ele>93.194162</ele>
        <time>2022-12-29T14:43:59.907Z</time>
      </trkpt>
      <trkpt lat="44.17911" lon="0.62117">
        <ele>93.166551</ele>
        <time>2022-12-29T14:44:02.898Z</time>
      </trkpt>
      <trkpt lat="44.17913" lon="0.62135">
        <ele>93.187761</ele>
        <time>2022-12-29T14:44:05.916Z</time>
      </trkpt>
      <trkpt lat="44.17915" lon="0.62153">
        <ele>93.208971</ele>
        <time>2022-12-29T14:44:08.906Z</time>
      </trkpt>
      <trkpt lat="44.17917" lon="0.62171">
        <ele>93.22981</ele>
        <time>2022-12-29T14:44:11.912Z</time>
      </trkpt>
      <trkpt lat="44.17919" lon="0.62189">
        <ele>93.250845</ele>
        <time>2022-12-29T14:44:14.909Z</time>
      </trkpt>
      <trkpt lat="44.17921" lon="0.62206">
        <ele>93.271481</ele>
        <time>2022-12-29T14:44:17.905Z</time>
      </trkpt>
      <trkpt lat="44.17924" lon="0.62223">
        <ele>93.291778</ele>
        <time>2022-12-29T14:44:20.914Z</time>
      </trkpt>
      <trkpt lat="44.17926" lon="0.62239">
        <ele>93.310744</ele>
        <time>2022-12-29T14:44:23.910Z</time>
      </trkpt>
      <trkpt lat="44.17928" lon="0.62255">
        <ele>93.329404</ele>
        <time>2022-12-29T14:44:26.906Z</time>
      </trkpt>
      <trkpt lat="44.17931" lon="0.62273">
        <ele>93.350411</ele>
        <time>2022-12-29T14:44:29.905Z</time>
      </trkpt>
      <trkpt lat="44.17933" lon="0.62291">
        <ele>93.371675</ele>
        <time>2022-12-29T14:44:32.912Z</time>
      </trkpt>
      <trkpt lat="44.17935" lon="0.62309">
        <ele>93.392906</ele>
        <time>2022-12-29T14:44:35.904Z</time>
      </trkpt>
      <trkpt lat="44.17937" lon="0.62327">
        <ele>93.414486</ele>
        <time>2022-12-29T14:44:38.918Z</time>
      </trkpt>
      <trkpt lat="44.1794" lon="0.62345">
        <ele>93.436055</ele>
        <time>2022-12-29T14:44:41.903Z</time>
      </trkpt>
      <trkpt lat="44.17944" lon="0.62363">
        <ele>93.47717</ele>
        <time>2022-12-29T14:44:44.912Z</time>
      </trkpt>
      <trkpt lat="44.17947" lon="0.62381">
        <ele>93.711084</ele>
        <time>2022-12-29T14:44:47.905Z</time>
      </trkpt>
      <trkpt lat="44.17951" lon="0.62394">
        <ele>93.882285</ele>
        <time>2022-12-29T14:44:49.907Z</time>
      </trkpt>
      <trkpt lat="44.17954" lon="0.62406">
        <ele>94.046999</ele>
        <time>2022-12-29T14:44:51.911Z</time>
      </trkpt>
      <trkpt lat="44.17957" lon="0.62419">
        <ele>94.213504</ele>
        <time>2022-12-29T14:44:53.902Z</time>
      </trkpt>
      <trkpt lat="44.17962" lon="0.62434">
        <ele>94.417931</ele>
        <time>2022-12-29T14:44:56.918Z</time>
      </trkpt>
      <trkpt lat="44.17966" lon="0.62448">
        <ele>94.612165</ele>
        <time>2022-12-29T14:44:59.913Z</time>
      </trkpt>
      <trkpt lat="44.1797" lon="0.62464">
        <ele>94.824124</ele>
        <time>2022-12-29T14:45:02.904Z</time>
      </trkpt>
      <trkpt lat="44.17974" lon="0.6248">
        <ele>95.037879</ele>
        <time>2022-12-29T14:45:05.904Z</time>
      </trkpt>
      <trkpt lat="44.17979" lon="0.62496">
        <ele>95.252633</ele>
        <time>2022-12-29T14:45:08.905Z</time>
      </trkpt>
      <trkpt lat="44.17984" lon="0.6251">
        <ele>95.455558</ele>
        <time>2022-12-29T14:45:11.900Z</time>
      </trkpt>
      <trkpt lat="44.17989" lon="0.62526">
        <ele>95.669049</ele>
        <time>2022-12-29T14:45:14.914Z</time>
      </trkpt>
      <trkpt lat="44.17994" lon="0.6254">
        <ele>95.861416</ele>
        <time>2022-12-29T14:45:17.927Z</time>
      </trkpt>
      <trkpt lat="44.17998" lon="0.62552">
        <ele>96.033414</ele>
        <time>2022-12-29T14:45:20.908Z</time>
      </trkpt>
      <trkpt lat="44.18" lon="0.62566">
        <ele>96.215919</ele>
        <time>2022-12-29T14:45:24.911Z</time>
      </trkpt>
      <trkpt lat="44.17992" lon="0.62577">
        <ele>96.417454</ele>
        <time>2022-12-29T14:45:28.913Z</time>
      </trkpt>
      <trkpt lat="44.17985" lon="0.62586">
        <ele>96.577168</ele>
        <time>2022-12-29T14:45:31.905Z</time>
      </trkpt>
      <trkpt lat="44.17983" lon="0.62601">
        <ele>96.551594</ele>
        <time>2022-12-29T14:45:35.905Z</time>
      </trkpt>
      <trkpt lat="44.17983" lon="0.62614">
        <ele>96.501704</ele>
        <time>2022-12-29T14:45:39.904Z</time>
      </trkpt>
      <trkpt lat="44.17979" lon="0.62625">
        <ele>96.453366</ele>
        <time>2022-12-29T14:45:56.903Z</time>
      </trkpt>
      <trkpt lat="44.17977" lon="0.62639">
        <ele>96.39954</ele>
        <time>2022-12-29T14:46:00.917Z</time>
      </trkpt>
      <trkpt lat="44.17974" lon="0.62652">
        <ele>96.348287</ele>
        <time>2022-12-29T14:46:03.905Z</time>
      </trkpt>
      <trkpt lat="44.1797" lon="0.62666">
        <ele>96.289135</ele>
        <time>2022-12-29T14:46:06.904Z</time>
      </trkpt>
      <trkpt lat="44.17965" lon="0.62682">
        <ele>96.226212</ele>
        <time>2022-12-29T14:46:09.907Z</time>
      </trkpt>
      <trkpt lat="44.17961" lon="0.62697">
        <ele>96.162579</ele>
        <time>2022-12-29T14:46:12.911Z</time>
      </trkpt>
      <trkpt lat="44.17956" lon="0.62714">
        <ele>96.09282</ele>
        <time>2022-12-29T14:46:15.907Z</time>
      </trkpt>
      <trkpt lat="44.17951" lon="0.62731">
        <ele>96.024456</ele>
        <time>2022-12-29T14:46:18.900Z</time>
      </trkpt>
      <trkpt lat="44.17945" lon="0.62748">
        <ele>95.952268</ele>
        <time>2022-12-29T14:46:21.903Z</time>
      </trkpt>
      <trkpt lat="44.17942" lon="0.6276">
        <ele>95.903233</ele>
        <time>2022-12-29T14:46:23.908Z</time>
      </trkpt>
      <trkpt lat="44.17936" lon="0.62776">
        <ele>95.835904</ele>
        <time>2022-12-29T14:46:26.910Z</time>
      </trkpt>
      <trkpt lat="44.17932" lon="0.62789">
        <ele>95.77966</ele>
        <time>2022-12-29T14:46:29.907Z</time>
      </trkpt>
      <trkpt lat="44.17927" lon="0.62803">
        <ele>95.724012</ele>
        <time>2022-12-29T14:46:32.903Z</time>
      </trkpt>
      <trkpt lat="44.17919" lon="0.62811">
        <ele>95.666725</ele>
        <time>2022-12-29T14:46:35.902Z</time>
      </trkpt>
      <trkpt lat="44.17909" lon="0.62815">
        <ele>95.589181</ele>
        <time>2022-12-29T14:46:38.897Z</time>
      </trkpt>
      <trkpt lat="44.17902" lon="0.62824">
        <ele>95.505597</ele>
        <time>2022-12-29T14:46:41.911Z</time>
      </trkpt>
      <trkpt lat="44.17896" lon="0.62834">
        <ele>95.423437</ele>
        <time>2022-12-29T14:46:44.913Z</time>
      </trkpt>
      <trkpt lat="44.1789" lon="0.62844">
        <ele>95.338156</ele>
        <time>2022-12-29T14:46:48.928Z</time>
      </trkpt>
      <trkpt lat="44.17894" lon="0.62856">
        <ele>95.255163</ele>
        <time>2022-12-29T14:46:52.907Z</time>
      </trkpt>
      <trkpt lat="44.17895" lon="0.62869">
        <ele>95.171991</ele>
        <time>2022-12-29T14:46:55.904Z</time>
      </trkpt>
      <trkpt lat="44.17895" lon="0.62884">
        <ele>95.080497</ele>
        <time>2022-12-29T14:46:58.911Z</time>
      </trkpt>
      <trkpt lat="44.17893" lon="0.62898">
        <ele>94.986907</ele>
        <time>2022-12-29T14:47:01.913Z</time>
      </trkpt>
      <trkpt lat="44.1789" lon="0.62912">
        <ele>94.893007</ele>
        <time>2022-12-29T14:47:04.905Z</time>
      </trkpt>
      <trkpt lat="44.17886" lon="0.62927">
        <ele>94.793421</ele>
        <time>2022-12-29T14:47:07.903Z</time>
      </trkpt>
      <trkpt lat="44.17882" lon="0.62941">
        <ele>94.697079</ele>
        <time>2022-12-29T14:47:10.910Z</time>
      </trkpt>
      <trkpt lat="44.17878" lon="0.62954">
        <ele>94.606704</ele>
        <time>2022-12-29T14:47:13.900Z</time>
      </trkpt>
      <trkpt lat="44.17875" lon="0.62967">
        <ele>94.519659</ele>
        <time>2022-12-29T14:47:16.910Z</time>
      </trkpt>
      <trkpt lat="44.17871" lon="0.62979">
        <ele>94.437818</ele>
        <time>2022-12-29T14:47:19.915Z</time>
      </trkpt>
      <trkpt lat="44.17863" lon="0.62988">
        <ele>94.349352</ele>
        <time>2022-12-29T14:47:23.901Z</time>
      </trkpt>
      <trkpt lat="44.17854" lon="0.62991">
        <ele>94.265499</ele>
        <time>2022-12-29T14:47:26.904Z</time>
      </trkpt>
      <trkpt lat="44.17845" lon="0.62998">
        <ele>94.177567</ele>
        <time>2022-12-29T14:47:29.900Z</time>
      </trkpt>
      <trkpt lat="44.17839" lon="0.63009">
        <ele>94.083532</ele>
        <time>2022-12-29T14:47:33.898Z</time>
      </trkpt>
      <trkpt lat="44.17837" lon="0.63025">
        <ele>94.01278</ele>
        <time>2022-12-29T14:47:38.908Z</time>
      </trkpt>
      <trkpt lat="44.1784" lon="0.63038">
        <ele>93.960149</ele>
        <time>2022-12-29T14:47:42.911Z</time>
      </trkpt>
      <trkpt lat="44.17847" lon="0.63049">
        <ele>93.905506</ele>
        <time>2022-12-29T14:47:46.912Z</time>
      </trkpt>
      <trkpt lat="44.17847" lon="0.63062">
        <ele>93.857191</ele>
        <time>2022-12-29T14:47:49.907Z</time>
      </trkpt>
      <trkpt lat="44.17846" lon="0.63077">
        <ele>93.800508</ele>
        <time>2022-12-29T14:47:52.904Z</time>
      </trkpt>
      <trkpt lat="44.17845" lon="0.63092">
        <ele>93.74555</ele>
        <time>2022-12-29T14:47:55.915Z</time>
      </trkpt>
      <trkpt lat="44.17842" lon="0.63105">
        <ele>93.692393</ele>
        <time>2022-12-29T14:47:58.914Z</time>
      </trkpt>
      <trkpt lat="44.17839" lon="0.63118">
        <ele>93.642709</ele>
        <time>2022-12-29T14:48:01.913Z</time>
      </trkpt>
      <trkpt lat="44.17838" lon="0.63134">
        <ele>93.58341</ele>
        <time>2022-12-29T14:48:05.911Z</time>
      </trkpt>
      <trkpt lat="44.17836" lon="0.63146">
        <ele>93.535621</ele>
        <time>2022-12-29T14:48:09.919Z</time>
      </trkpt>
      <trkpt lat="44.17838" lon="0.63159">
        <ele>93.488657</ele>
        <time>2022-12-29T14:48:13.901Z</time>
      </trkpt>
      <trkpt lat="44.17838" lon="0.63173">
        <ele>93.434009</ele>
        <time>2022-12-29T14:48:17.910Z</time>
      </trkpt>
      <trkpt lat="44.17839" lon="0.63186">
        <ele>93.385695</ele>
        <time>2022-12-29T14:48:20.900Z</time>
      </trkpt>
      <trkpt lat="44.17841" lon="0.632">
        <ele>93.334505</ele>
        <time>2022-12-29T14:48:24.904Z</time>
      </trkpt>
      <trkpt lat="44.17844" lon="0.63214">
        <ele>93.278503</ele>
        <time>2022-12-29T14:48:27.904Z</time>
      </trkpt>
      <trkpt lat="44.17846" lon="0.63229">
        <ele>93.222073</ele>
        <time>2022-12-29T14:48:30.917Z</time>
      </trkpt>
      <trkpt lat="44.17847" lon="0.63243">
        <ele>93.170092</ele>
        <time>2022-12-29T14:48:33.910Z</time>
      </trkpt>
      <trkpt lat="44.17849" lon="0.63259">
        <ele>93.115115</ele>
        <time>2022-12-29T14:48:37.920Z</time>
      </trkpt>
      <trkpt lat="44.17854" lon="0.63291">
        <ele>93.088449</ele>
        <time>2022-12-29T14:49:09.907Z</time>
      </trkpt>
      <trkpt lat="44.17857" lon="0.63308">
        <ele>93.074911</ele>
        <time>2022-12-29T14:49:12.917Z</time>
      </trkpt>
      <trkpt lat="44.1786" lon="0.63324">
        <ele>93.06147</ele>
        <time>2022-12-29T14:49:15.914Z</time>
      </trkpt>
      <trkpt lat="44.17863" lon="0.63338">
        <ele>93.050012</ele>
        <time>2022-12-29T14:49:18.913Z</time>
      </trkpt>
      <trkpt lat="44.17866" lon="0.63354">
        <ele>93.037251</ele>
        <time>2022-12-29T14:49:22.911Z</time>
      </trkpt>
      <trkpt lat="44.17868" lon="0.63366">
        <ele>93.02701</ele>
        <time>2022-12-29T14:49:25.909Z</time>
      </trkpt>
      <trkpt lat="44.1787" lon="0.63381">
        <ele>93.015123</ele>
        <time>2022-12-29T14:49:29.906Z</time>
      </trkpt>
      <trkpt lat="44.17872" lon="0.63394">
        <ele>93.00483</ele>
        <time>2022-12-29T14:49:32.911Z</time>
      </trkpt>
      <trkpt lat="44.17872" lon="0.63407">
        <ele>92.994017</ele>
        <time>2022-12-29T14:49:35.916Z</time>
      </trkpt>
      <trkpt lat="44.17873" lon="0.6342">
        <ele>92.984013</ele>
        <time>2022-12-29T14:49:38.916Z</time>
      </trkpt>
      <trkpt lat="44.17869" lon="0.63436">
        <ele>92.97103</ele>
        <time>2022-12-29T14:49:42.906Z</time>
      </trkpt>
      <trkpt lat="44.17863" lon="0.63449">
        <ele>92.958196</ele>
        <time>2022-12-29T14:49:45.905Z</time>
      </trkpt>
      <trkpt lat="44.17855" lon="0.6346">
        <ele>92.94566</ele>
        <time>2022-12-29T14:49:48.904Z</time>
      </trkpt>
      <trkpt lat="44.17845" lon="0.63467">
        <ele>92.933155</ele>
        <time>2022-12-29T14:49:51.913Z</time>
      </trkpt>
      <trkpt lat="44.17833" lon="0.63472">
        <ele>92.919483</ele>
        <time>2022-12-29T14:49:54.910Z</time>
      </trkpt>
      <trkpt lat="44.17821" lon="0.63474">
        <ele>92.98608</ele>
        <time>2022-12-29T14:49:57.904Z</time>
      </trkpt>
      <trkpt lat="44.17808" lon="0.63477">
        <ele>93.0722</ele>
        <time>2022-12-29T14:50:00.901Z</time>
      </trkpt>
      <trkpt lat="44.17797" lon="0.63482">
        <ele>93.155334</ele>
        <time>2022-12-29T14:50:03.919Z</time>
      </trkpt>
      <trkpt lat="44.17785" lon="0.63485">
        <ele>93.236127</ele>
        <time>2022-12-29T14:50:06.905Z</time>
      </trkpt>
      <trkpt lat="44.17773" lon="0.63489">
        <ele>93.321138</ele>
        <time>2022-12-29T14:50:09.913Z</time>
      </trkpt>
      <trkpt lat="44.1776" lon="0.63493">
        <ele>93.40937</ele>
        <time>2022-12-29T14:50:12.917Z</time>
      </trkpt>
      <trkpt lat="44.17748" lon="0.63498">
        <ele>93.495928</ele>
        <time>2022-12-29T14:50:15.900Z</time>
      </trkpt>
      <trkpt lat="44.17736" lon="0.63504">
        <ele>93.586186</ele>
        <time>2022-12-29T14:50:18.905Z</time>
      </trkpt>
      <trkpt lat="44.17723" lon="0.6351">
        <ele>93.674949</ele>
        <time>2022-12-29T14:50:21.913Z</time>
      </trkpt>
      <trkpt lat="44.17712" lon="0.63515">
        <ele>93.756769</ele>
        <time>2022-12-29T14:50:24.908Z</time>
      </trkpt>
      <trkpt lat="44.17702" lon="0.63521">
        <ele>93.834087</ele>
        <time>2022-12-29T14:50:27.901Z</time>
      </trkpt>
      <trkpt lat="44.17689" lon="0.63526">
        <ele>93.921298</ele>
        <time>2022-12-29T14:50:30.920Z</time>
      </trkpt>
      <trkpt lat="44.17677" lon="0.6353">
        <ele>94.005998</ele>
        <time>2022-12-29T14:50:33.915Z</time>
      </trkpt>
      <trkpt lat="44.17664" lon="0.63535">
        <ele>94.099557</ele>
        <time>2022-12-29T14:50:36.911Z</time>
      </trkpt>
      <trkpt lat="44.17651" lon="0.63539">
        <ele>94.109513</ele>
        <time>2022-12-29T14:50:39.902Z</time>
      </trkpt>
      <trkpt lat="44.17638" lon="0.63542">
        <ele>94.035282</ele>
        <time>2022-12-29T14:50:42.919Z</time>
      </trkpt>
      <trkpt lat="44.17626" lon="0.63545">
        <ele>93.963463</ele>
        <time>2022-12-29T14:50:45.918Z</time>
      </trkpt>
      <trkpt lat="44.17614" lon="0.63547">
        <ele>93.894731</ele>
        <time>2022-12-29T14:50:48.910Z</time>
      </trkpt>
      <trkpt lat="44.17604" lon="0.63545">
        <ele>93.833443</ele>
        <time>2022-12-29T14:50:51.906Z</time>
      </trkpt>
      <trkpt lat="44.17595" lon="0.63539">
        <ele>93.775768</ele>
        <time>2022-12-29T14:50:54.905Z</time>
      </trkpt>
      <trkpt lat="44.17586" lon="0.63534">
        <ele>93.723528</ele>
        <time>2022-12-29T14:50:57.918Z</time>
      </trkpt>
      <trkpt lat="44.17577" lon="0.63533">
        <ele>93.670479</ele>
        <time>2022-12-29T14:51:01.913Z</time>
      </trkpt>
      <trkpt lat="44.17566" lon="0.63551">
        <ele>93.571265</ele>
        <time>2022-12-29T14:51:22.916Z</time>
      </trkpt>
      <trkpt lat="44.17567" lon="0.63566">
        <ele>93.509039</ele>
        <time>2022-12-29T14:51:25.910Z</time>
      </trkpt>
      <trkpt lat="44.17572" lon="0.63582">
        <ele>93.434636</ele>
        <time>2022-12-29T14:51:28.906Z</time>
      </trkpt>
      <trkpt lat="44.17575" lon="0.63595">
        <ele>93.381375</ele>
        <time>2022-12-29T14:51:30.920Z</time>
      </trkpt>
      <trkpt lat="44.17573" lon="0.63607">
        <ele>93.329061</ele>
        <time>2022-12-29T14:51:32.923Z</time>
      </trkpt>
      <trkpt lat="44.17569" lon="0.63624">
        <ele>93.25513</ele>
        <time>2022-12-29T14:51:35.933Z</time>
      </trkpt>
      <trkpt lat="44.17565" lon="0.6364">
        <ele>93.184526</ele>
        <time>2022-12-29T14:51:38.923Z</time>
      </trkpt>
      <trkpt lat="44.17562" lon="0.63657">
        <ele>93.111968</ele>
        <time>2022-12-29T14:51:41.904Z</time>
      </trkpt>
      <trkpt lat="44.17563" lon="0.63673">
        <ele>93.162406</ele>
        <time>2022-12-29T14:51:44.915Z</time>
      </trkpt>
      <trkpt lat="44.17564" lon="0.6369">
        <ele>93.222775</ele>
        <time>2022-12-29T14:51:47.912Z</time>
      </trkpt>
      <trkpt lat="44.17566" lon="0.63707">
        <ele>93.282528</ele>
        <time>2022-12-29T14:51:50.921Z</time>
      </trkpt>
      <trkpt lat="44.17565" lon="0.63722">
        <ele>93.337698</ele>
        <time>2022-12-29T14:51:53.924Z</time>
      </trkpt>
      <trkpt lat="44.1756" lon="0.63736">
        <ele>93.392434</ele>
        <time>2022-12-29T14:51:56.917Z</time>
      </trkpt>
      <trkpt lat="44.17565" lon="0.6375">
        <ele>93.446737</ele>
        <time>2022-12-29T14:51:59.901Z</time>
      </trkpt>
      <trkpt lat="44.17572" lon="0.63764">
        <ele>93.50894</ele>
        <time>2022-12-29T14:52:02.910Z</time>
      </trkpt>
      <trkpt lat="44.17574" lon="0.63778">
        <ele>93.558656</ele>
        <time>2022-12-29T14:52:04.930Z</time>
      </trkpt>
      <trkpt lat="44.17575" lon="0.6379">
        <ele>93.604763</ele>
        <time>2022-12-29T14:52:06.910Z</time>
      </trkpt>
      <trkpt lat="44.17577" lon="0.63804">
        <ele>93.652365</ele>
        <time>2022-12-29T14:52:08.917Z</time>
      </trkpt>
      <trkpt lat="44.1758" lon="0.63821">
        <ele>93.717051</ele>
        <time>2022-12-29T14:52:11.923Z</time>
      </trkpt>
      <trkpt lat="44.17583" lon="0.63839">
        <ele>93.782868</ele>
        <time>2022-12-29T14:52:14.905Z</time>
      </trkpt>
      <trkpt lat="44.17584" lon="0.63852">
        <ele>93.828623</ele>
        <time>2022-12-29T14:52:16.911Z</time>
      </trkpt>
      <trkpt lat="44.17586" lon="0.63869">
        <ele>93.888804</ele>
        <time>2022-12-29T14:52:19.922Z</time>
      </trkpt>
      <trkpt lat="44.17587" lon="0.63883">
        <ele>93.940282</ele>
        <time>2022-12-29T14:52:22.932Z</time>
      </trkpt>
      <trkpt lat="44.17589" lon="0.63898">
        <ele>93.995672</ele>
        <time>2022-12-29T14:52:25.926Z</time>
      </trkpt>
      <trkpt lat="44.1759" lon="0.63916">
        <ele>94.074889</ele>
        <time>2022-12-29T14:52:28.913Z</time>
      </trkpt>
      <trkpt lat="44.1759" lon="0.63933">
        <ele>94.158348</ele>
        <time>2022-12-29T14:52:31.912Z</time>
      </trkpt>
      <trkpt lat="44.17585" lon="0.63945">
        <ele>94.222137</ele>
        <time>2022-12-29T14:52:34.903Z</time>
      </trkpt>
      <trkpt lat="44.17585" lon="0.63959">
        <ele>94.284502</ele>
        <time>2022-12-29T14:52:37.910Z</time>
      </trkpt>
      <trkpt lat="44.17591" lon="0.63969">
        <ele>94.3466</ele>
        <time>2022-12-29T14:52:41.917Z</time>
      </trkpt>
      <trkpt lat="44.17587" lon="0.63984">
        <ele>94.416766</ele>
        <time>2022-12-29T14:52:48.935Z</time>
      </trkpt>
      <trkpt lat="44.1759" lon="0.63996">
        <ele>94.478127</ele>
        <time>2022-12-29T14:52:54.911Z</time>
      </trkpt>
      <trkpt lat="44.17599" lon="0.63971">
        <ele>94.605858</ele>
        <time>2022-12-29T14:53:58.919Z</time>
      </trkpt>
      <trkpt lat="44.17607" lon="0.63964">
        <ele>94.665743</ele>
        <time>2022-12-29T14:54:01.910Z</time>
      </trkpt>
      <trkpt lat="44.17614" lon="0.63955">
        <ele>94.732027</ele>
        <time>2022-12-29T14:54:04.908Z</time>
      </trkpt>
      <trkpt lat="44.17623" lon="0.63949">
        <ele>94.795098</ele>
        <time>2022-12-29T14:54:07.908Z</time>
      </trkpt>
      <trkpt lat="44.17634" lon="0.63947">
        <ele>94.870852</ele>
        <time>2022-12-29T14:54:10.909Z</time>
      </trkpt>
      <trkpt lat="44.17646" lon="0.63945">
        <ele>94.950162</ele>
        <time>2022-12-29T14:54:13.909Z</time>
      </trkpt>
      <trkpt lat="44.17659" lon="0.63942">
        <ele>95.035501</ele>
        <time>2022-12-29T14:54:16.908Z</time>
      </trkpt>
      <trkpt lat="44.17671" lon="0.63939">
        <ele>95.115031</ele>
        <time>2022-12-29T14:54:19.906Z</time>
      </trkpt>
      <trkpt lat="44.17683" lon="0.63937">
        <ele>95.153645</ele>
        <time>2022-12-29T14:54:22.921Z</time>
      </trkpt>
      <trkpt lat="44.17692" lon="0.63935">
        <ele>94.995878</ele>
        <time>2022-12-29T14:54:24.918Z</time>
      </trkpt>
      <trkpt lat="44.17701" lon="0.63933">
        <ele>94.832938</ele>
        <time>2022-12-29T14:54:26.909Z</time>
      </trkpt>
      <trkpt lat="44.17711" lon="0.63931">
        <ele>94.659029</ele>
        <time>2022-12-29T14:54:28.928Z</time>
      </trkpt>
      <trkpt lat="44.1772" lon="0.63927">
        <ele>94.491301</ele>
        <time>2022-12-29T14:54:30.910Z</time>
      </trkpt>
      <trkpt lat="44.17729" lon="0.63924">
        <ele>94.327269</ele>
        <time>2022-12-29T14:54:32.904Z</time>
      </trkpt>
      <trkpt lat="44.17738" lon="0.63922">
        <ele>94.167345</ele>
        <time>2022-12-29T14:54:34.925Z</time>
      </trkpt>
      <trkpt lat="44.17751" lon="0.63918">
        <ele>93.929063</ele>
        <time>2022-12-29T14:54:37.909Z</time>
      </trkpt>
      <trkpt lat="44.17761" lon="0.63923">
        <ele>93.747096</ele>
        <time>2022-12-29T14:54:40.908Z</time>
      </trkpt>
      <trkpt lat="44.17766" lon="0.63935">
        <ele>93.574013</ele>
        <time>2022-12-29T14:54:43.900Z</time>
      </trkpt>
      <trkpt lat="44.17766" lon="0.63949">
        <ele>93.408098</ele>
        <time>2022-12-29T14:54:46.915Z</time>
      </trkpt>
      <trkpt lat="44.17767" lon="0.63963">
        <ele>93.222546</ele>
        <time>2022-12-29T14:54:49.919Z</time>
      </trkpt>
      <trkpt lat="44.17766" lon="0.6398">
        <ele>93.013028</ele>
        <time>2022-12-29T14:54:52.904Z</time>
      </trkpt>
      <trkpt lat="44.17764" lon="0.63997">
        <ele>92.795387</ele>
        <time>2022-12-29T14:54:55.915Z</time>
      </trkpt>
      <trkpt lat="44.17764" lon="0.64015">
        <ele>92.569208</ele>
        <time>2022-12-29T14:54:58.920Z</time>
      </trkpt>
      <trkpt lat="44.17763" lon="0.64034">
        <ele>92.339756</ele>
        <time>2022-12-29T14:55:01.910Z</time>
      </trkpt>
      <trkpt lat="44.17762" lon="0.64047">
        <ele>92.174705</ele>
        <time>2022-12-29T14:55:03.914Z</time>
      </trkpt>
      <trkpt lat="44.17761" lon="0.64059">
        <ele>92.030066</ele>
        <time>2022-12-29T14:55:05.911Z</time>
      </trkpt>
      <trkpt lat="44.1776" lon="0.64073">
        <ele>91.983237</ele>
        <time>2022-12-29T14:55:07.907Z</time>
      </trkpt>
      <trkpt lat="44.17759" lon="0.64086">
        <ele>91.93645</ele>
        <time>2022-12-29T14:55:09.909Z</time>
      </trkpt>
      <trkpt lat="44.17759" lon="0.64099">
        <ele>91.889744</ele>
        <time>2022-12-29T14:55:11.914Z</time>
      </trkpt>
      <trkpt lat="44.17758" lon="0.64112">
        <ele>91.845015</ele>
        <time>2022-12-29T14:55:13.908Z</time>
      </trkpt>
      <trkpt lat="44.17758" lon="0.6413">
        <ele>91.781389</ele>
        <time>2022-12-29T14:55:16.909Z</time>
      </trkpt>
      <trkpt lat="44.17756" lon="0.64148">
        <ele>91.717349</ele>
        <time>2022-12-29T14:55:19.912Z</time>
      </trkpt>
      <trkpt lat="44.17753" lon="0.64167">
        <ele>91.651587</ele>
        <time>2022-12-29T14:55:22.916Z</time>
      </trkpt>
      <trkpt lat="44.17752" lon="0.64184">
        <ele>91.589855</ele>
        <time>2022-12-29T14:55:25.905Z</time>
      </trkpt>
      <trkpt lat="44.17751" lon="0.642">
        <ele>91.53417</ele>
        <time>2022-12-29T14:55:28.904Z</time>
      </trkpt>
      <trkpt lat="44.17747" lon="0.64212">
        <ele>91.487979</ele>
        <time>2022-12-29T14:55:34.904Z</time>
      </trkpt>
      <trkpt lat="44.17738" lon="0.64211">
        <ele>91.443355</ele>
        <time>2022-12-29T14:55:40.919Z</time>
      </trkpt>
      <trkpt lat="44.17726" lon="0.64208">
        <ele>91.384081</ele>
        <time>2022-12-29T14:55:44.900Z</time>
      </trkpt>
      <trkpt lat="44.17715" lon="0.64206">
        <ele>91.329234</ele>
        <time>2022-12-29T14:55:47.921Z</time>
      </trkpt>
      <trkpt lat="44.17703" lon="0.64204">
        <ele>91.269755</ele>
        <time>2022-12-29T14:55:50.911Z</time>
      </trkpt>
      <trkpt lat="44.17691" lon="0.64202">
        <ele>91.209327</ele>
        <time>2022-12-29T14:55:53.913Z</time>
      </trkpt>
      <trkpt lat="44.17677" lon="0.642">
        <ele>91.154612</ele>
        <time>2022-12-29T14:55:56.913Z</time>
      </trkpt>
      <trkpt lat="44.17664" lon="0.64198">
        <ele>91.147905</ele>
        <time>2022-12-29T14:55:59.921Z</time>
      </trkpt>
      <trkpt lat="44.17655" lon="0.64196">
        <ele>91.143354</ele>
        <time>2022-12-29T14:56:01.922Z</time>
      </trkpt>
      <trkpt lat="44.17642" lon="0.64193">
        <ele>91.136902</ele>
        <time>2022-12-29T14:56:04.919Z</time>
      </trkpt>
      <trkpt lat="44.17631" lon="0.64191">
        <ele>91.131094</ele>
        <time>2022-12-29T14:56:07.918Z</time>
      </trkpt>
      <trkpt lat="44.17619" lon="0.6419">
        <ele>91.1255</ele>
        <time>2022-12-29T14:56:10.911Z</time>
      </trkpt>
      <trkpt lat="44.17607" lon="0.64189">
        <ele>91.119323</ele>
        <time>2022-12-29T14:56:13.919Z</time>
      </trkpt>
      <trkpt lat="44.17594" lon="0.64188">
        <ele>91.112634</ele>
        <time>2022-12-29T14:56:16.897Z</time>
      </trkpt>
      <trkpt lat="44.17581" lon="0.64185">
        <ele>91.106121</ele>
        <time>2022-12-29T14:56:19.905Z</time>
      </trkpt>
      <trkpt lat="44.17568" lon="0.64183">
        <ele>91.099892</ele>
        <time>2022-12-29T14:56:22.910Z</time>
      </trkpt>
      <trkpt lat="44.17557" lon="0.6418">
        <ele>91.09433</ele>
        <time>2022-12-29T14:56:25.919Z</time>
      </trkpt>
      <trkpt lat="44.17546" lon="0.64177">
        <ele>91.088413</ele>
        <time>2022-12-29T14:56:28.914Z</time>
      </trkpt>
      <trkpt lat="44.17533" lon="0.64176">
        <ele>91.082165</ele>
        <time>2022-12-29T14:56:31.920Z</time>
      </trkpt>
      <trkpt lat="44.17521" lon="0.64176">
        <ele>91.076284</ele>
        <time>2022-12-29T14:56:34.896Z</time>
      </trkpt>
      <trkpt lat="44.17511" lon="0.64177">
        <ele>91.07135</ele>
        <time>2022-12-29T14:56:37.917Z</time>
      </trkpt>
      <trkpt lat="44.175" lon="0.64178">
        <ele>91.065136</ele>
        <time>2022-12-29T14:56:41.923Z</time>
      </trkpt>
      <trkpt lat="44.17491" lon="0.64179">
        <ele>91.055523</ele>
        <time>2022-12-29T14:56:45.918Z</time>
      </trkpt>
      <trkpt lat="44.17483" lon="0.64158">
        <ele>91.037454</ele>
        <time>2022-12-29T14:57:52.915Z</time>
      </trkpt>
      <trkpt lat="44.17481" lon="0.64143">
        <ele>91.025806</ele>
        <time>2022-12-29T14:57:55.914Z</time>
      </trkpt>
      <trkpt lat="44.17479" lon="0.64126">
        <ele>91.012357</ele>
        <time>2022-12-29T14:57:58.918Z</time>
      </trkpt>
      <trkpt lat="44.17478" lon="0.64113">
        <ele>91.002567</ele>
        <time>2022-12-29T14:58:00.913Z</time>
      </trkpt>
      <trkpt lat="44.17477" lon="0.641">
        <ele>90.992276</ele>
        <time>2022-12-29T14:58:02.903Z</time>
      </trkpt>
      <trkpt lat="44.17475" lon="0.64086">
        <ele>90.981798</ele>
        <time>2022-12-29T14:58:04.905Z</time>
      </trkpt>
      <trkpt lat="44.17473" lon="0.64073">
        <ele>90.971182</ele>
        <time>2022-12-29T14:58:06.921Z</time>
      </trkpt>
      <trkpt lat="44.17471" lon="0.64059">
        <ele>90.960267</ele>
        <time>2022-12-29T14:58:08.923Z</time>
      </trkpt>
      <trkpt lat="44.17469" lon="0.64046">
        <ele>90.950239</ele>
        <time>2022-12-29T14:58:10.926Z</time>
      </trkpt>
      <trkpt lat="44.17466" lon="0.64028">
        <ele>90.936173</ele>
        <time>2022-12-29T14:58:13.904Z</time>
      </trkpt>
      <trkpt lat="44.17464" lon="0.6401">
        <ele>90.922161</ele>
        <time>2022-12-29T14:58:16.916Z</time>
      </trkpt>
      <trkpt lat="44.17463" lon="0.63997">
        <ele>90.912563</ele>
        <time>2022-12-29T14:58:18.914Z</time>
      </trkpt>
      <trkpt lat="44.17461" lon="0.63985">
        <ele>90.902799</ele>
        <time>2022-12-29T14:58:20.905Z</time>
      </trkpt>
      <trkpt lat="44.17459" lon="0.63972">
        <ele>90.892749</ele>
        <time>2022-12-29T14:58:22.910Z</time>
      </trkpt>
      <trkpt lat="44.17458" lon="0.63959">
        <ele>90.883035</ele>
        <time>2022-12-29T14:58:24.914Z</time>
      </trkpt>
      <trkpt lat="44.17456" lon="0.63946">
        <ele>90.885712</ele>
        <time>2022-12-29T14:58:26.914Z</time>
      </trkpt>
      <trkpt lat="44.17454" lon="0.63933">
        <ele>90.942994</ele>
        <time>2022-12-29T14:58:28.915Z</time>
      </trkpt>
      <trkpt lat="44.17453" lon="0.6392">
        <ele>90.998476</ele>
        <time>2022-12-29T14:58:30.910Z</time>
      </trkpt>
      <trkpt lat="44.17451" lon="0.63907">
        <ele>91.055106</ele>
        <time>2022-12-29T14:58:32.912Z</time>
      </trkpt>
      <trkpt lat="44.17449" lon="0.63894">
        <ele>91.110399</ele>
        <time>2022-12-29T14:58:34.916Z</time>
      </trkpt>
      <trkpt lat="44.17448" lon="0.63881">
        <ele>91.166341</ele>
        <time>2022-12-29T14:58:36.905Z</time>
      </trkpt>
      <trkpt lat="44.17445" lon="0.63863">
        <ele>91.242769</ele>
        <time>2022-12-29T14:58:39.908Z</time>
      </trkpt>
      <trkpt lat="44.17443" lon="0.63846">
        <ele>91.316157</ele>
        <time>2022-12-29T14:58:42.906Z</time>
      </trkpt>
      <trkpt lat="44.17442" lon="0.63834">
        <ele>91.369145</ele>
        <time>2022-12-29T14:58:44.912Z</time>
      </trkpt>
      <trkpt lat="44.17439" lon="0.63821">
        <ele>91.425263</ele>
        <time>2022-12-29T14:58:46.907Z</time>
      </trkpt>
      <trkpt lat="44.17438" lon="0.63808">
        <ele>91.480453</ele>
        <time>2022-12-29T14:58:48.912Z</time>
      </trkpt>
      <trkpt lat="44.17436" lon="0.63795">
        <ele>91.535746</ele>
        <time>2022-12-29T14:58:50.907Z</time>
      </trkpt>
      <trkpt lat="44.17434" lon="0.63782">
        <ele>91.592281</ele>
        <time>2022-12-29T14:58:52.916Z</time>
      </trkpt>
      <trkpt lat="44.17433" lon="0.63769">
        <ele>91.649428</ele>
        <time>2022-12-29T14:58:54.907Z</time>
      </trkpt>
      <trkpt lat="44.17431" lon="0.63756">
        <ele>91.704605</ele>
        <time>2022-12-29T14:58:56.913Z</time>
      </trkpt>
      <trkpt lat="44.17429" lon="0.63739">
        <ele>91.778095</ele>
        <time>2022-12-29T14:58:59.908Z</time>
      </trkpt>
      <trkpt lat="44.17427" lon="0.63724">
        <ele>91.843171</ele>
        <time>2022-12-29T14:59:02.911Z</time>
      </trkpt>
      <trkpt lat="44.17426" lon="0.63709">
        <ele>91.903311</ele>
        <time>2022-12-29T14:59:05.909Z</time>
      </trkpt>
      <trkpt lat="44.17426" lon="0.63694">
        <ele>91.969805</ele>
        <time>2022-12-29T14:59:08.904Z</time>
      </trkpt>
      <trkpt lat="44.17428" lon="0.6368">
        <ele>92.038684</ele>
        <time>2022-12-29T14:59:11.909Z</time>
      </trkpt>
      <trkpt lat="44.17429" lon="0.63666">
        <ele>92.102899</ele>
        <time>2022-12-29T14:59:14.904Z</time>
      </trkpt>
      <trkpt lat="44.17432" lon="0.63652">
        <ele>92.170665</ele>
        <time>2022-12-29T14:59:18.902Z</time>
      </trkpt>
      <trkpt lat="44.17434" lon="0.63639">
        <ele>92.236304</ele>
        <time>2022-12-29T14:59:23.906Z</time>
      </trkpt>
      <trkpt lat="44.17427" lon="0.6362">
        <ele>92.337826</ele>
        <time>2022-12-29T14:59:58.921Z</time>
      </trkpt>
      <trkpt lat="44.17418" lon="0.63614">
        <ele>92.405527</ele>
        <time>2022-12-29T15:00:02.913Z</time>
      </trkpt>
      <trkpt lat="44.17408" lon="0.6361">
        <ele>92.475125</ele>
        <time>2022-12-29T15:00:05.912Z</time>
      </trkpt>
      <trkpt lat="44.17396" lon="0.63611">
        <ele>92.549727</ele>
        <time>2022-12-29T15:00:08.917Z</time>
      </trkpt>
      <trkpt lat="44.17387" lon="0.6362">
        <ele>92.622701</ele>
        <time>2022-12-29T15:00:11.908Z</time>
      </trkpt>
      <trkpt lat="44.1738" lon="0.63631">
        <ele>92.692465</ele>
        <time>2022-12-29T15:00:14.906Z</time>
      </trkpt>
      <trkpt lat="44.1737" lon="0.6364">
        <ele>92.766522</ele>
        <time>2022-12-29T15:00:17.907Z</time>
      </trkpt>
      <trkpt lat="44.17358" lon="0.63645">
        <ele>92.854242</ele>
        <time>2022-12-29T15:00:20.917Z</time>
      </trkpt>
      <trkpt lat="44.17346" lon="0.63651">
        <ele>92.935453</ele>
        <time>2022-12-29T15:00:23.908Z</time>
      </trkpt>
      <trkpt lat="44.17336" lon="0.63657">
        <ele>93.007701</ele>
        <time>2022-12-29T15:00:26.918Z</time>
      </trkpt>
      <trkpt lat="44.17327" lon="0.63664">
        <ele>93.07685</ele>
        <time>2022-12-29T15:00:29.902Z</time>
      </trkpt>
      <trkpt lat="44.17317" lon="0.63673">
        <ele>93.060576</ele>
        <time>2022-12-29T15:00:32.905Z</time>
      </trkpt>
      <trkpt lat="44.17306" lon="0.63683">
        <ele>92.934742</ele>
        <time>2022-12-29T15:00:35.928Z</time>
      </trkpt>
      <trkpt lat="44.17298" lon="0.63691">
        <ele>92.843987</ele>
        <time>2022-12-29T15:00:37.911Z</time>
      </trkpt>
      <trkpt lat="44.1729" lon="0.63699">
        <ele>92.752365</ele>
        <time>2022-12-29T15:00:39.918Z</time>
      </trkpt>
      <trkpt lat="44.17283" lon="0.63707">
        <ele>92.661081</ele>
        <time>2022-12-29T15:00:41.916Z</time>
      </trkpt>
      <trkpt lat="44.17275" lon="0.63715">
        <ele>92.567765</ele>
        <time>2022-12-29T15:00:43.913Z</time>
      </trkpt>
      <trkpt lat="44.17268" lon="0.63725">
        <ele>92.471367</ele>
        <time>2022-12-29T15:00:45.905Z</time>
      </trkpt>
      <trkpt lat="44.1726" lon="0.63734">
        <ele>92.376143</ele>
        <time>2022-12-29T15:00:47.904Z</time>
      </trkpt>
      <trkpt lat="44.17253" lon="0.63743">
        <ele>92.282812</ele>
        <time>2022-12-29T15:00:49.907Z</time>
      </trkpt>
      <trkpt lat="44.17246" lon="0.63753">
        <ele>92.184312</ele>
        <time>2022-12-29T15:00:51.903Z</time>
      </trkpt>
      <trkpt lat="44.17239" lon="0.63762">
        <ele>92.092871</ele>
        <time>2022-12-29T15:00:53.908Z</time>
      </trkpt>
      <trkpt lat="44.17231" lon="0.63771">
        <ele>91.993399</ele>
        <time>2022-12-29T15:00:55.901Z</time>
      </trkpt>
      <trkpt lat="44.17224" lon="0.63782">
        <ele>91.897368</ele>
        <time>2022-12-29T15:00:57.908Z</time>
      </trkpt>
      <trkpt lat="44.17217" lon="0.63791">
        <ele>91.803484</ele>
        <time>2022-12-29T15:00:59.908Z</time>
      </trkpt>
      <trkpt lat="44.1721" lon="0.638">
        <ele>91.712448</ele>
        <time>2022-12-29T15:01:01.913Z</time>
      </trkpt>
      <trkpt lat="44.17203" lon="0.63809">
        <ele>91.620781</ele>
        <time>2022-12-29T15:01:03.907Z</time>
      </trkpt>
      <trkpt lat="44.17196" lon="0.63818">
        <ele>91.532361</ele>
        <time>2022-12-29T15:01:05.905Z</time>
      </trkpt>
      <trkpt lat="44.17189" lon="0.63828">
        <ele>91.438584</ele>
        <time>2022-12-29T15:01:07.914Z</time>
      </trkpt>
      <trkpt lat="44.17183" lon="0.63836">
        <ele>91.434299</ele>
        <time>2022-12-29T15:01:09.910Z</time>
      </trkpt>
      <trkpt lat="44.17175" lon="0.63845">
        <ele>91.524781</ele>
        <time>2022-12-29T15:01:11.903Z</time>
      </trkpt>
      <trkpt lat="44.17168" lon="0.63855">
        <ele>91.613211</ele>
        <time>2022-12-29T15:01:13.915Z</time>
      </trkpt>
      <trkpt lat="44.17161" lon="0.63864">
        <ele>91.703959</ele>
        <time>2022-12-29T15:01:15.911Z</time>
      </trkpt>
      <trkpt lat="44.17151" lon="0.63876">
        <ele>91.82345</ele>
        <time>2022-12-29T15:01:18.911Z</time>
      </trkpt>
      <trkpt lat="44.17142" lon="0.63887">
        <ele>91.935734</ele>
        <time>2022-12-29T15:01:21.907Z</time>
      </trkpt>
      <trkpt lat="44.17134" lon="0.63898">
        <ele>92.041708</ele>
        <time>2022-12-29T15:01:24.905Z</time>
      </trkpt>
      <trkpt lat="44.17126" lon="0.63907">
        <ele>92.134162</ele>
        <time>2022-12-29T15:01:27.915Z</time>
      </trkpt>
      <trkpt lat="44.17118" lon="0.63916">
        <ele>92.231375</ele>
        <time>2022-12-29T15:01:31.911Z</time>
      </trkpt>
      <trkpt lat="44.17105" lon="0.63933">
        <ele>92.398803</ele>
        <time>2022-12-29T15:02:43.903Z</time>
      </trkpt>
      <trkpt lat="44.17096" lon="0.63943">
        <ele>92.499727</ele>
        <time>2022-12-29T15:02:46.913Z</time>
      </trkpt>
      <trkpt lat="44.17087" lon="0.63954">
        <ele>92.609842</ele>
        <time>2022-12-29T15:02:49.917Z</time>
      </trkpt>
      <trkpt lat="44.17078" lon="0.63963">
        <ele>92.711886</ele>
        <time>2022-12-29T15:02:52.920Z</time>
      </trkpt>
      <trkpt lat="44.17068" lon="0.63971">
        <ele>92.820376</ele>
        <time>2022-12-29T15:02:56.918Z</time>
      </trkpt>
      <trkpt lat="44.17058" lon="0.6398">
        <ele>92.925448</ele>
        <time>2022-12-29T15:03:00.917Z</time>
      </trkpt>
      <trkpt lat="44.17051" lon="0.63989">
        <ele>93.01513</ele>
        <time>2022-12-29T15:03:03.918Z</time>
      </trkpt>
      <trkpt lat="44.17041" lon="0.63998">
        <ele>92.972038</ele>
        <time>2022-12-29T15:03:06.921Z</time>
      </trkpt>
      <trkpt lat="44.1703" lon="0.64008">
        <ele>92.850376</ele>
        <time>2022-12-29T15:03:09.895Z</time>
      </trkpt>
      <trkpt lat="44.17019" lon="0.64018">
        <ele>92.733718</ele>
        <time>2022-12-29T15:03:12.919Z</time>
      </trkpt>
      <trkpt lat="44.17011" lon="0.64025">
        <ele>92.64503</ele>
        <time>2022-12-29T15:03:14.895Z</time>
      </trkpt>
      <trkpt lat="44.17003" lon="0.64032">
        <ele>92.555167</ele>
        <time>2022-12-29T15:03:16.918Z</time>
      </trkpt>
      <trkpt lat="44.16995" lon="0.6404">
        <ele>92.461874</ele>
        <time>2022-12-29T15:03:18.909Z</time>
      </trkpt>
      <trkpt lat="44.16987" lon="0.64048">
        <ele>92.367434</ele>
        <time>2022-12-29T15:03:20.917Z</time>
      </trkpt>
      <trkpt lat="44.16978" lon="0.64056">
        <ele>92.27067</ele>
        <time>2022-12-29T15:03:22.915Z</time>
      </trkpt>
      <trkpt lat="44.16969" lon="0.64065">
        <ele>92.172422</ele>
        <time>2022-12-29T15:03:24.908Z</time>
      </trkpt>
      <trkpt lat="44.1696" lon="0.64073">
        <ele>92.070655</ele>
        <time>2022-12-29T15:03:26.917Z</time>
      </trkpt>
      <trkpt lat="44.16951" lon="0.64081">
        <ele>91.972745</ele>
        <time>2022-12-29T15:03:28.925Z</time>
      </trkpt>
      <trkpt lat="44.16942" lon="0.64089">
        <ele>91.870616</ele>
        <time>2022-12-29T15:03:30.919Z</time>
      </trkpt>
      <trkpt lat="44.16933" lon="0.64097">
        <ele>91.774632</ele>
        <time>2022-12-29T15:03:32.920Z</time>
      </trkpt>
      <trkpt lat="44.16924" lon="0.64105">
        <ele>91.673931</ele>
        <time>2022-12-29T15:03:34.912Z</time>
      </trkpt>
      <trkpt lat="44.16916" lon="0.64113">
        <ele>91.577596</ele>
        <time>2022-12-29T15:03:36.898Z</time>
      </trkpt>
      <trkpt lat="44.16907" lon="0.64121">
        <ele>91.48234</ele>
        <time>2022-12-29T15:03:38.898Z</time>
      </trkpt>
      <trkpt lat="44.16898" lon="0.64129">
        <ele>91.382076</ele>
        <time>2022-12-29T15:03:40.897Z</time>
      </trkpt>
      <trkpt lat="44.16889" lon="0.64137">
        <ele>91.336969</ele>
        <time>2022-12-29T15:03:42.902Z</time>
      </trkpt>
      <trkpt lat="44.1688" lon="0.64145">
        <ele>91.297183</ele>
        <time>2022-12-29T15:03:44.903Z</time>
      </trkpt>
      <trkpt lat="44.16871" lon="0.64152">
        <ele>91.2587</ele>
        <time>2022-12-29T15:03:46.903Z</time>
      </trkpt>
      <trkpt lat="44.16862" lon="0.64161">
        <ele>91.217038</ele>
        <time>2022-12-29T15:03:48.916Z</time>
      </trkpt>
      <trkpt lat="44.16852" lon="0.6417">
        <ele>91.174377</ele>
        <time>2022-12-29T15:03:50.917Z</time>
      </trkpt>
      <trkpt lat="44.16843" lon="0.64177">
        <ele>91.134454</ele>
        <time>2022-12-29T15:03:52.912Z</time>
      </trkpt>
      <trkpt lat="44.16833" lon="0.64185">
        <ele>91.093937</ele>
        <time>2022-12-29T15:03:54.914Z</time>
      </trkpt>
      <trkpt lat="44.16825" lon="0.64193">
        <ele>91.054996</ele>
        <time>2022-12-29T15:03:56.897Z</time>
      </trkpt>
      <trkpt lat="44.16816" lon="0.642">
        <ele>91.018213</ele>
        <time>2022-12-29T15:03:58.904Z</time>
      </trkpt>
      <trkpt lat="44.16806" lon="0.64207">
        <ele>90.977034</ele>
        <time>2022-12-29T15:04:00.919Z</time>
      </trkpt>
      <trkpt lat="44.16797" lon="0.64216">
        <ele>90.93415</ele>
        <time>2022-12-29T15:04:02.918Z</time>
      </trkpt>
      <trkpt lat="44.16788" lon="0.64225">
        <ele>90.893386</ele>
        <time>2022-12-29T15:04:04.922Z</time>
      </trkpt>
      <trkpt lat="44.16778" lon="0.64234">
        <ele>90.850183</ele>
        <time>2022-12-29T15:04:06.920Z</time>
      </trkpt>
      <trkpt lat="44.16769" lon="0.64244">
        <ele>90.808344</ele>
        <time>2022-12-29T15:04:08.914Z</time>
      </trkpt>
      <trkpt lat="44.1676" lon="0.64252">
        <ele>90.765761</ele>
        <time>2022-12-29T15:04:10.912Z</time>
      </trkpt>
      <trkpt lat="44.1675" lon="0.64261">
        <ele>90.723635</ele>
        <time>2022-12-29T15:04:12.918Z</time>
      </trkpt>
      <trkpt lat="44.1674" lon="0.6427">
        <ele>90.721245</ele>
        <time>2022-12-29T15:04:14.918Z</time>
      </trkpt>
      <trkpt lat="44.16731" lon="0.64278">
        <ele>90.746263</ele>
        <time>2022-12-29T15:04:16.918Z</time>
      </trkpt>
      <trkpt lat="44.16722" lon="0.64287">
        <ele>90.772106</ele>
        <time>2022-12-29T15:04:18.910Z</time>
      </trkpt>
      <trkpt lat="44.16712" lon="0.64296">
        <ele>90.799173</ele>
        <time>2022-12-29T15:04:20.918Z</time>
      </trkpt>
      <trkpt lat="44.16701" lon="0.64305">
        <ele>90.828159</ele>
        <time>2022-12-29T15:04:22.918Z</time>
      </trkpt>
      <trkpt lat="44.16691" lon="0.64314">
        <ele>90.855391</ele>
        <time>2022-12-29T15:04:24.915Z</time>
      </trkpt>
      <trkpt lat="44.16682" lon="0.64323">
        <ele>90.880943</ele>
        <time>2022-12-29T15:04:26.918Z</time>
      </trkpt>
      <trkpt lat="44.16673" lon="0.64332">
        <ele>90.905744</ele>
        <time>2022-12-29T15:04:28.915Z</time>
      </trkpt>
      <trkpt lat="44.16663" lon="0.6434">
        <ele>90.931577</ele>
        <time>2022-12-29T15:04:30.918Z</time>
      </trkpt>
      <trkpt lat="44.16654" lon="0.64349">
        <ele>90.956477</ele>
        <time>2022-12-29T15:04:32.918Z</time>
      </trkpt>
      <trkpt lat="44.16645" lon="0.64357">
        <ele>90.980741</ele>
        <time>2022-12-29T15:04:34.914Z</time>
      </trkpt>
      <trkpt lat="44.16635" lon="0.64365">
        <ele>91.006486</ele>
        <time>2022-12-29T15:04:36.921Z</time>
      </trkpt>
      <trkpt lat="44.16626" lon="0.64373">
        <ele>91.031207</ele>
        <time>2022-12-29T15:04:38.920Z</time>
      </trkpt>
      <trkpt lat="44.16616" lon="0.64381">
        <ele>91.057629</ele>
        <time>2022-12-29T15:04:40.919Z</time>
      </trkpt>
      <trkpt lat="44.16607" lon="0.64388">
        <ele>91.082503</ele>
        <time>2022-12-29T15:04:42.917Z</time>
      </trkpt>
      <trkpt lat="44.16599" lon="0.64397">
        <ele>91.105633</ele>
        <time>2022-12-29T15:04:44.916Z</time>
      </trkpt>
      <trkpt lat="44.16589" lon="0.64405">
        <ele>91.18004</ele>
        <time>2022-12-29T15:04:46.919Z</time>
      </trkpt>
      <trkpt lat="44.16581" lon="0.64413">
        <ele>91.275596</ele>
        <time>2022-12-29T15:04:48.927Z</time>
      </trkpt>
      <trkpt lat="44.16573" lon="0.64421">
        <ele>91.369957</ele>
        <time>2022-12-29T15:04:50.920Z</time>
      </trkpt>
      <trkpt lat="44.16564" lon="0.64429">
        <ele>91.469782</ele>
        <time>2022-12-29T15:04:52.920Z</time>
      </trkpt>
      <trkpt lat="44.16555" lon="0.64437">
        <ele>91.567594</ele>
        <time>2022-12-29T15:04:54.910Z</time>
      </trkpt>
      <trkpt lat="44.16547" lon="0.64445">
        <ele>91.660783</ele>
        <time>2022-12-29T15:04:56.915Z</time>
      </trkpt>
      <trkpt lat="44.16539" lon="0.64453">
        <ele>91.757914</ele>
        <time>2022-12-29T15:04:58.918Z</time>
      </trkpt>
      <trkpt lat="44.16532" lon="0.64462">
        <ele>91.850659</ele>
        <time>2022-12-29T15:05:00.918Z</time>
      </trkpt>
      <trkpt lat="44.16524" lon="0.64471">
        <ele>91.946071</ele>
        <time>2022-12-29T15:05:02.916Z</time>
      </trkpt>
      <trkpt lat="44.16516" lon="0.6448">
        <ele>92.042938</ele>
        <time>2022-12-29T15:05:04.916Z</time>
      </trkpt>
      <trkpt lat="44.16508" lon="0.6449">
        <ele>92.146498</ele>
        <time>2022-12-29T15:05:06.918Z</time>
      </trkpt>
      <trkpt lat="44.165" lon="0.645">
        <ele>92.244678</ele>
        <time>2022-12-29T15:05:08.897Z</time>
      </trkpt>
      <trkpt lat="44.16493" lon="0.6451">
        <ele>92.345408</ele>
        <time>2022-12-29T15:05:10.897Z</time>
      </trkpt>
      <trkpt lat="44.16484" lon="0.6452">
        <ele>92.450546</ele>
        <time>2022-12-29T15:05:12.918Z</time>
      </trkpt>
      <trkpt lat="44.16477" lon="0.64531">
        <ele>92.556201</ele>
        <time>2022-12-29T15:05:14.900Z</time>
      </trkpt>
      <trkpt lat="44.16469" lon="0.64543">
        <ele>92.665432</ele>
        <time>2022-12-29T15:05:16.917Z</time>
      </trkpt>
      <trkpt lat="44.16461" lon="0.64552">
        <ele>92.762217</ele>
        <time>2022-12-29T15:05:18.918Z</time>
      </trkpt>
      <trkpt lat="44.16453" lon="0.64562">
        <ele>92.83785</ele>
        <time>2022-12-29T15:05:20.917Z</time>
      </trkpt>
      <trkpt lat="44.16445" lon="0.64572">
        <ele>92.868433</ele>
        <time>2022-12-29T15:05:22.906Z</time>
      </trkpt>
      <trkpt lat="44.16438" lon="0.64582">
        <ele>92.900786</ele>
        <time>2022-12-29T15:05:24.918Z</time>
      </trkpt>
      <trkpt lat="44.1643" lon="0.64593">
        <ele>92.933806</ele>
        <time>2022-12-29T15:05:26.920Z</time>
      </trkpt>
      <trkpt lat="44.16422" lon="0.64603">
        <ele>92.966672</ele>
        <time>2022-12-29T15:05:28.916Z</time>
      </trkpt>
      <trkpt lat="44.16414" lon="0.64614">
        <ele>93.000253</ele>
        <time>2022-12-29T15:05:30.919Z</time>
      </trkpt>
      <trkpt lat="44.16406" lon="0.64625">
        <ele>93.033476</ele>
        <time>2022-12-29T15:05:32.919Z</time>
      </trkpt>
      <trkpt lat="44.16397" lon="0.64635">
        <ele>93.067162</ele>
        <time>2022-12-29T15:05:34.920Z</time>
      </trkpt>
      <trkpt lat="44.16389" lon="0.64645">
        <ele>93.099886</ele>
        <time>2022-12-29T15:05:36.920Z</time>
      </trkpt>
      <trkpt lat="44.16381" lon="0.64654">
        <ele>93.131708</ele>
        <time>2022-12-29T15:05:38.908Z</time>
      </trkpt>
      <trkpt lat="44.16373" lon="0.64662">
        <ele>93.161902</ele>
        <time>2022-12-29T15:05:40.917Z</time>
      </trkpt>
      <trkpt lat="44.16364" lon="0.6467">
        <ele>93.192707</ele>
        <time>2022-12-29T15:05:42.915Z</time>
      </trkpt>
      <trkpt lat="44.16356" lon="0.64679">
        <ele>93.224131</ele>
        <time>2022-12-29T15:05:44.903Z</time>
      </trkpt>
      <trkpt lat="44.16347" lon="0.64686">
        <ele>93.255038</ele>
        <time>2022-12-29T15:05:46.923Z</time>
      </trkpt>
      <trkpt lat="44.16337" lon="0.64693">
        <ele>93.286315</ele>
        <time>2022-12-29T15:05:48.907Z</time>
      </trkpt>
      <trkpt lat="44.16328" lon="0.647">
        <ele>93.319389</ele>
        <time>2022-12-29T15:05:50.917Z</time>
      </trkpt>
      <trkpt lat="44.16318" lon="0.64707">
        <ele>93.352443</ele>
        <time>2022-12-29T15:05:52.919Z</time>
      </trkpt>
      <trkpt lat="44.16309" lon="0.64714">
        <ele>93.349206</ele>
        <time>2022-12-29T15:05:54.918Z</time>
      </trkpt>
      <trkpt lat="44.163" lon="0.64722">
        <ele>93.319881</ele>
        <time>2022-12-29T15:05:56.920Z</time>
      </trkpt>
      <trkpt lat="44.16291" lon="0.64729">
        <ele>93.292315</ele>
        <time>2022-12-29T15:05:58.917Z</time>
      </trkpt>
      <trkpt lat="44.16282" lon="0.64737">
        <ele>93.264709</ele>
        <time>2022-12-29T15:06:00.918Z</time>
      </trkpt>
      <trkpt lat="44.16274" lon="0.64744">
        <ele>93.239347</ele>
        <time>2022-12-29T15:06:02.912Z</time>
      </trkpt>
      <trkpt lat="44.16263" lon="0.64753">
        <ele>93.204963</ele>
        <time>2022-12-29T15:06:05.920Z</time>
      </trkpt>
      <trkpt lat="44.16252" lon="0.64761">
        <ele>93.170343</ele>
        <time>2022-12-29T15:06:08.922Z</time>
      </trkpt>
      <trkpt lat="44.16243" lon="0.64769">
        <ele>93.140648</ele>
        <time>2022-12-29T15:06:11.921Z</time>
      </trkpt>
      <trkpt lat="44.16233" lon="0.64777">
        <ele>93.110481</ele>
        <time>2022-12-29T15:06:14.906Z</time>
      </trkpt>
      <trkpt lat="44.16224" lon="0.64782">
        <ele>93.084008</ele>
        <time>2022-12-29T15:06:17.919Z</time>
      </trkpt>
      <trkpt lat="44.16214" lon="0.64788">
        <ele>93.053711</ele>
        <time>2022-12-29T15:06:21.916Z</time>
      </trkpt>
      <trkpt lat="44.16213" lon="0.64806">
        <ele>93.019589</ele>
        <time>2022-12-29T15:09:19.941Z</time>
      </trkpt>
      <trkpt lat="44.16217" lon="0.6482">
        <ele>92.989219</ele>
        <time>2022-12-29T15:09:25.903Z</time>
      </trkpt>
      <trkpt lat="44.16224" lon="0.64832">
        <ele>92.959825</ele>
        <time>2022-12-29T15:09:28.893Z</time>
      </trkpt>
      <trkpt lat="44.16229" lon="0.64843">
        <ele>92.934169</ele>
        <time>2022-12-29T15:09:30.913Z</time>
      </trkpt>
      <trkpt lat="44.16234" lon="0.64854">
        <ele>92.90888</ele>
        <time>2022-12-29T15:09:32.898Z</time>
      </trkpt>
      <trkpt lat="44.16239" lon="0.64865">
        <ele>92.884252</ele>
        <time>2022-12-29T15:09:34.906Z</time>
      </trkpt>
      <trkpt lat="44.16244" lon="0.64877">
        <ele>92.888613</ele>
        <time>2022-12-29T15:09:36.917Z</time>
      </trkpt>
      <trkpt lat="44.1625" lon="0.64893">
        <ele>92.906528</ele>
        <time>2022-12-29T15:09:39.904Z</time>
      </trkpt>
      <trkpt lat="44.16257" lon="0.64907">
        <ele>92.922804</ele>
        <time>2022-12-29T15:09:42.917Z</time>
      </trkpt>
      <trkpt lat="44.16264" lon="0.64917">
        <ele>92.936401</ele>
        <time>2022-12-29T15:09:46.907Z</time>
      </trkpt>
      <trkpt lat="44.16279" lon="0.64927">
        <ele>92.959445</ele>
        <time>2022-12-29T15:11:21.949Z</time>
      </trkpt>
      <trkpt lat="44.16288" lon="0.64934">
        <ele>92.973285</ele>
        <time>2022-12-29T15:11:24.903Z</time>
      </trkpt>
      <trkpt lat="44.16299" lon="0.64941">
        <ele>92.989379</ele>
        <time>2022-12-29T15:11:27.910Z</time>
      </trkpt>
      <trkpt lat="44.1631" lon="0.64949">
        <ele>93.006737</ele>
        <time>2022-12-29T15:11:30.904Z</time>
      </trkpt>
      <trkpt lat="44.16322" lon="0.64959">
        <ele>93.025499</ele>
        <time>2022-12-29T15:11:33.919Z</time>
      </trkpt>
      <trkpt lat="44.1633" lon="0.64964">
        <ele>93.038381</ele>
        <time>2022-12-29T15:11:35.910Z</time>
      </trkpt>
      <trkpt lat="44.16339" lon="0.64971">
        <ele>93.051412</ele>
        <time>2022-12-29T15:11:37.920Z</time>
      </trkpt>
      <trkpt lat="44.16347" lon="0.64977">
        <ele>93.064094</ele>
        <time>2022-12-29T15:11:39.903Z</time>
      </trkpt>
      <trkpt lat="44.16356" lon="0.64982">
        <ele>93.076979</ele>
        <time>2022-12-29T15:11:41.919Z</time>
      </trkpt>
      <trkpt lat="44.16365" lon="0.64986">
        <ele>93.089579</ele>
        <time>2022-12-29T15:11:43.910Z</time>
      </trkpt>
      <trkpt lat="44.16374" lon="0.64989">
        <ele>93.10244</ele>
        <time>2022-12-29T15:11:45.919Z</time>
      </trkpt>
      <trkpt lat="44.16383" lon="0.64991">
        <ele>93.115683</ele>
        <time>2022-12-29T15:11:47.919Z</time>
      </trkpt>
      <trkpt lat="44.16393" lon="0.64993">
        <ele>93.134767</ele>
        <time>2022-12-29T15:11:49.898Z</time>
      </trkpt>
      <trkpt lat="44.16402" lon="0.64995">
        <ele>93.164539</ele>
        <time>2022-12-29T15:11:51.903Z</time>
      </trkpt>
      <trkpt lat="44.16412" lon="0.64997">
        <ele>93.193791</ele>
        <time>2022-12-29T15:11:53.916Z</time>
      </trkpt>
      <trkpt lat="44.16422" lon="0.65">
        <ele>93.223672</ele>
        <time>2022-12-29T15:11:55.921Z</time>
      </trkpt>
      <trkpt lat="44.16432" lon="0.65003">
        <ele>93.254983</ele>
        <time>2022-12-29T15:11:57.920Z</time>
      </trkpt>
      <trkpt lat="44.16442" lon="0.65006">
        <ele>93.286752</ele>
        <time>2022-12-29T15:11:59.923Z</time>
      </trkpt>
      <trkpt lat="44.16452" lon="0.65009">
        <ele>93.317624</ele>
        <time>2022-12-29T15:12:01.918Z</time>
      </trkpt>
      <trkpt lat="44.16463" lon="0.65013">
        <ele>93.350329</ele>
        <time>2022-12-29T15:12:03.919Z</time>
      </trkpt>
      <trkpt lat="44.16473" lon="0.65018">
        <ele>93.382334</ele>
        <time>2022-12-29T15:12:05.917Z</time>
      </trkpt>
      <trkpt lat="44.16483" lon="0.65024">
        <ele>93.41344</ele>
        <time>2022-12-29T15:12:07.918Z</time>
      </trkpt>
      <trkpt lat="44.16493" lon="0.65029">
        <ele>93.446164</ele>
        <time>2022-12-29T15:12:09.919Z</time>
      </trkpt>
      <trkpt lat="44.16502" lon="0.65035">
        <ele>93.476824</ele>
        <time>2022-12-29T15:12:11.918Z</time>
      </trkpt>
      <trkpt lat="44.16511" lon="0.65041">
        <ele>93.507381</ele>
        <time>2022-12-29T15:12:13.918Z</time>
      </trkpt>
      <trkpt lat="44.16521" lon="0.65047">
        <ele>93.538027</ele>
        <time>2022-12-29T15:12:15.910Z</time>
      </trkpt>
      <trkpt lat="44.1653" lon="0.65052">
        <ele>93.568203</ele>
        <time>2022-12-29T15:12:17.918Z</time>
      </trkpt>
      <trkpt lat="44.16539" lon="0.65057">
        <ele>93.59749</ele>
        <time>2022-12-29T15:12:19.923Z</time>
      </trkpt>
      <trkpt lat="44.16548" lon="0.65063">
        <ele>93.628771</ele>
        <time>2022-12-29T15:12:21.916Z</time>
      </trkpt>
      <trkpt lat="44.16558" lon="0.65069">
        <ele>93.659624</ele>
        <time>2022-12-29T15:12:23.921Z</time>
      </trkpt>
      <trkpt lat="44.16568" lon="0.65074">
        <ele>93.659619</ele>
        <time>2022-12-29T15:12:25.932Z</time>
      </trkpt>
      <trkpt lat="44.16577" lon="0.6508">
        <ele>93.656664</ele>
        <time>2022-12-29T15:12:27.919Z</time>
      </trkpt>
      <trkpt lat="44.16586" lon="0.65084">
        <ele>93.653728</ele>
        <time>2022-12-29T15:12:29.915Z</time>
      </trkpt>
      <trkpt lat="44.16596" lon="0.65089">
        <ele>93.650703</ele>
        <time>2022-12-29T15:12:31.919Z</time>
      </trkpt>
      <trkpt lat="44.16605" lon="0.65094">
        <ele>93.647939</ele>
        <time>2022-12-29T15:12:33.916Z</time>
      </trkpt>
      <trkpt lat="44.16615" lon="0.65099">
        <ele>93.644886</ele>
        <time>2022-12-29T15:12:35.920Z</time>
      </trkpt>
      <trkpt lat="44.16624" lon="0.65104">
        <ele>93.641957</ele>
        <time>2022-12-29T15:12:37.922Z</time>
      </trkpt>
      <trkpt lat="44.16634" lon="0.65108">
        <ele>93.638945</ele>
        <time>2022-12-29T15:12:39.921Z</time>
      </trkpt>
      <trkpt lat="44.16643" lon="0.65112">
        <ele>93.636041</ele>
        <time>2022-12-29T15:12:41.921Z</time>
      </trkpt>
      <trkpt lat="44.16652" lon="0.65117">
        <ele>93.633312</ele>
        <time>2022-12-29T15:12:43.918Z</time>
      </trkpt>
      <trkpt lat="44.16665" lon="0.65123">
        <ele>93.629303</ele>
        <time>2022-12-29T15:12:46.919Z</time>
      </trkpt>
      <trkpt lat="44.16676" lon="0.65133">
        <ele>93.625602</ele>
        <time>2022-12-29T15:12:49.934Z</time>
      </trkpt>
      <trkpt lat="44.16682" lon="0.65142">
        <ele>93.622837</ele>
        <time>2022-12-29T15:12:51.920Z</time>
      </trkpt>
      <trkpt lat="44.1669" lon="0.65151">
        <ele>93.619923</ele>
        <time>2022-12-29T15:12:53.919Z</time>
      </trkpt>
      <trkpt lat="44.16695" lon="0.65162">
        <ele>93.617118</ele>
        <time>2022-12-29T15:12:55.920Z</time>
      </trkpt>
      <trkpt lat="44.167" lon="0.65175">
        <ele>93.614082</ele>
        <time>2022-12-29T15:12:57.919Z</time>
      </trkpt>
      <trkpt lat="44.16704" lon="0.65189">
        <ele>93.610881</ele>
        <time>2022-12-29T15:12:59.924Z</time>
      </trkpt>
      <trkpt lat="44.16708" lon="0.65203">
        <ele>93.600739</ele>
        <time>2022-12-29T15:13:01.918Z</time>
      </trkpt>
      <trkpt lat="44.16712" lon="0.65216">
        <ele>93.586827</ele>
        <time>2022-12-29T15:13:03.919Z</time>
      </trkpt>
      <trkpt lat="44.16716" lon="0.65229">
        <ele>93.572807</ele>
        <time>2022-12-29T15:13:05.920Z</time>
      </trkpt>
      <trkpt lat="44.16721" lon="0.65243">
        <ele>93.558871</ele>
        <time>2022-12-29T15:13:07.926Z</time>
      </trkpt>
      <trkpt lat="44.16726" lon="0.65255">
        <ele>93.545101</ele>
        <time>2022-12-29T15:13:09.922Z</time>
      </trkpt>
      <trkpt lat="44.16731" lon="0.65267">
        <ele>93.531551</ele>
        <time>2022-12-29T15:13:11.924Z</time>
      </trkpt>
      <trkpt lat="44.16737" lon="0.65278">
        <ele>93.517845</ele>
        <time>2022-12-29T15:13:13.923Z</time>
      </trkpt>
      <trkpt lat="44.16743" lon="0.65291">
        <ele>93.50336</ele>
        <time>2022-12-29T15:13:15.912Z</time>
      </trkpt>
      <trkpt lat="44.1675" lon="0.65303">
        <ele>93.488874</ele>
        <time>2022-12-29T15:13:17.921Z</time>
      </trkpt>
      <trkpt lat="44.16755" lon="0.65314">
        <ele>93.475478</ele>
        <time>2022-12-29T15:13:19.917Z</time>
      </trkpt>
      <trkpt lat="44.16761" lon="0.65325">
        <ele>93.462637</ele>
        <time>2022-12-29T15:13:21.920Z</time>
      </trkpt>
      <trkpt lat="44.16766" lon="0.65338">
        <ele>93.448908</ele>
        <time>2022-12-29T15:13:23.920Z</time>
      </trkpt>
      <trkpt lat="44.16772" lon="0.65349">
        <ele>93.434968</ele>
        <time>2022-12-29T15:13:25.914Z</time>
      </trkpt>
      <trkpt lat="44.16778" lon="0.65361">
        <ele>93.421034</ele>
        <time>2022-12-29T15:13:27.920Z</time>
      </trkpt>
      <trkpt lat="44.16785" lon="0.65373">
        <ele>93.406628</ele>
        <time>2022-12-29T15:13:29.918Z</time>
      </trkpt>
      <trkpt lat="44.16791" lon="0.65385">
        <ele>93.392286</ele>
        <time>2022-12-29T15:13:31.917Z</time>
      </trkpt>
      <trkpt lat="44.16796" lon="0.65398">
        <ele>93.378228</ele>
        <time>2022-12-29T15:13:33.919Z</time>
      </trkpt>
      <trkpt lat="44.16802" lon="0.65409">
        <ele>93.364484</ele>
        <time>2022-12-29T15:13:35.922Z</time>
      </trkpt>
      <trkpt lat="44.16808" lon="0.6542">
        <ele>93.350114</ele>
        <time>2022-12-29T15:13:37.922Z</time>
      </trkpt>
      <trkpt lat="44.16815" lon="0.65429">
        <ele>93.33595</ele>
        <time>2022-12-29T15:13:39.918Z</time>
      </trkpt>
      <trkpt lat="44.16825" lon="0.65441">
        <ele>93.316903</ele>
        <time>2022-12-29T15:13:42.920Z</time>
      </trkpt>
      <trkpt lat="44.16836" lon="0.6545">
        <ele>93.298185</ele>
        <time>2022-12-29T15:13:45.922Z</time>
      </trkpt>
      <trkpt lat="44.16849" lon="0.65456">
        <ele>93.278752</ele>
        <time>2022-12-29T15:13:48.911Z</time>
      </trkpt>
      <trkpt lat="44.16858" lon="0.6546">
        <ele>93.264602</ele>
        <time>2022-12-29T15:13:50.920Z</time>
      </trkpt>
      <trkpt lat="44.16872" lon="0.65465">
        <ele>93.244487</ele>
        <time>2022-12-29T15:13:53.931Z</time>
      </trkpt>
      <trkpt lat="44.16881" lon="0.65469">
        <ele>93.230167</ele>
        <time>2022-12-29T15:13:55.919Z</time>
      </trkpt>
      <trkpt lat="44.1689" lon="0.65473">
        <ele>93.215784</ele>
        <time>2022-12-29T15:13:57.918Z</time>
      </trkpt>
      <trkpt lat="44.169" lon="0.65477">
        <ele>93.201457</ele>
        <time>2022-12-29T15:13:59.923Z</time>
      </trkpt>
      <trkpt lat="44.1691" lon="0.65479">
        <ele>93.187176</ele>
        <time>2022-12-29T15:14:01.920Z</time>
      </trkpt>
      <trkpt lat="44.1692" lon="0.65483">
        <ele>93.172211</ele>
        <time>2022-12-29T15:14:03.923Z</time>
      </trkpt>
      <trkpt lat="44.16929" lon="0.65485">
        <ele>93.158317</ele>
        <time>2022-12-29T15:14:05.918Z</time>
      </trkpt>
      <trkpt lat="44.16938" lon="0.65486">
        <ele>93.144593</ele>
        <time>2022-12-29T15:14:07.921Z</time>
      </trkpt>
      <trkpt lat="44.16948" lon="0.65488">
        <ele>93.130145</ele>
        <time>2022-12-29T15:14:09.913Z</time>
      </trkpt>
      <trkpt lat="44.16958" lon="0.65488">
        <ele>93.115306</ele>
        <time>2022-12-29T15:14:11.920Z</time>
      </trkpt>
      <trkpt lat="44.16969" lon="0.65489">
        <ele>93.121482</ele>
        <time>2022-12-29T15:14:13.921Z</time>
      </trkpt>
      <trkpt lat="44.16979" lon="0.6549">
        <ele>93.156121</ele>
        <time>2022-12-29T15:14:15.909Z</time>
      </trkpt>
      <trkpt lat="44.16989" lon="0.65491">
        <ele>93.189925</ele>
        <time>2022-12-29T15:14:17.922Z</time>
      </trkpt>
      <trkpt lat="44.16999" lon="0.65492">
        <ele>93.224416</ele>
        <time>2022-12-29T15:14:19.919Z</time>
      </trkpt>
      <trkpt lat="44.17009" lon="0.65491">
        <ele>93.25686</ele>
        <time>2022-12-29T15:14:21.923Z</time>
      </trkpt>
      <trkpt lat="44.17019" lon="0.6549">
        <ele>93.290703</ele>
        <time>2022-12-29T15:14:23.917Z</time>
      </trkpt>
      <trkpt lat="44.17028" lon="0.65489">
        <ele>93.322879</ele>
        <time>2022-12-29T15:14:25.917Z</time>
      </trkpt>
      <trkpt lat="44.17038" lon="0.6549">
        <ele>93.355309</ele>
        <time>2022-12-29T15:14:27.919Z</time>
      </trkpt>
      <trkpt lat="44.17048" lon="0.65491">
        <ele>93.387861</ele>
        <time>2022-12-29T15:14:29.919Z</time>
      </trkpt>
      <trkpt lat="44.17057" lon="0.65494">
        <ele>93.421267</ele>
        <time>2022-12-29T15:14:31.919Z</time>
      </trkpt>
      <trkpt lat="44.17066" lon="0.65497">
        <ele>93.452848</ele>
        <time>2022-12-29T15:14:33.907Z</time>
      </trkpt>
      <trkpt lat="44.17079" lon="0.65502">
        <ele>93.496328</ele>
        <time>2022-12-29T15:14:36.903Z</time>
      </trkpt>
      <trkpt lat="44.1709" lon="0.65507">
        <ele>93.536113</ele>
        <time>2022-12-29T15:14:39.911Z</time>
      </trkpt>
      <trkpt lat="44.17099" lon="0.65514">
        <ele>93.571139</ele>
        <time>2022-12-29T15:14:42.918Z</time>
      </trkpt>
      <trkpt lat="44.17107" lon="0.65525">
        <ele>93.608257</ele>
        <time>2022-12-29T15:14:46.918Z</time>
      </trkpt>
      <trkpt lat="44.17114" lon="0.65551">
        <ele>93.676942</ele>
        <time>2022-12-29T15:16:27.962Z</time>
      </trkpt>
      <trkpt lat="44.17126" lon="0.65553">
        <ele>93.712794</ele>
        <time>2022-12-29T15:16:31.915Z</time>
      </trkpt>
      <trkpt lat="44.17137" lon="0.6555">
        <ele>93.696416</ele>
        <time>2022-12-29T15:16:34.903Z</time>
      </trkpt>
      <trkpt lat="44.17149" lon="0.65553">
        <ele>93.678974</ele>
        <time>2022-12-29T15:16:37.921Z</time>
      </trkpt>
      <trkpt lat="44.1716" lon="0.65561">
        <ele>93.661474</ele>
        <time>2022-12-29T15:16:40.917Z</time>
      </trkpt>
      <trkpt lat="44.17169" lon="0.65569">
        <ele>93.645591</ele>
        <time>2022-12-29T15:16:43.903Z</time>
      </trkpt>
      <trkpt lat="44.17178" lon="0.65576">
        <ele>93.631186</ele>
        <time>2022-12-29T15:16:46.904Z</time>
      </trkpt>
      <trkpt lat="44.17185" lon="0.65584">
        <ele>93.618113</ele>
        <time>2022-12-29T15:16:49.913Z</time>
      </trkpt>
      <trkpt lat="44.17191" lon="0.65597">
        <ele>93.602304</ele>
        <time>2022-12-29T15:16:53.921Z</time>
      </trkpt>
      <trkpt lat="44.17199" lon="0.65603">
        <ele>93.588884</ele>
        <time>2022-12-29T15:16:56.919Z</time>
      </trkpt>
      <trkpt lat="44.17208" lon="0.65611">
        <ele>93.57347</ele>
        <time>2022-12-29T15:16:59.910Z</time>
      </trkpt>
      <trkpt lat="44.17218" lon="0.6562">
        <ele>93.555919</ele>
        <time>2022-12-29T15:17:02.915Z</time>
      </trkpt>
      <trkpt lat="44.17226" lon="0.65628">
        <ele>93.541469</ele>
        <time>2022-12-29T15:17:05.919Z</time>
      </trkpt>
      <trkpt lat="44.17234" lon="0.65635">
        <ele>93.527766</ele>
        <time>2022-12-29T15:17:08.916Z</time>
      </trkpt>
      <trkpt lat="44.17242" lon="0.65641">
        <ele>93.514373</ele>
        <time>2022-12-29T15:17:11.921Z</time>
      </trkpt>
      <trkpt lat="44.17251" lon="0.65648">
        <ele>93.500136</ele>
        <time>2022-12-29T15:17:14.923Z</time>
      </trkpt>
      <trkpt lat="44.17259" lon="0.65654">
        <ele>93.486361</ele>
        <time>2022-12-29T15:17:17.918Z</time>
      </trkpt>
      <trkpt lat="44.17267" lon="0.65661">
        <ele>93.473159</ele>
        <time>2022-12-29T15:17:20.910Z</time>
      </trkpt>
      <trkpt lat="44.17274" lon="0.6567">
        <ele>93.458774</ele>
        <time>2022-12-29T15:17:24.907Z</time>
      </trkpt>
      <trkpt lat="44.17281" lon="0.65681">
        <ele>93.484421</ele>
        <time>2022-12-29T15:17:28.917Z</time>
      </trkpt>
      <trkpt lat="44.17289" lon="0.65689">
        <ele>93.533849</ele>
        <time>2022-12-29T15:17:32.909Z</time>
      </trkpt>
      <trkpt lat="44.17298" lon="0.65697">
        <ele>93.582404</ele>
        <time>2022-12-29T15:17:36.920Z</time>
      </trkpt>
      <trkpt lat="44.17308" lon="0.65703">
        <ele>93.633577</ele>
        <time>2022-12-29T15:17:41.904Z</time>
      </trkpt>
      <trkpt lat="44.17318" lon="0.65705">
        <ele>93.682974</ele>
        <time>2022-12-29T15:17:54.920Z</time>
      </trkpt>
      <trkpt lat="44.17325" lon="0.65714">
        <ele>93.726122</ele>
        <time>2022-12-29T15:17:59.905Z</time>
      </trkpt>
      <trkpt lat="44.1733" lon="0.65725">
        <ele>93.769466</ele>
        <time>2022-12-29T15:18:03.920Z</time>
      </trkpt>
      <trkpt lat="44.17332" lon="0.65742">
        <ele>93.828702</ele>
        <time>2022-12-29T15:18:07.916Z</time>
      </trkpt>
      <trkpt lat="44.17338" lon="0.65756">
        <ele>93.883093</ele>
        <time>2022-12-29T15:18:10.919Z</time>
      </trkpt>
      <trkpt lat="44.17346" lon="0.65767">
        <ele>93.936734</ele>
        <time>2022-12-29T15:18:13.898Z</time>
      </trkpt>
      <trkpt lat="44.17356" lon="0.65773">
        <ele>93.989013</ele>
        <time>2022-12-29T15:18:16.919Z</time>
      </trkpt>
      <trkpt lat="44.17368" lon="0.65774">
        <ele>94.04242</ele>
        <time>2022-12-29T15:18:19.919Z</time>
      </trkpt>
      <trkpt lat="44.17378" lon="0.65769">
        <ele>94.096327</ele>
        <time>2022-12-29T15:18:22.921Z</time>
      </trkpt>
      <trkpt lat="44.17388" lon="0.65758">
        <ele>94.155108</ele>
        <time>2022-12-29T15:18:25.907Z</time>
      </trkpt>
      <trkpt lat="44.17396" lon="0.65745">
        <ele>94.213479</ele>
        <time>2022-12-29T15:18:28.922Z</time>
      </trkpt>
      <trkpt lat="44.17408" lon="0.6574">
        <ele>94.269493</ele>
        <time>2022-12-29T15:18:31.905Z</time>
      </trkpt>
      <trkpt lat="44.1742" lon="0.6574">
        <ele>94.372807</ele>
        <time>2022-12-29T15:18:34.918Z</time>
      </trkpt>
      <trkpt lat="44.17432" lon="0.65739">
        <ele>94.527409</ele>
        <time>2022-12-29T15:18:37.918Z</time>
      </trkpt>
      <trkpt lat="44.17443" lon="0.65737">
        <ele>94.67651</ele>
        <time>2022-12-29T15:18:40.933Z</time>
      </trkpt>
      <trkpt lat="44.17454" lon="0.65734">
        <ele>94.819408</ele>
        <time>2022-12-29T15:18:43.901Z</time>
      </trkpt>
      <trkpt lat="44.17464" lon="0.65729">
        <ele>94.968002</ele>
        <time>2022-12-29T15:18:46.918Z</time>
      </trkpt>
      <trkpt lat="44.17476" lon="0.65722">
        <ele>95.127702</ele>
        <time>2022-12-29T15:18:49.918Z</time>
      </trkpt>
      <trkpt lat="44.17484" lon="0.65717">
        <ele>95.248591</ele>
        <time>2022-12-29T15:18:51.919Z</time>
      </trkpt>
      <trkpt lat="44.17492" lon="0.6571">
        <ele>95.375897</ele>
        <time>2022-12-29T15:18:53.918Z</time>
      </trkpt>
      <trkpt lat="44.17501" lon="0.65704">
        <ele>95.499424</ele>
        <time>2022-12-29T15:18:55.911Z</time>
      </trkpt>
      <trkpt lat="44.1751" lon="0.65701">
        <ele>95.631411</ele>
        <time>2022-12-29T15:18:58.920Z</time>
      </trkpt>
      <trkpt lat="44.17519" lon="0.6571">
        <ele>95.770607</ele>
        <time>2022-12-29T15:19:02.917Z</time>
      </trkpt>
      <trkpt lat="44.1753" lon="0.65706">
        <ele>95.917802</ele>
        <time>2022-12-29T15:19:06.916Z</time>
      </trkpt>
      <trkpt lat="44.17539" lon="0.65703">
        <ele>96.047942</ele>
        <time>2022-12-29T15:19:09.924Z</time>
      </trkpt>
      <trkpt lat="44.17548" lon="0.65701">
        <ele>96.171955</ele>
        <time>2022-12-29T15:19:13.914Z</time>
      </trkpt>
      <trkpt lat="44.1756" lon="0.65707">
        <ele>96.333597</ele>
        <time>2022-12-29T15:19:17.912Z</time>
      </trkpt>
      <trkpt lat="44.17569" lon="0.65717">
        <ele>96.48567</ele>
        <time>2022-12-29T15:19:20.901Z</time>
      </trkpt>
      <trkpt lat="44.17578" lon="0.65728">
        <ele>96.648426</ele>
        <time>2022-12-29T15:19:23.920Z</time>
      </trkpt>
      <trkpt lat="44.17587" lon="0.65741">
        <ele>96.70204</ele>
        <time>2022-12-29T15:19:26.919Z</time>
      </trkpt>
      <trkpt lat="44.17596" lon="0.65753">
        <ele>96.734971</ele>
        <time>2022-12-29T15:19:29.925Z</time>
      </trkpt>
      <trkpt lat="44.17606" lon="0.65765">
        <ele>96.76675</ele>
        <time>2022-12-29T15:19:32.923Z</time>
      </trkpt>
      <trkpt lat="44.17614" lon="0.65776">
        <ele>96.796319</ele>
        <time>2022-12-29T15:19:35.920Z</time>
      </trkpt>
      <trkpt lat="44.17622" lon="0.65785">
        <ele>96.822399</ele>
        <time>2022-12-29T15:19:38.918Z</time>
      </trkpt>
      <trkpt lat="44.1763" lon="0.65795">
        <ele>96.848723</ele>
        <time>2022-12-29T15:19:42.913Z</time>
      </trkpt>
      <trkpt lat="44.17637" lon="0.65805">
        <ele>96.872822</ele>
        <time>2022-12-29T15:19:45.921Z</time>
      </trkpt>
      <trkpt lat="44.17643" lon="0.65815">
        <ele>96.896185</ele>
        <time>2022-12-29T15:19:47.920Z</time>
      </trkpt>
      <trkpt lat="44.17649" lon="0.65826">
        <ele>96.921171</ele>
        <time>2022-12-29T15:19:49.913Z</time>
      </trkpt>
      <trkpt lat="44.17655" lon="0.65836">
        <ele>96.945572</ele>
        <time>2022-12-29T15:19:51.920Z</time>
      </trkpt>
      <trkpt lat="44.17661" lon="0.65846">
        <ele>96.968468</ele>
        <time>2022-12-29T15:19:53.928Z</time>
      </trkpt>
      <trkpt lat="44.1767" lon="0.6586">
        <ele>97.002045</ele>
        <time>2022-12-29T15:19:56.922Z</time>
      </trkpt>
      <trkpt lat="44.17678" lon="0.65872">
        <ele>97.031848</ele>
        <time>2022-12-29T15:19:59.918Z</time>
      </trkpt>
      <trkpt lat="44.17687" lon="0.65884">
        <ele>97.062518</ele>
        <time>2022-12-29T15:20:02.916Z</time>
      </trkpt>
      <trkpt lat="44.17696" lon="0.65897">
        <ele>97.094142</ele>
        <time>2022-12-29T15:20:05.925Z</time>
      </trkpt>
      <trkpt lat="44.17704" lon="0.6591">
        <ele>97.126245</ele>
        <time>2022-12-29T15:20:08.918Z</time>
      </trkpt>
      <trkpt lat="44.17713" lon="0.65924">
        <ele>97.096112</ele>
        <time>2022-12-29T15:20:11.931Z</time>
      </trkpt>
      <trkpt lat="44.1772" lon="0.65938">
        <ele>97.066681</ele>
        <time>2022-12-29T15:20:14.921Z</time>
      </trkpt>
      <trkpt lat="44.17725" lon="0.65952">
        <ele>97.038609</ele>
        <time>2022-12-29T15:20:17.921Z</time>
      </trkpt>
      <trkpt lat="44.1773" lon="0.65967">
        <ele>97.009433</ele>
        <time>2022-12-29T15:20:20.919Z</time>
      </trkpt>
      <trkpt lat="44.17735" lon="0.65983">
        <ele>96.980515</ele>
        <time>2022-12-29T15:20:23.916Z</time>
      </trkpt>
      <trkpt lat="44.17739" lon="0.65996">
        <ele>96.954828</ele>
        <time>2022-12-29T15:20:26.914Z</time>
      </trkpt>
      <trkpt lat="44.17742" lon="0.66008">
        <ele>96.931858</ele>
        <time>2022-12-29T15:20:29.917Z</time>
      </trkpt>
      <trkpt lat="44.17742" lon="0.66024">
        <ele>96.905566</ele>
        <time>2022-12-29T15:20:33.903Z</time>
      </trkpt>
      <trkpt lat="44.17739" lon="0.66036">
        <ele>96.882039</ele>
        <time>2022-12-29T15:20:36.921Z</time>
      </trkpt>
      <trkpt lat="44.17731" lon="0.66049">
        <ele>96.854106</ele>
        <time>2022-12-29T15:20:40.904Z</time>
      </trkpt>
      <trkpt lat="44.17735" lon="0.66061">
        <ele>96.830913</ele>
        <time>2022-12-29T15:20:46.909Z</time>
      </trkpt>
      <trkpt lat="44.17742" lon="0.66073">
        <ele>96.804202</ele>
        <time>2022-12-29T15:20:51.920Z</time>
      </trkpt>
      <trkpt lat="44.17752" lon="0.66077">
        <ele>96.778066</ele>
        <time>2022-12-29T15:20:55.908Z</time>
      </trkpt>
      <trkpt lat="44.17762" lon="0.66085">
        <ele>96.750247</ele>
        <time>2022-12-29T15:20:59.923Z</time>
      </trkpt>
      <trkpt lat="44.17768" lon="0.66098">
        <ele>96.724565</ele>
        <time>2022-12-29T15:21:02.921Z</time>
      </trkpt>
      <trkpt lat="44.17772" lon="0.66111">
        <ele>96.699261</ele>
        <time>2022-12-29T15:21:05.917Z</time>
      </trkpt>
      <trkpt lat="44.17777" lon="0.66125">
        <ele>96.787511</ele>
        <time>2022-12-29T15:21:08.921Z</time>
      </trkpt>
      <trkpt lat="44.17783" lon="0.66139">
        <ele>96.931034</ele>
        <time>2022-12-29T15:21:11.923Z</time>
      </trkpt>
      <trkpt lat="44.17788" lon="0.66153">
        <ele>97.078137</ele>
        <time>2022-12-29T15:21:14.902Z</time>
      </trkpt>
      <trkpt lat="44.17793" lon="0.66166">
        <ele>97.217408</ele>
        <time>2022-12-29T15:21:17.916Z</time>
      </trkpt>
      <trkpt lat="44.17799" lon="0.6618">
        <ele>97.361514</ele>
        <time>2022-12-29T15:21:20.920Z</time>
      </trkpt>
      <trkpt lat="44.17804" lon="0.66192">
        <ele>97.489598</ele>
        <time>2022-12-29T15:21:23.934Z</time>
      </trkpt>
      <trkpt lat="44.17808" lon="0.66204">
        <ele>97.608175</ele>
        <time>2022-12-29T15:21:26.925Z</time>
      </trkpt>
      <trkpt lat="44.17811" lon="0.66216">
        <ele>97.726285</ele>
        <time>2022-12-29T15:21:29.926Z</time>
      </trkpt>
      <trkpt lat="44.17817" lon="0.66231">
        <ele>97.875006</ele>
        <time>2022-12-29T15:21:33.921Z</time>
      </trkpt>
      <trkpt lat="44.17823" lon="0.66244">
        <ele>98.024195</ele>
        <time>2022-12-29T15:21:37.928Z</time>
      </trkpt>
      <trkpt lat="44.17823" lon="0.66258">
        <ele>98.144189</ele>
        <time>2022-12-29T15:21:41.920Z</time>
      </trkpt>
      <trkpt lat="44.17818" lon="0.66271">
        <ele>98.282933</ele>
        <time>2022-12-29T15:21:46.913Z</time>
      </trkpt>
      <trkpt lat="44.17828" lon="0.66269">
        <ele>98.416102</ele>
        <time>2022-12-29T15:21:52.902Z</time>
      </trkpt>
      <trkpt lat="44.17836" lon="0.66259">
        <ele>98.552374</ele>
        <time>2022-12-29T15:21:56.919Z</time>
      </trkpt>
      <trkpt lat="44.17843" lon="0.66248">
        <ele>98.685061</ele>
        <time>2022-12-29T15:22:00.918Z</time>
      </trkpt>
      <trkpt lat="44.1785" lon="0.66238">
        <ele>98.808234</ele>
        <time>2022-12-29T15:22:04.911Z</time>
      </trkpt>
      <trkpt lat="44.1786" lon="0.66234">
        <ele>98.936165</ele>
        <time>2022-12-29T15:22:10.906Z</time>
      </trkpt>
      <trkpt lat="44.17866" lon="0.66245">
        <ele>98.924449</ele>
        <time>2022-12-29T15:22:15.924Z</time>
      </trkpt>
      <trkpt lat="44.17871" lon="0.66256">
        <ele>98.865578</ele>
        <time>2022-12-29T15:22:20.897Z</time>
      </trkpt>
      <trkpt lat="44.17877" lon="0.66269">
        <ele>98.79952</ele>
        <time>2022-12-29T15:22:26.922Z</time>
      </trkpt>
      <trkpt lat="44.17889" lon="0.66278">
        <ele>98.715281</ele>
        <time>2022-12-29T15:24:40.938Z</time>
      </trkpt>
      <trkpt lat="44.17896" lon="0.66288">
        <ele>98.654367</ele>
        <time>2022-12-29T15:24:43.910Z</time>
      </trkpt>
      <trkpt lat="44.17904" lon="0.66301">
        <ele>98.577629</ele>
        <time>2022-12-29T15:24:46.918Z</time>
      </trkpt>
      <trkpt lat="44.1791" lon="0.66318">
        <ele>98.495415</ele>
        <time>2022-12-29T15:24:49.912Z</time>
      </trkpt>
      <trkpt lat="44.17915" lon="0.66333">
        <ele>98.417903</ele>
        <time>2022-12-29T15:24:52.912Z</time>
      </trkpt>
      <trkpt lat="44.17923" lon="0.66348">
        <ele>98.338173</ele>
        <time>2022-12-29T15:24:55.901Z</time>
      </trkpt>
      <trkpt lat="44.1793" lon="0.66364">
        <ele>98.256889</ele>
        <time>2022-12-29T15:24:58.910Z</time>
      </trkpt>
      <trkpt lat="44.17936" lon="0.66377">
        <ele>98.189403</ele>
        <time>2022-12-29T15:25:01.903Z</time>
      </trkpt>
      <trkpt lat="44.17942" lon="0.66389">
        <ele>98.124771</ele>
        <time>2022-12-29T15:25:05.902Z</time>
      </trkpt>
      <trkpt lat="44.17947" lon="0.664">
        <ele>98.065176</ele>
        <time>2022-12-29T15:25:20.902Z</time>
      </trkpt>
      <trkpt lat="44.17955" lon="0.66407">
        <ele>98.00653</ele>
        <time>2022-12-29T15:25:25.908Z</time>
      </trkpt>
      <trkpt lat="44.17964" lon="0.6641">
        <ele>97.949828</ele>
        <time>2022-12-29T15:25:29.914Z</time>
      </trkpt>
      <trkpt lat="44.17975" lon="0.66408">
        <ele>97.884555</ele>
        <time>2022-12-29T15:25:33.909Z</time>
      </trkpt>
      <trkpt lat="44.17986" lon="0.66405">
        <ele>97.683306</ele>
        <time>2022-12-29T15:25:38.903Z</time>
      </trkpt>
      <trkpt lat="44.17995" lon="0.664">
        <ele>97.453468</ele>
        <time>2022-12-29T15:25:44.907Z</time>
      </trkpt>
      <trkpt lat="44.17992" lon="0.66386">
        <ele>97.208387</ele>
        <time>2022-12-29T15:25:52.912Z</time>
      </trkpt>
      <trkpt lat="44.17987" lon="0.6637">
        <ele>96.912007</ele>
        <time>2022-12-29T15:25:56.903Z</time>
      </trkpt>
      <trkpt lat="44.1798" lon="0.66356">
        <ele>96.622245</ele>
        <time>2022-12-29T15:25:59.907Z</time>
      </trkpt>
      <trkpt lat="44.17974" lon="0.6634">
        <ele>96.311985</ele>
        <time>2022-12-29T15:26:02.907Z</time>
      </trkpt>
      <trkpt lat="44.1797" lon="0.66328">
        <ele>96.092274</ele>
        <time>2022-12-29T15:26:04.903Z</time>
      </trkpt>
      <trkpt lat="44.17965" lon="0.66312">
        <ele>95.784952</ele>
        <time>2022-12-29T15:26:07.906Z</time>
      </trkpt>
      <trkpt lat="44.17958" lon="0.66296">
        <ele>95.463786</ele>
        <time>2022-12-29T15:26:10.899Z</time>
      </trkpt>
      <trkpt lat="44.17951" lon="0.6628">
        <ele>95.143809</ele>
        <time>2022-12-29T15:26:13.932Z</time>
      </trkpt>
      <trkpt lat="44.17945" lon="0.66264">
        <ele>94.833057</ele>
        <time>2022-12-29T15:26:16.906Z</time>
      </trkpt>
      <trkpt lat="44.17938" lon="0.6625">
        <ele>94.53637</ele>
        <time>2022-12-29T15:26:19.909Z</time>
      </trkpt>
      <trkpt lat="44.17932" lon="0.66238">
        <ele>94.300678</ele>
        <time>2022-12-29T15:26:22.907Z</time>
      </trkpt>
      <trkpt lat="44.17929" lon="0.66227">
        <ele>94.086889</ele>
        <time>2022-12-29T15:26:27.905Z</time>
      </trkpt>
      <trkpt lat="44.17918" lon="0.66224">
        <ele>93.83459</ele>
        <time>2022-12-29T15:26:42.900Z</time>
      </trkpt>
      <trkpt lat="44.17909" lon="0.6623">
        <ele>93.589368</ele>
        <time>2022-12-29T15:26:46.908Z</time>
      </trkpt>
      <trkpt lat="44.17901" lon="0.66237">
        <ele>93.540035</ele>
        <time>2022-12-29T15:26:49.903Z</time>
      </trkpt>
      <trkpt lat="44.17893" lon="0.66244">
        <ele>93.49496</ele>
        <time>2022-12-29T15:26:52.907Z</time>
      </trkpt>
      <trkpt lat="44.17886" lon="0.66253">
        <ele>93.44952</ele>
        <time>2022-12-29T15:26:56.909Z</time>
      </trkpt>
      <trkpt lat="44.17877" lon="0.66252">
        <ele>93.404561</ele>
        <time>2022-12-29T15:27:29.910Z</time>
      </trkpt>
      <trkpt lat="44.17867" lon="0.66265">
        <ele>93.341803</ele>
        <time>2022-12-29T15:29:54.925Z</time>
      </trkpt>
      <trkpt lat="44.1786" lon="0.66275">
        <ele>93.292025</ele>
        <time>2022-12-29T15:29:58.920Z</time>
      </trkpt>
      <trkpt lat="44.17851" lon="0.66285">
        <ele>93.238667</ele>
        <time>2022-12-29T15:30:01.913Z</time>
      </trkpt>
      <trkpt lat="44.17843" lon="0.66295">
        <ele>93.186116</ele>
        <time>2022-12-29T15:30:04.901Z</time>
      </trkpt>
      <trkpt lat="44.17836" lon="0.66303">
        <ele>93.141377</ele>
        <time>2022-12-29T15:30:07.907Z</time>
      </trkpt>
      <trkpt lat="44.17827" lon="0.66312">
        <ele>93.091559</ele>
        <time>2022-12-29T15:30:10.928Z</time>
      </trkpt>
      <trkpt lat="44.17819" lon="0.66322">
        <ele>93.038336</ele>
        <time>2022-12-29T15:30:13.919Z</time>
      </trkpt>
      <trkpt lat="44.17809" lon="0.66331">
        <ele>92.982856</ele>
        <time>2022-12-29T15:30:16.903Z</time>
      </trkpt>
      <trkpt lat="44.17801" lon="0.66338">
        <ele>92.936188</ele>
        <time>2022-12-29T15:30:19.914Z</time>
      </trkpt>
      <trkpt lat="44.17792" lon="0.66346">
        <ele>92.888567</ele>
        <time>2022-12-29T15:30:22.923Z</time>
      </trkpt>
      <trkpt lat="44.17783" lon="0.66356">
        <ele>92.832663</ele>
        <time>2022-12-29T15:30:25.909Z</time>
      </trkpt>
      <trkpt lat="44.17774" lon="0.66365">
        <ele>92.778181</ele>
        <time>2022-12-29T15:30:28.908Z</time>
      </trkpt>
      <trkpt lat="44.17764" lon="0.66374">
        <ele>92.72898</ele>
        <time>2022-12-29T15:30:31.914Z</time>
      </trkpt>
      <trkpt lat="44.17754" lon="0.66383">
        <ele>92.90064</ele>
        <time>2022-12-29T15:30:34.903Z</time>
      </trkpt>
      <trkpt lat="44.17746" lon="0.66391">
        <ele>93.044598</ele>
        <time>2022-12-29T15:30:37.907Z</time>
      </trkpt>
      <trkpt lat="44.17738" lon="0.664">
        <ele>93.193833</ele>
        <time>2022-12-29T15:30:40.907Z</time>
      </trkpt>
      <trkpt lat="44.17731" lon="0.6641">
        <ele>93.345685</ele>
        <time>2022-12-29T15:30:43.912Z</time>
      </trkpt>
      <trkpt lat="44.17723" lon="0.66418">
        <ele>93.483341</ele>
        <time>2022-12-29T15:30:46.916Z</time>
      </trkpt>
      <trkpt lat="44.17715" lon="0.66429">
        <ele>93.645983</ele>
        <time>2022-12-29T15:30:50.919Z</time>
      </trkpt>
      <trkpt lat="44.17709" lon="0.66439">
        <ele>93.786129</ele>
        <time>2022-12-29T15:30:53.921Z</time>
      </trkpt>
      <trkpt lat="44.17706" lon="0.66451">
        <ele>93.919503</ele>
        <time>2022-12-29T15:30:56.928Z</time>
      </trkpt>
      <trkpt lat="44.17701" lon="0.66463">
        <ele>94.068293</ele>
        <time>2022-12-29T15:31:00.925Z</time>
      </trkpt>
      <trkpt lat="44.17692" lon="0.66475">
        <ele>94.241814</ele>
        <time>2022-12-29T15:31:04.921Z</time>
      </trkpt>
      <trkpt lat="44.17684" lon="0.66482">
        <ele>94.379248</ele>
        <time>2022-12-29T15:31:07.920Z</time>
      </trkpt>
      <trkpt lat="44.17674" lon="0.66487">
        <ele>94.541713</ele>
        <time>2022-12-29T15:31:11.922Z</time>
      </trkpt>
      <trkpt lat="44.17662" lon="0.66485">
        <ele>94.708684</ele>
        <time>2022-12-29T15:31:15.920Z</time>
      </trkpt>
      <trkpt lat="44.17652" lon="0.66485">
        <ele>94.851407</ele>
        <time>2022-12-29T15:31:18.925Z</time>
      </trkpt>
      <trkpt lat="44.17642" lon="0.66489">
        <ele>95.011065</ele>
        <time>2022-12-29T15:31:21.921Z</time>
      </trkpt>
      <trkpt lat="44.17632" lon="0.66496">
        <ele>95.170952</ele>
        <time>2022-12-29T15:31:24.920Z</time>
      </trkpt>
      <trkpt lat="44.17623" lon="0.66504">
        <ele>95.327623</ele>
        <time>2022-12-29T15:31:27.919Z</time>
      </trkpt>
      <trkpt lat="44.17614" lon="0.66512">
        <ele>95.35897</ele>
        <time>2022-12-29T15:31:30.921Z</time>
      </trkpt>
      <trkpt lat="44.17606" lon="0.6652">
        <ele>95.374951</ele>
        <time>2022-12-29T15:31:33.925Z</time>
      </trkpt>
      <trkpt lat="44.17597" lon="0.66528">
        <ele>95.39254</ele>
        <time>2022-12-29T15:31:37.918Z</time>
      </trkpt>
      <trkpt lat="44.17588" lon="0.66536">
        <ele>95.409462</ele>
        <time>2022-12-29T15:31:41.910Z</time>
      </trkpt>
      <trkpt lat="44.17578" lon="0.66546">
        <ele>95.430274</ele>
        <time>2022-12-29T15:31:45.919Z</time>
      </trkpt>
      <trkpt lat="44.17569" lon="0.66555">
        <ele>95.448672</ele>
        <time>2022-12-29T15:31:48.922Z</time>
      </trkpt>
      <trkpt lat="44.1756" lon="0.66565">
        <ele>95.467473</ele>
        <time>2022-12-29T15:31:51.911Z</time>
      </trkpt>
      <trkpt lat="44.1755" lon="0.66574">
        <ele>95.486339</ele>
        <time>2022-12-29T15:31:54.921Z</time>
      </trkpt>
      <trkpt lat="44.1754" lon="0.66583">
        <ele>95.506482</ele>
        <time>2022-12-29T15:31:57.920Z</time>
      </trkpt>
      <trkpt lat="44.1753" lon="0.66592">
        <ele>95.525625</ele>
        <time>2022-12-29T15:32:00.921Z</time>
      </trkpt>
      <trkpt lat="44.1752" lon="0.66602">
        <ele>95.546112</ele>
        <time>2022-12-29T15:32:03.919Z</time>
      </trkpt>
      <trkpt lat="44.17509" lon="0.66612">
        <ele>95.56679</ele>
        <time>2022-12-29T15:32:06.907Z</time>
      </trkpt>
      <trkpt lat="44.17499" lon="0.66622">
        <ele>95.5872</ele>
        <time>2022-12-29T15:32:09.924Z</time>
      </trkpt>
      <trkpt lat="44.17489" lon="0.66632">
        <ele>95.608012</ele>
        <time>2022-12-29T15:32:12.920Z</time>
      </trkpt>
      <trkpt lat="44.17478" lon="0.66643">
        <ele>95.628896</ele>
        <time>2022-12-29T15:32:15.921Z</time>
      </trkpt>
      <trkpt lat="44.17468" lon="0.66654">
        <ele>95.743147</ele>
        <time>2022-12-29T15:32:18.921Z</time>
      </trkpt>
      <trkpt lat="44.17461" lon="0.66661">
        <ele>95.872496</ele>
        <time>2022-12-29T15:32:20.916Z</time>
      </trkpt>
      <trkpt lat="44.17454" lon="0.66669">
        <ele>96.001845</ele>
        <time>2022-12-29T15:32:22.904Z</time>
      </trkpt>
      <trkpt lat="44.17444" lon="0.6668">
        <ele>96.181416</ele>
        <time>2022-12-29T15:32:25.921Z</time>
      </trkpt>
      <trkpt lat="44.17434" lon="0.66693">
        <ele>96.372873</ele>
        <time>2022-12-29T15:32:28.923Z</time>
      </trkpt>
      <trkpt lat="44.17426" lon="0.66707">
        <ele>96.55973</ele>
        <time>2022-12-29T15:32:31.936Z</time>
      </trkpt>
      <trkpt lat="44.1742" lon="0.66716">
        <ele>96.691024</ele>
        <time>2022-12-29T15:32:33.921Z</time>
      </trkpt>
      <trkpt lat="44.17413" lon="0.66726">
        <ele>96.826296</ele>
        <time>2022-12-29T15:32:35.921Z</time>
      </trkpt>
      <trkpt lat="44.17407" lon="0.66736">
        <ele>96.961507</ele>
        <time>2022-12-29T15:32:37.930Z</time>
      </trkpt>
      <trkpt lat="44.17399" lon="0.66748">
        <ele>97.129442</ele>
        <time>2022-12-29T15:32:40.922Z</time>
      </trkpt>
      <trkpt lat="44.17392" lon="0.66763">
        <ele>97.317149</ele>
        <time>2022-12-29T15:32:43.921Z</time>
      </trkpt>
      <trkpt lat="44.17385" lon="0.66774">
        <ele>97.461625</ele>
        <time>2022-12-29T15:32:45.924Z</time>
      </trkpt>
      <trkpt lat="44.17379" lon="0.66789">
        <ele>97.638262</ele>
        <time>2022-12-29T15:32:48.924Z</time>
      </trkpt>
      <trkpt lat="44.17372" lon="0.66804">
        <ele>97.826011</ele>
        <time>2022-12-29T15:32:51.925Z</time>
      </trkpt>
      <trkpt lat="44.17367" lon="0.66816">
        <ele>97.963421</ele>
        <time>2022-12-29T15:32:53.915Z</time>
      </trkpt>
      <trkpt lat="44.17363" lon="0.66827">
        <ele>98.09269</ele>
        <time>2022-12-29T15:32:55.923Z</time>
      </trkpt>
      <trkpt lat="44.17357" lon="0.66843">
        <ele>98.2948</ele>
        <time>2022-12-29T15:32:58.921Z</time>
      </trkpt>
      <trkpt lat="44.17351" lon="0.66859">
        <ele>98.532309</ele>
        <time>2022-12-29T15:33:01.923Z</time>
      </trkpt>
      <trkpt lat="44.17348" lon="0.66872">
        <ele>98.701817</ele>
        <time>2022-12-29T15:33:03.922Z</time>
      </trkpt>
      <trkpt lat="44.17344" lon="0.66884">
        <ele>98.869829</ele>
        <time>2022-12-29T15:33:05.921Z</time>
      </trkpt>
      <trkpt lat="44.1734" lon="0.66896">
        <ele>99.047799</ele>
        <time>2022-12-29T15:33:07.931Z</time>
      </trkpt>
      <trkpt lat="44.17336" lon="0.66909">
        <ele>99.229448</ele>
        <time>2022-12-29T15:33:09.924Z</time>
      </trkpt>
      <trkpt lat="44.17333" lon="0.66923">
        <ele>99.411777</ele>
        <time>2022-12-29T15:33:11.923Z</time>
      </trkpt>
      <trkpt lat="44.17331" lon="0.66936">
        <ele>99.592539</ele>
        <time>2022-12-29T15:33:13.920Z</time>
      </trkpt>
      <trkpt lat="44.17328" lon="0.6695">
        <ele>99.769098</ele>
        <time>2022-12-29T15:33:15.909Z</time>
      </trkpt>
      <trkpt lat="44.17325" lon="0.66963">
        <ele>99.945504</ele>
        <time>2022-12-29T15:33:17.913Z</time>
      </trkpt>
      <trkpt lat="44.17323" lon="0.66976">
        <ele>100.119417</ele>
        <time>2022-12-29T15:33:19.906Z</time>
      </trkpt>
      <trkpt lat="44.17321" lon="0.66988">
        <ele>100.280898</ele>
        <time>2022-12-29T15:33:21.922Z</time>
      </trkpt>
      <trkpt lat="44.17318" lon="0.67004">
        <ele>100.4854</ele>
        <time>2022-12-29T15:33:24.922Z</time>
      </trkpt>
      <trkpt lat="44.17316" lon="0.67017">
        <ele>100.655132</ele>
        <time>2022-12-29T15:33:27.904Z</time>
      </trkpt>
      <trkpt lat="44.17314" lon="0.67032">
        <ele>100.856767</ele>
        <time>2022-12-29T15:33:30.900Z</time>
      </trkpt>
      <trkpt lat="44.17312" lon="0.67049">
        <ele>101.086288</ele>
        <time>2022-12-29T15:33:33.906Z</time>
      </trkpt>
      <trkpt lat="44.17309" lon="0.67067">
        <ele>101.319432</ele>
        <time>2022-12-29T15:33:36.915Z</time>
      </trkpt>
      <trkpt lat="44.17305" lon="0.67085">
        <ele>101.391425</ele>
        <time>2022-12-29T15:33:39.959Z</time>
      </trkpt>
      <trkpt lat="44.17303" lon="0.67098">
        <ele>101.329397</ele>
        <time>2022-12-29T15:33:41.914Z</time>
      </trkpt>
      <trkpt lat="44.17301" lon="0.67116">
        <ele>101.239312</ele>
        <time>2022-12-29T15:33:44.916Z</time>
      </trkpt>
      <trkpt lat="44.17298" lon="0.67129">
        <ele>101.17249</ele>
        <time>2022-12-29T15:33:46.920Z</time>
      </trkpt>
      <trkpt lat="44.17296" lon="0.67143">
        <ele>101.104008</ele>
        <time>2022-12-29T15:33:48.918Z</time>
      </trkpt>
      <trkpt lat="44.17294" lon="0.67155">
        <ele>101.042158</ele>
        <time>2022-12-29T15:33:50.923Z</time>
      </trkpt>
      <trkpt lat="44.17292" lon="0.67168">
        <ele>100.977754</ele>
        <time>2022-12-29T15:33:52.913Z</time>
      </trkpt>
      <trkpt lat="44.1729" lon="0.67181">
        <ele>100.915386</ele>
        <time>2022-12-29T15:33:54.915Z</time>
      </trkpt>
      <trkpt lat="44.17288" lon="0.67194">
        <ele>100.849916</ele>
        <time>2022-12-29T15:33:56.931Z</time>
      </trkpt>
      <trkpt lat="44.17286" lon="0.67207">
        <ele>100.787073</ele>
        <time>2022-12-29T15:33:58.927Z</time>
      </trkpt>
      <trkpt lat="44.17284" lon="0.67222">
        <ele>100.710711</ele>
        <time>2022-12-29T15:34:01.920Z</time>
      </trkpt>
      <trkpt lat="44.17282" lon="0.67234">
        <ele>100.649771</ele>
        <time>2022-12-29T15:34:03.913Z</time>
      </trkpt>
      <trkpt lat="44.1728" lon="0.67253">
        <ele>100.559104</ele>
        <time>2022-12-29T15:34:06.924Z</time>
      </trkpt>
      <trkpt lat="44.17278" lon="0.67265">
        <ele>100.497688</ele>
        <time>2022-12-29T15:34:08.919Z</time>
      </trkpt>
      <trkpt lat="44.17275" lon="0.67278">
        <ele>100.433912</ele>
        <time>2022-12-29T15:34:10.912Z</time>
      </trkpt>
      <trkpt lat="44.17273" lon="0.67291">
        <ele>100.369984</ele>
        <time>2022-12-29T15:34:12.914Z</time>
      </trkpt>
      <trkpt lat="44.17271" lon="0.67309">
        <ele>100.278359</ele>
        <time>2022-12-29T15:34:15.922Z</time>
      </trkpt>
      <trkpt lat="44.17268" lon="0.67326">
        <ele>100.129554</ele>
        <time>2022-12-29T15:34:18.921Z</time>
      </trkpt>
      <trkpt lat="44.17265" lon="0.67344">
        <ele>99.81343</ele>
        <time>2022-12-29T15:34:22.912Z</time>
      </trkpt>
      <trkpt lat="44.17264" lon="0.67357">
        <ele>99.598494</ele>
        <time>2022-12-29T15:34:24.918Z</time>
      </trkpt>
      <trkpt lat="44.17262" lon="0.67369">
        <ele>99.381147</ele>
        <time>2022-12-29T15:34:26.923Z</time>
      </trkpt>
      <trkpt lat="44.17261" lon="0.67382">
        <ele>99.16675</ele>
        <time>2022-12-29T15:34:28.939Z</time>
      </trkpt>
      <trkpt lat="44.17258" lon="0.67395">
        <ele>98.939359</ele>
        <time>2022-12-29T15:34:30.922Z</time>
      </trkpt>
      <trkpt lat="44.17256" lon="0.67413">
        <ele>98.627363</ele>
        <time>2022-12-29T15:34:33.921Z</time>
      </trkpt>
      <trkpt lat="44.17253" lon="0.67431">
        <ele>98.304893</ele>
        <time>2022-12-29T15:34:36.921Z</time>
      </trkpt>
      <trkpt lat="44.1725" lon="0.6745">
        <ele>97.975995</ele>
        <time>2022-12-29T15:34:39.926Z</time>
      </trkpt>
      <trkpt lat="44.17248" lon="0.67464">
        <ele>97.730937</ele>
        <time>2022-12-29T15:34:41.922Z</time>
      </trkpt>
      <trkpt lat="44.17246" lon="0.67478">
        <ele>97.497272</ele>
        <time>2022-12-29T15:34:43.920Z</time>
      </trkpt>
      <trkpt lat="44.17244" lon="0.6749">
        <ele>97.274942</ele>
        <time>2022-12-29T15:34:45.935Z</time>
      </trkpt>
      <trkpt lat="44.17242" lon="0.67503">
        <ele>97.054175</ele>
        <time>2022-12-29T15:34:47.900Z</time>
      </trkpt>
      <trkpt lat="44.1724" lon="0.67515">
        <ele>96.839017</ele>
        <time>2022-12-29T15:34:49.912Z</time>
      </trkpt>
      <trkpt lat="44.17237" lon="0.67529">
        <ele>96.595602</ele>
        <time>2022-12-29T15:34:51.922Z</time>
      </trkpt>
      <trkpt lat="44.17236" lon="0.67543">
        <ele>96.359006</ele>
        <time>2022-12-29T15:34:53.923Z</time>
      </trkpt>
      <trkpt lat="44.17233" lon="0.67555">
        <ele>96.141053</ele>
        <time>2022-12-29T15:34:55.904Z</time>
      </trkpt>
      <trkpt lat="44.17232" lon="0.67568">
        <ele>95.957296</ele>
        <time>2022-12-29T15:34:57.925Z</time>
      </trkpt>
      <trkpt lat="44.17229" lon="0.67585">
        <ele>96.011131</ele>
        <time>2022-12-29T15:35:00.920Z</time>
      </trkpt>
      <trkpt lat="44.17226" lon="0.67604">
        <ele>96.073332</ele>
        <time>2022-12-29T15:35:03.921Z</time>
      </trkpt>
      <trkpt lat="44.17225" lon="0.67617">
        <ele>96.114259</ele>
        <time>2022-12-29T15:35:05.935Z</time>
      </trkpt>
      <trkpt lat="44.17223" lon="0.67636">
        <ele>96.173674</ele>
        <time>2022-12-29T15:35:08.922Z</time>
      </trkpt>
      <trkpt lat="44.17221" lon="0.67651">
        <ele>96.218263</ele>
        <time>2022-12-29T15:35:10.906Z</time>
      </trkpt>
      <trkpt lat="44.17219" lon="0.67667">
        <ele>96.271621</ele>
        <time>2022-12-29T15:35:13.920Z</time>
      </trkpt>
      <trkpt lat="44.17217" lon="0.67682">
        <ele>96.316892</ele>
        <time>2022-12-29T15:35:15.921Z</time>
      </trkpt>
      <trkpt lat="44.17214" lon="0.677">
        <ele>96.375584</ele>
        <time>2022-12-29T15:35:18.909Z</time>
      </trkpt>
      <trkpt lat="44.17212" lon="0.67714">
        <ele>96.417199</ele>
        <time>2022-12-29T15:35:20.919Z</time>
      </trkpt>
      <trkpt lat="44.1721" lon="0.67727">
        <ele>96.45968</ele>
        <time>2022-12-29T15:35:22.916Z</time>
      </trkpt>
      <trkpt lat="44.17207" lon="0.67741">
        <ele>96.503877</ele>
        <time>2022-12-29T15:35:24.920Z</time>
      </trkpt>
      <trkpt lat="44.17204" lon="0.67754">
        <ele>96.547583</ele>
        <time>2022-12-29T15:35:26.923Z</time>
      </trkpt>
      <trkpt lat="44.17202" lon="0.67768">
        <ele>96.591972</ele>
        <time>2022-12-29T15:35:28.906Z</time>
      </trkpt>
      <trkpt lat="44.17201" lon="0.67782">
        <ele>96.635268</ele>
        <time>2022-12-29T15:35:30.920Z</time>
      </trkpt>
      <trkpt lat="44.17198" lon="0.67796">
        <ele>96.680565</ele>
        <time>2022-12-29T15:35:32.920Z</time>
      </trkpt>
      <trkpt lat="44.17196" lon="0.6781">
        <ele>96.725256</ele>
        <time>2022-12-29T15:35:34.912Z</time>
      </trkpt>
      <trkpt lat="44.17194" lon="0.67825">
        <ele>96.634477</ele>
        <time>2022-12-29T15:35:36.920Z</time>
      </trkpt>
      <trkpt lat="44.17193" lon="0.67838">
        <ele>96.544466</ele>
        <time>2022-12-29T15:35:38.922Z</time>
      </trkpt>
      <trkpt lat="44.1719" lon="0.67857">
        <ele>96.418829</ele>
        <time>2022-12-29T15:35:41.921Z</time>
      </trkpt>
      <trkpt lat="44.17188" lon="0.67869">
        <ele>96.33375</ele>
        <time>2022-12-29T15:35:43.902Z</time>
      </trkpt>
      <trkpt lat="44.17186" lon="0.67882">
        <ele>96.245552</ele>
        <time>2022-12-29T15:35:45.922Z</time>
      </trkpt>
      <trkpt lat="44.17184" lon="0.67894">
        <ele>96.154455</ele>
        <time>2022-12-29T15:35:47.907Z</time>
      </trkpt>
      <trkpt lat="44.17182" lon="0.67908">
        <ele>96.064413</ele>
        <time>2022-12-29T15:35:49.920Z</time>
      </trkpt>
      <trkpt lat="44.17181" lon="0.67921">
        <ele>95.974851</ele>
        <time>2022-12-29T15:35:51.941Z</time>
      </trkpt>
      <trkpt lat="44.1718" lon="0.67935">
        <ele>95.878825</ele>
        <time>2022-12-29T15:35:53.917Z</time>
      </trkpt>
      <trkpt lat="44.17178" lon="0.67948">
        <ele>95.782626</ele>
        <time>2022-12-29T15:35:55.910Z</time>
      </trkpt>
      <trkpt lat="44.17175" lon="0.67962">
        <ele>95.690049</ele>
        <time>2022-12-29T15:35:57.920Z</time>
      </trkpt>
      <trkpt lat="44.17173" lon="0.67975">
        <ele>95.595667</ele>
        <time>2022-12-29T15:35:59.919Z</time>
      </trkpt>
      <trkpt lat="44.1717" lon="0.67993">
        <ele>95.471359</ele>
        <time>2022-12-29T15:36:02.918Z</time>
      </trkpt>
      <trkpt lat="44.17168" lon="0.68011">
        <ele>95.346457</ele>
        <time>2022-12-29T15:36:05.919Z</time>
      </trkpt>
      <trkpt lat="44.17165" lon="0.68027">
        <ele>95.23444</ele>
        <time>2022-12-29T15:36:08.919Z</time>
      </trkpt>
      <trkpt lat="44.17163" lon="0.68041">
        <ele>95.135675</ele>
        <time>2022-12-29T15:36:11.928Z</time>
      </trkpt>
      <trkpt lat="44.17161" lon="0.68058">
        <ele>95.023855</ele>
        <time>2022-12-29T15:36:14.920Z</time>
      </trkpt>
      <trkpt lat="44.17161" lon="0.68071">
        <ele>94.876674</ele>
        <time>2022-12-29T15:36:17.913Z</time>
      </trkpt>
      <trkpt lat="44.1716" lon="0.68088">
        <ele>94.689086</ele>
        <time>2022-12-29T15:36:21.920Z</time>
      </trkpt>
      <trkpt lat="44.17157" lon="0.68102">
        <ele>94.521309</ele>
        <time>2022-12-29T15:36:24.923Z</time>
      </trkpt>
      <trkpt lat="44.17153" lon="0.68119">
        <ele>94.326349</ele>
        <time>2022-12-29T15:36:27.923Z</time>
      </trkpt>
      <trkpt lat="44.1715" lon="0.68136">
        <ele>94.126129</ele>
        <time>2022-12-29T15:36:30.921Z</time>
      </trkpt>
      <trkpt lat="44.17148" lon="0.68154">
        <ele>93.927329</ele>
        <time>2022-12-29T15:36:33.928Z</time>
      </trkpt>
      <trkpt lat="44.17146" lon="0.68172">
        <ele>93.728175</ele>
        <time>2022-12-29T15:36:36.921Z</time>
      </trkpt>
      <trkpt lat="44.17143" lon="0.68189">
        <ele>93.526141</ele>
        <time>2022-12-29T15:36:39.922Z</time>
      </trkpt>
      <trkpt lat="44.1714" lon="0.68207">
        <ele>93.321832</ele>
        <time>2022-12-29T15:36:42.922Z</time>
      </trkpt>
      <trkpt lat="44.17137" lon="0.68224">
        <ele>93.132073</ele>
        <time>2022-12-29T15:36:45.920Z</time>
      </trkpt>
      <trkpt lat="44.17133" lon="0.68243">
        <ele>92.904443</ele>
        <time>2022-12-29T15:36:50.919Z</time>
      </trkpt>
      <trkpt lat="44.1713" lon="0.68256">
        <ele>92.76122</ele>
        <time>2022-12-29T15:36:52.913Z</time>
      </trkpt>
      <trkpt lat="44.17129" lon="0.68269">
        <ele>92.614058</ele>
        <time>2022-12-29T15:36:54.905Z</time>
      </trkpt>
      <trkpt lat="44.17127" lon="0.68286">
        <ele>92.415795</ele>
        <time>2022-12-29T15:36:57.920Z</time>
      </trkpt>
      <trkpt lat="44.17125" lon="0.68299">
        <ele>92.273404</ele>
        <time>2022-12-29T15:36:59.925Z</time>
      </trkpt>
      <trkpt lat="44.17123" lon="0.68312">
        <ele>92.467675</ele>
        <time>2022-12-29T15:37:01.934Z</time>
      </trkpt>
      <trkpt lat="44.17122" lon="0.68324">
        <ele>92.778982</ele>
        <time>2022-12-29T15:37:03.930Z</time>
      </trkpt>
      <trkpt lat="44.17119" lon="0.68342">
        <ele>93.211246</ele>
        <time>2022-12-29T15:37:06.918Z</time>
      </trkpt>
      <trkpt lat="44.17117" lon="0.68358">
        <ele>93.61938</ele>
        <time>2022-12-29T15:37:09.935Z</time>
      </trkpt>
      <trkpt lat="44.17114" lon="0.68375">
        <ele>94.034666</ele>
        <time>2022-12-29T15:37:12.921Z</time>
      </trkpt>
      <trkpt lat="44.17112" lon="0.68394">
        <ele>94.490026</ele>
        <time>2022-12-29T15:37:15.921Z</time>
      </trkpt>
      <trkpt lat="44.17109" lon="0.68412">
        <ele>94.93586</ele>
        <time>2022-12-29T15:37:18.926Z</time>
      </trkpt>
      <trkpt lat="44.17107" lon="0.6843">
        <ele>95.384583</ele>
        <time>2022-12-29T15:37:21.924Z</time>
      </trkpt>
      <trkpt lat="44.17105" lon="0.68447">
        <ele>95.815788</ele>
        <time>2022-12-29T15:37:24.905Z</time>
      </trkpt>
      <trkpt lat="44.17104" lon="0.68463">
        <ele>96.186411</ele>
        <time>2022-12-29T15:37:27.938Z</time>
      </trkpt>
      <trkpt lat="44.17104" lon="0.68475">
        <ele>96.49767</ele>
        <time>2022-12-29T15:37:30.923Z</time>
      </trkpt>
      <trkpt lat="44.17103" lon="0.68489">
        <ele>96.840636</ele>
        <time>2022-12-29T15:37:34.922Z</time>
      </trkpt>
      <trkpt lat="44.17102" lon="0.68505">
        <ele>97.207672</ele>
        <time>2022-12-29T15:37:39.921Z</time>
      </trkpt>
      <trkpt lat="44.17103" lon="0.68519">
        <ele>97.563483</ele>
        <time>2022-12-29T15:37:44.917Z</time>
      </trkpt>
      <trkpt lat="44.17104" lon="0.68533">
        <ele>97.909619</ele>
        <time>2022-12-29T15:37:49.918Z</time>
      </trkpt>
      <trkpt lat="44.17097" lon="0.68545">
        <ele>98.288822</ele>
        <time>2022-12-29T15:37:55.924Z</time>
      </trkpt>
      <trkpt lat="44.17093" lon="0.68562">
        <ele>98.284963</ele>
        <time>2022-12-29T15:37:58.921Z</time>
      </trkpt>
      <trkpt lat="44.17091" lon="0.68575">
        <ele>98.254423</ele>
        <time>2022-12-29T15:38:00.924Z</time>
      </trkpt>
      <trkpt lat="44.17088" lon="0.68588">
        <ele>98.224521</ele>
        <time>2022-12-29T15:38:02.921Z</time>
      </trkpt>
      <trkpt lat="44.17085" lon="0.686">
        <ele>98.194118</ele>
        <time>2022-12-29T15:38:04.905Z</time>
      </trkpt>
      <trkpt lat="44.17082" lon="0.68612">
        <ele>98.164273</ele>
        <time>2022-12-29T15:38:06.922Z</time>
      </trkpt>
      <trkpt lat="44.17079" lon="0.68626">
        <ele>98.130852</ele>
        <time>2022-12-29T15:38:08.931Z</time>
      </trkpt>
      <trkpt lat="44.17076" lon="0.6864">
        <ele>98.097848</ele>
        <time>2022-12-29T15:38:10.925Z</time>
      </trkpt>
      <trkpt lat="44.17074" lon="0.68654">
        <ele>98.064319</ele>
        <time>2022-12-29T15:38:12.925Z</time>
      </trkpt>
      <trkpt lat="44.17072" lon="0.68668">
        <ele>98.032828</ele>
        <time>2022-12-29T15:38:14.921Z</time>
      </trkpt>
      <trkpt lat="44.17069" lon="0.68686">
        <ele>97.990666</ele>
        <time>2022-12-29T15:38:17.931Z</time>
      </trkpt>
      <trkpt lat="44.17066" lon="0.68702">
        <ele>97.952305</ele>
        <time>2022-12-29T15:38:20.920Z</time>
      </trkpt>
      <trkpt lat="44.17064" lon="0.68718">
        <ele>97.915131</ele>
        <time>2022-12-29T15:38:23.921Z</time>
      </trkpt>
      <trkpt lat="44.17061" lon="0.68731">
        <ele>97.88235</ele>
        <time>2022-12-29T15:38:26.923Z</time>
      </trkpt>
      <trkpt lat="44.17058" lon="0.68745">
        <ele>97.850593</ele>
        <time>2022-12-29T15:38:29.938Z</time>
      </trkpt>
      <trkpt lat="44.17056" lon="0.68757">
        <ele>97.819847</ele>
        <time>2022-12-29T15:38:32.924Z</time>
      </trkpt>
      <trkpt lat="44.17053" lon="0.68771">
        <ele>97.787815</ele>
        <time>2022-12-29T15:38:35.920Z</time>
      </trkpt>
      <trkpt lat="44.17049" lon="0.68785">
        <ele>97.752778</ele>
        <time>2022-12-29T15:38:38.922Z</time>
      </trkpt>
      <trkpt lat="44.17045" lon="0.688">
        <ele>97.689374</ele>
        <time>2022-12-29T15:38:41.931Z</time>
      </trkpt>
      <trkpt lat="44.1704" lon="0.68817">
        <ele>97.617346</ele>
        <time>2022-12-29T15:38:44.920Z</time>
      </trkpt>
      <trkpt lat="44.17036" lon="0.68833">
        <ele>97.54231</ele>
        <time>2022-12-29T15:38:47.925Z</time>
      </trkpt>
      <trkpt lat="44.1703" lon="0.6885">
        <ele>97.466445</ele>
        <time>2022-12-29T15:38:50.924Z</time>
      </trkpt>
      <trkpt lat="44.17025" lon="0.68867">
        <ele>97.389027</ele>
        <time>2022-12-29T15:38:53.921Z</time>
      </trkpt>
      <trkpt lat="44.1702" lon="0.68878">
        <ele>97.336735</ele>
        <time>2022-12-29T15:38:55.924Z</time>
      </trkpt>
      <trkpt lat="44.17016" lon="0.68889">
        <ele>97.284357</ele>
        <time>2022-12-29T15:38:57.939Z</time>
      </trkpt>
      <trkpt lat="44.17009" lon="0.68905">
        <ele>97.206003</ele>
        <time>2022-12-29T15:39:00.906Z</time>
      </trkpt>
      <trkpt lat="44.17003" lon="0.68921">
        <ele>97.132052</ele>
        <time>2022-12-29T15:39:03.922Z</time>
      </trkpt>
      <trkpt lat="44.16996" lon="0.68935">
        <ele>97.063627</ele>
        <time>2022-12-29T15:39:06.923Z</time>
      </trkpt>
      <trkpt lat="44.1699" lon="0.68948">
        <ele>96.996353</ele>
        <time>2022-12-29T15:39:09.924Z</time>
      </trkpt>
      <trkpt lat="44.16984" lon="0.68959">
        <ele>96.938905</ele>
        <time>2022-12-29T15:39:12.935Z</time>
      </trkpt>
      <trkpt lat="44.16978" lon="0.6897">
        <ele>96.883762</ele>
        <time>2022-12-29T15:39:15.935Z</time>
      </trkpt>
      <trkpt lat="44.16972" lon="0.68979">
        <ele>96.831659</ele>
        <time>2022-12-29T15:39:18.908Z</time>
      </trkpt>
      <trkpt lat="44.16964" lon="0.68987">
        <ele>96.774335</ele>
        <time>2022-12-29T15:39:22.925Z</time>
      </trkpt>
      <trkpt lat="44.16957" lon="0.68998">
        <ele>96.710701</ele>
        <time>2022-12-29T15:39:26.923Z</time>
      </trkpt>
      <trkpt lat="44.1695" lon="0.69011">
        <ele>96.611262</ele>
        <time>2022-12-29T15:39:30.918Z</time>
      </trkpt>
      <trkpt lat="44.16947" lon="0.69025">
        <ele>96.517885</ele>
        <time>2022-12-29T15:39:34.910Z</time>
      </trkpt>
      <trkpt lat="44.16942" lon="0.6904">
        <ele>96.412399</ele>
        <time>2022-12-29T15:39:38.909Z</time>
      </trkpt>
      <trkpt lat="44.16937" lon="0.69053">
        <ele>96.319217</ele>
        <time>2022-12-29T15:39:41.918Z</time>
      </trkpt>
      <trkpt lat="44.16932" lon="0.69066">
        <ele>96.224357</ele>
        <time>2022-12-29T15:39:44.924Z</time>
      </trkpt>
      <trkpt lat="44.16926" lon="0.69081">
        <ele>96.118115</ele>
        <time>2022-12-29T15:39:47.923Z</time>
      </trkpt>
      <trkpt lat="44.1692" lon="0.69095">
        <ele>96.011984</ele>
        <time>2022-12-29T15:39:50.920Z</time>
      </trkpt>
      <trkpt lat="44.16913" lon="0.69111">
        <ele>95.892622</ele>
        <time>2022-12-29T15:39:53.924Z</time>
      </trkpt>
      <trkpt lat="44.16908" lon="0.69122">
        <ele>95.812301</ele>
        <time>2022-12-29T15:39:55.921Z</time>
      </trkpt>
      <trkpt lat="44.16903" lon="0.69132">
        <ele>95.730459</ele>
        <time>2022-12-29T15:39:57.919Z</time>
      </trkpt>
      <trkpt lat="44.16895" lon="0.69147">
        <ele>95.612377</ele>
        <time>2022-12-29T15:40:00.921Z</time>
      </trkpt>
      <trkpt lat="44.1689" lon="0.69159">
        <ele>95.524779</ele>
        <time>2022-12-29T15:40:02.923Z</time>
      </trkpt>
      <trkpt lat="44.16884" lon="0.6917">
        <ele>95.435706</ele>
        <time>2022-12-29T15:40:04.932Z</time>
      </trkpt>
      <trkpt lat="44.16877" lon="0.69186">
        <ele>95.319446</ele>
        <time>2022-12-29T15:40:07.926Z</time>
      </trkpt>
      <trkpt lat="44.16871" lon="0.69198">
        <ele>95.226223</ele>
        <time>2022-12-29T15:40:09.920Z</time>
      </trkpt>
      <trkpt lat="44.16866" lon="0.69209">
        <ele>95.144076</ele>
        <time>2022-12-29T15:40:11.925Z</time>
      </trkpt>
      <trkpt lat="44.16861" lon="0.6922">
        <ele>95.146763</ele>
        <time>2022-12-29T15:40:13.931Z</time>
      </trkpt>
      <trkpt lat="44.16856" lon="0.6923">
        <ele>95.22008</ele>
        <time>2022-12-29T15:40:15.929Z</time>
      </trkpt>
      <trkpt lat="44.16849" lon="0.69243">
        <ele>95.318983</ele>
        <time>2022-12-29T15:40:18.931Z</time>
      </trkpt>
      <trkpt lat="44.16843" lon="0.69254">
        <ele>95.393646</ele>
        <time>2022-12-29T15:40:20.921Z</time>
      </trkpt>
      <trkpt lat="44.16838" lon="0.69265">
        <ele>95.470289</ele>
        <time>2022-12-29T15:40:22.923Z</time>
      </trkpt>
      <trkpt lat="44.16833" lon="0.69276">
        <ele>95.547324</ele>
        <time>2022-12-29T15:40:24.922Z</time>
      </trkpt>
      <trkpt lat="44.16827" lon="0.69286">
        <ele>95.62483</ele>
        <time>2022-12-29T15:40:26.920Z</time>
      </trkpt>
      <trkpt lat="44.16822" lon="0.69297">
        <ele>95.701386</ele>
        <time>2022-12-29T15:40:28.906Z</time>
      </trkpt>
      <trkpt lat="44.16816" lon="0.69313">
        <ele>95.806139</ele>
        <time>2022-12-29T15:40:31.925Z</time>
      </trkpt>
      <trkpt lat="44.16811" lon="0.69329">
        <ele>95.906799</ele>
        <time>2022-12-29T15:40:34.928Z</time>
      </trkpt>
      <trkpt lat="44.16808" lon="0.69341">
        <ele>95.983929</ele>
        <time>2022-12-29T15:40:36.923Z</time>
      </trkpt>
      <trkpt lat="44.16801" lon="0.69355">
        <ele>96.083387</ele>
        <time>2022-12-29T15:40:39.901Z</time>
      </trkpt>
      <trkpt lat="44.16795" lon="0.69367">
        <ele>96.169945</ele>
        <time>2022-12-29T15:40:43.910Z</time>
      </trkpt>
      <trkpt lat="44.16789" lon="0.69378">
        <ele>96.246069</ele>
        <time>2022-12-29T15:40:46.939Z</time>
      </trkpt>
      <trkpt lat="44.16783" lon="0.69391">
        <ele>96.339278</ele>
        <time>2022-12-29T15:40:49.917Z</time>
      </trkpt>
      <trkpt lat="44.16776" lon="0.69405">
        <ele>96.441046</ele>
        <time>2022-12-29T15:40:52.908Z</time>
      </trkpt>
      <trkpt lat="44.16768" lon="0.6942">
        <ele>96.54708</ele>
        <time>2022-12-29T15:40:55.912Z</time>
      </trkpt>
      <trkpt lat="44.16761" lon="0.69435">
        <ele>96.653062</ele>
        <time>2022-12-29T15:40:58.908Z</time>
      </trkpt>
      <trkpt lat="44.16753" lon="0.6945">
        <ele>96.761975</ele>
        <time>2022-12-29T15:41:01.903Z</time>
      </trkpt>
      <trkpt lat="44.16748" lon="0.69461">
        <ele>96.835207</ele>
        <time>2022-12-29T15:41:03.908Z</time>
      </trkpt>
      <trkpt lat="44.16742" lon="0.69472">
        <ele>96.911283</ele>
        <time>2022-12-29T15:41:05.908Z</time>
      </trkpt>
      <trkpt lat="44.16737" lon="0.69483">
        <ele>96.987875</ele>
        <time>2022-12-29T15:41:07.910Z</time>
      </trkpt>
      <trkpt lat="44.16732" lon="0.69493">
        <ele>97.062515</ele>
        <time>2022-12-29T15:41:09.902Z</time>
      </trkpt>
      <trkpt lat="44.16727" lon="0.69504">
        <ele>97.135326</ele>
        <time>2022-12-29T15:41:11.907Z</time>
      </trkpt>
      <trkpt lat="44.1672" lon="0.69517">
        <ele>97.23297</ele>
        <time>2022-12-29T15:41:14.918Z</time>
      </trkpt>
      <trkpt lat="44.16713" lon="0.6953">
        <ele>97.319349</ele>
        <time>2022-12-29T15:41:17.906Z</time>
      </trkpt>
      <trkpt lat="44.16708" lon="0.69541">
        <ele>97.400105</ele>
        <time>2022-12-29T15:41:20.904Z</time>
      </trkpt>
      <trkpt lat="44.16702" lon="0.69553">
        <ele>97.48511</ele>
        <time>2022-12-29T15:41:23.910Z</time>
      </trkpt>
      <trkpt lat="44.16696" lon="0.69566">
        <ele>97.570149</ele>
        <time>2022-12-29T15:41:26.909Z</time>
      </trkpt>
      <trkpt lat="44.16691" lon="0.69579">
        <ele>97.658047</ele>
        <time>2022-12-29T15:41:30.917Z</time>
      </trkpt>
      <trkpt lat="44.16685" lon="0.69593">
        <ele>97.752853</ele>
        <time>2022-12-29T15:41:34.915Z</time>
      </trkpt>
      <trkpt lat="44.16679" lon="0.69606">
        <ele>97.84137</ele>
        <time>2022-12-29T15:41:38.907Z</time>
      </trkpt>
      <trkpt lat="44.16674" lon="0.69619">
        <ele>97.926081</ele>
        <time>2022-12-29T15:41:42.906Z</time>
      </trkpt>
      <trkpt lat="44.16669" lon="0.69631">
        <ele>98.003553</ele>
        <time>2022-12-29T15:41:46.909Z</time>
      </trkpt>
      <trkpt lat="44.16665" lon="0.69642">
        <ele>98.116129</ele>
        <time>2022-12-29T15:41:50.904Z</time>
      </trkpt>
      <trkpt lat="44.1666" lon="0.69654">
        <ele>98.242153</ele>
        <time>2022-12-29T15:41:54.908Z</time>
      </trkpt>
      <trkpt lat="44.16655" lon="0.69666">
        <ele>98.38175</ele>
        <time>2022-12-29T15:41:59.902Z</time>
      </trkpt>
      <trkpt lat="44.16649" lon="0.69676">
        <ele>98.505775</ele>
        <time>2022-12-29T15:42:02.911Z</time>
      </trkpt>
      <trkpt lat="44.16642" lon="0.69691">
        <ele>98.67337</ele>
        <time>2022-12-29T15:42:05.903Z</time>
      </trkpt>
      <trkpt lat="44.16637" lon="0.69701">
        <ele>98.793752</ele>
        <time>2022-12-29T15:42:07.915Z</time>
      </trkpt>
      <trkpt lat="44.16632" lon="0.69712">
        <ele>98.921043</ele>
        <time>2022-12-29T15:42:09.904Z</time>
      </trkpt>
      <trkpt lat="44.16626" lon="0.69725">
        <ele>99.065366</ele>
        <time>2022-12-29T15:42:11.918Z</time>
      </trkpt>
      <trkpt lat="44.1662" lon="0.69738">
        <ele>99.210611</ele>
        <time>2022-12-29T15:42:13.901Z</time>
      </trkpt>
      <trkpt lat="44.16613" lon="0.69751">
        <ele>99.362669</ele>
        <time>2022-12-29T15:42:15.906Z</time>
      </trkpt>
      <trkpt lat="44.16607" lon="0.69764">
        <ele>99.516257</ele>
        <time>2022-12-29T15:42:17.908Z</time>
      </trkpt>
      <trkpt lat="44.166" lon="0.69775">
        <ele>99.652827</ele>
        <time>2022-12-29T15:42:19.908Z</time>
      </trkpt>
      <trkpt lat="44.16594" lon="0.69787">
        <ele>99.794786</ele>
        <time>2022-12-29T15:42:21.904Z</time>
      </trkpt>
      <trkpt lat="44.16588" lon="0.698">
        <ele>99.936102</ele>
        <time>2022-12-29T15:42:23.903Z</time>
      </trkpt>
      <trkpt lat="44.16583" lon="0.69811">
        <ele>100.064103</ele>
        <time>2022-12-29T15:42:25.909Z</time>
      </trkpt>
      <trkpt lat="44.16577" lon="0.69822">
        <ele>100.196747</ele>
        <time>2022-12-29T15:42:27.916Z</time>
      </trkpt>
      <trkpt lat="44.16572" lon="0.69833">
        <ele>100.323206</ele>
        <time>2022-12-29T15:42:29.908Z</time>
      </trkpt>
      <trkpt lat="44.16567" lon="0.69843">
        <ele>100.413941</ele>
        <time>2022-12-29T15:42:31.913Z</time>
      </trkpt>
      <trkpt lat="44.16559" lon="0.69858">
        <ele>100.405102</ele>
        <time>2022-12-29T15:42:34.912Z</time>
      </trkpt>
      <trkpt lat="44.16552" lon="0.69871">
        <ele>100.397166</ele>
        <time>2022-12-29T15:42:37.904Z</time>
      </trkpt>
      <trkpt lat="44.16546" lon="0.69884">
        <ele>100.390076</ele>
        <time>2022-12-29T15:42:40.905Z</time>
      </trkpt>
      <trkpt lat="44.16541" lon="0.69896">
        <ele>100.38345</ele>
        <time>2022-12-29T15:42:43.906Z</time>
      </trkpt>
      <trkpt lat="44.16536" lon="0.69906">
        <ele>100.377243</ele>
        <time>2022-12-29T15:42:46.900Z</time>
      </trkpt>
      <trkpt lat="44.16531" lon="0.69921">
        <ele>100.369262</ele>
        <time>2022-12-29T15:42:50.905Z</time>
      </trkpt>
      <trkpt lat="44.16528" lon="0.69933">
        <ele>100.363002</ele>
        <time>2022-12-29T15:42:53.905Z</time>
      </trkpt>
      <trkpt lat="44.16525" lon="0.69948">
        <ele>100.355529</ele>
        <time>2022-12-29T15:42:56.901Z</time>
      </trkpt>
      <trkpt lat="44.16522" lon="0.69965">
        <ele>100.347266</ele>
        <time>2022-12-29T15:42:59.901Z</time>
      </trkpt>
      <trkpt lat="44.16519" lon="0.69982">
        <ele>100.338628</ele>
        <time>2022-12-29T15:43:02.903Z</time>
      </trkpt>
      <trkpt lat="44.16516" lon="0.69994">
        <ele>100.332475</ele>
        <time>2022-12-29T15:43:04.908Z</time>
      </trkpt>
      <trkpt lat="44.16512" lon="0.70011">
        <ele>100.324143</ele>
        <time>2022-12-29T15:43:07.907Z</time>
      </trkpt>
      <trkpt lat="44.16509" lon="0.70026">
        <ele>100.316475</ele>
        <time>2022-12-29T15:43:10.906Z</time>
      </trkpt>
      <trkpt lat="44.16507" lon="0.70039">
        <ele>100.310047</ele>
        <time>2022-12-29T15:43:13.905Z</time>
      </trkpt>
      <trkpt lat="44.16505" lon="0.70055">
        <ele>100.302171</ele>
        <time>2022-12-29T15:43:17.908Z</time>
      </trkpt>
      <trkpt lat="44.16501" lon="0.70068">
        <ele>100.295396</ele>
        <time>2022-12-29T15:43:21.909Z</time>
      </trkpt>
      <trkpt lat="44.16492" lon="0.70069">
        <ele>100.264823</ele>
        <time>2022-12-29T15:43:25.906Z</time>
      </trkpt>
      <trkpt lat="44.1648" lon="0.70063">
        <ele>100.216817</ele>
        <time>2022-12-29T15:43:29.912Z</time>
      </trkpt>
      <trkpt lat="44.16471" lon="0.70063">
        <ele>100.178456</ele>
        <time>2022-12-29T15:43:32.902Z</time>
      </trkpt>
      <trkpt lat="44.16461" lon="0.70063">
        <ele>100.136888</ele>
        <time>2022-12-29T15:43:35.923Z</time>
      </trkpt>
      <trkpt lat="44.16453" lon="0.7007">
        <ele>100.096761</ele>
        <time>2022-12-29T15:43:37.922Z</time>
      </trkpt>
      <trkpt lat="44.16446" lon="0.7008">
        <ele>100.05676</ele>
        <time>2022-12-29T15:43:39.931Z</time>
      </trkpt>
      <trkpt lat="44.1644" lon="0.7009">
        <ele>100.019692</ele>
        <time>2022-12-29T15:43:41.926Z</time>
      </trkpt>
      <trkpt lat="44.16435" lon="0.70102">
        <ele>99.980014</ele>
        <time>2022-12-29T15:43:43.936Z</time>
      </trkpt>
      <trkpt lat="44.1643" lon="0.70113">
        <ele>99.941504</ele>
        <time>2022-12-29T15:43:45.931Z</time>
      </trkpt>
      <trkpt lat="44.16424" lon="0.70123">
        <ele>99.903251</ele>
        <time>2022-12-29T15:43:47.924Z</time>
      </trkpt>
      <trkpt lat="44.16419" lon="0.70134">
        <ele>99.864973</ele>
        <time>2022-12-29T15:43:49.929Z</time>
      </trkpt>
      <trkpt lat="44.16413" lon="0.70146">
        <ele>99.822213</ele>
        <time>2022-12-29T15:43:51.922Z</time>
      </trkpt>
      <trkpt lat="44.16407" lon="0.70158">
        <ele>99.780018</ele>
        <time>2022-12-29T15:43:53.927Z</time>
      </trkpt>
      <trkpt lat="44.16402" lon="0.70169">
        <ele>99.741484</ele>
        <time>2022-12-29T15:43:55.923Z</time>
      </trkpt>
      <trkpt lat="44.16396" lon="0.70182">
        <ele>99.695634</ele>
        <time>2022-12-29T15:43:57.926Z</time>
      </trkpt>
      <trkpt lat="44.16389" lon="0.70194">
        <ele>99.652403</ele>
        <time>2022-12-29T15:43:59.933Z</time>
      </trkpt>
      <trkpt lat="44.16383" lon="0.70205">
        <ele>99.611305</ele>
        <time>2022-12-29T15:44:01.932Z</time>
      </trkpt>
      <trkpt lat="44.16377" lon="0.70217">
        <ele>99.567836</ele>
        <time>2022-12-29T15:44:03.935Z</time>
      </trkpt>
      <trkpt lat="44.16372" lon="0.7023">
        <ele>99.491608</ele>
        <time>2022-12-29T15:44:05.927Z</time>
      </trkpt>
      <trkpt lat="44.16366" lon="0.70242">
        <ele>99.410428</ele>
        <time>2022-12-29T15:44:07.923Z</time>
      </trkpt>
      <trkpt lat="44.16359" lon="0.70256">
        <ele>99.31876</ele>
        <time>2022-12-29T15:44:09.932Z</time>
      </trkpt>
      <trkpt lat="44.16353" lon="0.70269">
        <ele>99.225825</ele>
        <time>2022-12-29T15:44:11.929Z</time>
      </trkpt>
      <trkpt lat="44.16347" lon="0.70283">
        <ele>99.138118</ele>
        <time>2022-12-29T15:44:13.921Z</time>
      </trkpt>
      <trkpt lat="44.16341" lon="0.70295">
        <ele>99.053754</ele>
        <time>2022-12-29T15:44:15.939Z</time>
      </trkpt>
      <trkpt lat="44.16334" lon="0.70309">
        <ele>98.96302</ele>
        <time>2022-12-29T15:44:17.926Z</time>
      </trkpt>
      <trkpt lat="44.16329" lon="0.70323">
        <ele>98.875238</ele>
        <time>2022-12-29T15:44:19.925Z</time>
      </trkpt>
      <trkpt lat="44.16322" lon="0.70336">
        <ele>98.783145</ele>
        <time>2022-12-29T15:44:21.930Z</time>
      </trkpt>
      <trkpt lat="44.16316" lon="0.70349">
        <ele>98.69837</ele>
        <time>2022-12-29T15:44:23.928Z</time>
      </trkpt>
      <trkpt lat="44.1631" lon="0.70362">
        <ele>98.610854</ele>
        <time>2022-12-29T15:44:25.930Z</time>
      </trkpt>
      <trkpt lat="44.16303" lon="0.70375">
        <ele>98.524719</ele>
        <time>2022-12-29T15:44:27.927Z</time>
      </trkpt>
      <trkpt lat="44.16297" lon="0.70387">
        <ele>98.440354</ele>
        <time>2022-12-29T15:44:29.924Z</time>
      </trkpt>
      <trkpt lat="44.16291" lon="0.704">
        <ele>98.353759</ele>
        <time>2022-12-29T15:44:31.926Z</time>
      </trkpt>
      <trkpt lat="44.16284" lon="0.70413">
        <ele>98.262184</ele>
        <time>2022-12-29T15:44:33.932Z</time>
      </trkpt>
      <trkpt lat="44.16278" lon="0.70427">
        <ele>98.174169</ele>
        <time>2022-12-29T15:44:35.909Z</time>
      </trkpt>
      <trkpt lat="44.16271" lon="0.70439">
        <ele>98.185003</ele>
        <time>2022-12-29T15:44:37.907Z</time>
      </trkpt>
      <trkpt lat="44.16264" lon="0.70452">
        <ele>98.212016</ele>
        <time>2022-12-29T15:44:39.930Z</time>
      </trkpt>
      <trkpt lat="44.16258" lon="0.70465">
        <ele>98.238546</ele>
        <time>2022-12-29T15:44:41.935Z</time>
      </trkpt>
      <trkpt lat="44.16252" lon="0.70478">
        <ele>98.264609</ele>
        <time>2022-12-29T15:44:43.930Z</time>
      </trkpt>
      <trkpt lat="44.16246" lon="0.70489">
        <ele>98.287009</ele>
        <time>2022-12-29T15:44:45.935Z</time>
      </trkpt>
      <trkpt lat="44.1624" lon="0.70501">
        <ele>98.310774</ele>
        <time>2022-12-29T15:44:47.927Z</time>
      </trkpt>
      <trkpt lat="44.16236" lon="0.70512">
        <ele>98.332713</ele>
        <time>2022-12-29T15:44:49.926Z</time>
      </trkpt>
      <trkpt lat="44.1623" lon="0.70523">
        <ele>98.354313</ele>
        <time>2022-12-29T15:44:51.934Z</time>
      </trkpt>
      <trkpt lat="44.16225" lon="0.70533">
        <ele>98.375761</ele>
        <time>2022-12-29T15:44:53.921Z</time>
      </trkpt>
      <trkpt lat="44.1622" lon="0.70544">
        <ele>98.397891</ele>
        <time>2022-12-29T15:44:55.921Z</time>
      </trkpt>
      <trkpt lat="44.16213" lon="0.7056">
        <ele>98.427741</ele>
        <time>2022-12-29T15:44:58.928Z</time>
      </trkpt>
      <trkpt lat="44.16208" lon="0.70571">
        <ele>98.451506</ele>
        <time>2022-12-29T15:45:00.920Z</time>
      </trkpt>
      <trkpt lat="44.16202" lon="0.70583">
        <ele>98.47541</ele>
        <time>2022-12-29T15:45:02.906Z</time>
      </trkpt>
      <trkpt lat="44.16196" lon="0.70595">
        <ele>98.499032</ele>
        <time>2022-12-29T15:45:04.903Z</time>
      </trkpt>
      <trkpt lat="44.16191" lon="0.70606">
        <ele>98.521377</ele>
        <time>2022-12-29T15:45:06.906Z</time>
      </trkpt>
      <trkpt lat="44.16184" lon="0.70621">
        <ele>98.551005</ele>
        <time>2022-12-29T15:45:09.909Z</time>
      </trkpt>
      <trkpt lat="44.16179" lon="0.70632">
        <ele>98.572071</ele>
        <time>2022-12-29T15:45:11.909Z</time>
      </trkpt>
      <trkpt lat="44.16172" lon="0.70647">
        <ele>98.651814</ele>
        <time>2022-12-29T15:45:14.909Z</time>
      </trkpt>
      <trkpt lat="44.16165" lon="0.70662">
        <ele>98.75371</ele>
        <time>2022-12-29T15:45:17.917Z</time>
      </trkpt>
      <trkpt lat="44.1616" lon="0.70673">
        <ele>98.830383</ele>
        <time>2022-12-29T15:45:19.908Z</time>
      </trkpt>
      <trkpt lat="44.16154" lon="0.70683">
        <ele>98.906123</ele>
        <time>2022-12-29T15:45:21.910Z</time>
      </trkpt>
      <trkpt lat="44.16149" lon="0.70694">
        <ele>98.981395</ele>
        <time>2022-12-29T15:45:23.912Z</time>
      </trkpt>
      <trkpt lat="44.16143" lon="0.70705">
        <ele>99.058089</ele>
        <time>2022-12-29T15:45:25.913Z</time>
      </trkpt>
      <trkpt lat="44.16137" lon="0.70716">
        <ele>99.136615</ele>
        <time>2022-12-29T15:45:27.903Z</time>
      </trkpt>
      <trkpt lat="44.16132" lon="0.70727">
        <ele>99.215605</ele>
        <time>2022-12-29T15:45:29.915Z</time>
      </trkpt>
      <trkpt lat="44.16126" lon="0.7074">
        <ele>99.299776</ele>
        <time>2022-12-29T15:45:31.912Z</time>
      </trkpt>
      <trkpt lat="44.1612" lon="0.70752">
        <ele>99.3862</ele>
        <time>2022-12-29T15:45:33.914Z</time>
      </trkpt>
      <trkpt lat="44.16114" lon="0.70763">
        <ele>99.465209</ele>
        <time>2022-12-29T15:45:35.905Z</time>
      </trkpt>
      <trkpt lat="44.16108" lon="0.70775">
        <ele>99.5442</ele>
        <time>2022-12-29T15:45:37.910Z</time>
      </trkpt>
      <trkpt lat="44.16103" lon="0.70786">
        <ele>99.621883</ele>
        <time>2022-12-29T15:45:39.912Z</time>
      </trkpt>
      <trkpt lat="44.16097" lon="0.70797">
        <ele>99.699951</ele>
        <time>2022-12-29T15:45:41.910Z</time>
      </trkpt>
      <trkpt lat="44.1609" lon="0.70814">
        <ele>99.809488</ele>
        <time>2022-12-29T15:45:44.913Z</time>
      </trkpt>
      <trkpt lat="44.16085" lon="0.70826">
        <ele>99.892028</ele>
        <time>2022-12-29T15:45:46.907Z</time>
      </trkpt>
      <trkpt lat="44.16079" lon="0.70839">
        <ele>99.978987</ele>
        <time>2022-12-29T15:45:48.912Z</time>
      </trkpt>
      <trkpt lat="44.16073" lon="0.70852">
        <ele>99.94626</ele>
        <time>2022-12-29T15:45:50.906Z</time>
      </trkpt>
      <trkpt lat="44.16068" lon="0.70865">
        <ele>99.830101</ele>
        <time>2022-12-29T15:45:52.907Z</time>
      </trkpt>
      <trkpt lat="44.16063" lon="0.70878">
        <ele>99.721422</ele>
        <time>2022-12-29T15:45:54.909Z</time>
      </trkpt>
      <trkpt lat="44.16059" lon="0.7089">
        <ele>99.622683</ele>
        <time>2022-12-29T15:45:56.906Z</time>
      </trkpt>
      <trkpt lat="44.16055" lon="0.70902">
        <ele>99.519958</ele>
        <time>2022-12-29T15:45:59.911Z</time>
      </trkpt>
      <trkpt lat="44.16051" lon="0.70915">
        <ele>99.412823</ele>
        <time>2022-12-29T15:46:03.911Z</time>
      </trkpt>
      <trkpt lat="44.16045" lon="0.70928">
        <ele>99.299444</ele>
        <time>2022-12-29T15:46:07.911Z</time>
      </trkpt>
      <trkpt lat="44.16041" lon="0.7094">
        <ele>99.195106</ele>
        <time>2022-12-29T15:46:12.905Z</time>
      </trkpt>
      <trkpt lat="44.16036" lon="0.70953">
        <ele>99.083293</ele>
        <time>2022-12-29T15:46:20.913Z</time>
      </trkpt>
      <trkpt lat="44.1603" lon="0.70968">
        <ele>98.957721</ele>
        <time>2022-12-29T15:46:23.903Z</time>
      </trkpt>
      <trkpt lat="44.16026" lon="0.7098">
        <ele>98.851341</ele>
        <time>2022-12-29T15:46:25.911Z</time>
      </trkpt>
      <trkpt lat="44.1602" lon="0.70993">
        <ele>98.734925</ele>
        <time>2022-12-29T15:46:27.906Z</time>
      </trkpt>
      <trkpt lat="44.16014" lon="0.71008">
        <ele>98.602636</ele>
        <time>2022-12-29T15:46:29.902Z</time>
      </trkpt>
      <trkpt lat="44.16007" lon="0.71022">
        <ele>98.475331</ele>
        <time>2022-12-29T15:46:31.900Z</time>
      </trkpt>
      <trkpt lat="44.16001" lon="0.71036">
        <ele>98.354029</ele>
        <time>2022-12-29T15:46:33.929Z</time>
      </trkpt>
      <trkpt lat="44.15996" lon="0.7105">
        <ele>98.232023</ele>
        <time>2022-12-29T15:46:35.904Z</time>
      </trkpt>
      <trkpt lat="44.15992" lon="0.71063">
        <ele>98.121764</ele>
        <time>2022-12-29T15:46:37.911Z</time>
      </trkpt>
      <trkpt lat="44.15986" lon="0.71076">
        <ele>98.248463</ele>
        <time>2022-12-29T15:46:39.908Z</time>
      </trkpt>
      <trkpt lat="44.15982" lon="0.71088">
        <ele>98.390598</ele>
        <time>2022-12-29T15:46:41.908Z</time>
      </trkpt>
      <trkpt lat="44.15978" lon="0.711">
        <ele>98.535291</ele>
        <time>2022-12-29T15:46:43.911Z</time>
      </trkpt>
      <trkpt lat="44.15973" lon="0.71112">
        <ele>98.680682</ele>
        <time>2022-12-29T15:46:45.915Z</time>
      </trkpt>
      <trkpt lat="44.15968" lon="0.71124">
        <ele>98.827664</ele>
        <time>2022-12-29T15:46:47.910Z</time>
      </trkpt>
      <trkpt lat="44.15964" lon="0.71136">
        <ele>98.975334</ele>
        <time>2022-12-29T15:46:49.912Z</time>
      </trkpt>
      <trkpt lat="44.15959" lon="0.7115">
        <ele>99.137845</ele>
        <time>2022-12-29T15:46:51.910Z</time>
      </trkpt>
      <trkpt lat="44.15954" lon="0.71163">
        <ele>99.290213</ele>
        <time>2022-12-29T15:46:53.906Z</time>
      </trkpt>
      <trkpt lat="44.15949" lon="0.71175">
        <ele>99.433229</ele>
        <time>2022-12-29T15:46:55.913Z</time>
      </trkpt>
      <trkpt lat="44.15945" lon="0.71188">
        <ele>99.59099</ele>
        <time>2022-12-29T15:46:57.904Z</time>
      </trkpt>
      <trkpt lat="44.15939" lon="0.71202">
        <ele>99.757103</ele>
        <time>2022-12-29T15:46:59.907Z</time>
      </trkpt>
      <trkpt lat="44.15935" lon="0.71214">
        <ele>99.901783</ele>
        <time>2022-12-29T15:47:01.908Z</time>
      </trkpt>
      <trkpt lat="44.1593" lon="0.71227">
        <ele>100.05622</ele>
        <time>2022-12-29T15:47:03.912Z</time>
      </trkpt>
      <trkpt lat="44.15925" lon="0.71238">
        <ele>100.196585</ele>
        <time>2022-12-29T15:47:05.907Z</time>
      </trkpt>
      <trkpt lat="44.1592" lon="0.7125">
        <ele>100.339229</ele>
        <time>2022-12-29T15:47:07.911Z</time>
      </trkpt>
      <trkpt lat="44.15916" lon="0.71262">
        <ele>100.48487</ele>
        <time>2022-12-29T15:47:09.908Z</time>
      </trkpt>
      <trkpt lat="44.15911" lon="0.71274">
        <ele>100.632542</ele>
        <time>2022-12-29T15:47:11.912Z</time>
      </trkpt>
      <trkpt lat="44.15906" lon="0.71286">
        <ele>100.76466</ele>
        <time>2022-12-29T15:47:13.907Z</time>
      </trkpt>
      <trkpt lat="44.15901" lon="0.71299">
        <ele>100.696601</ele>
        <time>2022-12-29T15:47:15.910Z</time>
      </trkpt>
      <trkpt lat="44.15896" lon="0.71313">
        <ele>100.628542</ele>
        <time>2022-12-29T15:47:17.905Z</time>
      </trkpt>
      <trkpt lat="44.15892" lon="0.71325">
        <ele>100.566044</ele>
        <time>2022-12-29T15:47:19.906Z</time>
      </trkpt>
      <trkpt lat="44.15887" lon="0.71337">
        <ele>100.50315</ele>
        <time>2022-12-29T15:47:21.911Z</time>
      </trkpt>
      <trkpt lat="44.15881" lon="0.7135">
        <ele>100.436196</ele>
        <time>2022-12-29T15:47:23.901Z</time>
      </trkpt>
      <trkpt lat="44.15877" lon="0.71362">
        <ele>100.376484</ele>
        <time>2022-12-29T15:47:25.903Z</time>
      </trkpt>
      <trkpt lat="44.15873" lon="0.71375">
        <ele>100.312368</ele>
        <time>2022-12-29T15:47:27.914Z</time>
      </trkpt>
      <trkpt lat="44.15869" lon="0.71387">
        <ele>100.251239</ele>
        <time>2022-12-29T15:47:29.912Z</time>
      </trkpt>
      <trkpt lat="44.15864" lon="0.71399">
        <ele>100.189947</ele>
        <time>2022-12-29T15:47:31.912Z</time>
      </trkpt>
      <trkpt lat="44.1586" lon="0.71411">
        <ele>100.128623</ele>
        <time>2022-12-29T15:47:33.899Z</time>
      </trkpt>
      <trkpt lat="44.15855" lon="0.71422">
        <ele>100.071123</ele>
        <time>2022-12-29T15:47:35.909Z</time>
      </trkpt>
      <trkpt lat="44.1585" lon="0.71433">
        <ele>100.010579</ele>
        <time>2022-12-29T15:47:37.905Z</time>
      </trkpt>
      <trkpt lat="44.15846" lon="0.71445">
        <ele>99.950415</ele>
        <time>2022-12-29T15:47:39.909Z</time>
      </trkpt>
      <trkpt lat="44.15843" lon="0.71458">
        <ele>99.887338</ele>
        <time>2022-12-29T15:47:41.912Z</time>
      </trkpt>
      <trkpt lat="44.15839" lon="0.7147">
        <ele>99.828262</ele>
        <time>2022-12-29T15:47:43.905Z</time>
      </trkpt>
      <trkpt lat="44.15834" lon="0.71482">
        <ele>99.76857</ele>
        <time>2022-12-29T15:47:45.911Z</time>
      </trkpt>
      <trkpt lat="44.1583" lon="0.71494">
        <ele>99.706201</ele>
        <time>2022-12-29T15:47:47.903Z</time>
      </trkpt>
      <trkpt lat="44.15827" lon="0.71506">
        <ele>99.646488</ele>
        <time>2022-12-29T15:47:49.910Z</time>
      </trkpt>
      <trkpt lat="44.15822" lon="0.7152">
        <ele>99.708334</ele>
        <time>2022-12-29T15:47:51.903Z</time>
      </trkpt>
      <trkpt lat="44.15817" lon="0.71533">
        <ele>99.796954</ele>
        <time>2022-12-29T15:47:53.908Z</time>
      </trkpt>
      <trkpt lat="44.15813" lon="0.71545">
        <ele>99.875683</ele>
        <time>2022-12-29T15:47:55.913Z</time>
      </trkpt>
      <trkpt lat="44.15809" lon="0.71558">
        <ele>99.959481</ele>
        <time>2022-12-29T15:47:57.913Z</time>
      </trkpt>
      <trkpt lat="44.15806" lon="0.71571">
        <ele>100.041973</ele>
        <time>2022-12-29T15:47:59.911Z</time>
      </trkpt>
      <trkpt lat="44.15802" lon="0.71584">
        <ele>100.126784</ele>
        <time>2022-12-29T15:48:01.912Z</time>
      </trkpt>
      <trkpt lat="44.15799" lon="0.71598">
        <ele>100.212376</ele>
        <time>2022-12-29T15:48:03.902Z</time>
      </trkpt>
      <trkpt lat="44.15795" lon="0.71611">
        <ele>100.299116</ele>
        <time>2022-12-29T15:48:05.907Z</time>
      </trkpt>
      <trkpt lat="44.15792" lon="0.71624">
        <ele>100.381334</ele>
        <time>2022-12-29T15:48:07.912Z</time>
      </trkpt>
      <trkpt lat="44.15789" lon="0.71638">
        <ele>100.466834</ele>
        <time>2022-12-29T15:48:09.908Z</time>
      </trkpt>
      <trkpt lat="44.15787" lon="0.71652">
        <ele>100.555758</ele>
        <time>2022-12-29T15:48:11.908Z</time>
      </trkpt>
      <trkpt lat="44.15784" lon="0.71666">
        <ele>100.642366</ele>
        <time>2022-12-29T15:48:13.910Z</time>
      </trkpt>
      <trkpt lat="44.15782" lon="0.7168">
        <ele>100.727795</ele>
        <time>2022-12-29T15:48:15.914Z</time>
      </trkpt>
      <trkpt lat="44.15779" lon="0.71694">
        <ele>100.814388</ele>
        <time>2022-12-29T15:48:17.906Z</time>
      </trkpt>
      <trkpt lat="44.15776" lon="0.71709">
        <ele>100.908431</ele>
        <time>2022-12-29T15:48:19.916Z</time>
      </trkpt>
      <trkpt lat="44.15774" lon="0.71724">
        <ele>101.00222</ele>
        <time>2022-12-29T15:48:21.914Z</time>
      </trkpt>
      <trkpt lat="44.15771" lon="0.7174">
        <ele>101.097762</ele>
        <time>2022-12-29T15:48:23.914Z</time>
      </trkpt>
      <trkpt lat="44.15769" lon="0.71756">
        <ele>101.231289</ele>
        <time>2022-12-29T15:48:25.912Z</time>
      </trkpt>
      <trkpt lat="44.15766" lon="0.71771">
        <ele>101.382205</ele>
        <time>2022-12-29T15:48:27.912Z</time>
      </trkpt>
      <trkpt lat="44.15764" lon="0.71786">
        <ele>101.538263</ele>
        <time>2022-12-29T15:48:29.909Z</time>
      </trkpt>
      <trkpt lat="44.15761" lon="0.71802">
        <ele>101.69557</ele>
        <time>2022-12-29T15:48:31.908Z</time>
      </trkpt>
      <trkpt lat="44.15759" lon="0.71817">
        <ele>101.846765</ele>
        <time>2022-12-29T15:48:33.913Z</time>
      </trkpt>
      <trkpt lat="44.15757" lon="0.71833">
        <ele>102.011492</ele>
        <time>2022-12-29T15:48:35.912Z</time>
      </trkpt>
      <trkpt lat="44.15755" lon="0.71846">
        <ele>102.143022</ele>
        <time>2022-12-29T15:48:37.910Z</time>
      </trkpt>
      <trkpt lat="44.15754" lon="0.7186">
        <ele>102.274344</ele>
        <time>2022-12-29T15:48:39.909Z</time>
      </trkpt>
      <trkpt lat="44.15752" lon="0.71874">
        <ele>102.421261</ele>
        <time>2022-12-29T15:48:42.915Z</time>
      </trkpt>
      <trkpt lat="44.1575" lon="0.7189">
        <ele>102.577283</ele>
        <time>2022-12-29T15:48:46.904Z</time>
      </trkpt>
      <trkpt lat="44.15747" lon="0.71902">
        <ele>102.705239</ele>
        <time>2022-12-29T15:48:50.912Z</time>
      </trkpt>
      <trkpt lat="44.15744" lon="0.71915">
        <ele>102.833096</ele>
        <time>2022-12-29T15:48:54.909Z</time>
      </trkpt>
      <trkpt lat="44.15741" lon="0.71927">
        <ele>102.959091</ele>
        <time>2022-12-29T15:48:57.906Z</time>
      </trkpt>
      <trkpt lat="44.15738" lon="0.71939">
        <ele>103.088819</ele>
        <time>2022-12-29T15:48:59.905Z</time>
      </trkpt>
      <trkpt lat="44.15735" lon="0.71955">
        <ele>103.249672</ele>
        <time>2022-12-29T15:49:01.916Z</time>
      </trkpt>
      <trkpt lat="44.15733" lon="0.71971">
        <ele>103.407106</ele>
        <time>2022-12-29T15:49:03.903Z</time>
      </trkpt>
      <trkpt lat="44.15732" lon="0.71985">
        <ele>103.54978</ele>
        <time>2022-12-29T15:49:05.906Z</time>
      </trkpt>
      <trkpt lat="44.1573" lon="0.71998">
        <ele>103.533576</ele>
        <time>2022-12-29T15:49:07.904Z</time>
      </trkpt>
      <trkpt lat="44.15728" lon="0.72011">
        <ele>103.410116</ele>
        <time>2022-12-29T15:49:09.903Z</time>
      </trkpt>
      <trkpt lat="44.15726" lon="0.72024">
        <ele>103.280072</ele>
        <time>2022-12-29T15:49:11.911Z</time>
      </trkpt>
      <trkpt lat="44.15724" lon="0.72036">
        <ele>103.154989</ele>
        <time>2022-12-29T15:49:13.904Z</time>
      </trkpt>
      <trkpt lat="44.15721" lon="0.72054">
        <ele>102.977678</ele>
        <time>2022-12-29T15:49:16.909Z</time>
      </trkpt>
      <trkpt lat="44.15718" lon="0.72072">
        <ele>102.797558</ele>
        <time>2022-12-29T15:49:19.911Z</time>
      </trkpt>
      <trkpt lat="44.15715" lon="0.72089">
        <ele>102.628075</ele>
        <time>2022-12-29T15:49:22.904Z</time>
      </trkpt>
      <trkpt lat="44.15711" lon="0.72108">
        <ele>102.443068</ele>
        <time>2022-12-29T15:49:25.901Z</time>
      </trkpt>
      <trkpt lat="44.15709" lon="0.7212">
        <ele>102.320265</ele>
        <time>2022-12-29T15:49:27.912Z</time>
      </trkpt>
      <trkpt lat="44.15707" lon="0.72133">
        <ele>102.192147</ele>
        <time>2022-12-29T15:49:29.903Z</time>
      </trkpt>
      <trkpt lat="44.15704" lon="0.72146">
        <ele>102.059957</ele>
        <time>2022-12-29T15:49:31.912Z</time>
      </trkpt>
      <trkpt lat="44.15701" lon="0.72159">
        <ele>101.928928</ele>
        <time>2022-12-29T15:49:33.903Z</time>
      </trkpt>
      <trkpt lat="44.15699" lon="0.72171">
        <ele>101.806578</ele>
        <time>2022-12-29T15:49:35.910Z</time>
      </trkpt>
      <trkpt lat="44.15696" lon="0.72184">
        <ele>101.673709</ele>
        <time>2022-12-29T15:49:37.902Z</time>
      </trkpt>
      <trkpt lat="44.15693" lon="0.72198">
        <ele>101.542123</ele>
        <time>2022-12-29T15:49:39.913Z</time>
      </trkpt>
      <trkpt lat="44.15689" lon="0.7221">
        <ele>101.409874</ele>
        <time>2022-12-29T15:49:41.912Z</time>
      </trkpt>
      <trkpt lat="44.15686" lon="0.72222">
        <ele>101.285261</ele>
        <time>2022-12-29T15:49:43.909Z</time>
      </trkpt>
      <trkpt lat="44.15683" lon="0.72235">
        <ele>101.172817</ele>
        <time>2022-12-29T15:49:45.905Z</time>
      </trkpt>
      <trkpt lat="44.1568" lon="0.72248">
        <ele>101.130948</ele>
        <time>2022-12-29T15:49:47.907Z</time>
      </trkpt>
      <trkpt lat="44.15677" lon="0.7226">
        <ele>101.088481</ele>
        <time>2022-12-29T15:49:49.913Z</time>
      </trkpt>
      <trkpt lat="44.15673" lon="0.72278">
        <ele>101.030502</ele>
        <time>2022-12-29T15:49:52.911Z</time>
      </trkpt>
      <trkpt lat="44.15668" lon="0.72293">
        <ele>100.980247</ele>
        <time>2022-12-29T15:49:55.905Z</time>
      </trkpt>
      <trkpt lat="44.15664" lon="0.7231">
        <ele>100.922136</ele>
        <time>2022-12-29T15:49:58.904Z</time>
      </trkpt>
      <trkpt lat="44.15659" lon="0.72327">
        <ele>100.863844</ele>
        <time>2022-12-29T15:50:01.915Z</time>
      </trkpt>
      <trkpt lat="44.15654" lon="0.72344">
        <ele>100.806212</ele>
        <time>2022-12-29T15:50:04.912Z</time>
      </trkpt>
      <trkpt lat="44.1565" lon="0.72356">
        <ele>100.763299</ele>
        <time>2022-12-29T15:50:06.910Z</time>
      </trkpt>
      <trkpt lat="44.15647" lon="0.72369">
        <ele>100.719906</ele>
        <time>2022-12-29T15:50:08.902Z</time>
      </trkpt>
      <trkpt lat="44.15643" lon="0.72381">
        <ele>100.67789</ele>
        <time>2022-12-29T15:50:10.906Z</time>
      </trkpt>
      <trkpt lat="44.1564" lon="0.72394">
        <ele>100.635667</ele>
        <time>2022-12-29T15:50:12.914Z</time>
      </trkpt>
      <trkpt lat="44.15636" lon="0.72407">
        <ele>100.590817</ele>
        <time>2022-12-29T15:50:14.906Z</time>
      </trkpt>
      <trkpt lat="44.15633" lon="0.72421">
        <ele>100.545294</ele>
        <time>2022-12-29T15:50:16.904Z</time>
      </trkpt>
      <trkpt lat="44.1563" lon="0.72435">
        <ele>100.499683</ele>
        <time>2022-12-29T15:50:18.915Z</time>
      </trkpt>
      <trkpt lat="44.15628" lon="0.72448">
        <ele>100.457295</ele>
        <time>2022-12-29T15:50:20.911Z</time>
      </trkpt>
      <trkpt lat="44.15624" lon="0.72459">
        <ele>100.416161</ele>
        <time>2022-12-29T15:50:22.914Z</time>
      </trkpt>
      <trkpt lat="44.1562" lon="0.72473">
        <ele>100.378831</ele>
        <time>2022-12-29T15:50:24.915Z</time>
      </trkpt>
      <trkpt lat="44.15617" lon="0.72485">
        <ele>100.356544</ele>
        <time>2022-12-29T15:50:26.933Z</time>
      </trkpt>
      <trkpt lat="44.15616" lon="0.72498">
        <ele>100.332716</ele>
        <time>2022-12-29T15:50:28.908Z</time>
      </trkpt>
      <trkpt lat="44.15613" lon="0.72512">
        <ele>100.306534</ele>
        <time>2022-12-29T15:50:30.913Z</time>
      </trkpt>
      <trkpt lat="44.1561" lon="0.72527">
        <ele>100.280432</ele>
        <time>2022-12-29T15:50:32.911Z</time>
      </trkpt>
      <trkpt lat="44.15608" lon="0.72541">
        <ele>100.254073</ele>
        <time>2022-12-29T15:50:34.908Z</time>
      </trkpt>
      <trkpt lat="44.15606" lon="0.72555">
        <ele>100.22831</ele>
        <time>2022-12-29T15:50:36.912Z</time>
      </trkpt>
      <trkpt lat="44.15604" lon="0.7257">
        <ele>100.201905</ele>
        <time>2022-12-29T15:50:38.910Z</time>
      </trkpt>
      <trkpt lat="44.15603" lon="0.72584">
        <ele>100.176414</ele>
        <time>2022-12-29T15:50:40.908Z</time>
      </trkpt>
      <trkpt lat="44.15601" lon="0.72604">
        <ele>100.141481</ele>
        <time>2022-12-29T15:50:43.915Z</time>
      </trkpt>
      <trkpt lat="44.15599" lon="0.72617">
        <ele>100.117915</ele>
        <time>2022-12-29T15:50:45.905Z</time>
      </trkpt>
      <trkpt lat="44.15597" lon="0.72634">
        <ele>100.08754</ele>
        <time>2022-12-29T15:50:48.908Z</time>
      </trkpt>
      <trkpt lat="44.15596" lon="0.72651">
        <ele>100.056407</ele>
        <time>2022-12-29T15:50:51.911Z</time>
      </trkpt>
      <trkpt lat="44.15597" lon="0.7267">
        <ele>100.023939</ele>
        <time>2022-12-29T15:50:54.909Z</time>
      </trkpt>
      <trkpt lat="44.15596" lon="0.72683">
        <ele>100.000224</ele>
        <time>2022-12-29T15:50:56.910Z</time>
      </trkpt>
      <trkpt lat="44.15596" lon="0.72697">
        <ele>99.975395</ele>
        <time>2022-12-29T15:50:58.907Z</time>
      </trkpt>
      <trkpt lat="44.15595" lon="0.72716">
        <ele>99.970029</ele>
        <time>2022-12-29T15:51:01.907Z</time>
      </trkpt>
      <trkpt lat="44.15594" lon="0.7273">
        <ele>100.159547</ele>
        <time>2022-12-29T15:51:03.912Z</time>
      </trkpt>
      <trkpt lat="44.15594" lon="0.72744">
        <ele>100.352744</ele>
        <time>2022-12-29T15:51:05.910Z</time>
      </trkpt>
      <trkpt lat="44.15594" lon="0.72757">
        <ele>100.526434</ele>
        <time>2022-12-29T15:51:07.903Z</time>
      </trkpt>
      <trkpt lat="44.15594" lon="0.72771">
        <ele>100.711628</ele>
        <time>2022-12-29T15:51:09.920Z</time>
      </trkpt>
      <trkpt lat="44.15592" lon="0.72785">
        <ele>100.893105</ele>
        <time>2022-12-29T15:51:11.903Z</time>
      </trkpt>
      <trkpt lat="44.15592" lon="0.72798">
        <ele>101.067996</ele>
        <time>2022-12-29T15:51:13.901Z</time>
      </trkpt>
      <trkpt lat="44.15593" lon="0.72811">
        <ele>101.236893</ele>
        <time>2022-12-29T15:51:15.903Z</time>
      </trkpt>
      <trkpt lat="44.15593" lon="0.72824">
        <ele>101.416758</ele>
        <time>2022-12-29T15:51:17.912Z</time>
      </trkpt>
      <trkpt lat="44.15592" lon="0.72837">
        <ele>101.586127</ele>
        <time>2022-12-29T15:51:19.912Z</time>
      </trkpt>
      <trkpt lat="44.15592" lon="0.7285">
        <ele>101.760672</ele>
        <time>2022-12-29T15:51:21.912Z</time>
      </trkpt>
      <trkpt lat="44.15593" lon="0.72863">
        <ele>101.939243</ele>
        <time>2022-12-29T15:51:23.914Z</time>
      </trkpt>
      <trkpt lat="44.15592" lon="0.72876">
        <ele>102.112804</ele>
        <time>2022-12-29T15:51:25.911Z</time>
      </trkpt>
      <trkpt lat="44.15592" lon="0.72894">
        <ele>102.349988</ele>
        <time>2022-12-29T15:51:28.907Z</time>
      </trkpt>
      <trkpt lat="44.1559" lon="0.72908">
        <ele>102.542034</ele>
        <time>2022-12-29T15:51:30.911Z</time>
      </trkpt>
      <trkpt lat="44.1559" lon="0.72922">
        <ele>102.718382</ele>
        <time>2022-12-29T15:51:32.910Z</time>
      </trkpt>
      <trkpt lat="44.1559" lon="0.7294">
        <ele>102.960866</ele>
        <time>2022-12-29T15:51:35.906Z</time>
      </trkpt>
      <trkpt lat="44.15589" lon="0.72953">
        <ele>103.141505</ele>
        <time>2022-12-29T15:51:37.911Z</time>
      </trkpt>
      <trkpt lat="44.15588" lon="0.72967">
        <ele>103.266415</ele>
        <time>2022-12-29T15:51:39.911Z</time>
      </trkpt>
      <trkpt lat="44.15587" lon="0.72982">
        <ele>103.186193</ele>
        <time>2022-12-29T15:51:41.906Z</time>
      </trkpt>
      <trkpt lat="44.15585" lon="0.73001">
        <ele>103.077385</ele>
        <time>2022-12-29T15:51:44.906Z</time>
      </trkpt>
      <trkpt lat="44.15584" lon="0.7302">
        <ele>102.970619</ele>
        <time>2022-12-29T15:51:47.909Z</time>
      </trkpt>
      <trkpt lat="44.15583" lon="0.73033">
        <ele>102.897362</ele>
        <time>2022-12-29T15:51:49.906Z</time>
      </trkpt>
      <trkpt lat="44.15581" lon="0.73046">
        <ele>102.826065</ele>
        <time>2022-12-29T15:51:51.902Z</time>
      </trkpt>
      <trkpt lat="44.1558" lon="0.73058">
        <ele>102.755021</ele>
        <time>2022-12-29T15:51:53.907Z</time>
      </trkpt>
      <trkpt lat="44.15579" lon="0.73071">
        <ele>102.683541</ele>
        <time>2022-12-29T15:51:55.901Z</time>
      </trkpt>
      <trkpt lat="44.15578" lon="0.7309">
        <ele>102.576935</ele>
        <time>2022-12-29T15:51:58.902Z</time>
      </trkpt>
      <trkpt lat="44.15577" lon="0.73104">
        <ele>102.502499</ele>
        <time>2022-12-29T15:52:00.908Z</time>
      </trkpt>
      <trkpt lat="44.15575" lon="0.73117">
        <ele>102.42818</ele>
        <time>2022-12-29T15:52:02.910Z</time>
      </trkpt>
      <trkpt lat="44.15574" lon="0.73129">
        <ele>102.357979</ele>
        <time>2022-12-29T15:52:04.904Z</time>
      </trkpt>
      <trkpt lat="44.15572" lon="0.73142">
        <ele>102.286239</ele>
        <time>2022-12-29T15:52:06.909Z</time>
      </trkpt>
      <trkpt lat="44.1557" lon="0.73154">
        <ele>102.2152</ele>
        <time>2022-12-29T15:52:08.917Z</time>
      </trkpt>
      <trkpt lat="44.15568" lon="0.73172">
        <ele>102.114687</ele>
        <time>2022-12-29T15:52:11.913Z</time>
      </trkpt>
      <trkpt lat="44.15566" lon="0.73189">
        <ele>102.018271</ele>
        <time>2022-12-29T15:52:14.909Z</time>
      </trkpt>
      <trkpt lat="44.15564" lon="0.73202">
        <ele>101.94519</ele>
        <time>2022-12-29T15:52:16.909Z</time>
      </trkpt>
      <trkpt lat="44.15562" lon="0.73215">
        <ele>101.852826</ele>
        <time>2022-12-29T15:52:18.900Z</time>
      </trkpt>
      <trkpt lat="44.15559" lon="0.7323">
        <ele>101.637993</ele>
        <time>2022-12-29T15:52:21.913Z</time>
      </trkpt>
      <trkpt lat="44.15556" lon="0.73245">
        <ele>101.448834</ele>
        <time>2022-12-29T15:52:24.907Z</time>
      </trkpt>
      <trkpt lat="44.15553" lon="0.73261">
        <ele>101.232063</ele>
        <time>2022-12-29T15:52:27.907Z</time>
      </trkpt>
      <trkpt lat="44.15549" lon="0.73277">
        <ele>101.005774</ele>
        <time>2022-12-29T15:52:30.904Z</time>
      </trkpt>
      <trkpt lat="44.15545" lon="0.7329">
        <ele>100.822187</ele>
        <time>2022-12-29T15:52:33.907Z</time>
      </trkpt>
      <trkpt lat="44.15541" lon="0.73303">
        <ele>100.642444</ele>
        <time>2022-12-29T15:52:36.911Z</time>
      </trkpt>
      <trkpt lat="44.15537" lon="0.73315">
        <ele>100.465527</ele>
        <time>2022-12-29T15:52:39.914Z</time>
      </trkpt>
      <trkpt lat="44.15533" lon="0.73328">
        <ele>100.285784</ele>
        <time>2022-12-29T15:52:42.904Z</time>
      </trkpt>
      <trkpt lat="44.15528" lon="0.73342">
        <ele>100.083807</ele>
        <time>2022-12-29T15:52:45.912Z</time>
      </trkpt>
      <trkpt lat="44.15524" lon="0.73359">
        <ele>99.856817</ele>
        <time>2022-12-29T15:52:48.907Z</time>
      </trkpt>
      <trkpt lat="44.15519" lon="0.73375">
        <ele>99.627412</ele>
        <time>2022-12-29T15:52:51.916Z</time>
      </trkpt>
      <trkpt lat="44.15515" lon="0.7339">
        <ele>99.414465</ele>
        <time>2022-12-29T15:52:54.910Z</time>
      </trkpt>
      <trkpt lat="44.15511" lon="0.73407">
        <ele>99.184529</ele>
        <time>2022-12-29T15:52:57.913Z</time>
      </trkpt>
      <trkpt lat="44.15507" lon="0.73425">
        <ele>98.94349</ele>
        <time>2022-12-29T15:53:00.910Z</time>
      </trkpt>
      <trkpt lat="44.15503" lon="0.73437">
        <ele>98.776819</ele>
        <time>2022-12-29T15:53:02.906Z</time>
      </trkpt>
      <trkpt lat="44.155" lon="0.73449">
        <ele>98.641676</ele>
        <time>2022-12-29T15:53:04.902Z</time>
      </trkpt>
      <trkpt lat="44.15495" lon="0.73466">
        <ele>98.659873</ele>
        <time>2022-12-29T15:53:07.915Z</time>
      </trkpt>
      <trkpt lat="44.1549" lon="0.73482">
        <ele>98.677108</ele>
        <time>2022-12-29T15:53:10.911Z</time>
      </trkpt>
      <trkpt lat="44.15486" lon="0.73499">
        <ele>98.694474</ele>
        <time>2022-12-29T15:53:13.902Z</time>
      </trkpt>
      <trkpt lat="44.1548" lon="0.73516">
        <ele>98.712795</ele>
        <time>2022-12-29T15:53:16.908Z</time>
      </trkpt>
      <trkpt lat="44.15476" lon="0.73528">
        <ele>98.725504</ele>
        <time>2022-12-29T15:53:18.906Z</time>
      </trkpt>
      <trkpt lat="44.15473" lon="0.73539">
        <ele>98.737837</ele>
        <time>2022-12-29T15:53:20.915Z</time>
      </trkpt>
      <trkpt lat="44.15467" lon="0.73557">
        <ele>98.757017</ele>
        <time>2022-12-29T15:53:23.906Z</time>
      </trkpt>
      <trkpt lat="44.15464" lon="0.7357">
        <ele>98.770336</ele>
        <time>2022-12-29T15:53:25.912Z</time>
      </trkpt>
      <trkpt lat="44.1546" lon="0.73582">
        <ele>98.783587</ele>
        <time>2022-12-29T15:53:27.913Z</time>
      </trkpt>
      <trkpt lat="44.15457" lon="0.73595">
        <ele>98.796528</ele>
        <time>2022-12-29T15:53:29.908Z</time>
      </trkpt>
      <trkpt lat="44.15452" lon="0.73612">
        <ele>98.814568</ele>
        <time>2022-12-29T15:53:32.912Z</time>
      </trkpt>
      <trkpt lat="44.15449" lon="0.73624">
        <ele>98.828016</ele>
        <time>2022-12-29T15:53:34.903Z</time>
      </trkpt>
      <trkpt lat="44.15444" lon="0.73641">
        <ele>98.845899</ele>
        <time>2022-12-29T15:53:37.909Z</time>
      </trkpt>
      <trkpt lat="44.15439" lon="0.73657">
        <ele>98.862213</ele>
        <time>2022-12-29T15:53:40.906Z</time>
      </trkpt>
      <trkpt lat="44.15435" lon="0.73673">
        <ele>98.879204</ele>
        <time>2022-12-29T15:53:43.900Z</time>
      </trkpt>
      <trkpt lat="44.15431" lon="0.73689">
        <ele>98.867899</ele>
        <time>2022-12-29T15:53:46.912Z</time>
      </trkpt>
      <trkpt lat="44.15426" lon="0.73704">
        <ele>98.839284</ele>
        <time>2022-12-29T15:53:49.911Z</time>
      </trkpt>
      <trkpt lat="44.15422" lon="0.7372">
        <ele>98.808959</ele>
        <time>2022-12-29T15:53:52.901Z</time>
      </trkpt>
      <trkpt lat="44.15418" lon="0.73737">
        <ele>98.778898</ele>
        <time>2022-12-29T15:53:55.903Z</time>
      </trkpt>
      <trkpt lat="44.15413" lon="0.73753">
        <ele>98.748017</ele>
        <time>2022-12-29T15:53:58.909Z</time>
      </trkpt>
      <trkpt lat="44.1541" lon="0.73765">
        <ele>98.725745</ele>
        <time>2022-12-29T15:54:00.905Z</time>
      </trkpt>
      <trkpt lat="44.15406" lon="0.73778">
        <ele>98.702668</ele>
        <time>2022-12-29T15:54:02.911Z</time>
      </trkpt>
      <trkpt lat="44.15402" lon="0.73794">
        <ele>98.673001</ele>
        <time>2022-12-29T15:54:05.907Z</time>
      </trkpt>
      <trkpt lat="44.15398" lon="0.73806">
        <ele>98.65017</ele>
        <time>2022-12-29T15:54:07.906Z</time>
      </trkpt>
      <trkpt lat="44.15395" lon="0.73819">
        <ele>98.627088</ele>
        <time>2022-12-29T15:54:09.914Z</time>
      </trkpt>
      <trkpt lat="44.15392" lon="0.73832">
        <ele>98.60304</ele>
        <time>2022-12-29T15:54:11.910Z</time>
      </trkpt>
      <trkpt lat="44.15389" lon="0.73845">
        <ele>98.580129</ele>
        <time>2022-12-29T15:54:13.907Z</time>
      </trkpt>
      <trkpt lat="44.15385" lon="0.73857">
        <ele>98.556693</ele>
        <time>2022-12-29T15:54:15.910Z</time>
      </trkpt>
      <trkpt lat="44.15382" lon="0.73869">
        <ele>98.534099</ele>
        <time>2022-12-29T15:54:17.910Z</time>
      </trkpt>
      <trkpt lat="44.15379" lon="0.73881">
        <ele>98.512151</ele>
        <time>2022-12-29T15:54:19.902Z</time>
      </trkpt>
      <trkpt lat="44.15375" lon="0.73899">
        <ele>98.479968</ele>
        <time>2022-12-29T15:54:22.913Z</time>
      </trkpt>
      <trkpt lat="44.1537" lon="0.73916">
        <ele>98.488581</ele>
        <time>2022-12-29T15:54:25.903Z</time>
      </trkpt>
      <trkpt lat="44.15366" lon="0.73934">
        <ele>98.746293</ele>
        <time>2022-12-29T15:54:28.912Z</time>
      </trkpt>
      <trkpt lat="44.15362" lon="0.73946">
        <ele>98.92834</ele>
        <time>2022-12-29T15:54:30.904Z</time>
      </trkpt>
      <trkpt lat="44.15359" lon="0.73959">
        <ele>99.117367</ele>
        <time>2022-12-29T15:54:32.904Z</time>
      </trkpt>
      <trkpt lat="44.15355" lon="0.73971">
        <ele>99.299262</ele>
        <time>2022-12-29T15:54:34.908Z</time>
      </trkpt>
      <trkpt lat="44.15352" lon="0.73983">
        <ele>99.475209</ele>
        <time>2022-12-29T15:54:36.911Z</time>
      </trkpt>
      <trkpt lat="44.15349" lon="0.73995">
        <ele>99.662296</ele>
        <time>2022-12-29T15:54:38.911Z</time>
      </trkpt>
      <trkpt lat="44.15345" lon="0.74007">
        <ele>99.844116</ele>
        <time>2022-12-29T15:54:40.903Z</time>
      </trkpt>
      <trkpt lat="44.15342" lon="0.74019">
        <ele>100.022037</ele>
        <time>2022-12-29T15:54:42.914Z</time>
      </trkpt>
      <trkpt lat="44.15338" lon="0.74033">
        <ele>100.221179</ele>
        <time>2022-12-29T15:54:44.915Z</time>
      </trkpt>
      <trkpt lat="44.15335" lon="0.74046">
        <ele>100.414939</ele>
        <time>2022-12-29T15:54:46.912Z</time>
      </trkpt>
      <trkpt lat="44.15332" lon="0.74059">
        <ele>100.602008</ele>
        <time>2022-12-29T15:54:48.915Z</time>
      </trkpt>
      <trkpt lat="44.15329" lon="0.74072">
        <ele>100.793309</ele>
        <time>2022-12-29T15:54:50.915Z</time>
      </trkpt>
      <trkpt lat="44.15326" lon="0.74084">
        <ele>100.976493</ele>
        <time>2022-12-29T15:54:52.912Z</time>
      </trkpt>
      <trkpt lat="44.15321" lon="0.74102">
        <ele>101.242308</ele>
        <time>2022-12-29T15:54:55.913Z</time>
      </trkpt>
      <trkpt lat="44.15317" lon="0.74115">
        <ele>101.435948</ele>
        <time>2022-12-29T15:54:57.909Z</time>
      </trkpt>
      <trkpt lat="44.15314" lon="0.74128">
        <ele>101.620398</ele>
        <time>2022-12-29T15:54:59.913Z</time>
      </trkpt>
      <trkpt lat="44.15311" lon="0.74141">
        <ele>101.808781</ele>
        <time>2022-12-29T15:55:01.916Z</time>
      </trkpt>
      <trkpt lat="44.15307" lon="0.74154">
        <ele>101.964904</ele>
        <time>2022-12-29T15:55:03.908Z</time>
      </trkpt>
      <trkpt lat="44.15304" lon="0.74166">
        <ele>102.029699</ele>
        <time>2022-12-29T15:55:05.913Z</time>
      </trkpt>
      <trkpt lat="44.153" lon="0.74179">
        <ele>102.0962</ele>
        <time>2022-12-29T15:55:07.911Z</time>
      </trkpt>
      <trkpt lat="44.15297" lon="0.74191">
        <ele>102.162705</ele>
        <time>2022-12-29T15:55:09.911Z</time>
      </trkpt>
      <trkpt lat="44.15293" lon="0.74208">
        <ele>102.250686</ele>
        <time>2022-12-29T15:55:12.913Z</time>
      </trkpt>
      <trkpt lat="44.15288" lon="0.74225">
        <ele>102.344542</ele>
        <time>2022-12-29T15:55:15.913Z</time>
      </trkpt>
      <trkpt lat="44.15286" lon="0.74238">
        <ele>102.408926</ele>
        <time>2022-12-29T15:55:17.919Z</time>
      </trkpt>
      <trkpt lat="44.15282" lon="0.74254">
        <ele>102.494528</ele>
        <time>2022-12-29T15:55:20.914Z</time>
      </trkpt>
      <trkpt lat="44.15279" lon="0.74268">
        <ele>102.566185</ele>
        <time>2022-12-29T15:55:23.907Z</time>
      </trkpt>
      <trkpt lat="44.15277" lon="0.74282">
        <ele>102.638294</ele>
        <time>2022-12-29T15:55:27.911Z</time>
      </trkpt>
      <trkpt lat="44.15275" lon="0.74296">
        <ele>102.70992</ele>
        <time>2022-12-29T15:55:31.905Z</time>
      </trkpt>
      <trkpt lat="44.15271" lon="0.74311">
        <ele>102.793151</ele>
        <time>2022-12-29T15:55:35.909Z</time>
      </trkpt>
      <trkpt lat="44.15266" lon="0.74325">
        <ele>102.867423</ele>
        <time>2022-12-29T15:55:39.907Z</time>
      </trkpt>
      <trkpt lat="44.15262" lon="0.74339">
        <ele>102.943125</ele>
        <time>2022-12-29T15:55:43.903Z</time>
      </trkpt>
      <trkpt lat="44.15258" lon="0.74353">
        <ele>103.019977</ele>
        <time>2022-12-29T15:55:46.903Z</time>
      </trkpt>
      <trkpt lat="44.15254" lon="0.74365">
        <ele>103.087621</ele>
        <time>2022-12-29T15:55:48.905Z</time>
      </trkpt>
      <trkpt lat="44.15249" lon="0.74379">
        <ele>103.165352</ele>
        <time>2022-12-29T15:55:50.902Z</time>
      </trkpt>
      <trkpt lat="44.15243" lon="0.74394">
        <ele>103.10933</ele>
        <time>2022-12-29T15:55:52.904Z</time>
      </trkpt>
      <trkpt lat="44.15237" lon="0.74409">
        <ele>102.988458</ele>
        <time>2022-12-29T15:55:54.906Z</time>
      </trkpt>
      <trkpt lat="44.15232" lon="0.74423">
        <ele>102.870513</ele>
        <time>2022-12-29T15:55:56.913Z</time>
      </trkpt>
      <trkpt lat="44.15226" lon="0.74438">
        <ele>102.753671</ele>
        <time>2022-12-29T15:55:58.904Z</time>
      </trkpt>
      <trkpt lat="44.15222" lon="0.74451">
        <ele>102.644248</ele>
        <time>2022-12-29T15:56:00.908Z</time>
      </trkpt>
      <trkpt lat="44.15217" lon="0.74466">
        <ele>102.533019</ele>
        <time>2022-12-29T15:56:02.910Z</time>
      </trkpt>
      <trkpt lat="44.15213" lon="0.7448">
        <ele>102.42245</ele>
        <time>2022-12-29T15:56:04.908Z</time>
      </trkpt>
      <trkpt lat="44.15208" lon="0.74493">
        <ele>102.314104</ele>
        <time>2022-12-29T15:56:06.915Z</time>
      </trkpt>
      <trkpt lat="44.15204" lon="0.74507">
        <ele>102.208951</ele>
        <time>2022-12-29T15:56:08.913Z</time>
      </trkpt>
      <trkpt lat="44.152" lon="0.74519">
        <ele>102.110559</ele>
        <time>2022-12-29T15:56:10.906Z</time>
      </trkpt>
      <trkpt lat="44.15195" lon="0.74535">
        <ele>101.982145</ele>
        <time>2022-12-29T15:56:13.906Z</time>
      </trkpt>
      <trkpt lat="44.15191" lon="0.74547">
        <ele>101.890856</ele>
        <time>2022-12-29T15:56:15.908Z</time>
      </trkpt>
      <trkpt lat="44.15186" lon="0.74564">
        <ele>101.758735</ele>
        <time>2022-12-29T15:56:18.917Z</time>
      </trkpt>
      <trkpt lat="44.15182" lon="0.74575">
        <ele>101.668103</ele>
        <time>2022-12-29T15:56:20.907Z</time>
      </trkpt>
      <trkpt lat="44.15177" lon="0.74592">
        <ele>101.53441</ele>
        <time>2022-12-29T15:56:23.906Z</time>
      </trkpt>
      <trkpt lat="44.15172" lon="0.74609">
        <ele>101.403497</ele>
        <time>2022-12-29T15:56:26.907Z</time>
      </trkpt>
      <trkpt lat="44.15168" lon="0.74621">
        <ele>101.449275</ele>
        <time>2022-12-29T15:56:28.911Z</time>
      </trkpt>
      <trkpt lat="44.15164" lon="0.74634">
        <ele>101.525177</ele>
        <time>2022-12-29T15:56:30.911Z</time>
      </trkpt>
      <trkpt lat="44.15161" lon="0.74646">
        <ele>101.593659</ele>
        <time>2022-12-29T15:56:32.903Z</time>
      </trkpt>
      <trkpt lat="44.15155" lon="0.74662">
        <ele>101.68841</ele>
        <time>2022-12-29T15:56:35.907Z</time>
      </trkpt>
      <trkpt lat="44.1515" lon="0.74678">
        <ele>101.782672</ele>
        <time>2022-12-29T15:56:38.911Z</time>
      </trkpt>
      <trkpt lat="44.15146" lon="0.74694">
        <ele>101.871951</ele>
        <time>2022-12-29T15:56:41.911Z</time>
      </trkpt>
      <trkpt lat="44.15141" lon="0.74711">
        <ele>101.969578</ele>
        <time>2022-12-29T15:56:44.912Z</time>
      </trkpt>
      <trkpt lat="44.15135" lon="0.74728">
        <ele>102.070742</ele>
        <time>2022-12-29T15:56:47.908Z</time>
      </trkpt>
      <trkpt lat="44.15132" lon="0.7474">
        <ele>102.141891</ele>
        <time>2022-12-29T15:56:49.904Z</time>
      </trkpt>
      <trkpt lat="44.15128" lon="0.74752">
        <ele>102.211475</ele>
        <time>2022-12-29T15:56:51.909Z</time>
      </trkpt>
      <trkpt lat="44.15124" lon="0.74764">
        <ele>102.283631</ele>
        <time>2022-12-29T15:56:53.914Z</time>
      </trkpt>
      <trkpt lat="44.15118" lon="0.74781">
        <ele>102.383332</ele>
        <time>2022-12-29T15:56:56.911Z</time>
      </trkpt>
      <trkpt lat="44.15114" lon="0.74792">
        <ele>102.451144</ele>
        <time>2022-12-29T15:56:58.908Z</time>
      </trkpt>
      <trkpt lat="44.15109" lon="0.74809">
        <ele>102.547224</ele>
        <time>2022-12-29T15:57:01.914Z</time>
      </trkpt>
      <trkpt lat="44.15104" lon="0.74827">
        <ele>102.652997</ele>
        <time>2022-12-29T15:57:04.909Z</time>
      </trkpt>
      <trkpt lat="44.151" lon="0.74839">
        <ele>102.725176</ele>
        <time>2022-12-29T15:57:06.908Z</time>
      </trkpt>
      <trkpt lat="44.15096" lon="0.74852">
        <ele>102.667902</ele>
        <time>2022-12-29T15:57:08.906Z</time>
      </trkpt>
      <trkpt lat="44.15091" lon="0.74865">
        <ele>102.589902</ele>
        <time>2022-12-29T15:57:10.911Z</time>
      </trkpt>
      <trkpt lat="44.15087" lon="0.74878">
        <ele>102.514249</ele>
        <time>2022-12-29T15:57:12.913Z</time>
      </trkpt>
      <trkpt lat="44.15084" lon="0.74891">
        <ele>102.439422</ele>
        <time>2022-12-29T15:57:14.907Z</time>
      </trkpt>
      <trkpt lat="44.15082" lon="0.74904">
        <ele>102.371024</ele>
        <time>2022-12-29T15:57:16.910Z</time>
      </trkpt>
      <trkpt lat="44.15078" lon="0.74921">
        <ele>102.272474</ele>
        <time>2022-12-29T15:57:19.915Z</time>
      </trkpt>
      <trkpt lat="44.15073" lon="0.74938">
        <ele>102.175559</ele>
        <time>2022-12-29T15:57:22.906Z</time>
      </trkpt>
      <trkpt lat="44.1507" lon="0.74955">
        <ele>102.080288</ele>
        <time>2022-12-29T15:57:25.911Z</time>
      </trkpt>
      <trkpt lat="44.15066" lon="0.74972">
        <ele>101.99011</ele>
        <time>2022-12-29T15:57:28.914Z</time>
      </trkpt>
      <trkpt lat="44.15064" lon="0.74986">
        <ele>101.911576</ele>
        <time>2022-12-29T15:57:31.907Z</time>
      </trkpt>
      <trkpt lat="44.15061" lon="0.75001">
        <ele>101.829847</ele>
        <time>2022-12-29T15:57:34.912Z</time>
      </trkpt>
      <trkpt lat="44.15058" lon="0.75017">
        <ele>101.738535</ele>
        <time>2022-12-29T15:57:37.910Z</time>
      </trkpt>
      <trkpt lat="44.15054" lon="0.75035">
        <ele>101.638026</ele>
        <time>2022-12-29T15:57:40.912Z</time>
      </trkpt>
      <trkpt lat="44.1505" lon="0.75054">
        <ele>101.537837</ele>
        <time>2022-12-29T15:57:43.908Z</time>
      </trkpt>
      <trkpt lat="44.15047" lon="0.75071">
        <ele>101.444453</ele>
        <time>2022-12-29T15:57:46.911Z</time>
      </trkpt>
      <trkpt lat="44.15045" lon="0.75086">
        <ele>101.322184</ele>
        <time>2022-12-29T15:57:49.902Z</time>
      </trkpt>
      <trkpt lat="44.15043" lon="0.751">
        <ele>101.159805</ele>
        <time>2022-12-29T15:57:52.912Z</time>
      </trkpt>
      <trkpt lat="44.1504" lon="0.75117">
        <ele>100.963635</ele>
        <time>2022-12-29T15:57:55.911Z</time>
      </trkpt>
      <trkpt lat="44.15037" lon="0.75135">
        <ele>100.765647</ele>
        <time>2022-12-29T15:57:58.912Z</time>
      </trkpt>
      <trkpt lat="44.15035" lon="0.75153">
        <ele>100.560996</ele>
        <time>2022-12-29T15:58:01.908Z</time>
      </trkpt>
      <trkpt lat="44.15032" lon="0.75166">
        <ele>100.406576</ele>
        <time>2022-12-29T15:58:03.903Z</time>
      </trkpt>
      <trkpt lat="44.1503" lon="0.7518">
        <ele>100.25212</ele>
        <time>2022-12-29T15:58:05.924Z</time>
      </trkpt>
      <trkpt lat="44.15028" lon="0.75194">
        <ele>100.098286</ele>
        <time>2022-12-29T15:58:07.904Z</time>
      </trkpt>
      <trkpt lat="44.15026" lon="0.75207">
        <ele>99.946001</ele>
        <time>2022-12-29T15:58:09.914Z</time>
      </trkpt>
      <trkpt lat="44.15024" lon="0.7522">
        <ele>99.798194</ele>
        <time>2022-12-29T15:58:11.914Z</time>
      </trkpt>
      <trkpt lat="44.15022" lon="0.75234">
        <ele>99.639814</ele>
        <time>2022-12-29T15:58:13.911Z</time>
      </trkpt>
      <trkpt lat="44.1502" lon="0.75248">
        <ele>99.478186</ele>
        <time>2022-12-29T15:58:15.902Z</time>
      </trkpt>
      <trkpt lat="44.15017" lon="0.75261">
        <ele>99.33559</ele>
        <time>2022-12-29T15:58:17.905Z</time>
      </trkpt>
      <trkpt lat="44.15014" lon="0.75278">
        <ele>99.13938</ele>
        <time>2022-12-29T15:58:20.911Z</time>
      </trkpt>
      <trkpt lat="44.15011" lon="0.75294">
        <ele>98.946642</ele>
        <time>2022-12-29T15:58:23.928Z</time>
      </trkpt>
      <trkpt lat="44.15008" lon="0.75311">
        <ele>98.764069</ele>
        <time>2022-12-29T15:58:26.912Z</time>
      </trkpt>
      <trkpt lat="44.15006" lon="0.75327">
        <ele>98.622991</ele>
        <time>2022-12-29T15:58:29.906Z</time>
      </trkpt>
      <trkpt lat="44.15003" lon="0.75342">
        <ele>98.682447</ele>
        <time>2022-12-29T15:58:32.909Z</time>
      </trkpt>
      <trkpt lat="44.15001" lon="0.75357">
        <ele>98.7364</ele>
        <time>2022-12-29T15:58:35.904Z</time>
      </trkpt>
      <trkpt lat="44.14998" lon="0.75371">
        <ele>98.789975</ele>
        <time>2022-12-29T15:58:38.908Z</time>
      </trkpt>
      <trkpt lat="44.14995" lon="0.75385">
        <ele>98.845</ele>
        <time>2022-12-29T15:58:41.905Z</time>
      </trkpt>
      <trkpt lat="44.14992" lon="0.75401">
        <ele>98.905781</ele>
        <time>2022-12-29T15:58:44.909Z</time>
      </trkpt>
      <trkpt lat="44.14988" lon="0.75417">
        <ele>98.970856</ele>
        <time>2022-12-29T15:58:47.912Z</time>
      </trkpt>
      <trkpt lat="44.14983" lon="0.75435">
        <ele>99.038545</ele>
        <time>2022-12-29T15:58:50.914Z</time>
      </trkpt>
      <trkpt lat="44.14979" lon="0.75452">
        <ele>99.105359</ele>
        <time>2022-12-29T15:58:53.908Z</time>
      </trkpt>
      <trkpt lat="44.14976" lon="0.75465">
        <ele>99.156862</ele>
        <time>2022-12-29T15:58:56.913Z</time>
      </trkpt>
      <trkpt lat="44.14972" lon="0.75477">
        <ele>99.205929</ele>
        <time>2022-12-29T15:58:59.912Z</time>
      </trkpt>
      <trkpt lat="44.14969" lon="0.75489">
        <ele>99.253971</ele>
        <time>2022-12-29T15:59:02.914Z</time>
      </trkpt>
      <trkpt lat="44.14965" lon="0.75501">
        <ele>99.30192</ele>
        <time>2022-12-29T15:59:05.911Z</time>
      </trkpt>
      <trkpt lat="44.14961" lon="0.75515">
        <ele>99.357075</ele>
        <time>2022-12-29T15:59:08.907Z</time>
      </trkpt>
      <trkpt lat="44.14956" lon="0.75529">
        <ele>99.416331</ele>
        <time>2022-12-29T15:59:12.905Z</time>
      </trkpt>
      <trkpt lat="44.14952" lon="0.75541">
        <ele>99.465135</ele>
        <time>2022-12-29T15:59:15.903Z</time>
      </trkpt>
      <trkpt lat="44.14949" lon="0.75553">
        <ele>99.512139</ele>
        <time>2022-12-29T15:59:18.906Z</time>
      </trkpt>
      <trkpt lat="44.14946" lon="0.75567">
        <ele>99.629064</ele>
        <time>2022-12-29T15:59:21.915Z</time>
      </trkpt>
      <trkpt lat="44.14943" lon="0.75579">
        <ele>99.810995</ele>
        <time>2022-12-29T15:59:24.911Z</time>
      </trkpt>
      <trkpt lat="44.14939" lon="0.75591">
        <ele>99.98298</ele>
        <time>2022-12-29T15:59:27.905Z</time>
      </trkpt>
      <trkpt lat="44.14934" lon="0.75604">
        <ele>100.175485</ele>
        <time>2022-12-29T15:59:31.914Z</time>
      </trkpt>
      <trkpt lat="44.14931" lon="0.75617">
        <ele>100.356015</ele>
        <time>2022-12-29T15:59:34.907Z</time>
      </trkpt>
      <trkpt lat="44.14929" lon="0.7563">
        <ele>100.536693</ele>
        <time>2022-12-29T15:59:37.915Z</time>
      </trkpt>
      <trkpt lat="44.14927" lon="0.75644">
        <ele>100.725597</ele>
        <time>2022-12-29T15:59:41.914Z</time>
      </trkpt>
      <trkpt lat="44.14922" lon="0.75655">
        <ele>100.903383</ele>
        <time>2022-12-29T15:59:59.917Z</time>
      </trkpt>
      <trkpt lat="44.14912" lon="0.75653">
        <ele>101.085518</ele>
        <time>2022-12-29T16:00:11.905Z</time>
      </trkpt>
      <trkpt lat="44.14902" lon="0.7565">
        <ele>101.286961</ele>
        <time>2022-12-29T16:00:19.914Z</time>
      </trkpt>
      <trkpt lat="44.14892" lon="0.7566">
        <ele>101.510876</ele>
        <time>2022-12-29T16:00:23.912Z</time>
      </trkpt>
      <trkpt lat="44.14889" lon="0.75682">
        <ele>101.811223</ele>
        <time>2022-12-29T16:00:26.915Z</time>
      </trkpt>
      <trkpt lat="44.14885" lon="0.75694">
        <ele>101.985436</ele>
        <time>2022-12-29T16:00:28.909Z</time>
      </trkpt>
      <trkpt lat="44.14881" lon="0.75711">
        <ele>102.223836</ele>
        <time>2022-12-29T16:00:31.911Z</time>
      </trkpt>
      <trkpt lat="44.14877" lon="0.75726">
        <ele>102.440188</ele>
        <time>2022-12-29T16:00:34.909Z</time>
      </trkpt>
      <trkpt lat="44.14873" lon="0.75742">
        <ele>102.662848</ele>
        <time>2022-12-29T16:00:37.918Z</time>
      </trkpt>
      <trkpt lat="44.14869" lon="0.75758">
        <ele>102.882893</ele>
        <time>2022-12-29T16:00:40.914Z</time>
      </trkpt>
      <trkpt lat="44.14864" lon="0.75776">
        <ele>102.745309</ele>
        <time>2022-12-29T16:00:43.911Z</time>
      </trkpt>
      <trkpt lat="44.1486" lon="0.75789">
        <ele>102.643276</ele>
        <time>2022-12-29T16:00:45.911Z</time>
      </trkpt>
      <trkpt lat="44.14856" lon="0.75802">
        <ele>102.539867</ele>
        <time>2022-12-29T16:00:47.910Z</time>
      </trkpt>
      <trkpt lat="44.14852" lon="0.75814">
        <ele>102.440389</ele>
        <time>2022-12-29T16:00:49.909Z</time>
      </trkpt>
      <trkpt lat="44.14849" lon="0.75827">
        <ele>102.34655</ele>
        <time>2022-12-29T16:00:51.914Z</time>
      </trkpt>
      <trkpt lat="44.14846" lon="0.75839">
        <ele>102.251597</ele>
        <time>2022-12-29T16:00:53.907Z</time>
      </trkpt>
      <trkpt lat="44.14842" lon="0.75857">
        <ele>102.116457</ele>
        <time>2022-12-29T16:00:56.912Z</time>
      </trkpt>
      <trkpt lat="44.14838" lon="0.7587">
        <ele>102.016832</ele>
        <time>2022-12-29T16:00:58.906Z</time>
      </trkpt>
      <trkpt lat="44.14835" lon="0.75882">
        <ele>101.918914</ele>
        <time>2022-12-29T16:01:00.904Z</time>
      </trkpt>
      <trkpt lat="44.14831" lon="0.75896">
        <ele>101.812467</ele>
        <time>2022-12-29T16:01:02.909Z</time>
      </trkpt>
      <trkpt lat="44.14827" lon="0.75909">
        <ele>101.713247</ele>
        <time>2022-12-29T16:01:04.905Z</time>
      </trkpt>
      <trkpt lat="44.14823" lon="0.75923">
        <ele>101.604737</ele>
        <time>2022-12-29T16:01:06.908Z</time>
      </trkpt>
      <trkpt lat="44.1482" lon="0.75936">
        <ele>101.497582</ele>
        <time>2022-12-29T16:01:08.908Z</time>
      </trkpt>
      <trkpt lat="44.14816" lon="0.7595">
        <ele>101.39178</ele>
        <time>2022-12-29T16:01:10.902Z</time>
      </trkpt>
      <trkpt lat="44.14813" lon="0.75964">
        <ele>101.285264</ele>
        <time>2022-12-29T16:01:12.903Z</time>
      </trkpt>
      <trkpt lat="44.14809" lon="0.75978">
        <ele>101.17984</ele>
        <time>2022-12-29T16:01:14.907Z</time>
      </trkpt>
      <trkpt lat="44.14805" lon="0.75992">
        <ele>101.07125</ele>
        <time>2022-12-29T16:01:16.904Z</time>
      </trkpt>
      <trkpt lat="44.14802" lon="0.76005">
        <ele>101.057465</ele>
        <time>2022-12-29T16:01:18.912Z</time>
      </trkpt>
      <trkpt lat="44.14799" lon="0.76018">
        <ele>101.04396</ele>
        <time>2022-12-29T16:01:20.908Z</time>
      </trkpt>
      <trkpt lat="44.14795" lon="0.76033">
        <ele>101.028975</ele>
        <time>2022-12-29T16:01:22.905Z</time>
      </trkpt>
      <trkpt lat="44.14792" lon="0.76046">
        <ele>101.014732</ele>
        <time>2022-12-29T16:01:24.908Z</time>
      </trkpt>
      <trkpt lat="44.14788" lon="0.7606">
        <ele>100.999978</ele>
        <time>2022-12-29T16:01:26.908Z</time>
      </trkpt>
      <trkpt lat="44.14785" lon="0.76075">
        <ele>100.985211</ele>
        <time>2022-12-29T16:01:28.912Z</time>
      </trkpt>
      <trkpt lat="44.14781" lon="0.76088">
        <ele>100.970548</ele>
        <time>2022-12-29T16:01:30.909Z</time>
      </trkpt>
      <trkpt lat="44.14778" lon="0.76102">
        <ele>100.956527</ele>
        <time>2022-12-29T16:01:32.912Z</time>
      </trkpt>
      <trkpt lat="44.14774" lon="0.76116">
        <ele>100.94177</ele>
        <time>2022-12-29T16:01:34.907Z</time>
      </trkpt>
      <trkpt lat="44.14771" lon="0.7613">
        <ele>100.926962</ele>
        <time>2022-12-29T16:01:36.913Z</time>
      </trkpt>
      <trkpt lat="44.14768" lon="0.76145">
        <ele>100.911966</ele>
        <time>2022-12-29T16:01:38.907Z</time>
      </trkpt>
      <trkpt lat="44.14764" lon="0.76159">
        <ele>100.897161</ele>
        <time>2022-12-29T16:01:40.909Z</time>
      </trkpt>
      <trkpt lat="44.1476" lon="0.76173">
        <ele>100.881797</ele>
        <time>2022-12-29T16:01:42.909Z</time>
      </trkpt>
      <trkpt lat="44.14756" lon="0.76187">
        <ele>100.867226</ele>
        <time>2022-12-29T16:01:44.911Z</time>
      </trkpt>
      <trkpt lat="44.14752" lon="0.76201">
        <ele>100.85223</ele>
        <time>2022-12-29T16:01:46.910Z</time>
      </trkpt>
      <trkpt lat="44.14749" lon="0.76216">
        <ele>100.837379</ele>
        <time>2022-12-29T16:01:48.907Z</time>
      </trkpt>
      <trkpt lat="44.14746" lon="0.7623">
        <ele>100.825268</ele>
        <time>2022-12-29T16:01:50.904Z</time>
      </trkpt>
      <trkpt lat="44.14742" lon="0.76243">
        <ele>100.831017</ele>
        <time>2022-12-29T16:01:52.904Z</time>
      </trkpt>
      <trkpt lat="44.14739" lon="0.76255">
        <ele>100.836685</ele>
        <time>2022-12-29T16:01:54.904Z</time>
      </trkpt>
      <trkpt lat="44.14736" lon="0.76267">
        <ele>100.842091</ele>
        <time>2022-12-29T16:01:56.912Z</time>
      </trkpt>
      <trkpt lat="44.14732" lon="0.76279">
        <ele>100.847807</ele>
        <time>2022-12-29T16:01:58.909Z</time>
      </trkpt>
      <trkpt lat="44.14729" lon="0.76292">
        <ele>100.853657</ele>
        <time>2022-12-29T16:02:00.909Z</time>
      </trkpt>
      <trkpt lat="44.14726" lon="0.76305">
        <ele>100.859669</ele>
        <time>2022-12-29T16:02:02.913Z</time>
      </trkpt>
      <trkpt lat="44.14721" lon="0.76324">
        <ele>100.867959</ele>
        <time>2022-12-29T16:02:05.908Z</time>
      </trkpt>
      <trkpt lat="44.14717" lon="0.76337">
        <ele>100.874294</ele>
        <time>2022-12-29T16:02:07.905Z</time>
      </trkpt>
      <trkpt lat="44.14715" lon="0.76351">
        <ele>100.880466</ele>
        <time>2022-12-29T16:02:09.912Z</time>
      </trkpt>
      <trkpt lat="44.14712" lon="0.76365">
        <ele>100.886423</ele>
        <time>2022-12-29T16:02:11.906Z</time>
      </trkpt>
      <trkpt lat="44.14708" lon="0.76378">
        <ele>100.89282</ele>
        <time>2022-12-29T16:02:13.904Z</time>
      </trkpt>
      <trkpt lat="44.14704" lon="0.76392">
        <ele>100.899053</ele>
        <time>2022-12-29T16:02:15.911Z</time>
      </trkpt>
      <trkpt lat="44.14701" lon="0.76406">
        <ele>100.90541</ele>
        <time>2022-12-29T16:02:17.904Z</time>
      </trkpt>
      <trkpt lat="44.14697" lon="0.7642">
        <ele>100.911585</ele>
        <time>2022-12-29T16:02:19.906Z</time>
      </trkpt>
      <trkpt lat="44.14694" lon="0.76433">
        <ele>100.917757</ele>
        <time>2022-12-29T16:02:21.908Z</time>
      </trkpt>
      <trkpt lat="44.1469" lon="0.76448">
        <ele>100.924314</ele>
        <time>2022-12-29T16:02:23.907Z</time>
      </trkpt>
      <trkpt lat="44.14687" lon="0.76461">
        <ele>100.930508</ele>
        <time>2022-12-29T16:02:25.911Z</time>
      </trkpt>
      <trkpt lat="44.14684" lon="0.76475">
        <ele>100.927067</ele>
        <time>2022-12-29T16:02:27.909Z</time>
      </trkpt>
      <trkpt lat="44.1468" lon="0.76488">
        <ele>100.920673</ele>
        <time>2022-12-29T16:02:29.908Z</time>
      </trkpt>
      <trkpt lat="44.14676" lon="0.76502">
        <ele>100.914088</ele>
        <time>2022-12-29T16:02:31.916Z</time>
      </trkpt>
      <trkpt lat="44.14673" lon="0.76515">
        <ele>100.907696</ele>
        <time>2022-12-29T16:02:33.903Z</time>
      </trkpt>
      <trkpt lat="44.14669" lon="0.76529">
        <ele>100.901129</ele>
        <time>2022-12-29T16:02:35.910Z</time>
      </trkpt>
      <trkpt lat="44.14666" lon="0.76543">
        <ele>100.894327</ele>
        <time>2022-12-29T16:02:37.916Z</time>
      </trkpt>
      <trkpt lat="44.14662" lon="0.76557">
        <ele>100.88787</ele>
        <time>2022-12-29T16:02:39.913Z</time>
      </trkpt>
      <trkpt lat="44.14658" lon="0.7657">
        <ele>100.88164</ele>
        <time>2022-12-29T16:02:41.908Z</time>
      </trkpt>
      <trkpt lat="44.14655" lon="0.76583">
        <ele>100.875206</ele>
        <time>2022-12-29T16:02:43.914Z</time>
      </trkpt>
      <trkpt lat="44.14652" lon="0.76597">
        <ele>100.868877</ele>
        <time>2022-12-29T16:02:45.915Z</time>
      </trkpt>
      <trkpt lat="44.14648" lon="0.7661">
        <ele>100.862464</ele>
        <time>2022-12-29T16:02:47.911Z</time>
      </trkpt>
      <trkpt lat="44.14645" lon="0.76623">
        <ele>100.856366</ele>
        <time>2022-12-29T16:02:49.910Z</time>
      </trkpt>
      <trkpt lat="44.14642" lon="0.76636">
        <ele>100.85035</ele>
        <time>2022-12-29T16:02:51.912Z</time>
      </trkpt>
      <trkpt lat="44.14639" lon="0.76649">
        <ele>100.844206</ele>
        <time>2022-12-29T16:02:53.913Z</time>
      </trkpt>
      <trkpt lat="44.14636" lon="0.76661">
        <ele>100.838529</ele>
        <time>2022-12-29T16:02:55.911Z</time>
      </trkpt>
      <trkpt lat="44.14633" lon="0.76674">
        <ele>100.832646</ele>
        <time>2022-12-29T16:02:57.910Z</time>
      </trkpt>
      <trkpt lat="44.1463" lon="0.76687">
        <ele>100.826169</ele>
        <time>2022-12-29T16:02:59.915Z</time>
      </trkpt>
      <trkpt lat="44.14626" lon="0.76701">
        <ele>100.819635</ele>
        <time>2022-12-29T16:03:01.912Z</time>
      </trkpt>
      <trkpt lat="44.14622" lon="0.76714">
        <ele>100.788833</ele>
        <time>2022-12-29T16:03:03.916Z</time>
      </trkpt>
      <trkpt lat="44.14619" lon="0.76727">
        <ele>100.759655</ele>
        <time>2022-12-29T16:03:05.908Z</time>
      </trkpt>
      <trkpt lat="44.14616" lon="0.7674">
        <ele>100.729464</ele>
        <time>2022-12-29T16:03:07.913Z</time>
      </trkpt>
      <trkpt lat="44.14612" lon="0.76754">
        <ele>100.698264</ele>
        <time>2022-12-29T16:03:09.913Z</time>
      </trkpt>
      <trkpt lat="44.14609" lon="0.76768">
        <ele>100.666673</ele>
        <time>2022-12-29T16:03:11.919Z</time>
      </trkpt>
      <trkpt lat="44.14605" lon="0.76782">
        <ele>100.634061</ele>
        <time>2022-12-29T16:03:13.906Z</time>
      </trkpt>
      <trkpt lat="44.14601" lon="0.76796">
        <ele>100.602559</ele>
        <time>2022-12-29T16:03:15.910Z</time>
      </trkpt>
      <trkpt lat="44.14598" lon="0.76809">
        <ele>100.57357</ele>
        <time>2022-12-29T16:03:17.919Z</time>
      </trkpt>
      <trkpt lat="44.14594" lon="0.76823">
        <ele>100.541066</ele>
        <time>2022-12-29T16:03:19.907Z</time>
      </trkpt>
      <trkpt lat="44.14591" lon="0.76837">
        <ele>100.509667</ele>
        <time>2022-12-29T16:03:21.906Z</time>
      </trkpt>
      <trkpt lat="44.14587" lon="0.76851">
        <ele>100.478173</ele>
        <time>2022-12-29T16:03:23.914Z</time>
      </trkpt>
      <trkpt lat="44.14583" lon="0.76865">
        <ele>100.44618</ele>
        <time>2022-12-29T16:03:25.915Z</time>
      </trkpt>
      <trkpt lat="44.1458" lon="0.76879">
        <ele>100.41488</ele>
        <time>2022-12-29T16:03:27.914Z</time>
      </trkpt>
      <trkpt lat="44.14577" lon="0.76892">
        <ele>100.384189</ele>
        <time>2022-12-29T16:03:29.910Z</time>
      </trkpt>
      <trkpt lat="44.14573" lon="0.76906">
        <ele>100.3532</ele>
        <time>2022-12-29T16:03:31.915Z</time>
      </trkpt>
      <trkpt lat="44.14569" lon="0.76921">
        <ele>100.319791</ele>
        <time>2022-12-29T16:03:33.907Z</time>
      </trkpt>
      <trkpt lat="44.14566" lon="0.76934">
        <ele>100.288904</ele>
        <time>2022-12-29T16:03:35.912Z</time>
      </trkpt>
      <trkpt lat="44.14563" lon="0.76947">
        <ele>100.319618</ele>
        <time>2022-12-29T16:03:37.913Z</time>
      </trkpt>
      <trkpt lat="44.1456" lon="0.76959">
        <ele>100.36002</ele>
        <time>2022-12-29T16:03:39.911Z</time>
      </trkpt>
      <trkpt lat="44.14557" lon="0.76971">
        <ele>100.401935</ele>
        <time>2022-12-29T16:03:41.908Z</time>
      </trkpt>
      <trkpt lat="44.14554" lon="0.76983">
        <ele>100.442776</ele>
        <time>2022-12-29T16:03:43.906Z</time>
      </trkpt>
      <trkpt lat="44.1455" lon="0.76995">
        <ele>100.485003</ele>
        <time>2022-12-29T16:03:45.913Z</time>
      </trkpt>
      <trkpt lat="44.14547" lon="0.77008">
        <ele>100.529025</ele>
        <time>2022-12-29T16:03:47.910Z</time>
      </trkpt>
      <trkpt lat="44.14544" lon="0.77022">
        <ele>100.576859</ele>
        <time>2022-12-29T16:03:49.913Z</time>
      </trkpt>
      <trkpt lat="44.1454" lon="0.77036">
        <ele>100.624205</ele>
        <time>2022-12-29T16:03:51.915Z</time>
      </trkpt>
      <trkpt lat="44.14537" lon="0.7705">
        <ele>100.671259</ele>
        <time>2022-12-29T16:03:53.917Z</time>
      </trkpt>
      <trkpt lat="44.14533" lon="0.77064">
        <ele>100.719824</ele>
        <time>2022-12-29T16:03:55.915Z</time>
      </trkpt>
      <trkpt lat="44.14529" lon="0.77079">
        <ele>100.769591</ele>
        <time>2022-12-29T16:03:57.904Z</time>
      </trkpt>
      <trkpt lat="44.14525" lon="0.77092">
        <ele>100.815576</ele>
        <time>2022-12-29T16:03:59.909Z</time>
      </trkpt>
      <trkpt lat="44.14522" lon="0.77105">
        <ele>100.859746</ele>
        <time>2022-12-29T16:04:01.906Z</time>
      </trkpt>
      <trkpt lat="44.14518" lon="0.77122">
        <ele>100.917373</ele>
        <time>2022-12-29T16:04:04.912Z</time>
      </trkpt>
      <trkpt lat="44.14514" lon="0.77134">
        <ele>100.960026</ele>
        <time>2022-12-29T16:04:06.916Z</time>
      </trkpt>
      <trkpt lat="44.14511" lon="0.77147">
        <ele>101.002227</ele>
        <time>2022-12-29T16:04:08.914Z</time>
      </trkpt>
      <trkpt lat="44.14508" lon="0.7716">
        <ele>101.047906</ele>
        <time>2022-12-29T16:04:10.904Z</time>
      </trkpt>
      <trkpt lat="44.14505" lon="0.77173">
        <ele>101.091727</ele>
        <time>2022-12-29T16:04:12.915Z</time>
      </trkpt>
      <trkpt lat="44.14502" lon="0.77186">
        <ele>101.132416</ele>
        <time>2022-12-29T16:04:14.911Z</time>
      </trkpt>
      <trkpt lat="44.14499" lon="0.77199">
        <ele>101.172678</ele>
        <time>2022-12-29T16:04:16.909Z</time>
      </trkpt>
      <trkpt lat="44.14495" lon="0.77212">
        <ele>101.212388</ele>
        <time>2022-12-29T16:04:18.904Z</time>
      </trkpt>
      <trkpt lat="44.14492" lon="0.77224">
        <ele>101.251304</ele>
        <time>2022-12-29T16:04:20.910Z</time>
      </trkpt>
      <trkpt lat="44.14489" lon="0.77237">
        <ele>101.289639</ele>
        <time>2022-12-29T16:04:22.917Z</time>
      </trkpt>
      <trkpt lat="44.14484" lon="0.77255">
        <ele>101.344406</ele>
        <time>2022-12-29T16:04:25.918Z</time>
      </trkpt>
      <trkpt lat="44.14482" lon="0.77267">
        <ele>101.383328</ele>
        <time>2022-12-29T16:04:27.915Z</time>
      </trkpt>
      <trkpt lat="44.14478" lon="0.7728">
        <ele>101.424877</ele>
        <time>2022-12-29T16:04:29.915Z</time>
      </trkpt>
      <trkpt lat="44.14474" lon="0.77293">
        <ele>101.465136</ele>
        <time>2022-12-29T16:04:31.901Z</time>
      </trkpt>
      <trkpt lat="44.14471" lon="0.77307">
        <ele>101.506787</ele>
        <time>2022-12-29T16:04:33.904Z</time>
      </trkpt>
      <trkpt lat="44.14467" lon="0.7732">
        <ele>101.549123</ele>
        <time>2022-12-29T16:04:35.915Z</time>
      </trkpt>
      <trkpt lat="44.14463" lon="0.77334">
        <ele>101.593268</ele>
        <time>2022-12-29T16:04:37.913Z</time>
      </trkpt>
      <trkpt lat="44.1446" lon="0.77348">
        <ele>101.635479</ele>
        <time>2022-12-29T16:04:39.911Z</time>
      </trkpt>
      <trkpt lat="44.14456" lon="0.77362">
        <ele>101.678244</ele>
        <time>2022-12-29T16:04:41.909Z</time>
      </trkpt>
      <trkpt lat="44.14452" lon="0.77376">
        <ele>101.723207</ele>
        <time>2022-12-29T16:04:43.915Z</time>
      </trkpt>
      <trkpt lat="44.14449" lon="0.7739">
        <ele>101.768015</ele>
        <time>2022-12-29T16:04:45.922Z</time>
      </trkpt>
      <trkpt lat="44.14445" lon="0.77405">
        <ele>101.812983</ele>
        <time>2022-12-29T16:04:47.911Z</time>
      </trkpt>
      <trkpt lat="44.14442" lon="0.7742">
        <ele>101.903497</ele>
        <time>2022-12-29T16:04:49.913Z</time>
      </trkpt>
      <trkpt lat="44.14438" lon="0.77434">
        <ele>102.002528</ele>
        <time>2022-12-29T16:04:51.917Z</time>
      </trkpt>
      <trkpt lat="44.14435" lon="0.77448">
        <ele>102.098631</ele>
        <time>2022-12-29T16:04:53.914Z</time>
      </trkpt>
      <trkpt lat="44.14432" lon="0.77461">
        <ele>102.191658</ele>
        <time>2022-12-29T16:04:55.907Z</time>
      </trkpt>
      <trkpt lat="44.14428" lon="0.77475">
        <ele>102.28562</ele>
        <time>2022-12-29T16:04:57.908Z</time>
      </trkpt>
      <trkpt lat="44.14425" lon="0.77486">
        <ele>102.367775</ele>
        <time>2022-12-29T16:04:59.910Z</time>
      </trkpt>
      <trkpt lat="44.14421" lon="0.77498">
        <ele>102.45163</ele>
        <time>2022-12-29T16:05:01.914Z</time>
      </trkpt>
      <trkpt lat="44.14417" lon="0.77515">
        <ele>102.571925</ele>
        <time>2022-12-29T16:05:04.912Z</time>
      </trkpt>
      <trkpt lat="44.14412" lon="0.77532">
        <ele>102.688797</ele>
        <time>2022-12-29T16:05:07.914Z</time>
      </trkpt>
      <trkpt lat="44.14408" lon="0.77548">
        <ele>102.801026</ele>
        <time>2022-12-29T16:05:10.911Z</time>
      </trkpt>
      <trkpt lat="44.14404" lon="0.77564">
        <ele>102.91357</ele>
        <time>2022-12-29T16:05:13.910Z</time>
      </trkpt>
      <trkpt lat="44.144" lon="0.77579">
        <ele>103.024321</ele>
        <time>2022-12-29T16:05:16.913Z</time>
      </trkpt>
      <trkpt lat="44.14395" lon="0.77596">
        <ele>103.140125</ele>
        <time>2022-12-29T16:05:19.907Z</time>
      </trkpt>
      <trkpt lat="44.14391" lon="0.77614">
        <ele>103.268536</ele>
        <time>2022-12-29T16:05:22.907Z</time>
      </trkpt>
      <trkpt lat="44.14387" lon="0.77632">
        <ele>103.3898</ele>
        <time>2022-12-29T16:05:25.905Z</time>
      </trkpt>
      <trkpt lat="44.14385" lon="0.77644">
        <ele>103.472254</ele>
        <time>2022-12-29T16:05:27.908Z</time>
      </trkpt>
      <trkpt lat="44.14381" lon="0.77659">
        <ele>103.452135</ele>
        <time>2022-12-29T16:05:30.906Z</time>
      </trkpt>
      <trkpt lat="44.14378" lon="0.77674">
        <ele>103.42933</ele>
        <time>2022-12-29T16:05:33.904Z</time>
      </trkpt>
      <trkpt lat="44.14375" lon="0.77687">
        <ele>103.407353</ele>
        <time>2022-12-29T16:05:36.905Z</time>
      </trkpt>
      <trkpt lat="44.14373" lon="0.777">
        <ele>103.387959</ele>
        <time>2022-12-29T16:05:39.912Z</time>
      </trkpt>
      <trkpt lat="44.14377" lon="0.77714">
        <ele>103.365769</ele>
        <time>2022-12-29T16:05:43.904Z</time>
      </trkpt>
      <trkpt lat="44.14386" lon="0.77717">
        <ele>103.345104</ele>
        <time>2022-12-29T16:05:47.903Z</time>
      </trkpt>
      <trkpt lat="44.14398" lon="0.77719">
        <ele>103.3215</ele>
        <time>2022-12-29T16:05:52.912Z</time>
      </trkpt>
      <trkpt lat="44.14406" lon="0.77727">
        <ele>103.299193</ele>
        <time>2022-12-29T16:05:56.914Z</time>
      </trkpt>
      <trkpt lat="44.14403" lon="0.77747">
        <ele>103.269448</ele>
        <time>2022-12-29T16:05:59.906Z</time>
      </trkpt>
      <trkpt lat="44.14401" lon="0.7776">
        <ele>103.248172</ele>
        <time>2022-12-29T16:06:01.916Z</time>
      </trkpt>
      <trkpt lat="44.14398" lon="0.77775">
        <ele>103.224879</ele>
        <time>2022-12-29T16:06:03.909Z</time>
      </trkpt>
      <trkpt lat="44.14395" lon="0.7779">
        <ele>103.202606</ele>
        <time>2022-12-29T16:06:05.910Z</time>
      </trkpt>
      <trkpt lat="44.14393" lon="0.77805">
        <ele>103.17926</ele>
        <time>2022-12-29T16:06:07.904Z</time>
      </trkpt>
      <trkpt lat="44.14392" lon="0.7782">
        <ele>103.156287</ele>
        <time>2022-12-29T16:06:09.905Z</time>
      </trkpt>
      <trkpt lat="44.14391" lon="0.77834">
        <ele>103.135073</ele>
        <time>2022-12-29T16:06:11.912Z</time>
      </trkpt>
      <trkpt lat="44.1439" lon="0.77848">
        <ele>103.113675</ele>
        <time>2022-12-29T16:06:13.909Z</time>
      </trkpt>
      <trkpt lat="44.1439" lon="0.77861">
        <ele>103.095505</ele>
        <time>2022-12-29T16:06:15.909Z</time>
      </trkpt>
      <trkpt lat="44.14389" lon="0.77874">
        <ele>103.082281</ele>
        <time>2022-12-29T16:06:17.913Z</time>
      </trkpt>
      <trkpt lat="44.1439" lon="0.77891">
        <ele>103.065269</ele>
        <time>2022-12-29T16:06:20.912Z</time>
      </trkpt>
      <trkpt lat="44.1439" lon="0.77909">
        <ele>103.047461</ele>
        <time>2022-12-29T16:06:23.913Z</time>
      </trkpt>
      <trkpt lat="44.1439" lon="0.77927">
        <ele>103.02884</ele>
        <time>2022-12-29T16:06:26.911Z</time>
      </trkpt>
      <trkpt lat="44.14391" lon="0.7794">
        <ele>103.015761</ele>
        <time>2022-12-29T16:06:28.916Z</time>
      </trkpt>
      <trkpt lat="44.14392" lon="0.77953">
        <ele>103.003049</ele>
        <time>2022-12-29T16:06:30.913Z</time>
      </trkpt>
      <trkpt lat="44.14392" lon="0.77966">
        <ele>102.990331</ele>
        <time>2022-12-29T16:06:32.907Z</time>
      </trkpt>
      <trkpt lat="44.14393" lon="0.7798">
        <ele>102.976568</ele>
        <time>2022-12-29T16:06:34.922Z</time>
      </trkpt>
      <trkpt lat="44.14394" lon="0.77993">
        <ele>102.962562</ele>
        <time>2022-12-29T16:06:36.909Z</time>
      </trkpt>
      <trkpt lat="44.14394" lon="0.78007">
        <ele>102.948754</ele>
        <time>2022-12-29T16:06:38.910Z</time>
      </trkpt>
      <trkpt lat="44.14395" lon="0.78021">
        <ele>102.935123</ele>
        <time>2022-12-29T16:06:40.912Z</time>
      </trkpt>
      <trkpt lat="44.14396" lon="0.78035">
        <ele>102.920862</ele>
        <time>2022-12-29T16:06:42.909Z</time>
      </trkpt>
      <trkpt lat="44.14396" lon="0.78049">
        <ele>102.906845</ele>
        <time>2022-12-29T16:06:44.919Z</time>
      </trkpt>
      <trkpt lat="44.14397" lon="0.78063">
        <ele>102.892406</ele>
        <time>2022-12-29T16:06:46.906Z</time>
      </trkpt>
      <trkpt lat="44.14398" lon="0.78076">
        <ele>102.879326</ele>
        <time>2022-12-29T16:06:48.915Z</time>
      </trkpt>
      <trkpt lat="44.14399" lon="0.7809">
        <ele>102.865321</ele>
        <time>2022-12-29T16:06:50.913Z</time>
      </trkpt>
      <trkpt lat="44.144" lon="0.78104">
        <ele>102.851132</ele>
        <time>2022-12-29T16:06:52.920Z</time>
      </trkpt>
      <trkpt lat="44.14401" lon="0.78118">
        <ele>102.951615</ele>
        <time>2022-12-29T16:06:54.911Z</time>
      </trkpt>
      <trkpt lat="44.14403" lon="0.78133">
        <ele>103.110117</ele>
        <time>2022-12-29T16:06:56.917Z</time>
      </trkpt>
      <trkpt lat="44.14404" lon="0.78147">
        <ele>103.261976</ele>
        <time>2022-12-29T16:06:58.912Z</time>
      </trkpt>
      <trkpt lat="44.14404" lon="0.7816">
        <ele>103.406366</ele>
        <time>2022-12-29T16:07:00.912Z</time>
      </trkpt>
      <trkpt lat="44.14405" lon="0.78173">
        <ele>103.551016</ele>
        <time>2022-12-29T16:07:02.909Z</time>
      </trkpt>
      <trkpt lat="44.14406" lon="0.78186">
        <ele>103.690382</ele>
        <time>2022-12-29T16:07:04.914Z</time>
      </trkpt>
      <trkpt lat="44.14407" lon="0.782">
        <ele>103.836365</ele>
        <time>2022-12-29T16:07:06.915Z</time>
      </trkpt>
      <trkpt lat="44.14407" lon="0.78213">
        <ele>103.986425</ele>
        <time>2022-12-29T16:07:08.912Z</time>
      </trkpt>
      <trkpt lat="44.14409" lon="0.78227">
        <ele>104.134876</ele>
        <time>2022-12-29T16:07:10.903Z</time>
      </trkpt>
      <trkpt lat="44.1441" lon="0.78242">
        <ele>104.29504</ele>
        <time>2022-12-29T16:07:12.907Z</time>
      </trkpt>
      <trkpt lat="44.14411" lon="0.78257">
        <ele>104.460907</ele>
        <time>2022-12-29T16:07:14.911Z</time>
      </trkpt>
      <trkpt lat="44.14412" lon="0.78271">
        <ele>104.619228</ele>
        <time>2022-12-29T16:07:16.910Z</time>
      </trkpt>
      <trkpt lat="44.14413" lon="0.78287">
        <ele>104.789576</ele>
        <time>2022-12-29T16:07:18.904Z</time>
      </trkpt>
      <trkpt lat="44.14414" lon="0.78303">
        <ele>104.96392</ele>
        <time>2022-12-29T16:07:20.908Z</time>
      </trkpt>
      <trkpt lat="44.14415" lon="0.78319">
        <ele>105.133805</ele>
        <time>2022-12-29T16:07:22.904Z</time>
      </trkpt>
      <trkpt lat="44.14417" lon="0.78334">
        <ele>105.302588</ele>
        <time>2022-12-29T16:07:24.911Z</time>
      </trkpt>
      <trkpt lat="44.14417" lon="0.78347">
        <ele>105.441559</ele>
        <time>2022-12-29T16:07:26.912Z</time>
      </trkpt>
      <trkpt lat="44.14418" lon="0.78366">
        <ele>105.532376</ele>
        <time>2022-12-29T16:07:29.906Z</time>
      </trkpt>
      <trkpt lat="44.14419" lon="0.7838">
        <ele>105.4762</ele>
        <time>2022-12-29T16:07:31.902Z</time>
      </trkpt>
      <trkpt lat="44.14421" lon="0.78395">
        <ele>105.413051</ele>
        <time>2022-12-29T16:07:33.906Z</time>
      </trkpt>
      <trkpt lat="44.14421" lon="0.78409">
        <ele>105.353036</ele>
        <time>2022-12-29T16:07:35.909Z</time>
      </trkpt>
      <trkpt lat="44.14422" lon="0.78424">
        <ele>105.293845</ele>
        <time>2022-12-29T16:07:37.909Z</time>
      </trkpt>
      <trkpt lat="44.14423" lon="0.78439">
        <ele>105.232045</ele>
        <time>2022-12-29T16:07:39.913Z</time>
      </trkpt>
      <trkpt lat="44.14424" lon="0.78453">
        <ele>105.173339</ele>
        <time>2022-12-29T16:07:41.909Z</time>
      </trkpt>
      <trkpt lat="44.14426" lon="0.78467">
        <ele>105.113164</ele>
        <time>2022-12-29T16:07:43.906Z</time>
      </trkpt>
      <trkpt lat="44.14427" lon="0.7848">
        <ele>105.059286</ele>
        <time>2022-12-29T16:07:45.904Z</time>
      </trkpt>
      <trkpt lat="44.14429" lon="0.78499">
        <ele>104.981515</ele>
        <time>2022-12-29T16:07:48.914Z</time>
      </trkpt>
      <trkpt lat="44.1443" lon="0.78517">
        <ele>104.905628</ele>
        <time>2022-12-29T16:07:51.902Z</time>
      </trkpt>
      <trkpt lat="44.14431" lon="0.78535">
        <ele>104.83039</ele>
        <time>2022-12-29T16:07:54.911Z</time>
      </trkpt>
      <trkpt lat="44.14432" lon="0.78548">
        <ele>104.776045</ele>
        <time>2022-12-29T16:07:56.915Z</time>
      </trkpt>
      <trkpt lat="44.14432" lon="0.78561">
        <ele>104.721898</ele>
        <time>2022-12-29T16:07:58.915Z</time>
      </trkpt>
      <trkpt lat="44.14433" lon="0.78576">
        <ele>104.66056</ele>
        <time>2022-12-29T16:08:00.910Z</time>
      </trkpt>
      <trkpt lat="44.14434" lon="0.7859">
        <ele>104.601201</ele>
        <time>2022-12-29T16:08:02.916Z</time>
      </trkpt>
      <trkpt lat="44.14435" lon="0.78604">
        <ele>104.546908</ele>
        <time>2022-12-29T16:08:04.918Z</time>
      </trkpt>
      <trkpt lat="44.14437" lon="0.78618">
        <ele>104.519293</ele>
        <time>2022-12-29T16:08:06.907Z</time>
      </trkpt>
      <trkpt lat="44.14438" lon="0.78632">
        <ele>104.505015</ele>
        <time>2022-12-29T16:08:08.909Z</time>
      </trkpt>
      <trkpt lat="44.14439" lon="0.78644">
        <ele>104.491936</ele>
        <time>2022-12-29T16:08:10.910Z</time>
      </trkpt>
      <trkpt lat="44.1444" lon="0.78657">
        <ele>104.478454</ele>
        <time>2022-12-29T16:08:12.909Z</time>
      </trkpt>
      <trkpt lat="44.14441" lon="0.7867">
        <ele>104.465468</ele>
        <time>2022-12-29T16:08:14.907Z</time>
      </trkpt>
      <trkpt lat="44.14442" lon="0.78687">
        <ele>104.447067</ele>
        <time>2022-12-29T16:08:17.904Z</time>
      </trkpt>
      <trkpt lat="44.14442" lon="0.787">
        <ele>104.433498</ele>
        <time>2022-12-29T16:08:19.915Z</time>
      </trkpt>
      <trkpt lat="44.14443" lon="0.78713">
        <ele>104.420075</ele>
        <time>2022-12-29T16:08:21.908Z</time>
      </trkpt>
      <trkpt lat="44.14444" lon="0.78727">
        <ele>104.406384</ele>
        <time>2022-12-29T16:08:23.903Z</time>
      </trkpt>
      <trkpt lat="44.14445" lon="0.78741">
        <ele>104.390973</ele>
        <time>2022-12-29T16:08:25.909Z</time>
      </trkpt>
      <trkpt lat="44.14446" lon="0.78754">
        <ele>104.377358</ele>
        <time>2022-12-29T16:08:27.912Z</time>
      </trkpt>
      <trkpt lat="44.14448" lon="0.78768">
        <ele>104.362675</ele>
        <time>2022-12-29T16:08:29.912Z</time>
      </trkpt>
      <trkpt lat="44.14448" lon="0.78783">
        <ele>104.347858</ele>
        <time>2022-12-29T16:08:31.906Z</time>
      </trkpt>
      <trkpt lat="44.1445" lon="0.78798">
        <ele>104.332049</ele>
        <time>2022-12-29T16:08:33.916Z</time>
      </trkpt>
      <trkpt lat="44.14451" lon="0.7881">
        <ele>104.318816</ele>
        <time>2022-12-29T16:08:35.912Z</time>
      </trkpt>
      <trkpt lat="44.14453" lon="0.78828">
        <ele>104.299929</ele>
        <time>2022-12-29T16:08:38.912Z</time>
      </trkpt>
      <trkpt lat="44.14454" lon="0.78845">
        <ele>104.282623</ele>
        <time>2022-12-29T16:08:41.908Z</time>
      </trkpt>
      <trkpt lat="44.14456" lon="0.78863">
        <ele>104.21136</ele>
        <time>2022-12-29T16:08:44.913Z</time>
      </trkpt>
      <trkpt lat="44.14457" lon="0.7888">
        <ele>104.06211</ele>
        <time>2022-12-29T16:08:47.911Z</time>
      </trkpt>
      <trkpt lat="44.14458" lon="0.78895">
        <ele>103.938346</ele>
        <time>2022-12-29T16:08:49.905Z</time>
      </trkpt>
      <trkpt lat="44.14458" lon="0.78908">
        <ele>103.827558</ele>
        <time>2022-12-29T16:08:51.906Z</time>
      </trkpt>
      <trkpt lat="44.14459" lon="0.78924">
        <ele>103.684625</ele>
        <time>2022-12-29T16:08:54.905Z</time>
      </trkpt>
      <trkpt lat="44.14461" lon="0.78942">
        <ele>103.534108</ele>
        <time>2022-12-29T16:08:57.909Z</time>
      </trkpt>
      <trkpt lat="44.14462" lon="0.78959">
        <ele>103.385581</ele>
        <time>2022-12-29T16:09:00.906Z</time>
      </trkpt>
      <trkpt lat="44.14464" lon="0.78977">
        <ele>103.226078</ele>
        <time>2022-12-29T16:09:03.913Z</time>
      </trkpt>
      <trkpt lat="44.14466" lon="0.78991">
        <ele>103.108038</ele>
        <time>2022-12-29T16:09:05.912Z</time>
      </trkpt>
      <trkpt lat="44.14468" lon="0.79004">
        <ele>102.993595</ele>
        <time>2022-12-29T16:09:07.908Z</time>
      </trkpt>
      <trkpt lat="44.1447" lon="0.79022">
        <ele>102.832452</ele>
        <time>2022-12-29T16:09:10.907Z</time>
      </trkpt>
      <trkpt lat="44.14473" lon="0.79038">
        <ele>102.690559</ele>
        <time>2022-12-29T16:09:13.913Z</time>
      </trkpt>
      <trkpt lat="44.14478" lon="0.79056">
        <ele>102.53267</ele>
        <time>2022-12-29T16:09:16.907Z</time>
      </trkpt>
      <trkpt lat="44.14481" lon="0.79068">
        <ele>102.418196</ele>
        <time>2022-12-29T16:09:18.912Z</time>
      </trkpt>
      <trkpt lat="44.14483" lon="0.79082">
        <ele>102.303025</ele>
        <time>2022-12-29T16:09:20.905Z</time>
      </trkpt>
      <trkpt lat="44.14486" lon="0.79095">
        <ele>102.182691</ele>
        <time>2022-12-29T16:09:22.904Z</time>
      </trkpt>
      <trkpt lat="44.14489" lon="0.79108">
        <ele>101.957261</ele>
        <time>2022-12-29T16:09:24.914Z</time>
      </trkpt>
      <trkpt lat="44.14492" lon="0.79122">
        <ele>101.590598</ele>
        <time>2022-12-29T16:09:26.906Z</time>
      </trkpt>
      <trkpt lat="44.14496" lon="0.79134">
        <ele>101.234645</ele>
        <time>2022-12-29T16:09:28.904Z</time>
      </trkpt>
      <trkpt lat="44.145" lon="0.79147">
        <ele>100.888705</ele>
        <time>2022-12-29T16:09:30.908Z</time>
      </trkpt>
      <trkpt lat="44.14502" lon="0.7916">
        <ele>100.546</ele>
        <time>2022-12-29T16:09:32.906Z</time>
      </trkpt>
      <trkpt lat="44.14507" lon="0.79177">
        <ele>100.074104</ele>
        <time>2022-12-29T16:09:35.910Z</time>
      </trkpt>
      <trkpt lat="44.14511" lon="0.79194">
        <ele>99.631033</ele>
        <time>2022-12-29T16:09:38.911Z</time>
      </trkpt>
      <trkpt lat="44.14515" lon="0.7921">
        <ele>99.208562</ele>
        <time>2022-12-29T16:09:41.912Z</time>
      </trkpt>
      <trkpt lat="44.14518" lon="0.79227">
        <ele>98.762559</ele>
        <time>2022-12-29T16:09:44.915Z</time>
      </trkpt>
      <trkpt lat="44.1452" lon="0.79239">
        <ele>98.431066</ele>
        <time>2022-12-29T16:09:46.907Z</time>
      </trkpt>
      <trkpt lat="44.14525" lon="0.79257">
        <ele>97.957013</ele>
        <time>2022-12-29T16:09:49.910Z</time>
      </trkpt>
      <trkpt lat="44.14528" lon="0.79269">
        <ele>97.61709</ele>
        <time>2022-12-29T16:09:51.912Z</time>
      </trkpt>
      <trkpt lat="44.14531" lon="0.79281">
        <ele>97.290309</ele>
        <time>2022-12-29T16:09:53.912Z</time>
      </trkpt>
      <trkpt lat="44.14535" lon="0.79294">
        <ele>96.953846</ele>
        <time>2022-12-29T16:09:55.907Z</time>
      </trkpt>
      <trkpt lat="44.14539" lon="0.79311">
        <ele>96.483024</ele>
        <time>2022-12-29T16:09:58.905Z</time>
      </trkpt>
      <trkpt lat="44.14543" lon="0.79327">
        <ele>96.049691</ele>
        <time>2022-12-29T16:10:01.909Z</time>
      </trkpt>
      <trkpt lat="44.14547" lon="0.79343">
        <ele>95.818755</ele>
        <time>2022-12-29T16:10:04.901Z</time>
      </trkpt>
      <trkpt lat="44.14552" lon="0.79359">
        <ele>96.103137</ele>
        <time>2022-12-29T16:10:08.908Z</time>
      </trkpt>
      <trkpt lat="44.14555" lon="0.79375">
        <ele>96.374709</ele>
        <time>2022-12-29T16:10:11.911Z</time>
      </trkpt>
      <trkpt lat="44.14559" lon="0.79392">
        <ele>96.668274</ele>
        <time>2022-12-29T16:10:14.911Z</time>
      </trkpt>
      <trkpt lat="44.14562" lon="0.79408">
        <ele>96.926403</ele>
        <time>2022-12-29T16:10:16.908Z</time>
      </trkpt>
      <trkpt lat="44.14564" lon="0.79421">
        <ele>97.146037</ele>
        <time>2022-12-29T16:10:18.913Z</time>
      </trkpt>
      <trkpt lat="44.14568" lon="0.7944">
        <ele>97.471745</ele>
        <time>2022-12-29T16:10:21.904Z</time>
      </trkpt>
      <trkpt lat="44.14569" lon="0.79457">
        <ele>97.752776</ele>
        <time>2022-12-29T16:10:24.908Z</time>
      </trkpt>
      <trkpt lat="44.14571" lon="0.7947">
        <ele>97.962624</ele>
        <time>2022-12-29T16:10:26.907Z</time>
      </trkpt>
      <trkpt lat="44.14574" lon="0.79486">
        <ele>98.233812</ele>
        <time>2022-12-29T16:10:29.912Z</time>
      </trkpt>
      <trkpt lat="44.14575" lon="0.79502">
        <ele>98.493497</ele>
        <time>2022-12-29T16:10:32.911Z</time>
      </trkpt>
      <trkpt lat="44.14579" lon="0.79518">
        <ele>98.772608</ele>
        <time>2022-12-29T16:10:35.908Z</time>
      </trkpt>
      <trkpt lat="44.14579" lon="0.79532">
        <ele>99.005345</ele>
        <time>2022-12-29T16:10:38.914Z</time>
      </trkpt>
      <trkpt lat="44.14578" lon="0.79549">
        <ele>99.269148</ele>
        <time>2022-12-29T16:10:41.907Z</time>
      </trkpt>
      <trkpt lat="44.14578" lon="0.79564">
        <ele>99.518654</ele>
        <time>2022-12-29T16:10:44.914Z</time>
      </trkpt>
      <trkpt lat="44.14576" lon="0.79578">
        <ele>99.745741</ele>
        <time>2022-12-29T16:10:47.914Z</time>
      </trkpt>
      <trkpt lat="44.14571" lon="0.79591">
        <ele>99.965036</ele>
        <time>2022-12-29T16:10:51.908Z</time>
      </trkpt>
      <trkpt lat="44.14569" lon="0.79603">
        <ele>100.136839</ele>
        <time>2022-12-29T16:10:56.911Z</time>
      </trkpt>
      <trkpt lat="44.14572" lon="0.79618">
        <ele>100.344356</ele>
        <time>2022-12-29T16:11:01.907Z</time>
      </trkpt>
      <trkpt lat="44.14571" lon="0.79635">
        <ele>100.57669</ele>
        <time>2022-12-29T16:11:05.920Z</time>
      </trkpt>
      <trkpt lat="44.14569" lon="0.7965">
        <ele>100.781726</ele>
        <time>2022-12-29T16:11:08.908Z</time>
      </trkpt>
      <trkpt lat="44.14568" lon="0.79663">
        <ele>100.95921</ele>
        <time>2022-12-29T16:11:11.904Z</time>
      </trkpt>
      <trkpt lat="44.14567" lon="0.79678">
        <ele>101.169907</ele>
        <time>2022-12-29T16:11:15.913Z</time>
      </trkpt>
      <trkpt lat="44.14565" lon="0.79693">
        <ele>101.372711</ele>
        <time>2022-12-29T16:11:19.912Z</time>
      </trkpt>
      <trkpt lat="44.14562" lon="0.79707">
        <ele>101.573642</ele>
        <time>2022-12-29T16:11:22.917Z</time>
      </trkpt>
      <trkpt lat="44.14558" lon="0.79723">
        <ele>101.79904</ele>
        <time>2022-12-29T16:11:25.917Z</time>
      </trkpt>
      <trkpt lat="44.14553" lon="0.79739">
        <ele>102.035486</ele>
        <time>2022-12-29T16:11:28.915Z</time>
      </trkpt>
      <trkpt lat="44.14549" lon="0.79754">
        <ele>102.266871</ele>
        <time>2022-12-29T16:11:31.908Z</time>
      </trkpt>
      <trkpt lat="44.14544" lon="0.79771">
        <ele>102.515764</ele>
        <time>2022-12-29T16:11:34.911Z</time>
      </trkpt>
      <trkpt lat="44.1454" lon="0.79783">
        <ele>102.687725</ele>
        <time>2022-12-29T16:11:36.911Z</time>
      </trkpt>
      <trkpt lat="44.14534" lon="0.79799">
        <ele>102.927742</ele>
        <time>2022-12-29T16:11:39.913Z</time>
      </trkpt>
      <trkpt lat="44.14529" lon="0.79812">
        <ele>103.133818</ele>
        <time>2022-12-29T16:11:42.913Z</time>
      </trkpt>
      <trkpt lat="44.14524" lon="0.79826">
        <ele>103.278487</ele>
        <time>2022-12-29T16:11:45.932Z</time>
      </trkpt>
      <trkpt lat="44.14518" lon="0.79841">
        <ele>103.356906</ele>
        <time>2022-12-29T16:11:48.912Z</time>
      </trkpt>
      <trkpt lat="44.14512" lon="0.79857">
        <ele>103.441679</ele>
        <time>2022-12-29T16:11:51.907Z</time>
      </trkpt>
      <trkpt lat="44.14507" lon="0.79869">
        <ele>103.50035</ele>
        <time>2022-12-29T16:11:53.909Z</time>
      </trkpt>
      <trkpt lat="44.14502" lon="0.7988">
        <ele>103.558319</ele>
        <time>2022-12-29T16:11:55.911Z</time>
      </trkpt>
      <trkpt lat="44.14497" lon="0.79894">
        <ele>103.629533</ele>
        <time>2022-12-29T16:11:58.909Z</time>
      </trkpt>
      <trkpt lat="44.14491" lon="0.7991">
        <ele>103.711515</ele>
        <time>2022-12-29T16:12:01.905Z</time>
      </trkpt>
      <trkpt lat="44.14484" lon="0.79926">
        <ele>103.792937</ele>
        <time>2022-12-29T16:12:04.912Z</time>
      </trkpt>
      <trkpt lat="44.14478" lon="0.79941">
        <ele>103.872808</ele>
        <time>2022-12-29T16:12:07.903Z</time>
      </trkpt>
      <trkpt lat="44.14472" lon="0.79955">
        <ele>103.946383</ele>
        <time>2022-12-29T16:12:10.904Z</time>
      </trkpt>
      <trkpt lat="44.14466" lon="0.79971">
        <ele>104.026506</ele>
        <time>2022-12-29T16:12:13.908Z</time>
      </trkpt>
      <trkpt lat="44.14461" lon="0.79988">
        <ele>104.107555</ele>
        <time>2022-12-29T16:12:16.911Z</time>
      </trkpt>
      <trkpt lat="44.14455" lon="0.80003">
        <ele>104.184708</ele>
        <time>2022-12-29T16:12:19.909Z</time>
      </trkpt>
      <trkpt lat="44.1445" lon="0.80017">
        <ele>104.256609</ele>
        <time>2022-12-29T16:12:22.913Z</time>
      </trkpt>
      <trkpt lat="44.14445" lon="0.80029">
        <ele>104.318749</ele>
        <time>2022-12-29T16:12:25.907Z</time>
      </trkpt>
      <trkpt lat="44.14441" lon="0.80041">
        <ele>104.373097</ele>
        <time>2022-12-29T16:12:28.911Z</time>
      </trkpt>
      <trkpt lat="44.14435" lon="0.80056">
        <ele>104.385128</ele>
        <time>2022-12-29T16:12:31.909Z</time>
      </trkpt>
      <trkpt lat="44.1443" lon="0.80071">
        <ele>104.39769</ele>
        <time>2022-12-29T16:12:34.912Z</time>
      </trkpt>
      <trkpt lat="44.14424" lon="0.80087">
        <ele>104.41043</ele>
        <time>2022-12-29T16:12:37.917Z</time>
      </trkpt>
      <trkpt lat="44.14419" lon="0.80103">
        <ele>104.423763</ele>
        <time>2022-12-29T16:12:40.914Z</time>
      </trkpt>
      <trkpt lat="44.14415" lon="0.80116">
        <ele>104.434028</ele>
        <time>2022-12-29T16:12:42.914Z</time>
      </trkpt>
      <trkpt lat="44.14408" lon="0.80133">
        <ele>104.447927</ele>
        <time>2022-12-29T16:12:45.908Z</time>
      </trkpt>
      <trkpt lat="44.14404" lon="0.80144">
        <ele>104.457354</ele>
        <time>2022-12-29T16:12:47.908Z</time>
      </trkpt>
      <trkpt lat="44.14398" lon="0.80161">
        <ele>104.470821</ele>
        <time>2022-12-29T16:12:50.912Z</time>
      </trkpt>
      <trkpt lat="44.14392" lon="0.80175">
        <ele>104.483072</ele>
        <time>2022-12-29T16:12:53.904Z</time>
      </trkpt>
      <trkpt lat="44.14388" lon="0.80188">
        <ele>104.493675</ele>
        <time>2022-12-29T16:12:56.910Z</time>
      </trkpt>
      <trkpt lat="44.14383" lon="0.802">
        <ele>104.50384</ele>
        <time>2022-12-29T16:12:59.911Z</time>
      </trkpt>
      <trkpt lat="44.14378" lon="0.80212">
        <ele>104.513912</ele>
        <time>2022-12-29T16:13:02.912Z</time>
      </trkpt>
      <trkpt lat="44.14372" lon="0.80225">
        <ele>104.525158</ele>
        <time>2022-12-29T16:13:05.910Z</time>
      </trkpt>
      <trkpt lat="44.14367" lon="0.80238">
        <ele>104.535957</ele>
        <time>2022-12-29T16:13:08.906Z</time>
      </trkpt>
      <trkpt lat="44.14362" lon="0.80254">
        <ele>104.548789</ele>
        <time>2022-12-29T16:13:11.914Z</time>
      </trkpt>
      <trkpt lat="44.14356" lon="0.80269">
        <ele>104.441641</ele>
        <time>2022-12-29T16:13:14.914Z</time>
      </trkpt>
      <trkpt lat="44.14349" lon="0.80285">
        <ele>104.183751</ele>
        <time>2022-12-29T16:13:17.915Z</time>
      </trkpt>
      <trkpt lat="44.14344" lon="0.80298">
        <ele>103.96835</ele>
        <time>2022-12-29T16:13:20.914Z</time>
      </trkpt>
      <trkpt lat="44.1434" lon="0.80309">
        <ele>103.784593</ele>
        <time>2022-12-29T16:13:23.911Z</time>
      </trkpt>
      <trkpt lat="44.14335" lon="0.80321">
        <ele>103.591891</ele>
        <time>2022-12-29T16:13:26.907Z</time>
      </trkpt>
      <trkpt lat="44.14329" lon="0.80336">
        <ele>103.349545</ele>
        <time>2022-12-29T16:13:29.913Z</time>
      </trkpt>
      <trkpt lat="44.14323" lon="0.8035">
        <ele>103.121003</ele>
        <time>2022-12-29T16:13:32.913Z</time>
      </trkpt>
      <trkpt lat="44.14318" lon="0.80364">
        <ele>102.900613</ele>
        <time>2022-12-29T16:13:35.912Z</time>
      </trkpt>
      <trkpt lat="44.14313" lon="0.80378">
        <ele>102.674854</ele>
        <time>2022-12-29T16:13:38.915Z</time>
      </trkpt>
      <trkpt lat="44.14307" lon="0.80392">
        <ele>102.44563</ele>
        <time>2022-12-29T16:13:41.915Z</time>
      </trkpt>
      <trkpt lat="44.14302" lon="0.80404">
        <ele>102.245579</ele>
        <time>2022-12-29T16:13:44.914Z</time>
      </trkpt>
      <trkpt lat="44.14298" lon="0.80416">
        <ele>102.063433</ele>
        <time>2022-12-29T16:13:47.913Z</time>
      </trkpt>
      <trkpt lat="44.14293" lon="0.80429">
        <ele>101.83834</ele>
        <time>2022-12-29T16:13:51.908Z</time>
      </trkpt>
      <trkpt lat="44.14288" lon="0.80441">
        <ele>101.647702</ele>
        <time>2022-12-29T16:13:56.916Z</time>
      </trkpt>
      <trkpt lat="44.14283" lon="0.80454">
        <ele>101.435429</ele>
        <time>2022-12-29T16:14:01.914Z</time>
      </trkpt>
      <trkpt lat="44.14277" lon="0.80468">
        <ele>101.202185</ele>
        <time>2022-12-29T16:14:05.914Z</time>
      </trkpt>
      <trkpt lat="44.14271" lon="0.80482">
        <ele>100.973785</ele>
        <time>2022-12-29T16:14:08.909Z</time>
      </trkpt>
      <trkpt lat="44.14265" lon="0.80498">
        <ele>100.687537</ele>
        <time>2022-12-29T16:14:11.912Z</time>
      </trkpt>
      <trkpt lat="44.14259" lon="0.80514">
        <ele>100.391123</ele>
        <time>2022-12-29T16:14:14.909Z</time>
      </trkpt>
      <trkpt lat="44.14254" lon="0.80529">
        <ele>100.129934</ele>
        <time>2022-12-29T16:14:17.911Z</time>
      </trkpt>
      <trkpt lat="44.1425" lon="0.80542">
        <ele>99.903398</ele>
        <time>2022-12-29T16:14:20.912Z</time>
      </trkpt>
      <trkpt lat="44.14244" lon="0.80555">
        <ele>99.658213</ele>
        <time>2022-12-29T16:14:23.921Z</time>
      </trkpt>
      <trkpt lat="44.14238" lon="0.80569">
        <ele>99.395275</ele>
        <time>2022-12-29T16:14:26.913Z</time>
      </trkpt>
      <trkpt lat="44.14233" lon="0.80583">
        <ele>99.135629</ele>
        <time>2022-12-29T16:14:29.911Z</time>
      </trkpt>
      <trkpt lat="44.14227" lon="0.80599">
        <ele>98.857637</ele>
        <time>2022-12-29T16:14:32.912Z</time>
      </trkpt>
      <trkpt lat="44.14221" lon="0.80615">
        <ele>98.560595</ele>
        <time>2022-12-29T16:14:35.913Z</time>
      </trkpt>
      <trkpt lat="44.14216" lon="0.80626">
        <ele>98.357048</ele>
        <time>2022-12-29T16:14:37.909Z</time>
      </trkpt>
      <trkpt lat="44.14212" lon="0.80638">
        <ele>98.146401</ele>
        <time>2022-12-29T16:14:39.915Z</time>
      </trkpt>
      <trkpt lat="44.14207" lon="0.80652">
        <ele>97.897659</ele>
        <time>2022-12-29T16:14:42.906Z</time>
      </trkpt>
      <trkpt lat="44.14202" lon="0.80665">
        <ele>97.654951</ele>
        <time>2022-12-29T16:14:45.913Z</time>
      </trkpt>
      <trkpt lat="44.14196" lon="0.80679">
        <ele>97.394961</ele>
        <time>2022-12-29T16:14:48.908Z</time>
      </trkpt>
      <trkpt lat="44.1419" lon="0.80694">
        <ele>97.125798</ele>
        <time>2022-12-29T16:14:51.914Z</time>
      </trkpt>
      <trkpt lat="44.14185" lon="0.8071">
        <ele>96.97755</ele>
        <time>2022-12-29T16:14:54.907Z</time>
      </trkpt>
      <trkpt lat="44.14179" lon="0.80725">
        <ele>96.994743</ele>
        <time>2022-12-29T16:14:57.916Z</time>
      </trkpt>
      <trkpt lat="44.14174" lon="0.80739">
        <ele>97.010013</ele>
        <time>2022-12-29T16:15:00.914Z</time>
      </trkpt>
      <trkpt lat="44.14168" lon="0.80753">
        <ele>97.025755</ele>
        <time>2022-12-29T16:15:03.913Z</time>
      </trkpt>
      <trkpt lat="44.14162" lon="0.8077">
        <ele>97.044069</ele>
        <time>2022-12-29T16:15:06.913Z</time>
      </trkpt>
      <trkpt lat="44.14156" lon="0.80786">
        <ele>97.062123</ele>
        <time>2022-12-29T16:15:09.914Z</time>
      </trkpt>
      <trkpt lat="44.1415" lon="0.80802">
        <ele>97.079657</ele>
        <time>2022-12-29T16:15:12.912Z</time>
      </trkpt>
      <trkpt lat="44.14144" lon="0.80818">
        <ele>97.097689</ele>
        <time>2022-12-29T16:15:15.916Z</time>
      </trkpt>
      <trkpt lat="44.14138" lon="0.80834">
        <ele>97.115506</ele>
        <time>2022-12-29T16:15:18.907Z</time>
      </trkpt>
      <trkpt lat="44.14132" lon="0.80849">
        <ele>97.1325</ele>
        <time>2022-12-29T16:15:21.913Z</time>
      </trkpt>
      <trkpt lat="44.14127" lon="0.80862">
        <ele>97.146726</ele>
        <time>2022-12-29T16:15:24.911Z</time>
      </trkpt>
      <trkpt lat="44.14121" lon="0.80876">
        <ele>97.162603</ele>
        <time>2022-12-29T16:15:27.911Z</time>
      </trkpt>
      <trkpt lat="44.14115" lon="0.8089">
        <ele>97.178002</ele>
        <time>2022-12-29T16:15:30.914Z</time>
      </trkpt>
      <trkpt lat="44.14109" lon="0.80904">
        <ele>97.194441</ele>
        <time>2022-12-29T16:15:33.908Z</time>
      </trkpt>
      <trkpt lat="44.14104" lon="0.80918">
        <ele>97.21044</ele>
        <time>2022-12-29T16:15:36.910Z</time>
      </trkpt>
      <trkpt lat="44.14098" lon="0.80933">
        <ele>97.321141</ele>
        <time>2022-12-29T16:15:39.911Z</time>
      </trkpt>
      <trkpt lat="44.14093" lon="0.80948">
        <ele>97.472293</ele>
        <time>2022-12-29T16:15:42.905Z</time>
      </trkpt>
      <trkpt lat="44.14089" lon="0.80959">
        <ele>97.592508</ele>
        <time>2022-12-29T16:15:44.907Z</time>
      </trkpt>
      <trkpt lat="44.14084" lon="0.80971">
        <ele>97.721947</ele>
        <time>2022-12-29T16:15:46.913Z</time>
      </trkpt>
      <trkpt lat="44.14078" lon="0.80986">
        <ele>97.880076</ele>
        <time>2022-12-29T16:15:49.911Z</time>
      </trkpt>
      <trkpt lat="44.14073" lon="0.80998">
        <ele>98.008408</ele>
        <time>2022-12-29T16:15:51.907Z</time>
      </trkpt>
      <trkpt lat="44.14069" lon="0.81009">
        <ele>98.124714</ele>
        <time>2022-12-29T16:15:53.911Z</time>
      </trkpt>
      <trkpt lat="44.14063" lon="0.81022">
        <ele>98.266112</ele>
        <time>2022-12-29T16:15:56.917Z</time>
      </trkpt>
      <trkpt lat="44.14057" lon="0.81038">
        <ele>98.426496</ele>
        <time>2022-12-29T16:15:59.905Z</time>
      </trkpt>
      <trkpt lat="44.14053" lon="0.8105">
        <ele>98.558793</ele>
        <time>2022-12-29T16:16:02.912Z</time>
      </trkpt>
      <trkpt lat="44.14048" lon="0.81063">
        <ele>98.692755</ele>
        <time>2022-12-29T16:16:05.913Z</time>
      </trkpt>
      <trkpt lat="44.14042" lon="0.81077">
        <ele>98.849344</ele>
        <time>2022-12-29T16:16:08.914Z</time>
      </trkpt>
      <trkpt lat="44.14035" lon="0.81093">
        <ele>99.016597</ele>
        <time>2022-12-29T16:16:11.915Z</time>
      </trkpt>
      <trkpt lat="44.14031" lon="0.81104">
        <ele>99.13623</ele>
        <time>2022-12-29T16:16:13.914Z</time>
      </trkpt>
      <trkpt lat="44.14026" lon="0.81119">
        <ele>99.286945</ele>
        <time>2022-12-29T16:16:15.908Z</time>
      </trkpt>
      <trkpt lat="44.1402" lon="0.81134">
        <ele>99.451455</ele>
        <time>2022-12-29T16:16:18.913Z</time>
      </trkpt>
      <trkpt lat="44.14014" lon="0.81146">
        <ele>99.49547</ele>
        <time>2022-12-29T16:16:21.911Z</time>
      </trkpt>
      <trkpt lat="44.14009" lon="0.81162">
        <ele>99.247161</ele>
        <time>2022-12-29T16:16:24.913Z</time>
      </trkpt>
      <trkpt lat="44.14004" lon="0.81176">
        <ele>99.004563</ele>
        <time>2022-12-29T16:16:27.910Z</time>
      </trkpt>
      <trkpt lat="44.13999" lon="0.81191">
        <ele>98.772486</ele>
        <time>2022-12-29T16:16:30.917Z</time>
      </trkpt>
      <trkpt lat="44.13995" lon="0.81202">
        <ele>98.585887</ele>
        <time>2022-12-29T16:16:33.933Z</time>
      </trkpt>
      <trkpt lat="44.13989" lon="0.81215">
        <ele>98.361886</ele>
        <time>2022-12-29T16:16:36.906Z</time>
      </trkpt>
      <trkpt lat="44.13983" lon="0.81231">
        <ele>98.090222</ele>
        <time>2022-12-29T16:16:39.905Z</time>
      </trkpt>
      <trkpt lat="44.13977" lon="0.81246">
        <ele>97.844336</ele>
        <time>2022-12-29T16:16:42.913Z</time>
      </trkpt>
      <trkpt lat="44.13972" lon="0.81259">
        <ele>97.627445</ele>
        <time>2022-12-29T16:16:44.908Z</time>
      </trkpt>
      <trkpt lat="44.13967" lon="0.81271">
        <ele>97.417728</ele>
        <time>2022-12-29T16:16:46.907Z</time>
      </trkpt>
      <trkpt lat="44.13962" lon="0.81284">
        <ele>97.209775</ele>
        <time>2022-12-29T16:16:48.916Z</time>
      </trkpt>
      <trkpt lat="44.13957" lon="0.81295">
        <ele>97.010767</ele>
        <time>2022-12-29T16:16:50.912Z</time>
      </trkpt>
      <trkpt lat="44.13951" lon="0.81308">
        <ele>96.793328</ele>
        <time>2022-12-29T16:16:52.908Z</time>
      </trkpt>
      <trkpt lat="44.13946" lon="0.8132">
        <ele>96.587733</ele>
        <time>2022-12-29T16:16:54.906Z</time>
      </trkpt>
      <trkpt lat="44.1394" lon="0.81332">
        <ele>96.364509</ele>
        <time>2022-12-29T16:16:56.911Z</time>
      </trkpt>
      <trkpt lat="44.13935" lon="0.81343">
        <ele>96.1757</ele>
        <time>2022-12-29T16:16:58.911Z</time>
      </trkpt>
      <trkpt lat="44.13929" lon="0.81354">
        <ele>95.977371</ele>
        <time>2022-12-29T16:17:00.918Z</time>
      </trkpt>
      <trkpt lat="44.13923" lon="0.81366">
        <ele>95.8574</ele>
        <time>2022-12-29T16:17:02.917Z</time>
      </trkpt>
      <trkpt lat="44.13917" lon="0.81377">
        <ele>95.83615</ele>
        <time>2022-12-29T16:17:04.914Z</time>
      </trkpt>
      <trkpt lat="44.1391" lon="0.8139">
        <ele>95.809667</ele>
        <time>2022-12-29T16:17:07.914Z</time>
      </trkpt>
      <trkpt lat="44.13902" lon="0.81402">
        <ele>95.784893</ele>
        <time>2022-12-29T16:17:10.915Z</time>
      </trkpt>
      <trkpt lat="44.13895" lon="0.81412">
        <ele>95.763707</ele>
        <time>2022-12-29T16:17:13.908Z</time>
      </trkpt>
      <trkpt lat="44.13889" lon="0.81422">
        <ele>95.742484</ele>
        <time>2022-12-29T16:17:16.915Z</time>
      </trkpt>
      <trkpt lat="44.13881" lon="0.81433">
        <ele>95.718782</ele>
        <time>2022-12-29T16:17:19.922Z</time>
      </trkpt>
      <trkpt lat="44.13874" lon="0.81444">
        <ele>95.695981</ele>
        <time>2022-12-29T16:17:22.905Z</time>
      </trkpt>
      <trkpt lat="44.13866" lon="0.81455">
        <ele>95.671599</ele>
        <time>2022-12-29T16:17:25.909Z</time>
      </trkpt>
      <trkpt lat="44.13859" lon="0.81464">
        <ele>95.650881</ele>
        <time>2022-12-29T16:17:27.910Z</time>
      </trkpt>
      <trkpt lat="44.13851" lon="0.81472">
        <ele>95.629977</ele>
        <time>2022-12-29T16:17:29.906Z</time>
      </trkpt>
      <trkpt lat="44.13842" lon="0.81484">
        <ele>95.602585</ele>
        <time>2022-12-29T16:17:32.913Z</time>
      </trkpt>
      <trkpt lat="44.13833" lon="0.81495">
        <ele>95.576716</ele>
        <time>2022-12-29T16:17:35.908Z</time>
      </trkpt>
      <trkpt lat="44.13826" lon="0.81504">
        <ele>95.555141</ele>
        <time>2022-12-29T16:17:38.915Z</time>
      </trkpt>
      <trkpt lat="44.13818" lon="0.81514">
        <ele>95.53193</ele>
        <time>2022-12-29T16:17:42.911Z</time>
      </trkpt>
      <trkpt lat="44.1381" lon="0.81522">
        <ele>95.512079</ele>
        <time>2022-12-29T16:17:45.912Z</time>
      </trkpt>
      <trkpt lat="44.13802" lon="0.81532">
        <ele>95.487863</ele>
        <time>2022-12-29T16:17:49.912Z</time>
      </trkpt>
      <trkpt lat="44.13798" lon="0.81547">
        <ele>95.681845</ele>
        <time>2022-12-29T16:17:54.912Z</time>
      </trkpt>
      <trkpt lat="44.13795" lon="0.81561">
        <ele>95.978061</ele>
        <time>2022-12-29T16:17:59.916Z</time>
      </trkpt>
      <trkpt lat="44.13789" lon="0.81572">
        <ele>96.265379</ele>
        <time>2022-12-29T16:18:03.910Z</time>
      </trkpt>
      <trkpt lat="44.13782" lon="0.81583">
        <ele>96.558914</ele>
        <time>2022-12-29T16:18:07.911Z</time>
      </trkpt>
      <trkpt lat="44.13772" lon="0.81589">
        <ele>96.852737</ele>
        <time>2022-12-29T16:18:12.909Z</time>
      </trkpt>
      <trkpt lat="44.13763" lon="0.81587">
        <ele>97.115778</ele>
        <time>2022-12-29T16:18:16.910Z</time>
      </trkpt>
      <trkpt lat="44.13754" lon="0.81579">
        <ele>97.42035</ele>
        <time>2022-12-29T16:18:21.912Z</time>
      </trkpt>
      <trkpt lat="44.13747" lon="0.81568">
        <ele>97.709776</ele>
        <time>2022-12-29T16:18:26.913Z</time>
      </trkpt>
      <trkpt lat="44.13741" lon="0.81557">
        <ele>97.994758</ele>
        <time>2022-12-29T16:18:31.911Z</time>
      </trkpt>
      <trkpt lat="44.13732" lon="0.81547">
        <ele>98.309236</ele>
        <time>2022-12-29T16:18:36.912Z</time>
      </trkpt>
      <trkpt lat="44.13721" lon="0.81547">
        <ele>98.62869</ele>
        <time>2022-12-29T16:18:40.912Z</time>
      </trkpt>
      <trkpt lat="44.13714" lon="0.81556">
        <ele>98.90617</ele>
        <time>2022-12-29T16:18:45.911Z</time>
      </trkpt>
      <trkpt lat="44.13713" lon="0.8157">
        <ele>99.190906</ele>
        <time>2022-12-29T16:18:51.910Z</time>
      </trkpt>
      <trkpt lat="44.13711" lon="0.81583">
        <ele>99.46244</ele>
        <time>2022-12-29T16:18:57.907Z</time>
      </trkpt>
      <trkpt lat="44.137" lon="0.81596">
        <ele>99.868178</ele>
        <time>2022-12-29T16:25:57.976Z</time>
      </trkpt>
      <trkpt lat="44.13692" lon="0.81604">
        <ele>100.14299</ele>
        <time>2022-12-29T16:26:01.907Z</time>
      </trkpt>
      <trkpt lat="44.13684" lon="0.81613">
        <ele>100.448174</ele>
        <time>2022-12-29T16:26:05.916Z</time>
      </trkpt>
      <trkpt lat="44.13676" lon="0.81622">
        <ele>100.592367</ele>
        <time>2022-12-29T16:26:08.916Z</time>
      </trkpt>
      <trkpt lat="44.1367" lon="0.8163">
        <ele>100.646478</ele>
        <time>2022-12-29T16:26:11.909Z</time>
      </trkpt>
      <trkpt lat="44.13661" lon="0.8164">
        <ele>100.712406</ele>
        <time>2022-12-29T16:26:14.911Z</time>
      </trkpt>
      <trkpt lat="44.13653" lon="0.81649">
        <ele>100.774949</ele>
        <time>2022-12-29T16:26:17.915Z</time>
      </trkpt>
      <trkpt lat="44.13645" lon="0.81659">
        <ele>100.83856</ele>
        <time>2022-12-29T16:26:20.912Z</time>
      </trkpt>
      <trkpt lat="44.13638" lon="0.81668">
        <ele>100.895002</ele>
        <time>2022-12-29T16:26:23.917Z</time>
      </trkpt>
      <trkpt lat="44.13631" lon="0.81676">
        <ele>100.949339</ele>
        <time>2022-12-29T16:26:26.917Z</time>
      </trkpt>
      <trkpt lat="44.13624" lon="0.81685">
        <ele>101.004507</ele>
        <time>2022-12-29T16:26:29.916Z</time>
      </trkpt>
      <trkpt lat="44.13616" lon="0.81694">
        <ele>101.067387</ele>
        <time>2022-12-29T16:26:32.920Z</time>
      </trkpt>
      <trkpt lat="44.13608" lon="0.81705">
        <ele>101.133029</ele>
        <time>2022-12-29T16:26:35.917Z</time>
      </trkpt>
      <trkpt lat="44.13599" lon="0.81715">
        <ele>101.204692</ele>
        <time>2022-12-29T16:26:38.917Z</time>
      </trkpt>
      <trkpt lat="44.1359" lon="0.81726">
        <ele>101.273782</ele>
        <time>2022-12-29T16:26:41.921Z</time>
      </trkpt>
      <trkpt lat="44.13581" lon="0.81736">
        <ele>101.344726</ele>
        <time>2022-12-29T16:26:44.912Z</time>
      </trkpt>
      <trkpt lat="44.13572" lon="0.81746">
        <ele>101.412169</ele>
        <time>2022-12-29T16:26:47.914Z</time>
      </trkpt>
      <trkpt lat="44.13563" lon="0.81757">
        <ele>101.483831</ele>
        <time>2022-12-29T16:26:50.913Z</time>
      </trkpt>
      <trkpt lat="44.13553" lon="0.81769">
        <ele>101.560167</ele>
        <time>2022-12-29T16:26:53.911Z</time>
      </trkpt>
      <trkpt lat="44.13544" lon="0.8178">
        <ele>101.631377</ele>
        <time>2022-12-29T16:26:56.918Z</time>
      </trkpt>
      <trkpt lat="44.13535" lon="0.81791">
        <ele>101.703655</ele>
        <time>2022-12-29T16:26:59.917Z</time>
      </trkpt>
      <trkpt lat="44.13525" lon="0.81802">
        <ele>101.778095</ele>
        <time>2022-12-29T16:27:02.911Z</time>
      </trkpt>
      <trkpt lat="44.13516" lon="0.81813">
        <ele>101.852417</ele>
        <time>2022-12-29T16:27:05.916Z</time>
      </trkpt>
      <trkpt lat="44.13506" lon="0.81825">
        <ele>101.929278</ele>
        <time>2022-12-29T16:27:08.916Z</time>
      </trkpt>
      <trkpt lat="44.13496" lon="0.81836">
        <ele>102.004803</ele>
        <time>2022-12-29T16:27:11.915Z</time>
      </trkpt>
      <trkpt lat="44.13487" lon="0.81848">
        <ele>102.076601</ele>
        <time>2022-12-29T16:27:14.915Z</time>
      </trkpt>
      <trkpt lat="44.13477" lon="0.81859">
        <ele>102.15203</ele>
        <time>2022-12-29T16:27:17.917Z</time>
      </trkpt>
      <trkpt lat="44.13467" lon="0.8187">
        <ele>102.225899</ele>
        <time>2022-12-29T16:27:20.917Z</time>
      </trkpt>
      <trkpt lat="44.13457" lon="0.81882">
        <ele>102.302591</ele>
        <time>2022-12-29T16:27:23.915Z</time>
      </trkpt>
      <trkpt lat="44.13448" lon="0.81894">
        <ele>102.378532</ele>
        <time>2022-12-29T16:27:26.916Z</time>
      </trkpt>
      <trkpt lat="44.13439" lon="0.81907">
        <ele>102.45389</ele>
        <time>2022-12-29T16:27:29.916Z</time>
      </trkpt>
      <trkpt lat="44.13431" lon="0.8192">
        <ele>102.529462</ele>
        <time>2022-12-29T16:27:32.916Z</time>
      </trkpt>
      <trkpt lat="44.13425" lon="0.81931">
        <ele>102.586957</ele>
        <time>2022-12-29T16:27:34.912Z</time>
      </trkpt>
      <trkpt lat="44.13419" lon="0.8194">
        <ele>102.640616</ele>
        <time>2022-12-29T16:27:36.909Z</time>
      </trkpt>
      <trkpt lat="44.1341" lon="0.81954">
        <ele>102.732639</ele>
        <time>2022-12-29T16:27:39.914Z</time>
      </trkpt>
      <trkpt lat="44.13402" lon="0.81967">
        <ele>102.875046</ele>
        <time>2022-12-29T16:27:42.916Z</time>
      </trkpt>
      <trkpt lat="44.13396" lon="0.81978">
        <ele>102.978059</ele>
        <time>2022-12-29T16:27:44.909Z</time>
      </trkpt>
      <trkpt lat="44.13388" lon="0.81991">
        <ele>103.115604</ele>
        <time>2022-12-29T16:27:47.916Z</time>
      </trkpt>
      <trkpt lat="44.13381" lon="0.82004">
        <ele>103.245173</ele>
        <time>2022-12-29T16:27:50.914Z</time>
      </trkpt>
      <trkpt lat="44.13376" lon="0.82016">
        <ele>103.347265</ele>
        <time>2022-12-29T16:27:52.915Z</time>
      </trkpt>
      <trkpt lat="44.1337" lon="0.82026">
        <ele>103.447618</ele>
        <time>2022-12-29T16:27:54.916Z</time>
      </trkpt>
      <trkpt lat="44.13363" lon="0.82041">
        <ele>103.588133</ele>
        <time>2022-12-29T16:27:57.918Z</time>
      </trkpt>
      <trkpt lat="44.13359" lon="0.82052">
        <ele>103.689432</ele>
        <time>2022-12-29T16:27:59.917Z</time>
      </trkpt>
      <trkpt lat="44.13354" lon="0.82064">
        <ele>103.795998</ele>
        <time>2022-12-29T16:28:01.916Z</time>
      </trkpt>
      <trkpt lat="44.13349" lon="0.82076">
        <ele>103.900637</ele>
        <time>2022-12-29T16:28:03.917Z</time>
      </trkpt>
      <trkpt lat="44.13344" lon="0.82087">
        <ele>104.00432</ele>
        <time>2022-12-29T16:28:05.917Z</time>
      </trkpt>
      <trkpt lat="44.1334" lon="0.82098">
        <ele>104.102758</ele>
        <time>2022-12-29T16:28:07.915Z</time>
      </trkpt>
      <trkpt lat="44.13334" lon="0.82113">
        <ele>104.232677</ele>
        <time>2022-12-29T16:28:10.915Z</time>
      </trkpt>
      <trkpt lat="44.13328" lon="0.82127">
        <ele>104.365173</ele>
        <time>2022-12-29T16:28:13.912Z</time>
      </trkpt>
      <trkpt lat="44.13323" lon="0.82141">
        <ele>104.48512</ele>
        <time>2022-12-29T16:28:16.918Z</time>
      </trkpt>
      <trkpt lat="44.13317" lon="0.82156">
        <ele>104.620568</ele>
        <time>2022-12-29T16:28:19.919Z</time>
      </trkpt>
      <trkpt lat="44.13311" lon="0.82169">
        <ele>104.642033</ele>
        <time>2022-12-29T16:28:22.913Z</time>
      </trkpt>
      <trkpt lat="44.13306" lon="0.82181">
        <ele>104.625111</ele>
        <time>2022-12-29T16:28:25.918Z</time>
      </trkpt>
      <trkpt lat="44.13301" lon="0.82193">
        <ele>104.609915</ele>
        <time>2022-12-29T16:28:28.910Z</time>
      </trkpt>
      <trkpt lat="44.13296" lon="0.82207">
        <ele>104.591146</ele>
        <time>2022-12-29T16:28:32.917Z</time>
      </trkpt>
      <trkpt lat="44.13294" lon="0.8222">
        <ele>104.576259</ele>
        <time>2022-12-29T16:28:35.907Z</time>
      </trkpt>
      <trkpt lat="44.13291" lon="0.82235">
        <ele>104.558417</ele>
        <time>2022-12-29T16:28:38.913Z</time>
      </trkpt>
      <trkpt lat="44.13292" lon="0.82249">
        <ele>104.542414</ele>
        <time>2022-12-29T16:28:42.917Z</time>
      </trkpt>
      <trkpt lat="44.13287" lon="0.82261">
        <ele>104.526635</ele>
        <time>2022-12-29T16:28:46.914Z</time>
      </trkpt>
      <trkpt lat="44.13278" lon="0.82269">
        <ele>104.508453</ele>
        <time>2022-12-29T16:28:50.916Z</time>
      </trkpt>
      <trkpt lat="44.1327" lon="0.82277">
        <ele>104.493323</ele>
        <time>2022-12-29T16:28:53.914Z</time>
      </trkpt>
      <trkpt lat="44.13262" lon="0.82287">
        <ele>104.475651</ele>
        <time>2022-12-29T16:28:57.919Z</time>
      </trkpt>
      <trkpt lat="44.13254" lon="0.82295">
        <ele>104.459577</ele>
        <time>2022-12-29T16:29:01.914Z</time>
      </trkpt>
      <trkpt lat="44.13247" lon="0.82303">
        <ele>104.444959</ele>
        <time>2022-12-29T16:29:05.918Z</time>
      </trkpt>
      <trkpt lat="44.1324" lon="0.82313">
        <ele>104.428978</ele>
        <time>2022-12-29T16:29:09.916Z</time>
      </trkpt>
      <trkpt lat="44.13232" lon="0.82321">
        <ele>104.412563</ele>
        <time>2022-12-29T16:29:13.917Z</time>
      </trkpt>
      <trkpt lat="44.13226" lon="0.82332">
        <ele>104.396879</ele>
        <time>2022-12-29T16:29:30.917Z</time>
      </trkpt>
      <trkpt lat="44.13219" lon="0.82345">
        <ele>104.378846</ele>
        <time>2022-12-29T16:29:35.917Z</time>
      </trkpt>
      <trkpt lat="44.13213" lon="0.82359">
        <ele>104.383697</ele>
        <time>2022-12-29T16:29:39.916Z</time>
      </trkpt>
      <trkpt lat="44.13208" lon="0.82373">
        <ele>104.449234</ele>
        <time>2022-12-29T16:29:42.916Z</time>
      </trkpt>
      <trkpt lat="44.13202" lon="0.82387">
        <ele>104.517906</ele>
        <time>2022-12-29T16:29:45.917Z</time>
      </trkpt>
      <trkpt lat="44.13198" lon="0.82399">
        <ele>104.579848</ele>
        <time>2022-12-29T16:29:48.915Z</time>
      </trkpt>
      <trkpt lat="44.13192" lon="0.82414">
        <ele>104.648801</ele>
        <time>2022-12-29T16:29:51.919Z</time>
      </trkpt>
      <trkpt lat="44.13186" lon="0.82429">
        <ele>104.725149</ele>
        <time>2022-12-29T16:29:54.916Z</time>
      </trkpt>
      <trkpt lat="44.1318" lon="0.82445">
        <ele>104.800639</ele>
        <time>2022-12-29T16:29:57.917Z</time>
      </trkpt>
      <trkpt lat="44.13174" lon="0.82459">
        <ele>104.871463</ele>
        <time>2022-12-29T16:30:00.917Z</time>
      </trkpt>
      <trkpt lat="44.13168" lon="0.82474">
        <ele>104.945965</ele>
        <time>2022-12-29T16:30:03.914Z</time>
      </trkpt>
      <trkpt lat="44.13162" lon="0.82489">
        <ele>105.020239</ele>
        <time>2022-12-29T16:30:06.919Z</time>
      </trkpt>
      <trkpt lat="44.13156" lon="0.82503">
        <ele>105.091478</ele>
        <time>2022-12-29T16:30:09.914Z</time>
      </trkpt>
      <trkpt lat="44.13149" lon="0.82519">
        <ele>105.172573</ele>
        <time>2022-12-29T16:30:12.906Z</time>
      </trkpt>
      <trkpt lat="44.13144" lon="0.8253">
        <ele>105.229451</ele>
        <time>2022-12-29T16:30:14.910Z</time>
      </trkpt>
      <trkpt lat="44.1314" lon="0.82542">
        <ele>105.284894</ele>
        <time>2022-12-29T16:30:16.918Z</time>
      </trkpt>
      <trkpt lat="44.13136" lon="0.82558">
        <ele>105.357028</ele>
        <time>2022-12-29T16:30:19.908Z</time>
      </trkpt>
      <trkpt lat="44.13134" lon="0.82573">
        <ele>105.425471</ele>
        <time>2022-12-29T16:30:22.909Z</time>
      </trkpt>
      <trkpt lat="44.13132" lon="0.82591">
        <ele>105.468643</ele>
        <time>2022-12-29T16:30:25.913Z</time>
      </trkpt>
      <trkpt lat="44.13127" lon="0.82608">
        <ele>105.50219</ele>
        <time>2022-12-29T16:30:28.910Z</time>
      </trkpt>
      <trkpt lat="44.13122" lon="0.82624">
        <ele>105.534724</ele>
        <time>2022-12-29T16:30:31.916Z</time>
      </trkpt>
      <trkpt lat="44.13115" lon="0.8264">
        <ele>105.568692</ele>
        <time>2022-12-29T16:30:34.908Z</time>
      </trkpt>
      <trkpt lat="44.13109" lon="0.82655">
        <ele>105.60164</ele>
        <time>2022-12-29T16:30:37.911Z</time>
      </trkpt>
      <trkpt lat="44.13104" lon="0.82667">
        <ele>105.625057</ele>
        <time>2022-12-29T16:30:39.915Z</time>
      </trkpt>
      <trkpt lat="44.131" lon="0.82678">
        <ele>105.649117</ele>
        <time>2022-12-29T16:30:41.914Z</time>
      </trkpt>
      <trkpt lat="44.13094" lon="0.82689">
        <ele>105.674968</ele>
        <time>2022-12-29T16:30:43.909Z</time>
      </trkpt>
      <trkpt lat="44.13089" lon="0.827">
        <ele>105.698641</ele>
        <time>2022-12-29T16:30:45.922Z</time>
      </trkpt>
      <trkpt lat="44.13082" lon="0.82716">
        <ele>105.732222</ele>
        <time>2022-12-29T16:30:48.916Z</time>
      </trkpt>
      <trkpt lat="44.13076" lon="0.82732">
        <ele>105.766512</ele>
        <time>2022-12-29T16:30:51.913Z</time>
      </trkpt>
      <trkpt lat="44.13069" lon="0.82749">
        <ele>105.801247</ele>
        <time>2022-12-29T16:30:54.907Z</time>
      </trkpt>
      <trkpt lat="44.13064" lon="0.82759">
        <ele>105.824218</ele>
        <time>2022-12-29T16:30:56.911Z</time>
      </trkpt>
      <trkpt lat="44.13059" lon="0.82771">
        <ele>105.84903</ele>
        <time>2022-12-29T16:30:58.911Z</time>
      </trkpt>
      <trkpt lat="44.13054" lon="0.82782">
        <ele>105.872345</ele>
        <time>2022-12-29T16:31:00.912Z</time>
      </trkpt>
      <trkpt lat="44.13048" lon="0.82797">
        <ele>105.902683</ele>
        <time>2022-12-29T16:31:03.921Z</time>
      </trkpt>
      <trkpt lat="44.13043" lon="0.82809">
        <ele>105.877286</ele>
        <time>2022-12-29T16:31:05.912Z</time>
      </trkpt>
      <trkpt lat="44.13038" lon="0.82822">
        <ele>105.850722</ele>
        <time>2022-12-29T16:31:07.921Z</time>
      </trkpt>
      <trkpt lat="44.13034" lon="0.82833">
        <ele>105.825704</ele>
        <time>2022-12-29T16:31:09.919Z</time>
      </trkpt>
      <trkpt lat="44.1303" lon="0.82845">
        <ele>105.801313</ele>
        <time>2022-12-29T16:31:11.920Z</time>
      </trkpt>
      <trkpt lat="44.13025" lon="0.82855">
        <ele>105.777322</ele>
        <time>2022-12-29T16:31:13.914Z</time>
      </trkpt>
      <trkpt lat="44.1302" lon="0.82867">
        <ele>105.752638</ele>
        <time>2022-12-29T16:31:15.919Z</time>
      </trkpt>
      <trkpt lat="44.13016" lon="0.82879">
        <ele>105.727071</ele>
        <time>2022-12-29T16:31:17.913Z</time>
      </trkpt>
      <trkpt lat="44.13011" lon="0.8289">
        <ele>105.702346</ele>
        <time>2022-12-29T16:31:19.910Z</time>
      </trkpt>
      <trkpt lat="44.13005" lon="0.82905">
        <ele>105.669808</ele>
        <time>2022-12-29T16:31:22.914Z</time>
      </trkpt>
      <trkpt lat="44.12999" lon="0.82919">
        <ele>105.639058</ele>
        <time>2022-12-29T16:31:25.911Z</time>
      </trkpt>
      <trkpt lat="44.12993" lon="0.82934">
        <ele>105.606574</ele>
        <time>2022-12-29T16:31:28.914Z</time>
      </trkpt>
      <trkpt lat="44.12988" lon="0.82945">
        <ele>105.582171</ele>
        <time>2022-12-29T16:31:30.913Z</time>
      </trkpt>
      <trkpt lat="44.12984" lon="0.82956">
        <ele>105.557358</ele>
        <time>2022-12-29T16:31:32.908Z</time>
      </trkpt>
      <trkpt lat="44.12978" lon="0.82967">
        <ele>105.532512</ele>
        <time>2022-12-29T16:31:34.912Z</time>
      </trkpt>
      <trkpt lat="44.12974" lon="0.82978">
        <ele>105.507138</ele>
        <time>2022-12-29T16:31:36.912Z</time>
      </trkpt>
      <trkpt lat="44.12969" lon="0.8299">
        <ele>105.482112</ele>
        <time>2022-12-29T16:31:38.916Z</time>
      </trkpt>
      <trkpt lat="44.12964" lon="0.83001">
        <ele>105.458258</ele>
        <time>2022-12-29T16:31:40.908Z</time>
      </trkpt>
      <trkpt lat="44.12957" lon="0.83016">
        <ele>105.448408</ele>
        <time>2022-12-29T16:31:43.914Z</time>
      </trkpt>
      <trkpt lat="44.12953" lon="0.83027">
        <ele>105.527027</ele>
        <time>2022-12-29T16:31:45.915Z</time>
      </trkpt>
      <trkpt lat="44.12947" lon="0.83042">
        <ele>105.629852</ele>
        <time>2022-12-29T16:31:48.909Z</time>
      </trkpt>
      <trkpt lat="44.1294" lon="0.83056">
        <ele>105.73347</ele>
        <time>2022-12-29T16:31:51.922Z</time>
      </trkpt>
      <trkpt lat="44.12934" lon="0.83073">
        <ele>105.853656</ele>
        <time>2022-12-29T16:31:54.908Z</time>
      </trkpt>
      <trkpt lat="44.12929" lon="0.83084">
        <ele>105.931055</ele>
        <time>2022-12-29T16:31:56.918Z</time>
      </trkpt>
      <trkpt lat="44.12924" lon="0.83095">
        <ele>106.010859</ele>
        <time>2022-12-29T16:31:58.909Z</time>
      </trkpt>
      <trkpt lat="44.12919" lon="0.83106">
        <ele>106.090225</ele>
        <time>2022-12-29T16:32:00.912Z</time>
      </trkpt>
      <trkpt lat="44.12915" lon="0.83117">
        <ele>106.169074</ele>
        <time>2022-12-29T16:32:02.914Z</time>
      </trkpt>
      <trkpt lat="44.1291" lon="0.83128">
        <ele>106.249631</ele>
        <time>2022-12-29T16:32:04.912Z</time>
      </trkpt>
      <trkpt lat="44.12903" lon="0.83145">
        <ele>106.366934</ele>
        <time>2022-12-29T16:32:07.915Z</time>
      </trkpt>
      <trkpt lat="44.12899" lon="0.83156">
        <ele>106.446869</ele>
        <time>2022-12-29T16:32:09.916Z</time>
      </trkpt>
      <trkpt lat="44.12894" lon="0.83168">
        <ele>106.530085</ele>
        <time>2022-12-29T16:32:11.916Z</time>
      </trkpt>
      <trkpt lat="44.1289" lon="0.83179">
        <ele>106.60989</ele>
        <time>2022-12-29T16:32:13.916Z</time>
      </trkpt>
      <trkpt lat="44.12885" lon="0.83191">
        <ele>106.69151</ele>
        <time>2022-12-29T16:32:15.914Z</time>
      </trkpt>
      <trkpt lat="44.1288" lon="0.83202">
        <ele>106.772397</ele>
        <time>2022-12-29T16:32:17.915Z</time>
      </trkpt>
      <trkpt lat="44.12874" lon="0.83218">
        <ele>106.885639</ele>
        <time>2022-12-29T16:32:20.915Z</time>
      </trkpt>
      <trkpt lat="44.12868" lon="0.83233">
        <ele>106.958381</ele>
        <time>2022-12-29T16:32:23.916Z</time>
      </trkpt>
      <trkpt lat="44.12862" lon="0.83246">
        <ele>106.859151</ele>
        <time>2022-12-29T16:32:26.909Z</time>
      </trkpt>
      <trkpt lat="44.12857" lon="0.8326">
        <ele>106.757288</ele>
        <time>2022-12-29T16:32:29.911Z</time>
      </trkpt>
      <trkpt lat="44.12851" lon="0.83273">
        <ele>106.65259</ele>
        <time>2022-12-29T16:32:32.915Z</time>
      </trkpt>
      <trkpt lat="44.12845" lon="0.83287">
        <ele>106.546294</ele>
        <time>2022-12-29T16:32:35.911Z</time>
      </trkpt>
      <trkpt lat="44.12839" lon="0.83302">
        <ele>106.436099</ele>
        <time>2022-12-29T16:32:38.911Z</time>
      </trkpt>
      <trkpt lat="44.12833" lon="0.83315">
        <ele>106.332638</ele>
        <time>2022-12-29T16:32:41.920Z</time>
      </trkpt>
      <trkpt lat="44.12828" lon="0.83327">
        <ele>106.238768</ele>
        <time>2022-12-29T16:32:44.911Z</time>
      </trkpt>
      <trkpt lat="44.12822" lon="0.8334">
        <ele>106.140455</ele>
        <time>2022-12-29T16:32:49.915Z</time>
      </trkpt>
      <trkpt lat="44.12819" lon="0.83353">
        <ele>106.051887</ele>
        <time>2022-12-29T16:32:53.921Z</time>
      </trkpt>
      <trkpt lat="44.12815" lon="0.83366">
        <ele>105.960259</ele>
        <time>2022-12-29T16:32:56.912Z</time>
      </trkpt>
      <trkpt lat="44.1281" lon="0.83383">
        <ele>105.839098</ele>
        <time>2022-12-29T16:32:59.917Z</time>
      </trkpt>
      <trkpt lat="44.12805" lon="0.83399">
        <ele>105.721801</ele>
        <time>2022-12-29T16:33:02.910Z</time>
      </trkpt>
      <trkpt lat="44.12799" lon="0.83414">
        <ele>105.613212</ele>
        <time>2022-12-29T16:33:05.915Z</time>
      </trkpt>
      <trkpt lat="44.12794" lon="0.83427">
        <ele>105.513474</ele>
        <time>2022-12-29T16:33:08.914Z</time>
      </trkpt>
      <trkpt lat="44.12789" lon="0.8344">
        <ele>105.417061</ele>
        <time>2022-12-29T16:33:11.908Z</time>
      </trkpt>
      <trkpt lat="44.12783" lon="0.83453">
        <ele>105.329776</ele>
        <time>2022-12-29T16:33:14.915Z</time>
      </trkpt>
      <trkpt lat="44.12778" lon="0.83468">
        <ele>105.337469</ele>
        <time>2022-12-29T16:33:17.924Z</time>
      </trkpt>
      <trkpt lat="44.12772" lon="0.83482">
        <ele>105.344904</ele>
        <time>2022-12-29T16:33:20.909Z</time>
      </trkpt>
      <trkpt lat="44.12766" lon="0.83497">
        <ele>105.352649</ele>
        <time>2022-12-29T16:33:23.913Z</time>
      </trkpt>
      <trkpt lat="44.1276" lon="0.83512">
        <ele>105.360783</ele>
        <time>2022-12-29T16:33:26.911Z</time>
      </trkpt>
      <trkpt lat="44.12755" lon="0.83524">
        <ele>105.366869</ele>
        <time>2022-12-29T16:33:28.911Z</time>
      </trkpt>
      <trkpt lat="44.12748" lon="0.83539">
        <ele>105.374959</ele>
        <time>2022-12-29T16:33:31.915Z</time>
      </trkpt>
      <trkpt lat="44.12741" lon="0.83555">
        <ele>105.383523</ele>
        <time>2022-12-29T16:33:34.913Z</time>
      </trkpt>
      <trkpt lat="44.12736" lon="0.83566">
        <ele>105.389568</ele>
        <time>2022-12-29T16:33:36.921Z</time>
      </trkpt>
      <trkpt lat="44.12732" lon="0.83577">
        <ele>105.395452</ele>
        <time>2022-12-29T16:33:38.919Z</time>
      </trkpt>
      <trkpt lat="44.12727" lon="0.83589">
        <ele>105.401767</ele>
        <time>2022-12-29T16:33:40.908Z</time>
      </trkpt>
      <trkpt lat="44.12722" lon="0.836">
        <ele>105.407714</ele>
        <time>2022-12-29T16:33:42.912Z</time>
      </trkpt>
      <trkpt lat="44.12715" lon="0.83617">
        <ele>105.416318</ele>
        <time>2022-12-29T16:33:45.915Z</time>
      </trkpt>
      <trkpt lat="44.1271" lon="0.83629">
        <ele>105.422607</ele>
        <time>2022-12-29T16:33:47.910Z</time>
      </trkpt>
      <trkpt lat="44.12706" lon="0.8364">
        <ele>105.428745</ele>
        <time>2022-12-29T16:33:49.910Z</time>
      </trkpt>
      <trkpt lat="44.12701" lon="0.83651">
        <ele>105.434609</ele>
        <time>2022-12-29T16:33:51.911Z</time>
      </trkpt>
      <trkpt lat="44.12696" lon="0.83663">
        <ele>105.440694</ele>
        <time>2022-12-29T16:33:53.912Z</time>
      </trkpt>
      <trkpt lat="44.1269" lon="0.83679">
        <ele>105.520224</ele>
        <time>2022-12-29T16:33:56.917Z</time>
      </trkpt>
      <trkpt lat="44.12685" lon="0.8369">
        <ele>105.600777</ele>
        <time>2022-12-29T16:33:58.916Z</time>
      </trkpt>
      <trkpt lat="44.1268" lon="0.83702">
        <ele>105.68251</ele>
        <time>2022-12-29T16:34:00.917Z</time>
      </trkpt>
      <trkpt lat="44.12674" lon="0.83718">
        <ele>105.792322</ele>
        <time>2022-12-29T16:34:03.916Z</time>
      </trkpt>
      <trkpt lat="44.12668" lon="0.83733">
        <ele>105.89649</ele>
        <time>2022-12-29T16:34:06.911Z</time>
      </trkpt>
      <trkpt lat="44.12662" lon="0.83748">
        <ele>106.004813</ele>
        <time>2022-12-29T16:34:09.912Z</time>
      </trkpt>
      <trkpt lat="44.12657" lon="0.83759">
        <ele>106.084757</ele>
        <time>2022-12-29T16:34:11.912Z</time>
      </trkpt>
      <trkpt lat="44.12652" lon="0.83771">
        <ele>106.167859</ele>
        <time>2022-12-29T16:34:13.908Z</time>
      </trkpt>
      <trkpt lat="44.12647" lon="0.83782">
        <ele>106.250534</ele>
        <time>2022-12-29T16:34:15.912Z</time>
      </trkpt>
      <trkpt lat="44.12643" lon="0.83794">
        <ele>106.331301</ele>
        <time>2022-12-29T16:34:17.917Z</time>
      </trkpt>
      <trkpt lat="44.12638" lon="0.83805">
        <ele>106.411177</ele>
        <time>2022-12-29T16:34:19.916Z</time>
      </trkpt>
      <trkpt lat="44.12633" lon="0.83816">
        <ele>106.489506</ele>
        <time>2022-12-29T16:34:21.920Z</time>
      </trkpt>
      <trkpt lat="44.12628" lon="0.83828">
        <ele>106.572436</ele>
        <time>2022-12-29T16:34:23.911Z</time>
      </trkpt>
      <trkpt lat="44.12623" lon="0.83839">
        <ele>106.650971</ele>
        <time>2022-12-29T16:34:25.914Z</time>
      </trkpt>
      <trkpt lat="44.12619" lon="0.83849">
        <ele>106.727488</ele>
        <time>2022-12-29T16:34:27.913Z</time>
      </trkpt>
      <trkpt lat="44.12613" lon="0.83865">
        <ele>106.835812</ele>
        <time>2022-12-29T16:34:30.914Z</time>
      </trkpt>
      <trkpt lat="44.12607" lon="0.83879">
        <ele>106.932914</ele>
        <time>2022-12-29T16:34:33.910Z</time>
      </trkpt>
      <trkpt lat="44.12602" lon="0.8389">
        <ele>107.017285</ele>
        <time>2022-12-29T16:34:36.918Z</time>
      </trkpt>
      <trkpt lat="44.12596" lon="0.83903">
        <ele>107.118049</ele>
        <time>2022-12-29T16:34:39.916Z</time>
      </trkpt>
      <trkpt lat="44.1259" lon="0.83917">
        <ele>107.221818</ele>
        <time>2022-12-29T16:34:42.917Z</time>
      </trkpt>
      <trkpt lat="44.12584" lon="0.83932">
        <ele>107.334213</ele>
        <time>2022-12-29T16:34:45.913Z</time>
      </trkpt>
      <trkpt lat="44.12577" lon="0.83947">
        <ele>107.451097</ele>
        <time>2022-12-29T16:34:48.913Z</time>
      </trkpt>
      <trkpt lat="44.12571" lon="0.83962">
        <ele>107.566749</ele>
        <time>2022-12-29T16:34:51.913Z</time>
      </trkpt>
      <trkpt lat="44.12564" lon="0.83978">
        <ele>107.683983</ele>
        <time>2022-12-29T16:34:54.912Z</time>
      </trkpt>
      <trkpt lat="44.1256" lon="0.8399">
        <ele>107.773566</ele>
        <time>2022-12-29T16:34:56.915Z</time>
      </trkpt>
      <trkpt lat="44.12556" lon="0.84002">
        <ele>107.858454</ele>
        <time>2022-12-29T16:34:58.908Z</time>
      </trkpt>
      <trkpt lat="44.12552" lon="0.84014">
        <ele>107.942389</ele>
        <time>2022-12-29T16:35:00.917Z</time>
      </trkpt>
      <trkpt lat="44.12547" lon="0.84025">
        <ele>108.029606</ele>
        <time>2022-12-29T16:35:02.913Z</time>
      </trkpt>
      <trkpt lat="44.12542" lon="0.84035">
        <ele>108.110991</ele>
        <time>2022-12-29T16:35:04.907Z</time>
      </trkpt>
      <trkpt lat="44.12537" lon="0.84046">
        <ele>108.193149</ele>
        <time>2022-12-29T16:35:06.915Z</time>
      </trkpt>
      <trkpt lat="44.12532" lon="0.84057">
        <ele>108.277446</ele>
        <time>2022-12-29T16:35:08.915Z</time>
      </trkpt>
      <trkpt lat="44.12526" lon="0.84074">
        <ele>108.400453</ele>
        <time>2022-12-29T16:35:11.910Z</time>
      </trkpt>
      <trkpt lat="44.12521" lon="0.84085">
        <ele>108.485524</ele>
        <time>2022-12-29T16:35:13.909Z</time>
      </trkpt>
      <trkpt lat="44.12517" lon="0.84097">
        <ele>108.571871</ele>
        <time>2022-12-29T16:35:15.909Z</time>
      </trkpt>
      <trkpt lat="44.12512" lon="0.84108">
        <ele>108.569559</ele>
        <time>2022-12-29T16:35:17.910Z</time>
      </trkpt>
      <trkpt lat="44.12507" lon="0.8412">
        <ele>108.492807</ele>
        <time>2022-12-29T16:35:19.913Z</time>
      </trkpt>
      <trkpt lat="44.125" lon="0.84135">
        <ele>108.389095</ele>
        <time>2022-12-29T16:35:22.914Z</time>
      </trkpt>
      <trkpt lat="44.12494" lon="0.8415">
        <ele>108.284309</ele>
        <time>2022-12-29T16:35:25.914Z</time>
      </trkpt>
      <trkpt lat="44.12488" lon="0.84161">
        <ele>108.209983</ele>
        <time>2022-12-29T16:35:27.910Z</time>
      </trkpt>
      <trkpt lat="44.12481" lon="0.84176">
        <ele>108.103703</ele>
        <time>2022-12-29T16:35:30.915Z</time>
      </trkpt>
      <trkpt lat="44.12473" lon="0.84192">
        <ele>107.996509</ele>
        <time>2022-12-29T16:35:33.911Z</time>
      </trkpt>
      <trkpt lat="44.12465" lon="0.84206">
        <ele>107.887951</ele>
        <time>2022-12-29T16:35:36.909Z</time>
      </trkpt>
      <trkpt lat="44.12457" lon="0.84221">
        <ele>107.783531</ele>
        <time>2022-12-29T16:35:39.913Z</time>
      </trkpt>
      <trkpt lat="44.12449" lon="0.84235">
        <ele>107.678616</ele>
        <time>2022-12-29T16:35:42.910Z</time>
      </trkpt>
      <trkpt lat="44.12442" lon="0.84248">
        <ele>107.581013</ele>
        <time>2022-12-29T16:35:45.910Z</time>
      </trkpt>
      <trkpt lat="44.12433" lon="0.84261">
        <ele>107.480107</ele>
        <time>2022-12-29T16:35:48.917Z</time>
      </trkpt>
      <trkpt lat="44.12424" lon="0.84273">
        <ele>107.379449</ele>
        <time>2022-12-29T16:35:51.915Z</time>
      </trkpt>
      <trkpt lat="44.12415" lon="0.84284">
        <ele>107.282762</ele>
        <time>2022-12-29T16:35:54.908Z</time>
      </trkpt>
      <trkpt lat="44.12406" lon="0.84296">
        <ele>107.178993</ele>
        <time>2022-12-29T16:35:57.915Z</time>
      </trkpt>
      <trkpt lat="44.12396" lon="0.84308">
        <ele>106.946143</ele>
        <time>2022-12-29T16:36:00.911Z</time>
      </trkpt>
      <trkpt lat="44.12388" lon="0.84317">
        <ele>106.75139</ele>
        <time>2022-12-29T16:36:02.909Z</time>
      </trkpt>
      <trkpt lat="44.12381" lon="0.84326">
        <ele>106.565301</ele>
        <time>2022-12-29T16:36:04.910Z</time>
      </trkpt>
      <trkpt lat="44.12373" lon="0.84334">
        <ele>106.369708</ele>
        <time>2022-12-29T16:36:06.913Z</time>
      </trkpt>
      <trkpt lat="44.12363" lon="0.84346">
        <ele>106.115321</ele>
        <time>2022-12-29T16:36:09.910Z</time>
      </trkpt>
      <trkpt lat="44.12356" lon="0.84355">
        <ele>105.92021</ele>
        <time>2022-12-29T16:36:11.923Z</time>
      </trkpt>
      <trkpt lat="44.12348" lon="0.84363">
        <ele>105.739729</ele>
        <time>2022-12-29T16:36:13.915Z</time>
      </trkpt>
      <trkpt lat="44.12341" lon="0.84372">
        <ele>105.554694</ele>
        <time>2022-12-29T16:36:15.915Z</time>
      </trkpt>
      <trkpt lat="44.12334" lon="0.84382">
        <ele>105.362303</ele>
        <time>2022-12-29T16:36:17.915Z</time>
      </trkpt>
      <trkpt lat="44.12327" lon="0.8439">
        <ele>105.183126</ele>
        <time>2022-12-29T16:36:19.910Z</time>
      </trkpt>
      <trkpt lat="44.1232" lon="0.84398">
        <ele>105.000243</ele>
        <time>2022-12-29T16:36:21.910Z</time>
      </trkpt>
      <trkpt lat="44.12312" lon="0.84408">
        <ele>104.783217</ele>
        <time>2022-12-29T16:36:23.911Z</time>
      </trkpt>
      <trkpt lat="44.12305" lon="0.84417">
        <ele>104.596734</ele>
        <time>2022-12-29T16:36:25.913Z</time>
      </trkpt>
      <trkpt lat="44.12297" lon="0.84426">
        <ele>104.411871</ele>
        <time>2022-12-29T16:36:27.914Z</time>
      </trkpt>
      <trkpt lat="44.12288" lon="0.84435">
        <ele>104.191241</ele>
        <time>2022-12-29T16:36:30.914Z</time>
      </trkpt>
      <trkpt lat="44.12281" lon="0.84444">
        <ele>104.00575</ele>
        <time>2022-12-29T16:36:33.917Z</time>
      </trkpt>
      <trkpt lat="44.12272" lon="0.84454">
        <ele>103.777916</ele>
        <time>2022-12-29T16:36:36.911Z</time>
      </trkpt>
      <trkpt lat="44.12261" lon="0.84465">
        <ele>103.680633</ele>
        <time>2022-12-29T16:36:39.911Z</time>
      </trkpt>
      <trkpt lat="44.12251" lon="0.84477">
        <ele>103.743498</ele>
        <time>2022-12-29T16:36:42.911Z</time>
      </trkpt>
      <trkpt lat="44.12243" lon="0.84487">
        <ele>103.796698</ele>
        <time>2022-12-29T16:36:45.915Z</time>
      </trkpt>
      <trkpt lat="44.12234" lon="0.84497">
        <ele>103.848734</ele>
        <time>2022-12-29T16:36:48.915Z</time>
      </trkpt>
      <trkpt lat="44.12226" lon="0.84506">
        <ele>103.897578</ele>
        <time>2022-12-29T16:36:51.916Z</time>
      </trkpt>
      <trkpt lat="44.12219" lon="0.84515">
        <ele>103.945398</ele>
        <time>2022-12-29T16:36:54.911Z</time>
      </trkpt>
      <trkpt lat="44.12211" lon="0.84524">
        <ele>103.993363</ele>
        <time>2022-12-29T16:36:57.919Z</time>
      </trkpt>
      <trkpt lat="44.12203" lon="0.84533">
        <ele>104.042061</ele>
        <time>2022-12-29T16:37:00.911Z</time>
      </trkpt>
      <trkpt lat="44.12196" lon="0.84542">
        <ele>104.085908</ele>
        <time>2022-12-29T16:37:03.917Z</time>
      </trkpt>
      <trkpt lat="44.12188" lon="0.84554">
        <ele>104.141085</ele>
        <time>2022-12-29T16:37:07.918Z</time>
      </trkpt>
      <trkpt lat="44.12182" lon="0.84564">
        <ele>104.184615</ele>
        <time>2022-12-29T16:37:11.916Z</time>
      </trkpt>
      <trkpt lat="44.12174" lon="0.84574">
        <ele>104.236325</ele>
        <time>2022-12-29T16:37:14.909Z</time>
      </trkpt>
      <trkpt lat="44.12165" lon="0.84585">
        <ele>104.293755</ele>
        <time>2022-12-29T16:37:17.917Z</time>
      </trkpt>
      <trkpt lat="44.12156" lon="0.84595">
        <ele>104.349789</ele>
        <time>2022-12-29T16:37:20.914Z</time>
      </trkpt>
      <trkpt lat="44.12148" lon="0.84608">
        <ele>104.404805</ele>
        <time>2022-12-29T16:37:23.913Z</time>
      </trkpt>
      <trkpt lat="44.12142" lon="0.84621">
        <ele>104.458693</ele>
        <time>2022-12-29T16:37:27.913Z</time>
      </trkpt>
      <trkpt lat="44.12134" lon="0.84632">
        <ele>104.501657</ele>
        <time>2022-12-29T16:37:31.911Z</time>
      </trkpt>
      <trkpt lat="44.12127" lon="0.8464">
        <ele>104.50546</ele>
        <time>2022-12-29T16:37:34.914Z</time>
      </trkpt>
      <trkpt lat="44.12119" lon="0.84648">
        <ele>104.509554</ele>
        <time>2022-12-29T16:37:37.914Z</time>
      </trkpt>
      <trkpt lat="44.12109" lon="0.84654">
        <ele>104.514319</ele>
        <time>2022-12-29T16:37:40.910Z</time>
      </trkpt>
      <trkpt lat="44.12098" lon="0.8466">
        <ele>104.51933</ele>
        <time>2022-12-29T16:37:43.920Z</time>
      </trkpt>
      <trkpt lat="44.12088" lon="0.84668">
        <ele>104.523859</ele>
        <time>2022-12-29T16:37:46.914Z</time>
      </trkpt>
      <trkpt lat="44.12079" lon="0.84679">
        <ele>104.528875</ele>
        <time>2022-12-29T16:37:49.913Z</time>
      </trkpt>
      <trkpt lat="44.1207" lon="0.84691">
        <ele>104.533924</ele>
        <time>2022-12-29T16:37:52.909Z</time>
      </trkpt>
      <trkpt lat="44.12064" lon="0.84699">
        <ele>104.537715</ele>
        <time>2022-12-29T16:37:55.914Z</time>
      </trkpt>
      <trkpt lat="44.12055" lon="0.84707">
        <ele>104.54198</ele>
        <time>2022-12-29T16:38:00.913Z</time>
      </trkpt>
      <trkpt lat="44.12047" lon="0.84718">
        <ele>104.546611</ele>
        <time>2022-12-29T16:38:04.912Z</time>
      </trkpt>
      <trkpt lat="44.1204" lon="0.84726">
        <ele>104.550497</ele>
        <time>2022-12-29T16:38:07.916Z</time>
      </trkpt>
      <trkpt lat="44.12032" lon="0.84736">
        <ele>104.55501</ele>
        <time>2022-12-29T16:38:10.915Z</time>
      </trkpt>
      <trkpt lat="44.12023" lon="0.84746">
        <ele>104.55951</ele>
        <time>2022-12-29T16:38:13.910Z</time>
      </trkpt>
      <trkpt lat="44.12015" lon="0.84757">
        <ele>104.564328</ele>
        <time>2022-12-29T16:38:16.911Z</time>
      </trkpt>
      <trkpt lat="44.12006" lon="0.84767">
        <ele>104.569021</ele>
        <time>2022-12-29T16:38:19.909Z</time>
      </trkpt>
      <trkpt lat="44.11996" lon="0.84777">
        <ele>104.574072</ele>
        <time>2022-12-29T16:38:23.911Z</time>
      </trkpt>
      <trkpt lat="44.11988" lon="0.84787">
        <ele>104.618834</ele>
        <time>2022-12-29T16:38:26.912Z</time>
      </trkpt>
      <trkpt lat="44.1198" lon="0.84797">
        <ele>104.692174</ele>
        <time>2022-12-29T16:38:29.912Z</time>
      </trkpt>
      <trkpt lat="44.1197" lon="0.84808">
        <ele>104.774301</ele>
        <time>2022-12-29T16:38:32.917Z</time>
      </trkpt>
      <trkpt lat="44.11961" lon="0.84818">
        <ele>104.849666</ele>
        <time>2022-12-29T16:38:35.916Z</time>
      </trkpt>
      <trkpt lat="44.11953" lon="0.84828">
        <ele>104.920182</ele>
        <time>2022-12-29T16:38:38.909Z</time>
      </trkpt>
      <trkpt lat="44.11945" lon="0.84837">
        <ele>104.985345</ele>
        <time>2022-12-29T16:38:41.917Z</time>
      </trkpt>
      <trkpt lat="44.11937" lon="0.84847">
        <ele>105.055194</ele>
        <time>2022-12-29T16:38:44.912Z</time>
      </trkpt>
      <trkpt lat="44.11928" lon="0.84858">
        <ele>105.136053</ele>
        <time>2022-12-29T16:38:47.913Z</time>
      </trkpt>
      <trkpt lat="44.11918" lon="0.8487">
        <ele>105.220586</ele>
        <time>2022-12-29T16:38:50.910Z</time>
      </trkpt>
      <trkpt lat="44.11908" lon="0.84881">
        <ele>105.30526</ele>
        <time>2022-12-29T16:38:53.915Z</time>
      </trkpt>
      <trkpt lat="44.11901" lon="0.84889">
        <ele>105.364431</ele>
        <time>2022-12-29T16:38:55.914Z</time>
      </trkpt>
      <trkpt lat="44.11894" lon="0.84897">
        <ele>105.423103</ele>
        <time>2022-12-29T16:38:57.910Z</time>
      </trkpt>
      <trkpt lat="44.11886" lon="0.84906">
        <ele>105.484373</ele>
        <time>2022-12-29T16:38:59.915Z</time>
      </trkpt>
      <trkpt lat="44.11879" lon="0.84915">
        <ele>105.546478</ele>
        <time>2022-12-29T16:39:01.914Z</time>
      </trkpt>
      <trkpt lat="44.1187" lon="0.84927">
        <ele>105.630214</ele>
        <time>2022-12-29T16:39:04.909Z</time>
      </trkpt>
      <trkpt lat="44.11861" lon="0.84937">
        <ele>105.70427</ele>
        <time>2022-12-29T16:39:07.918Z</time>
      </trkpt>
      <trkpt lat="44.11852" lon="0.84948">
        <ele>105.717138</ele>
        <time>2022-12-29T16:39:10.907Z</time>
      </trkpt>
      <trkpt lat="44.11842" lon="0.8496">
        <ele>105.652874</ele>
        <time>2022-12-29T16:39:13.915Z</time>
      </trkpt>
      <trkpt lat="44.11835" lon="0.8497">
        <ele>105.60563</ele>
        <time>2022-12-29T16:39:15.915Z</time>
      </trkpt>
      <trkpt lat="44.11829" lon="0.84979">
        <ele>105.561745</ele>
        <time>2022-12-29T16:39:17.913Z</time>
      </trkpt>
      <trkpt lat="44.11822" lon="0.84988">
        <ele>105.517528</ele>
        <time>2022-12-29T16:39:19.913Z</time>
      </trkpt>
      <trkpt lat="44.11817" lon="0.84997">
        <ele>105.473841</ele>
        <time>2022-12-29T16:39:21.913Z</time>
      </trkpt>
      <trkpt lat="44.1181" lon="0.85008">
        <ele>105.425476</ele>
        <time>2022-12-29T16:39:23.914Z</time>
      </trkpt>
      <trkpt lat="44.11804" lon="0.85018">
        <ele>105.38115</ele>
        <time>2022-12-29T16:39:25.914Z</time>
      </trkpt>
      <trkpt lat="44.11799" lon="0.85029">
        <ele>105.334251</ele>
        <time>2022-12-29T16:39:27.915Z</time>
      </trkpt>
      <trkpt lat="44.11793" lon="0.8504">
        <ele>105.285657</ele>
        <time>2022-12-29T16:39:29.915Z</time>
      </trkpt>
      <trkpt lat="44.11787" lon="0.85052">
        <ele>105.237283</ele>
        <time>2022-12-29T16:39:31.911Z</time>
      </trkpt>
      <trkpt lat="44.1178" lon="0.85067">
        <ele>105.172584</ele>
        <time>2022-12-29T16:39:34.915Z</time>
      </trkpt>
      <trkpt lat="44.11774" lon="0.85081">
        <ele>105.117312</ele>
        <time>2022-12-29T16:39:37.916Z</time>
      </trkpt>
      <trkpt lat="44.11768" lon="0.85094">
        <ele>105.06441</ele>
        <time>2022-12-29T16:39:40.911Z</time>
      </trkpt>
      <trkpt lat="44.11763" lon="0.85106">
        <ele>105.016026</ele>
        <time>2022-12-29T16:39:43.913Z</time>
      </trkpt>
      <trkpt lat="44.11758" lon="0.85122">
        <ele>104.954824</ele>
        <time>2022-12-29T16:39:46.910Z</time>
      </trkpt>
      <trkpt lat="44.11755" lon="0.85134">
        <ele>104.910361</ele>
        <time>2022-12-29T16:39:48.909Z</time>
      </trkpt>
      <trkpt lat="44.11749" lon="0.85151">
        <ele>104.86273</ele>
        <time>2022-12-29T16:39:51.913Z</time>
      </trkpt>
      <trkpt lat="44.11745" lon="0.85167">
        <ele>104.837665</ele>
        <time>2022-12-29T16:39:54.915Z</time>
      </trkpt>
      <trkpt lat="44.11741" lon="0.85182">
        <ele>104.815319</ele>
        <time>2022-12-29T16:39:57.917Z</time>
      </trkpt>
      <trkpt lat="44.11737" lon="0.85196">
        <ele>104.795208</ele>
        <time>2022-12-29T16:40:00.916Z</time>
      </trkpt>
      <trkpt lat="44.11734" lon="0.85208">
        <ele>104.776739</ele>
        <time>2022-12-29T16:40:03.915Z</time>
      </trkpt>
      <trkpt lat="44.11731" lon="0.85222">
        <ele>104.757624</ele>
        <time>2022-12-29T16:40:07.913Z</time>
      </trkpt>
      <trkpt lat="44.1173" lon="0.85235">
        <ele>104.738998</ele>
        <time>2022-12-29T16:40:21.924Z</time>
      </trkpt>
      <trkpt lat="44.11727" lon="0.85249">
        <ele>104.717759</ele>
        <time>2022-12-29T16:40:26.921Z</time>
      </trkpt>
      <trkpt lat="44.11725" lon="0.85264">
        <ele>104.696612</ele>
        <time>2022-12-29T16:40:30.909Z</time>
      </trkpt>
      <trkpt lat="44.11723" lon="0.85278">
        <ele>104.677426</ele>
        <time>2022-12-29T16:40:33.927Z</time>
      </trkpt>
      <trkpt lat="44.11722" lon="0.85292">
        <ele>104.657548</ele>
        <time>2022-12-29T16:40:36.910Z</time>
      </trkpt>
      <trkpt lat="44.1172" lon="0.85307">
        <ele>104.636094</ele>
        <time>2022-12-29T16:40:40.908Z</time>
      </trkpt>
      <trkpt lat="44.11719" lon="0.85321">
        <ele>104.616021</ele>
        <time>2022-12-29T16:40:44.910Z</time>
      </trkpt>
      <trkpt lat="44.11717" lon="0.85339">
        <ele>104.591824</ele>
        <time>2022-12-29T16:40:48.908Z</time>
      </trkpt>
      <trkpt lat="44.11716" lon="0.85354">
        <ele>104.570725</ele>
        <time>2022-12-29T16:40:51.912Z</time>
      </trkpt>
      <trkpt lat="44.11715" lon="0.85368">
        <ele>104.550569</ele>
        <time>2022-12-29T16:40:55.917Z</time>
      </trkpt>
      <trkpt lat="44.11712" lon="0.85381">
        <ele>104.531377</ele>
        <time>2022-12-29T16:40:58.909Z</time>
      </trkpt>
      <trkpt lat="44.11709" lon="0.85396">
        <ele>104.655279</ele>
        <time>2022-12-29T16:41:01.914Z</time>
      </trkpt>
      <trkpt lat="44.11706" lon="0.85412">
        <ele>104.868157</ele>
        <time>2022-12-29T16:41:04.910Z</time>
      </trkpt>
      <trkpt lat="44.11704" lon="0.85429">
        <ele>105.07965</ele>
        <time>2022-12-29T16:41:07.914Z</time>
      </trkpt>
      <trkpt lat="44.11702" lon="0.85446">
        <ele>105.295975</ele>
        <time>2022-12-29T16:41:10.916Z</time>
      </trkpt>
      <trkpt lat="44.11701" lon="0.85463">
        <ele>105.516577</ele>
        <time>2022-12-29T16:41:13.914Z</time>
      </trkpt>
      <trkpt lat="44.11699" lon="0.85481">
        <ele>105.742951</ele>
        <time>2022-12-29T16:41:16.910Z</time>
      </trkpt>
      <trkpt lat="44.11697" lon="0.85499">
        <ele>105.972871</ele>
        <time>2022-12-29T16:41:19.915Z</time>
      </trkpt>
      <trkpt lat="44.11695" lon="0.85513">
        <ele>106.159084</ele>
        <time>2022-12-29T16:41:21.912Z</time>
      </trkpt>
      <trkpt lat="44.11693" lon="0.85526">
        <ele>106.331897</ele>
        <time>2022-12-29T16:41:23.916Z</time>
      </trkpt>
      <trkpt lat="44.11691" lon="0.8554">
        <ele>106.503552</ele>
        <time>2022-12-29T16:41:25.918Z</time>
      </trkpt>
      <trkpt lat="44.1169" lon="0.85552">
        <ele>106.664827</ele>
        <time>2022-12-29T16:41:27.913Z</time>
      </trkpt>
      <trkpt lat="44.11688" lon="0.85565">
        <ele>106.826733</ele>
        <time>2022-12-29T16:41:29.914Z</time>
      </trkpt>
      <trkpt lat="44.11687" lon="0.85577">
        <ele>106.986844</ele>
        <time>2022-12-29T16:41:31.914Z</time>
      </trkpt>
      <trkpt lat="44.11685" lon="0.8559">
        <ele>107.150943</ele>
        <time>2022-12-29T16:41:33.913Z</time>
      </trkpt>
      <trkpt lat="44.11682" lon="0.85606">
        <ele>107.361765</ele>
        <time>2022-12-29T16:41:36.920Z</time>
      </trkpt>
      <trkpt lat="44.11681" lon="0.85622">
        <ele>107.567065</ele>
        <time>2022-12-29T16:41:39.914Z</time>
      </trkpt>
      <trkpt lat="44.11678" lon="0.8564">
        <ele>107.74483</ele>
        <time>2022-12-29T16:41:42.906Z</time>
      </trkpt>
      <trkpt lat="44.11676" lon="0.85653">
        <ele>107.81786</ele>
        <time>2022-12-29T16:41:44.911Z</time>
      </trkpt>
      <trkpt lat="44.11674" lon="0.85666">
        <ele>107.892437</ele>
        <time>2022-12-29T16:41:46.913Z</time>
      </trkpt>
      <trkpt lat="44.11672" lon="0.8568">
        <ele>107.972362</ele>
        <time>2022-12-29T16:41:48.915Z</time>
      </trkpt>
      <trkpt lat="44.11671" lon="0.85694">
        <ele>108.046132</ele>
        <time>2022-12-29T16:41:50.910Z</time>
      </trkpt>
      <trkpt lat="44.11669" lon="0.85707">
        <ele>108.119757</ele>
        <time>2022-12-29T16:41:52.914Z</time>
      </trkpt>
      <trkpt lat="44.11667" lon="0.8572">
        <ele>108.198042</ele>
        <time>2022-12-29T16:41:54.908Z</time>
      </trkpt>
      <trkpt lat="44.11665" lon="0.85734">
        <ele>108.273999</ele>
        <time>2022-12-29T16:41:56.921Z</time>
      </trkpt>
      <trkpt lat="44.11664" lon="0.85748">
        <ele>108.352715</ele>
        <time>2022-12-29T16:41:58.908Z</time>
      </trkpt>
      <trkpt lat="44.11662" lon="0.85761">
        <ele>108.428805</ele>
        <time>2022-12-29T16:42:00.909Z</time>
      </trkpt>
      <trkpt lat="44.1166" lon="0.85776">
        <ele>108.510841</ele>
        <time>2022-12-29T16:42:02.909Z</time>
      </trkpt>
      <trkpt lat="44.11659" lon="0.8579">
        <ele>108.592654</ele>
        <time>2022-12-29T16:42:04.908Z</time>
      </trkpt>
      <trkpt lat="44.11657" lon="0.85804">
        <ele>108.671065</ele>
        <time>2022-12-29T16:42:06.909Z</time>
      </trkpt>
      <trkpt lat="44.11655" lon="0.85818">
        <ele>108.748406</ele>
        <time>2022-12-29T16:42:08.918Z</time>
      </trkpt>
      <trkpt lat="44.11653" lon="0.85831">
        <ele>108.824679</ele>
        <time>2022-12-29T16:42:10.913Z</time>
      </trkpt>
      <trkpt lat="44.11651" lon="0.85845">
        <ele>108.899981</ele>
        <time>2022-12-29T16:42:12.910Z</time>
      </trkpt>
      <trkpt lat="44.1165" lon="0.85858">
        <ele>108.977048</ele>
        <time>2022-12-29T16:42:14.916Z</time>
      </trkpt>
      <trkpt lat="44.11648" lon="0.85872">
        <ele>109.052459</ele>
        <time>2022-12-29T16:42:16.916Z</time>
      </trkpt>
      <trkpt lat="44.11646" lon="0.85884">
        <ele>109.093539</ele>
        <time>2022-12-29T16:42:18.909Z</time>
      </trkpt>
      <trkpt lat="44.11644" lon="0.85902">
        <ele>109.094849</ele>
        <time>2022-12-29T16:42:21.913Z</time>
      </trkpt>
      <trkpt lat="44.11642" lon="0.85917">
        <ele>109.09596</ele>
        <time>2022-12-29T16:42:24.912Z</time>
      </trkpt>
      <trkpt lat="44.11639" lon="0.85934">
        <ele>109.097197</ele>
        <time>2022-12-29T16:42:27.912Z</time>
      </trkpt>
      <trkpt lat="44.11638" lon="0.85947">
        <ele>109.098143</ele>
        <time>2022-12-29T16:42:29.914Z</time>
      </trkpt>
      <trkpt lat="44.11636" lon="0.8596">
        <ele>109.09914</ele>
        <time>2022-12-29T16:42:31.916Z</time>
      </trkpt>
      <trkpt lat="44.11635" lon="0.85974">
        <ele>109.100177</ele>
        <time>2022-12-29T16:42:33.914Z</time>
      </trkpt>
      <trkpt lat="44.11634" lon="0.85988">
        <ele>109.101167</ele>
        <time>2022-12-29T16:42:35.916Z</time>
      </trkpt>
      <trkpt lat="44.11632" lon="0.86002">
        <ele>109.102183</ele>
        <time>2022-12-29T16:42:37.915Z</time>
      </trkpt>
      <trkpt lat="44.11631" lon="0.86015">
        <ele>109.103142</ele>
        <time>2022-12-29T16:42:39.918Z</time>
      </trkpt>
      <trkpt lat="44.11629" lon="0.86028">
        <ele>109.104124</ele>
        <time>2022-12-29T16:42:41.913Z</time>
      </trkpt>
      <trkpt lat="44.11627" lon="0.86042">
        <ele>109.105115</ele>
        <time>2022-12-29T16:42:43.913Z</time>
      </trkpt>
      <trkpt lat="44.11626" lon="0.86056">
        <ele>109.10614</ele>
        <time>2022-12-29T16:42:45.917Z</time>
      </trkpt>
      <trkpt lat="44.11624" lon="0.86069">
        <ele>109.10714</ele>
        <time>2022-12-29T16:42:47.910Z</time>
      </trkpt>
      <trkpt lat="44.11622" lon="0.86083">
        <ele>109.108168</ele>
        <time>2022-12-29T16:42:49.914Z</time>
      </trkpt>
      <trkpt lat="44.1162" lon="0.86097">
        <ele>109.109208</ele>
        <time>2022-12-29T16:42:51.919Z</time>
      </trkpt>
      <trkpt lat="44.11619" lon="0.8611">
        <ele>109.110158</ele>
        <time>2022-12-29T16:42:53.914Z</time>
      </trkpt>
      <trkpt lat="44.11617" lon="0.86124">
        <ele>109.111156</ele>
        <time>2022-12-29T16:42:55.915Z</time>
      </trkpt>
      <trkpt lat="44.11615" lon="0.86142">
        <ele>109.023562</ele>
        <time>2022-12-29T16:42:58.910Z</time>
      </trkpt>
      <trkpt lat="44.11613" lon="0.8616">
        <ele>108.928062</ele>
        <time>2022-12-29T16:43:01.912Z</time>
      </trkpt>
      <trkpt lat="44.11611" lon="0.86178">
        <ele>108.83335</ele>
        <time>2022-12-29T16:43:04.911Z</time>
      </trkpt>
      <trkpt lat="44.11609" lon="0.86193">
        <ele>108.753912</ele>
        <time>2022-12-29T16:43:07.912Z</time>
      </trkpt>
      <trkpt lat="44.11607" lon="0.86209">
        <ele>108.663476</ele>
        <time>2022-12-29T16:43:10.917Z</time>
      </trkpt>
      <trkpt lat="44.11605" lon="0.86226">
        <ele>108.573168</ele>
        <time>2022-12-29T16:43:13.918Z</time>
      </trkpt>
      <trkpt lat="44.11603" lon="0.86243">
        <ele>108.48286</ele>
        <time>2022-12-29T16:43:16.914Z</time>
      </trkpt>
      <trkpt lat="44.11601" lon="0.86261">
        <ele>108.389147</ele>
        <time>2022-12-29T16:43:19.909Z</time>
      </trkpt>
      <trkpt lat="44.11599" lon="0.86273">
        <ele>108.322292</ele>
        <time>2022-12-29T16:43:21.912Z</time>
      </trkpt>
      <trkpt lat="44.11597" lon="0.86291">
        <ele>108.227311</ele>
        <time>2022-12-29T16:43:24.911Z</time>
      </trkpt>
      <trkpt lat="44.11595" lon="0.86307">
        <ele>108.143872</ele>
        <time>2022-12-29T16:43:27.914Z</time>
      </trkpt>
      <trkpt lat="44.11593" lon="0.8632">
        <ele>108.072346</ele>
        <time>2022-12-29T16:43:30.910Z</time>
      </trkpt>
      <trkpt lat="44.11592" lon="0.86334">
        <ele>107.996539</ele>
        <time>2022-12-29T16:43:34.916Z</time>
      </trkpt>
      <trkpt lat="44.11591" lon="0.86348">
        <ele>107.925013</ele>
        <time>2022-12-29T16:43:40.914Z</time>
      </trkpt>
      <trkpt lat="44.11588" lon="0.86363">
        <ele>107.841303</ele>
        <time>2022-12-29T16:43:44.914Z</time>
      </trkpt>
      <trkpt lat="44.11586" lon="0.86377">
        <ele>107.814207</ele>
        <time>2022-12-29T16:43:47.913Z</time>
      </trkpt>
      <trkpt lat="44.11585" lon="0.86389">
        <ele>107.876924</ele>
        <time>2022-12-29T16:43:50.911Z</time>
      </trkpt>
      <trkpt lat="44.11583" lon="0.86404">
        <ele>107.953146</ele>
        <time>2022-12-29T16:43:54.914Z</time>
      </trkpt>
      <trkpt lat="44.11581" lon="0.86417">
        <ele>108.01871</ele>
        <time>2022-12-29T16:43:57.914Z</time>
      </trkpt>
      <trkpt lat="44.1158" lon="0.8643">
        <ele>108.084379</ele>
        <time>2022-12-29T16:44:00.913Z</time>
      </trkpt>
      <trkpt lat="44.11579" lon="0.86445">
        <ele>108.155917</ele>
        <time>2022-12-29T16:44:03.911Z</time>
      </trkpt>
      <trkpt lat="44.11579" lon="0.8646">
        <ele>108.23128</ele>
        <time>2022-12-29T16:44:06.915Z</time>
      </trkpt>
      <trkpt lat="44.11578" lon="0.86475">
        <ele>108.305125</ele>
        <time>2022-12-29T16:44:09.915Z</time>
      </trkpt>
      <trkpt lat="44.11577" lon="0.86489">
        <ele>108.379879</ele>
        <time>2022-12-29T16:44:12.912Z</time>
      </trkpt>
      <trkpt lat="44.11574" lon="0.86504">
        <ele>108.456015</ele>
        <time>2022-12-29T16:44:15.913Z</time>
      </trkpt>
      <trkpt lat="44.11571" lon="0.86518">
        <ele>108.52898</ele>
        <time>2022-12-29T16:44:18.909Z</time>
      </trkpt>
      <trkpt lat="44.11568" lon="0.86532">
        <ele>108.600768</ele>
        <time>2022-12-29T16:44:21.914Z</time>
      </trkpt>
      <trkpt lat="44.11566" lon="0.86547">
        <ele>108.678104</ele>
        <time>2022-12-29T16:44:24.948Z</time>
      </trkpt>
      <trkpt lat="44.11564" lon="0.86563">
        <ele>108.755546</ele>
        <time>2022-12-29T16:44:27.917Z</time>
      </trkpt>
      <trkpt lat="44.11562" lon="0.86576">
        <ele>108.825992</ele>
        <time>2022-12-29T16:44:30.915Z</time>
      </trkpt>
      <trkpt lat="44.1156" lon="0.86594">
        <ele>108.915093</ele>
        <time>2022-12-29T16:44:33.910Z</time>
      </trkpt>
      <trkpt lat="44.11559" lon="0.86609">
        <ele>108.992352</ele>
        <time>2022-12-29T16:44:36.909Z</time>
      </trkpt>
      <trkpt lat="44.11557" lon="0.86623">
        <ele>109.016078</ele>
        <time>2022-12-29T16:44:39.917Z</time>
      </trkpt>
      <trkpt lat="44.11555" lon="0.86636">
        <ele>108.924267</ele>
        <time>2022-12-29T16:44:42.911Z</time>
      </trkpt>
      <trkpt lat="44.11553" lon="0.86652">
        <ele>108.816304</ele>
        <time>2022-12-29T16:44:45.913Z</time>
      </trkpt>
      <trkpt lat="44.11551" lon="0.86669">
        <ele>108.703023</ele>
        <time>2022-12-29T16:44:48.915Z</time>
      </trkpt>
      <trkpt lat="44.11549" lon="0.86685">
        <ele>108.590262</ele>
        <time>2022-12-29T16:44:51.921Z</time>
      </trkpt>
      <trkpt lat="44.11547" lon="0.86703">
        <ele>108.472564</ele>
        <time>2022-12-29T16:44:54.911Z</time>
      </trkpt>
      <trkpt lat="44.11545" lon="0.8672">
        <ele>108.357815</ele>
        <time>2022-12-29T16:44:57.922Z</time>
      </trkpt>
      <trkpt lat="44.11543" lon="0.86735">
        <ele>108.251169</ele>
        <time>2022-12-29T16:45:00.914Z</time>
      </trkpt>
      <trkpt lat="44.1154" lon="0.86753">
        <ele>108.130476</ele>
        <time>2022-12-29T16:45:03.918Z</time>
      </trkpt>
      <trkpt lat="44.11539" lon="0.86765">
        <ele>108.046123</ele>
        <time>2022-12-29T16:45:05.915Z</time>
      </trkpt>
      <trkpt lat="44.11537" lon="0.86778">
        <ele>107.959931</ele>
        <time>2022-12-29T16:45:07.914Z</time>
      </trkpt>
      <trkpt lat="44.11535" lon="0.86794">
        <ele>107.850986</ele>
        <time>2022-12-29T16:45:10.914Z</time>
      </trkpt>
      <trkpt lat="44.11533" lon="0.86809">
        <ele>107.746586</ele>
        <time>2022-12-29T16:45:13.916Z</time>
      </trkpt>
      <trkpt lat="44.11531" lon="0.86825">
        <ele>107.640596</ele>
        <time>2022-12-29T16:45:16.917Z</time>
      </trkpt>
      <trkpt lat="44.11529" lon="0.86841">
        <ele>107.528846</ele>
        <time>2022-12-29T16:45:19.915Z</time>
      </trkpt>
      <trkpt lat="44.11527" lon="0.86858">
        <ele>107.414611</ele>
        <time>2022-12-29T16:45:22.913Z</time>
      </trkpt>
      <trkpt lat="44.11526" lon="0.8687">
        <ele>107.341573</ele>
        <time>2022-12-29T16:45:24.914Z</time>
      </trkpt>
      <trkpt lat="44.11524" lon="0.86889">
        <ele>107.263458</ele>
        <time>2022-12-29T16:45:27.913Z</time>
      </trkpt>
      <trkpt lat="44.11521" lon="0.86907">
        <ele>107.186213</ele>
        <time>2022-12-29T16:45:30.913Z</time>
      </trkpt>
      <trkpt lat="44.11519" lon="0.86924">
        <ele>107.115311</ele>
        <time>2022-12-29T16:45:33.914Z</time>
      </trkpt>
      <trkpt lat="44.11518" lon="0.86938">
        <ele>107.056779</ele>
        <time>2022-12-29T16:45:36.919Z</time>
      </trkpt>
      <trkpt lat="44.11515" lon="0.86952">
        <ele>106.997597</ele>
        <time>2022-12-29T16:45:39.914Z</time>
      </trkpt>
      <trkpt lat="44.11512" lon="0.86965">
        <ele>106.939061</ele>
        <time>2022-12-29T16:45:42.916Z</time>
      </trkpt>
      <trkpt lat="44.11508" lon="0.86981">
        <ele>106.869971</ele>
        <time>2022-12-29T16:45:45.914Z</time>
      </trkpt>
      <trkpt lat="44.11504" lon="0.86995">
        <ele>106.805987</ele>
        <time>2022-12-29T16:45:48.918Z</time>
      </trkpt>
      <trkpt lat="44.11501" lon="0.87009">
        <ele>106.746298</ele>
        <time>2022-12-29T16:45:51.917Z</time>
      </trkpt>
      <trkpt lat="44.11497" lon="0.87023">
        <ele>106.684456</ele>
        <time>2022-12-29T16:45:54.907Z</time>
      </trkpt>
      <trkpt lat="44.11493" lon="0.87036">
        <ele>106.625711</ele>
        <time>2022-12-29T16:45:57.913Z</time>
      </trkpt>
      <trkpt lat="44.1149" lon="0.87047">
        <ele>106.57358</ele>
        <time>2022-12-29T16:46:00.912Z</time>
      </trkpt>
      <trkpt lat="44.11484" lon="0.87059">
        <ele>106.515398</ele>
        <time>2022-12-29T16:46:03.917Z</time>
      </trkpt>
      <trkpt lat="44.11478" lon="0.87071">
        <ele>106.452238</ele>
        <time>2022-12-29T16:46:06.910Z</time>
      </trkpt>
      <trkpt lat="44.11471" lon="0.87084">
        <ele>106.3843</ele>
        <time>2022-12-29T16:46:09.916Z</time>
      </trkpt>
      <trkpt lat="44.11464" lon="0.87097">
        <ele>106.321467</ele>
        <time>2022-12-29T16:46:12.916Z</time>
      </trkpt>
      <trkpt lat="44.11458" lon="0.87111">
        <ele>106.38732</ele>
        <time>2022-12-29T16:46:15.915Z</time>
      </trkpt>
      <trkpt lat="44.11452" lon="0.87123">
        <ele>106.4478</ele>
        <time>2022-12-29T16:46:19.914Z</time>
      </trkpt>
      <trkpt lat="44.11444" lon="0.8713">
        <ele>106.502074</ele>
        <time>2022-12-29T16:46:24.906Z</time>
      </trkpt>
      <trkpt lat="44.11433" lon="0.87134">
        <ele>106.565454</ele>
        <time>2022-12-29T16:46:28.911Z</time>
      </trkpt>
      <trkpt lat="44.11425" lon="0.87137">
        <ele>106.618733</ele>
        <time>2022-12-29T16:46:31.918Z</time>
      </trkpt>
      <trkpt lat="44.11415" lon="0.87142">
        <ele>106.678038</ele>
        <time>2022-12-29T16:46:34.912Z</time>
      </trkpt>
      <trkpt lat="44.11406" lon="0.87147">
        <ele>106.734247</ele>
        <time>2022-12-29T16:46:37.916Z</time>
      </trkpt>
      <trkpt lat="44.11395" lon="0.87152">
        <ele>106.801716</ele>
        <time>2022-12-29T16:46:41.915Z</time>
      </trkpt>
      <trkpt lat="44.11386" lon="0.87156">
        <ele>106.853696</ele>
        <time>2022-12-29T16:46:44.917Z</time>
      </trkpt>
      <trkpt lat="44.11377" lon="0.8716">
        <ele>106.9091</ele>
        <time>2022-12-29T16:46:47.915Z</time>
      </trkpt>
      <trkpt lat="44.11367" lon="0.87163">
        <ele>106.969898</ele>
        <time>2022-12-29T16:46:50.912Z</time>
      </trkpt>
      <trkpt lat="44.11356" lon="0.87165">
        <ele>107.033238</ele>
        <time>2022-12-29T16:46:54.911Z</time>
      </trkpt>
      <trkpt lat="44.11345" lon="0.87167">
        <ele>107.09481</ele>
        <time>2022-12-29T16:46:58.912Z</time>
      </trkpt>
      <trkpt lat="44.11333" lon="0.87169">
        <ele>107.163513</ele>
        <time>2022-12-29T16:47:02.914Z</time>
      </trkpt>
      <trkpt lat="44.11324" lon="0.87171">
        <ele>107.219582</ele>
        <time>2022-12-29T16:47:05.916Z</time>
      </trkpt>
      <trkpt lat="44.11314" lon="0.87172">
        <ele>107.272478</ele>
        <time>2022-12-29T16:47:08.916Z</time>
      </trkpt>
      <trkpt lat="44.11304" lon="0.87175">
        <ele>107.332454</ele>
        <time>2022-12-29T16:47:11.918Z</time>
      </trkpt>
      <trkpt lat="44.11295" lon="0.87179">
        <ele>107.375594</ele>
        <time>2022-12-29T16:47:15.911Z</time>
      </trkpt>
      <trkpt lat="44.11283" lon="0.87177">
        <ele>107.4131</ele>
        <time>2022-12-29T16:47:20.911Z</time>
      </trkpt>
      <trkpt lat="44.11275" lon="0.87173">
        <ele>107.443551</ele>
        <time>2022-12-29T16:47:23.913Z</time>
      </trkpt>
      <trkpt lat="44.11265" lon="0.8717">
        <ele>107.474692</ele>
        <time>2022-12-29T16:47:26.910Z</time>
      </trkpt>
      <trkpt lat="44.11256" lon="0.87168">
        <ele>107.506375</ele>
        <time>2022-12-29T16:47:29.916Z</time>
      </trkpt>
      <trkpt lat="44.11246" lon="0.87167">
        <ele>107.540328</ele>
        <time>2022-12-29T16:47:32.911Z</time>
      </trkpt>
      <trkpt lat="44.11235" lon="0.87168">
        <ele>107.574988</ele>
        <time>2022-12-29T16:47:35.915Z</time>
      </trkpt>
      <trkpt lat="44.11225" lon="0.87171">
        <ele>107.608177</ele>
        <time>2022-12-29T16:47:38.910Z</time>
      </trkpt>
      <trkpt lat="44.11215" lon="0.87174">
        <ele>107.641521</ele>
        <time>2022-12-29T16:47:41.919Z</time>
      </trkpt>
      <trkpt lat="44.11206" lon="0.8718">
        <ele>107.676343</ele>
        <time>2022-12-29T16:47:44.910Z</time>
      </trkpt>
      <trkpt lat="44.11197" lon="0.87188">
        <ele>107.711534</ele>
        <time>2022-12-29T16:47:47.914Z</time>
      </trkpt>
      <trkpt lat="44.11188" lon="0.87195">
        <ele>107.744546</ele>
        <time>2022-12-29T16:47:50.913Z</time>
      </trkpt>
      <trkpt lat="44.1118" lon="0.87202">
        <ele>107.775943</ele>
        <time>2022-12-29T16:47:53.917Z</time>
      </trkpt>
      <trkpt lat="44.11171" lon="0.87211">
        <ele>107.812428</ele>
        <time>2022-12-29T16:47:56.915Z</time>
      </trkpt>
      <trkpt lat="44.11163" lon="0.87221">
        <ele>107.846673</ele>
        <time>2022-12-29T16:47:59.915Z</time>
      </trkpt>
      <trkpt lat="44.11156" lon="0.87232">
        <ele>107.882563</ele>
        <time>2022-12-29T16:48:02.915Z</time>
      </trkpt>
      <trkpt lat="44.11148" lon="0.87244">
        <ele>107.920322</ele>
        <time>2022-12-29T16:48:05.911Z</time>
      </trkpt>
      <trkpt lat="44.11142" lon="0.87256">
        <ele>107.952162</ele>
        <time>2022-12-29T16:48:08.917Z</time>
      </trkpt>
      <trkpt lat="44.11137" lon="0.87268">
        <ele>107.971642</ele>
        <time>2022-12-29T16:48:11.920Z</time>
      </trkpt>
      <trkpt lat="44.11132" lon="0.8728">
        <ele>107.992637</ele>
        <time>2022-12-29T16:48:14.913Z</time>
      </trkpt>
      <trkpt lat="44.11127" lon="0.87294">
        <ele>108.014793</ele>
        <time>2022-12-29T16:48:17.916Z</time>
      </trkpt>
      <trkpt lat="44.11123" lon="0.87306">
        <ele>108.034195</ele>
        <time>2022-12-29T16:48:21.915Z</time>
      </trkpt>
      <trkpt lat="44.11118" lon="0.87319">
        <ele>108.054099</ele>
        <time>2022-12-29T16:48:24.915Z</time>
      </trkpt>
      <trkpt lat="44.11112" lon="0.87333">
        <ele>108.076871</ele>
        <time>2022-12-29T16:48:27.917Z</time>
      </trkpt>
      <trkpt lat="44.11108" lon="0.87347">
        <ele>108.09929</ele>
        <time>2022-12-29T16:48:30.916Z</time>
      </trkpt>
      <trkpt lat="44.11102" lon="0.87359">
        <ele>108.119767</ele>
        <time>2022-12-29T16:48:33.915Z</time>
      </trkpt>
      <trkpt lat="44.11097" lon="0.87373">
        <ele>108.1426</ele>
        <time>2022-12-29T16:48:36.912Z</time>
      </trkpt>
      <trkpt lat="44.11091" lon="0.87387">
        <ele>108.164836</ele>
        <time>2022-12-29T16:48:39.912Z</time>
      </trkpt>
      <trkpt lat="44.11086" lon="0.874">
        <ele>108.187008</ele>
        <time>2022-12-29T16:48:42.913Z</time>
      </trkpt>
      <trkpt lat="44.11081" lon="0.87415">
        <ele>108.210161</ele>
        <time>2022-12-29T16:48:45.917Z</time>
      </trkpt>
      <trkpt lat="44.11076" lon="0.87428">
        <ele>108.230897</ele>
        <time>2022-12-29T16:48:48.914Z</time>
      </trkpt>
      <trkpt lat="44.1107" lon="0.87442">
        <ele>108.255112</ele>
        <time>2022-12-29T16:48:51.911Z</time>
      </trkpt>
      <trkpt lat="44.11065" lon="0.87454">
        <ele>108.274136</ele>
        <time>2022-12-29T16:48:54.916Z</time>
      </trkpt>
      <trkpt lat="44.11059" lon="0.87466">
        <ele>108.295059</ele>
        <time>2022-12-29T16:48:57.916Z</time>
      </trkpt>
      <trkpt lat="44.11052" lon="0.87482">
        <ele>108.367054</ele>
        <time>2022-12-29T16:49:00.914Z</time>
      </trkpt>
      <trkpt lat="44.11048" lon="0.87494">
        <ele>108.436322</ele>
        <time>2022-12-29T16:49:02.918Z</time>
      </trkpt>
      <trkpt lat="44.11041" lon="0.87509">
        <ele>108.533519</ele>
        <time>2022-12-29T16:49:05.917Z</time>
      </trkpt>
      <trkpt lat="44.11035" lon="0.87525">
        <ele>108.630802</ele>
        <time>2022-12-29T16:49:08.916Z</time>
      </trkpt>
      <trkpt lat="44.11029" lon="0.87541">
        <ele>108.722384</ele>
        <time>2022-12-29T16:49:11.919Z</time>
      </trkpt>
      <trkpt lat="44.11024" lon="0.87555">
        <ele>108.804901</ele>
        <time>2022-12-29T16:49:14.913Z</time>
      </trkpt>
      <trkpt lat="44.1102" lon="0.87569">
        <ele>108.885327</ele>
        <time>2022-12-29T16:49:17.917Z</time>
      </trkpt>
      <trkpt lat="44.11015" lon="0.87583">
        <ele>108.968302</ele>
        <time>2022-12-29T16:49:20.915Z</time>
      </trkpt>
      <trkpt lat="44.11009" lon="0.87599">
        <ele>109.061636</ele>
        <time>2022-12-29T16:49:23.914Z</time>
      </trkpt>
      <trkpt lat="44.11004" lon="0.87613">
        <ele>109.147809</ele>
        <time>2022-12-29T16:49:26.918Z</time>
      </trkpt>
      <trkpt lat="44.10997" lon="0.87628">
        <ele>109.243015</ele>
        <time>2022-12-29T16:49:29.918Z</time>
      </trkpt>
      <trkpt lat="44.1099" lon="0.87643">
        <ele>109.33479</ele>
        <time>2022-12-29T16:49:32.917Z</time>
      </trkpt>
      <trkpt lat="44.10984" lon="0.87659">
        <ele>109.431006</ele>
        <time>2022-12-29T16:49:35.917Z</time>
      </trkpt>
      <trkpt lat="44.10979" lon="0.87669">
        <ele>109.49863</ele>
        <time>2022-12-29T16:49:37.917Z</time>
      </trkpt>
      <trkpt lat="44.10973" lon="0.87681">
        <ele>109.573197</ele>
        <time>2022-12-29T16:49:39.912Z</time>
      </trkpt>
      <trkpt lat="44.10968" lon="0.87692">
        <ele>109.63075</ele>
        <time>2022-12-29T16:49:41.925Z</time>
      </trkpt>
      <trkpt lat="44.1096" lon="0.87706">
        <ele>109.613364</ele>
        <time>2022-12-29T16:49:44.914Z</time>
      </trkpt>
      <trkpt lat="44.10953" lon="0.87719">
        <ele>109.596659</ele>
        <time>2022-12-29T16:49:47.920Z</time>
      </trkpt>
      <trkpt lat="44.10947" lon="0.87734">
        <ele>109.579108</ele>
        <time>2022-12-29T16:49:50.916Z</time>
      </trkpt>
      <trkpt lat="44.10942" lon="0.87745">
        <ele>109.566572</ele>
        <time>2022-12-29T16:49:52.921Z</time>
      </trkpt>
      <trkpt lat="44.10938" lon="0.87756">
        <ele>109.554069</ele>
        <time>2022-12-29T16:49:54.915Z</time>
      </trkpt>
      <trkpt lat="44.10931" lon="0.87772">
        <ele>109.535697</ele>
        <time>2022-12-29T16:49:57.922Z</time>
      </trkpt>
      <trkpt lat="44.10926" lon="0.87787">
        <ele>109.519436</ele>
        <time>2022-12-29T16:50:00.912Z</time>
      </trkpt>
      <trkpt lat="44.10921" lon="0.87798">
        <ele>109.506207</ele>
        <time>2022-12-29T16:50:03.912Z</time>
      </trkpt>
      <trkpt lat="44.10916" lon="0.8781">
        <ele>109.491899</ele>
        <time>2022-12-29T16:50:06.927Z</time>
      </trkpt>
      <trkpt lat="44.1091" lon="0.87824">
        <ele>109.47621</ele>
        <time>2022-12-29T16:50:09.915Z</time>
      </trkpt>
      <trkpt lat="44.10905" lon="0.87838">
        <ele>109.46023</ele>
        <time>2022-12-29T16:50:12.918Z</time>
      </trkpt>
      <trkpt lat="44.10898" lon="0.87853">
        <ele>109.442896</ele>
        <time>2022-12-29T16:50:15.920Z</time>
      </trkpt>
      <trkpt lat="44.10892" lon="0.87868">
        <ele>109.425235</ele>
        <time>2022-12-29T16:50:18.910Z</time>
      </trkpt>
      <trkpt lat="44.10885" lon="0.87882">
        <ele>109.408558</ele>
        <time>2022-12-29T16:50:21.916Z</time>
      </trkpt>
      <trkpt lat="44.1088" lon="0.87895">
        <ele>109.393634</ele>
        <time>2022-12-29T16:50:24.917Z</time>
      </trkpt>
      <trkpt lat="44.10874" lon="0.8791">
        <ele>109.351593</ele>
        <time>2022-12-29T16:50:27.913Z</time>
      </trkpt>
      <trkpt lat="44.10868" lon="0.87924">
        <ele>109.271582</ele>
        <time>2022-12-29T16:50:30.924Z</time>
      </trkpt>
      <trkpt lat="44.10862" lon="0.87939">
        <ele>109.185785</ele>
        <time>2022-12-29T16:50:33.917Z</time>
      </trkpt>
      <trkpt lat="44.10856" lon="0.87952">
        <ele>109.109697</ele>
        <time>2022-12-29T16:50:36.919Z</time>
      </trkpt>
      <trkpt lat="44.10851" lon="0.87965">
        <ele>109.037877</ele>
        <time>2022-12-29T16:50:39.915Z</time>
      </trkpt>
      <trkpt lat="44.10846" lon="0.87979">
        <ele>108.957431</ele>
        <time>2022-12-29T16:50:43.916Z</time>
      </trkpt>
      <trkpt lat="44.10841" lon="0.8799">
        <ele>108.892372</ele>
        <time>2022-12-29T16:50:46.919Z</time>
      </trkpt>
      <trkpt lat="44.10837" lon="0.88002">
        <ele>108.828176</ele>
        <time>2022-12-29T16:50:49.913Z</time>
      </trkpt>
      <trkpt lat="44.10831" lon="0.88016">
        <ele>108.749028</ele>
        <time>2022-12-29T16:50:52.914Z</time>
      </trkpt>
      <trkpt lat="44.10825" lon="0.88029">
        <ele>108.670519</ele>
        <time>2022-12-29T16:50:55.915Z</time>
      </trkpt>
      <trkpt lat="44.10819" lon="0.88044">
        <ele>108.585837</ele>
        <time>2022-12-29T16:50:58.920Z</time>
      </trkpt>
      <trkpt lat="44.10815" lon="0.88055">
        <ele>108.522032</ele>
        <time>2022-12-29T16:51:00.915Z</time>
      </trkpt>
      <trkpt lat="44.10809" lon="0.8807">
        <ele>108.439608</ele>
        <time>2022-12-29T16:51:03.921Z</time>
      </trkpt>
      <trkpt lat="44.10803" lon="0.88083">
        <ele>108.363306</ele>
        <time>2022-12-29T16:51:06.914Z</time>
      </trkpt>
      <trkpt lat="44.10797" lon="0.88097">
        <ele>108.281823</ele>
        <time>2022-12-29T16:51:09.918Z</time>
      </trkpt>
      <trkpt lat="44.1079" lon="0.88112">
        <ele>108.193678</ele>
        <time>2022-12-29T16:51:12.917Z</time>
      </trkpt>
      <trkpt lat="44.10784" lon="0.88128">
        <ele>108.156409</ele>
        <time>2022-12-29T16:51:15.916Z</time>
      </trkpt>
      <trkpt lat="44.10778" lon="0.88143">
        <ele>108.204304</ele>
        <time>2022-12-29T16:51:18.909Z</time>
      </trkpt>
      <trkpt lat="44.10772" lon="0.88159">
        <ele>108.253033</ele>
        <time>2022-12-29T16:51:21.917Z</time>
      </trkpt>
      <trkpt lat="44.10766" lon="0.88174">
        <ele>108.298779</ele>
        <time>2022-12-29T16:51:24.917Z</time>
      </trkpt>
      <trkpt lat="44.10759" lon="0.88188">
        <ele>108.344585</ele>
        <time>2022-12-29T16:51:27.915Z</time>
      </trkpt>
      <trkpt lat="44.10754" lon="0.88202">
        <ele>108.388491</ele>
        <time>2022-12-29T16:51:30.913Z</time>
      </trkpt>
      <trkpt lat="44.10747" lon="0.88217">
        <ele>108.435421</ele>
        <time>2022-12-29T16:51:33.919Z</time>
      </trkpt>
      <trkpt lat="44.10741" lon="0.88232">
        <ele>108.483673</ele>
        <time>2022-12-29T16:51:36.923Z</time>
      </trkpt>
      <trkpt lat="44.10734" lon="0.88248">
        <ele>108.532668</ele>
        <time>2022-12-29T16:51:39.914Z</time>
      </trkpt>
      <trkpt lat="44.10728" lon="0.88264">
        <ele>108.582419</ele>
        <time>2022-12-29T16:51:42.915Z</time>
      </trkpt>
      <trkpt lat="44.10721" lon="0.88279">
        <ele>108.631225</ele>
        <time>2022-12-29T16:51:45.918Z</time>
      </trkpt>
      <trkpt lat="44.10715" lon="0.88294">
        <ele>108.677816</ele>
        <time>2022-12-29T16:51:48.918Z</time>
      </trkpt>
      <trkpt lat="44.10709" lon="0.88308">
        <ele>108.722193</ele>
        <time>2022-12-29T16:51:51.916Z</time>
      </trkpt>
      <trkpt lat="44.10704" lon="0.88321">
        <ele>108.760588</ele>
        <time>2022-12-29T16:51:54.913Z</time>
      </trkpt>
      <trkpt lat="44.107" lon="0.88332">
        <ele>108.795167</ele>
        <time>2022-12-29T16:51:57.917Z</time>
      </trkpt>
      <trkpt lat="44.10694" lon="0.88345">
        <ele>108.728863</ele>
        <time>2022-12-29T16:52:00.919Z</time>
      </trkpt>
      <trkpt lat="44.10689" lon="0.88358">
        <ele>108.52121</ele>
        <time>2022-12-29T16:52:03.917Z</time>
      </trkpt>
      <trkpt lat="44.10683" lon="0.88372">
        <ele>108.299504</ele>
        <time>2022-12-29T16:52:07.916Z</time>
      </trkpt>
      <trkpt lat="44.10678" lon="0.88385">
        <ele>108.1074</ele>
        <time>2022-12-29T16:52:10.915Z</time>
      </trkpt>
      <trkpt lat="44.10673" lon="0.88399">
        <ele>107.890986</ele>
        <time>2022-12-29T16:52:13.918Z</time>
      </trkpt>
      <trkpt lat="44.10667" lon="0.88413">
        <ele>107.679589</ele>
        <time>2022-12-29T16:52:16.912Z</time>
      </trkpt>
      <trkpt lat="44.1066" lon="0.88428">
        <ele>107.437076</ele>
        <time>2022-12-29T16:52:19.917Z</time>
      </trkpt>
      <trkpt lat="44.10655" lon="0.88441">
        <ele>107.228468</ele>
        <time>2022-12-29T16:52:22.915Z</time>
      </trkpt>
      <trkpt lat="44.1065" lon="0.88453">
        <ele>107.045812</ele>
        <time>2022-12-29T16:52:25.913Z</time>
      </trkpt>
      <trkpt lat="44.10644" lon="0.88467">
        <ele>106.83206</ele>
        <time>2022-12-29T16:52:29.918Z</time>
      </trkpt>
      <trkpt lat="44.10639" lon="0.8848">
        <ele>106.629204</ele>
        <time>2022-12-29T16:52:32.918Z</time>
      </trkpt>
      <trkpt lat="44.10633" lon="0.88493">
        <ele>106.4283</ele>
        <time>2022-12-29T16:52:35.922Z</time>
      </trkpt>
      <trkpt lat="44.10628" lon="0.88507">
        <ele>106.213367</ele>
        <time>2022-12-29T16:52:38.919Z</time>
      </trkpt>
      <trkpt lat="44.10623" lon="0.88519">
        <ele>106.027184</ele>
        <time>2022-12-29T16:52:41.918Z</time>
      </trkpt>
      <trkpt lat="44.10619" lon="0.8853">
        <ele>105.857867</ele>
        <time>2022-12-29T16:52:44.920Z</time>
      </trkpt>
      <trkpt lat="44.10614" lon="0.88541">
        <ele>105.687779</ele>
        <time>2022-12-29T16:52:47.915Z</time>
      </trkpt>
      <trkpt lat="44.10608" lon="0.88554">
        <ele>105.477492</ele>
        <time>2022-12-29T16:52:51.918Z</time>
      </trkpt>
      <trkpt lat="44.10603" lon="0.88566">
        <ele>105.355958</ele>
        <time>2022-12-29T16:52:55.917Z</time>
      </trkpt>
      <trkpt lat="44.10598" lon="0.88577">
        <ele>105.260138</ele>
        <time>2022-12-29T16:53:00.914Z</time>
      </trkpt>
      <trkpt lat="44.10593" lon="0.88589">
        <ele>105.14827</ele>
        <time>2022-12-29T16:53:05.917Z</time>
      </trkpt>
      <trkpt lat="44.10584" lon="0.88594">
        <ele>105.050796</ele>
        <time>2022-12-29T16:53:18.911Z</time>
      </trkpt>
      <trkpt lat="44.10581" lon="0.88596">
        <ele>105.010288</ele>
        <time>2022-12-29T16:54:54.928Z</time>
      </trkpt>
      <trkpt lat="44.10585" lon="0.88598">
        <ele>104.964565</ele>
        <time>2022-12-29T17:08:40.919Z</time>
      </trkpt>
      <trkpt lat="44.10571" lon="0.88587">
        <ele>104.795944</ele>
        <time>2022-12-29T17:13:09.052Z</time>
      </trkpt>
      <trkpt lat="44.10563" lon="0.88579">
        <ele>104.687799</ele>
        <time>2022-12-29T17:13:16.049Z</time>
      </trkpt>
      <trkpt lat="44.10557" lon="0.88569">
        <ele>104.591374</ele>
        <time>2022-12-29T17:13:31.051Z</time>
      </trkpt>
      <trkpt lat="44.10548" lon="0.88563">
        <ele>104.481044</ele>
        <time>2022-12-29T17:13:39.050Z</time>
      </trkpt>
      <trkpt lat="44.10542" lon="0.88576">
        <ele>104.364305</ele>
        <time>2022-12-29T17:13:44.033Z</time>
      </trkpt>
      <trkpt lat="44.10544" lon="0.88591">
        <ele>104.247617</ele>
        <time>2022-12-29T17:13:49.052Z</time>
      </trkpt>
      <trkpt lat="44.10548" lon="0.88605">
        <ele>104.135873</ele>
        <time>2022-12-29T17:13:54.050Z</time>
      </trkpt>
      <trkpt lat="44.10555" lon="0.88614">
        <ele>104.030732</ele>
        <time>2022-12-29T17:13:59.040Z</time>
      </trkpt>
      <trkpt lat="44.10564" lon="0.88619">
        <ele>103.933951</ele>
        <time>2022-12-29T17:14:04.051Z</time>
      </trkpt>
      <trkpt lat="44.10573" lon="0.88621">
        <ele>103.834877</ele>
        <time>2022-12-29T17:14:10.058Z</time>
      </trkpt>
      <trkpt lat="44.10579" lon="0.88632">
        <ele>103.727239</ele>
        <time>2022-12-29T17:14:16.056Z</time>
      </trkpt>
      <trkpt lat="44.10585" lon="0.88643">
        <ele>103.627323</ele>
        <time>2022-12-29T17:14:21.049Z</time>
      </trkpt>
      <trkpt lat="44.10589" lon="0.88656">
        <ele>103.55212</ele>
        <time>2022-12-29T17:14:27.037Z</time>
      </trkpt>
      <trkpt lat="44.10594" lon="0.88669">
        <ele>103.67803</ele>
        <time>2022-12-29T17:14:32.046Z</time>
      </trkpt>
      <trkpt lat="44.10598" lon="0.88684">
        <ele>103.80759</ele>
        <time>2022-12-29T17:14:36.049Z</time>
      </trkpt>
      <trkpt lat="44.10604" lon="0.88695">
        <ele>103.928961</ele>
        <time>2022-12-29T17:14:40.039Z</time>
      </trkpt>
      <trkpt lat="44.10609" lon="0.88708">
        <ele>104.048434</ele>
        <time>2022-12-29T17:14:44.052Z</time>
      </trkpt>
      <trkpt lat="44.10615" lon="0.8872">
        <ele>104.170342</ele>
        <time>2022-12-29T17:14:48.051Z</time>
      </trkpt>
      <trkpt lat="44.10622" lon="0.88731">
        <ele>104.295406</ele>
        <time>2022-12-29T17:14:52.055Z</time>
      </trkpt>
      <trkpt lat="44.1063" lon="0.88742">
        <ele>104.419712</ele>
        <time>2022-12-29T17:14:55.051Z</time>
      </trkpt>
      <trkpt lat="44.10638" lon="0.88754">
        <ele>104.558251</ele>
        <time>2022-12-29T17:14:58.051Z</time>
      </trkpt>
      <trkpt lat="44.10645" lon="0.88763">
        <ele>104.674324</ele>
        <time>2022-12-29T17:15:00.038Z</time>
      </trkpt>
      <trkpt lat="44.10652" lon="0.88772">
        <ele>104.784383</ele>
        <time>2022-12-29T17:15:02.053Z</time>
      </trkpt>
      <trkpt lat="44.10659" lon="0.88781">
        <ele>104.892462</ele>
        <time>2022-12-29T17:15:04.049Z</time>
      </trkpt>
      <trkpt lat="44.10666" lon="0.88789">
        <ele>104.997467</ele>
        <time>2022-12-29T17:15:06.049Z</time>
      </trkpt>
      <trkpt lat="44.10674" lon="0.888">
        <ele>105.132375</ele>
        <time>2022-12-29T17:15:09.051Z</time>
      </trkpt>
      <trkpt lat="44.10682" lon="0.88811">
        <ele>105.257186</ele>
        <time>2022-12-29T17:15:13.054Z</time>
      </trkpt>
      <trkpt lat="44.10689" lon="0.88822">
        <ele>105.382137</ele>
        <time>2022-12-29T17:15:17.054Z</time>
      </trkpt>
      <trkpt lat="44.10691" lon="0.88835">
        <ele>105.48698</ele>
        <time>2022-12-29T17:15:21.064Z</time>
      </trkpt>
      <trkpt lat="44.10688" lon="0.88848">
        <ele>105.599962</ele>
        <time>2022-12-29T17:15:25.040Z</time>
      </trkpt>
      <trkpt lat="44.10688" lon="0.88861">
        <ele>105.629216</ele>
        <time>2022-12-29T17:15:29.051Z</time>
      </trkpt>
      <trkpt lat="44.10688" lon="0.88877">
        <ele>105.64179</ele>
        <time>2022-12-29T17:15:33.051Z</time>
      </trkpt>
      <trkpt lat="44.10685" lon="0.88892">
        <ele>105.653681</ele>
        <time>2022-12-29T17:15:37.049Z</time>
      </trkpt>
      <trkpt lat="44.1068" lon="0.88906">
        <ele>105.665872</ele>
        <time>2022-12-29T17:15:41.030Z</time>
      </trkpt>
      <trkpt lat="44.10675" lon="0.88921">
        <ele>105.678666</ele>
        <time>2022-12-29T17:15:45.055Z</time>
      </trkpt>
      <trkpt lat="44.10667" lon="0.8893">
        <ele>105.689618</ele>
        <time>2022-12-29T17:15:49.063Z</time>
      </trkpt>
      <trkpt lat="44.10661" lon="0.88939">
        <ele>105.699507</ele>
        <time>2022-12-29T17:15:52.061Z</time>
      </trkpt>
      <trkpt lat="44.10652" lon="0.88951">
        <ele>105.712553</ele>
        <time>2022-12-29T17:15:55.050Z</time>
      </trkpt>
      <trkpt lat="44.10643" lon="0.88957">
        <ele>105.723689</ele>
        <time>2022-12-29T17:15:58.048Z</time>
      </trkpt>
      <trkpt lat="44.10633" lon="0.88969">
        <ele>105.737666</ele>
        <time>2022-12-29T17:16:01.050Z</time>
      </trkpt>
      <trkpt lat="44.10627" lon="0.88984">
        <ele>105.751435</ele>
        <time>2022-12-29T17:16:04.052Z</time>
      </trkpt>
      <trkpt lat="44.10623" lon="0.88997">
        <ele>105.762622</ele>
        <time>2022-12-29T17:16:07.051Z</time>
      </trkpt>
      <trkpt lat="44.10618" lon="0.89011">
        <ele>105.774446</ele>
        <time>2022-12-29T17:16:10.050Z</time>
      </trkpt>
      <trkpt lat="44.10613" lon="0.89024">
        <ele>105.785656</ele>
        <time>2022-12-29T17:16:13.049Z</time>
      </trkpt>
      <trkpt lat="44.10609" lon="0.8904">
        <ele>105.798898</ele>
        <time>2022-12-29T17:16:16.051Z</time>
      </trkpt>
      <trkpt lat="44.10605" lon="0.89052">
        <ele>105.809619</ele>
        <time>2022-12-29T17:16:18.048Z</time>
      </trkpt>
      <trkpt lat="44.10602" lon="0.89066">
        <ele>105.920674</ele>
        <time>2022-12-29T17:16:20.052Z</time>
      </trkpt>
      <trkpt lat="44.10597" lon="0.89083">
        <ele>106.214126</ele>
        <time>2022-12-29T17:16:23.047Z</time>
      </trkpt>
      <trkpt lat="44.10592" lon="0.89097">
        <ele>106.449238</ele>
        <time>2022-12-29T17:16:25.049Z</time>
      </trkpt>
      <trkpt lat="44.10586" lon="0.89114">
        <ele>106.742502</ele>
        <time>2022-12-29T17:16:28.049Z</time>
      </trkpt>
      <trkpt lat="44.1058" lon="0.89128">
        <ele>106.996827</ele>
        <time>2022-12-29T17:16:31.028Z</time>
      </trkpt>
      <trkpt lat="44.10578" lon="0.89141">
        <ele>107.20446</ele>
        <time>2022-12-29T17:16:34.060Z</time>
      </trkpt>
      <trkpt lat="44.10576" lon="0.89154">
        <ele>107.40561</ele>
        <time>2022-12-29T17:16:37.048Z</time>
      </trkpt>
      <trkpt lat="44.10574" lon="0.89168">
        <ele>107.620595</ele>
        <time>2022-12-29T17:16:40.049Z</time>
      </trkpt>
      <trkpt lat="44.10573" lon="0.89182">
        <ele>107.845501</ele>
        <time>2022-12-29T17:16:44.042Z</time>
      </trkpt>
      <trkpt lat="44.10571" lon="0.89195">
        <ele>108.047626</ele>
        <time>2022-12-29T17:16:47.036Z</time>
      </trkpt>
      <trkpt lat="44.10568" lon="0.89206">
        <ele>108.244665</ele>
        <time>2022-12-29T17:16:50.056Z</time>
      </trkpt>
      <trkpt lat="44.10564" lon="0.8922">
        <ele>108.47221</ele>
        <time>2022-12-29T17:16:53.044Z</time>
      </trkpt>
      <trkpt lat="44.10552" lon="0.8923">
        <ele>108.776373</ele>
        <time>2022-12-29T17:16:56.048Z</time>
      </trkpt>
      <trkpt lat="44.10543" lon="0.89238">
        <ele>108.994685</ele>
        <time>2022-12-29T17:16:58.056Z</time>
      </trkpt>
      <trkpt lat="44.10534" lon="0.89245">
        <ele>109.220512</ele>
        <time>2022-12-29T17:17:00.034Z</time>
      </trkpt>
      <trkpt lat="44.10523" lon="0.89251">
        <ele>109.479092</ele>
        <time>2022-12-29T17:17:03.048Z</time>
      </trkpt>
      <trkpt lat="44.10514" lon="0.89256">
        <ele>109.697884</ele>
        <time>2022-12-29T17:17:07.050Z</time>
      </trkpt>
      <trkpt lat="44.10503" lon="0.89258">
        <ele>109.722253</ele>
        <time>2022-12-29T17:17:11.051Z</time>
      </trkpt>
      <trkpt lat="44.10492" lon="0.89258">
        <ele>109.736128</ele>
        <time>2022-12-29T17:17:15.057Z</time>
      </trkpt>
      <trkpt lat="44.10483" lon="0.89258">
        <ele>109.747407</ele>
        <time>2022-12-29T17:17:18.050Z</time>
      </trkpt>
      <trkpt lat="44.10472" lon="0.89257">
        <ele>109.761177</ele>
        <time>2022-12-29T17:17:22.125Z</time>
      </trkpt>
      <trkpt lat="44.1046" lon="0.89257">
        <ele>109.775795</ele>
        <time>2022-12-29T17:17:26.053Z</time>
      </trkpt>
      <trkpt lat="44.10448" lon="0.89257">
        <ele>109.789923</ele>
        <time>2022-12-29T17:17:30.052Z</time>
      </trkpt>
      <trkpt lat="44.10438" lon="0.89257">
        <ele>109.802683</ele>
        <time>2022-12-29T17:17:34.056Z</time>
      </trkpt>
      <trkpt lat="44.10428" lon="0.89257">
        <ele>109.814576</ele>
        <time>2022-12-29T17:17:38.048Z</time>
      </trkpt>
      <trkpt lat="44.10419" lon="0.89258">
        <ele>109.826609</ele>
        <time>2022-12-29T17:17:42.046Z</time>
      </trkpt>
      <trkpt lat="44.10409" lon="0.89258">
        <ele>109.838378</ele>
        <time>2022-12-29T17:17:46.054Z</time>
      </trkpt>
      <trkpt lat="44.104" lon="0.89258">
        <ele>109.849653</ele>
        <time>2022-12-29T17:17:50.047Z</time>
      </trkpt>
      <trkpt lat="44.1039" lon="0.89257">
        <ele>109.862334</ele>
        <time>2022-12-29T17:17:54.048Z</time>
      </trkpt>
      <trkpt lat="44.1038" lon="0.89256">
        <ele>109.874248</ele>
        <time>2022-12-29T17:17:58.033Z</time>
      </trkpt>
      <trkpt lat="44.10369" lon="0.89256">
        <ele>109.887878</ele>
        <time>2022-12-29T17:18:02.044Z</time>
      </trkpt>
      <trkpt lat="44.10358" lon="0.89256">
        <ele>109.901382</ele>
        <time>2022-12-29T17:18:06.064Z</time>
      </trkpt>
      <trkpt lat="44.10347" lon="0.89256">
        <ele>109.915753</ele>
        <time>2022-12-29T17:18:10.051Z</time>
      </trkpt>
      <trkpt lat="44.10337" lon="0.89255">
        <ele>109.927658</ele>
        <time>2022-12-29T17:18:13.048Z</time>
      </trkpt>
      <trkpt lat="44.10328" lon="0.89255">
        <ele>109.898766</ele>
        <time>2022-12-29T17:18:16.042Z</time>
      </trkpt>
      <trkpt lat="44.10317" lon="0.89255">
        <ele>109.833836</ele>
        <time>2022-12-29T17:18:20.050Z</time>
      </trkpt>
      <trkpt lat="44.10306" lon="0.89256">
        <ele>109.7622</ele>
        <time>2022-12-29T17:18:24.055Z</time>
      </trkpt>
      <trkpt lat="44.10296" lon="0.89255">
        <ele>109.703325</ele>
        <time>2022-12-29T17:18:27.049Z</time>
      </trkpt>
      <trkpt lat="44.10286" lon="0.89256">
        <ele>109.646271</ele>
        <time>2022-12-29T17:18:30.051Z</time>
      </trkpt>
      <trkpt lat="44.10275" lon="0.89255">
        <ele>109.577089</ele>
        <time>2022-12-29T17:18:34.037Z</time>
      </trkpt>
      <trkpt lat="44.10265" lon="0.89254">
        <ele>109.516145</ele>
        <time>2022-12-29T17:18:38.053Z</time>
      </trkpt>
      <trkpt lat="44.10255" lon="0.89251">
        <ele>109.451515</ele>
        <time>2022-12-29T17:18:42.064Z</time>
      </trkpt>
      <trkpt lat="44.10244" lon="0.89251">
        <ele>109.38718</ele>
        <time>2022-12-29T17:18:46.036Z</time>
      </trkpt>
      <trkpt lat="44.10235" lon="0.89251">
        <ele>109.331954</ele>
        <time>2022-12-29T17:18:50.038Z</time>
      </trkpt>
      <trkpt lat="44.10225" lon="0.8925">
        <ele>109.273642</ele>
        <time>2022-12-29T17:18:54.033Z</time>
      </trkpt>
      <trkpt lat="44.10215" lon="0.89251">
        <ele>109.212256</ele>
        <time>2022-12-29T17:18:58.047Z</time>
      </trkpt>
      <trkpt lat="44.10205" lon="0.8925">
        <ele>109.152125</ele>
        <time>2022-12-29T17:19:02.047Z</time>
      </trkpt>
      <trkpt lat="44.10195" lon="0.89248">
        <ele>109.08904</ele>
        <time>2022-12-29T17:19:06.048Z</time>
      </trkpt>
      <trkpt lat="44.10185" lon="0.89242">
        <ele>109.025246</ele>
        <time>2022-12-29T17:19:10.050Z</time>
      </trkpt>
      <trkpt lat="44.10176" lon="0.89236">
        <ele>108.961561</ele>
        <time>2022-12-29T17:19:14.059Z</time>
      </trkpt>
      <trkpt lat="44.10168" lon="0.89229">
        <ele>108.905253</ele>
        <time>2022-12-29T17:19:17.047Z</time>
      </trkpt>
      <trkpt lat="44.10161" lon="0.89219">
        <ele>108.843281</ele>
        <time>2022-12-29T17:19:20.051Z</time>
      </trkpt>
      <trkpt lat="44.10154" lon="0.89209">
        <ele>108.548031</ele>
        <time>2022-12-29T17:19:23.028Z</time>
      </trkpt>
      <trkpt lat="44.10147" lon="0.89197">
        <ele>108.229037</ele>
        <time>2022-12-29T17:19:26.044Z</time>
      </trkpt>
      <trkpt lat="44.10142" lon="0.89184">
        <ele>107.913038</ele>
        <time>2022-12-29T17:19:29.037Z</time>
      </trkpt>
      <trkpt lat="44.10137" lon="0.8917">
        <ele>107.575477</ele>
        <time>2022-12-29T17:19:32.057Z</time>
      </trkpt>
      <trkpt lat="44.10133" lon="0.89155">
        <ele>107.239829</ele>
        <time>2022-12-29T17:19:35.037Z</time>
      </trkpt>
      <trkpt lat="44.10129" lon="0.89141">
        <ele>106.910115</ele>
        <time>2022-12-29T17:19:38.049Z</time>
      </trkpt>
      <trkpt lat="44.10125" lon="0.89128">
        <ele>106.607477</ele>
        <time>2022-12-29T17:19:41.050Z</time>
      </trkpt>
      <trkpt lat="44.10121" lon="0.89115">
        <ele>106.307941</ele>
        <time>2022-12-29T17:19:44.040Z</time>
      </trkpt>
      <trkpt lat="44.10117" lon="0.89102">
        <ele>106.019629</ele>
        <time>2022-12-29T17:19:47.051Z</time>
      </trkpt>
      <trkpt lat="44.10115" lon="0.89089">
        <ele>105.71975</ele>
        <time>2022-12-29T17:19:51.053Z</time>
      </trkpt>
      <trkpt lat="44.1011" lon="0.89077">
        <ele>105.428472</ele>
        <time>2022-12-29T17:19:55.049Z</time>
      </trkpt>
      <trkpt lat="44.10105" lon="0.89064">
        <ele>105.120181</ele>
        <time>2022-12-29T17:20:00.046Z</time>
      </trkpt>
      <trkpt lat="44.10097" lon="0.89053">
        <ele>104.793365</ele>
        <time>2022-12-29T17:20:16.053Z</time>
      </trkpt>
      <trkpt lat="44.10088" lon="0.8905">
        <ele>104.525397</ele>
        <time>2022-12-29T17:20:20.040Z</time>
      </trkpt>
      <trkpt lat="44.10078" lon="0.89054">
        <ele>104.213341</ele>
        <time>2022-12-29T17:20:24.032Z</time>
      </trkpt>
      <trkpt lat="44.10069" lon="0.89056">
        <ele>103.938488</ele>
        <time>2022-12-29T17:20:27.051Z</time>
      </trkpt>
      <trkpt lat="44.10058" lon="0.89053">
        <ele>103.603247</ele>
        <time>2022-12-29T17:20:30.049Z</time>
      </trkpt>
      <trkpt lat="44.10045" lon="0.89049">
        <ele>103.399457</ele>
        <time>2022-12-29T17:20:33.033Z</time>
      </trkpt>
      <trkpt lat="44.10036" lon="0.89047">
        <ele>103.303554</ele>
        <time>2022-12-29T17:20:35.049Z</time>
      </trkpt>
      <trkpt lat="44.10026" lon="0.89044">
        <ele>103.199495</ele>
        <time>2022-12-29T17:20:37.032Z</time>
      </trkpt>
      <trkpt lat="44.10016" lon="0.89041">
        <ele>103.100917</ele>
        <time>2022-12-29T17:20:39.040Z</time>
      </trkpt>
      <trkpt lat="44.10006" lon="0.89039">
        <ele>103.00376</ele>
        <time>2022-12-29T17:20:41.056Z</time>
      </trkpt>
      <trkpt lat="44.09997" lon="0.89036">
        <ele>102.901606</ele>
        <time>2022-12-29T17:20:43.051Z</time>
      </trkpt>
      <trkpt lat="44.09984" lon="0.89033">
        <ele>102.77059</ele>
        <time>2022-12-29T17:20:46.045Z</time>
      </trkpt>
      <trkpt lat="44.09971" lon="0.89031">
        <ele>102.640169</ele>
        <time>2022-12-29T17:20:49.059Z</time>
      </trkpt>
      <trkpt lat="44.09959" lon="0.89029">
        <ele>102.520049</ele>
        <time>2022-12-29T17:20:52.060Z</time>
      </trkpt>
      <trkpt lat="44.09948" lon="0.89027">
        <ele>102.409721</ele>
        <time>2022-12-29T17:20:55.053Z</time>
      </trkpt>
      <trkpt lat="44.09938" lon="0.89026">
        <ele>102.306998</ele>
        <time>2022-12-29T17:20:58.055Z</time>
      </trkpt>
      <trkpt lat="44.09928" lon="0.89024">
        <ele>102.207064</ele>
        <time>2022-12-29T17:21:01.060Z</time>
      </trkpt>
      <trkpt lat="44.09919" lon="0.89023">
        <ele>102.116516</ele>
        <time>2022-12-29T17:21:04.061Z</time>
      </trkpt>
      <trkpt lat="44.09909" lon="0.89021">
        <ele>102.02074</ele>
        <time>2022-12-29T17:21:07.041Z</time>
      </trkpt>
      <trkpt lat="44.099" lon="0.89019">
        <ele>101.92002</ele>
        <time>2022-12-29T17:21:10.040Z</time>
      </trkpt>
      <trkpt lat="44.09889" lon="0.89016">
        <ele>101.816441</ele>
        <time>2022-12-29T17:21:13.054Z</time>
      </trkpt>
      <trkpt lat="44.0988" lon="0.89015">
        <ele>101.72548</ele>
        <time>2022-12-29T17:21:16.059Z</time>
      </trkpt>
      <trkpt lat="44.09871" lon="0.89013">
        <ele>101.690604</ele>
        <time>2022-12-29T17:21:20.035Z</time>
      </trkpt>
      <trkpt lat="44.0986" lon="0.89009">
        <ele>101.690604</ele>
        <time>2022-12-29T17:21:24.039Z</time>
      </trkpt>
      <trkpt lat="44.09851" lon="0.89007">
        <ele>101.690604</ele>
        <time>2022-12-29T17:21:27.054Z</time>
      </trkpt>
      <trkpt lat="44.09841" lon="0.89005">
        <ele>101.690604</ele>
        <time>2022-12-29T17:21:30.067Z</time>
      </trkpt>
      <trkpt lat="44.09832" lon="0.89003">
        <ele>101.690604</ele>
        <time>2022-12-29T17:21:33.051Z</time>
      </trkpt>
      <trkpt lat="44.09821" lon="0.89001">
        <ele>101.690604</ele>
        <time>2022-12-29T17:21:37.052Z</time>
      </trkpt>
      <trkpt lat="44.0981" lon="0.88998">
        <ele>101.690604</ele>
        <time>2022-12-29T17:21:41.068Z</time>
      </trkpt>
      <trkpt lat="44.09802" lon="0.89004">
        <ele>101.690604</ele>
        <time>2022-12-29T17:21:56.076Z</time>
      </trkpt>
      <trkpt lat="44.09793" lon="0.89001">
        <ele>101.690604</ele>
        <time>2022-12-29T17:22:07.056Z</time>
      </trkpt>
      <trkpt lat="44.09784" lon="0.88997">
        <ele>101.690604</ele>
        <time>2022-12-29T17:22:12.081Z</time>
      </trkpt>
      <trkpt lat="44.09773" lon="0.88994">
        <ele>101.690604</ele>
        <time>2022-12-29T17:22:17.037Z</time>
      </trkpt>
      <trkpt lat="44.09762" lon="0.88992">
        <ele>101.690604</ele>
        <time>2022-12-29T17:22:21.051Z</time>
      </trkpt>
      <trkpt lat="44.09752" lon="0.88989">
        <ele>101.690604</ele>
        <time>2022-12-29T17:22:24.053Z</time>
      </trkpt>
      <trkpt lat="44.09742" lon="0.88986">
        <ele>101.690604</ele>
        <time>2022-12-29T17:22:27.050Z</time>
      </trkpt>
      <trkpt lat="44.09731" lon="0.88984">
        <ele>101.690604</ele>
        <time>2022-12-29T17:22:31.055Z</time>
      </trkpt>
      <trkpt lat="44.09721" lon="0.88979">
        <ele>101.690604</ele>
        <time>2022-12-29T17:22:36.054Z</time>
      </trkpt>
      <trkpt lat="44.09711" lon="0.88977">
        <ele>101.690604</ele>
        <time>2022-12-29T17:22:40.056Z</time>
      </trkpt>
      <trkpt lat="44.097" lon="0.88975">
        <ele>101.690604</ele>
        <time>2022-12-29T17:22:44.056Z</time>
      </trkpt>
      <trkpt lat="44.0969" lon="0.88972">
        <ele>101.690604</ele>
        <time>2022-12-29T17:22:48.055Z</time>
      </trkpt>
      <trkpt lat="44.0968" lon="0.88969">
        <ele>101.690604</ele>
        <time>2022-12-29T17:22:53.056Z</time>
      </trkpt>
      <trkpt lat="44.09671" lon="0.88964">
        <ele>101.690604</ele>
        <time>2022-12-29T17:22:58.054Z</time>
      </trkpt>
      <trkpt lat="44.09666" lon="0.88963">
        <ele>101.690604</ele>
        <time>2022-12-29T17:23:49.397Z</time>
        <extensions>
          <visugpx:TrkExtension xmlns:visugpx="https://www.visugpx.com/editgpx/">
            <visugpx:node>1</visugpx:node>
            </visugpx:TrkExtension>
        </extensions>
      </trkpt>
    </trkseg>
  </trk>
  <trk>
    <name><![CDATA[Valence d'Agen - Fabas]]></name>
    <extensions>
      <line xmlns="http://www.topografix.com/GPX/gpx_style/0/2">
        <color>ff0000</color>
        <width>4</width>
      </line>
    </extensions>
    <trkseg>
      <trkpt lat="44.09838" lon="0.89072">
        <ele>104.783463</ele>
        <time>2022-12-30T11:19:18.010Z</time>
      </trkpt>
      <trkpt lat="44.09817" lon="0.89056">
        <ele>104.783463</ele>
        <time>2022-12-30T11:22:42.317Z</time>
      </trkpt>
      <trkpt lat="44.09808" lon="0.89059">
        <ele>104.783463</ele>
        <time>2022-12-30T11:22:47.325Z</time>
      </trkpt>
      <trkpt lat="44.09803" lon="0.89049">
        <ele>104.783463</ele>
        <time>2022-12-30T11:22:52.318Z</time>
      </trkpt>
      <trkpt lat="44.09803" lon="0.89035">
        <ele>104.783463</ele>
        <time>2022-12-30T11:22:56.336Z</time>
      </trkpt>
      <trkpt lat="44.09805" lon="0.89021">
        <ele>104.783463</ele>
        <time>2022-12-30T11:23:00.335Z</time>
      </trkpt>
      <trkpt lat="44.09806" lon="0.89007">
        <ele>104.783463</ele>
        <time>2022-12-30T11:23:04.334Z</time>
      </trkpt>
      <trkpt lat="44.09816" lon="0.89004">
        <ele>104.783463</ele>
        <time>2022-12-30T11:23:09.316Z</time>
      </trkpt>
      <trkpt lat="44.09827" lon="0.89007">
        <ele>104.789036</ele>
        <time>2022-12-30T11:23:13.322Z</time>
      </trkpt>
      <trkpt lat="44.09837" lon="0.8901">
        <ele>104.804518</ele>
        <time>2022-12-30T11:23:16.331Z</time>
      </trkpt>
      <trkpt lat="44.09848" lon="0.89013">
        <ele>104.821448</ele>
        <time>2022-12-30T11:23:19.333Z</time>
      </trkpt>
      <trkpt lat="44.0986" lon="0.89016">
        <ele>104.839664</ele>
        <time>2022-12-30T11:23:22.340Z</time>
      </trkpt>
      <trkpt lat="44.0987" lon="0.89019">
        <ele>104.855873</ele>
        <time>2022-12-30T11:23:25.331Z</time>
      </trkpt>
      <trkpt lat="44.09881" lon="0.89021">
        <ele>104.873118</ele>
        <time>2022-12-30T11:23:28.335Z</time>
      </trkpt>
      <trkpt lat="44.09893" lon="0.89024">
        <ele>104.89125</ele>
        <time>2022-12-30T11:23:31.332Z</time>
      </trkpt>
      <trkpt lat="44.09903" lon="0.89026">
        <ele>104.906641</ele>
        <time>2022-12-30T11:23:34.331Z</time>
      </trkpt>
      <trkpt lat="44.09914" lon="0.89029">
        <ele>104.923891</ele>
        <time>2022-12-30T11:23:37.336Z</time>
      </trkpt>
      <trkpt lat="44.09926" lon="0.89031">
        <ele>104.942297</ele>
        <time>2022-12-30T11:23:40.334Z</time>
      </trkpt>
      <trkpt lat="44.09938" lon="0.89033">
        <ele>104.960551</ele>
        <time>2022-12-30T11:23:43.314Z</time>
      </trkpt>
      <trkpt lat="44.09951" lon="0.89035">
        <ele>104.979323</ele>
        <time>2022-12-30T11:23:46.330Z</time>
      </trkpt>
      <trkpt lat="44.09962" lon="0.89036">
        <ele>104.996632</ele>
        <time>2022-12-30T11:23:49.327Z</time>
      </trkpt>
      <trkpt lat="44.09973" lon="0.89038">
        <ele>105.014118</ele>
        <time>2022-12-30T11:23:52.331Z</time>
      </trkpt>
      <trkpt lat="44.09984" lon="0.89041">
        <ele>105.031135</ele>
        <time>2022-12-30T11:23:55.315Z</time>
      </trkpt>
      <trkpt lat="44.09995" lon="0.89044">
        <ele>105.047746</ele>
        <time>2022-12-30T11:23:58.333Z</time>
      </trkpt>
      <trkpt lat="44.10006" lon="0.89047">
        <ele>105.176361</ele>
        <time>2022-12-30T11:24:01.334Z</time>
      </trkpt>
      <trkpt lat="44.10016" lon="0.8905">
        <ele>105.420349</ele>
        <time>2022-12-30T11:24:04.335Z</time>
      </trkpt>
      <trkpt lat="44.10025" lon="0.89053">
        <ele>105.640439</ele>
        <time>2022-12-30T11:24:07.331Z</time>
      </trkpt>
      <trkpt lat="44.10034" lon="0.89055">
        <ele>105.862913</ele>
        <time>2022-12-30T11:24:10.331Z</time>
      </trkpt>
      <trkpt lat="44.10043" lon="0.89057">
        <ele>106.1029</ele>
        <time>2022-12-30T11:24:14.330Z</time>
      </trkpt>
      <trkpt lat="44.10054" lon="0.89061">
        <ele>106.377016</ele>
        <time>2022-12-30T11:24:19.333Z</time>
      </trkpt>
      <trkpt lat="44.10064" lon="0.89063">
        <ele>106.62368</ele>
        <time>2022-12-30T11:24:23.334Z</time>
      </trkpt>
      <trkpt lat="44.10074" lon="0.89066">
        <ele>106.867954</ele>
        <time>2022-12-30T11:24:28.330Z</time>
      </trkpt>
      <trkpt lat="44.10083" lon="0.89071">
        <ele>107.10587</ele>
        <time>2022-12-30T11:24:33.324Z</time>
      </trkpt>
      <trkpt lat="44.10092" lon="0.89079">
        <ele>107.365883</ele>
        <time>2022-12-30T11:24:38.330Z</time>
      </trkpt>
      <trkpt lat="44.10096" lon="0.89091">
        <ele>107.600723</ele>
        <time>2022-12-30T11:24:42.323Z</time>
      </trkpt>
      <trkpt lat="44.101" lon="0.89104">
        <ele>107.84133</ele>
        <time>2022-12-30T11:24:46.330Z</time>
      </trkpt>
      <trkpt lat="44.10106" lon="0.89116">
        <ele>108.085463</ele>
        <time>2022-12-30T11:24:50.321Z</time>
      </trkpt>
      <trkpt lat="44.10109" lon="0.89129">
        <ele>108.326676</ele>
        <time>2022-12-30T11:24:54.331Z</time>
      </trkpt>
      <trkpt lat="44.10113" lon="0.89141">
        <ele>108.558963</ele>
        <time>2022-12-30T11:24:58.316Z</time>
      </trkpt>
      <trkpt lat="44.10117" lon="0.89154">
        <ele>108.801188</ele>
        <time>2022-12-30T11:25:02.331Z</time>
      </trkpt>
      <trkpt lat="44.10121" lon="0.89167">
        <ele>109.061368</ele>
        <time>2022-12-30T11:25:07.333Z</time>
      </trkpt>
      <trkpt lat="44.10124" lon="0.89182">
        <ele>109.327302</ele>
        <time>2022-12-30T11:25:12.330Z</time>
      </trkpt>
      <trkpt lat="44.1013" lon="0.89196">
        <ele>109.575345</ele>
        <time>2022-12-30T11:25:17.330Z</time>
      </trkpt>
      <trkpt lat="44.10135" lon="0.89207">
        <ele>109.771385</ele>
        <time>2022-12-30T11:25:21.315Z</time>
      </trkpt>
      <trkpt lat="44.10139" lon="0.89218">
        <ele>109.960723</ele>
        <time>2022-12-30T11:25:25.331Z</time>
      </trkpt>
      <trkpt lat="44.10143" lon="0.8923">
        <ele>110.163955</ele>
        <time>2022-12-30T11:25:29.312Z</time>
      </trkpt>
      <trkpt lat="44.10148" lon="0.89242">
        <ele>110.367187</ele>
        <time>2022-12-30T11:25:33.312Z</time>
      </trkpt>
      <trkpt lat="44.10149" lon="0.89257">
        <ele>110.592273</ele>
        <time>2022-12-30T11:25:38.333Z</time>
      </trkpt>
      <trkpt lat="44.10152" lon="0.89269">
        <ele>110.781056</ele>
        <time>2022-12-30T11:25:42.332Z</time>
      </trkpt>
      <trkpt lat="44.10157" lon="0.8928">
        <ele>110.988482</ele>
        <time>2022-12-30T11:25:46.331Z</time>
      </trkpt>
      <trkpt lat="44.10166" lon="0.89285">
        <ele>111.190867</ele>
        <time>2022-12-30T11:25:50.331Z</time>
      </trkpt>
      <trkpt lat="44.10176" lon="0.89279">
        <ele>111.422843</ele>
        <time>2022-12-30T11:25:55.319Z</time>
      </trkpt>
      <trkpt lat="44.10184" lon="0.89272">
        <ele>111.615719</ele>
        <time>2022-12-30T11:25:59.313Z</time>
      </trkpt>
      <trkpt lat="44.10195" lon="0.89269">
        <ele>111.843604</ele>
        <time>2022-12-30T11:26:03.325Z</time>
      </trkpt>
      <trkpt lat="44.10205" lon="0.89268">
        <ele>112.055515</ele>
        <time>2022-12-30T11:26:07.330Z</time>
      </trkpt>
      <trkpt lat="44.10216" lon="0.89268">
        <ele>112.272952</ele>
        <time>2022-12-30T11:26:11.329Z</time>
      </trkpt>
      <trkpt lat="44.10226" lon="0.89269">
        <ele>112.484528</ele>
        <time>2022-12-30T11:26:15.334Z</time>
      </trkpt>
      <trkpt lat="44.10237" lon="0.89269">
        <ele>112.712397</ele>
        <time>2022-12-30T11:26:19.338Z</time>
      </trkpt>
      <trkpt lat="44.10249" lon="0.89269">
        <ele>112.969572</ele>
        <time>2022-12-30T11:26:23.333Z</time>
      </trkpt>
      <trkpt lat="44.10258" lon="0.89269">
        <ele>113.157744</ele>
        <time>2022-12-30T11:26:26.323Z</time>
      </trkpt>
      <trkpt lat="44.1027" lon="0.89269">
        <ele>112.811898</ele>
        <time>2022-12-30T11:26:30.335Z</time>
      </trkpt>
      <trkpt lat="44.10279" lon="0.89269">
        <ele>112.490548</ele>
        <time>2022-12-30T11:26:33.333Z</time>
      </trkpt>
      <trkpt lat="44.10289" lon="0.89268">
        <ele>112.129917</ele>
        <time>2022-12-30T11:26:37.334Z</time>
      </trkpt>
      <trkpt lat="44.103" lon="0.89268">
        <ele>111.730805</ele>
        <time>2022-12-30T11:26:41.332Z</time>
      </trkpt>
      <trkpt lat="44.1031" lon="0.89267">
        <ele>111.405676</ele>
        <time>2022-12-30T11:26:44.335Z</time>
      </trkpt>
      <trkpt lat="44.1032" lon="0.89267">
        <ele>111.034888</ele>
        <time>2022-12-30T11:26:48.333Z</time>
      </trkpt>
      <trkpt lat="44.10331" lon="0.89268">
        <ele>110.63925</ele>
        <time>2022-12-30T11:26:52.329Z</time>
      </trkpt>
      <trkpt lat="44.1034" lon="0.89268">
        <ele>110.31789</ele>
        <time>2022-12-30T11:26:55.331Z</time>
      </trkpt>
      <trkpt lat="44.10351" lon="0.89268">
        <ele>109.957695</ele>
        <time>2022-12-30T11:26:59.332Z</time>
      </trkpt>
      <trkpt lat="44.1036" lon="0.89267">
        <ele>109.629243</ele>
        <time>2022-12-30T11:27:03.335Z</time>
      </trkpt>
      <trkpt lat="44.10369" lon="0.89267">
        <ele>109.293681</ele>
        <time>2022-12-30T11:27:07.329Z</time>
      </trkpt>
      <trkpt lat="44.1038" lon="0.89267">
        <ele>108.915822</ele>
        <time>2022-12-30T11:27:12.331Z</time>
      </trkpt>
      <trkpt lat="44.10389" lon="0.89268">
        <ele>108.59014</ele>
        <time>2022-12-30T11:27:15.329Z</time>
      </trkpt>
      <trkpt lat="44.10398" lon="0.89268">
        <ele>108.265219</ele>
        <time>2022-12-30T11:27:18.334Z</time>
      </trkpt>
      <trkpt lat="44.10409" lon="0.89268">
        <ele>107.901484</ele>
        <time>2022-12-30T11:27:22.340Z</time>
      </trkpt>
      <trkpt lat="44.10419" lon="0.89268">
        <ele>107.534227</ele>
        <time>2022-12-30T11:27:26.333Z</time>
      </trkpt>
      <trkpt lat="44.10429" lon="0.89269">
        <ele>107.181013</ele>
        <time>2022-12-30T11:27:29.335Z</time>
      </trkpt>
      <trkpt lat="44.1044" lon="0.89269">
        <ele>106.819809</ele>
        <time>2022-12-30T11:27:32.331Z</time>
      </trkpt>
      <trkpt lat="44.10452" lon="0.89268">
        <ele>106.650607</ele>
        <time>2022-12-30T11:27:36.313Z</time>
      </trkpt>
      <trkpt lat="44.10464" lon="0.89268">
        <ele>106.496505</ele>
        <time>2022-12-30T11:27:39.333Z</time>
      </trkpt>
      <trkpt lat="44.10475" lon="0.89269">
        <ele>106.338288</ele>
        <time>2022-12-30T11:27:42.339Z</time>
      </trkpt>
      <trkpt lat="44.10486" lon="0.89269">
        <ele>106.191007</ele>
        <time>2022-12-30T11:27:45.331Z</time>
      </trkpt>
      <trkpt lat="44.10495" lon="0.89269">
        <ele>106.062725</ele>
        <time>2022-12-30T11:27:48.333Z</time>
      </trkpt>
      <trkpt lat="44.10495" lon="0.89282">
        <ele>105.938176</ele>
        <time>2022-12-30T11:27:54.326Z</time>
      </trkpt>
      <trkpt lat="44.10485" lon="0.89288">
        <ele>105.788901</ele>
        <time>2022-12-30T11:27:57.316Z</time>
      </trkpt>
      <trkpt lat="44.10472" lon="0.89291">
        <ele>105.612899</ele>
        <time>2022-12-30T11:28:00.330Z</time>
      </trkpt>
      <trkpt lat="44.10462" lon="0.8929">
        <ele>105.474816</ele>
        <time>2022-12-30T11:28:03.320Z</time>
      </trkpt>
      <trkpt lat="44.10453" lon="0.89292">
        <ele>105.347253</ele>
        <time>2022-12-30T11:28:08.314Z</time>
      </trkpt>
      <trkpt lat="44.10442" lon="0.89291">
        <ele>105.196986</ele>
        <time>2022-12-30T11:28:13.315Z</time>
      </trkpt>
      <trkpt lat="44.10432" lon="0.8929">
        <ele>105.067065</ele>
        <time>2022-12-30T11:28:17.333Z</time>
      </trkpt>
      <trkpt lat="44.10423" lon="0.89288">
        <ele>104.944125</ele>
        <time>2022-12-30T11:28:21.332Z</time>
      </trkpt>
      <trkpt lat="44.10413" lon="0.89293">
        <ele>104.79566</ele>
        <time>2022-12-30T11:28:25.309Z</time>
      </trkpt>
      <trkpt lat="44.10408" lon="0.89305">
        <ele>104.65313</ele>
        <time>2022-12-30T11:28:29.318Z</time>
      </trkpt>
      <trkpt lat="44.10408" lon="0.8932">
        <ele>104.505163</ele>
        <time>2022-12-30T11:28:32.317Z</time>
      </trkpt>
      <trkpt lat="44.1041" lon="0.89338">
        <ele>104.376355</ele>
        <time>2022-12-30T11:28:35.318Z</time>
      </trkpt>
      <trkpt lat="44.10412" lon="0.89351">
        <ele>104.368199</ele>
        <time>2022-12-30T11:28:37.329Z</time>
      </trkpt>
      <trkpt lat="44.10414" lon="0.89369">
        <ele>104.356986</ele>
        <time>2022-12-30T11:28:40.330Z</time>
      </trkpt>
      <trkpt lat="44.10417" lon="0.89385">
        <ele>104.34673</ele>
        <time>2022-12-30T11:28:43.332Z</time>
      </trkpt>
      <trkpt lat="44.10417" lon="0.89399">
        <ele>104.337918</ele>
        <time>2022-12-30T11:28:46.333Z</time>
      </trkpt>
      <trkpt lat="44.10418" lon="0.89415">
        <ele>104.328009</ele>
        <time>2022-12-30T11:28:50.314Z</time>
      </trkpt>
      <trkpt lat="44.10417" lon="0.89428">
        <ele>104.320092</ele>
        <time>2022-12-30T11:28:53.339Z</time>
      </trkpt>
      <trkpt lat="44.10417" lon="0.89441">
        <ele>104.311545</ele>
        <time>2022-12-30T11:28:56.332Z</time>
      </trkpt>
      <trkpt lat="44.10416" lon="0.89455">
        <ele>104.302999</ele>
        <time>2022-12-30T11:28:59.313Z</time>
      </trkpt>
      <trkpt lat="44.10417" lon="0.89468">
        <ele>104.294628</ele>
        <time>2022-12-30T11:29:02.333Z</time>
      </trkpt>
      <trkpt lat="44.10417" lon="0.89482">
        <ele>104.286148</ele>
        <time>2022-12-30T11:29:05.336Z</time>
      </trkpt>
      <trkpt lat="44.10418" lon="0.89496">
        <ele>104.277484</ele>
        <time>2022-12-30T11:29:08.333Z</time>
      </trkpt>
      <trkpt lat="44.10417" lon="0.8951">
        <ele>104.268879</ele>
        <time>2022-12-30T11:29:11.332Z</time>
      </trkpt>
      <trkpt lat="44.10417" lon="0.89523">
        <ele>104.260527</ele>
        <time>2022-12-30T11:29:14.330Z</time>
      </trkpt>
      <trkpt lat="44.10417" lon="0.89537">
        <ele>104.251616</ele>
        <time>2022-12-30T11:29:17.314Z</time>
      </trkpt>
      <trkpt lat="44.10418" lon="0.89551">
        <ele>104.24299</ele>
        <time>2022-12-30T11:29:20.330Z</time>
      </trkpt>
      <trkpt lat="44.10418" lon="0.89565">
        <ele>104.234143</ele>
        <time>2022-12-30T11:29:23.339Z</time>
      </trkpt>
      <trkpt lat="44.10418" lon="0.89581">
        <ele>104.22461</ele>
        <time>2022-12-30T11:29:26.317Z</time>
      </trkpt>
      <trkpt lat="44.10418" lon="0.89596">
        <ele>104.153408</ele>
        <time>2022-12-30T11:29:29.330Z</time>
      </trkpt>
      <trkpt lat="44.10417" lon="0.89612">
        <ele>104.074174</ele>
        <time>2022-12-30T11:29:32.329Z</time>
      </trkpt>
      <trkpt lat="44.10417" lon="0.89628">
        <ele>103.994542</ele>
        <time>2022-12-30T11:29:35.336Z</time>
      </trkpt>
      <trkpt lat="44.10416" lon="0.89645">
        <ele>103.910381</ele>
        <time>2022-12-30T11:29:38.333Z</time>
      </trkpt>
      <trkpt lat="44.10416" lon="0.89662">
        <ele>103.825246</ele>
        <time>2022-12-30T11:29:41.343Z</time>
      </trkpt>
      <trkpt lat="44.10415" lon="0.89679">
        <ele>103.741111</ele>
        <time>2022-12-30T11:29:44.314Z</time>
      </trkpt>
      <trkpt lat="44.10415" lon="0.89695">
        <ele>103.658998</ele>
        <time>2022-12-30T11:29:47.335Z</time>
      </trkpt>
      <trkpt lat="44.10416" lon="0.89711">
        <ele>103.579365</ele>
        <time>2022-12-30T11:29:50.335Z</time>
      </trkpt>
      <trkpt lat="44.10415" lon="0.89728">
        <ele>103.493772</ele>
        <time>2022-12-30T11:29:53.332Z</time>
      </trkpt>
      <trkpt lat="44.10416" lon="0.89744">
        <ele>103.413579</ele>
        <time>2022-12-30T11:29:56.330Z</time>
      </trkpt>
      <trkpt lat="44.10416" lon="0.89758">
        <ele>103.343505</ele>
        <time>2022-12-30T11:29:59.333Z</time>
      </trkpt>
      <trkpt lat="44.10416" lon="0.89772">
        <ele>103.273345</ele>
        <time>2022-12-30T11:30:02.317Z</time>
      </trkpt>
      <trkpt lat="44.10416" lon="0.89788">
        <ele>103.195262</ele>
        <time>2022-12-30T11:30:05.334Z</time>
      </trkpt>
      <trkpt lat="44.10415" lon="0.89801">
        <ele>103.128159</ele>
        <time>2022-12-30T11:30:08.333Z</time>
      </trkpt>
      <trkpt lat="44.10415" lon="0.89817">
        <ele>103.048965</ele>
        <time>2022-12-30T11:30:11.330Z</time>
      </trkpt>
      <trkpt lat="44.10413" lon="0.89834">
        <ele>102.965708</ele>
        <time>2022-12-30T11:30:14.312Z</time>
      </trkpt>
      <trkpt lat="44.10412" lon="0.8985">
        <ele>102.912749</ele>
        <time>2022-12-30T11:30:17.333Z</time>
      </trkpt>
      <trkpt lat="44.1041" lon="0.89866">
        <ele>102.857642</ele>
        <time>2022-12-30T11:30:20.331Z</time>
      </trkpt>
      <trkpt lat="44.10409" lon="0.89883">
        <ele>102.80231</ele>
        <time>2022-12-30T11:30:23.333Z</time>
      </trkpt>
      <trkpt lat="44.10407" lon="0.89898">
        <ele>102.750114</ele>
        <time>2022-12-30T11:30:26.333Z</time>
      </trkpt>
      <trkpt lat="44.10404" lon="0.89914">
        <ele>102.696525</ele>
        <time>2022-12-30T11:30:29.331Z</time>
      </trkpt>
      <trkpt lat="44.10402" lon="0.89931">
        <ele>102.640953</ele>
        <time>2022-12-30T11:30:32.332Z</time>
      </trkpt>
      <trkpt lat="44.10398" lon="0.89948">
        <ele>102.581911</ele>
        <time>2022-12-30T11:30:35.333Z</time>
      </trkpt>
      <trkpt lat="44.10394" lon="0.89964">
        <ele>102.525738</ele>
        <time>2022-12-30T11:30:38.312Z</time>
      </trkpt>
      <trkpt lat="44.10391" lon="0.89979">
        <ele>102.47144</ele>
        <time>2022-12-30T11:30:41.316Z</time>
      </trkpt>
      <trkpt lat="44.10385" lon="0.89994">
        <ele>102.416765</ele>
        <time>2022-12-30T11:30:44.328Z</time>
      </trkpt>
      <trkpt lat="44.10381" lon="0.9001">
        <ele>102.35948</ele>
        <time>2022-12-30T11:30:47.314Z</time>
      </trkpt>
      <trkpt lat="44.10377" lon="0.90027">
        <ele>102.301907</ele>
        <time>2022-12-30T11:30:50.331Z</time>
      </trkpt>
      <trkpt lat="44.10373" lon="0.90041">
        <ele>102.251479</ele>
        <time>2022-12-30T11:30:53.314Z</time>
      </trkpt>
      <trkpt lat="44.10371" lon="0.90056">
        <ele>102.201963</ele>
        <time>2022-12-30T11:30:56.334Z</time>
      </trkpt>
      <trkpt lat="44.10369" lon="0.9007">
        <ele>102.152871</ele>
        <time>2022-12-30T11:30:59.314Z</time>
      </trkpt>
      <trkpt lat="44.10367" lon="0.90083">
        <ele>102.126324</ele>
        <time>2022-12-30T11:31:02.332Z</time>
      </trkpt>
      <trkpt lat="44.10367" lon="0.90098">
        <ele>102.102582</ele>
        <time>2022-12-30T11:31:05.332Z</time>
      </trkpt>
      <trkpt lat="44.10364" lon="0.90112">
        <ele>102.080721</ele>
        <time>2022-12-30T11:31:08.326Z</time>
      </trkpt>
      <trkpt lat="44.1036" lon="0.90127">
        <ele>102.054003</ele>
        <time>2022-12-30T11:31:12.315Z</time>
      </trkpt>
      <trkpt lat="44.10357" lon="0.90141">
        <ele>102.031478</ele>
        <time>2022-12-30T11:31:15.334Z</time>
      </trkpt>
      <trkpt lat="44.10353" lon="0.90154">
        <ele>102.008652</ele>
        <time>2022-12-30T11:31:18.318Z</time>
      </trkpt>
      <trkpt lat="44.1035" lon="0.90169">
        <ele>101.9847</ele>
        <time>2022-12-30T11:31:21.331Z</time>
      </trkpt>
      <trkpt lat="44.10347" lon="0.90183">
        <ele>101.960732</ele>
        <time>2022-12-30T11:31:24.330Z</time>
      </trkpt>
      <trkpt lat="44.10343" lon="0.90198">
        <ele>101.935805</ele>
        <time>2022-12-30T11:31:27.338Z</time>
      </trkpt>
      <trkpt lat="44.10339" lon="0.90212">
        <ele>101.910958</ele>
        <time>2022-12-30T11:31:30.330Z</time>
      </trkpt>
      <trkpt lat="44.10335" lon="0.90229">
        <ele>101.883143</ele>
        <time>2022-12-30T11:31:33.336Z</time>
      </trkpt>
      <trkpt lat="44.10331" lon="0.90244">
        <ele>101.858151</ele>
        <time>2022-12-30T11:31:36.337Z</time>
      </trkpt>
      <trkpt lat="44.10329" lon="0.90257">
        <ele>101.835983</ele>
        <time>2022-12-30T11:31:39.339Z</time>
      </trkpt>
      <trkpt lat="44.10324" lon="0.90273">
        <ele>101.809185</ele>
        <time>2022-12-30T11:31:42.332Z</time>
      </trkpt>
      <trkpt lat="44.10321" lon="0.90288">
        <ele>101.783519</ele>
        <time>2022-12-30T11:31:45.335Z</time>
      </trkpt>
      <trkpt lat="44.10317" lon="0.90302">
        <ele>101.759567</ele>
        <time>2022-12-30T11:31:48.332Z</time>
      </trkpt>
      <trkpt lat="44.10313" lon="0.90317">
        <ele>101.747143</ele>
        <time>2022-12-30T11:31:51.335Z</time>
      </trkpt>
      <trkpt lat="44.10309" lon="0.90333">
        <ele>101.757842</ele>
        <time>2022-12-30T11:31:54.336Z</time>
      </trkpt>
      <trkpt lat="44.10305" lon="0.90349">
        <ele>101.768839</ele>
        <time>2022-12-30T11:31:57.336Z</time>
      </trkpt>
      <trkpt lat="44.10301" lon="0.90366">
        <ele>101.780296</ele>
        <time>2022-12-30T11:32:00.333Z</time>
      </trkpt>
      <trkpt lat="44.10296" lon="0.90383">
        <ele>101.79199</ele>
        <time>2022-12-30T11:32:03.338Z</time>
      </trkpt>
      <trkpt lat="44.10292" lon="0.90399">
        <ele>101.802897</ele>
        <time>2022-12-30T11:32:06.346Z</time>
      </trkpt>
      <trkpt lat="44.10288" lon="0.90414">
        <ele>101.813168</ele>
        <time>2022-12-30T11:32:09.331Z</time>
      </trkpt>
      <trkpt lat="44.10285" lon="0.90428">
        <ele>101.822627</ele>
        <time>2022-12-30T11:32:12.321Z</time>
      </trkpt>
      <trkpt lat="44.10282" lon="0.90442">
        <ele>101.832166</ele>
        <time>2022-12-30T11:32:15.329Z</time>
      </trkpt>
      <trkpt lat="44.10279" lon="0.90459">
        <ele>101.843124</ele>
        <time>2022-12-30T11:32:18.334Z</time>
      </trkpt>
      <trkpt lat="44.10275" lon="0.90476">
        <ele>101.85444</ele>
        <time>2022-12-30T11:32:21.333Z</time>
      </trkpt>
      <trkpt lat="44.10271" lon="0.90493">
        <ele>101.866135</ele>
        <time>2022-12-30T11:32:24.332Z</time>
      </trkpt>
      <trkpt lat="44.10268" lon="0.90508">
        <ele>101.87626</ele>
        <time>2022-12-30T11:32:27.335Z</time>
      </trkpt>
      <trkpt lat="44.10264" lon="0.90524">
        <ele>101.887322</ele>
        <time>2022-12-30T11:32:30.332Z</time>
      </trkpt>
      <trkpt lat="44.1026" lon="0.90541">
        <ele>101.898409</ele>
        <time>2022-12-30T11:32:33.334Z</time>
      </trkpt>
      <trkpt lat="44.10255" lon="0.90556">
        <ele>101.929831</ele>
        <time>2022-12-30T11:32:36.331Z</time>
      </trkpt>
      <trkpt lat="44.10251" lon="0.90571">
        <ele>101.984312</ele>
        <time>2022-12-30T11:32:39.333Z</time>
      </trkpt>
      <trkpt lat="44.10247" lon="0.90586">
        <ele>102.041396</ele>
        <time>2022-12-30T11:32:42.334Z</time>
      </trkpt>
      <trkpt lat="44.10244" lon="0.90603">
        <ele>102.100191</ele>
        <time>2022-12-30T11:32:45.334Z</time>
      </trkpt>
      <trkpt lat="44.1024" lon="0.9062">
        <ele>102.16172</ele>
        <time>2022-12-30T11:32:48.334Z</time>
      </trkpt>
      <trkpt lat="44.10236" lon="0.90637">
        <ele>102.225471</ele>
        <time>2022-12-30T11:32:51.334Z</time>
      </trkpt>
      <trkpt lat="44.10231" lon="0.90654">
        <ele>102.288571</ele>
        <time>2022-12-30T11:32:54.333Z</time>
      </trkpt>
      <trkpt lat="44.10227" lon="0.90672">
        <ele>102.352159</ele>
        <time>2022-12-30T11:32:57.333Z</time>
      </trkpt>
      <trkpt lat="44.10223" lon="0.90689">
        <ele>102.415773</ele>
        <time>2022-12-30T11:33:00.334Z</time>
      </trkpt>
      <trkpt lat="44.10218" lon="0.90706">
        <ele>102.478082</ele>
        <time>2022-12-30T11:33:03.333Z</time>
      </trkpt>
      <trkpt lat="44.10214" lon="0.90721">
        <ele>102.534366</ele>
        <time>2022-12-30T11:33:06.333Z</time>
      </trkpt>
      <trkpt lat="44.1021" lon="0.90737">
        <ele>102.590705</ele>
        <time>2022-12-30T11:33:09.333Z</time>
      </trkpt>
      <trkpt lat="44.10207" lon="0.90754">
        <ele>102.652288</ele>
        <time>2022-12-30T11:33:12.334Z</time>
      </trkpt>
      <trkpt lat="44.10203" lon="0.90771">
        <ele>102.715755</ele>
        <time>2022-12-30T11:33:15.333Z</time>
      </trkpt>
      <trkpt lat="44.10199" lon="0.90789">
        <ele>102.752407</ele>
        <time>2022-12-30T11:33:18.333Z</time>
      </trkpt>
      <trkpt lat="44.10196" lon="0.90801">
        <ele>102.666132</ele>
        <time>2022-12-30T11:33:20.318Z</time>
      </trkpt>
      <trkpt lat="44.10191" lon="0.90816">
        <ele>102.552099</ele>
        <time>2022-12-30T11:33:23.315Z</time>
      </trkpt>
      <trkpt lat="44.10187" lon="0.90831">
        <ele>102.444645</ele>
        <time>2022-12-30T11:33:26.332Z</time>
      </trkpt>
      <trkpt lat="44.10181" lon="0.90863">
        <ele>102.218645</ele>
        <time>2022-12-30T11:36:31.317Z</time>
      </trkpt>
      <trkpt lat="44.10178" lon="0.90875">
        <ele>102.133662</ele>
        <time>2022-12-30T11:36:34.330Z</time>
      </trkpt>
      <trkpt lat="44.10174" lon="0.9089">
        <ele>102.02795</ele>
        <time>2022-12-30T11:36:37.326Z</time>
      </trkpt>
      <trkpt lat="44.10171" lon="0.90905">
        <ele>101.92156</ele>
        <time>2022-12-30T11:36:40.330Z</time>
      </trkpt>
      <trkpt lat="44.10168" lon="0.90917">
        <ele>101.831812</ele>
        <time>2022-12-30T11:36:43.335Z</time>
      </trkpt>
      <trkpt lat="44.10165" lon="0.90931">
        <ele>101.73358</ele>
        <time>2022-12-30T11:36:46.330Z</time>
      </trkpt>
      <trkpt lat="44.10162" lon="0.90946">
        <ele>101.630352</ele>
        <time>2022-12-30T11:36:49.335Z</time>
      </trkpt>
      <trkpt lat="44.10158" lon="0.90962">
        <ele>101.517636</ele>
        <time>2022-12-30T11:36:52.340Z</time>
      </trkpt>
      <trkpt lat="44.10155" lon="0.90976">
        <ele>101.413662</ele>
        <time>2022-12-30T11:36:55.334Z</time>
      </trkpt>
      <trkpt lat="44.10151" lon="0.90993">
        <ele>101.295814</ele>
        <time>2022-12-30T11:36:58.334Z</time>
      </trkpt>
      <trkpt lat="44.10147" lon="0.91009">
        <ele>101.177935</ele>
        <time>2022-12-30T11:37:01.313Z</time>
      </trkpt>
      <trkpt lat="44.10143" lon="0.91024">
        <ele>101.071467</ele>
        <time>2022-12-30T11:37:04.331Z</time>
      </trkpt>
      <trkpt lat="44.10138" lon="0.91039">
        <ele>101.088504</ele>
        <time>2022-12-30T11:37:07.333Z</time>
      </trkpt>
      <trkpt lat="44.10134" lon="0.91055">
        <ele>101.106424</ele>
        <time>2022-12-30T11:37:10.334Z</time>
      </trkpt>
      <trkpt lat="44.10131" lon="0.91071">
        <ele>101.123863</ele>
        <time>2022-12-30T11:37:13.338Z</time>
      </trkpt>
      <trkpt lat="44.10127" lon="0.91086">
        <ele>101.141331</ele>
        <time>2022-12-30T11:37:16.331Z</time>
      </trkpt>
      <trkpt lat="44.10122" lon="0.91102">
        <ele>101.159962</ele>
        <time>2022-12-30T11:37:19.316Z</time>
      </trkpt>
      <trkpt lat="44.10118" lon="0.91118">
        <ele>101.178795</ele>
        <time>2022-12-30T11:37:22.324Z</time>
      </trkpt>
      <trkpt lat="44.10114" lon="0.91133">
        <ele>101.196258</ele>
        <time>2022-12-30T11:37:25.327Z</time>
      </trkpt>
      <trkpt lat="44.10111" lon="0.91148">
        <ele>101.212519</ele>
        <time>2022-12-30T11:37:28.332Z</time>
      </trkpt>
      <trkpt lat="44.10108" lon="0.91163">
        <ele>101.229088</ele>
        <time>2022-12-30T11:37:31.334Z</time>
      </trkpt>
      <trkpt lat="44.10104" lon="0.91177">
        <ele>101.24579</ele>
        <time>2022-12-30T11:37:34.323Z</time>
      </trkpt>
      <trkpt lat="44.101" lon="0.91193">
        <ele>101.263523</ele>
        <time>2022-12-30T11:37:37.329Z</time>
      </trkpt>
      <trkpt lat="44.10096" lon="0.9121">
        <ele>101.282775</ele>
        <time>2022-12-30T11:37:40.335Z</time>
      </trkpt>
      <trkpt lat="44.10093" lon="0.91227">
        <ele>101.301718</ele>
        <time>2022-12-30T11:37:43.335Z</time>
      </trkpt>
      <trkpt lat="44.1009" lon="0.91239">
        <ele>101.315425</ele>
        <time>2022-12-30T11:37:45.334Z</time>
      </trkpt>
      <trkpt lat="44.10085" lon="0.91255">
        <ele>101.334461</ele>
        <time>2022-12-30T11:37:48.332Z</time>
      </trkpt>
      <trkpt lat="44.1008" lon="0.91273">
        <ele>101.438259</ele>
        <time>2022-12-30T11:37:51.332Z</time>
      </trkpt>
      <trkpt lat="44.10077" lon="0.91285">
        <ele>101.533528</ele>
        <time>2022-12-30T11:37:53.328Z</time>
      </trkpt>
      <trkpt lat="44.10073" lon="0.91301">
        <ele>101.653488</ele>
        <time>2022-12-30T11:37:56.333Z</time>
      </trkpt>
      <trkpt lat="44.1007" lon="0.91313">
        <ele>101.745001</ele>
        <time>2022-12-30T11:37:58.337Z</time>
      </trkpt>
      <trkpt lat="44.10065" lon="0.9133">
        <ele>101.879454</ele>
        <time>2022-12-30T11:38:01.333Z</time>
      </trkpt>
      <trkpt lat="44.10061" lon="0.91345">
        <ele>102.000426</ele>
        <time>2022-12-30T11:38:04.333Z</time>
      </trkpt>
      <trkpt lat="44.10058" lon="0.91362">
        <ele>102.124033</ele>
        <time>2022-12-30T11:38:07.332Z</time>
      </trkpt>
      <trkpt lat="44.10054" lon="0.91378">
        <ele>102.253301</ele>
        <time>2022-12-30T11:38:10.333Z</time>
      </trkpt>
      <trkpt lat="44.1005" lon="0.91395">
        <ele>102.381568</ele>
        <time>2022-12-30T11:38:13.340Z</time>
      </trkpt>
      <trkpt lat="44.10047" lon="0.91411">
        <ele>102.498211</ele>
        <time>2022-12-30T11:38:16.336Z</time>
      </trkpt>
      <trkpt lat="44.10044" lon="0.91428">
        <ele>102.628965</ele>
        <time>2022-12-30T11:38:19.331Z</time>
      </trkpt>
      <trkpt lat="44.1004" lon="0.91443">
        <ele>102.745901</ele>
        <time>2022-12-30T11:38:22.331Z</time>
      </trkpt>
      <trkpt lat="44.10036" lon="0.91459">
        <ele>102.865504</ele>
        <time>2022-12-30T11:38:25.310Z</time>
      </trkpt>
      <trkpt lat="44.10033" lon="0.91475">
        <ele>102.989706</ele>
        <time>2022-12-30T11:38:28.332Z</time>
      </trkpt>
      <trkpt lat="44.10031" lon="0.91491">
        <ele>103.108024</ele>
        <time>2022-12-30T11:38:31.333Z</time>
      </trkpt>
      <trkpt lat="44.10028" lon="0.91505">
        <ele>103.198163</ele>
        <time>2022-12-30T11:38:34.335Z</time>
      </trkpt>
      <trkpt lat="44.10026" lon="0.91518">
        <ele>103.263763</ele>
        <time>2022-12-30T11:38:37.341Z</time>
      </trkpt>
      <trkpt lat="44.10024" lon="0.91532">
        <ele>103.337803</ele>
        <time>2022-12-30T11:38:40.331Z</time>
      </trkpt>
      <trkpt lat="44.10019" lon="0.91546">
        <ele>103.414803</ele>
        <time>2022-12-30T11:38:43.334Z</time>
      </trkpt>
      <trkpt lat="44.10015" lon="0.9156">
        <ele>103.490013</ele>
        <time>2022-12-30T11:38:46.331Z</time>
      </trkpt>
      <trkpt lat="44.10012" lon="0.91575">
        <ele>103.565459</ele>
        <time>2022-12-30T11:38:49.332Z</time>
      </trkpt>
      <trkpt lat="44.10009" lon="0.91588">
        <ele>103.636035</ele>
        <time>2022-12-30T11:38:52.330Z</time>
      </trkpt>
      <trkpt lat="44.10007" lon="0.91602">
        <ele>103.703822</ele>
        <time>2022-12-30T11:38:56.319Z</time>
      </trkpt>
      <trkpt lat="44.10006" lon="0.91615">
        <ele>103.771667</ele>
        <time>2022-12-30T11:38:59.318Z</time>
      </trkpt>
      <trkpt lat="44.10007" lon="0.91634">
        <ele>103.867895</ele>
        <time>2022-12-30T11:39:02.333Z</time>
      </trkpt>
      <trkpt lat="44.10007" lon="0.91649">
        <ele>103.940522</ele>
        <time>2022-12-30T11:39:04.312Z</time>
      </trkpt>
      <trkpt lat="44.10007" lon="0.91663">
        <ele>104.011157</ele>
        <time>2022-12-30T11:39:06.329Z</time>
      </trkpt>
      <trkpt lat="44.10005" lon="0.91676">
        <ele>104.078205</ele>
        <time>2022-12-30T11:39:08.317Z</time>
      </trkpt>
      <trkpt lat="44.10003" lon="0.91693">
        <ele>104.165833</ele>
        <time>2022-12-30T11:39:11.321Z</time>
      </trkpt>
      <trkpt lat="44.10001" lon="0.91711">
        <ele>104.253528</ele>
        <time>2022-12-30T11:39:14.314Z</time>
      </trkpt>
      <trkpt lat="44.09999" lon="0.91728">
        <ele>104.340931</ele>
        <time>2022-12-30T11:39:17.319Z</time>
      </trkpt>
      <trkpt lat="44.09997" lon="0.91744">
        <ele>104.41976</ele>
        <time>2022-12-30T11:39:20.317Z</time>
      </trkpt>
      <trkpt lat="44.09993" lon="0.91761">
        <ele>104.434097</ele>
        <time>2022-12-30T11:39:23.317Z</time>
      </trkpt>
      <trkpt lat="44.09991" lon="0.91779">
        <ele>104.449351</ele>
        <time>2022-12-30T11:39:26.333Z</time>
      </trkpt>
      <trkpt lat="44.09989" lon="0.91797">
        <ele>104.464037</ele>
        <time>2022-12-30T11:39:29.336Z</time>
      </trkpt>
      <trkpt lat="44.09988" lon="0.9181">
        <ele>104.474695</ele>
        <time>2022-12-30T11:39:31.331Z</time>
      </trkpt>
      <trkpt lat="44.09986" lon="0.91823">
        <ele>104.485477</ele>
        <time>2022-12-30T11:39:33.331Z</time>
      </trkpt>
      <trkpt lat="44.09983" lon="0.9184">
        <ele>104.500501</ele>
        <time>2022-12-30T11:39:36.317Z</time>
      </trkpt>
      <trkpt lat="44.0998" lon="0.91857">
        <ele>104.5147</ele>
        <time>2022-12-30T11:39:39.334Z</time>
      </trkpt>
      <trkpt lat="44.09979" lon="0.91874">
        <ele>104.528926</ele>
        <time>2022-12-30T11:39:42.314Z</time>
      </trkpt>
      <trkpt lat="44.09977" lon="0.91887">
        <ele>104.539715</ele>
        <time>2022-12-30T11:39:44.316Z</time>
      </trkpt>
      <trkpt lat="44.09975" lon="0.91903">
        <ele>104.55284</ele>
        <time>2022-12-30T11:39:47.316Z</time>
      </trkpt>
      <trkpt lat="44.09972" lon="0.91919">
        <ele>104.566134</ele>
        <time>2022-12-30T11:39:50.321Z</time>
      </trkpt>
      <trkpt lat="44.09971" lon="0.91932">
        <ele>104.577378</ele>
        <time>2022-12-30T11:39:53.318Z</time>
      </trkpt>
      <trkpt lat="44.09969" lon="0.91948">
        <ele>104.590464</ele>
        <time>2022-12-30T11:39:56.316Z</time>
      </trkpt>
      <trkpt lat="44.09967" lon="0.91963">
        <ele>104.602983</ele>
        <time>2022-12-30T11:39:59.328Z</time>
      </trkpt>
      <trkpt lat="44.09966" lon="0.9198">
        <ele>104.616867</ele>
        <time>2022-12-30T11:40:02.335Z</time>
      </trkpt>
      <trkpt lat="44.09964" lon="0.91997">
        <ele>104.684079</ele>
        <time>2022-12-30T11:40:05.328Z</time>
      </trkpt>
      <trkpt lat="44.09961" lon="0.92016">
        <ele>104.817092</ele>
        <time>2022-12-30T11:40:08.330Z</time>
      </trkpt>
      <trkpt lat="44.09959" lon="0.92028">
        <ele>104.906189</ele>
        <time>2022-12-30T11:40:10.333Z</time>
      </trkpt>
      <trkpt lat="44.09956" lon="0.92045">
        <ele>105.032539</ele>
        <time>2022-12-30T11:40:13.327Z</time>
      </trkpt>
      <trkpt lat="44.09954" lon="0.92062">
        <ele>105.150639</ele>
        <time>2022-12-30T11:40:16.333Z</time>
      </trkpt>
      <trkpt lat="44.09952" lon="0.92078">
        <ele>105.269797</ele>
        <time>2022-12-30T11:40:19.323Z</time>
      </trkpt>
      <trkpt lat="44.0995" lon="0.92095">
        <ele>105.389096</ele>
        <time>2022-12-30T11:40:22.334Z</time>
      </trkpt>
      <trkpt lat="44.09948" lon="0.92111">
        <ele>105.507165</ele>
        <time>2022-12-30T11:40:25.335Z</time>
      </trkpt>
      <trkpt lat="44.09946" lon="0.92128">
        <ele>105.627858</ele>
        <time>2022-12-30T11:40:28.346Z</time>
      </trkpt>
      <trkpt lat="44.09943" lon="0.92146">
        <ele>105.757985</ele>
        <time>2022-12-30T11:40:31.321Z</time>
      </trkpt>
      <trkpt lat="44.09941" lon="0.92163">
        <ele>105.88356</ele>
        <time>2022-12-30T11:40:34.331Z</time>
      </trkpt>
      <trkpt lat="44.09939" lon="0.92179">
        <ele>105.99849</ele>
        <time>2022-12-30T11:40:37.757Z</time>
      </trkpt>
      <trkpt lat="44.09936" lon="0.92195">
        <ele>106.112386</ele>
        <time>2022-12-30T11:40:40.332Z</time>
      </trkpt>
      <trkpt lat="44.09934" lon="0.92212">
        <ele>106.234661</ele>
        <time>2022-12-30T11:40:43.333Z</time>
      </trkpt>
      <trkpt lat="44.09932" lon="0.92224">
        <ele>106.324866</ele>
        <time>2022-12-30T11:40:45.330Z</time>
      </trkpt>
      <trkpt lat="44.0993" lon="0.92242">
        <ele>106.392605</ele>
        <time>2022-12-30T11:40:48.331Z</time>
      </trkpt>
      <trkpt lat="44.09927" lon="0.92259">
        <ele>106.369342</ele>
        <time>2022-12-30T11:40:51.330Z</time>
      </trkpt>
      <trkpt lat="44.09925" lon="0.92278">
        <ele>106.344583</ele>
        <time>2022-12-30T11:40:54.324Z</time>
      </trkpt>
      <trkpt lat="44.09923" lon="0.92296">
        <ele>106.319425</ele>
        <time>2022-12-30T11:40:57.320Z</time>
      </trkpt>
      <trkpt lat="44.09921" lon="0.92308">
        <ele>106.302375</ele>
        <time>2022-12-30T11:40:59.330Z</time>
      </trkpt>
      <trkpt lat="44.09919" lon="0.92326">
        <ele>106.278679</ele>
        <time>2022-12-30T11:41:02.334Z</time>
      </trkpt>
      <trkpt lat="44.09918" lon="0.92341">
        <ele>106.257402</ele>
        <time>2022-12-30T11:41:05.333Z</time>
      </trkpt>
      <trkpt lat="44.09916" lon="0.92357">
        <ele>106.236686</ele>
        <time>2022-12-30T11:41:08.333Z</time>
      </trkpt>
      <trkpt lat="44.09914" lon="0.9237">
        <ele>106.21799</ele>
        <time>2022-12-30T11:41:11.334Z</time>
      </trkpt>
      <trkpt lat="44.09913" lon="0.92383">
        <ele>106.200254</ele>
        <time>2022-12-30T11:41:14.338Z</time>
      </trkpt>
      <trkpt lat="44.09911" lon="0.92396">
        <ele>106.183444</ele>
        <time>2022-12-30T11:41:17.340Z</time>
      </trkpt>
      <trkpt lat="44.09909" lon="0.9241">
        <ele>106.164285</ele>
        <time>2022-12-30T11:41:20.323Z</time>
      </trkpt>
      <trkpt lat="44.09907" lon="0.92424">
        <ele>106.144232</ele>
        <time>2022-12-30T11:41:23.335Z</time>
      </trkpt>
      <trkpt lat="44.09904" lon="0.92438">
        <ele>106.124689</ele>
        <time>2022-12-30T11:41:26.319Z</time>
      </trkpt>
      <trkpt lat="44.09901" lon="0.92454">
        <ele>106.103066</ele>
        <time>2022-12-30T11:41:29.318Z</time>
      </trkpt>
      <trkpt lat="44.09898" lon="0.92468">
        <ele>106.082539</ele>
        <time>2022-12-30T11:41:32.335Z</time>
      </trkpt>
      <trkpt lat="44.09894" lon="0.92486">
        <ele>106.043788</ele>
        <time>2022-12-30T11:41:35.332Z</time>
      </trkpt>
      <trkpt lat="44.09892" lon="0.92502">
        <ele>105.985624</ele>
        <time>2022-12-30T11:41:38.322Z</time>
      </trkpt>
      <trkpt lat="44.09889" lon="0.92518">
        <ele>105.924282</ele>
        <time>2022-12-30T11:41:41.333Z</time>
      </trkpt>
      <trkpt lat="44.09886" lon="0.92535">
        <ele>105.862602</ele>
        <time>2022-12-30T11:41:44.332Z</time>
      </trkpt>
      <trkpt lat="44.09883" lon="0.9255">
        <ele>105.806198</ele>
        <time>2022-12-30T11:41:47.333Z</time>
      </trkpt>
      <trkpt lat="44.0988" lon="0.92566">
        <ele>105.744658</ele>
        <time>2022-12-30T11:41:50.332Z</time>
      </trkpt>
      <trkpt lat="44.09876" lon="0.92583">
        <ele>105.683119</ele>
        <time>2022-12-30T11:41:53.333Z</time>
      </trkpt>
      <trkpt lat="44.09873" lon="0.92598">
        <ele>105.62575</ele>
        <time>2022-12-30T11:41:56.320Z</time>
      </trkpt>
      <trkpt lat="44.09867" lon="0.92615">
        <ele>105.554951</ele>
        <time>2022-12-30T11:41:59.331Z</time>
      </trkpt>
      <trkpt lat="44.09864" lon="0.92631">
        <ele>105.496085</ele>
        <time>2022-12-30T11:42:02.334Z</time>
      </trkpt>
      <trkpt lat="44.09862" lon="0.92644">
        <ele>105.448196</ele>
        <time>2022-12-30T11:42:04.334Z</time>
      </trkpt>
      <trkpt lat="44.09857" lon="0.9266">
        <ele>105.387385</ele>
        <time>2022-12-30T11:42:07.331Z</time>
      </trkpt>
      <trkpt lat="44.09855" lon="0.92676">
        <ele>105.326877</ele>
        <time>2022-12-30T11:42:10.334Z</time>
      </trkpt>
      <trkpt lat="44.09851" lon="0.92692">
        <ele>105.267704</ele>
        <time>2022-12-30T11:42:13.333Z</time>
      </trkpt>
      <trkpt lat="44.09848" lon="0.92706">
        <ele>105.214215</ele>
        <time>2022-12-30T11:42:16.314Z</time>
      </trkpt>
      <trkpt lat="44.09847" lon="0.92721">
        <ele>105.163874</ele>
        <time>2022-12-30T11:42:19.332Z</time>
      </trkpt>
      <trkpt lat="44.09843" lon="0.92739">
        <ele>105.259988</ele>
        <time>2022-12-30T11:42:22.340Z</time>
      </trkpt>
      <trkpt lat="44.09839" lon="0.92755">
        <ele>105.354515</ele>
        <time>2022-12-30T11:42:25.315Z</time>
      </trkpt>
      <trkpt lat="44.09836" lon="0.92772">
        <ele>105.44695</ele>
        <time>2022-12-30T11:42:28.333Z</time>
      </trkpt>
      <trkpt lat="44.09833" lon="0.92789">
        <ele>105.541128</ele>
        <time>2022-12-30T11:42:31.332Z</time>
      </trkpt>
      <trkpt lat="44.0983" lon="0.92806">
        <ele>105.6329</ele>
        <time>2022-12-30T11:42:34.334Z</time>
      </trkpt>
      <trkpt lat="44.09826" lon="0.92823">
        <ele>105.728892</ele>
        <time>2022-12-30T11:42:37.332Z</time>
      </trkpt>
      <trkpt lat="44.09823" lon="0.92839">
        <ele>105.820285</ele>
        <time>2022-12-30T11:42:40.333Z</time>
      </trkpt>
      <trkpt lat="44.0982" lon="0.92858">
        <ele>105.925425</ele>
        <time>2022-12-30T11:42:43.344Z</time>
      </trkpt>
      <trkpt lat="44.09817" lon="0.92872">
        <ele>106.001251</ele>
        <time>2022-12-30T11:42:45.335Z</time>
      </trkpt>
      <trkpt lat="44.09814" lon="0.92884">
        <ele>106.068728</ele>
        <time>2022-12-30T11:42:47.331Z</time>
      </trkpt>
      <trkpt lat="44.09811" lon="0.92895">
        <ele>106.1365</ele>
        <time>2022-12-30T11:42:49.339Z</time>
      </trkpt>
      <trkpt lat="44.09807" lon="0.92911">
        <ele>106.223413</ele>
        <time>2022-12-30T11:42:52.330Z</time>
      </trkpt>
      <trkpt lat="44.09804" lon="0.92927">
        <ele>106.310736</ele>
        <time>2022-12-30T11:42:55.332Z</time>
      </trkpt>
      <trkpt lat="44.09802" lon="0.92941">
        <ele>106.391852</ele>
        <time>2022-12-30T11:42:58.314Z</time>
      </trkpt>
      <trkpt lat="44.09799" lon="0.92956">
        <ele>106.472674</ele>
        <time>2022-12-30T11:43:01.332Z</time>
      </trkpt>
      <trkpt lat="44.09795" lon="0.92972">
        <ele>106.531128</ele>
        <time>2022-12-30T11:43:04.333Z</time>
      </trkpt>
      <trkpt lat="44.09792" lon="0.9299">
        <ele>106.572923</ele>
        <time>2022-12-30T11:43:07.331Z</time>
      </trkpt>
      <trkpt lat="44.09789" lon="0.93004">
        <ele>106.606327</ele>
        <time>2022-12-30T11:43:10.334Z</time>
      </trkpt>
      <trkpt lat="44.09786" lon="0.9302">
        <ele>106.643567</ele>
        <time>2022-12-30T11:43:13.333Z</time>
      </trkpt>
      <trkpt lat="44.09783" lon="0.93037">
        <ele>106.683229</ele>
        <time>2022-12-30T11:43:16.317Z</time>
      </trkpt>
      <trkpt lat="44.09778" lon="0.93053">
        <ele>106.722452</ele>
        <time>2022-12-30T11:43:19.336Z</time>
      </trkpt>
      <trkpt lat="44.09775" lon="0.93069">
        <ele>106.761649</ele>
        <time>2022-12-30T11:43:22.332Z</time>
      </trkpt>
      <trkpt lat="44.09772" lon="0.93086">
        <ele>106.80129</ele>
        <time>2022-12-30T11:43:25.337Z</time>
      </trkpt>
      <trkpt lat="44.09769" lon="0.93103">
        <ele>106.841747</ele>
        <time>2022-12-30T11:43:28.335Z</time>
      </trkpt>
      <trkpt lat="44.09765" lon="0.9312">
        <ele>106.882395</ele>
        <time>2022-12-30T11:43:31.329Z</time>
      </trkpt>
      <trkpt lat="44.09761" lon="0.93136">
        <ele>106.922073</ele>
        <time>2022-12-30T11:43:34.332Z</time>
      </trkpt>
      <trkpt lat="44.09759" lon="0.9315">
        <ele>106.955032</ele>
        <time>2022-12-30T11:43:37.331Z</time>
      </trkpt>
      <trkpt lat="44.09755" lon="0.93165">
        <ele>106.99093</ele>
        <time>2022-12-30T11:43:40.333Z</time>
      </trkpt>
      <trkpt lat="44.09752" lon="0.93182">
        <ele>107.030107</ele>
        <time>2022-12-30T11:43:43.315Z</time>
      </trkpt>
      <trkpt lat="44.09749" lon="0.93194">
        <ele>107.058986</ele>
        <time>2022-12-30T11:43:45.333Z</time>
      </trkpt>
      <trkpt lat="44.09745" lon="0.93212">
        <ele>107.173944</ele>
        <time>2022-12-30T11:43:48.333Z</time>
      </trkpt>
      <trkpt lat="44.09743" lon="0.93229">
        <ele>107.338872</ele>
        <time>2022-12-30T11:43:51.332Z</time>
      </trkpt>
      <trkpt lat="44.09739" lon="0.93246">
        <ele>107.504218</ele>
        <time>2022-12-30T11:43:54.333Z</time>
      </trkpt>
      <trkpt lat="44.09736" lon="0.93263">
        <ele>107.660271</ele>
        <time>2022-12-30T11:43:57.341Z</time>
      </trkpt>
      <trkpt lat="44.09732" lon="0.93278">
        <ele>107.807376</ele>
        <time>2022-12-30T11:44:00.337Z</time>
      </trkpt>
      <trkpt lat="44.09729" lon="0.93292">
        <ele>107.944708</ele>
        <time>2022-12-30T11:44:03.334Z</time>
      </trkpt>
      <trkpt lat="44.09725" lon="0.93305">
        <ele>108.072343</ele>
        <time>2022-12-30T11:44:06.325Z</time>
      </trkpt>
      <trkpt lat="44.09722" lon="0.93321">
        <ele>108.218502</ele>
        <time>2022-12-30T11:44:09.336Z</time>
      </trkpt>
      <trkpt lat="44.09719" lon="0.93337">
        <ele>108.374204</ele>
        <time>2022-12-30T11:44:12.333Z</time>
      </trkpt>
      <trkpt lat="44.09716" lon="0.93353">
        <ele>108.525486</ele>
        <time>2022-12-30T11:44:15.316Z</time>
      </trkpt>
      <trkpt lat="44.09713" lon="0.93369">
        <ele>108.6793</ele>
        <time>2022-12-30T11:44:18.334Z</time>
      </trkpt>
      <trkpt lat="44.09711" lon="0.93381">
        <ele>108.79794</ele>
        <time>2022-12-30T11:44:20.331Z</time>
      </trkpt>
      <trkpt lat="44.09708" lon="0.93398">
        <ele>108.950863</ele>
        <time>2022-12-30T11:44:23.337Z</time>
      </trkpt>
      <trkpt lat="44.09705" lon="0.93411">
        <ele>109.08468</ele>
        <time>2022-12-30T11:44:26.333Z</time>
      </trkpt>
      <trkpt lat="44.09704" lon="0.93425">
        <ele>109.207387</ele>
        <time>2022-12-30T11:44:29.322Z</time>
      </trkpt>
      <trkpt lat="44.09702" lon="0.93439">
        <ele>109.344082</ele>
        <time>2022-12-30T11:44:33.316Z</time>
      </trkpt>
      <trkpt lat="44.09699" lon="0.93455">
        <ele>109.368351</ele>
        <time>2022-12-30T11:44:37.335Z</time>
      </trkpt>
      <trkpt lat="44.09695" lon="0.93467">
        <ele>109.354316</ele>
        <time>2022-12-30T11:44:40.334Z</time>
      </trkpt>
      <trkpt lat="44.0969" lon="0.93482">
        <ele>109.338535</ele>
        <time>2022-12-30T11:44:43.334Z</time>
      </trkpt>
      <trkpt lat="44.09686" lon="0.935">
        <ele>109.31935</ele>
        <time>2022-12-30T11:44:46.334Z</time>
      </trkpt>
      <trkpt lat="44.09683" lon="0.93515">
        <ele>109.302754</ele>
        <time>2022-12-30T11:44:49.333Z</time>
      </trkpt>
      <trkpt lat="44.09679" lon="0.93533">
        <ele>109.284071</ele>
        <time>2022-12-30T11:44:52.333Z</time>
      </trkpt>
      <trkpt lat="44.09676" lon="0.9355">
        <ele>109.266237</ele>
        <time>2022-12-30T11:44:55.334Z</time>
      </trkpt>
      <trkpt lat="44.09673" lon="0.93567">
        <ele>109.248431</ele>
        <time>2022-12-30T11:44:58.334Z</time>
      </trkpt>
      <trkpt lat="44.09668" lon="0.93584">
        <ele>109.230022</ele>
        <time>2022-12-30T11:45:01.333Z</time>
      </trkpt>
      <trkpt lat="44.09666" lon="0.93596">
        <ele>109.216803</ele>
        <time>2022-12-30T11:45:03.319Z</time>
      </trkpt>
      <trkpt lat="44.09662" lon="0.93613">
        <ele>109.198706</ele>
        <time>2022-12-30T11:45:06.328Z</time>
      </trkpt>
      <trkpt lat="44.09659" lon="0.93629">
        <ele>109.18204</ele>
        <time>2022-12-30T11:45:09.329Z</time>
      </trkpt>
      <trkpt lat="44.09656" lon="0.93645">
        <ele>109.165692</ele>
        <time>2022-12-30T11:45:12.334Z</time>
      </trkpt>
      <trkpt lat="44.09653" lon="0.93661">
        <ele>109.148089</ele>
        <time>2022-12-30T11:45:15.339Z</time>
      </trkpt>
      <trkpt lat="44.09648" lon="0.93676">
        <ele>109.13109</ele>
        <time>2022-12-30T11:45:18.321Z</time>
      </trkpt>
      <trkpt lat="44.09646" lon="0.9369">
        <ele>109.105878</ele>
        <time>2022-12-30T11:45:21.336Z</time>
      </trkpt>
      <trkpt lat="44.09643" lon="0.93705">
        <ele>109.072073</ele>
        <time>2022-12-30T11:45:24.334Z</time>
      </trkpt>
      <trkpt lat="44.09641" lon="0.9372">
        <ele>109.038409</ele>
        <time>2022-12-30T11:45:27.319Z</time>
      </trkpt>
      <trkpt lat="44.09638" lon="0.93736">
        <ele>109.003318</ele>
        <time>2022-12-30T11:45:30.333Z</time>
      </trkpt>
      <trkpt lat="44.09635" lon="0.93753">
        <ele>108.964573</ele>
        <time>2022-12-30T11:45:33.340Z</time>
      </trkpt>
      <trkpt lat="44.09632" lon="0.93769">
        <ele>108.927613</ele>
        <time>2022-12-30T11:45:36.335Z</time>
      </trkpt>
      <trkpt lat="44.09628" lon="0.93785">
        <ele>108.889642</ele>
        <time>2022-12-30T11:45:39.333Z</time>
      </trkpt>
      <trkpt lat="44.09624" lon="0.93802">
        <ele>108.850204</ele>
        <time>2022-12-30T11:45:42.338Z</time>
      </trkpt>
      <trkpt lat="44.0962" lon="0.93819">
        <ele>108.812019</ele>
        <time>2022-12-30T11:45:45.331Z</time>
      </trkpt>
      <trkpt lat="44.09617" lon="0.93837">
        <ele>108.770954</ele>
        <time>2022-12-30T11:45:48.334Z</time>
      </trkpt>
      <trkpt lat="44.09613" lon="0.93855">
        <ele>108.729336</ele>
        <time>2022-12-30T11:45:51.334Z</time>
      </trkpt>
      <trkpt lat="44.09611" lon="0.93867">
        <ele>108.701678</ele>
        <time>2022-12-30T11:45:53.337Z</time>
      </trkpt>
      <trkpt lat="44.09609" lon="0.93879">
        <ele>108.673657</ele>
        <time>2022-12-30T11:45:55.334Z</time>
      </trkpt>
      <trkpt lat="44.09606" lon="0.93895">
        <ele>108.637137</ele>
        <time>2022-12-30T11:45:58.321Z</time>
      </trkpt>
      <trkpt lat="44.09602" lon="0.93911">
        <ele>108.601341</ele>
        <time>2022-12-30T11:46:01.334Z</time>
      </trkpt>
      <trkpt lat="44.09598" lon="0.93927">
        <ele>108.578936</ele>
        <time>2022-12-30T11:46:04.335Z</time>
      </trkpt>
      <trkpt lat="44.09595" lon="0.93944">
        <ele>108.598556</ele>
        <time>2022-12-30T11:46:07.326Z</time>
      </trkpt>
      <trkpt lat="44.09591" lon="0.9396">
        <ele>108.617873</ele>
        <time>2022-12-30T11:46:10.332Z</time>
      </trkpt>
      <trkpt lat="44.09588" lon="0.93977">
        <ele>108.637019</ele>
        <time>2022-12-30T11:46:13.334Z</time>
      </trkpt>
      <trkpt lat="44.09584" lon="0.93993">
        <ele>108.656959</ele>
        <time>2022-12-30T11:46:16.336Z</time>
      </trkpt>
      <trkpt lat="44.0958" lon="0.9401">
        <ele>108.677173</ele>
        <time>2022-12-30T11:46:19.323Z</time>
      </trkpt>
      <trkpt lat="44.09576" lon="0.94026">
        <ele>108.696428</ele>
        <time>2022-12-30T11:46:22.331Z</time>
      </trkpt>
      <trkpt lat="44.09572" lon="0.94043">
        <ele>108.716815</ele>
        <time>2022-12-30T11:46:25.330Z</time>
      </trkpt>
      <trkpt lat="44.09569" lon="0.94059">
        <ele>108.735332</ele>
        <time>2022-12-30T11:46:28.333Z</time>
      </trkpt>
      <trkpt lat="44.09566" lon="0.94073">
        <ele>108.752217</ele>
        <time>2022-12-30T11:46:31.344Z</time>
      </trkpt>
      <trkpt lat="44.09564" lon="0.94087">
        <ele>108.768746</ele>
        <time>2022-12-30T11:46:34.346Z</time>
      </trkpt>
      <trkpt lat="44.09561" lon="0.94101">
        <ele>108.785097</ele>
        <time>2022-12-30T11:46:37.342Z</time>
      </trkpt>
      <trkpt lat="44.09558" lon="0.94115">
        <ele>108.801468</ele>
        <time>2022-12-30T11:46:40.342Z</time>
      </trkpt>
      <trkpt lat="44.09556" lon="0.94129">
        <ele>108.81749</ele>
        <time>2022-12-30T11:46:43.337Z</time>
      </trkpt>
      <trkpt lat="44.09553" lon="0.94142">
        <ele>108.833632</ele>
        <time>2022-12-30T11:46:46.333Z</time>
      </trkpt>
      <trkpt lat="44.0955" lon="0.94156">
        <ele>108.850113</ele>
        <time>2022-12-30T11:46:49.332Z</time>
      </trkpt>
      <trkpt lat="44.09547" lon="0.94171">
        <ele>108.87011</ele>
        <time>2022-12-30T11:46:52.336Z</time>
      </trkpt>
      <trkpt lat="44.09544" lon="0.94185">
        <ele>108.892221</ele>
        <time>2022-12-30T11:46:55.334Z</time>
      </trkpt>
      <trkpt lat="44.09541" lon="0.94199">
        <ele>108.913067</ele>
        <time>2022-12-30T11:46:58.332Z</time>
      </trkpt>
      <trkpt lat="44.0954" lon="0.94213">
        <ele>108.934913</ele>
        <time>2022-12-30T11:47:01.336Z</time>
      </trkpt>
      <trkpt lat="44.09538" lon="0.94226">
        <ele>108.953859</ele>
        <time>2022-12-30T11:47:04.332Z</time>
      </trkpt>
      <trkpt lat="44.09537" lon="0.94239">
        <ele>108.972924</ele>
        <time>2022-12-30T11:47:07.336Z</time>
      </trkpt>
      <trkpt lat="44.09533" lon="0.94251">
        <ele>108.992318</ele>
        <time>2022-12-30T11:47:10.334Z</time>
      </trkpt>
      <trkpt lat="44.0953" lon="0.94264">
        <ele>109.012957</ele>
        <time>2022-12-30T11:47:13.330Z</time>
      </trkpt>
      <trkpt lat="44.09527" lon="0.94279">
        <ele>109.035389</ele>
        <time>2022-12-30T11:47:16.321Z</time>
      </trkpt>
      <trkpt lat="44.09523" lon="0.94292">
        <ele>109.055931</ele>
        <time>2022-12-30T11:47:19.334Z</time>
      </trkpt>
      <trkpt lat="44.0952" lon="0.94307">
        <ele>109.078503</ele>
        <time>2022-12-30T11:47:22.333Z</time>
      </trkpt>
      <trkpt lat="44.09517" lon="0.94321">
        <ele>109.100654</ele>
        <time>2022-12-30T11:47:25.335Z</time>
      </trkpt>
      <trkpt lat="44.09514" lon="0.94336">
        <ele>109.12365</ele>
        <time>2022-12-30T11:47:28.335Z</time>
      </trkpt>
      <trkpt lat="44.09512" lon="0.94351">
        <ele>109.14698</ele>
        <time>2022-12-30T11:47:31.338Z</time>
      </trkpt>
      <trkpt lat="44.09508" lon="0.94367">
        <ele>109.170425</ele>
        <time>2022-12-30T11:47:34.333Z</time>
      </trkpt>
      <trkpt lat="44.09505" lon="0.94382">
        <ele>109.19334</ele>
        <time>2022-12-30T11:47:37.343Z</time>
      </trkpt>
      <trkpt lat="44.09503" lon="0.94396">
        <ele>109.215762</ele>
        <time>2022-12-30T11:47:40.336Z</time>
      </trkpt>
      <trkpt lat="44.09499" lon="0.94411">
        <ele>109.301771</ele>
        <time>2022-12-30T11:47:43.343Z</time>
      </trkpt>
      <trkpt lat="44.09495" lon="0.94427">
        <ele>109.46358</ele>
        <time>2022-12-30T11:47:46.333Z</time>
      </trkpt>
      <trkpt lat="44.09492" lon="0.94444">
        <ele>109.626274</ele>
        <time>2022-12-30T11:47:49.332Z</time>
      </trkpt>
      <trkpt lat="44.09488" lon="0.9446">
        <ele>109.781453</ele>
        <time>2022-12-30T11:47:52.341Z</time>
      </trkpt>
      <trkpt lat="44.09485" lon="0.94475">
        <ele>109.935252</ele>
        <time>2022-12-30T11:47:55.335Z</time>
      </trkpt>
      <trkpt lat="44.09481" lon="0.94491">
        <ele>110.088161</ele>
        <time>2022-12-30T11:47:58.340Z</time>
      </trkpt>
      <trkpt lat="44.09477" lon="0.94507">
        <ele>110.256238</ele>
        <time>2022-12-30T11:48:01.328Z</time>
      </trkpt>
      <trkpt lat="44.09473" lon="0.94523">
        <ele>110.414111</ele>
        <time>2022-12-30T11:48:04.346Z</time>
      </trkpt>
      <trkpt lat="44.0947" lon="0.94539">
        <ele>110.571086</ele>
        <time>2022-12-30T11:48:07.339Z</time>
      </trkpt>
      <trkpt lat="44.09466" lon="0.94554">
        <ele>110.721327</ele>
        <time>2022-12-30T11:48:10.334Z</time>
      </trkpt>
      <trkpt lat="44.09463" lon="0.94569">
        <ele>110.869253</ele>
        <time>2022-12-30T11:48:13.332Z</time>
      </trkpt>
      <trkpt lat="44.09461" lon="0.94585">
        <ele>111.019905</ele>
        <time>2022-12-30T11:48:16.347Z</time>
      </trkpt>
      <trkpt lat="44.09458" lon="0.94601">
        <ele>111.179177</ele>
        <time>2022-12-30T11:48:19.336Z</time>
      </trkpt>
      <trkpt lat="44.09455" lon="0.94615">
        <ele>111.309314</ele>
        <time>2022-12-30T11:48:21.334Z</time>
      </trkpt>
      <trkpt lat="44.09452" lon="0.94632">
        <ele>111.478972</ele>
        <time>2022-12-30T11:48:24.335Z</time>
      </trkpt>
      <trkpt lat="44.09449" lon="0.94647">
        <ele>111.593335</ele>
        <time>2022-12-30T11:48:27.333Z</time>
      </trkpt>
      <trkpt lat="44.09446" lon="0.94662">
        <ele>111.595817</ele>
        <time>2022-12-30T11:48:30.344Z</time>
      </trkpt>
      <trkpt lat="44.09443" lon="0.94679">
        <ele>111.598584</ele>
        <time>2022-12-30T11:48:33.336Z</time>
      </trkpt>
      <trkpt lat="44.09439" lon="0.94696">
        <ele>111.601383</ele>
        <time>2022-12-30T11:48:36.317Z</time>
      </trkpt>
      <trkpt lat="44.09436" lon="0.94713">
        <ele>111.604056</ele>
        <time>2022-12-30T11:48:39.336Z</time>
      </trkpt>
      <trkpt lat="44.09432" lon="0.94729">
        <ele>111.606674</ele>
        <time>2022-12-30T11:48:42.327Z</time>
      </trkpt>
      <trkpt lat="44.09429" lon="0.94743">
        <ele>111.609056</ele>
        <time>2022-12-30T11:48:45.340Z</time>
      </trkpt>
      <trkpt lat="44.09426" lon="0.94758">
        <ele>111.611472</ele>
        <time>2022-12-30T11:48:48.337Z</time>
      </trkpt>
      <trkpt lat="44.09423" lon="0.94774">
        <ele>111.613959</ele>
        <time>2022-12-30T11:48:51.340Z</time>
      </trkpt>
      <trkpt lat="44.0942" lon="0.94791">
        <ele>111.616783</ele>
        <time>2022-12-30T11:48:54.333Z</time>
      </trkpt>
      <trkpt lat="44.09418" lon="0.94805">
        <ele>111.618974</ele>
        <time>2022-12-30T11:48:57.336Z</time>
      </trkpt>
      <trkpt lat="44.09415" lon="0.94821">
        <ele>111.621542</ele>
        <time>2022-12-30T11:49:00.335Z</time>
      </trkpt>
      <trkpt lat="44.09411" lon="0.94838">
        <ele>111.624378</ele>
        <time>2022-12-30T11:49:03.346Z</time>
      </trkpt>
      <trkpt lat="44.09407" lon="0.94855">
        <ele>111.627173</ele>
        <time>2022-12-30T11:49:06.320Z</time>
      </trkpt>
      <trkpt lat="44.09404" lon="0.94872">
        <ele>111.629933</ele>
        <time>2022-12-30T11:49:09.331Z</time>
      </trkpt>
      <trkpt lat="44.094" lon="0.94887">
        <ele>111.633527</ele>
        <time>2022-12-30T11:49:12.333Z</time>
      </trkpt>
      <trkpt lat="44.09397" lon="0.949">
        <ele>111.642727</ele>
        <time>2022-12-30T11:49:15.338Z</time>
      </trkpt>
      <trkpt lat="44.09394" lon="0.94913">
        <ele>111.652</ele>
        <time>2022-12-30T11:49:18.333Z</time>
      </trkpt>
      <trkpt lat="44.09391" lon="0.94926">
        <ele>111.661263</ele>
        <time>2022-12-30T11:49:21.334Z</time>
      </trkpt>
      <trkpt lat="44.09387" lon="0.9494">
        <ele>111.671023</ele>
        <time>2022-12-30T11:49:24.336Z</time>
      </trkpt>
      <trkpt lat="44.09383" lon="0.94956">
        <ele>111.682548</ele>
        <time>2022-12-30T11:49:27.335Z</time>
      </trkpt>
      <trkpt lat="44.09379" lon="0.94973">
        <ele>111.694292</ele>
        <time>2022-12-30T11:49:30.328Z</time>
      </trkpt>
      <trkpt lat="44.09374" lon="0.9499">
        <ele>111.706521</ele>
        <time>2022-12-30T11:49:33.335Z</time>
      </trkpt>
      <trkpt lat="44.09371" lon="0.95005">
        <ele>111.717264</ele>
        <time>2022-12-30T11:49:36.343Z</time>
      </trkpt>
      <trkpt lat="44.09368" lon="0.95018">
        <ele>111.726692</ele>
        <time>2022-12-30T11:49:39.315Z</time>
      </trkpt>
      <trkpt lat="44.09365" lon="0.95031">
        <ele>111.735823</ele>
        <time>2022-12-30T11:49:42.327Z</time>
      </trkpt>
      <trkpt lat="44.09361" lon="0.95045">
        <ele>111.745966</ele>
        <time>2022-12-30T11:49:46.333Z</time>
      </trkpt>
      <trkpt lat="44.09358" lon="0.95059">
        <ele>111.755194</ele>
        <time>2022-12-30T11:49:49.332Z</time>
      </trkpt>
      <trkpt lat="44.09351" lon="0.95076">
        <ele>111.768172</ele>
        <time>2022-12-30T11:49:52.333Z</time>
      </trkpt>
      <trkpt lat="44.09345" lon="0.95091">
        <ele>111.779717</ele>
        <time>2022-12-30T11:49:55.319Z</time>
      </trkpt>
      <trkpt lat="44.0934" lon="0.95105">
        <ele>111.790501</ele>
        <time>2022-12-30T11:49:58.334Z</time>
      </trkpt>
      <trkpt lat="44.09335" lon="0.95122">
        <ele>111.78144</ele>
        <time>2022-12-30T11:50:01.341Z</time>
      </trkpt>
      <trkpt lat="44.09331" lon="0.95139">
        <ele>111.705585</ele>
        <time>2022-12-30T11:50:04.326Z</time>
      </trkpt>
      <trkpt lat="44.09327" lon="0.95154">
        <ele>111.640676</ele>
        <time>2022-12-30T11:50:07.327Z</time>
      </trkpt>
      <trkpt lat="44.09324" lon="0.95168">
        <ele>111.581721</ele>
        <time>2022-12-30T11:50:10.333Z</time>
      </trkpt>
      <trkpt lat="44.0932" lon="0.95183">
        <ele>111.517387</ele>
        <time>2022-12-30T11:50:13.318Z</time>
      </trkpt>
      <trkpt lat="44.09316" lon="0.95198">
        <ele>111.451509</ele>
        <time>2022-12-30T11:50:16.337Z</time>
      </trkpt>
      <trkpt lat="44.09311" lon="0.95214">
        <ele>111.383335</ele>
        <time>2022-12-30T11:50:19.326Z</time>
      </trkpt>
      <trkpt lat="44.09307" lon="0.9523">
        <ele>111.310546</ele>
        <time>2022-12-30T11:50:22.334Z</time>
      </trkpt>
      <trkpt lat="44.09302" lon="0.95247">
        <ele>111.239245</ele>
        <time>2022-12-30T11:50:25.333Z</time>
      </trkpt>
      <trkpt lat="44.09297" lon="0.95263">
        <ele>111.165994</ele>
        <time>2022-12-30T11:50:28.336Z</time>
      </trkpt>
      <trkpt lat="44.09292" lon="0.95279">
        <ele>111.095827</ele>
        <time>2022-12-30T11:50:31.327Z</time>
      </trkpt>
      <trkpt lat="44.09287" lon="0.95294">
        <ele>111.027811</ele>
        <time>2022-12-30T11:50:34.338Z</time>
      </trkpt>
      <trkpt lat="44.09283" lon="0.95309">
        <ele>110.961096</ele>
        <time>2022-12-30T11:50:37.334Z</time>
      </trkpt>
      <trkpt lat="44.09279" lon="0.95325">
        <ele>110.890797</ele>
        <time>2022-12-30T11:50:40.335Z</time>
      </trkpt>
      <trkpt lat="44.09275" lon="0.95343">
        <ele>110.816241</ele>
        <time>2022-12-30T11:50:43.339Z</time>
      </trkpt>
      <trkpt lat="44.0927" lon="0.9536">
        <ele>110.839324</ele>
        <time>2022-12-30T11:50:46.338Z</time>
      </trkpt>
      <trkpt lat="44.09266" lon="0.95377">
        <ele>110.976532</ele>
        <time>2022-12-30T11:50:49.335Z</time>
      </trkpt>
      <trkpt lat="44.09262" lon="0.95389">
        <ele>111.073358</ele>
        <time>2022-12-30T11:50:51.337Z</time>
      </trkpt>
      <trkpt lat="44.09257" lon="0.95406">
        <ele>111.206859</ele>
        <time>2022-12-30T11:50:54.322Z</time>
      </trkpt>
      <trkpt lat="44.09252" lon="0.95422">
        <ele>111.336488</ele>
        <time>2022-12-30T11:50:57.344Z</time>
      </trkpt>
      <trkpt lat="44.09248" lon="0.95439">
        <ele>111.467489</ele>
        <time>2022-12-30T11:51:00.347Z</time>
      </trkpt>
      <trkpt lat="44.09243" lon="0.95455">
        <ele>111.595747</ele>
        <time>2022-12-30T11:51:03.342Z</time>
      </trkpt>
      <trkpt lat="44.09238" lon="0.9547">
        <ele>111.717325</ele>
        <time>2022-12-30T11:51:06.339Z</time>
      </trkpt>
      <trkpt lat="44.09234" lon="0.95484">
        <ele>111.825144</ele>
        <time>2022-12-30T11:51:09.336Z</time>
      </trkpt>
      <trkpt lat="44.0923" lon="0.95496">
        <ele>111.92921</ele>
        <time>2022-12-30T11:51:12.345Z</time>
      </trkpt>
      <trkpt lat="44.09226" lon="0.9551">
        <ele>112.036285</ele>
        <time>2022-12-30T11:51:15.335Z</time>
      </trkpt>
      <trkpt lat="44.09222" lon="0.95524">
        <ele>112.149929</ele>
        <time>2022-12-30T11:51:18.340Z</time>
      </trkpt>
      <trkpt lat="44.09218" lon="0.9554">
        <ele>112.272339</ele>
        <time>2022-12-30T11:51:21.349Z</time>
      </trkpt>
      <trkpt lat="44.09213" lon="0.95554">
        <ele>112.390138</ele>
        <time>2022-12-30T11:51:24.342Z</time>
      </trkpt>
      <trkpt lat="44.09209" lon="0.9557">
        <ele>112.512096</ele>
        <time>2022-12-30T11:51:27.333Z</time>
      </trkpt>
      <trkpt lat="44.09205" lon="0.95585">
        <ele>112.631665</ele>
        <time>2022-12-30T11:51:30.337Z</time>
      </trkpt>
      <trkpt lat="44.09202" lon="0.95601">
        <ele>112.753162</ele>
        <time>2022-12-30T11:51:33.319Z</time>
      </trkpt>
      <trkpt lat="44.09198" lon="0.95613">
        <ele>112.858572</ele>
        <time>2022-12-30T11:51:35.336Z</time>
      </trkpt>
      <trkpt lat="44.09195" lon="0.95625">
        <ele>112.954171</ele>
        <time>2022-12-30T11:51:37.336Z</time>
      </trkpt>
      <trkpt lat="44.0919" lon="0.95642">
        <ele>113.092388</ele>
        <time>2022-12-30T11:51:40.342Z</time>
      </trkpt>
      <trkpt lat="44.09185" lon="0.95658">
        <ele>113.228044</ele>
        <time>2022-12-30T11:51:43.336Z</time>
      </trkpt>
      <trkpt lat="44.09181" lon="0.95672">
        <ele>113.341159</ele>
        <time>2022-12-30T11:51:46.345Z</time>
      </trkpt>
      <trkpt lat="44.09177" lon="0.95686">
        <ele>113.453685</ele>
        <time>2022-12-30T11:51:49.339Z</time>
      </trkpt>
      <trkpt lat="44.09173" lon="0.95698">
        <ele>113.555343</ele>
        <time>2022-12-30T11:51:52.342Z</time>
      </trkpt>
      <trkpt lat="44.0917" lon="0.9571">
        <ele>113.654492</ele>
        <time>2022-12-30T11:51:55.347Z</time>
      </trkpt>
      <trkpt lat="44.09166" lon="0.95725">
        <ele>113.772302</ele>
        <time>2022-12-30T11:51:58.338Z</time>
      </trkpt>
      <trkpt lat="44.09161" lon="0.95739">
        <ele>113.893423</ele>
        <time>2022-12-30T11:52:01.341Z</time>
      </trkpt>
      <trkpt lat="44.09157" lon="0.95755">
        <ele>114.019763</ele>
        <time>2022-12-30T11:52:04.338Z</time>
      </trkpt>
      <trkpt lat="44.09153" lon="0.9577">
        <ele>114.141828</ele>
        <time>2022-12-30T11:52:07.339Z</time>
      </trkpt>
      <trkpt lat="44.09149" lon="0.95785">
        <ele>114.267571</ele>
        <time>2022-12-30T11:52:10.342Z</time>
      </trkpt>
      <trkpt lat="44.09144" lon="0.958">
        <ele>114.388129</ele>
        <time>2022-12-30T11:52:13.343Z</time>
      </trkpt>
      <trkpt lat="44.0914" lon="0.95815">
        <ele>114.510575</ele>
        <time>2022-12-30T11:52:16.339Z</time>
      </trkpt>
      <trkpt lat="44.09135" lon="0.95831">
        <ele>114.303017</ele>
        <time>2022-12-30T11:52:19.336Z</time>
      </trkpt>
      <trkpt lat="44.09132" lon="0.95847">
        <ele>114.05652</ele>
        <time>2022-12-30T11:52:22.345Z</time>
      </trkpt>
      <trkpt lat="44.09127" lon="0.95862">
        <ele>113.808754</ele>
        <time>2022-12-30T11:52:25.334Z</time>
      </trkpt>
      <trkpt lat="44.09123" lon="0.95878">
        <ele>113.565094</ele>
        <time>2022-12-30T11:52:28.337Z</time>
      </trkpt>
      <trkpt lat="44.09117" lon="0.95894">
        <ele>113.301895</ele>
        <time>2022-12-30T11:52:31.346Z</time>
      </trkpt>
      <trkpt lat="44.09112" lon="0.9591">
        <ele>113.044399</ele>
        <time>2022-12-30T11:52:34.339Z</time>
      </trkpt>
      <trkpt lat="44.09108" lon="0.95925">
        <ele>112.799978</ele>
        <time>2022-12-30T11:52:37.342Z</time>
      </trkpt>
      <trkpt lat="44.09104" lon="0.9594">
        <ele>112.565989</ele>
        <time>2022-12-30T11:52:40.349Z</time>
      </trkpt>
      <trkpt lat="44.091" lon="0.95957">
        <ele>112.304325</ele>
        <time>2022-12-30T11:52:43.345Z</time>
      </trkpt>
      <trkpt lat="44.09096" lon="0.95972">
        <ele>112.063433</ele>
        <time>2022-12-30T11:52:46.347Z</time>
      </trkpt>
      <trkpt lat="44.09093" lon="0.95987">
        <ele>111.845702</ele>
        <time>2022-12-30T11:52:49.345Z</time>
      </trkpt>
      <trkpt lat="44.09089" lon="0.95998">
        <ele>111.65765</ele>
        <time>2022-12-30T11:52:52.349Z</time>
      </trkpt>
      <trkpt lat="44.09085" lon="0.96011">
        <ele>111.460131</ele>
        <time>2022-12-30T11:52:55.334Z</time>
      </trkpt>
      <trkpt lat="44.09082" lon="0.96025">
        <ele>111.237899</ele>
        <time>2022-12-30T11:52:58.337Z</time>
      </trkpt>
      <trkpt lat="44.09078" lon="0.9604">
        <ele>110.997695</ele>
        <time>2022-12-30T11:53:01.342Z</time>
      </trkpt>
      <trkpt lat="44.09074" lon="0.96057">
        <ele>110.845099</ele>
        <time>2022-12-30T11:53:04.339Z</time>
      </trkpt>
      <trkpt lat="44.0907" lon="0.96073">
        <ele>110.851858</ele>
        <time>2022-12-30T11:53:07.340Z</time>
      </trkpt>
      <trkpt lat="44.09065" lon="0.96091">
        <ele>110.859351</ele>
        <time>2022-12-30T11:53:10.340Z</time>
      </trkpt>
      <trkpt lat="44.0906" lon="0.96108">
        <ele>110.866584</ele>
        <time>2022-12-30T11:53:13.335Z</time>
      </trkpt>
      <trkpt lat="44.09056" lon="0.96123">
        <ele>110.873071</ele>
        <time>2022-12-30T11:53:16.337Z</time>
      </trkpt>
      <trkpt lat="44.0905" lon="0.96138">
        <ele>110.879921</ele>
        <time>2022-12-30T11:53:19.336Z</time>
      </trkpt>
      <trkpt lat="44.09046" lon="0.96149">
        <ele>110.884949</ele>
        <time>2022-12-30T11:53:21.334Z</time>
      </trkpt>
      <trkpt lat="44.09041" lon="0.96165">
        <ele>110.891769</ele>
        <time>2022-12-30T11:53:24.348Z</time>
      </trkpt>
      <trkpt lat="44.09037" lon="0.96183">
        <ele>110.899411</ele>
        <time>2022-12-30T11:53:27.325Z</time>
      </trkpt>
      <trkpt lat="44.09033" lon="0.96194">
        <ele>110.90446</ele>
        <time>2022-12-30T11:53:29.337Z</time>
      </trkpt>
      <trkpt lat="44.0903" lon="0.96206">
        <ele>110.909563</ele>
        <time>2022-12-30T11:53:31.339Z</time>
      </trkpt>
      <trkpt lat="44.09027" lon="0.96219">
        <ele>110.914763</ele>
        <time>2022-12-30T11:53:33.338Z</time>
      </trkpt>
      <trkpt lat="44.09022" lon="0.96235">
        <ele>110.921917</ele>
        <time>2022-12-30T11:53:36.343Z</time>
      </trkpt>
      <trkpt lat="44.09018" lon="0.96252">
        <ele>110.929185</ele>
        <time>2022-12-30T11:53:39.341Z</time>
      </trkpt>
      <trkpt lat="44.09013" lon="0.96269">
        <ele>110.936275</ele>
        <time>2022-12-30T11:53:42.336Z</time>
      </trkpt>
      <trkpt lat="44.09008" lon="0.96285">
        <ele>110.932887</ele>
        <time>2022-12-30T11:53:45.341Z</time>
      </trkpt>
      <trkpt lat="44.09005" lon="0.96301">
        <ele>110.875945</ele>
        <time>2022-12-30T11:53:48.345Z</time>
      </trkpt>
      <trkpt lat="44.09001" lon="0.96316">
        <ele>110.819289</ele>
        <time>2022-12-30T11:53:51.338Z</time>
      </trkpt>
      <trkpt lat="44.08997" lon="0.96333">
        <ele>110.758239</ele>
        <time>2022-12-30T11:53:54.340Z</time>
      </trkpt>
      <trkpt lat="44.08993" lon="0.96348">
        <ele>110.700997</ele>
        <time>2022-12-30T11:53:57.340Z</time>
      </trkpt>
      <trkpt lat="44.08989" lon="0.96361">
        <ele>110.651624</ele>
        <time>2022-12-30T11:54:00.341Z</time>
      </trkpt>
      <trkpt lat="44.08986" lon="0.96375">
        <ele>110.601285</ele>
        <time>2022-12-30T11:54:03.328Z</time>
      </trkpt>
      <trkpt lat="44.0898" lon="0.96389">
        <ele>110.54398</ele>
        <time>2022-12-30T11:54:06.343Z</time>
      </trkpt>
      <trkpt lat="44.0897" lon="0.964">
        <ele>110.483466</ele>
        <time>2022-12-30T11:54:09.339Z</time>
      </trkpt>
      <trkpt lat="44.08964" lon="0.96414">
        <ele>110.426633</ele>
        <time>2022-12-30T11:54:12.336Z</time>
      </trkpt>
      <trkpt lat="44.08965" lon="0.96429">
        <ele>110.37322</ele>
        <time>2022-12-30T11:54:15.335Z</time>
      </trkpt>
      <trkpt lat="44.08965" lon="0.96443">
        <ele>110.323784</ele>
        <time>2022-12-30T11:54:18.343Z</time>
      </trkpt>
      <trkpt lat="44.08962" lon="0.96457">
        <ele>110.272178</ele>
        <time>2022-12-30T11:54:21.329Z</time>
      </trkpt>
      <trkpt lat="44.08958" lon="0.96471">
        <ele>110.21798</ele>
        <time>2022-12-30T11:54:24.321Z</time>
      </trkpt>
      <trkpt lat="44.08953" lon="0.96486">
        <ele>110.162814</ele>
        <time>2022-12-30T11:54:27.338Z</time>
      </trkpt>
      <trkpt lat="44.08949" lon="0.96501">
        <ele>110.103752</ele>
        <time>2022-12-30T11:54:30.341Z</time>
      </trkpt>
      <trkpt lat="44.08943" lon="0.96519">
        <ele>110.056765</ele>
        <time>2022-12-30T11:54:33.328Z</time>
      </trkpt>
      <trkpt lat="44.08938" lon="0.9653">
        <ele>110.044347</ele>
        <time>2022-12-30T11:54:35.345Z</time>
      </trkpt>
      <trkpt lat="44.08934" lon="0.96548">
        <ele>110.026747</ele>
        <time>2022-12-30T11:54:38.337Z</time>
      </trkpt>
      <trkpt lat="44.0893" lon="0.96564">
        <ele>110.010056</ele>
        <time>2022-12-30T11:54:41.320Z</time>
      </trkpt>
      <trkpt lat="44.08926" lon="0.9658">
        <ele>109.993415</ele>
        <time>2022-12-30T11:54:44.337Z</time>
      </trkpt>
      <trkpt lat="44.08922" lon="0.96596">
        <ele>109.97661</ele>
        <time>2022-12-30T11:54:47.339Z</time>
      </trkpt>
      <trkpt lat="44.08917" lon="0.96613">
        <ele>109.95973</ele>
        <time>2022-12-30T11:54:50.340Z</time>
      </trkpt>
      <trkpt lat="44.08912" lon="0.96628">
        <ele>109.943192</ele>
        <time>2022-12-30T11:54:53.340Z</time>
      </trkpt>
      <trkpt lat="44.08908" lon="0.96645">
        <ele>109.926275</ele>
        <time>2022-12-30T11:54:56.345Z</time>
      </trkpt>
      <trkpt lat="44.08904" lon="0.9666">
        <ele>109.910679</ele>
        <time>2022-12-30T11:54:59.337Z</time>
      </trkpt>
      <trkpt lat="44.08899" lon="0.96675">
        <ele>109.894744</ele>
        <time>2022-12-30T11:55:02.341Z</time>
      </trkpt>
      <trkpt lat="44.08894" lon="0.96692">
        <ele>109.877136</ele>
        <time>2022-12-30T11:55:05.336Z</time>
      </trkpt>
      <trkpt lat="44.0889" lon="0.96709">
        <ele>109.860036</ele>
        <time>2022-12-30T11:55:08.336Z</time>
      </trkpt>
      <trkpt lat="44.08886" lon="0.96725">
        <ele>109.843622</ele>
        <time>2022-12-30T11:55:11.334Z</time>
      </trkpt>
      <trkpt lat="44.08881" lon="0.96742">
        <ele>109.826161</ele>
        <time>2022-12-30T11:55:14.337Z</time>
      </trkpt>
      <trkpt lat="44.08878" lon="0.96753">
        <ele>109.808232</ele>
        <time>2022-12-30T11:55:16.339Z</time>
      </trkpt>
      <trkpt lat="44.08873" lon="0.9677">
        <ele>109.780023</ele>
        <time>2022-12-30T11:55:19.336Z</time>
      </trkpt>
      <trkpt lat="44.08868" lon="0.96785">
        <ele>109.752773</ele>
        <time>2022-12-30T11:55:22.337Z</time>
      </trkpt>
      <trkpt lat="44.08864" lon="0.96802">
        <ele>109.7255</ele>
        <time>2022-12-30T11:55:25.347Z</time>
      </trkpt>
      <trkpt lat="44.08859" lon="0.96818">
        <ele>109.697555</ele>
        <time>2022-12-30T11:55:28.337Z</time>
      </trkpt>
      <trkpt lat="44.08856" lon="0.96833">
        <ele>109.671993</ele>
        <time>2022-12-30T11:55:31.326Z</time>
      </trkpt>
      <trkpt lat="44.08851" lon="0.9685">
        <ele>109.643754</ele>
        <time>2022-12-30T11:55:34.348Z</time>
      </trkpt>
      <trkpt lat="44.08846" lon="0.96866">
        <ele>109.616359</ele>
        <time>2022-12-30T11:55:37.337Z</time>
      </trkpt>
      <trkpt lat="44.08842" lon="0.96882">
        <ele>109.589005</ele>
        <time>2022-12-30T11:55:40.335Z</time>
      </trkpt>
      <trkpt lat="44.08838" lon="0.96899">
        <ele>109.561586</ele>
        <time>2022-12-30T11:55:43.341Z</time>
      </trkpt>
      <trkpt lat="44.08833" lon="0.96913">
        <ele>109.53704</ele>
        <time>2022-12-30T11:55:46.339Z</time>
      </trkpt>
      <trkpt lat="44.0883" lon="0.96926">
        <ele>109.514081</ele>
        <time>2022-12-30T11:55:49.336Z</time>
      </trkpt>
      <trkpt lat="44.08826" lon="0.9694">
        <ele>109.490372</ele>
        <time>2022-12-30T11:55:52.338Z</time>
      </trkpt>
      <trkpt lat="44.08821" lon="0.96955">
        <ele>109.465302</ele>
        <time>2022-12-30T11:55:55.340Z</time>
      </trkpt>
      <trkpt lat="44.08817" lon="0.96969">
        <ele>109.440961</ele>
        <time>2022-12-30T11:55:58.347Z</time>
      </trkpt>
      <trkpt lat="44.08813" lon="0.9698">
        <ele>109.446701</ele>
        <time>2022-12-30T11:56:01.342Z</time>
      </trkpt>
      <trkpt lat="44.08805" lon="0.96989">
        <ele>109.530081</ele>
        <time>2022-12-30T11:56:05.341Z</time>
      </trkpt>
      <trkpt lat="44.08799" lon="0.97002">
        <ele>109.61972</ele>
        <time>2022-12-30T11:56:08.346Z</time>
      </trkpt>
      <trkpt lat="44.08794" lon="0.97019">
        <ele>109.726037</ele>
        <time>2022-12-30T11:56:11.346Z</time>
      </trkpt>
      <trkpt lat="44.08788" lon="0.97035">
        <ele>109.83076</ele>
        <time>2022-12-30T11:56:14.341Z</time>
      </trkpt>
      <trkpt lat="44.08783" lon="0.9705">
        <ele>109.929162</ele>
        <time>2022-12-30T11:56:17.324Z</time>
      </trkpt>
      <trkpt lat="44.08779" lon="0.97064">
        <ele>110.017118</ele>
        <time>2022-12-30T11:56:20.336Z</time>
      </trkpt>
      <trkpt lat="44.08775" lon="0.97076">
        <ele>110.095449</ele>
        <time>2022-12-30T11:56:23.338Z</time>
      </trkpt>
      <trkpt lat="44.08772" lon="0.97089">
        <ele>110.175648</ele>
        <time>2022-12-30T11:56:26.334Z</time>
      </trkpt>
      <trkpt lat="44.08768" lon="0.97102">
        <ele>110.257005</ele>
        <time>2022-12-30T11:56:29.348Z</time>
      </trkpt>
      <trkpt lat="44.08764" lon="0.97115">
        <ele>110.340079</ele>
        <time>2022-12-30T11:56:32.338Z</time>
      </trkpt>
      <trkpt lat="44.08759" lon="0.97128">
        <ele>110.427696</ele>
        <time>2022-12-30T11:56:35.320Z</time>
      </trkpt>
      <trkpt lat="44.08755" lon="0.97142">
        <ele>110.513576</ele>
        <time>2022-12-30T11:56:38.346Z</time>
      </trkpt>
      <trkpt lat="44.0875" lon="0.97155">
        <ele>110.599815</ele>
        <time>2022-12-30T11:56:41.338Z</time>
      </trkpt>
      <trkpt lat="44.08745" lon="0.97167">
        <ele>110.685586</ele>
        <time>2022-12-30T11:56:44.350Z</time>
      </trkpt>
      <trkpt lat="44.0874" lon="0.9718">
        <ele>110.772866</ele>
        <time>2022-12-30T11:56:48.347Z</time>
      </trkpt>
      <trkpt lat="44.08735" lon="0.97192">
        <ele>110.853342</ele>
        <time>2022-12-30T11:56:52.348Z</time>
      </trkpt>
      <trkpt lat="44.08729" lon="0.97206">
        <ele>110.883937</ele>
        <time>2022-12-30T11:56:56.336Z</time>
      </trkpt>
      <trkpt lat="44.08724" lon="0.97217">
        <ele>110.864241</ele>
        <time>2022-12-30T11:56:59.339Z</time>
      </trkpt>
      <trkpt lat="44.08719" lon="0.97228">
        <ele>110.843634</ele>
        <time>2022-12-30T11:57:02.350Z</time>
      </trkpt>
      <trkpt lat="44.08713" lon="0.9724">
        <ele>110.822165</ele>
        <time>2022-12-30T11:57:05.350Z</time>
      </trkpt>
      <trkpt lat="44.08707" lon="0.97251">
        <ele>110.800691</ele>
        <time>2022-12-30T11:57:08.347Z</time>
      </trkpt>
      <trkpt lat="44.087" lon="0.97262">
        <ele>110.780297</ele>
        <time>2022-12-30T11:57:11.347Z</time>
      </trkpt>
      <trkpt lat="44.08694" lon="0.97272">
        <ele>110.760575</ele>
        <time>2022-12-30T11:57:14.341Z</time>
      </trkpt>
      <trkpt lat="44.08687" lon="0.97283">
        <ele>110.737902</ele>
        <time>2022-12-30T11:57:17.335Z</time>
      </trkpt>
      <trkpt lat="44.0868" lon="0.97296">
        <ele>110.713189</ele>
        <time>2022-12-30T11:57:20.338Z</time>
      </trkpt>
      <trkpt lat="44.08672" lon="0.97308">
        <ele>110.688636</ele>
        <time>2022-12-30T11:57:23.337Z</time>
      </trkpt>
      <trkpt lat="44.08664" lon="0.9732">
        <ele>110.663672</ele>
        <time>2022-12-30T11:57:26.337Z</time>
      </trkpt>
      <trkpt lat="44.08657" lon="0.97333">
        <ele>110.63894</ele>
        <time>2022-12-30T11:57:29.337Z</time>
      </trkpt>
      <trkpt lat="44.0865" lon="0.97343">
        <ele>110.618279</ele>
        <time>2022-12-30T11:57:32.340Z</time>
      </trkpt>
      <trkpt lat="44.08645" lon="0.97353">
        <ele>110.599334</ele>
        <time>2022-12-30T11:57:35.349Z</time>
      </trkpt>
      <trkpt lat="44.08638" lon="0.97363">
        <ele>110.578095</ele>
        <time>2022-12-30T11:57:38.338Z</time>
      </trkpt>
      <trkpt lat="44.0863" lon="0.97375">
        <ele>110.554749</ele>
        <time>2022-12-30T11:57:41.348Z</time>
      </trkpt>
      <trkpt lat="44.08622" lon="0.97387">
        <ele>110.530277</ele>
        <time>2022-12-30T11:57:44.337Z</time>
      </trkpt>
      <trkpt lat="44.08615" lon="0.97399">
        <ele>110.476212</ele>
        <time>2022-12-30T11:57:47.346Z</time>
      </trkpt>
      <trkpt lat="44.08607" lon="0.97411">
        <ele>110.395782</ele>
        <time>2022-12-30T11:57:50.336Z</time>
      </trkpt>
      <trkpt lat="44.08599" lon="0.97423">
        <ele>110.315908</ele>
        <time>2022-12-30T11:57:53.346Z</time>
      </trkpt>
      <trkpt lat="44.08592" lon="0.97435">
        <ele>110.234365</ele>
        <time>2022-12-30T11:57:56.346Z</time>
      </trkpt>
      <trkpt lat="44.08584" lon="0.97447">
        <ele>110.154079</ele>
        <time>2022-12-30T11:57:59.346Z</time>
      </trkpt>
      <trkpt lat="44.08576" lon="0.97459">
        <ele>110.070399</ele>
        <time>2022-12-30T11:58:02.347Z</time>
      </trkpt>
      <trkpt lat="44.08568" lon="0.97471">
        <ele>109.988021</ele>
        <time>2022-12-30T11:58:05.336Z</time>
      </trkpt>
      <trkpt lat="44.08559" lon="0.97483">
        <ele>109.904967</ele>
        <time>2022-12-30T11:58:08.338Z</time>
      </trkpt>
      <trkpt lat="44.08551" lon="0.97496">
        <ele>109.819799</ele>
        <time>2022-12-30T11:58:11.348Z</time>
      </trkpt>
      <trkpt lat="44.08543" lon="0.97509">
        <ele>109.733973</ele>
        <time>2022-12-30T11:58:14.336Z</time>
      </trkpt>
      <trkpt lat="44.08535" lon="0.97521">
        <ele>109.651966</ele>
        <time>2022-12-30T11:58:17.346Z</time>
      </trkpt>
      <trkpt lat="44.08527" lon="0.97533">
        <ele>109.571257</ele>
        <time>2022-12-30T11:58:20.336Z</time>
      </trkpt>
      <trkpt lat="44.0852" lon="0.97545">
        <ele>109.492591</ele>
        <time>2022-12-30T11:58:23.342Z</time>
      </trkpt>
      <trkpt lat="44.08511" lon="0.97555">
        <ele>109.414458</ele>
        <time>2022-12-30T11:58:26.348Z</time>
      </trkpt>
      <trkpt lat="44.08504" lon="0.97566">
        <ele>109.339214</ele>
        <time>2022-12-30T11:58:29.345Z</time>
      </trkpt>
      <trkpt lat="44.08496" lon="0.97579">
        <ele>109.257767</ele>
        <time>2022-12-30T11:58:32.319Z</time>
      </trkpt>
      <trkpt lat="44.08488" lon="0.9759">
        <ele>109.185313</ele>
        <time>2022-12-30T11:58:35.347Z</time>
      </trkpt>
      <trkpt lat="44.08481" lon="0.97601">
        <ele>109.11551</ele>
        <time>2022-12-30T11:58:39.340Z</time>
      </trkpt>
      <trkpt lat="44.08474" lon="0.97612">
        <ele>109.048038</ele>
        <time>2022-12-30T11:58:42.338Z</time>
      </trkpt>
      <trkpt lat="44.08469" lon="0.97622">
        <ele>108.990383</ele>
        <time>2022-12-30T11:58:44.339Z</time>
      </trkpt>
      <trkpt lat="44.08462" lon="0.97632">
        <ele>108.928096</ele>
        <time>2022-12-30T11:58:46.341Z</time>
      </trkpt>
      <trkpt lat="44.08456" lon="0.97643">
        <ele>108.865097</ele>
        <time>2022-12-30T11:58:48.349Z</time>
      </trkpt>
      <trkpt lat="44.0845" lon="0.97654">
        <ele>108.799452</ele>
        <time>2022-12-30T11:58:50.337Z</time>
      </trkpt>
      <trkpt lat="44.08445" lon="0.97665">
        <ele>108.739848</ele>
        <time>2022-12-30T11:58:52.323Z</time>
      </trkpt>
      <trkpt lat="44.0844" lon="0.97675">
        <ele>108.682141</ele>
        <time>2022-12-30T11:58:54.345Z</time>
      </trkpt>
      <trkpt lat="44.08434" lon="0.97689">
        <ele>108.608376</ele>
        <time>2022-12-30T11:58:57.322Z</time>
      </trkpt>
      <trkpt lat="44.08429" lon="0.977">
        <ele>108.548455</ele>
        <time>2022-12-30T11:59:00.347Z</time>
      </trkpt>
      <trkpt lat="44.08424" lon="0.97712">
        <ele>108.486174</ele>
        <time>2022-12-30T11:59:03.338Z</time>
      </trkpt>
      <trkpt lat="44.0842" lon="0.97724">
        <ele>108.42421</ele>
        <time>2022-12-30T11:59:06.336Z</time>
      </trkpt>
      <trkpt lat="44.08416" lon="0.97736">
        <ele>108.361294</ele>
        <time>2022-12-30T11:59:09.345Z</time>
      </trkpt>
      <trkpt lat="44.08412" lon="0.97749">
        <ele>108.297694</ele>
        <time>2022-12-30T11:59:12.343Z</time>
      </trkpt>
      <trkpt lat="44.08407" lon="0.97762">
        <ele>108.23188</ele>
        <time>2022-12-30T11:59:15.337Z</time>
      </trkpt>
      <trkpt lat="44.08404" lon="0.97775">
        <ele>108.167901</ele>
        <time>2022-12-30T11:59:18.340Z</time>
      </trkpt>
      <trkpt lat="44.084" lon="0.97787">
        <ele>108.136986</ele>
        <time>2022-12-30T11:59:21.339Z</time>
      </trkpt>
      <trkpt lat="44.08396" lon="0.978">
        <ele>108.270004</ele>
        <time>2022-12-30T11:59:24.342Z</time>
      </trkpt>
      <trkpt lat="44.08394" lon="0.97813">
        <ele>108.400679</ele>
        <time>2022-12-30T11:59:27.341Z</time>
      </trkpt>
      <trkpt lat="44.08391" lon="0.97826">
        <ele>108.525772</ele>
        <time>2022-12-30T11:59:30.342Z</time>
      </trkpt>
      <trkpt lat="44.08388" lon="0.97838">
        <ele>108.650577</ele>
        <time>2022-12-30T11:59:33.348Z</time>
      </trkpt>
      <trkpt lat="44.08387" lon="0.97851">
        <ele>108.776161</ele>
        <time>2022-12-30T11:59:36.343Z</time>
      </trkpt>
      <trkpt lat="44.08385" lon="0.97863">
        <ele>108.897427</ele>
        <time>2022-12-30T11:59:39.341Z</time>
      </trkpt>
      <trkpt lat="44.08382" lon="0.97879">
        <ele>109.054209</ele>
        <time>2022-12-30T11:59:43.344Z</time>
      </trkpt>
      <trkpt lat="44.08379" lon="0.97895">
        <ele>109.2111</ele>
        <time>2022-12-30T11:59:47.338Z</time>
      </trkpt>
      <trkpt lat="44.08377" lon="0.97909">
        <ele>109.349406</ele>
        <time>2022-12-30T11:59:51.340Z</time>
      </trkpt>
      <trkpt lat="44.08375" lon="0.97922">
        <ele>109.482296</ele>
        <time>2022-12-30T11:59:55.327Z</time>
      </trkpt>
      <trkpt lat="44.08373" lon="0.97935">
        <ele>109.6089</ele>
        <time>2022-12-30T11:59:59.338Z</time>
      </trkpt>
      <trkpt lat="44.0837" lon="0.97948">
        <ele>109.736975</ele>
        <time>2022-12-30T12:00:04.346Z</time>
      </trkpt>
      <trkpt lat="44.08368" lon="0.97962">
        <ele>109.876745</ele>
        <time>2022-12-30T12:00:09.346Z</time>
      </trkpt>
      <trkpt lat="44.08365" lon="0.97978">
        <ele>110.035836</ele>
        <time>2022-12-30T12:00:13.347Z</time>
      </trkpt>
      <trkpt lat="44.08364" lon="0.97995">
        <ele>110.202438</ele>
        <time>2022-12-30T12:00:16.336Z</time>
      </trkpt>
      <trkpt lat="44.08362" lon="0.98007">
        <ele>110.322716</ele>
        <time>2022-12-30T12:00:18.337Z</time>
      </trkpt>
      <trkpt lat="44.0836" lon="0.98022">
        <ele>110.464814</ele>
        <time>2022-12-30T12:00:20.338Z</time>
      </trkpt>
      <trkpt lat="44.08358" lon="0.98037">
        <ele>110.598596</ele>
        <time>2022-12-30T12:00:22.337Z</time>
      </trkpt>
      <trkpt lat="44.08355" lon="0.98051">
        <ele>110.717265</ele>
        <time>2022-12-30T12:00:24.348Z</time>
      </trkpt>
      <trkpt lat="44.08351" lon="0.98069">
        <ele>110.86383</ele>
        <time>2022-12-30T12:00:27.344Z</time>
      </trkpt>
      <trkpt lat="44.08348" lon="0.98085">
        <ele>110.995032</ele>
        <time>2022-12-30T12:00:30.338Z</time>
      </trkpt>
      <trkpt lat="44.08347" lon="0.98099">
        <ele>111.110088</ele>
        <time>2022-12-30T12:00:33.345Z</time>
      </trkpt>
      <trkpt lat="44.08345" lon="0.98112">
        <ele>111.216483</ele>
        <time>2022-12-30T12:00:36.336Z</time>
      </trkpt>
      <trkpt lat="44.08344" lon="0.98128">
        <ele>111.348825</ele>
        <time>2022-12-30T12:00:40.347Z</time>
      </trkpt>
      <trkpt lat="44.08344" lon="0.98143">
        <ele>111.461522</ele>
        <time>2022-12-30T12:00:43.342Z</time>
      </trkpt>
      <trkpt lat="44.08344" lon="0.98158">
        <ele>111.581427</ele>
        <time>2022-12-30T12:00:46.347Z</time>
      </trkpt>
      <trkpt lat="44.08344" lon="0.98173">
        <ele>111.704755</ele>
        <time>2022-12-30T12:00:49.339Z</time>
      </trkpt>
      <trkpt lat="44.08345" lon="0.98189">
        <ele>111.835263</ele>
        <time>2022-12-30T12:00:52.336Z</time>
      </trkpt>
      <trkpt lat="44.08347" lon="0.98206">
        <ele>111.966602</ele>
        <time>2022-12-30T12:00:55.332Z</time>
      </trkpt>
      <trkpt lat="44.08349" lon="0.98222">
        <ele>112.09849</ele>
        <time>2022-12-30T12:00:58.341Z</time>
      </trkpt>
      <trkpt lat="44.08352" lon="0.98238">
        <ele>112.231474</ele>
        <time>2022-12-30T12:01:01.342Z</time>
      </trkpt>
      <trkpt lat="44.08354" lon="0.98255">
        <ele>112.369942</ele>
        <time>2022-12-30T12:01:04.336Z</time>
      </trkpt>
      <trkpt lat="44.08357" lon="0.98271">
        <ele>112.503754</ele>
        <time>2022-12-30T12:01:07.347Z</time>
      </trkpt>
      <trkpt lat="44.08359" lon="0.98287">
        <ele>112.579104</ele>
        <time>2022-12-30T12:01:10.322Z</time>
      </trkpt>
      <trkpt lat="44.08361" lon="0.98302">
        <ele>112.634269</ele>
        <time>2022-12-30T12:01:13.348Z</time>
      </trkpt>
      <trkpt lat="44.08363" lon="0.98317">
        <ele>112.689877</ele>
        <time>2022-12-30T12:01:16.330Z</time>
      </trkpt>
      <trkpt lat="44.08366" lon="0.9833">
        <ele>112.742587</ele>
        <time>2022-12-30T12:01:19.353Z</time>
      </trkpt>
      <trkpt lat="44.08369" lon="0.98345">
        <ele>112.797717</ele>
        <time>2022-12-30T12:01:22.342Z</time>
      </trkpt>
      <trkpt lat="44.08373" lon="0.9836">
        <ele>112.856477</ele>
        <time>2022-12-30T12:01:25.348Z</time>
      </trkpt>
      <trkpt lat="44.08376" lon="0.98375">
        <ele>112.916806</ele>
        <time>2022-12-30T12:01:28.330Z</time>
      </trkpt>
      <trkpt lat="44.08381" lon="0.9839">
        <ele>112.976552</ele>
        <time>2022-12-30T12:01:31.345Z</time>
      </trkpt>
      <trkpt lat="44.08385" lon="0.98405">
        <ele>113.037929</ele>
        <time>2022-12-30T12:01:34.343Z</time>
      </trkpt>
      <trkpt lat="44.08389" lon="0.9842">
        <ele>113.097231</ele>
        <time>2022-12-30T12:01:37.342Z</time>
      </trkpt>
      <trkpt lat="44.08395" lon="0.98435">
        <ele>113.157655</ele>
        <time>2022-12-30T12:01:40.341Z</time>
      </trkpt>
      <trkpt lat="44.08401" lon="0.98449">
        <ele>113.220666</ele>
        <time>2022-12-30T12:01:43.348Z</time>
      </trkpt>
      <trkpt lat="44.08408" lon="0.98463">
        <ele>113.28356</ele>
        <time>2022-12-30T12:01:46.349Z</time>
      </trkpt>
      <trkpt lat="44.08416" lon="0.98476">
        <ele>113.345087</ele>
        <time>2022-12-30T12:01:49.344Z</time>
      </trkpt>
      <trkpt lat="44.08424" lon="0.98488">
        <ele>113.407074</ele>
        <time>2022-12-30T12:01:52.343Z</time>
      </trkpt>
      <trkpt lat="44.08432" lon="0.98501">
        <ele>113.482633</ele>
        <time>2022-12-30T12:01:55.347Z</time>
      </trkpt>
      <trkpt lat="44.08441" lon="0.98514">
        <ele>113.615764</ele>
        <time>2022-12-30T12:01:58.341Z</time>
      </trkpt>
      <trkpt lat="44.08448" lon="0.98522">
        <ele>113.708782</ele>
        <time>2022-12-30T12:02:00.350Z</time>
      </trkpt>
      <trkpt lat="44.08458" lon="0.98535">
        <ele>113.843989</ele>
        <time>2022-12-30T12:02:03.338Z</time>
      </trkpt>
      <trkpt lat="44.08466" lon="0.98543">
        <ele>113.936282</ele>
        <time>2022-12-30T12:02:05.346Z</time>
      </trkpt>
      <trkpt lat="44.08472" lon="0.98551">
        <ele>114.027291</ele>
        <time>2022-12-30T12:02:07.340Z</time>
      </trkpt>
      <trkpt lat="44.08481" lon="0.98562">
        <ele>114.150649</ele>
        <time>2022-12-30T12:02:10.338Z</time>
      </trkpt>
      <trkpt lat="44.0849" lon="0.98573">
        <ele>114.269542</ele>
        <time>2022-12-30T12:02:13.348Z</time>
      </trkpt>
      <trkpt lat="44.08499" lon="0.98583">
        <ele>114.38278</ele>
        <time>2022-12-30T12:02:16.336Z</time>
      </trkpt>
      <trkpt lat="44.08507" lon="0.98595">
        <ele>114.503501</ele>
        <time>2022-12-30T12:02:19.341Z</time>
      </trkpt>
      <trkpt lat="44.08515" lon="0.98607">
        <ele>114.625258</ele>
        <time>2022-12-30T12:02:22.341Z</time>
      </trkpt>
      <trkpt lat="44.08525" lon="0.9862">
        <ele>114.759964</ele>
        <time>2022-12-30T12:02:25.350Z</time>
      </trkpt>
      <trkpt lat="44.08532" lon="0.98629">
        <ele>114.854151</ele>
        <time>2022-12-30T12:02:27.333Z</time>
      </trkpt>
      <trkpt lat="44.08539" lon="0.98638">
        <ele>114.954005</ele>
        <time>2022-12-30T12:02:29.349Z</time>
      </trkpt>
      <trkpt lat="44.08548" lon="0.98652">
        <ele>115.089598</ele>
        <time>2022-12-30T12:02:32.340Z</time>
      </trkpt>
      <trkpt lat="44.08555" lon="0.98661">
        <ele>115.185115</ele>
        <time>2022-12-30T12:02:34.348Z</time>
      </trkpt>
      <trkpt lat="44.08562" lon="0.9867">
        <ele>115.276014</ele>
        <time>2022-12-30T12:02:36.338Z</time>
      </trkpt>
      <trkpt lat="44.08568" lon="0.98678">
        <ele>115.234378</ele>
        <time>2022-12-30T12:02:38.348Z</time>
      </trkpt>
      <trkpt lat="44.08575" lon="0.98688">
        <ele>115.192755</ele>
        <time>2022-12-30T12:02:40.341Z</time>
      </trkpt>
      <trkpt lat="44.08581" lon="0.98697">
        <ele>115.149837</ele>
        <time>2022-12-30T12:02:42.348Z</time>
      </trkpt>
      <trkpt lat="44.08588" lon="0.98706">
        <ele>115.105495</ele>
        <time>2022-12-30T12:02:44.348Z</time>
      </trkpt>
      <trkpt lat="44.08595" lon="0.98716">
        <ele>115.060758</ele>
        <time>2022-12-30T12:02:46.343Z</time>
      </trkpt>
      <trkpt lat="44.08602" lon="0.98726">
        <ele>115.015138</ele>
        <time>2022-12-30T12:02:48.348Z</time>
      </trkpt>
      <trkpt lat="44.08609" lon="0.98734">
        <ele>114.972503</ele>
        <time>2022-12-30T12:02:50.347Z</time>
      </trkpt>
      <trkpt lat="44.08615" lon="0.98743">
        <ele>114.928566</ele>
        <time>2022-12-30T12:02:52.340Z</time>
      </trkpt>
      <trkpt lat="44.08622" lon="0.98752">
        <ele>114.883675</ele>
        <time>2022-12-30T12:02:54.349Z</time>
      </trkpt>
      <trkpt lat="44.0863" lon="0.98761">
        <ele>114.837848</ele>
        <time>2022-12-30T12:02:56.350Z</time>
      </trkpt>
      <trkpt lat="44.08636" lon="0.9877">
        <ele>114.79542</ele>
        <time>2022-12-30T12:02:58.345Z</time>
      </trkpt>
      <trkpt lat="44.08643" lon="0.9878">
        <ele>114.751389</ele>
        <time>2022-12-30T12:03:00.361Z</time>
      </trkpt>
      <trkpt lat="44.0865" lon="0.98789">
        <ele>114.706042</ele>
        <time>2022-12-30T12:03:02.342Z</time>
      </trkpt>
      <trkpt lat="44.08658" lon="0.98799">
        <ele>114.658548</ele>
        <time>2022-12-30T12:03:04.350Z</time>
      </trkpt>
      <trkpt lat="44.08664" lon="0.98809">
        <ele>114.614517</ele>
        <time>2022-12-30T12:03:06.351Z</time>
      </trkpt>
      <trkpt lat="44.08671" lon="0.98818">
        <ele>114.568254</ele>
        <time>2022-12-30T12:03:08.347Z</time>
      </trkpt>
      <trkpt lat="44.08679" lon="0.98828">
        <ele>114.521667</ele>
        <time>2022-12-30T12:03:10.340Z</time>
      </trkpt>
      <trkpt lat="44.08687" lon="0.98836">
        <ele>114.473382</ele>
        <time>2022-12-30T12:03:12.350Z</time>
      </trkpt>
      <trkpt lat="44.08697" lon="0.98849">
        <ele>114.418649</ele>
        <time>2022-12-30T12:03:15.346Z</time>
      </trkpt>
      <trkpt lat="44.08704" lon="0.98859">
        <ele>114.384723</ele>
        <time>2022-12-30T12:03:17.337Z</time>
      </trkpt>
      <trkpt lat="44.08711" lon="0.98867">
        <ele>114.350621</ele>
        <time>2022-12-30T12:03:19.337Z</time>
      </trkpt>
      <trkpt lat="44.08718" lon="0.98876">
        <ele>114.315007</ele>
        <time>2022-12-30T12:03:21.345Z</time>
      </trkpt>
      <trkpt lat="44.08725" lon="0.98886">
        <ele>114.280505</ele>
        <time>2022-12-30T12:03:23.321Z</time>
      </trkpt>
      <trkpt lat="44.08732" lon="0.98896">
        <ele>114.246619</ele>
        <time>2022-12-30T12:03:25.339Z</time>
      </trkpt>
      <trkpt lat="44.08738" lon="0.98905">
        <ele>114.213598</ele>
        <time>2022-12-30T12:03:27.338Z</time>
      </trkpt>
      <trkpt lat="44.08747" lon="0.98917">
        <ele>114.168069</ele>
        <time>2022-12-30T12:03:30.349Z</time>
      </trkpt>
      <trkpt lat="44.08757" lon="0.98929">
        <ele>114.122188</ele>
        <time>2022-12-30T12:03:33.334Z</time>
      </trkpt>
      <trkpt lat="44.08766" lon="0.98942">
        <ele>114.075869</ele>
        <time>2022-12-30T12:03:36.341Z</time>
      </trkpt>
      <trkpt lat="44.08775" lon="0.98955">
        <ele>114.029261</ele>
        <time>2022-12-30T12:03:39.351Z</time>
      </trkpt>
      <trkpt lat="44.08785" lon="0.98968">
        <ele>113.981921</ele>
        <time>2022-12-30T12:03:42.340Z</time>
      </trkpt>
      <trkpt lat="44.08791" lon="0.98976">
        <ele>113.949472</ele>
        <time>2022-12-30T12:03:44.348Z</time>
      </trkpt>
      <trkpt lat="44.08798" lon="0.98985">
        <ele>113.917116</ele>
        <time>2022-12-30T12:03:46.349Z</time>
      </trkpt>
      <trkpt lat="44.08805" lon="0.98994">
        <ele>113.884932</ele>
        <time>2022-12-30T12:03:48.337Z</time>
      </trkpt>
      <trkpt lat="44.08811" lon="0.99002">
        <ele>113.851878</ele>
        <time>2022-12-30T12:03:50.336Z</time>
      </trkpt>
      <trkpt lat="44.08818" lon="0.99011">
        <ele>113.818564</ele>
        <time>2022-12-30T12:03:52.347Z</time>
      </trkpt>
      <trkpt lat="44.08828" lon="0.99024">
        <ele>113.614126</ele>
        <time>2022-12-30T12:03:55.347Z</time>
      </trkpt>
      <trkpt lat="44.08834" lon="0.99033">
        <ele>113.423343</ele>
        <time>2022-12-30T12:03:57.338Z</time>
      </trkpt>
      <trkpt lat="44.08841" lon="0.99042">
        <ele>113.224752</ele>
        <time>2022-12-30T12:03:59.349Z</time>
      </trkpt>
      <trkpt lat="44.08848" lon="0.99051">
        <ele>113.024212</ele>
        <time>2022-12-30T12:04:01.347Z</time>
      </trkpt>
      <trkpt lat="44.08855" lon="0.9906">
        <ele>112.830361</ele>
        <time>2022-12-30T12:04:03.351Z</time>
      </trkpt>
      <trkpt lat="44.08865" lon="0.99073">
        <ele>112.546082</ele>
        <time>2022-12-30T12:04:06.349Z</time>
      </trkpt>
      <trkpt lat="44.08871" lon="0.99082">
        <ele>112.353771</ele>
        <time>2022-12-30T12:04:08.341Z</time>
      </trkpt>
      <trkpt lat="44.0888" lon="0.99094">
        <ele>112.097424</ele>
        <time>2022-12-30T12:04:11.348Z</time>
      </trkpt>
      <trkpt lat="44.08887" lon="0.99106">
        <ele>111.855321</ele>
        <time>2022-12-30T12:04:14.344Z</time>
      </trkpt>
      <trkpt lat="44.08895" lon="0.99116">
        <ele>111.632215</ele>
        <time>2022-12-30T12:04:17.347Z</time>
      </trkpt>
      <trkpt lat="44.08904" lon="0.99126">
        <ele>111.387667</ele>
        <time>2022-12-30T12:04:20.348Z</time>
      </trkpt>
      <trkpt lat="44.08913" lon="0.99138">
        <ele>111.128652</ele>
        <time>2022-12-30T12:04:23.343Z</time>
      </trkpt>
      <trkpt lat="44.08922" lon="0.9915">
        <ele>110.869638</ele>
        <time>2022-12-30T12:04:26.348Z</time>
      </trkpt>
      <trkpt lat="44.08931" lon="0.99163">
        <ele>110.599582</ele>
        <time>2022-12-30T12:04:29.321Z</time>
      </trkpt>
      <trkpt lat="44.08939" lon="0.99177">
        <ele>110.323826</ele>
        <time>2022-12-30T12:04:32.339Z</time>
      </trkpt>
      <trkpt lat="44.08947" lon="0.99192">
        <ele>110.049255</ele>
        <time>2022-12-30T12:04:35.340Z</time>
      </trkpt>
      <trkpt lat="44.08953" lon="0.99206">
        <ele>109.796567</ele>
        <time>2022-12-30T12:04:38.350Z</time>
      </trkpt>
      <trkpt lat="44.08961" lon="0.99223">
        <ele>109.499867</ele>
        <time>2022-12-30T12:04:41.347Z</time>
      </trkpt>
      <trkpt lat="44.08967" lon="0.99236">
        <ele>109.264479</ele>
        <time>2022-12-30T12:04:44.346Z</time>
      </trkpt>
      <trkpt lat="44.08973" lon="0.99252">
        <ele>108.99088</ele>
        <time>2022-12-30T12:04:47.347Z</time>
      </trkpt>
      <trkpt lat="44.08977" lon="0.99263">
        <ele>108.79665</ele>
        <time>2022-12-30T12:04:49.338Z</time>
      </trkpt>
      <trkpt lat="44.08982" lon="0.99275">
        <ele>108.599918</ele>
        <time>2022-12-30T12:04:51.347Z</time>
      </trkpt>
      <trkpt lat="44.08989" lon="0.9929">
        <ele>108.327681</ele>
        <time>2022-12-30T12:04:54.350Z</time>
      </trkpt>
      <trkpt lat="44.08993" lon="0.99301">
        <ele>108.133585</ele>
        <time>2022-12-30T12:04:56.342Z</time>
      </trkpt>
      <trkpt lat="44.08998" lon="0.99314">
        <ele>107.919082</ele>
        <time>2022-12-30T12:04:58.326Z</time>
      </trkpt>
      <trkpt lat="44.09003" lon="0.99325">
        <ele>107.717556</ele>
        <time>2022-12-30T12:05:00.348Z</time>
      </trkpt>
      <trkpt lat="44.09008" lon="0.99337">
        <ele>107.506155</ele>
        <time>2022-12-30T12:05:02.336Z</time>
      </trkpt>
      <trkpt lat="44.09012" lon="0.99353">
        <ele>107.259087</ele>
        <time>2022-12-30T12:05:05.347Z</time>
      </trkpt>
      <trkpt lat="44.09017" lon="0.99369">
        <ele>107.001923</ele>
        <time>2022-12-30T12:05:08.346Z</time>
      </trkpt>
      <trkpt lat="44.09021" lon="0.99383">
        <ele>106.764709</ele>
        <time>2022-12-30T12:05:11.337Z</time>
      </trkpt>
      <trkpt lat="44.09026" lon="0.99398">
        <ele>106.521459</ele>
        <time>2022-12-30T12:05:14.321Z</time>
      </trkpt>
      <trkpt lat="44.09029" lon="0.99413">
        <ele>106.275736</ele>
        <time>2022-12-30T12:05:17.347Z</time>
      </trkpt>
      <trkpt lat="44.09034" lon="0.99429">
        <ele>106.399943</ele>
        <time>2022-12-30T12:05:20.342Z</time>
      </trkpt>
      <trkpt lat="44.09036" lon="0.99447">
        <ele>106.574948</ele>
        <time>2022-12-30T12:05:23.320Z</time>
      </trkpt>
      <trkpt lat="44.09038" lon="0.99465">
        <ele>106.753584</ele>
        <time>2022-12-30T12:05:26.321Z</time>
      </trkpt>
      <trkpt lat="44.09039" lon="0.99482">
        <ele>106.927512</ele>
        <time>2022-12-30T12:05:29.332Z</time>
      </trkpt>
      <trkpt lat="44.0904" lon="0.995">
        <ele>107.104101</ele>
        <time>2022-12-30T12:05:32.336Z</time>
      </trkpt>
      <trkpt lat="44.09041" lon="0.99518">
        <ele>107.277837</ele>
        <time>2022-12-30T12:05:35.339Z</time>
      </trkpt>
      <trkpt lat="44.09041" lon="0.99536">
        <ele>107.453321</ele>
        <time>2022-12-30T12:05:38.325Z</time>
      </trkpt>
      <trkpt lat="44.09043" lon="0.99551">
        <ele>107.602774</ele>
        <time>2022-12-30T12:05:41.349Z</time>
      </trkpt>
      <trkpt lat="44.09045" lon="0.99567">
        <ele>107.764765</ele>
        <time>2022-12-30T12:05:44.348Z</time>
      </trkpt>
      <trkpt lat="44.09047" lon="0.99584">
        <ele>107.932053</ele>
        <time>2022-12-30T12:05:47.327Z</time>
      </trkpt>
      <trkpt lat="44.0905" lon="0.996">
        <ele>108.095051</ele>
        <time>2022-12-30T12:05:50.348Z</time>
      </trkpt>
      <trkpt lat="44.09052" lon="0.99617">
        <ele>108.264031</ele>
        <time>2022-12-30T12:05:53.348Z</time>
      </trkpt>
      <trkpt lat="44.09054" lon="0.99634">
        <ele>108.431202</ele>
        <time>2022-12-30T12:05:56.345Z</time>
      </trkpt>
      <trkpt lat="44.09056" lon="0.99653">
        <ele>108.615611</ele>
        <time>2022-12-30T12:05:59.337Z</time>
      </trkpt>
      <trkpt lat="44.09059" lon="0.99671">
        <ele>108.791603</ele>
        <time>2022-12-30T12:06:02.350Z</time>
      </trkpt>
      <trkpt lat="44.09061" lon="0.99688">
        <ele>108.962678</ele>
        <time>2022-12-30T12:06:05.339Z</time>
      </trkpt>
      <trkpt lat="44.09064" lon="0.99706">
        <ele>109.134012</ele>
        <time>2022-12-30T12:06:08.342Z</time>
      </trkpt>
      <trkpt lat="44.09065" lon="0.99722">
        <ele>109.284833</ele>
        <time>2022-12-30T12:06:11.342Z</time>
      </trkpt>
      <trkpt lat="44.09067" lon="0.99736">
        <ele>109.424703</ele>
        <time>2022-12-30T12:06:14.338Z</time>
      </trkpt>
      <trkpt lat="44.09068" lon="0.9975">
        <ele>109.553121</ele>
        <time>2022-12-30T12:06:17.319Z</time>
      </trkpt>
      <trkpt lat="44.0907" lon="0.99764">
        <ele>109.694077</ele>
        <time>2022-12-30T12:06:20.339Z</time>
      </trkpt>
      <trkpt lat="44.09072" lon="0.99779">
        <ele>109.837829</ele>
        <time>2022-12-30T12:06:23.349Z</time>
      </trkpt>
      <trkpt lat="44.09075" lon="0.99796">
        <ele>109.99803</ele>
        <time>2022-12-30T12:06:26.327Z</time>
      </trkpt>
      <trkpt lat="44.09076" lon="0.99812">
        <ele>110.151232</ele>
        <time>2022-12-30T12:06:29.327Z</time>
      </trkpt>
      <trkpt lat="44.09079" lon="0.99829">
        <ele>110.312747</ele>
        <time>2022-12-30T12:06:32.334Z</time>
      </trkpt>
      <trkpt lat="44.09081" lon="0.99845">
        <ele>110.471439</ele>
        <time>2022-12-30T12:06:35.344Z</time>
      </trkpt>
      <trkpt lat="44.09083" lon="0.99862">
        <ele>110.636896</ele>
        <time>2022-12-30T12:06:38.349Z</time>
      </trkpt>
      <trkpt lat="44.09084" lon="0.9988">
        <ele>110.81001</ele>
        <time>2022-12-30T12:06:41.348Z</time>
      </trkpt>
      <trkpt lat="44.09087" lon="0.99898">
        <ele>110.981528</ele>
        <time>2022-12-30T12:06:44.338Z</time>
      </trkpt>
      <trkpt lat="44.09089" lon="0.99915">
        <ele>111.094644</ele>
        <time>2022-12-30T12:06:47.346Z</time>
      </trkpt>
      <trkpt lat="44.09092" lon="0.99932">
        <ele>111.133245</ele>
        <time>2022-12-30T12:06:50.347Z</time>
      </trkpt>
      <trkpt lat="44.09095" lon="0.9995">
        <ele>111.171695</ele>
        <time>2022-12-30T12:06:53.348Z</time>
      </trkpt>
      <trkpt lat="44.09097" lon="0.99965">
        <ele>111.206529</ele>
        <time>2022-12-30T12:06:56.349Z</time>
      </trkpt>
      <trkpt lat="44.09099" lon="0.9998">
        <ele>111.239855</ele>
        <time>2022-12-30T12:06:59.355Z</time>
      </trkpt>
      <trkpt lat="44.091" lon="0.99996">
        <ele>111.275041</ele>
        <time>2022-12-30T12:07:02.337Z</time>
      </trkpt>
      <trkpt lat="44.09102" lon="1.00012">
        <ele>111.31095</ele>
        <time>2022-12-30T12:07:05.346Z</time>
      </trkpt>
      <trkpt lat="44.09104" lon="1.00028">
        <ele>111.346205</ele>
        <time>2022-12-30T12:07:08.350Z</time>
      </trkpt>
      <trkpt lat="44.09106" lon="1.00044">
        <ele>111.382382</ele>
        <time>2022-12-30T12:07:11.346Z</time>
      </trkpt>
      <trkpt lat="44.09108" lon="1.0006">
        <ele>111.418018</ele>
        <time>2022-12-30T12:07:14.349Z</time>
      </trkpt>
      <trkpt lat="44.0911" lon="1.00075">
        <ele>111.451345</ele>
        <time>2022-12-30T12:07:17.342Z</time>
      </trkpt>
      <trkpt lat="44.09112" lon="1.00089">
        <ele>111.484331</ele>
        <time>2022-12-30T12:07:20.339Z</time>
      </trkpt>
      <trkpt lat="44.09114" lon="1.00105">
        <ele>111.519535</ele>
        <time>2022-12-30T12:07:23.349Z</time>
      </trkpt>
      <trkpt lat="44.09116" lon="1.00121">
        <ele>111.555278</ele>
        <time>2022-12-30T12:07:26.344Z</time>
      </trkpt>
      <trkpt lat="44.09118" lon="1.00137">
        <ele>111.591485</ele>
        <time>2022-12-30T12:07:29.346Z</time>
      </trkpt>
      <trkpt lat="44.0912" lon="1.00154">
        <ele>111.627611</ele>
        <time>2022-12-30T12:07:32.340Z</time>
      </trkpt>
      <trkpt lat="44.09122" lon="1.00168">
        <ele>111.54643</ele>
        <time>2022-12-30T12:07:35.339Z</time>
      </trkpt>
      <trkpt lat="44.09124" lon="1.00183">
        <ele>111.45942</ele>
        <time>2022-12-30T12:07:38.328Z</time>
      </trkpt>
      <trkpt lat="44.09126" lon="1.00199">
        <ele>111.362253</ele>
        <time>2022-12-30T12:07:41.334Z</time>
      </trkpt>
      <trkpt lat="44.09127" lon="1.00216">
        <ele>111.263343</ele>
        <time>2022-12-30T12:07:44.328Z</time>
      </trkpt>
      <trkpt lat="44.0913" lon="1.00233">
        <ele>111.163882</ele>
        <time>2022-12-30T12:07:47.347Z</time>
      </trkpt>
      <trkpt lat="44.09132" lon="1.0025">
        <ele>111.061433</ele>
        <time>2022-12-30T12:07:50.341Z</time>
      </trkpt>
      <trkpt lat="44.09135" lon="1.00266">
        <ele>110.966951</ele>
        <time>2022-12-30T12:07:53.348Z</time>
      </trkpt>
      <trkpt lat="44.09136" lon="1.00282">
        <ele>110.867344</ele>
        <time>2022-12-30T12:07:56.342Z</time>
      </trkpt>
      <trkpt lat="44.09139" lon="1.003">
        <ele>110.762293</ele>
        <time>2022-12-30T12:07:59.322Z</time>
      </trkpt>
      <trkpt lat="44.09141" lon="1.00317">
        <ele>110.659266</ele>
        <time>2022-12-30T12:08:02.338Z</time>
      </trkpt>
      <trkpt lat="44.09143" lon="1.00334">
        <ele>110.561852</ele>
        <time>2022-12-30T12:08:05.346Z</time>
      </trkpt>
      <trkpt lat="44.09144" lon="1.00351">
        <ele>110.457239</ele>
        <time>2022-12-30T12:08:08.346Z</time>
      </trkpt>
      <trkpt lat="44.09147" lon="1.00366">
        <ele>110.369349</ele>
        <time>2022-12-30T12:08:11.349Z</time>
      </trkpt>
      <trkpt lat="44.09148" lon="1.0038">
        <ele>110.285799</ele>
        <time>2022-12-30T12:08:14.355Z</time>
      </trkpt>
      <trkpt lat="44.09151" lon="1.00395">
        <ele>110.194358</ele>
        <time>2022-12-30T12:08:17.321Z</time>
      </trkpt>
      <trkpt lat="44.09152" lon="1.00413">
        <ele>110.213014</ele>
        <time>2022-12-30T12:08:20.341Z</time>
      </trkpt>
      <trkpt lat="44.09155" lon="1.00429">
        <ele>110.28766</ele>
        <time>2022-12-30T12:08:23.350Z</time>
      </trkpt>
      <trkpt lat="44.09158" lon="1.00443">
        <ele>110.352844</ele>
        <time>2022-12-30T12:08:26.348Z</time>
      </trkpt>
      <trkpt lat="44.09159" lon="1.00457">
        <ele>110.415369</ele>
        <time>2022-12-30T12:08:29.334Z</time>
      </trkpt>
      <trkpt lat="44.09161" lon="1.00471">
        <ele>110.476912</ele>
        <time>2022-12-30T12:08:32.349Z</time>
      </trkpt>
      <trkpt lat="44.09162" lon="1.00486">
        <ele>110.541475</ele>
        <time>2022-12-30T12:08:35.351Z</time>
      </trkpt>
      <trkpt lat="44.09161" lon="1.00499">
        <ele>110.598974</ele>
        <time>2022-12-30T12:08:38.347Z</time>
      </trkpt>
      <trkpt lat="44.0916" lon="1.00512">
        <ele>110.656189</ele>
        <time>2022-12-30T12:08:41.340Z</time>
      </trkpt>
      <trkpt lat="44.0916" lon="1.00525">
        <ele>110.713846</ele>
        <time>2022-12-30T12:08:44.341Z</time>
      </trkpt>
      <trkpt lat="44.09158" lon="1.00538">
        <ele>110.774119</ele>
        <time>2022-12-30T12:08:47.342Z</time>
      </trkpt>
      <trkpt lat="44.09156" lon="1.00553">
        <ele>110.840312</ele>
        <time>2022-12-30T12:08:50.351Z</time>
      </trkpt>
      <trkpt lat="44.09153" lon="1.00567">
        <ele>110.907416</ele>
        <time>2022-12-30T12:08:54.350Z</time>
      </trkpt>
      <trkpt lat="44.0915" lon="1.0058">
        <ele>110.965771</ele>
        <time>2022-12-30T12:08:59.342Z</time>
      </trkpt>
      <trkpt lat="44.09149" lon="1.00593">
        <ele>111.022013</ele>
        <time>2022-12-30T12:09:03.347Z</time>
      </trkpt>
      <trkpt lat="44.09149" lon="1.00606">
        <ele>111.083439</ele>
        <time>2022-12-30T12:09:06.344Z</time>
      </trkpt>
      <trkpt lat="44.09149" lon="1.00621">
        <ele>111.149292</ele>
        <time>2022-12-30T12:09:09.349Z</time>
      </trkpt>
      <trkpt lat="44.09149" lon="1.00635">
        <ele>111.21035</ele>
        <time>2022-12-30T12:09:12.319Z</time>
      </trkpt>
      <trkpt lat="44.09147" lon="1.0065">
        <ele>111.273679</ele>
        <time>2022-12-30T12:09:16.348Z</time>
      </trkpt>
      <trkpt lat="44.09145" lon="1.00665">
        <ele>111.32274</ele>
        <time>2022-12-30T12:09:20.325Z</time>
      </trkpt>
      <trkpt lat="44.09143" lon="1.00678">
        <ele>111.362171</ele>
        <time>2022-12-30T12:09:23.346Z</time>
      </trkpt>
      <trkpt lat="44.09141" lon="1.00691">
        <ele>111.40386</ele>
        <time>2022-12-30T12:09:26.347Z</time>
      </trkpt>
      <trkpt lat="44.09139" lon="1.00706">
        <ele>111.449743</ele>
        <time>2022-12-30T12:09:29.352Z</time>
      </trkpt>
      <trkpt lat="44.09137" lon="1.00721">
        <ele>111.496825</ele>
        <time>2022-12-30T12:09:32.350Z</time>
      </trkpt>
      <trkpt lat="44.09136" lon="1.00737">
        <ele>111.545959</ele>
        <time>2022-12-30T12:09:35.349Z</time>
      </trkpt>
      <trkpt lat="44.09133" lon="1.00751">
        <ele>111.592601</ele>
        <time>2022-12-30T12:09:38.350Z</time>
      </trkpt>
      <trkpt lat="44.09131" lon="1.00766">
        <ele>111.640221</ele>
        <time>2022-12-30T12:09:41.350Z</time>
      </trkpt>
      <trkpt lat="44.09129" lon="1.00782">
        <ele>111.689809</ele>
        <time>2022-12-30T12:09:44.346Z</time>
      </trkpt>
      <trkpt lat="44.09127" lon="1.00798">
        <ele>111.739723</ele>
        <time>2022-12-30T12:09:47.348Z</time>
      </trkpt>
      <trkpt lat="44.09125" lon="1.00814">
        <ele>111.787963</ele>
        <time>2022-12-30T12:09:50.351Z</time>
      </trkpt>
      <trkpt lat="44.09123" lon="1.00829">
        <ele>111.837779</ele>
        <time>2022-12-30T12:09:53.327Z</time>
      </trkpt>
      <trkpt lat="44.09121" lon="1.00845">
        <ele>111.887974</ele>
        <time>2022-12-30T12:09:56.351Z</time>
      </trkpt>
      <trkpt lat="44.09119" lon="1.00862">
        <ele>111.94012</ele>
        <time>2022-12-30T12:09:59.342Z</time>
      </trkpt>
      <trkpt lat="44.09118" lon="1.00879">
        <ele>111.992418</ele>
        <time>2022-12-30T12:10:02.350Z</time>
      </trkpt>
      <trkpt lat="44.09117" lon="1.00896">
        <ele>112.050794</ele>
        <time>2022-12-30T12:10:05.346Z</time>
      </trkpt>
      <trkpt lat="44.09116" lon="1.00913">
        <ele>112.16612</ele>
        <time>2022-12-30T12:10:08.348Z</time>
      </trkpt>
      <trkpt lat="44.09116" lon="1.0093">
        <ele>112.280411</ele>
        <time>2022-12-30T12:10:11.350Z</time>
      </trkpt>
      <trkpt lat="44.09115" lon="1.00948">
        <ele>112.400345</ele>
        <time>2022-12-30T12:10:14.355Z</time>
      </trkpt>
      <trkpt lat="44.09114" lon="1.00966">
        <ele>112.523276</ele>
        <time>2022-12-30T12:10:17.349Z</time>
      </trkpt>
      <trkpt lat="44.09115" lon="1.00984">
        <ele>112.643078</ele>
        <time>2022-12-30T12:10:20.348Z</time>
      </trkpt>
      <trkpt lat="44.09115" lon="1.01002">
        <ele>112.764695</ele>
        <time>2022-12-30T12:10:23.345Z</time>
      </trkpt>
      <trkpt lat="44.09115" lon="1.0102">
        <ele>112.88561</ele>
        <time>2022-12-30T12:10:26.337Z</time>
      </trkpt>
      <trkpt lat="44.09116" lon="1.01038">
        <ele>113.007284</ele>
        <time>2022-12-30T12:10:29.339Z</time>
      </trkpt>
      <trkpt lat="44.09116" lon="1.01057">
        <ele>113.129572</ele>
        <time>2022-12-30T12:10:32.338Z</time>
      </trkpt>
      <trkpt lat="44.09117" lon="1.01075">
        <ele>113.251332</ele>
        <time>2022-12-30T12:10:35.350Z</time>
      </trkpt>
      <trkpt lat="44.09117" lon="1.01091">
        <ele>113.362204</ele>
        <time>2022-12-30T12:10:38.347Z</time>
      </trkpt>
      <trkpt lat="44.09118" lon="1.01108">
        <ele>113.472563</ele>
        <time>2022-12-30T12:10:41.350Z</time>
      </trkpt>
      <trkpt lat="44.09118" lon="1.01125">
        <ele>113.587429</ele>
        <time>2022-12-30T12:10:44.348Z</time>
      </trkpt>
      <trkpt lat="44.09118" lon="1.0114">
        <ele>113.688207</ele>
        <time>2022-12-30T12:10:47.341Z</time>
      </trkpt>
      <trkpt lat="44.09118" lon="1.01155">
        <ele>113.695559</ele>
        <time>2022-12-30T12:10:50.348Z</time>
      </trkpt>
      <trkpt lat="44.09118" lon="1.01171">
        <ele>113.655846</ele>
        <time>2022-12-30T12:10:53.338Z</time>
      </trkpt>
      <trkpt lat="44.09119" lon="1.01187">
        <ele>113.61403</ele>
        <time>2022-12-30T12:10:56.341Z</time>
      </trkpt>
      <trkpt lat="44.09119" lon="1.01204">
        <ele>113.570388</ele>
        <time>2022-12-30T12:10:59.346Z</time>
      </trkpt>
      <trkpt lat="44.0912" lon="1.01222">
        <ele>113.525047</ele>
        <time>2022-12-30T12:11:02.340Z</time>
      </trkpt>
      <trkpt lat="44.0912" lon="1.0124">
        <ele>113.479728</ele>
        <time>2022-12-30T12:11:05.342Z</time>
      </trkpt>
      <trkpt lat="44.0912" lon="1.01258">
        <ele>113.433354</ele>
        <time>2022-12-30T12:11:08.319Z</time>
      </trkpt>
      <trkpt lat="44.09121" lon="1.01276">
        <ele>113.38725</ele>
        <time>2022-12-30T12:11:11.343Z</time>
      </trkpt>
      <trkpt lat="44.09121" lon="1.01295">
        <ele>113.340129</ele>
        <time>2022-12-30T12:11:14.337Z</time>
      </trkpt>
      <trkpt lat="44.09121" lon="1.01308">
        <ele>113.307009</ele>
        <time>2022-12-30T12:11:16.344Z</time>
      </trkpt>
      <trkpt lat="44.09121" lon="1.01321">
        <ele>113.273598</ele>
        <time>2022-12-30T12:11:18.350Z</time>
      </trkpt>
      <trkpt lat="44.09122" lon="1.01334">
        <ele>113.241478</ele>
        <time>2022-12-30T12:11:20.340Z</time>
      </trkpt>
      <trkpt lat="44.09122" lon="1.01348">
        <ele>113.205333</ele>
        <time>2022-12-30T12:11:22.346Z</time>
      </trkpt>
      <trkpt lat="44.09123" lon="1.01362">
        <ele>113.169523</ele>
        <time>2022-12-30T12:11:24.349Z</time>
      </trkpt>
      <trkpt lat="44.09124" lon="1.01374">
        <ele>113.137327</ele>
        <time>2022-12-30T12:11:26.323Z</time>
      </trkpt>
      <trkpt lat="44.09125" lon="1.01392">
        <ele>113.092461</ele>
        <time>2022-12-30T12:11:29.345Z</time>
      </trkpt>
      <trkpt lat="44.09125" lon="1.01408">
        <ele>113.066563</ele>
        <time>2022-12-30T12:11:32.339Z</time>
      </trkpt>
      <trkpt lat="44.09125" lon="1.01423">
        <ele>113.045972</ele>
        <time>2022-12-30T12:11:35.342Z</time>
      </trkpt>
      <trkpt lat="44.09126" lon="1.01439">
        <ele>113.023615</ele>
        <time>2022-12-30T12:11:38.344Z</time>
      </trkpt>
      <trkpt lat="44.09128" lon="1.01456">
        <ele>112.999927</ele>
        <time>2022-12-30T12:11:41.342Z</time>
      </trkpt>
      <trkpt lat="44.09131" lon="1.01472">
        <ele>112.976117</ele>
        <time>2022-12-30T12:11:44.355Z</time>
      </trkpt>
      <trkpt lat="44.09134" lon="1.0149">
        <ele>112.951199</ele>
        <time>2022-12-30T12:11:47.349Z</time>
      </trkpt>
      <trkpt lat="44.09136" lon="1.01508">
        <ele>112.926069</ele>
        <time>2022-12-30T12:11:50.333Z</time>
      </trkpt>
      <trkpt lat="44.09139" lon="1.01526">
        <ele>112.900157</ele>
        <time>2022-12-30T12:11:53.348Z</time>
      </trkpt>
      <trkpt lat="44.09142" lon="1.01544">
        <ele>112.874364</ele>
        <time>2022-12-30T12:11:56.340Z</time>
      </trkpt>
      <trkpt lat="44.09147" lon="1.01561">
        <ele>112.849098</ele>
        <time>2022-12-30T12:11:59.349Z</time>
      </trkpt>
      <trkpt lat="44.09149" lon="1.01579">
        <ele>112.823149</ele>
        <time>2022-12-30T12:12:02.343Z</time>
      </trkpt>
      <trkpt lat="44.09153" lon="1.01596">
        <ele>112.799257</ele>
        <time>2022-12-30T12:12:05.336Z</time>
      </trkpt>
      <trkpt lat="44.09157" lon="1.0161">
        <ele>112.777786</ele>
        <time>2022-12-30T12:12:08.349Z</time>
      </trkpt>
      <trkpt lat="44.09161" lon="1.01625">
        <ele>112.755725</ele>
        <time>2022-12-30T12:12:11.342Z</time>
      </trkpt>
      <trkpt lat="44.09164" lon="1.01642">
        <ele>112.755238</ele>
        <time>2022-12-30T12:12:14.344Z</time>
      </trkpt>
      <trkpt lat="44.09169" lon="1.01659">
        <ele>112.849593</ele>
        <time>2022-12-30T12:12:17.342Z</time>
      </trkpt>
      <trkpt lat="44.09173" lon="1.01675">
        <ele>112.940326</ele>
        <time>2022-12-30T12:12:20.350Z</time>
      </trkpt>
      <trkpt lat="44.09178" lon="1.01691">
        <ele>113.032959</ele>
        <time>2022-12-30T12:12:23.350Z</time>
      </trkpt>
      <trkpt lat="44.09183" lon="1.01708">
        <ele>113.129051</ele>
        <time>2022-12-30T12:12:26.338Z</time>
      </trkpt>
      <trkpt lat="44.09188" lon="1.01719">
        <ele>113.197318</ele>
        <time>2022-12-30T12:12:28.319Z</time>
      </trkpt>
      <trkpt lat="44.09194" lon="1.01736">
        <ele>113.294203</ele>
        <time>2022-12-30T12:12:31.350Z</time>
      </trkpt>
      <trkpt lat="44.09201" lon="1.01752">
        <ele>113.391123</ele>
        <time>2022-12-30T12:12:34.340Z</time>
      </trkpt>
      <trkpt lat="44.09206" lon="1.01766">
        <ele>113.477657</ele>
        <time>2022-12-30T12:12:37.343Z</time>
      </trkpt>
      <trkpt lat="44.09211" lon="1.0178">
        <ele>113.557755</ele>
        <time>2022-12-30T12:12:40.351Z</time>
      </trkpt>
      <trkpt lat="44.09217" lon="1.01794">
        <ele>113.642228</ele>
        <time>2022-12-30T12:12:43.326Z</time>
      </trkpt>
      <trkpt lat="44.09223" lon="1.01808">
        <ele>113.723908</ele>
        <time>2022-12-30T12:12:46.352Z</time>
      </trkpt>
      <trkpt lat="44.09229" lon="1.01822">
        <ele>113.811471</ele>
        <time>2022-12-30T12:12:49.349Z</time>
      </trkpt>
      <trkpt lat="44.09235" lon="1.01838">
        <ele>113.90364</ele>
        <time>2022-12-30T12:12:52.350Z</time>
      </trkpt>
      <trkpt lat="44.09241" lon="1.01854">
        <ele>113.998555</ele>
        <time>2022-12-30T12:12:55.326Z</time>
      </trkpt>
      <trkpt lat="44.09248" lon="1.0187">
        <ele>114.007823</ele>
        <time>2022-12-30T12:12:58.341Z</time>
      </trkpt>
      <trkpt lat="44.09255" lon="1.01886">
        <ele>113.9389</ele>
        <time>2022-12-30T12:13:01.343Z</time>
      </trkpt>
      <trkpt lat="44.09261" lon="1.01901">
        <ele>113.871896</ele>
        <time>2022-12-30T12:13:04.350Z</time>
      </trkpt>
      <trkpt lat="44.09267" lon="1.01917">
        <ele>113.804397</ele>
        <time>2022-12-30T12:13:07.344Z</time>
      </trkpt>
      <trkpt lat="44.09274" lon="1.01933">
        <ele>113.736699</ele>
        <time>2022-12-30T12:13:10.322Z</time>
      </trkpt>
      <trkpt lat="44.0928" lon="1.01949">
        <ele>113.668773</ele>
        <time>2022-12-30T12:13:13.324Z</time>
      </trkpt>
      <trkpt lat="44.09286" lon="1.01965">
        <ele>113.60282</ele>
        <time>2022-12-30T12:13:16.349Z</time>
      </trkpt>
      <trkpt lat="44.09291" lon="1.01978">
        <ele>113.54712</ele>
        <time>2022-12-30T12:13:19.350Z</time>
      </trkpt>
      <trkpt lat="44.09297" lon="1.01992">
        <ele>113.486975</ele>
        <time>2022-12-30T12:13:22.347Z</time>
      </trkpt>
      <trkpt lat="44.09304" lon="1.02007">
        <ele>113.420558</ele>
        <time>2022-12-30T12:13:25.322Z</time>
      </trkpt>
      <trkpt lat="44.0931" lon="1.02022">
        <ele>113.354726</ele>
        <time>2022-12-30T12:13:28.351Z</time>
      </trkpt>
      <trkpt lat="44.09316" lon="1.02038">
        <ele>113.288786</ele>
        <time>2022-12-30T12:13:31.352Z</time>
      </trkpt>
      <trkpt lat="44.09322" lon="1.02053">
        <ele>113.223177</ele>
        <time>2022-12-30T12:13:34.355Z</time>
      </trkpt>
      <trkpt lat="44.09328" lon="1.02068">
        <ele>113.159283</ele>
        <time>2022-12-30T12:13:37.350Z</time>
      </trkpt>
      <trkpt lat="44.09333" lon="1.02082">
        <ele>113.114364</ele>
        <time>2022-12-30T12:13:40.348Z</time>
      </trkpt>
      <trkpt lat="44.09337" lon="1.02094">
        <ele>113.125229</ele>
        <time>2022-12-30T12:13:43.348Z</time>
      </trkpt>
      <trkpt lat="44.09341" lon="1.02107">
        <ele>113.137095</ele>
        <time>2022-12-30T12:13:47.330Z</time>
      </trkpt>
      <trkpt lat="44.09346" lon="1.02121">
        <ele>113.149819</ele>
        <time>2022-12-30T12:13:51.327Z</time>
      </trkpt>
      <trkpt lat="44.0935" lon="1.02133">
        <ele>113.160777</ele>
        <time>2022-12-30T12:13:54.340Z</time>
      </trkpt>
      <trkpt lat="44.09354" lon="1.02146">
        <ele>113.172706</ele>
        <time>2022-12-30T12:13:57.356Z</time>
      </trkpt>
      <trkpt lat="44.09359" lon="1.0216">
        <ele>113.185502</ele>
        <time>2022-12-30T12:14:00.341Z</time>
      </trkpt>
      <trkpt lat="44.09363" lon="1.02174">
        <ele>113.198374</ele>
        <time>2022-12-30T12:14:03.339Z</time>
      </trkpt>
      <trkpt lat="44.09367" lon="1.0219">
        <ele>113.211781</ele>
        <time>2022-12-30T12:14:06.349Z</time>
      </trkpt>
      <trkpt lat="44.09369" lon="1.02205">
        <ele>113.225018</ele>
        <time>2022-12-30T12:14:09.350Z</time>
      </trkpt>
      <trkpt lat="44.09372" lon="1.02222">
        <ele>113.239275</ele>
        <time>2022-12-30T12:14:12.349Z</time>
      </trkpt>
      <trkpt lat="44.09375" lon="1.02238">
        <ele>113.253</ele>
        <time>2022-12-30T12:14:15.349Z</time>
      </trkpt>
      <trkpt lat="44.09377" lon="1.02252">
        <ele>113.264882</ele>
        <time>2022-12-30T12:14:19.340Z</time>
      </trkpt>
      <trkpt lat="44.09381" lon="1.02268">
        <ele>113.278926</ele>
        <time>2022-12-30T12:14:23.348Z</time>
      </trkpt>
      <trkpt lat="44.09383" lon="1.02284">
        <ele>113.292011</ele>
        <time>2022-12-30T12:14:26.349Z</time>
      </trkpt>
      <trkpt lat="44.09385" lon="1.023">
        <ele>113.305525</ele>
        <time>2022-12-30T12:14:29.330Z</time>
      </trkpt>
      <trkpt lat="44.09387" lon="1.02317">
        <ele>113.319672</ele>
        <time>2022-12-30T12:14:32.349Z</time>
      </trkpt>
      <trkpt lat="44.09389" lon="1.02334">
        <ele>113.49537</ele>
        <time>2022-12-30T12:14:35.328Z</time>
      </trkpt>
      <trkpt lat="44.0939" lon="1.02351">
        <ele>113.676425</ele>
        <time>2022-12-30T12:14:38.342Z</time>
      </trkpt>
      <trkpt lat="44.09391" lon="1.02369">
        <ele>113.862038</ele>
        <time>2022-12-30T12:14:41.349Z</time>
      </trkpt>
      <trkpt lat="44.09392" lon="1.02386">
        <ele>114.034525</ele>
        <time>2022-12-30T12:14:44.335Z</time>
      </trkpt>
      <trkpt lat="44.09393" lon="1.02401">
        <ele>114.18806</ele>
        <time>2022-12-30T12:14:47.327Z</time>
      </trkpt>
      <trkpt lat="44.09394" lon="1.02415">
        <ele>114.332059</ele>
        <time>2022-12-30T12:14:50.327Z</time>
      </trkpt>
      <trkpt lat="44.09394" lon="1.02428">
        <ele>114.461393</ele>
        <time>2022-12-30T12:14:53.337Z</time>
      </trkpt>
      <trkpt lat="44.09394" lon="1.02442">
        <ele>114.603544</ele>
        <time>2022-12-30T12:14:56.348Z</time>
      </trkpt>
      <trkpt lat="44.09394" lon="1.02457">
        <ele>114.759278</ele>
        <time>2022-12-30T12:14:59.322Z</time>
      </trkpt>
      <trkpt lat="44.09394" lon="1.02473">
        <ele>114.919906</ele>
        <time>2022-12-30T12:15:02.325Z</time>
      </trkpt>
      <trkpt lat="44.09393" lon="1.02489">
        <ele>115.084119</ele>
        <time>2022-12-30T12:15:05.353Z</time>
      </trkpt>
      <trkpt lat="44.09393" lon="1.02505">
        <ele>115.253902</ele>
        <time>2022-12-30T12:15:08.341Z</time>
      </trkpt>
      <trkpt lat="44.09392" lon="1.02522">
        <ele>115.426153</ele>
        <time>2022-12-30T12:15:11.326Z</time>
      </trkpt>
      <trkpt lat="44.0939" lon="1.02539">
        <ele>115.596207</ele>
        <time>2022-12-30T12:15:14.346Z</time>
      </trkpt>
      <trkpt lat="44.09389" lon="1.02555">
        <ele>115.766641</ele>
        <time>2022-12-30T12:15:17.332Z</time>
      </trkpt>
      <trkpt lat="44.09387" lon="1.02572">
        <ele>115.827175</ele>
        <time>2022-12-30T12:15:20.324Z</time>
      </trkpt>
      <trkpt lat="44.09384" lon="1.0259">
        <ele>115.676506</ele>
        <time>2022-12-30T12:15:23.329Z</time>
      </trkpt>
      <trkpt lat="44.09381" lon="1.02607">
        <ele>115.52884</ele>
        <time>2022-12-30T12:15:26.340Z</time>
      </trkpt>
      <trkpt lat="44.09379" lon="1.02623">
        <ele>115.386649</ele>
        <time>2022-12-30T12:15:29.329Z</time>
      </trkpt>
      <trkpt lat="44.09376" lon="1.02639">
        <ele>115.242578</ele>
        <time>2022-12-30T12:15:32.348Z</time>
      </trkpt>
      <trkpt lat="44.09372" lon="1.02656">
        <ele>115.093885</ele>
        <time>2022-12-30T12:15:35.331Z</time>
      </trkpt>
      <trkpt lat="44.09368" lon="1.02673">
        <ele>114.943398</ele>
        <time>2022-12-30T12:15:38.325Z</time>
      </trkpt>
      <trkpt lat="44.09364" lon="1.02688">
        <ele>114.810488</ele>
        <time>2022-12-30T12:15:41.343Z</time>
      </trkpt>
      <trkpt lat="44.0936" lon="1.02704">
        <ele>114.665502</ele>
        <time>2022-12-30T12:15:44.337Z</time>
      </trkpt>
      <trkpt lat="44.09357" lon="1.0272">
        <ele>114.521395</ele>
        <time>2022-12-30T12:15:47.347Z</time>
      </trkpt>
      <trkpt lat="44.09352" lon="1.02737">
        <ele>114.369623</ele>
        <time>2022-12-30T12:15:50.350Z</time>
      </trkpt>
      <trkpt lat="44.09347" lon="1.02753">
        <ele>114.219137</ele>
        <time>2022-12-30T12:15:53.348Z</time>
      </trkpt>
      <trkpt lat="44.09342" lon="1.02767">
        <ele>114.088328</ele>
        <time>2022-12-30T12:15:56.325Z</time>
      </trkpt>
      <trkpt lat="44.09338" lon="1.02781">
        <ele>113.964013</ele>
        <time>2022-12-30T12:15:59.345Z</time>
      </trkpt>
      <trkpt lat="44.09333" lon="1.02795">
        <ele>113.828358</ele>
        <time>2022-12-30T12:16:02.344Z</time>
      </trkpt>
      <trkpt lat="44.09329" lon="1.0281">
        <ele>113.757971</ele>
        <time>2022-12-30T12:16:05.333Z</time>
      </trkpt>
      <trkpt lat="44.09325" lon="1.02825">
        <ele>113.761759</ele>
        <time>2022-12-30T12:16:08.331Z</time>
      </trkpt>
      <trkpt lat="44.0932" lon="1.02842">
        <ele>113.765787</ele>
        <time>2022-12-30T12:16:11.350Z</time>
      </trkpt>
      <trkpt lat="44.09315" lon="1.02858">
        <ele>113.769753</ele>
        <time>2022-12-30T12:16:14.335Z</time>
      </trkpt>
      <trkpt lat="44.0931" lon="1.02873">
        <ele>113.773471</ele>
        <time>2022-12-30T12:16:17.345Z</time>
      </trkpt>
      <trkpt lat="44.09305" lon="1.02887">
        <ele>113.777146</ele>
        <time>2022-12-30T12:16:20.348Z</time>
      </trkpt>
      <trkpt lat="44.093" lon="1.02902">
        <ele>113.780847</ele>
        <time>2022-12-30T12:16:23.334Z</time>
      </trkpt>
      <trkpt lat="44.09295" lon="1.02916">
        <ele>113.784466</ele>
        <time>2022-12-30T12:16:26.354Z</time>
      </trkpt>
      <trkpt lat="44.09292" lon="1.02931">
        <ele>113.787996</ele>
        <time>2022-12-30T12:16:29.336Z</time>
      </trkpt>
      <trkpt lat="44.09289" lon="1.02944">
        <ele>113.791141</ele>
        <time>2022-12-30T12:16:32.340Z</time>
      </trkpt>
      <trkpt lat="44.09284" lon="1.02959">
        <ele>113.794964</ele>
        <time>2022-12-30T12:16:35.351Z</time>
      </trkpt>
      <trkpt lat="44.09279" lon="1.02976">
        <ele>113.79896</ele>
        <time>2022-12-30T12:16:38.343Z</time>
      </trkpt>
      <trkpt lat="44.09274" lon="1.0299">
        <ele>113.802531</ele>
        <time>2022-12-30T12:16:41.344Z</time>
      </trkpt>
      <trkpt lat="44.0927" lon="1.03006">
        <ele>113.806437</ele>
        <time>2022-12-30T12:16:44.342Z</time>
      </trkpt>
      <trkpt lat="44.09265" lon="1.03021">
        <ele>113.810251</ele>
        <time>2022-12-30T12:16:47.344Z</time>
      </trkpt>
      <trkpt lat="44.0926" lon="1.03037">
        <ele>113.829427</ele>
        <time>2022-12-30T12:16:50.352Z</time>
      </trkpt>
      <trkpt lat="44.09256" lon="1.03053">
        <ele>113.910144</ele>
        <time>2022-12-30T12:16:53.341Z</time>
      </trkpt>
      <trkpt lat="44.09253" lon="1.03071">
        <ele>113.99129</ele>
        <time>2022-12-30T12:16:56.332Z</time>
      </trkpt>
      <trkpt lat="44.0925" lon="1.03087">
        <ele>114.070531</ele>
        <time>2022-12-30T12:16:59.348Z</time>
      </trkpt>
      <trkpt lat="44.09247" lon="1.03105">
        <ele>114.151883</ele>
        <time>2022-12-30T12:17:02.346Z</time>
      </trkpt>
      <trkpt lat="44.09245" lon="1.03121">
        <ele>114.229272</ele>
        <time>2022-12-30T12:17:05.344Z</time>
      </trkpt>
      <trkpt lat="44.09243" lon="1.03137">
        <ele>114.301063</ele>
        <time>2022-12-30T12:17:08.349Z</time>
      </trkpt>
      <trkpt lat="44.09242" lon="1.03151">
        <ele>114.36717</ele>
        <time>2022-12-30T12:17:11.354Z</time>
      </trkpt>
      <trkpt lat="44.0924" lon="1.03166">
        <ele>114.437056</ele>
        <time>2022-12-30T12:17:14.328Z</time>
      </trkpt>
      <trkpt lat="44.09238" lon="1.03182">
        <ele>114.511662</ele>
        <time>2022-12-30T12:17:17.321Z</time>
      </trkpt>
      <trkpt lat="44.09236" lon="1.03198">
        <ele>114.587473</ele>
        <time>2022-12-30T12:17:20.349Z</time>
      </trkpt>
      <trkpt lat="44.09235" lon="1.03214">
        <ele>114.661369</ele>
        <time>2022-12-30T12:17:23.353Z</time>
      </trkpt>
      <trkpt lat="44.09233" lon="1.0323">
        <ele>114.735856</ele>
        <time>2022-12-30T12:17:26.349Z</time>
      </trkpt>
      <trkpt lat="44.0923" lon="1.03247">
        <ele>114.814035</ele>
        <time>2022-12-30T12:17:29.351Z</time>
      </trkpt>
      <trkpt lat="44.09229" lon="1.03264">
        <ele>114.891649</ele>
        <time>2022-12-30T12:17:32.349Z</time>
      </trkpt>
      <trkpt lat="44.09227" lon="1.0328">
        <ele>114.971962</ele>
        <time>2022-12-30T12:17:35.340Z</time>
      </trkpt>
      <trkpt lat="44.09226" lon="1.03297">
        <ele>115.102708</ele>
        <time>2022-12-30T12:17:38.348Z</time>
      </trkpt>
      <trkpt lat="44.09224" lon="1.03312">
        <ele>115.22763</ele>
        <time>2022-12-30T12:17:41.348Z</time>
      </trkpt>
      <trkpt lat="44.09222" lon="1.03327">
        <ele>115.349794</ele>
        <time>2022-12-30T12:17:44.348Z</time>
      </trkpt>
      <trkpt lat="44.09221" lon="1.03343">
        <ele>115.475017</ele>
        <time>2022-12-30T12:17:47.354Z</time>
      </trkpt>
      <trkpt lat="44.09219" lon="1.03358">
        <ele>115.598818</ele>
        <time>2022-12-30T12:17:50.356Z</time>
      </trkpt>
      <trkpt lat="44.09216" lon="1.03375">
        <ele>115.732206</ele>
        <time>2022-12-30T12:17:53.342Z</time>
      </trkpt>
      <trkpt lat="44.09214" lon="1.03391">
        <ele>115.866071</ele>
        <time>2022-12-30T12:17:56.350Z</time>
      </trkpt>
      <trkpt lat="44.09211" lon="1.03408">
        <ele>116.005371</ele>
        <time>2022-12-30T12:17:59.352Z</time>
      </trkpt>
      <trkpt lat="44.09208" lon="1.03425">
        <ele>116.140012</ele>
        <time>2022-12-30T12:18:02.350Z</time>
      </trkpt>
      <trkpt lat="44.09205" lon="1.03444">
        <ele>116.296891</ele>
        <time>2022-12-30T12:18:05.349Z</time>
      </trkpt>
      <trkpt lat="44.09202" lon="1.03461">
        <ele>116.440296</ele>
        <time>2022-12-30T12:18:08.348Z</time>
      </trkpt>
      <trkpt lat="44.09199" lon="1.03477">
        <ele>116.569148</ele>
        <time>2022-12-30T12:18:11.351Z</time>
      </trkpt>
      <trkpt lat="44.09196" lon="1.0349">
        <ele>116.676694</ele>
        <time>2022-12-30T12:18:14.329Z</time>
      </trkpt>
      <trkpt lat="44.09194" lon="1.03504">
        <ele>116.789161</ele>
        <time>2022-12-30T12:18:17.350Z</time>
      </trkpt>
      <trkpt lat="44.0919" lon="1.03519">
        <ele>116.918867</ele>
        <time>2022-12-30T12:18:20.349Z</time>
      </trkpt>
      <trkpt lat="44.09186" lon="1.03533">
        <ele>116.902586</ele>
        <time>2022-12-30T12:18:23.349Z</time>
      </trkpt>
      <trkpt lat="44.09183" lon="1.03547">
        <ele>116.833403</ele>
        <time>2022-12-30T12:18:26.325Z</time>
      </trkpt>
      <trkpt lat="44.09179" lon="1.03561">
        <ele>116.763308</ele>
        <time>2022-12-30T12:18:29.341Z</time>
      </trkpt>
      <trkpt lat="44.09176" lon="1.03577">
        <ele>116.683434</ele>
        <time>2022-12-30T12:18:32.346Z</time>
      </trkpt>
      <trkpt lat="44.09173" lon="1.03592">
        <ele>116.604783</ele>
        <time>2022-12-30T12:18:35.351Z</time>
      </trkpt>
      <trkpt lat="44.09169" lon="1.03609">
        <ele>116.520201</ele>
        <time>2022-12-30T12:18:38.349Z</time>
      </trkpt>
      <trkpt lat="44.09165" lon="1.03625">
        <ele>116.440656</ele>
        <time>2022-12-30T12:18:41.350Z</time>
      </trkpt>
      <trkpt lat="44.0916" lon="1.03641">
        <ele>116.356754</ele>
        <time>2022-12-30T12:18:44.350Z</time>
      </trkpt>
      <trkpt lat="44.09155" lon="1.03658">
        <ele>116.269425</ele>
        <time>2022-12-30T12:18:47.350Z</time>
      </trkpt>
      <trkpt lat="44.0915" lon="1.03674">
        <ele>116.183684</ele>
        <time>2022-12-30T12:18:50.350Z</time>
      </trkpt>
      <trkpt lat="44.09145" lon="1.03691">
        <ele>116.096046</ele>
        <time>2022-12-30T12:18:53.350Z</time>
      </trkpt>
      <trkpt lat="44.09139" lon="1.03707">
        <ele>116.009128</ele>
        <time>2022-12-30T12:18:56.349Z</time>
      </trkpt>
      <trkpt lat="44.09133" lon="1.03723">
        <ele>115.923409</ele>
        <time>2022-12-30T12:18:59.350Z</time>
      </trkpt>
      <trkpt lat="44.09127" lon="1.03739">
        <ele>115.836926</ele>
        <time>2022-12-30T12:19:02.353Z</time>
      </trkpt>
      <trkpt lat="44.09122" lon="1.03754">
        <ele>115.75554</ele>
        <time>2022-12-30T12:19:05.342Z</time>
      </trkpt>
      <trkpt lat="44.09116" lon="1.03768">
        <ele>115.775651</ele>
        <time>2022-12-30T12:19:08.343Z</time>
      </trkpt>
      <trkpt lat="44.0911" lon="1.03782">
        <ele>115.802944</ele>
        <time>2022-12-30T12:19:11.342Z</time>
      </trkpt>
      <trkpt lat="44.09105" lon="1.03797">
        <ele>115.830245</ele>
        <time>2022-12-30T12:19:14.344Z</time>
      </trkpt>
      <trkpt lat="44.09099" lon="1.03811">
        <ele>115.856914</ele>
        <time>2022-12-30T12:19:17.348Z</time>
      </trkpt>
      <trkpt lat="44.09093" lon="1.03826">
        <ele>115.88489</ele>
        <time>2022-12-30T12:19:20.344Z</time>
      </trkpt>
      <trkpt lat="44.09087" lon="1.0384">
        <ele>115.911138</ele>
        <time>2022-12-30T12:19:23.353Z</time>
      </trkpt>
      <trkpt lat="44.09082" lon="1.03854">
        <ele>115.937495</ele>
        <time>2022-12-30T12:19:26.337Z</time>
      </trkpt>
      <trkpt lat="44.09076" lon="1.03869">
        <ele>115.965045</ele>
        <time>2022-12-30T12:19:29.347Z</time>
      </trkpt>
      <trkpt lat="44.0907" lon="1.03883">
        <ele>115.991294</ele>
        <time>2022-12-30T12:19:32.332Z</time>
      </trkpt>
      <trkpt lat="44.09064" lon="1.03897">
        <ele>116.018244</ele>
        <time>2022-12-30T12:19:35.348Z</time>
      </trkpt>
      <trkpt lat="44.09058" lon="1.03911">
        <ele>116.045477</ele>
        <time>2022-12-30T12:19:38.350Z</time>
      </trkpt>
      <trkpt lat="44.09052" lon="1.03926">
        <ele>116.073505</ele>
        <time>2022-12-30T12:19:41.343Z</time>
      </trkpt>
      <trkpt lat="44.09046" lon="1.03939">
        <ele>116.098071</ele>
        <time>2022-12-30T12:19:44.352Z</time>
      </trkpt>
      <trkpt lat="44.09042" lon="1.03951">
        <ele>116.119386</ele>
        <time>2022-12-30T12:19:47.350Z</time>
      </trkpt>
      <trkpt lat="44.09037" lon="1.03962">
        <ele>116.140839</ele>
        <time>2022-12-30T12:19:50.351Z</time>
      </trkpt>
      <trkpt lat="44.09032" lon="1.03974">
        <ele>116.169422</ele>
        <time>2022-12-30T12:19:53.334Z</time>
      </trkpt>
      <trkpt lat="44.09026" lon="1.03988">
        <ele>116.223525</ele>
        <time>2022-12-30T12:19:56.329Z</time>
      </trkpt>
      <trkpt lat="44.0902" lon="1.04001">
        <ele>116.274154</ele>
        <time>2022-12-30T12:19:59.351Z</time>
      </trkpt>
      <trkpt lat="44.09015" lon="1.04014">
        <ele>116.324489</ele>
        <time>2022-12-30T12:20:02.346Z</time>
      </trkpt>
      <trkpt lat="44.0901" lon="1.04028">
        <ele>116.376524</ele>
        <time>2022-12-30T12:20:05.349Z</time>
      </trkpt>
      <trkpt lat="44.09006" lon="1.04043">
        <ele>116.431368</ele>
        <time>2022-12-30T12:20:08.352Z</time>
      </trkpt>
      <trkpt lat="44.09002" lon="1.04058">
        <ele>116.485094</ele>
        <time>2022-12-30T12:20:11.345Z</time>
      </trkpt>
      <trkpt lat="44.08999" lon="1.04073">
        <ele>116.539718</ele>
        <time>2022-12-30T12:20:14.347Z</time>
      </trkpt>
      <trkpt lat="44.08996" lon="1.04089">
        <ele>116.594747</ele>
        <time>2022-12-30T12:20:17.352Z</time>
      </trkpt>
      <trkpt lat="44.08995" lon="1.04106">
        <ele>116.652948</ele>
        <time>2022-12-30T12:20:20.352Z</time>
      </trkpt>
      <trkpt lat="44.08993" lon="1.04124">
        <ele>116.715172</ele>
        <time>2022-12-30T12:20:23.347Z</time>
      </trkpt>
      <trkpt lat="44.08992" lon="1.04143">
        <ele>116.776995</ele>
        <time>2022-12-30T12:20:26.330Z</time>
      </trkpt>
      <trkpt lat="44.08991" lon="1.0416">
        <ele>116.837651</ele>
        <time>2022-12-30T12:20:29.332Z</time>
      </trkpt>
      <trkpt lat="44.08991" lon="1.04179">
        <ele>116.898957</ele>
        <time>2022-12-30T12:20:32.351Z</time>
      </trkpt>
      <trkpt lat="44.08993" lon="1.04196">
        <ele>116.958545</ele>
        <time>2022-12-30T12:20:35.342Z</time>
      </trkpt>
      <trkpt lat="44.08995" lon="1.04213">
        <ele>117.007618</ele>
        <time>2022-12-30T12:20:38.349Z</time>
      </trkpt>
      <trkpt lat="44.08997" lon="1.0423">
        <ele>116.995214</ele>
        <time>2022-12-30T12:20:41.349Z</time>
      </trkpt>
      <trkpt lat="44.09" lon="1.04246">
        <ele>116.982721</ele>
        <time>2022-12-30T12:20:44.345Z</time>
      </trkpt>
      <trkpt lat="44.09003" lon="1.04263">
        <ele>116.97018</ele>
        <time>2022-12-30T12:20:47.352Z</time>
      </trkpt>
      <trkpt lat="44.09005" lon="1.0428">
        <ele>116.957399</ele>
        <time>2022-12-30T12:20:50.344Z</time>
      </trkpt>
      <trkpt lat="44.09008" lon="1.04297">
        <ele>116.944963</ele>
        <time>2022-12-30T12:20:53.342Z</time>
      </trkpt>
      <trkpt lat="44.09011" lon="1.04314">
        <ele>116.932682</ele>
        <time>2022-12-30T12:20:56.338Z</time>
      </trkpt>
      <trkpt lat="44.09013" lon="1.04329">
        <ele>116.920823</ele>
        <time>2022-12-30T12:20:59.341Z</time>
      </trkpt>
      <trkpt lat="44.09016" lon="1.04346">
        <ele>116.908297</ele>
        <time>2022-12-30T12:21:02.356Z</time>
      </trkpt>
      <trkpt lat="44.09017" lon="1.04359">
        <ele>116.899127</ele>
        <time>2022-12-30T12:21:04.327Z</time>
      </trkpt>
      <trkpt lat="44.0902" lon="1.04376">
        <ele>116.886492</ele>
        <time>2022-12-30T12:21:07.349Z</time>
      </trkpt>
      <trkpt lat="44.09022" lon="1.04388">
        <ele>116.877331</ele>
        <time>2022-12-30T12:21:09.352Z</time>
      </trkpt>
      <trkpt lat="44.09024" lon="1.04406">
        <ele>116.86396</ele>
        <time>2022-12-30T12:21:12.351Z</time>
      </trkpt>
      <trkpt lat="44.09027" lon="1.04424">
        <ele>116.850355</ele>
        <time>2022-12-30T12:21:15.350Z</time>
      </trkpt>
      <trkpt lat="44.09029" lon="1.04437">
        <ele>116.840993</ele>
        <time>2022-12-30T12:21:17.350Z</time>
      </trkpt>
      <trkpt lat="44.0903" lon="1.0445">
        <ele>116.83149</ele>
        <time>2022-12-30T12:21:19.350Z</time>
      </trkpt>
      <trkpt lat="44.09033" lon="1.04467">
        <ele>116.779916</ele>
        <time>2022-12-30T12:21:22.348Z</time>
      </trkpt>
      <trkpt lat="44.09036" lon="1.04483">
        <ele>116.709709</ele>
        <time>2022-12-30T12:21:25.350Z</time>
      </trkpt>
      <trkpt lat="44.09038" lon="1.04499">
        <ele>116.639717</ele>
        <time>2022-12-30T12:21:28.356Z</time>
      </trkpt>
      <trkpt lat="44.09041" lon="1.04516">
        <ele>116.568594</ele>
        <time>2022-12-30T12:21:31.348Z</time>
      </trkpt>
      <trkpt lat="44.09043" lon="1.04532">
        <ele>116.498653</ele>
        <time>2022-12-30T12:21:34.354Z</time>
      </trkpt>
      <trkpt lat="44.09046" lon="1.04549">
        <ele>116.426261</ele>
        <time>2022-12-30T12:21:37.337Z</time>
      </trkpt>
      <trkpt lat="44.09049" lon="1.04565">
        <ele>116.355097</ele>
        <time>2022-12-30T12:21:40.351Z</time>
      </trkpt>
      <trkpt lat="44.09052" lon="1.04581">
        <ele>116.284553</ele>
        <time>2022-12-30T12:21:43.343Z</time>
      </trkpt>
      <trkpt lat="44.09056" lon="1.04597">
        <ele>116.213362</ele>
        <time>2022-12-30T12:21:46.350Z</time>
      </trkpt>
      <trkpt lat="44.09061" lon="1.04614">
        <ele>116.138394</ele>
        <time>2022-12-30T12:21:49.349Z</time>
      </trkpt>
      <trkpt lat="44.09066" lon="1.0463">
        <ele>116.062236</ele>
        <time>2022-12-30T12:21:52.340Z</time>
      </trkpt>
      <trkpt lat="44.09071" lon="1.04647">
        <ele>115.986221</ele>
        <time>2022-12-30T12:21:55.351Z</time>
      </trkpt>
      <trkpt lat="44.09076" lon="1.04662">
        <ele>115.914629</ele>
        <time>2022-12-30T12:21:58.344Z</time>
      </trkpt>
      <trkpt lat="44.09082" lon="1.04675">
        <ele>115.851119</ele>
        <time>2022-12-30T12:22:01.345Z</time>
      </trkpt>
      <trkpt lat="44.09087" lon="1.04685">
        <ele>115.79806</ele>
        <time>2022-12-30T12:22:04.349Z</time>
      </trkpt>
      <trkpt lat="44.09093" lon="1.04697">
        <ele>115.709212</ele>
        <time>2022-12-30T12:22:08.349Z</time>
      </trkpt>
      <trkpt lat="44.091" lon="1.0471">
        <ele>115.589403</ele>
        <time>2022-12-30T12:22:12.351Z</time>
      </trkpt>
      <trkpt lat="44.09106" lon="1.04724">
        <ele>115.470755</ele>
        <time>2022-12-30T12:22:16.336Z</time>
      </trkpt>
      <trkpt lat="44.09114" lon="1.04736">
        <ele>115.349037</ele>
        <time>2022-12-30T12:22:20.347Z</time>
      </trkpt>
      <trkpt lat="44.0912" lon="1.04748">
        <ele>115.24317</ele>
        <time>2022-12-30T12:22:23.335Z</time>
      </trkpt>
      <trkpt lat="44.09126" lon="1.04759">
        <ele>115.137864</ele>
        <time>2022-12-30T12:22:26.327Z</time>
      </trkpt>
      <trkpt lat="44.09132" lon="1.0477">
        <ele>115.033217</ele>
        <time>2022-12-30T12:22:29.346Z</time>
      </trkpt>
      <trkpt lat="44.09138" lon="1.04782">
        <ele>114.926756</ele>
        <time>2022-12-30T12:22:32.350Z</time>
      </trkpt>
      <trkpt lat="44.09143" lon="1.04793">
        <ele>114.828162</ele>
        <time>2022-12-30T12:22:35.347Z</time>
      </trkpt>
      <trkpt lat="44.0915" lon="1.04804">
        <ele>114.720754</ele>
        <time>2022-12-30T12:22:38.351Z</time>
      </trkpt>
      <trkpt lat="44.09156" lon="1.04817">
        <ele>114.604609</ele>
        <time>2022-12-30T12:22:41.351Z</time>
      </trkpt>
      <trkpt lat="44.09163" lon="1.04829">
        <ele>114.48787</ele>
        <time>2022-12-30T12:22:44.350Z</time>
      </trkpt>
      <trkpt lat="44.0917" lon="1.04842">
        <ele>114.369318</ele>
        <time>2022-12-30T12:22:47.349Z</time>
      </trkpt>
      <trkpt lat="44.09177" lon="1.04855">
        <ele>114.248827</ele>
        <time>2022-12-30T12:22:50.351Z</time>
      </trkpt>
      <trkpt lat="44.09184" lon="1.04869">
        <ele>114.122407</ele>
        <time>2022-12-30T12:22:53.346Z</time>
      </trkpt>
      <trkpt lat="44.09191" lon="1.04882">
        <ele>114.004447</ele>
        <time>2022-12-30T12:22:56.342Z</time>
      </trkpt>
      <trkpt lat="44.09197" lon="1.04894">
        <ele>113.931901</ele>
        <time>2022-12-30T12:22:59.352Z</time>
      </trkpt>
      <trkpt lat="44.09204" lon="1.04907">
        <ele>114.075632</ele>
        <time>2022-12-30T12:23:02.350Z</time>
      </trkpt>
      <trkpt lat="44.09211" lon="1.04919">
        <ele>114.223815</ele>
        <time>2022-12-30T12:23:05.345Z</time>
      </trkpt>
      <trkpt lat="44.09217" lon="1.04932">
        <ele>114.371987</ele>
        <time>2022-12-30T12:23:08.353Z</time>
      </trkpt>
      <trkpt lat="44.09224" lon="1.04946">
        <ele>114.526363</ele>
        <time>2022-12-30T12:23:11.351Z</time>
      </trkpt>
      <trkpt lat="44.09231" lon="1.0496">
        <ele>114.683607</ele>
        <time>2022-12-30T12:23:14.354Z</time>
      </trkpt>
      <trkpt lat="44.09238" lon="1.04974">
        <ele>114.84314</ele>
        <time>2022-12-30T12:23:17.320Z</time>
      </trkpt>
      <trkpt lat="44.09245" lon="1.04988">
        <ele>114.998876</ele>
        <time>2022-12-30T12:23:20.352Z</time>
      </trkpt>
      <trkpt lat="44.09252" lon="1.05002">
        <ele>115.156877</ele>
        <time>2022-12-30T12:23:23.348Z</time>
      </trkpt>
      <trkpt lat="44.0926" lon="1.05015">
        <ele>115.319522</ele>
        <time>2022-12-30T12:23:26.349Z</time>
      </trkpt>
      <trkpt lat="44.09267" lon="1.05028">
        <ele>115.474812</ele>
        <time>2022-12-30T12:23:29.352Z</time>
      </trkpt>
      <trkpt lat="44.09274" lon="1.0504">
        <ele>115.609427</ele>
        <time>2022-12-30T12:23:32.346Z</time>
      </trkpt>
      <trkpt lat="44.09279" lon="1.0505">
        <ele>115.730448</ele>
        <time>2022-12-30T12:23:35.331Z</time>
      </trkpt>
      <trkpt lat="44.09285" lon="1.05062">
        <ele>115.864422</ele>
        <time>2022-12-30T12:23:39.359Z</time>
      </trkpt>
      <trkpt lat="44.09291" lon="1.05074">
        <ele>116.000541</ele>
        <time>2022-12-30T12:23:43.350Z</time>
      </trkpt>
      <trkpt lat="44.09296" lon="1.05085">
        <ele>116.120915</ele>
        <time>2022-12-30T12:23:46.353Z</time>
      </trkpt>
      <trkpt lat="44.09302" lon="1.05098">
        <ele>116.233179</ele>
        <time>2022-12-30T12:23:50.352Z</time>
      </trkpt>
      <trkpt lat="44.09308" lon="1.05108">
        <ele>116.206139</ele>
        <time>2022-12-30T12:23:55.349Z</time>
      </trkpt>
      <trkpt lat="44.09314" lon="1.05121">
        <ele>116.176404</ele>
        <time>2022-12-30T12:24:00.352Z</time>
      </trkpt>
      <trkpt lat="44.0932" lon="1.05132">
        <ele>116.149026</ele>
        <time>2022-12-30T12:24:03.348Z</time>
      </trkpt>
      <trkpt lat="44.09328" lon="1.05143">
        <ele>116.118308</ele>
        <time>2022-12-30T12:24:06.352Z</time>
      </trkpt>
      <trkpt lat="44.09335" lon="1.05154">
        <ele>116.088928</ele>
        <time>2022-12-30T12:24:09.326Z</time>
      </trkpt>
      <trkpt lat="44.0934" lon="1.05167">
        <ele>116.06201</ele>
        <time>2022-12-30T12:24:12.347Z</time>
      </trkpt>
      <trkpt lat="44.09347" lon="1.05178">
        <ele>116.033312</ele>
        <time>2022-12-30T12:24:16.352Z</time>
      </trkpt>
      <trkpt lat="44.09354" lon="1.05191">
        <ele>116.00216</ele>
        <time>2022-12-30T12:24:20.350Z</time>
      </trkpt>
      <trkpt lat="44.0936" lon="1.052">
        <ele>115.97675</ele>
        <time>2022-12-30T12:24:23.348Z</time>
      </trkpt>
      <trkpt lat="44.09366" lon="1.05212">
        <ele>115.947972</ele>
        <time>2022-12-30T12:24:26.332Z</time>
      </trkpt>
      <trkpt lat="44.09372" lon="1.05225">
        <ele>115.917608</ele>
        <time>2022-12-30T12:24:29.353Z</time>
      </trkpt>
      <trkpt lat="44.09379" lon="1.05238">
        <ele>115.886772</ele>
        <time>2022-12-30T12:24:32.349Z</time>
      </trkpt>
      <trkpt lat="44.09386" lon="1.05251">
        <ele>115.854349</ele>
        <time>2022-12-30T12:24:35.350Z</time>
      </trkpt>
      <trkpt lat="44.09393" lon="1.05264">
        <ele>115.822243</ele>
        <time>2022-12-30T12:24:38.349Z</time>
      </trkpt>
      <trkpt lat="44.094" lon="1.05279">
        <ele>115.788846</ele>
        <time>2022-12-30T12:24:41.335Z</time>
      </trkpt>
      <trkpt lat="44.09406" lon="1.05293">
        <ele>115.755896</ele>
        <time>2022-12-30T12:24:44.349Z</time>
      </trkpt>
      <trkpt lat="44.09413" lon="1.05307">
        <ele>115.819399</ele>
        <time>2022-12-30T12:24:47.323Z</time>
      </trkpt>
      <trkpt lat="44.09419" lon="1.05322">
        <ele>115.915785</ele>
        <time>2022-12-30T12:24:50.332Z</time>
      </trkpt>
      <trkpt lat="44.09425" lon="1.05336">
        <ele>116.012356</ele>
        <time>2022-12-30T12:24:53.330Z</time>
      </trkpt>
      <trkpt lat="44.09431" lon="1.05351">
        <ele>116.11161</ele>
        <time>2022-12-30T12:24:56.323Z</time>
      </trkpt>
      <trkpt lat="44.09437" lon="1.05367">
        <ele>116.214609</ele>
        <time>2022-12-30T12:24:59.320Z</time>
      </trkpt>
      <trkpt lat="44.09443" lon="1.05382">
        <ele>116.312753</ele>
        <time>2022-12-30T12:25:02.323Z</time>
      </trkpt>
      <trkpt lat="44.09449" lon="1.05398">
        <ele>116.414879</ele>
        <time>2022-12-30T12:25:05.322Z</time>
      </trkpt>
      <trkpt lat="44.09455" lon="1.05415">
        <ele>116.519906</ele>
        <time>2022-12-30T12:25:08.321Z</time>
      </trkpt>
      <trkpt lat="44.0946" lon="1.05432">
        <ele>116.625262</ele>
        <time>2022-12-30T12:25:11.327Z</time>
      </trkpt>
      <trkpt lat="44.09465" lon="1.05448">
        <ele>116.726844</ele>
        <time>2022-12-30T12:25:14.323Z</time>
      </trkpt>
      <trkpt lat="44.0947" lon="1.05464">
        <ele>116.826781</ele>
        <time>2022-12-30T12:25:17.320Z</time>
      </trkpt>
      <trkpt lat="44.09475" lon="1.05481">
        <ele>116.930026</ele>
        <time>2022-12-30T12:25:20.324Z</time>
      </trkpt>
      <trkpt lat="44.09479" lon="1.05498">
        <ele>117.032343</ele>
        <time>2022-12-30T12:25:23.327Z</time>
      </trkpt>
      <trkpt lat="44.09483" lon="1.05515">
        <ele>117.137887</ele>
        <time>2022-12-30T12:25:26.334Z</time>
      </trkpt>
      <trkpt lat="44.09487" lon="1.05527">
        <ele>117.15303</ele>
        <time>2022-12-30T12:25:28.337Z</time>
      </trkpt>
      <trkpt lat="44.09491" lon="1.05545">
        <ele>117.081429</ele>
        <time>2022-12-30T12:25:31.340Z</time>
      </trkpt>
      <trkpt lat="44.09495" lon="1.05562">
        <ele>117.011753</ele>
        <time>2022-12-30T12:25:34.333Z</time>
      </trkpt>
      <trkpt lat="44.09498" lon="1.05577">
        <ele>116.949777</ele>
        <time>2022-12-30T12:25:37.332Z</time>
      </trkpt>
      <trkpt lat="44.09501" lon="1.05592">
        <ele>116.889526</ele>
        <time>2022-12-30T12:25:40.329Z</time>
      </trkpt>
      <trkpt lat="44.09504" lon="1.05608">
        <ele>116.822847</ele>
        <time>2022-12-30T12:25:43.329Z</time>
      </trkpt>
      <trkpt lat="44.09506" lon="1.05621">
        <ele>116.773597</ele>
        <time>2022-12-30T12:25:45.330Z</time>
      </trkpt>
      <trkpt lat="44.09508" lon="1.05638">
        <ele>116.703606</ele>
        <time>2022-12-30T12:25:48.352Z</time>
      </trkpt>
      <trkpt lat="44.09511" lon="1.05655">
        <ele>116.63542</ele>
        <time>2022-12-30T12:25:51.350Z</time>
      </trkpt>
      <trkpt lat="44.09514" lon="1.05673">
        <ele>116.564861</ele>
        <time>2022-12-30T12:25:54.330Z</time>
      </trkpt>
      <trkpt lat="44.09516" lon="1.05689">
        <ele>116.500521</ele>
        <time>2022-12-30T12:25:57.333Z</time>
      </trkpt>
      <trkpt lat="44.09518" lon="1.05702">
        <ele>116.449297</ele>
        <time>2022-12-30T12:25:59.355Z</time>
      </trkpt>
      <trkpt lat="44.09519" lon="1.05715">
        <ele>116.400047</ele>
        <time>2022-12-30T12:26:01.350Z</time>
      </trkpt>
      <trkpt lat="44.09521" lon="1.05732">
        <ele>116.330057</ele>
        <time>2022-12-30T12:26:04.353Z</time>
      </trkpt>
      <trkpt lat="44.09522" lon="1.05748">
        <ele>116.270326</ele>
        <time>2022-12-30T12:26:07.334Z</time>
      </trkpt>
      <trkpt lat="44.09523" lon="1.05762">
        <ele>116.214932</ele>
        <time>2022-12-30T12:26:10.351Z</time>
      </trkpt>
      <trkpt lat="44.09525" lon="1.05775">
        <ele>116.185334</ele>
        <time>2022-12-30T12:26:13.351Z</time>
      </trkpt>
      <trkpt lat="44.09526" lon="1.05789">
        <ele>116.162926</ele>
        <time>2022-12-30T12:26:16.338Z</time>
      </trkpt>
      <trkpt lat="44.09528" lon="1.05804">
        <ele>116.140293</ele>
        <time>2022-12-30T12:26:19.352Z</time>
      </trkpt>
      <trkpt lat="44.09529" lon="1.0582">
        <ele>116.115691</ele>
        <time>2022-12-30T12:26:22.346Z</time>
      </trkpt>
      <trkpt lat="44.09531" lon="1.05836">
        <ele>116.09061</ele>
        <time>2022-12-30T12:26:25.331Z</time>
      </trkpt>
      <trkpt lat="44.09532" lon="1.05854">
        <ele>116.06397</ele>
        <time>2022-12-30T12:26:28.331Z</time>
      </trkpt>
      <trkpt lat="44.09533" lon="1.0587">
        <ele>116.038585</ele>
        <time>2022-12-30T12:26:31.355Z</time>
      </trkpt>
      <trkpt lat="44.09535" lon="1.05888">
        <ele>116.011632</ele>
        <time>2022-12-30T12:26:34.350Z</time>
      </trkpt>
      <trkpt lat="44.09536" lon="1.05904">
        <ele>115.986902</ele>
        <time>2022-12-30T12:26:37.346Z</time>
      </trkpt>
      <trkpt lat="44.09537" lon="1.0592">
        <ele>115.961602</ele>
        <time>2022-12-30T12:26:40.353Z</time>
      </trkpt>
      <trkpt lat="44.09538" lon="1.05937">
        <ele>115.935676</ele>
        <time>2022-12-30T12:26:43.351Z</time>
      </trkpt>
      <trkpt lat="44.09539" lon="1.05955">
        <ele>115.9089</ele>
        <time>2022-12-30T12:26:46.351Z</time>
      </trkpt>
      <trkpt lat="44.0954" lon="1.05972">
        <ele>115.882399</ele>
        <time>2022-12-30T12:26:49.334Z</time>
      </trkpt>
      <trkpt lat="44.09542" lon="1.05989">
        <ele>115.856023</ele>
        <time>2022-12-30T12:26:52.336Z</time>
      </trkpt>
      <trkpt lat="44.09544" lon="1.06006">
        <ele>115.829315</ele>
        <time>2022-12-30T12:26:55.351Z</time>
      </trkpt>
      <trkpt lat="44.09545" lon="1.06024">
        <ele>115.838649</ele>
        <time>2022-12-30T12:26:58.339Z</time>
      </trkpt>
      <trkpt lat="44.09547" lon="1.06041">
        <ele>115.875472</ele>
        <time>2022-12-30T12:27:01.351Z</time>
      </trkpt>
      <trkpt lat="44.09548" lon="1.06059">
        <ele>115.912968</ele>
        <time>2022-12-30T12:27:04.350Z</time>
      </trkpt>
      <trkpt lat="44.09549" lon="1.06075">
        <ele>115.94761</ele>
        <time>2022-12-30T12:27:07.348Z</time>
      </trkpt>
      <trkpt lat="44.0955" lon="1.06091">
        <ele>115.980357</ele>
        <time>2022-12-30T12:27:10.350Z</time>
      </trkpt>
      <trkpt lat="44.09551" lon="1.06104">
        <ele>116.009876</ele>
        <time>2022-12-30T12:27:13.352Z</time>
      </trkpt>
      <trkpt lat="44.09553" lon="1.06119">
        <ele>116.040719</ele>
        <time>2022-12-30T12:27:16.351Z</time>
      </trkpt>
      <trkpt lat="44.09556" lon="1.06134">
        <ele>116.074556</ele>
        <time>2022-12-30T12:27:19.332Z</time>
      </trkpt>
      <trkpt lat="44.09558" lon="1.06151">
        <ele>116.111192</ele>
        <time>2022-12-30T12:27:22.352Z</time>
      </trkpt>
      <trkpt lat="44.09561" lon="1.06167">
        <ele>116.14619</ele>
        <time>2022-12-30T12:27:25.337Z</time>
      </trkpt>
      <trkpt lat="44.09564" lon="1.06184">
        <ele>116.182567</ele>
        <time>2022-12-30T12:27:28.348Z</time>
      </trkpt>
      <trkpt lat="44.09568" lon="1.062">
        <ele>116.218217</ele>
        <time>2022-12-30T12:27:31.344Z</time>
      </trkpt>
      <trkpt lat="44.09571" lon="1.06216">
        <ele>116.254765</ele>
        <time>2022-12-30T12:27:34.351Z</time>
      </trkpt>
      <trkpt lat="44.09576" lon="1.06231">
        <ele>116.289907</ele>
        <time>2022-12-30T12:27:37.332Z</time>
      </trkpt>
      <trkpt lat="44.09581" lon="1.06247">
        <ele>116.326262</ele>
        <time>2022-12-30T12:27:40.340Z</time>
      </trkpt>
      <trkpt lat="44.09587" lon="1.06264">
        <ele>116.418611</ele>
        <time>2022-12-30T12:27:43.350Z</time>
      </trkpt>
      <trkpt lat="44.09592" lon="1.06281">
        <ele>116.584521</ele>
        <time>2022-12-30T12:27:46.349Z</time>
      </trkpt>
      <trkpt lat="44.09597" lon="1.06292">
        <ele>116.699298</ele>
        <time>2022-12-30T12:27:48.349Z</time>
      </trkpt>
      <trkpt lat="44.09602" lon="1.06304">
        <ele>116.823512</ele>
        <time>2022-12-30T12:27:50.329Z</time>
      </trkpt>
      <trkpt lat="44.09607" lon="1.06316">
        <ele>116.94845</ele>
        <time>2022-12-30T12:27:52.342Z</time>
      </trkpt>
      <trkpt lat="44.09612" lon="1.06327">
        <ele>117.061765</ele>
        <time>2022-12-30T12:27:54.347Z</time>
      </trkpt>
      <trkpt lat="44.0962" lon="1.06342">
        <ele>117.227128</ele>
        <time>2022-12-30T12:27:57.350Z</time>
      </trkpt>
      <trkpt lat="44.09626" lon="1.06355">
        <ele>117.377274</ele>
        <time>2022-12-30T12:28:00.355Z</time>
      </trkpt>
      <trkpt lat="44.09634" lon="1.06368">
        <ele>117.518965</ele>
        <time>2022-12-30T12:28:03.350Z</time>
      </trkpt>
      <trkpt lat="44.09641" lon="1.06381">
        <ele>117.663336</ele>
        <time>2022-12-30T12:28:06.354Z</time>
      </trkpt>
      <trkpt lat="44.09648" lon="1.06393">
        <ele>117.806361</ele>
        <time>2022-12-30T12:28:09.364Z</time>
      </trkpt>
      <trkpt lat="44.09657" lon="1.06406">
        <ele>117.963557</ele>
        <time>2022-12-30T12:28:12.347Z</time>
      </trkpt>
      <trkpt lat="44.09666" lon="1.06419">
        <ele>118.127803</ele>
        <time>2022-12-30T12:28:15.350Z</time>
      </trkpt>
      <trkpt lat="44.09675" lon="1.06433">
        <ele>118.294084</ele>
        <time>2022-12-30T12:28:18.345Z</time>
      </trkpt>
      <trkpt lat="44.09684" lon="1.06447">
        <ele>118.464565</ele>
        <time>2022-12-30T12:28:21.349Z</time>
      </trkpt>
      <trkpt lat="44.0969" lon="1.06457">
        <ele>118.577388</ele>
        <time>2022-12-30T12:28:23.351Z</time>
      </trkpt>
      <trkpt lat="44.09699" lon="1.06471">
        <ele>118.62411</ele>
        <time>2022-12-30T12:28:26.351Z</time>
      </trkpt>
      <trkpt lat="44.09705" lon="1.0648">
        <ele>118.65187</ele>
        <time>2022-12-30T12:28:28.337Z</time>
      </trkpt>
      <trkpt lat="44.09711" lon="1.06489">
        <ele>118.679537</ele>
        <time>2022-12-30T12:28:30.355Z</time>
      </trkpt>
      <trkpt lat="44.09721" lon="1.06502">
        <ele>118.719669</ele>
        <time>2022-12-30T12:28:33.346Z</time>
      </trkpt>
      <trkpt lat="44.0973" lon="1.06515">
        <ele>118.759118</ele>
        <time>2022-12-30T12:28:36.351Z</time>
      </trkpt>
      <trkpt lat="44.09738" lon="1.06529">
        <ele>118.798854</ele>
        <time>2022-12-30T12:28:39.350Z</time>
      </trkpt>
      <trkpt lat="44.09748" lon="1.06543">
        <ele>118.839916</ele>
        <time>2022-12-30T12:28:42.347Z</time>
      </trkpt>
      <trkpt lat="44.09754" lon="1.06552">
        <ele>118.868571</ele>
        <time>2022-12-30T12:28:44.354Z</time>
      </trkpt>
      <trkpt lat="44.09761" lon="1.06561">
        <ele>118.896814</ele>
        <time>2022-12-30T12:28:46.341Z</time>
      </trkpt>
      <trkpt lat="44.09767" lon="1.06571">
        <ele>118.924732</ele>
        <time>2022-12-30T12:28:48.354Z</time>
      </trkpt>
      <trkpt lat="44.09773" lon="1.0658">
        <ele>118.953821</ele>
        <time>2022-12-30T12:28:50.350Z</time>
      </trkpt>
      <trkpt lat="44.09783" lon="1.06594">
        <ele>118.99494</ele>
        <time>2022-12-30T12:28:53.349Z</time>
      </trkpt>
      <trkpt lat="44.09789" lon="1.06603">
        <ele>119.0227</ele>
        <time>2022-12-30T12:28:55.351Z</time>
      </trkpt>
      <trkpt lat="44.09795" lon="1.06613">
        <ele>119.051057</ele>
        <time>2022-12-30T12:28:57.345Z</time>
      </trkpt>
      <trkpt lat="44.09802" lon="1.06622">
        <ele>119.079518</ele>
        <time>2022-12-30T12:28:59.346Z</time>
      </trkpt>
      <trkpt lat="44.09808" lon="1.06632">
        <ele>119.108382</ele>
        <time>2022-12-30T12:29:01.350Z</time>
      </trkpt>
      <trkpt lat="44.09817" lon="1.06645">
        <ele>119.01095</ele>
        <time>2022-12-30T12:29:04.351Z</time>
      </trkpt>
      <trkpt lat="44.09825" lon="1.06657">
        <ele>118.75044</ele>
        <time>2022-12-30T12:29:07.336Z</time>
      </trkpt>
      <trkpt lat="44.09833" lon="1.06668">
        <ele>118.494285</ele>
        <time>2022-12-30T12:29:10.350Z</time>
      </trkpt>
      <trkpt lat="44.09841" lon="1.06681">
        <ele>118.209679</ele>
        <time>2022-12-30T12:29:13.348Z</time>
      </trkpt>
      <trkpt lat="44.0985" lon="1.06695">
        <ele>117.910061</ele>
        <time>2022-12-30T12:29:16.349Z</time>
      </trkpt>
      <trkpt lat="44.09859" lon="1.0671">
        <ele>117.607415</ele>
        <time>2022-12-30T12:29:19.354Z</time>
      </trkpt>
      <trkpt lat="44.09865" lon="1.0672">
        <ele>117.396495</ele>
        <time>2022-12-30T12:29:21.329Z</time>
      </trkpt>
      <trkpt lat="44.09871" lon="1.0673">
        <ele>117.180422</ele>
        <time>2022-12-30T12:29:23.352Z</time>
      </trkpt>
      <trkpt lat="44.09878" lon="1.06739">
        <ele>116.965906</ele>
        <time>2022-12-30T12:29:25.350Z</time>
      </trkpt>
      <trkpt lat="44.09886" lon="1.06755">
        <ele>116.658561</ele>
        <time>2022-12-30T12:29:28.352Z</time>
      </trkpt>
      <trkpt lat="44.09893" lon="1.0677">
        <ele>116.363057</ele>
        <time>2022-12-30T12:29:31.353Z</time>
      </trkpt>
      <trkpt lat="44.09902" lon="1.06785">
        <ele>116.053019</ele>
        <time>2022-12-30T12:29:34.351Z</time>
      </trkpt>
      <trkpt lat="44.09907" lon="1.06795">
        <ele>115.845501</ele>
        <time>2022-12-30T12:29:36.352Z</time>
      </trkpt>
      <trkpt lat="44.09912" lon="1.06806">
        <ele>115.628778</ele>
        <time>2022-12-30T12:29:38.353Z</time>
      </trkpt>
      <trkpt lat="44.09918" lon="1.06817">
        <ele>115.422547</ele>
        <time>2022-12-30T12:29:40.350Z</time>
      </trkpt>
      <trkpt lat="44.09923" lon="1.06831">
        <ele>115.164522</ele>
        <time>2022-12-30T12:29:43.347Z</time>
      </trkpt>
      <trkpt lat="44.09929" lon="1.06844">
        <ele>115.017831</ele>
        <time>2022-12-30T12:29:46.341Z</time>
      </trkpt>
      <trkpt lat="44.09935" lon="1.06859">
        <ele>114.908554</ele>
        <time>2022-12-30T12:29:49.352Z</time>
      </trkpt>
      <trkpt lat="44.09941" lon="1.06875">
        <ele>114.796641</ele>
        <time>2022-12-30T12:29:52.353Z</time>
      </trkpt>
      <trkpt lat="44.09947" lon="1.0689">
        <ele>114.68913</ele>
        <time>2022-12-30T12:29:55.350Z</time>
      </trkpt>
      <trkpt lat="44.09953" lon="1.06905">
        <ele>114.582975</ele>
        <time>2022-12-30T12:29:58.348Z</time>
      </trkpt>
      <trkpt lat="44.09959" lon="1.0692">
        <ele>114.473541</ele>
        <time>2022-12-30T12:30:01.349Z</time>
      </trkpt>
      <trkpt lat="44.09965" lon="1.06936">
        <ele>114.359288</ele>
        <time>2022-12-30T12:30:04.353Z</time>
      </trkpt>
      <trkpt lat="44.09972" lon="1.06953">
        <ele>114.242953</ele>
        <time>2022-12-30T12:30:07.347Z</time>
      </trkpt>
      <trkpt lat="44.09978" lon="1.06968">
        <ele>114.13104</ele>
        <time>2022-12-30T12:30:10.352Z</time>
      </trkpt>
      <trkpt lat="44.09984" lon="1.06984">
        <ele>114.019956</ele>
        <time>2022-12-30T12:30:13.346Z</time>
      </trkpt>
      <trkpt lat="44.0999" lon="1.07">
        <ele>113.907622</ele>
        <time>2022-12-30T12:30:16.349Z</time>
      </trkpt>
      <trkpt lat="44.09996" lon="1.07016">
        <ele>113.794724</ele>
        <time>2022-12-30T12:30:19.357Z</time>
      </trkpt>
      <trkpt lat="44.10002" lon="1.07031">
        <ele>113.684873</ele>
        <time>2022-12-30T12:30:22.352Z</time>
      </trkpt>
      <trkpt lat="44.10006" lon="1.07043">
        <ele>113.605062</ele>
        <time>2022-12-30T12:30:24.350Z</time>
      </trkpt>
      <trkpt lat="44.10011" lon="1.07054">
        <ele>113.526836</ele>
        <time>2022-12-30T12:30:26.326Z</time>
      </trkpt>
      <trkpt lat="44.10015" lon="1.07065">
        <ele>113.61062</ele>
        <time>2022-12-30T12:30:28.362Z</time>
      </trkpt>
      <trkpt lat="44.10019" lon="1.07077">
        <ele>113.723002</ele>
        <time>2022-12-30T12:30:30.350Z</time>
      </trkpt>
      <trkpt lat="44.10024" lon="1.0709">
        <ele>113.840611</ele>
        <time>2022-12-30T12:30:32.353Z</time>
      </trkpt>
      <trkpt lat="44.10029" lon="1.07101">
        <ele>113.950685</ele>
        <time>2022-12-30T12:30:34.352Z</time>
      </trkpt>
      <trkpt lat="44.10034" lon="1.07118">
        <ele>114.097045</ele>
        <time>2022-12-30T12:30:37.350Z</time>
      </trkpt>
      <trkpt lat="44.10039" lon="1.07134">
        <ele>114.242838</ele>
        <time>2022-12-30T12:30:40.350Z</time>
      </trkpt>
      <trkpt lat="44.10044" lon="1.07147">
        <ele>114.36662</ele>
        <time>2022-12-30T12:30:43.349Z</time>
      </trkpt>
      <trkpt lat="44.10048" lon="1.0716">
        <ele>114.481993</ele>
        <time>2022-12-30T12:30:46.351Z</time>
      </trkpt>
      <trkpt lat="44.10052" lon="1.07173">
        <ele>114.59397</ele>
        <time>2022-12-30T12:30:49.354Z</time>
      </trkpt>
      <trkpt lat="44.10056" lon="1.07186">
        <ele>114.713113</ele>
        <time>2022-12-30T12:30:52.352Z</time>
      </trkpt>
      <trkpt lat="44.1006" lon="1.072">
        <ele>114.836189</ele>
        <time>2022-12-30T12:30:55.341Z</time>
      </trkpt>
      <trkpt lat="44.10064" lon="1.07215">
        <ele>114.97179</ele>
        <time>2022-12-30T12:30:58.353Z</time>
      </trkpt>
      <trkpt lat="44.10068" lon="1.07232">
        <ele>115.117912</ele>
        <time>2022-12-30T12:31:01.352Z</time>
      </trkpt>
      <trkpt lat="44.10071" lon="1.0725">
        <ele>115.266352</ele>
        <time>2022-12-30T12:31:04.350Z</time>
      </trkpt>
      <trkpt lat="44.10074" lon="1.07268">
        <ele>115.417959</ele>
        <time>2022-12-30T12:31:07.356Z</time>
      </trkpt>
      <trkpt lat="44.10076" lon="1.07281">
        <ele>115.527645</ele>
        <time>2022-12-30T12:31:09.331Z</time>
      </trkpt>
      <trkpt lat="44.10078" lon="1.07293">
        <ele>115.594884</ele>
        <time>2022-12-30T12:31:11.351Z</time>
      </trkpt>
      <trkpt lat="44.10081" lon="1.07311">
        <ele>115.640444</ele>
        <time>2022-12-30T12:31:14.347Z</time>
      </trkpt>
      <trkpt lat="44.10083" lon="1.07327">
        <ele>115.681763</ele>
        <time>2022-12-30T12:31:17.333Z</time>
      </trkpt>
      <trkpt lat="44.10084" lon="1.07343">
        <ele>115.720627</ele>
        <time>2022-12-30T12:31:20.350Z</time>
      </trkpt>
      <trkpt lat="44.10085" lon="1.07357">
        <ele>115.756379</ele>
        <time>2022-12-30T12:31:23.351Z</time>
      </trkpt>
      <trkpt lat="44.10085" lon="1.0737">
        <ele>115.788107</ele>
        <time>2022-12-30T12:31:26.349Z</time>
      </trkpt>
      <trkpt lat="44.10085" lon="1.07384">
        <ele>115.82157</ele>
        <time>2022-12-30T12:31:29.340Z</time>
      </trkpt>
      <trkpt lat="44.10083" lon="1.07397">
        <ele>115.85636</ele>
        <time>2022-12-30T12:31:32.352Z</time>
      </trkpt>
      <trkpt lat="44.10081" lon="1.07411">
        <ele>115.892036</ele>
        <time>2022-12-30T12:31:35.350Z</time>
      </trkpt>
      <trkpt lat="44.10081" lon="1.07426">
        <ele>115.928223</ele>
        <time>2022-12-30T12:31:38.354Z</time>
      </trkpt>
      <trkpt lat="44.10081" lon="1.0744">
        <ele>115.962939</ele>
        <time>2022-12-30T12:31:41.352Z</time>
      </trkpt>
      <trkpt lat="44.10081" lon="1.07455">
        <ele>116.000863</ele>
        <time>2022-12-30T12:31:44.350Z</time>
      </trkpt>
      <trkpt lat="44.10082" lon="1.07471">
        <ele>116.040864</ele>
        <time>2022-12-30T12:31:47.351Z</time>
      </trkpt>
      <trkpt lat="44.10083" lon="1.07487">
        <ele>116.078369</ele>
        <time>2022-12-30T12:31:50.330Z</time>
      </trkpt>
      <trkpt lat="44.10082" lon="1.075">
        <ele>116.112748</ele>
        <time>2022-12-30T12:31:53.351Z</time>
      </trkpt>
      <trkpt lat="44.10082" lon="1.07514">
        <ele>116.147703</ele>
        <time>2022-12-30T12:31:56.349Z</time>
      </trkpt>
      <trkpt lat="44.10081" lon="1.07529">
        <ele>116.18466</ele>
        <time>2022-12-30T12:31:59.351Z</time>
      </trkpt>
      <trkpt lat="44.10082" lon="1.07545">
        <ele>116.228634</ele>
        <time>2022-12-30T12:32:02.352Z</time>
      </trkpt>
      <trkpt lat="44.10083" lon="1.07562">
        <ele>116.276563</ele>
        <time>2022-12-30T12:32:05.351Z</time>
      </trkpt>
      <trkpt lat="44.10082" lon="1.07578">
        <ele>116.324749</ele>
        <time>2022-12-30T12:32:08.353Z</time>
      </trkpt>
      <trkpt lat="44.10082" lon="1.07594">
        <ele>116.37325</ele>
        <time>2022-12-30T12:32:11.354Z</time>
      </trkpt>
      <trkpt lat="44.10081" lon="1.07611">
        <ele>116.421492</ele>
        <time>2022-12-30T12:32:14.356Z</time>
      </trkpt>
      <trkpt lat="44.10082" lon="1.07627">
        <ele>116.469393</ele>
        <time>2022-12-30T12:32:17.354Z</time>
      </trkpt>
      <trkpt lat="44.10081" lon="1.07643">
        <ele>116.517029</ele>
        <time>2022-12-30T12:32:20.351Z</time>
      </trkpt>
      <trkpt lat="44.10082" lon="1.07659">
        <ele>116.564049</ele>
        <time>2022-12-30T12:32:23.335Z</time>
      </trkpt>
      <trkpt lat="44.10082" lon="1.07676">
        <ele>116.611935</ele>
        <time>2022-12-30T12:32:26.344Z</time>
      </trkpt>
      <trkpt lat="44.10082" lon="1.07691">
        <ele>116.658123</ele>
        <time>2022-12-30T12:32:29.326Z</time>
      </trkpt>
      <trkpt lat="44.10081" lon="1.07706">
        <ele>116.700001</ele>
        <time>2022-12-30T12:32:32.351Z</time>
      </trkpt>
      <trkpt lat="44.10082" lon="1.07718">
        <ele>116.737367</ele>
        <time>2022-12-30T12:32:35.344Z</time>
      </trkpt>
      <trkpt lat="44.10083" lon="1.07734">
        <ele>116.78343</ele>
        <time>2022-12-30T12:32:39.350Z</time>
      </trkpt>
      <trkpt lat="44.10084" lon="1.07749">
        <ele>116.827979</ele>
        <time>2022-12-30T12:32:43.351Z</time>
      </trkpt>
      <trkpt lat="44.10086" lon="1.07763">
        <ele>116.87143</ele>
        <time>2022-12-30T12:32:47.352Z</time>
      </trkpt>
      <trkpt lat="44.10088" lon="1.07776">
        <ele>116.909144</ele>
        <time>2022-12-30T12:32:51.348Z</time>
      </trkpt>
      <trkpt lat="44.10092" lon="1.0779">
        <ele>116.932023</ele>
        <time>2022-12-30T12:32:55.352Z</time>
      </trkpt>
      <trkpt lat="44.10096" lon="1.07801">
        <ele>116.922724</ele>
        <time>2022-12-30T12:32:59.353Z</time>
      </trkpt>
      <trkpt lat="44.10104" lon="1.07811">
        <ele>116.912378</ele>
        <time>2022-12-30T12:33:03.351Z</time>
      </trkpt>
      <trkpt lat="44.10113" lon="1.07821">
        <ele>116.901288</ele>
        <time>2022-12-30T12:33:06.354Z</time>
      </trkpt>
      <trkpt lat="44.1012" lon="1.07837">
        <ele>116.88829</ele>
        <time>2022-12-30T12:33:09.352Z</time>
      </trkpt>
      <trkpt lat="44.10125" lon="1.07853">
        <ele>116.876205</ele>
        <time>2022-12-30T12:33:12.353Z</time>
      </trkpt>
      <trkpt lat="44.10129" lon="1.07868">
        <ele>116.864821</ele>
        <time>2022-12-30T12:33:15.351Z</time>
      </trkpt>
      <trkpt lat="44.10132" lon="1.07882">
        <ele>116.854489</ele>
        <time>2022-12-30T12:33:18.353Z</time>
      </trkpt>
      <trkpt lat="44.10136" lon="1.07895">
        <ele>116.845072</ele>
        <time>2022-12-30T12:33:21.354Z</time>
      </trkpt>
      <trkpt lat="44.1014" lon="1.0791">
        <ele>116.833719</ele>
        <time>2022-12-30T12:33:25.350Z</time>
      </trkpt>
      <trkpt lat="44.10143" lon="1.07923">
        <ele>116.823943</ele>
        <time>2022-12-30T12:33:28.351Z</time>
      </trkpt>
      <trkpt lat="44.10147" lon="1.07935">
        <ele>116.814503</ele>
        <time>2022-12-30T12:33:31.326Z</time>
      </trkpt>
      <trkpt lat="44.10151" lon="1.07948">
        <ele>116.804885</ele>
        <time>2022-12-30T12:33:34.353Z</time>
      </trkpt>
      <trkpt lat="44.10155" lon="1.07962">
        <ele>116.794351</ele>
        <time>2022-12-30T12:33:37.351Z</time>
      </trkpt>
      <trkpt lat="44.1016" lon="1.07977">
        <ele>116.783088</ele>
        <time>2022-12-30T12:33:40.352Z</time>
      </trkpt>
      <trkpt lat="44.10164" lon="1.07993">
        <ele>116.77114</ele>
        <time>2022-12-30T12:33:43.350Z</time>
      </trkpt>
      <trkpt lat="44.10169" lon="1.08009">
        <ele>116.823701</ele>
        <time>2022-12-30T12:33:46.353Z</time>
      </trkpt>
      <trkpt lat="44.10174" lon="1.08025">
        <ele>117.277839</ele>
        <time>2022-12-30T12:33:49.353Z</time>
      </trkpt>
      <trkpt lat="44.10179" lon="1.08041">
        <ele>117.730531</ele>
        <time>2022-12-30T12:33:52.350Z</time>
      </trkpt>
      <trkpt lat="44.10184" lon="1.08058">
        <ele>118.189422</ele>
        <time>2022-12-30T12:33:55.351Z</time>
      </trkpt>
      <trkpt lat="44.10189" lon="1.08074">
        <ele>118.632181</ele>
        <time>2022-12-30T12:33:58.355Z</time>
      </trkpt>
      <trkpt lat="44.10193" lon="1.08088">
        <ele>119.014726</ele>
        <time>2022-12-30T12:34:01.351Z</time>
      </trkpt>
      <trkpt lat="44.10196" lon="1.08101">
        <ele>119.387872</ele>
        <time>2022-12-30T12:34:04.357Z</time>
      </trkpt>
      <trkpt lat="44.10201" lon="1.08115">
        <ele>119.780336</ele>
        <time>2022-12-30T12:34:07.350Z</time>
      </trkpt>
      <trkpt lat="44.10205" lon="1.0813">
        <ele>120.187115</ele>
        <time>2022-12-30T12:34:10.351Z</time>
      </trkpt>
      <trkpt lat="44.10209" lon="1.08145">
        <ele>120.588048</ele>
        <time>2022-12-30T12:34:13.344Z</time>
      </trkpt>
      <trkpt lat="44.10213" lon="1.0816">
        <ele>121.0009</ele>
        <time>2022-12-30T12:34:16.354Z</time>
      </trkpt>
      <trkpt lat="44.10217" lon="1.08175">
        <ele>121.413751</ele>
        <time>2022-12-30T12:34:19.330Z</time>
      </trkpt>
      <trkpt lat="44.10222" lon="1.0819">
        <ele>121.838661</ele>
        <time>2022-12-30T12:34:22.348Z</time>
      </trkpt>
      <trkpt lat="44.10226" lon="1.08205">
        <ele>122.245331</ele>
        <time>2022-12-30T12:34:25.353Z</time>
      </trkpt>
      <trkpt lat="44.1023" lon="1.08219">
        <ele>122.644898</ele>
        <time>2022-12-30T12:34:28.354Z</time>
      </trkpt>
      <trkpt lat="44.10232" lon="1.08233">
        <ele>123.004254</ele>
        <time>2022-12-30T12:34:31.353Z</time>
      </trkpt>
      <trkpt lat="44.10233" lon="1.08248">
        <ele>123.204887</ele>
        <time>2022-12-30T12:34:35.352Z</time>
      </trkpt>
      <trkpt lat="44.10227" lon="1.08259">
        <ele>123.240268</ele>
        <time>2022-12-30T12:34:40.346Z</time>
      </trkpt>
      <trkpt lat="44.10216" lon="1.08261">
        <ele>123.282038</ele>
        <time>2022-12-30T12:34:44.329Z</time>
      </trkpt>
      <trkpt lat="44.10207" lon="1.0826">
        <ele>123.314782</ele>
        <time>2022-12-30T12:34:48.347Z</time>
      </trkpt>
      <trkpt lat="44.10203" lon="1.08269">
        <ele>123.340975</ele>
        <time>2022-12-30T12:35:15.162Z</time>
      </trkpt>
      <trkpt lat="44.10209" lon="1.0828">
        <ele>123.376606</ele>
        <time>2022-12-30T12:38:05.333Z</time>
      </trkpt>
      <trkpt lat="44.1022" lon="1.08279">
        <ele>123.417757</ele>
        <time>2022-12-30T12:38:10.325Z</time>
      </trkpt>
      <trkpt lat="44.10232" lon="1.08277">
        <ele>123.459293</ele>
        <time>2022-12-30T12:38:14.341Z</time>
      </trkpt>
      <trkpt lat="44.10241" lon="1.08273">
        <ele>123.49381</ele>
        <time>2022-12-30T12:38:18.350Z</time>
      </trkpt>
      <trkpt lat="44.10249" lon="1.08267">
        <ele>123.52662</ele>
        <time>2022-12-30T12:38:23.329Z</time>
      </trkpt>
      <trkpt lat="44.10264" lon="1.08261">
        <ele>123.583004</ele>
        <time>2022-12-30T12:38:56.357Z</time>
      </trkpt>
      <trkpt lat="44.10274" lon="1.08258">
        <ele>123.619369</ele>
        <time>2022-12-30T12:38:59.326Z</time>
      </trkpt>
      <trkpt lat="44.10284" lon="1.08251">
        <ele>123.658871</ele>
        <time>2022-12-30T12:39:02.351Z</time>
      </trkpt>
      <trkpt lat="44.10294" lon="1.08244">
        <ele>123.697885</ele>
        <time>2022-12-30T12:39:05.335Z</time>
      </trkpt>
      <trkpt lat="44.10302" lon="1.08238">
        <ele>123.732182</ele>
        <time>2022-12-30T12:39:08.333Z</time>
      </trkpt>
      <trkpt lat="44.10312" lon="1.08233">
        <ele>123.769306</ele>
        <time>2022-12-30T12:39:12.327Z</time>
      </trkpt>
      <trkpt lat="44.1032" lon="1.08226">
        <ele>123.803827</ele>
        <time>2022-12-30T12:39:15.333Z</time>
      </trkpt>
      <trkpt lat="44.1033" lon="1.08219">
        <ele>123.798462</ele>
        <time>2022-12-30T12:39:18.332Z</time>
      </trkpt>
      <trkpt lat="44.1034" lon="1.08211">
        <ele>123.716916</ele>
        <time>2022-12-30T12:39:21.340Z</time>
      </trkpt>
      <trkpt lat="44.1035" lon="1.08205">
        <ele>123.633787</ele>
        <time>2022-12-30T12:39:24.328Z</time>
      </trkpt>
      <trkpt lat="44.10359" lon="1.082">
        <ele>123.563019</ele>
        <time>2022-12-30T12:39:27.333Z</time>
      </trkpt>
      <trkpt lat="44.10368" lon="1.08195">
        <ele>123.491554</ele>
        <time>2022-12-30T12:39:31.337Z</time>
      </trkpt>
      <trkpt lat="44.10379" lon="1.08196">
        <ele>123.411627</ele>
        <time>2022-12-30T12:39:35.339Z</time>
      </trkpt>
      <trkpt lat="44.10385" lon="1.08207">
        <ele>123.339975</ele>
        <time>2022-12-30T12:39:38.340Z</time>
      </trkpt>
      <trkpt lat="44.10392" lon="1.08218">
        <ele>123.264647</ele>
        <time>2022-12-30T12:39:41.332Z</time>
      </trkpt>
      <trkpt lat="44.10398" lon="1.08231">
        <ele>123.183385</ele>
        <time>2022-12-30T12:39:44.327Z</time>
      </trkpt>
      <trkpt lat="44.10405" lon="1.08243">
        <ele>123.105971</ele>
        <time>2022-12-30T12:39:47.327Z</time>
      </trkpt>
      <trkpt lat="44.10411" lon="1.08256">
        <ele>123.021661</ele>
        <time>2022-12-30T12:39:51.326Z</time>
      </trkpt>
      <trkpt lat="44.10416" lon="1.08267">
        <ele>122.953177</ele>
        <time>2022-12-30T12:39:56.328Z</time>
      </trkpt>
      <trkpt lat="44.10418" lon="1.08266">
        <ele>122.938774</ele>
        <time>2022-12-30T12:40:05.132Z</time>
      </trkpt>
      <trkpt lat="44.10529" lon="1.09204">
        <ele>122.368958</ele>
        <time>2022-12-30T12:59:20.354Z</time>
      </trkpt>
      <trkpt lat="44.10527" lon="1.09219">
        <ele>122.043519</ele>
        <time>2022-12-30T12:59:37.334Z</time>
      </trkpt>
      <trkpt lat="44.10532" lon="1.09231">
        <ele>121.734252</ele>
        <time>2022-12-30T12:59:41.333Z</time>
      </trkpt>
      <trkpt lat="44.10527" lon="1.09244">
        <ele>121.410978</ele>
        <time>2022-12-30T12:59:45.337Z</time>
      </trkpt>
      <trkpt lat="44.10518" lon="1.09247">
        <ele>121.118132</ele>
        <time>2022-12-30T12:59:49.326Z</time>
      </trkpt>
      <trkpt lat="44.10506" lon="1.09245">
        <ele>120.755588</ele>
        <time>2022-12-30T12:59:53.338Z</time>
      </trkpt>
      <trkpt lat="44.10494" lon="1.09244">
        <ele>120.377663</ele>
        <time>2022-12-30T12:59:57.357Z</time>
      </trkpt>
      <trkpt lat="44.10483" lon="1.09244">
        <ele>120.053467</ele>
        <time>2022-12-30T13:00:00.354Z</time>
      </trkpt>
      <trkpt lat="44.10472" lon="1.09243">
        <ele>119.691819</ele>
        <time>2022-12-30T13:00:03.354Z</time>
      </trkpt>
      <trkpt lat="44.10461" lon="1.09244">
        <ele>119.433719</ele>
        <time>2022-12-30T13:00:06.346Z</time>
      </trkpt>
      <trkpt lat="44.10451" lon="1.09243">
        <ele>119.353041</ele>
        <time>2022-12-30T13:00:09.350Z</time>
      </trkpt>
      <trkpt lat="44.1044" lon="1.09243">
        <ele>119.276971</ele>
        <time>2022-12-30T13:00:12.336Z</time>
      </trkpt>
      <trkpt lat="44.10431" lon="1.09242">
        <ele>119.205347</ele>
        <time>2022-12-30T13:00:15.332Z</time>
      </trkpt>
      <trkpt lat="44.10422" lon="1.09242">
        <ele>119.136056</ele>
        <time>2022-12-30T13:00:18.355Z</time>
      </trkpt>
      <trkpt lat="44.10411" lon="1.09245">
        <ele>119.056801</ele>
        <time>2022-12-30T13:00:22.356Z</time>
      </trkpt>
      <trkpt lat="44.10402" lon="1.09246">
        <ele>118.984447</ele>
        <time>2022-12-30T13:00:25.355Z</time>
      </trkpt>
      <trkpt lat="44.10393" lon="1.09248">
        <ele>118.913729</ele>
        <time>2022-12-30T13:00:28.345Z</time>
      </trkpt>
      <trkpt lat="44.10383" lon="1.09251">
        <ele>118.83865</ele>
        <time>2022-12-30T13:00:31.329Z</time>
      </trkpt>
      <trkpt lat="44.10373" lon="1.09253">
        <ele>118.766768</ele>
        <time>2022-12-30T13:00:34.356Z</time>
      </trkpt>
      <trkpt lat="44.10361" lon="1.09257">
        <ele>118.674315</ele>
        <time>2022-12-30T13:00:38.358Z</time>
      </trkpt>
      <trkpt lat="44.10351" lon="1.09259">
        <ele>118.596403</ele>
        <time>2022-12-30T13:00:41.341Z</time>
      </trkpt>
      <trkpt lat="44.1034" lon="1.09263">
        <ele>118.50983</ele>
        <time>2022-12-30T13:00:44.361Z</time>
      </trkpt>
      <trkpt lat="44.10328" lon="1.09268">
        <ele>118.414681</ele>
        <time>2022-12-30T13:00:47.338Z</time>
      </trkpt>
      <trkpt lat="44.10316" lon="1.09274">
        <ele>118.320582</ele>
        <time>2022-12-30T13:00:50.334Z</time>
      </trkpt>
      <trkpt lat="44.10304" lon="1.0928">
        <ele>118.223288</ele>
        <time>2022-12-30T13:00:53.353Z</time>
      </trkpt>
      <trkpt lat="44.10292" lon="1.09286">
        <ele>118.129899</ele>
        <time>2022-12-30T13:00:56.346Z</time>
      </trkpt>
      <trkpt lat="44.10281" lon="1.09293">
        <ele>118.028424</ele>
        <time>2022-12-30T13:00:59.352Z</time>
      </trkpt>
      <trkpt lat="44.1027" lon="1.09298">
        <ele>117.935036</ele>
        <time>2022-12-30T13:01:02.355Z</time>
      </trkpt>
      <trkpt lat="44.10261" lon="1.09303">
        <ele>117.85702</ele>
        <time>2022-12-30T13:01:05.355Z</time>
      </trkpt>
      <trkpt lat="44.1025" lon="1.0931">
        <ele>117.757091</ele>
        <time>2022-12-30T13:01:09.356Z</time>
      </trkpt>
      <trkpt lat="44.10242" lon="1.09315">
        <ele>117.681347</ele>
        <time>2022-12-30T13:01:12.355Z</time>
      </trkpt>
      <trkpt lat="44.10231" lon="1.0932">
        <ele>117.587991</ele>
        <time>2022-12-30T13:01:16.354Z</time>
      </trkpt>
      <trkpt lat="44.10221" lon="1.0932">
        <ele>117.505451</ele>
        <time>2022-12-30T13:01:19.338Z</time>
      </trkpt>
      <trkpt lat="44.10209" lon="1.0932">
        <ele>117.408206</ele>
        <time>2022-12-30T13:01:22.337Z</time>
      </trkpt>
      <trkpt lat="44.10198" lon="1.09321">
        <ele>117.311764</ele>
        <time>2022-12-30T13:01:25.335Z</time>
      </trkpt>
      <trkpt lat="44.10186" lon="1.09322">
        <ele>117.213487</ele>
        <time>2022-12-30T13:01:28.353Z</time>
      </trkpt>
      <trkpt lat="44.10174" lon="1.09322">
        <ele>117.121186</ele>
        <time>2022-12-30T13:01:31.340Z</time>
      </trkpt>
      <trkpt lat="44.10164" lon="1.09322">
        <ele>117.031348</ele>
        <time>2022-12-30T13:01:34.356Z</time>
      </trkpt>
      <trkpt lat="44.10152" lon="1.09323">
        <ele>116.938184</ele>
        <time>2022-12-30T13:01:37.331Z</time>
      </trkpt>
      <trkpt lat="44.1014" lon="1.09323">
        <ele>116.83765</ele>
        <time>2022-12-30T13:01:40.354Z</time>
      </trkpt>
      <trkpt lat="44.10128" lon="1.09322">
        <ele>116.73612</ele>
        <time>2022-12-30T13:01:43.334Z</time>
      </trkpt>
      <trkpt lat="44.10115" lon="1.09321">
        <ele>116.633006</ele>
        <time>2022-12-30T13:01:46.356Z</time>
      </trkpt>
      <trkpt lat="44.10103" lon="1.09318">
        <ele>116.671075</ele>
        <time>2022-12-30T13:01:49.335Z</time>
      </trkpt>
      <trkpt lat="44.10092" lon="1.09316">
        <ele>116.730551</ele>
        <time>2022-12-30T13:01:52.361Z</time>
      </trkpt>
      <trkpt lat="44.1008" lon="1.09313">
        <ele>116.792943</ele>
        <time>2022-12-30T13:01:55.334Z</time>
      </trkpt>
      <trkpt lat="44.10069" lon="1.0931">
        <ele>116.853811</ele>
        <time>2022-12-30T13:01:58.353Z</time>
      </trkpt>
      <trkpt lat="44.10059" lon="1.09306">
        <ele>116.907677</ele>
        <time>2022-12-30T13:02:01.338Z</time>
      </trkpt>
      <trkpt lat="44.10048" lon="1.09305">
        <ele>116.96505</ele>
        <time>2022-12-30T13:02:04.331Z</time>
      </trkpt>
      <trkpt lat="44.10036" lon="1.09302">
        <ele>117.026081</ele>
        <time>2022-12-30T13:02:07.366Z</time>
      </trkpt>
      <trkpt lat="44.10025" lon="1.09299">
        <ele>117.082893</ele>
        <time>2022-12-30T13:02:10.351Z</time>
      </trkpt>
      <trkpt lat="44.10016" lon="1.09296">
        <ele>117.13339</ele>
        <time>2022-12-30T13:02:13.337Z</time>
      </trkpt>
      <trkpt lat="44.10005" lon="1.09291">
        <ele>117.19006</ele>
        <time>2022-12-30T13:02:17.331Z</time>
      </trkpt>
      <trkpt lat="44.09996" lon="1.09287">
        <ele>117.24025</ele>
        <time>2022-12-30T13:02:21.329Z</time>
      </trkpt>
      <trkpt lat="44.09994" lon="1.09274">
        <ele>117.290846</ele>
        <time>2022-12-30T13:02:25.343Z</time>
      </trkpt>
      <trkpt lat="44.09995" lon="1.0926">
        <ele>117.343252</ele>
        <time>2022-12-30T13:02:29.354Z</time>
      </trkpt>
      <trkpt lat="44.09996" lon="1.09245">
        <ele>117.398505</ele>
        <time>2022-12-30T13:02:34.362Z</time>
      </trkpt>
      <trkpt lat="44.09999" lon="1.09233">
        <ele>117.44633</ele>
        <time>2022-12-30T13:02:38.353Z</time>
      </trkpt>
      <trkpt lat="44.10001" lon="1.09219">
        <ele>117.498955</ele>
        <time>2022-12-30T13:02:43.338Z</time>
      </trkpt>
      <trkpt lat="44.10005" lon="1.09207">
        <ele>117.546608</ele>
        <time>2022-12-30T13:02:47.333Z</time>
      </trkpt>
      <trkpt lat="44.10009" lon="1.09194">
        <ele>117.729493</ele>
        <time>2022-12-30T13:02:52.336Z</time>
      </trkpt>
      <trkpt lat="44.1001" lon="1.09181">
        <ele>117.89702</ele>
        <time>2022-12-30T13:03:07.337Z</time>
      </trkpt>
      <trkpt lat="44.1" lon="1.09176">
        <ele>118.078355</ele>
        <time>2022-12-30T13:03:19.328Z</time>
      </trkpt>
      <trkpt lat="44.09994" lon="1.09186">
        <ele>118.248009</ele>
        <time>2022-12-30T13:03:29.337Z</time>
      </trkpt>
      <trkpt lat="44.09989" lon="1.09199">
        <ele>118.451789</ele>
        <time>2022-12-30T13:03:34.333Z</time>
      </trkpt>
      <trkpt lat="44.09985" lon="1.09213">
        <ele>118.644257</ele>
        <time>2022-12-30T13:03:38.333Z</time>
      </trkpt>
      <trkpt lat="44.09981" lon="1.09225">
        <ele>118.817694</ele>
        <time>2022-12-30T13:03:42.353Z</time>
      </trkpt>
      <trkpt lat="44.09977" lon="1.09238">
        <ele>119.00828</ele>
        <time>2022-12-30T13:03:47.354Z</time>
      </trkpt>
      <trkpt lat="44.09971" lon="1.09247">
        <ele>119.162743</ele>
        <time>2022-12-30T13:03:59.396Z</time>
      </trkpt>
      <trkpt lat="44.0997" lon="1.09262">
        <ele>119.348128</ele>
        <time>2022-12-30T13:20:42.330Z</time>
      </trkpt>
      <trkpt lat="44.09967" lon="1.09273">
        <ele>119.517953</ele>
        <time>2022-12-30T13:20:47.333Z</time>
      </trkpt>
      <trkpt lat="44.09962" lon="1.09287">
        <ele>119.715694</ele>
        <time>2022-12-30T13:20:51.362Z</time>
      </trkpt>
      <trkpt lat="44.09957" lon="1.09301">
        <ele>119.922017</ele>
        <time>2022-12-30T13:20:55.355Z</time>
      </trkpt>
      <trkpt lat="44.09954" lon="1.09314">
        <ele>120.096504</ele>
        <time>2022-12-30T13:20:59.357Z</time>
      </trkpt>
      <trkpt lat="44.09949" lon="1.09328">
        <ele>120.301273</ele>
        <time>2022-12-30T13:21:03.363Z</time>
      </trkpt>
      <trkpt lat="44.09946" lon="1.0934">
        <ele>120.46657</ele>
        <time>2022-12-30T13:21:06.352Z</time>
      </trkpt>
      <trkpt lat="44.09943" lon="1.09352">
        <ele>120.637287</ele>
        <time>2022-12-30T13:21:09.354Z</time>
      </trkpt>
      <trkpt lat="44.09939" lon="1.09364">
        <ele>120.802475</ele>
        <time>2022-12-30T13:21:12.350Z</time>
      </trkpt>
      <trkpt lat="44.09936" lon="1.09376">
        <ele>120.763844</ele>
        <time>2022-12-30T13:21:15.357Z</time>
      </trkpt>
      <trkpt lat="44.09932" lon="1.0939">
        <ele>120.6742</ele>
        <time>2022-12-30T13:21:18.345Z</time>
      </trkpt>
      <trkpt lat="44.09928" lon="1.09404">
        <ele>120.581861</ele>
        <time>2022-12-30T13:21:21.363Z</time>
      </trkpt>
      <trkpt lat="44.09924" lon="1.09418">
        <ele>120.486566</ele>
        <time>2022-12-30T13:21:24.356Z</time>
      </trkpt>
      <trkpt lat="44.0992" lon="1.09433">
        <ele>120.388465</ele>
        <time>2022-12-30T13:21:27.357Z</time>
      </trkpt>
      <trkpt lat="44.09916" lon="1.09447">
        <ele>120.294115</ele>
        <time>2022-12-30T13:21:30.359Z</time>
      </trkpt>
      <trkpt lat="44.09911" lon="1.09462">
        <ele>120.194201</ele>
        <time>2022-12-30T13:21:33.336Z</time>
      </trkpt>
      <trkpt lat="44.09907" lon="1.09477">
        <ele>120.09839</ele>
        <time>2022-12-30T13:21:36.357Z</time>
      </trkpt>
      <trkpt lat="44.09904" lon="1.09491">
        <ele>120.004901</ele>
        <time>2022-12-30T13:21:39.351Z</time>
      </trkpt>
      <trkpt lat="44.09899" lon="1.09506">
        <ele>119.904558</ele>
        <time>2022-12-30T13:21:43.359Z</time>
      </trkpt>
      <trkpt lat="44.09896" lon="1.09519">
        <ele>119.824625</ele>
        <time>2022-12-30T13:21:46.353Z</time>
      </trkpt>
      <trkpt lat="44.09892" lon="1.09535">
        <ele>119.71729</ele>
        <time>2022-12-30T13:21:50.355Z</time>
      </trkpt>
      <trkpt lat="44.09887" lon="1.09549">
        <ele>119.620865</ele>
        <time>2022-12-30T13:21:53.360Z</time>
      </trkpt>
      <trkpt lat="44.09883" lon="1.09561">
        <ele>119.539546</ele>
        <time>2022-12-30T13:21:56.359Z</time>
      </trkpt>
      <trkpt lat="44.0988" lon="1.09576">
        <ele>119.445951</ele>
        <time>2022-12-30T13:22:00.349Z</time>
      </trkpt>
      <trkpt lat="44.09876" lon="1.09589">
        <ele>119.361351</ele>
        <time>2022-12-30T13:22:03.356Z</time>
      </trkpt>
      <trkpt lat="44.09872" lon="1.09603">
        <ele>119.254323</ele>
        <time>2022-12-30T13:22:06.335Z</time>
      </trkpt>
      <trkpt lat="44.09868" lon="1.09617">
        <ele>119.121291</ele>
        <time>2022-12-30T13:22:09.352Z</time>
      </trkpt>
      <trkpt lat="44.09864" lon="1.09632">
        <ele>118.973195</ele>
        <time>2022-12-30T13:22:12.361Z</time>
      </trkpt>
      <trkpt lat="44.09859" lon="1.09646">
        <ele>118.836902</ele>
        <time>2022-12-30T13:22:15.358Z</time>
      </trkpt>
      <trkpt lat="44.09855" lon="1.09659">
        <ele>118.71461</ele>
        <time>2022-12-30T13:22:18.357Z</time>
      </trkpt>
      <trkpt lat="44.09851" lon="1.0967">
        <ele>118.602369</ele>
        <time>2022-12-30T13:22:21.358Z</time>
      </trkpt>
      <trkpt lat="44.09848" lon="1.09684">
        <ele>118.478533</ele>
        <time>2022-12-30T13:22:24.354Z</time>
      </trkpt>
      <trkpt lat="44.09844" lon="1.09697">
        <ele>118.353884</ele>
        <time>2022-12-30T13:22:27.357Z</time>
      </trkpt>
      <trkpt lat="44.0984" lon="1.09711">
        <ele>118.216557</ele>
        <time>2022-12-30T13:22:30.343Z</time>
      </trkpt>
      <trkpt lat="44.09837" lon="1.09727">
        <ele>118.069586</ele>
        <time>2022-12-30T13:22:33.356Z</time>
      </trkpt>
      <trkpt lat="44.09833" lon="1.0974">
        <ele>117.947397</ele>
        <time>2022-12-30T13:22:36.355Z</time>
      </trkpt>
      <trkpt lat="44.09829" lon="1.09755">
        <ele>117.803236</ele>
        <time>2022-12-30T13:22:39.355Z</time>
      </trkpt>
      <trkpt lat="44.09825" lon="1.09769">
        <ele>117.666439</ele>
        <time>2022-12-30T13:22:42.351Z</time>
      </trkpt>
      <trkpt lat="44.0982" lon="1.09783">
        <ele>117.530755</ele>
        <time>2022-12-30T13:22:45.355Z</time>
      </trkpt>
      <trkpt lat="44.09817" lon="1.09797">
        <ele>117.402753</ele>
        <time>2022-12-30T13:22:48.356Z</time>
      </trkpt>
      <trkpt lat="44.09813" lon="1.09811">
        <ele>117.265552</ele>
        <time>2022-12-30T13:22:51.364Z</time>
      </trkpt>
      <trkpt lat="44.09809" lon="1.09826">
        <ele>117.122694</ele>
        <time>2022-12-30T13:22:54.358Z</time>
      </trkpt>
      <trkpt lat="44.09804" lon="1.0984">
        <ele>117.14059</ele>
        <time>2022-12-30T13:22:57.343Z</time>
      </trkpt>
      <trkpt lat="44.09801" lon="1.09853">
        <ele>117.24632</ele>
        <time>2022-12-30T13:23:00.333Z</time>
      </trkpt>
      <trkpt lat="44.09798" lon="1.09866">
        <ele>117.357825</ele>
        <time>2022-12-30T13:23:03.354Z</time>
      </trkpt>
      <trkpt lat="44.09794" lon="1.0988">
        <ele>117.467543</ele>
        <time>2022-12-30T13:23:06.349Z</time>
      </trkpt>
      <trkpt lat="44.0979" lon="1.09892">
        <ele>117.571605</ele>
        <time>2022-12-30T13:23:09.361Z</time>
      </trkpt>
      <trkpt lat="44.09786" lon="1.09905">
        <ele>117.680936</ele>
        <time>2022-12-30T13:23:13.355Z</time>
      </trkpt>
      <trkpt lat="44.09782" lon="1.09919">
        <ele>117.795449</ele>
        <time>2022-12-30T13:23:17.359Z</time>
      </trkpt>
      <trkpt lat="44.09778" lon="1.09932">
        <ele>117.906274</ele>
        <time>2022-12-30T13:23:20.334Z</time>
      </trkpt>
      <trkpt lat="44.09774" lon="1.09946">
        <ele>118.022223</ele>
        <time>2022-12-30T13:23:23.358Z</time>
      </trkpt>
      <trkpt lat="44.09771" lon="1.09958">
        <ele>118.125353</ele>
        <time>2022-12-30T13:23:26.336Z</time>
      </trkpt>
      <trkpt lat="44.09767" lon="1.0997">
        <ele>118.225241</ele>
        <time>2022-12-30T13:23:29.358Z</time>
      </trkpt>
      <trkpt lat="44.09764" lon="1.09984">
        <ele>118.342207</ele>
        <time>2022-12-30T13:23:32.331Z</time>
      </trkpt>
      <trkpt lat="44.0976" lon="1.09998">
        <ele>118.453714</ele>
        <time>2022-12-30T13:23:35.356Z</time>
      </trkpt>
      <trkpt lat="44.09756" lon="1.10011">
        <ele>118.56721</ele>
        <time>2022-12-30T13:23:38.355Z</time>
      </trkpt>
      <trkpt lat="44.09752" lon="1.10027">
        <ele>118.695947</ele>
        <time>2022-12-30T13:23:41.359Z</time>
      </trkpt>
      <trkpt lat="44.09747" lon="1.10041">
        <ele>118.819577</ele>
        <time>2022-12-30T13:23:44.352Z</time>
      </trkpt>
      <trkpt lat="44.09742" lon="1.10056">
        <ele>118.94004</ele>
        <time>2022-12-30T13:23:47.346Z</time>
      </trkpt>
      <trkpt lat="44.09738" lon="1.1007">
        <ele>118.934595</ele>
        <time>2022-12-30T13:23:50.336Z</time>
      </trkpt>
      <trkpt lat="44.09735" lon="1.10086">
        <ele>118.766097</ele>
        <time>2022-12-30T13:23:53.362Z</time>
      </trkpt>
      <trkpt lat="44.0973" lon="1.10101">
        <ele>118.589497</ele>
        <time>2022-12-30T13:23:56.357Z</time>
      </trkpt>
      <trkpt lat="44.09726" lon="1.10116">
        <ele>118.426403</ele>
        <time>2022-12-30T13:23:59.355Z</time>
      </trkpt>
      <trkpt lat="44.09723" lon="1.1013">
        <ele>118.274607</ele>
        <time>2022-12-30T13:24:02.347Z</time>
      </trkpt>
      <trkpt lat="44.09719" lon="1.10145">
        <ele>118.108551</ele>
        <time>2022-12-30T13:24:05.341Z</time>
      </trkpt>
      <trkpt lat="44.09714" lon="1.1016">
        <ele>117.936502</ele>
        <time>2022-12-30T13:24:08.358Z</time>
      </trkpt>
      <trkpt lat="44.09709" lon="1.10174">
        <ele>117.771035</ele>
        <time>2022-12-30T13:24:11.358Z</time>
      </trkpt>
      <trkpt lat="44.09704" lon="1.10187">
        <ele>117.614419</ele>
        <time>2022-12-30T13:24:14.356Z</time>
      </trkpt>
      <trkpt lat="44.09699" lon="1.10198">
        <ele>117.483339</ele>
        <time>2022-12-30T13:24:16.354Z</time>
      </trkpt>
      <trkpt lat="44.09692" lon="1.10212">
        <ele>117.30017</ele>
        <time>2022-12-30T13:24:19.336Z</time>
      </trkpt>
      <trkpt lat="44.09685" lon="1.10225">
        <ele>117.129616</ele>
        <time>2022-12-30T13:24:22.361Z</time>
      </trkpt>
      <trkpt lat="44.09677" lon="1.10237">
        <ele>116.967976</ele>
        <time>2022-12-30T13:24:25.360Z</time>
      </trkpt>
      <trkpt lat="44.09669" lon="1.10249">
        <ele>116.791023</ele>
        <time>2022-12-30T13:24:28.358Z</time>
      </trkpt>
      <trkpt lat="44.09662" lon="1.10259">
        <ele>116.645396</ele>
        <time>2022-12-30T13:24:31.343Z</time>
      </trkpt>
      <trkpt lat="44.09654" lon="1.10267">
        <ele>116.506138</ele>
        <time>2022-12-30T13:24:34.334Z</time>
      </trkpt>
      <trkpt lat="44.09647" lon="1.10275">
        <ele>116.375703</ele>
        <time>2022-12-30T13:24:37.357Z</time>
      </trkpt>
      <trkpt lat="44.09638" lon="1.10283">
        <ele>116.265694</ele>
        <time>2022-12-30T13:24:40.358Z</time>
      </trkpt>
      <trkpt lat="44.0963" lon="1.1029">
        <ele>116.168702</ele>
        <time>2022-12-30T13:24:43.340Z</time>
      </trkpt>
      <trkpt lat="44.09621" lon="1.10296">
        <ele>116.059576</ele>
        <time>2022-12-30T13:24:46.358Z</time>
      </trkpt>
      <trkpt lat="44.0961" lon="1.10303">
        <ele>115.93543</ele>
        <time>2022-12-30T13:24:49.334Z</time>
      </trkpt>
      <trkpt lat="44.09599" lon="1.10309">
        <ele>115.809079</ele>
        <time>2022-12-30T13:24:52.344Z</time>
      </trkpt>
      <trkpt lat="44.09588" lon="1.10314">
        <ele>115.68363</ele>
        <time>2022-12-30T13:24:55.351Z</time>
      </trkpt>
      <trkpt lat="44.09575" lon="1.10318">
        <ele>115.550353</ele>
        <time>2022-12-30T13:24:58.351Z</time>
      </trkpt>
      <trkpt lat="44.09564" lon="1.10321">
        <ele>115.426758</ele>
        <time>2022-12-30T13:25:01.355Z</time>
      </trkpt>
      <trkpt lat="44.09551" lon="1.10322">
        <ele>115.292334</ele>
        <time>2022-12-30T13:25:04.365Z</time>
      </trkpt>
      <trkpt lat="44.09539" lon="1.10322">
        <ele>115.159366</ele>
        <time>2022-12-30T13:25:07.356Z</time>
      </trkpt>
      <trkpt lat="44.09527" lon="1.10321">
        <ele>115.037872</ele>
        <time>2022-12-30T13:25:10.342Z</time>
      </trkpt>
      <trkpt lat="44.09517" lon="1.10319">
        <ele>114.930614</ele>
        <time>2022-12-30T13:25:13.345Z</time>
      </trkpt>
      <trkpt lat="44.09505" lon="1.10318">
        <ele>114.800193</ele>
        <time>2022-12-30T13:25:16.357Z</time>
      </trkpt>
      <trkpt lat="44.09492" lon="1.10314">
        <ele>114.667125</ele>
        <time>2022-12-30T13:25:19.339Z</time>
      </trkpt>
      <trkpt lat="44.09481" lon="1.10313">
        <ele>114.547353</ele>
        <time>2022-12-30T13:25:22.342Z</time>
      </trkpt>
      <trkpt lat="44.09472" lon="1.10311">
        <ele>114.624621</ele>
        <time>2022-12-30T13:25:25.354Z</time>
      </trkpt>
      <trkpt lat="44.09462" lon="1.10308">
        <ele>114.916946</ele>
        <time>2022-12-30T13:25:30.353Z</time>
      </trkpt>
      <trkpt lat="44.09453" lon="1.10305">
        <ele>115.187841</ele>
        <time>2022-12-30T13:25:35.339Z</time>
      </trkpt>
      <trkpt lat="44.09442" lon="1.10303">
        <ele>115.486888</ele>
        <time>2022-12-30T13:25:40.337Z</time>
      </trkpt>
      <trkpt lat="44.09431" lon="1.103">
        <ele>115.82838</ele>
        <time>2022-12-30T13:25:44.341Z</time>
      </trkpt>
      <trkpt lat="44.09421" lon="1.10298">
        <ele>116.112396</ele>
        <time>2022-12-30T13:25:48.344Z</time>
      </trkpt>
      <trkpt lat="44.09412" lon="1.10296">
        <ele>116.386026</ele>
        <time>2022-12-30T13:25:51.341Z</time>
      </trkpt>
      <trkpt lat="44.09402" lon="1.10293">
        <ele>116.680714</ele>
        <time>2022-12-30T13:25:54.332Z</time>
      </trkpt>
      <trkpt lat="44.09393" lon="1.10291">
        <ele>116.943264</ele>
        <time>2022-12-30T13:25:57.347Z</time>
      </trkpt>
      <trkpt lat="44.09382" lon="1.1029">
        <ele>117.250199</ele>
        <time>2022-12-30T13:26:00.347Z</time>
      </trkpt>
      <trkpt lat="44.09371" lon="1.10288">
        <ele>117.567787</ele>
        <time>2022-12-30T13:26:04.341Z</time>
      </trkpt>
      <trkpt lat="44.09361" lon="1.10286">
        <ele>117.856762</ele>
        <time>2022-12-30T13:26:09.394Z</time>
      </trkpt>
      <trkpt lat="44.09351" lon="1.10286">
        <ele>118.14544</ele>
        <time>2022-12-30T13:26:16.341Z</time>
      </trkpt>
      <trkpt lat="44.09343" lon="1.10281">
        <ele>118.408907</ele>
        <time>2022-12-30T13:26:25.341Z</time>
      </trkpt>
      <trkpt lat="44.0933" lon="1.10277">
        <ele>118.772983</ele>
        <time>2022-12-30T13:26:48.342Z</time>
      </trkpt>
      <trkpt lat="44.09321" lon="1.10281">
        <ele>119.063267</ele>
        <time>2022-12-30T13:26:56.344Z</time>
      </trkpt>
      <trkpt lat="44.09311" lon="1.10278">
        <ele>119.331741</ele>
        <time>2022-12-30T13:27:04.343Z</time>
      </trkpt>
      <trkpt lat="44.09302" lon="1.10276">
        <ele>119.619939</ele>
        <time>2022-12-30T13:27:13.345Z</time>
      </trkpt>
      <trkpt lat="44.09293" lon="1.10274">
        <ele>119.750139</ele>
        <time>2022-12-30T13:27:21.339Z</time>
      </trkpt>
      <trkpt lat="44.09283" lon="1.10271">
        <ele>119.851423</ele>
        <time>2022-12-30T13:27:29.335Z</time>
      </trkpt>
      <trkpt lat="44.09273" lon="1.10268">
        <ele>119.951335</ele>
        <time>2022-12-30T13:27:37.335Z</time>
      </trkpt>
      <trkpt lat="44.09264" lon="1.10267">
        <ele>120.046432</ele>
        <time>2022-12-30T13:27:45.346Z</time>
      </trkpt>
      <trkpt lat="44.09254" lon="1.10265">
        <ele>120.14464</ele>
        <time>2022-12-30T13:27:53.340Z</time>
      </trkpt>
      <trkpt lat="44.09245" lon="1.10263">
        <ele>120.243951</ele>
        <time>2022-12-30T13:28:01.345Z</time>
      </trkpt>
      <trkpt lat="44.09236" lon="1.10261">
        <ele>120.33647</ele>
        <time>2022-12-30T13:28:09.353Z</time>
      </trkpt>
      <trkpt lat="44.09226" lon="1.10258">
        <ele>120.436383</ele>
        <time>2022-12-30T13:28:17.339Z</time>
      </trkpt>
      <trkpt lat="44.09217" lon="1.10256">
        <ele>120.527364</ele>
        <time>2022-12-30T13:28:25.332Z</time>
      </trkpt>
      <trkpt lat="44.09207" lon="1.10254">
        <ele>120.626889</ele>
        <time>2022-12-30T13:28:33.347Z</time>
      </trkpt>
      <trkpt lat="44.09198" lon="1.10252">
        <ele>120.721079</ele>
        <time>2022-12-30T13:28:41.346Z</time>
      </trkpt>
      <trkpt lat="44.09188" lon="1.1025">
        <ele>120.820838</ele>
        <time>2022-12-30T13:28:49.345Z</time>
      </trkpt>
      <trkpt lat="44.09179" lon="1.10248">
        <ele>120.913021</ele>
        <time>2022-12-30T13:28:56.351Z</time>
      </trkpt>
      <trkpt lat="44.0917" lon="1.10245">
        <ele>121.008497</ele>
        <time>2022-12-30T13:29:04.337Z</time>
      </trkpt>
      <trkpt lat="44.09161" lon="1.10243">
        <ele>121.101837</ele>
        <time>2022-12-30T13:29:12.340Z</time>
      </trkpt>
      <trkpt lat="44.09152" lon="1.1024">
        <ele>121.198862</ele>
        <time>2022-12-30T13:29:20.338Z</time>
      </trkpt>
      <trkpt lat="44.09143" lon="1.10238">
        <ele>121.289919</ele>
        <time>2022-12-30T13:29:28.328Z</time>
      </trkpt>
      <trkpt lat="44.09134" lon="1.10234">
        <ele>121.386059</ele>
        <time>2022-12-30T13:29:36.347Z</time>
      </trkpt>
      <trkpt lat="44.09124" lon="1.10232">
        <ele>121.485475</ele>
        <time>2022-12-30T13:29:44.343Z</time>
      </trkpt>
      <trkpt lat="44.09115" lon="1.1023">
        <ele>121.400013</ele>
        <time>2022-12-30T13:29:52.337Z</time>
      </trkpt>
      <trkpt lat="44.09105" lon="1.10227">
        <ele>121.278652</ele>
        <time>2022-12-30T13:30:00.345Z</time>
      </trkpt>
      <trkpt lat="44.09095" lon="1.10225">
        <ele>121.153427</ele>
        <time>2022-12-30T13:30:09.355Z</time>
      </trkpt>
      <trkpt lat="44.09087" lon="1.10223">
        <ele>121.040821</ele>
        <time>2022-12-30T13:30:17.337Z</time>
      </trkpt>
      <trkpt lat="44.09077" lon="1.1022">
        <ele>120.919794</ele>
        <time>2022-12-30T13:30:25.344Z</time>
      </trkpt>
      <trkpt lat="44.09068" lon="1.10218">
        <ele>120.800892</ele>
        <time>2022-12-30T13:30:33.337Z</time>
      </trkpt>
      <trkpt lat="44.09058" lon="1.10215">
        <ele>120.680582</ele>
        <time>2022-12-30T13:30:41.333Z</time>
      </trkpt>
      <trkpt lat="44.09049" lon="1.10212">
        <ele>120.558475</ele>
        <time>2022-12-30T13:30:49.347Z</time>
      </trkpt>
      <trkpt lat="44.09041" lon="1.10207">
        <ele>120.444015</ele>
        <time>2022-12-30T13:30:57.343Z</time>
      </trkpt>
      <trkpt lat="44.09032" lon="1.10203">
        <ele>120.327325</ele>
        <time>2022-12-30T13:31:05.334Z</time>
      </trkpt>
      <trkpt lat="44.09022" lon="1.10199">
        <ele>120.206511</ele>
        <time>2022-12-30T13:31:13.345Z</time>
      </trkpt>
      <trkpt lat="44.09013" lon="1.10194">
        <ele>120.081315</ele>
        <time>2022-12-30T13:31:22.342Z</time>
      </trkpt>
      <trkpt lat="44.09004" lon="1.10191">
        <ele>119.959575</ele>
        <time>2022-12-30T13:31:31.346Z</time>
      </trkpt>
      <trkpt lat="44.08989" lon="1.10188">
        <ele>119.770988</ele>
        <time>2022-12-30T13:33:11.339Z</time>
      </trkpt>
      <trkpt lat="44.08978" lon="1.10187">
        <ele>119.632443</ele>
        <time>2022-12-30T13:33:15.366Z</time>
      </trkpt>
      <trkpt lat="44.08968" lon="1.10183">
        <ele>119.505047</ele>
        <time>2022-12-30T13:33:18.349Z</time>
      </trkpt>
      <trkpt lat="44.08958" lon="1.10181">
        <ele>119.377998</ele>
        <time>2022-12-30T13:33:21.351Z</time>
      </trkpt>
      <trkpt lat="44.08948" lon="1.10179">
        <ele>119.254091</ele>
        <time>2022-12-30T13:33:24.368Z</time>
      </trkpt>
      <trkpt lat="44.08938" lon="1.10177">
        <ele>119.074585</ele>
        <time>2022-12-30T13:33:27.335Z</time>
      </trkpt>
      <trkpt lat="44.08927" lon="1.10174">
        <ele>118.886609</ele>
        <time>2022-12-30T13:33:30.350Z</time>
      </trkpt>
      <trkpt lat="44.08917" lon="1.10172">
        <ele>118.70631</ele>
        <time>2022-12-30T13:33:33.351Z</time>
      </trkpt>
      <trkpt lat="44.08905" lon="1.1017">
        <ele>118.508602</ele>
        <time>2022-12-30T13:33:36.359Z</time>
      </trkpt>
      <trkpt lat="44.08893" lon="1.10167">
        <ele>118.302747</ele>
        <time>2022-12-30T13:33:39.342Z</time>
      </trkpt>
      <trkpt lat="44.08881" lon="1.10164">
        <ele>118.081885</ele>
        <time>2022-12-30T13:33:42.365Z</time>
      </trkpt>
      <trkpt lat="44.08868" lon="1.1016">
        <ele>117.863707</ele>
        <time>2022-12-30T13:33:45.358Z</time>
      </trkpt>
      <trkpt lat="44.08856" lon="1.10157">
        <ele>117.646008</ele>
        <time>2022-12-30T13:33:48.336Z</time>
      </trkpt>
      <trkpt lat="44.08844" lon="1.10154">
        <ele>117.42952</ele>
        <time>2022-12-30T13:33:51.329Z</time>
      </trkpt>
      <trkpt lat="44.08832" lon="1.10151">
        <ele>117.225931</ele>
        <time>2022-12-30T13:33:54.351Z</time>
      </trkpt>
      <trkpt lat="44.0882" lon="1.10148">
        <ele>117.0072</ele>
        <time>2022-12-30T13:33:57.351Z</time>
      </trkpt>
      <trkpt lat="44.08807" lon="1.10144">
        <ele>116.78152</ele>
        <time>2022-12-30T13:34:00.338Z</time>
      </trkpt>
      <trkpt lat="44.08794" lon="1.10141">
        <ele>116.556752</ele>
        <time>2022-12-30T13:34:03.349Z</time>
      </trkpt>
      <trkpt lat="44.08782" lon="1.10139">
        <ele>116.346935</ele>
        <time>2022-12-30T13:34:06.352Z</time>
      </trkpt>
      <trkpt lat="44.0877" lon="1.10136">
        <ele>116.144531</ele>
        <time>2022-12-30T13:34:09.353Z</time>
      </trkpt>
      <trkpt lat="44.08758" lon="1.10133">
        <ele>116.14157</ele>
        <time>2022-12-30T13:34:12.355Z</time>
      </trkpt>
      <trkpt lat="44.08746" lon="1.1013">
        <ele>116.138533</ele>
        <time>2022-12-30T13:34:15.350Z</time>
      </trkpt>
      <trkpt lat="44.08734" lon="1.10128">
        <ele>116.135515</ele>
        <time>2022-12-30T13:34:18.353Z</time>
      </trkpt>
      <trkpt lat="44.08725" lon="1.10125">
        <ele>116.13325</ele>
        <time>2022-12-30T13:34:20.354Z</time>
      </trkpt>
      <trkpt lat="44.08713" lon="1.10122">
        <ele>116.13017</ele>
        <time>2022-12-30T13:34:23.350Z</time>
      </trkpt>
      <trkpt lat="44.08702" lon="1.1012">
        <ele>116.127345</ele>
        <time>2022-12-30T13:34:26.355Z</time>
      </trkpt>
      <trkpt lat="44.08689" lon="1.10116">
        <ele>116.123999</ele>
        <time>2022-12-30T13:34:29.353Z</time>
      </trkpt>
      <trkpt lat="44.08674" lon="1.10112">
        <ele>116.120246</ele>
        <time>2022-12-30T13:34:32.355Z</time>
      </trkpt>
      <trkpt lat="44.08662" lon="1.1011">
        <ele>116.117106</ele>
        <time>2022-12-30T13:34:35.335Z</time>
      </trkpt>
      <trkpt lat="44.08649" lon="1.10106">
        <ele>116.11377</ele>
        <time>2022-12-30T13:34:38.353Z</time>
      </trkpt>
      <trkpt lat="44.08636" lon="1.10103">
        <ele>116.110533</ele>
        <time>2022-12-30T13:34:41.358Z</time>
      </trkpt>
      <trkpt lat="44.08624" lon="1.101">
        <ele>116.107541</ele>
        <time>2022-12-30T13:34:44.356Z</time>
      </trkpt>
      <trkpt lat="44.08615" lon="1.10096">
        <ele>116.105118</ele>
        <time>2022-12-30T13:34:46.333Z</time>
      </trkpt>
      <trkpt lat="44.08606" lon="1.10094">
        <ele>116.10279</ele>
        <time>2022-12-30T13:34:48.351Z</time>
      </trkpt>
      <trkpt lat="44.08597" lon="1.10091">
        <ele>116.100525</ele>
        <time>2022-12-30T13:34:50.334Z</time>
      </trkpt>
      <trkpt lat="44.08588" lon="1.1009">
        <ele>116.146079</ele>
        <time>2022-12-30T13:34:52.359Z</time>
      </trkpt>
      <trkpt lat="44.08575" lon="1.10088">
        <ele>116.24598</ele>
        <time>2022-12-30T13:34:55.355Z</time>
      </trkpt>
      <trkpt lat="44.08563" lon="1.10085">
        <ele>116.346259</ele>
        <time>2022-12-30T13:34:58.341Z</time>
      </trkpt>
      <trkpt lat="44.0855" lon="1.10081">
        <ele>116.453009</ele>
        <time>2022-12-30T13:35:01.332Z</time>
      </trkpt>
      <trkpt lat="44.08541" lon="1.10078">
        <ele>116.52822</ele>
        <time>2022-12-30T13:35:03.339Z</time>
      </trkpt>
      <trkpt lat="44.08529" lon="1.10075">
        <ele>116.624915</ele>
        <time>2022-12-30T13:35:06.354Z</time>
      </trkpt>
      <trkpt lat="44.0852" lon="1.10073">
        <ele>116.69775</ele>
        <time>2022-12-30T13:35:08.353Z</time>
      </trkpt>
      <trkpt lat="44.08508" lon="1.1007">
        <ele>116.79058</ele>
        <time>2022-12-30T13:35:11.364Z</time>
      </trkpt>
      <trkpt lat="44.08496" lon="1.10067">
        <ele>116.892054</ele>
        <time>2022-12-30T13:35:14.358Z</time>
      </trkpt>
      <trkpt lat="44.08484" lon="1.10065">
        <ele>116.982434</ele>
        <time>2022-12-30T13:35:17.348Z</time>
      </trkpt>
      <trkpt lat="44.08472" lon="1.10063">
        <ele>117.080087</ele>
        <time>2022-12-30T13:35:20.353Z</time>
      </trkpt>
      <trkpt lat="44.08459" lon="1.1006">
        <ele>117.184883</ele>
        <time>2022-12-30T13:35:23.355Z</time>
      </trkpt>
      <trkpt lat="44.0845" lon="1.10058">
        <ele>117.256469</ele>
        <time>2022-12-30T13:35:25.349Z</time>
      </trkpt>
      <trkpt lat="44.08437" lon="1.10055">
        <ele>117.364592</ele>
        <time>2022-12-30T13:35:28.350Z</time>
      </trkpt>
      <trkpt lat="44.08424" lon="1.10051">
        <ele>117.46865</ele>
        <time>2022-12-30T13:35:31.351Z</time>
      </trkpt>
      <trkpt lat="44.08412" lon="1.10048">
        <ele>117.548482</ele>
        <time>2022-12-30T13:35:34.352Z</time>
      </trkpt>
      <trkpt lat="44.084" lon="1.10045">
        <ele>117.597727</ele>
        <time>2022-12-30T13:35:37.331Z</time>
      </trkpt>
      <trkpt lat="44.08389" lon="1.10042">
        <ele>117.638805</ele>
        <time>2022-12-30T13:35:39.350Z</time>
      </trkpt>
      <trkpt lat="44.0838" lon="1.10039">
        <ele>117.67485</ele>
        <time>2022-12-30T13:35:41.351Z</time>
      </trkpt>
      <trkpt lat="44.08367" lon="1.10036">
        <ele>117.72551</ele>
        <time>2022-12-30T13:35:44.354Z</time>
      </trkpt>
      <trkpt lat="44.08358" lon="1.10033">
        <ele>117.762231</ele>
        <time>2022-12-30T13:35:46.355Z</time>
      </trkpt>
      <trkpt lat="44.08346" lon="1.1003">
        <ele>117.809575</ele>
        <time>2022-12-30T13:35:49.345Z</time>
      </trkpt>
      <trkpt lat="44.08337" lon="1.10027">
        <ele>117.846452</ele>
        <time>2022-12-30T13:35:51.352Z</time>
      </trkpt>
      <trkpt lat="44.08324" lon="1.10026">
        <ele>117.897964</ele>
        <time>2022-12-30T13:35:54.351Z</time>
      </trkpt>
      <trkpt lat="44.08315" lon="1.10023">
        <ele>117.933816</ele>
        <time>2022-12-30T13:35:56.353Z</time>
      </trkpt>
      <trkpt lat="44.08302" lon="1.10019">
        <ele>117.983385</ele>
        <time>2022-12-30T13:35:59.353Z</time>
      </trkpt>
      <trkpt lat="44.08293" lon="1.10017">
        <ele>118.02049</ele>
        <time>2022-12-30T13:36:01.353Z</time>
      </trkpt>
      <trkpt lat="44.0828" lon="1.10014">
        <ele>118.071974</ele>
        <time>2022-12-30T13:36:04.351Z</time>
      </trkpt>
      <trkpt lat="44.08267" lon="1.10011">
        <ele>118.121818</ele>
        <time>2022-12-30T13:36:07.353Z</time>
      </trkpt>
      <trkpt lat="44.08258" lon="1.10008">
        <ele>118.158809</ele>
        <time>2022-12-30T13:36:09.350Z</time>
      </trkpt>
      <trkpt lat="44.08245" lon="1.10004">
        <ele>118.210832</ele>
        <time>2022-12-30T13:36:12.353Z</time>
      </trkpt>
      <trkpt lat="44.08232" lon="1.10002">
        <ele>118.280625</ele>
        <time>2022-12-30T13:36:15.354Z</time>
      </trkpt>
      <trkpt lat="44.0822" lon="1.09999">
        <ele>118.363667</ele>
        <time>2022-12-30T13:36:18.351Z</time>
      </trkpt>
      <trkpt lat="44.08207" lon="1.09996">
        <ele>118.454217</ele>
        <time>2022-12-30T13:36:21.352Z</time>
      </trkpt>
      <trkpt lat="44.08197" lon="1.09993">
        <ele>118.518393</ele>
        <time>2022-12-30T13:36:23.354Z</time>
      </trkpt>
      <trkpt lat="44.08187" lon="1.09991">
        <ele>118.585451</ele>
        <time>2022-12-30T13:36:25.353Z</time>
      </trkpt>
      <trkpt lat="44.08175" lon="1.09988">
        <ele>118.668767</ele>
        <time>2022-12-30T13:36:28.345Z</time>
      </trkpt>
      <trkpt lat="44.08163" lon="1.09984">
        <ele>118.755525</ele>
        <time>2022-12-30T13:36:31.352Z</time>
      </trkpt>
      <trkpt lat="44.08149" lon="1.09981">
        <ele>118.847988</ele>
        <time>2022-12-30T13:36:34.359Z</time>
      </trkpt>
      <trkpt lat="44.0814" lon="1.09979">
        <ele>118.909018</ele>
        <time>2022-12-30T13:36:36.344Z</time>
      </trkpt>
      <trkpt lat="44.08127" lon="1.09976">
        <ele>118.999935</ele>
        <time>2022-12-30T13:36:39.348Z</time>
      </trkpt>
      <trkpt lat="44.08115" lon="1.09973">
        <ele>119.078112</ele>
        <time>2022-12-30T13:36:42.347Z</time>
      </trkpt>
      <trkpt lat="44.08106" lon="1.0997">
        <ele>119.141497</ele>
        <time>2022-12-30T13:36:44.353Z</time>
      </trkpt>
      <trkpt lat="44.08093" lon="1.09967">
        <ele>119.225397</ele>
        <time>2022-12-30T13:36:47.354Z</time>
      </trkpt>
      <trkpt lat="44.08082" lon="1.09964">
        <ele>119.300457</ele>
        <time>2022-12-30T13:36:50.353Z</time>
      </trkpt>
      <trkpt lat="44.08072" lon="1.09962">
        <ele>119.370236</ele>
        <time>2022-12-30T13:36:53.330Z</time>
      </trkpt>
      <trkpt lat="44.0806" lon="1.0996">
        <ele>119.451669</ele>
        <time>2022-12-30T13:36:56.352Z</time>
      </trkpt>
      <trkpt lat="44.08047" lon="1.09958">
        <ele>119.537125</ele>
        <time>2022-12-30T13:36:59.351Z</time>
      </trkpt>
      <trkpt lat="44.08037" lon="1.09955">
        <ele>119.599033</ele>
        <time>2022-12-30T13:37:01.351Z</time>
      </trkpt>
      <trkpt lat="44.08027" lon="1.09951">
        <ele>119.667507</ele>
        <time>2022-12-30T13:37:03.352Z</time>
      </trkpt>
      <trkpt lat="44.08014" lon="1.09948">
        <ele>119.755114</ele>
        <time>2022-12-30T13:37:06.353Z</time>
      </trkpt>
      <trkpt lat="44.08001" lon="1.09945">
        <ele>119.83544</ele>
        <time>2022-12-30T13:37:09.363Z</time>
      </trkpt>
      <trkpt lat="44.07988" lon="1.09941">
        <ele>119.923227</ele>
        <time>2022-12-30T13:37:12.354Z</time>
      </trkpt>
      <trkpt lat="44.07975" lon="1.09938">
        <ele>120.005365</ele>
        <time>2022-12-30T13:37:15.353Z</time>
      </trkpt>
      <trkpt lat="44.07966" lon="1.09935">
        <ele>120.068692</ele>
        <time>2022-12-30T13:37:17.356Z</time>
      </trkpt>
      <trkpt lat="44.07953" lon="1.09933">
        <ele>120.151164</ele>
        <time>2022-12-30T13:37:20.340Z</time>
      </trkpt>
      <trkpt lat="44.07941" lon="1.09929">
        <ele>120.230791</ele>
        <time>2022-12-30T13:37:23.331Z</time>
      </trkpt>
      <trkpt lat="44.0793" lon="1.09926">
        <ele>120.302494</ele>
        <time>2022-12-30T13:37:26.353Z</time>
      </trkpt>
      <trkpt lat="44.0792" lon="1.09924">
        <ele>120.366292</ele>
        <time>2022-12-30T13:37:29.351Z</time>
      </trkpt>
      <trkpt lat="44.07911" lon="1.09922">
        <ele>120.427335</ele>
        <time>2022-12-30T13:37:32.351Z</time>
      </trkpt>
      <trkpt lat="44.079" lon="1.0992">
        <ele>120.498674</ele>
        <time>2022-12-30T13:37:35.351Z</time>
      </trkpt>
      <trkpt lat="44.07887" lon="1.09917">
        <ele>120.578681</ele>
        <time>2022-12-30T13:37:38.334Z</time>
      </trkpt>
      <trkpt lat="44.07874" lon="1.09913">
        <ele>120.462762</ele>
        <time>2022-12-30T13:37:41.333Z</time>
      </trkpt>
      <trkpt lat="44.07862" lon="1.09909">
        <ele>120.327144</ele>
        <time>2022-12-30T13:37:44.351Z</time>
      </trkpt>
      <trkpt lat="44.07853" lon="1.09907">
        <ele>120.230156</ele>
        <time>2022-12-30T13:37:46.350Z</time>
      </trkpt>
      <trkpt lat="44.0784" lon="1.09904">
        <ele>120.089879</ele>
        <time>2022-12-30T13:37:49.353Z</time>
      </trkpt>
      <trkpt lat="44.07827" lon="1.09901">
        <ele>119.953276</ele>
        <time>2022-12-30T13:37:52.353Z</time>
      </trkpt>
      <trkpt lat="44.07814" lon="1.09897">
        <ele>119.815186</ele>
        <time>2022-12-30T13:37:55.353Z</time>
      </trkpt>
      <trkpt lat="44.07802" lon="1.09894">
        <ele>119.685791</ele>
        <time>2022-12-30T13:37:58.353Z</time>
      </trkpt>
      <trkpt lat="44.07793" lon="1.09891">
        <ele>119.586432</ele>
        <time>2022-12-30T13:38:00.353Z</time>
      </trkpt>
      <trkpt lat="44.0778" lon="1.09888">
        <ele>119.438026</ele>
        <time>2022-12-30T13:38:03.348Z</time>
      </trkpt>
      <trkpt lat="44.07766" lon="1.09885">
        <ele>119.294592</ele>
        <time>2022-12-30T13:38:06.353Z</time>
      </trkpt>
      <trkpt lat="44.07757" lon="1.09882">
        <ele>119.195765</ele>
        <time>2022-12-30T13:38:08.352Z</time>
      </trkpt>
      <trkpt lat="44.07744" lon="1.09879">
        <ele>119.048678</ele>
        <time>2022-12-30T13:38:11.352Z</time>
      </trkpt>
      <trkpt lat="44.07734" lon="1.09876">
        <ele>118.947458</ele>
        <time>2022-12-30T13:38:13.349Z</time>
      </trkpt>
      <trkpt lat="44.07721" lon="1.09873">
        <ele>118.80575</ele>
        <time>2022-12-30T13:38:16.353Z</time>
      </trkpt>
      <trkpt lat="44.07712" lon="1.09871">
        <ele>118.705111</ele>
        <time>2022-12-30T13:38:18.335Z</time>
      </trkpt>
      <trkpt lat="44.07699" lon="1.09867">
        <ele>118.697985</ele>
        <time>2022-12-30T13:38:21.334Z</time>
      </trkpt>
      <trkpt lat="44.07686" lon="1.09864">
        <ele>118.730091</ele>
        <time>2022-12-30T13:38:24.354Z</time>
      </trkpt>
      <trkpt lat="44.07672" lon="1.0986">
        <ele>118.765305</ele>
        <time>2022-12-30T13:38:27.351Z</time>
      </trkpt>
      <trkpt lat="44.0766" lon="1.09858">
        <ele>118.794563</ele>
        <time>2022-12-30T13:38:30.354Z</time>
      </trkpt>
      <trkpt lat="44.07651" lon="1.09857">
        <ele>118.817878</ele>
        <time>2022-12-30T13:38:32.352Z</time>
      </trkpt>
      <trkpt lat="44.07639" lon="1.09855">
        <ele>118.848381</ele>
        <time>2022-12-30T13:38:35.353Z</time>
      </trkpt>
      <trkpt lat="44.07628" lon="1.09853">
        <ele>118.876086</ele>
        <time>2022-12-30T13:38:38.358Z</time>
      </trkpt>
      <trkpt lat="44.07617" lon="1.09849">
        <ele>118.90398</ele>
        <time>2022-12-30T13:38:41.350Z</time>
      </trkpt>
      <trkpt lat="44.07605" lon="1.09845">
        <ele>118.934081</ele>
        <time>2022-12-30T13:38:44.353Z</time>
      </trkpt>
      <trkpt lat="44.07592" lon="1.09844">
        <ele>118.965968</ele>
        <time>2022-12-30T13:38:47.363Z</time>
      </trkpt>
      <trkpt lat="44.07578" lon="1.09843">
        <ele>118.999064</ele>
        <time>2022-12-30T13:38:50.353Z</time>
      </trkpt>
      <trkpt lat="44.07569" lon="1.09842">
        <ele>119.021592</ele>
        <time>2022-12-30T13:38:52.352Z</time>
      </trkpt>
      <trkpt lat="44.0756" lon="1.09842">
        <ele>119.044529</ele>
        <time>2022-12-30T13:38:54.341Z</time>
      </trkpt>
      <trkpt lat="44.07551" lon="1.09843">
        <ele>119.067244</ele>
        <time>2022-12-30T13:38:56.354Z</time>
      </trkpt>
      <trkpt lat="44.07542" lon="1.09843">
        <ele>119.089688</ele>
        <time>2022-12-30T13:38:58.351Z</time>
      </trkpt>
      <trkpt lat="44.07532" lon="1.09843">
        <ele>119.113367</ele>
        <time>2022-12-30T13:39:00.351Z</time>
      </trkpt>
      <trkpt lat="44.07523" lon="1.09844">
        <ele>119.153262</ele>
        <time>2022-12-30T13:39:02.352Z</time>
      </trkpt>
      <trkpt lat="44.07513" lon="1.09846">
        <ele>119.198765</ele>
        <time>2022-12-30T13:39:04.351Z</time>
      </trkpt>
      <trkpt lat="44.07504" lon="1.09847">
        <ele>119.243973</ele>
        <time>2022-12-30T13:39:06.353Z</time>
      </trkpt>
      <trkpt lat="44.07494" lon="1.09849">
        <ele>119.288096</ele>
        <time>2022-12-30T13:39:08.338Z</time>
      </trkpt>
      <trkpt lat="44.07481" lon="1.09852">
        <ele>119.348285</ele>
        <time>2022-12-30T13:39:11.333Z</time>
      </trkpt>
      <trkpt lat="44.07469" lon="1.09856">
        <ele>119.409374</ele>
        <time>2022-12-30T13:39:14.333Z</time>
      </trkpt>
      <trkpt lat="44.07457" lon="1.0986">
        <ele>119.465804</ele>
        <time>2022-12-30T13:39:17.335Z</time>
      </trkpt>
      <trkpt lat="44.07445" lon="1.09863">
        <ele>119.520487</ele>
        <time>2022-12-30T13:39:20.356Z</time>
      </trkpt>
      <trkpt lat="44.07433" lon="1.09867">
        <ele>119.578634</ele>
        <time>2022-12-30T13:39:23.354Z</time>
      </trkpt>
      <trkpt lat="44.07421" lon="1.09871">
        <ele>119.637543</ele>
        <time>2022-12-30T13:39:26.339Z</time>
      </trkpt>
      <trkpt lat="44.07409" lon="1.09875">
        <ele>119.695274</ele>
        <time>2022-12-30T13:39:29.332Z</time>
      </trkpt>
      <trkpt lat="44.07396" lon="1.09879">
        <ele>119.755869</ele>
        <time>2022-12-30T13:39:32.354Z</time>
      </trkpt>
      <trkpt lat="44.07383" lon="1.09883">
        <ele>119.817566</ele>
        <time>2022-12-30T13:39:35.332Z</time>
      </trkpt>
      <trkpt lat="44.07374" lon="1.09886">
        <ele>119.860183</ele>
        <time>2022-12-30T13:39:37.344Z</time>
      </trkpt>
      <trkpt lat="44.07365" lon="1.09889">
        <ele>119.903702</ele>
        <time>2022-12-30T13:39:39.337Z</time>
      </trkpt>
      <trkpt lat="44.07352" lon="1.09894">
        <ele>119.951309</ele>
        <time>2022-12-30T13:39:42.364Z</time>
      </trkpt>
      <trkpt lat="44.07343" lon="1.09897">
        <ele>119.947706</ele>
        <time>2022-12-30T13:39:44.338Z</time>
      </trkpt>
      <trkpt lat="44.07334" lon="1.099">
        <ele>119.944117</ele>
        <time>2022-12-30T13:39:46.357Z</time>
      </trkpt>
      <trkpt lat="44.07325" lon="1.09904">
        <ele>119.940669</ele>
        <time>2022-12-30T13:39:48.353Z</time>
      </trkpt>
      <trkpt lat="44.07316" lon="1.09906">
        <ele>119.937071</ele>
        <time>2022-12-30T13:39:50.354Z</time>
      </trkpt>
      <trkpt lat="44.07307" lon="1.0991">
        <ele>119.933616</ele>
        <time>2022-12-30T13:39:52.354Z</time>
      </trkpt>
      <trkpt lat="44.07298" lon="1.09912">
        <ele>119.930001</ele>
        <time>2022-12-30T13:39:54.353Z</time>
      </trkpt>
      <trkpt lat="44.07289" lon="1.09916">
        <ele>119.926501</ele>
        <time>2022-12-30T13:39:56.339Z</time>
      </trkpt>
      <trkpt lat="44.0728" lon="1.09919">
        <ele>119.923011</ele>
        <time>2022-12-30T13:39:58.352Z</time>
      </trkpt>
      <trkpt lat="44.07267" lon="1.09923">
        <ele>119.917826</ele>
        <time>2022-12-30T13:40:01.354Z</time>
      </trkpt>
      <trkpt lat="44.07258" lon="1.09926">
        <ele>119.914286</ele>
        <time>2022-12-30T13:40:03.348Z</time>
      </trkpt>
      <trkpt lat="44.07249" lon="1.09929">
        <ele>119.910758</ele>
        <time>2022-12-30T13:40:05.356Z</time>
      </trkpt>
      <trkpt lat="44.0724" lon="1.09932">
        <ele>119.907255</ele>
        <time>2022-12-30T13:40:07.353Z</time>
      </trkpt>
      <trkpt lat="44.07227" lon="1.09936">
        <ele>119.902153</ele>
        <time>2022-12-30T13:40:10.356Z</time>
      </trkpt>
      <trkpt lat="44.07214" lon="1.09939">
        <ele>119.897068</ele>
        <time>2022-12-30T13:40:13.352Z</time>
      </trkpt>
      <trkpt lat="44.07202" lon="1.09943">
        <ele>119.892234</ele>
        <time>2022-12-30T13:40:16.336Z</time>
      </trkpt>
      <trkpt lat="44.07191" lon="1.09947">
        <ele>119.887885</ele>
        <time>2022-12-30T13:40:19.354Z</time>
      </trkpt>
      <trkpt lat="44.07181" lon="1.0995">
        <ele>119.883958</ele>
        <time>2022-12-30T13:40:22.354Z</time>
      </trkpt>
      <trkpt lat="44.0717" lon="1.09954">
        <ele>120.043936</ele>
        <time>2022-12-30T13:40:25.349Z</time>
      </trkpt>
      <trkpt lat="44.07159" lon="1.09957">
        <ele>120.247122</ele>
        <time>2022-12-30T13:40:28.356Z</time>
      </trkpt>
      <trkpt lat="44.07146" lon="1.09961">
        <ele>120.464244</ele>
        <time>2022-12-30T13:40:31.356Z</time>
      </trkpt>
      <trkpt lat="44.07137" lon="1.09964">
        <ele>120.618751</ele>
        <time>2022-12-30T13:40:33.351Z</time>
      </trkpt>
      <trkpt lat="44.07125" lon="1.09969">
        <ele>120.825123</ele>
        <time>2022-12-30T13:40:36.353Z</time>
      </trkpt>
      <trkpt lat="44.07114" lon="1.09973">
        <ele>121.028312</ele>
        <time>2022-12-30T13:40:39.352Z</time>
      </trkpt>
      <trkpt lat="44.07102" lon="1.09978">
        <ele>121.229607</ele>
        <time>2022-12-30T13:40:42.354Z</time>
      </trkpt>
      <trkpt lat="44.07092" lon="1.09982">
        <ele>121.40775</ele>
        <time>2022-12-30T13:40:45.352Z</time>
      </trkpt>
      <trkpt lat="44.07082" lon="1.09985">
        <ele>121.587203</ele>
        <time>2022-12-30T13:40:49.355Z</time>
      </trkpt>
      <trkpt lat="44.07065" lon="1.09988">
        <ele>121.875498</ele>
        <time>2022-12-30T13:41:49.372Z</time>
      </trkpt>
      <trkpt lat="44.07055" lon="1.09991">
        <ele>122.043743</ele>
        <time>2022-12-30T13:41:52.355Z</time>
      </trkpt>
      <trkpt lat="44.07045" lon="1.09994">
        <ele>122.223119</ele>
        <time>2022-12-30T13:41:55.355Z</time>
      </trkpt>
      <trkpt lat="44.07035" lon="1.09998">
        <ele>122.392185</ele>
        <time>2022-12-30T13:41:58.355Z</time>
      </trkpt>
      <trkpt lat="44.07024" lon="1.10001">
        <ele>122.574598</ele>
        <time>2022-12-30T13:42:01.352Z</time>
      </trkpt>
      <trkpt lat="44.07013" lon="1.10004">
        <ele>122.765502</ele>
        <time>2022-12-30T13:42:04.354Z</time>
      </trkpt>
      <trkpt lat="44.07002" lon="1.10008">
        <ele>122.903595</ele>
        <time>2022-12-30T13:42:07.353Z</time>
      </trkpt>
      <trkpt lat="44.06991" lon="1.10012">
        <ele>122.866443</ele>
        <time>2022-12-30T13:42:10.334Z</time>
      </trkpt>
      <trkpt lat="44.06979" lon="1.10016">
        <ele>122.826972</ele>
        <time>2022-12-30T13:42:13.356Z</time>
      </trkpt>
      <trkpt lat="44.06967" lon="1.10021">
        <ele>122.788628</ele>
        <time>2022-12-30T13:42:16.352Z</time>
      </trkpt>
      <trkpt lat="44.06955" lon="1.10024">
        <ele>122.750026</ele>
        <time>2022-12-30T13:42:19.352Z</time>
      </trkpt>
      <trkpt lat="44.06943" lon="1.10027">
        <ele>122.711683</ele>
        <time>2022-12-30T13:42:22.354Z</time>
      </trkpt>
      <trkpt lat="44.06931" lon="1.10031">
        <ele>122.671572</ele>
        <time>2022-12-30T13:42:25.353Z</time>
      </trkpt>
      <trkpt lat="44.06918" lon="1.10035">
        <ele>122.631068</ele>
        <time>2022-12-30T13:42:28.364Z</time>
      </trkpt>
      <trkpt lat="44.06906" lon="1.10039">
        <ele>122.590051</ele>
        <time>2022-12-30T13:42:31.355Z</time>
      </trkpt>
      <trkpt lat="44.06893" lon="1.10044">
        <ele>122.549508</ele>
        <time>2022-12-30T13:42:34.329Z</time>
      </trkpt>
      <trkpt lat="44.06881" lon="1.10047">
        <ele>122.509876</ele>
        <time>2022-12-30T13:42:37.341Z</time>
      </trkpt>
      <trkpt lat="44.06869" lon="1.10051">
        <ele>122.469626</ele>
        <time>2022-12-30T13:42:40.354Z</time>
      </trkpt>
      <trkpt lat="44.06857" lon="1.10055">
        <ele>122.429739</ele>
        <time>2022-12-30T13:42:43.336Z</time>
      </trkpt>
      <trkpt lat="44.06844" lon="1.1006">
        <ele>122.388146</ele>
        <time>2022-12-30T13:42:46.353Z</time>
      </trkpt>
      <trkpt lat="44.06831" lon="1.10064">
        <ele>122.347051</ele>
        <time>2022-12-30T13:42:49.356Z</time>
      </trkpt>
      <trkpt lat="44.06818" lon="1.10067">
        <ele>122.696993</ele>
        <time>2022-12-30T13:42:52.355Z</time>
      </trkpt>
      <trkpt lat="44.06806" lon="1.10072">
        <ele>123.102343</ele>
        <time>2022-12-30T13:42:55.354Z</time>
      </trkpt>
      <trkpt lat="44.06793" lon="1.10076">
        <ele>123.502049</ele>
        <time>2022-12-30T13:42:58.354Z</time>
      </trkpt>
      <trkpt lat="44.06784" lon="1.10079">
        <ele>123.780508</ele>
        <time>2022-12-30T13:43:00.355Z</time>
      </trkpt>
      <trkpt lat="44.06773" lon="1.10083">
        <ele>124.124581</ele>
        <time>2022-12-30T13:43:03.357Z</time>
      </trkpt>
      <trkpt lat="44.06762" lon="1.10086">
        <ele>124.47468</ele>
        <time>2022-12-30T13:43:06.352Z</time>
      </trkpt>
      <trkpt lat="44.0675" lon="1.1009">
        <ele>124.851142</ele>
        <time>2022-12-30T13:43:09.355Z</time>
      </trkpt>
      <trkpt lat="44.06738" lon="1.10094">
        <ele>125.237422</ele>
        <time>2022-12-30T13:43:12.355Z</time>
      </trkpt>
      <trkpt lat="44.06726" lon="1.10098">
        <ele>125.61475</ele>
        <time>2022-12-30T13:43:15.338Z</time>
      </trkpt>
      <trkpt lat="44.06715" lon="1.10102">
        <ele>125.952349</ele>
        <time>2022-12-30T13:43:18.354Z</time>
      </trkpt>
      <trkpt lat="44.06706" lon="1.10106">
        <ele>126.251063</ele>
        <time>2022-12-30T13:43:22.352Z</time>
      </trkpt>
      <trkpt lat="44.06696" lon="1.1011">
        <ele>126.561476</ele>
        <time>2022-12-30T13:43:25.358Z</time>
      </trkpt>
      <trkpt lat="44.06685" lon="1.10115">
        <ele>126.910889</ele>
        <time>2022-12-30T13:43:28.354Z</time>
      </trkpt>
      <trkpt lat="44.06673" lon="1.10119">
        <ele>127.303142</ele>
        <time>2022-12-30T13:43:31.351Z</time>
      </trkpt>
      <trkpt lat="44.0666" lon="1.10122">
        <ele>127.709009</ele>
        <time>2022-12-30T13:43:34.356Z</time>
      </trkpt>
      <trkpt lat="44.06647" lon="1.10126">
        <ele>127.8865</ele>
        <time>2022-12-30T13:43:37.333Z</time>
      </trkpt>
      <trkpt lat="44.06635" lon="1.1013">
        <ele>127.939502</ele>
        <time>2022-12-30T13:43:40.353Z</time>
      </trkpt>
      <trkpt lat="44.06623" lon="1.10133">
        <ele>127.993036</ele>
        <time>2022-12-30T13:43:43.354Z</time>
      </trkpt>
      <trkpt lat="44.06612" lon="1.10138">
        <ele>128.047138</ele>
        <time>2022-12-30T13:43:46.353Z</time>
      </trkpt>
      <trkpt lat="44.06599" lon="1.10141">
        <ele>128.102095</ele>
        <time>2022-12-30T13:43:49.352Z</time>
      </trkpt>
      <trkpt lat="44.06587" lon="1.10146">
        <ele>128.158413</ele>
        <time>2022-12-30T13:43:52.331Z</time>
      </trkpt>
      <trkpt lat="44.06574" lon="1.1015">
        <ele>128.215922</ele>
        <time>2022-12-30T13:43:55.359Z</time>
      </trkpt>
      <trkpt lat="44.06562" lon="1.10153">
        <ele>128.273731</ele>
        <time>2022-12-30T13:43:58.351Z</time>
      </trkpt>
      <trkpt lat="44.06549" lon="1.10157">
        <ele>128.329876</ele>
        <time>2022-12-30T13:44:01.352Z</time>
      </trkpt>
      <trkpt lat="44.06537" lon="1.10162">
        <ele>128.386025</ele>
        <time>2022-12-30T13:44:04.343Z</time>
      </trkpt>
      <trkpt lat="44.06524" lon="1.10167">
        <ele>128.443364</ele>
        <time>2022-12-30T13:44:07.352Z</time>
      </trkpt>
      <trkpt lat="44.06512" lon="1.10171">
        <ele>128.501086</ele>
        <time>2022-12-30T13:44:10.358Z</time>
      </trkpt>
      <trkpt lat="44.06499" lon="1.10175">
        <ele>128.558028</ele>
        <time>2022-12-30T13:44:13.355Z</time>
      </trkpt>
      <trkpt lat="44.06486" lon="1.1018">
        <ele>128.617502</ele>
        <time>2022-12-30T13:44:16.352Z</time>
      </trkpt>
      <trkpt lat="44.06473" lon="1.10184">
        <ele>128.628956</ele>
        <time>2022-12-30T13:44:19.352Z</time>
      </trkpt>
      <trkpt lat="44.06461" lon="1.10188">
        <ele>128.600389</ele>
        <time>2022-12-30T13:44:22.333Z</time>
      </trkpt>
      <trkpt lat="44.06452" lon="1.10191">
        <ele>128.579857</ele>
        <time>2022-12-30T13:44:24.353Z</time>
      </trkpt>
      <trkpt lat="44.06443" lon="1.10194">
        <ele>128.560017</ele>
        <time>2022-12-30T13:44:26.354Z</time>
      </trkpt>
      <trkpt lat="44.06429" lon="1.10198">
        <ele>128.52981</ele>
        <time>2022-12-30T13:44:29.353Z</time>
      </trkpt>
      <trkpt lat="44.06417" lon="1.10202">
        <ele>128.500917</ele>
        <time>2022-12-30T13:44:32.334Z</time>
      </trkpt>
      <trkpt lat="44.06405" lon="1.10207">
        <ele>128.47415</ele>
        <time>2022-12-30T13:44:35.354Z</time>
      </trkpt>
      <trkpt lat="44.06396" lon="1.1021">
        <ele>128.454042</ele>
        <time>2022-12-30T13:44:37.357Z</time>
      </trkpt>
      <trkpt lat="44.06386" lon="1.10215">
        <ele>128.43109</ele>
        <time>2022-12-30T13:44:39.345Z</time>
      </trkpt>
      <trkpt lat="44.06375" lon="1.10217">
        <ele>128.405656</ele>
        <time>2022-12-30T13:44:42.347Z</time>
      </trkpt>
      <trkpt lat="44.06365" lon="1.1022">
        <ele>128.383042</ele>
        <time>2022-12-30T13:44:45.355Z</time>
      </trkpt>
      <trkpt lat="44.06353" lon="1.10222">
        <ele>128.356545</ele>
        <time>2022-12-30T13:44:48.355Z</time>
      </trkpt>
      <trkpt lat="44.0634" lon="1.10226">
        <ele>128.327794</ele>
        <time>2022-12-30T13:44:51.352Z</time>
      </trkpt>
      <trkpt lat="44.06327" lon="1.1023">
        <ele>128.298902</ele>
        <time>2022-12-30T13:44:54.352Z</time>
      </trkpt>
      <trkpt lat="44.06315" lon="1.10234">
        <ele>128.271162</ele>
        <time>2022-12-30T13:44:57.355Z</time>
      </trkpt>
      <trkpt lat="44.06303" lon="1.10241">
        <ele>128.290383</ele>
        <time>2022-12-30T13:45:00.334Z</time>
      </trkpt>
      <trkpt lat="44.06291" lon="1.10248">
        <ele>128.503099</ele>
        <time>2022-12-30T13:45:03.345Z</time>
      </trkpt>
      <trkpt lat="44.06278" lon="1.10251">
        <ele>128.71487</ele>
        <time>2022-12-30T13:45:06.351Z</time>
      </trkpt>
      <trkpt lat="44.06265" lon="1.10255">
        <ele>128.928235</ele>
        <time>2022-12-30T13:45:09.364Z</time>
      </trkpt>
      <trkpt lat="44.06253" lon="1.10258">
        <ele>129.139757</ele>
        <time>2022-12-30T13:45:12.352Z</time>
      </trkpt>
      <trkpt lat="44.0624" lon="1.10262">
        <ele>129.351529</ele>
        <time>2022-12-30T13:45:15.358Z</time>
      </trkpt>
      <trkpt lat="44.06227" lon="1.10267">
        <ele>129.564246</ele>
        <time>2022-12-30T13:45:18.358Z</time>
      </trkpt>
      <trkpt lat="44.06215" lon="1.10272">
        <ele>129.781701</ele>
        <time>2022-12-30T13:45:21.353Z</time>
      </trkpt>
      <trkpt lat="44.06202" lon="1.10277">
        <ele>129.997869</ele>
        <time>2022-12-30T13:45:24.354Z</time>
      </trkpt>
      <trkpt lat="44.06189" lon="1.10281">
        <ele>130.210743</ele>
        <time>2022-12-30T13:45:27.338Z</time>
      </trkpt>
      <trkpt lat="44.0618" lon="1.10284">
        <ele>130.358846</ele>
        <time>2022-12-30T13:45:29.355Z</time>
      </trkpt>
      <trkpt lat="44.06167" lon="1.10289">
        <ele>130.585054</ele>
        <time>2022-12-30T13:45:32.356Z</time>
      </trkpt>
      <trkpt lat="44.06158" lon="1.10292">
        <ele>130.734445</ele>
        <time>2022-12-30T13:45:34.336Z</time>
      </trkpt>
      <trkpt lat="44.06149" lon="1.10295">
        <ele>130.884361</ele>
        <time>2022-12-30T13:45:36.353Z</time>
      </trkpt>
      <trkpt lat="44.06136" lon="1.10299">
        <ele>131.092447</ele>
        <time>2022-12-30T13:45:39.355Z</time>
      </trkpt>
      <trkpt lat="44.06127" lon="1.10302">
        <ele>131.147293</ele>
        <time>2022-12-30T13:45:41.354Z</time>
      </trkpt>
      <trkpt lat="44.06119" lon="1.10306">
        <ele>131.079529</ele>
        <time>2022-12-30T13:45:43.339Z</time>
      </trkpt>
      <trkpt lat="44.06106" lon="1.1031">
        <ele>130.982707</ele>
        <time>2022-12-30T13:45:46.336Z</time>
      </trkpt>
      <trkpt lat="44.06097" lon="1.10313">
        <ele>130.914363</ele>
        <time>2022-12-30T13:45:48.357Z</time>
      </trkpt>
      <trkpt lat="44.06089" lon="1.10316">
        <ele>130.846578</ele>
        <time>2022-12-30T13:45:50.354Z</time>
      </trkpt>
      <trkpt lat="44.0608" lon="1.10318">
        <ele>130.778033</ele>
        <time>2022-12-30T13:45:52.355Z</time>
      </trkpt>
      <trkpt lat="44.0607" lon="1.10322">
        <ele>130.70632</ele>
        <time>2022-12-30T13:45:54.357Z</time>
      </trkpt>
      <trkpt lat="44.06057" lon="1.10325">
        <ele>130.606291</ele>
        <time>2022-12-30T13:45:57.336Z</time>
      </trkpt>
      <trkpt lat="44.06046" lon="1.10329">
        <ele>130.51655</ele>
        <time>2022-12-30T13:46:00.354Z</time>
      </trkpt>
      <trkpt lat="44.06034" lon="1.10332">
        <ele>130.427185</ele>
        <time>2022-12-30T13:46:03.338Z</time>
      </trkpt>
      <trkpt lat="44.06022" lon="1.10337">
        <ele>130.333401</ele>
        <time>2022-12-30T13:46:06.355Z</time>
      </trkpt>
      <trkpt lat="44.06013" lon="1.1034">
        <ele>130.26533</ele>
        <time>2022-12-30T13:46:08.354Z</time>
      </trkpt>
      <trkpt lat="44.06" lon="1.10344">
        <ele>130.166712</ele>
        <time>2022-12-30T13:46:11.364Z</time>
      </trkpt>
      <trkpt lat="44.05991" lon="1.10347">
        <ele>130.097556</ele>
        <time>2022-12-30T13:46:13.332Z</time>
      </trkpt>
      <trkpt lat="44.05982" lon="1.1035">
        <ele>130.029614</ele>
        <time>2022-12-30T13:46:15.354Z</time>
      </trkpt>
      <trkpt lat="44.0597" lon="1.10354">
        <ele>129.9344</ele>
        <time>2022-12-30T13:46:18.354Z</time>
      </trkpt>
      <trkpt lat="44.05958" lon="1.10358">
        <ele>129.840479</ele>
        <time>2022-12-30T13:46:21.353Z</time>
      </trkpt>
      <trkpt lat="44.05946" lon="1.10364">
        <ele>129.881507</ele>
        <time>2022-12-30T13:46:24.351Z</time>
      </trkpt>
      <trkpt lat="44.05933" lon="1.10368">
        <ele>129.943499</ele>
        <time>2022-12-30T13:46:27.353Z</time>
      </trkpt>
      <trkpt lat="44.05921" lon="1.10372">
        <ele>130.001399</ele>
        <time>2022-12-30T13:46:30.355Z</time>
      </trkpt>
      <trkpt lat="44.05908" lon="1.10376">
        <ele>130.063849</ele>
        <time>2022-12-30T13:46:33.352Z</time>
      </trkpt>
      <trkpt lat="44.05895" lon="1.1038">
        <ele>130.124877</ele>
        <time>2022-12-30T13:46:36.356Z</time>
      </trkpt>
      <trkpt lat="44.05882" lon="1.10385">
        <ele>130.187977</ele>
        <time>2022-12-30T13:46:39.354Z</time>
      </trkpt>
      <trkpt lat="44.05869" lon="1.1039">
        <ele>130.250738</ele>
        <time>2022-12-30T13:46:42.350Z</time>
      </trkpt>
      <trkpt lat="44.05856" lon="1.10394">
        <ele>130.313719</ele>
        <time>2022-12-30T13:46:45.351Z</time>
      </trkpt>
      <trkpt lat="44.05843" lon="1.10399">
        <ele>130.377184</ele>
        <time>2022-12-30T13:46:48.354Z</time>
      </trkpt>
      <trkpt lat="44.0583" lon="1.10403">
        <ele>130.439786</ele>
        <time>2022-12-30T13:46:51.358Z</time>
      </trkpt>
      <trkpt lat="44.05821" lon="1.10406">
        <ele>130.484382</ele>
        <time>2022-12-30T13:46:53.354Z</time>
      </trkpt>
      <trkpt lat="44.05812" lon="1.1041">
        <ele>130.527804</ele>
        <time>2022-12-30T13:46:55.338Z</time>
      </trkpt>
      <trkpt lat="44.05802" lon="1.10413">
        <ele>130.575042</ele>
        <time>2022-12-30T13:46:57.352Z</time>
      </trkpt>
      <trkpt lat="44.05792" lon="1.10416">
        <ele>130.620862</ele>
        <time>2022-12-30T13:46:59.354Z</time>
      </trkpt>
      <trkpt lat="44.05783" lon="1.10419">
        <ele>130.664835</ele>
        <time>2022-12-30T13:47:01.354Z</time>
      </trkpt>
      <trkpt lat="44.05774" lon="1.10422">
        <ele>130.718045</ele>
        <time>2022-12-30T13:47:03.352Z</time>
      </trkpt>
      <trkpt lat="44.05761" lon="1.10426">
        <ele>130.79652</ele>
        <time>2022-12-30T13:47:06.354Z</time>
      </trkpt>
      <trkpt lat="44.05752" lon="1.10429">
        <ele>130.853139</ele>
        <time>2022-12-30T13:47:08.355Z</time>
      </trkpt>
      <trkpt lat="44.05743" lon="1.10432">
        <ele>130.907322</ele>
        <time>2022-12-30T13:47:10.354Z</time>
      </trkpt>
      <trkpt lat="44.05734" lon="1.10435">
        <ele>130.960829</ele>
        <time>2022-12-30T13:47:12.356Z</time>
      </trkpt>
      <trkpt lat="44.05724" lon="1.10439">
        <ele>131.021834</ele>
        <time>2022-12-30T13:47:14.332Z</time>
      </trkpt>
      <trkpt lat="44.05714" lon="1.10442">
        <ele>131.079888</ele>
        <time>2022-12-30T13:47:16.351Z</time>
      </trkpt>
      <trkpt lat="44.05705" lon="1.10445">
        <ele>131.137388</ele>
        <time>2022-12-30T13:47:18.353Z</time>
      </trkpt>
      <trkpt lat="44.05695" lon="1.10448">
        <ele>131.193631</ele>
        <time>2022-12-30T13:47:20.353Z</time>
      </trkpt>
      <trkpt lat="44.05686" lon="1.10451">
        <ele>131.250067</ele>
        <time>2022-12-30T13:47:22.339Z</time>
      </trkpt>
      <trkpt lat="44.05676" lon="1.10455">
        <ele>131.309114</ele>
        <time>2022-12-30T13:47:24.357Z</time>
      </trkpt>
      <trkpt lat="44.05666" lon="1.10457">
        <ele>131.371075</ele>
        <time>2022-12-30T13:47:26.348Z</time>
      </trkpt>
      <trkpt lat="44.05656" lon="1.10461">
        <ele>131.429107</ele>
        <time>2022-12-30T13:47:28.355Z</time>
      </trkpt>
      <trkpt lat="44.05647" lon="1.10464">
        <ele>131.488203</ele>
        <time>2022-12-30T13:47:30.338Z</time>
      </trkpt>
      <trkpt lat="44.05637" lon="1.10468">
        <ele>131.547708</ele>
        <time>2022-12-30T13:47:32.346Z</time>
      </trkpt>
      <trkpt lat="44.05627" lon="1.10471">
        <ele>131.604623</ele>
        <time>2022-12-30T13:47:34.347Z</time>
      </trkpt>
      <trkpt lat="44.05618" lon="1.10474">
        <ele>131.659832</ele>
        <time>2022-12-30T13:47:36.354Z</time>
      </trkpt>
      <trkpt lat="44.05606" lon="1.10477">
        <ele>131.725798</ele>
        <time>2022-12-30T13:47:39.354Z</time>
      </trkpt>
      <trkpt lat="44.05597" lon="1.10481">
        <ele>131.713337</ele>
        <time>2022-12-30T13:47:41.353Z</time>
      </trkpt>
      <trkpt lat="44.05586" lon="1.10485">
        <ele>131.696741</ele>
        <time>2022-12-30T13:47:44.360Z</time>
      </trkpt>
      <trkpt lat="44.05575" lon="1.10488">
        <ele>131.681913</ele>
        <time>2022-12-30T13:47:47.336Z</time>
      </trkpt>
      <trkpt lat="44.05566" lon="1.10491">
        <ele>131.669628</ele>
        <time>2022-12-30T13:47:49.362Z</time>
      </trkpt>
      <trkpt lat="44.05553" lon="1.10496">
        <ele>131.651225</ele>
        <time>2022-12-30T13:47:52.358Z</time>
      </trkpt>
      <trkpt lat="44.0554" lon="1.105">
        <ele>131.633205</ele>
        <time>2022-12-30T13:47:55.356Z</time>
      </trkpt>
      <trkpt lat="44.05531" lon="1.10503">
        <ele>131.620609</ele>
        <time>2022-12-30T13:47:57.352Z</time>
      </trkpt>
      <trkpt lat="44.05521" lon="1.10507">
        <ele>131.606865</ele>
        <time>2022-12-30T13:47:59.350Z</time>
      </trkpt>
      <trkpt lat="44.05512" lon="1.1051">
        <ele>131.594221</ele>
        <time>2022-12-30T13:48:01.352Z</time>
      </trkpt>
      <trkpt lat="44.05503" lon="1.10513">
        <ele>131.581626</ele>
        <time>2022-12-30T13:48:03.338Z</time>
      </trkpt>
      <trkpt lat="44.05494" lon="1.10516">
        <ele>131.568347</ele>
        <time>2022-12-30T13:48:05.362Z</time>
      </trkpt>
      <trkpt lat="44.05485" lon="1.10519">
        <ele>131.555643</ele>
        <time>2022-12-30T13:48:07.353Z</time>
      </trkpt>
      <trkpt lat="44.05475" lon="1.10523">
        <ele>131.542424</ele>
        <time>2022-12-30T13:48:09.357Z</time>
      </trkpt>
      <trkpt lat="44.05465" lon="1.10526">
        <ele>131.528833</ele>
        <time>2022-12-30T13:48:11.355Z</time>
      </trkpt>
      <trkpt lat="44.05456" lon="1.10528">
        <ele>131.515508</ele>
        <time>2022-12-30T13:48:13.353Z</time>
      </trkpt>
      <trkpt lat="44.05446" lon="1.10531">
        <ele>131.502507</ele>
        <time>2022-12-30T13:48:15.354Z</time>
      </trkpt>
      <trkpt lat="44.05437" lon="1.10534">
        <ele>131.489469</ele>
        <time>2022-12-30T13:48:17.356Z</time>
      </trkpt>
      <trkpt lat="44.05428" lon="1.10537">
        <ele>131.496781</ele>
        <time>2022-12-30T13:48:19.359Z</time>
      </trkpt>
      <trkpt lat="44.05418" lon="1.1054">
        <ele>131.526028</ele>
        <time>2022-12-30T13:48:21.354Z</time>
      </trkpt>
      <trkpt lat="44.05408" lon="1.10543">
        <ele>131.554416</ele>
        <time>2022-12-30T13:48:23.354Z</time>
      </trkpt>
      <trkpt lat="44.05399" lon="1.10546">
        <ele>131.582423</ele>
        <time>2022-12-30T13:48:25.355Z</time>
      </trkpt>
      <trkpt lat="44.0539" lon="1.10549">
        <ele>131.609354</ele>
        <time>2022-12-30T13:48:27.357Z</time>
      </trkpt>
      <trkpt lat="44.05381" lon="1.10553">
        <ele>131.636111</ele>
        <time>2022-12-30T13:48:29.355Z</time>
      </trkpt>
      <trkpt lat="44.05371" lon="1.10556">
        <ele>131.664269</ele>
        <time>2022-12-30T13:48:31.356Z</time>
      </trkpt>
      <trkpt lat="44.05362" lon="1.10559">
        <ele>131.693406</ele>
        <time>2022-12-30T13:48:33.355Z</time>
      </trkpt>
      <trkpt lat="44.05351" lon="1.10562">
        <ele>131.724156</ele>
        <time>2022-12-30T13:48:35.351Z</time>
      </trkpt>
      <trkpt lat="44.05342" lon="1.10565">
        <ele>131.75301</ele>
        <time>2022-12-30T13:48:37.354Z</time>
      </trkpt>
      <trkpt lat="44.05333" lon="1.10569">
        <ele>131.78</ele>
        <time>2022-12-30T13:48:39.355Z</time>
      </trkpt>
      <trkpt lat="44.05323" lon="1.10573">
        <ele>131.80983</ele>
        <time>2022-12-30T13:48:41.354Z</time>
      </trkpt>
      <trkpt lat="44.05313" lon="1.10576">
        <ele>131.839393</ele>
        <time>2022-12-30T13:48:43.337Z</time>
      </trkpt>
      <trkpt lat="44.05303" lon="1.10579">
        <ele>131.869707</ele>
        <time>2022-12-30T13:48:45.352Z</time>
      </trkpt>
      <trkpt lat="44.05293" lon="1.10583">
        <ele>131.899481</ele>
        <time>2022-12-30T13:48:47.351Z</time>
      </trkpt>
      <trkpt lat="44.05283" lon="1.10587">
        <ele>131.929311</ele>
        <time>2022-12-30T13:48:49.337Z</time>
      </trkpt>
      <trkpt lat="44.05273" lon="1.10591">
        <ele>131.959819</ele>
        <time>2022-12-30T13:48:51.359Z</time>
      </trkpt>
      <trkpt lat="44.05262" lon="1.10593">
        <ele>131.98992</ele>
        <time>2022-12-30T13:48:53.352Z</time>
      </trkpt>
      <trkpt lat="44.05253" lon="1.10596">
        <ele>132.006116</ele>
        <time>2022-12-30T13:48:55.333Z</time>
      </trkpt>
      <trkpt lat="44.05243" lon="1.10599">
        <ele>132.010518</ele>
        <time>2022-12-30T13:48:57.353Z</time>
      </trkpt>
      <trkpt lat="44.05233" lon="1.10601">
        <ele>132.014715</ele>
        <time>2022-12-30T13:48:59.353Z</time>
      </trkpt>
      <trkpt lat="44.05224" lon="1.10604">
        <ele>132.018631</ele>
        <time>2022-12-30T13:49:01.352Z</time>
      </trkpt>
      <trkpt lat="44.05214" lon="1.10608">
        <ele>132.022804</ele>
        <time>2022-12-30T13:49:03.354Z</time>
      </trkpt>
      <trkpt lat="44.05205" lon="1.10611">
        <ele>132.027063</ele>
        <time>2022-12-30T13:49:05.355Z</time>
      </trkpt>
      <trkpt lat="44.05192" lon="1.10615">
        <ele>132.032573</ele>
        <time>2022-12-30T13:49:08.353Z</time>
      </trkpt>
      <trkpt lat="44.05182" lon="1.10618">
        <ele>132.036623</ele>
        <time>2022-12-30T13:49:10.356Z</time>
      </trkpt>
      <trkpt lat="44.05173" lon="1.10622">
        <ele>132.040681</ele>
        <time>2022-12-30T13:49:12.354Z</time>
      </trkpt>
      <trkpt lat="44.05159" lon="1.10626">
        <ele>132.046484</ele>
        <time>2022-12-30T13:49:15.357Z</time>
      </trkpt>
      <trkpt lat="44.0515" lon="1.10629">
        <ele>132.05064</ele>
        <time>2022-12-30T13:49:17.356Z</time>
      </trkpt>
      <trkpt lat="44.0514" lon="1.10632">
        <ele>132.054907</ele>
        <time>2022-12-30T13:49:19.353Z</time>
      </trkpt>
      <trkpt lat="44.0513" lon="1.10636">
        <ele>132.059071</ele>
        <time>2022-12-30T13:49:21.352Z</time>
      </trkpt>
      <trkpt lat="44.05121" lon="1.10639">
        <ele>132.063198</ele>
        <time>2022-12-30T13:49:23.355Z</time>
      </trkpt>
      <trkpt lat="44.05111" lon="1.10642">
        <ele>132.067394</ele>
        <time>2022-12-30T13:49:25.355Z</time>
      </trkpt>
      <trkpt lat="44.05101" lon="1.10645">
        <ele>132.071522</ele>
        <time>2022-12-30T13:49:27.357Z</time>
      </trkpt>
      <trkpt lat="44.05092" lon="1.10648">
        <ele>132.075615</ele>
        <time>2022-12-30T13:49:29.356Z</time>
      </trkpt>
      <trkpt lat="44.05083" lon="1.10651">
        <ele>132.079398</ele>
        <time>2022-12-30T13:49:31.361Z</time>
      </trkpt>
      <trkpt lat="44.05072" lon="1.10656">
        <ele>132.11501</ele>
        <time>2022-12-30T13:49:34.358Z</time>
      </trkpt>
      <trkpt lat="44.05064" lon="1.1066">
        <ele>132.145543</ele>
        <time>2022-12-30T13:49:37.355Z</time>
      </trkpt>
      <trkpt lat="44.05054" lon="1.10664">
        <ele>132.177226</ele>
        <time>2022-12-30T13:49:40.356Z</time>
      </trkpt>
      <trkpt lat="44.05044" lon="1.10665">
        <ele>132.209912</ele>
        <time>2022-12-30T13:49:43.355Z</time>
      </trkpt>
      <trkpt lat="44.05035" lon="1.10668">
        <ele>132.242846</ele>
        <time>2022-12-30T13:49:46.353Z</time>
      </trkpt>
      <trkpt lat="44.05024" lon="1.10671">
        <ele>132.2785</ele>
        <time>2022-12-30T13:49:49.355Z</time>
      </trkpt>
      <trkpt lat="44.05013" lon="1.10675">
        <ele>132.315218</ele>
        <time>2022-12-30T13:49:52.355Z</time>
      </trkpt>
      <trkpt lat="44.05002" lon="1.10679">
        <ele>132.353112</ele>
        <time>2022-12-30T13:49:55.354Z</time>
      </trkpt>
      <trkpt lat="44.04991" lon="1.10683">
        <ele>132.389214</ele>
        <time>2022-12-30T13:49:58.353Z</time>
      </trkpt>
      <trkpt lat="44.04981" lon="1.10686">
        <ele>132.423052</ele>
        <time>2022-12-30T13:50:01.356Z</time>
      </trkpt>
      <trkpt lat="44.0497" lon="1.1069">
        <ele>132.460143</ele>
        <time>2022-12-30T13:50:04.355Z</time>
      </trkpt>
      <trkpt lat="44.04959" lon="1.10693">
        <ele>132.499432</ele>
        <time>2022-12-30T13:50:07.356Z</time>
      </trkpt>
      <trkpt lat="44.04947" lon="1.10698">
        <ele>132.540159</ele>
        <time>2022-12-30T13:50:10.347Z</time>
      </trkpt>
      <trkpt lat="44.04935" lon="1.10703">
        <ele>132.579136</ele>
        <time>2022-12-30T13:50:13.339Z</time>
      </trkpt>
      <trkpt lat="44.04925" lon="1.10705">
        <ele>132.613546</ele>
        <time>2022-12-30T13:50:16.353Z</time>
      </trkpt>
      <trkpt lat="44.04915" lon="1.10707">
        <ele>132.648415</ele>
        <time>2022-12-30T13:50:19.354Z</time>
      </trkpt>
      <trkpt lat="44.04903" lon="1.10711">
        <ele>132.68911</ele>
        <time>2022-12-30T13:50:22.337Z</time>
      </trkpt>
      <trkpt lat="44.04891" lon="1.10716">
        <ele>132.734517</ele>
        <time>2022-12-30T13:50:25.352Z</time>
      </trkpt>
      <trkpt lat="44.04879" lon="1.1072">
        <ele>132.781166</ele>
        <time>2022-12-30T13:50:28.338Z</time>
      </trkpt>
      <trkpt lat="44.04867" lon="1.10723">
        <ele>132.827102</ele>
        <time>2022-12-30T13:50:31.357Z</time>
      </trkpt>
      <trkpt lat="44.04855" lon="1.10727">
        <ele>132.872003</ele>
        <time>2022-12-30T13:50:34.333Z</time>
      </trkpt>
      <trkpt lat="44.04844" lon="1.10731">
        <ele>132.917082</ele>
        <time>2022-12-30T13:50:37.357Z</time>
      </trkpt>
      <trkpt lat="44.04832" lon="1.10734">
        <ele>132.962496</ele>
        <time>2022-12-30T13:50:40.353Z</time>
      </trkpt>
      <trkpt lat="44.04819" lon="1.10738">
        <ele>133.009084</ele>
        <time>2022-12-30T13:50:43.363Z</time>
      </trkpt>
      <trkpt lat="44.04807" lon="1.10742">
        <ele>133.055568</ele>
        <time>2022-12-30T13:50:46.355Z</time>
      </trkpt>
      <trkpt lat="44.04796" lon="1.10746">
        <ele>133.099523</ele>
        <time>2022-12-30T13:50:49.365Z</time>
      </trkpt>
      <trkpt lat="44.04783" lon="1.10749">
        <ele>133.146296</ele>
        <time>2022-12-30T13:50:52.356Z</time>
      </trkpt>
      <trkpt lat="44.04771" lon="1.10755">
        <ele>133.193446</ele>
        <time>2022-12-30T13:50:55.352Z</time>
      </trkpt>
      <trkpt lat="44.04759" lon="1.1076">
        <ele>133.241227</ele>
        <time>2022-12-30T13:50:58.356Z</time>
      </trkpt>
      <trkpt lat="44.04747" lon="1.10765">
        <ele>133.289288</ele>
        <time>2022-12-30T13:51:01.356Z</time>
      </trkpt>
      <trkpt lat="44.04735" lon="1.10769">
        <ele>133.33348</ele>
        <time>2022-12-30T13:51:04.356Z</time>
      </trkpt>
      <trkpt lat="44.04724" lon="1.10772">
        <ele>133.345649</ele>
        <time>2022-12-30T13:51:07.355Z</time>
      </trkpt>
      <trkpt lat="44.04711" lon="1.10775">
        <ele>133.353295</ele>
        <time>2022-12-30T13:51:10.343Z</time>
      </trkpt>
      <trkpt lat="44.04699" lon="1.10779">
        <ele>133.361028</ele>
        <time>2022-12-30T13:51:13.357Z</time>
      </trkpt>
      <trkpt lat="44.04687" lon="1.10782">
        <ele>133.368523</ele>
        <time>2022-12-30T13:51:16.356Z</time>
      </trkpt>
      <trkpt lat="44.04675" lon="1.10785">
        <ele>133.37614</ele>
        <time>2022-12-30T13:51:19.339Z</time>
      </trkpt>
      <trkpt lat="44.04663" lon="1.10789">
        <ele>133.383753</ele>
        <time>2022-12-30T13:51:22.356Z</time>
      </trkpt>
      <trkpt lat="44.04651" lon="1.10794">
        <ele>133.391573</ele>
        <time>2022-12-30T13:51:25.355Z</time>
      </trkpt>
      <trkpt lat="44.04639" lon="1.10799">
        <ele>133.399369</ele>
        <time>2022-12-30T13:51:28.352Z</time>
      </trkpt>
      <trkpt lat="44.04628" lon="1.10803">
        <ele>133.406035</ele>
        <time>2022-12-30T13:51:31.354Z</time>
      </trkpt>
      <trkpt lat="44.04617" lon="1.10806">
        <ele>133.413006</ele>
        <time>2022-12-30T13:51:34.351Z</time>
      </trkpt>
      <trkpt lat="44.04607" lon="1.10811">
        <ele>133.419911</ele>
        <time>2022-12-30T13:51:37.344Z</time>
      </trkpt>
      <trkpt lat="44.04595" lon="1.10816">
        <ele>133.427233</ele>
        <time>2022-12-30T13:51:40.357Z</time>
      </trkpt>
      <trkpt lat="44.04583" lon="1.10819">
        <ele>133.434928</ele>
        <time>2022-12-30T13:51:43.353Z</time>
      </trkpt>
      <trkpt lat="44.04571" lon="1.10824">
        <ele>133.442535</ele>
        <time>2022-12-30T13:51:46.355Z</time>
      </trkpt>
      <trkpt lat="44.0456" lon="1.10829">
        <ele>133.449998</ele>
        <time>2022-12-30T13:51:49.353Z</time>
      </trkpt>
      <trkpt lat="44.04547" lon="1.10833">
        <ele>133.347418</ele>
        <time>2022-12-30T13:51:52.364Z</time>
      </trkpt>
      <trkpt lat="44.04535" lon="1.10836">
        <ele>133.238155</ele>
        <time>2022-12-30T13:51:55.354Z</time>
      </trkpt>
      <trkpt lat="44.04523" lon="1.1084">
        <ele>133.128758</ele>
        <time>2022-12-30T13:51:58.354Z</time>
      </trkpt>
      <trkpt lat="44.0451" lon="1.10844">
        <ele>133.015416</ele>
        <time>2022-12-30T13:52:01.362Z</time>
      </trkpt>
      <trkpt lat="44.04497" lon="1.10848">
        <ele>132.903475</ele>
        <time>2022-12-30T13:52:04.351Z</time>
      </trkpt>
      <trkpt lat="44.04485" lon="1.10853">
        <ele>132.791887</ele>
        <time>2022-12-30T13:52:07.351Z</time>
      </trkpt>
      <trkpt lat="44.04473" lon="1.10857">
        <ele>132.67978</ele>
        <time>2022-12-30T13:52:10.354Z</time>
      </trkpt>
      <trkpt lat="44.0446" lon="1.10862">
        <ele>132.571348</ele>
        <time>2022-12-30T13:52:13.354Z</time>
      </trkpt>
      <trkpt lat="44.0445" lon="1.10864">
        <ele>132.479603</ele>
        <time>2022-12-30T13:52:16.355Z</time>
      </trkpt>
      <trkpt lat="44.04441" lon="1.10867">
        <ele>132.398106</ele>
        <time>2022-12-30T13:52:19.355Z</time>
      </trkpt>
      <trkpt lat="44.0443" lon="1.10872">
        <ele>132.298648</ele>
        <time>2022-12-30T13:52:23.354Z</time>
      </trkpt>
      <trkpt lat="44.0442" lon="1.10875">
        <ele>132.208073</ele>
        <time>2022-12-30T13:52:26.345Z</time>
      </trkpt>
      <trkpt lat="44.04408" lon="1.10877">
        <ele>132.106812</ele>
        <time>2022-12-30T13:52:29.351Z</time>
      </trkpt>
      <trkpt lat="44.04397" lon="1.1088">
        <ele>132.004984</ele>
        <time>2022-12-30T13:52:32.353Z</time>
      </trkpt>
      <trkpt lat="44.04384" lon="1.10885">
        <ele>131.893874</ele>
        <time>2022-12-30T13:52:35.334Z</time>
      </trkpt>
      <trkpt lat="44.04372" lon="1.10889">
        <ele>132.002726</ele>
        <time>2022-12-30T13:52:38.336Z</time>
      </trkpt>
      <trkpt lat="44.04361" lon="1.10893">
        <ele>132.118011</ele>
        <time>2022-12-30T13:52:41.353Z</time>
      </trkpt>
      <trkpt lat="44.04349" lon="1.10897">
        <ele>132.23441</ele>
        <time>2022-12-30T13:52:44.356Z</time>
      </trkpt>
      <trkpt lat="44.04337" lon="1.10901">
        <ele>132.359914</ele>
        <time>2022-12-30T13:52:47.338Z</time>
      </trkpt>
      <trkpt lat="44.04324" lon="1.10906">
        <ele>132.485286</ele>
        <time>2022-12-30T13:52:50.354Z</time>
      </trkpt>
      <trkpt lat="44.04312" lon="1.10911">
        <ele>132.611674</ele>
        <time>2022-12-30T13:52:53.350Z</time>
      </trkpt>
      <trkpt lat="44.043" lon="1.10918">
        <ele>132.739696</ele>
        <time>2022-12-30T13:52:56.337Z</time>
      </trkpt>
      <trkpt lat="44.04287" lon="1.10924">
        <ele>132.865158</ele>
        <time>2022-12-30T13:52:59.357Z</time>
      </trkpt>
      <trkpt lat="44.04277" lon="1.1093">
        <ele>132.971535</ele>
        <time>2022-12-30T13:53:02.354Z</time>
      </trkpt>
      <trkpt lat="44.04267" lon="1.10937">
        <ele>133.084604</ele>
        <time>2022-12-30T13:53:05.335Z</time>
      </trkpt>
      <trkpt lat="44.04256" lon="1.10946">
        <ele>133.209173</ele>
        <time>2022-12-30T13:53:08.355Z</time>
      </trkpt>
      <trkpt lat="44.04244" lon="1.10955">
        <ele>133.337997</ele>
        <time>2022-12-30T13:53:11.334Z</time>
      </trkpt>
      <trkpt lat="44.04233" lon="1.10965">
        <ele>133.468237</ele>
        <time>2022-12-30T13:53:14.357Z</time>
      </trkpt>
      <trkpt lat="44.04222" lon="1.10975">
        <ele>133.595031</ele>
        <time>2022-12-30T13:53:17.334Z</time>
      </trkpt>
      <trkpt lat="44.04211" lon="1.10985">
        <ele>133.51257</ele>
        <time>2022-12-30T13:53:20.367Z</time>
      </trkpt>
      <trkpt lat="44.04201" lon="1.10997">
        <ele>133.331768</ele>
        <time>2022-12-30T13:53:23.341Z</time>
      </trkpt>
      <trkpt lat="44.04194" lon="1.11005">
        <ele>133.205478</ele>
        <time>2022-12-30T13:53:25.358Z</time>
      </trkpt>
      <trkpt lat="44.04187" lon="1.11015">
        <ele>133.074936</ele>
        <time>2022-12-30T13:53:27.359Z</time>
      </trkpt>
      <trkpt lat="44.04177" lon="1.11025">
        <ele>132.909458</ele>
        <time>2022-12-30T13:53:30.357Z</time>
      </trkpt>
      <trkpt lat="44.04169" lon="1.11036">
        <ele>132.755527</ele>
        <time>2022-12-30T13:53:33.361Z</time>
      </trkpt>
      <trkpt lat="44.04164" lon="1.11047">
        <ele>132.622979</ele>
        <time>2022-12-30T13:53:36.363Z</time>
      </trkpt>
      <trkpt lat="44.04159" lon="1.11059">
        <ele>132.490065</ele>
        <time>2022-12-30T13:53:40.351Z</time>
      </trkpt>
      <trkpt lat="44.0415" lon="1.11064">
        <ele>132.359627</ele>
        <time>2022-12-30T13:53:45.356Z</time>
      </trkpt>
      <trkpt lat="44.04139" lon="1.11064">
        <ele>132.214374</ele>
        <time>2022-12-30T13:53:50.360Z</time>
      </trkpt>
      <trkpt lat="44.04129" lon="1.11061">
        <ele>132.067117</ele>
        <time>2022-12-30T13:53:54.337Z</time>
      </trkpt>
      <trkpt lat="44.04118" lon="1.11058">
        <ele>131.918304</ele>
        <time>2022-12-30T13:53:58.347Z</time>
      </trkpt>
      <trkpt lat="44.04109" lon="1.1105">
        <ele>131.774488</ele>
        <time>2022-12-30T13:54:03.335Z</time>
      </trkpt>
      <trkpt lat="44.04102" lon="1.1104">
        <ele>131.64114</ele>
        <time>2022-12-30T13:54:08.338Z</time>
      </trkpt>
      <trkpt lat="44.04093" lon="1.11048">
        <ele>131.49621</ele>
        <time>2022-12-30T13:54:12.335Z</time>
      </trkpt>
      <trkpt lat="44.04085" lon="1.11059">
        <ele>131.345713</ele>
        <time>2022-12-30T13:54:15.337Z</time>
      </trkpt>
      <trkpt lat="44.04076" lon="1.1107">
        <ele>131.199687</ele>
        <time>2022-12-30T13:54:18.356Z</time>
      </trkpt>
      <trkpt lat="44.04067" lon="1.1108">
        <ele>131.285386</ele>
        <time>2022-12-30T13:54:21.368Z</time>
      </trkpt>
      <trkpt lat="44.0406" lon="1.1109">
        <ele>131.352843</ele>
        <time>2022-12-30T13:54:23.364Z</time>
      </trkpt>
      <trkpt lat="44.04054" lon="1.11099">
        <ele>131.418826</ele>
        <time>2022-12-30T13:54:25.343Z</time>
      </trkpt>
      <trkpt lat="44.04047" lon="1.11107">
        <ele>131.48508</ele>
        <time>2022-12-30T13:54:27.366Z</time>
      </trkpt>
      <trkpt lat="44.04036" lon="1.11119">
        <ele>131.581104</ele>
        <time>2022-12-30T13:54:30.359Z</time>
      </trkpt>
      <trkpt lat="44.04029" lon="1.11128">
        <ele>131.652805</ele>
        <time>2022-12-30T13:54:32.369Z</time>
      </trkpt>
      <trkpt lat="44.04021" lon="1.11137">
        <ele>131.725313</ele>
        <time>2022-12-30T13:54:34.369Z</time>
      </trkpt>
      <trkpt lat="44.04014" lon="1.11146">
        <ele>131.792448</ele>
        <time>2022-12-30T13:54:36.358Z</time>
      </trkpt>
      <trkpt lat="44.04007" lon="1.11154">
        <ele>131.858053</ele>
        <time>2022-12-30T13:54:38.355Z</time>
      </trkpt>
      <trkpt lat="44.03999" lon="1.11163">
        <ele>131.930816</ele>
        <time>2022-12-30T13:54:40.356Z</time>
      </trkpt>
      <trkpt lat="44.03993" lon="1.11172">
        <ele>131.995351</ele>
        <time>2022-12-30T13:54:42.354Z</time>
      </trkpt>
      <trkpt lat="44.03984" lon="1.11184">
        <ele>132.084549</ele>
        <time>2022-12-30T13:54:45.364Z</time>
      </trkpt>
      <trkpt lat="44.03975" lon="1.11193">
        <ele>132.162334</ele>
        <time>2022-12-30T13:54:48.353Z</time>
      </trkpt>
      <trkpt lat="44.03966" lon="1.11203">
        <ele>132.242669</ele>
        <time>2022-12-30T13:54:51.353Z</time>
      </trkpt>
      <trkpt lat="44.03959" lon="1.11213">
        <ele>132.316309</ele>
        <time>2022-12-30T13:54:54.369Z</time>
      </trkpt>
      <trkpt lat="44.03953" lon="1.11225">
        <ele>132.391252</ele>
        <time>2022-12-30T13:54:57.358Z</time>
      </trkpt>
      <trkpt lat="44.03949" lon="1.11239">
        <ele>132.47015</ele>
        <time>2022-12-30T13:55:00.354Z</time>
      </trkpt>
      <trkpt lat="44.03948" lon="1.11253">
        <ele>132.465296</ele>
        <time>2022-12-30T13:55:03.354Z</time>
      </trkpt>
      <trkpt lat="44.03945" lon="1.11269">
        <ele>132.442</ele>
        <time>2022-12-30T13:55:07.363Z</time>
      </trkpt>
      <trkpt lat="44.03944" lon="1.11282">
        <ele>132.42372</ele>
        <time>2022-12-30T13:55:10.357Z</time>
      </trkpt>
      <trkpt lat="44.03944" lon="1.11297">
        <ele>132.401964</ele>
        <time>2022-12-30T13:55:14.355Z</time>
      </trkpt>
      <trkpt lat="44.03942" lon="1.11311">
        <ele>132.382594</ele>
        <time>2022-12-30T13:55:18.352Z</time>
      </trkpt>
      <trkpt lat="44.03933" lon="1.11321">
        <ele>132.358951</ele>
        <time>2022-12-30T13:55:22.357Z</time>
      </trkpt>
      <trkpt lat="44.03925" lon="1.11334">
        <ele>132.335817</ele>
        <time>2022-12-30T13:55:25.367Z</time>
      </trkpt>
      <trkpt lat="44.03919" lon="1.11343">
        <ele>132.31696</ele>
        <time>2022-12-30T13:55:28.358Z</time>
      </trkpt>
      <trkpt lat="44.03912" lon="1.11353">
        <ele>132.297694</ele>
        <time>2022-12-30T13:55:31.354Z</time>
      </trkpt>
      <trkpt lat="44.03905" lon="1.11362">
        <ele>132.278722</ele>
        <time>2022-12-30T13:55:34.352Z</time>
      </trkpt>
      <trkpt lat="44.03897" lon="1.11371">
        <ele>132.25915</ele>
        <time>2022-12-30T13:55:37.339Z</time>
      </trkpt>
      <trkpt lat="44.03889" lon="1.11381">
        <ele>132.237733</ele>
        <time>2022-12-30T13:55:40.350Z</time>
      </trkpt>
      <trkpt lat="44.03881" lon="1.11391">
        <ele>132.21685</ele>
        <time>2022-12-30T13:55:43.332Z</time>
      </trkpt>
      <trkpt lat="44.03873" lon="1.114">
        <ele>132.196112</ele>
        <time>2022-12-30T13:55:46.343Z</time>
      </trkpt>
      <trkpt lat="44.03864" lon="1.11409">
        <ele>132.174544</ele>
        <time>2022-12-30T13:55:49.338Z</time>
      </trkpt>
      <trkpt lat="44.03856" lon="1.11419">
        <ele>132.153942</ele>
        <time>2022-12-30T13:55:52.337Z</time>
      </trkpt>
      <trkpt lat="44.03848" lon="1.11429">
        <ele>132.132913</ele>
        <time>2022-12-30T13:55:55.335Z</time>
      </trkpt>
      <trkpt lat="44.0384" lon="1.11438">
        <ele>132.204689</ele>
        <time>2022-12-30T13:55:58.355Z</time>
      </trkpt>
      <trkpt lat="44.03833" lon="1.11448">
        <ele>132.30555</ele>
        <time>2022-12-30T13:56:01.358Z</time>
      </trkpt>
      <trkpt lat="44.03825" lon="1.11457">
        <ele>132.411309</ele>
        <time>2022-12-30T13:56:04.353Z</time>
      </trkpt>
      <trkpt lat="44.03818" lon="1.11468">
        <ele>132.51805</ele>
        <time>2022-12-30T13:56:07.360Z</time>
      </trkpt>
      <trkpt lat="44.03811" lon="1.11477">
        <ele>132.614633</ele>
        <time>2022-12-30T13:56:10.351Z</time>
      </trkpt>
      <trkpt lat="44.03805" lon="1.11487">
        <ele>132.70709</ele>
        <time>2022-12-30T13:56:13.374Z</time>
      </trkpt>
      <trkpt lat="44.03799" lon="1.11498">
        <ele>132.804761</ele>
        <time>2022-12-30T13:56:16.371Z</time>
      </trkpt>
      <trkpt lat="44.03792" lon="1.1151">
        <ele>132.919055</ele>
        <time>2022-12-30T13:56:20.354Z</time>
      </trkpt>
      <trkpt lat="44.03785" lon="1.1152">
        <ele>133.01802</ele>
        <time>2022-12-30T13:56:25.354Z</time>
      </trkpt>
      <trkpt lat="44.03791" lon="1.11536">
        <ele>133.153718</ele>
        <time>2022-12-30T13:57:07.410Z</time>
      </trkpt>
      <trkpt lat="44.038" lon="1.11545">
        <ele>133.263548</ele>
        <time>2022-12-30T13:57:16.355Z</time>
      </trkpt>
      <trkpt lat="44.03808" lon="1.11554">
        <ele>133.364284</ele>
        <time>2022-12-30T13:57:20.356Z</time>
      </trkpt>
      <trkpt lat="44.03812" lon="1.11568">
        <ele>133.471801</ele>
        <time>2022-12-30T13:57:24.349Z</time>
      </trkpt>
      <trkpt lat="44.03809" lon="1.11582">
        <ele>133.575523</ele>
        <time>2022-12-30T13:57:27.358Z</time>
      </trkpt>
      <trkpt lat="44.03801" lon="1.11594">
        <ele>133.695784</ele>
        <time>2022-12-30T13:57:30.346Z</time>
      </trkpt>
      <trkpt lat="44.0379" lon="1.11602">
        <ele>133.820247</ele>
        <time>2022-12-30T13:57:33.359Z</time>
      </trkpt>
      <trkpt lat="44.03778" lon="1.11606">
        <ele>133.896637</ele>
        <time>2022-12-30T13:57:36.347Z</time>
      </trkpt>
      <trkpt lat="44.03772" lon="1.11617">
        <ele>133.625257</ele>
        <time>2022-12-30T13:57:39.362Z</time>
      </trkpt>
      <trkpt lat="44.03762" lon="1.11644">
        <ele>133.03933</ele>
        <time>2022-12-30T13:58:13.353Z</time>
      </trkpt>
      <trkpt lat="44.03758" lon="1.11656">
        <ele>132.767079</ele>
        <time>2022-12-30T13:58:17.362Z</time>
      </trkpt>
      <trkpt lat="44.03754" lon="1.11668">
        <ele>132.513815</ele>
        <time>2022-12-30T13:58:20.356Z</time>
      </trkpt>
      <trkpt lat="44.03751" lon="1.11681">
        <ele>132.248383</ele>
        <time>2022-12-30T13:58:23.362Z</time>
      </trkpt>
      <trkpt lat="44.03747" lon="1.11694">
        <ele>131.964944</ele>
        <time>2022-12-30T13:58:26.364Z</time>
      </trkpt>
      <trkpt lat="44.03743" lon="1.11709">
        <ele>131.655053</ele>
        <time>2022-12-30T13:58:29.366Z</time>
      </trkpt>
      <trkpt lat="44.03739" lon="1.11724">
        <ele>131.339527</ele>
        <time>2022-12-30T13:58:32.359Z</time>
      </trkpt>
      <trkpt lat="44.03734" lon="1.11739">
        <ele>131.01534</ele>
        <time>2022-12-30T13:58:35.367Z</time>
      </trkpt>
      <trkpt lat="44.03729" lon="1.11754">
        <ele>130.689704</ele>
        <time>2022-12-30T13:58:38.366Z</time>
      </trkpt>
      <trkpt lat="44.03725" lon="1.11769">
        <ele>130.377389</ele>
        <time>2022-12-30T13:58:41.358Z</time>
      </trkpt>
      <trkpt lat="44.03721" lon="1.11782">
        <ele>130.100014</ele>
        <time>2022-12-30T13:58:44.355Z</time>
      </trkpt>
      <trkpt lat="44.03716" lon="1.11796">
        <ele>129.794841</ele>
        <time>2022-12-30T13:58:48.369Z</time>
      </trkpt>
      <trkpt lat="44.03713" lon="1.1181">
        <ele>129.511137</ele>
        <time>2022-12-30T13:58:52.356Z</time>
      </trkpt>
      <trkpt lat="44.03709" lon="1.11821">
        <ele>129.260157</ele>
        <time>2022-12-30T13:58:55.338Z</time>
      </trkpt>
      <trkpt lat="44.03705" lon="1.11835">
        <ele>129.019895</ele>
        <time>2022-12-30T13:58:58.336Z</time>
      </trkpt>
      <trkpt lat="44.037" lon="1.1185">
        <ele>129.038115</ele>
        <time>2022-12-30T13:59:01.351Z</time>
      </trkpt>
      <trkpt lat="44.03696" lon="1.11867">
        <ele>129.057543</ele>
        <time>2022-12-30T13:59:04.342Z</time>
      </trkpt>
      <trkpt lat="44.03691" lon="1.11882">
        <ele>129.076623</ele>
        <time>2022-12-30T13:59:07.363Z</time>
      </trkpt>
      <trkpt lat="44.03686" lon="1.11899">
        <ele>129.096279</ele>
        <time>2022-12-30T13:59:10.365Z</time>
      </trkpt>
      <trkpt lat="44.03681" lon="1.11914">
        <ele>129.115275</ele>
        <time>2022-12-30T13:59:13.365Z</time>
      </trkpt>
      <trkpt lat="44.03677" lon="1.1193">
        <ele>129.133944</ele>
        <time>2022-12-30T13:59:16.364Z</time>
      </trkpt>
      <trkpt lat="44.03671" lon="1.11946">
        <ele>129.153566</ele>
        <time>2022-12-30T13:59:19.353Z</time>
      </trkpt>
      <trkpt lat="44.03666" lon="1.11961">
        <ele>129.173058</ele>
        <time>2022-12-30T13:59:22.363Z</time>
      </trkpt>
      <trkpt lat="44.03661" lon="1.11977">
        <ele>129.192526</ele>
        <time>2022-12-30T13:59:25.366Z</time>
      </trkpt>
      <trkpt lat="44.03656" lon="1.11994">
        <ele>129.21235</ele>
        <time>2022-12-30T13:59:28.358Z</time>
      </trkpt>
      <trkpt lat="44.0365" lon="1.1201">
        <ele>129.232746</ele>
        <time>2022-12-30T13:59:31.368Z</time>
      </trkpt>
      <trkpt lat="44.03645" lon="1.12026">
        <ele>129.25234</ele>
        <time>2022-12-30T13:59:34.355Z</time>
      </trkpt>
      <trkpt lat="44.0364" lon="1.12043">
        <ele>129.272506</ele>
        <time>2022-12-30T13:59:37.341Z</time>
      </trkpt>
      <trkpt lat="44.03635" lon="1.12059">
        <ele>129.292737</ele>
        <time>2022-12-30T13:59:40.346Z</time>
      </trkpt>
      <trkpt lat="44.0363" lon="1.12076">
        <ele>129.50344</ele>
        <time>2022-12-30T13:59:43.350Z</time>
      </trkpt>
      <trkpt lat="44.03625" lon="1.12092">
        <ele>129.746774</ele>
        <time>2022-12-30T13:59:46.369Z</time>
      </trkpt>
      <trkpt lat="44.03621" lon="1.12109">
        <ele>129.992631</ele>
        <time>2022-12-30T13:59:49.351Z</time>
      </trkpt>
      <trkpt lat="44.03616" lon="1.12125">
        <ele>130.236686</ele>
        <time>2022-12-30T13:59:52.362Z</time>
      </trkpt>
      <trkpt lat="44.03611" lon="1.12141">
        <ele>130.482221</ele>
        <time>2022-12-30T13:59:55.355Z</time>
      </trkpt>
      <trkpt lat="44.03606" lon="1.12157">
        <ele>130.727234</ele>
        <time>2022-12-30T13:59:58.357Z</time>
      </trkpt>
      <trkpt lat="44.03601" lon="1.12174">
        <ele>130.982978</ele>
        <time>2022-12-30T14:00:01.354Z</time>
      </trkpt>
      <trkpt lat="44.03596" lon="1.12186">
        <ele>131.169925</ele>
        <time>2022-12-30T14:00:03.336Z</time>
      </trkpt>
      <trkpt lat="44.03593" lon="1.12198">
        <ele>131.348065</ele>
        <time>2022-12-30T14:00:05.358Z</time>
      </trkpt>
      <trkpt lat="44.03588" lon="1.12215">
        <ele>131.608215</ele>
        <time>2022-12-30T14:00:08.356Z</time>
      </trkpt>
      <trkpt lat="44.03584" lon="1.1223">
        <ele>131.833039</ele>
        <time>2022-12-30T14:00:11.356Z</time>
      </trkpt>
      <trkpt lat="44.03579" lon="1.12246">
        <ele>132.071656</ele>
        <time>2022-12-30T14:00:14.367Z</time>
      </trkpt>
      <trkpt lat="44.03574" lon="1.12259">
        <ele>132.28262</ele>
        <time>2022-12-30T14:00:17.345Z</time>
      </trkpt>
      <trkpt lat="44.03569" lon="1.12271">
        <ele>132.480425</ele>
        <time>2022-12-30T14:00:20.369Z</time>
      </trkpt>
      <trkpt lat="44.03564" lon="1.12282">
        <ele>132.66224</ele>
        <time>2022-12-30T14:00:23.357Z</time>
      </trkpt>
      <trkpt lat="44.03558" lon="1.12296">
        <ele>132.856392</ele>
        <time>2022-12-30T14:00:28.337Z</time>
      </trkpt>
      <trkpt lat="44.03556" lon="1.12308">
        <ele>132.981099</ele>
        <time>2022-12-30T14:00:31.379Z</time>
      </trkpt>
      <trkpt lat="44.03552" lon="1.12322">
        <ele>133.116398</ele>
        <time>2022-12-30T14:00:34.342Z</time>
      </trkpt>
      <trkpt lat="44.03549" lon="1.12336">
        <ele>133.25751</ele>
        <time>2022-12-30T14:00:37.343Z</time>
      </trkpt>
      <trkpt lat="44.03545" lon="1.12351">
        <ele>133.41151</ele>
        <time>2022-12-30T14:00:40.349Z</time>
      </trkpt>
      <trkpt lat="44.0354" lon="1.12366">
        <ele>133.576418</ele>
        <time>2022-12-30T14:00:43.340Z</time>
      </trkpt>
      <trkpt lat="44.03535" lon="1.12382">
        <ele>133.737122</ele>
        <time>2022-12-30T14:00:46.353Z</time>
      </trkpt>
      <trkpt lat="44.03531" lon="1.12398">
        <ele>133.901375</ele>
        <time>2022-12-30T14:00:49.345Z</time>
      </trkpt>
      <trkpt lat="44.03526" lon="1.12413">
        <ele>134.056136</ele>
        <time>2022-12-30T14:00:52.361Z</time>
      </trkpt>
      <trkpt lat="44.03521" lon="1.12428">
        <ele>134.211737</ele>
        <time>2022-12-30T14:00:55.358Z</time>
      </trkpt>
      <trkpt lat="44.03517" lon="1.12442">
        <ele>134.360666</ele>
        <time>2022-12-30T14:00:58.358Z</time>
      </trkpt>
      <trkpt lat="44.03513" lon="1.12458">
        <ele>134.525728</ele>
        <time>2022-12-30T14:01:01.358Z</time>
      </trkpt>
      <trkpt lat="44.03508" lon="1.12475">
        <ele>134.70264</ele>
        <time>2022-12-30T14:01:04.354Z</time>
      </trkpt>
      <trkpt lat="44.03503" lon="1.12491">
        <ele>134.868283</ele>
        <time>2022-12-30T14:01:07.360Z</time>
      </trkpt>
      <trkpt lat="44.03498" lon="1.12507">
        <ele>135.040846</ele>
        <time>2022-12-30T14:01:10.356Z</time>
      </trkpt>
      <trkpt lat="44.03493" lon="1.12523">
        <ele>135.17525</ele>
        <time>2022-12-30T14:01:13.356Z</time>
      </trkpt>
      <trkpt lat="44.03489" lon="1.12537">
        <ele>134.997774</ele>
        <time>2022-12-30T14:01:16.368Z</time>
      </trkpt>
      <trkpt lat="44.03483" lon="1.12556">
        <ele>134.766706</ele>
        <time>2022-12-30T14:01:19.350Z</time>
      </trkpt>
      <trkpt lat="44.03479" lon="1.12574">
        <ele>134.556155</ele>
        <time>2022-12-30T14:01:22.356Z</time>
      </trkpt>
      <trkpt lat="44.03474" lon="1.1259">
        <ele>134.358507</ele>
        <time>2022-12-30T14:01:25.367Z</time>
      </trkpt>
      <trkpt lat="44.03469" lon="1.12607">
        <ele>134.150678</ele>
        <time>2022-12-30T14:01:28.357Z</time>
      </trkpt>
      <trkpt lat="44.03465" lon="1.12623">
        <ele>133.951999</ele>
        <time>2022-12-30T14:01:31.349Z</time>
      </trkpt>
      <trkpt lat="44.03462" lon="1.12635">
        <ele>133.808754</ele>
        <time>2022-12-30T14:01:33.348Z</time>
      </trkpt>
      <trkpt lat="44.03456" lon="1.12652">
        <ele>133.605016</ele>
        <time>2022-12-30T14:01:36.357Z</time>
      </trkpt>
      <trkpt lat="44.03452" lon="1.12664">
        <ele>133.454001</ele>
        <time>2022-12-30T14:01:38.366Z</time>
      </trkpt>
      <trkpt lat="44.03446" lon="1.1268">
        <ele>133.24478</ele>
        <time>2022-12-30T14:01:41.365Z</time>
      </trkpt>
      <trkpt lat="44.03442" lon="1.12697">
        <ele>133.045591</ele>
        <time>2022-12-30T14:01:44.356Z</time>
      </trkpt>
      <trkpt lat="44.03436" lon="1.12713">
        <ele>132.837379</ele>
        <time>2022-12-30T14:01:47.356Z</time>
      </trkpt>
      <trkpt lat="44.0343" lon="1.12729">
        <ele>132.638046</ele>
        <time>2022-12-30T14:01:50.356Z</time>
      </trkpt>
      <trkpt lat="44.03425" lon="1.12745">
        <ele>132.440223</ele>
        <time>2022-12-30T14:01:53.362Z</time>
      </trkpt>
      <trkpt lat="44.03419" lon="1.12761">
        <ele>132.405902</ele>
        <time>2022-12-30T14:01:56.356Z</time>
      </trkpt>
      <trkpt lat="44.03414" lon="1.12778">
        <ele>132.491289</ele>
        <time>2022-12-30T14:01:59.339Z</time>
      </trkpt>
      <trkpt lat="44.03411" lon="1.1279">
        <ele>132.549112</ele>
        <time>2022-12-30T14:02:01.356Z</time>
      </trkpt>
      <trkpt lat="44.03406" lon="1.12807">
        <ele>132.633107</ele>
        <time>2022-12-30T14:02:04.367Z</time>
      </trkpt>
      <trkpt lat="44.034" lon="1.12823">
        <ele>132.716245</ele>
        <time>2022-12-30T14:02:07.356Z</time>
      </trkpt>
      <trkpt lat="44.03396" lon="1.12839">
        <ele>132.794449</ele>
        <time>2022-12-30T14:02:10.366Z</time>
      </trkpt>
      <trkpt lat="44.03391" lon="1.12856">
        <ele>132.875626</ele>
        <time>2022-12-30T14:02:13.368Z</time>
      </trkpt>
      <trkpt lat="44.03387" lon="1.12868">
        <ele>132.933531</ele>
        <time>2022-12-30T14:02:15.355Z</time>
      </trkpt>
      <trkpt lat="44.03382" lon="1.12884">
        <ele>133.01721</ele>
        <time>2022-12-30T14:02:18.354Z</time>
      </trkpt>
      <trkpt lat="44.03376" lon="1.12901">
        <ele>133.100347</ele>
        <time>2022-12-30T14:02:21.342Z</time>
      </trkpt>
      <trkpt lat="44.03373" lon="1.12914">
        <ele>133.164547</ele>
        <time>2022-12-30T14:02:23.352Z</time>
      </trkpt>
      <trkpt lat="44.03369" lon="1.12926">
        <ele>133.226182</ele>
        <time>2022-12-30T14:02:25.357Z</time>
      </trkpt>
      <trkpt lat="44.03366" lon="1.12939">
        <ele>133.288049</ele>
        <time>2022-12-30T14:02:27.358Z</time>
      </trkpt>
      <trkpt lat="44.03362" lon="1.12952">
        <ele>133.349731</ele>
        <time>2022-12-30T14:02:29.357Z</time>
      </trkpt>
      <trkpt lat="44.03358" lon="1.12963">
        <ele>133.409811</ele>
        <time>2022-12-30T14:02:31.354Z</time>
      </trkpt>
      <trkpt lat="44.03354" lon="1.12976">
        <ele>133.471493</ele>
        <time>2022-12-30T14:02:33.366Z</time>
      </trkpt>
      <trkpt lat="44.0335" lon="1.12988">
        <ele>133.48331</ele>
        <time>2022-12-30T14:02:35.337Z</time>
      </trkpt>
      <trkpt lat="44.03346" lon="1.13">
        <ele>133.453995</ele>
        <time>2022-12-30T14:02:37.355Z</time>
      </trkpt>
      <trkpt lat="44.03342" lon="1.13012">
        <ele>133.42485</ele>
        <time>2022-12-30T14:02:39.361Z</time>
      </trkpt>
      <trkpt lat="44.03337" lon="1.1303">
        <ele>133.382933</ele>
        <time>2022-12-30T14:02:42.355Z</time>
      </trkpt>
      <trkpt lat="44.03333" lon="1.13042">
        <ele>133.354675</ele>
        <time>2022-12-30T14:02:44.358Z</time>
      </trkpt>
      <trkpt lat="44.03329" lon="1.13053">
        <ele>133.326617</ele>
        <time>2022-12-30T14:02:46.364Z</time>
      </trkpt>
      <trkpt lat="44.03323" lon="1.1307">
        <ele>133.285657</ele>
        <time>2022-12-30T14:02:49.343Z</time>
      </trkpt>
      <trkpt lat="44.0332" lon="1.13082">
        <ele>133.257071</ele>
        <time>2022-12-30T14:02:51.363Z</time>
      </trkpt>
      <trkpt lat="44.03316" lon="1.13093">
        <ele>133.229139</ele>
        <time>2022-12-30T14:02:53.360Z</time>
      </trkpt>
      <trkpt lat="44.03311" lon="1.1311">
        <ele>133.190213</ele>
        <time>2022-12-30T14:02:56.365Z</time>
      </trkpt>
      <trkpt lat="44.03306" lon="1.13126">
        <ele>133.150597</ele>
        <time>2022-12-30T14:02:59.358Z</time>
      </trkpt>
      <trkpt lat="44.03301" lon="1.13142">
        <ele>133.113652</ele>
        <time>2022-12-30T14:03:02.367Z</time>
      </trkpt>
      <trkpt lat="44.03297" lon="1.13158">
        <ele>133.075435</ele>
        <time>2022-12-30T14:03:05.358Z</time>
      </trkpt>
      <trkpt lat="44.03292" lon="1.13174">
        <ele>133.037237</ele>
        <time>2022-12-30T14:03:08.356Z</time>
      </trkpt>
      <trkpt lat="44.03287" lon="1.1319">
        <ele>132.998785</ele>
        <time>2022-12-30T14:03:11.362Z</time>
      </trkpt>
      <trkpt lat="44.03282" lon="1.13207">
        <ele>132.958062</ele>
        <time>2022-12-30T14:03:14.349Z</time>
      </trkpt>
      <trkpt lat="44.03278" lon="1.13219">
        <ele>132.980643</ele>
        <time>2022-12-30T14:03:16.366Z</time>
      </trkpt>
      <trkpt lat="44.03273" lon="1.13235">
        <ele>133.041646</ele>
        <time>2022-12-30T14:03:19.358Z</time>
      </trkpt>
      <trkpt lat="44.03269" lon="1.13252">
        <ele>133.104268</ele>
        <time>2022-12-30T14:03:22.360Z</time>
      </trkpt>
      <trkpt lat="44.03264" lon="1.13269">
        <ele>133.168697</ele>
        <time>2022-12-30T14:03:25.366Z</time>
      </trkpt>
      <trkpt lat="44.03259" lon="1.13284">
        <ele>133.227639</ele>
        <time>2022-12-30T14:03:28.366Z</time>
      </trkpt>
      <trkpt lat="44.03254" lon="1.13299">
        <ele>133.282451</ele>
        <time>2022-12-30T14:03:31.359Z</time>
      </trkpt>
      <trkpt lat="44.0325" lon="1.13311">
        <ele>133.329402</ele>
        <time>2022-12-30T14:03:34.358Z</time>
      </trkpt>
      <trkpt lat="44.03246" lon="1.13324">
        <ele>133.379408</ele>
        <time>2022-12-30T14:03:37.356Z</time>
      </trkpt>
      <trkpt lat="44.03242" lon="1.13339">
        <ele>133.436873</ele>
        <time>2022-12-30T14:03:40.365Z</time>
      </trkpt>
      <trkpt lat="44.03236" lon="1.13355">
        <ele>133.496217</ele>
        <time>2022-12-30T14:03:43.357Z</time>
      </trkpt>
      <trkpt lat="44.03231" lon="1.13371">
        <ele>133.557794</ele>
        <time>2022-12-30T14:03:46.361Z</time>
      </trkpt>
      <trkpt lat="44.03226" lon="1.13388">
        <ele>133.622266</ele>
        <time>2022-12-30T14:03:49.357Z</time>
      </trkpt>
      <trkpt lat="44.03221" lon="1.13405">
        <ele>133.686876</ele>
        <time>2022-12-30T14:03:52.360Z</time>
      </trkpt>
      <trkpt lat="44.03216" lon="1.13422">
        <ele>133.752319</ele>
        <time>2022-12-30T14:03:55.358Z</time>
      </trkpt>
      <trkpt lat="44.03211" lon="1.13439">
        <ele>133.817172</ele>
        <time>2022-12-30T14:03:58.357Z</time>
      </trkpt>
      <trkpt lat="44.03207" lon="1.13455">
        <ele>133.832896</ele>
        <time>2022-12-30T14:04:01.369Z</time>
      </trkpt>
      <trkpt lat="44.03203" lon="1.13467">
        <ele>133.839754</ele>
        <time>2022-12-30T14:04:03.355Z</time>
      </trkpt>
      <trkpt lat="44.03198" lon="1.13483">
        <ele>133.849213</ele>
        <time>2022-12-30T14:04:06.358Z</time>
      </trkpt>
      <trkpt lat="44.03194" lon="1.13495">
        <ele>133.855935</ele>
        <time>2022-12-30T14:04:08.366Z</time>
      </trkpt>
      <trkpt lat="44.0319" lon="1.13507">
        <ele>133.862919</ele>
        <time>2022-12-30T14:04:10.360Z</time>
      </trkpt>
      <trkpt lat="44.03186" lon="1.13519">
        <ele>133.869936</ele>
        <time>2022-12-30T14:04:12.358Z</time>
      </trkpt>
      <trkpt lat="44.03183" lon="1.13531">
        <ele>133.877084</ele>
        <time>2022-12-30T14:04:14.367Z</time>
      </trkpt>
      <trkpt lat="44.03179" lon="1.13542">
        <ele>133.883849</ele>
        <time>2022-12-30T14:04:16.362Z</time>
      </trkpt>
      <trkpt lat="44.03174" lon="1.13555">
        <ele>133.891607</ele>
        <time>2022-12-30T14:04:18.367Z</time>
      </trkpt>
      <trkpt lat="44.03171" lon="1.13568">
        <ele>133.89911</ele>
        <time>2022-12-30T14:04:20.365Z</time>
      </trkpt>
      <trkpt lat="44.03167" lon="1.1358">
        <ele>133.906194</ele>
        <time>2022-12-30T14:04:22.357Z</time>
      </trkpt>
      <trkpt lat="44.03162" lon="1.13597">
        <ele>133.915864</ele>
        <time>2022-12-30T14:04:25.357Z</time>
      </trkpt>
      <trkpt lat="44.03159" lon="1.1361">
        <ele>133.923493</ele>
        <time>2022-12-30T14:04:27.367Z</time>
      </trkpt>
      <trkpt lat="44.03154" lon="1.13626">
        <ele>133.932421</ele>
        <time>2022-12-30T14:04:30.354Z</time>
      </trkpt>
      <trkpt lat="44.0315" lon="1.1364">
        <ele>133.940718</ele>
        <time>2022-12-30T14:04:33.355Z</time>
      </trkpt>
      <trkpt lat="44.03145" lon="1.13654">
        <ele>133.949203</ele>
        <time>2022-12-30T14:04:36.367Z</time>
      </trkpt>
      <trkpt lat="44.0314" lon="1.1367">
        <ele>133.95819</ele>
        <time>2022-12-30T14:04:39.356Z</time>
      </trkpt>
      <trkpt lat="44.03135" lon="1.13686">
        <ele>134.201972</ele>
        <time>2022-12-30T14:04:42.365Z</time>
      </trkpt>
      <trkpt lat="44.0313" lon="1.13703">
        <ele>134.48265</ele>
        <time>2022-12-30T14:04:45.357Z</time>
      </trkpt>
      <trkpt lat="44.03125" lon="1.1372">
        <ele>134.76751</ele>
        <time>2022-12-30T14:04:48.340Z</time>
      </trkpt>
      <trkpt lat="44.03121" lon="1.13732">
        <ele>134.961593</ele>
        <time>2022-12-30T14:04:50.355Z</time>
      </trkpt>
      <trkpt lat="44.03115" lon="1.13749">
        <ele>135.242905</ele>
        <time>2022-12-30T14:04:53.354Z</time>
      </trkpt>
      <trkpt lat="44.03112" lon="1.1376">
        <ele>135.432865</ele>
        <time>2022-12-30T14:04:55.366Z</time>
      </trkpt>
      <trkpt lat="44.03106" lon="1.13777">
        <ele>135.714681</ele>
        <time>2022-12-30T14:04:58.351Z</time>
      </trkpt>
      <trkpt lat="44.03101" lon="1.13795">
        <ele>136.006745</ele>
        <time>2022-12-30T14:05:01.358Z</time>
      </trkpt>
      <trkpt lat="44.03095" lon="1.13812">
        <ele>136.288562</ele>
        <time>2022-12-30T14:05:04.357Z</time>
      </trkpt>
      <trkpt lat="44.03092" lon="1.13824">
        <ele>136.477801</ele>
        <time>2022-12-30T14:05:06.357Z</time>
      </trkpt>
      <trkpt lat="44.03086" lon="1.13841">
        <ele>136.76656</ele>
        <time>2022-12-30T14:05:09.367Z</time>
      </trkpt>
      <trkpt lat="44.03082" lon="1.13853">
        <ele>136.970916</ele>
        <time>2022-12-30T14:05:11.355Z</time>
      </trkpt>
      <trkpt lat="44.03079" lon="1.13866">
        <ele>137.170134</ele>
        <time>2022-12-30T14:05:13.373Z</time>
      </trkpt>
      <trkpt lat="44.03075" lon="1.13878">
        <ele>137.370896</ele>
        <time>2022-12-30T14:05:15.360Z</time>
      </trkpt>
      <trkpt lat="44.03072" lon="1.1389">
        <ele>137.563287</ele>
        <time>2022-12-30T14:05:17.365Z</time>
      </trkpt>
      <trkpt lat="44.03066" lon="1.13907">
        <ele>137.752531</ele>
        <time>2022-12-30T14:05:20.370Z</time>
      </trkpt>
      <trkpt lat="44.03063" lon="1.13919">
        <ele>137.773591</ele>
        <time>2022-12-30T14:05:22.362Z</time>
      </trkpt>
      <trkpt lat="44.03059" lon="1.13931">
        <ele>137.7937</ele>
        <time>2022-12-30T14:05:24.369Z</time>
      </trkpt>
      <trkpt lat="44.03054" lon="1.13948">
        <ele>137.824065</ele>
        <time>2022-12-30T14:05:27.366Z</time>
      </trkpt>
      <trkpt lat="44.03051" lon="1.1396">
        <ele>137.844056</ele>
        <time>2022-12-30T14:05:29.360Z</time>
      </trkpt>
      <trkpt lat="44.03046" lon="1.13977">
        <ele>137.872891</ele>
        <time>2022-12-30T14:05:32.371Z</time>
      </trkpt>
      <trkpt lat="44.0304" lon="1.13993">
        <ele>137.90311</ele>
        <time>2022-12-30T14:05:35.347Z</time>
      </trkpt>
      <trkpt lat="44.03035" lon="1.1401">
        <ele>137.931499</ele>
        <time>2022-12-30T14:05:38.369Z</time>
      </trkpt>
      <trkpt lat="44.0303" lon="1.14024">
        <ele>137.957146</ele>
        <time>2022-12-30T14:05:41.368Z</time>
      </trkpt>
      <trkpt lat="44.03026" lon="1.14038">
        <ele>137.981025</ele>
        <time>2022-12-30T14:05:44.366Z</time>
      </trkpt>
      <trkpt lat="44.03022" lon="1.14054">
        <ele>138.007882</ele>
        <time>2022-12-30T14:05:47.367Z</time>
      </trkpt>
      <trkpt lat="44.03018" lon="1.14068">
        <ele>138.032325</ele>
        <time>2022-12-30T14:05:50.369Z</time>
      </trkpt>
      <trkpt lat="44.03014" lon="1.14082">
        <ele>138.056541</ele>
        <time>2022-12-30T14:05:53.359Z</time>
      </trkpt>
      <trkpt lat="44.0301" lon="1.14096">
        <ele>138.08101</ele>
        <time>2022-12-30T14:05:56.340Z</time>
      </trkpt>
      <trkpt lat="44.03006" lon="1.14112">
        <ele>138.107747</ele>
        <time>2022-12-30T14:05:59.341Z</time>
      </trkpt>
      <trkpt lat="44.03001" lon="1.14127">
        <ele>138.133893</ele>
        <time>2022-12-30T14:06:02.335Z</time>
      </trkpt>
      <trkpt lat="44.02996" lon="1.14142">
        <ele>138.095566</ele>
        <time>2022-12-30T14:06:05.348Z</time>
      </trkpt>
      <trkpt lat="44.02992" lon="1.14156">
        <ele>138.031625</ele>
        <time>2022-12-30T14:06:08.367Z</time>
      </trkpt>
      <trkpt lat="44.02987" lon="1.14167">
        <ele>137.978049</ele>
        <time>2022-12-30T14:06:11.355Z</time>
      </trkpt>
      <trkpt lat="44.02979" lon="1.14175">
        <ele>137.921063</ele>
        <time>2022-12-30T14:06:16.349Z</time>
      </trkpt>
      <trkpt lat="44.02974" lon="1.14187">
        <ele>137.867318</ele>
        <time>2022-12-30T14:06:22.356Z</time>
      </trkpt>
      <trkpt lat="44.02977" lon="1.142">
        <ele>137.810297</ele>
        <time>2022-12-30T14:06:28.367Z</time>
      </trkpt>
      <trkpt lat="44.02977" lon="1.14204">
        <ele>137.793936</ele>
        <time>2022-12-30T14:07:14.816Z</time>
      </trkpt>
      <trkpt lat="44.02966" lon="1.14227">
        <ele>137.685274</ele>
        <time>2022-12-30T14:10:26.343Z</time>
      </trkpt>
      <trkpt lat="44.02962" lon="1.14241">
        <ele>137.621163</ele>
        <time>2022-12-30T14:10:30.342Z</time>
      </trkpt>
      <trkpt lat="44.02959" lon="1.14254">
        <ele>137.565544</ele>
        <time>2022-12-30T14:10:33.354Z</time>
      </trkpt>
      <trkpt lat="44.02955" lon="1.14267">
        <ele>137.508457</ele>
        <time>2022-12-30T14:10:36.343Z</time>
      </trkpt>
      <trkpt lat="44.0295" lon="1.14282">
        <ele>137.442132</ele>
        <time>2022-12-30T14:10:40.344Z</time>
      </trkpt>
      <trkpt lat="44.02946" lon="1.14293">
        <ele>137.388771</ele>
        <time>2022-12-30T14:10:44.363Z</time>
      </trkpt>
      <trkpt lat="44.02943" lon="1.14306">
        <ele>137.334687</ele>
        <time>2022-12-30T14:10:48.373Z</time>
      </trkpt>
      <trkpt lat="44.0294" lon="1.14318">
        <ele>137.281953</ele>
        <time>2022-12-30T14:10:51.357Z</time>
      </trkpt>
      <trkpt lat="44.02937" lon="1.1433">
        <ele>137.22902</ele>
        <time>2022-12-30T14:10:54.356Z</time>
      </trkpt>
      <trkpt lat="44.02933" lon="1.14342">
        <ele>137.177782</ele>
        <time>2022-12-30T14:10:58.346Z</time>
      </trkpt>
      <trkpt lat="44.0293" lon="1.14356">
        <ele>137.115948</ele>
        <time>2022-12-30T14:11:13.343Z</time>
      </trkpt>
      <trkpt lat="44.02924" lon="1.1437">
        <ele>137.009698</ele>
        <time>2022-12-30T14:11:17.345Z</time>
      </trkpt>
      <trkpt lat="44.02919" lon="1.14382">
        <ele>136.918304</ele>
        <time>2022-12-30T14:11:20.349Z</time>
      </trkpt>
      <trkpt lat="44.02915" lon="1.14395">
        <ele>136.829874</ele>
        <time>2022-12-30T14:11:23.351Z</time>
      </trkpt>
      <trkpt lat="44.02913" lon="1.14407">
        <ele>136.748795</ele>
        <time>2022-12-30T14:11:26.350Z</time>
      </trkpt>
      <trkpt lat="44.02909" lon="1.1442">
        <ele>136.662231</ele>
        <time>2022-12-30T14:11:29.345Z</time>
      </trkpt>
      <trkpt lat="44.02906" lon="1.14433">
        <ele>136.571185</ele>
        <time>2022-12-30T14:11:32.357Z</time>
      </trkpt>
      <trkpt lat="44.02901" lon="1.14447">
        <ele>136.473791</ele>
        <time>2022-12-30T14:11:35.349Z</time>
      </trkpt>
      <trkpt lat="44.02896" lon="1.14459">
        <ele>136.382195</ele>
        <time>2022-12-30T14:11:38.353Z</time>
      </trkpt>
      <trkpt lat="44.02892" lon="1.14473">
        <ele>136.286157</ele>
        <time>2022-12-30T14:11:41.347Z</time>
      </trkpt>
      <trkpt lat="44.02888" lon="1.14486">
        <ele>136.195255</ele>
        <time>2022-12-30T14:11:44.395Z</time>
      </trkpt>
      <trkpt lat="44.02884" lon="1.14499">
        <ele>136.102322</ele>
        <time>2022-12-30T14:11:47.344Z</time>
      </trkpt>
      <trkpt lat="44.0288" lon="1.14513">
        <ele>136.008196</ele>
        <time>2022-12-30T14:11:50.350Z</time>
      </trkpt>
      <trkpt lat="44.02876" lon="1.14526">
        <ele>135.915595</ele>
        <time>2022-12-30T14:11:53.360Z</time>
      </trkpt>
      <trkpt lat="44.02872" lon="1.14541">
        <ele>135.814763</ele>
        <time>2022-12-30T14:11:56.356Z</time>
      </trkpt>
      <trkpt lat="44.02867" lon="1.14556">
        <ele>135.706965</ele>
        <time>2022-12-30T14:11:59.350Z</time>
      </trkpt>
      <trkpt lat="44.02862" lon="1.14571">
        <ele>135.602424</ele>
        <time>2022-12-30T14:12:02.358Z</time>
      </trkpt>
      <trkpt lat="44.02857" lon="1.14586">
        <ele>135.497947</ele>
        <time>2022-12-30T14:12:05.369Z</time>
      </trkpt>
      <trkpt lat="44.02852" lon="1.14602">
        <ele>135.417611</ele>
        <time>2022-12-30T14:12:08.363Z</time>
      </trkpt>
      <trkpt lat="44.02847" lon="1.14618">
        <ele>135.333685</ele>
        <time>2022-12-30T14:12:11.351Z</time>
      </trkpt>
      <trkpt lat="44.02842" lon="1.14635">
        <ele>135.248319</ele>
        <time>2022-12-30T14:12:14.375Z</time>
      </trkpt>
      <trkpt lat="44.02838" lon="1.14651">
        <ele>135.16571</ele>
        <time>2022-12-30T14:12:17.375Z</time>
      </trkpt>
      <trkpt lat="44.02833" lon="1.14667">
        <ele>135.086597</ele>
        <time>2022-12-30T14:12:20.342Z</time>
      </trkpt>
      <trkpt lat="44.02827" lon="1.14683">
        <ele>135.003441</ele>
        <time>2022-12-30T14:12:23.343Z</time>
      </trkpt>
      <trkpt lat="44.02822" lon="1.14699">
        <ele>134.917815</ele>
        <time>2022-12-30T14:12:26.353Z</time>
      </trkpt>
      <trkpt lat="44.02818" lon="1.14715">
        <ele>134.836329</ele>
        <time>2022-12-30T14:12:29.358Z</time>
      </trkpt>
      <trkpt lat="44.02812" lon="1.14732">
        <ele>134.750325</ele>
        <time>2022-12-30T14:12:32.342Z</time>
      </trkpt>
      <trkpt lat="44.02808" lon="1.14748">
        <ele>134.667991</ele>
        <time>2022-12-30T14:12:35.349Z</time>
      </trkpt>
      <trkpt lat="44.02803" lon="1.14765">
        <ele>134.581319</ele>
        <time>2022-12-30T14:12:38.349Z</time>
      </trkpt>
      <trkpt lat="44.02798" lon="1.14782">
        <ele>134.494646</ele>
        <time>2022-12-30T14:12:41.338Z</time>
      </trkpt>
      <trkpt lat="44.02792" lon="1.14798">
        <ele>134.408642</ele>
        <time>2022-12-30T14:12:44.348Z</time>
      </trkpt>
      <trkpt lat="44.02788" lon="1.14815">
        <ele>134.327836</ele>
        <time>2022-12-30T14:12:47.342Z</time>
      </trkpt>
      <trkpt lat="44.02783" lon="1.1483">
        <ele>134.341689</ele>
        <time>2022-12-30T14:12:50.346Z</time>
      </trkpt>
      <trkpt lat="44.02777" lon="1.14847">
        <ele>134.356509</ele>
        <time>2022-12-30T14:12:53.344Z</time>
      </trkpt>
      <trkpt lat="44.02773" lon="1.14863">
        <ele>134.370677</ele>
        <time>2022-12-30T14:12:56.341Z</time>
      </trkpt>
      <trkpt lat="44.02768" lon="1.1488">
        <ele>134.384977</ele>
        <time>2022-12-30T14:12:59.365Z</time>
      </trkpt>
      <trkpt lat="44.02764" lon="1.14891">
        <ele>134.395128</ele>
        <time>2022-12-30T14:13:01.348Z</time>
      </trkpt>
      <trkpt lat="44.02759" lon="1.14908">
        <ele>134.410216</ele>
        <time>2022-12-30T14:13:04.357Z</time>
      </trkpt>
      <trkpt lat="44.02755" lon="1.1492">
        <ele>134.420636</ele>
        <time>2022-12-30T14:13:06.347Z</time>
      </trkpt>
      <trkpt lat="44.02749" lon="1.14936">
        <ele>134.434894</ele>
        <time>2022-12-30T14:13:09.349Z</time>
      </trkpt>
      <trkpt lat="44.02744" lon="1.14952">
        <ele>134.449536</ele>
        <time>2022-12-30T14:13:12.366Z</time>
      </trkpt>
      <trkpt lat="44.0274" lon="1.14969">
        <ele>134.464198</ele>
        <time>2022-12-30T14:13:15.354Z</time>
      </trkpt>
      <trkpt lat="44.02736" lon="1.14981">
        <ele>134.47437</ele>
        <time>2022-12-30T14:13:17.357Z</time>
      </trkpt>
      <trkpt lat="44.02732" lon="1.14992">
        <ele>134.484568</ele>
        <time>2022-12-30T14:13:19.351Z</time>
      </trkpt>
      <trkpt lat="44.02727" lon="1.15009">
        <ele>134.499402</ele>
        <time>2022-12-30T14:13:22.370Z</time>
      </trkpt>
      <trkpt lat="44.02723" lon="1.1502">
        <ele>134.509572</ele>
        <time>2022-12-30T14:13:24.363Z</time>
      </trkpt>
      <trkpt lat="44.02718" lon="1.15038">
        <ele>134.525006</ele>
        <time>2022-12-30T14:13:27.356Z</time>
      </trkpt>
      <trkpt lat="44.02714" lon="1.1505">
        <ele>134.532871</ele>
        <time>2022-12-30T14:13:29.378Z</time>
      </trkpt>
      <trkpt lat="44.02709" lon="1.15066">
        <ele>134.540271</ele>
        <time>2022-12-30T14:13:32.340Z</time>
      </trkpt>
      <trkpt lat="44.02704" lon="1.15083">
        <ele>134.548115</ele>
        <time>2022-12-30T14:13:35.370Z</time>
      </trkpt>
      <trkpt lat="44.02699" lon="1.151">
        <ele>134.555832</ele>
        <time>2022-12-30T14:13:38.351Z</time>
      </trkpt>
      <trkpt lat="44.02694" lon="1.15117">
        <ele>134.563379</ele>
        <time>2022-12-30T14:13:41.340Z</time>
      </trkpt>
      <trkpt lat="44.02688" lon="1.15133">
        <ele>134.570927</ele>
        <time>2022-12-30T14:13:44.349Z</time>
      </trkpt>
      <trkpt lat="44.02683" lon="1.15148">
        <ele>134.577905</ele>
        <time>2022-12-30T14:13:47.357Z</time>
      </trkpt>
      <trkpt lat="44.02679" lon="1.15163">
        <ele>134.584783</ele>
        <time>2022-12-30T14:13:50.363Z</time>
      </trkpt>
      <trkpt lat="44.02675" lon="1.15179">
        <ele>134.591639</ele>
        <time>2022-12-30T14:13:53.349Z</time>
      </trkpt>
      <trkpt lat="44.0267" lon="1.15194">
        <ele>134.598528</ele>
        <time>2022-12-30T14:13:56.345Z</time>
      </trkpt>
      <trkpt lat="44.02665" lon="1.15209">
        <ele>134.605722</ele>
        <time>2022-12-30T14:13:59.345Z</time>
      </trkpt>
      <trkpt lat="44.02661" lon="1.15225">
        <ele>134.612606</ele>
        <time>2022-12-30T14:14:02.351Z</time>
      </trkpt>
      <trkpt lat="44.02657" lon="1.1524">
        <ele>134.619363</ele>
        <time>2022-12-30T14:14:05.348Z</time>
      </trkpt>
      <trkpt lat="44.02653" lon="1.15253">
        <ele>134.625609</ele>
        <time>2022-12-30T14:14:08.348Z</time>
      </trkpt>
      <trkpt lat="44.02648" lon="1.15268">
        <ele>134.632387</ele>
        <time>2022-12-30T14:14:11.361Z</time>
      </trkpt>
      <trkpt lat="44.02643" lon="1.15283">
        <ele>134.643348</ele>
        <time>2022-12-30T14:14:14.351Z</time>
      </trkpt>
      <trkpt lat="44.02639" lon="1.15297">
        <ele>134.656865</ele>
        <time>2022-12-30T14:14:17.351Z</time>
      </trkpt>
      <trkpt lat="44.02634" lon="1.15312">
        <ele>134.670812</ele>
        <time>2022-12-30T14:14:20.359Z</time>
      </trkpt>
      <trkpt lat="44.02629" lon="1.15328">
        <ele>134.684816</ele>
        <time>2022-12-30T14:14:23.349Z</time>
      </trkpt>
      <trkpt lat="44.02625" lon="1.1534">
        <ele>134.69685</ele>
        <time>2022-12-30T14:14:26.349Z</time>
      </trkpt>
      <trkpt lat="44.02622" lon="1.15353">
        <ele>134.708447</ele>
        <time>2022-12-30T14:14:29.360Z</time>
      </trkpt>
      <trkpt lat="44.02617" lon="1.15367">
        <ele>134.720995</ele>
        <time>2022-12-30T14:14:32.347Z</time>
      </trkpt>
      <trkpt lat="44.02613" lon="1.15382">
        <ele>134.735213</ele>
        <time>2022-12-30T14:14:35.342Z</time>
      </trkpt>
      <trkpt lat="44.02609" lon="1.15397">
        <ele>134.748381</ele>
        <time>2022-12-30T14:14:38.358Z</time>
      </trkpt>
      <trkpt lat="44.02606" lon="1.15411">
        <ele>134.760704</ele>
        <time>2022-12-30T14:14:41.349Z</time>
      </trkpt>
      <trkpt lat="44.02604" lon="1.15423">
        <ele>134.771431</ele>
        <time>2022-12-30T14:14:44.342Z</time>
      </trkpt>
      <trkpt lat="44.02603" lon="1.15437">
        <ele>134.783122</ele>
        <time>2022-12-30T14:14:48.343Z</time>
      </trkpt>
      <trkpt lat="44.02598" lon="1.15449">
        <ele>134.794797</ele>
        <time>2022-12-30T14:14:53.347Z</time>
      </trkpt>
      <trkpt lat="44.0259" lon="1.15463">
        <ele>134.80973</ele>
        <time>2022-12-30T14:14:56.363Z</time>
      </trkpt>
      <trkpt lat="44.02584" lon="1.15476">
        <ele>134.823301</ele>
        <time>2022-12-30T14:14:58.339Z</time>
      </trkpt>
      <trkpt lat="44.02578" lon="1.15491">
        <ele>134.83746</ele>
        <time>2022-12-30T14:15:00.362Z</time>
      </trkpt>
      <trkpt lat="44.02574" lon="1.15505">
        <ele>134.854588</ele>
        <time>2022-12-30T14:15:02.343Z</time>
      </trkpt>
      <trkpt lat="44.02569" lon="1.15518">
        <ele>134.882203</ele>
        <time>2022-12-30T14:15:04.357Z</time>
      </trkpt>
      <trkpt lat="44.02565" lon="1.15532">
        <ele>134.909542</ele>
        <time>2022-12-30T14:15:06.375Z</time>
      </trkpt>
      <trkpt lat="44.02561" lon="1.15544">
        <ele>134.933595</ele>
        <time>2022-12-30T14:15:08.366Z</time>
      </trkpt>
      <trkpt lat="44.02557" lon="1.15555">
        <ele>134.957344</ele>
        <time>2022-12-30T14:15:10.364Z</time>
      </trkpt>
      <trkpt lat="44.02552" lon="1.15572">
        <ele>134.991835</ele>
        <time>2022-12-30T14:15:13.358Z</time>
      </trkpt>
      <trkpt lat="44.02547" lon="1.15589">
        <ele>135.025125</ele>
        <time>2022-12-30T14:15:16.362Z</time>
      </trkpt>
      <trkpt lat="44.02542" lon="1.15606">
        <ele>135.058829</ele>
        <time>2022-12-30T14:15:19.338Z</time>
      </trkpt>
      <trkpt lat="44.02537" lon="1.15623">
        <ele>135.093945</ele>
        <time>2022-12-30T14:15:22.355Z</time>
      </trkpt>
      <trkpt lat="44.02533" lon="1.15635">
        <ele>135.11848</ele>
        <time>2022-12-30T14:15:24.382Z</time>
      </trkpt>
      <trkpt lat="44.02529" lon="1.15646">
        <ele>135.142361</ele>
        <time>2022-12-30T14:15:26.348Z</time>
      </trkpt>
      <trkpt lat="44.02525" lon="1.15659">
        <ele>135.168405</ele>
        <time>2022-12-30T14:15:28.359Z</time>
      </trkpt>
      <trkpt lat="44.02521" lon="1.15671">
        <ele>135.193005</ele>
        <time>2022-12-30T14:15:30.345Z</time>
      </trkpt>
      <trkpt lat="44.02518" lon="1.15684">
        <ele>135.217998</ele>
        <time>2022-12-30T14:15:32.356Z</time>
      </trkpt>
      <trkpt lat="44.02514" lon="1.15695">
        <ele>135.241301</ele>
        <time>2022-12-30T14:15:34.364Z</time>
      </trkpt>
      <trkpt lat="44.02508" lon="1.15712">
        <ele>135.276139</ele>
        <time>2022-12-30T14:15:37.360Z</time>
      </trkpt>
      <trkpt lat="44.02505" lon="1.15724">
        <ele>135.299612</ele>
        <time>2022-12-30T14:15:39.344Z</time>
      </trkpt>
      <trkpt lat="44.025" lon="1.15741">
        <ele>135.301815</ele>
        <time>2022-12-30T14:15:42.343Z</time>
      </trkpt>
      <trkpt lat="44.02496" lon="1.15753">
        <ele>135.288126</ele>
        <time>2022-12-30T14:15:44.376Z</time>
      </trkpt>
      <trkpt lat="44.02493" lon="1.15765">
        <ele>135.274663</ele>
        <time>2022-12-30T14:15:46.347Z</time>
      </trkpt>
      <trkpt lat="44.02487" lon="1.15781">
        <ele>135.25539</ele>
        <time>2022-12-30T14:15:49.347Z</time>
      </trkpt>
      <trkpt lat="44.02482" lon="1.15798">
        <ele>135.235687</ele>
        <time>2022-12-30T14:15:52.376Z</time>
      </trkpt>
      <trkpt lat="44.02476" lon="1.15815">
        <ele>135.216043</ele>
        <time>2022-12-30T14:15:55.362Z</time>
      </trkpt>
      <trkpt lat="44.02471" lon="1.15832">
        <ele>135.196145</ele>
        <time>2022-12-30T14:15:58.351Z</time>
      </trkpt>
      <trkpt lat="44.02467" lon="1.15844">
        <ele>135.182651</ele>
        <time>2022-12-30T14:16:00.379Z</time>
      </trkpt>
      <trkpt lat="44.02464" lon="1.15855">
        <ele>135.169097</ele>
        <time>2022-12-30T14:16:02.360Z</time>
      </trkpt>
      <trkpt lat="44.0246" lon="1.15867">
        <ele>135.155435</ele>
        <time>2022-12-30T14:16:04.359Z</time>
      </trkpt>
      <trkpt lat="44.02456" lon="1.15879">
        <ele>135.141371</ele>
        <time>2022-12-30T14:16:06.361Z</time>
      </trkpt>
      <trkpt lat="44.02451" lon="1.15896">
        <ele>135.121391</ele>
        <time>2022-12-30T14:16:09.360Z</time>
      </trkpt>
      <trkpt lat="44.02446" lon="1.15914">
        <ele>135.101574</ele>
        <time>2022-12-30T14:16:12.350Z</time>
      </trkpt>
      <trkpt lat="44.02441" lon="1.1593">
        <ele>135.083097</ele>
        <time>2022-12-30T14:16:15.348Z</time>
      </trkpt>
      <trkpt lat="44.02437" lon="1.15945">
        <ele>135.065827</ele>
        <time>2022-12-30T14:16:18.366Z</time>
      </trkpt>
      <trkpt lat="44.02432" lon="1.15961">
        <ele>135.050097</ele>
        <time>2022-12-30T14:16:21.365Z</time>
      </trkpt>
      <trkpt lat="44.02427" lon="1.15978">
        <ele>135.203478</ele>
        <time>2022-12-30T14:16:24.346Z</time>
      </trkpt>
      <trkpt lat="44.02422" lon="1.15995">
        <ele>135.360386</ele>
        <time>2022-12-30T14:16:27.362Z</time>
      </trkpt>
      <trkpt lat="44.02417" lon="1.16012">
        <ele>135.515891</ele>
        <time>2022-12-30T14:16:30.344Z</time>
      </trkpt>
      <trkpt lat="44.02411" lon="1.16028">
        <ele>135.667966</ele>
        <time>2022-12-30T14:16:33.375Z</time>
      </trkpt>
      <trkpt lat="44.02407" lon="1.16044">
        <ele>135.814524</ele>
        <time>2022-12-30T14:16:36.353Z</time>
      </trkpt>
      <trkpt lat="44.02402" lon="1.1606">
        <ele>135.959939</ele>
        <time>2022-12-30T14:16:39.363Z</time>
      </trkpt>
      <trkpt lat="44.02398" lon="1.16076">
        <ele>136.105469</ele>
        <time>2022-12-30T14:16:42.367Z</time>
      </trkpt>
      <trkpt lat="44.02393" lon="1.16091">
        <ele>136.244483</ele>
        <time>2022-12-30T14:16:45.346Z</time>
      </trkpt>
      <trkpt lat="44.02388" lon="1.16106">
        <ele>136.382843</ele>
        <time>2022-12-30T14:16:48.368Z</time>
      </trkpt>
      <trkpt lat="44.02384" lon="1.16121">
        <ele>136.519421</ele>
        <time>2022-12-30T14:16:51.350Z</time>
      </trkpt>
      <trkpt lat="44.02381" lon="1.16134">
        <ele>136.63922</ele>
        <time>2022-12-30T14:16:54.349Z</time>
      </trkpt>
      <trkpt lat="44.02377" lon="1.16149">
        <ele>136.771417</ele>
        <time>2022-12-30T14:16:58.356Z</time>
      </trkpt>
      <trkpt lat="44.02373" lon="1.16163">
        <ele>136.900024</ele>
        <time>2022-12-30T14:17:02.343Z</time>
      </trkpt>
      <trkpt lat="44.02369" lon="1.16177">
        <ele>137.025377</ele>
        <time>2022-12-30T14:17:06.349Z</time>
      </trkpt>
      <trkpt lat="44.02366" lon="1.16189">
        <ele>137.135578</ele>
        <time>2022-12-30T14:17:10.341Z</time>
      </trkpt>
      <trkpt lat="44.02359" lon="1.16201">
        <ele>137.149963</ele>
        <time>2022-12-30T14:17:16.355Z</time>
      </trkpt>
      <trkpt lat="44.02352" lon="1.16214">
        <ele>137.121358</ele>
        <time>2022-12-30T14:17:19.344Z</time>
      </trkpt>
      <trkpt lat="44.02345" lon="1.16225">
        <ele>137.093886</ele>
        <time>2022-12-30T14:17:22.342Z</time>
      </trkpt>
      <trkpt lat="44.02344" lon="1.16238">
        <ele>137.069971</ele>
        <time>2022-12-30T14:17:25.349Z</time>
      </trkpt>
      <trkpt lat="44.02342" lon="1.16251">
        <ele>137.047269</ele>
        <time>2022-12-30T14:17:28.342Z</time>
      </trkpt>
      <trkpt lat="44.02339" lon="1.16264">
        <ele>137.021719</ele>
        <time>2022-12-30T14:17:31.359Z</time>
      </trkpt>
      <trkpt lat="44.02334" lon="1.16278">
        <ele>136.994377</ele>
        <time>2022-12-30T14:17:34.358Z</time>
      </trkpt>
      <trkpt lat="44.0233" lon="1.16292">
        <ele>136.966218</ele>
        <time>2022-12-30T14:17:37.361Z</time>
      </trkpt>
      <trkpt lat="44.02324" lon="1.16306">
        <ele>136.938172</ele>
        <time>2022-12-30T14:17:40.353Z</time>
      </trkpt>
      <trkpt lat="44.02318" lon="1.16319">
        <ele>136.909905</ele>
        <time>2022-12-30T14:17:43.352Z</time>
      </trkpt>
      <trkpt lat="44.02313" lon="1.16332">
        <ele>136.88328</ele>
        <time>2022-12-30T14:17:46.365Z</time>
      </trkpt>
      <trkpt lat="44.02307" lon="1.16345">
        <ele>136.854316</ele>
        <time>2022-12-30T14:17:49.360Z</time>
      </trkpt>
      <trkpt lat="44.023" lon="1.16358">
        <ele>136.825695</ele>
        <time>2022-12-30T14:17:52.344Z</time>
      </trkpt>
      <trkpt lat="44.02293" lon="1.16371">
        <ele>136.796797</ele>
        <time>2022-12-30T14:17:55.350Z</time>
      </trkpt>
      <trkpt lat="44.02286" lon="1.16384">
        <ele>136.767275</ele>
        <time>2022-12-30T14:17:58.347Z</time>
      </trkpt>
      <trkpt lat="44.02279" lon="1.16396">
        <ele>136.738642</ele>
        <time>2022-12-30T14:18:01.349Z</time>
      </trkpt>
      <trkpt lat="44.02272" lon="1.16408">
        <ele>136.666961</ele>
        <time>2022-12-30T14:18:04.356Z</time>
      </trkpt>
      <trkpt lat="44.02264" lon="1.16419">
        <ele>136.510356</ele>
        <time>2022-12-30T14:18:07.357Z</time>
      </trkpt>
      <trkpt lat="44.02256" lon="1.16431">
        <ele>136.349571</ele>
        <time>2022-12-30T14:18:10.368Z</time>
      </trkpt>
      <trkpt lat="44.02248" lon="1.16442">
        <ele>136.179717</ele>
        <time>2022-12-30T14:18:13.347Z</time>
      </trkpt>
      <trkpt lat="44.02239" lon="1.16453">
        <ele>136.019939</ele>
        <time>2022-12-30T14:18:16.355Z</time>
      </trkpt>
      <trkpt lat="44.0223" lon="1.16464">
        <ele>135.852768</ele>
        <time>2022-12-30T14:18:19.349Z</time>
      </trkpt>
      <trkpt lat="44.02222" lon="1.16473">
        <ele>135.699564</ele>
        <time>2022-12-30T14:18:22.349Z</time>
      </trkpt>
      <trkpt lat="44.02214" lon="1.16483">
        <ele>135.545717</ele>
        <time>2022-12-30T14:18:25.367Z</time>
      </trkpt>
      <trkpt lat="44.02206" lon="1.16492">
        <ele>135.401566</ele>
        <time>2022-12-30T14:18:28.366Z</time>
      </trkpt>
      <trkpt lat="44.02198" lon="1.16502">
        <ele>135.250077</ele>
        <time>2022-12-30T14:18:31.360Z</time>
      </trkpt>
      <trkpt lat="44.0219" lon="1.16512">
        <ele>135.089204</ele>
        <time>2022-12-30T14:18:34.360Z</time>
      </trkpt>
      <trkpt lat="44.02181" lon="1.16522">
        <ele>134.927512</ele>
        <time>2022-12-30T14:18:37.357Z</time>
      </trkpt>
      <trkpt lat="44.02172" lon="1.16533">
        <ele>134.763414</ele>
        <time>2022-12-30T14:18:40.358Z</time>
      </trkpt>
      <trkpt lat="44.02163" lon="1.16544">
        <ele>134.587639</ele>
        <time>2022-12-30T14:18:43.362Z</time>
      </trkpt>
      <trkpt lat="44.02154" lon="1.16556">
        <ele>134.411084</ele>
        <time>2022-12-30T14:18:46.349Z</time>
      </trkpt>
      <trkpt lat="44.02145" lon="1.16568">
        <ele>134.234621</ele>
        <time>2022-12-30T14:18:49.353Z</time>
      </trkpt>
      <trkpt lat="44.02135" lon="1.16578">
        <ele>134.237946</ele>
        <time>2022-12-30T14:18:52.361Z</time>
      </trkpt>
      <trkpt lat="44.02126" lon="1.16589">
        <ele>134.359596</ele>
        <time>2022-12-30T14:18:55.356Z</time>
      </trkpt>
      <trkpt lat="44.02116" lon="1.166">
        <ele>134.487598</ele>
        <time>2022-12-30T14:18:58.359Z</time>
      </trkpt>
      <trkpt lat="44.02106" lon="1.16613">
        <ele>134.623716</ele>
        <time>2022-12-30T14:19:01.365Z</time>
      </trkpt>
      <trkpt lat="44.02096" lon="1.16624">
        <ele>134.759529</ele>
        <time>2022-12-30T14:19:04.366Z</time>
      </trkpt>
      <trkpt lat="44.02089" lon="1.16633">
        <ele>134.8521</ele>
        <time>2022-12-30T14:19:06.337Z</time>
      </trkpt>
      <trkpt lat="44.02079" lon="1.16645">
        <ele>134.986028</ele>
        <time>2022-12-30T14:19:09.404Z</time>
      </trkpt>
      <trkpt lat="44.02069" lon="1.16656">
        <ele>135.118407</ele>
        <time>2022-12-30T14:19:12.361Z</time>
      </trkpt>
      <trkpt lat="44.0206" lon="1.16668">
        <ele>135.243608</ele>
        <time>2022-12-30T14:19:15.337Z</time>
      </trkpt>
      <trkpt lat="44.02049" lon="1.16679">
        <ele>135.378634</ele>
        <time>2022-12-30T14:19:18.346Z</time>
      </trkpt>
      <trkpt lat="44.0204" lon="1.16691">
        <ele>135.51245</ele>
        <time>2022-12-30T14:19:21.364Z</time>
      </trkpt>
      <trkpt lat="44.02033" lon="1.167">
        <ele>135.606758</ele>
        <time>2022-12-30T14:19:23.360Z</time>
      </trkpt>
      <trkpt lat="44.02026" lon="1.16708">
        <ele>135.698618</ele>
        <time>2022-12-30T14:19:25.351Z</time>
      </trkpt>
      <trkpt lat="44.02019" lon="1.16717">
        <ele>135.795459</ele>
        <time>2022-12-30T14:19:27.347Z</time>
      </trkpt>
      <trkpt lat="44.02011" lon="1.16725">
        <ele>135.890982</ele>
        <time>2022-12-30T14:19:29.339Z</time>
      </trkpt>
      <trkpt lat="44.02001" lon="1.16737">
        <ele>135.981415</ele>
        <time>2022-12-30T14:19:32.357Z</time>
      </trkpt>
      <trkpt lat="44.01991" lon="1.16749">
        <ele>135.94715</ele>
        <time>2022-12-30T14:19:35.344Z</time>
      </trkpt>
      <trkpt lat="44.01981" lon="1.16761">
        <ele>135.91321</ele>
        <time>2022-12-30T14:19:38.357Z</time>
      </trkpt>
      <trkpt lat="44.01972" lon="1.16772">
        <ele>135.881208</ele>
        <time>2022-12-30T14:19:41.345Z</time>
      </trkpt>
      <trkpt lat="44.01962" lon="1.16784">
        <ele>135.848401</ele>
        <time>2022-12-30T14:19:44.352Z</time>
      </trkpt>
      <trkpt lat="44.01952" lon="1.16796">
        <ele>135.813583</ele>
        <time>2022-12-30T14:19:47.358Z</time>
      </trkpt>
      <trkpt lat="44.01942" lon="1.16808">
        <ele>135.780234</ele>
        <time>2022-12-30T14:19:50.341Z</time>
      </trkpt>
      <trkpt lat="44.01935" lon="1.16816">
        <ele>135.756209</ele>
        <time>2022-12-30T14:19:52.347Z</time>
      </trkpt>
      <trkpt lat="44.01928" lon="1.16825">
        <ele>135.731878</ele>
        <time>2022-12-30T14:19:54.354Z</time>
      </trkpt>
      <trkpt lat="44.01921" lon="1.16833">
        <ele>135.707899</ele>
        <time>2022-12-30T14:19:56.361Z</time>
      </trkpt>
      <trkpt lat="44.01911" lon="1.16845">
        <ele>135.674113</ele>
        <time>2022-12-30T14:19:59.370Z</time>
      </trkpt>
      <trkpt lat="44.01902" lon="1.16856">
        <ele>135.642256</ele>
        <time>2022-12-30T14:20:02.344Z</time>
      </trkpt>
      <trkpt lat="44.01892" lon="1.16868">
        <ele>135.609661</ele>
        <time>2022-12-30T14:20:05.363Z</time>
      </trkpt>
      <trkpt lat="44.01882" lon="1.16879">
        <ele>135.577066</ele>
        <time>2022-12-30T14:20:08.343Z</time>
      </trkpt>
      <trkpt lat="44.01873" lon="1.16891">
        <ele>135.543825</ele>
        <time>2022-12-30T14:20:11.344Z</time>
      </trkpt>
      <trkpt lat="44.01863" lon="1.16903">
        <ele>135.51914</ele>
        <time>2022-12-30T14:20:14.350Z</time>
      </trkpt>
      <trkpt lat="44.01853" lon="1.16914">
        <ele>135.505049</ele>
        <time>2022-12-30T14:20:17.367Z</time>
      </trkpt>
      <trkpt lat="44.01844" lon="1.16925">
        <ele>135.491264</ele>
        <time>2022-12-30T14:20:20.369Z</time>
      </trkpt>
      <trkpt lat="44.01835" lon="1.16936">
        <ele>135.477918</ele>
        <time>2022-12-30T14:20:23.352Z</time>
      </trkpt>
      <trkpt lat="44.01825" lon="1.16947">
        <ele>135.464133</ele>
        <time>2022-12-30T14:20:26.348Z</time>
      </trkpt>
      <trkpt lat="44.01817" lon="1.16958">
        <ele>135.451442</ele>
        <time>2022-12-30T14:20:29.349Z</time>
      </trkpt>
      <trkpt lat="44.01809" lon="1.16966">
        <ele>135.441301</ele>
        <time>2022-12-30T14:20:32.362Z</time>
      </trkpt>
      <trkpt lat="44.01802" lon="1.16975">
        <ele>135.430289</ele>
        <time>2022-12-30T14:20:35.342Z</time>
      </trkpt>
      <trkpt lat="44.01793" lon="1.16988">
        <ele>135.416478</ele>
        <time>2022-12-30T14:20:39.358Z</time>
      </trkpt>
      <trkpt lat="44.01787" lon="1.16996">
        <ele>135.406223</ele>
        <time>2022-12-30T14:20:42.371Z</time>
      </trkpt>
      <trkpt lat="44.01777" lon="1.17008">
        <ele>135.391988</ele>
        <time>2022-12-30T14:20:45.358Z</time>
      </trkpt>
      <trkpt lat="44.01767" lon="1.1702">
        <ele>135.377618</ele>
        <time>2022-12-30T14:20:48.363Z</time>
      </trkpt>
      <trkpt lat="44.01759" lon="1.17031">
        <ele>135.364792</ele>
        <time>2022-12-30T14:20:51.357Z</time>
      </trkpt>
      <trkpt lat="44.01748" lon="1.17043">
        <ele>135.350035</ele>
        <time>2022-12-30T14:20:54.354Z</time>
      </trkpt>
      <trkpt lat="44.01739" lon="1.17054">
        <ele>135.335906</ele>
        <time>2022-12-30T14:20:57.347Z</time>
      </trkpt>
      <trkpt lat="44.01728" lon="1.17066">
        <ele>135.354109</ele>
        <time>2022-12-30T14:21:00.346Z</time>
      </trkpt>
      <trkpt lat="44.01718" lon="1.17077">
        <ele>135.428358</ele>
        <time>2022-12-30T14:21:03.351Z</time>
      </trkpt>
      <trkpt lat="44.01709" lon="1.17088">
        <ele>135.501133</ele>
        <time>2022-12-30T14:21:06.377Z</time>
      </trkpt>
      <trkpt lat="44.01699" lon="1.171">
        <ele>135.574563</ele>
        <time>2022-12-30T14:21:09.362Z</time>
      </trkpt>
      <trkpt lat="44.0169" lon="1.17111">
        <ele>135.648091</ele>
        <time>2022-12-30T14:21:12.369Z</time>
      </trkpt>
      <trkpt lat="44.01681" lon="1.17122">
        <ele>135.716803</ele>
        <time>2022-12-30T14:21:15.348Z</time>
      </trkpt>
      <trkpt lat="44.01671" lon="1.17134">
        <ele>135.793288</ele>
        <time>2022-12-30T14:21:18.376Z</time>
      </trkpt>
      <trkpt lat="44.01661" lon="1.17146">
        <ele>135.867528</ele>
        <time>2022-12-30T14:21:21.362Z</time>
      </trkpt>
      <trkpt lat="44.01651" lon="1.17157">
        <ele>135.943097</ele>
        <time>2022-12-30T14:21:24.352Z</time>
      </trkpt>
      <trkpt lat="44.01641" lon="1.1717">
        <ele>136.020694</ele>
        <time>2022-12-30T14:21:27.360Z</time>
      </trkpt>
      <trkpt lat="44.01634" lon="1.17178">
        <ele>136.076058</ele>
        <time>2022-12-30T14:21:29.361Z</time>
      </trkpt>
      <trkpt lat="44.01624" lon="1.17189">
        <ele>136.148507</ele>
        <time>2022-12-30T14:21:32.343Z</time>
      </trkpt>
      <trkpt lat="44.01616" lon="1.17198">
        <ele>136.209729</ele>
        <time>2022-12-30T14:21:35.379Z</time>
      </trkpt>
      <trkpt lat="44.01607" lon="1.17209">
        <ele>136.276746</ele>
        <time>2022-12-30T14:21:38.354Z</time>
      </trkpt>
      <trkpt lat="44.01598" lon="1.1722">
        <ele>136.347057</ele>
        <time>2022-12-30T14:21:41.347Z</time>
      </trkpt>
      <trkpt lat="44.01588" lon="1.17232">
        <ele>136.420755</ele>
        <time>2022-12-30T14:21:44.355Z</time>
      </trkpt>
      <trkpt lat="44.01579" lon="1.17243">
        <ele>136.491221</ele>
        <time>2022-12-30T14:21:47.359Z</time>
      </trkpt>
      <trkpt lat="44.01569" lon="1.17254">
        <ele>136.560481</ele>
        <time>2022-12-30T14:21:50.347Z</time>
      </trkpt>
      <trkpt lat="44.0156" lon="1.17265">
        <ele>136.628959</ele>
        <time>2022-12-30T14:21:53.351Z</time>
      </trkpt>
      <trkpt lat="44.01552" lon="1.17276">
        <ele>136.69388</ele>
        <time>2022-12-30T14:21:56.343Z</time>
      </trkpt>
      <trkpt lat="44.01543" lon="1.17286">
        <ele>136.758753</ele>
        <time>2022-12-30T14:21:59.365Z</time>
      </trkpt>
      <trkpt lat="44.01535" lon="1.17295">
        <ele>136.813904</ele>
        <time>2022-12-30T14:22:02.347Z</time>
      </trkpt>
      <trkpt lat="44.01528" lon="1.17303">
        <ele>136.866171</ele>
        <time>2022-12-30T14:22:05.345Z</time>
      </trkpt>
      <trkpt lat="44.01519" lon="1.17313">
        <ele>136.927011</ele>
        <time>2022-12-30T14:22:09.358Z</time>
      </trkpt>
      <trkpt lat="44.01505" lon="1.17318">
        <ele>137.012634</ele>
        <time>2022-12-30T14:22:35.348Z</time>
      </trkpt>
      <trkpt lat="44.01499" lon="1.17329">
        <ele>137.067594</ele>
        <time>2022-12-30T14:22:40.348Z</time>
      </trkpt>
      <trkpt lat="44.01496" lon="1.17342">
        <ele>137.12089</ele>
        <time>2022-12-30T14:22:44.349Z</time>
      </trkpt>
      <trkpt lat="44.01488" lon="1.17351">
        <ele>137.175672</ele>
        <time>2022-12-30T14:22:48.355Z</time>
      </trkpt>
      <trkpt lat="44.01481" lon="1.1736">
        <ele>137.227586</ele>
        <time>2022-12-30T14:22:51.369Z</time>
      </trkpt>
      <trkpt lat="44.01474" lon="1.17369">
        <ele>137.284304</ele>
        <time>2022-12-30T14:22:54.347Z</time>
      </trkpt>
      <trkpt lat="44.01465" lon="1.17378">
        <ele>137.345341</ele>
        <time>2022-12-30T14:22:57.374Z</time>
      </trkpt>
      <trkpt lat="44.01456" lon="1.1739">
        <ele>137.378473</ele>
        <time>2022-12-30T14:23:00.352Z</time>
      </trkpt>
      <trkpt lat="44.01449" lon="1.17398">
        <ele>137.379006</ele>
        <time>2022-12-30T14:23:02.343Z</time>
      </trkpt>
      <trkpt lat="44.01439" lon="1.1741">
        <ele>137.379764</ele>
        <time>2022-12-30T14:23:05.370Z</time>
      </trkpt>
      <trkpt lat="44.0143" lon="1.17421">
        <ele>137.38048</ele>
        <time>2022-12-30T14:23:08.368Z</time>
      </trkpt>
      <trkpt lat="44.0142" lon="1.17433">
        <ele>137.381227</ele>
        <time>2022-12-30T14:23:11.356Z</time>
      </trkpt>
      <trkpt lat="44.0141" lon="1.17444">
        <ele>137.381973</ele>
        <time>2022-12-30T14:23:14.351Z</time>
      </trkpt>
      <trkpt lat="44.01403" lon="1.17453">
        <ele>137.382496</ele>
        <time>2022-12-30T14:23:16.341Z</time>
      </trkpt>
      <trkpt lat="44.01393" lon="1.17464">
        <ele>137.383245</ele>
        <time>2022-12-30T14:23:19.353Z</time>
      </trkpt>
      <trkpt lat="44.01384" lon="1.17476">
        <ele>137.383967</ele>
        <time>2022-12-30T14:23:22.356Z</time>
      </trkpt>
      <trkpt lat="44.01374" lon="1.17489">
        <ele>137.384734</ele>
        <time>2022-12-30T14:23:25.349Z</time>
      </trkpt>
      <trkpt lat="44.01368" lon="1.17497">
        <ele>137.385263</ele>
        <time>2022-12-30T14:23:27.347Z</time>
      </trkpt>
      <trkpt lat="44.01358" lon="1.17508">
        <ele>137.385999</ele>
        <time>2022-12-30T14:23:30.351Z</time>
      </trkpt>
      <trkpt lat="44.01348" lon="1.17521">
        <ele>137.386756</ele>
        <time>2022-12-30T14:23:33.357Z</time>
      </trkpt>
      <trkpt lat="44.01339" lon="1.17532">
        <ele>137.387494</ele>
        <time>2022-12-30T14:23:36.358Z</time>
      </trkpt>
      <trkpt lat="44.01329" lon="1.17544">
        <ele>137.388213</ele>
        <time>2022-12-30T14:23:39.352Z</time>
      </trkpt>
      <trkpt lat="44.01321" lon="1.17556">
        <ele>137.421775</ele>
        <time>2022-12-30T14:23:42.366Z</time>
      </trkpt>
      <trkpt lat="44.01311" lon="1.17568">
        <ele>137.480517</ele>
        <time>2022-12-30T14:23:45.344Z</time>
      </trkpt>
      <trkpt lat="44.01301" lon="1.17579">
        <ele>137.536992</ele>
        <time>2022-12-30T14:23:48.347Z</time>
      </trkpt>
      <trkpt lat="44.01291" lon="1.17591">
        <ele>137.595943</ele>
        <time>2022-12-30T14:23:51.342Z</time>
      </trkpt>
      <trkpt lat="44.01282" lon="1.17602">
        <ele>137.64961</ele>
        <time>2022-12-30T14:23:54.350Z</time>
      </trkpt>
      <trkpt lat="44.01272" lon="1.17614">
        <ele>137.708648</ele>
        <time>2022-12-30T14:23:57.358Z</time>
      </trkpt>
      <trkpt lat="44.01262" lon="1.17626">
        <ele>137.767522</ele>
        <time>2022-12-30T14:24:00.372Z</time>
      </trkpt>
      <trkpt lat="44.01253" lon="1.17636">
        <ele>137.818041</ele>
        <time>2022-12-30T14:24:03.355Z</time>
      </trkpt>
      <trkpt lat="44.01244" lon="1.17646">
        <ele>137.868997</ele>
        <time>2022-12-30T14:24:06.344Z</time>
      </trkpt>
      <trkpt lat="44.01236" lon="1.17657">
        <ele>137.921477</ele>
        <time>2022-12-30T14:24:09.346Z</time>
      </trkpt>
      <trkpt lat="44.01227" lon="1.17667">
        <ele>137.97295</ele>
        <time>2022-12-30T14:24:12.338Z</time>
      </trkpt>
      <trkpt lat="44.01219" lon="1.17678">
        <ele>138.020957</ele>
        <time>2022-12-30T14:24:15.366Z</time>
      </trkpt>
      <trkpt lat="44.0121" lon="1.17688">
        <ele>138.071334</ele>
        <time>2022-12-30T14:24:18.346Z</time>
      </trkpt>
      <trkpt lat="44.01201" lon="1.17698">
        <ele>138.122807</ele>
        <time>2022-12-30T14:24:21.345Z</time>
      </trkpt>
      <trkpt lat="44.01192" lon="1.17709">
        <ele>138.175654</ele>
        <time>2022-12-30T14:24:24.356Z</time>
      </trkpt>
      <trkpt lat="44.01183" lon="1.17719">
        <ele>138.161032</ele>
        <time>2022-12-30T14:24:27.340Z</time>
      </trkpt>
      <trkpt lat="44.01175" lon="1.1773">
        <ele>138.118276</ele>
        <time>2022-12-30T14:24:30.345Z</time>
      </trkpt>
      <trkpt lat="44.01166" lon="1.1774">
        <ele>138.07545</ele>
        <time>2022-12-30T14:24:33.354Z</time>
      </trkpt>
      <trkpt lat="44.01157" lon="1.17752">
        <ele>138.030464</ele>
        <time>2022-12-30T14:24:36.365Z</time>
      </trkpt>
      <trkpt lat="44.01148" lon="1.17763">
        <ele>137.987107</ele>
        <time>2022-12-30T14:24:39.373Z</time>
      </trkpt>
      <trkpt lat="44.01139" lon="1.17774">
        <ele>137.942021</ele>
        <time>2022-12-30T14:24:42.351Z</time>
      </trkpt>
      <trkpt lat="44.01129" lon="1.17785">
        <ele>137.894794</ele>
        <time>2022-12-30T14:24:45.345Z</time>
      </trkpt>
      <trkpt lat="44.01119" lon="1.17796">
        <ele>137.846872</ele>
        <time>2022-12-30T14:24:48.344Z</time>
      </trkpt>
      <trkpt lat="44.01109" lon="1.17808">
        <ele>137.799274</ele>
        <time>2022-12-30T14:24:51.362Z</time>
      </trkpt>
      <trkpt lat="44.01099" lon="1.17819">
        <ele>137.752954</ele>
        <time>2022-12-30T14:24:54.346Z</time>
      </trkpt>
      <trkpt lat="44.0109" lon="1.17831">
        <ele>137.706161</ele>
        <time>2022-12-30T14:24:57.360Z</time>
      </trkpt>
      <trkpt lat="44.0108" lon="1.17843">
        <ele>137.658289</ele>
        <time>2022-12-30T14:25:00.344Z</time>
      </trkpt>
      <trkpt lat="44.0107" lon="1.17855">
        <ele>137.610553</ele>
        <time>2022-12-30T14:25:03.336Z</time>
      </trkpt>
      <trkpt lat="44.01061" lon="1.17867">
        <ele>137.563031</ele>
        <time>2022-12-30T14:25:06.337Z</time>
      </trkpt>
      <trkpt lat="44.01051" lon="1.17878">
        <ele>137.521514</ele>
        <time>2022-12-30T14:25:09.362Z</time>
      </trkpt>
      <trkpt lat="44.01042" lon="1.17889">
        <ele>137.498174</ele>
        <time>2022-12-30T14:25:12.336Z</time>
      </trkpt>
      <trkpt lat="44.01034" lon="1.17899">
        <ele>137.476458</ele>
        <time>2022-12-30T14:25:15.334Z</time>
      </trkpt>
      <trkpt lat="44.01025" lon="1.17909">
        <ele>137.453479</ele>
        <time>2022-12-30T14:25:18.338Z</time>
      </trkpt>
      <trkpt lat="44.01016" lon="1.1792">
        <ele>137.430048</ele>
        <time>2022-12-30T14:25:21.349Z</time>
      </trkpt>
      <trkpt lat="44.01006" lon="1.17931">
        <ele>137.405707</ele>
        <time>2022-12-30T14:25:24.343Z</time>
      </trkpt>
      <trkpt lat="44.00997" lon="1.17942">
        <ele>137.381424</ele>
        <time>2022-12-30T14:25:27.347Z</time>
      </trkpt>
      <trkpt lat="44.00987" lon="1.17953">
        <ele>137.357161</ele>
        <time>2022-12-30T14:25:30.336Z</time>
      </trkpt>
      <trkpt lat="44.00978" lon="1.17964">
        <ele>137.333696</ele>
        <time>2022-12-30T14:25:33.350Z</time>
      </trkpt>
      <trkpt lat="44.00969" lon="1.17974">
        <ele>137.310264</ele>
        <time>2022-12-30T14:25:36.373Z</time>
      </trkpt>
      <trkpt lat="44.00959" lon="1.17982">
        <ele>137.287467</ele>
        <time>2022-12-30T14:25:39.351Z</time>
      </trkpt>
      <trkpt lat="44.00952" lon="1.17991">
        <ele>137.268882</ele>
        <time>2022-12-30T14:25:42.346Z</time>
      </trkpt>
      <trkpt lat="44.00945" lon="1.18002">
        <ele>137.248292</ele>
        <time>2022-12-30T14:25:45.380Z</time>
      </trkpt>
      <trkpt lat="44.00936" lon="1.18012">
        <ele>137.225195</ele>
        <time>2022-12-30T14:25:48.349Z</time>
      </trkpt>
      <trkpt lat="44.00927" lon="1.18024">
        <ele>137.200199</ele>
        <time>2022-12-30T14:25:51.334Z</time>
      </trkpt>
      <trkpt lat="44.00917" lon="1.18036">
        <ele>137.174771</ele>
        <time>2022-12-30T14:25:54.339Z</time>
      </trkpt>
      <trkpt lat="44.00907" lon="1.18048">
        <ele>137.204192</ele>
        <time>2022-12-30T14:25:57.341Z</time>
      </trkpt>
      <trkpt lat="44.00897" lon="1.1806">
        <ele>137.237301</ele>
        <time>2022-12-30T14:26:00.349Z</time>
      </trkpt>
      <trkpt lat="44.00887" lon="1.18072">
        <ele>137.270631</ele>
        <time>2022-12-30T14:26:03.344Z</time>
      </trkpt>
      <trkpt lat="44.00881" lon="1.1808">
        <ele>137.293204</ele>
        <time>2022-12-30T14:26:05.354Z</time>
      </trkpt>
      <trkpt lat="44.0087" lon="1.18092">
        <ele>137.326969</ele>
        <time>2022-12-30T14:26:08.342Z</time>
      </trkpt>
      <trkpt lat="44.0086" lon="1.18104">
        <ele>137.36023</ele>
        <time>2022-12-30T14:26:11.355Z</time>
      </trkpt>
      <trkpt lat="44.0085" lon="1.18115">
        <ele>137.391915</ele>
        <time>2022-12-30T14:26:14.337Z</time>
      </trkpt>
      <trkpt lat="44.00841" lon="1.18126">
        <ele>137.423515</ele>
        <time>2022-12-30T14:26:17.347Z</time>
      </trkpt>
      <trkpt lat="44.00831" lon="1.18138">
        <ele>137.456007</ele>
        <time>2022-12-30T14:26:20.361Z</time>
      </trkpt>
      <trkpt lat="44.00821" lon="1.18151">
        <ele>137.48946</ele>
        <time>2022-12-30T14:26:23.359Z</time>
      </trkpt>
      <trkpt lat="44.00811" lon="1.18162">
        <ele>137.522153</ele>
        <time>2022-12-30T14:26:26.360Z</time>
      </trkpt>
      <trkpt lat="44.00801" lon="1.18173">
        <ele>137.55441</ele>
        <time>2022-12-30T14:26:29.350Z</time>
      </trkpt>
      <trkpt lat="44.00791" lon="1.18185">
        <ele>137.586515</ele>
        <time>2022-12-30T14:26:32.342Z</time>
      </trkpt>
      <trkpt lat="44.00781" lon="1.18197">
        <ele>137.620219</ele>
        <time>2022-12-30T14:26:35.347Z</time>
      </trkpt>
      <trkpt lat="44.00771" lon="1.18209">
        <ele>137.663952</ele>
        <time>2022-12-30T14:26:38.351Z</time>
      </trkpt>
      <trkpt lat="44.00762" lon="1.18221">
        <ele>137.707605</ele>
        <time>2022-12-30T14:26:41.346Z</time>
      </trkpt>
      <trkpt lat="44.00752" lon="1.18233">
        <ele>137.750597</ele>
        <time>2022-12-30T14:26:44.353Z</time>
      </trkpt>
      <trkpt lat="44.00744" lon="1.18243">
        <ele>137.789795</ele>
        <time>2022-12-30T14:26:47.352Z</time>
      </trkpt>
      <trkpt lat="44.00735" lon="1.18254">
        <ele>137.83045</ele>
        <time>2022-12-30T14:26:50.345Z</time>
      </trkpt>
      <trkpt lat="44.00726" lon="1.18265">
        <ele>137.871122</ele>
        <time>2022-12-30T14:26:53.350Z</time>
      </trkpt>
      <trkpt lat="44.00717" lon="1.18276">
        <ele>137.910286</ele>
        <time>2022-12-30T14:26:56.361Z</time>
      </trkpt>
      <trkpt lat="44.00708" lon="1.18288">
        <ele>137.953689</ele>
        <time>2022-12-30T14:26:59.346Z</time>
      </trkpt>
      <trkpt lat="44.00698" lon="1.18299">
        <ele>137.995715</ele>
        <time>2022-12-30T14:27:02.346Z</time>
      </trkpt>
      <trkpt lat="44.00689" lon="1.1831">
        <ele>138.037063</ele>
        <time>2022-12-30T14:27:05.358Z</time>
      </trkpt>
      <trkpt lat="44.0068" lon="1.18321">
        <ele>138.079667</ele>
        <time>2022-12-30T14:27:08.348Z</time>
      </trkpt>
      <trkpt lat="44.0067" lon="1.18334">
        <ele>138.124492</ele>
        <time>2022-12-30T14:27:11.361Z</time>
      </trkpt>
      <trkpt lat="44.0066" lon="1.18346">
        <ele>138.169572</ele>
        <time>2022-12-30T14:27:14.355Z</time>
      </trkpt>
      <trkpt lat="44.0065" lon="1.18357">
        <ele>138.213533</ele>
        <time>2022-12-30T14:27:17.344Z</time>
      </trkpt>
      <trkpt lat="44.0064" lon="1.18369">
        <ele>138.239885</ele>
        <time>2022-12-30T14:27:20.343Z</time>
      </trkpt>
      <trkpt lat="44.0063" lon="1.18381">
        <ele>138.243299</ele>
        <time>2022-12-30T14:27:23.366Z</time>
      </trkpt>
      <trkpt lat="44.00621" lon="1.18392">
        <ele>138.246618</ele>
        <time>2022-12-30T14:27:26.363Z</time>
      </trkpt>
      <trkpt lat="44.00611" lon="1.18403">
        <ele>138.249904</ele>
        <time>2022-12-30T14:27:29.346Z</time>
      </trkpt>
      <trkpt lat="44.00601" lon="1.18415">
        <ele>138.253275</ele>
        <time>2022-12-30T14:27:32.352Z</time>
      </trkpt>
      <trkpt lat="44.00592" lon="1.18426">
        <ele>138.256526</ele>
        <time>2022-12-30T14:27:35.337Z</time>
      </trkpt>
      <trkpt lat="44.00583" lon="1.18436">
        <ele>138.259575</ele>
        <time>2022-12-30T14:27:38.344Z</time>
      </trkpt>
      <trkpt lat="44.00574" lon="1.18446">
        <ele>138.262479</ele>
        <time>2022-12-30T14:27:41.348Z</time>
      </trkpt>
      <trkpt lat="44.00565" lon="1.18455">
        <ele>138.265411</ele>
        <time>2022-12-30T14:27:44.354Z</time>
      </trkpt>
      <trkpt lat="44.00557" lon="1.18462">
        <ele>138.268031</ele>
        <time>2022-12-30T14:27:47.370Z</time>
      </trkpt>
      <trkpt lat="44.0055" lon="1.18472">
        <ele>138.270444</ele>
        <time>2022-12-30T14:27:50.349Z</time>
      </trkpt>
      <trkpt lat="44.00542" lon="1.18484">
        <ele>138.27368</ele>
        <time>2022-12-30T14:27:54.355Z</time>
      </trkpt>
      <trkpt lat="44.00535" lon="1.18493">
        <ele>138.276301</ele>
        <time>2022-12-30T14:27:57.338Z</time>
      </trkpt>
      <trkpt lat="44.00528" lon="1.18503">
        <ele>138.278869</ele>
        <time>2022-12-30T14:28:00.361Z</time>
      </trkpt>
      <trkpt lat="44.0052" lon="1.18512">
        <ele>138.281562</ele>
        <time>2022-12-30T14:28:03.342Z</time>
      </trkpt>
      <trkpt lat="44.00512" lon="1.18521">
        <ele>138.2842</ele>
        <time>2022-12-30T14:28:06.346Z</time>
      </trkpt>
      <trkpt lat="44.00504" lon="1.18531">
        <ele>138.303259</ele>
        <time>2022-12-30T14:28:09.351Z</time>
      </trkpt>
      <trkpt lat="44.00497" lon="1.1854">
        <ele>138.337709</ele>
        <time>2022-12-30T14:28:12.359Z</time>
      </trkpt>
      <trkpt lat="44.00488" lon="1.18549">
        <ele>138.373994</ele>
        <time>2022-12-30T14:28:15.350Z</time>
      </trkpt>
      <trkpt lat="44.0048" lon="1.18559">
        <ele>138.410074</ele>
        <time>2022-12-30T14:28:18.361Z</time>
      </trkpt>
      <trkpt lat="44.00472" lon="1.18569">
        <ele>138.446895</ele>
        <time>2022-12-30T14:28:21.347Z</time>
      </trkpt>
      <trkpt lat="44.00464" lon="1.18579">
        <ele>138.484625</ele>
        <time>2022-12-30T14:28:24.365Z</time>
      </trkpt>
      <trkpt lat="44.00456" lon="1.18589">
        <ele>138.522699</ele>
        <time>2022-12-30T14:28:27.355Z</time>
      </trkpt>
      <trkpt lat="44.00447" lon="1.186">
        <ele>138.562012</ele>
        <time>2022-12-30T14:28:30.363Z</time>
      </trkpt>
      <trkpt lat="44.00438" lon="1.1861">
        <ele>138.601128</ele>
        <time>2022-12-30T14:28:33.360Z</time>
      </trkpt>
      <trkpt lat="44.00429" lon="1.18621">
        <ele>138.642621</ele>
        <time>2022-12-30T14:28:36.357Z</time>
      </trkpt>
      <trkpt lat="44.0042" lon="1.18632">
        <ele>138.684468</ele>
        <time>2022-12-30T14:28:39.351Z</time>
      </trkpt>
      <trkpt lat="44.00411" lon="1.18643">
        <ele>138.725158</ele>
        <time>2022-12-30T14:28:42.337Z</time>
      </trkpt>
      <trkpt lat="44.00401" lon="1.18654">
        <ele>138.767423</ele>
        <time>2022-12-30T14:28:45.340Z</time>
      </trkpt>
      <trkpt lat="44.00392" lon="1.18665">
        <ele>138.807755</ele>
        <time>2022-12-30T14:28:48.354Z</time>
      </trkpt>
      <trkpt lat="44.00383" lon="1.18676">
        <ele>138.850021</ele>
        <time>2022-12-30T14:28:51.351Z</time>
      </trkpt>
      <trkpt lat="44.00374" lon="1.18687">
        <ele>138.892287</ele>
        <time>2022-12-30T14:28:54.351Z</time>
      </trkpt>
      <trkpt lat="44.00364" lon="1.18699">
        <ele>138.865077</ele>
        <time>2022-12-30T14:28:57.344Z</time>
      </trkpt>
      <trkpt lat="44.00355" lon="1.1871">
        <ele>138.82542</ele>
        <time>2022-12-30T14:29:00.347Z</time>
      </trkpt>
      <trkpt lat="44.00346" lon="1.18722">
        <ele>138.78594</ele>
        <time>2022-12-30T14:29:03.341Z</time>
      </trkpt>
      <trkpt lat="44.00336" lon="1.18733">
        <ele>138.74713</ele>
        <time>2022-12-30T14:29:06.365Z</time>
      </trkpt>
      <trkpt lat="44.00327" lon="1.18744">
        <ele>138.706984</ele>
        <time>2022-12-30T14:29:09.356Z</time>
      </trkpt>
      <trkpt lat="44.00318" lon="1.18755">
        <ele>138.667965</ele>
        <time>2022-12-30T14:29:12.342Z</time>
      </trkpt>
      <trkpt lat="44.00308" lon="1.18766">
        <ele>138.627076</ele>
        <time>2022-12-30T14:29:15.365Z</time>
      </trkpt>
      <trkpt lat="44.00298" lon="1.18778">
        <ele>138.584436</ele>
        <time>2022-12-30T14:29:18.366Z</time>
      </trkpt>
      <trkpt lat="44.00288" lon="1.18791">
        <ele>138.54116</ele>
        <time>2022-12-30T14:29:21.342Z</time>
      </trkpt>
      <trkpt lat="44.00278" lon="1.18802">
        <ele>138.501013</ele>
        <time>2022-12-30T14:29:24.354Z</time>
      </trkpt>
      <trkpt lat="44.00269" lon="1.18813">
        <ele>138.459432</ele>
        <time>2022-12-30T14:29:27.362Z</time>
      </trkpt>
      <trkpt lat="44.00258" lon="1.18825">
        <ele>138.417207</ele>
        <time>2022-12-30T14:29:30.341Z</time>
      </trkpt>
      <trkpt lat="44.00252" lon="1.18833">
        <ele>138.387888</ele>
        <time>2022-12-30T14:29:32.358Z</time>
      </trkpt>
      <trkpt lat="44.00242" lon="1.18845">
        <ele>138.345402</ele>
        <time>2022-12-30T14:29:35.345Z</time>
      </trkpt>
      <trkpt lat="44.00233" lon="1.18857">
        <ele>138.302109</ele>
        <time>2022-12-30T14:29:38.358Z</time>
      </trkpt>
      <trkpt lat="44.00225" lon="1.18866">
        <ele>138.258131</ele>
        <time>2022-12-30T14:29:41.341Z</time>
      </trkpt>
      <trkpt lat="44.00217" lon="1.18874">
        <ele>138.218841</ele>
        <time>2022-12-30T14:29:44.342Z</time>
      </trkpt>
      <trkpt lat="44.0021" lon="1.18882">
        <ele>138.178848</ele>
        <time>2022-12-30T14:29:47.350Z</time>
      </trkpt>
      <trkpt lat="44.00201" lon="1.18893">
        <ele>138.132102</ele>
        <time>2022-12-30T14:29:50.345Z</time>
      </trkpt>
      <trkpt lat="44.00193" lon="1.18903">
        <ele>138.083101</ele>
        <time>2022-12-30T14:29:53.347Z</time>
      </trkpt>
      <trkpt lat="44.00184" lon="1.18914">
        <ele>138.033783</ele>
        <time>2022-12-30T14:29:56.333Z</time>
      </trkpt>
      <trkpt lat="44.00175" lon="1.18925">
        <ele>137.983869</ele>
        <time>2022-12-30T14:29:59.344Z</time>
      </trkpt>
      <trkpt lat="44.00165" lon="1.18936">
        <ele>137.931466</ele>
        <time>2022-12-30T14:30:02.351Z</time>
      </trkpt>
      <trkpt lat="44.00156" lon="1.18947">
        <ele>137.880482</ele>
        <time>2022-12-30T14:30:05.338Z</time>
      </trkpt>
      <trkpt lat="44.00146" lon="1.18959">
        <ele>137.827367</ele>
        <time>2022-12-30T14:30:08.367Z</time>
      </trkpt>
      <trkpt lat="44.00137" lon="1.1897">
        <ele>137.775597</ele>
        <time>2022-12-30T14:30:11.365Z</time>
      </trkpt>
      <trkpt lat="44.00129" lon="1.18981">
        <ele>137.727845</ele>
        <time>2022-12-30T14:30:14.342Z</time>
      </trkpt>
      <trkpt lat="44.0012" lon="1.18992">
        <ele>137.678958</ele>
        <time>2022-12-30T14:30:17.360Z</time>
      </trkpt>
      <trkpt lat="44.00111" lon="1.19002">
        <ele>137.630742</ele>
        <time>2022-12-30T14:30:20.348Z</time>
      </trkpt>
      <trkpt lat="44.00102" lon="1.19012">
        <ele>137.581817</ele>
        <time>2022-12-30T14:30:23.337Z</time>
      </trkpt>
      <trkpt lat="44.00093" lon="1.19024">
        <ele>137.521062</ele>
        <time>2022-12-30T14:30:26.361Z</time>
      </trkpt>
      <trkpt lat="44.00083" lon="1.19036">
        <ele>137.45373</ele>
        <time>2022-12-30T14:30:29.357Z</time>
      </trkpt>
      <trkpt lat="44.00073" lon="1.19046">
        <ele>137.389564</ele>
        <time>2022-12-30T14:30:32.377Z</time>
      </trkpt>
      <trkpt lat="44.00063" lon="1.19058">
        <ele>137.321817</ele>
        <time>2022-12-30T14:30:35.358Z</time>
      </trkpt>
      <trkpt lat="44.00054" lon="1.19068">
        <ele>137.259088</ele>
        <time>2022-12-30T14:30:38.348Z</time>
      </trkpt>
      <trkpt lat="44.00045" lon="1.19079">
        <ele>137.200478</ele>
        <time>2022-12-30T14:30:41.364Z</time>
      </trkpt>
      <trkpt lat="44.00037" lon="1.19089">
        <ele>137.145313</ele>
        <time>2022-12-30T14:30:44.353Z</time>
      </trkpt>
      <trkpt lat="44.0003" lon="1.19097">
        <ele>137.095667</ele>
        <time>2022-12-30T14:30:47.353Z</time>
      </trkpt>
      <trkpt lat="44.00022" lon="1.19107">
        <ele>137.04149</ele>
        <time>2022-12-30T14:30:50.353Z</time>
      </trkpt>
      <trkpt lat="44.00013" lon="1.19117">
        <ele>136.982171</ele>
        <time>2022-12-30T14:30:53.360Z</time>
      </trkpt>
      <trkpt lat="44.00003" lon="1.19128">
        <ele>136.916605</ele>
        <time>2022-12-30T14:30:56.362Z</time>
      </trkpt>
      <trkpt lat="43.99993" lon="1.1914">
        <ele>136.850195</ele>
        <time>2022-12-30T14:30:59.344Z</time>
      </trkpt>
      <trkpt lat="43.99986" lon="1.19148">
        <ele>136.803007</ele>
        <time>2022-12-30T14:31:01.350Z</time>
      </trkpt>
      <trkpt lat="43.99979" lon="1.19156">
        <ele>136.755503</ele>
        <time>2022-12-30T14:31:03.365Z</time>
      </trkpt>
      <trkpt lat="43.99969" lon="1.19168">
        <ele>136.685635</ele>
        <time>2022-12-30T14:31:06.346Z</time>
      </trkpt>
      <trkpt lat="43.99962" lon="1.19177">
        <ele>136.636465</ele>
        <time>2022-12-30T14:31:08.341Z</time>
      </trkpt>
      <trkpt lat="43.99954" lon="1.19185">
        <ele>136.575744</ele>
        <time>2022-12-30T14:31:10.358Z</time>
      </trkpt>
      <trkpt lat="43.99948" lon="1.19194">
        <ele>136.518504</ele>
        <time>2022-12-30T14:31:12.346Z</time>
      </trkpt>
      <trkpt lat="43.99937" lon="1.19206">
        <ele>136.435984</ele>
        <time>2022-12-30T14:31:15.360Z</time>
      </trkpt>
      <trkpt lat="43.9993" lon="1.19214">
        <ele>136.379765</ele>
        <time>2022-12-30T14:31:17.359Z</time>
      </trkpt>
      <trkpt lat="43.99923" lon="1.19222">
        <ele>136.322963</ele>
        <time>2022-12-30T14:31:19.357Z</time>
      </trkpt>
      <trkpt lat="43.99916" lon="1.1923">
        <ele>136.265304</ele>
        <time>2022-12-30T14:31:21.349Z</time>
      </trkpt>
      <trkpt lat="43.99909" lon="1.19239">
        <ele>136.207555</ele>
        <time>2022-12-30T14:31:23.372Z</time>
      </trkpt>
      <trkpt lat="43.99902" lon="1.19247">
        <ele>136.148563</ele>
        <time>2022-12-30T14:31:25.373Z</time>
      </trkpt>
      <trkpt lat="43.99895" lon="1.19256">
        <ele>136.088902</ele>
        <time>2022-12-30T14:31:27.344Z</time>
      </trkpt>
      <trkpt lat="43.99888" lon="1.19265">
        <ele>136.029984</ele>
        <time>2022-12-30T14:31:29.370Z</time>
      </trkpt>
      <trkpt lat="43.99881" lon="1.19273">
        <ele>135.971362</ele>
        <time>2022-12-30T14:31:31.361Z</time>
      </trkpt>
      <trkpt lat="43.99873" lon="1.19282">
        <ele>135.910785</ele>
        <time>2022-12-30T14:31:33.343Z</time>
      </trkpt>
      <trkpt lat="43.99866" lon="1.1929">
        <ele>135.854657</ele>
        <time>2022-12-30T14:31:35.365Z</time>
      </trkpt>
      <trkpt lat="43.99859" lon="1.19299">
        <ele>135.796328</ele>
        <time>2022-12-30T14:31:37.347Z</time>
      </trkpt>
      <trkpt lat="43.99852" lon="1.19308">
        <ele>135.733122</ele>
        <time>2022-12-30T14:31:39.357Z</time>
      </trkpt>
      <trkpt lat="43.99844" lon="1.19317">
        <ele>135.671619</ele>
        <time>2022-12-30T14:31:41.354Z</time>
      </trkpt>
      <trkpt lat="43.99837" lon="1.19326">
        <ele>135.608121</ele>
        <time>2022-12-30T14:31:43.362Z</time>
      </trkpt>
      <trkpt lat="43.99829" lon="1.19335">
        <ele>135.547499</ele>
        <time>2022-12-30T14:31:45.362Z</time>
      </trkpt>
      <trkpt lat="43.99822" lon="1.19344">
        <ele>135.440276</ele>
        <time>2022-12-30T14:31:47.363Z</time>
      </trkpt>
      <trkpt lat="43.99815" lon="1.19353">
        <ele>135.295492</ele>
        <time>2022-12-30T14:31:49.358Z</time>
      </trkpt>
      <trkpt lat="43.99808" lon="1.19362">
        <ele>135.156208</ele>
        <time>2022-12-30T14:31:51.364Z</time>
      </trkpt>
      <trkpt lat="43.998" lon="1.19371">
        <ele>135.003609</ele>
        <time>2022-12-30T14:31:53.365Z</time>
      </trkpt>
      <trkpt lat="43.99793" lon="1.1938">
        <ele>134.86471</ele>
        <time>2022-12-30T14:31:55.339Z</time>
      </trkpt>
      <trkpt lat="43.99786" lon="1.19389">
        <ele>134.719049</ele>
        <time>2022-12-30T14:31:57.354Z</time>
      </trkpt>
      <trkpt lat="43.99778" lon="1.19397">
        <ele>134.565049</ele>
        <time>2022-12-30T14:31:59.359Z</time>
      </trkpt>
      <trkpt lat="43.99768" lon="1.19409">
        <ele>134.374838</ele>
        <time>2022-12-30T14:32:02.349Z</time>
      </trkpt>
      <trkpt lat="43.99759" lon="1.19419">
        <ele>134.198647</ele>
        <time>2022-12-30T14:32:05.339Z</time>
      </trkpt>
      <trkpt lat="43.99751" lon="1.19429">
        <ele>134.043579</ele>
        <time>2022-12-30T14:32:08.337Z</time>
      </trkpt>
      <trkpt lat="43.99743" lon="1.19438">
        <ele>133.87876</ele>
        <time>2022-12-30T14:32:11.363Z</time>
      </trkpt>
      <trkpt lat="43.99734" lon="1.19449">
        <ele>133.70233</ele>
        <time>2022-12-30T14:32:14.354Z</time>
      </trkpt>
      <trkpt lat="43.99725" lon="1.1946">
        <ele>133.518103</ele>
        <time>2022-12-30T14:32:17.355Z</time>
      </trkpt>
      <trkpt lat="43.99716" lon="1.19471">
        <ele>133.346072</ele>
        <time>2022-12-30T14:32:20.361Z</time>
      </trkpt>
      <trkpt lat="43.99707" lon="1.19481">
        <ele>133.17291</ele>
        <time>2022-12-30T14:32:23.353Z</time>
      </trkpt>
      <trkpt lat="43.99698" lon="1.19493">
        <ele>132.983275</ele>
        <time>2022-12-30T14:32:26.340Z</time>
      </trkpt>
      <trkpt lat="43.99691" lon="1.19501">
        <ele>132.846134</ele>
        <time>2022-12-30T14:32:28.359Z</time>
      </trkpt>
      <trkpt lat="43.99684" lon="1.1951">
        <ele>132.8425</ele>
        <time>2022-12-30T14:32:30.358Z</time>
      </trkpt>
      <trkpt lat="43.99674" lon="1.19521">
        <ele>132.895554</ele>
        <time>2022-12-30T14:32:33.363Z</time>
      </trkpt>
      <trkpt lat="43.99664" lon="1.19534">
        <ele>132.949368</ele>
        <time>2022-12-30T14:32:36.345Z</time>
      </trkpt>
      <trkpt lat="43.99658" lon="1.19542">
        <ele>132.985861</ele>
        <time>2022-12-30T14:32:38.355Z</time>
      </trkpt>
      <trkpt lat="43.99648" lon="1.19554">
        <ele>133.036987</ele>
        <time>2022-12-30T14:32:41.352Z</time>
      </trkpt>
      <trkpt lat="43.99639" lon="1.19566">
        <ele>133.089121</ele>
        <time>2022-12-30T14:32:44.353Z</time>
      </trkpt>
      <trkpt lat="43.99629" lon="1.19578">
        <ele>133.141835</ele>
        <time>2022-12-30T14:32:47.344Z</time>
      </trkpt>
      <trkpt lat="43.99619" lon="1.19589">
        <ele>133.194018</ele>
        <time>2022-12-30T14:32:50.357Z</time>
      </trkpt>
      <trkpt lat="43.9961" lon="1.19602">
        <ele>133.246232</ele>
        <time>2022-12-30T14:32:53.342Z</time>
      </trkpt>
      <trkpt lat="43.996" lon="1.19613">
        <ele>133.296192</ele>
        <time>2022-12-30T14:32:56.357Z</time>
      </trkpt>
      <trkpt lat="43.99592" lon="1.19622">
        <ele>133.338187</ele>
        <time>2022-12-30T14:32:59.342Z</time>
      </trkpt>
      <trkpt lat="43.99585" lon="1.19632">
        <ele>133.38002</ele>
        <time>2022-12-30T14:33:02.342Z</time>
      </trkpt>
      <trkpt lat="43.99576" lon="1.19641">
        <ele>133.424706</ele>
        <time>2022-12-30T14:33:05.341Z</time>
      </trkpt>
      <trkpt lat="43.99566" lon="1.19652">
        <ele>133.474114</ele>
        <time>2022-12-30T14:33:08.359Z</time>
      </trkpt>
      <trkpt lat="43.99557" lon="1.19662">
        <ele>133.524249</ele>
        <time>2022-12-30T14:33:11.340Z</time>
      </trkpt>
      <trkpt lat="43.99547" lon="1.19675">
        <ele>133.613252</ele>
        <time>2022-12-30T14:33:14.345Z</time>
      </trkpt>
      <trkpt lat="43.99538" lon="1.19687">
        <ele>133.72057</ele>
        <time>2022-12-30T14:33:17.367Z</time>
      </trkpt>
      <trkpt lat="43.99531" lon="1.19695">
        <ele>133.797434</ele>
        <time>2022-12-30T14:33:19.356Z</time>
      </trkpt>
      <trkpt lat="43.99523" lon="1.19703">
        <ele>133.878411</ele>
        <time>2022-12-30T14:33:21.360Z</time>
      </trkpt>
      <trkpt lat="43.99516" lon="1.19711">
        <ele>133.956435</ele>
        <time>2022-12-30T14:33:23.344Z</time>
      </trkpt>
      <trkpt lat="43.99509" lon="1.19719">
        <ele>134.036651</ele>
        <time>2022-12-30T14:33:25.369Z</time>
      </trkpt>
      <trkpt lat="43.99502" lon="1.19728">
        <ele>134.114314</ele>
        <time>2022-12-30T14:33:27.366Z</time>
      </trkpt>
      <trkpt lat="43.99495" lon="1.19736">
        <ele>134.191817</ele>
        <time>2022-12-30T14:33:29.354Z</time>
      </trkpt>
      <trkpt lat="43.99488" lon="1.19745">
        <ele>134.269963</ele>
        <time>2022-12-30T14:33:31.361Z</time>
      </trkpt>
      <trkpt lat="43.99478" lon="1.19757">
        <ele>134.382527</ele>
        <time>2022-12-30T14:33:34.363Z</time>
      </trkpt>
      <trkpt lat="43.99468" lon="1.19768">
        <ele>134.489676</ele>
        <time>2022-12-30T14:33:37.361Z</time>
      </trkpt>
      <trkpt lat="43.99461" lon="1.19776">
        <ele>134.565753</ele>
        <time>2022-12-30T14:33:39.356Z</time>
      </trkpt>
      <trkpt lat="43.99453" lon="1.19788">
        <ele>134.663874</ele>
        <time>2022-12-30T14:33:42.361Z</time>
      </trkpt>
      <trkpt lat="43.99445" lon="1.19797">
        <ele>134.753023</ele>
        <time>2022-12-30T14:33:45.357Z</time>
      </trkpt>
      <trkpt lat="43.99436" lon="1.19807">
        <ele>134.845791</ele>
        <time>2022-12-30T14:33:48.346Z</time>
      </trkpt>
      <trkpt lat="43.99428" lon="1.19818">
        <ele>134.941358</ele>
        <time>2022-12-30T14:33:51.359Z</time>
      </trkpt>
      <trkpt lat="43.99419" lon="1.19829">
        <ele>135.040834</ele>
        <time>2022-12-30T14:33:54.361Z</time>
      </trkpt>
      <trkpt lat="43.99409" lon="1.19839">
        <ele>135.326636</ele>
        <time>2022-12-30T14:33:57.350Z</time>
      </trkpt>
      <trkpt lat="43.99401" lon="1.1985">
        <ele>135.627243</ele>
        <time>2022-12-30T14:34:00.363Z</time>
      </trkpt>
      <trkpt lat="43.99392" lon="1.19859">
        <ele>135.90163</ele>
        <time>2022-12-30T14:34:03.363Z</time>
      </trkpt>
      <trkpt lat="43.99385" lon="1.19869">
        <ele>136.171209</ele>
        <time>2022-12-30T14:34:06.339Z</time>
      </trkpt>
      <trkpt lat="43.99377" lon="1.19878">
        <ele>136.432905</ele>
        <time>2022-12-30T14:34:09.364Z</time>
      </trkpt>
      <trkpt lat="43.9937" lon="1.1989">
        <ele>136.718387</ele>
        <time>2022-12-30T14:34:13.345Z</time>
      </trkpt>
      <trkpt lat="43.99363" lon="1.19898">
        <ele>136.952333</ele>
        <time>2022-12-30T14:34:17.348Z</time>
      </trkpt>
      <trkpt lat="43.99354" lon="1.19906">
        <ele>137.215416</ele>
        <time>2022-12-30T14:34:23.345Z</time>
      </trkpt>
      <trkpt lat="43.99345" lon="1.19913">
        <ele>137.494297</ele>
        <time>2022-12-30T14:34:27.341Z</time>
      </trkpt>
      <trkpt lat="43.99335" lon="1.19923">
        <ele>137.80829</ele>
        <time>2022-12-30T14:34:31.350Z</time>
      </trkpt>
      <trkpt lat="43.99328" lon="1.19933">
        <ele>138.062148</ele>
        <time>2022-12-30T14:34:34.349Z</time>
      </trkpt>
      <trkpt lat="43.99316" lon="1.19952">
        <ele>138.536517</ele>
        <time>2022-12-30T14:34:58.347Z</time>
      </trkpt>
      <trkpt lat="43.99308" lon="1.19964">
        <ele>138.846643</ele>
        <time>2022-12-30T14:35:02.342Z</time>
      </trkpt>
      <trkpt lat="43.993" lon="1.19972">
        <ele>139.097056</ele>
        <time>2022-12-30T14:35:05.339Z</time>
      </trkpt>
      <trkpt lat="43.99292" lon="1.19981">
        <ele>139.354059</ele>
        <time>2022-12-30T14:35:08.357Z</time>
      </trkpt>
      <trkpt lat="43.99284" lon="1.1999">
        <ele>139.621762</ele>
        <time>2022-12-30T14:35:11.367Z</time>
      </trkpt>
      <trkpt lat="43.99276" lon="1.19999">
        <ele>139.683827</ele>
        <time>2022-12-30T14:35:14.332Z</time>
      </trkpt>
      <trkpt lat="43.99267" lon="1.20009">
        <ele>139.658309</ele>
        <time>2022-12-30T14:35:17.359Z</time>
      </trkpt>
      <trkpt lat="43.99258" lon="1.20019">
        <ele>139.632827</ele>
        <time>2022-12-30T14:35:20.351Z</time>
      </trkpt>
      <trkpt lat="43.99248" lon="1.20029">
        <ele>139.606421</ele>
        <time>2022-12-30T14:35:23.379Z</time>
      </trkpt>
      <trkpt lat="43.99239" lon="1.2004">
        <ele>139.579414</ele>
        <time>2022-12-30T14:35:26.352Z</time>
      </trkpt>
      <trkpt lat="43.9923" lon="1.20051">
        <ele>139.553362</ele>
        <time>2022-12-30T14:35:29.362Z</time>
      </trkpt>
      <trkpt lat="43.99221" lon="1.20063">
        <ele>139.525501</ele>
        <time>2022-12-30T14:35:32.343Z</time>
      </trkpt>
      <trkpt lat="43.99211" lon="1.20075">
        <ele>139.497369</ele>
        <time>2022-12-30T14:35:35.349Z</time>
      </trkpt>
      <trkpt lat="43.99202" lon="1.20087">
        <ele>139.468272</ele>
        <time>2022-12-30T14:35:38.346Z</time>
      </trkpt>
      <trkpt lat="43.99195" lon="1.20096">
        <ele>139.448095</ele>
        <time>2022-12-30T14:35:40.363Z</time>
      </trkpt>
      <trkpt lat="43.99185" lon="1.20107">
        <ele>139.419646</ele>
        <time>2022-12-30T14:35:43.346Z</time>
      </trkpt>
      <trkpt lat="43.99174" lon="1.20119">
        <ele>139.390584</ele>
        <time>2022-12-30T14:35:46.350Z</time>
      </trkpt>
      <trkpt lat="43.99165" lon="1.20131">
        <ele>139.361793</ele>
        <time>2022-12-30T14:35:49.354Z</time>
      </trkpt>
      <trkpt lat="43.99156" lon="1.20142">
        <ele>139.335273</ele>
        <time>2022-12-30T14:35:52.351Z</time>
      </trkpt>
      <trkpt lat="43.99149" lon="1.2015">
        <ele>139.314726</ele>
        <time>2022-12-30T14:35:54.361Z</time>
      </trkpt>
      <trkpt lat="43.99138" lon="1.20163">
        <ele>139.319861</ele>
        <time>2022-12-30T14:35:57.365Z</time>
      </trkpt>
      <trkpt lat="43.99127" lon="1.20174">
        <ele>139.340325</ele>
        <time>2022-12-30T14:36:00.352Z</time>
      </trkpt>
      <trkpt lat="43.99121" lon="1.20183">
        <ele>139.354878</ele>
        <time>2022-12-30T14:36:02.362Z</time>
      </trkpt>
      <trkpt lat="43.99114" lon="1.20191">
        <ele>139.369502</ele>
        <time>2022-12-30T14:36:04.349Z</time>
      </trkpt>
      <trkpt lat="43.99104" lon="1.20203">
        <ele>139.390068</ele>
        <time>2022-12-30T14:36:07.342Z</time>
      </trkpt>
      <trkpt lat="43.99097" lon="1.20212">
        <ele>139.404961</ele>
        <time>2022-12-30T14:36:09.371Z</time>
      </trkpt>
      <trkpt lat="43.99087" lon="1.20223">
        <ele>139.424853</ele>
        <time>2022-12-30T14:36:12.345Z</time>
      </trkpt>
      <trkpt lat="43.99078" lon="1.20233">
        <ele>139.443517</ele>
        <time>2022-12-30T14:36:15.365Z</time>
      </trkpt>
      <trkpt lat="43.99068" lon="1.20245">
        <ele>139.46425</ele>
        <time>2022-12-30T14:36:18.340Z</time>
      </trkpt>
      <trkpt lat="43.99062" lon="1.20253">
        <ele>139.478756</ele>
        <time>2022-12-30T14:36:20.363Z</time>
      </trkpt>
      <trkpt lat="43.99052" lon="1.20265">
        <ele>139.499637</ele>
        <time>2022-12-30T14:36:23.376Z</time>
      </trkpt>
      <trkpt lat="43.99045" lon="1.20274">
        <ele>139.514574</ele>
        <time>2022-12-30T14:36:25.345Z</time>
      </trkpt>
      <trkpt lat="43.99034" lon="1.20285">
        <ele>139.534927</ele>
        <time>2022-12-30T14:36:28.368Z</time>
      </trkpt>
      <trkpt lat="43.99026" lon="1.20294">
        <ele>139.552726</ele>
        <time>2022-12-30T14:36:31.361Z</time>
      </trkpt>
      <trkpt lat="43.99018" lon="1.20303">
        <ele>139.568502</ele>
        <time>2022-12-30T14:36:34.355Z</time>
      </trkpt>
      <trkpt lat="43.9901" lon="1.20313">
        <ele>139.585103</ele>
        <time>2022-12-30T14:36:37.348Z</time>
      </trkpt>
      <trkpt lat="43.99003" lon="1.20323">
        <ele>139.589281</ele>
        <time>2022-12-30T14:36:40.359Z</time>
      </trkpt>
      <trkpt lat="43.98994" lon="1.20334">
        <ele>139.588211</ele>
        <time>2022-12-30T14:36:43.358Z</time>
      </trkpt>
      <trkpt lat="43.98984" lon="1.20345">
        <ele>139.587093</ele>
        <time>2022-12-30T14:36:46.362Z</time>
      </trkpt>
      <trkpt lat="43.98974" lon="1.20357">
        <ele>139.585919</ele>
        <time>2022-12-30T14:36:49.367Z</time>
      </trkpt>
      <trkpt lat="43.98968" lon="1.20366">
        <ele>139.585111</ele>
        <time>2022-12-30T14:36:51.350Z</time>
      </trkpt>
      <trkpt lat="43.98958" lon="1.20378">
        <ele>139.58392</ele>
        <time>2022-12-30T14:36:54.354Z</time>
      </trkpt>
      <trkpt lat="43.98951" lon="1.20387">
        <ele>139.583098</ele>
        <time>2022-12-30T14:36:56.346Z</time>
      </trkpt>
      <trkpt lat="43.98944" lon="1.20395">
        <ele>139.582265</ele>
        <time>2022-12-30T14:36:58.335Z</time>
      </trkpt>
      <trkpt lat="43.98934" lon="1.20407">
        <ele>139.581068</ele>
        <time>2022-12-30T14:37:01.367Z</time>
      </trkpt>
      <trkpt lat="43.98924" lon="1.20419">
        <ele>139.579869</ele>
        <time>2022-12-30T14:37:04.370Z</time>
      </trkpt>
      <trkpt lat="43.98917" lon="1.20428">
        <ele>139.579027</ele>
        <time>2022-12-30T14:37:06.342Z</time>
      </trkpt>
      <trkpt lat="43.98909" lon="1.20436">
        <ele>139.578175</ele>
        <time>2022-12-30T14:37:08.370Z</time>
      </trkpt>
      <trkpt lat="43.98902" lon="1.20445">
        <ele>139.577344</ele>
        <time>2022-12-30T14:37:10.349Z</time>
      </trkpt>
      <trkpt lat="43.98896" lon="1.20454">
        <ele>139.576515</ele>
        <time>2022-12-30T14:37:12.342Z</time>
      </trkpt>
      <trkpt lat="43.98888" lon="1.20461">
        <ele>139.575664</ele>
        <time>2022-12-30T14:37:14.359Z</time>
      </trkpt>
      <trkpt lat="43.98881" lon="1.2047">
        <ele>139.574787</ele>
        <time>2022-12-30T14:37:16.356Z</time>
      </trkpt>
      <trkpt lat="43.98873" lon="1.20479">
        <ele>139.573916</ele>
        <time>2022-12-30T14:37:18.360Z</time>
      </trkpt>
      <trkpt lat="43.98866" lon="1.20488">
        <ele>139.44967</ele>
        <time>2022-12-30T14:37:20.364Z</time>
      </trkpt>
      <trkpt lat="43.98858" lon="1.20497">
        <ele>139.301651</ele>
        <time>2022-12-30T14:37:22.351Z</time>
      </trkpt>
      <trkpt lat="43.9885" lon="1.20506">
        <ele>139.16651</ele>
        <time>2022-12-30T14:37:24.346Z</time>
      </trkpt>
      <trkpt lat="43.98843" lon="1.20514">
        <ele>139.029846</ele>
        <time>2022-12-30T14:37:26.354Z</time>
      </trkpt>
      <trkpt lat="43.98835" lon="1.20524">
        <ele>138.880774</ele>
        <time>2022-12-30T14:37:28.365Z</time>
      </trkpt>
      <trkpt lat="43.98828" lon="1.20532">
        <ele>138.746273</ele>
        <time>2022-12-30T14:37:30.350Z</time>
      </trkpt>
      <trkpt lat="43.98821" lon="1.20542">
        <ele>138.610977</ele>
        <time>2022-12-30T14:37:32.363Z</time>
      </trkpt>
      <trkpt lat="43.98815" lon="1.2055">
        <ele>138.481002</ele>
        <time>2022-12-30T14:37:34.360Z</time>
      </trkpt>
      <trkpt lat="43.98807" lon="1.20559">
        <ele>138.335371</ele>
        <time>2022-12-30T14:37:36.357Z</time>
      </trkpt>
      <trkpt lat="43.98799" lon="1.20569">
        <ele>138.187303</ele>
        <time>2022-12-30T14:37:38.359Z</time>
      </trkpt>
      <trkpt lat="43.98792" lon="1.20577">
        <ele>138.056935</ele>
        <time>2022-12-30T14:37:40.357Z</time>
      </trkpt>
      <trkpt lat="43.98784" lon="1.20585">
        <ele>137.922248</ele>
        <time>2022-12-30T14:37:42.343Z</time>
      </trkpt>
      <trkpt lat="43.98777" lon="1.20594">
        <ele>137.783567</ele>
        <time>2022-12-30T14:37:44.358Z</time>
      </trkpt>
      <trkpt lat="43.9877" lon="1.20603">
        <ele>137.646649</ele>
        <time>2022-12-30T14:37:46.346Z</time>
      </trkpt>
      <trkpt lat="43.98763" lon="1.20612">
        <ele>137.516668</ele>
        <time>2022-12-30T14:37:48.341Z</time>
      </trkpt>
      <trkpt lat="43.98753" lon="1.20624">
        <ele>137.327407</ele>
        <time>2022-12-30T14:37:51.354Z</time>
      </trkpt>
      <trkpt lat="43.98744" lon="1.20634">
        <ele>137.161497</ele>
        <time>2022-12-30T14:37:54.374Z</time>
      </trkpt>
      <trkpt lat="43.98737" lon="1.20643">
        <ele>137.022662</ele>
        <time>2022-12-30T14:37:57.362Z</time>
      </trkpt>
      <trkpt lat="43.98729" lon="1.20654">
        <ele>137.030741</ele>
        <time>2022-12-30T14:38:01.355Z</time>
      </trkpt>
      <trkpt lat="43.9872" lon="1.20665">
        <ele>137.045051</ele>
        <time>2022-12-30T14:38:05.363Z</time>
      </trkpt>
      <trkpt lat="43.98713" lon="1.20676">
        <ele>137.057519</ele>
        <time>2022-12-30T14:38:08.337Z</time>
      </trkpt>
      <trkpt lat="43.98705" lon="1.20686">
        <ele>137.070986</ele>
        <time>2022-12-30T14:38:11.340Z</time>
      </trkpt>
      <trkpt lat="43.98696" lon="1.20698">
        <ele>137.085579</ele>
        <time>2022-12-30T14:38:14.345Z</time>
      </trkpt>
      <trkpt lat="43.98686" lon="1.2071">
        <ele>137.101743</ele>
        <time>2022-12-30T14:38:17.361Z</time>
      </trkpt>
      <trkpt lat="43.98676" lon="1.20722">
        <ele>137.117324</ele>
        <time>2022-12-30T14:38:20.352Z</time>
      </trkpt>
      <trkpt lat="43.98666" lon="1.20733">
        <ele>137.133465</ele>
        <time>2022-12-30T14:38:23.361Z</time>
      </trkpt>
      <trkpt lat="43.98658" lon="1.2074">
        <ele>137.145159</ele>
        <time>2022-12-30T14:38:25.336Z</time>
      </trkpt>
      <trkpt lat="43.98647" lon="1.20753">
        <ele>137.16154</ele>
        <time>2022-12-30T14:38:28.358Z</time>
      </trkpt>
      <trkpt lat="43.98637" lon="1.20765">
        <ele>137.178001</ele>
        <time>2022-12-30T14:38:31.352Z</time>
      </trkpt>
      <trkpt lat="43.98627" lon="1.20777">
        <ele>137.194698</ele>
        <time>2022-12-30T14:38:34.361Z</time>
      </trkpt>
      <trkpt lat="43.98619" lon="1.20786">
        <ele>137.206226</ele>
        <time>2022-12-30T14:38:36.363Z</time>
      </trkpt>
      <trkpt lat="43.98609" lon="1.20798">
        <ele>137.222253</ele>
        <time>2022-12-30T14:38:39.341Z</time>
      </trkpt>
      <trkpt lat="43.98599" lon="1.2081">
        <ele>137.270642</ele>
        <time>2022-12-30T14:38:42.345Z</time>
      </trkpt>
      <trkpt lat="43.98592" lon="1.20818">
        <ele>137.404805</ele>
        <time>2022-12-30T14:38:44.357Z</time>
      </trkpt>
      <trkpt lat="43.98585" lon="1.20827">
        <ele>137.536396</ele>
        <time>2022-12-30T14:38:46.346Z</time>
      </trkpt>
      <trkpt lat="43.98578" lon="1.20835">
        <ele>137.667811</ele>
        <time>2022-12-30T14:38:48.353Z</time>
      </trkpt>
      <trkpt lat="43.9857" lon="1.20843">
        <ele>137.804499</ele>
        <time>2022-12-30T14:38:50.365Z</time>
      </trkpt>
      <trkpt lat="43.98563" lon="1.20852">
        <ele>137.942339</ele>
        <time>2022-12-30T14:38:52.362Z</time>
      </trkpt>
      <trkpt lat="43.98553" lon="1.20863">
        <ele>138.125173</ele>
        <time>2022-12-30T14:38:55.344Z</time>
      </trkpt>
      <trkpt lat="43.98544" lon="1.20874">
        <ele>138.296626</ele>
        <time>2022-12-30T14:38:58.357Z</time>
      </trkpt>
      <trkpt lat="43.98535" lon="1.20885">
        <ele>138.470105</ele>
        <time>2022-12-30T14:39:01.352Z</time>
      </trkpt>
      <trkpt lat="43.98525" lon="1.20897">
        <ele>138.650985</ele>
        <time>2022-12-30T14:39:04.353Z</time>
      </trkpt>
      <trkpt lat="43.98516" lon="1.20908">
        <ele>138.829713</ele>
        <time>2022-12-30T14:39:07.336Z</time>
      </trkpt>
      <trkpt lat="43.98509" lon="1.20916">
        <ele>138.95753</ele>
        <time>2022-12-30T14:39:09.362Z</time>
      </trkpt>
      <trkpt lat="43.98502" lon="1.20924">
        <ele>139.086873</ele>
        <time>2022-12-30T14:39:11.353Z</time>
      </trkpt>
      <trkpt lat="43.98495" lon="1.20932">
        <ele>139.21687</ele>
        <time>2022-12-30T14:39:13.347Z</time>
      </trkpt>
      <trkpt lat="43.98486" lon="1.20943">
        <ele>139.39379</ele>
        <time>2022-12-30T14:39:16.342Z</time>
      </trkpt>
      <trkpt lat="43.98477" lon="1.20953">
        <ele>139.550314</ele>
        <time>2022-12-30T14:39:19.363Z</time>
      </trkpt>
      <trkpt lat="43.98468" lon="1.20963">
        <ele>139.717163</ele>
        <time>2022-12-30T14:39:22.346Z</time>
      </trkpt>
      <trkpt lat="43.98459" lon="1.20975">
        <ele>139.786174</ele>
        <time>2022-12-30T14:39:25.354Z</time>
      </trkpt>
      <trkpt lat="43.98449" lon="1.20986">
        <ele>139.752353</ele>
        <time>2022-12-30T14:39:28.343Z</time>
      </trkpt>
      <trkpt lat="43.9844" lon="1.20998">
        <ele>139.718313</ele>
        <time>2022-12-30T14:39:31.364Z</time>
      </trkpt>
      <trkpt lat="43.9843" lon="1.2101">
        <ele>139.683241</ele>
        <time>2022-12-30T14:39:34.346Z</time>
      </trkpt>
      <trkpt lat="43.9842" lon="1.21022">
        <ele>139.64835</ele>
        <time>2022-12-30T14:39:37.362Z</time>
      </trkpt>
      <trkpt lat="43.98413" lon="1.2103">
        <ele>139.623504</ele>
        <time>2022-12-30T14:39:39.342Z</time>
      </trkpt>
      <trkpt lat="43.98406" lon="1.21038">
        <ele>139.599515</ele>
        <time>2022-12-30T14:39:41.364Z</time>
      </trkpt>
      <trkpt lat="43.98396" lon="1.21051">
        <ele>139.563069</ele>
        <time>2022-12-30T14:39:44.343Z</time>
      </trkpt>
      <trkpt lat="43.98386" lon="1.21063">
        <ele>139.527697</ele>
        <time>2022-12-30T14:39:47.361Z</time>
      </trkpt>
      <trkpt lat="43.98379" lon="1.21071">
        <ele>139.503334</ele>
        <time>2022-12-30T14:39:49.351Z</time>
      </trkpt>
      <trkpt lat="43.98369" lon="1.21083">
        <ele>139.46942</ele>
        <time>2022-12-30T14:39:52.367Z</time>
      </trkpt>
      <trkpt lat="43.98362" lon="1.21091">
        <ele>139.444655</ele>
        <time>2022-12-30T14:39:54.362Z</time>
      </trkpt>
      <trkpt lat="43.98352" lon="1.21104">
        <ele>139.409511</ele>
        <time>2022-12-30T14:39:57.353Z</time>
      </trkpt>
      <trkpt lat="43.98343" lon="1.21115">
        <ele>139.376774</ele>
        <time>2022-12-30T14:40:00.343Z</time>
      </trkpt>
      <trkpt lat="43.98334" lon="1.21125">
        <ele>139.347029</ele>
        <time>2022-12-30T14:40:03.352Z</time>
      </trkpt>
      <trkpt lat="43.98326" lon="1.21135">
        <ele>139.278704</ele>
        <time>2022-12-30T14:40:06.354Z</time>
      </trkpt>
      <trkpt lat="43.98317" lon="1.21145">
        <ele>139.095958</ele>
        <time>2022-12-30T14:40:09.362Z</time>
      </trkpt>
      <trkpt lat="43.98309" lon="1.21155">
        <ele>138.919051</ele>
        <time>2022-12-30T14:40:12.345Z</time>
      </trkpt>
      <trkpt lat="43.98302" lon="1.21163">
        <ele>138.766891</ele>
        <time>2022-12-30T14:40:15.371Z</time>
      </trkpt>
      <trkpt lat="43.98294" lon="1.21173">
        <ele>138.587403</ele>
        <time>2022-12-30T14:40:18.341Z</time>
      </trkpt>
      <trkpt lat="43.98286" lon="1.21183">
        <ele>138.416831</ele>
        <time>2022-12-30T14:40:21.359Z</time>
      </trkpt>
      <trkpt lat="43.98279" lon="1.21191">
        <ele>138.26513</ele>
        <time>2022-12-30T14:40:24.361Z</time>
      </trkpt>
      <trkpt lat="43.98271" lon="1.21201">
        <ele>138.08567</ele>
        <time>2022-12-30T14:40:29.347Z</time>
      </trkpt>
      <trkpt lat="43.98261" lon="1.21212">
        <ele>137.884252</ele>
        <time>2022-12-30T14:40:33.375Z</time>
      </trkpt>
      <trkpt lat="43.98253" lon="1.21222">
        <ele>137.699162</ele>
        <time>2022-12-30T14:40:36.342Z</time>
      </trkpt>
      <trkpt lat="43.98244" lon="1.21233">
        <ele>137.49545</ele>
        <time>2022-12-30T14:40:39.352Z</time>
      </trkpt>
      <trkpt lat="43.98234" lon="1.21244">
        <ele>137.286698</ele>
        <time>2022-12-30T14:40:42.346Z</time>
      </trkpt>
      <trkpt lat="43.98224" lon="1.21255">
        <ele>137.085279</ele>
        <time>2022-12-30T14:40:45.353Z</time>
      </trkpt>
      <trkpt lat="43.98216" lon="1.21266">
        <ele>136.894922</ele>
        <time>2022-12-30T14:40:48.360Z</time>
      </trkpt>
      <trkpt lat="43.98207" lon="1.21277">
        <ele>136.693353</ele>
        <time>2022-12-30T14:40:51.364Z</time>
      </trkpt>
      <trkpt lat="43.98198" lon="1.21288">
        <ele>136.506567</ele>
        <time>2022-12-30T14:40:54.362Z</time>
      </trkpt>
      <trkpt lat="43.9819" lon="1.21298">
        <ele>136.406488</ele>
        <time>2022-12-30T14:40:57.343Z</time>
      </trkpt>
      <trkpt lat="43.98181" lon="1.21308">
        <ele>136.579185</ele>
        <time>2022-12-30T14:41:00.358Z</time>
      </trkpt>
      <trkpt lat="43.98173" lon="1.21318">
        <ele>136.751643</ele>
        <time>2022-12-30T14:41:03.338Z</time>
      </trkpt>
      <trkpt lat="43.98165" lon="1.21329">
        <ele>136.924409</ele>
        <time>2022-12-30T14:41:07.340Z</time>
      </trkpt>
      <trkpt lat="43.98157" lon="1.21339">
        <ele>137.089597</ele>
        <time>2022-12-30T14:41:10.347Z</time>
      </trkpt>
      <trkpt lat="43.98148" lon="1.21348">
        <ele>137.251419</ele>
        <time>2022-12-30T14:41:13.363Z</time>
      </trkpt>
      <trkpt lat="43.98139" lon="1.21358">
        <ele>137.434115</ele>
        <time>2022-12-30T14:41:16.361Z</time>
      </trkpt>
      <trkpt lat="43.98129" lon="1.2137">
        <ele>137.630971</ele>
        <time>2022-12-30T14:41:19.355Z</time>
      </trkpt>
      <trkpt lat="43.9812" lon="1.21381">
        <ele>137.820312</ele>
        <time>2022-12-30T14:41:22.362Z</time>
      </trkpt>
      <trkpt lat="43.98112" lon="1.21391">
        <ele>137.989281</ele>
        <time>2022-12-30T14:41:25.371Z</time>
      </trkpt>
      <trkpt lat="43.98102" lon="1.21402">
        <ele>138.187546</ele>
        <time>2022-12-30T14:41:28.336Z</time>
      </trkpt>
      <trkpt lat="43.98093" lon="1.21412">
        <ele>138.364549</ele>
        <time>2022-12-30T14:41:31.355Z</time>
      </trkpt>
      <trkpt lat="43.98085" lon="1.21421">
        <ele>138.51809</ele>
        <time>2022-12-30T14:41:34.356Z</time>
      </trkpt>
      <trkpt lat="43.98078" lon="1.2143">
        <ele>138.660623</ele>
        <time>2022-12-30T14:41:38.361Z</time>
      </trkpt>
      <trkpt lat="43.9807" lon="1.21439">
        <ele>138.820282</ele>
        <time>2022-12-30T14:41:42.349Z</time>
      </trkpt>
      <trkpt lat="43.98063" lon="1.21448">
        <ele>138.976391</ele>
        <time>2022-12-30T14:41:46.360Z</time>
      </trkpt>
      <trkpt lat="43.98055" lon="1.21458">
        <ele>139.129926</ele>
        <time>2022-12-30T14:41:49.347Z</time>
      </trkpt>
      <trkpt lat="43.98048" lon="1.21466">
        <ele>139.230049</ele>
        <time>2022-12-30T14:41:52.360Z</time>
      </trkpt>
      <trkpt lat="43.98041" lon="1.21475">
        <ele>139.32708</ele>
        <time>2022-12-30T14:41:55.354Z</time>
      </trkpt>
      <trkpt lat="43.98034" lon="1.21483">
        <ele>139.418439</ele>
        <time>2022-12-30T14:41:58.345Z</time>
      </trkpt>
      <trkpt lat="43.98025" lon="1.21492">
        <ele>139.528701</ele>
        <time>2022-12-30T14:42:01.367Z</time>
      </trkpt>
      <trkpt lat="43.98016" lon="1.21504">
        <ele>139.650222</ele>
        <time>2022-12-30T14:42:04.341Z</time>
      </trkpt>
      <trkpt lat="43.98006" lon="1.21515">
        <ele>139.775194</ele>
        <time>2022-12-30T14:42:07.364Z</time>
      </trkpt>
      <trkpt lat="43.97997" lon="1.21526">
        <ele>139.895274</ele>
        <time>2022-12-30T14:42:10.359Z</time>
      </trkpt>
      <trkpt lat="43.97988" lon="1.21537">
        <ele>140.020984</ele>
        <time>2022-12-30T14:42:13.348Z</time>
      </trkpt>
      <trkpt lat="43.97978" lon="1.21549">
        <ele>140.149095</ele>
        <time>2022-12-30T14:42:16.354Z</time>
      </trkpt>
      <trkpt lat="43.97969" lon="1.21562">
        <ele>140.279921</ele>
        <time>2022-12-30T14:42:19.351Z</time>
      </trkpt>
      <trkpt lat="43.9796" lon="1.21574">
        <ele>140.402451</ele>
        <time>2022-12-30T14:42:22.363Z</time>
      </trkpt>
      <trkpt lat="43.97952" lon="1.21586">
        <ele>140.52165</ele>
        <time>2022-12-30T14:42:25.362Z</time>
      </trkpt>
      <trkpt lat="43.97945" lon="1.21599">
        <ele>140.636003</ele>
        <time>2022-12-30T14:42:28.342Z</time>
      </trkpt>
      <trkpt lat="43.97938" lon="1.21611">
        <ele>140.745744</ele>
        <time>2022-12-30T14:42:31.356Z</time>
      </trkpt>
      <trkpt lat="43.97932" lon="1.21623">
        <ele>140.850799</ele>
        <time>2022-12-30T14:42:34.347Z</time>
      </trkpt>
      <trkpt lat="43.97926" lon="1.21636">
        <ele>140.932343</ele>
        <time>2022-12-30T14:42:37.347Z</time>
      </trkpt>
      <trkpt lat="43.97919" lon="1.21649">
        <ele>140.925559</ele>
        <time>2022-12-30T14:42:40.345Z</time>
      </trkpt>
      <trkpt lat="43.97913" lon="1.21664">
        <ele>140.918155</ele>
        <time>2022-12-30T14:42:43.343Z</time>
      </trkpt>
      <trkpt lat="43.97906" lon="1.2168">
        <ele>140.910609</ele>
        <time>2022-12-30T14:42:46.360Z</time>
      </trkpt>
      <trkpt lat="43.97898" lon="1.21695">
        <ele>140.902879</ele>
        <time>2022-12-30T14:42:49.359Z</time>
      </trkpt>
      <trkpt lat="43.97891" lon="1.21711">
        <ele>140.895303</ele>
        <time>2022-12-30T14:42:52.357Z</time>
      </trkpt>
      <trkpt lat="43.97885" lon="1.21726">
        <ele>140.887934</ele>
        <time>2022-12-30T14:42:55.337Z</time>
      </trkpt>
      <trkpt lat="43.97877" lon="1.2174">
        <ele>140.880545</ele>
        <time>2022-12-30T14:42:58.357Z</time>
      </trkpt>
      <trkpt lat="43.9787" lon="1.21754">
        <ele>140.873695</ele>
        <time>2022-12-30T14:43:01.365Z</time>
      </trkpt>
      <trkpt lat="43.97863" lon="1.21767">
        <ele>140.866773</ele>
        <time>2022-12-30T14:43:04.338Z</time>
      </trkpt>
      <trkpt lat="43.97855" lon="1.2178">
        <ele>140.859455</ele>
        <time>2022-12-30T14:43:07.356Z</time>
      </trkpt>
      <trkpt lat="43.97846" lon="1.21794">
        <ele>140.85186</ele>
        <time>2022-12-30T14:43:10.358Z</time>
      </trkpt>
      <trkpt lat="43.97837" lon="1.21807">
        <ele>140.844231</ele>
        <time>2022-12-30T14:43:13.359Z</time>
      </trkpt>
      <trkpt lat="43.97827" lon="1.2182">
        <ele>140.836629</ele>
        <time>2022-12-30T14:43:16.342Z</time>
      </trkpt>
      <trkpt lat="43.97818" lon="1.21833">
        <ele>140.828359</ele>
        <time>2022-12-30T14:43:19.343Z</time>
      </trkpt>
      <trkpt lat="43.97811" lon="1.21841">
        <ele>140.820436</ele>
        <time>2022-12-30T14:43:21.346Z</time>
      </trkpt>
      <trkpt lat="43.97804" lon="1.2185">
        <ele>140.81233</ele>
        <time>2022-12-30T14:43:23.346Z</time>
      </trkpt>
      <trkpt lat="43.97794" lon="1.21862">
        <ele>140.801433</ele>
        <time>2022-12-30T14:43:26.362Z</time>
      </trkpt>
      <trkpt lat="43.97786" lon="1.21873">
        <ele>140.791148</ele>
        <time>2022-12-30T14:43:29.362Z</time>
      </trkpt>
      <trkpt lat="43.97778" lon="1.21883">
        <ele>140.781908</ele>
        <time>2022-12-30T14:43:32.353Z</time>
      </trkpt>
      <trkpt lat="43.9777" lon="1.21893">
        <ele>140.772964</ele>
        <time>2022-12-30T14:43:35.344Z</time>
      </trkpt>
      <trkpt lat="43.97761" lon="1.21904">
        <ele>140.762738</ele>
        <time>2022-12-30T14:43:38.348Z</time>
      </trkpt>
      <trkpt lat="43.97751" lon="1.21915">
        <ele>140.752368</ele>
        <time>2022-12-30T14:43:41.339Z</time>
      </trkpt>
      <trkpt lat="43.97742" lon="1.21925">
        <ele>140.742047</ele>
        <time>2022-12-30T14:43:44.336Z</time>
      </trkpt>
      <trkpt lat="43.97733" lon="1.21936">
        <ele>140.731447</ele>
        <time>2022-12-30T14:43:47.360Z</time>
      </trkpt>
      <trkpt lat="43.97724" lon="1.21949">
        <ele>140.720548</ele>
        <time>2022-12-30T14:43:50.355Z</time>
      </trkpt>
      <trkpt lat="43.97714" lon="1.21961">
        <ele>140.70955</ele>
        <time>2022-12-30T14:43:53.361Z</time>
      </trkpt>
      <trkpt lat="43.97708" lon="1.2197">
        <ele>140.701881</ele>
        <time>2022-12-30T14:43:55.356Z</time>
      </trkpt>
      <trkpt lat="43.97698" lon="1.21983">
        <ele>140.690182</ele>
        <time>2022-12-30T14:43:58.360Z</time>
      </trkpt>
      <trkpt lat="43.97689" lon="1.21996">
        <ele>140.679047</ele>
        <time>2022-12-30T14:44:01.343Z</time>
      </trkpt>
      <trkpt lat="43.97679" lon="1.22008">
        <ele>140.604311</ele>
        <time>2022-12-30T14:44:04.345Z</time>
      </trkpt>
      <trkpt lat="43.9767" lon="1.2202">
        <ele>140.507747</ele>
        <time>2022-12-30T14:44:07.360Z</time>
      </trkpt>
      <trkpt lat="43.97662" lon="1.2203">
        <ele>140.423114</ele>
        <time>2022-12-30T14:44:10.365Z</time>
      </trkpt>
      <trkpt lat="43.97654" lon="1.2204">
        <ele>140.343169</ele>
        <time>2022-12-30T14:44:13.363Z</time>
      </trkpt>
      <trkpt lat="43.97646" lon="1.2205">
        <ele>140.259836</ele>
        <time>2022-12-30T14:44:16.342Z</time>
      </trkpt>
      <trkpt lat="43.97637" lon="1.22062">
        <ele>140.167521</ele>
        <time>2022-12-30T14:44:19.345Z</time>
      </trkpt>
      <trkpt lat="43.97629" lon="1.22073">
        <ele>140.077492</ele>
        <time>2022-12-30T14:44:22.356Z</time>
      </trkpt>
      <trkpt lat="43.9762" lon="1.22084">
        <ele>139.98464</ele>
        <time>2022-12-30T14:44:25.353Z</time>
      </trkpt>
      <trkpt lat="43.97611" lon="1.22096">
        <ele>139.890687</ele>
        <time>2022-12-30T14:44:28.351Z</time>
      </trkpt>
      <trkpt lat="43.97601" lon="1.22107">
        <ele>139.796325</ele>
        <time>2022-12-30T14:44:31.365Z</time>
      </trkpt>
      <trkpt lat="43.97592" lon="1.22118">
        <ele>139.703107</ele>
        <time>2022-12-30T14:44:34.355Z</time>
      </trkpt>
      <trkpt lat="43.97583" lon="1.2213">
        <ele>139.610255</ele>
        <time>2022-12-30T14:44:37.348Z</time>
      </trkpt>
      <trkpt lat="43.97575" lon="1.2214">
        <ele>139.522281</ele>
        <time>2022-12-30T14:44:40.330Z</time>
      </trkpt>
      <trkpt lat="43.97566" lon="1.22151">
        <ele>139.433901</ele>
        <time>2022-12-30T14:44:43.349Z</time>
      </trkpt>
      <trkpt lat="43.97557" lon="1.22163">
        <ele>139.341586</ele>
        <time>2022-12-30T14:44:46.339Z</time>
      </trkpt>
      <trkpt lat="43.97548" lon="1.22174">
        <ele>139.3166</ele>
        <time>2022-12-30T14:44:49.364Z</time>
      </trkpt>
      <trkpt lat="43.97539" lon="1.22186">
        <ele>139.342923</ele>
        <time>2022-12-30T14:44:52.338Z</time>
      </trkpt>
      <trkpt lat="43.97529" lon="1.22198">
        <ele>139.369556</ele>
        <time>2022-12-30T14:44:55.339Z</time>
      </trkpt>
      <trkpt lat="43.97519" lon="1.22211">
        <ele>139.396285</ele>
        <time>2022-12-30T14:44:58.350Z</time>
      </trkpt>
      <trkpt lat="43.97512" lon="1.22219">
        <ele>139.414641</ele>
        <time>2022-12-30T14:45:00.343Z</time>
      </trkpt>
      <trkpt lat="43.97502" lon="1.22232">
        <ele>139.441964</ele>
        <time>2022-12-30T14:45:03.361Z</time>
      </trkpt>
      <trkpt lat="43.97495" lon="1.22241">
        <ele>139.461003</ele>
        <time>2022-12-30T14:45:05.361Z</time>
      </trkpt>
      <trkpt lat="43.97486" lon="1.22253">
        <ele>139.487079</ele>
        <time>2022-12-30T14:45:08.352Z</time>
      </trkpt>
      <trkpt lat="43.97477" lon="1.22264">
        <ele>139.51165</ele>
        <time>2022-12-30T14:45:11.348Z</time>
      </trkpt>
      <trkpt lat="43.97468" lon="1.22275">
        <ele>139.535803</ele>
        <time>2022-12-30T14:45:14.358Z</time>
      </trkpt>
      <trkpt lat="43.97459" lon="1.22286">
        <ele>139.559627</ele>
        <time>2022-12-30T14:45:17.342Z</time>
      </trkpt>
      <trkpt lat="43.9745" lon="1.22297">
        <ele>139.58383</ele>
        <time>2022-12-30T14:45:20.346Z</time>
      </trkpt>
      <trkpt lat="43.97441" lon="1.22308">
        <ele>139.609016</ele>
        <time>2022-12-30T14:45:23.343Z</time>
      </trkpt>
      <trkpt lat="43.97432" lon="1.2232">
        <ele>139.635043</ele>
        <time>2022-12-30T14:45:26.349Z</time>
      </trkpt>
      <trkpt lat="43.97422" lon="1.22333">
        <ele>139.661268</ele>
        <time>2022-12-30T14:45:29.366Z</time>
      </trkpt>
      <trkpt lat="43.97413" lon="1.22345">
        <ele>139.782803</ele>
        <time>2022-12-30T14:45:32.346Z</time>
      </trkpt>
      <trkpt lat="43.97403" lon="1.22357">
        <ele>139.935943</ele>
        <time>2022-12-30T14:45:35.342Z</time>
      </trkpt>
      <trkpt lat="43.97394" lon="1.2237">
        <ele>140.08971</ele>
        <time>2022-12-30T14:45:38.362Z</time>
      </trkpt>
      <trkpt lat="43.97385" lon="1.22382">
        <ele>140.238639</ele>
        <time>2022-12-30T14:45:41.352Z</time>
      </trkpt>
      <trkpt lat="43.97376" lon="1.22393">
        <ele>140.369583</ele>
        <time>2022-12-30T14:45:44.347Z</time>
      </trkpt>
      <trkpt lat="43.97369" lon="1.22402">
        <ele>140.482883</ele>
        <time>2022-12-30T14:45:47.343Z</time>
      </trkpt>
      <trkpt lat="43.97363" lon="1.22412">
        <ele>140.590302</ele>
        <time>2022-12-30T14:45:50.357Z</time>
      </trkpt>
      <trkpt lat="43.97356" lon="1.22422">
        <ele>140.708965</ele>
        <time>2022-12-30T14:45:53.351Z</time>
      </trkpt>
      <trkpt lat="43.97348" lon="1.22433">
        <ele>140.836689</ele>
        <time>2022-12-30T14:45:56.356Z</time>
      </trkpt>
      <trkpt lat="43.9734" lon="1.22445">
        <ele>140.973278</ele>
        <time>2022-12-30T14:45:59.345Z</time>
      </trkpt>
      <trkpt lat="43.97332" lon="1.22456">
        <ele>141.10852</ele>
        <time>2022-12-30T14:46:02.362Z</time>
      </trkpt>
      <trkpt lat="43.97324" lon="1.22467">
        <ele>141.234674</ele>
        <time>2022-12-30T14:46:05.354Z</time>
      </trkpt>
      <trkpt lat="43.97316" lon="1.22476">
        <ele>141.362691</ele>
        <time>2022-12-30T14:46:09.354Z</time>
      </trkpt>
      <trkpt lat="43.97308" lon="1.22486">
        <ele>141.483411</ele>
        <time>2022-12-30T14:46:13.339Z</time>
      </trkpt>
      <trkpt lat="43.97299" lon="1.22496">
        <ele>141.615578</ele>
        <time>2022-12-30T14:46:17.350Z</time>
      </trkpt>
      <trkpt lat="43.97291" lon="1.22504">
        <ele>141.731469</ele>
        <time>2022-12-30T14:46:21.360Z</time>
      </trkpt>
      <trkpt lat="43.97282" lon="1.22512">
        <ele>141.919988</ele>
        <time>2022-12-30T14:46:26.362Z</time>
      </trkpt>
      <trkpt lat="43.97273" lon="1.22508">
        <ele>142.103306</ele>
        <time>2022-12-30T14:46:31.341Z</time>
      </trkpt>
      <trkpt lat="43.97268" lon="1.22497">
        <ele>142.285757</ele>
        <time>2022-12-30T14:46:35.337Z</time>
      </trkpt>
      <trkpt lat="43.97261" lon="1.22486">
        <ele>142.485557</ele>
        <time>2022-12-30T14:46:40.351Z</time>
      </trkpt>
      <trkpt lat="43.97255" lon="1.22475">
        <ele>142.679347</ele>
        <time>2022-12-30T14:46:44.343Z</time>
      </trkpt>
      <trkpt lat="43.97246" lon="1.22468">
        <ele>142.885404</ele>
        <time>2022-12-30T14:46:48.351Z</time>
      </trkpt>
      <trkpt lat="43.97234" lon="1.2247">
        <ele>143.112175</ele>
        <time>2022-12-30T14:46:52.340Z</time>
      </trkpt>
      <trkpt lat="43.97226" lon="1.22477">
        <ele>143.294636</ele>
        <time>2022-12-30T14:46:55.349Z</time>
      </trkpt>
      <trkpt lat="43.97219" lon="1.22485">
        <ele>143.473022</ele>
        <time>2022-12-30T14:46:58.349Z</time>
      </trkpt>
      <trkpt lat="43.97212" lon="1.22494">
        <ele>143.653814</ele>
        <time>2022-12-30T14:47:01.338Z</time>
      </trkpt>
      <trkpt lat="43.97206" lon="1.22503">
        <ele>143.829959</ele>
        <time>2022-12-30T14:47:04.338Z</time>
      </trkpt>
      <trkpt lat="43.97197" lon="1.22512">
        <ele>144.04684</ele>
        <time>2022-12-30T14:47:08.348Z</time>
      </trkpt>
      <trkpt lat="43.97189" lon="1.22524">
        <ele>144.263041</ele>
        <time>2022-12-30T14:47:12.342Z</time>
      </trkpt>
      <trkpt lat="43.97182" lon="1.22537">
        <ele>144.490896</ele>
        <time>2022-12-30T14:47:16.337Z</time>
      </trkpt>
      <trkpt lat="43.97176" lon="1.22547">
        <ele>144.682164</ele>
        <time>2022-12-30T14:47:20.364Z</time>
      </trkpt>
      <trkpt lat="43.97168" lon="1.22558">
        <ele>144.900156</ele>
        <time>2022-12-30T14:47:24.343Z</time>
      </trkpt>
      <trkpt lat="43.97159" lon="1.22569">
        <ele>145.126488</ele>
        <time>2022-12-30T14:47:28.356Z</time>
      </trkpt>
      <trkpt lat="43.97151" lon="1.2258">
        <ele>145.332236</ele>
        <time>2022-12-30T14:47:32.347Z</time>
      </trkpt>
      <trkpt lat="43.97143" lon="1.22587">
        <ele>145.47381</ele>
        <time>2022-12-30T14:47:35.346Z</time>
      </trkpt>
      <trkpt lat="43.97134" lon="1.22597">
        <ele>145.651729</ele>
        <time>2022-12-30T14:47:39.370Z</time>
      </trkpt>
      <trkpt lat="43.97125" lon="1.22607">
        <ele>145.828339</ele>
        <time>2022-12-30T14:47:43.342Z</time>
      </trkpt>
      <trkpt lat="43.97118" lon="1.22616">
        <ele>145.983771</ele>
        <time>2022-12-30T14:47:47.344Z</time>
      </trkpt>
      <trkpt lat="43.97111" lon="1.22627">
        <ele>146.149832</ele>
        <time>2022-12-30T14:47:52.347Z</time>
      </trkpt>
      <trkpt lat="43.97104" lon="1.22635">
        <ele>146.298088</ele>
        <time>2022-12-30T14:47:56.338Z</time>
      </trkpt>
      <trkpt lat="43.97095" lon="1.22644">
        <ele>146.468546</ele>
        <time>2022-12-30T14:48:01.340Z</time>
      </trkpt>
      <trkpt lat="43.97086" lon="1.22655">
        <ele>146.650622</ele>
        <time>2022-12-30T14:48:05.333Z</time>
      </trkpt>
      <trkpt lat="43.97078" lon="1.22664">
        <ele>146.806222</ele>
        <time>2022-12-30T14:48:08.342Z</time>
      </trkpt>
      <trkpt lat="43.9707" lon="1.22673">
        <ele>146.96794</ele>
        <time>2022-12-30T14:48:11.342Z</time>
      </trkpt>
      <trkpt lat="43.97063" lon="1.22682">
        <ele>147.124769</ele>
        <time>2022-12-30T14:48:14.357Z</time>
      </trkpt>
      <trkpt lat="43.97055" lon="1.22691">
        <ele>147.282158</ele>
        <time>2022-12-30T14:48:17.349Z</time>
      </trkpt>
      <trkpt lat="43.97048" lon="1.227">
        <ele>147.433645</ele>
        <time>2022-12-30T14:48:20.360Z</time>
      </trkpt>
      <trkpt lat="43.97041" lon="1.22709">
        <ele>147.583635</ele>
        <time>2022-12-30T14:48:23.352Z</time>
      </trkpt>
      <trkpt lat="43.97034" lon="1.22718">
        <ele>147.732279</ele>
        <time>2022-12-30T14:48:26.363Z</time>
      </trkpt>
      <trkpt lat="43.97028" lon="1.22727">
        <ele>147.873807</ele>
        <time>2022-12-30T14:48:29.348Z</time>
      </trkpt>
      <trkpt lat="43.9702" lon="1.22735">
        <ele>148.021858</ele>
        <time>2022-12-30T14:48:32.342Z</time>
      </trkpt>
      <trkpt lat="43.97011" lon="1.22745">
        <ele>148.139061</ele>
        <time>2022-12-30T14:48:36.342Z</time>
      </trkpt>
      <trkpt lat="43.97002" lon="1.22754">
        <ele>148.231933</ele>
        <time>2022-12-30T14:48:40.355Z</time>
      </trkpt>
      <trkpt lat="43.96993" lon="1.22763">
        <ele>148.323602</ele>
        <time>2022-12-30T14:48:44.361Z</time>
      </trkpt>
      <trkpt lat="43.96985" lon="1.22773">
        <ele>148.41743</ele>
        <time>2022-12-30T14:48:48.349Z</time>
      </trkpt>
      <trkpt lat="43.96976" lon="1.22782">
        <ele>148.508957</ele>
        <time>2022-12-30T14:48:52.354Z</time>
      </trkpt>
      <trkpt lat="43.96967" lon="1.22792">
        <ele>148.603533</ele>
        <time>2022-12-30T14:48:56.354Z</time>
      </trkpt>
      <trkpt lat="43.96957" lon="1.228">
        <ele>148.699164</ele>
        <time>2022-12-30T14:49:00.362Z</time>
      </trkpt>
      <trkpt lat="43.96947" lon="1.2281">
        <ele>148.797847</ele>
        <time>2022-12-30T14:49:04.365Z</time>
      </trkpt>
      <trkpt lat="43.96938" lon="1.22819">
        <ele>148.891073</ele>
        <time>2022-12-30T14:49:08.337Z</time>
      </trkpt>
      <trkpt lat="43.96929" lon="1.22828">
        <ele>148.981537</ele>
        <time>2022-12-30T14:49:12.364Z</time>
      </trkpt>
      <trkpt lat="43.96922" lon="1.22836">
        <ele>149.062851</ele>
        <time>2022-12-30T14:49:16.352Z</time>
      </trkpt>
      <trkpt lat="43.96913" lon="1.22842">
        <ele>149.141763</ele>
        <time>2022-12-30T14:49:19.358Z</time>
      </trkpt>
      <trkpt lat="43.96904" lon="1.2285">
        <ele>149.231892</ele>
        <time>2022-12-30T14:49:23.360Z</time>
      </trkpt>
      <trkpt lat="43.96894" lon="1.22858">
        <ele>149.325127</ele>
        <time>2022-12-30T14:49:27.361Z</time>
      </trkpt>
      <trkpt lat="43.96884" lon="1.22859">
        <ele>149.411421</ele>
        <time>2022-12-30T14:49:31.343Z</time>
      </trkpt>
      <trkpt lat="43.96877" lon="1.22847">
        <ele>149.50506</ele>
        <time>2022-12-30T14:49:36.357Z</time>
      </trkpt>
      <trkpt lat="43.96871" lon="1.22834">
        <ele>149.608126</ele>
        <time>2022-12-30T14:49:41.359Z</time>
      </trkpt>
      <trkpt lat="43.9686" lon="1.22837">
        <ele>149.727695</ele>
        <time>2022-12-30T14:49:47.343Z</time>
      </trkpt>
      <trkpt lat="43.96855" lon="1.22848">
        <ele>149.825881</ele>
        <time>2022-12-30T14:49:49.346Z</time>
      </trkpt>
      <trkpt lat="43.96848" lon="1.22857">
        <ele>149.927101</ele>
        <time>2022-12-30T14:49:51.341Z</time>
      </trkpt>
      <trkpt lat="43.96841" lon="1.22865">
        <ele>150.021636</ele>
        <time>2022-12-30T14:49:53.365Z</time>
      </trkpt>
      <trkpt lat="43.96833" lon="1.22876">
        <ele>150.140116</ele>
        <time>2022-12-30T14:49:56.336Z</time>
      </trkpt>
      <trkpt lat="43.96825" lon="1.22885">
        <ele>150.247434</ele>
        <time>2022-12-30T14:49:59.354Z</time>
      </trkpt>
      <trkpt lat="43.96818" lon="1.22895">
        <ele>150.354377</ele>
        <time>2022-12-30T14:50:03.350Z</time>
      </trkpt>
      <trkpt lat="43.96809" lon="1.22903">
        <ele>150.467397</ele>
        <time>2022-12-30T14:50:07.357Z</time>
      </trkpt>
      <trkpt lat="43.96802" lon="1.22912">
        <ele>150.562479</ele>
        <time>2022-12-30T14:50:10.354Z</time>
      </trkpt>
      <trkpt lat="43.96794" lon="1.2292">
        <ele>150.66532</ele>
        <time>2022-12-30T14:50:13.360Z</time>
      </trkpt>
      <trkpt lat="43.96787" lon="1.22928">
        <ele>150.761348</ele>
        <time>2022-12-30T14:50:16.364Z</time>
      </trkpt>
      <trkpt lat="43.96779" lon="1.22937">
        <ele>150.872213</ele>
        <time>2022-12-30T14:50:19.353Z</time>
      </trkpt>
      <trkpt lat="43.96771" lon="1.22947">
        <ele>150.990018</ele>
        <time>2022-12-30T14:50:22.353Z</time>
      </trkpt>
      <trkpt lat="43.96761" lon="1.22957">
        <ele>151.112723</ele>
        <time>2022-12-30T14:50:25.365Z</time>
      </trkpt>
      <trkpt lat="43.96752" lon="1.22968">
        <ele>151.235374</ele>
        <time>2022-12-30T14:50:28.346Z</time>
      </trkpt>
      <trkpt lat="43.96743" lon="1.22979">
        <ele>151.363675</ele>
        <time>2022-12-30T14:50:31.351Z</time>
      </trkpt>
      <trkpt lat="43.96734" lon="1.2299">
        <ele>151.460429</ele>
        <time>2022-12-30T14:50:34.344Z</time>
      </trkpt>
      <trkpt lat="43.96724" lon="1.23">
        <ele>151.487508</ele>
        <time>2022-12-30T14:50:37.347Z</time>
      </trkpt>
      <trkpt lat="43.96715" lon="1.23012">
        <ele>151.514088</ele>
        <time>2022-12-30T14:50:40.357Z</time>
      </trkpt>
      <trkpt lat="43.96705" lon="1.23023">
        <ele>151.541297</ele>
        <time>2022-12-30T14:50:43.353Z</time>
      </trkpt>
      <trkpt lat="43.96697" lon="1.23035">
        <ele>151.567445</ele>
        <time>2022-12-30T14:50:46.344Z</time>
      </trkpt>
      <trkpt lat="43.96687" lon="1.23047">
        <ele>151.595974</ele>
        <time>2022-12-30T14:50:49.360Z</time>
      </trkpt>
      <trkpt lat="43.96676" lon="1.23059">
        <ele>151.62443</ele>
        <time>2022-12-30T14:50:52.344Z</time>
      </trkpt>
      <trkpt lat="43.96666" lon="1.23071">
        <ele>151.653369</ele>
        <time>2022-12-30T14:50:55.350Z</time>
      </trkpt>
      <trkpt lat="43.96659" lon="1.2308">
        <ele>151.673106</ele>
        <time>2022-12-30T14:50:57.349Z</time>
      </trkpt>
      <trkpt lat="43.9665" lon="1.23091">
        <ele>151.701068</ele>
        <time>2022-12-30T14:51:00.354Z</time>
      </trkpt>
      <trkpt lat="43.9664" lon="1.23103">
        <ele>151.72901</ele>
        <time>2022-12-30T14:51:03.358Z</time>
      </trkpt>
      <trkpt lat="43.9663" lon="1.23114">
        <ele>151.756644</ele>
        <time>2022-12-30T14:51:06.362Z</time>
      </trkpt>
      <trkpt lat="43.96621" lon="1.23126">
        <ele>151.782901</ele>
        <time>2022-12-30T14:51:09.369Z</time>
      </trkpt>
      <trkpt lat="43.96612" lon="1.23136">
        <ele>151.807028</ele>
        <time>2022-12-30T14:51:12.333Z</time>
      </trkpt>
      <trkpt lat="43.96605" lon="1.23145">
        <ele>151.827077</ele>
        <time>2022-12-30T14:51:15.340Z</time>
      </trkpt>
      <trkpt lat="43.96598" lon="1.23155">
        <ele>151.80977</ele>
        <time>2022-12-30T14:51:18.356Z</time>
      </trkpt>
      <trkpt lat="43.96589" lon="1.23164">
        <ele>151.738548</ele>
        <time>2022-12-30T14:51:21.336Z</time>
      </trkpt>
      <trkpt lat="43.96582" lon="1.23173">
        <ele>151.675592</ele>
        <time>2022-12-30T14:51:24.353Z</time>
      </trkpt>
      <trkpt lat="43.96574" lon="1.23183">
        <ele>151.604434</ele>
        <time>2022-12-30T14:51:29.351Z</time>
      </trkpt>
      <trkpt lat="43.96567" lon="1.23192">
        <ele>151.538631</ele>
        <time>2022-12-30T14:51:35.343Z</time>
      </trkpt>
      <trkpt lat="43.96559" lon="1.23201">
        <ele>151.473428</ele>
        <time>2022-12-30T14:51:39.343Z</time>
      </trkpt>
      <trkpt lat="43.96551" lon="1.23211">
        <ele>151.398431</ele>
        <time>2022-12-30T14:51:43.341Z</time>
      </trkpt>
      <trkpt lat="43.96542" lon="1.23221">
        <ele>151.323016</ele>
        <time>2022-12-30T14:51:47.340Z</time>
      </trkpt>
      <trkpt lat="43.96534" lon="1.23231">
        <ele>151.250726</ele>
        <time>2022-12-30T14:51:50.359Z</time>
      </trkpt>
      <trkpt lat="43.96526" lon="1.23241">
        <ele>151.176941</ele>
        <time>2022-12-30T14:51:53.344Z</time>
      </trkpt>
      <trkpt lat="43.96516" lon="1.23252">
        <ele>151.098164</ele>
        <time>2022-12-30T14:51:56.358Z</time>
      </trkpt>
      <trkpt lat="43.96508" lon="1.23262">
        <ele>151.022044</ele>
        <time>2022-12-30T14:51:59.344Z</time>
      </trkpt>
      <trkpt lat="43.96499" lon="1.23272">
        <ele>150.946971</ele>
        <time>2022-12-30T14:52:03.363Z</time>
      </trkpt>
      <trkpt lat="43.9649" lon="1.23283">
        <ele>150.865265</ele>
        <time>2022-12-30T14:52:07.355Z</time>
      </trkpt>
      <trkpt lat="43.96481" lon="1.23294">
        <ele>150.789894</ele>
        <time>2022-12-30T14:52:10.343Z</time>
      </trkpt>
      <trkpt lat="43.96473" lon="1.23304">
        <ele>150.718587</ele>
        <time>2022-12-30T14:52:13.361Z</time>
      </trkpt>
      <trkpt lat="43.96466" lon="1.23312">
        <ele>150.656205</ele>
        <time>2022-12-30T14:52:16.361Z</time>
      </trkpt>
      <trkpt lat="43.96459" lon="1.23321">
        <ele>150.714313</ele>
        <time>2022-12-30T14:52:19.360Z</time>
      </trkpt>
      <trkpt lat="43.96451" lon="1.23331">
        <ele>150.809132</ele>
        <time>2022-12-30T14:52:22.366Z</time>
      </trkpt>
      <trkpt lat="43.96443" lon="1.23339">
        <ele>150.896218</ele>
        <time>2022-12-30T14:52:25.344Z</time>
      </trkpt>
      <trkpt lat="43.96434" lon="1.23348">
        <ele>150.991447</ele>
        <time>2022-12-30T14:52:28.367Z</time>
      </trkpt>
      <trkpt lat="43.96425" lon="1.23356">
        <ele>151.076018</ele>
        <time>2022-12-30T14:52:31.362Z</time>
      </trkpt>
      <trkpt lat="43.96418" lon="1.23365">
        <ele>151.161507</ele>
        <time>2022-12-30T14:52:35.336Z</time>
      </trkpt>
      <trkpt lat="43.9641" lon="1.23374">
        <ele>151.25164</ele>
        <time>2022-12-30T14:52:39.337Z</time>
      </trkpt>
      <trkpt lat="43.96402" lon="1.23386">
        <ele>151.355611</ele>
        <time>2022-12-30T14:52:42.342Z</time>
      </trkpt>
      <trkpt lat="43.96395" lon="1.23397">
        <ele>151.447521</ele>
        <time>2022-12-30T14:52:44.360Z</time>
      </trkpt>
      <trkpt lat="43.96387" lon="1.23407">
        <ele>151.541064</ele>
        <time>2022-12-30T14:52:46.365Z</time>
      </trkpt>
      <trkpt lat="43.96379" lon="1.23417">
        <ele>151.631642</ele>
        <time>2022-12-30T14:52:48.341Z</time>
      </trkpt>
      <trkpt lat="43.96372" lon="1.23427">
        <ele>151.717131</ele>
        <time>2022-12-30T14:52:50.344Z</time>
      </trkpt>
      <trkpt lat="43.96363" lon="1.23437">
        <ele>151.820439</ele>
        <time>2022-12-30T14:52:53.362Z</time>
      </trkpt>
      <trkpt lat="43.96355" lon="1.23445">
        <ele>151.900762</ele>
        <time>2022-12-30T14:52:56.345Z</time>
      </trkpt>
      <trkpt lat="43.96348" lon="1.23453">
        <ele>151.979692</ele>
        <time>2022-12-30T14:52:59.342Z</time>
      </trkpt>
      <trkpt lat="43.96341" lon="1.23461">
        <ele>152.05812</ele>
        <time>2022-12-30T14:53:02.341Z</time>
      </trkpt>
      <trkpt lat="43.96332" lon="1.23472">
        <ele>152.163802</ele>
        <time>2022-12-30T14:53:06.345Z</time>
      </trkpt>
      <trkpt lat="43.96324" lon="1.2348">
        <ele>152.164643</ele>
        <time>2022-12-30T14:53:09.356Z</time>
      </trkpt>
      <trkpt lat="43.96317" lon="1.23488">
        <ele>152.100129</ele>
        <time>2022-12-30T14:53:12.346Z</time>
      </trkpt>
      <trkpt lat="43.9631" lon="1.23496">
        <ele>152.037204</ele>
        <time>2022-12-30T14:53:15.364Z</time>
      </trkpt>
      <trkpt lat="43.96302" lon="1.23508">
        <ele>151.959988</ele>
        <time>2022-12-30T14:53:19.354Z</time>
      </trkpt>
      <trkpt lat="43.96293" lon="1.23518">
        <ele>151.879477</ele>
        <time>2022-12-30T14:53:23.342Z</time>
      </trkpt>
      <trkpt lat="43.96286" lon="1.23529">
        <ele>151.807741</ele>
        <time>2022-12-30T14:53:27.339Z</time>
      </trkpt>
      <trkpt lat="43.96277" lon="1.23539">
        <ele>151.730003</ele>
        <time>2022-12-30T14:53:31.340Z</time>
      </trkpt>
      <trkpt lat="43.96269" lon="1.23547">
        <ele>151.661635</ele>
        <time>2022-12-30T14:53:34.338Z</time>
      </trkpt>
      <trkpt lat="43.96261" lon="1.23552">
        <ele>151.599272</ele>
        <time>2022-12-30T14:53:37.341Z</time>
      </trkpt>
      <trkpt lat="43.96251" lon="1.23558">
        <ele>151.525249</ele>
        <time>2022-12-30T14:53:41.352Z</time>
      </trkpt>
      <trkpt lat="43.96242" lon="1.23563">
        <ele>151.458703</ele>
        <time>2022-12-30T14:53:44.362Z</time>
      </trkpt>
      <trkpt lat="43.96232" lon="1.23569">
        <ele>151.385056</ele>
        <time>2022-12-30T14:53:47.357Z</time>
      </trkpt>
      <trkpt lat="43.96222" lon="1.23575">
        <ele>151.31</ele>
        <time>2022-12-30T14:53:50.347Z</time>
      </trkpt>
      <trkpt lat="43.96212" lon="1.23581">
        <ele>151.234116</ele>
        <time>2022-12-30T14:53:53.356Z</time>
      </trkpt>
      <trkpt lat="43.96202" lon="1.23588">
        <ele>151.158997</ele>
        <time>2022-12-30T14:53:56.341Z</time>
      </trkpt>
      <trkpt lat="43.96192" lon="1.23595">
        <ele>151.083318</ele>
        <time>2022-12-30T14:53:59.360Z</time>
      </trkpt>
      <trkpt lat="43.96182" lon="1.23601">
        <ele>151.002862</ele>
        <time>2022-12-30T14:54:02.348Z</time>
      </trkpt>
      <trkpt lat="43.96171" lon="1.23608">
        <ele>150.96792</ele>
        <time>2022-12-30T14:54:05.361Z</time>
      </trkpt>
      <trkpt lat="43.9616" lon="1.23613">
        <ele>150.97178</ele>
        <time>2022-12-30T14:54:08.340Z</time>
      </trkpt>
      <trkpt lat="43.96152" lon="1.2362">
        <ele>150.975296</ele>
        <time>2022-12-30T14:54:11.362Z</time>
      </trkpt>
      <trkpt lat="43.96142" lon="1.23625">
        <ele>150.978993</ele>
        <time>2022-12-30T14:54:15.347Z</time>
      </trkpt>
      <trkpt lat="43.96133" lon="1.23629">
        <ele>150.982209</ele>
        <time>2022-12-30T14:54:19.345Z</time>
      </trkpt>
      <trkpt lat="43.96122" lon="1.23631">
        <ele>150.986016</ele>
        <time>2022-12-30T14:54:24.344Z</time>
      </trkpt>
      <trkpt lat="43.96113" lon="1.23625">
        <ele>150.98957</ele>
        <time>2022-12-30T14:54:28.345Z</time>
      </trkpt>
      <trkpt lat="43.96105" lon="1.23619">
        <ele>150.992805</ele>
        <time>2022-12-30T14:54:31.359Z</time>
      </trkpt>
      <trkpt lat="43.96096" lon="1.23614">
        <ele>150.996241</ele>
        <time>2022-12-30T14:54:35.363Z</time>
      </trkpt>
      <trkpt lat="43.96086" lon="1.23612">
        <ele>150.999752</ele>
        <time>2022-12-30T14:54:40.334Z</time>
      </trkpt>
      <trkpt lat="43.96076" lon="1.23611">
        <ele>151.003247</ele>
        <time>2022-12-30T14:54:44.347Z</time>
      </trkpt>
      <trkpt lat="43.96066" lon="1.23613">
        <ele>151.006492</ele>
        <time>2022-12-30T14:54:47.345Z</time>
      </trkpt>
      <trkpt lat="43.96056" lon="1.23618">
        <ele>151.010426</ele>
        <time>2022-12-30T14:54:51.345Z</time>
      </trkpt>
      <trkpt lat="43.96047" lon="1.23625">
        <ele>151.013826</ele>
        <time>2022-12-30T14:54:55.340Z</time>
      </trkpt>
      <trkpt lat="43.96037" lon="1.2363">
        <ele>151.017505</ele>
        <time>2022-12-30T14:54:59.354Z</time>
      </trkpt>
      <trkpt lat="43.96028" lon="1.23637">
        <ele>151.021343</ele>
        <time>2022-12-30T14:55:03.337Z</time>
      </trkpt>
      <trkpt lat="43.96019" lon="1.23644">
        <ele>151.024812</ele>
        <time>2022-12-30T14:55:07.357Z</time>
      </trkpt>
      <trkpt lat="43.96014" lon="1.23648">
        <ele>151.026815</ele>
        <time>2022-12-30T14:55:27.690Z</time>
      </trkpt>
      <trkpt lat="43.96008" lon="1.2366">
        <ele>151.041856</ele>
        <time>2022-12-30T15:02:26.338Z</time>
      </trkpt>
      <trkpt lat="43.96001" lon="1.23669">
        <ele>151.065875</ele>
        <time>2022-12-30T15:02:31.346Z</time>
      </trkpt>
      <trkpt lat="43.95994" lon="1.23681">
        <ele>151.090942</ele>
        <time>2022-12-30T15:02:36.337Z</time>
      </trkpt>
      <trkpt lat="43.95988" lon="1.23693">
        <ele>151.115366</ele>
        <time>2022-12-30T15:02:41.358Z</time>
      </trkpt>
      <trkpt lat="43.95983" lon="1.23707">
        <ele>151.14098</ele>
        <time>2022-12-30T15:02:46.354Z</time>
      </trkpt>
      <trkpt lat="43.95984" lon="1.23721">
        <ele>151.165397</ele>
        <time>2022-12-30T15:02:52.333Z</time>
      </trkpt>
      <trkpt lat="43.95982" lon="1.23734">
        <ele>151.187642</ele>
        <time>2022-12-30T15:02:57.354Z</time>
      </trkpt>
      <trkpt lat="43.95974" lon="1.23742">
        <ele>151.210524</ele>
        <time>2022-12-30T15:03:02.342Z</time>
      </trkpt>
      <trkpt lat="43.95965" lon="1.23748">
        <ele>151.233557</ele>
        <time>2022-12-30T15:03:06.340Z</time>
      </trkpt>
      <trkpt lat="43.95953" lon="1.23749">
        <ele>151.260739</ele>
        <time>2022-12-30T15:03:10.343Z</time>
      </trkpt>
      <trkpt lat="43.95941" lon="1.23744">
        <ele>151.289063</ele>
        <time>2022-12-30T15:03:14.338Z</time>
      </trkpt>
      <trkpt lat="43.95931" lon="1.23743">
        <ele>151.313229</ele>
        <time>2022-12-30T15:03:18.351Z</time>
      </trkpt>
      <trkpt lat="43.9592" lon="1.23747">
        <ele>151.338644</ele>
        <time>2022-12-30T15:03:23.347Z</time>
      </trkpt>
      <trkpt lat="43.95909" lon="1.23754">
        <ele>151.366742</ele>
        <time>2022-12-30T15:03:27.340Z</time>
      </trkpt>
      <trkpt lat="43.95901" lon="1.23759">
        <ele>151.388305</ele>
        <time>2022-12-30T15:03:30.343Z</time>
      </trkpt>
      <trkpt lat="43.95892" lon="1.23765">
        <ele>151.411339</ele>
        <time>2022-12-30T15:03:33.345Z</time>
      </trkpt>
      <trkpt lat="43.95882" lon="1.2377">
        <ele>151.435261</ele>
        <time>2022-12-30T15:03:36.346Z</time>
      </trkpt>
      <trkpt lat="43.95873" lon="1.23776">
        <ele>151.484646</ele>
        <time>2022-12-30T15:03:39.336Z</time>
      </trkpt>
      <trkpt lat="43.95864" lon="1.23784">
        <ele>151.551162</ele>
        <time>2022-12-30T15:03:42.356Z</time>
      </trkpt>
      <trkpt lat="43.95857" lon="1.23793">
        <ele>151.613023</ele>
        <time>2022-12-30T15:03:45.352Z</time>
      </trkpt>
      <trkpt lat="43.9585" lon="1.23806">
        <ele>151.689182</ele>
        <time>2022-12-30T15:03:49.347Z</time>
      </trkpt>
      <trkpt lat="43.95844" lon="1.23816">
        <ele>151.751055</ele>
        <time>2022-12-30T15:03:52.349Z</time>
      </trkpt>
      <trkpt lat="43.95838" lon="1.23827">
        <ele>151.815698</ele>
        <time>2022-12-30T15:03:55.346Z</time>
      </trkpt>
      <trkpt lat="43.95831" lon="1.23838">
        <ele>151.882877</ele>
        <time>2022-12-30T15:03:58.337Z</time>
      </trkpt>
      <trkpt lat="43.95825" lon="1.23847">
        <ele>151.941628</ele>
        <time>2022-12-30T15:04:01.343Z</time>
      </trkpt>
      <trkpt lat="43.95818" lon="1.23858">
        <ele>152.006684</ele>
        <time>2022-12-30T15:04:05.353Z</time>
      </trkpt>
      <trkpt lat="43.95812" lon="1.23868">
        <ele>152.067923</ele>
        <time>2022-12-30T15:04:09.353Z</time>
      </trkpt>
      <trkpt lat="43.95806" lon="1.23878">
        <ele>152.13304</ele>
        <time>2022-12-30T15:04:13.353Z</time>
      </trkpt>
      <trkpt lat="43.95799" lon="1.23891">
        <ele>152.206293</ele>
        <time>2022-12-30T15:04:17.334Z</time>
      </trkpt>
      <trkpt lat="43.95793" lon="1.23905">
        <ele>152.283107</ele>
        <time>2022-12-30T15:04:21.361Z</time>
      </trkpt>
      <trkpt lat="43.95787" lon="1.23915">
        <ele>152.34239</ele>
        <time>2022-12-30T15:04:24.337Z</time>
      </trkpt>
      <trkpt lat="43.95782" lon="1.23925">
        <ele>152.402082</ele>
        <time>2022-12-30T15:04:27.355Z</time>
      </trkpt>
      <trkpt lat="43.95776" lon="1.23935">
        <ele>152.46167</ele>
        <time>2022-12-30T15:04:30.354Z</time>
      </trkpt>
      <trkpt lat="43.9577" lon="1.23946">
        <ele>152.52473</ele>
        <time>2022-12-30T15:04:33.353Z</time>
      </trkpt>
      <trkpt lat="43.95764" lon="1.23956">
        <ele>152.586253</ele>
        <time>2022-12-30T15:04:36.360Z</time>
      </trkpt>
      <trkpt lat="43.95759" lon="1.23967">
        <ele>152.650089</ele>
        <time>2022-12-30T15:04:39.351Z</time>
      </trkpt>
      <trkpt lat="43.95753" lon="1.23977">
        <ele>152.71404</ele>
        <time>2022-12-30T15:04:42.343Z</time>
      </trkpt>
      <trkpt lat="43.95747" lon="1.23988">
        <ele>152.778507</ele>
        <time>2022-12-30T15:04:45.347Z</time>
      </trkpt>
      <trkpt lat="43.95741" lon="1.23998">
        <ele>152.842154</ele>
        <time>2022-12-30T15:04:48.359Z</time>
      </trkpt>
      <trkpt lat="43.95735" lon="1.2401">
        <ele>152.914837</ele>
        <time>2022-12-30T15:04:52.345Z</time>
      </trkpt>
      <trkpt lat="43.95728" lon="1.24022">
        <ele>152.986364</ele>
        <time>2022-12-30T15:04:57.341Z</time>
      </trkpt>
      <trkpt lat="43.95723" lon="1.24032">
        <ele>153.04764</ele>
        <time>2022-12-30T15:05:01.339Z</time>
      </trkpt>
      <trkpt lat="43.95717" lon="1.24044">
        <ele>153.118344</ele>
        <time>2022-12-30T15:05:06.363Z</time>
      </trkpt>
      <trkpt lat="43.9571" lon="1.24056">
        <ele>153.189836</ele>
        <time>2022-12-30T15:05:11.338Z</time>
      </trkpt>
      <trkpt lat="43.95704" lon="1.24068">
        <ele>153.262158</ele>
        <time>2022-12-30T15:05:16.335Z</time>
      </trkpt>
      <trkpt lat="43.95697" lon="1.24079">
        <ele>153.332585</ele>
        <time>2022-12-30T15:05:21.338Z</time>
      </trkpt>
      <trkpt lat="43.95691" lon="1.24089">
        <ele>153.397793</ele>
        <time>2022-12-30T15:05:26.342Z</time>
      </trkpt>
      <trkpt lat="43.95686" lon="1.241">
        <ele>153.460201</ele>
        <time>2022-12-30T15:05:31.337Z</time>
      </trkpt>
      <trkpt lat="43.95693" lon="1.24108">
        <ele>153.52212</ele>
        <time>2022-12-30T15:05:40.358Z</time>
      </trkpt>
      <trkpt lat="43.95701" lon="1.24115">
        <ele>153.588127</ele>
        <time>2022-12-30T15:05:53.338Z</time>
      </trkpt>
      <trkpt lat="43.95709" lon="1.24123">
        <ele>153.649171</ele>
        <time>2022-12-30T15:06:00.347Z</time>
      </trkpt>
      <trkpt lat="43.95703" lon="1.24134">
        <ele>153.715568</ele>
        <time>2022-12-30T15:06:13.337Z</time>
      </trkpt>
      <trkpt lat="43.95697" lon="1.24144">
        <ele>153.778573</ele>
        <time>2022-12-30T15:06:19.337Z</time>
      </trkpt>
      <trkpt lat="43.95689" lon="1.24157">
        <ele>153.781651</ele>
        <time>2022-12-30T15:06:23.360Z</time>
      </trkpt>
      <trkpt lat="43.95683" lon="1.24168">
        <ele>153.694986</ele>
        <time>2022-12-30T15:06:27.347Z</time>
      </trkpt>
      <trkpt lat="43.95677" lon="1.2418">
        <ele>153.609381</ele>
        <time>2022-12-30T15:06:31.340Z</time>
      </trkpt>
      <trkpt lat="43.95671" lon="1.24193">
        <ele>153.519906</ele>
        <time>2022-12-30T15:06:36.340Z</time>
      </trkpt>
      <trkpt lat="43.95665" lon="1.24204">
        <ele>153.438945</ele>
        <time>2022-12-30T15:06:40.350Z</time>
      </trkpt>
      <trkpt lat="43.95658" lon="1.24216">
        <ele>153.347013</ele>
        <time>2022-12-30T15:06:44.341Z</time>
      </trkpt>
      <trkpt lat="43.95652" lon="1.24227">
        <ele>153.267896</ele>
        <time>2022-12-30T15:06:47.357Z</time>
      </trkpt>
      <trkpt lat="43.95646" lon="1.24239">
        <ele>153.177497</ele>
        <time>2022-12-30T15:06:50.347Z</time>
      </trkpt>
      <trkpt lat="43.95639" lon="1.2425">
        <ele>153.095173</ele>
        <time>2022-12-30T15:06:53.344Z</time>
      </trkpt>
      <trkpt lat="43.95634" lon="1.24261">
        <ele>153.017183</ele>
        <time>2022-12-30T15:06:56.346Z</time>
      </trkpt>
      <trkpt lat="43.95628" lon="1.24271">
        <ele>152.94352</ele>
        <time>2022-12-30T15:06:59.361Z</time>
      </trkpt>
      <trkpt lat="43.95621" lon="1.24283">
        <ele>152.853528</ele>
        <time>2022-12-30T15:07:02.354Z</time>
      </trkpt>
      <trkpt lat="43.95614" lon="1.24297">
        <ele>152.747825</ele>
        <time>2022-12-30T15:07:05.335Z</time>
      </trkpt>
      <trkpt lat="43.95606" lon="1.24311">
        <ele>152.641138</ele>
        <time>2022-12-30T15:07:08.344Z</time>
      </trkpt>
      <trkpt lat="43.95598" lon="1.24325">
        <ele>152.535346</ele>
        <time>2022-12-30T15:07:11.335Z</time>
      </trkpt>
      <trkpt lat="43.95591" lon="1.24339">
        <ele>152.435867</ele>
        <time>2022-12-30T15:07:14.360Z</time>
      </trkpt>
      <trkpt lat="43.95583" lon="1.24353">
        <ele>152.372884</ele>
        <time>2022-12-30T15:07:17.361Z</time>
      </trkpt>
      <trkpt lat="43.95577" lon="1.24367">
        <ele>152.490837</ele>
        <time>2022-12-30T15:07:20.334Z</time>
      </trkpt>
      <trkpt lat="43.9557" lon="1.24379">
        <ele>152.598286</ele>
        <time>2022-12-30T15:07:23.358Z</time>
      </trkpt>
      <trkpt lat="43.95564" lon="1.2439">
        <ele>152.696443</ele>
        <time>2022-12-30T15:07:26.369Z</time>
      </trkpt>
      <trkpt lat="43.95558" lon="1.24404">
        <ele>152.814397</ele>
        <time>2022-12-30T15:07:30.337Z</time>
      </trkpt>
      <trkpt lat="43.95552" lon="1.24415">
        <ele>152.907993</ele>
        <time>2022-12-30T15:07:33.360Z</time>
      </trkpt>
      <trkpt lat="43.95547" lon="1.24426">
        <ele>153.003239</ele>
        <time>2022-12-30T15:07:36.357Z</time>
      </trkpt>
      <trkpt lat="43.9554" lon="1.24437">
        <ele>153.104332</ele>
        <time>2022-12-30T15:07:39.359Z</time>
      </trkpt>
      <trkpt lat="43.95533" lon="1.24448">
        <ele>153.211412</ele>
        <time>2022-12-30T15:07:42.342Z</time>
      </trkpt>
      <trkpt lat="43.95526" lon="1.2446">
        <ele>153.325423</ele>
        <time>2022-12-30T15:07:45.369Z</time>
      </trkpt>
      <trkpt lat="43.95517" lon="1.24473">
        <ele>153.45286</ele>
        <time>2022-12-30T15:07:48.359Z</time>
      </trkpt>
      <trkpt lat="43.9551" lon="1.24486">
        <ele>153.567895</ele>
        <time>2022-12-30T15:07:51.360Z</time>
      </trkpt>
      <trkpt lat="43.95503" lon="1.24499">
        <ele>153.678725</ele>
        <time>2022-12-30T15:07:54.358Z</time>
      </trkpt>
      <trkpt lat="43.95496" lon="1.24511">
        <ele>153.787298</ele>
        <time>2022-12-30T15:07:57.354Z</time>
      </trkpt>
      <trkpt lat="43.9549" lon="1.24521">
        <ele>153.887516</ele>
        <time>2022-12-30T15:08:00.337Z</time>
      </trkpt>
      <trkpt lat="43.95483" lon="1.24534">
        <ele>153.998347</ele>
        <time>2022-12-30T15:08:03.342Z</time>
      </trkpt>
      <trkpt lat="43.95476" lon="1.24548">
        <ele>154.116703</ele>
        <time>2022-12-30T15:08:06.367Z</time>
      </trkpt>
      <trkpt lat="43.95469" lon="1.24561">
        <ele>154.02843</ele>
        <time>2022-12-30T15:08:09.338Z</time>
      </trkpt>
      <trkpt lat="43.95461" lon="1.24574">
        <ele>153.918871</ele>
        <time>2022-12-30T15:08:12.349Z</time>
      </trkpt>
      <trkpt lat="43.95454" lon="1.24587">
        <ele>153.813085</ele>
        <time>2022-12-30T15:08:15.347Z</time>
      </trkpt>
      <trkpt lat="43.95447" lon="1.24599">
        <ele>153.708695</ele>
        <time>2022-12-30T15:08:18.345Z</time>
      </trkpt>
      <trkpt lat="43.95439" lon="1.24613">
        <ele>153.594828</ele>
        <time>2022-12-30T15:08:21.361Z</time>
      </trkpt>
      <trkpt lat="43.95432" lon="1.24626">
        <ele>153.488342</ele>
        <time>2022-12-30T15:08:24.365Z</time>
      </trkpt>
      <trkpt lat="43.95425" lon="1.24638">
        <ele>153.387857</ele>
        <time>2022-12-30T15:08:27.343Z</time>
      </trkpt>
      <trkpt lat="43.9542" lon="1.24648">
        <ele>153.306463</ele>
        <time>2022-12-30T15:08:30.339Z</time>
      </trkpt>
      <trkpt lat="43.95414" lon="1.24661">
        <ele>153.206519</ele>
        <time>2022-12-30T15:08:34.336Z</time>
      </trkpt>
      <trkpt lat="43.95408" lon="1.24674">
        <ele>153.10233</ele>
        <time>2022-12-30T15:08:38.350Z</time>
      </trkpt>
      <trkpt lat="43.95401" lon="1.24685">
        <ele>153.008787</ele>
        <time>2022-12-30T15:08:41.356Z</time>
      </trkpt>
      <trkpt lat="43.95395" lon="1.24697">
        <ele>152.908822</ele>
        <time>2022-12-30T15:08:44.349Z</time>
      </trkpt>
      <trkpt lat="43.95388" lon="1.2471">
        <ele>152.807782</ele>
        <time>2022-12-30T15:08:47.353Z</time>
      </trkpt>
      <trkpt lat="43.95381" lon="1.24722">
        <ele>152.704678</ele>
        <time>2022-12-30T15:08:50.344Z</time>
      </trkpt>
      <trkpt lat="43.95375" lon="1.24735">
        <ele>152.60103</ele>
        <time>2022-12-30T15:08:53.336Z</time>
      </trkpt>
      <trkpt lat="43.95368" lon="1.24748">
        <ele>152.496286</ele>
        <time>2022-12-30T15:08:56.343Z</time>
      </trkpt>
      <trkpt lat="43.9536" lon="1.2476">
        <ele>152.353681</ele>
        <time>2022-12-30T15:08:59.349Z</time>
      </trkpt>
      <trkpt lat="43.95352" lon="1.24772">
        <ele>152.203784</ele>
        <time>2022-12-30T15:09:02.347Z</time>
      </trkpt>
      <trkpt lat="43.95344" lon="1.24783">
        <ele>152.04978</ele>
        <time>2022-12-30T15:09:05.360Z</time>
      </trkpt>
      <trkpt lat="43.95334" lon="1.24795">
        <ele>151.894159</ele>
        <time>2022-12-30T15:09:08.342Z</time>
      </trkpt>
      <trkpt lat="43.95325" lon="1.24804">
        <ele>151.742015</ele>
        <time>2022-12-30T15:09:11.356Z</time>
      </trkpt>
      <trkpt lat="43.95314" lon="1.24813">
        <ele>151.586499</ele>
        <time>2022-12-30T15:09:14.336Z</time>
      </trkpt>
      <trkpt lat="43.95304" lon="1.24822">
        <ele>151.430833</ele>
        <time>2022-12-30T15:09:17.362Z</time>
      </trkpt>
      <trkpt lat="43.95294" lon="1.24828">
        <ele>151.285587</ele>
        <time>2022-12-30T15:09:20.358Z</time>
      </trkpt>
      <trkpt lat="43.95285" lon="1.24836">
        <ele>151.159185</ele>
        <time>2022-12-30T15:09:23.333Z</time>
      </trkpt>
      <trkpt lat="43.95277" lon="1.24842">
        <ele>151.043941</ele>
        <time>2022-12-30T15:09:26.343Z</time>
      </trkpt>
      <trkpt lat="43.95268" lon="1.2485">
        <ele>150.90847</ele>
        <time>2022-12-30T15:09:30.339Z</time>
      </trkpt>
      <trkpt lat="43.9526" lon="1.24856">
        <ele>150.787441</ele>
        <time>2022-12-30T15:09:33.348Z</time>
      </trkpt>
      <trkpt lat="43.95252" lon="1.24864">
        <ele>150.659978</ele>
        <time>2022-12-30T15:09:36.342Z</time>
      </trkpt>
      <trkpt lat="43.95243" lon="1.24871">
        <ele>150.528909</ele>
        <time>2022-12-30T15:09:39.358Z</time>
      </trkpt>
      <trkpt lat="43.95234" lon="1.24879">
        <ele>150.389362</ele>
        <time>2022-12-30T15:09:42.349Z</time>
      </trkpt>
      <trkpt lat="43.95223" lon="1.24887">
        <ele>150.239317</ele>
        <time>2022-12-30T15:09:45.343Z</time>
      </trkpt>
      <trkpt lat="43.95214" lon="1.24895">
        <ele>150.258508</ele>
        <time>2022-12-30T15:09:48.334Z</time>
      </trkpt>
      <trkpt lat="43.95204" lon="1.24902">
        <ele>150.346278</ele>
        <time>2022-12-30T15:09:51.345Z</time>
      </trkpt>
      <trkpt lat="43.95194" lon="1.24911">
        <ele>150.437658</ele>
        <time>2022-12-30T15:09:54.343Z</time>
      </trkpt>
      <trkpt lat="43.95184" lon="1.24919">
        <ele>150.533832</ele>
        <time>2022-12-30T15:09:57.339Z</time>
      </trkpt>
      <trkpt lat="43.95174" lon="1.24927">
        <ele>150.626664</ele>
        <time>2022-12-30T15:10:00.345Z</time>
      </trkpt>
      <trkpt lat="43.95163" lon="1.24937">
        <ele>150.726217</ele>
        <time>2022-12-30T15:10:03.360Z</time>
      </trkpt>
      <trkpt lat="43.95154" lon="1.24944">
        <ele>150.814437</ele>
        <time>2022-12-30T15:10:06.366Z</time>
      </trkpt>
      <trkpt lat="43.95146" lon="1.24952">
        <ele>150.894578</ele>
        <time>2022-12-30T15:10:09.357Z</time>
      </trkpt>
      <trkpt lat="43.95137" lon="1.24959">
        <ele>150.973825</ele>
        <time>2022-12-30T15:10:12.335Z</time>
      </trkpt>
      <trkpt lat="43.95128" lon="1.24965">
        <ele>151.053629</ele>
        <time>2022-12-30T15:10:15.341Z</time>
      </trkpt>
      <trkpt lat="43.95119" lon="1.24973">
        <ele>151.138376</ele>
        <time>2022-12-30T15:10:18.347Z</time>
      </trkpt>
      <trkpt lat="43.9511" lon="1.24981">
        <ele>151.225147</ele>
        <time>2022-12-30T15:10:21.339Z</time>
      </trkpt>
      <trkpt lat="43.951" lon="1.24989">
        <ele>151.313197</ele>
        <time>2022-12-30T15:10:24.356Z</time>
      </trkpt>
      <trkpt lat="43.9509" lon="1.24997">
        <ele>151.407819</ele>
        <time>2022-12-30T15:10:27.343Z</time>
      </trkpt>
      <trkpt lat="43.9508" lon="1.25005">
        <ele>151.50244</ele>
        <time>2022-12-30T15:10:30.337Z</time>
      </trkpt>
      <trkpt lat="43.9507" lon="1.25013">
        <ele>151.589974</ele>
        <time>2022-12-30T15:10:33.363Z</time>
      </trkpt>
      <trkpt lat="43.9506" lon="1.25022">
        <ele>151.771976</ele>
        <time>2022-12-30T15:10:36.337Z</time>
      </trkpt>
      <trkpt lat="43.9505" lon="1.2503">
        <ele>152.027837</ele>
        <time>2022-12-30T15:10:39.344Z</time>
      </trkpt>
      <trkpt lat="43.9504" lon="1.25039">
        <ele>152.274881</ele>
        <time>2022-12-30T15:10:42.340Z</time>
      </trkpt>
      <trkpt lat="43.9503" lon="1.25047">
        <ele>152.524522</ele>
        <time>2022-12-30T15:10:45.336Z</time>
      </trkpt>
      <trkpt lat="43.9502" lon="1.25056">
        <ele>152.77368</ele>
        <time>2022-12-30T15:10:48.343Z</time>
      </trkpt>
      <trkpt lat="43.95012" lon="1.25064">
        <ele>152.9803</ele>
        <time>2022-12-30T15:10:51.343Z</time>
      </trkpt>
      <trkpt lat="43.95004" lon="1.25071">
        <ele>153.175971</ele>
        <time>2022-12-30T15:10:54.348Z</time>
      </trkpt>
      <trkpt lat="43.94995" lon="1.25079">
        <ele>153.395833</ele>
        <time>2022-12-30T15:10:58.331Z</time>
      </trkpt>
      <trkpt lat="43.94985" lon="1.25069">
        <ele>153.666708</ele>
        <time>2022-12-30T15:11:22.332Z</time>
      </trkpt>
      <trkpt lat="43.94979" lon="1.25058">
        <ele>153.879322</ele>
        <time>2022-12-30T15:11:30.354Z</time>
      </trkpt>
      <trkpt lat="43.94968" lon="1.25057">
        <ele>154.103819</ele>
        <time>2022-12-30T15:11:34.332Z</time>
      </trkpt>
      <trkpt lat="43.94957" lon="1.25067">
        <ele>154.371239</ele>
        <time>2022-12-30T15:11:37.339Z</time>
      </trkpt>
      <trkpt lat="43.94948" lon="1.25075">
        <ele>154.614504</ele>
        <time>2022-12-30T15:11:40.338Z</time>
      </trkpt>
      <trkpt lat="43.94939" lon="1.25082">
        <ele>154.82778</ele>
        <time>2022-12-30T15:11:43.335Z</time>
      </trkpt>
      <trkpt lat="43.94931" lon="1.25088">
        <ele>155.022663</ele>
        <time>2022-12-30T15:11:46.342Z</time>
      </trkpt>
      <trkpt lat="43.94922" lon="1.25095">
        <ele>155.23739</ele>
        <time>2022-12-30T15:11:50.356Z</time>
      </trkpt>
      <trkpt lat="43.94914" lon="1.25104">
        <ele>155.438919</ele>
        <time>2022-12-30T15:11:54.336Z</time>
      </trkpt>
      <trkpt lat="43.94903" lon="1.25112">
        <ele>155.489976</ele>
        <time>2022-12-30T15:11:58.342Z</time>
      </trkpt>
      <trkpt lat="43.94895" lon="1.25119">
        <ele>155.531517</ele>
        <time>2022-12-30T15:12:01.343Z</time>
      </trkpt>
      <trkpt lat="43.94887" lon="1.25126">
        <ele>155.573749</ele>
        <time>2022-12-30T15:12:04.356Z</time>
      </trkpt>
      <trkpt lat="43.94878" lon="1.25134">
        <ele>155.618617</ele>
        <time>2022-12-30T15:12:07.334Z</time>
      </trkpt>
      <trkpt lat="43.94869" lon="1.25142">
        <ele>155.665504</ele>
        <time>2022-12-30T15:12:10.339Z</time>
      </trkpt>
      <trkpt lat="43.9486" lon="1.2515">
        <ele>155.711259</ele>
        <time>2022-12-30T15:12:13.356Z</time>
      </trkpt>
      <trkpt lat="43.9485" lon="1.25158">
        <ele>155.759565</ele>
        <time>2022-12-30T15:12:16.334Z</time>
      </trkpt>
      <trkpt lat="43.9484" lon="1.25167">
        <ele>155.808842</ele>
        <time>2022-12-30T15:12:19.349Z</time>
      </trkpt>
      <trkpt lat="43.9483" lon="1.25175">
        <ele>155.860829</ele>
        <time>2022-12-30T15:12:22.339Z</time>
      </trkpt>
      <trkpt lat="43.9482" lon="1.25183">
        <ele>155.911587</ele>
        <time>2022-12-30T15:12:25.340Z</time>
      </trkpt>
      <trkpt lat="43.94809" lon="1.25192">
        <ele>155.963415</ele>
        <time>2022-12-30T15:12:28.331Z</time>
      </trkpt>
      <trkpt lat="43.94799" lon="1.25201">
        <ele>156.016359</ele>
        <time>2022-12-30T15:12:31.359Z</time>
      </trkpt>
      <trkpt lat="43.94789" lon="1.25209">
        <ele>156.06556</ele>
        <time>2022-12-30T15:12:34.336Z</time>
      </trkpt>
      <trkpt lat="43.94778" lon="1.25217">
        <ele>156.116782</ele>
        <time>2022-12-30T15:12:37.333Z</time>
      </trkpt>
      <trkpt lat="43.94768" lon="1.25226">
        <ele>156.170832</ele>
        <time>2022-12-30T15:12:40.355Z</time>
      </trkpt>
      <trkpt lat="43.94757" lon="1.25236">
        <ele>156.220199</ele>
        <time>2022-12-30T15:12:43.350Z</time>
      </trkpt>
      <trkpt lat="43.94746" lon="1.25245">
        <ele>156.260743</ele>
        <time>2022-12-30T15:12:46.352Z</time>
      </trkpt>
      <trkpt lat="43.94736" lon="1.25253">
        <ele>156.299031</ele>
        <time>2022-12-30T15:12:49.342Z</time>
      </trkpt>
      <trkpt lat="43.94726" lon="1.25262">
        <ele>156.33671</ele>
        <time>2022-12-30T15:12:52.336Z</time>
      </trkpt>
      <trkpt lat="43.94715" lon="1.2527">
        <ele>156.374497</ele>
        <time>2022-12-30T15:12:55.362Z</time>
      </trkpt>
      <trkpt lat="43.94705" lon="1.25279">
        <ele>156.413295</ele>
        <time>2022-12-30T15:12:58.335Z</time>
      </trkpt>
      <trkpt lat="43.94694" lon="1.25288">
        <ele>156.452566</ele>
        <time>2022-12-30T15:13:01.341Z</time>
      </trkpt>
      <trkpt lat="43.94683" lon="1.25296">
        <ele>156.492632</ele>
        <time>2022-12-30T15:13:04.338Z</time>
      </trkpt>
      <trkpt lat="43.94672" lon="1.25304">
        <ele>156.532541</ele>
        <time>2022-12-30T15:13:07.332Z</time>
      </trkpt>
      <trkpt lat="43.94661" lon="1.25312">
        <ele>156.571327</ele>
        <time>2022-12-30T15:13:10.341Z</time>
      </trkpt>
      <trkpt lat="43.94649" lon="1.2532">
        <ele>156.61398</ele>
        <time>2022-12-30T15:13:13.363Z</time>
      </trkpt>
      <trkpt lat="43.94638" lon="1.25327">
        <ele>156.653967</ele>
        <time>2022-12-30T15:13:16.339Z</time>
      </trkpt>
      <trkpt lat="43.94626" lon="1.25333">
        <ele>156.693445</ele>
        <time>2022-12-30T15:13:19.334Z</time>
      </trkpt>
      <trkpt lat="43.94613" lon="1.25339">
        <ele>156.735787</ele>
        <time>2022-12-30T15:13:22.346Z</time>
      </trkpt>
      <trkpt lat="43.94602" lon="1.25344">
        <ele>156.774281</ele>
        <time>2022-12-30T15:13:25.341Z</time>
      </trkpt>
      <trkpt lat="43.94592" lon="1.25348">
        <ele>156.777399</ele>
        <time>2022-12-30T15:13:28.354Z</time>
      </trkpt>
      <trkpt lat="43.94583" lon="1.25352">
        <ele>156.776727</ele>
        <time>2022-12-30T15:13:31.344Z</time>
      </trkpt>
      <trkpt lat="43.94574" lon="1.25356">
        <ele>156.776003</ele>
        <time>2022-12-30T15:13:34.351Z</time>
      </trkpt>
      <trkpt lat="43.94563" lon="1.25359">
        <ele>156.77521</ele>
        <time>2022-12-30T15:13:37.335Z</time>
      </trkpt>
      <trkpt lat="43.94553" lon="1.25363">
        <ele>156.774431</ele>
        <time>2022-12-30T15:13:40.349Z</time>
      </trkpt>
      <trkpt lat="43.94542" lon="1.25364">
        <ele>156.773617</ele>
        <time>2022-12-30T15:13:43.352Z</time>
      </trkpt>
      <trkpt lat="43.9453" lon="1.25367">
        <ele>156.772748</ele>
        <time>2022-12-30T15:13:46.357Z</time>
      </trkpt>
      <trkpt lat="43.94519" lon="1.25368">
        <ele>156.771884</ele>
        <time>2022-12-30T15:13:49.332Z</time>
      </trkpt>
      <trkpt lat="43.94507" lon="1.2537">
        <ele>156.770998</ele>
        <time>2022-12-30T15:13:52.339Z</time>
      </trkpt>
      <trkpt lat="43.94495" lon="1.25372">
        <ele>156.770118</ele>
        <time>2022-12-30T15:13:55.345Z</time>
      </trkpt>
      <trkpt lat="43.94483" lon="1.25372">
        <ele>156.769272</ele>
        <time>2022-12-30T15:13:58.339Z</time>
      </trkpt>
      <trkpt lat="43.94471" lon="1.25372">
        <ele>156.768383</ele>
        <time>2022-12-30T15:14:01.336Z</time>
      </trkpt>
      <trkpt lat="43.94459" lon="1.25373">
        <ele>156.767471</ele>
        <time>2022-12-30T15:14:04.356Z</time>
      </trkpt>
      <trkpt lat="43.94447" lon="1.25373">
        <ele>156.766567</ele>
        <time>2022-12-30T15:14:07.359Z</time>
      </trkpt>
      <trkpt lat="43.94435" lon="1.25373">
        <ele>156.765685</ele>
        <time>2022-12-30T15:14:10.342Z</time>
      </trkpt>
      <trkpt lat="43.94423" lon="1.25372">
        <ele>156.763947</ele>
        <time>2022-12-30T15:14:13.360Z</time>
      </trkpt>
      <trkpt lat="43.94411" lon="1.25371">
        <ele>156.712866</ele>
        <time>2022-12-30T15:14:16.332Z</time>
      </trkpt>
      <trkpt lat="43.94399" lon="1.25368">
        <ele>156.658951</ele>
        <time>2022-12-30T15:14:19.347Z</time>
      </trkpt>
      <trkpt lat="43.94387" lon="1.25366">
        <ele>156.608272</ele>
        <time>2022-12-30T15:14:22.361Z</time>
      </trkpt>
      <trkpt lat="43.94376" lon="1.25365">
        <ele>156.560249</ele>
        <time>2022-12-30T15:14:25.359Z</time>
      </trkpt>
      <trkpt lat="43.94365" lon="1.25362">
        <ele>156.509896</ele>
        <time>2022-12-30T15:14:28.333Z</time>
      </trkpt>
      <trkpt lat="43.94353" lon="1.2536">
        <ele>156.457554</ele>
        <time>2022-12-30T15:14:31.362Z</time>
      </trkpt>
      <trkpt lat="43.94341" lon="1.25357">
        <ele>156.406448</ele>
        <time>2022-12-30T15:14:34.361Z</time>
      </trkpt>
      <trkpt lat="43.94328" lon="1.25355">
        <ele>156.350765</ele>
        <time>2022-12-30T15:14:37.347Z</time>
      </trkpt>
      <trkpt lat="43.94315" lon="1.25353">
        <ele>156.294187</ele>
        <time>2022-12-30T15:14:40.356Z</time>
      </trkpt>
      <trkpt lat="43.94302" lon="1.2535">
        <ele>156.236244</ele>
        <time>2022-12-30T15:14:43.352Z</time>
      </trkpt>
      <trkpt lat="43.94289" lon="1.25348">
        <ele>156.181097</ele>
        <time>2022-12-30T15:14:46.338Z</time>
      </trkpt>
      <trkpt lat="43.94277" lon="1.25346">
        <ele>156.128096</ele>
        <time>2022-12-30T15:14:49.351Z</time>
      </trkpt>
      <trkpt lat="43.94265" lon="1.25345">
        <ele>156.07565</ele>
        <time>2022-12-30T15:14:52.344Z</time>
      </trkpt>
      <trkpt lat="43.94252" lon="1.25343">
        <ele>156.018643</ele>
        <time>2022-12-30T15:14:55.339Z</time>
      </trkpt>
      <trkpt lat="43.94243" lon="1.25341">
        <ele>155.953408</ele>
        <time>2022-12-30T15:14:57.345Z</time>
      </trkpt>
      <trkpt lat="43.94232" lon="1.25339">
        <ele>155.786547</ele>
        <time>2022-12-30T15:14:59.359Z</time>
      </trkpt>
      <trkpt lat="43.94222" lon="1.25336">
        <ele>155.621911</ele>
        <time>2022-12-30T15:15:01.338Z</time>
      </trkpt>
      <trkpt lat="43.94213" lon="1.25333">
        <ele>155.471647</ele>
        <time>2022-12-30T15:15:03.361Z</time>
      </trkpt>
      <trkpt lat="43.94203" lon="1.25331">
        <ele>155.311773</ele>
        <time>2022-12-30T15:15:05.343Z</time>
      </trkpt>
      <trkpt lat="43.94192" lon="1.25328">
        <ele>155.144046</ele>
        <time>2022-12-30T15:15:07.361Z</time>
      </trkpt>
      <trkpt lat="43.94178" lon="1.25326">
        <ele>154.923004</ele>
        <time>2022-12-30T15:15:10.351Z</time>
      </trkpt>
      <trkpt lat="43.94169" lon="1.25324">
        <ele>154.772027</ele>
        <time>2022-12-30T15:15:12.367Z</time>
      </trkpt>
      <trkpt lat="43.94158" lon="1.25322">
        <ele>154.604177</ele>
        <time>2022-12-30T15:15:14.340Z</time>
      </trkpt>
      <trkpt lat="43.94146" lon="1.25319">
        <ele>154.405226</ele>
        <time>2022-12-30T15:15:17.356Z</time>
      </trkpt>
      <trkpt lat="43.94132" lon="1.25316">
        <ele>154.189854</ele>
        <time>2022-12-30T15:15:20.345Z</time>
      </trkpt>
      <trkpt lat="43.94123" lon="1.25314">
        <ele>154.036569</ele>
        <time>2022-12-30T15:15:22.339Z</time>
      </trkpt>
      <trkpt lat="43.94114" lon="1.25311">
        <ele>153.889632</ele>
        <time>2022-12-30T15:15:24.350Z</time>
      </trkpt>
      <trkpt lat="43.94102" lon="1.25308">
        <ele>153.699046</ele>
        <time>2022-12-30T15:15:27.338Z</time>
      </trkpt>
      <trkpt lat="43.9409" lon="1.25306">
        <ele>153.513683</ele>
        <time>2022-12-30T15:15:30.363Z</time>
      </trkpt>
      <trkpt lat="43.94077" lon="1.25303">
        <ele>153.305591</ele>
        <time>2022-12-30T15:15:33.347Z</time>
      </trkpt>
      <trkpt lat="43.94063" lon="1.25301">
        <ele>153.18579</ele>
        <time>2022-12-30T15:15:36.334Z</time>
      </trkpt>
      <trkpt lat="43.94054" lon="1.25301">
        <ele>153.272998</ele>
        <time>2022-12-30T15:15:38.345Z</time>
      </trkpt>
      <trkpt lat="43.94042" lon="1.25299">
        <ele>153.391122</ele>
        <time>2022-12-30T15:15:41.334Z</time>
      </trkpt>
      <trkpt lat="43.9403" lon="1.25297">
        <ele>153.509161</ele>
        <time>2022-12-30T15:15:44.344Z</time>
      </trkpt>
      <trkpt lat="43.94021" lon="1.25295">
        <ele>153.597147</ele>
        <time>2022-12-30T15:15:46.352Z</time>
      </trkpt>
      <trkpt lat="43.94008" lon="1.25294">
        <ele>153.721377</ele>
        <time>2022-12-30T15:15:49.339Z</time>
      </trkpt>
      <trkpt lat="43.93995" lon="1.25291">
        <ele>153.851484</ele>
        <time>2022-12-30T15:15:52.335Z</time>
      </trkpt>
      <trkpt lat="43.93986" lon="1.25291">
        <ele>153.938767</ele>
        <time>2022-12-30T15:15:54.358Z</time>
      </trkpt>
      <trkpt lat="43.93977" lon="1.25289">
        <ele>154.031646</ele>
        <time>2022-12-30T15:15:56.330Z</time>
      </trkpt>
      <trkpt lat="43.93965" lon="1.25288">
        <ele>154.142157</ele>
        <time>2022-12-30T15:15:58.349Z</time>
      </trkpt>
      <trkpt lat="43.93952" lon="1.25289">
        <ele>154.269125</ele>
        <time>2022-12-30T15:16:01.359Z</time>
      </trkpt>
      <trkpt lat="43.93943" lon="1.25288">
        <ele>154.359386</ele>
        <time>2022-12-30T15:16:03.339Z</time>
      </trkpt>
      <trkpt lat="43.93934" lon="1.25288">
        <ele>154.448518</ele>
        <time>2022-12-30T15:16:05.361Z</time>
      </trkpt>
      <trkpt lat="43.93919" lon="1.25289">
        <ele>154.594897</ele>
        <time>2022-12-30T15:16:08.363Z</time>
      </trkpt>
      <trkpt lat="43.93908" lon="1.25287">
        <ele>154.694589</ele>
        <time>2022-12-30T15:16:10.364Z</time>
      </trkpt>
      <trkpt lat="43.93894" lon="1.25287">
        <ele>154.834125</ele>
        <time>2022-12-30T15:16:13.345Z</time>
      </trkpt>
      <trkpt lat="43.93884" lon="1.25287">
        <ele>154.941075</ele>
        <time>2022-12-30T15:16:15.335Z</time>
      </trkpt>
      <trkpt lat="43.93875" lon="1.25288">
        <ele>155.045412</ele>
        <time>2022-12-30T15:16:17.357Z</time>
      </trkpt>
      <trkpt lat="43.93861" lon="1.25288">
        <ele>155.208134</ele>
        <time>2022-12-30T15:16:20.346Z</time>
      </trkpt>
      <trkpt lat="43.93848" lon="1.25289">
        <ele>155.357333</ele>
        <time>2022-12-30T15:16:23.350Z</time>
      </trkpt>
      <trkpt lat="43.93836" lon="1.25291">
        <ele>155.499302</ele>
        <time>2022-12-30T15:16:26.340Z</time>
      </trkpt>
      <trkpt lat="43.93823" lon="1.25294">
        <ele>155.644847</ele>
        <time>2022-12-30T15:16:29.353Z</time>
      </trkpt>
      <trkpt lat="43.93814" lon="1.25297">
        <ele>155.751657</ele>
        <time>2022-12-30T15:16:31.354Z</time>
      </trkpt>
      <trkpt lat="43.93805" lon="1.253">
        <ele>155.863237</ele>
        <time>2022-12-30T15:16:33.342Z</time>
      </trkpt>
      <trkpt lat="43.93794" lon="1.25304">
        <ele>155.989781</ele>
        <time>2022-12-30T15:16:35.355Z</time>
      </trkpt>
      <trkpt lat="43.93781" lon="1.25306">
        <ele>156.138619</ele>
        <time>2022-12-30T15:16:38.347Z</time>
      </trkpt>
      <trkpt lat="43.93769" lon="1.25308">
        <ele>156.281733</ele>
        <time>2022-12-30T15:16:41.361Z</time>
      </trkpt>
      <trkpt lat="43.93757" lon="1.25311">
        <ele>156.427278</ele>
        <time>2022-12-30T15:16:44.356Z</time>
      </trkpt>
      <trkpt lat="43.93745" lon="1.25314">
        <ele>156.567433</ele>
        <time>2022-12-30T15:16:47.337Z</time>
      </trkpt>
      <trkpt lat="43.93732" lon="1.25317">
        <ele>156.714752</ele>
        <time>2022-12-30T15:16:50.345Z</time>
      </trkpt>
      <trkpt lat="43.93719" lon="1.25321">
        <ele>156.870151</ele>
        <time>2022-12-30T15:16:53.341Z</time>
      </trkpt>
      <trkpt lat="43.93705" lon="1.25325">
        <ele>156.912797</ele>
        <time>2022-12-30T15:16:56.345Z</time>
      </trkpt>
      <trkpt lat="43.93694" lon="1.25328">
        <ele>156.802166</ele>
        <time>2022-12-30T15:16:59.355Z</time>
      </trkpt>
      <trkpt lat="43.93682" lon="1.25332">
        <ele>156.674744</ele>
        <time>2022-12-30T15:17:02.338Z</time>
      </trkpt>
      <trkpt lat="43.93672" lon="1.25336">
        <ele>156.578967</ele>
        <time>2022-12-30T15:17:04.336Z</time>
      </trkpt>
      <trkpt lat="43.93663" lon="1.25339">
        <ele>156.486033</ele>
        <time>2022-12-30T15:17:06.344Z</time>
      </trkpt>
      <trkpt lat="43.93651" lon="1.25344">
        <ele>156.35914</ele>
        <time>2022-12-30T15:17:09.340Z</time>
      </trkpt>
      <trkpt lat="43.93637" lon="1.25347">
        <ele>156.227</ele>
        <time>2022-12-30T15:17:12.339Z</time>
      </trkpt>
      <trkpt lat="43.93625" lon="1.25352">
        <ele>156.105996</ele>
        <time>2022-12-30T15:17:15.332Z</time>
      </trkpt>
      <trkpt lat="43.93615" lon="1.25356">
        <ele>156.000994</ele>
        <time>2022-12-30T15:17:18.342Z</time>
      </trkpt>
      <trkpt lat="43.93605" lon="1.25359">
        <ele>155.902993</ele>
        <time>2022-12-30T15:17:21.344Z</time>
      </trkpt>
      <trkpt lat="43.93595" lon="1.25363">
        <ele>155.796688</ele>
        <time>2022-12-30T15:17:24.351Z</time>
      </trkpt>
      <trkpt lat="43.93583" lon="1.25368">
        <ele>155.677957</ele>
        <time>2022-12-30T15:17:27.376Z</time>
      </trkpt>
      <trkpt lat="43.93572" lon="1.25374">
        <ele>155.558863</ele>
        <time>2022-12-30T15:17:30.334Z</time>
      </trkpt>
      <trkpt lat="43.93561" lon="1.2538">
        <ele>155.447064</ele>
        <time>2022-12-30T15:17:33.346Z</time>
      </trkpt>
      <trkpt lat="43.93549" lon="1.25385">
        <ele>155.321716</ele>
        <time>2022-12-30T15:17:36.342Z</time>
      </trkpt>
      <trkpt lat="43.93536" lon="1.25389">
        <ele>155.204827</ele>
        <time>2022-12-30T15:17:39.342Z</time>
      </trkpt>
      <trkpt lat="43.93524" lon="1.25393">
        <ele>155.181371</ele>
        <time>2022-12-30T15:17:42.375Z</time>
      </trkpt>
      <trkpt lat="43.93512" lon="1.25397">
        <ele>155.159421</ele>
        <time>2022-12-30T15:17:45.335Z</time>
      </trkpt>
      <trkpt lat="43.93502" lon="1.25402">
        <ele>155.139429</ele>
        <time>2022-12-30T15:17:48.332Z</time>
      </trkpt>
      <trkpt lat="43.93493" lon="1.25406">
        <ele>155.122333</ele>
        <time>2022-12-30T15:17:50.335Z</time>
      </trkpt>
      <trkpt lat="43.93484" lon="1.25409">
        <ele>155.105238</ele>
        <time>2022-12-30T15:17:52.336Z</time>
      </trkpt>
      <trkpt lat="43.93471" lon="1.25414">
        <ele>155.080873</ele>
        <time>2022-12-30T15:17:55.342Z</time>
      </trkpt>
      <trkpt lat="43.9346" lon="1.25418">
        <ele>155.059748</ele>
        <time>2022-12-30T15:17:58.345Z</time>
      </trkpt>
      <trkpt lat="43.93449" lon="1.25422">
        <ele>155.03911</ele>
        <time>2022-12-30T15:18:01.345Z</time>
      </trkpt>
      <trkpt lat="43.93438" lon="1.25429">
        <ele>155.016432</ele>
        <time>2022-12-30T15:18:04.333Z</time>
      </trkpt>
      <trkpt lat="43.93428" lon="1.25433">
        <ele>154.996361</ele>
        <time>2022-12-30T15:18:07.350Z</time>
      </trkpt>
      <trkpt lat="43.93418" lon="1.25435">
        <ele>154.978498</ele>
        <time>2022-12-30T15:18:11.334Z</time>
      </trkpt>
      <trkpt lat="43.93409" lon="1.25437">
        <ele>154.961501</ele>
        <time>2022-12-30T15:18:14.342Z</time>
      </trkpt>
      <trkpt lat="43.93399" lon="1.2544">
        <ele>154.942524</ele>
        <time>2022-12-30T15:18:17.349Z</time>
      </trkpt>
      <trkpt lat="43.93388" lon="1.25445">
        <ele>154.921459</ele>
        <time>2022-12-30T15:18:20.354Z</time>
      </trkpt>
      <trkpt lat="43.93375" lon="1.2545">
        <ele>154.897594</ele>
        <time>2022-12-30T15:18:23.342Z</time>
      </trkpt>
      <trkpt lat="43.93364" lon="1.25454">
        <ele>154.876492</ele>
        <time>2022-12-30T15:18:26.353Z</time>
      </trkpt>
      <trkpt lat="43.93353" lon="1.25457">
        <ele>154.838357</ele>
        <time>2022-12-30T15:18:29.360Z</time>
      </trkpt>
      <trkpt lat="43.93344" lon="1.2546">
        <ele>154.808069</ele>
        <time>2022-12-30T15:18:31.359Z</time>
      </trkpt>
      <trkpt lat="43.93331" lon="1.25464">
        <ele>154.765401</ele>
        <time>2022-12-30T15:18:34.354Z</time>
      </trkpt>
      <trkpt lat="43.93318" lon="1.2547">
        <ele>154.721937</ele>
        <time>2022-12-30T15:18:37.331Z</time>
      </trkpt>
      <trkpt lat="43.93306" lon="1.25475">
        <ele>154.679652</ele>
        <time>2022-12-30T15:18:40.344Z</time>
      </trkpt>
      <trkpt lat="43.93293" lon="1.25481">
        <ele>154.636287</ele>
        <time>2022-12-30T15:18:43.359Z</time>
      </trkpt>
      <trkpt lat="43.9328" lon="1.25486">
        <ele>154.591135</ele>
        <time>2022-12-30T15:18:46.342Z</time>
      </trkpt>
      <trkpt lat="43.93271" lon="1.2549">
        <ele>154.560106</ele>
        <time>2022-12-30T15:18:48.358Z</time>
      </trkpt>
      <trkpt lat="43.93262" lon="1.25493">
        <ele>154.529636</ele>
        <time>2022-12-30T15:18:50.348Z</time>
      </trkpt>
      <trkpt lat="43.9325" lon="1.25498">
        <ele>154.487574</ele>
        <time>2022-12-30T15:18:53.355Z</time>
      </trkpt>
      <trkpt lat="43.93237" lon="1.25503">
        <ele>154.445574</ele>
        <time>2022-12-30T15:18:56.340Z</time>
      </trkpt>
      <trkpt lat="43.93224" lon="1.25507">
        <ele>154.401731</ele>
        <time>2022-12-30T15:18:59.334Z</time>
      </trkpt>
      <trkpt lat="43.93215" lon="1.2551">
        <ele>154.37064</ele>
        <time>2022-12-30T15:19:01.352Z</time>
      </trkpt>
      <trkpt lat="43.93203" lon="1.25516">
        <ele>154.328823</ele>
        <time>2022-12-30T15:19:04.333Z</time>
      </trkpt>
      <trkpt lat="43.93194" lon="1.2552">
        <ele>154.298523</ele>
        <time>2022-12-30T15:19:06.338Z</time>
      </trkpt>
      <trkpt lat="43.93182" lon="1.25526">
        <ele>154.286155</ele>
        <time>2022-12-30T15:19:09.351Z</time>
      </trkpt>
      <trkpt lat="43.93169" lon="1.2553">
        <ele>154.284447</ele>
        <time>2022-12-30T15:19:12.366Z</time>
      </trkpt>
      <trkpt lat="43.93157" lon="1.25536">
        <ele>154.282721</ele>
        <time>2022-12-30T15:19:15.361Z</time>
      </trkpt>
      <trkpt lat="43.93144" lon="1.25539">
        <ele>154.281087</ele>
        <time>2022-12-30T15:19:18.351Z</time>
      </trkpt>
      <trkpt lat="43.93133" lon="1.25543">
        <ele>154.279517</ele>
        <time>2022-12-30T15:19:21.351Z</time>
      </trkpt>
      <trkpt lat="43.93122" lon="1.25548">
        <ele>154.277982</ele>
        <time>2022-12-30T15:19:24.352Z</time>
      </trkpt>
      <trkpt lat="43.93112" lon="1.25552">
        <ele>154.2767</ele>
        <time>2022-12-30T15:19:27.340Z</time>
      </trkpt>
      <trkpt lat="43.93101" lon="1.25556">
        <ele>154.275221</ele>
        <time>2022-12-30T15:19:30.357Z</time>
      </trkpt>
      <trkpt lat="43.93091" lon="1.2556">
        <ele>154.27381</ele>
        <time>2022-12-30T15:19:33.349Z</time>
      </trkpt>
      <trkpt lat="43.93079" lon="1.25565">
        <ele>154.272159</ele>
        <time>2022-12-30T15:19:36.360Z</time>
      </trkpt>
      <trkpt lat="43.93068" lon="1.2557">
        <ele>154.270632</ele>
        <time>2022-12-30T15:19:39.361Z</time>
      </trkpt>
      <trkpt lat="43.93057" lon="1.25574">
        <ele>154.269193</ele>
        <time>2022-12-30T15:19:42.350Z</time>
      </trkpt>
      <trkpt lat="43.93048" lon="1.2558">
        <ele>154.26784</ele>
        <time>2022-12-30T15:19:45.337Z</time>
      </trkpt>
      <trkpt lat="43.93038" lon="1.25583">
        <ele>154.266513</ele>
        <time>2022-12-30T15:19:48.360Z</time>
      </trkpt>
      <trkpt lat="43.93028" lon="1.25586">
        <ele>154.265176</ele>
        <time>2022-12-30T15:19:51.339Z</time>
      </trkpt>
      <trkpt lat="43.93017" lon="1.25589">
        <ele>154.263767</ele>
        <time>2022-12-30T15:19:54.346Z</time>
      </trkpt>
      <trkpt lat="43.93006" lon="1.25592">
        <ele>154.261619</ele>
        <time>2022-12-30T15:19:57.361Z</time>
      </trkpt>
      <trkpt lat="43.92995" lon="1.25596">
        <ele>154.259374</ele>
        <time>2022-12-30T15:20:00.338Z</time>
      </trkpt>
      <trkpt lat="43.92983" lon="1.256">
        <ele>154.257101</ele>
        <time>2022-12-30T15:20:03.335Z</time>
      </trkpt>
      <trkpt lat="43.92971" lon="1.25603">
        <ele>154.25475</ele>
        <time>2022-12-30T15:20:06.336Z</time>
      </trkpt>
      <trkpt lat="43.9296" lon="1.25608">
        <ele>154.252704</ele>
        <time>2022-12-30T15:20:09.339Z</time>
      </trkpt>
      <trkpt lat="43.92949" lon="1.25612">
        <ele>154.250476</ele>
        <time>2022-12-30T15:20:12.336Z</time>
      </trkpt>
      <trkpt lat="43.92938" lon="1.25617">
        <ele>154.248271</ele>
        <time>2022-12-30T15:20:15.341Z</time>
      </trkpt>
      <trkpt lat="43.92927" lon="1.25621">
        <ele>154.246106</ele>
        <time>2022-12-30T15:20:18.359Z</time>
      </trkpt>
      <trkpt lat="43.92914" lon="1.25628">
        <ele>154.243571</ele>
        <time>2022-12-30T15:20:21.340Z</time>
      </trkpt>
      <trkpt lat="43.92902" lon="1.25635">
        <ele>154.241146</ele>
        <time>2022-12-30T15:20:24.360Z</time>
      </trkpt>
      <trkpt lat="43.92892" lon="1.2564">
        <ele>154.239132</ele>
        <time>2022-12-30T15:20:27.355Z</time>
      </trkpt>
      <trkpt lat="43.92881" lon="1.25645">
        <ele>154.236966</ele>
        <time>2022-12-30T15:20:30.331Z</time>
      </trkpt>
      <trkpt lat="43.9287" lon="1.25649">
        <ele>154.2348</ele>
        <time>2022-12-30T15:20:33.339Z</time>
      </trkpt>
      <trkpt lat="43.92859" lon="1.25653">
        <ele>154.232658</ele>
        <time>2022-12-30T15:20:36.334Z</time>
      </trkpt>
      <trkpt lat="43.9285" lon="1.25657">
        <ele>154.230936</ele>
        <time>2022-12-30T15:20:38.341Z</time>
      </trkpt>
      <trkpt lat="43.92841" lon="1.25662">
        <ele>154.282883</ele>
        <time>2022-12-30T15:20:40.332Z</time>
      </trkpt>
      <trkpt lat="43.92832" lon="1.25666">
        <ele>154.374503</ele>
        <time>2022-12-30T15:20:42.340Z</time>
      </trkpt>
      <trkpt lat="43.9282" lon="1.25672">
        <ele>154.502705</ele>
        <time>2022-12-30T15:20:45.349Z</time>
      </trkpt>
      <trkpt lat="43.92808" lon="1.25678">
        <ele>154.632751</ele>
        <time>2022-12-30T15:20:48.350Z</time>
      </trkpt>
      <trkpt lat="43.92795" lon="1.25684">
        <ele>154.762652</ele>
        <time>2022-12-30T15:20:51.351Z</time>
      </trkpt>
      <trkpt lat="43.92783" lon="1.25691">
        <ele>154.89415</ele>
        <time>2022-12-30T15:20:54.344Z</time>
      </trkpt>
      <trkpt lat="43.92771" lon="1.25696">
        <ele>155.019039</ele>
        <time>2022-12-30T15:20:57.361Z</time>
      </trkpt>
      <trkpt lat="43.92763" lon="1.25701">
        <ele>155.110349</ele>
        <time>2022-12-30T15:20:59.348Z</time>
      </trkpt>
      <trkpt lat="43.92753" lon="1.25709">
        <ele>155.223648</ele>
        <time>2022-12-30T15:21:02.350Z</time>
      </trkpt>
      <trkpt lat="43.92741" lon="1.25715">
        <ele>155.349333</ele>
        <time>2022-12-30T15:21:05.352Z</time>
      </trkpt>
      <trkpt lat="43.92729" lon="1.25722">
        <ele>155.474895</ele>
        <time>2022-12-30T15:21:08.339Z</time>
      </trkpt>
      <trkpt lat="43.92717" lon="1.25729">
        <ele>155.604848</ele>
        <time>2022-12-30T15:21:11.350Z</time>
      </trkpt>
      <trkpt lat="43.92706" lon="1.25735">
        <ele>155.726928</ele>
        <time>2022-12-30T15:21:14.341Z</time>
      </trkpt>
      <trkpt lat="43.92695" lon="1.25741">
        <ele>155.838017</ele>
        <time>2022-12-30T15:21:17.341Z</time>
      </trkpt>
      <trkpt lat="43.92684" lon="1.25748">
        <ele>155.961685</ele>
        <time>2022-12-30T15:21:20.339Z</time>
      </trkpt>
      <trkpt lat="43.92672" lon="1.25754">
        <ele>156.053295</ele>
        <time>2022-12-30T15:21:23.360Z</time>
      </trkpt>
      <trkpt lat="43.92661" lon="1.25759">
        <ele>156.121312</ele>
        <time>2022-12-30T15:21:26.342Z</time>
      </trkpt>
      <trkpt lat="43.92652" lon="1.25764">
        <ele>156.170938</ele>
        <time>2022-12-30T15:21:28.353Z</time>
      </trkpt>
      <trkpt lat="43.92643" lon="1.25768">
        <ele>156.222646</ele>
        <time>2022-12-30T15:21:30.350Z</time>
      </trkpt>
      <trkpt lat="43.92635" lon="1.25772">
        <ele>156.272559</ele>
        <time>2022-12-30T15:21:32.341Z</time>
      </trkpt>
      <trkpt lat="43.92622" lon="1.25779">
        <ele>156.346858</ele>
        <time>2022-12-30T15:21:35.333Z</time>
      </trkpt>
      <trkpt lat="43.9261" lon="1.25786">
        <ele>156.422097</ele>
        <time>2022-12-30T15:21:38.350Z</time>
      </trkpt>
      <trkpt lat="43.92599" lon="1.25792">
        <ele>156.486497</ele>
        <time>2022-12-30T15:21:41.341Z</time>
      </trkpt>
      <trkpt lat="43.92587" lon="1.25797">
        <ele>156.552824</ele>
        <time>2022-12-30T15:21:44.354Z</time>
      </trkpt>
      <trkpt lat="43.92576" lon="1.25804">
        <ele>156.622425</ele>
        <time>2022-12-30T15:21:47.345Z</time>
      </trkpt>
      <trkpt lat="43.92564" lon="1.2581">
        <ele>156.690056</ele>
        <time>2022-12-30T15:21:50.362Z</time>
      </trkpt>
      <trkpt lat="43.92554" lon="1.25816">
        <ele>156.750431</ele>
        <time>2022-12-30T15:21:53.331Z</time>
      </trkpt>
      <trkpt lat="43.92545" lon="1.25821">
        <ele>156.803827</ele>
        <time>2022-12-30T15:21:56.350Z</time>
      </trkpt>
      <trkpt lat="43.92537" lon="1.25827">
        <ele>156.857575</ele>
        <time>2022-12-30T15:21:59.329Z</time>
      </trkpt>
      <trkpt lat="43.92526" lon="1.25837">
        <ele>156.927142</ele>
        <time>2022-12-30T15:22:02.344Z</time>
      </trkpt>
      <trkpt lat="43.92516" lon="1.25843">
        <ele>156.986851</ele>
        <time>2022-12-30T15:22:05.336Z</time>
      </trkpt>
      <trkpt lat="43.92507" lon="1.25847">
        <ele>156.997863</ele>
        <time>2022-12-30T15:22:08.337Z</time>
      </trkpt>
      <trkpt lat="43.92498" lon="1.2585">
        <ele>156.979528</ele>
        <time>2022-12-30T15:22:12.347Z</time>
      </trkpt>
      <trkpt lat="43.92489" lon="1.25855">
        <ele>156.961071</ele>
        <time>2022-12-30T15:22:16.330Z</time>
      </trkpt>
      <trkpt lat="43.92477" lon="1.25858">
        <ele>156.938402</ele>
        <time>2022-12-30T15:22:20.341Z</time>
      </trkpt>
      <trkpt lat="43.92467" lon="1.25863">
        <ele>156.917748</ele>
        <time>2022-12-30T15:22:23.361Z</time>
      </trkpt>
      <trkpt lat="43.92455" lon="1.25867">
        <ele>156.895659</ele>
        <time>2022-12-30T15:22:26.329Z</time>
      </trkpt>
      <trkpt lat="43.92444" lon="1.2587">
        <ele>156.872946</ele>
        <time>2022-12-30T15:22:29.338Z</time>
      </trkpt>
      <trkpt lat="43.92432" lon="1.25873">
        <ele>156.849531</ele>
        <time>2022-12-30T15:22:32.333Z</time>
      </trkpt>
      <trkpt lat="43.92419" lon="1.25876">
        <ele>156.82588</ele>
        <time>2022-12-30T15:22:35.339Z</time>
      </trkpt>
      <trkpt lat="43.92406" lon="1.25877">
        <ele>156.801293</ele>
        <time>2022-12-30T15:22:38.342Z</time>
      </trkpt>
      <trkpt lat="43.92394" lon="1.25879">
        <ele>156.778095</ele>
        <time>2022-12-30T15:22:41.338Z</time>
      </trkpt>
      <trkpt lat="43.92385" lon="1.25881">
        <ele>156.760879</ele>
        <time>2022-12-30T15:22:43.346Z</time>
      </trkpt>
      <trkpt lat="43.92376" lon="1.25881">
        <ele>156.742984</ele>
        <time>2022-12-30T15:22:45.359Z</time>
      </trkpt>
      <trkpt lat="43.92367" lon="1.25881">
        <ele>156.725297</ele>
        <time>2022-12-30T15:22:47.336Z</time>
      </trkpt>
      <trkpt lat="43.92356" lon="1.25879">
        <ele>156.705798</ele>
        <time>2022-12-30T15:22:49.363Z</time>
      </trkpt>
      <trkpt lat="43.92347" lon="1.25878">
        <ele>156.688066</ele>
        <time>2022-12-30T15:22:51.360Z</time>
      </trkpt>
      <trkpt lat="43.92337" lon="1.25876">
        <ele>156.66936</ele>
        <time>2022-12-30T15:22:53.339Z</time>
      </trkpt>
      <trkpt lat="43.92328" lon="1.25875">
        <ele>156.619828</ele>
        <time>2022-12-30T15:22:55.358Z</time>
      </trkpt>
      <trkpt lat="43.92319" lon="1.25873">
        <ele>156.567097</ele>
        <time>2022-12-30T15:22:57.362Z</time>
      </trkpt>
      <trkpt lat="43.92309" lon="1.25872">
        <ele>156.508403</ele>
        <time>2022-12-30T15:22:59.360Z</time>
      </trkpt>
      <trkpt lat="43.92299" lon="1.2587">
        <ele>156.453281</ele>
        <time>2022-12-30T15:23:01.356Z</time>
      </trkpt>
      <trkpt lat="43.92289" lon="1.25868">
        <ele>156.396829</ele>
        <time>2022-12-30T15:23:03.359Z</time>
      </trkpt>
      <trkpt lat="43.9228" lon="1.25867">
        <ele>156.341516</ele>
        <time>2022-12-30T15:23:05.360Z</time>
      </trkpt>
      <trkpt lat="43.9227" lon="1.25866">
        <ele>156.283354</ele>
        <time>2022-12-30T15:23:07.364Z</time>
      </trkpt>
      <trkpt lat="43.9226" lon="1.25864">
        <ele>156.229548</ele>
        <time>2022-12-30T15:23:09.356Z</time>
      </trkpt>
      <trkpt lat="43.9225" lon="1.25862">
        <ele>156.169385</ele>
        <time>2022-12-30T15:23:11.358Z</time>
      </trkpt>
      <trkpt lat="43.9224" lon="1.25859">
        <ele>156.11382</ele>
        <time>2022-12-30T15:23:13.370Z</time>
      </trkpt>
      <trkpt lat="43.92231" lon="1.25857">
        <ele>156.060069</ele>
        <time>2022-12-30T15:23:15.347Z</time>
      </trkpt>
      <trkpt lat="43.92218" lon="1.25855">
        <ele>155.985433</ele>
        <time>2022-12-30T15:23:18.344Z</time>
      </trkpt>
      <trkpt lat="43.92204" lon="1.25852">
        <ele>155.903981</ele>
        <time>2022-12-30T15:23:21.361Z</time>
      </trkpt>
      <trkpt lat="43.92194" lon="1.25851">
        <ele>155.846916</ele>
        <time>2022-12-30T15:23:23.367Z</time>
      </trkpt>
      <trkpt lat="43.92185" lon="1.25849">
        <ele>155.791794</ele>
        <time>2022-12-30T15:23:25.364Z</time>
      </trkpt>
      <trkpt lat="43.92176" lon="1.25847">
        <ele>155.739283</ele>
        <time>2022-12-30T15:23:27.346Z</time>
      </trkpt>
      <trkpt lat="43.92166" lon="1.25846">
        <ele>155.687006</ele>
        <time>2022-12-30T15:23:29.363Z</time>
      </trkpt>
      <trkpt lat="43.92154" lon="1.25845">
        <ele>155.605033</ele>
        <time>2022-12-30T15:23:32.361Z</time>
      </trkpt>
      <trkpt lat="43.92145" lon="1.25843">
        <ele>155.522347</ele>
        <time>2022-12-30T15:23:34.360Z</time>
      </trkpt>
      <trkpt lat="43.92136" lon="1.25842">
        <ele>155.434375</ele>
        <time>2022-12-30T15:23:36.341Z</time>
      </trkpt>
      <trkpt lat="43.92122" lon="1.25839">
        <ele>155.312354</ele>
        <time>2022-12-30T15:23:39.361Z</time>
      </trkpt>
      <trkpt lat="43.92113" lon="1.25838">
        <ele>155.226637</ele>
        <time>2022-12-30T15:23:41.340Z</time>
      </trkpt>
      <trkpt lat="43.921" lon="1.25835">
        <ele>155.102266</ele>
        <time>2022-12-30T15:23:44.346Z</time>
      </trkpt>
      <trkpt lat="43.9209" lon="1.25834">
        <ele>155.016461</ele>
        <time>2022-12-30T15:23:46.359Z</time>
      </trkpt>
      <trkpt lat="43.92081" lon="1.25832">
        <ele>154.929998</ele>
        <time>2022-12-30T15:23:48.337Z</time>
      </trkpt>
      <trkpt lat="43.92068" lon="1.2583">
        <ele>154.807523</ele>
        <time>2022-12-30T15:23:51.344Z</time>
      </trkpt>
      <trkpt lat="43.92058" lon="1.25828">
        <ele>154.716196</ele>
        <time>2022-12-30T15:23:53.344Z</time>
      </trkpt>
      <trkpt lat="43.92048" lon="1.25826">
        <ele>154.626679</ele>
        <time>2022-12-30T15:23:55.362Z</time>
      </trkpt>
      <trkpt lat="43.92039" lon="1.25823">
        <ele>154.541911</ele>
        <time>2022-12-30T15:23:57.340Z</time>
      </trkpt>
      <trkpt lat="43.9203" lon="1.25822">
        <ele>154.4571</ele>
        <time>2022-12-30T15:23:59.340Z</time>
      </trkpt>
      <trkpt lat="43.92017" lon="1.2582">
        <ele>154.338689</ele>
        <time>2022-12-30T15:24:02.353Z</time>
      </trkpt>
      <trkpt lat="43.92008" lon="1.25819">
        <ele>154.253207</ele>
        <time>2022-12-30T15:24:04.367Z</time>
      </trkpt>
      <trkpt lat="43.91998" lon="1.25817">
        <ele>154.167652</ele>
        <time>2022-12-30T15:24:06.355Z</time>
      </trkpt>
      <trkpt lat="43.91985" lon="1.25815">
        <ele>154.049947</ele>
        <time>2022-12-30T15:24:09.353Z</time>
      </trkpt>
      <trkpt lat="43.91976" lon="1.25813">
        <ele>153.918015</ele>
        <time>2022-12-30T15:24:11.337Z</time>
      </trkpt>
      <trkpt lat="43.91966" lon="1.25812">
        <ele>153.70194</ele>
        <time>2022-12-30T15:24:13.359Z</time>
      </trkpt>
      <trkpt lat="43.91957" lon="1.2581">
        <ele>153.482246</ele>
        <time>2022-12-30T15:24:15.360Z</time>
      </trkpt>
      <trkpt lat="43.91947" lon="1.25808">
        <ele>153.262047</ele>
        <time>2022-12-30T15:24:17.356Z</time>
      </trkpt>
      <trkpt lat="43.91934" lon="1.25806">
        <ele>152.963252</ele>
        <time>2022-12-30T15:24:20.333Z</time>
      </trkpt>
      <trkpt lat="43.91922" lon="1.25803">
        <ele>152.684307</ele>
        <time>2022-12-30T15:24:23.356Z</time>
      </trkpt>
      <trkpt lat="43.91911" lon="1.25802">
        <ele>152.448921</ele>
        <time>2022-12-30T15:24:26.351Z</time>
      </trkpt>
      <trkpt lat="43.91901" lon="1.25801">
        <ele>152.211387</ele>
        <time>2022-12-30T15:24:29.342Z</time>
      </trkpt>
      <trkpt lat="43.9189" lon="1.25799">
        <ele>151.951728</ele>
        <time>2022-12-30T15:24:32.353Z</time>
      </trkpt>
      <trkpt lat="43.91877" lon="1.25797">
        <ele>151.664565</ele>
        <time>2022-12-30T15:24:35.351Z</time>
      </trkpt>
      <trkpt lat="43.91864" lon="1.25794">
        <ele>151.363758</ele>
        <time>2022-12-30T15:24:38.339Z</time>
      </trkpt>
      <trkpt lat="43.91855" lon="1.25792">
        <ele>151.158886</ele>
        <time>2022-12-30T15:24:40.329Z</time>
      </trkpt>
      <trkpt lat="43.91846" lon="1.25791">
        <ele>150.954213</ele>
        <time>2022-12-30T15:24:42.337Z</time>
      </trkpt>
      <trkpt lat="43.91836" lon="1.25789">
        <ele>150.737722</ele>
        <time>2022-12-30T15:24:44.358Z</time>
      </trkpt>
      <trkpt lat="43.91827" lon="1.25787">
        <ele>150.527707</ele>
        <time>2022-12-30T15:24:46.335Z</time>
      </trkpt>
      <trkpt lat="43.91818" lon="1.25786">
        <ele>150.320793</ele>
        <time>2022-12-30T15:24:48.342Z</time>
      </trkpt>
      <trkpt lat="43.91809" lon="1.25783">
        <ele>150.104053</ele>
        <time>2022-12-30T15:24:50.335Z</time>
      </trkpt>
      <trkpt lat="43.918" lon="1.25782">
        <ele>149.947181</ele>
        <time>2022-12-30T15:24:52.362Z</time>
      </trkpt>
      <trkpt lat="43.91789" lon="1.2578">
        <ele>150.062092</ele>
        <time>2022-12-30T15:24:54.344Z</time>
      </trkpt>
      <trkpt lat="43.91779" lon="1.25778">
        <ele>150.179532</ele>
        <time>2022-12-30T15:24:56.344Z</time>
      </trkpt>
      <trkpt lat="43.91769" lon="1.25777">
        <ele>150.295217</ele>
        <time>2022-12-30T15:24:58.414Z</time>
      </trkpt>
      <trkpt lat="43.91759" lon="1.25776">
        <ele>150.408477</ele>
        <time>2022-12-30T15:25:00.348Z</time>
      </trkpt>
      <trkpt lat="43.91748" lon="1.25773">
        <ele>150.528361</ele>
        <time>2022-12-30T15:25:02.364Z</time>
      </trkpt>
      <trkpt lat="43.91738" lon="1.25772">
        <ele>150.64015</ele>
        <time>2022-12-30T15:25:04.365Z</time>
      </trkpt>
      <trkpt lat="43.91728" lon="1.2577">
        <ele>150.752355</ele>
        <time>2022-12-30T15:25:06.345Z</time>
      </trkpt>
      <trkpt lat="43.91718" lon="1.25769">
        <ele>150.862398</ele>
        <time>2022-12-30T15:25:08.346Z</time>
      </trkpt>
      <trkpt lat="43.91706" lon="1.25767">
        <ele>151.005365</ele>
        <time>2022-12-30T15:25:11.339Z</time>
      </trkpt>
      <trkpt lat="43.91692" lon="1.25766">
        <ele>151.154558</ele>
        <time>2022-12-30T15:25:14.341Z</time>
      </trkpt>
      <trkpt lat="43.91679" lon="1.25766">
        <ele>151.298907</ele>
        <time>2022-12-30T15:25:17.358Z</time>
      </trkpt>
      <trkpt lat="43.91666" lon="1.25766">
        <ele>151.447693</ele>
        <time>2022-12-30T15:25:20.346Z</time>
      </trkpt>
      <trkpt lat="43.91653" lon="1.25766">
        <ele>151.595361</ele>
        <time>2022-12-30T15:25:23.361Z</time>
      </trkpt>
      <trkpt lat="43.91643" lon="1.25767">
        <ele>151.700754</ele>
        <time>2022-12-30T15:25:25.338Z</time>
      </trkpt>
      <trkpt lat="43.91634" lon="1.25768">
        <ele>151.810517</ele>
        <time>2022-12-30T15:25:27.332Z</time>
      </trkpt>
      <trkpt lat="43.91624" lon="1.25769">
        <ele>151.917294</ele>
        <time>2022-12-30T15:25:29.347Z</time>
      </trkpt>
      <trkpt lat="43.91614" lon="1.2577">
        <ele>152.003424</ele>
        <time>2022-12-30T15:25:31.350Z</time>
      </trkpt>
      <trkpt lat="43.91604" lon="1.25772">
        <ele>152.086241</ele>
        <time>2022-12-30T15:25:33.360Z</time>
      </trkpt>
      <trkpt lat="43.91594" lon="1.25774">
        <ele>152.167603</ele>
        <time>2022-12-30T15:25:35.365Z</time>
      </trkpt>
      <trkpt lat="43.91584" lon="1.25776">
        <ele>152.24606</ele>
        <time>2022-12-30T15:25:37.336Z</time>
      </trkpt>
      <trkpt lat="43.91575" lon="1.25779">
        <ele>152.322719</ele>
        <time>2022-12-30T15:25:39.343Z</time>
      </trkpt>
      <trkpt lat="43.91565" lon="1.25782">
        <ele>152.400968</ele>
        <time>2022-12-30T15:25:41.351Z</time>
      </trkpt>
      <trkpt lat="43.91555" lon="1.25785">
        <ele>152.479442</ele>
        <time>2022-12-30T15:25:43.359Z</time>
      </trkpt>
      <trkpt lat="43.91546" lon="1.25787">
        <ele>152.554472</ele>
        <time>2022-12-30T15:25:45.354Z</time>
      </trkpt>
      <trkpt lat="43.91536" lon="1.25791">
        <ele>152.634197</ele>
        <time>2022-12-30T15:25:47.354Z</time>
      </trkpt>
      <trkpt lat="43.91523" lon="1.25797">
        <ele>152.739994</ele>
        <time>2022-12-30T15:25:50.345Z</time>
      </trkpt>
      <trkpt lat="43.91511" lon="1.25802">
        <ele>152.843517</ele>
        <time>2022-12-30T15:25:53.360Z</time>
      </trkpt>
      <trkpt lat="43.915" lon="1.25808">
        <ele>152.939884</ele>
        <time>2022-12-30T15:25:56.356Z</time>
      </trkpt>
      <trkpt lat="43.91488" lon="1.25812">
        <ele>153.031317</ele>
        <time>2022-12-30T15:25:59.345Z</time>
      </trkpt>
      <trkpt lat="43.91478" lon="1.25817">
        <ele>153.121388</ele>
        <time>2022-12-30T15:26:02.359Z</time>
      </trkpt>
      <trkpt lat="43.91467" lon="1.25823">
        <ele>153.209951</ele>
        <time>2022-12-30T15:26:05.338Z</time>
      </trkpt>
      <trkpt lat="43.91455" lon="1.25829">
        <ele>153.308743</ele>
        <time>2022-12-30T15:26:08.328Z</time>
      </trkpt>
      <trkpt lat="43.91443" lon="1.25835">
        <ele>153.423401</ele>
        <time>2022-12-30T15:26:11.340Z</time>
      </trkpt>
      <trkpt lat="43.91431" lon="1.25842">
        <ele>153.549375</ele>
        <time>2022-12-30T15:26:14.356Z</time>
      </trkpt>
      <trkpt lat="43.91419" lon="1.25848">
        <ele>153.678514</ele>
        <time>2022-12-30T15:26:17.339Z</time>
      </trkpt>
      <trkpt lat="43.91406" lon="1.25854">
        <ele>153.807015</ele>
        <time>2022-12-30T15:26:20.332Z</time>
      </trkpt>
      <trkpt lat="43.91397" lon="1.25858">
        <ele>153.898252</ele>
        <time>2022-12-30T15:26:22.332Z</time>
      </trkpt>
      <trkpt lat="43.91385" lon="1.25864">
        <ele>154.025331</ele>
        <time>2022-12-30T15:26:25.354Z</time>
      </trkpt>
      <trkpt lat="43.91376" lon="1.25869">
        <ele>154.116412</ele>
        <time>2022-12-30T15:26:27.366Z</time>
      </trkpt>
      <trkpt lat="43.91367" lon="1.25873">
        <ele>154.206944</ele>
        <time>2022-12-30T15:26:29.357Z</time>
      </trkpt>
      <trkpt lat="43.91359" lon="1.25877">
        <ele>154.295449</ele>
        <time>2022-12-30T15:26:31.338Z</time>
      </trkpt>
      <trkpt lat="43.9135" lon="1.25882">
        <ele>154.386931</ele>
        <time>2022-12-30T15:26:33.330Z</time>
      </trkpt>
      <trkpt lat="43.91339" lon="1.25887">
        <ele>154.503198</ele>
        <time>2022-12-30T15:26:36.328Z</time>
      </trkpt>
      <trkpt lat="43.91328" lon="1.25893">
        <ele>154.615858</ele>
        <time>2022-12-30T15:26:39.357Z</time>
      </trkpt>
      <trkpt lat="43.91317" lon="1.25898">
        <ele>154.724316</ele>
        <time>2022-12-30T15:26:42.336Z</time>
      </trkpt>
      <trkpt lat="43.91307" lon="1.25904">
        <ele>154.834657</ele>
        <time>2022-12-30T15:26:45.359Z</time>
      </trkpt>
      <trkpt lat="43.91295" lon="1.25909">
        <ele>154.954686</ele>
        <time>2022-12-30T15:26:48.336Z</time>
      </trkpt>
      <trkpt lat="43.91283" lon="1.25915">
        <ele>155.080607</ele>
        <time>2022-12-30T15:26:51.343Z</time>
      </trkpt>
      <trkpt lat="43.9127" lon="1.25922">
        <ele>154.955374</ele>
        <time>2022-12-30T15:26:54.336Z</time>
      </trkpt>
      <trkpt lat="43.91261" lon="1.25925">
        <ele>154.790663</ele>
        <time>2022-12-30T15:26:56.344Z</time>
      </trkpt>
      <trkpt lat="43.91252" lon="1.2593">
        <ele>154.63521</ele>
        <time>2022-12-30T15:26:58.361Z</time>
      </trkpt>
      <trkpt lat="43.9124" lon="1.25936">
        <ele>154.420299</ele>
        <time>2022-12-30T15:27:01.359Z</time>
      </trkpt>
      <trkpt lat="43.91228" lon="1.25941">
        <ele>154.210542</ele>
        <time>2022-12-30T15:27:04.333Z</time>
      </trkpt>
      <trkpt lat="43.91216" lon="1.25948">
        <ele>153.993393</ele>
        <time>2022-12-30T15:27:07.342Z</time>
      </trkpt>
      <trkpt lat="43.91204" lon="1.25954">
        <ele>153.774514</ele>
        <time>2022-12-30T15:27:10.337Z</time>
      </trkpt>
      <trkpt lat="43.91192" lon="1.25961">
        <ele>153.552887</ele>
        <time>2022-12-30T15:27:13.337Z</time>
      </trkpt>
      <trkpt lat="43.9118" lon="1.25969">
        <ele>153.339054</ele>
        <time>2022-12-30T15:27:16.360Z</time>
      </trkpt>
      <trkpt lat="43.91169" lon="1.25975">
        <ele>153.138427</ele>
        <time>2022-12-30T15:27:19.352Z</time>
      </trkpt>
      <trkpt lat="43.9116" lon="1.25981">
        <ele>152.969775</ele>
        <time>2022-12-30T15:27:22.335Z</time>
      </trkpt>
      <trkpt lat="43.91152" lon="1.25988">
        <ele>152.810445</ele>
        <time>2022-12-30T15:27:25.335Z</time>
      </trkpt>
      <trkpt lat="43.91144" lon="1.25997">
        <ele>152.638502</ele>
        <time>2022-12-30T15:27:29.334Z</time>
      </trkpt>
      <trkpt lat="43.91133" lon="1.25995">
        <ele>152.452817</ele>
        <time>2022-12-30T15:27:33.339Z</time>
      </trkpt>
      <trkpt lat="43.91124" lon="1.25997">
        <ele>152.294821</ele>
        <time>2022-12-30T15:27:36.342Z</time>
      </trkpt>
      <trkpt lat="43.91114" lon="1.26002">
        <ele>152.113214</ele>
        <time>2022-12-30T15:27:39.336Z</time>
      </trkpt>
      <trkpt lat="43.91103" lon="1.26008">
        <ele>152.172861</ele>
        <time>2022-12-30T15:27:42.349Z</time>
      </trkpt>
      <trkpt lat="43.91092" lon="1.26015">
        <ele>152.260835</ele>
        <time>2022-12-30T15:27:45.358Z</time>
      </trkpt>
      <trkpt lat="43.91081" lon="1.2602">
        <ele>152.346129</ele>
        <time>2022-12-30T15:27:48.341Z</time>
      </trkpt>
      <trkpt lat="43.91069" lon="1.26026">
        <ele>152.438159</ele>
        <time>2022-12-30T15:27:51.338Z</time>
      </trkpt>
      <trkpt lat="43.91057" lon="1.26032">
        <ele>152.525288</ele>
        <time>2022-12-30T15:27:54.339Z</time>
      </trkpt>
      <trkpt lat="43.91046" lon="1.26038">
        <ele>152.611814</ele>
        <time>2022-12-30T15:27:57.358Z</time>
      </trkpt>
      <trkpt lat="43.91034" lon="1.26044">
        <ele>152.701817</ele>
        <time>2022-12-30T15:28:00.356Z</time>
      </trkpt>
      <trkpt lat="43.91022" lon="1.2605">
        <ele>152.794708</ele>
        <time>2022-12-30T15:28:03.348Z</time>
      </trkpt>
      <trkpt lat="43.91011" lon="1.26056">
        <ele>152.874945</ele>
        <time>2022-12-30T15:28:06.345Z</time>
      </trkpt>
      <trkpt lat="43.91" lon="1.26061">
        <ele>152.960727</ele>
        <time>2022-12-30T15:28:09.371Z</time>
      </trkpt>
      <trkpt lat="43.90989" lon="1.26069">
        <ele>153.050416</ele>
        <time>2022-12-30T15:28:12.333Z</time>
      </trkpt>
      <trkpt lat="43.90979" lon="1.26072">
        <ele>153.127559</ele>
        <time>2022-12-30T15:28:15.334Z</time>
      </trkpt>
      <trkpt lat="43.90969" lon="1.26077">
        <ele>153.201321</ele>
        <time>2022-12-30T15:28:18.335Z</time>
      </trkpt>
      <trkpt lat="43.90959" lon="1.26082">
        <ele>153.277098</ele>
        <time>2022-12-30T15:28:21.335Z</time>
      </trkpt>
      <trkpt lat="43.90949" lon="1.26087">
        <ele>153.352015</ele>
        <time>2022-12-30T15:28:24.349Z</time>
      </trkpt>
      <trkpt lat="43.90939" lon="1.26093">
        <ele>153.363009</ele>
        <time>2022-12-30T15:28:27.334Z</time>
      </trkpt>
      <trkpt lat="43.90928" lon="1.26099">
        <ele>153.308224</ele>
        <time>2022-12-30T15:28:30.347Z</time>
      </trkpt>
      <trkpt lat="43.90916" lon="1.26105">
        <ele>153.250726</ele>
        <time>2022-12-30T15:28:33.359Z</time>
      </trkpt>
      <trkpt lat="43.90906" lon="1.26111">
        <ele>153.196787</ele>
        <time>2022-12-30T15:28:36.327Z</time>
      </trkpt>
      <trkpt lat="43.90895" lon="1.26118">
        <ele>153.142129</ele>
        <time>2022-12-30T15:28:39.334Z</time>
      </trkpt>
      <trkpt lat="43.90884" lon="1.26124">
        <ele>153.086793</ele>
        <time>2022-12-30T15:28:42.338Z</time>
      </trkpt>
      <trkpt lat="43.90872" lon="1.2613">
        <ele>153.02907</ele>
        <time>2022-12-30T15:28:45.335Z</time>
      </trkpt>
      <trkpt lat="43.90859" lon="1.26136">
        <ele>152.966039</ele>
        <time>2022-12-30T15:28:48.350Z</time>
      </trkpt>
      <trkpt lat="43.90847" lon="1.26142">
        <ele>152.907321</ele>
        <time>2022-12-30T15:28:51.335Z</time>
      </trkpt>
      <trkpt lat="43.90837" lon="1.26146">
        <ele>152.860238</ele>
        <time>2022-12-30T15:28:54.354Z</time>
      </trkpt>
      <trkpt lat="43.90827" lon="1.26151">
        <ele>152.814565</ele>
        <time>2022-12-30T15:28:57.345Z</time>
      </trkpt>
      <trkpt lat="43.90816" lon="1.26157">
        <ele>152.759302</ele>
        <time>2022-12-30T15:29:00.354Z</time>
      </trkpt>
      <trkpt lat="43.90805" lon="1.26164">
        <ele>152.702309</ele>
        <time>2022-12-30T15:29:03.359Z</time>
      </trkpt>
      <trkpt lat="43.90793" lon="1.26169">
        <ele>152.644811</ele>
        <time>2022-12-30T15:29:06.342Z</time>
      </trkpt>
      <trkpt lat="43.90782" lon="1.26175">
        <ele>152.589589</ele>
        <time>2022-12-30T15:29:09.337Z</time>
      </trkpt>
      <trkpt lat="43.90769" lon="1.26181">
        <ele>152.627897</ele>
        <time>2022-12-30T15:29:12.332Z</time>
      </trkpt>
      <trkpt lat="43.90757" lon="1.26187">
        <ele>152.750249</ele>
        <time>2022-12-30T15:29:15.332Z</time>
      </trkpt>
      <trkpt lat="43.90745" lon="1.26193">
        <ele>152.86978</ele>
        <time>2022-12-30T15:29:18.338Z</time>
      </trkpt>
      <trkpt lat="43.90732" lon="1.26199">
        <ele>152.988662</ele>
        <time>2022-12-30T15:29:21.340Z</time>
      </trkpt>
      <trkpt lat="43.90724" lon="1.26204">
        <ele>153.071507</ele>
        <time>2022-12-30T15:29:23.354Z</time>
      </trkpt>
      <trkpt lat="43.90711" lon="1.2621">
        <ele>153.196895</ele>
        <time>2022-12-30T15:29:26.343Z</time>
      </trkpt>
      <trkpt lat="43.90699" lon="1.26216">
        <ele>153.319734</ele>
        <time>2022-12-30T15:29:29.343Z</time>
      </trkpt>
      <trkpt lat="43.90687" lon="1.26223">
        <ele>153.439291</ele>
        <time>2022-12-30T15:29:32.334Z</time>
      </trkpt>
      <trkpt lat="43.90674" lon="1.2623">
        <ele>153.558623</ele>
        <time>2022-12-30T15:29:35.349Z</time>
      </trkpt>
      <trkpt lat="43.90663" lon="1.26235">
        <ele>153.671872</ele>
        <time>2022-12-30T15:29:38.339Z</time>
      </trkpt>
      <trkpt lat="43.9065" lon="1.2624">
        <ele>153.792117</ele>
        <time>2022-12-30T15:29:41.340Z</time>
      </trkpt>
      <trkpt lat="43.90639" lon="1.26247">
        <ele>153.904215</ele>
        <time>2022-12-30T15:29:44.339Z</time>
      </trkpt>
      <trkpt lat="43.90629" lon="1.26252">
        <ele>154.004439</ele>
        <time>2022-12-30T15:29:47.348Z</time>
      </trkpt>
      <trkpt lat="43.90618" lon="1.26257">
        <ele>154.104026</ele>
        <time>2022-12-30T15:29:50.355Z</time>
      </trkpt>
      <trkpt lat="43.90607" lon="1.26262">
        <ele>154.209194</ele>
        <time>2022-12-30T15:29:53.356Z</time>
      </trkpt>
      <trkpt lat="43.90595" lon="1.26268">
        <ele>154.062462</ele>
        <time>2022-12-30T15:29:56.337Z</time>
      </trkpt>
      <trkpt lat="43.90586" lon="1.26273">
        <ele>153.955622</ele>
        <time>2022-12-30T15:29:58.332Z</time>
      </trkpt>
      <trkpt lat="43.90578" lon="1.26278">
        <ele>153.84506</ele>
        <time>2022-12-30T15:30:00.342Z</time>
      </trkpt>
      <trkpt lat="43.90569" lon="1.26283">
        <ele>153.738812</ele>
        <time>2022-12-30T15:30:02.339Z</time>
      </trkpt>
      <trkpt lat="43.90557" lon="1.26289">
        <ele>153.589018</ele>
        <time>2022-12-30T15:30:05.359Z</time>
      </trkpt>
      <trkpt lat="43.90545" lon="1.26294">
        <ele>153.435018</ele>
        <time>2022-12-30T15:30:08.360Z</time>
      </trkpt>
      <trkpt lat="43.90533" lon="1.26301">
        <ele>153.280749</ele>
        <time>2022-12-30T15:30:11.337Z</time>
      </trkpt>
      <trkpt lat="43.90524" lon="1.26305">
        <ele>153.174208</ele>
        <time>2022-12-30T15:30:13.354Z</time>
      </trkpt>
      <trkpt lat="43.90515" lon="1.26309">
        <ele>153.066031</ele>
        <time>2022-12-30T15:30:15.339Z</time>
      </trkpt>
      <trkpt lat="43.90504" lon="1.26315">
        <ele>152.923144</ele>
        <time>2022-12-30T15:30:18.340Z</time>
      </trkpt>
      <trkpt lat="43.90493" lon="1.2632">
        <ele>152.787725</ele>
        <time>2022-12-30T15:30:21.355Z</time>
      </trkpt>
      <trkpt lat="43.90483" lon="1.26325">
        <ele>152.66451</ele>
        <time>2022-12-30T15:30:24.338Z</time>
      </trkpt>
      <trkpt lat="43.90474" lon="1.2633">
        <ele>152.546881</ele>
        <time>2022-12-30T15:30:27.360Z</time>
      </trkpt>
      <trkpt lat="43.90464" lon="1.26336">
        <ele>152.416778</ele>
        <time>2022-12-30T15:30:30.340Z</time>
      </trkpt>
      <trkpt lat="43.90452" lon="1.26342">
        <ele>152.270178</ele>
        <time>2022-12-30T15:30:33.347Z</time>
      </trkpt>
      <trkpt lat="43.9044" lon="1.26348">
        <ele>152.123985</ele>
        <time>2022-12-30T15:30:36.344Z</time>
      </trkpt>
      <trkpt lat="43.90431" lon="1.26352">
        <ele>152.055374</ele>
        <time>2022-12-30T15:30:38.351Z</time>
      </trkpt>
      <trkpt lat="43.90422" lon="1.26356">
        <ele>151.99505</ele>
        <time>2022-12-30T15:30:40.340Z</time>
      </trkpt>
      <trkpt lat="43.90414" lon="1.26361">
        <ele>151.936925</ele>
        <time>2022-12-30T15:30:42.364Z</time>
      </trkpt>
      <trkpt lat="43.90402" lon="1.26368">
        <ele>151.853989</ele>
        <time>2022-12-30T15:30:45.338Z</time>
      </trkpt>
      <trkpt lat="43.90393" lon="1.26371">
        <ele>151.793798</ele>
        <time>2022-12-30T15:30:47.354Z</time>
      </trkpt>
      <trkpt lat="43.9038" lon="1.26378">
        <ele>151.710755</ele>
        <time>2022-12-30T15:30:50.340Z</time>
      </trkpt>
      <trkpt lat="43.90368" lon="1.26384">
        <ele>151.630675</ele>
        <time>2022-12-30T15:30:53.361Z</time>
      </trkpt>
      <trkpt lat="43.90357" lon="1.26391">
        <ele>151.550917</ele>
        <time>2022-12-30T15:30:56.349Z</time>
      </trkpt>
      <trkpt lat="43.90345" lon="1.26397">
        <ele>151.46739</ele>
        <time>2022-12-30T15:30:59.336Z</time>
      </trkpt>
      <trkpt lat="43.90333" lon="1.26403">
        <ele>151.39092</ele>
        <time>2022-12-30T15:31:02.345Z</time>
      </trkpt>
      <trkpt lat="43.90322" lon="1.26409">
        <ele>151.316059</ele>
        <time>2022-12-30T15:31:05.349Z</time>
      </trkpt>
      <trkpt lat="43.90311" lon="1.26416">
        <ele>151.235892</ele>
        <time>2022-12-30T15:31:08.359Z</time>
      </trkpt>
      <trkpt lat="43.90299" lon="1.26422">
        <ele>151.155812</ele>
        <time>2022-12-30T15:31:11.347Z</time>
      </trkpt>
      <trkpt lat="43.90286" lon="1.2643">
        <ele>151.071081</ele>
        <time>2022-12-30T15:31:14.358Z</time>
      </trkpt>
      <trkpt lat="43.90274" lon="1.26435">
        <ele>150.987419</ele>
        <time>2022-12-30T15:31:17.347Z</time>
      </trkpt>
      <trkpt lat="43.90265" lon="1.26438">
        <ele>150.977344</ele>
        <time>2022-12-30T15:31:19.339Z</time>
      </trkpt>
      <trkpt lat="43.90256" lon="1.26443">
        <ele>151.00084</ele>
        <time>2022-12-30T15:31:21.368Z</time>
      </trkpt>
      <trkpt lat="43.90244" lon="1.26449">
        <ele>151.034524</ele>
        <time>2022-12-30T15:31:24.336Z</time>
      </trkpt>
      <trkpt lat="43.90234" lon="1.26453">
        <ele>151.060481</ele>
        <time>2022-12-30T15:31:26.353Z</time>
      </trkpt>
      <trkpt lat="43.90221" lon="1.26459">
        <ele>151.096051</ele>
        <time>2022-12-30T15:31:29.360Z</time>
      </trkpt>
      <trkpt lat="43.90213" lon="1.26464">
        <ele>151.119885</ele>
        <time>2022-12-30T15:31:31.347Z</time>
      </trkpt>
      <trkpt lat="43.90204" lon="1.26469">
        <ele>151.143652</ele>
        <time>2022-12-30T15:31:33.354Z</time>
      </trkpt>
      <trkpt lat="43.90195" lon="1.26473">
        <ele>151.167286</ele>
        <time>2022-12-30T15:31:35.345Z</time>
      </trkpt>
      <trkpt lat="43.90187" lon="1.26477">
        <ele>151.190978</ele>
        <time>2022-12-30T15:31:37.352Z</time>
      </trkpt>
      <trkpt lat="43.90175" lon="1.26483">
        <ele>151.222793</ele>
        <time>2022-12-30T15:31:40.338Z</time>
      </trkpt>
      <trkpt lat="43.90164" lon="1.26488">
        <ele>151.25302</ele>
        <time>2022-12-30T15:31:43.358Z</time>
      </trkpt>
      <trkpt lat="43.90153" lon="1.26493">
        <ele>151.282623</ele>
        <time>2022-12-30T15:31:46.329Z</time>
      </trkpt>
      <trkpt lat="43.90142" lon="1.26499">
        <ele>151.312596</ele>
        <time>2022-12-30T15:31:49.360Z</time>
      </trkpt>
      <trkpt lat="43.90131" lon="1.26505">
        <ele>151.343358</ele>
        <time>2022-12-30T15:31:52.350Z</time>
      </trkpt>
      <trkpt lat="43.9012" lon="1.26511">
        <ele>151.374663</ele>
        <time>2022-12-30T15:31:55.356Z</time>
      </trkpt>
      <trkpt lat="43.9011" lon="1.26517">
        <ele>151.403468</ele>
        <time>2022-12-30T15:31:58.337Z</time>
      </trkpt>
      <trkpt lat="43.90099" lon="1.26521">
        <ele>151.456265</ele>
        <time>2022-12-30T15:32:02.337Z</time>
      </trkpt>
      <trkpt lat="43.9009" lon="1.26525">
        <ele>151.631714</ele>
        <time>2022-12-30T15:32:05.334Z</time>
      </trkpt>
      <trkpt lat="43.90079" lon="1.26529">
        <ele>151.817714</ele>
        <time>2022-12-30T15:32:08.335Z</time>
      </trkpt>
      <trkpt lat="43.90068" lon="1.26534">
        <ele>152.02286</ele>
        <time>2022-12-30T15:32:11.362Z</time>
      </trkpt>
      <trkpt lat="43.90055" lon="1.26541">
        <ele>152.251081</ele>
        <time>2022-12-30T15:32:14.369Z</time>
      </trkpt>
      <trkpt lat="43.90047" lon="1.26546">
        <ele>152.407268</ele>
        <time>2022-12-30T15:32:16.340Z</time>
      </trkpt>
      <trkpt lat="43.90036" lon="1.26552">
        <ele>152.607135</ele>
        <time>2022-12-30T15:32:19.339Z</time>
      </trkpt>
      <trkpt lat="43.90026" lon="1.26558">
        <ele>152.792663</ele>
        <time>2022-12-30T15:32:22.370Z</time>
      </trkpt>
      <trkpt lat="43.90017" lon="1.26562">
        <ele>152.95465</ele>
        <time>2022-12-30T15:32:25.482Z</time>
      </trkpt>
      <trkpt lat="43.90006" lon="1.26567">
        <ele>153.155488</ele>
        <time>2022-12-30T15:32:28.333Z</time>
      </trkpt>
      <trkpt lat="43.89995" lon="1.26573">
        <ele>153.365223</ele>
        <time>2022-12-30T15:32:31.333Z</time>
      </trkpt>
      <trkpt lat="43.89983" lon="1.26579">
        <ele>153.576155</ele>
        <time>2022-12-30T15:32:34.346Z</time>
      </trkpt>
      <trkpt lat="43.89971" lon="1.26585">
        <ele>153.795211</ele>
        <time>2022-12-30T15:32:37.337Z</time>
      </trkpt>
      <trkpt lat="43.89959" lon="1.26591">
        <ele>154.021257</ele>
        <time>2022-12-30T15:32:40.338Z</time>
      </trkpt>
      <trkpt lat="43.8995" lon="1.26596">
        <ele>154.178368</ele>
        <time>2022-12-30T15:32:42.338Z</time>
      </trkpt>
      <trkpt lat="43.89941" lon="1.26601">
        <ele>154.343637</ele>
        <time>2022-12-30T15:32:44.361Z</time>
      </trkpt>
      <trkpt lat="43.89932" lon="1.26605">
        <ele>154.508468</ele>
        <time>2022-12-30T15:32:46.353Z</time>
      </trkpt>
      <trkpt lat="43.89921" lon="1.26611">
        <ele>154.554044</ele>
        <time>2022-12-30T15:32:49.348Z</time>
      </trkpt>
      <trkpt lat="43.89911" lon="1.26617">
        <ele>154.595066</ele>
        <time>2022-12-30T15:32:52.356Z</time>
      </trkpt>
      <trkpt lat="43.899" lon="1.26623">
        <ele>154.641369</ele>
        <time>2022-12-30T15:32:55.332Z</time>
      </trkpt>
      <trkpt lat="43.89887" lon="1.26629">
        <ele>154.689936</ele>
        <time>2022-12-30T15:32:58.351Z</time>
      </trkpt>
      <trkpt lat="43.89876" lon="1.26636">
        <ele>154.738045</ele>
        <time>2022-12-30T15:33:01.351Z</time>
      </trkpt>
      <trkpt lat="43.89864" lon="1.26643">
        <ele>154.787199</ele>
        <time>2022-12-30T15:33:04.337Z</time>
      </trkpt>
      <trkpt lat="43.89851" lon="1.2665">
        <ele>154.836664</ele>
        <time>2022-12-30T15:33:07.338Z</time>
      </trkpt>
      <trkpt lat="43.89843" lon="1.26655">
        <ele>154.872168</ele>
        <time>2022-12-30T15:33:09.361Z</time>
      </trkpt>
      <trkpt lat="43.89833" lon="1.26658">
        <ele>154.908087</ele>
        <time>2022-12-30T15:33:11.362Z</time>
      </trkpt>
      <trkpt lat="43.89825" lon="1.26661">
        <ele>154.942206</ele>
        <time>2022-12-30T15:33:13.357Z</time>
      </trkpt>
      <trkpt lat="43.89816" lon="1.26666">
        <ele>154.976366</ele>
        <time>2022-12-30T15:33:15.349Z</time>
      </trkpt>
      <trkpt lat="43.89804" lon="1.26672">
        <ele>155.02644</ele>
        <time>2022-12-30T15:33:18.334Z</time>
      </trkpt>
      <trkpt lat="43.89795" lon="1.26676">
        <ele>155.060623</ele>
        <time>2022-12-30T15:33:20.347Z</time>
      </trkpt>
      <trkpt lat="43.89786" lon="1.2668">
        <ele>155.094976</ele>
        <time>2022-12-30T15:33:22.339Z</time>
      </trkpt>
      <trkpt lat="43.89774" lon="1.26686">
        <ele>155.145578</ele>
        <time>2022-12-30T15:33:25.344Z</time>
      </trkpt>
      <trkpt lat="43.89761" lon="1.26693">
        <ele>155.173476</ele>
        <time>2022-12-30T15:33:28.350Z</time>
      </trkpt>
      <trkpt lat="43.89753" lon="1.26696">
        <ele>155.119915</ele>
        <time>2022-12-30T15:33:30.337Z</time>
      </trkpt>
      <trkpt lat="43.8974" lon="1.26703">
        <ele>155.041743</ele>
        <time>2022-12-30T15:33:33.351Z</time>
      </trkpt>
      <trkpt lat="43.89731" lon="1.26707">
        <ele>154.986925</ele>
        <time>2022-12-30T15:33:35.338Z</time>
      </trkpt>
      <trkpt lat="43.89723" lon="1.26711">
        <ele>154.932533</ele>
        <time>2022-12-30T15:33:37.353Z</time>
      </trkpt>
      <trkpt lat="43.89714" lon="1.26716">
        <ele>154.874434</ele>
        <time>2022-12-30T15:33:39.328Z</time>
      </trkpt>
      <trkpt lat="43.89705" lon="1.2672">
        <ele>154.82047</ele>
        <time>2022-12-30T15:33:41.358Z</time>
      </trkpt>
      <trkpt lat="43.89696" lon="1.26724">
        <ele>154.766059</ele>
        <time>2022-12-30T15:33:43.333Z</time>
      </trkpt>
      <trkpt lat="43.89684" lon="1.2673">
        <ele>154.688442</ele>
        <time>2022-12-30T15:33:46.347Z</time>
      </trkpt>
      <trkpt lat="43.89675" lon="1.26735">
        <ele>154.631394</ele>
        <time>2022-12-30T15:33:48.345Z</time>
      </trkpt>
      <trkpt lat="43.89666" lon="1.2674">
        <ele>154.577227</ele>
        <time>2022-12-30T15:33:50.361Z</time>
      </trkpt>
      <trkpt lat="43.89657" lon="1.26744">
        <ele>154.520738</ele>
        <time>2022-12-30T15:33:52.358Z</time>
      </trkpt>
      <trkpt lat="43.89648" lon="1.26748">
        <ele>154.463965</ele>
        <time>2022-12-30T15:33:54.358Z</time>
      </trkpt>
      <trkpt lat="43.8964" lon="1.26753">
        <ele>154.409402</ele>
        <time>2022-12-30T15:33:56.361Z</time>
      </trkpt>
      <trkpt lat="43.89631" lon="1.26757">
        <ele>154.35484</ele>
        <time>2022-12-30T15:33:58.339Z</time>
      </trkpt>
      <trkpt lat="43.89618" lon="1.26764">
        <ele>154.271922</ele>
        <time>2022-12-30T15:34:01.334Z</time>
      </trkpt>
      <trkpt lat="43.89605" lon="1.2677">
        <ele>154.192637</ele>
        <time>2022-12-30T15:34:04.331Z</time>
      </trkpt>
      <trkpt lat="43.89593" lon="1.26776">
        <ele>154.134563</ele>
        <time>2022-12-30T15:34:07.344Z</time>
      </trkpt>
      <trkpt lat="43.89583" lon="1.2678">
        <ele>154.21895</ele>
        <time>2022-12-30T15:34:09.371Z</time>
      </trkpt>
      <trkpt lat="43.89574" lon="1.26786">
        <ele>154.296177</ele>
        <time>2022-12-30T15:34:11.333Z</time>
      </trkpt>
      <trkpt lat="43.89565" lon="1.26791">
        <ele>154.378182</ele>
        <time>2022-12-30T15:34:13.360Z</time>
      </trkpt>
      <trkpt lat="43.89555" lon="1.26796">
        <ele>154.466264</ele>
        <time>2022-12-30T15:34:15.361Z</time>
      </trkpt>
      <trkpt lat="43.89547" lon="1.26801">
        <ele>154.540518</ele>
        <time>2022-12-30T15:34:17.359Z</time>
      </trkpt>
      <trkpt lat="43.89538" lon="1.26805">
        <ele>154.619893</ele>
        <time>2022-12-30T15:34:19.361Z</time>
      </trkpt>
      <trkpt lat="43.89528" lon="1.2681">
        <ele>154.700003</ele>
        <time>2022-12-30T15:34:21.362Z</time>
      </trkpt>
      <trkpt lat="43.89519" lon="1.26815">
        <ele>154.782109</ele>
        <time>2022-12-30T15:34:23.356Z</time>
      </trkpt>
      <trkpt lat="43.89506" lon="1.2682">
        <ele>154.893033</ele>
        <time>2022-12-30T15:34:26.358Z</time>
      </trkpt>
      <trkpt lat="43.89494" lon="1.26827">
        <ele>154.997331</ele>
        <time>2022-12-30T15:34:29.336Z</time>
      </trkpt>
      <trkpt lat="43.89484" lon="1.26832">
        <ele>155.092027</ele>
        <time>2022-12-30T15:34:32.343Z</time>
      </trkpt>
      <trkpt lat="43.89473" lon="1.26837">
        <ele>155.180306</ele>
        <time>2022-12-30T15:34:35.338Z</time>
      </trkpt>
      <trkpt lat="43.89461" lon="1.26843">
        <ele>155.284915</ele>
        <time>2022-12-30T15:34:38.347Z</time>
      </trkpt>
      <trkpt lat="43.89453" lon="1.26847">
        <ele>155.359041</ele>
        <time>2022-12-30T15:34:40.355Z</time>
      </trkpt>
      <trkpt lat="43.89443" lon="1.26851">
        <ele>155.442347</ele>
        <time>2022-12-30T15:34:42.338Z</time>
      </trkpt>
      <trkpt lat="43.89435" lon="1.26856">
        <ele>155.519421</ele>
        <time>2022-12-30T15:34:44.336Z</time>
      </trkpt>
      <trkpt lat="43.89422" lon="1.26862">
        <ele>155.604619</ele>
        <time>2022-12-30T15:34:47.341Z</time>
      </trkpt>
      <trkpt lat="43.89413" lon="1.26867">
        <ele>155.608495</ele>
        <time>2022-12-30T15:34:49.356Z</time>
      </trkpt>
      <trkpt lat="43.89404" lon="1.2687">
        <ele>155.612172</ele>
        <time>2022-12-30T15:34:51.338Z</time>
      </trkpt>
      <trkpt lat="43.89394" lon="1.26875">
        <ele>155.616325</ele>
        <time>2022-12-30T15:34:53.362Z</time>
      </trkpt>
      <trkpt lat="43.89381" lon="1.2688">
        <ele>155.621784</ele>
        <time>2022-12-30T15:34:56.357Z</time>
      </trkpt>
      <trkpt lat="43.89372" lon="1.26883">
        <ele>155.625754</ele>
        <time>2022-12-30T15:34:58.342Z</time>
      </trkpt>
      <trkpt lat="43.89358" lon="1.26885">
        <ele>155.631106</ele>
        <time>2022-12-30T15:35:01.338Z</time>
      </trkpt>
      <trkpt lat="43.89346" lon="1.26891">
        <ele>155.636302</ele>
        <time>2022-12-30T15:35:04.333Z</time>
      </trkpt>
      <trkpt lat="43.89336" lon="1.26893">
        <ele>155.640458</ele>
        <time>2022-12-30T15:35:07.332Z</time>
      </trkpt>
      <trkpt lat="43.89325" lon="1.26895">
        <ele>155.644905</ele>
        <time>2022-12-30T15:35:10.335Z</time>
      </trkpt>
      <trkpt lat="43.89314" lon="1.26898">
        <ele>155.649493</ele>
        <time>2022-12-30T15:35:13.363Z</time>
      </trkpt>
      <trkpt lat="43.89302" lon="1.269">
        <ele>155.654472</ele>
        <time>2022-12-30T15:35:16.358Z</time>
      </trkpt>
      <trkpt lat="43.89289" lon="1.26901">
        <ele>155.659813</ele>
        <time>2022-12-30T15:35:19.344Z</time>
      </trkpt>
      <trkpt lat="43.8928" lon="1.26903">
        <ele>155.663456</ele>
        <time>2022-12-30T15:35:21.350Z</time>
      </trkpt>
      <trkpt lat="43.89267" lon="1.26906">
        <ele>155.668668</ele>
        <time>2022-12-30T15:35:24.338Z</time>
      </trkpt>
      <trkpt lat="43.89256" lon="1.26907">
        <ele>155.673264</ele>
        <time>2022-12-30T15:35:27.337Z</time>
      </trkpt>
      <trkpt lat="43.89245" lon="1.26909">
        <ele>155.671129</ele>
        <time>2022-12-30T15:35:30.340Z</time>
      </trkpt>
      <trkpt lat="43.89234" lon="1.26908">
        <ele>155.65972</ele>
        <time>2022-12-30T15:35:33.360Z</time>
      </trkpt>
      <trkpt lat="43.89222" lon="1.26908">
        <ele>155.647164</ele>
        <time>2022-12-30T15:35:36.346Z</time>
      </trkpt>
      <trkpt lat="43.89209" lon="1.26908">
        <ele>155.633892</ele>
        <time>2022-12-30T15:35:39.335Z</time>
      </trkpt>
      <trkpt lat="43.89196" lon="1.26909">
        <ele>155.620918</ele>
        <time>2022-12-30T15:35:42.345Z</time>
      </trkpt>
      <trkpt lat="43.89187" lon="1.26909">
        <ele>155.611379</ele>
        <time>2022-12-30T15:35:44.345Z</time>
      </trkpt>
      <trkpt lat="43.89177" lon="1.26909">
        <ele>155.601424</ele>
        <time>2022-12-30T15:35:46.359Z</time>
      </trkpt>
      <trkpt lat="43.89168" lon="1.26909">
        <ele>155.591572</ele>
        <time>2022-12-30T15:35:48.361Z</time>
      </trkpt>
      <trkpt lat="43.89158" lon="1.26909">
        <ele>155.581202</ele>
        <time>2022-12-30T15:35:50.343Z</time>
      </trkpt>
      <trkpt lat="43.89149" lon="1.26909">
        <ele>155.571555</ele>
        <time>2022-12-30T15:35:52.346Z</time>
      </trkpt>
      <trkpt lat="43.89139" lon="1.26909">
        <ele>155.561393</ele>
        <time>2022-12-30T15:35:54.360Z</time>
      </trkpt>
      <trkpt lat="43.89129" lon="1.26909">
        <ele>155.551542</ele>
        <time>2022-12-30T15:35:56.336Z</time>
      </trkpt>
      <trkpt lat="43.89117" lon="1.26908">
        <ele>155.538374</ele>
        <time>2022-12-30T15:35:59.360Z</time>
      </trkpt>
      <trkpt lat="43.89104" lon="1.26909">
        <ele>155.52572</ele>
        <time>2022-12-30T15:36:02.358Z</time>
      </trkpt>
      <trkpt lat="43.89093" lon="1.26909">
        <ele>155.513381</ele>
        <time>2022-12-30T15:36:05.352Z</time>
      </trkpt>
      <trkpt lat="43.8908" lon="1.26909">
        <ele>155.500096</ele>
        <time>2022-12-30T15:36:08.341Z</time>
      </trkpt>
      <trkpt lat="43.89066" lon="1.26909">
        <ele>155.458766</ele>
        <time>2022-12-30T15:36:11.343Z</time>
      </trkpt>
      <trkpt lat="43.89053" lon="1.26909">
        <ele>155.322778</ele>
        <time>2022-12-30T15:36:14.365Z</time>
      </trkpt>
      <trkpt lat="43.8904" lon="1.26909">
        <ele>155.188866</ele>
        <time>2022-12-30T15:36:17.344Z</time>
      </trkpt>
      <trkpt lat="43.89027" lon="1.26909">
        <ele>155.052861</ele>
        <time>2022-12-30T15:36:20.337Z</time>
      </trkpt>
      <trkpt lat="43.89018" lon="1.26909">
        <ele>154.958395</ele>
        <time>2022-12-30T15:36:22.360Z</time>
      </trkpt>
      <trkpt lat="43.89008" lon="1.2691">
        <ele>154.856596</ele>
        <time>2022-12-30T15:36:24.332Z</time>
      </trkpt>
      <trkpt lat="43.88996" lon="1.26911">
        <ele>154.722334</ele>
        <time>2022-12-30T15:36:27.348Z</time>
      </trkpt>
      <trkpt lat="43.88984" lon="1.26912">
        <ele>154.598748</ele>
        <time>2022-12-30T15:36:30.347Z</time>
      </trkpt>
      <trkpt lat="43.88973" lon="1.26912">
        <ele>154.492842</ele>
        <time>2022-12-30T15:36:33.330Z</time>
      </trkpt>
      <trkpt lat="43.88963" lon="1.26912">
        <ele>154.382797</ele>
        <time>2022-12-30T15:36:36.361Z</time>
      </trkpt>
      <trkpt lat="43.88952" lon="1.26913">
        <ele>154.269587</ele>
        <time>2022-12-30T15:36:39.334Z</time>
      </trkpt>
      <trkpt lat="43.8894" lon="1.26913">
        <ele>154.147987</ele>
        <time>2022-12-30T15:36:42.351Z</time>
      </trkpt>
      <trkpt lat="43.88928" lon="1.26914">
        <ele>154.024376</ele>
        <time>2022-12-30T15:36:45.333Z</time>
      </trkpt>
      <trkpt lat="43.88916" lon="1.26913">
        <ele>153.891451</ele>
        <time>2022-12-30T15:36:48.339Z</time>
      </trkpt>
      <trkpt lat="43.88902" lon="1.26913">
        <ele>153.754354</ele>
        <time>2022-12-30T15:36:51.335Z</time>
      </trkpt>
      <trkpt lat="43.88892" lon="1.26913">
        <ele>153.648469</ele>
        <time>2022-12-30T15:36:53.339Z</time>
      </trkpt>
      <trkpt lat="43.8888" lon="1.26915">
        <ele>153.593962</ele>
        <time>2022-12-30T15:36:56.334Z</time>
      </trkpt>
      <trkpt lat="43.88868" lon="1.26915">
        <ele>153.561788</ele>
        <time>2022-12-30T15:36:59.338Z</time>
      </trkpt>
      <trkpt lat="43.88857" lon="1.26916">
        <ele>153.531297</ele>
        <time>2022-12-30T15:37:02.334Z</time>
      </trkpt>
      <trkpt lat="43.88846" lon="1.26916">
        <ele>153.499716</ele>
        <time>2022-12-30T15:37:05.352Z</time>
      </trkpt>
      <trkpt lat="43.88834" lon="1.26916">
        <ele>153.465621</ele>
        <time>2022-12-30T15:37:08.335Z</time>
      </trkpt>
      <trkpt lat="43.88821" lon="1.26916">
        <ele>153.429296</ele>
        <time>2022-12-30T15:37:11.348Z</time>
      </trkpt>
      <trkpt lat="43.88807" lon="1.26918">
        <ele>153.389765</ele>
        <time>2022-12-30T15:37:14.336Z</time>
      </trkpt>
      <trkpt lat="43.88798" lon="1.26918">
        <ele>153.364596</ele>
        <time>2022-12-30T15:37:16.343Z</time>
      </trkpt>
      <trkpt lat="43.88788" lon="1.26918">
        <ele>153.338861</ele>
        <time>2022-12-30T15:37:18.355Z</time>
      </trkpt>
      <trkpt lat="43.88775" lon="1.26918">
        <ele>153.301417</ele>
        <time>2022-12-30T15:37:21.360Z</time>
      </trkpt>
      <trkpt lat="43.88762" lon="1.26918">
        <ele>153.264785</ele>
        <time>2022-12-30T15:37:24.359Z</time>
      </trkpt>
      <trkpt lat="43.88753" lon="1.26919">
        <ele>153.239293</ele>
        <time>2022-12-30T15:37:26.369Z</time>
      </trkpt>
      <trkpt lat="43.8874" lon="1.2692">
        <ele>153.203778</ele>
        <time>2022-12-30T15:37:29.337Z</time>
      </trkpt>
      <trkpt lat="43.88727" lon="1.26921">
        <ele>153.166029</ele>
        <time>2022-12-30T15:37:32.345Z</time>
      </trkpt>
      <trkpt lat="43.88714" lon="1.26921">
        <ele>153.131095</ele>
        <time>2022-12-30T15:37:35.333Z</time>
      </trkpt>
      <trkpt lat="43.88702" lon="1.26921">
        <ele>153.146029</ele>
        <time>2022-12-30T15:37:38.349Z</time>
      </trkpt>
      <trkpt lat="43.8869" lon="1.26921">
        <ele>153.183056</ele>
        <time>2022-12-30T15:37:41.344Z</time>
      </trkpt>
      <trkpt lat="43.88679" lon="1.26922">
        <ele>153.221725</ele>
        <time>2022-12-30T15:37:44.355Z</time>
      </trkpt>
      <trkpt lat="43.88666" lon="1.26922">
        <ele>153.263626</ele>
        <time>2022-12-30T15:37:47.356Z</time>
      </trkpt>
      <trkpt lat="43.88653" lon="1.26921">
        <ele>153.303912</ele>
        <time>2022-12-30T15:37:50.354Z</time>
      </trkpt>
      <trkpt lat="43.8864" lon="1.26921">
        <ele>153.345487</ele>
        <time>2022-12-30T15:37:53.359Z</time>
      </trkpt>
      <trkpt lat="43.88627" lon="1.26922">
        <ele>153.388376</ele>
        <time>2022-12-30T15:37:56.360Z</time>
      </trkpt>
      <trkpt lat="43.88618" lon="1.26923">
        <ele>153.419275</ele>
        <time>2022-12-30T15:37:58.343Z</time>
      </trkpt>
      <trkpt lat="43.88609" lon="1.26922">
        <ele>153.449179</ele>
        <time>2022-12-30T15:38:00.345Z</time>
      </trkpt>
      <trkpt lat="43.88599" lon="1.26923">
        <ele>153.480107</ele>
        <time>2022-12-30T15:38:02.332Z</time>
      </trkpt>
      <trkpt lat="43.88586" lon="1.26924">
        <ele>153.522764</ele>
        <time>2022-12-30T15:38:05.335Z</time>
      </trkpt>
      <trkpt lat="43.88574" lon="1.26925">
        <ele>153.562739</ele>
        <time>2022-12-30T15:38:08.348Z</time>
      </trkpt>
      <trkpt lat="43.88561" lon="1.26925">
        <ele>153.603349</ele>
        <time>2022-12-30T15:38:11.336Z</time>
      </trkpt>
      <trkpt lat="43.88549" lon="1.26925">
        <ele>153.643951</ele>
        <time>2022-12-30T15:38:14.332Z</time>
      </trkpt>
      <trkpt lat="43.88537" lon="1.26925">
        <ele>153.683263</ele>
        <time>2022-12-30T15:38:17.352Z</time>
      </trkpt>
      <trkpt lat="43.88523" lon="1.26926">
        <ele>153.546593</ele>
        <time>2022-12-30T15:38:20.335Z</time>
      </trkpt>
      <trkpt lat="43.88514" lon="1.26926">
        <ele>153.336457</ele>
        <time>2022-12-30T15:38:22.331Z</time>
      </trkpt>
      <trkpt lat="43.88504" lon="1.26926">
        <ele>153.115039</ele>
        <time>2022-12-30T15:38:24.353Z</time>
      </trkpt>
      <trkpt lat="43.88491" lon="1.26926">
        <ele>152.816845</ele>
        <time>2022-12-30T15:38:27.353Z</time>
      </trkpt>
      <trkpt lat="43.88477" lon="1.26927">
        <ele>152.511881</ele>
        <time>2022-12-30T15:38:30.363Z</time>
      </trkpt>
      <trkpt lat="43.88465" lon="1.26928">
        <ele>152.231607</ele>
        <time>2022-12-30T15:38:33.350Z</time>
      </trkpt>
      <trkpt lat="43.88452" lon="1.26927">
        <ele>151.935759</ele>
        <time>2022-12-30T15:38:36.360Z</time>
      </trkpt>
      <trkpt lat="43.88439" lon="1.26927">
        <ele>151.646642</ele>
        <time>2022-12-30T15:38:39.355Z</time>
      </trkpt>
      <trkpt lat="43.88427" lon="1.26928">
        <ele>151.377364</ele>
        <time>2022-12-30T15:38:42.348Z</time>
      </trkpt>
      <trkpt lat="43.88417" lon="1.26928">
        <ele>151.147065</ele>
        <time>2022-12-30T15:38:45.355Z</time>
      </trkpt>
      <trkpt lat="43.88408" lon="1.26929">
        <ele>150.934324</ele>
        <time>2022-12-30T15:38:48.331Z</time>
      </trkpt>
      <trkpt lat="43.88398" lon="1.26929">
        <ele>150.710775</ele>
        <time>2022-12-30T15:38:51.334Z</time>
      </trkpt>
      <trkpt lat="43.88387" lon="1.2693">
        <ele>150.466489</ele>
        <time>2022-12-30T15:38:54.333Z</time>
      </trkpt>
      <trkpt lat="43.88376" lon="1.26932">
        <ele>150.22026</ele>
        <time>2022-12-30T15:38:57.347Z</time>
      </trkpt>
      <trkpt lat="43.88364" lon="1.26935">
        <ele>149.944957</ele>
        <time>2022-12-30T15:39:00.335Z</time>
      </trkpt>
      <trkpt lat="43.88352" lon="1.26937">
        <ele>149.672706</ele>
        <time>2022-12-30T15:39:03.346Z</time>
      </trkpt>
      <trkpt lat="43.88341" lon="1.26941">
        <ele>149.516204</ele>
        <time>2022-12-30T15:39:06.339Z</time>
      </trkpt>
      <trkpt lat="43.88331" lon="1.26944">
        <ele>149.390272</ele>
        <time>2022-12-30T15:39:09.331Z</time>
      </trkpt>
      <trkpt lat="43.88321" lon="1.2695">
        <ele>149.259562</ele>
        <time>2022-12-30T15:39:13.350Z</time>
      </trkpt>
      <trkpt lat="43.88311" lon="1.26955">
        <ele>149.119823</ele>
        <time>2022-12-30T15:39:17.349Z</time>
      </trkpt>
      <trkpt lat="43.883" lon="1.26959">
        <ele>148.982516</ele>
        <time>2022-12-30T15:39:20.348Z</time>
      </trkpt>
      <trkpt lat="43.88287" lon="1.26965">
        <ele>148.816249</ele>
        <time>2022-12-30T15:39:23.349Z</time>
      </trkpt>
      <trkpt lat="43.88275" lon="1.26972">
        <ele>148.653409</ele>
        <time>2022-12-30T15:39:26.329Z</time>
      </trkpt>
      <trkpt lat="43.88263" lon="1.2698">
        <ele>148.491151</ele>
        <time>2022-12-30T15:39:29.351Z</time>
      </trkpt>
      <trkpt lat="43.88252" lon="1.26989">
        <ele>148.329414</ele>
        <time>2022-12-30T15:39:32.342Z</time>
      </trkpt>
      <trkpt lat="43.8824" lon="1.26998">
        <ele>148.164226</ele>
        <time>2022-12-30T15:39:35.336Z</time>
      </trkpt>
      <trkpt lat="43.8823" lon="1.27006">
        <ele>148.016847</ele>
        <time>2022-12-30T15:39:38.341Z</time>
      </trkpt>
      <trkpt lat="43.88218" lon="1.27015">
        <ele>147.849919</ele>
        <time>2022-12-30T15:39:41.343Z</time>
      </trkpt>
      <trkpt lat="43.8821" lon="1.27021">
        <ele>147.738566</ele>
        <time>2022-12-30T15:39:43.344Z</time>
      </trkpt>
      <trkpt lat="43.88201" lon="1.27026">
        <ele>147.622371</ele>
        <time>2022-12-30T15:39:45.340Z</time>
      </trkpt>
      <trkpt lat="43.88192" lon="1.2703">
        <ele>147.509793</ele>
        <time>2022-12-30T15:39:47.355Z</time>
      </trkpt>
      <trkpt lat="43.8818" lon="1.27036">
        <ele>147.455649</ele>
        <time>2022-12-30T15:39:50.361Z</time>
      </trkpt>
      <trkpt lat="43.88168" lon="1.2704">
        <ele>147.53382</ele>
        <time>2022-12-30T15:39:53.334Z</time>
      </trkpt>
      <trkpt lat="43.88155" lon="1.27044">
        <ele>147.607274</ele>
        <time>2022-12-30T15:39:56.338Z</time>
      </trkpt>
      <trkpt lat="43.88143" lon="1.27046">
        <ele>147.682063</ele>
        <time>2022-12-30T15:39:59.330Z</time>
      </trkpt>
      <trkpt lat="43.8813" lon="1.27048">
        <ele>147.757247</ele>
        <time>2022-12-30T15:40:02.372Z</time>
      </trkpt>
      <trkpt lat="43.88118" lon="1.27048">
        <ele>147.833253</ele>
        <time>2022-12-30T15:40:05.329Z</time>
      </trkpt>
      <trkpt lat="43.88105" lon="1.27048">
        <ele>147.909827</ele>
        <time>2022-12-30T15:40:08.334Z</time>
      </trkpt>
      <trkpt lat="43.88092" lon="1.27045">
        <ele>147.986223</ele>
        <time>2022-12-30T15:40:11.351Z</time>
      </trkpt>
      <trkpt lat="43.8808" lon="1.27042">
        <ele>148.05709</ele>
        <time>2022-12-30T15:40:14.332Z</time>
      </trkpt>
      <trkpt lat="43.8807" lon="1.2704">
        <ele>148.118823</ele>
        <time>2022-12-30T15:40:17.328Z</time>
      </trkpt>
      <trkpt lat="43.8806" lon="1.27036">
        <ele>148.17827</ele>
        <time>2022-12-30T15:40:20.357Z</time>
      </trkpt>
      <trkpt lat="43.88049" lon="1.27032">
        <ele>148.245353</ele>
        <time>2022-12-30T15:40:23.341Z</time>
      </trkpt>
      <trkpt lat="43.88038" lon="1.27029">
        <ele>148.313985</ele>
        <time>2022-12-30T15:40:26.339Z</time>
      </trkpt>
      <trkpt lat="43.88027" lon="1.27024">
        <ele>148.38457</ele>
        <time>2022-12-30T15:40:29.348Z</time>
      </trkpt>
      <trkpt lat="43.88014" lon="1.2702">
        <ele>148.461115</ele>
        <time>2022-12-30T15:40:32.341Z</time>
      </trkpt>
      <trkpt lat="43.88005" lon="1.27017">
        <ele>148.496966</ele>
        <time>2022-12-30T15:40:34.332Z</time>
      </trkpt>
      <trkpt lat="43.87993" lon="1.27012">
        <ele>148.51962</ele>
        <time>2022-12-30T15:40:37.358Z</time>
      </trkpt>
      <trkpt lat="43.87983" lon="1.27009">
        <ele>148.535804</ele>
        <time>2022-12-30T15:40:39.334Z</time>
      </trkpt>
      <trkpt lat="43.87971" lon="1.27005">
        <ele>148.558638</ele>
        <time>2022-12-30T15:40:42.348Z</time>
      </trkpt>
      <trkpt lat="43.87962" lon="1.27002">
        <ele>148.574129</ele>
        <time>2022-12-30T15:40:44.341Z</time>
      </trkpt>
      <trkpt lat="43.87951" lon="1.26997">
        <ele>148.593798</ele>
        <time>2022-12-30T15:40:47.342Z</time>
      </trkpt>
      <trkpt lat="43.87939" lon="1.26993">
        <ele>148.615326</ele>
        <time>2022-12-30T15:40:50.333Z</time>
      </trkpt>
      <trkpt lat="43.87929" lon="1.2699">
        <ele>148.631968</ele>
        <time>2022-12-30T15:40:53.346Z</time>
      </trkpt>
      <trkpt lat="43.87919" lon="1.26987">
        <ele>148.649745</ele>
        <time>2022-12-30T15:40:56.357Z</time>
      </trkpt>
      <trkpt lat="43.87907" lon="1.26983">
        <ele>148.672107</ele>
        <time>2022-12-30T15:40:59.351Z</time>
      </trkpt>
      <trkpt lat="43.87894" lon="1.26979">
        <ele>148.695108</ele>
        <time>2022-12-30T15:41:02.339Z</time>
      </trkpt>
      <trkpt lat="43.87881" lon="1.26974">
        <ele>148.717501</ele>
        <time>2022-12-30T15:41:05.353Z</time>
      </trkpt>
      <trkpt lat="43.87872" lon="1.26971">
        <ele>148.732997</ele>
        <time>2022-12-30T15:41:07.348Z</time>
      </trkpt>
      <trkpt lat="43.8786" lon="1.26966">
        <ele>148.755718</ele>
        <time>2022-12-30T15:41:10.351Z</time>
      </trkpt>
      <trkpt lat="43.87851" lon="1.26962">
        <ele>148.771473</ele>
        <time>2022-12-30T15:41:12.360Z</time>
      </trkpt>
      <trkpt lat="43.87842" lon="1.26959">
        <ele>148.78704</ele>
        <time>2022-12-30T15:41:14.361Z</time>
      </trkpt>
      <trkpt lat="43.87829" lon="1.26955">
        <ele>148.895939</ele>
        <time>2022-12-30T15:41:17.372Z</time>
      </trkpt>
      <trkpt lat="43.8782" lon="1.26952">
        <ele>149.039279</ele>
        <time>2022-12-30T15:41:19.354Z</time>
      </trkpt>
      <trkpt lat="43.87811" lon="1.2695">
        <ele>149.174935</ele>
        <time>2022-12-30T15:41:21.344Z</time>
      </trkpt>
      <trkpt lat="43.87801" lon="1.26948">
        <ele>149.320897</ele>
        <time>2022-12-30T15:41:23.358Z</time>
      </trkpt>
      <trkpt lat="43.87788" lon="1.26945">
        <ele>149.523632</ele>
        <time>2022-12-30T15:41:26.341Z</time>
      </trkpt>
      <trkpt lat="43.87779" lon="1.26945">
        <ele>149.659713</ele>
        <time>2022-12-30T15:41:28.351Z</time>
      </trkpt>
      <trkpt lat="43.8777" lon="1.26944">
        <ele>149.801869</ele>
        <time>2022-12-30T15:41:30.331Z</time>
      </trkpt>
      <trkpt lat="43.87761" lon="1.26943">
        <ele>149.940044</ele>
        <time>2022-12-30T15:41:32.340Z</time>
      </trkpt>
      <trkpt lat="43.87751" lon="1.26942">
        <ele>150.088855</ele>
        <time>2022-12-30T15:41:34.334Z</time>
      </trkpt>
      <trkpt lat="43.87741" lon="1.26942">
        <ele>150.237026</ele>
        <time>2022-12-30T15:41:36.358Z</time>
      </trkpt>
      <trkpt lat="43.87732" lon="1.26943">
        <ele>150.37616</ele>
        <time>2022-12-30T15:41:38.332Z</time>
      </trkpt>
      <trkpt lat="43.87723" lon="1.26943">
        <ele>150.515333</ele>
        <time>2022-12-30T15:41:40.360Z</time>
      </trkpt>
      <trkpt lat="43.87714" lon="1.26944">
        <ele>150.653236</ele>
        <time>2022-12-30T15:41:42.358Z</time>
      </trkpt>
      <trkpt lat="43.87705" lon="1.26944">
        <ele>150.789296</ele>
        <time>2022-12-30T15:41:44.351Z</time>
      </trkpt>
      <trkpt lat="43.87695" lon="1.26944">
        <ele>150.932934</ele>
        <time>2022-12-30T15:41:46.358Z</time>
      </trkpt>
      <trkpt lat="43.87685" lon="1.26944">
        <ele>151.084096</ele>
        <time>2022-12-30T15:41:48.357Z</time>
      </trkpt>
      <trkpt lat="43.87676" lon="1.26943">
        <ele>151.223371</ele>
        <time>2022-12-30T15:41:50.344Z</time>
      </trkpt>
      <trkpt lat="43.87666" lon="1.26944">
        <ele>151.374592</ele>
        <time>2022-12-30T15:41:52.345Z</time>
      </trkpt>
      <trkpt lat="43.87656" lon="1.26945">
        <ele>151.514548</ele>
        <time>2022-12-30T15:41:54.357Z</time>
      </trkpt>
      <trkpt lat="43.87646" lon="1.26945">
        <ele>151.300571</ele>
        <time>2022-12-30T15:41:56.351Z</time>
      </trkpt>
      <trkpt lat="43.87637" lon="1.26945">
        <ele>151.095195</ele>
        <time>2022-12-30T15:41:58.329Z</time>
      </trkpt>
      <trkpt lat="43.87627" lon="1.26946">
        <ele>150.889623</ele>
        <time>2022-12-30T15:42:00.364Z</time>
      </trkpt>
      <trkpt lat="43.87618" lon="1.26945">
        <ele>150.688609</ele>
        <time>2022-12-30T15:42:02.340Z</time>
      </trkpt>
      <trkpt lat="43.87608" lon="1.26946">
        <ele>150.474661</ele>
        <time>2022-12-30T15:42:04.357Z</time>
      </trkpt>
      <trkpt lat="43.87599" lon="1.26946">
        <ele>150.280027</ele>
        <time>2022-12-30T15:42:06.337Z</time>
      </trkpt>
      <trkpt lat="43.8759" lon="1.26946">
        <ele>150.072532</ele>
        <time>2022-12-30T15:42:08.359Z</time>
      </trkpt>
      <trkpt lat="43.8758" lon="1.26946">
        <ele>149.860745</ele>
        <time>2022-12-30T15:42:10.355Z</time>
      </trkpt>
      <trkpt lat="43.87567" lon="1.26947">
        <ele>149.575086</ele>
        <time>2022-12-30T15:42:13.346Z</time>
      </trkpt>
      <trkpt lat="43.87557" lon="1.26947">
        <ele>149.376231</ele>
        <time>2022-12-30T15:42:15.354Z</time>
      </trkpt>
      <trkpt lat="43.87546" lon="1.26948">
        <ele>149.120865</ele>
        <time>2022-12-30T15:42:18.342Z</time>
      </trkpt>
      <trkpt lat="43.87534" lon="1.26948">
        <ele>148.876682</ele>
        <time>2022-12-30T15:42:21.353Z</time>
      </trkpt>
      <trkpt lat="43.87522" lon="1.26948">
        <ele>148.6217</ele>
        <time>2022-12-30T15:42:24.359Z</time>
      </trkpt>
      <trkpt lat="43.8751" lon="1.26948">
        <ele>148.349414</ele>
        <time>2022-12-30T15:42:27.334Z</time>
      </trkpt>
      <trkpt lat="43.87497" lon="1.2695">
        <ele>148.069408</ele>
        <time>2022-12-30T15:42:30.340Z</time>
      </trkpt>
      <trkpt lat="43.87484" lon="1.2695">
        <ele>147.788388</ele>
        <time>2022-12-30T15:42:33.345Z</time>
      </trkpt>
      <trkpt lat="43.87471" lon="1.26951">
        <ele>147.615402</ele>
        <time>2022-12-30T15:42:36.340Z</time>
      </trkpt>
      <trkpt lat="43.8746" lon="1.26952">
        <ele>147.582162</ele>
        <time>2022-12-30T15:42:39.355Z</time>
      </trkpt>
      <trkpt lat="43.8745" lon="1.26953">
        <ele>147.554409</ele>
        <time>2022-12-30T15:42:42.330Z</time>
      </trkpt>
      <trkpt lat="43.8744" lon="1.26955">
        <ele>147.523247</ele>
        <time>2022-12-30T15:42:46.345Z</time>
      </trkpt>
      <trkpt lat="43.87431" lon="1.26957">
        <ele>147.496375</ele>
        <time>2022-12-30T15:42:49.356Z</time>
      </trkpt>
      <trkpt lat="43.8742" lon="1.26959">
        <ele>147.464226</ele>
        <time>2022-12-30T15:42:52.355Z</time>
      </trkpt>
      <trkpt lat="43.87408" lon="1.26962">
        <ele>147.428238</ele>
        <time>2022-12-30T15:42:55.332Z</time>
      </trkpt>
      <trkpt lat="43.87399" lon="1.26964">
        <ele>147.40172</ele>
        <time>2022-12-30T15:42:57.364Z</time>
      </trkpt>
      <trkpt lat="43.87385" lon="1.26967">
        <ele>147.362853</ele>
        <time>2022-12-30T15:43:00.338Z</time>
      </trkpt>
      <trkpt lat="43.87373" lon="1.26969">
        <ele>147.326222</ele>
        <time>2022-12-30T15:43:03.357Z</time>
      </trkpt>
      <trkpt lat="43.87361" lon="1.26971">
        <ele>147.291374</ele>
        <time>2022-12-30T15:43:06.356Z</time>
      </trkpt>
      <trkpt lat="43.8735" lon="1.26974">
        <ele>147.258008</ele>
        <time>2022-12-30T15:43:09.331Z</time>
      </trkpt>
      <trkpt lat="43.87338" lon="1.26978">
        <ele>147.221852</ele>
        <time>2022-12-30T15:43:12.341Z</time>
      </trkpt>
      <trkpt lat="43.87329" lon="1.26982">
        <ele>147.195242</ele>
        <time>2022-12-30T15:43:14.339Z</time>
      </trkpt>
      <trkpt lat="43.87316" lon="1.26986">
        <ele>147.157022</ele>
        <time>2022-12-30T15:43:17.330Z</time>
      </trkpt>
      <trkpt lat="43.87307" lon="1.26989">
        <ele>147.12985</ele>
        <time>2022-12-30T15:43:19.340Z</time>
      </trkpt>
      <trkpt lat="43.87298" lon="1.26992">
        <ele>147.086043</ele>
        <time>2022-12-30T15:43:21.356Z</time>
      </trkpt>
      <trkpt lat="43.87289" lon="1.26995">
        <ele>146.985198</ele>
        <time>2022-12-30T15:43:23.347Z</time>
      </trkpt>
      <trkpt lat="43.87278" lon="1.27">
        <ele>146.861967</ele>
        <time>2022-12-30T15:43:26.341Z</time>
      </trkpt>
      <trkpt lat="43.87269" lon="1.27004">
        <ele>146.764307</ele>
        <time>2022-12-30T15:43:28.335Z</time>
      </trkpt>
      <trkpt lat="43.87256" lon="1.27009">
        <ele>146.6167</ele>
        <time>2022-12-30T15:43:31.343Z</time>
      </trkpt>
      <trkpt lat="43.87247" lon="1.27014">
        <ele>146.516268</ele>
        <time>2022-12-30T15:43:33.356Z</time>
      </trkpt>
      <trkpt lat="43.87235" lon="1.27017">
        <ele>146.377727</ele>
        <time>2022-12-30T15:43:36.348Z</time>
      </trkpt>
      <trkpt lat="43.87223" lon="1.27022">
        <ele>146.245229</ele>
        <time>2022-12-30T15:43:39.330Z</time>
      </trkpt>
      <trkpt lat="43.87212" lon="1.27027">
        <ele>146.120159</ele>
        <time>2022-12-30T15:43:42.356Z</time>
      </trkpt>
      <trkpt lat="43.87201" lon="1.27034">
        <ele>145.996811</ele>
        <time>2022-12-30T15:43:45.337Z</time>
      </trkpt>
      <trkpt lat="43.8719" lon="1.27042">
        <ele>145.862962</ele>
        <time>2022-12-30T15:43:48.341Z</time>
      </trkpt>
      <trkpt lat="43.87178" lon="1.27048">
        <ele>145.723723</ele>
        <time>2022-12-30T15:43:51.342Z</time>
      </trkpt>
      <trkpt lat="43.87169" lon="1.27052">
        <ele>145.626152</ele>
        <time>2022-12-30T15:43:53.359Z</time>
      </trkpt>
      <trkpt lat="43.87161" lon="1.27056">
        <ele>145.528559</ele>
        <time>2022-12-30T15:43:55.348Z</time>
      </trkpt>
      <trkpt lat="43.87152" lon="1.2706">
        <ele>145.425147</ele>
        <time>2022-12-30T15:43:57.335Z</time>
      </trkpt>
      <trkpt lat="43.87139" lon="1.27067">
        <ele>145.28356</ele>
        <time>2022-12-30T15:44:00.335Z</time>
      </trkpt>
      <trkpt lat="43.87128" lon="1.27074">
        <ele>145.176399</ele>
        <time>2022-12-30T15:44:03.360Z</time>
      </trkpt>
      <trkpt lat="43.87119" lon="1.27079">
        <ele>145.19283</ele>
        <time>2022-12-30T15:44:05.361Z</time>
      </trkpt>
      <trkpt lat="43.87108" lon="1.27086">
        <ele>145.215436</ele>
        <time>2022-12-30T15:44:08.331Z</time>
      </trkpt>
      <trkpt lat="43.87096" lon="1.27092">
        <ele>145.238161</ele>
        <time>2022-12-30T15:44:11.330Z</time>
      </trkpt>
      <trkpt lat="43.87084" lon="1.27099">
        <ele>145.26098</ele>
        <time>2022-12-30T15:44:14.341Z</time>
      </trkpt>
      <trkpt lat="43.87072" lon="1.27108">
        <ele>145.284781</ele>
        <time>2022-12-30T15:44:17.334Z</time>
      </trkpt>
      <trkpt lat="43.8706" lon="1.27116">
        <ele>145.307022</ele>
        <time>2022-12-30T15:44:20.352Z</time>
      </trkpt>
      <trkpt lat="43.87051" lon="1.27123">
        <ele>145.326283</ele>
        <time>2022-12-30T15:44:23.366Z</time>
      </trkpt>
      <trkpt lat="43.87041" lon="1.2713">
        <ele>145.345591</ele>
        <time>2022-12-30T15:44:27.330Z</time>
      </trkpt>
      <trkpt lat="43.8703" lon="1.27138">
        <ele>145.366988</ele>
        <time>2022-12-30T15:44:31.356Z</time>
      </trkpt>
      <trkpt lat="43.87022" lon="1.27145">
        <ele>145.383823</ele>
        <time>2022-12-30T15:44:34.333Z</time>
      </trkpt>
      <trkpt lat="43.87012" lon="1.27154">
        <ele>145.405255</ele>
        <time>2022-12-30T15:44:38.337Z</time>
      </trkpt>
      <trkpt lat="43.87002" lon="1.27162">
        <ele>145.426364</ele>
        <time>2022-12-30T15:44:41.330Z</time>
      </trkpt>
      <trkpt lat="43.8699" lon="1.27171">
        <ele>145.449149</ele>
        <time>2022-12-30T15:44:44.354Z</time>
      </trkpt>
      <trkpt lat="43.86982" lon="1.27178">
        <ele>145.465422</ele>
        <time>2022-12-30T15:44:46.356Z</time>
      </trkpt>
      <trkpt lat="43.86975" lon="1.27185">
        <ele>145.481872</ele>
        <time>2022-12-30T15:44:48.342Z</time>
      </trkpt>
      <trkpt lat="43.86964" lon="1.27196">
        <ele>145.574504</ele>
        <time>2022-12-30T15:44:51.330Z</time>
      </trkpt>
      <trkpt lat="43.86954" lon="1.27203">
        <ele>145.681453</ele>
        <time>2022-12-30T15:44:54.341Z</time>
      </trkpt>
      <trkpt lat="43.86943" lon="1.27212">
        <ele>145.803867</ele>
        <time>2022-12-30T15:44:57.358Z</time>
      </trkpt>
      <trkpt lat="43.86933" lon="1.27219">
        <ele>145.911903</ele>
        <time>2022-12-30T15:45:00.335Z</time>
      </trkpt>
      <trkpt lat="43.86922" lon="1.27227">
        <ele>146.030923</ele>
        <time>2022-12-30T15:45:03.357Z</time>
      </trkpt>
      <trkpt lat="43.86911" lon="1.27235">
        <ele>146.149484</ele>
        <time>2022-12-30T15:45:06.348Z</time>
      </trkpt>
      <trkpt lat="43.86903" lon="1.27245">
        <ele>146.253477</ele>
        <time>2022-12-30T15:45:09.334Z</time>
      </trkpt>
      <trkpt lat="43.86894" lon="1.27252">
        <ele>146.348825</ele>
        <time>2022-12-30T15:45:12.333Z</time>
      </trkpt>
      <trkpt lat="43.86885" lon="1.27261">
        <ele>146.459073</ele>
        <time>2022-12-30T15:45:15.333Z</time>
      </trkpt>
      <trkpt lat="43.86877" lon="1.27268">
        <ele>146.545002</ele>
        <time>2022-12-30T15:45:17.341Z</time>
      </trkpt>
      <trkpt lat="43.86866" lon="1.27276">
        <ele>146.666987</ele>
        <time>2022-12-30T15:45:20.355Z</time>
      </trkpt>
      <trkpt lat="43.86858" lon="1.27282">
        <ele>146.755041</ele>
        <time>2022-12-30T15:45:22.347Z</time>
      </trkpt>
      <trkpt lat="43.86846" lon="1.27289">
        <ele>146.874135</ele>
        <time>2022-12-30T15:45:25.333Z</time>
      </trkpt>
      <trkpt lat="43.86836" lon="1.27296">
        <ele>146.984262</ele>
        <time>2022-12-30T15:45:28.333Z</time>
      </trkpt>
      <trkpt lat="43.86826" lon="1.27304">
        <ele>147.089304</ele>
        <time>2022-12-30T15:45:31.339Z</time>
      </trkpt>
      <trkpt lat="43.86815" lon="1.27313">
        <ele>147.232694</ele>
        <time>2022-12-30T15:45:34.362Z</time>
      </trkpt>
      <trkpt lat="43.86805" lon="1.27321">
        <ele>147.543792</ele>
        <time>2022-12-30T15:45:36.357Z</time>
      </trkpt>
      <trkpt lat="43.86798" lon="1.27327">
        <ele>147.792544</ele>
        <time>2022-12-30T15:45:38.338Z</time>
      </trkpt>
      <trkpt lat="43.86787" lon="1.27336">
        <ele>148.131634</ele>
        <time>2022-12-30T15:45:41.344Z</time>
      </trkpt>
      <trkpt lat="43.8678" lon="1.27343">
        <ele>148.382258</ele>
        <time>2022-12-30T15:45:43.331Z</time>
      </trkpt>
      <trkpt lat="43.8677" lon="1.27351">
        <ele>148.702508</ele>
        <time>2022-12-30T15:45:46.359Z</time>
      </trkpt>
      <trkpt lat="43.86762" lon="1.27358">
        <ele>148.963869</ele>
        <time>2022-12-30T15:45:49.356Z</time>
      </trkpt>
      <trkpt lat="43.86752" lon="1.27365">
        <ele>149.260129</ele>
        <time>2022-12-30T15:45:52.354Z</time>
      </trkpt>
      <trkpt lat="43.86742" lon="1.27373">
        <ele>149.589005</ele>
        <time>2022-12-30T15:45:55.337Z</time>
      </trkpt>
      <trkpt lat="43.86732" lon="1.27382">
        <ele>149.929124</ele>
        <time>2022-12-30T15:45:58.333Z</time>
      </trkpt>
      <trkpt lat="43.86721" lon="1.27391">
        <ele>150.284216</ele>
        <time>2022-12-30T15:46:01.352Z</time>
      </trkpt>
      <trkpt lat="43.8671" lon="1.27401">
        <ele>150.62596</ele>
        <time>2022-12-30T15:46:04.352Z</time>
      </trkpt>
      <trkpt lat="43.86701" lon="1.27408">
        <ele>150.934826</ele>
        <time>2022-12-30T15:46:08.353Z</time>
      </trkpt>
      <trkpt lat="43.86691" lon="1.27415">
        <ele>151.235516</ele>
        <time>2022-12-30T15:46:12.361Z</time>
      </trkpt>
      <trkpt lat="43.86681" lon="1.27423">
        <ele>151.553591</ele>
        <time>2022-12-30T15:46:16.341Z</time>
      </trkpt>
      <trkpt lat="43.86672" lon="1.27431">
        <ele>151.838644</ele>
        <time>2022-12-30T15:46:19.332Z</time>
      </trkpt>
      <trkpt lat="43.86663" lon="1.27437">
        <ele>152.124717</ele>
        <time>2022-12-30T15:46:22.343Z</time>
      </trkpt>
      <trkpt lat="43.86654" lon="1.27444">
        <ele>152.337181</ele>
        <time>2022-12-30T15:46:25.336Z</time>
      </trkpt>
      <trkpt lat="43.86644" lon="1.27449">
        <ele>152.534752</ele>
        <time>2022-12-30T15:46:28.335Z</time>
      </trkpt>
      <trkpt lat="43.86634" lon="1.27455">
        <ele>152.73135</ele>
        <time>2022-12-30T15:46:31.328Z</time>
      </trkpt>
      <trkpt lat="43.86625" lon="1.2746">
        <ele>152.906543</ele>
        <time>2022-12-30T15:46:34.346Z</time>
      </trkpt>
      <trkpt lat="43.86615" lon="1.27467">
        <ele>153.111652</ele>
        <time>2022-12-30T15:46:38.328Z</time>
      </trkpt>
      <trkpt lat="43.86607" lon="1.27474">
        <ele>153.288621</ele>
        <time>2022-12-30T15:46:42.331Z</time>
      </trkpt>
      <trkpt lat="43.86599" lon="1.2748">
        <ele>153.461118</ele>
        <time>2022-12-30T15:46:46.355Z</time>
      </trkpt>
      <trkpt lat="43.8659" lon="1.27487">
        <ele>153.649877</ele>
        <time>2022-12-30T15:46:51.344Z</time>
      </trkpt>
      <trkpt lat="43.86581" lon="1.27494">
        <ele>153.831914</ele>
        <time>2022-12-30T15:46:55.342Z</time>
      </trkpt>
      <trkpt lat="43.86571" lon="1.27502">
        <ele>154.048516</ele>
        <time>2022-12-30T15:46:59.359Z</time>
      </trkpt>
      <trkpt lat="43.86561" lon="1.27511">
        <ele>154.271341</ele>
        <time>2022-12-30T15:47:03.330Z</time>
      </trkpt>
      <trkpt lat="43.86552" lon="1.27517">
        <ele>154.443246</ele>
        <time>2022-12-30T15:47:06.334Z</time>
      </trkpt>
      <trkpt lat="43.86543" lon="1.27524">
        <ele>154.628443</ele>
        <time>2022-12-30T15:47:09.357Z</time>
      </trkpt>
      <trkpt lat="43.86534" lon="1.2753">
        <ele>154.813135</ele>
        <time>2022-12-30T15:47:12.330Z</time>
      </trkpt>
      <trkpt lat="43.86526" lon="1.27537">
        <ele>154.98749</ele>
        <time>2022-12-30T15:47:15.351Z</time>
      </trkpt>
      <trkpt lat="43.86518" lon="1.27543">
        <ele>155.15538</ele>
        <time>2022-12-30T15:47:18.330Z</time>
      </trkpt>
      <trkpt lat="43.86509" lon="1.27552">
        <ele>155.352655</ele>
        <time>2022-12-30T15:47:21.360Z</time>
      </trkpt>
      <trkpt lat="43.86501" lon="1.27559">
        <ele>155.511648</ele>
        <time>2022-12-30T15:47:24.338Z</time>
      </trkpt>
      <trkpt lat="43.8649" lon="1.27568">
        <ele>155.619007</ele>
        <time>2022-12-30T15:47:28.343Z</time>
      </trkpt>
      <trkpt lat="43.86481" lon="1.27575">
        <ele>155.714224</ele>
        <time>2022-12-30T15:47:31.331Z</time>
      </trkpt>
      <trkpt lat="43.86472" lon="1.27585">
        <ele>155.81845</ele>
        <time>2022-12-30T15:47:34.335Z</time>
      </trkpt>
      <trkpt lat="43.86463" lon="1.27597">
        <ele>155.923269</ele>
        <time>2022-12-30T15:47:37.346Z</time>
      </trkpt>
      <trkpt lat="43.86456" lon="1.27607">
        <ele>156.017209</ele>
        <time>2022-12-30T15:47:40.330Z</time>
      </trkpt>
      <trkpt lat="43.86451" lon="1.27619">
        <ele>156.099852</ele>
        <time>2022-12-30T15:47:43.346Z</time>
      </trkpt>
      <trkpt lat="43.86444" lon="1.27627">
        <ele>156.18488</ele>
        <time>2022-12-30T15:47:47.330Z</time>
      </trkpt>
      <trkpt lat="43.86434" lon="1.27627">
        <ele>156.272324</ele>
        <time>2022-12-30T15:47:51.334Z</time>
      </trkpt>
      <trkpt lat="43.86425" lon="1.27631">
        <ele>156.357418</ele>
        <time>2022-12-30T15:47:54.345Z</time>
      </trkpt>
      <trkpt lat="43.86415" lon="1.27638">
        <ele>156.454183</ele>
        <time>2022-12-30T15:47:57.333Z</time>
      </trkpt>
      <trkpt lat="43.86405" lon="1.27646">
        <ele>156.551572</ele>
        <time>2022-12-30T15:48:00.332Z</time>
      </trkpt>
      <trkpt lat="43.86396" lon="1.27653">
        <ele>156.644724</ele>
        <time>2022-12-30T15:48:03.335Z</time>
      </trkpt>
      <trkpt lat="43.86387" lon="1.27661">
        <ele>156.742972</ele>
        <time>2022-12-30T15:48:06.334Z</time>
      </trkpt>
      <trkpt lat="43.86377" lon="1.27669">
        <ele>156.846764</ele>
        <time>2022-12-30T15:48:09.336Z</time>
      </trkpt>
      <trkpt lat="43.86366" lon="1.27677">
        <ele>156.95272</ele>
        <time>2022-12-30T15:48:12.326Z</time>
      </trkpt>
      <trkpt lat="43.86355" lon="1.27686">
        <ele>157.064857</ele>
        <time>2022-12-30T15:48:15.350Z</time>
      </trkpt>
      <trkpt lat="43.86344" lon="1.27695">
        <ele>156.948311</ele>
        <time>2022-12-30T15:48:18.331Z</time>
      </trkpt>
      <trkpt lat="43.86333" lon="1.27703">
        <ele>156.799549</ele>
        <time>2022-12-30T15:48:21.346Z</time>
      </trkpt>
      <trkpt lat="43.86326" lon="1.2771">
        <ele>156.695394</ele>
        <time>2022-12-30T15:48:23.352Z</time>
      </trkpt>
      <trkpt lat="43.86317" lon="1.27717">
        <ele>156.584662</ele>
        <time>2022-12-30T15:48:25.343Z</time>
      </trkpt>
      <trkpt lat="43.8631" lon="1.27724">
        <ele>156.47784</ele>
        <time>2022-12-30T15:48:27.358Z</time>
      </trkpt>
      <trkpt lat="43.86302" lon="1.27731">
        <ele>156.372373</ele>
        <time>2022-12-30T15:48:29.359Z</time>
      </trkpt>
      <trkpt lat="43.8629" lon="1.2774">
        <ele>156.217744</ele>
        <time>2022-12-30T15:48:32.357Z</time>
      </trkpt>
      <trkpt lat="43.86278" lon="1.27749">
        <ele>156.056168</ele>
        <time>2022-12-30T15:48:35.362Z</time>
      </trkpt>
      <trkpt lat="43.86268" lon="1.27759">
        <ele>155.906354</ele>
        <time>2022-12-30T15:48:38.358Z</time>
      </trkpt>
      <trkpt lat="43.86257" lon="1.27768">
        <ele>155.756881</ele>
        <time>2022-12-30T15:48:41.327Z</time>
      </trkpt>
      <trkpt lat="43.86246" lon="1.27776">
        <ele>155.612769</ele>
        <time>2022-12-30T15:48:44.335Z</time>
      </trkpt>
      <trkpt lat="43.86234" lon="1.27786">
        <ele>155.455464</ele>
        <time>2022-12-30T15:48:47.340Z</time>
      </trkpt>
      <trkpt lat="43.86222" lon="1.27795">
        <ele>155.298581</ele>
        <time>2022-12-30T15:48:50.333Z</time>
      </trkpt>
      <trkpt lat="43.8621" lon="1.27804">
        <ele>155.142333</ele>
        <time>2022-12-30T15:48:53.355Z</time>
      </trkpt>
      <trkpt lat="43.86199" lon="1.27812">
        <ele>154.996161</ele>
        <time>2022-12-30T15:48:56.357Z</time>
      </trkpt>
      <trkpt lat="43.86189" lon="1.2782">
        <ele>154.881183</ele>
        <time>2022-12-30T15:48:59.353Z</time>
      </trkpt>
      <trkpt lat="43.86179" lon="1.27826">
        <ele>154.779349</ele>
        <time>2022-12-30T15:49:02.335Z</time>
      </trkpt>
      <trkpt lat="43.8617" lon="1.27834">
        <ele>154.671237</ele>
        <time>2022-12-30T15:49:05.358Z</time>
      </trkpt>
      <trkpt lat="43.86158" lon="1.27843">
        <ele>154.544146</ele>
        <time>2022-12-30T15:49:08.338Z</time>
      </trkpt>
      <trkpt lat="43.86148" lon="1.27851">
        <ele>154.425472</ele>
        <time>2022-12-30T15:49:11.333Z</time>
      </trkpt>
      <trkpt lat="43.86137" lon="1.27858">
        <ele>154.311532</ele>
        <time>2022-12-30T15:49:14.333Z</time>
      </trkpt>
      <trkpt lat="43.86128" lon="1.27865">
        <ele>154.206735</ele>
        <time>2022-12-30T15:49:17.337Z</time>
      </trkpt>
      <trkpt lat="43.86119" lon="1.27871">
        <ele>154.110781</ele>
        <time>2022-12-30T15:49:20.359Z</time>
      </trkpt>
      <trkpt lat="43.86112" lon="1.27876">
        <ele>154.038816</ele>
        <time>2022-12-30T15:49:30.310Z</time>
      </trkpt>
      <trkpt lat="43.85767" lon="1.28103">
        <ele>148.673905</ele>
        <time>2022-12-30T15:59:32.330Z</time>
      </trkpt>
      <trkpt lat="43.85757" lon="1.28109">
        <ele>148.584146</ele>
        <time>2022-12-30T15:59:36.338Z</time>
      </trkpt>
      <trkpt lat="43.85748" lon="1.28115">
        <ele>148.505207</ele>
        <time>2022-12-30T15:59:39.338Z</time>
      </trkpt>
      <trkpt lat="43.85738" lon="1.28121">
        <ele>148.41913</ele>
        <time>2022-12-30T15:59:42.358Z</time>
      </trkpt>
      <trkpt lat="43.85728" lon="1.28128">
        <ele>148.326307</ele>
        <time>2022-12-30T15:59:45.352Z</time>
      </trkpt>
      <trkpt lat="43.85718" lon="1.28135">
        <ele>148.229396</ele>
        <time>2022-12-30T15:59:48.344Z</time>
      </trkpt>
      <trkpt lat="43.85706" lon="1.28143">
        <ele>148.320606</ele>
        <time>2022-12-30T15:59:51.358Z</time>
      </trkpt>
      <trkpt lat="43.85695" lon="1.2815">
        <ele>148.535234</ele>
        <time>2022-12-30T15:59:54.349Z</time>
      </trkpt>
      <trkpt lat="43.85684" lon="1.28157">
        <ele>148.747819</ele>
        <time>2022-12-30T15:59:57.351Z</time>
      </trkpt>
      <trkpt lat="43.85673" lon="1.28164">
        <ele>148.959754</ele>
        <time>2022-12-30T16:00:00.337Z</time>
      </trkpt>
      <trkpt lat="43.85662" lon="1.28171">
        <ele>149.168017</ele>
        <time>2022-12-30T16:00:03.366Z</time>
      </trkpt>
      <trkpt lat="43.8565" lon="1.28178">
        <ele>149.384201</ele>
        <time>2022-12-30T16:00:06.341Z</time>
      </trkpt>
      <trkpt lat="43.85639" lon="1.28186">
        <ele>149.602434</ele>
        <time>2022-12-30T16:00:09.355Z</time>
      </trkpt>
      <trkpt lat="43.85627" lon="1.28194">
        <ele>149.827509</ele>
        <time>2022-12-30T16:00:12.335Z</time>
      </trkpt>
      <trkpt lat="43.85616" lon="1.28202">
        <ele>150.053129</ele>
        <time>2022-12-30T16:00:15.360Z</time>
      </trkpt>
      <trkpt lat="43.85604" lon="1.28208">
        <ele>150.276758</ele>
        <time>2022-12-30T16:00:18.340Z</time>
      </trkpt>
      <trkpt lat="43.85592" lon="1.28216">
        <ele>150.496608</ele>
        <time>2022-12-30T16:00:21.344Z</time>
      </trkpt>
      <trkpt lat="43.8558" lon="1.28223">
        <ele>150.72171</ele>
        <time>2022-12-30T16:00:24.360Z</time>
      </trkpt>
      <trkpt lat="43.85569" lon="1.28231">
        <ele>150.949989</ele>
        <time>2022-12-30T16:00:27.357Z</time>
      </trkpt>
      <trkpt lat="43.85557" lon="1.2824">
        <ele>151.183811</ele>
        <time>2022-12-30T16:00:30.352Z</time>
      </trkpt>
      <trkpt lat="43.85548" lon="1.28246">
        <ele>151.317671</ele>
        <time>2022-12-30T16:00:32.357Z</time>
      </trkpt>
      <trkpt lat="43.85539" lon="1.28252">
        <ele>151.358055</ele>
        <time>2022-12-30T16:00:34.359Z</time>
      </trkpt>
      <trkpt lat="43.85531" lon="1.28257">
        <ele>151.395904</ele>
        <time>2022-12-30T16:00:36.359Z</time>
      </trkpt>
      <trkpt lat="43.85523" lon="1.28262">
        <ele>151.43388</ele>
        <time>2022-12-30T16:00:38.349Z</time>
      </trkpt>
      <trkpt lat="43.85511" lon="1.2827">
        <ele>151.490135</ele>
        <time>2022-12-30T16:00:41.340Z</time>
      </trkpt>
      <trkpt lat="43.85499" lon="1.28279">
        <ele>151.546276</ele>
        <time>2022-12-30T16:00:44.342Z</time>
      </trkpt>
      <trkpt lat="43.85491" lon="1.28284">
        <ele>151.584371</ele>
        <time>2022-12-30T16:00:46.361Z</time>
      </trkpt>
      <trkpt lat="43.85478" lon="1.28292">
        <ele>151.642034</ele>
        <time>2022-12-30T16:00:49.342Z</time>
      </trkpt>
      <trkpt lat="43.85467" lon="1.28299">
        <ele>151.693098</ele>
        <time>2022-12-30T16:00:52.338Z</time>
      </trkpt>
      <trkpt lat="43.85457" lon="1.28306">
        <ele>151.741504</ele>
        <time>2022-12-30T16:00:55.340Z</time>
      </trkpt>
      <trkpt lat="43.85445" lon="1.28313">
        <ele>151.794176</ele>
        <time>2022-12-30T16:00:58.345Z</time>
      </trkpt>
      <trkpt lat="43.85433" lon="1.28321">
        <ele>151.849674</ele>
        <time>2022-12-30T16:01:01.351Z</time>
      </trkpt>
      <trkpt lat="43.85425" lon="1.28327">
        <ele>151.887918</ele>
        <time>2022-12-30T16:01:03.352Z</time>
      </trkpt>
      <trkpt lat="43.85417" lon="1.28333">
        <ele>151.925574</ele>
        <time>2022-12-30T16:01:05.357Z</time>
      </trkpt>
      <trkpt lat="43.85409" lon="1.28338">
        <ele>151.964067</ele>
        <time>2022-12-30T16:01:07.356Z</time>
      </trkpt>
      <trkpt lat="43.85397" lon="1.28347">
        <ele>152.020104</ele>
        <time>2022-12-30T16:01:10.375Z</time>
      </trkpt>
      <trkpt lat="43.85385" lon="1.28353">
        <ele>151.99316</ele>
        <time>2022-12-30T16:01:13.368Z</time>
      </trkpt>
      <trkpt lat="43.85376" lon="1.28359">
        <ele>151.786402</ele>
        <time>2022-12-30T16:01:15.360Z</time>
      </trkpt>
      <trkpt lat="43.85365" lon="1.28367">
        <ele>151.513293</ele>
        <time>2022-12-30T16:01:18.359Z</time>
      </trkpt>
      <trkpt lat="43.85355" lon="1.28374">
        <ele>151.274604</ele>
        <time>2022-12-30T16:01:21.342Z</time>
      </trkpt>
      <trkpt lat="43.85345" lon="1.2838">
        <ele>151.048503</ele>
        <time>2022-12-30T16:01:24.336Z</time>
      </trkpt>
      <trkpt lat="43.85335" lon="1.28387">
        <ele>150.810823</ele>
        <time>2022-12-30T16:01:27.355Z</time>
      </trkpt>
      <trkpt lat="43.85324" lon="1.28393">
        <ele>150.560901</ele>
        <time>2022-12-30T16:01:30.339Z</time>
      </trkpt>
      <trkpt lat="43.85313" lon="1.284">
        <ele>150.307551</ele>
        <time>2022-12-30T16:01:33.341Z</time>
      </trkpt>
      <trkpt lat="43.85303" lon="1.28407">
        <ele>150.055699</ele>
        <time>2022-12-30T16:01:36.337Z</time>
      </trkpt>
      <trkpt lat="43.85292" lon="1.28413">
        <ele>149.815432</ele>
        <time>2022-12-30T16:01:39.352Z</time>
      </trkpt>
      <trkpt lat="43.85281" lon="1.28419">
        <ele>149.563804</ele>
        <time>2022-12-30T16:01:42.338Z</time>
      </trkpt>
      <trkpt lat="43.8527" lon="1.28426">
        <ele>149.309267</ele>
        <time>2022-12-30T16:01:45.355Z</time>
      </trkpt>
      <trkpt lat="43.85259" lon="1.28433">
        <ele>149.036152</ele>
        <time>2022-12-30T16:01:48.350Z</time>
      </trkpt>
      <trkpt lat="43.8525" lon="1.28439">
        <ele>148.821303</ele>
        <time>2022-12-30T16:01:50.359Z</time>
      </trkpt>
      <trkpt lat="43.85242" lon="1.28445">
        <ele>148.624646</ele>
        <time>2022-12-30T16:01:52.344Z</time>
      </trkpt>
      <trkpt lat="43.85229" lon="1.28453">
        <ele>148.332851</ele>
        <time>2022-12-30T16:01:55.353Z</time>
      </trkpt>
      <trkpt lat="43.85218" lon="1.28459">
        <ele>148.401359</ele>
        <time>2022-12-30T16:01:58.338Z</time>
      </trkpt>
      <trkpt lat="43.85206" lon="1.28467">
        <ele>148.685208</ele>
        <time>2022-12-30T16:02:01.353Z</time>
      </trkpt>
      <trkpt lat="43.85194" lon="1.28474">
        <ele>148.965403</ele>
        <time>2022-12-30T16:02:04.360Z</time>
      </trkpt>
      <trkpt lat="43.85182" lon="1.28481">
        <ele>149.252091</ele>
        <time>2022-12-30T16:02:07.342Z</time>
      </trkpt>
      <trkpt lat="43.8517" lon="1.28488">
        <ele>149.531962</ele>
        <time>2022-12-30T16:02:10.359Z</time>
      </trkpt>
      <trkpt lat="43.85161" lon="1.28494">
        <ele>149.758113</ele>
        <time>2022-12-30T16:02:12.364Z</time>
      </trkpt>
      <trkpt lat="43.8515" lon="1.28502">
        <ele>150.032867</ele>
        <time>2022-12-30T16:02:15.342Z</time>
      </trkpt>
      <trkpt lat="43.85139" lon="1.28511">
        <ele>150.320593</ele>
        <time>2022-12-30T16:02:18.341Z</time>
      </trkpt>
      <trkpt lat="43.85127" lon="1.28519">
        <ele>150.611772</ele>
        <time>2022-12-30T16:02:21.359Z</time>
      </trkpt>
      <trkpt lat="43.85116" lon="1.28526">
        <ele>150.877977</ele>
        <time>2022-12-30T16:02:24.355Z</time>
      </trkpt>
      <trkpt lat="43.85106" lon="1.28533">
        <ele>151.118051</ele>
        <time>2022-12-30T16:02:27.355Z</time>
      </trkpt>
      <trkpt lat="43.85097" lon="1.2854">
        <ele>151.34689</ele>
        <time>2022-12-30T16:02:30.346Z</time>
      </trkpt>
      <trkpt lat="43.85088" lon="1.28546">
        <ele>151.568193</ele>
        <time>2022-12-30T16:02:33.352Z</time>
      </trkpt>
      <trkpt lat="43.8508" lon="1.28551">
        <ele>151.767076</ele>
        <time>2022-12-30T16:02:36.336Z</time>
      </trkpt>
      <trkpt lat="43.85069" lon="1.28557">
        <ele>152.024484</ele>
        <time>2022-12-30T16:02:40.340Z</time>
      </trkpt>
      <trkpt lat="43.8506" lon="1.28562">
        <ele>152.201896</ele>
        <time>2022-12-30T16:02:44.346Z</time>
      </trkpt>
      <trkpt lat="43.85043" lon="1.28568">
        <ele>152.287135</ele>
        <time>2022-12-30T16:03:47.354Z</time>
      </trkpt>
      <trkpt lat="43.85034" lon="1.28573">
        <ele>152.331304</ele>
        <time>2022-12-30T16:03:51.334Z</time>
      </trkpt>
      <trkpt lat="43.85023" lon="1.28577">
        <ele>152.382868</ele>
        <time>2022-12-30T16:03:56.339Z</time>
      </trkpt>
      <trkpt lat="43.85026" lon="1.2859">
        <ele>152.429222</ele>
        <time>2022-12-30T16:04:03.349Z</time>
      </trkpt>
      <trkpt lat="43.85031" lon="1.28601">
        <ele>152.472219</ele>
        <time>2022-12-30T16:04:08.339Z</time>
      </trkpt>
      <trkpt lat="43.85036" lon="1.28613">
        <ele>152.51972</ele>
        <time>2022-12-30T16:04:13.332Z</time>
      </trkpt>
      <trkpt lat="43.85041" lon="1.28628">
        <ele>152.576186</ele>
        <time>2022-12-30T16:04:18.339Z</time>
      </trkpt>
      <trkpt lat="43.85047" lon="1.2864">
        <ele>152.625782</ele>
        <time>2022-12-30T16:04:21.355Z</time>
      </trkpt>
      <trkpt lat="43.85055" lon="1.28651">
        <ele>152.678832</ele>
        <time>2022-12-30T16:04:24.338Z</time>
      </trkpt>
      <trkpt lat="43.85064" lon="1.28664">
        <ele>152.741026</ele>
        <time>2022-12-30T16:04:27.337Z</time>
      </trkpt>
      <trkpt lat="43.85071" lon="1.28673">
        <ele>152.784293</ele>
        <time>2022-12-30T16:04:29.337Z</time>
      </trkpt>
      <trkpt lat="43.85079" lon="1.28684">
        <ele>152.837115</ele>
        <time>2022-12-30T16:04:32.340Z</time>
      </trkpt>
      <trkpt lat="43.85085" lon="1.28694">
        <ele>152.880778</ele>
        <time>2022-12-30T16:04:35.341Z</time>
      </trkpt>
      <trkpt lat="43.8509" lon="1.28704">
        <ele>152.925189</ele>
        <time>2022-12-30T16:04:40.333Z</time>
      </trkpt>
      <trkpt lat="43.85096" lon="1.28714">
        <ele>152.967825</ele>
        <time>2022-12-30T16:04:44.348Z</time>
      </trkpt>
      <trkpt lat="43.85103" lon="1.28725">
        <ele>153.016918</ele>
        <time>2022-12-30T16:04:48.356Z</time>
      </trkpt>
      <trkpt lat="43.8511" lon="1.28733">
        <ele>153.213752</ele>
        <time>2022-12-30T16:04:52.339Z</time>
      </trkpt>
      <trkpt lat="43.85114" lon="1.28745">
        <ele>153.606816</ele>
        <time>2022-12-30T16:04:56.338Z</time>
      </trkpt>
      <trkpt lat="43.85118" lon="1.28756">
        <ele>154.011563</ele>
        <time>2022-12-30T16:05:01.334Z</time>
      </trkpt>
      <trkpt lat="43.85124" lon="1.28768">
        <ele>154.459696</ele>
        <time>2022-12-30T16:05:05.338Z</time>
      </trkpt>
      <trkpt lat="43.85129" lon="1.2878">
        <ele>154.927913</ele>
        <time>2022-12-30T16:05:09.339Z</time>
      </trkpt>
      <trkpt lat="43.85137" lon="1.28791">
        <ele>155.395544</ele>
        <time>2022-12-30T16:05:13.355Z</time>
      </trkpt>
      <trkpt lat="43.85143" lon="1.28803">
        <ele>155.850576</ele>
        <time>2022-12-30T16:05:17.336Z</time>
      </trkpt>
      <trkpt lat="43.85149" lon="1.28815">
        <ele>156.300514</ele>
        <time>2022-12-30T16:05:21.331Z</time>
      </trkpt>
      <trkpt lat="43.85155" lon="1.28827">
        <ele>156.77882</ele>
        <time>2022-12-30T16:05:26.344Z</time>
      </trkpt>
      <trkpt lat="43.85161" lon="1.2884">
        <ele>157.259747</ele>
        <time>2022-12-30T16:05:31.342Z</time>
      </trkpt>
      <trkpt lat="43.85167" lon="1.28852">
        <ele>157.712298</ele>
        <time>2022-12-30T16:05:36.338Z</time>
      </trkpt>
      <trkpt lat="43.85172" lon="1.28862">
        <ele>158.118826</ele>
        <time>2022-12-30T16:05:41.343Z</time>
      </trkpt>
      <trkpt lat="43.85177" lon="1.28875">
        <ele>158.568733</ele>
        <time>2022-12-30T16:05:47.345Z</time>
      </trkpt>
      <trkpt lat="43.85182" lon="1.28886">
        <ele>158.999614</ele>
        <time>2022-12-30T16:05:53.346Z</time>
      </trkpt>
      <trkpt lat="43.85184" lon="1.28899">
        <ele>159.39433</ele>
        <time>2022-12-30T16:05:58.344Z</time>
      </trkpt>
      <trkpt lat="43.85184" lon="1.28911">
        <ele>159.794596</ele>
        <time>2022-12-30T16:06:03.350Z</time>
      </trkpt>
      <trkpt lat="43.85182" lon="1.28925">
        <ele>160.24619</ele>
        <time>2022-12-30T16:06:10.334Z</time>
      </trkpt>
      <trkpt lat="43.85179" lon="1.28938">
        <ele>160.665723</ele>
        <time>2022-12-30T16:06:16.334Z</time>
      </trkpt>
      <trkpt lat="43.85175" lon="1.28951">
        <ele>161.245673</ele>
        <time>2022-12-30T16:06:22.338Z</time>
      </trkpt>
      <trkpt lat="43.85171" lon="1.28963">
        <ele>161.973636</ele>
        <time>2022-12-30T16:06:28.340Z</time>
      </trkpt>
      <trkpt lat="43.85168" lon="1.28976">
        <ele>162.74697</ele>
        <time>2022-12-30T16:06:34.332Z</time>
      </trkpt>
      <trkpt lat="43.85164" lon="1.28989">
        <ele>163.473615</ele>
        <time>2022-12-30T16:06:40.335Z</time>
      </trkpt>
      <trkpt lat="43.8516" lon="1.29001">
        <ele>164.213281</ele>
        <time>2022-12-30T16:06:46.347Z</time>
      </trkpt>
      <trkpt lat="43.85156" lon="1.29013">
        <ele>164.951925</ele>
        <time>2022-12-30T16:06:52.349Z</time>
      </trkpt>
      <trkpt lat="43.85153" lon="1.29025">
        <ele>165.643477</ele>
        <time>2022-12-30T16:06:58.344Z</time>
      </trkpt>
      <trkpt lat="43.85149" lon="1.29038">
        <ele>166.391582</ele>
        <time>2022-12-30T16:07:04.331Z</time>
      </trkpt>
      <trkpt lat="43.85145" lon="1.29051">
        <ele>167.183407</ele>
        <time>2022-12-30T16:07:10.337Z</time>
      </trkpt>
      <trkpt lat="43.85143" lon="1.29065">
        <ele>167.931723</ele>
        <time>2022-12-30T16:07:16.335Z</time>
      </trkpt>
      <trkpt lat="43.85138" lon="1.29077">
        <ele>168.692461</ele>
        <time>2022-12-30T16:07:22.341Z</time>
      </trkpt>
      <trkpt lat="43.85134" lon="1.29091">
        <ele>169.493042</ele>
        <time>2022-12-30T16:07:28.343Z</time>
      </trkpt>
      <trkpt lat="43.8513" lon="1.29104">
        <ele>170.257645</ele>
        <time>2022-12-30T16:07:34.336Z</time>
      </trkpt>
      <trkpt lat="43.85125" lon="1.29116">
        <ele>171.043416</ele>
        <time>2022-12-30T16:07:40.332Z</time>
      </trkpt>
      <trkpt lat="43.85119" lon="1.29127">
        <ele>171.812013</ele>
        <time>2022-12-30T16:07:46.334Z</time>
      </trkpt>
      <trkpt lat="43.8512" lon="1.29142">
        <ele>172.59432</ele>
        <time>2022-12-30T16:07:52.331Z</time>
      </trkpt>
      <trkpt lat="43.85124" lon="1.29153">
        <ele>173.28295</ele>
        <time>2022-12-30T16:07:57.346Z</time>
      </trkpt>
      <trkpt lat="43.85133" lon="1.29162">
        <ele>174.078516</ele>
        <time>2022-12-30T16:08:03.330Z</time>
      </trkpt>
      <trkpt lat="43.85142" lon="1.29165">
        <ele>174.775457</ele>
        <time>2022-12-30T16:08:08.343Z</time>
      </trkpt>
      <trkpt lat="43.85151" lon="1.29162">
        <ele>175.457184</ele>
        <time>2022-12-30T16:08:14.338Z</time>
      </trkpt>
      <trkpt lat="43.85159" lon="1.29156">
        <ele>176.14875</ele>
        <time>2022-12-30T16:08:19.335Z</time>
      </trkpt>
      <trkpt lat="43.85166" lon="1.29146">
        <ele>176.893162</ele>
        <time>2022-12-30T16:08:25.338Z</time>
      </trkpt>
      <trkpt lat="43.85172" lon="1.29135">
        <ele>177.635456</ele>
        <time>2022-12-30T16:08:31.345Z</time>
      </trkpt>
      <trkpt lat="43.85179" lon="1.29126">
        <ele>178.300245</ele>
        <time>2022-12-30T16:08:37.351Z</time>
      </trkpt>
      <trkpt lat="43.85177" lon="1.29138">
        <ele>178.956697</ele>
        <time>2022-12-30T16:09:08.336Z</time>
      </trkpt>
      <trkpt lat="43.85172" lon="1.29152">
        <ele>179.779247</ele>
        <time>2022-12-30T16:09:13.346Z</time>
      </trkpt>
      <trkpt lat="43.85168" lon="1.29164">
        <ele>180.453971</ele>
        <time>2022-12-30T16:09:17.330Z</time>
      </trkpt>
      <trkpt lat="43.85174" lon="1.29184">
        <ele>181.600932</ele>
        <time>2022-12-30T16:10:17.352Z</time>
      </trkpt>
      <trkpt lat="43.85184" lon="1.29192">
        <ele>182.424057</ele>
        <time>2022-12-30T16:10:22.334Z</time>
      </trkpt>
      <trkpt lat="43.85193" lon="1.29199">
        <ele>183.18186</ele>
        <time>2022-12-30T16:10:26.347Z</time>
      </trkpt>
      <trkpt lat="43.85202" lon="1.29203">
        <ele>183.886649</ele>
        <time>2022-12-30T16:10:30.332Z</time>
      </trkpt>
      <trkpt lat="43.85213" lon="1.29206">
        <ele>184.65117</ele>
        <time>2022-12-30T16:10:34.337Z</time>
      </trkpt>
      <trkpt lat="43.85223" lon="1.29208">
        <ele>185.414932</ele>
        <time>2022-12-30T16:10:38.338Z</time>
      </trkpt>
      <trkpt lat="43.85233" lon="1.29209">
        <ele>186.109795</ele>
        <time>2022-12-30T16:10:42.351Z</time>
      </trkpt>
      <trkpt lat="43.85241" lon="1.29212">
        <ele>186.777488</ele>
        <time>2022-12-30T16:10:46.338Z</time>
      </trkpt>
      <trkpt lat="43.85252" lon="1.29214">
        <ele>187.56641</ele>
        <time>2022-12-30T16:10:51.343Z</time>
      </trkpt>
      <trkpt lat="43.85261" lon="1.29217">
        <ele>187.48033</ele>
        <time>2022-12-30T16:10:55.335Z</time>
      </trkpt>
      <trkpt lat="43.85268" lon="1.29227">
        <ele>187.354698</ele>
        <time>2022-12-30T16:10:59.344Z</time>
      </trkpt>
      <trkpt lat="43.85271" lon="1.29239">
        <ele>187.226631</ele>
        <time>2022-12-30T16:11:02.344Z</time>
      </trkpt>
      <trkpt lat="43.85274" lon="1.29253">
        <ele>187.089571</ele>
        <time>2022-12-30T16:11:05.339Z</time>
      </trkpt>
      <trkpt lat="43.85277" lon="1.29267">
        <ele>186.948841</ele>
        <time>2022-12-30T16:11:08.362Z</time>
      </trkpt>
      <trkpt lat="43.85281" lon="1.29281">
        <ele>186.802616</ele>
        <time>2022-12-30T16:11:11.345Z</time>
      </trkpt>
      <trkpt lat="43.85286" lon="1.29294">
        <ele>186.663431</ele>
        <time>2022-12-30T16:11:14.366Z</time>
      </trkpt>
      <trkpt lat="43.8529" lon="1.29306">
        <ele>186.535194</ele>
        <time>2022-12-30T16:11:17.406Z</time>
      </trkpt>
      <trkpt lat="43.85293" lon="1.29318">
        <ele>186.409542</ele>
        <time>2022-12-30T16:11:20.330Z</time>
      </trkpt>
      <trkpt lat="43.85296" lon="1.29333">
        <ele>186.263775</ele>
        <time>2022-12-30T16:11:24.336Z</time>
      </trkpt>
      <trkpt lat="43.85296" lon="1.29347">
        <ele>186.13004</ele>
        <time>2022-12-30T16:11:28.349Z</time>
      </trkpt>
      <trkpt lat="43.85291" lon="1.29359">
        <ele>186.000308</ele>
        <time>2022-12-30T16:11:33.334Z</time>
      </trkpt>
      <trkpt lat="43.85285" lon="1.29369">
        <ele>185.871702</ele>
        <time>2022-12-30T16:11:37.337Z</time>
      </trkpt>
      <trkpt lat="43.85281" lon="1.29385">
        <ele>185.715315</ele>
        <time>2022-12-30T16:11:41.334Z</time>
      </trkpt>
      <trkpt lat="43.85284" lon="1.29397">
        <ele>185.589926</ele>
        <time>2022-12-30T16:11:44.349Z</time>
      </trkpt>
      <trkpt lat="43.85292" lon="1.29406">
        <ele>185.453855</ele>
        <time>2022-12-30T16:11:47.332Z</time>
      </trkpt>
      <trkpt lat="43.85301" lon="1.29411">
        <ele>185.322529</ele>
        <time>2022-12-30T16:11:50.334Z</time>
      </trkpt>
      <trkpt lat="43.85312" lon="1.29416">
        <ele>185.168714</ele>
        <time>2022-12-30T16:11:53.340Z</time>
      </trkpt>
      <trkpt lat="43.85321" lon="1.29426">
        <ele>184.971842</ele>
        <time>2022-12-30T16:11:56.354Z</time>
      </trkpt>
      <trkpt lat="43.85328" lon="1.29439">
        <ele>184.765141</ele>
        <time>2022-12-30T16:11:59.342Z</time>
      </trkpt>
      <trkpt lat="43.85336" lon="1.29453">
        <ele>184.543396</ele>
        <time>2022-12-30T16:12:02.345Z</time>
      </trkpt>
      <trkpt lat="43.85342" lon="1.29463">
        <ele>184.379441</ele>
        <time>2022-12-30T16:12:04.349Z</time>
      </trkpt>
      <trkpt lat="43.85348" lon="1.29473">
        <ele>184.223673</ele>
        <time>2022-12-30T16:12:06.343Z</time>
      </trkpt>
      <trkpt lat="43.85356" lon="1.29487">
        <ele>183.998382</ele>
        <time>2022-12-30T16:12:09.341Z</time>
      </trkpt>
      <trkpt lat="43.85362" lon="1.29497">
        <ele>183.842924</ele>
        <time>2022-12-30T16:12:11.338Z</time>
      </trkpt>
      <trkpt lat="43.85371" lon="1.29511">
        <ele>183.613875</ele>
        <time>2022-12-30T16:12:14.363Z</time>
      </trkpt>
      <trkpt lat="43.8538" lon="1.29524">
        <ele>183.396591</ele>
        <time>2022-12-30T16:12:17.362Z</time>
      </trkpt>
      <trkpt lat="43.85388" lon="1.29537">
        <ele>183.180327</ele>
        <time>2022-12-30T16:12:20.341Z</time>
      </trkpt>
      <trkpt lat="43.85397" lon="1.29549">
        <ele>182.976745</ele>
        <time>2022-12-30T16:12:23.345Z</time>
      </trkpt>
      <trkpt lat="43.85404" lon="1.29559">
        <ele>182.796196</ele>
        <time>2022-12-30T16:12:26.342Z</time>
      </trkpt>
      <trkpt lat="43.85412" lon="1.2957">
        <ele>182.606823</ele>
        <time>2022-12-30T16:12:29.346Z</time>
      </trkpt>
      <trkpt lat="43.8542" lon="1.2958">
        <ele>182.424321</ele>
        <time>2022-12-30T16:12:32.338Z</time>
      </trkpt>
      <trkpt lat="43.85427" lon="1.2959">
        <ele>182.250877</ele>
        <time>2022-12-30T16:12:35.362Z</time>
      </trkpt>
      <trkpt lat="43.85434" lon="1.29601">
        <ele>182.144936</ele>
        <time>2022-12-30T16:12:38.349Z</time>
      </trkpt>
      <trkpt lat="43.85441" lon="1.29611">
        <ele>182.175638</ele>
        <time>2022-12-30T16:12:41.361Z</time>
      </trkpt>
      <trkpt lat="43.85448" lon="1.2962">
        <ele>182.202845</ele>
        <time>2022-12-30T16:12:44.342Z</time>
      </trkpt>
      <trkpt lat="43.85454" lon="1.2963">
        <ele>182.231405</ele>
        <time>2022-12-30T16:12:47.362Z</time>
      </trkpt>
      <trkpt lat="43.8546" lon="1.29641">
        <ele>182.2588</ele>
        <time>2022-12-30T16:12:50.368Z</time>
      </trkpt>
      <trkpt lat="43.85465" lon="1.29654">
        <ele>182.292666</ele>
        <time>2022-12-30T16:12:54.348Z</time>
      </trkpt>
      <trkpt lat="43.85467" lon="1.2967">
        <ele>182.32536</ele>
        <time>2022-12-30T16:12:58.359Z</time>
      </trkpt>
      <trkpt lat="43.85464" lon="1.29683">
        <ele>182.353883</ele>
        <time>2022-12-30T16:13:01.351Z</time>
      </trkpt>
      <trkpt lat="43.8546" lon="1.29695">
        <ele>182.383786</ele>
        <time>2022-12-30T16:13:04.359Z</time>
      </trkpt>
      <trkpt lat="43.85455" lon="1.29708">
        <ele>182.416057</ele>
        <time>2022-12-30T16:13:07.350Z</time>
      </trkpt>
      <trkpt lat="43.85449" lon="1.29721">
        <ele>182.448147</ele>
        <time>2022-12-30T16:13:10.362Z</time>
      </trkpt>
      <trkpt lat="43.85444" lon="1.29734">
        <ele>182.479714</ele>
        <time>2022-12-30T16:13:13.365Z</time>
      </trkpt>
      <trkpt lat="43.85439" lon="1.29746">
        <ele>182.509356</ele>
        <time>2022-12-30T16:13:16.340Z</time>
      </trkpt>
      <trkpt lat="43.85432" lon="1.29759">
        <ele>182.543332</ele>
        <time>2022-12-30T16:13:19.352Z</time>
      </trkpt>
      <trkpt lat="43.85427" lon="1.29773">
        <ele>182.577903</ele>
        <time>2022-12-30T16:13:22.344Z</time>
      </trkpt>
      <trkpt lat="43.85421" lon="1.29787">
        <ele>182.612295</ele>
        <time>2022-12-30T16:13:25.351Z</time>
      </trkpt>
      <trkpt lat="43.85415" lon="1.29801">
        <ele>182.646396</ele>
        <time>2022-12-30T16:13:28.336Z</time>
      </trkpt>
      <trkpt lat="43.85411" lon="1.29816">
        <ele>182.641968</ele>
        <time>2022-12-30T16:13:31.335Z</time>
      </trkpt>
      <trkpt lat="43.85408" lon="1.29832">
        <ele>182.585197</ele>
        <time>2022-12-30T16:13:34.344Z</time>
      </trkpt>
      <trkpt lat="43.8541" lon="1.29848">
        <ele>182.526764</ele>
        <time>2022-12-30T16:13:37.327Z</time>
      </trkpt>
      <trkpt lat="43.85416" lon="1.29862">
        <ele>182.465541</ele>
        <time>2022-12-30T16:13:40.366Z</time>
      </trkpt>
      <trkpt lat="43.85423" lon="1.29876">
        <ele>182.404706</ele>
        <time>2022-12-30T16:13:43.336Z</time>
      </trkpt>
      <trkpt lat="43.8543" lon="1.2989">
        <ele>182.346801</ele>
        <time>2022-12-30T16:13:46.337Z</time>
      </trkpt>
      <trkpt lat="43.85436" lon="1.29902">
        <ele>182.293174</ele>
        <time>2022-12-30T16:13:49.348Z</time>
      </trkpt>
      <trkpt lat="43.85441" lon="1.29915">
        <ele>182.238793</ele>
        <time>2022-12-30T16:13:52.332Z</time>
      </trkpt>
      <trkpt lat="43.85447" lon="1.29928">
        <ele>182.186872</ele>
        <time>2022-12-30T16:13:55.335Z</time>
      </trkpt>
      <trkpt lat="43.85453" lon="1.29938">
        <ele>182.13794</ele>
        <time>2022-12-30T16:13:58.342Z</time>
      </trkpt>
      <trkpt lat="43.85458" lon="1.2995">
        <ele>182.089649</ele>
        <time>2022-12-30T16:14:01.336Z</time>
      </trkpt>
      <trkpt lat="43.85463" lon="1.29961">
        <ele>182.041924</ele>
        <time>2022-12-30T16:14:04.363Z</time>
      </trkpt>
      <trkpt lat="43.85469" lon="1.29973">
        <ele>181.988074</ele>
        <time>2022-12-30T16:14:07.336Z</time>
      </trkpt>
      <trkpt lat="43.85477" lon="1.29987">
        <ele>181.92755</ele>
        <time>2022-12-30T16:14:10.335Z</time>
      </trkpt>
      <trkpt lat="43.85483" lon="1.30001">
        <ele>181.866339</ele>
        <time>2022-12-30T16:14:13.340Z</time>
      </trkpt>
      <trkpt lat="43.8549" lon="1.30015">
        <ele>181.807852</ele>
        <time>2022-12-30T16:14:16.337Z</time>
      </trkpt>
      <trkpt lat="43.85496" lon="1.30027">
        <ele>181.825402</ele>
        <time>2022-12-30T16:14:19.337Z</time>
      </trkpt>
      <trkpt lat="43.85502" lon="1.3004">
        <ele>182.000182</ele>
        <time>2022-12-30T16:14:22.338Z</time>
      </trkpt>
      <trkpt lat="43.8551" lon="1.30051">
        <ele>182.172036</ele>
        <time>2022-12-30T16:14:25.338Z</time>
      </trkpt>
      <trkpt lat="43.85517" lon="1.30063">
        <ele>182.338319</ele>
        <time>2022-12-30T16:14:28.338Z</time>
      </trkpt>
      <trkpt lat="43.85522" lon="1.30075">
        <ele>182.503679</ele>
        <time>2022-12-30T16:14:31.338Z</time>
      </trkpt>
      <trkpt lat="43.85527" lon="1.30089">
        <ele>182.667392</ele>
        <time>2022-12-30T16:14:34.338Z</time>
      </trkpt>
      <trkpt lat="43.85528" lon="1.30103">
        <ele>182.832991</ele>
        <time>2022-12-30T16:14:37.338Z</time>
      </trkpt>
      <trkpt lat="43.8553" lon="1.30118">
        <ele>183.002724</ele>
        <time>2022-12-30T16:14:40.344Z</time>
      </trkpt>
      <trkpt lat="43.85532" lon="1.30133">
        <ele>183.162833</ele>
        <time>2022-12-30T16:14:43.337Z</time>
      </trkpt>
      <trkpt lat="43.85533" lon="1.30145">
        <ele>183.303802</ele>
        <time>2022-12-30T16:14:46.336Z</time>
      </trkpt>
      <trkpt lat="43.85534" lon="1.30158">
        <ele>183.443748</ele>
        <time>2022-12-30T16:14:49.350Z</time>
      </trkpt>
      <trkpt lat="43.85535" lon="1.30171">
        <ele>183.597301</ele>
        <time>2022-12-30T16:14:52.343Z</time>
      </trkpt>
      <trkpt lat="43.85537" lon="1.30185">
        <ele>183.754181</ele>
        <time>2022-12-30T16:14:55.337Z</time>
      </trkpt>
      <trkpt lat="43.85538" lon="1.30199">
        <ele>183.914157</ele>
        <time>2022-12-30T16:14:58.360Z</time>
      </trkpt>
      <trkpt lat="43.85539" lon="1.30214">
        <ele>184.078557</ele>
        <time>2022-12-30T16:15:01.339Z</time>
      </trkpt>
      <trkpt lat="43.8554" lon="1.30228">
        <ele>184.238654</ele>
        <time>2022-12-30T16:15:04.336Z</time>
      </trkpt>
      <trkpt lat="43.85542" lon="1.30242">
        <ele>184.397666</ele>
        <time>2022-12-30T16:15:07.346Z</time>
      </trkpt>
      <trkpt lat="43.85544" lon="1.30256">
        <ele>184.552594</ele>
        <time>2022-12-30T16:15:10.357Z</time>
      </trkpt>
      <trkpt lat="43.85546" lon="1.3027">
        <ele>184.738585</ele>
        <time>2022-12-30T16:15:13.337Z</time>
      </trkpt>
      <trkpt lat="43.85548" lon="1.30284">
        <ele>184.922293</ele>
        <time>2022-12-30T16:15:16.345Z</time>
      </trkpt>
      <trkpt lat="43.85551" lon="1.30298">
        <ele>185.102718</ele>
        <time>2022-12-30T16:15:19.342Z</time>
      </trkpt>
      <trkpt lat="43.85553" lon="1.30312">
        <ele>185.286847</ele>
        <time>2022-12-30T16:15:22.344Z</time>
      </trkpt>
      <trkpt lat="43.85556" lon="1.30326">
        <ele>185.47473</ele>
        <time>2022-12-30T16:15:25.337Z</time>
      </trkpt>
      <trkpt lat="43.85558" lon="1.30339">
        <ele>185.646819</ele>
        <time>2022-12-30T16:15:28.339Z</time>
      </trkpt>
      <trkpt lat="43.8556" lon="1.30352">
        <ele>185.820686</ele>
        <time>2022-12-30T16:15:31.336Z</time>
      </trkpt>
      <trkpt lat="43.85562" lon="1.30365">
        <ele>185.987383</ele>
        <time>2022-12-30T16:15:34.345Z</time>
      </trkpt>
      <trkpt lat="43.85565" lon="1.30378">
        <ele>186.168336</ele>
        <time>2022-12-30T16:15:37.354Z</time>
      </trkpt>
      <trkpt lat="43.85568" lon="1.30392">
        <ele>186.356854</ele>
        <time>2022-12-30T16:15:40.336Z</time>
      </trkpt>
      <trkpt lat="43.85572" lon="1.30406">
        <ele>186.541429</ele>
        <time>2022-12-30T16:15:43.360Z</time>
      </trkpt>
      <trkpt lat="43.85576" lon="1.3042">
        <ele>186.735085</ele>
        <time>2022-12-30T16:15:46.340Z</time>
      </trkpt>
      <trkpt lat="43.85578" lon="1.30432">
        <ele>186.897509</ele>
        <time>2022-12-30T16:15:49.339Z</time>
      </trkpt>
      <trkpt lat="43.85582" lon="1.30447">
        <ele>187.094806</ele>
        <time>2022-12-30T16:15:53.344Z</time>
      </trkpt>
      <trkpt lat="43.85585" lon="1.30459">
        <ele>187.260799</ele>
        <time>2022-12-30T16:15:56.343Z</time>
      </trkpt>
      <trkpt lat="43.85588" lon="1.30472">
        <ele>187.434524</ele>
        <time>2022-12-30T16:15:59.342Z</time>
      </trkpt>
      <trkpt lat="43.85592" lon="1.30484">
        <ele>187.612715</ele>
        <time>2022-12-30T16:16:02.349Z</time>
      </trkpt>
      <trkpt lat="43.85595" lon="1.30497">
        <ele>187.781102</ele>
        <time>2022-12-30T16:16:05.346Z</time>
      </trkpt>
      <trkpt lat="43.856" lon="1.3051">
        <ele>187.973537</ele>
        <time>2022-12-30T16:16:08.356Z</time>
      </trkpt>
      <trkpt lat="43.85603" lon="1.30524">
        <ele>188.16839</ele>
        <time>2022-12-30T16:16:11.339Z</time>
      </trkpt>
      <trkpt lat="43.85607" lon="1.30538">
        <ele>188.360769</ele>
        <time>2022-12-30T16:16:14.348Z</time>
      </trkpt>
      <trkpt lat="43.85609" lon="1.30551">
        <ele>188.538975</ele>
        <time>2022-12-30T16:16:17.358Z</time>
      </trkpt>
      <trkpt lat="43.85612" lon="1.30566">
        <ele>188.741466</ele>
        <time>2022-12-30T16:16:21.343Z</time>
      </trkpt>
      <trkpt lat="43.85616" lon="1.30582">
        <ele>188.958303</ele>
        <time>2022-12-30T16:16:25.339Z</time>
      </trkpt>
      <trkpt lat="43.85618" lon="1.30595">
        <ele>189.13561</ele>
        <time>2022-12-30T16:16:28.362Z</time>
      </trkpt>
      <trkpt lat="43.85619" lon="1.30609">
        <ele>189.324733</ele>
        <time>2022-12-30T16:16:31.352Z</time>
      </trkpt>
      <trkpt lat="43.8562" lon="1.30623">
        <ele>189.509059</ele>
        <time>2022-12-30T16:16:34.344Z</time>
      </trkpt>
      <trkpt lat="43.85621" lon="1.30636">
        <ele>189.682114</ele>
        <time>2022-12-30T16:16:37.344Z</time>
      </trkpt>
      <trkpt lat="43.85622" lon="1.30649">
        <ele>189.850532</ele>
        <time>2022-12-30T16:16:40.356Z</time>
      </trkpt>
      <trkpt lat="43.85622" lon="1.30662">
        <ele>190.027091</ele>
        <time>2022-12-30T16:16:43.337Z</time>
      </trkpt>
      <trkpt lat="43.85623" lon="1.30675">
        <ele>190.202765</ele>
        <time>2022-12-30T16:16:46.346Z</time>
      </trkpt>
      <trkpt lat="43.85623" lon="1.30689">
        <ele>190.381698</ele>
        <time>2022-12-30T16:16:49.334Z</time>
      </trkpt>
      <trkpt lat="43.85624" lon="1.30702">
        <ele>190.547091</ele>
        <time>2022-12-30T16:16:52.332Z</time>
      </trkpt>
      <trkpt lat="43.85626" lon="1.30717">
        <ele>190.757449</ele>
        <time>2022-12-30T16:16:56.342Z</time>
      </trkpt>
      <trkpt lat="43.85627" lon="1.3073">
        <ele>190.92697</ele>
        <time>2022-12-30T16:16:59.365Z</time>
      </trkpt>
      <trkpt lat="43.85629" lon="1.30742">
        <ele>191.048068</ele>
        <time>2022-12-30T16:17:02.337Z</time>
      </trkpt>
      <trkpt lat="43.85631" lon="1.30756">
        <ele>191.091839</ele>
        <time>2022-12-30T16:17:05.342Z</time>
      </trkpt>
      <trkpt lat="43.85633" lon="1.3077">
        <ele>191.135847</ele>
        <time>2022-12-30T16:17:08.346Z</time>
      </trkpt>
      <trkpt lat="43.85637" lon="1.30784">
        <ele>191.18304</ele>
        <time>2022-12-30T16:17:11.352Z</time>
      </trkpt>
      <trkpt lat="43.85639" lon="1.30799">
        <ele>191.232043</ele>
        <time>2022-12-30T16:17:14.343Z</time>
      </trkpt>
      <trkpt lat="43.85642" lon="1.30815">
        <ele>191.283593</ele>
        <time>2022-12-30T16:17:17.356Z</time>
      </trkpt>
      <trkpt lat="43.85645" lon="1.30831">
        <ele>191.334428</ele>
        <time>2022-12-30T16:17:20.345Z</time>
      </trkpt>
      <trkpt lat="43.85648" lon="1.30847">
        <ele>191.385783</ele>
        <time>2022-12-30T16:17:23.360Z</time>
      </trkpt>
      <trkpt lat="43.85651" lon="1.30862">
        <ele>191.437609</ele>
        <time>2022-12-30T16:17:26.341Z</time>
      </trkpt>
      <trkpt lat="43.85655" lon="1.30878">
        <ele>191.488332</ele>
        <time>2022-12-30T16:17:29.351Z</time>
      </trkpt>
      <trkpt lat="43.85659" lon="1.30893">
        <ele>191.540228</ele>
        <time>2022-12-30T16:17:32.342Z</time>
      </trkpt>
      <trkpt lat="43.85663" lon="1.30909">
        <ele>191.594346</ele>
        <time>2022-12-30T16:17:35.344Z</time>
      </trkpt>
      <trkpt lat="43.85668" lon="1.30926">
        <ele>191.64964</ele>
        <time>2022-12-30T16:17:38.350Z</time>
      </trkpt>
      <trkpt lat="43.85672" lon="1.30942">
        <ele>191.704793</ele>
        <time>2022-12-30T16:17:41.345Z</time>
      </trkpt>
      <trkpt lat="43.85676" lon="1.30957">
        <ele>191.755061</ele>
        <time>2022-12-30T16:17:44.360Z</time>
      </trkpt>
      <trkpt lat="43.85679" lon="1.30971">
        <ele>191.799443</ele>
        <time>2022-12-30T16:17:47.341Z</time>
      </trkpt>
      <trkpt lat="43.85684" lon="1.30986">
        <ele>191.862862</ele>
        <time>2022-12-30T16:17:50.340Z</time>
      </trkpt>
      <trkpt lat="43.85689" lon="1.31002">
        <ele>191.931213</ele>
        <time>2022-12-30T16:17:53.343Z</time>
      </trkpt>
      <trkpt lat="43.85693" lon="1.31018">
        <ele>192.000459</ele>
        <time>2022-12-30T16:17:56.345Z</time>
      </trkpt>
      <trkpt lat="43.85697" lon="1.31033">
        <ele>192.065506</ele>
        <time>2022-12-30T16:17:59.361Z</time>
      </trkpt>
      <trkpt lat="43.857" lon="1.31046">
        <ele>192.122923</ele>
        <time>2022-12-30T16:18:02.353Z</time>
      </trkpt>
      <trkpt lat="43.85704" lon="1.3106">
        <ele>192.181298</ele>
        <time>2022-12-30T16:18:05.337Z</time>
      </trkpt>
      <trkpt lat="43.85707" lon="1.31075">
        <ele>192.24408</ele>
        <time>2022-12-30T16:18:08.345Z</time>
      </trkpt>
      <trkpt lat="43.85711" lon="1.31089">
        <ele>192.307999</ele>
        <time>2022-12-30T16:18:11.346Z</time>
      </trkpt>
      <trkpt lat="43.85716" lon="1.31104">
        <ele>192.373434</ele>
        <time>2022-12-30T16:18:14.339Z</time>
      </trkpt>
      <trkpt lat="43.8572" lon="1.3112">
        <ele>192.442679</ele>
        <time>2022-12-30T16:18:17.340Z</time>
      </trkpt>
      <trkpt lat="43.85724" lon="1.31138">
        <ele>192.516123</ele>
        <time>2022-12-30T16:18:20.345Z</time>
      </trkpt>
      <trkpt lat="43.85727" lon="1.31149">
        <ele>192.566871</ele>
        <time>2022-12-30T16:18:22.345Z</time>
      </trkpt>
      <trkpt lat="43.85731" lon="1.31161">
        <ele>192.619536</ele>
        <time>2022-12-30T16:18:24.344Z</time>
      </trkpt>
      <trkpt lat="43.85733" lon="1.31174">
        <ele>192.673707</ele>
        <time>2022-12-30T16:18:26.343Z</time>
      </trkpt>
      <trkpt lat="43.85738" lon="1.31192">
        <ele>192.749292</ele>
        <time>2022-12-30T16:18:29.363Z</time>
      </trkpt>
      <trkpt lat="43.85744" lon="1.31207">
        <ele>192.818987</ele>
        <time>2022-12-30T16:18:32.344Z</time>
      </trkpt>
      <trkpt lat="43.85748" lon="1.31218">
        <ele>192.752792</ele>
        <time>2022-12-30T16:18:34.347Z</time>
      </trkpt>
      <trkpt lat="43.85753" lon="1.31229">
        <ele>192.648096</ele>
        <time>2022-12-30T16:18:36.344Z</time>
      </trkpt>
      <trkpt lat="43.85759" lon="1.31239">
        <ele>192.543986</ele>
        <time>2022-12-30T16:18:38.334Z</time>
      </trkpt>
      <trkpt lat="43.85768" lon="1.31254">
        <ele>192.388088</ele>
        <time>2022-12-30T16:18:41.362Z</time>
      </trkpt>
      <trkpt lat="43.85774" lon="1.31263">
        <ele>192.281391</ele>
        <time>2022-12-30T16:18:43.338Z</time>
      </trkpt>
      <trkpt lat="43.85781" lon="1.31272">
        <ele>192.17916</ele>
        <time>2022-12-30T16:18:45.334Z</time>
      </trkpt>
      <trkpt lat="43.85787" lon="1.31282">
        <ele>192.075756</ele>
        <time>2022-12-30T16:18:47.364Z</time>
      </trkpt>
      <trkpt lat="43.85793" lon="1.31292">
        <ele>191.968151</ele>
        <time>2022-12-30T16:18:49.329Z</time>
      </trkpt>
      <trkpt lat="43.858" lon="1.31303">
        <ele>191.855593</ele>
        <time>2022-12-30T16:18:51.359Z</time>
      </trkpt>
      <trkpt lat="43.85805" lon="1.31314">
        <ele>191.743833</ele>
        <time>2022-12-30T16:18:53.344Z</time>
      </trkpt>
      <trkpt lat="43.85811" lon="1.31325">
        <ele>191.632072</ele>
        <time>2022-12-30T16:18:55.360Z</time>
      </trkpt>
      <trkpt lat="43.85816" lon="1.31338">
        <ele>191.514592</ele>
        <time>2022-12-30T16:18:57.353Z</time>
      </trkpt>
      <trkpt lat="43.85821" lon="1.31351">
        <ele>191.400798</ele>
        <time>2022-12-30T16:18:59.348Z</time>
      </trkpt>
      <trkpt lat="43.85825" lon="1.31364">
        <ele>191.288219</ele>
        <time>2022-12-30T16:19:01.341Z</time>
      </trkpt>
      <trkpt lat="43.85828" lon="1.31377">
        <ele>191.176038</ele>
        <time>2022-12-30T16:19:03.363Z</time>
      </trkpt>
      <trkpt lat="43.85833" lon="1.31394">
        <ele>191.026708</ele>
        <time>2022-12-30T16:19:06.363Z</time>
      </trkpt>
      <trkpt lat="43.85836" lon="1.31406">
        <ele>190.926132</ele>
        <time>2022-12-30T16:19:08.355Z</time>
      </trkpt>
      <trkpt lat="43.85841" lon="1.31422">
        <ele>190.84368</ele>
        <time>2022-12-30T16:19:11.337Z</time>
      </trkpt>
      <trkpt lat="43.85845" lon="1.31438">
        <ele>190.947054</ele>
        <time>2022-12-30T16:19:14.365Z</time>
      </trkpt>
      <trkpt lat="43.8585" lon="1.31453">
        <ele>191.041058</ele>
        <time>2022-12-30T16:19:17.362Z</time>
      </trkpt>
      <trkpt lat="43.85853" lon="1.31468">
        <ele>191.128889</ele>
        <time>2022-12-30T16:19:20.336Z</time>
      </trkpt>
      <trkpt lat="43.85857" lon="1.31483">
        <ele>191.221855</ele>
        <time>2022-12-30T16:19:23.351Z</time>
      </trkpt>
      <trkpt lat="43.85861" lon="1.31498">
        <ele>191.315911</ele>
        <time>2022-12-30T16:19:26.338Z</time>
      </trkpt>
      <trkpt lat="43.85865" lon="1.31514">
        <ele>191.415167</ele>
        <time>2022-12-30T16:19:29.332Z</time>
      </trkpt>
      <trkpt lat="43.8587" lon="1.31529">
        <ele>191.508458</ele>
        <time>2022-12-30T16:19:32.340Z</time>
      </trkpt>
      <trkpt lat="43.85874" lon="1.31544">
        <ele>191.601968</ele>
        <time>2022-12-30T16:19:35.339Z</time>
      </trkpt>
      <trkpt lat="43.85878" lon="1.31558">
        <ele>191.690585</ele>
        <time>2022-12-30T16:19:38.358Z</time>
      </trkpt>
      <trkpt lat="43.85881" lon="1.31571">
        <ele>191.772388</ele>
        <time>2022-12-30T16:19:41.359Z</time>
      </trkpt>
      <trkpt lat="43.85884" lon="1.31583">
        <ele>191.845714</ele>
        <time>2022-12-30T16:19:44.348Z</time>
      </trkpt>
      <trkpt lat="43.85888" lon="1.31596">
        <ele>191.924796</ele>
        <time>2022-12-30T16:19:47.358Z</time>
      </trkpt>
      <trkpt lat="43.85891" lon="1.31608">
        <ele>192.001125</ele>
        <time>2022-12-30T16:19:50.333Z</time>
      </trkpt>
      <trkpt lat="43.85895" lon="1.31623">
        <ele>192.093828</ele>
        <time>2022-12-30T16:19:54.349Z</time>
      </trkpt>
      <trkpt lat="43.85899" lon="1.31638">
        <ele>192.18874</ele>
        <time>2022-12-30T16:19:58.345Z</time>
      </trkpt>
      <trkpt lat="43.85902" lon="1.31652">
        <ele>192.269559</ele>
        <time>2022-12-30T16:20:02.336Z</time>
      </trkpt>
      <trkpt lat="43.85906" lon="1.31666">
        <ele>192.246026</ele>
        <time>2022-12-30T16:20:06.330Z</time>
      </trkpt>
      <trkpt lat="43.8591" lon="1.3168">
        <ele>192.22302</ele>
        <time>2022-12-30T16:20:10.337Z</time>
      </trkpt>
      <trkpt lat="43.85912" lon="1.31694">
        <ele>192.200044</ele>
        <time>2022-12-30T16:20:14.329Z</time>
      </trkpt>
      <trkpt lat="43.85915" lon="1.31706">
        <ele>192.179197</ele>
        <time>2022-12-30T16:20:18.337Z</time>
      </trkpt>
      <trkpt lat="43.85918" lon="1.31718">
        <ele>192.158505</ele>
        <time>2022-12-30T16:20:22.339Z</time>
      </trkpt>
      <trkpt lat="43.85921" lon="1.31731">
        <ele>192.13704</ele>
        <time>2022-12-30T16:20:26.340Z</time>
      </trkpt>
      <trkpt lat="43.85925" lon="1.31744">
        <ele>192.114538</ele>
        <time>2022-12-30T16:20:30.354Z</time>
      </trkpt>
      <trkpt lat="43.85928" lon="1.31757">
        <ele>192.093041</ele>
        <time>2022-12-30T16:20:34.343Z</time>
      </trkpt>
      <trkpt lat="43.85932" lon="1.3177">
        <ele>192.071087</ele>
        <time>2022-12-30T16:20:38.346Z</time>
      </trkpt>
      <trkpt lat="43.85934" lon="1.31783">
        <ele>192.049854</ele>
        <time>2022-12-30T16:20:42.341Z</time>
      </trkpt>
      <trkpt lat="43.85937" lon="1.31795">
        <ele>192.029663</ele>
        <time>2022-12-30T16:20:48.344Z</time>
      </trkpt>
      <trkpt lat="43.85942" lon="1.31807">
        <ele>192.007487</ele>
        <time>2022-12-30T16:20:56.353Z</time>
      </trkpt>
      <trkpt lat="43.85948" lon="1.31818">
        <ele>191.985014</ele>
        <time>2022-12-30T16:21:02.347Z</time>
      </trkpt>
      <trkpt lat="43.8595" lon="1.3183">
        <ele>191.964838</ele>
        <time>2022-12-30T16:21:06.342Z</time>
      </trkpt>
      <trkpt lat="43.85953" lon="1.31843">
        <ele>191.94319</ele>
        <time>2022-12-30T16:21:10.344Z</time>
      </trkpt>
      <trkpt lat="43.85958" lon="1.3186">
        <ele>191.914135</ele>
        <time>2022-12-30T16:21:13.339Z</time>
      </trkpt>
      <trkpt lat="43.85967" lon="1.31908">
        <ele>191.663589</ele>
        <time>2022-12-30T16:21:14.340Z</time>
      </trkpt>
      <trkpt lat="43.85972" lon="1.31925">
        <ele>191.490779</ele>
        <time>2022-12-30T16:21:17.338Z</time>
      </trkpt>
      <trkpt lat="43.85976" lon="1.31939">
        <ele>191.362062</ele>
        <time>2022-12-30T16:21:19.366Z</time>
      </trkpt>
      <trkpt lat="43.85979" lon="1.31953">
        <ele>191.227306</ele>
        <time>2022-12-30T16:21:21.351Z</time>
      </trkpt>
      <trkpt lat="43.85982" lon="1.31969">
        <ele>191.075699</ele>
        <time>2022-12-30T16:21:23.335Z</time>
      </trkpt>
      <trkpt lat="43.85986" lon="1.31985">
        <ele>190.918914</ele>
        <time>2022-12-30T16:21:25.345Z</time>
      </trkpt>
      <trkpt lat="43.8599" lon="1.32001">
        <ele>190.76213</ele>
        <time>2022-12-30T16:21:27.338Z</time>
      </trkpt>
      <trkpt lat="43.85995" lon="1.32019">
        <ele>190.593404</ele>
        <time>2022-12-30T16:21:29.338Z</time>
      </trkpt>
      <trkpt lat="43.85999" lon="1.32037">
        <ele>190.417416</ele>
        <time>2022-12-30T16:21:31.344Z</time>
      </trkpt>
      <trkpt lat="43.86004" lon="1.32057">
        <ele>190.228661</ele>
        <time>2022-12-30T16:21:33.343Z</time>
      </trkpt>
      <trkpt lat="43.8601" lon="1.32077">
        <ele>190.037765</ele>
        <time>2022-12-30T16:21:35.367Z</time>
      </trkpt>
      <trkpt lat="43.86014" lon="1.32096">
        <ele>189.856227</ele>
        <time>2022-12-30T16:21:37.350Z</time>
      </trkpt>
      <trkpt lat="43.86018" lon="1.32113">
        <ele>189.695503</ele>
        <time>2022-12-30T16:21:39.338Z</time>
      </trkpt>
      <trkpt lat="43.86022" lon="1.32129">
        <ele>189.596831</ele>
        <time>2022-12-30T16:21:41.339Z</time>
      </trkpt>
      <trkpt lat="43.86026" lon="1.32146">
        <ele>189.561952</ele>
        <time>2022-12-30T16:21:43.359Z</time>
      </trkpt>
      <trkpt lat="43.86029" lon="1.32161">
        <ele>189.529207</ele>
        <time>2022-12-30T16:21:45.347Z</time>
      </trkpt>
      <trkpt lat="43.86032" lon="1.32176">
        <ele>189.49861</ele>
        <time>2022-12-30T16:21:47.341Z</time>
      </trkpt>
      <trkpt lat="43.86035" lon="1.32189">
        <ele>189.46956</ele>
        <time>2022-12-30T16:21:49.345Z</time>
      </trkpt>
      <trkpt lat="43.86037" lon="1.32202">
        <ele>189.442788</ele>
        <time>2022-12-30T16:21:51.336Z</time>
      </trkpt>
      <trkpt lat="43.8604" lon="1.32214">
        <ele>189.416933</ele>
        <time>2022-12-30T16:21:53.365Z</time>
      </trkpt>
      <trkpt lat="43.86044" lon="1.32232">
        <ele>189.378498</ele>
        <time>2022-12-30T16:21:56.343Z</time>
      </trkpt>
      <trkpt lat="43.86045" lon="1.32246">
        <ele>189.351191</ele>
        <time>2022-12-30T16:21:58.340Z</time>
      </trkpt>
      <trkpt lat="43.86047" lon="1.32259">
        <ele>189.323356</ele>
        <time>2022-12-30T16:22:00.349Z</time>
      </trkpt>
      <trkpt lat="43.86048" lon="1.32272">
        <ele>189.296893</ele>
        <time>2022-12-30T16:22:02.356Z</time>
      </trkpt>
      <trkpt lat="43.86049" lon="1.32285">
        <ele>189.269345</ele>
        <time>2022-12-30T16:22:04.346Z</time>
      </trkpt>
      <trkpt lat="43.86051" lon="1.32298">
        <ele>189.242557</ele>
        <time>2022-12-30T16:22:06.347Z</time>
      </trkpt>
      <trkpt lat="43.86052" lon="1.32311">
        <ele>189.21644</ele>
        <time>2022-12-30T16:22:08.365Z</time>
      </trkpt>
      <trkpt lat="43.86054" lon="1.32324">
        <ele>189.188854</ele>
        <time>2022-12-30T16:22:10.345Z</time>
      </trkpt>
      <trkpt lat="43.86055" lon="1.32338">
        <ele>189.161583</ele>
        <time>2022-12-30T16:22:12.361Z</time>
      </trkpt>
      <trkpt lat="43.86055" lon="1.32351">
        <ele>189.135133</ele>
        <time>2022-12-30T16:22:14.337Z</time>
      </trkpt>
      <trkpt lat="43.86056" lon="1.32363">
        <ele>189.109275</ele>
        <time>2022-12-30T16:22:16.340Z</time>
      </trkpt>
      <trkpt lat="43.86057" lon="1.32376">
        <ele>189.127164</ele>
        <time>2022-12-30T16:22:18.341Z</time>
      </trkpt>
      <trkpt lat="43.86057" lon="1.32395">
        <ele>189.162814</ele>
        <time>2022-12-30T16:22:21.337Z</time>
      </trkpt>
      <trkpt lat="43.86059" lon="1.32413">
        <ele>189.197446</ele>
        <time>2022-12-30T16:22:24.331Z</time>
      </trkpt>
      <trkpt lat="43.86059" lon="1.32425">
        <ele>189.221099</ele>
        <time>2022-12-30T16:22:26.341Z</time>
      </trkpt>
      <trkpt lat="43.8606" lon="1.32443">
        <ele>189.255239</ele>
        <time>2022-12-30T16:22:29.353Z</time>
      </trkpt>
      <trkpt lat="43.8606" lon="1.32457">
        <ele>189.280795</ele>
        <time>2022-12-30T16:22:31.339Z</time>
      </trkpt>
      <trkpt lat="43.8606" lon="1.32469">
        <ele>189.304459</ele>
        <time>2022-12-30T16:22:33.360Z</time>
      </trkpt>
      <trkpt lat="43.86061" lon="1.32483">
        <ele>189.330996</ele>
        <time>2022-12-30T16:22:35.359Z</time>
      </trkpt>
      <trkpt lat="43.86062" lon="1.32497">
        <ele>189.356357</ele>
        <time>2022-12-30T16:22:37.341Z</time>
      </trkpt>
      <trkpt lat="43.86063" lon="1.32511">
        <ele>189.383663</ele>
        <time>2022-12-30T16:22:39.344Z</time>
      </trkpt>
      <trkpt lat="43.86066" lon="1.32525">
        <ele>189.411567</ele>
        <time>2022-12-30T16:22:41.362Z</time>
      </trkpt>
      <trkpt lat="43.86069" lon="1.32538">
        <ele>189.437783</ele>
        <time>2022-12-30T16:22:43.347Z</time>
      </trkpt>
      <trkpt lat="43.86072" lon="1.32552">
        <ele>189.464874</ele>
        <time>2022-12-30T16:22:45.340Z</time>
      </trkpt>
      <trkpt lat="43.86075" lon="1.32565">
        <ele>189.491488</ele>
        <time>2022-12-30T16:22:47.338Z</time>
      </trkpt>
      <trkpt lat="43.86078" lon="1.32579">
        <ele>189.517935</ele>
        <time>2022-12-30T16:22:49.337Z</time>
      </trkpt>
      <trkpt lat="43.86082" lon="1.32592">
        <ele>189.544828</ele>
        <time>2022-12-30T16:22:51.332Z</time>
      </trkpt>
      <trkpt lat="43.86086" lon="1.32605">
        <ele>189.571995</ele>
        <time>2022-12-30T16:22:53.352Z</time>
      </trkpt>
      <trkpt lat="43.8609" lon="1.32619">
        <ele>189.552797</ele>
        <time>2022-12-30T16:22:55.352Z</time>
      </trkpt>
      <trkpt lat="43.86094" lon="1.32632">
        <ele>189.519685</ele>
        <time>2022-12-30T16:22:57.337Z</time>
      </trkpt>
      <trkpt lat="43.86099" lon="1.32645">
        <ele>189.484999</ele>
        <time>2022-12-30T16:22:59.350Z</time>
      </trkpt>
      <trkpt lat="43.86104" lon="1.32658">
        <ele>189.451271</ele>
        <time>2022-12-30T16:23:01.364Z</time>
      </trkpt>
      <trkpt lat="43.86109" lon="1.32671">
        <ele>189.416884</ele>
        <time>2022-12-30T16:23:03.366Z</time>
      </trkpt>
      <trkpt lat="43.86115" lon="1.32684">
        <ele>189.381761</ele>
        <time>2022-12-30T16:23:05.359Z</time>
      </trkpt>
      <trkpt lat="43.86122" lon="1.32696">
        <ele>189.347409</ele>
        <time>2022-12-30T16:23:07.343Z</time>
      </trkpt>
      <trkpt lat="43.86129" lon="1.32708">
        <ele>189.313363</ele>
        <time>2022-12-30T16:23:09.367Z</time>
      </trkpt>
      <trkpt lat="43.86136" lon="1.3272">
        <ele>189.277247</ele>
        <time>2022-12-30T16:23:11.342Z</time>
      </trkpt>
      <trkpt lat="43.86142" lon="1.32732">
        <ele>189.243266</ele>
        <time>2022-12-30T16:23:13.341Z</time>
      </trkpt>
      <trkpt lat="43.86149" lon="1.32744">
        <ele>189.208908</ele>
        <time>2022-12-30T16:23:15.343Z</time>
      </trkpt>
      <trkpt lat="43.86156" lon="1.32756">
        <ele>189.173726</ele>
        <time>2022-12-30T16:23:17.342Z</time>
      </trkpt>
      <trkpt lat="43.86163" lon="1.32768">
        <ele>189.137881</ele>
        <time>2022-12-30T16:23:19.357Z</time>
      </trkpt>
      <trkpt lat="43.8617" lon="1.3278">
        <ele>189.102523</ele>
        <time>2022-12-30T16:23:21.365Z</time>
      </trkpt>
      <trkpt lat="43.86176" lon="1.32791">
        <ele>189.069611</ele>
        <time>2022-12-30T16:23:23.345Z</time>
      </trkpt>
      <trkpt lat="43.86182" lon="1.32802">
        <ele>189.038762</ele>
        <time>2022-12-30T16:23:25.348Z</time>
      </trkpt>
      <trkpt lat="43.86188" lon="1.32813">
        <ele>189.008093</ele>
        <time>2022-12-30T16:23:27.341Z</time>
      </trkpt>
      <trkpt lat="43.86194" lon="1.32822">
        <ele>188.989485</ele>
        <time>2022-12-30T16:23:29.345Z</time>
      </trkpt>
      <trkpt lat="43.86202" lon="1.32837">
        <ele>188.963251</ele>
        <time>2022-12-30T16:23:32.362Z</time>
      </trkpt>
      <trkpt lat="43.86207" lon="1.32847">
        <ele>188.945212</ele>
        <time>2022-12-30T16:23:34.345Z</time>
      </trkpt>
      <trkpt lat="43.86213" lon="1.32858">
        <ele>188.925407</ele>
        <time>2022-12-30T16:23:36.341Z</time>
      </trkpt>
      <trkpt lat="43.86218" lon="1.32869">
        <ele>188.906316</ele>
        <time>2022-12-30T16:23:38.338Z</time>
      </trkpt>
      <trkpt lat="43.86224" lon="1.3288">
        <ele>188.886731</ele>
        <time>2022-12-30T16:23:40.357Z</time>
      </trkpt>
      <trkpt lat="43.86229" lon="1.32892">
        <ele>188.867132</ele>
        <time>2022-12-30T16:23:42.346Z</time>
      </trkpt>
      <trkpt lat="43.86234" lon="1.32903">
        <ele>188.848296</ele>
        <time>2022-12-30T16:23:44.341Z</time>
      </trkpt>
      <trkpt lat="43.86238" lon="1.32915">
        <ele>188.82829</ele>
        <time>2022-12-30T16:23:46.347Z</time>
      </trkpt>
      <trkpt lat="43.86242" lon="1.32928">
        <ele>188.808163</ele>
        <time>2022-12-30T16:23:48.369Z</time>
      </trkpt>
      <trkpt lat="43.86247" lon="1.32941">
        <ele>188.787513</ele>
        <time>2022-12-30T16:23:50.365Z</time>
      </trkpt>
      <trkpt lat="43.86252" lon="1.32954">
        <ele>188.766562</ele>
        <time>2022-12-30T16:23:52.347Z</time>
      </trkpt>
      <trkpt lat="43.86256" lon="1.32967">
        <ele>188.74535</ele>
        <time>2022-12-30T16:23:54.349Z</time>
      </trkpt>
      <trkpt lat="43.86261" lon="1.3298">
        <ele>188.723855</ele>
        <time>2022-12-30T16:23:56.344Z</time>
      </trkpt>
      <trkpt lat="43.86267" lon="1.32993">
        <ele>188.702567</ele>
        <time>2022-12-30T16:23:58.375Z</time>
      </trkpt>
      <trkpt lat="43.86273" lon="1.33005">
        <ele>188.681363</ele>
        <time>2022-12-30T16:24:00.344Z</time>
      </trkpt>
      <trkpt lat="43.8628" lon="1.33016">
        <ele>188.658974</ele>
        <time>2022-12-30T16:24:02.343Z</time>
      </trkpt>
      <trkpt lat="43.86287" lon="1.33026">
        <ele>188.68749</ele>
        <time>2022-12-30T16:24:04.347Z</time>
      </trkpt>
      <trkpt lat="43.86293" lon="1.33035">
        <ele>188.795355</ele>
        <time>2022-12-30T16:24:06.346Z</time>
      </trkpt>
      <trkpt lat="43.86301" lon="1.33049">
        <ele>188.937125</ele>
        <time>2022-12-30T16:24:09.340Z</time>
      </trkpt>
      <trkpt lat="43.86299" lon="1.33065">
        <ele>189.068331</ele>
        <time>2022-12-30T16:24:12.344Z</time>
      </trkpt>
      <trkpt lat="43.8629" lon="1.33073">
        <ele>189.190347</ele>
        <time>2022-12-30T16:24:15.339Z</time>
      </trkpt>
      <trkpt lat="43.86281" lon="1.33082">
        <ele>189.316581</ele>
        <time>2022-12-30T16:24:18.344Z</time>
      </trkpt>
      <trkpt lat="43.86271" lon="1.33091">
        <ele>189.448913</ele>
        <time>2022-12-30T16:24:21.340Z</time>
      </trkpt>
      <trkpt lat="43.86263" lon="1.33102">
        <ele>189.579238</ele>
        <time>2022-12-30T16:24:24.346Z</time>
      </trkpt>
      <trkpt lat="43.86256" lon="1.33115">
        <ele>189.712375</ele>
        <time>2022-12-30T16:24:27.358Z</time>
      </trkpt>
      <trkpt lat="43.8625" lon="1.3313">
        <ele>189.848915</ele>
        <time>2022-12-30T16:24:30.351Z</time>
      </trkpt>
      <trkpt lat="43.86246" lon="1.33144">
        <ele>189.978874</ele>
        <time>2022-12-30T16:24:33.340Z</time>
      </trkpt>
      <trkpt lat="43.86242" lon="1.33157">
        <ele>190.096784</ele>
        <time>2022-12-30T16:24:36.339Z</time>
      </trkpt>
      <trkpt lat="43.86238" lon="1.33171">
        <ele>190.219562</ele>
        <time>2022-12-30T16:24:39.341Z</time>
      </trkpt>
      <trkpt lat="43.86233" lon="1.33186">
        <ele>190.351947</ele>
        <time>2022-12-30T16:24:42.339Z</time>
      </trkpt>
      <trkpt lat="43.86227" lon="1.33201">
        <ele>190.492198</ele>
        <time>2022-12-30T16:24:45.350Z</time>
      </trkpt>
      <trkpt lat="43.86222" lon="1.33218">
        <ele>190.638273</ele>
        <time>2022-12-30T16:24:48.351Z</time>
      </trkpt>
      <trkpt lat="43.86217" lon="1.33234">
        <ele>190.616043</ele>
        <time>2022-12-30T16:24:51.348Z</time>
      </trkpt>
      <trkpt lat="43.86213" lon="1.33251">
        <ele>190.487696</ele>
        <time>2022-12-30T16:24:54.339Z</time>
      </trkpt>
      <trkpt lat="43.8621" lon="1.33268">
        <ele>190.360674</ele>
        <time>2022-12-30T16:24:57.343Z</time>
      </trkpt>
      <trkpt lat="43.86208" lon="1.33281">
        <ele>190.271314</ele>
        <time>2022-12-30T16:24:59.347Z</time>
      </trkpt>
      <trkpt lat="43.86206" lon="1.33293">
        <ele>190.181664</ele>
        <time>2022-12-30T16:25:01.343Z</time>
      </trkpt>
      <trkpt lat="43.86206" lon="1.33306">
        <ele>190.089344</ele>
        <time>2022-12-30T16:25:03.347Z</time>
      </trkpt>
      <trkpt lat="43.86205" lon="1.33319">
        <ele>190.000316</ele>
        <time>2022-12-30T16:25:05.336Z</time>
      </trkpt>
      <trkpt lat="43.86204" lon="1.33337">
        <ele>189.868761</ele>
        <time>2022-12-30T16:25:08.340Z</time>
      </trkpt>
      <trkpt lat="43.86203" lon="1.3335">
        <ele>189.778322</ele>
        <time>2022-12-30T16:25:10.342Z</time>
      </trkpt>
      <trkpt lat="43.86202" lon="1.33363">
        <ele>189.683447</ele>
        <time>2022-12-30T16:25:12.360Z</time>
      </trkpt>
      <trkpt lat="43.862" lon="1.33375">
        <ele>189.593393</ele>
        <time>2022-12-30T16:25:14.339Z</time>
      </trkpt>
      <trkpt lat="43.86194" lon="1.3339">
        <ele>189.474573</ele>
        <time>2022-12-30T16:25:17.337Z</time>
      </trkpt>
      <trkpt lat="43.86188" lon="1.33402">
        <ele>189.367046</ele>
        <time>2022-12-30T16:25:20.349Z</time>
      </trkpt>
      <trkpt lat="43.86181" lon="1.33414">
        <ele>189.262263</ele>
        <time>2022-12-30T16:25:23.335Z</time>
      </trkpt>
      <trkpt lat="43.86175" lon="1.33426">
        <ele>189.157016</ele>
        <time>2022-12-30T16:25:26.356Z</time>
      </trkpt>
      <trkpt lat="43.86171" lon="1.3344">
        <ele>189.05065</ele>
        <time>2022-12-30T16:25:29.364Z</time>
      </trkpt>
      <trkpt lat="43.8617" lon="1.33457">
        <ele>188.929266</ele>
        <time>2022-12-30T16:25:32.344Z</time>
      </trkpt>
      <trkpt lat="43.86173" lon="1.33475">
        <ele>188.885258</ele>
        <time>2022-12-30T16:25:35.356Z</time>
      </trkpt>
      <trkpt lat="43.86175" lon="1.33488">
        <ele>188.855579</ele>
        <time>2022-12-30T16:25:37.361Z</time>
      </trkpt>
      <trkpt lat="43.86179" lon="1.335">
        <ele>188.826165</ele>
        <time>2022-12-30T16:25:39.364Z</time>
      </trkpt>
      <trkpt lat="43.86184" lon="1.33517">
        <ele>188.783465</ele>
        <time>2022-12-30T16:25:42.368Z</time>
      </trkpt>
      <trkpt lat="43.86188" lon="1.33534">
        <ele>188.741861</ele>
        <time>2022-12-30T16:25:45.353Z</time>
      </trkpt>
      <trkpt lat="43.86191" lon="1.3355">
        <ele>188.703907</ele>
        <time>2022-12-30T16:25:48.367Z</time>
      </trkpt>
      <trkpt lat="43.86191" lon="1.33568">
        <ele>188.664565</ele>
        <time>2022-12-30T16:25:51.341Z</time>
      </trkpt>
      <trkpt lat="43.8619" lon="1.33585">
        <ele>188.623717</ele>
        <time>2022-12-30T16:25:54.347Z</time>
      </trkpt>
      <trkpt lat="43.86189" lon="1.33598">
        <ele>188.594357</ele>
        <time>2022-12-30T16:25:56.345Z</time>
      </trkpt>
      <trkpt lat="43.86186" lon="1.33611">
        <ele>188.564086</ele>
        <time>2022-12-30T16:25:58.351Z</time>
      </trkpt>
      <trkpt lat="43.86181" lon="1.33623">
        <ele>188.533655</ele>
        <time>2022-12-30T16:26:00.342Z</time>
      </trkpt>
      <trkpt lat="43.86177" lon="1.33634">
        <ele>188.504127</ele>
        <time>2022-12-30T16:26:02.365Z</time>
      </trkpt>
      <trkpt lat="43.86172" lon="1.33645">
        <ele>188.475152</ele>
        <time>2022-12-30T16:26:04.345Z</time>
      </trkpt>
      <trkpt lat="43.86164" lon="1.3366">
        <ele>188.432766</ele>
        <time>2022-12-30T16:26:07.344Z</time>
      </trkpt>
      <trkpt lat="43.86159" lon="1.33671">
        <ele>188.403314</ele>
        <time>2022-12-30T16:26:09.365Z</time>
      </trkpt>
      <trkpt lat="43.86152" lon="1.33685">
        <ele>188.363713</ele>
        <time>2022-12-30T16:26:12.363Z</time>
      </trkpt>
      <trkpt lat="43.86145" lon="1.33699">
        <ele>188.371954</ele>
        <time>2022-12-30T16:26:15.342Z</time>
      </trkpt>
      <trkpt lat="43.86138" lon="1.33712">
        <ele>188.389345</ele>
        <time>2022-12-30T16:26:18.341Z</time>
      </trkpt>
      <trkpt lat="43.86132" lon="1.33726">
        <ele>188.407488</ele>
        <time>2022-12-30T16:26:21.351Z</time>
      </trkpt>
      <trkpt lat="43.86126" lon="1.3374">
        <ele>188.425812</ele>
        <time>2022-12-30T16:26:24.345Z</time>
      </trkpt>
      <trkpt lat="43.86119" lon="1.33754">
        <ele>188.44437</ele>
        <time>2022-12-30T16:26:27.346Z</time>
      </trkpt>
      <trkpt lat="43.86113" lon="1.33768">
        <ele>188.462606</ele>
        <time>2022-12-30T16:26:30.353Z</time>
      </trkpt>
      <trkpt lat="43.86107" lon="1.33783">
        <ele>188.481426</ele>
        <time>2022-12-30T16:26:33.346Z</time>
      </trkpt>
      <trkpt lat="43.86101" lon="1.33797">
        <ele>188.499502</ele>
        <time>2022-12-30T16:26:36.343Z</time>
      </trkpt>
      <trkpt lat="43.86095" lon="1.33812">
        <ele>188.518265</ele>
        <time>2022-12-30T16:26:39.366Z</time>
      </trkpt>
      <trkpt lat="43.86089" lon="1.33827">
        <ele>188.537317</ele>
        <time>2022-12-30T16:26:42.361Z</time>
      </trkpt>
      <trkpt lat="43.86083" lon="1.33841">
        <ele>188.554839</ele>
        <time>2022-12-30T16:26:45.367Z</time>
      </trkpt>
      <trkpt lat="43.86079" lon="1.33852">
        <ele>188.569468</ele>
        <time>2022-12-30T16:26:48.346Z</time>
      </trkpt>
      <trkpt lat="43.86072" lon="1.33866">
        <ele>188.587705</ele>
        <time>2022-12-30T16:26:52.344Z</time>
      </trkpt>
      <trkpt lat="43.86068" lon="1.33879">
        <ele>188.603411</ele>
        <time>2022-12-30T16:26:55.346Z</time>
      </trkpt>
      <trkpt lat="43.86063" lon="1.33892">
        <ele>188.620155</ele>
        <time>2022-12-30T16:26:58.338Z</time>
      </trkpt>
      <trkpt lat="43.86057" lon="1.33907">
        <ele>188.654859</ele>
        <time>2022-12-30T16:27:01.351Z</time>
      </trkpt>
      <trkpt lat="43.86051" lon="1.33921">
        <ele>188.721427</ele>
        <time>2022-12-30T16:27:04.339Z</time>
      </trkpt>
      <trkpt lat="43.86046" lon="1.33935">
        <ele>188.786918</ele>
        <time>2022-12-30T16:27:07.341Z</time>
      </trkpt>
      <trkpt lat="43.8604" lon="1.33948">
        <ele>188.847725</ele>
        <time>2022-12-30T16:27:10.363Z</time>
      </trkpt>
      <trkpt lat="43.86034" lon="1.33962">
        <ele>188.913774</ele>
        <time>2022-12-30T16:27:13.352Z</time>
      </trkpt>
      <trkpt lat="43.86028" lon="1.33976">
        <ele>188.982681</ele>
        <time>2022-12-30T16:27:16.337Z</time>
      </trkpt>
      <trkpt lat="43.86023" lon="1.33991">
        <ele>189.050691</ele>
        <time>2022-12-30T16:27:19.344Z</time>
      </trkpt>
      <trkpt lat="43.86017" lon="1.34006">
        <ele>189.121494</ele>
        <time>2022-12-30T16:27:22.333Z</time>
      </trkpt>
      <trkpt lat="43.86011" lon="1.34021">
        <ele>189.190761</ele>
        <time>2022-12-30T16:27:25.336Z</time>
      </trkpt>
      <trkpt lat="43.86006" lon="1.34035">
        <ele>189.256433</ele>
        <time>2022-12-30T16:27:28.341Z</time>
      </trkpt>
      <trkpt lat="43.86" lon="1.34051">
        <ele>189.327247</ele>
        <time>2022-12-30T16:27:31.338Z</time>
      </trkpt>
      <trkpt lat="43.85996" lon="1.34065">
        <ele>189.388849</ele>
        <time>2022-12-30T16:27:34.363Z</time>
      </trkpt>
      <trkpt lat="43.85995" lon="1.34079">
        <ele>189.447962</ele>
        <time>2022-12-30T16:27:37.340Z</time>
      </trkpt>
      <trkpt lat="43.85994" lon="1.34093">
        <ele>189.505164</ele>
        <time>2022-12-30T16:27:40.352Z</time>
      </trkpt>
      <trkpt lat="43.85993" lon="1.34107">
        <ele>189.56074</ele>
        <time>2022-12-30T16:27:43.363Z</time>
      </trkpt>
      <trkpt lat="43.85993" lon="1.34122">
        <ele>189.620876</ele>
        <time>2022-12-30T16:27:46.342Z</time>
      </trkpt>
      <trkpt lat="43.85994" lon="1.34138">
        <ele>189.570314</ele>
        <time>2022-12-30T16:27:49.338Z</time>
      </trkpt>
      <trkpt lat="43.85995" lon="1.34155">
        <ele>189.405253</ele>
        <time>2022-12-30T16:27:52.350Z</time>
      </trkpt>
      <trkpt lat="43.85998" lon="1.34171">
        <ele>189.239262</ele>
        <time>2022-12-30T16:27:55.347Z</time>
      </trkpt>
      <trkpt lat="43.86001" lon="1.34188">
        <ele>189.071039</ele>
        <time>2022-12-30T16:27:58.350Z</time>
      </trkpt>
      <trkpt lat="43.86003" lon="1.34206">
        <ele>188.894802</ele>
        <time>2022-12-30T16:28:01.343Z</time>
      </trkpt>
      <trkpt lat="43.86006" lon="1.34224">
        <ele>188.715176</ele>
        <time>2022-12-30T16:28:04.346Z</time>
      </trkpt>
      <trkpt lat="43.86009" lon="1.34241">
        <ele>188.541533</ele>
        <time>2022-12-30T16:28:07.338Z</time>
      </trkpt>
      <trkpt lat="43.86011" lon="1.34258">
        <ele>188.380244</ele>
        <time>2022-12-30T16:28:10.348Z</time>
      </trkpt>
      <trkpt lat="43.86014" lon="1.34273">
        <ele>188.224939</ele>
        <time>2022-12-30T16:28:13.353Z</time>
      </trkpt>
      <trkpt lat="43.86016" lon="1.34288">
        <ele>188.081214</ele>
        <time>2022-12-30T16:28:16.344Z</time>
      </trkpt>
      <trkpt lat="43.86017" lon="1.343">
        <ele>187.956114</ele>
        <time>2022-12-30T16:28:19.350Z</time>
      </trkpt>
      <trkpt lat="43.86019" lon="1.34315">
        <ele>187.813126</ele>
        <time>2022-12-30T16:28:23.338Z</time>
      </trkpt>
      <trkpt lat="43.86023" lon="1.34329">
        <ele>187.662726</ele>
        <time>2022-12-30T16:28:27.337Z</time>
      </trkpt>
      <trkpt lat="43.86025" lon="1.34344">
        <ele>187.522371</ele>
        <time>2022-12-30T16:28:31.338Z</time>
      </trkpt>
      <trkpt lat="43.86028" lon="1.34359">
        <ele>187.364569</ele>
        <time>2022-12-30T16:28:35.341Z</time>
      </trkpt>
      <trkpt lat="43.86031" lon="1.34373">
        <ele>187.229713</ele>
        <time>2022-12-30T16:28:38.355Z</time>
      </trkpt>
      <trkpt lat="43.86035" lon="1.34387">
        <ele>186.598251</ele>
        <time>2022-12-30T16:28:41.340Z</time>
      </trkpt>
      <trkpt lat="43.8604" lon="1.344">
        <ele>185.961765</ele>
        <time>2022-12-30T16:28:44.335Z</time>
      </trkpt>
      <trkpt lat="43.86046" lon="1.34413">
        <ele>185.319125</ele>
        <time>2022-12-30T16:28:47.336Z</time>
      </trkpt>
      <trkpt lat="43.86051" lon="1.34427">
        <ele>184.674585</ele>
        <time>2022-12-30T16:28:50.342Z</time>
      </trkpt>
      <trkpt lat="43.86056" lon="1.34441">
        <ele>184.01164</ele>
        <time>2022-12-30T16:28:53.345Z</time>
      </trkpt>
      <trkpt lat="43.86061" lon="1.34458">
        <ele>183.259173</ele>
        <time>2022-12-30T16:28:56.356Z</time>
      </trkpt>
      <trkpt lat="43.86066" lon="1.34476">
        <ele>182.43672</ele>
        <time>2022-12-30T16:28:59.360Z</time>
      </trkpt>
      <trkpt lat="43.86069" lon="1.34489">
        <ele>181.850121</ele>
        <time>2022-12-30T16:29:01.347Z</time>
      </trkpt>
      <trkpt lat="43.86072" lon="1.34502">
        <ele>181.279198</ele>
        <time>2022-12-30T16:29:03.348Z</time>
      </trkpt>
      <trkpt lat="43.86076" lon="1.34515">
        <ele>180.70429</ele>
        <time>2022-12-30T16:29:05.342Z</time>
      </trkpt>
      <trkpt lat="43.86078" lon="1.34528">
        <ele>180.116413</ele>
        <time>2022-12-30T16:29:07.361Z</time>
      </trkpt>
      <trkpt lat="43.86081" lon="1.34542">
        <ele>179.505958</ele>
        <time>2022-12-30T16:29:09.345Z</time>
      </trkpt>
      <trkpt lat="43.86084" lon="1.34557">
        <ele>178.860461</ele>
        <time>2022-12-30T16:29:11.363Z</time>
      </trkpt>
      <trkpt lat="43.86087" lon="1.34571">
        <ele>178.25045</ele>
        <time>2022-12-30T16:29:13.366Z</time>
      </trkpt>
      <trkpt lat="43.8609" lon="1.34587">
        <ele>177.566184</ele>
        <time>2022-12-30T16:29:15.372Z</time>
      </trkpt>
      <trkpt lat="43.86094" lon="1.34602">
        <ele>176.881158</ele>
        <time>2022-12-30T16:29:17.356Z</time>
      </trkpt>
      <trkpt lat="43.86098" lon="1.34619">
        <ele>176.590853</ele>
        <time>2022-12-30T16:29:19.355Z</time>
      </trkpt>
      <trkpt lat="43.86102" lon="1.34635">
        <ele>176.395421</ele>
        <time>2022-12-30T16:29:21.343Z</time>
      </trkpt>
      <trkpt lat="43.86105" lon="1.34652">
        <ele>176.195478</ele>
        <time>2022-12-30T16:29:23.341Z</time>
      </trkpt>
      <trkpt lat="43.86109" lon="1.34669">
        <ele>175.99314</ele>
        <time>2022-12-30T16:29:25.344Z</time>
      </trkpt>
      <trkpt lat="43.86113" lon="1.34686">
        <ele>175.78509</ele>
        <time>2022-12-30T16:29:27.361Z</time>
      </trkpt>
      <trkpt lat="43.86116" lon="1.34704">
        <ele>175.574609</ele>
        <time>2022-12-30T16:29:29.368Z</time>
      </trkpt>
      <trkpt lat="43.86119" lon="1.34721">
        <ele>175.371954</ele>
        <time>2022-12-30T16:29:31.366Z</time>
      </trkpt>
      <trkpt lat="43.8612" lon="1.34738">
        <ele>175.174806</ele>
        <time>2022-12-30T16:29:33.364Z</time>
      </trkpt>
      <trkpt lat="43.86123" lon="1.34755">
        <ele>174.983243</ele>
        <time>2022-12-30T16:29:35.364Z</time>
      </trkpt>
      <trkpt lat="43.86125" lon="1.34771">
        <ele>174.796705</ele>
        <time>2022-12-30T16:29:37.344Z</time>
      </trkpt>
      <trkpt lat="43.86126" lon="1.34786">
        <ele>174.62113</ele>
        <time>2022-12-30T16:29:39.339Z</time>
      </trkpt>
      <trkpt lat="43.86128" lon="1.34801">
        <ele>174.45188</ele>
        <time>2022-12-30T16:29:41.340Z</time>
      </trkpt>
      <trkpt lat="43.86129" lon="1.34815">
        <ele>174.287918</ele>
        <time>2022-12-30T16:29:43.365Z</time>
      </trkpt>
      <trkpt lat="43.8613" lon="1.34829">
        <ele>174.134232</ele>
        <time>2022-12-30T16:29:45.340Z</time>
      </trkpt>
      <trkpt lat="43.86133" lon="1.34846">
        <ele>173.926722</ele>
        <time>2022-12-30T16:29:48.345Z</time>
      </trkpt>
      <trkpt lat="43.86135" lon="1.34861">
        <ele>174.637569</ele>
        <time>2022-12-30T16:29:51.346Z</time>
      </trkpt>
      <trkpt lat="43.86137" lon="1.34874">
        <ele>175.323159</ele>
        <time>2022-12-30T16:29:54.341Z</time>
      </trkpt>
      <trkpt lat="43.86138" lon="1.3489">
        <ele>176.140502</ele>
        <time>2022-12-30T16:29:58.352Z</time>
      </trkpt>
      <trkpt lat="43.86141" lon="1.34904">
        <ele>176.937358</ele>
        <time>2022-12-30T16:30:03.339Z</time>
      </trkpt>
      <trkpt lat="43.86143" lon="1.34916">
        <ele>177.605922</ele>
        <time>2022-12-30T16:30:08.343Z</time>
      </trkpt>
      <trkpt lat="43.86147" lon="1.34928">
        <ele>178.273586</ele>
        <time>2022-12-30T16:30:13.354Z</time>
      </trkpt>
      <trkpt lat="43.86153" lon="1.34937">
        <ele>178.937301</ele>
        <time>2022-12-30T16:30:18.350Z</time>
      </trkpt>
      <trkpt lat="43.8616" lon="1.34945">
        <ele>179.59719</ele>
        <time>2022-12-30T16:30:23.340Z</time>
      </trkpt>
      <trkpt lat="43.86169" lon="1.34949">
        <ele>180.26334</ele>
        <time>2022-12-30T16:30:28.338Z</time>
      </trkpt>
      <trkpt lat="43.86178" lon="1.34947">
        <ele>180.953402</ele>
        <time>2022-12-30T16:30:34.339Z</time>
      </trkpt>
      <trkpt lat="43.86187" lon="1.34945">
        <ele>181.633614</ele>
        <time>2022-12-30T16:30:40.341Z</time>
      </trkpt>
      <trkpt lat="43.86196" lon="1.34942">
        <ele>182.33882</ele>
        <time>2022-12-30T16:31:08.373Z</time>
      </trkpt>
      <trkpt lat="43.86205" lon="1.34939">
        <ele>183.019032</ele>
        <time>2022-12-30T16:31:20.365Z</time>
      </trkpt>
      <trkpt lat="43.86209" lon="1.34939">
        <ele>183.297714</ele>
        <time>2022-12-30T16:31:34.602Z</time>
      </trkpt>
      <trkpt lat="43.86206" lon="1.34957">
        <ele>184.253827</ele>
        <time>2022-12-30T16:32:57.344Z</time>
      </trkpt>
      <trkpt lat="43.86196" lon="1.34961">
        <ele>185.014149</ele>
        <time>2022-12-30T16:33:02.351Z</time>
      </trkpt>
      <trkpt lat="43.86186" lon="1.34967">
        <ele>185.802276</ele>
        <time>2022-12-30T16:33:07.336Z</time>
      </trkpt>
      <trkpt lat="43.86178" lon="1.34971">
        <ele>186.484</ele>
        <time>2022-12-30T16:33:11.349Z</time>
      </trkpt>
      <trkpt lat="43.86168" lon="1.34978">
        <ele>187.132638</ele>
        <time>2022-12-30T16:33:16.343Z</time>
      </trkpt>
      <trkpt lat="43.86162" lon="1.34987">
        <ele>187.299477</ele>
        <time>2022-12-30T16:33:21.343Z</time>
      </trkpt>
      <trkpt lat="43.86156" lon="1.34999">
        <ele>187.475672</ele>
        <time>2022-12-30T16:33:28.361Z</time>
      </trkpt>
      <trkpt lat="43.86165" lon="1.35004">
        <ele>187.645323</ele>
        <time>2022-12-30T16:33:39.348Z</time>
      </trkpt>
      <trkpt lat="43.86175" lon="1.35">
        <ele>187.832986</ele>
        <time>2022-12-30T16:33:45.344Z</time>
      </trkpt>
      <trkpt lat="43.86185" lon="1.34998">
        <ele>188.010142</ele>
        <time>2022-12-30T16:33:49.343Z</time>
      </trkpt>
      <trkpt lat="43.86195" lon="1.34997">
        <ele>188.181686</ele>
        <time>2022-12-30T16:33:53.348Z</time>
      </trkpt>
      <trkpt lat="43.86205" lon="1.35001">
        <ele>188.356858</ele>
        <time>2022-12-30T16:33:59.335Z</time>
      </trkpt>
      <trkpt lat="43.8621" lon="1.35014">
        <ele>188.54326</ele>
        <time>2022-12-30T16:34:04.362Z</time>
      </trkpt>
      <trkpt lat="43.86214" lon="1.35027">
        <ele>188.734552</ele>
        <time>2022-12-30T16:34:09.364Z</time>
      </trkpt>
      <trkpt lat="43.86219" lon="1.35039">
        <ele>188.894426</ele>
        <time>2022-12-30T16:34:13.345Z</time>
      </trkpt>
      <trkpt lat="43.86224" lon="1.35053">
        <ele>189.088308</ele>
        <time>2022-12-30T16:34:18.357Z</time>
      </trkpt>
      <trkpt lat="43.86227" lon="1.35067">
        <ele>189.274336</ele>
        <time>2022-12-30T16:34:23.363Z</time>
      </trkpt>
      <trkpt lat="43.86232" lon="1.3508">
        <ele>189.456512</ele>
        <time>2022-12-30T16:34:28.352Z</time>
      </trkpt>
      <trkpt lat="43.86236" lon="1.35093">
        <ele>189.641367</ele>
        <time>2022-12-30T16:34:32.342Z</time>
      </trkpt>
      <trkpt lat="43.86239" lon="1.35105">
        <ele>189.799236</ele>
        <time>2022-12-30T16:34:35.359Z</time>
      </trkpt>
      <trkpt lat="43.86243" lon="1.35117">
        <ele>189.96175</ele>
        <time>2022-12-30T16:34:38.351Z</time>
      </trkpt>
      <trkpt lat="43.86246" lon="1.35129">
        <ele>190.12245</ele>
        <time>2022-12-30T16:34:41.350Z</time>
      </trkpt>
      <trkpt lat="43.86249" lon="1.35142">
        <ele>190.228831</ele>
        <time>2022-12-30T16:34:44.349Z</time>
      </trkpt>
      <trkpt lat="43.86252" lon="1.35154">
        <ele>190.228831</ele>
        <time>2022-12-30T16:34:47.378Z</time>
      </trkpt>
      <trkpt lat="43.86256" lon="1.35169">
        <ele>190.228831</ele>
        <time>2022-12-30T16:34:51.355Z</time>
      </trkpt>
      <trkpt lat="43.86259" lon="1.35182">
        <ele>190.228831</ele>
        <time>2022-12-30T16:34:55.349Z</time>
      </trkpt>
      <trkpt lat="43.86263" lon="1.35195">
        <ele>190.228831</ele>
        <time>2022-12-30T16:34:59.333Z</time>
      </trkpt>
      <trkpt lat="43.86268" lon="1.35209">
        <ele>190.228831</ele>
        <time>2022-12-30T16:35:03.347Z</time>
      </trkpt>
      <trkpt lat="43.8627" lon="1.35223">
        <ele>190.228831</ele>
        <time>2022-12-30T16:35:07.363Z</time>
      </trkpt>
      <trkpt lat="43.8627" lon="1.35236">
        <ele>190.228831</ele>
        <time>2022-12-30T16:35:10.349Z</time>
      </trkpt>
      <trkpt lat="43.86267" lon="1.35249">
        <ele>190.228831</ele>
        <time>2022-12-30T16:35:13.351Z</time>
      </trkpt>
      <trkpt lat="43.86263" lon="1.35261">
        <ele>190.228831</ele>
        <time>2022-12-30T16:35:16.346Z</time>
      </trkpt>
      <trkpt lat="43.8626" lon="1.35277">
        <ele>190.228831</ele>
        <time>2022-12-30T16:35:20.343Z</time>
      </trkpt>
      <trkpt lat="43.8626" lon="1.35291">
        <ele>190.228831</ele>
        <time>2022-12-30T16:35:24.361Z</time>
      </trkpt>
      <trkpt lat="43.86266" lon="1.35302">
        <ele>190.228831</ele>
        <time>2022-12-30T16:35:29.341Z</time>
      </trkpt>
      <trkpt lat="43.86273" lon="1.35312">
        <ele>190.228831</ele>
        <time>2022-12-30T16:35:34.352Z</time>
      </trkpt>
      <trkpt lat="43.86279" lon="1.35322">
        <ele>190.228831</ele>
        <time>2022-12-30T16:35:38.352Z</time>
      </trkpt>
      <trkpt lat="43.86285" lon="1.35334">
        <ele>190.228831</ele>
        <time>2022-12-30T16:35:43.374Z</time>
      </trkpt>
      <trkpt lat="43.86289" lon="1.35337">
        <ele>190.228831</ele>
        <time>2022-12-30T16:35:56.658Z</time>
        <extensions>
          <visugpx:TrkExtension xmlns:visugpx="https://www.visugpx.com/editgpx/">
            <visugpx:node>1</visugpx:node>
            </visugpx:TrkExtension>
        </extensions>
      </trkpt>
    </trkseg>
  </trk>
  <trk>
    <name><![CDATA[Fabas - Mauvezin]]></name>
    <extensions>
      <line xmlns="http://www.topografix.com/GPX/gpx_style/0/2">
        <color>0000ff</color>
        <width>4</width>
      </line>
    </extensions>
    <trkseg>
      <trkpt lat="43.8628" lon="1.35334">
        <ele>193.18945</ele>
        <time>2023-01-01T09:37:42.444Z</time>
      </trkpt>
      <trkpt lat="43.86279" lon="1.35321">
        <ele>193.18945</ele>
        <time>2023-01-01T09:40:06.476Z</time>
      </trkpt>
      <trkpt lat="43.86273" lon="1.35311">
        <ele>193.18945</ele>
        <time>2023-01-01T09:40:10.471Z</time>
      </trkpt>
      <trkpt lat="43.86265" lon="1.353">
        <ele>193.18945</ele>
        <time>2023-01-01T09:40:15.483Z</time>
      </trkpt>
      <trkpt lat="43.8626" lon="1.35288">
        <ele>193.18945</ele>
        <time>2023-01-01T09:40:19.482Z</time>
      </trkpt>
      <trkpt lat="43.86261" lon="1.35273">
        <ele>193.18945</ele>
        <time>2023-01-01T09:40:24.464Z</time>
      </trkpt>
      <trkpt lat="43.86263" lon="1.3526">
        <ele>193.18945</ele>
        <time>2023-01-01T09:40:28.471Z</time>
      </trkpt>
      <trkpt lat="43.86267" lon="1.35246">
        <ele>193.18945</ele>
        <time>2023-01-01T09:40:32.485Z</time>
      </trkpt>
      <trkpt lat="43.86271" lon="1.35234">
        <ele>193.18945</ele>
        <time>2023-01-01T09:40:36.463Z</time>
      </trkpt>
      <trkpt lat="43.86271" lon="1.3522">
        <ele>193.187426</ele>
        <time>2023-01-01T09:40:41.479Z</time>
      </trkpt>
      <trkpt lat="43.86269" lon="1.35206">
        <ele>193.150627</ele>
        <time>2023-01-01T09:40:46.478Z</time>
      </trkpt>
      <trkpt lat="43.86266" lon="1.3519">
        <ele>193.110711</ele>
        <time>2023-01-01T09:40:51.479Z</time>
      </trkpt>
      <trkpt lat="43.86262" lon="1.35177">
        <ele>193.074437</ele>
        <time>2023-01-01T09:40:55.467Z</time>
      </trkpt>
      <trkpt lat="43.86259" lon="1.35165">
        <ele>193.041561</ele>
        <time>2023-01-01T09:40:58.479Z</time>
      </trkpt>
      <trkpt lat="43.86255" lon="1.35152">
        <ele>193.007583</ele>
        <time>2023-01-01T09:41:01.486Z</time>
      </trkpt>
      <trkpt lat="43.86251" lon="1.3514">
        <ele>192.973557</ele>
        <time>2023-01-01T09:41:04.487Z</time>
      </trkpt>
      <trkpt lat="43.86248" lon="1.35127">
        <ele>192.939752</ele>
        <time>2023-01-01T09:41:07.489Z</time>
      </trkpt>
      <trkpt lat="43.86245" lon="1.35114">
        <ele>192.905712</ele>
        <time>2023-01-01T09:41:10.487Z</time>
      </trkpt>
      <trkpt lat="43.86241" lon="1.35101">
        <ele>192.869078</ele>
        <time>2023-01-01T09:41:13.486Z</time>
      </trkpt>
      <trkpt lat="43.86236" lon="1.35087">
        <ele>192.830443</ele>
        <time>2023-01-01T09:41:16.485Z</time>
      </trkpt>
      <trkpt lat="43.86232" lon="1.35075">
        <ele>192.79663</ele>
        <time>2023-01-01T09:41:19.483Z</time>
      </trkpt>
      <trkpt lat="43.86228" lon="1.35063">
        <ele>192.765278</ele>
        <time>2023-01-01T09:41:22.467Z</time>
      </trkpt>
      <trkpt lat="43.86224" lon="1.35049">
        <ele>192.725899</ele>
        <time>2023-01-01T09:41:26.483Z</time>
      </trkpt>
      <trkpt lat="43.86218" lon="1.35034">
        <ele>192.683251</ele>
        <time>2023-01-01T09:41:30.494Z</time>
      </trkpt>
      <trkpt lat="43.86214" lon="1.35022">
        <ele>192.650199</ele>
        <time>2023-01-01T09:41:33.463Z</time>
      </trkpt>
      <trkpt lat="43.8621" lon="1.3501">
        <ele>192.617969</ele>
        <time>2023-01-01T09:41:36.480Z</time>
      </trkpt>
      <trkpt lat="43.86206" lon="1.34999">
        <ele>192.585048</ele>
        <time>2023-01-01T09:41:39.458Z</time>
      </trkpt>
      <trkpt lat="43.86197" lon="1.34993">
        <ele>192.359428</ele>
        <time>2023-01-01T09:41:42.469Z</time>
      </trkpt>
      <trkpt lat="43.86188" lon="1.34992">
        <ele>191.8289</ele>
        <time>2023-01-01T09:41:45.530Z</time>
      </trkpt>
      <trkpt lat="43.86176" lon="1.34995">
        <ele>191.16924</ele>
        <time>2023-01-01T09:41:49.478Z</time>
      </trkpt>
      <trkpt lat="43.86167" lon="1.34997">
        <ele>190.624792</ele>
        <time>2023-01-01T09:41:53.487Z</time>
      </trkpt>
      <trkpt lat="43.8616" lon="1.34989">
        <ele>190.097099</ele>
        <time>2023-01-01T09:41:58.470Z</time>
      </trkpt>
      <trkpt lat="43.86167" lon="1.34979">
        <ele>189.527498</ele>
        <time>2023-01-01T09:42:02.465Z</time>
      </trkpt>
      <trkpt lat="43.86176" lon="1.34976">
        <ele>189.007231</ele>
        <time>2023-01-01T09:42:05.465Z</time>
      </trkpt>
      <trkpt lat="43.86186" lon="1.3497">
        <ele>188.417006</ele>
        <time>2023-01-01T09:42:08.477Z</time>
      </trkpt>
      <trkpt lat="43.86195" lon="1.34964">
        <ele>187.831391</ele>
        <time>2023-01-01T09:42:11.484Z</time>
      </trkpt>
      <trkpt lat="43.86205" lon="1.34961">
        <ele>187.236574</ele>
        <time>2023-01-01T09:42:15.461Z</time>
      </trkpt>
      <trkpt lat="43.86208" lon="1.34955">
        <ele>186.946302</ele>
        <time>2023-01-01T09:42:24.692Z</time>
      </trkpt>
      <trkpt lat="43.86199" lon="1.34941">
        <ele>186.178702</ele>
        <time>2023-01-01T09:43:05.484Z</time>
      </trkpt>
      <trkpt lat="43.86188" lon="1.34943">
        <ele>185.551558</ele>
        <time>2023-01-01T09:43:08.464Z</time>
      </trkpt>
      <trkpt lat="43.86177" lon="1.34944">
        <ele>184.899117</ele>
        <time>2023-01-01T09:43:11.480Z</time>
      </trkpt>
      <trkpt lat="43.86167" lon="1.34945">
        <ele>184.322082</ele>
        <time>2023-01-01T09:43:14.484Z</time>
      </trkpt>
      <trkpt lat="43.86157" lon="1.34942">
        <ele>183.740982</ele>
        <time>2023-01-01T09:43:17.466Z</time>
      </trkpt>
      <trkpt lat="43.86147" lon="1.34931">
        <ele>183.01667</ele>
        <time>2023-01-01T09:43:20.471Z</time>
      </trkpt>
      <trkpt lat="43.86143" lon="1.34919">
        <ele>182.489725</ele>
        <time>2023-01-01T09:43:22.471Z</time>
      </trkpt>
      <trkpt lat="43.86141" lon="1.34905">
        <ele>182.318135</ele>
        <time>2023-01-01T09:43:24.465Z</time>
      </trkpt>
      <trkpt lat="43.86139" lon="1.34888">
        <ele>182.343533</ele>
        <time>2023-01-01T09:43:26.472Z</time>
      </trkpt>
      <trkpt lat="43.86137" lon="1.34871">
        <ele>182.37006</ele>
        <time>2023-01-01T09:43:28.487Z</time>
      </trkpt>
      <trkpt lat="43.86135" lon="1.34852">
        <ele>182.398013</ele>
        <time>2023-01-01T09:43:30.492Z</time>
      </trkpt>
      <trkpt lat="43.86133" lon="1.34834">
        <ele>182.425432</ele>
        <time>2023-01-01T09:43:32.461Z</time>
      </trkpt>
      <trkpt lat="43.86131" lon="1.34816">
        <ele>182.452215</ele>
        <time>2023-01-01T09:43:34.473Z</time>
      </trkpt>
      <trkpt lat="43.86129" lon="1.348">
        <ele>182.476516</ele>
        <time>2023-01-01T09:43:36.461Z</time>
      </trkpt>
      <trkpt lat="43.86127" lon="1.34784">
        <ele>182.499868</ele>
        <time>2023-01-01T09:43:38.461Z</time>
      </trkpt>
      <trkpt lat="43.86125" lon="1.3477">
        <ele>182.522199</ele>
        <time>2023-01-01T09:43:40.480Z</time>
      </trkpt>
      <trkpt lat="43.86123" lon="1.34756">
        <ele>182.542666</ele>
        <time>2023-01-01T09:43:42.461Z</time>
      </trkpt>
      <trkpt lat="43.86121" lon="1.34743">
        <ele>182.562134</ele>
        <time>2023-01-01T09:43:44.468Z</time>
      </trkpt>
      <trkpt lat="43.86119" lon="1.34726">
        <ele>182.587859</ele>
        <time>2023-01-01T09:43:47.481Z</time>
      </trkpt>
      <trkpt lat="43.86117" lon="1.34711">
        <ele>182.609715</ele>
        <time>2023-01-01T09:43:50.482Z</time>
      </trkpt>
      <trkpt lat="43.86115" lon="1.34699">
        <ele>182.62846</ele>
        <time>2023-01-01T09:43:53.465Z</time>
      </trkpt>
      <trkpt lat="43.86112" lon="1.34686">
        <ele>182.64844</ele>
        <time>2023-01-01T09:43:56.479Z</time>
      </trkpt>
      <trkpt lat="43.8611" lon="1.34673">
        <ele>182.668723</ele>
        <time>2023-01-01T09:43:59.476Z</time>
      </trkpt>
      <trkpt lat="43.86107" lon="1.34658">
        <ele>183.129805</ele>
        <time>2023-01-01T09:44:03.474Z</time>
      </trkpt>
      <trkpt lat="43.86104" lon="1.34644">
        <ele>183.672713</ele>
        <time>2023-01-01T09:44:07.491Z</time>
      </trkpt>
      <trkpt lat="43.86101" lon="1.34629">
        <ele>184.219935</ele>
        <time>2023-01-01T09:44:11.458Z</time>
      </trkpt>
      <trkpt lat="43.86098" lon="1.34616">
        <ele>184.722277</ele>
        <time>2023-01-01T09:44:15.479Z</time>
      </trkpt>
      <trkpt lat="43.86095" lon="1.34602">
        <ele>185.270091</ele>
        <time>2023-01-01T09:44:20.483Z</time>
      </trkpt>
      <trkpt lat="43.86092" lon="1.34588">
        <ele>185.79602</ele>
        <time>2023-01-01T09:44:25.479Z</time>
      </trkpt>
      <trkpt lat="43.86089" lon="1.34574">
        <ele>186.322802</ele>
        <time>2023-01-01T09:44:30.482Z</time>
      </trkpt>
      <trkpt lat="43.86086" lon="1.3456">
        <ele>186.848144</ele>
        <time>2023-01-01T09:44:35.463Z</time>
      </trkpt>
      <trkpt lat="43.86083" lon="1.34547">
        <ele>187.353555</ele>
        <time>2023-01-01T09:44:40.491Z</time>
      </trkpt>
      <trkpt lat="43.86081" lon="1.34534">
        <ele>187.853424</ele>
        <time>2023-01-01T09:44:45.474Z</time>
      </trkpt>
      <trkpt lat="43.86078" lon="1.3452">
        <ele>188.393678</ele>
        <time>2023-01-01T09:44:51.472Z</time>
      </trkpt>
      <trkpt lat="43.86075" lon="1.34507">
        <ele>188.873327</ele>
        <time>2023-01-01T09:44:56.469Z</time>
      </trkpt>
      <trkpt lat="43.86073" lon="1.34493">
        <ele>189.421022</ele>
        <time>2023-01-01T09:45:02.466Z</time>
      </trkpt>
      <trkpt lat="43.86069" lon="1.3448">
        <ele>189.926433</ele>
        <time>2023-01-01T09:45:07.480Z</time>
      </trkpt>
      <trkpt lat="43.86066" lon="1.34466">
        <ele>190.452491</ele>
        <time>2023-01-01T09:45:13.465Z</time>
      </trkpt>
      <trkpt lat="43.86061" lon="1.34453">
        <ele>190.991238</ele>
        <time>2023-01-01T09:45:19.478Z</time>
      </trkpt>
      <trkpt lat="43.86058" lon="1.34441">
        <ele>191.472306</ele>
        <time>2023-01-01T09:45:25.471Z</time>
      </trkpt>
      <trkpt lat="43.86053" lon="1.34427">
        <ele>191.932094</ele>
        <time>2023-01-01T09:45:31.466Z</time>
      </trkpt>
      <trkpt lat="43.86049" lon="1.34416">
        <ele>192.245817</ele>
        <time>2023-01-01T09:45:37.475Z</time>
      </trkpt>
      <trkpt lat="43.86044" lon="1.34403">
        <ele>192.57014</ele>
        <time>2023-01-01T09:45:43.466Z</time>
      </trkpt>
      <trkpt lat="43.86039" lon="1.3439">
        <ele>192.919908</ele>
        <time>2023-01-01T09:45:49.467Z</time>
      </trkpt>
      <trkpt lat="43.86036" lon="1.34378">
        <ele>193.228612</ele>
        <time>2023-01-01T09:45:54.469Z</time>
      </trkpt>
      <trkpt lat="43.86033" lon="1.34365">
        <ele>193.562113</ele>
        <time>2023-01-01T09:46:00.474Z</time>
      </trkpt>
      <trkpt lat="43.8603" lon="1.34351">
        <ele>193.899771</ele>
        <time>2023-01-01T09:46:05.472Z</time>
      </trkpt>
      <trkpt lat="43.86027" lon="1.34337">
        <ele>194.254472</ele>
        <time>2023-01-01T09:46:10.485Z</time>
      </trkpt>
      <trkpt lat="43.86024" lon="1.34322">
        <ele>194.620546</ele>
        <time>2023-01-01T09:46:15.485Z</time>
      </trkpt>
      <trkpt lat="43.86021" lon="1.34309">
        <ele>194.954518</ele>
        <time>2023-01-01T09:46:20.473Z</time>
      </trkpt>
      <trkpt lat="43.8602" lon="1.34296">
        <ele>195.26708</ele>
        <time>2023-01-01T09:46:25.481Z</time>
      </trkpt>
      <trkpt lat="43.86019" lon="1.34282">
        <ele>195.603578</ele>
        <time>2023-01-01T09:46:30.474Z</time>
      </trkpt>
      <trkpt lat="43.86017" lon="1.34268">
        <ele>195.935882</ele>
        <time>2023-01-01T09:46:34.479Z</time>
      </trkpt>
      <trkpt lat="43.86014" lon="1.34255">
        <ele>196.252952</ele>
        <time>2023-01-01T09:46:39.478Z</time>
      </trkpt>
      <trkpt lat="43.86012" lon="1.34253">
        <ele>196.341223</ele>
        <time>2023-01-01T09:46:57.838Z</time>
      </trkpt>
      <trkpt lat="43.8601" lon="1.34238">
        <ele>196.716802</ele>
        <time>2023-01-01T09:48:09.472Z</time>
      </trkpt>
      <trkpt lat="43.86008" lon="1.34223">
        <ele>197.078882</ele>
        <time>2023-01-01T09:48:13.461Z</time>
      </trkpt>
      <trkpt lat="43.86006" lon="1.3421">
        <ele>197.392994</ele>
        <time>2023-01-01T09:48:16.479Z</time>
      </trkpt>
      <trkpt lat="43.86004" lon="1.34195">
        <ele>197.722115</ele>
        <time>2023-01-01T09:48:19.464Z</time>
      </trkpt>
      <trkpt lat="43.86002" lon="1.3418">
        <ele>197.74271</ele>
        <time>2023-01-01T09:48:22.457Z</time>
      </trkpt>
      <trkpt lat="43.86" lon="1.34166">
        <ele>197.761749</ele>
        <time>2023-01-01T09:48:25.477Z</time>
      </trkpt>
      <trkpt lat="43.85999" lon="1.34153">
        <ele>197.780197</ele>
        <time>2023-01-01T09:48:28.490Z</time>
      </trkpt>
      <trkpt lat="43.85997" lon="1.34139">
        <ele>197.79856</ele>
        <time>2023-01-01T09:48:31.466Z</time>
      </trkpt>
      <trkpt lat="43.85996" lon="1.34124">
        <ele>197.818538</ele>
        <time>2023-01-01T09:48:34.472Z</time>
      </trkpt>
      <trkpt lat="43.85996" lon="1.34108">
        <ele>197.839766</ele>
        <time>2023-01-01T09:48:37.458Z</time>
      </trkpt>
      <trkpt lat="43.85996" lon="1.34092">
        <ele>197.86166</ele>
        <time>2023-01-01T09:48:40.483Z</time>
      </trkpt>
      <trkpt lat="43.85997" lon="1.34075">
        <ele>197.884283</ele>
        <time>2023-01-01T09:48:43.479Z</time>
      </trkpt>
      <trkpt lat="43.85999" lon="1.3406">
        <ele>197.904926</ele>
        <time>2023-01-01T09:48:46.482Z</time>
      </trkpt>
      <trkpt lat="43.86003" lon="1.34047">
        <ele>197.923767</ele>
        <time>2023-01-01T09:48:49.463Z</time>
      </trkpt>
      <trkpt lat="43.86007" lon="1.34033">
        <ele>197.94412</ele>
        <time>2023-01-01T09:48:52.483Z</time>
      </trkpt>
      <trkpt lat="43.86013" lon="1.34018">
        <ele>197.965999</ele>
        <time>2023-01-01T09:48:55.480Z</time>
      </trkpt>
      <trkpt lat="43.86019" lon="1.34003">
        <ele>197.989592</ele>
        <time>2023-01-01T09:48:58.461Z</time>
      </trkpt>
      <trkpt lat="43.86026" lon="1.33987">
        <ele>198.014482</ele>
        <time>2023-01-01T09:49:01.481Z</time>
      </trkpt>
      <trkpt lat="43.86031" lon="1.33976">
        <ele>198.031509</ele>
        <time>2023-01-01T09:49:03.485Z</time>
      </trkpt>
      <trkpt lat="43.86037" lon="1.33959">
        <ele>198.027469</ele>
        <time>2023-01-01T09:49:06.482Z</time>
      </trkpt>
      <trkpt lat="43.86042" lon="1.33948">
        <ele>197.847583</ele>
        <time>2023-01-01T09:49:08.482Z</time>
      </trkpt>
      <trkpt lat="43.86046" lon="1.33937">
        <ele>197.666242</ele>
        <time>2023-01-01T09:49:10.477Z</time>
      </trkpt>
      <trkpt lat="43.86051" lon="1.33925">
        <ele>197.479355</ele>
        <time>2023-01-01T09:49:12.473Z</time>
      </trkpt>
      <trkpt lat="43.86055" lon="1.33913">
        <ele>197.297961</ele>
        <time>2023-01-01T09:49:14.479Z</time>
      </trkpt>
      <trkpt lat="43.86062" lon="1.33898">
        <ele>197.043753</ele>
        <time>2023-01-01T09:49:17.479Z</time>
      </trkpt>
      <trkpt lat="43.86069" lon="1.33883">
        <ele>196.792889</ele>
        <time>2023-01-01T09:49:20.480Z</time>
      </trkpt>
      <trkpt lat="43.86074" lon="1.33868">
        <ele>196.557492</ele>
        <time>2023-01-01T09:49:23.485Z</time>
      </trkpt>
      <trkpt lat="43.8608" lon="1.33853">
        <ele>196.325771</ele>
        <time>2023-01-01T09:49:26.484Z</time>
      </trkpt>
      <trkpt lat="43.86085" lon="1.33839">
        <ele>196.103208</ele>
        <time>2023-01-01T09:49:29.482Z</time>
      </trkpt>
      <trkpt lat="43.86092" lon="1.33825">
        <ele>195.873775</ele>
        <time>2023-01-01T09:49:32.460Z</time>
      </trkpt>
      <trkpt lat="43.86098" lon="1.33811">
        <ele>195.636195</ele>
        <time>2023-01-01T09:49:35.479Z</time>
      </trkpt>
      <trkpt lat="43.86104" lon="1.33795">
        <ele>195.39517</ele>
        <time>2023-01-01T09:49:38.480Z</time>
      </trkpt>
      <trkpt lat="43.86109" lon="1.33781">
        <ele>195.171145</ele>
        <time>2023-01-01T09:49:41.480Z</time>
      </trkpt>
      <trkpt lat="43.86116" lon="1.33767">
        <ele>194.93136</ele>
        <time>2023-01-01T09:49:44.484Z</time>
      </trkpt>
      <trkpt lat="43.86123" lon="1.33751">
        <ele>194.673405</ele>
        <time>2023-01-01T09:49:47.485Z</time>
      </trkpt>
      <trkpt lat="43.86127" lon="1.3374">
        <ele>194.558532</ele>
        <time>2023-01-01T09:49:49.479Z</time>
      </trkpt>
      <trkpt lat="43.86132" lon="1.33729">
        <ele>194.533515</ele>
        <time>2023-01-01T09:49:51.485Z</time>
      </trkpt>
      <trkpt lat="43.86136" lon="1.33718">
        <ele>194.507919</ele>
        <time>2023-01-01T09:49:53.479Z</time>
      </trkpt>
      <trkpt lat="43.86141" lon="1.33707">
        <ele>194.48287</ele>
        <time>2023-01-01T09:49:55.486Z</time>
      </trkpt>
      <trkpt lat="43.86149" lon="1.33692">
        <ele>194.446537</ele>
        <time>2023-01-01T09:49:58.483Z</time>
      </trkpt>
      <trkpt lat="43.86157" lon="1.33678">
        <ele>194.410473</ele>
        <time>2023-01-01T09:50:01.459Z</time>
      </trkpt>
      <trkpt lat="43.86165" lon="1.33664">
        <ele>194.377007</ele>
        <time>2023-01-01T09:50:04.481Z</time>
      </trkpt>
      <trkpt lat="43.86171" lon="1.3365">
        <ele>194.34442</ele>
        <time>2023-01-01T09:50:07.478Z</time>
      </trkpt>
      <trkpt lat="43.86177" lon="1.33636">
        <ele>194.312664</ele>
        <time>2023-01-01T09:50:10.480Z</time>
      </trkpt>
      <trkpt lat="43.86183" lon="1.33622">
        <ele>194.281199</ele>
        <time>2023-01-01T09:50:13.485Z</time>
      </trkpt>
      <trkpt lat="43.86188" lon="1.33606">
        <ele>194.246542</ele>
        <time>2023-01-01T09:50:16.466Z</time>
      </trkpt>
      <trkpt lat="43.8619" lon="1.33594">
        <ele>194.221902</ele>
        <time>2023-01-01T09:50:18.460Z</time>
      </trkpt>
      <trkpt lat="43.86191" lon="1.33575">
        <ele>194.185141</ele>
        <time>2023-01-01T09:50:21.468Z</time>
      </trkpt>
      <trkpt lat="43.86191" lon="1.33562">
        <ele>194.15955</ele>
        <time>2023-01-01T09:50:23.479Z</time>
      </trkpt>
      <trkpt lat="43.8619" lon="1.33549">
        <ele>194.133183</ele>
        <time>2023-01-01T09:50:25.482Z</time>
      </trkpt>
      <trkpt lat="43.86189" lon="1.33536">
        <ele>194.107361</ele>
        <time>2023-01-01T09:50:27.485Z</time>
      </trkpt>
      <trkpt lat="43.86186" lon="1.33523">
        <ele>194.080629</ele>
        <time>2023-01-01T09:50:29.460Z</time>
      </trkpt>
      <trkpt lat="43.86182" lon="1.3351">
        <ele>194.056578</ele>
        <time>2023-01-01T09:50:31.478Z</time>
      </trkpt>
      <trkpt lat="43.86178" lon="1.33497">
        <ele>194.033232</ele>
        <time>2023-01-01T09:50:33.462Z</time>
      </trkpt>
      <trkpt lat="43.86175" lon="1.33484">
        <ele>194.010002</ele>
        <time>2023-01-01T09:50:35.483Z</time>
      </trkpt>
      <trkpt lat="43.86172" lon="1.33471">
        <ele>193.986321</ele>
        <time>2023-01-01T09:50:37.480Z</time>
      </trkpt>
      <trkpt lat="43.86171" lon="1.33457">
        <ele>193.963483</ele>
        <time>2023-01-01T09:50:39.473Z</time>
      </trkpt>
      <trkpt lat="43.86171" lon="1.33444">
        <ele>193.940477</ele>
        <time>2023-01-01T09:50:41.460Z</time>
      </trkpt>
      <trkpt lat="43.86174" lon="1.33431">
        <ele>193.9178</ele>
        <time>2023-01-01T09:50:43.472Z</time>
      </trkpt>
      <trkpt lat="43.86179" lon="1.33418">
        <ele>193.893996</ele>
        <time>2023-01-01T09:50:45.468Z</time>
      </trkpt>
      <trkpt lat="43.86186" lon="1.33408">
        <ele>193.870461</ele>
        <time>2023-01-01T09:50:47.458Z</time>
      </trkpt>
      <trkpt lat="43.86192" lon="1.33397">
        <ele>193.846302</ele>
        <time>2023-01-01T09:50:49.467Z</time>
      </trkpt>
      <trkpt lat="43.86198" lon="1.33383">
        <ele>193.820545</ele>
        <time>2023-01-01T09:50:51.473Z</time>
      </trkpt>
      <trkpt lat="43.86201" lon="1.33369">
        <ele>193.795167</ele>
        <time>2023-01-01T09:50:53.459Z</time>
      </trkpt>
      <trkpt lat="43.86205" lon="1.33354">
        <ele>193.768643</ele>
        <time>2023-01-01T09:50:55.471Z</time>
      </trkpt>
      <trkpt lat="43.86205" lon="1.3334">
        <ele>193.744908</ele>
        <time>2023-01-01T09:50:57.457Z</time>
      </trkpt>
      <trkpt lat="43.86206" lon="1.33325">
        <ele>193.719654</ele>
        <time>2023-01-01T09:50:59.463Z</time>
      </trkpt>
      <trkpt lat="43.86206" lon="1.33311">
        <ele>193.695289</ele>
        <time>2023-01-01T09:51:01.478Z</time>
      </trkpt>
      <trkpt lat="43.86208" lon="1.33297">
        <ele>193.670863</ele>
        <time>2023-01-01T09:51:03.467Z</time>
      </trkpt>
      <trkpt lat="43.86209" lon="1.33282">
        <ele>193.647714</ele>
        <time>2023-01-01T09:51:05.481Z</time>
      </trkpt>
      <trkpt lat="43.8621" lon="1.33268">
        <ele>193.626795</ele>
        <time>2023-01-01T09:51:07.484Z</time>
      </trkpt>
      <trkpt lat="43.86212" lon="1.33253">
        <ele>193.606017</ele>
        <time>2023-01-01T09:51:09.479Z</time>
      </trkpt>
      <trkpt lat="43.86215" lon="1.3324">
        <ele>193.585561</ele>
        <time>2023-01-01T09:51:11.483Z</time>
      </trkpt>
      <trkpt lat="43.86219" lon="1.33227">
        <ele>193.566371</ele>
        <time>2023-01-01T09:51:13.462Z</time>
      </trkpt>
      <trkpt lat="43.86222" lon="1.33215">
        <ele>193.546519</ele>
        <time>2023-01-01T09:51:15.478Z</time>
      </trkpt>
      <trkpt lat="43.86227" lon="1.33202">
        <ele>193.526585</ele>
        <time>2023-01-01T09:51:17.468Z</time>
      </trkpt>
      <trkpt lat="43.86231" lon="1.3319">
        <ele>193.506898</ele>
        <time>2023-01-01T09:51:19.479Z</time>
      </trkpt>
      <trkpt lat="43.86235" lon="1.33178">
        <ele>193.488708</ele>
        <time>2023-01-01T09:51:21.482Z</time>
      </trkpt>
      <trkpt lat="43.8624" lon="1.33162">
        <ele>193.463748</ele>
        <time>2023-01-01T09:51:24.482Z</time>
      </trkpt>
      <trkpt lat="43.86246" lon="1.33148">
        <ele>193.440157</ele>
        <time>2023-01-01T09:51:27.484Z</time>
      </trkpt>
      <trkpt lat="43.86251" lon="1.33134">
        <ele>193.418289</ele>
        <time>2023-01-01T09:51:30.488Z</time>
      </trkpt>
      <trkpt lat="43.86256" lon="1.33119">
        <ele>193.394186</ele>
        <time>2023-01-01T09:51:33.483Z</time>
      </trkpt>
      <trkpt lat="43.86263" lon="1.33104">
        <ele>193.368084</ele>
        <time>2023-01-01T09:51:36.477Z</time>
      </trkpt>
      <trkpt lat="43.8627" lon="1.33094">
        <ele>193.348375</ele>
        <time>2023-01-01T09:51:38.471Z</time>
      </trkpt>
      <trkpt lat="43.86278" lon="1.33086">
        <ele>193.329257</ele>
        <time>2023-01-01T09:51:40.465Z</time>
      </trkpt>
      <trkpt lat="43.86286" lon="1.33079">
        <ele>193.310909</ele>
        <time>2023-01-01T09:51:42.462Z</time>
      </trkpt>
      <trkpt lat="43.86295" lon="1.33067">
        <ele>193.351524</ele>
        <time>2023-01-01T09:51:45.487Z</time>
      </trkpt>
      <trkpt lat="43.86301" lon="1.33053">
        <ele>193.439485</ele>
        <time>2023-01-01T09:51:48.471Z</time>
      </trkpt>
      <trkpt lat="43.86298" lon="1.33039">
        <ele>193.5213</ele>
        <time>2023-01-01T09:51:51.466Z</time>
      </trkpt>
      <trkpt lat="43.8629" lon="1.33028">
        <ele>193.60768</ele>
        <time>2023-01-01T09:51:54.465Z</time>
      </trkpt>
      <trkpt lat="43.86282" lon="1.33016">
        <ele>193.697525</ele>
        <time>2023-01-01T09:51:57.480Z</time>
      </trkpt>
      <trkpt lat="43.86273" lon="1.33002">
        <ele>193.792576</ele>
        <time>2023-01-01T09:52:00.483Z</time>
      </trkpt>
      <trkpt lat="43.86266" lon="1.32989">
        <ele>193.888694</ele>
        <time>2023-01-01T09:52:03.465Z</time>
      </trkpt>
      <trkpt lat="43.8626" lon="1.32974">
        <ele>193.981723</ele>
        <time>2023-01-01T09:52:06.470Z</time>
      </trkpt>
      <trkpt lat="43.86254" lon="1.32959">
        <ele>194.07522</ele>
        <time>2023-01-01T09:52:09.480Z</time>
      </trkpt>
      <trkpt lat="43.86249" lon="1.32943">
        <ele>194.171695</ele>
        <time>2023-01-01T09:52:12.475Z</time>
      </trkpt>
      <trkpt lat="43.86243" lon="1.32926">
        <ele>194.2703</ele>
        <time>2023-01-01T09:52:15.484Z</time>
      </trkpt>
      <trkpt lat="43.86237" lon="1.3291">
        <ele>194.372599</ele>
        <time>2023-01-01T09:52:18.491Z</time>
      </trkpt>
      <trkpt lat="43.86233" lon="1.32898">
        <ele>194.447063</ele>
        <time>2023-01-01T09:52:20.467Z</time>
      </trkpt>
      <trkpt lat="43.86228" lon="1.32887">
        <ele>194.517211</ele>
        <time>2023-01-01T09:52:22.475Z</time>
      </trkpt>
      <trkpt lat="43.86223" lon="1.32876">
        <ele>194.588522</ele>
        <time>2023-01-01T09:52:24.480Z</time>
      </trkpt>
      <trkpt lat="43.86218" lon="1.32864">
        <ele>194.663767</ele>
        <time>2023-01-01T09:52:26.481Z</time>
      </trkpt>
      <trkpt lat="43.86212" lon="1.32853">
        <ele>194.709892</ele>
        <time>2023-01-01T09:52:28.479Z</time>
      </trkpt>
      <trkpt lat="43.86206" lon="1.32841">
        <ele>194.75338</ele>
        <time>2023-01-01T09:52:30.480Z</time>
      </trkpt>
      <trkpt lat="43.86201" lon="1.32831">
        <ele>194.795025</ele>
        <time>2023-01-01T09:52:32.467Z</time>
      </trkpt>
      <trkpt lat="43.86195" lon="1.32821">
        <ele>194.837566</ele>
        <time>2023-01-01T09:52:34.485Z</time>
      </trkpt>
      <trkpt lat="43.86189" lon="1.32811">
        <ele>194.878504</ele>
        <time>2023-01-01T09:52:36.479Z</time>
      </trkpt>
      <trkpt lat="43.86183" lon="1.32801">
        <ele>194.920225</ele>
        <time>2023-01-01T09:52:38.479Z</time>
      </trkpt>
      <trkpt lat="43.86177" lon="1.32791">
        <ele>194.962861</ele>
        <time>2023-01-01T09:52:40.471Z</time>
      </trkpt>
      <trkpt lat="43.86171" lon="1.32781">
        <ele>195.005366</ele>
        <time>2023-01-01T09:52:42.479Z</time>
      </trkpt>
      <trkpt lat="43.86165" lon="1.32771">
        <ele>195.048732</ele>
        <time>2023-01-01T09:52:44.476Z</time>
      </trkpt>
      <trkpt lat="43.86158" lon="1.3276">
        <ele>195.093338</ele>
        <time>2023-01-01T09:52:46.476Z</time>
      </trkpt>
      <trkpt lat="43.86152" lon="1.3275">
        <ele>195.137486</ele>
        <time>2023-01-01T09:52:48.483Z</time>
      </trkpt>
      <trkpt lat="43.86146" lon="1.32739">
        <ele>195.180178</ele>
        <time>2023-01-01T09:52:50.472Z</time>
      </trkpt>
      <trkpt lat="43.8614" lon="1.32729">
        <ele>195.22379</ele>
        <time>2023-01-01T09:52:52.468Z</time>
      </trkpt>
      <trkpt lat="43.86134" lon="1.32718">
        <ele>195.268113</ele>
        <time>2023-01-01T09:52:54.474Z</time>
      </trkpt>
      <trkpt lat="43.86127" lon="1.32707">
        <ele>195.312469</ele>
        <time>2023-01-01T09:52:56.482Z</time>
      </trkpt>
      <trkpt lat="43.86121" lon="1.32696">
        <ele>195.358308</ele>
        <time>2023-01-01T09:52:58.462Z</time>
      </trkpt>
      <trkpt lat="43.86116" lon="1.32685">
        <ele>195.402573</ele>
        <time>2023-01-01T09:53:00.479Z</time>
      </trkpt>
      <trkpt lat="43.86111" lon="1.32674">
        <ele>195.443989</ele>
        <time>2023-01-01T09:53:02.462Z</time>
      </trkpt>
      <trkpt lat="43.86104" lon="1.32659">
        <ele>195.469558</ele>
        <time>2023-01-01T09:53:05.484Z</time>
      </trkpt>
      <trkpt lat="43.86098" lon="1.32643">
        <ele>195.465036</ele>
        <time>2023-01-01T09:53:08.483Z</time>
      </trkpt>
      <trkpt lat="43.86094" lon="1.32632">
        <ele>195.461869</ele>
        <time>2023-01-01T09:53:10.481Z</time>
      </trkpt>
      <trkpt lat="43.8609" lon="1.32619">
        <ele>195.458482</ele>
        <time>2023-01-01T09:53:12.471Z</time>
      </trkpt>
      <trkpt lat="43.86086" lon="1.32607">
        <ele>195.455044</ele>
        <time>2023-01-01T09:53:14.481Z</time>
      </trkpt>
      <trkpt lat="43.86083" lon="1.32595">
        <ele>195.451867</ele>
        <time>2023-01-01T09:53:16.475Z</time>
      </trkpt>
      <trkpt lat="43.8608" lon="1.32583">
        <ele>195.448597</ele>
        <time>2023-01-01T09:53:18.483Z</time>
      </trkpt>
      <trkpt lat="43.86077" lon="1.3257">
        <ele>195.445356</ele>
        <time>2023-01-01T09:53:20.483Z</time>
      </trkpt>
      <trkpt lat="43.86074" lon="1.32557">
        <ele>195.44192</ele>
        <time>2023-01-01T09:53:22.464Z</time>
      </trkpt>
      <trkpt lat="43.8607" lon="1.32545">
        <ele>195.438508</ele>
        <time>2023-01-01T09:53:24.482Z</time>
      </trkpt>
      <trkpt lat="43.86066" lon="1.32526">
        <ele>195.433742</ele>
        <time>2023-01-01T09:53:27.483Z</time>
      </trkpt>
      <trkpt lat="43.86064" lon="1.32514">
        <ele>195.430431</ele>
        <time>2023-01-01T09:53:29.482Z</time>
      </trkpt>
      <trkpt lat="43.86062" lon="1.325">
        <ele>195.42709</ele>
        <time>2023-01-01T09:53:31.482Z</time>
      </trkpt>
      <trkpt lat="43.86061" lon="1.32487">
        <ele>195.423667</ele>
        <time>2023-01-01T09:53:33.479Z</time>
      </trkpt>
      <trkpt lat="43.86061" lon="1.32474">
        <ele>195.420324</ele>
        <time>2023-01-01T09:53:35.486Z</time>
      </trkpt>
      <trkpt lat="43.8606" lon="1.3246">
        <ele>195.416982</ele>
        <time>2023-01-01T09:53:37.480Z</time>
      </trkpt>
      <trkpt lat="43.86059" lon="1.32446">
        <ele>195.413339</ele>
        <time>2023-01-01T09:53:39.481Z</time>
      </trkpt>
      <trkpt lat="43.86059" lon="1.32432">
        <ele>195.409821</ele>
        <time>2023-01-01T09:53:41.480Z</time>
      </trkpt>
      <trkpt lat="43.86059" lon="1.32418">
        <ele>195.450683</ele>
        <time>2023-01-01T09:53:43.461Z</time>
      </trkpt>
      <trkpt lat="43.86058" lon="1.32404">
        <ele>195.498789</ele>
        <time>2023-01-01T09:53:45.478Z</time>
      </trkpt>
      <trkpt lat="43.86058" lon="1.32389">
        <ele>195.54973</ele>
        <time>2023-01-01T09:53:47.483Z</time>
      </trkpt>
      <trkpt lat="43.86057" lon="1.32373">
        <ele>195.602729</ele>
        <time>2023-01-01T09:53:49.482Z</time>
      </trkpt>
      <trkpt lat="43.86056" lon="1.32358">
        <ele>195.654768</ele>
        <time>2023-01-01T09:53:51.478Z</time>
      </trkpt>
      <trkpt lat="43.86055" lon="1.32343">
        <ele>195.706318</ele>
        <time>2023-01-01T09:53:53.467Z</time>
      </trkpt>
      <trkpt lat="43.86054" lon="1.32329">
        <ele>195.756689</ele>
        <time>2023-01-01T09:53:55.459Z</time>
      </trkpt>
      <trkpt lat="43.86053" lon="1.32314">
        <ele>195.808428</ele>
        <time>2023-01-01T09:53:57.487Z</time>
      </trkpt>
      <trkpt lat="43.86051" lon="1.32299">
        <ele>195.860264</ele>
        <time>2023-01-01T09:53:59.481Z</time>
      </trkpt>
      <trkpt lat="43.8605" lon="1.32284">
        <ele>195.911417</ele>
        <time>2023-01-01T09:54:01.458Z</time>
      </trkpt>
      <trkpt lat="43.86048" lon="1.32269">
        <ele>195.965161</ele>
        <time>2023-01-01T09:54:03.483Z</time>
      </trkpt>
      <trkpt lat="43.86046" lon="1.32254">
        <ele>196.01705</ele>
        <time>2023-01-01T09:54:05.482Z</time>
      </trkpt>
      <trkpt lat="43.86044" lon="1.32238">
        <ele>196.071268</ele>
        <time>2023-01-01T09:54:07.478Z</time>
      </trkpt>
      <trkpt lat="43.86041" lon="1.32223">
        <ele>196.126817</ele>
        <time>2023-01-01T09:54:09.479Z</time>
      </trkpt>
      <trkpt lat="43.86038" lon="1.32207">
        <ele>196.181863</ele>
        <time>2023-01-01T09:54:11.484Z</time>
      </trkpt>
      <trkpt lat="43.86035" lon="1.32192">
        <ele>196.234416</ele>
        <time>2023-01-01T09:54:13.471Z</time>
      </trkpt>
      <trkpt lat="43.86032" lon="1.32177">
        <ele>196.420546</ele>
        <time>2023-01-01T09:54:15.484Z</time>
      </trkpt>
      <trkpt lat="43.86029" lon="1.32162">
        <ele>196.796457</ele>
        <time>2023-01-01T09:54:17.481Z</time>
      </trkpt>
      <trkpt lat="43.86026" lon="1.32147">
        <ele>197.154658</ele>
        <time>2023-01-01T09:54:19.480Z</time>
      </trkpt>
      <trkpt lat="43.86023" lon="1.32133">
        <ele>197.508301</ele>
        <time>2023-01-01T09:54:21.485Z</time>
      </trkpt>
      <trkpt lat="43.86021" lon="1.32119">
        <ele>197.842567</ele>
        <time>2023-01-01T09:54:23.485Z</time>
      </trkpt>
      <trkpt lat="43.86018" lon="1.32107">
        <ele>198.144168</ele>
        <time>2023-01-01T09:54:25.483Z</time>
      </trkpt>
      <trkpt lat="43.86014" lon="1.3209">
        <ele>198.56662</ele>
        <time>2023-01-01T09:54:28.462Z</time>
      </trkpt>
      <trkpt lat="43.86011" lon="1.32075">
        <ele>198.938315</ele>
        <time>2023-01-01T09:54:31.482Z</time>
      </trkpt>
      <trkpt lat="43.86007" lon="1.32063">
        <ele>199.246158</ele>
        <time>2023-01-01T09:54:34.466Z</time>
      </trkpt>
      <trkpt lat="43.86002" lon="1.3205">
        <ele>199.59014</ele>
        <time>2023-01-01T09:54:38.474Z</time>
      </trkpt>
      <trkpt lat="43.85999" lon="1.32036">
        <ele>199.941715</ele>
        <time>2023-01-01T09:54:42.469Z</time>
      </trkpt>
      <trkpt lat="43.85996" lon="1.32022">
        <ele>200.296256</ele>
        <time>2023-01-01T09:54:46.462Z</time>
      </trkpt>
      <trkpt lat="43.85992" lon="1.32008">
        <ele>200.643442</ele>
        <time>2023-01-01T09:54:50.474Z</time>
      </trkpt>
      <trkpt lat="43.85989" lon="1.31995">
        <ele>200.965316</ele>
        <time>2023-01-01T09:54:54.478Z</time>
      </trkpt>
      <trkpt lat="43.85987" lon="1.31983">
        <ele>201.270408</ele>
        <time>2023-01-01T09:54:58.467Z</time>
      </trkpt>
      <trkpt lat="43.85984" lon="1.31971">
        <ele>201.565246</ele>
        <time>2023-01-01T09:55:02.482Z</time>
      </trkpt>
      <trkpt lat="43.8598" lon="1.31958">
        <ele>201.879039</ele>
        <time>2023-01-01T09:55:06.484Z</time>
      </trkpt>
      <trkpt lat="43.85977" lon="1.31946">
        <ele>202.165338</ele>
        <time>2023-01-01T09:55:10.464Z</time>
      </trkpt>
      <trkpt lat="43.85974" lon="1.31934">
        <ele>202.151861</ele>
        <time>2023-01-01T09:55:14.484Z</time>
      </trkpt>
      <trkpt lat="43.85971" lon="1.31922">
        <ele>202.138058</ele>
        <time>2023-01-01T09:55:18.481Z</time>
      </trkpt>
      <trkpt lat="43.85969" lon="1.31909">
        <ele>202.124118</ele>
        <time>2023-01-01T09:55:22.457Z</time>
      </trkpt>
      <trkpt lat="43.85964" lon="1.31896">
        <ele>202.108809</ele>
        <time>2023-01-01T09:55:26.473Z</time>
      </trkpt>
      <trkpt lat="43.85961" lon="1.31881">
        <ele>202.092362</ele>
        <time>2023-01-01T09:55:30.485Z</time>
      </trkpt>
      <trkpt lat="43.85957" lon="1.31867">
        <ele>202.076759</ele>
        <time>2023-01-01T09:55:34.464Z</time>
      </trkpt>
      <trkpt lat="43.85953" lon="1.31855">
        <ele>202.06215</ele>
        <time>2023-01-01T09:55:38.480Z</time>
      </trkpt>
      <trkpt lat="43.85949" lon="1.31839">
        <ele>202.044458</ele>
        <time>2023-01-01T09:55:42.462Z</time>
      </trkpt>
      <trkpt lat="43.85946" lon="1.31826">
        <ele>202.029617</ele>
        <time>2023-01-01T09:55:45.493Z</time>
      </trkpt>
      <trkpt lat="43.85943" lon="1.31812">
        <ele>202.013913</ele>
        <time>2023-01-01T09:55:48.461Z</time>
      </trkpt>
      <trkpt lat="43.85939" lon="1.31796">
        <ele>201.996572</ele>
        <time>2023-01-01T09:55:51.481Z</time>
      </trkpt>
      <trkpt lat="43.85935" lon="1.31781">
        <ele>201.980102</ele>
        <time>2023-01-01T09:55:54.482Z</time>
      </trkpt>
      <trkpt lat="43.85932" lon="1.31765">
        <ele>201.961973</ele>
        <time>2023-01-01T09:55:57.481Z</time>
      </trkpt>
      <trkpt lat="43.85929" lon="1.31751">
        <ele>201.947022</ele>
        <time>2023-01-01T09:55:59.481Z</time>
      </trkpt>
      <trkpt lat="43.85925" lon="1.31738">
        <ele>201.931774</ele>
        <time>2023-01-01T09:56:01.457Z</time>
      </trkpt>
      <trkpt lat="43.85922" lon="1.31724">
        <ele>201.915878</ele>
        <time>2023-01-01T09:56:03.478Z</time>
      </trkpt>
      <trkpt lat="43.85918" lon="1.31708">
        <ele>201.860879</ele>
        <time>2023-01-01T09:56:05.483Z</time>
      </trkpt>
      <trkpt lat="43.85914" lon="1.31692">
        <ele>201.636344</ele>
        <time>2023-01-01T09:56:07.476Z</time>
      </trkpt>
      <trkpt lat="43.85909" lon="1.31673">
        <ele>201.383071</ele>
        <time>2023-01-01T09:56:09.476Z</time>
      </trkpt>
      <trkpt lat="43.85904" lon="1.31653">
        <ele>201.111276</ele>
        <time>2023-01-01T09:56:11.484Z</time>
      </trkpt>
      <trkpt lat="43.85898" lon="1.31633">
        <ele>200.834074</ele>
        <time>2023-01-01T09:56:13.480Z</time>
      </trkpt>
      <trkpt lat="43.85892" lon="1.31611">
        <ele>200.539356</ele>
        <time>2023-01-01T09:56:15.481Z</time>
      </trkpt>
      <trkpt lat="43.85886" lon="1.31589">
        <ele>200.242365</ele>
        <time>2023-01-01T09:56:17.481Z</time>
      </trkpt>
      <trkpt lat="43.8588" lon="1.31567">
        <ele>199.943554</ele>
        <time>2023-01-01T09:56:19.467Z</time>
      </trkpt>
      <trkpt lat="43.85874" lon="1.31546">
        <ele>199.657384</ele>
        <time>2023-01-01T09:56:21.477Z</time>
      </trkpt>
      <trkpt lat="43.85869" lon="1.31527">
        <ele>199.393967</ele>
        <time>2023-01-01T09:56:23.482Z</time>
      </trkpt>
      <trkpt lat="43.85864" lon="1.31509">
        <ele>199.144258</ele>
        <time>2023-01-01T09:56:25.490Z</time>
      </trkpt>
      <trkpt lat="43.8586" lon="1.31492">
        <ele>198.918411</ele>
        <time>2023-01-01T09:56:27.478Z</time>
      </trkpt>
      <trkpt lat="43.85856" lon="1.31476">
        <ele>198.732477</ele>
        <time>2023-01-01T09:56:29.480Z</time>
      </trkpt>
      <trkpt lat="43.85852" lon="1.31461">
        <ele>198.774125</ele>
        <time>2023-01-01T09:56:31.479Z</time>
      </trkpt>
      <trkpt lat="43.85848" lon="1.31447">
        <ele>198.816041</ele>
        <time>2023-01-01T09:56:33.455Z</time>
      </trkpt>
      <trkpt lat="43.85844" lon="1.31432">
        <ele>198.858692</ele>
        <time>2023-01-01T09:56:35.458Z</time>
      </trkpt>
      <trkpt lat="43.85841" lon="1.31417">
        <ele>198.901749</ele>
        <time>2023-01-01T09:56:37.488Z</time>
      </trkpt>
      <trkpt lat="43.85837" lon="1.31403">
        <ele>198.944146</ele>
        <time>2023-01-01T09:56:39.468Z</time>
      </trkpt>
      <trkpt lat="43.85833" lon="1.31387">
        <ele>198.987815</ele>
        <time>2023-01-01T09:56:41.472Z</time>
      </trkpt>
      <trkpt lat="43.85829" lon="1.31373">
        <ele>199.029324</ele>
        <time>2023-01-01T09:56:43.472Z</time>
      </trkpt>
      <trkpt lat="43.85826" lon="1.31359">
        <ele>199.069805</ele>
        <time>2023-01-01T09:56:45.459Z</time>
      </trkpt>
      <trkpt lat="43.85821" lon="1.31345">
        <ele>199.111613</ele>
        <time>2023-01-01T09:56:47.463Z</time>
      </trkpt>
      <trkpt lat="43.85816" lon="1.31332">
        <ele>199.151131</ele>
        <time>2023-01-01T09:56:49.467Z</time>
      </trkpt>
      <trkpt lat="43.8581" lon="1.31319">
        <ele>199.193521</ele>
        <time>2023-01-01T09:56:51.470Z</time>
      </trkpt>
      <trkpt lat="43.85804" lon="1.31308">
        <ele>199.2331</ele>
        <time>2023-01-01T09:56:53.469Z</time>
      </trkpt>
      <trkpt lat="43.85797" lon="1.31296">
        <ele>199.274299</ele>
        <time>2023-01-01T09:56:55.470Z</time>
      </trkpt>
      <trkpt lat="43.8579" lon="1.31284">
        <ele>199.313838</ele>
        <time>2023-01-01T09:56:57.484Z</time>
      </trkpt>
      <trkpt lat="43.85783" lon="1.31273">
        <ele>199.355388</ele>
        <time>2023-01-01T09:56:59.482Z</time>
      </trkpt>
      <trkpt lat="43.85776" lon="1.31262">
        <ele>199.393406</ele>
        <time>2023-01-01T09:57:01.459Z</time>
      </trkpt>
      <trkpt lat="43.85769" lon="1.31252">
        <ele>199.415826</ele>
        <time>2023-01-01T09:57:03.481Z</time>
      </trkpt>
      <trkpt lat="43.85763" lon="1.31242">
        <ele>199.431227</ele>
        <time>2023-01-01T09:57:05.481Z</time>
      </trkpt>
      <trkpt lat="43.85758" lon="1.31232">
        <ele>199.445803</ele>
        <time>2023-01-01T09:57:07.466Z</time>
      </trkpt>
      <trkpt lat="43.85752" lon="1.31221">
        <ele>199.46189</ele>
        <time>2023-01-01T09:57:09.484Z</time>
      </trkpt>
      <trkpt lat="43.85746" lon="1.31209">
        <ele>199.478758</ele>
        <time>2023-01-01T09:57:11.476Z</time>
      </trkpt>
      <trkpt lat="43.85741" lon="1.31197">
        <ele>199.495226</ele>
        <time>2023-01-01T09:57:13.475Z</time>
      </trkpt>
      <trkpt lat="43.85737" lon="1.31183">
        <ele>199.512188</ele>
        <time>2023-01-01T09:57:15.461Z</time>
      </trkpt>
      <trkpt lat="43.85734" lon="1.3117">
        <ele>199.528431</ele>
        <time>2023-01-01T09:57:17.472Z</time>
      </trkpt>
      <trkpt lat="43.8573" lon="1.31157">
        <ele>199.544732</ele>
        <time>2023-01-01T09:57:19.483Z</time>
      </trkpt>
      <trkpt lat="43.85727" lon="1.31144">
        <ele>199.560696</ele>
        <time>2023-01-01T09:57:21.492Z</time>
      </trkpt>
      <trkpt lat="43.85723" lon="1.31131">
        <ele>199.577139</ele>
        <time>2023-01-01T09:57:23.482Z</time>
      </trkpt>
      <trkpt lat="43.85719" lon="1.31118">
        <ele>199.593838</ele>
        <time>2023-01-01T09:57:25.484Z</time>
      </trkpt>
      <trkpt lat="43.85716" lon="1.31105">
        <ele>199.609587</ele>
        <time>2023-01-01T09:57:27.483Z</time>
      </trkpt>
      <trkpt lat="43.85713" lon="1.31093">
        <ele>199.624953</ele>
        <time>2023-01-01T09:57:29.483Z</time>
      </trkpt>
      <trkpt lat="43.85709" lon="1.3108">
        <ele>199.640929</ele>
        <time>2023-01-01T09:57:31.480Z</time>
      </trkpt>
      <trkpt lat="43.85706" lon="1.31068">
        <ele>199.65629</ele>
        <time>2023-01-01T09:57:33.464Z</time>
      </trkpt>
      <trkpt lat="43.85702" lon="1.31056">
        <ele>199.671269</ele>
        <time>2023-01-01T09:57:35.481Z</time>
      </trkpt>
      <trkpt lat="43.85699" lon="1.31043">
        <ele>199.687344</ele>
        <time>2023-01-01T09:57:37.481Z</time>
      </trkpt>
      <trkpt lat="43.85696" lon="1.3103">
        <ele>199.66516</ele>
        <time>2023-01-01T09:57:39.483Z</time>
      </trkpt>
      <trkpt lat="43.85693" lon="1.31016">
        <ele>199.604263</ele>
        <time>2023-01-01T09:57:41.490Z</time>
      </trkpt>
      <trkpt lat="43.85689" lon="1.31003">
        <ele>199.541936</ele>
        <time>2023-01-01T09:57:43.481Z</time>
      </trkpt>
      <trkpt lat="43.85685" lon="1.30989">
        <ele>199.477757</ele>
        <time>2023-01-01T09:57:45.482Z</time>
      </trkpt>
      <trkpt lat="43.85681" lon="1.30974">
        <ele>199.406698</ele>
        <time>2023-01-01T09:57:47.480Z</time>
      </trkpt>
      <trkpt lat="43.85677" lon="1.30959">
        <ele>199.33889</ele>
        <time>2023-01-01T09:57:49.481Z</time>
      </trkpt>
      <trkpt lat="43.85673" lon="1.30944">
        <ele>199.271496</ele>
        <time>2023-01-01T09:57:51.476Z</time>
      </trkpt>
      <trkpt lat="43.85669" lon="1.3093">
        <ele>199.20512</ele>
        <time>2023-01-01T09:57:53.465Z</time>
      </trkpt>
      <trkpt lat="43.85666" lon="1.30915">
        <ele>199.136679</ele>
        <time>2023-01-01T09:57:55.480Z</time>
      </trkpt>
      <trkpt lat="43.85662" lon="1.309">
        <ele>199.068678</ele>
        <time>2023-01-01T09:57:57.483Z</time>
      </trkpt>
      <trkpt lat="43.85658" lon="1.30886">
        <ele>199.00332</ele>
        <time>2023-01-01T09:57:59.481Z</time>
      </trkpt>
      <trkpt lat="43.85654" lon="1.30872">
        <ele>198.938557</ele>
        <time>2023-01-01T09:58:01.485Z</time>
      </trkpt>
      <trkpt lat="43.85652" lon="1.30858">
        <ele>198.87674</ele>
        <time>2023-01-01T09:58:03.490Z</time>
      </trkpt>
      <trkpt lat="43.85649" lon="1.30844">
        <ele>198.814957</ele>
        <time>2023-01-01T09:58:05.469Z</time>
      </trkpt>
      <trkpt lat="43.85646" lon="1.30831">
        <ele>198.755494</ele>
        <time>2023-01-01T09:58:07.486Z</time>
      </trkpt>
      <trkpt lat="43.85644" lon="1.30818">
        <ele>198.698572</ele>
        <time>2023-01-01T09:58:09.481Z</time>
      </trkpt>
      <trkpt lat="43.85641" lon="1.30805">
        <ele>198.641024</ele>
        <time>2023-01-01T09:58:11.484Z</time>
      </trkpt>
      <trkpt lat="43.85639" lon="1.30793">
        <ele>198.467787</ele>
        <time>2023-01-01T09:58:13.488Z</time>
      </trkpt>
      <trkpt lat="43.85636" lon="1.3078">
        <ele>198.210464</ele>
        <time>2023-01-01T09:58:15.482Z</time>
      </trkpt>
      <trkpt lat="43.85634" lon="1.30767">
        <ele>197.956898</ele>
        <time>2023-01-01T09:58:17.480Z</time>
      </trkpt>
      <trkpt lat="43.85632" lon="1.30753">
        <ele>197.690373</ele>
        <time>2023-01-01T09:58:19.483Z</time>
      </trkpt>
      <trkpt lat="43.8563" lon="1.30739">
        <ele>197.432453</ele>
        <time>2023-01-01T09:58:21.479Z</time>
      </trkpt>
      <trkpt lat="43.85628" lon="1.30726">
        <ele>197.171753</ele>
        <time>2023-01-01T09:58:23.484Z</time>
      </trkpt>
      <trkpt lat="43.85627" lon="1.30712">
        <ele>196.905241</ele>
        <time>2023-01-01T09:58:25.487Z</time>
      </trkpt>
      <trkpt lat="43.85626" lon="1.30698">
        <ele>196.63908</ele>
        <time>2023-01-01T09:58:27.481Z</time>
      </trkpt>
      <trkpt lat="43.85625" lon="1.30683">
        <ele>196.359145</ele>
        <time>2023-01-01T09:58:29.481Z</time>
      </trkpt>
      <trkpt lat="43.85624" lon="1.30669">
        <ele>196.081453</ele>
        <time>2023-01-01T09:58:31.483Z</time>
      </trkpt>
      <trkpt lat="43.85624" lon="1.30654">
        <ele>195.805657</ele>
        <time>2023-01-01T09:58:33.464Z</time>
      </trkpt>
      <trkpt lat="43.85623" lon="1.30639">
        <ele>195.509132</ele>
        <time>2023-01-01T09:58:35.481Z</time>
      </trkpt>
      <trkpt lat="43.85622" lon="1.30624">
        <ele>195.220359</ele>
        <time>2023-01-01T09:58:37.485Z</time>
      </trkpt>
      <trkpt lat="43.8562" lon="1.30609">
        <ele>194.936556</ele>
        <time>2023-01-01T09:58:39.471Z</time>
      </trkpt>
      <trkpt lat="43.85619" lon="1.30595">
        <ele>194.66591</ele>
        <time>2023-01-01T09:58:41.481Z</time>
      </trkpt>
      <trkpt lat="43.85616" lon="1.30579">
        <ele>194.363668</ele>
        <time>2023-01-01T09:58:43.462Z</time>
      </trkpt>
      <trkpt lat="43.85613" lon="1.30564">
        <ele>194.065174</ele>
        <time>2023-01-01T09:58:45.483Z</time>
      </trkpt>
      <trkpt lat="43.8561" lon="1.30548">
        <ele>193.815954</ele>
        <time>2023-01-01T09:58:47.479Z</time>
      </trkpt>
      <trkpt lat="43.85607" lon="1.30533">
        <ele>193.660936</ele>
        <time>2023-01-01T09:58:49.483Z</time>
      </trkpt>
      <trkpt lat="43.85603" lon="1.30519">
        <ele>193.510092</ele>
        <time>2023-01-01T09:58:51.480Z</time>
      </trkpt>
      <trkpt lat="43.856" lon="1.30505">
        <ele>193.366693</ele>
        <time>2023-01-01T09:58:53.480Z</time>
      </trkpt>
      <trkpt lat="43.85596" lon="1.30492">
        <ele>193.221414</ele>
        <time>2023-01-01T09:58:55.488Z</time>
      </trkpt>
      <trkpt lat="43.85593" lon="1.30478">
        <ele>193.078951</ele>
        <time>2023-01-01T09:58:57.479Z</time>
      </trkpt>
      <trkpt lat="43.85589" lon="1.30465">
        <ele>192.943479</ele>
        <time>2023-01-01T09:58:59.489Z</time>
      </trkpt>
      <trkpt lat="43.85586" lon="1.30451">
        <ele>192.799613</ele>
        <time>2023-01-01T09:59:01.474Z</time>
      </trkpt>
      <trkpt lat="43.85582" lon="1.30439">
        <ele>192.664554</ele>
        <time>2023-01-01T09:59:03.480Z</time>
      </trkpt>
      <trkpt lat="43.85579" lon="1.30427">
        <ele>192.536066</ele>
        <time>2023-01-01T09:59:05.480Z</time>
      </trkpt>
      <trkpt lat="43.85576" lon="1.30414">
        <ele>192.405716</ele>
        <time>2023-01-01T09:59:07.482Z</time>
      </trkpt>
      <trkpt lat="43.85572" lon="1.30402">
        <ele>192.279529</ele>
        <time>2023-01-01T09:59:09.471Z</time>
      </trkpt>
      <trkpt lat="43.85568" lon="1.30385">
        <ele>192.098353</ele>
        <time>2023-01-01T09:59:12.488Z</time>
      </trkpt>
      <trkpt lat="43.85564" lon="1.30367">
        <ele>191.910822</ele>
        <time>2023-01-01T09:59:15.478Z</time>
      </trkpt>
      <trkpt lat="43.85561" lon="1.30354">
        <ele>191.781801</ele>
        <time>2023-01-01T09:59:17.481Z</time>
      </trkpt>
      <trkpt lat="43.85559" lon="1.30342">
        <ele>191.655494</ele>
        <time>2023-01-01T09:59:19.454Z</time>
      </trkpt>
      <trkpt lat="43.85557" lon="1.30329">
        <ele>191.526835</ele>
        <time>2023-01-01T09:59:21.492Z</time>
      </trkpt>
      <trkpt lat="43.85555" lon="1.30316">
        <ele>191.399327</ele>
        <time>2023-01-01T09:59:23.481Z</time>
      </trkpt>
      <trkpt lat="43.85553" lon="1.30303">
        <ele>191.32733</ele>
        <time>2023-01-01T09:59:25.485Z</time>
      </trkpt>
      <trkpt lat="43.85551" lon="1.30289">
        <ele>191.251302</ele>
        <time>2023-01-01T09:59:27.484Z</time>
      </trkpt>
      <trkpt lat="43.85549" lon="1.30275">
        <ele>191.173127</ele>
        <time>2023-01-01T09:59:29.481Z</time>
      </trkpt>
      <trkpt lat="43.85547" lon="1.3026">
        <ele>191.091043</ele>
        <time>2023-01-01T09:59:31.480Z</time>
      </trkpt>
      <trkpt lat="43.85545" lon="1.30245">
        <ele>191.008421</ele>
        <time>2023-01-01T09:59:33.481Z</time>
      </trkpt>
      <trkpt lat="43.85544" lon="1.30231">
        <ele>190.92699</ele>
        <time>2023-01-01T09:59:35.479Z</time>
      </trkpt>
      <trkpt lat="43.85542" lon="1.30216">
        <ele>190.844041</ele>
        <time>2023-01-01T09:59:37.482Z</time>
      </trkpt>
      <trkpt lat="43.8554" lon="1.30201">
        <ele>190.762239</ele>
        <time>2023-01-01T09:59:39.475Z</time>
      </trkpt>
      <trkpt lat="43.85539" lon="1.30186">
        <ele>190.67864</ele>
        <time>2023-01-01T09:59:41.480Z</time>
      </trkpt>
      <trkpt lat="43.85538" lon="1.3017">
        <ele>190.59307</ele>
        <time>2023-01-01T09:59:43.473Z</time>
      </trkpt>
      <trkpt lat="43.85536" lon="1.30154">
        <ele>190.501294</ele>
        <time>2023-01-01T09:59:45.480Z</time>
      </trkpt>
      <trkpt lat="43.85535" lon="1.30137">
        <ele>190.409747</ele>
        <time>2023-01-01T09:59:47.486Z</time>
      </trkpt>
      <trkpt lat="43.85533" lon="1.3012">
        <ele>190.315631</ele>
        <time>2023-01-01T09:59:49.486Z</time>
      </trkpt>
      <trkpt lat="43.8553" lon="1.30103">
        <ele>190.220442</ele>
        <time>2023-01-01T09:59:51.482Z</time>
      </trkpt>
      <trkpt lat="43.85527" lon="1.30087">
        <ele>190.128833</ele>
        <time>2023-01-01T09:59:53.461Z</time>
      </trkpt>
      <trkpt lat="43.85523" lon="1.30072">
        <ele>190.035149</ele>
        <time>2023-01-01T09:59:55.459Z</time>
      </trkpt>
      <trkpt lat="43.85517" lon="1.30059">
        <ele>189.921638</ele>
        <time>2023-01-01T09:59:57.458Z</time>
      </trkpt>
      <trkpt lat="43.85511" lon="1.30047">
        <ele>189.804579</ele>
        <time>2023-01-01T09:59:59.471Z</time>
      </trkpt>
      <trkpt lat="43.85505" lon="1.30036">
        <ele>189.687401</ele>
        <time>2023-01-01T10:00:01.478Z</time>
      </trkpt>
      <trkpt lat="43.85498" lon="1.30025">
        <ele>189.575664</ele>
        <time>2023-01-01T10:00:03.481Z</time>
      </trkpt>
      <trkpt lat="43.85492" lon="1.30014">
        <ele>189.46683</ele>
        <time>2023-01-01T10:00:05.472Z</time>
      </trkpt>
      <trkpt lat="43.85486" lon="1.30003">
        <ele>189.361862</ele>
        <time>2023-01-01T10:00:07.480Z</time>
      </trkpt>
      <trkpt lat="43.8548" lon="1.29993">
        <ele>189.260032</ele>
        <time>2023-01-01T10:00:09.466Z</time>
      </trkpt>
      <trkpt lat="43.85475" lon="1.29982">
        <ele>189.161345</ele>
        <time>2023-01-01T10:00:11.465Z</time>
      </trkpt>
      <trkpt lat="43.8547" lon="1.29972">
        <ele>189.061985</ele>
        <time>2023-01-01T10:00:13.481Z</time>
      </trkpt>
      <trkpt lat="43.85465" lon="1.29961">
        <ele>188.958825</ele>
        <time>2023-01-01T10:00:15.481Z</time>
      </trkpt>
      <trkpt lat="43.85459" lon="1.2995">
        <ele>188.851121</ele>
        <time>2023-01-01T10:00:17.480Z</time>
      </trkpt>
      <trkpt lat="43.85454" lon="1.29938">
        <ele>188.748936</ele>
        <time>2023-01-01T10:00:19.482Z</time>
      </trkpt>
      <trkpt lat="43.85449" lon="1.29927">
        <ele>188.643919</ele>
        <time>2023-01-01T10:00:21.485Z</time>
      </trkpt>
      <trkpt lat="43.85442" lon="1.29912">
        <ele>188.500478</ele>
        <time>2023-01-01T10:00:24.482Z</time>
      </trkpt>
      <trkpt lat="43.85435" lon="1.29897">
        <ele>188.358498</ele>
        <time>2023-01-01T10:00:27.484Z</time>
      </trkpt>
      <trkpt lat="43.85428" lon="1.29883">
        <ele>188.231872</ele>
        <time>2023-01-01T10:00:30.485Z</time>
      </trkpt>
      <trkpt lat="43.85422" lon="1.29869">
        <ele>188.101561</ele>
        <time>2023-01-01T10:00:33.467Z</time>
      </trkpt>
      <trkpt lat="43.85415" lon="1.29854">
        <ele>188.164388</ele>
        <time>2023-01-01T10:00:36.481Z</time>
      </trkpt>
      <trkpt lat="43.85411" lon="1.29837">
        <ele>188.24344</ele>
        <time>2023-01-01T10:00:39.461Z</time>
      </trkpt>
      <trkpt lat="43.85412" lon="1.29819">
        <ele>188.326361</ele>
        <time>2023-01-01T10:00:42.470Z</time>
      </trkpt>
      <trkpt lat="43.85415" lon="1.29806">
        <ele>188.386234</ele>
        <time>2023-01-01T10:00:44.465Z</time>
      </trkpt>
      <trkpt lat="43.8542" lon="1.29794">
        <ele>188.449223</ele>
        <time>2023-01-01T10:00:46.474Z</time>
      </trkpt>
      <trkpt lat="43.85425" lon="1.29782">
        <ele>188.508933</ele>
        <time>2023-01-01T10:00:48.483Z</time>
      </trkpt>
      <trkpt lat="43.8543" lon="1.29771">
        <ele>188.566521</ele>
        <time>2023-01-01T10:00:50.483Z</time>
      </trkpt>
      <trkpt lat="43.85435" lon="1.2976">
        <ele>188.628141</ele>
        <time>2023-01-01T10:00:52.484Z</time>
      </trkpt>
      <trkpt lat="43.8544" lon="1.29748">
        <ele>188.689554</ele>
        <time>2023-01-01T10:00:54.480Z</time>
      </trkpt>
      <trkpt lat="43.85445" lon="1.29736">
        <ele>188.752646</ele>
        <time>2023-01-01T10:00:56.480Z</time>
      </trkpt>
      <trkpt lat="43.85451" lon="1.29724">
        <ele>188.817209</ele>
        <time>2023-01-01T10:00:58.479Z</time>
      </trkpt>
      <trkpt lat="43.85456" lon="1.29711">
        <ele>188.882364</ele>
        <time>2023-01-01T10:01:00.483Z</time>
      </trkpt>
      <trkpt lat="43.85461" lon="1.29699">
        <ele>188.944828</ele>
        <time>2023-01-01T10:01:02.480Z</time>
      </trkpt>
      <trkpt lat="43.85466" lon="1.29688">
        <ele>189.002743</ele>
        <time>2023-01-01T10:01:04.464Z</time>
      </trkpt>
      <trkpt lat="43.85469" lon="1.29676">
        <ele>189.060909</ele>
        <time>2023-01-01T10:01:06.466Z</time>
      </trkpt>
      <trkpt lat="43.85469" lon="1.29659">
        <ele>189.137503</ele>
        <time>2023-01-01T10:01:09.473Z</time>
      </trkpt>
      <trkpt lat="43.85465" lon="1.29644">
        <ele>189.211094</ele>
        <time>2023-01-01T10:01:12.473Z</time>
      </trkpt>
      <trkpt lat="43.85458" lon="1.2963">
        <ele>189.320756</ele>
        <time>2023-01-01T10:01:15.480Z</time>
      </trkpt>
      <trkpt lat="43.8545" lon="1.29618">
        <ele>189.429752</ele>
        <time>2023-01-01T10:01:18.472Z</time>
      </trkpt>
      <trkpt lat="43.85442" lon="1.29606">
        <ele>189.529287</ele>
        <time>2023-01-01T10:01:21.470Z</time>
      </trkpt>
      <trkpt lat="43.85435" lon="1.29597">
        <ele>189.617176</ele>
        <time>2023-01-01T10:01:24.481Z</time>
      </trkpt>
      <trkpt lat="43.85427" lon="1.29587">
        <ele>189.714279</ele>
        <time>2023-01-01T10:01:27.492Z</time>
      </trkpt>
      <trkpt lat="43.8542" lon="1.29576">
        <ele>189.812028</ele>
        <time>2023-01-01T10:01:30.477Z</time>
      </trkpt>
      <trkpt lat="43.85412" lon="1.29565">
        <ele>189.915215</ele>
        <time>2023-01-01T10:01:33.485Z</time>
      </trkpt>
      <trkpt lat="43.85403" lon="1.29554">
        <ele>190.01755</ele>
        <time>2023-01-01T10:01:36.482Z</time>
      </trkpt>
      <trkpt lat="43.85395" lon="1.29542">
        <ele>190.12609</ele>
        <time>2023-01-01T10:01:39.484Z</time>
      </trkpt>
      <trkpt lat="43.85386" lon="1.2953">
        <ele>190.237562</ele>
        <time>2023-01-01T10:01:42.480Z</time>
      </trkpt>
      <trkpt lat="43.85378" lon="1.29517">
        <ele>190.349657</ele>
        <time>2023-01-01T10:01:45.481Z</time>
      </trkpt>
      <trkpt lat="43.85369" lon="1.29505">
        <ele>190.459715</ele>
        <time>2023-01-01T10:01:48.484Z</time>
      </trkpt>
      <trkpt lat="43.85361" lon="1.29492">
        <ele>190.572034</ele>
        <time>2023-01-01T10:01:51.485Z</time>
      </trkpt>
      <trkpt lat="43.85353" lon="1.29479">
        <ele>190.682571</ele>
        <time>2023-01-01T10:01:54.494Z</time>
      </trkpt>
      <trkpt lat="43.85346" lon="1.29468">
        <ele>190.779591</ele>
        <time>2023-01-01T10:01:57.461Z</time>
      </trkpt>
      <trkpt lat="43.85341" lon="1.29457">
        <ele>190.82136</ele>
        <time>2023-01-01T10:02:00.483Z</time>
      </trkpt>
      <trkpt lat="43.85335" lon="1.29445">
        <ele>190.802468</ele>
        <time>2023-01-01T10:02:03.481Z</time>
      </trkpt>
      <trkpt lat="43.85329" lon="1.29434">
        <ele>190.783676</ele>
        <time>2023-01-01T10:02:06.467Z</time>
      </trkpt>
      <trkpt lat="43.85324" lon="1.29422">
        <ele>190.765296</ele>
        <time>2023-01-01T10:02:09.483Z</time>
      </trkpt>
      <trkpt lat="43.85319" lon="1.29409">
        <ele>190.746253</ele>
        <time>2023-01-01T10:02:12.486Z</time>
      </trkpt>
      <trkpt lat="43.85319" lon="1.29394">
        <ele>190.727196</ele>
        <time>2023-01-01T10:02:15.465Z</time>
      </trkpt>
      <trkpt lat="43.85318" lon="1.29379">
        <ele>190.707053</ele>
        <time>2023-01-01T10:02:18.482Z</time>
      </trkpt>
      <trkpt lat="43.85312" lon="1.29365">
        <ele>190.686191</ele>
        <time>2023-01-01T10:02:21.471Z</time>
      </trkpt>
      <trkpt lat="43.85306" lon="1.29354">
        <ele>190.666745</ele>
        <time>2023-01-01T10:02:24.472Z</time>
      </trkpt>
      <trkpt lat="43.85299" lon="1.29343">
        <ele>190.64803</ele>
        <time>2023-01-01T10:02:27.460Z</time>
      </trkpt>
      <trkpt lat="43.85294" lon="1.29328">
        <ele>190.626876</ele>
        <time>2023-01-01T10:02:30.464Z</time>
      </trkpt>
      <trkpt lat="43.8529" lon="1.29311">
        <ele>190.602964</ele>
        <time>2023-01-01T10:02:33.465Z</time>
      </trkpt>
      <trkpt lat="43.85286" lon="1.29294">
        <ele>190.578879</ele>
        <time>2023-01-01T10:02:36.478Z</time>
      </trkpt>
      <trkpt lat="43.85281" lon="1.29278">
        <ele>190.555338</ele>
        <time>2023-01-01T10:02:39.480Z</time>
      </trkpt>
      <trkpt lat="43.85277" lon="1.29261">
        <ele>190.532113</ele>
        <time>2023-01-01T10:02:42.482Z</time>
      </trkpt>
      <trkpt lat="43.85275" lon="1.29246">
        <ele>190.511441</ele>
        <time>2023-01-01T10:02:45.464Z</time>
      </trkpt>
      <trkpt lat="43.85278" lon="1.29233">
        <ele>190.386046</ele>
        <time>2023-01-01T10:02:48.465Z</time>
      </trkpt>
      <trkpt lat="43.85278" lon="1.2922">
        <ele>189.959114</ele>
        <time>2023-01-01T10:02:51.475Z</time>
      </trkpt>
      <trkpt lat="43.8527" lon="1.29212">
        <ele>189.516962</ele>
        <time>2023-01-01T10:02:54.468Z</time>
      </trkpt>
      <trkpt lat="43.85259" lon="1.29211">
        <ele>189.027782</ele>
        <time>2023-01-01T10:02:57.466Z</time>
      </trkpt>
      <trkpt lat="43.85247" lon="1.2921">
        <ele>188.500946</ele>
        <time>2023-01-01T10:03:00.479Z</time>
      </trkpt>
      <trkpt lat="43.85236" lon="1.29208">
        <ele>187.98163</ele>
        <time>2023-01-01T10:03:03.483Z</time>
      </trkpt>
      <trkpt lat="43.85226" lon="1.29206">
        <ele>187.536041</ele>
        <time>2023-01-01T10:03:06.481Z</time>
      </trkpt>
      <trkpt lat="43.85216" lon="1.29204">
        <ele>187.075403</ele>
        <time>2023-01-01T10:03:09.481Z</time>
      </trkpt>
      <trkpt lat="43.85205" lon="1.29201">
        <ele>186.551409</ele>
        <time>2023-01-01T10:03:12.481Z</time>
      </trkpt>
      <trkpt lat="43.85194" lon="1.29195">
        <ele>186.027316</ele>
        <time>2023-01-01T10:03:15.466Z</time>
      </trkpt>
      <trkpt lat="43.85184" lon="1.29187">
        <ele>185.51892</ele>
        <time>2023-01-01T10:03:18.470Z</time>
      </trkpt>
      <trkpt lat="43.85176" lon="1.2918">
        <ele>185.073793</ele>
        <time>2023-01-01T10:03:21.481Z</time>
      </trkpt>
      <trkpt lat="43.85168" lon="1.29173">
        <ele>184.647544</ele>
        <time>2023-01-01T10:03:25.486Z</time>
      </trkpt>
      <trkpt lat="43.85169" lon="1.2916">
        <ele>184.199815</ele>
        <time>2023-01-01T10:03:30.466Z</time>
      </trkpt>
      <trkpt lat="43.85174" lon="1.29149">
        <ele>183.79048</ele>
        <time>2023-01-01T10:03:33.474Z</time>
      </trkpt>
      <trkpt lat="43.85179" lon="1.29138">
        <ele>183.36217</ele>
        <time>2023-01-01T10:03:36.481Z</time>
      </trkpt>
      <trkpt lat="43.85168" lon="1.2914">
        <ele>182.866776</ele>
        <time>2023-01-01T10:03:47.474Z</time>
      </trkpt>
      <trkpt lat="43.85161" lon="1.29151">
        <ele>182.388289</ele>
        <time>2023-01-01T10:03:50.481Z</time>
      </trkpt>
      <trkpt lat="43.85153" lon="1.2916">
        <ele>181.829331</ele>
        <time>2023-01-01T10:03:53.462Z</time>
      </trkpt>
      <trkpt lat="43.85144" lon="1.29164">
        <ele>181.322044</ele>
        <time>2023-01-01T10:03:56.470Z</time>
      </trkpt>
      <trkpt lat="43.85133" lon="1.2916">
        <ele>180.710246</ele>
        <time>2023-01-01T10:03:59.471Z</time>
      </trkpt>
      <trkpt lat="43.85126" lon="1.29148">
        <ele>180.093431</ele>
        <time>2023-01-01T10:04:02.467Z</time>
      </trkpt>
      <trkpt lat="43.85123" lon="1.29135">
        <ele>179.545833</ele>
        <time>2023-01-01T10:04:05.464Z</time>
      </trkpt>
      <trkpt lat="43.85125" lon="1.29121">
        <ele>178.967959</ele>
        <time>2023-01-01T10:04:08.458Z</time>
      </trkpt>
      <trkpt lat="43.85129" lon="1.29109">
        <ele>178.444116</ele>
        <time>2023-01-01T10:04:11.472Z</time>
      </trkpt>
      <trkpt lat="43.85133" lon="1.29098">
        <ele>177.933553</ele>
        <time>2023-01-01T10:04:14.482Z</time>
      </trkpt>
      <trkpt lat="43.85138" lon="1.29086">
        <ele>177.420521</ele>
        <time>2023-01-01T10:04:17.482Z</time>
      </trkpt>
      <trkpt lat="43.85141" lon="1.29072">
        <ele>176.80461</ele>
        <time>2023-01-01T10:04:20.466Z</time>
      </trkpt>
      <trkpt lat="43.85146" lon="1.29055">
        <ele>176.080157</ele>
        <time>2023-01-01T10:04:23.486Z</time>
      </trkpt>
      <trkpt lat="43.85149" lon="1.29042">
        <ele>175.535345</ele>
        <time>2023-01-01T10:04:25.477Z</time>
      </trkpt>
      <trkpt lat="43.85154" lon="1.29029">
        <ele>174.96478</ele>
        <time>2023-01-01T10:04:27.480Z</time>
      </trkpt>
      <trkpt lat="43.85158" lon="1.29015">
        <ele>174.390577</ele>
        <time>2023-01-01T10:04:29.480Z</time>
      </trkpt>
      <trkpt lat="43.85162" lon="1.29003">
        <ele>173.844137</ele>
        <time>2023-01-01T10:04:31.484Z</time>
      </trkpt>
      <trkpt lat="43.85166" lon="1.2899">
        <ele>173.276416</ele>
        <time>2023-01-01T10:04:33.492Z</time>
      </trkpt>
      <trkpt lat="43.8517" lon="1.28976">
        <ele>172.689063</ele>
        <time>2023-01-01T10:04:35.465Z</time>
      </trkpt>
      <trkpt lat="43.85174" lon="1.28964">
        <ele>172.110427</ele>
        <time>2023-01-01T10:04:37.487Z</time>
      </trkpt>
      <trkpt lat="43.85178" lon="1.28951">
        <ele>171.456726</ele>
        <time>2023-01-01T10:04:39.483Z</time>
      </trkpt>
      <trkpt lat="43.85181" lon="1.28939">
        <ele>170.82561</ele>
        <time>2023-01-01T10:04:41.483Z</time>
      </trkpt>
      <trkpt lat="43.85183" lon="1.28925">
        <ele>170.177648</ele>
        <time>2023-01-01T10:04:43.482Z</time>
      </trkpt>
      <trkpt lat="43.85185" lon="1.28912">
        <ele>169.556915</ele>
        <time>2023-01-01T10:04:45.461Z</time>
      </trkpt>
      <trkpt lat="43.85184" lon="1.28898">
        <ele>168.884754</ele>
        <time>2023-01-01T10:04:47.466Z</time>
      </trkpt>
      <trkpt lat="43.85181" lon="1.28884">
        <ele>168.199557</ele>
        <time>2023-01-01T10:04:49.474Z</time>
      </trkpt>
      <trkpt lat="43.85176" lon="1.28871">
        <ele>167.514037</ele>
        <time>2023-01-01T10:04:51.458Z</time>
      </trkpt>
      <trkpt lat="43.8517" lon="1.28857">
        <ele>166.685297</ele>
        <time>2023-01-01T10:04:53.463Z</time>
      </trkpt>
      <trkpt lat="43.85162" lon="1.28841">
        <ele>165.785078</ele>
        <time>2023-01-01T10:04:55.464Z</time>
      </trkpt>
      <trkpt lat="43.85153" lon="1.28825">
        <ele>164.827462</ele>
        <time>2023-01-01T10:04:57.489Z</time>
      </trkpt>
      <trkpt lat="43.85144" lon="1.28807">
        <ele>163.820025</ele>
        <time>2023-01-01T10:04:59.479Z</time>
      </trkpt>
      <trkpt lat="43.85135" lon="1.2879">
        <ele>162.781814</ele>
        <time>2023-01-01T10:05:01.464Z</time>
      </trkpt>
      <trkpt lat="43.85125" lon="1.28772">
        <ele>161.739908</ele>
        <time>2023-01-01T10:05:03.480Z</time>
      </trkpt>
      <trkpt lat="43.85116" lon="1.28754">
        <ele>160.717122</ele>
        <time>2023-01-01T10:05:05.478Z</time>
      </trkpt>
      <trkpt lat="43.85108" lon="1.28738">
        <ele>160.617941</ele>
        <time>2023-01-01T10:05:07.485Z</time>
      </trkpt>
      <trkpt lat="43.851" lon="1.28724">
        <ele>160.576891</ele>
        <time>2023-01-01T10:05:09.481Z</time>
      </trkpt>
      <trkpt lat="43.85094" lon="1.28712">
        <ele>160.542078</ele>
        <time>2023-01-01T10:05:11.483Z</time>
      </trkpt>
      <trkpt lat="43.85087" lon="1.287">
        <ele>160.505442</ele>
        <time>2023-01-01T10:05:14.479Z</time>
      </trkpt>
      <trkpt lat="43.8508" lon="1.28689">
        <ele>160.470045</ele>
        <time>2023-01-01T10:05:17.488Z</time>
      </trkpt>
      <trkpt lat="43.85073" lon="1.28678">
        <ele>160.434648</ele>
        <time>2023-01-01T10:05:20.484Z</time>
      </trkpt>
      <trkpt lat="43.85067" lon="1.28667">
        <ele>160.399978</ele>
        <time>2023-01-01T10:05:23.484Z</time>
      </trkpt>
      <trkpt lat="43.8506" lon="1.28657">
        <ele>160.366451</ele>
        <time>2023-01-01T10:05:26.484Z</time>
      </trkpt>
      <trkpt lat="43.85054" lon="1.28647">
        <ele>160.334577</ele>
        <time>2023-01-01T10:05:29.482Z</time>
      </trkpt>
      <trkpt lat="43.85048" lon="1.28637">
        <ele>160.302176</ele>
        <time>2023-01-01T10:05:32.481Z</time>
      </trkpt>
      <trkpt lat="43.85042" lon="1.28626">
        <ele>160.270097</ele>
        <time>2023-01-01T10:05:35.484Z</time>
      </trkpt>
      <trkpt lat="43.85037" lon="1.28613">
        <ele>160.235633</ele>
        <time>2023-01-01T10:05:39.489Z</time>
      </trkpt>
      <trkpt lat="43.85033" lon="1.286">
        <ele>160.20001</ele>
        <time>2023-01-01T10:05:48.470Z</time>
      </trkpt>
      <trkpt lat="43.85028" lon="1.28587">
        <ele>160.164966</ele>
        <time>2023-01-01T10:05:52.484Z</time>
      </trkpt>
      <trkpt lat="43.85025" lon="1.28574">
        <ele>160.133227</ele>
        <time>2023-01-01T10:05:57.483Z</time>
      </trkpt>
      <trkpt lat="43.85036" lon="1.2857">
        <ele>160.094763</ele>
        <time>2023-01-01T10:06:04.472Z</time>
      </trkpt>
      <trkpt lat="43.85048" lon="1.28565">
        <ele>160.10409</ele>
        <time>2023-01-01T10:06:07.474Z</time>
      </trkpt>
      <trkpt lat="43.85057" lon="1.2856">
        <ele>160.241411</ele>
        <time>2023-01-01T10:06:09.463Z</time>
      </trkpt>
      <trkpt lat="43.85066" lon="1.28557">
        <ele>160.370412</ele>
        <time>2023-01-01T10:06:11.482Z</time>
      </trkpt>
      <trkpt lat="43.85076" lon="1.28548">
        <ele>160.5343</ele>
        <time>2023-01-01T10:06:14.480Z</time>
      </trkpt>
      <trkpt lat="43.85087" lon="1.28542">
        <ele>160.691083</ele>
        <time>2023-01-01T10:06:17.491Z</time>
      </trkpt>
      <trkpt lat="43.85098" lon="1.28536">
        <ele>160.85461</ele>
        <time>2023-01-01T10:06:20.480Z</time>
      </trkpt>
      <trkpt lat="43.85108" lon="1.2853">
        <ele>161.003806</ele>
        <time>2023-01-01T10:06:23.491Z</time>
      </trkpt>
      <trkpt lat="43.85117" lon="1.28524">
        <ele>161.14802</ele>
        <time>2023-01-01T10:06:26.483Z</time>
      </trkpt>
      <trkpt lat="43.85128" lon="1.28517">
        <ele>161.305198</ele>
        <time>2023-01-01T10:06:30.482Z</time>
      </trkpt>
      <trkpt lat="43.85138" lon="1.2851">
        <ele>161.466464</ele>
        <time>2023-01-01T10:06:34.465Z</time>
      </trkpt>
      <trkpt lat="43.85147" lon="1.28505">
        <ele>161.597815</ele>
        <time>2023-01-01T10:06:37.466Z</time>
      </trkpt>
      <trkpt lat="43.85156" lon="1.28498">
        <ele>161.747877</ele>
        <time>2023-01-01T10:06:40.468Z</time>
      </trkpt>
      <trkpt lat="43.85168" lon="1.28491">
        <ele>161.916659</ele>
        <time>2023-01-01T10:06:43.481Z</time>
      </trkpt>
      <trkpt lat="43.85179" lon="1.28484">
        <ele>162.089717</ele>
        <time>2023-01-01T10:06:46.478Z</time>
      </trkpt>
      <trkpt lat="43.85188" lon="1.28478">
        <ele>162.218076</ele>
        <time>2023-01-01T10:06:48.472Z</time>
      </trkpt>
      <trkpt lat="43.85196" lon="1.28474">
        <ele>162.344945</ele>
        <time>2023-01-01T10:06:50.480Z</time>
      </trkpt>
      <trkpt lat="43.85206" lon="1.28469">
        <ele>162.487812</ele>
        <time>2023-01-01T10:06:52.482Z</time>
      </trkpt>
      <trkpt lat="43.85215" lon="1.28463">
        <ele>162.573378</ele>
        <time>2023-01-01T10:06:54.479Z</time>
      </trkpt>
      <trkpt lat="43.85224" lon="1.28457">
        <ele>162.633385</ele>
        <time>2023-01-01T10:06:56.483Z</time>
      </trkpt>
      <trkpt lat="43.85233" lon="1.28451">
        <ele>162.690616</ele>
        <time>2023-01-01T10:06:58.483Z</time>
      </trkpt>
      <trkpt lat="43.85245" lon="1.28442">
        <ele>162.767745</ele>
        <time>2023-01-01T10:07:01.486Z</time>
      </trkpt>
      <trkpt lat="43.85254" lon="1.28437">
        <ele>162.826723</ele>
        <time>2023-01-01T10:07:03.480Z</time>
      </trkpt>
      <trkpt lat="43.85262" lon="1.2843">
        <ele>162.879258</ele>
        <time>2023-01-01T10:07:05.483Z</time>
      </trkpt>
      <trkpt lat="43.8527" lon="1.28424">
        <ele>162.933299</ele>
        <time>2023-01-01T10:07:07.482Z</time>
      </trkpt>
      <trkpt lat="43.85279" lon="1.28419">
        <ele>162.988501</ele>
        <time>2023-01-01T10:07:09.481Z</time>
      </trkpt>
      <trkpt lat="43.85289" lon="1.28413">
        <ele>163.050952</ele>
        <time>2023-01-01T10:07:11.501Z</time>
      </trkpt>
      <trkpt lat="43.85298" lon="1.28408">
        <ele>163.10785</ele>
        <time>2023-01-01T10:07:13.482Z</time>
      </trkpt>
      <trkpt lat="43.85308" lon="1.28402">
        <ele>163.171722</ele>
        <time>2023-01-01T10:07:15.500Z</time>
      </trkpt>
      <trkpt lat="43.85317" lon="1.28395">
        <ele>163.229005</ele>
        <time>2023-01-01T10:07:17.484Z</time>
      </trkpt>
      <trkpt lat="43.85326" lon="1.28389">
        <ele>163.286572</ele>
        <time>2023-01-01T10:07:19.461Z</time>
      </trkpt>
      <trkpt lat="43.85335" lon="1.28383">
        <ele>163.34396</ele>
        <time>2023-01-01T10:07:21.490Z</time>
      </trkpt>
      <trkpt lat="43.85347" lon="1.28376">
        <ele>163.419008</ele>
        <time>2023-01-01T10:07:24.481Z</time>
      </trkpt>
      <trkpt lat="43.85357" lon="1.28369">
        <ele>163.48565</ele>
        <time>2023-01-01T10:07:27.481Z</time>
      </trkpt>
      <trkpt lat="43.85369" lon="1.28362">
        <ele>163.55961</ele>
        <time>2023-01-01T10:07:30.483Z</time>
      </trkpt>
      <trkpt lat="43.85377" lon="1.28356">
        <ele>163.491028</ele>
        <time>2023-01-01T10:07:32.481Z</time>
      </trkpt>
      <trkpt lat="43.85389" lon="1.28349">
        <ele>163.30918</ele>
        <time>2023-01-01T10:07:35.485Z</time>
      </trkpt>
      <trkpt lat="43.85398" lon="1.28343">
        <ele>163.173989</ele>
        <time>2023-01-01T10:07:37.481Z</time>
      </trkpt>
      <trkpt lat="43.85406" lon="1.28339">
        <ele>163.043414</ele>
        <time>2023-01-01T10:07:39.478Z</time>
      </trkpt>
      <trkpt lat="43.85415" lon="1.28333">
        <ele>162.904029</ele>
        <time>2023-01-01T10:07:41.477Z</time>
      </trkpt>
      <trkpt lat="43.85424" lon="1.28327">
        <ele>162.76636</ele>
        <time>2023-01-01T10:07:43.484Z</time>
      </trkpt>
      <trkpt lat="43.85433" lon="1.28322">
        <ele>162.630371</ele>
        <time>2023-01-01T10:07:45.491Z</time>
      </trkpt>
      <trkpt lat="43.85441" lon="1.28316">
        <ele>162.497849</ele>
        <time>2023-01-01T10:07:47.485Z</time>
      </trkpt>
      <trkpt lat="43.85453" lon="1.28309">
        <ele>162.319437</ele>
        <time>2023-01-01T10:07:50.486Z</time>
      </trkpt>
      <trkpt lat="43.85462" lon="1.28302">
        <ele>162.166174</ele>
        <time>2023-01-01T10:07:53.495Z</time>
      </trkpt>
      <trkpt lat="43.85471" lon="1.28296">
        <ele>162.030516</ele>
        <time>2023-01-01T10:07:56.481Z</time>
      </trkpt>
      <trkpt lat="43.85479" lon="1.2829">
        <ele>161.895411</ele>
        <time>2023-01-01T10:07:59.483Z</time>
      </trkpt>
      <trkpt lat="43.85488" lon="1.28284">
        <ele>161.763996</ele>
        <time>2023-01-01T10:08:02.482Z</time>
      </trkpt>
      <trkpt lat="43.85498" lon="1.28277">
        <ele>161.595019</ele>
        <time>2023-01-01T10:08:05.485Z</time>
      </trkpt>
      <trkpt lat="43.85511" lon="1.2827">
        <ele>161.406276</ele>
        <time>2023-01-01T10:08:08.483Z</time>
      </trkpt>
      <trkpt lat="43.85519" lon="1.28265">
        <ele>161.276571</ele>
        <time>2023-01-01T10:08:10.486Z</time>
      </trkpt>
      <trkpt lat="43.85529" lon="1.28258">
        <ele>161.113596</ele>
        <time>2023-01-01T10:08:13.483Z</time>
      </trkpt>
      <trkpt lat="43.85538" lon="1.28253">
        <ele>160.913675</ele>
        <time>2023-01-01T10:08:16.484Z</time>
      </trkpt>
      <trkpt lat="43.85547" lon="1.28246">
        <ele>160.556187</ele>
        <time>2023-01-01T10:08:20.459Z</time>
      </trkpt>
      <trkpt lat="43.85555" lon="1.28239">
        <ele>160.237687</ele>
        <time>2023-01-01T10:08:23.479Z</time>
      </trkpt>
      <trkpt lat="43.85565" lon="1.28234">
        <ele>159.898251</ele>
        <time>2023-01-01T10:08:26.482Z</time>
      </trkpt>
      <trkpt lat="43.85575" lon="1.28227">
        <ele>159.528198</ele>
        <time>2023-01-01T10:08:29.486Z</time>
      </trkpt>
      <trkpt lat="43.85584" lon="1.28221">
        <ele>159.156033</ele>
        <time>2023-01-01T10:08:32.484Z</time>
      </trkpt>
      <trkpt lat="43.85595" lon="1.28214">
        <ele>158.766562</ele>
        <time>2023-01-01T10:08:35.480Z</time>
      </trkpt>
      <trkpt lat="43.85605" lon="1.28207">
        <ele>158.39302</ele>
        <time>2023-01-01T10:08:38.482Z</time>
      </trkpt>
      <trkpt lat="43.85614" lon="1.282">
        <ele>158.041181</ele>
        <time>2023-01-01T10:08:41.482Z</time>
      </trkpt>
      <trkpt lat="43.85624" lon="1.28194">
        <ele>157.682211</ele>
        <time>2023-01-01T10:08:45.482Z</time>
      </trkpt>
      <trkpt lat="43.85623" lon="1.28193">
        <ele>157.668282</ele>
        <time>2023-01-01T10:08:52.453Z</time>
      </trkpt>
      <trkpt lat="43.85641" lon="1.28185">
        <ele>157.040219</ele>
        <time>2023-01-01T10:38:08.477Z</time>
      </trkpt>
      <trkpt lat="43.8565" lon="1.28179">
        <ele>156.693356</ele>
        <time>2023-01-01T10:38:12.467Z</time>
      </trkpt>
      <trkpt lat="43.85659" lon="1.28173">
        <ele>156.361134</ele>
        <time>2023-01-01T10:38:15.484Z</time>
      </trkpt>
      <trkpt lat="43.85669" lon="1.28166">
        <ele>155.98347</ele>
        <time>2023-01-01T10:38:18.488Z</time>
      </trkpt>
      <trkpt lat="43.85679" lon="1.28159">
        <ele>155.609144</ele>
        <time>2023-01-01T10:38:21.478Z</time>
      </trkpt>
      <trkpt lat="43.8569" lon="1.28153">
        <ele>155.218565</ele>
        <time>2023-01-01T10:38:24.487Z</time>
      </trkpt>
      <trkpt lat="43.85701" lon="1.28145">
        <ele>154.946276</ele>
        <time>2023-01-01T10:38:27.485Z</time>
      </trkpt>
      <trkpt lat="43.85712" lon="1.28138">
        <ele>154.93076</ele>
        <time>2023-01-01T10:38:30.478Z</time>
      </trkpt>
      <trkpt lat="43.85724" lon="1.2813">
        <ele>154.915057</ele>
        <time>2023-01-01T10:38:33.495Z</time>
      </trkpt>
      <trkpt lat="43.85735" lon="1.28122">
        <ele>154.90042</ele>
        <time>2023-01-01T10:38:36.483Z</time>
      </trkpt>
      <trkpt lat="43.85746" lon="1.28115">
        <ele>154.884464</ele>
        <time>2023-01-01T10:38:39.481Z</time>
      </trkpt>
      <trkpt lat="43.85758" lon="1.28107">
        <ele>154.868619</ele>
        <time>2023-01-01T10:38:42.492Z</time>
      </trkpt>
      <trkpt lat="43.8577" lon="1.28099">
        <ele>154.85265</ele>
        <time>2023-01-01T10:38:45.496Z</time>
      </trkpt>
      <trkpt lat="43.85778" lon="1.28093">
        <ele>154.841437</ele>
        <time>2023-01-01T10:38:47.483Z</time>
      </trkpt>
      <trkpt lat="43.85787" lon="1.28088">
        <ele>154.82978</ele>
        <time>2023-01-01T10:38:49.483Z</time>
      </trkpt>
      <trkpt lat="43.85799" lon="1.2808">
        <ele>154.813772</ele>
        <time>2023-01-01T10:38:52.485Z</time>
      </trkpt>
      <trkpt lat="43.85807" lon="1.28074">
        <ele>154.802227</ele>
        <time>2023-01-01T10:38:54.483Z</time>
      </trkpt>
      <trkpt lat="43.85816" lon="1.28068">
        <ele>154.791012</ele>
        <time>2023-01-01T10:38:56.492Z</time>
      </trkpt>
      <trkpt lat="43.85824" lon="1.28063">
        <ele>154.779906</ele>
        <time>2023-01-01T10:38:58.491Z</time>
      </trkpt>
      <trkpt lat="43.85836" lon="1.28054">
        <ele>154.76383</ele>
        <time>2023-01-01T10:39:01.485Z</time>
      </trkpt>
      <trkpt lat="43.85844" lon="1.28049">
        <ele>154.752387</ele>
        <time>2023-01-01T10:39:03.481Z</time>
      </trkpt>
      <trkpt lat="43.85857" lon="1.28042">
        <ele>154.736211</ele>
        <time>2023-01-01T10:39:06.473Z</time>
      </trkpt>
      <trkpt lat="43.85868" lon="1.28034">
        <ele>154.771772</ele>
        <time>2023-01-01T10:39:09.481Z</time>
      </trkpt>
      <trkpt lat="43.85879" lon="1.28026">
        <ele>154.821486</ele>
        <time>2023-01-01T10:39:12.475Z</time>
      </trkpt>
      <trkpt lat="43.85888" lon="1.2802">
        <ele>154.85754</ele>
        <time>2023-01-01T10:39:14.485Z</time>
      </trkpt>
      <trkpt lat="43.859" lon="1.28012">
        <ele>154.908092</ele>
        <time>2023-01-01T10:39:17.480Z</time>
      </trkpt>
      <trkpt lat="43.85908" lon="1.28006">
        <ele>154.945686</ele>
        <time>2023-01-01T10:39:19.480Z</time>
      </trkpt>
      <trkpt lat="43.85921" lon="1.27999">
        <ele>154.998085</ele>
        <time>2023-01-01T10:39:22.479Z</time>
      </trkpt>
      <trkpt lat="43.85933" lon="1.27992">
        <ele>155.050717</ele>
        <time>2023-01-01T10:39:25.484Z</time>
      </trkpt>
      <trkpt lat="43.85945" lon="1.27984">
        <ele>155.100084</ele>
        <time>2023-01-01T10:39:28.493Z</time>
      </trkpt>
      <trkpt lat="43.85956" lon="1.27977">
        <ele>155.14524</ele>
        <time>2023-01-01T10:39:31.492Z</time>
      </trkpt>
      <trkpt lat="43.85966" lon="1.27971">
        <ele>155.189822</ele>
        <time>2023-01-01T10:39:34.474Z</time>
      </trkpt>
      <trkpt lat="43.85976" lon="1.27964">
        <ele>155.230082</ele>
        <time>2023-01-01T10:39:37.498Z</time>
      </trkpt>
      <trkpt lat="43.85986" lon="1.27958">
        <ele>155.273721</ele>
        <time>2023-01-01T10:39:40.482Z</time>
      </trkpt>
      <trkpt lat="43.85997" lon="1.2795">
        <ele>155.322619</ele>
        <time>2023-01-01T10:39:43.485Z</time>
      </trkpt>
      <trkpt lat="43.86009" lon="1.27942">
        <ele>155.372923</ele>
        <time>2023-01-01T10:39:46.491Z</time>
      </trkpt>
      <trkpt lat="43.8602" lon="1.27934">
        <ele>155.423046</ele>
        <time>2023-01-01T10:39:49.482Z</time>
      </trkpt>
      <trkpt lat="43.8603" lon="1.27927">
        <ele>155.470129</ele>
        <time>2023-01-01T10:39:51.495Z</time>
      </trkpt>
      <trkpt lat="43.86039" lon="1.27922">
        <ele>155.515242</ele>
        <time>2023-01-01T10:39:53.487Z</time>
      </trkpt>
      <trkpt lat="43.86048" lon="1.27916">
        <ele>155.560928</ele>
        <time>2023-01-01T10:39:55.497Z</time>
      </trkpt>
      <trkpt lat="43.86056" lon="1.2791">
        <ele>155.603814</ele>
        <time>2023-01-01T10:39:57.490Z</time>
      </trkpt>
      <trkpt lat="43.86065" lon="1.27905">
        <ele>155.647617</ele>
        <time>2023-01-01T10:39:59.486Z</time>
      </trkpt>
      <trkpt lat="43.86073" lon="1.279">
        <ele>155.688839</ele>
        <time>2023-01-01T10:40:01.485Z</time>
      </trkpt>
      <trkpt lat="43.86082" lon="1.27896">
        <ele>155.730513</ele>
        <time>2023-01-01T10:40:03.489Z</time>
      </trkpt>
      <trkpt lat="43.86093" lon="1.27888">
        <ele>155.789503</ele>
        <time>2023-01-01T10:40:06.466Z</time>
      </trkpt>
      <trkpt lat="43.86105" lon="1.27881">
        <ele>155.846408</ele>
        <time>2023-01-01T10:40:09.482Z</time>
      </trkpt>
      <trkpt lat="43.86116" lon="1.27873">
        <ele>155.904839</ele>
        <time>2023-01-01T10:40:12.472Z</time>
      </trkpt>
      <trkpt lat="43.86124" lon="1.27867">
        <ele>155.946962</ele>
        <time>2023-01-01T10:40:14.486Z</time>
      </trkpt>
      <trkpt lat="43.86133" lon="1.27861">
        <ele>155.990363</ele>
        <time>2023-01-01T10:40:16.487Z</time>
      </trkpt>
      <trkpt lat="43.86141" lon="1.27855">
        <ele>156.032848</ele>
        <time>2023-01-01T10:40:18.481Z</time>
      </trkpt>
      <trkpt lat="43.86153" lon="1.27847">
        <ele>156.097264</ele>
        <time>2023-01-01T10:40:21.488Z</time>
      </trkpt>
      <trkpt lat="43.86166" lon="1.27839">
        <ele>156.160693</ele>
        <time>2023-01-01T10:40:24.482Z</time>
      </trkpt>
      <trkpt lat="43.86176" lon="1.27831">
        <ele>156.215021</ele>
        <time>2023-01-01T10:40:27.486Z</time>
      </trkpt>
      <trkpt lat="43.86186" lon="1.27822">
        <ele>156.271031</ele>
        <time>2023-01-01T10:40:30.489Z</time>
      </trkpt>
      <trkpt lat="43.86196" lon="1.27815">
        <ele>156.328072</ele>
        <time>2023-01-01T10:40:33.481Z</time>
      </trkpt>
      <trkpt lat="43.86205" lon="1.27807">
        <ele>156.382255</ele>
        <time>2023-01-01T10:40:36.484Z</time>
      </trkpt>
      <trkpt lat="43.86216" lon="1.27799">
        <ele>156.446824</ele>
        <time>2023-01-01T10:40:39.483Z</time>
      </trkpt>
      <trkpt lat="43.86227" lon="1.2779">
        <ele>156.512312</ele>
        <time>2023-01-01T10:40:42.490Z</time>
      </trkpt>
      <trkpt lat="43.86235" lon="1.27784">
        <ele>156.558411</ele>
        <time>2023-01-01T10:40:44.485Z</time>
      </trkpt>
      <trkpt lat="43.86243" lon="1.27777">
        <ele>156.605263</ele>
        <time>2023-01-01T10:40:46.492Z</time>
      </trkpt>
      <trkpt lat="43.86251" lon="1.27771">
        <ele>156.655761</ele>
        <time>2023-01-01T10:40:48.497Z</time>
      </trkpt>
      <trkpt lat="43.86263" lon="1.2776">
        <ele>156.726139</ele>
        <time>2023-01-01T10:40:51.487Z</time>
      </trkpt>
      <trkpt lat="43.86271" lon="1.27754">
        <ele>156.775558</ele>
        <time>2023-01-01T10:40:53.490Z</time>
      </trkpt>
      <trkpt lat="43.8628" lon="1.27747">
        <ele>156.82435</ele>
        <time>2023-01-01T10:40:55.492Z</time>
      </trkpt>
      <trkpt lat="43.86291" lon="1.27739">
        <ele>156.889465</ele>
        <time>2023-01-01T10:40:58.498Z</time>
      </trkpt>
      <trkpt lat="43.86302" lon="1.27731">
        <ele>156.953953</ele>
        <time>2023-01-01T10:41:01.496Z</time>
      </trkpt>
      <trkpt lat="43.86314" lon="1.27721">
        <ele>157.023031</ele>
        <time>2023-01-01T10:41:04.484Z</time>
      </trkpt>
      <trkpt lat="43.86324" lon="1.27713">
        <ele>157.0833</ele>
        <time>2023-01-01T10:41:07.485Z</time>
      </trkpt>
      <trkpt lat="43.86333" lon="1.27705">
        <ele>157.141113</ele>
        <time>2023-01-01T10:41:10.468Z</time>
      </trkpt>
      <trkpt lat="43.86343" lon="1.27697">
        <ele>157.180229</ele>
        <time>2023-01-01T10:41:13.483Z</time>
      </trkpt>
      <trkpt lat="43.86352" lon="1.2769">
        <ele>157.1933</ele>
        <time>2023-01-01T10:41:16.481Z</time>
      </trkpt>
      <trkpt lat="43.86361" lon="1.27682">
        <ele>157.207012</ele>
        <time>2023-01-01T10:41:19.485Z</time>
      </trkpt>
      <trkpt lat="43.86371" lon="1.27673">
        <ele>157.222539</ele>
        <time>2023-01-01T10:41:22.482Z</time>
      </trkpt>
      <trkpt lat="43.86382" lon="1.27664">
        <ele>157.238764</ele>
        <time>2023-01-01T10:41:25.497Z</time>
      </trkpt>
      <trkpt lat="43.86393" lon="1.27655">
        <ele>157.255046</ele>
        <time>2023-01-01T10:41:28.486Z</time>
      </trkpt>
      <trkpt lat="43.86403" lon="1.27647">
        <ele>157.270618</ele>
        <time>2023-01-01T10:41:31.487Z</time>
      </trkpt>
      <trkpt lat="43.86414" lon="1.27639">
        <ele>157.285808</ele>
        <time>2023-01-01T10:41:34.485Z</time>
      </trkpt>
      <trkpt lat="43.86423" lon="1.27632">
        <ele>157.299625</ele>
        <time>2023-01-01T10:41:37.487Z</time>
      </trkpt>
      <trkpt lat="43.86434" lon="1.27627">
        <ele>157.314361</ele>
        <time>2023-01-01T10:41:41.480Z</time>
      </trkpt>
      <trkpt lat="43.86444" lon="1.27627">
        <ele>157.326989</ele>
        <time>2023-01-01T10:41:45.480Z</time>
      </trkpt>
      <trkpt lat="43.86452" lon="1.2762">
        <ele>157.339127</ele>
        <time>2023-01-01T10:41:50.476Z</time>
      </trkpt>
      <trkpt lat="43.86457" lon="1.27607">
        <ele>157.352713</ele>
        <time>2023-01-01T10:41:56.470Z</time>
      </trkpt>
      <trkpt lat="43.86463" lon="1.27597">
        <ele>157.364812</ele>
        <time>2023-01-01T10:42:00.473Z</time>
      </trkpt>
      <trkpt lat="43.8647" lon="1.27586">
        <ele>157.378241</ele>
        <time>2023-01-01T10:42:05.494Z</time>
      </trkpt>
      <trkpt lat="43.86477" lon="1.27578">
        <ele>157.390115</ele>
        <time>2023-01-01T10:42:10.475Z</time>
      </trkpt>
      <trkpt lat="43.86467" lon="1.27578">
        <ele>157.403515</ele>
        <time>2023-01-01T10:42:24.470Z</time>
      </trkpt>
      <trkpt lat="43.86459" lon="1.27587">
        <ele>157.288566</ele>
        <time>2023-01-01T10:42:28.476Z</time>
      </trkpt>
      <trkpt lat="43.86451" lon="1.27595">
        <ele>157.128491</ele>
        <time>2023-01-01T10:42:33.493Z</time>
      </trkpt>
      <trkpt lat="43.86442" lon="1.27602">
        <ele>156.976785</ele>
        <time>2023-01-01T10:42:39.477Z</time>
      </trkpt>
      <trkpt lat="43.86436" lon="1.27592">
        <ele>156.828759</ele>
        <time>2023-01-01T10:42:51.469Z</time>
      </trkpt>
      <trkpt lat="43.86431" lon="1.2758">
        <ele>156.672697</ele>
        <time>2023-01-01T10:42:54.468Z</time>
      </trkpt>
      <trkpt lat="43.86425" lon="1.27562">
        <ele>156.453947</ele>
        <time>2023-01-01T10:42:57.468Z</time>
      </trkpt>
      <trkpt lat="43.86422" lon="1.27549">
        <ele>156.29861</ele>
        <time>2023-01-01T10:42:59.471Z</time>
      </trkpt>
      <trkpt lat="43.86419" lon="1.27534">
        <ele>156.131877</ele>
        <time>2023-01-01T10:43:01.492Z</time>
      </trkpt>
      <trkpt lat="43.86415" lon="1.2752">
        <ele>155.959647</ele>
        <time>2023-01-01T10:43:03.493Z</time>
      </trkpt>
      <trkpt lat="43.86412" lon="1.27507">
        <ele>155.803921</ele>
        <time>2023-01-01T10:43:05.482Z</time>
      </trkpt>
      <trkpt lat="43.86408" lon="1.27493">
        <ele>155.640336</ele>
        <time>2023-01-01T10:43:07.488Z</time>
      </trkpt>
      <trkpt lat="43.86406" lon="1.27476">
        <ele>155.444755</ele>
        <time>2023-01-01T10:43:10.484Z</time>
      </trkpt>
      <trkpt lat="43.86402" lon="1.27461">
        <ele>155.277477</ele>
        <time>2023-01-01T10:43:13.490Z</time>
      </trkpt>
      <trkpt lat="43.864" lon="1.27448">
        <ele>155.125348</ele>
        <time>2023-01-01T10:43:17.467Z</time>
      </trkpt>
      <trkpt lat="43.86396" lon="1.27432">
        <ele>154.933967</ele>
        <time>2023-01-01T10:43:21.494Z</time>
      </trkpt>
      <trkpt lat="43.86392" lon="1.27418">
        <ele>154.764578</ele>
        <time>2023-01-01T10:43:24.486Z</time>
      </trkpt>
      <trkpt lat="43.86389" lon="1.27402">
        <ele>154.6641</ele>
        <time>2023-01-01T10:43:27.486Z</time>
      </trkpt>
      <trkpt lat="43.86385" lon="1.27387">
        <ele>154.821192</ele>
        <time>2023-01-01T10:43:30.482Z</time>
      </trkpt>
      <trkpt lat="43.86382" lon="1.27375">
        <ele>154.945521</ele>
        <time>2023-01-01T10:43:33.486Z</time>
      </trkpt>
      <trkpt lat="43.86379" lon="1.27362">
        <ele>155.083027</ele>
        <time>2023-01-01T10:43:37.477Z</time>
      </trkpt>
      <trkpt lat="43.86378" lon="1.27348">
        <ele>155.21469</ele>
        <time>2023-01-01T10:43:41.467Z</time>
      </trkpt>
      <trkpt lat="43.86375" lon="1.27334">
        <ele>155.359623</ele>
        <time>2023-01-01T10:43:44.485Z</time>
      </trkpt>
      <trkpt lat="43.86371" lon="1.27318">
        <ele>155.530954</ele>
        <time>2023-01-01T10:43:47.481Z</time>
      </trkpt>
      <trkpt lat="43.86366" lon="1.27304">
        <ele>155.680638</ele>
        <time>2023-01-01T10:43:50.472Z</time>
      </trkpt>
      <trkpt lat="43.86362" lon="1.27293">
        <ele>155.81035</ele>
        <time>2023-01-01T10:43:53.481Z</time>
      </trkpt>
      <trkpt lat="43.86359" lon="1.2728">
        <ele>155.945344</ele>
        <time>2023-01-01T10:43:56.475Z</time>
      </trkpt>
      <trkpt lat="43.86355" lon="1.27265">
        <ele>156.098044</ele>
        <time>2023-01-01T10:43:59.493Z</time>
      </trkpt>
      <trkpt lat="43.86352" lon="1.27249">
        <ele>156.2692</ele>
        <time>2023-01-01T10:44:02.483Z</time>
      </trkpt>
      <trkpt lat="43.86349" lon="1.27236">
        <ele>156.396326</ele>
        <time>2023-01-01T10:44:04.498Z</time>
      </trkpt>
      <trkpt lat="43.86344" lon="1.2722">
        <ele>156.570716</ele>
        <time>2023-01-01T10:44:07.472Z</time>
      </trkpt>
      <trkpt lat="43.8634" lon="1.27206">
        <ele>156.72528</ele>
        <time>2023-01-01T10:44:10.482Z</time>
      </trkpt>
      <trkpt lat="43.86335" lon="1.27191">
        <ele>156.883323</ele>
        <time>2023-01-01T10:44:13.490Z</time>
      </trkpt>
      <trkpt lat="43.86331" lon="1.27176">
        <ele>157.038097</ele>
        <time>2023-01-01T10:44:16.478Z</time>
      </trkpt>
      <trkpt lat="43.86326" lon="1.27161">
        <ele>157.27616</ele>
        <time>2023-01-01T10:44:19.486Z</time>
      </trkpt>
      <trkpt lat="43.86321" lon="1.27143">
        <ele>157.563371</ele>
        <time>2023-01-01T10:44:22.481Z</time>
      </trkpt>
      <trkpt lat="43.86317" lon="1.27128">
        <ele>157.816874</ele>
        <time>2023-01-01T10:44:25.485Z</time>
      </trkpt>
      <trkpt lat="43.86312" lon="1.27111">
        <ele>158.092292</ele>
        <time>2023-01-01T10:44:28.465Z</time>
      </trkpt>
      <trkpt lat="43.86307" lon="1.27096">
        <ele>158.347327</ele>
        <time>2023-01-01T10:44:31.482Z</time>
      </trkpt>
      <trkpt lat="43.86301" lon="1.27083">
        <ele>158.591308</ele>
        <time>2023-01-01T10:44:34.484Z</time>
      </trkpt>
      <trkpt lat="43.86297" lon="1.27069">
        <ele>158.820084</ele>
        <time>2023-01-01T10:44:37.481Z</time>
      </trkpt>
      <trkpt lat="43.86292" lon="1.27054">
        <ele>159.085613</ele>
        <time>2023-01-01T10:44:40.482Z</time>
      </trkpt>
      <trkpt lat="43.86287" lon="1.27037">
        <ele>159.367137</ele>
        <time>2023-01-01T10:44:43.485Z</time>
      </trkpt>
      <trkpt lat="43.86282" lon="1.27021">
        <ele>159.63124</ele>
        <time>2023-01-01T10:44:46.471Z</time>
      </trkpt>
      <trkpt lat="43.86277" lon="1.27009">
        <ele>159.852734</ele>
        <time>2023-01-01T10:44:49.483Z</time>
      </trkpt>
      <trkpt lat="43.86274" lon="1.26996">
        <ele>160.063298</ele>
        <time>2023-01-01T10:44:52.486Z</time>
      </trkpt>
      <trkpt lat="43.8627" lon="1.26981">
        <ele>160.303732</ele>
        <time>2023-01-01T10:44:55.488Z</time>
      </trkpt>
      <trkpt lat="43.86268" lon="1.26965">
        <ele>160.554206</ele>
        <time>2023-01-01T10:44:58.490Z</time>
      </trkpt>
      <trkpt lat="43.86265" lon="1.2695">
        <ele>160.800174</ele>
        <time>2023-01-01T10:45:01.479Z</time>
      </trkpt>
      <trkpt lat="43.86266" lon="1.26936">
        <ele>160.831778</ele>
        <time>2023-01-01T10:45:07.483Z</time>
      </trkpt>
      <trkpt lat="43.86266" lon="1.26923">
        <ele>160.36653</ele>
        <time>2023-01-01T10:45:11.488Z</time>
      </trkpt>
      <trkpt lat="43.86259" lon="1.26911">
        <ele>159.861293</ele>
        <time>2023-01-01T10:45:15.483Z</time>
      </trkpt>
      <trkpt lat="43.86254" lon="1.26896">
        <ele>159.304236</ele>
        <time>2023-01-01T10:45:18.475Z</time>
      </trkpt>
      <trkpt lat="43.8625" lon="1.26881">
        <ele>158.750016</ele>
        <time>2023-01-01T10:45:21.476Z</time>
      </trkpt>
      <trkpt lat="43.86247" lon="1.26866">
        <ele>158.223129</ele>
        <time>2023-01-01T10:45:24.474Z</time>
      </trkpt>
      <trkpt lat="43.8624" lon="1.26852">
        <ele>157.644688</ele>
        <time>2023-01-01T10:45:27.472Z</time>
      </trkpt>
      <trkpt lat="43.86233" lon="1.26844">
        <ele>157.210359</ele>
        <time>2023-01-01T10:45:29.474Z</time>
      </trkpt>
      <trkpt lat="43.86225" lon="1.26835">
        <ele>156.742497</ele>
        <time>2023-01-01T10:45:31.480Z</time>
      </trkpt>
      <trkpt lat="43.86218" lon="1.26826">
        <ele>156.295426</ele>
        <time>2023-01-01T10:45:33.481Z</time>
      </trkpt>
      <trkpt lat="43.86211" lon="1.26816">
        <ele>155.813309</ele>
        <time>2023-01-01T10:45:35.490Z</time>
      </trkpt>
      <trkpt lat="43.86203" lon="1.26807">
        <ele>155.344171</ele>
        <time>2023-01-01T10:45:37.466Z</time>
      </trkpt>
      <trkpt lat="43.86197" lon="1.26796">
        <ele>154.863117</ele>
        <time>2023-01-01T10:45:39.485Z</time>
      </trkpt>
      <trkpt lat="43.8619" lon="1.26788">
        <ele>154.428637</ele>
        <time>2023-01-01T10:45:41.486Z</time>
      </trkpt>
      <trkpt lat="43.86182" lon="1.26777">
        <ele>153.920261</ele>
        <time>2023-01-01T10:45:44.484Z</time>
      </trkpt>
      <trkpt lat="43.86173" lon="1.26766">
        <ele>153.338172</ele>
        <time>2023-01-01T10:45:47.484Z</time>
      </trkpt>
      <trkpt lat="43.8617" lon="1.26754">
        <ele>152.907052</ele>
        <time>2023-01-01T10:45:49.470Z</time>
      </trkpt>
      <trkpt lat="43.86165" lon="1.26743">
        <ele>152.483966</ele>
        <time>2023-01-01T10:45:51.471Z</time>
      </trkpt>
      <trkpt lat="43.86158" lon="1.26732">
        <ele>152.156364</ele>
        <time>2023-01-01T10:45:53.478Z</time>
      </trkpt>
      <trkpt lat="43.86153" lon="1.26717">
        <ele>151.783716</ele>
        <time>2023-01-01T10:45:55.490Z</time>
      </trkpt>
      <trkpt lat="43.86149" lon="1.26703">
        <ele>151.43118</ele>
        <time>2023-01-01T10:45:57.471Z</time>
      </trkpt>
      <trkpt lat="43.86144" lon="1.26687">
        <ele>151.045985</ele>
        <time>2023-01-01T10:46:00.480Z</time>
      </trkpt>
      <trkpt lat="43.86139" lon="1.26672">
        <ele>150.671801</ele>
        <time>2023-01-01T10:46:03.481Z</time>
      </trkpt>
      <trkpt lat="43.86134" lon="1.26655">
        <ele>150.249307</ele>
        <time>2023-01-01T10:46:06.490Z</time>
      </trkpt>
      <trkpt lat="43.86131" lon="1.26643">
        <ele>149.947473</ele>
        <time>2023-01-01T10:46:08.492Z</time>
      </trkpt>
      <trkpt lat="43.86127" lon="1.26629">
        <ele>149.618866</ele>
        <time>2023-01-01T10:46:10.481Z</time>
      </trkpt>
      <trkpt lat="43.86122" lon="1.26615">
        <ele>149.275444</ele>
        <time>2023-01-01T10:46:12.484Z</time>
      </trkpt>
      <trkpt lat="43.86118" lon="1.266">
        <ele>148.904964</ele>
        <time>2023-01-01T10:46:14.494Z</time>
      </trkpt>
      <trkpt lat="43.86113" lon="1.26587">
        <ele>148.565693</ele>
        <time>2023-01-01T10:46:16.481Z</time>
      </trkpt>
      <trkpt lat="43.86108" lon="1.26572">
        <ele>148.187725</ele>
        <time>2023-01-01T10:46:18.490Z</time>
      </trkpt>
      <trkpt lat="43.86104" lon="1.26556">
        <ele>147.815147</ele>
        <time>2023-01-01T10:46:20.481Z</time>
      </trkpt>
      <trkpt lat="43.86099" lon="1.26541">
        <ele>147.431783</ele>
        <time>2023-01-01T10:46:22.481Z</time>
      </trkpt>
      <trkpt lat="43.86094" lon="1.26527">
        <ele>147.077529</ele>
        <time>2023-01-01T10:46:24.486Z</time>
      </trkpt>
      <trkpt lat="43.8609" lon="1.26512">
        <ele>146.829301</ele>
        <time>2023-01-01T10:46:26.490Z</time>
      </trkpt>
      <trkpt lat="43.86086" lon="1.26497">
        <ele>146.817595</ele>
        <time>2023-01-01T10:46:28.481Z</time>
      </trkpt>
      <trkpt lat="43.86082" lon="1.26482">
        <ele>146.806019</ele>
        <time>2023-01-01T10:46:30.485Z</time>
      </trkpt>
      <trkpt lat="43.86078" lon="1.26468">
        <ele>146.794622</ele>
        <time>2023-01-01T10:46:32.486Z</time>
      </trkpt>
      <trkpt lat="43.86073" lon="1.26454">
        <ele>146.783691</ele>
        <time>2023-01-01T10:46:34.486Z</time>
      </trkpt>
      <trkpt lat="43.86069" lon="1.26439">
        <ele>146.772211</ele>
        <time>2023-01-01T10:46:36.467Z</time>
      </trkpt>
      <trkpt lat="43.86066" lon="1.26425">
        <ele>146.761324</ele>
        <time>2023-01-01T10:46:38.482Z</time>
      </trkpt>
      <trkpt lat="43.86061" lon="1.26411">
        <ele>146.749831</ele>
        <time>2023-01-01T10:46:40.477Z</time>
      </trkpt>
      <trkpt lat="43.86057" lon="1.26396">
        <ele>146.738366</ele>
        <time>2023-01-01T10:46:42.492Z</time>
      </trkpt>
      <trkpt lat="43.86052" lon="1.26381">
        <ele>146.72659</ele>
        <time>2023-01-01T10:46:44.470Z</time>
      </trkpt>
      <trkpt lat="43.86048" lon="1.26367">
        <ele>146.714923</ele>
        <time>2023-01-01T10:46:46.485Z</time>
      </trkpt>
      <trkpt lat="43.86044" lon="1.26352">
        <ele>146.703836</ele>
        <time>2023-01-01T10:46:48.485Z</time>
      </trkpt>
      <trkpt lat="43.86041" lon="1.26338">
        <ele>146.692848</ele>
        <time>2023-01-01T10:46:50.481Z</time>
      </trkpt>
      <trkpt lat="43.86036" lon="1.26324">
        <ele>146.681513</ele>
        <time>2023-01-01T10:46:52.481Z</time>
      </trkpt>
      <trkpt lat="43.86033" lon="1.26309">
        <ele>146.670219</ele>
        <time>2023-01-01T10:46:54.459Z</time>
      </trkpt>
      <trkpt lat="43.86028" lon="1.26296">
        <ele>146.659557</ele>
        <time>2023-01-01T10:46:56.486Z</time>
      </trkpt>
      <trkpt lat="43.86024" lon="1.26282">
        <ele>146.652466</ele>
        <time>2023-01-01T10:46:58.480Z</time>
      </trkpt>
      <trkpt lat="43.8602" lon="1.26268">
        <ele>146.658913</ele>
        <time>2023-01-01T10:47:00.490Z</time>
      </trkpt>
      <trkpt lat="43.86016" lon="1.26254">
        <ele>146.665293</ele>
        <time>2023-01-01T10:47:02.499Z</time>
      </trkpt>
      <trkpt lat="43.86012" lon="1.2624">
        <ele>146.671827</ele>
        <time>2023-01-01T10:47:04.489Z</time>
      </trkpt>
      <trkpt lat="43.86007" lon="1.26226">
        <ele>146.678376</ele>
        <time>2023-01-01T10:47:06.489Z</time>
      </trkpt>
      <trkpt lat="43.86003" lon="1.26212">
        <ele>146.684896</ele>
        <time>2023-01-01T10:47:08.481Z</time>
      </trkpt>
      <trkpt lat="43.85998" lon="1.26197">
        <ele>146.691649</ele>
        <time>2023-01-01T10:47:10.485Z</time>
      </trkpt>
      <trkpt lat="43.85994" lon="1.26183">
        <ele>146.698238</ele>
        <time>2023-01-01T10:47:12.467Z</time>
      </trkpt>
      <trkpt lat="43.8599" lon="1.26168">
        <ele>146.704774</ele>
        <time>2023-01-01T10:47:14.484Z</time>
      </trkpt>
      <trkpt lat="43.85986" lon="1.26154">
        <ele>146.71148</ele>
        <time>2023-01-01T10:47:16.492Z</time>
      </trkpt>
      <trkpt lat="43.85982" lon="1.26139">
        <ele>146.7183</ele>
        <time>2023-01-01T10:47:18.481Z</time>
      </trkpt>
      <trkpt lat="43.85978" lon="1.26125">
        <ele>146.724702</ele>
        <time>2023-01-01T10:47:20.486Z</time>
      </trkpt>
      <trkpt lat="43.85974" lon="1.26111">
        <ele>146.730985</ele>
        <time>2023-01-01T10:47:22.481Z</time>
      </trkpt>
      <trkpt lat="43.8597" lon="1.26097">
        <ele>146.737636</ele>
        <time>2023-01-01T10:47:24.492Z</time>
      </trkpt>
      <trkpt lat="43.85966" lon="1.26082">
        <ele>146.744153</ele>
        <time>2023-01-01T10:47:26.473Z</time>
      </trkpt>
      <trkpt lat="43.85962" lon="1.26068">
        <ele>146.750741</ele>
        <time>2023-01-01T10:47:28.480Z</time>
      </trkpt>
      <trkpt lat="43.85958" lon="1.26054">
        <ele>146.75724</ele>
        <time>2023-01-01T10:47:30.486Z</time>
      </trkpt>
      <trkpt lat="43.85954" lon="1.2604">
        <ele>146.74577</ele>
        <time>2023-01-01T10:47:32.494Z</time>
      </trkpt>
      <trkpt lat="43.85949" lon="1.26025">
        <ele>146.732737</ele>
        <time>2023-01-01T10:47:34.486Z</time>
      </trkpt>
      <trkpt lat="43.85945" lon="1.26012">
        <ele>146.72098</ele>
        <time>2023-01-01T10:47:36.482Z</time>
      </trkpt>
      <trkpt lat="43.85941" lon="1.25998">
        <ele>146.709348</ele>
        <time>2023-01-01T10:47:38.490Z</time>
      </trkpt>
      <trkpt lat="43.85937" lon="1.25985">
        <ele>146.697656</ele>
        <time>2023-01-01T10:47:40.485Z</time>
      </trkpt>
      <trkpt lat="43.85933" lon="1.25972">
        <ele>146.686138</ele>
        <time>2023-01-01T10:47:42.474Z</time>
      </trkpt>
      <trkpt lat="43.8593" lon="1.25958">
        <ele>146.674571</ele>
        <time>2023-01-01T10:47:44.470Z</time>
      </trkpt>
      <trkpt lat="43.85926" lon="1.25944">
        <ele>146.662675</ele>
        <time>2023-01-01T10:47:46.489Z</time>
      </trkpt>
      <trkpt lat="43.85922" lon="1.25931">
        <ele>146.651375</ele>
        <time>2023-01-01T10:47:48.465Z</time>
      </trkpt>
      <trkpt lat="43.85918" lon="1.25918">
        <ele>146.639991</ele>
        <time>2023-01-01T10:47:50.473Z</time>
      </trkpt>
      <trkpt lat="43.85913" lon="1.25904">
        <ele>146.627708</ele>
        <time>2023-01-01T10:47:52.483Z</time>
      </trkpt>
      <trkpt lat="43.85909" lon="1.2589">
        <ele>146.615158</ele>
        <time>2023-01-01T10:47:54.482Z</time>
      </trkpt>
      <trkpt lat="43.85905" lon="1.25876">
        <ele>146.603376</ele>
        <time>2023-01-01T10:47:56.464Z</time>
      </trkpt>
      <trkpt lat="43.85901" lon="1.25862">
        <ele>146.591463</ele>
        <time>2023-01-01T10:47:58.483Z</time>
      </trkpt>
      <trkpt lat="43.85897" lon="1.25848">
        <ele>146.579229</ele>
        <time>2023-01-01T10:48:00.490Z</time>
      </trkpt>
      <trkpt lat="43.85893" lon="1.25835">
        <ele>146.567519</ele>
        <time>2023-01-01T10:48:02.485Z</time>
      </trkpt>
      <trkpt lat="43.85888" lon="1.25822">
        <ele>146.549037</ele>
        <time>2023-01-01T10:48:04.465Z</time>
      </trkpt>
      <trkpt lat="43.85885" lon="1.25809">
        <ele>146.485715</ele>
        <time>2023-01-01T10:48:06.486Z</time>
      </trkpt>
      <trkpt lat="43.85881" lon="1.25795">
        <ele>146.42043</ele>
        <time>2023-01-01T10:48:08.492Z</time>
      </trkpt>
      <trkpt lat="43.85877" lon="1.25782">
        <ele>146.356579</ele>
        <time>2023-01-01T10:48:10.485Z</time>
      </trkpt>
      <trkpt lat="43.85874" lon="1.25769">
        <ele>146.29303</ele>
        <time>2023-01-01T10:48:12.487Z</time>
      </trkpt>
      <trkpt lat="43.8587" lon="1.25757">
        <ele>146.233593</ele>
        <time>2023-01-01T10:48:14.482Z</time>
      </trkpt>
      <trkpt lat="43.85867" lon="1.25744">
        <ele>146.170495</ele>
        <time>2023-01-01T10:48:16.480Z</time>
      </trkpt>
      <trkpt lat="43.85863" lon="1.25731">
        <ele>146.107174</ele>
        <time>2023-01-01T10:48:18.492Z</time>
      </trkpt>
      <trkpt lat="43.8586" lon="1.25718">
        <ele>146.043624</ele>
        <time>2023-01-01T10:48:20.487Z</time>
      </trkpt>
      <trkpt lat="43.85855" lon="1.25705">
        <ele>145.976516</ele>
        <time>2023-01-01T10:48:22.493Z</time>
      </trkpt>
      <trkpt lat="43.85852" lon="1.25691">
        <ele>145.910388</ele>
        <time>2023-01-01T10:48:24.478Z</time>
      </trkpt>
      <trkpt lat="43.85848" lon="1.25677">
        <ele>145.844292</ele>
        <time>2023-01-01T10:48:26.481Z</time>
      </trkpt>
      <trkpt lat="43.85843" lon="1.25663">
        <ele>145.774432</ele>
        <time>2023-01-01T10:48:28.484Z</time>
      </trkpt>
      <trkpt lat="43.85839" lon="1.25649">
        <ele>145.705406</ele>
        <time>2023-01-01T10:48:30.493Z</time>
      </trkpt>
      <trkpt lat="43.85835" lon="1.25636">
        <ele>145.637714</ele>
        <time>2023-01-01T10:48:32.462Z</time>
      </trkpt>
      <trkpt lat="43.85831" lon="1.25622">
        <ele>145.569185</ele>
        <time>2023-01-01T10:48:34.471Z</time>
      </trkpt>
      <trkpt lat="43.85827" lon="1.25608">
        <ele>145.502455</ele>
        <time>2023-01-01T10:48:36.496Z</time>
      </trkpt>
      <trkpt lat="43.85823" lon="1.25594">
        <ele>145.433558</ele>
        <time>2023-01-01T10:48:38.484Z</time>
      </trkpt>
      <trkpt lat="43.85819" lon="1.2558">
        <ele>145.352139</ele>
        <time>2023-01-01T10:48:40.484Z</time>
      </trkpt>
      <trkpt lat="43.85814" lon="1.25566">
        <ele>145.268671</ele>
        <time>2023-01-01T10:48:42.480Z</time>
      </trkpt>
      <trkpt lat="43.8581" lon="1.25552">
        <ele>145.187082</ele>
        <time>2023-01-01T10:48:44.482Z</time>
      </trkpt>
      <trkpt lat="43.85807" lon="1.25538">
        <ele>145.106829</ele>
        <time>2023-01-01T10:48:46.484Z</time>
      </trkpt>
      <trkpt lat="43.85802" lon="1.25525">
        <ele>145.027147</ele>
        <time>2023-01-01T10:48:48.494Z</time>
      </trkpt>
      <trkpt lat="43.85799" lon="1.2551">
        <ele>144.945885</ele>
        <time>2023-01-01T10:48:50.493Z</time>
      </trkpt>
      <trkpt lat="43.85795" lon="1.25497">
        <ele>144.864295</ele>
        <time>2023-01-01T10:48:52.486Z</time>
      </trkpt>
      <trkpt lat="43.8579" lon="1.25482">
        <ele>144.780185</ele>
        <time>2023-01-01T10:48:54.484Z</time>
      </trkpt>
      <trkpt lat="43.85786" lon="1.25468">
        <ele>144.69658</ele>
        <time>2023-01-01T10:48:56.485Z</time>
      </trkpt>
      <trkpt lat="43.85783" lon="1.25455">
        <ele>144.620146</ele>
        <time>2023-01-01T10:48:58.490Z</time>
      </trkpt>
      <trkpt lat="43.85779" lon="1.25441">
        <ele>144.541355</ele>
        <time>2023-01-01T10:49:00.481Z</time>
      </trkpt>
      <trkpt lat="43.85775" lon="1.25428">
        <ele>144.461876</ele>
        <time>2023-01-01T10:49:02.481Z</time>
      </trkpt>
      <trkpt lat="43.8577" lon="1.25414">
        <ele>144.379594</ele>
        <time>2023-01-01T10:49:04.496Z</time>
      </trkpt>
      <trkpt lat="43.85766" lon="1.25399">
        <ele>144.294628</ele>
        <time>2023-01-01T10:49:06.497Z</time>
      </trkpt>
      <trkpt lat="43.85761" lon="1.25384">
        <ele>144.205572</ele>
        <time>2023-01-01T10:49:08.486Z</time>
      </trkpt>
      <trkpt lat="43.85758" lon="1.2537">
        <ele>144.122771</ele>
        <time>2023-01-01T10:49:10.495Z</time>
      </trkpt>
      <trkpt lat="43.85754" lon="1.25355">
        <ele>144.075535</ele>
        <time>2023-01-01T10:49:12.486Z</time>
      </trkpt>
      <trkpt lat="43.8575" lon="1.2534">
        <ele>144.094153</ele>
        <time>2023-01-01T10:49:14.485Z</time>
      </trkpt>
      <trkpt lat="43.85745" lon="1.25326">
        <ele>144.112541</ele>
        <time>2023-01-01T10:49:16.477Z</time>
      </trkpt>
      <trkpt lat="43.8574" lon="1.25311">
        <ele>144.132015</ele>
        <time>2023-01-01T10:49:18.488Z</time>
      </trkpt>
      <trkpt lat="43.85736" lon="1.25295">
        <ele>144.151207</ele>
        <time>2023-01-01T10:49:20.488Z</time>
      </trkpt>
      <trkpt lat="43.85732" lon="1.2528">
        <ele>144.169633</ele>
        <time>2023-01-01T10:49:22.482Z</time>
      </trkpt>
      <trkpt lat="43.85727" lon="1.25265">
        <ele>144.188511</ele>
        <time>2023-01-01T10:49:24.474Z</time>
      </trkpt>
      <trkpt lat="43.85722" lon="1.2525">
        <ele>144.207685</ele>
        <time>2023-01-01T10:49:26.487Z</time>
      </trkpt>
      <trkpt lat="43.85718" lon="1.25236">
        <ele>144.226142</ele>
        <time>2023-01-01T10:49:28.492Z</time>
      </trkpt>
      <trkpt lat="43.85713" lon="1.25221">
        <ele>144.24459</ele>
        <time>2023-01-01T10:49:30.484Z</time>
      </trkpt>
      <trkpt lat="43.85709" lon="1.25207">
        <ele>144.262466</ele>
        <time>2023-01-01T10:49:32.462Z</time>
      </trkpt>
      <trkpt lat="43.85705" lon="1.25192">
        <ele>144.281453</ele>
        <time>2023-01-01T10:49:34.495Z</time>
      </trkpt>
      <trkpt lat="43.85701" lon="1.25177">
        <ele>144.299552</ele>
        <time>2023-01-01T10:49:36.486Z</time>
      </trkpt>
      <trkpt lat="43.85696" lon="1.25162">
        <ele>144.318707</ele>
        <time>2023-01-01T10:49:38.485Z</time>
      </trkpt>
      <trkpt lat="43.85692" lon="1.25148">
        <ele>144.336962</ele>
        <time>2023-01-01T10:49:40.494Z</time>
      </trkpt>
      <trkpt lat="43.85688" lon="1.25134">
        <ele>144.354518</ele>
        <time>2023-01-01T10:49:42.481Z</time>
      </trkpt>
      <trkpt lat="43.85684" lon="1.2512">
        <ele>144.317435</ele>
        <time>2023-01-01T10:49:44.495Z</time>
      </trkpt>
      <trkpt lat="43.8568" lon="1.25106">
        <ele>144.260254</ele>
        <time>2023-01-01T10:49:46.489Z</time>
      </trkpt>
      <trkpt lat="43.85676" lon="1.25093">
        <ele>144.205082</ele>
        <time>2023-01-01T10:49:48.482Z</time>
      </trkpt>
      <trkpt lat="43.85672" lon="1.2508">
        <ele>144.150435</ele>
        <time>2023-01-01T10:49:50.485Z</time>
      </trkpt>
      <trkpt lat="43.85669" lon="1.25065">
        <ele>144.093433</ele>
        <time>2023-01-01T10:49:52.485Z</time>
      </trkpt>
      <trkpt lat="43.85665" lon="1.25051">
        <ele>144.034116</ele>
        <time>2023-01-01T10:49:54.491Z</time>
      </trkpt>
      <trkpt lat="43.8566" lon="1.25038">
        <ele>143.978445</ele>
        <time>2023-01-01T10:49:56.482Z</time>
      </trkpt>
      <trkpt lat="43.85656" lon="1.25025">
        <ele>143.925238</ele>
        <time>2023-01-01T10:49:58.491Z</time>
      </trkpt>
      <trkpt lat="43.85652" lon="1.25011">
        <ele>143.868007</ele>
        <time>2023-01-01T10:50:00.487Z</time>
      </trkpt>
      <trkpt lat="43.85648" lon="1.24996">
        <ele>143.805978</ele>
        <time>2023-01-01T10:50:02.491Z</time>
      </trkpt>
      <trkpt lat="43.85644" lon="1.24982">
        <ele>143.748395</ele>
        <time>2023-01-01T10:50:04.476Z</time>
      </trkpt>
      <trkpt lat="43.85639" lon="1.24969">
        <ele>143.693749</ele>
        <time>2023-01-01T10:50:06.486Z</time>
      </trkpt>
      <trkpt lat="43.85636" lon="1.24955">
        <ele>143.637856</ele>
        <time>2023-01-01T10:50:08.486Z</time>
      </trkpt>
      <trkpt lat="43.85632" lon="1.24942">
        <ele>143.581535</ele>
        <time>2023-01-01T10:50:10.485Z</time>
      </trkpt>
      <trkpt lat="43.85628" lon="1.24929">
        <ele>143.530196</ele>
        <time>2023-01-01T10:50:12.467Z</time>
      </trkpt>
      <trkpt lat="43.85624" lon="1.24912">
        <ele>143.460466</ele>
        <time>2023-01-01T10:50:15.484Z</time>
      </trkpt>
      <trkpt lat="43.85619" lon="1.24894">
        <ele>143.387136</ele>
        <time>2023-01-01T10:50:18.487Z</time>
      </trkpt>
      <trkpt lat="43.85615" lon="1.24882">
        <ele>143.341836</ele>
        <time>2023-01-01T10:50:20.480Z</time>
      </trkpt>
      <trkpt lat="43.85611" lon="1.2487">
        <ele>143.296074</ele>
        <time>2023-01-01T10:50:22.487Z</time>
      </trkpt>
      <trkpt lat="43.85607" lon="1.24859">
        <ele>143.251365</ele>
        <time>2023-01-01T10:50:24.483Z</time>
      </trkpt>
      <trkpt lat="43.85604" lon="1.24846">
        <ele>143.202405</ele>
        <time>2023-01-01T10:50:26.491Z</time>
      </trkpt>
      <trkpt lat="43.85599" lon="1.24833">
        <ele>143.15174</ele>
        <time>2023-01-01T10:50:28.496Z</time>
      </trkpt>
      <trkpt lat="43.85596" lon="1.24821">
        <ele>143.105316</ele>
        <time>2023-01-01T10:50:30.482Z</time>
      </trkpt>
      <trkpt lat="43.85591" lon="1.24803">
        <ele>143.035812</ele>
        <time>2023-01-01T10:50:33.486Z</time>
      </trkpt>
      <trkpt lat="43.85586" lon="1.24791">
        <ele>142.989982</ele>
        <time>2023-01-01T10:50:35.487Z</time>
      </trkpt>
      <trkpt lat="43.85582" lon="1.24777">
        <ele>142.935629</ele>
        <time>2023-01-01T10:50:37.487Z</time>
      </trkpt>
      <trkpt lat="43.85577" lon="1.24763">
        <ele>142.881444</ele>
        <time>2023-01-01T10:50:39.484Z</time>
      </trkpt>
      <trkpt lat="43.85573" lon="1.24752">
        <ele>142.83536</ele>
        <time>2023-01-01T10:50:41.497Z</time>
      </trkpt>
      <trkpt lat="43.85569" lon="1.24738">
        <ele>142.783576</ele>
        <time>2023-01-01T10:50:43.494Z</time>
      </trkpt>
      <trkpt lat="43.85565" lon="1.24724">
        <ele>142.728377</ele>
        <time>2023-01-01T10:50:46.494Z</time>
      </trkpt>
      <trkpt lat="43.85562" lon="1.24711">
        <ele>142.680255</ele>
        <time>2023-01-01T10:50:48.480Z</time>
      </trkpt>
      <trkpt lat="43.85558" lon="1.24693">
        <ele>142.614144</ele>
        <time>2023-01-01T10:50:51.469Z</time>
      </trkpt>
      <trkpt lat="43.85555" lon="1.24681">
        <ele>142.568199</ele>
        <time>2023-01-01T10:50:53.484Z</time>
      </trkpt>
      <trkpt lat="43.85551" lon="1.24669">
        <ele>142.526194</ele>
        <time>2023-01-01T10:50:55.491Z</time>
      </trkpt>
      <trkpt lat="43.85547" lon="1.24654">
        <ele>142.750728</ele>
        <time>2023-01-01T10:50:58.500Z</time>
      </trkpt>
      <trkpt lat="43.85544" lon="1.24639">
        <ele>142.987611</ele>
        <time>2023-01-01T10:51:00.486Z</time>
      </trkpt>
      <trkpt lat="43.85546" lon="1.2462">
        <ele>143.258549</ele>
        <time>2023-01-01T10:51:03.468Z</time>
      </trkpt>
      <trkpt lat="43.8555" lon="1.24608">
        <ele>143.454345</ele>
        <time>2023-01-01T10:51:05.472Z</time>
      </trkpt>
      <trkpt lat="43.85555" lon="1.24592">
        <ele>143.715097</ele>
        <time>2023-01-01T10:51:08.469Z</time>
      </trkpt>
      <trkpt lat="43.85554" lon="1.24576">
        <ele>143.958046</ele>
        <time>2023-01-01T10:51:11.474Z</time>
      </trkpt>
      <trkpt lat="43.85549" lon="1.24564">
        <ele>144.162505</ele>
        <time>2023-01-01T10:51:14.474Z</time>
      </trkpt>
      <trkpt lat="43.85544" lon="1.2455">
        <ele>144.384267</ele>
        <time>2023-01-01T10:51:17.485Z</time>
      </trkpt>
      <trkpt lat="43.85541" lon="1.24534">
        <ele>144.624092</ele>
        <time>2023-01-01T10:51:20.491Z</time>
      </trkpt>
      <trkpt lat="43.85537" lon="1.24518">
        <ele>144.878336</ele>
        <time>2023-01-01T10:51:23.494Z</time>
      </trkpt>
      <trkpt lat="43.85534" lon="1.24501">
        <ele>145.13276</ele>
        <time>2023-01-01T10:51:26.482Z</time>
      </trkpt>
      <trkpt lat="43.8553" lon="1.24485">
        <ele>145.380947</ele>
        <time>2023-01-01T10:51:29.488Z</time>
      </trkpt>
      <trkpt lat="43.85527" lon="1.2447">
        <ele>145.611708</ele>
        <time>2023-01-01T10:51:32.476Z</time>
      </trkpt>
      <trkpt lat="43.85523" lon="1.24457">
        <ele>145.818935</ele>
        <time>2023-01-01T10:51:35.487Z</time>
      </trkpt>
      <trkpt lat="43.85521" lon="1.24444">
        <ele>146.011472</ele>
        <time>2023-01-01T10:51:38.484Z</time>
      </trkpt>
      <trkpt lat="43.85519" lon="1.24432">
        <ele>146.200987</ele>
        <time>2023-01-01T10:51:41.496Z</time>
      </trkpt>
      <trkpt lat="43.85516" lon="1.24419">
        <ele>146.288483</ele>
        <time>2023-01-01T10:51:44.489Z</time>
      </trkpt>
      <trkpt lat="43.85513" lon="1.24407">
        <ele>146.373706</ele>
        <time>2023-01-01T10:51:47.465Z</time>
      </trkpt>
      <trkpt lat="43.8551" lon="1.24391">
        <ele>146.480277</ele>
        <time>2023-01-01T10:51:51.486Z</time>
      </trkpt>
      <trkpt lat="43.85507" lon="1.24379">
        <ele>146.563421</ele>
        <time>2023-01-01T10:51:54.497Z</time>
      </trkpt>
      <trkpt lat="43.85504" lon="1.24367">
        <ele>146.651403</ele>
        <time>2023-01-01T10:51:57.495Z</time>
      </trkpt>
      <trkpt lat="43.855" lon="1.24355">
        <ele>146.740662</ele>
        <time>2023-01-01T10:52:00.483Z</time>
      </trkpt>
      <trkpt lat="43.85497" lon="1.24342">
        <ele>146.829911</ele>
        <time>2023-01-01T10:52:03.495Z</time>
      </trkpt>
      <trkpt lat="43.85494" lon="1.24329">
        <ele>146.918237</ele>
        <time>2023-01-01T10:52:06.499Z</time>
      </trkpt>
      <trkpt lat="43.85491" lon="1.24316">
        <ele>147.011233</ele>
        <time>2023-01-01T10:52:09.474Z</time>
      </trkpt>
      <trkpt lat="43.85488" lon="1.24302">
        <ele>147.110543</ele>
        <time>2023-01-01T10:52:12.499Z</time>
      </trkpt>
      <trkpt lat="43.85485" lon="1.24287">
        <ele>147.214801</ele>
        <time>2023-01-01T10:52:15.483Z</time>
      </trkpt>
      <trkpt lat="43.85482" lon="1.24275">
        <ele>147.298207</ele>
        <time>2023-01-01T10:52:17.497Z</time>
      </trkpt>
      <trkpt lat="43.8548" lon="1.24263">
        <ele>147.382146</ele>
        <time>2023-01-01T10:52:19.496Z</time>
      </trkpt>
      <trkpt lat="43.85477" lon="1.24245">
        <ele>147.501671</ele>
        <time>2023-01-01T10:52:22.494Z</time>
      </trkpt>
      <trkpt lat="43.85474" lon="1.24228">
        <ele>147.619694</ele>
        <time>2023-01-01T10:52:25.482Z</time>
      </trkpt>
      <trkpt lat="43.85471" lon="1.24216">
        <ele>147.705495</ele>
        <time>2023-01-01T10:52:27.485Z</time>
      </trkpt>
      <trkpt lat="43.85468" lon="1.24203">
        <ele>147.794269</ele>
        <time>2023-01-01T10:52:29.487Z</time>
      </trkpt>
      <trkpt lat="43.85465" lon="1.24189">
        <ele>147.850989</ele>
        <time>2023-01-01T10:52:31.487Z</time>
      </trkpt>
      <trkpt lat="43.85462" lon="1.24173">
        <ele>147.836977</ele>
        <time>2023-01-01T10:52:33.483Z</time>
      </trkpt>
      <trkpt lat="43.85459" lon="1.24158">
        <ele>147.82298</ele>
        <time>2023-01-01T10:52:35.484Z</time>
      </trkpt>
      <trkpt lat="43.85456" lon="1.24142">
        <ele>147.808609</ele>
        <time>2023-01-01T10:52:37.489Z</time>
      </trkpt>
      <trkpt lat="43.85452" lon="1.24126">
        <ele>147.794008</ele>
        <time>2023-01-01T10:52:39.486Z</time>
      </trkpt>
      <trkpt lat="43.85449" lon="1.2411">
        <ele>147.779355</ele>
        <time>2023-01-01T10:52:41.481Z</time>
      </trkpt>
      <trkpt lat="43.85445" lon="1.24096">
        <ele>147.765693</ele>
        <time>2023-01-01T10:52:43.482Z</time>
      </trkpt>
      <trkpt lat="43.85442" lon="1.2408">
        <ele>147.751572</ele>
        <time>2023-01-01T10:52:45.488Z</time>
      </trkpt>
      <trkpt lat="43.85438" lon="1.24065">
        <ele>147.737868</ele>
        <time>2023-01-01T10:52:47.490Z</time>
      </trkpt>
      <trkpt lat="43.85435" lon="1.24052">
        <ele>147.725155</ele>
        <time>2023-01-01T10:52:49.468Z</time>
      </trkpt>
      <trkpt lat="43.85431" lon="1.24037">
        <ele>147.7117</ele>
        <time>2023-01-01T10:52:51.464Z</time>
      </trkpt>
      <trkpt lat="43.85428" lon="1.24023">
        <ele>147.698897</ele>
        <time>2023-01-01T10:52:53.487Z</time>
      </trkpt>
      <trkpt lat="43.85425" lon="1.24008">
        <ele>147.685361</ele>
        <time>2023-01-01T10:52:55.486Z</time>
      </trkpt>
      <trkpt lat="43.85422" lon="1.23992">
        <ele>147.67091</ele>
        <time>2023-01-01T10:52:57.484Z</time>
      </trkpt>
      <trkpt lat="43.85419" lon="1.23977">
        <ele>147.656917</ele>
        <time>2023-01-01T10:52:59.480Z</time>
      </trkpt>
      <trkpt lat="43.85415" lon="1.23962">
        <ele>147.642962</ele>
        <time>2023-01-01T10:53:01.485Z</time>
      </trkpt>
      <trkpt lat="43.85411" lon="1.23947">
        <ele>147.668829</ele>
        <time>2023-01-01T10:53:03.488Z</time>
      </trkpt>
      <trkpt lat="43.85409" lon="1.23933">
        <ele>147.718984</ele>
        <time>2023-01-01T10:53:05.496Z</time>
      </trkpt>
      <trkpt lat="43.85406" lon="1.23917">
        <ele>147.775246</ele>
        <time>2023-01-01T10:53:07.476Z</time>
      </trkpt>
      <trkpt lat="43.85404" lon="1.23903">
        <ele>147.827913</ele>
        <time>2023-01-01T10:53:09.486Z</time>
      </trkpt>
      <trkpt lat="43.85398" lon="1.2389">
        <ele>147.880292</ele>
        <time>2023-01-01T10:53:12.478Z</time>
      </trkpt>
      <trkpt lat="43.85388" lon="1.2388">
        <ele>147.937783</ele>
        <time>2023-01-01T10:53:15.474Z</time>
      </trkpt>
      <trkpt lat="43.85378" lon="1.23871">
        <ele>147.997448</ele>
        <time>2023-01-01T10:53:18.470Z</time>
      </trkpt>
      <trkpt lat="43.8537" lon="1.23857">
        <ele>148.059477</ele>
        <time>2023-01-01T10:53:21.474Z</time>
      </trkpt>
      <trkpt lat="43.85364" lon="1.23842">
        <ele>148.119916</ele>
        <time>2023-01-01T10:53:24.484Z</time>
      </trkpt>
      <trkpt lat="43.85359" lon="1.23829">
        <ele>148.170505</ele>
        <time>2023-01-01T10:53:27.473Z</time>
      </trkpt>
      <trkpt lat="43.85354" lon="1.23814">
        <ele>148.227808</ele>
        <time>2023-01-01T10:53:31.496Z</time>
      </trkpt>
      <trkpt lat="43.85349" lon="1.23803">
        <ele>148.271501</ele>
        <time>2023-01-01T10:53:34.464Z</time>
      </trkpt>
      <trkpt lat="43.85344" lon="1.23791">
        <ele>148.320453</ele>
        <time>2023-01-01T10:53:37.474Z</time>
      </trkpt>
      <trkpt lat="43.85339" lon="1.23778">
        <ele>148.372323</ele>
        <time>2023-01-01T10:53:40.483Z</time>
      </trkpt>
      <trkpt lat="43.85334" lon="1.23766">
        <ele>148.422588</ele>
        <time>2023-01-01T10:53:43.483Z</time>
      </trkpt>
      <trkpt lat="43.85329" lon="1.23754">
        <ele>148.469005</ele>
        <time>2023-01-01T10:53:46.487Z</time>
      </trkpt>
      <trkpt lat="43.85324" lon="1.23743">
        <ele>148.586343</ele>
        <time>2023-01-01T10:53:49.495Z</time>
      </trkpt>
      <trkpt lat="43.8532" lon="1.23731">
        <ele>148.978274</ele>
        <time>2023-01-01T10:53:52.466Z</time>
      </trkpt>
      <trkpt lat="43.85314" lon="1.2372">
        <ele>149.359778</ele>
        <time>2023-01-01T10:53:55.492Z</time>
      </trkpt>
      <trkpt lat="43.85309" lon="1.23709">
        <ele>149.743801</ele>
        <time>2023-01-01T10:53:58.492Z</time>
      </trkpt>
      <trkpt lat="43.85303" lon="1.23698">
        <ele>150.144367</ele>
        <time>2023-01-01T10:54:01.485Z</time>
      </trkpt>
      <trkpt lat="43.85297" lon="1.23686">
        <ele>150.566123</ele>
        <time>2023-01-01T10:54:04.472Z</time>
      </trkpt>
      <trkpt lat="43.85292" lon="1.23675">
        <ele>150.966425</ele>
        <time>2023-01-01T10:54:07.486Z</time>
      </trkpt>
      <trkpt lat="43.85287" lon="1.23664">
        <ele>151.334103</ele>
        <time>2023-01-01T10:54:10.490Z</time>
      </trkpt>
      <trkpt lat="43.85282" lon="1.23653">
        <ele>151.712299</ele>
        <time>2023-01-01T10:54:13.482Z</time>
      </trkpt>
      <trkpt lat="43.85277" lon="1.2364">
        <ele>152.124698</ele>
        <time>2023-01-01T10:54:16.510Z</time>
      </trkpt>
      <trkpt lat="43.85272" lon="1.23629">
        <ele>152.516006</ele>
        <time>2023-01-01T10:54:19.485Z</time>
      </trkpt>
      <trkpt lat="43.85268" lon="1.23616">
        <ele>152.898651</ele>
        <time>2023-01-01T10:54:22.469Z</time>
      </trkpt>
      <trkpt lat="43.85262" lon="1.23603">
        <ele>153.369555</ele>
        <time>2023-01-01T10:54:26.486Z</time>
      </trkpt>
      <trkpt lat="43.85257" lon="1.23589">
        <ele>153.813568</ele>
        <time>2023-01-01T10:54:31.481Z</time>
      </trkpt>
      <trkpt lat="43.85262" lon="1.23577">
        <ele>154.203381</ele>
        <time>2023-01-01T10:54:35.472Z</time>
      </trkpt>
      <trkpt lat="43.85268" lon="1.23564">
        <ele>154.658234</ele>
        <time>2023-01-01T10:54:39.466Z</time>
      </trkpt>
      <trkpt lat="43.85273" lon="1.23553">
        <ele>155.04953</ele>
        <time>2023-01-01T10:54:43.494Z</time>
      </trkpt>
      <trkpt lat="43.85272" lon="1.23537">
        <ele>155.51539</ele>
        <time>2023-01-01T10:54:48.475Z</time>
      </trkpt>
      <trkpt lat="43.85279" lon="1.23526">
        <ele>155.775073</ele>
        <time>2023-01-01T10:54:52.493Z</time>
      </trkpt>
      <trkpt lat="43.85288" lon="1.23521">
        <ele>155.839603</ele>
        <time>2023-01-01T10:54:55.491Z</time>
      </trkpt>
      <trkpt lat="43.85299" lon="1.23516">
        <ele>155.917209</ele>
        <time>2023-01-01T10:54:59.468Z</time>
      </trkpt>
      <trkpt lat="43.85308" lon="1.2351">
        <ele>155.975899</ele>
        <time>2023-01-01T10:55:02.486Z</time>
      </trkpt>
      <trkpt lat="43.85312" lon="1.235">
        <ele>156.034968</ele>
        <time>2023-01-01T10:55:05.474Z</time>
      </trkpt>
      <trkpt lat="43.85315" lon="1.23484">
        <ele>156.112204</ele>
        <time>2023-01-01T10:55:09.484Z</time>
      </trkpt>
      <trkpt lat="43.85317" lon="1.2347">
        <ele>156.177242</ele>
        <time>2023-01-01T10:55:12.489Z</time>
      </trkpt>
      <trkpt lat="43.85319" lon="1.23456">
        <ele>156.243803</ele>
        <time>2023-01-01T10:55:15.485Z</time>
      </trkpt>
      <trkpt lat="43.85321" lon="1.23443">
        <ele>156.307323</ele>
        <time>2023-01-01T10:55:18.481Z</time>
      </trkpt>
      <trkpt lat="43.85323" lon="1.23428">
        <ele>156.377564</ele>
        <time>2023-01-01T10:55:21.487Z</time>
      </trkpt>
      <trkpt lat="43.85325" lon="1.23413">
        <ele>156.451963</ele>
        <time>2023-01-01T10:55:24.482Z</time>
      </trkpt>
      <trkpt lat="43.85326" lon="1.23396">
        <ele>156.531606</ele>
        <time>2023-01-01T10:55:27.483Z</time>
      </trkpt>
      <trkpt lat="43.85328" lon="1.2338">
        <ele>156.609166</ele>
        <time>2023-01-01T10:55:30.480Z</time>
      </trkpt>
      <trkpt lat="43.85329" lon="1.23365">
        <ele>156.680518</ele>
        <time>2023-01-01T10:55:33.501Z</time>
      </trkpt>
      <trkpt lat="43.8533" lon="1.23349">
        <ele>156.752527</ele>
        <time>2023-01-01T10:55:36.474Z</time>
      </trkpt>
      <trkpt lat="43.85331" lon="1.23335">
        <ele>156.820488</ele>
        <time>2023-01-01T10:55:39.487Z</time>
      </trkpt>
      <trkpt lat="43.85332" lon="1.23322">
        <ele>156.883532</ele>
        <time>2023-01-01T10:55:42.485Z</time>
      </trkpt>
      <trkpt lat="43.85334" lon="1.23305">
        <ele>156.961444</ele>
        <time>2023-01-01T10:55:46.487Z</time>
      </trkpt>
      <trkpt lat="43.85336" lon="1.23291">
        <ele>157.028443</ele>
        <time>2023-01-01T10:55:50.486Z</time>
      </trkpt>
      <trkpt lat="43.85336" lon="1.23275">
        <ele>157.103885</ele>
        <time>2023-01-01T10:55:54.486Z</time>
      </trkpt>
      <trkpt lat="43.8534" lon="1.23259">
        <ele>157.183208</ele>
        <time>2023-01-01T10:55:57.472Z</time>
      </trkpt>
      <trkpt lat="43.85341" lon="1.23242">
        <ele>157.263195</ele>
        <time>2023-01-01T10:56:00.473Z</time>
      </trkpt>
      <trkpt lat="43.85343" lon="1.23226">
        <ele>157.340282</ele>
        <time>2023-01-01T10:56:03.481Z</time>
      </trkpt>
      <trkpt lat="43.85344" lon="1.2321">
        <ele>157.415086</ele>
        <time>2023-01-01T10:56:06.485Z</time>
      </trkpt>
      <trkpt lat="43.85346" lon="1.23194">
        <ele>157.48884</ele>
        <time>2023-01-01T10:56:09.485Z</time>
      </trkpt>
      <trkpt lat="43.85347" lon="1.23179">
        <ele>157.56001</ele>
        <time>2023-01-01T10:56:12.485Z</time>
      </trkpt>
      <trkpt lat="43.85348" lon="1.23164">
        <ele>157.629345</ele>
        <time>2023-01-01T10:56:15.493Z</time>
      </trkpt>
      <trkpt lat="43.85349" lon="1.23148">
        <ele>157.70687</ele>
        <time>2023-01-01T10:56:18.494Z</time>
      </trkpt>
      <trkpt lat="43.85351" lon="1.23131">
        <ele>157.783997</ele>
        <time>2023-01-01T10:56:21.480Z</time>
      </trkpt>
      <trkpt lat="43.85353" lon="1.23116">
        <ele>157.857495</ele>
        <time>2023-01-01T10:56:24.478Z</time>
      </trkpt>
      <trkpt lat="43.85353" lon="1.23103">
        <ele>157.917615</ele>
        <time>2023-01-01T10:56:27.468Z</time>
      </trkpt>
      <trkpt lat="43.85353" lon="1.2309">
        <ele>157.978858</ele>
        <time>2023-01-01T10:56:30.481Z</time>
      </trkpt>
      <trkpt lat="43.85354" lon="1.23075">
        <ele>158.046286</ele>
        <time>2023-01-01T10:56:33.492Z</time>
      </trkpt>
      <trkpt lat="43.85357" lon="1.2306">
        <ele>158.107061</ele>
        <time>2023-01-01T10:56:37.477Z</time>
      </trkpt>
      <trkpt lat="43.85361" lon="1.23047">
        <ele>158.150193</ele>
        <time>2023-01-01T10:56:42.485Z</time>
      </trkpt>
      <trkpt lat="43.85356" lon="1.23035">
        <ele>158.190227</ele>
        <time>2023-01-01T10:56:53.479Z</time>
      </trkpt>
      <trkpt lat="43.85347" lon="1.23028">
        <ele>158.234241</ele>
        <time>2023-01-01T10:56:58.472Z</time>
      </trkpt>
      <trkpt lat="43.85338" lon="1.23029">
        <ele>158.273173</ele>
        <time>2023-01-01T10:57:01.467Z</time>
      </trkpt>
      <trkpt lat="43.85326" lon="1.23028">
        <ele>158.323148</ele>
        <time>2023-01-01T10:57:04.469Z</time>
      </trkpt>
      <trkpt lat="43.85313" lon="1.23023">
        <ele>158.37654</ele>
        <time>2023-01-01T10:57:07.472Z</time>
      </trkpt>
      <trkpt lat="43.85304" lon="1.23017">
        <ele>158.418098</ele>
        <time>2023-01-01T10:57:10.470Z</time>
      </trkpt>
      <trkpt lat="43.85295" lon="1.23011">
        <ele>158.459417</ele>
        <time>2023-01-01T10:57:13.472Z</time>
      </trkpt>
      <trkpt lat="43.85286" lon="1.23008">
        <ele>158.498924</ele>
        <time>2023-01-01T10:57:16.495Z</time>
      </trkpt>
      <trkpt lat="43.85276" lon="1.23005">
        <ele>158.54109</ele>
        <time>2023-01-01T10:57:19.481Z</time>
      </trkpt>
      <trkpt lat="43.85265" lon="1.23001">
        <ele>158.587668</ele>
        <time>2023-01-01T10:57:22.486Z</time>
      </trkpt>
      <trkpt lat="43.85253" lon="1.22997">
        <ele>158.639372</ele>
        <time>2023-01-01T10:57:25.497Z</time>
      </trkpt>
      <trkpt lat="43.85241" lon="1.22993">
        <ele>158.690242</ele>
        <time>2023-01-01T10:57:28.469Z</time>
      </trkpt>
      <trkpt lat="43.85229" lon="1.22989">
        <ele>158.740816</ele>
        <time>2023-01-01T10:57:31.484Z</time>
      </trkpt>
      <trkpt lat="43.85217" lon="1.22985">
        <ele>158.790515</ele>
        <time>2023-01-01T10:57:34.491Z</time>
      </trkpt>
      <trkpt lat="43.85205" lon="1.22982">
        <ele>158.863528</ele>
        <time>2023-01-01T10:57:37.481Z</time>
      </trkpt>
      <trkpt lat="43.85193" lon="1.22978">
        <ele>158.995859</ele>
        <time>2023-01-01T10:57:40.470Z</time>
      </trkpt>
      <trkpt lat="43.85182" lon="1.22975">
        <ele>159.126299</ele>
        <time>2023-01-01T10:57:43.489Z</time>
      </trkpt>
      <trkpt lat="43.85173" lon="1.22972">
        <ele>159.232735</ele>
        <time>2023-01-01T10:57:46.485Z</time>
      </trkpt>
      <trkpt lat="43.85164" lon="1.22968">
        <ele>159.337793</ele>
        <time>2023-01-01T10:57:49.478Z</time>
      </trkpt>
      <trkpt lat="43.85153" lon="1.22966">
        <ele>159.456417</ele>
        <time>2023-01-01T10:57:52.475Z</time>
      </trkpt>
      <trkpt lat="43.85143" lon="1.22962">
        <ele>159.577343</ele>
        <time>2023-01-01T10:57:55.495Z</time>
      </trkpt>
      <trkpt lat="43.85132" lon="1.22959">
        <ele>159.704234</ele>
        <time>2023-01-01T10:57:58.482Z</time>
      </trkpt>
      <trkpt lat="43.8512" lon="1.22956">
        <ele>159.831389</ele>
        <time>2023-01-01T10:58:01.497Z</time>
      </trkpt>
      <trkpt lat="43.85109" lon="1.22952">
        <ele>159.962276</ele>
        <time>2023-01-01T10:58:04.490Z</time>
      </trkpt>
      <trkpt lat="43.85097" lon="1.22948">
        <ele>160.100235</ele>
        <time>2023-01-01T10:58:07.486Z</time>
      </trkpt>
      <trkpt lat="43.85086" lon="1.22946">
        <ele>160.22401</ele>
        <time>2023-01-01T10:58:10.483Z</time>
      </trkpt>
      <trkpt lat="43.85077" lon="1.22943">
        <ele>160.331354</ele>
        <time>2023-01-01T10:58:13.499Z</time>
      </trkpt>
      <trkpt lat="43.85067" lon="1.22939">
        <ele>160.44586</ele>
        <time>2023-01-01T10:58:17.487Z</time>
      </trkpt>
      <trkpt lat="43.85059" lon="1.22931">
        <ele>160.547615</ele>
        <time>2023-01-01T10:58:21.495Z</time>
      </trkpt>
      <trkpt lat="43.85057" lon="1.2292">
        <ele>160.648239</ele>
        <time>2023-01-01T10:58:24.468Z</time>
      </trkpt>
      <trkpt lat="43.85053" lon="1.22907">
        <ele>160.753736</ele>
        <time>2023-01-01T10:58:27.483Z</time>
      </trkpt>
      <trkpt lat="43.8505" lon="1.22895">
        <ele>160.851187</ele>
        <time>2023-01-01T10:58:30.484Z</time>
      </trkpt>
      <trkpt lat="43.85047" lon="1.2288">
        <ele>160.945609</ele>
        <time>2023-01-01T10:58:33.485Z</time>
      </trkpt>
      <trkpt lat="43.85043" lon="1.22864">
        <ele>161.046144</ele>
        <time>2023-01-01T10:58:36.478Z</time>
      </trkpt>
      <trkpt lat="43.85039" lon="1.22847">
        <ele>161.153965</ele>
        <time>2023-01-01T10:58:39.495Z</time>
      </trkpt>
      <trkpt lat="43.85035" lon="1.22829">
        <ele>161.262583</ele>
        <time>2023-01-01T10:58:42.493Z</time>
      </trkpt>
      <trkpt lat="43.85031" lon="1.22812">
        <ele>161.371237</ele>
        <time>2023-01-01T10:58:45.484Z</time>
      </trkpt>
      <trkpt lat="43.85027" lon="1.22796">
        <ele>161.473711</ele>
        <time>2023-01-01T10:58:48.472Z</time>
      </trkpt>
      <trkpt lat="43.85023" lon="1.22781">
        <ele>161.569726</ele>
        <time>2023-01-01T10:58:51.484Z</time>
      </trkpt>
      <trkpt lat="43.8502" lon="1.22764">
        <ele>161.67187</ele>
        <time>2023-01-01T10:58:54.466Z</time>
      </trkpt>
      <trkpt lat="43.85016" lon="1.22747">
        <ele>161.778601</ele>
        <time>2023-01-01T10:58:57.483Z</time>
      </trkpt>
      <trkpt lat="43.85012" lon="1.22735">
        <ele>161.859458</ele>
        <time>2023-01-01T10:58:59.495Z</time>
      </trkpt>
      <trkpt lat="43.8501" lon="1.22723">
        <ele>161.933918</ele>
        <time>2023-01-01T10:59:01.481Z</time>
      </trkpt>
      <trkpt lat="43.85006" lon="1.22705">
        <ele>162.044718</ele>
        <time>2023-01-01T10:59:04.495Z</time>
      </trkpt>
      <trkpt lat="43.85003" lon="1.22693">
        <ele>162.120522</ele>
        <time>2023-01-01T10:59:06.488Z</time>
      </trkpt>
      <trkpt lat="43.85" lon="1.22681">
        <ele>162.198855</ele>
        <time>2023-01-01T10:59:08.485Z</time>
      </trkpt>
      <trkpt lat="43.84997" lon="1.22669">
        <ele>162.273828</ele>
        <time>2023-01-01T10:59:10.485Z</time>
      </trkpt>
      <trkpt lat="43.84994" lon="1.22656">
        <ele>162.327359</ele>
        <time>2023-01-01T10:59:12.486Z</time>
      </trkpt>
      <trkpt lat="43.84991" lon="1.22643">
        <ele>162.342609</ele>
        <time>2023-01-01T10:59:14.486Z</time>
      </trkpt>
      <trkpt lat="43.84988" lon="1.2263">
        <ele>162.357866</ele>
        <time>2023-01-01T10:59:16.487Z</time>
      </trkpt>
      <trkpt lat="43.84985" lon="1.22618">
        <ele>162.372981</ele>
        <time>2023-01-01T10:59:18.500Z</time>
      </trkpt>
      <trkpt lat="43.84982" lon="1.22606">
        <ele>162.387646</ele>
        <time>2023-01-01T10:59:20.496Z</time>
      </trkpt>
      <trkpt lat="43.84978" lon="1.22592">
        <ele>162.404399</ele>
        <time>2023-01-01T10:59:22.468Z</time>
      </trkpt>
      <trkpt lat="43.84975" lon="1.22579">
        <ele>162.419917</ele>
        <time>2023-01-01T10:59:24.491Z</time>
      </trkpt>
      <trkpt lat="43.84972" lon="1.22566">
        <ele>162.436027</ele>
        <time>2023-01-01T10:59:26.487Z</time>
      </trkpt>
      <trkpt lat="43.84968" lon="1.22552">
        <ele>162.452684</ele>
        <time>2023-01-01T10:59:28.478Z</time>
      </trkpt>
      <trkpt lat="43.84965" lon="1.22539">
        <ele>162.468156</ele>
        <time>2023-01-01T10:59:30.492Z</time>
      </trkpt>
      <trkpt lat="43.84962" lon="1.22527">
        <ele>162.482789</ele>
        <time>2023-01-01T10:59:32.496Z</time>
      </trkpt>
      <trkpt lat="43.84959" lon="1.22513">
        <ele>162.498903</ele>
        <time>2023-01-01T10:59:34.479Z</time>
      </trkpt>
      <trkpt lat="43.84956" lon="1.22496">
        <ele>162.519856</ele>
        <time>2023-01-01T10:59:37.493Z</time>
      </trkpt>
      <trkpt lat="43.84953" lon="1.2248">
        <ele>162.5388</ele>
        <time>2023-01-01T10:59:40.494Z</time>
      </trkpt>
      <trkpt lat="43.84949" lon="1.22465">
        <ele>162.556848</ele>
        <time>2023-01-01T10:59:43.486Z</time>
      </trkpt>
      <trkpt lat="43.84946" lon="1.22449">
        <ele>162.576</ele>
        <time>2023-01-01T10:59:46.481Z</time>
      </trkpt>
      <trkpt lat="43.84941" lon="1.22431">
        <ele>162.597272</ele>
        <time>2023-01-01T10:59:49.495Z</time>
      </trkpt>
      <trkpt lat="43.84939" lon="1.22418">
        <ele>162.636031</ele>
        <time>2023-01-01T10:59:51.492Z</time>
      </trkpt>
      <trkpt lat="43.84936" lon="1.22405">
        <ele>162.695793</ele>
        <time>2023-01-01T10:59:53.489Z</time>
      </trkpt>
      <trkpt lat="43.84933" lon="1.22393">
        <ele>162.756053</ele>
        <time>2023-01-01T10:59:55.501Z</time>
      </trkpt>
      <trkpt lat="43.8493" lon="1.2238">
        <ele>162.819285</ele>
        <time>2023-01-01T10:59:57.486Z</time>
      </trkpt>
      <trkpt lat="43.84927" lon="1.22366">
        <ele>162.885594</ele>
        <time>2023-01-01T10:59:59.484Z</time>
      </trkpt>
      <trkpt lat="43.84924" lon="1.22353">
        <ele>162.95122</ele>
        <time>2023-01-01T11:00:01.491Z</time>
      </trkpt>
      <trkpt lat="43.8492" lon="1.22341">
        <ele>163.008576</ele>
        <time>2023-01-01T11:00:03.495Z</time>
      </trkpt>
      <trkpt lat="43.84916" lon="1.22327">
        <ele>163.076899</ele>
        <time>2023-01-01T11:00:05.498Z</time>
      </trkpt>
      <trkpt lat="43.84913" lon="1.22314">
        <ele>163.140335</ele>
        <time>2023-01-01T11:00:07.506Z</time>
      </trkpt>
      <trkpt lat="43.8491" lon="1.22302">
        <ele>163.198552</ele>
        <time>2023-01-01T11:00:09.503Z</time>
      </trkpt>
      <trkpt lat="43.84907" lon="1.22289">
        <ele>163.261785</ele>
        <time>2023-01-01T11:00:11.488Z</time>
      </trkpt>
      <trkpt lat="43.84904" lon="1.22277">
        <ele>163.320356</ele>
        <time>2023-01-01T11:00:13.488Z</time>
      </trkpt>
      <trkpt lat="43.84901" lon="1.22265">
        <ele>163.381051</ele>
        <time>2023-01-01T11:00:15.488Z</time>
      </trkpt>
      <trkpt lat="43.84898" lon="1.22251">
        <ele>163.44692</ele>
        <time>2023-01-01T11:00:17.480Z</time>
      </trkpt>
      <trkpt lat="43.84896" lon="1.22238">
        <ele>163.508892</ele>
        <time>2023-01-01T11:00:19.470Z</time>
      </trkpt>
      <trkpt lat="43.84893" lon="1.22225">
        <ele>163.573059</ele>
        <time>2023-01-01T11:00:21.496Z</time>
      </trkpt>
      <trkpt lat="43.8489" lon="1.22212">
        <ele>163.636423</ele>
        <time>2023-01-01T11:00:23.470Z</time>
      </trkpt>
      <trkpt lat="43.84887" lon="1.22199">
        <ele>163.69643</ele>
        <time>2023-01-01T11:00:25.468Z</time>
      </trkpt>
      <trkpt lat="43.84884" lon="1.22186">
        <ele>163.756961</ele>
        <time>2023-01-01T11:00:27.490Z</time>
      </trkpt>
      <trkpt lat="43.84881" lon="1.22173">
        <ele>163.750433</ele>
        <time>2023-01-01T11:00:29.491Z</time>
      </trkpt>
      <trkpt lat="43.84878" lon="1.2216">
        <ele>163.744094</ele>
        <time>2023-01-01T11:00:31.480Z</time>
      </trkpt>
      <trkpt lat="43.84875" lon="1.22147">
        <ele>163.737837</ele>
        <time>2023-01-01T11:00:33.484Z</time>
      </trkpt>
      <trkpt lat="43.84872" lon="1.22135">
        <ele>163.731565</ele>
        <time>2023-01-01T11:00:35.497Z</time>
      </trkpt>
      <trkpt lat="43.84869" lon="1.22123">
        <ele>163.725667</ele>
        <time>2023-01-01T11:00:37.489Z</time>
      </trkpt>
      <trkpt lat="43.84866" lon="1.2211">
        <ele>163.719283</ele>
        <time>2023-01-01T11:00:39.495Z</time>
      </trkpt>
      <trkpt lat="43.84862" lon="1.22097">
        <ele>163.712435</ele>
        <time>2023-01-01T11:00:41.483Z</time>
      </trkpt>
      <trkpt lat="43.84859" lon="1.22083">
        <ele>163.705805</ele>
        <time>2023-01-01T11:00:43.489Z</time>
      </trkpt>
      <trkpt lat="43.84856" lon="1.2207">
        <ele>163.699276</ele>
        <time>2023-01-01T11:00:45.483Z</time>
      </trkpt>
      <trkpt lat="43.84853" lon="1.22057">
        <ele>163.692805</ele>
        <time>2023-01-01T11:00:47.491Z</time>
      </trkpt>
      <trkpt lat="43.8485" lon="1.22044">
        <ele>163.686258</ele>
        <time>2023-01-01T11:00:49.484Z</time>
      </trkpt>
      <trkpt lat="43.84847" lon="1.2203">
        <ele>163.679653</ele>
        <time>2023-01-01T11:00:51.492Z</time>
      </trkpt>
      <trkpt lat="43.84844" lon="1.22017">
        <ele>163.67317</ele>
        <time>2023-01-01T11:00:53.485Z</time>
      </trkpt>
      <trkpt lat="43.84841" lon="1.22004">
        <ele>163.666642</ele>
        <time>2023-01-01T11:00:55.489Z</time>
      </trkpt>
      <trkpt lat="43.84838" lon="1.21992">
        <ele>163.660479</ele>
        <time>2023-01-01T11:00:57.486Z</time>
      </trkpt>
      <trkpt lat="43.84834" lon="1.21975">
        <ele>163.652012</ele>
        <time>2023-01-01T11:01:00.481Z</time>
      </trkpt>
      <trkpt lat="43.84829" lon="1.21958">
        <ele>163.643635</ele>
        <time>2023-01-01T11:01:03.480Z</time>
      </trkpt>
      <trkpt lat="43.84825" lon="1.21941">
        <ele>163.788138</ele>
        <time>2023-01-01T11:01:06.496Z</time>
      </trkpt>
      <trkpt lat="43.84823" lon="1.21928">
        <ele>163.97091</ele>
        <time>2023-01-01T11:01:08.497Z</time>
      </trkpt>
      <trkpt lat="43.84819" lon="1.21916">
        <ele>164.160955</ele>
        <time>2023-01-01T11:01:10.491Z</time>
      </trkpt>
      <trkpt lat="43.84816" lon="1.21898">
        <ele>164.425797</ele>
        <time>2023-01-01T11:01:13.483Z</time>
      </trkpt>
      <trkpt lat="43.84812" lon="1.21885">
        <ele>164.623988</ele>
        <time>2023-01-01T11:01:15.500Z</time>
      </trkpt>
      <trkpt lat="43.8481" lon="1.21873">
        <ele>164.812283</ele>
        <time>2023-01-01T11:01:17.500Z</time>
      </trkpt>
      <trkpt lat="43.84807" lon="1.21861">
        <ele>164.993091</ele>
        <time>2023-01-01T11:01:19.500Z</time>
      </trkpt>
      <trkpt lat="43.84805" lon="1.21848">
        <ele>165.183939</ele>
        <time>2023-01-01T11:01:21.491Z</time>
      </trkpt>
      <trkpt lat="43.84802" lon="1.21836">
        <ele>165.372817</ele>
        <time>2023-01-01T11:01:23.481Z</time>
      </trkpt>
      <trkpt lat="43.84799" lon="1.21823">
        <ele>165.563563</ele>
        <time>2023-01-01T11:01:25.491Z</time>
      </trkpt>
      <trkpt lat="43.84794" lon="1.21805">
        <ele>165.846666</ele>
        <time>2023-01-01T11:01:28.490Z</time>
      </trkpt>
      <trkpt lat="43.84792" lon="1.21792">
        <ele>166.039683</ele>
        <time>2023-01-01T11:01:30.496Z</time>
      </trkpt>
      <trkpt lat="43.84789" lon="1.21775">
        <ele>166.291767</ele>
        <time>2023-01-01T11:01:33.487Z</time>
      </trkpt>
      <trkpt lat="43.84785" lon="1.21759">
        <ele>166.530684</ele>
        <time>2023-01-01T11:01:36.484Z</time>
      </trkpt>
      <trkpt lat="43.84782" lon="1.21746">
        <ele>166.730066</ele>
        <time>2023-01-01T11:01:39.489Z</time>
      </trkpt>
      <trkpt lat="43.84777" lon="1.2173">
        <ele>166.974032</ele>
        <time>2023-01-01T11:01:42.492Z</time>
      </trkpt>
      <trkpt lat="43.84773" lon="1.21714">
        <ele>167.22249</ele>
        <time>2023-01-01T11:01:45.479Z</time>
      </trkpt>
      <trkpt lat="43.84769" lon="1.21698">
        <ele>167.207316</ele>
        <time>2023-01-01T11:01:48.490Z</time>
      </trkpt>
      <trkpt lat="43.84765" lon="1.21681">
        <ele>167.171874</ele>
        <time>2023-01-01T11:01:51.490Z</time>
      </trkpt>
      <trkpt lat="43.84761" lon="1.21669">
        <ele>167.146651</ele>
        <time>2023-01-01T11:01:53.486Z</time>
      </trkpt>
      <trkpt lat="43.84757" lon="1.21653">
        <ele>167.112871</ele>
        <time>2023-01-01T11:01:56.481Z</time>
      </trkpt>
      <trkpt lat="43.84753" lon="1.21636">
        <ele>167.076298</ele>
        <time>2023-01-01T11:01:59.483Z</time>
      </trkpt>
      <trkpt lat="43.84749" lon="1.21618">
        <ele>167.03884</ele>
        <time>2023-01-01T11:02:02.495Z</time>
      </trkpt>
      <trkpt lat="43.84747" lon="1.21605">
        <ele>167.013063</ele>
        <time>2023-01-01T11:02:04.488Z</time>
      </trkpt>
      <trkpt lat="43.84745" lon="1.21592">
        <ele>166.987926</ele>
        <time>2023-01-01T11:02:06.485Z</time>
      </trkpt>
      <trkpt lat="43.84742" lon="1.2158">
        <ele>166.962463</ele>
        <time>2023-01-01T11:02:08.486Z</time>
      </trkpt>
      <trkpt lat="43.84738" lon="1.21563">
        <ele>166.925891</ele>
        <time>2023-01-01T11:02:11.497Z</time>
      </trkpt>
      <trkpt lat="43.84736" lon="1.21548">
        <ele>166.895094</ele>
        <time>2023-01-01T11:02:14.487Z</time>
      </trkpt>
      <trkpt lat="43.84737" lon="1.21533">
        <ele>166.866455</ele>
        <time>2023-01-01T11:02:17.472Z</time>
      </trkpt>
      <trkpt lat="43.84741" lon="1.21521">
        <ele>166.840061</ele>
        <time>2023-01-01T11:02:20.486Z</time>
      </trkpt>
      <trkpt lat="43.84741" lon="1.21507">
        <ele>166.812872</ele>
        <time>2023-01-01T11:02:23.481Z</time>
      </trkpt>
      <trkpt lat="43.84736" lon="1.21495">
        <ele>166.785008</ele>
        <time>2023-01-01T11:02:26.479Z</time>
      </trkpt>
      <trkpt lat="43.84727" lon="1.21486">
        <ele>166.755176</ele>
        <time>2023-01-01T11:02:29.471Z</time>
      </trkpt>
      <trkpt lat="43.84719" lon="1.21477">
        <ele>166.718168</ele>
        <time>2023-01-01T11:02:32.471Z</time>
      </trkpt>
      <trkpt lat="43.84713" lon="1.21463">
        <ele>166.674067</ele>
        <time>2023-01-01T11:02:35.463Z</time>
      </trkpt>
      <trkpt lat="43.84708" lon="1.21446">
        <ele>166.626374</ele>
        <time>2023-01-01T11:02:38.476Z</time>
      </trkpt>
      <trkpt lat="43.84704" lon="1.21429">
        <ele>166.575989</ele>
        <time>2023-01-01T11:02:41.499Z</time>
      </trkpt>
      <trkpt lat="43.847" lon="1.21417">
        <ele>166.540708</ele>
        <time>2023-01-01T11:02:43.495Z</time>
      </trkpt>
      <trkpt lat="43.84698" lon="1.21404">
        <ele>166.506685</ele>
        <time>2023-01-01T11:02:45.491Z</time>
      </trkpt>
      <trkpt lat="43.84695" lon="1.21392">
        <ele>166.471651</ele>
        <time>2023-01-01T11:02:47.498Z</time>
      </trkpt>
      <trkpt lat="43.84692" lon="1.2138">
        <ele>166.435605</ele>
        <time>2023-01-01T11:02:49.489Z</time>
      </trkpt>
      <trkpt lat="43.84688" lon="1.21367">
        <ele>166.399307</ele>
        <time>2023-01-01T11:02:51.483Z</time>
      </trkpt>
      <trkpt lat="43.84686" lon="1.21354">
        <ele>166.363884</ele>
        <time>2023-01-01T11:02:53.463Z</time>
      </trkpt>
      <trkpt lat="43.84683" lon="1.21341">
        <ele>166.3254</ele>
        <time>2023-01-01T11:02:55.471Z</time>
      </trkpt>
      <trkpt lat="43.8468" lon="1.21329">
        <ele>166.291503</ele>
        <time>2023-01-01T11:02:57.494Z</time>
      </trkpt>
      <trkpt lat="43.84677" lon="1.21316">
        <ele>166.254816</ele>
        <time>2023-01-01T11:02:59.494Z</time>
      </trkpt>
      <trkpt lat="43.84674" lon="1.21303">
        <ele>166.218055</ele>
        <time>2023-01-01T11:03:01.487Z</time>
      </trkpt>
      <trkpt lat="43.8467" lon="1.2129">
        <ele>166.180744</ele>
        <time>2023-01-01T11:03:03.482Z</time>
      </trkpt>
      <trkpt lat="43.84668" lon="1.21276">
        <ele>166.141804</ele>
        <time>2023-01-01T11:03:05.496Z</time>
      </trkpt>
      <trkpt lat="43.84665" lon="1.21263">
        <ele>166.105512</ele>
        <time>2023-01-01T11:03:07.497Z</time>
      </trkpt>
      <trkpt lat="43.84662" lon="1.21249">
        <ele>166.0768</ele>
        <time>2023-01-01T11:03:09.484Z</time>
      </trkpt>
      <trkpt lat="43.84659" lon="1.21235">
        <ele>166.118318</ele>
        <time>2023-01-01T11:03:11.475Z</time>
      </trkpt>
      <trkpt lat="43.84656" lon="1.21222">
        <ele>166.157397</ele>
        <time>2023-01-01T11:03:13.491Z</time>
      </trkpt>
      <trkpt lat="43.84653" lon="1.21208">
        <ele>166.196002</ele>
        <time>2023-01-01T11:03:15.480Z</time>
      </trkpt>
      <trkpt lat="43.8465" lon="1.21195">
        <ele>166.234994</ele>
        <time>2023-01-01T11:03:17.483Z</time>
      </trkpt>
      <trkpt lat="43.84647" lon="1.21182">
        <ele>166.273484</ele>
        <time>2023-01-01T11:03:19.493Z</time>
      </trkpt>
      <trkpt lat="43.84644" lon="1.21169">
        <ele>166.312859</ele>
        <time>2023-01-01T11:03:21.493Z</time>
      </trkpt>
      <trkpt lat="43.84641" lon="1.21156">
        <ele>166.349987</ele>
        <time>2023-01-01T11:03:23.482Z</time>
      </trkpt>
      <trkpt lat="43.84638" lon="1.21144">
        <ele>166.385801</ele>
        <time>2023-01-01T11:03:25.497Z</time>
      </trkpt>
      <trkpt lat="43.84635" lon="1.21132">
        <ele>166.422565</ele>
        <time>2023-01-01T11:03:27.486Z</time>
      </trkpt>
      <trkpt lat="43.84632" lon="1.2112">
        <ele>166.457991</ele>
        <time>2023-01-01T11:03:29.488Z</time>
      </trkpt>
      <trkpt lat="43.8463" lon="1.21108">
        <ele>166.494104</ele>
        <time>2023-01-01T11:03:31.492Z</time>
      </trkpt>
      <trkpt lat="43.84626" lon="1.21095">
        <ele>166.530966</ele>
        <time>2023-01-01T11:03:33.501Z</time>
      </trkpt>
      <trkpt lat="43.84623" lon="1.21082">
        <ele>166.569017</ele>
        <time>2023-01-01T11:03:35.495Z</time>
      </trkpt>
      <trkpt lat="43.8462" lon="1.21069">
        <ele>166.608918</ele>
        <time>2023-01-01T11:03:37.485Z</time>
      </trkpt>
      <trkpt lat="43.84616" lon="1.21056">
        <ele>166.64776</ele>
        <time>2023-01-01T11:03:39.501Z</time>
      </trkpt>
      <trkpt lat="43.84613" lon="1.21042">
        <ele>166.68913</ele>
        <time>2023-01-01T11:03:41.500Z</time>
      </trkpt>
      <trkpt lat="43.8461" lon="1.21028">
        <ele>166.731422</ele>
        <time>2023-01-01T11:03:43.495Z</time>
      </trkpt>
      <trkpt lat="43.84607" lon="1.21014">
        <ele>166.773431</ele>
        <time>2023-01-01T11:03:45.494Z</time>
      </trkpt>
      <trkpt lat="43.84603" lon="1.21">
        <ele>166.849394</ele>
        <time>2023-01-01T11:03:47.492Z</time>
      </trkpt>
      <trkpt lat="43.846" lon="1.20986">
        <ele>166.923587</ele>
        <time>2023-01-01T11:03:49.487Z</time>
      </trkpt>
      <trkpt lat="43.84597" lon="1.20974">
        <ele>166.992864</ele>
        <time>2023-01-01T11:03:51.488Z</time>
      </trkpt>
      <trkpt lat="43.84593" lon="1.20956">
        <ele>167.08794</ele>
        <time>2023-01-01T11:03:54.484Z</time>
      </trkpt>
      <trkpt lat="43.84589" lon="1.2094">
        <ele>167.178654</ele>
        <time>2023-01-01T11:03:57.551Z</time>
      </trkpt>
      <trkpt lat="43.84585" lon="1.20923">
        <ele>167.272015</ele>
        <time>2023-01-01T11:04:00.479Z</time>
      </trkpt>
      <trkpt lat="43.84583" lon="1.20911">
        <ele>167.338145</ele>
        <time>2023-01-01T11:04:02.488Z</time>
      </trkpt>
      <trkpt lat="43.8458" lon="1.20898">
        <ele>167.405681</ele>
        <time>2023-01-01T11:04:04.497Z</time>
      </trkpt>
      <trkpt lat="43.84578" lon="1.20886">
        <ele>167.473023</ele>
        <time>2023-01-01T11:04:06.500Z</time>
      </trkpt>
      <trkpt lat="43.84574" lon="1.20873">
        <ele>167.546215</ele>
        <time>2023-01-01T11:04:08.492Z</time>
      </trkpt>
      <trkpt lat="43.84571" lon="1.2086">
        <ele>167.615053</ele>
        <time>2023-01-01T11:04:10.489Z</time>
      </trkpt>
      <trkpt lat="43.84568" lon="1.20846">
        <ele>167.691921</ele>
        <time>2023-01-01T11:04:12.492Z</time>
      </trkpt>
      <trkpt lat="43.84564" lon="1.20833">
        <ele>167.76585</ele>
        <time>2023-01-01T11:04:14.494Z</time>
      </trkpt>
      <trkpt lat="43.84561" lon="1.20819">
        <ele>167.84075</ele>
        <time>2023-01-01T11:04:16.482Z</time>
      </trkpt>
      <trkpt lat="43.84558" lon="1.20806">
        <ele>167.911516</ele>
        <time>2023-01-01T11:04:18.486Z</time>
      </trkpt>
      <trkpt lat="43.84556" lon="1.20794">
        <ele>167.977174</ele>
        <time>2023-01-01T11:04:20.498Z</time>
      </trkpt>
      <trkpt lat="43.84552" lon="1.20782">
        <ele>168.048687</ele>
        <time>2023-01-01T11:04:22.497Z</time>
      </trkpt>
      <trkpt lat="43.84549" lon="1.20769">
        <ele>168.095917</ele>
        <time>2023-01-01T11:04:24.471Z</time>
      </trkpt>
      <trkpt lat="43.84547" lon="1.20756">
        <ele>168.127647</ele>
        <time>2023-01-01T11:04:26.493Z</time>
      </trkpt>
      <trkpt lat="43.84542" lon="1.20739">
        <ele>168.174754</ele>
        <time>2023-01-01T11:04:29.494Z</time>
      </trkpt>
      <trkpt lat="43.84539" lon="1.20726">
        <ele>168.207264</ele>
        <time>2023-01-01T11:04:31.469Z</time>
      </trkpt>
      <trkpt lat="43.84536" lon="1.20714">
        <ele>168.239665</ele>
        <time>2023-01-01T11:04:33.489Z</time>
      </trkpt>
      <trkpt lat="43.84533" lon="1.20701">
        <ele>168.273238</ele>
        <time>2023-01-01T11:04:35.484Z</time>
      </trkpt>
      <trkpt lat="43.8453" lon="1.20689">
        <ele>168.30509</ele>
        <time>2023-01-01T11:04:37.496Z</time>
      </trkpt>
      <trkpt lat="43.84528" lon="1.20677">
        <ele>168.33739</ele>
        <time>2023-01-01T11:04:39.491Z</time>
      </trkpt>
      <trkpt lat="43.84526" lon="1.20664">
        <ele>168.369933</ele>
        <time>2023-01-01T11:04:41.488Z</time>
      </trkpt>
      <trkpt lat="43.84522" lon="1.20652">
        <ele>168.403402</ele>
        <time>2023-01-01T11:04:43.492Z</time>
      </trkpt>
      <trkpt lat="43.84519" lon="1.20639">
        <ele>168.43732</ele>
        <time>2023-01-01T11:04:45.500Z</time>
      </trkpt>
      <trkpt lat="43.84516" lon="1.20627">
        <ele>168.46912</ele>
        <time>2023-01-01T11:04:47.486Z</time>
      </trkpt>
      <trkpt lat="43.84512" lon="1.2061">
        <ele>168.514714</ele>
        <time>2023-01-01T11:04:50.484Z</time>
      </trkpt>
      <trkpt lat="43.84507" lon="1.20593">
        <ele>168.558525</ele>
        <time>2023-01-01T11:04:53.486Z</time>
      </trkpt>
      <trkpt lat="43.84503" lon="1.20576">
        <ele>168.604578</ele>
        <time>2023-01-01T11:04:56.482Z</time>
      </trkpt>
      <trkpt lat="43.845" lon="1.20564">
        <ele>168.637453</ele>
        <time>2023-01-01T11:04:58.487Z</time>
      </trkpt>
      <trkpt lat="43.84496" lon="1.20547">
        <ele>168.682358</ele>
        <time>2023-01-01T11:05:01.493Z</time>
      </trkpt>
      <trkpt lat="43.84492" lon="1.20531">
        <ele>168.775552</ele>
        <time>2023-01-01T11:05:04.488Z</time>
      </trkpt>
      <trkpt lat="43.84489" lon="1.20517">
        <ele>168.901016</ele>
        <time>2023-01-01T11:05:07.497Z</time>
      </trkpt>
      <trkpt lat="43.84485" lon="1.20501">
        <ele>169.037365</ele>
        <time>2023-01-01T11:05:10.484Z</time>
      </trkpt>
      <trkpt lat="43.84481" lon="1.20485">
        <ele>169.175665</ele>
        <time>2023-01-01T11:05:13.498Z</time>
      </trkpt>
      <trkpt lat="43.84477" lon="1.20468">
        <ele>169.318854</ele>
        <time>2023-01-01T11:05:16.471Z</time>
      </trkpt>
      <trkpt lat="43.84474" lon="1.20451">
        <ele>169.462992</ele>
        <time>2023-01-01T11:05:19.496Z</time>
      </trkpt>
      <trkpt lat="43.8447" lon="1.20435">
        <ele>169.605474</ele>
        <time>2023-01-01T11:05:22.497Z</time>
      </trkpt>
      <trkpt lat="43.84465" lon="1.20419">
        <ele>169.74411</ele>
        <time>2023-01-01T11:05:25.483Z</time>
      </trkpt>
      <trkpt lat="43.84461" lon="1.20403">
        <ele>169.883854</ele>
        <time>2023-01-01T11:05:28.491Z</time>
      </trkpt>
      <trkpt lat="43.84457" lon="1.20387">
        <ele>170.025279</ele>
        <time>2023-01-01T11:05:31.482Z</time>
      </trkpt>
      <trkpt lat="43.84452" lon="1.2037">
        <ele>170.16616</ele>
        <time>2023-01-01T11:05:34.482Z</time>
      </trkpt>
      <trkpt lat="43.84448" lon="1.20354">
        <ele>170.310495</ele>
        <time>2023-01-01T11:05:37.492Z</time>
      </trkpt>
      <trkpt lat="43.84443" lon="1.20337">
        <ele>170.457898</ele>
        <time>2023-01-01T11:05:40.486Z</time>
      </trkpt>
      <trkpt lat="43.8444" lon="1.20318">
        <ele>170.612368</ele>
        <time>2023-01-01T11:05:43.488Z</time>
      </trkpt>
      <trkpt lat="43.84438" lon="1.20306">
        <ele>170.71686</ele>
        <time>2023-01-01T11:05:45.484Z</time>
      </trkpt>
      <trkpt lat="43.84434" lon="1.20289">
        <ele>170.654029</ele>
        <time>2023-01-01T11:05:48.486Z</time>
      </trkpt>
      <trkpt lat="43.8443" lon="1.20273">
        <ele>170.567372</ele>
        <time>2023-01-01T11:05:51.494Z</time>
      </trkpt>
      <trkpt lat="43.84427" lon="1.20258">
        <ele>170.488236</ele>
        <time>2023-01-01T11:05:54.489Z</time>
      </trkpt>
      <trkpt lat="43.84424" lon="1.20242">
        <ele>170.403457</ele>
        <time>2023-01-01T11:05:57.485Z</time>
      </trkpt>
      <trkpt lat="43.8442" lon="1.20227">
        <ele>170.318963</ele>
        <time>2023-01-01T11:06:00.479Z</time>
      </trkpt>
      <trkpt lat="43.84416" lon="1.20211">
        <ele>170.233547</ele>
        <time>2023-01-01T11:06:03.473Z</time>
      </trkpt>
      <trkpt lat="43.84411" lon="1.20194">
        <ele>170.140433</ele>
        <time>2023-01-01T11:06:06.495Z</time>
      </trkpt>
      <trkpt lat="43.84408" lon="1.20181">
        <ele>170.069683</ele>
        <time>2023-01-01T11:06:08.486Z</time>
      </trkpt>
      <trkpt lat="43.84405" lon="1.20169">
        <ele>170.005831</ele>
        <time>2023-01-01T11:06:10.481Z</time>
      </trkpt>
      <trkpt lat="43.84402" lon="1.20156">
        <ele>169.935568</ele>
        <time>2023-01-01T11:06:12.486Z</time>
      </trkpt>
      <trkpt lat="43.84399" lon="1.2014">
        <ele>169.850688</ele>
        <time>2023-01-01T11:06:15.494Z</time>
      </trkpt>
      <trkpt lat="43.84396" lon="1.20127">
        <ele>169.781331</ele>
        <time>2023-01-01T11:06:17.489Z</time>
      </trkpt>
      <trkpt lat="43.84394" lon="1.20115">
        <ele>169.716874</ele>
        <time>2023-01-01T11:06:19.498Z</time>
      </trkpt>
      <trkpt lat="43.84392" lon="1.20102">
        <ele>169.651242</ele>
        <time>2023-01-01T11:06:21.491Z</time>
      </trkpt>
      <trkpt lat="43.84388" lon="1.2009">
        <ele>169.583171</ele>
        <time>2023-01-01T11:06:23.495Z</time>
      </trkpt>
      <trkpt lat="43.84385" lon="1.20078">
        <ele>169.517046</ele>
        <time>2023-01-01T11:06:25.485Z</time>
      </trkpt>
      <trkpt lat="43.84381" lon="1.2006">
        <ele>169.560603</ele>
        <time>2023-01-01T11:06:28.489Z</time>
      </trkpt>
      <trkpt lat="43.84377" lon="1.20047">
        <ele>169.744009</ele>
        <time>2023-01-01T11:06:30.487Z</time>
      </trkpt>
      <trkpt lat="43.84374" lon="1.20029">
        <ele>169.989118</ele>
        <time>2023-01-01T11:06:33.481Z</time>
      </trkpt>
      <trkpt lat="43.84371" lon="1.20018">
        <ele>170.157358</ele>
        <time>2023-01-01T11:06:35.486Z</time>
      </trkpt>
      <trkpt lat="43.84367" lon="1.2">
        <ele>170.402113</ele>
        <time>2023-01-01T11:06:38.486Z</time>
      </trkpt>
      <trkpt lat="43.84362" lon="1.19983">
        <ele>170.646182</ele>
        <time>2023-01-01T11:06:41.500Z</time>
      </trkpt>
      <trkpt lat="43.8436" lon="1.19971">
        <ele>170.816283</ele>
        <time>2023-01-01T11:06:43.475Z</time>
      </trkpt>
      <trkpt lat="43.84355" lon="1.19954">
        <ele>171.062316</ele>
        <time>2023-01-01T11:06:46.466Z</time>
      </trkpt>
      <trkpt lat="43.84352" lon="1.19939">
        <ele>171.274733</ele>
        <time>2023-01-01T11:06:49.485Z</time>
      </trkpt>
      <trkpt lat="43.84349" lon="1.19925">
        <ele>171.465157</ele>
        <time>2023-01-01T11:06:52.484Z</time>
      </trkpt>
      <trkpt lat="43.84345" lon="1.19912">
        <ele>171.655446</ele>
        <time>2023-01-01T11:06:55.470Z</time>
      </trkpt>
      <trkpt lat="43.84342" lon="1.19898">
        <ele>171.853996</ele>
        <time>2023-01-01T11:06:58.479Z</time>
      </trkpt>
      <trkpt lat="43.84338" lon="1.19884">
        <ele>172.05765</ele>
        <time>2023-01-01T11:07:01.499Z</time>
      </trkpt>
      <trkpt lat="43.84335" lon="1.1987">
        <ele>172.258055</ele>
        <time>2023-01-01T11:07:04.491Z</time>
      </trkpt>
      <trkpt lat="43.84331" lon="1.19856">
        <ele>172.456019</ele>
        <time>2023-01-01T11:07:07.484Z</time>
      </trkpt>
      <trkpt lat="43.84328" lon="1.19842">
        <ele>172.652858</ele>
        <time>2023-01-01T11:07:10.499Z</time>
      </trkpt>
      <trkpt lat="43.84324" lon="1.19827">
        <ele>172.840217</ele>
        <time>2023-01-01T11:07:13.497Z</time>
      </trkpt>
      <trkpt lat="43.84321" lon="1.19812">
        <ele>172.972141</ele>
        <time>2023-01-01T11:07:16.495Z</time>
      </trkpt>
      <trkpt lat="43.84317" lon="1.19798">
        <ele>173.09722</ele>
        <time>2023-01-01T11:07:19.499Z</time>
      </trkpt>
      <trkpt lat="43.84314" lon="1.19783">
        <ele>173.230249</ele>
        <time>2023-01-01T11:07:23.490Z</time>
      </trkpt>
      <trkpt lat="43.84312" lon="1.1977">
        <ele>173.343316</ele>
        <time>2023-01-01T11:07:27.478Z</time>
      </trkpt>
      <trkpt lat="43.84308" lon="1.19755">
        <ele>173.482035</ele>
        <time>2023-01-01T11:07:31.473Z</time>
      </trkpt>
      <trkpt lat="43.84305" lon="1.19742">
        <ele>173.596816</ele>
        <time>2023-01-01T11:07:34.495Z</time>
      </trkpt>
      <trkpt lat="43.84302" lon="1.19728">
        <ele>173.718378</ele>
        <time>2023-01-01T11:07:37.486Z</time>
      </trkpt>
      <trkpt lat="43.84298" lon="1.19715">
        <ele>173.838355</ele>
        <time>2023-01-01T11:07:40.492Z</time>
      </trkpt>
      <trkpt lat="43.84295" lon="1.19701">
        <ele>173.964233</ele>
        <time>2023-01-01T11:07:44.485Z</time>
      </trkpt>
      <trkpt lat="43.84292" lon="1.19688">
        <ele>174.074724</ele>
        <time>2023-01-01T11:07:48.493Z</time>
      </trkpt>
      <trkpt lat="43.84289" lon="1.19674">
        <ele>174.196872</ele>
        <time>2023-01-01T11:07:52.486Z</time>
      </trkpt>
      <trkpt lat="43.84286" lon="1.19662">
        <ele>174.308977</ele>
        <time>2023-01-01T11:07:56.490Z</time>
      </trkpt>
      <trkpt lat="43.84283" lon="1.19649">
        <ele>174.423394</ele>
        <time>2023-01-01T11:08:00.471Z</time>
      </trkpt>
      <trkpt lat="43.84281" lon="1.19637">
        <ele>174.529645</ele>
        <time>2023-01-01T11:08:04.492Z</time>
      </trkpt>
      <trkpt lat="43.84277" lon="1.19622">
        <ele>174.658333</ele>
        <time>2023-01-01T11:08:09.475Z</time>
      </trkpt>
      <trkpt lat="43.84273" lon="1.19609">
        <ele>174.779834</ele>
        <time>2023-01-01T11:08:14.483Z</time>
      </trkpt>
      <trkpt lat="43.84271" lon="1.19596">
        <ele>174.891277</ele>
        <time>2023-01-01T11:08:18.480Z</time>
      </trkpt>
      <trkpt lat="43.84267" lon="1.19583">
        <ele>174.988794</ele>
        <time>2023-01-01T11:08:23.486Z</time>
      </trkpt>
      <trkpt lat="43.84264" lon="1.1957">
        <ele>175.081705</ele>
        <time>2023-01-01T11:08:28.472Z</time>
      </trkpt>
      <trkpt lat="43.84261" lon="1.19556">
        <ele>175.179753</ele>
        <time>2023-01-01T11:08:33.496Z</time>
      </trkpt>
      <trkpt lat="43.84259" lon="1.19542">
        <ele>175.279419</ele>
        <time>2023-01-01T11:08:38.481Z</time>
      </trkpt>
      <trkpt lat="43.84256" lon="1.19529">
        <ele>175.366982</ele>
        <time>2023-01-01T11:08:42.467Z</time>
      </trkpt>
      <trkpt lat="43.84254" lon="1.19514">
        <ele>175.472304</ele>
        <time>2023-01-01T11:08:46.473Z</time>
      </trkpt>
      <trkpt lat="43.84251" lon="1.19502">
        <ele>175.559224</ele>
        <time>2023-01-01T11:08:49.497Z</time>
      </trkpt>
      <trkpt lat="43.84248" lon="1.1949">
        <ele>175.644307</ele>
        <time>2023-01-01T11:08:52.490Z</time>
      </trkpt>
      <trkpt lat="43.84245" lon="1.19474">
        <ele>175.755614</ele>
        <time>2023-01-01T11:08:56.499Z</time>
      </trkpt>
      <trkpt lat="43.84242" lon="1.19461">
        <ele>175.846672</ele>
        <time>2023-01-01T11:08:59.488Z</time>
      </trkpt>
      <trkpt lat="43.84239" lon="1.19448">
        <ele>175.940582</ele>
        <time>2023-01-01T11:09:02.483Z</time>
      </trkpt>
      <trkpt lat="43.84236" lon="1.19433">
        <ele>176.041706</ele>
        <time>2023-01-01T11:09:05.500Z</time>
      </trkpt>
      <trkpt lat="43.84232" lon="1.19419">
        <ele>176.146306</ele>
        <time>2023-01-01T11:09:08.493Z</time>
      </trkpt>
      <trkpt lat="43.84229" lon="1.19405">
        <ele>176.243004</ele>
        <time>2023-01-01T11:09:11.476Z</time>
      </trkpt>
      <trkpt lat="43.84226" lon="1.19391">
        <ele>176.340014</ele>
        <time>2023-01-01T11:09:14.495Z</time>
      </trkpt>
      <trkpt lat="43.84224" lon="1.19377">
        <ele>176.43415</ele>
        <time>2023-01-01T11:09:17.499Z</time>
      </trkpt>
      <trkpt lat="43.84219" lon="1.19362">
        <ele>176.544363</ele>
        <time>2023-01-01T11:09:21.496Z</time>
      </trkpt>
      <trkpt lat="43.84216" lon="1.1935">
        <ele>176.813175</ele>
        <time>2023-01-01T11:09:25.496Z</time>
      </trkpt>
      <trkpt lat="43.84212" lon="1.19336">
        <ele>177.377188</ele>
        <time>2023-01-01T11:09:29.490Z</time>
      </trkpt>
      <trkpt lat="43.84208" lon="1.19324">
        <ele>177.858379</ele>
        <time>2023-01-01T11:09:32.500Z</time>
      </trkpt>
      <trkpt lat="43.84205" lon="1.19312">
        <ele>178.354821</ele>
        <time>2023-01-01T11:09:35.480Z</time>
      </trkpt>
      <trkpt lat="43.84202" lon="1.19299">
        <ele>178.835364</ele>
        <time>2023-01-01T11:09:38.480Z</time>
      </trkpt>
      <trkpt lat="43.84199" lon="1.19286">
        <ele>179.365323</ele>
        <time>2023-01-01T11:09:41.492Z</time>
      </trkpt>
      <trkpt lat="43.84196" lon="1.19273">
        <ele>179.881218</ele>
        <time>2023-01-01T11:09:44.487Z</time>
      </trkpt>
      <trkpt lat="43.84193" lon="1.19258">
        <ele>180.483125</ele>
        <time>2023-01-01T11:09:48.493Z</time>
      </trkpt>
      <trkpt lat="43.84189" lon="1.19245">
        <ele>181.018864</ele>
        <time>2023-01-01T11:09:52.497Z</time>
      </trkpt>
      <trkpt lat="43.84185" lon="1.19232">
        <ele>181.50471</ele>
        <time>2023-01-01T11:09:56.489Z</time>
      </trkpt>
      <trkpt lat="43.84183" lon="1.1922">
        <ele>181.990403</ele>
        <time>2023-01-01T11:10:00.489Z</time>
      </trkpt>
      <trkpt lat="43.8418" lon="1.19206">
        <ele>182.552162</ele>
        <time>2023-01-01T11:10:05.488Z</time>
      </trkpt>
      <trkpt lat="43.84176" lon="1.19192">
        <ele>183.116178</ele>
        <time>2023-01-01T11:10:10.483Z</time>
      </trkpt>
      <trkpt lat="43.84172" lon="1.19178">
        <ele>183.663874</ele>
        <time>2023-01-01T11:10:16.476Z</time>
      </trkpt>
      <trkpt lat="43.8417" lon="1.19164">
        <ele>184.192293</ele>
        <time>2023-01-01T11:10:22.470Z</time>
      </trkpt>
      <trkpt lat="43.84166" lon="1.19152">
        <ele>184.67463</ele>
        <time>2023-01-01T11:10:27.480Z</time>
      </trkpt>
      <trkpt lat="43.84163" lon="1.19139">
        <ele>185.205176</ele>
        <time>2023-01-01T11:10:32.470Z</time>
      </trkpt>
      <trkpt lat="43.8416" lon="1.19127">
        <ele>185.691188</ele>
        <time>2023-01-01T11:10:37.473Z</time>
      </trkpt>
      <trkpt lat="43.84157" lon="1.19115">
        <ele>186.170927</ele>
        <time>2023-01-01T11:10:43.476Z</time>
      </trkpt>
      <trkpt lat="43.84154" lon="1.19101">
        <ele>186.686331</ele>
        <time>2023-01-01T11:10:49.500Z</time>
      </trkpt>
      <trkpt lat="43.84151" lon="1.19087">
        <ele>187.196285</ele>
        <time>2023-01-01T11:10:55.475Z</time>
      </trkpt>
      <trkpt lat="43.84149" lon="1.19075">
        <ele>187.646264</ele>
        <time>2023-01-01T11:11:00.473Z</time>
      </trkpt>
      <trkpt lat="43.84145" lon="1.19063">
        <ele>188.131328</ele>
        <time>2023-01-01T11:11:06.478Z</time>
      </trkpt>
      <trkpt lat="43.84142" lon="1.1905">
        <ele>188.605574</ele>
        <time>2023-01-01T11:11:12.475Z</time>
      </trkpt>
      <trkpt lat="43.84139" lon="1.19038">
        <ele>189.053451</ele>
        <time>2023-01-01T11:11:17.478Z</time>
      </trkpt>
      <trkpt lat="43.84136" lon="1.19025">
        <ele>189.536047</ele>
        <time>2023-01-01T11:11:22.471Z</time>
      </trkpt>
      <trkpt lat="43.84132" lon="1.19014">
        <ele>189.99615</ele>
        <time>2023-01-01T11:11:27.499Z</time>
      </trkpt>
      <trkpt lat="43.8413" lon="1.19002">
        <ele>190.445432</ele>
        <time>2023-01-01T11:11:32.493Z</time>
      </trkpt>
      <trkpt lat="43.84127" lon="1.18988">
        <ele>190.967132</ele>
        <time>2023-01-01T11:11:38.480Z</time>
      </trkpt>
      <trkpt lat="43.84124" lon="1.18974">
        <ele>191.477088</ele>
        <time>2023-01-01T11:11:43.498Z</time>
      </trkpt>
      <trkpt lat="43.84121" lon="1.1896">
        <ele>192.011668</ele>
        <time>2023-01-01T11:11:48.487Z</time>
      </trkpt>
      <trkpt lat="43.84119" lon="1.18945">
        <ele>192.547425</ele>
        <time>2023-01-01T11:11:53.465Z</time>
      </trkpt>
      <trkpt lat="43.84116" lon="1.18932">
        <ele>193.031933</ele>
        <time>2023-01-01T11:11:57.492Z</time>
      </trkpt>
      <trkpt lat="43.84113" lon="1.18918">
        <ele>193.542134</ele>
        <time>2023-01-01T11:12:02.486Z</time>
      </trkpt>
      <trkpt lat="43.8411" lon="1.18905">
        <ele>194.054873</ele>
        <time>2023-01-01T11:12:06.470Z</time>
      </trkpt>
      <trkpt lat="43.84106" lon="1.18893">
        <ele>194.505341</ele>
        <time>2023-01-01T11:12:09.470Z</time>
      </trkpt>
      <trkpt lat="43.84103" lon="1.18881">
        <ele>194.929212</ele>
        <time>2023-01-01T11:12:12.478Z</time>
      </trkpt>
      <trkpt lat="43.84101" lon="1.18868">
        <ele>195.127799</ele>
        <time>2023-01-01T11:12:15.498Z</time>
      </trkpt>
      <trkpt lat="43.84097" lon="1.18854">
        <ele>195.336591</ele>
        <time>2023-01-01T11:12:18.489Z</time>
      </trkpt>
      <trkpt lat="43.84093" lon="1.1884">
        <ele>195.538118</ele>
        <time>2023-01-01T11:12:21.497Z</time>
      </trkpt>
      <trkpt lat="43.8409" lon="1.18827">
        <ele>195.742943</ele>
        <time>2023-01-01T11:12:24.496Z</time>
      </trkpt>
      <trkpt lat="43.84086" lon="1.18811">
        <ele>195.979745</ele>
        <time>2023-01-01T11:12:27.488Z</time>
      </trkpt>
      <trkpt lat="43.84083" lon="1.18795">
        <ele>196.214763</ele>
        <time>2023-01-01T11:12:30.480Z</time>
      </trkpt>
      <trkpt lat="43.84079" lon="1.18779">
        <ele>196.45306</ele>
        <time>2023-01-01T11:12:33.495Z</time>
      </trkpt>
      <trkpt lat="43.84076" lon="1.18762">
        <ele>196.697853</ele>
        <time>2023-01-01T11:12:36.469Z</time>
      </trkpt>
      <trkpt lat="43.84072" lon="1.18746">
        <ele>196.94003</ele>
        <time>2023-01-01T11:12:39.481Z</time>
      </trkpt>
      <trkpt lat="43.84068" lon="1.18729">
        <ele>197.179911</ele>
        <time>2023-01-01T11:12:42.489Z</time>
      </trkpt>
      <trkpt lat="43.84065" lon="1.18712">
        <ele>197.432873</ele>
        <time>2023-01-01T11:12:45.480Z</time>
      </trkpt>
      <trkpt lat="43.84061" lon="1.18694">
        <ele>197.698309</ele>
        <time>2023-01-01T11:12:48.496Z</time>
      </trkpt>
      <trkpt lat="43.84057" lon="1.18677">
        <ele>197.954407</ele>
        <time>2023-01-01T11:12:51.478Z</time>
      </trkpt>
      <trkpt lat="43.84054" lon="1.18665">
        <ele>198.132349</ele>
        <time>2023-01-01T11:12:53.487Z</time>
      </trkpt>
      <trkpt lat="43.84052" lon="1.18652">
        <ele>198.319825</ele>
        <time>2023-01-01T11:12:55.472Z</time>
      </trkpt>
      <trkpt lat="43.84048" lon="1.1864">
        <ele>198.412872</ele>
        <time>2023-01-01T11:12:57.496Z</time>
      </trkpt>
      <trkpt lat="43.84045" lon="1.18627">
        <ele>198.368132</ele>
        <time>2023-01-01T11:12:59.501Z</time>
      </trkpt>
      <trkpt lat="43.84042" lon="1.18613">
        <ele>198.321982</ele>
        <time>2023-01-01T11:13:01.471Z</time>
      </trkpt>
      <trkpt lat="43.84039" lon="1.186">
        <ele>198.277973</ele>
        <time>2023-01-01T11:13:03.492Z</time>
      </trkpt>
      <trkpt lat="43.84036" lon="1.18586">
        <ele>198.231888</ele>
        <time>2023-01-01T11:13:05.473Z</time>
      </trkpt>
      <trkpt lat="43.84032" lon="1.18573">
        <ele>198.185351</ele>
        <time>2023-01-01T11:13:07.494Z</time>
      </trkpt>
      <trkpt lat="43.84029" lon="1.18559">
        <ele>198.139408</ele>
        <time>2023-01-01T11:13:09.469Z</time>
      </trkpt>
      <trkpt lat="43.84025" lon="1.18546">
        <ele>198.093776</ele>
        <time>2023-01-01T11:13:11.492Z</time>
      </trkpt>
      <trkpt lat="43.84022" lon="1.18533">
        <ele>198.050948</ele>
        <time>2023-01-01T11:13:13.501Z</time>
      </trkpt>
      <trkpt lat="43.84018" lon="1.18516">
        <ele>197.994266</ele>
        <time>2023-01-01T11:13:16.475Z</time>
      </trkpt>
      <trkpt lat="43.84015" lon="1.18501">
        <ele>197.941848</ele>
        <time>2023-01-01T11:13:19.497Z</time>
      </trkpt>
      <trkpt lat="43.84011" lon="1.18485">
        <ele>197.889708</ele>
        <time>2023-01-01T11:13:22.488Z</time>
      </trkpt>
      <trkpt lat="43.84006" lon="1.18469">
        <ele>197.832905</ele>
        <time>2023-01-01T11:13:25.496Z</time>
      </trkpt>
      <trkpt lat="43.84003" lon="1.18456">
        <ele>197.789176</ele>
        <time>2023-01-01T11:13:27.498Z</time>
      </trkpt>
      <trkpt lat="43.84" lon="1.18444">
        <ele>197.748621</ele>
        <time>2023-01-01T11:13:29.502Z</time>
      </trkpt>
      <trkpt lat="43.83997" lon="1.18432">
        <ele>197.707016</ele>
        <time>2023-01-01T11:13:31.482Z</time>
      </trkpt>
      <trkpt lat="43.83995" lon="1.18419">
        <ele>197.664555</ele>
        <time>2023-01-01T11:13:33.497Z</time>
      </trkpt>
      <trkpt lat="43.83992" lon="1.18406">
        <ele>197.612674</ele>
        <time>2023-01-01T11:13:35.501Z</time>
      </trkpt>
      <trkpt lat="43.83989" lon="1.18394">
        <ele>197.53183</ele>
        <time>2023-01-01T11:13:37.478Z</time>
      </trkpt>
      <trkpt lat="43.83986" lon="1.18382">
        <ele>197.448522</ele>
        <time>2023-01-01T11:13:39.497Z</time>
      </trkpt>
      <trkpt lat="43.83982" lon="1.18365">
        <ele>197.335926</ele>
        <time>2023-01-01T11:13:42.485Z</time>
      </trkpt>
      <trkpt lat="43.83978" lon="1.18347">
        <ele>197.213774</ele>
        <time>2023-01-01T11:13:45.481Z</time>
      </trkpt>
      <trkpt lat="43.83975" lon="1.18335">
        <ele>197.131153</ele>
        <time>2023-01-01T11:13:47.499Z</time>
      </trkpt>
      <trkpt lat="43.83971" lon="1.18322">
        <ele>197.043407</ele>
        <time>2023-01-01T11:13:49.488Z</time>
      </trkpt>
      <trkpt lat="43.83968" lon="1.18308">
        <ele>196.951019</ele>
        <time>2023-01-01T11:13:51.500Z</time>
      </trkpt>
      <trkpt lat="43.83965" lon="1.18295">
        <ele>196.860833</ele>
        <time>2023-01-01T11:13:53.497Z</time>
      </trkpt>
      <trkpt lat="43.83962" lon="1.18281">
        <ele>196.766695</ele>
        <time>2023-01-01T11:13:55.492Z</time>
      </trkpt>
      <trkpt lat="43.83959" lon="1.18267">
        <ele>196.675789</ele>
        <time>2023-01-01T11:13:57.490Z</time>
      </trkpt>
      <trkpt lat="43.83956" lon="1.18255">
        <ele>196.594982</ele>
        <time>2023-01-01T11:13:59.473Z</time>
      </trkpt>
      <trkpt lat="43.83952" lon="1.1824">
        <ele>196.487612</ele>
        <time>2023-01-01T11:14:02.475Z</time>
      </trkpt>
      <trkpt lat="43.83948" lon="1.18224">
        <ele>196.381308</ele>
        <time>2023-01-01T11:14:05.495Z</time>
      </trkpt>
      <trkpt lat="43.83944" lon="1.18206">
        <ele>196.260711</ele>
        <time>2023-01-01T11:14:08.496Z</time>
      </trkpt>
      <trkpt lat="43.8394" lon="1.18188">
        <ele>196.140851</ele>
        <time>2023-01-01T11:14:11.489Z</time>
      </trkpt>
      <trkpt lat="43.83937" lon="1.18175">
        <ele>196.052749</ele>
        <time>2023-01-01T11:14:13.489Z</time>
      </trkpt>
      <trkpt lat="43.83934" lon="1.18163">
        <ele>196.089975</ele>
        <time>2023-01-01T11:14:15.499Z</time>
      </trkpt>
      <trkpt lat="43.83931" lon="1.1815">
        <ele>196.165554</ele>
        <time>2023-01-01T11:14:17.493Z</time>
      </trkpt>
      <trkpt lat="43.83928" lon="1.18138">
        <ele>196.237357</ele>
        <time>2023-01-01T11:14:19.485Z</time>
      </trkpt>
      <trkpt lat="43.83925" lon="1.18125">
        <ele>196.312629</ele>
        <time>2023-01-01T11:14:21.499Z</time>
      </trkpt>
      <trkpt lat="43.83923" lon="1.18112">
        <ele>196.386587</ele>
        <time>2023-01-01T11:14:23.485Z</time>
      </trkpt>
      <trkpt lat="43.8392" lon="1.181">
        <ele>196.459883</ele>
        <time>2023-01-01T11:14:25.497Z</time>
      </trkpt>
      <trkpt lat="43.83917" lon="1.18087">
        <ele>196.538567</ele>
        <time>2023-01-01T11:14:27.488Z</time>
      </trkpt>
      <trkpt lat="43.83913" lon="1.18075">
        <ele>196.610138</ele>
        <time>2023-01-01T11:14:29.491Z</time>
      </trkpt>
      <trkpt lat="43.83911" lon="1.18063">
        <ele>196.682841</ele>
        <time>2023-01-01T11:14:31.497Z</time>
      </trkpt>
      <trkpt lat="43.83908" lon="1.18051">
        <ele>196.75593</ele>
        <time>2023-01-01T11:14:33.503Z</time>
      </trkpt>
      <trkpt lat="43.83905" lon="1.18038">
        <ele>196.830085</ele>
        <time>2023-01-01T11:14:35.475Z</time>
      </trkpt>
      <trkpt lat="43.83902" lon="1.18024">
        <ele>196.911217</ele>
        <time>2023-01-01T11:14:37.501Z</time>
      </trkpt>
      <trkpt lat="43.83899" lon="1.1801">
        <ele>196.993451</ele>
        <time>2023-01-01T11:14:39.499Z</time>
      </trkpt>
      <trkpt lat="43.83896" lon="1.17997">
        <ele>197.072674</ele>
        <time>2023-01-01T11:14:41.498Z</time>
      </trkpt>
      <trkpt lat="43.83892" lon="1.17983">
        <ele>197.155609</ele>
        <time>2023-01-01T11:14:43.494Z</time>
      </trkpt>
      <trkpt lat="43.83889" lon="1.17968">
        <ele>197.243584</ele>
        <time>2023-01-01T11:14:45.487Z</time>
      </trkpt>
      <trkpt lat="43.83885" lon="1.17954">
        <ele>197.333148</ele>
        <time>2023-01-01T11:14:47.489Z</time>
      </trkpt>
      <trkpt lat="43.83881" lon="1.17939">
        <ele>197.421121</ele>
        <time>2023-01-01T11:14:49.495Z</time>
      </trkpt>
      <trkpt lat="43.83877" lon="1.17924">
        <ele>197.232378</ele>
        <time>2023-01-01T11:14:51.502Z</time>
      </trkpt>
      <trkpt lat="43.83874" lon="1.1791">
        <ele>196.971186</ele>
        <time>2023-01-01T11:14:53.493Z</time>
      </trkpt>
      <trkpt lat="43.83871" lon="1.17896">
        <ele>196.704934</ele>
        <time>2023-01-01T11:14:55.474Z</time>
      </trkpt>
      <trkpt lat="43.83867" lon="1.17881">
        <ele>196.420324</ele>
        <time>2023-01-01T11:14:57.466Z</time>
      </trkpt>
      <trkpt lat="43.83863" lon="1.17865">
        <ele>196.121446</ele>
        <time>2023-01-01T11:14:59.478Z</time>
      </trkpt>
      <trkpt lat="43.8386" lon="1.17849">
        <ele>195.826183</ele>
        <time>2023-01-01T11:15:01.475Z</time>
      </trkpt>
      <trkpt lat="43.83856" lon="1.17833">
        <ele>195.534038</ele>
        <time>2023-01-01T11:15:03.495Z</time>
      </trkpt>
      <trkpt lat="43.83852" lon="1.17817">
        <ele>195.227181</ele>
        <time>2023-01-01T11:15:05.497Z</time>
      </trkpt>
      <trkpt lat="43.83848" lon="1.17801">
        <ele>194.929255</ele>
        <time>2023-01-01T11:15:07.493Z</time>
      </trkpt>
      <trkpt lat="43.83845" lon="1.17785">
        <ele>194.639105</ele>
        <time>2023-01-01T11:15:09.484Z</time>
      </trkpt>
      <trkpt lat="43.83841" lon="1.1777">
        <ele>194.361186</ele>
        <time>2023-01-01T11:15:11.498Z</time>
      </trkpt>
      <trkpt lat="43.83838" lon="1.17756">
        <ele>194.098288</ele>
        <time>2023-01-01T11:15:13.496Z</time>
      </trkpt>
      <trkpt lat="43.83835" lon="1.17743">
        <ele>193.852082</ele>
        <time>2023-01-01T11:15:15.494Z</time>
      </trkpt>
      <trkpt lat="43.83832" lon="1.1773">
        <ele>193.602398</ele>
        <time>2023-01-01T11:15:17.491Z</time>
      </trkpt>
      <trkpt lat="43.83829" lon="1.17716">
        <ele>193.343656</ele>
        <time>2023-01-01T11:15:19.495Z</time>
      </trkpt>
      <trkpt lat="43.83825" lon="1.17702">
        <ele>193.089838</ele>
        <time>2023-01-01T11:15:21.495Z</time>
      </trkpt>
      <trkpt lat="43.83822" lon="1.17689">
        <ele>193.038474</ele>
        <time>2023-01-01T11:15:23.473Z</time>
      </trkpt>
      <trkpt lat="43.83819" lon="1.17674">
        <ele>193.07102</ele>
        <time>2023-01-01T11:15:25.475Z</time>
      </trkpt>
      <trkpt lat="43.83815" lon="1.17659">
        <ele>193.103606</ele>
        <time>2023-01-01T11:15:27.487Z</time>
      </trkpt>
      <trkpt lat="43.83812" lon="1.17643">
        <ele>193.137222</ele>
        <time>2023-01-01T11:15:29.485Z</time>
      </trkpt>
      <trkpt lat="43.83808" lon="1.17629">
        <ele>193.167948</ele>
        <time>2023-01-01T11:15:31.490Z</time>
      </trkpt>
      <trkpt lat="43.83805" lon="1.17615">
        <ele>193.198842</ele>
        <time>2023-01-01T11:15:33.491Z</time>
      </trkpt>
      <trkpt lat="43.83801" lon="1.17601">
        <ele>193.228672</ele>
        <time>2023-01-01T11:15:35.487Z</time>
      </trkpt>
      <trkpt lat="43.83798" lon="1.17588">
        <ele>193.257138</ele>
        <time>2023-01-01T11:15:37.468Z</time>
      </trkpt>
      <trkpt lat="43.83794" lon="1.17576">
        <ele>193.28532</ele>
        <time>2023-01-01T11:15:39.495Z</time>
      </trkpt>
      <trkpt lat="43.83791" lon="1.17564">
        <ele>193.312035</ele>
        <time>2023-01-01T11:15:41.499Z</time>
      </trkpt>
      <trkpt lat="43.83788" lon="1.17551">
        <ele>193.338652</ele>
        <time>2023-01-01T11:15:43.501Z</time>
      </trkpt>
      <trkpt lat="43.83785" lon="1.17539">
        <ele>193.364846</ele>
        <time>2023-01-01T11:15:45.505Z</time>
      </trkpt>
      <trkpt lat="43.83781" lon="1.17522">
        <ele>193.403801</ele>
        <time>2023-01-01T11:15:48.498Z</time>
      </trkpt>
      <trkpt lat="43.83778" lon="1.1751">
        <ele>193.429679</ele>
        <time>2023-01-01T11:15:50.487Z</time>
      </trkpt>
      <trkpt lat="43.83775" lon="1.17498">
        <ele>193.455817</ele>
        <time>2023-01-01T11:15:52.494Z</time>
      </trkpt>
      <trkpt lat="43.83771" lon="1.1748">
        <ele>193.494437</ele>
        <time>2023-01-01T11:15:55.501Z</time>
      </trkpt>
      <trkpt lat="43.83767" lon="1.17462">
        <ele>193.532529</ele>
        <time>2023-01-01T11:15:58.474Z</time>
      </trkpt>
      <trkpt lat="43.83764" lon="1.1745">
        <ele>193.544611</ele>
        <time>2023-01-01T11:16:00.492Z</time>
      </trkpt>
      <trkpt lat="43.83761" lon="1.17438">
        <ele>193.556381</ele>
        <time>2023-01-01T11:16:02.476Z</time>
      </trkpt>
      <trkpt lat="43.83757" lon="1.17426">
        <ele>193.568506</ele>
        <time>2023-01-01T11:16:04.492Z</time>
      </trkpt>
      <trkpt lat="43.83755" lon="1.17414">
        <ele>193.580096</ele>
        <time>2023-01-01T11:16:06.498Z</time>
      </trkpt>
      <trkpt lat="43.83753" lon="1.17401">
        <ele>193.592207</ele>
        <time>2023-01-01T11:16:08.489Z</time>
      </trkpt>
      <trkpt lat="43.83751" lon="1.17389">
        <ele>193.604032</ele>
        <time>2023-01-01T11:16:10.472Z</time>
      </trkpt>
      <trkpt lat="43.83748" lon="1.17376">
        <ele>193.616521</ele>
        <time>2023-01-01T11:16:12.498Z</time>
      </trkpt>
      <trkpt lat="43.83745" lon="1.17364">
        <ele>193.628488</ele>
        <time>2023-01-01T11:16:14.492Z</time>
      </trkpt>
      <trkpt lat="43.83742" lon="1.17352">
        <ele>193.640654</ele>
        <time>2023-01-01T11:16:16.477Z</time>
      </trkpt>
      <trkpt lat="43.83739" lon="1.17339">
        <ele>193.653043</ele>
        <time>2023-01-01T11:16:18.486Z</time>
      </trkpt>
      <trkpt lat="43.83736" lon="1.17327">
        <ele>193.66473</ele>
        <time>2023-01-01T11:16:20.480Z</time>
      </trkpt>
      <trkpt lat="43.83733" lon="1.17315">
        <ele>193.67703</ele>
        <time>2023-01-01T11:16:22.473Z</time>
      </trkpt>
      <trkpt lat="43.83731" lon="1.17302">
        <ele>193.688984</ele>
        <time>2023-01-01T11:16:24.493Z</time>
      </trkpt>
      <trkpt lat="43.83728" lon="1.17291">
        <ele>193.700667</ele>
        <time>2023-01-01T11:16:26.495Z</time>
      </trkpt>
      <trkpt lat="43.83725" lon="1.17279">
        <ele>193.712384</ele>
        <time>2023-01-01T11:16:28.489Z</time>
      </trkpt>
      <trkpt lat="43.83722" lon="1.17266">
        <ele>193.724685</ele>
        <time>2023-01-01T11:16:30.481Z</time>
      </trkpt>
      <trkpt lat="43.83719" lon="1.17254">
        <ele>193.736543</ele>
        <time>2023-01-01T11:16:32.480Z</time>
      </trkpt>
      <trkpt lat="43.83717" lon="1.17242">
        <ele>193.748654</ele>
        <time>2023-01-01T11:16:34.497Z</time>
      </trkpt>
      <trkpt lat="43.83712" lon="1.17225">
        <ele>193.765079</ele>
        <time>2023-01-01T11:16:37.496Z</time>
      </trkpt>
      <trkpt lat="43.83707" lon="1.1721">
        <ele>193.973213</ele>
        <time>2023-01-01T11:16:40.498Z</time>
      </trkpt>
      <trkpt lat="43.83704" lon="1.17193">
        <ele>194.189604</ele>
        <time>2023-01-01T11:16:43.488Z</time>
      </trkpt>
      <trkpt lat="43.837" lon="1.17178">
        <ele>194.395603</ele>
        <time>2023-01-01T11:16:46.467Z</time>
      </trkpt>
      <trkpt lat="43.83696" lon="1.17163">
        <ele>194.598649</ele>
        <time>2023-01-01T11:16:49.501Z</time>
      </trkpt>
      <trkpt lat="43.83692" lon="1.17149">
        <ele>194.78581</ele>
        <time>2023-01-01T11:16:52.475Z</time>
      </trkpt>
      <trkpt lat="43.83689" lon="1.17136">
        <ele>194.951828</ele>
        <time>2023-01-01T11:16:55.459Z</time>
      </trkpt>
      <trkpt lat="43.83686" lon="1.17129">
        <ele>195.05658</ele>
        <time>2023-01-01T11:17:27.082Z</time>
      </trkpt>
      <trkpt lat="43.83681" lon="1.17109">
        <ele>195.320819</ele>
        <time>2023-01-01T11:23:17.471Z</time>
      </trkpt>
      <trkpt lat="43.83676" lon="1.17095">
        <ele>195.514522</ele>
        <time>2023-01-01T11:23:21.468Z</time>
      </trkpt>
      <trkpt lat="43.83673" lon="1.17082">
        <ele>195.685206</ele>
        <time>2023-01-01T11:23:24.490Z</time>
      </trkpt>
      <trkpt lat="43.8367" lon="1.17067">
        <ele>195.875889</ele>
        <time>2023-01-01T11:23:27.484Z</time>
      </trkpt>
      <trkpt lat="43.83667" lon="1.17051">
        <ele>196.079557</ele>
        <time>2023-01-01T11:23:30.496Z</time>
      </trkpt>
      <trkpt lat="43.83664" lon="1.17035">
        <ele>196.286404</ele>
        <time>2023-01-01T11:23:33.496Z</time>
      </trkpt>
      <trkpt lat="43.83661" lon="1.1702">
        <ele>196.486044</ele>
        <time>2023-01-01T11:23:36.497Z</time>
      </trkpt>
      <trkpt lat="43.83657" lon="1.17004">
        <ele>196.690979</ele>
        <time>2023-01-01T11:23:39.471Z</time>
      </trkpt>
      <trkpt lat="43.83653" lon="1.16988">
        <ele>196.890518</ele>
        <time>2023-01-01T11:23:42.499Z</time>
      </trkpt>
      <trkpt lat="43.83649" lon="1.16972">
        <ele>196.94742</ele>
        <time>2023-01-01T11:23:45.500Z</time>
      </trkpt>
      <trkpt lat="43.83645" lon="1.16956">
        <ele>197.003837</ele>
        <time>2023-01-01T11:23:48.465Z</time>
      </trkpt>
      <trkpt lat="43.83642" lon="1.16939">
        <ele>197.060915</ele>
        <time>2023-01-01T11:23:51.497Z</time>
      </trkpt>
      <trkpt lat="43.83638" lon="1.16923">
        <ele>197.117364</ele>
        <time>2023-01-01T11:23:54.498Z</time>
      </trkpt>
      <trkpt lat="43.83634" lon="1.16906">
        <ele>197.175325</ele>
        <time>2023-01-01T11:23:57.496Z</time>
      </trkpt>
      <trkpt lat="43.8363" lon="1.16889">
        <ele>197.234395</ele>
        <time>2023-01-01T11:24:00.482Z</time>
      </trkpt>
      <trkpt lat="43.83626" lon="1.16872">
        <ele>197.293905</ele>
        <time>2023-01-01T11:24:03.489Z</time>
      </trkpt>
      <trkpt lat="43.83622" lon="1.16855">
        <ele>197.353119</ele>
        <time>2023-01-01T11:24:06.500Z</time>
      </trkpt>
      <trkpt lat="43.83618" lon="1.16838">
        <ele>197.411777</ele>
        <time>2023-01-01T11:24:09.495Z</time>
      </trkpt>
      <trkpt lat="43.83614" lon="1.16821">
        <ele>197.470885</ele>
        <time>2023-01-01T11:24:12.494Z</time>
      </trkpt>
      <trkpt lat="43.8361" lon="1.16805">
        <ele>197.529306</ele>
        <time>2023-01-01T11:24:15.493Z</time>
      </trkpt>
      <trkpt lat="43.83605" lon="1.16787">
        <ele>197.58944</ele>
        <time>2023-01-01T11:24:18.496Z</time>
      </trkpt>
      <trkpt lat="43.83601" lon="1.1677">
        <ele>197.651285</ele>
        <time>2023-01-01T11:24:21.498Z</time>
      </trkpt>
      <trkpt lat="43.83598" lon="1.16758">
        <ele>197.692864</ele>
        <time>2023-01-01T11:24:23.492Z</time>
      </trkpt>
      <trkpt lat="43.83595" lon="1.16746">
        <ele>197.737936</ele>
        <time>2023-01-01T11:24:25.503Z</time>
      </trkpt>
      <trkpt lat="43.83592" lon="1.16734">
        <ele>197.784544</ele>
        <time>2023-01-01T11:24:27.488Z</time>
      </trkpt>
      <trkpt lat="43.8359" lon="1.16721">
        <ele>197.831746</ele>
        <time>2023-01-01T11:24:29.490Z</time>
      </trkpt>
      <trkpt lat="43.83587" lon="1.16708">
        <ele>197.88044</ele>
        <time>2023-01-01T11:24:31.497Z</time>
      </trkpt>
      <trkpt lat="43.83584" lon="1.16696">
        <ele>197.927936</ele>
        <time>2023-01-01T11:24:33.467Z</time>
      </trkpt>
      <trkpt lat="43.8358" lon="1.16683">
        <ele>197.979862</ele>
        <time>2023-01-01T11:24:35.496Z</time>
      </trkpt>
      <trkpt lat="43.83577" lon="1.1667">
        <ele>198.027671</ele>
        <time>2023-01-01T11:24:37.499Z</time>
      </trkpt>
      <trkpt lat="43.83574" lon="1.16658">
        <ele>198.073773</ele>
        <time>2023-01-01T11:24:39.497Z</time>
      </trkpt>
      <trkpt lat="43.83572" lon="1.16646">
        <ele>198.122317</ele>
        <time>2023-01-01T11:24:41.489Z</time>
      </trkpt>
      <trkpt lat="43.83568" lon="1.16633">
        <ele>198.170113</ele>
        <time>2023-01-01T11:24:43.495Z</time>
      </trkpt>
      <trkpt lat="43.83565" lon="1.16621">
        <ele>198.216706</ele>
        <time>2023-01-01T11:24:45.501Z</time>
      </trkpt>
      <trkpt lat="43.83563" lon="1.16609">
        <ele>198.263156</ele>
        <time>2023-01-01T11:24:47.493Z</time>
      </trkpt>
      <trkpt lat="43.83559" lon="1.16597">
        <ele>198.311985</ele>
        <time>2023-01-01T11:24:49.499Z</time>
      </trkpt>
      <trkpt lat="43.83557" lon="1.16584">
        <ele>198.359332</ele>
        <time>2023-01-01T11:24:51.489Z</time>
      </trkpt>
      <trkpt lat="43.83552" lon="1.16567">
        <ele>198.428112</ele>
        <time>2023-01-01T11:24:54.492Z</time>
      </trkpt>
      <trkpt lat="43.83548" lon="1.16549">
        <ele>198.496763</ele>
        <time>2023-01-01T11:24:57.493Z</time>
      </trkpt>
      <trkpt lat="43.83545" lon="1.16536">
        <ele>198.544559</ele>
        <time>2023-01-01T11:24:59.496Z</time>
      </trkpt>
      <trkpt lat="43.83542" lon="1.16524">
        <ele>198.591358</ele>
        <time>2023-01-01T11:25:01.490Z</time>
      </trkpt>
      <trkpt lat="43.83539" lon="1.1651">
        <ele>198.645293</ele>
        <time>2023-01-01T11:25:03.492Z</time>
      </trkpt>
      <trkpt lat="43.83535" lon="1.16497">
        <ele>198.70142</ele>
        <time>2023-01-01T11:25:05.487Z</time>
      </trkpt>
      <trkpt lat="43.83532" lon="1.16482">
        <ele>198.759736</ele>
        <time>2023-01-01T11:25:07.487Z</time>
      </trkpt>
      <trkpt lat="43.83528" lon="1.16468">
        <ele>198.81803</ele>
        <time>2023-01-01T11:25:09.486Z</time>
      </trkpt>
      <trkpt lat="43.83525" lon="1.16453">
        <ele>198.877079</ele>
        <time>2023-01-01T11:25:11.495Z</time>
      </trkpt>
      <trkpt lat="43.83521" lon="1.16439">
        <ele>198.93718</ele>
        <time>2023-01-01T11:25:13.496Z</time>
      </trkpt>
      <trkpt lat="43.83518" lon="1.16424">
        <ele>198.996595</ele>
        <time>2023-01-01T11:25:15.504Z</time>
      </trkpt>
      <trkpt lat="43.83514" lon="1.1641">
        <ele>199.055464</ele>
        <time>2023-01-01T11:25:17.494Z</time>
      </trkpt>
      <trkpt lat="43.83511" lon="1.16394">
        <ele>199.11659</ele>
        <time>2023-01-01T11:25:19.501Z</time>
      </trkpt>
      <trkpt lat="43.83507" lon="1.1638">
        <ele>199.176512</ele>
        <time>2023-01-01T11:25:21.500Z</time>
      </trkpt>
      <trkpt lat="43.83504" lon="1.16366">
        <ele>199.231174</ele>
        <time>2023-01-01T11:25:23.503Z</time>
      </trkpt>
      <trkpt lat="43.83501" lon="1.16353">
        <ele>199.284651</ele>
        <time>2023-01-01T11:25:25.495Z</time>
      </trkpt>
      <trkpt lat="43.83498" lon="1.1634">
        <ele>199.336244</ele>
        <time>2023-01-01T11:25:27.497Z</time>
      </trkpt>
      <trkpt lat="43.83495" lon="1.16327">
        <ele>199.388044</ele>
        <time>2023-01-01T11:25:29.485Z</time>
      </trkpt>
      <trkpt lat="43.83492" lon="1.16315">
        <ele>199.438748</ele>
        <time>2023-01-01T11:25:31.487Z</time>
      </trkpt>
      <trkpt lat="43.83489" lon="1.16302">
        <ele>199.489652</ele>
        <time>2023-01-01T11:25:33.496Z</time>
      </trkpt>
      <trkpt lat="43.83485" lon="1.16285">
        <ele>199.560443</ele>
        <time>2023-01-01T11:25:36.484Z</time>
      </trkpt>
      <trkpt lat="43.83481" lon="1.16268">
        <ele>199.812193</ele>
        <time>2023-01-01T11:25:39.489Z</time>
      </trkpt>
      <trkpt lat="43.83478" lon="1.16253">
        <ele>200.119134</ele>
        <time>2023-01-01T11:25:42.491Z</time>
      </trkpt>
      <trkpt lat="43.83474" lon="1.16238">
        <ele>200.423817</ele>
        <time>2023-01-01T11:25:45.485Z</time>
      </trkpt>
      <trkpt lat="43.83471" lon="1.16225">
        <ele>200.677685</ele>
        <time>2023-01-01T11:25:48.480Z</time>
      </trkpt>
      <trkpt lat="43.83468" lon="1.16213">
        <ele>200.927329</ele>
        <time>2023-01-01T11:25:51.487Z</time>
      </trkpt>
      <trkpt lat="43.83464" lon="1.162">
        <ele>201.174929</ele>
        <time>2023-01-01T11:25:54.475Z</time>
      </trkpt>
      <trkpt lat="43.83461" lon="1.16186">
        <ele>201.469932</ele>
        <time>2023-01-01T11:25:58.472Z</time>
      </trkpt>
      <trkpt lat="43.83459" lon="1.16172">
        <ele>201.740787</ele>
        <time>2023-01-01T11:26:02.486Z</time>
      </trkpt>
      <trkpt lat="43.83455" lon="1.16157">
        <ele>202.030226</ele>
        <time>2023-01-01T11:26:06.480Z</time>
      </trkpt>
      <trkpt lat="43.83452" lon="1.16144">
        <ele>202.294891</ele>
        <time>2023-01-01T11:26:10.492Z</time>
      </trkpt>
      <trkpt lat="43.83449" lon="1.1613">
        <ele>202.571535</ele>
        <time>2023-01-01T11:26:14.496Z</time>
      </trkpt>
      <trkpt lat="43.83447" lon="1.16118">
        <ele>202.815909</ele>
        <time>2023-01-01T11:26:17.488Z</time>
      </trkpt>
      <trkpt lat="43.83444" lon="1.16106">
        <ele>203.058049</ele>
        <time>2023-01-01T11:26:20.491Z</time>
      </trkpt>
      <trkpt lat="43.83441" lon="1.16094">
        <ele>203.300214</ele>
        <time>2023-01-01T11:26:23.500Z</time>
      </trkpt>
      <trkpt lat="43.83438" lon="1.16082">
        <ele>203.544091</ele>
        <time>2023-01-01T11:26:26.494Z</time>
      </trkpt>
      <trkpt lat="43.83435" lon="1.16069">
        <ele>203.784648</ele>
        <time>2023-01-01T11:26:29.498Z</time>
      </trkpt>
      <trkpt lat="43.83432" lon="1.16057">
        <ele>204.030316</ele>
        <time>2023-01-01T11:26:32.502Z</time>
      </trkpt>
      <trkpt lat="43.83429" lon="1.16043">
        <ele>204.315681</ele>
        <time>2023-01-01T11:26:36.495Z</time>
      </trkpt>
      <trkpt lat="43.83427" lon="1.16028">
        <ele>204.298061</ele>
        <time>2023-01-01T11:26:40.472Z</time>
      </trkpt>
      <trkpt lat="43.83427" lon="1.16014">
        <ele>204.280735</ele>
        <time>2023-01-01T11:26:44.482Z</time>
      </trkpt>
      <trkpt lat="43.83426" lon="1.16006">
        <ele>204.271115</ele>
        <time>2023-01-01T11:26:57.997Z</time>
      </trkpt>
      <trkpt lat="43.83426" lon="1.1599">
        <ele>204.25198</ele>
        <time>2023-01-01T11:30:38.470Z</time>
      </trkpt>
      <trkpt lat="43.83433" lon="1.1598">
        <ele>204.235315</ele>
        <time>2023-01-01T11:30:42.482Z</time>
      </trkpt>
      <trkpt lat="43.83442" lon="1.15972">
        <ele>204.216489</ele>
        <time>2023-01-01T11:30:46.488Z</time>
      </trkpt>
      <trkpt lat="43.83451" lon="1.15966">
        <ele>204.199302</ele>
        <time>2023-01-01T11:30:49.489Z</time>
      </trkpt>
      <trkpt lat="43.83461" lon="1.15959">
        <ele>204.180794</ele>
        <time>2023-01-01T11:30:52.493Z</time>
      </trkpt>
      <trkpt lat="43.83472" lon="1.15952">
        <ele>204.161169</ele>
        <time>2023-01-01T11:30:55.490Z</time>
      </trkpt>
      <trkpt lat="43.83483" lon="1.15945">
        <ele>204.139931</ele>
        <time>2023-01-01T11:30:58.492Z</time>
      </trkpt>
      <trkpt lat="43.83495" lon="1.15936">
        <ele>204.117026</ele>
        <time>2023-01-01T11:31:01.486Z</time>
      </trkpt>
      <trkpt lat="43.83504" lon="1.15929">
        <ele>204.100639</ele>
        <time>2023-01-01T11:31:03.492Z</time>
      </trkpt>
      <trkpt lat="43.83513" lon="1.15924">
        <ele>204.084535</ele>
        <time>2023-01-01T11:31:05.481Z</time>
      </trkpt>
      <trkpt lat="43.83521" lon="1.15918">
        <ele>204.068575</ele>
        <time>2023-01-01T11:31:07.490Z</time>
      </trkpt>
      <trkpt lat="43.8353" lon="1.15912">
        <ele>204.05242</ele>
        <time>2023-01-01T11:31:09.484Z</time>
      </trkpt>
      <trkpt lat="43.83538" lon="1.15906">
        <ele>204.036406</ele>
        <time>2023-01-01T11:31:11.481Z</time>
      </trkpt>
      <trkpt lat="43.83547" lon="1.159">
        <ele>204.01948</ele>
        <time>2023-01-01T11:31:13.490Z</time>
      </trkpt>
      <trkpt lat="43.83556" lon="1.15894">
        <ele>203.969592</ele>
        <time>2023-01-01T11:31:15.470Z</time>
      </trkpt>
      <trkpt lat="43.83568" lon="1.15885">
        <ele>203.874409</ele>
        <time>2023-01-01T11:31:18.471Z</time>
      </trkpt>
      <trkpt lat="43.83581" lon="1.15878">
        <ele>203.77924</ele>
        <time>2023-01-01T11:31:21.497Z</time>
      </trkpt>
      <trkpt lat="43.83592" lon="1.1587">
        <ele>203.690015</ele>
        <time>2023-01-01T11:31:24.499Z</time>
      </trkpt>
      <trkpt lat="43.83604" lon="1.15863">
        <ele>203.602959</ele>
        <time>2023-01-01T11:31:27.486Z</time>
      </trkpt>
      <trkpt lat="43.83615" lon="1.15856">
        <ele>203.518014</ele>
        <time>2023-01-01T11:31:30.483Z</time>
      </trkpt>
      <trkpt lat="43.83625" lon="1.15848">
        <ele>203.437462</ele>
        <time>2023-01-01T11:31:33.499Z</time>
      </trkpt>
      <trkpt lat="43.83636" lon="1.15842">
        <ele>203.355245</ele>
        <time>2023-01-01T11:31:36.468Z</time>
      </trkpt>
      <trkpt lat="43.83646" lon="1.15834">
        <ele>203.27059</ele>
        <time>2023-01-01T11:31:39.478Z</time>
      </trkpt>
      <trkpt lat="43.83658" lon="1.15828">
        <ele>203.180332</ele>
        <time>2023-01-01T11:31:42.490Z</time>
      </trkpt>
      <trkpt lat="43.83667" lon="1.15822">
        <ele>203.115461</ele>
        <time>2023-01-01T11:31:44.495Z</time>
      </trkpt>
      <trkpt lat="43.83675" lon="1.15816">
        <ele>203.049931</ele>
        <time>2023-01-01T11:31:46.497Z</time>
      </trkpt>
      <trkpt lat="43.83683" lon="1.1581">
        <ele>202.985183</ele>
        <time>2023-01-01T11:31:48.495Z</time>
      </trkpt>
      <trkpt lat="43.83692" lon="1.15804">
        <ele>202.919817</ele>
        <time>2023-01-01T11:31:50.501Z</time>
      </trkpt>
      <trkpt lat="43.83701" lon="1.15799">
        <ele>202.850627</ele>
        <time>2023-01-01T11:31:52.496Z</time>
      </trkpt>
      <trkpt lat="43.8371" lon="1.15793">
        <ele>202.780519</ele>
        <time>2023-01-01T11:31:54.498Z</time>
      </trkpt>
      <trkpt lat="43.83719" lon="1.15786">
        <ele>202.489226</ele>
        <time>2023-01-01T11:31:56.483Z</time>
      </trkpt>
      <trkpt lat="43.8373" lon="1.15779">
        <ele>202.081753</ele>
        <time>2023-01-01T11:31:58.495Z</time>
      </trkpt>
      <trkpt lat="43.8374" lon="1.15772">
        <ele>201.661034</ele>
        <time>2023-01-01T11:32:00.486Z</time>
      </trkpt>
      <trkpt lat="43.83751" lon="1.15765">
        <ele>201.240496</ele>
        <time>2023-01-01T11:32:02.495Z</time>
      </trkpt>
      <trkpt lat="43.83761" lon="1.15759">
        <ele>200.831958</ele>
        <time>2023-01-01T11:32:04.479Z</time>
      </trkpt>
      <trkpt lat="43.83771" lon="1.15751">
        <ele>200.428997</ele>
        <time>2023-01-01T11:32:06.490Z</time>
      </trkpt>
      <trkpt lat="43.83781" lon="1.15744">
        <ele>200.032291</ele>
        <time>2023-01-01T11:32:08.491Z</time>
      </trkpt>
      <trkpt lat="43.83791" lon="1.15738">
        <ele>199.641032</ele>
        <time>2023-01-01T11:32:10.477Z</time>
      </trkpt>
      <trkpt lat="43.83801" lon="1.15731">
        <ele>199.242212</ele>
        <time>2023-01-01T11:32:12.506Z</time>
      </trkpt>
      <trkpt lat="43.83812" lon="1.15724">
        <ele>198.816381</ele>
        <time>2023-01-01T11:32:14.488Z</time>
      </trkpt>
      <trkpt lat="43.83823" lon="1.15718">
        <ele>198.386192</ele>
        <time>2023-01-01T11:32:16.506Z</time>
      </trkpt>
      <trkpt lat="43.83834" lon="1.15711">
        <ele>197.963576</ele>
        <time>2023-01-01T11:32:18.468Z</time>
      </trkpt>
      <trkpt lat="43.83844" lon="1.15704">
        <ele>197.556104</ele>
        <time>2023-01-01T11:32:20.494Z</time>
      </trkpt>
      <trkpt lat="43.83854" lon="1.15697">
        <ele>197.168146</ele>
        <time>2023-01-01T11:32:22.465Z</time>
      </trkpt>
      <trkpt lat="43.83864" lon="1.1569">
        <ele>196.773195</ele>
        <time>2023-01-01T11:32:24.483Z</time>
      </trkpt>
      <trkpt lat="43.83873" lon="1.15683">
        <ele>196.380864</ele>
        <time>2023-01-01T11:32:26.483Z</time>
      </trkpt>
      <trkpt lat="43.83883" lon="1.15676">
        <ele>195.732387</ele>
        <time>2023-01-01T11:32:28.495Z</time>
      </trkpt>
      <trkpt lat="43.83893" lon="1.15668">
        <ele>195.058711</ele>
        <time>2023-01-01T11:32:30.491Z</time>
      </trkpt>
      <trkpt lat="43.83904" lon="1.15661">
        <ele>194.354098</ele>
        <time>2023-01-01T11:32:32.481Z</time>
      </trkpt>
      <trkpt lat="43.83914" lon="1.15653">
        <ele>193.663876</ele>
        <time>2023-01-01T11:32:34.483Z</time>
      </trkpt>
      <trkpt lat="43.83925" lon="1.15647">
        <ele>193.00223</ele>
        <time>2023-01-01T11:32:36.482Z</time>
      </trkpt>
      <trkpt lat="43.83937" lon="1.15642">
        <ele>192.255984</ele>
        <time>2023-01-01T11:32:38.488Z</time>
      </trkpt>
      <trkpt lat="43.83947" lon="1.15637">
        <ele>191.617595</ele>
        <time>2023-01-01T11:32:40.497Z</time>
      </trkpt>
      <trkpt lat="43.83958" lon="1.15631">
        <ele>190.914724</ele>
        <time>2023-01-01T11:32:42.496Z</time>
      </trkpt>
      <trkpt lat="43.83969" lon="1.15625">
        <ele>190.241467</ele>
        <time>2023-01-01T11:32:44.482Z</time>
      </trkpt>
      <trkpt lat="43.8398" lon="1.15622">
        <ele>189.5304</ele>
        <time>2023-01-01T11:32:46.470Z</time>
      </trkpt>
      <trkpt lat="43.83993" lon="1.1562">
        <ele>188.758108</ele>
        <time>2023-01-01T11:32:48.474Z</time>
      </trkpt>
      <trkpt lat="43.84007" lon="1.15621">
        <ele>187.927464</ele>
        <time>2023-01-01T11:32:50.471Z</time>
      </trkpt>
      <trkpt lat="43.84022" lon="1.15624">
        <ele>187.054706</ele>
        <time>2023-01-01T11:32:52.474Z</time>
      </trkpt>
      <trkpt lat="43.84037" lon="1.15627">
        <ele>186.120295</ele>
        <time>2023-01-01T11:32:54.481Z</time>
      </trkpt>
      <trkpt lat="43.84052" lon="1.15632">
        <ele>185.570608</ele>
        <time>2023-01-01T11:32:56.500Z</time>
      </trkpt>
      <trkpt lat="43.84068" lon="1.15635">
        <ele>185.337736</ele>
        <time>2023-01-01T11:32:58.471Z</time>
      </trkpt>
      <trkpt lat="43.84083" lon="1.15641">
        <ele>185.099636</ele>
        <time>2023-01-01T11:33:00.490Z</time>
      </trkpt>
      <trkpt lat="43.84098" lon="1.15648">
        <ele>184.86816</ele>
        <time>2023-01-01T11:33:02.484Z</time>
      </trkpt>
      <trkpt lat="43.84113" lon="1.15656">
        <ele>184.644376</ele>
        <time>2023-01-01T11:33:04.478Z</time>
      </trkpt>
      <trkpt lat="43.84126" lon="1.15667">
        <ele>184.415933</ele>
        <time>2023-01-01T11:33:06.470Z</time>
      </trkpt>
      <trkpt lat="43.8414" lon="1.15679">
        <ele>184.169547</ele>
        <time>2023-01-01T11:33:08.495Z</time>
      </trkpt>
      <trkpt lat="43.84153" lon="1.15691">
        <ele>183.943326</ele>
        <time>2023-01-01T11:33:10.501Z</time>
      </trkpt>
      <trkpt lat="43.84167" lon="1.15701">
        <ele>183.714204</ele>
        <time>2023-01-01T11:33:12.501Z</time>
      </trkpt>
      <trkpt lat="43.84179" lon="1.15711">
        <ele>183.51266</ele>
        <time>2023-01-01T11:33:14.489Z</time>
      </trkpt>
      <trkpt lat="43.84192" lon="1.15721">
        <ele>183.304272</ele>
        <time>2023-01-01T11:33:16.481Z</time>
      </trkpt>
      <trkpt lat="43.84205" lon="1.1573">
        <ele>183.086155</ele>
        <time>2023-01-01T11:33:18.475Z</time>
      </trkpt>
      <trkpt lat="43.84217" lon="1.1574">
        <ele>182.728339</ele>
        <time>2023-01-01T11:33:20.494Z</time>
      </trkpt>
      <trkpt lat="43.84229" lon="1.1575">
        <ele>182.346333</ele>
        <time>2023-01-01T11:33:22.497Z</time>
      </trkpt>
      <trkpt lat="43.84241" lon="1.1576">
        <ele>181.966307</ele>
        <time>2023-01-01T11:33:24.503Z</time>
      </trkpt>
      <trkpt lat="43.84254" lon="1.1577">
        <ele>181.574594</ele>
        <time>2023-01-01T11:33:26.483Z</time>
      </trkpt>
      <trkpt lat="43.84266" lon="1.1578">
        <ele>181.176081</ele>
        <time>2023-01-01T11:33:28.502Z</time>
      </trkpt>
      <trkpt lat="43.84279" lon="1.1579">
        <ele>180.77281</ele>
        <time>2023-01-01T11:33:30.497Z</time>
      </trkpt>
      <trkpt lat="43.84291" lon="1.15799">
        <ele>180.413759</ele>
        <time>2023-01-01T11:33:32.488Z</time>
      </trkpt>
      <trkpt lat="43.84304" lon="1.15809">
        <ele>180.016061</ele>
        <time>2023-01-01T11:33:34.498Z</time>
      </trkpt>
      <trkpt lat="43.84316" lon="1.15819">
        <ele>179.643229</ele>
        <time>2023-01-01T11:33:36.499Z</time>
      </trkpt>
      <trkpt lat="43.84328" lon="1.15828">
        <ele>179.246612</ele>
        <time>2023-01-01T11:33:38.491Z</time>
      </trkpt>
      <trkpt lat="43.8434" lon="1.15836">
        <ele>178.903153</ele>
        <time>2023-01-01T11:33:40.491Z</time>
      </trkpt>
      <trkpt lat="43.84351" lon="1.15843">
        <ele>178.578803</ele>
        <time>2023-01-01T11:33:42.474Z</time>
      </trkpt>
      <trkpt lat="43.84363" lon="1.15847">
        <ele>178.23342</ele>
        <time>2023-01-01T11:33:44.490Z</time>
      </trkpt>
      <trkpt lat="43.84375" lon="1.15847">
        <ele>178.092271</ele>
        <time>2023-01-01T11:33:46.475Z</time>
      </trkpt>
      <trkpt lat="43.84387" lon="1.15843">
        <ele>178.000951</ele>
        <time>2023-01-01T11:33:48.485Z</time>
      </trkpt>
      <trkpt lat="43.84397" lon="1.15833">
        <ele>177.913434</ele>
        <time>2023-01-01T11:33:50.473Z</time>
      </trkpt>
      <trkpt lat="43.84405" lon="1.15821">
        <ele>177.828413</ele>
        <time>2023-01-01T11:33:52.481Z</time>
      </trkpt>
      <trkpt lat="43.84411" lon="1.1581">
        <ele>177.752322</ele>
        <time>2023-01-01T11:33:54.474Z</time>
      </trkpt>
      <trkpt lat="43.84417" lon="1.15799">
        <ele>177.684041</ele>
        <time>2023-01-01T11:33:56.473Z</time>
      </trkpt>
      <trkpt lat="43.84425" lon="1.15784">
        <ele>177.587322</ele>
        <time>2023-01-01T11:33:59.497Z</time>
      </trkpt>
      <trkpt lat="43.84433" lon="1.15769">
        <ele>177.491976</ele>
        <time>2023-01-01T11:34:02.487Z</time>
      </trkpt>
      <trkpt lat="43.8444" lon="1.15755">
        <ele>177.396627</ele>
        <time>2023-01-01T11:34:05.494Z</time>
      </trkpt>
      <trkpt lat="43.84446" lon="1.15745">
        <ele>177.329581</ele>
        <time>2023-01-01T11:34:07.475Z</time>
      </trkpt>
      <trkpt lat="43.84451" lon="1.15734">
        <ele>177.262621</ele>
        <time>2023-01-01T11:34:09.468Z</time>
      </trkpt>
      <trkpt lat="43.84456" lon="1.15724">
        <ele>177.19684</ele>
        <time>2023-01-01T11:34:11.472Z</time>
      </trkpt>
      <trkpt lat="43.84462" lon="1.15712">
        <ele>177.126852</ele>
        <time>2023-01-01T11:34:13.500Z</time>
      </trkpt>
      <trkpt lat="43.84468" lon="1.15702">
        <ele>177.056001</ele>
        <time>2023-01-01T11:34:15.486Z</time>
      </trkpt>
      <trkpt lat="43.84474" lon="1.1569">
        <ele>176.982267</ele>
        <time>2023-01-01T11:34:17.486Z</time>
      </trkpt>
      <trkpt lat="43.8448" lon="1.15679">
        <ele>176.910225</ele>
        <time>2023-01-01T11:34:19.492Z</time>
      </trkpt>
      <trkpt lat="43.84485" lon="1.15669">
        <ele>176.91021</ele>
        <time>2023-01-01T11:34:21.502Z</time>
      </trkpt>
      <trkpt lat="43.84491" lon="1.15658">
        <ele>177.176288</ele>
        <time>2023-01-01T11:34:23.479Z</time>
      </trkpt>
      <trkpt lat="43.84496" lon="1.15647">
        <ele>177.422007</ele>
        <time>2023-01-01T11:34:25.472Z</time>
      </trkpt>
      <trkpt lat="43.84504" lon="1.15632">
        <ele>177.772626</ele>
        <time>2023-01-01T11:34:28.497Z</time>
      </trkpt>
      <trkpt lat="43.84511" lon="1.15618">
        <ele>178.114311</ele>
        <time>2023-01-01T11:34:31.495Z</time>
      </trkpt>
      <trkpt lat="43.84518" lon="1.15604">
        <ele>178.438304</ele>
        <time>2023-01-01T11:34:34.540Z</time>
      </trkpt>
      <trkpt lat="43.84525" lon="1.15591">
        <ele>178.751324</ele>
        <time>2023-01-01T11:34:37.494Z</time>
      </trkpt>
      <trkpt lat="43.84531" lon="1.15579">
        <ele>179.03937</ele>
        <time>2023-01-01T11:34:40.482Z</time>
      </trkpt>
      <trkpt lat="43.84538" lon="1.15567">
        <ele>179.319956</ele>
        <time>2023-01-01T11:34:43.501Z</time>
      </trkpt>
      <trkpt lat="43.84544" lon="1.15554">
        <ele>179.626785</ele>
        <time>2023-01-01T11:34:47.473Z</time>
      </trkpt>
      <trkpt lat="43.8455" lon="1.15541">
        <ele>179.929499</ele>
        <time>2023-01-01T11:34:51.481Z</time>
      </trkpt>
      <trkpt lat="43.84555" lon="1.15528">
        <ele>180.205318</ele>
        <time>2023-01-01T11:34:55.474Z</time>
      </trkpt>
      <trkpt lat="43.84561" lon="1.15516">
        <ele>180.486222</ele>
        <time>2023-01-01T11:34:59.491Z</time>
      </trkpt>
      <trkpt lat="43.84565" lon="1.15503">
        <ele>180.768555</ele>
        <time>2023-01-01T11:35:03.498Z</time>
      </trkpt>
      <trkpt lat="43.8457" lon="1.15491">
        <ele>181.032903</ele>
        <time>2023-01-01T11:35:07.473Z</time>
      </trkpt>
      <trkpt lat="43.84574" lon="1.15478">
        <ele>181.301398</ele>
        <time>2023-01-01T11:35:11.496Z</time>
      </trkpt>
      <trkpt lat="43.84578" lon="1.15465">
        <ele>181.576956</ele>
        <time>2023-01-01T11:35:15.496Z</time>
      </trkpt>
      <trkpt lat="43.84581" lon="1.15451">
        <ele>181.951571</ele>
        <time>2023-01-01T11:35:19.496Z</time>
      </trkpt>
      <trkpt lat="43.84584" lon="1.15437">
        <ele>182.376954</ele>
        <time>2023-01-01T11:35:23.472Z</time>
      </trkpt>
      <trkpt lat="43.84587" lon="1.15423">
        <ele>182.792236</ele>
        <time>2023-01-01T11:35:27.497Z</time>
      </trkpt>
      <trkpt lat="43.84589" lon="1.15409">
        <ele>183.203698</ele>
        <time>2023-01-01T11:35:31.493Z</time>
      </trkpt>
      <trkpt lat="43.84591" lon="1.15395">
        <ele>183.607859</ele>
        <time>2023-01-01T11:35:35.482Z</time>
      </trkpt>
      <trkpt lat="43.84594" lon="1.15382">
        <ele>184.003796</ele>
        <time>2023-01-01T11:35:39.500Z</time>
      </trkpt>
      <trkpt lat="43.84597" lon="1.15368">
        <ele>184.408601</ele>
        <time>2023-01-01T11:35:43.487Z</time>
      </trkpt>
      <trkpt lat="43.846" lon="1.15355">
        <ele>184.797008</ele>
        <time>2023-01-01T11:35:47.496Z</time>
      </trkpt>
      <trkpt lat="43.84602" lon="1.15341">
        <ele>185.21239</ele>
        <time>2023-01-01T11:35:51.496Z</time>
      </trkpt>
      <trkpt lat="43.84604" lon="1.15327">
        <ele>185.607324</ele>
        <time>2023-01-01T11:35:55.498Z</time>
      </trkpt>
      <trkpt lat="43.84606" lon="1.15313">
        <ele>186.01555</ele>
        <time>2023-01-01T11:35:59.490Z</time>
      </trkpt>
      <trkpt lat="43.84609" lon="1.153">
        <ele>186.413359</ele>
        <time>2023-01-01T11:36:03.475Z</time>
      </trkpt>
      <trkpt lat="43.84611" lon="1.15287">
        <ele>186.818318</ele>
        <time>2023-01-01T11:36:07.484Z</time>
      </trkpt>
      <trkpt lat="43.84614" lon="1.15272">
        <ele>187.237182</ele>
        <time>2023-01-01T11:36:11.479Z</time>
      </trkpt>
      <trkpt lat="43.84616" lon="1.15259">
        <ele>187.64054</ele>
        <time>2023-01-01T11:36:15.484Z</time>
      </trkpt>
      <trkpt lat="43.84619" lon="1.15245">
        <ele>188.052037</ele>
        <time>2023-01-01T11:36:19.480Z</time>
      </trkpt>
      <trkpt lat="43.84622" lon="1.15231">
        <ele>188.454102</ele>
        <time>2023-01-01T11:36:23.488Z</time>
      </trkpt>
      <trkpt lat="43.84624" lon="1.15217">
        <ele>188.937576</ele>
        <time>2023-01-01T11:36:27.495Z</time>
      </trkpt>
      <trkpt lat="43.84627" lon="1.15202">
        <ele>189.735444</ele>
        <time>2023-01-01T11:36:32.470Z</time>
      </trkpt>
      <trkpt lat="43.84629" lon="1.1519">
        <ele>190.423839</ele>
        <time>2023-01-01T11:36:36.495Z</time>
      </trkpt>
      <trkpt lat="43.84632" lon="1.15176">
        <ele>191.218852</ele>
        <time>2023-01-01T11:36:41.490Z</time>
      </trkpt>
      <trkpt lat="43.84634" lon="1.15161">
        <ele>192.018617</ele>
        <time>2023-01-01T11:36:46.504Z</time>
      </trkpt>
      <trkpt lat="43.84638" lon="1.15147">
        <ele>192.827412</ele>
        <time>2023-01-01T11:36:51.496Z</time>
      </trkpt>
      <trkpt lat="43.8464" lon="1.15135">
        <ele>193.506692</ele>
        <time>2023-01-01T11:36:55.473Z</time>
      </trkpt>
      <trkpt lat="43.84643" lon="1.15123">
        <ele>194.191233</ele>
        <time>2023-01-01T11:36:59.494Z</time>
      </trkpt>
      <trkpt lat="43.84646" lon="1.15111">
        <ele>194.893132</ele>
        <time>2023-01-01T11:37:04.495Z</time>
      </trkpt>
      <trkpt lat="43.84649" lon="1.15097">
        <ele>195.650798</ele>
        <time>2023-01-01T11:37:09.473Z</time>
      </trkpt>
      <trkpt lat="43.84654" lon="1.15086">
        <ele>196.346146</ele>
        <time>2023-01-01T11:37:14.481Z</time>
      </trkpt>
      <trkpt lat="43.84659" lon="1.15076">
        <ele>197.023937</ele>
        <time>2023-01-01T11:37:19.475Z</time>
      </trkpt>
      <trkpt lat="43.84664" lon="1.15063">
        <ele>197.782041</ele>
        <time>2023-01-01T11:37:25.472Z</time>
      </trkpt>
      <trkpt lat="43.84668" lon="1.15052">
        <ele>198.467002</ele>
        <time>2023-01-01T11:37:30.481Z</time>
      </trkpt>
      <trkpt lat="43.84673" lon="1.15041">
        <ele>199.159575</ele>
        <time>2023-01-01T11:37:35.480Z</time>
      </trkpt>
      <trkpt lat="43.84678" lon="1.1503">
        <ele>199.860633</ele>
        <time>2023-01-01T11:37:40.475Z</time>
      </trkpt>
      <trkpt lat="43.84683" lon="1.15018">
        <ele>200.613448</ele>
        <time>2023-01-01T11:37:46.475Z</time>
      </trkpt>
      <trkpt lat="43.84688" lon="1.15005">
        <ele>201.398838</ele>
        <time>2023-01-01T11:37:53.469Z</time>
      </trkpt>
      <trkpt lat="43.84692" lon="1.14992">
        <ele>202.154006</ele>
        <time>2023-01-01T11:37:59.476Z</time>
      </trkpt>
      <trkpt lat="43.84696" lon="1.14981">
        <ele>202.492244</ele>
        <time>2023-01-01T11:38:05.474Z</time>
      </trkpt>
      <trkpt lat="43.84701" lon="1.14969">
        <ele>202.772681</ele>
        <time>2023-01-01T11:38:11.477Z</time>
      </trkpt>
      <trkpt lat="43.84706" lon="1.14958">
        <ele>203.043023</ele>
        <time>2023-01-01T11:38:16.475Z</time>
      </trkpt>
      <trkpt lat="43.84711" lon="1.14945">
        <ele>203.361699</ele>
        <time>2023-01-01T11:38:22.474Z</time>
      </trkpt>
      <trkpt lat="43.84716" lon="1.14935">
        <ele>203.628646</ele>
        <time>2023-01-01T11:38:27.474Z</time>
      </trkpt>
      <trkpt lat="43.84722" lon="1.14923">
        <ele>203.924948</ele>
        <time>2023-01-01T11:38:32.479Z</time>
      </trkpt>
      <trkpt lat="43.84727" lon="1.1491">
        <ele>204.238483</ele>
        <time>2023-01-01T11:38:37.503Z</time>
      </trkpt>
      <trkpt lat="43.84733" lon="1.14897">
        <ele>204.554593</ele>
        <time>2023-01-01T11:38:42.477Z</time>
      </trkpt>
      <trkpt lat="43.84737" lon="1.14884">
        <ele>204.863821</ele>
        <time>2023-01-01T11:38:47.471Z</time>
      </trkpt>
      <trkpt lat="43.84742" lon="1.14872">
        <ele>205.169326</ele>
        <time>2023-01-01T11:38:51.473Z</time>
      </trkpt>
      <trkpt lat="43.84748" lon="1.14858">
        <ele>205.504535</ele>
        <time>2023-01-01T11:38:55.501Z</time>
      </trkpt>
      <trkpt lat="43.84754" lon="1.14844">
        <ele>205.851042</ele>
        <time>2023-01-01T11:38:59.492Z</time>
      </trkpt>
      <trkpt lat="43.8476" lon="1.14831">
        <ele>206.188837</ele>
        <time>2023-01-01T11:39:03.496Z</time>
      </trkpt>
      <trkpt lat="43.84765" lon="1.14819">
        <ele>206.464555</ele>
        <time>2023-01-01T11:39:06.495Z</time>
      </trkpt>
      <trkpt lat="43.84769" lon="1.14807">
        <ele>206.74869</ele>
        <time>2023-01-01T11:39:09.499Z</time>
      </trkpt>
      <trkpt lat="43.84774" lon="1.14795">
        <ele>207.040267</ele>
        <time>2023-01-01T11:39:12.490Z</time>
      </trkpt>
      <trkpt lat="43.84779" lon="1.14783">
        <ele>207.342752</ele>
        <time>2023-01-01T11:39:15.497Z</time>
      </trkpt>
      <trkpt lat="43.84784" lon="1.14771">
        <ele>207.55576</ele>
        <time>2023-01-01T11:39:18.490Z</time>
      </trkpt>
      <trkpt lat="43.84788" lon="1.14759">
        <ele>207.598032</ele>
        <time>2023-01-01T11:39:21.493Z</time>
      </trkpt>
      <trkpt lat="43.84793" lon="1.14747">
        <ele>207.644242</ele>
        <time>2023-01-01T11:39:24.490Z</time>
      </trkpt>
      <trkpt lat="43.84799" lon="1.14734">
        <ele>207.694298</ele>
        <time>2023-01-01T11:39:27.490Z</time>
      </trkpt>
      <trkpt lat="43.84804" lon="1.1472">
        <ele>207.744686</ele>
        <time>2023-01-01T11:39:30.498Z</time>
      </trkpt>
      <trkpt lat="43.8481" lon="1.14706">
        <ele>207.796926</ele>
        <time>2023-01-01T11:39:33.506Z</time>
      </trkpt>
      <trkpt lat="43.84816" lon="1.14692">
        <ele>207.849597</ele>
        <time>2023-01-01T11:39:36.502Z</time>
      </trkpt>
      <trkpt lat="43.84821" lon="1.14677">
        <ele>207.902268</ele>
        <time>2023-01-01T11:39:39.500Z</time>
      </trkpt>
      <trkpt lat="43.84827" lon="1.14663">
        <ele>207.954596</ele>
        <time>2023-01-01T11:39:42.493Z</time>
      </trkpt>
      <trkpt lat="43.84832" lon="1.1465">
        <ele>208.005767</ele>
        <time>2023-01-01T11:39:45.498Z</time>
      </trkpt>
      <trkpt lat="43.84838" lon="1.14636">
        <ele>208.056868</ele>
        <time>2023-01-01T11:39:48.493Z</time>
      </trkpt>
      <trkpt lat="43.84844" lon="1.14621">
        <ele>208.110995</ele>
        <time>2023-01-01T11:39:51.498Z</time>
      </trkpt>
      <trkpt lat="43.8485" lon="1.14607">
        <ele>208.164895</ele>
        <time>2023-01-01T11:39:54.497Z</time>
      </trkpt>
      <trkpt lat="43.84856" lon="1.14593">
        <ele>208.218463</ele>
        <time>2023-01-01T11:39:57.494Z</time>
      </trkpt>
      <trkpt lat="43.84862" lon="1.14578">
        <ele>208.272363</ele>
        <time>2023-01-01T11:40:00.494Z</time>
      </trkpt>
      <trkpt lat="43.84868" lon="1.14564">
        <ele>208.326604</ele>
        <time>2023-01-01T11:40:03.495Z</time>
      </trkpt>
      <trkpt lat="43.84874" lon="1.14549">
        <ele>208.400049</ele>
        <time>2023-01-01T11:40:06.502Z</time>
      </trkpt>
      <trkpt lat="43.8488" lon="1.14535">
        <ele>208.489184</ele>
        <time>2023-01-01T11:40:09.501Z</time>
      </trkpt>
      <trkpt lat="43.84886" lon="1.14521">
        <ele>208.579352</ele>
        <time>2023-01-01T11:40:12.486Z</time>
      </trkpt>
      <trkpt lat="43.84892" lon="1.14507">
        <ele>208.667866</ele>
        <time>2023-01-01T11:40:15.486Z</time>
      </trkpt>
      <trkpt lat="43.84898" lon="1.14491">
        <ele>208.759692</ele>
        <time>2023-01-01T11:40:18.496Z</time>
      </trkpt>
      <trkpt lat="43.84905" lon="1.14476">
        <ele>208.856062</ele>
        <time>2023-01-01T11:40:21.500Z</time>
      </trkpt>
      <trkpt lat="43.84911" lon="1.14461">
        <ele>208.953041</ele>
        <time>2023-01-01T11:40:24.496Z</time>
      </trkpt>
      <trkpt lat="43.84917" lon="1.14445">
        <ele>209.050549</ele>
        <time>2023-01-01T11:40:27.486Z</time>
      </trkpt>
      <trkpt lat="43.84922" lon="1.14434">
        <ele>209.11796</ele>
        <time>2023-01-01T11:40:29.481Z</time>
      </trkpt>
      <trkpt lat="43.84927" lon="1.14423">
        <ele>209.188415</ele>
        <time>2023-01-01T11:40:31.472Z</time>
      </trkpt>
      <trkpt lat="43.84931" lon="1.14411">
        <ele>209.261987</ele>
        <time>2023-01-01T11:40:33.496Z</time>
      </trkpt>
      <trkpt lat="43.84936" lon="1.14399">
        <ele>209.334334</ele>
        <time>2023-01-01T11:40:35.492Z</time>
      </trkpt>
      <trkpt lat="43.84941" lon="1.14388">
        <ele>209.402938</ele>
        <time>2023-01-01T11:40:37.497Z</time>
      </trkpt>
      <trkpt lat="43.84946" lon="1.14377">
        <ele>209.470899</ele>
        <time>2023-01-01T11:40:39.487Z</time>
      </trkpt>
      <trkpt lat="43.8495" lon="1.14366">
        <ele>209.540212</ele>
        <time>2023-01-01T11:40:41.495Z</time>
      </trkpt>
      <trkpt lat="43.84955" lon="1.14354">
        <ele>209.612947</ele>
        <time>2023-01-01T11:40:43.500Z</time>
      </trkpt>
      <trkpt lat="43.8496" lon="1.14343">
        <ele>209.682761</ele>
        <time>2023-01-01T11:40:45.498Z</time>
      </trkpt>
      <trkpt lat="43.84965" lon="1.14331">
        <ele>209.713535</ele>
        <time>2023-01-01T11:40:47.490Z</time>
      </trkpt>
      <trkpt lat="43.84969" lon="1.14318">
        <ele>209.737076</ele>
        <time>2023-01-01T11:40:49.499Z</time>
      </trkpt>
      <trkpt lat="43.84974" lon="1.14306">
        <ele>209.760801</ele>
        <time>2023-01-01T11:40:51.490Z</time>
      </trkpt>
      <trkpt lat="43.8498" lon="1.14293">
        <ele>209.784958</ele>
        <time>2023-01-01T11:40:53.495Z</time>
      </trkpt>
      <trkpt lat="43.84984" lon="1.14279">
        <ele>209.809978</ele>
        <time>2023-01-01T11:40:55.499Z</time>
      </trkpt>
      <trkpt lat="43.8499" lon="1.14267">
        <ele>209.833728</ele>
        <time>2023-01-01T11:40:57.495Z</time>
      </trkpt>
      <trkpt lat="43.84994" lon="1.14256">
        <ele>209.855421</ele>
        <time>2023-01-01T11:40:59.495Z</time>
      </trkpt>
      <trkpt lat="43.85" lon="1.14245">
        <ele>209.877403</ele>
        <time>2023-01-01T11:41:01.500Z</time>
      </trkpt>
      <trkpt lat="43.85005" lon="1.14233">
        <ele>209.899304</ele>
        <time>2023-01-01T11:41:03.499Z</time>
      </trkpt>
      <trkpt lat="43.85009" lon="1.14222">
        <ele>209.920996</ele>
        <time>2023-01-01T11:41:05.485Z</time>
      </trkpt>
      <trkpt lat="43.85014" lon="1.14211">
        <ele>209.942065</ele>
        <time>2023-01-01T11:41:07.495Z</time>
      </trkpt>
      <trkpt lat="43.85018" lon="1.142">
        <ele>209.962735</ele>
        <time>2023-01-01T11:41:09.496Z</time>
      </trkpt>
      <trkpt lat="43.85022" lon="1.14189">
        <ele>209.983588</ele>
        <time>2023-01-01T11:41:11.499Z</time>
      </trkpt>
      <trkpt lat="43.85027" lon="1.14178">
        <ele>210.00465</ele>
        <time>2023-01-01T11:41:13.497Z</time>
      </trkpt>
      <trkpt lat="43.85032" lon="1.14166">
        <ele>210.027031</ele>
        <time>2023-01-01T11:41:15.497Z</time>
      </trkpt>
      <trkpt lat="43.85037" lon="1.14154">
        <ele>210.049267</ele>
        <time>2023-01-01T11:41:17.498Z</time>
      </trkpt>
      <trkpt lat="43.85042" lon="1.14142">
        <ele>210.072661</ele>
        <time>2023-01-01T11:41:19.499Z</time>
      </trkpt>
      <trkpt lat="43.85047" lon="1.1413">
        <ele>210.095956</ele>
        <time>2023-01-01T11:41:21.502Z</time>
      </trkpt>
      <trkpt lat="43.85052" lon="1.14117">
        <ele>210.054363</ele>
        <time>2023-01-01T11:41:23.479Z</time>
      </trkpt>
      <trkpt lat="43.85057" lon="1.14104">
        <ele>209.96525</ele>
        <time>2023-01-01T11:41:25.484Z</time>
      </trkpt>
      <trkpt lat="43.85063" lon="1.14091">
        <ele>209.874267</ele>
        <time>2023-01-01T11:41:27.513Z</time>
      </trkpt>
      <trkpt lat="43.85068" lon="1.14079">
        <ele>209.787322</ele>
        <time>2023-01-01T11:41:29.500Z</time>
      </trkpt>
      <trkpt lat="43.85073" lon="1.14066">
        <ele>209.70087</ele>
        <time>2023-01-01T11:41:31.475Z</time>
      </trkpt>
      <trkpt lat="43.85078" lon="1.14053">
        <ele>209.611908</ele>
        <time>2023-01-01T11:41:33.495Z</time>
      </trkpt>
      <trkpt lat="43.85084" lon="1.14041">
        <ele>209.52662</ele>
        <time>2023-01-01T11:41:35.497Z</time>
      </trkpt>
      <trkpt lat="43.85088" lon="1.14029">
        <ele>209.443205</ele>
        <time>2023-01-01T11:41:37.479Z</time>
      </trkpt>
      <trkpt lat="43.85093" lon="1.14018">
        <ele>209.364387</ele>
        <time>2023-01-01T11:41:39.487Z</time>
      </trkpt>
      <trkpt lat="43.85098" lon="1.14007">
        <ele>209.285482</ele>
        <time>2023-01-01T11:41:41.481Z</time>
      </trkpt>
      <trkpt lat="43.85103" lon="1.13996">
        <ele>209.207367</ele>
        <time>2023-01-01T11:41:43.490Z</time>
      </trkpt>
      <trkpt lat="43.85108" lon="1.13985">
        <ele>209.131045</ele>
        <time>2023-01-01T11:41:45.498Z</time>
      </trkpt>
      <trkpt lat="43.85113" lon="1.13973">
        <ele>209.049206</ele>
        <time>2023-01-01T11:41:47.471Z</time>
      </trkpt>
      <trkpt lat="43.85118" lon="1.13961">
        <ele>208.96612</ele>
        <time>2023-01-01T11:41:49.494Z</time>
      </trkpt>
      <trkpt lat="43.85123" lon="1.13948">
        <ele>208.877717</ele>
        <time>2023-01-01T11:41:51.483Z</time>
      </trkpt>
      <trkpt lat="43.85129" lon="1.13934">
        <ele>208.779452</ele>
        <time>2023-01-01T11:41:53.489Z</time>
      </trkpt>
      <trkpt lat="43.85136" lon="1.13919">
        <ele>208.6763</ele>
        <time>2023-01-01T11:41:55.470Z</time>
      </trkpt>
      <trkpt lat="43.85142" lon="1.13902">
        <ele>208.701697</ele>
        <time>2023-01-01T11:41:57.496Z</time>
      </trkpt>
      <trkpt lat="43.85149" lon="1.13886">
        <ele>208.920266</ele>
        <time>2023-01-01T11:41:59.487Z</time>
      </trkpt>
      <trkpt lat="43.85156" lon="1.13869">
        <ele>209.151905</ele>
        <time>2023-01-01T11:42:01.481Z</time>
      </trkpt>
      <trkpt lat="43.85162" lon="1.13852">
        <ele>209.372981</ele>
        <time>2023-01-01T11:42:03.500Z</time>
      </trkpt>
      <trkpt lat="43.85168" lon="1.13836">
        <ele>209.586956</ele>
        <time>2023-01-01T11:42:05.499Z</time>
      </trkpt>
      <trkpt lat="43.85174" lon="1.1382">
        <ele>209.793308</ele>
        <time>2023-01-01T11:42:07.494Z</time>
      </trkpt>
      <trkpt lat="43.8518" lon="1.13807">
        <ele>209.974015</ele>
        <time>2023-01-01T11:42:09.488Z</time>
      </trkpt>
      <trkpt lat="43.85185" lon="1.13795">
        <ele>210.146401</ele>
        <time>2023-01-01T11:42:11.485Z</time>
      </trkpt>
      <trkpt lat="43.8519" lon="1.13783">
        <ele>210.303884</ele>
        <time>2023-01-01T11:42:13.502Z</time>
      </trkpt>
      <trkpt lat="43.85197" lon="1.13768">
        <ele>210.510273</ele>
        <time>2023-01-01T11:42:16.489Z</time>
      </trkpt>
      <trkpt lat="43.85201" lon="1.13754">
        <ele>210.686594</ele>
        <time>2023-01-01T11:42:19.469Z</time>
      </trkpt>
      <trkpt lat="43.85206" lon="1.13741">
        <ele>210.856878</ele>
        <time>2023-01-01T11:42:22.491Z</time>
      </trkpt>
      <trkpt lat="43.85211" lon="1.13729">
        <ele>211.024325</ele>
        <time>2023-01-01T11:42:25.498Z</time>
      </trkpt>
      <trkpt lat="43.85217" lon="1.13716">
        <ele>211.207401</ele>
        <time>2023-01-01T11:42:28.508Z</time>
      </trkpt>
      <trkpt lat="43.85222" lon="1.13702">
        <ele>211.38669</ele>
        <time>2023-01-01T11:42:31.499Z</time>
      </trkpt>
      <trkpt lat="43.85228" lon="1.13689">
        <ele>211.499405</ele>
        <time>2023-01-01T11:42:34.479Z</time>
      </trkpt>
      <trkpt lat="43.85233" lon="1.13676">
        <ele>211.340967</ele>
        <time>2023-01-01T11:42:37.500Z</time>
      </trkpt>
      <trkpt lat="43.85239" lon="1.13663">
        <ele>211.177939</ele>
        <time>2023-01-01T11:42:40.498Z</time>
      </trkpt>
      <trkpt lat="43.85244" lon="1.13649">
        <ele>211.010082</ele>
        <time>2023-01-01T11:42:43.500Z</time>
      </trkpt>
      <trkpt lat="43.8525" lon="1.13635">
        <ele>210.837657</ele>
        <time>2023-01-01T11:42:46.499Z</time>
      </trkpt>
      <trkpt lat="43.85256" lon="1.13621">
        <ele>210.66855</ele>
        <time>2023-01-01T11:42:49.500Z</time>
      </trkpt>
      <trkpt lat="43.85261" lon="1.13608">
        <ele>210.506037</ele>
        <time>2023-01-01T11:42:52.478Z</time>
      </trkpt>
      <trkpt lat="43.85267" lon="1.13594">
        <ele>210.342592</ele>
        <time>2023-01-01T11:42:55.501Z</time>
      </trkpt>
      <trkpt lat="43.85271" lon="1.13577">
        <ele>210.147471</ele>
        <time>2023-01-01T11:42:58.487Z</time>
      </trkpt>
      <trkpt lat="43.85274" lon="1.13564">
        <ele>209.99929</ele>
        <time>2023-01-01T11:43:00.470Z</time>
      </trkpt>
      <trkpt lat="43.85275" lon="1.13549">
        <ele>209.842286</ele>
        <time>2023-01-01T11:43:02.482Z</time>
      </trkpt>
      <trkpt lat="43.85276" lon="1.13533">
        <ele>209.673209</ele>
        <time>2023-01-01T11:43:04.474Z</time>
      </trkpt>
      <trkpt lat="43.85275" lon="1.13519">
        <ele>209.516336</ele>
        <time>2023-01-01T11:43:06.471Z</time>
      </trkpt>
      <trkpt lat="43.85273" lon="1.13504">
        <ele>209.360128</ele>
        <time>2023-01-01T11:43:08.494Z</time>
      </trkpt>
      <trkpt lat="43.8527" lon="1.1349">
        <ele>209.203384</ele>
        <time>2023-01-01T11:43:10.472Z</time>
      </trkpt>
      <trkpt lat="43.85267" lon="1.13477">
        <ele>209.053172</ele>
        <time>2023-01-01T11:43:12.480Z</time>
      </trkpt>
      <trkpt lat="43.85263" lon="1.13464">
        <ele>208.908347</ele>
        <time>2023-01-01T11:43:14.494Z</time>
      </trkpt>
      <trkpt lat="43.8526" lon="1.13452">
        <ele>208.485993</ele>
        <time>2023-01-01T11:43:16.496Z</time>
      </trkpt>
      <trkpt lat="43.85256" lon="1.13439">
        <ele>207.964139</ele>
        <time>2023-01-01T11:43:18.499Z</time>
      </trkpt>
      <trkpt lat="43.85253" lon="1.13427">
        <ele>207.491596</ele>
        <time>2023-01-01T11:43:20.490Z</time>
      </trkpt>
      <trkpt lat="43.85251" lon="1.13414">
        <ele>207.007698</ele>
        <time>2023-01-01T11:43:22.485Z</time>
      </trkpt>
      <trkpt lat="43.85251" lon="1.13401">
        <ele>206.530158</ele>
        <time>2023-01-01T11:43:24.478Z</time>
      </trkpt>
      <trkpt lat="43.85254" lon="1.13388">
        <ele>206.036717</ele>
        <time>2023-01-01T11:43:26.478Z</time>
      </trkpt>
      <trkpt lat="43.8526" lon="1.13377">
        <ele>205.50994</ele>
        <time>2023-01-01T11:43:28.482Z</time>
      </trkpt>
      <trkpt lat="43.85268" lon="1.13368">
        <ele>204.966586</ele>
        <time>2023-01-01T11:43:30.476Z</time>
      </trkpt>
      <trkpt lat="43.85277" lon="1.1336">
        <ele>204.427166</ele>
        <time>2023-01-01T11:43:32.475Z</time>
      </trkpt>
      <trkpt lat="43.85287" lon="1.13355">
        <ele>203.889138</ele>
        <time>2023-01-01T11:43:34.476Z</time>
      </trkpt>
      <trkpt lat="43.85297" lon="1.1335">
        <ele>203.341667</ele>
        <time>2023-01-01T11:43:36.471Z</time>
      </trkpt>
      <trkpt lat="43.85306" lon="1.13347">
        <ele>202.813102</ele>
        <time>2023-01-01T11:43:38.492Z</time>
      </trkpt>
      <trkpt lat="43.85317" lon="1.13342">
        <ele>202.250941</ele>
        <time>2023-01-01T11:43:40.474Z</time>
      </trkpt>
      <trkpt lat="43.85327" lon="1.13338">
        <ele>201.715328</ele>
        <time>2023-01-01T11:43:42.497Z</time>
      </trkpt>
      <trkpt lat="43.85336" lon="1.13332">
        <ele>201.187498</ele>
        <time>2023-01-01T11:43:44.489Z</time>
      </trkpt>
      <trkpt lat="43.85345" lon="1.13325">
        <ele>200.649172</ele>
        <time>2023-01-01T11:43:46.495Z</time>
      </trkpt>
      <trkpt lat="43.85353" lon="1.13316">
        <ele>200.12726</ele>
        <time>2023-01-01T11:43:48.491Z</time>
      </trkpt>
      <trkpt lat="43.85359" lon="1.13306">
        <ele>199.623452</ele>
        <time>2023-01-01T11:43:50.493Z</time>
      </trkpt>
      <trkpt lat="43.85364" lon="1.13295">
        <ele>199.160437</ele>
        <time>2023-01-01T11:43:52.474Z</time>
      </trkpt>
      <trkpt lat="43.8537" lon="1.13283">
        <ele>198.653709</ele>
        <time>2023-01-01T11:43:54.475Z</time>
      </trkpt>
      <trkpt lat="43.85374" lon="1.13269">
        <ele>198.123549</ele>
        <time>2023-01-01T11:43:56.495Z</time>
      </trkpt>
      <trkpt lat="43.8538" lon="1.13256">
        <ele>197.576053</ele>
        <time>2023-01-01T11:43:58.504Z</time>
      </trkpt>
      <trkpt lat="43.85385" lon="1.13242">
        <ele>197.044749</ele>
        <time>2023-01-01T11:44:00.502Z</time>
      </trkpt>
      <trkpt lat="43.8539" lon="1.13229">
        <ele>196.529488</ele>
        <time>2023-01-01T11:44:02.493Z</time>
      </trkpt>
      <trkpt lat="43.85395" lon="1.13216">
        <ele>196.020307</ele>
        <time>2023-01-01T11:44:04.501Z</time>
      </trkpt>
      <trkpt lat="43.85398" lon="1.13204">
        <ele>195.547373</ele>
        <time>2023-01-01T11:44:06.496Z</time>
      </trkpt>
      <trkpt lat="43.85401" lon="1.1319">
        <ele>195.067606</ele>
        <time>2023-01-01T11:44:08.471Z</time>
      </trkpt>
      <trkpt lat="43.85401" lon="1.13178">
        <ele>194.615504</ele>
        <time>2023-01-01T11:44:10.476Z</time>
      </trkpt>
      <trkpt lat="43.85401" lon="1.13164">
        <ele>194.133799</ele>
        <time>2023-01-01T11:44:12.484Z</time>
      </trkpt>
      <trkpt lat="43.85401" lon="1.13149">
        <ele>193.619722</ele>
        <time>2023-01-01T11:44:14.490Z</time>
      </trkpt>
      <trkpt lat="43.85401" lon="1.13135">
        <ele>193.104998</ele>
        <time>2023-01-01T11:44:16.493Z</time>
      </trkpt>
      <trkpt lat="43.85405" lon="1.13119">
        <ele>192.521306</ele>
        <time>2023-01-01T11:44:18.472Z</time>
      </trkpt>
      <trkpt lat="43.85411" lon="1.13103">
        <ele>191.886027</ele>
        <time>2023-01-01T11:44:20.470Z</time>
      </trkpt>
      <trkpt lat="43.85421" lon="1.13089">
        <ele>191.213567</ele>
        <time>2023-01-01T11:44:22.481Z</time>
      </trkpt>
      <trkpt lat="43.85431" lon="1.13076">
        <ele>190.86325</ele>
        <time>2023-01-01T11:44:24.477Z</time>
      </trkpt>
      <trkpt lat="43.85442" lon="1.13064">
        <ele>191.000408</ele>
        <time>2023-01-01T11:44:26.492Z</time>
      </trkpt>
      <trkpt lat="43.85452" lon="1.13053">
        <ele>191.129926</ele>
        <time>2023-01-01T11:44:28.476Z</time>
      </trkpt>
      <trkpt lat="43.85462" lon="1.13042">
        <ele>191.253866</ele>
        <time>2023-01-01T11:44:30.499Z</time>
      </trkpt>
      <trkpt lat="43.85469" lon="1.1303">
        <ele>191.367686</ele>
        <time>2023-01-01T11:44:32.483Z</time>
      </trkpt>
      <trkpt lat="43.85475" lon="1.13019">
        <ele>191.471458</ele>
        <time>2023-01-01T11:44:34.491Z</time>
      </trkpt>
      <trkpt lat="43.85481" lon="1.13008">
        <ele>191.565857</ele>
        <time>2023-01-01T11:44:36.496Z</time>
      </trkpt>
      <trkpt lat="43.85485" lon="1.12997">
        <ele>191.657034</ele>
        <time>2023-01-01T11:44:38.500Z</time>
      </trkpt>
      <trkpt lat="43.85492" lon="1.12981">
        <ele>191.790267</ele>
        <time>2023-01-01T11:44:41.496Z</time>
      </trkpt>
      <trkpt lat="43.85497" lon="1.1297">
        <ele>191.883431</ele>
        <time>2023-01-01T11:44:43.483Z</time>
      </trkpt>
      <trkpt lat="43.85501" lon="1.12959">
        <ele>191.974608</ele>
        <time>2023-01-01T11:44:45.500Z</time>
      </trkpt>
      <trkpt lat="43.85508" lon="1.12944">
        <ele>192.104359</ele>
        <time>2023-01-01T11:44:48.496Z</time>
      </trkpt>
      <trkpt lat="43.85515" lon="1.12928">
        <ele>192.23899</ele>
        <time>2023-01-01T11:44:51.498Z</time>
      </trkpt>
      <trkpt lat="43.85522" lon="1.12912">
        <ele>192.368281</ele>
        <time>2023-01-01T11:44:54.501Z</time>
      </trkpt>
      <trkpt lat="43.85528" lon="1.12897">
        <ele>192.501277</ele>
        <time>2023-01-01T11:44:57.499Z</time>
      </trkpt>
      <trkpt lat="43.85535" lon="1.12881">
        <ele>192.663774</ele>
        <time>2023-01-01T11:45:00.494Z</time>
      </trkpt>
      <trkpt lat="43.85541" lon="1.12867">
        <ele>192.994898</ele>
        <time>2023-01-01T11:45:03.508Z</time>
      </trkpt>
      <trkpt lat="43.85546" lon="1.12854">
        <ele>193.297266</ele>
        <time>2023-01-01T11:45:06.497Z</time>
      </trkpt>
      <trkpt lat="43.85551" lon="1.12842">
        <ele>193.577998</ele>
        <time>2023-01-01T11:45:09.497Z</time>
      </trkpt>
      <trkpt lat="43.85557" lon="1.12831">
        <ele>193.85818</ele>
        <time>2023-01-01T11:45:12.471Z</time>
      </trkpt>
      <trkpt lat="43.85562" lon="1.12819">
        <ele>194.142884</ele>
        <time>2023-01-01T11:45:15.500Z</time>
      </trkpt>
      <trkpt lat="43.85567" lon="1.12807">
        <ele>194.424778</ele>
        <time>2023-01-01T11:45:18.495Z</time>
      </trkpt>
      <trkpt lat="43.85573" lon="1.12795">
        <ele>194.704959</ele>
        <time>2023-01-01T11:45:21.465Z</time>
      </trkpt>
      <trkpt lat="43.85578" lon="1.12783">
        <ele>194.982225</ele>
        <time>2023-01-01T11:45:24.500Z</time>
      </trkpt>
      <trkpt lat="43.85583" lon="1.12772">
        <ele>195.253522</ele>
        <time>2023-01-01T11:45:27.496Z</time>
      </trkpt>
      <trkpt lat="43.85588" lon="1.12761">
        <ele>195.508671</ele>
        <time>2023-01-01T11:45:30.472Z</time>
      </trkpt>
      <trkpt lat="43.85593" lon="1.12748">
        <ele>195.813587</ele>
        <time>2023-01-01T11:45:34.494Z</time>
      </trkpt>
      <trkpt lat="43.85597" lon="1.12735">
        <ele>196.097555</ele>
        <time>2023-01-01T11:45:38.497Z</time>
      </trkpt>
      <trkpt lat="43.85604" lon="1.12724">
        <ele>196.377355</ele>
        <time>2023-01-01T11:45:42.497Z</time>
      </trkpt>
      <trkpt lat="43.85608" lon="1.12712">
        <ele>196.664556</ele>
        <time>2023-01-01T11:45:46.483Z</time>
      </trkpt>
      <trkpt lat="43.85613" lon="1.12699">
        <ele>196.950988</ele>
        <time>2023-01-01T11:45:50.502Z</time>
      </trkpt>
      <trkpt lat="43.85618" lon="1.12686">
        <ele>197.244665</ele>
        <time>2023-01-01T11:45:54.484Z</time>
      </trkpt>
      <trkpt lat="43.85624" lon="1.12674">
        <ele>197.537836</ele>
        <time>2023-01-01T11:45:58.467Z</time>
      </trkpt>
      <trkpt lat="43.8563" lon="1.12662">
        <ele>197.92023</ele>
        <time>2023-01-01T11:46:02.488Z</time>
      </trkpt>
      <trkpt lat="43.85635" lon="1.1265">
        <ele>198.361138</ele>
        <time>2023-01-01T11:46:06.499Z</time>
      </trkpt>
      <trkpt lat="43.8564" lon="1.12637">
        <ele>198.79945</ele>
        <time>2023-01-01T11:46:10.494Z</time>
      </trkpt>
      <trkpt lat="43.85645" lon="1.12626">
        <ele>199.215427</ele>
        <time>2023-01-01T11:46:15.500Z</time>
      </trkpt>
      <trkpt lat="43.8565" lon="1.12614">
        <ele>199.619617</ele>
        <time>2023-01-01T11:46:20.484Z</time>
      </trkpt>
      <trkpt lat="43.85655" lon="1.12601">
        <ele>200.085894</ele>
        <time>2023-01-01T11:46:25.502Z</time>
      </trkpt>
      <trkpt lat="43.85661" lon="1.12588">
        <ele>200.548477</ele>
        <time>2023-01-01T11:46:30.495Z</time>
      </trkpt>
      <trkpt lat="43.85666" lon="1.12576">
        <ele>200.99845</ele>
        <time>2023-01-01T11:46:35.493Z</time>
      </trkpt>
      <trkpt lat="43.85671" lon="1.12562">
        <ele>201.449776</ele>
        <time>2023-01-01T11:46:40.487Z</time>
      </trkpt>
      <trkpt lat="43.85675" lon="1.12548">
        <ele>201.918105</ele>
        <time>2023-01-01T11:46:45.496Z</time>
      </trkpt>
      <trkpt lat="43.85678" lon="1.12534">
        <ele>202.378979</ele>
        <time>2023-01-01T11:46:50.497Z</time>
      </trkpt>
      <trkpt lat="43.85683" lon="1.1252">
        <ele>202.856182</ele>
        <time>2023-01-01T11:46:55.498Z</time>
      </trkpt>
      <trkpt lat="43.85687" lon="1.12505">
        <ele>203.331515</ele>
        <time>2023-01-01T11:47:00.467Z</time>
      </trkpt>
      <trkpt lat="43.85691" lon="1.12491">
        <ele>203.791035</ele>
        <time>2023-01-01T11:47:05.478Z</time>
      </trkpt>
      <trkpt lat="43.85695" lon="1.12477">
        <ele>204.261433</ele>
        <time>2023-01-01T11:47:10.493Z</time>
      </trkpt>
      <trkpt lat="43.85699" lon="1.12464">
        <ele>204.695045</ele>
        <time>2023-01-01T11:47:15.463Z</time>
      </trkpt>
      <trkpt lat="43.85701" lon="1.12452">
        <ele>205.080424</ele>
        <time>2023-01-01T11:47:19.474Z</time>
      </trkpt>
      <trkpt lat="43.85704" lon="1.1244">
        <ele>205.451185</ele>
        <time>2023-01-01T11:47:23.483Z</time>
      </trkpt>
      <trkpt lat="43.85708" lon="1.12425">
        <ele>205.864005</ele>
        <time>2023-01-01T11:47:28.480Z</time>
      </trkpt>
      <trkpt lat="43.85711" lon="1.12413">
        <ele>206.2098</ele>
        <time>2023-01-01T11:47:32.486Z</time>
      </trkpt>
      <trkpt lat="43.85714" lon="1.12398">
        <ele>206.636573</ele>
        <time>2023-01-01T11:47:37.488Z</time>
      </trkpt>
      <trkpt lat="43.85717" lon="1.12384">
        <ele>207.053106</ele>
        <time>2023-01-01T11:47:42.483Z</time>
      </trkpt>
      <trkpt lat="43.8572" lon="1.12371">
        <ele>207.41983</ele>
        <time>2023-01-01T11:47:46.495Z</time>
      </trkpt>
      <trkpt lat="43.85723" lon="1.12359">
        <ele>207.772332</ele>
        <time>2023-01-01T11:47:50.496Z</time>
      </trkpt>
      <trkpt lat="43.85726" lon="1.12346">
        <ele>208.141336</ele>
        <time>2023-01-01T11:47:54.501Z</time>
      </trkpt>
      <trkpt lat="43.85728" lon="1.12332">
        <ele>208.527867</ele>
        <time>2023-01-01T11:47:58.499Z</time>
      </trkpt>
      <trkpt lat="43.85731" lon="1.12318">
        <ele>208.936611</ele>
        <time>2023-01-01T11:48:02.498Z</time>
      </trkpt>
      <trkpt lat="43.85733" lon="1.12304">
        <ele>209.32945</ele>
        <time>2023-01-01T11:48:06.500Z</time>
      </trkpt>
      <trkpt lat="43.85735" lon="1.12291">
        <ele>209.689398</ele>
        <time>2023-01-01T11:48:10.503Z</time>
      </trkpt>
      <trkpt lat="43.85738" lon="1.12279">
        <ele>210.05319</ele>
        <time>2023-01-01T11:48:14.472Z</time>
      </trkpt>
      <trkpt lat="43.85741" lon="1.12266">
        <ele>210.42471</ele>
        <time>2023-01-01T11:48:18.499Z</time>
      </trkpt>
      <trkpt lat="43.85744" lon="1.12251">
        <ele>210.838289</ele>
        <time>2023-01-01T11:48:23.498Z</time>
      </trkpt>
      <trkpt lat="43.85747" lon="1.12236">
        <ele>211.263457</ele>
        <time>2023-01-01T11:48:28.495Z</time>
      </trkpt>
      <trkpt lat="43.85749" lon="1.12224">
        <ele>211.613693</ele>
        <time>2023-01-01T11:48:32.479Z</time>
      </trkpt>
      <trkpt lat="43.85752" lon="1.12209">
        <ele>212.035183</ele>
        <time>2023-01-01T11:48:37.499Z</time>
      </trkpt>
      <trkpt lat="43.85755" lon="1.12195">
        <ele>212.50388</ele>
        <time>2023-01-01T11:48:42.493Z</time>
      </trkpt>
      <trkpt lat="43.85756" lon="1.12183">
        <ele>212.920696</ele>
        <time>2023-01-01T11:48:46.472Z</time>
      </trkpt>
      <trkpt lat="43.8576" lon="1.12168">
        <ele>213.436821</ele>
        <time>2023-01-01T11:48:51.491Z</time>
      </trkpt>
      <trkpt lat="43.85761" lon="1.12155">
        <ele>213.852793</ele>
        <time>2023-01-01T11:48:55.478Z</time>
      </trkpt>
      <trkpt lat="43.85763" lon="1.12143">
        <ele>214.281212</ele>
        <time>2023-01-01T11:48:59.496Z</time>
      </trkpt>
      <trkpt lat="43.85766" lon="1.12128">
        <ele>214.789669</ele>
        <time>2023-01-01T11:49:04.502Z</time>
      </trkpt>
      <trkpt lat="43.85769" lon="1.12114">
        <ele>215.279383</ele>
        <time>2023-01-01T11:49:09.500Z</time>
      </trkpt>
      <trkpt lat="43.85771" lon="1.12102">
        <ele>215.697922</ele>
        <time>2023-01-01T11:49:13.500Z</time>
      </trkpt>
      <trkpt lat="43.85774" lon="1.12087">
        <ele>216.194891</ele>
        <time>2023-01-01T11:49:18.495Z</time>
      </trkpt>
      <trkpt lat="43.85776" lon="1.12075">
        <ele>216.620206</ele>
        <time>2023-01-01T11:49:22.472Z</time>
      </trkpt>
      <trkpt lat="43.8578" lon="1.1206">
        <ele>217.129108</ele>
        <time>2023-01-01T11:49:27.502Z</time>
      </trkpt>
      <trkpt lat="43.85782" lon="1.12045">
        <ele>217.642551</ele>
        <time>2023-01-01T11:49:32.491Z</time>
      </trkpt>
      <trkpt lat="43.85785" lon="1.1203">
        <ele>218.160621</ele>
        <time>2023-01-01T11:49:37.496Z</time>
      </trkpt>
      <trkpt lat="43.85789" lon="1.12016">
        <ele>218.667158</ele>
        <time>2023-01-01T11:49:42.499Z</time>
      </trkpt>
      <trkpt lat="43.85791" lon="1.12003">
        <ele>219.116067</ele>
        <time>2023-01-01T11:49:47.498Z</time>
      </trkpt>
      <trkpt lat="43.85793" lon="1.11989">
        <ele>219.576724</ele>
        <time>2023-01-01T11:49:52.501Z</time>
      </trkpt>
      <trkpt lat="43.85796" lon="1.11975">
        <ele>220.064318</ele>
        <time>2023-01-01T11:49:57.491Z</time>
      </trkpt>
      <trkpt lat="43.85798" lon="1.11961">
        <ele>220.53178</ele>
        <time>2023-01-01T11:50:02.500Z</time>
      </trkpt>
      <trkpt lat="43.85801" lon="1.11949">
        <ele>220.913139</ele>
        <time>2023-01-01T11:50:07.481Z</time>
      </trkpt>
      <trkpt lat="43.85803" lon="1.11936">
        <ele>221.295895</ele>
        <time>2023-01-01T11:50:12.481Z</time>
      </trkpt>
      <trkpt lat="43.85806" lon="1.11923">
        <ele>221.692868</ele>
        <time>2023-01-01T11:50:17.488Z</time>
      </trkpt>
      <trkpt lat="43.85808" lon="1.11909">
        <ele>222.101503</ele>
        <time>2023-01-01T11:50:22.490Z</time>
      </trkpt>
      <trkpt lat="43.85811" lon="1.11895">
        <ele>222.530456</ele>
        <time>2023-01-01T11:50:27.497Z</time>
      </trkpt>
      <trkpt lat="43.85814" lon="1.11882">
        <ele>222.936975</ele>
        <time>2023-01-01T11:50:32.487Z</time>
      </trkpt>
      <trkpt lat="43.85816" lon="1.11869">
        <ele>223.338673</ele>
        <time>2023-01-01T11:50:37.497Z</time>
      </trkpt>
      <trkpt lat="43.85818" lon="1.11855">
        <ele>223.746327</ele>
        <time>2023-01-01T11:50:42.481Z</time>
      </trkpt>
      <trkpt lat="43.85821" lon="1.11843">
        <ele>224.130468</ele>
        <time>2023-01-01T11:50:47.498Z</time>
      </trkpt>
      <trkpt lat="43.85823" lon="1.1183">
        <ele>224.520035</ele>
        <time>2023-01-01T11:50:52.488Z</time>
      </trkpt>
      <trkpt lat="43.85825" lon="1.11818">
        <ele>224.889713</ele>
        <time>2023-01-01T11:50:57.494Z</time>
      </trkpt>
      <trkpt lat="43.85827" lon="1.11804">
        <ele>225.30234</ele>
        <time>2023-01-01T11:51:02.495Z</time>
      </trkpt>
      <trkpt lat="43.85829" lon="1.1179">
        <ele>225.708444</ele>
        <time>2023-01-01T11:51:07.487Z</time>
      </trkpt>
      <trkpt lat="43.85831" lon="1.11776">
        <ele>226.125413</ele>
        <time>2023-01-01T11:51:12.495Z</time>
      </trkpt>
      <trkpt lat="43.85832" lon="1.11763">
        <ele>226.502745</ele>
        <time>2023-01-01T11:51:17.486Z</time>
      </trkpt>
      <trkpt lat="43.85834" lon="1.11749">
        <ele>226.939373</ele>
        <time>2023-01-01T11:51:22.492Z</time>
      </trkpt>
      <trkpt lat="43.85835" lon="1.11734">
        <ele>227.386009</ele>
        <time>2023-01-01T11:51:27.496Z</time>
      </trkpt>
      <trkpt lat="43.85836" lon="1.11721">
        <ele>227.755869</ele>
        <time>2023-01-01T11:51:31.490Z</time>
      </trkpt>
      <trkpt lat="43.85837" lon="1.11706">
        <ele>228.164575</ele>
        <time>2023-01-01T11:51:36.488Z</time>
      </trkpt>
      <trkpt lat="43.85838" lon="1.11693">
        <ele>228.500251</ele>
        <time>2023-01-01T11:51:40.503Z</time>
      </trkpt>
      <trkpt lat="43.85838" lon="1.1168">
        <ele>228.829893</ele>
        <time>2023-01-01T11:51:44.489Z</time>
      </trkpt>
      <trkpt lat="43.85839" lon="1.11667">
        <ele>229.176063</ele>
        <time>2023-01-01T11:51:48.494Z</time>
      </trkpt>
      <trkpt lat="43.85839" lon="1.11654">
        <ele>229.515731</ele>
        <time>2023-01-01T11:51:52.495Z</time>
      </trkpt>
      <trkpt lat="43.85839" lon="1.11642">
        <ele>229.855478</ele>
        <time>2023-01-01T11:51:56.488Z</time>
      </trkpt>
      <trkpt lat="43.8584" lon="1.11628">
        <ele>230.200895</ele>
        <time>2023-01-01T11:52:00.502Z</time>
      </trkpt>
      <trkpt lat="43.8584" lon="1.11615">
        <ele>230.559014</ele>
        <time>2023-01-01T11:52:04.493Z</time>
      </trkpt>
      <trkpt lat="43.8584" lon="1.11602">
        <ele>230.909233</ele>
        <time>2023-01-01T11:52:08.497Z</time>
      </trkpt>
      <trkpt lat="43.85839" lon="1.11588">
        <ele>231.268003</ele>
        <time>2023-01-01T11:52:12.496Z</time>
      </trkpt>
      <trkpt lat="43.85839" lon="1.11575">
        <ele>231.61626</ele>
        <time>2023-01-01T11:52:16.501Z</time>
      </trkpt>
      <trkpt lat="43.85839" lon="1.11559">
        <ele>232.019139</ele>
        <time>2023-01-01T11:52:20.482Z</time>
      </trkpt>
      <trkpt lat="43.85838" lon="1.11543">
        <ele>232.443208</ele>
        <time>2023-01-01T11:52:24.505Z</time>
      </trkpt>
      <trkpt lat="43.85837" lon="1.11527">
        <ele>232.872821</ele>
        <time>2023-01-01T11:52:28.495Z</time>
      </trkpt>
      <trkpt lat="43.85835" lon="1.11512">
        <ele>233.27939</ele>
        <time>2023-01-01T11:52:32.496Z</time>
      </trkpt>
      <trkpt lat="43.85834" lon="1.11497">
        <ele>233.683351</ele>
        <time>2023-01-01T11:52:36.470Z</time>
      </trkpt>
      <trkpt lat="43.85832" lon="1.11482">
        <ele>234.072197</ele>
        <time>2023-01-01T11:52:40.493Z</time>
      </trkpt>
      <trkpt lat="43.85831" lon="1.11468">
        <ele>234.129701</ele>
        <time>2023-01-01T11:52:44.488Z</time>
      </trkpt>
      <trkpt lat="43.85829" lon="1.11455">
        <ele>233.691481</ele>
        <time>2023-01-01T11:52:48.496Z</time>
      </trkpt>
      <trkpt lat="43.85827" lon="1.11439">
        <ele>233.158291</ele>
        <time>2023-01-01T11:52:52.480Z</time>
      </trkpt>
      <trkpt lat="43.85825" lon="1.11426">
        <ele>232.739839</ele>
        <time>2023-01-01T11:52:55.500Z</time>
      </trkpt>
      <trkpt lat="43.85823" lon="1.11413">
        <ele>232.289426</ele>
        <time>2023-01-01T11:52:58.502Z</time>
      </trkpt>
      <trkpt lat="43.85821" lon="1.11399">
        <ele>231.823348</ele>
        <time>2023-01-01T11:53:01.502Z</time>
      </trkpt>
      <trkpt lat="43.85818" lon="1.11383">
        <ele>231.29565</ele>
        <time>2023-01-01T11:53:04.502Z</time>
      </trkpt>
      <trkpt lat="43.85817" lon="1.11366">
        <ele>230.73475</ele>
        <time>2023-01-01T11:53:07.494Z</time>
      </trkpt>
      <trkpt lat="43.85815" lon="1.11349">
        <ele>230.187415</ele>
        <time>2023-01-01T11:53:10.499Z</time>
      </trkpt>
      <trkpt lat="43.85813" lon="1.11332">
        <ele>229.618034</ele>
        <time>2023-01-01T11:53:13.491Z</time>
      </trkpt>
      <trkpt lat="43.85811" lon="1.11314">
        <ele>229.02301</ele>
        <time>2023-01-01T11:53:16.492Z</time>
      </trkpt>
      <trkpt lat="43.85809" lon="1.11301">
        <ele>228.596808</ele>
        <time>2023-01-01T11:53:18.482Z</time>
      </trkpt>
      <trkpt lat="43.85807" lon="1.11289">
        <ele>228.183428</ele>
        <time>2023-01-01T11:53:20.481Z</time>
      </trkpt>
      <trkpt lat="43.85805" lon="1.1127">
        <ele>227.557015</ele>
        <time>2023-01-01T11:53:23.496Z</time>
      </trkpt>
      <trkpt lat="43.85803" lon="1.11257">
        <ele>227.115576</ele>
        <time>2023-01-01T11:53:25.498Z</time>
      </trkpt>
      <trkpt lat="43.85801" lon="1.11244">
        <ele>226.696644</ele>
        <time>2023-01-01T11:53:27.492Z</time>
      </trkpt>
      <trkpt lat="43.85799" lon="1.11232">
        <ele>226.267572</ele>
        <time>2023-01-01T11:53:29.499Z</time>
      </trkpt>
      <trkpt lat="43.85797" lon="1.11218">
        <ele>225.43049</ele>
        <time>2023-01-01T11:53:31.490Z</time>
      </trkpt>
      <trkpt lat="43.85794" lon="1.11205">
        <ele>224.482429</ele>
        <time>2023-01-01T11:53:33.500Z</time>
      </trkpt>
      <trkpt lat="43.85793" lon="1.11192">
        <ele>223.518892</ele>
        <time>2023-01-01T11:53:35.498Z</time>
      </trkpt>
      <trkpt lat="43.85791" lon="1.11177">
        <ele>222.479452</ele>
        <time>2023-01-01T11:53:37.500Z</time>
      </trkpt>
      <trkpt lat="43.85789" lon="1.11162">
        <ele>221.4119</ele>
        <time>2023-01-01T11:53:39.472Z</time>
      </trkpt>
      <trkpt lat="43.85787" lon="1.11147">
        <ele>220.294207</ele>
        <time>2023-01-01T11:53:41.495Z</time>
      </trkpt>
      <trkpt lat="43.85785" lon="1.11131">
        <ele>219.14321</ele>
        <time>2023-01-01T11:53:43.502Z</time>
      </trkpt>
      <trkpt lat="43.85784" lon="1.11115">
        <ele>218.035871</ele>
        <time>2023-01-01T11:53:45.496Z</time>
      </trkpt>
      <trkpt lat="43.85783" lon="1.11099">
        <ele>216.866096</ele>
        <time>2023-01-01T11:53:47.496Z</time>
      </trkpt>
      <trkpt lat="43.85783" lon="1.11083">
        <ele>215.742776</ele>
        <time>2023-01-01T11:53:49.496Z</time>
      </trkpt>
      <trkpt lat="43.85783" lon="1.11067">
        <ele>214.605328</ele>
        <time>2023-01-01T11:53:51.490Z</time>
      </trkpt>
      <trkpt lat="43.85784" lon="1.11051">
        <ele>213.476892</ele>
        <time>2023-01-01T11:53:53.482Z</time>
      </trkpt>
      <trkpt lat="43.85786" lon="1.11036">
        <ele>212.40135</ele>
        <time>2023-01-01T11:53:55.500Z</time>
      </trkpt>
      <trkpt lat="43.85787" lon="1.1102">
        <ele>211.268501</ele>
        <time>2023-01-01T11:53:57.502Z</time>
      </trkpt>
      <trkpt lat="43.85789" lon="1.11004">
        <ele>210.166347</ele>
        <time>2023-01-01T11:53:59.497Z</time>
      </trkpt>
      <trkpt lat="43.85791" lon="1.10988">
        <ele>209.015639</ele>
        <time>2023-01-01T11:54:01.500Z</time>
      </trkpt>
      <trkpt lat="43.85794" lon="1.10972">
        <ele>207.920018</ele>
        <time>2023-01-01T11:54:03.496Z</time>
      </trkpt>
      <trkpt lat="43.85798" lon="1.10955">
        <ele>206.888849</ele>
        <time>2023-01-01T11:54:05.480Z</time>
      </trkpt>
      <trkpt lat="43.85803" lon="1.10938">
        <ele>205.793462</ele>
        <time>2023-01-01T11:54:07.470Z</time>
      </trkpt>
      <trkpt lat="43.85808" lon="1.10922">
        <ele>204.735683</ele>
        <time>2023-01-01T11:54:09.476Z</time>
      </trkpt>
      <trkpt lat="43.85814" lon="1.10905">
        <ele>203.661191</ele>
        <time>2023-01-01T11:54:11.482Z</time>
      </trkpt>
      <trkpt lat="43.85819" lon="1.10888">
        <ele>202.547432</ele>
        <time>2023-01-01T11:54:13.474Z</time>
      </trkpt>
      <trkpt lat="43.85826" lon="1.10872">
        <ele>201.452381</ele>
        <time>2023-01-01T11:54:15.471Z</time>
      </trkpt>
      <trkpt lat="43.85833" lon="1.10857">
        <ele>200.350739</ele>
        <time>2023-01-01T11:54:17.492Z</time>
      </trkpt>
      <trkpt lat="43.8584" lon="1.1084">
        <ele>199.214356</ele>
        <time>2023-01-01T11:54:19.497Z</time>
      </trkpt>
      <trkpt lat="43.85847" lon="1.10824">
        <ele>198.074456</ele>
        <time>2023-01-01T11:54:21.505Z</time>
      </trkpt>
      <trkpt lat="43.85855" lon="1.10807">
        <ele>196.91133</ele>
        <time>2023-01-01T11:54:23.492Z</time>
      </trkpt>
      <trkpt lat="43.85862" lon="1.10791">
        <ele>195.762757</ele>
        <time>2023-01-01T11:54:25.473Z</time>
      </trkpt>
      <trkpt lat="43.85869" lon="1.10774">
        <ele>194.625481</ele>
        <time>2023-01-01T11:54:27.493Z</time>
      </trkpt>
      <trkpt lat="43.85876" lon="1.10756">
        <ele>193.602995</ele>
        <time>2023-01-01T11:54:29.500Z</time>
      </trkpt>
      <trkpt lat="43.85883" lon="1.10739">
        <ele>193.143512</ele>
        <time>2023-01-01T11:54:31.493Z</time>
      </trkpt>
      <trkpt lat="43.85891" lon="1.10721">
        <ele>192.653922</ele>
        <time>2023-01-01T11:54:33.493Z</time>
      </trkpt>
      <trkpt lat="43.859" lon="1.10703">
        <ele>192.140905</ele>
        <time>2023-01-01T11:54:35.491Z</time>
      </trkpt>
      <trkpt lat="43.8591" lon="1.10686">
        <ele>191.621891</ele>
        <time>2023-01-01T11:54:37.482Z</time>
      </trkpt>
      <trkpt lat="43.85922" lon="1.10669">
        <ele>191.086045</ele>
        <time>2023-01-01T11:54:39.473Z</time>
      </trkpt>
      <trkpt lat="43.85932" lon="1.10652">
        <ele>190.565661</ele>
        <time>2023-01-01T11:54:41.493Z</time>
      </trkpt>
      <trkpt lat="43.85942" lon="1.10634">
        <ele>190.046649</ele>
        <time>2023-01-01T11:54:43.493Z</time>
      </trkpt>
      <trkpt lat="43.85951" lon="1.1062">
        <ele>189.6019</ele>
        <time>2023-01-01T11:54:45.497Z</time>
      </trkpt>
      <trkpt lat="43.85959" lon="1.10605">
        <ele>189.1811</ele>
        <time>2023-01-01T11:54:47.508Z</time>
      </trkpt>
      <trkpt lat="43.85967" lon="1.10592">
        <ele>188.803229</ele>
        <time>2023-01-01T11:54:49.501Z</time>
      </trkpt>
      <trkpt lat="43.85973" lon="1.1058">
        <ele>188.461403</ele>
        <time>2023-01-01T11:54:51.496Z</time>
      </trkpt>
      <trkpt lat="43.85979" lon="1.10569">
        <ele>188.134467</ele>
        <time>2023-01-01T11:54:53.497Z</time>
      </trkpt>
      <trkpt lat="43.85985" lon="1.10558">
        <ele>187.988912</ele>
        <time>2023-01-01T11:54:55.501Z</time>
      </trkpt>
      <trkpt lat="43.85991" lon="1.10547">
        <ele>188.102249</ele>
        <time>2023-01-01T11:54:57.496Z</time>
      </trkpt>
      <trkpt lat="43.85996" lon="1.10536">
        <ele>188.209339</ele>
        <time>2023-01-01T11:54:59.490Z</time>
      </trkpt>
      <trkpt lat="43.86003" lon="1.10523">
        <ele>188.350376</ele>
        <time>2023-01-01T11:55:02.487Z</time>
      </trkpt>
      <trkpt lat="43.86011" lon="1.1051">
        <ele>188.497333</ele>
        <time>2023-01-01T11:55:05.489Z</time>
      </trkpt>
      <trkpt lat="43.86019" lon="1.10496">
        <ele>188.643205</ele>
        <time>2023-01-01T11:55:08.493Z</time>
      </trkpt>
      <trkpt lat="43.86026" lon="1.10483">
        <ele>188.786337</ele>
        <time>2023-01-01T11:55:11.493Z</time>
      </trkpt>
      <trkpt lat="43.86035" lon="1.10472">
        <ele>188.932909</ele>
        <time>2023-01-01T11:55:14.496Z</time>
      </trkpt>
      <trkpt lat="43.86046" lon="1.10461">
        <ele>189.0887</ele>
        <time>2023-01-01T11:55:17.491Z</time>
      </trkpt>
      <trkpt lat="43.86055" lon="1.10448">
        <ele>189.243698</ele>
        <time>2023-01-01T11:55:20.478Z</time>
      </trkpt>
      <trkpt lat="43.8606" lon="1.10431">
        <ele>189.398396</ele>
        <time>2023-01-01T11:55:23.475Z</time>
      </trkpt>
      <trkpt lat="43.86067" lon="1.10415">
        <ele>189.555841</ele>
        <time>2023-01-01T11:55:26.499Z</time>
      </trkpt>
      <trkpt lat="43.86074" lon="1.104">
        <ele>189.70997</ele>
        <time>2023-01-01T11:55:29.481Z</time>
      </trkpt>
      <trkpt lat="43.8608" lon="1.10388">
        <ele>189.835764</ele>
        <time>2023-01-01T11:55:32.502Z</time>
      </trkpt>
      <trkpt lat="43.86086" lon="1.10376">
        <ele>189.960221</ele>
        <time>2023-01-01T11:55:36.473Z</time>
      </trkpt>
      <trkpt lat="43.86092" lon="1.10365">
        <ele>190.115387</ele>
        <time>2023-01-01T11:55:40.482Z</time>
      </trkpt>
      <trkpt lat="43.86098" lon="1.10355">
        <ele>190.580056</ele>
        <time>2023-01-01T11:55:44.487Z</time>
      </trkpt>
      <trkpt lat="43.86104" lon="1.10344">
        <ele>191.064032</ele>
        <time>2023-01-01T11:55:48.494Z</time>
      </trkpt>
      <trkpt lat="43.8611" lon="1.10332">
        <ele>191.542289</ele>
        <time>2023-01-01T11:55:52.491Z</time>
      </trkpt>
      <trkpt lat="43.86117" lon="1.10322">
        <ele>192.045132</ele>
        <time>2023-01-01T11:55:57.473Z</time>
      </trkpt>
      <trkpt lat="43.86123" lon="1.10312">
        <ele>192.484454</ele>
        <time>2023-01-01T11:56:02.474Z</time>
      </trkpt>
      <trkpt lat="43.86129" lon="1.10301">
        <ele>192.974055</ele>
        <time>2023-01-01T11:56:07.473Z</time>
      </trkpt>
      <trkpt lat="43.86135" lon="1.10291">
        <ele>193.436004</ele>
        <time>2023-01-01T11:56:12.494Z</time>
      </trkpt>
      <trkpt lat="43.8614" lon="1.1028">
        <ele>193.911417</ele>
        <time>2023-01-01T11:56:17.471Z</time>
      </trkpt>
      <trkpt lat="43.86146" lon="1.10269">
        <ele>194.387059</ele>
        <time>2023-01-01T11:56:22.500Z</time>
      </trkpt>
      <trkpt lat="43.86153" lon="1.10257">
        <ele>194.885379</ele>
        <time>2023-01-01T11:56:27.491Z</time>
      </trkpt>
      <trkpt lat="43.86159" lon="1.10247">
        <ele>195.361248</ele>
        <time>2023-01-01T11:56:32.483Z</time>
      </trkpt>
      <trkpt lat="43.86164" lon="1.10235">
        <ele>195.858144</ele>
        <time>2023-01-01T11:56:37.496Z</time>
      </trkpt>
      <trkpt lat="43.86169" lon="1.10224">
        <ele>196.30853</ele>
        <time>2023-01-01T11:56:42.471Z</time>
      </trkpt>
      <trkpt lat="43.86175" lon="1.10214">
        <ele>196.745077</ele>
        <time>2023-01-01T11:56:47.474Z</time>
      </trkpt>
      <trkpt lat="43.86182" lon="1.10204">
        <ele>197.223868</ele>
        <time>2023-01-01T11:56:52.482Z</time>
      </trkpt>
      <trkpt lat="43.86188" lon="1.10193">
        <ele>197.7031</ele>
        <time>2023-01-01T11:56:57.475Z</time>
      </trkpt>
      <trkpt lat="43.86194" lon="1.10183">
        <ele>198.172796</ele>
        <time>2023-01-01T11:57:02.492Z</time>
      </trkpt>
      <trkpt lat="43.86201" lon="1.10174">
        <ele>198.617237</ele>
        <time>2023-01-01T11:57:07.484Z</time>
      </trkpt>
      <trkpt lat="43.86207" lon="1.10163">
        <ele>199.1891</ele>
        <time>2023-01-01T11:57:13.484Z</time>
      </trkpt>
      <trkpt lat="43.86212" lon="1.1015">
        <ele>199.834969</ele>
        <time>2023-01-01T11:57:19.475Z</time>
      </trkpt>
      <trkpt lat="43.86219" lon="1.10138">
        <ele>200.470633</ele>
        <time>2023-01-01T11:57:25.474Z</time>
      </trkpt>
      <trkpt lat="43.86225" lon="1.10128">
        <ele>201.071879</ele>
        <time>2023-01-01T11:57:31.477Z</time>
      </trkpt>
      <trkpt lat="43.86231" lon="1.10118">
        <ele>201.616863</ele>
        <time>2023-01-01T11:57:36.474Z</time>
      </trkpt>
      <trkpt lat="43.86238" lon="1.10108">
        <ele>202.229</ele>
        <time>2023-01-01T11:57:42.475Z</time>
      </trkpt>
      <trkpt lat="43.86245" lon="1.10098">
        <ele>202.839044</ele>
        <time>2023-01-01T11:57:48.475Z</time>
      </trkpt>
      <trkpt lat="43.86251" lon="1.10086">
        <ele>203.445953</ele>
        <time>2023-01-01T11:57:55.478Z</time>
      </trkpt>
      <trkpt lat="43.86257" lon="1.10076">
        <ele>204.033394</ele>
        <time>2023-01-01T11:58:01.474Z</time>
      </trkpt>
      <trkpt lat="43.86263" lon="1.10065">
        <ele>204.605433</ele>
        <time>2023-01-01T11:58:07.484Z</time>
      </trkpt>
      <trkpt lat="43.86269" lon="1.10054">
        <ele>205.215921</ele>
        <time>2023-01-01T11:58:13.482Z</time>
      </trkpt>
      <trkpt lat="43.86275" lon="1.10043">
        <ele>205.801786</ele>
        <time>2023-01-01T11:58:19.476Z</time>
      </trkpt>
      <trkpt lat="43.8628" lon="1.10032">
        <ele>206.39466</ele>
        <time>2023-01-01T11:58:25.484Z</time>
      </trkpt>
      <trkpt lat="43.86286" lon="1.10022">
        <ele>206.940191</ele>
        <time>2023-01-01T11:58:31.482Z</time>
      </trkpt>
      <trkpt lat="43.86292" lon="1.10011">
        <ele>207.540332</ele>
        <time>2023-01-01T11:58:37.469Z</time>
      </trkpt>
      <trkpt lat="43.86298" lon="1.09999">
        <ele>208.136744</ele>
        <time>2023-01-01T11:58:43.490Z</time>
      </trkpt>
      <trkpt lat="43.86304" lon="1.09988">
        <ele>208.747225</ele>
        <time>2023-01-01T11:58:49.467Z</time>
      </trkpt>
      <trkpt lat="43.8631" lon="1.09977">
        <ele>209.33714</ele>
        <time>2023-01-01T11:58:55.473Z</time>
      </trkpt>
      <trkpt lat="43.86315" lon="1.09966">
        <ele>209.958887</ele>
        <time>2023-01-01T11:59:01.474Z</time>
      </trkpt>
      <trkpt lat="43.86321" lon="1.09956">
        <ele>210.588436</ele>
        <time>2023-01-01T11:59:07.478Z</time>
      </trkpt>
      <trkpt lat="43.86327" lon="1.09944">
        <ele>211.302084</ele>
        <time>2023-01-01T11:59:14.478Z</time>
      </trkpt>
      <trkpt lat="43.86333" lon="1.09934">
        <ele>211.928537</ele>
        <time>2023-01-01T11:59:20.479Z</time>
      </trkpt>
      <trkpt lat="43.86339" lon="1.09924">
        <ele>212.555485</ele>
        <time>2023-01-01T11:59:26.472Z</time>
      </trkpt>
      <trkpt lat="43.86344" lon="1.09913">
        <ele>213.20941</ele>
        <time>2023-01-01T11:59:32.478Z</time>
      </trkpt>
      <trkpt lat="43.86349" lon="1.09902">
        <ele>213.855195</ele>
        <time>2023-01-01T11:59:38.473Z</time>
      </trkpt>
      <trkpt lat="43.86356" lon="1.09891">
        <ele>214.565559</ele>
        <time>2023-01-01T11:59:45.472Z</time>
      </trkpt>
      <trkpt lat="43.86361" lon="1.09879">
        <ele>215.254792</ele>
        <time>2023-01-01T11:59:51.473Z</time>
      </trkpt>
      <trkpt lat="43.86366" lon="1.09868">
        <ele>215.894257</ele>
        <time>2023-01-01T11:59:57.493Z</time>
      </trkpt>
      <trkpt lat="43.86372" lon="1.09856">
        <ele>216.603011</ele>
        <time>2023-01-01T12:00:03.475Z</time>
      </trkpt>
      <trkpt lat="43.86378" lon="1.09844">
        <ele>217.272551</ele>
        <time>2023-01-01T12:00:09.473Z</time>
      </trkpt>
      <trkpt lat="43.86383" lon="1.09833">
        <ele>217.946529</ele>
        <time>2023-01-01T12:00:16.472Z</time>
      </trkpt>
      <trkpt lat="43.86388" lon="1.09823">
        <ele>218.560228</ele>
        <time>2023-01-01T12:00:22.476Z</time>
      </trkpt>
      <trkpt lat="43.86394" lon="1.0981">
        <ele>219.257044</ele>
        <time>2023-01-01T12:00:28.477Z</time>
      </trkpt>
      <trkpt lat="43.86399" lon="1.09798">
        <ele>219.974096</ele>
        <time>2023-01-01T12:00:34.476Z</time>
      </trkpt>
      <trkpt lat="43.86404" lon="1.09786">
        <ele>220.638769</ele>
        <time>2023-01-01T12:00:39.474Z</time>
      </trkpt>
      <trkpt lat="43.8641" lon="1.09774">
        <ele>221.352071</ele>
        <time>2023-01-01T12:00:45.477Z</time>
      </trkpt>
      <trkpt lat="43.86415" lon="1.09763">
        <ele>222.033063</ele>
        <time>2023-01-01T12:00:50.477Z</time>
      </trkpt>
      <trkpt lat="43.8642" lon="1.09752">
        <ele>222.762512</ele>
        <time>2023-01-01T12:00:55.483Z</time>
      </trkpt>
      <trkpt lat="43.86426" lon="1.09741">
        <ele>223.48548</ele>
        <time>2023-01-01T12:01:00.501Z</time>
      </trkpt>
      <trkpt lat="43.86431" lon="1.09731">
        <ele>224.190175</ele>
        <time>2023-01-01T12:01:05.470Z</time>
      </trkpt>
      <trkpt lat="43.86436" lon="1.0972">
        <ele>224.899452</ele>
        <time>2023-01-01T12:01:10.497Z</time>
      </trkpt>
      <trkpt lat="43.86441" lon="1.09708">
        <ele>225.654948</ele>
        <time>2023-01-01T12:01:16.481Z</time>
      </trkpt>
      <trkpt lat="43.86447" lon="1.09697">
        <ele>226.463405</ele>
        <time>2023-01-01T12:01:22.471Z</time>
      </trkpt>
      <trkpt lat="43.86452" lon="1.09685">
        <ele>227.227161</ele>
        <time>2023-01-01T12:01:28.474Z</time>
      </trkpt>
      <trkpt lat="43.86457" lon="1.09674">
        <ele>227.931364</ele>
        <time>2023-01-01T12:01:33.483Z</time>
      </trkpt>
      <trkpt lat="43.86462" lon="1.09664">
        <ele>228.628998</ele>
        <time>2023-01-01T12:01:38.484Z</time>
      </trkpt>
      <trkpt lat="43.86466" lon="1.09653">
        <ele>229.337043</ele>
        <time>2023-01-01T12:01:43.473Z</time>
      </trkpt>
      <trkpt lat="43.86471" lon="1.0964">
        <ele>230.13189</ele>
        <time>2023-01-01T12:01:49.476Z</time>
      </trkpt>
      <trkpt lat="43.86477" lon="1.09629">
        <ele>230.915213</ele>
        <time>2023-01-01T12:01:55.478Z</time>
      </trkpt>
      <trkpt lat="43.86482" lon="1.09618">
        <ele>231.617606</ele>
        <time>2023-01-01T12:02:00.477Z</time>
      </trkpt>
      <trkpt lat="43.86488" lon="1.09607">
        <ele>232.403838</ele>
        <time>2023-01-01T12:02:06.477Z</time>
      </trkpt>
      <trkpt lat="43.86493" lon="1.09595">
        <ele>233.163322</ele>
        <time>2023-01-01T12:02:12.466Z</time>
      </trkpt>
      <trkpt lat="43.86499" lon="1.09583">
        <ele>233.971856</ele>
        <time>2023-01-01T12:02:18.476Z</time>
      </trkpt>
      <trkpt lat="43.86504" lon="1.09572">
        <ele>234.728353</ele>
        <time>2023-01-01T12:02:24.478Z</time>
      </trkpt>
      <trkpt lat="43.8651" lon="1.0956">
        <ele>235.515393</ele>
        <time>2023-01-01T12:02:30.479Z</time>
      </trkpt>
      <trkpt lat="43.86513" lon="1.09547">
        <ele>236.133876</ele>
        <time>2023-01-01T12:02:36.481Z</time>
      </trkpt>
      <trkpt lat="43.86515" lon="1.09535">
        <ele>236.686328</ele>
        <time>2023-01-01T12:02:42.467Z</time>
      </trkpt>
      <trkpt lat="43.86512" lon="1.09523">
        <ele>237.250625</ele>
        <time>2023-01-01T12:02:48.469Z</time>
      </trkpt>
      <trkpt lat="43.86508" lon="1.09511">
        <ele>237.823637</ele>
        <time>2023-01-01T12:02:54.475Z</time>
      </trkpt>
      <trkpt lat="43.865" lon="1.09501">
        <ele>238.461406</ele>
        <time>2023-01-01T12:03:00.474Z</time>
      </trkpt>
      <trkpt lat="43.86492" lon="1.09494">
        <ele>239.033188</ele>
        <time>2023-01-01T12:03:06.476Z</time>
      </trkpt>
      <trkpt lat="43.86484" lon="1.09487">
        <ele>239.612137</ele>
        <time>2023-01-01T12:03:12.479Z</time>
      </trkpt>
      <trkpt lat="43.86478" lon="1.09479">
        <ele>240.164002</ele>
        <time>2023-01-01T12:03:17.482Z</time>
      </trkpt>
      <trkpt lat="43.86474" lon="1.09465">
        <ele>240.806782</ele>
        <time>2023-01-01T12:03:24.473Z</time>
      </trkpt>
      <trkpt lat="43.86473" lon="1.09451">
        <ele>241.431319</ele>
        <time>2023-01-01T12:03:30.471Z</time>
      </trkpt>
      <trkpt lat="43.86473" lon="1.09438">
        <ele>242.031978</ele>
        <time>2023-01-01T12:03:36.487Z</time>
      </trkpt>
      <trkpt lat="43.86475" lon="1.09425">
        <ele>242.613367</ele>
        <time>2023-01-01T12:03:42.478Z</time>
      </trkpt>
      <trkpt lat="43.86476" lon="1.09411">
        <ele>243.218381</ele>
        <time>2023-01-01T12:03:48.479Z</time>
      </trkpt>
      <trkpt lat="43.86478" lon="1.09398">
        <ele>243.817173</ele>
        <time>2023-01-01T12:03:54.476Z</time>
      </trkpt>
      <trkpt lat="43.86479" lon="1.09385">
        <ele>244.394157</ele>
        <time>2023-01-01T12:04:00.476Z</time>
      </trkpt>
      <trkpt lat="43.86481" lon="1.09371">
        <ele>244.998101</ele>
        <time>2023-01-01T12:04:06.484Z</time>
      </trkpt>
      <trkpt lat="43.86484" lon="1.09358">
        <ele>245.623656</ele>
        <time>2023-01-01T12:04:11.476Z</time>
      </trkpt>
      <trkpt lat="43.86488" lon="1.09345">
        <ele>246.226235</ele>
        <time>2023-01-01T12:04:16.480Z</time>
      </trkpt>
      <trkpt lat="43.86491" lon="1.09332">
        <ele>246.799632</ele>
        <time>2023-01-01T12:04:21.483Z</time>
      </trkpt>
      <trkpt lat="43.86493" lon="1.09319">
        <ele>247.269967</ele>
        <time>2023-01-01T12:04:26.472Z</time>
      </trkpt>
      <trkpt lat="43.86496" lon="1.09305">
        <ele>247.799017</ele>
        <time>2023-01-01T12:04:31.481Z</time>
      </trkpt>
      <trkpt lat="43.865" lon="1.09292">
        <ele>248.306039</ele>
        <time>2023-01-01T12:04:36.503Z</time>
      </trkpt>
      <trkpt lat="43.86504" lon="1.0928">
        <ele>248.791636</ele>
        <time>2023-01-01T12:04:41.503Z</time>
      </trkpt>
      <trkpt lat="43.86508" lon="1.09268">
        <ele>249.266493</ele>
        <time>2023-01-01T12:04:46.497Z</time>
      </trkpt>
      <trkpt lat="43.86511" lon="1.09256">
        <ele>249.734778</ele>
        <time>2023-01-01T12:04:52.477Z</time>
      </trkpt>
      <trkpt lat="43.86516" lon="1.09243">
        <ele>250.256249</ele>
        <time>2023-01-01T12:04:58.475Z</time>
      </trkpt>
      <trkpt lat="43.86521" lon="1.09231">
        <ele>250.75167</ele>
        <time>2023-01-01T12:05:03.471Z</time>
      </trkpt>
      <trkpt lat="43.86526" lon="1.0922">
        <ele>251.214929</ele>
        <time>2023-01-01T12:05:08.483Z</time>
      </trkpt>
      <trkpt lat="43.8653" lon="1.09207">
        <ele>251.71931</ele>
        <time>2023-01-01T12:05:13.473Z</time>
      </trkpt>
      <trkpt lat="43.86535" lon="1.09196">
        <ele>252.198592</ele>
        <time>2023-01-01T12:05:18.495Z</time>
      </trkpt>
      <trkpt lat="43.8654" lon="1.09184">
        <ele>252.676529</ele>
        <time>2023-01-01T12:05:24.481Z</time>
      </trkpt>
      <trkpt lat="43.86544" lon="1.09173">
        <ele>253.135469</ele>
        <time>2023-01-01T12:05:29.476Z</time>
      </trkpt>
      <trkpt lat="43.86548" lon="1.09161">
        <ele>253.601715</ele>
        <time>2023-01-01T12:05:34.474Z</time>
      </trkpt>
      <trkpt lat="43.86553" lon="1.0915">
        <ele>254.07021</ele>
        <time>2023-01-01T12:05:39.467Z</time>
      </trkpt>
      <trkpt lat="43.86558" lon="1.09137">
        <ele>254.599262</ele>
        <time>2023-01-01T12:05:44.483Z</time>
      </trkpt>
      <trkpt lat="43.86565" lon="1.09127">
        <ele>255.10427</ele>
        <time>2023-01-01T12:05:49.475Z</time>
      </trkpt>
      <trkpt lat="43.86573" lon="1.09118">
        <ele>255.587903</ele>
        <time>2023-01-01T12:05:54.494Z</time>
      </trkpt>
      <trkpt lat="43.86582" lon="1.09112">
        <ele>255.917076</ele>
        <time>2023-01-01T12:05:59.487Z</time>
      </trkpt>
      <trkpt lat="43.86591" lon="1.09109">
        <ele>256.195272</ele>
        <time>2023-01-01T12:06:03.484Z</time>
      </trkpt>
      <trkpt lat="43.866" lon="1.09107">
        <ele>256.47116</ele>
        <time>2023-01-01T12:06:07.492Z</time>
      </trkpt>
      <trkpt lat="43.8661" lon="1.09105">
        <ele>256.786766</ele>
        <time>2023-01-01T12:06:12.497Z</time>
      </trkpt>
      <trkpt lat="43.86621" lon="1.09102">
        <ele>257.101444</ele>
        <time>2023-01-01T12:06:17.486Z</time>
      </trkpt>
      <trkpt lat="43.86629" lon="1.09097">
        <ele>257.375306</ele>
        <time>2023-01-01T12:06:21.477Z</time>
      </trkpt>
      <trkpt lat="43.86636" lon="1.09089">
        <ele>257.661632</ele>
        <time>2023-01-01T12:06:25.480Z</time>
      </trkpt>
      <trkpt lat="43.86643" lon="1.09079">
        <ele>257.954221</ele>
        <time>2023-01-01T12:06:29.472Z</time>
      </trkpt>
      <trkpt lat="43.86648" lon="1.09066">
        <ele>258.280541</ele>
        <time>2023-01-01T12:06:34.503Z</time>
      </trkpt>
      <trkpt lat="43.8665" lon="1.09053">
        <ele>258.563736</ele>
        <time>2023-01-01T12:06:38.493Z</time>
      </trkpt>
      <trkpt lat="43.86648" lon="1.09038">
        <ele>258.89025</ele>
        <time>2023-01-01T12:06:43.472Z</time>
      </trkpt>
      <trkpt lat="43.86647" lon="1.09024">
        <ele>259.210887</ele>
        <time>2023-01-01T12:06:47.493Z</time>
      </trkpt>
      <trkpt lat="43.86646" lon="1.09009">
        <ele>259.537759</ele>
        <time>2023-01-01T12:06:51.496Z</time>
      </trkpt>
      <trkpt lat="43.86644" lon="1.08996">
        <ele>259.828222</ele>
        <time>2023-01-01T12:06:55.484Z</time>
      </trkpt>
      <trkpt lat="43.86643" lon="1.08982">
        <ele>260.139904</ele>
        <time>2023-01-01T12:06:59.496Z</time>
      </trkpt>
      <trkpt lat="43.86643" lon="1.08969">
        <ele>260.41689</ele>
        <time>2023-01-01T12:07:02.493Z</time>
      </trkpt>
      <trkpt lat="43.86641" lon="1.08956">
        <ele>260.699548</ele>
        <time>2023-01-01T12:07:05.482Z</time>
      </trkpt>
      <trkpt lat="43.86641" lon="1.08942">
        <ele>261.021811</ele>
        <time>2023-01-01T12:07:09.476Z</time>
      </trkpt>
      <trkpt lat="43.8664" lon="1.08928">
        <ele>261.50178</ele>
        <time>2023-01-01T12:07:13.488Z</time>
      </trkpt>
      <trkpt lat="43.86639" lon="1.08915">
        <ele>262.022257</ele>
        <time>2023-01-01T12:07:17.488Z</time>
      </trkpt>
      <trkpt lat="43.86637" lon="1.08901">
        <ele>262.575774</ele>
        <time>2023-01-01T12:07:21.508Z</time>
      </trkpt>
      <trkpt lat="43.86636" lon="1.08885">
        <ele>263.165744</ele>
        <time>2023-01-01T12:07:25.503Z</time>
      </trkpt>
      <trkpt lat="43.86635" lon="1.0887">
        <ele>263.733869</ele>
        <time>2023-01-01T12:07:29.488Z</time>
      </trkpt>
      <trkpt lat="43.86634" lon="1.08855">
        <ele>264.314551</ele>
        <time>2023-01-01T12:07:33.498Z</time>
      </trkpt>
      <trkpt lat="43.86633" lon="1.08841">
        <ele>264.868069</ele>
        <time>2023-01-01T12:07:37.497Z</time>
      </trkpt>
      <trkpt lat="43.86631" lon="1.08826">
        <ele>265.440327</ele>
        <time>2023-01-01T12:07:41.502Z</time>
      </trkpt>
      <trkpt lat="43.8663" lon="1.0881">
        <ele>266.06091</ele>
        <time>2023-01-01T12:07:45.475Z</time>
      </trkpt>
      <trkpt lat="43.86629" lon="1.08794">
        <ele>266.670349</ele>
        <time>2023-01-01T12:07:49.501Z</time>
      </trkpt>
      <trkpt lat="43.86628" lon="1.08779">
        <ele>267.245097</ele>
        <time>2023-01-01T12:07:53.492Z</time>
      </trkpt>
      <trkpt lat="43.86627" lon="1.08764">
        <ele>267.81943</ele>
        <time>2023-01-01T12:07:57.496Z</time>
      </trkpt>
      <trkpt lat="43.86625" lon="1.08751">
        <ele>268.33054</ele>
        <time>2023-01-01T12:08:01.479Z</time>
      </trkpt>
      <trkpt lat="43.86624" lon="1.08736">
        <ele>268.886264</ele>
        <time>2023-01-01T12:08:05.471Z</time>
      </trkpt>
      <trkpt lat="43.86623" lon="1.0872">
        <ele>269.519705</ele>
        <time>2023-01-01T12:08:09.497Z</time>
      </trkpt>
      <trkpt lat="43.86621" lon="1.08707">
        <ele>270.005732</ele>
        <time>2023-01-01T12:08:12.492Z</time>
      </trkpt>
      <trkpt lat="43.8662" lon="1.08694">
        <ele>270.537159</ele>
        <time>2023-01-01T12:08:15.490Z</time>
      </trkpt>
      <trkpt lat="43.86619" lon="1.08681">
        <ele>270.667675</ele>
        <time>2023-01-01T12:08:18.495Z</time>
      </trkpt>
      <trkpt lat="43.86618" lon="1.08667">
        <ele>270.760536</ele>
        <time>2023-01-01T12:08:21.496Z</time>
      </trkpt>
      <trkpt lat="43.86617" lon="1.08653">
        <ele>270.862004</ele>
        <time>2023-01-01T12:08:24.498Z</time>
      </trkpt>
      <trkpt lat="43.86616" lon="1.08637">
        <ele>270.973127</ele>
        <time>2023-01-01T12:08:27.502Z</time>
      </trkpt>
      <trkpt lat="43.86614" lon="1.08621">
        <ele>271.085861</ele>
        <time>2023-01-01T12:08:30.502Z</time>
      </trkpt>
      <trkpt lat="43.86613" lon="1.08605">
        <ele>271.196407</ele>
        <time>2023-01-01T12:08:33.501Z</time>
      </trkpt>
      <trkpt lat="43.86611" lon="1.0859">
        <ele>271.300633</ele>
        <time>2023-01-01T12:08:36.496Z</time>
      </trkpt>
      <trkpt lat="43.8661" lon="1.08576">
        <ele>271.402913</ele>
        <time>2023-01-01T12:08:39.505Z</time>
      </trkpt>
      <trkpt lat="43.86609" lon="1.08561">
        <ele>271.506013</ele>
        <time>2023-01-01T12:08:42.491Z</time>
      </trkpt>
      <trkpt lat="43.86607" lon="1.08546">
        <ele>271.610406</ele>
        <time>2023-01-01T12:08:45.497Z</time>
      </trkpt>
      <trkpt lat="43.86605" lon="1.08531">
        <ele>271.718321</ele>
        <time>2023-01-01T12:08:48.479Z</time>
      </trkpt>
      <trkpt lat="43.86604" lon="1.08516">
        <ele>271.823125</ele>
        <time>2023-01-01T12:08:51.494Z</time>
      </trkpt>
      <trkpt lat="43.86603" lon="1.08501">
        <ele>271.925065</ele>
        <time>2023-01-01T12:08:54.499Z</time>
      </trkpt>
      <trkpt lat="43.86601" lon="1.08488">
        <ele>272.018702</ele>
        <time>2023-01-01T12:08:57.475Z</time>
      </trkpt>
      <trkpt lat="43.866" lon="1.08473">
        <ele>272.121437</ele>
        <time>2023-01-01T12:09:00.493Z</time>
      </trkpt>
      <trkpt lat="43.86599" lon="1.08458">
        <ele>272.227622</ele>
        <time>2023-01-01T12:09:03.479Z</time>
      </trkpt>
      <trkpt lat="43.86597" lon="1.08443">
        <ele>272.344984</ele>
        <time>2023-01-01T12:09:06.503Z</time>
      </trkpt>
      <trkpt lat="43.86596" lon="1.08429">
        <ele>272.623777</ele>
        <time>2023-01-01T12:09:09.498Z</time>
      </trkpt>
      <trkpt lat="43.86595" lon="1.08415">
        <ele>272.898255</ele>
        <time>2023-01-01T12:09:12.503Z</time>
      </trkpt>
      <trkpt lat="43.86594" lon="1.084">
        <ele>273.180852</ele>
        <time>2023-01-01T12:09:15.493Z</time>
      </trkpt>
      <trkpt lat="43.86593" lon="1.08385">
        <ele>273.459935</ele>
        <time>2023-01-01T12:09:18.480Z</time>
      </trkpt>
      <trkpt lat="43.86591" lon="1.08371">
        <ele>273.742727</ele>
        <time>2023-01-01T12:09:21.496Z</time>
      </trkpt>
      <trkpt lat="43.8659" lon="1.08356">
        <ele>274.02889</ele>
        <time>2023-01-01T12:09:24.495Z</time>
      </trkpt>
      <trkpt lat="43.86589" lon="1.08341">
        <ele>274.323792</ele>
        <time>2023-01-01T12:09:27.504Z</time>
      </trkpt>
      <trkpt lat="43.86588" lon="1.08326">
        <ele>274.614579</ele>
        <time>2023-01-01T12:09:30.469Z</time>
      </trkpt>
      <trkpt lat="43.86587" lon="1.08311">
        <ele>274.90098</ele>
        <time>2023-01-01T12:09:33.501Z</time>
      </trkpt>
      <trkpt lat="43.86585" lon="1.08295">
        <ele>275.195523</ele>
        <time>2023-01-01T12:09:36.494Z</time>
      </trkpt>
      <trkpt lat="43.86584" lon="1.0828">
        <ele>275.498585</ele>
        <time>2023-01-01T12:09:39.496Z</time>
      </trkpt>
      <trkpt lat="43.86583" lon="1.08264">
        <ele>275.794499</ele>
        <time>2023-01-01T12:09:42.496Z</time>
      </trkpt>
      <trkpt lat="43.86582" lon="1.08249">
        <ele>276.081489</ele>
        <time>2023-01-01T12:09:45.502Z</time>
      </trkpt>
      <trkpt lat="43.8658" lon="1.08234">
        <ele>276.376397</ele>
        <time>2023-01-01T12:09:48.503Z</time>
      </trkpt>
      <trkpt lat="43.86579" lon="1.08219">
        <ele>276.672311</ele>
        <time>2023-01-01T12:09:51.502Z</time>
      </trkpt>
      <trkpt lat="43.86578" lon="1.08203">
        <ele>276.97728</ele>
        <time>2023-01-01T12:09:54.497Z</time>
      </trkpt>
      <trkpt lat="43.86577" lon="1.08187">
        <ele>277.09961</ele>
        <time>2023-01-01T12:09:57.500Z</time>
      </trkpt>
      <trkpt lat="43.86575" lon="1.0817">
        <ele>277.115141</ele>
        <time>2023-01-01T12:10:00.500Z</time>
      </trkpt>
      <trkpt lat="43.86574" lon="1.08155">
        <ele>277.129981</ele>
        <time>2023-01-01T12:10:03.501Z</time>
      </trkpt>
      <trkpt lat="43.86573" lon="1.0814">
        <ele>277.144243</ele>
        <time>2023-01-01T12:10:06.498Z</time>
      </trkpt>
      <trkpt lat="43.86572" lon="1.08125">
        <ele>277.158153</ele>
        <time>2023-01-01T12:10:09.494Z</time>
      </trkpt>
      <trkpt lat="43.86571" lon="1.0811">
        <ele>277.172143</ele>
        <time>2023-01-01T12:10:12.494Z</time>
      </trkpt>
      <trkpt lat="43.8657" lon="1.08095">
        <ele>277.186512</ele>
        <time>2023-01-01T12:10:15.503Z</time>
      </trkpt>
      <trkpt lat="43.86568" lon="1.08082">
        <ele>277.199638</ele>
        <time>2023-01-01T12:10:18.478Z</time>
      </trkpt>
      <trkpt lat="43.86567" lon="1.08065">
        <ele>277.215163</ele>
        <time>2023-01-01T12:10:22.474Z</time>
      </trkpt>
      <trkpt lat="43.86565" lon="1.08052">
        <ele>277.228501</ele>
        <time>2023-01-01T12:10:25.497Z</time>
      </trkpt>
      <trkpt lat="43.86563" lon="1.08037">
        <ele>277.242838</ele>
        <time>2023-01-01T12:10:28.472Z</time>
      </trkpt>
      <trkpt lat="43.86562" lon="1.08021">
        <ele>277.257892</ele>
        <time>2023-01-01T12:10:31.490Z</time>
      </trkpt>
      <trkpt lat="43.86561" lon="1.08004">
        <ele>277.274293</ele>
        <time>2023-01-01T12:10:34.492Z</time>
      </trkpt>
      <trkpt lat="43.86559" lon="1.07986">
        <ele>277.291231</ele>
        <time>2023-01-01T12:10:37.489Z</time>
      </trkpt>
      <trkpt lat="43.86558" lon="1.07973">
        <ele>277.303405</ele>
        <time>2023-01-01T12:10:39.501Z</time>
      </trkpt>
      <trkpt lat="43.86557" lon="1.07961">
        <ele>277.31539</ele>
        <time>2023-01-01T12:10:41.492Z</time>
      </trkpt>
      <trkpt lat="43.86556" lon="1.07947">
        <ele>277.327435</ele>
        <time>2023-01-01T12:10:43.495Z</time>
      </trkpt>
      <trkpt lat="43.86555" lon="1.07933">
        <ele>277.334698</ele>
        <time>2023-01-01T12:10:45.500Z</time>
      </trkpt>
      <trkpt lat="43.86554" lon="1.0792">
        <ele>277.34133</ele>
        <time>2023-01-01T12:10:47.494Z</time>
      </trkpt>
      <trkpt lat="43.86552" lon="1.07906">
        <ele>277.348292</ele>
        <time>2023-01-01T12:10:49.504Z</time>
      </trkpt>
      <trkpt lat="43.86551" lon="1.07893">
        <ele>277.355025</ele>
        <time>2023-01-01T12:10:51.498Z</time>
      </trkpt>
      <trkpt lat="43.8655" lon="1.07879">
        <ele>277.361967</ele>
        <time>2023-01-01T12:10:53.499Z</time>
      </trkpt>
      <trkpt lat="43.86549" lon="1.07866">
        <ele>277.368872</ele>
        <time>2023-01-01T12:10:55.501Z</time>
      </trkpt>
      <trkpt lat="43.86548" lon="1.07853">
        <ele>277.375489</ele>
        <time>2023-01-01T12:10:57.490Z</time>
      </trkpt>
      <trkpt lat="43.86547" lon="1.07839">
        <ele>277.382482</ele>
        <time>2023-01-01T12:10:59.504Z</time>
      </trkpt>
      <trkpt lat="43.86546" lon="1.07825">
        <ele>277.389352</ele>
        <time>2023-01-01T12:11:01.478Z</time>
      </trkpt>
      <trkpt lat="43.86545" lon="1.07806">
        <ele>277.399297</ele>
        <time>2023-01-01T12:11:04.504Z</time>
      </trkpt>
      <trkpt lat="43.86543" lon="1.07787">
        <ele>277.409007</ele>
        <time>2023-01-01T12:11:07.497Z</time>
      </trkpt>
      <trkpt lat="43.86541" lon="1.07774">
        <ele>277.415729</ele>
        <time>2023-01-01T12:11:09.495Z</time>
      </trkpt>
      <trkpt lat="43.8654" lon="1.07756">
        <ele>277.424953</ele>
        <time>2023-01-01T12:11:12.498Z</time>
      </trkpt>
      <trkpt lat="43.86539" lon="1.0774">
        <ele>277.433091</ele>
        <time>2023-01-01T12:11:15.500Z</time>
      </trkpt>
      <trkpt lat="43.86538" lon="1.07725">
        <ele>277.440731</ele>
        <time>2023-01-01T12:11:18.496Z</time>
      </trkpt>
      <trkpt lat="43.86536" lon="1.07708">
        <ele>277.449198</ele>
        <time>2023-01-01T12:11:21.491Z</time>
      </trkpt>
      <trkpt lat="43.86534" lon="1.07691">
        <ele>277.411213</ele>
        <time>2023-01-01T12:11:24.494Z</time>
      </trkpt>
      <trkpt lat="43.86533" lon="1.07673">
        <ele>277.344454</ele>
        <time>2023-01-01T12:11:27.473Z</time>
      </trkpt>
      <trkpt lat="43.86531" lon="1.07655">
        <ele>277.27519</ele>
        <time>2023-01-01T12:11:30.487Z</time>
      </trkpt>
      <trkpt lat="43.8653" lon="1.07643">
        <ele>277.22764</ele>
        <time>2023-01-01T12:11:32.473Z</time>
      </trkpt>
      <trkpt lat="43.86528" lon="1.07631">
        <ele>277.179838</ele>
        <time>2023-01-01T12:11:34.495Z</time>
      </trkpt>
      <trkpt lat="43.86527" lon="1.07612">
        <ele>277.108496</ele>
        <time>2023-01-01T12:11:37.504Z</time>
      </trkpt>
      <trkpt lat="43.86526" lon="1.07599">
        <ele>277.058129</ele>
        <time>2023-01-01T12:11:39.502Z</time>
      </trkpt>
      <trkpt lat="43.86524" lon="1.07586">
        <ele>277.009901</ele>
        <time>2023-01-01T12:11:41.493Z</time>
      </trkpt>
      <trkpt lat="43.86523" lon="1.07573">
        <ele>276.960397</ele>
        <time>2023-01-01T12:11:43.497Z</time>
      </trkpt>
      <trkpt lat="43.86522" lon="1.0756">
        <ele>276.911972</ele>
        <time>2023-01-01T12:11:45.488Z</time>
      </trkpt>
      <trkpt lat="43.86521" lon="1.07547">
        <ele>276.861793</ele>
        <time>2023-01-01T12:11:47.502Z</time>
      </trkpt>
      <trkpt lat="43.86519" lon="1.07529">
        <ele>276.792528</ele>
        <time>2023-01-01T12:11:50.500Z</time>
      </trkpt>
      <trkpt lat="43.86518" lon="1.07512">
        <ele>276.726146</ele>
        <time>2023-01-01T12:11:53.500Z</time>
      </trkpt>
      <trkpt lat="43.86516" lon="1.07495">
        <ele>276.661155</ele>
        <time>2023-01-01T12:11:56.502Z</time>
      </trkpt>
      <trkpt lat="43.86515" lon="1.07478">
        <ele>276.595952</ele>
        <time>2023-01-01T12:11:59.493Z</time>
      </trkpt>
      <trkpt lat="43.86513" lon="1.0746">
        <ele>276.52767</ele>
        <time>2023-01-01T12:12:02.507Z</time>
      </trkpt>
      <trkpt lat="43.86512" lon="1.07448">
        <ele>276.580929</ele>
        <time>2023-01-01T12:12:04.496Z</time>
      </trkpt>
      <trkpt lat="43.8651" lon="1.07435">
        <ele>276.721774</ele>
        <time>2023-01-01T12:12:06.480Z</time>
      </trkpt>
      <trkpt lat="43.86509" lon="1.07421">
        <ele>276.874164</ele>
        <time>2023-01-01T12:12:08.487Z</time>
      </trkpt>
      <trkpt lat="43.86508" lon="1.07409">
        <ele>277.013283</ele>
        <time>2023-01-01T12:12:10.477Z</time>
      </trkpt>
      <trkpt lat="43.86507" lon="1.0739">
        <ele>277.214388</ele>
        <time>2023-01-01T12:12:13.486Z</time>
      </trkpt>
      <trkpt lat="43.86505" lon="1.07373">
        <ele>277.404749</ele>
        <time>2023-01-01T12:12:16.472Z</time>
      </trkpt>
      <trkpt lat="43.86504" lon="1.07359">
        <ele>277.563853</ele>
        <time>2023-01-01T12:12:19.494Z</time>
      </trkpt>
      <trkpt lat="43.86503" lon="1.07346">
        <ele>277.701124</ele>
        <time>2023-01-01T12:12:22.496Z</time>
      </trkpt>
      <trkpt lat="43.86503" lon="1.07333">
        <ele>277.851659</ele>
        <time>2023-01-01T12:12:25.510Z</time>
      </trkpt>
      <trkpt lat="43.86502" lon="1.07318">
        <ele>278.016566</ele>
        <time>2023-01-01T12:12:28.476Z</time>
      </trkpt>
      <trkpt lat="43.865" lon="1.07302">
        <ele>278.186221</ele>
        <time>2023-01-01T12:12:31.499Z</time>
      </trkpt>
      <trkpt lat="43.86499" lon="1.07286">
        <ele>278.364868</ele>
        <time>2023-01-01T12:12:34.498Z</time>
      </trkpt>
      <trkpt lat="43.86498" lon="1.07269">
        <ele>278.553442</ele>
        <time>2023-01-01T12:12:37.475Z</time>
      </trkpt>
      <trkpt lat="43.86496" lon="1.07251">
        <ele>278.75202</ele>
        <time>2023-01-01T12:12:40.488Z</time>
      </trkpt>
      <trkpt lat="43.86495" lon="1.07239">
        <ele>278.889292</ele>
        <time>2023-01-01T12:12:42.504Z</time>
      </trkpt>
      <trkpt lat="43.86494" lon="1.07225">
        <ele>279.038005</ele>
        <time>2023-01-01T12:12:44.496Z</time>
      </trkpt>
      <trkpt lat="43.86493" lon="1.07212">
        <ele>279.191125</ele>
        <time>2023-01-01T12:12:46.499Z</time>
      </trkpt>
      <trkpt lat="43.86491" lon="1.07197">
        <ele>279.185465</ele>
        <time>2023-01-01T12:12:48.499Z</time>
      </trkpt>
      <trkpt lat="43.8649" lon="1.07184">
        <ele>279.096703</ele>
        <time>2023-01-01T12:12:50.497Z</time>
      </trkpt>
      <trkpt lat="43.86489" lon="1.07169">
        <ele>279.00268</ele>
        <time>2023-01-01T12:12:52.504Z</time>
      </trkpt>
      <trkpt lat="43.86488" lon="1.07154">
        <ele>278.904602</ele>
        <time>2023-01-01T12:12:54.499Z</time>
      </trkpt>
      <trkpt lat="43.86488" lon="1.07139">
        <ele>278.807526</ele>
        <time>2023-01-01T12:12:56.491Z</time>
      </trkpt>
      <trkpt lat="43.86486" lon="1.07125">
        <ele>278.711462</ele>
        <time>2023-01-01T12:12:58.502Z</time>
      </trkpt>
      <trkpt lat="43.86485" lon="1.07111">
        <ele>278.619521</ele>
        <time>2023-01-01T12:13:00.504Z</time>
      </trkpt>
      <trkpt lat="43.86484" lon="1.07097">
        <ele>278.526517</ele>
        <time>2023-01-01T12:13:02.503Z</time>
      </trkpt>
      <trkpt lat="43.86482" lon="1.07083">
        <ele>278.436377</ele>
        <time>2023-01-01T12:13:04.504Z</time>
      </trkpt>
      <trkpt lat="43.86482" lon="1.0707">
        <ele>278.350393</ele>
        <time>2023-01-01T12:13:06.499Z</time>
      </trkpt>
      <trkpt lat="43.8648" lon="1.07056">
        <ele>278.258681</ele>
        <time>2023-01-01T12:13:08.502Z</time>
      </trkpt>
      <trkpt lat="43.86479" lon="1.07041">
        <ele>278.165569</ele>
        <time>2023-01-01T12:13:10.505Z</time>
      </trkpt>
      <trkpt lat="43.86478" lon="1.07027">
        <ele>278.069874</ele>
        <time>2023-01-01T12:13:12.492Z</time>
      </trkpt>
      <trkpt lat="43.86476" lon="1.07012">
        <ele>277.97342</ele>
        <time>2023-01-01T12:13:14.493Z</time>
      </trkpt>
      <trkpt lat="43.86475" lon="1.06998">
        <ele>277.879224</ele>
        <time>2023-01-01T12:13:16.501Z</time>
      </trkpt>
      <trkpt lat="43.86474" lon="1.06983">
        <ele>277.780714</ele>
        <time>2023-01-01T12:13:18.500Z</time>
      </trkpt>
      <trkpt lat="43.86473" lon="1.06969">
        <ele>277.689649</ele>
        <time>2023-01-01T12:13:20.491Z</time>
      </trkpt>
      <trkpt lat="43.86471" lon="1.06955">
        <ele>277.553335</ele>
        <time>2023-01-01T12:13:22.497Z</time>
      </trkpt>
      <trkpt lat="43.8647" lon="1.06941">
        <ele>277.302355</ele>
        <time>2023-01-01T12:13:24.501Z</time>
      </trkpt>
      <trkpt lat="43.86469" lon="1.06927">
        <ele>277.060985</ele>
        <time>2023-01-01T12:13:26.500Z</time>
      </trkpt>
      <trkpt lat="43.86468" lon="1.06913">
        <ele>276.812588</ele>
        <time>2023-01-01T12:13:28.501Z</time>
      </trkpt>
      <trkpt lat="43.86467" lon="1.06899">
        <ele>276.561286</ele>
        <time>2023-01-01T12:13:30.465Z</time>
      </trkpt>
      <trkpt lat="43.86466" lon="1.06884">
        <ele>276.300345</ele>
        <time>2023-01-01T12:13:32.496Z</time>
      </trkpt>
      <trkpt lat="43.86464" lon="1.06869">
        <ele>276.025969</ele>
        <time>2023-01-01T12:13:34.501Z</time>
      </trkpt>
      <trkpt lat="43.86463" lon="1.06852">
        <ele>275.723056</ele>
        <time>2023-01-01T12:13:36.497Z</time>
      </trkpt>
      <trkpt lat="43.86462" lon="1.06834">
        <ele>275.411526</ele>
        <time>2023-01-01T12:13:38.477Z</time>
      </trkpt>
      <trkpt lat="43.86461" lon="1.06816">
        <ele>275.085325</ele>
        <time>2023-01-01T12:13:40.490Z</time>
      </trkpt>
      <trkpt lat="43.86459" lon="1.06797">
        <ele>274.745558</ele>
        <time>2023-01-01T12:13:42.497Z</time>
      </trkpt>
      <trkpt lat="43.86457" lon="1.06778">
        <ele>274.411773</ele>
        <time>2023-01-01T12:13:44.491Z</time>
      </trkpt>
      <trkpt lat="43.86455" lon="1.06759">
        <ele>274.07227</ele>
        <time>2023-01-01T12:13:46.473Z</time>
      </trkpt>
      <trkpt lat="43.86453" lon="1.06741">
        <ele>273.758409</ele>
        <time>2023-01-01T12:13:48.492Z</time>
      </trkpt>
      <trkpt lat="43.86452" lon="1.06724">
        <ele>273.449002</ele>
        <time>2023-01-01T12:13:50.491Z</time>
      </trkpt>
      <trkpt lat="43.86451" lon="1.06707">
        <ele>273.246745</ele>
        <time>2023-01-01T12:13:52.501Z</time>
      </trkpt>
      <trkpt lat="43.8645" lon="1.06691">
        <ele>273.358729</ele>
        <time>2023-01-01T12:13:54.498Z</time>
      </trkpt>
      <trkpt lat="43.8645" lon="1.06675">
        <ele>273.464359</ele>
        <time>2023-01-01T12:13:56.483Z</time>
      </trkpt>
      <trkpt lat="43.86451" lon="1.06661">
        <ele>273.561047</ele>
        <time>2023-01-01T12:13:58.476Z</time>
      </trkpt>
      <trkpt lat="43.86453" lon="1.06648">
        <ele>273.657299</ele>
        <time>2023-01-01T12:14:00.498Z</time>
      </trkpt>
      <trkpt lat="43.86457" lon="1.06635">
        <ele>273.750849</ele>
        <time>2023-01-01T12:14:02.475Z</time>
      </trkpt>
      <trkpt lat="43.86462" lon="1.06622">
        <ele>273.849795</ele>
        <time>2023-01-01T12:14:04.493Z</time>
      </trkpt>
      <trkpt lat="43.86467" lon="1.06609">
        <ele>273.953878</ele>
        <time>2023-01-01T12:14:06.481Z</time>
      </trkpt>
      <trkpt lat="43.86473" lon="1.06595">
        <ele>274.065316</ele>
        <time>2023-01-01T12:14:08.500Z</time>
      </trkpt>
      <trkpt lat="43.86479" lon="1.06581">
        <ele>274.175714</ele>
        <time>2023-01-01T12:14:10.502Z</time>
      </trkpt>
      <trkpt lat="43.86486" lon="1.06568">
        <ele>274.292562</ele>
        <time>2023-01-01T12:14:12.496Z</time>
      </trkpt>
      <trkpt lat="43.86493" lon="1.06554">
        <ele>274.40717</ele>
        <time>2023-01-01T12:14:14.489Z</time>
      </trkpt>
      <trkpt lat="43.86501" lon="1.06539">
        <ele>274.531789</ele>
        <time>2023-01-01T12:14:16.505Z</time>
      </trkpt>
      <trkpt lat="43.86508" lon="1.06524">
        <ele>274.65824</ele>
        <time>2023-01-01T12:14:18.500Z</time>
      </trkpt>
      <trkpt lat="43.86516" lon="1.06509">
        <ele>274.786747</ele>
        <time>2023-01-01T12:14:20.499Z</time>
      </trkpt>
      <trkpt lat="43.86524" lon="1.06494">
        <ele>274.90913</ele>
        <time>2023-01-01T12:14:22.502Z</time>
      </trkpt>
      <trkpt lat="43.86531" lon="1.06479">
        <ele>274.943504</ele>
        <time>2023-01-01T12:14:24.498Z</time>
      </trkpt>
      <trkpt lat="43.86538" lon="1.06465">
        <ele>274.958638</ele>
        <time>2023-01-01T12:14:26.498Z</time>
      </trkpt>
      <trkpt lat="43.86544" lon="1.06452">
        <ele>274.972677</ele>
        <time>2023-01-01T12:14:28.475Z</time>
      </trkpt>
      <trkpt lat="43.86551" lon="1.06439">
        <ele>274.986572</ele>
        <time>2023-01-01T12:14:30.504Z</time>
      </trkpt>
      <trkpt lat="43.86556" lon="1.06426">
        <ele>274.999935</ele>
        <time>2023-01-01T12:14:32.488Z</time>
      </trkpt>
      <trkpt lat="43.86563" lon="1.06415">
        <ele>275.01232</ele>
        <time>2023-01-01T12:14:34.485Z</time>
      </trkpt>
      <trkpt lat="43.86568" lon="1.06404">
        <ele>275.02485</ele>
        <time>2023-01-01T12:14:36.501Z</time>
      </trkpt>
      <trkpt lat="43.86574" lon="1.06392">
        <ele>275.037522</ele>
        <time>2023-01-01T12:14:38.500Z</time>
      </trkpt>
      <trkpt lat="43.8658" lon="1.06381">
        <ele>275.050119</ele>
        <time>2023-01-01T12:14:40.485Z</time>
      </trkpt>
      <trkpt lat="43.86586" lon="1.06369">
        <ele>275.062649</ele>
        <time>2023-01-01T12:14:42.497Z</time>
      </trkpt>
      <trkpt lat="43.86592" lon="1.06356">
        <ele>275.075709</ele>
        <time>2023-01-01T12:14:44.499Z</time>
      </trkpt>
      <trkpt lat="43.86597" lon="1.06345">
        <ele>275.088029</ele>
        <time>2023-01-01T12:14:46.503Z</time>
      </trkpt>
      <trkpt lat="43.86602" lon="1.06333">
        <ele>275.100075</ele>
        <time>2023-01-01T12:14:48.501Z</time>
      </trkpt>
      <trkpt lat="43.86608" lon="1.06321">
        <ele>275.112768</ele>
        <time>2023-01-01T12:14:50.500Z</time>
      </trkpt>
      <trkpt lat="43.86613" lon="1.0631">
        <ele>275.124559</ele>
        <time>2023-01-01T12:14:52.497Z</time>
      </trkpt>
      <trkpt lat="43.8662" lon="1.06295">
        <ele>275.140684</ele>
        <time>2023-01-01T12:14:55.503Z</time>
      </trkpt>
      <trkpt lat="43.86628" lon="1.06281">
        <ele>274.950032</ele>
        <time>2023-01-01T12:14:58.499Z</time>
      </trkpt>
      <trkpt lat="43.86634" lon="1.06267">
        <ele>274.36452</ele>
        <time>2023-01-01T12:15:01.500Z</time>
      </trkpt>
      <trkpt lat="43.8664" lon="1.06255">
        <ele>273.810094</ele>
        <time>2023-01-01T12:15:04.497Z</time>
      </trkpt>
      <trkpt lat="43.86645" lon="1.06241">
        <ele>273.221815</ele>
        <time>2023-01-01T12:15:07.472Z</time>
      </trkpt>
      <trkpt lat="43.8665" lon="1.06225">
        <ele>272.565841</ele>
        <time>2023-01-01T12:15:10.492Z</time>
      </trkpt>
      <trkpt lat="43.86652" lon="1.06211">
        <ele>272.054803</ele>
        <time>2023-01-01T12:15:12.480Z</time>
      </trkpt>
      <trkpt lat="43.86653" lon="1.06196">
        <ele>271.481267</ele>
        <time>2023-01-01T12:15:14.478Z</time>
      </trkpt>
      <trkpt lat="43.86653" lon="1.0618">
        <ele>270.879443</ele>
        <time>2023-01-01T12:15:16.497Z</time>
      </trkpt>
      <trkpt lat="43.86652" lon="1.06163">
        <ele>270.239594</ele>
        <time>2023-01-01T12:15:18.497Z</time>
      </trkpt>
      <trkpt lat="43.86648" lon="1.06145">
        <ele>269.564283</ele>
        <time>2023-01-01T12:15:20.486Z</time>
      </trkpt>
      <trkpt lat="43.86643" lon="1.06129">
        <ele>268.893326</ele>
        <time>2023-01-01T12:15:22.474Z</time>
      </trkpt>
      <trkpt lat="43.86637" lon="1.06115">
        <ele>268.297383</ele>
        <time>2023-01-01T12:15:24.481Z</time>
      </trkpt>
      <trkpt lat="43.86629" lon="1.06103">
        <ele>267.699996</ele>
        <time>2023-01-01T12:15:26.472Z</time>
      </trkpt>
      <trkpt lat="43.86621" lon="1.06092">
        <ele>267.113661</ele>
        <time>2023-01-01T12:15:28.477Z</time>
      </trkpt>
      <trkpt lat="43.86612" lon="1.06083">
        <ele>266.535066</ele>
        <time>2023-01-01T12:15:30.472Z</time>
      </trkpt>
      <trkpt lat="43.86602" lon="1.06076">
        <ele>265.994443</ele>
        <time>2023-01-01T12:15:32.483Z</time>
      </trkpt>
      <trkpt lat="43.86592" lon="1.0607">
        <ele>265.277471</ele>
        <time>2023-01-01T12:15:34.481Z</time>
      </trkpt>
      <trkpt lat="43.86581" lon="1.06066">
        <ele>264.519747</ele>
        <time>2023-01-01T12:15:36.477Z</time>
      </trkpt>
      <trkpt lat="43.86569" lon="1.06062">
        <ele>263.718292</ele>
        <time>2023-01-01T12:15:38.472Z</time>
      </trkpt>
      <trkpt lat="43.86558" lon="1.06059">
        <ele>262.956467</ele>
        <time>2023-01-01T12:15:40.492Z</time>
      </trkpt>
      <trkpt lat="43.86545" lon="1.06056">
        <ele>262.118319</ele>
        <time>2023-01-01T12:15:42.495Z</time>
      </trkpt>
      <trkpt lat="43.86533" lon="1.06052">
        <ele>261.295756</ele>
        <time>2023-01-01T12:15:44.475Z</time>
      </trkpt>
      <trkpt lat="43.86522" lon="1.06046">
        <ele>260.499845</ele>
        <time>2023-01-01T12:15:46.495Z</time>
      </trkpt>
      <trkpt lat="43.86511" lon="1.0604">
        <ele>259.718896</ele>
        <time>2023-01-01T12:15:48.497Z</time>
      </trkpt>
      <trkpt lat="43.86501" lon="1.06032">
        <ele>258.922118</ele>
        <time>2023-01-01T12:15:50.480Z</time>
      </trkpt>
      <trkpt lat="43.86491" lon="1.0602">
        <ele>258.101425</ele>
        <time>2023-01-01T12:15:52.480Z</time>
      </trkpt>
      <trkpt lat="43.86482" lon="1.06008">
        <ele>257.259994</ele>
        <time>2023-01-01T12:15:54.474Z</time>
      </trkpt>
      <trkpt lat="43.86476" lon="1.05992">
        <ele>256.427166</ele>
        <time>2023-01-01T12:15:56.485Z</time>
      </trkpt>
      <trkpt lat="43.86471" lon="1.05975">
        <ele>255.548608</ele>
        <time>2023-01-01T12:15:58.485Z</time>
      </trkpt>
      <trkpt lat="43.86469" lon="1.05955">
        <ele>254.562816</ele>
        <time>2023-01-01T12:16:00.475Z</time>
      </trkpt>
      <trkpt lat="43.86467" lon="1.05932">
        <ele>254.13323</ele>
        <time>2023-01-01T12:16:02.471Z</time>
      </trkpt>
      <trkpt lat="43.86469" lon="1.05908">
        <ele>254.402891</ele>
        <time>2023-01-01T12:16:04.487Z</time>
      </trkpt>
      <trkpt lat="43.86471" lon="1.05886">
        <ele>254.663603</ele>
        <time>2023-01-01T12:16:06.485Z</time>
      </trkpt>
      <trkpt lat="43.86474" lon="1.05864">
        <ele>254.918234</ele>
        <time>2023-01-01T12:16:08.498Z</time>
      </trkpt>
      <trkpt lat="43.86476" lon="1.05843">
        <ele>255.159857</ele>
        <time>2023-01-01T12:16:10.494Z</time>
      </trkpt>
      <trkpt lat="43.86479" lon="1.05824">
        <ele>255.376635</ele>
        <time>2023-01-01T12:16:12.500Z</time>
      </trkpt>
      <trkpt lat="43.86481" lon="1.0581">
        <ele>255.549098</ele>
        <time>2023-01-01T12:16:14.473Z</time>
      </trkpt>
      <trkpt lat="43.86482" lon="1.05793">
        <ele>255.747134</ele>
        <time>2023-01-01T12:16:17.495Z</time>
      </trkpt>
      <trkpt lat="43.86485" lon="1.05777">
        <ele>255.926437</ele>
        <time>2023-01-01T12:16:21.488Z</time>
      </trkpt>
      <trkpt lat="43.86486" lon="1.05763">
        <ele>256.09541</ele>
        <time>2023-01-01T12:16:25.506Z</time>
      </trkpt>
      <trkpt lat="43.86488" lon="1.05748">
        <ele>256.263945</ele>
        <time>2023-01-01T12:16:29.480Z</time>
      </trkpt>
      <trkpt lat="43.8649" lon="1.05734">
        <ele>256.429451</ele>
        <time>2023-01-01T12:16:33.476Z</time>
      </trkpt>
      <trkpt lat="43.86492" lon="1.0572">
        <ele>256.593729</ele>
        <time>2023-01-01T12:16:37.476Z</time>
      </trkpt>
      <trkpt lat="43.86492" lon="1.05707">
        <ele>256.745574</ele>
        <time>2023-01-01T12:16:41.496Z</time>
      </trkpt>
      <trkpt lat="43.86495" lon="1.05692">
        <ele>257.061996</ele>
        <time>2023-01-01T12:16:46.481Z</time>
      </trkpt>
      <trkpt lat="43.86497" lon="1.05677">
        <ele>257.616043</ele>
        <time>2023-01-01T12:16:51.496Z</time>
      </trkpt>
      <trkpt lat="43.86498" lon="1.05665">
        <ele>258.119978</ele>
        <time>2023-01-01T12:16:56.491Z</time>
      </trkpt>
      <trkpt lat="43.86499" lon="1.05651">
        <ele>258.63824</ele>
        <time>2023-01-01T12:17:01.497Z</time>
      </trkpt>
      <trkpt lat="43.86501" lon="1.05638">
        <ele>259.141243</ele>
        <time>2023-01-01T12:17:06.497Z</time>
      </trkpt>
      <trkpt lat="43.86503" lon="1.05626">
        <ele>259.641949</ele>
        <time>2023-01-01T12:17:11.492Z</time>
      </trkpt>
      <trkpt lat="43.86504" lon="1.05613">
        <ele>260.123468</ele>
        <time>2023-01-01T12:17:16.490Z</time>
      </trkpt>
      <trkpt lat="43.86506" lon="1.05599">
        <ele>260.653802</ele>
        <time>2023-01-01T12:17:21.481Z</time>
      </trkpt>
      <trkpt lat="43.86507" lon="1.05585">
        <ele>261.211486</ele>
        <time>2023-01-01T12:17:26.494Z</time>
      </trkpt>
      <trkpt lat="43.86508" lon="1.05572">
        <ele>261.702234</ele>
        <time>2023-01-01T12:17:30.500Z</time>
      </trkpt>
      <trkpt lat="43.86509" lon="1.05559">
        <ele>262.207021</ele>
        <time>2023-01-01T12:17:34.500Z</time>
      </trkpt>
      <trkpt lat="43.8651" lon="1.05547">
        <ele>262.700311</ele>
        <time>2023-01-01T12:17:38.497Z</time>
      </trkpt>
      <trkpt lat="43.8651" lon="1.05533">
        <ele>263.211653</ele>
        <time>2023-01-01T12:17:42.494Z</time>
      </trkpt>
      <trkpt lat="43.8651" lon="1.0552">
        <ele>263.711244</ele>
        <time>2023-01-01T12:17:46.499Z</time>
      </trkpt>
      <trkpt lat="43.86509" lon="1.05507">
        <ele>264.238678</ele>
        <time>2023-01-01T12:17:50.481Z</time>
      </trkpt>
      <trkpt lat="43.86509" lon="1.05494">
        <ele>264.738497</ele>
        <time>2023-01-01T12:17:54.495Z</time>
      </trkpt>
      <trkpt lat="43.86509" lon="1.0548">
        <ele>265.268909</ele>
        <time>2023-01-01T12:17:58.496Z</time>
      </trkpt>
      <trkpt lat="43.86508" lon="1.05466">
        <ele>265.803483</ele>
        <time>2023-01-01T12:18:02.480Z</time>
      </trkpt>
      <trkpt lat="43.86508" lon="1.05453">
        <ele>266.315574</ele>
        <time>2023-01-01T12:18:06.499Z</time>
      </trkpt>
      <trkpt lat="43.86507" lon="1.05439">
        <ele>266.781055</ele>
        <time>2023-01-01T12:18:10.491Z</time>
      </trkpt>
      <trkpt lat="43.86507" lon="1.05425">
        <ele>267.274123</ele>
        <time>2023-01-01T12:18:15.500Z</time>
      </trkpt>
      <trkpt lat="43.86507" lon="1.05412">
        <ele>267.70632</ele>
        <time>2023-01-01T12:18:19.497Z</time>
      </trkpt>
      <trkpt lat="43.86505" lon="1.05396">
        <ele>268.231719</ele>
        <time>2023-01-01T12:18:24.498Z</time>
      </trkpt>
      <trkpt lat="43.86504" lon="1.05383">
        <ele>268.687825</ele>
        <time>2023-01-01T12:18:28.496Z</time>
      </trkpt>
      <trkpt lat="43.86503" lon="1.0537">
        <ele>269.113218</ele>
        <time>2023-01-01T12:18:32.497Z</time>
      </trkpt>
      <trkpt lat="43.86501" lon="1.05357">
        <ele>269.588055</ele>
        <time>2023-01-01T12:18:37.499Z</time>
      </trkpt>
      <trkpt lat="43.865" lon="1.05344">
        <ele>270.015668</ele>
        <time>2023-01-01T12:18:42.474Z</time>
      </trkpt>
      <trkpt lat="43.86498" lon="1.0533">
        <ele>270.500046</ele>
        <time>2023-01-01T12:18:46.472Z</time>
      </trkpt>
      <trkpt lat="43.86496" lon="1.05316">
        <ele>270.991432</ele>
        <time>2023-01-01T12:18:50.495Z</time>
      </trkpt>
      <trkpt lat="43.86495" lon="1.05303">
        <ele>271.434836</ele>
        <time>2023-01-01T12:18:54.475Z</time>
      </trkpt>
      <trkpt lat="43.86493" lon="1.05289">
        <ele>271.913005</ele>
        <time>2023-01-01T12:18:58.501Z</time>
      </trkpt>
      <trkpt lat="43.86491" lon="1.05274">
        <ele>272.420959</ele>
        <time>2023-01-01T12:19:02.483Z</time>
      </trkpt>
      <trkpt lat="43.86489" lon="1.0526">
        <ele>272.904229</ele>
        <time>2023-01-01T12:19:06.483Z</time>
      </trkpt>
      <trkpt lat="43.86487" lon="1.05246">
        <ele>273.372592</ele>
        <time>2023-01-01T12:19:10.498Z</time>
      </trkpt>
      <trkpt lat="43.86487" lon="1.05231">
        <ele>273.887072</ele>
        <time>2023-01-01T12:19:14.482Z</time>
      </trkpt>
      <trkpt lat="43.86486" lon="1.05216">
        <ele>274.404238</ele>
        <time>2023-01-01T12:19:18.503Z</time>
      </trkpt>
      <trkpt lat="43.86484" lon="1.052">
        <ele>274.907696</ele>
        <time>2023-01-01T12:19:22.472Z</time>
      </trkpt>
      <trkpt lat="43.86483" lon="1.05186">
        <ele>275.205977</ele>
        <time>2023-01-01T12:19:26.490Z</time>
      </trkpt>
      <trkpt lat="43.86482" lon="1.05172">
        <ele>275.511887</ele>
        <time>2023-01-01T12:19:30.479Z</time>
      </trkpt>
      <trkpt lat="43.86481" lon="1.05158">
        <ele>275.816605</ele>
        <time>2023-01-01T12:19:34.481Z</time>
      </trkpt>
      <trkpt lat="43.86479" lon="1.05144">
        <ele>276.130351</ele>
        <time>2023-01-01T12:19:38.497Z</time>
      </trkpt>
      <trkpt lat="43.86477" lon="1.05129">
        <ele>276.455114</ele>
        <time>2023-01-01T12:19:42.492Z</time>
      </trkpt>
      <trkpt lat="43.86476" lon="1.05114">
        <ele>276.783774</ele>
        <time>2023-01-01T12:19:46.497Z</time>
      </trkpt>
      <trkpt lat="43.86474" lon="1.051">
        <ele>277.09965</ele>
        <time>2023-01-01T12:19:50.478Z</time>
      </trkpt>
      <trkpt lat="43.86472" lon="1.05084">
        <ele>277.438074</ele>
        <time>2023-01-01T12:19:54.508Z</time>
      </trkpt>
      <trkpt lat="43.8647" lon="1.0507">
        <ele>277.751319</ele>
        <time>2023-01-01T12:19:58.495Z</time>
      </trkpt>
      <trkpt lat="43.86469" lon="1.05055">
        <ele>278.071455</ele>
        <time>2023-01-01T12:20:02.493Z</time>
      </trkpt>
      <trkpt lat="43.86467" lon="1.0504">
        <ele>278.404429</ele>
        <time>2023-01-01T12:20:06.495Z</time>
      </trkpt>
      <trkpt lat="43.86466" lon="1.05028">
        <ele>278.676981</ele>
        <time>2023-01-01T12:20:09.497Z</time>
      </trkpt>
      <trkpt lat="43.86465" lon="1.05012">
        <ele>279.014994</ele>
        <time>2023-01-01T12:20:13.500Z</time>
      </trkpt>
      <trkpt lat="43.86463" lon="1.04999">
        <ele>279.292674</ele>
        <time>2023-01-01T12:20:17.485Z</time>
      </trkpt>
      <trkpt lat="43.86461" lon="1.04985">
        <ele>279.605387</ele>
        <time>2023-01-01T12:20:21.497Z</time>
      </trkpt>
      <trkpt lat="43.86459" lon="1.0497">
        <ele>279.946825</ele>
        <time>2023-01-01T12:20:25.497Z</time>
      </trkpt>
      <trkpt lat="43.86457" lon="1.04954">
        <ele>280.155021</ele>
        <time>2023-01-01T12:20:29.493Z</time>
      </trkpt>
      <trkpt lat="43.86456" lon="1.04941">
        <ele>279.430169</ele>
        <time>2023-01-01T12:20:32.480Z</time>
      </trkpt>
      <trkpt lat="43.86456" lon="1.04928">
        <ele>278.706045</ele>
        <time>2023-01-01T12:20:35.473Z</time>
      </trkpt>
      <trkpt lat="43.86455" lon="1.04912">
        <ele>277.750614</ele>
        <time>2023-01-01T12:20:39.495Z</time>
      </trkpt>
      <trkpt lat="43.86456" lon="1.04896">
        <ele>276.883649</ele>
        <time>2023-01-01T12:20:42.486Z</time>
      </trkpt>
      <trkpt lat="43.86457" lon="1.0488">
        <ele>275.936021</ele>
        <time>2023-01-01T12:20:45.496Z</time>
      </trkpt>
      <trkpt lat="43.86459" lon="1.04862">
        <ele>274.903258</ele>
        <time>2023-01-01T12:20:48.499Z</time>
      </trkpt>
      <trkpt lat="43.86462" lon="1.04844">
        <ele>273.848339</ele>
        <time>2023-01-01T12:20:51.495Z</time>
      </trkpt>
      <trkpt lat="43.86464" lon="1.04831">
        <ele>273.114637</ele>
        <time>2023-01-01T12:20:53.470Z</time>
      </trkpt>
      <trkpt lat="43.86467" lon="1.04813">
        <ele>272.081849</ele>
        <time>2023-01-01T12:20:56.496Z</time>
      </trkpt>
      <trkpt lat="43.86469" lon="1.04801">
        <ele>271.36767</ele>
        <time>2023-01-01T12:20:58.496Z</time>
      </trkpt>
      <trkpt lat="43.8647" lon="1.04788">
        <ele>270.604603</ele>
        <time>2023-01-01T12:21:00.500Z</time>
      </trkpt>
      <trkpt lat="43.86473" lon="1.04774">
        <ele>269.785167</ele>
        <time>2023-01-01T12:21:02.497Z</time>
      </trkpt>
      <trkpt lat="43.86473" lon="1.04759">
        <ele>268.925159</ele>
        <time>2023-01-01T12:21:04.470Z</time>
      </trkpt>
      <trkpt lat="43.86474" lon="1.04742">
        <ele>268.007917</ele>
        <time>2023-01-01T12:21:06.496Z</time>
      </trkpt>
      <trkpt lat="43.86474" lon="1.04727">
        <ele>267.133145</ele>
        <time>2023-01-01T12:21:08.485Z</time>
      </trkpt>
      <trkpt lat="43.86474" lon="1.04712">
        <ele>266.281129</ele>
        <time>2023-01-01T12:21:10.498Z</time>
      </trkpt>
      <trkpt lat="43.86474" lon="1.04698">
        <ele>265.503462</ele>
        <time>2023-01-01T12:21:12.495Z</time>
      </trkpt>
      <trkpt lat="43.86473" lon="1.04684">
        <ele>264.75434</ele>
        <time>2023-01-01T12:21:14.479Z</time>
      </trkpt>
      <trkpt lat="43.86471" lon="1.04671">
        <ele>264.061533</ele>
        <time>2023-01-01T12:21:16.474Z</time>
      </trkpt>
      <trkpt lat="43.86468" lon="1.04658">
        <ele>263.353003</ele>
        <time>2023-01-01T12:21:18.491Z</time>
      </trkpt>
      <trkpt lat="43.86465" lon="1.04645">
        <ele>262.596784</ele>
        <time>2023-01-01T12:21:20.499Z</time>
      </trkpt>
      <trkpt lat="43.86462" lon="1.04631">
        <ele>261.820652</ele>
        <time>2023-01-01T12:21:22.504Z</time>
      </trkpt>
      <trkpt lat="43.86459" lon="1.04618">
        <ele>261.053609</ele>
        <time>2023-01-01T12:21:24.500Z</time>
      </trkpt>
      <trkpt lat="43.86455" lon="1.04604">
        <ele>260.267269</ele>
        <time>2023-01-01T12:21:26.478Z</time>
      </trkpt>
      <trkpt lat="43.86452" lon="1.0459">
        <ele>259.505962</ele>
        <time>2023-01-01T12:21:28.495Z</time>
      </trkpt>
      <trkpt lat="43.86449" lon="1.04576">
        <ele>258.724269</ele>
        <time>2023-01-01T12:21:30.501Z</time>
      </trkpt>
      <trkpt lat="43.86446" lon="1.04563">
        <ele>257.957225</ele>
        <time>2023-01-01T12:21:32.497Z</time>
      </trkpt>
      <trkpt lat="43.86443" lon="1.04549">
        <ele>257.184552</ele>
        <time>2023-01-01T12:21:34.502Z</time>
      </trkpt>
      <trkpt lat="43.86442" lon="1.04535">
        <ele>256.441046</ele>
        <time>2023-01-01T12:21:36.500Z</time>
      </trkpt>
      <trkpt lat="43.86441" lon="1.04521">
        <ele>255.666036</ele>
        <time>2023-01-01T12:21:38.493Z</time>
      </trkpt>
      <trkpt lat="43.86441" lon="1.04506">
        <ele>254.889204</ele>
        <time>2023-01-01T12:21:40.504Z</time>
      </trkpt>
      <trkpt lat="43.86441" lon="1.04491">
        <ele>254.100816</ele>
        <time>2023-01-01T12:21:42.496Z</time>
      </trkpt>
      <trkpt lat="43.86442" lon="1.04476">
        <ele>253.25502</ele>
        <time>2023-01-01T12:21:44.490Z</time>
      </trkpt>
      <trkpt lat="43.86444" lon="1.0446">
        <ele>252.401433</ele>
        <time>2023-01-01T12:21:46.496Z</time>
      </trkpt>
      <trkpt lat="43.86447" lon="1.04444">
        <ele>251.558424</ele>
        <time>2023-01-01T12:21:48.498Z</time>
      </trkpt>
      <trkpt lat="43.86449" lon="1.04428">
        <ele>250.724009</ele>
        <time>2023-01-01T12:21:50.489Z</time>
      </trkpt>
      <trkpt lat="43.86452" lon="1.04412">
        <ele>249.889594</ele>
        <time>2023-01-01T12:21:52.500Z</time>
      </trkpt>
      <trkpt lat="43.86455" lon="1.04397">
        <ele>249.085336</ele>
        <time>2023-01-01T12:21:54.501Z</time>
      </trkpt>
      <trkpt lat="43.86457" lon="1.04383">
        <ele>248.311269</ele>
        <time>2023-01-01T12:21:56.491Z</time>
      </trkpt>
      <trkpt lat="43.86459" lon="1.04368">
        <ele>247.553426</ele>
        <time>2023-01-01T12:21:58.492Z</time>
      </trkpt>
      <trkpt lat="43.86462" lon="1.04354">
        <ele>246.77412</ele>
        <time>2023-01-01T12:22:00.501Z</time>
      </trkpt>
      <trkpt lat="43.86464" lon="1.04338">
        <ele>245.983439</ele>
        <time>2023-01-01T12:22:02.489Z</time>
      </trkpt>
      <trkpt lat="43.86466" lon="1.04325">
        <ele>245.253658</ele>
        <time>2023-01-01T12:22:04.499Z</time>
      </trkpt>
      <trkpt lat="43.86467" lon="1.04309">
        <ele>244.461811</ele>
        <time>2023-01-01T12:22:06.497Z</time>
      </trkpt>
      <trkpt lat="43.86467" lon="1.04294">
        <ele>243.692687</ele>
        <time>2023-01-01T12:22:08.493Z</time>
      </trkpt>
      <trkpt lat="43.86466" lon="1.04279">
        <ele>242.909814</ele>
        <time>2023-01-01T12:22:10.480Z</time>
      </trkpt>
      <trkpt lat="43.86464" lon="1.04265">
        <ele>242.149603</ele>
        <time>2023-01-01T12:22:12.480Z</time>
      </trkpt>
      <trkpt lat="43.86461" lon="1.04251">
        <ele>241.380008</ele>
        <time>2023-01-01T12:22:14.475Z</time>
      </trkpt>
      <trkpt lat="43.86457" lon="1.04236">
        <ele>240.576862</ele>
        <time>2023-01-01T12:22:16.495Z</time>
      </trkpt>
      <trkpt lat="43.86452" lon="1.04222">
        <ele>239.795822</ele>
        <time>2023-01-01T12:22:18.486Z</time>
      </trkpt>
      <trkpt lat="43.86444" lon="1.04208">
        <ele>239.246198</ele>
        <time>2023-01-01T12:22:20.488Z</time>
      </trkpt>
      <trkpt lat="43.86434" lon="1.04197">
        <ele>238.713307</ele>
        <time>2023-01-01T12:22:22.497Z</time>
      </trkpt>
      <trkpt lat="43.86424" lon="1.04186">
        <ele>238.138692</ele>
        <time>2023-01-01T12:22:24.496Z</time>
      </trkpt>
      <trkpt lat="43.86413" lon="1.04174">
        <ele>237.554351</ele>
        <time>2023-01-01T12:22:26.484Z</time>
      </trkpt>
      <trkpt lat="43.86401" lon="1.04163">
        <ele>236.925851</ele>
        <time>2023-01-01T12:22:28.496Z</time>
      </trkpt>
      <trkpt lat="43.86389" lon="1.04153">
        <ele>236.309352</ele>
        <time>2023-01-01T12:22:30.492Z</time>
      </trkpt>
      <trkpt lat="43.86378" lon="1.04144">
        <ele>235.755119</ele>
        <time>2023-01-01T12:22:32.501Z</time>
      </trkpt>
      <trkpt lat="43.86368" lon="1.04134">
        <ele>235.237276</ele>
        <time>2023-01-01T12:22:34.502Z</time>
      </trkpt>
      <trkpt lat="43.86359" lon="1.04125">
        <ele>234.750896</ele>
        <time>2023-01-01T12:22:36.504Z</time>
      </trkpt>
      <trkpt lat="43.86351" lon="1.04115">
        <ele>234.280067</ele>
        <time>2023-01-01T12:22:38.485Z</time>
      </trkpt>
      <trkpt lat="43.86344" lon="1.04104">
        <ele>233.811059</ele>
        <time>2023-01-01T12:22:40.495Z</time>
      </trkpt>
      <trkpt lat="43.86337" lon="1.04093">
        <ele>233.362113</ele>
        <time>2023-01-01T12:22:42.480Z</time>
      </trkpt>
      <trkpt lat="43.86332" lon="1.0408">
        <ele>232.899927</ele>
        <time>2023-01-01T12:22:44.484Z</time>
      </trkpt>
      <trkpt lat="43.86327" lon="1.04068">
        <ele>232.450153</ele>
        <time>2023-01-01T12:22:46.491Z</time>
      </trkpt>
      <trkpt lat="43.86323" lon="1.04055">
        <ele>232.007859</ele>
        <time>2023-01-01T12:22:48.494Z</time>
      </trkpt>
      <trkpt lat="43.86319" lon="1.04042">
        <ele>231.444477</ele>
        <time>2023-01-01T12:22:50.494Z</time>
      </trkpt>
      <trkpt lat="43.86318" lon="1.04028">
        <ele>230.87123</ele>
        <time>2023-01-01T12:22:52.502Z</time>
      </trkpt>
      <trkpt lat="43.86317" lon="1.04014">
        <ele>230.297729</ele>
        <time>2023-01-01T12:22:54.493Z</time>
      </trkpt>
      <trkpt lat="43.86316" lon="1.04">
        <ele>229.723438</ele>
        <time>2023-01-01T12:22:56.478Z</time>
      </trkpt>
      <trkpt lat="43.86317" lon="1.03986">
        <ele>229.136267</ele>
        <time>2023-01-01T12:22:58.492Z</time>
      </trkpt>
      <trkpt lat="43.86318" lon="1.03973">
        <ele>228.584164</ele>
        <time>2023-01-01T12:23:00.495Z</time>
      </trkpt>
      <trkpt lat="43.8632" lon="1.0396">
        <ele>228.030972</ele>
        <time>2023-01-01T12:23:02.500Z</time>
      </trkpt>
      <trkpt lat="43.86324" lon="1.03946">
        <ele>227.442076</ele>
        <time>2023-01-01T12:23:04.496Z</time>
      </trkpt>
      <trkpt lat="43.86327" lon="1.03933">
        <ele>226.86081</ele>
        <time>2023-01-01T12:23:06.498Z</time>
      </trkpt>
      <trkpt lat="43.86333" lon="1.0392">
        <ele>226.241934</ele>
        <time>2023-01-01T12:23:08.500Z</time>
      </trkpt>
      <trkpt lat="43.86338" lon="1.03908">
        <ele>225.668275</ele>
        <time>2023-01-01T12:23:10.481Z</time>
      </trkpt>
      <trkpt lat="43.86344" lon="1.03897">
        <ele>225.129252</ele>
        <time>2023-01-01T12:23:12.478Z</time>
      </trkpt>
      <trkpt lat="43.8635" lon="1.03886">
        <ele>224.556621</ele>
        <time>2023-01-01T12:23:14.493Z</time>
      </trkpt>
      <trkpt lat="43.86356" lon="1.03874">
        <ele>223.947594</ele>
        <time>2023-01-01T12:23:16.504Z</time>
      </trkpt>
      <trkpt lat="43.86363" lon="1.03862">
        <ele>223.335097</ele>
        <time>2023-01-01T12:23:18.503Z</time>
      </trkpt>
      <trkpt lat="43.8637" lon="1.03851">
        <ele>222.730907</ele>
        <time>2023-01-01T12:23:20.480Z</time>
      </trkpt>
      <trkpt lat="43.86376" lon="1.03839">
        <ele>222.112059</ele>
        <time>2023-01-01T12:23:22.472Z</time>
      </trkpt>
      <trkpt lat="43.86383" lon="1.03827">
        <ele>221.38986</ele>
        <time>2023-01-01T12:23:24.492Z</time>
      </trkpt>
      <trkpt lat="43.8639" lon="1.03816">
        <ele>220.627211</ele>
        <time>2023-01-01T12:23:26.493Z</time>
      </trkpt>
      <trkpt lat="43.86396" lon="1.03804">
        <ele>219.868719</ele>
        <time>2023-01-01T12:23:28.498Z</time>
      </trkpt>
      <trkpt lat="43.86402" lon="1.03792">
        <ele>219.126732</ele>
        <time>2023-01-01T12:23:30.501Z</time>
      </trkpt>
      <trkpt lat="43.86408" lon="1.03781">
        <ele>218.38922</ele>
        <time>2023-01-01T12:23:32.496Z</time>
      </trkpt>
      <trkpt lat="43.86414" lon="1.03769">
        <ele>217.646895</ele>
        <time>2023-01-01T12:23:34.500Z</time>
      </trkpt>
      <trkpt lat="43.8642" lon="1.03756">
        <ele>216.85934</ele>
        <time>2023-01-01T12:23:36.495Z</time>
      </trkpt>
      <trkpt lat="43.86425" lon="1.03742">
        <ele>216.06613</ele>
        <time>2023-01-01T12:23:38.500Z</time>
      </trkpt>
      <trkpt lat="43.86429" lon="1.03729">
        <ele>215.32427</ele>
        <time>2023-01-01T12:23:40.507Z</time>
      </trkpt>
      <trkpt lat="43.86434" lon="1.03716">
        <ele>214.580844</ele>
        <time>2023-01-01T12:23:42.499Z</time>
      </trkpt>
      <trkpt lat="43.86439" lon="1.03702">
        <ele>213.784374</ele>
        <time>2023-01-01T12:23:44.497Z</time>
      </trkpt>
      <trkpt lat="43.86443" lon="1.03688">
        <ele>212.990712</ele>
        <time>2023-01-01T12:23:46.499Z</time>
      </trkpt>
      <trkpt lat="43.86448" lon="1.03674">
        <ele>212.157105</ele>
        <time>2023-01-01T12:23:48.504Z</time>
      </trkpt>
      <trkpt lat="43.86453" lon="1.03658">
        <ele>211.27228</ele>
        <time>2023-01-01T12:23:50.493Z</time>
      </trkpt>
      <trkpt lat="43.86458" lon="1.03643">
        <ele>210.406232</ele>
        <time>2023-01-01T12:23:52.495Z</time>
      </trkpt>
      <trkpt lat="43.86463" lon="1.03627">
        <ele>209.507272</ele>
        <time>2023-01-01T12:23:54.476Z</time>
      </trkpt>
      <trkpt lat="43.86469" lon="1.03611">
        <ele>208.590044</ele>
        <time>2023-01-01T12:23:56.497Z</time>
      </trkpt>
      <trkpt lat="43.86474" lon="1.03596">
        <ele>207.636632</ele>
        <time>2023-01-01T12:23:58.500Z</time>
      </trkpt>
      <trkpt lat="43.86479" lon="1.03581">
        <ele>206.673031</ele>
        <time>2023-01-01T12:24:00.491Z</time>
      </trkpt>
      <trkpt lat="43.86485" lon="1.03565">
        <ele>205.675308</ele>
        <time>2023-01-01T12:24:02.493Z</time>
      </trkpt>
      <trkpt lat="43.8649" lon="1.03549">
        <ele>204.675297</ele>
        <time>2023-01-01T12:24:04.496Z</time>
      </trkpt>
      <trkpt lat="43.86495" lon="1.03535">
        <ele>203.742183</ele>
        <time>2023-01-01T12:24:06.495Z</time>
      </trkpt>
      <trkpt lat="43.86501" lon="1.03519">
        <ele>202.733783</ele>
        <time>2023-01-01T12:24:08.496Z</time>
      </trkpt>
      <trkpt lat="43.86506" lon="1.03502">
        <ele>201.700071</ele>
        <time>2023-01-01T12:24:10.490Z</time>
      </trkpt>
      <trkpt lat="43.86512" lon="1.03486">
        <ele>200.681819</ele>
        <time>2023-01-01T12:24:12.491Z</time>
      </trkpt>
      <trkpt lat="43.86517" lon="1.03469">
        <ele>199.653534</ele>
        <time>2023-01-01T12:24:14.495Z</time>
      </trkpt>
      <trkpt lat="43.86522" lon="1.03452">
        <ele>198.595961</ele>
        <time>2023-01-01T12:24:16.502Z</time>
      </trkpt>
      <trkpt lat="43.86527" lon="1.03436">
        <ele>197.573964</ele>
        <time>2023-01-01T12:24:18.500Z</time>
      </trkpt>
      <trkpt lat="43.86533" lon="1.03418">
        <ele>196.497502</ele>
        <time>2023-01-01T12:24:20.482Z</time>
      </trkpt>
      <trkpt lat="43.86539" lon="1.034">
        <ele>195.371632</ele>
        <time>2023-01-01T12:24:22.491Z</time>
      </trkpt>
      <trkpt lat="43.86545" lon="1.03383">
        <ele>194.440459</ele>
        <time>2023-01-01T12:24:24.490Z</time>
      </trkpt>
      <trkpt lat="43.86551" lon="1.03366">
        <ele>193.702184</ele>
        <time>2023-01-01T12:24:26.493Z</time>
      </trkpt>
      <trkpt lat="43.86557" lon="1.03347">
        <ele>192.93832</ele>
        <time>2023-01-01T12:24:28.494Z</time>
      </trkpt>
      <trkpt lat="43.86563" lon="1.03329">
        <ele>192.176279</ele>
        <time>2023-01-01T12:24:30.501Z</time>
      </trkpt>
      <trkpt lat="43.86569" lon="1.03312">
        <ele>191.435892</ele>
        <time>2023-01-01T12:24:32.498Z</time>
      </trkpt>
      <trkpt lat="43.86575" lon="1.03294">
        <ele>190.68532</ele>
        <time>2023-01-01T12:24:34.490Z</time>
      </trkpt>
      <trkpt lat="43.86582" lon="1.03276">
        <ele>189.92562</ele>
        <time>2023-01-01T12:24:36.475Z</time>
      </trkpt>
      <trkpt lat="43.86588" lon="1.03257">
        <ele>189.147588</ele>
        <time>2023-01-01T12:24:38.500Z</time>
      </trkpt>
      <trkpt lat="43.86594" lon="1.03239">
        <ele>188.385123</ele>
        <time>2023-01-01T12:24:40.497Z</time>
      </trkpt>
      <trkpt lat="43.866" lon="1.0322">
        <ele>187.581995</ele>
        <time>2023-01-01T12:24:42.501Z</time>
      </trkpt>
      <trkpt lat="43.86606" lon="1.03199">
        <ele>186.744253</ele>
        <time>2023-01-01T12:24:44.487Z</time>
      </trkpt>
      <trkpt lat="43.86613" lon="1.0318">
        <ele>185.941126</ele>
        <time>2023-01-01T12:24:46.490Z</time>
      </trkpt>
      <trkpt lat="43.86619" lon="1.0316">
        <ele>185.260202</ele>
        <time>2023-01-01T12:24:48.497Z</time>
      </trkpt>
      <trkpt lat="43.86625" lon="1.03139">
        <ele>185.136706</ele>
        <time>2023-01-01T12:24:50.501Z</time>
      </trkpt>
      <trkpt lat="43.86632" lon="1.03118">
        <ele>185.007458</ele>
        <time>2023-01-01T12:24:52.508Z</time>
      </trkpt>
      <trkpt lat="43.8664" lon="1.03096">
        <ele>184.877111</ele>
        <time>2023-01-01T12:24:54.499Z</time>
      </trkpt>
      <trkpt lat="43.86646" lon="1.03076">
        <ele>184.753679</ele>
        <time>2023-01-01T12:24:56.498Z</time>
      </trkpt>
      <trkpt lat="43.86654" lon="1.03056">
        <ele>184.633009</ele>
        <time>2023-01-01T12:24:58.496Z</time>
      </trkpt>
      <trkpt lat="43.8666" lon="1.03037">
        <ele>184.516517</ele>
        <time>2023-01-01T12:25:00.500Z</time>
      </trkpt>
      <trkpt lat="43.86667" lon="1.03018">
        <ele>184.401835</ele>
        <time>2023-01-01T12:25:02.497Z</time>
      </trkpt>
      <trkpt lat="43.86674" lon="1.03">
        <ele>184.287983</ele>
        <time>2023-01-01T12:25:04.492Z</time>
      </trkpt>
      <trkpt lat="43.8668" lon="1.02982">
        <ele>184.179415</ele>
        <time>2023-01-01T12:25:06.498Z</time>
      </trkpt>
      <trkpt lat="43.86686" lon="1.02964">
        <ele>184.072496</ele>
        <time>2023-01-01T12:25:08.496Z</time>
      </trkpt>
      <trkpt lat="43.86692" lon="1.02948">
        <ele>183.970854</ele>
        <time>2023-01-01T12:25:10.498Z</time>
      </trkpt>
      <trkpt lat="43.86697" lon="1.02931">
        <ele>183.818623</ele>
        <time>2023-01-01T12:25:12.481Z</time>
      </trkpt>
      <trkpt lat="43.86702" lon="1.02914">
        <ele>183.602984</ele>
        <time>2023-01-01T12:25:14.493Z</time>
      </trkpt>
      <trkpt lat="43.86709" lon="1.02895">
        <ele>183.373187</ele>
        <time>2023-01-01T12:25:16.498Z</time>
      </trkpt>
      <trkpt lat="43.86715" lon="1.02877">
        <ele>183.135164</ele>
        <time>2023-01-01T12:25:18.497Z</time>
      </trkpt>
      <trkpt lat="43.86722" lon="1.02858">
        <ele>182.896452</ele>
        <time>2023-01-01T12:25:20.487Z</time>
      </trkpt>
      <trkpt lat="43.86728" lon="1.02838">
        <ele>182.64639</ele>
        <time>2023-01-01T12:25:22.497Z</time>
      </trkpt>
      <trkpt lat="43.86734" lon="1.02818">
        <ele>182.401632</ele>
        <time>2023-01-01T12:25:24.492Z</time>
      </trkpt>
      <trkpt lat="43.86741" lon="1.02798">
        <ele>182.145973</ele>
        <time>2023-01-01T12:25:26.488Z</time>
      </trkpt>
      <trkpt lat="43.86747" lon="1.02778">
        <ele>181.898904</ele>
        <time>2023-01-01T12:25:28.493Z</time>
      </trkpt>
      <trkpt lat="43.86754" lon="1.02757">
        <ele>181.63375</ele>
        <time>2023-01-01T12:25:30.499Z</time>
      </trkpt>
      <trkpt lat="43.86762" lon="1.02735">
        <ele>181.358671</ele>
        <time>2023-01-01T12:25:32.500Z</time>
      </trkpt>
      <trkpt lat="43.86766" lon="1.02723">
        <ele>181.212821</ele>
        <time>2023-01-01T12:25:33.500Z</time>
      </trkpt>
      <trkpt lat="43.86769" lon="1.02712">
        <ele>181.068657</ele>
        <time>2023-01-01T12:25:34.502Z</time>
      </trkpt>
      <trkpt lat="43.86776" lon="1.02689">
        <ele>180.675344</ele>
        <time>2023-01-01T12:25:36.492Z</time>
      </trkpt>
      <trkpt lat="43.8678" lon="1.02677">
        <ele>180.47218</ele>
        <time>2023-01-01T12:25:37.492Z</time>
      </trkpt>
      <trkpt lat="43.86784" lon="1.02665">
        <ele>180.268102</ele>
        <time>2023-01-01T12:25:38.497Z</time>
      </trkpt>
      <trkpt lat="43.86788" lon="1.02654">
        <ele>180.069672</ele>
        <time>2023-01-01T12:25:39.491Z</time>
      </trkpt>
      <trkpt lat="43.86796" lon="1.02632">
        <ele>179.685967</ele>
        <time>2023-01-01T12:25:41.494Z</time>
      </trkpt>
      <trkpt lat="43.86803" lon="1.0261">
        <ele>179.310741</ele>
        <time>2023-01-01T12:25:43.496Z</time>
      </trkpt>
      <trkpt lat="43.8681" lon="1.02589">
        <ele>178.946154</ele>
        <time>2023-01-01T12:25:45.502Z</time>
      </trkpt>
      <trkpt lat="43.86817" lon="1.02568">
        <ele>178.588796</ele>
        <time>2023-01-01T12:25:47.501Z</time>
      </trkpt>
      <trkpt lat="43.86825" lon="1.02548">
        <ele>178.239343</ele>
        <time>2023-01-01T12:25:49.501Z</time>
      </trkpt>
      <trkpt lat="43.86832" lon="1.02528">
        <ele>177.881496</ele>
        <time>2023-01-01T12:25:51.498Z</time>
      </trkpt>
      <trkpt lat="43.86839" lon="1.02508">
        <ele>177.531658</ele>
        <time>2023-01-01T12:25:53.491Z</time>
      </trkpt>
      <trkpt lat="43.86846" lon="1.02488">
        <ele>177.185555</ele>
        <time>2023-01-01T12:25:55.500Z</time>
      </trkpt>
      <trkpt lat="43.86852" lon="1.02469">
        <ele>177.018931</ele>
        <time>2023-01-01T12:25:57.501Z</time>
      </trkpt>
      <trkpt lat="43.86859" lon="1.02451">
        <ele>176.874264</ele>
        <time>2023-01-01T12:25:59.498Z</time>
      </trkpt>
      <trkpt lat="43.86865" lon="1.02435">
        <ele>176.737168</ele>
        <time>2023-01-01T12:26:01.499Z</time>
      </trkpt>
      <trkpt lat="43.8687" lon="1.02418">
        <ele>176.603571</ele>
        <time>2023-01-01T12:26:03.490Z</time>
      </trkpt>
      <trkpt lat="43.86874" lon="1.02403">
        <ele>176.481743</ele>
        <time>2023-01-01T12:26:05.497Z</time>
      </trkpt>
      <trkpt lat="43.86879" lon="1.02388">
        <ele>176.364837</ele>
        <time>2023-01-01T12:26:07.498Z</time>
      </trkpt>
      <trkpt lat="43.86883" lon="1.02376">
        <ele>176.264848</ele>
        <time>2023-01-01T12:26:09.496Z</time>
      </trkpt>
      <trkpt lat="43.86887" lon="1.02364">
        <ele>176.16707</ele>
        <time>2023-01-01T12:26:11.499Z</time>
      </trkpt>
      <trkpt lat="43.86891" lon="1.02352">
        <ele>176.067816</ele>
        <time>2023-01-01T12:26:13.500Z</time>
      </trkpt>
      <trkpt lat="43.86895" lon="1.02339">
        <ele>175.965317</ele>
        <time>2023-01-01T12:26:15.498Z</time>
      </trkpt>
      <trkpt lat="43.86899" lon="1.02326">
        <ele>175.862139</ele>
        <time>2023-01-01T12:26:17.503Z</time>
      </trkpt>
      <trkpt lat="43.86903" lon="1.02314">
        <ele>175.758549</ele>
        <time>2023-01-01T12:26:19.490Z</time>
      </trkpt>
      <trkpt lat="43.86906" lon="1.023">
        <ele>175.654149</ele>
        <time>2023-01-01T12:26:21.501Z</time>
      </trkpt>
      <trkpt lat="43.8691" lon="1.02288">
        <ele>175.554597</ele>
        <time>2023-01-01T12:26:23.493Z</time>
      </trkpt>
      <trkpt lat="43.86914" lon="1.02275">
        <ele>175.44683</ele>
        <time>2023-01-01T12:26:25.500Z</time>
      </trkpt>
      <trkpt lat="43.86919" lon="1.02262">
        <ele>175.343286</ele>
        <time>2023-01-01T12:26:27.497Z</time>
      </trkpt>
      <trkpt lat="43.86923" lon="1.0225">
        <ele>175.236209</ele>
        <time>2023-01-01T12:26:29.504Z</time>
      </trkpt>
      <trkpt lat="43.86927" lon="1.02239">
        <ele>175.127832</ele>
        <time>2023-01-01T12:26:31.502Z</time>
      </trkpt>
      <trkpt lat="43.86932" lon="1.02222">
        <ele>174.975674</ele>
        <time>2023-01-01T12:26:34.499Z</time>
      </trkpt>
      <trkpt lat="43.86938" lon="1.02205">
        <ele>174.820252</ele>
        <time>2023-01-01T12:26:37.502Z</time>
      </trkpt>
      <trkpt lat="43.86942" lon="1.02193">
        <ele>174.70534</ele>
        <time>2023-01-01T12:26:39.501Z</time>
      </trkpt>
      <trkpt lat="43.86946" lon="1.02179">
        <ele>174.580713</ele>
        <time>2023-01-01T12:26:41.498Z</time>
      </trkpt>
      <trkpt lat="43.86951" lon="1.02165">
        <ele>174.442267</ele>
        <time>2023-01-01T12:26:43.500Z</time>
      </trkpt>
      <trkpt lat="43.86956" lon="1.02149">
        <ele>174.295964</ele>
        <time>2023-01-01T12:26:45.500Z</time>
      </trkpt>
      <trkpt lat="43.86962" lon="1.02133">
        <ele>174.150676</ele>
        <time>2023-01-01T12:26:47.496Z</time>
      </trkpt>
      <trkpt lat="43.86967" lon="1.02118">
        <ele>174.008112</ele>
        <time>2023-01-01T12:26:49.497Z</time>
      </trkpt>
      <trkpt lat="43.86973" lon="1.02102">
        <ele>173.858762</ele>
        <time>2023-01-01T12:26:51.502Z</time>
      </trkpt>
      <trkpt lat="43.86978" lon="1.02085">
        <ele>173.703521</ele>
        <time>2023-01-01T12:26:53.500Z</time>
      </trkpt>
      <trkpt lat="43.86984" lon="1.02067">
        <ele>173.541168</ele>
        <time>2023-01-01T12:26:55.504Z</time>
      </trkpt>
      <trkpt lat="43.86989" lon="1.0205">
        <ele>173.379198</ele>
        <time>2023-01-01T12:26:57.500Z</time>
      </trkpt>
      <trkpt lat="43.86995" lon="1.02032">
        <ele>173.222884</ele>
        <time>2023-01-01T12:26:59.500Z</time>
      </trkpt>
      <trkpt lat="43.87001" lon="1.02015">
        <ele>173.410596</ele>
        <time>2023-01-01T12:27:01.501Z</time>
      </trkpt>
      <trkpt lat="43.87007" lon="1.01997">
        <ele>173.602424</ele>
        <time>2023-01-01T12:27:03.490Z</time>
      </trkpt>
      <trkpt lat="43.87013" lon="1.0198">
        <ele>173.790103</ele>
        <time>2023-01-01T12:27:05.495Z</time>
      </trkpt>
      <trkpt lat="43.87019" lon="1.01964">
        <ele>173.968286</ele>
        <time>2023-01-01T12:27:07.501Z</time>
      </trkpt>
      <trkpt lat="43.87026" lon="1.0195">
        <ele>174.136682</ele>
        <time>2023-01-01T12:27:09.503Z</time>
      </trkpt>
      <trkpt lat="43.87031" lon="1.01934">
        <ele>174.309143</ele>
        <time>2023-01-01T12:27:11.502Z</time>
      </trkpt>
      <trkpt lat="43.87036" lon="1.01918">
        <ele>174.482292</ele>
        <time>2023-01-01T12:27:13.502Z</time>
      </trkpt>
      <trkpt lat="43.87042" lon="1.01904">
        <ele>174.642112</ele>
        <time>2023-01-01T12:27:15.503Z</time>
      </trkpt>
      <trkpt lat="43.87046" lon="1.01889">
        <ele>174.798105</ele>
        <time>2023-01-01T12:27:17.481Z</time>
      </trkpt>
      <trkpt lat="43.87051" lon="1.01877">
        <ele>174.93538</ele>
        <time>2023-01-01T12:27:19.492Z</time>
      </trkpt>
      <trkpt lat="43.87056" lon="1.01859">
        <ele>175.119234</ele>
        <time>2023-01-01T12:27:22.505Z</time>
      </trkpt>
      <trkpt lat="43.8706" lon="1.01845">
        <ele>175.278488</ele>
        <time>2023-01-01T12:27:25.494Z</time>
      </trkpt>
      <trkpt lat="43.87065" lon="1.01831">
        <ele>175.424952</ele>
        <time>2023-01-01T12:27:28.475Z</time>
      </trkpt>
      <trkpt lat="43.8707" lon="1.01818">
        <ele>175.568846</ele>
        <time>2023-01-01T12:27:31.481Z</time>
      </trkpt>
      <trkpt lat="43.87074" lon="1.01806">
        <ele>175.727577</ele>
        <time>2023-01-01T12:27:34.500Z</time>
      </trkpt>
      <trkpt lat="43.87078" lon="1.01794">
        <ele>176.03001</ele>
        <time>2023-01-01T12:27:37.503Z</time>
      </trkpt>
      <trkpt lat="43.87082" lon="1.01782">
        <ele>176.317092</ele>
        <time>2023-01-01T12:27:40.498Z</time>
      </trkpt>
      <trkpt lat="43.87086" lon="1.0177">
        <ele>176.603492</ele>
        <time>2023-01-01T12:27:43.497Z</time>
      </trkpt>
      <trkpt lat="43.8709" lon="1.01758">
        <ele>176.911461</ele>
        <time>2023-01-01T12:27:46.512Z</time>
      </trkpt>
      <trkpt lat="43.87094" lon="1.01744">
        <ele>177.240603</ele>
        <time>2023-01-01T12:27:49.482Z</time>
      </trkpt>
      <trkpt lat="43.871" lon="1.01731">
        <ele>177.574004</ele>
        <time>2023-01-01T12:27:52.502Z</time>
      </trkpt>
      <trkpt lat="43.87104" lon="1.01716">
        <ele>177.947662</ele>
        <time>2023-01-01T12:27:55.501Z</time>
      </trkpt>
      <trkpt lat="43.8711" lon="1.017">
        <ele>178.335638</ele>
        <time>2023-01-01T12:27:58.500Z</time>
      </trkpt>
      <trkpt lat="43.87115" lon="1.01684">
        <ele>178.728212</ele>
        <time>2023-01-01T12:28:01.498Z</time>
      </trkpt>
      <trkpt lat="43.8712" lon="1.01668">
        <ele>179.118212</ele>
        <time>2023-01-01T12:28:04.498Z</time>
      </trkpt>
      <trkpt lat="43.87124" lon="1.01657">
        <ele>179.397303</ele>
        <time>2023-01-01T12:28:06.500Z</time>
      </trkpt>
      <trkpt lat="43.87131" lon="1.01641">
        <ele>179.80541</ele>
        <time>2023-01-01T12:28:09.474Z</time>
      </trkpt>
      <trkpt lat="43.87137" lon="1.01625">
        <ele>180.205148</ele>
        <time>2023-01-01T12:28:12.499Z</time>
      </trkpt>
      <trkpt lat="43.87143" lon="1.01608">
        <ele>180.614678</ele>
        <time>2023-01-01T12:28:15.502Z</time>
      </trkpt>
      <trkpt lat="43.87147" lon="1.01597">
        <ele>180.897186</ele>
        <time>2023-01-01T12:28:17.503Z</time>
      </trkpt>
      <trkpt lat="43.87151" lon="1.01585">
        <ele>181.192984</ele>
        <time>2023-01-01T12:28:19.493Z</time>
      </trkpt>
      <trkpt lat="43.87156" lon="1.01569">
        <ele>181.117068</ele>
        <time>2023-01-01T12:28:22.503Z</time>
      </trkpt>
      <trkpt lat="43.87162" lon="1.01552">
        <ele>181.001841</ele>
        <time>2023-01-01T12:28:25.498Z</time>
      </trkpt>
      <trkpt lat="43.87168" lon="1.01535">
        <ele>180.879814</ele>
        <time>2023-01-01T12:28:28.492Z</time>
      </trkpt>
      <trkpt lat="43.87171" lon="1.01524">
        <ele>180.796348</ele>
        <time>2023-01-01T12:28:30.496Z</time>
      </trkpt>
      <trkpt lat="43.87175" lon="1.01512">
        <ele>180.7149</ele>
        <time>2023-01-01T12:28:32.476Z</time>
      </trkpt>
      <trkpt lat="43.87179" lon="1.015">
        <ele>180.627506</ele>
        <time>2023-01-01T12:28:34.493Z</time>
      </trkpt>
      <trkpt lat="43.87183" lon="1.01487">
        <ele>180.53676</ele>
        <time>2023-01-01T12:28:36.501Z</time>
      </trkpt>
      <trkpt lat="43.87187" lon="1.01474">
        <ele>180.446392</ele>
        <time>2023-01-01T12:28:38.499Z</time>
      </trkpt>
      <trkpt lat="43.87191" lon="1.01462">
        <ele>180.36207</ele>
        <time>2023-01-01T12:28:40.500Z</time>
      </trkpt>
      <trkpt lat="43.87195" lon="1.01449">
        <ele>180.270739</ele>
        <time>2023-01-01T12:28:42.473Z</time>
      </trkpt>
      <trkpt lat="43.87199" lon="1.01437">
        <ele>180.184853</ele>
        <time>2023-01-01T12:28:44.497Z</time>
      </trkpt>
      <trkpt lat="43.87203" lon="1.01425">
        <ele>180.098579</ele>
        <time>2023-01-01T12:28:46.493Z</time>
      </trkpt>
      <trkpt lat="43.87207" lon="1.01413">
        <ele>180.012887</ele>
        <time>2023-01-01T12:28:48.475Z</time>
      </trkpt>
      <trkpt lat="43.87211" lon="1.01401">
        <ele>179.926794</ele>
        <time>2023-01-01T12:28:50.502Z</time>
      </trkpt>
      <trkpt lat="43.87215" lon="1.01389">
        <ele>179.842618</ele>
        <time>2023-01-01T12:28:52.504Z</time>
      </trkpt>
      <trkpt lat="43.87219" lon="1.01378">
        <ele>179.761032</ele>
        <time>2023-01-01T12:28:54.498Z</time>
      </trkpt>
      <trkpt lat="43.87224" lon="1.01362">
        <ele>179.645026</ele>
        <time>2023-01-01T12:28:57.499Z</time>
      </trkpt>
      <trkpt lat="43.8723" lon="1.01346">
        <ele>179.568949</ele>
        <time>2023-01-01T12:29:00.501Z</time>
      </trkpt>
      <trkpt lat="43.87234" lon="1.01332">
        <ele>179.514724</ele>
        <time>2023-01-01T12:29:03.498Z</time>
      </trkpt>
      <trkpt lat="43.87239" lon="1.01317">
        <ele>179.459983</ele>
        <time>2023-01-01T12:29:06.493Z</time>
      </trkpt>
      <trkpt lat="43.87243" lon="1.01303">
        <ele>179.407249</ele>
        <time>2023-01-01T12:29:09.474Z</time>
      </trkpt>
      <trkpt lat="43.87249" lon="1.01288">
        <ele>179.348405</ele>
        <time>2023-01-01T12:29:12.490Z</time>
      </trkpt>
      <trkpt lat="43.87253" lon="1.01277">
        <ele>179.303781</ele>
        <time>2023-01-01T12:29:14.488Z</time>
      </trkpt>
      <trkpt lat="43.87257" lon="1.01265">
        <ele>179.258732</ele>
        <time>2023-01-01T12:29:16.482Z</time>
      </trkpt>
      <trkpt lat="43.87261" lon="1.01253">
        <ele>179.213684</ele>
        <time>2023-01-01T12:29:18.497Z</time>
      </trkpt>
      <trkpt lat="43.87265" lon="1.01241">
        <ele>179.165906</ele>
        <time>2023-01-01T12:29:20.490Z</time>
      </trkpt>
      <trkpt lat="43.87269" lon="1.01228">
        <ele>179.117101</ele>
        <time>2023-01-01T12:29:22.498Z</time>
      </trkpt>
      <trkpt lat="43.87273" lon="1.01215">
        <ele>179.070087</ele>
        <time>2023-01-01T12:29:24.497Z</time>
      </trkpt>
      <trkpt lat="43.87277" lon="1.01204">
        <ele>179.023671</ele>
        <time>2023-01-01T12:29:26.482Z</time>
      </trkpt>
      <trkpt lat="43.87282" lon="1.01193">
        <ele>178.980474</ele>
        <time>2023-01-01T12:29:28.481Z</time>
      </trkpt>
      <trkpt lat="43.87287" lon="1.01176">
        <ele>178.916666</ele>
        <time>2023-01-01T12:29:31.500Z</time>
      </trkpt>
      <trkpt lat="43.87291" lon="1.01165">
        <ele>178.872765</ele>
        <time>2023-01-01T12:29:33.502Z</time>
      </trkpt>
      <trkpt lat="43.87297" lon="1.01149">
        <ele>178.81269</ele>
        <time>2023-01-01T12:29:36.500Z</time>
      </trkpt>
      <trkpt lat="43.87303" lon="1.01133">
        <ele>178.749297</ele>
        <time>2023-01-01T12:29:39.501Z</time>
      </trkpt>
      <trkpt lat="43.87307" lon="1.01122">
        <ele>178.51522</ele>
        <time>2023-01-01T12:29:41.492Z</time>
      </trkpt>
      <trkpt lat="43.8731" lon="1.0111">
        <ele>178.256668</ele>
        <time>2023-01-01T12:29:43.501Z</time>
      </trkpt>
      <trkpt lat="43.87316" lon="1.01093">
        <ele>177.883927</ele>
        <time>2023-01-01T12:29:46.503Z</time>
      </trkpt>
      <trkpt lat="43.8732" lon="1.01082">
        <ele>177.622334</ele>
        <time>2023-01-01T12:29:48.505Z</time>
      </trkpt>
      <trkpt lat="43.87323" lon="1.0107">
        <ele>177.363783</ele>
        <time>2023-01-01T12:29:50.492Z</time>
      </trkpt>
      <trkpt lat="43.87327" lon="1.01058">
        <ele>177.095825</ele>
        <time>2023-01-01T12:29:52.493Z</time>
      </trkpt>
      <trkpt lat="43.8733" lon="1.01045">
        <ele>176.811671</ele>
        <time>2023-01-01T12:29:54.500Z</time>
      </trkpt>
      <trkpt lat="43.87334" lon="1.01032">
        <ele>176.51428</ele>
        <time>2023-01-01T12:29:56.485Z</time>
      </trkpt>
      <trkpt lat="43.87339" lon="1.01018">
        <ele>176.202134</ele>
        <time>2023-01-01T12:29:58.499Z</time>
      </trkpt>
      <trkpt lat="43.87344" lon="1.01005">
        <ele>175.883365</ele>
        <time>2023-01-01T12:30:00.501Z</time>
      </trkpt>
      <trkpt lat="43.87349" lon="1.00991">
        <ele>175.563849</ele>
        <time>2023-01-01T12:30:02.495Z</time>
      </trkpt>
      <trkpt lat="43.87354" lon="1.00976">
        <ele>175.238135</ele>
        <time>2023-01-01T12:30:04.496Z</time>
      </trkpt>
      <trkpt lat="43.87359" lon="1.00961">
        <ele>174.884591</ele>
        <time>2023-01-01T12:30:06.497Z</time>
      </trkpt>
      <trkpt lat="43.87364" lon="1.00945">
        <ele>174.536653</ele>
        <time>2023-01-01T12:30:08.487Z</time>
      </trkpt>
      <trkpt lat="43.8737" lon="1.00928">
        <ele>174.155252</ele>
        <time>2023-01-01T12:30:10.484Z</time>
      </trkpt>
      <trkpt lat="43.87375" lon="1.00911">
        <ele>173.778756</ele>
        <time>2023-01-01T12:30:12.495Z</time>
      </trkpt>
      <trkpt lat="43.87381" lon="1.00896">
        <ele>173.479265</ele>
        <time>2023-01-01T12:30:14.498Z</time>
      </trkpt>
      <trkpt lat="43.87386" lon="1.0088">
        <ele>173.223216</ele>
        <time>2023-01-01T12:30:16.486Z</time>
      </trkpt>
      <trkpt lat="43.87391" lon="1.00864">
        <ele>172.969894</ele>
        <time>2023-01-01T12:30:18.501Z</time>
      </trkpt>
      <trkpt lat="43.87396" lon="1.00848">
        <ele>172.712302</ele>
        <time>2023-01-01T12:30:20.475Z</time>
      </trkpt>
      <trkpt lat="43.87401" lon="1.00833">
        <ele>172.474709</ele>
        <time>2023-01-01T12:30:22.498Z</time>
      </trkpt>
      <trkpt lat="43.87407" lon="1.00818">
        <ele>172.221751</ele>
        <time>2023-01-01T12:30:24.490Z</time>
      </trkpt>
      <trkpt lat="43.87413" lon="1.00802">
        <ele>171.966828</ele>
        <time>2023-01-01T12:30:26.502Z</time>
      </trkpt>
      <trkpt lat="43.87419" lon="1.00786">
        <ele>171.70259</ele>
        <time>2023-01-01T12:30:28.494Z</time>
      </trkpt>
      <trkpt lat="43.87424" lon="1.00771">
        <ele>171.443919</ele>
        <time>2023-01-01T12:30:30.502Z</time>
      </trkpt>
      <trkpt lat="43.87431" lon="1.00754">
        <ele>171.166736</ele>
        <time>2023-01-01T12:30:32.496Z</time>
      </trkpt>
      <trkpt lat="43.87436" lon="1.00738">
        <ele>170.907172</ele>
        <time>2023-01-01T12:30:34.485Z</time>
      </trkpt>
      <trkpt lat="43.87441" lon="1.00721">
        <ele>170.638795</ele>
        <time>2023-01-01T12:30:36.486Z</time>
      </trkpt>
      <trkpt lat="43.87447" lon="1.00703">
        <ele>170.359425</ele>
        <time>2023-01-01T12:30:38.499Z</time>
      </trkpt>
      <trkpt lat="43.87453" lon="1.00686">
        <ele>170.083185</ele>
        <time>2023-01-01T12:30:40.502Z</time>
      </trkpt>
      <trkpt lat="43.87459" lon="1.00669">
        <ele>169.779825</ele>
        <time>2023-01-01T12:30:42.499Z</time>
      </trkpt>
      <trkpt lat="43.87464" lon="1.00651">
        <ele>169.461742</ele>
        <time>2023-01-01T12:30:44.487Z</time>
      </trkpt>
      <trkpt lat="43.87471" lon="1.00634">
        <ele>169.146323</ele>
        <time>2023-01-01T12:30:46.492Z</time>
      </trkpt>
      <trkpt lat="43.87476" lon="1.00616">
        <ele>168.822226</ele>
        <time>2023-01-01T12:30:48.501Z</time>
      </trkpt>
      <trkpt lat="43.87482" lon="1.00598">
        <ele>168.495497</ele>
        <time>2023-01-01T12:30:50.495Z</time>
      </trkpt>
      <trkpt lat="43.87489" lon="1.00579">
        <ele>168.164833</ele>
        <time>2023-01-01T12:30:52.496Z</time>
      </trkpt>
      <trkpt lat="43.87495" lon="1.00562">
        <ele>167.848411</ele>
        <time>2023-01-01T12:30:54.499Z</time>
      </trkpt>
      <trkpt lat="43.87501" lon="1.00544">
        <ele>167.529414</ele>
        <time>2023-01-01T12:30:56.469Z</time>
      </trkpt>
      <trkpt lat="43.87507" lon="1.00526">
        <ele>167.203659</ele>
        <time>2023-01-01T12:30:58.499Z</time>
      </trkpt>
      <trkpt lat="43.87513" lon="1.00508">
        <ele>166.875889</ele>
        <time>2023-01-01T12:31:00.501Z</time>
      </trkpt>
      <trkpt lat="43.87519" lon="1.00491">
        <ele>166.555523</ele>
        <time>2023-01-01T12:31:02.492Z</time>
      </trkpt>
      <trkpt lat="43.87525" lon="1.00472">
        <ele>166.229026</ele>
        <time>2023-01-01T12:31:04.481Z</time>
      </trkpt>
      <trkpt lat="43.8753" lon="1.00455">
        <ele>165.918986</ele>
        <time>2023-01-01T12:31:06.485Z</time>
      </trkpt>
      <trkpt lat="43.87536" lon="1.00438">
        <ele>165.494658</ele>
        <time>2023-01-01T12:31:08.496Z</time>
      </trkpt>
      <trkpt lat="43.87542" lon="1.00422">
        <ele>165.0574</ele>
        <time>2023-01-01T12:31:10.498Z</time>
      </trkpt>
      <trkpt lat="43.87547" lon="1.00405">
        <ele>164.621657</ele>
        <time>2023-01-01T12:31:12.503Z</time>
      </trkpt>
      <trkpt lat="43.87552" lon="1.00388">
        <ele>164.197677</ele>
        <time>2023-01-01T12:31:14.501Z</time>
      </trkpt>
      <trkpt lat="43.87557" lon="1.00372">
        <ele>163.783683</ele>
        <time>2023-01-01T12:31:16.500Z</time>
      </trkpt>
      <trkpt lat="43.87563" lon="1.00357">
        <ele>163.368473</ele>
        <time>2023-01-01T12:31:18.500Z</time>
      </trkpt>
      <trkpt lat="43.87569" lon="1.00341">
        <ele>162.965112</ele>
        <time>2023-01-01T12:31:20.495Z</time>
      </trkpt>
      <trkpt lat="43.87574" lon="1.00326">
        <ele>162.559654</ele>
        <time>2023-01-01T12:31:22.500Z</time>
      </trkpt>
      <trkpt lat="43.8758" lon="1.00309">
        <ele>162.124362</ele>
        <time>2023-01-01T12:31:24.479Z</time>
      </trkpt>
      <trkpt lat="43.87585" lon="1.00293">
        <ele>161.699849</ele>
        <time>2023-01-01T12:31:26.497Z</time>
      </trkpt>
      <trkpt lat="43.87591" lon="1.00276">
        <ele>161.245538</ele>
        <time>2023-01-01T12:31:28.500Z</time>
      </trkpt>
      <trkpt lat="43.87597" lon="1.00259">
        <ele>160.813205</ele>
        <time>2023-01-01T12:31:30.495Z</time>
      </trkpt>
      <trkpt lat="43.87603" lon="1.00241">
        <ele>160.328972</ele>
        <time>2023-01-01T12:31:32.490Z</time>
      </trkpt>
      <trkpt lat="43.8761" lon="1.0022">
        <ele>159.802055</ele>
        <time>2023-01-01T12:31:34.501Z</time>
      </trkpt>
      <trkpt lat="43.87617" lon="1.00199">
        <ele>159.26975</ele>
        <time>2023-01-01T12:31:36.498Z</time>
      </trkpt>
      <trkpt lat="43.87621" lon="1.00187">
        <ele>158.987517</ele>
        <time>2023-01-01T12:31:37.503Z</time>
      </trkpt>
      <trkpt lat="43.87624" lon="1.00175">
        <ele>158.69459</ele>
        <time>2023-01-01T12:31:38.494Z</time>
      </trkpt>
      <trkpt lat="43.87628" lon="1.00164">
        <ele>158.412048</ele>
        <time>2023-01-01T12:31:39.503Z</time>
      </trkpt>
      <trkpt lat="43.87636" lon="1.00143">
        <ele>157.89283</ele>
        <time>2023-01-01T12:31:41.497Z</time>
      </trkpt>
      <trkpt lat="43.87643" lon="1.00123">
        <ele>157.39449</ele>
        <time>2023-01-01T12:31:43.503Z</time>
      </trkpt>
      <trkpt lat="43.8765" lon="1.00104">
        <ele>156.904939</ele>
        <time>2023-01-01T12:31:45.499Z</time>
      </trkpt>
      <trkpt lat="43.87656" lon="1.00084">
        <ele>156.418747</ele>
        <time>2023-01-01T12:31:47.495Z</time>
      </trkpt>
      <trkpt lat="43.87662" lon="1.00064">
        <ele>155.93787</ele>
        <time>2023-01-01T12:31:49.500Z</time>
      </trkpt>
      <trkpt lat="43.87668" lon="1.00045">
        <ele>155.474601</ele>
        <time>2023-01-01T12:31:51.484Z</time>
      </trkpt>
      <trkpt lat="43.87675" lon="1.00028">
        <ele>155.02677</ele>
        <time>2023-01-01T12:31:53.500Z</time>
      </trkpt>
      <trkpt lat="43.8768" lon="1.00009">
        <ele>154.585926</ele>
        <time>2023-01-01T12:31:55.499Z</time>
      </trkpt>
      <trkpt lat="43.87686" lon="0.99992">
        <ele>154.328704</ele>
        <time>2023-01-01T12:31:57.477Z</time>
      </trkpt>
      <trkpt lat="43.87691" lon="0.99975">
        <ele>154.230833</ele>
        <time>2023-01-01T12:31:59.499Z</time>
      </trkpt>
      <trkpt lat="43.87697" lon="0.99958">
        <ele>154.132141</ele>
        <time>2023-01-01T12:32:01.480Z</time>
      </trkpt>
      <trkpt lat="43.87702" lon="0.99943">
        <ele>154.042804</ele>
        <time>2023-01-01T12:32:03.486Z</time>
      </trkpt>
      <trkpt lat="43.87707" lon="0.99929">
        <ele>153.956121</ele>
        <time>2023-01-01T12:32:05.497Z</time>
      </trkpt>
      <trkpt lat="43.87712" lon="0.99915">
        <ele>153.871896</ele>
        <time>2023-01-01T12:32:07.487Z</time>
      </trkpt>
      <trkpt lat="43.87716" lon="0.99901">
        <ele>153.792664</ele>
        <time>2023-01-01T12:32:09.498Z</time>
      </trkpt>
      <trkpt lat="43.87721" lon="0.99888">
        <ele>153.715375</ele>
        <time>2023-01-01T12:32:11.476Z</time>
      </trkpt>
      <trkpt lat="43.87725" lon="0.99874">
        <ele>153.637598</ele>
        <time>2023-01-01T12:32:13.491Z</time>
      </trkpt>
      <trkpt lat="43.87729" lon="0.99862">
        <ele>153.562243</ele>
        <time>2023-01-01T12:32:15.498Z</time>
      </trkpt>
      <trkpt lat="43.87734" lon="0.99848">
        <ele>153.479495</ele>
        <time>2023-01-01T12:32:17.509Z</time>
      </trkpt>
      <trkpt lat="43.8774" lon="0.99833">
        <ele>153.389154</ele>
        <time>2023-01-01T12:32:19.497Z</time>
      </trkpt>
      <trkpt lat="43.87745" lon="0.99818">
        <ele>153.297893</ele>
        <time>2023-01-01T12:32:21.502Z</time>
      </trkpt>
      <trkpt lat="43.8775" lon="0.99805">
        <ele>153.221252</ele>
        <time>2023-01-01T12:32:23.496Z</time>
      </trkpt>
      <trkpt lat="43.87755" lon="0.9979">
        <ele>153.132809</ele>
        <time>2023-01-01T12:32:25.480Z</time>
      </trkpt>
      <trkpt lat="43.8776" lon="0.99775">
        <ele>153.046014</ele>
        <time>2023-01-01T12:32:27.498Z</time>
      </trkpt>
      <trkpt lat="43.87764" lon="0.9976">
        <ele>152.950679</ele>
        <time>2023-01-01T12:32:29.505Z</time>
      </trkpt>
      <trkpt lat="43.87768" lon="0.99744">
        <ele>152.853779</ele>
        <time>2023-01-01T12:32:31.493Z</time>
      </trkpt>
      <trkpt lat="43.87774" lon="0.99728">
        <ele>152.749444</ele>
        <time>2023-01-01T12:32:33.498Z</time>
      </trkpt>
      <trkpt lat="43.8778" lon="0.99713">
        <ele>152.648075</ele>
        <time>2023-01-01T12:32:35.502Z</time>
      </trkpt>
      <trkpt lat="43.87784" lon="0.99696">
        <ele>152.546999</ele>
        <time>2023-01-01T12:32:37.502Z</time>
      </trkpt>
      <trkpt lat="43.87789" lon="0.99678">
        <ele>152.433637</ele>
        <time>2023-01-01T12:32:39.502Z</time>
      </trkpt>
      <trkpt lat="43.87795" lon="0.9966">
        <ele>152.317751</ele>
        <time>2023-01-01T12:32:41.488Z</time>
      </trkpt>
      <trkpt lat="43.87801" lon="0.99642">
        <ele>152.200839</ele>
        <time>2023-01-01T12:32:43.488Z</time>
      </trkpt>
      <trkpt lat="43.87807" lon="0.99625">
        <ele>152.090919</ele>
        <time>2023-01-01T12:32:45.501Z</time>
      </trkpt>
      <trkpt lat="43.87813" lon="0.99608">
        <ele>151.98448</ele>
        <time>2023-01-01T12:32:47.498Z</time>
      </trkpt>
      <trkpt lat="43.87819" lon="0.99592">
        <ele>151.878857</ele>
        <time>2023-01-01T12:32:49.503Z</time>
      </trkpt>
      <trkpt lat="43.87824" lon="0.99576">
        <ele>151.779288</ele>
        <time>2023-01-01T12:32:51.501Z</time>
      </trkpt>
      <trkpt lat="43.87829" lon="0.99562">
        <ele>151.683478</ele>
        <time>2023-01-01T12:32:53.490Z</time>
      </trkpt>
      <trkpt lat="43.87834" lon="0.99547">
        <ele>151.639582</ele>
        <time>2023-01-01T12:32:55.502Z</time>
      </trkpt>
      <trkpt lat="43.87839" lon="0.99532">
        <ele>152.016129</ele>
        <time>2023-01-01T12:32:57.499Z</time>
      </trkpt>
      <trkpt lat="43.87844" lon="0.99518">
        <ele>152.37045</ele>
        <time>2023-01-01T12:32:59.495Z</time>
      </trkpt>
      <trkpt lat="43.87849" lon="0.99505">
        <ele>152.695931</ele>
        <time>2023-01-01T12:33:01.498Z</time>
      </trkpt>
      <trkpt lat="43.87854" lon="0.99491">
        <ele>153.024025</ele>
        <time>2023-01-01T12:33:03.502Z</time>
      </trkpt>
      <trkpt lat="43.87858" lon="0.99479">
        <ele>153.326486</ele>
        <time>2023-01-01T12:33:05.472Z</time>
      </trkpt>
      <trkpt lat="43.87862" lon="0.99467">
        <ele>153.62902</ele>
        <time>2023-01-01T12:33:07.499Z</time>
      </trkpt>
      <trkpt lat="43.87867" lon="0.99454">
        <ele>153.965326</ele>
        <time>2023-01-01T12:33:09.500Z</time>
      </trkpt>
      <trkpt lat="43.87871" lon="0.9944">
        <ele>154.304124</ele>
        <time>2023-01-01T12:33:11.503Z</time>
      </trkpt>
      <trkpt lat="43.87875" lon="0.99427">
        <ele>154.629473</ele>
        <time>2023-01-01T12:33:13.505Z</time>
      </trkpt>
      <trkpt lat="43.8788" lon="0.99413">
        <ele>154.958189</ele>
        <time>2023-01-01T12:33:15.499Z</time>
      </trkpt>
      <trkpt lat="43.87885" lon="0.994">
        <ele>155.292297</ele>
        <time>2023-01-01T12:33:17.493Z</time>
      </trkpt>
      <trkpt lat="43.87889" lon="0.99388">
        <ele>155.602825</ele>
        <time>2023-01-01T12:33:19.499Z</time>
      </trkpt>
      <trkpt lat="43.87894" lon="0.99375">
        <ele>155.926151</ele>
        <time>2023-01-01T12:33:21.503Z</time>
      </trkpt>
      <trkpt lat="43.87897" lon="0.99362">
        <ele>156.225367</ele>
        <time>2023-01-01T12:33:23.502Z</time>
      </trkpt>
      <trkpt lat="43.87902" lon="0.9935">
        <ele>156.539467</ele>
        <time>2023-01-01T12:33:25.503Z</time>
      </trkpt>
      <trkpt lat="43.87908" lon="0.99333">
        <ele>156.956434</ele>
        <time>2023-01-01T12:33:28.485Z</time>
      </trkpt>
      <trkpt lat="43.87912" lon="0.99321">
        <ele>157.166907</ele>
        <time>2023-01-01T12:33:30.496Z</time>
      </trkpt>
      <trkpt lat="43.87916" lon="0.9931">
        <ele>157.011472</ele>
        <time>2023-01-01T12:33:32.476Z</time>
      </trkpt>
      <trkpt lat="43.87922" lon="0.99293">
        <ele>156.788369</ele>
        <time>2023-01-01T12:33:35.472Z</time>
      </trkpt>
      <trkpt lat="43.87928" lon="0.99277">
        <ele>156.567689</ele>
        <time>2023-01-01T12:33:38.503Z</time>
      </trkpt>
      <trkpt lat="43.87933" lon="0.99262">
        <ele>156.368721</ele>
        <time>2023-01-01T12:33:41.490Z</time>
      </trkpt>
      <trkpt lat="43.87937" lon="0.99246">
        <ele>156.164833</ele>
        <time>2023-01-01T12:33:44.493Z</time>
      </trkpt>
      <trkpt lat="43.87942" lon="0.99232">
        <ele>155.978825</ele>
        <time>2023-01-01T12:33:47.501Z</time>
      </trkpt>
      <trkpt lat="43.87946" lon="0.99219">
        <ele>155.817025</ele>
        <time>2023-01-01T12:33:50.493Z</time>
      </trkpt>
      <trkpt lat="43.8795" lon="0.99208">
        <ele>155.663493</ele>
        <time>2023-01-01T12:33:53.496Z</time>
      </trkpt>
      <trkpt lat="43.87955" lon="0.99197">
        <ele>155.510945</ele>
        <time>2023-01-01T12:33:56.502Z</time>
      </trkpt>
      <trkpt lat="43.87959" lon="0.99185">
        <ele>155.356886</ele>
        <time>2023-01-01T12:33:59.501Z</time>
      </trkpt>
      <trkpt lat="43.87963" lon="0.99172">
        <ele>155.18849</ele>
        <time>2023-01-01T12:34:02.496Z</time>
      </trkpt>
      <trkpt lat="43.87967" lon="0.9916">
        <ele>155.02869</ele>
        <time>2023-01-01T12:34:05.504Z</time>
      </trkpt>
      <trkpt lat="43.87973" lon="0.99148">
        <ele>154.851448</ele>
        <time>2023-01-01T12:34:09.480Z</time>
      </trkpt>
      <trkpt lat="43.8798" lon="0.99137">
        <ele>154.671533</ele>
        <time>2023-01-01T12:34:14.482Z</time>
      </trkpt>
      <trkpt lat="43.87987" lon="0.99126">
        <ele>154.497393</ele>
        <time>2023-01-01T12:34:18.502Z</time>
      </trkpt>
      <trkpt lat="43.87992" lon="0.99113">
        <ele>154.321839</ele>
        <time>2023-01-01T12:34:21.486Z</time>
      </trkpt>
      <trkpt lat="43.87992" lon="0.99099">
        <ele>154.284844</ele>
        <time>2023-01-01T12:34:24.482Z</time>
      </trkpt>
      <trkpt lat="43.87994" lon="0.99085">
        <ele>154.519518</ele>
        <time>2023-01-01T12:34:28.475Z</time>
      </trkpt>
      <trkpt lat="43.87999" lon="0.99074">
        <ele>154.757662</ele>
        <time>2023-01-01T12:34:32.502Z</time>
      </trkpt>
      <trkpt lat="43.88004" lon="0.99063">
        <ele>154.978563</ele>
        <time>2023-01-01T12:34:36.475Z</time>
      </trkpt>
      <trkpt lat="43.8801" lon="0.99053">
        <ele>155.203861</ele>
        <time>2023-01-01T12:34:39.500Z</time>
      </trkpt>
      <trkpt lat="43.88018" lon="0.9904">
        <ele>155.510788</ele>
        <time>2023-01-01T12:34:42.492Z</time>
      </trkpt>
      <trkpt lat="43.88025" lon="0.99031">
        <ele>155.733068</ele>
        <time>2023-01-01T12:34:44.485Z</time>
      </trkpt>
      <trkpt lat="43.88035" lon="0.99019">
        <ele>156.048986</ele>
        <time>2023-01-01T12:34:47.495Z</time>
      </trkpt>
      <trkpt lat="43.88046" lon="0.9901">
        <ele>156.356008</ele>
        <time>2023-01-01T12:34:50.482Z</time>
      </trkpt>
      <trkpt lat="43.88056" lon="0.99005">
        <ele>156.626458</ele>
        <time>2023-01-01T12:34:53.475Z</time>
      </trkpt>
      <trkpt lat="43.88066" lon="0.98997">
        <ele>156.89752</ele>
        <time>2023-01-01T12:34:57.492Z</time>
      </trkpt>
      <trkpt lat="43.88075" lon="0.9899">
        <ele>157.151954</ele>
        <time>2023-01-01T12:35:02.487Z</time>
      </trkpt>
      <trkpt lat="43.88084" lon="0.98984">
        <ele>157.385572</ele>
        <time>2023-01-01T12:35:06.497Z</time>
      </trkpt>
      <trkpt lat="43.88093" lon="0.98979">
        <ele>157.618338</ele>
        <time>2023-01-01T12:35:10.501Z</time>
      </trkpt>
      <trkpt lat="43.88102" lon="0.98975">
        <ele>157.847625</ele>
        <time>2023-01-01T12:35:14.489Z</time>
      </trkpt>
      <trkpt lat="43.88112" lon="0.98971">
        <ele>158.100521</ele>
        <time>2023-01-01T12:35:18.494Z</time>
      </trkpt>
      <trkpt lat="43.88121" lon="0.98966">
        <ele>158.34465</ele>
        <time>2023-01-01T12:35:23.491Z</time>
      </trkpt>
      <trkpt lat="43.8813" lon="0.98961">
        <ele>158.580329</ele>
        <time>2023-01-01T12:35:28.468Z</time>
      </trkpt>
      <trkpt lat="43.88139" lon="0.98955">
        <ele>158.893978</ele>
        <time>2023-01-01T12:35:33.493Z</time>
      </trkpt>
      <trkpt lat="43.88149" lon="0.9895">
        <ele>159.226417</ele>
        <time>2023-01-01T12:35:38.485Z</time>
      </trkpt>
      <trkpt lat="43.88159" lon="0.98945">
        <ele>159.538349</ele>
        <time>2023-01-01T12:35:44.476Z</time>
      </trkpt>
      <trkpt lat="43.88168" lon="0.98939">
        <ele>159.837973</ele>
        <time>2023-01-01T12:35:49.472Z</time>
      </trkpt>
      <trkpt lat="43.88176" lon="0.98933">
        <ele>160.135043</ele>
        <time>2023-01-01T12:35:54.495Z</time>
      </trkpt>
      <trkpt lat="43.88184" lon="0.98928">
        <ele>160.411922</ele>
        <time>2023-01-01T12:35:59.472Z</time>
      </trkpt>
      <trkpt lat="43.88193" lon="0.98925">
        <ele>160.696237</ele>
        <time>2023-01-01T12:36:05.484Z</time>
      </trkpt>
      <trkpt lat="43.88203" lon="0.98922">
        <ele>161.002982</ele>
        <time>2023-01-01T12:36:10.479Z</time>
      </trkpt>
      <trkpt lat="43.88213" lon="0.98918">
        <ele>161.310304</ele>
        <time>2023-01-01T12:36:15.478Z</time>
      </trkpt>
      <trkpt lat="43.88223" lon="0.98915">
        <ele>161.635986</ele>
        <time>2023-01-01T12:36:20.472Z</time>
      </trkpt>
      <trkpt lat="43.88232" lon="0.98911">
        <ele>161.926111</ele>
        <time>2023-01-01T12:36:26.475Z</time>
      </trkpt>
      <trkpt lat="43.88241" lon="0.98907">
        <ele>162.204208</ele>
        <time>2023-01-01T12:36:32.479Z</time>
      </trkpt>
      <trkpt lat="43.88248" lon="0.98899">
        <ele>162.491588</ele>
        <time>2023-01-01T12:36:38.478Z</time>
      </trkpt>
      <trkpt lat="43.88251" lon="0.98887">
        <ele>162.778742</ele>
        <time>2023-01-01T12:36:44.480Z</time>
      </trkpt>
      <trkpt lat="43.88253" lon="0.98872">
        <ele>163.106414</ele>
        <time>2023-01-01T12:36:50.482Z</time>
      </trkpt>
      <trkpt lat="43.88254" lon="0.9886">
        <ele>163.388104</ele>
        <time>2023-01-01T12:36:56.478Z</time>
      </trkpt>
      <trkpt lat="43.88254" lon="0.98858">
        <ele>163.429729</ele>
        <time>2023-01-01T12:37:07.208Z</time>
      </trkpt>
      <trkpt lat="43.88234" lon="0.98706">
        <ele>162.698804</ele>
        <time>2023-01-01T12:43:47.495Z</time>
      </trkpt>
      <trkpt lat="43.88237" lon="0.98694">
        <ele>162.559365</ele>
        <time>2023-01-01T12:44:00.475Z</time>
      </trkpt>
      <trkpt lat="43.88237" lon="0.9868">
        <ele>162.404385</ele>
        <time>2023-01-01T12:44:05.484Z</time>
      </trkpt>
      <trkpt lat="43.88236" lon="0.98666">
        <ele>162.241173</ele>
        <time>2023-01-01T12:44:09.496Z</time>
      </trkpt>
      <trkpt lat="43.88235" lon="0.98651">
        <ele>162.081117</ele>
        <time>2023-01-01T12:44:13.473Z</time>
      </trkpt>
      <trkpt lat="43.88232" lon="0.98637">
        <ele>161.915619</ele>
        <time>2023-01-01T12:44:18.495Z</time>
      </trkpt>
      <trkpt lat="43.88231" lon="0.98624">
        <ele>161.776502</ele>
        <time>2023-01-01T12:44:23.479Z</time>
      </trkpt>
      <trkpt lat="43.88231" lon="0.9861">
        <ele>161.618394</ele>
        <time>2023-01-01T12:44:27.476Z</time>
      </trkpt>
      <trkpt lat="43.88231" lon="0.98596">
        <ele>161.46121</ele>
        <time>2023-01-01T12:44:32.485Z</time>
      </trkpt>
      <trkpt lat="43.8823" lon="0.98581">
        <ele>161.305552</ele>
        <time>2023-01-01T12:44:37.501Z</time>
      </trkpt>
      <trkpt lat="43.8823" lon="0.98566">
        <ele>161.203168</ele>
        <time>2023-01-01T12:44:41.493Z</time>
      </trkpt>
      <trkpt lat="43.88229" lon="0.9855">
        <ele>161.090314</ele>
        <time>2023-01-01T12:44:45.473Z</time>
      </trkpt>
      <trkpt lat="43.88227" lon="0.98534">
        <ele>160.974066</ele>
        <time>2023-01-01T12:44:49.496Z</time>
      </trkpt>
      <trkpt lat="43.88227" lon="0.98521">
        <ele>160.884132</ele>
        <time>2023-01-01T12:44:52.497Z</time>
      </trkpt>
      <trkpt lat="43.88227" lon="0.98506">
        <ele>160.78318</ele>
        <time>2023-01-01T12:44:56.499Z</time>
      </trkpt>
      <trkpt lat="43.88227" lon="0.98491">
        <ele>160.676697</ele>
        <time>2023-01-01T12:45:00.500Z</time>
      </trkpt>
      <trkpt lat="43.88226" lon="0.98474">
        <ele>160.560369</ele>
        <time>2023-01-01T12:45:04.502Z</time>
      </trkpt>
      <trkpt lat="43.88226" lon="0.98461">
        <ele>160.471297</ele>
        <time>2023-01-01T12:45:07.511Z</time>
      </trkpt>
      <trkpt lat="43.88224" lon="0.98446">
        <ele>160.360377</ele>
        <time>2023-01-01T12:45:11.475Z</time>
      </trkpt>
      <trkpt lat="43.88224" lon="0.98431">
        <ele>160.258067</ele>
        <time>2023-01-01T12:45:15.478Z</time>
      </trkpt>
      <trkpt lat="43.88224" lon="0.98415">
        <ele>160.150231</ele>
        <time>2023-01-01T12:45:20.473Z</time>
      </trkpt>
      <trkpt lat="43.88224" lon="0.98402">
        <ele>160.056986</ele>
        <time>2023-01-01T12:45:24.488Z</time>
      </trkpt>
      <trkpt lat="43.88233" lon="0.98394">
        <ele>159.960222</ele>
        <time>2023-01-01T12:45:30.476Z</time>
      </trkpt>
      <trkpt lat="43.8824" lon="0.98385">
        <ele>159.868575</ele>
        <time>2023-01-01T12:45:37.478Z</time>
      </trkpt>
      <trkpt lat="43.88237" lon="0.98381">
        <ele>159.830104</ele>
        <time>2023-01-01T12:45:54.504Z</time>
      </trkpt>
      <trkpt lat="43.88196" lon="0.98376">
        <ele>160.060129</ele>
        <time>2023-01-01T13:16:31.493Z</time>
      </trkpt>
      <trkpt lat="43.88187" lon="0.98378">
        <ele>160.330403</ele>
        <time>2023-01-01T13:16:36.482Z</time>
      </trkpt>
      <trkpt lat="43.88177" lon="0.9838">
        <ele>160.625096</ele>
        <time>2023-01-01T13:16:41.499Z</time>
      </trkpt>
      <trkpt lat="43.88168" lon="0.98383">
        <ele>160.902773</ele>
        <time>2023-01-01T13:16:46.487Z</time>
      </trkpt>
      <trkpt lat="43.88158" lon="0.98386">
        <ele>161.212021</ele>
        <time>2023-01-01T13:16:51.498Z</time>
      </trkpt>
      <trkpt lat="43.88147" lon="0.98391">
        <ele>161.552913</ele>
        <time>2023-01-01T13:16:56.478Z</time>
      </trkpt>
      <trkpt lat="43.88137" lon="0.98393">
        <ele>161.833918</ele>
        <time>2023-01-01T13:17:00.491Z</time>
      </trkpt>
      <trkpt lat="43.88128" lon="0.98396">
        <ele>162.127836</ele>
        <time>2023-01-01T13:17:04.507Z</time>
      </trkpt>
      <trkpt lat="43.88117" lon="0.984">
        <ele>162.439108</ele>
        <time>2023-01-01T13:17:09.503Z</time>
      </trkpt>
      <trkpt lat="43.88107" lon="0.98402">
        <ele>162.765182</ele>
        <time>2023-01-01T13:17:13.487Z</time>
      </trkpt>
      <trkpt lat="43.88097" lon="0.98403">
        <ele>163.061423</ele>
        <time>2023-01-01T13:17:17.500Z</time>
      </trkpt>
      <trkpt lat="43.88086" lon="0.98402">
        <ele>163.366648</ele>
        <time>2023-01-01T13:17:22.497Z</time>
      </trkpt>
      <trkpt lat="43.88077" lon="0.98402">
        <ele>163.648006</ele>
        <time>2023-01-01T13:17:29.479Z</time>
      </trkpt>
      <trkpt lat="43.88066" lon="0.98397">
        <ele>163.974305</ele>
        <time>2023-01-01T13:17:34.491Z</time>
      </trkpt>
      <trkpt lat="43.88056" lon="0.98389">
        <ele>164.322942</ele>
        <time>2023-01-01T13:17:38.498Z</time>
      </trkpt>
      <trkpt lat="43.88047" lon="0.98382">
        <ele>164.616755</ele>
        <time>2023-01-01T13:17:41.499Z</time>
      </trkpt>
      <trkpt lat="43.88039" lon="0.98374">
        <ele>164.891612</ele>
        <time>2023-01-01T13:17:44.481Z</time>
      </trkpt>
      <trkpt lat="43.88031" lon="0.98365">
        <ele>164.676696</ele>
        <time>2023-01-01T13:17:47.503Z</time>
      </trkpt>
      <trkpt lat="43.88024" lon="0.98356">
        <ele>164.476412</ele>
        <time>2023-01-01T13:17:50.500Z</time>
      </trkpt>
      <trkpt lat="43.88016" lon="0.98346">
        <ele>164.236201</ele>
        <time>2023-01-01T13:17:54.500Z</time>
      </trkpt>
      <trkpt lat="43.88008" lon="0.98334">
        <ele>163.995905</ele>
        <time>2023-01-01T13:17:58.495Z</time>
      </trkpt>
      <trkpt lat="43.88" lon="0.98323">
        <ele>163.759897</ele>
        <time>2023-01-01T13:18:01.478Z</time>
      </trkpt>
      <trkpt lat="43.87992" lon="0.98311">
        <ele>163.50566</ele>
        <time>2023-01-01T13:18:04.497Z</time>
      </trkpt>
      <trkpt lat="43.87987" lon="0.983">
        <ele>163.307617</ele>
        <time>2023-01-01T13:18:06.500Z</time>
      </trkpt>
      <trkpt lat="43.8798" lon="0.98291">
        <ele>163.113118</ele>
        <time>2023-01-01T13:18:08.483Z</time>
      </trkpt>
      <trkpt lat="43.87973" lon="0.98282">
        <ele>162.910294</ele>
        <time>2023-01-01T13:18:10.500Z</time>
      </trkpt>
      <trkpt lat="43.87967" lon="0.98271">
        <ele>162.695438</ele>
        <time>2023-01-01T13:18:12.503Z</time>
      </trkpt>
      <trkpt lat="43.8796" lon="0.98259">
        <ele>162.469107</ele>
        <time>2023-01-01T13:18:14.498Z</time>
      </trkpt>
      <trkpt lat="43.87954" lon="0.98249">
        <ele>162.265766</ele>
        <time>2023-01-01T13:18:16.497Z</time>
      </trkpt>
      <trkpt lat="43.87947" lon="0.98238">
        <ele>162.037056</ele>
        <time>2023-01-01T13:18:18.501Z</time>
      </trkpt>
      <trkpt lat="43.8794" lon="0.98228">
        <ele>161.823067</ele>
        <time>2023-01-01T13:18:20.488Z</time>
      </trkpt>
      <trkpt lat="43.87933" lon="0.98216">
        <ele>161.597369</ele>
        <time>2023-01-01T13:18:22.501Z</time>
      </trkpt>
      <trkpt lat="43.87926" lon="0.98205">
        <ele>161.379053</ele>
        <time>2023-01-01T13:18:24.485Z</time>
      </trkpt>
      <trkpt lat="43.87919" lon="0.98194">
        <ele>161.144275</ele>
        <time>2023-01-01T13:18:26.504Z</time>
      </trkpt>
      <trkpt lat="43.87912" lon="0.98183">
        <ele>160.825387</ele>
        <time>2023-01-01T13:18:28.498Z</time>
      </trkpt>
      <trkpt lat="43.87904" lon="0.98171">
        <ele>160.477016</ele>
        <time>2023-01-01T13:18:30.502Z</time>
      </trkpt>
      <trkpt lat="43.87896" lon="0.98159">
        <ele>160.102832</ele>
        <time>2023-01-01T13:18:32.498Z</time>
      </trkpt>
      <trkpt lat="43.87888" lon="0.98147">
        <ele>159.738213</ele>
        <time>2023-01-01T13:18:34.479Z</time>
      </trkpt>
      <trkpt lat="43.87882" lon="0.98136">
        <ele>159.418569</ele>
        <time>2023-01-01T13:18:36.490Z</time>
      </trkpt>
      <trkpt lat="43.87875" lon="0.98125">
        <ele>159.092954</ele>
        <time>2023-01-01T13:18:38.482Z</time>
      </trkpt>
      <trkpt lat="43.8787" lon="0.98115">
        <ele>158.807926</ele>
        <time>2023-01-01T13:18:40.498Z</time>
      </trkpt>
      <trkpt lat="43.87862" lon="0.98102">
        <ele>158.43664</ele>
        <time>2023-01-01T13:18:43.502Z</time>
      </trkpt>
      <trkpt lat="43.87855" lon="0.98092">
        <ele>158.119641</ele>
        <time>2023-01-01T13:18:46.508Z</time>
      </trkpt>
      <trkpt lat="43.87847" lon="0.98078">
        <ele>157.724997</ele>
        <time>2023-01-01T13:18:49.503Z</time>
      </trkpt>
      <trkpt lat="43.87839" lon="0.98064">
        <ele>157.313994</ele>
        <time>2023-01-01T13:18:52.502Z</time>
      </trkpt>
      <trkpt lat="43.8783" lon="0.98049">
        <ele>156.877414</ele>
        <time>2023-01-01T13:18:55.501Z</time>
      </trkpt>
      <trkpt lat="43.87825" lon="0.98038">
        <ele>156.581443</ele>
        <time>2023-01-01T13:18:57.502Z</time>
      </trkpt>
      <trkpt lat="43.87818" lon="0.98028">
        <ele>156.287556</ele>
        <time>2023-01-01T13:18:59.502Z</time>
      </trkpt>
      <trkpt lat="43.87812" lon="0.98019">
        <ele>155.998143</ele>
        <time>2023-01-01T13:19:01.502Z</time>
      </trkpt>
      <trkpt lat="43.87805" lon="0.98007">
        <ele>155.657626</ele>
        <time>2023-01-01T13:19:03.501Z</time>
      </trkpt>
      <trkpt lat="43.87798" lon="0.97995">
        <ele>155.382105</ele>
        <time>2023-01-01T13:19:05.502Z</time>
      </trkpt>
      <trkpt lat="43.8779" lon="0.97982">
        <ele>155.170362</ele>
        <time>2023-01-01T13:19:07.499Z</time>
      </trkpt>
      <trkpt lat="43.87781" lon="0.97968">
        <ele>154.94182</ele>
        <time>2023-01-01T13:19:09.503Z</time>
      </trkpt>
      <trkpt lat="43.87772" lon="0.97952">
        <ele>154.698593</ele>
        <time>2023-01-01T13:19:11.498Z</time>
      </trkpt>
      <trkpt lat="43.87764" lon="0.97938">
        <ele>154.4669</ele>
        <time>2023-01-01T13:19:13.504Z</time>
      </trkpt>
      <trkpt lat="43.87755" lon="0.97925">
        <ele>154.243526</ele>
        <time>2023-01-01T13:19:15.496Z</time>
      </trkpt>
      <trkpt lat="43.87746" lon="0.97911">
        <ele>154.024032</ele>
        <time>2023-01-01T13:19:17.503Z</time>
      </trkpt>
      <trkpt lat="43.87739" lon="0.979">
        <ele>153.834465</ele>
        <time>2023-01-01T13:19:19.503Z</time>
      </trkpt>
      <trkpt lat="43.87731" lon="0.97887">
        <ele>153.627105</ele>
        <time>2023-01-01T13:19:21.502Z</time>
      </trkpt>
      <trkpt lat="43.87723" lon="0.97877">
        <ele>153.444664</ele>
        <time>2023-01-01T13:19:23.479Z</time>
      </trkpt>
      <trkpt lat="43.87717" lon="0.97866">
        <ele>153.279307</ele>
        <time>2023-01-01T13:19:25.499Z</time>
      </trkpt>
      <trkpt lat="43.87709" lon="0.97852">
        <ele>153.051302</ele>
        <time>2023-01-01T13:19:28.498Z</time>
      </trkpt>
      <trkpt lat="43.87702" lon="0.97841">
        <ele>152.876218</ele>
        <time>2023-01-01T13:19:31.502Z</time>
      </trkpt>
      <trkpt lat="43.87696" lon="0.97832">
        <ele>152.720579</ele>
        <time>2023-01-01T13:19:35.500Z</time>
      </trkpt>
      <trkpt lat="43.87688" lon="0.97822">
        <ele>152.53895</ele>
        <time>2023-01-01T13:19:39.476Z</time>
      </trkpt>
      <trkpt lat="43.87682" lon="0.9781">
        <ele>152.508218</ele>
        <time>2023-01-01T13:19:43.491Z</time>
      </trkpt>
      <trkpt lat="43.87674" lon="0.97799">
        <ele>152.861944</ele>
        <time>2023-01-01T13:19:47.490Z</time>
      </trkpt>
      <trkpt lat="43.87668" lon="0.97787">
        <ele>153.22427</ele>
        <time>2023-01-01T13:19:51.478Z</time>
      </trkpt>
      <trkpt lat="43.87661" lon="0.97775">
        <ele>153.577485</ele>
        <time>2023-01-01T13:19:55.501Z</time>
      </trkpt>
      <trkpt lat="43.87654" lon="0.97764">
        <ele>153.932777</ele>
        <time>2023-01-01T13:19:59.501Z</time>
      </trkpt>
      <trkpt lat="43.87647" lon="0.97751">
        <ele>154.309449</ele>
        <time>2023-01-01T13:20:03.498Z</time>
      </trkpt>
      <trkpt lat="43.87639" lon="0.9774">
        <ele>154.676798</ele>
        <time>2023-01-01T13:20:07.491Z</time>
      </trkpt>
      <trkpt lat="43.87632" lon="0.97727">
        <ele>155.047018</ele>
        <time>2023-01-01T13:20:11.497Z</time>
      </trkpt>
      <trkpt lat="43.87625" lon="0.97715">
        <ele>155.435809</ele>
        <time>2023-01-01T13:20:15.505Z</time>
      </trkpt>
      <trkpt lat="43.87617" lon="0.97703">
        <ele>155.812806</ele>
        <time>2023-01-01T13:20:19.497Z</time>
      </trkpt>
      <trkpt lat="43.8761" lon="0.97692">
        <ele>156.154165</ele>
        <time>2023-01-01T13:20:23.499Z</time>
      </trkpt>
      <trkpt lat="43.87603" lon="0.9768">
        <ele>156.527593</ele>
        <time>2023-01-01T13:20:27.500Z</time>
      </trkpt>
      <trkpt lat="43.87595" lon="0.97668">
        <ele>156.907645</ele>
        <time>2023-01-01T13:20:31.503Z</time>
      </trkpt>
      <trkpt lat="43.87587" lon="0.97656">
        <ele>157.297749</ele>
        <time>2023-01-01T13:20:35.497Z</time>
      </trkpt>
      <trkpt lat="43.8758" lon="0.97642">
        <ele>157.688917</ele>
        <time>2023-01-01T13:20:39.502Z</time>
      </trkpt>
      <trkpt lat="43.87574" lon="0.97633">
        <ele>157.986949</ele>
        <time>2023-01-01T13:20:42.500Z</time>
      </trkpt>
      <trkpt lat="43.87566" lon="0.97621">
        <ele>158.313919</ele>
        <time>2023-01-01T13:20:46.501Z</time>
      </trkpt>
      <trkpt lat="43.87558" lon="0.9761">
        <ele>158.380754</ele>
        <time>2023-01-01T13:20:50.499Z</time>
      </trkpt>
      <trkpt lat="43.87551" lon="0.97598">
        <ele>158.446782</ele>
        <time>2023-01-01T13:20:54.504Z</time>
      </trkpt>
      <trkpt lat="43.87544" lon="0.97586">
        <ele>158.512293</ele>
        <time>2023-01-01T13:20:58.502Z</time>
      </trkpt>
      <trkpt lat="43.87536" lon="0.97575">
        <ele>158.576574</ele>
        <time>2023-01-01T13:21:02.500Z</time>
      </trkpt>
      <trkpt lat="43.87528" lon="0.97563">
        <ele>158.648772</ele>
        <time>2023-01-01T13:21:06.498Z</time>
      </trkpt>
      <trkpt lat="43.87521" lon="0.97553">
        <ele>158.706333</ele>
        <time>2023-01-01T13:21:09.499Z</time>
      </trkpt>
      <trkpt lat="43.87514" lon="0.97544">
        <ele>158.762889</ele>
        <time>2023-01-01T13:21:12.496Z</time>
      </trkpt>
      <trkpt lat="43.87507" lon="0.97533">
        <ele>158.824257</ele>
        <time>2023-01-01T13:21:15.506Z</time>
      </trkpt>
      <trkpt lat="43.875" lon="0.97521">
        <ele>158.890816</ele>
        <time>2023-01-01T13:21:18.500Z</time>
      </trkpt>
      <trkpt lat="43.87493" lon="0.9751">
        <ele>158.952697</ele>
        <time>2023-01-01T13:21:21.499Z</time>
      </trkpt>
      <trkpt lat="43.87486" lon="0.97498">
        <ele>159.018096</ele>
        <time>2023-01-01T13:21:24.498Z</time>
      </trkpt>
      <trkpt lat="43.87479" lon="0.97486">
        <ele>159.084604</ele>
        <time>2023-01-01T13:21:27.478Z</time>
      </trkpt>
      <trkpt lat="43.87471" lon="0.97473">
        <ele>159.154301</ele>
        <time>2023-01-01T13:21:30.500Z</time>
      </trkpt>
      <trkpt lat="43.87464" lon="0.97461">
        <ele>159.223677</ele>
        <time>2023-01-01T13:21:33.505Z</time>
      </trkpt>
      <trkpt lat="43.87456" lon="0.97447">
        <ele>159.296244</ele>
        <time>2023-01-01T13:21:36.500Z</time>
      </trkpt>
      <trkpt lat="43.87448" lon="0.97433">
        <ele>159.347426</ele>
        <time>2023-01-01T13:21:39.503Z</time>
      </trkpt>
      <trkpt lat="43.87441" lon="0.9742">
        <ele>159.257178</ele>
        <time>2023-01-01T13:21:42.499Z</time>
      </trkpt>
      <trkpt lat="43.87434" lon="0.97407">
        <ele>159.164515</ele>
        <time>2023-01-01T13:21:45.501Z</time>
      </trkpt>
      <trkpt lat="43.87426" lon="0.97394">
        <ele>159.070089</ele>
        <time>2023-01-01T13:21:48.498Z</time>
      </trkpt>
      <trkpt lat="43.87418" lon="0.9738">
        <ele>158.975754</ele>
        <time>2023-01-01T13:21:51.500Z</time>
      </trkpt>
      <trkpt lat="43.87412" lon="0.97366">
        <ele>158.884862</ele>
        <time>2023-01-01T13:21:54.480Z</time>
      </trkpt>
      <trkpt lat="43.87406" lon="0.97352">
        <ele>158.794372</ele>
        <time>2023-01-01T13:21:57.500Z</time>
      </trkpt>
      <trkpt lat="43.87399" lon="0.9734">
        <ele>158.710825</ele>
        <time>2023-01-01T13:22:00.499Z</time>
      </trkpt>
      <trkpt lat="43.87392" lon="0.97329">
        <ele>158.626776</ele>
        <time>2023-01-01T13:22:03.503Z</time>
      </trkpt>
      <trkpt lat="43.87385" lon="0.97315">
        <ele>158.535528</ele>
        <time>2023-01-01T13:22:06.487Z</time>
      </trkpt>
      <trkpt lat="43.87379" lon="0.97303">
        <ele>158.452821</ele>
        <time>2023-01-01T13:22:09.501Z</time>
      </trkpt>
      <trkpt lat="43.87375" lon="0.97291">
        <ele>158.379655</ele>
        <time>2023-01-01T13:22:12.491Z</time>
      </trkpt>
      <trkpt lat="43.87369" lon="0.97276">
        <ele>158.28688</ele>
        <time>2023-01-01T13:22:16.501Z</time>
      </trkpt>
      <trkpt lat="43.87365" lon="0.97263">
        <ele>158.208423</ele>
        <time>2023-01-01T13:22:19.492Z</time>
      </trkpt>
      <trkpt lat="43.87361" lon="0.97249">
        <ele>158.127745</ele>
        <time>2023-01-01T13:22:22.502Z</time>
      </trkpt>
      <trkpt lat="43.87357" lon="0.97236">
        <ele>158.049597</ele>
        <time>2023-01-01T13:22:25.501Z</time>
      </trkpt>
      <trkpt lat="43.87353" lon="0.97223">
        <ele>157.99781</ele>
        <time>2023-01-01T13:22:28.501Z</time>
      </trkpt>
      <trkpt lat="43.87348" lon="0.9721">
        <ele>158.057135</ele>
        <time>2023-01-01T13:22:31.503Z</time>
      </trkpt>
      <trkpt lat="43.87344" lon="0.97196">
        <ele>158.11607</ele>
        <time>2023-01-01T13:22:34.503Z</time>
      </trkpt>
      <trkpt lat="43.87341" lon="0.97181">
        <ele>158.177055</ele>
        <time>2023-01-01T13:22:37.502Z</time>
      </trkpt>
      <trkpt lat="43.87336" lon="0.97166">
        <ele>158.24142</ele>
        <time>2023-01-01T13:22:40.500Z</time>
      </trkpt>
      <trkpt lat="43.87331" lon="0.97151">
        <ele>158.307079</ele>
        <time>2023-01-01T13:22:43.477Z</time>
      </trkpt>
      <trkpt lat="43.87325" lon="0.97137">
        <ele>158.371861</ele>
        <time>2023-01-01T13:22:46.505Z</time>
      </trkpt>
      <trkpt lat="43.8732" lon="0.97122">
        <ele>158.438932</ele>
        <time>2023-01-01T13:22:49.499Z</time>
      </trkpt>
      <trkpt lat="43.87314" lon="0.97107">
        <ele>158.508422</ele>
        <time>2023-01-01T13:22:52.500Z</time>
      </trkpt>
      <trkpt lat="43.87308" lon="0.97091">
        <ele>158.576513</ele>
        <time>2023-01-01T13:22:55.507Z</time>
      </trkpt>
      <trkpt lat="43.87302" lon="0.97076">
        <ele>158.646453</ele>
        <time>2023-01-01T13:22:58.479Z</time>
      </trkpt>
      <trkpt lat="43.87296" lon="0.97059">
        <ele>158.719968</ele>
        <time>2023-01-01T13:23:01.502Z</time>
      </trkpt>
      <trkpt lat="43.87291" lon="0.97047">
        <ele>158.773414</ele>
        <time>2023-01-01T13:23:03.502Z</time>
      </trkpt>
      <trkpt lat="43.87287" lon="0.97036">
        <ele>158.826598</ele>
        <time>2023-01-01T13:23:05.487Z</time>
      </trkpt>
      <trkpt lat="43.87282" lon="0.97024">
        <ele>158.88074</ele>
        <time>2023-01-01T13:23:07.498Z</time>
      </trkpt>
      <trkpt lat="43.87277" lon="0.97011">
        <ele>158.936454</ele>
        <time>2023-01-01T13:23:09.500Z</time>
      </trkpt>
      <trkpt lat="43.87272" lon="0.96999">
        <ele>158.979297</ele>
        <time>2023-01-01T13:23:11.499Z</time>
      </trkpt>
      <trkpt lat="43.87267" lon="0.96987">
        <ele>158.993223</ele>
        <time>2023-01-01T13:23:13.497Z</time>
      </trkpt>
      <trkpt lat="43.87261" lon="0.96974">
        <ele>159.007091</ele>
        <time>2023-01-01T13:23:15.476Z</time>
      </trkpt>
      <trkpt lat="43.87256" lon="0.96961">
        <ele>159.021177</ele>
        <time>2023-01-01T13:23:17.500Z</time>
      </trkpt>
      <trkpt lat="43.87252" lon="0.96948">
        <ele>159.034816</ele>
        <time>2023-01-01T13:23:19.500Z</time>
      </trkpt>
      <trkpt lat="43.87246" lon="0.96935">
        <ele>159.049135</ele>
        <time>2023-01-01T13:23:21.506Z</time>
      </trkpt>
      <trkpt lat="43.87241" lon="0.96923">
        <ele>159.063074</ele>
        <time>2023-01-01T13:23:23.517Z</time>
      </trkpt>
      <trkpt lat="43.87236" lon="0.96909">
        <ele>159.077767</ele>
        <time>2023-01-01T13:23:25.508Z</time>
      </trkpt>
      <trkpt lat="43.8723" lon="0.96895">
        <ele>159.093485</ele>
        <time>2023-01-01T13:23:27.502Z</time>
      </trkpt>
      <trkpt lat="43.87225" lon="0.9688">
        <ele>159.108499</ele>
        <time>2023-01-01T13:23:29.505Z</time>
      </trkpt>
      <trkpt lat="43.8722" lon="0.96866">
        <ele>159.123854</ele>
        <time>2023-01-01T13:23:31.501Z</time>
      </trkpt>
      <trkpt lat="43.87215" lon="0.96851">
        <ele>159.139367</ele>
        <time>2023-01-01T13:23:33.499Z</time>
      </trkpt>
      <trkpt lat="43.87211" lon="0.96837">
        <ele>159.153485</ele>
        <time>2023-01-01T13:23:35.504Z</time>
      </trkpt>
      <trkpt lat="43.87207" lon="0.96823">
        <ele>159.167829</ele>
        <time>2023-01-01T13:23:37.490Z</time>
      </trkpt>
      <trkpt lat="43.87203" lon="0.9681">
        <ele>159.18177</ele>
        <time>2023-01-01T13:23:39.480Z</time>
      </trkpt>
      <trkpt lat="43.872" lon="0.96796">
        <ele>159.195255</ele>
        <time>2023-01-01T13:23:41.499Z</time>
      </trkpt>
      <trkpt lat="43.87196" lon="0.96784">
        <ele>159.208553</ele>
        <time>2023-01-01T13:23:43.478Z</time>
      </trkpt>
      <trkpt lat="43.87191" lon="0.96771">
        <ele>158.974299</ele>
        <time>2023-01-01T13:23:45.504Z</time>
      </trkpt>
      <trkpt lat="43.87188" lon="0.96758">
        <ele>158.628957</ele>
        <time>2023-01-01T13:23:47.505Z</time>
      </trkpt>
      <trkpt lat="43.87184" lon="0.96744">
        <ele>158.252651</ele>
        <time>2023-01-01T13:23:49.499Z</time>
      </trkpt>
      <trkpt lat="43.8718" lon="0.9673">
        <ele>157.875021</ele>
        <time>2023-01-01T13:23:51.501Z</time>
      </trkpt>
      <trkpt lat="43.87176" lon="0.96716">
        <ele>157.485351</ele>
        <time>2023-01-01T13:23:53.474Z</time>
      </trkpt>
      <trkpt lat="43.87172" lon="0.96701">
        <ele>157.067634</ele>
        <time>2023-01-01T13:23:55.477Z</time>
      </trkpt>
      <trkpt lat="43.87167" lon="0.96685">
        <ele>156.652165</ele>
        <time>2023-01-01T13:23:57.497Z</time>
      </trkpt>
      <trkpt lat="43.87162" lon="0.9667">
        <ele>156.22485</ele>
        <time>2023-01-01T13:23:59.496Z</time>
      </trkpt>
      <trkpt lat="43.87158" lon="0.96654">
        <ele>155.796397</ele>
        <time>2023-01-01T13:24:01.478Z</time>
      </trkpt>
      <trkpt lat="43.87154" lon="0.96638">
        <ele>155.352239</ele>
        <time>2023-01-01T13:24:03.497Z</time>
      </trkpt>
      <trkpt lat="43.87149" lon="0.96621">
        <ele>154.894735</ele>
        <time>2023-01-01T13:24:05.500Z</time>
      </trkpt>
      <trkpt lat="43.87144" lon="0.96604">
        <ele>154.427515</ele>
        <time>2023-01-01T13:24:07.495Z</time>
      </trkpt>
      <trkpt lat="43.87138" lon="0.96587">
        <ele>153.956589</ele>
        <time>2023-01-01T13:24:09.500Z</time>
      </trkpt>
      <trkpt lat="43.87133" lon="0.96569">
        <ele>153.479627</ele>
        <time>2023-01-01T13:24:11.500Z</time>
      </trkpt>
      <trkpt lat="43.87127" lon="0.96553">
        <ele>153.001452</ele>
        <time>2023-01-01T13:24:13.490Z</time>
      </trkpt>
      <trkpt lat="43.8712" lon="0.96535">
        <ele>152.779975</ele>
        <time>2023-01-01T13:24:15.512Z</time>
      </trkpt>
      <trkpt lat="43.87113" lon="0.96518">
        <ele>152.621816</ele>
        <time>2023-01-01T13:24:17.504Z</time>
      </trkpt>
      <trkpt lat="43.87106" lon="0.96501">
        <ele>152.468249</ele>
        <time>2023-01-01T13:24:19.507Z</time>
      </trkpt>
      <trkpt lat="43.87098" lon="0.96483">
        <ele>152.308955</ele>
        <time>2023-01-01T13:24:21.502Z</time>
      </trkpt>
      <trkpt lat="43.8709" lon="0.96467">
        <ele>152.157298</ele>
        <time>2023-01-01T13:24:23.506Z</time>
      </trkpt>
      <trkpt lat="43.87083" lon="0.96451">
        <ele>152.010774</ele>
        <time>2023-01-01T13:24:25.506Z</time>
      </trkpt>
      <trkpt lat="43.87076" lon="0.96437">
        <ele>151.874681</ele>
        <time>2023-01-01T13:24:27.502Z</time>
      </trkpt>
      <trkpt lat="43.87069" lon="0.96423">
        <ele>151.745802</ele>
        <time>2023-01-01T13:24:29.511Z</time>
      </trkpt>
      <trkpt lat="43.87063" lon="0.9641">
        <ele>151.625831</ele>
        <time>2023-01-01T13:24:31.501Z</time>
      </trkpt>
      <trkpt lat="43.87057" lon="0.96398">
        <ele>151.512827</ele>
        <time>2023-01-01T13:24:33.504Z</time>
      </trkpt>
      <trkpt lat="43.87051" lon="0.96387">
        <ele>151.406769</ele>
        <time>2023-01-01T13:24:35.494Z</time>
      </trkpt>
      <trkpt lat="43.87045" lon="0.96376">
        <ele>151.299446</ele>
        <time>2023-01-01T13:24:37.504Z</time>
      </trkpt>
      <trkpt lat="43.8704" lon="0.96366">
        <ele>151.199056</ele>
        <time>2023-01-01T13:24:39.501Z</time>
      </trkpt>
      <trkpt lat="43.87032" lon="0.96351">
        <ele>151.056858</ele>
        <time>2023-01-01T13:24:42.497Z</time>
      </trkpt>
      <trkpt lat="43.87023" lon="0.96339">
        <ele>151.004064</ele>
        <time>2023-01-01T13:24:45.489Z</time>
      </trkpt>
      <trkpt lat="43.87014" lon="0.96327">
        <ele>151.175344</ele>
        <time>2023-01-01T13:24:48.501Z</time>
      </trkpt>
      <trkpt lat="43.87005" lon="0.96315">
        <ele>151.341355</ele>
        <time>2023-01-01T13:24:51.500Z</time>
      </trkpt>
      <trkpt lat="43.86995" lon="0.96304">
        <ele>151.508921</ele>
        <time>2023-01-01T13:24:54.505Z</time>
      </trkpt>
      <trkpt lat="43.86985" lon="0.96293">
        <ele>151.678571</ele>
        <time>2023-01-01T13:24:57.499Z</time>
      </trkpt>
      <trkpt lat="43.86975" lon="0.96282">
        <ele>151.851533</ele>
        <time>2023-01-01T13:25:00.500Z</time>
      </trkpt>
      <trkpt lat="43.86965" lon="0.96271">
        <ele>152.025288</ele>
        <time>2023-01-01T13:25:03.505Z</time>
      </trkpt>
      <trkpt lat="43.86955" lon="0.96261">
        <ele>152.19433</ele>
        <time>2023-01-01T13:25:06.496Z</time>
      </trkpt>
      <trkpt lat="43.86948" lon="0.96253">
        <ele>152.317744</ele>
        <time>2023-01-01T13:25:08.506Z</time>
      </trkpt>
      <trkpt lat="43.8694" lon="0.96245">
        <ele>152.441748</ele>
        <time>2023-01-01T13:25:10.500Z</time>
      </trkpt>
      <trkpt lat="43.86933" lon="0.96237">
        <ele>152.575113</ele>
        <time>2023-01-01T13:25:12.501Z</time>
      </trkpt>
      <trkpt lat="43.86925" lon="0.96229">
        <ele>152.697601</ele>
        <time>2023-01-01T13:25:14.501Z</time>
      </trkpt>
      <trkpt lat="43.86918" lon="0.96222">
        <ele>152.82315</ele>
        <time>2023-01-01T13:25:16.505Z</time>
      </trkpt>
      <trkpt lat="43.8691" lon="0.96214">
        <ele>152.950608</ele>
        <time>2023-01-01T13:25:18.487Z</time>
      </trkpt>
      <trkpt lat="43.86902" lon="0.96205">
        <ele>153.08847</ele>
        <time>2023-01-01T13:25:20.501Z</time>
      </trkpt>
      <trkpt lat="43.86894" lon="0.96197">
        <ele>153.225039</ele>
        <time>2023-01-01T13:25:22.498Z</time>
      </trkpt>
      <trkpt lat="43.86886" lon="0.96188">
        <ele>153.366217</ele>
        <time>2023-01-01T13:25:24.500Z</time>
      </trkpt>
      <trkpt lat="43.86877" lon="0.96179">
        <ele>153.523285</ele>
        <time>2023-01-01T13:25:26.500Z</time>
      </trkpt>
      <trkpt lat="43.86869" lon="0.96171">
        <ele>153.687461</ele>
        <time>2023-01-01T13:25:28.492Z</time>
      </trkpt>
      <trkpt lat="43.8686" lon="0.96162">
        <ele>153.857365</ele>
        <time>2023-01-01T13:25:30.504Z</time>
      </trkpt>
      <trkpt lat="43.86852" lon="0.96153">
        <ele>154.023158</ele>
        <time>2023-01-01T13:25:32.504Z</time>
      </trkpt>
      <trkpt lat="43.86844" lon="0.96143">
        <ele>154.18724</ele>
        <time>2023-01-01T13:25:34.502Z</time>
      </trkpt>
      <trkpt lat="43.86835" lon="0.96135">
        <ele>154.352752</ele>
        <time>2023-01-01T13:25:36.480Z</time>
      </trkpt>
      <trkpt lat="43.86827" lon="0.96126">
        <ele>154.512278</ele>
        <time>2023-01-01T13:25:38.498Z</time>
      </trkpt>
      <trkpt lat="43.86819" lon="0.96117">
        <ele>154.668988</ele>
        <time>2023-01-01T13:25:40.497Z</time>
      </trkpt>
      <trkpt lat="43.86811" lon="0.96109">
        <ele>154.819013</ele>
        <time>2023-01-01T13:25:42.504Z</time>
      </trkpt>
      <trkpt lat="43.86801" lon="0.96098">
        <ele>155.024839</ele>
        <time>2023-01-01T13:25:45.502Z</time>
      </trkpt>
      <trkpt lat="43.86791" lon="0.96087">
        <ele>155.229069</ele>
        <time>2023-01-01T13:25:48.502Z</time>
      </trkpt>
      <trkpt lat="43.86783" lon="0.96079">
        <ele>155.375247</ele>
        <time>2023-01-01T13:25:50.500Z</time>
      </trkpt>
      <trkpt lat="43.86776" lon="0.9607">
        <ele>155.52691</ele>
        <time>2023-01-01T13:25:52.500Z</time>
      </trkpt>
      <trkpt lat="43.86769" lon="0.96061">
        <ele>155.681204</ele>
        <time>2023-01-01T13:25:54.474Z</time>
      </trkpt>
      <trkpt lat="43.86761" lon="0.96051">
        <ele>155.843999</ele>
        <time>2023-01-01T13:25:56.501Z</time>
      </trkpt>
      <trkpt lat="43.86754" lon="0.96039">
        <ele>156.013479</ele>
        <time>2023-01-01T13:25:58.501Z</time>
      </trkpt>
      <trkpt lat="43.86747" lon="0.96028">
        <ele>156.179389</ele>
        <time>2023-01-01T13:26:00.502Z</time>
      </trkpt>
      <trkpt lat="43.86741" lon="0.96017">
        <ele>156.148073</ele>
        <time>2023-01-01T13:26:02.480Z</time>
      </trkpt>
      <trkpt lat="43.86734" lon="0.96006">
        <ele>156.107635</ele>
        <time>2023-01-01T13:26:04.498Z</time>
      </trkpt>
      <trkpt lat="43.86728" lon="0.95995">
        <ele>156.06698</ele>
        <time>2023-01-01T13:26:06.501Z</time>
      </trkpt>
      <trkpt lat="43.86721" lon="0.95984">
        <ele>156.026758</ele>
        <time>2023-01-01T13:26:08.483Z</time>
      </trkpt>
      <trkpt lat="43.86715" lon="0.95973">
        <ele>155.987677</ele>
        <time>2023-01-01T13:26:10.497Z</time>
      </trkpt>
      <trkpt lat="43.86709" lon="0.95962">
        <ele>155.948673</ele>
        <time>2023-01-01T13:26:12.500Z</time>
      </trkpt>
      <trkpt lat="43.86702" lon="0.95951">
        <ele>155.909401</ele>
        <time>2023-01-01T13:26:14.475Z</time>
      </trkpt>
      <trkpt lat="43.86696" lon="0.95941">
        <ele>155.873031</ele>
        <time>2023-01-01T13:26:16.501Z</time>
      </trkpt>
      <trkpt lat="43.86692" lon="0.95929">
        <ele>155.835641</ele>
        <time>2023-01-01T13:26:18.481Z</time>
      </trkpt>
      <trkpt lat="43.86686" lon="0.95918">
        <ele>155.800016</ele>
        <time>2023-01-01T13:26:20.482Z</time>
      </trkpt>
      <trkpt lat="43.86681" lon="0.95903">
        <ele>155.751374</ele>
        <time>2023-01-01T13:26:23.501Z</time>
      </trkpt>
      <trkpt lat="43.86676" lon="0.95889">
        <ele>155.707365</ele>
        <time>2023-01-01T13:26:26.514Z</time>
      </trkpt>
      <trkpt lat="43.86671" lon="0.95875">
        <ele>155.665433</ele>
        <time>2023-01-01T13:26:29.501Z</time>
      </trkpt>
      <trkpt lat="43.86666" lon="0.95862">
        <ele>155.624615</ele>
        <time>2023-01-01T13:26:32.500Z</time>
      </trkpt>
      <trkpt lat="43.86661" lon="0.95849">
        <ele>155.581601</ele>
        <time>2023-01-01T13:26:35.501Z</time>
      </trkpt>
      <trkpt lat="43.86654" lon="0.95835">
        <ele>155.534786</ele>
        <time>2023-01-01T13:26:38.499Z</time>
      </trkpt>
      <trkpt lat="43.86648" lon="0.95819">
        <ele>155.474364</ele>
        <time>2023-01-01T13:26:41.501Z</time>
      </trkpt>
      <trkpt lat="43.86642" lon="0.95808">
        <ele>155.382452</ele>
        <time>2023-01-01T13:26:43.510Z</time>
      </trkpt>
      <trkpt lat="43.86636" lon="0.95797">
        <ele>155.283248</ele>
        <time>2023-01-01T13:26:45.503Z</time>
      </trkpt>
      <trkpt lat="43.86629" lon="0.95785">
        <ele>155.180583</ele>
        <time>2023-01-01T13:26:47.503Z</time>
      </trkpt>
      <trkpt lat="43.86622" lon="0.95774">
        <ele>155.075762</ele>
        <time>2023-01-01T13:26:49.500Z</time>
      </trkpt>
      <trkpt lat="43.86615" lon="0.95763">
        <ele>154.967645</ele>
        <time>2023-01-01T13:26:51.486Z</time>
      </trkpt>
      <trkpt lat="43.86608" lon="0.95751">
        <ele>154.858131</ele>
        <time>2023-01-01T13:26:53.505Z</time>
      </trkpt>
      <trkpt lat="43.86601" lon="0.95739">
        <ele>154.75127</ele>
        <time>2023-01-01T13:26:55.490Z</time>
      </trkpt>
      <trkpt lat="43.86594" lon="0.95728">
        <ele>154.650685</ele>
        <time>2023-01-01T13:26:57.498Z</time>
      </trkpt>
      <trkpt lat="43.86587" lon="0.95717">
        <ele>154.546605</ele>
        <time>2023-01-01T13:26:59.502Z</time>
      </trkpt>
      <trkpt lat="43.8658" lon="0.95706">
        <ele>154.444124</ele>
        <time>2023-01-01T13:27:01.504Z</time>
      </trkpt>
      <trkpt lat="43.86573" lon="0.95695">
        <ele>154.344922</ele>
        <time>2023-01-01T13:27:03.499Z</time>
      </trkpt>
      <trkpt lat="43.86566" lon="0.95686">
        <ele>154.2502</ele>
        <time>2023-01-01T13:27:05.499Z</time>
      </trkpt>
      <trkpt lat="43.86557" lon="0.95672">
        <ele>154.115721</ele>
        <time>2023-01-01T13:27:08.509Z</time>
      </trkpt>
      <trkpt lat="43.86548" lon="0.95658">
        <ele>153.985583</ele>
        <time>2023-01-01T13:27:11.501Z</time>
      </trkpt>
      <trkpt lat="43.86542" lon="0.95648">
        <ele>153.895217</ele>
        <time>2023-01-01T13:27:13.503Z</time>
      </trkpt>
      <trkpt lat="43.86536" lon="0.95638">
        <ele>153.799113</ele>
        <time>2023-01-01T13:27:15.505Z</time>
      </trkpt>
      <trkpt lat="43.86529" lon="0.95627">
        <ele>153.711856</ele>
        <time>2023-01-01T13:27:17.501Z</time>
      </trkpt>
      <trkpt lat="43.86523" lon="0.95617">
        <ele>153.650676</ele>
        <time>2023-01-01T13:27:19.503Z</time>
      </trkpt>
      <trkpt lat="43.86516" lon="0.95607">
        <ele>153.590322</ele>
        <time>2023-01-01T13:27:21.499Z</time>
      </trkpt>
      <trkpt lat="43.8651" lon="0.95597">
        <ele>153.529969</ele>
        <time>2023-01-01T13:27:23.500Z</time>
      </trkpt>
      <trkpt lat="43.86503" lon="0.95587">
        <ele>153.469036</ele>
        <time>2023-01-01T13:27:25.504Z</time>
      </trkpt>
      <trkpt lat="43.86497" lon="0.95576">
        <ele>153.407651</ele>
        <time>2023-01-01T13:27:27.504Z</time>
      </trkpt>
      <trkpt lat="43.86491" lon="0.95567">
        <ele>153.350499</ele>
        <time>2023-01-01T13:27:29.504Z</time>
      </trkpt>
      <trkpt lat="43.86485" lon="0.95557">
        <ele>153.289114</ele>
        <time>2023-01-01T13:27:31.502Z</time>
      </trkpt>
      <trkpt lat="43.86479" lon="0.95546">
        <ele>153.227898</ele>
        <time>2023-01-01T13:27:33.486Z</time>
      </trkpt>
      <trkpt lat="43.86473" lon="0.95535">
        <ele>153.165818</ele>
        <time>2023-01-01T13:27:35.499Z</time>
      </trkpt>
      <trkpt lat="43.86467" lon="0.95524">
        <ele>153.102746</ele>
        <time>2023-01-01T13:27:37.504Z</time>
      </trkpt>
      <trkpt lat="43.8646" lon="0.95512">
        <ele>153.034514</ele>
        <time>2023-01-01T13:27:39.509Z</time>
      </trkpt>
      <trkpt lat="43.86453" lon="0.955">
        <ele>152.964443</ele>
        <time>2023-01-01T13:27:41.502Z</time>
      </trkpt>
      <trkpt lat="43.86446" lon="0.95487">
        <ele>152.888494</ele>
        <time>2023-01-01T13:27:43.503Z</time>
      </trkpt>
      <trkpt lat="43.86439" lon="0.95473">
        <ele>152.81298</ele>
        <time>2023-01-01T13:27:45.503Z</time>
      </trkpt>
      <trkpt lat="43.86431" lon="0.95459">
        <ele>152.734901</ele>
        <time>2023-01-01T13:27:47.510Z</time>
      </trkpt>
      <trkpt lat="43.86424" lon="0.95445">
        <ele>152.658241</ele>
        <time>2023-01-01T13:27:49.505Z</time>
      </trkpt>
      <trkpt lat="43.86417" lon="0.95432">
        <ele>152.628073</ele>
        <time>2023-01-01T13:27:51.497Z</time>
      </trkpt>
      <trkpt lat="43.8641" lon="0.95419">
        <ele>152.693303</ele>
        <time>2023-01-01T13:27:53.503Z</time>
      </trkpt>
      <trkpt lat="43.86403" lon="0.95407">
        <ele>152.754575</ele>
        <time>2023-01-01T13:27:55.498Z</time>
      </trkpt>
      <trkpt lat="43.86396" lon="0.95395">
        <ele>152.814714</ele>
        <time>2023-01-01T13:27:57.498Z</time>
      </trkpt>
      <trkpt lat="43.86389" lon="0.95385">
        <ele>152.868378</ele>
        <time>2023-01-01T13:27:59.503Z</time>
      </trkpt>
      <trkpt lat="43.86382" lon="0.95375">
        <ele>152.921795</ele>
        <time>2023-01-01T13:28:01.488Z</time>
      </trkpt>
      <trkpt lat="43.86375" lon="0.95365">
        <ele>152.977273</ele>
        <time>2023-01-01T13:28:03.501Z</time>
      </trkpt>
      <trkpt lat="43.86367" lon="0.95355">
        <ele>153.036274</ele>
        <time>2023-01-01T13:28:05.498Z</time>
      </trkpt>
      <trkpt lat="43.86359" lon="0.95346">
        <ele>153.090999</ele>
        <time>2023-01-01T13:28:07.504Z</time>
      </trkpt>
      <trkpt lat="43.86351" lon="0.95336">
        <ele>153.149045</ele>
        <time>2023-01-01T13:28:09.493Z</time>
      </trkpt>
      <trkpt lat="43.86344" lon="0.95326">
        <ele>153.204967</ele>
        <time>2023-01-01T13:28:11.503Z</time>
      </trkpt>
      <trkpt lat="43.86336" lon="0.95316">
        <ele>153.26102</ele>
        <time>2023-01-01T13:28:13.505Z</time>
      </trkpt>
      <trkpt lat="43.86328" lon="0.95307">
        <ele>153.319727</ele>
        <time>2023-01-01T13:28:15.499Z</time>
      </trkpt>
      <trkpt lat="43.8632" lon="0.95298">
        <ele>153.374451</ele>
        <time>2023-01-01T13:28:17.484Z</time>
      </trkpt>
      <trkpt lat="43.86312" lon="0.95288">
        <ele>153.431197</ele>
        <time>2023-01-01T13:28:19.498Z</time>
      </trkpt>
      <trkpt lat="43.86305" lon="0.95279">
        <ele>153.485346</ele>
        <time>2023-01-01T13:28:21.506Z</time>
      </trkpt>
      <trkpt lat="43.86296" lon="0.9527">
        <ele>153.54301</ele>
        <time>2023-01-01T13:28:23.501Z</time>
      </trkpt>
      <trkpt lat="43.86288" lon="0.95262">
        <ele>153.625515</ele>
        <time>2023-01-01T13:28:25.470Z</time>
      </trkpt>
      <trkpt lat="43.8628" lon="0.95255">
        <ele>153.79763</ele>
        <time>2023-01-01T13:28:27.487Z</time>
      </trkpt>
      <trkpt lat="43.86272" lon="0.95247">
        <ele>153.966256</ele>
        <time>2023-01-01T13:28:29.494Z</time>
      </trkpt>
      <trkpt lat="43.86263" lon="0.9524">
        <ele>154.141192</ele>
        <time>2023-01-01T13:28:31.485Z</time>
      </trkpt>
      <trkpt lat="43.86254" lon="0.95233">
        <ele>154.307281</ele>
        <time>2023-01-01T13:28:33.502Z</time>
      </trkpt>
      <trkpt lat="43.86246" lon="0.95226">
        <ele>154.476302</ele>
        <time>2023-01-01T13:28:35.489Z</time>
      </trkpt>
      <trkpt lat="43.86237" lon="0.9522">
        <ele>154.637291</ele>
        <time>2023-01-01T13:28:37.505Z</time>
      </trkpt>
      <trkpt lat="43.86225" lon="0.95211">
        <ele>154.871726</ele>
        <time>2023-01-01T13:28:40.497Z</time>
      </trkpt>
      <trkpt lat="43.86217" lon="0.95204">
        <ele>155.035592</ele>
        <time>2023-01-01T13:28:42.486Z</time>
      </trkpt>
      <trkpt lat="43.86209" lon="0.95198">
        <ele>155.195276</ele>
        <time>2023-01-01T13:28:44.498Z</time>
      </trkpt>
      <trkpt lat="43.86201" lon="0.95192">
        <ele>155.349619</ele>
        <time>2023-01-01T13:28:46.504Z</time>
      </trkpt>
      <trkpt lat="43.8619" lon="0.95184">
        <ele>155.562227</ele>
        <time>2023-01-01T13:28:49.481Z</time>
      </trkpt>
      <trkpt lat="43.8618" lon="0.95177">
        <ele>155.759439</ele>
        <time>2023-01-01T13:28:52.490Z</time>
      </trkpt>
      <trkpt lat="43.86169" lon="0.95169">
        <ele>155.972381</ele>
        <time>2023-01-01T13:28:55.472Z</time>
      </trkpt>
      <trkpt lat="43.86157" lon="0.95161">
        <ele>156.191951</ele>
        <time>2023-01-01T13:28:58.499Z</time>
      </trkpt>
      <trkpt lat="43.86145" lon="0.95152">
        <ele>156.422335</ele>
        <time>2023-01-01T13:29:01.500Z</time>
      </trkpt>
      <trkpt lat="43.86137" lon="0.95146">
        <ele>156.579928</ele>
        <time>2023-01-01T13:29:03.503Z</time>
      </trkpt>
      <trkpt lat="43.86129" lon="0.9514">
        <ele>156.594821</ele>
        <time>2023-01-01T13:29:05.483Z</time>
      </trkpt>
      <trkpt lat="43.86121" lon="0.95134">
        <ele>156.45652</ele>
        <time>2023-01-01T13:29:07.471Z</time>
      </trkpt>
      <trkpt lat="43.86113" lon="0.95128">
        <ele>156.317986</ele>
        <time>2023-01-01T13:29:09.512Z</time>
      </trkpt>
      <trkpt lat="43.861" lon="0.9512">
        <ele>156.118403</ele>
        <time>2023-01-01T13:29:12.506Z</time>
      </trkpt>
      <trkpt lat="43.86093" lon="0.95113">
        <ele>155.984984</ele>
        <time>2023-01-01T13:29:14.507Z</time>
      </trkpt>
      <trkpt lat="43.8608" lon="0.95105">
        <ele>155.784935</ele>
        <time>2023-01-01T13:29:17.500Z</time>
      </trkpt>
      <trkpt lat="43.86072" lon="0.95099">
        <ele>155.652042</ele>
        <time>2023-01-01T13:29:19.503Z</time>
      </trkpt>
      <trkpt lat="43.8606" lon="0.95091">
        <ele>155.454632</ele>
        <time>2023-01-01T13:29:22.477Z</time>
      </trkpt>
      <trkpt lat="43.86052" lon="0.95085">
        <ele>155.318671</ele>
        <time>2023-01-01T13:29:24.501Z</time>
      </trkpt>
      <trkpt lat="43.86044" lon="0.95079">
        <ele>155.179677</ele>
        <time>2023-01-01T13:29:26.502Z</time>
      </trkpt>
      <trkpt lat="43.86035" lon="0.95072">
        <ele>155.034464</ele>
        <time>2023-01-01T13:29:28.498Z</time>
      </trkpt>
      <trkpt lat="43.86027" lon="0.95066">
        <ele>154.895944</ele>
        <time>2023-01-01T13:29:30.504Z</time>
      </trkpt>
      <trkpt lat="43.86019" lon="0.9506">
        <ele>154.756652</ele>
        <time>2023-01-01T13:29:32.513Z</time>
      </trkpt>
      <trkpt lat="43.8601" lon="0.95052">
        <ele>154.611835</ele>
        <time>2023-01-01T13:29:34.500Z</time>
      </trkpt>
      <trkpt lat="43.86001" lon="0.95046">
        <ele>154.463421</ele>
        <time>2023-01-01T13:29:36.499Z</time>
      </trkpt>
      <trkpt lat="43.85993" lon="0.9504">
        <ele>154.326704</ele>
        <time>2023-01-01T13:29:38.505Z</time>
      </trkpt>
      <trkpt lat="43.85985" lon="0.95032">
        <ele>154.177148</ele>
        <time>2023-01-01T13:29:40.494Z</time>
      </trkpt>
      <trkpt lat="43.85976" lon="0.95026">
        <ele>154.034763</ele>
        <time>2023-01-01T13:29:42.503Z</time>
      </trkpt>
      <trkpt lat="43.85968" lon="0.95019">
        <ele>154.039786</ele>
        <time>2023-01-01T13:29:44.511Z</time>
      </trkpt>
      <trkpt lat="43.8596" lon="0.95012">
        <ele>154.076257</ele>
        <time>2023-01-01T13:29:46.501Z</time>
      </trkpt>
      <trkpt lat="43.85952" lon="0.95004">
        <ele>154.113483</ele>
        <time>2023-01-01T13:29:48.499Z</time>
      </trkpt>
      <trkpt lat="43.85944" lon="0.94995">
        <ele>154.149999</ele>
        <time>2023-01-01T13:29:50.478Z</time>
      </trkpt>
      <trkpt lat="43.85937" lon="0.94987">
        <ele>154.18708</ele>
        <time>2023-01-01T13:29:52.504Z</time>
      </trkpt>
      <trkpt lat="43.85929" lon="0.94978">
        <ele>154.222684</ele>
        <time>2023-01-01T13:29:54.503Z</time>
      </trkpt>
      <trkpt lat="43.85921" lon="0.94969">
        <ele>154.261314</ele>
        <time>2023-01-01T13:29:56.499Z</time>
      </trkpt>
      <trkpt lat="43.85914" lon="0.9496">
        <ele>154.299486</ele>
        <time>2023-01-01T13:29:58.502Z</time>
      </trkpt>
      <trkpt lat="43.85906" lon="0.9495">
        <ele>154.338173</ele>
        <time>2023-01-01T13:30:00.499Z</time>
      </trkpt>
      <trkpt lat="43.85898" lon="0.94941">
        <ele>154.376315</ele>
        <time>2023-01-01T13:30:02.500Z</time>
      </trkpt>
      <trkpt lat="43.85891" lon="0.94931">
        <ele>154.413658</ele>
        <time>2023-01-01T13:30:04.506Z</time>
      </trkpt>
      <trkpt lat="43.85885" lon="0.9492">
        <ele>154.450899</ele>
        <time>2023-01-01T13:30:06.511Z</time>
      </trkpt>
      <trkpt lat="43.85878" lon="0.94909">
        <ele>154.490177</ele>
        <time>2023-01-01T13:30:08.493Z</time>
      </trkpt>
      <trkpt lat="43.85872" lon="0.94898">
        <ele>154.526613</ele>
        <time>2023-01-01T13:30:10.506Z</time>
      </trkpt>
      <trkpt lat="43.85866" lon="0.94887">
        <ele>154.565663</ele>
        <time>2023-01-01T13:30:12.492Z</time>
      </trkpt>
      <trkpt lat="43.85859" lon="0.94876">
        <ele>154.603424</ele>
        <time>2023-01-01T13:30:14.477Z</time>
      </trkpt>
      <trkpt lat="43.85853" lon="0.94864">
        <ele>154.642246</ele>
        <time>2023-01-01T13:30:16.479Z</time>
      </trkpt>
      <trkpt lat="43.85847" lon="0.94854">
        <ele>154.678259</ele>
        <time>2023-01-01T13:30:18.477Z</time>
      </trkpt>
      <trkpt lat="43.85841" lon="0.94843">
        <ele>154.646461</ele>
        <time>2023-01-01T13:30:20.496Z</time>
      </trkpt>
      <trkpt lat="43.85835" lon="0.94831">
        <ele>154.604975</ele>
        <time>2023-01-01T13:30:22.501Z</time>
      </trkpt>
      <trkpt lat="43.85829" lon="0.94819">
        <ele>154.56374</ele>
        <time>2023-01-01T13:30:24.500Z</time>
      </trkpt>
      <trkpt lat="43.85823" lon="0.94807">
        <ele>154.521752</ele>
        <time>2023-01-01T13:30:26.485Z</time>
      </trkpt>
      <trkpt lat="43.85817" lon="0.94795">
        <ele>154.480291</ele>
        <time>2023-01-01T13:30:28.503Z</time>
      </trkpt>
      <trkpt lat="43.85811" lon="0.94784">
        <ele>154.439518</ele>
        <time>2023-01-01T13:30:30.499Z</time>
      </trkpt>
      <trkpt lat="43.85805" lon="0.94772">
        <ele>154.39759</ele>
        <time>2023-01-01T13:30:32.500Z</time>
      </trkpt>
      <trkpt lat="43.85799" lon="0.94761">
        <ele>154.357512</ele>
        <time>2023-01-01T13:30:34.495Z</time>
      </trkpt>
      <trkpt lat="43.85792" lon="0.94749">
        <ele>154.314156</ele>
        <time>2023-01-01T13:30:36.481Z</time>
      </trkpt>
      <trkpt lat="43.85785" lon="0.94737">
        <ele>154.27068</ele>
        <time>2023-01-01T13:30:38.497Z</time>
      </trkpt>
      <trkpt lat="43.85778" lon="0.94726">
        <ele>154.226546</ele>
        <time>2023-01-01T13:30:40.499Z</time>
      </trkpt>
      <trkpt lat="43.85771" lon="0.94714">
        <ele>154.180844</ele>
        <time>2023-01-01T13:30:42.502Z</time>
      </trkpt>
      <trkpt lat="43.85763" lon="0.94703">
        <ele>154.137433</ele>
        <time>2023-01-01T13:30:44.512Z</time>
      </trkpt>
      <trkpt lat="43.85755" lon="0.94692">
        <ele>154.09091</ele>
        <time>2023-01-01T13:30:46.501Z</time>
      </trkpt>
      <trkpt lat="43.85746" lon="0.94681">
        <ele>154.044188</ele>
        <time>2023-01-01T13:30:48.501Z</time>
      </trkpt>
      <trkpt lat="43.85737" lon="0.9467">
        <ele>153.995937</ele>
        <time>2023-01-01T13:30:50.501Z</time>
      </trkpt>
      <trkpt lat="43.85728" lon="0.94659">
        <ele>153.939848</ele>
        <time>2023-01-01T13:30:52.498Z</time>
      </trkpt>
      <trkpt lat="43.85719" lon="0.94649">
        <ele>153.866758</ele>
        <time>2023-01-01T13:30:54.500Z</time>
      </trkpt>
      <trkpt lat="43.85708" lon="0.9464">
        <ele>153.788496</ele>
        <time>2023-01-01T13:30:56.479Z</time>
      </trkpt>
      <trkpt lat="43.85698" lon="0.94631">
        <ele>153.710481</ele>
        <time>2023-01-01T13:30:58.503Z</time>
      </trkpt>
      <trkpt lat="43.85687" lon="0.94623">
        <ele>153.634492</ele>
        <time>2023-01-01T13:31:00.481Z</time>
      </trkpt>
      <trkpt lat="43.85677" lon="0.94614">
        <ele>153.558146</ele>
        <time>2023-01-01T13:31:02.502Z</time>
      </trkpt>
      <trkpt lat="43.85667" lon="0.94606">
        <ele>153.48677</ele>
        <time>2023-01-01T13:31:04.502Z</time>
      </trkpt>
      <trkpt lat="43.85657" lon="0.94599">
        <ele>153.415156</ele>
        <time>2023-01-01T13:31:06.499Z</time>
      </trkpt>
      <trkpt lat="43.85648" lon="0.94592">
        <ele>153.346688</ele>
        <time>2023-01-01T13:31:08.492Z</time>
      </trkpt>
      <trkpt lat="43.85639" lon="0.94584">
        <ele>153.280881</ele>
        <time>2023-01-01T13:31:10.507Z</time>
      </trkpt>
      <trkpt lat="43.8563" lon="0.94577">
        <ele>153.214621</ele>
        <time>2023-01-01T13:31:12.501Z</time>
      </trkpt>
      <trkpt lat="43.8562" lon="0.9457">
        <ele>153.144824</ele>
        <time>2023-01-01T13:31:14.504Z</time>
      </trkpt>
      <trkpt lat="43.85611" lon="0.94561">
        <ele>153.073568</ele>
        <time>2023-01-01T13:31:16.500Z</time>
      </trkpt>
      <trkpt lat="43.85602" lon="0.94554">
        <ele>153.007163</ele>
        <time>2023-01-01T13:31:18.480Z</time>
      </trkpt>
      <trkpt lat="43.85593" lon="0.94546">
        <ele>152.940333</ele>
        <time>2023-01-01T13:31:20.498Z</time>
      </trkpt>
      <trkpt lat="43.85583" lon="0.94538">
        <ele>152.867659</ele>
        <time>2023-01-01T13:31:22.510Z</time>
      </trkpt>
      <trkpt lat="43.85573" lon="0.94532">
        <ele>152.849929</ele>
        <time>2023-01-01T13:31:24.507Z</time>
      </trkpt>
      <trkpt lat="43.85563" lon="0.94525">
        <ele>152.908271</ele>
        <time>2023-01-01T13:31:26.502Z</time>
      </trkpt>
      <trkpt lat="43.85554" lon="0.94519">
        <ele>152.958526</ele>
        <time>2023-01-01T13:31:28.502Z</time>
      </trkpt>
      <trkpt lat="43.85544" lon="0.94511">
        <ele>153.012633</ele>
        <time>2023-01-01T13:31:30.500Z</time>
      </trkpt>
      <trkpt lat="43.85535" lon="0.94504">
        <ele>153.068075</ele>
        <time>2023-01-01T13:31:32.500Z</time>
      </trkpt>
      <trkpt lat="43.85526" lon="0.94497">
        <ele>153.117083</ele>
        <time>2023-01-01T13:31:34.501Z</time>
      </trkpt>
      <trkpt lat="43.85517" lon="0.94489">
        <ele>153.170573</ele>
        <time>2023-01-01T13:31:36.497Z</time>
      </trkpt>
      <trkpt lat="43.85508" lon="0.94481">
        <ele>153.227631</ele>
        <time>2023-01-01T13:31:38.502Z</time>
      </trkpt>
      <trkpt lat="43.85499" lon="0.94474">
        <ele>153.27956</ele>
        <time>2023-01-01T13:31:40.508Z</time>
      </trkpt>
      <trkpt lat="43.8549" lon="0.94467">
        <ele>153.332183</ele>
        <time>2023-01-01T13:31:42.497Z</time>
      </trkpt>
      <trkpt lat="43.8548" lon="0.94459">
        <ele>153.386605</ele>
        <time>2023-01-01T13:31:44.500Z</time>
      </trkpt>
      <trkpt lat="43.85472" lon="0.94452">
        <ele>153.437317</ele>
        <time>2023-01-01T13:31:46.499Z</time>
      </trkpt>
      <trkpt lat="43.85463" lon="0.94444">
        <ele>153.489756</ele>
        <time>2023-01-01T13:31:48.504Z</time>
      </trkpt>
      <trkpt lat="43.85453" lon="0.94437">
        <ele>153.548164</ele>
        <time>2023-01-01T13:31:50.501Z</time>
      </trkpt>
      <trkpt lat="43.85443" lon="0.94428">
        <ele>153.605448</ele>
        <time>2023-01-01T13:31:52.502Z</time>
      </trkpt>
      <trkpt lat="43.85433" lon="0.94421">
        <ele>153.661338</ele>
        <time>2023-01-01T13:31:54.504Z</time>
      </trkpt>
      <trkpt lat="43.85424" lon="0.94414">
        <ele>153.713776</ele>
        <time>2023-01-01T13:31:56.503Z</time>
      </trkpt>
      <trkpt lat="43.85416" lon="0.94408">
        <ele>153.751799</ele>
        <time>2023-01-01T13:31:58.501Z</time>
      </trkpt>
      <trkpt lat="43.85406" lon="0.94399">
        <ele>153.788158</ele>
        <time>2023-01-01T13:32:00.503Z</time>
      </trkpt>
      <trkpt lat="43.85397" lon="0.94391">
        <ele>153.824517</ele>
        <time>2023-01-01T13:32:02.499Z</time>
      </trkpt>
      <trkpt lat="43.85388" lon="0.94383">
        <ele>153.859379</ele>
        <time>2023-01-01T13:32:04.502Z</time>
      </trkpt>
      <trkpt lat="43.85378" lon="0.94375">
        <ele>153.89414</ele>
        <time>2023-01-01T13:32:06.479Z</time>
      </trkpt>
      <trkpt lat="43.85369" lon="0.94368">
        <ele>153.928125</ele>
        <time>2023-01-01T13:32:08.504Z</time>
      </trkpt>
      <trkpt lat="43.85361" lon="0.94362">
        <ele>153.960125</ele>
        <time>2023-01-01T13:32:10.500Z</time>
      </trkpt>
      <trkpt lat="43.85352" lon="0.94355">
        <ele>153.993371</ele>
        <time>2023-01-01T13:32:12.501Z</time>
      </trkpt>
      <trkpt lat="43.85343" lon="0.94349">
        <ele>154.023607</ele>
        <time>2023-01-01T13:32:14.513Z</time>
      </trkpt>
      <trkpt lat="43.85336" lon="0.94342">
        <ele>154.053454</ele>
        <time>2023-01-01T13:32:16.503Z</time>
      </trkpt>
      <trkpt lat="43.85325" lon="0.94333">
        <ele>154.095315</ele>
        <time>2023-01-01T13:32:19.501Z</time>
      </trkpt>
      <trkpt lat="43.85314" lon="0.94324">
        <ele>154.135899</ele>
        <time>2023-01-01T13:32:22.507Z</time>
      </trkpt>
      <trkpt lat="43.85303" lon="0.94317">
        <ele>154.175069</ele>
        <time>2023-01-01T13:32:25.503Z</time>
      </trkpt>
      <trkpt lat="43.85292" lon="0.94307">
        <ele>154.217052</ele>
        <time>2023-01-01T13:32:28.498Z</time>
      </trkpt>
      <trkpt lat="43.8528" lon="0.94298">
        <ele>154.261153</ele>
        <time>2023-01-01T13:32:31.503Z</time>
      </trkpt>
      <trkpt lat="43.85272" lon="0.94292">
        <ele>154.29247</ele>
        <time>2023-01-01T13:32:33.501Z</time>
      </trkpt>
      <trkpt lat="43.85264" lon="0.94285">
        <ele>154.328196</ele>
        <time>2023-01-01T13:32:35.502Z</time>
      </trkpt>
      <trkpt lat="43.85252" lon="0.94275">
        <ele>154.404541</ele>
        <time>2023-01-01T13:32:38.503Z</time>
      </trkpt>
      <trkpt lat="43.85241" lon="0.94265">
        <ele>154.478593</ele>
        <time>2023-01-01T13:32:41.500Z</time>
      </trkpt>
      <trkpt lat="43.85233" lon="0.9426">
        <ele>154.530512</ele>
        <time>2023-01-01T13:32:43.500Z</time>
      </trkpt>
      <trkpt lat="43.85221" lon="0.9425">
        <ele>154.605902</ele>
        <time>2023-01-01T13:32:46.499Z</time>
      </trkpt>
      <trkpt lat="43.85211" lon="0.94241">
        <ele>154.674274</ele>
        <time>2023-01-01T13:32:49.506Z</time>
      </trkpt>
      <trkpt lat="43.85201" lon="0.94234">
        <ele>154.736952</ele>
        <time>2023-01-01T13:32:52.500Z</time>
      </trkpt>
      <trkpt lat="43.85192" lon="0.94227">
        <ele>154.797429</ele>
        <time>2023-01-01T13:32:55.484Z</time>
      </trkpt>
      <trkpt lat="43.85182" lon="0.94219">
        <ele>154.862263</ele>
        <time>2023-01-01T13:32:58.503Z</time>
      </trkpt>
      <trkpt lat="43.85171" lon="0.94211">
        <ele>154.929741</ele>
        <time>2023-01-01T13:33:01.503Z</time>
      </trkpt>
      <trkpt lat="43.85161" lon="0.94202">
        <ele>154.997345</ele>
        <time>2023-01-01T13:33:04.498Z</time>
      </trkpt>
      <trkpt lat="43.85151" lon="0.94194">
        <ele>155.064425</ele>
        <time>2023-01-01T13:33:07.477Z</time>
      </trkpt>
      <trkpt lat="43.8514" lon="0.94186">
        <ele>155.131755</ele>
        <time>2023-01-01T13:33:10.503Z</time>
      </trkpt>
      <trkpt lat="43.85131" lon="0.94177">
        <ele>155.194871</ele>
        <time>2023-01-01T13:33:13.496Z</time>
      </trkpt>
      <trkpt lat="43.85121" lon="0.94169">
        <ele>155.258202</ele>
        <time>2023-01-01T13:33:16.502Z</time>
      </trkpt>
      <trkpt lat="43.85111" lon="0.94161">
        <ele>155.32252</ele>
        <time>2023-01-01T13:33:19.504Z</time>
      </trkpt>
      <trkpt lat="43.85101" lon="0.94152">
        <ele>155.448431</ele>
        <time>2023-01-01T13:33:22.473Z</time>
      </trkpt>
      <trkpt lat="43.8509" lon="0.94144">
        <ele>155.581233</ele>
        <time>2023-01-01T13:33:25.472Z</time>
      </trkpt>
      <trkpt lat="43.85079" lon="0.94136">
        <ele>155.71814</ele>
        <time>2023-01-01T13:33:28.504Z</time>
      </trkpt>
      <trkpt lat="43.85068" lon="0.94127">
        <ele>155.857506</ele>
        <time>2023-01-01T13:33:31.498Z</time>
      </trkpt>
      <trkpt lat="43.85058" lon="0.94118">
        <ele>155.989126</ele>
        <time>2023-01-01T13:33:34.504Z</time>
      </trkpt>
      <trkpt lat="43.8505" lon="0.94111">
        <ele>156.093576</ele>
        <time>2023-01-01T13:33:37.499Z</time>
      </trkpt>
      <trkpt lat="43.85047" lon="0.94108">
        <ele>156.127502</ele>
        <time>2023-01-01T13:33:46.304Z</time>
      </trkpt>
      <trkpt lat="43.85036" lon="0.94101">
        <ele>156.259555</ele>
        <time>2023-01-01T13:35:54.490Z</time>
      </trkpt>
      <trkpt lat="43.85025" lon="0.94094">
        <ele>156.394579</ele>
        <time>2023-01-01T13:35:58.483Z</time>
      </trkpt>
      <trkpt lat="43.85015" lon="0.94087">
        <ele>156.514517</ele>
        <time>2023-01-01T13:36:01.507Z</time>
      </trkpt>
      <trkpt lat="43.85004" lon="0.94079">
        <ele>156.647444</ele>
        <time>2023-01-01T13:36:04.478Z</time>
      </trkpt>
      <trkpt lat="43.84993" lon="0.94071">
        <ele>156.781493</ele>
        <time>2023-01-01T13:36:07.505Z</time>
      </trkpt>
      <trkpt lat="43.84983" lon="0.94062">
        <ele>156.907219</ele>
        <time>2023-01-01T13:36:10.484Z</time>
      </trkpt>
      <trkpt lat="43.84973" lon="0.94054">
        <ele>157.037099</ele>
        <time>2023-01-01T13:36:13.493Z</time>
      </trkpt>
      <trkpt lat="43.84962" lon="0.94046">
        <ele>157.172694</ele>
        <time>2023-01-01T13:36:16.482Z</time>
      </trkpt>
      <trkpt lat="43.84953" lon="0.94037">
        <ele>157.296555</ele>
        <time>2023-01-01T13:36:19.507Z</time>
      </trkpt>
      <trkpt lat="43.84944" lon="0.94026">
        <ele>157.445218</ele>
        <time>2023-01-01T13:36:22.481Z</time>
      </trkpt>
      <trkpt lat="43.84935" lon="0.94015">
        <ele>157.596015</ele>
        <time>2023-01-01T13:36:25.497Z</time>
      </trkpt>
      <trkpt lat="43.84926" lon="0.94002">
        <ele>157.762227</ele>
        <time>2023-01-01T13:36:28.489Z</time>
      </trkpt>
      <trkpt lat="43.84917" lon="0.93988">
        <ele>157.929904</ele>
        <time>2023-01-01T13:36:31.480Z</time>
      </trkpt>
      <trkpt lat="43.84908" lon="0.93974">
        <ele>158.095047</ele>
        <time>2023-01-01T13:36:34.480Z</time>
      </trkpt>
      <trkpt lat="43.849" lon="0.93962">
        <ele>158.246283</ele>
        <time>2023-01-01T13:36:37.499Z</time>
      </trkpt>
      <trkpt lat="43.84893" lon="0.93952">
        <ele>158.365653</ele>
        <time>2023-01-01T13:36:39.491Z</time>
      </trkpt>
      <trkpt lat="43.84888" lon="0.93942">
        <ele>158.478485</ele>
        <time>2023-01-01T13:36:41.494Z</time>
      </trkpt>
      <trkpt lat="43.8488" lon="0.93929">
        <ele>158.634598</ele>
        <time>2023-01-01T13:36:44.495Z</time>
      </trkpt>
      <trkpt lat="43.84874" lon="0.93915">
        <ele>158.782603</ele>
        <time>2023-01-01T13:36:47.488Z</time>
      </trkpt>
      <trkpt lat="43.84867" lon="0.93901">
        <ele>158.937416</ele>
        <time>2023-01-01T13:36:50.505Z</time>
      </trkpt>
      <trkpt lat="43.8486" lon="0.93887">
        <ele>159.089748</ele>
        <time>2023-01-01T13:36:53.504Z</time>
      </trkpt>
      <trkpt lat="43.84853" lon="0.93873">
        <ele>159.238567</ele>
        <time>2023-01-01T13:36:56.506Z</time>
      </trkpt>
      <trkpt lat="43.84847" lon="0.93863">
        <ele>159.359136</ele>
        <time>2023-01-01T13:36:58.499Z</time>
      </trkpt>
      <trkpt lat="43.84841" lon="0.93852">
        <ele>159.484076</ele>
        <time>2023-01-01T13:37:00.491Z</time>
      </trkpt>
      <trkpt lat="43.84835" lon="0.93841">
        <ele>159.573593</ele>
        <time>2023-01-01T13:37:02.494Z</time>
      </trkpt>
      <trkpt lat="43.8483" lon="0.93831">
        <ele>159.638142</ele>
        <time>2023-01-01T13:37:04.484Z</time>
      </trkpt>
      <trkpt lat="43.84824" lon="0.93819">
        <ele>159.711793</ele>
        <time>2023-01-01T13:37:06.491Z</time>
      </trkpt>
      <trkpt lat="43.84819" lon="0.93809">
        <ele>159.779202</ele>
        <time>2023-01-01T13:37:08.504Z</time>
      </trkpt>
      <trkpt lat="43.84813" lon="0.93798">
        <ele>159.848709</ele>
        <time>2023-01-01T13:37:10.501Z</time>
      </trkpt>
      <trkpt lat="43.84807" lon="0.93787">
        <ele>159.916131</ele>
        <time>2023-01-01T13:37:12.509Z</time>
      </trkpt>
      <trkpt lat="43.84802" lon="0.93777">
        <ele>159.983552</ele>
        <time>2023-01-01T13:37:14.501Z</time>
      </trkpt>
      <trkpt lat="43.84796" lon="0.93766">
        <ele>160.051027</ele>
        <time>2023-01-01T13:37:16.493Z</time>
      </trkpt>
      <trkpt lat="43.84789" lon="0.93751">
        <ele>160.144233</ele>
        <time>2023-01-01T13:37:19.489Z</time>
      </trkpt>
      <trkpt lat="43.84781" lon="0.93737">
        <ele>160.235374</ele>
        <time>2023-01-01T13:37:22.507Z</time>
      </trkpt>
      <trkpt lat="43.84774" lon="0.93724">
        <ele>160.316247</ele>
        <time>2023-01-01T13:37:25.488Z</time>
      </trkpt>
      <trkpt lat="43.84768" lon="0.93712">
        <ele>160.3945</ele>
        <time>2023-01-01T13:37:28.510Z</time>
      </trkpt>
      <trkpt lat="43.84762" lon="0.93698">
        <ele>160.476176</ele>
        <time>2023-01-01T13:37:31.487Z</time>
      </trkpt>
      <trkpt lat="43.84754" lon="0.93684">
        <ele>160.569384</ele>
        <time>2023-01-01T13:37:34.490Z</time>
      </trkpt>
      <trkpt lat="43.84749" lon="0.93673">
        <ele>160.636825</ele>
        <time>2023-01-01T13:37:36.481Z</time>
      </trkpt>
      <trkpt lat="43.84743" lon="0.93663">
        <ele>160.701326</ele>
        <time>2023-01-01T13:37:38.479Z</time>
      </trkpt>
      <trkpt lat="43.84738" lon="0.93652">
        <ele>160.767501</ele>
        <time>2023-01-01T13:37:40.489Z</time>
      </trkpt>
      <trkpt lat="43.84732" lon="0.93642">
        <ele>160.771375</ele>
        <time>2023-01-01T13:37:42.507Z</time>
      </trkpt>
      <trkpt lat="43.84725" lon="0.93628">
        <ele>160.554903</ele>
        <time>2023-01-01T13:37:45.506Z</time>
      </trkpt>
      <trkpt lat="43.84718" lon="0.93616">
        <ele>160.358084</ele>
        <time>2023-01-01T13:37:48.484Z</time>
      </trkpt>
      <trkpt lat="43.84711" lon="0.93604">
        <ele>160.151421</ele>
        <time>2023-01-01T13:37:51.499Z</time>
      </trkpt>
      <trkpt lat="43.84704" lon="0.9359">
        <ele>159.937893</ele>
        <time>2023-01-01T13:37:54.498Z</time>
      </trkpt>
      <trkpt lat="43.84697" lon="0.93575">
        <ele>159.708931</ele>
        <time>2023-01-01T13:37:57.484Z</time>
      </trkpt>
      <trkpt lat="43.84689" lon="0.93561">
        <ele>159.471408</ele>
        <time>2023-01-01T13:38:00.490Z</time>
      </trkpt>
      <trkpt lat="43.84683" lon="0.9355">
        <ele>159.302737</ele>
        <time>2023-01-01T13:38:02.487Z</time>
      </trkpt>
      <trkpt lat="43.84677" lon="0.93539">
        <ele>159.12992</ele>
        <time>2023-01-01T13:38:04.487Z</time>
      </trkpt>
      <trkpt lat="43.84672" lon="0.93529">
        <ele>158.962362</ele>
        <time>2023-01-01T13:38:06.490Z</time>
      </trkpt>
      <trkpt lat="43.84666" lon="0.93517">
        <ele>158.783259</ele>
        <time>2023-01-01T13:38:08.482Z</time>
      </trkpt>
      <trkpt lat="43.8466" lon="0.93506">
        <ele>158.606301</ele>
        <time>2023-01-01T13:38:10.505Z</time>
      </trkpt>
      <trkpt lat="43.84655" lon="0.93496">
        <ele>158.444764</ele>
        <time>2023-01-01T13:38:12.489Z</time>
      </trkpt>
      <trkpt lat="43.84649" lon="0.93486">
        <ele>158.280322</ele>
        <time>2023-01-01T13:38:14.487Z</time>
      </trkpt>
      <trkpt lat="43.84644" lon="0.93475">
        <ele>158.117951</ele>
        <time>2023-01-01T13:38:16.505Z</time>
      </trkpt>
      <trkpt lat="43.84639" lon="0.93464">
        <ele>157.944096</ele>
        <time>2023-01-01T13:38:18.489Z</time>
      </trkpt>
      <trkpt lat="43.84633" lon="0.93453">
        <ele>157.770295</ele>
        <time>2023-01-01T13:38:20.486Z</time>
      </trkpt>
      <trkpt lat="43.84627" lon="0.93441">
        <ele>157.591686</ele>
        <time>2023-01-01T13:38:22.511Z</time>
      </trkpt>
      <trkpt lat="43.8462" lon="0.93429">
        <ele>157.431565</ele>
        <time>2023-01-01T13:38:24.506Z</time>
      </trkpt>
      <trkpt lat="43.84613" lon="0.93416">
        <ele>157.259908</ele>
        <time>2023-01-01T13:38:26.483Z</time>
      </trkpt>
      <trkpt lat="43.84606" lon="0.93403">
        <ele>157.092417</ele>
        <time>2023-01-01T13:38:28.489Z</time>
      </trkpt>
      <trkpt lat="43.84599" lon="0.93389">
        <ele>156.915705</ele>
        <time>2023-01-01T13:38:30.508Z</time>
      </trkpt>
      <trkpt lat="43.84592" lon="0.93375">
        <ele>156.7432</ele>
        <time>2023-01-01T13:38:32.491Z</time>
      </trkpt>
      <trkpt lat="43.84585" lon="0.93363">
        <ele>156.578849</ele>
        <time>2023-01-01T13:38:34.505Z</time>
      </trkpt>
      <trkpt lat="43.84578" lon="0.9335">
        <ele>156.406349</ele>
        <time>2023-01-01T13:38:36.499Z</time>
      </trkpt>
      <trkpt lat="43.84571" lon="0.93337">
        <ele>156.241388</ele>
        <time>2023-01-01T13:38:38.495Z</time>
      </trkpt>
      <trkpt lat="43.84565" lon="0.93325">
        <ele>156.089921</ele>
        <time>2023-01-01T13:38:40.488Z</time>
      </trkpt>
      <trkpt lat="43.84559" lon="0.93313">
        <ele>155.935004</ele>
        <time>2023-01-01T13:38:42.489Z</time>
      </trkpt>
      <trkpt lat="43.84554" lon="0.93302">
        <ele>155.797758</ele>
        <time>2023-01-01T13:38:44.486Z</time>
      </trkpt>
      <trkpt lat="43.84548" lon="0.93292">
        <ele>155.662913</ele>
        <time>2023-01-01T13:38:46.490Z</time>
      </trkpt>
      <trkpt lat="43.84542" lon="0.93281">
        <ele>155.533326</ele>
        <time>2023-01-01T13:38:48.502Z</time>
      </trkpt>
      <trkpt lat="43.84536" lon="0.93272">
        <ele>155.398857</ele>
        <time>2023-01-01T13:38:50.493Z</time>
      </trkpt>
      <trkpt lat="43.8453" lon="0.93261">
        <ele>155.260586</ele>
        <time>2023-01-01T13:38:52.497Z</time>
      </trkpt>
      <trkpt lat="43.84524" lon="0.9325">
        <ele>155.110705</ele>
        <time>2023-01-01T13:38:54.491Z</time>
      </trkpt>
      <trkpt lat="43.84517" lon="0.93239">
        <ele>155.084065</ele>
        <time>2023-01-01T13:38:56.517Z</time>
      </trkpt>
      <trkpt lat="43.8451" lon="0.9323">
        <ele>155.202657</ele>
        <time>2023-01-01T13:38:58.509Z</time>
      </trkpt>
      <trkpt lat="43.84502" lon="0.93219">
        <ele>155.327624</ele>
        <time>2023-01-01T13:39:00.506Z</time>
      </trkpt>
      <trkpt lat="43.84495" lon="0.9321">
        <ele>155.443557</ele>
        <time>2023-01-01T13:39:02.487Z</time>
      </trkpt>
      <trkpt lat="43.84487" lon="0.932">
        <ele>155.567376</ele>
        <time>2023-01-01T13:39:04.483Z</time>
      </trkpt>
      <trkpt lat="43.8448" lon="0.93191">
        <ele>155.680599</ele>
        <time>2023-01-01T13:39:06.506Z</time>
      </trkpt>
      <trkpt lat="43.84472" lon="0.93182">
        <ele>155.800787</ele>
        <time>2023-01-01T13:39:08.484Z</time>
      </trkpt>
      <trkpt lat="43.84465" lon="0.93174">
        <ele>155.914599</ele>
        <time>2023-01-01T13:39:10.507Z</time>
      </trkpt>
      <trkpt lat="43.84455" lon="0.93164">
        <ele>156.066733</ele>
        <time>2023-01-01T13:39:13.486Z</time>
      </trkpt>
      <trkpt lat="43.84445" lon="0.93153">
        <ele>156.208439</ele>
        <time>2023-01-01T13:39:16.501Z</time>
      </trkpt>
      <trkpt lat="43.84437" lon="0.93142">
        <ele>156.350113</ele>
        <time>2023-01-01T13:39:19.498Z</time>
      </trkpt>
      <trkpt lat="43.84427" lon="0.93132">
        <ele>156.48998</ele>
        <time>2023-01-01T13:39:22.494Z</time>
      </trkpt>
      <trkpt lat="43.8442" lon="0.93123">
        <ele>156.607417</ele>
        <time>2023-01-01T13:39:25.506Z</time>
      </trkpt>
      <trkpt lat="43.84413" lon="0.93115">
        <ele>156.715553</ele>
        <time>2023-01-01T13:39:28.491Z</time>
      </trkpt>
      <trkpt lat="43.84406" lon="0.93107">
        <ele>156.823398</ele>
        <time>2023-01-01T13:39:31.502Z</time>
      </trkpt>
      <trkpt lat="43.84399" lon="0.93098">
        <ele>156.935465</ele>
        <time>2023-01-01T13:39:34.486Z</time>
      </trkpt>
      <trkpt lat="43.84391" lon="0.9309">
        <ele>157.054485</ele>
        <time>2023-01-01T13:39:37.502Z</time>
      </trkpt>
      <trkpt lat="43.84382" lon="0.9308">
        <ele>157.19716</ele>
        <time>2023-01-01T13:39:40.481Z</time>
      </trkpt>
      <trkpt lat="43.84373" lon="0.9307">
        <ele>157.447125</ele>
        <time>2023-01-01T13:39:43.475Z</time>
      </trkpt>
      <trkpt lat="43.84365" lon="0.9306">
        <ele>157.692763</ele>
        <time>2023-01-01T13:39:46.506Z</time>
      </trkpt>
      <trkpt lat="43.84356" lon="0.9305">
        <ele>157.943162</ele>
        <time>2023-01-01T13:39:49.494Z</time>
      </trkpt>
      <trkpt lat="43.84346" lon="0.93041">
        <ele>158.200311</ele>
        <time>2023-01-01T13:39:52.489Z</time>
      </trkpt>
      <trkpt lat="43.84336" lon="0.93031">
        <ele>158.456515</ele>
        <time>2023-01-01T13:39:55.487Z</time>
      </trkpt>
      <trkpt lat="43.84326" lon="0.93022">
        <ele>158.726122</ele>
        <time>2023-01-01T13:39:58.480Z</time>
      </trkpt>
      <trkpt lat="43.84316" lon="0.93013">
        <ele>158.988029</ele>
        <time>2023-01-01T13:40:01.498Z</time>
      </trkpt>
      <trkpt lat="43.84306" lon="0.93005">
        <ele>159.226247</ele>
        <time>2023-01-01T13:40:04.484Z</time>
      </trkpt>
      <trkpt lat="43.84298" lon="0.92998">
        <ele>159.441067</ele>
        <time>2023-01-01T13:40:07.492Z</time>
      </trkpt>
      <trkpt lat="43.84289" lon="0.92992">
        <ele>159.646341</ele>
        <time>2023-01-01T13:40:10.482Z</time>
      </trkpt>
      <trkpt lat="43.84281" lon="0.92987">
        <ele>159.844159</ele>
        <time>2023-01-01T13:40:13.506Z</time>
      </trkpt>
      <trkpt lat="43.8427" lon="0.9298">
        <ele>160.090477</ele>
        <time>2023-01-01T13:40:17.486Z</time>
      </trkpt>
      <trkpt lat="43.8426" lon="0.92975">
        <ele>160.327735</ele>
        <time>2023-01-01T13:40:21.490Z</time>
      </trkpt>
      <trkpt lat="43.8425" lon="0.92967">
        <ele>160.586348</ele>
        <time>2023-01-01T13:40:25.478Z</time>
      </trkpt>
      <trkpt lat="43.84241" lon="0.9296">
        <ele>160.802197</ele>
        <time>2023-01-01T13:40:28.482Z</time>
      </trkpt>
      <trkpt lat="43.84231" lon="0.92952">
        <ele>161.04629</ele>
        <time>2023-01-01T13:40:31.486Z</time>
      </trkpt>
      <trkpt lat="43.84221" lon="0.92944">
        <ele>161.150573</ele>
        <time>2023-01-01T13:40:34.508Z</time>
      </trkpt>
      <trkpt lat="43.8421" lon="0.92936">
        <ele>161.252534</ele>
        <time>2023-01-01T13:40:37.501Z</time>
      </trkpt>
      <trkpt lat="43.84198" lon="0.92929">
        <ele>161.360415</ele>
        <time>2023-01-01T13:40:40.505Z</time>
      </trkpt>
      <trkpt lat="43.8419" lon="0.92923">
        <ele>161.435649</ele>
        <time>2023-01-01T13:40:42.505Z</time>
      </trkpt>
      <trkpt lat="43.84182" lon="0.92917">
        <ele>161.512446</ele>
        <time>2023-01-01T13:40:44.484Z</time>
      </trkpt>
      <trkpt lat="43.84173" lon="0.92911">
        <ele>161.589606</ele>
        <time>2023-01-01T13:40:46.505Z</time>
      </trkpt>
      <trkpt lat="43.84164" lon="0.92905">
        <ele>161.672278</ele>
        <time>2023-01-01T13:40:48.493Z</time>
      </trkpt>
      <trkpt lat="43.84155" lon="0.929">
        <ele>161.753183</ele>
        <time>2023-01-01T13:40:50.486Z</time>
      </trkpt>
      <trkpt lat="43.84146" lon="0.92894">
        <ele>161.836087</ele>
        <time>2023-01-01T13:40:52.502Z</time>
      </trkpt>
      <trkpt lat="43.84137" lon="0.92888">
        <ele>161.919491</ele>
        <time>2023-01-01T13:40:54.490Z</time>
      </trkpt>
      <trkpt lat="43.84128" lon="0.92881">
        <ele>162.004829</ele>
        <time>2023-01-01T13:40:56.490Z</time>
      </trkpt>
      <trkpt lat="43.84118" lon="0.92874">
        <ele>162.095227</ele>
        <time>2023-01-01T13:40:58.488Z</time>
      </trkpt>
      <trkpt lat="43.84109" lon="0.92867">
        <ele>162.184863</ele>
        <time>2023-01-01T13:41:00.508Z</time>
      </trkpt>
      <trkpt lat="43.841" lon="0.92861">
        <ele>162.26655</ele>
        <time>2023-01-01T13:41:02.490Z</time>
      </trkpt>
      <trkpt lat="43.8409" lon="0.92855">
        <ele>162.354202</ele>
        <time>2023-01-01T13:41:04.509Z</time>
      </trkpt>
      <trkpt lat="43.8408" lon="0.92849">
        <ele>162.443367</ele>
        <time>2023-01-01T13:41:06.504Z</time>
      </trkpt>
      <trkpt lat="43.84071" lon="0.92843">
        <ele>162.526285</ele>
        <time>2023-01-01T13:41:08.487Z</time>
      </trkpt>
      <trkpt lat="43.84062" lon="0.92836">
        <ele>162.40277</ele>
        <time>2023-01-01T13:41:10.504Z</time>
      </trkpt>
      <trkpt lat="43.84053" lon="0.92829">
        <ele>162.240252</ele>
        <time>2023-01-01T13:41:12.518Z</time>
      </trkpt>
      <trkpt lat="43.84044" lon="0.92823">
        <ele>162.084988</ele>
        <time>2023-01-01T13:41:14.508Z</time>
      </trkpt>
      <trkpt lat="43.84035" lon="0.92816">
        <ele>161.927075</ele>
        <time>2023-01-01T13:41:16.478Z</time>
      </trkpt>
      <trkpt lat="43.84025" lon="0.9281">
        <ele>161.764899</ele>
        <time>2023-01-01T13:41:18.486Z</time>
      </trkpt>
      <trkpt lat="43.84016" lon="0.92803">
        <ele>161.602295</ele>
        <time>2023-01-01T13:41:20.508Z</time>
      </trkpt>
      <trkpt lat="43.84006" lon="0.92797">
        <ele>161.436726</ele>
        <time>2023-01-01T13:41:22.505Z</time>
      </trkpt>
      <trkpt lat="43.83997" lon="0.92789">
        <ele>161.269547</ele>
        <time>2023-01-01T13:41:24.506Z</time>
      </trkpt>
      <trkpt lat="43.83988" lon="0.92783">
        <ele>161.109641</ele>
        <time>2023-01-01T13:41:26.516Z</time>
      </trkpt>
      <trkpt lat="43.83978" lon="0.92776">
        <ele>160.942182</ele>
        <time>2023-01-01T13:41:28.506Z</time>
      </trkpt>
      <trkpt lat="43.83968" lon="0.9277">
        <ele>160.77486</ele>
        <time>2023-01-01T13:41:30.495Z</time>
      </trkpt>
      <trkpt lat="43.83958" lon="0.92762">
        <ele>160.595719</ele>
        <time>2023-01-01T13:41:32.490Z</time>
      </trkpt>
      <trkpt lat="43.83947" lon="0.92755">
        <ele>160.404002</ele>
        <time>2023-01-01T13:41:34.512Z</time>
      </trkpt>
      <trkpt lat="43.83936" lon="0.92748">
        <ele>160.221694</ele>
        <time>2023-01-01T13:41:36.489Z</time>
      </trkpt>
      <trkpt lat="43.83926" lon="0.9274">
        <ele>160.037015</ele>
        <time>2023-01-01T13:41:38.516Z</time>
      </trkpt>
      <trkpt lat="43.83916" lon="0.92733">
        <ele>159.862149</ele>
        <time>2023-01-01T13:41:40.505Z</time>
      </trkpt>
      <trkpt lat="43.83906" lon="0.92726">
        <ele>159.695615</ele>
        <time>2023-01-01T13:41:42.485Z</time>
      </trkpt>
      <trkpt lat="43.83897" lon="0.92719">
        <ele>159.536675</ele>
        <time>2023-01-01T13:41:44.495Z</time>
      </trkpt>
      <trkpt lat="43.83887" lon="0.92712">
        <ele>159.374572</ele>
        <time>2023-01-01T13:41:46.485Z</time>
      </trkpt>
      <trkpt lat="43.83877" lon="0.92705">
        <ele>159.207758</ele>
        <time>2023-01-01T13:41:48.508Z</time>
      </trkpt>
      <trkpt lat="43.83867" lon="0.92698">
        <ele>159.039123</ele>
        <time>2023-01-01T13:41:50.509Z</time>
      </trkpt>
      <trkpt lat="43.83857" lon="0.9269">
        <ele>158.870785</ele>
        <time>2023-01-01T13:41:52.487Z</time>
      </trkpt>
      <trkpt lat="43.83847" lon="0.92684">
        <ele>158.707334</ele>
        <time>2023-01-01T13:41:54.494Z</time>
      </trkpt>
      <trkpt lat="43.83838" lon="0.92677">
        <ele>158.546803</ele>
        <time>2023-01-01T13:41:56.510Z</time>
      </trkpt>
      <trkpt lat="43.83829" lon="0.9267">
        <ele>158.391756</ele>
        <time>2023-01-01T13:41:58.509Z</time>
      </trkpt>
      <trkpt lat="43.8382" lon="0.92663">
        <ele>158.239601</ele>
        <time>2023-01-01T13:42:00.508Z</time>
      </trkpt>
      <trkpt lat="43.83811" lon="0.92657">
        <ele>158.098281</ele>
        <time>2023-01-01T13:42:02.485Z</time>
      </trkpt>
      <trkpt lat="43.83799" lon="0.92648">
        <ele>157.895495</ele>
        <time>2023-01-01T13:42:05.490Z</time>
      </trkpt>
      <trkpt lat="43.83787" lon="0.9264">
        <ele>157.693575</ele>
        <time>2023-01-01T13:42:08.503Z</time>
      </trkpt>
      <trkpt lat="43.83779" lon="0.92634">
        <ele>157.553143</ele>
        <time>2023-01-01T13:42:10.486Z</time>
      </trkpt>
      <trkpt lat="43.83766" lon="0.92626">
        <ele>157.34721</ele>
        <time>2023-01-01T13:42:13.509Z</time>
      </trkpt>
      <trkpt lat="43.83758" lon="0.9262">
        <ele>157.202073</ele>
        <time>2023-01-01T13:42:15.490Z</time>
      </trkpt>
      <trkpt lat="43.83749" lon="0.92614">
        <ele>157.062975</ele>
        <time>2023-01-01T13:42:17.487Z</time>
      </trkpt>
      <trkpt lat="43.83739" lon="0.92606">
        <ele>156.991628</ele>
        <time>2023-01-01T13:42:19.504Z</time>
      </trkpt>
      <trkpt lat="43.8373" lon="0.926">
        <ele>156.925503</ele>
        <time>2023-01-01T13:42:21.508Z</time>
      </trkpt>
      <trkpt lat="43.8372" lon="0.92593">
        <ele>156.853922</ele>
        <time>2023-01-01T13:42:23.502Z</time>
      </trkpt>
      <trkpt lat="43.83711" lon="0.92587">
        <ele>156.784255</ele>
        <time>2023-01-01T13:42:25.488Z</time>
      </trkpt>
      <trkpt lat="43.83701" lon="0.92579">
        <ele>156.70892</ele>
        <time>2023-01-01T13:42:27.507Z</time>
      </trkpt>
      <trkpt lat="43.8369" lon="0.92572">
        <ele>156.634192</ele>
        <time>2023-01-01T13:42:29.490Z</time>
      </trkpt>
      <trkpt lat="43.8368" lon="0.92565">
        <ele>156.556691</ele>
        <time>2023-01-01T13:42:31.507Z</time>
      </trkpt>
      <trkpt lat="43.83669" lon="0.92557">
        <ele>156.476761</ele>
        <time>2023-01-01T13:42:33.490Z</time>
      </trkpt>
      <trkpt lat="43.83658" lon="0.92549">
        <ele>156.398205</ele>
        <time>2023-01-01T13:42:35.491Z</time>
      </trkpt>
      <trkpt lat="43.83647" lon="0.92542">
        <ele>156.316744</ele>
        <time>2023-01-01T13:42:37.495Z</time>
      </trkpt>
      <trkpt lat="43.83635" lon="0.92534">
        <ele>156.233905</ele>
        <time>2023-01-01T13:42:39.512Z</time>
      </trkpt>
      <trkpt lat="43.83624" lon="0.92526">
        <ele>156.149059</ele>
        <time>2023-01-01T13:42:41.508Z</time>
      </trkpt>
      <trkpt lat="43.83612" lon="0.92518">
        <ele>156.065219</ele>
        <time>2023-01-01T13:42:43.503Z</time>
      </trkpt>
      <trkpt lat="43.83601" lon="0.9251">
        <ele>155.98713</ele>
        <time>2023-01-01T13:42:45.505Z</time>
      </trkpt>
      <trkpt lat="43.83591" lon="0.92503">
        <ele>155.909583</ele>
        <time>2023-01-01T13:42:47.492Z</time>
      </trkpt>
      <trkpt lat="43.8358" lon="0.92495">
        <ele>155.944923</ele>
        <time>2023-01-01T13:42:49.510Z</time>
      </trkpt>
      <trkpt lat="43.83569" lon="0.92488">
        <ele>155.99891</ele>
        <time>2023-01-01T13:42:51.489Z</time>
      </trkpt>
      <trkpt lat="43.83559" lon="0.92481">
        <ele>156.050849</ele>
        <time>2023-01-01T13:42:53.485Z</time>
      </trkpt>
      <trkpt lat="43.83549" lon="0.92474">
        <ele>156.10328</ele>
        <time>2023-01-01T13:42:55.490Z</time>
      </trkpt>
      <trkpt lat="43.83538" lon="0.92466">
        <ele>156.157064</ele>
        <time>2023-01-01T13:42:57.508Z</time>
      </trkpt>
      <trkpt lat="43.83528" lon="0.92459">
        <ele>156.210917</ele>
        <time>2023-01-01T13:42:59.509Z</time>
      </trkpt>
      <trkpt lat="43.83518" lon="0.92451">
        <ele>156.262796</ele>
        <time>2023-01-01T13:43:01.504Z</time>
      </trkpt>
      <trkpt lat="43.83508" lon="0.92443">
        <ele>156.315401</ele>
        <time>2023-01-01T13:43:03.493Z</time>
      </trkpt>
      <trkpt lat="43.83497" lon="0.92436">
        <ele>156.368232</ele>
        <time>2023-01-01T13:43:05.507Z</time>
      </trkpt>
      <trkpt lat="43.83487" lon="0.92429">
        <ele>156.418</ele>
        <time>2023-01-01T13:43:07.504Z</time>
      </trkpt>
      <trkpt lat="43.83478" lon="0.92422">
        <ele>156.467331</ele>
        <time>2023-01-01T13:43:09.490Z</time>
      </trkpt>
      <trkpt lat="43.83468" lon="0.92416">
        <ele>156.514343</ele>
        <time>2023-01-01T13:43:11.487Z</time>
      </trkpt>
      <trkpt lat="43.83459" lon="0.92409">
        <ele>156.561617</ele>
        <time>2023-01-01T13:43:13.503Z</time>
      </trkpt>
      <trkpt lat="43.8345" lon="0.92403">
        <ele>156.608371</ele>
        <time>2023-01-01T13:43:15.492Z</time>
      </trkpt>
      <trkpt lat="43.83441" lon="0.92396">
        <ele>156.654573</ele>
        <time>2023-01-01T13:43:17.489Z</time>
      </trkpt>
      <trkpt lat="43.83432" lon="0.9239">
        <ele>156.700224</ele>
        <time>2023-01-01T13:43:19.490Z</time>
      </trkpt>
      <trkpt lat="43.83422" lon="0.92384">
        <ele>156.826448</ele>
        <time>2023-01-01T13:43:21.508Z</time>
      </trkpt>
      <trkpt lat="43.83414" lon="0.92379">
        <ele>156.971053</ele>
        <time>2023-01-01T13:43:23.485Z</time>
      </trkpt>
      <trkpt lat="43.83405" lon="0.92372">
        <ele>157.123392</ele>
        <time>2023-01-01T13:43:25.506Z</time>
      </trkpt>
      <trkpt lat="43.83396" lon="0.92366">
        <ele>157.281569</ele>
        <time>2023-01-01T13:43:27.486Z</time>
      </trkpt>
      <trkpt lat="43.83388" lon="0.92359">
        <ele>157.432406</ele>
        <time>2023-01-01T13:43:29.488Z</time>
      </trkpt>
      <trkpt lat="43.83379" lon="0.92353">
        <ele>157.577541</ele>
        <time>2023-01-01T13:43:31.511Z</time>
      </trkpt>
      <trkpt lat="43.83371" lon="0.92347">
        <ele>157.726086</ele>
        <time>2023-01-01T13:43:33.513Z</time>
      </trkpt>
      <trkpt lat="43.83363" lon="0.92342">
        <ele>157.865544</ele>
        <time>2023-01-01T13:43:35.507Z</time>
      </trkpt>
      <trkpt lat="43.83351" lon="0.92333">
        <ele>158.075841</ele>
        <time>2023-01-01T13:43:38.509Z</time>
      </trkpt>
      <trkpt lat="43.83342" lon="0.92327">
        <ele>158.221477</ele>
        <time>2023-01-01T13:43:40.507Z</time>
      </trkpt>
      <trkpt lat="43.83334" lon="0.92321">
        <ele>158.37226</ele>
        <time>2023-01-01T13:43:42.510Z</time>
      </trkpt>
      <trkpt lat="43.83321" lon="0.92313">
        <ele>158.581466</ele>
        <time>2023-01-01T13:43:45.508Z</time>
      </trkpt>
      <trkpt lat="43.83313" lon="0.92307">
        <ele>158.726601</ele>
        <time>2023-01-01T13:43:47.487Z</time>
      </trkpt>
      <trkpt lat="43.83304" lon="0.92301">
        <ele>158.873618</ele>
        <time>2023-01-01T13:43:49.487Z</time>
      </trkpt>
      <trkpt lat="43.83296" lon="0.92295">
        <ele>159.025107</ele>
        <time>2023-01-01T13:43:51.509Z</time>
      </trkpt>
      <trkpt lat="43.83287" lon="0.92288">
        <ele>159.174435</ele>
        <time>2023-01-01T13:43:53.492Z</time>
      </trkpt>
      <trkpt lat="43.83279" lon="0.92283">
        <ele>159.321383</ele>
        <time>2023-01-01T13:43:55.497Z</time>
      </trkpt>
      <trkpt lat="43.8327" lon="0.92277">
        <ele>159.465058</ele>
        <time>2023-01-01T13:43:57.492Z</time>
      </trkpt>
      <trkpt lat="43.83262" lon="0.92272">
        <ele>159.488432</ele>
        <time>2023-01-01T13:43:59.486Z</time>
      </trkpt>
      <trkpt lat="43.83254" lon="0.92266">
        <ele>159.480339</ele>
        <time>2023-01-01T13:44:01.510Z</time>
      </trkpt>
      <trkpt lat="43.83245" lon="0.92259">
        <ele>159.472166</ele>
        <time>2023-01-01T13:44:03.494Z</time>
      </trkpt>
      <trkpt lat="43.83236" lon="0.92253">
        <ele>159.463949</ele>
        <time>2023-01-01T13:44:05.526Z</time>
      </trkpt>
      <trkpt lat="43.83228" lon="0.92247">
        <ele>159.455984</ele>
        <time>2023-01-01T13:44:07.512Z</time>
      </trkpt>
      <trkpt lat="43.83219" lon="0.92242">
        <ele>159.447863</ele>
        <time>2023-01-01T13:44:09.510Z</time>
      </trkpt>
      <trkpt lat="43.8321" lon="0.92236">
        <ele>159.439909</ele>
        <time>2023-01-01T13:44:11.511Z</time>
      </trkpt>
      <trkpt lat="43.83202" lon="0.9223">
        <ele>159.43214</ele>
        <time>2023-01-01T13:44:13.493Z</time>
      </trkpt>
      <trkpt lat="43.83193" lon="0.92224">
        <ele>159.423937</ele>
        <time>2023-01-01T13:44:15.521Z</time>
      </trkpt>
      <trkpt lat="43.83184" lon="0.92218">
        <ele>159.415544</ele>
        <time>2023-01-01T13:44:17.482Z</time>
      </trkpt>
      <trkpt lat="43.83176" lon="0.92212">
        <ele>159.407833</ele>
        <time>2023-01-01T13:44:19.488Z</time>
      </trkpt>
      <trkpt lat="43.83167" lon="0.92206">
        <ele>159.400043</ele>
        <time>2023-01-01T13:44:21.487Z</time>
      </trkpt>
      <trkpt lat="43.83159" lon="0.92201">
        <ele>159.392381</ele>
        <time>2023-01-01T13:44:23.514Z</time>
      </trkpt>
      <trkpt lat="43.83151" lon="0.92195">
        <ele>159.384592</ele>
        <time>2023-01-01T13:44:25.505Z</time>
      </trkpt>
      <trkpt lat="43.83142" lon="0.9219">
        <ele>159.376906</ele>
        <time>2023-01-01T13:44:27.500Z</time>
      </trkpt>
      <trkpt lat="43.83134" lon="0.92183">
        <ele>159.369008</ele>
        <time>2023-01-01T13:44:29.510Z</time>
      </trkpt>
      <trkpt lat="43.83125" lon="0.92177">
        <ele>159.360814</ele>
        <time>2023-01-01T13:44:31.491Z</time>
      </trkpt>
      <trkpt lat="43.83117" lon="0.92171">
        <ele>159.35274</ele>
        <time>2023-01-01T13:44:33.511Z</time>
      </trkpt>
      <trkpt lat="43.83108" lon="0.92165">
        <ele>159.344713</ele>
        <time>2023-01-01T13:44:35.487Z</time>
      </trkpt>
      <trkpt lat="43.83099" lon="0.92158">
        <ele>159.34244</ele>
        <time>2023-01-01T13:44:37.491Z</time>
      </trkpt>
      <trkpt lat="43.83091" lon="0.92152">
        <ele>159.34038</ele>
        <time>2023-01-01T13:44:39.506Z</time>
      </trkpt>
      <trkpt lat="43.83082" lon="0.92146">
        <ele>159.338382</ele>
        <time>2023-01-01T13:44:41.489Z</time>
      </trkpt>
      <trkpt lat="43.83071" lon="0.92139">
        <ele>159.335688</ele>
        <time>2023-01-01T13:44:44.485Z</time>
      </trkpt>
      <trkpt lat="43.8306" lon="0.92131">
        <ele>159.333066</ele>
        <time>2023-01-01T13:44:47.488Z</time>
      </trkpt>
      <trkpt lat="43.83051" lon="0.92125">
        <ele>159.330786</ele>
        <time>2023-01-01T13:44:50.508Z</time>
      </trkpt>
      <trkpt lat="43.83042" lon="0.92115">
        <ele>159.328276</ele>
        <time>2023-01-01T13:44:53.492Z</time>
      </trkpt>
      <trkpt lat="43.83031" lon="0.92106">
        <ele>159.325597</ele>
        <time>2023-01-01T13:44:56.506Z</time>
      </trkpt>
      <trkpt lat="43.83021" lon="0.92096">
        <ele>159.322883</ele>
        <time>2023-01-01T13:44:59.484Z</time>
      </trkpt>
      <trkpt lat="43.8301" lon="0.92087">
        <ele>159.320087</ele>
        <time>2023-01-01T13:45:02.503Z</time>
      </trkpt>
      <trkpt lat="43.83003" lon="0.92079">
        <ele>159.318082</ele>
        <time>2023-01-01T13:45:04.505Z</time>
      </trkpt>
      <trkpt lat="43.82995" lon="0.92071">
        <ele>159.316005</ele>
        <time>2023-01-01T13:45:06.521Z</time>
      </trkpt>
      <trkpt lat="43.82987" lon="0.92062">
        <ele>159.313893</ele>
        <time>2023-01-01T13:45:08.491Z</time>
      </trkpt>
      <trkpt lat="43.8298" lon="0.92055">
        <ele>159.311874</ele>
        <time>2023-01-01T13:45:10.511Z</time>
      </trkpt>
      <trkpt lat="43.82972" lon="0.92047">
        <ele>159.309747</ele>
        <time>2023-01-01T13:45:12.502Z</time>
      </trkpt>
      <trkpt lat="43.82964" lon="0.92038">
        <ele>159.307593</ele>
        <time>2023-01-01T13:45:14.512Z</time>
      </trkpt>
      <trkpt lat="43.82957" lon="0.9203">
        <ele>159.307949</ele>
        <time>2023-01-01T13:45:16.507Z</time>
      </trkpt>
      <trkpt lat="43.82947" lon="0.92021">
        <ele>159.45978</ele>
        <time>2023-01-01T13:45:19.481Z</time>
      </trkpt>
      <trkpt lat="43.82938" lon="0.92011">
        <ele>159.601869</ele>
        <time>2023-01-01T13:45:22.489Z</time>
      </trkpt>
      <trkpt lat="43.82931" lon="0.92002">
        <ele>159.730771</ele>
        <time>2023-01-01T13:45:25.482Z</time>
      </trkpt>
      <trkpt lat="43.82922" lon="0.91994">
        <ele>159.861146</ele>
        <time>2023-01-01T13:45:28.495Z</time>
      </trkpt>
      <trkpt lat="43.82914" lon="0.91985">
        <ele>159.990566</ele>
        <time>2023-01-01T13:45:31.501Z</time>
      </trkpt>
      <trkpt lat="43.82906" lon="0.91977">
        <ele>160.122673</ele>
        <time>2023-01-01T13:45:34.501Z</time>
      </trkpt>
      <trkpt lat="43.82898" lon="0.91968">
        <ele>160.256251</ele>
        <time>2023-01-01T13:45:37.486Z</time>
      </trkpt>
      <trkpt lat="43.82889" lon="0.91959">
        <ele>160.396039</ele>
        <time>2023-01-01T13:45:40.490Z</time>
      </trkpt>
      <trkpt lat="43.8288" lon="0.9195">
        <ele>160.536559</ele>
        <time>2023-01-01T13:45:43.520Z</time>
      </trkpt>
      <trkpt lat="43.82871" lon="0.9194">
        <ele>160.685066</ele>
        <time>2023-01-01T13:45:46.488Z</time>
      </trkpt>
      <trkpt lat="43.82861" lon="0.91929">
        <ele>160.840278</ele>
        <time>2023-01-01T13:45:49.496Z</time>
      </trkpt>
      <trkpt lat="43.82851" lon="0.91919">
        <ele>161.000558</ele>
        <time>2023-01-01T13:45:52.486Z</time>
      </trkpt>
      <trkpt lat="43.82841" lon="0.91908">
        <ele>161.161616</ele>
        <time>2023-01-01T13:45:55.506Z</time>
      </trkpt>
      <trkpt lat="43.82831" lon="0.91896">
        <ele>161.330274</ele>
        <time>2023-01-01T13:45:58.501Z</time>
      </trkpt>
      <trkpt lat="43.8282" lon="0.91885">
        <ele>161.499509</ele>
        <time>2023-01-01T13:46:01.491Z</time>
      </trkpt>
      <trkpt lat="43.8281" lon="0.91874">
        <ele>161.633802</ele>
        <time>2023-01-01T13:46:04.493Z</time>
      </trkpt>
      <trkpt lat="43.82799" lon="0.91863">
        <ele>161.718638</ele>
        <time>2023-01-01T13:46:07.490Z</time>
      </trkpt>
      <trkpt lat="43.82789" lon="0.91853">
        <ele>161.798148</ele>
        <time>2023-01-01T13:46:10.482Z</time>
      </trkpt>
      <trkpt lat="43.8278" lon="0.91843">
        <ele>161.876627</ele>
        <time>2023-01-01T13:46:13.489Z</time>
      </trkpt>
      <trkpt lat="43.8277" lon="0.91833">
        <ele>161.955567</ele>
        <time>2023-01-01T13:46:16.499Z</time>
      </trkpt>
      <trkpt lat="43.8276" lon="0.91822">
        <ele>162.037061</ele>
        <time>2023-01-01T13:46:19.490Z</time>
      </trkpt>
      <trkpt lat="43.8275" lon="0.91811">
        <ele>162.116967</ele>
        <time>2023-01-01T13:46:22.487Z</time>
      </trkpt>
      <trkpt lat="43.8274" lon="0.91801">
        <ele>162.196478</ele>
        <time>2023-01-01T13:46:25.485Z</time>
      </trkpt>
      <trkpt lat="43.8273" lon="0.9179">
        <ele>162.27776</ele>
        <time>2023-01-01T13:46:28.501Z</time>
      </trkpt>
      <trkpt lat="43.8272" lon="0.9178">
        <ele>162.358583</ele>
        <time>2023-01-01T13:46:31.485Z</time>
      </trkpt>
      <trkpt lat="43.8271" lon="0.91769">
        <ele>162.441517</ele>
        <time>2023-01-01T13:46:34.504Z</time>
      </trkpt>
      <trkpt lat="43.827" lon="0.91758">
        <ele>162.525613</ele>
        <time>2023-01-01T13:46:37.497Z</time>
      </trkpt>
      <trkpt lat="43.82689" lon="0.91747">
        <ele>162.610964</ele>
        <time>2023-01-01T13:46:40.515Z</time>
      </trkpt>
      <trkpt lat="43.82678" lon="0.91737">
        <ele>162.695244</ele>
        <time>2023-01-01T13:46:43.498Z</time>
      </trkpt>
      <trkpt lat="43.82668" lon="0.91726">
        <ele>162.767399</ele>
        <time>2023-01-01T13:46:46.497Z</time>
      </trkpt>
      <trkpt lat="43.82658" lon="0.91715">
        <ele>162.808947</ele>
        <time>2023-01-01T13:46:49.503Z</time>
      </trkpt>
      <trkpt lat="43.82647" lon="0.91704">
        <ele>162.850215</ele>
        <time>2023-01-01T13:46:52.502Z</time>
      </trkpt>
      <trkpt lat="43.82637" lon="0.91693">
        <ele>162.89276</ele>
        <time>2023-01-01T13:46:55.485Z</time>
      </trkpt>
      <trkpt lat="43.8263" lon="0.91685">
        <ele>162.92161</ele>
        <time>2023-01-01T13:46:57.489Z</time>
      </trkpt>
      <trkpt lat="43.82622" lon="0.91678">
        <ele>162.951713</ele>
        <time>2023-01-01T13:46:59.483Z</time>
      </trkpt>
      <trkpt lat="43.82614" lon="0.9167">
        <ele>162.980636</ele>
        <time>2023-01-01T13:47:01.504Z</time>
      </trkpt>
      <trkpt lat="43.82607" lon="0.91663">
        <ele>163.010889</ele>
        <time>2023-01-01T13:47:03.489Z</time>
      </trkpt>
      <trkpt lat="43.82599" lon="0.91655">
        <ele>163.040611</ele>
        <time>2023-01-01T13:47:05.492Z</time>
      </trkpt>
      <trkpt lat="43.82592" lon="0.91647">
        <ele>163.070609</ele>
        <time>2023-01-01T13:47:07.501Z</time>
      </trkpt>
      <trkpt lat="43.82584" lon="0.91639">
        <ele>163.101254</ele>
        <time>2023-01-01T13:47:09.488Z</time>
      </trkpt>
      <trkpt lat="43.82576" lon="0.91631">
        <ele>163.133448</ele>
        <time>2023-01-01T13:47:11.525Z</time>
      </trkpt>
      <trkpt lat="43.82568" lon="0.91622">
        <ele>163.166124</ele>
        <time>2023-01-01T13:47:13.504Z</time>
      </trkpt>
      <trkpt lat="43.8256" lon="0.91613">
        <ele>163.197693</ele>
        <time>2023-01-01T13:47:15.511Z</time>
      </trkpt>
      <trkpt lat="43.82552" lon="0.91605">
        <ele>163.229759</ele>
        <time>2023-01-01T13:47:17.488Z</time>
      </trkpt>
      <trkpt lat="43.82544" lon="0.91597">
        <ele>163.262085</ele>
        <time>2023-01-01T13:47:19.506Z</time>
      </trkpt>
      <trkpt lat="43.82535" lon="0.91589">
        <ele>163.294151</ele>
        <time>2023-01-01T13:47:21.508Z</time>
      </trkpt>
      <trkpt lat="43.82527" lon="0.9158">
        <ele>163.326819</ele>
        <time>2023-01-01T13:47:23.488Z</time>
      </trkpt>
      <trkpt lat="43.82519" lon="0.91572">
        <ele>163.255252</ele>
        <time>2023-01-01T13:47:25.516Z</time>
      </trkpt>
      <trkpt lat="43.82512" lon="0.91562">
        <ele>163.178118</ele>
        <time>2023-01-01T13:47:27.504Z</time>
      </trkpt>
      <trkpt lat="43.82503" lon="0.91555">
        <ele>163.1002</ele>
        <time>2023-01-01T13:47:29.489Z</time>
      </trkpt>
      <trkpt lat="43.82495" lon="0.91547">
        <ele>163.024788</ele>
        <time>2023-01-01T13:47:31.509Z</time>
      </trkpt>
      <trkpt lat="43.82487" lon="0.91538">
        <ele>162.943679</ele>
        <time>2023-01-01T13:47:33.509Z</time>
      </trkpt>
      <trkpt lat="43.82479" lon="0.91528">
        <ele>162.860996</ele>
        <time>2023-01-01T13:47:35.509Z</time>
      </trkpt>
      <trkpt lat="43.82471" lon="0.91518">
        <ele>162.777264</ele>
        <time>2023-01-01T13:47:37.490Z</time>
      </trkpt>
      <trkpt lat="43.82461" lon="0.91509">
        <ele>162.690208</ele>
        <time>2023-01-01T13:47:39.495Z</time>
      </trkpt>
      <trkpt lat="43.82453" lon="0.915">
        <ele>162.605669</ele>
        <time>2023-01-01T13:47:41.501Z</time>
      </trkpt>
      <trkpt lat="43.82444" lon="0.91492">
        <ele>162.52493</ele>
        <time>2023-01-01T13:47:43.487Z</time>
      </trkpt>
      <trkpt lat="43.82436" lon="0.91482">
        <ele>162.4413</ele>
        <time>2023-01-01T13:47:45.509Z</time>
      </trkpt>
      <trkpt lat="43.82426" lon="0.91473">
        <ele>162.350445</ele>
        <time>2023-01-01T13:47:47.487Z</time>
      </trkpt>
      <trkpt lat="43.82417" lon="0.91463">
        <ele>162.261481</ele>
        <time>2023-01-01T13:47:49.505Z</time>
      </trkpt>
      <trkpt lat="43.82407" lon="0.91454">
        <ele>162.173159</ele>
        <time>2023-01-01T13:47:51.505Z</time>
      </trkpt>
      <trkpt lat="43.82398" lon="0.91446">
        <ele>162.089577</ele>
        <time>2023-01-01T13:47:53.486Z</time>
      </trkpt>
      <trkpt lat="43.8239" lon="0.91436">
        <ele>162.004763</ele>
        <time>2023-01-01T13:47:55.505Z</time>
      </trkpt>
      <trkpt lat="43.82381" lon="0.91427">
        <ele>161.979322</ele>
        <time>2023-01-01T13:47:57.488Z</time>
      </trkpt>
      <trkpt lat="43.82373" lon="0.91417">
        <ele>162.117927</ele>
        <time>2023-01-01T13:47:59.510Z</time>
      </trkpt>
      <trkpt lat="43.82363" lon="0.91408">
        <ele>162.256662</ele>
        <time>2023-01-01T13:48:01.503Z</time>
      </trkpt>
      <trkpt lat="43.82354" lon="0.91399">
        <ele>162.397445</ele>
        <time>2023-01-01T13:48:03.488Z</time>
      </trkpt>
      <trkpt lat="43.82345" lon="0.91389">
        <ele>162.539287</ele>
        <time>2023-01-01T13:48:05.506Z</time>
      </trkpt>
      <trkpt lat="43.82335" lon="0.91379">
        <ele>162.694318</ele>
        <time>2023-01-01T13:48:07.499Z</time>
      </trkpt>
      <trkpt lat="43.82326" lon="0.91369">
        <ele>162.837684</ele>
        <time>2023-01-01T13:48:09.502Z</time>
      </trkpt>
      <trkpt lat="43.82316" lon="0.9136">
        <ele>162.987578</ele>
        <time>2023-01-01T13:48:11.490Z</time>
      </trkpt>
      <trkpt lat="43.82306" lon="0.9135">
        <ele>163.132559</ele>
        <time>2023-01-01T13:48:13.509Z</time>
      </trkpt>
      <trkpt lat="43.82297" lon="0.9134">
        <ele>163.276695</ele>
        <time>2023-01-01T13:48:15.487Z</time>
      </trkpt>
      <trkpt lat="43.82287" lon="0.9133">
        <ele>163.428631</ele>
        <time>2023-01-01T13:48:17.494Z</time>
      </trkpt>
      <trkpt lat="43.82278" lon="0.9132">
        <ele>163.574594</ele>
        <time>2023-01-01T13:48:19.490Z</time>
      </trkpt>
      <trkpt lat="43.82269" lon="0.91311">
        <ele>163.714334</ele>
        <time>2023-01-01T13:48:21.492Z</time>
      </trkpt>
      <trkpt lat="43.82261" lon="0.91302">
        <ele>163.83221</ele>
        <time>2023-01-01T13:48:23.495Z</time>
      </trkpt>
      <trkpt lat="43.82254" lon="0.91293">
        <ele>163.959211</ele>
        <time>2023-01-01T13:48:25.508Z</time>
      </trkpt>
      <trkpt lat="43.82245" lon="0.91285">
        <ele>164.084822</ele>
        <time>2023-01-01T13:48:27.508Z</time>
      </trkpt>
      <trkpt lat="43.82237" lon="0.91277">
        <ele>164.15266</ele>
        <time>2023-01-01T13:48:29.493Z</time>
      </trkpt>
      <trkpt lat="43.8223" lon="0.91269">
        <ele>164.108693</ele>
        <time>2023-01-01T13:48:31.512Z</time>
      </trkpt>
      <trkpt lat="43.82222" lon="0.91261">
        <ele>164.064046</ele>
        <time>2023-01-01T13:48:33.511Z</time>
      </trkpt>
      <trkpt lat="43.82215" lon="0.91253">
        <ele>164.02271</ele>
        <time>2023-01-01T13:48:35.491Z</time>
      </trkpt>
      <trkpt lat="43.82207" lon="0.91244">
        <ele>163.977088</ele>
        <time>2023-01-01T13:48:37.511Z</time>
      </trkpt>
      <trkpt lat="43.822" lon="0.91237">
        <ele>163.933804</ele>
        <time>2023-01-01T13:48:39.490Z</time>
      </trkpt>
      <trkpt lat="43.82192" lon="0.91229">
        <ele>163.888699</ele>
        <time>2023-01-01T13:48:41.506Z</time>
      </trkpt>
      <trkpt lat="43.82184" lon="0.91219">
        <ele>163.842094</ele>
        <time>2023-01-01T13:48:43.501Z</time>
      </trkpt>
      <trkpt lat="43.82177" lon="0.91211">
        <ele>163.797447</ele>
        <time>2023-01-01T13:48:45.513Z</time>
      </trkpt>
      <trkpt lat="43.82168" lon="0.91203">
        <ele>163.750754</ele>
        <time>2023-01-01T13:48:47.487Z</time>
      </trkpt>
      <trkpt lat="43.8216" lon="0.91195">
        <ele>163.703424</ele>
        <time>2023-01-01T13:48:49.490Z</time>
      </trkpt>
      <trkpt lat="43.82152" lon="0.91186">
        <ele>163.655014</ele>
        <time>2023-01-01T13:48:51.491Z</time>
      </trkpt>
      <trkpt lat="43.82143" lon="0.91178">
        <ele>163.607176</ele>
        <time>2023-01-01T13:48:53.505Z</time>
      </trkpt>
      <trkpt lat="43.82135" lon="0.9117">
        <ele>163.559722</ele>
        <time>2023-01-01T13:48:55.509Z</time>
      </trkpt>
      <trkpt lat="43.82127" lon="0.91163">
        <ele>163.515495</ele>
        <time>2023-01-01T13:48:57.503Z</time>
      </trkpt>
      <trkpt lat="43.82119" lon="0.91155">
        <ele>163.471618</ele>
        <time>2023-01-01T13:48:59.506Z</time>
      </trkpt>
      <trkpt lat="43.82109" lon="0.91144">
        <ele>163.411994</ele>
        <time>2023-01-01T13:49:02.507Z</time>
      </trkpt>
      <trkpt lat="43.82099" lon="0.91133">
        <ele>163.355245</ele>
        <time>2023-01-01T13:49:05.491Z</time>
      </trkpt>
      <trkpt lat="43.8209" lon="0.91123">
        <ele>163.215127</ele>
        <time>2023-01-01T13:49:08.489Z</time>
      </trkpt>
      <trkpt lat="43.82081" lon="0.91112">
        <ele>163.019342</ele>
        <time>2023-01-01T13:49:11.487Z</time>
      </trkpt>
      <trkpt lat="43.82071" lon="0.91102">
        <ele>162.821261</ele>
        <time>2023-01-01T13:49:14.490Z</time>
      </trkpt>
      <trkpt lat="43.82061" lon="0.91091">
        <ele>162.622823</ele>
        <time>2023-01-01T13:49:17.484Z</time>
      </trkpt>
      <trkpt lat="43.82051" lon="0.91079">
        <ele>162.41158</ele>
        <time>2023-01-01T13:49:20.479Z</time>
      </trkpt>
      <trkpt lat="43.82043" lon="0.91072">
        <ele>162.264251</ele>
        <time>2023-01-01T13:49:22.489Z</time>
      </trkpt>
      <trkpt lat="43.82035" lon="0.91064">
        <ele>162.108376</ele>
        <time>2023-01-01T13:49:24.514Z</time>
      </trkpt>
      <trkpt lat="43.82027" lon="0.91057">
        <ele>161.953058</ele>
        <time>2023-01-01T13:49:26.503Z</time>
      </trkpt>
      <trkpt lat="43.82019" lon="0.91048">
        <ele>161.797183</ele>
        <time>2023-01-01T13:49:28.505Z</time>
      </trkpt>
      <trkpt lat="43.82011" lon="0.9104">
        <ele>161.632908</ele>
        <time>2023-01-01T13:49:30.511Z</time>
      </trkpt>
      <trkpt lat="43.82002" lon="0.91032">
        <ele>161.471239</ele>
        <time>2023-01-01T13:49:32.490Z</time>
      </trkpt>
      <trkpt lat="43.81994" lon="0.91023">
        <ele>161.302946</ele>
        <time>2023-01-01T13:49:34.501Z</time>
      </trkpt>
      <trkpt lat="43.81985" lon="0.91015">
        <ele>161.134055</ele>
        <time>2023-01-01T13:49:36.509Z</time>
      </trkpt>
      <trkpt lat="43.81977" lon="0.91007">
        <ele>160.970801</ele>
        <time>2023-01-01T13:49:38.498Z</time>
      </trkpt>
      <trkpt lat="43.81969" lon="0.90998">
        <ele>160.810032</ele>
        <time>2023-01-01T13:49:40.509Z</time>
      </trkpt>
      <trkpt lat="43.81961" lon="0.90989">
        <ele>160.648967</ele>
        <time>2023-01-01T13:49:42.507Z</time>
      </trkpt>
      <trkpt lat="43.81952" lon="0.9098">
        <ele>160.491368</ele>
        <time>2023-01-01T13:49:44.483Z</time>
      </trkpt>
      <trkpt lat="43.81944" lon="0.90972">
        <ele>160.774622</ele>
        <time>2023-01-01T13:49:46.490Z</time>
      </trkpt>
      <trkpt lat="43.81936" lon="0.90964">
        <ele>161.066197</ele>
        <time>2023-01-01T13:49:48.494Z</time>
      </trkpt>
      <trkpt lat="43.81928" lon="0.90954">
        <ele>161.369886</ele>
        <time>2023-01-01T13:49:50.485Z</time>
      </trkpt>
      <trkpt lat="43.8192" lon="0.90945">
        <ele>161.667353</ele>
        <time>2023-01-01T13:49:52.507Z</time>
      </trkpt>
      <trkpt lat="43.81912" lon="0.90937">
        <ele>161.94353</ele>
        <time>2023-01-01T13:49:54.485Z</time>
      </trkpt>
      <trkpt lat="43.81902" lon="0.90925">
        <ele>162.316447</ele>
        <time>2023-01-01T13:49:57.493Z</time>
      </trkpt>
      <trkpt lat="43.81892" lon="0.90914">
        <ele>162.699866</ele>
        <time>2023-01-01T13:50:00.488Z</time>
      </trkpt>
      <trkpt lat="43.81882" lon="0.90903">
        <ele>163.056462</ele>
        <time>2023-01-01T13:50:03.509Z</time>
      </trkpt>
      <trkpt lat="43.81872" lon="0.90893">
        <ele>163.414025</ele>
        <time>2023-01-01T13:50:06.506Z</time>
      </trkpt>
      <trkpt lat="43.81863" lon="0.90883">
        <ele>163.749308</ele>
        <time>2023-01-01T13:50:09.510Z</time>
      </trkpt>
      <trkpt lat="43.81853" lon="0.90874">
        <ele>164.081928</ele>
        <time>2023-01-01T13:50:12.506Z</time>
      </trkpt>
      <trkpt lat="43.81844" lon="0.90865">
        <ele>164.425204</ele>
        <time>2023-01-01T13:50:15.484Z</time>
      </trkpt>
      <trkpt lat="43.81834" lon="0.90854">
        <ele>164.763319</ele>
        <time>2023-01-01T13:50:18.484Z</time>
      </trkpt>
      <trkpt lat="43.81825" lon="0.90845">
        <ele>165.101849</ele>
        <time>2023-01-01T13:50:21.501Z</time>
      </trkpt>
      <trkpt lat="43.81815" lon="0.90835">
        <ele>165.443499</ele>
        <time>2023-01-01T13:50:24.484Z</time>
      </trkpt>
      <trkpt lat="43.81805" lon="0.90824">
        <ele>165.660721</ele>
        <time>2023-01-01T13:50:27.488Z</time>
      </trkpt>
      <trkpt lat="43.81795" lon="0.90813">
        <ele>165.694999</ele>
        <time>2023-01-01T13:50:30.509Z</time>
      </trkpt>
      <trkpt lat="43.81784" lon="0.90803">
        <ele>165.729995</ele>
        <time>2023-01-01T13:50:33.483Z</time>
      </trkpt>
      <trkpt lat="43.81774" lon="0.90794">
        <ele>165.763879</ele>
        <time>2023-01-01T13:50:36.500Z</time>
      </trkpt>
      <trkpt lat="43.81767" lon="0.90786">
        <ele>165.788248</ele>
        <time>2023-01-01T13:50:38.479Z</time>
      </trkpt>
      <trkpt lat="43.81759" lon="0.90778">
        <ele>165.814626</ele>
        <time>2023-01-01T13:50:40.485Z</time>
      </trkpt>
      <trkpt lat="43.81751" lon="0.9077">
        <ele>165.840655</ele>
        <time>2023-01-01T13:50:42.501Z</time>
      </trkpt>
      <trkpt lat="43.81742" lon="0.90761">
        <ele>165.86978</ele>
        <time>2023-01-01T13:50:44.491Z</time>
      </trkpt>
      <trkpt lat="43.81733" lon="0.90753">
        <ele>165.899124</ele>
        <time>2023-01-01T13:50:46.505Z</time>
      </trkpt>
      <trkpt lat="43.81723" lon="0.90745">
        <ele>165.930234</ele>
        <time>2023-01-01T13:50:48.512Z</time>
      </trkpt>
      <trkpt lat="43.81714" lon="0.90736">
        <ele>165.961803</ele>
        <time>2023-01-01T13:50:50.506Z</time>
      </trkpt>
      <trkpt lat="43.81704" lon="0.90726">
        <ele>165.993804</ele>
        <time>2023-01-01T13:50:52.490Z</time>
      </trkpt>
      <trkpt lat="43.81694" lon="0.90717">
        <ele>166.026037</ele>
        <time>2023-01-01T13:50:54.490Z</time>
      </trkpt>
      <trkpt lat="43.81683" lon="0.90707">
        <ele>166.059809</ele>
        <time>2023-01-01T13:50:56.506Z</time>
      </trkpt>
      <trkpt lat="43.81674" lon="0.90698">
        <ele>166.092702</ele>
        <time>2023-01-01T13:50:58.492Z</time>
      </trkpt>
      <trkpt lat="43.81664" lon="0.90689">
        <ele>166.123707</ele>
        <time>2023-01-01T13:51:00.509Z</time>
      </trkpt>
      <trkpt lat="43.81655" lon="0.9068">
        <ele>166.116658</ele>
        <time>2023-01-01T13:51:02.492Z</time>
      </trkpt>
      <trkpt lat="43.81646" lon="0.90672">
        <ele>166.100934</ele>
        <time>2023-01-01T13:51:04.507Z</time>
      </trkpt>
      <trkpt lat="43.81638" lon="0.90663">
        <ele>166.086071</ele>
        <time>2023-01-01T13:51:06.490Z</time>
      </trkpt>
      <trkpt lat="43.8163" lon="0.90656">
        <ele>166.071517</ele>
        <time>2023-01-01T13:51:08.490Z</time>
      </trkpt>
      <trkpt lat="43.81622" lon="0.90649">
        <ele>166.057152</ele>
        <time>2023-01-01T13:51:10.491Z</time>
      </trkpt>
      <trkpt lat="43.81614" lon="0.90641">
        <ele>166.04259</ele>
        <time>2023-01-01T13:51:12.491Z</time>
      </trkpt>
      <trkpt lat="43.81606" lon="0.90634">
        <ele>166.027667</ele>
        <time>2023-01-01T13:51:14.489Z</time>
      </trkpt>
      <trkpt lat="43.81598" lon="0.90626">
        <ele>166.013363</ele>
        <time>2023-01-01T13:51:16.481Z</time>
      </trkpt>
      <trkpt lat="43.8159" lon="0.90619">
        <ele>165.999244</ele>
        <time>2023-01-01T13:51:18.490Z</time>
      </trkpt>
      <trkpt lat="43.81582" lon="0.90611">
        <ele>165.984631</ele>
        <time>2023-01-01T13:51:20.492Z</time>
      </trkpt>
      <trkpt lat="43.81574" lon="0.90604">
        <ele>165.97068</ele>
        <time>2023-01-01T13:51:22.490Z</time>
      </trkpt>
      <trkpt lat="43.81566" lon="0.90597">
        <ele>165.956671</ele>
        <time>2023-01-01T13:51:24.520Z</time>
      </trkpt>
      <trkpt lat="43.81558" lon="0.90591">
        <ele>165.942475</ele>
        <time>2023-01-01T13:51:26.509Z</time>
      </trkpt>
      <trkpt lat="43.8155" lon="0.90584">
        <ele>165.92891</ele>
        <time>2023-01-01T13:51:28.492Z</time>
      </trkpt>
      <trkpt lat="43.81539" lon="0.90574">
        <ele>165.908554</ele>
        <time>2023-01-01T13:51:31.509Z</time>
      </trkpt>
      <trkpt lat="43.81531" lon="0.90567">
        <ele>165.894546</ele>
        <time>2023-01-01T13:51:33.503Z</time>
      </trkpt>
      <trkpt lat="43.81523" lon="0.9056">
        <ele>165.879867</ele>
        <time>2023-01-01T13:51:35.509Z</time>
      </trkpt>
      <trkpt lat="43.81515" lon="0.90553">
        <ele>165.866052</ele>
        <time>2023-01-01T13:51:37.498Z</time>
      </trkpt>
      <trkpt lat="43.81507" lon="0.90546">
        <ele>165.871036</ele>
        <time>2023-01-01T13:51:39.506Z</time>
      </trkpt>
      <trkpt lat="43.81496" lon="0.90535">
        <ele>165.89795</ele>
        <time>2023-01-01T13:51:42.684Z</time>
      </trkpt>
      <trkpt lat="43.81488" lon="0.90527">
        <ele>165.916095</ele>
        <time>2023-01-01T13:51:44.490Z</time>
      </trkpt>
      <trkpt lat="43.81481" lon="0.90519">
        <ele>165.934587</ele>
        <time>2023-01-01T13:51:46.491Z</time>
      </trkpt>
      <trkpt lat="43.81474" lon="0.9051">
        <ele>165.952721</ele>
        <time>2023-01-01T13:51:48.506Z</time>
      </trkpt>
      <trkpt lat="43.81464" lon="0.905">
        <ele>165.977656</ele>
        <time>2023-01-01T13:51:51.485Z</time>
      </trkpt>
      <trkpt lat="43.81454" lon="0.9049">
        <ele>166.000761</ele>
        <time>2023-01-01T13:51:54.479Z</time>
      </trkpt>
      <trkpt lat="43.81445" lon="0.90479">
        <ele>166.024364</ele>
        <time>2023-01-01T13:51:57.492Z</time>
      </trkpt>
      <trkpt lat="43.81435" lon="0.90468">
        <ele>166.049032</ele>
        <time>2023-01-01T13:52:00.481Z</time>
      </trkpt>
      <trkpt lat="43.81425" lon="0.90458">
        <ele>166.072291</ele>
        <time>2023-01-01T13:52:03.492Z</time>
      </trkpt>
      <trkpt lat="43.81415" lon="0.90447">
        <ele>166.096399</ele>
        <time>2023-01-01T13:52:06.497Z</time>
      </trkpt>
      <trkpt lat="43.81404" lon="0.90437">
        <ele>166.122108</ele>
        <time>2023-01-01T13:52:09.495Z</time>
      </trkpt>
      <trkpt lat="43.81393" lon="0.90426">
        <ele>166.148933</ele>
        <time>2023-01-01T13:52:12.510Z</time>
      </trkpt>
      <trkpt lat="43.81385" lon="0.90418">
        <ele>166.168261</ele>
        <time>2023-01-01T13:52:14.497Z</time>
      </trkpt>
      <trkpt lat="43.81377" lon="0.9041">
        <ele>166.186788</ele>
        <time>2023-01-01T13:52:16.488Z</time>
      </trkpt>
      <trkpt lat="43.81369" lon="0.90403">
        <ele>166.206498</ele>
        <time>2023-01-01T13:52:18.484Z</time>
      </trkpt>
      <trkpt lat="43.81359" lon="0.90397">
        <ele>165.986295</ele>
        <time>2023-01-01T13:52:20.490Z</time>
      </trkpt>
      <trkpt lat="43.81349" lon="0.9039">
        <ele>165.722576</ele>
        <time>2023-01-01T13:52:22.494Z</time>
      </trkpt>
      <trkpt lat="43.81339" lon="0.90382">
        <ele>165.452833</ele>
        <time>2023-01-01T13:52:24.506Z</time>
      </trkpt>
      <trkpt lat="43.8133" lon="0.90374">
        <ele>165.186296</ele>
        <time>2023-01-01T13:52:26.509Z</time>
      </trkpt>
      <trkpt lat="43.8132" lon="0.90366">
        <ele>164.910418</ele>
        <time>2023-01-01T13:52:28.513Z</time>
      </trkpt>
      <trkpt lat="43.81309" lon="0.90358">
        <ele>164.628375</ele>
        <time>2023-01-01T13:52:30.485Z</time>
      </trkpt>
      <trkpt lat="43.81298" lon="0.90349">
        <ele>164.327498</ele>
        <time>2023-01-01T13:52:32.484Z</time>
      </trkpt>
      <trkpt lat="43.81286" lon="0.9034">
        <ele>163.988125</ele>
        <time>2023-01-01T13:52:34.506Z</time>
      </trkpt>
      <trkpt lat="43.81274" lon="0.9033">
        <ele>163.656322</ele>
        <time>2023-01-01T13:52:36.488Z</time>
      </trkpt>
      <trkpt lat="43.81262" lon="0.90321">
        <ele>163.333686</ele>
        <time>2023-01-01T13:52:38.505Z</time>
      </trkpt>
      <trkpt lat="43.81251" lon="0.90313">
        <ele>163.017362</ele>
        <time>2023-01-01T13:52:40.520Z</time>
      </trkpt>
      <trkpt lat="43.81239" lon="0.90303">
        <ele>162.704745</ele>
        <time>2023-01-01T13:52:42.492Z</time>
      </trkpt>
      <trkpt lat="43.81228" lon="0.90295">
        <ele>162.4068</ele>
        <time>2023-01-01T13:52:44.502Z</time>
      </trkpt>
      <trkpt lat="43.81218" lon="0.90286">
        <ele>162.107121</ele>
        <time>2023-01-01T13:52:46.491Z</time>
      </trkpt>
      <trkpt lat="43.81207" lon="0.90278">
        <ele>162.042544</ele>
        <time>2023-01-01T13:52:48.523Z</time>
      </trkpt>
      <trkpt lat="43.81198" lon="0.90271">
        <ele>162.475621</ele>
        <time>2023-01-01T13:52:50.490Z</time>
      </trkpt>
      <trkpt lat="43.8119" lon="0.90264">
        <ele>162.885171</ele>
        <time>2023-01-01T13:52:52.493Z</time>
      </trkpt>
      <trkpt lat="43.81181" lon="0.90257">
        <ele>163.274685</ele>
        <time>2023-01-01T13:52:54.492Z</time>
      </trkpt>
      <trkpt lat="43.81173" lon="0.9025">
        <ele>163.673279</ele>
        <time>2023-01-01T13:52:56.509Z</time>
      </trkpt>
      <trkpt lat="43.81162" lon="0.9024">
        <ele>164.21319</ele>
        <time>2023-01-01T13:52:59.509Z</time>
      </trkpt>
      <trkpt lat="43.81154" lon="0.90234">
        <ele>164.589714</ele>
        <time>2023-01-01T13:53:01.493Z</time>
      </trkpt>
      <trkpt lat="43.81143" lon="0.90225">
        <ele>165.114511</ele>
        <time>2023-01-01T13:53:04.515Z</time>
      </trkpt>
      <trkpt lat="43.81131" lon="0.90217">
        <ele>165.648001</ele>
        <time>2023-01-01T13:53:07.510Z</time>
      </trkpt>
      <trkpt lat="43.8112" lon="0.90209">
        <ele>166.150762</ele>
        <time>2023-01-01T13:53:10.490Z</time>
      </trkpt>
      <trkpt lat="43.8111" lon="0.90201">
        <ele>166.622322</ele>
        <time>2023-01-01T13:53:13.509Z</time>
      </trkpt>
      <trkpt lat="43.811" lon="0.90193">
        <ele>167.089452</ele>
        <time>2023-01-01T13:53:16.499Z</time>
      </trkpt>
      <trkpt lat="43.8109" lon="0.90186">
        <ele>167.529407</ele>
        <time>2023-01-01T13:53:19.507Z</time>
      </trkpt>
      <trkpt lat="43.81081" lon="0.9018">
        <ele>167.955302</ele>
        <time>2023-01-01T13:53:22.485Z</time>
      </trkpt>
      <trkpt lat="43.81071" lon="0.90172">
        <ele>168.425959</ele>
        <time>2023-01-01T13:53:25.493Z</time>
      </trkpt>
      <trkpt lat="43.8106" lon="0.90164">
        <ele>168.939559</ele>
        <time>2023-01-01T13:53:28.501Z</time>
      </trkpt>
      <trkpt lat="43.81048" lon="0.90155">
        <ele>169.104718</ele>
        <time>2023-01-01T13:53:31.495Z</time>
      </trkpt>
      <trkpt lat="43.81037" lon="0.90146">
        <ele>168.798261</ele>
        <time>2023-01-01T13:53:34.507Z</time>
      </trkpt>
      <trkpt lat="43.81026" lon="0.90137">
        <ele>168.497612</ele>
        <time>2023-01-01T13:53:37.508Z</time>
      </trkpt>
      <trkpt lat="43.81015" lon="0.90127">
        <ele>168.192034</ele>
        <time>2023-01-01T13:53:40.483Z</time>
      </trkpt>
      <trkpt lat="43.81007" lon="0.9012">
        <ele>167.962858</ele>
        <time>2023-01-01T13:53:42.510Z</time>
      </trkpt>
      <trkpt lat="43.80999" lon="0.90112">
        <ele>167.731508</ele>
        <time>2023-01-01T13:53:44.511Z</time>
      </trkpt>
      <trkpt lat="43.80991" lon="0.90105">
        <ele>167.501949</ele>
        <time>2023-01-01T13:53:46.489Z</time>
      </trkpt>
      <trkpt lat="43.80983" lon="0.90098">
        <ele>167.290265</ele>
        <time>2023-01-01T13:53:48.500Z</time>
      </trkpt>
      <trkpt lat="43.80975" lon="0.90091">
        <ele>167.060706</ele>
        <time>2023-01-01T13:53:50.515Z</time>
      </trkpt>
      <trkpt lat="43.80963" lon="0.90082">
        <ele>166.732483</ele>
        <time>2023-01-01T13:53:53.508Z</time>
      </trkpt>
      <trkpt lat="43.80955" lon="0.90076">
        <ele>166.50971</ele>
        <time>2023-01-01T13:53:55.514Z</time>
      </trkpt>
      <trkpt lat="43.80946" lon="0.90068">
        <ele>166.265625</ele>
        <time>2023-01-01T13:53:57.491Z</time>
      </trkpt>
      <trkpt lat="43.80938" lon="0.90061">
        <ele>166.029537</ele>
        <time>2023-01-01T13:53:59.506Z</time>
      </trkpt>
      <trkpt lat="43.80929" lon="0.90053">
        <ele>165.791263</ele>
        <time>2023-01-01T13:54:01.494Z</time>
      </trkpt>
      <trkpt lat="43.8092" lon="0.90047">
        <ele>165.546691</ele>
        <time>2023-01-01T13:54:03.498Z</time>
      </trkpt>
      <trkpt lat="43.80911" lon="0.90041">
        <ele>165.326299</ele>
        <time>2023-01-01T13:54:05.498Z</time>
      </trkpt>
      <trkpt lat="43.80904" lon="0.90033">
        <ele>165.100035</ele>
        <time>2023-01-01T13:54:07.491Z</time>
      </trkpt>
      <trkpt lat="43.80894" lon="0.90028">
        <ele>164.957658</ele>
        <time>2023-01-01T13:54:09.522Z</time>
      </trkpt>
      <trkpt lat="43.80886" lon="0.90021">
        <ele>164.89925</ele>
        <time>2023-01-01T13:54:11.492Z</time>
      </trkpt>
      <trkpt lat="43.80875" lon="0.90012">
        <ele>164.822562</ele>
        <time>2023-01-01T13:54:14.492Z</time>
      </trkpt>
      <trkpt lat="43.80864" lon="0.90004">
        <ele>164.745186</ele>
        <time>2023-01-01T13:54:17.487Z</time>
      </trkpt>
      <trkpt lat="43.80854" lon="0.89996">
        <ele>164.673816</ele>
        <time>2023-01-01T13:54:20.507Z</time>
      </trkpt>
      <trkpt lat="43.80845" lon="0.89989">
        <ele>164.611831</ele>
        <time>2023-01-01T13:54:23.505Z</time>
      </trkpt>
      <trkpt lat="43.80835" lon="0.89983">
        <ele>164.548915</ele>
        <time>2023-01-01T13:54:26.515Z</time>
      </trkpt>
      <trkpt lat="43.80822" lon="0.89975">
        <ele>164.464995</ele>
        <time>2023-01-01T13:54:29.490Z</time>
      </trkpt>
      <trkpt lat="43.80813" lon="0.89969">
        <ele>164.404425</ele>
        <time>2023-01-01T13:54:31.489Z</time>
      </trkpt>
      <trkpt lat="43.80804" lon="0.89961">
        <ele>164.33901</ele>
        <time>2023-01-01T13:54:33.492Z</time>
      </trkpt>
      <trkpt lat="43.80796" lon="0.89952">
        <ele>164.277516</ele>
        <time>2023-01-01T13:54:35.496Z</time>
      </trkpt>
      <trkpt lat="43.80787" lon="0.89944">
        <ele>164.212291</ele>
        <time>2023-01-01T13:54:37.491Z</time>
      </trkpt>
      <trkpt lat="43.80778" lon="0.89936">
        <ele>164.147808</ele>
        <time>2023-01-01T13:54:39.509Z</time>
      </trkpt>
      <trkpt lat="43.80768" lon="0.89928">
        <ele>164.076863</ele>
        <time>2023-01-01T13:54:41.495Z</time>
      </trkpt>
      <trkpt lat="43.80757" lon="0.8992">
        <ele>164.005579</ele>
        <time>2023-01-01T13:54:43.506Z</time>
      </trkpt>
      <trkpt lat="43.80747" lon="0.89913">
        <ele>163.934589</ele>
        <time>2023-01-01T13:54:45.500Z</time>
      </trkpt>
      <trkpt lat="43.80738" lon="0.89906">
        <ele>163.962789</ele>
        <time>2023-01-01T13:54:47.486Z</time>
      </trkpt>
      <trkpt lat="43.80729" lon="0.899">
        <ele>164.067985</ele>
        <time>2023-01-01T13:54:49.502Z</time>
      </trkpt>
      <trkpt lat="43.80718" lon="0.8989">
        <ele>164.202119</ele>
        <time>2023-01-01T13:54:52.482Z</time>
      </trkpt>
      <trkpt lat="43.80709" lon="0.89882">
        <ele>164.321729</ele>
        <time>2023-01-01T13:54:55.509Z</time>
      </trkpt>
      <trkpt lat="43.807" lon="0.89875">
        <ele>164.429345</ele>
        <time>2023-01-01T13:54:58.504Z</time>
      </trkpt>
      <trkpt lat="43.80692" lon="0.89868">
        <ele>164.535162</ele>
        <time>2023-01-01T13:55:01.490Z</time>
      </trkpt>
      <trkpt lat="43.80683" lon="0.89861">
        <ele>164.641536</ele>
        <time>2023-01-01T13:55:04.490Z</time>
      </trkpt>
      <trkpt lat="43.80674" lon="0.89854">
        <ele>164.751083</ele>
        <time>2023-01-01T13:55:07.489Z</time>
      </trkpt>
      <trkpt lat="43.80665" lon="0.89847">
        <ele>164.862292</ele>
        <time>2023-01-01T13:55:10.510Z</time>
      </trkpt>
      <trkpt lat="43.80655" lon="0.8984">
        <ele>164.984108</ele>
        <time>2023-01-01T13:55:13.484Z</time>
      </trkpt>
      <trkpt lat="43.80644" lon="0.89833">
        <ele>165.104504</ele>
        <time>2023-01-01T13:55:16.493Z</time>
      </trkpt>
      <trkpt lat="43.80635" lon="0.89826">
        <ele>165.222785</ele>
        <time>2023-01-01T13:55:19.511Z</time>
      </trkpt>
      <trkpt lat="43.80625" lon="0.89818">
        <ele>165.336964</ele>
        <time>2023-01-01T13:55:22.501Z</time>
      </trkpt>
      <trkpt lat="43.80616" lon="0.8981">
        <ele>165.452928</ele>
        <time>2023-01-01T13:55:25.505Z</time>
      </trkpt>
      <trkpt lat="43.80605" lon="0.89803">
        <ele>165.586113</ele>
        <time>2023-01-01T13:55:28.484Z</time>
      </trkpt>
      <trkpt lat="43.80593" lon="0.89796">
        <ele>165.721591</ele>
        <time>2023-01-01T13:55:31.495Z</time>
      </trkpt>
      <trkpt lat="43.80581" lon="0.89789">
        <ele>165.840021</ele>
        <time>2023-01-01T13:55:34.484Z</time>
      </trkpt>
      <trkpt lat="43.8057" lon="0.89784">
        <ele>165.90795</ele>
        <time>2023-01-01T13:55:37.486Z</time>
      </trkpt>
      <trkpt lat="43.80561" lon="0.89777">
        <ele>165.969925</ele>
        <time>2023-01-01T13:55:40.489Z</time>
      </trkpt>
      <trkpt lat="43.8055" lon="0.89771">
        <ele>166.035961</ele>
        <time>2023-01-01T13:55:44.494Z</time>
      </trkpt>
      <trkpt lat="43.8054" lon="0.89766">
        <ele>166.097115</ele>
        <time>2023-01-01T13:55:48.505Z</time>
      </trkpt>
      <trkpt lat="43.80529" lon="0.8976">
        <ele>166.169921</ele>
        <time>2023-01-01T13:55:52.476Z</time>
      </trkpt>
      <trkpt lat="43.80519" lon="0.89755">
        <ele>166.23383</ele>
        <time>2023-01-01T13:55:55.475Z</time>
      </trkpt>
      <trkpt lat="43.80508" lon="0.89749">
        <ele>166.301745</ele>
        <time>2023-01-01T13:55:58.489Z</time>
      </trkpt>
      <trkpt lat="43.80497" lon="0.89743">
        <ele>166.370971</ele>
        <time>2023-01-01T13:56:01.492Z</time>
      </trkpt>
      <trkpt lat="43.80486" lon="0.89738">
        <ele>166.438895</ele>
        <time>2023-01-01T13:56:04.489Z</time>
      </trkpt>
      <trkpt lat="43.80474" lon="0.89732">
        <ele>166.513317</ele>
        <time>2023-01-01T13:56:07.509Z</time>
      </trkpt>
      <trkpt lat="43.80462" lon="0.89727">
        <ele>166.585531</ele>
        <time>2023-01-01T13:56:10.503Z</time>
      </trkpt>
      <trkpt lat="43.80453" lon="0.8972">
        <ele>166.647376</ele>
        <time>2023-01-01T13:56:13.501Z</time>
      </trkpt>
      <trkpt lat="43.80444" lon="0.89713">
        <ele>166.705278</ele>
        <time>2023-01-01T13:56:16.502Z</time>
      </trkpt>
      <trkpt lat="43.80435" lon="0.89708">
        <ele>166.764787</ele>
        <time>2023-01-01T13:56:20.491Z</time>
      </trkpt>
      <trkpt lat="43.80424" lon="0.89702">
        <ele>166.832479</ele>
        <time>2023-01-01T13:56:24.485Z</time>
      </trkpt>
      <trkpt lat="43.80413" lon="0.89693">
        <ele>166.957832</ele>
        <time>2023-01-01T13:56:28.510Z</time>
      </trkpt>
      <trkpt lat="43.80402" lon="0.89688">
        <ele>167.138077</ele>
        <time>2023-01-01T13:56:31.495Z</time>
      </trkpt>
      <trkpt lat="43.80391" lon="0.89683">
        <ele>167.306041</ele>
        <time>2023-01-01T13:56:34.511Z</time>
      </trkpt>
      <trkpt lat="43.80381" lon="0.89677">
        <ele>167.468539</ele>
        <time>2023-01-01T13:56:37.488Z</time>
      </trkpt>
      <trkpt lat="43.80372" lon="0.89672">
        <ele>167.612352</ele>
        <time>2023-01-01T13:56:40.487Z</time>
      </trkpt>
      <trkpt lat="43.80363" lon="0.89667">
        <ele>167.754783</ele>
        <time>2023-01-01T13:56:43.493Z</time>
      </trkpt>
      <trkpt lat="43.80355" lon="0.89662">
        <ele>167.891884</ele>
        <time>2023-01-01T13:56:46.487Z</time>
      </trkpt>
      <trkpt lat="43.80346" lon="0.89657">
        <ele>168.031434</ele>
        <time>2023-01-01T13:56:49.493Z</time>
      </trkpt>
      <trkpt lat="43.80336" lon="0.89651">
        <ele>168.189922</ele>
        <time>2023-01-01T13:56:52.484Z</time>
      </trkpt>
      <trkpt lat="43.80327" lon="0.89646">
        <ele>168.338674</ele>
        <time>2023-01-01T13:56:55.491Z</time>
      </trkpt>
      <trkpt lat="43.80318" lon="0.89642">
        <ele>168.473252</ele>
        <time>2023-01-01T13:56:58.484Z</time>
      </trkpt>
      <trkpt lat="43.80309" lon="0.89637">
        <ele>168.617066</ele>
        <time>2023-01-01T13:57:02.499Z</time>
      </trkpt>
      <trkpt lat="43.80299" lon="0.89632">
        <ele>168.787556</ele>
        <time>2023-01-01T13:57:06.489Z</time>
      </trkpt>
      <trkpt lat="43.8029" lon="0.89627">
        <ele>168.931991</ele>
        <time>2023-01-01T13:57:09.483Z</time>
      </trkpt>
      <trkpt lat="43.8028" lon="0.89622">
        <ele>169.085913</ele>
        <time>2023-01-01T13:57:12.496Z</time>
      </trkpt>
      <trkpt lat="43.80269" lon="0.89617">
        <ele>169.253149</ele>
        <time>2023-01-01T13:57:15.485Z</time>
      </trkpt>
      <trkpt lat="43.80259" lon="0.89612">
        <ele>169.411259</ele>
        <time>2023-01-01T13:57:18.490Z</time>
      </trkpt>
      <trkpt lat="43.80249" lon="0.89605">
        <ele>169.56489</ele>
        <time>2023-01-01T13:57:21.493Z</time>
      </trkpt>
      <trkpt lat="43.80239" lon="0.89599">
        <ele>169.685199</ele>
        <time>2023-01-01T13:57:24.486Z</time>
      </trkpt>
      <trkpt lat="43.80228" lon="0.89593">
        <ele>169.811358</ele>
        <time>2023-01-01T13:57:27.489Z</time>
      </trkpt>
      <trkpt lat="43.80217" lon="0.89587">
        <ele>169.938098</ele>
        <time>2023-01-01T13:57:30.486Z</time>
      </trkpt>
      <trkpt lat="43.80205" lon="0.89581">
        <ele>170.064392</ele>
        <time>2023-01-01T13:57:33.511Z</time>
      </trkpt>
      <trkpt lat="43.80194" lon="0.89574">
        <ele>170.196412</ele>
        <time>2023-01-01T13:57:36.492Z</time>
      </trkpt>
      <trkpt lat="43.80182" lon="0.89569">
        <ele>170.326375</ele>
        <time>2023-01-01T13:57:39.483Z</time>
      </trkpt>
      <trkpt lat="43.80171" lon="0.89562">
        <ele>170.4503</ele>
        <time>2023-01-01T13:57:42.495Z</time>
      </trkpt>
      <trkpt lat="43.8016" lon="0.89557">
        <ele>170.57185</ele>
        <time>2023-01-01T13:57:45.484Z</time>
      </trkpt>
      <trkpt lat="43.80149" lon="0.89551">
        <ele>170.694589</ele>
        <time>2023-01-01T13:57:48.492Z</time>
      </trkpt>
      <trkpt lat="43.80139" lon="0.89546">
        <ele>170.81614</ele>
        <time>2023-01-01T13:57:51.490Z</time>
      </trkpt>
      <trkpt lat="43.80129" lon="0.8954">
        <ele>170.927254</ele>
        <time>2023-01-01T13:57:54.495Z</time>
      </trkpt>
      <trkpt lat="43.80119" lon="0.89534">
        <ele>171.037061</ele>
        <time>2023-01-01T13:57:57.484Z</time>
      </trkpt>
      <trkpt lat="43.80109" lon="0.89528">
        <ele>171.153312</ele>
        <time>2023-01-01T13:58:00.485Z</time>
      </trkpt>
      <trkpt lat="43.80098" lon="0.89522">
        <ele>171.275976</ele>
        <time>2023-01-01T13:58:03.503Z</time>
      </trkpt>
      <trkpt lat="43.80087" lon="0.89516">
        <ele>171.399615</ele>
        <time>2023-01-01T13:58:06.510Z</time>
      </trkpt>
      <trkpt lat="43.80076" lon="0.8951">
        <ele>171.365185</ele>
        <time>2023-01-01T13:58:09.487Z</time>
      </trkpt>
      <trkpt lat="43.80065" lon="0.89504">
        <ele>171.26537</ele>
        <time>2023-01-01T13:58:12.500Z</time>
      </trkpt>
      <trkpt lat="43.80053" lon="0.89498">
        <ele>171.164027</ele>
        <time>2023-01-01T13:58:15.503Z</time>
      </trkpt>
      <trkpt lat="43.80041" lon="0.89493">
        <ele>171.060535</ele>
        <time>2023-01-01T13:58:18.490Z</time>
      </trkpt>
      <trkpt lat="43.80029" lon="0.89488">
        <ele>170.955679</ele>
        <time>2023-01-01T13:58:21.487Z</time>
      </trkpt>
      <trkpt lat="43.80016" lon="0.89484">
        <ele>170.849258</ele>
        <time>2023-01-01T13:58:24.490Z</time>
      </trkpt>
      <trkpt lat="43.80004" lon="0.89479">
        <ele>170.742354</ele>
        <time>2023-01-01T13:58:27.509Z</time>
      </trkpt>
      <trkpt lat="43.79992" lon="0.89474">
        <ele>170.64119</ele>
        <time>2023-01-01T13:58:30.490Z</time>
      </trkpt>
      <trkpt lat="43.79979" lon="0.8947">
        <ele>170.530852</ele>
        <time>2023-01-01T13:58:33.483Z</time>
      </trkpt>
      <trkpt lat="43.7997" lon="0.89468">
        <ele>170.453119</ele>
        <time>2023-01-01T13:58:35.509Z</time>
      </trkpt>
      <trkpt lat="43.7996" lon="0.89464">
        <ele>170.370114</ele>
        <time>2023-01-01T13:58:37.496Z</time>
      </trkpt>
      <trkpt lat="43.79951" lon="0.89461">
        <ele>170.288449</ele>
        <time>2023-01-01T13:58:39.511Z</time>
      </trkpt>
      <trkpt lat="43.7994" lon="0.89458">
        <ele>170.202941</ele>
        <time>2023-01-01T13:58:41.509Z</time>
      </trkpt>
      <trkpt lat="43.7993" lon="0.89455">
        <ele>170.117166</ele>
        <time>2023-01-01T13:58:43.512Z</time>
      </trkpt>
      <trkpt lat="43.79921" lon="0.89451">
        <ele>170.040695</ele>
        <time>2023-01-01T13:58:45.510Z</time>
      </trkpt>
      <trkpt lat="43.79912" lon="0.89448">
        <ele>169.963741</ele>
        <time>2023-01-01T13:58:47.508Z</time>
      </trkpt>
      <trkpt lat="43.799" lon="0.89444">
        <ele>169.680697</ele>
        <time>2023-01-01T13:58:50.484Z</time>
      </trkpt>
      <trkpt lat="43.79891" lon="0.89441">
        <ele>169.461442</ele>
        <time>2023-01-01T13:58:52.504Z</time>
      </trkpt>
      <trkpt lat="43.79878" lon="0.89438">
        <ele>169.144432</ele>
        <time>2023-01-01T13:58:55.486Z</time>
      </trkpt>
      <trkpt lat="43.79865" lon="0.89433">
        <ele>168.827864</ele>
        <time>2023-01-01T13:58:58.498Z</time>
      </trkpt>
      <trkpt lat="43.79855" lon="0.89432">
        <ele>168.605678</ele>
        <time>2023-01-01T13:59:00.505Z</time>
      </trkpt>
      <trkpt lat="43.79846" lon="0.89429">
        <ele>168.381612</ele>
        <time>2023-01-01T13:59:02.508Z</time>
      </trkpt>
      <trkpt lat="43.79837" lon="0.89427">
        <ele>168.160481</ele>
        <time>2023-01-01T13:59:04.504Z</time>
      </trkpt>
      <trkpt lat="43.79825" lon="0.89423">
        <ele>167.875046</ele>
        <time>2023-01-01T13:59:07.508Z</time>
      </trkpt>
      <trkpt lat="43.79815" lon="0.89419">
        <ele>167.623489</ele>
        <time>2023-01-01T13:59:10.489Z</time>
      </trkpt>
      <trkpt lat="43.79805" lon="0.89413">
        <ele>167.371177</ele>
        <time>2023-01-01T13:59:14.500Z</time>
      </trkpt>
      <trkpt lat="43.79797" lon="0.89409">
        <ele>167.157428</ele>
        <time>2023-01-01T13:59:18.491Z</time>
      </trkpt>
      <trkpt lat="43.79785" lon="0.89403">
        <ele>166.873743</ele>
        <time>2023-01-01T13:59:22.487Z</time>
      </trkpt>
      <trkpt lat="43.79775" lon="0.89398">
        <ele>166.618269</ele>
        <time>2023-01-01T13:59:25.494Z</time>
      </trkpt>
      <trkpt lat="43.79765" lon="0.89393">
        <ele>166.355678</ele>
        <time>2023-01-01T13:59:28.496Z</time>
      </trkpt>
      <trkpt lat="43.79755" lon="0.89391">
        <ele>166.128967</ele>
        <time>2023-01-01T13:59:31.500Z</time>
      </trkpt>
      <trkpt lat="43.79746" lon="0.89391">
        <ele>165.915686</ele>
        <time>2023-01-01T13:59:37.492Z</time>
      </trkpt>
      <trkpt lat="43.79747" lon="0.8939">
        <ele>165.901805</ele>
        <time>2023-01-01T13:59:49.018Z</time>
      </trkpt>
      <trkpt lat="43.79736" lon="0.89398">
        <ele>165.633054</ele>
        <time>2023-01-01T14:08:14.484Z</time>
      </trkpt>
      <trkpt lat="43.79729" lon="0.89406">
        <ele>165.425612</ele>
        <time>2023-01-01T14:08:18.492Z</time>
      </trkpt>
      <trkpt lat="43.79723" lon="0.89415">
        <ele>165.230683</ele>
        <time>2023-01-01T14:08:22.491Z</time>
      </trkpt>
      <trkpt lat="43.79716" lon="0.89425">
        <ele>165.020153</ele>
        <time>2023-01-01T14:08:28.490Z</time>
      </trkpt>
      <trkpt lat="43.79707" lon="0.89428">
        <ele>164.827092</ele>
        <time>2023-01-01T14:08:32.487Z</time>
      </trkpt>
      <trkpt lat="43.79697" lon="0.89429">
        <ele>164.603297</ele>
        <time>2023-01-01T14:08:36.495Z</time>
      </trkpt>
      <trkpt lat="43.79687" lon="0.8943">
        <ele>164.394704</ele>
        <time>2023-01-01T14:08:39.488Z</time>
      </trkpt>
      <trkpt lat="43.79676" lon="0.89431">
        <ele>164.170353</ele>
        <time>2023-01-01T14:08:42.491Z</time>
      </trkpt>
      <trkpt lat="43.79666" lon="0.89432">
        <ele>163.940436</ele>
        <time>2023-01-01T14:08:45.487Z</time>
      </trkpt>
      <trkpt lat="43.79654" lon="0.89433">
        <ele>163.693513</ele>
        <time>2023-01-01T14:08:48.495Z</time>
      </trkpt>
      <trkpt lat="43.79641" lon="0.89434">
        <ele>163.398519</ele>
        <time>2023-01-01T14:08:51.491Z</time>
      </trkpt>
      <trkpt lat="43.79631" lon="0.89434">
        <ele>163.198969</ele>
        <time>2023-01-01T14:08:53.498Z</time>
      </trkpt>
      <trkpt lat="43.79622" lon="0.89435">
        <ele>163.001547</ele>
        <time>2023-01-01T14:08:55.492Z</time>
      </trkpt>
      <trkpt lat="43.79612" lon="0.89435">
        <ele>162.795281</ele>
        <time>2023-01-01T14:08:57.498Z</time>
      </trkpt>
      <trkpt lat="43.79603" lon="0.89435">
        <ele>162.582773</ele>
        <time>2023-01-01T14:08:59.493Z</time>
      </trkpt>
      <trkpt lat="43.79592" lon="0.89434">
        <ele>162.359193</ele>
        <time>2023-01-01T14:09:01.507Z</time>
      </trkpt>
      <trkpt lat="43.79581" lon="0.89434">
        <ele>162.120947</ele>
        <time>2023-01-01T14:09:03.495Z</time>
      </trkpt>
      <trkpt lat="43.7957" lon="0.89434">
        <ele>161.876105</ele>
        <time>2023-01-01T14:09:05.492Z</time>
      </trkpt>
      <trkpt lat="43.79557" lon="0.89433">
        <ele>161.706191</ele>
        <time>2023-01-01T14:09:07.514Z</time>
      </trkpt>
      <trkpt lat="43.79545" lon="0.89432">
        <ele>161.565795</ele>
        <time>2023-01-01T14:09:09.510Z</time>
      </trkpt>
      <trkpt lat="43.79533" lon="0.89432">
        <ele>161.419729</ele>
        <time>2023-01-01T14:09:11.499Z</time>
      </trkpt>
      <trkpt lat="43.7952" lon="0.89431">
        <ele>161.270131</ele>
        <time>2023-01-01T14:09:13.510Z</time>
      </trkpt>
      <trkpt lat="43.79508" lon="0.89431">
        <ele>161.125272</ele>
        <time>2023-01-01T14:09:15.507Z</time>
      </trkpt>
      <trkpt lat="43.79496" lon="0.8943">
        <ele>160.984925</ele>
        <time>2023-01-01T14:09:17.500Z</time>
      </trkpt>
      <trkpt lat="43.79484" lon="0.8943">
        <ele>160.847118</ele>
        <time>2023-01-01T14:09:19.490Z</time>
      </trkpt>
      <trkpt lat="43.79473" lon="0.8943">
        <ele>160.719862</ele>
        <time>2023-01-01T14:09:21.491Z</time>
      </trkpt>
      <trkpt lat="43.79463" lon="0.89429">
        <ele>160.603026</ele>
        <time>2023-01-01T14:09:23.500Z</time>
      </trkpt>
      <trkpt lat="43.79453" lon="0.89428">
        <ele>160.485213</ele>
        <time>2023-01-01T14:09:25.505Z</time>
      </trkpt>
      <trkpt lat="43.79444" lon="0.89429">
        <ele>160.374503</ele>
        <time>2023-01-01T14:09:27.494Z</time>
      </trkpt>
      <trkpt lat="43.79435" lon="0.89429">
        <ele>160.263805</ele>
        <time>2023-01-01T14:09:29.511Z</time>
      </trkpt>
      <trkpt lat="43.79425" lon="0.89429">
        <ele>160.149571</ele>
        <time>2023-01-01T14:09:31.500Z</time>
      </trkpt>
      <trkpt lat="43.79415" lon="0.89428">
        <ele>160.031698</ele>
        <time>2023-01-01T14:09:33.506Z</time>
      </trkpt>
      <trkpt lat="43.79405" lon="0.89428">
        <ele>159.918565</ele>
        <time>2023-01-01T14:09:35.505Z</time>
      </trkpt>
      <trkpt lat="43.79396" lon="0.89427">
        <ele>159.804179</ele>
        <time>2023-01-01T14:09:37.499Z</time>
      </trkpt>
      <trkpt lat="43.79386" lon="0.89427">
        <ele>159.75799</ele>
        <time>2023-01-01T14:09:39.495Z</time>
      </trkpt>
      <trkpt lat="43.79376" lon="0.89427">
        <ele>159.970925</ele>
        <time>2023-01-01T14:09:41.492Z</time>
      </trkpt>
      <trkpt lat="43.79366" lon="0.89427">
        <ele>160.183821</ele>
        <time>2023-01-01T14:09:43.502Z</time>
      </trkpt>
      <trkpt lat="43.79356" lon="0.89426">
        <ele>160.394778</ele>
        <time>2023-01-01T14:09:45.488Z</time>
      </trkpt>
      <trkpt lat="43.79347" lon="0.89426">
        <ele>160.609845</ele>
        <time>2023-01-01T14:09:47.492Z</time>
      </trkpt>
      <trkpt lat="43.79337" lon="0.89426">
        <ele>160.814006</ele>
        <time>2023-01-01T14:09:49.497Z</time>
      </trkpt>
      <trkpt lat="43.79328" lon="0.89425">
        <ele>161.020626</ele>
        <time>2023-01-01T14:09:51.500Z</time>
      </trkpt>
      <trkpt lat="43.79318" lon="0.89426">
        <ele>161.222908</ele>
        <time>2023-01-01T14:09:53.508Z</time>
      </trkpt>
      <trkpt lat="43.79309" lon="0.89425">
        <ele>161.42728</ele>
        <time>2023-01-01T14:09:55.510Z</time>
      </trkpt>
      <trkpt lat="43.79296" lon="0.89424">
        <ele>161.716751</ele>
        <time>2023-01-01T14:09:58.509Z</time>
      </trkpt>
      <trkpt lat="43.79282" lon="0.89423">
        <ele>162.005955</ele>
        <time>2023-01-01T14:10:01.490Z</time>
      </trkpt>
      <trkpt lat="43.79269" lon="0.89423">
        <ele>162.288315</ele>
        <time>2023-01-01T14:10:04.493Z</time>
      </trkpt>
      <trkpt lat="43.79257" lon="0.89422">
        <ele>162.564361</ele>
        <time>2023-01-01T14:10:07.520Z</time>
      </trkpt>
      <trkpt lat="43.79245" lon="0.89422">
        <ele>162.810028</ele>
        <time>2023-01-01T14:10:10.485Z</time>
      </trkpt>
      <trkpt lat="43.79234" lon="0.89422">
        <ele>163.051111</ele>
        <time>2023-01-01T14:10:13.502Z</time>
      </trkpt>
      <trkpt lat="43.79223" lon="0.89421">
        <ele>163.305263</ele>
        <time>2023-01-01T14:10:16.507Z</time>
      </trkpt>
      <trkpt lat="43.7921" lon="0.89421">
        <ele>163.57025</ele>
        <time>2023-01-01T14:10:19.503Z</time>
      </trkpt>
      <trkpt lat="43.79198" lon="0.89421">
        <ele>163.363207</ele>
        <time>2023-01-01T14:10:22.489Z</time>
      </trkpt>
      <trkpt lat="43.79185" lon="0.89421">
        <ele>163.024374</ele>
        <time>2023-01-01T14:10:25.486Z</time>
      </trkpt>
      <trkpt lat="43.79176" lon="0.89421">
        <ele>162.771529</ele>
        <time>2023-01-01T14:10:27.508Z</time>
      </trkpt>
      <trkpt lat="43.79165" lon="0.8942">
        <ele>162.508178</ele>
        <time>2023-01-01T14:10:29.500Z</time>
      </trkpt>
      <trkpt lat="43.79156" lon="0.8942">
        <ele>162.250141</ele>
        <time>2023-01-01T14:10:31.522Z</time>
      </trkpt>
      <trkpt lat="43.79145" lon="0.8942">
        <ele>161.981679</ele>
        <time>2023-01-01T14:10:33.490Z</time>
      </trkpt>
      <trkpt lat="43.79135" lon="0.8942">
        <ele>161.721043</ele>
        <time>2023-01-01T14:10:35.506Z</time>
      </trkpt>
      <trkpt lat="43.79125" lon="0.8942">
        <ele>161.457739</ele>
        <time>2023-01-01T14:10:37.508Z</time>
      </trkpt>
      <trkpt lat="43.79115" lon="0.89419">
        <ele>161.193952</ele>
        <time>2023-01-01T14:10:39.510Z</time>
      </trkpt>
      <trkpt lat="43.79103" lon="0.89419">
        <ele>160.870741</ele>
        <time>2023-01-01T14:10:42.499Z</time>
      </trkpt>
      <trkpt lat="43.79092" lon="0.89418">
        <ele>160.588626</ele>
        <time>2023-01-01T14:10:44.510Z</time>
      </trkpt>
      <trkpt lat="43.79083" lon="0.89418">
        <ele>160.346227</ele>
        <time>2023-01-01T14:10:46.508Z</time>
      </trkpt>
      <trkpt lat="43.79073" lon="0.89418">
        <ele>160.098365</ele>
        <time>2023-01-01T14:10:48.504Z</time>
      </trkpt>
      <trkpt lat="43.79061" lon="0.89417">
        <ele>159.777511</ele>
        <time>2023-01-01T14:10:51.491Z</time>
      </trkpt>
      <trkpt lat="43.79049" lon="0.89416">
        <ele>159.482896</ele>
        <time>2023-01-01T14:10:54.491Z</time>
      </trkpt>
      <trkpt lat="43.79039" lon="0.89416">
        <ele>159.22209</ele>
        <time>2023-01-01T14:10:57.486Z</time>
      </trkpt>
      <trkpt lat="43.79029" lon="0.89415">
        <ele>158.953311</ele>
        <time>2023-01-01T14:11:00.512Z</time>
      </trkpt>
      <trkpt lat="43.79018" lon="0.89414">
        <ele>159.040144</ele>
        <time>2023-01-01T14:11:03.489Z</time>
      </trkpt>
      <trkpt lat="43.79007" lon="0.89411">
        <ele>159.16866</ele>
        <time>2023-01-01T14:11:06.490Z</time>
      </trkpt>
      <trkpt lat="43.78995" lon="0.89409">
        <ele>159.303519</ele>
        <time>2023-01-01T14:11:09.499Z</time>
      </trkpt>
      <trkpt lat="43.78983" lon="0.89405">
        <ele>159.43126</ele>
        <time>2023-01-01T14:11:12.490Z</time>
      </trkpt>
      <trkpt lat="43.78971" lon="0.89402">
        <ele>159.566102</ele>
        <time>2023-01-01T14:11:15.502Z</time>
      </trkpt>
      <trkpt lat="43.7896" lon="0.89398">
        <ele>159.69545</ele>
        <time>2023-01-01T14:11:18.507Z</time>
      </trkpt>
      <trkpt lat="43.78949" lon="0.89393">
        <ele>159.821818</ele>
        <time>2023-01-01T14:11:21.507Z</time>
      </trkpt>
      <trkpt lat="43.78938" lon="0.8939">
        <ele>159.942266</ele>
        <time>2023-01-01T14:11:24.509Z</time>
      </trkpt>
      <trkpt lat="43.78927" lon="0.89385">
        <ele>160.067875</ele>
        <time>2023-01-01T14:11:27.504Z</time>
      </trkpt>
      <trkpt lat="43.78917" lon="0.89379">
        <ele>160.19452</ele>
        <time>2023-01-01T14:11:30.506Z</time>
      </trkpt>
      <trkpt lat="43.78906" lon="0.89375">
        <ele>160.314416</ele>
        <time>2023-01-01T14:11:33.495Z</time>
      </trkpt>
      <trkpt lat="43.78896" lon="0.89369">
        <ele>160.438855</ele>
        <time>2023-01-01T14:11:36.502Z</time>
      </trkpt>
      <trkpt lat="43.78885" lon="0.89362">
        <ele>160.563513</ele>
        <time>2023-01-01T14:11:39.483Z</time>
      </trkpt>
      <trkpt lat="43.78875" lon="0.89356">
        <ele>160.689179</ele>
        <time>2023-01-01T14:11:42.507Z</time>
      </trkpt>
      <trkpt lat="43.78864" lon="0.89349">
        <ele>160.816809</ele>
        <time>2023-01-01T14:11:45.506Z</time>
      </trkpt>
      <trkpt lat="43.78853" lon="0.89343">
        <ele>160.943091</ele>
        <time>2023-01-01T14:11:48.506Z</time>
      </trkpt>
      <trkpt lat="43.78842" lon="0.89336">
        <ele>161.063895</ele>
        <time>2023-01-01T14:11:51.490Z</time>
      </trkpt>
      <trkpt lat="43.78832" lon="0.89329">
        <ele>161.178089</ele>
        <time>2023-01-01T14:11:54.508Z</time>
      </trkpt>
      <trkpt lat="43.78822" lon="0.89323">
        <ele>161.29076</ele>
        <time>2023-01-01T14:11:57.508Z</time>
      </trkpt>
      <trkpt lat="43.78811" lon="0.89316">
        <ele>161.411564</ele>
        <time>2023-01-01T14:12:00.488Z</time>
      </trkpt>
      <trkpt lat="43.788" lon="0.89309">
        <ele>161.529957</ele>
        <time>2023-01-01T14:12:03.508Z</time>
      </trkpt>
      <trkpt lat="43.78789" lon="0.89302">
        <ele>161.648374</ele>
        <time>2023-01-01T14:12:06.488Z</time>
      </trkpt>
      <trkpt lat="43.78778" lon="0.89294">
        <ele>161.771898</ele>
        <time>2023-01-01T14:12:09.493Z</time>
      </trkpt>
      <trkpt lat="43.78766" lon="0.89287">
        <ele>161.898124</ele>
        <time>2023-01-01T14:12:12.488Z</time>
      </trkpt>
      <trkpt lat="43.78754" lon="0.89279">
        <ele>162.029176</ele>
        <time>2023-01-01T14:12:15.501Z</time>
      </trkpt>
      <trkpt lat="43.78743" lon="0.89272">
        <ele>162.155402</ele>
        <time>2023-01-01T14:12:18.513Z</time>
      </trkpt>
      <trkpt lat="43.78732" lon="0.89265">
        <ele>162.274099</ele>
        <time>2023-01-01T14:12:21.496Z</time>
      </trkpt>
      <trkpt lat="43.78722" lon="0.89258">
        <ele>162.390097</ele>
        <time>2023-01-01T14:12:24.482Z</time>
      </trkpt>
      <trkpt lat="43.78711" lon="0.89251">
        <ele>162.505199</ele>
        <time>2023-01-01T14:12:27.494Z</time>
      </trkpt>
      <trkpt lat="43.78701" lon="0.89244">
        <ele>162.619407</ele>
        <time>2023-01-01T14:12:30.490Z</time>
      </trkpt>
      <trkpt lat="43.78691" lon="0.89237">
        <ele>162.752669</ele>
        <time>2023-01-01T14:12:33.495Z</time>
      </trkpt>
      <trkpt lat="43.7868" lon="0.8923">
        <ele>162.935604</ele>
        <time>2023-01-01T14:12:36.498Z</time>
      </trkpt>
      <trkpt lat="43.78669" lon="0.89223">
        <ele>163.119443</ele>
        <time>2023-01-01T14:12:39.489Z</time>
      </trkpt>
      <trkpt lat="43.78658" lon="0.89216">
        <ele>163.304684</ele>
        <time>2023-01-01T14:12:42.484Z</time>
      </trkpt>
      <trkpt lat="43.78648" lon="0.89209">
        <ele>163.493264</ele>
        <time>2023-01-01T14:12:45.488Z</time>
      </trkpt>
      <trkpt lat="43.78637" lon="0.89203">
        <ele>163.677183</ele>
        <time>2023-01-01T14:12:48.505Z</time>
      </trkpt>
      <trkpt lat="43.78626" lon="0.89196">
        <ele>163.855419</ele>
        <time>2023-01-01T14:12:51.497Z</time>
      </trkpt>
      <trkpt lat="43.78616" lon="0.89189">
        <ele>164.029878</ele>
        <time>2023-01-01T14:12:54.487Z</time>
      </trkpt>
      <trkpt lat="43.78606" lon="0.89182">
        <ele>164.211389</ele>
        <time>2023-01-01T14:12:57.502Z</time>
      </trkpt>
      <trkpt lat="43.78595" lon="0.89175">
        <ele>164.391458</ele>
        <time>2023-01-01T14:13:00.488Z</time>
      </trkpt>
      <trkpt lat="43.78585" lon="0.89168">
        <ele>164.572082</ele>
        <time>2023-01-01T14:13:03.504Z</time>
      </trkpt>
      <trkpt lat="43.78574" lon="0.89161">
        <ele>164.754999</ele>
        <time>2023-01-01T14:13:06.488Z</time>
      </trkpt>
      <trkpt lat="43.78563" lon="0.89154">
        <ele>164.939767</ele>
        <time>2023-01-01T14:13:09.488Z</time>
      </trkpt>
      <trkpt lat="43.78552" lon="0.89148">
        <ele>165.123608</ele>
        <time>2023-01-01T14:13:12.499Z</time>
      </trkpt>
      <trkpt lat="43.78542" lon="0.89141">
        <ele>165.306543</ele>
        <time>2023-01-01T14:13:15.495Z</time>
      </trkpt>
      <trkpt lat="43.78531" lon="0.89134">
        <ele>165.491824</ele>
        <time>2023-01-01T14:13:18.504Z</time>
      </trkpt>
      <trkpt lat="43.7852" lon="0.89127">
        <ele>165.523319</ele>
        <time>2023-01-01T14:13:21.508Z</time>
      </trkpt>
      <trkpt lat="43.78508" lon="0.8912">
        <ele>165.555517</ele>
        <time>2023-01-01T14:13:24.506Z</time>
      </trkpt>
      <trkpt lat="43.78497" lon="0.89113">
        <ele>165.587715</ele>
        <time>2023-01-01T14:13:27.496Z</time>
      </trkpt>
      <trkpt lat="43.78485" lon="0.89105">
        <ele>165.62077</ele>
        <time>2023-01-01T14:13:30.495Z</time>
      </trkpt>
      <trkpt lat="43.78473" lon="0.89097">
        <ele>165.655388</ele>
        <time>2023-01-01T14:13:33.484Z</time>
      </trkpt>
      <trkpt lat="43.78461" lon="0.89089">
        <ele>165.689225</ele>
        <time>2023-01-01T14:13:36.491Z</time>
      </trkpt>
      <trkpt lat="43.78449" lon="0.89082">
        <ele>165.723373</ele>
        <time>2023-01-01T14:13:39.507Z</time>
      </trkpt>
      <trkpt lat="43.78437" lon="0.89074">
        <ele>165.757759</ele>
        <time>2023-01-01T14:13:42.491Z</time>
      </trkpt>
      <trkpt lat="43.78425" lon="0.89066">
        <ele>165.791752</ele>
        <time>2023-01-01T14:13:45.498Z</time>
      </trkpt>
      <trkpt lat="43.78417" lon="0.89061">
        <ele>165.815141</ele>
        <time>2023-01-01T14:13:47.505Z</time>
      </trkpt>
      <trkpt lat="43.78405" lon="0.89053">
        <ele>165.849209</ele>
        <time>2023-01-01T14:13:50.506Z</time>
      </trkpt>
      <trkpt lat="43.78393" lon="0.89046">
        <ele>165.882264</ele>
        <time>2023-01-01T14:13:53.498Z</time>
      </trkpt>
      <trkpt lat="43.78382" lon="0.89038">
        <ele>165.913917</ele>
        <time>2023-01-01T14:13:56.512Z</time>
      </trkpt>
      <trkpt lat="43.78371" lon="0.89031">
        <ele>165.945334</ele>
        <time>2023-01-01T14:13:59.493Z</time>
      </trkpt>
      <trkpt lat="43.78361" lon="0.89025">
        <ele>166.082288</ele>
        <time>2023-01-01T14:14:02.489Z</time>
      </trkpt>
      <trkpt lat="43.78351" lon="0.89018">
        <ele>166.268614</ele>
        <time>2023-01-01T14:14:05.488Z</time>
      </trkpt>
      <trkpt lat="43.7834" lon="0.89012">
        <ele>166.457481</ele>
        <time>2023-01-01T14:14:08.509Z</time>
      </trkpt>
      <trkpt lat="43.7833" lon="0.89005">
        <ele>166.647861</ele>
        <time>2023-01-01T14:14:11.489Z</time>
      </trkpt>
      <trkpt lat="43.7832" lon="0.88999">
        <ele>166.83371</ele>
        <time>2023-01-01T14:14:14.490Z</time>
      </trkpt>
      <trkpt lat="43.7831" lon="0.88992">
        <ele>167.019559</ele>
        <time>2023-01-01T14:14:17.491Z</time>
      </trkpt>
      <trkpt lat="43.783" lon="0.88985">
        <ele>167.200367</ele>
        <time>2023-01-01T14:14:20.504Z</time>
      </trkpt>
      <trkpt lat="43.7829" lon="0.88978">
        <ele>167.38837</ele>
        <time>2023-01-01T14:14:23.513Z</time>
      </trkpt>
      <trkpt lat="43.7828" lon="0.88972">
        <ele>167.57875</ele>
        <time>2023-01-01T14:14:26.508Z</time>
      </trkpt>
      <trkpt lat="43.78271" lon="0.88965">
        <ele>167.757106</ele>
        <time>2023-01-01T14:14:29.489Z</time>
      </trkpt>
      <trkpt lat="43.78261" lon="0.88958">
        <ele>167.932344</ele>
        <time>2023-01-01T14:14:32.506Z</time>
      </trkpt>
      <trkpt lat="43.78252" lon="0.88952">
        <ele>168.101054</ele>
        <time>2023-01-01T14:14:35.490Z</time>
      </trkpt>
      <trkpt lat="43.78243" lon="0.88946">
        <ele>168.265102</ele>
        <time>2023-01-01T14:14:38.498Z</time>
      </trkpt>
      <trkpt lat="43.78235" lon="0.88941">
        <ele>168.422095</ele>
        <time>2023-01-01T14:14:41.488Z</time>
      </trkpt>
      <trkpt lat="43.78226" lon="0.88936">
        <ele>168.579571</ele>
        <time>2023-01-01T14:14:44.482Z</time>
      </trkpt>
      <trkpt lat="43.78217" lon="0.88931">
        <ele>168.740711</ele>
        <time>2023-01-01T14:14:47.491Z</time>
      </trkpt>
      <trkpt lat="43.78208" lon="0.88926">
        <ele>168.904499</ele>
        <time>2023-01-01T14:14:50.506Z</time>
      </trkpt>
      <trkpt lat="43.78199" lon="0.8892">
        <ele>169.005868</ele>
        <time>2023-01-01T14:14:53.488Z</time>
      </trkpt>
      <trkpt lat="43.7819" lon="0.88914">
        <ele>169.068073</ele>
        <time>2023-01-01T14:14:56.511Z</time>
      </trkpt>
      <trkpt lat="43.7818" lon="0.88907">
        <ele>169.133918</ele>
        <time>2023-01-01T14:14:59.486Z</time>
      </trkpt>
      <trkpt lat="43.7817" lon="0.88901">
        <ele>169.201976</ele>
        <time>2023-01-01T14:15:02.506Z</time>
      </trkpt>
      <trkpt lat="43.78161" lon="0.88895">
        <ele>169.267061</ele>
        <time>2023-01-01T14:15:05.512Z</time>
      </trkpt>
      <trkpt lat="43.78151" lon="0.88889">
        <ele>169.333413</ele>
        <time>2023-01-01T14:15:08.504Z</time>
      </trkpt>
      <trkpt lat="43.78141" lon="0.88882">
        <ele>169.404113</ele>
        <time>2023-01-01T14:15:11.506Z</time>
      </trkpt>
      <trkpt lat="43.7813" lon="0.88875">
        <ele>169.479511</ele>
        <time>2023-01-01T14:15:14.493Z</time>
      </trkpt>
      <trkpt lat="43.78119" lon="0.88868">
        <ele>169.55378</ele>
        <time>2023-01-01T14:15:17.485Z</time>
      </trkpt>
      <trkpt lat="43.7811" lon="0.88862">
        <ele>169.619976</ele>
        <time>2023-01-01T14:15:20.491Z</time>
      </trkpt>
      <trkpt lat="43.781" lon="0.88856">
        <ele>169.685605</ele>
        <time>2023-01-01T14:15:23.497Z</time>
      </trkpt>
      <trkpt lat="43.78091" lon="0.8885">
        <ele>169.74897</ele>
        <time>2023-01-01T14:15:26.513Z</time>
      </trkpt>
      <trkpt lat="43.7808" lon="0.88843">
        <ele>169.82043</ele>
        <time>2023-01-01T14:15:29.498Z</time>
      </trkpt>
      <trkpt lat="43.78071" lon="0.88837">
        <ele>169.887918</ele>
        <time>2023-01-01T14:15:32.513Z</time>
      </trkpt>
      <trkpt lat="43.7806" lon="0.8883">
        <ele>169.957475</ele>
        <time>2023-01-01T14:15:35.494Z</time>
      </trkpt>
      <trkpt lat="43.7805" lon="0.88823">
        <ele>170.029106</ele>
        <time>2023-01-01T14:15:38.483Z</time>
      </trkpt>
      <trkpt lat="43.78039" lon="0.88815">
        <ele>170.187656</ele>
        <time>2023-01-01T14:15:42.485Z</time>
      </trkpt>
      <trkpt lat="43.78026" lon="0.88808">
        <ele>170.532942</ele>
        <time>2023-01-01T14:15:45.523Z</time>
      </trkpt>
      <trkpt lat="43.78015" lon="0.88802">
        <ele>170.851968</ele>
        <time>2023-01-01T14:15:48.499Z</time>
      </trkpt>
      <trkpt lat="43.78003" lon="0.88795">
        <ele>171.193149</ele>
        <time>2023-01-01T14:15:51.485Z</time>
      </trkpt>
      <trkpt lat="43.77995" lon="0.8879">
        <ele>171.437827</ele>
        <time>2023-01-01T14:15:53.486Z</time>
      </trkpt>
      <trkpt lat="43.77983" lon="0.88782">
        <ele>171.787668</ele>
        <time>2023-01-01T14:15:56.507Z</time>
      </trkpt>
      <trkpt lat="43.77972" lon="0.88775">
        <ele>172.111223</ele>
        <time>2023-01-01T14:15:59.483Z</time>
      </trkpt>
      <trkpt lat="43.77961" lon="0.88768">
        <ele>172.422054</ele>
        <time>2023-01-01T14:16:02.484Z</time>
      </trkpt>
      <trkpt lat="43.77951" lon="0.88762">
        <ele>172.713737</ele>
        <time>2023-01-01T14:16:05.487Z</time>
      </trkpt>
      <trkpt lat="43.77942" lon="0.88756">
        <ele>172.963163</ele>
        <time>2023-01-01T14:16:08.491Z</time>
      </trkpt>
      <trkpt lat="43.77934" lon="0.88751">
        <ele>173.209753</ele>
        <time>2023-01-01T14:16:11.491Z</time>
      </trkpt>
      <trkpt lat="43.77925" lon="0.88746">
        <ele>173.467268</ele>
        <time>2023-01-01T14:16:14.489Z</time>
      </trkpt>
      <trkpt lat="43.77916" lon="0.8874">
        <ele>173.723883</ele>
        <time>2023-01-01T14:16:17.486Z</time>
      </trkpt>
      <trkpt lat="43.77907" lon="0.88735">
        <ele>173.973625</ele>
        <time>2023-01-01T14:16:20.490Z</time>
      </trkpt>
      <trkpt lat="43.77896" lon="0.88729">
        <ele>174.279646</ele>
        <time>2023-01-01T14:16:24.495Z</time>
      </trkpt>
      <trkpt lat="43.77888" lon="0.88724">
        <ele>174.521918</ele>
        <time>2023-01-01T14:16:27.494Z</time>
      </trkpt>
      <trkpt lat="43.77879" lon="0.88719">
        <ele>174.773232</ele>
        <time>2023-01-01T14:16:30.506Z</time>
      </trkpt>
      <trkpt lat="43.77871" lon="0.88714">
        <ele>174.905506</ele>
        <time>2023-01-01T14:16:33.513Z</time>
      </trkpt>
      <trkpt lat="43.7786" lon="0.88707">
        <ele>175.038926</ele>
        <time>2023-01-01T14:16:37.504Z</time>
      </trkpt>
      <trkpt lat="43.7785" lon="0.88703">
        <ele>175.159584</ele>
        <time>2023-01-01T14:16:41.490Z</time>
      </trkpt>
      <trkpt lat="43.77839" lon="0.88698">
        <ele>175.289245</ele>
        <time>2023-01-01T14:16:45.489Z</time>
      </trkpt>
      <trkpt lat="43.7783" lon="0.88695">
        <ele>175.396782</ele>
        <time>2023-01-01T14:16:48.507Z</time>
      </trkpt>
      <trkpt lat="43.77821" lon="0.88691">
        <ele>175.505851</ele>
        <time>2023-01-01T14:16:51.501Z</time>
      </trkpt>
      <trkpt lat="43.7781" lon="0.88687">
        <ele>175.636609</ele>
        <time>2023-01-01T14:16:55.485Z</time>
      </trkpt>
      <trkpt lat="43.77801" lon="0.88683">
        <ele>175.747888</ele>
        <time>2023-01-01T14:16:59.502Z</time>
      </trkpt>
      <trkpt lat="43.7779" lon="0.8868">
        <ele>175.869789</ele>
        <time>2023-01-01T14:17:03.491Z</time>
      </trkpt>
      <trkpt lat="43.77781" lon="0.88677">
        <ele>175.980912</ele>
        <time>2023-01-01T14:17:06.490Z</time>
      </trkpt>
      <trkpt lat="43.77771" lon="0.88675">
        <ele>176.094838</ele>
        <time>2023-01-01T14:17:09.493Z</time>
      </trkpt>
      <trkpt lat="43.77761" lon="0.88673">
        <ele>176.207768</ele>
        <time>2023-01-01T14:17:12.488Z</time>
      </trkpt>
      <trkpt lat="43.77752" lon="0.88671">
        <ele>176.313139</ele>
        <time>2023-01-01T14:17:15.500Z</time>
      </trkpt>
      <trkpt lat="43.77743" lon="0.88669">
        <ele>176.419879</ele>
        <time>2023-01-01T14:17:18.496Z</time>
      </trkpt>
      <trkpt lat="43.77734" lon="0.88667">
        <ele>176.52859</ele>
        <time>2023-01-01T14:17:21.489Z</time>
      </trkpt>
      <trkpt lat="43.77725" lon="0.88664">
        <ele>176.636507</ele>
        <time>2023-01-01T14:17:24.503Z</time>
      </trkpt>
      <trkpt lat="43.77715" lon="0.88661">
        <ele>176.745219</ele>
        <time>2023-01-01T14:17:27.498Z</time>
      </trkpt>
      <trkpt lat="43.77706" lon="0.8866">
        <ele>176.851727</ele>
        <time>2023-01-01T14:17:30.487Z</time>
      </trkpt>
      <trkpt lat="43.77697" lon="0.88658">
        <ele>177.064972</ele>
        <time>2023-01-01T14:17:33.513Z</time>
      </trkpt>
      <trkpt lat="43.77688" lon="0.88655">
        <ele>177.320032</ele>
        <time>2023-01-01T14:17:36.494Z</time>
      </trkpt>
      <trkpt lat="43.77678" lon="0.88653">
        <ele>177.587165</ele>
        <time>2023-01-01T14:17:39.496Z</time>
      </trkpt>
      <trkpt lat="43.77669" lon="0.88651">
        <ele>177.847068</ele>
        <time>2023-01-01T14:17:42.504Z</time>
      </trkpt>
      <trkpt lat="43.7766" lon="0.88649">
        <ele>178.100118</ele>
        <time>2023-01-01T14:17:45.497Z</time>
      </trkpt>
      <trkpt lat="43.77649" lon="0.88645">
        <ele>178.431451</ele>
        <time>2023-01-01T14:17:49.491Z</time>
      </trkpt>
      <trkpt lat="43.7764" lon="0.88642">
        <ele>178.688034</ele>
        <time>2023-01-01T14:17:52.506Z</time>
      </trkpt>
      <trkpt lat="43.77631" lon="0.88639">
        <ele>178.950564</ele>
        <time>2023-01-01T14:17:55.503Z</time>
      </trkpt>
      <trkpt lat="43.77621" lon="0.88637">
        <ele>179.2154</ele>
        <time>2023-01-01T14:17:58.486Z</time>
      </trkpt>
      <trkpt lat="43.77612" lon="0.88634">
        <ele>179.478725</ele>
        <time>2023-01-01T14:18:01.496Z</time>
      </trkpt>
      <trkpt lat="43.77603" lon="0.88633">
        <ele>179.735562</ele>
        <time>2023-01-01T14:18:04.504Z</time>
      </trkpt>
      <trkpt lat="43.77594" lon="0.8863">
        <ele>179.996167</ele>
        <time>2023-01-01T14:18:07.508Z</time>
      </trkpt>
      <trkpt lat="43.77585" lon="0.88626">
        <ele>180.260899</ele>
        <time>2023-01-01T14:18:10.487Z</time>
      </trkpt>
      <trkpt lat="43.77573" lon="0.88624">
        <ele>180.588535</ele>
        <time>2023-01-01T14:18:14.522Z</time>
      </trkpt>
      <trkpt lat="43.77562" lon="0.88621">
        <ele>180.913162</ele>
        <time>2023-01-01T14:18:18.489Z</time>
      </trkpt>
      <trkpt lat="43.77553" lon="0.88619">
        <ele>181.170631</ele>
        <time>2023-01-01T14:18:21.502Z</time>
      </trkpt>
      <trkpt lat="43.77544" lon="0.88615">
        <ele>181.432074</ele>
        <time>2023-01-01T14:18:24.505Z</time>
      </trkpt>
      <trkpt lat="43.77535" lon="0.88612">
        <ele>181.689511</ele>
        <time>2023-01-01T14:18:27.495Z</time>
      </trkpt>
      <trkpt lat="43.77525" lon="0.88609">
        <ele>181.947943</ele>
        <time>2023-01-01T14:18:30.507Z</time>
      </trkpt>
      <trkpt lat="43.77516" lon="0.88607">
        <ele>182.179174</ele>
        <time>2023-01-01T14:18:33.501Z</time>
      </trkpt>
      <trkpt lat="43.77506" lon="0.88604">
        <ele>182.410722</ele>
        <time>2023-01-01T14:18:36.502Z</time>
      </trkpt>
      <trkpt lat="43.77497" lon="0.88602">
        <ele>182.64285</ele>
        <time>2023-01-01T14:18:39.491Z</time>
      </trkpt>
      <trkpt lat="43.77485" lon="0.88598">
        <ele>182.92659</ele>
        <time>2023-01-01T14:18:43.490Z</time>
      </trkpt>
      <trkpt lat="43.77474" lon="0.88594">
        <ele>183.196849</ele>
        <time>2023-01-01T14:18:47.502Z</time>
      </trkpt>
      <trkpt lat="43.77463" lon="0.88592">
        <ele>183.462321</ele>
        <time>2023-01-01T14:18:51.487Z</time>
      </trkpt>
      <trkpt lat="43.77452" lon="0.88588">
        <ele>183.732149</ele>
        <time>2023-01-01T14:18:55.484Z</time>
      </trkpt>
      <trkpt lat="43.77443" lon="0.88585">
        <ele>183.95367</ele>
        <time>2023-01-01T14:18:59.490Z</time>
      </trkpt>
      <trkpt lat="43.77432" lon="0.88582">
        <ele>184.2081</ele>
        <time>2023-01-01T14:19:04.500Z</time>
      </trkpt>
      <trkpt lat="43.77423" lon="0.88579">
        <ele>184.435017</ele>
        <time>2023-01-01T14:19:08.496Z</time>
      </trkpt>
      <trkpt lat="43.77413" lon="0.88576">
        <ele>184.666952</ele>
        <time>2023-01-01T14:19:12.507Z</time>
      </trkpt>
      <trkpt lat="43.77404" lon="0.88573">
        <ele>184.897761</ele>
        <time>2023-01-01T14:19:16.505Z</time>
      </trkpt>
      <trkpt lat="43.77395" lon="0.8857">
        <ele>185.125892</ele>
        <time>2023-01-01T14:19:20.483Z</time>
      </trkpt>
      <trkpt lat="43.77386" lon="0.88568">
        <ele>185.343069</ele>
        <time>2023-01-01T14:19:24.503Z</time>
      </trkpt>
      <trkpt lat="43.77377" lon="0.88565">
        <ele>185.558431</ele>
        <time>2023-01-01T14:19:28.500Z</time>
      </trkpt>
      <trkpt lat="43.77366" lon="0.88563">
        <ele>185.821564</ele>
        <time>2023-01-01T14:19:33.505Z</time>
      </trkpt>
      <trkpt lat="43.77355" lon="0.88559">
        <ele>186.078206</ele>
        <time>2023-01-01T14:19:38.500Z</time>
      </trkpt>
      <trkpt lat="43.77345" lon="0.88556">
        <ele>186.533155</ele>
        <time>2023-01-01T14:19:43.489Z</time>
      </trkpt>
      <trkpt lat="43.77334" lon="0.88554">
        <ele>187.147786</ele>
        <time>2023-01-01T14:19:48.501Z</time>
      </trkpt>
      <trkpt lat="43.77323" lon="0.88551">
        <ele>187.760932</ele>
        <time>2023-01-01T14:19:53.490Z</time>
      </trkpt>
      <trkpt lat="43.77313" lon="0.88547">
        <ele>188.375188</ele>
        <time>2023-01-01T14:19:58.497Z</time>
      </trkpt>
      <trkpt lat="43.77303" lon="0.88545">
        <ele>188.901456</ele>
        <time>2023-01-01T14:20:02.491Z</time>
      </trkpt>
      <trkpt lat="43.77294" lon="0.88542">
        <ele>189.426051</ele>
        <time>2023-01-01T14:20:06.501Z</time>
      </trkpt>
      <trkpt lat="43.77285" lon="0.88539">
        <ele>189.968702</ele>
        <time>2023-01-01T14:20:10.487Z</time>
      </trkpt>
      <trkpt lat="43.77275" lon="0.88537">
        <ele>190.513721</ele>
        <time>2023-01-01T14:20:14.489Z</time>
      </trkpt>
      <trkpt lat="43.77266" lon="0.88534">
        <ele>191.028212</ele>
        <time>2023-01-01T14:20:18.485Z</time>
      </trkpt>
      <trkpt lat="43.77257" lon="0.88532">
        <ele>191.545764</ele>
        <time>2023-01-01T14:20:22.490Z</time>
      </trkpt>
      <trkpt lat="43.77247" lon="0.88528">
        <ele>192.124059</ele>
        <time>2023-01-01T14:20:27.487Z</time>
      </trkpt>
      <trkpt lat="43.77237" lon="0.88525">
        <ele>192.694875</ele>
        <time>2023-01-01T14:20:32.490Z</time>
      </trkpt>
      <trkpt lat="43.77226" lon="0.88522">
        <ele>193.316565</ele>
        <time>2023-01-01T14:20:37.510Z</time>
      </trkpt>
      <trkpt lat="43.77217" lon="0.8852">
        <ele>193.823145</ele>
        <time>2023-01-01T14:20:41.487Z</time>
      </trkpt>
      <trkpt lat="43.77207" lon="0.88516">
        <ele>194.434886</ele>
        <time>2023-01-01T14:20:46.498Z</time>
      </trkpt>
      <trkpt lat="43.77196" lon="0.88513">
        <ele>195.054255</ele>
        <time>2023-01-01T14:20:51.493Z</time>
      </trkpt>
      <trkpt lat="43.77186" lon="0.88511">
        <ele>195.586221</ele>
        <time>2023-01-01T14:20:55.507Z</time>
      </trkpt>
      <trkpt lat="43.77177" lon="0.88508">
        <ele>196.100712</ele>
        <time>2023-01-01T14:20:59.492Z</time>
      </trkpt>
      <trkpt lat="43.77167" lon="0.88504">
        <ele>196.6385</ele>
        <time>2023-01-01T14:21:04.498Z</time>
      </trkpt>
      <trkpt lat="43.77156" lon="0.88502">
        <ele>197.149048</ele>
        <time>2023-01-01T14:21:09.498Z</time>
      </trkpt>
      <trkpt lat="43.77145" lon="0.88499">
        <ele>197.650582</ele>
        <time>2023-01-01T14:21:14.518Z</time>
      </trkpt>
      <trkpt lat="43.77134" lon="0.88498">
        <ele>198.159633</ele>
        <time>2023-01-01T14:21:19.495Z</time>
      </trkpt>
      <trkpt lat="43.77124" lon="0.88496">
        <ele>198.6119</ele>
        <time>2023-01-01T14:21:23.498Z</time>
      </trkpt>
      <trkpt lat="43.77115" lon="0.88495">
        <ele>199.066544</ele>
        <time>2023-01-01T14:21:28.504Z</time>
      </trkpt>
      <trkpt lat="43.77105" lon="0.88493">
        <ele>199.537959</ele>
        <time>2023-01-01T14:21:33.509Z</time>
      </trkpt>
      <trkpt lat="43.77094" lon="0.88489">
        <ele>200.062516</ele>
        <time>2023-01-01T14:21:38.483Z</time>
      </trkpt>
      <trkpt lat="43.77084" lon="0.88487">
        <ele>200.518677</ele>
        <time>2023-01-01T14:21:42.493Z</time>
      </trkpt>
      <trkpt lat="43.77075" lon="0.88485">
        <ele>200.940688</ele>
        <time>2023-01-01T14:21:46.485Z</time>
      </trkpt>
      <trkpt lat="43.77064" lon="0.88483">
        <ele>201.442127</ele>
        <time>2023-01-01T14:21:50.501Z</time>
      </trkpt>
      <trkpt lat="43.77053" lon="0.88481">
        <ele>201.973895</ele>
        <time>2023-01-01T14:21:54.499Z</time>
      </trkpt>
      <trkpt lat="43.77042" lon="0.88479">
        <ele>202.488346</ele>
        <time>2023-01-01T14:21:58.499Z</time>
      </trkpt>
      <trkpt lat="43.7703" lon="0.88477">
        <ele>203.043539</ele>
        <time>2023-01-01T14:22:02.497Z</time>
      </trkpt>
      <trkpt lat="43.7702" lon="0.88476">
        <ele>203.495495</ele>
        <time>2023-01-01T14:22:05.490Z</time>
      </trkpt>
      <trkpt lat="43.77011" lon="0.88474">
        <ele>203.943064</ele>
        <time>2023-01-01T14:22:08.507Z</time>
      </trkpt>
      <trkpt lat="43.77001" lon="0.88472">
        <ele>204.391413</ele>
        <time>2023-01-01T14:22:11.489Z</time>
      </trkpt>
      <trkpt lat="43.76992" lon="0.88471">
        <ele>204.710199</ele>
        <time>2023-01-01T14:22:14.524Z</time>
      </trkpt>
      <trkpt lat="43.76982" lon="0.8847">
        <ele>204.941129</ele>
        <time>2023-01-01T14:22:17.501Z</time>
      </trkpt>
      <trkpt lat="43.76973" lon="0.88468">
        <ele>205.167993</ele>
        <time>2023-01-01T14:22:20.488Z</time>
      </trkpt>
      <trkpt lat="43.76963" lon="0.88467">
        <ele>205.406157</ele>
        <time>2023-01-01T14:22:23.505Z</time>
      </trkpt>
      <trkpt lat="43.76953" lon="0.88466">
        <ele>205.651412</ele>
        <time>2023-01-01T14:22:26.507Z</time>
      </trkpt>
      <trkpt lat="43.76944" lon="0.88464">
        <ele>205.880899</ele>
        <time>2023-01-01T14:22:29.505Z</time>
      </trkpt>
      <trkpt lat="43.76935" lon="0.88463">
        <ele>206.099778</ele>
        <time>2023-01-01T14:22:32.523Z</time>
      </trkpt>
      <trkpt lat="43.76923" lon="0.88461">
        <ele>206.384566</ele>
        <time>2023-01-01T14:22:36.498Z</time>
      </trkpt>
      <trkpt lat="43.76914" lon="0.8846">
        <ele>206.603138</ele>
        <time>2023-01-01T14:22:39.493Z</time>
      </trkpt>
      <trkpt lat="43.76902" lon="0.88459">
        <ele>206.894521</ele>
        <time>2023-01-01T14:22:43.488Z</time>
      </trkpt>
      <trkpt lat="43.76893" lon="0.88458">
        <ele>207.11581</ele>
        <time>2023-01-01T14:22:46.505Z</time>
      </trkpt>
      <trkpt lat="43.76883" lon="0.88457">
        <ele>207.344175</ele>
        <time>2023-01-01T14:22:49.511Z</time>
      </trkpt>
      <trkpt lat="43.76874" lon="0.88456">
        <ele>207.572273</ele>
        <time>2023-01-01T14:22:52.501Z</time>
      </trkpt>
      <trkpt lat="43.76865" lon="0.88455">
        <ele>207.793562</ele>
        <time>2023-01-01T14:22:55.501Z</time>
      </trkpt>
      <trkpt lat="43.76855" lon="0.88454">
        <ele>208.04538</ele>
        <time>2023-01-01T14:22:59.492Z</time>
      </trkpt>
      <trkpt lat="43.76844" lon="0.88452">
        <ele>208.311052</ele>
        <time>2023-01-01T14:23:03.501Z</time>
      </trkpt>
      <trkpt lat="43.76835" lon="0.88451">
        <ele>208.52977</ele>
        <time>2023-01-01T14:23:06.505Z</time>
      </trkpt>
      <trkpt lat="43.76825" lon="0.8845">
        <ele>208.757754</ele>
        <time>2023-01-01T14:23:09.504Z</time>
      </trkpt>
      <trkpt lat="43.76816" lon="0.88449">
        <ele>208.980917</ele>
        <time>2023-01-01T14:23:12.498Z</time>
      </trkpt>
      <trkpt lat="43.76807" lon="0.88448">
        <ele>209.218856</ele>
        <time>2023-01-01T14:23:15.486Z</time>
      </trkpt>
      <trkpt lat="43.76795" lon="0.88447">
        <ele>209.508007</ele>
        <time>2023-01-01T14:23:19.502Z</time>
      </trkpt>
      <trkpt lat="43.76786" lon="0.88446">
        <ele>209.737926</ele>
        <time>2023-01-01T14:23:22.492Z</time>
      </trkpt>
      <trkpt lat="43.76777" lon="0.88445">
        <ele>209.971079</ele>
        <time>2023-01-01T14:23:25.488Z</time>
      </trkpt>
      <trkpt lat="43.76768" lon="0.88445">
        <ele>210.209018</ele>
        <time>2023-01-01T14:23:28.509Z</time>
      </trkpt>
      <trkpt lat="43.76759" lon="0.88444">
        <ele>210.442171</ele>
        <time>2023-01-01T14:23:31.487Z</time>
      </trkpt>
      <trkpt lat="43.76749" lon="0.88443">
        <ele>210.695058</ele>
        <time>2023-01-01T14:23:34.493Z</time>
      </trkpt>
      <trkpt lat="43.76739" lon="0.88442">
        <ele>210.948504</ele>
        <time>2023-01-01T14:23:37.490Z</time>
      </trkpt>
      <trkpt lat="43.76729" lon="0.88442">
        <ele>211.186023</ele>
        <time>2023-01-01T14:23:40.494Z</time>
      </trkpt>
      <trkpt lat="43.7672" lon="0.88443">
        <ele>211.426878</ele>
        <time>2023-01-01T14:23:43.505Z</time>
      </trkpt>
      <trkpt lat="43.7671" lon="0.88446">
        <ele>211.671882</ele>
        <time>2023-01-01T14:23:46.487Z</time>
      </trkpt>
      <trkpt lat="43.76701" lon="0.88448">
        <ele>211.903107</ele>
        <time>2023-01-01T14:23:49.506Z</time>
      </trkpt>
      <trkpt lat="43.7669" lon="0.8845">
        <ele>212.195937</ele>
        <time>2023-01-01T14:23:53.500Z</time>
      </trkpt>
      <trkpt lat="43.76681" lon="0.88449">
        <ele>212.424053</ele>
        <time>2023-01-01T14:24:02.494Z</time>
      </trkpt>
      <trkpt lat="43.76681" lon="0.8845">
        <ele>212.440667</ele>
        <time>2023-01-01T14:24:13.821Z</time>
      </trkpt>
      <trkpt lat="43.7667" lon="0.8844">
        <ele>212.77208</ele>
        <time>2023-01-01T14:27:03.496Z</time>
      </trkpt>
      <trkpt lat="43.76658" lon="0.88439">
        <ele>213.072822</ele>
        <time>2023-01-01T14:27:07.496Z</time>
      </trkpt>
      <trkpt lat="43.76647" lon="0.88439">
        <ele>213.350833</ele>
        <time>2023-01-01T14:27:10.489Z</time>
      </trkpt>
      <trkpt lat="43.76636" lon="0.88439">
        <ele>213.382818</ele>
        <time>2023-01-01T14:27:13.486Z</time>
      </trkpt>
      <trkpt lat="43.76623" lon="0.88439">
        <ele>213.214656</ele>
        <time>2023-01-01T14:27:16.514Z</time>
      </trkpt>
      <trkpt lat="43.7661" lon="0.88438">
        <ele>213.032812</ele>
        <time>2023-01-01T14:27:19.508Z</time>
      </trkpt>
      <trkpt lat="43.766" lon="0.88437">
        <ele>212.901175</ele>
        <time>2023-01-01T14:27:21.519Z</time>
      </trkpt>
      <trkpt lat="43.7659" lon="0.88437">
        <ele>212.76434</ele>
        <time>2023-01-01T14:27:23.524Z</time>
      </trkpt>
      <trkpt lat="43.76579" lon="0.88435">
        <ele>212.615953</ele>
        <time>2023-01-01T14:27:25.496Z</time>
      </trkpt>
      <trkpt lat="43.76567" lon="0.88434">
        <ele>212.45574</ele>
        <time>2023-01-01T14:27:27.490Z</time>
      </trkpt>
      <trkpt lat="43.76555" lon="0.88432">
        <ele>212.289819</ele>
        <time>2023-01-01T14:27:29.491Z</time>
      </trkpt>
      <trkpt lat="43.76542" lon="0.8843">
        <ele>212.116181</ele>
        <time>2023-01-01T14:27:31.489Z</time>
      </trkpt>
      <trkpt lat="43.7653" lon="0.88428">
        <ele>211.943885</ele>
        <time>2023-01-01T14:27:33.490Z</time>
      </trkpt>
      <trkpt lat="43.76518" lon="0.88426">
        <ele>211.781496</ele>
        <time>2023-01-01T14:27:35.510Z</time>
      </trkpt>
      <trkpt lat="43.76506" lon="0.88424">
        <ele>211.623476</ele>
        <time>2023-01-01T14:27:37.497Z</time>
      </trkpt>
      <trkpt lat="43.76496" lon="0.88422">
        <ele>211.484523</ele>
        <time>2023-01-01T14:27:39.505Z</time>
      </trkpt>
      <trkpt lat="43.76487" lon="0.88421">
        <ele>211.354759</ele>
        <time>2023-01-01T14:27:41.488Z</time>
      </trkpt>
      <trkpt lat="43.76478" lon="0.88419">
        <ele>211.230613</ele>
        <time>2023-01-01T14:27:43.508Z</time>
      </trkpt>
      <trkpt lat="43.76469" lon="0.88417">
        <ele>211.107284</ele>
        <time>2023-01-01T14:27:45.502Z</time>
      </trkpt>
      <trkpt lat="43.76459" lon="0.88416">
        <ele>211.090304</ele>
        <time>2023-01-01T14:27:47.522Z</time>
      </trkpt>
      <trkpt lat="43.7645" lon="0.88414">
        <ele>211.21612</ele>
        <time>2023-01-01T14:27:49.505Z</time>
      </trkpt>
      <trkpt lat="43.76441" lon="0.88413">
        <ele>211.334159</ele>
        <time>2023-01-01T14:27:51.490Z</time>
      </trkpt>
      <trkpt lat="43.76428" lon="0.8841">
        <ele>211.504063</ele>
        <time>2023-01-01T14:27:54.501Z</time>
      </trkpt>
      <trkpt lat="43.76414" lon="0.88408">
        <ele>211.679822</ele>
        <time>2023-01-01T14:27:57.493Z</time>
      </trkpt>
      <trkpt lat="43.76405" lon="0.88407">
        <ele>211.798349</ele>
        <time>2023-01-01T14:27:59.508Z</time>
      </trkpt>
      <trkpt lat="43.76392" lon="0.88405">
        <ele>211.970247</ele>
        <time>2023-01-01T14:28:02.489Z</time>
      </trkpt>
      <trkpt lat="43.76383" lon="0.88404">
        <ele>212.0861</ele>
        <time>2023-01-01T14:28:04.486Z</time>
      </trkpt>
      <trkpt lat="43.7637" lon="0.88401">
        <ele>212.254595</ele>
        <time>2023-01-01T14:28:07.516Z</time>
      </trkpt>
      <trkpt lat="43.76358" lon="0.884">
        <ele>212.410749</ele>
        <time>2023-01-01T14:28:10.490Z</time>
      </trkpt>
      <trkpt lat="43.76347" lon="0.88397">
        <ele>212.556642</ele>
        <time>2023-01-01T14:28:13.512Z</time>
      </trkpt>
      <trkpt lat="43.76335" lon="0.88394">
        <ele>212.709072</ele>
        <time>2023-01-01T14:28:16.492Z</time>
      </trkpt>
      <trkpt lat="43.76323" lon="0.88392">
        <ele>212.863605</ele>
        <time>2023-01-01T14:28:19.496Z</time>
      </trkpt>
      <trkpt lat="43.76311" lon="0.8839">
        <ele>213.027784</ele>
        <time>2023-01-01T14:28:22.486Z</time>
      </trkpt>
      <trkpt lat="43.76299" lon="0.88388">
        <ele>213.187712</ele>
        <time>2023-01-01T14:28:25.487Z</time>
      </trkpt>
      <trkpt lat="43.76287" lon="0.88386">
        <ele>213.343255</ele>
        <time>2023-01-01T14:28:28.497Z</time>
      </trkpt>
      <trkpt lat="43.76275" lon="0.88384">
        <ele>213.50651</ele>
        <time>2023-01-01T14:28:31.504Z</time>
      </trkpt>
      <trkpt lat="43.76263" lon="0.88381">
        <ele>213.667248</ele>
        <time>2023-01-01T14:28:34.490Z</time>
      </trkpt>
      <trkpt lat="43.76252" lon="0.8838">
        <ele>213.824658</ele>
        <time>2023-01-01T14:28:37.499Z</time>
      </trkpt>
      <trkpt lat="43.76241" lon="0.88378">
        <ele>213.977676</ele>
        <time>2023-01-01T14:28:40.491Z</time>
      </trkpt>
      <trkpt lat="43.7623" lon="0.88376">
        <ele>214.129986</ele>
        <time>2023-01-01T14:28:43.487Z</time>
      </trkpt>
      <trkpt lat="43.76219" lon="0.88375">
        <ele>214.281831</ele>
        <time>2023-01-01T14:28:46.489Z</time>
      </trkpt>
      <trkpt lat="43.76207" lon="0.88373">
        <ele>214.438489</ele>
        <time>2023-01-01T14:28:49.504Z</time>
      </trkpt>
      <trkpt lat="43.76196" lon="0.88371">
        <ele>214.597373</ele>
        <time>2023-01-01T14:28:52.484Z</time>
      </trkpt>
      <trkpt lat="43.76184" lon="0.88369">
        <ele>214.754493</ele>
        <time>2023-01-01T14:28:55.505Z</time>
      </trkpt>
      <trkpt lat="43.76173" lon="0.88367">
        <ele>214.908576</ele>
        <time>2023-01-01T14:28:58.500Z</time>
      </trkpt>
      <trkpt lat="43.76162" lon="0.88365">
        <ele>215.068616</ele>
        <time>2023-01-01T14:29:01.485Z</time>
      </trkpt>
      <trkpt lat="43.7615" lon="0.88364">
        <ele>215.228387</ele>
        <time>2023-01-01T14:29:04.485Z</time>
      </trkpt>
      <trkpt lat="43.76138" lon="0.88364">
        <ele>215.389121</ele>
        <time>2023-01-01T14:29:07.496Z</time>
      </trkpt>
      <trkpt lat="43.76127" lon="0.88363">
        <ele>215.551312</ele>
        <time>2023-01-01T14:29:10.496Z</time>
      </trkpt>
      <trkpt lat="43.76115" lon="0.88362">
        <ele>215.706701</ele>
        <time>2023-01-01T14:29:13.504Z</time>
      </trkpt>
      <trkpt lat="43.76104" lon="0.88361">
        <ele>215.84946</ele>
        <time>2023-01-01T14:29:16.490Z</time>
      </trkpt>
      <trkpt lat="43.76092" lon="0.8836">
        <ele>215.924481</ele>
        <time>2023-01-01T14:29:19.485Z</time>
      </trkpt>
      <trkpt lat="43.76081" lon="0.8836">
        <ele>216.000573</ele>
        <time>2023-01-01T14:29:22.499Z</time>
      </trkpt>
      <trkpt lat="43.76069" lon="0.8836">
        <ele>216.075378</ele>
        <time>2023-01-01T14:29:25.489Z</time>
      </trkpt>
      <trkpt lat="43.76058" lon="0.88361">
        <ele>216.150839</ele>
        <time>2023-01-01T14:29:28.517Z</time>
      </trkpt>
      <trkpt lat="43.76047" lon="0.88361">
        <ele>216.224295</ele>
        <time>2023-01-01T14:29:31.504Z</time>
      </trkpt>
      <trkpt lat="43.76036" lon="0.88361">
        <ele>216.297094</ele>
        <time>2023-01-01T14:29:34.502Z</time>
      </trkpt>
      <trkpt lat="43.76024" lon="0.88361">
        <ele>216.371212</ele>
        <time>2023-01-01T14:29:37.486Z</time>
      </trkpt>
      <trkpt lat="43.76013" lon="0.8836">
        <ele>216.445337</ele>
        <time>2023-01-01T14:29:40.496Z</time>
      </trkpt>
      <trkpt lat="43.76001" lon="0.88359">
        <ele>216.520974</ele>
        <time>2023-01-01T14:29:43.505Z</time>
      </trkpt>
      <trkpt lat="43.7599" lon="0.88358">
        <ele>216.59792</ele>
        <time>2023-01-01T14:29:46.493Z</time>
      </trkpt>
      <trkpt lat="43.75978" lon="0.88356">
        <ele>216.674424</ele>
        <time>2023-01-01T14:29:49.504Z</time>
      </trkpt>
      <trkpt lat="43.75967" lon="0.88355">
        <ele>216.747378</ele>
        <time>2023-01-01T14:29:52.506Z</time>
      </trkpt>
      <trkpt lat="43.75956" lon="0.88353">
        <ele>216.820081</ele>
        <time>2023-01-01T14:29:55.489Z</time>
      </trkpt>
      <trkpt lat="43.75945" lon="0.88351">
        <ele>216.890894</ele>
        <time>2023-01-01T14:29:58.503Z</time>
      </trkpt>
      <trkpt lat="43.75934" lon="0.8835">
        <ele>216.965302</ele>
        <time>2023-01-01T14:30:01.500Z</time>
      </trkpt>
      <trkpt lat="43.75922" lon="0.88349">
        <ele>217.040488</ele>
        <time>2023-01-01T14:30:04.495Z</time>
      </trkpt>
      <trkpt lat="43.75911" lon="0.88347">
        <ele>217.112814</ele>
        <time>2023-01-01T14:30:07.506Z</time>
      </trkpt>
      <trkpt lat="43.75898" lon="0.88345">
        <ele>217.189566</ele>
        <time>2023-01-01T14:30:10.494Z</time>
      </trkpt>
      <trkpt lat="43.75885" lon="0.88342">
        <ele>217.271971</ele>
        <time>2023-01-01T14:30:13.507Z</time>
      </trkpt>
      <trkpt lat="43.75876" lon="0.88341">
        <ele>217.330273</ele>
        <time>2023-01-01T14:30:15.511Z</time>
      </trkpt>
      <trkpt lat="43.75866" lon="0.8834">
        <ele>217.38762</ele>
        <time>2023-01-01T14:30:17.489Z</time>
      </trkpt>
      <trkpt lat="43.75856" lon="0.88338">
        <ele>217.448149</ele>
        <time>2023-01-01T14:30:19.497Z</time>
      </trkpt>
      <trkpt lat="43.75846" lon="0.88337">
        <ele>217.511124</ele>
        <time>2023-01-01T14:30:21.500Z</time>
      </trkpt>
      <trkpt lat="43.75836" lon="0.88335">
        <ele>217.571701</ele>
        <time>2023-01-01T14:30:23.492Z</time>
      </trkpt>
      <trkpt lat="43.75826" lon="0.88333">
        <ele>217.633657</ele>
        <time>2023-01-01T14:30:25.504Z</time>
      </trkpt>
      <trkpt lat="43.75817" lon="0.88331">
        <ele>217.69155</ele>
        <time>2023-01-01T14:30:27.520Z</time>
      </trkpt>
      <trkpt lat="43.75804" lon="0.88329">
        <ele>217.77268</ele>
        <time>2023-01-01T14:30:30.493Z</time>
      </trkpt>
      <trkpt lat="43.75795" lon="0.88328">
        <ele>217.828842</ele>
        <time>2023-01-01T14:30:32.513Z</time>
      </trkpt>
      <trkpt lat="43.75782" lon="0.88326">
        <ele>217.908644</ele>
        <time>2023-01-01T14:30:35.502Z</time>
      </trkpt>
      <trkpt lat="43.7577" lon="0.88323">
        <ele>217.984292</ele>
        <time>2023-01-01T14:30:38.487Z</time>
      </trkpt>
      <trkpt lat="43.75758" lon="0.88322">
        <ele>218.055396</ele>
        <time>2023-01-01T14:30:41.510Z</time>
      </trkpt>
      <trkpt lat="43.75747" lon="0.8832">
        <ele>218.147009</ele>
        <time>2023-01-01T14:30:44.503Z</time>
      </trkpt>
      <trkpt lat="43.75736" lon="0.88319">
        <ele>218.481131</ele>
        <time>2023-01-01T14:30:47.483Z</time>
      </trkpt>
      <trkpt lat="43.75726" lon="0.88317">
        <ele>218.813428</ele>
        <time>2023-01-01T14:30:50.490Z</time>
      </trkpt>
      <trkpt lat="43.75715" lon="0.88316">
        <ele>219.14882</ele>
        <time>2023-01-01T14:30:53.492Z</time>
      </trkpt>
      <trkpt lat="43.75705" lon="0.88315">
        <ele>219.473181</ele>
        <time>2023-01-01T14:30:56.500Z</time>
      </trkpt>
      <trkpt lat="43.75694" lon="0.88313">
        <ele>219.805228</ele>
        <time>2023-01-01T14:30:59.484Z</time>
      </trkpt>
      <trkpt lat="43.75684" lon="0.88312">
        <ele>220.136611</ele>
        <time>2023-01-01T14:31:02.505Z</time>
      </trkpt>
      <trkpt lat="43.75674" lon="0.8831">
        <ele>220.44755</ele>
        <time>2023-01-01T14:31:05.491Z</time>
      </trkpt>
      <trkpt lat="43.75664" lon="0.88308">
        <ele>220.758489</ele>
        <time>2023-01-01T14:31:08.509Z</time>
      </trkpt>
      <trkpt lat="43.75654" lon="0.88306">
        <ele>221.060804</ele>
        <time>2023-01-01T14:31:11.512Z</time>
      </trkpt>
      <trkpt lat="43.75645" lon="0.88305">
        <ele>221.342833</ele>
        <time>2023-01-01T14:31:14.492Z</time>
      </trkpt>
      <trkpt lat="43.75636" lon="0.88304">
        <ele>221.627956</ele>
        <time>2023-01-01T14:31:17.485Z</time>
      </trkpt>
      <trkpt lat="43.75624" lon="0.88302">
        <ele>221.998159</ele>
        <time>2023-01-01T14:31:21.487Z</time>
      </trkpt>
      <trkpt lat="43.75612" lon="0.883">
        <ele>222.368641</ele>
        <time>2023-01-01T14:31:25.492Z</time>
      </trkpt>
      <trkpt lat="43.75603" lon="0.88299">
        <ele>222.652743</ele>
        <time>2023-01-01T14:31:28.510Z</time>
      </trkpt>
      <trkpt lat="43.75595" lon="0.88297">
        <ele>222.930821</ele>
        <time>2023-01-01T14:31:31.504Z</time>
      </trkpt>
      <trkpt lat="43.75585" lon="0.88295">
        <ele>223.219566</ele>
        <time>2023-01-01T14:31:34.488Z</time>
      </trkpt>
      <trkpt lat="43.75574" lon="0.88293">
        <ele>223.58696</ele>
        <time>2023-01-01T14:31:38.484Z</time>
      </trkpt>
      <trkpt lat="43.75562" lon="0.88291">
        <ele>223.658205</ele>
        <time>2023-01-01T14:31:42.484Z</time>
      </trkpt>
      <trkpt lat="43.7555" lon="0.8829">
        <ele>223.560397</ele>
        <time>2023-01-01T14:31:46.511Z</time>
      </trkpt>
      <trkpt lat="43.75541" lon="0.88289">
        <ele>223.485871</ele>
        <time>2023-01-01T14:31:49.493Z</time>
      </trkpt>
      <trkpt lat="43.75532" lon="0.88287">
        <ele>223.41036</ele>
        <time>2023-01-01T14:31:52.495Z</time>
      </trkpt>
      <trkpt lat="43.75523" lon="0.88286">
        <ele>223.333264</ele>
        <time>2023-01-01T14:31:55.496Z</time>
      </trkpt>
      <trkpt lat="43.75513" lon="0.88286">
        <ele>223.254023</ele>
        <time>2023-01-01T14:31:58.494Z</time>
      </trkpt>
      <trkpt lat="43.75503" lon="0.88286">
        <ele>223.173938</ele>
        <time>2023-01-01T14:32:01.487Z</time>
      </trkpt>
      <trkpt lat="43.75494" lon="0.88288">
        <ele>223.096656</ele>
        <time>2023-01-01T14:32:04.505Z</time>
      </trkpt>
      <trkpt lat="43.75484" lon="0.88289">
        <ele>223.0155</ele>
        <time>2023-01-01T14:32:07.493Z</time>
      </trkpt>
      <trkpt lat="43.75473" lon="0.8829">
        <ele>222.922822</ele>
        <time>2023-01-01T14:32:10.498Z</time>
      </trkpt>
      <trkpt lat="43.75461" lon="0.88291">
        <ele>222.818486</ele>
        <time>2023-01-01T14:32:13.506Z</time>
      </trkpt>
      <trkpt lat="43.75448" lon="0.88293">
        <ele>222.711681</ele>
        <time>2023-01-01T14:32:16.484Z</time>
      </trkpt>
      <trkpt lat="43.75435" lon="0.88295">
        <ele>222.602961</ele>
        <time>2023-01-01T14:32:19.485Z</time>
      </trkpt>
      <trkpt lat="43.75421" lon="0.88296">
        <ele>222.494412</ele>
        <time>2023-01-01T14:32:22.487Z</time>
      </trkpt>
      <trkpt lat="43.75409" lon="0.88298">
        <ele>222.390122</ele>
        <time>2023-01-01T14:32:25.486Z</time>
      </trkpt>
      <trkpt lat="43.75397" lon="0.88299">
        <ele>222.288254</ele>
        <time>2023-01-01T14:32:28.489Z</time>
      </trkpt>
      <trkpt lat="43.75384" lon="0.88301">
        <ele>222.119166</ele>
        <time>2023-01-01T14:32:31.492Z</time>
      </trkpt>
      <trkpt lat="43.75371" lon="0.88304">
        <ele>221.852997</ele>
        <time>2023-01-01T14:32:34.487Z</time>
      </trkpt>
      <trkpt lat="43.75361" lon="0.88305">
        <ele>221.662409</ele>
        <time>2023-01-01T14:32:36.496Z</time>
      </trkpt>
      <trkpt lat="43.75352" lon="0.88306">
        <ele>221.471934</ele>
        <time>2023-01-01T14:32:38.504Z</time>
      </trkpt>
      <trkpt lat="43.75342" lon="0.88307">
        <ele>221.27489</ele>
        <time>2023-01-01T14:32:40.494Z</time>
      </trkpt>
      <trkpt lat="43.75332" lon="0.88308">
        <ele>221.082633</ele>
        <time>2023-01-01T14:32:42.491Z</time>
      </trkpt>
      <trkpt lat="43.75323" lon="0.8831">
        <ele>220.900551</ele>
        <time>2023-01-01T14:32:44.509Z</time>
      </trkpt>
      <trkpt lat="43.75314" lon="0.88311">
        <ele>220.715878</ele>
        <time>2023-01-01T14:32:46.520Z</time>
      </trkpt>
      <trkpt lat="43.75301" lon="0.88312">
        <ele>220.456297</ele>
        <time>2023-01-01T14:32:49.489Z</time>
      </trkpt>
      <trkpt lat="43.75288" lon="0.88314">
        <ele>220.20976</ele>
        <time>2023-01-01T14:32:52.494Z</time>
      </trkpt>
      <trkpt lat="43.75276" lon="0.88315">
        <ele>219.959546</ele>
        <time>2023-01-01T14:32:55.492Z</time>
      </trkpt>
      <trkpt lat="43.75262" lon="0.88317">
        <ele>219.691343</ele>
        <time>2023-01-01T14:32:58.503Z</time>
      </trkpt>
      <trkpt lat="43.75253" lon="0.88318">
        <ele>219.508512</ele>
        <time>2023-01-01T14:33:00.520Z</time>
      </trkpt>
      <trkpt lat="43.75244" lon="0.88319">
        <ele>219.32406</ele>
        <time>2023-01-01T14:33:02.510Z</time>
      </trkpt>
      <trkpt lat="43.75234" lon="0.8832">
        <ele>219.139503</ele>
        <time>2023-01-01T14:33:04.503Z</time>
      </trkpt>
      <trkpt lat="43.75225" lon="0.88321">
        <ele>218.950763</ele>
        <time>2023-01-01T14:33:06.506Z</time>
      </trkpt>
      <trkpt lat="43.75215" lon="0.88323">
        <ele>218.758081</ele>
        <time>2023-01-01T14:33:08.502Z</time>
      </trkpt>
      <trkpt lat="43.75205" lon="0.88324">
        <ele>218.556532</ele>
        <time>2023-01-01T14:33:10.519Z</time>
      </trkpt>
      <trkpt lat="43.75196" lon="0.88325">
        <ele>218.350931</ele>
        <time>2023-01-01T14:33:12.532Z</time>
      </trkpt>
      <trkpt lat="43.75186" lon="0.88327">
        <ele>218.144754</ele>
        <time>2023-01-01T14:33:14.523Z</time>
      </trkpt>
      <trkpt lat="43.75177" lon="0.88328">
        <ele>217.950861</ele>
        <time>2023-01-01T14:33:16.504Z</time>
      </trkpt>
      <trkpt lat="43.75163" lon="0.8833">
        <ele>217.669337</ele>
        <time>2023-01-01T14:33:19.495Z</time>
      </trkpt>
      <trkpt lat="43.7515" lon="0.88332">
        <ele>217.393742</ele>
        <time>2023-01-01T14:33:22.500Z</time>
      </trkpt>
      <trkpt lat="43.75137" lon="0.88334">
        <ele>217.11236</ele>
        <time>2023-01-01T14:33:25.508Z</time>
      </trkpt>
      <trkpt lat="43.75128" lon="0.88335">
        <ele>216.925219</ele>
        <time>2023-01-01T14:33:27.488Z</time>
      </trkpt>
      <trkpt lat="43.75115" lon="0.88337">
        <ele>216.649624</ele>
        <time>2023-01-01T14:33:30.491Z</time>
      </trkpt>
      <trkpt lat="43.75106" lon="0.88338">
        <ele>216.459118</ele>
        <time>2023-01-01T14:33:32.486Z</time>
      </trkpt>
      <trkpt lat="43.75097" lon="0.88339">
        <ele>216.268104</ele>
        <time>2023-01-01T14:33:34.509Z</time>
      </trkpt>
      <trkpt lat="43.75087" lon="0.8834">
        <ele>216.070406</ele>
        <time>2023-01-01T14:33:36.493Z</time>
      </trkpt>
      <trkpt lat="43.75078" lon="0.88341">
        <ele>215.881716</ele>
        <time>2023-01-01T14:33:38.489Z</time>
      </trkpt>
      <trkpt lat="43.75069" lon="0.88342">
        <ele>215.688956</ele>
        <time>2023-01-01T14:33:40.510Z</time>
      </trkpt>
      <trkpt lat="43.7506" lon="0.88343">
        <ele>215.495244</ele>
        <time>2023-01-01T14:33:42.494Z</time>
      </trkpt>
      <trkpt lat="43.7505" lon="0.88345">
        <ele>215.289228</ele>
        <time>2023-01-01T14:33:44.494Z</time>
      </trkpt>
      <trkpt lat="43.7504" lon="0.88344">
        <ele>215.081857</ele>
        <time>2023-01-01T14:33:46.492Z</time>
      </trkpt>
      <trkpt lat="43.7503" lon="0.88343">
        <ele>214.899063</ele>
        <time>2023-01-01T14:33:48.499Z</time>
      </trkpt>
      <trkpt lat="43.7502" lon="0.88343">
        <ele>214.82084</ele>
        <time>2023-01-01T14:33:50.490Z</time>
      </trkpt>
      <trkpt lat="43.75009" lon="0.88341">
        <ele>214.740809</ele>
        <time>2023-01-01T14:33:52.503Z</time>
      </trkpt>
      <trkpt lat="43.74998" lon="0.88339">
        <ele>214.661023</ele>
        <time>2023-01-01T14:33:54.505Z</time>
      </trkpt>
      <trkpt lat="43.74988" lon="0.88337">
        <ele>214.582057</ele>
        <time>2023-01-01T14:33:56.514Z</time>
      </trkpt>
      <trkpt lat="43.74978" lon="0.88335">
        <ele>214.504987</ele>
        <time>2023-01-01T14:33:58.503Z</time>
      </trkpt>
      <trkpt lat="43.74967" lon="0.88332">
        <ele>214.421512</ele>
        <time>2023-01-01T14:34:00.491Z</time>
      </trkpt>
      <trkpt lat="43.74957" lon="0.88329">
        <ele>214.340881</ele>
        <time>2023-01-01T14:34:02.502Z</time>
      </trkpt>
      <trkpt lat="43.74946" lon="0.88326">
        <ele>214.261978</ele>
        <time>2023-01-01T14:34:04.491Z</time>
      </trkpt>
      <trkpt lat="43.74936" lon="0.88322">
        <ele>214.183542</ele>
        <time>2023-01-01T14:34:06.493Z</time>
      </trkpt>
      <trkpt lat="43.74927" lon="0.88318">
        <ele>214.106775</ele>
        <time>2023-01-01T14:34:08.487Z</time>
      </trkpt>
      <trkpt lat="43.74917" lon="0.88314">
        <ele>214.033843</ele>
        <time>2023-01-01T14:34:10.494Z</time>
      </trkpt>
      <trkpt lat="43.74908" lon="0.88311">
        <ele>213.963363</ele>
        <time>2023-01-01T14:34:12.516Z</time>
      </trkpt>
      <trkpt lat="43.74895" lon="0.88306">
        <ele>213.863486</ele>
        <time>2023-01-01T14:34:15.493Z</time>
      </trkpt>
      <trkpt lat="43.74886" lon="0.88303">
        <ele>213.794919</ele>
        <time>2023-01-01T14:34:17.487Z</time>
      </trkpt>
      <trkpt lat="43.74878" lon="0.883">
        <ele>213.726352</ele>
        <time>2023-01-01T14:34:19.510Z</time>
      </trkpt>
      <trkpt lat="43.74868" lon="0.88296">
        <ele>213.654148</ele>
        <time>2023-01-01T14:34:21.496Z</time>
      </trkpt>
      <trkpt lat="43.7486" lon="0.88292">
        <ele>213.585538</ele>
        <time>2023-01-01T14:34:23.502Z</time>
      </trkpt>
      <trkpt lat="43.74851" lon="0.88289">
        <ele>213.720019</ele>
        <time>2023-01-01T14:34:25.487Z</time>
      </trkpt>
      <trkpt lat="43.74838" lon="0.88285">
        <ele>214.043213</ele>
        <time>2023-01-01T14:34:28.507Z</time>
      </trkpt>
      <trkpt lat="43.74827" lon="0.88281">
        <ele>214.328023</ele>
        <time>2023-01-01T14:34:31.485Z</time>
      </trkpt>
      <trkpt lat="43.74816" lon="0.88276">
        <ele>214.624899</ele>
        <time>2023-01-01T14:34:34.503Z</time>
      </trkpt>
      <trkpt lat="43.74804" lon="0.88272">
        <ele>214.918873</ele>
        <time>2023-01-01T14:34:37.494Z</time>
      </trkpt>
      <trkpt lat="43.74793" lon="0.88267">
        <ele>215.212846</ele>
        <time>2023-01-01T14:34:40.492Z</time>
      </trkpt>
      <trkpt lat="43.74783" lon="0.88263">
        <ele>215.479423</ele>
        <time>2023-01-01T14:34:43.489Z</time>
      </trkpt>
      <trkpt lat="43.74774" lon="0.88259">
        <ele>215.709891</ele>
        <time>2023-01-01T14:34:46.511Z</time>
      </trkpt>
      <trkpt lat="43.74763" lon="0.88255">
        <ele>215.992766</ele>
        <time>2023-01-01T14:34:50.491Z</time>
      </trkpt>
      <trkpt lat="43.74752" lon="0.88252">
        <ele>216.272113</ele>
        <time>2023-01-01T14:34:54.491Z</time>
      </trkpt>
      <trkpt lat="43.74741" lon="0.88249">
        <ele>216.549281</ele>
        <time>2023-01-01T14:34:58.501Z</time>
      </trkpt>
      <trkpt lat="43.74731" lon="0.88245">
        <ele>216.825795</ele>
        <time>2023-01-01T14:35:02.489Z</time>
      </trkpt>
      <trkpt lat="43.7472" lon="0.88244">
        <ele>217.08906</ele>
        <time>2023-01-01T14:35:06.489Z</time>
      </trkpt>
      <trkpt lat="43.74709" lon="0.88244">
        <ele>217.359075</ele>
        <time>2023-01-01T14:35:10.490Z</time>
      </trkpt>
      <trkpt lat="43.74698" lon="0.88245">
        <ele>217.634113</ele>
        <time>2023-01-01T14:35:14.510Z</time>
      </trkpt>
      <trkpt lat="43.74687" lon="0.88246">
        <ele>217.916009</ele>
        <time>2023-01-01T14:35:18.497Z</time>
      </trkpt>
      <trkpt lat="43.74678" lon="0.88248">
        <ele>218.089446</ele>
        <time>2023-01-01T14:35:21.497Z</time>
      </trkpt>
      <trkpt lat="43.74668" lon="0.88251">
        <ele>218.170917</ele>
        <time>2023-01-01T14:35:24.488Z</time>
      </trkpt>
      <trkpt lat="43.74658" lon="0.88255">
        <ele>218.25728</ele>
        <time>2023-01-01T14:35:27.513Z</time>
      </trkpt>
      <trkpt lat="43.74647" lon="0.88258">
        <ele>218.34379</ele>
        <time>2023-01-01T14:35:30.489Z</time>
      </trkpt>
      <trkpt lat="43.74637" lon="0.88262">
        <ele>218.43345</ele>
        <time>2023-01-01T14:35:33.484Z</time>
      </trkpt>
      <trkpt lat="43.74626" lon="0.88266">
        <ele>218.525592</ele>
        <time>2023-01-01T14:35:36.493Z</time>
      </trkpt>
      <trkpt lat="43.74615" lon="0.88271">
        <ele>218.620082</ele>
        <time>2023-01-01T14:35:39.490Z</time>
      </trkpt>
      <trkpt lat="43.74603" lon="0.88275">
        <ele>218.718802</ele>
        <time>2023-01-01T14:35:42.487Z</time>
      </trkpt>
      <trkpt lat="43.74591" lon="0.8828">
        <ele>218.81909</ele>
        <time>2023-01-01T14:35:45.507Z</time>
      </trkpt>
      <trkpt lat="43.74579" lon="0.88284">
        <ele>218.918141</ele>
        <time>2023-01-01T14:35:48.481Z</time>
      </trkpt>
      <trkpt lat="43.74567" lon="0.88288">
        <ele>219.018768</ele>
        <time>2023-01-01T14:35:51.489Z</time>
      </trkpt>
      <trkpt lat="43.74555" lon="0.88293">
        <ele>219.120625</ele>
        <time>2023-01-01T14:35:54.505Z</time>
      </trkpt>
      <trkpt lat="43.74542" lon="0.88297">
        <ele>219.227057</ele>
        <time>2023-01-01T14:35:57.490Z</time>
      </trkpt>
      <trkpt lat="43.7453" lon="0.88302">
        <ele>219.335023</ele>
        <time>2023-01-01T14:36:00.489Z</time>
      </trkpt>
      <trkpt lat="43.74517" lon="0.88306">
        <ele>219.440666</ele>
        <time>2023-01-01T14:36:03.492Z</time>
      </trkpt>
      <trkpt lat="43.74504" lon="0.88312">
        <ele>219.50321</ele>
        <time>2023-01-01T14:36:06.481Z</time>
      </trkpt>
      <trkpt lat="43.74492" lon="0.88316">
        <ele>219.425055</ele>
        <time>2023-01-01T14:36:09.502Z</time>
      </trkpt>
      <trkpt lat="43.74479" lon="0.88321">
        <ele>219.350431</ele>
        <time>2023-01-01T14:36:12.495Z</time>
      </trkpt>
      <trkpt lat="43.74467" lon="0.88325">
        <ele>219.27711</ele>
        <time>2023-01-01T14:36:15.509Z</time>
      </trkpt>
      <trkpt lat="43.74455" lon="0.8833">
        <ele>219.200552</ele>
        <time>2023-01-01T14:36:18.512Z</time>
      </trkpt>
      <trkpt lat="43.74446" lon="0.88333">
        <ele>219.146063</ele>
        <time>2023-01-01T14:36:20.500Z</time>
      </trkpt>
      <trkpt lat="43.74437" lon="0.88336">
        <ele>219.089974</ele>
        <time>2023-01-01T14:36:22.495Z</time>
      </trkpt>
      <trkpt lat="43.74428" lon="0.8834">
        <ele>219.033433</ele>
        <time>2023-01-01T14:36:24.495Z</time>
      </trkpt>
      <trkpt lat="43.74418" lon="0.88343">
        <ele>218.9762</ele>
        <time>2023-01-01T14:36:26.507Z</time>
      </trkpt>
      <trkpt lat="43.74409" lon="0.88347">
        <ele>218.917501</ele>
        <time>2023-01-01T14:36:28.504Z</time>
      </trkpt>
      <trkpt lat="43.74399" lon="0.88351">
        <ele>218.858455</ele>
        <time>2023-01-01T14:36:30.507Z</time>
      </trkpt>
      <trkpt lat="43.74389" lon="0.88355">
        <ele>218.796781</ele>
        <time>2023-01-01T14:36:32.511Z</time>
      </trkpt>
      <trkpt lat="43.74379" lon="0.88359">
        <ele>218.7358</ele>
        <time>2023-01-01T14:36:34.502Z</time>
      </trkpt>
      <trkpt lat="43.74369" lon="0.88363">
        <ele>218.675944</ele>
        <time>2023-01-01T14:36:36.509Z</time>
      </trkpt>
      <trkpt lat="43.7436" lon="0.88367">
        <ele>218.6177</ele>
        <time>2023-01-01T14:36:38.511Z</time>
      </trkpt>
      <trkpt lat="43.7435" lon="0.8837">
        <ele>218.557029</ele>
        <time>2023-01-01T14:36:40.519Z</time>
      </trkpt>
      <trkpt lat="43.7434" lon="0.88373">
        <ele>218.495582</ele>
        <time>2023-01-01T14:36:42.500Z</time>
      </trkpt>
      <trkpt lat="43.7433" lon="0.88377">
        <ele>218.401923</ele>
        <time>2023-01-01T14:36:44.521Z</time>
      </trkpt>
      <trkpt lat="43.74319" lon="0.88381">
        <ele>218.251988</ele>
        <time>2023-01-01T14:36:46.508Z</time>
      </trkpt>
      <trkpt lat="43.74308" lon="0.88386">
        <ele>218.094065</ele>
        <time>2023-01-01T14:36:48.502Z</time>
      </trkpt>
      <trkpt lat="43.74298" lon="0.8839">
        <ele>217.940322</ele>
        <time>2023-01-01T14:36:50.493Z</time>
      </trkpt>
      <trkpt lat="43.74287" lon="0.88393">
        <ele>217.787466</ele>
        <time>2023-01-01T14:36:52.491Z</time>
      </trkpt>
      <trkpt lat="43.74276" lon="0.88397">
        <ele>217.631031</ele>
        <time>2023-01-01T14:36:54.512Z</time>
      </trkpt>
      <trkpt lat="43.74265" lon="0.88401">
        <ele>217.478394</ele>
        <time>2023-01-01T14:36:56.525Z</time>
      </trkpt>
      <trkpt lat="43.74256" lon="0.88405">
        <ele>217.340064</ele>
        <time>2023-01-01T14:36:58.510Z</time>
      </trkpt>
      <trkpt lat="43.74246" lon="0.88408">
        <ele>217.203404</ele>
        <time>2023-01-01T14:37:00.490Z</time>
      </trkpt>
      <trkpt lat="43.74237" lon="0.88412">
        <ele>217.068623</ele>
        <time>2023-01-01T14:37:02.508Z</time>
      </trkpt>
      <trkpt lat="43.74227" lon="0.88415">
        <ele>216.930332</ele>
        <time>2023-01-01T14:37:04.493Z</time>
      </trkpt>
      <trkpt lat="43.74217" lon="0.88419">
        <ele>216.784142</ele>
        <time>2023-01-01T14:37:06.513Z</time>
      </trkpt>
      <trkpt lat="43.74207" lon="0.88423">
        <ele>216.636862</ele>
        <time>2023-01-01T14:37:08.508Z</time>
      </trkpt>
      <trkpt lat="43.74196" lon="0.88427">
        <ele>216.481605</ele>
        <time>2023-01-01T14:37:10.496Z</time>
      </trkpt>
      <trkpt lat="43.74185" lon="0.88432">
        <ele>216.32551</ele>
        <time>2023-01-01T14:37:12.504Z</time>
      </trkpt>
      <trkpt lat="43.74174" lon="0.88436">
        <ele>216.162212</ele>
        <time>2023-01-01T14:37:14.512Z</time>
      </trkpt>
      <trkpt lat="43.74163" lon="0.8844">
        <ele>216.007483</ele>
        <time>2023-01-01T14:37:16.501Z</time>
      </trkpt>
      <trkpt lat="43.74152" lon="0.88444">
        <ele>216.057874</ele>
        <time>2023-01-01T14:37:18.493Z</time>
      </trkpt>
      <trkpt lat="43.74141" lon="0.88448">
        <ele>216.159775</ele>
        <time>2023-01-01T14:37:20.512Z</time>
      </trkpt>
      <trkpt lat="43.74131" lon="0.88452">
        <ele>216.263601</ele>
        <time>2023-01-01T14:37:22.504Z</time>
      </trkpt>
      <trkpt lat="43.7412" lon="0.88455">
        <ele>216.371192</ele>
        <time>2023-01-01T14:37:24.504Z</time>
      </trkpt>
      <trkpt lat="43.74109" lon="0.88459">
        <ele>216.470069</ele>
        <time>2023-01-01T14:37:26.509Z</time>
      </trkpt>
      <trkpt lat="43.74099" lon="0.88462">
        <ele>216.57197</ele>
        <time>2023-01-01T14:37:28.491Z</time>
      </trkpt>
      <trkpt lat="43.74089" lon="0.88466">
        <ele>216.670029</ele>
        <time>2023-01-01T14:37:30.516Z</time>
      </trkpt>
      <trkpt lat="43.74079" lon="0.88468">
        <ele>216.766452</ele>
        <time>2023-01-01T14:37:32.505Z</time>
      </trkpt>
      <trkpt lat="43.74069" lon="0.88471">
        <ele>216.860887</ele>
        <time>2023-01-01T14:37:34.490Z</time>
      </trkpt>
      <trkpt lat="43.74059" lon="0.88473">
        <ele>216.958692</ele>
        <time>2023-01-01T14:37:36.489Z</time>
      </trkpt>
      <trkpt lat="43.74049" lon="0.88475">
        <ele>217.048597</ele>
        <time>2023-01-01T14:37:38.496Z</time>
      </trkpt>
      <trkpt lat="43.7404" lon="0.88477">
        <ele>217.139343</ele>
        <time>2023-01-01T14:37:40.499Z</time>
      </trkpt>
      <trkpt lat="43.74031" lon="0.88478">
        <ele>217.228747</ele>
        <time>2023-01-01T14:37:42.502Z</time>
      </trkpt>
      <trkpt lat="43.74022" lon="0.8848">
        <ele>217.314538</ele>
        <time>2023-01-01T14:37:44.492Z</time>
      </trkpt>
      <trkpt lat="43.74008" lon="0.88482">
        <ele>217.439883</ele>
        <time>2023-01-01T14:37:47.510Z</time>
      </trkpt>
      <trkpt lat="43.73995" lon="0.88484">
        <ele>217.568376</ele>
        <time>2023-01-01T14:37:50.504Z</time>
      </trkpt>
      <trkpt lat="43.73986" lon="0.88485">
        <ele>217.656457</ele>
        <time>2023-01-01T14:37:52.496Z</time>
      </trkpt>
      <trkpt lat="43.73976" lon="0.88486">
        <ele>217.614661</ele>
        <time>2023-01-01T14:37:54.506Z</time>
      </trkpt>
      <trkpt lat="43.73967" lon="0.88488">
        <ele>217.543485</ele>
        <time>2023-01-01T14:37:56.501Z</time>
      </trkpt>
      <trkpt lat="43.73954" lon="0.8849">
        <ele>217.442642</ele>
        <time>2023-01-01T14:37:59.493Z</time>
      </trkpt>
      <trkpt lat="43.73941" lon="0.8849">
        <ele>217.33939</ele>
        <time>2023-01-01T14:38:02.489Z</time>
      </trkpt>
      <trkpt lat="43.73931" lon="0.88491">
        <ele>217.2677</ele>
        <time>2023-01-01T14:38:04.487Z</time>
      </trkpt>
      <trkpt lat="43.73922" lon="0.88492">
        <ele>217.195907</ele>
        <time>2023-01-01T14:38:06.491Z</time>
      </trkpt>
      <trkpt lat="43.73913" lon="0.88492">
        <ele>217.12502</ele>
        <time>2023-01-01T14:38:08.506Z</time>
      </trkpt>
      <trkpt lat="43.73904" lon="0.88491">
        <ele>217.054896</ele>
        <time>2023-01-01T14:38:10.495Z</time>
      </trkpt>
      <trkpt lat="43.7389" lon="0.8849">
        <ele>216.949683</ele>
        <time>2023-01-01T14:38:13.489Z</time>
      </trkpt>
      <trkpt lat="43.73881" lon="0.88487">
        <ele>216.87841</ele>
        <time>2023-01-01T14:38:15.494Z</time>
      </trkpt>
      <trkpt lat="43.73872" lon="0.88485">
        <ele>216.808087</ele>
        <time>2023-01-01T14:38:17.503Z</time>
      </trkpt>
      <trkpt lat="43.73863" lon="0.88481">
        <ele>216.732483</ele>
        <time>2023-01-01T14:38:19.503Z</time>
      </trkpt>
      <trkpt lat="43.73854" lon="0.88477">
        <ele>216.657302</ele>
        <time>2023-01-01T14:38:21.490Z</time>
      </trkpt>
      <trkpt lat="43.73845" lon="0.88472">
        <ele>216.582158</ele>
        <time>2023-01-01T14:38:23.494Z</time>
      </trkpt>
      <trkpt lat="43.73836" lon="0.88466">
        <ele>216.511634</ele>
        <time>2023-01-01T14:38:25.495Z</time>
      </trkpt>
      <trkpt lat="43.73827" lon="0.88459">
        <ele>216.427417</ele>
        <time>2023-01-01T14:38:27.504Z</time>
      </trkpt>
      <trkpt lat="43.73816" lon="0.88452">
        <ele>216.339196</ele>
        <time>2023-01-01T14:38:29.491Z</time>
      </trkpt>
      <trkpt lat="43.73806" lon="0.88444">
        <ele>216.270319</ele>
        <time>2023-01-01T14:38:31.491Z</time>
      </trkpt>
      <trkpt lat="43.73795" lon="0.88436">
        <ele>216.229528</ele>
        <time>2023-01-01T14:38:33.510Z</time>
      </trkpt>
      <trkpt lat="43.73784" lon="0.88428">
        <ele>216.190584</ele>
        <time>2023-01-01T14:38:35.499Z</time>
      </trkpt>
      <trkpt lat="43.73773" lon="0.88421">
        <ele>216.149548</ele>
        <time>2023-01-01T14:38:37.487Z</time>
      </trkpt>
      <trkpt lat="43.73763" lon="0.88413">
        <ele>216.110464</ele>
        <time>2023-01-01T14:38:39.508Z</time>
      </trkpt>
      <trkpt lat="43.73753" lon="0.88405">
        <ele>216.074486</ele>
        <time>2023-01-01T14:38:41.501Z</time>
      </trkpt>
      <trkpt lat="43.73745" lon="0.88399">
        <ele>216.043926</ele>
        <time>2023-01-01T14:38:43.503Z</time>
      </trkpt>
      <trkpt lat="43.73734" lon="0.8839">
        <ele>216.001129</ele>
        <time>2023-01-01T14:38:46.489Z</time>
      </trkpt>
      <trkpt lat="43.73723" lon="0.8838">
        <ele>215.95993</ele>
        <time>2023-01-01T14:38:49.493Z</time>
      </trkpt>
      <trkpt lat="43.73714" lon="0.88372">
        <ele>215.92383</ele>
        <time>2023-01-01T14:38:52.500Z</time>
      </trkpt>
      <trkpt lat="43.73705" lon="0.88365">
        <ele>215.890712</ele>
        <time>2023-01-01T14:38:55.500Z</time>
      </trkpt>
      <trkpt lat="43.73697" lon="0.88359">
        <ele>215.86026</ele>
        <time>2023-01-01T14:38:58.500Z</time>
      </trkpt>
      <trkpt lat="43.73688" lon="0.8835">
        <ele>215.822168</ele>
        <time>2023-01-01T14:39:02.494Z</time>
      </trkpt>
      <trkpt lat="43.73679" lon="0.88343">
        <ele>215.789858</ele>
        <time>2023-01-01T14:39:05.485Z</time>
      </trkpt>
      <trkpt lat="43.73669" lon="0.88335">
        <ele>215.752006</ele>
        <time>2023-01-01T14:39:08.490Z</time>
      </trkpt>
      <trkpt lat="43.73658" lon="0.88327">
        <ele>215.710363</ele>
        <time>2023-01-01T14:39:11.486Z</time>
      </trkpt>
      <trkpt lat="43.7365" lon="0.8832">
        <ele>215.357513</ele>
        <time>2023-01-01T14:39:13.487Z</time>
      </trkpt>
      <trkpt lat="43.73642" lon="0.88314">
        <ele>214.744897</ele>
        <time>2023-01-01T14:39:15.492Z</time>
      </trkpt>
      <trkpt lat="43.73633" lon="0.88307">
        <ele>214.10546</ele>
        <time>2023-01-01T14:39:17.490Z</time>
      </trkpt>
      <trkpt lat="43.73624" lon="0.88299">
        <ele>213.433745</ele>
        <time>2023-01-01T14:39:19.483Z</time>
      </trkpt>
      <trkpt lat="43.73615" lon="0.88292">
        <ele>212.751771</ele>
        <time>2023-01-01T14:39:21.491Z</time>
      </trkpt>
      <trkpt lat="43.73604" lon="0.88284">
        <ele>212.001457</ele>
        <time>2023-01-01T14:39:23.485Z</time>
      </trkpt>
      <trkpt lat="43.73593" lon="0.88276">
        <ele>211.183985</ele>
        <time>2023-01-01T14:39:25.484Z</time>
      </trkpt>
      <trkpt lat="43.73582" lon="0.88265">
        <ele>210.301957</ele>
        <time>2023-01-01T14:39:27.507Z</time>
      </trkpt>
      <trkpt lat="43.7357" lon="0.88256">
        <ele>209.407054</ele>
        <time>2023-01-01T14:39:29.508Z</time>
      </trkpt>
      <trkpt lat="43.73558" lon="0.88247">
        <ele>208.567122</ele>
        <time>2023-01-01T14:39:31.485Z</time>
      </trkpt>
      <trkpt lat="43.73546" lon="0.88237">
        <ele>207.685609</ele>
        <time>2023-01-01T14:39:33.494Z</time>
      </trkpt>
      <trkpt lat="43.73535" lon="0.88228">
        <ele>206.835521</ele>
        <time>2023-01-01T14:39:35.492Z</time>
      </trkpt>
      <trkpt lat="43.73523" lon="0.88219">
        <ele>205.98893</ele>
        <time>2023-01-01T14:39:37.490Z</time>
      </trkpt>
      <trkpt lat="43.73512" lon="0.8821">
        <ele>205.170254</ele>
        <time>2023-01-01T14:39:39.507Z</time>
      </trkpt>
      <trkpt lat="43.735" lon="0.88201">
        <ele>204.286711</ele>
        <time>2023-01-01T14:39:41.495Z</time>
      </trkpt>
      <trkpt lat="43.73488" lon="0.88192">
        <ele>203.798514</ele>
        <time>2023-01-01T14:39:43.497Z</time>
      </trkpt>
      <trkpt lat="43.73476" lon="0.88181">
        <ele>203.324662</ele>
        <time>2023-01-01T14:39:45.491Z</time>
      </trkpt>
      <trkpt lat="43.73463" lon="0.88172">
        <ele>202.86184</ele>
        <time>2023-01-01T14:39:47.504Z</time>
      </trkpt>
      <trkpt lat="43.7345" lon="0.88161">
        <ele>202.366718</ele>
        <time>2023-01-01T14:39:49.494Z</time>
      </trkpt>
      <trkpt lat="43.73438" lon="0.88151">
        <ele>201.895675</ele>
        <time>2023-01-01T14:39:51.485Z</time>
      </trkpt>
      <trkpt lat="43.73425" lon="0.8814">
        <ele>201.411704</ele>
        <time>2023-01-01T14:39:53.485Z</time>
      </trkpt>
      <trkpt lat="43.73413" lon="0.8813">
        <ele>200.939788</ele>
        <time>2023-01-01T14:39:55.498Z</time>
      </trkpt>
      <trkpt lat="43.734" lon="0.8812">
        <ele>200.457931</ele>
        <time>2023-01-01T14:39:57.499Z</time>
      </trkpt>
      <trkpt lat="43.73387" lon="0.88111">
        <ele>199.966284</ele>
        <time>2023-01-01T14:39:59.494Z</time>
      </trkpt>
      <trkpt lat="43.73374" lon="0.88101">
        <ele>199.491991</ele>
        <time>2023-01-01T14:40:01.491Z</time>
      </trkpt>
      <trkpt lat="43.73361" lon="0.8809">
        <ele>199.006471</ele>
        <time>2023-01-01T14:40:03.494Z</time>
      </trkpt>
      <trkpt lat="43.73348" lon="0.8808">
        <ele>198.51848</ele>
        <time>2023-01-01T14:40:05.498Z</time>
      </trkpt>
      <trkpt lat="43.73335" lon="0.88068">
        <ele>198.312711</ele>
        <time>2023-01-01T14:40:07.496Z</time>
      </trkpt>
      <trkpt lat="43.73321" lon="0.88058">
        <ele>198.312711</ele>
        <time>2023-01-01T14:40:09.498Z</time>
      </trkpt>
      <trkpt lat="43.73307" lon="0.88047">
        <ele>198.312711</ele>
        <time>2023-01-01T14:40:11.492Z</time>
      </trkpt>
      <trkpt lat="43.73294" lon="0.88037">
        <ele>198.312711</ele>
        <time>2023-01-01T14:40:13.493Z</time>
      </trkpt>
      <trkpt lat="43.73279" lon="0.88026">
        <ele>198.312711</ele>
        <time>2023-01-01T14:40:15.499Z</time>
      </trkpt>
      <trkpt lat="43.73265" lon="0.88015">
        <ele>198.312711</ele>
        <time>2023-01-01T14:40:17.488Z</time>
      </trkpt>
      <trkpt lat="43.73252" lon="0.88005">
        <ele>198.312711</ele>
        <time>2023-01-01T14:40:19.508Z</time>
      </trkpt>
      <trkpt lat="43.73241" lon="0.87995">
        <ele>198.312711</ele>
        <time>2023-01-01T14:40:21.502Z</time>
      </trkpt>
      <trkpt lat="43.73231" lon="0.87988">
        <ele>198.312711</ele>
        <time>2023-01-01T14:40:23.496Z</time>
      </trkpt>
      <trkpt lat="43.73223" lon="0.87981">
        <ele>198.312711</ele>
        <time>2023-01-01T14:40:25.492Z</time>
      </trkpt>
      <trkpt lat="43.73213" lon="0.87972">
        <ele>198.312711</ele>
        <time>2023-01-01T14:40:28.503Z</time>
      </trkpt>
      <trkpt lat="43.73203" lon="0.87965">
        <ele>198.312711</ele>
        <time>2023-01-01T14:40:31.495Z</time>
      </trkpt>
      <trkpt lat="43.73195" lon="0.87958">
        <ele>198.312711</ele>
        <time>2023-01-01T14:40:34.487Z</time>
      </trkpt>
      <trkpt lat="43.73184" lon="0.87951">
        <ele>198.312711</ele>
        <time>2023-01-01T14:40:38.486Z</time>
      </trkpt>
      <trkpt lat="43.73174" lon="0.87943">
        <ele>198.312711</ele>
        <time>2023-01-01T14:40:42.511Z</time>
      </trkpt>
      <trkpt lat="43.73163" lon="0.87935">
        <ele>198.312711</ele>
        <time>2023-01-01T14:40:46.493Z</time>
      </trkpt>
      <trkpt lat="43.73157" lon="0.87926">
        <ele>198.312711</ele>
        <time>2023-01-01T14:40:50.492Z</time>
      </trkpt>
      <trkpt lat="43.73151" lon="0.87918">
        <ele>198.312711</ele>
        <time>2023-01-01T14:41:00.647Z</time>
        <extensions>
          <visugpx:TrkExtension xmlns:visugpx="https://www.visugpx.com/editgpx/">
            <visugpx:node>1</visugpx:node>
            </visugpx:TrkExtension>
        </extensions>
      </trkpt>
    </trkseg>
  </trk>
  <trk>
    <name><![CDATA[Mauvezin - Colomiers]]></name>
    <extensions>
      <line xmlns="http://www.topografix.com/GPX/gpx_style/0/2">
        <color>ff0000</color>
        <width>4</width>
      </line>
    </extensions>
    <trkseg>
      <trkpt lat="43.72828" lon="0.86152">
        <ele>203.032796</ele>
        <time>2023-01-03T09:11:16.581Z</time>
      </trkpt>
      <trkpt lat="43.72818" lon="0.86148">
        <ele>203.032796</ele>
        <time>2023-01-03T09:11:45.777Z</time>
      </trkpt>
      <trkpt lat="43.72807" lon="0.86152">
        <ele>203.032796</ele>
        <time>2023-01-03T09:12:10.774Z</time>
      </trkpt>
      <trkpt lat="43.72815" lon="0.86156">
        <ele>203.032796</ele>
        <time>2023-01-03T09:12:19.774Z</time>
      </trkpt>
      <trkpt lat="43.72827" lon="0.8616">
        <ele>203.032796</ele>
        <time>2023-01-03T09:12:23.787Z</time>
      </trkpt>
      <trkpt lat="43.72837" lon="0.8616">
        <ele>203.032796</ele>
        <time>2023-01-03T09:12:26.793Z</time>
      </trkpt>
      <trkpt lat="43.72847" lon="0.86156">
        <ele>203.032796</ele>
        <time>2023-01-03T09:12:39.770Z</time>
      </trkpt>
      <trkpt lat="43.72857" lon="0.86156">
        <ele>203.032796</ele>
        <time>2023-01-03T09:12:42.775Z</time>
      </trkpt>
      <trkpt lat="43.72871" lon="0.86153">
        <ele>203.032796</ele>
        <time>2023-01-03T09:12:45.794Z</time>
      </trkpt>
      <trkpt lat="43.72881" lon="0.86153">
        <ele>202.764478</ele>
        <time>2023-01-03T09:12:47.795Z</time>
      </trkpt>
      <trkpt lat="43.72891" lon="0.86153">
        <ele>202.387223</ele>
        <time>2023-01-03T09:12:49.788Z</time>
      </trkpt>
      <trkpt lat="43.72902" lon="0.86154">
        <ele>201.988018</ele>
        <time>2023-01-03T09:12:51.789Z</time>
      </trkpt>
      <trkpt lat="43.72913" lon="0.86154">
        <ele>201.600014</ele>
        <time>2023-01-03T09:12:53.792Z</time>
      </trkpt>
      <trkpt lat="43.72924" lon="0.86154">
        <ele>201.18219</ele>
        <time>2023-01-03T09:12:55.789Z</time>
      </trkpt>
      <trkpt lat="43.72934" lon="0.86155">
        <ele>200.80147</ele>
        <time>2023-01-03T09:12:57.766Z</time>
      </trkpt>
      <trkpt lat="43.72945" lon="0.86155">
        <ele>200.423854</ele>
        <time>2023-01-03T09:12:59.776Z</time>
      </trkpt>
      <trkpt lat="43.72955" lon="0.86156">
        <ele>200.039282</ele>
        <time>2023-01-03T09:13:01.792Z</time>
      </trkpt>
      <trkpt lat="43.72965" lon="0.86156">
        <ele>199.672897</ele>
        <time>2023-01-03T09:13:03.789Z</time>
      </trkpt>
      <trkpt lat="43.72975" lon="0.86157">
        <ele>199.328777</ele>
        <time>2023-01-03T09:13:05.787Z</time>
      </trkpt>
      <trkpt lat="43.72984" lon="0.86157">
        <ele>198.970056</ele>
        <time>2023-01-03T09:13:07.777Z</time>
      </trkpt>
      <trkpt lat="43.72994" lon="0.86157">
        <ele>198.625966</ele>
        <time>2023-01-03T09:13:09.792Z</time>
      </trkpt>
      <trkpt lat="43.73006" lon="0.86155">
        <ele>198.174215</ele>
        <time>2023-01-03T09:13:12.793Z</time>
      </trkpt>
      <trkpt lat="43.73015" lon="0.86156">
        <ele>197.843717</ele>
        <time>2023-01-03T09:13:15.774Z</time>
      </trkpt>
      <trkpt lat="43.73023" lon="0.86167">
        <ele>197.443691</ele>
        <time>2023-01-03T09:13:19.781Z</time>
      </trkpt>
      <trkpt lat="43.7303" lon="0.86179">
        <ele>197.029567</ele>
        <time>2023-01-03T09:13:35.767Z</time>
      </trkpt>
      <trkpt lat="43.73041" lon="0.86207">
        <ele>196.210086</ele>
        <time>2023-01-03T09:14:06.798Z</time>
      </trkpt>
      <trkpt lat="43.73048" lon="0.86222">
        <ele>195.75448</ele>
        <time>2023-01-03T09:14:09.792Z</time>
      </trkpt>
      <trkpt lat="43.73053" lon="0.86234">
        <ele>195.417626</ele>
        <time>2023-01-03T09:14:11.790Z</time>
      </trkpt>
      <trkpt lat="43.73059" lon="0.86246">
        <ele>195.071845</ele>
        <time>2023-01-03T09:14:13.791Z</time>
      </trkpt>
      <trkpt lat="43.73064" lon="0.86258">
        <ele>194.733803</ele>
        <time>2023-01-03T09:14:15.790Z</time>
      </trkpt>
      <trkpt lat="43.73069" lon="0.86271">
        <ele>194.365502</ele>
        <time>2023-01-03T09:14:17.777Z</time>
      </trkpt>
      <trkpt lat="43.73073" lon="0.86284">
        <ele>194.003349</ele>
        <time>2023-01-03T09:14:19.788Z</time>
      </trkpt>
      <trkpt lat="43.73079" lon="0.86297">
        <ele>193.630174</ele>
        <time>2023-01-03T09:14:21.795Z</time>
      </trkpt>
      <trkpt lat="43.73084" lon="0.86311">
        <ele>193.227529</ele>
        <time>2023-01-03T09:14:23.792Z</time>
      </trkpt>
      <trkpt lat="43.73091" lon="0.86326">
        <ele>192.806908</ele>
        <time>2023-01-03T09:14:25.786Z</time>
      </trkpt>
      <trkpt lat="43.73096" lon="0.86341">
        <ele>192.392464</ele>
        <time>2023-01-03T09:14:27.778Z</time>
      </trkpt>
      <trkpt lat="43.73102" lon="0.86355">
        <ele>191.980739</ele>
        <time>2023-01-03T09:14:29.796Z</time>
      </trkpt>
      <trkpt lat="43.73108" lon="0.86371">
        <ele>191.54585</ele>
        <time>2023-01-03T09:14:31.793Z</time>
      </trkpt>
      <trkpt lat="43.73114" lon="0.86387">
        <ele>191.115104</ele>
        <time>2023-01-03T09:14:33.795Z</time>
      </trkpt>
      <trkpt lat="43.7312" lon="0.86402">
        <ele>190.670798</ele>
        <time>2023-01-03T09:14:35.777Z</time>
      </trkpt>
      <trkpt lat="43.73126" lon="0.86418">
        <ele>190.190323</ele>
        <time>2023-01-03T09:14:37.795Z</time>
      </trkpt>
      <trkpt lat="43.73132" lon="0.86433">
        <ele>189.393248</ele>
        <time>2023-01-03T09:14:39.788Z</time>
      </trkpt>
      <trkpt lat="43.73138" lon="0.86449">
        <ele>188.616709</ele>
        <time>2023-01-03T09:14:41.793Z</time>
      </trkpt>
      <trkpt lat="43.73144" lon="0.86464">
        <ele>187.858797</ele>
        <time>2023-01-03T09:14:43.795Z</time>
      </trkpt>
      <trkpt lat="43.7315" lon="0.86478">
        <ele>187.129061</ele>
        <time>2023-01-03T09:14:45.776Z</time>
      </trkpt>
      <trkpt lat="43.73156" lon="0.86492">
        <ele>186.411301</ele>
        <time>2023-01-03T09:14:47.798Z</time>
      </trkpt>
      <trkpt lat="43.73161" lon="0.86506">
        <ele>185.711582</ele>
        <time>2023-01-03T09:14:49.771Z</time>
      </trkpt>
      <trkpt lat="43.73165" lon="0.86521">
        <ele>184.991377</ele>
        <time>2023-01-03T09:14:51.771Z</time>
      </trkpt>
      <trkpt lat="43.7317" lon="0.86536">
        <ele>184.255463</ele>
        <time>2023-01-03T09:14:53.793Z</time>
      </trkpt>
      <trkpt lat="43.73174" lon="0.86552">
        <ele>183.484456</ele>
        <time>2023-01-03T09:14:55.784Z</time>
      </trkpt>
      <trkpt lat="43.73178" lon="0.86569">
        <ele>182.710545</ele>
        <time>2023-01-03T09:14:57.778Z</time>
      </trkpt>
      <trkpt lat="43.73181" lon="0.86587">
        <ele>181.894851</ele>
        <time>2023-01-03T09:14:59.780Z</time>
      </trkpt>
      <trkpt lat="43.73182" lon="0.86607">
        <ele>180.998043</ele>
        <time>2023-01-03T09:15:01.771Z</time>
      </trkpt>
      <trkpt lat="43.73181" lon="0.8663">
        <ele>179.988503</ele>
        <time>2023-01-03T09:15:03.774Z</time>
      </trkpt>
      <trkpt lat="43.73179" lon="0.86652">
        <ele>179.152784</ele>
        <time>2023-01-03T09:15:05.792Z</time>
      </trkpt>
      <trkpt lat="43.73178" lon="0.86665">
        <ele>179.003683</ele>
        <time>2023-01-03T09:15:06.781Z</time>
      </trkpt>
      <trkpt lat="43.73178" lon="0.86678">
        <ele>178.848983</ele>
        <time>2023-01-03T09:15:07.787Z</time>
      </trkpt>
      <trkpt lat="43.73177" lon="0.86693">
        <ele>178.68391</ele>
        <time>2023-01-03T09:15:08.777Z</time>
      </trkpt>
      <trkpt lat="43.73177" lon="0.86708">
        <ele>178.512338</ele>
        <time>2023-01-03T09:15:09.772Z</time>
      </trkpt>
      <trkpt lat="43.73177" lon="0.86723">
        <ele>178.337336</ele>
        <time>2023-01-03T09:15:10.792Z</time>
      </trkpt>
      <trkpt lat="43.73176" lon="0.86739">
        <ele>178.149519</ele>
        <time>2023-01-03T09:15:11.784Z</time>
      </trkpt>
      <trkpt lat="43.73176" lon="0.86756">
        <ele>177.95599</ele>
        <time>2023-01-03T09:15:12.783Z</time>
      </trkpt>
      <trkpt lat="43.73175" lon="0.8678">
        <ele>177.690166</ele>
        <time>2023-01-03T09:15:14.789Z</time>
      </trkpt>
      <trkpt lat="43.73176" lon="0.86799">
        <ele>177.462768</ele>
        <time>2023-01-03T09:15:18.792Z</time>
      </trkpt>
      <trkpt lat="43.73175" lon="0.86819">
        <ele>177.242477</ele>
        <time>2023-01-03T09:15:20.778Z</time>
      </trkpt>
      <trkpt lat="43.73174" lon="0.86838">
        <ele>177.02267</ele>
        <time>2023-01-03T09:15:22.788Z</time>
      </trkpt>
      <trkpt lat="43.73174" lon="0.86856">
        <ele>176.816738</ele>
        <time>2023-01-03T09:15:24.774Z</time>
      </trkpt>
      <trkpt lat="43.73174" lon="0.86873">
        <ele>176.61528</ele>
        <time>2023-01-03T09:15:26.791Z</time>
      </trkpt>
      <trkpt lat="43.73173" lon="0.86891">
        <ele>176.41281</ele>
        <time>2023-01-03T09:15:28.797Z</time>
      </trkpt>
      <trkpt lat="43.73172" lon="0.86908">
        <ele>176.20245</ele>
        <time>2023-01-03T09:15:30.771Z</time>
      </trkpt>
      <trkpt lat="43.73172" lon="0.86924">
        <ele>176.005786</ele>
        <time>2023-01-03T09:15:32.790Z</time>
      </trkpt>
      <trkpt lat="43.73172" lon="0.8694">
        <ele>175.813878</ele>
        <time>2023-01-03T09:15:34.780Z</time>
      </trkpt>
      <trkpt lat="43.73171" lon="0.86955">
        <ele>175.623206</ele>
        <time>2023-01-03T09:15:36.785Z</time>
      </trkpt>
      <trkpt lat="43.73171" lon="0.86969">
        <ele>175.446199</ele>
        <time>2023-01-03T09:15:38.771Z</time>
      </trkpt>
      <trkpt lat="43.7317" lon="0.86985">
        <ele>175.259046</ele>
        <time>2023-01-03T09:15:40.786Z</time>
      </trkpt>
      <trkpt lat="43.7317" lon="0.86999">
        <ele>175.077023</ele>
        <time>2023-01-03T09:15:42.785Z</time>
      </trkpt>
      <trkpt lat="43.73169" lon="0.87013">
        <ele>174.904679</ele>
        <time>2023-01-03T09:15:44.793Z</time>
      </trkpt>
      <trkpt lat="43.73169" lon="0.87027">
        <ele>174.736384</ele>
        <time>2023-01-03T09:15:46.798Z</time>
      </trkpt>
      <trkpt lat="43.73168" lon="0.87045">
        <ele>174.507458</ele>
        <time>2023-01-03T09:15:49.770Z</time>
      </trkpt>
      <trkpt lat="43.73168" lon="0.87058">
        <ele>174.350365</ele>
        <time>2023-01-03T09:15:51.776Z</time>
      </trkpt>
      <trkpt lat="43.73167" lon="0.87076">
        <ele>174.129661</ele>
        <time>2023-01-03T09:15:54.792Z</time>
      </trkpt>
      <trkpt lat="43.73166" lon="0.8709">
        <ele>173.950165</ele>
        <time>2023-01-03T09:15:56.781Z</time>
      </trkpt>
      <trkpt lat="43.73165" lon="0.87103">
        <ele>173.78494</ele>
        <time>2023-01-03T09:15:58.789Z</time>
      </trkpt>
      <trkpt lat="43.73164" lon="0.87117">
        <ele>173.622331</ele>
        <time>2023-01-03T09:16:00.778Z</time>
      </trkpt>
      <trkpt lat="43.73164" lon="0.87129">
        <ele>173.462323</ele>
        <time>2023-01-03T09:16:02.793Z</time>
      </trkpt>
      <trkpt lat="43.73163" lon="0.87142">
        <ele>173.307561</ele>
        <time>2023-01-03T09:16:04.792Z</time>
      </trkpt>
      <trkpt lat="43.73162" lon="0.87159">
        <ele>173.098239</ele>
        <time>2023-01-03T09:16:07.774Z</time>
      </trkpt>
      <trkpt lat="43.73161" lon="0.87172">
        <ele>172.947905</ele>
        <time>2023-01-03T09:16:10.792Z</time>
      </trkpt>
      <trkpt lat="43.73156" lon="0.87188">
        <ele>172.738402</ele>
        <time>2023-01-03T09:16:13.772Z</time>
      </trkpt>
      <trkpt lat="43.73153" lon="0.87204">
        <ele>172.534061</ele>
        <time>2023-01-03T09:16:16.786Z</time>
      </trkpt>
      <trkpt lat="43.7315" lon="0.87217">
        <ele>172.376139</ele>
        <time>2023-01-03T09:16:20.776Z</time>
      </trkpt>
      <trkpt lat="43.73149" lon="0.87229">
        <ele>172.219225</ele>
        <time>2023-01-03T09:16:23.780Z</time>
      </trkpt>
      <trkpt lat="43.73147" lon="0.87242">
        <ele>172.066522</ele>
        <time>2023-01-03T09:16:26.790Z</time>
      </trkpt>
      <trkpt lat="43.73145" lon="0.87255">
        <ele>171.901683</ele>
        <time>2023-01-03T09:16:29.797Z</time>
      </trkpt>
      <trkpt lat="43.73143" lon="0.87269">
        <ele>171.737537</ele>
        <time>2023-01-03T09:16:31.793Z</time>
      </trkpt>
      <trkpt lat="43.73141" lon="0.87282">
        <ele>171.572698</ele>
        <time>2023-01-03T09:16:34.773Z</time>
      </trkpt>
      <trkpt lat="43.73138" lon="0.87298">
        <ele>171.375056</ele>
        <time>2023-01-03T09:16:38.798Z</time>
      </trkpt>
      <trkpt lat="43.73135" lon="0.87311">
        <ele>171.213188</ele>
        <time>2023-01-03T09:16:41.790Z</time>
      </trkpt>
      <trkpt lat="43.73132" lon="0.87326">
        <ele>171.02059</ele>
        <time>2023-01-03T09:16:44.787Z</time>
      </trkpt>
      <trkpt lat="43.7313" lon="0.87343">
        <ele>170.813565</ele>
        <time>2023-01-03T09:16:47.781Z</time>
      </trkpt>
      <trkpt lat="43.73127" lon="0.8736">
        <ele>170.606894</ele>
        <time>2023-01-03T09:16:50.797Z</time>
      </trkpt>
      <trkpt lat="43.73125" lon="0.87377">
        <ele>170.399047</ele>
        <time>2023-01-03T09:16:53.794Z</time>
      </trkpt>
      <trkpt lat="43.73122" lon="0.87395">
        <ele>170.372443</ele>
        <time>2023-01-03T09:16:56.781Z</time>
      </trkpt>
      <trkpt lat="43.73112" lon="0.87408">
        <ele>170.541511</ele>
        <time>2023-01-03T09:16:59.772Z</time>
      </trkpt>
      <trkpt lat="43.73104" lon="0.87413">
        <ele>170.657925</ele>
        <time>2023-01-03T09:17:01.772Z</time>
      </trkpt>
      <trkpt lat="43.73091" lon="0.87417">
        <ele>170.820547</ele>
        <time>2023-01-03T09:17:04.781Z</time>
      </trkpt>
      <trkpt lat="43.73079" lon="0.87421">
        <ele>170.986479</ele>
        <time>2023-01-03T09:17:07.779Z</time>
      </trkpt>
      <trkpt lat="43.73066" lon="0.87425">
        <ele>171.153491</ele>
        <time>2023-01-03T09:17:10.792Z</time>
      </trkpt>
      <trkpt lat="43.73053" lon="0.87426">
        <ele>171.3173</ele>
        <time>2023-01-03T09:17:13.770Z</time>
      </trkpt>
      <trkpt lat="43.73041" lon="0.87423">
        <ele>171.474945</ele>
        <time>2023-01-03T09:17:16.773Z</time>
      </trkpt>
      <trkpt lat="43.73028" lon="0.8742">
        <ele>171.643461</ele>
        <time>2023-01-03T09:17:19.778Z</time>
      </trkpt>
      <trkpt lat="43.73018" lon="0.87418">
        <ele>171.761652</ele>
        <time>2023-01-03T09:17:21.777Z</time>
      </trkpt>
      <trkpt lat="43.73009" lon="0.87416">
        <ele>171.879843</ele>
        <time>2023-01-03T09:17:23.790Z</time>
      </trkpt>
      <trkpt lat="43.73" lon="0.87415">
        <ele>171.998779</ele>
        <time>2023-01-03T09:17:25.786Z</time>
      </trkpt>
      <trkpt lat="43.72991" lon="0.87414">
        <ele>172.114327</ele>
        <time>2023-01-03T09:17:27.790Z</time>
      </trkpt>
      <trkpt lat="43.72982" lon="0.87415">
        <ele>172.228993</ele>
        <time>2023-01-03T09:17:29.778Z</time>
      </trkpt>
      <trkpt lat="43.72968" lon="0.87416">
        <ele>172.404421</ele>
        <time>2023-01-03T09:17:32.792Z</time>
      </trkpt>
      <trkpt lat="43.72959" lon="0.87417">
        <ele>172.524071</ele>
        <time>2023-01-03T09:17:34.799Z</time>
      </trkpt>
      <trkpt lat="43.72949" lon="0.87419">
        <ele>172.613874</ele>
        <time>2023-01-03T09:17:36.794Z</time>
      </trkpt>
      <trkpt lat="43.72936" lon="0.87421">
        <ele>172.711878</ele>
        <time>2023-01-03T09:17:39.795Z</time>
      </trkpt>
      <trkpt lat="43.72923" lon="0.87422">
        <ele>172.805167</ele>
        <time>2023-01-03T09:17:42.793Z</time>
      </trkpt>
      <trkpt lat="43.7291" lon="0.87423">
        <ele>172.897544</ele>
        <time>2023-01-03T09:17:45.792Z</time>
      </trkpt>
      <trkpt lat="43.72898" lon="0.87424">
        <ele>172.991693</ele>
        <time>2023-01-03T09:17:48.794Z</time>
      </trkpt>
      <trkpt lat="43.72884" lon="0.87426">
        <ele>173.089491</ele>
        <time>2023-01-03T09:17:51.787Z</time>
      </trkpt>
      <trkpt lat="43.72871" lon="0.87427">
        <ele>173.189233</ele>
        <time>2023-01-03T09:17:54.794Z</time>
      </trkpt>
      <trkpt lat="43.7286" lon="0.87428">
        <ele>173.267967</ele>
        <time>2023-01-03T09:17:56.796Z</time>
      </trkpt>
      <trkpt lat="43.72851" lon="0.87428">
        <ele>173.334638</ele>
        <time>2023-01-03T09:17:58.793Z</time>
      </trkpt>
      <trkpt lat="43.72837" lon="0.87429">
        <ele>173.437978</ele>
        <time>2023-01-03T09:18:01.768Z</time>
      </trkpt>
      <trkpt lat="43.72824" lon="0.87431">
        <ele>173.530158</ele>
        <time>2023-01-03T09:18:04.787Z</time>
      </trkpt>
      <trkpt lat="43.72812" lon="0.87431">
        <ele>173.623231</ele>
        <time>2023-01-03T09:18:07.794Z</time>
      </trkpt>
      <trkpt lat="43.72801" lon="0.87432">
        <ele>173.704717</ele>
        <time>2023-01-03T09:18:10.770Z</time>
      </trkpt>
      <trkpt lat="43.72789" lon="0.87434">
        <ele>173.792411</ele>
        <time>2023-01-03T09:18:13.780Z</time>
      </trkpt>
      <trkpt lat="43.72777" lon="0.87436">
        <ele>173.877318</ele>
        <time>2023-01-03T09:18:16.791Z</time>
      </trkpt>
      <trkpt lat="43.72765" lon="0.87436">
        <ele>174.14511</ele>
        <time>2023-01-03T09:18:19.790Z</time>
      </trkpt>
      <trkpt lat="43.72753" lon="0.87438">
        <ele>174.423025</ele>
        <time>2023-01-03T09:18:22.771Z</time>
      </trkpt>
      <trkpt lat="43.72741" lon="0.87439">
        <ele>174.705338</ele>
        <time>2023-01-03T09:18:25.779Z</time>
      </trkpt>
      <trkpt lat="43.72732" lon="0.8744">
        <ele>174.92722</ele>
        <time>2023-01-03T09:18:28.791Z</time>
      </trkpt>
      <trkpt lat="43.72721" lon="0.87441">
        <ele>175.187519</ele>
        <time>2023-01-03T09:18:31.770Z</time>
      </trkpt>
      <trkpt lat="43.72711" lon="0.87441">
        <ele>175.42901</ele>
        <time>2023-01-03T09:18:34.791Z</time>
      </trkpt>
      <trkpt lat="43.727" lon="0.87442">
        <ele>175.696556</ele>
        <time>2023-01-03T09:18:37.789Z</time>
      </trkpt>
      <trkpt lat="43.72689" lon="0.8744">
        <ele>175.970555</ele>
        <time>2023-01-03T09:18:40.791Z</time>
      </trkpt>
      <trkpt lat="43.72677" lon="0.87438">
        <ele>176.244554</ele>
        <time>2023-01-03T09:18:43.784Z</time>
      </trkpt>
      <trkpt lat="43.72666" lon="0.87436">
        <ele>176.512839</ele>
        <time>2023-01-03T09:18:46.795Z</time>
      </trkpt>
      <trkpt lat="43.72655" lon="0.87433">
        <ele>176.791385</ele>
        <time>2023-01-03T09:18:49.775Z</time>
      </trkpt>
      <trkpt lat="43.72643" lon="0.87429">
        <ele>177.066357</ele>
        <time>2023-01-03T09:18:52.793Z</time>
      </trkpt>
      <trkpt lat="43.72632" lon="0.87426">
        <ele>177.337117</ele>
        <time>2023-01-03T09:18:55.793Z</time>
      </trkpt>
      <trkpt lat="43.72621" lon="0.87422">
        <ele>177.617914</ele>
        <time>2023-01-03T09:18:58.771Z</time>
      </trkpt>
      <trkpt lat="43.7261" lon="0.87418">
        <ele>177.884456</ele>
        <time>2023-01-03T09:19:01.794Z</time>
      </trkpt>
      <trkpt lat="43.726" lon="0.87414">
        <ele>178.147287</ele>
        <time>2023-01-03T09:19:04.792Z</time>
      </trkpt>
      <trkpt lat="43.72588" lon="0.87409">
        <ele>178.375555</ele>
        <time>2023-01-03T09:19:07.771Z</time>
      </trkpt>
      <trkpt lat="43.72577" lon="0.87404">
        <ele>178.574421</ele>
        <time>2023-01-03T09:19:10.770Z</time>
      </trkpt>
      <trkpt lat="43.72565" lon="0.874">
        <ele>178.785174</ele>
        <time>2023-01-03T09:19:13.791Z</time>
      </trkpt>
      <trkpt lat="43.72554" lon="0.87395">
        <ele>178.998951</ele>
        <time>2023-01-03T09:19:16.792Z</time>
      </trkpt>
      <trkpt lat="43.72542" lon="0.87391">
        <ele>179.218208</ele>
        <time>2023-01-03T09:19:19.795Z</time>
      </trkpt>
      <trkpt lat="43.72529" lon="0.87386">
        <ele>179.439096</ele>
        <time>2023-01-03T09:19:22.791Z</time>
      </trkpt>
      <trkpt lat="43.72518" lon="0.87381">
        <ele>179.653407</ele>
        <time>2023-01-03T09:19:25.793Z</time>
      </trkpt>
      <trkpt lat="43.72506" lon="0.87374">
        <ele>179.884904</ele>
        <time>2023-01-03T09:19:28.793Z</time>
      </trkpt>
      <trkpt lat="43.72498" lon="0.87368">
        <ele>180.0452</ele>
        <time>2023-01-03T09:19:30.794Z</time>
      </trkpt>
      <trkpt lat="43.7249" lon="0.87362">
        <ele>180.205496</ele>
        <time>2023-01-03T09:19:32.792Z</time>
      </trkpt>
      <trkpt lat="43.72478" lon="0.87354">
        <ele>180.432497</ele>
        <time>2023-01-03T09:19:35.783Z</time>
      </trkpt>
      <trkpt lat="43.72468" lon="0.87346">
        <ele>180.634563</ele>
        <time>2023-01-03T09:19:38.769Z</time>
      </trkpt>
      <trkpt lat="43.72458" lon="0.87344">
        <ele>180.820849</ele>
        <time>2023-01-03T09:19:41.787Z</time>
      </trkpt>
      <trkpt lat="43.72448" lon="0.87348">
        <ele>180.99112</ele>
        <time>2023-01-03T09:19:44.773Z</time>
      </trkpt>
      <trkpt lat="43.7244" lon="0.87357">
        <ele>181.176135</ele>
        <time>2023-01-03T09:19:48.793Z</time>
      </trkpt>
      <trkpt lat="43.72429" lon="0.87358">
        <ele>181.359811</ele>
        <time>2023-01-03T09:19:52.774Z</time>
      </trkpt>
      <trkpt lat="43.7242" lon="0.87351">
        <ele>181.507769</ele>
        <time>2023-01-03T09:19:55.774Z</time>
      </trkpt>
      <trkpt lat="43.7241" lon="0.87344">
        <ele>181.669858</ele>
        <time>2023-01-03T09:19:58.774Z</time>
      </trkpt>
      <trkpt lat="43.724" lon="0.87335">
        <ele>181.849163</ele>
        <time>2023-01-03T09:20:01.796Z</time>
      </trkpt>
      <trkpt lat="43.72389" lon="0.87326">
        <ele>182.028468</ele>
        <time>2023-01-03T09:20:04.791Z</time>
      </trkpt>
      <trkpt lat="43.72379" lon="0.87317">
        <ele>182.200163</ele>
        <time>2023-01-03T09:20:07.771Z</time>
      </trkpt>
      <trkpt lat="43.72371" lon="0.87309">
        <ele>182.349937</ele>
        <time>2023-01-03T09:20:10.787Z</time>
      </trkpt>
      <trkpt lat="43.72364" lon="0.87297">
        <ele>182.505662</ele>
        <time>2023-01-03T09:20:14.790Z</time>
      </trkpt>
      <trkpt lat="43.72357" lon="0.87288">
        <ele>182.639134</ele>
        <time>2023-01-03T09:20:18.789Z</time>
      </trkpt>
      <trkpt lat="43.72346" lon="0.87293">
        <ele>182.810223</ele>
        <time>2023-01-03T09:20:22.780Z</time>
      </trkpt>
      <trkpt lat="43.72343" lon="0.87306">
        <ele>182.955275</ele>
        <time>2023-01-03T09:20:25.778Z</time>
      </trkpt>
      <trkpt lat="43.72341" lon="0.8732">
        <ele>183.105305</ele>
        <time>2023-01-03T09:20:28.773Z</time>
      </trkpt>
      <trkpt lat="43.72337" lon="0.87332">
        <ele>183.241169</ele>
        <time>2023-01-03T09:20:31.774Z</time>
      </trkpt>
      <trkpt lat="43.72332" lon="0.87343">
        <ele>183.372801</ele>
        <time>2023-01-03T09:20:34.794Z</time>
      </trkpt>
      <trkpt lat="43.72327" lon="0.87354">
        <ele>183.511607</ele>
        <time>2023-01-03T09:20:37.787Z</time>
      </trkpt>
      <trkpt lat="43.72322" lon="0.87365">
        <ele>183.642678</ele>
        <time>2023-01-03T09:20:40.791Z</time>
      </trkpt>
      <trkpt lat="43.72317" lon="0.87375">
        <ele>183.773012</ele>
        <time>2023-01-03T09:20:49.781Z</time>
      </trkpt>
      <trkpt lat="43.72319" lon="0.87375">
        <ele>183.796152</ele>
        <time>2023-01-03T09:21:13.879Z</time>
      </trkpt>
      <trkpt lat="43.72321" lon="0.87381">
        <ele>183.874142</ele>
        <time>2023-01-03T09:50:41.258Z</time>
      </trkpt>
      <trkpt lat="43.72335" lon="0.8738">
        <ele>183.744695</ele>
        <time>2023-01-03T09:50:51.787Z</time>
      </trkpt>
      <trkpt lat="43.72339" lon="0.87366">
        <ele>183.497569</ele>
        <time>2023-01-03T09:50:55.788Z</time>
      </trkpt>
      <trkpt lat="43.72339" lon="0.87354">
        <ele>183.289532</ele>
        <time>2023-01-03T09:50:58.777Z</time>
      </trkpt>
      <trkpt lat="43.72339" lon="0.87341">
        <ele>183.071766</ele>
        <time>2023-01-03T09:51:02.775Z</time>
      </trkpt>
      <trkpt lat="43.72343" lon="0.87329">
        <ele>182.851201</ele>
        <time>2023-01-03T09:51:06.781Z</time>
      </trkpt>
      <trkpt lat="43.7235" lon="0.8732">
        <ele>182.631637</ele>
        <time>2023-01-03T09:51:09.788Z</time>
      </trkpt>
      <trkpt lat="43.72362" lon="0.87318">
        <ele>182.361204</ele>
        <time>2023-01-03T09:51:12.783Z</time>
      </trkpt>
      <trkpt lat="43.72373" lon="0.87327">
        <ele>182.077348</ele>
        <time>2023-01-03T09:51:15.782Z</time>
      </trkpt>
      <trkpt lat="43.72385" lon="0.87336">
        <ele>181.765833</ele>
        <time>2023-01-03T09:51:18.786Z</time>
      </trkpt>
      <trkpt lat="43.72393" lon="0.87343">
        <ele>181.554994</ele>
        <time>2023-01-03T09:51:20.781Z</time>
      </trkpt>
      <trkpt lat="43.72404" lon="0.87351">
        <ele>181.253385</ele>
        <time>2023-01-03T09:51:23.784Z</time>
      </trkpt>
      <trkpt lat="43.72415" lon="0.87358">
        <ele>180.986738</ele>
        <time>2023-01-03T09:51:26.784Z</time>
      </trkpt>
      <trkpt lat="43.72424" lon="0.87366">
        <ele>180.742052</ele>
        <time>2023-01-03T09:51:29.788Z</time>
      </trkpt>
      <trkpt lat="43.72432" lon="0.87373">
        <ele>180.521033</ele>
        <time>2023-01-03T09:51:32.794Z</time>
      </trkpt>
      <trkpt lat="43.7244" lon="0.87379">
        <ele>180.313078</ele>
        <time>2023-01-03T09:51:35.775Z</time>
      </trkpt>
      <trkpt lat="43.72449" lon="0.87385">
        <ele>180.085862</ele>
        <time>2023-01-03T09:51:38.792Z</time>
      </trkpt>
      <trkpt lat="43.72457" lon="0.87393">
        <ele>179.847153</ele>
        <time>2023-01-03T09:51:41.782Z</time>
      </trkpt>
      <trkpt lat="43.72465" lon="0.87402">
        <ele>179.824894</ele>
        <time>2023-01-03T09:51:44.788Z</time>
      </trkpt>
      <trkpt lat="43.72474" lon="0.87411">
        <ele>179.833154</ele>
        <time>2023-01-03T09:51:48.780Z</time>
      </trkpt>
      <trkpt lat="43.72482" lon="0.87419">
        <ele>179.840842</ele>
        <time>2023-01-03T09:51:52.800Z</time>
      </trkpt>
      <trkpt lat="43.72491" lon="0.8743">
        <ele>179.850361</ele>
        <time>2023-01-03T09:51:56.793Z</time>
      </trkpt>
      <trkpt lat="43.72499" lon="0.87439">
        <ele>179.858313</ele>
        <time>2023-01-03T09:51:59.780Z</time>
      </trkpt>
      <trkpt lat="43.72506" lon="0.87448">
        <ele>179.866096</ele>
        <time>2023-01-03T09:52:02.788Z</time>
      </trkpt>
      <trkpt lat="43.72514" lon="0.87456">
        <ele>179.87354</ele>
        <time>2023-01-03T09:52:05.780Z</time>
      </trkpt>
      <trkpt lat="43.72521" lon="0.87465">
        <ele>179.880993</ele>
        <time>2023-01-03T09:52:08.794Z</time>
      </trkpt>
      <trkpt lat="43.72527" lon="0.87474">
        <ele>179.888419</ele>
        <time>2023-01-03T09:52:11.788Z</time>
      </trkpt>
      <trkpt lat="43.72535" lon="0.87484">
        <ele>179.896468</ele>
        <time>2023-01-03T09:52:14.788Z</time>
      </trkpt>
      <trkpt lat="43.72542" lon="0.87493">
        <ele>179.904252</ele>
        <time>2023-01-03T09:52:17.778Z</time>
      </trkpt>
      <trkpt lat="43.72549" lon="0.87501">
        <ele>179.911371</ele>
        <time>2023-01-03T09:52:20.784Z</time>
      </trkpt>
      <trkpt lat="43.72556" lon="0.87509">
        <ele>179.918689</ele>
        <time>2023-01-03T09:52:23.789Z</time>
      </trkpt>
      <trkpt lat="43.72563" lon="0.87517">
        <ele>179.925808</ele>
        <time>2023-01-03T09:52:26.798Z</time>
      </trkpt>
      <trkpt lat="43.72571" lon="0.87526">
        <ele>179.933364</ele>
        <time>2023-01-03T09:52:29.788Z</time>
      </trkpt>
      <trkpt lat="43.7258" lon="0.87537">
        <ele>179.942778</ele>
        <time>2023-01-03T09:52:33.796Z</time>
      </trkpt>
      <trkpt lat="43.72588" lon="0.87547">
        <ele>179.951674</ele>
        <time>2023-01-03T09:52:37.795Z</time>
      </trkpt>
      <trkpt lat="43.72596" lon="0.87555">
        <ele>179.992852</ele>
        <time>2023-01-03T09:52:41.781Z</time>
      </trkpt>
      <trkpt lat="43.72604" lon="0.87565">
        <ele>180.476947</ele>
        <time>2023-01-03T09:52:45.784Z</time>
      </trkpt>
      <trkpt lat="43.72612" lon="0.87574">
        <ele>180.965076</ele>
        <time>2023-01-03T09:52:49.789Z</time>
      </trkpt>
      <trkpt lat="43.7262" lon="0.87583">
        <ele>181.428344</ele>
        <time>2023-01-03T09:52:53.796Z</time>
      </trkpt>
      <trkpt lat="43.72628" lon="0.87592">
        <ele>181.891806</ele>
        <time>2023-01-03T09:52:57.782Z</time>
      </trkpt>
      <trkpt lat="43.72636" lon="0.87601">
        <ele>182.362347</ele>
        <time>2023-01-03T09:53:01.786Z</time>
      </trkpt>
      <trkpt lat="43.72643" lon="0.87609">
        <ele>182.822921</ele>
        <time>2023-01-03T09:53:05.794Z</time>
      </trkpt>
      <trkpt lat="43.7265" lon="0.87618">
        <ele>183.249895</ele>
        <time>2023-01-03T09:53:09.775Z</time>
      </trkpt>
      <trkpt lat="43.72657" lon="0.87627">
        <ele>183.69276</ele>
        <time>2023-01-03T09:53:13.781Z</time>
      </trkpt>
      <trkpt lat="43.72664" lon="0.87635">
        <ele>184.121237</ele>
        <time>2023-01-03T09:53:17.774Z</time>
      </trkpt>
      <trkpt lat="43.72672" lon="0.87644">
        <ele>184.566318</ele>
        <time>2023-01-03T09:53:21.789Z</time>
      </trkpt>
      <trkpt lat="43.72678" lon="0.87652">
        <ele>184.997682</ele>
        <time>2023-01-03T09:53:25.795Z</time>
      </trkpt>
      <trkpt lat="43.72686" lon="0.8766">
        <ele>185.417703</ele>
        <time>2023-01-03T09:53:29.789Z</time>
      </trkpt>
      <trkpt lat="43.72692" lon="0.87668">
        <ele>185.841296</ele>
        <time>2023-01-03T09:53:33.795Z</time>
      </trkpt>
      <trkpt lat="43.72701" lon="0.87678">
        <ele>186.334648</ele>
        <time>2023-01-03T09:53:38.795Z</time>
      </trkpt>
      <trkpt lat="43.72708" lon="0.87687">
        <ele>186.797799</ele>
        <time>2023-01-03T09:53:43.795Z</time>
      </trkpt>
      <trkpt lat="43.72716" lon="0.87697">
        <ele>187.284777</ele>
        <time>2023-01-03T09:53:48.778Z</time>
      </trkpt>
      <trkpt lat="43.72724" lon="0.87706">
        <ele>187.785299</ele>
        <time>2023-01-03T09:53:53.778Z</time>
      </trkpt>
      <trkpt lat="43.72731" lon="0.87715">
        <ele>188.214584</ele>
        <time>2023-01-03T09:53:57.779Z</time>
      </trkpt>
      <trkpt lat="43.72739" lon="0.87725">
        <ele>188.575289</ele>
        <time>2023-01-03T09:54:02.780Z</time>
      </trkpt>
      <trkpt lat="43.72746" lon="0.87734">
        <ele>188.862333</ele>
        <time>2023-01-03T09:54:06.790Z</time>
      </trkpt>
      <trkpt lat="43.72753" lon="0.87743">
        <ele>189.158337</ele>
        <time>2023-01-03T09:54:10.802Z</time>
      </trkpt>
      <trkpt lat="43.72761" lon="0.87751">
        <ele>189.448582</ele>
        <time>2023-01-03T09:54:14.783Z</time>
      </trkpt>
      <trkpt lat="43.72768" lon="0.8776">
        <ele>189.752085</ele>
        <time>2023-01-03T09:54:18.777Z</time>
      </trkpt>
      <trkpt lat="43.72775" lon="0.8777">
        <ele>190.052749</ele>
        <time>2023-01-03T09:54:22.780Z</time>
      </trkpt>
      <trkpt lat="43.72782" lon="0.87778">
        <ele>190.33171</ele>
        <time>2023-01-03T09:54:26.799Z</time>
      </trkpt>
      <trkpt lat="43.7279" lon="0.87785">
        <ele>190.621516</ele>
        <time>2023-01-03T09:54:30.797Z</time>
      </trkpt>
      <trkpt lat="43.72798" lon="0.87792">
        <ele>190.896278</ele>
        <time>2023-01-03T09:54:34.798Z</time>
      </trkpt>
      <trkpt lat="43.72808" lon="0.87799">
        <ele>191.231528</ele>
        <time>2023-01-03T09:54:39.778Z</time>
      </trkpt>
      <trkpt lat="43.72816" lon="0.87803">
        <ele>191.514882</ele>
        <time>2023-01-03T09:54:43.786Z</time>
      </trkpt>
      <trkpt lat="43.72827" lon="0.87803">
        <ele>191.844435</ele>
        <time>2023-01-03T09:54:48.786Z</time>
      </trkpt>
      <trkpt lat="43.72837" lon="0.87799">
        <ele>192.156778</ele>
        <time>2023-01-03T09:54:55.786Z</time>
      </trkpt>
      <trkpt lat="43.72845" lon="0.87794">
        <ele>192.440305</ele>
        <time>2023-01-03T09:54:59.778Z</time>
      </trkpt>
      <trkpt lat="43.72855" lon="0.87789">
        <ele>192.742358</ele>
        <time>2023-01-03T09:55:03.795Z</time>
      </trkpt>
      <trkpt lat="43.72865" lon="0.87784">
        <ele>193.062561</ele>
        <time>2023-01-03T09:55:07.788Z</time>
      </trkpt>
      <trkpt lat="43.72874" lon="0.87779">
        <ele>193.374781</ele>
        <time>2023-01-03T09:55:11.790Z</time>
      </trkpt>
      <trkpt lat="43.72883" lon="0.87773">
        <ele>193.676851</ele>
        <time>2023-01-03T09:55:15.800Z</time>
      </trkpt>
      <trkpt lat="43.72892" lon="0.87767">
        <ele>194.133834</ele>
        <time>2023-01-03T09:55:19.791Z</time>
      </trkpt>
      <trkpt lat="43.72901" lon="0.8776">
        <ele>194.654185</ele>
        <time>2023-01-03T09:55:23.791Z</time>
      </trkpt>
      <trkpt lat="43.72909" lon="0.87755">
        <ele>195.162932</ele>
        <time>2023-01-03T09:55:27.795Z</time>
      </trkpt>
      <trkpt lat="43.72918" lon="0.87752">
        <ele>195.654264</ele>
        <time>2023-01-03T09:55:31.805Z</time>
      </trkpt>
      <trkpt lat="43.72929" lon="0.8775">
        <ele>196.237859</ele>
        <time>2023-01-03T09:55:35.783Z</time>
      </trkpt>
      <trkpt lat="43.72938" lon="0.8775">
        <ele>196.744728</ele>
        <time>2023-01-03T09:55:39.782Z</time>
      </trkpt>
      <trkpt lat="43.72948" lon="0.87751">
        <ele>197.259003</ele>
        <time>2023-01-03T09:55:43.791Z</time>
      </trkpt>
      <trkpt lat="43.72958" lon="0.87752">
        <ele>197.78995</ele>
        <time>2023-01-03T09:55:47.799Z</time>
      </trkpt>
      <trkpt lat="43.72968" lon="0.87754">
        <ele>198.307911</ele>
        <time>2023-01-03T09:55:51.785Z</time>
      </trkpt>
      <trkpt lat="43.72977" lon="0.87756">
        <ele>198.813209</ele>
        <time>2023-01-03T09:55:55.786Z</time>
      </trkpt>
      <trkpt lat="43.72986" lon="0.87759">
        <ele>199.311987</ele>
        <time>2023-01-03T09:55:59.787Z</time>
      </trkpt>
      <trkpt lat="43.72994" lon="0.87767">
        <ele>199.849501</ele>
        <time>2023-01-03T09:56:03.786Z</time>
      </trkpt>
      <trkpt lat="43.73003" lon="0.87777">
        <ele>200.443198</ele>
        <time>2023-01-03T09:56:07.797Z</time>
      </trkpt>
      <trkpt lat="43.7301" lon="0.87786">
        <ele>200.960846</ele>
        <time>2023-01-03T09:56:10.785Z</time>
      </trkpt>
      <trkpt lat="43.73017" lon="0.87796">
        <ele>201.495564</ele>
        <time>2023-01-03T09:56:13.794Z</time>
      </trkpt>
      <trkpt lat="43.73024" lon="0.87805">
        <ele>201.979638</ele>
        <time>2023-01-03T09:56:16.797Z</time>
      </trkpt>
      <trkpt lat="43.73029" lon="0.87818">
        <ele>202.566442</ele>
        <time>2023-01-03T09:56:20.778Z</time>
      </trkpt>
      <trkpt lat="43.73024" lon="0.8783">
        <ele>203.117169</ele>
        <time>2023-01-03T09:56:24.776Z</time>
      </trkpt>
      <trkpt lat="43.73016" lon="0.87839">
        <ele>203.714001</ele>
        <time>2023-01-03T09:56:28.795Z</time>
      </trkpt>
      <trkpt lat="43.73009" lon="0.8785">
        <ele>204.345623</ele>
        <time>2023-01-03T09:56:32.780Z</time>
      </trkpt>
      <trkpt lat="43.73002" lon="0.87862">
        <ele>205.000099</ele>
        <time>2023-01-03T09:56:36.781Z</time>
      </trkpt>
      <trkpt lat="43.72996" lon="0.87872">
        <ele>205.594588</ele>
        <time>2023-01-03T09:56:40.798Z</time>
      </trkpt>
      <trkpt lat="43.7299" lon="0.87883">
        <ele>206.203659</ele>
        <time>2023-01-03T09:56:44.796Z</time>
      </trkpt>
      <trkpt lat="43.72984" lon="0.87893">
        <ele>206.804613</ele>
        <time>2023-01-03T09:56:48.790Z</time>
      </trkpt>
      <trkpt lat="43.72978" lon="0.87904">
        <ele>207.387202</ele>
        <time>2023-01-03T09:56:52.798Z</time>
      </trkpt>
      <trkpt lat="43.72974" lon="0.87915">
        <ele>207.956114</ele>
        <time>2023-01-03T09:56:56.787Z</time>
      </trkpt>
      <trkpt lat="43.72968" lon="0.87929">
        <ele>208.625823</ele>
        <time>2023-01-03T09:57:02.779Z</time>
      </trkpt>
      <trkpt lat="43.72964" lon="0.8794">
        <ele>209.195701</ele>
        <time>2023-01-03T09:57:06.781Z</time>
      </trkpt>
      <trkpt lat="43.72959" lon="0.87953">
        <ele>209.838308</ele>
        <time>2023-01-03T09:57:10.795Z</time>
      </trkpt>
      <trkpt lat="43.72954" lon="0.87967">
        <ele>210.530291</ele>
        <time>2023-01-03T09:57:15.794Z</time>
      </trkpt>
      <trkpt lat="43.72949" lon="0.87979">
        <ele>211.132781</ele>
        <time>2023-01-03T09:57:19.789Z</time>
      </trkpt>
      <trkpt lat="43.72945" lon="0.87991">
        <ele>211.732639</ele>
        <time>2023-01-03T09:57:23.796Z</time>
      </trkpt>
      <trkpt lat="43.72941" lon="0.88004">
        <ele>212.319355</ele>
        <time>2023-01-03T09:57:27.797Z</time>
      </trkpt>
      <trkpt lat="43.72936" lon="0.88015">
        <ele>212.916438</ele>
        <time>2023-01-03T09:57:31.797Z</time>
      </trkpt>
      <trkpt lat="43.72931" lon="0.88027">
        <ele>213.53105</ele>
        <time>2023-01-03T09:57:35.798Z</time>
      </trkpt>
      <trkpt lat="43.72927" lon="0.8804">
        <ele>214.154073</ele>
        <time>2023-01-03T09:57:39.796Z</time>
      </trkpt>
      <trkpt lat="43.72923" lon="0.88052">
        <ele>214.630664</ele>
        <time>2023-01-03T09:57:43.798Z</time>
      </trkpt>
      <trkpt lat="43.72919" lon="0.88064">
        <ele>215.037419</ele>
        <time>2023-01-03T09:57:47.789Z</time>
      </trkpt>
      <trkpt lat="43.72914" lon="0.88076">
        <ele>215.470099</ele>
        <time>2023-01-03T09:57:51.803Z</time>
      </trkpt>
      <trkpt lat="43.7291" lon="0.88087">
        <ele>215.864373</ele>
        <time>2023-01-03T09:57:55.788Z</time>
      </trkpt>
      <trkpt lat="43.72905" lon="0.88099">
        <ele>216.294679</ele>
        <time>2023-01-03T09:57:59.794Z</time>
      </trkpt>
      <trkpt lat="43.729" lon="0.88111">
        <ele>216.741747</ele>
        <time>2023-01-03T09:58:03.801Z</time>
      </trkpt>
      <trkpt lat="43.72895" lon="0.88123">
        <ele>217.177922</ele>
        <time>2023-01-03T09:58:07.795Z</time>
      </trkpt>
      <trkpt lat="43.7289" lon="0.88136">
        <ele>217.618623</ele>
        <time>2023-01-03T09:58:11.797Z</time>
      </trkpt>
      <trkpt lat="43.72885" lon="0.88147">
        <ele>218.061619</ele>
        <time>2023-01-03T09:58:15.795Z</time>
      </trkpt>
      <trkpt lat="43.7288" lon="0.8816">
        <ele>218.496783</ele>
        <time>2023-01-03T09:58:19.779Z</time>
      </trkpt>
      <trkpt lat="43.72876" lon="0.88172">
        <ele>218.935302</ele>
        <time>2023-01-03T09:58:23.787Z</time>
      </trkpt>
      <trkpt lat="43.72872" lon="0.88185">
        <ele>219.370812</ele>
        <time>2023-01-03T09:58:27.785Z</time>
      </trkpt>
      <trkpt lat="43.72867" lon="0.88197">
        <ele>219.808743</ele>
        <time>2023-01-03T09:58:31.787Z</time>
      </trkpt>
      <trkpt lat="43.72862" lon="0.88209">
        <ele>220.248777</ele>
        <time>2023-01-03T09:58:35.796Z</time>
      </trkpt>
      <trkpt lat="43.72858" lon="0.88221">
        <ele>220.678637</ele>
        <time>2023-01-03T09:58:39.796Z</time>
      </trkpt>
      <trkpt lat="43.72853" lon="0.88233">
        <ele>221.103414</ele>
        <time>2023-01-03T09:58:43.789Z</time>
      </trkpt>
      <trkpt lat="43.72847" lon="0.88244">
        <ele>221.540379</ele>
        <time>2023-01-03T09:58:47.799Z</time>
      </trkpt>
      <trkpt lat="43.72842" lon="0.88257">
        <ele>221.995834</ele>
        <time>2023-01-03T09:58:51.777Z</time>
      </trkpt>
      <trkpt lat="43.72837" lon="0.8827">
        <ele>222.168259</ele>
        <time>2023-01-03T09:58:55.790Z</time>
      </trkpt>
      <trkpt lat="43.72832" lon="0.88283">
        <ele>222.116519</ele>
        <time>2023-01-03T09:58:59.800Z</time>
      </trkpt>
      <trkpt lat="43.72827" lon="0.88297">
        <ele>222.060183</ele>
        <time>2023-01-03T09:59:03.799Z</time>
      </trkpt>
      <trkpt lat="43.72822" lon="0.88308">
        <ele>222.014145</ele>
        <time>2023-01-03T09:59:06.785Z</time>
      </trkpt>
      <trkpt lat="43.72818" lon="0.88322">
        <ele>221.963477</ele>
        <time>2023-01-03T09:59:09.799Z</time>
      </trkpt>
      <trkpt lat="43.72814" lon="0.88335">
        <ele>221.913127</ele>
        <time>2023-01-03T09:59:12.795Z</time>
      </trkpt>
      <trkpt lat="43.72809" lon="0.88348">
        <ele>221.860701</ele>
        <time>2023-01-03T09:59:15.798Z</time>
      </trkpt>
      <trkpt lat="43.72804" lon="0.88362">
        <ele>221.806101</ele>
        <time>2023-01-03T09:59:18.783Z</time>
      </trkpt>
      <trkpt lat="43.728" lon="0.88376">
        <ele>221.752187</ele>
        <time>2023-01-03T09:59:21.796Z</time>
      </trkpt>
      <trkpt lat="43.72796" lon="0.88388">
        <ele>221.702801</ele>
        <time>2023-01-03T09:59:24.799Z</time>
      </trkpt>
      <trkpt lat="43.72791" lon="0.884">
        <ele>221.657449</ele>
        <time>2023-01-03T09:59:27.789Z</time>
      </trkpt>
      <trkpt lat="43.72787" lon="0.88411">
        <ele>221.611558</ele>
        <time>2023-01-03T09:59:30.788Z</time>
      </trkpt>
      <trkpt lat="43.72783" lon="0.88424">
        <ele>221.562811</ele>
        <time>2023-01-03T09:59:33.798Z</time>
      </trkpt>
      <trkpt lat="43.72778" lon="0.88436">
        <ele>221.513579</ele>
        <time>2023-01-03T09:59:36.781Z</time>
      </trkpt>
      <trkpt lat="43.72773" lon="0.88447">
        <ele>221.465499</ele>
        <time>2023-01-03T09:59:39.789Z</time>
      </trkpt>
      <trkpt lat="43.72766" lon="0.88458">
        <ele>221.413602</ele>
        <time>2023-01-03T09:59:43.788Z</time>
      </trkpt>
      <trkpt lat="43.72757" lon="0.88463">
        <ele>221.36622</ele>
        <time>2023-01-03T09:59:48.792Z</time>
      </trkpt>
      <trkpt lat="43.72757" lon="0.88464">
        <ele>221.361578</ele>
        <time>2023-01-03T09:59:54.368Z</time>
      </trkpt>
      <trkpt lat="43.72763" lon="0.88453">
        <ele>221.288054</ele>
        <time>2023-01-03T10:01:57.788Z</time>
      </trkpt>
      <trkpt lat="43.72758" lon="0.88466">
        <ele>220.774224</ele>
        <time>2023-01-03T10:02:02.787Z</time>
      </trkpt>
      <trkpt lat="43.72754" lon="0.88482">
        <ele>220.189917</ele>
        <time>2023-01-03T10:02:06.783Z</time>
      </trkpt>
      <trkpt lat="43.72751" lon="0.88498">
        <ele>219.624447</ele>
        <time>2023-01-03T10:02:09.790Z</time>
      </trkpt>
      <trkpt lat="43.72748" lon="0.88513">
        <ele>219.096277</ele>
        <time>2023-01-03T10:02:12.782Z</time>
      </trkpt>
      <trkpt lat="43.72746" lon="0.88529">
        <ele>218.555713</ele>
        <time>2023-01-03T10:02:15.801Z</time>
      </trkpt>
      <trkpt lat="43.72747" lon="0.88545">
        <ele>218.009907</ele>
        <time>2023-01-03T10:02:18.790Z</time>
      </trkpt>
      <trkpt lat="43.72748" lon="0.8856">
        <ele>217.484788</ele>
        <time>2023-01-03T10:02:21.784Z</time>
      </trkpt>
      <trkpt lat="43.72752" lon="0.88575">
        <ele>216.936219</ele>
        <time>2023-01-03T10:02:24.783Z</time>
      </trkpt>
      <trkpt lat="43.72758" lon="0.8859">
        <ele>216.364157</ele>
        <time>2023-01-03T10:02:27.785Z</time>
      </trkpt>
      <trkpt lat="43.72766" lon="0.88603">
        <ele>215.786817</ele>
        <time>2023-01-03T10:02:30.787Z</time>
      </trkpt>
      <trkpt lat="43.72775" lon="0.88612">
        <ele>215.263988</ele>
        <time>2023-01-03T10:02:33.800Z</time>
      </trkpt>
      <trkpt lat="43.72785" lon="0.88621">
        <ele>214.703616</ele>
        <time>2023-01-03T10:02:36.796Z</time>
      </trkpt>
      <trkpt lat="43.72797" lon="0.88628">
        <ele>214.101028</ele>
        <time>2023-01-03T10:02:39.788Z</time>
      </trkpt>
      <trkpt lat="43.72808" lon="0.88636">
        <ele>213.496993</ele>
        <time>2023-01-03T10:02:42.800Z</time>
      </trkpt>
      <trkpt lat="43.72817" lon="0.88642">
        <ele>213.056277</ele>
        <time>2023-01-03T10:02:44.789Z</time>
      </trkpt>
      <trkpt lat="43.72825" lon="0.88649">
        <ele>212.515019</ele>
        <time>2023-01-03T10:02:46.800Z</time>
      </trkpt>
      <trkpt lat="43.72833" lon="0.88657">
        <ele>211.879847</ele>
        <time>2023-01-03T10:02:48.791Z</time>
      </trkpt>
      <trkpt lat="43.72842" lon="0.88664">
        <ele>211.233238</ele>
        <time>2023-01-03T10:02:50.804Z</time>
      </trkpt>
      <trkpt lat="43.7285" lon="0.88674">
        <ele>210.57239</ele>
        <time>2023-01-03T10:02:52.781Z</time>
      </trkpt>
      <trkpt lat="43.72858" lon="0.88684">
        <ele>209.875006</ele>
        <time>2023-01-03T10:02:54.804Z</time>
      </trkpt>
      <trkpt lat="43.72865" lon="0.88697">
        <ele>209.11378</ele>
        <time>2023-01-03T10:02:56.781Z</time>
      </trkpt>
      <trkpt lat="43.72874" lon="0.8871">
        <ele>208.30422</ele>
        <time>2023-01-03T10:02:58.784Z</time>
      </trkpt>
      <trkpt lat="43.7288" lon="0.88725">
        <ele>207.5282</ele>
        <time>2023-01-03T10:03:00.797Z</time>
      </trkpt>
      <trkpt lat="43.72887" lon="0.88739">
        <ele>206.716727</ele>
        <time>2023-01-03T10:03:02.794Z</time>
      </trkpt>
      <trkpt lat="43.72895" lon="0.88755">
        <ele>205.871443</ele>
        <time>2023-01-03T10:03:04.781Z</time>
      </trkpt>
      <trkpt lat="43.72902" lon="0.8877">
        <ele>205.00742</ele>
        <time>2023-01-03T10:03:06.802Z</time>
      </trkpt>
      <trkpt lat="43.72909" lon="0.88786">
        <ele>204.164241</ele>
        <time>2023-01-03T10:03:08.802Z</time>
      </trkpt>
      <trkpt lat="43.72917" lon="0.88803">
        <ele>203.24812</ele>
        <time>2023-01-03T10:03:10.795Z</time>
      </trkpt>
      <trkpt lat="43.72925" lon="0.88819">
        <ele>202.358838</ele>
        <time>2023-01-03T10:03:12.800Z</time>
      </trkpt>
      <trkpt lat="43.72933" lon="0.88836">
        <ele>201.45329</ele>
        <time>2023-01-03T10:03:14.781Z</time>
      </trkpt>
      <trkpt lat="43.7294" lon="0.88852">
        <ele>200.92311</ele>
        <time>2023-01-03T10:03:16.790Z</time>
      </trkpt>
      <trkpt lat="43.72947" lon="0.88869">
        <ele>200.36626</ele>
        <time>2023-01-03T10:03:18.797Z</time>
      </trkpt>
      <trkpt lat="43.72954" lon="0.88885">
        <ele>199.794197</ele>
        <time>2023-01-03T10:03:20.791Z</time>
      </trkpt>
      <trkpt lat="43.72963" lon="0.88901">
        <ele>199.249109</ele>
        <time>2023-01-03T10:03:22.782Z</time>
      </trkpt>
      <trkpt lat="43.72971" lon="0.88917">
        <ele>198.675961</ele>
        <time>2023-01-03T10:03:24.802Z</time>
      </trkpt>
      <trkpt lat="43.72977" lon="0.88935">
        <ele>198.111197</ele>
        <time>2023-01-03T10:03:26.798Z</time>
      </trkpt>
      <trkpt lat="43.72985" lon="0.88951">
        <ele>197.555537</ele>
        <time>2023-01-03T10:03:28.802Z</time>
      </trkpt>
      <trkpt lat="43.72993" lon="0.88969">
        <ele>196.95555</ele>
        <time>2023-01-03T10:03:30.804Z</time>
      </trkpt>
      <trkpt lat="43.73" lon="0.88985">
        <ele>196.386232</ele>
        <time>2023-01-03T10:03:32.797Z</time>
      </trkpt>
      <trkpt lat="43.73009" lon="0.89002">
        <ele>195.778261</ele>
        <time>2023-01-03T10:03:34.783Z</time>
      </trkpt>
      <trkpt lat="43.73017" lon="0.89019">
        <ele>195.209947</ele>
        <time>2023-01-03T10:03:36.797Z</time>
      </trkpt>
      <trkpt lat="43.73023" lon="0.89037">
        <ele>194.644656</ele>
        <time>2023-01-03T10:03:38.779Z</time>
      </trkpt>
      <trkpt lat="43.73028" lon="0.89056">
        <ele>194.101486</ele>
        <time>2023-01-03T10:03:40.789Z</time>
      </trkpt>
      <trkpt lat="43.73031" lon="0.89075">
        <ele>193.601896</ele>
        <time>2023-01-03T10:03:42.785Z</time>
      </trkpt>
      <trkpt lat="43.73033" lon="0.89094">
        <ele>193.110721</ele>
        <time>2023-01-03T10:03:44.790Z</time>
      </trkpt>
      <trkpt lat="43.73033" lon="0.89111">
        <ele>192.670378</ele>
        <time>2023-01-03T10:03:46.789Z</time>
      </trkpt>
      <trkpt lat="43.73033" lon="0.8913">
        <ele>192.204977</ele>
        <time>2023-01-03T10:03:48.781Z</time>
      </trkpt>
      <trkpt lat="43.73031" lon="0.89148">
        <ele>191.744668</ele>
        <time>2023-01-03T10:03:50.789Z</time>
      </trkpt>
      <trkpt lat="43.73029" lon="0.89165">
        <ele>191.306906</ele>
        <time>2023-01-03T10:03:52.790Z</time>
      </trkpt>
      <trkpt lat="43.73028" lon="0.89182">
        <ele>190.878209</ele>
        <time>2023-01-03T10:03:54.779Z</time>
      </trkpt>
      <trkpt lat="43.73026" lon="0.89199">
        <ele>190.439049</ele>
        <time>2023-01-03T10:03:56.800Z</time>
      </trkpt>
      <trkpt lat="43.73025" lon="0.89216">
        <ele>190.007133</ele>
        <time>2023-01-03T10:03:58.801Z</time>
      </trkpt>
      <trkpt lat="43.73024" lon="0.89231">
        <ele>189.604667</ele>
        <time>2023-01-03T10:04:00.786Z</time>
      </trkpt>
      <trkpt lat="43.73023" lon="0.89247">
        <ele>189.212019</ele>
        <time>2023-01-03T10:04:02.797Z</time>
      </trkpt>
      <trkpt lat="43.73022" lon="0.89262">
        <ele>188.820397</ele>
        <time>2023-01-03T10:04:04.781Z</time>
      </trkpt>
      <trkpt lat="43.73023" lon="0.89278">
        <ele>188.415083</ele>
        <time>2023-01-03T10:04:06.798Z</time>
      </trkpt>
      <trkpt lat="43.73025" lon="0.89293">
        <ele>188.025671</ele>
        <time>2023-01-03T10:04:08.781Z</time>
      </trkpt>
      <trkpt lat="43.73026" lon="0.8931">
        <ele>187.377318</ele>
        <time>2023-01-03T10:04:10.799Z</time>
      </trkpt>
      <trkpt lat="43.73027" lon="0.89327">
        <ele>186.700097</ele>
        <time>2023-01-03T10:04:12.804Z</time>
      </trkpt>
      <trkpt lat="43.7303" lon="0.89343">
        <ele>186.059763</ele>
        <time>2023-01-03T10:04:14.803Z</time>
      </trkpt>
      <trkpt lat="43.73032" lon="0.8936">
        <ele>185.391425</ele>
        <time>2023-01-03T10:04:16.784Z</time>
      </trkpt>
      <trkpt lat="43.73033" lon="0.89377">
        <ele>184.695225</ele>
        <time>2023-01-03T10:04:18.800Z</time>
      </trkpt>
      <trkpt lat="43.73034" lon="0.89395">
        <ele>184.005193</ele>
        <time>2023-01-03T10:04:20.800Z</time>
      </trkpt>
      <trkpt lat="43.73035" lon="0.89412">
        <ele>183.307801</ele>
        <time>2023-01-03T10:04:22.794Z</time>
      </trkpt>
      <trkpt lat="43.73036" lon="0.89429">
        <ele>182.651302</ele>
        <time>2023-01-03T10:04:24.786Z</time>
      </trkpt>
      <trkpt lat="43.73038" lon="0.89447">
        <ele>181.953215</ele>
        <time>2023-01-03T10:04:26.798Z</time>
      </trkpt>
      <trkpt lat="43.7304" lon="0.89464">
        <ele>181.248618</ele>
        <time>2023-01-03T10:04:28.790Z</time>
      </trkpt>
      <trkpt lat="43.73042" lon="0.89483">
        <ele>180.524981</ele>
        <time>2023-01-03T10:04:30.785Z</time>
      </trkpt>
      <trkpt lat="43.73043" lon="0.89501">
        <ele>179.802358</ele>
        <time>2023-01-03T10:04:32.791Z</time>
      </trkpt>
      <trkpt lat="43.73045" lon="0.89519">
        <ele>179.071681</ele>
        <time>2023-01-03T10:04:34.789Z</time>
      </trkpt>
      <trkpt lat="43.73045" lon="0.89537">
        <ele>178.354157</ele>
        <time>2023-01-03T10:04:36.801Z</time>
      </trkpt>
      <trkpt lat="43.73046" lon="0.89557">
        <ele>177.918553</ele>
        <time>2023-01-03T10:04:38.789Z</time>
      </trkpt>
      <trkpt lat="43.73048" lon="0.89576">
        <ele>177.560733</ele>
        <time>2023-01-03T10:04:40.798Z</time>
      </trkpt>
      <trkpt lat="43.73049" lon="0.89597">
        <ele>177.17254</ele>
        <time>2023-01-03T10:04:42.789Z</time>
      </trkpt>
      <trkpt lat="43.73049" lon="0.89619">
        <ele>176.785162</ele>
        <time>2023-01-03T10:04:44.798Z</time>
      </trkpt>
      <trkpt lat="43.73049" lon="0.8964">
        <ele>176.390484</ele>
        <time>2023-01-03T10:04:46.796Z</time>
      </trkpt>
      <trkpt lat="43.73049" lon="0.8966">
        <ele>176.022901</ele>
        <time>2023-01-03T10:04:48.797Z</time>
      </trkpt>
      <trkpt lat="43.7305" lon="0.89681">
        <ele>175.638654</ele>
        <time>2023-01-03T10:04:50.791Z</time>
      </trkpt>
      <trkpt lat="43.73051" lon="0.89703">
        <ele>175.248932</ele>
        <time>2023-01-03T10:04:52.800Z</time>
      </trkpt>
      <trkpt lat="43.73052" lon="0.89724">
        <ele>174.853736</ele>
        <time>2023-01-03T10:04:54.801Z</time>
      </trkpt>
      <trkpt lat="43.73052" lon="0.89746">
        <ele>174.458986</ele>
        <time>2023-01-03T10:04:56.799Z</time>
      </trkpt>
      <trkpt lat="43.73052" lon="0.89767">
        <ele>174.071485</ele>
        <time>2023-01-03T10:04:58.800Z</time>
      </trkpt>
      <trkpt lat="43.73053" lon="0.89788">
        <ele>173.681624</ele>
        <time>2023-01-03T10:05:00.797Z</time>
      </trkpt>
      <trkpt lat="43.73054" lon="0.89809">
        <ele>173.423462</ele>
        <time>2023-01-03T10:05:02.788Z</time>
      </trkpt>
      <trkpt lat="43.73053" lon="0.8983">
        <ele>173.17464</ele>
        <time>2023-01-03T10:05:04.800Z</time>
      </trkpt>
      <trkpt lat="43.73055" lon="0.89851">
        <ele>172.927448</ele>
        <time>2023-01-03T10:05:06.801Z</time>
      </trkpt>
      <trkpt lat="43.73055" lon="0.89871">
        <ele>172.701052</ele>
        <time>2023-01-03T10:05:08.800Z</time>
      </trkpt>
      <trkpt lat="43.73055" lon="0.8989">
        <ele>172.476943</ele>
        <time>2023-01-03T10:05:10.796Z</time>
      </trkpt>
      <trkpt lat="43.73055" lon="0.89907">
        <ele>172.27527</ele>
        <time>2023-01-03T10:05:12.797Z</time>
      </trkpt>
      <trkpt lat="43.73054" lon="0.89924">
        <ele>172.071065</ele>
        <time>2023-01-03T10:05:14.800Z</time>
      </trkpt>
      <trkpt lat="43.73055" lon="0.8994">
        <ele>171.877457</ele>
        <time>2023-01-03T10:05:16.799Z</time>
      </trkpt>
      <trkpt lat="43.73055" lon="0.89955">
        <ele>171.699358</ele>
        <time>2023-01-03T10:05:18.801Z</time>
      </trkpt>
      <trkpt lat="43.73056" lon="0.89969">
        <ele>171.540056</ele>
        <time>2023-01-03T10:05:20.800Z</time>
      </trkpt>
      <trkpt lat="43.73055" lon="0.89983">
        <ele>171.37722</ele>
        <time>2023-01-03T10:05:22.801Z</time>
      </trkpt>
      <trkpt lat="43.73056" lon="0.89996">
        <ele>171.217043</ele>
        <time>2023-01-03T10:05:24.787Z</time>
      </trkpt>
      <trkpt lat="43.73055" lon="0.90014">
        <ele>171.004062</ele>
        <time>2023-01-03T10:05:27.802Z</time>
      </trkpt>
      <trkpt lat="43.73056" lon="0.90032">
        <ele>170.800032</ele>
        <time>2023-01-03T10:05:30.800Z</time>
      </trkpt>
      <trkpt lat="43.73056" lon="0.90049">
        <ele>170.881994</ele>
        <time>2023-01-03T10:05:33.801Z</time>
      </trkpt>
      <trkpt lat="43.73056" lon="0.90066">
        <ele>171.160287</ele>
        <time>2023-01-03T10:05:36.802Z</time>
      </trkpt>
      <trkpt lat="43.73058" lon="0.90083">
        <ele>171.435477</ele>
        <time>2023-01-03T10:05:39.799Z</time>
      </trkpt>
      <trkpt lat="43.73058" lon="0.901">
        <ele>171.699075</ele>
        <time>2023-01-03T10:05:42.800Z</time>
      </trkpt>
      <trkpt lat="43.73058" lon="0.90116">
        <ele>171.956322</ele>
        <time>2023-01-03T10:05:45.786Z</time>
      </trkpt>
      <trkpt lat="43.73058" lon="0.90133">
        <ele>172.234439</ele>
        <time>2023-01-03T10:05:48.803Z</time>
      </trkpt>
      <trkpt lat="43.73058" lon="0.9015">
        <ele>172.499865</ele>
        <time>2023-01-03T10:05:51.801Z</time>
      </trkpt>
      <trkpt lat="43.73058" lon="0.90166">
        <ele>172.763612</ele>
        <time>2023-01-03T10:05:54.799Z</time>
      </trkpt>
      <trkpt lat="43.73059" lon="0.90183">
        <ele>173.029554</ele>
        <time>2023-01-03T10:05:57.798Z</time>
      </trkpt>
      <trkpt lat="43.7306" lon="0.90199">
        <ele>173.282936</ele>
        <time>2023-01-03T10:06:00.802Z</time>
      </trkpt>
      <trkpt lat="43.73062" lon="0.90213">
        <ele>173.513782</ele>
        <time>2023-01-03T10:06:03.801Z</time>
      </trkpt>
      <trkpt lat="43.73063" lon="0.90228">
        <ele>173.755134</ele>
        <time>2023-01-03T10:06:06.798Z</time>
      </trkpt>
      <trkpt lat="43.73064" lon="0.90244">
        <ele>174.01258</ele>
        <time>2023-01-03T10:06:09.788Z</time>
      </trkpt>
      <trkpt lat="43.73064" lon="0.90261">
        <ele>174.281198</ele>
        <time>2023-01-03T10:06:12.800Z</time>
      </trkpt>
      <trkpt lat="43.73065" lon="0.90276">
        <ele>174.52439</ele>
        <time>2023-01-03T10:06:15.797Z</time>
      </trkpt>
      <trkpt lat="43.73064" lon="0.90292">
        <ele>174.787076</ele>
        <time>2023-01-03T10:06:18.782Z</time>
      </trkpt>
      <trkpt lat="43.73062" lon="0.90308">
        <ele>175.056482</ele>
        <time>2023-01-03T10:06:21.798Z</time>
      </trkpt>
      <trkpt lat="43.7306" lon="0.90322">
        <ele>175.313063</ele>
        <time>2023-01-03T10:06:24.792Z</time>
      </trkpt>
      <trkpt lat="43.73057" lon="0.90336">
        <ele>175.551125</ele>
        <time>2023-01-03T10:06:27.789Z</time>
      </trkpt>
      <trkpt lat="43.73052" lon="0.90348">
        <ele>175.785272</ele>
        <time>2023-01-03T10:06:30.782Z</time>
      </trkpt>
      <trkpt lat="43.73046" lon="0.90362">
        <ele>176.061259</ele>
        <time>2023-01-03T10:06:34.782Z</time>
      </trkpt>
      <trkpt lat="43.73037" lon="0.90372">
        <ele>176.344315</ele>
        <time>2023-01-03T10:06:38.783Z</time>
      </trkpt>
      <trkpt lat="43.73028" lon="0.90376">
        <ele>176.574065</ele>
        <time>2023-01-03T10:06:41.792Z</time>
      </trkpt>
      <trkpt lat="43.73018" lon="0.90382">
        <ele>176.826031</ele>
        <time>2023-01-03T10:06:44.781Z</time>
      </trkpt>
      <trkpt lat="43.73007" lon="0.9039">
        <ele>177.117826</ele>
        <time>2023-01-03T10:06:47.800Z</time>
      </trkpt>
      <trkpt lat="43.72999" lon="0.90396">
        <ele>177.338329</ele>
        <time>2023-01-03T10:06:49.798Z</time>
      </trkpt>
      <trkpt lat="43.7299" lon="0.90402">
        <ele>177.564095</ele>
        <time>2023-01-03T10:06:51.795Z</time>
      </trkpt>
      <trkpt lat="43.72982" lon="0.90409">
        <ele>177.796477</ele>
        <time>2023-01-03T10:06:53.792Z</time>
      </trkpt>
      <trkpt lat="43.72974" lon="0.90415">
        <ele>178.012704</ele>
        <time>2023-01-03T10:06:55.796Z</time>
      </trkpt>
      <trkpt lat="43.72965" lon="0.9042">
        <ele>178.235268</ele>
        <time>2023-01-03T10:06:57.778Z</time>
      </trkpt>
      <trkpt lat="43.72957" lon="0.90426">
        <ele>178.450245</ele>
        <time>2023-01-03T10:06:59.803Z</time>
      </trkpt>
      <trkpt lat="43.72946" lon="0.90433">
        <ele>178.754604</ele>
        <time>2023-01-03T10:07:02.799Z</time>
      </trkpt>
      <trkpt lat="43.72934" lon="0.90441">
        <ele>178.940407</ele>
        <time>2023-01-03T10:07:05.798Z</time>
      </trkpt>
      <trkpt lat="43.72922" lon="0.90449">
        <ele>178.878753</ele>
        <time>2023-01-03T10:07:08.798Z</time>
      </trkpt>
      <trkpt lat="43.72911" lon="0.90458">
        <ele>178.815833</ele>
        <time>2023-01-03T10:07:11.800Z</time>
      </trkpt>
      <trkpt lat="43.72903" lon="0.90464">
        <ele>178.771797</ele>
        <time>2023-01-03T10:07:13.799Z</time>
      </trkpt>
      <trkpt lat="43.72895" lon="0.90471">
        <ele>178.72761</ele>
        <time>2023-01-03T10:07:15.801Z</time>
      </trkpt>
      <trkpt lat="43.72884" lon="0.90482">
        <ele>178.662871</ele>
        <time>2023-01-03T10:07:18.789Z</time>
      </trkpt>
      <trkpt lat="43.72873" lon="0.90493">
        <ele>178.600472</ele>
        <time>2023-01-03T10:07:21.788Z</time>
      </trkpt>
      <trkpt lat="43.72866" lon="0.90501">
        <ele>178.556588</ele>
        <time>2023-01-03T10:07:23.803Z</time>
      </trkpt>
      <trkpt lat="43.72858" lon="0.9051">
        <ele>178.510536</ele>
        <time>2023-01-03T10:07:25.802Z</time>
      </trkpt>
      <trkpt lat="43.72847" lon="0.9052">
        <ele>178.446397</ele>
        <time>2023-01-03T10:07:28.806Z</time>
      </trkpt>
      <trkpt lat="43.72838" lon="0.90527">
        <ele>178.400875</ele>
        <time>2023-01-03T10:07:30.804Z</time>
      </trkpt>
      <trkpt lat="43.7283" lon="0.90531">
        <ele>178.35767</ele>
        <time>2023-01-03T10:07:32.781Z</time>
      </trkpt>
      <trkpt lat="43.7282" lon="0.90534">
        <ele>178.310428</ele>
        <time>2023-01-03T10:07:34.789Z</time>
      </trkpt>
      <trkpt lat="43.72811" lon="0.90537">
        <ele>178.265805</ele>
        <time>2023-01-03T10:07:36.782Z</time>
      </trkpt>
      <trkpt lat="43.72802" lon="0.9054">
        <ele>178.221805</ele>
        <time>2023-01-03T10:07:38.799Z</time>
      </trkpt>
      <trkpt lat="43.72792" lon="0.90541">
        <ele>178.175768</ele>
        <time>2023-01-03T10:07:40.790Z</time>
      </trkpt>
      <trkpt lat="43.72782" lon="0.90543">
        <ele>178.130998</ele>
        <time>2023-01-03T10:07:42.800Z</time>
      </trkpt>
      <trkpt lat="43.7277" lon="0.90546">
        <ele>178.126311</ele>
        <time>2023-01-03T10:07:45.800Z</time>
      </trkpt>
      <trkpt lat="43.72757" lon="0.90548">
        <ele>178.147632</ele>
        <time>2023-01-03T10:07:48.790Z</time>
      </trkpt>
      <trkpt lat="43.72748" lon="0.9055">
        <ele>178.162754</ele>
        <time>2023-01-03T10:07:50.800Z</time>
      </trkpt>
      <trkpt lat="43.72735" lon="0.90552">
        <ele>178.184842</ele>
        <time>2023-01-03T10:07:53.804Z</time>
      </trkpt>
      <trkpt lat="43.72722" lon="0.90553">
        <ele>178.207508</ele>
        <time>2023-01-03T10:07:56.802Z</time>
      </trkpt>
      <trkpt lat="43.72712" lon="0.90554">
        <ele>178.223319</ele>
        <time>2023-01-03T10:07:58.803Z</time>
      </trkpt>
      <trkpt lat="43.72703" lon="0.90555">
        <ele>178.239762</ele>
        <time>2023-01-03T10:08:00.781Z</time>
      </trkpt>
      <trkpt lat="43.72693" lon="0.90556">
        <ele>178.256045</ele>
        <time>2023-01-03T10:08:02.805Z</time>
      </trkpt>
      <trkpt lat="43.72684" lon="0.90557">
        <ele>178.271502</ele>
        <time>2023-01-03T10:08:04.787Z</time>
      </trkpt>
      <trkpt lat="43.72671" lon="0.90559">
        <ele>178.292684</ele>
        <time>2023-01-03T10:08:07.810Z</time>
      </trkpt>
      <trkpt lat="43.72659" lon="0.9056">
        <ele>178.313043</ele>
        <time>2023-01-03T10:08:10.802Z</time>
      </trkpt>
      <trkpt lat="43.72647" lon="0.90562">
        <ele>178.332402</ele>
        <time>2023-01-03T10:08:13.803Z</time>
      </trkpt>
      <trkpt lat="43.72636" lon="0.90563">
        <ele>178.351384</ele>
        <time>2023-01-03T10:08:16.801Z</time>
      </trkpt>
      <trkpt lat="43.72624" lon="0.90564">
        <ele>178.371339</ele>
        <time>2023-01-03T10:08:19.794Z</time>
      </trkpt>
      <trkpt lat="43.72612" lon="0.90564">
        <ele>178.392293</ele>
        <time>2023-01-03T10:08:22.796Z</time>
      </trkpt>
      <trkpt lat="43.72599" lon="0.90565">
        <ele>178.413432</ele>
        <time>2023-01-03T10:08:25.803Z</time>
      </trkpt>
      <trkpt lat="43.72588" lon="0.90566">
        <ele>178.45832</ele>
        <time>2023-01-03T10:08:28.790Z</time>
      </trkpt>
      <trkpt lat="43.72576" lon="0.90566">
        <ele>178.503399</ele>
        <time>2023-01-03T10:08:31.795Z</time>
      </trkpt>
      <trkpt lat="43.72564" lon="0.90568">
        <ele>178.547882</ele>
        <time>2023-01-03T10:08:34.799Z</time>
      </trkpt>
      <trkpt lat="43.72553" lon="0.90566">
        <ele>178.591939</ele>
        <time>2023-01-03T10:08:37.786Z</time>
      </trkpt>
      <trkpt lat="43.72541" lon="0.90564">
        <ele>178.636369</ele>
        <time>2023-01-03T10:08:40.780Z</time>
      </trkpt>
      <trkpt lat="43.7253" lon="0.90561">
        <ele>178.680378</ele>
        <time>2023-01-03T10:08:43.805Z</time>
      </trkpt>
      <trkpt lat="43.72518" lon="0.90557">
        <ele>178.727659</ele>
        <time>2023-01-03T10:08:46.798Z</time>
      </trkpt>
      <trkpt lat="43.72505" lon="0.90554">
        <ele>178.775656</ele>
        <time>2023-01-03T10:08:49.795Z</time>
      </trkpt>
      <trkpt lat="43.72493" lon="0.90551">
        <ele>178.824548</ele>
        <time>2023-01-03T10:08:52.798Z</time>
      </trkpt>
      <trkpt lat="43.72481" lon="0.90546">
        <ele>178.871247</ele>
        <time>2023-01-03T10:08:55.795Z</time>
      </trkpt>
      <trkpt lat="43.7247" lon="0.90541">
        <ele>178.915801</ele>
        <time>2023-01-03T10:08:58.804Z</time>
      </trkpt>
      <trkpt lat="43.72459" lon="0.90538">
        <ele>178.959864</ele>
        <time>2023-01-03T10:09:01.784Z</time>
      </trkpt>
      <trkpt lat="43.72448" lon="0.90536">
        <ele>179.002498</ele>
        <time>2023-01-03T10:09:04.788Z</time>
      </trkpt>
      <trkpt lat="43.72436" lon="0.90535">
        <ele>179.045032</ele>
        <time>2023-01-03T10:09:07.791Z</time>
      </trkpt>
      <trkpt lat="43.72425" lon="0.90535">
        <ele>179.088969</ele>
        <time>2023-01-03T10:09:10.801Z</time>
      </trkpt>
      <trkpt lat="43.72413" lon="0.90536">
        <ele>179.279394</ele>
        <time>2023-01-03T10:09:13.800Z</time>
      </trkpt>
      <trkpt lat="43.72402" lon="0.90539">
        <ele>179.519029</ele>
        <time>2023-01-03T10:09:16.802Z</time>
      </trkpt>
      <trkpt lat="43.7239" lon="0.90542">
        <ele>179.77236</ele>
        <time>2023-01-03T10:09:19.797Z</time>
      </trkpt>
      <trkpt lat="43.72379" lon="0.90546">
        <ele>180.021299</ele>
        <time>2023-01-03T10:09:22.791Z</time>
      </trkpt>
      <trkpt lat="43.72367" lon="0.90552">
        <ele>180.275647</ele>
        <time>2023-01-03T10:09:25.782Z</time>
      </trkpt>
      <trkpt lat="43.72358" lon="0.90558">
        <ele>180.492638</ele>
        <time>2023-01-03T10:09:28.792Z</time>
      </trkpt>
      <trkpt lat="43.72348" lon="0.90565">
        <ele>180.731463</ele>
        <time>2023-01-03T10:09:32.795Z</time>
      </trkpt>
      <trkpt lat="43.72338" lon="0.90573">
        <ele>180.958214</ele>
        <time>2023-01-03T10:09:36.783Z</time>
      </trkpt>
      <trkpt lat="43.72329" lon="0.90579">
        <ele>181.186642</ele>
        <time>2023-01-03T10:09:40.788Z</time>
      </trkpt>
      <trkpt lat="43.72319" lon="0.90586">
        <ele>181.411826</ele>
        <time>2023-01-03T10:09:44.781Z</time>
      </trkpt>
      <trkpt lat="43.72309" lon="0.90593">
        <ele>181.634902</ele>
        <time>2023-01-03T10:09:48.785Z</time>
      </trkpt>
      <trkpt lat="43.72299" lon="0.90598">
        <ele>181.864782</ele>
        <time>2023-01-03T10:09:52.786Z</time>
      </trkpt>
      <trkpt lat="43.72291" lon="0.90602">
        <ele>182.05344</ele>
        <time>2023-01-03T10:09:55.805Z</time>
      </trkpt>
      <trkpt lat="43.72281" lon="0.90606">
        <ele>182.260331</ele>
        <time>2023-01-03T10:09:58.800Z</time>
      </trkpt>
      <trkpt lat="43.72272" lon="0.9061">
        <ele>182.455695</ele>
        <time>2023-01-03T10:10:01.807Z</time>
      </trkpt>
      <trkpt lat="43.72263" lon="0.90614">
        <ele>182.652778</ele>
        <time>2023-01-03T10:10:04.800Z</time>
      </trkpt>
      <trkpt lat="43.72254" lon="0.90617">
        <ele>182.856077</ele>
        <time>2023-01-03T10:10:07.783Z</time>
      </trkpt>
      <trkpt lat="43.72244" lon="0.90619">
        <ele>182.640913</ele>
        <time>2023-01-03T10:10:10.794Z</time>
      </trkpt>
      <trkpt lat="43.72235" lon="0.90621">
        <ele>182.41753</ele>
        <time>2023-01-03T10:10:13.800Z</time>
      </trkpt>
      <trkpt lat="43.72225" lon="0.90623">
        <ele>182.201026</ele>
        <time>2023-01-03T10:10:16.799Z</time>
      </trkpt>
      <trkpt lat="43.72215" lon="0.90623">
        <ele>181.96935</ele>
        <time>2023-01-03T10:10:19.782Z</time>
      </trkpt>
      <trkpt lat="43.72205" lon="0.90623">
        <ele>181.737674</ele>
        <time>2023-01-03T10:10:22.804Z</time>
      </trkpt>
      <trkpt lat="43.72195" lon="0.90622">
        <ele>181.489275</ele>
        <time>2023-01-03T10:10:25.794Z</time>
      </trkpt>
      <trkpt lat="43.72183" lon="0.90622">
        <ele>181.211204</ele>
        <time>2023-01-03T10:10:28.790Z</time>
      </trkpt>
      <trkpt lat="43.72174" lon="0.90621">
        <ele>181.000103</ele>
        <time>2023-01-03T10:10:30.797Z</time>
      </trkpt>
      <trkpt lat="43.72164" lon="0.9062">
        <ele>180.777438</ele>
        <time>2023-01-03T10:10:32.787Z</time>
      </trkpt>
      <trkpt lat="43.72154" lon="0.90621">
        <ele>180.534184</ele>
        <time>2023-01-03T10:10:34.800Z</time>
      </trkpt>
      <trkpt lat="43.72142" lon="0.90621">
        <ele>180.27219</ele>
        <time>2023-01-03T10:10:36.807Z</time>
      </trkpt>
      <trkpt lat="43.72131" lon="0.90621">
        <ele>180.001193</ele>
        <time>2023-01-03T10:10:38.803Z</time>
      </trkpt>
      <trkpt lat="43.72118" lon="0.90622">
        <ele>179.720526</ele>
        <time>2023-01-03T10:10:40.800Z</time>
      </trkpt>
      <trkpt lat="43.72105" lon="0.90623">
        <ele>179.416876</ele>
        <time>2023-01-03T10:10:42.798Z</time>
      </trkpt>
      <trkpt lat="43.72092" lon="0.90625">
        <ele>179.11179</ele>
        <time>2023-01-03T10:10:44.784Z</time>
      </trkpt>
      <trkpt lat="43.7208" lon="0.90625">
        <ele>178.819828</ele>
        <time>2023-01-03T10:10:46.784Z</time>
      </trkpt>
      <trkpt lat="43.72067" lon="0.90623">
        <ele>178.748941</ele>
        <time>2023-01-03T10:10:48.795Z</time>
      </trkpt>
      <trkpt lat="43.72055" lon="0.90616">
        <ele>178.848013</ele>
        <time>2023-01-03T10:10:50.786Z</time>
      </trkpt>
      <trkpt lat="43.72047" lon="0.90607">
        <ele>178.929706</ele>
        <time>2023-01-03T10:10:52.783Z</time>
      </trkpt>
      <trkpt lat="43.72039" lon="0.90597">
        <ele>179.013288</ele>
        <time>2023-01-03T10:10:54.787Z</time>
      </trkpt>
      <trkpt lat="43.72033" lon="0.90587">
        <ele>179.084002</ele>
        <time>2023-01-03T10:10:56.783Z</time>
      </trkpt>
      <trkpt lat="43.72024" lon="0.90575">
        <ele>179.181533</ele>
        <time>2023-01-03T10:10:59.792Z</time>
      </trkpt>
      <trkpt lat="43.72016" lon="0.90565">
        <ele>179.265325</ele>
        <time>2023-01-03T10:11:02.782Z</time>
      </trkpt>
      <trkpt lat="43.72008" lon="0.90558">
        <ele>179.33562</ele>
        <time>2023-01-03T10:11:05.783Z</time>
      </trkpt>
      <trkpt lat="43.72" lon="0.9055">
        <ele>179.410997</ele>
        <time>2023-01-03T10:11:08.794Z</time>
      </trkpt>
      <trkpt lat="43.71989" lon="0.90544">
        <ele>179.5038</ele>
        <time>2023-01-03T10:11:12.788Z</time>
      </trkpt>
      <trkpt lat="43.71981" lon="0.90538">
        <ele>179.574418</ele>
        <time>2023-01-03T10:11:15.788Z</time>
      </trkpt>
      <trkpt lat="43.71971" lon="0.90535">
        <ele>179.647324</ele>
        <time>2023-01-03T10:11:18.789Z</time>
      </trkpt>
      <trkpt lat="43.71962" lon="0.90531">
        <ele>179.722883</ele>
        <time>2023-01-03T10:11:21.801Z</time>
      </trkpt>
      <trkpt lat="43.71952" lon="0.90528">
        <ele>179.798913</ele>
        <time>2023-01-03T10:11:24.803Z</time>
      </trkpt>
      <trkpt lat="43.71943" lon="0.90525">
        <ele>179.872976</ele>
        <time>2023-01-03T10:11:27.798Z</time>
      </trkpt>
      <trkpt lat="43.71933" lon="0.90522">
        <ele>179.956394</ele>
        <time>2023-01-03T10:11:30.798Z</time>
      </trkpt>
      <trkpt lat="43.71923" lon="0.90519">
        <ele>180.030201</ele>
        <time>2023-01-03T10:11:33.802Z</time>
      </trkpt>
      <trkpt lat="43.71913" lon="0.90516">
        <ele>180.156259</ele>
        <time>2023-01-03T10:11:36.782Z</time>
      </trkpt>
      <trkpt lat="43.71902" lon="0.90512">
        <ele>180.349417</ele>
        <time>2023-01-03T10:11:39.799Z</time>
      </trkpt>
      <trkpt lat="43.71892" lon="0.90509">
        <ele>180.544617</ele>
        <time>2023-01-03T10:11:42.790Z</time>
      </trkpt>
      <trkpt lat="43.71881" lon="0.90505">
        <ele>180.745216</ele>
        <time>2023-01-03T10:11:45.794Z</time>
      </trkpt>
      <trkpt lat="43.71869" lon="0.90501">
        <ele>180.957933</ele>
        <time>2023-01-03T10:11:48.805Z</time>
      </trkpt>
      <trkpt lat="43.71858" lon="0.90497">
        <ele>181.172385</ele>
        <time>2023-01-03T10:11:51.802Z</time>
      </trkpt>
      <trkpt lat="43.71846" lon="0.90493">
        <ele>181.38358</ele>
        <time>2023-01-03T10:11:54.805Z</time>
      </trkpt>
      <trkpt lat="43.71835" lon="0.90489">
        <ele>181.592124</ele>
        <time>2023-01-03T10:11:57.798Z</time>
      </trkpt>
      <trkpt lat="43.71824" lon="0.90485">
        <ele>181.80626</ele>
        <time>2023-01-03T10:12:00.789Z</time>
      </trkpt>
      <trkpt lat="43.71813" lon="0.90481">
        <ele>181.999418</ele>
        <time>2023-01-03T10:12:03.797Z</time>
      </trkpt>
      <trkpt lat="43.71803" lon="0.90478">
        <ele>182.186563</ele>
        <time>2023-01-03T10:12:06.783Z</time>
      </trkpt>
      <trkpt lat="43.71793" lon="0.90473">
        <ele>182.380036</ele>
        <time>2023-01-03T10:12:09.798Z</time>
      </trkpt>
      <trkpt lat="43.71782" lon="0.90469">
        <ele>182.57759</ele>
        <time>2023-01-03T10:12:12.797Z</time>
      </trkpt>
      <trkpt lat="43.71771" lon="0.90466">
        <ele>182.773727</ele>
        <time>2023-01-03T10:12:15.802Z</time>
      </trkpt>
      <trkpt lat="43.71762" lon="0.90464">
        <ele>182.940344</ele>
        <time>2023-01-03T10:12:18.797Z</time>
      </trkpt>
      <trkpt lat="43.7175" lon="0.90461">
        <ele>183.152399</ele>
        <time>2023-01-03T10:12:22.797Z</time>
      </trkpt>
      <trkpt lat="43.71741" lon="0.9046">
        <ele>183.300449</ele>
        <time>2023-01-03T10:12:25.800Z</time>
      </trkpt>
      <trkpt lat="43.71732" lon="0.90458">
        <ele>183.31163</ele>
        <time>2023-01-03T10:12:28.785Z</time>
      </trkpt>
      <trkpt lat="43.71721" lon="0.90457">
        <ele>183.324904</ele>
        <time>2023-01-03T10:12:31.795Z</time>
      </trkpt>
      <trkpt lat="43.71709" lon="0.90457">
        <ele>183.338375</ele>
        <time>2023-01-03T10:12:34.796Z</time>
      </trkpt>
      <trkpt lat="43.71697" lon="0.90457">
        <ele>183.352905</ele>
        <time>2023-01-03T10:12:37.799Z</time>
      </trkpt>
      <trkpt lat="43.71684" lon="0.90455">
        <ele>183.367491</ele>
        <time>2023-01-03T10:12:40.801Z</time>
      </trkpt>
      <trkpt lat="43.71672" lon="0.90454">
        <ele>183.382503</ele>
        <time>2023-01-03T10:12:43.799Z</time>
      </trkpt>
      <trkpt lat="43.71659" lon="0.90453">
        <ele>183.397631</ele>
        <time>2023-01-03T10:12:46.800Z</time>
      </trkpt>
      <trkpt lat="43.71647" lon="0.90453">
        <ele>183.41099</ele>
        <time>2023-01-03T10:12:49.805Z</time>
      </trkpt>
      <trkpt lat="43.71636" lon="0.90452">
        <ele>183.424608</ele>
        <time>2023-01-03T10:12:52.808Z</time>
      </trkpt>
      <trkpt lat="43.71624" lon="0.90451">
        <ele>183.438672</ele>
        <time>2023-01-03T10:12:55.799Z</time>
      </trkpt>
      <trkpt lat="43.71612" lon="0.9045">
        <ele>183.452734</ele>
        <time>2023-01-03T10:12:58.805Z</time>
      </trkpt>
      <trkpt lat="43.716" lon="0.9045">
        <ele>183.466918</ele>
        <time>2023-01-03T10:13:01.803Z</time>
      </trkpt>
      <trkpt lat="43.71588" lon="0.90449">
        <ele>183.480394</ele>
        <time>2023-01-03T10:13:04.785Z</time>
      </trkpt>
      <trkpt lat="43.71577" lon="0.90449">
        <ele>183.493636</ele>
        <time>2023-01-03T10:13:07.803Z</time>
      </trkpt>
      <trkpt lat="43.71566" lon="0.90448">
        <ele>183.506777</ele>
        <time>2023-01-03T10:13:10.799Z</time>
      </trkpt>
      <trkpt lat="43.71554" lon="0.90447">
        <ele>183.340187</ele>
        <time>2023-01-03T10:13:13.795Z</time>
      </trkpt>
      <trkpt lat="43.71543" lon="0.90447">
        <ele>183.116537</ele>
        <time>2023-01-03T10:13:16.805Z</time>
      </trkpt>
      <trkpt lat="43.71532" lon="0.90446">
        <ele>182.894725</ele>
        <time>2023-01-03T10:13:19.802Z</time>
      </trkpt>
      <trkpt lat="43.7152" lon="0.90446">
        <ele>182.647229</ele>
        <time>2023-01-03T10:13:22.787Z</time>
      </trkpt>
      <trkpt lat="43.71511" lon="0.90444">
        <ele>182.460469</ele>
        <time>2023-01-03T10:13:24.794Z</time>
      </trkpt>
      <trkpt lat="43.71501" lon="0.90443">
        <ele>182.265026</ele>
        <time>2023-01-03T10:13:26.785Z</time>
      </trkpt>
      <trkpt lat="43.71492" lon="0.90443">
        <ele>182.077621</ele>
        <time>2023-01-03T10:13:28.784Z</time>
      </trkpt>
      <trkpt lat="43.71479" lon="0.90441">
        <ele>181.821382</ele>
        <time>2023-01-03T10:13:31.802Z</time>
      </trkpt>
      <trkpt lat="43.71467" lon="0.90442">
        <ele>181.581497</ele>
        <time>2023-01-03T10:13:34.786Z</time>
      </trkpt>
      <trkpt lat="43.71457" lon="0.90444">
        <ele>181.381533</ele>
        <time>2023-01-03T10:13:37.779Z</time>
      </trkpt>
      <trkpt lat="43.71448" lon="0.90446">
        <ele>181.184417</ele>
        <time>2023-01-03T10:13:40.830Z</time>
      </trkpt>
      <trkpt lat="43.71439" lon="0.90452">
        <ele>180.988873</ele>
        <time>2023-01-03T10:13:43.800Z</time>
      </trkpt>
      <trkpt lat="43.71429" lon="0.90458">
        <ele>180.778996</ele>
        <time>2023-01-03T10:13:46.793Z</time>
      </trkpt>
      <trkpt lat="43.71417" lon="0.90463">
        <ele>180.520508</ele>
        <time>2023-01-03T10:13:49.789Z</time>
      </trkpt>
      <trkpt lat="43.71404" lon="0.90462">
        <ele>180.256882</ele>
        <time>2023-01-03T10:13:52.789Z</time>
      </trkpt>
      <trkpt lat="43.71392" lon="0.90456">
        <ele>180.002033</ele>
        <time>2023-01-03T10:13:55.788Z</time>
      </trkpt>
      <trkpt lat="43.71383" lon="0.90451">
        <ele>179.864757</ele>
        <time>2023-01-03T10:13:58.782Z</time>
      </trkpt>
      <trkpt lat="43.71375" lon="0.90445">
        <ele>179.799492</ele>
        <time>2023-01-03T10:14:01.804Z</time>
      </trkpt>
      <trkpt lat="43.71364" lon="0.9044">
        <ele>179.723352</ele>
        <time>2023-01-03T10:14:04.788Z</time>
      </trkpt>
      <trkpt lat="43.71355" lon="0.90439">
        <ele>179.662149</ele>
        <time>2023-01-03T10:14:06.789Z</time>
      </trkpt>
      <trkpt lat="43.71341" lon="0.90437">
        <ele>179.567317</ele>
        <time>2023-01-03T10:14:09.789Z</time>
      </trkpt>
      <trkpt lat="43.71329" lon="0.90438">
        <ele>179.488333</ele>
        <time>2023-01-03T10:14:11.807Z</time>
      </trkpt>
      <trkpt lat="43.71317" lon="0.90437">
        <ele>179.403413</ele>
        <time>2023-01-03T10:14:13.807Z</time>
      </trkpt>
      <trkpt lat="43.71304" lon="0.90439">
        <ele>179.316971</ele>
        <time>2023-01-03T10:14:15.803Z</time>
      </trkpt>
      <trkpt lat="43.71293" lon="0.90442">
        <ele>179.240011</ele>
        <time>2023-01-03T10:14:17.791Z</time>
      </trkpt>
      <trkpt lat="43.7128" lon="0.90444">
        <ele>179.15602</ele>
        <time>2023-01-03T10:14:19.792Z</time>
      </trkpt>
      <trkpt lat="43.71269" lon="0.90446">
        <ele>179.080203</ele>
        <time>2023-01-03T10:14:21.801Z</time>
      </trkpt>
      <trkpt lat="43.71258" lon="0.90449">
        <ele>179.005592</ele>
        <time>2023-01-03T10:14:23.796Z</time>
      </trkpt>
      <trkpt lat="43.71248" lon="0.9045">
        <ele>178.933891</ele>
        <time>2023-01-03T10:14:25.797Z</time>
      </trkpt>
      <trkpt lat="43.71238" lon="0.90452">
        <ele>178.871141</ele>
        <time>2023-01-03T10:14:27.799Z</time>
      </trkpt>
      <trkpt lat="43.71228" lon="0.90451">
        <ele>178.803045</ele>
        <time>2023-01-03T10:14:29.781Z</time>
      </trkpt>
      <trkpt lat="43.71219" lon="0.90452">
        <ele>178.741049</ele>
        <time>2023-01-03T10:14:31.784Z</time>
      </trkpt>
      <trkpt lat="43.7121" lon="0.90452">
        <ele>178.685632</ele>
        <time>2023-01-03T10:14:33.795Z</time>
      </trkpt>
      <trkpt lat="43.71197" lon="0.90451">
        <ele>178.955263</ele>
        <time>2023-01-03T10:14:36.795Z</time>
      </trkpt>
      <trkpt lat="43.71184" lon="0.9045">
        <ele>179.220533</ele>
        <time>2023-01-03T10:14:39.795Z</time>
      </trkpt>
      <trkpt lat="43.71173" lon="0.90449">
        <ele>179.467627</ele>
        <time>2023-01-03T10:14:42.802Z</time>
      </trkpt>
      <trkpt lat="43.71162" lon="0.90449">
        <ele>179.696688</ele>
        <time>2023-01-03T10:14:45.792Z</time>
      </trkpt>
      <trkpt lat="43.71152" lon="0.90449">
        <ele>179.906677</ele>
        <time>2023-01-03T10:14:48.797Z</time>
      </trkpt>
      <trkpt lat="43.71141" lon="0.90451">
        <ele>180.132996</ele>
        <time>2023-01-03T10:14:51.803Z</time>
      </trkpt>
      <trkpt lat="43.71131" lon="0.90455">
        <ele>180.356237</ele>
        <time>2023-01-03T10:14:54.802Z</time>
      </trkpt>
      <trkpt lat="43.71121" lon="0.9046">
        <ele>180.580288</ele>
        <time>2023-01-03T10:14:57.787Z</time>
      </trkpt>
      <trkpt lat="43.71112" lon="0.90465">
        <ele>180.80381</ele>
        <time>2023-01-03T10:15:00.800Z</time>
      </trkpt>
      <trkpt lat="43.71103" lon="0.90471">
        <ele>181.002921</ele>
        <time>2023-01-03T10:15:03.805Z</time>
      </trkpt>
      <trkpt lat="43.71093" lon="0.90478">
        <ele>181.252152</ele>
        <time>2023-01-03T10:15:07.803Z</time>
      </trkpt>
      <trkpt lat="43.71085" lon="0.90486">
        <ele>181.458847</ele>
        <time>2023-01-03T10:15:10.786Z</time>
      </trkpt>
      <trkpt lat="43.71075" lon="0.90493">
        <ele>181.693431</ele>
        <time>2023-01-03T10:15:14.798Z</time>
      </trkpt>
      <trkpt lat="43.71067" lon="0.905">
        <ele>181.894636</ele>
        <time>2023-01-03T10:15:18.797Z</time>
      </trkpt>
      <trkpt lat="43.71058" lon="0.90509">
        <ele>182.125035</ele>
        <time>2023-01-03T10:15:22.786Z</time>
      </trkpt>
      <trkpt lat="43.7105" lon="0.90517">
        <ele>182.341323</ele>
        <time>2023-01-03T10:15:26.803Z</time>
      </trkpt>
      <trkpt lat="43.71041" lon="0.90526">
        <ele>182.597691</ele>
        <time>2023-01-03T10:15:31.795Z</time>
      </trkpt>
      <trkpt lat="43.71034" lon="0.90533">
        <ele>182.873924</ele>
        <time>2023-01-03T10:15:35.800Z</time>
      </trkpt>
      <trkpt lat="43.71025" lon="0.9054">
        <ele>183.154938</ele>
        <time>2023-01-03T10:15:39.785Z</time>
      </trkpt>
      <trkpt lat="43.71017" lon="0.90546">
        <ele>183.429798</ele>
        <time>2023-01-03T10:15:44.790Z</time>
      </trkpt>
      <trkpt lat="43.71008" lon="0.9055">
        <ele>183.713693</ele>
        <time>2023-01-03T10:15:50.787Z</time>
      </trkpt>
      <trkpt lat="43.70998" lon="0.90555">
        <ele>184.003834</ele>
        <time>2023-01-03T10:15:55.782Z</time>
      </trkpt>
      <trkpt lat="43.70989" lon="0.90559">
        <ele>184.298132</ele>
        <time>2023-01-03T10:16:00.785Z</time>
      </trkpt>
      <trkpt lat="43.70979" lon="0.90562">
        <ele>184.586077</ele>
        <time>2023-01-03T10:16:06.792Z</time>
      </trkpt>
      <trkpt lat="43.70969" lon="0.90564">
        <ele>184.874119</ele>
        <time>2023-01-03T10:16:12.788Z</time>
      </trkpt>
      <trkpt lat="43.7096" lon="0.90564">
        <ele>185.146776</ele>
        <time>2023-01-03T10:16:17.789Z</time>
      </trkpt>
      <trkpt lat="43.7095" lon="0.90566">
        <ele>185.453912</ele>
        <time>2023-01-03T10:16:21.784Z</time>
      </trkpt>
      <trkpt lat="43.7094" lon="0.90566">
        <ele>185.73237</ele>
        <time>2023-01-03T10:16:25.804Z</time>
      </trkpt>
      <trkpt lat="43.70931" lon="0.90567">
        <ele>186.002373</ele>
        <time>2023-01-03T10:16:29.787Z</time>
      </trkpt>
      <trkpt lat="43.70922" lon="0.90566">
        <ele>186.282118</ele>
        <time>2023-01-03T10:16:33.803Z</time>
      </trkpt>
      <trkpt lat="43.70911" lon="0.90565">
        <ele>186.592998</ele>
        <time>2023-01-03T10:16:37.798Z</time>
      </trkpt>
      <trkpt lat="43.70901" lon="0.90565">
        <ele>186.888997</ele>
        <time>2023-01-03T10:16:41.796Z</time>
      </trkpt>
      <trkpt lat="43.70889" lon="0.90562">
        <ele>187.237312</ele>
        <time>2023-01-03T10:16:45.799Z</time>
      </trkpt>
      <trkpt lat="43.70879" lon="0.90559">
        <ele>187.539583</ele>
        <time>2023-01-03T10:16:48.803Z</time>
      </trkpt>
      <trkpt lat="43.70869" lon="0.90556">
        <ele>187.712965</ele>
        <time>2023-01-03T10:16:51.799Z</time>
      </trkpt>
      <trkpt lat="43.70857" lon="0.90555">
        <ele>187.502722</ele>
        <time>2023-01-03T10:16:54.785Z</time>
      </trkpt>
      <trkpt lat="43.70844" lon="0.90554">
        <ele>187.278372</ele>
        <time>2023-01-03T10:16:57.789Z</time>
      </trkpt>
      <trkpt lat="43.70831" lon="0.90556">
        <ele>187.053322</ele>
        <time>2023-01-03T10:17:00.798Z</time>
      </trkpt>
      <trkpt lat="43.70819" lon="0.9056">
        <ele>186.853434</ele>
        <time>2023-01-03T10:17:03.785Z</time>
      </trkpt>
      <trkpt lat="43.70806" lon="0.90562">
        <ele>186.62597</ele>
        <time>2023-01-03T10:17:06.800Z</time>
      </trkpt>
      <trkpt lat="43.70797" lon="0.90565">
        <ele>186.461188</ele>
        <time>2023-01-03T10:17:08.792Z</time>
      </trkpt>
      <trkpt lat="43.70788" lon="0.90567">
        <ele>186.300571</ele>
        <time>2023-01-03T10:17:10.795Z</time>
      </trkpt>
      <trkpt lat="43.70778" lon="0.90569">
        <ele>186.138982</ele>
        <time>2023-01-03T10:17:12.800Z</time>
      </trkpt>
      <trkpt lat="43.70769" lon="0.90572">
        <ele>185.980858</ele>
        <time>2023-01-03T10:17:14.800Z</time>
      </trkpt>
      <trkpt lat="43.70757" lon="0.90575">
        <ele>185.759961</ele>
        <time>2023-01-03T10:17:17.782Z</time>
      </trkpt>
      <trkpt lat="43.70745" lon="0.90578">
        <ele>185.550652</ele>
        <time>2023-01-03T10:17:20.794Z</time>
      </trkpt>
      <trkpt lat="43.70733" lon="0.90582">
        <ele>185.340555</ele>
        <time>2023-01-03T10:17:23.799Z</time>
      </trkpt>
      <trkpt lat="43.70721" lon="0.90586">
        <ele>185.130727</ele>
        <time>2023-01-03T10:17:26.803Z</time>
      </trkpt>
      <trkpt lat="43.70709" lon="0.90588">
        <ele>184.920507</ele>
        <time>2023-01-03T10:17:29.785Z</time>
      </trkpt>
      <trkpt lat="43.707" lon="0.90591">
        <ele>184.760744</ele>
        <time>2023-01-03T10:17:31.798Z</time>
      </trkpt>
      <trkpt lat="43.70691" lon="0.90594">
        <ele>184.637417</ele>
        <time>2023-01-03T10:17:33.798Z</time>
      </trkpt>
      <trkpt lat="43.70679" lon="0.90597">
        <ele>184.536998</ele>
        <time>2023-01-03T10:17:36.788Z</time>
      </trkpt>
      <trkpt lat="43.70667" lon="0.90599">
        <ele>184.440852</ele>
        <time>2023-01-03T10:17:39.803Z</time>
      </trkpt>
      <trkpt lat="43.70654" lon="0.90601">
        <ele>184.340303</ele>
        <time>2023-01-03T10:17:42.799Z</time>
      </trkpt>
      <trkpt lat="43.70641" lon="0.90603">
        <ele>184.239408</ele>
        <time>2023-01-03T10:17:45.800Z</time>
      </trkpt>
      <trkpt lat="43.70628" lon="0.90604">
        <ele>184.135215</ele>
        <time>2023-01-03T10:17:48.794Z</time>
      </trkpt>
      <trkpt lat="43.70615" lon="0.90606">
        <ele>184.029878</ele>
        <time>2023-01-03T10:17:51.802Z</time>
      </trkpt>
      <trkpt lat="43.70601" lon="0.90606">
        <ele>183.919727</ele>
        <time>2023-01-03T10:17:54.802Z</time>
      </trkpt>
      <trkpt lat="43.70591" lon="0.90605">
        <ele>183.84198</ele>
        <time>2023-01-03T10:17:56.791Z</time>
      </trkpt>
      <trkpt lat="43.70582" lon="0.90604">
        <ele>183.766872</ele>
        <time>2023-01-03T10:17:58.801Z</time>
      </trkpt>
      <trkpt lat="43.70573" lon="0.90602">
        <ele>183.691687</ele>
        <time>2023-01-03T10:18:00.804Z</time>
      </trkpt>
      <trkpt lat="43.70563" lon="0.90599">
        <ele>183.612628</ele>
        <time>2023-01-03T10:18:02.798Z</time>
      </trkpt>
      <trkpt lat="43.7055" lon="0.90597">
        <ele>183.509784</ele>
        <time>2023-01-03T10:18:05.801Z</time>
      </trkpt>
      <trkpt lat="43.70541" lon="0.90595">
        <ele>183.438521</ele>
        <time>2023-01-03T10:18:07.784Z</time>
      </trkpt>
      <trkpt lat="43.70532" lon="0.90594">
        <ele>183.365058</ele>
        <time>2023-01-03T10:18:09.783Z</time>
      </trkpt>
      <trkpt lat="43.70522" lon="0.90592">
        <ele>183.288577</ele>
        <time>2023-01-03T10:18:11.794Z</time>
      </trkpt>
      <trkpt lat="43.70512" lon="0.90591">
        <ele>183.221051</ele>
        <time>2023-01-03T10:18:13.802Z</time>
      </trkpt>
      <trkpt lat="43.70502" lon="0.9059">
        <ele>183.17057</ele>
        <time>2023-01-03T10:18:15.784Z</time>
      </trkpt>
      <trkpt lat="43.70492" lon="0.90588">
        <ele>183.121499</ele>
        <time>2023-01-03T10:18:17.792Z</time>
      </trkpt>
      <trkpt lat="43.70481" lon="0.90587">
        <ele>183.069637</ele>
        <time>2023-01-03T10:18:19.795Z</time>
      </trkpt>
      <trkpt lat="43.70471" lon="0.90585">
        <ele>183.017532</ele>
        <time>2023-01-03T10:18:21.790Z</time>
      </trkpt>
      <trkpt lat="43.70461" lon="0.90583">
        <ele>182.96837</ele>
        <time>2023-01-03T10:18:23.817Z</time>
      </trkpt>
      <trkpt lat="43.70449" lon="0.90581">
        <ele>182.913852</ele>
        <time>2023-01-03T10:18:25.797Z</time>
      </trkpt>
      <trkpt lat="43.70438" lon="0.90579">
        <ele>182.857791</ele>
        <time>2023-01-03T10:18:27.800Z</time>
      </trkpt>
      <trkpt lat="43.70428" lon="0.90578">
        <ele>182.808011</ele>
        <time>2023-01-03T10:18:29.802Z</time>
      </trkpt>
      <trkpt lat="43.70417" lon="0.90575">
        <ele>182.755159</ele>
        <time>2023-01-03T10:18:31.801Z</time>
      </trkpt>
      <trkpt lat="43.70408" lon="0.90574">
        <ele>182.708698</ele>
        <time>2023-01-03T10:18:33.793Z</time>
      </trkpt>
      <trkpt lat="43.70399" lon="0.90572">
        <ele>182.664986</ele>
        <time>2023-01-03T10:18:35.802Z</time>
      </trkpt>
      <trkpt lat="43.70385" lon="0.90571">
        <ele>182.598509</ele>
        <time>2023-01-03T10:18:38.796Z</time>
      </trkpt>
      <trkpt lat="43.70375" lon="0.90569">
        <ele>182.549555</ele>
        <time>2023-01-03T10:18:40.793Z</time>
      </trkpt>
      <trkpt lat="43.70365" lon="0.90567">
        <ele>182.50179</ele>
        <time>2023-01-03T10:18:42.800Z</time>
      </trkpt>
      <trkpt lat="43.70356" lon="0.90565">
        <ele>182.453435</ele>
        <time>2023-01-03T10:18:44.800Z</time>
      </trkpt>
      <trkpt lat="43.70345" lon="0.90563">
        <ele>182.402139</ele>
        <time>2023-01-03T10:18:46.800Z</time>
      </trkpt>
      <trkpt lat="43.70335" lon="0.90561">
        <ele>182.388077</ele>
        <time>2023-01-03T10:18:48.802Z</time>
      </trkpt>
      <trkpt lat="43.70325" lon="0.90559">
        <ele>182.480458</ele>
        <time>2023-01-03T10:18:50.792Z</time>
      </trkpt>
      <trkpt lat="43.70316" lon="0.90557">
        <ele>182.563125</ele>
        <time>2023-01-03T10:18:52.789Z</time>
      </trkpt>
      <trkpt lat="43.70304" lon="0.90553">
        <ele>182.675501</ele>
        <time>2023-01-03T10:18:55.802Z</time>
      </trkpt>
      <trkpt lat="43.70294" lon="0.9055">
        <ele>182.766579</ele>
        <time>2023-01-03T10:18:58.798Z</time>
      </trkpt>
      <trkpt lat="43.70284" lon="0.90546">
        <ele>182.861328</ele>
        <time>2023-01-03T10:19:01.807Z</time>
      </trkpt>
      <trkpt lat="43.70273" lon="0.90542">
        <ele>182.961249</ele>
        <time>2023-01-03T10:19:04.801Z</time>
      </trkpt>
      <trkpt lat="43.70262" lon="0.90538">
        <ele>183.066915</ele>
        <time>2023-01-03T10:19:07.791Z</time>
      </trkpt>
      <trkpt lat="43.7025" lon="0.90535">
        <ele>183.175188</ele>
        <time>2023-01-03T10:19:10.801Z</time>
      </trkpt>
      <trkpt lat="43.70238" lon="0.90531">
        <ele>183.291431</ele>
        <time>2023-01-03T10:19:13.799Z</time>
      </trkpt>
      <trkpt lat="43.70229" lon="0.90528">
        <ele>183.373568</ele>
        <time>2023-01-03T10:19:15.795Z</time>
      </trkpt>
      <trkpt lat="43.70216" lon="0.90524">
        <ele>183.495655</ele>
        <time>2023-01-03T10:19:18.802Z</time>
      </trkpt>
      <trkpt lat="43.70207" lon="0.90521">
        <ele>183.581303</ele>
        <time>2023-01-03T10:19:20.810Z</time>
      </trkpt>
      <trkpt lat="43.70194" lon="0.90517">
        <ele>183.702934</ele>
        <time>2023-01-03T10:19:23.810Z</time>
      </trkpt>
      <trkpt lat="43.70184" lon="0.90514">
        <ele>183.786381</ele>
        <time>2023-01-03T10:19:25.793Z</time>
      </trkpt>
      <trkpt lat="43.70171" lon="0.90511">
        <ele>183.907949</ele>
        <time>2023-01-03T10:19:28.808Z</time>
      </trkpt>
      <trkpt lat="43.70158" lon="0.90508">
        <ele>184.02475</ele>
        <time>2023-01-03T10:19:31.798Z</time>
      </trkpt>
      <trkpt lat="43.70145" lon="0.90504">
        <ele>184.127203</ele>
        <time>2023-01-03T10:19:34.801Z</time>
      </trkpt>
      <trkpt lat="43.70133" lon="0.90501">
        <ele>184.22228</ele>
        <time>2023-01-03T10:19:37.799Z</time>
      </trkpt>
      <trkpt lat="43.70121" lon="0.90498">
        <ele>184.311596</ele>
        <time>2023-01-03T10:19:40.797Z</time>
      </trkpt>
      <trkpt lat="43.70109" lon="0.90495">
        <ele>184.403458</ele>
        <time>2023-01-03T10:19:43.799Z</time>
      </trkpt>
      <trkpt lat="43.70097" lon="0.90492">
        <ele>184.497131</ele>
        <time>2023-01-03T10:19:46.788Z</time>
      </trkpt>
      <trkpt lat="43.70084" lon="0.90489">
        <ele>184.597685</ele>
        <time>2023-01-03T10:19:49.800Z</time>
      </trkpt>
      <trkpt lat="43.70072" lon="0.90485">
        <ele>184.697521</ele>
        <time>2023-01-03T10:19:52.799Z</time>
      </trkpt>
      <trkpt lat="43.70059" lon="0.90482">
        <ele>184.795926</ele>
        <time>2023-01-03T10:19:55.800Z</time>
      </trkpt>
      <trkpt lat="43.70045" lon="0.90481">
        <ele>184.900381</ele>
        <time>2023-01-03T10:19:58.799Z</time>
      </trkpt>
      <trkpt lat="43.70032" lon="0.9048">
        <ele>185.0001</ele>
        <time>2023-01-03T10:20:01.797Z</time>
      </trkpt>
      <trkpt lat="43.70023" lon="0.9048">
        <ele>185.072227</ele>
        <time>2023-01-03T10:20:03.801Z</time>
      </trkpt>
      <trkpt lat="43.7001" lon="0.90478">
        <ele>185.169073</ele>
        <time>2023-01-03T10:20:06.806Z</time>
      </trkpt>
      <trkpt lat="43.70001" lon="0.90477">
        <ele>185.241601</ele>
        <time>2023-01-03T10:20:08.795Z</time>
      </trkpt>
      <trkpt lat="43.69992" lon="0.90476">
        <ele>185.312381</ele>
        <time>2023-01-03T10:20:10.805Z</time>
      </trkpt>
      <trkpt lat="43.69982" lon="0.90476">
        <ele>185.351499</ele>
        <time>2023-01-03T10:20:12.797Z</time>
      </trkpt>
      <trkpt lat="43.69973" lon="0.90476">
        <ele>185.258542</ele>
        <time>2023-01-03T10:20:14.793Z</time>
      </trkpt>
      <trkpt lat="43.69964" lon="0.90477">
        <ele>185.162719</ele>
        <time>2023-01-03T10:20:16.806Z</time>
      </trkpt>
      <trkpt lat="43.6995" lon="0.9048">
        <ele>185.022932</ele>
        <time>2023-01-03T10:20:19.793Z</time>
      </trkpt>
      <trkpt lat="43.69939" lon="0.90485">
        <ele>184.901051</ele>
        <time>2023-01-03T10:20:22.800Z</time>
      </trkpt>
      <trkpt lat="43.69928" lon="0.9049">
        <ele>184.783747</ele>
        <time>2023-01-03T10:20:25.800Z</time>
      </trkpt>
      <trkpt lat="43.69918" lon="0.90495">
        <ele>184.672958</ele>
        <time>2023-01-03T10:20:28.796Z</time>
      </trkpt>
      <trkpt lat="43.69906" lon="0.90501">
        <ele>184.541585</ele>
        <time>2023-01-03T10:20:31.790Z</time>
      </trkpt>
      <trkpt lat="43.69894" lon="0.90509">
        <ele>184.406694</ele>
        <time>2023-01-03T10:20:34.806Z</time>
      </trkpt>
      <trkpt lat="43.69883" lon="0.90519">
        <ele>184.275484</ele>
        <time>2023-01-03T10:20:37.804Z</time>
      </trkpt>
      <trkpt lat="43.69873" lon="0.90528">
        <ele>184.148983</ele>
        <time>2023-01-03T10:20:40.804Z</time>
      </trkpt>
      <trkpt lat="43.69862" lon="0.90538">
        <ele>184.015783</ele>
        <time>2023-01-03T10:20:43.806Z</time>
      </trkpt>
      <trkpt lat="43.6985" lon="0.90548">
        <ele>183.877495</ele>
        <time>2023-01-03T10:20:46.801Z</time>
      </trkpt>
      <trkpt lat="43.69843" lon="0.90556">
        <ele>183.779618</ele>
        <time>2023-01-03T10:20:48.788Z</time>
      </trkpt>
      <trkpt lat="43.69835" lon="0.90563">
        <ele>183.680898</ele>
        <time>2023-01-03T10:20:50.804Z</time>
      </trkpt>
      <trkpt lat="43.69827" lon="0.90571">
        <ele>183.582527</ele>
        <time>2023-01-03T10:20:52.790Z</time>
      </trkpt>
      <trkpt lat="43.69819" lon="0.90579">
        <ele>183.476457</ele>
        <time>2023-01-03T10:20:54.806Z</time>
      </trkpt>
      <trkpt lat="43.69811" lon="0.90588">
        <ele>183.359168</ele>
        <time>2023-01-03T10:20:56.797Z</time>
      </trkpt>
      <trkpt lat="43.69804" lon="0.90596">
        <ele>183.247522</ele>
        <time>2023-01-03T10:20:58.804Z</time>
      </trkpt>
      <trkpt lat="43.69797" lon="0.90605">
        <ele>183.140116</ele>
        <time>2023-01-03T10:21:00.810Z</time>
      </trkpt>
      <trkpt lat="43.6979" lon="0.90613">
        <ele>183.029127</ele>
        <time>2023-01-03T10:21:02.791Z</time>
      </trkpt>
      <trkpt lat="43.69782" lon="0.90622">
        <ele>182.915402</ele>
        <time>2023-01-03T10:21:04.799Z</time>
      </trkpt>
      <trkpt lat="43.69775" lon="0.9063">
        <ele>182.806558</ele>
        <time>2023-01-03T10:21:06.801Z</time>
      </trkpt>
      <trkpt lat="43.69768" lon="0.9064">
        <ele>182.685325</ele>
        <time>2023-01-03T10:21:08.796Z</time>
      </trkpt>
      <trkpt lat="43.6976" lon="0.9065">
        <ele>182.560694</ele>
        <time>2023-01-03T10:21:10.805Z</time>
      </trkpt>
      <trkpt lat="43.69752" lon="0.90661">
        <ele>182.425987</ele>
        <time>2023-01-03T10:21:12.795Z</time>
      </trkpt>
      <trkpt lat="43.69743" lon="0.90671">
        <ele>182.295037</ele>
        <time>2023-01-03T10:21:14.791Z</time>
      </trkpt>
      <trkpt lat="43.69735" lon="0.9068">
        <ele>182.169477</ele>
        <time>2023-01-03T10:21:16.808Z</time>
      </trkpt>
      <trkpt lat="43.69727" lon="0.90689">
        <ele>182.049298</ele>
        <time>2023-01-03T10:21:18.802Z</time>
      </trkpt>
      <trkpt lat="43.69719" lon="0.907">
        <ele>181.923032</ele>
        <time>2023-01-03T10:21:20.789Z</time>
      </trkpt>
      <trkpt lat="43.69711" lon="0.9071">
        <ele>181.789211</ele>
        <time>2023-01-03T10:21:22.789Z</time>
      </trkpt>
      <trkpt lat="43.69702" lon="0.9072">
        <ele>181.656427</ele>
        <time>2023-01-03T10:21:24.787Z</time>
      </trkpt>
      <trkpt lat="43.69695" lon="0.9073">
        <ele>181.536835</ele>
        <time>2023-01-03T10:21:26.801Z</time>
      </trkpt>
      <trkpt lat="43.69689" lon="0.90739">
        <ele>181.428817</ele>
        <time>2023-01-03T10:21:28.803Z</time>
      </trkpt>
      <trkpt lat="43.69682" lon="0.90749">
        <ele>181.494804</ele>
        <time>2023-01-03T10:21:30.808Z</time>
      </trkpt>
      <trkpt lat="43.69676" lon="0.90759">
        <ele>181.562072</ele>
        <time>2023-01-03T10:21:32.790Z</time>
      </trkpt>
      <trkpt lat="43.6967" lon="0.90769">
        <ele>181.631103</ele>
        <time>2023-01-03T10:21:34.805Z</time>
      </trkpt>
      <trkpt lat="43.69663" lon="0.90779">
        <ele>181.707702</ele>
        <time>2023-01-03T10:21:36.806Z</time>
      </trkpt>
      <trkpt lat="43.69657" lon="0.9079">
        <ele>181.777328</ele>
        <time>2023-01-03T10:21:38.810Z</time>
      </trkpt>
      <trkpt lat="43.6965" lon="0.90799">
        <ele>181.845807</ele>
        <time>2023-01-03T10:21:40.803Z</time>
      </trkpt>
      <trkpt lat="43.69644" lon="0.90809">
        <ele>181.915884</ele>
        <time>2023-01-03T10:21:42.803Z</time>
      </trkpt>
      <trkpt lat="43.69638" lon="0.90819">
        <ele>181.988938</ele>
        <time>2023-01-03T10:21:44.808Z</time>
      </trkpt>
      <trkpt lat="43.69632" lon="0.9083">
        <ele>182.060302</ele>
        <time>2023-01-03T10:21:46.806Z</time>
      </trkpt>
      <trkpt lat="43.69625" lon="0.9084">
        <ele>182.132167</ele>
        <time>2023-01-03T10:21:48.808Z</time>
      </trkpt>
      <trkpt lat="43.69619" lon="0.90849">
        <ele>182.201389</ele>
        <time>2023-01-03T10:21:50.804Z</time>
      </trkpt>
      <trkpt lat="43.6961" lon="0.9086">
        <ele>182.286815</ele>
        <time>2023-01-03T10:21:53.810Z</time>
      </trkpt>
      <trkpt lat="43.69603" lon="0.90869">
        <ele>182.355665</ele>
        <time>2023-01-03T10:21:55.800Z</time>
      </trkpt>
      <trkpt lat="43.69596" lon="0.90878">
        <ele>182.422149</ele>
        <time>2023-01-03T10:21:57.818Z</time>
      </trkpt>
      <trkpt lat="43.6959" lon="0.90887">
        <ele>182.490477</ele>
        <time>2023-01-03T10:21:59.795Z</time>
      </trkpt>
      <trkpt lat="43.69583" lon="0.90896">
        <ele>182.560748</ele>
        <time>2023-01-03T10:22:01.790Z</time>
      </trkpt>
      <trkpt lat="43.69576" lon="0.90905">
        <ele>182.628937</ele>
        <time>2023-01-03T10:22:03.802Z</time>
      </trkpt>
      <trkpt lat="43.69566" lon="0.90918">
        <ele>182.72812</ele>
        <time>2023-01-03T10:22:06.802Z</time>
      </trkpt>
      <trkpt lat="43.6956" lon="0.90926">
        <ele>182.750693</ele>
        <time>2023-01-03T10:22:08.810Z</time>
      </trkpt>
      <trkpt lat="43.69553" lon="0.90935">
        <ele>182.758984</ele>
        <time>2023-01-03T10:22:10.819Z</time>
      </trkpt>
      <trkpt lat="43.69543" lon="0.90945">
        <ele>182.770615</ele>
        <time>2023-01-03T10:22:13.808Z</time>
      </trkpt>
      <trkpt lat="43.69535" lon="0.90953">
        <ele>182.779344</ele>
        <time>2023-01-03T10:22:15.807Z</time>
      </trkpt>
      <trkpt lat="43.69527" lon="0.90959">
        <ele>182.787582</ele>
        <time>2023-01-03T10:22:17.804Z</time>
      </trkpt>
      <trkpt lat="43.69516" lon="0.9097">
        <ele>182.799806</ele>
        <time>2023-01-03T10:22:20.800Z</time>
      </trkpt>
      <trkpt lat="43.69507" lon="0.90974">
        <ele>182.808215</ele>
        <time>2023-01-03T10:22:22.794Z</time>
      </trkpt>
      <trkpt lat="43.69498" lon="0.90979">
        <ele>182.816641</ele>
        <time>2023-01-03T10:22:24.809Z</time>
      </trkpt>
      <trkpt lat="43.69486" lon="0.90988">
        <ele>182.828896</ele>
        <time>2023-01-03T10:22:27.802Z</time>
      </trkpt>
      <trkpt lat="43.69478" lon="0.90995">
        <ele>182.837212</ele>
        <time>2023-01-03T10:22:29.803Z</time>
      </trkpt>
      <trkpt lat="43.6947" lon="0.91">
        <ele>182.845306</ele>
        <time>2023-01-03T10:22:31.804Z</time>
      </trkpt>
      <trkpt lat="43.69462" lon="0.91006">
        <ele>182.853606</ele>
        <time>2023-01-03T10:22:33.801Z</time>
      </trkpt>
      <trkpt lat="43.6945" lon="0.91015">
        <ele>182.866556</ele>
        <time>2023-01-03T10:22:36.809Z</time>
      </trkpt>
      <trkpt lat="43.6944" lon="0.91021">
        <ele>182.875829</ele>
        <time>2023-01-03T10:22:38.793Z</time>
      </trkpt>
      <trkpt lat="43.69433" lon="0.91029">
        <ele>182.88441</ele>
        <time>2023-01-03T10:22:40.792Z</time>
      </trkpt>
      <trkpt lat="43.69419" lon="0.91033">
        <ele>182.896542</ele>
        <time>2023-01-03T10:22:42.795Z</time>
      </trkpt>
      <trkpt lat="43.69411" lon="0.91039">
        <ele>182.905015</ele>
        <time>2023-01-03T10:22:44.803Z</time>
      </trkpt>
      <trkpt lat="43.69402" lon="0.91046">
        <ele>182.914516</ele>
        <time>2023-01-03T10:22:46.786Z</time>
      </trkpt>
      <trkpt lat="43.69392" lon="0.91055">
        <ele>182.925346</ele>
        <time>2023-01-03T10:22:49.804Z</time>
      </trkpt>
      <trkpt lat="43.69384" lon="0.91061">
        <ele>182.933702</ele>
        <time>2023-01-03T10:22:51.809Z</time>
      </trkpt>
      <trkpt lat="43.69376" lon="0.91067">
        <ele>182.942176</ele>
        <time>2023-01-03T10:22:53.787Z</time>
      </trkpt>
      <trkpt lat="43.69365" lon="0.91076">
        <ele>182.95352</ele>
        <time>2023-01-03T10:22:56.808Z</time>
      </trkpt>
      <trkpt lat="43.69355" lon="0.91084">
        <ele>182.964793</ele>
        <time>2023-01-03T10:22:59.804Z</time>
      </trkpt>
      <trkpt lat="43.69344" lon="0.91092">
        <ele>182.975923</ele>
        <time>2023-01-03T10:23:02.794Z</time>
      </trkpt>
      <trkpt lat="43.69333" lon="0.911">
        <ele>182.987478</ele>
        <time>2023-01-03T10:23:05.785Z</time>
      </trkpt>
      <trkpt lat="43.69324" lon="0.91104">
        <ele>182.996133</ele>
        <time>2023-01-03T10:23:07.790Z</time>
      </trkpt>
      <trkpt lat="43.69312" lon="0.9111">
        <ele>183.007364</ele>
        <time>2023-01-03T10:23:10.803Z</time>
      </trkpt>
      <trkpt lat="43.69301" lon="0.91115">
        <ele>183.018682</ele>
        <time>2023-01-03T10:23:13.788Z</time>
      </trkpt>
      <trkpt lat="43.69289" lon="0.91121">
        <ele>183.030328</ele>
        <time>2023-01-03T10:23:15.786Z</time>
      </trkpt>
      <trkpt lat="43.69277" lon="0.91128">
        <ele>183.041999</ele>
        <time>2023-01-03T10:23:18.791Z</time>
      </trkpt>
      <trkpt lat="43.69266" lon="0.91133">
        <ele>183.053144</ele>
        <time>2023-01-03T10:23:21.796Z</time>
      </trkpt>
      <trkpt lat="43.69253" lon="0.9114">
        <ele>183.065593</ele>
        <time>2023-01-03T10:23:24.805Z</time>
      </trkpt>
      <trkpt lat="43.69242" lon="0.91146">
        <ele>183.132085</ele>
        <time>2023-01-03T10:23:27.801Z</time>
      </trkpt>
      <trkpt lat="43.69234" lon="0.9115">
        <ele>183.255592</ele>
        <time>2023-01-03T10:23:29.797Z</time>
      </trkpt>
      <trkpt lat="43.69222" lon="0.91157">
        <ele>183.427795</ele>
        <time>2023-01-03T10:23:32.800Z</time>
      </trkpt>
      <trkpt lat="43.69212" lon="0.91163">
        <ele>183.578282</ele>
        <time>2023-01-03T10:23:35.807Z</time>
      </trkpt>
      <trkpt lat="43.69203" lon="0.91169">
        <ele>183.711514</ele>
        <time>2023-01-03T10:23:38.811Z</time>
      </trkpt>
      <trkpt lat="43.69192" lon="0.91173">
        <ele>183.85953</ele>
        <time>2023-01-03T10:23:41.819Z</time>
      </trkpt>
      <trkpt lat="43.69183" lon="0.9118">
        <ele>184.003859</ele>
        <time>2023-01-03T10:23:44.791Z</time>
      </trkpt>
      <trkpt lat="43.69176" lon="0.91192">
        <ele>184.150841</ele>
        <time>2023-01-03T10:23:47.786Z</time>
      </trkpt>
      <trkpt lat="43.69169" lon="0.91206">
        <ele>184.321556</ele>
        <time>2023-01-03T10:23:50.793Z</time>
      </trkpt>
      <trkpt lat="43.69162" lon="0.91221">
        <ele>184.497102</ele>
        <time>2023-01-03T10:23:53.809Z</time>
      </trkpt>
      <trkpt lat="43.69156" lon="0.91235">
        <ele>184.657018</ele>
        <time>2023-01-03T10:23:56.802Z</time>
      </trkpt>
      <trkpt lat="43.69147" lon="0.91247">
        <ele>184.825497</ele>
        <time>2023-01-03T10:23:59.803Z</time>
      </trkpt>
      <trkpt lat="43.69139" lon="0.91258">
        <ele>184.976355</ele>
        <time>2023-01-03T10:24:02.786Z</time>
      </trkpt>
      <trkpt lat="43.69133" lon="0.91268">
        <ele>185.107705</ele>
        <time>2023-01-03T10:24:05.797Z</time>
      </trkpt>
      <trkpt lat="43.69125" lon="0.91277">
        <ele>185.240138</ele>
        <time>2023-01-03T10:24:08.786Z</time>
      </trkpt>
      <trkpt lat="43.69118" lon="0.91286">
        <ele>185.373964</ele>
        <time>2023-01-03T10:24:11.792Z</time>
      </trkpt>
      <trkpt lat="43.6911" lon="0.91294">
        <ele>185.505396</ele>
        <time>2023-01-03T10:24:14.808Z</time>
      </trkpt>
      <trkpt lat="43.69102" lon="0.913">
        <ele>185.840336</ele>
        <time>2023-01-03T10:24:17.788Z</time>
      </trkpt>
      <trkpt lat="43.69094" lon="0.91307">
        <ele>186.214567</ele>
        <time>2023-01-03T10:24:21.804Z</time>
      </trkpt>
      <trkpt lat="43.69084" lon="0.91314">
        <ele>186.603202</ele>
        <time>2023-01-03T10:24:26.804Z</time>
      </trkpt>
      <trkpt lat="43.69075" lon="0.91319">
        <ele>186.966412</ele>
        <time>2023-01-03T10:24:31.808Z</time>
      </trkpt>
      <trkpt lat="43.69066" lon="0.91325">
        <ele>187.335986</ele>
        <time>2023-01-03T10:24:36.811Z</time>
      </trkpt>
      <trkpt lat="43.69057" lon="0.9133">
        <ele>187.710088</ele>
        <time>2023-01-03T10:24:41.821Z</time>
      </trkpt>
      <trkpt lat="43.69048" lon="0.91336">
        <ele>188.077473</ele>
        <time>2023-01-03T10:24:46.806Z</time>
      </trkpt>
      <trkpt lat="43.6904" lon="0.91341">
        <ele>188.435697</ele>
        <time>2023-01-03T10:24:51.806Z</time>
      </trkpt>
      <trkpt lat="43.69031" lon="0.91346">
        <ele>188.781</ele>
        <time>2023-01-03T10:24:56.805Z</time>
      </trkpt>
      <trkpt lat="43.69021" lon="0.91352">
        <ele>189.176744</ele>
        <time>2023-01-03T10:25:01.801Z</time>
      </trkpt>
      <trkpt lat="43.69011" lon="0.91357">
        <ele>189.597209</ele>
        <time>2023-01-03T10:25:05.792Z</time>
      </trkpt>
      <trkpt lat="43.69" lon="0.91363">
        <ele>190.019622</ele>
        <time>2023-01-03T10:25:09.804Z</time>
      </trkpt>
      <trkpt lat="43.68992" lon="0.91368">
        <ele>190.363445</ele>
        <time>2023-01-03T10:25:13.785Z</time>
      </trkpt>
      <trkpt lat="43.68983" lon="0.91372">
        <ele>190.70499</ele>
        <time>2023-01-03T10:25:17.806Z</time>
      </trkpt>
      <trkpt lat="43.68978" lon="0.91374">
        <ele>190.916036</ele>
        <time>2023-01-03T10:25:27.573Z</time>
      </trkpt>
      <trkpt lat="43.68958" lon="0.9139">
        <ele>191.766513</ele>
        <time>2023-01-03T10:29:26.793Z</time>
      </trkpt>
      <trkpt lat="43.6895" lon="0.91398">
        <ele>192.133423</ele>
        <time>2023-01-03T10:29:31.788Z</time>
      </trkpt>
      <trkpt lat="43.68943" lon="0.91408">
        <ele>192.634812</ele>
        <time>2023-01-03T10:29:36.811Z</time>
      </trkpt>
      <trkpt lat="43.68937" lon="0.91417">
        <ele>193.133319</ele>
        <time>2023-01-03T10:29:41.807Z</time>
      </trkpt>
      <trkpt lat="43.68931" lon="0.91426">
        <ele>193.628489</ele>
        <time>2023-01-03T10:29:46.789Z</time>
      </trkpt>
      <trkpt lat="43.68927" lon="0.91437">
        <ele>194.126746</ele>
        <time>2023-01-03T10:29:52.789Z</time>
      </trkpt>
      <trkpt lat="43.6892" lon="0.91447">
        <ele>194.683042</ele>
        <time>2023-01-03T10:29:58.794Z</time>
      </trkpt>
      <trkpt lat="43.68914" lon="0.91459">
        <ele>195.262466</ele>
        <time>2023-01-03T10:30:04.791Z</time>
      </trkpt>
      <trkpt lat="43.68907" lon="0.91471">
        <ele>195.843549</ele>
        <time>2023-01-03T10:30:10.790Z</time>
      </trkpt>
      <trkpt lat="43.689" lon="0.9148">
        <ele>196.342057</ele>
        <time>2023-01-03T10:30:15.791Z</time>
      </trkpt>
      <trkpt lat="43.68894" lon="0.9149">
        <ele>196.851763</ele>
        <time>2023-01-03T10:30:20.804Z</time>
      </trkpt>
      <trkpt lat="43.68891" lon="0.91502">
        <ele>197.370107</ele>
        <time>2023-01-03T10:30:25.789Z</time>
      </trkpt>
      <trkpt lat="43.68886" lon="0.91515">
        <ele>197.926261</ele>
        <time>2023-01-03T10:30:31.793Z</time>
      </trkpt>
      <trkpt lat="43.68885" lon="0.91527">
        <ele>198.435324</ele>
        <time>2023-01-03T10:30:36.795Z</time>
      </trkpt>
      <trkpt lat="43.68885" lon="0.91542">
        <ele>199.008904</ele>
        <time>2023-01-03T10:30:42.790Z</time>
      </trkpt>
      <trkpt lat="43.68883" lon="0.91556">
        <ele>199.573438</ele>
        <time>2023-01-03T10:30:48.792Z</time>
      </trkpt>
      <trkpt lat="43.68883" lon="0.9157">
        <ele>200.134473</ele>
        <time>2023-01-03T10:30:54.791Z</time>
      </trkpt>
      <trkpt lat="43.68882" lon="0.91585">
        <ele>200.718702</ele>
        <time>2023-01-03T10:31:00.792Z</time>
      </trkpt>
      <trkpt lat="43.6888" lon="0.916">
        <ele>201.314707</ele>
        <time>2023-01-03T10:31:06.795Z</time>
      </trkpt>
      <trkpt lat="43.68879" lon="0.91614">
        <ele>201.859711</ele>
        <time>2023-01-03T10:31:11.796Z</time>
      </trkpt>
      <trkpt lat="43.68878" lon="0.91626">
        <ele>202.28384</ele>
        <time>2023-01-03T10:31:16.785Z</time>
      </trkpt>
      <trkpt lat="43.68877" lon="0.9164">
        <ele>202.683171</ele>
        <time>2023-01-03T10:31:22.793Z</time>
      </trkpt>
      <trkpt lat="43.68875" lon="0.91654">
        <ele>203.100225</ele>
        <time>2023-01-03T10:31:28.789Z</time>
      </trkpt>
      <trkpt lat="43.68874" lon="0.91667">
        <ele>203.469534</ele>
        <time>2023-01-03T10:31:33.789Z</time>
      </trkpt>
      <trkpt lat="43.68872" lon="0.91681">
        <ele>203.892892</ele>
        <time>2023-01-03T10:31:39.790Z</time>
      </trkpt>
      <trkpt lat="43.68869" lon="0.91694">
        <ele>204.273608</ele>
        <time>2023-01-03T10:31:44.804Z</time>
      </trkpt>
      <trkpt lat="43.68864" lon="0.91706">
        <ele>204.683875</ele>
        <time>2023-01-03T10:31:50.787Z</time>
      </trkpt>
      <trkpt lat="43.6886" lon="0.91717">
        <ele>205.060141</ele>
        <time>2023-01-03T10:31:55.793Z</time>
      </trkpt>
      <trkpt lat="43.68856" lon="0.91729">
        <ele>205.447259</ele>
        <time>2023-01-03T10:32:00.810Z</time>
      </trkpt>
      <trkpt lat="43.68851" lon="0.91743">
        <ele>205.891796</ele>
        <time>2023-01-03T10:32:05.808Z</time>
      </trkpt>
      <trkpt lat="43.68847" lon="0.91755">
        <ele>206.25283</ele>
        <time>2023-01-03T10:32:09.792Z</time>
      </trkpt>
      <trkpt lat="43.68842" lon="0.91766">
        <ele>206.627978</ele>
        <time>2023-01-03T10:32:13.789Z</time>
      </trkpt>
      <trkpt lat="43.68837" lon="0.91778">
        <ele>207.038738</ele>
        <time>2023-01-03T10:32:17.792Z</time>
      </trkpt>
      <trkpt lat="43.68833" lon="0.9179">
        <ele>207.431558</ele>
        <time>2023-01-03T10:32:21.798Z</time>
      </trkpt>
      <trkpt lat="43.68827" lon="0.91802">
        <ele>207.85479</ele>
        <time>2023-01-03T10:32:25.788Z</time>
      </trkpt>
      <trkpt lat="43.68821" lon="0.91816">
        <ele>208.313224</ele>
        <time>2023-01-03T10:32:29.815Z</time>
      </trkpt>
      <trkpt lat="43.68816" lon="0.91827">
        <ele>208.677406</ele>
        <time>2023-01-03T10:32:32.802Z</time>
      </trkpt>
      <trkpt lat="43.6881" lon="0.91841">
        <ele>209.149352</ele>
        <time>2023-01-03T10:32:36.812Z</time>
      </trkpt>
      <trkpt lat="43.68805" lon="0.91853">
        <ele>209.512126</ele>
        <time>2023-01-03T10:32:40.801Z</time>
      </trkpt>
      <trkpt lat="43.68799" lon="0.91865">
        <ele>209.879194</ele>
        <time>2023-01-03T10:32:44.790Z</time>
      </trkpt>
      <trkpt lat="43.68794" lon="0.91877">
        <ele>210.193885</ele>
        <time>2023-01-03T10:32:48.807Z</time>
      </trkpt>
      <trkpt lat="43.68789" lon="0.9189">
        <ele>210.563533</ele>
        <time>2023-01-03T10:32:52.806Z</time>
      </trkpt>
      <trkpt lat="43.68783" lon="0.91904">
        <ele>210.948955</ele>
        <time>2023-01-03T10:32:56.791Z</time>
      </trkpt>
      <trkpt lat="43.68777" lon="0.91918">
        <ele>211.324033</ele>
        <time>2023-01-03T10:33:00.792Z</time>
      </trkpt>
      <trkpt lat="43.68772" lon="0.91932">
        <ele>211.705319</ele>
        <time>2023-01-03T10:33:04.788Z</time>
      </trkpt>
      <trkpt lat="43.68766" lon="0.91945">
        <ele>212.086347</ele>
        <time>2023-01-03T10:33:08.807Z</time>
      </trkpt>
      <trkpt lat="43.6876" lon="0.91959">
        <ele>212.473505</ele>
        <time>2023-01-03T10:33:12.806Z</time>
      </trkpt>
      <trkpt lat="43.68755" lon="0.91969">
        <ele>212.779882</ele>
        <time>2023-01-03T10:33:15.797Z</time>
      </trkpt>
      <trkpt lat="43.6875" lon="0.9198">
        <ele>213.080278</ele>
        <time>2023-01-03T10:33:18.816Z</time>
      </trkpt>
      <trkpt lat="43.68744" lon="0.91994">
        <ele>213.476277</ele>
        <time>2023-01-03T10:33:22.787Z</time>
      </trkpt>
      <trkpt lat="43.68738" lon="0.92008">
        <ele>213.864998</ele>
        <time>2023-01-03T10:33:26.802Z</time>
      </trkpt>
      <trkpt lat="43.68732" lon="0.92021">
        <ele>214.246643</ele>
        <time>2023-01-03T10:33:30.806Z</time>
      </trkpt>
      <trkpt lat="43.68727" lon="0.92034">
        <ele>214.598848</ele>
        <time>2023-01-03T10:33:34.809Z</time>
      </trkpt>
      <trkpt lat="43.68721" lon="0.92047">
        <ele>214.971443</ele>
        <time>2023-01-03T10:33:38.795Z</time>
      </trkpt>
      <trkpt lat="43.68716" lon="0.9206">
        <ele>215.328492</ele>
        <time>2023-01-03T10:33:42.795Z</time>
      </trkpt>
      <trkpt lat="43.68711" lon="0.92072">
        <ele>215.732419</ele>
        <time>2023-01-03T10:33:46.787Z</time>
      </trkpt>
      <trkpt lat="43.68705" lon="0.92084">
        <ele>216.147496</ele>
        <time>2023-01-03T10:33:50.809Z</time>
      </trkpt>
      <trkpt lat="43.687" lon="0.92096">
        <ele>216.565021</ele>
        <time>2023-01-03T10:33:54.793Z</time>
      </trkpt>
      <trkpt lat="43.68695" lon="0.92107">
        <ele>216.946434</ele>
        <time>2023-01-03T10:33:58.794Z</time>
      </trkpt>
      <trkpt lat="43.6869" lon="0.92118">
        <ele>217.345306</ele>
        <time>2023-01-03T10:34:02.807Z</time>
      </trkpt>
      <trkpt lat="43.68685" lon="0.92131">
        <ele>217.758581</ele>
        <time>2023-01-03T10:34:06.791Z</time>
      </trkpt>
      <trkpt lat="43.6868" lon="0.92142">
        <ele>218.145667</ele>
        <time>2023-01-03T10:34:10.810Z</time>
      </trkpt>
      <trkpt lat="43.68675" lon="0.92154">
        <ele>218.561002</ele>
        <time>2023-01-03T10:34:14.810Z</time>
      </trkpt>
      <trkpt lat="43.6867" lon="0.92166">
        <ele>218.969897</ele>
        <time>2023-01-03T10:34:18.809Z</time>
      </trkpt>
      <trkpt lat="43.68664" lon="0.92178">
        <ele>219.406422</ele>
        <time>2023-01-03T10:34:22.812Z</time>
      </trkpt>
      <trkpt lat="43.68659" lon="0.92192">
        <ele>219.843562</ele>
        <time>2023-01-03T10:34:26.807Z</time>
      </trkpt>
      <trkpt lat="43.68655" lon="0.92203">
        <ele>220.217797</ele>
        <time>2023-01-03T10:34:29.799Z</time>
      </trkpt>
      <trkpt lat="43.6865" lon="0.92213">
        <ele>220.583878</ele>
        <time>2023-01-03T10:34:32.797Z</time>
      </trkpt>
      <trkpt lat="43.68644" lon="0.92226">
        <ele>221.033496</ele>
        <time>2023-01-03T10:34:36.797Z</time>
      </trkpt>
      <trkpt lat="43.68638" lon="0.92241">
        <ele>221.52525</ele>
        <time>2023-01-03T10:34:40.798Z</time>
      </trkpt>
      <trkpt lat="43.68633" lon="0.92252">
        <ele>221.91117</ele>
        <time>2023-01-03T10:34:43.793Z</time>
      </trkpt>
      <trkpt lat="43.68628" lon="0.92263">
        <ele>222.281863</ele>
        <time>2023-01-03T10:34:46.808Z</time>
      </trkpt>
      <trkpt lat="43.68623" lon="0.92276">
        <ele>222.617564</ele>
        <time>2023-01-03T10:34:50.812Z</time>
      </trkpt>
      <trkpt lat="43.68617" lon="0.92293">
        <ele>222.788954</ele>
        <time>2023-01-03T10:34:54.805Z</time>
      </trkpt>
      <trkpt lat="43.68613" lon="0.92305">
        <ele>222.913994</ele>
        <time>2023-01-03T10:34:58.820Z</time>
      </trkpt>
      <trkpt lat="43.68607" lon="0.9232">
        <ele>223.063476</ele>
        <time>2023-01-03T10:35:02.811Z</time>
      </trkpt>
      <trkpt lat="43.68603" lon="0.92333">
        <ele>223.182091</ele>
        <time>2023-01-03T10:35:05.806Z</time>
      </trkpt>
      <trkpt lat="43.686" lon="0.92345">
        <ele>223.300545</ele>
        <time>2023-01-03T10:35:08.809Z</time>
      </trkpt>
      <trkpt lat="43.68595" lon="0.92358">
        <ele>223.430133</ele>
        <time>2023-01-03T10:35:11.792Z</time>
      </trkpt>
      <trkpt lat="43.68591" lon="0.92372">
        <ele>223.567635</ele>
        <time>2023-01-03T10:35:14.806Z</time>
      </trkpt>
      <trkpt lat="43.68586" lon="0.92387">
        <ele>223.714344</ele>
        <time>2023-01-03T10:35:17.809Z</time>
      </trkpt>
      <trkpt lat="43.68582" lon="0.92402">
        <ele>223.857988</ele>
        <time>2023-01-03T10:35:20.795Z</time>
      </trkpt>
      <trkpt lat="43.68578" lon="0.92417">
        <ele>224.005357</ele>
        <time>2023-01-03T10:35:23.808Z</time>
      </trkpt>
      <trkpt lat="43.68573" lon="0.92433">
        <ele>224.15574</ele>
        <time>2023-01-03T10:35:26.817Z</time>
      </trkpt>
      <trkpt lat="43.68569" lon="0.92449">
        <ele>224.307307</ele>
        <time>2023-01-03T10:35:29.803Z</time>
      </trkpt>
      <trkpt lat="43.68565" lon="0.92464">
        <ele>224.451726</ele>
        <time>2023-01-03T10:35:32.789Z</time>
      </trkpt>
      <trkpt lat="43.68561" lon="0.92479">
        <ele>224.600345</ele>
        <time>2023-01-03T10:35:35.812Z</time>
      </trkpt>
      <trkpt lat="43.68557" lon="0.92495">
        <ele>224.74686</ele>
        <time>2023-01-03T10:35:38.797Z</time>
      </trkpt>
      <trkpt lat="43.68553" lon="0.92509">
        <ele>224.859975</ele>
        <time>2023-01-03T10:35:41.811Z</time>
      </trkpt>
      <trkpt lat="43.68549" lon="0.92523">
        <ele>224.950885</ele>
        <time>2023-01-03T10:35:44.810Z</time>
      </trkpt>
      <trkpt lat="43.68545" lon="0.92537">
        <ele>225.044792</ele>
        <time>2023-01-03T10:35:47.808Z</time>
      </trkpt>
      <trkpt lat="43.6854" lon="0.92553">
        <ele>225.149114</ele>
        <time>2023-01-03T10:35:50.810Z</time>
      </trkpt>
      <trkpt lat="43.68535" lon="0.92569">
        <ele>225.258482</ele>
        <time>2023-01-03T10:35:53.801Z</time>
      </trkpt>
      <trkpt lat="43.68531" lon="0.92585">
        <ele>225.363692</ele>
        <time>2023-01-03T10:35:56.821Z</time>
      </trkpt>
      <trkpt lat="43.68526" lon="0.92601">
        <ele>225.467751</ele>
        <time>2023-01-03T10:35:59.808Z</time>
      </trkpt>
      <trkpt lat="43.68522" lon="0.92616">
        <ele>225.57165</ele>
        <time>2023-01-03T10:36:02.792Z</time>
      </trkpt>
      <trkpt lat="43.68517" lon="0.92632">
        <ele>225.676284</ele>
        <time>2023-01-03T10:36:05.810Z</time>
      </trkpt>
      <trkpt lat="43.68514" lon="0.92646">
        <ele>225.767476</ele>
        <time>2023-01-03T10:36:08.796Z</time>
      </trkpt>
      <trkpt lat="43.6851" lon="0.92657">
        <ele>225.84878</ele>
        <time>2023-01-03T10:36:11.814Z</time>
      </trkpt>
      <trkpt lat="43.68505" lon="0.92672">
        <ele>225.945404</ele>
        <time>2023-01-03T10:36:15.809Z</time>
      </trkpt>
      <trkpt lat="43.68501" lon="0.92684">
        <ele>226.026799</ele>
        <time>2023-01-03T10:36:18.797Z</time>
      </trkpt>
      <trkpt lat="43.68498" lon="0.92697">
        <ele>226.112164</ele>
        <time>2023-01-03T10:36:21.805Z</time>
      </trkpt>
      <trkpt lat="43.68493" lon="0.9271">
        <ele>226.200533</ele>
        <time>2023-01-03T10:36:24.808Z</time>
      </trkpt>
      <trkpt lat="43.6849" lon="0.92722">
        <ele>226.282133</ele>
        <time>2023-01-03T10:36:27.796Z</time>
      </trkpt>
      <trkpt lat="43.68488" lon="0.92735">
        <ele>226.393812</ele>
        <time>2023-01-03T10:36:30.800Z</time>
      </trkpt>
      <trkpt lat="43.68484" lon="0.92747">
        <ele>226.576933</ele>
        <time>2023-01-03T10:36:33.785Z</time>
      </trkpt>
      <trkpt lat="43.6848" lon="0.92759">
        <ele>226.761407</ele>
        <time>2023-01-03T10:36:36.811Z</time>
      </trkpt>
      <trkpt lat="43.68477" lon="0.92772">
        <ele>226.947173</ele>
        <time>2023-01-03T10:36:39.810Z</time>
      </trkpt>
      <trkpt lat="43.68473" lon="0.92784">
        <ele>227.12769</ele>
        <time>2023-01-03T10:36:42.807Z</time>
      </trkpt>
      <trkpt lat="43.6847" lon="0.92796">
        <ele>227.31287</ele>
        <time>2023-01-03T10:36:45.795Z</time>
      </trkpt>
      <trkpt lat="43.68466" lon="0.9281">
        <ele>227.509757</ele>
        <time>2023-01-03T10:36:48.812Z</time>
      </trkpt>
      <trkpt lat="43.68463" lon="0.92823">
        <ele>227.709181</ele>
        <time>2023-01-03T10:36:51.810Z</time>
      </trkpt>
      <trkpt lat="43.6846" lon="0.92837">
        <ele>227.90548</ele>
        <time>2023-01-03T10:36:54.798Z</time>
      </trkpt>
      <trkpt lat="43.68457" lon="0.92851">
        <ele>228.111831</ele>
        <time>2023-01-03T10:36:57.793Z</time>
      </trkpt>
      <trkpt lat="43.68453" lon="0.92865">
        <ele>228.316478</ele>
        <time>2023-01-03T10:37:00.789Z</time>
      </trkpt>
      <trkpt lat="43.6845" lon="0.92879">
        <ele>228.517511</ele>
        <time>2023-01-03T10:37:03.805Z</time>
      </trkpt>
      <trkpt lat="43.68447" lon="0.92893">
        <ele>228.726526</ele>
        <time>2023-01-03T10:37:06.811Z</time>
      </trkpt>
      <trkpt lat="43.68444" lon="0.92908">
        <ele>228.934437</ele>
        <time>2023-01-03T10:37:09.812Z</time>
      </trkpt>
      <trkpt lat="43.6844" lon="0.92922">
        <ele>229.148919</ele>
        <time>2023-01-03T10:37:12.811Z</time>
      </trkpt>
      <trkpt lat="43.68437" lon="0.92937">
        <ele>229.354745</ele>
        <time>2023-01-03T10:37:15.813Z</time>
      </trkpt>
      <trkpt lat="43.68435" lon="0.9295">
        <ele>229.543851</ele>
        <time>2023-01-03T10:37:18.811Z</time>
      </trkpt>
      <trkpt lat="43.68432" lon="0.92964">
        <ele>229.745995</ele>
        <time>2023-01-03T10:37:21.807Z</time>
      </trkpt>
      <trkpt lat="43.6843" lon="0.9298">
        <ele>229.71787</ele>
        <time>2023-01-03T10:37:24.812Z</time>
      </trkpt>
      <trkpt lat="43.68427" lon="0.92996">
        <ele>229.628774</ele>
        <time>2023-01-03T10:37:27.811Z</time>
      </trkpt>
      <trkpt lat="43.68426" lon="0.93014">
        <ele>229.536502</ele>
        <time>2023-01-03T10:37:30.816Z</time>
      </trkpt>
      <trkpt lat="43.68423" lon="0.93031">
        <ele>229.441585</ele>
        <time>2023-01-03T10:37:33.801Z</time>
      </trkpt>
      <trkpt lat="43.68422" lon="0.93044">
        <ele>229.37467</ele>
        <time>2023-01-03T10:37:35.796Z</time>
      </trkpt>
      <trkpt lat="43.68421" lon="0.93057">
        <ele>229.306455</ele>
        <time>2023-01-03T10:37:37.812Z</time>
      </trkpt>
      <trkpt lat="43.6842" lon="0.93071">
        <ele>229.232992</ele>
        <time>2023-01-03T10:37:39.798Z</time>
      </trkpt>
      <trkpt lat="43.68418" lon="0.93084">
        <ele>229.162061</ele>
        <time>2023-01-03T10:37:41.804Z</time>
      </trkpt>
      <trkpt lat="43.68417" lon="0.93098">
        <ele>229.085366</ele>
        <time>2023-01-03T10:37:43.812Z</time>
      </trkpt>
      <trkpt lat="43.68416" lon="0.93112">
        <ele>229.012956</ele>
        <time>2023-01-03T10:37:45.810Z</time>
      </trkpt>
      <trkpt lat="43.68415" lon="0.93125">
        <ele>228.943936</ele>
        <time>2023-01-03T10:37:47.812Z</time>
      </trkpt>
      <trkpt lat="43.68414" lon="0.93139">
        <ele>228.870561</ele>
        <time>2023-01-03T10:37:49.796Z</time>
      </trkpt>
      <trkpt lat="43.68412" lon="0.93152">
        <ele>228.79942</ele>
        <time>2023-01-03T10:37:51.810Z</time>
      </trkpt>
      <trkpt lat="43.68411" lon="0.93165">
        <ele>228.729276</ele>
        <time>2023-01-03T10:37:53.808Z</time>
      </trkpt>
      <trkpt lat="43.68411" lon="0.93178">
        <ele>228.659945</ele>
        <time>2023-01-03T10:37:55.811Z</time>
      </trkpt>
      <trkpt lat="43.68411" lon="0.93196">
        <ele>228.563757</ele>
        <time>2023-01-03T10:37:58.810Z</time>
      </trkpt>
      <trkpt lat="43.68411" lon="0.93215">
        <ele>228.501477</ele>
        <time>2023-01-03T10:38:01.806Z</time>
      </trkpt>
      <trkpt lat="43.68412" lon="0.93234">
        <ele>228.781544</ele>
        <time>2023-01-03T10:38:04.813Z</time>
      </trkpt>
      <trkpt lat="43.68413" lon="0.93251">
        <ele>229.052681</ele>
        <time>2023-01-03T10:38:07.785Z</time>
      </trkpt>
      <trkpt lat="43.68414" lon="0.93267">
        <ele>229.295211</ele>
        <time>2023-01-03T10:38:10.809Z</time>
      </trkpt>
      <trkpt lat="43.68415" lon="0.93282">
        <ele>229.519767</ele>
        <time>2023-01-03T10:38:13.811Z</time>
      </trkpt>
      <trkpt lat="43.68417" lon="0.93297">
        <ele>229.751016</ele>
        <time>2023-01-03T10:38:16.810Z</time>
      </trkpt>
      <trkpt lat="43.68418" lon="0.93311">
        <ele>229.975123</ele>
        <time>2023-01-03T10:38:19.797Z</time>
      </trkpt>
      <trkpt lat="43.68419" lon="0.93326">
        <ele>230.194309</ele>
        <time>2023-01-03T10:38:22.812Z</time>
      </trkpt>
      <trkpt lat="43.6842" lon="0.9334">
        <ele>230.408341</ele>
        <time>2023-01-03T10:38:25.805Z</time>
      </trkpt>
      <trkpt lat="43.68421" lon="0.93353">
        <ele>230.620874</ele>
        <time>2023-01-03T10:38:28.794Z</time>
      </trkpt>
      <trkpt lat="43.68423" lon="0.93368">
        <ele>230.840059</ele>
        <time>2023-01-03T10:38:31.788Z</time>
      </trkpt>
      <trkpt lat="43.68425" lon="0.93382">
        <ele>231.057421</ele>
        <time>2023-01-03T10:38:34.805Z</time>
      </trkpt>
      <trkpt lat="43.68427" lon="0.93396">
        <ele>231.278063</ele>
        <time>2023-01-03T10:38:37.797Z</time>
      </trkpt>
      <trkpt lat="43.68429" lon="0.9341">
        <ele>231.498513</ele>
        <time>2023-01-03T10:38:40.814Z</time>
      </trkpt>
      <trkpt lat="43.68432" lon="0.93424">
        <ele>231.715644</ele>
        <time>2023-01-03T10:38:43.788Z</time>
      </trkpt>
      <trkpt lat="43.68435" lon="0.93437">
        <ele>231.929422</ele>
        <time>2023-01-03T10:38:46.815Z</time>
      </trkpt>
      <trkpt lat="43.68438" lon="0.9345">
        <ele>232.143876</ele>
        <time>2023-01-03T10:38:49.812Z</time>
      </trkpt>
      <trkpt lat="43.68441" lon="0.93463">
        <ele>232.41333</ele>
        <time>2023-01-03T10:38:52.811Z</time>
      </trkpt>
      <trkpt lat="43.68446" lon="0.93475">
        <ele>232.770346</ele>
        <time>2023-01-03T10:38:55.818Z</time>
      </trkpt>
      <trkpt lat="43.6845" lon="0.93487">
        <ele>233.108998</ele>
        <time>2023-01-03T10:38:58.807Z</time>
      </trkpt>
      <trkpt lat="43.68455" lon="0.93501">
        <ele>233.518719</ele>
        <time>2023-01-03T10:39:02.813Z</time>
      </trkpt>
      <trkpt lat="43.68459" lon="0.93515">
        <ele>233.935907</ele>
        <time>2023-01-03T10:39:06.817Z</time>
      </trkpt>
      <trkpt lat="43.68464" lon="0.9353">
        <ele>234.335387</ele>
        <time>2023-01-03T10:39:10.796Z</time>
      </trkpt>
      <trkpt lat="43.68468" lon="0.93543">
        <ele>234.709178</ele>
        <time>2023-01-03T10:39:14.812Z</time>
      </trkpt>
      <trkpt lat="43.68472" lon="0.93557">
        <ele>235.114911</ele>
        <time>2023-01-03T10:39:18.794Z</time>
      </trkpt>
      <trkpt lat="43.68477" lon="0.9357">
        <ele>235.50176</ele>
        <time>2023-01-03T10:39:22.810Z</time>
      </trkpt>
      <trkpt lat="43.68481" lon="0.93582">
        <ele>235.847786</ele>
        <time>2023-01-03T10:39:26.807Z</time>
      </trkpt>
      <trkpt lat="43.68485" lon="0.93594">
        <ele>236.196586</ele>
        <time>2023-01-03T10:39:30.805Z</time>
      </trkpt>
      <trkpt lat="43.68489" lon="0.93606">
        <ele>236.554992</ele>
        <time>2023-01-03T10:39:34.809Z</time>
      </trkpt>
      <trkpt lat="43.68493" lon="0.93619">
        <ele>236.9076</ele>
        <time>2023-01-03T10:39:38.812Z</time>
      </trkpt>
      <trkpt lat="43.68496" lon="0.93631">
        <ele>237.258229</ele>
        <time>2023-01-03T10:39:42.811Z</time>
      </trkpt>
      <trkpt lat="43.68501" lon="0.93643">
        <ele>237.615243</ele>
        <time>2023-01-03T10:39:46.820Z</time>
      </trkpt>
      <trkpt lat="43.68505" lon="0.93655">
        <ele>237.96785</ele>
        <time>2023-01-03T10:39:50.807Z</time>
      </trkpt>
      <trkpt lat="43.68509" lon="0.93667">
        <ele>238.306507</ele>
        <time>2023-01-03T10:39:54.806Z</time>
      </trkpt>
      <trkpt lat="43.68512" lon="0.9368">
        <ele>238.66742</ele>
        <time>2023-01-03T10:39:59.797Z</time>
      </trkpt>
      <trkpt lat="43.68516" lon="0.93694">
        <ele>239.061797</ele>
        <time>2023-01-03T10:40:04.803Z</time>
      </trkpt>
      <trkpt lat="43.6852" lon="0.93707">
        <ele>239.454963</ele>
        <time>2023-01-03T10:40:09.806Z</time>
      </trkpt>
      <trkpt lat="43.68525" lon="0.93721">
        <ele>239.852782</ele>
        <time>2023-01-03T10:40:14.789Z</time>
      </trkpt>
      <trkpt lat="43.68529" lon="0.93734">
        <ele>240.235236</ele>
        <time>2023-01-03T10:40:19.795Z</time>
      </trkpt>
      <trkpt lat="43.68534" lon="0.93747">
        <ele>240.614027</ele>
        <time>2023-01-03T10:40:24.814Z</time>
      </trkpt>
      <trkpt lat="43.68538" lon="0.93761">
        <ele>241.016176</ele>
        <time>2023-01-03T10:40:29.799Z</time>
      </trkpt>
      <trkpt lat="43.68543" lon="0.93774">
        <ele>241.405414</ele>
        <time>2023-01-03T10:40:34.808Z</time>
      </trkpt>
      <trkpt lat="43.68547" lon="0.93786">
        <ele>241.751432</ele>
        <time>2023-01-03T10:40:39.789Z</time>
      </trkpt>
      <trkpt lat="43.68553" lon="0.93797">
        <ele>242.121921</ele>
        <time>2023-01-03T10:40:44.799Z</time>
      </trkpt>
      <trkpt lat="43.6856" lon="0.93808">
        <ele>242.499091</ele>
        <time>2023-01-03T10:40:49.812Z</time>
      </trkpt>
      <trkpt lat="43.68566" lon="0.93817">
        <ele>242.846817</ele>
        <time>2023-01-03T10:40:54.810Z</time>
      </trkpt>
      <trkpt lat="43.68574" lon="0.93827">
        <ele>243.230205</ele>
        <time>2023-01-03T10:40:59.807Z</time>
      </trkpt>
      <trkpt lat="43.68581" lon="0.93836">
        <ele>243.589632</ele>
        <time>2023-01-03T10:41:04.807Z</time>
      </trkpt>
      <trkpt lat="43.68589" lon="0.93843">
        <ele>243.94627</ele>
        <time>2023-01-03T10:41:09.807Z</time>
      </trkpt>
      <trkpt lat="43.68598" lon="0.9385">
        <ele>244.309127</ele>
        <time>2023-01-03T10:41:14.813Z</time>
      </trkpt>
      <trkpt lat="43.68607" lon="0.93857">
        <ele>244.69987</ele>
        <time>2023-01-03T10:41:19.795Z</time>
      </trkpt>
      <trkpt lat="43.68616" lon="0.93864">
        <ele>245.065853</ele>
        <time>2023-01-03T10:41:24.798Z</time>
      </trkpt>
      <trkpt lat="43.68626" lon="0.93872">
        <ele>245.372515</ele>
        <time>2023-01-03T10:41:29.809Z</time>
      </trkpt>
      <trkpt lat="43.68635" lon="0.93878">
        <ele>245.191828</ele>
        <time>2023-01-03T10:41:33.799Z</time>
      </trkpt>
      <trkpt lat="43.68644" lon="0.93884">
        <ele>245.013442</ele>
        <time>2023-01-03T10:41:37.788Z</time>
      </trkpt>
      <trkpt lat="43.68655" lon="0.93892">
        <ele>244.801751</ele>
        <time>2023-01-03T10:41:41.796Z</time>
      </trkpt>
      <trkpt lat="43.68665" lon="0.93904">
        <ele>244.562899</ele>
        <time>2023-01-03T10:41:44.808Z</time>
      </trkpt>
      <trkpt lat="43.68673" lon="0.93913">
        <ele>244.389231</ele>
        <time>2023-01-03T10:41:46.797Z</time>
      </trkpt>
      <trkpt lat="43.68681" lon="0.93925">
        <ele>244.185722</ele>
        <time>2023-01-03T10:41:48.806Z</time>
      </trkpt>
      <trkpt lat="43.6869" lon="0.93939">
        <ele>243.944371</ele>
        <time>2023-01-03T10:41:50.795Z</time>
      </trkpt>
      <trkpt lat="43.68699" lon="0.93955">
        <ele>243.696742</ele>
        <time>2023-01-03T10:41:52.798Z</time>
      </trkpt>
      <trkpt lat="43.68708" lon="0.93971">
        <ele>243.43678</ele>
        <time>2023-01-03T10:41:54.807Z</time>
      </trkpt>
      <trkpt lat="43.68718" lon="0.93987">
        <ele>243.171981</ele>
        <time>2023-01-03T10:41:56.811Z</time>
      </trkpt>
      <trkpt lat="43.68728" lon="0.94004">
        <ele>242.89431</ele>
        <time>2023-01-03T10:41:58.813Z</time>
      </trkpt>
      <trkpt lat="43.68738" lon="0.94022">
        <ele>242.608987</ele>
        <time>2023-01-03T10:42:00.807Z</time>
      </trkpt>
      <trkpt lat="43.68747" lon="0.9404">
        <ele>242.334913</ele>
        <time>2023-01-03T10:42:02.807Z</time>
      </trkpt>
      <trkpt lat="43.68755" lon="0.94058">
        <ele>242.102012</ele>
        <time>2023-01-03T10:42:04.793Z</time>
      </trkpt>
      <trkpt lat="43.68762" lon="0.94075">
        <ele>241.896855</ele>
        <time>2023-01-03T10:42:06.791Z</time>
      </trkpt>
      <trkpt lat="43.68769" lon="0.94092">
        <ele>241.698805</ele>
        <time>2023-01-03T10:42:08.807Z</time>
      </trkpt>
      <trkpt lat="43.68775" lon="0.94107">
        <ele>241.518814</ele>
        <time>2023-01-03T10:42:10.794Z</time>
      </trkpt>
      <trkpt lat="43.68781" lon="0.94123">
        <ele>241.347374</ele>
        <time>2023-01-03T10:42:12.795Z</time>
      </trkpt>
      <trkpt lat="43.68786" lon="0.94136">
        <ele>241.193058</ele>
        <time>2023-01-03T10:42:14.807Z</time>
      </trkpt>
      <trkpt lat="43.6879" lon="0.94149">
        <ele>241.049907</ele>
        <time>2023-01-03T10:42:16.823Z</time>
      </trkpt>
      <trkpt lat="43.68794" lon="0.9416">
        <ele>240.914171</ele>
        <time>2023-01-03T10:42:18.796Z</time>
      </trkpt>
      <trkpt lat="43.68797" lon="0.94174">
        <ele>240.772434</ele>
        <time>2023-01-03T10:42:20.814Z</time>
      </trkpt>
      <trkpt lat="43.68801" lon="0.94187">
        <ele>240.630728</ele>
        <time>2023-01-03T10:42:22.795Z</time>
      </trkpt>
      <trkpt lat="43.68804" lon="0.942">
        <ele>240.484559</ele>
        <time>2023-01-03T10:42:24.814Z</time>
      </trkpt>
      <trkpt lat="43.68807" lon="0.94215">
        <ele>240.323658</ele>
        <time>2023-01-03T10:42:26.814Z</time>
      </trkpt>
      <trkpt lat="43.68809" lon="0.94231">
        <ele>240.161743</ele>
        <time>2023-01-03T10:42:28.815Z</time>
      </trkpt>
      <trkpt lat="43.68811" lon="0.94247">
        <ele>239.994525</ele>
        <time>2023-01-03T10:42:30.811Z</time>
      </trkpt>
      <trkpt lat="43.68814" lon="0.94262">
        <ele>239.836345</ele>
        <time>2023-01-03T10:42:32.813Z</time>
      </trkpt>
      <trkpt lat="43.68816" lon="0.94279">
        <ele>239.706568</ele>
        <time>2023-01-03T10:42:34.798Z</time>
      </trkpt>
      <trkpt lat="43.68818" lon="0.94297">
        <ele>239.666878</ele>
        <time>2023-01-03T10:42:36.799Z</time>
      </trkpt>
      <trkpt lat="43.6882" lon="0.94314">
        <ele>239.628141</ele>
        <time>2023-01-03T10:42:38.807Z</time>
      </trkpt>
      <trkpt lat="43.68822" lon="0.94331">
        <ele>239.589267</ele>
        <time>2023-01-03T10:42:40.790Z</time>
      </trkpt>
      <trkpt lat="43.68824" lon="0.94348">
        <ele>239.550784</ele>
        <time>2023-01-03T10:42:42.800Z</time>
      </trkpt>
      <trkpt lat="43.68825" lon="0.94365">
        <ele>239.513372</ele>
        <time>2023-01-03T10:42:44.795Z</time>
      </trkpt>
      <trkpt lat="43.68827" lon="0.9438">
        <ele>239.477772</ele>
        <time>2023-01-03T10:42:46.813Z</time>
      </trkpt>
      <trkpt lat="43.68828" lon="0.94395">
        <ele>239.444908</ele>
        <time>2023-01-03T10:42:48.795Z</time>
      </trkpt>
      <trkpt lat="43.6883" lon="0.9441">
        <ele>239.411639</ele>
        <time>2023-01-03T10:42:50.815Z</time>
      </trkpt>
      <trkpt lat="43.68832" lon="0.94423">
        <ele>239.380292</ele>
        <time>2023-01-03T10:42:52.797Z</time>
      </trkpt>
      <trkpt lat="43.68833" lon="0.94436">
        <ele>239.351307</ele>
        <time>2023-01-03T10:42:54.810Z</time>
      </trkpt>
      <trkpt lat="43.68834" lon="0.9445">
        <ele>239.321749</ele>
        <time>2023-01-03T10:42:56.786Z</time>
      </trkpt>
      <trkpt lat="43.68837" lon="0.94467">
        <ele>239.281009</ele>
        <time>2023-01-03T10:42:59.788Z</time>
      </trkpt>
      <trkpt lat="43.68839" lon="0.94485">
        <ele>239.241799</ele>
        <time>2023-01-03T10:43:02.809Z</time>
      </trkpt>
      <trkpt lat="43.68841" lon="0.94502">
        <ele>239.202532</ele>
        <time>2023-01-03T10:43:05.809Z</time>
      </trkpt>
      <trkpt lat="43.68843" lon="0.94519">
        <ele>239.166044</ele>
        <time>2023-01-03T10:43:08.814Z</time>
      </trkpt>
      <trkpt lat="43.68845" lon="0.94535">
        <ele>239.354447</ele>
        <time>2023-01-03T10:43:11.815Z</time>
      </trkpt>
      <trkpt lat="43.68847" lon="0.94549">
        <ele>239.528808</ele>
        <time>2023-01-03T10:43:14.813Z</time>
      </trkpt>
      <trkpt lat="43.68848" lon="0.94564">
        <ele>239.698811</ele>
        <time>2023-01-03T10:43:17.799Z</time>
      </trkpt>
      <trkpt lat="43.6885" lon="0.94578">
        <ele>239.868325</ele>
        <time>2023-01-03T10:43:20.797Z</time>
      </trkpt>
      <trkpt lat="43.68851" lon="0.94593">
        <ele>240.037602</ele>
        <time>2023-01-03T10:43:23.810Z</time>
      </trkpt>
      <trkpt lat="43.68852" lon="0.94606">
        <ele>240.1916</ele>
        <time>2023-01-03T10:43:26.816Z</time>
      </trkpt>
      <trkpt lat="43.68854" lon="0.94621">
        <ele>240.364812</ele>
        <time>2023-01-03T10:43:30.815Z</time>
      </trkpt>
      <trkpt lat="43.68856" lon="0.94636">
        <ele>240.546637</ele>
        <time>2023-01-03T10:43:34.815Z</time>
      </trkpt>
      <trkpt lat="43.68858" lon="0.94652">
        <ele>240.741297</ele>
        <time>2023-01-03T10:43:38.805Z</time>
      </trkpt>
      <trkpt lat="43.6886" lon="0.94665">
        <ele>240.886172</ele>
        <time>2023-01-03T10:43:41.810Z</time>
      </trkpt>
      <trkpt lat="43.68861" lon="0.94677">
        <ele>241.034042</ele>
        <time>2023-01-03T10:43:44.812Z</time>
      </trkpt>
      <trkpt lat="43.68863" lon="0.94692">
        <ele>241.206104</ele>
        <time>2023-01-03T10:43:48.808Z</time>
      </trkpt>
      <trkpt lat="43.68864" lon="0.94707">
        <ele>241.379316</ele>
        <time>2023-01-03T10:43:52.807Z</time>
      </trkpt>
      <trkpt lat="43.68866" lon="0.9472">
        <ele>241.537339</ele>
        <time>2023-01-03T10:43:56.824Z</time>
      </trkpt>
      <trkpt lat="43.68867" lon="0.94733">
        <ele>241.691659</ele>
        <time>2023-01-03T10:44:00.796Z</time>
      </trkpt>
      <trkpt lat="43.68869" lon="0.94747">
        <ele>241.855742</ele>
        <time>2023-01-03T10:44:05.791Z</time>
      </trkpt>
      <trkpt lat="43.68871" lon="0.94762">
        <ele>242.03383</ele>
        <time>2023-01-03T10:44:10.812Z</time>
      </trkpt>
      <trkpt lat="43.68872" lon="0.94777">
        <ele>242.508814</ele>
        <time>2023-01-03T10:44:15.809Z</time>
      </trkpt>
      <trkpt lat="43.68875" lon="0.94792">
        <ele>243.037877</ele>
        <time>2023-01-03T10:44:20.813Z</time>
      </trkpt>
      <trkpt lat="43.68877" lon="0.94807">
        <ele>243.575325</ele>
        <time>2023-01-03T10:44:25.787Z</time>
      </trkpt>
      <trkpt lat="43.68878" lon="0.94822">
        <ele>244.114933</ele>
        <time>2023-01-03T10:44:30.794Z</time>
      </trkpt>
      <trkpt lat="43.68879" lon="0.94837">
        <ele>244.655975</ele>
        <time>2023-01-03T10:44:35.815Z</time>
      </trkpt>
      <trkpt lat="43.68882" lon="0.94851">
        <ele>245.169062</ele>
        <time>2023-01-03T10:44:40.819Z</time>
      </trkpt>
      <trkpt lat="43.68885" lon="0.94864">
        <ele>245.655788</ele>
        <time>2023-01-03T10:44:45.813Z</time>
      </trkpt>
      <trkpt lat="43.68889" lon="0.94876">
        <ele>246.121794</ele>
        <time>2023-01-03T10:44:50.815Z</time>
      </trkpt>
      <trkpt lat="43.68894" lon="0.94888">
        <ele>246.621234</ele>
        <time>2023-01-03T10:44:55.799Z</time>
      </trkpt>
      <trkpt lat="43.68902" lon="0.94898">
        <ele>247.112679</ele>
        <time>2023-01-03T10:45:00.789Z</time>
      </trkpt>
      <trkpt lat="43.68911" lon="0.94906">
        <ele>247.630981</ele>
        <time>2023-01-03T10:45:05.807Z</time>
      </trkpt>
      <trkpt lat="43.6892" lon="0.94914">
        <ele>248.161533</ele>
        <time>2023-01-03T10:45:10.798Z</time>
      </trkpt>
      <trkpt lat="43.68929" lon="0.9492">
        <ele>248.671063</ele>
        <time>2023-01-03T10:45:15.799Z</time>
      </trkpt>
      <trkpt lat="43.68939" lon="0.94925">
        <ele>249.160717</ele>
        <time>2023-01-03T10:45:20.790Z</time>
      </trkpt>
      <trkpt lat="43.68947" lon="0.94932">
        <ele>249.628969</ele>
        <time>2023-01-03T10:45:25.809Z</time>
      </trkpt>
      <trkpt lat="43.68957" lon="0.94937">
        <ele>250.153387</ele>
        <time>2023-01-03T10:45:30.790Z</time>
      </trkpt>
      <trkpt lat="43.68965" lon="0.94943">
        <ele>250.595216</ele>
        <time>2023-01-03T10:45:34.794Z</time>
      </trkpt>
      <trkpt lat="43.68975" lon="0.94949">
        <ele>250.971785</ele>
        <time>2023-01-03T10:45:39.811Z</time>
      </trkpt>
      <trkpt lat="43.68985" lon="0.94954">
        <ele>251.266303</ele>
        <time>2023-01-03T10:45:44.789Z</time>
      </trkpt>
      <trkpt lat="43.68995" lon="0.9496">
        <ele>251.552651</ele>
        <time>2023-01-03T10:45:49.803Z</time>
      </trkpt>
      <trkpt lat="43.69005" lon="0.94966">
        <ele>251.850884</ele>
        <time>2023-01-03T10:45:54.810Z</time>
      </trkpt>
      <trkpt lat="43.69015" lon="0.94972">
        <ele>252.143658</ele>
        <time>2023-01-03T10:45:59.788Z</time>
      </trkpt>
      <trkpt lat="43.69025" lon="0.94978">
        <ele>252.436256</ele>
        <time>2023-01-03T10:46:04.812Z</time>
      </trkpt>
      <trkpt lat="43.69035" lon="0.94985">
        <ele>252.724763</ele>
        <time>2023-01-03T10:46:09.807Z</time>
      </trkpt>
      <trkpt lat="43.69044" lon="0.9499">
        <ele>252.989861</ele>
        <time>2023-01-03T10:46:13.813Z</time>
      </trkpt>
      <trkpt lat="43.69053" lon="0.94996">
        <ele>253.267098</ele>
        <time>2023-01-03T10:46:17.788Z</time>
      </trkpt>
      <trkpt lat="43.69064" lon="0.95003">
        <ele>253.579967</ele>
        <time>2023-01-03T10:46:21.810Z</time>
      </trkpt>
      <trkpt lat="43.69072" lon="0.95008">
        <ele>253.824798</ele>
        <time>2023-01-03T10:46:24.793Z</time>
      </trkpt>
      <trkpt lat="43.69081" lon="0.95014">
        <ele>254.070359</ele>
        <time>2023-01-03T10:46:27.810Z</time>
      </trkpt>
      <trkpt lat="43.6909" lon="0.95019">
        <ele>254.333221</ele>
        <time>2023-01-03T10:46:30.799Z</time>
      </trkpt>
      <trkpt lat="43.69098" lon="0.95025">
        <ele>254.594194</ele>
        <time>2023-01-03T10:46:33.809Z</time>
      </trkpt>
      <trkpt lat="43.69107" lon="0.9503">
        <ele>254.854379</ele>
        <time>2023-01-03T10:46:36.796Z</time>
      </trkpt>
      <trkpt lat="43.69117" lon="0.95036">
        <ele>255.130092</ele>
        <time>2023-01-03T10:46:39.794Z</time>
      </trkpt>
      <trkpt lat="43.69126" lon="0.95042">
        <ele>255.40323</ele>
        <time>2023-01-03T10:46:42.795Z</time>
      </trkpt>
      <trkpt lat="43.69135" lon="0.95048">
        <ele>255.614658</ele>
        <time>2023-01-03T10:46:45.814Z</time>
      </trkpt>
      <trkpt lat="43.69145" lon="0.95053">
        <ele>255.567477</ele>
        <time>2023-01-03T10:46:48.805Z</time>
      </trkpt>
      <trkpt lat="43.69154" lon="0.95059">
        <ele>255.521019</ele>
        <time>2023-01-03T10:46:51.791Z</time>
      </trkpt>
      <trkpt lat="43.69164" lon="0.95064">
        <ele>255.474089</ele>
        <time>2023-01-03T10:46:54.800Z</time>
      </trkpt>
      <trkpt lat="43.69174" lon="0.9507">
        <ele>255.425088</ele>
        <time>2023-01-03T10:46:57.805Z</time>
      </trkpt>
      <trkpt lat="43.69183" lon="0.95076">
        <ele>255.376408</ele>
        <time>2023-01-03T10:47:00.814Z</time>
      </trkpt>
      <trkpt lat="43.69193" lon="0.95082">
        <ele>255.327592</ele>
        <time>2023-01-03T10:47:03.811Z</time>
      </trkpt>
      <trkpt lat="43.69203" lon="0.95088">
        <ele>255.278638</ele>
        <time>2023-01-03T10:47:06.789Z</time>
      </trkpt>
      <trkpt lat="43.69212" lon="0.95094">
        <ele>255.230186</ele>
        <time>2023-01-03T10:47:09.807Z</time>
      </trkpt>
      <trkpt lat="43.69222" lon="0.951">
        <ele>255.181772</ele>
        <time>2023-01-03T10:47:12.810Z</time>
      </trkpt>
      <trkpt lat="43.69232" lon="0.95104">
        <ele>255.133894</ele>
        <time>2023-01-03T10:47:15.809Z</time>
      </trkpt>
      <trkpt lat="43.69242" lon="0.95107">
        <ele>255.088499</ele>
        <time>2023-01-03T10:47:18.790Z</time>
      </trkpt>
      <trkpt lat="43.69252" lon="0.95107">
        <ele>255.040813</ele>
        <time>2023-01-03T10:47:22.808Z</time>
      </trkpt>
      <trkpt lat="43.69254" lon="0.95106">
        <ele>255.029576</ele>
        <time>2023-01-03T10:47:34.884Z</time>
      </trkpt>
      <trkpt lat="43.69254" lon="0.95126">
        <ele>254.960638</ele>
        <time>2023-01-03T10:50:39.838Z</time>
      </trkpt>
      <trkpt lat="43.69247" lon="0.95137">
        <ele>254.915601</ele>
        <time>2023-01-03T10:50:41.790Z</time>
      </trkpt>
      <trkpt lat="43.6924" lon="0.95147">
        <ele>254.866629</ele>
        <time>2023-01-03T10:50:43.788Z</time>
      </trkpt>
      <trkpt lat="43.69233" lon="0.9516">
        <ele>254.812105</ele>
        <time>2023-01-03T10:50:45.810Z</time>
      </trkpt>
      <trkpt lat="43.69225" lon="0.95174">
        <ele>254.474971</ele>
        <time>2023-01-03T10:50:47.791Z</time>
      </trkpt>
      <trkpt lat="43.69219" lon="0.95189">
        <ele>254.048096</ele>
        <time>2023-01-03T10:50:49.790Z</time>
      </trkpt>
      <trkpt lat="43.69213" lon="0.95204">
        <ele>253.649814</ele>
        <time>2023-01-03T10:50:51.794Z</time>
      </trkpt>
      <trkpt lat="43.69209" lon="0.95216">
        <ele>253.329449</ele>
        <time>2023-01-03T10:50:53.790Z</time>
      </trkpt>
      <trkpt lat="43.69205" lon="0.95228">
        <ele>252.994554</ele>
        <time>2023-01-03T10:50:56.814Z</time>
      </trkpt>
      <trkpt lat="43.69202" lon="0.95242">
        <ele>252.641636</ele>
        <time>2023-01-03T10:51:08.792Z</time>
      </trkpt>
      <trkpt lat="43.69197" lon="0.95257">
        <ele>252.245525</ele>
        <time>2023-01-03T10:51:12.795Z</time>
      </trkpt>
      <trkpt lat="43.69193" lon="0.95272">
        <ele>251.869868</ele>
        <time>2023-01-03T10:51:15.806Z</time>
      </trkpt>
      <trkpt lat="43.69189" lon="0.95288">
        <ele>251.459171</ele>
        <time>2023-01-03T10:51:18.810Z</time>
      </trkpt>
      <trkpt lat="43.69186" lon="0.953">
        <ele>251.146174</ele>
        <time>2023-01-03T10:51:20.800Z</time>
      </trkpt>
      <trkpt lat="43.69183" lon="0.95313">
        <ele>250.818006</ele>
        <time>2023-01-03T10:51:22.799Z</time>
      </trkpt>
      <trkpt lat="43.6918" lon="0.95327">
        <ele>250.457246</ele>
        <time>2023-01-03T10:51:24.815Z</time>
      </trkpt>
      <trkpt lat="43.69177" lon="0.95342">
        <ele>250.093059</ele>
        <time>2023-01-03T10:51:26.819Z</time>
      </trkpt>
      <trkpt lat="43.69173" lon="0.95356">
        <ele>249.724122</ele>
        <time>2023-01-03T10:51:28.795Z</time>
      </trkpt>
      <trkpt lat="43.69169" lon="0.9537">
        <ele>249.353173</ele>
        <time>2023-01-03T10:51:30.810Z</time>
      </trkpt>
      <trkpt lat="43.69165" lon="0.95385">
        <ele>248.970551</ele>
        <time>2023-01-03T10:51:32.810Z</time>
      </trkpt>
      <trkpt lat="43.69162" lon="0.954">
        <ele>248.650274</ele>
        <time>2023-01-03T10:51:34.820Z</time>
      </trkpt>
      <trkpt lat="43.69159" lon="0.95414">
        <ele>248.389108</ele>
        <time>2023-01-03T10:51:36.815Z</time>
      </trkpt>
      <trkpt lat="43.69155" lon="0.95428">
        <ele>248.112919</ele>
        <time>2023-01-03T10:51:38.815Z</time>
      </trkpt>
      <trkpt lat="43.69152" lon="0.95443">
        <ele>247.843604</ele>
        <time>2023-01-03T10:51:40.811Z</time>
      </trkpt>
      <trkpt lat="43.69148" lon="0.95457">
        <ele>247.562459</ele>
        <time>2023-01-03T10:51:42.819Z</time>
      </trkpt>
      <trkpt lat="43.69145" lon="0.95473">
        <ele>247.283456</ele>
        <time>2023-01-03T10:51:44.811Z</time>
      </trkpt>
      <trkpt lat="43.69142" lon="0.95488">
        <ele>246.999866</ele>
        <time>2023-01-03T10:51:46.814Z</time>
      </trkpt>
      <trkpt lat="43.6914" lon="0.95504">
        <ele>246.712692</ele>
        <time>2023-01-03T10:51:48.812Z</time>
      </trkpt>
      <trkpt lat="43.69136" lon="0.95519">
        <ele>246.432468</ele>
        <time>2023-01-03T10:51:50.809Z</time>
      </trkpt>
      <trkpt lat="43.69133" lon="0.95534">
        <ele>246.154974</ele>
        <time>2023-01-03T10:51:52.806Z</time>
      </trkpt>
      <trkpt lat="43.6913" lon="0.95549">
        <ele>245.881139</ele>
        <time>2023-01-03T10:51:54.810Z</time>
      </trkpt>
      <trkpt lat="43.69127" lon="0.95564">
        <ele>245.606025</ele>
        <time>2023-01-03T10:51:56.818Z</time>
      </trkpt>
      <trkpt lat="43.69125" lon="0.95578">
        <ele>245.336842</ele>
        <time>2023-01-03T10:51:58.808Z</time>
      </trkpt>
      <trkpt lat="43.69121" lon="0.95594">
        <ele>245.05234</ele>
        <time>2023-01-03T10:52:00.813Z</time>
      </trkpt>
      <trkpt lat="43.69117" lon="0.95608">
        <ele>244.771671</ele>
        <time>2023-01-03T10:52:02.813Z</time>
      </trkpt>
      <trkpt lat="43.69113" lon="0.95622">
        <ele>244.502336</ele>
        <time>2023-01-03T10:52:04.794Z</time>
      </trkpt>
      <trkpt lat="43.69109" lon="0.95637">
        <ele>244.245097</ele>
        <time>2023-01-03T10:52:06.812Z</time>
      </trkpt>
      <trkpt lat="43.69106" lon="0.95652">
        <ele>244.018573</ele>
        <time>2023-01-03T10:52:08.810Z</time>
      </trkpt>
      <trkpt lat="43.69102" lon="0.95667">
        <ele>243.785348</ele>
        <time>2023-01-03T10:52:10.811Z</time>
      </trkpt>
      <trkpt lat="43.69098" lon="0.95682">
        <ele>243.5576</ele>
        <time>2023-01-03T10:52:12.804Z</time>
      </trkpt>
      <trkpt lat="43.69095" lon="0.95697">
        <ele>243.333072</ele>
        <time>2023-01-03T10:52:14.813Z</time>
      </trkpt>
      <trkpt lat="43.69091" lon="0.95711">
        <ele>243.114268</ele>
        <time>2023-01-03T10:52:16.815Z</time>
      </trkpt>
      <trkpt lat="43.69087" lon="0.95724">
        <ele>242.904912</ele>
        <time>2023-01-03T10:52:18.799Z</time>
      </trkpt>
      <trkpt lat="43.69084" lon="0.95738">
        <ele>242.68883</ele>
        <time>2023-01-03T10:52:20.813Z</time>
      </trkpt>
      <trkpt lat="43.6908" lon="0.95752">
        <ele>242.475412</ele>
        <time>2023-01-03T10:52:22.814Z</time>
      </trkpt>
      <trkpt lat="43.69077" lon="0.95765">
        <ele>242.266604</ele>
        <time>2023-01-03T10:52:24.804Z</time>
      </trkpt>
      <trkpt lat="43.69073" lon="0.95779">
        <ele>242.054541</ele>
        <time>2023-01-03T10:52:26.814Z</time>
      </trkpt>
      <trkpt lat="43.69069" lon="0.95792">
        <ele>241.84899</ele>
        <time>2023-01-03T10:52:28.815Z</time>
      </trkpt>
      <trkpt lat="43.69065" lon="0.95805">
        <ele>241.646551</ele>
        <time>2023-01-03T10:52:30.819Z</time>
      </trkpt>
      <trkpt lat="43.69061" lon="0.95816">
        <ele>241.456789</ele>
        <time>2023-01-03T10:52:32.809Z</time>
      </trkpt>
      <trkpt lat="43.69057" lon="0.95829">
        <ele>241.258808</ele>
        <time>2023-01-03T10:52:35.822Z</time>
      </trkpt>
      <trkpt lat="43.69055" lon="0.95841">
        <ele>241.069621</ele>
        <time>2023-01-03T10:52:40.788Z</time>
      </trkpt>
      <trkpt lat="43.69052" lon="0.95853">
        <ele>240.886884</ele>
        <time>2023-01-03T10:52:43.800Z</time>
      </trkpt>
      <trkpt lat="43.69049" lon="0.95869">
        <ele>240.587218</ele>
        <time>2023-01-03T10:52:46.790Z</time>
      </trkpt>
      <trkpt lat="43.69048" lon="0.95887">
        <ele>240.131993</ele>
        <time>2023-01-03T10:52:49.788Z</time>
      </trkpt>
      <trkpt lat="43.69047" lon="0.959">
        <ele>239.803611</ele>
        <time>2023-01-03T10:52:51.791Z</time>
      </trkpt>
      <trkpt lat="43.69046" lon="0.95914">
        <ele>239.459872</ele>
        <time>2023-01-03T10:52:53.807Z</time>
      </trkpt>
      <trkpt lat="43.69045" lon="0.95927">
        <ele>239.1275</ele>
        <time>2023-01-03T10:52:55.792Z</time>
      </trkpt>
      <trkpt lat="43.69045" lon="0.95942">
        <ele>238.749921</ele>
        <time>2023-01-03T10:52:57.798Z</time>
      </trkpt>
      <trkpt lat="43.69045" lon="0.95958">
        <ele>238.347357</ele>
        <time>2023-01-03T10:52:59.793Z</time>
      </trkpt>
      <trkpt lat="43.69045" lon="0.95974">
        <ele>237.947411</ele>
        <time>2023-01-03T10:53:01.809Z</time>
      </trkpt>
      <trkpt lat="43.69046" lon="0.95988">
        <ele>237.586475</ele>
        <time>2023-01-03T10:53:03.799Z</time>
      </trkpt>
      <trkpt lat="43.69047" lon="0.96003">
        <ele>237.200983</ele>
        <time>2023-01-03T10:53:05.809Z</time>
      </trkpt>
      <trkpt lat="43.69047" lon="0.96018">
        <ele>236.838742</ele>
        <time>2023-01-03T10:53:07.797Z</time>
      </trkpt>
      <trkpt lat="43.69047" lon="0.96034">
        <ele>236.443824</ele>
        <time>2023-01-03T10:53:09.814Z</time>
      </trkpt>
      <trkpt lat="43.69047" lon="0.9605">
        <ele>236.026355</ele>
        <time>2023-01-03T10:53:11.805Z</time>
      </trkpt>
      <trkpt lat="43.69047" lon="0.96065">
        <ele>235.644148</ele>
        <time>2023-01-03T10:53:13.822Z</time>
      </trkpt>
      <trkpt lat="43.69048" lon="0.96084">
        <ele>235.1687</ele>
        <time>2023-01-03T10:53:16.799Z</time>
      </trkpt>
      <trkpt lat="43.69048" lon="0.96102">
        <ele>234.725652</ele>
        <time>2023-01-03T10:53:19.811Z</time>
      </trkpt>
      <trkpt lat="43.6905" lon="0.96121">
        <ele>234.312276</ele>
        <time>2023-01-03T10:53:22.811Z</time>
      </trkpt>
      <trkpt lat="43.6905" lon="0.96134">
        <ele>234.083475</ele>
        <time>2023-01-03T10:53:24.816Z</time>
      </trkpt>
      <trkpt lat="43.6905" lon="0.96147">
        <ele>233.854674</ele>
        <time>2023-01-03T10:53:26.809Z</time>
      </trkpt>
      <trkpt lat="43.69049" lon="0.96162">
        <ele>233.602996</ele>
        <time>2023-01-03T10:53:28.813Z</time>
      </trkpt>
      <trkpt lat="43.69049" lon="0.96177">
        <ele>233.337137</ele>
        <time>2023-01-03T10:53:30.812Z</time>
      </trkpt>
      <trkpt lat="43.69048" lon="0.96192">
        <ele>233.069752</ele>
        <time>2023-01-03T10:53:32.813Z</time>
      </trkpt>
      <trkpt lat="43.69047" lon="0.96207">
        <ele>232.80271</ele>
        <time>2023-01-03T10:53:34.790Z</time>
      </trkpt>
      <trkpt lat="43.69045" lon="0.96222">
        <ele>232.547865</ele>
        <time>2023-01-03T10:53:36.792Z</time>
      </trkpt>
      <trkpt lat="43.69042" lon="0.96235">
        <ele>232.294929</ele>
        <time>2023-01-03T10:53:38.800Z</time>
      </trkpt>
      <trkpt lat="43.69037" lon="0.96249">
        <ele>232.034234</ele>
        <time>2023-01-03T10:53:40.795Z</time>
      </trkpt>
      <trkpt lat="43.69032" lon="0.96261">
        <ele>231.783513</ele>
        <time>2023-01-03T10:53:42.798Z</time>
      </trkpt>
      <trkpt lat="43.69026" lon="0.96275">
        <ele>231.512257</ele>
        <time>2023-01-03T10:53:44.807Z</time>
      </trkpt>
      <trkpt lat="43.69021" lon="0.96288">
        <ele>231.242028</ele>
        <time>2023-01-03T10:53:46.798Z</time>
      </trkpt>
      <trkpt lat="43.69015" lon="0.96302">
        <ele>230.957514</ele>
        <time>2023-01-03T10:53:48.799Z</time>
      </trkpt>
      <trkpt lat="43.6901" lon="0.96317">
        <ele>230.671183</ele>
        <time>2023-01-03T10:53:50.805Z</time>
      </trkpt>
      <trkpt lat="43.69005" lon="0.96331">
        <ele>230.394063</ele>
        <time>2023-01-03T10:53:52.795Z</time>
      </trkpt>
      <trkpt lat="43.68999" lon="0.96345">
        <ele>230.118973</ele>
        <time>2023-01-03T10:53:54.813Z</time>
      </trkpt>
      <trkpt lat="43.68994" lon="0.96359">
        <ele>229.687318</ele>
        <time>2023-01-03T10:53:56.816Z</time>
      </trkpt>
      <trkpt lat="43.68988" lon="0.96374">
        <ele>229.243099</ele>
        <time>2023-01-03T10:53:58.813Z</time>
      </trkpt>
      <trkpt lat="43.68981" lon="0.96389">
        <ele>228.783313</ele>
        <time>2023-01-03T10:54:00.815Z</time>
      </trkpt>
      <trkpt lat="43.68974" lon="0.96404">
        <ele>228.318536</ele>
        <time>2023-01-03T10:54:02.812Z</time>
      </trkpt>
      <trkpt lat="43.68968" lon="0.96418">
        <ele>227.856229</ele>
        <time>2023-01-03T10:54:04.813Z</time>
      </trkpt>
      <trkpt lat="43.68961" lon="0.96434">
        <ele>227.375302</ele>
        <time>2023-01-03T10:54:06.813Z</time>
      </trkpt>
      <trkpt lat="43.68954" lon="0.96448">
        <ele>226.932322</ele>
        <time>2023-01-03T10:54:08.809Z</time>
      </trkpt>
      <trkpt lat="43.68948" lon="0.96463">
        <ele>226.462377</ele>
        <time>2023-01-03T10:54:10.809Z</time>
      </trkpt>
      <trkpt lat="43.68941" lon="0.96479">
        <ele>225.976884</ele>
        <time>2023-01-03T10:54:12.808Z</time>
      </trkpt>
      <trkpt lat="43.68935" lon="0.96496">
        <ele>225.471221</ele>
        <time>2023-01-03T10:54:14.797Z</time>
      </trkpt>
      <trkpt lat="43.68928" lon="0.96512">
        <ele>224.972936</ele>
        <time>2023-01-03T10:54:16.813Z</time>
      </trkpt>
      <trkpt lat="43.6892" lon="0.9653">
        <ele>224.428873</ele>
        <time>2023-01-03T10:54:18.793Z</time>
      </trkpt>
      <trkpt lat="43.68909" lon="0.96543">
        <ele>223.888013</ele>
        <time>2023-01-03T10:54:20.795Z</time>
      </trkpt>
      <trkpt lat="43.68896" lon="0.96552">
        <ele>223.460543</ele>
        <time>2023-01-03T10:54:22.797Z</time>
      </trkpt>
      <trkpt lat="43.68883" lon="0.96555">
        <ele>223.26041</ele>
        <time>2023-01-03T10:54:24.791Z</time>
      </trkpt>
      <trkpt lat="43.68873" lon="0.96555">
        <ele>223.103258</ele>
        <time>2023-01-03T10:54:26.807Z</time>
      </trkpt>
      <trkpt lat="43.68862" lon="0.96555">
        <ele>222.935151</ele>
        <time>2023-01-03T10:54:29.798Z</time>
      </trkpt>
      <trkpt lat="43.68853" lon="0.96554">
        <ele>222.786796</ele>
        <time>2023-01-03T10:54:33.809Z</time>
      </trkpt>
      <trkpt lat="43.68843" lon="0.96552">
        <ele>222.63824</ele>
        <time>2023-01-03T10:54:37.792Z</time>
      </trkpt>
      <trkpt lat="43.68834" lon="0.96552">
        <ele>222.497932</ele>
        <time>2023-01-03T10:54:41.794Z</time>
      </trkpt>
      <trkpt lat="43.68825" lon="0.9655">
        <ele>222.349766</ele>
        <time>2023-01-03T10:54:45.801Z</time>
      </trkpt>
      <trkpt lat="43.68814" lon="0.96548">
        <ele>222.180832</ele>
        <time>2023-01-03T10:54:50.793Z</time>
      </trkpt>
      <trkpt lat="43.68805" lon="0.96551">
        <ele>222.035364</ele>
        <time>2023-01-03T10:54:55.793Z</time>
      </trkpt>
      <trkpt lat="43.68798" lon="0.96562">
        <ele>221.878757</ele>
        <time>2023-01-03T10:55:00.805Z</time>
      </trkpt>
      <trkpt lat="43.68794" lon="0.96575">
        <ele>221.716396</ele>
        <time>2023-01-03T10:55:05.796Z</time>
      </trkpt>
      <trkpt lat="43.68793" lon="0.9659">
        <ele>221.550111</ele>
        <time>2023-01-03T10:55:09.795Z</time>
      </trkpt>
      <trkpt lat="43.68793" lon="0.96603">
        <ele>221.410767</ele>
        <time>2023-01-03T10:55:12.808Z</time>
      </trkpt>
      <trkpt lat="43.68792" lon="0.96616">
        <ele>221.261685</ele>
        <time>2023-01-03T10:55:15.810Z</time>
      </trkpt>
      <trkpt lat="43.68791" lon="0.96631">
        <ele>221.097716</ele>
        <time>2023-01-03T10:55:18.812Z</time>
      </trkpt>
      <trkpt lat="43.68791" lon="0.96647">
        <ele>220.916981</ele>
        <time>2023-01-03T10:55:21.814Z</time>
      </trkpt>
      <trkpt lat="43.6879" lon="0.96664">
        <ele>220.659786</ele>
        <time>2023-01-03T10:55:24.799Z</time>
      </trkpt>
      <trkpt lat="43.68789" lon="0.96681">
        <ele>220.149423</ele>
        <time>2023-01-03T10:55:27.821Z</time>
      </trkpt>
      <trkpt lat="43.68788" lon="0.967">
        <ele>219.610399</ele>
        <time>2023-01-03T10:55:30.803Z</time>
      </trkpt>
      <trkpt lat="43.68788" lon="0.96712">
        <ele>219.235909</ele>
        <time>2023-01-03T10:55:32.813Z</time>
      </trkpt>
      <trkpt lat="43.68787" lon="0.96731">
        <ele>218.681769</ele>
        <time>2023-01-03T10:55:35.812Z</time>
      </trkpt>
      <trkpt lat="43.68786" lon="0.96744">
        <ele>218.304343</ele>
        <time>2023-01-03T10:55:37.798Z</time>
      </trkpt>
      <trkpt lat="43.68786" lon="0.96757">
        <ele>217.92422</ele>
        <time>2023-01-03T10:55:39.805Z</time>
      </trkpt>
      <trkpt lat="43.68786" lon="0.9677">
        <ele>217.532533</ele>
        <time>2023-01-03T10:55:41.815Z</time>
      </trkpt>
      <trkpt lat="43.68785" lon="0.96783">
        <ele>217.143936</ele>
        <time>2023-01-03T10:55:43.813Z</time>
      </trkpt>
      <trkpt lat="43.68785" lon="0.96796">
        <ele>216.769689</ele>
        <time>2023-01-03T10:55:45.812Z</time>
      </trkpt>
      <trkpt lat="43.68784" lon="0.96809">
        <ele>216.398581</ele>
        <time>2023-01-03T10:55:47.819Z</time>
      </trkpt>
      <trkpt lat="43.68784" lon="0.96821">
        <ele>216.03021</ele>
        <time>2023-01-03T10:55:49.797Z</time>
      </trkpt>
      <trkpt lat="43.68782" lon="0.96839">
        <ele>215.497511</ele>
        <time>2023-01-03T10:55:52.809Z</time>
      </trkpt>
      <trkpt lat="43.68781" lon="0.96852">
        <ele>215.11135</ele>
        <time>2023-01-03T10:55:54.811Z</time>
      </trkpt>
      <trkpt lat="43.6878" lon="0.96865">
        <ele>214.719886</ele>
        <time>2023-01-03T10:55:56.813Z</time>
      </trkpt>
      <trkpt lat="43.68779" lon="0.96878">
        <ele>214.333886</ele>
        <time>2023-01-03T10:55:58.794Z</time>
      </trkpt>
      <trkpt lat="43.68778" lon="0.96892">
        <ele>213.94291</ele>
        <time>2023-01-03T10:56:00.812Z</time>
      </trkpt>
      <trkpt lat="43.68777" lon="0.96904">
        <ele>213.575875</ele>
        <time>2023-01-03T10:56:02.797Z</time>
      </trkpt>
      <trkpt lat="43.68775" lon="0.96917">
        <ele>213.030887</ele>
        <time>2023-01-03T10:56:04.795Z</time>
      </trkpt>
      <trkpt lat="43.68772" lon="0.96929">
        <ele>212.408719</ele>
        <time>2023-01-03T10:56:06.793Z</time>
      </trkpt>
      <trkpt lat="43.6877" lon="0.96942">
        <ele>211.785904</ele>
        <time>2023-01-03T10:56:08.803Z</time>
      </trkpt>
      <trkpt lat="43.68767" lon="0.96955">
        <ele>211.132528</ele>
        <time>2023-01-03T10:56:10.796Z</time>
      </trkpt>
      <trkpt lat="43.68764" lon="0.96968">
        <ele>210.490817</ele>
        <time>2023-01-03T10:56:12.808Z</time>
      </trkpt>
      <trkpt lat="43.68761" lon="0.96985">
        <ele>209.645029</ele>
        <time>2023-01-03T10:56:15.809Z</time>
      </trkpt>
      <trkpt lat="43.68758" lon="0.97002">
        <ele>208.829004</ele>
        <time>2023-01-03T10:56:18.812Z</time>
      </trkpt>
      <trkpt lat="43.68753" lon="0.97015">
        <ele>208.131576</ele>
        <time>2023-01-03T10:56:21.798Z</time>
      </trkpt>
      <trkpt lat="43.68743" lon="0.97023">
        <ele>207.389137</ele>
        <time>2023-01-03T10:56:24.807Z</time>
      </trkpt>
      <trkpt lat="43.68732" lon="0.97024">
        <ele>206.629187</ele>
        <time>2023-01-03T10:56:27.798Z</time>
      </trkpt>
      <trkpt lat="43.68721" lon="0.97023">
        <ele>205.921886</ele>
        <time>2023-01-03T10:56:31.790Z</time>
      </trkpt>
      <trkpt lat="43.68711" lon="0.97027">
        <ele>205.231215</ele>
        <time>2023-01-03T10:56:35.818Z</time>
      </trkpt>
      <trkpt lat="43.68703" lon="0.97032">
        <ele>204.628053</ele>
        <time>2023-01-03T10:56:38.795Z</time>
      </trkpt>
      <trkpt lat="43.68697" lon="0.97042">
        <ele>204.003452</ele>
        <time>2023-01-03T10:56:40.801Z</time>
      </trkpt>
      <trkpt lat="43.68692" lon="0.97056">
        <ele>203.255829</ele>
        <time>2023-01-03T10:56:42.794Z</time>
      </trkpt>
      <trkpt lat="43.68688" lon="0.97072">
        <ele>202.470759</ele>
        <time>2023-01-03T10:56:44.798Z</time>
      </trkpt>
      <trkpt lat="43.68684" lon="0.97088">
        <ele>201.680707</ele>
        <time>2023-01-03T10:56:46.796Z</time>
      </trkpt>
      <trkpt lat="43.68681" lon="0.97104">
        <ele>201.766481</ele>
        <time>2023-01-03T10:56:48.814Z</time>
      </trkpt>
      <trkpt lat="43.68677" lon="0.97121">
        <ele>201.994116</ele>
        <time>2023-01-03T10:56:50.813Z</time>
      </trkpt>
      <trkpt lat="43.68674" lon="0.97139">
        <ele>202.21893</ele>
        <time>2023-01-03T10:56:52.813Z</time>
      </trkpt>
      <trkpt lat="43.68669" lon="0.97156">
        <ele>202.449968</ele>
        <time>2023-01-03T10:56:54.811Z</time>
      </trkpt>
      <trkpt lat="43.68666" lon="0.97174">
        <ele>202.675221</ele>
        <time>2023-01-03T10:56:56.815Z</time>
      </trkpt>
      <trkpt lat="43.68665" lon="0.97191">
        <ele>202.893905</ele>
        <time>2023-01-03T10:56:58.812Z</time>
      </trkpt>
      <trkpt lat="43.68667" lon="0.97207">
        <ele>203.093602</ele>
        <time>2023-01-03T10:57:00.794Z</time>
      </trkpt>
      <trkpt lat="43.68671" lon="0.97221">
        <ele>203.282916</ele>
        <time>2023-01-03T10:57:02.800Z</time>
      </trkpt>
      <trkpt lat="43.68677" lon="0.97234">
        <ele>203.467822</ele>
        <time>2023-01-03T10:57:04.794Z</time>
      </trkpt>
      <trkpt lat="43.68681" lon="0.97245">
        <ele>203.624217</ele>
        <time>2023-01-03T10:57:06.812Z</time>
      </trkpt>
      <trkpt lat="43.68687" lon="0.97258">
        <ele>203.814777</ele>
        <time>2023-01-03T10:57:09.797Z</time>
      </trkpt>
      <trkpt lat="43.6869" lon="0.97271">
        <ele>203.983119</ele>
        <time>2023-01-03T10:57:12.813Z</time>
      </trkpt>
      <trkpt lat="43.68694" lon="0.97282">
        <ele>204.139182</ele>
        <time>2023-01-03T10:57:15.814Z</time>
      </trkpt>
      <trkpt lat="43.68694" lon="0.97299">
        <ele>204.342393</ele>
        <time>2023-01-03T10:57:19.798Z</time>
      </trkpt>
      <trkpt lat="43.68694" lon="0.97312">
        <ele>204.504029</ele>
        <time>2023-01-03T10:57:23.798Z</time>
      </trkpt>
      <trkpt lat="43.68691" lon="0.97326">
        <ele>204.750761</ele>
        <time>2023-01-03T10:57:28.810Z</time>
      </trkpt>
      <trkpt lat="43.68687" lon="0.9734">
        <ele>205.621107</ele>
        <time>2023-01-03T10:57:33.800Z</time>
      </trkpt>
      <trkpt lat="43.68683" lon="0.97352">
        <ele>206.354009</ele>
        <time>2023-01-03T10:57:38.801Z</time>
      </trkpt>
      <trkpt lat="43.68677" lon="0.97362">
        <ele>207.104202</ele>
        <time>2023-01-03T10:57:43.790Z</time>
      </trkpt>
      <trkpt lat="43.68672" lon="0.97372">
        <ele>207.859698</ele>
        <time>2023-01-03T10:57:48.793Z</time>
      </trkpt>
      <trkpt lat="43.68665" lon="0.97382">
        <ele>208.649463</ele>
        <time>2023-01-03T10:57:54.793Z</time>
      </trkpt>
      <trkpt lat="43.68658" lon="0.97392">
        <ele>209.482238</ele>
        <time>2023-01-03T10:58:00.803Z</time>
      </trkpt>
      <trkpt lat="43.68651" lon="0.97403">
        <ele>210.297517</ele>
        <time>2023-01-03T10:58:06.800Z</time>
      </trkpt>
      <trkpt lat="43.68644" lon="0.97412">
        <ele>211.060173</ele>
        <time>2023-01-03T10:58:12.798Z</time>
      </trkpt>
      <trkpt lat="43.68637" lon="0.97422">
        <ele>211.836919</ele>
        <time>2023-01-03T10:58:18.794Z</time>
      </trkpt>
      <trkpt lat="43.6863" lon="0.97431">
        <ele>212.597905</ele>
        <time>2023-01-03T10:58:24.795Z</time>
      </trkpt>
      <trkpt lat="43.68622" lon="0.97439">
        <ele>213.437343</ele>
        <time>2023-01-03T10:58:31.803Z</time>
      </trkpt>
      <trkpt lat="43.68616" lon="0.97451">
        <ele>214.252887</ele>
        <time>2023-01-03T10:58:37.796Z</time>
      </trkpt>
      <trkpt lat="43.6861" lon="0.97461">
        <ele>215.015664</ele>
        <time>2023-01-03T10:58:43.798Z</time>
      </trkpt>
      <trkpt lat="43.68602" lon="0.97469">
        <ele>215.785121</ele>
        <time>2023-01-03T10:58:49.796Z</time>
      </trkpt>
      <trkpt lat="43.68596" lon="0.9748">
        <ele>216.58982</ele>
        <time>2023-01-03T10:58:56.791Z</time>
      </trkpt>
      <trkpt lat="43.68587" lon="0.97489">
        <ele>217.426378</ele>
        <time>2023-01-03T10:59:03.794Z</time>
      </trkpt>
      <trkpt lat="43.68582" lon="0.975">
        <ele>218.213828</ele>
        <time>2023-01-03T10:59:10.795Z</time>
      </trkpt>
      <trkpt lat="43.68574" lon="0.97507">
        <ele>218.96431</ele>
        <time>2023-01-03T10:59:18.794Z</time>
      </trkpt>
      <trkpt lat="43.68566" lon="0.97515">
        <ele>219.587975</ele>
        <time>2023-01-03T10:59:32.794Z</time>
      </trkpt>
      <trkpt lat="43.68561" lon="0.97526">
        <ele>220.178373</ele>
        <time>2023-01-03T10:59:44.789Z</time>
      </trkpt>
      <trkpt lat="43.68555" lon="0.97536">
        <ele>220.780206</ele>
        <time>2023-01-03T10:59:58.798Z</time>
      </trkpt>
      <trkpt lat="43.6855" lon="0.97547">
        <ele>221.36871</ele>
        <time>2023-01-03T11:00:08.798Z</time>
      </trkpt>
      <trkpt lat="43.68545" lon="0.97558">
        <ele>221.967638</ele>
        <time>2023-01-03T11:00:18.795Z</time>
      </trkpt>
      <trkpt lat="43.68541" lon="0.97569">
        <ele>222.533421</ele>
        <time>2023-01-03T11:00:27.795Z</time>
      </trkpt>
      <trkpt lat="43.68534" lon="0.97588">
        <ele>223.49562</ele>
        <time>2023-01-03T11:00:56.791Z</time>
      </trkpt>
      <trkpt lat="43.68529" lon="0.97599">
        <ele>224.069182</ele>
        <time>2023-01-03T11:01:00.796Z</time>
      </trkpt>
      <trkpt lat="43.68523" lon="0.9761">
        <ele>224.692526</ele>
        <time>2023-01-03T11:01:04.799Z</time>
      </trkpt>
      <trkpt lat="43.68519" lon="0.97622">
        <ele>225.28703</ele>
        <time>2023-01-03T11:01:08.814Z</time>
      </trkpt>
      <trkpt lat="43.68515" lon="0.97635">
        <ele>225.948383</ele>
        <time>2023-01-03T11:01:12.810Z</time>
      </trkpt>
      <trkpt lat="43.68509" lon="0.97648">
        <ele>226.644389</ele>
        <time>2023-01-03T11:01:16.814Z</time>
      </trkpt>
      <trkpt lat="43.68504" lon="0.97662">
        <ele>227.359424</ele>
        <time>2023-01-03T11:01:20.814Z</time>
      </trkpt>
      <trkpt lat="43.68499" lon="0.97676">
        <ele>228.072739</ele>
        <time>2023-01-03T11:01:24.803Z</time>
      </trkpt>
      <trkpt lat="43.68493" lon="0.9769">
        <ele>228.788835</ele>
        <time>2023-01-03T11:01:28.805Z</time>
      </trkpt>
      <trkpt lat="43.68488" lon="0.97703">
        <ele>229.490847</ele>
        <time>2023-01-03T11:01:32.815Z</time>
      </trkpt>
      <trkpt lat="43.68483" lon="0.97716">
        <ele>230.11692</ele>
        <time>2023-01-03T11:01:36.793Z</time>
      </trkpt>
      <trkpt lat="43.68479" lon="0.97728">
        <ele>230.45996</ele>
        <time>2023-01-03T11:01:40.808Z</time>
      </trkpt>
      <trkpt lat="43.68474" lon="0.9774">
        <ele>230.601748</ele>
        <time>2023-01-03T11:01:44.802Z</time>
      </trkpt>
      <trkpt lat="43.68468" lon="0.97752">
        <ele>230.748803</ele>
        <time>2023-01-03T11:01:48.812Z</time>
      </trkpt>
      <trkpt lat="43.68462" lon="0.97763">
        <ele>230.891767</ele>
        <time>2023-01-03T11:01:52.815Z</time>
      </trkpt>
      <trkpt lat="43.68455" lon="0.97774">
        <ele>231.039656</ele>
        <time>2023-01-03T11:01:56.810Z</time>
      </trkpt>
      <trkpt lat="43.68449" lon="0.97785">
        <ele>231.176899</ele>
        <time>2023-01-03T11:02:00.799Z</time>
      </trkpt>
      <trkpt lat="43.68442" lon="0.97795">
        <ele>231.313348</ele>
        <time>2023-01-03T11:02:04.799Z</time>
      </trkpt>
      <trkpt lat="43.68434" lon="0.97805">
        <ele>231.471536</ele>
        <time>2023-01-03T11:02:08.816Z</time>
      </trkpt>
      <trkpt lat="43.68427" lon="0.97814">
        <ele>231.602389</ele>
        <time>2023-01-03T11:02:11.813Z</time>
      </trkpt>
      <trkpt lat="43.68419" lon="0.97824">
        <ele>231.750713</ele>
        <time>2023-01-03T11:02:14.794Z</time>
      </trkpt>
      <trkpt lat="43.68411" lon="0.97836">
        <ele>231.915804</ele>
        <time>2023-01-03T11:02:17.814Z</time>
      </trkpt>
      <trkpt lat="43.68402" lon="0.9785">
        <ele>232.103566</ele>
        <time>2023-01-03T11:02:20.815Z</time>
      </trkpt>
      <trkpt lat="43.68396" lon="0.97861">
        <ele>232.23517</ele>
        <time>2023-01-03T11:02:22.804Z</time>
      </trkpt>
      <trkpt lat="43.68391" lon="0.97872">
        <ele>232.373324</ele>
        <time>2023-01-03T11:02:24.809Z</time>
      </trkpt>
      <trkpt lat="43.68385" lon="0.97883">
        <ele>232.50324</ele>
        <time>2023-01-03T11:02:26.813Z</time>
      </trkpt>
      <trkpt lat="43.6838" lon="0.97893">
        <ele>232.632517</ele>
        <time>2023-01-03T11:02:28.801Z</time>
      </trkpt>
      <trkpt lat="43.68374" lon="0.97907">
        <ele>232.798546</ele>
        <time>2023-01-03T11:02:31.817Z</time>
      </trkpt>
      <trkpt lat="43.68369" lon="0.97919">
        <ele>232.910981</ele>
        <time>2023-01-03T11:02:34.815Z</time>
      </trkpt>
      <trkpt lat="43.68364" lon="0.97931">
        <ele>232.97274</ele>
        <time>2023-01-03T11:02:37.805Z</time>
      </trkpt>
      <trkpt lat="43.68358" lon="0.97944">
        <ele>233.041317</ele>
        <time>2023-01-03T11:02:40.805Z</time>
      </trkpt>
      <trkpt lat="43.68352" lon="0.97958">
        <ele>233.111399</ele>
        <time>2023-01-03T11:02:43.809Z</time>
      </trkpt>
      <trkpt lat="43.68345" lon="0.97971">
        <ele>233.184195</ele>
        <time>2023-01-03T11:02:46.808Z</time>
      </trkpt>
      <trkpt lat="43.68337" lon="0.97984">
        <ele>233.261032</ele>
        <time>2023-01-03T11:02:49.817Z</time>
      </trkpt>
      <trkpt lat="43.68329" lon="0.97998">
        <ele>233.338948</ele>
        <time>2023-01-03T11:02:52.803Z</time>
      </trkpt>
      <trkpt lat="43.68321" lon="0.98011">
        <ele>233.41559</ele>
        <time>2023-01-03T11:02:55.801Z</time>
      </trkpt>
      <trkpt lat="43.68313" lon="0.98023">
        <ele>233.489218</ele>
        <time>2023-01-03T11:02:58.816Z</time>
      </trkpt>
      <trkpt lat="43.68304" lon="0.98033">
        <ele>233.561337</ele>
        <time>2023-01-03T11:03:01.793Z</time>
      </trkpt>
      <trkpt lat="43.68295" lon="0.98043">
        <ele>233.632132</ele>
        <time>2023-01-03T11:03:04.812Z</time>
      </trkpt>
      <trkpt lat="43.68286" lon="0.98052">
        <ele>233.696633</ele>
        <time>2023-01-03T11:03:07.817Z</time>
      </trkpt>
      <trkpt lat="43.68278" lon="0.98062">
        <ele>233.763455</ele>
        <time>2023-01-03T11:03:10.799Z</time>
      </trkpt>
      <trkpt lat="43.6827" lon="0.98072">
        <ele>233.832488</ele>
        <time>2023-01-03T11:03:13.812Z</time>
      </trkpt>
      <trkpt lat="43.68263" lon="0.98081">
        <ele>233.891495</ele>
        <time>2023-01-03T11:03:16.816Z</time>
      </trkpt>
      <trkpt lat="43.68256" lon="0.98092">
        <ele>233.955417</ele>
        <time>2023-01-03T11:03:20.819Z</time>
      </trkpt>
      <trkpt lat="43.68248" lon="0.98103">
        <ele>234.061885</ele>
        <time>2023-01-03T11:03:24.803Z</time>
      </trkpt>
      <trkpt lat="43.68241" lon="0.98113">
        <ele>234.183626</ele>
        <time>2023-01-03T11:03:27.806Z</time>
      </trkpt>
      <trkpt lat="43.68235" lon="0.98124">
        <ele>234.316185</ele>
        <time>2023-01-03T11:03:30.807Z</time>
      </trkpt>
      <trkpt lat="43.68229" lon="0.98137">
        <ele>234.466528</ele>
        <time>2023-01-03T11:03:33.803Z</time>
      </trkpt>
      <trkpt lat="43.68224" lon="0.98152">
        <ele>234.61356</ele>
        <time>2023-01-03T11:03:36.800Z</time>
      </trkpt>
      <trkpt lat="43.6822" lon="0.98165">
        <ele>234.751282</ele>
        <time>2023-01-03T11:03:39.793Z</time>
      </trkpt>
      <trkpt lat="43.68216" lon="0.9818">
        <ele>234.899263</ele>
        <time>2023-01-03T11:03:42.799Z</time>
      </trkpt>
      <trkpt lat="43.68213" lon="0.98195">
        <ele>235.050156</ele>
        <time>2023-01-03T11:03:45.794Z</time>
      </trkpt>
      <trkpt lat="43.6821" lon="0.98209">
        <ele>235.184117</ele>
        <time>2023-01-03T11:03:48.810Z</time>
      </trkpt>
      <trkpt lat="43.68206" lon="0.98224">
        <ele>235.331795</ele>
        <time>2023-01-03T11:03:51.809Z</time>
      </trkpt>
      <trkpt lat="43.68203" lon="0.9824">
        <ele>235.486167</ele>
        <time>2023-01-03T11:03:54.819Z</time>
      </trkpt>
      <trkpt lat="43.682" lon="0.98255">
        <ele>235.638333</ele>
        <time>2023-01-03T11:03:57.818Z</time>
      </trkpt>
      <trkpt lat="43.68197" lon="0.9827">
        <ele>235.783551</ele>
        <time>2023-01-03T11:04:00.813Z</time>
      </trkpt>
      <trkpt lat="43.68194" lon="0.98284">
        <ele>235.917522</ele>
        <time>2023-01-03T11:04:03.813Z</time>
      </trkpt>
      <trkpt lat="43.68192" lon="0.98297">
        <ele>236.042988</ele>
        <time>2023-01-03T11:04:06.820Z</time>
      </trkpt>
      <trkpt lat="43.68189" lon="0.98309">
        <ele>236.161573</ele>
        <time>2023-01-03T11:04:09.813Z</time>
      </trkpt>
      <trkpt lat="43.68186" lon="0.98321">
        <ele>236.28483</ele>
        <time>2023-01-03T11:04:12.814Z</time>
      </trkpt>
      <trkpt lat="43.68184" lon="0.98334">
        <ele>236.437373</ele>
        <time>2023-01-03T11:04:15.820Z</time>
      </trkpt>
      <trkpt lat="43.68181" lon="0.98347">
        <ele>236.60773</ele>
        <time>2023-01-03T11:04:18.810Z</time>
      </trkpt>
      <trkpt lat="43.68178" lon="0.9836">
        <ele>236.779286</ele>
        <time>2023-01-03T11:04:21.822Z</time>
      </trkpt>
      <trkpt lat="43.68175" lon="0.98373">
        <ele>236.946745</ele>
        <time>2023-01-03T11:04:24.819Z</time>
      </trkpt>
      <trkpt lat="43.68172" lon="0.98386">
        <ele>237.115821</ele>
        <time>2023-01-03T11:04:27.796Z</time>
      </trkpt>
      <trkpt lat="43.68168" lon="0.98399">
        <ele>237.289616</ele>
        <time>2023-01-03T11:04:30.814Z</time>
      </trkpt>
      <trkpt lat="43.68166" lon="0.98412">
        <ele>237.459513</ele>
        <time>2023-01-03T11:04:33.806Z</time>
      </trkpt>
      <trkpt lat="43.68163" lon="0.98425">
        <ele>237.628147</ele>
        <time>2023-01-03T11:04:36.809Z</time>
      </trkpt>
      <trkpt lat="43.6816" lon="0.98437">
        <ele>237.78955</ele>
        <time>2023-01-03T11:04:39.797Z</time>
      </trkpt>
      <trkpt lat="43.68158" lon="0.98452">
        <ele>237.990127</ele>
        <time>2023-01-03T11:04:43.795Z</time>
      </trkpt>
      <trkpt lat="43.68156" lon="0.98464">
        <ele>238.146413</ele>
        <time>2023-01-03T11:04:46.802Z</time>
      </trkpt>
      <trkpt lat="43.68153" lon="0.9848">
        <ele>238.350928</ele>
        <time>2023-01-03T11:04:50.810Z</time>
      </trkpt>
      <trkpt lat="43.68151" lon="0.98493">
        <ele>238.510652</ele>
        <time>2023-01-03T11:04:53.819Z</time>
      </trkpt>
      <trkpt lat="43.68149" lon="0.98505">
        <ele>238.670245</ele>
        <time>2023-01-03T11:04:56.807Z</time>
      </trkpt>
      <trkpt lat="43.68149" lon="0.98518">
        <ele>238.827405</ele>
        <time>2023-01-03T11:04:59.813Z</time>
      </trkpt>
      <trkpt lat="43.6815" lon="0.98531">
        <ele>238.993584</ele>
        <time>2023-01-03T11:05:02.816Z</time>
      </trkpt>
      <trkpt lat="43.6815" lon="0.98544">
        <ele>239.164705</ele>
        <time>2023-01-03T11:05:05.817Z</time>
      </trkpt>
      <trkpt lat="43.68151" lon="0.98558">
        <ele>239.331238</ele>
        <time>2023-01-03T11:05:08.814Z</time>
      </trkpt>
      <trkpt lat="43.68152" lon="0.9857">
        <ele>239.513098</ele>
        <time>2023-01-03T11:05:11.813Z</time>
      </trkpt>
      <trkpt lat="43.68154" lon="0.98583">
        <ele>239.77231</ele>
        <time>2023-01-03T11:05:14.814Z</time>
      </trkpt>
      <trkpt lat="43.68154" lon="0.98597">
        <ele>240.057469</ele>
        <time>2023-01-03T11:05:17.816Z</time>
      </trkpt>
      <trkpt lat="43.68152" lon="0.98612">
        <ele>240.356465</ele>
        <time>2023-01-03T11:05:20.796Z</time>
      </trkpt>
      <trkpt lat="43.68149" lon="0.98624">
        <ele>240.608396</ele>
        <time>2023-01-03T11:05:23.795Z</time>
      </trkpt>
      <trkpt lat="43.68145" lon="0.98635">
        <ele>240.854395</ele>
        <time>2023-01-03T11:05:26.795Z</time>
      </trkpt>
      <trkpt lat="43.6814" lon="0.98646">
        <ele>241.111773</ele>
        <time>2023-01-03T11:05:29.821Z</time>
      </trkpt>
      <trkpt lat="43.68135" lon="0.98657">
        <ele>241.37658</ele>
        <time>2023-01-03T11:05:32.796Z</time>
      </trkpt>
      <trkpt lat="43.6813" lon="0.98669">
        <ele>241.641048</ele>
        <time>2023-01-03T11:05:35.812Z</time>
      </trkpt>
      <trkpt lat="43.68125" lon="0.98681">
        <ele>241.914854</ele>
        <time>2023-01-03T11:05:38.816Z</time>
      </trkpt>
      <trkpt lat="43.6812" lon="0.98691">
        <ele>242.163598</ele>
        <time>2023-01-03T11:05:41.815Z</time>
      </trkpt>
      <trkpt lat="43.68115" lon="0.98705">
        <ele>242.480111</ele>
        <time>2023-01-03T11:05:45.813Z</time>
      </trkpt>
      <trkpt lat="43.6811" lon="0.98716">
        <ele>242.728749</ele>
        <time>2023-01-03T11:05:48.817Z</time>
      </trkpt>
      <trkpt lat="43.68106" lon="0.98728">
        <ele>242.995496</ele>
        <time>2023-01-03T11:05:51.801Z</time>
      </trkpt>
      <trkpt lat="43.68102" lon="0.9874">
        <ele>243.245847</ele>
        <time>2023-01-03T11:05:54.814Z</time>
      </trkpt>
      <trkpt lat="43.68098" lon="0.98751">
        <ele>243.499306</ele>
        <time>2023-01-03T11:05:57.817Z</time>
      </trkpt>
      <trkpt lat="43.68093" lon="0.98762">
        <ele>243.759325</ele>
        <time>2023-01-03T11:06:00.815Z</time>
      </trkpt>
      <trkpt lat="43.68089" lon="0.98774">
        <ele>244.020226</ele>
        <time>2023-01-03T11:06:03.811Z</time>
      </trkpt>
      <trkpt lat="43.68084" lon="0.98786">
        <ele>244.296562</ele>
        <time>2023-01-03T11:06:06.822Z</time>
      </trkpt>
      <trkpt lat="43.6808" lon="0.98799">
        <ele>244.509066</ele>
        <time>2023-01-03T11:06:09.820Z</time>
      </trkpt>
      <trkpt lat="43.68075" lon="0.98812">
        <ele>244.665615</ele>
        <time>2023-01-03T11:06:12.812Z</time>
      </trkpt>
      <trkpt lat="43.68071" lon="0.98824">
        <ele>244.810617</ele>
        <time>2023-01-03T11:06:15.812Z</time>
      </trkpt>
      <trkpt lat="43.68068" lon="0.98836">
        <ele>244.95472</ele>
        <time>2023-01-03T11:06:18.815Z</time>
      </trkpt>
      <trkpt lat="43.68064" lon="0.98851">
        <ele>245.136122</ele>
        <time>2023-01-03T11:06:22.813Z</time>
      </trkpt>
      <trkpt lat="43.6806" lon="0.98867">
        <ele>245.312338</ele>
        <time>2023-01-03T11:06:26.796Z</time>
      </trkpt>
      <trkpt lat="43.68056" lon="0.98882">
        <ele>245.494027</ele>
        <time>2023-01-03T11:06:30.815Z</time>
      </trkpt>
      <trkpt lat="43.68052" lon="0.98896">
        <ele>245.66108</ele>
        <time>2023-01-03T11:06:34.814Z</time>
      </trkpt>
      <trkpt lat="43.68049" lon="0.9891">
        <ele>245.820701</ele>
        <time>2023-01-03T11:06:38.819Z</time>
      </trkpt>
      <trkpt lat="43.68045" lon="0.98924">
        <ele>245.984562</ele>
        <time>2023-01-03T11:06:42.814Z</time>
      </trkpt>
      <trkpt lat="43.68039" lon="0.98938">
        <ele>246.159009</ele>
        <time>2023-01-03T11:06:46.814Z</time>
      </trkpt>
      <trkpt lat="43.68035" lon="0.98952">
        <ele>246.333524</ele>
        <time>2023-01-03T11:06:50.812Z</time>
      </trkpt>
      <trkpt lat="43.68031" lon="0.98964">
        <ele>246.474094</ele>
        <time>2023-01-03T11:06:53.808Z</time>
      </trkpt>
      <trkpt lat="43.68027" lon="0.98976">
        <ele>246.623369</ele>
        <time>2023-01-03T11:06:56.818Z</time>
      </trkpt>
      <trkpt lat="43.68023" lon="0.9899">
        <ele>246.78043</ele>
        <time>2023-01-03T11:06:59.810Z</time>
      </trkpt>
      <trkpt lat="43.6802" lon="0.99002">
        <ele>246.928165</ele>
        <time>2023-01-03T11:07:02.809Z</time>
      </trkpt>
      <trkpt lat="43.68016" lon="0.99015">
        <ele>247.08305</ele>
        <time>2023-01-03T11:07:05.801Z</time>
      </trkpt>
      <trkpt lat="43.68011" lon="0.99028">
        <ele>247.270875</ele>
        <time>2023-01-03T11:07:08.826Z</time>
      </trkpt>
      <trkpt lat="43.68007" lon="0.99041">
        <ele>247.480515</ele>
        <time>2023-01-03T11:07:11.819Z</time>
      </trkpt>
      <trkpt lat="43.68004" lon="0.99055">
        <ele>247.688071</ele>
        <time>2023-01-03T11:07:14.814Z</time>
      </trkpt>
      <trkpt lat="43.68" lon="0.99067">
        <ele>247.88262</ele>
        <time>2023-01-03T11:07:17.812Z</time>
      </trkpt>
      <trkpt lat="43.67997" lon="0.9908">
        <ele>248.075115</ele>
        <time>2023-01-03T11:07:20.817Z</time>
      </trkpt>
      <trkpt lat="43.67993" lon="0.99093">
        <ele>248.293396</ele>
        <time>2023-01-03T11:07:24.817Z</time>
      </trkpt>
      <trkpt lat="43.67988" lon="0.99107">
        <ele>248.518527</ele>
        <time>2023-01-03T11:07:28.818Z</time>
      </trkpt>
      <trkpt lat="43.67983" lon="0.99122">
        <ele>248.758605</ele>
        <time>2023-01-03T11:07:32.809Z</time>
      </trkpt>
      <trkpt lat="43.6798" lon="0.99135">
        <ele>248.955165</ele>
        <time>2023-01-03T11:07:35.816Z</time>
      </trkpt>
      <trkpt lat="43.67976" lon="0.99147">
        <ele>249.157397</ele>
        <time>2023-01-03T11:07:38.813Z</time>
      </trkpt>
      <trkpt lat="43.67972" lon="0.9916">
        <ele>249.364538</ele>
        <time>2023-01-03T11:07:41.813Z</time>
      </trkpt>
      <trkpt lat="43.67967" lon="0.99173">
        <ele>249.56862</ele>
        <time>2023-01-03T11:07:44.819Z</time>
      </trkpt>
      <trkpt lat="43.67963" lon="0.99185">
        <ele>249.770496</ele>
        <time>2023-01-03T11:07:47.813Z</time>
      </trkpt>
      <trkpt lat="43.67958" lon="0.99198">
        <ele>249.979404</ele>
        <time>2023-01-03T11:07:50.811Z</time>
      </trkpt>
      <trkpt lat="43.67953" lon="0.99211">
        <ele>250.188501</ele>
        <time>2023-01-03T11:07:53.811Z</time>
      </trkpt>
      <trkpt lat="43.67949" lon="0.99224">
        <ele>250.404104</ele>
        <time>2023-01-03T11:07:56.809Z</time>
      </trkpt>
      <trkpt lat="43.67944" lon="0.99238">
        <ele>250.634722</ele>
        <time>2023-01-03T11:07:59.814Z</time>
      </trkpt>
      <trkpt lat="43.67939" lon="0.99252">
        <ele>250.753529</ele>
        <time>2023-01-03T11:08:02.815Z</time>
      </trkpt>
      <trkpt lat="43.67934" lon="0.99265">
        <ele>250.642157</ele>
        <time>2023-01-03T11:08:05.810Z</time>
      </trkpt>
      <trkpt lat="43.67929" lon="0.99278">
        <ele>250.535425</ele>
        <time>2023-01-03T11:08:08.813Z</time>
      </trkpt>
      <trkpt lat="43.67924" lon="0.99291">
        <ele>250.433523</ele>
        <time>2023-01-03T11:08:11.813Z</time>
      </trkpt>
      <trkpt lat="43.67919" lon="0.99302">
        <ele>250.332482</ele>
        <time>2023-01-03T11:08:14.816Z</time>
      </trkpt>
      <trkpt lat="43.67914" lon="0.99314">
        <ele>250.234122</ele>
        <time>2023-01-03T11:08:17.811Z</time>
      </trkpt>
      <trkpt lat="43.6791" lon="0.99326">
        <ele>250.138395</ele>
        <time>2023-01-03T11:08:20.795Z</time>
      </trkpt>
      <trkpt lat="43.67905" lon="0.9934">
        <ele>250.022048</ele>
        <time>2023-01-03T11:08:24.817Z</time>
      </trkpt>
      <trkpt lat="43.679" lon="0.99351">
        <ele>249.927865</ele>
        <time>2023-01-03T11:08:27.813Z</time>
      </trkpt>
      <trkpt lat="43.67896" lon="0.99362">
        <ele>249.832897</ele>
        <time>2023-01-03T11:08:30.814Z</time>
      </trkpt>
      <trkpt lat="43.6789" lon="0.99376">
        <ele>249.716699</ele>
        <time>2023-01-03T11:08:34.813Z</time>
      </trkpt>
      <trkpt lat="43.67885" lon="0.99391">
        <ele>249.599659</ele>
        <time>2023-01-03T11:08:38.806Z</time>
      </trkpt>
      <trkpt lat="43.6788" lon="0.99404">
        <ele>249.490535</ele>
        <time>2023-01-03T11:08:42.818Z</time>
      </trkpt>
      <trkpt lat="43.67874" lon="0.99414">
        <ele>249.398308</ele>
        <time>2023-01-03T11:08:45.799Z</time>
      </trkpt>
      <trkpt lat="43.67866" lon="0.99419">
        <ele>249.301179</ele>
        <time>2023-01-03T11:08:49.801Z</time>
      </trkpt>
      <trkpt lat="43.67856" lon="0.99423">
        <ele>249.200361</ele>
        <time>2023-01-03T11:08:53.802Z</time>
      </trkpt>
      <trkpt lat="43.67847" lon="0.99429">
        <ele>249.102093</ele>
        <time>2023-01-03T11:08:56.811Z</time>
      </trkpt>
      <trkpt lat="43.67838" lon="0.99436">
        <ele>248.99411</ele>
        <time>2023-01-03T11:08:59.799Z</time>
      </trkpt>
      <trkpt lat="43.67829" lon="0.99445">
        <ele>249.043647</ele>
        <time>2023-01-03T11:09:02.810Z</time>
      </trkpt>
      <trkpt lat="43.6782" lon="0.99454">
        <ele>249.140419</ele>
        <time>2023-01-03T11:09:05.815Z</time>
      </trkpt>
      <trkpt lat="43.67811" lon="0.99465">
        <ele>249.239204</ele>
        <time>2023-01-03T11:09:08.814Z</time>
      </trkpt>
      <trkpt lat="43.67803" lon="0.99475">
        <ele>249.336014</ele>
        <time>2023-01-03T11:09:11.811Z</time>
      </trkpt>
      <trkpt lat="43.67795" lon="0.99486">
        <ele>249.433393</ele>
        <time>2023-01-03T11:09:14.796Z</time>
      </trkpt>
      <trkpt lat="43.67788" lon="0.99499">
        <ele>249.533982</ele>
        <time>2023-01-03T11:09:17.800Z</time>
      </trkpt>
      <trkpt lat="43.6778" lon="0.99511">
        <ele>249.632785</ele>
        <time>2023-01-03T11:09:20.815Z</time>
      </trkpt>
      <trkpt lat="43.67773" lon="0.99524">
        <ele>249.735549</ele>
        <time>2023-01-03T11:09:23.818Z</time>
      </trkpt>
      <trkpt lat="43.67764" lon="0.99537">
        <ele>249.841763</ele>
        <time>2023-01-03T11:09:26.818Z</time>
      </trkpt>
      <trkpt lat="43.67756" lon="0.9955">
        <ele>249.952124</ele>
        <time>2023-01-03T11:09:29.812Z</time>
      </trkpt>
      <trkpt lat="43.67747" lon="0.99564">
        <ele>250.069106</ele>
        <time>2023-01-03T11:09:32.813Z</time>
      </trkpt>
      <trkpt lat="43.6774" lon="0.99574">
        <ele>250.153875</ele>
        <time>2023-01-03T11:09:34.794Z</time>
      </trkpt>
      <trkpt lat="43.67732" lon="0.99583">
        <ele>250.240513</ele>
        <time>2023-01-03T11:09:36.800Z</time>
      </trkpt>
      <trkpt lat="43.67725" lon="0.99593">
        <ele>250.329253</ele>
        <time>2023-01-03T11:09:38.808Z</time>
      </trkpt>
      <trkpt lat="43.67717" lon="0.99603">
        <ele>250.421174</ele>
        <time>2023-01-03T11:09:40.810Z</time>
      </trkpt>
      <trkpt lat="43.6771" lon="0.99612">
        <ele>250.503185</ele>
        <time>2023-01-03T11:09:42.810Z</time>
      </trkpt>
      <trkpt lat="43.677" lon="0.99623">
        <ele>250.595185</ele>
        <time>2023-01-03T11:09:45.813Z</time>
      </trkpt>
      <trkpt lat="43.67692" lon="0.99632">
        <ele>250.673533</ele>
        <time>2023-01-03T11:09:48.821Z</time>
      </trkpt>
      <trkpt lat="43.67684" lon="0.99641">
        <ele>250.748866</ele>
        <time>2023-01-03T11:09:51.809Z</time>
      </trkpt>
      <trkpt lat="43.67676" lon="0.99651">
        <ele>250.826335</ele>
        <time>2023-01-03T11:09:54.815Z</time>
      </trkpt>
      <trkpt lat="43.67668" lon="0.9966">
        <ele>250.903552</ele>
        <time>2023-01-03T11:09:57.812Z</time>
      </trkpt>
      <trkpt lat="43.67659" lon="0.9967">
        <ele>250.983794</ele>
        <time>2023-01-03T11:10:00.812Z</time>
      </trkpt>
      <trkpt lat="43.67651" lon="0.9968">
        <ele>251.061068</ele>
        <time>2023-01-03T11:10:03.810Z</time>
      </trkpt>
      <trkpt lat="43.67644" lon="0.99689">
        <ele>251.134818</ele>
        <time>2023-01-03T11:10:06.813Z</time>
      </trkpt>
      <trkpt lat="43.67636" lon="0.99696">
        <ele>251.202193</ele>
        <time>2023-01-03T11:10:09.804Z</time>
      </trkpt>
      <trkpt lat="43.67628" lon="0.99705">
        <ele>251.276286</ele>
        <time>2023-01-03T11:10:12.799Z</time>
      </trkpt>
      <trkpt lat="43.67621" lon="0.99715">
        <ele>251.352308</ele>
        <time>2023-01-03T11:10:15.812Z</time>
      </trkpt>
      <trkpt lat="43.67613" lon="0.99725">
        <ele>251.430878</ele>
        <time>2023-01-03T11:10:18.811Z</time>
      </trkpt>
      <trkpt lat="43.67604" lon="0.99736">
        <ele>251.512078</ele>
        <time>2023-01-03T11:10:21.812Z</time>
      </trkpt>
      <trkpt lat="43.67595" lon="0.99745">
        <ele>251.595736</ele>
        <time>2023-01-03T11:10:24.817Z</time>
      </trkpt>
      <trkpt lat="43.67587" lon="0.99755">
        <ele>251.676586</ele>
        <time>2023-01-03T11:10:27.807Z</time>
      </trkpt>
      <trkpt lat="43.67579" lon="0.99766">
        <ele>251.759223</ele>
        <time>2023-01-03T11:10:30.815Z</time>
      </trkpt>
      <trkpt lat="43.6757" lon="0.99776">
        <ele>251.812125</ele>
        <time>2023-01-03T11:10:33.810Z</time>
      </trkpt>
      <trkpt lat="43.67562" lon="0.99785">
        <ele>251.767255</ele>
        <time>2023-01-03T11:10:36.808Z</time>
      </trkpt>
      <trkpt lat="43.67555" lon="0.99795">
        <ele>251.723327</ele>
        <time>2023-01-03T11:10:39.823Z</time>
      </trkpt>
      <trkpt lat="43.67546" lon="0.99804">
        <ele>251.677263</ele>
        <time>2023-01-03T11:10:42.795Z</time>
      </trkpt>
      <trkpt lat="43.67539" lon="0.99814">
        <ele>251.631632</ele>
        <time>2023-01-03T11:10:45.795Z</time>
      </trkpt>
      <trkpt lat="43.6753" lon="0.99825">
        <ele>251.581692</ele>
        <time>2023-01-03T11:10:48.817Z</time>
      </trkpt>
      <trkpt lat="43.67521" lon="0.99835">
        <ele>251.529596</ele>
        <time>2023-01-03T11:10:51.811Z</time>
      </trkpt>
      <trkpt lat="43.67511" lon="0.99844">
        <ele>251.477126</ele>
        <time>2023-01-03T11:10:54.793Z</time>
      </trkpt>
      <trkpt lat="43.67501" lon="0.99852">
        <ele>251.427841</ele>
        <time>2023-01-03T11:10:57.809Z</time>
      </trkpt>
      <trkpt lat="43.67492" lon="0.9986">
        <ele>251.38285</ele>
        <time>2023-01-03T11:11:00.814Z</time>
      </trkpt>
      <trkpt lat="43.67483" lon="0.99867">
        <ele>251.337278</ele>
        <time>2023-01-03T11:11:03.822Z</time>
      </trkpt>
      <trkpt lat="43.67473" lon="0.99875">
        <ele>251.287717</ele>
        <time>2023-01-03T11:11:06.804Z</time>
      </trkpt>
      <trkpt lat="43.67463" lon="0.99883">
        <ele>251.237402</ele>
        <time>2023-01-03T11:11:09.816Z</time>
      </trkpt>
      <trkpt lat="43.67452" lon="0.9989">
        <ele>251.187297</ele>
        <time>2023-01-03T11:11:12.804Z</time>
      </trkpt>
      <trkpt lat="43.67442" lon="0.99896">
        <ele>251.139846</ele>
        <time>2023-01-03T11:11:15.806Z</time>
      </trkpt>
      <trkpt lat="43.67432" lon="0.99902">
        <ele>251.091153</ele>
        <time>2023-01-03T11:11:18.820Z</time>
      </trkpt>
      <trkpt lat="43.67422" lon="0.99906">
        <ele>251.04636</ele>
        <time>2023-01-03T11:11:21.811Z</time>
      </trkpt>
      <trkpt lat="43.67412" lon="0.99911">
        <ele>251.375696</ele>
        <time>2023-01-03T11:11:24.820Z</time>
      </trkpt>
      <trkpt lat="43.67401" lon="0.99914">
        <ele>251.715143</ele>
        <time>2023-01-03T11:11:27.816Z</time>
      </trkpt>
      <trkpt lat="43.6739" lon="0.99918">
        <ele>252.072208</ele>
        <time>2023-01-03T11:11:30.816Z</time>
      </trkpt>
      <trkpt lat="43.67379" lon="0.99922">
        <ele>252.439808</ele>
        <time>2023-01-03T11:11:33.817Z</time>
      </trkpt>
      <trkpt lat="43.67368" lon="0.99926">
        <ele>252.809088</ele>
        <time>2023-01-03T11:11:36.814Z</time>
      </trkpt>
      <trkpt lat="43.67356" lon="0.99929">
        <ele>253.17394</ele>
        <time>2023-01-03T11:11:39.802Z</time>
      </trkpt>
      <trkpt lat="43.67347" lon="0.99931">
        <ele>253.4792</ele>
        <time>2023-01-03T11:11:42.805Z</time>
      </trkpt>
      <trkpt lat="43.67327" lon="0.99936">
        <ele>254.109202</ele>
        <time>2023-01-03T11:12:08.804Z</time>
      </trkpt>
      <trkpt lat="43.67317" lon="0.99938">
        <ele>254.427963</ele>
        <time>2023-01-03T11:12:12.807Z</time>
      </trkpt>
      <trkpt lat="43.67307" lon="0.99938">
        <ele>254.766253</ele>
        <time>2023-01-03T11:12:16.796Z</time>
      </trkpt>
      <trkpt lat="43.67295" lon="0.99938">
        <ele>255.120285</ele>
        <time>2023-01-03T11:12:20.814Z</time>
      </trkpt>
      <trkpt lat="43.67285" lon="0.99936">
        <ele>255.456688</ele>
        <time>2023-01-03T11:12:24.812Z</time>
      </trkpt>
      <trkpt lat="43.67275" lon="0.99934">
        <ele>255.769182</ele>
        <time>2023-01-03T11:12:28.815Z</time>
      </trkpt>
      <trkpt lat="43.67265" lon="0.99932">
        <ele>256.078542</ele>
        <time>2023-01-03T11:12:32.814Z</time>
      </trkpt>
      <trkpt lat="43.67256" lon="0.99929">
        <ele>256.397369</ele>
        <time>2023-01-03T11:12:36.814Z</time>
      </trkpt>
      <trkpt lat="43.67247" lon="0.99926">
        <ele>256.691563</ele>
        <time>2023-01-03T11:12:40.811Z</time>
      </trkpt>
      <trkpt lat="43.67236" lon="0.99924">
        <ele>256.861319</ele>
        <time>2023-01-03T11:12:45.811Z</time>
      </trkpt>
      <trkpt lat="43.67225" lon="0.99922">
        <ele>257.014505</ele>
        <time>2023-01-03T11:12:50.814Z</time>
      </trkpt>
      <trkpt lat="43.67215" lon="0.9992">
        <ele>257.169625</ele>
        <time>2023-01-03T11:12:55.820Z</time>
      </trkpt>
      <trkpt lat="43.67204" lon="0.9992">
        <ele>257.321764</ele>
        <time>2023-01-03T11:13:00.807Z</time>
      </trkpt>
      <trkpt lat="43.67193" lon="0.99924">
        <ele>257.474352</ele>
        <time>2023-01-03T11:13:05.804Z</time>
      </trkpt>
      <trkpt lat="43.67185" lon="0.9993">
        <ele>257.606953</ele>
        <time>2023-01-03T11:13:09.797Z</time>
      </trkpt>
      <trkpt lat="43.67178" lon="0.9994">
        <ele>257.74635</ele>
        <time>2023-01-03T11:13:13.808Z</time>
      </trkpt>
      <trkpt lat="43.67171" lon="0.99952">
        <ele>257.904261</ele>
        <time>2023-01-03T11:13:17.807Z</time>
      </trkpt>
      <trkpt lat="43.67165" lon="0.99965">
        <ele>258.067679</ele>
        <time>2023-01-03T11:13:21.816Z</time>
      </trkpt>
      <trkpt lat="43.67159" lon="0.99979">
        <ele>258.221959</ele>
        <time>2023-01-03T11:13:25.802Z</time>
      </trkpt>
      <trkpt lat="43.67152" lon="0.99992">
        <ele>258.394452</ele>
        <time>2023-01-03T11:13:29.816Z</time>
      </trkpt>
      <trkpt lat="43.67147" lon="1.00003">
        <ele>258.523871</ele>
        <time>2023-01-03T11:13:32.808Z</time>
      </trkpt>
      <trkpt lat="43.67141" lon="1.00017">
        <ele>258.68828</ele>
        <time>2023-01-03T11:13:36.819Z</time>
      </trkpt>
      <trkpt lat="43.67136" lon="1.00028">
        <ele>258.828789</ele>
        <time>2023-01-03T11:13:39.807Z</time>
      </trkpt>
      <trkpt lat="43.67131" lon="1.00041">
        <ele>258.97271</ele>
        <time>2023-01-03T11:13:42.818Z</time>
      </trkpt>
      <trkpt lat="43.67125" lon="1.00053">
        <ele>259.121501</ele>
        <time>2023-01-03T11:13:45.822Z</time>
      </trkpt>
      <trkpt lat="43.67121" lon="1.00067">
        <ele>259.245598</ele>
        <time>2023-01-03T11:13:48.801Z</time>
      </trkpt>
      <trkpt lat="43.67116" lon="1.00082">
        <ele>258.96768</ele>
        <time>2023-01-03T11:13:51.807Z</time>
      </trkpt>
      <trkpt lat="43.67113" lon="1.00094">
        <ele>258.755294</ele>
        <time>2023-01-03T11:13:53.816Z</time>
      </trkpt>
      <trkpt lat="43.67109" lon="1.00106">
        <ele>258.521357</ele>
        <time>2023-01-03T11:13:55.798Z</time>
      </trkpt>
      <trkpt lat="43.67106" lon="1.0012">
        <ele>258.280724</ele>
        <time>2023-01-03T11:13:57.814Z</time>
      </trkpt>
      <trkpt lat="43.67103" lon="1.00135">
        <ele>258.010988</ele>
        <time>2023-01-03T11:13:59.810Z</time>
      </trkpt>
      <trkpt lat="43.67098" lon="1.00151">
        <ele>257.727098</ele>
        <time>2023-01-03T11:14:01.808Z</time>
      </trkpt>
      <trkpt lat="43.67093" lon="1.00166">
        <ele>257.433409</ele>
        <time>2023-01-03T11:14:03.810Z</time>
      </trkpt>
      <trkpt lat="43.67086" lon="1.0018">
        <ele>257.143238</ele>
        <time>2023-01-03T11:14:05.808Z</time>
      </trkpt>
      <trkpt lat="43.67078" lon="1.00193">
        <ele>256.8543</ele>
        <time>2023-01-03T11:14:07.815Z</time>
      </trkpt>
      <trkpt lat="43.6707" lon="1.00206">
        <ele>256.562389</ele>
        <time>2023-01-03T11:14:09.812Z</time>
      </trkpt>
      <trkpt lat="43.67061" lon="1.00218">
        <ele>256.26353</ele>
        <time>2023-01-03T11:14:11.816Z</time>
      </trkpt>
      <trkpt lat="43.67052" lon="1.00228">
        <ele>255.992849</ele>
        <time>2023-01-03T11:14:13.818Z</time>
      </trkpt>
      <trkpt lat="43.67043" lon="1.00237">
        <ele>255.732746</ele>
        <time>2023-01-03T11:14:15.810Z</time>
      </trkpt>
      <trkpt lat="43.67035" lon="1.00247">
        <ele>255.478687</ele>
        <time>2023-01-03T11:14:17.810Z</time>
      </trkpt>
      <trkpt lat="43.67027" lon="1.00255">
        <ele>255.250539</ele>
        <time>2023-01-03T11:14:19.809Z</time>
      </trkpt>
      <trkpt lat="43.67018" lon="1.00267">
        <ele>255.026743</ele>
        <time>2023-01-03T11:14:22.808Z</time>
      </trkpt>
      <trkpt lat="43.6701" lon="1.00277">
        <ele>255.024591</ele>
        <time>2023-01-03T11:14:25.806Z</time>
      </trkpt>
      <trkpt lat="43.67002" lon="1.00287">
        <ele>255.022613</ele>
        <time>2023-01-03T11:14:28.807Z</time>
      </trkpt>
      <trkpt lat="43.66995" lon="1.00297">
        <ele>255.020497</ele>
        <time>2023-01-03T11:14:31.803Z</time>
      </trkpt>
      <trkpt lat="43.66988" lon="1.00308">
        <ele>255.018384</ele>
        <time>2023-01-03T11:14:34.799Z</time>
      </trkpt>
      <trkpt lat="43.6698" lon="1.00318">
        <ele>255.016247</ele>
        <time>2023-01-03T11:14:37.815Z</time>
      </trkpt>
      <trkpt lat="43.66972" lon="1.00328">
        <ele>255.01412</ele>
        <time>2023-01-03T11:14:40.818Z</time>
      </trkpt>
      <trkpt lat="43.66964" lon="1.00338">
        <ele>255.012165</ele>
        <time>2023-01-03T11:14:43.817Z</time>
      </trkpt>
      <trkpt lat="43.66957" lon="1.00345">
        <ele>255.01038</ele>
        <time>2023-01-03T11:14:46.807Z</time>
      </trkpt>
      <trkpt lat="43.66949" lon="1.00353">
        <ele>255.008418</ele>
        <time>2023-01-03T11:14:50.005Z</time>
      </trkpt>
      <trkpt lat="43.6694" lon="1.00361">
        <ele>255.006414</ele>
        <time>2023-01-03T11:14:53.794Z</time>
      </trkpt>
      <trkpt lat="43.66932" lon="1.00368">
        <ele>255.004577</ele>
        <time>2023-01-03T11:14:56.795Z</time>
      </trkpt>
      <trkpt lat="43.66925" lon="1.00375">
        <ele>255.002767</ele>
        <time>2023-01-03T11:14:59.803Z</time>
      </trkpt>
      <trkpt lat="43.66916" lon="1.00381">
        <ele>255.000879</ele>
        <time>2023-01-03T11:15:02.809Z</time>
      </trkpt>
      <trkpt lat="43.66909" lon="1.00389">
        <ele>254.999127</ele>
        <time>2023-01-03T11:15:05.794Z</time>
      </trkpt>
      <trkpt lat="43.66901" lon="1.00398">
        <ele>254.997014</ele>
        <time>2023-01-03T11:15:09.817Z</time>
      </trkpt>
      <trkpt lat="43.66892" lon="1.00406">
        <ele>254.994978</ele>
        <time>2023-01-03T11:15:13.812Z</time>
      </trkpt>
      <trkpt lat="43.66883" lon="1.00415">
        <ele>254.992756</ele>
        <time>2023-01-03T11:15:17.797Z</time>
      </trkpt>
      <trkpt lat="43.66873" lon="1.00424">
        <ele>255.436053</ele>
        <time>2023-01-03T11:15:21.822Z</time>
      </trkpt>
      <trkpt lat="43.66863" lon="1.00433">
        <ele>256.110623</ele>
        <time>2023-01-03T11:15:25.815Z</time>
      </trkpt>
      <trkpt lat="43.66855" lon="1.0044">
        <ele>256.642599</ele>
        <time>2023-01-03T11:15:28.815Z</time>
      </trkpt>
      <trkpt lat="43.66848" lon="1.00448">
        <ele>257.164583</ele>
        <time>2023-01-03T11:15:31.808Z</time>
      </trkpt>
      <trkpt lat="43.66838" lon="1.00456">
        <ele>257.811344</ele>
        <time>2023-01-03T11:15:35.796Z</time>
      </trkpt>
      <trkpt lat="43.66829" lon="1.00464">
        <ele>258.412175</ele>
        <time>2023-01-03T11:15:39.810Z</time>
      </trkpt>
      <trkpt lat="43.66821" lon="1.00473">
        <ele>259.017616</ele>
        <time>2023-01-03T11:15:43.811Z</time>
      </trkpt>
      <trkpt lat="43.66812" lon="1.00482">
        <ele>259.616102</ele>
        <time>2023-01-03T11:15:47.796Z</time>
      </trkpt>
      <trkpt lat="43.66804" lon="1.00491">
        <ele>260.192351</ele>
        <time>2023-01-03T11:15:51.803Z</time>
      </trkpt>
      <trkpt lat="43.66797" lon="1.00501">
        <ele>260.736689</ele>
        <time>2023-01-03T11:15:55.816Z</time>
      </trkpt>
      <trkpt lat="43.66791" lon="1.0051">
        <ele>261.274939</ele>
        <time>2023-01-03T11:15:59.816Z</time>
      </trkpt>
      <trkpt lat="43.66785" lon="1.00521">
        <ele>261.817623</ele>
        <time>2023-01-03T11:16:03.806Z</time>
      </trkpt>
      <trkpt lat="43.66779" lon="1.00531">
        <ele>262.365013</ele>
        <time>2023-01-03T11:16:07.819Z</time>
      </trkpt>
      <trkpt lat="43.66772" lon="1.00542">
        <ele>262.964762</ele>
        <time>2023-01-03T11:16:11.807Z</time>
      </trkpt>
      <trkpt lat="43.66766" lon="1.00554">
        <ele>263.559652</ele>
        <time>2023-01-03T11:16:15.815Z</time>
      </trkpt>
      <trkpt lat="43.66759" lon="1.00565">
        <ele>264.12882</ele>
        <time>2023-01-03T11:16:19.814Z</time>
      </trkpt>
      <trkpt lat="43.66753" lon="1.00576">
        <ele>264.698448</ele>
        <time>2023-01-03T11:16:23.806Z</time>
      </trkpt>
      <trkpt lat="43.66747" lon="1.00587">
        <ele>265.150119</ele>
        <time>2023-01-03T11:16:27.820Z</time>
      </trkpt>
      <trkpt lat="43.66741" lon="1.00599">
        <ele>265.229289</ele>
        <time>2023-01-03T11:16:31.815Z</time>
      </trkpt>
      <trkpt lat="43.66736" lon="1.00611">
        <ele>265.314012</ele>
        <time>2023-01-03T11:16:35.814Z</time>
      </trkpt>
      <trkpt lat="43.6673" lon="1.00625">
        <ele>265.405199</ele>
        <time>2023-01-03T11:16:39.804Z</time>
      </trkpt>
      <trkpt lat="43.66725" lon="1.0064">
        <ele>265.497531</ele>
        <time>2023-01-03T11:16:43.806Z</time>
      </trkpt>
      <trkpt lat="43.6672" lon="1.00653">
        <ele>265.582945</ele>
        <time>2023-01-03T11:16:47.820Z</time>
      </trkpt>
      <trkpt lat="43.66716" lon="1.00665">
        <ele>265.657534</ele>
        <time>2023-01-03T11:16:50.797Z</time>
      </trkpt>
      <trkpt lat="43.66712" lon="1.00679">
        <ele>265.742627</ele>
        <time>2023-01-03T11:16:53.802Z</time>
      </trkpt>
      <trkpt lat="43.66708" lon="1.00693">
        <ele>265.832271</ele>
        <time>2023-01-03T11:16:56.803Z</time>
      </trkpt>
      <trkpt lat="43.66705" lon="1.00708">
        <ele>265.919476</ele>
        <time>2023-01-03T11:16:59.808Z</time>
      </trkpt>
      <trkpt lat="43.66701" lon="1.00723">
        <ele>266.009216</ele>
        <time>2023-01-03T11:17:02.814Z</time>
      </trkpt>
      <trkpt lat="43.66698" lon="1.00738">
        <ele>266.097958</ele>
        <time>2023-01-03T11:17:05.814Z</time>
      </trkpt>
      <trkpt lat="43.66695" lon="1.00753">
        <ele>266.18715</ele>
        <time>2023-01-03T11:17:08.814Z</time>
      </trkpt>
      <trkpt lat="43.66692" lon="1.00769">
        <ele>266.281959</ele>
        <time>2023-01-03T11:17:11.815Z</time>
      </trkpt>
      <trkpt lat="43.66689" lon="1.00785">
        <ele>266.379175</ele>
        <time>2023-01-03T11:17:14.804Z</time>
      </trkpt>
      <trkpt lat="43.66686" lon="1.00802">
        <ele>266.475253</ele>
        <time>2023-01-03T11:17:17.804Z</time>
      </trkpt>
      <trkpt lat="43.66684" lon="1.00817">
        <ele>266.563254</ele>
        <time>2023-01-03T11:17:20.818Z</time>
      </trkpt>
      <trkpt lat="43.66681" lon="1.00833">
        <ele>266.638529</ele>
        <time>2023-01-03T11:17:23.809Z</time>
      </trkpt>
      <trkpt lat="43.66678" lon="1.0085">
        <ele>266.719812</ele>
        <time>2023-01-03T11:17:26.797Z</time>
      </trkpt>
      <trkpt lat="43.66674" lon="1.00867">
        <ele>266.804199</ele>
        <time>2023-01-03T11:17:29.813Z</time>
      </trkpt>
      <trkpt lat="43.6667" lon="1.00884">
        <ele>266.886465</ele>
        <time>2023-01-03T11:17:32.801Z</time>
      </trkpt>
      <trkpt lat="43.66666" lon="1.00895">
        <ele>266.945879</ele>
        <time>2023-01-03T11:17:34.815Z</time>
      </trkpt>
      <trkpt lat="43.66663" lon="1.00907">
        <ele>267.004515</ele>
        <time>2023-01-03T11:17:36.816Z</time>
      </trkpt>
      <trkpt lat="43.66657" lon="1.00923">
        <ele>267.088336</ele>
        <time>2023-01-03T11:17:39.808Z</time>
      </trkpt>
      <trkpt lat="43.66652" lon="1.00938">
        <ele>267.16617</ele>
        <time>2023-01-03T11:17:42.801Z</time>
      </trkpt>
      <trkpt lat="43.66647" lon="1.00952">
        <ele>267.237861</ele>
        <time>2023-01-03T11:17:45.810Z</time>
      </trkpt>
      <trkpt lat="43.66641" lon="1.00966">
        <ele>267.313037</ele>
        <time>2023-01-03T11:17:48.819Z</time>
      </trkpt>
      <trkpt lat="43.66635" lon="1.0098">
        <ele>267.391181</ele>
        <time>2023-01-03T11:17:51.795Z</time>
      </trkpt>
      <trkpt lat="43.66629" lon="1.00995">
        <ele>267.470035</ele>
        <time>2023-01-03T11:17:54.818Z</time>
      </trkpt>
      <trkpt lat="43.66623" lon="1.0101">
        <ele>267.548462</ele>
        <time>2023-01-03T11:17:57.817Z</time>
      </trkpt>
      <trkpt lat="43.66616" lon="1.01025">
        <ele>267.629258</ele>
        <time>2023-01-03T11:18:00.817Z</time>
      </trkpt>
      <trkpt lat="43.6661" lon="1.01039">
        <ele>267.708691</ele>
        <time>2023-01-03T11:18:03.819Z</time>
      </trkpt>
      <trkpt lat="43.66604" lon="1.01054">
        <ele>267.597378</ele>
        <time>2023-01-03T11:18:06.797Z</time>
      </trkpt>
      <trkpt lat="43.66597" lon="1.01069">
        <ele>267.482701</ele>
        <time>2023-01-03T11:18:09.814Z</time>
      </trkpt>
      <trkpt lat="43.66591" lon="1.01079">
        <ele>267.399772</ele>
        <time>2023-01-03T11:18:11.794Z</time>
      </trkpt>
      <trkpt lat="43.66584" lon="1.01093">
        <ele>267.285664</ele>
        <time>2023-01-03T11:18:14.808Z</time>
      </trkpt>
      <trkpt lat="43.66577" lon="1.01107">
        <ele>267.179504</ele>
        <time>2023-01-03T11:18:17.802Z</time>
      </trkpt>
      <trkpt lat="43.66571" lon="1.0112">
        <ele>267.07649</ele>
        <time>2023-01-03T11:18:20.802Z</time>
      </trkpt>
      <trkpt lat="43.66564" lon="1.01131">
        <ele>266.980287</ele>
        <time>2023-01-03T11:18:23.819Z</time>
      </trkpt>
      <trkpt lat="43.66557" lon="1.01144">
        <ele>266.877296</ele>
        <time>2023-01-03T11:18:26.810Z</time>
      </trkpt>
      <trkpt lat="43.6655" lon="1.01158">
        <ele>266.766383</ele>
        <time>2023-01-03T11:18:29.820Z</time>
      </trkpt>
      <trkpt lat="43.66541" lon="1.01172">
        <ele>266.647153</ele>
        <time>2023-01-03T11:18:32.800Z</time>
      </trkpt>
      <trkpt lat="43.66536" lon="1.01182">
        <ele>266.564226</ele>
        <time>2023-01-03T11:18:34.818Z</time>
      </trkpt>
      <trkpt lat="43.66531" lon="1.01193">
        <ele>266.482625</ele>
        <time>2023-01-03T11:18:36.801Z</time>
      </trkpt>
      <trkpt lat="43.66525" lon="1.01209">
        <ele>266.362</ele>
        <time>2023-01-03T11:18:39.815Z</time>
      </trkpt>
      <trkpt lat="43.66521" lon="1.01222">
        <ele>266.272901</ele>
        <time>2023-01-03T11:18:41.815Z</time>
      </trkpt>
      <trkpt lat="43.66517" lon="1.01234">
        <ele>266.18655</ele>
        <time>2023-01-03T11:18:43.807Z</time>
      </trkpt>
      <trkpt lat="43.66515" lon="1.01247">
        <ele>266.100124</ele>
        <time>2023-01-03T11:18:45.807Z</time>
      </trkpt>
      <trkpt lat="43.66512" lon="1.01265">
        <ele>266.229904</ele>
        <time>2023-01-03T11:18:48.813Z</time>
      </trkpt>
      <trkpt lat="43.66509" lon="1.01281">
        <ele>266.37549</ele>
        <time>2023-01-03T11:18:51.804Z</time>
      </trkpt>
      <trkpt lat="43.66505" lon="1.01299">
        <ele>266.529619</ele>
        <time>2023-01-03T11:18:54.815Z</time>
      </trkpt>
      <trkpt lat="43.66503" lon="1.01311">
        <ele>266.637195</ele>
        <time>2023-01-03T11:18:56.812Z</time>
      </trkpt>
      <trkpt lat="43.66501" lon="1.01324">
        <ele>266.750828</ele>
        <time>2023-01-03T11:18:58.806Z</time>
      </trkpt>
      <trkpt lat="43.66498" lon="1.01337">
        <ele>266.868838</ele>
        <time>2023-01-03T11:19:00.819Z</time>
      </trkpt>
      <trkpt lat="43.66496" lon="1.0135">
        <ele>266.982521</ele>
        <time>2023-01-03T11:19:02.810Z</time>
      </trkpt>
      <trkpt lat="43.66495" lon="1.01365">
        <ele>267.106668</ele>
        <time>2023-01-03T11:19:04.820Z</time>
      </trkpt>
      <trkpt lat="43.66493" lon="1.01379">
        <ele>267.225923</ele>
        <time>2023-01-03T11:19:06.817Z</time>
      </trkpt>
      <trkpt lat="43.66492" lon="1.01393">
        <ele>267.349551</ele>
        <time>2023-01-03T11:19:08.819Z</time>
      </trkpt>
      <trkpt lat="43.6649" lon="1.01407">
        <ele>267.469915</ele>
        <time>2023-01-03T11:19:10.813Z</time>
      </trkpt>
      <trkpt lat="43.66489" lon="1.01421">
        <ele>267.58664</ele>
        <time>2023-01-03T11:19:12.813Z</time>
      </trkpt>
      <trkpt lat="43.66487" lon="1.01434">
        <ele>267.706394</ele>
        <time>2023-01-03T11:19:14.815Z</time>
      </trkpt>
      <trkpt lat="43.66485" lon="1.01448">
        <ele>267.823646</ele>
        <time>2023-01-03T11:19:16.821Z</time>
      </trkpt>
      <trkpt lat="43.66483" lon="1.01467">
        <ele>267.987188</ele>
        <time>2023-01-03T11:19:19.818Z</time>
      </trkpt>
      <trkpt lat="43.66481" lon="1.01485">
        <ele>268.141126</ele>
        <time>2023-01-03T11:19:22.806Z</time>
      </trkpt>
      <trkpt lat="43.6648" lon="1.015">
        <ele>268.295061</ele>
        <time>2023-01-03T11:19:25.798Z</time>
      </trkpt>
      <trkpt lat="43.66479" lon="1.01516">
        <ele>268.489107</ele>
        <time>2023-01-03T11:19:28.795Z</time>
      </trkpt>
      <trkpt lat="43.66479" lon="1.01531">
        <ele>268.669643</ele>
        <time>2023-01-03T11:19:31.817Z</time>
      </trkpt>
      <trkpt lat="43.6648" lon="1.01546">
        <ele>268.845348</ele>
        <time>2023-01-03T11:19:34.816Z</time>
      </trkpt>
      <trkpt lat="43.6648" lon="1.0156">
        <ele>269.015226</ele>
        <time>2023-01-03T11:19:37.794Z</time>
      </trkpt>
      <trkpt lat="43.66478" lon="1.01575">
        <ele>269.193757</ele>
        <time>2023-01-03T11:19:40.814Z</time>
      </trkpt>
      <trkpt lat="43.66476" lon="1.01591">
        <ele>269.385055</ele>
        <time>2023-01-03T11:19:43.796Z</time>
      </trkpt>
      <trkpt lat="43.66473" lon="1.01608">
        <ele>269.589614</ele>
        <time>2023-01-03T11:19:46.797Z</time>
      </trkpt>
      <trkpt lat="43.66471" lon="1.01625">
        <ele>269.800003</ele>
        <time>2023-01-03T11:19:49.803Z</time>
      </trkpt>
      <trkpt lat="43.66468" lon="1.01642">
        <ele>269.999773</ele>
        <time>2023-01-03T11:19:52.806Z</time>
      </trkpt>
      <trkpt lat="43.66466" lon="1.01657">
        <ele>270.182712</ele>
        <time>2023-01-03T11:19:55.816Z</time>
      </trkpt>
      <trkpt lat="43.66464" lon="1.01671">
        <ele>270.351896</ele>
        <time>2023-01-03T11:19:58.821Z</time>
      </trkpt>
      <trkpt lat="43.66464" lon="1.01686">
        <ele>270.534094</ele>
        <time>2023-01-03T11:20:01.806Z</time>
      </trkpt>
      <trkpt lat="43.66463" lon="1.01702">
        <ele>270.722015</ele>
        <time>2023-01-03T11:20:04.823Z</time>
      </trkpt>
      <trkpt lat="43.66461" lon="1.01719">
        <ele>270.923067</ele>
        <time>2023-01-03T11:20:07.805Z</time>
      </trkpt>
      <trkpt lat="43.66459" lon="1.01736">
        <ele>271.1309</ele>
        <time>2023-01-03T11:20:10.821Z</time>
      </trkpt>
      <trkpt lat="43.66456" lon="1.01752">
        <ele>271.220218</ele>
        <time>2023-01-03T11:20:13.818Z</time>
      </trkpt>
      <trkpt lat="43.66453" lon="1.01767">
        <ele>271.288309</ele>
        <time>2023-01-03T11:20:16.818Z</time>
      </trkpt>
      <trkpt lat="43.6645" lon="1.0178">
        <ele>271.34507</ele>
        <time>2023-01-03T11:20:19.800Z</time>
      </trkpt>
      <trkpt lat="43.66447" lon="1.01793">
        <ele>271.405135</ele>
        <time>2023-01-03T11:20:22.793Z</time>
      </trkpt>
      <trkpt lat="43.66443" lon="1.01806">
        <ele>271.466862</ele>
        <time>2023-01-03T11:20:25.796Z</time>
      </trkpt>
      <trkpt lat="43.66439" lon="1.01819">
        <ele>271.527392</ele>
        <time>2023-01-03T11:20:28.817Z</time>
      </trkpt>
      <trkpt lat="43.66435" lon="1.01832">
        <ele>271.589754</ele>
        <time>2023-01-03T11:20:31.818Z</time>
      </trkpt>
      <trkpt lat="43.66432" lon="1.01845">
        <ele>271.649778</ele>
        <time>2023-01-03T11:20:34.819Z</time>
      </trkpt>
      <trkpt lat="43.66427" lon="1.01858">
        <ele>271.714959</ele>
        <time>2023-01-03T11:20:37.802Z</time>
      </trkpt>
      <trkpt lat="43.66423" lon="1.01871">
        <ele>271.776225</ele>
        <time>2023-01-03T11:20:40.819Z</time>
      </trkpt>
      <trkpt lat="43.66418" lon="1.01885">
        <ele>271.840587</ele>
        <time>2023-01-03T11:20:43.818Z</time>
      </trkpt>
      <trkpt lat="43.66415" lon="1.01898">
        <ele>271.902843</ele>
        <time>2023-01-03T11:20:46.807Z</time>
      </trkpt>
      <trkpt lat="43.66412" lon="1.01911">
        <ele>271.960406</ele>
        <time>2023-01-03T11:20:49.812Z</time>
      </trkpt>
      <trkpt lat="43.66404" lon="1.01923">
        <ele>272.030629</ele>
        <time>2023-01-03T11:20:53.800Z</time>
      </trkpt>
      <trkpt lat="43.66402" lon="1.01938">
        <ele>272.096843</ele>
        <time>2023-01-03T11:20:57.806Z</time>
      </trkpt>
      <trkpt lat="43.66401" lon="1.01951">
        <ele>272.153482</ele>
        <time>2023-01-03T11:21:01.816Z</time>
      </trkpt>
      <trkpt lat="43.66402" lon="1.0195">
        <ele>272.159874</ele>
        <time>2023-01-03T11:21:07.410Z</time>
      </trkpt>
      <trkpt lat="43.66383" lon="1.02016">
        <ele>272.034702</ele>
        <time>2023-01-03T11:22:15.806Z</time>
      </trkpt>
      <trkpt lat="43.66377" lon="1.0203">
        <ele>271.974412</ele>
        <time>2023-01-03T11:22:19.819Z</time>
      </trkpt>
      <trkpt lat="43.66372" lon="1.02044">
        <ele>271.916639</ele>
        <time>2023-01-03T11:22:23.802Z</time>
      </trkpt>
      <trkpt lat="43.66369" lon="1.02056">
        <ele>271.868217</ele>
        <time>2023-01-03T11:22:26.813Z</time>
      </trkpt>
      <trkpt lat="43.66365" lon="1.02068">
        <ele>271.81707</ele>
        <time>2023-01-03T11:22:29.817Z</time>
      </trkpt>
      <trkpt lat="43.6636" lon="1.02082">
        <ele>271.75918</ele>
        <time>2023-01-03T11:22:32.807Z</time>
      </trkpt>
      <trkpt lat="43.66354" lon="1.02097">
        <ele>271.696743</ele>
        <time>2023-01-03T11:22:35.798Z</time>
      </trkpt>
      <trkpt lat="43.66343" lon="1.02111">
        <ele>271.620599</ele>
        <time>2023-01-03T11:22:38.804Z</time>
      </trkpt>
      <trkpt lat="43.66336" lon="1.02125">
        <ele>271.553921</ele>
        <time>2023-01-03T11:22:41.795Z</time>
      </trkpt>
      <trkpt lat="43.66329" lon="1.0214">
        <ele>271.485541</ele>
        <time>2023-01-03T11:22:44.801Z</time>
      </trkpt>
      <trkpt lat="43.66322" lon="1.02155">
        <ele>271.417559</ele>
        <time>2023-01-03T11:22:47.841Z</time>
      </trkpt>
      <trkpt lat="43.66315" lon="1.0217">
        <ele>271.352506</ele>
        <time>2023-01-03T11:22:50.816Z</time>
      </trkpt>
      <trkpt lat="43.6631" lon="1.02181">
        <ele>271.303732</ele>
        <time>2023-01-03T11:22:52.803Z</time>
      </trkpt>
      <trkpt lat="43.66303" lon="1.02197">
        <ele>271.195937</ele>
        <time>2023-01-03T11:22:55.815Z</time>
      </trkpt>
      <trkpt lat="43.66296" lon="1.02211">
        <ele>271.089369</ele>
        <time>2023-01-03T11:22:58.820Z</time>
      </trkpt>
      <trkpt lat="43.6629" lon="1.02226">
        <ele>270.98273</ele>
        <time>2023-01-03T11:23:01.821Z</time>
      </trkpt>
      <trkpt lat="43.66283" lon="1.02242">
        <ele>270.87418</ele>
        <time>2023-01-03T11:23:04.820Z</time>
      </trkpt>
      <trkpt lat="43.66276" lon="1.02257">
        <ele>270.764276</ele>
        <time>2023-01-03T11:23:07.816Z</time>
      </trkpt>
      <trkpt lat="43.66269" lon="1.02272">
        <ele>270.656317</ele>
        <time>2023-01-03T11:23:10.796Z</time>
      </trkpt>
      <trkpt lat="43.66263" lon="1.02288">
        <ele>270.546367</ele>
        <time>2023-01-03T11:23:13.798Z</time>
      </trkpt>
      <trkpt lat="43.66258" lon="1.02299">
        <ele>270.470554</ele>
        <time>2023-01-03T11:23:15.827Z</time>
      </trkpt>
      <trkpt lat="43.66253" lon="1.0231">
        <ele>270.390656</ele>
        <time>2023-01-03T11:23:17.809Z</time>
      </trkpt>
      <trkpt lat="43.66249" lon="1.02323">
        <ele>270.307044</ele>
        <time>2023-01-03T11:23:19.797Z</time>
      </trkpt>
      <trkpt lat="43.66243" lon="1.02335">
        <ele>270.217932</ele>
        <time>2023-01-03T11:23:21.820Z</time>
      </trkpt>
      <trkpt lat="43.66239" lon="1.02348">
        <ele>270.131255</ele>
        <time>2023-01-03T11:23:23.818Z</time>
      </trkpt>
      <trkpt lat="43.66234" lon="1.0236">
        <ele>270.045381</ele>
        <time>2023-01-03T11:23:25.816Z</time>
      </trkpt>
      <trkpt lat="43.66227" lon="1.02372">
        <ele>269.954675</ele>
        <time>2023-01-03T11:23:27.818Z</time>
      </trkpt>
      <trkpt lat="43.66221" lon="1.02384">
        <ele>269.868877</ele>
        <time>2023-01-03T11:23:29.813Z</time>
      </trkpt>
      <trkpt lat="43.66216" lon="1.02396">
        <ele>269.796211</ele>
        <time>2023-01-03T11:23:31.816Z</time>
      </trkpt>
      <trkpt lat="43.66211" lon="1.02408">
        <ele>269.782723</ele>
        <time>2023-01-03T11:23:33.799Z</time>
      </trkpt>
      <trkpt lat="43.66206" lon="1.0242">
        <ele>269.769962</ele>
        <time>2023-01-03T11:23:35.816Z</time>
      </trkpt>
      <trkpt lat="43.66201" lon="1.02432">
        <ele>269.75653</ele>
        <time>2023-01-03T11:23:37.818Z</time>
      </trkpt>
      <trkpt lat="43.66196" lon="1.02444">
        <ele>269.743518</ele>
        <time>2023-01-03T11:23:39.797Z</time>
      </trkpt>
      <trkpt lat="43.66191" lon="1.02454">
        <ele>269.731523</ele>
        <time>2023-01-03T11:23:41.807Z</time>
      </trkpt>
      <trkpt lat="43.66186" lon="1.02465">
        <ele>269.719537</ele>
        <time>2023-01-03T11:23:43.817Z</time>
      </trkpt>
      <trkpt lat="43.6618" lon="1.02479">
        <ele>269.703804</ele>
        <time>2023-01-03T11:23:46.802Z</time>
      </trkpt>
      <trkpt lat="43.66174" lon="1.02491">
        <ele>269.689652</ele>
        <time>2023-01-03T11:23:49.802Z</time>
      </trkpt>
      <trkpt lat="43.66168" lon="1.02501">
        <ele>269.677362</ele>
        <time>2023-01-03T11:23:52.818Z</time>
      </trkpt>
      <trkpt lat="43.66169" lon="1.02523">
        <ele>269.657037</ele>
        <time>2023-01-03T11:24:22.798Z</time>
      </trkpt>
      <trkpt lat="43.66175" lon="1.02532">
        <ele>269.645208</ele>
        <time>2023-01-03T11:24:25.814Z</time>
      </trkpt>
      <trkpt lat="43.66183" lon="1.02539">
        <ele>269.632604</ele>
        <time>2023-01-03T11:24:28.810Z</time>
      </trkpt>
      <trkpt lat="43.66194" lon="1.02547">
        <ele>269.616847</ele>
        <time>2023-01-03T11:24:32.812Z</time>
      </trkpt>
      <trkpt lat="43.66202" lon="1.02552">
        <ele>269.604557</ele>
        <time>2023-01-03T11:24:35.814Z</time>
      </trkpt>
      <trkpt lat="43.66211" lon="1.02558">
        <ele>269.591406</ele>
        <time>2023-01-03T11:24:38.812Z</time>
      </trkpt>
      <trkpt lat="43.6622" lon="1.02564">
        <ele>269.577679</ele>
        <time>2023-01-03T11:24:41.811Z</time>
      </trkpt>
      <trkpt lat="43.6623" lon="1.02574">
        <ele>269.562031</ele>
        <time>2023-01-03T11:24:44.814Z</time>
      </trkpt>
      <trkpt lat="43.66234" lon="1.02586">
        <ele>269.253171</ele>
        <time>2023-01-03T11:24:46.820Z</time>
      </trkpt>
      <trkpt lat="43.66238" lon="1.02597">
        <ele>268.930845</ele>
        <time>2023-01-03T11:24:48.815Z</time>
      </trkpt>
      <trkpt lat="43.66241" lon="1.02609">
        <ele>268.599376</ele>
        <time>2023-01-03T11:24:50.813Z</time>
      </trkpt>
      <trkpt lat="43.66242" lon="1.02628">
        <ele>268.11007</ele>
        <time>2023-01-03T11:24:53.818Z</time>
      </trkpt>
      <trkpt lat="43.66244" lon="1.02642">
        <ele>267.745719</ele>
        <time>2023-01-03T11:24:55.815Z</time>
      </trkpt>
      <trkpt lat="43.66246" lon="1.02656">
        <ele>267.361801</ele>
        <time>2023-01-03T11:24:57.815Z</time>
      </trkpt>
      <trkpt lat="43.66251" lon="1.02671">
        <ele>266.922931</ele>
        <time>2023-01-03T11:24:59.812Z</time>
      </trkpt>
      <trkpt lat="43.6626" lon="1.02685">
        <ele>266.446818</ele>
        <time>2023-01-03T11:25:01.813Z</time>
      </trkpt>
      <trkpt lat="43.6627" lon="1.02697">
        <ele>265.975251</ele>
        <time>2023-01-03T11:25:03.819Z</time>
      </trkpt>
      <trkpt lat="43.66282" lon="1.02706">
        <ele>265.46945</ele>
        <time>2023-01-03T11:25:05.808Z</time>
      </trkpt>
      <trkpt lat="43.66295" lon="1.02715">
        <ele>264.954457</ele>
        <time>2023-01-03T11:25:07.816Z</time>
      </trkpt>
      <trkpt lat="43.66308" lon="1.02723">
        <ele>264.437297</ele>
        <time>2023-01-03T11:25:09.807Z</time>
      </trkpt>
      <trkpt lat="43.66321" lon="1.02731">
        <ele>263.941839</ele>
        <time>2023-01-03T11:25:11.802Z</time>
      </trkpt>
      <trkpt lat="43.66333" lon="1.02738">
        <ele>263.460532</ele>
        <time>2023-01-03T11:25:13.800Z</time>
      </trkpt>
      <trkpt lat="43.66345" lon="1.02746">
        <ele>263.084336</ele>
        <time>2023-01-03T11:25:15.803Z</time>
      </trkpt>
      <trkpt lat="43.66357" lon="1.02753">
        <ele>263.006147</ele>
        <time>2023-01-03T11:25:17.816Z</time>
      </trkpt>
      <trkpt lat="43.66368" lon="1.0276">
        <ele>262.929674</ele>
        <time>2023-01-03T11:25:19.795Z</time>
      </trkpt>
      <trkpt lat="43.66379" lon="1.02766">
        <ele>262.85643</ele>
        <time>2023-01-03T11:25:21.808Z</time>
      </trkpt>
      <trkpt lat="43.6639" lon="1.02772">
        <ele>262.786632</ele>
        <time>2023-01-03T11:25:23.815Z</time>
      </trkpt>
      <trkpt lat="43.664" lon="1.02776">
        <ele>262.716966</ele>
        <time>2023-01-03T11:25:25.802Z</time>
      </trkpt>
      <trkpt lat="43.66411" lon="1.02779">
        <ele>262.649737</ele>
        <time>2023-01-03T11:25:27.814Z</time>
      </trkpt>
      <trkpt lat="43.66421" lon="1.02783">
        <ele>262.58473</ele>
        <time>2023-01-03T11:25:29.814Z</time>
      </trkpt>
      <trkpt lat="43.66432" lon="1.02787">
        <ele>262.517458</ele>
        <time>2023-01-03T11:25:31.816Z</time>
      </trkpt>
      <trkpt lat="43.66442" lon="1.0279">
        <ele>262.452328</ele>
        <time>2023-01-03T11:25:33.813Z</time>
      </trkpt>
      <trkpt lat="43.66451" lon="1.02793">
        <ele>262.393707</ele>
        <time>2023-01-03T11:25:35.814Z</time>
      </trkpt>
      <trkpt lat="43.6646" lon="1.02795">
        <ele>262.335322</ele>
        <time>2023-01-03T11:25:37.815Z</time>
      </trkpt>
      <trkpt lat="43.6647" lon="1.02799">
        <ele>262.274714</ele>
        <time>2023-01-03T11:25:39.816Z</time>
      </trkpt>
      <trkpt lat="43.6648" lon="1.02801">
        <ele>262.213662</ele>
        <time>2023-01-03T11:25:41.815Z</time>
      </trkpt>
      <trkpt lat="43.6649" lon="1.02804">
        <ele>262.150348</ele>
        <time>2023-01-03T11:25:43.816Z</time>
      </trkpt>
      <trkpt lat="43.665" lon="1.02807">
        <ele>262.085218</ele>
        <time>2023-01-03T11:25:45.801Z</time>
      </trkpt>
      <trkpt lat="43.6651" lon="1.02811">
        <ele>262.019482</ele>
        <time>2023-01-03T11:25:47.816Z</time>
      </trkpt>
      <trkpt lat="43.66521" lon="1.02814">
        <ele>261.945992</ele>
        <time>2023-01-03T11:25:49.809Z</time>
      </trkpt>
      <trkpt lat="43.66531" lon="1.02817">
        <ele>261.869232</ele>
        <time>2023-01-03T11:25:51.799Z</time>
      </trkpt>
      <trkpt lat="43.66541" lon="1.0282">
        <ele>261.794295</ele>
        <time>2023-01-03T11:25:53.809Z</time>
      </trkpt>
      <trkpt lat="43.66551" lon="1.02823">
        <ele>261.720776</ele>
        <time>2023-01-03T11:25:55.812Z</time>
      </trkpt>
      <trkpt lat="43.66561" lon="1.02826">
        <ele>261.649605</ele>
        <time>2023-01-03T11:25:57.813Z</time>
      </trkpt>
      <trkpt lat="43.6657" lon="1.02829">
        <ele>261.580211</ele>
        <time>2023-01-03T11:25:59.812Z</time>
      </trkpt>
      <trkpt lat="43.66579" lon="1.02833">
        <ele>261.515245</ele>
        <time>2023-01-03T11:26:01.817Z</time>
      </trkpt>
      <trkpt lat="43.66588" lon="1.02837">
        <ele>261.444275</ele>
        <time>2023-01-03T11:26:03.817Z</time>
      </trkpt>
      <trkpt lat="43.66596" lon="1.02842">
        <ele>261.378341</ele>
        <time>2023-01-03T11:26:05.793Z</time>
      </trkpt>
      <trkpt lat="43.66606" lon="1.02847">
        <ele>261.304966</ele>
        <time>2023-01-03T11:26:07.807Z</time>
      </trkpt>
      <trkpt lat="43.66615" lon="1.02853">
        <ele>261.23095</ele>
        <time>2023-01-03T11:26:09.807Z</time>
      </trkpt>
      <trkpt lat="43.66623" lon="1.02859">
        <ele>261.161555</ele>
        <time>2023-01-03T11:26:11.818Z</time>
      </trkpt>
      <trkpt lat="43.66632" lon="1.02865">
        <ele>261.087405</ele>
        <time>2023-01-03T11:26:13.813Z</time>
      </trkpt>
      <trkpt lat="43.66642" lon="1.02872">
        <ele>261.011628</ele>
        <time>2023-01-03T11:26:15.814Z</time>
      </trkpt>
      <trkpt lat="43.66651" lon="1.02877">
        <ele>260.941563</ele>
        <time>2023-01-03T11:26:17.811Z</time>
      </trkpt>
      <trkpt lat="43.66659" lon="1.02884">
        <ele>260.869504</ele>
        <time>2023-01-03T11:26:19.815Z</time>
      </trkpt>
      <trkpt lat="43.66668" lon="1.02889">
        <ele>260.798947</ele>
        <time>2023-01-03T11:26:21.810Z</time>
      </trkpt>
      <trkpt lat="43.66678" lon="1.02892">
        <ele>260.73014</ele>
        <time>2023-01-03T11:26:23.812Z</time>
      </trkpt>
      <trkpt lat="43.66688" lon="1.02895">
        <ele>260.722721</ele>
        <time>2023-01-03T11:26:25.811Z</time>
      </trkpt>
      <trkpt lat="43.66698" lon="1.02897">
        <ele>260.797342</ele>
        <time>2023-01-03T11:26:27.816Z</time>
      </trkpt>
      <trkpt lat="43.66708" lon="1.02896">
        <ele>260.871554</ele>
        <time>2023-01-03T11:26:29.812Z</time>
      </trkpt>
      <trkpt lat="43.66718" lon="1.02894">
        <ele>260.945079</ele>
        <time>2023-01-03T11:26:31.816Z</time>
      </trkpt>
      <trkpt lat="43.66728" lon="1.02891">
        <ele>261.020064</ele>
        <time>2023-01-03T11:26:33.816Z</time>
      </trkpt>
      <trkpt lat="43.66738" lon="1.02888">
        <ele>261.089604</ele>
        <time>2023-01-03T11:26:35.810Z</time>
      </trkpt>
      <trkpt lat="43.66747" lon="1.02885">
        <ele>261.157608</ele>
        <time>2023-01-03T11:26:37.816Z</time>
      </trkpt>
      <trkpt lat="43.66758" lon="1.02881">
        <ele>261.244487</ele>
        <time>2023-01-03T11:26:40.813Z</time>
      </trkpt>
      <trkpt lat="43.6677" lon="1.02875">
        <ele>261.335696</ele>
        <time>2023-01-03T11:26:43.812Z</time>
      </trkpt>
      <trkpt lat="43.66782" lon="1.0287">
        <ele>261.426215</ele>
        <time>2023-01-03T11:26:46.816Z</time>
      </trkpt>
      <trkpt lat="43.66793" lon="1.02866">
        <ele>261.512412</ele>
        <time>2023-01-03T11:26:49.798Z</time>
      </trkpt>
      <trkpt lat="43.66804" lon="1.02861">
        <ele>261.590395</ele>
        <time>2023-01-03T11:26:52.796Z</time>
      </trkpt>
      <trkpt lat="43.66813" lon="1.02856">
        <ele>261.667758</ele>
        <time>2023-01-03T11:26:55.815Z</time>
      </trkpt>
      <trkpt lat="43.66823" lon="1.02851">
        <ele>261.741104</ele>
        <time>2023-01-03T11:26:58.818Z</time>
      </trkpt>
      <trkpt lat="43.66832" lon="1.02848">
        <ele>261.809065</ele>
        <time>2023-01-03T11:27:01.814Z</time>
      </trkpt>
      <trkpt lat="43.66842" lon="1.02842">
        <ele>261.88682</ele>
        <time>2023-01-03T11:27:05.812Z</time>
      </trkpt>
      <trkpt lat="43.6685" lon="1.02837">
        <ele>261.952419</ele>
        <time>2023-01-03T11:27:12.806Z</time>
      </trkpt>
      <trkpt lat="43.66864" lon="1.02838">
        <ele>261.793885</ele>
        <time>2023-01-03T11:27:43.807Z</time>
      </trkpt>
      <trkpt lat="43.66874" lon="1.02843">
        <ele>261.495772</ele>
        <time>2023-01-03T11:27:46.809Z</time>
      </trkpt>
      <trkpt lat="43.66883" lon="1.02847">
        <ele>261.255818</ele>
        <time>2023-01-03T11:27:48.811Z</time>
      </trkpt>
      <trkpt lat="43.66892" lon="1.02854">
        <ele>261.000204</ele>
        <time>2023-01-03T11:27:50.804Z</time>
      </trkpt>
      <trkpt lat="43.669" lon="1.02861">
        <ele>260.74495</ele>
        <time>2023-01-03T11:27:52.814Z</time>
      </trkpt>
      <trkpt lat="43.66908" lon="1.02869">
        <ele>260.474762</ele>
        <time>2023-01-03T11:27:54.805Z</time>
      </trkpt>
      <trkpt lat="43.66918" lon="1.02877">
        <ele>260.183638</ele>
        <time>2023-01-03T11:27:56.803Z</time>
      </trkpt>
      <trkpt lat="43.66927" lon="1.02885">
        <ele>259.89944</ele>
        <time>2023-01-03T11:27:58.800Z</time>
      </trkpt>
      <trkpt lat="43.66935" lon="1.02893">
        <ele>259.63784</ele>
        <time>2023-01-03T11:28:00.808Z</time>
      </trkpt>
      <trkpt lat="43.66946" lon="1.02904">
        <ele>259.28142</ele>
        <time>2023-01-03T11:28:03.809Z</time>
      </trkpt>
      <trkpt lat="43.66957" lon="1.02914">
        <ele>258.949856</ele>
        <time>2023-01-03T11:28:06.808Z</time>
      </trkpt>
      <trkpt lat="43.66966" lon="1.02922">
        <ele>258.665172</ele>
        <time>2023-01-03T11:28:09.803Z</time>
      </trkpt>
      <trkpt lat="43.66973" lon="1.02929">
        <ele>258.427252</ele>
        <time>2023-01-03T11:28:13.805Z</time>
      </trkpt>
      <trkpt lat="43.66978" lon="1.02943">
        <ele>258.149737</ele>
        <time>2023-01-03T11:28:32.799Z</time>
      </trkpt>
      <trkpt lat="43.66976" lon="1.0296">
        <ele>257.808902</ele>
        <time>2023-01-03T11:28:35.805Z</time>
      </trkpt>
      <trkpt lat="43.66972" lon="1.02975">
        <ele>257.517817</ele>
        <time>2023-01-03T11:28:37.808Z</time>
      </trkpt>
      <trkpt lat="43.66968" lon="1.02991">
        <ele>257.163127</ele>
        <time>2023-01-03T11:28:39.808Z</time>
      </trkpt>
      <trkpt lat="43.66964" lon="1.03009">
        <ele>256.723814</ele>
        <time>2023-01-03T11:28:41.804Z</time>
      </trkpt>
      <trkpt lat="43.66958" lon="1.03028">
        <ele>256.257243</ele>
        <time>2023-01-03T11:28:43.807Z</time>
      </trkpt>
      <trkpt lat="43.66953" lon="1.03047">
        <ele>255.775618</ele>
        <time>2023-01-03T11:28:45.812Z</time>
      </trkpt>
      <trkpt lat="43.66948" lon="1.03068">
        <ele>255.257848</ele>
        <time>2023-01-03T11:28:47.817Z</time>
      </trkpt>
      <trkpt lat="43.66943" lon="1.03088">
        <ele>254.768032</ele>
        <time>2023-01-03T11:28:49.808Z</time>
      </trkpt>
      <trkpt lat="43.66939" lon="1.03108">
        <ele>254.280983</ele>
        <time>2023-01-03T11:28:51.813Z</time>
      </trkpt>
      <trkpt lat="43.66935" lon="1.03128">
        <ele>253.798788</ele>
        <time>2023-01-03T11:28:53.808Z</time>
      </trkpt>
      <trkpt lat="43.6693" lon="1.03147">
        <ele>253.332361</ele>
        <time>2023-01-03T11:28:55.808Z</time>
      </trkpt>
      <trkpt lat="43.66925" lon="1.03166">
        <ele>252.872261</ele>
        <time>2023-01-03T11:28:57.807Z</time>
      </trkpt>
      <trkpt lat="43.6692" lon="1.03182">
        <ele>252.453657</ele>
        <time>2023-01-03T11:28:59.805Z</time>
      </trkpt>
      <trkpt lat="43.66915" lon="1.03198">
        <ele>252.051675</ele>
        <time>2023-01-03T11:29:01.802Z</time>
      </trkpt>
      <trkpt lat="43.66909" lon="1.03213">
        <ele>251.651809</ele>
        <time>2023-01-03T11:29:03.802Z</time>
      </trkpt>
      <trkpt lat="43.66905" lon="1.03228">
        <ele>251.668626</ele>
        <time>2023-01-03T11:29:05.802Z</time>
      </trkpt>
      <trkpt lat="43.66902" lon="1.03243">
        <ele>251.930473</ele>
        <time>2023-01-03T11:29:07.804Z</time>
      </trkpt>
      <trkpt lat="43.66901" lon="1.03257">
        <ele>252.166266</ele>
        <time>2023-01-03T11:29:09.796Z</time>
      </trkpt>
      <trkpt lat="43.66901" lon="1.03274">
        <ele>252.473108</ele>
        <time>2023-01-03T11:29:12.799Z</time>
      </trkpt>
      <trkpt lat="43.66902" lon="1.03292">
        <ele>252.773791</ele>
        <time>2023-01-03T11:29:15.817Z</time>
      </trkpt>
      <trkpt lat="43.66903" lon="1.03308">
        <ele>253.067242</ele>
        <time>2023-01-03T11:29:18.805Z</time>
      </trkpt>
      <trkpt lat="43.66904" lon="1.03325">
        <ele>253.357739</ele>
        <time>2023-01-03T11:29:21.804Z</time>
      </trkpt>
      <trkpt lat="43.66906" lon="1.03341">
        <ele>253.637113</ele>
        <time>2023-01-03T11:29:24.803Z</time>
      </trkpt>
      <trkpt lat="43.66908" lon="1.03357">
        <ele>253.910969</ele>
        <time>2023-01-03T11:29:27.807Z</time>
      </trkpt>
      <trkpt lat="43.66911" lon="1.03372">
        <ele>254.178366</ele>
        <time>2023-01-03T11:29:30.805Z</time>
      </trkpt>
      <trkpt lat="43.66913" lon="1.03386">
        <ele>254.431164</ele>
        <time>2023-01-03T11:29:33.806Z</time>
      </trkpt>
      <trkpt lat="43.66916" lon="1.034">
        <ele>254.696608</ele>
        <time>2023-01-03T11:29:36.808Z</time>
      </trkpt>
      <trkpt lat="43.66919" lon="1.03414">
        <ele>254.946594</ele>
        <time>2023-01-03T11:29:39.797Z</time>
      </trkpt>
      <trkpt lat="43.6692" lon="1.03427">
        <ele>255.166657</ele>
        <time>2023-01-03T11:29:42.806Z</time>
      </trkpt>
      <trkpt lat="43.66922" lon="1.03442">
        <ele>255.426826</ele>
        <time>2023-01-03T11:29:46.799Z</time>
      </trkpt>
      <trkpt lat="43.66924" lon="1.03456">
        <ele>255.672513</ele>
        <time>2023-01-03T11:29:50.811Z</time>
      </trkpt>
      <trkpt lat="43.66926" lon="1.0347">
        <ele>255.969132</ele>
        <time>2023-01-03T11:29:54.800Z</time>
      </trkpt>
      <trkpt lat="43.66927" lon="1.03484">
        <ele>256.316041</ele>
        <time>2023-01-03T11:29:58.802Z</time>
      </trkpt>
      <trkpt lat="43.66929" lon="1.03499">
        <ele>256.667788</ele>
        <time>2023-01-03T11:30:02.809Z</time>
      </trkpt>
      <trkpt lat="43.6693" lon="1.03513">
        <ele>257.019967</ele>
        <time>2023-01-03T11:30:06.807Z</time>
      </trkpt>
      <trkpt lat="43.66931" lon="1.03529">
        <ele>257.386954</ele>
        <time>2023-01-03T11:30:10.802Z</time>
      </trkpt>
      <trkpt lat="43.66932" lon="1.03542">
        <ele>257.702287</ele>
        <time>2023-01-03T11:30:14.820Z</time>
      </trkpt>
      <trkpt lat="43.66934" lon="1.03556">
        <ele>258.038565</ele>
        <time>2023-01-03T11:30:19.808Z</time>
      </trkpt>
      <trkpt lat="43.66935" lon="1.03568">
        <ele>258.337623</ele>
        <time>2023-01-03T11:30:24.805Z</time>
      </trkpt>
      <trkpt lat="43.66936" lon="1.03581">
        <ele>258.653885</ele>
        <time>2023-01-03T11:30:29.802Z</time>
      </trkpt>
      <trkpt lat="43.66934" lon="1.03595">
        <ele>258.996119</ele>
        <time>2023-01-03T11:30:34.811Z</time>
      </trkpt>
      <trkpt lat="43.66934" lon="1.03608">
        <ele>259.29542</ele>
        <time>2023-01-03T11:30:38.807Z</time>
      </trkpt>
      <trkpt lat="43.66933" lon="1.03623">
        <ele>259.65747</ele>
        <time>2023-01-03T11:30:43.802Z</time>
      </trkpt>
      <trkpt lat="43.6693" lon="1.03636">
        <ele>259.977165</ele>
        <time>2023-01-03T11:30:47.803Z</time>
      </trkpt>
      <trkpt lat="43.66928" lon="1.03649">
        <ele>260.298716</ele>
        <time>2023-01-03T11:30:51.805Z</time>
      </trkpt>
      <trkpt lat="43.66925" lon="1.03662">
        <ele>260.62963</ele>
        <time>2023-01-03T11:30:55.799Z</time>
      </trkpt>
      <trkpt lat="43.6692" lon="1.03675">
        <ele>260.984694</ele>
        <time>2023-01-03T11:30:59.799Z</time>
      </trkpt>
      <trkpt lat="43.66917" lon="1.03689">
        <ele>261.323575</ele>
        <time>2023-01-03T11:31:03.798Z</time>
      </trkpt>
      <trkpt lat="43.66913" lon="1.03702">
        <ele>261.674071</ele>
        <time>2023-01-03T11:31:07.802Z</time>
      </trkpt>
      <trkpt lat="43.66908" lon="1.03715">
        <ele>261.745605</ele>
        <time>2023-01-03T11:31:11.807Z</time>
      </trkpt>
      <trkpt lat="43.66906" lon="1.03727">
        <ele>261.724254</ele>
        <time>2023-01-03T11:31:15.800Z</time>
      </trkpt>
      <trkpt lat="43.66902" lon="1.03741">
        <ele>261.699915</ele>
        <time>2023-01-03T11:31:19.814Z</time>
      </trkpt>
      <trkpt lat="43.66899" lon="1.03756">
        <ele>261.673555</ele>
        <time>2023-01-03T11:31:24.810Z</time>
      </trkpt>
      <trkpt lat="43.66898" lon="1.03772">
        <ele>261.646302</ele>
        <time>2023-01-03T11:31:28.807Z</time>
      </trkpt>
      <trkpt lat="43.66895" lon="1.03786">
        <ele>261.621414</ele>
        <time>2023-01-03T11:31:31.802Z</time>
      </trkpt>
      <trkpt lat="43.66894" lon="1.03804">
        <ele>261.592102</ele>
        <time>2023-01-03T11:31:34.805Z</time>
      </trkpt>
      <trkpt lat="43.66893" lon="1.03816">
        <ele>261.570656</ele>
        <time>2023-01-03T11:31:36.801Z</time>
      </trkpt>
      <trkpt lat="43.66892" lon="1.0383">
        <ele>261.54749</ele>
        <time>2023-01-03T11:31:38.799Z</time>
      </trkpt>
      <trkpt lat="43.6689" lon="1.03844">
        <ele>261.523296</ele>
        <time>2023-01-03T11:31:40.805Z</time>
      </trkpt>
      <trkpt lat="43.66889" lon="1.03859">
        <ele>261.497957</ele>
        <time>2023-01-03T11:31:42.801Z</time>
      </trkpt>
      <trkpt lat="43.66889" lon="1.03875">
        <ele>261.471907</ele>
        <time>2023-01-03T11:31:44.801Z</time>
      </trkpt>
      <trkpt lat="43.66889" lon="1.0389">
        <ele>261.447365</ele>
        <time>2023-01-03T11:31:46.809Z</time>
      </trkpt>
      <trkpt lat="43.66889" lon="1.03905">
        <ele>261.421147</ele>
        <time>2023-01-03T11:31:48.807Z</time>
      </trkpt>
      <trkpt lat="43.66888" lon="1.03921">
        <ele>261.395228</ele>
        <time>2023-01-03T11:31:50.806Z</time>
      </trkpt>
      <trkpt lat="43.66888" lon="1.03935">
        <ele>261.370842</ele>
        <time>2023-01-03T11:31:52.805Z</time>
      </trkpt>
      <trkpt lat="43.66887" lon="1.03948">
        <ele>261.349117</ele>
        <time>2023-01-03T11:31:54.812Z</time>
      </trkpt>
      <trkpt lat="43.66885" lon="1.03966">
        <ele>261.309509</ele>
        <time>2023-01-03T11:31:57.802Z</time>
      </trkpt>
      <trkpt lat="43.66881" lon="1.03981">
        <ele>261.2725</ele>
        <time>2023-01-03T11:32:00.807Z</time>
      </trkpt>
      <trkpt lat="43.66878" lon="1.03997">
        <ele>261.23531</ele>
        <time>2023-01-03T11:32:03.807Z</time>
      </trkpt>
      <trkpt lat="43.66873" lon="1.04013">
        <ele>261.19683</ele>
        <time>2023-01-03T11:32:06.807Z</time>
      </trkpt>
      <trkpt lat="43.66869" lon="1.04029">
        <ele>261.158345</ele>
        <time>2023-01-03T11:32:09.808Z</time>
      </trkpt>
      <trkpt lat="43.66864" lon="1.04045">
        <ele>261.120107</ele>
        <time>2023-01-03T11:32:12.820Z</time>
      </trkpt>
      <trkpt lat="43.66859" lon="1.04061">
        <ele>261.079972</ele>
        <time>2023-01-03T11:32:15.801Z</time>
      </trkpt>
      <trkpt lat="43.66853" lon="1.04078">
        <ele>261.037844</ele>
        <time>2023-01-03T11:32:18.807Z</time>
      </trkpt>
      <trkpt lat="43.66849" lon="1.0409">
        <ele>261.008005</ele>
        <time>2023-01-03T11:32:20.804Z</time>
      </trkpt>
      <trkpt lat="43.66845" lon="1.04103">
        <ele>260.97752</ele>
        <time>2023-01-03T11:32:22.808Z</time>
      </trkpt>
      <trkpt lat="43.66842" lon="1.04115">
        <ele>260.947035</ele>
        <time>2023-01-03T11:32:24.805Z</time>
      </trkpt>
      <trkpt lat="43.66838" lon="1.04129">
        <ele>260.914466</ele>
        <time>2023-01-03T11:32:26.813Z</time>
      </trkpt>
      <trkpt lat="43.66834" lon="1.04142">
        <ele>260.882289</ele>
        <time>2023-01-03T11:32:28.827Z</time>
      </trkpt>
      <trkpt lat="43.6683" lon="1.04156">
        <ele>260.849369</ele>
        <time>2023-01-03T11:32:30.812Z</time>
      </trkpt>
      <trkpt lat="43.66827" lon="1.04168">
        <ele>260.820084</ele>
        <time>2023-01-03T11:32:32.805Z</time>
      </trkpt>
      <trkpt lat="43.66824" lon="1.04181">
        <ele>260.789949</ele>
        <time>2023-01-03T11:32:34.810Z</time>
      </trkpt>
      <trkpt lat="43.6682" lon="1.04192">
        <ele>260.805936</ele>
        <time>2023-01-03T11:32:36.807Z</time>
      </trkpt>
      <trkpt lat="43.66816" lon="1.04204">
        <ele>260.828558</ele>
        <time>2023-01-03T11:32:38.810Z</time>
      </trkpt>
      <trkpt lat="43.66812" lon="1.04216">
        <ele>260.85181</ele>
        <time>2023-01-03T11:32:40.812Z</time>
      </trkpt>
      <trkpt lat="43.66807" lon="1.04231">
        <ele>260.881803</ele>
        <time>2023-01-03T11:32:43.797Z</time>
      </trkpt>
      <trkpt lat="43.66802" lon="1.04247">
        <ele>260.911388</ele>
        <time>2023-01-03T11:32:46.802Z</time>
      </trkpt>
      <trkpt lat="43.66797" lon="1.04263">
        <ele>260.943308</ele>
        <time>2023-01-03T11:32:49.806Z</time>
      </trkpt>
      <trkpt lat="43.66793" lon="1.04274">
        <ele>260.965613</ele>
        <time>2023-01-03T11:32:51.808Z</time>
      </trkpt>
      <trkpt lat="43.66788" lon="1.04286">
        <ele>260.989291</ele>
        <time>2023-01-03T11:32:53.803Z</time>
      </trkpt>
      <trkpt lat="43.66784" lon="1.04299">
        <ele>261.014174</ele>
        <time>2023-01-03T11:32:55.806Z</time>
      </trkpt>
      <trkpt lat="43.66781" lon="1.04314">
        <ele>261.040773</ele>
        <time>2023-01-03T11:32:57.813Z</time>
      </trkpt>
      <trkpt lat="43.66779" lon="1.04327">
        <ele>261.064607</ele>
        <time>2023-01-03T11:32:59.805Z</time>
      </trkpt>
      <trkpt lat="43.66777" lon="1.04342">
        <ele>261.091627</ele>
        <time>2023-01-03T11:33:01.811Z</time>
      </trkpt>
      <trkpt lat="43.66776" lon="1.04356">
        <ele>261.116324</ele>
        <time>2023-01-03T11:33:03.804Z</time>
      </trkpt>
      <trkpt lat="43.66776" lon="1.0437">
        <ele>261.140802</ele>
        <time>2023-01-03T11:33:05.806Z</time>
      </trkpt>
      <trkpt lat="43.66775" lon="1.04383">
        <ele>261.163808</ele>
        <time>2023-01-03T11:33:07.807Z</time>
      </trkpt>
      <trkpt lat="43.66775" lon="1.04395">
        <ele>261.185943</ele>
        <time>2023-01-03T11:33:09.805Z</time>
      </trkpt>
      <trkpt lat="43.66774" lon="1.04408">
        <ele>261.208586</ele>
        <time>2023-01-03T11:33:11.809Z</time>
      </trkpt>
      <trkpt lat="43.66775" lon="1.04426">
        <ele>261.288687</ele>
        <time>2023-01-03T11:33:14.803Z</time>
      </trkpt>
      <trkpt lat="43.66776" lon="1.04439">
        <ele>261.378558</ele>
        <time>2023-01-03T11:33:16.807Z</time>
      </trkpt>
      <trkpt lat="43.66778" lon="1.04457">
        <ele>261.510067</ele>
        <time>2023-01-03T11:33:19.808Z</time>
      </trkpt>
      <trkpt lat="43.66781" lon="1.04474">
        <ele>261.636591</ele>
        <time>2023-01-03T11:33:22.806Z</time>
      </trkpt>
      <trkpt lat="43.66784" lon="1.04492">
        <ele>261.770571</ele>
        <time>2023-01-03T11:33:25.825Z</time>
      </trkpt>
      <trkpt lat="43.66785" lon="1.04505">
        <ele>261.864738</ele>
        <time>2023-01-03T11:33:27.805Z</time>
      </trkpt>
      <trkpt lat="43.66786" lon="1.04523">
        <ele>261.991828</ele>
        <time>2023-01-03T11:33:30.801Z</time>
      </trkpt>
      <trkpt lat="43.66785" lon="1.0454">
        <ele>262.116584</ele>
        <time>2023-01-03T11:33:33.802Z</time>
      </trkpt>
      <trkpt lat="43.66784" lon="1.04559">
        <ele>262.250861</ele>
        <time>2023-01-03T11:33:36.799Z</time>
      </trkpt>
      <trkpt lat="43.66783" lon="1.04571">
        <ele>262.341344</ele>
        <time>2023-01-03T11:33:38.804Z</time>
      </trkpt>
      <trkpt lat="43.66782" lon="1.04587">
        <ele>262.459023</ele>
        <time>2023-01-03T11:33:41.805Z</time>
      </trkpt>
      <trkpt lat="43.66782" lon="1.04605">
        <ele>262.584499</ele>
        <time>2023-01-03T11:33:44.807Z</time>
      </trkpt>
      <trkpt lat="43.66781" lon="1.04622">
        <ele>262.706377</ele>
        <time>2023-01-03T11:33:47.801Z</time>
      </trkpt>
      <trkpt lat="43.6678" lon="1.04638">
        <ele>262.823677</ele>
        <time>2023-01-03T11:33:50.814Z</time>
      </trkpt>
      <trkpt lat="43.66778" lon="1.04656">
        <ele>262.95729</ele>
        <time>2023-01-03T11:33:53.808Z</time>
      </trkpt>
      <trkpt lat="43.66776" lon="1.04669">
        <ele>262.989217</ele>
        <time>2023-01-03T11:33:55.804Z</time>
      </trkpt>
      <trkpt lat="43.66773" lon="1.04683">
        <ele>262.900475</ele>
        <time>2023-01-03T11:33:57.809Z</time>
      </trkpt>
      <trkpt lat="43.66772" lon="1.04696">
        <ele>262.822338</ele>
        <time>2023-01-03T11:33:59.805Z</time>
      </trkpt>
      <trkpt lat="43.66769" lon="1.0471">
        <ele>262.730768</ele>
        <time>2023-01-03T11:34:01.810Z</time>
      </trkpt>
      <trkpt lat="43.66765" lon="1.04724">
        <ele>262.642814</ele>
        <time>2023-01-03T11:34:03.810Z</time>
      </trkpt>
      <trkpt lat="43.66761" lon="1.04736">
        <ele>262.560945</ele>
        <time>2023-01-03T11:34:05.806Z</time>
      </trkpt>
      <trkpt lat="43.66759" lon="1.04748">
        <ele>262.485035</ele>
        <time>2023-01-03T11:34:07.805Z</time>
      </trkpt>
      <trkpt lat="43.66755" lon="1.04765">
        <ele>262.380356</ele>
        <time>2023-01-03T11:34:10.811Z</time>
      </trkpt>
      <trkpt lat="43.66751" lon="1.04782">
        <ele>262.270615</ele>
        <time>2023-01-03T11:34:13.805Z</time>
      </trkpt>
      <trkpt lat="43.66747" lon="1.04794">
        <ele>262.193586</ele>
        <time>2023-01-03T11:34:15.804Z</time>
      </trkpt>
      <trkpt lat="43.66743" lon="1.04807">
        <ele>262.110404</ele>
        <time>2023-01-03T11:34:17.807Z</time>
      </trkpt>
      <trkpt lat="43.66741" lon="1.04819">
        <ele>262.033029</ele>
        <time>2023-01-03T11:34:19.808Z</time>
      </trkpt>
      <trkpt lat="43.66737" lon="1.04832">
        <ele>261.94851</ele>
        <time>2023-01-03T11:34:21.808Z</time>
      </trkpt>
      <trkpt lat="43.66734" lon="1.04845">
        <ele>261.865692</ele>
        <time>2023-01-03T11:34:23.806Z</time>
      </trkpt>
      <trkpt lat="43.66731" lon="1.04857">
        <ele>261.78894</ele>
        <time>2023-01-03T11:34:25.811Z</time>
      </trkpt>
      <trkpt lat="43.66727" lon="1.04875">
        <ele>261.675755</ele>
        <time>2023-01-03T11:34:28.813Z</time>
      </trkpt>
      <trkpt lat="43.66722" lon="1.04892">
        <ele>261.564331</ele>
        <time>2023-01-03T11:34:31.807Z</time>
      </trkpt>
      <trkpt lat="43.66719" lon="1.04905">
        <ele>261.436004</ele>
        <time>2023-01-03T11:34:33.807Z</time>
      </trkpt>
      <trkpt lat="43.66715" lon="1.04922">
        <ele>261.155444</ele>
        <time>2023-01-03T11:34:36.809Z</time>
      </trkpt>
      <trkpt lat="43.66712" lon="1.04936">
        <ele>260.942358</ele>
        <time>2023-01-03T11:34:38.810Z</time>
      </trkpt>
      <trkpt lat="43.66709" lon="1.04949">
        <ele>260.731749</ele>
        <time>2023-01-03T11:34:40.816Z</time>
      </trkpt>
      <trkpt lat="43.66706" lon="1.04962">
        <ele>260.519863</ele>
        <time>2023-01-03T11:34:42.817Z</time>
      </trkpt>
      <trkpt lat="43.66701" lon="1.0498">
        <ele>260.230652</ele>
        <time>2023-01-03T11:34:45.805Z</time>
      </trkpt>
      <trkpt lat="43.66697" lon="1.04997">
        <ele>259.956279</ele>
        <time>2023-01-03T11:34:48.803Z</time>
      </trkpt>
      <trkpt lat="43.66694" lon="1.05014">
        <ele>259.692763</ele>
        <time>2023-01-03T11:34:51.813Z</time>
      </trkpt>
      <trkpt lat="43.6669" lon="1.05029">
        <ele>259.456529</ele>
        <time>2023-01-03T11:34:54.802Z</time>
      </trkpt>
      <trkpt lat="43.66687" lon="1.05044">
        <ele>259.203546</ele>
        <time>2023-01-03T11:34:57.813Z</time>
      </trkpt>
      <trkpt lat="43.66685" lon="1.05061">
        <ele>258.941031</ele>
        <time>2023-01-03T11:35:00.821Z</time>
      </trkpt>
      <trkpt lat="43.66683" lon="1.05078">
        <ele>258.680345</ele>
        <time>2023-01-03T11:35:03.808Z</time>
      </trkpt>
      <trkpt lat="43.66682" lon="1.05092">
        <ele>258.478118</ele>
        <time>2023-01-03T11:35:05.799Z</time>
      </trkpt>
      <trkpt lat="43.6668" lon="1.05106">
        <ele>258.257859</ele>
        <time>2023-01-03T11:35:07.808Z</time>
      </trkpt>
      <trkpt lat="43.66679" lon="1.05121">
        <ele>258.025559</ele>
        <time>2023-01-03T11:35:09.814Z</time>
      </trkpt>
      <trkpt lat="43.66677" lon="1.05137">
        <ele>257.780706</ele>
        <time>2023-01-03T11:35:11.810Z</time>
      </trkpt>
      <trkpt lat="43.66676" lon="1.05154">
        <ele>257.466466</ele>
        <time>2023-01-03T11:35:13.805Z</time>
      </trkpt>
      <trkpt lat="43.66674" lon="1.05171">
        <ele>257.143508</ele>
        <time>2023-01-03T11:35:15.809Z</time>
      </trkpt>
      <trkpt lat="43.66673" lon="1.05189">
        <ele>256.804329</ele>
        <time>2023-01-03T11:35:17.807Z</time>
      </trkpt>
      <trkpt lat="43.66673" lon="1.05206">
        <ele>256.480888</ele>
        <time>2023-01-03T11:35:19.816Z</time>
      </trkpt>
      <trkpt lat="43.66672" lon="1.05224">
        <ele>256.136243</ele>
        <time>2023-01-03T11:35:21.812Z</time>
      </trkpt>
      <trkpt lat="43.66671" lon="1.05242">
        <ele>255.798285</ele>
        <time>2023-01-03T11:35:23.816Z</time>
      </trkpt>
      <trkpt lat="43.6667" lon="1.0526">
        <ele>255.443971</ele>
        <time>2023-01-03T11:35:25.807Z</time>
      </trkpt>
      <trkpt lat="43.66669" lon="1.05279">
        <ele>255.082286</ele>
        <time>2023-01-03T11:35:27.813Z</time>
      </trkpt>
      <trkpt lat="43.66668" lon="1.053">
        <ele>254.69236</ele>
        <time>2023-01-03T11:35:29.812Z</time>
      </trkpt>
      <trkpt lat="43.66667" lon="1.05321">
        <ele>254.294942</ele>
        <time>2023-01-03T11:35:31.808Z</time>
      </trkpt>
      <trkpt lat="43.66665" lon="1.05342">
        <ele>253.892798</ele>
        <time>2023-01-03T11:35:33.806Z</time>
      </trkpt>
      <trkpt lat="43.66663" lon="1.05363">
        <ele>253.482779</ele>
        <time>2023-01-03T11:35:35.811Z</time>
      </trkpt>
      <trkpt lat="43.66661" lon="1.05385">
        <ele>253.069338</ele>
        <time>2023-01-03T11:35:37.809Z</time>
      </trkpt>
      <trkpt lat="43.66658" lon="1.05406">
        <ele>252.871266</ele>
        <time>2023-01-03T11:35:39.808Z</time>
      </trkpt>
      <trkpt lat="43.66656" lon="1.05427">
        <ele>252.711703</ele>
        <time>2023-01-03T11:35:41.817Z</time>
      </trkpt>
      <trkpt lat="43.66655" lon="1.05448">
        <ele>252.558289</ele>
        <time>2023-01-03T11:35:43.802Z</time>
      </trkpt>
      <trkpt lat="43.66653" lon="1.05468">
        <ele>252.409423</ele>
        <time>2023-01-03T11:35:45.810Z</time>
      </trkpt>
      <trkpt lat="43.66652" lon="1.05487">
        <ele>252.268527</ele>
        <time>2023-01-03T11:35:47.807Z</time>
      </trkpt>
      <trkpt lat="43.66652" lon="1.05505">
        <ele>252.134635</ele>
        <time>2023-01-03T11:35:49.827Z</time>
      </trkpt>
      <trkpt lat="43.66651" lon="1.05521">
        <ele>252.013094</ele>
        <time>2023-01-03T11:35:51.808Z</time>
      </trkpt>
      <trkpt lat="43.6665" lon="1.05535">
        <ele>251.907338</ele>
        <time>2023-01-03T11:35:53.803Z</time>
      </trkpt>
      <trkpt lat="43.66649" lon="1.05553">
        <ele>251.773477</ele>
        <time>2023-01-03T11:35:56.818Z</time>
      </trkpt>
      <trkpt lat="43.66648" lon="1.05567">
        <ele>251.671432</ele>
        <time>2023-01-03T11:35:59.815Z</time>
      </trkpt>
      <trkpt lat="43.66647" lon="1.05582">
        <ele>251.559228</ele>
        <time>2023-01-03T11:36:03.803Z</time>
      </trkpt>
      <trkpt lat="43.66646" lon="1.05595">
        <ele>251.458839</ele>
        <time>2023-01-03T11:36:08.819Z</time>
      </trkpt>
      <trkpt lat="43.66644" lon="1.0561">
        <ele>251.348464</ele>
        <time>2023-01-03T11:36:14.804Z</time>
      </trkpt>
      <trkpt lat="43.66644" lon="1.05624">
        <ele>251.239676</ele>
        <time>2023-01-03T11:36:20.807Z</time>
      </trkpt>
      <trkpt lat="43.66641" lon="1.05638">
        <ele>251.129533</ele>
        <time>2023-01-03T11:36:25.808Z</time>
      </trkpt>
      <trkpt lat="43.66639" lon="1.05654">
        <ele>251.00424</ele>
        <time>2023-01-03T11:36:29.823Z</time>
      </trkpt>
      <trkpt lat="43.66638" lon="1.05667">
        <ele>250.903423</ele>
        <time>2023-01-03T11:36:32.811Z</time>
      </trkpt>
      <trkpt lat="43.66637" lon="1.05679">
        <ele>250.804664</ele>
        <time>2023-01-03T11:36:35.800Z</time>
      </trkpt>
      <trkpt lat="43.66635" lon="1.05693">
        <ele>250.694913</ele>
        <time>2023-01-03T11:36:38.802Z</time>
      </trkpt>
      <trkpt lat="43.66634" lon="1.05708">
        <ele>250.573356</ele>
        <time>2023-01-03T11:36:41.802Z</time>
      </trkpt>
      <trkpt lat="43.66632" lon="1.05725">
        <ele>250.439795</ele>
        <time>2023-01-03T11:36:44.803Z</time>
      </trkpt>
      <trkpt lat="43.66631" lon="1.05743">
        <ele>250.296714</ele>
        <time>2023-01-03T11:36:47.805Z</time>
      </trkpt>
      <trkpt lat="43.66629" lon="1.05755">
        <ele>250.198011</ele>
        <time>2023-01-03T11:36:49.803Z</time>
      </trkpt>
      <trkpt lat="43.66628" lon="1.05773">
        <ele>250.06118</ele>
        <time>2023-01-03T11:36:52.812Z</time>
      </trkpt>
      <trkpt lat="43.66625" lon="1.05789">
        <ele>249.926798</ele>
        <time>2023-01-03T11:36:55.814Z</time>
      </trkpt>
      <trkpt lat="43.66624" lon="1.05805">
        <ele>249.806346</ele>
        <time>2023-01-03T11:36:58.809Z</time>
      </trkpt>
      <trkpt lat="43.66622" lon="1.0582">
        <ele>249.681219</ele>
        <time>2023-01-03T11:37:01.801Z</time>
      </trkpt>
      <trkpt lat="43.6662" lon="1.05836">
        <ele>249.552811</ele>
        <time>2023-01-03T11:37:04.805Z</time>
      </trkpt>
      <trkpt lat="43.66619" lon="1.05853">
        <ele>249.423784</ele>
        <time>2023-01-03T11:37:07.806Z</time>
      </trkpt>
      <trkpt lat="43.66617" lon="1.05869">
        <ele>249.295427</ele>
        <time>2023-01-03T11:37:10.807Z</time>
      </trkpt>
      <trkpt lat="43.66616" lon="1.05884">
        <ele>249.260715</ele>
        <time>2023-01-03T11:37:13.807Z</time>
      </trkpt>
      <trkpt lat="43.66615" lon="1.05898">
        <ele>249.533605</ele>
        <time>2023-01-03T11:37:16.821Z</time>
      </trkpt>
      <trkpt lat="43.66614" lon="1.05911">
        <ele>249.799269</ele>
        <time>2023-01-03T11:37:19.810Z</time>
      </trkpt>
      <trkpt lat="43.66612" lon="1.05925">
        <ele>250.068292</ele>
        <time>2023-01-03T11:37:22.809Z</time>
      </trkpt>
      <trkpt lat="43.66612" lon="1.05938">
        <ele>250.332784</ele>
        <time>2023-01-03T11:37:25.800Z</time>
      </trkpt>
      <trkpt lat="43.66611" lon="1.05955">
        <ele>250.650141</ele>
        <time>2023-01-03T11:37:29.804Z</time>
      </trkpt>
      <trkpt lat="43.66609" lon="1.0597">
        <ele>250.952445</ele>
        <time>2023-01-03T11:37:33.802Z</time>
      </trkpt>
      <trkpt lat="43.66608" lon="1.05985">
        <ele>251.249221</ele>
        <time>2023-01-03T11:37:37.801Z</time>
      </trkpt>
      <trkpt lat="43.66607" lon="1.05999">
        <ele>251.531784</ele>
        <time>2023-01-03T11:37:41.805Z</time>
      </trkpt>
      <trkpt lat="43.66606" lon="1.06012">
        <ele>251.778549</ele>
        <time>2023-01-03T11:37:45.809Z</time>
      </trkpt>
      <trkpt lat="43.66605" lon="1.06025">
        <ele>252.03031</ele>
        <time>2023-01-03T11:37:49.800Z</time>
      </trkpt>
      <trkpt lat="43.66604" lon="1.06037">
        <ele>252.27809</ele>
        <time>2023-01-03T11:37:53.808Z</time>
      </trkpt>
      <trkpt lat="43.66603" lon="1.0605">
        <ele>252.530713</ele>
        <time>2023-01-03T11:37:58.807Z</time>
      </trkpt>
      <trkpt lat="43.66602" lon="1.06065">
        <ele>252.817147</ele>
        <time>2023-01-03T11:38:03.797Z</time>
      </trkpt>
      <trkpt lat="43.666" lon="1.06079">
        <ele>253.106748</ele>
        <time>2023-01-03T11:38:08.809Z</time>
      </trkpt>
      <trkpt lat="43.66598" lon="1.06094">
        <ele>253.40168</ele>
        <time>2023-01-03T11:38:13.816Z</time>
      </trkpt>
      <trkpt lat="43.66597" lon="1.06109">
        <ele>253.702049</ele>
        <time>2023-01-03T11:38:18.810Z</time>
      </trkpt>
      <trkpt lat="43.66595" lon="1.06122">
        <ele>253.956538</ele>
        <time>2023-01-03T11:38:22.811Z</time>
      </trkpt>
      <trkpt lat="43.66593" lon="1.06135">
        <ele>254.103854</ele>
        <time>2023-01-03T11:38:26.801Z</time>
      </trkpt>
      <trkpt lat="43.66591" lon="1.06149">
        <ele>254.173671</ele>
        <time>2023-01-03T11:38:30.817Z</time>
      </trkpt>
      <trkpt lat="43.66589" lon="1.06162">
        <ele>254.240992</ele>
        <time>2023-01-03T11:38:34.820Z</time>
      </trkpt>
      <trkpt lat="43.66588" lon="1.06175">
        <ele>254.310397</ele>
        <time>2023-01-03T11:38:38.793Z</time>
      </trkpt>
      <trkpt lat="43.66586" lon="1.06188">
        <ele>254.374728</ele>
        <time>2023-01-03T11:38:42.798Z</time>
      </trkpt>
      <trkpt lat="43.66583" lon="1.062">
        <ele>254.442476</ele>
        <time>2023-01-03T11:38:46.805Z</time>
      </trkpt>
      <trkpt lat="43.6658" lon="1.06215">
        <ele>254.51963</ele>
        <time>2023-01-03T11:38:51.802Z</time>
      </trkpt>
      <trkpt lat="43.66577" lon="1.06227">
        <ele>254.587051</ele>
        <time>2023-01-03T11:38:55.818Z</time>
      </trkpt>
      <trkpt lat="43.66573" lon="1.0624">
        <ele>254.659031</ele>
        <time>2023-01-03T11:38:59.853Z</time>
      </trkpt>
      <trkpt lat="43.6657" lon="1.06255">
        <ele>254.738755</ele>
        <time>2023-01-03T11:39:03.804Z</time>
      </trkpt>
      <trkpt lat="43.66566" lon="1.06269">
        <ele>254.814832</ele>
        <time>2023-01-03T11:39:07.807Z</time>
      </trkpt>
      <trkpt lat="43.66563" lon="1.06282">
        <ele>254.884892</ele>
        <time>2023-01-03T11:39:11.812Z</time>
      </trkpt>
      <trkpt lat="43.66559" lon="1.06295">
        <ele>254.956391</ele>
        <time>2023-01-03T11:39:15.820Z</time>
      </trkpt>
      <trkpt lat="43.66555" lon="1.0631">
        <ele>255.037099</ele>
        <time>2023-01-03T11:39:19.816Z</time>
      </trkpt>
      <trkpt lat="43.66551" lon="1.06322">
        <ele>255.106095</ele>
        <time>2023-01-03T11:39:22.834Z</time>
      </trkpt>
      <trkpt lat="43.66547" lon="1.06336">
        <ele>255.179868</ele>
        <time>2023-01-03T11:39:25.799Z</time>
      </trkpt>
      <trkpt lat="43.66543" lon="1.0635">
        <ele>255.259286</ele>
        <time>2023-01-03T11:39:28.802Z</time>
      </trkpt>
      <trkpt lat="43.66539" lon="1.06367">
        <ele>255.16422</ele>
        <time>2023-01-03T11:39:31.809Z</time>
      </trkpt>
      <trkpt lat="43.66536" lon="1.06385">
        <ele>254.342401</ele>
        <time>2023-01-03T11:39:34.842Z</time>
      </trkpt>
      <trkpt lat="43.66535" lon="1.06399">
        <ele>253.73904</ele>
        <time>2023-01-03T11:39:36.822Z</time>
      </trkpt>
      <trkpt lat="43.66535" lon="1.06413">
        <ele>253.142349</ele>
        <time>2023-01-03T11:39:38.821Z</time>
      </trkpt>
      <trkpt lat="43.66536" lon="1.06426">
        <ele>252.550067</ele>
        <time>2023-01-03T11:39:40.852Z</time>
      </trkpt>
      <trkpt lat="43.66539" lon="1.06439">
        <ele>251.956224</ele>
        <time>2023-01-03T11:39:42.804Z</time>
      </trkpt>
      <trkpt lat="43.66543" lon="1.06453">
        <ele>251.325427</ele>
        <time>2023-01-03T11:39:44.808Z</time>
      </trkpt>
      <trkpt lat="43.66547" lon="1.06467">
        <ele>250.661424</ele>
        <time>2023-01-03T11:39:46.866Z</time>
      </trkpt>
      <trkpt lat="43.66552" lon="1.06481">
        <ele>249.973721</ele>
        <time>2023-01-03T11:39:48.807Z</time>
      </trkpt>
      <trkpt lat="43.66557" lon="1.06494">
        <ele>249.352677</ele>
        <time>2023-01-03T11:39:50.819Z</time>
      </trkpt>
      <trkpt lat="43.66562" lon="1.06507">
        <ele>248.717211</ele>
        <time>2023-01-03T11:39:52.839Z</time>
      </trkpt>
      <trkpt lat="43.66567" lon="1.0652">
        <ele>248.069986</ele>
        <time>2023-01-03T11:39:54.801Z</time>
      </trkpt>
      <trkpt lat="43.66571" lon="1.06535">
        <ele>247.362163</ele>
        <time>2023-01-03T11:39:56.819Z</time>
      </trkpt>
      <trkpt lat="43.66577" lon="1.0655">
        <ele>246.633752</ele>
        <time>2023-01-03T11:39:58.805Z</time>
      </trkpt>
      <trkpt lat="43.66582" lon="1.06565">
        <ele>245.901462</ele>
        <time>2023-01-03T11:40:00.803Z</time>
      </trkpt>
      <trkpt lat="43.66587" lon="1.0658">
        <ele>245.15351</ele>
        <time>2023-01-03T11:40:02.810Z</time>
      </trkpt>
      <trkpt lat="43.66593" lon="1.06595">
        <ele>244.449384</ele>
        <time>2023-01-03T11:40:04.806Z</time>
      </trkpt>
      <trkpt lat="43.66598" lon="1.06611">
        <ele>243.896724</ele>
        <time>2023-01-03T11:40:06.803Z</time>
      </trkpt>
      <trkpt lat="43.66604" lon="1.06627">
        <ele>243.310283</ele>
        <time>2023-01-03T11:40:08.800Z</time>
      </trkpt>
      <trkpt lat="43.66609" lon="1.06645">
        <ele>242.684869</ele>
        <time>2023-01-03T11:40:10.804Z</time>
      </trkpt>
      <trkpt lat="43.66614" lon="1.06663">
        <ele>242.062471</ele>
        <time>2023-01-03T11:40:12.803Z</time>
      </trkpt>
      <trkpt lat="43.66618" lon="1.06684">
        <ele>241.371605</ele>
        <time>2023-01-03T11:40:14.819Z</time>
      </trkpt>
      <trkpt lat="43.66621" lon="1.06704">
        <ele>240.697798</ele>
        <time>2023-01-03T11:40:16.805Z</time>
      </trkpt>
      <trkpt lat="43.66624" lon="1.06726">
        <ele>239.994158</ele>
        <time>2023-01-03T11:40:18.811Z</time>
      </trkpt>
      <trkpt lat="43.66626" lon="1.06747">
        <ele>239.288744</ele>
        <time>2023-01-03T11:40:20.819Z</time>
      </trkpt>
      <trkpt lat="43.66628" lon="1.06769">
        <ele>238.577274</ele>
        <time>2023-01-03T11:40:22.829Z</time>
      </trkpt>
      <trkpt lat="43.6663" lon="1.06791">
        <ele>237.873619</ele>
        <time>2023-01-03T11:40:24.811Z</time>
      </trkpt>
      <trkpt lat="43.66631" lon="1.06812">
        <ele>237.188311</ele>
        <time>2023-01-03T11:40:26.798Z</time>
      </trkpt>
      <trkpt lat="43.66633" lon="1.06833">
        <ele>236.5057</ele>
        <time>2023-01-03T11:40:28.805Z</time>
      </trkpt>
      <trkpt lat="43.66635" lon="1.06854">
        <ele>236.409</ele>
        <time>2023-01-03T11:40:30.818Z</time>
      </trkpt>
      <trkpt lat="43.66636" lon="1.06873">
        <ele>236.340818</ele>
        <time>2023-01-03T11:40:32.805Z</time>
      </trkpt>
      <trkpt lat="43.66637" lon="1.06894">
        <ele>236.269405</ele>
        <time>2023-01-03T11:40:34.813Z</time>
      </trkpt>
      <trkpt lat="43.66639" lon="1.06914">
        <ele>236.200483</ele>
        <time>2023-01-03T11:40:36.822Z</time>
      </trkpt>
      <trkpt lat="43.66641" lon="1.06934">
        <ele>236.131913</ele>
        <time>2023-01-03T11:40:38.872Z</time>
      </trkpt>
      <trkpt lat="43.66642" lon="1.06953">
        <ele>236.067188</ele>
        <time>2023-01-03T11:40:40.821Z</time>
      </trkpt>
      <trkpt lat="43.66644" lon="1.06971">
        <ele>236.003489</ele>
        <time>2023-01-03T11:40:42.817Z</time>
      </trkpt>
      <trkpt lat="43.66646" lon="1.06989">
        <ele>235.942277</ele>
        <time>2023-01-03T11:40:44.888Z</time>
      </trkpt>
      <trkpt lat="43.66647" lon="1.07006">
        <ele>235.884165</ele>
        <time>2023-01-03T11:40:46.805Z</time>
      </trkpt>
      <trkpt lat="43.66648" lon="1.0702">
        <ele>235.833643</ele>
        <time>2023-01-03T11:40:48.820Z</time>
      </trkpt>
      <trkpt lat="43.66649" lon="1.07033">
        <ele>235.791107</ele>
        <time>2023-01-03T11:40:50.881Z</time>
      </trkpt>
      <trkpt lat="43.6665" lon="1.07048">
        <ele>235.737132</ele>
        <time>2023-01-03T11:40:53.815Z</time>
      </trkpt>
      <trkpt lat="43.6665" lon="1.07061">
        <ele>235.693542</ele>
        <time>2023-01-03T11:40:56.898Z</time>
      </trkpt>
      <trkpt lat="43.66651" lon="1.07074">
        <ele>235.650637</ele>
        <time>2023-01-03T11:40:59.818Z</time>
      </trkpt>
      <trkpt lat="43.66652" lon="1.07086">
        <ele>235.757239</ele>
        <time>2023-01-03T11:41:02.879Z</time>
      </trkpt>
      <trkpt lat="43.66653" lon="1.07102">
        <ele>236.162219</ele>
        <time>2023-01-03T11:41:06.811Z</time>
      </trkpt>
      <trkpt lat="43.66653" lon="1.07117">
        <ele>236.528151</ele>
        <time>2023-01-03T11:41:10.828Z</time>
      </trkpt>
      <trkpt lat="43.66654" lon="1.07132">
        <ele>236.917658</ele>
        <time>2023-01-03T11:41:15.814Z</time>
      </trkpt>
      <trkpt lat="43.66656" lon="1.07147">
        <ele>237.308677</ele>
        <time>2023-01-03T11:41:20.866Z</time>
      </trkpt>
      <trkpt lat="43.66658" lon="1.07163">
        <ele>237.704778</ele>
        <time>2023-01-03T11:41:25.833Z</time>
      </trkpt>
      <trkpt lat="43.66659" lon="1.07176">
        <ele>238.048056</ele>
        <time>2023-01-03T11:41:30.816Z</time>
      </trkpt>
      <trkpt lat="43.66659" lon="1.07189">
        <ele>238.382756</ele>
        <time>2023-01-03T11:41:35.820Z</time>
      </trkpt>
      <trkpt lat="43.6666" lon="1.07203">
        <ele>238.728221</ele>
        <time>2023-01-03T11:41:40.823Z</time>
      </trkpt>
      <trkpt lat="43.6666" lon="1.07216">
        <ele>239.05813</ele>
        <time>2023-01-03T11:41:45.829Z</time>
      </trkpt>
      <trkpt lat="43.66661" lon="1.07229">
        <ele>239.401064</ele>
        <time>2023-01-03T11:41:50.897Z</time>
      </trkpt>
      <trkpt lat="43.6666" lon="1.07243">
        <ele>239.759183</ele>
        <time>2023-01-03T11:41:55.820Z</time>
      </trkpt>
      <trkpt lat="43.6666" lon="1.07257">
        <ele>240.111683</ele>
        <time>2023-01-03T11:42:00.826Z</time>
      </trkpt>
      <trkpt lat="43.6666" lon="1.0727">
        <ele>240.426101</ele>
        <time>2023-01-03T11:42:05.830Z</time>
      </trkpt>
      <trkpt lat="43.6666" lon="1.07283">
        <ele>240.758247</ele>
        <time>2023-01-03T11:42:10.832Z</time>
      </trkpt>
      <trkpt lat="43.6666" lon="1.07296">
        <ele>241.098885</ele>
        <time>2023-01-03T11:42:15.819Z</time>
      </trkpt>
      <trkpt lat="43.66659" lon="1.07312">
        <ele>241.495411</ele>
        <time>2023-01-03T11:42:20.886Z</time>
      </trkpt>
      <trkpt lat="43.66659" lon="1.07326">
        <ele>241.847859</ele>
        <time>2023-01-03T11:42:24.825Z</time>
      </trkpt>
      <trkpt lat="43.66658" lon="1.0734">
        <ele>241.782587</ele>
        <time>2023-01-03T11:42:28.822Z</time>
      </trkpt>
      <trkpt lat="43.66657" lon="1.07352">
        <ele>241.612012</ele>
        <time>2023-01-03T11:42:32.829Z</time>
      </trkpt>
      <trkpt lat="43.66657" lon="1.07365">
        <ele>241.443673</ele>
        <time>2023-01-03T11:42:36.885Z</time>
      </trkpt>
      <trkpt lat="43.66655" lon="1.07377">
        <ele>241.267864</ele>
        <time>2023-01-03T11:42:40.824Z</time>
      </trkpt>
      <trkpt lat="43.66654" lon="1.0739">
        <ele>241.09206</ele>
        <time>2023-01-03T11:42:44.822Z</time>
      </trkpt>
      <trkpt lat="43.66653" lon="1.07404">
        <ele>240.910415</ele>
        <time>2023-01-03T11:42:48.881Z</time>
      </trkpt>
      <trkpt lat="43.66653" lon="1.07417">
        <ele>240.726193</ele>
        <time>2023-01-03T11:42:51.819Z</time>
      </trkpt>
      <trkpt lat="43.66653" lon="1.0743">
        <ele>240.557001</ele>
        <time>2023-01-03T11:42:53.821Z</time>
      </trkpt>
      <trkpt lat="43.66654" lon="1.07444">
        <ele>240.368537</ele>
        <time>2023-01-03T11:42:55.825Z</time>
      </trkpt>
      <trkpt lat="43.66654" lon="1.07459">
        <ele>240.15739</ele>
        <time>2023-01-03T11:42:57.821Z</time>
      </trkpt>
      <trkpt lat="43.66655" lon="1.07475">
        <ele>239.940547</ele>
        <time>2023-01-03T11:42:59.831Z</time>
      </trkpt>
      <trkpt lat="43.66654" lon="1.07493">
        <ele>239.696918</ele>
        <time>2023-01-03T11:43:01.826Z</time>
      </trkpt>
      <trkpt lat="43.66654" lon="1.07512">
        <ele>239.439756</ele>
        <time>2023-01-03T11:43:03.833Z</time>
      </trkpt>
      <trkpt lat="43.66654" lon="1.07532">
        <ele>239.170185</ele>
        <time>2023-01-03T11:43:05.823Z</time>
      </trkpt>
      <trkpt lat="43.66653" lon="1.07552">
        <ele>238.900432</ele>
        <time>2023-01-03T11:43:07.813Z</time>
      </trkpt>
      <trkpt lat="43.66652" lon="1.07572">
        <ele>238.626875</ele>
        <time>2023-01-03T11:43:09.833Z</time>
      </trkpt>
      <trkpt lat="43.66652" lon="1.07593">
        <ele>238.498106</ele>
        <time>2023-01-03T11:43:11.831Z</time>
      </trkpt>
      <trkpt lat="43.66652" lon="1.07613">
        <ele>238.415663</ele>
        <time>2023-01-03T11:43:13.810Z</time>
      </trkpt>
      <trkpt lat="43.6665" lon="1.07633">
        <ele>238.329098</ele>
        <time>2023-01-03T11:43:15.832Z</time>
      </trkpt>
      <trkpt lat="43.66648" lon="1.07653">
        <ele>238.246011</ele>
        <time>2023-01-03T11:43:17.828Z</time>
      </trkpt>
      <trkpt lat="43.66645" lon="1.07672">
        <ele>238.163023</ele>
        <time>2023-01-03T11:43:19.821Z</time>
      </trkpt>
      <trkpt lat="43.6664" lon="1.0769">
        <ele>238.083144</ele>
        <time>2023-01-03T11:43:21.821Z</time>
      </trkpt>
      <trkpt lat="43.66635" lon="1.07708">
        <ele>238.004756</ele>
        <time>2023-01-03T11:43:23.819Z</time>
      </trkpt>
      <trkpt lat="43.6663" lon="1.07724">
        <ele>237.931193</ele>
        <time>2023-01-03T11:43:25.818Z</time>
      </trkpt>
      <trkpt lat="43.66625" lon="1.07739">
        <ele>237.864654</ele>
        <time>2023-01-03T11:43:27.818Z</time>
      </trkpt>
      <trkpt lat="43.66621" lon="1.07751">
        <ele>237.806367</ele>
        <time>2023-01-03T11:43:29.817Z</time>
      </trkpt>
      <trkpt lat="43.66617" lon="1.07763">
        <ele>237.754035</ele>
        <time>2023-01-03T11:43:31.817Z</time>
      </trkpt>
      <trkpt lat="43.66613" lon="1.07778">
        <ele>237.685265</ele>
        <time>2023-01-03T11:43:34.817Z</time>
      </trkpt>
      <trkpt lat="43.6661" lon="1.07794">
        <ele>237.617905</ele>
        <time>2023-01-03T11:43:37.822Z</time>
      </trkpt>
      <trkpt lat="43.66608" lon="1.07808">
        <ele>237.55767</ele>
        <time>2023-01-03T11:43:40.810Z</time>
      </trkpt>
      <trkpt lat="43.66607" lon="1.07822">
        <ele>237.427512</ele>
        <time>2023-01-03T11:43:43.823Z</time>
      </trkpt>
      <trkpt lat="43.66608" lon="1.07836">
        <ele>237.217804</ele>
        <time>2023-01-03T11:43:46.822Z</time>
      </trkpt>
      <trkpt lat="43.6661" lon="1.07851">
        <ele>236.986662</ele>
        <time>2023-01-03T11:43:49.804Z</time>
      </trkpt>
      <trkpt lat="43.66613" lon="1.07868">
        <ele>236.725402</ele>
        <time>2023-01-03T11:43:52.867Z</time>
      </trkpt>
      <trkpt lat="43.66615" lon="1.07881">
        <ele>236.525594</ele>
        <time>2023-01-03T11:43:54.819Z</time>
      </trkpt>
      <trkpt lat="43.66616" lon="1.07896">
        <ele>236.307092</ele>
        <time>2023-01-03T11:43:56.815Z</time>
      </trkpt>
      <trkpt lat="43.66619" lon="1.07911">
        <ele>236.07186</ele>
        <time>2023-01-03T11:43:58.919Z</time>
      </trkpt>
      <trkpt lat="43.66621" lon="1.07927">
        <ele>235.840587</ele>
        <time>2023-01-03T11:44:00.833Z</time>
      </trkpt>
      <trkpt lat="43.66624" lon="1.07942">
        <ele>235.603877</ele>
        <time>2023-01-03T11:44:02.831Z</time>
      </trkpt>
      <trkpt lat="43.66626" lon="1.07958">
        <ele>235.361397</ele>
        <time>2023-01-03T11:44:04.878Z</time>
      </trkpt>
      <trkpt lat="43.66629" lon="1.07975">
        <ele>235.107297</ele>
        <time>2023-01-03T11:44:06.831Z</time>
      </trkpt>
      <trkpt lat="43.66631" lon="1.07992">
        <ele>234.848943</ele>
        <time>2023-01-03T11:44:08.828Z</time>
      </trkpt>
      <trkpt lat="43.66633" lon="1.08008">
        <ele>234.606613</ele>
        <time>2023-01-03T11:44:10.886Z</time>
      </trkpt>
      <trkpt lat="43.66634" lon="1.08024">
        <ele>234.359938</ele>
        <time>2023-01-03T11:44:12.816Z</time>
      </trkpt>
      <trkpt lat="43.66636" lon="1.08042">
        <ele>234.092125</ele>
        <time>2023-01-03T11:44:14.819Z</time>
      </trkpt>
      <trkpt lat="43.66637" lon="1.0806">
        <ele>233.831002</ele>
        <time>2023-01-03T11:44:16.870Z</time>
      </trkpt>
      <trkpt lat="43.66638" lon="1.08078">
        <ele>233.512099</ele>
        <time>2023-01-03T11:44:18.823Z</time>
      </trkpt>
      <trkpt lat="43.66639" lon="1.08097">
        <ele>233.188398</ele>
        <time>2023-01-03T11:44:20.808Z</time>
      </trkpt>
      <trkpt lat="43.6664" lon="1.08116">
        <ele>232.861528</ele>
        <time>2023-01-03T11:44:22.844Z</time>
      </trkpt>
      <trkpt lat="43.66641" lon="1.08134">
        <ele>232.546357</ele>
        <time>2023-01-03T11:44:24.813Z</time>
      </trkpt>
      <trkpt lat="43.66641" lon="1.08152">
        <ele>232.238309</ele>
        <time>2023-01-03T11:44:26.807Z</time>
      </trkpt>
      <trkpt lat="43.66642" lon="1.08169">
        <ele>231.942044</ele>
        <time>2023-01-03T11:44:28.867Z</time>
      </trkpt>
      <trkpt lat="43.66642" lon="1.08186">
        <ele>231.645883</ele>
        <time>2023-01-03T11:44:30.830Z</time>
      </trkpt>
      <trkpt lat="43.66643" lon="1.08204">
        <ele>231.337468</ele>
        <time>2023-01-03T11:44:32.827Z</time>
      </trkpt>
      <trkpt lat="43.66644" lon="1.08221">
        <ele>231.042796</ele>
        <time>2023-01-03T11:44:34.882Z</time>
      </trkpt>
      <trkpt lat="43.66645" lon="1.08239">
        <ele>230.744385</ele>
        <time>2023-01-03T11:44:36.823Z</time>
      </trkpt>
      <trkpt lat="43.66645" lon="1.08256">
        <ele>230.454866</ele>
        <time>2023-01-03T11:44:38.829Z</time>
      </trkpt>
      <trkpt lat="43.66646" lon="1.08272">
        <ele>230.167065</ele>
        <time>2023-01-03T11:44:40.886Z</time>
      </trkpt>
      <trkpt lat="43.66647" lon="1.08289">
        <ele>229.8708</ele>
        <time>2023-01-03T11:44:42.823Z</time>
      </trkpt>
      <trkpt lat="43.66648" lon="1.08307">
        <ele>229.568367</ele>
        <time>2023-01-03T11:44:44.835Z</time>
      </trkpt>
      <trkpt lat="43.66649" lon="1.08325">
        <ele>229.526458</ele>
        <time>2023-01-03T11:44:46.886Z</time>
      </trkpt>
      <trkpt lat="43.6665" lon="1.08342">
        <ele>229.499626</ele>
        <time>2023-01-03T11:44:48.821Z</time>
      </trkpt>
      <trkpt lat="43.6665" lon="1.0836">
        <ele>229.471908</ele>
        <time>2023-01-03T11:44:50.810Z</time>
      </trkpt>
      <trkpt lat="43.66649" lon="1.08377">
        <ele>229.445302</ele>
        <time>2023-01-03T11:44:52.861Z</time>
      </trkpt>
      <trkpt lat="43.66648" lon="1.08394">
        <ele>229.42016</ele>
        <time>2023-01-03T11:44:54.828Z</time>
      </trkpt>
      <trkpt lat="43.66647" lon="1.08409">
        <ele>229.396235</ele>
        <time>2023-01-03T11:44:56.830Z</time>
      </trkpt>
      <trkpt lat="43.66645" lon="1.08424">
        <ele>229.372553</ele>
        <time>2023-01-03T11:44:58.884Z</time>
      </trkpt>
      <trkpt lat="43.66644" lon="1.08439">
        <ele>229.350057</ele>
        <time>2023-01-03T11:45:00.809Z</time>
      </trkpt>
      <trkpt lat="43.66642" lon="1.08451">
        <ele>229.330208</ele>
        <time>2023-01-03T11:45:02.820Z</time>
      </trkpt>
      <trkpt lat="43.6664" lon="1.08469">
        <ele>229.302859</ele>
        <time>2023-01-03T11:45:05.834Z</time>
      </trkpt>
      <trkpt lat="43.66637" lon="1.08485">
        <ele>229.276705</ele>
        <time>2023-01-03T11:45:08.823Z</time>
      </trkpt>
      <trkpt lat="43.66635" lon="1.085">
        <ele>229.252918</ele>
        <time>2023-01-03T11:45:11.809Z</time>
      </trkpt>
      <trkpt lat="43.66633" lon="1.08514">
        <ele>229.232344</ele>
        <time>2023-01-03T11:45:14.825Z</time>
      </trkpt>
      <trkpt lat="43.66631" lon="1.08527">
        <ele>229.210927</ele>
        <time>2023-01-03T11:45:17.828Z</time>
      </trkpt>
      <trkpt lat="43.66627" lon="1.0854">
        <ele>229.190143</ele>
        <time>2023-01-03T11:45:20.801Z</time>
      </trkpt>
      <trkpt lat="43.66625" lon="1.08554">
        <ele>229.12712</ele>
        <time>2023-01-03T11:45:23.827Z</time>
      </trkpt>
      <trkpt lat="43.66622" lon="1.0857">
        <ele>228.620948</ele>
        <time>2023-01-03T11:45:26.828Z</time>
      </trkpt>
      <trkpt lat="43.66619" lon="1.08587">
        <ele>228.052594</ele>
        <time>2023-01-03T11:45:29.829Z</time>
      </trkpt>
      <trkpt lat="43.66616" lon="1.08601">
        <ele>227.625467</ele>
        <time>2023-01-03T11:45:31.831Z</time>
      </trkpt>
      <trkpt lat="43.66614" lon="1.08614">
        <ele>227.198339</ele>
        <time>2023-01-03T11:45:33.831Z</time>
      </trkpt>
      <trkpt lat="43.66612" lon="1.08627">
        <ele>226.76391</ele>
        <time>2023-01-03T11:45:35.824Z</time>
      </trkpt>
      <trkpt lat="43.6661" lon="1.0864">
        <ele>226.345679</ele>
        <time>2023-01-03T11:45:37.823Z</time>
      </trkpt>
      <trkpt lat="43.66607" lon="1.08653">
        <ele>225.925807</ele>
        <time>2023-01-03T11:45:39.831Z</time>
      </trkpt>
      <trkpt lat="43.66604" lon="1.08666">
        <ele>225.509631</ele>
        <time>2023-01-03T11:45:41.825Z</time>
      </trkpt>
      <trkpt lat="43.66601" lon="1.08683">
        <ele>224.963866</ele>
        <time>2023-01-03T11:45:44.820Z</time>
      </trkpt>
      <trkpt lat="43.66598" lon="1.08696">
        <ele>224.543493</ele>
        <time>2023-01-03T11:45:46.881Z</time>
      </trkpt>
      <trkpt lat="43.66596" lon="1.0871">
        <ele>224.102055</ele>
        <time>2023-01-03T11:45:48.834Z</time>
      </trkpt>
      <trkpt lat="43.66594" lon="1.08723">
        <ele>223.654551</ele>
        <time>2023-01-03T11:45:50.829Z</time>
      </trkpt>
      <trkpt lat="43.66591" lon="1.08738">
        <ele>223.191976</ele>
        <time>2023-01-03T11:45:52.888Z</time>
      </trkpt>
      <trkpt lat="43.66589" lon="1.08752">
        <ele>222.724238</ele>
        <time>2023-01-03T11:45:54.819Z</time>
      </trkpt>
      <trkpt lat="43.66587" lon="1.08767">
        <ele>222.250381</ele>
        <time>2023-01-03T11:45:56.803Z</time>
      </trkpt>
      <trkpt lat="43.66584" lon="1.08782">
        <ele>221.777414</ele>
        <time>2023-01-03T11:45:58.870Z</time>
      </trkpt>
      <trkpt lat="43.66582" lon="1.08797">
        <ele>221.307334</ele>
        <time>2023-01-03T11:46:00.820Z</time>
      </trkpt>
      <trkpt lat="43.6658" lon="1.08811">
        <ele>220.811087</ele>
        <time>2023-01-03T11:46:02.827Z</time>
      </trkpt>
      <trkpt lat="43.66578" lon="1.08826">
        <ele>220.313921</ele>
        <time>2023-01-03T11:46:04.891Z</time>
      </trkpt>
      <trkpt lat="43.66578" lon="1.08841">
        <ele>219.831791</ele>
        <time>2023-01-03T11:46:06.833Z</time>
      </trkpt>
      <trkpt lat="43.66577" lon="1.08853">
        <ele>219.40955</ele>
        <time>2023-01-03T11:46:08.832Z</time>
      </trkpt>
      <trkpt lat="43.66577" lon="1.08866">
        <ele>218.99793</ele>
        <time>2023-01-03T11:46:10.870Z</time>
      </trkpt>
      <trkpt lat="43.66576" lon="1.08884">
        <ele>218.400592</ele>
        <time>2023-01-03T11:46:13.826Z</time>
      </trkpt>
      <trkpt lat="43.66576" lon="1.08896">
        <ele>217.987951</ele>
        <time>2023-01-03T11:46:15.832Z</time>
      </trkpt>
      <trkpt lat="43.66576" lon="1.08909">
        <ele>217.563192</ele>
        <time>2023-01-03T11:46:17.832Z</time>
      </trkpt>
      <trkpt lat="43.66575" lon="1.08921">
        <ele>217.146864</ele>
        <time>2023-01-03T11:46:19.830Z</time>
      </trkpt>
      <trkpt lat="43.66573" lon="1.08934">
        <ele>216.710115</ele>
        <time>2023-01-03T11:46:21.830Z</time>
      </trkpt>
      <trkpt lat="43.6657" lon="1.0895">
        <ele>216.151035</ele>
        <time>2023-01-03T11:46:24.835Z</time>
      </trkpt>
      <trkpt lat="43.66566" lon="1.08963">
        <ele>215.696803</ele>
        <time>2023-01-03T11:46:28.886Z</time>
      </trkpt>
      <trkpt lat="43.66586" lon="1.08982">
        <ele>214.580039</ele>
        <time>2023-01-03T12:04:00.388Z</time>
      </trkpt>
      <trkpt lat="43.66575" lon="1.08984">
        <ele>214.050268</ele>
        <time>2023-01-03T12:04:30.151Z</time>
      </trkpt>
      <trkpt lat="43.66565" lon="1.08981">
        <ele>213.585331</ele>
        <time>2023-01-03T12:04:36.152Z</time>
      </trkpt>
      <trkpt lat="43.66557" lon="1.08991">
        <ele>213.131459</ele>
        <time>2023-01-03T12:04:40.143Z</time>
      </trkpt>
      <trkpt lat="43.66555" lon="1.09006">
        <ele>212.321418</ele>
        <time>2023-01-03T12:04:43.139Z</time>
      </trkpt>
      <trkpt lat="43.66553" lon="1.09021">
        <ele>211.550369</ele>
        <time>2023-01-03T12:04:46.158Z</time>
      </trkpt>
      <trkpt lat="43.66554" lon="1.09037">
        <ele>210.7352</ele>
        <time>2023-01-03T12:04:49.144Z</time>
      </trkpt>
      <trkpt lat="43.66555" lon="1.09053">
        <ele>209.925292</ele>
        <time>2023-01-03T12:04:52.162Z</time>
      </trkpt>
      <trkpt lat="43.66557" lon="1.09068">
        <ele>209.126611</ele>
        <time>2023-01-03T12:04:55.163Z</time>
      </trkpt>
      <trkpt lat="43.6656" lon="1.09081">
        <ele>208.446225</ele>
        <time>2023-01-03T12:04:58.164Z</time>
      </trkpt>
      <trkpt lat="43.66564" lon="1.09093">
        <ele>207.806739</ele>
        <time>2023-01-03T12:05:01.145Z</time>
      </trkpt>
      <trkpt lat="43.66569" lon="1.09103">
        <ele>207.167314</ele>
        <time>2023-01-03T12:05:04.142Z</time>
      </trkpt>
      <trkpt lat="43.66584" lon="1.09128">
        <ele>205.482729</ele>
        <time>2023-01-03T12:06:10.142Z</time>
      </trkpt>
      <trkpt lat="43.66593" lon="1.09141">
        <ele>204.597617</ele>
        <time>2023-01-03T12:06:13.139Z</time>
      </trkpt>
      <trkpt lat="43.66599" lon="1.09151">
        <ele>203.930555</ele>
        <time>2023-01-03T12:06:15.138Z</time>
      </trkpt>
      <trkpt lat="43.66606" lon="1.09161">
        <ele>203.251214</ele>
        <time>2023-01-03T12:06:17.145Z</time>
      </trkpt>
      <trkpt lat="43.66612" lon="1.09171">
        <ele>202.529454</ele>
        <time>2023-01-03T12:06:19.142Z</time>
      </trkpt>
      <trkpt lat="43.6662" lon="1.09183">
        <ele>201.726421</ele>
        <time>2023-01-03T12:06:21.161Z</time>
      </trkpt>
      <trkpt lat="43.66628" lon="1.09196">
        <ele>200.874201</ele>
        <time>2023-01-03T12:06:23.164Z</time>
      </trkpt>
      <trkpt lat="43.66636" lon="1.09209">
        <ele>200.411916</ele>
        <time>2023-01-03T12:06:25.159Z</time>
      </trkpt>
      <trkpt lat="43.66645" lon="1.09222">
        <ele>200.280577</ele>
        <time>2023-01-03T12:06:27.162Z</time>
      </trkpt>
      <trkpt lat="43.66653" lon="1.09234">
        <ele>200.156277</ele>
        <time>2023-01-03T12:06:29.156Z</time>
      </trkpt>
      <trkpt lat="43.6666" lon="1.09245">
        <ele>200.045067</ele>
        <time>2023-01-03T12:06:31.153Z</time>
      </trkpt>
      <trkpt lat="43.66667" lon="1.09256">
        <ele>199.940544</ele>
        <time>2023-01-03T12:06:33.165Z</time>
      </trkpt>
      <trkpt lat="43.66673" lon="1.09265">
        <ele>199.845522</ele>
        <time>2023-01-03T12:06:35.162Z</time>
      </trkpt>
      <trkpt lat="43.66682" lon="1.09276">
        <ele>199.717747</ele>
        <time>2023-01-03T12:06:38.140Z</time>
      </trkpt>
      <trkpt lat="43.66691" lon="1.09284">
        <ele>199.610041</ele>
        <time>2023-01-03T12:06:41.162Z</time>
      </trkpt>
      <trkpt lat="43.66701" lon="1.09293">
        <ele>199.485379</ele>
        <time>2023-01-03T12:06:45.163Z</time>
      </trkpt>
      <trkpt lat="43.6671" lon="1.09301">
        <ele>199.380229</ele>
        <time>2023-01-03T12:06:48.163Z</time>
      </trkpt>
      <trkpt lat="43.66719" lon="1.0931">
        <ele>199.26486</ele>
        <time>2023-01-03T12:06:51.166Z</time>
      </trkpt>
      <trkpt lat="43.66726" lon="1.09323">
        <ele>199.139722</ele>
        <time>2023-01-03T12:06:54.147Z</time>
      </trkpt>
      <trkpt lat="43.6673" lon="1.09338">
        <ele>199.017321</ele>
        <time>2023-01-03T12:06:57.145Z</time>
      </trkpt>
      <trkpt lat="43.66728" lon="1.09353">
        <ele>198.903808</ele>
        <time>2023-01-03T12:07:00.150Z</time>
      </trkpt>
      <trkpt lat="43.66726" lon="1.09369">
        <ele>198.785647</ele>
        <time>2023-01-03T12:07:03.165Z</time>
      </trkpt>
      <trkpt lat="43.66723" lon="1.09385">
        <ele>198.662432</ele>
        <time>2023-01-03T12:07:06.166Z</time>
      </trkpt>
      <trkpt lat="43.66721" lon="1.09401">
        <ele>198.67374</ele>
        <time>2023-01-03T12:07:09.162Z</time>
      </trkpt>
      <trkpt lat="43.66719" lon="1.09417">
        <ele>198.744465</ele>
        <time>2023-01-03T12:07:12.161Z</time>
      </trkpt>
      <trkpt lat="43.66717" lon="1.09433">
        <ele>198.813485</ele>
        <time>2023-01-03T12:07:15.144Z</time>
      </trkpt>
      <trkpt lat="43.66714" lon="1.09448">
        <ele>198.882117</ele>
        <time>2023-01-03T12:07:18.167Z</time>
      </trkpt>
      <trkpt lat="43.66708" lon="1.09464">
        <ele>198.959335</ele>
        <time>2023-01-03T12:07:21.144Z</time>
      </trkpt>
      <trkpt lat="43.66699" lon="1.09478">
        <ele>199.03946</ele>
        <time>2023-01-03T12:07:24.141Z</time>
      </trkpt>
      <trkpt lat="43.66688" lon="1.09488">
        <ele>199.118021</ele>
        <time>2023-01-03T12:07:27.140Z</time>
      </trkpt>
      <trkpt lat="43.66677" lon="1.09496">
        <ele>199.195955</ele>
        <time>2023-01-03T12:07:30.161Z</time>
      </trkpt>
      <trkpt lat="43.66665" lon="1.09504">
        <ele>199.273602</ele>
        <time>2023-01-03T12:07:33.165Z</time>
      </trkpt>
      <trkpt lat="43.66654" lon="1.09512">
        <ele>199.348663</ele>
        <time>2023-01-03T12:07:36.166Z</time>
      </trkpt>
      <trkpt lat="43.66644" lon="1.09519">
        <ele>199.419601</ele>
        <time>2023-01-03T12:07:39.161Z</time>
      </trkpt>
      <trkpt lat="43.66632" lon="1.09527">
        <ele>199.494255</ele>
        <time>2023-01-03T12:07:42.164Z</time>
      </trkpt>
      <trkpt lat="43.66621" lon="1.09535">
        <ele>199.572039</ele>
        <time>2023-01-03T12:07:45.151Z</time>
      </trkpt>
      <trkpt lat="43.66613" lon="1.0954">
        <ele>199.626245</ele>
        <time>2023-01-03T12:07:47.163Z</time>
      </trkpt>
      <trkpt lat="43.66601" lon="1.09548">
        <ele>199.698063</ele>
        <time>2023-01-03T12:07:50.166Z</time>
      </trkpt>
      <trkpt lat="43.66592" lon="1.09554">
        <ele>199.649809</ele>
        <time>2023-01-03T12:07:52.164Z</time>
      </trkpt>
      <trkpt lat="43.66584" lon="1.0956">
        <ele>199.60165</ele>
        <time>2023-01-03T12:07:54.163Z</time>
      </trkpt>
      <trkpt lat="43.66575" lon="1.09566">
        <ele>199.552591</ele>
        <time>2023-01-03T12:07:56.141Z</time>
      </trkpt>
      <trkpt lat="43.66566" lon="1.09571">
        <ele>199.50326</ele>
        <time>2023-01-03T12:07:58.154Z</time>
      </trkpt>
      <trkpt lat="43.66557" lon="1.09578">
        <ele>199.452058</ele>
        <time>2023-01-03T12:08:00.148Z</time>
      </trkpt>
      <trkpt lat="43.66549" lon="1.09583">
        <ele>199.404267</ele>
        <time>2023-01-03T12:08:02.168Z</time>
      </trkpt>
      <trkpt lat="43.6654" lon="1.09589">
        <ele>199.353561</ele>
        <time>2023-01-03T12:08:04.140Z</time>
      </trkpt>
      <trkpt lat="43.66531" lon="1.09595">
        <ele>199.304435</ele>
        <time>2023-01-03T12:08:06.146Z</time>
      </trkpt>
      <trkpt lat="43.66522" lon="1.09602">
        <ele>199.253233</ele>
        <time>2023-01-03T12:08:08.140Z</time>
      </trkpt>
      <trkpt lat="43.66513" lon="1.09608">
        <ele>199.203661</ele>
        <time>2023-01-03T12:08:10.152Z</time>
      </trkpt>
      <trkpt lat="43.66505" lon="1.09614">
        <ele>199.153696</ele>
        <time>2023-01-03T12:08:12.163Z</time>
      </trkpt>
      <trkpt lat="43.66497" lon="1.09621">
        <ele>199.10714</ele>
        <time>2023-01-03T12:08:14.165Z</time>
      </trkpt>
      <trkpt lat="43.66489" lon="1.09628">
        <ele>199.060789</ele>
        <time>2023-01-03T12:08:16.169Z</time>
      </trkpt>
      <trkpt lat="43.66482" lon="1.09635">
        <ele>199.013555</ele>
        <time>2023-01-03T12:08:18.164Z</time>
      </trkpt>
      <trkpt lat="43.66474" lon="1.09643">
        <ele>198.965419</ele>
        <time>2023-01-03T12:08:20.163Z</time>
      </trkpt>
      <trkpt lat="43.66467" lon="1.09651">
        <ele>198.917783</ele>
        <time>2023-01-03T12:08:22.146Z</time>
      </trkpt>
      <trkpt lat="43.66459" lon="1.09659">
        <ele>198.870898</ele>
        <time>2023-01-03T12:08:24.163Z</time>
      </trkpt>
      <trkpt lat="43.66452" lon="1.09667">
        <ele>198.821906</ele>
        <time>2023-01-03T12:08:26.159Z</time>
      </trkpt>
      <trkpt lat="43.66445" lon="1.09676">
        <ele>198.780588</ele>
        <time>2023-01-03T12:08:28.142Z</time>
      </trkpt>
      <trkpt lat="43.66436" lon="1.09688">
        <ele>198.738909</ele>
        <time>2023-01-03T12:08:31.166Z</time>
      </trkpt>
      <trkpt lat="43.66429" lon="1.09697">
        <ele>198.71043</ele>
        <time>2023-01-03T12:08:33.139Z</time>
      </trkpt>
      <trkpt lat="43.66422" lon="1.09706">
        <ele>198.681208</ele>
        <time>2023-01-03T12:08:35.141Z</time>
      </trkpt>
      <trkpt lat="43.66416" lon="1.09714">
        <ele>198.652899</ele>
        <time>2023-01-03T12:08:37.162Z</time>
      </trkpt>
      <trkpt lat="43.66408" lon="1.09723">
        <ele>198.622446</ele>
        <time>2023-01-03T12:08:39.161Z</time>
      </trkpt>
      <trkpt lat="43.66402" lon="1.09732">
        <ele>198.593379</ele>
        <time>2023-01-03T12:08:41.164Z</time>
      </trkpt>
      <trkpt lat="43.66395" lon="1.09742">
        <ele>198.563323</ele>
        <time>2023-01-03T12:08:43.163Z</time>
      </trkpt>
      <trkpt lat="43.66388" lon="1.09751">
        <ele>198.532166</ele>
        <time>2023-01-03T12:08:45.163Z</time>
      </trkpt>
      <trkpt lat="43.66381" lon="1.0976">
        <ele>198.502848</ele>
        <time>2023-01-03T12:08:47.142Z</time>
      </trkpt>
      <trkpt lat="43.66374" lon="1.09769">
        <ele>198.474208</ele>
        <time>2023-01-03T12:08:49.149Z</time>
      </trkpt>
      <trkpt lat="43.66367" lon="1.09777">
        <ele>198.445213</ele>
        <time>2023-01-03T12:08:51.168Z</time>
      </trkpt>
      <trkpt lat="43.66358" lon="1.0979">
        <ele>198.403819</ele>
        <time>2023-01-03T12:08:54.167Z</time>
      </trkpt>
      <trkpt lat="43.66351" lon="1.09798">
        <ele>198.375365</ele>
        <time>2023-01-03T12:08:56.162Z</time>
      </trkpt>
      <trkpt lat="43.66342" lon="1.09812">
        <ele>198.332786</ele>
        <time>2023-01-03T12:08:59.164Z</time>
      </trkpt>
      <trkpt lat="43.66336" lon="1.09821">
        <ele>198.3042</ele>
        <time>2023-01-03T12:09:01.160Z</time>
      </trkpt>
      <trkpt lat="43.66329" lon="1.09832">
        <ele>198.271437</ele>
        <time>2023-01-03T12:09:03.164Z</time>
      </trkpt>
      <trkpt lat="43.66322" lon="1.09843">
        <ele>198.23811</ele>
        <time>2023-01-03T12:09:05.165Z</time>
      </trkpt>
      <trkpt lat="43.66315" lon="1.09854">
        <ele>198.043525</ele>
        <time>2023-01-03T12:09:07.163Z</time>
      </trkpt>
      <trkpt lat="43.66308" lon="1.09866">
        <ele>197.715945</ele>
        <time>2023-01-03T12:09:09.161Z</time>
      </trkpt>
      <trkpt lat="43.66301" lon="1.09876">
        <ele>197.401837</ele>
        <time>2023-01-03T12:09:11.174Z</time>
      </trkpt>
      <trkpt lat="43.66293" lon="1.09889">
        <ele>197.063222</ele>
        <time>2023-01-03T12:09:13.166Z</time>
      </trkpt>
      <trkpt lat="43.66286" lon="1.09902">
        <ele>196.713138</ele>
        <time>2023-01-03T12:09:15.164Z</time>
      </trkpt>
      <trkpt lat="43.66279" lon="1.09915">
        <ele>196.356161</ele>
        <time>2023-01-03T12:09:17.164Z</time>
      </trkpt>
      <trkpt lat="43.66273" lon="1.09929">
        <ele>195.998574</ele>
        <time>2023-01-03T12:09:19.162Z</time>
      </trkpt>
      <trkpt lat="43.66266" lon="1.09944">
        <ele>195.635791</ele>
        <time>2023-01-03T12:09:21.171Z</time>
      </trkpt>
      <trkpt lat="43.6626" lon="1.09958">
        <ele>195.27404</ele>
        <time>2023-01-03T12:09:23.164Z</time>
      </trkpt>
      <trkpt lat="43.66254" lon="1.09973">
        <ele>194.918629</ele>
        <time>2023-01-03T12:09:25.165Z</time>
      </trkpt>
      <trkpt lat="43.66248" lon="1.09987">
        <ele>194.564261</ele>
        <time>2023-01-03T12:09:27.143Z</time>
      </trkpt>
      <trkpt lat="43.66242" lon="1.10002">
        <ele>194.200674</ele>
        <time>2023-01-03T12:09:29.164Z</time>
      </trkpt>
      <trkpt lat="43.66236" lon="1.10017">
        <ele>193.837823</ele>
        <time>2023-01-03T12:09:31.166Z</time>
      </trkpt>
      <trkpt lat="43.6623" lon="1.10031">
        <ele>193.491925</ele>
        <time>2023-01-03T12:09:33.162Z</time>
      </trkpt>
      <trkpt lat="43.66224" lon="1.10046">
        <ele>193.127207</ele>
        <time>2023-01-03T12:09:35.165Z</time>
      </trkpt>
      <trkpt lat="43.66218" lon="1.10061">
        <ele>192.912786</ele>
        <time>2023-01-03T12:09:37.158Z</time>
      </trkpt>
      <trkpt lat="43.66213" lon="1.10077">
        <ele>192.927673</ele>
        <time>2023-01-03T12:09:39.164Z</time>
      </trkpt>
      <trkpt lat="43.66208" lon="1.10091">
        <ele>192.942215</ele>
        <time>2023-01-03T12:09:41.162Z</time>
      </trkpt>
      <trkpt lat="43.66203" lon="1.10107">
        <ele>192.956998</ele>
        <time>2023-01-03T12:09:43.168Z</time>
      </trkpt>
      <trkpt lat="43.66198" lon="1.10122">
        <ele>192.971887</ele>
        <time>2023-01-03T12:09:45.165Z</time>
      </trkpt>
      <trkpt lat="43.66193" lon="1.10135">
        <ele>192.985028</ele>
        <time>2023-01-03T12:09:47.155Z</time>
      </trkpt>
      <trkpt lat="43.66188" lon="1.10149">
        <ele>192.998355</ele>
        <time>2023-01-03T12:09:49.163Z</time>
      </trkpt>
      <trkpt lat="43.66183" lon="1.10161">
        <ele>193.011551</ele>
        <time>2023-01-03T12:09:51.167Z</time>
      </trkpt>
      <trkpt lat="43.66177" lon="1.10174">
        <ele>193.024441</ele>
        <time>2023-01-03T12:09:53.142Z</time>
      </trkpt>
      <trkpt lat="43.66171" lon="1.10186">
        <ele>193.03786</ele>
        <time>2023-01-03T12:09:55.163Z</time>
      </trkpt>
      <trkpt lat="43.66164" lon="1.10199">
        <ele>193.051501</ele>
        <time>2023-01-03T12:09:57.166Z</time>
      </trkpt>
      <trkpt lat="43.66157" lon="1.1021">
        <ele>193.065555</ele>
        <time>2023-01-03T12:09:59.141Z</time>
      </trkpt>
      <trkpt lat="43.66149" lon="1.10222">
        <ele>193.079404</ele>
        <time>2023-01-03T12:10:01.162Z</time>
      </trkpt>
      <trkpt lat="43.6614" lon="1.10232">
        <ele>193.093656</ele>
        <time>2023-01-03T12:10:03.165Z</time>
      </trkpt>
      <trkpt lat="43.66131" lon="1.10241">
        <ele>193.107248</ele>
        <time>2023-01-03T12:10:05.138Z</time>
      </trkpt>
      <trkpt lat="43.66122" lon="1.10251">
        <ele>193.120859</ele>
        <time>2023-01-03T12:10:07.165Z</time>
      </trkpt>
      <trkpt lat="43.66113" lon="1.1026">
        <ele>193.178185</ele>
        <time>2023-01-03T12:10:09.165Z</time>
      </trkpt>
      <trkpt lat="43.66105" lon="1.1027">
        <ele>193.262188</ele>
        <time>2023-01-03T12:10:11.163Z</time>
      </trkpt>
      <trkpt lat="43.66097" lon="1.10281">
        <ele>193.34858</ele>
        <time>2023-01-03T12:10:13.164Z</time>
      </trkpt>
      <trkpt lat="43.6609" lon="1.10292">
        <ele>193.43602</ele>
        <time>2023-01-03T12:10:15.150Z</time>
      </trkpt>
      <trkpt lat="43.66083" lon="1.10305">
        <ele>193.522738</ele>
        <time>2023-01-03T12:10:17.143Z</time>
      </trkpt>
      <trkpt lat="43.66079" lon="1.10319">
        <ele>193.605618</ele>
        <time>2023-01-03T12:10:19.155Z</time>
      </trkpt>
      <trkpt lat="43.66074" lon="1.10333">
        <ele>193.6916</ele>
        <time>2023-01-03T12:10:21.142Z</time>
      </trkpt>
      <trkpt lat="43.66071" lon="1.10347">
        <ele>193.779278</ele>
        <time>2023-01-03T12:10:23.163Z</time>
      </trkpt>
      <trkpt lat="43.66066" lon="1.10362">
        <ele>193.869339</ele>
        <time>2023-01-03T12:10:25.149Z</time>
      </trkpt>
      <trkpt lat="43.66063" lon="1.10377">
        <ele>193.953091</ele>
        <time>2023-01-03T12:10:27.166Z</time>
      </trkpt>
      <trkpt lat="43.66059" lon="1.10391">
        <ele>194.03899</ele>
        <time>2023-01-03T12:10:29.140Z</time>
      </trkpt>
      <trkpt lat="43.66054" lon="1.10404">
        <ele>194.121368</ele>
        <time>2023-01-03T12:10:31.163Z</time>
      </trkpt>
      <trkpt lat="43.66048" lon="1.10418">
        <ele>194.212675</ele>
        <time>2023-01-03T12:10:33.153Z</time>
      </trkpt>
      <trkpt lat="43.66043" lon="1.10431">
        <ele>194.295885</ele>
        <time>2023-01-03T12:10:35.137Z</time>
      </trkpt>
      <trkpt lat="43.66038" lon="1.10442">
        <ele>194.36904</ele>
        <time>2023-01-03T12:10:37.162Z</time>
      </trkpt>
      <trkpt lat="43.66032" lon="1.10453">
        <ele>194.442987</ele>
        <time>2023-01-03T12:10:39.156Z</time>
      </trkpt>
      <trkpt lat="43.66025" lon="1.10467">
        <ele>194.572744</ele>
        <time>2023-01-03T12:10:42.149Z</time>
      </trkpt>
      <trkpt lat="43.66018" lon="1.1048">
        <ele>194.788855</ele>
        <time>2023-01-03T12:10:45.164Z</time>
      </trkpt>
      <trkpt lat="43.66013" lon="1.10493">
        <ele>194.977478</ele>
        <time>2023-01-03T12:10:48.166Z</time>
      </trkpt>
      <trkpt lat="43.66007" lon="1.10504">
        <ele>195.163712</ele>
        <time>2023-01-03T12:10:51.145Z</time>
      </trkpt>
      <trkpt lat="43.66002" lon="1.10515">
        <ele>195.337051</ele>
        <time>2023-01-03T12:10:54.166Z</time>
      </trkpt>
      <trkpt lat="43.65997" lon="1.10527">
        <ele>195.508834</ele>
        <time>2023-01-03T12:10:57.168Z</time>
      </trkpt>
      <trkpt lat="43.65992" lon="1.10542">
        <ele>195.731132</ele>
        <time>2023-01-03T12:11:01.162Z</time>
      </trkpt>
      <trkpt lat="43.65988" lon="1.10555">
        <ele>195.921942</ele>
        <time>2023-01-03T12:11:04.145Z</time>
      </trkpt>
      <trkpt lat="43.65983" lon="1.10567">
        <ele>196.106002</ele>
        <time>2023-01-03T12:11:07.175Z</time>
      </trkpt>
      <trkpt lat="43.65979" lon="1.1058">
        <ele>196.288558</ele>
        <time>2023-01-03T12:11:10.142Z</time>
      </trkpt>
      <trkpt lat="43.65976" lon="1.10593">
        <ele>196.475137</ele>
        <time>2023-01-03T12:11:13.164Z</time>
      </trkpt>
      <trkpt lat="43.65972" lon="1.10606">
        <ele>196.668687</ele>
        <time>2023-01-03T12:11:16.165Z</time>
      </trkpt>
      <trkpt lat="43.65968" lon="1.1062">
        <ele>196.869073</ele>
        <time>2023-01-03T12:11:19.146Z</time>
      </trkpt>
      <trkpt lat="43.65963" lon="1.10634">
        <ele>197.069156</ele>
        <time>2023-01-03T12:11:22.162Z</time>
      </trkpt>
      <trkpt lat="43.65959" lon="1.10649">
        <ele>197.274471</ele>
        <time>2023-01-03T12:11:25.141Z</time>
      </trkpt>
      <trkpt lat="43.65955" lon="1.10664">
        <ele>197.493597</ele>
        <time>2023-01-03T12:11:28.142Z</time>
      </trkpt>
      <trkpt lat="43.6595" lon="1.10681">
        <ele>197.738774</ele>
        <time>2023-01-03T12:11:31.140Z</time>
      </trkpt>
      <trkpt lat="43.65946" lon="1.10694">
        <ele>197.782683</ele>
        <time>2023-01-03T12:11:33.162Z</time>
      </trkpt>
      <trkpt lat="43.65943" lon="1.10707">
        <ele>197.717875</ele>
        <time>2023-01-03T12:11:35.150Z</time>
      </trkpt>
      <trkpt lat="43.65941" lon="1.10719">
        <ele>197.656157</ele>
        <time>2023-01-03T12:11:37.163Z</time>
      </trkpt>
      <trkpt lat="43.65937" lon="1.10733">
        <ele>197.586966</ele>
        <time>2023-01-03T12:11:39.166Z</time>
      </trkpt>
      <trkpt lat="43.65934" lon="1.10748">
        <ele>197.514423</ele>
        <time>2023-01-03T12:11:41.146Z</time>
      </trkpt>
      <trkpt lat="43.6593" lon="1.10762">
        <ele>197.441298</ele>
        <time>2023-01-03T12:11:43.165Z</time>
      </trkpt>
      <trkpt lat="43.65927" lon="1.10778">
        <ele>197.367086</ele>
        <time>2023-01-03T12:11:45.166Z</time>
      </trkpt>
      <trkpt lat="43.65924" lon="1.10793">
        <ele>197.291784</ele>
        <time>2023-01-03T12:11:47.152Z</time>
      </trkpt>
      <trkpt lat="43.65921" lon="1.10808">
        <ele>197.21639</ele>
        <time>2023-01-03T12:11:49.161Z</time>
      </trkpt>
      <trkpt lat="43.65918" lon="1.10823">
        <ele>197.144624</ele>
        <time>2023-01-03T12:11:51.163Z</time>
      </trkpt>
      <trkpt lat="43.65915" lon="1.10838">
        <ele>197.070592</ele>
        <time>2023-01-03T12:11:53.165Z</time>
      </trkpt>
      <trkpt lat="43.65912" lon="1.10852">
        <ele>197.000819</ele>
        <time>2023-01-03T12:11:55.168Z</time>
      </trkpt>
      <trkpt lat="43.65909" lon="1.10867">
        <ele>196.929409</ele>
        <time>2023-01-03T12:11:57.157Z</time>
      </trkpt>
      <trkpt lat="43.65905" lon="1.10882">
        <ele>196.855969</ele>
        <time>2023-01-03T12:11:59.144Z</time>
      </trkpt>
      <trkpt lat="43.65902" lon="1.10896">
        <ele>196.783664</ele>
        <time>2023-01-03T12:12:01.155Z</time>
      </trkpt>
      <trkpt lat="43.65898" lon="1.10911">
        <ele>196.711359</ele>
        <time>2023-01-03T12:12:03.157Z</time>
      </trkpt>
      <trkpt lat="43.65895" lon="1.10925">
        <ele>196.634273</ele>
        <time>2023-01-03T12:12:05.149Z</time>
      </trkpt>
      <trkpt lat="43.65892" lon="1.10939">
        <ele>196.328744</ele>
        <time>2023-01-03T12:12:07.193Z</time>
      </trkpt>
      <trkpt lat="43.65889" lon="1.10954">
        <ele>196.03273</ele>
        <time>2023-01-03T12:12:09.164Z</time>
      </trkpt>
      <trkpt lat="43.65885" lon="1.10969">
        <ele>195.709868</ele>
        <time>2023-01-03T12:12:11.161Z</time>
      </trkpt>
      <trkpt lat="43.65881" lon="1.10985">
        <ele>195.368282</ele>
        <time>2023-01-03T12:12:13.166Z</time>
      </trkpt>
      <trkpt lat="43.65877" lon="1.11001">
        <ele>195.034165</ele>
        <time>2023-01-03T12:12:15.170Z</time>
      </trkpt>
      <trkpt lat="43.65873" lon="1.11017">
        <ele>194.688685</ele>
        <time>2023-01-03T12:12:17.167Z</time>
      </trkpt>
      <trkpt lat="43.65869" lon="1.11033">
        <ele>194.365512</ele>
        <time>2023-01-03T12:12:19.160Z</time>
      </trkpt>
      <trkpt lat="43.65866" lon="1.11049">
        <ele>194.036876</ele>
        <time>2023-01-03T12:12:21.165Z</time>
      </trkpt>
      <trkpt lat="43.65862" lon="1.11064">
        <ele>193.709901</ele>
        <time>2023-01-03T12:12:23.164Z</time>
      </trkpt>
      <trkpt lat="43.65858" lon="1.1108">
        <ele>193.378309</ele>
        <time>2023-01-03T12:12:25.161Z</time>
      </trkpt>
      <trkpt lat="43.65855" lon="1.11097">
        <ele>193.030352</ele>
        <time>2023-01-03T12:12:27.166Z</time>
      </trkpt>
      <trkpt lat="43.65852" lon="1.11114">
        <ele>192.669709</ele>
        <time>2023-01-03T12:12:29.161Z</time>
      </trkpt>
      <trkpt lat="43.65848" lon="1.11131">
        <ele>192.325154</ele>
        <time>2023-01-03T12:12:31.163Z</time>
      </trkpt>
      <trkpt lat="43.65844" lon="1.11149">
        <ele>191.953086</ele>
        <time>2023-01-03T12:12:33.141Z</time>
      </trkpt>
      <trkpt lat="43.6584" lon="1.11166">
        <ele>191.623959</ele>
        <time>2023-01-03T12:12:35.154Z</time>
      </trkpt>
      <trkpt lat="43.65837" lon="1.11183">
        <ele>191.369567</ele>
        <time>2023-01-03T12:12:37.165Z</time>
      </trkpt>
      <trkpt lat="43.65834" lon="1.112">
        <ele>191.115712</ele>
        <time>2023-01-03T12:12:39.167Z</time>
      </trkpt>
      <trkpt lat="43.6583" lon="1.11217">
        <ele>190.86377</ele>
        <time>2023-01-03T12:12:41.167Z</time>
      </trkpt>
      <trkpt lat="43.65827" lon="1.11235">
        <ele>190.603975</ele>
        <time>2023-01-03T12:12:43.165Z</time>
      </trkpt>
      <trkpt lat="43.65824" lon="1.11252">
        <ele>190.339878</ele>
        <time>2023-01-03T12:12:45.166Z</time>
      </trkpt>
      <trkpt lat="43.6582" lon="1.11271">
        <ele>190.062756</ele>
        <time>2023-01-03T12:12:47.149Z</time>
      </trkpt>
      <trkpt lat="43.65817" lon="1.11289">
        <ele>189.787117</ele>
        <time>2023-01-03T12:12:49.154Z</time>
      </trkpt>
      <trkpt lat="43.65813" lon="1.11308">
        <ele>189.510862</ele>
        <time>2023-01-03T12:12:51.170Z</time>
      </trkpt>
      <trkpt lat="43.6581" lon="1.11326">
        <ele>189.244499</ele>
        <time>2023-01-03T12:12:53.156Z</time>
      </trkpt>
      <trkpt lat="43.65806" lon="1.11344">
        <ele>188.979012</ele>
        <time>2023-01-03T12:12:55.166Z</time>
      </trkpt>
      <trkpt lat="43.65803" lon="1.11361">
        <ele>188.715501</ele>
        <time>2023-01-03T12:12:57.164Z</time>
      </trkpt>
      <trkpt lat="43.65799" lon="1.11379">
        <ele>188.453641</ele>
        <time>2023-01-03T12:12:59.163Z</time>
      </trkpt>
      <trkpt lat="43.65796" lon="1.11397">
        <ele>188.183464</ele>
        <time>2023-01-03T12:13:01.169Z</time>
      </trkpt>
      <trkpt lat="43.65792" lon="1.11414">
        <ele>188.063091</ele>
        <time>2023-01-03T12:13:03.166Z</time>
      </trkpt>
      <trkpt lat="43.65789" lon="1.11431">
        <ele>187.99214</ele>
        <time>2023-01-03T12:13:05.166Z</time>
      </trkpt>
      <trkpt lat="43.65785" lon="1.11447">
        <ele>187.921824</ele>
        <time>2023-01-03T12:13:07.164Z</time>
      </trkpt>
      <trkpt lat="43.65782" lon="1.11463">
        <ele>187.850552</ele>
        <time>2023-01-03T12:13:09.168Z</time>
      </trkpt>
      <trkpt lat="43.65778" lon="1.1148">
        <ele>187.779905</ele>
        <time>2023-01-03T12:13:11.157Z</time>
      </trkpt>
      <trkpt lat="43.65774" lon="1.11495">
        <ele>187.711848</ele>
        <time>2023-01-03T12:13:13.160Z</time>
      </trkpt>
      <trkpt lat="43.65771" lon="1.11511">
        <ele>187.644301</ele>
        <time>2023-01-03T12:13:15.161Z</time>
      </trkpt>
      <trkpt lat="43.65767" lon="1.11527">
        <ele>187.572161</ele>
        <time>2023-01-03T12:13:17.152Z</time>
      </trkpt>
      <trkpt lat="43.65764" lon="1.11543">
        <ele>187.505406</ele>
        <time>2023-01-03T12:13:19.146Z</time>
      </trkpt>
      <trkpt lat="43.65759" lon="1.11558">
        <ele>187.437139</ele>
        <time>2023-01-03T12:13:21.167Z</time>
      </trkpt>
      <trkpt lat="43.65755" lon="1.11574">
        <ele>187.368486</ele>
        <time>2023-01-03T12:13:23.167Z</time>
      </trkpt>
      <trkpt lat="43.65751" lon="1.11589">
        <ele>187.302162</ele>
        <time>2023-01-03T12:13:25.150Z</time>
      </trkpt>
      <trkpt lat="43.65748" lon="1.11604">
        <ele>187.237768</ele>
        <time>2023-01-03T12:13:27.150Z</time>
      </trkpt>
      <trkpt lat="43.65744" lon="1.1162">
        <ele>187.167759</ele>
        <time>2023-01-03T12:13:29.164Z</time>
      </trkpt>
      <trkpt lat="43.6574" lon="1.11636">
        <ele>187.099588</ele>
        <time>2023-01-03T12:13:31.156Z</time>
      </trkpt>
      <trkpt lat="43.65737" lon="1.11652">
        <ele>187.062979</ele>
        <time>2023-01-03T12:13:33.161Z</time>
      </trkpt>
      <trkpt lat="43.65734" lon="1.11667">
        <ele>187.035322</ele>
        <time>2023-01-03T12:13:35.166Z</time>
      </trkpt>
      <trkpt lat="43.65731" lon="1.11681">
        <ele>187.009093</ele>
        <time>2023-01-03T12:13:37.169Z</time>
      </trkpt>
      <trkpt lat="43.65729" lon="1.11695">
        <ele>186.983032</ele>
        <time>2023-01-03T12:13:39.158Z</time>
      </trkpt>
      <trkpt lat="43.65726" lon="1.1171">
        <ele>186.955616</ele>
        <time>2023-01-03T12:13:41.155Z</time>
      </trkpt>
      <trkpt lat="43.65724" lon="1.11724">
        <ele>186.928434</ele>
        <time>2023-01-03T12:13:43.166Z</time>
      </trkpt>
      <trkpt lat="43.65721" lon="1.11739">
        <ele>186.900152</ele>
        <time>2023-01-03T12:13:45.165Z</time>
      </trkpt>
      <trkpt lat="43.65718" lon="1.11755">
        <ele>186.870872</ele>
        <time>2023-01-03T12:13:47.144Z</time>
      </trkpt>
      <trkpt lat="43.65716" lon="1.11771">
        <ele>186.841637</ele>
        <time>2023-01-03T12:13:49.146Z</time>
      </trkpt>
      <trkpt lat="43.65713" lon="1.11787">
        <ele>186.81159</ele>
        <time>2023-01-03T12:13:51.167Z</time>
      </trkpt>
      <trkpt lat="43.6571" lon="1.11803">
        <ele>186.78201</ele>
        <time>2023-01-03T12:13:53.166Z</time>
      </trkpt>
      <trkpt lat="43.65707" lon="1.11819">
        <ele>186.752026</ele>
        <time>2023-01-03T12:13:55.168Z</time>
      </trkpt>
      <trkpt lat="43.65705" lon="1.11835">
        <ele>186.722805</ele>
        <time>2023-01-03T12:13:57.163Z</time>
      </trkpt>
      <trkpt lat="43.65702" lon="1.11851">
        <ele>186.692811</ele>
        <time>2023-01-03T12:13:59.164Z</time>
      </trkpt>
      <trkpt lat="43.65698" lon="1.11867">
        <ele>186.662615</ele>
        <time>2023-01-03T12:14:01.168Z</time>
      </trkpt>
      <trkpt lat="43.65696" lon="1.11882">
        <ele>186.636464</ele>
        <time>2023-01-03T12:14:03.166Z</time>
      </trkpt>
      <trkpt lat="43.65693" lon="1.11898">
        <ele>186.620614</ele>
        <time>2023-01-03T12:14:05.170Z</time>
      </trkpt>
      <trkpt lat="43.6569" lon="1.11914">
        <ele>186.604449</ele>
        <time>2023-01-03T12:14:07.170Z</time>
      </trkpt>
      <trkpt lat="43.65687" lon="1.1193">
        <ele>186.58838</ele>
        <time>2023-01-03T12:14:09.169Z</time>
      </trkpt>
      <trkpt lat="43.65684" lon="1.11945">
        <ele>186.572399</ele>
        <time>2023-01-03T12:14:11.164Z</time>
      </trkpt>
      <trkpt lat="43.65681" lon="1.11961">
        <ele>186.556297</ele>
        <time>2023-01-03T12:14:13.167Z</time>
      </trkpt>
      <trkpt lat="43.65678" lon="1.11977">
        <ele>186.540386</ele>
        <time>2023-01-03T12:14:15.160Z</time>
      </trkpt>
      <trkpt lat="43.65675" lon="1.11992">
        <ele>186.524993</ele>
        <time>2023-01-03T12:14:17.170Z</time>
      </trkpt>
      <trkpt lat="43.65672" lon="1.12006">
        <ele>186.509942</ele>
        <time>2023-01-03T12:14:19.164Z</time>
      </trkpt>
      <trkpt lat="43.65669" lon="1.12021">
        <ele>186.494414</ele>
        <time>2023-01-03T12:14:21.164Z</time>
      </trkpt>
      <trkpt lat="43.65666" lon="1.12036">
        <ele>186.479438</ele>
        <time>2023-01-03T12:14:23.166Z</time>
      </trkpt>
      <trkpt lat="43.65662" lon="1.12051">
        <ele>186.464157</ele>
        <time>2023-01-03T12:14:25.166Z</time>
      </trkpt>
      <trkpt lat="43.65658" lon="1.12065">
        <ele>186.449002</ele>
        <time>2023-01-03T12:14:27.142Z</time>
      </trkpt>
      <trkpt lat="43.65654" lon="1.12079">
        <ele>186.434324</ele>
        <time>2023-01-03T12:14:29.163Z</time>
      </trkpt>
      <trkpt lat="43.6565" lon="1.12093">
        <ele>186.418791</ele>
        <time>2023-01-03T12:14:31.162Z</time>
      </trkpt>
      <trkpt lat="43.65646" lon="1.12106">
        <ele>186.404434</ele>
        <time>2023-01-03T12:14:33.163Z</time>
      </trkpt>
      <trkpt lat="43.65641" lon="1.1212">
        <ele>186.390836</ele>
        <time>2023-01-03T12:14:35.168Z</time>
      </trkpt>
      <trkpt lat="43.65636" lon="1.12132">
        <ele>186.380498</ele>
        <time>2023-01-03T12:14:37.142Z</time>
      </trkpt>
      <trkpt lat="43.65633" lon="1.12145">
        <ele>186.370623</ele>
        <time>2023-01-03T12:14:39.147Z</time>
      </trkpt>
      <trkpt lat="43.65631" lon="1.12159">
        <ele>186.35996</ele>
        <time>2023-01-03T12:14:41.158Z</time>
      </trkpt>
      <trkpt lat="43.65631" lon="1.12173">
        <ele>186.349341</ele>
        <time>2023-01-03T12:14:43.163Z</time>
      </trkpt>
      <trkpt lat="43.65631" lon="1.12187">
        <ele>186.338799</ele>
        <time>2023-01-03T12:14:45.137Z</time>
      </trkpt>
      <trkpt lat="43.65631" lon="1.12202">
        <ele>186.328031</ele>
        <time>2023-01-03T12:14:47.162Z</time>
      </trkpt>
      <trkpt lat="43.65632" lon="1.12216">
        <ele>186.317462</ele>
        <time>2023-01-03T12:14:49.143Z</time>
      </trkpt>
      <trkpt lat="43.65632" lon="1.1223">
        <ele>186.306981</ele>
        <time>2023-01-03T12:14:51.159Z</time>
      </trkpt>
      <trkpt lat="43.65633" lon="1.12244">
        <ele>186.296329</ele>
        <time>2023-01-03T12:14:53.166Z</time>
      </trkpt>
      <trkpt lat="43.65633" lon="1.12259">
        <ele>186.285643</ele>
        <time>2023-01-03T12:14:55.157Z</time>
      </trkpt>
      <trkpt lat="43.65633" lon="1.12273">
        <ele>186.275027</ele>
        <time>2023-01-03T12:14:57.163Z</time>
      </trkpt>
      <trkpt lat="43.65632" lon="1.12288">
        <ele>186.264014</ele>
        <time>2023-01-03T12:14:59.167Z</time>
      </trkpt>
      <trkpt lat="43.65632" lon="1.12303">
        <ele>186.253019</ele>
        <time>2023-01-03T12:15:01.170Z</time>
      </trkpt>
      <trkpt lat="43.65631" lon="1.12318">
        <ele>186.241894</ele>
        <time>2023-01-03T12:15:03.166Z</time>
      </trkpt>
      <trkpt lat="43.65629" lon="1.12332">
        <ele>186.231212</ele>
        <time>2023-01-03T12:15:05.163Z</time>
      </trkpt>
      <trkpt lat="43.65628" lon="1.12347">
        <ele>186.219876</ele>
        <time>2023-01-03T12:15:07.165Z</time>
      </trkpt>
      <trkpt lat="43.65627" lon="1.12362">
        <ele>186.206297</ele>
        <time>2023-01-03T12:15:09.172Z</time>
      </trkpt>
      <trkpt lat="43.65625" lon="1.12376">
        <ele>186.158666</ele>
        <time>2023-01-03T12:15:11.169Z</time>
      </trkpt>
      <trkpt lat="43.65624" lon="1.12391">
        <ele>186.110839</ele>
        <time>2023-01-03T12:15:13.167Z</time>
      </trkpt>
      <trkpt lat="43.65622" lon="1.12406">
        <ele>186.061957</ele>
        <time>2023-01-03T12:15:15.167Z</time>
      </trkpt>
      <trkpt lat="43.65621" lon="1.1242">
        <ele>186.014827</ele>
        <time>2023-01-03T12:15:17.171Z</time>
      </trkpt>
      <trkpt lat="43.65619" lon="1.12435">
        <ele>185.966557</ele>
        <time>2023-01-03T12:15:19.166Z</time>
      </trkpt>
      <trkpt lat="43.65617" lon="1.1245">
        <ele>185.919812</ele>
        <time>2023-01-03T12:15:21.155Z</time>
      </trkpt>
      <trkpt lat="43.65616" lon="1.12464">
        <ele>185.872945</ele>
        <time>2023-01-03T12:15:23.168Z</time>
      </trkpt>
      <trkpt lat="43.65614" lon="1.12478">
        <ele>185.827154</ele>
        <time>2023-01-03T12:15:25.161Z</time>
      </trkpt>
      <trkpt lat="43.65613" lon="1.12492">
        <ele>185.781435</ele>
        <time>2023-01-03T12:15:27.165Z</time>
      </trkpt>
      <trkpt lat="43.65611" lon="1.12506">
        <ele>185.736485</ele>
        <time>2023-01-03T12:15:29.146Z</time>
      </trkpt>
      <trkpt lat="43.65609" lon="1.1252">
        <ele>185.690538</ele>
        <time>2023-01-03T12:15:31.149Z</time>
      </trkpt>
      <trkpt lat="43.65607" lon="1.12534">
        <ele>185.644036</ele>
        <time>2023-01-03T12:15:33.167Z</time>
      </trkpt>
      <trkpt lat="43.65605" lon="1.12548">
        <ele>185.597824</ele>
        <time>2023-01-03T12:15:35.144Z</time>
      </trkpt>
      <trkpt lat="43.65603" lon="1.12563">
        <ele>185.549428</ele>
        <time>2023-01-03T12:15:37.161Z</time>
      </trkpt>
      <trkpt lat="43.656" lon="1.12577">
        <ele>185.501019</ele>
        <time>2023-01-03T12:15:39.167Z</time>
      </trkpt>
      <trkpt lat="43.65597" lon="1.12591">
        <ele>185.452295</ele>
        <time>2023-01-03T12:15:41.169Z</time>
      </trkpt>
      <trkpt lat="43.65594" lon="1.12606">
        <ele>185.398389</ele>
        <time>2023-01-03T12:15:43.146Z</time>
      </trkpt>
      <trkpt lat="43.6559" lon="1.12621">
        <ele>185.303433</ele>
        <time>2023-01-03T12:15:45.164Z</time>
      </trkpt>
      <trkpt lat="43.65587" lon="1.12635">
        <ele>185.212615</ele>
        <time>2023-01-03T12:15:47.166Z</time>
      </trkpt>
      <trkpt lat="43.65583" lon="1.12649">
        <ele>185.117221</ele>
        <time>2023-01-03T12:15:49.156Z</time>
      </trkpt>
      <trkpt lat="43.6558" lon="1.12664">
        <ele>185.021826</ele>
        <time>2023-01-03T12:15:51.164Z</time>
      </trkpt>
      <trkpt lat="43.65576" lon="1.12678">
        <ele>184.929237</ele>
        <time>2023-01-03T12:15:53.171Z</time>
      </trkpt>
      <trkpt lat="43.65573" lon="1.12692">
        <ele>184.837889</ele>
        <time>2023-01-03T12:15:55.155Z</time>
      </trkpt>
      <trkpt lat="43.65569" lon="1.12707">
        <ele>184.742163</ele>
        <time>2023-01-03T12:15:57.159Z</time>
      </trkpt>
      <trkpt lat="43.65565" lon="1.12721">
        <ele>184.649055</ele>
        <time>2023-01-03T12:15:59.168Z</time>
      </trkpt>
      <trkpt lat="43.65562" lon="1.12735">
        <ele>184.555103</ele>
        <time>2023-01-03T12:16:01.173Z</time>
      </trkpt>
      <trkpt lat="43.65557" lon="1.12749">
        <ele>184.458076</ele>
        <time>2023-01-03T12:16:03.157Z</time>
      </trkpt>
      <trkpt lat="43.65552" lon="1.12763">
        <ele>184.362987</ele>
        <time>2023-01-03T12:16:05.166Z</time>
      </trkpt>
      <trkpt lat="43.65547" lon="1.12777">
        <ele>184.269199</ele>
        <time>2023-01-03T12:16:07.170Z</time>
      </trkpt>
      <trkpt lat="43.65542" lon="1.12791">
        <ele>184.173238</ele>
        <time>2023-01-03T12:16:09.168Z</time>
      </trkpt>
      <trkpt lat="43.65537" lon="1.12804">
        <ele>184.080397</ele>
        <time>2023-01-03T12:16:11.163Z</time>
      </trkpt>
      <trkpt lat="43.65531" lon="1.12817">
        <ele>183.984138</ele>
        <time>2023-01-03T12:16:13.166Z</time>
      </trkpt>
      <trkpt lat="43.65526" lon="1.12831">
        <ele>183.888284</ele>
        <time>2023-01-03T12:16:15.165Z</time>
      </trkpt>
      <trkpt lat="43.65521" lon="1.12844">
        <ele>183.790596</ele>
        <time>2023-01-03T12:16:17.165Z</time>
      </trkpt>
      <trkpt lat="43.65516" lon="1.12857">
        <ele>183.68667</ele>
        <time>2023-01-03T12:16:19.165Z</time>
      </trkpt>
      <trkpt lat="43.6551" lon="1.12871">
        <ele>183.577433</ele>
        <time>2023-01-03T12:16:21.158Z</time>
      </trkpt>
      <trkpt lat="43.65504" lon="1.12885">
        <ele>183.468522</ele>
        <time>2023-01-03T12:16:23.164Z</time>
      </trkpt>
      <trkpt lat="43.65498" lon="1.12899">
        <ele>183.35607</ele>
        <time>2023-01-03T12:16:25.164Z</time>
      </trkpt>
      <trkpt lat="43.65492" lon="1.12913">
        <ele>183.240643</ele>
        <time>2023-01-03T12:16:27.160Z</time>
      </trkpt>
      <trkpt lat="43.65487" lon="1.12927">
        <ele>183.128074</ele>
        <time>2023-01-03T12:16:29.140Z</time>
      </trkpt>
      <trkpt lat="43.65481" lon="1.12942">
        <ele>183.013573</ele>
        <time>2023-01-03T12:16:31.164Z</time>
      </trkpt>
      <trkpt lat="43.65474" lon="1.12957">
        <ele>182.895226</ele>
        <time>2023-01-03T12:16:33.168Z</time>
      </trkpt>
      <trkpt lat="43.65468" lon="1.12971">
        <ele>182.782386</ele>
        <time>2023-01-03T12:16:35.166Z</time>
      </trkpt>
      <trkpt lat="43.65462" lon="1.12984">
        <ele>182.674077</ele>
        <time>2023-01-03T12:16:37.168Z</time>
      </trkpt>
      <trkpt lat="43.65457" lon="1.12998">
        <ele>182.566224</ele>
        <time>2023-01-03T12:16:39.167Z</time>
      </trkpt>
      <trkpt lat="43.65451" lon="1.13012">
        <ele>182.452885</ele>
        <time>2023-01-03T12:16:41.148Z</time>
      </trkpt>
      <trkpt lat="43.65445" lon="1.13026">
        <ele>182.341126</ele>
        <time>2023-01-03T12:16:43.163Z</time>
      </trkpt>
      <trkpt lat="43.65439" lon="1.1304">
        <ele>182.233782</ele>
        <time>2023-01-03T12:16:45.165Z</time>
      </trkpt>
      <trkpt lat="43.65433" lon="1.13052">
        <ele>182.171228</ele>
        <time>2023-01-03T12:16:47.166Z</time>
      </trkpt>
      <trkpt lat="43.65428" lon="1.13063">
        <ele>182.206586</ele>
        <time>2023-01-03T12:16:49.165Z</time>
      </trkpt>
      <trkpt lat="43.65422" lon="1.13075">
        <ele>182.241585</ele>
        <time>2023-01-03T12:16:51.159Z</time>
      </trkpt>
      <trkpt lat="43.65417" lon="1.13086">
        <ele>182.27518</ele>
        <time>2023-01-03T12:16:53.161Z</time>
      </trkpt>
      <trkpt lat="43.65412" lon="1.13097">
        <ele>182.309317</ele>
        <time>2023-01-03T12:16:55.170Z</time>
      </trkpt>
      <trkpt lat="43.65407" lon="1.13108">
        <ele>182.344275</ele>
        <time>2023-01-03T12:16:57.171Z</time>
      </trkpt>
      <trkpt lat="43.65401" lon="1.1312">
        <ele>182.380737</ele>
        <time>2023-01-03T12:16:59.144Z</time>
      </trkpt>
      <trkpt lat="43.65395" lon="1.13133">
        <ele>182.419427</ele>
        <time>2023-01-03T12:17:01.163Z</time>
      </trkpt>
      <trkpt lat="43.65389" lon="1.13145">
        <ele>182.457543</ele>
        <time>2023-01-03T12:17:03.163Z</time>
      </trkpt>
      <trkpt lat="43.65382" lon="1.13158">
        <ele>182.497264</ele>
        <time>2023-01-03T12:17:05.152Z</time>
      </trkpt>
      <trkpt lat="43.65376" lon="1.1317">
        <ele>182.536179</ele>
        <time>2023-01-03T12:17:07.159Z</time>
      </trkpt>
      <trkpt lat="43.6537" lon="1.13183">
        <ele>182.577164</ele>
        <time>2023-01-03T12:17:09.143Z</time>
      </trkpt>
      <trkpt lat="43.65364" lon="1.13196">
        <ele>182.615744</ele>
        <time>2023-01-03T12:17:11.168Z</time>
      </trkpt>
      <trkpt lat="43.65358" lon="1.13209">
        <ele>182.655481</ele>
        <time>2023-01-03T12:17:13.168Z</time>
      </trkpt>
      <trkpt lat="43.65351" lon="1.13222">
        <ele>182.695208</ele>
        <time>2023-01-03T12:17:15.167Z</time>
      </trkpt>
      <trkpt lat="43.65346" lon="1.13234">
        <ele>182.732894</ele>
        <time>2023-01-03T12:17:17.163Z</time>
      </trkpt>
      <trkpt lat="43.6534" lon="1.13247">
        <ele>182.772258</ele>
        <time>2023-01-03T12:17:19.165Z</time>
      </trkpt>
      <trkpt lat="43.65333" lon="1.1326">
        <ele>182.818685</ele>
        <time>2023-01-03T12:17:21.172Z</time>
      </trkpt>
      <trkpt lat="43.65328" lon="1.13271">
        <ele>182.872171</ele>
        <time>2023-01-03T12:17:23.167Z</time>
      </trkpt>
      <trkpt lat="43.65322" lon="1.13283">
        <ele>182.927584</ele>
        <time>2023-01-03T12:17:25.165Z</time>
      </trkpt>
      <trkpt lat="43.65317" lon="1.13295">
        <ele>182.979238</ele>
        <time>2023-01-03T12:17:27.164Z</time>
      </trkpt>
      <trkpt lat="43.6531" lon="1.13306">
        <ele>183.032451</ele>
        <time>2023-01-03T12:17:29.165Z</time>
      </trkpt>
      <trkpt lat="43.65305" lon="1.13315">
        <ele>183.081008</ele>
        <time>2023-01-03T12:17:31.170Z</time>
      </trkpt>
      <trkpt lat="43.65297" lon="1.13331">
        <ele>183.152279</ele>
        <time>2023-01-03T12:17:34.166Z</time>
      </trkpt>
      <trkpt lat="43.65293" lon="1.13342">
        <ele>183.200648</ele>
        <time>2023-01-03T12:17:36.143Z</time>
      </trkpt>
      <trkpt lat="43.65285" lon="1.13356">
        <ele>183.269988</ele>
        <time>2023-01-03T12:17:39.164Z</time>
      </trkpt>
      <trkpt lat="43.65278" lon="1.13371">
        <ele>183.337038</ele>
        <time>2023-01-03T12:17:42.165Z</time>
      </trkpt>
      <trkpt lat="43.65272" lon="1.13385">
        <ele>183.400149</ele>
        <time>2023-01-03T12:17:45.143Z</time>
      </trkpt>
      <trkpt lat="43.65267" lon="1.13396">
        <ele>183.448392</ele>
        <time>2023-01-03T12:17:48.144Z</time>
      </trkpt>
      <trkpt lat="43.65264" lon="1.1342">
        <ele>183.543213</ele>
        <time>2023-01-03T12:18:34.161Z</time>
      </trkpt>
      <trkpt lat="43.6526" lon="1.13436">
        <ele>183.608208</ele>
        <time>2023-01-03T12:18:38.157Z</time>
      </trkpt>
      <trkpt lat="43.65256" lon="1.13452">
        <ele>183.67085</ele>
        <time>2023-01-03T12:18:41.152Z</time>
      </trkpt>
      <trkpt lat="43.65252" lon="1.13468">
        <ele>183.735682</ele>
        <time>2023-01-03T12:18:44.173Z</time>
      </trkpt>
      <trkpt lat="43.65249" lon="1.13484">
        <ele>183.699692</ele>
        <time>2023-01-03T12:18:47.155Z</time>
      </trkpt>
      <trkpt lat="43.65244" lon="1.13501">
        <ele>183.624184</ele>
        <time>2023-01-03T12:18:50.154Z</time>
      </trkpt>
      <trkpt lat="43.65239" lon="1.13518">
        <ele>183.545069</ele>
        <time>2023-01-03T12:18:53.157Z</time>
      </trkpt>
      <trkpt lat="43.65235" lon="1.1353">
        <ele>183.489199</ele>
        <time>2023-01-03T12:18:55.153Z</time>
      </trkpt>
      <trkpt lat="43.65231" lon="1.13542">
        <ele>183.432739</ele>
        <time>2023-01-03T12:18:57.150Z</time>
      </trkpt>
      <trkpt lat="43.65227" lon="1.13555">
        <ele>183.373328</ele>
        <time>2023-01-03T12:18:59.168Z</time>
      </trkpt>
      <trkpt lat="43.65224" lon="1.13569">
        <ele>183.3089</ele>
        <time>2023-01-03T12:19:01.155Z</time>
      </trkpt>
      <trkpt lat="43.65218" lon="1.13581">
        <ele>183.246268</ele>
        <time>2023-01-03T12:19:03.170Z</time>
      </trkpt>
      <trkpt lat="43.65213" lon="1.13594">
        <ele>183.182023</ele>
        <time>2023-01-03T12:19:05.173Z</time>
      </trkpt>
      <trkpt lat="43.65208" lon="1.13606">
        <ele>183.127252</ele>
        <time>2023-01-03T12:19:07.155Z</time>
      </trkpt>
      <trkpt lat="43.65204" lon="1.13618">
        <ele>183.068915</ele>
        <time>2023-01-03T12:19:09.144Z</time>
      </trkpt>
      <trkpt lat="43.652" lon="1.13631">
        <ele>183.010478</ele>
        <time>2023-01-03T12:19:11.176Z</time>
      </trkpt>
      <trkpt lat="43.65195" lon="1.13643">
        <ele>182.952238</ele>
        <time>2023-01-03T12:19:13.155Z</time>
      </trkpt>
      <trkpt lat="43.6519" lon="1.13654">
        <ele>182.896156</ele>
        <time>2023-01-03T12:19:15.151Z</time>
      </trkpt>
      <trkpt lat="43.65185" lon="1.13665">
        <ele>182.838275</ele>
        <time>2023-01-03T12:19:17.151Z</time>
      </trkpt>
      <trkpt lat="43.6518" lon="1.13677">
        <ele>182.778208</ele>
        <time>2023-01-03T12:19:19.173Z</time>
      </trkpt>
      <trkpt lat="43.65175" lon="1.13689">
        <ele>182.721835</ele>
        <time>2023-01-03T12:19:21.161Z</time>
      </trkpt>
      <trkpt lat="43.65169" lon="1.13701">
        <ele>182.718904</ele>
        <time>2023-01-03T12:19:23.173Z</time>
      </trkpt>
      <trkpt lat="43.65165" lon="1.13713">
        <ele>182.765483</ele>
        <time>2023-01-03T12:19:25.153Z</time>
      </trkpt>
      <trkpt lat="43.6516" lon="1.13725">
        <ele>182.813694</ele>
        <time>2023-01-03T12:19:27.159Z</time>
      </trkpt>
      <trkpt lat="43.65155" lon="1.13737">
        <ele>182.864276</ele>
        <time>2023-01-03T12:19:29.174Z</time>
      </trkpt>
      <trkpt lat="43.65149" lon="1.1375">
        <ele>182.915945</ele>
        <time>2023-01-03T12:19:31.172Z</time>
      </trkpt>
      <trkpt lat="43.65144" lon="1.13762">
        <ele>182.966051</ele>
        <time>2023-01-03T12:19:33.174Z</time>
      </trkpt>
      <trkpt lat="43.65139" lon="1.13775">
        <ele>183.015095</ele>
        <time>2023-01-03T12:19:35.189Z</time>
      </trkpt>
      <trkpt lat="43.65134" lon="1.13787">
        <ele>183.065135</ele>
        <time>2023-01-03T12:19:37.175Z</time>
      </trkpt>
      <trkpt lat="43.6513" lon="1.138">
        <ele>183.114364</ele>
        <time>2023-01-03T12:19:39.162Z</time>
      </trkpt>
      <trkpt lat="43.65126" lon="1.13811">
        <ele>183.158686</ele>
        <time>2023-01-03T12:19:41.155Z</time>
      </trkpt>
      <trkpt lat="43.65123" lon="1.13824">
        <ele>183.206133</ele>
        <time>2023-01-03T12:19:43.153Z</time>
      </trkpt>
      <trkpt lat="43.65121" lon="1.13836">
        <ele>183.250496</ele>
        <time>2023-01-03T12:19:45.171Z</time>
      </trkpt>
      <trkpt lat="43.65119" lon="1.1385">
        <ele>183.298589</ele>
        <time>2023-01-03T12:19:47.155Z</time>
      </trkpt>
      <trkpt lat="43.65118" lon="1.13863">
        <ele>183.346534</ele>
        <time>2023-01-03T12:19:49.173Z</time>
      </trkpt>
      <trkpt lat="43.65117" lon="1.13877">
        <ele>183.392844</ele>
        <time>2023-01-03T12:19:51.160Z</time>
      </trkpt>
      <trkpt lat="43.65116" lon="1.13889">
        <ele>183.436506</ele>
        <time>2023-01-03T12:19:53.152Z</time>
      </trkpt>
      <trkpt lat="43.65116" lon="1.13908">
        <ele>183.502459</ele>
        <time>2023-01-03T12:19:56.167Z</time>
      </trkpt>
      <trkpt lat="43.65115" lon="1.1392">
        <ele>183.546734</ele>
        <time>2023-01-03T12:19:58.155Z</time>
      </trkpt>
      <trkpt lat="43.65115" lon="1.13937">
        <ele>183.695965</ele>
        <time>2023-01-03T12:20:01.155Z</time>
      </trkpt>
      <trkpt lat="43.65114" lon="1.13954">
        <ele>183.879216</ele>
        <time>2023-01-03T12:20:04.159Z</time>
      </trkpt>
      <trkpt lat="43.65113" lon="1.13971">
        <ele>184.058896</ele>
        <time>2023-01-03T12:20:07.146Z</time>
      </trkpt>
      <trkpt lat="43.65112" lon="1.13988">
        <ele>184.244094</ele>
        <time>2023-01-03T12:20:10.146Z</time>
      </trkpt>
      <trkpt lat="43.65111" lon="1.14005">
        <ele>184.430207</ele>
        <time>2023-01-03T12:20:13.157Z</time>
      </trkpt>
      <trkpt lat="43.65111" lon="1.14022">
        <ele>184.613143</ele>
        <time>2023-01-03T12:20:16.157Z</time>
      </trkpt>
      <trkpt lat="43.6511" lon="1.14038">
        <ele>184.792741</ele>
        <time>2023-01-03T12:20:19.147Z</time>
      </trkpt>
      <trkpt lat="43.6511" lon="1.14054">
        <ele>184.969964</ele>
        <time>2023-01-03T12:20:22.172Z</time>
      </trkpt>
      <trkpt lat="43.65111" lon="1.1407">
        <ele>185.138894</ele>
        <time>2023-01-03T12:20:25.151Z</time>
      </trkpt>
      <trkpt lat="43.65112" lon="1.14086">
        <ele>185.313614</ele>
        <time>2023-01-03T12:20:28.152Z</time>
      </trkpt>
      <trkpt lat="43.65112" lon="1.14101">
        <ele>185.481034</ele>
        <time>2023-01-03T12:20:31.153Z</time>
      </trkpt>
      <trkpt lat="43.65113" lon="1.14117">
        <ele>185.650077</ele>
        <time>2023-01-03T12:20:34.150Z</time>
      </trkpt>
      <trkpt lat="43.65114" lon="1.14132">
        <ele>185.821412</ele>
        <time>2023-01-03T12:20:37.168Z</time>
      </trkpt>
      <trkpt lat="43.65115" lon="1.14149">
        <ele>185.997881</ele>
        <time>2023-01-03T12:20:40.157Z</time>
      </trkpt>
      <trkpt lat="43.65117" lon="1.14165">
        <ele>186.181555</ele>
        <time>2023-01-03T12:20:43.143Z</time>
      </trkpt>
      <trkpt lat="43.65118" lon="1.14183">
        <ele>186.179815</ele>
        <time>2023-01-03T12:20:46.153Z</time>
      </trkpt>
      <trkpt lat="43.6512" lon="1.14201">
        <ele>186.018879</ele>
        <time>2023-01-03T12:20:49.160Z</time>
      </trkpt>
      <trkpt lat="43.65123" lon="1.14219">
        <ele>185.854008</ele>
        <time>2023-01-03T12:20:52.155Z</time>
      </trkpt>
      <trkpt lat="43.65126" lon="1.14231">
        <ele>185.736479</ele>
        <time>2023-01-03T12:20:54.151Z</time>
      </trkpt>
      <trkpt lat="43.6513" lon="1.14244">
        <ele>185.615617</ele>
        <time>2023-01-03T12:20:56.175Z</time>
      </trkpt>
      <trkpt lat="43.65135" lon="1.14256">
        <ele>185.491335</ele>
        <time>2023-01-03T12:20:58.175Z</time>
      </trkpt>
      <trkpt lat="43.6514" lon="1.14268">
        <ele>185.362521</ele>
        <time>2023-01-03T12:21:00.158Z</time>
      </trkpt>
      <trkpt lat="43.65146" lon="1.14281">
        <ele>185.233128</ele>
        <time>2023-01-03T12:21:02.170Z</time>
      </trkpt>
      <trkpt lat="43.65153" lon="1.14291">
        <ele>185.109389</ele>
        <time>2023-01-03T12:21:04.174Z</time>
      </trkpt>
      <trkpt lat="43.65159" lon="1.14303">
        <ele>184.98004</ele>
        <time>2023-01-03T12:21:06.173Z</time>
      </trkpt>
      <trkpt lat="43.65166" lon="1.14314">
        <ele>184.852589</ele>
        <time>2023-01-03T12:21:08.170Z</time>
      </trkpt>
      <trkpt lat="43.65172" lon="1.14325">
        <ele>184.734813</ele>
        <time>2023-01-03T12:21:10.172Z</time>
      </trkpt>
      <trkpt lat="43.65178" lon="1.14337">
        <ele>184.600406</ele>
        <time>2023-01-03T12:21:12.158Z</time>
      </trkpt>
      <trkpt lat="43.65185" lon="1.14348">
        <ele>184.468149</ele>
        <time>2023-01-03T12:21:14.171Z</time>
      </trkpt>
      <trkpt lat="43.65192" lon="1.1436">
        <ele>184.331072</ele>
        <time>2023-01-03T12:21:16.179Z</time>
      </trkpt>
      <trkpt lat="43.652" lon="1.14372">
        <ele>184.189281</ele>
        <time>2023-01-03T12:21:18.167Z</time>
      </trkpt>
      <trkpt lat="43.65207" lon="1.14385">
        <ele>184.042429</ele>
        <time>2023-01-03T12:21:20.175Z</time>
      </trkpt>
      <trkpt lat="43.65214" lon="1.14396">
        <ele>183.850237</ele>
        <time>2023-01-03T12:21:22.152Z</time>
      </trkpt>
      <trkpt lat="43.65221" lon="1.14408">
        <ele>183.655529</ele>
        <time>2023-01-03T12:21:24.178Z</time>
      </trkpt>
      <trkpt lat="43.65229" lon="1.1442">
        <ele>183.457594</ele>
        <time>2023-01-03T12:21:26.150Z</time>
      </trkpt>
      <trkpt lat="43.65236" lon="1.14432">
        <ele>183.258836</ele>
        <time>2023-01-03T12:21:28.177Z</time>
      </trkpt>
      <trkpt lat="43.65243" lon="1.14443">
        <ele>183.060723</ele>
        <time>2023-01-03T12:21:30.174Z</time>
      </trkpt>
      <trkpt lat="43.65251" lon="1.14455">
        <ele>182.858327</ele>
        <time>2023-01-03T12:21:32.165Z</time>
      </trkpt>
      <trkpt lat="43.65259" lon="1.14467">
        <ele>182.65622</ele>
        <time>2023-01-03T12:21:34.173Z</time>
      </trkpt>
      <trkpt lat="43.65267" lon="1.14478">
        <ele>182.458108</ele>
        <time>2023-01-03T12:21:36.176Z</time>
      </trkpt>
      <trkpt lat="43.65273" lon="1.14491">
        <ele>182.262726</ele>
        <time>2023-01-03T12:21:38.176Z</time>
      </trkpt>
      <trkpt lat="43.6528" lon="1.14504">
        <ele>182.050829</ele>
        <time>2023-01-03T12:21:40.173Z</time>
      </trkpt>
      <trkpt lat="43.65285" lon="1.14519">
        <ele>181.841323</ele>
        <time>2023-01-03T12:21:42.174Z</time>
      </trkpt>
      <trkpt lat="43.65288" lon="1.14535">
        <ele>181.637409</ele>
        <time>2023-01-03T12:21:44.154Z</time>
      </trkpt>
      <trkpt lat="43.6529" lon="1.14551">
        <ele>181.431233</ele>
        <time>2023-01-03T12:21:46.149Z</time>
      </trkpt>
      <trkpt lat="43.6529" lon="1.14567">
        <ele>181.22187</ele>
        <time>2023-01-03T12:21:48.174Z</time>
      </trkpt>
      <trkpt lat="43.6529" lon="1.14584">
        <ele>181.013688</ele>
        <time>2023-01-03T12:21:50.165Z</time>
      </trkpt>
      <trkpt lat="43.6529" lon="1.146">
        <ele>180.885441</ele>
        <time>2023-01-03T12:21:52.155Z</time>
      </trkpt>
      <trkpt lat="43.65289" lon="1.14616">
        <ele>180.836062</ele>
        <time>2023-01-03T12:21:54.175Z</time>
      </trkpt>
      <trkpt lat="43.6529" lon="1.14632">
        <ele>180.788204</ele>
        <time>2023-01-03T12:21:56.166Z</time>
      </trkpt>
      <trkpt lat="43.65291" lon="1.14647">
        <ele>180.739562</ele>
        <time>2023-01-03T12:21:58.153Z</time>
      </trkpt>
      <trkpt lat="43.65292" lon="1.14663">
        <ele>180.692998</ele>
        <time>2023-01-03T12:22:00.175Z</time>
      </trkpt>
      <trkpt lat="43.65293" lon="1.14677">
        <ele>180.64833</ele>
        <time>2023-01-03T12:22:02.169Z</time>
      </trkpt>
      <trkpt lat="43.65295" lon="1.14692">
        <ele>180.602394</ele>
        <time>2023-01-03T12:22:04.165Z</time>
      </trkpt>
      <trkpt lat="43.65298" lon="1.14706">
        <ele>180.559467</ele>
        <time>2023-01-03T12:22:06.176Z</time>
      </trkpt>
      <trkpt lat="43.65299" lon="1.14719">
        <ele>180.517437</ele>
        <time>2023-01-03T12:22:08.156Z</time>
      </trkpt>
      <trkpt lat="43.65302" lon="1.14736">
        <ele>180.465136</ele>
        <time>2023-01-03T12:22:11.151Z</time>
      </trkpt>
      <trkpt lat="43.65305" lon="1.14751">
        <ele>180.417075</ele>
        <time>2023-01-03T12:22:14.165Z</time>
      </trkpt>
      <trkpt lat="43.65308" lon="1.14766">
        <ele>180.369206</ele>
        <time>2023-01-03T12:22:17.150Z</time>
      </trkpt>
      <trkpt lat="43.65313" lon="1.14779">
        <ele>180.324567</ele>
        <time>2023-01-03T12:22:20.174Z</time>
      </trkpt>
      <trkpt lat="43.6532" lon="1.14789">
        <ele>180.28267</ele>
        <time>2023-01-03T12:22:23.165Z</time>
      </trkpt>
      <trkpt lat="43.65328" lon="1.14799">
        <ele>180.238807</ele>
        <time>2023-01-03T12:22:26.152Z</time>
      </trkpt>
      <trkpt lat="43.65335" lon="1.1481">
        <ele>180.192674</ele>
        <time>2023-01-03T12:22:29.150Z</time>
      </trkpt>
      <trkpt lat="43.65343" lon="1.14822">
        <ele>180.138266</ele>
        <time>2023-01-03T12:22:32.151Z</time>
      </trkpt>
      <trkpt lat="43.6535" lon="1.14834">
        <ele>180.035152</ele>
        <time>2023-01-03T12:22:35.175Z</time>
      </trkpt>
      <trkpt lat="43.65356" lon="1.14847">
        <ele>179.930549</ele>
        <time>2023-01-03T12:22:38.165Z</time>
      </trkpt>
      <trkpt lat="43.65364" lon="1.14861">
        <ele>179.822772</ele>
        <time>2023-01-03T12:22:41.155Z</time>
      </trkpt>
      <trkpt lat="43.6537" lon="1.14874">
        <ele>179.71551</ele>
        <time>2023-01-03T12:22:44.154Z</time>
      </trkpt>
      <trkpt lat="43.65376" lon="1.14889">
        <ele>179.604317</ele>
        <time>2023-01-03T12:22:47.147Z</time>
      </trkpt>
      <trkpt lat="43.65381" lon="1.14901">
        <ele>179.516997</ele>
        <time>2023-01-03T12:22:49.152Z</time>
      </trkpt>
      <trkpt lat="43.65384" lon="1.14913">
        <ele>179.431082</ele>
        <time>2023-01-03T12:22:51.158Z</time>
      </trkpt>
      <trkpt lat="43.65387" lon="1.14927">
        <ele>179.340239</ele>
        <time>2023-01-03T12:22:53.161Z</time>
      </trkpt>
      <trkpt lat="43.6539" lon="1.1494">
        <ele>179.248504</ele>
        <time>2023-01-03T12:22:55.171Z</time>
      </trkpt>
      <trkpt lat="43.65393" lon="1.14954">
        <ele>179.152574</ele>
        <time>2023-01-03T12:22:57.175Z</time>
      </trkpt>
      <trkpt lat="43.65395" lon="1.14968">
        <ele>179.059587</ele>
        <time>2023-01-03T12:22:59.173Z</time>
      </trkpt>
      <trkpt lat="43.65398" lon="1.14981">
        <ele>178.969752</ele>
        <time>2023-01-03T12:23:01.172Z</time>
      </trkpt>
      <trkpt lat="43.65401" lon="1.14995">
        <ele>178.87704</ele>
        <time>2023-01-03T12:23:03.173Z</time>
      </trkpt>
      <trkpt lat="43.65404" lon="1.15009">
        <ele>178.782377</ele>
        <time>2023-01-03T12:23:05.173Z</time>
      </trkpt>
      <trkpt lat="43.65407" lon="1.15024">
        <ele>178.684037</ele>
        <time>2023-01-03T12:23:07.174Z</time>
      </trkpt>
      <trkpt lat="43.6541" lon="1.15038">
        <ele>178.583568</ele>
        <time>2023-01-03T12:23:09.171Z</time>
      </trkpt>
      <trkpt lat="43.65413" lon="1.15053">
        <ele>178.538448</ele>
        <time>2023-01-03T12:23:11.155Z</time>
      </trkpt>
      <trkpt lat="43.65416" lon="1.15067">
        <ele>178.557509</ele>
        <time>2023-01-03T12:23:13.152Z</time>
      </trkpt>
      <trkpt lat="43.65419" lon="1.15082">
        <ele>178.576744</ele>
        <time>2023-01-03T12:23:15.171Z</time>
      </trkpt>
      <trkpt lat="43.65422" lon="1.15096">
        <ele>178.595009</ele>
        <time>2023-01-03T12:23:17.161Z</time>
      </trkpt>
      <trkpt lat="43.65426" lon="1.1511">
        <ele>178.614305</ele>
        <time>2023-01-03T12:23:19.162Z</time>
      </trkpt>
      <trkpt lat="43.6543" lon="1.15124">
        <ele>178.632894</ele>
        <time>2023-01-03T12:23:21.171Z</time>
      </trkpt>
      <trkpt lat="43.65434" lon="1.15138">
        <ele>178.651716</ele>
        <time>2023-01-03T12:23:23.149Z</time>
      </trkpt>
      <trkpt lat="43.65439" lon="1.15152">
        <ele>178.670581</ele>
        <time>2023-01-03T12:23:25.153Z</time>
      </trkpt>
      <trkpt lat="43.65444" lon="1.15165">
        <ele>178.689554</ele>
        <time>2023-01-03T12:23:27.175Z</time>
      </trkpt>
      <trkpt lat="43.65449" lon="1.15179">
        <ele>178.708742</ele>
        <time>2023-01-03T12:23:29.172Z</time>
      </trkpt>
      <trkpt lat="43.65455" lon="1.15192">
        <ele>178.727651</ele>
        <time>2023-01-03T12:23:31.175Z</time>
      </trkpt>
      <trkpt lat="43.65461" lon="1.15204">
        <ele>178.746008</ele>
        <time>2023-01-03T12:23:33.176Z</time>
      </trkpt>
      <trkpt lat="43.65466" lon="1.15216">
        <ele>178.764375</ele>
        <time>2023-01-03T12:23:35.169Z</time>
      </trkpt>
      <trkpt lat="43.65472" lon="1.15227">
        <ele>178.781015</ele>
        <time>2023-01-03T12:23:37.153Z</time>
      </trkpt>
      <trkpt lat="43.65478" lon="1.15237">
        <ele>178.796725</ele>
        <time>2023-01-03T12:23:39.173Z</time>
      </trkpt>
      <trkpt lat="43.65484" lon="1.15247">
        <ele>178.813088</ele>
        <time>2023-01-03T12:23:43.155Z</time>
      </trkpt>
      <trkpt lat="43.65496" lon="1.15265">
        <ele>178.835178</ele>
        <time>2023-01-03T12:24:28.164Z</time>
      </trkpt>
      <trkpt lat="43.65503" lon="1.15277">
        <ele>178.794495</ele>
        <time>2023-01-03T12:24:31.165Z</time>
      </trkpt>
      <trkpt lat="43.65511" lon="1.15291">
        <ele>178.748313</ele>
        <time>2023-01-03T12:24:34.163Z</time>
      </trkpt>
      <trkpt lat="43.65519" lon="1.15305">
        <ele>178.700405</ele>
        <time>2023-01-03T12:24:37.163Z</time>
      </trkpt>
      <trkpt lat="43.65525" lon="1.15316">
        <ele>178.664447</ele>
        <time>2023-01-03T12:24:39.164Z</time>
      </trkpt>
      <trkpt lat="43.65531" lon="1.15327">
        <ele>178.628939</ele>
        <time>2023-01-03T12:24:41.160Z</time>
      </trkpt>
      <trkpt lat="43.65537" lon="1.15337">
        <ele>178.593188</ele>
        <time>2023-01-03T12:24:43.144Z</time>
      </trkpt>
      <trkpt lat="43.65543" lon="1.15348">
        <ele>178.557643</ele>
        <time>2023-01-03T12:24:45.151Z</time>
      </trkpt>
      <trkpt lat="43.65549" lon="1.15359">
        <ele>178.520852</ele>
        <time>2023-01-03T12:24:47.144Z</time>
      </trkpt>
      <trkpt lat="43.65555" lon="1.1537">
        <ele>178.48469</ele>
        <time>2023-01-03T12:24:49.145Z</time>
      </trkpt>
      <trkpt lat="43.65561" lon="1.15382">
        <ele>178.447905</ele>
        <time>2023-01-03T12:24:51.164Z</time>
      </trkpt>
      <trkpt lat="43.65567" lon="1.15394">
        <ele>178.409633</ele>
        <time>2023-01-03T12:24:53.167Z</time>
      </trkpt>
      <trkpt lat="43.65573" lon="1.15405">
        <ele>178.372421</ele>
        <time>2023-01-03T12:24:55.154Z</time>
      </trkpt>
      <trkpt lat="43.65579" lon="1.15417">
        <ele>178.335199</ele>
        <time>2023-01-03T12:24:57.164Z</time>
      </trkpt>
      <trkpt lat="43.65585" lon="1.15428">
        <ele>178.297331</ele>
        <time>2023-01-03T12:24:59.163Z</time>
      </trkpt>
      <trkpt lat="43.65592" lon="1.1544">
        <ele>178.259475</ele>
        <time>2023-01-03T12:25:01.165Z</time>
      </trkpt>
      <trkpt lat="43.65598" lon="1.15451">
        <ele>178.221628</ele>
        <time>2023-01-03T12:25:03.164Z</time>
      </trkpt>
      <trkpt lat="43.65604" lon="1.15464">
        <ele>178.193617</ele>
        <time>2023-01-03T12:25:05.164Z</time>
      </trkpt>
      <trkpt lat="43.65611" lon="1.15475">
        <ele>178.220841</ele>
        <time>2023-01-03T12:25:07.164Z</time>
      </trkpt>
      <trkpt lat="43.65617" lon="1.15488">
        <ele>178.249116</ele>
        <time>2023-01-03T12:25:09.167Z</time>
      </trkpt>
      <trkpt lat="43.65623" lon="1.15501">
        <ele>178.27741</ele>
        <time>2023-01-03T12:25:11.167Z</time>
      </trkpt>
      <trkpt lat="43.65629" lon="1.15513">
        <ele>178.30523</ele>
        <time>2023-01-03T12:25:13.164Z</time>
      </trkpt>
      <trkpt lat="43.65635" lon="1.15525">
        <ele>178.332304</ele>
        <time>2023-01-03T12:25:15.165Z</time>
      </trkpt>
      <trkpt lat="43.65642" lon="1.15536">
        <ele>178.358782</ele>
        <time>2023-01-03T12:25:17.156Z</time>
      </trkpt>
      <trkpt lat="43.65648" lon="1.15548">
        <ele>178.386903</ele>
        <time>2023-01-03T12:25:19.163Z</time>
      </trkpt>
      <trkpt lat="43.65654" lon="1.1556">
        <ele>178.414123</ele>
        <time>2023-01-03T12:25:21.175Z</time>
      </trkpt>
      <trkpt lat="43.6566" lon="1.15571">
        <ele>178.439539</ele>
        <time>2023-01-03T12:25:23.158Z</time>
      </trkpt>
      <trkpt lat="43.65665" lon="1.15582">
        <ele>178.463309</ele>
        <time>2023-01-03T12:25:25.168Z</time>
      </trkpt>
      <trkpt lat="43.6567" lon="1.15592">
        <ele>178.486628</ele>
        <time>2023-01-03T12:25:27.164Z</time>
      </trkpt>
      <trkpt lat="43.65676" lon="1.15603">
        <ele>178.510237</ele>
        <time>2023-01-03T12:25:29.166Z</time>
      </trkpt>
      <trkpt lat="43.65681" lon="1.15613">
        <ele>178.534151</ele>
        <time>2023-01-03T12:25:31.166Z</time>
      </trkpt>
      <trkpt lat="43.65687" lon="1.15624">
        <ele>178.559264</ele>
        <time>2023-01-03T12:25:33.153Z</time>
      </trkpt>
      <trkpt lat="43.65693" lon="1.15635">
        <ele>178.585129</ele>
        <time>2023-01-03T12:25:35.172Z</time>
      </trkpt>
      <trkpt lat="43.65699" lon="1.15647">
        <ele>178.61176</ele>
        <time>2023-01-03T12:25:37.149Z</time>
      </trkpt>
      <trkpt lat="43.65705" lon="1.15659">
        <ele>178.639885</ele>
        <time>2023-01-03T12:25:39.166Z</time>
      </trkpt>
      <trkpt lat="43.65713" lon="1.15671">
        <ele>178.665682</ele>
        <time>2023-01-03T12:25:41.172Z</time>
      </trkpt>
      <trkpt lat="43.6572" lon="1.15683">
        <ele>178.690344</ele>
        <time>2023-01-03T12:25:43.169Z</time>
      </trkpt>
      <trkpt lat="43.65727" lon="1.15694">
        <ele>178.714749</ele>
        <time>2023-01-03T12:25:45.166Z</time>
      </trkpt>
      <trkpt lat="43.65735" lon="1.15705">
        <ele>178.739121</ele>
        <time>2023-01-03T12:25:47.169Z</time>
      </trkpt>
      <trkpt lat="43.65743" lon="1.15715">
        <ele>178.763877</ele>
        <time>2023-01-03T12:25:49.147Z</time>
      </trkpt>
      <trkpt lat="43.65752" lon="1.15724">
        <ele>178.787982</ele>
        <time>2023-01-03T12:25:51.168Z</time>
      </trkpt>
      <trkpt lat="43.6576" lon="1.15734">
        <ele>178.812981</ele>
        <time>2023-01-03T12:25:53.168Z</time>
      </trkpt>
      <trkpt lat="43.65769" lon="1.15743">
        <ele>178.837488</ele>
        <time>2023-01-03T12:25:55.158Z</time>
      </trkpt>
      <trkpt lat="43.65778" lon="1.15752">
        <ele>178.862268</ele>
        <time>2023-01-03T12:25:57.166Z</time>
      </trkpt>
      <trkpt lat="43.65787" lon="1.15762">
        <ele>178.886445</ele>
        <time>2023-01-03T12:25:59.166Z</time>
      </trkpt>
      <trkpt lat="43.65795" lon="1.15772">
        <ele>178.91151</ele>
        <time>2023-01-03T12:26:01.164Z</time>
      </trkpt>
      <trkpt lat="43.65804" lon="1.15783">
        <ele>178.938187</ele>
        <time>2023-01-03T12:26:03.162Z</time>
      </trkpt>
      <trkpt lat="43.65811" lon="1.15795">
        <ele>178.963362</ele>
        <time>2023-01-03T12:26:05.168Z</time>
      </trkpt>
      <trkpt lat="43.65817" lon="1.15808">
        <ele>178.988638</ele>
        <time>2023-01-03T12:26:07.170Z</time>
      </trkpt>
      <trkpt lat="43.65823" lon="1.15821">
        <ele>179.012447</ele>
        <time>2023-01-03T12:26:09.167Z</time>
      </trkpt>
      <trkpt lat="43.65828" lon="1.15834">
        <ele>179.036845</ele>
        <time>2023-01-03T12:26:11.160Z</time>
      </trkpt>
      <trkpt lat="43.65833" lon="1.15847">
        <ele>179.03134</ele>
        <time>2023-01-03T12:26:13.165Z</time>
      </trkpt>
      <trkpt lat="43.65839" lon="1.15859">
        <ele>178.99266</ele>
        <time>2023-01-03T12:26:15.156Z</time>
      </trkpt>
      <trkpt lat="43.65843" lon="1.15873">
        <ele>178.951646</ele>
        <time>2023-01-03T12:26:17.165Z</time>
      </trkpt>
      <trkpt lat="43.65849" lon="1.15886">
        <ele>178.911596</ele>
        <time>2023-01-03T12:26:19.164Z</time>
      </trkpt>
      <trkpt lat="43.65855" lon="1.15898">
        <ele>178.871261</ele>
        <time>2023-01-03T12:26:21.166Z</time>
      </trkpt>
      <trkpt lat="43.6586" lon="1.15911">
        <ele>178.8304</ele>
        <time>2023-01-03T12:26:23.166Z</time>
      </trkpt>
      <trkpt lat="43.65866" lon="1.15924">
        <ele>178.789215</ele>
        <time>2023-01-03T12:26:25.165Z</time>
      </trkpt>
      <trkpt lat="43.65871" lon="1.15937">
        <ele>178.747678</ele>
        <time>2023-01-03T12:26:27.164Z</time>
      </trkpt>
      <trkpt lat="43.65877" lon="1.15951">
        <ele>178.704789</ele>
        <time>2023-01-03T12:26:29.162Z</time>
      </trkpt>
      <trkpt lat="43.65882" lon="1.15964">
        <ele>178.663415</ele>
        <time>2023-01-03T12:26:31.147Z</time>
      </trkpt>
      <trkpt lat="43.65888" lon="1.15978">
        <ele>178.620377</ele>
        <time>2023-01-03T12:26:33.164Z</time>
      </trkpt>
      <trkpt lat="43.65893" lon="1.15991">
        <ele>178.578705</ele>
        <time>2023-01-03T12:26:35.165Z</time>
      </trkpt>
      <trkpt lat="43.65898" lon="1.16004">
        <ele>178.537283</ele>
        <time>2023-01-03T12:26:37.163Z</time>
      </trkpt>
      <trkpt lat="43.65903" lon="1.16018">
        <ele>178.494961</ele>
        <time>2023-01-03T12:26:39.164Z</time>
      </trkpt>
      <trkpt lat="43.65909" lon="1.16032">
        <ele>178.451165</ele>
        <time>2023-01-03T12:26:41.169Z</time>
      </trkpt>
      <trkpt lat="43.65913" lon="1.16047">
        <ele>178.40711</ele>
        <time>2023-01-03T12:26:43.164Z</time>
      </trkpt>
      <trkpt lat="43.65918" lon="1.16062">
        <ele>178.380598</ele>
        <time>2023-01-03T12:26:45.168Z</time>
      </trkpt>
      <trkpt lat="43.65922" lon="1.16077">
        <ele>178.438438</ele>
        <time>2023-01-03T12:26:47.167Z</time>
      </trkpt>
      <trkpt lat="43.65926" lon="1.16092">
        <ele>178.498355</ele>
        <time>2023-01-03T12:26:49.144Z</time>
      </trkpt>
      <trkpt lat="43.6593" lon="1.16107">
        <ele>178.557931</ele>
        <time>2023-01-03T12:26:51.152Z</time>
      </trkpt>
      <trkpt lat="43.65934" lon="1.16122">
        <ele>178.616806</ele>
        <time>2023-01-03T12:26:53.166Z</time>
      </trkpt>
      <trkpt lat="43.65939" lon="1.16137">
        <ele>178.675025</ele>
        <time>2023-01-03T12:26:55.165Z</time>
      </trkpt>
      <trkpt lat="43.65943" lon="1.16152">
        <ele>178.733096</ele>
        <time>2023-01-03T12:26:57.157Z</time>
      </trkpt>
      <trkpt lat="43.65947" lon="1.16166">
        <ele>178.789625</ele>
        <time>2023-01-03T12:26:59.163Z</time>
      </trkpt>
      <trkpt lat="43.65952" lon="1.16181">
        <ele>178.846492</ele>
        <time>2023-01-03T12:27:01.166Z</time>
      </trkpt>
      <trkpt lat="43.65956" lon="1.16195">
        <ele>178.901876</ele>
        <time>2023-01-03T12:27:03.150Z</time>
      </trkpt>
      <trkpt lat="43.6596" lon="1.16209">
        <ele>178.957662</ele>
        <time>2023-01-03T12:27:05.145Z</time>
      </trkpt>
      <trkpt lat="43.65964" lon="1.16223">
        <ele>179.012245</ele>
        <time>2023-01-03T12:27:07.168Z</time>
      </trkpt>
      <trkpt lat="43.65968" lon="1.16237">
        <ele>179.067294</ele>
        <time>2023-01-03T12:27:09.164Z</time>
      </trkpt>
      <trkpt lat="43.65972" lon="1.1625">
        <ele>179.120333</ele>
        <time>2023-01-03T12:27:11.162Z</time>
      </trkpt>
      <trkpt lat="43.65976" lon="1.16264">
        <ele>179.173106</ele>
        <time>2023-01-03T12:27:13.162Z</time>
      </trkpt>
      <trkpt lat="43.6598" lon="1.16277">
        <ele>179.225879</ele>
        <time>2023-01-03T12:27:15.165Z</time>
      </trkpt>
      <trkpt lat="43.65984" lon="1.1629">
        <ele>179.277589</ele>
        <time>2023-01-03T12:27:17.160Z</time>
      </trkpt>
      <trkpt lat="43.65987" lon="1.16303">
        <ele>179.269896</ele>
        <time>2023-01-03T12:27:19.165Z</time>
      </trkpt>
      <trkpt lat="43.6599" lon="1.16317">
        <ele>179.261413</ele>
        <time>2023-01-03T12:27:21.164Z</time>
      </trkpt>
      <trkpt lat="43.65994" lon="1.16329">
        <ele>179.253512</ele>
        <time>2023-01-03T12:27:23.144Z</time>
      </trkpt>
      <trkpt lat="43.65998" lon="1.16342">
        <ele>179.245561</ele>
        <time>2023-01-03T12:27:25.169Z</time>
      </trkpt>
      <trkpt lat="43.66001" lon="1.16354">
        <ele>179.2375</ele>
        <time>2023-01-03T12:27:27.164Z</time>
      </trkpt>
      <trkpt lat="43.66005" lon="1.16367">
        <ele>179.229066</ele>
        <time>2023-01-03T12:27:29.164Z</time>
      </trkpt>
      <trkpt lat="43.66008" lon="1.1638">
        <ele>179.22092</ele>
        <time>2023-01-03T12:27:31.167Z</time>
      </trkpt>
      <trkpt lat="43.66012" lon="1.16393">
        <ele>179.212508</ele>
        <time>2023-01-03T12:27:33.164Z</time>
      </trkpt>
      <trkpt lat="43.66016" lon="1.16407">
        <ele>179.203965</ele>
        <time>2023-01-03T12:27:35.156Z</time>
      </trkpt>
      <trkpt lat="43.6602" lon="1.1642">
        <ele>179.195676</ele>
        <time>2023-01-03T12:27:37.167Z</time>
      </trkpt>
      <trkpt lat="43.66024" lon="1.16434">
        <ele>179.186447</ele>
        <time>2023-01-03T12:27:39.162Z</time>
      </trkpt>
      <trkpt lat="43.66029" lon="1.16448">
        <ele>179.177614</ele>
        <time>2023-01-03T12:27:41.167Z</time>
      </trkpt>
      <trkpt lat="43.66033" lon="1.16461">
        <ele>179.16882</ele>
        <time>2023-01-03T12:27:43.169Z</time>
      </trkpt>
      <trkpt lat="43.66037" lon="1.16475">
        <ele>179.160125</ele>
        <time>2023-01-03T12:27:45.167Z</time>
      </trkpt>
      <trkpt lat="43.66042" lon="1.16488">
        <ele>179.151202</ele>
        <time>2023-01-03T12:27:47.168Z</time>
      </trkpt>
      <trkpt lat="43.66047" lon="1.16502">
        <ele>179.141851</ele>
        <time>2023-01-03T12:27:49.164Z</time>
      </trkpt>
      <trkpt lat="43.66052" lon="1.16516">
        <ele>179.132822</ele>
        <time>2023-01-03T12:27:51.168Z</time>
      </trkpt>
      <trkpt lat="43.66057" lon="1.16529">
        <ele>179.168239</ele>
        <time>2023-01-03T12:27:53.165Z</time>
      </trkpt>
      <trkpt lat="43.66063" lon="1.16542">
        <ele>179.218243</ele>
        <time>2023-01-03T12:27:55.152Z</time>
      </trkpt>
      <trkpt lat="43.66068" lon="1.16555">
        <ele>179.267829</ele>
        <time>2023-01-03T12:27:57.164Z</time>
      </trkpt>
      <trkpt lat="43.66073" lon="1.16567">
        <ele>179.313882</ele>
        <time>2023-01-03T12:27:59.145Z</time>
      </trkpt>
      <trkpt lat="43.66078" lon="1.16579">
        <ele>179.360286</ele>
        <time>2023-01-03T12:28:01.175Z</time>
      </trkpt>
      <trkpt lat="43.66083" lon="1.16591">
        <ele>179.407295</ele>
        <time>2023-01-03T12:28:03.167Z</time>
      </trkpt>
      <trkpt lat="43.66089" lon="1.16602">
        <ele>179.453208</ele>
        <time>2023-01-03T12:28:05.161Z</time>
      </trkpt>
      <trkpt lat="43.66094" lon="1.16614">
        <ele>179.498348</ele>
        <time>2023-01-03T12:28:07.164Z</time>
      </trkpt>
      <trkpt lat="43.66099" lon="1.16625">
        <ele>179.542282</ele>
        <time>2023-01-03T12:28:09.163Z</time>
      </trkpt>
      <trkpt lat="43.66104" lon="1.16636">
        <ele>179.586569</ele>
        <time>2023-01-03T12:28:11.166Z</time>
      </trkpt>
      <trkpt lat="43.66109" lon="1.16647">
        <ele>179.630944</ele>
        <time>2023-01-03T12:28:13.150Z</time>
      </trkpt>
      <trkpt lat="43.66114" lon="1.16658">
        <ele>179.674616</ele>
        <time>2023-01-03T12:28:15.168Z</time>
      </trkpt>
      <trkpt lat="43.66119" lon="1.16668">
        <ele>179.716404</ele>
        <time>2023-01-03T12:28:17.148Z</time>
      </trkpt>
      <trkpt lat="43.66124" lon="1.16679">
        <ele>179.757969</ele>
        <time>2023-01-03T12:28:19.169Z</time>
      </trkpt>
      <trkpt lat="43.66129" lon="1.1669">
        <ele>179.800065</ele>
        <time>2023-01-03T12:28:21.165Z</time>
      </trkpt>
      <trkpt lat="43.66137" lon="1.16704">
        <ele>179.860897</ele>
        <time>2023-01-03T12:28:24.150Z</time>
      </trkpt>
      <trkpt lat="43.66144" lon="1.16718">
        <ele>179.920045</ele>
        <time>2023-01-03T12:28:27.160Z</time>
      </trkpt>
      <trkpt lat="43.66153" lon="1.16732">
        <ele>179.963364</ele>
        <time>2023-01-03T12:28:30.167Z</time>
      </trkpt>
      <trkpt lat="43.66162" lon="1.16745">
        <ele>179.965896</ele>
        <time>2023-01-03T12:28:33.165Z</time>
      </trkpt>
      <trkpt lat="43.6617" lon="1.16757">
        <ele>179.968374</ele>
        <time>2023-01-03T12:28:36.150Z</time>
      </trkpt>
      <trkpt lat="43.6618" lon="1.16767">
        <ele>179.970772</ele>
        <time>2023-01-03T12:28:39.164Z</time>
      </trkpt>
      <trkpt lat="43.66188" lon="1.16776">
        <ele>179.972885</ele>
        <time>2023-01-03T12:28:42.169Z</time>
      </trkpt>
      <trkpt lat="43.66196" lon="1.16786">
        <ele>179.97499</ele>
        <time>2023-01-03T12:28:45.167Z</time>
      </trkpt>
      <trkpt lat="43.66204" lon="1.16797">
        <ele>179.977216</ele>
        <time>2023-01-03T12:28:48.167Z</time>
      </trkpt>
      <trkpt lat="43.66211" lon="1.1681">
        <ele>179.979476</ele>
        <time>2023-01-03T12:28:51.169Z</time>
      </trkpt>
      <trkpt lat="43.66216" lon="1.16823">
        <ele>179.98164</ele>
        <time>2023-01-03T12:28:54.167Z</time>
      </trkpt>
      <trkpt lat="43.6622" lon="1.16838">
        <ele>179.983941</ele>
        <time>2023-01-03T12:28:57.165Z</time>
      </trkpt>
      <trkpt lat="43.66224" lon="1.16854">
        <ele>179.986321</ele>
        <time>2023-01-03T12:29:00.166Z</time>
      </trkpt>
      <trkpt lat="43.66228" lon="1.1687">
        <ele>179.988783</ele>
        <time>2023-01-03T12:29:03.171Z</time>
      </trkpt>
      <trkpt lat="43.66232" lon="1.16886">
        <ele>179.991191</ele>
        <time>2023-01-03T12:29:06.169Z</time>
      </trkpt>
      <trkpt lat="43.66234" lon="1.16902">
        <ele>179.993607</ele>
        <time>2023-01-03T12:29:09.165Z</time>
      </trkpt>
      <trkpt lat="43.66238" lon="1.16919">
        <ele>179.996155</ele>
        <time>2023-01-03T12:29:12.164Z</time>
      </trkpt>
      <trkpt lat="43.66239" lon="1.16932">
        <ele>179.998012</ele>
        <time>2023-01-03T12:29:14.168Z</time>
      </trkpt>
      <trkpt lat="43.66241" lon="1.16945">
        <ele>179.925619</ele>
        <time>2023-01-03T12:29:16.165Z</time>
      </trkpt>
      <trkpt lat="43.66243" lon="1.16958">
        <ele>179.83693</ele>
        <time>2023-01-03T12:29:18.150Z</time>
      </trkpt>
      <trkpt lat="43.66246" lon="1.16972">
        <ele>179.739361</ele>
        <time>2023-01-03T12:29:20.167Z</time>
      </trkpt>
      <trkpt lat="43.66249" lon="1.16986">
        <ele>179.646287</ele>
        <time>2023-01-03T12:29:22.170Z</time>
      </trkpt>
      <trkpt lat="43.66252" lon="1.17">
        <ele>179.547397</ele>
        <time>2023-01-03T12:29:24.165Z</time>
      </trkpt>
      <trkpt lat="43.66256" lon="1.17013">
        <ele>179.450747</ele>
        <time>2023-01-03T12:29:26.168Z</time>
      </trkpt>
      <trkpt lat="43.6626" lon="1.17027">
        <ele>179.350565</ele>
        <time>2023-01-03T12:29:28.166Z</time>
      </trkpt>
      <trkpt lat="43.66265" lon="1.17041">
        <ele>179.246977</ele>
        <time>2023-01-03T12:29:30.165Z</time>
      </trkpt>
      <trkpt lat="43.6627" lon="1.17055">
        <ele>179.140587</ele>
        <time>2023-01-03T12:29:32.164Z</time>
      </trkpt>
      <trkpt lat="43.66275" lon="1.1707">
        <ele>179.032399</ele>
        <time>2023-01-03T12:29:34.164Z</time>
      </trkpt>
      <trkpt lat="43.66281" lon="1.17084">
        <ele>178.925348</ele>
        <time>2023-01-03T12:29:36.168Z</time>
      </trkpt>
      <trkpt lat="43.66286" lon="1.17098">
        <ele>178.822109</ele>
        <time>2023-01-03T12:29:38.144Z</time>
      </trkpt>
      <trkpt lat="43.6629" lon="1.17112">
        <ele>178.718881</ele>
        <time>2023-01-03T12:29:40.168Z</time>
      </trkpt>
      <trkpt lat="43.66294" lon="1.17125">
        <ele>178.625994</ele>
        <time>2023-01-03T12:29:42.165Z</time>
      </trkpt>
      <trkpt lat="43.66297" lon="1.17137">
        <ele>178.539377</ele>
        <time>2023-01-03T12:29:44.162Z</time>
      </trkpt>
      <trkpt lat="43.66301" lon="1.17155">
        <ele>178.417942</ele>
        <time>2023-01-03T12:29:47.166Z</time>
      </trkpt>
      <trkpt lat="43.66304" lon="1.17166">
        <ele>178.347029</ele>
        <time>2023-01-03T12:29:49.164Z</time>
      </trkpt>
      <trkpt lat="43.6631" lon="1.17183">
        <ele>178.511734</ele>
        <time>2023-01-03T12:29:52.168Z</time>
      </trkpt>
      <trkpt lat="43.66315" lon="1.172">
        <ele>178.678897</ele>
        <time>2023-01-03T12:29:55.165Z</time>
      </trkpt>
      <trkpt lat="43.6632" lon="1.1721">
        <ele>178.791379</ele>
        <time>2023-01-03T12:29:57.157Z</time>
      </trkpt>
      <trkpt lat="43.66325" lon="1.17222">
        <ele>178.910437</ele>
        <time>2023-01-03T12:29:59.166Z</time>
      </trkpt>
      <trkpt lat="43.6633" lon="1.17233">
        <ele>179.030271</ele>
        <time>2023-01-03T12:30:01.169Z</time>
      </trkpt>
      <trkpt lat="43.66335" lon="1.17244">
        <ele>179.149976</ele>
        <time>2023-01-03T12:30:03.169Z</time>
      </trkpt>
      <trkpt lat="43.6634" lon="1.17256">
        <ele>179.270921</ele>
        <time>2023-01-03T12:30:05.160Z</time>
      </trkpt>
      <trkpt lat="43.66346" lon="1.17266">
        <ele>179.390278</ele>
        <time>2023-01-03T12:30:07.166Z</time>
      </trkpt>
      <trkpt lat="43.66351" lon="1.17277">
        <ele>179.503784</ele>
        <time>2023-01-03T12:30:09.154Z</time>
      </trkpt>
      <trkpt lat="43.66359" lon="1.17291">
        <ele>179.663435</ele>
        <time>2023-01-03T12:30:12.164Z</time>
      </trkpt>
      <trkpt lat="43.66367" lon="1.17304">
        <ele>179.822462</ele>
        <time>2023-01-03T12:30:15.165Z</time>
      </trkpt>
      <trkpt lat="43.66375" lon="1.17317">
        <ele>179.981658</ele>
        <time>2023-01-03T12:30:18.165Z</time>
      </trkpt>
      <trkpt lat="43.66384" lon="1.17331">
        <ele>180.141764</ele>
        <time>2023-01-03T12:30:21.162Z</time>
      </trkpt>
      <trkpt lat="43.66392" lon="1.17344">
        <ele>180.299569</ele>
        <time>2023-01-03T12:30:24.152Z</time>
      </trkpt>
      <trkpt lat="43.66401" lon="1.17358">
        <ele>180.463297</ele>
        <time>2023-01-03T12:30:27.164Z</time>
      </trkpt>
      <trkpt lat="43.66409" lon="1.17371">
        <ele>180.607278</ele>
        <time>2023-01-03T12:30:30.167Z</time>
      </trkpt>
      <trkpt lat="43.66416" lon="1.17383">
        <ele>180.692024</ele>
        <time>2023-01-03T12:30:33.165Z</time>
      </trkpt>
      <trkpt lat="43.66423" lon="1.17395">
        <ele>180.782154</ele>
        <time>2023-01-03T12:30:36.168Z</time>
      </trkpt>
      <trkpt lat="43.6643" lon="1.1741">
        <ele>180.87601</ele>
        <time>2023-01-03T12:30:39.166Z</time>
      </trkpt>
      <trkpt lat="43.66436" lon="1.17424">
        <ele>180.971688</ele>
        <time>2023-01-03T12:30:42.165Z</time>
      </trkpt>
      <trkpt lat="43.66443" lon="1.1744">
        <ele>181.07101</ele>
        <time>2023-01-03T12:30:45.167Z</time>
      </trkpt>
      <trkpt lat="43.66449" lon="1.17455">
        <ele>181.170958</ele>
        <time>2023-01-03T12:30:48.170Z</time>
      </trkpt>
      <trkpt lat="43.66455" lon="1.17472">
        <ele>181.270501</ele>
        <time>2023-01-03T12:30:51.165Z</time>
      </trkpt>
      <trkpt lat="43.6646" lon="1.17487">
        <ele>181.369738</ele>
        <time>2023-01-03T12:30:54.168Z</time>
      </trkpt>
      <trkpt lat="43.66465" lon="1.17502">
        <ele>181.460953</ele>
        <time>2023-01-03T12:30:57.165Z</time>
      </trkpt>
      <trkpt lat="43.66469" lon="1.17515">
        <ele>181.53625</ele>
        <time>2023-01-03T12:31:00.152Z</time>
      </trkpt>
      <trkpt lat="43.66474" lon="1.17526">
        <ele>181.609227</ele>
        <time>2023-01-03T12:31:03.168Z</time>
      </trkpt>
      <trkpt lat="43.66478" lon="1.1754">
        <ele>181.69237</ele>
        <time>2023-01-03T12:31:06.164Z</time>
      </trkpt>
      <trkpt lat="43.66483" lon="1.17556">
        <ele>181.787633</ele>
        <time>2023-01-03T12:31:09.168Z</time>
      </trkpt>
      <trkpt lat="43.66487" lon="1.17567">
        <ele>181.858669</ele>
        <time>2023-01-03T12:31:11.169Z</time>
      </trkpt>
      <trkpt lat="43.66491" lon="1.17579">
        <ele>181.932044</ele>
        <time>2023-01-03T12:31:13.162Z</time>
      </trkpt>
      <trkpt lat="43.66495" lon="1.17592">
        <ele>181.867405</ele>
        <time>2023-01-03T12:31:15.166Z</time>
      </trkpt>
      <trkpt lat="43.66499" lon="1.17605">
        <ele>181.682698</ele>
        <time>2023-01-03T12:31:17.146Z</time>
      </trkpt>
      <trkpt lat="43.66503" lon="1.17618">
        <ele>181.503345</ele>
        <time>2023-01-03T12:31:19.167Z</time>
      </trkpt>
      <trkpt lat="43.66507" lon="1.1763">
        <ele>181.321794</ele>
        <time>2023-01-03T12:31:21.168Z</time>
      </trkpt>
      <trkpt lat="43.66511" lon="1.17644">
        <ele>181.125629</ele>
        <time>2023-01-03T12:31:23.163Z</time>
      </trkpt>
      <trkpt lat="43.66516" lon="1.17658">
        <ele>180.921695</ele>
        <time>2023-01-03T12:31:25.165Z</time>
      </trkpt>
      <trkpt lat="43.66522" lon="1.17672">
        <ele>180.709747</ele>
        <time>2023-01-03T12:31:27.163Z</time>
      </trkpt>
      <trkpt lat="43.66528" lon="1.17687">
        <ele>180.488393</ele>
        <time>2023-01-03T12:31:29.163Z</time>
      </trkpt>
      <trkpt lat="43.66535" lon="1.17701">
        <ele>180.263228</ele>
        <time>2023-01-03T12:31:31.157Z</time>
      </trkpt>
      <trkpt lat="43.66542" lon="1.17716">
        <ele>180.038181</ele>
        <time>2023-01-03T12:31:33.168Z</time>
      </trkpt>
      <trkpt lat="43.66548" lon="1.17731">
        <ele>179.805409</ele>
        <time>2023-01-03T12:31:35.166Z</time>
      </trkpt>
      <trkpt lat="43.66555" lon="1.17745">
        <ele>179.586895</ele>
        <time>2023-01-03T12:31:37.170Z</time>
      </trkpt>
      <trkpt lat="43.66563" lon="1.17759">
        <ele>179.350442</ele>
        <time>2023-01-03T12:31:39.165Z</time>
      </trkpt>
      <trkpt lat="43.6657" lon="1.17773">
        <ele>179.127766</ele>
        <time>2023-01-03T12:31:41.150Z</time>
      </trkpt>
      <trkpt lat="43.66579" lon="1.17787">
        <ele>178.891741</ele>
        <time>2023-01-03T12:31:43.157Z</time>
      </trkpt>
      <trkpt lat="43.66586" lon="1.178">
        <ele>178.690426</ele>
        <time>2023-01-03T12:31:45.165Z</time>
      </trkpt>
      <trkpt lat="43.66594" lon="1.17812">
        <ele>178.558359</ele>
        <time>2023-01-03T12:31:47.165Z</time>
      </trkpt>
      <trkpt lat="43.66601" lon="1.17824">
        <ele>178.432936</ele>
        <time>2023-01-03T12:31:49.155Z</time>
      </trkpt>
      <trkpt lat="43.66608" lon="1.17836">
        <ele>178.311328</ele>
        <time>2023-01-03T12:31:51.163Z</time>
      </trkpt>
      <trkpt lat="43.66615" lon="1.17847">
        <ele>178.191669</ele>
        <time>2023-01-03T12:31:53.164Z</time>
      </trkpt>
      <trkpt lat="43.66622" lon="1.17858">
        <ele>178.076128</ele>
        <time>2023-01-03T12:31:55.169Z</time>
      </trkpt>
      <trkpt lat="43.66629" lon="1.17868">
        <ele>177.961528</ele>
        <time>2023-01-03T12:31:57.165Z</time>
      </trkpt>
      <trkpt lat="43.66637" lon="1.17877">
        <ele>177.846235</ele>
        <time>2023-01-03T12:31:59.165Z</time>
      </trkpt>
      <trkpt lat="43.66644" lon="1.17887">
        <ele>177.735471</ele>
        <time>2023-01-03T12:32:01.151Z</time>
      </trkpt>
      <trkpt lat="43.66652" lon="1.17896">
        <ele>177.625786</ele>
        <time>2023-01-03T12:32:03.147Z</time>
      </trkpt>
      <trkpt lat="43.66658" lon="1.17904">
        <ele>177.523999</ele>
        <time>2023-01-03T12:32:05.165Z</time>
      </trkpt>
      <trkpt lat="43.66668" lon="1.17916">
        <ele>177.381322</ele>
        <time>2023-01-03T12:32:08.151Z</time>
      </trkpt>
      <trkpt lat="43.66677" lon="1.17927">
        <ele>177.247661</ele>
        <time>2023-01-03T12:32:11.145Z</time>
      </trkpt>
      <trkpt lat="43.66682" lon="1.1794">
        <ele>177.1248</ele>
        <time>2023-01-03T12:32:14.164Z</time>
      </trkpt>
      <trkpt lat="43.66689" lon="1.17952">
        <ele>177.002574</ele>
        <time>2023-01-03T12:32:17.166Z</time>
      </trkpt>
      <trkpt lat="43.66694" lon="1.17964">
        <ele>176.895191</ele>
        <time>2023-01-03T12:32:20.164Z</time>
      </trkpt>
      <trkpt lat="43.66693" lon="1.17992">
        <ele>176.669818</ele>
        <time>2023-01-03T12:33:15.158Z</time>
      </trkpt>
      <trkpt lat="43.66696" lon="1.18007">
        <ele>176.543587</ele>
        <time>2023-01-03T12:33:18.155Z</time>
      </trkpt>
      <trkpt lat="43.66699" lon="1.18024">
        <ele>176.398467</ele>
        <time>2023-01-03T12:33:21.173Z</time>
      </trkpt>
      <trkpt lat="43.66701" lon="1.18036">
        <ele>176.297072</ele>
        <time>2023-01-03T12:33:23.161Z</time>
      </trkpt>
      <trkpt lat="43.66705" lon="1.18054">
        <ele>176.14627</ele>
        <time>2023-01-03T12:33:26.157Z</time>
      </trkpt>
      <trkpt lat="43.66707" lon="1.18066">
        <ele>176.043538</ele>
        <time>2023-01-03T12:33:28.175Z</time>
      </trkpt>
      <trkpt lat="43.6671" lon="1.18084">
        <ele>175.891351</ele>
        <time>2023-01-03T12:33:31.176Z</time>
      </trkpt>
      <trkpt lat="43.66712" lon="1.18097">
        <ele>175.781767</ele>
        <time>2023-01-03T12:33:33.156Z</time>
      </trkpt>
      <trkpt lat="43.66715" lon="1.18111">
        <ele>175.669505</ele>
        <time>2023-01-03T12:33:35.156Z</time>
      </trkpt>
      <trkpt lat="43.66716" lon="1.18124">
        <ele>175.558034</ele>
        <time>2023-01-03T12:33:37.162Z</time>
      </trkpt>
      <trkpt lat="43.66719" lon="1.18138">
        <ele>175.438677</ele>
        <time>2023-01-03T12:33:39.159Z</time>
      </trkpt>
      <trkpt lat="43.66721" lon="1.18153">
        <ele>175.316921</ele>
        <time>2023-01-03T12:33:41.171Z</time>
      </trkpt>
      <trkpt lat="43.66724" lon="1.18167">
        <ele>175.197836</ele>
        <time>2023-01-03T12:33:43.166Z</time>
      </trkpt>
      <trkpt lat="43.66726" lon="1.18181">
        <ele>175.08056</ele>
        <time>2023-01-03T12:33:45.180Z</time>
      </trkpt>
      <trkpt lat="43.66729" lon="1.18195">
        <ele>174.962228</ele>
        <time>2023-01-03T12:33:47.155Z</time>
      </trkpt>
      <trkpt lat="43.66731" lon="1.1821">
        <ele>174.83918</ele>
        <time>2023-01-03T12:33:49.156Z</time>
      </trkpt>
      <trkpt lat="43.66734" lon="1.18225">
        <ele>174.713751</ele>
        <time>2023-01-03T12:33:51.174Z</time>
      </trkpt>
      <trkpt lat="43.66736" lon="1.1824">
        <ele>174.633644</ele>
        <time>2023-01-03T12:33:53.157Z</time>
      </trkpt>
      <trkpt lat="43.66739" lon="1.18255">
        <ele>174.568267</ele>
        <time>2023-01-03T12:33:55.173Z</time>
      </trkpt>
      <trkpt lat="43.66741" lon="1.18269">
        <ele>174.502484</ele>
        <time>2023-01-03T12:33:57.158Z</time>
      </trkpt>
      <trkpt lat="43.66744" lon="1.18283">
        <ele>174.439867</ele>
        <time>2023-01-03T12:33:59.158Z</time>
      </trkpt>
      <trkpt lat="43.66747" lon="1.18298">
        <ele>174.373917</ele>
        <time>2023-01-03T12:34:01.172Z</time>
      </trkpt>
      <trkpt lat="43.66749" lon="1.18312">
        <ele>174.310135</ele>
        <time>2023-01-03T12:34:03.154Z</time>
      </trkpt>
      <trkpt lat="43.66752" lon="1.18327">
        <ele>174.244063</ele>
        <time>2023-01-03T12:34:05.152Z</time>
      </trkpt>
      <trkpt lat="43.66754" lon="1.18342">
        <ele>174.177859</ele>
        <time>2023-01-03T12:34:07.175Z</time>
      </trkpt>
      <trkpt lat="43.66757" lon="1.18357">
        <ele>174.112076</ele>
        <time>2023-01-03T12:34:09.175Z</time>
      </trkpt>
      <trkpt lat="43.66759" lon="1.18371">
        <ele>174.048796</ele>
        <time>2023-01-03T12:34:11.158Z</time>
      </trkpt>
      <trkpt lat="43.66762" lon="1.18385">
        <ele>173.985348</ele>
        <time>2023-01-03T12:34:13.167Z</time>
      </trkpt>
      <trkpt lat="43.66765" lon="1.18399">
        <ele>173.921976</ele>
        <time>2023-01-03T12:34:15.171Z</time>
      </trkpt>
      <trkpt lat="43.66767" lon="1.18414">
        <ele>173.857724</ele>
        <time>2023-01-03T12:34:17.171Z</time>
      </trkpt>
      <trkpt lat="43.66769" lon="1.18428">
        <ele>173.794606</ele>
        <time>2023-01-03T12:34:19.178Z</time>
      </trkpt>
      <trkpt lat="43.66771" lon="1.18443">
        <ele>173.728162</ele>
        <time>2023-01-03T12:34:21.163Z</time>
      </trkpt>
      <trkpt lat="43.66774" lon="1.18458">
        <ele>173.663222</ele>
        <time>2023-01-03T12:34:23.163Z</time>
      </trkpt>
      <trkpt lat="43.66777" lon="1.18471">
        <ele>173.602904</ele>
        <time>2023-01-03T12:34:25.160Z</time>
      </trkpt>
      <trkpt lat="43.66779" lon="1.18486">
        <ele>173.539508</ele>
        <time>2023-01-03T12:34:27.175Z</time>
      </trkpt>
      <trkpt lat="43.66781" lon="1.185">
        <ele>173.478147</ele>
        <time>2023-01-03T12:34:29.162Z</time>
      </trkpt>
      <trkpt lat="43.66784" lon="1.18514">
        <ele>173.418805</ele>
        <time>2023-01-03T12:34:31.191Z</time>
      </trkpt>
      <trkpt lat="43.66787" lon="1.18526">
        <ele>173.36374</ele>
        <time>2023-01-03T12:34:33.172Z</time>
      </trkpt>
      <trkpt lat="43.66789" lon="1.18539">
        <ele>173.307327</ele>
        <time>2023-01-03T12:34:35.157Z</time>
      </trkpt>
      <trkpt lat="43.66791" lon="1.18553">
        <ele>173.246308</ele>
        <time>2023-01-03T12:34:37.167Z</time>
      </trkpt>
      <trkpt lat="43.66794" lon="1.18567">
        <ele>173.184967</ele>
        <time>2023-01-03T12:34:39.154Z</time>
      </trkpt>
      <trkpt lat="43.66797" lon="1.18581">
        <ele>173.122865</ele>
        <time>2023-01-03T12:34:41.170Z</time>
      </trkpt>
      <trkpt lat="43.66799" lon="1.18595">
        <ele>173.064805</ele>
        <time>2023-01-03T12:34:43.174Z</time>
      </trkpt>
      <trkpt lat="43.66801" lon="1.18608">
        <ele>173.005775</ele>
        <time>2023-01-03T12:34:45.175Z</time>
      </trkpt>
      <trkpt lat="43.66803" lon="1.18622">
        <ele>172.948187</ele>
        <time>2023-01-03T12:34:47.174Z</time>
      </trkpt>
      <trkpt lat="43.66805" lon="1.18636">
        <ele>172.888349</ele>
        <time>2023-01-03T12:34:49.171Z</time>
      </trkpt>
      <trkpt lat="43.66808" lon="1.18649">
        <ele>172.829877</ele>
        <time>2023-01-03T12:34:51.172Z</time>
      </trkpt>
      <trkpt lat="43.6681" lon="1.18662">
        <ele>172.772479</ele>
        <time>2023-01-03T12:34:53.180Z</time>
      </trkpt>
      <trkpt lat="43.66813" lon="1.18676">
        <ele>172.712229</ele>
        <time>2023-01-03T12:34:55.162Z</time>
      </trkpt>
      <trkpt lat="43.66815" lon="1.1869">
        <ele>172.650477</ele>
        <time>2023-01-03T12:34:57.175Z</time>
      </trkpt>
      <trkpt lat="43.66818" lon="1.18705">
        <ele>172.586655</ele>
        <time>2023-01-03T12:34:59.168Z</time>
      </trkpt>
      <trkpt lat="43.6682" lon="1.18718">
        <ele>172.54421</ele>
        <time>2023-01-03T12:35:01.179Z</time>
      </trkpt>
      <trkpt lat="43.66823" lon="1.18733">
        <ele>172.515928</ele>
        <time>2023-01-03T12:35:03.175Z</time>
      </trkpt>
      <trkpt lat="43.66825" lon="1.18746">
        <ele>172.488278</ele>
        <time>2023-01-03T12:35:05.157Z</time>
      </trkpt>
      <trkpt lat="43.66828" lon="1.1876">
        <ele>172.46012</ele>
        <time>2023-01-03T12:35:07.174Z</time>
      </trkpt>
      <trkpt lat="43.6683" lon="1.18775">
        <ele>172.431694</ele>
        <time>2023-01-03T12:35:09.181Z</time>
      </trkpt>
      <trkpt lat="43.66832" lon="1.18789">
        <ele>172.403476</ele>
        <time>2023-01-03T12:35:11.177Z</time>
      </trkpt>
      <trkpt lat="43.66834" lon="1.18802">
        <ele>172.376194</ele>
        <time>2023-01-03T12:35:13.179Z</time>
      </trkpt>
      <trkpt lat="43.66837" lon="1.18816">
        <ele>172.348344</ele>
        <time>2023-01-03T12:35:15.161Z</time>
      </trkpt>
      <trkpt lat="43.6684" lon="1.18831">
        <ele>172.31962</ele>
        <time>2023-01-03T12:35:17.156Z</time>
      </trkpt>
      <trkpt lat="43.66842" lon="1.18844">
        <ele>172.292592</ele>
        <time>2023-01-03T12:35:19.157Z</time>
      </trkpt>
      <trkpt lat="43.66844" lon="1.18858">
        <ele>172.265311</ele>
        <time>2023-01-03T12:35:21.165Z</time>
      </trkpt>
      <trkpt lat="43.66846" lon="1.18871">
        <ele>172.237839</ele>
        <time>2023-01-03T12:35:23.166Z</time>
      </trkpt>
      <trkpt lat="43.66848" lon="1.18884">
        <ele>172.212328</ele>
        <time>2023-01-03T12:35:25.180Z</time>
      </trkpt>
      <trkpt lat="43.66851" lon="1.18897">
        <ele>172.187456</ele>
        <time>2023-01-03T12:35:27.174Z</time>
      </trkpt>
      <trkpt lat="43.66853" lon="1.18915">
        <ele>172.15115</ele>
        <time>2023-01-03T12:35:30.173Z</time>
      </trkpt>
      <trkpt lat="43.66857" lon="1.18933">
        <ele>172.115105</ele>
        <time>2023-01-03T12:35:33.163Z</time>
      </trkpt>
      <trkpt lat="43.66861" lon="1.1895">
        <ele>172.080251</ele>
        <time>2023-01-03T12:35:36.178Z</time>
      </trkpt>
      <trkpt lat="43.66864" lon="1.18966">
        <ele>172.143216</ele>
        <time>2023-01-03T12:35:39.149Z</time>
      </trkpt>
      <trkpt lat="43.66866" lon="1.18982">
        <ele>172.222012</ele>
        <time>2023-01-03T12:35:42.156Z</time>
      </trkpt>
      <trkpt lat="43.66868" lon="1.18996">
        <ele>172.293592</ele>
        <time>2023-01-03T12:35:45.149Z</time>
      </trkpt>
      <trkpt lat="43.66866" lon="1.19011">
        <ele>172.370765</ele>
        <time>2023-01-03T12:35:49.151Z</time>
      </trkpt>
      <trkpt lat="43.66866" lon="1.19033">
        <ele>172.484251</ele>
        <time>2023-01-03T12:36:48.147Z</time>
      </trkpt>
      <trkpt lat="43.66865" lon="1.19048">
        <ele>172.560206</ele>
        <time>2023-01-03T12:36:52.163Z</time>
      </trkpt>
      <trkpt lat="43.66859" lon="1.19061">
        <ele>172.636581</ele>
        <time>2023-01-03T12:36:55.151Z</time>
      </trkpt>
      <trkpt lat="43.66853" lon="1.19073">
        <ele>172.710123</ele>
        <time>2023-01-03T12:36:58.154Z</time>
      </trkpt>
      <trkpt lat="43.66848" lon="1.19085">
        <ele>172.780864</ele>
        <time>2023-01-03T12:37:01.155Z</time>
      </trkpt>
      <trkpt lat="43.66841" lon="1.19097">
        <ele>172.858085</ele>
        <time>2023-01-03T12:37:04.156Z</time>
      </trkpt>
      <trkpt lat="43.66832" lon="1.19107">
        <ele>172.941384</ele>
        <time>2023-01-03T12:37:07.153Z</time>
      </trkpt>
      <trkpt lat="43.66821" lon="1.19117">
        <ele>173.029488</ele>
        <time>2023-01-03T12:37:10.153Z</time>
      </trkpt>
      <trkpt lat="43.66811" lon="1.19126">
        <ele>173.117241</ele>
        <time>2023-01-03T12:37:13.155Z</time>
      </trkpt>
      <trkpt lat="43.66801" lon="1.19135">
        <ele>173.196123</ele>
        <time>2023-01-03T12:37:16.157Z</time>
      </trkpt>
      <trkpt lat="43.66793" lon="1.19143">
        <ele>173.264737</ele>
        <time>2023-01-03T12:37:19.159Z</time>
      </trkpt>
      <trkpt lat="43.66784" lon="1.1915">
        <ele>173.350669</ele>
        <time>2023-01-03T12:37:22.165Z</time>
      </trkpt>
      <trkpt lat="43.66773" lon="1.19158">
        <ele>173.591199</ele>
        <time>2023-01-03T12:37:25.160Z</time>
      </trkpt>
      <trkpt lat="43.66766" lon="1.19165">
        <ele>173.770987</ele>
        <time>2023-01-03T12:37:27.165Z</time>
      </trkpt>
      <trkpt lat="43.66755" lon="1.19176">
        <ele>174.01538</ele>
        <time>2023-01-03T12:37:30.147Z</time>
      </trkpt>
      <trkpt lat="43.66745" lon="1.19186">
        <ele>174.250905</ele>
        <time>2023-01-03T12:37:33.156Z</time>
      </trkpt>
      <trkpt lat="43.66736" lon="1.19197">
        <ele>174.49125</ele>
        <time>2023-01-03T12:37:36.155Z</time>
      </trkpt>
      <trkpt lat="43.66727" lon="1.19208">
        <ele>174.715356</ele>
        <time>2023-01-03T12:37:39.155Z</time>
      </trkpt>
      <trkpt lat="43.66718" lon="1.19217">
        <ele>174.923985</ele>
        <time>2023-01-03T12:37:42.162Z</time>
      </trkpt>
      <trkpt lat="43.66711" lon="1.1923">
        <ele>175.151559</ele>
        <time>2023-01-03T12:37:45.152Z</time>
      </trkpt>
      <trkpt lat="43.66703" lon="1.19243">
        <ele>175.375956</ele>
        <time>2023-01-03T12:37:48.159Z</time>
      </trkpt>
      <trkpt lat="43.66695" lon="1.19255">
        <ele>175.6018</ele>
        <time>2023-01-03T12:37:51.155Z</time>
      </trkpt>
      <trkpt lat="43.66687" lon="1.19267">
        <ele>175.837989</ele>
        <time>2023-01-03T12:37:54.158Z</time>
      </trkpt>
      <trkpt lat="43.66679" lon="1.19279">
        <ele>176.060287</ele>
        <time>2023-01-03T12:37:57.158Z</time>
      </trkpt>
      <trkpt lat="43.66672" lon="1.1929">
        <ele>176.257977</ele>
        <time>2023-01-03T12:38:00.157Z</time>
      </trkpt>
      <trkpt lat="43.66665" lon="1.193">
        <ele>176.453107</ele>
        <time>2023-01-03T12:38:03.156Z</time>
      </trkpt>
      <trkpt lat="43.66659" lon="1.1931">
        <ele>176.632347</ele>
        <time>2023-01-03T12:38:06.163Z</time>
      </trkpt>
      <trkpt lat="43.66652" lon="1.1932">
        <ele>176.775668</ele>
        <time>2023-01-03T12:38:09.158Z</time>
      </trkpt>
      <trkpt lat="43.66645" lon="1.19327">
        <ele>176.824985</ele>
        <time>2023-01-03T12:38:12.159Z</time>
      </trkpt>
      <trkpt lat="43.66637" lon="1.19335">
        <ele>176.877439</ele>
        <time>2023-01-03T12:38:15.163Z</time>
      </trkpt>
      <trkpt lat="43.6663" lon="1.19343">
        <ele>176.927224</ele>
        <time>2023-01-03T12:38:18.161Z</time>
      </trkpt>
      <trkpt lat="43.66622" lon="1.19351">
        <ele>176.977764</ele>
        <time>2023-01-03T12:38:22.149Z</time>
      </trkpt>
      <trkpt lat="43.66614" lon="1.19362">
        <ele>177.036701</ele>
        <time>2023-01-03T12:38:27.160Z</time>
      </trkpt>
      <trkpt lat="43.66612" lon="1.19375">
        <ele>177.089067</ele>
        <time>2023-01-03T12:38:31.152Z</time>
      </trkpt>
      <trkpt lat="43.66618" lon="1.19388">
        <ele>177.147123</ele>
        <time>2023-01-03T12:38:35.177Z</time>
      </trkpt>
      <trkpt lat="43.66626" lon="1.194">
        <ele>177.209831</ele>
        <time>2023-01-03T12:38:39.155Z</time>
      </trkpt>
      <trkpt lat="43.66634" lon="1.19411">
        <ele>177.26921</ele>
        <time>2023-01-03T12:38:42.159Z</time>
      </trkpt>
      <trkpt lat="43.66643" lon="1.19423">
        <ele>177.335844</ele>
        <time>2023-01-03T12:38:45.160Z</time>
      </trkpt>
      <trkpt lat="43.66652" lon="1.19436">
        <ele>177.408921</ele>
        <time>2023-01-03T12:38:48.155Z</time>
      </trkpt>
      <trkpt lat="43.66659" lon="1.19445">
        <ele>177.459356</ele>
        <time>2023-01-03T12:38:50.170Z</time>
      </trkpt>
      <trkpt lat="43.66666" lon="1.19454">
        <ele>177.510827</ele>
        <time>2023-01-03T12:38:52.173Z</time>
      </trkpt>
      <trkpt lat="43.66673" lon="1.19463">
        <ele>177.559159</ele>
        <time>2023-01-03T12:38:54.153Z</time>
      </trkpt>
      <trkpt lat="43.66681" lon="1.19472">
        <ele>177.611743</ele>
        <time>2023-01-03T12:38:56.165Z</time>
      </trkpt>
      <trkpt lat="43.66688" lon="1.1948">
        <ele>177.664738</ele>
        <time>2023-01-03T12:38:58.149Z</time>
      </trkpt>
      <trkpt lat="43.66696" lon="1.1949">
        <ele>177.718881</ele>
        <time>2023-01-03T12:39:00.160Z</time>
      </trkpt>
      <trkpt lat="43.66704" lon="1.19499">
        <ele>177.611267</ele>
        <time>2023-01-03T12:39:02.149Z</time>
      </trkpt>
      <trkpt lat="43.66713" lon="1.19507">
        <ele>177.497888</ele>
        <time>2023-01-03T12:39:04.164Z</time>
      </trkpt>
      <trkpt lat="43.66721" lon="1.19516">
        <ele>177.387432</ele>
        <time>2023-01-03T12:39:06.178Z</time>
      </trkpt>
      <trkpt lat="43.66729" lon="1.19524">
        <ele>177.275288</ele>
        <time>2023-01-03T12:39:08.158Z</time>
      </trkpt>
      <trkpt lat="43.66738" lon="1.19534">
        <ele>177.159582</ele>
        <time>2023-01-03T12:39:10.159Z</time>
      </trkpt>
      <trkpt lat="43.66746" lon="1.19544">
        <ele>177.04221</ele>
        <time>2023-01-03T12:39:12.170Z</time>
      </trkpt>
      <trkpt lat="43.66753" lon="1.19554">
        <ele>176.934157</ele>
        <time>2023-01-03T12:39:14.174Z</time>
      </trkpt>
      <trkpt lat="43.6676" lon="1.19564">
        <ele>176.823116</ele>
        <time>2023-01-03T12:39:16.160Z</time>
      </trkpt>
      <trkpt lat="43.66767" lon="1.19574">
        <ele>176.719572</ele>
        <time>2023-01-03T12:39:18.174Z</time>
      </trkpt>
      <trkpt lat="43.66774" lon="1.19583">
        <ele>176.619652</ele>
        <time>2023-01-03T12:39:20.159Z</time>
      </trkpt>
      <trkpt lat="43.66782" lon="1.19596">
        <ele>176.48334</ele>
        <time>2023-01-03T12:39:23.171Z</time>
      </trkpt>
      <trkpt lat="43.66789" lon="1.19605">
        <ele>176.385004</ele>
        <time>2023-01-03T12:39:25.154Z</time>
      </trkpt>
      <trkpt lat="43.66796" lon="1.19614">
        <ele>176.284065</ele>
        <time>2023-01-03T12:39:27.161Z</time>
      </trkpt>
      <trkpt lat="43.66805" lon="1.19627">
        <ele>176.140201</ele>
        <time>2023-01-03T12:39:30.154Z</time>
      </trkpt>
      <trkpt lat="43.66814" lon="1.19639">
        <ele>176.007919</ele>
        <time>2023-01-03T12:39:33.163Z</time>
      </trkpt>
      <trkpt lat="43.66822" lon="1.19651">
        <ele>175.883033</ele>
        <time>2023-01-03T12:39:36.163Z</time>
      </trkpt>
      <trkpt lat="43.6683" lon="1.19663">
        <ele>175.788674</ele>
        <time>2023-01-03T12:39:39.155Z</time>
      </trkpt>
      <trkpt lat="43.66838" lon="1.19674">
        <ele>175.743936</ele>
        <time>2023-01-03T12:39:42.158Z</time>
      </trkpt>
      <trkpt lat="43.66847" lon="1.19686">
        <ele>175.692973</ele>
        <time>2023-01-03T12:39:45.167Z</time>
      </trkpt>
      <trkpt lat="43.66857" lon="1.19698">
        <ele>175.640795</ele>
        <time>2023-01-03T12:39:48.153Z</time>
      </trkpt>
      <trkpt lat="43.66864" lon="1.19707">
        <ele>175.603232</ele>
        <time>2023-01-03T12:39:50.159Z</time>
      </trkpt>
      <trkpt lat="43.66872" lon="1.19716">
        <ele>175.564409</ele>
        <time>2023-01-03T12:39:52.165Z</time>
      </trkpt>
      <trkpt lat="43.66879" lon="1.19726">
        <ele>175.52295</ele>
        <time>2023-01-03T12:39:54.153Z</time>
      </trkpt>
      <trkpt lat="43.66886" lon="1.19736">
        <ele>175.483223</ele>
        <time>2023-01-03T12:39:56.158Z</time>
      </trkpt>
      <trkpt lat="43.66893" lon="1.19747">
        <ele>175.441094</ele>
        <time>2023-01-03T12:39:58.172Z</time>
      </trkpt>
      <trkpt lat="43.66901" lon="1.19758">
        <ele>175.399505</ele>
        <time>2023-01-03T12:40:00.158Z</time>
      </trkpt>
      <trkpt lat="43.66907" lon="1.19769">
        <ele>175.358377</ele>
        <time>2023-01-03T12:40:02.173Z</time>
      </trkpt>
      <trkpt lat="43.66914" lon="1.1978">
        <ele>175.316714</ele>
        <time>2023-01-03T12:40:04.156Z</time>
      </trkpt>
      <trkpt lat="43.66921" lon="1.19791">
        <ele>175.274965</ele>
        <time>2023-01-03T12:40:06.155Z</time>
      </trkpt>
      <trkpt lat="43.66927" lon="1.19802">
        <ele>175.235002</ele>
        <time>2023-01-03T12:40:08.166Z</time>
      </trkpt>
      <trkpt lat="43.66934" lon="1.19812">
        <ele>175.193976</ele>
        <time>2023-01-03T12:40:10.182Z</time>
      </trkpt>
      <trkpt lat="43.66942" lon="1.19822">
        <ele>175.1528</ele>
        <time>2023-01-03T12:40:12.153Z</time>
      </trkpt>
      <trkpt lat="43.66949" lon="1.19833">
        <ele>175.11222</ele>
        <time>2023-01-03T12:40:14.169Z</time>
      </trkpt>
      <trkpt lat="43.66956" lon="1.19843">
        <ele>175.07493</ele>
        <time>2023-01-03T12:40:16.174Z</time>
      </trkpt>
      <trkpt lat="43.66963" lon="1.19854">
        <ele>175.045768</ele>
        <time>2023-01-03T12:40:18.174Z</time>
      </trkpt>
      <trkpt lat="43.66971" lon="1.19864">
        <ele>175.015549</ele>
        <time>2023-01-03T12:40:20.174Z</time>
      </trkpt>
      <trkpt lat="43.66978" lon="1.19874">
        <ele>174.984517</ele>
        <time>2023-01-03T12:40:22.176Z</time>
      </trkpt>
      <trkpt lat="43.66986" lon="1.19885">
        <ele>174.953241</ele>
        <time>2023-01-03T12:40:24.179Z</time>
      </trkpt>
      <trkpt lat="43.66993" lon="1.19896">
        <ele>174.922836</ele>
        <time>2023-01-03T12:40:26.169Z</time>
      </trkpt>
      <trkpt lat="43.67" lon="1.19907">
        <ele>174.891762</ele>
        <time>2023-01-03T12:40:28.174Z</time>
      </trkpt>
      <trkpt lat="43.67008" lon="1.19917">
        <ele>174.860432</ele>
        <time>2023-01-03T12:40:30.174Z</time>
      </trkpt>
      <trkpt lat="43.67015" lon="1.19928">
        <ele>174.829193</ele>
        <time>2023-01-03T12:40:32.171Z</time>
      </trkpt>
      <trkpt lat="43.67022" lon="1.19938">
        <ele>174.799486</ele>
        <time>2023-01-03T12:40:34.170Z</time>
      </trkpt>
      <trkpt lat="43.67029" lon="1.19948">
        <ele>174.770603</ele>
        <time>2023-01-03T12:40:36.174Z</time>
      </trkpt>
      <trkpt lat="43.67036" lon="1.19958">
        <ele>174.741486</ele>
        <time>2023-01-03T12:40:38.157Z</time>
      </trkpt>
      <trkpt lat="43.67043" lon="1.19968">
        <ele>174.712058</ele>
        <time>2023-01-03T12:40:40.171Z</time>
      </trkpt>
      <trkpt lat="43.67051" lon="1.19979">
        <ele>174.680611</ele>
        <time>2023-01-03T12:40:42.153Z</time>
      </trkpt>
      <trkpt lat="43.67058" lon="1.1999">
        <ele>174.649935</ele>
        <time>2023-01-03T12:40:44.169Z</time>
      </trkpt>
      <trkpt lat="43.67065" lon="1.19999">
        <ele>174.619704</ele>
        <time>2023-01-03T12:40:46.171Z</time>
      </trkpt>
      <trkpt lat="43.67072" lon="1.20009">
        <ele>174.590977</ele>
        <time>2023-01-03T12:40:48.169Z</time>
      </trkpt>
      <trkpt lat="43.67079" lon="1.20019">
        <ele>174.570164</ele>
        <time>2023-01-03T12:40:50.165Z</time>
      </trkpt>
      <trkpt lat="43.67086" lon="1.20029">
        <ele>174.565897</ele>
        <time>2023-01-03T12:40:52.157Z</time>
      </trkpt>
      <trkpt lat="43.67093" lon="1.2004">
        <ele>174.561494</ele>
        <time>2023-01-03T12:40:54.157Z</time>
      </trkpt>
      <trkpt lat="43.67101" lon="1.20049">
        <ele>174.557298</ele>
        <time>2023-01-03T12:40:56.186Z</time>
      </trkpt>
      <trkpt lat="43.67108" lon="1.2006">
        <ele>174.552945</ele>
        <time>2023-01-03T12:40:58.171Z</time>
      </trkpt>
      <trkpt lat="43.67115" lon="1.2007">
        <ele>174.548577</ele>
        <time>2023-01-03T12:41:00.156Z</time>
      </trkpt>
      <trkpt lat="43.67123" lon="1.20081">
        <ele>174.544181</ele>
        <time>2023-01-03T12:41:02.160Z</time>
      </trkpt>
      <trkpt lat="43.67129" lon="1.20091">
        <ele>174.539925</ele>
        <time>2023-01-03T12:41:04.155Z</time>
      </trkpt>
      <trkpt lat="43.67137" lon="1.20101">
        <ele>174.535568</ele>
        <time>2023-01-03T12:41:06.163Z</time>
      </trkpt>
      <trkpt lat="43.67144" lon="1.20112">
        <ele>174.531186</ele>
        <time>2023-01-03T12:41:08.157Z</time>
      </trkpt>
      <trkpt lat="43.67152" lon="1.20122">
        <ele>174.526819</ele>
        <time>2023-01-03T12:41:10.174Z</time>
      </trkpt>
      <trkpt lat="43.67159" lon="1.20133">
        <ele>174.522319</ele>
        <time>2023-01-03T12:41:12.163Z</time>
      </trkpt>
      <trkpt lat="43.67167" lon="1.20143">
        <ele>174.517881</ele>
        <time>2023-01-03T12:41:14.168Z</time>
      </trkpt>
      <trkpt lat="43.67174" lon="1.20153">
        <ele>174.513586</ele>
        <time>2023-01-03T12:41:16.177Z</time>
      </trkpt>
      <trkpt lat="43.67181" lon="1.20163">
        <ele>174.509449</ele>
        <time>2023-01-03T12:41:18.158Z</time>
      </trkpt>
      <trkpt lat="43.67188" lon="1.20172">
        <ele>174.505418</ele>
        <time>2023-01-03T12:41:20.165Z</time>
      </trkpt>
      <trkpt lat="43.67195" lon="1.20181">
        <ele>174.501577</ele>
        <time>2023-01-03T12:41:22.174Z</time>
      </trkpt>
      <trkpt lat="43.67204" lon="1.20193">
        <ele>174.498632</ele>
        <time>2023-01-03T12:41:25.164Z</time>
      </trkpt>
      <trkpt lat="43.67213" lon="1.20205">
        <ele>174.536477</ele>
        <time>2023-01-03T12:41:28.172Z</time>
      </trkpt>
      <trkpt lat="43.67218" lon="1.20217">
        <ele>174.567986</ele>
        <time>2023-01-03T12:41:31.158Z</time>
      </trkpt>
      <trkpt lat="43.67225" lon="1.20228">
        <ele>174.600844</ele>
        <time>2023-01-03T12:41:35.163Z</time>
      </trkpt>
      <trkpt lat="43.67233" lon="1.20241">
        <ele>174.638723</ele>
        <time>2023-01-03T12:41:39.163Z</time>
      </trkpt>
      <trkpt lat="43.67241" lon="1.20253">
        <ele>174.677227</ele>
        <time>2023-01-03T12:41:42.159Z</time>
      </trkpt>
      <trkpt lat="43.6725" lon="1.20266">
        <ele>174.717663</ele>
        <time>2023-01-03T12:41:45.158Z</time>
      </trkpt>
      <trkpt lat="43.67259" lon="1.20279">
        <ele>174.757835</ele>
        <time>2023-01-03T12:41:48.151Z</time>
      </trkpt>
      <trkpt lat="43.67268" lon="1.20292">
        <ele>174.797632</ele>
        <time>2023-01-03T12:41:51.158Z</time>
      </trkpt>
      <trkpt lat="43.67276" lon="1.20305">
        <ele>174.837367</ele>
        <time>2023-01-03T12:41:54.150Z</time>
      </trkpt>
      <trkpt lat="43.67285" lon="1.20318">
        <ele>174.876998</ele>
        <time>2023-01-03T12:41:57.160Z</time>
      </trkpt>
      <trkpt lat="43.67294" lon="1.2033">
        <ele>174.916194</ele>
        <time>2023-01-03T12:42:00.153Z</time>
      </trkpt>
      <trkpt lat="43.67303" lon="1.20342">
        <ele>174.955107</ele>
        <time>2023-01-03T12:42:03.160Z</time>
      </trkpt>
      <trkpt lat="43.67313" lon="1.20354">
        <ele>174.994169</ele>
        <time>2023-01-03T12:42:06.149Z</time>
      </trkpt>
      <trkpt lat="43.67323" lon="1.20364">
        <ele>175.033207</ele>
        <time>2023-01-03T12:42:09.156Z</time>
      </trkpt>
      <trkpt lat="43.67332" lon="1.20375">
        <ele>175.039648</ele>
        <time>2023-01-03T12:42:12.153Z</time>
      </trkpt>
      <trkpt lat="43.67343" lon="1.20386">
        <ele>175.002604</ele>
        <time>2023-01-03T12:42:15.154Z</time>
      </trkpt>
      <trkpt lat="43.67353" lon="1.20396">
        <ele>174.964622</ele>
        <time>2023-01-03T12:42:18.154Z</time>
      </trkpt>
      <trkpt lat="43.67364" lon="1.20407">
        <ele>174.925442</ele>
        <time>2023-01-03T12:42:21.159Z</time>
      </trkpt>
      <trkpt lat="43.67372" lon="1.20414">
        <ele>174.898604</ele>
        <time>2023-01-03T12:42:23.159Z</time>
      </trkpt>
      <trkpt lat="43.6738" lon="1.20421">
        <ele>174.871647</ele>
        <time>2023-01-03T12:42:25.164Z</time>
      </trkpt>
      <trkpt lat="43.67387" lon="1.20429">
        <ele>174.843731</ele>
        <time>2023-01-03T12:42:27.157Z</time>
      </trkpt>
      <trkpt lat="43.67399" lon="1.2044">
        <ele>174.803833</ele>
        <time>2023-01-03T12:42:30.166Z</time>
      </trkpt>
      <trkpt lat="43.6741" lon="1.2045">
        <ele>174.765013</ele>
        <time>2023-01-03T12:42:33.160Z</time>
      </trkpt>
      <trkpt lat="43.6742" lon="1.20459">
        <ele>174.730707</ele>
        <time>2023-01-03T12:42:36.157Z</time>
      </trkpt>
      <trkpt lat="43.67429" lon="1.20468">
        <ele>174.697755</ele>
        <time>2023-01-03T12:42:39.154Z</time>
      </trkpt>
      <trkpt lat="43.67438" lon="1.20477">
        <ele>174.663961</ele>
        <time>2023-01-03T12:42:42.158Z</time>
      </trkpt>
      <trkpt lat="43.67448" lon="1.20487">
        <ele>174.628714</ele>
        <time>2023-01-03T12:42:45.167Z</time>
      </trkpt>
      <trkpt lat="43.67458" lon="1.20497">
        <ele>174.592646</ele>
        <time>2023-01-03T12:42:48.174Z</time>
      </trkpt>
      <trkpt lat="43.67469" lon="1.20506">
        <ele>174.55586</ele>
        <time>2023-01-03T12:42:51.154Z</time>
      </trkpt>
      <trkpt lat="43.67479" lon="1.20516">
        <ele>174.549668</ele>
        <time>2023-01-03T12:42:54.179Z</time>
      </trkpt>
      <trkpt lat="43.67489" lon="1.20525">
        <ele>174.600711</ele>
        <time>2023-01-03T12:42:57.159Z</time>
      </trkpt>
      <trkpt lat="43.67498" lon="1.20534">
        <ele>174.649616</ele>
        <time>2023-01-03T12:43:00.155Z</time>
      </trkpt>
      <trkpt lat="43.67508" lon="1.20543">
        <ele>174.701178</ele>
        <time>2023-01-03T12:43:03.167Z</time>
      </trkpt>
      <trkpt lat="43.67519" lon="1.20553">
        <ele>174.756286</ele>
        <time>2023-01-03T12:43:06.154Z</time>
      </trkpt>
      <trkpt lat="43.67529" lon="1.20564">
        <ele>174.812851</ele>
        <time>2023-01-03T12:43:09.161Z</time>
      </trkpt>
      <trkpt lat="43.67541" lon="1.20574">
        <ele>174.870799</ele>
        <time>2023-01-03T12:43:12.153Z</time>
      </trkpt>
      <trkpt lat="43.67548" lon="1.20582">
        <ele>174.910671</ele>
        <time>2023-01-03T12:43:14.161Z</time>
      </trkpt>
      <trkpt lat="43.67555" lon="1.20589">
        <ele>174.949695</ele>
        <time>2023-01-03T12:43:16.172Z</time>
      </trkpt>
      <trkpt lat="43.67563" lon="1.20596">
        <ele>174.988856</ele>
        <time>2023-01-03T12:43:18.157Z</time>
      </trkpt>
      <trkpt lat="43.67573" lon="1.20607">
        <ele>175.045397</ele>
        <time>2023-01-03T12:43:21.176Z</time>
      </trkpt>
      <trkpt lat="43.67581" lon="1.20615">
        <ele>175.08509</ele>
        <time>2023-01-03T12:43:23.156Z</time>
      </trkpt>
      <trkpt lat="43.67588" lon="1.20621">
        <ele>175.123899</ele>
        <time>2023-01-03T12:43:25.178Z</time>
      </trkpt>
      <trkpt lat="43.67596" lon="1.20629">
        <ele>175.16308</ele>
        <time>2023-01-03T12:43:27.163Z</time>
      </trkpt>
      <trkpt lat="43.67604" lon="1.20637">
        <ele>175.204541</ele>
        <time>2023-01-03T12:43:29.170Z</time>
      </trkpt>
      <trkpt lat="43.67612" lon="1.20644">
        <ele>175.245132</ele>
        <time>2023-01-03T12:43:31.172Z</time>
      </trkpt>
      <trkpt lat="43.67619" lon="1.20651">
        <ele>175.284998</ele>
        <time>2023-01-03T12:43:33.154Z</time>
      </trkpt>
      <trkpt lat="43.67627" lon="1.20659">
        <ele>175.31925</ele>
        <time>2023-01-03T12:43:35.177Z</time>
      </trkpt>
      <trkpt lat="43.67634" lon="1.20666">
        <ele>175.34673</ele>
        <time>2023-01-03T12:43:37.153Z</time>
      </trkpt>
      <trkpt lat="43.67641" lon="1.20674">
        <ele>175.373485</ele>
        <time>2023-01-03T12:43:39.171Z</time>
      </trkpt>
      <trkpt lat="43.67649" lon="1.20681">
        <ele>175.401675</ele>
        <time>2023-01-03T12:43:41.156Z</time>
      </trkpt>
      <trkpt lat="43.6766" lon="1.20691">
        <ele>175.440031</ele>
        <time>2023-01-03T12:43:44.178Z</time>
      </trkpt>
      <trkpt lat="43.6767" lon="1.20701">
        <ele>175.474273</ele>
        <time>2023-01-03T12:43:47.173Z</time>
      </trkpt>
      <trkpt lat="43.67679" lon="1.2071">
        <ele>175.509482</ele>
        <time>2023-01-03T12:43:50.155Z</time>
      </trkpt>
      <trkpt lat="43.6769" lon="1.2072">
        <ele>175.545658</ele>
        <time>2023-01-03T12:43:53.157Z</time>
      </trkpt>
      <trkpt lat="43.677" lon="1.2073">
        <ele>175.583414</ele>
        <time>2023-01-03T12:43:56.168Z</time>
      </trkpt>
      <trkpt lat="43.67711" lon="1.2074">
        <ele>175.621047</ele>
        <time>2023-01-03T12:43:59.149Z</time>
      </trkpt>
      <trkpt lat="43.67721" lon="1.2075">
        <ele>175.65916</ele>
        <time>2023-01-03T12:44:02.159Z</time>
      </trkpt>
      <trkpt lat="43.67732" lon="1.2076">
        <ele>175.697641</ele>
        <time>2023-01-03T12:44:05.157Z</time>
      </trkpt>
      <trkpt lat="43.67743" lon="1.2077">
        <ele>175.735754</ele>
        <time>2023-01-03T12:44:08.161Z</time>
      </trkpt>
      <trkpt lat="43.67753" lon="1.2078">
        <ele>175.772537</ele>
        <time>2023-01-03T12:44:11.158Z</time>
      </trkpt>
      <trkpt lat="43.67763" lon="1.2079">
        <ele>175.808479</ele>
        <time>2023-01-03T12:44:14.166Z</time>
      </trkpt>
      <trkpt lat="43.67774" lon="1.208">
        <ele>175.82558</ele>
        <time>2023-01-03T12:44:17.155Z</time>
      </trkpt>
      <trkpt lat="43.67785" lon="1.20811">
        <ele>175.790083</ele>
        <time>2023-01-03T12:44:20.155Z</time>
      </trkpt>
      <trkpt lat="43.67792" lon="1.20817">
        <ele>175.765901</ele>
        <time>2023-01-03T12:44:22.157Z</time>
      </trkpt>
      <trkpt lat="43.678" lon="1.20824">
        <ele>175.741837</ele>
        <time>2023-01-03T12:44:24.165Z</time>
      </trkpt>
      <trkpt lat="43.67811" lon="1.20834">
        <ele>175.70721</ele>
        <time>2023-01-03T12:44:27.155Z</time>
      </trkpt>
      <trkpt lat="43.6782" lon="1.20843">
        <ele>175.675897</ele>
        <time>2023-01-03T12:44:30.154Z</time>
      </trkpt>
      <trkpt lat="43.67829" lon="1.20852">
        <ele>175.646442</ele>
        <time>2023-01-03T12:44:33.162Z</time>
      </trkpt>
      <trkpt lat="43.67839" lon="1.20862">
        <ele>175.614236</ele>
        <time>2023-01-03T12:44:36.155Z</time>
      </trkpt>
      <trkpt lat="43.6785" lon="1.20872">
        <ele>175.57874</ele>
        <time>2023-01-03T12:44:39.163Z</time>
      </trkpt>
      <trkpt lat="43.67857" lon="1.20879">
        <ele>175.554679</ele>
        <time>2023-01-03T12:44:41.170Z</time>
      </trkpt>
      <trkpt lat="43.67866" lon="1.20887">
        <ele>175.5282</ele>
        <time>2023-01-03T12:44:43.152Z</time>
      </trkpt>
      <trkpt lat="43.67874" lon="1.20895">
        <ele>175.501366</ele>
        <time>2023-01-03T12:44:45.172Z</time>
      </trkpt>
      <trkpt lat="43.67882" lon="1.20904">
        <ele>175.474879</ele>
        <time>2023-01-03T12:44:47.152Z</time>
      </trkpt>
      <trkpt lat="43.6789" lon="1.20911">
        <ele>175.447509</ele>
        <time>2023-01-03T12:44:49.154Z</time>
      </trkpt>
      <trkpt lat="43.67898" lon="1.20919">
        <ele>175.421575</ele>
        <time>2023-01-03T12:44:51.188Z</time>
      </trkpt>
      <trkpt lat="43.67906" lon="1.20926">
        <ele>175.396415</ele>
        <time>2023-01-03T12:44:53.170Z</time>
      </trkpt>
      <trkpt lat="43.67916" lon="1.20937">
        <ele>175.36233</ele>
        <time>2023-01-03T12:44:56.176Z</time>
      </trkpt>
      <trkpt lat="43.67925" lon="1.20946">
        <ele>175.337286</ele>
        <time>2023-01-03T12:44:59.175Z</time>
      </trkpt>
      <trkpt lat="43.67936" lon="1.20955">
        <ele>175.309512</ele>
        <time>2023-01-03T12:45:02.163Z</time>
      </trkpt>
      <trkpt lat="43.67943" lon="1.20962">
        <ele>175.288931</ele>
        <time>2023-01-03T12:45:04.152Z</time>
      </trkpt>
      <trkpt lat="43.67951" lon="1.20969">
        <ele>175.268315</ele>
        <time>2023-01-03T12:45:06.169Z</time>
      </trkpt>
      <trkpt lat="43.67959" lon="1.20976">
        <ele>175.247373</ele>
        <time>2023-01-03T12:45:08.173Z</time>
      </trkpt>
      <trkpt lat="43.67968" lon="1.20985">
        <ele>175.223885</ele>
        <time>2023-01-03T12:45:10.174Z</time>
      </trkpt>
      <trkpt lat="43.67975" lon="1.20993">
        <ele>175.202671</ele>
        <time>2023-01-03T12:45:12.156Z</time>
      </trkpt>
      <trkpt lat="43.67983" lon="1.21001">
        <ele>175.181466</ele>
        <time>2023-01-03T12:45:14.168Z</time>
      </trkpt>
      <trkpt lat="43.67991" lon="1.21009">
        <ele>175.159889</ele>
        <time>2023-01-03T12:45:16.184Z</time>
      </trkpt>
      <trkpt lat="43.67999" lon="1.21017">
        <ele>175.137043</ele>
        <time>2023-01-03T12:45:18.160Z</time>
      </trkpt>
      <trkpt lat="43.68008" lon="1.21025">
        <ele>175.114014</ele>
        <time>2023-01-03T12:45:20.174Z</time>
      </trkpt>
      <trkpt lat="43.68017" lon="1.21034">
        <ele>175.090805</ele>
        <time>2023-01-03T12:45:22.170Z</time>
      </trkpt>
      <trkpt lat="43.68025" lon="1.21042">
        <ele>175.066962</ele>
        <time>2023-01-03T12:45:24.177Z</time>
      </trkpt>
      <trkpt lat="43.68034" lon="1.21051">
        <ele>175.044205</ele>
        <time>2023-01-03T12:45:26.181Z</time>
      </trkpt>
      <trkpt lat="43.68042" lon="1.21058">
        <ele>175.022538</ele>
        <time>2023-01-03T12:45:28.170Z</time>
      </trkpt>
      <trkpt lat="43.68051" lon="1.21067">
        <ele>174.998333</ele>
        <time>2023-01-03T12:45:30.153Z</time>
      </trkpt>
      <trkpt lat="43.68059" lon="1.21075">
        <ele>174.97585</ele>
        <time>2023-01-03T12:45:32.172Z</time>
      </trkpt>
      <trkpt lat="43.68068" lon="1.21083">
        <ele>174.949285</ele>
        <time>2023-01-03T12:45:34.165Z</time>
      </trkpt>
      <trkpt lat="43.68077" lon="1.21091">
        <ele>174.917202</ele>
        <time>2023-01-03T12:45:36.154Z</time>
      </trkpt>
      <trkpt lat="43.68085" lon="1.21099">
        <ele>174.886148</ele>
        <time>2023-01-03T12:45:38.171Z</time>
      </trkpt>
      <trkpt lat="43.68094" lon="1.21106">
        <ele>174.853941</ele>
        <time>2023-01-03T12:45:40.160Z</time>
      </trkpt>
      <trkpt lat="43.68101" lon="1.21115">
        <ele>174.824987</ele>
        <time>2023-01-03T12:45:42.170Z</time>
      </trkpt>
      <trkpt lat="43.68109" lon="1.21124">
        <ele>174.793861</ele>
        <time>2023-01-03T12:45:44.175Z</time>
      </trkpt>
      <trkpt lat="43.6812" lon="1.21133">
        <ele>174.754143</ele>
        <time>2023-01-03T12:45:47.157Z</time>
      </trkpt>
      <trkpt lat="43.6813" lon="1.21142">
        <ele>174.715783</ele>
        <time>2023-01-03T12:45:50.171Z</time>
      </trkpt>
      <trkpt lat="43.68141" lon="1.21153">
        <ele>174.673703</ele>
        <time>2023-01-03T12:45:53.164Z</time>
      </trkpt>
      <trkpt lat="43.68148" lon="1.21161">
        <ele>174.644179</ele>
        <time>2023-01-03T12:45:55.170Z</time>
      </trkpt>
      <trkpt lat="43.68157" lon="1.21168">
        <ele>174.613494</ele>
        <time>2023-01-03T12:45:57.159Z</time>
      </trkpt>
      <trkpt lat="43.68165" lon="1.21175">
        <ele>174.582281</ele>
        <time>2023-01-03T12:45:59.158Z</time>
      </trkpt>
      <trkpt lat="43.68173" lon="1.21183">
        <ele>174.552639</ele>
        <time>2023-01-03T12:46:01.155Z</time>
      </trkpt>
      <trkpt lat="43.68181" lon="1.21191">
        <ele>174.521207</ele>
        <time>2023-01-03T12:46:03.172Z</time>
      </trkpt>
      <trkpt lat="43.68189" lon="1.21199">
        <ele>174.489902</ele>
        <time>2023-01-03T12:46:05.166Z</time>
      </trkpt>
      <trkpt lat="43.68198" lon="1.21207">
        <ele>174.457174</ele>
        <time>2023-01-03T12:46:07.173Z</time>
      </trkpt>
      <trkpt lat="43.68206" lon="1.21215">
        <ele>174.427592</ele>
        <time>2023-01-03T12:46:09.172Z</time>
      </trkpt>
      <trkpt lat="43.68214" lon="1.21223">
        <ele>174.40013</ele>
        <time>2023-01-03T12:46:11.154Z</time>
      </trkpt>
      <trkpt lat="43.68222" lon="1.21231">
        <ele>174.457941</ele>
        <time>2023-01-03T12:46:13.180Z</time>
      </trkpt>
      <trkpt lat="43.6823" lon="1.21239">
        <ele>174.515783</ele>
        <time>2023-01-03T12:46:15.185Z</time>
      </trkpt>
      <trkpt lat="43.68238" lon="1.21247">
        <ele>174.576056</ele>
        <time>2023-01-03T12:46:17.162Z</time>
      </trkpt>
      <trkpt lat="43.68247" lon="1.21255">
        <ele>174.636054</ele>
        <time>2023-01-03T12:46:19.170Z</time>
      </trkpt>
      <trkpt lat="43.68255" lon="1.21263">
        <ele>174.697735</ele>
        <time>2023-01-03T12:46:21.167Z</time>
      </trkpt>
      <trkpt lat="43.68264" lon="1.21272">
        <ele>174.761351</ele>
        <time>2023-01-03T12:46:23.165Z</time>
      </trkpt>
      <trkpt lat="43.68273" lon="1.2128">
        <ele>174.822827</ele>
        <time>2023-01-03T12:46:25.173Z</time>
      </trkpt>
      <trkpt lat="43.68281" lon="1.21287">
        <ele>174.881123</ele>
        <time>2023-01-03T12:46:27.173Z</time>
      </trkpt>
      <trkpt lat="43.68289" lon="1.21295">
        <ele>174.936998</ele>
        <time>2023-01-03T12:46:29.157Z</time>
      </trkpt>
      <trkpt lat="43.68299" lon="1.21305">
        <ele>175.011261</ele>
        <time>2023-01-03T12:46:32.158Z</time>
      </trkpt>
      <trkpt lat="43.6831" lon="1.21314">
        <ele>175.084568</ele>
        <time>2023-01-03T12:46:35.153Z</time>
      </trkpt>
      <trkpt lat="43.6832" lon="1.21325">
        <ele>175.160778</ele>
        <time>2023-01-03T12:46:38.170Z</time>
      </trkpt>
      <trkpt lat="43.68332" lon="1.21335">
        <ele>175.239783</ele>
        <time>2023-01-03T12:46:41.166Z</time>
      </trkpt>
      <trkpt lat="43.68339" lon="1.21342">
        <ele>175.292999</ele>
        <time>2023-01-03T12:46:43.167Z</time>
      </trkpt>
      <trkpt lat="43.68347" lon="1.2135">
        <ele>175.349175</ele>
        <time>2023-01-03T12:46:45.161Z</time>
      </trkpt>
      <trkpt lat="43.68357" lon="1.21361">
        <ele>175.427338</ele>
        <time>2023-01-03T12:46:48.166Z</time>
      </trkpt>
      <trkpt lat="43.68368" lon="1.21371">
        <ele>175.501712</ele>
        <time>2023-01-03T12:46:51.164Z</time>
      </trkpt>
      <trkpt lat="43.68378" lon="1.21382">
        <ele>175.575662</ele>
        <time>2023-01-03T12:46:54.178Z</time>
      </trkpt>
      <trkpt lat="43.68389" lon="1.21392">
        <ele>175.650548</ele>
        <time>2023-01-03T12:46:57.173Z</time>
      </trkpt>
      <trkpt lat="43.684" lon="1.21403">
        <ele>175.724513</ele>
        <time>2023-01-03T12:47:00.179Z</time>
      </trkpt>
      <trkpt lat="43.6841" lon="1.21413">
        <ele>175.793023</ele>
        <time>2023-01-03T12:47:03.157Z</time>
      </trkpt>
      <trkpt lat="43.68419" lon="1.21422">
        <ele>175.856521</ele>
        <time>2023-01-03T12:47:06.170Z</time>
      </trkpt>
      <trkpt lat="43.68427" lon="1.21431">
        <ele>175.917109</ele>
        <time>2023-01-03T12:47:09.171Z</time>
      </trkpt>
      <trkpt lat="43.68436" lon="1.21458">
        <ele>176.037517</ele>
        <time>2023-01-03T12:47:56.159Z</time>
      </trkpt>
      <trkpt lat="43.68435" lon="1.21471">
        <ele>176.091084</ele>
        <time>2023-01-03T12:47:59.179Z</time>
      </trkpt>
      <trkpt lat="43.68433" lon="1.21484">
        <ele>176.146074</ele>
        <time>2023-01-03T12:48:02.154Z</time>
      </trkpt>
      <trkpt lat="43.68428" lon="1.21496">
        <ele>176.201995</ele>
        <time>2023-01-03T12:48:05.158Z</time>
      </trkpt>
      <trkpt lat="43.68422" lon="1.21507">
        <ele>176.257014</ele>
        <time>2023-01-03T12:48:08.160Z</time>
      </trkpt>
      <trkpt lat="43.68416" lon="1.21516">
        <ele>176.310193</ele>
        <time>2023-01-03T12:48:11.160Z</time>
      </trkpt>
      <trkpt lat="43.6841" lon="1.21526">
        <ele>176.361397</ele>
        <time>2023-01-03T12:48:14.162Z</time>
      </trkpt>
      <trkpt lat="43.68403" lon="1.21534">
        <ele>176.413878</ele>
        <time>2023-01-03T12:48:17.168Z</time>
      </trkpt>
      <trkpt lat="43.68396" lon="1.21543">
        <ele>176.467157</ele>
        <time>2023-01-03T12:48:20.152Z</time>
      </trkpt>
      <trkpt lat="43.68387" lon="1.21552">
        <ele>176.864069</ele>
        <time>2023-01-03T12:48:24.163Z</time>
      </trkpt>
      <trkpt lat="43.68379" lon="1.21561">
        <ele>177.272286</ele>
        <time>2023-01-03T12:48:28.153Z</time>
      </trkpt>
      <trkpt lat="43.68371" lon="1.21572">
        <ele>177.711398</ele>
        <time>2023-01-03T12:48:32.155Z</time>
      </trkpt>
      <trkpt lat="43.68363" lon="1.21582">
        <ele>178.153609</ele>
        <time>2023-01-03T12:48:36.168Z</time>
      </trkpt>
      <trkpt lat="43.68356" lon="1.21593">
        <ele>178.567025</ele>
        <time>2023-01-03T12:48:40.153Z</time>
      </trkpt>
      <trkpt lat="43.68348" lon="1.21601">
        <ele>178.964675</ele>
        <time>2023-01-03T12:48:44.160Z</time>
      </trkpt>
      <trkpt lat="43.68341" lon="1.21611">
        <ele>179.34935</ele>
        <time>2023-01-03T12:48:48.157Z</time>
      </trkpt>
      <trkpt lat="43.68334" lon="1.21621">
        <ele>179.753945</ele>
        <time>2023-01-03T12:48:52.155Z</time>
      </trkpt>
      <trkpt lat="43.68327" lon="1.2163">
        <ele>180.127737</ele>
        <time>2023-01-03T12:48:56.162Z</time>
      </trkpt>
      <trkpt lat="43.6832" lon="1.2164">
        <ele>180.524027</ele>
        <time>2023-01-03T12:49:01.157Z</time>
      </trkpt>
      <trkpt lat="43.68311" lon="1.2165">
        <ele>180.95743</ele>
        <time>2023-01-03T12:49:06.152Z</time>
      </trkpt>
      <trkpt lat="43.68304" lon="1.21657">
        <ele>181.315515</ele>
        <time>2023-01-03T12:49:10.154Z</time>
      </trkpt>
      <trkpt lat="43.68298" lon="1.21668">
        <ele>181.705482</ele>
        <time>2023-01-03T12:49:15.160Z</time>
      </trkpt>
      <trkpt lat="43.68291" lon="1.21678">
        <ele>182.113739</ele>
        <time>2023-01-03T12:49:20.169Z</time>
      </trkpt>
      <trkpt lat="43.68283" lon="1.21686">
        <ele>182.478732</ele>
        <time>2023-01-03T12:49:25.148Z</time>
      </trkpt>
      <trkpt lat="43.68275" lon="1.21694">
        <ele>182.877184</ele>
        <time>2023-01-03T12:49:30.165Z</time>
      </trkpt>
      <trkpt lat="43.68268" lon="1.21704">
        <ele>183.281781</ele>
        <time>2023-01-03T12:49:35.155Z</time>
      </trkpt>
      <trkpt lat="43.68261" lon="1.21715">
        <ele>183.779789</ele>
        <time>2023-01-03T12:49:41.165Z</time>
      </trkpt>
      <trkpt lat="43.68254" lon="1.21725">
        <ele>184.434278</ele>
        <time>2023-01-03T12:49:47.159Z</time>
      </trkpt>
      <trkpt lat="43.68246" lon="1.21733">
        <ele>185.088673</ele>
        <time>2023-01-03T12:49:53.159Z</time>
      </trkpt>
      <trkpt lat="43.68238" lon="1.21742">
        <ele>185.769069</ele>
        <time>2023-01-03T12:49:59.158Z</time>
      </trkpt>
      <trkpt lat="43.68231" lon="1.21752">
        <ele>186.414484</ele>
        <time>2023-01-03T12:50:05.152Z</time>
      </trkpt>
      <trkpt lat="43.68225" lon="1.21764">
        <ele>187.087773</ele>
        <time>2023-01-03T12:50:11.160Z</time>
      </trkpt>
      <trkpt lat="43.68217" lon="1.21774">
        <ele>187.767315</ele>
        <time>2023-01-03T12:50:17.155Z</time>
      </trkpt>
      <trkpt lat="43.68211" lon="1.21783">
        <ele>188.362069</ele>
        <time>2023-01-03T12:50:22.161Z</time>
      </trkpt>
      <trkpt lat="43.68205" lon="1.21794">
        <ele>189.005684</ele>
        <time>2023-01-03T12:50:28.154Z</time>
      </trkpt>
      <trkpt lat="43.68199" lon="1.21803">
        <ele>189.594227</ele>
        <time>2023-01-03T12:50:34.166Z</time>
      </trkpt>
      <trkpt lat="43.68191" lon="1.21813">
        <ele>190.269136</ele>
        <time>2023-01-03T12:50:41.157Z</time>
      </trkpt>
      <trkpt lat="43.68186" lon="1.21824">
        <ele>190.854913</ele>
        <time>2023-01-03T12:50:47.162Z</time>
      </trkpt>
      <trkpt lat="43.6818" lon="1.21835">
        <ele>191.509967</ele>
        <time>2023-01-03T12:50:53.160Z</time>
      </trkpt>
      <trkpt lat="43.68174" lon="1.21846">
        <ele>192.16497</ele>
        <time>2023-01-03T12:50:59.150Z</time>
      </trkpt>
      <trkpt lat="43.68168" lon="1.21856">
        <ele>192.776981</ele>
        <time>2023-01-03T12:51:05.162Z</time>
      </trkpt>
      <trkpt lat="43.68162" lon="1.21868">
        <ele>193.447385</ele>
        <time>2023-01-03T12:51:11.175Z</time>
      </trkpt>
      <trkpt lat="43.68157" lon="1.21879">
        <ele>194.067598</ele>
        <time>2023-01-03T12:51:17.152Z</time>
      </trkpt>
      <trkpt lat="43.68152" lon="1.2189">
        <ele>194.696854</ele>
        <time>2023-01-03T12:51:23.158Z</time>
      </trkpt>
      <trkpt lat="43.68146" lon="1.21901">
        <ele>195.307439</ele>
        <time>2023-01-03T12:51:30.163Z</time>
      </trkpt>
      <trkpt lat="43.68142" lon="1.21913">
        <ele>195.692887</ele>
        <time>2023-01-03T12:51:36.166Z</time>
      </trkpt>
      <trkpt lat="43.68137" lon="1.21925">
        <ele>196.099414</ele>
        <time>2023-01-03T12:51:42.173Z</time>
      </trkpt>
      <trkpt lat="43.68132" lon="1.21938">
        <ele>196.508476</ele>
        <time>2023-01-03T12:51:48.152Z</time>
      </trkpt>
      <trkpt lat="43.68127" lon="1.2195">
        <ele>196.92391</ele>
        <time>2023-01-03T12:51:54.157Z</time>
      </trkpt>
      <trkpt lat="43.68123" lon="1.21963">
        <ele>197.336881</ele>
        <time>2023-01-03T12:52:00.155Z</time>
      </trkpt>
      <trkpt lat="43.68117" lon="1.21976">
        <ele>197.760578</ele>
        <time>2023-01-03T12:52:06.163Z</time>
      </trkpt>
      <trkpt lat="43.68114" lon="1.21988">
        <ele>198.14005</ele>
        <time>2023-01-03T12:52:11.170Z</time>
      </trkpt>
      <trkpt lat="43.68109" lon="1.22">
        <ele>198.543841</ele>
        <time>2023-01-03T12:52:16.154Z</time>
      </trkpt>
      <trkpt lat="43.68106" lon="1.22012">
        <ele>198.928215</ele>
        <time>2023-01-03T12:52:21.156Z</time>
      </trkpt>
      <trkpt lat="43.68102" lon="1.22025">
        <ele>199.338469</ele>
        <time>2023-01-03T12:52:26.152Z</time>
      </trkpt>
      <trkpt lat="43.68098" lon="1.2204">
        <ele>199.789122</ele>
        <time>2023-01-03T12:52:31.158Z</time>
      </trkpt>
      <trkpt lat="43.68094" lon="1.22053">
        <ele>200.217155</ele>
        <time>2023-01-03T12:52:35.156Z</time>
      </trkpt>
      <trkpt lat="43.6809" lon="1.22065">
        <ele>200.580685</ele>
        <time>2023-01-03T12:52:38.155Z</time>
      </trkpt>
      <trkpt lat="43.68087" lon="1.22077">
        <ele>200.979877</ele>
        <time>2023-01-03T12:52:41.155Z</time>
      </trkpt>
      <trkpt lat="43.68083" lon="1.22091">
        <ele>201.397376</ele>
        <time>2023-01-03T12:52:44.157Z</time>
      </trkpt>
      <trkpt lat="43.68078" lon="1.22104">
        <ele>201.817806</ele>
        <time>2023-01-03T12:52:47.155Z</time>
      </trkpt>
      <trkpt lat="43.68073" lon="1.22117">
        <ele>202.260787</ele>
        <time>2023-01-03T12:52:50.159Z</time>
      </trkpt>
      <trkpt lat="43.68068" lon="1.2213">
        <ele>202.448651</ele>
        <time>2023-01-03T12:52:53.160Z</time>
      </trkpt>
      <trkpt lat="43.68064" lon="1.22141">
        <ele>202.376853</ele>
        <time>2023-01-03T12:52:56.150Z</time>
      </trkpt>
      <trkpt lat="43.68058" lon="1.22155">
        <ele>202.294804</ele>
        <time>2023-01-03T12:53:00.154Z</time>
      </trkpt>
      <trkpt lat="43.68054" lon="1.22167">
        <ele>202.221732</ele>
        <time>2023-01-03T12:53:04.160Z</time>
      </trkpt>
      <trkpt lat="43.68047" lon="1.2218">
        <ele>202.134232</ele>
        <time>2023-01-03T12:53:08.160Z</time>
      </trkpt>
      <trkpt lat="43.68042" lon="1.22192">
        <ele>202.063738</ele>
        <time>2023-01-03T12:53:11.154Z</time>
      </trkpt>
      <trkpt lat="43.68037" lon="1.22203">
        <ele>201.99276</ele>
        <time>2023-01-03T12:53:14.155Z</time>
      </trkpt>
      <trkpt lat="43.6803" lon="1.22216">
        <ele>201.905259</ele>
        <time>2023-01-03T12:53:18.165Z</time>
      </trkpt>
      <trkpt lat="43.68023" lon="1.22229">
        <ele>201.820369</ele>
        <time>2023-01-03T12:53:22.159Z</time>
      </trkpt>
      <trkpt lat="43.68018" lon="1.2224">
        <ele>201.748056</ele>
        <time>2023-01-03T12:53:25.154Z</time>
      </trkpt>
      <trkpt lat="43.68012" lon="1.22251">
        <ele>201.673179</ele>
        <time>2023-01-03T12:53:28.162Z</time>
      </trkpt>
      <trkpt lat="43.68005" lon="1.22262">
        <ele>201.594207</ele>
        <time>2023-01-03T12:53:31.160Z</time>
      </trkpt>
      <trkpt lat="43.67998" lon="1.22273">
        <ele>201.516297</ele>
        <time>2023-01-03T12:53:34.180Z</time>
      </trkpt>
      <trkpt lat="43.67991" lon="1.22284">
        <ele>201.436367</ele>
        <time>2023-01-03T12:53:37.159Z</time>
      </trkpt>
      <trkpt lat="43.67984" lon="1.22296">
        <ele>201.354367</ele>
        <time>2023-01-03T12:53:40.158Z</time>
      </trkpt>
      <trkpt lat="43.67976" lon="1.22308">
        <ele>201.267938</ele>
        <time>2023-01-03T12:53:43.157Z</time>
      </trkpt>
      <trkpt lat="43.67968" lon="1.2232">
        <ele>201.179755</ele>
        <time>2023-01-03T12:53:46.154Z</time>
      </trkpt>
      <trkpt lat="43.67959" lon="1.22331">
        <ele>200.907301</ele>
        <time>2023-01-03T12:53:49.159Z</time>
      </trkpt>
      <trkpt lat="43.6795" lon="1.22343">
        <ele>200.529114</ele>
        <time>2023-01-03T12:53:52.157Z</time>
      </trkpt>
      <trkpt lat="43.6794" lon="1.22355">
        <ele>200.150927</ele>
        <time>2023-01-03T12:53:55.163Z</time>
      </trkpt>
      <trkpt lat="43.6793" lon="1.22366">
        <ele>199.755466</ele>
        <time>2023-01-03T12:53:58.156Z</time>
      </trkpt>
      <trkpt lat="43.6792" lon="1.22378">
        <ele>199.36546</ele>
        <time>2023-01-03T12:54:01.157Z</time>
      </trkpt>
      <trkpt lat="43.67909" lon="1.22387">
        <ele>198.972478</ele>
        <time>2023-01-03T12:54:04.155Z</time>
      </trkpt>
      <trkpt lat="43.67899" lon="1.224">
        <ele>198.578991</ele>
        <time>2023-01-03T12:54:07.160Z</time>
      </trkpt>
      <trkpt lat="43.67891" lon="1.22407">
        <ele>198.302823</ele>
        <time>2023-01-03T12:54:09.155Z</time>
      </trkpt>
      <trkpt lat="43.67883" lon="1.22414">
        <ele>198.001943</ele>
        <time>2023-01-03T12:54:11.154Z</time>
      </trkpt>
      <trkpt lat="43.67874" lon="1.22421">
        <ele>197.711839</ele>
        <time>2023-01-03T12:54:13.158Z</time>
      </trkpt>
      <trkpt lat="43.67865" lon="1.22429">
        <ele>197.38582</ele>
        <time>2023-01-03T12:54:15.155Z</time>
      </trkpt>
      <trkpt lat="43.67855" lon="1.22437">
        <ele>197.040345</ele>
        <time>2023-01-03T12:54:17.148Z</time>
      </trkpt>
      <trkpt lat="43.67845" lon="1.22445">
        <ele>196.704531</ele>
        <time>2023-01-03T12:54:19.160Z</time>
      </trkpt>
      <trkpt lat="43.67834" lon="1.22452">
        <ele>196.333964</ele>
        <time>2023-01-03T12:54:21.159Z</time>
      </trkpt>
      <trkpt lat="43.67823" lon="1.2246">
        <ele>195.962425</ele>
        <time>2023-01-03T12:54:23.164Z</time>
      </trkpt>
      <trkpt lat="43.67811" lon="1.22468">
        <ele>195.759199</ele>
        <time>2023-01-03T12:54:25.155Z</time>
      </trkpt>
      <trkpt lat="43.67799" lon="1.22475">
        <ele>195.718766</ele>
        <time>2023-01-03T12:54:27.154Z</time>
      </trkpt>
      <trkpt lat="43.67787" lon="1.22482">
        <ele>195.67878</ele>
        <time>2023-01-03T12:54:29.163Z</time>
      </trkpt>
      <trkpt lat="43.67776" lon="1.22488">
        <ele>195.64201</ele>
        <time>2023-01-03T12:54:31.189Z</time>
      </trkpt>
      <trkpt lat="43.67766" lon="1.22494">
        <ele>195.608084</ele>
        <time>2023-01-03T12:54:33.170Z</time>
      </trkpt>
      <trkpt lat="43.67756" lon="1.22498">
        <ele>195.576744</ele>
        <time>2023-01-03T12:54:35.175Z</time>
      </trkpt>
      <trkpt lat="43.67748" lon="1.22503">
        <ele>195.54796</ele>
        <time>2023-01-03T12:54:37.156Z</time>
      </trkpt>
      <trkpt lat="43.67739" lon="1.22507">
        <ele>195.51999</ele>
        <time>2023-01-03T12:54:39.157Z</time>
      </trkpt>
      <trkpt lat="43.67727" lon="1.22511">
        <ele>195.48164</ele>
        <time>2023-01-03T12:54:42.172Z</time>
      </trkpt>
      <trkpt lat="43.67717" lon="1.22514">
        <ele>195.448719</ele>
        <time>2023-01-03T12:54:45.158Z</time>
      </trkpt>
      <trkpt lat="43.67705" lon="1.22517">
        <ele>195.413257</ele>
        <time>2023-01-03T12:54:48.173Z</time>
      </trkpt>
      <trkpt lat="43.67694" lon="1.22521">
        <ele>195.37667</ele>
        <time>2023-01-03T12:54:51.165Z</time>
      </trkpt>
      <trkpt lat="43.67682" lon="1.22525">
        <ele>195.33951</ele>
        <time>2023-01-03T12:54:54.157Z</time>
      </trkpt>
      <trkpt lat="43.67671" lon="1.22528">
        <ele>195.30229</ele>
        <time>2023-01-03T12:54:57.166Z</time>
      </trkpt>
      <trkpt lat="43.67659" lon="1.22531">
        <ele>195.265394</ele>
        <time>2023-01-03T12:55:00.164Z</time>
      </trkpt>
      <trkpt lat="43.67647" lon="1.22533">
        <ele>195.22794</ele>
        <time>2023-01-03T12:55:03.162Z</time>
      </trkpt>
      <trkpt lat="43.67635" lon="1.22534">
        <ele>195.343664</ele>
        <time>2023-01-03T12:55:06.164Z</time>
      </trkpt>
      <trkpt lat="43.67623" lon="1.22534">
        <ele>195.473711</ele>
        <time>2023-01-03T12:55:09.159Z</time>
      </trkpt>
      <trkpt lat="43.67612" lon="1.22536">
        <ele>195.593544</ele>
        <time>2023-01-03T12:55:12.158Z</time>
      </trkpt>
      <trkpt lat="43.67602" lon="1.22536">
        <ele>195.697564</ele>
        <time>2023-01-03T12:55:15.157Z</time>
      </trkpt>
      <trkpt lat="43.67592" lon="1.22536">
        <ele>195.800562</ele>
        <time>2023-01-03T12:55:18.162Z</time>
      </trkpt>
      <trkpt lat="43.67582" lon="1.22536">
        <ele>195.908904</ele>
        <time>2023-01-03T12:55:21.160Z</time>
      </trkpt>
      <trkpt lat="43.67572" lon="1.22538">
        <ele>196.022363</ele>
        <time>2023-01-03T12:55:24.158Z</time>
      </trkpt>
      <trkpt lat="43.67562" lon="1.2254">
        <ele>196.132693</ele>
        <time>2023-01-03T12:55:27.157Z</time>
      </trkpt>
      <trkpt lat="43.67552" lon="1.22541">
        <ele>196.241512</ele>
        <time>2023-01-03T12:55:30.162Z</time>
      </trkpt>
      <trkpt lat="43.67542" lon="1.22542">
        <ele>196.350261</ele>
        <time>2023-01-03T12:55:33.147Z</time>
      </trkpt>
      <trkpt lat="43.67532" lon="1.22544">
        <ele>196.458078</ele>
        <time>2023-01-03T12:55:36.162Z</time>
      </trkpt>
      <trkpt lat="43.67522" lon="1.22544">
        <ele>196.563216</ele>
        <time>2023-01-03T12:55:39.178Z</time>
      </trkpt>
      <trkpt lat="43.67513" lon="1.22545">
        <ele>196.668412</ele>
        <time>2023-01-03T12:55:42.151Z</time>
      </trkpt>
      <trkpt lat="43.67503" lon="1.22546">
        <ele>196.776016</ele>
        <time>2023-01-03T12:55:45.158Z</time>
      </trkpt>
      <trkpt lat="43.67493" lon="1.22547">
        <ele>196.886992</ele>
        <time>2023-01-03T12:55:48.164Z</time>
      </trkpt>
      <trkpt lat="43.67483" lon="1.22548">
        <ele>196.985894</ele>
        <time>2023-01-03T12:55:51.158Z</time>
      </trkpt>
      <trkpt lat="43.67474" lon="1.22549">
        <ele>197.09109</ele>
        <time>2023-01-03T12:55:55.159Z</time>
      </trkpt>
      <trkpt lat="43.67463" lon="1.2255">
        <ele>197.253014</ele>
        <time>2023-01-03T12:55:59.166Z</time>
      </trkpt>
      <trkpt lat="43.67453" lon="1.22552">
        <ele>197.542359</ele>
        <time>2023-01-03T12:56:03.148Z</time>
      </trkpt>
      <trkpt lat="43.67442" lon="1.22555">
        <ele>197.826135</ele>
        <time>2023-01-03T12:56:07.158Z</time>
      </trkpt>
      <trkpt lat="43.67433" lon="1.22558">
        <ele>198.093371</ele>
        <time>2023-01-03T12:56:11.169Z</time>
      </trkpt>
      <trkpt lat="43.67411" lon="1.22562">
        <ele>198.673971</ele>
        <time>2023-01-03T12:57:04.159Z</time>
      </trkpt>
      <trkpt lat="43.674" lon="1.22558">
        <ele>198.98186</ele>
        <time>2023-01-03T12:57:08.156Z</time>
      </trkpt>
      <trkpt lat="43.67391" lon="1.22551">
        <ele>199.265618</ele>
        <time>2023-01-03T12:57:11.166Z</time>
      </trkpt>
      <trkpt lat="43.67382" lon="1.22544">
        <ele>199.543925</ele>
        <time>2023-01-03T12:57:14.155Z</time>
      </trkpt>
      <trkpt lat="43.67372" lon="1.22535">
        <ele>199.848139</ele>
        <time>2023-01-03T12:57:18.159Z</time>
      </trkpt>
      <trkpt lat="43.67365" lon="1.22527">
        <ele>200.099636</ele>
        <time>2023-01-03T12:57:22.163Z</time>
      </trkpt>
      <trkpt lat="43.67357" lon="1.22519">
        <ele>200.354297</ele>
        <time>2023-01-03T12:57:26.155Z</time>
      </trkpt>
      <trkpt lat="43.67348" lon="1.22512">
        <ele>200.631323</ele>
        <time>2023-01-03T12:57:31.154Z</time>
      </trkpt>
      <trkpt lat="43.6734" lon="1.22505">
        <ele>200.902428</ele>
        <time>2023-01-03T12:57:36.159Z</time>
      </trkpt>
      <trkpt lat="43.67331" lon="1.22497">
        <ele>201.172644</ele>
        <time>2023-01-03T12:57:41.161Z</time>
      </trkpt>
      <trkpt lat="43.67322" lon="1.22489">
        <ele>201.45372</ele>
        <time>2023-01-03T12:57:46.158Z</time>
      </trkpt>
      <trkpt lat="43.67314" lon="1.22481">
        <ele>201.721551</ele>
        <time>2023-01-03T12:57:51.155Z</time>
      </trkpt>
      <trkpt lat="43.67307" lon="1.22474">
        <ele>201.9643</ele>
        <time>2023-01-03T12:57:56.155Z</time>
      </trkpt>
      <trkpt lat="43.67299" lon="1.22465">
        <ele>202.444674</ele>
        <time>2023-01-03T12:58:02.164Z</time>
      </trkpt>
      <trkpt lat="43.67291" lon="1.22456">
        <ele>202.974937</ele>
        <time>2023-01-03T12:58:08.157Z</time>
      </trkpt>
      <trkpt lat="43.67282" lon="1.22448">
        <ele>203.491944</ele>
        <time>2023-01-03T12:58:14.157Z</time>
      </trkpt>
      <trkpt lat="43.67273" lon="1.2244">
        <ele>204.009613</ele>
        <time>2023-01-03T12:58:20.153Z</time>
      </trkpt>
      <trkpt lat="43.67264" lon="1.22434">
        <ele>204.540781</ele>
        <time>2023-01-03T12:58:26.149Z</time>
      </trkpt>
      <trkpt lat="43.67255" lon="1.22427">
        <ele>205.049933</ele>
        <time>2023-01-03T12:58:32.155Z</time>
      </trkpt>
      <trkpt lat="43.67246" lon="1.22418">
        <ele>205.572719</ele>
        <time>2023-01-03T12:58:38.150Z</time>
      </trkpt>
      <trkpt lat="43.67238" lon="1.22411">
        <ele>206.089907</ele>
        <time>2023-01-03T12:58:44.163Z</time>
      </trkpt>
      <trkpt lat="43.6723" lon="1.22404">
        <ele>206.55343</ele>
        <time>2023-01-03T12:58:49.158Z</time>
      </trkpt>
      <trkpt lat="43.67221" lon="1.22397">
        <ele>207.031502</ele>
        <time>2023-01-03T12:58:54.168Z</time>
      </trkpt>
      <trkpt lat="43.67207" lon="1.22388">
        <ele>207.835817</ele>
        <time>2023-01-03T12:59:31.151Z</time>
      </trkpt>
      <trkpt lat="43.67197" lon="1.22392">
        <ele>208.343151</ele>
        <time>2023-01-03T12:59:41.164Z</time>
      </trkpt>
      <trkpt lat="43.67188" lon="1.224">
        <ele>208.857732</ele>
        <time>2023-01-03T12:59:46.157Z</time>
      </trkpt>
      <trkpt lat="43.67181" lon="1.2241">
        <ele>209.383089</ele>
        <time>2023-01-03T12:59:50.166Z</time>
      </trkpt>
      <trkpt lat="43.67172" lon="1.22418">
        <ele>209.895808</ele>
        <time>2023-01-03T12:59:54.175Z</time>
      </trkpt>
      <trkpt lat="43.67164" lon="1.22428">
        <ele>210.446766</ele>
        <time>2023-01-03T12:59:58.159Z</time>
      </trkpt>
      <trkpt lat="43.67155" lon="1.22438">
        <ele>210.992101</ele>
        <time>2023-01-03T13:00:02.160Z</time>
      </trkpt>
      <trkpt lat="43.67146" lon="1.22447">
        <ele>211.378944</ele>
        <time>2023-01-03T13:00:06.160Z</time>
      </trkpt>
      <trkpt lat="43.67137" lon="1.22457">
        <ele>211.771172</ele>
        <time>2023-01-03T13:00:10.159Z</time>
      </trkpt>
      <trkpt lat="43.6713" lon="1.22465">
        <ele>212.080157</ele>
        <time>2023-01-03T13:00:13.155Z</time>
      </trkpt>
      <trkpt lat="43.67122" lon="1.22472">
        <ele>212.40735</ele>
        <time>2023-01-03T13:00:17.161Z</time>
      </trkpt>
      <trkpt lat="43.67112" lon="1.22479">
        <ele>212.785015</ele>
        <time>2023-01-03T13:00:22.170Z</time>
      </trkpt>
      <trkpt lat="43.67103" lon="1.22483">
        <ele>213.097975</ele>
        <time>2023-01-03T13:00:26.148Z</time>
      </trkpt>
      <trkpt lat="43.67094" lon="1.22487">
        <ele>213.421432</ele>
        <time>2023-01-03T13:00:30.158Z</time>
      </trkpt>
      <trkpt lat="43.67084" lon="1.22493">
        <ele>213.810564</ele>
        <time>2023-01-03T13:00:34.161Z</time>
      </trkpt>
      <trkpt lat="43.67073" lon="1.22498">
        <ele>214.184046</ele>
        <time>2023-01-03T13:00:38.174Z</time>
      </trkpt>
      <trkpt lat="43.67063" lon="1.22502">
        <ele>214.565697</ele>
        <time>2023-01-03T13:00:42.158Z</time>
      </trkpt>
      <trkpt lat="43.67053" lon="1.22504">
        <ele>214.910626</ele>
        <time>2023-01-03T13:00:46.159Z</time>
      </trkpt>
      <trkpt lat="43.67043" lon="1.22508">
        <ele>215.25824</ele>
        <time>2023-01-03T13:00:50.175Z</time>
      </trkpt>
      <trkpt lat="43.67033" lon="1.22511">
        <ele>215.607527</ele>
        <time>2023-01-03T13:00:54.170Z</time>
      </trkpt>
      <trkpt lat="43.67024" lon="1.22515">
        <ele>215.943051</ele>
        <time>2023-01-03T13:00:58.157Z</time>
      </trkpt>
      <trkpt lat="43.67014" lon="1.22519">
        <ele>216.294011</ele>
        <time>2023-01-03T13:01:02.161Z</time>
      </trkpt>
      <trkpt lat="43.67004" lon="1.22525">
        <ele>216.636441</ele>
        <time>2023-01-03T13:01:06.179Z</time>
      </trkpt>
      <trkpt lat="43.66995" lon="1.22531">
        <ele>216.989534</ele>
        <time>2023-01-03T13:01:10.158Z</time>
      </trkpt>
      <trkpt lat="43.66986" lon="1.22538">
        <ele>217.360775</ele>
        <time>2023-01-03T13:01:14.164Z</time>
      </trkpt>
      <trkpt lat="43.66976" lon="1.22545">
        <ele>217.751673</ele>
        <time>2023-01-03T13:01:18.157Z</time>
      </trkpt>
      <trkpt lat="43.66966" lon="1.22554">
        <ele>218.162776</ele>
        <time>2023-01-03T13:01:22.165Z</time>
      </trkpt>
      <trkpt lat="43.66955" lon="1.22561">
        <ele>218.562613</ele>
        <time>2023-01-03T13:01:26.155Z</time>
      </trkpt>
      <trkpt lat="43.66947" lon="1.22567">
        <ele>218.880773</ele>
        <time>2023-01-03T13:01:30.152Z</time>
      </trkpt>
      <trkpt lat="43.66937" lon="1.22575">
        <ele>219.268238</ele>
        <time>2023-01-03T13:01:35.152Z</time>
      </trkpt>
      <trkpt lat="43.66928" lon="1.22583">
        <ele>219.642207</ele>
        <time>2023-01-03T13:01:40.158Z</time>
      </trkpt>
      <trkpt lat="43.66919" lon="1.22592">
        <ele>220.034873</ele>
        <time>2023-01-03T13:01:45.162Z</time>
      </trkpt>
      <trkpt lat="43.66912" lon="1.226">
        <ele>220.355025</ele>
        <time>2023-01-03T13:01:49.154Z</time>
      </trkpt>
      <trkpt lat="43.66903" lon="1.22608">
        <ele>220.709042</ele>
        <time>2023-01-03T13:01:53.160Z</time>
      </trkpt>
      <trkpt lat="43.66895" lon="1.22616">
        <ele>221.063136</ele>
        <time>2023-01-03T13:01:57.159Z</time>
      </trkpt>
      <trkpt lat="43.66886" lon="1.22623">
        <ele>221.42986</ele>
        <time>2023-01-03T13:02:01.159Z</time>
      </trkpt>
      <trkpt lat="43.66878" lon="1.22629">
        <ele>221.748113</ele>
        <time>2023-01-03T13:02:05.165Z</time>
      </trkpt>
      <trkpt lat="43.66869" lon="1.22636">
        <ele>222.108726</ele>
        <time>2023-01-03T13:02:10.159Z</time>
      </trkpt>
      <trkpt lat="43.66859" lon="1.22643">
        <ele>222.480253</ele>
        <time>2023-01-03T13:02:15.161Z</time>
      </trkpt>
      <trkpt lat="43.6685" lon="1.22649">
        <ele>222.83626</ele>
        <time>2023-01-03T13:02:20.177Z</time>
      </trkpt>
      <trkpt lat="43.6684" lon="1.22656">
        <ele>223.214492</ele>
        <time>2023-01-03T13:02:25.158Z</time>
      </trkpt>
      <trkpt lat="43.6683" lon="1.22664">
        <ele>223.487404</ele>
        <time>2023-01-03T13:02:30.161Z</time>
      </trkpt>
      <trkpt lat="43.6682" lon="1.22671">
        <ele>223.71089</ele>
        <time>2023-01-03T13:02:35.160Z</time>
      </trkpt>
      <trkpt lat="43.66812" lon="1.22678">
        <ele>223.908676</ele>
        <time>2023-01-03T13:02:39.156Z</time>
      </trkpt>
      <trkpt lat="43.66804" lon="1.22684">
        <ele>224.101192</ele>
        <time>2023-01-03T13:02:43.171Z</time>
      </trkpt>
      <trkpt lat="43.66793" lon="1.22686">
        <ele>224.328174</ele>
        <time>2023-01-03T13:02:48.159Z</time>
      </trkpt>
      <trkpt lat="43.66782" lon="1.22682">
        <ele>224.556706</ele>
        <time>2023-01-03T13:02:53.163Z</time>
      </trkpt>
      <trkpt lat="43.66774" lon="1.22676">
        <ele>224.74196</ele>
        <time>2023-01-03T13:02:57.162Z</time>
      </trkpt>
      <trkpt lat="43.6677" lon="1.22663">
        <ele>224.948473</ele>
        <time>2023-01-03T13:03:03.160Z</time>
      </trkpt>
      <trkpt lat="43.66776" lon="1.22649">
        <ele>225.178962</ele>
        <time>2023-01-03T13:03:08.150Z</time>
      </trkpt>
      <trkpt lat="43.6678" lon="1.22637">
        <ele>225.372231</ele>
        <time>2023-01-03T13:03:12.159Z</time>
      </trkpt>
      <trkpt lat="43.66781" lon="1.22625">
        <ele>225.557247</ele>
        <time>2023-01-03T13:03:16.160Z</time>
      </trkpt>
      <trkpt lat="43.66784" lon="1.22612">
        <ele>225.758854</ele>
        <time>2023-01-03T13:03:22.164Z</time>
      </trkpt>
      <trkpt lat="43.66784" lon="1.2261">
        <ele>225.787999</ele>
        <time>2023-01-03T13:03:58.210Z</time>
      </trkpt>
      <trkpt lat="43.66536" lon="1.22689">
        <ele>231.191117</ele>
        <time>2023-01-03T13:32:37.689Z</time>
      </trkpt>
      <trkpt lat="43.66523" lon="1.22691">
        <ele>231.183651</ele>
        <time>2023-01-03T13:33:10.157Z</time>
      </trkpt>
      <trkpt lat="43.66514" lon="1.22692">
        <ele>231.178307</ele>
        <time>2023-01-03T13:33:14.160Z</time>
      </trkpt>
      <trkpt lat="43.66504" lon="1.22694">
        <ele>231.172334</ele>
        <time>2023-01-03T13:33:18.168Z</time>
      </trkpt>
      <trkpt lat="43.66493" lon="1.22697">
        <ele>231.166492</ele>
        <time>2023-01-03T13:33:23.177Z</time>
      </trkpt>
      <trkpt lat="43.66484" lon="1.22699">
        <ele>231.161126</ele>
        <time>2023-01-03T13:33:27.170Z</time>
      </trkpt>
      <trkpt lat="43.66475" lon="1.22701">
        <ele>231.156005</ele>
        <time>2023-01-03T13:33:31.171Z</time>
      </trkpt>
      <trkpt lat="43.66465" lon="1.22703">
        <ele>231.150387</ele>
        <time>2023-01-03T13:33:36.160Z</time>
      </trkpt>
      <trkpt lat="43.66455" lon="1.22704">
        <ele>231.144561</ele>
        <time>2023-01-03T13:33:40.155Z</time>
      </trkpt>
      <trkpt lat="43.66446" lon="1.22706">
        <ele>231.139297</ele>
        <time>2023-01-03T13:33:44.161Z</time>
      </trkpt>
      <trkpt lat="43.66436" lon="1.2271">
        <ele>231.133502</ele>
        <time>2023-01-03T13:33:49.149Z</time>
      </trkpt>
      <trkpt lat="43.66426" lon="1.22712">
        <ele>231.12794</ele>
        <time>2023-01-03T13:33:54.162Z</time>
      </trkpt>
      <trkpt lat="43.66417" lon="1.22712">
        <ele>231.122494</ele>
        <time>2023-01-03T13:33:59.164Z</time>
      </trkpt>
      <trkpt lat="43.66408" lon="1.22714">
        <ele>231.11723</ele>
        <time>2023-01-03T13:34:03.171Z</time>
      </trkpt>
      <trkpt lat="43.66397" lon="1.22717">
        <ele>231.111299</ele>
        <time>2023-01-03T13:34:07.167Z</time>
      </trkpt>
      <trkpt lat="43.66388" lon="1.22718">
        <ele>231.106134</ele>
        <time>2023-01-03T13:34:11.153Z</time>
      </trkpt>
      <trkpt lat="43.66378" lon="1.22718">
        <ele>231.1</ele>
        <time>2023-01-03T13:34:16.156Z</time>
      </trkpt>
      <trkpt lat="43.66367" lon="1.2272">
        <ele>231.060784</ele>
        <time>2023-01-03T13:34:20.168Z</time>
      </trkpt>
      <trkpt lat="43.66357" lon="1.22722">
        <ele>231.003191</ele>
        <time>2023-01-03T13:34:24.154Z</time>
      </trkpt>
      <trkpt lat="43.66346" lon="1.22724">
        <ele>230.942993</ele>
        <time>2023-01-03T13:34:28.156Z</time>
      </trkpt>
      <trkpt lat="43.66336" lon="1.22726">
        <ele>230.889646</ele>
        <time>2023-01-03T13:34:32.170Z</time>
      </trkpt>
      <trkpt lat="43.66326" lon="1.22729">
        <ele>230.834708</ele>
        <time>2023-01-03T13:34:36.168Z</time>
      </trkpt>
      <trkpt lat="43.66315" lon="1.22731">
        <ele>230.773543</ele>
        <time>2023-01-03T13:34:40.168Z</time>
      </trkpt>
      <trkpt lat="43.66304" lon="1.22733">
        <ele>230.718189</ele>
        <time>2023-01-03T13:34:44.180Z</time>
      </trkpt>
      <trkpt lat="43.66295" lon="1.22735">
        <ele>230.664496</ele>
        <time>2023-01-03T13:34:48.171Z</time>
      </trkpt>
      <trkpt lat="43.66285" lon="1.22736">
        <ele>230.613773</ele>
        <time>2023-01-03T13:34:52.172Z</time>
      </trkpt>
      <trkpt lat="43.66274" lon="1.22739">
        <ele>230.55511</ele>
        <time>2023-01-03T13:34:57.173Z</time>
      </trkpt>
      <trkpt lat="43.66265" lon="1.22741">
        <ele>230.505237</ele>
        <time>2023-01-03T13:35:01.154Z</time>
      </trkpt>
      <trkpt lat="43.66256" lon="1.22743">
        <ele>230.4556</ele>
        <time>2023-01-03T13:35:05.167Z</time>
      </trkpt>
      <trkpt lat="43.66247" lon="1.22747">
        <ele>230.402351</ele>
        <time>2023-01-03T13:35:11.161Z</time>
      </trkpt>
      <trkpt lat="43.66237" lon="1.22749">
        <ele>230.350347</ele>
        <time>2023-01-03T13:35:16.160Z</time>
      </trkpt>
      <trkpt lat="43.66226" lon="1.2275">
        <ele>230.293168</ele>
        <time>2023-01-03T13:35:22.160Z</time>
      </trkpt>
      <trkpt lat="43.66217" lon="1.22752">
        <ele>230.244189</ele>
        <time>2023-01-03T13:35:26.179Z</time>
      </trkpt>
      <trkpt lat="43.66208" lon="1.22753">
        <ele>230.195107</ele>
        <time>2023-01-03T13:35:30.156Z</time>
      </trkpt>
      <trkpt lat="43.66198" lon="1.22755">
        <ele>230.13874</ele>
        <time>2023-01-03T13:35:34.154Z</time>
      </trkpt>
      <trkpt lat="43.66188" lon="1.22757">
        <ele>230.268732</ele>
        <time>2023-01-03T13:35:38.152Z</time>
      </trkpt>
      <trkpt lat="43.66178" lon="1.22759">
        <ele>230.438306</ele>
        <time>2023-01-03T13:35:42.178Z</time>
      </trkpt>
      <trkpt lat="43.66168" lon="1.22762">
        <ele>230.612749</ele>
        <time>2023-01-03T13:35:46.153Z</time>
      </trkpt>
      <trkpt lat="43.66158" lon="1.22763">
        <ele>230.773929</ele>
        <time>2023-01-03T13:35:50.174Z</time>
      </trkpt>
      <trkpt lat="43.66148" lon="1.22763">
        <ele>230.927468</ele>
        <time>2023-01-03T13:35:54.151Z</time>
      </trkpt>
      <trkpt lat="43.66139" lon="1.22764">
        <ele>231.077963</ele>
        <time>2023-01-03T13:35:59.153Z</time>
      </trkpt>
      <trkpt lat="43.6613" lon="1.22765">
        <ele>231.235634</ele>
        <time>2023-01-03T13:36:03.167Z</time>
      </trkpt>
      <trkpt lat="43.66121" lon="1.22767">
        <ele>231.384523</ele>
        <time>2023-01-03T13:36:07.170Z</time>
      </trkpt>
      <trkpt lat="43.66111" lon="1.22769">
        <ele>231.53969</ele>
        <time>2023-01-03T13:36:12.176Z</time>
      </trkpt>
      <trkpt lat="43.66102" lon="1.22772">
        <ele>231.697264</ele>
        <time>2023-01-03T13:36:16.152Z</time>
      </trkpt>
      <trkpt lat="43.66092" lon="1.22774">
        <ele>231.858738</ele>
        <time>2023-01-03T13:36:20.199Z</time>
      </trkpt>
      <trkpt lat="43.66082" lon="1.22777">
        <ele>232.02109</ele>
        <time>2023-01-03T13:36:25.152Z</time>
      </trkpt>
      <trkpt lat="43.66072" lon="1.22778">
        <ele>232.191548</ele>
        <time>2023-01-03T13:36:30.152Z</time>
      </trkpt>
      <trkpt lat="43.66063" lon="1.2278">
        <ele>232.343001</ele>
        <time>2023-01-03T13:36:34.150Z</time>
      </trkpt>
      <trkpt lat="43.66052" lon="1.22781">
        <ele>232.52029</ele>
        <time>2023-01-03T13:36:39.152Z</time>
      </trkpt>
      <trkpt lat="43.66041" lon="1.22784">
        <ele>232.699989</ele>
        <time>2023-01-03T13:36:45.147Z</time>
      </trkpt>
      <trkpt lat="43.66032" lon="1.22785">
        <ele>232.855521</ele>
        <time>2023-01-03T13:36:50.162Z</time>
      </trkpt>
      <trkpt lat="43.66022" lon="1.22786">
        <ele>233.006571</ele>
        <time>2023-01-03T13:36:54.154Z</time>
      </trkpt>
      <trkpt lat="43.66012" lon="1.22788">
        <ele>232.951966</ele>
        <time>2023-01-03T13:36:58.179Z</time>
      </trkpt>
      <trkpt lat="43.66003" lon="1.22788">
        <ele>232.784701</ele>
        <time>2023-01-03T13:37:03.153Z</time>
      </trkpt>
      <trkpt lat="43.65993" lon="1.22791">
        <ele>232.588984</ele>
        <time>2023-01-03T13:37:08.162Z</time>
      </trkpt>
      <trkpt lat="43.65983" lon="1.22793">
        <ele>232.398983</ele>
        <time>2023-01-03T13:37:12.156Z</time>
      </trkpt>
      <trkpt lat="43.65973" lon="1.22795">
        <ele>232.21197</ele>
        <time>2023-01-03T13:37:16.168Z</time>
      </trkpt>
      <trkpt lat="43.65963" lon="1.22797">
        <ele>232.026237</ele>
        <time>2023-01-03T13:37:20.159Z</time>
      </trkpt>
      <trkpt lat="43.65952" lon="1.228">
        <ele>231.823871</ele>
        <time>2023-01-03T13:37:25.168Z</time>
      </trkpt>
      <trkpt lat="43.65942" lon="1.22801">
        <ele>231.64136</ele>
        <time>2023-01-03T13:37:29.162Z</time>
      </trkpt>
      <trkpt lat="43.65933" lon="1.22803">
        <ele>231.468298</ele>
        <time>2023-01-03T13:37:33.155Z</time>
      </trkpt>
      <trkpt lat="43.65923" lon="1.22805">
        <ele>231.269114</ele>
        <time>2023-01-03T13:37:38.151Z</time>
      </trkpt>
      <trkpt lat="43.65913" lon="1.22807">
        <ele>231.094216</ele>
        <time>2023-01-03T13:37:42.169Z</time>
      </trkpt>
      <trkpt lat="43.65903" lon="1.2281">
        <ele>230.897821</ele>
        <time>2023-01-03T13:37:46.157Z</time>
      </trkpt>
      <trkpt lat="43.65894" lon="1.22811">
        <ele>230.728287</ele>
        <time>2023-01-03T13:37:50.174Z</time>
      </trkpt>
      <trkpt lat="43.65883" lon="1.22813">
        <ele>230.531674</ele>
        <time>2023-01-03T13:37:55.166Z</time>
      </trkpt>
      <trkpt lat="43.65872" lon="1.22815">
        <ele>230.325504</ele>
        <time>2023-01-03T13:38:00.175Z</time>
      </trkpt>
      <trkpt lat="43.65861" lon="1.22817">
        <ele>230.116296</ele>
        <time>2023-01-03T13:38:05.153Z</time>
      </trkpt>
      <trkpt lat="43.65852" lon="1.22818">
        <ele>229.9484</ele>
        <time>2023-01-03T13:38:09.157Z</time>
      </trkpt>
      <trkpt lat="43.65843" lon="1.2282">
        <ele>229.776549</ele>
        <time>2023-01-03T13:38:13.176Z</time>
      </trkpt>
      <trkpt lat="43.65834" lon="1.22821">
        <ele>229.799765</ele>
        <time>2023-01-03T13:38:17.166Z</time>
      </trkpt>
      <trkpt lat="43.65824" lon="1.22822">
        <ele>229.904168</ele>
        <time>2023-01-03T13:38:22.157Z</time>
      </trkpt>
      <trkpt lat="43.65823" lon="1.22821">
        <ele>229.91818</ele>
        <time>2023-01-03T13:38:31.168Z</time>
      </trkpt>
      <trkpt lat="43.6581" lon="1.22817">
        <ele>230.06008</ele>
        <time>2023-01-03T13:39:58.174Z</time>
      </trkpt>
      <trkpt lat="43.65804" lon="1.22803">
        <ele>230.187326</ele>
        <time>2023-01-03T13:40:02.171Z</time>
      </trkpt>
      <trkpt lat="43.65803" lon="1.22788">
        <ele>230.301375</ele>
        <time>2023-01-03T13:40:05.165Z</time>
      </trkpt>
      <trkpt lat="43.65803" lon="1.22774">
        <ele>230.409564</ele>
        <time>2023-01-03T13:40:08.170Z</time>
      </trkpt>
      <trkpt lat="43.65804" lon="1.22762">
        <ele>230.509336</ele>
        <time>2023-01-03T13:40:11.174Z</time>
      </trkpt>
      <trkpt lat="43.65804" lon="1.22745">
        <ele>230.639337</ele>
        <time>2023-01-03T13:40:15.154Z</time>
      </trkpt>
      <trkpt lat="43.65805" lon="1.22732">
        <ele>230.737884</ele>
        <time>2023-01-03T13:40:18.172Z</time>
      </trkpt>
      <trkpt lat="43.65806" lon="1.22719">
        <ele>230.838755</ele>
        <time>2023-01-03T13:40:21.178Z</time>
      </trkpt>
      <trkpt lat="43.65807" lon="1.22703">
        <ele>230.966624</ele>
        <time>2023-01-03T13:40:25.183Z</time>
      </trkpt>
      <trkpt lat="43.65807" lon="1.22687">
        <ele>231.094385</ele>
        <time>2023-01-03T13:40:29.177Z</time>
      </trkpt>
      <trkpt lat="43.65808" lon="1.22674">
        <ele>231.196806</ele>
        <time>2023-01-03T13:40:32.155Z</time>
      </trkpt>
      <trkpt lat="43.65808" lon="1.22661">
        <ele>231.296526</ele>
        <time>2023-01-03T13:40:35.154Z</time>
      </trkpt>
      <trkpt lat="43.65808" lon="1.22648">
        <ele>231.396176</ele>
        <time>2023-01-03T13:40:38.150Z</time>
      </trkpt>
      <trkpt lat="43.65808" lon="1.22632">
        <ele>231.521562</ele>
        <time>2023-01-03T13:40:42.171Z</time>
      </trkpt>
      <trkpt lat="43.65808" lon="1.22619">
        <ele>231.619638</ele>
        <time>2023-01-03T13:40:45.169Z</time>
      </trkpt>
      <trkpt lat="43.65809" lon="1.22606">
        <ele>231.591691</ele>
        <time>2023-01-03T13:40:48.181Z</time>
      </trkpt>
      <trkpt lat="43.65809" lon="1.22593">
        <ele>231.469416</ele>
        <time>2023-01-03T13:40:51.173Z</time>
      </trkpt>
      <trkpt lat="43.65809" lon="1.22578">
        <ele>231.338038</ele>
        <time>2023-01-03T13:40:54.170Z</time>
      </trkpt>
      <trkpt lat="43.65808" lon="1.22564">
        <ele>231.208098</ele>
        <time>2023-01-03T13:40:57.179Z</time>
      </trkpt>
      <trkpt lat="43.65807" lon="1.2255">
        <ele>231.076764</ele>
        <time>2023-01-03T13:41:00.173Z</time>
      </trkpt>
      <trkpt lat="43.65805" lon="1.22535">
        <ele>230.941647</ele>
        <time>2023-01-03T13:41:03.171Z</time>
      </trkpt>
      <trkpt lat="43.65803" lon="1.22521">
        <ele>230.809783</ele>
        <time>2023-01-03T13:41:06.178Z</time>
      </trkpt>
      <trkpt lat="43.65801" lon="1.22507">
        <ele>230.682073</ele>
        <time>2023-01-03T13:41:09.153Z</time>
      </trkpt>
      <trkpt lat="43.65799" lon="1.22495">
        <ele>230.565168</ele>
        <time>2023-01-03T13:41:12.170Z</time>
      </trkpt>
      <trkpt lat="43.65796" lon="1.22482">
        <ele>230.439525</ele>
        <time>2023-01-03T13:41:15.171Z</time>
      </trkpt>
      <trkpt lat="43.65794" lon="1.22468">
        <ele>230.312388</ele>
        <time>2023-01-03T13:41:18.177Z</time>
      </trkpt>
      <trkpt lat="43.65791" lon="1.22455">
        <ele>230.1879</ele>
        <time>2023-01-03T13:41:21.155Z</time>
      </trkpt>
      <trkpt lat="43.65788" lon="1.22441">
        <ele>230.056169</ele>
        <time>2023-01-03T13:41:24.151Z</time>
      </trkpt>
      <trkpt lat="43.65785" lon="1.22429">
        <ele>229.935202</ele>
        <time>2023-01-03T13:41:27.169Z</time>
      </trkpt>
      <trkpt lat="43.65783" lon="1.22416">
        <ele>229.81778</ele>
        <time>2023-01-03T13:41:30.179Z</time>
      </trkpt>
      <trkpt lat="43.6578" lon="1.22402">
        <ele>229.68888</ele>
        <time>2023-01-03T13:41:34.173Z</time>
      </trkpt>
      <trkpt lat="43.65777" lon="1.2239">
        <ele>229.569631</ele>
        <time>2023-01-03T13:41:38.174Z</time>
      </trkpt>
      <trkpt lat="43.65774" lon="1.22378">
        <ele>229.455349</ele>
        <time>2023-01-03T13:41:41.157Z</time>
      </trkpt>
      <trkpt lat="43.65771" lon="1.22365">
        <ele>229.480671</ele>
        <time>2023-01-03T13:41:44.161Z</time>
      </trkpt>
      <trkpt lat="43.65769" lon="1.22352">
        <ele>229.649498</ele>
        <time>2023-01-03T13:41:47.171Z</time>
      </trkpt>
      <trkpt lat="43.65765" lon="1.22338">
        <ele>229.836308</ele>
        <time>2023-01-03T13:41:50.181Z</time>
      </trkpt>
      <trkpt lat="43.65761" lon="1.22324">
        <ele>230.025542</ele>
        <time>2023-01-03T13:41:53.171Z</time>
      </trkpt>
      <trkpt lat="43.65757" lon="1.2231">
        <ele>230.215422</ele>
        <time>2023-01-03T13:41:56.150Z</time>
      </trkpt>
      <trkpt lat="43.65754" lon="1.22297">
        <ele>230.393188</ele>
        <time>2023-01-03T13:41:59.155Z</time>
      </trkpt>
      <trkpt lat="43.6575" lon="1.22281">
        <ele>230.59561</ele>
        <time>2023-01-03T13:42:03.173Z</time>
      </trkpt>
      <trkpt lat="43.65746" lon="1.22266">
        <ele>230.807821</ele>
        <time>2023-01-03T13:42:07.152Z</time>
      </trkpt>
      <trkpt lat="43.65743" lon="1.22252">
        <ele>230.988719</ele>
        <time>2023-01-03T13:42:10.181Z</time>
      </trkpt>
      <trkpt lat="43.65739" lon="1.22237">
        <ele>231.189792</ele>
        <time>2023-01-03T13:42:14.169Z</time>
      </trkpt>
      <trkpt lat="43.65737" lon="1.22224">
        <ele>231.350726</ele>
        <time>2023-01-03T13:42:18.173Z</time>
      </trkpt>
      <trkpt lat="43.65733" lon="1.22212">
        <ele>231.514257</ele>
        <time>2023-01-03T13:42:23.172Z</time>
      </trkpt>
      <trkpt lat="43.65729" lon="1.22199">
        <ele>231.699216</ele>
        <time>2023-01-03T13:42:28.187Z</time>
      </trkpt>
      <trkpt lat="43.65721" lon="1.22189">
        <ele>231.882602</ele>
        <time>2023-01-03T13:42:32.171Z</time>
      </trkpt>
      <trkpt lat="43.65714" lon="1.22181">
        <ele>232.037279</ele>
        <time>2023-01-03T13:42:50.156Z</time>
      </trkpt>
      <trkpt lat="43.65693" lon="1.22162">
        <ele>232.476337</ele>
        <time>2023-01-03T13:53:01.173Z</time>
      </trkpt>
      <trkpt lat="43.65684" lon="1.22154">
        <ele>232.702575</ele>
        <time>2023-01-03T13:53:05.170Z</time>
      </trkpt>
      <trkpt lat="43.65675" lon="1.22146">
        <ele>232.961118</ele>
        <time>2023-01-03T13:53:09.162Z</time>
      </trkpt>
      <trkpt lat="43.65666" lon="1.22138">
        <ele>233.229912</ele>
        <time>2023-01-03T13:53:13.183Z</time>
      </trkpt>
      <trkpt lat="43.65656" lon="1.22131">
        <ele>233.471041</ele>
        <time>2023-01-03T13:53:16.154Z</time>
      </trkpt>
      <trkpt lat="43.65648" lon="1.22125">
        <ele>233.696495</ele>
        <time>2023-01-03T13:53:19.169Z</time>
      </trkpt>
      <trkpt lat="43.65639" lon="1.22119">
        <ele>233.922739</ele>
        <time>2023-01-03T13:53:22.178Z</time>
      </trkpt>
      <trkpt lat="43.65631" lon="1.22113">
        <ele>234.146526</ele>
        <time>2023-01-03T13:53:25.166Z</time>
      </trkpt>
      <trkpt lat="43.65621" lon="1.22104">
        <ele>234.429306</ele>
        <time>2023-01-03T13:53:29.153Z</time>
      </trkpt>
      <trkpt lat="43.65612" lon="1.22097">
        <ele>234.661979</ele>
        <time>2023-01-03T13:53:32.169Z</time>
      </trkpt>
      <trkpt lat="43.65603" lon="1.22089">
        <ele>234.92856</ele>
        <time>2023-01-03T13:53:35.189Z</time>
      </trkpt>
      <trkpt lat="43.65592" lon="1.22082">
        <ele>235.205489</ele>
        <time>2023-01-03T13:53:38.174Z</time>
      </trkpt>
      <trkpt lat="43.65582" lon="1.22074">
        <ele>235.479077</ele>
        <time>2023-01-03T13:53:41.169Z</time>
      </trkpt>
      <trkpt lat="43.65572" lon="1.22067">
        <ele>235.753927</ele>
        <time>2023-01-03T13:53:44.176Z</time>
      </trkpt>
      <trkpt lat="43.65561" lon="1.22059">
        <ele>236.038692</ele>
        <time>2023-01-03T13:53:47.175Z</time>
      </trkpt>
      <trkpt lat="43.6555" lon="1.22051">
        <ele>236.32093</ele>
        <time>2023-01-03T13:53:50.174Z</time>
      </trkpt>
      <trkpt lat="43.6554" lon="1.22043">
        <ele>236.596168</ele>
        <time>2023-01-03T13:53:53.164Z</time>
      </trkpt>
      <trkpt lat="43.65529" lon="1.22035">
        <ele>236.904409</ele>
        <time>2023-01-03T13:53:56.175Z</time>
      </trkpt>
      <trkpt lat="43.65518" lon="1.22027">
        <ele>237.234266</ele>
        <time>2023-01-03T13:53:59.154Z</time>
      </trkpt>
      <trkpt lat="43.65507" lon="1.22019">
        <ele>237.565003</ele>
        <time>2023-01-03T13:54:02.175Z</time>
      </trkpt>
      <trkpt lat="43.65496" lon="1.22011">
        <ele>237.893793</ele>
        <time>2023-01-03T13:54:05.173Z</time>
      </trkpt>
      <trkpt lat="43.65485" lon="1.22002">
        <ele>238.232492</ele>
        <time>2023-01-03T13:54:08.172Z</time>
      </trkpt>
      <trkpt lat="43.65474" lon="1.21993">
        <ele>238.573815</ele>
        <time>2023-01-03T13:54:11.182Z</time>
      </trkpt>
      <trkpt lat="43.65465" lon="1.21988">
        <ele>238.818853</ele>
        <time>2023-01-03T13:54:13.174Z</time>
      </trkpt>
      <trkpt lat="43.65453" lon="1.21979">
        <ele>239.179204</ele>
        <time>2023-01-03T13:54:16.173Z</time>
      </trkpt>
      <trkpt lat="43.65442" lon="1.21971">
        <ele>239.522567</ele>
        <time>2023-01-03T13:54:19.158Z</time>
      </trkpt>
      <trkpt lat="43.6543" lon="1.21962">
        <ele>239.876866</ele>
        <time>2023-01-03T13:54:22.162Z</time>
      </trkpt>
      <trkpt lat="43.65421" lon="1.21956">
        <ele>240.138421</ele>
        <time>2023-01-03T13:54:24.161Z</time>
      </trkpt>
      <trkpt lat="43.65413" lon="1.2195">
        <ele>240.393702</ele>
        <time>2023-01-03T13:54:26.170Z</time>
      </trkpt>
      <trkpt lat="43.65404" lon="1.21944">
        <ele>240.636888</ele>
        <time>2023-01-03T13:54:28.190Z</time>
      </trkpt>
      <trkpt lat="43.65396" lon="1.21938">
        <ele>240.88339</ele>
        <time>2023-01-03T13:54:30.170Z</time>
      </trkpt>
      <trkpt lat="43.65384" lon="1.21929">
        <ele>241.2414</ele>
        <time>2023-01-03T13:54:33.171Z</time>
      </trkpt>
      <trkpt lat="43.65372" lon="1.21921">
        <ele>241.538928</ele>
        <time>2023-01-03T13:54:36.179Z</time>
      </trkpt>
      <trkpt lat="43.65361" lon="1.21913">
        <ele>241.658288</ele>
        <time>2023-01-03T13:54:39.159Z</time>
      </trkpt>
      <trkpt lat="43.6535" lon="1.21903">
        <ele>241.782847</ele>
        <time>2023-01-03T13:54:42.169Z</time>
      </trkpt>
      <trkpt lat="43.65339" lon="1.21895">
        <ele>241.898063</ele>
        <time>2023-01-03T13:54:45.159Z</time>
      </trkpt>
      <trkpt lat="43.65327" lon="1.21887">
        <ele>242.022124</ele>
        <time>2023-01-03T13:54:48.175Z</time>
      </trkpt>
      <trkpt lat="43.65317" lon="1.21879">
        <ele>242.14099</ele>
        <time>2023-01-03T13:54:51.176Z</time>
      </trkpt>
      <trkpt lat="43.65305" lon="1.21871">
        <ele>242.264067</ele>
        <time>2023-01-03T13:54:54.180Z</time>
      </trkpt>
      <trkpt lat="43.65294" lon="1.21863">
        <ele>242.382024</ele>
        <time>2023-01-03T13:54:57.182Z</time>
      </trkpt>
      <trkpt lat="43.65284" lon="1.21857">
        <ele>242.481547</ele>
        <time>2023-01-03T13:55:00.170Z</time>
      </trkpt>
      <trkpt lat="43.65276" lon="1.21851">
        <ele>242.571838</ele>
        <time>2023-01-03T13:55:03.152Z</time>
      </trkpt>
      <trkpt lat="43.65268" lon="1.21844">
        <ele>242.658624</ele>
        <time>2023-01-03T13:55:06.162Z</time>
      </trkpt>
      <trkpt lat="43.65259" lon="1.21838">
        <ele>242.754383</ele>
        <time>2023-01-03T13:55:09.164Z</time>
      </trkpt>
      <trkpt lat="43.6525" lon="1.21832">
        <ele>242.845033</ele>
        <time>2023-01-03T13:55:12.161Z</time>
      </trkpt>
      <trkpt lat="43.65242" lon="1.21826">
        <ele>242.932643</ele>
        <time>2023-01-03T13:55:15.171Z</time>
      </trkpt>
      <trkpt lat="43.65233" lon="1.21819">
        <ele>243.035608</ele>
        <time>2023-01-03T13:55:18.158Z</time>
      </trkpt>
      <trkpt lat="43.65224" lon="1.21812">
        <ele>243.129035</ele>
        <time>2023-01-03T13:55:21.177Z</time>
      </trkpt>
      <trkpt lat="43.65216" lon="1.21805">
        <ele>243.22831</ele>
        <time>2023-01-03T13:55:24.173Z</time>
      </trkpt>
      <trkpt lat="43.65208" lon="1.218">
        <ele>243.525995</ele>
        <time>2023-01-03T13:55:27.157Z</time>
      </trkpt>
      <trkpt lat="43.652" lon="1.21793">
        <ele>243.821489</ele>
        <time>2023-01-03T13:55:30.152Z</time>
      </trkpt>
      <trkpt lat="43.65191" lon="1.21786">
        <ele>244.165858</ele>
        <time>2023-01-03T13:55:34.174Z</time>
      </trkpt>
      <trkpt lat="43.65181" lon="1.21779">
        <ele>244.525159</ele>
        <time>2023-01-03T13:55:38.179Z</time>
      </trkpt>
      <trkpt lat="43.65171" lon="1.21772">
        <ele>244.882801</ele>
        <time>2023-01-03T13:55:42.170Z</time>
      </trkpt>
      <trkpt lat="43.65162" lon="1.21764">
        <ele>245.217787</ele>
        <time>2023-01-03T13:55:46.162Z</time>
      </trkpt>
      <trkpt lat="43.65153" lon="1.21756">
        <ele>245.539564</ele>
        <time>2023-01-03T13:55:50.163Z</time>
      </trkpt>
      <trkpt lat="43.65145" lon="1.21749">
        <ele>245.853629</ele>
        <time>2023-01-03T13:55:54.168Z</time>
      </trkpt>
      <trkpt lat="43.65138" lon="1.21741">
        <ele>246.146065</ele>
        <time>2023-01-03T13:55:58.164Z</time>
      </trkpt>
      <trkpt lat="43.65128" lon="1.21734">
        <ele>246.496467</ele>
        <time>2023-01-03T13:56:02.178Z</time>
      </trkpt>
      <trkpt lat="43.65118" lon="1.21727">
        <ele>246.851235</ele>
        <time>2023-01-03T13:56:06.173Z</time>
      </trkpt>
      <trkpt lat="43.65109" lon="1.2172">
        <ele>247.19882</ele>
        <time>2023-01-03T13:56:10.161Z</time>
      </trkpt>
      <trkpt lat="43.65099" lon="1.21713">
        <ele>247.553587</ele>
        <time>2023-01-03T13:56:14.170Z</time>
      </trkpt>
      <trkpt lat="43.6509" lon="1.21707">
        <ele>247.884491</ele>
        <time>2023-01-03T13:56:18.180Z</time>
      </trkpt>
      <trkpt lat="43.65081" lon="1.21701">
        <ele>248.195213</ele>
        <time>2023-01-03T13:56:22.172Z</time>
      </trkpt>
      <trkpt lat="43.65072" lon="1.21694">
        <ele>248.526117</ele>
        <time>2023-01-03T13:56:26.183Z</time>
      </trkpt>
      <trkpt lat="43.65062" lon="1.21688">
        <ele>248.850888</ele>
        <time>2023-01-03T13:56:30.170Z</time>
      </trkpt>
      <trkpt lat="43.65053" lon="1.21682">
        <ele>249.159606</ele>
        <time>2023-01-03T13:56:34.160Z</time>
      </trkpt>
      <trkpt lat="43.65044" lon="1.21675">
        <ele>249.438322</ele>
        <time>2023-01-03T13:56:38.170Z</time>
      </trkpt>
      <trkpt lat="43.65035" lon="1.21669">
        <ele>249.717918</ele>
        <time>2023-01-03T13:56:42.151Z</time>
      </trkpt>
      <trkpt lat="43.65026" lon="1.21664">
        <ele>249.97489</ele>
        <time>2023-01-03T13:56:46.153Z</time>
      </trkpt>
      <trkpt lat="43.65016" lon="1.21657">
        <ele>250.287085</ele>
        <time>2023-01-03T13:56:50.181Z</time>
      </trkpt>
      <trkpt lat="43.65005" lon="1.21652">
        <ele>250.619765</ele>
        <time>2023-01-03T13:56:54.167Z</time>
      </trkpt>
      <trkpt lat="43.64994" lon="1.21648">
        <ele>250.926312</ele>
        <time>2023-01-03T13:56:58.179Z</time>
      </trkpt>
      <trkpt lat="43.64985" lon="1.21644">
        <ele>251.17531</ele>
        <time>2023-01-03T13:57:01.180Z</time>
      </trkpt>
      <trkpt lat="43.64974" lon="1.21642">
        <ele>251.508685</ele>
        <time>2023-01-03T13:57:05.167Z</time>
      </trkpt>
      <trkpt lat="43.64964" lon="1.2164">
        <ele>251.781729</ele>
        <time>2023-01-03T13:57:08.153Z</time>
      </trkpt>
      <trkpt lat="43.64954" lon="1.21639">
        <ele>252.047871</ele>
        <time>2023-01-03T13:57:11.168Z</time>
      </trkpt>
      <trkpt lat="43.64944" lon="1.21637">
        <ele>252.323658</ele>
        <time>2023-01-03T13:57:14.171Z</time>
      </trkpt>
      <trkpt lat="43.64935" lon="1.21636">
        <ele>252.574263</ele>
        <time>2023-01-03T13:57:17.180Z</time>
      </trkpt>
      <trkpt lat="43.64923" lon="1.21633">
        <ele>252.907968</ele>
        <time>2023-01-03T13:57:21.182Z</time>
      </trkpt>
      <trkpt lat="43.64914" lon="1.21635">
        <ele>253.166079</ele>
        <time>2023-01-03T13:57:24.163Z</time>
      </trkpt>
      <trkpt lat="43.64903" lon="1.21635">
        <ele>253.462046</ele>
        <time>2023-01-03T13:57:27.156Z</time>
      </trkpt>
      <trkpt lat="43.64893" lon="1.21634">
        <ele>253.755414</ele>
        <time>2023-01-03T13:57:30.168Z</time>
      </trkpt>
      <trkpt lat="43.64882" lon="1.21633">
        <ele>254.044895</ele>
        <time>2023-01-03T13:57:33.176Z</time>
      </trkpt>
      <trkpt lat="43.64872" lon="1.21631">
        <ele>254.341022</ele>
        <time>2023-01-03T13:57:36.180Z</time>
      </trkpt>
      <trkpt lat="43.64861" lon="1.21632">
        <ele>254.633233</ele>
        <time>2023-01-03T13:57:39.161Z</time>
      </trkpt>
      <trkpt lat="43.6485" lon="1.21632">
        <ele>254.919904</ele>
        <time>2023-01-03T13:57:42.158Z</time>
      </trkpt>
      <trkpt lat="43.64839" lon="1.2163">
        <ele>255.224372</ele>
        <time>2023-01-03T13:57:45.169Z</time>
      </trkpt>
      <trkpt lat="43.64828" lon="1.21629">
        <ele>255.533165</ele>
        <time>2023-01-03T13:57:48.179Z</time>
      </trkpt>
      <trkpt lat="43.64817" lon="1.21629">
        <ele>255.83902</ele>
        <time>2023-01-03T13:57:51.175Z</time>
      </trkpt>
      <trkpt lat="43.64806" lon="1.21629">
        <ele>256.144831</ele>
        <time>2023-01-03T13:57:54.174Z</time>
      </trkpt>
      <trkpt lat="43.64795" lon="1.21628">
        <ele>256.437262</ele>
        <time>2023-01-03T13:57:58.171Z</time>
      </trkpt>
      <trkpt lat="43.64786" lon="1.21627">
        <ele>256.684097</ele>
        <time>2023-01-03T13:58:01.153Z</time>
      </trkpt>
      <trkpt lat="43.64776" lon="1.21626">
        <ele>256.949637</ele>
        <time>2023-01-03T13:58:04.172Z</time>
      </trkpt>
      <trkpt lat="43.64765" lon="1.21625">
        <ele>257.252821</ele>
        <time>2023-01-03T13:58:07.179Z</time>
      </trkpt>
      <trkpt lat="43.64754" lon="1.21625">
        <ele>257.547761</ele>
        <time>2023-01-03T13:58:10.182Z</time>
      </trkpt>
      <trkpt lat="43.64743" lon="1.21624">
        <ele>257.853826</ele>
        <time>2023-01-03T13:58:13.172Z</time>
      </trkpt>
      <trkpt lat="43.64733" lon="1.21623">
        <ele>258.135454</ele>
        <time>2023-01-03T13:58:16.175Z</time>
      </trkpt>
      <trkpt lat="43.64721" lon="1.21623">
        <ele>258.452225</ele>
        <time>2023-01-03T13:58:19.177Z</time>
      </trkpt>
      <trkpt lat="43.6471" lon="1.21622">
        <ele>258.752837</ele>
        <time>2023-01-03T13:58:22.171Z</time>
      </trkpt>
      <trkpt lat="43.64699" lon="1.21622">
        <ele>258.843852</ele>
        <time>2023-01-03T13:58:25.171Z</time>
      </trkpt>
      <trkpt lat="43.64688" lon="1.21621">
        <ele>258.852384</ele>
        <time>2023-01-03T13:58:28.177Z</time>
      </trkpt>
      <trkpt lat="43.64676" lon="1.2162">
        <ele>258.86099</ele>
        <time>2023-01-03T13:58:31.159Z</time>
      </trkpt>
      <trkpt lat="43.64664" lon="1.2162">
        <ele>258.869081</ele>
        <time>2023-01-03T13:58:34.173Z</time>
      </trkpt>
      <trkpt lat="43.64653" lon="1.21619">
        <ele>258.87739</ele>
        <time>2023-01-03T13:58:37.173Z</time>
      </trkpt>
      <trkpt lat="43.64643" lon="1.21619">
        <ele>258.884539</ele>
        <time>2023-01-03T13:58:40.169Z</time>
      </trkpt>
      <trkpt lat="43.64633" lon="1.21619">
        <ele>258.891554</ele>
        <time>2023-01-03T13:58:43.173Z</time>
      </trkpt>
      <trkpt lat="43.64624" lon="1.21618">
        <ele>258.898636</ele>
        <time>2023-01-03T13:58:46.174Z</time>
      </trkpt>
      <trkpt lat="43.64614" lon="1.21617">
        <ele>258.905653</ele>
        <time>2023-01-03T13:58:49.150Z</time>
      </trkpt>
      <trkpt lat="43.64605" lon="1.21614">
        <ele>258.912198</ele>
        <time>2023-01-03T13:58:52.152Z</time>
      </trkpt>
      <trkpt lat="43.64595" lon="1.2161">
        <ele>258.919771</ele>
        <time>2023-01-03T13:58:56.169Z</time>
      </trkpt>
      <trkpt lat="43.64586" lon="1.21609">
        <ele>258.926275</ele>
        <time>2023-01-03T13:59:00.167Z</time>
      </trkpt>
      <trkpt lat="43.64577" lon="1.21616">
        <ele>258.93398</ele>
        <time>2023-01-03T13:59:04.153Z</time>
      </trkpt>
      <trkpt lat="43.6457" lon="1.21627">
        <ele>258.941565</ele>
        <time>2023-01-03T13:59:07.160Z</time>
      </trkpt>
      <trkpt lat="43.64561" lon="1.21637">
        <ele>258.949941</ele>
        <time>2023-01-03T13:59:10.155Z</time>
      </trkpt>
      <trkpt lat="43.6455" lon="1.2165">
        <ele>258.96008</ele>
        <time>2023-01-03T13:59:13.173Z</time>
      </trkpt>
      <trkpt lat="43.64543" lon="1.21659">
        <ele>258.966925</ele>
        <time>2023-01-03T13:59:15.157Z</time>
      </trkpt>
      <trkpt lat="43.64537" lon="1.21668">
        <ele>258.862608</ele>
        <time>2023-01-03T13:59:17.184Z</time>
      </trkpt>
      <trkpt lat="43.6453" lon="1.21678">
        <ele>258.728641</ele>
        <time>2023-01-03T13:59:19.158Z</time>
      </trkpt>
      <trkpt lat="43.64523" lon="1.21689">
        <ele>258.582056</ele>
        <time>2023-01-03T13:59:21.170Z</time>
      </trkpt>
      <trkpt lat="43.64515" lon="1.21699">
        <ele>258.43928</ele>
        <time>2023-01-03T13:59:23.181Z</time>
      </trkpt>
      <trkpt lat="43.64507" lon="1.21709">
        <ele>258.285531</ele>
        <time>2023-01-03T13:59:25.158Z</time>
      </trkpt>
      <trkpt lat="43.645" lon="1.2172">
        <ele>258.142046</ele>
        <time>2023-01-03T13:59:27.173Z</time>
      </trkpt>
      <trkpt lat="43.64493" lon="1.21729">
        <ele>258.007806</ele>
        <time>2023-01-03T13:59:29.163Z</time>
      </trkpt>
      <trkpt lat="43.64487" lon="1.21738">
        <ele>257.882467</ele>
        <time>2023-01-03T13:59:31.175Z</time>
      </trkpt>
      <trkpt lat="43.6448" lon="1.21748">
        <ele>257.740893</ele>
        <time>2023-01-03T13:59:33.172Z</time>
      </trkpt>
      <trkpt lat="43.64473" lon="1.21758">
        <ele>257.610541</ele>
        <time>2023-01-03T13:59:35.158Z</time>
      </trkpt>
      <trkpt lat="43.64467" lon="1.21767">
        <ele>257.482297</ele>
        <time>2023-01-03T13:59:37.173Z</time>
      </trkpt>
      <trkpt lat="43.64458" lon="1.21781">
        <ele>257.299405</ele>
        <time>2023-01-03T13:59:40.177Z</time>
      </trkpt>
      <trkpt lat="43.64451" lon="1.2179">
        <ele>257.171507</ele>
        <time>2023-01-03T13:59:42.170Z</time>
      </trkpt>
      <trkpt lat="43.64444" lon="1.218">
        <ele>257.031112</ele>
        <time>2023-01-03T13:59:44.175Z</time>
      </trkpt>
      <trkpt lat="43.64437" lon="1.21811">
        <ele>256.888066</ele>
        <time>2023-01-03T13:59:46.174Z</time>
      </trkpt>
      <trkpt lat="43.6443" lon="1.2182">
        <ele>256.754107</ele>
        <time>2023-01-03T13:59:48.171Z</time>
      </trkpt>
      <trkpt lat="43.64423" lon="1.21829">
        <ele>256.62261</ele>
        <time>2023-01-03T13:59:50.174Z</time>
      </trkpt>
      <trkpt lat="43.64416" lon="1.21839">
        <ele>256.496171</ele>
        <time>2023-01-03T13:59:52.183Z</time>
      </trkpt>
      <trkpt lat="43.64409" lon="1.21849">
        <ele>256.525369</ele>
        <time>2023-01-03T13:59:54.171Z</time>
      </trkpt>
      <trkpt lat="43.64402" lon="1.21859">
        <ele>256.554528</ele>
        <time>2023-01-03T13:59:56.155Z</time>
      </trkpt>
      <trkpt lat="43.64395" lon="1.21869">
        <ele>256.582795</ele>
        <time>2023-01-03T13:59:58.173Z</time>
      </trkpt>
      <trkpt lat="43.64388" lon="1.21879">
        <ele>256.611332</ele>
        <time>2023-01-03T14:00:00.176Z</time>
      </trkpt>
      <trkpt lat="43.64381" lon="1.21889">
        <ele>256.639303</ele>
        <time>2023-01-03T14:00:02.168Z</time>
      </trkpt>
      <trkpt lat="43.64374" lon="1.21898">
        <ele>256.667017</ele>
        <time>2023-01-03T14:00:04.168Z</time>
      </trkpt>
      <trkpt lat="43.64368" lon="1.21908">
        <ele>256.694787</ele>
        <time>2023-01-03T14:00:06.176Z</time>
      </trkpt>
      <trkpt lat="43.64358" lon="1.21922">
        <ele>256.733396</ele>
        <time>2023-01-03T14:00:09.162Z</time>
      </trkpt>
      <trkpt lat="43.64352" lon="1.21932">
        <ele>256.761662</ele>
        <time>2023-01-03T14:00:11.178Z</time>
      </trkpt>
      <trkpt lat="43.64345" lon="1.21941">
        <ele>256.788095</ele>
        <time>2023-01-03T14:00:13.158Z</time>
      </trkpt>
      <trkpt lat="43.64336" lon="1.21954">
        <ele>256.82482</ele>
        <time>2023-01-03T14:00:16.171Z</time>
      </trkpt>
      <trkpt lat="43.6433" lon="1.21963">
        <ele>256.851597</ele>
        <time>2023-01-03T14:00:18.167Z</time>
      </trkpt>
      <trkpt lat="43.64323" lon="1.21973">
        <ele>256.880103</ele>
        <time>2023-01-03T14:00:20.170Z</time>
      </trkpt>
      <trkpt lat="43.64317" lon="1.21983">
        <ele>256.906744</ele>
        <time>2023-01-03T14:00:22.176Z</time>
      </trkpt>
      <trkpt lat="43.64308" lon="1.21997">
        <ele>256.945344</ele>
        <time>2023-01-03T14:00:25.180Z</time>
      </trkpt>
      <trkpt lat="43.64301" lon="1.22007">
        <ele>256.973899</ele>
        <time>2023-01-03T14:00:27.171Z</time>
      </trkpt>
      <trkpt lat="43.64294" lon="1.22016">
        <ele>257.001583</ele>
        <time>2023-01-03T14:00:29.165Z</time>
      </trkpt>
      <trkpt lat="43.64284" lon="1.22029">
        <ele>257.011933</ele>
        <time>2023-01-03T14:00:32.175Z</time>
      </trkpt>
      <trkpt lat="43.64277" lon="1.22039">
        <ele>257.01568</ele>
        <time>2023-01-03T14:00:34.172Z</time>
      </trkpt>
      <trkpt lat="43.64268" lon="1.22052">
        <ele>257.02109</ele>
        <time>2023-01-03T14:00:37.167Z</time>
      </trkpt>
      <trkpt lat="43.6426" lon="1.22065">
        <ele>257.02582</ele>
        <time>2023-01-03T14:00:40.171Z</time>
      </trkpt>
      <trkpt lat="43.64251" lon="1.22078">
        <ele>257.031031</ele>
        <time>2023-01-03T14:00:43.175Z</time>
      </trkpt>
      <trkpt lat="43.64242" lon="1.22091">
        <ele>257.036236</ele>
        <time>2023-01-03T14:00:46.170Z</time>
      </trkpt>
      <trkpt lat="43.64233" lon="1.22104">
        <ele>257.04153</ele>
        <time>2023-01-03T14:00:49.169Z</time>
      </trkpt>
      <trkpt lat="43.64224" lon="1.22118">
        <ele>257.046901</ele>
        <time>2023-01-03T14:00:52.178Z</time>
      </trkpt>
      <trkpt lat="43.64215" lon="1.2213">
        <ele>257.051969</ele>
        <time>2023-01-03T14:00:55.170Z</time>
      </trkpt>
      <trkpt lat="43.64206" lon="1.22142">
        <ele>257.056896</ele>
        <time>2023-01-03T14:00:58.174Z</time>
      </trkpt>
      <trkpt lat="43.64198" lon="1.22153">
        <ele>257.06125</ele>
        <time>2023-01-03T14:01:01.174Z</time>
      </trkpt>
      <trkpt lat="43.64191" lon="1.22163">
        <ele>257.065308</ele>
        <time>2023-01-03T14:01:04.168Z</time>
      </trkpt>
      <trkpt lat="43.64184" lon="1.22173">
        <ele>257.069342</ele>
        <time>2023-01-03T14:01:07.181Z</time>
      </trkpt>
      <trkpt lat="43.64177" lon="1.22182">
        <ele>257.073125</ele>
        <time>2023-01-03T14:01:10.182Z</time>
      </trkpt>
      <trkpt lat="43.6417" lon="1.2219">
        <ele>257.076736</ele>
        <time>2023-01-03T14:01:13.153Z</time>
      </trkpt>
      <trkpt lat="43.64164" lon="1.22201">
        <ele>257.045858</ele>
        <time>2023-01-03T14:01:17.171Z</time>
      </trkpt>
      <trkpt lat="43.64158" lon="1.22211">
        <ele>256.988496</ele>
        <time>2023-01-03T14:01:20.179Z</time>
      </trkpt>
      <trkpt lat="43.64151" lon="1.22222">
        <ele>256.919856</ele>
        <time>2023-01-03T14:01:23.169Z</time>
      </trkpt>
      <trkpt lat="43.64142" lon="1.22234">
        <ele>256.844655</ele>
        <time>2023-01-03T14:01:26.174Z</time>
      </trkpt>
      <trkpt lat="43.64134" lon="1.22245">
        <ele>256.769518</ele>
        <time>2023-01-03T14:01:29.170Z</time>
      </trkpt>
      <trkpt lat="43.64126" lon="1.22256">
        <ele>256.697418</ele>
        <time>2023-01-03T14:01:32.153Z</time>
      </trkpt>
      <trkpt lat="43.64118" lon="1.22268">
        <ele>256.624171</ele>
        <time>2023-01-03T14:01:35.169Z</time>
      </trkpt>
      <trkpt lat="43.64109" lon="1.22281">
        <ele>256.540348</ele>
        <time>2023-01-03T14:01:38.172Z</time>
      </trkpt>
      <trkpt lat="43.64103" lon="1.2229">
        <ele>256.481285</ele>
        <time>2023-01-03T14:01:40.170Z</time>
      </trkpt>
      <trkpt lat="43.64094" lon="1.22303">
        <ele>256.398115</ele>
        <time>2023-01-03T14:01:43.170Z</time>
      </trkpt>
      <trkpt lat="43.64086" lon="1.22314">
        <ele>256.331206</ele>
        <time>2023-01-03T14:01:46.153Z</time>
      </trkpt>
      <trkpt lat="43.64096" lon="1.2231">
        <ele>256.270512</ele>
        <time>2023-01-03T14:01:58.159Z</time>
      </trkpt>
      <trkpt lat="43.64104" lon="1.22298">
        <ele>256.193818</ele>
        <time>2023-01-03T14:02:02.172Z</time>
      </trkpt>
      <trkpt lat="43.64112" lon="1.22288">
        <ele>256.124311</ele>
        <time>2023-01-03T14:02:05.170Z</time>
      </trkpt>
      <trkpt lat="43.6412" lon="1.22276">
        <ele>256.05163</ele>
        <time>2023-01-03T14:02:08.156Z</time>
      </trkpt>
      <trkpt lat="43.64128" lon="1.22264">
        <ele>255.976876</ele>
        <time>2023-01-03T14:02:11.175Z</time>
      </trkpt>
      <trkpt lat="43.64136" lon="1.22252">
        <ele>255.936082</ele>
        <time>2023-01-03T14:02:14.172Z</time>
      </trkpt>
      <trkpt lat="43.64144" lon="1.2224">
        <ele>255.943095</ele>
        <time>2023-01-03T14:02:17.171Z</time>
      </trkpt>
      <trkpt lat="43.64152" lon="1.22229">
        <ele>255.949746</ele>
        <time>2023-01-03T14:02:20.153Z</time>
      </trkpt>
      <trkpt lat="43.64159" lon="1.22219">
        <ele>255.955704</ele>
        <time>2023-01-03T14:02:23.167Z</time>
      </trkpt>
      <trkpt lat="43.64166" lon="1.22211">
        <ele>255.961301</ele>
        <time>2023-01-03T14:02:26.168Z</time>
      </trkpt>
      <trkpt lat="43.64177" lon="1.22212">
        <ele>255.96795</ele>
        <time>2023-01-03T14:02:30.159Z</time>
      </trkpt>
      <trkpt lat="43.64184" lon="1.22224">
        <ele>255.974776</ele>
        <time>2023-01-03T14:02:34.161Z</time>
      </trkpt>
      <trkpt lat="43.64181" lon="1.22239">
        <ele>255.981467</ele>
        <time>2023-01-03T14:02:38.167Z</time>
      </trkpt>
      <trkpt lat="43.64172" lon="1.2225">
        <ele>255.988478</ele>
        <time>2023-01-03T14:02:42.164Z</time>
      </trkpt>
      <trkpt lat="43.64165" lon="1.22261">
        <ele>255.994579</ele>
        <time>2023-01-03T14:02:46.154Z</time>
      </trkpt>
      <trkpt lat="43.64165" lon="1.22274">
        <ele>256.000404</ele>
        <time>2023-01-03T14:02:50.164Z</time>
      </trkpt>
      <trkpt lat="43.6417" lon="1.22285">
        <ele>256.006168</ele>
        <time>2023-01-03T14:02:54.162Z</time>
      </trkpt>
      <trkpt lat="43.64178" lon="1.22294">
        <ele>256.012026</ele>
        <time>2023-01-03T14:02:57.161Z</time>
      </trkpt>
      <trkpt lat="43.64183" lon="1.22305">
        <ele>256.017684</ele>
        <time>2023-01-03T14:03:00.161Z</time>
      </trkpt>
      <trkpt lat="43.64189" lon="1.22317">
        <ele>256.023868</ele>
        <time>2023-01-03T14:03:03.170Z</time>
      </trkpt>
      <trkpt lat="43.64196" lon="1.22327">
        <ele>256.029748</ele>
        <time>2023-01-03T14:03:06.171Z</time>
      </trkpt>
      <trkpt lat="43.64201" lon="1.22338">
        <ele>256.035584</ele>
        <time>2023-01-03T14:03:09.153Z</time>
      </trkpt>
      <trkpt lat="43.64208" lon="1.22348">
        <ele>256.014442</ele>
        <time>2023-01-03T14:03:12.171Z</time>
      </trkpt>
      <trkpt lat="43.64214" lon="1.22359">
        <ele>255.887793</ele>
        <time>2023-01-03T14:03:15.174Z</time>
      </trkpt>
      <trkpt lat="43.64221" lon="1.22368">
        <ele>255.762281</ele>
        <time>2023-01-03T14:03:18.149Z</time>
      </trkpt>
      <trkpt lat="43.64229" lon="1.22381">
        <ele>255.607696</ele>
        <time>2023-01-03T14:03:22.165Z</time>
      </trkpt>
      <trkpt lat="43.64236" lon="1.22389">
        <ele>255.489304</ele>
        <time>2023-01-03T14:03:25.172Z</time>
      </trkpt>
      <trkpt lat="43.64243" lon="1.22401">
        <ele>255.341273</ele>
        <time>2023-01-03T14:03:29.168Z</time>
      </trkpt>
      <trkpt lat="43.64251" lon="1.2241">
        <ele>255.211971</ele>
        <time>2023-01-03T14:03:32.172Z</time>
      </trkpt>
      <trkpt lat="43.64256" lon="1.22422">
        <ele>255.082987</ele>
        <time>2023-01-03T14:03:35.161Z</time>
      </trkpt>
      <trkpt lat="43.64263" lon="1.22433">
        <ele>254.950474</ele>
        <time>2023-01-03T14:03:38.155Z</time>
      </trkpt>
      <trkpt lat="43.64268" lon="1.22443">
        <ele>254.828276</ele>
        <time>2023-01-03T14:03:41.168Z</time>
      </trkpt>
      <trkpt lat="43.64274" lon="1.22453">
        <ele>254.711478</ele>
        <time>2023-01-03T14:03:44.174Z</time>
      </trkpt>
      <trkpt lat="43.64283" lon="1.22461">
        <ele>254.578709</ele>
        <time>2023-01-03T14:03:48.163Z</time>
      </trkpt>
      <trkpt lat="43.64294" lon="1.22462">
        <ele>254.438026</ele>
        <time>2023-01-03T14:03:53.164Z</time>
      </trkpt>
      <trkpt lat="43.64302" lon="1.22454">
        <ele>254.308911</ele>
        <time>2023-01-03T14:03:57.153Z</time>
      </trkpt>
      <trkpt lat="43.64309" lon="1.22443">
        <ele>254.173997</ele>
        <time>2023-01-03T14:04:01.163Z</time>
      </trkpt>
      <trkpt lat="43.64317" lon="1.22436">
        <ele>254.05498</ele>
        <time>2023-01-03T14:04:05.170Z</time>
      </trkpt>
      <trkpt lat="43.64327" lon="1.22441">
        <ele>253.91212</ele>
        <time>2023-01-03T14:04:10.161Z</time>
      </trkpt>
      <trkpt lat="43.64333" lon="1.22453">
        <ele>253.777904</ele>
        <time>2023-01-03T14:04:14.168Z</time>
      </trkpt>
      <trkpt lat="43.6434" lon="1.22466">
        <ele>253.695379</ele>
        <time>2023-01-03T14:04:18.152Z</time>
      </trkpt>
      <trkpt lat="43.64347" lon="1.22477">
        <ele>253.652078</ele>
        <time>2023-01-03T14:04:22.170Z</time>
      </trkpt>
      <trkpt lat="43.64354" lon="1.22491">
        <ele>253.603603</ele>
        <time>2023-01-03T14:04:26.167Z</time>
      </trkpt>
      <trkpt lat="43.6436" lon="1.22502">
        <ele>253.564095</ele>
        <time>2023-01-03T14:04:29.151Z</time>
      </trkpt>
      <trkpt lat="43.64365" lon="1.22512">
        <ele>253.527198</ele>
        <time>2023-01-03T14:04:32.167Z</time>
      </trkpt>
      <trkpt lat="43.64372" lon="1.22522">
        <ele>253.485943</ele>
        <time>2023-01-03T14:04:35.154Z</time>
      </trkpt>
      <trkpt lat="43.6438" lon="1.22533">
        <ele>253.44231</ele>
        <time>2023-01-03T14:04:38.181Z</time>
      </trkpt>
      <trkpt lat="43.64387" lon="1.22544">
        <ele>253.398963</ele>
        <time>2023-01-03T14:04:41.163Z</time>
      </trkpt>
      <trkpt lat="43.64394" lon="1.22555">
        <ele>253.35778</ele>
        <time>2023-01-03T14:04:44.172Z</time>
      </trkpt>
      <trkpt lat="43.644" lon="1.22564">
        <ele>253.319895</ele>
        <time>2023-01-03T14:04:47.169Z</time>
      </trkpt>
      <trkpt lat="43.64407" lon="1.22576">
        <ele>253.27751</ele>
        <time>2023-01-03T14:04:51.179Z</time>
      </trkpt>
      <trkpt lat="43.64411" lon="1.22587">
        <ele>253.240428</ele>
        <time>2023-01-03T14:04:57.146Z</time>
      </trkpt>
      <trkpt lat="43.64405" lon="1.22575">
        <ele>253.197142</ele>
        <time>2023-01-03T14:05:13.153Z</time>
      </trkpt>
      <trkpt lat="43.64398" lon="1.22565">
        <ele>253.158913</ele>
        <time>2023-01-03T14:05:17.149Z</time>
      </trkpt>
      <trkpt lat="43.64391" lon="1.22555">
        <ele>253.117181</ele>
        <time>2023-01-03T14:05:21.175Z</time>
      </trkpt>
      <trkpt lat="43.64384" lon="1.22544">
        <ele>253.076144</ele>
        <time>2023-01-03T14:05:25.152Z</time>
      </trkpt>
      <trkpt lat="43.64379" lon="1.22532">
        <ele>253.033265</ele>
        <time>2023-01-03T14:05:29.169Z</time>
      </trkpt>
      <trkpt lat="43.64372" lon="1.22519">
        <ele>253.008125</ele>
        <time>2023-01-03T14:05:33.169Z</time>
      </trkpt>
      <trkpt lat="43.64366" lon="1.22507">
        <ele>253.029075</ele>
        <time>2023-01-03T14:05:37.170Z</time>
      </trkpt>
      <trkpt lat="43.64359" lon="1.22496">
        <ele>253.048321</ele>
        <time>2023-01-03T14:05:41.170Z</time>
      </trkpt>
      <trkpt lat="43.64353" lon="1.22485">
        <ele>253.068151</ele>
        <time>2023-01-03T14:05:45.168Z</time>
      </trkpt>
      <trkpt lat="43.64345" lon="1.22477">
        <ele>253.086341</ele>
        <time>2023-01-03T14:05:48.157Z</time>
      </trkpt>
      <trkpt lat="43.64338" lon="1.22466">
        <ele>253.105446</ele>
        <time>2023-01-03T14:05:52.164Z</time>
      </trkpt>
      <trkpt lat="43.64331" lon="1.22455">
        <ele>253.126058</ele>
        <time>2023-01-03T14:05:56.157Z</time>
      </trkpt>
      <trkpt lat="43.64325" lon="1.22443">
        <ele>253.146031</ele>
        <time>2023-01-03T14:06:00.170Z</time>
      </trkpt>
      <trkpt lat="43.64317" lon="1.22433">
        <ele>253.16684</ele>
        <time>2023-01-03T14:06:05.161Z</time>
      </trkpt>
      <trkpt lat="43.64312" lon="1.22422">
        <ele>253.184235</ele>
        <time>2023-01-03T14:06:11.153Z</time>
      </trkpt>
      <trkpt lat="43.64312" lon="1.22437">
        <ele>253.204748</ele>
        <time>2023-01-03T14:06:20.159Z</time>
      </trkpt>
      <trkpt lat="43.64305" lon="1.22448">
        <ele>253.223707</ele>
        <time>2023-01-03T14:06:22.160Z</time>
      </trkpt>
      <trkpt lat="43.64298" lon="1.2246">
        <ele>253.245207</ele>
        <time>2023-01-03T14:06:25.170Z</time>
      </trkpt>
      <trkpt lat="43.64288" lon="1.22467">
        <ele>253.265424</ele>
        <time>2023-01-03T14:06:29.151Z</time>
      </trkpt>
      <trkpt lat="43.64282" lon="1.22477">
        <ele>253.283732</ele>
        <time>2023-01-03T14:06:34.160Z</time>
      </trkpt>
      <trkpt lat="43.64272" lon="1.2248">
        <ele>253.302276</ele>
        <time>2023-01-03T14:06:38.158Z</time>
      </trkpt>
      <trkpt lat="43.64262" lon="1.22477">
        <ele>253.322353</ele>
        <time>2023-01-03T14:06:43.169Z</time>
      </trkpt>
      <trkpt lat="43.64256" lon="1.22467">
        <ele>253.33942</ele>
        <time>2023-01-03T14:06:47.156Z</time>
      </trkpt>
      <trkpt lat="43.6425" lon="1.22457">
        <ele>253.475225</ele>
        <time>2023-01-03T14:06:51.181Z</time>
      </trkpt>
      <trkpt lat="43.64244" lon="1.22445">
        <ele>253.635131</ele>
        <time>2023-01-03T14:06:55.173Z</time>
      </trkpt>
      <trkpt lat="43.64236" lon="1.22434">
        <ele>253.808748</ele>
        <time>2023-01-03T14:06:59.159Z</time>
      </trkpt>
      <trkpt lat="43.64229" lon="1.22421">
        <ele>253.990313</ele>
        <time>2023-01-03T14:07:03.155Z</time>
      </trkpt>
      <trkpt lat="43.64223" lon="1.2241">
        <ele>254.14421</ele>
        <time>2023-01-03T14:07:06.176Z</time>
      </trkpt>
      <trkpt lat="43.64216" lon="1.22399">
        <ele>254.303505</ele>
        <time>2023-01-03T14:07:09.163Z</time>
      </trkpt>
      <trkpt lat="43.64209" lon="1.22388">
        <ele>254.464948</ele>
        <time>2023-01-03T14:07:12.173Z</time>
      </trkpt>
      <trkpt lat="43.64203" lon="1.22377">
        <ele>254.620462</ele>
        <time>2023-01-03T14:07:15.148Z</time>
      </trkpt>
      <trkpt lat="43.64196" lon="1.22367">
        <ele>254.77589</ele>
        <time>2023-01-03T14:07:18.171Z</time>
      </trkpt>
      <trkpt lat="43.64189" lon="1.22357">
        <ele>254.931319</ele>
        <time>2023-01-03T14:07:21.171Z</time>
      </trkpt>
      <trkpt lat="43.64184" lon="1.22347">
        <ele>255.070616</ele>
        <time>2023-01-03T14:07:24.159Z</time>
      </trkpt>
      <trkpt lat="43.64178" lon="1.22336">
        <ele>255.223259</ele>
        <time>2023-01-03T14:07:27.173Z</time>
      </trkpt>
      <trkpt lat="43.64172" lon="1.22326">
        <ele>255.368752</ele>
        <time>2023-01-03T14:07:30.173Z</time>
      </trkpt>
      <trkpt lat="43.64166" lon="1.22315">
        <ele>255.513266</ele>
        <time>2023-01-03T14:07:33.169Z</time>
      </trkpt>
      <trkpt lat="43.64158" lon="1.22303">
        <ele>255.69539</ele>
        <time>2023-01-03T14:07:37.174Z</time>
      </trkpt>
      <trkpt lat="43.64152" lon="1.22292">
        <ele>255.852653</ele>
        <time>2023-01-03T14:07:41.162Z</time>
      </trkpt>
      <trkpt lat="43.64153" lon="1.22279">
        <ele>256.00268</ele>
        <time>2023-01-03T14:07:45.159Z</time>
      </trkpt>
      <trkpt lat="43.6416" lon="1.22268">
        <ele>256.113979</ele>
        <time>2023-01-03T14:07:49.161Z</time>
      </trkpt>
      <trkpt lat="43.64168" lon="1.22258">
        <ele>256.118671</ele>
        <time>2023-01-03T14:07:53.173Z</time>
      </trkpt>
      <trkpt lat="43.64176" lon="1.22251">
        <ele>256.122939</ele>
        <time>2023-01-03T14:07:56.162Z</time>
      </trkpt>
      <trkpt lat="43.64184" lon="1.22243">
        <ele>256.127186</ele>
        <time>2023-01-03T14:07:59.169Z</time>
      </trkpt>
      <trkpt lat="43.6419" lon="1.2223">
        <ele>256.132245</ele>
        <time>2023-01-03T14:08:03.163Z</time>
      </trkpt>
      <trkpt lat="43.64186" lon="1.22214">
        <ele>256.137401</ele>
        <time>2023-01-03T14:08:07.155Z</time>
      </trkpt>
      <trkpt lat="43.64179" lon="1.22205">
        <ele>256.141699</ele>
        <time>2023-01-03T14:08:11.171Z</time>
      </trkpt>
      <trkpt lat="43.6417" lon="1.22202">
        <ele>256.146087</ele>
        <time>2023-01-03T14:08:18.161Z</time>
      </trkpt>
      <trkpt lat="43.6416" lon="1.22212">
        <ele>256.15145</ele>
        <time>2023-01-03T14:08:22.167Z</time>
      </trkpt>
      <trkpt lat="43.64152" lon="1.22223">
        <ele>256.156641</ele>
        <time>2023-01-03T14:08:25.153Z</time>
      </trkpt>
      <trkpt lat="43.64145" lon="1.22233">
        <ele>256.160795</ele>
        <time>2023-01-03T14:08:27.156Z</time>
      </trkpt>
      <trkpt lat="43.64137" lon="1.22244">
        <ele>256.165784</ele>
        <time>2023-01-03T14:08:29.178Z</time>
      </trkpt>
      <trkpt lat="43.64131" lon="1.22255">
        <ele>256.170343</ele>
        <time>2023-01-03T14:08:31.180Z</time>
      </trkpt>
      <trkpt lat="43.64121" lon="1.22265">
        <ele>256.175547</ele>
        <time>2023-01-03T14:08:33.167Z</time>
      </trkpt>
      <trkpt lat="43.64114" lon="1.22275">
        <ele>256.180275</ele>
        <time>2023-01-03T14:08:35.174Z</time>
      </trkpt>
      <trkpt lat="43.64106" lon="1.22287">
        <ele>256.185279</ele>
        <time>2023-01-03T14:08:37.176Z</time>
      </trkpt>
      <trkpt lat="43.64098" lon="1.22298">
        <ele>256.190361</ele>
        <time>2023-01-03T14:08:39.165Z</time>
      </trkpt>
      <trkpt lat="43.64092" lon="1.22309">
        <ele>256.082719</ele>
        <time>2023-01-03T14:08:41.183Z</time>
      </trkpt>
      <trkpt lat="43.64084" lon="1.22319">
        <ele>255.87497</ele>
        <time>2023-01-03T14:08:43.175Z</time>
      </trkpt>
      <trkpt lat="43.64077" lon="1.22329">
        <ele>255.67993</ele>
        <time>2023-01-03T14:08:45.170Z</time>
      </trkpt>
      <trkpt lat="43.64071" lon="1.22339">
        <ele>255.497954</ele>
        <time>2023-01-03T14:08:47.162Z</time>
      </trkpt>
      <trkpt lat="43.64062" lon="1.2235">
        <ele>255.28037</ele>
        <time>2023-01-03T14:08:49.174Z</time>
      </trkpt>
      <trkpt lat="43.64055" lon="1.22359">
        <ele>255.085697</ele>
        <time>2023-01-03T14:08:51.174Z</time>
      </trkpt>
      <trkpt lat="43.64048" lon="1.2237">
        <ele>254.890885</ele>
        <time>2023-01-03T14:08:53.176Z</time>
      </trkpt>
      <trkpt lat="43.6404" lon="1.22382">
        <ele>254.65182</ele>
        <time>2023-01-03T14:08:55.183Z</time>
      </trkpt>
      <trkpt lat="43.64032" lon="1.22393">
        <ele>254.440975</ele>
        <time>2023-01-03T14:08:57.174Z</time>
      </trkpt>
      <trkpt lat="43.64026" lon="1.22404">
        <ele>254.257951</ele>
        <time>2023-01-03T14:08:59.153Z</time>
      </trkpt>
      <trkpt lat="43.64018" lon="1.22416">
        <ele>254.025521</ele>
        <time>2023-01-03T14:09:01.168Z</time>
      </trkpt>
      <trkpt lat="43.6401" lon="1.22427">
        <ele>253.81733</ele>
        <time>2023-01-03T14:09:03.176Z</time>
      </trkpt>
      <trkpt lat="43.64003" lon="1.22439">
        <ele>253.597131</ele>
        <time>2023-01-03T14:09:05.164Z</time>
      </trkpt>
      <trkpt lat="43.63996" lon="1.2245">
        <ele>253.391789</ele>
        <time>2023-01-03T14:09:07.172Z</time>
      </trkpt>
      <trkpt lat="43.63987" lon="1.22461">
        <ele>253.168579</ele>
        <time>2023-01-03T14:09:09.165Z</time>
      </trkpt>
      <trkpt lat="43.6398" lon="1.22471">
        <ele>252.971627</ele>
        <time>2023-01-03T14:09:11.171Z</time>
      </trkpt>
      <trkpt lat="43.63973" lon="1.22483">
        <ele>252.752757</ele>
        <time>2023-01-03T14:09:13.183Z</time>
      </trkpt>
      <trkpt lat="43.63966" lon="1.22493">
        <ele>252.83835</ele>
        <time>2023-01-03T14:09:15.171Z</time>
      </trkpt>
      <trkpt lat="43.6396" lon="1.22503">
        <ele>252.925521</ele>
        <time>2023-01-03T14:09:17.175Z</time>
      </trkpt>
      <trkpt lat="43.63953" lon="1.22514">
        <ele>253.021662</ele>
        <time>2023-01-03T14:09:19.154Z</time>
      </trkpt>
      <trkpt lat="43.63945" lon="1.22525">
        <ele>253.123162</ele>
        <time>2023-01-03T14:09:21.173Z</time>
      </trkpt>
      <trkpt lat="43.63938" lon="1.22538">
        <ele>253.229124</ele>
        <time>2023-01-03T14:09:23.166Z</time>
      </trkpt>
      <trkpt lat="43.6393" lon="1.22547">
        <ele>253.317847</ele>
        <time>2023-01-03T14:09:25.171Z</time>
      </trkpt>
      <trkpt lat="43.63922" lon="1.22559">
        <ele>253.428038</ele>
        <time>2023-01-03T14:09:27.176Z</time>
      </trkpt>
      <trkpt lat="43.63914" lon="1.22571">
        <ele>253.53059</ele>
        <time>2023-01-03T14:09:29.176Z</time>
      </trkpt>
      <trkpt lat="43.63907" lon="1.22582">
        <ele>253.626731</ele>
        <time>2023-01-03T14:09:31.172Z</time>
      </trkpt>
      <trkpt lat="43.639" lon="1.22593">
        <ele>253.722381</ele>
        <time>2023-01-03T14:09:33.177Z</time>
      </trkpt>
      <trkpt lat="43.63892" lon="1.22604">
        <ele>253.828358</ele>
        <time>2023-01-03T14:09:35.162Z</time>
      </trkpt>
      <trkpt lat="43.63883" lon="1.22613">
        <ele>253.923032</ele>
        <time>2023-01-03T14:09:37.166Z</time>
      </trkpt>
      <trkpt lat="43.63877" lon="1.22622">
        <ele>254.006855</ele>
        <time>2023-01-03T14:09:39.167Z</time>
      </trkpt>
      <trkpt lat="43.6387" lon="1.22633">
        <ele>254.104596</ele>
        <time>2023-01-03T14:09:41.171Z</time>
      </trkpt>
      <trkpt lat="43.63863" lon="1.22645">
        <ele>254.206318</ele>
        <time>2023-01-03T14:09:43.173Z</time>
      </trkpt>
      <trkpt lat="43.63853" lon="1.22656">
        <ele>254.316777</ele>
        <time>2023-01-03T14:09:46.161Z</time>
      </trkpt>
      <trkpt lat="43.63846" lon="1.22666">
        <ele>254.375814</ele>
        <time>2023-01-03T14:09:48.173Z</time>
      </trkpt>
      <trkpt lat="43.63839" lon="1.22676">
        <ele>254.378973</ele>
        <time>2023-01-03T14:09:50.169Z</time>
      </trkpt>
      <trkpt lat="43.63832" lon="1.22685">
        <ele>254.382215</ele>
        <time>2023-01-03T14:09:52.161Z</time>
      </trkpt>
      <trkpt lat="43.63825" lon="1.22695">
        <ele>254.385274</ele>
        <time>2023-01-03T14:09:54.174Z</time>
      </trkpt>
      <trkpt lat="43.63819" lon="1.22706">
        <ele>254.388523</ele>
        <time>2023-01-03T14:09:56.175Z</time>
      </trkpt>
      <trkpt lat="43.63812" lon="1.22715">
        <ele>254.39165</ele>
        <time>2023-01-03T14:09:58.173Z</time>
      </trkpt>
      <trkpt lat="43.63802" lon="1.22728">
        <ele>254.395878</ele>
        <time>2023-01-03T14:10:01.153Z</time>
      </trkpt>
      <trkpt lat="43.63797" lon="1.22739">
        <ele>254.398889</ele>
        <time>2023-01-03T14:10:03.170Z</time>
      </trkpt>
      <trkpt lat="43.63788" lon="1.22751">
        <ele>254.402846</ele>
        <time>2023-01-03T14:10:06.173Z</time>
      </trkpt>
      <trkpt lat="43.63781" lon="1.22761">
        <ele>254.405956</ele>
        <time>2023-01-03T14:10:08.167Z</time>
      </trkpt>
      <trkpt lat="43.63774" lon="1.22769">
        <ele>254.408958</ele>
        <time>2023-01-03T14:10:10.163Z</time>
      </trkpt>
      <trkpt lat="43.63765" lon="1.22782">
        <ele>254.413096</ele>
        <time>2023-01-03T14:10:13.159Z</time>
      </trkpt>
      <trkpt lat="43.63756" lon="1.22794">
        <ele>254.417087</ele>
        <time>2023-01-03T14:10:16.174Z</time>
      </trkpt>
      <trkpt lat="43.63749" lon="1.22805">
        <ele>254.420218</ele>
        <time>2023-01-03T14:10:18.173Z</time>
      </trkpt>
      <trkpt lat="43.63743" lon="1.22815">
        <ele>254.423312</ele>
        <time>2023-01-03T14:10:20.177Z</time>
      </trkpt>
      <trkpt lat="43.63737" lon="1.22827">
        <ele>254.426565</ele>
        <time>2023-01-03T14:10:22.163Z</time>
      </trkpt>
      <trkpt lat="43.63729" lon="1.22837">
        <ele>254.43001</ele>
        <time>2023-01-03T14:10:24.169Z</time>
      </trkpt>
      <trkpt lat="43.63722" lon="1.22851">
        <ele>254.534788</ele>
        <time>2023-01-03T14:10:27.174Z</time>
      </trkpt>
      <trkpt lat="43.63714" lon="1.22862">
        <ele>254.693982</ele>
        <time>2023-01-03T14:10:29.154Z</time>
      </trkpt>
      <trkpt lat="43.63706" lon="1.22871">
        <ele>254.854646</ele>
        <time>2023-01-03T14:10:31.165Z</time>
      </trkpt>
      <trkpt lat="43.63699" lon="1.22883">
        <ele>255.028574</ele>
        <time>2023-01-03T14:10:33.179Z</time>
      </trkpt>
      <trkpt lat="43.6369" lon="1.22894">
        <ele>255.206497</ele>
        <time>2023-01-03T14:10:35.168Z</time>
      </trkpt>
      <trkpt lat="43.63683" lon="1.22906">
        <ele>255.377304</ele>
        <time>2023-01-03T14:10:37.171Z</time>
      </trkpt>
      <trkpt lat="43.63675" lon="1.22917">
        <ele>255.542335</ele>
        <time>2023-01-03T14:10:39.161Z</time>
      </trkpt>
      <trkpt lat="43.63667" lon="1.22929">
        <ele>255.71851</ele>
        <time>2023-01-03T14:10:41.171Z</time>
      </trkpt>
      <trkpt lat="43.63657" lon="1.22943">
        <ele>255.930617</ele>
        <time>2023-01-03T14:10:44.176Z</time>
      </trkpt>
      <trkpt lat="43.6365" lon="1.22955">
        <ele>256.102397</ele>
        <time>2023-01-03T14:10:46.179Z</time>
      </trkpt>
      <trkpt lat="43.63641" lon="1.22967">
        <ele>256.289307</ele>
        <time>2023-01-03T14:10:48.166Z</time>
      </trkpt>
      <trkpt lat="43.63633" lon="1.22978">
        <ele>256.456522</ele>
        <time>2023-01-03T14:10:50.170Z</time>
      </trkpt>
      <trkpt lat="43.63625" lon="1.2299">
        <ele>256.635902</ele>
        <time>2023-01-03T14:10:52.170Z</time>
      </trkpt>
      <trkpt lat="43.63617" lon="1.23001">
        <ele>256.809052</ele>
        <time>2023-01-03T14:10:54.173Z</time>
      </trkpt>
      <trkpt lat="43.63609" lon="1.23012">
        <ele>256.98004</ele>
        <time>2023-01-03T14:10:56.168Z</time>
      </trkpt>
      <trkpt lat="43.636" lon="1.23023">
        <ele>257.118314</ele>
        <time>2023-01-03T14:10:58.173Z</time>
      </trkpt>
      <trkpt lat="43.63594" lon="1.23034">
        <ele>256.921453</ele>
        <time>2023-01-03T14:11:00.167Z</time>
      </trkpt>
      <trkpt lat="43.63588" lon="1.23045">
        <ele>256.714329</ele>
        <time>2023-01-03T14:11:02.172Z</time>
      </trkpt>
      <trkpt lat="43.6358" lon="1.23056">
        <ele>256.500258</ele>
        <time>2023-01-03T14:11:04.174Z</time>
      </trkpt>
      <trkpt lat="43.63573" lon="1.23066">
        <ele>256.296495</ele>
        <time>2023-01-03T14:11:06.204Z</time>
      </trkpt>
      <trkpt lat="43.63564" lon="1.23078">
        <ele>256.06007</ele>
        <time>2023-01-03T14:11:08.160Z</time>
      </trkpt>
      <trkpt lat="43.63557" lon="1.2309">
        <ele>255.840712</ele>
        <time>2023-01-03T14:11:10.169Z</time>
      </trkpt>
      <trkpt lat="43.63548" lon="1.23101">
        <ele>255.614076</ele>
        <time>2023-01-03T14:11:12.167Z</time>
      </trkpt>
      <trkpt lat="43.63541" lon="1.2311">
        <ele>255.421563</ele>
        <time>2023-01-03T14:11:14.162Z</time>
      </trkpt>
      <trkpt lat="43.63533" lon="1.2312">
        <ele>255.209384</ele>
        <time>2023-01-03T14:11:16.163Z</time>
      </trkpt>
      <trkpt lat="43.63527" lon="1.23129">
        <ele>255.032699</ele>
        <time>2023-01-03T14:11:18.170Z</time>
      </trkpt>
      <trkpt lat="43.63518" lon="1.23142">
        <ele>254.778688</ele>
        <time>2023-01-03T14:11:20.161Z</time>
      </trkpt>
      <trkpt lat="43.6351" lon="1.23152">
        <ele>254.566013</ele>
        <time>2023-01-03T14:11:22.173Z</time>
      </trkpt>
      <trkpt lat="43.63503" lon="1.23164">
        <ele>254.342323</ele>
        <time>2023-01-03T14:11:24.173Z</time>
      </trkpt>
      <trkpt lat="43.63496" lon="1.23173">
        <ele>254.158086</ele>
        <time>2023-01-03T14:11:26.168Z</time>
      </trkpt>
      <trkpt lat="43.63488" lon="1.23184">
        <ele>253.937231</ele>
        <time>2023-01-03T14:11:28.156Z</time>
      </trkpt>
      <trkpt lat="43.6348" lon="1.23194">
        <ele>253.724968</ele>
        <time>2023-01-03T14:11:30.156Z</time>
      </trkpt>
      <trkpt lat="43.63473" lon="1.23206">
        <ele>253.605835</ele>
        <time>2023-01-03T14:11:32.166Z</time>
      </trkpt>
      <trkpt lat="43.63466" lon="1.23217">
        <ele>253.595538</ele>
        <time>2023-01-03T14:11:34.170Z</time>
      </trkpt>
      <trkpt lat="43.63459" lon="1.23227">
        <ele>253.585858</ele>
        <time>2023-01-03T14:11:36.183Z</time>
      </trkpt>
      <trkpt lat="43.63451" lon="1.23237">
        <ele>253.575548</ele>
        <time>2023-01-03T14:11:38.178Z</time>
      </trkpt>
      <trkpt lat="43.63445" lon="1.23249">
        <ele>253.565298</ele>
        <time>2023-01-03T14:11:40.169Z</time>
      </trkpt>
      <trkpt lat="43.63437" lon="1.2326">
        <ele>253.555154</ele>
        <time>2023-01-03T14:11:42.173Z</time>
      </trkpt>
      <trkpt lat="43.63427" lon="1.23273">
        <ele>253.542004</ele>
        <time>2023-01-03T14:11:45.159Z</time>
      </trkpt>
      <trkpt lat="43.63421" lon="1.23282">
        <ele>253.53261</ele>
        <time>2023-01-03T14:11:47.156Z</time>
      </trkpt>
      <trkpt lat="43.63414" lon="1.23292">
        <ele>253.522967</ele>
        <time>2023-01-03T14:11:49.151Z</time>
      </trkpt>
      <trkpt lat="43.63407" lon="1.23302">
        <ele>253.513761</ele>
        <time>2023-01-03T14:11:51.170Z</time>
      </trkpt>
      <trkpt lat="43.63398" lon="1.23316">
        <ele>253.501069</ele>
        <time>2023-01-03T14:11:54.173Z</time>
      </trkpt>
      <trkpt lat="43.6339" lon="1.23326">
        <ele>253.490505</ele>
        <time>2023-01-03T14:11:57.174Z</time>
      </trkpt>
      <trkpt lat="43.63382" lon="1.23338">
        <ele>253.478858</ele>
        <time>2023-01-03T14:12:00.150Z</time>
      </trkpt>
      <trkpt lat="43.63373" lon="1.2335">
        <ele>253.466625</ele>
        <time>2023-01-03T14:12:03.179Z</time>
      </trkpt>
      <trkpt lat="43.63363" lon="1.23364">
        <ele>253.453668</ele>
        <time>2023-01-03T14:12:06.171Z</time>
      </trkpt>
      <trkpt lat="43.63354" lon="1.23376">
        <ele>253.441709</ele>
        <time>2023-01-03T14:12:09.169Z</time>
      </trkpt>
      <trkpt lat="43.63345" lon="1.23385">
        <ele>253.234631</ele>
        <time>2023-01-03T14:12:12.174Z</time>
      </trkpt>
      <trkpt lat="43.63337" lon="1.23394">
        <ele>252.967662</ele>
        <time>2023-01-03T14:12:16.175Z</time>
      </trkpt>
      <trkpt lat="43.63326" lon="1.23411">
        <ele>252.516797</ele>
        <time>2023-01-03T14:13:02.173Z</time>
      </trkpt>
      <trkpt lat="43.63318" lon="1.23421">
        <ele>252.238302</ele>
        <time>2023-01-03T14:13:05.179Z</time>
      </trkpt>
      <trkpt lat="43.63309" lon="1.23432">
        <ele>251.904244</ele>
        <time>2023-01-03T14:13:08.183Z</time>
      </trkpt>
      <trkpt lat="43.63302" lon="1.23442">
        <ele>251.642629</ele>
        <time>2023-01-03T14:13:10.162Z</time>
      </trkpt>
      <trkpt lat="43.63294" lon="1.23451">
        <ele>251.37322</ele>
        <time>2023-01-03T14:13:12.178Z</time>
      </trkpt>
      <trkpt lat="43.63286" lon="1.2346">
        <ele>251.09118</ele>
        <time>2023-01-03T14:13:14.160Z</time>
      </trkpt>
      <trkpt lat="43.63278" lon="1.23471">
        <ele>250.784445</ele>
        <time>2023-01-03T14:13:16.164Z</time>
      </trkpt>
      <trkpt lat="43.63268" lon="1.23482">
        <ele>250.450386</ele>
        <time>2023-01-03T14:13:18.165Z</time>
      </trkpt>
      <trkpt lat="43.63258" lon="1.23495">
        <ele>250.090138</ele>
        <time>2023-01-03T14:13:20.176Z</time>
      </trkpt>
      <trkpt lat="43.63248" lon="1.23508">
        <ele>249.709664</ele>
        <time>2023-01-03T14:13:22.181Z</time>
      </trkpt>
      <trkpt lat="43.63237" lon="1.23522">
        <ele>249.311531</ele>
        <time>2023-01-03T14:13:24.156Z</time>
      </trkpt>
      <trkpt lat="43.63226" lon="1.23538">
        <ele>248.897594</ele>
        <time>2023-01-03T14:13:26.157Z</time>
      </trkpt>
      <trkpt lat="43.63215" lon="1.23552">
        <ele>248.473713</ele>
        <time>2023-01-03T14:13:28.156Z</time>
      </trkpt>
      <trkpt lat="43.63202" lon="1.23567">
        <ele>247.970524</ele>
        <time>2023-01-03T14:13:30.157Z</time>
      </trkpt>
      <trkpt lat="43.63188" lon="1.23583">
        <ele>247.448022</ele>
        <time>2023-01-03T14:13:32.155Z</time>
      </trkpt>
      <trkpt lat="43.63175" lon="1.23599">
        <ele>246.940025</ele>
        <time>2023-01-03T14:13:34.164Z</time>
      </trkpt>
      <trkpt lat="43.63168" lon="1.23608">
        <ele>246.661958</ele>
        <time>2023-01-03T14:13:35.157Z</time>
      </trkpt>
      <trkpt lat="43.63161" lon="1.23617">
        <ele>246.391062</ele>
        <time>2023-01-03T14:13:36.166Z</time>
      </trkpt>
      <trkpt lat="43.63154" lon="1.23626">
        <ele>246.110134</ele>
        <time>2023-01-03T14:13:37.170Z</time>
      </trkpt>
      <trkpt lat="43.63147" lon="1.23635">
        <ele>245.816232</ele>
        <time>2023-01-03T14:13:38.178Z</time>
      </trkpt>
      <trkpt lat="43.63139" lon="1.23644">
        <ele>245.528732</ele>
        <time>2023-01-03T14:13:39.160Z</time>
      </trkpt>
      <trkpt lat="43.63132" lon="1.23653">
        <ele>245.234829</ele>
        <time>2023-01-03T14:13:40.155Z</time>
      </trkpt>
      <trkpt lat="43.63125" lon="1.23663">
        <ele>244.943716</ele>
        <time>2023-01-03T14:13:41.175Z</time>
      </trkpt>
      <trkpt lat="43.63117" lon="1.23672">
        <ele>244.649813</ele>
        <time>2023-01-03T14:13:42.158Z</time>
      </trkpt>
      <trkpt lat="43.6311" lon="1.23681">
        <ele>244.363108</ele>
        <time>2023-01-03T14:13:43.160Z</time>
      </trkpt>
      <trkpt lat="43.63103" lon="1.2369">
        <ele>244.079994</ele>
        <time>2023-01-03T14:13:44.173Z</time>
      </trkpt>
      <trkpt lat="43.63096" lon="1.23699">
        <ele>243.795469</ele>
        <time>2023-01-03T14:13:45.160Z</time>
      </trkpt>
      <trkpt lat="43.63089" lon="1.23708">
        <ele>243.528916</ele>
        <time>2023-01-03T14:13:46.149Z</time>
      </trkpt>
      <trkpt lat="43.63076" lon="1.23722">
        <ele>242.956047</ele>
        <time>2023-01-03T14:13:48.155Z</time>
      </trkpt>
      <trkpt lat="43.63064" lon="1.23739">
        <ele>242.319083</ele>
        <time>2023-01-03T14:13:50.161Z</time>
      </trkpt>
      <trkpt lat="43.63052" lon="1.23753">
        <ele>241.758336</ele>
        <time>2023-01-03T14:13:52.161Z</time>
      </trkpt>
      <trkpt lat="43.63042" lon="1.23767">
        <ele>241.225445</ele>
        <time>2023-01-03T14:13:54.161Z</time>
      </trkpt>
      <trkpt lat="43.63032" lon="1.23778">
        <ele>240.758181</ele>
        <time>2023-01-03T14:13:56.157Z</time>
      </trkpt>
      <trkpt lat="43.63024" lon="1.23787">
        <ele>240.351007</ele>
        <time>2023-01-03T14:13:58.158Z</time>
      </trkpt>
      <trkpt lat="43.63017" lon="1.23798">
        <ele>239.960128</ele>
        <time>2023-01-03T14:14:01.161Z</time>
      </trkpt>
      <trkpt lat="43.63013" lon="1.2381">
        <ele>239.607968</ele>
        <time>2023-01-03T14:14:04.161Z</time>
      </trkpt>
      <trkpt lat="43.63011" lon="1.23825">
        <ele>239.222807</ele>
        <time>2023-01-03T14:14:19.157Z</time>
      </trkpt>
      <trkpt lat="43.63005" lon="1.23839">
        <ele>238.778846</ele>
        <time>2023-01-03T14:14:23.164Z</time>
      </trkpt>
      <trkpt lat="43.63001" lon="1.23856">
        <ele>238.299019</ele>
        <time>2023-01-03T14:14:26.156Z</time>
      </trkpt>
      <trkpt lat="43.62999" lon="1.23869">
        <ele>237.94047</ele>
        <time>2023-01-03T14:14:28.157Z</time>
      </trkpt>
      <trkpt lat="43.62996" lon="1.23882">
        <ele>237.595748</ele>
        <time>2023-01-03T14:14:30.156Z</time>
      </trkpt>
      <trkpt lat="43.62993" lon="1.23895">
        <ele>237.219314</ele>
        <time>2023-01-03T14:14:32.172Z</time>
      </trkpt>
      <trkpt lat="43.6299" lon="1.23909">
        <ele>236.83115</ele>
        <time>2023-01-03T14:14:34.158Z</time>
      </trkpt>
      <trkpt lat="43.62987" lon="1.23923">
        <ele>236.5712</ele>
        <time>2023-01-03T14:14:36.152Z</time>
      </trkpt>
      <trkpt lat="43.62984" lon="1.23937">
        <ele>236.331668</ele>
        <time>2023-01-03T14:14:38.157Z</time>
      </trkpt>
      <trkpt lat="43.62981" lon="1.23951">
        <ele>236.096425</ele>
        <time>2023-01-03T14:14:40.170Z</time>
      </trkpt>
      <trkpt lat="43.62978" lon="1.23965">
        <ele>235.863922</ele>
        <time>2023-01-03T14:14:42.174Z</time>
      </trkpt>
      <trkpt lat="43.62974" lon="1.23978">
        <ele>235.648961</ele>
        <time>2023-01-03T14:14:44.158Z</time>
      </trkpt>
      <trkpt lat="43.62971" lon="1.2399">
        <ele>235.434716</ele>
        <time>2023-01-03T14:14:46.153Z</time>
      </trkpt>
      <trkpt lat="43.62968" lon="1.24002">
        <ele>235.231774</ele>
        <time>2023-01-03T14:14:48.162Z</time>
      </trkpt>
      <trkpt lat="43.62964" lon="1.24019">
        <ele>234.951411</ele>
        <time>2023-01-03T14:14:51.172Z</time>
      </trkpt>
      <trkpt lat="43.6296" lon="1.24035">
        <ele>234.674056</ele>
        <time>2023-01-03T14:14:54.161Z</time>
      </trkpt>
      <trkpt lat="43.62955" lon="1.24052">
        <ele>234.389967</ele>
        <time>2023-01-03T14:14:57.156Z</time>
      </trkpt>
      <trkpt lat="43.62952" lon="1.24064">
        <ele>234.177275</ele>
        <time>2023-01-03T14:14:59.156Z</time>
      </trkpt>
      <trkpt lat="43.62949" lon="1.24077">
        <ele>233.954813</ele>
        <time>2023-01-03T14:15:01.179Z</time>
      </trkpt>
      <trkpt lat="43.62945" lon="1.24095">
        <ele>233.657524</ele>
        <time>2023-01-03T14:15:04.166Z</time>
      </trkpt>
      <trkpt lat="43.62941" lon="1.24108">
        <ele>233.435798</ele>
        <time>2023-01-03T14:15:06.167Z</time>
      </trkpt>
      <trkpt lat="43.62939" lon="1.24121">
        <ele>233.225104</ele>
        <time>2023-01-03T14:15:08.157Z</time>
      </trkpt>
      <trkpt lat="43.62935" lon="1.24138">
        <ele>232.943211</ele>
        <time>2023-01-03T14:15:11.171Z</time>
      </trkpt>
      <trkpt lat="43.62931" lon="1.24153">
        <ele>232.805974</ele>
        <time>2023-01-03T14:15:14.167Z</time>
      </trkpt>
      <trkpt lat="43.62932" lon="1.24166">
        <ele>232.875109</ele>
        <time>2023-01-03T14:15:18.160Z</time>
      </trkpt>
      <trkpt lat="43.6294" lon="1.2417">
        <ele>232.944097</ele>
        <time>2023-01-03T14:15:22.152Z</time>
      </trkpt>
      <trkpt lat="43.62949" lon="1.24172">
        <ele>233.011001</ele>
        <time>2023-01-03T14:15:26.160Z</time>
      </trkpt>
      <trkpt lat="43.62949" lon="1.24171">
        <ele>233.016977</ele>
        <time>2023-01-03T14:15:36.850Z</time>
      </trkpt>
      <trkpt lat="43.62926" lon="1.24181">
        <ele>233.199923</ele>
        <time>2023-01-03T14:18:54.182Z</time>
      </trkpt>
      <trkpt lat="43.62922" lon="1.24195">
        <ele>233.285073</ele>
        <time>2023-01-03T14:18:58.173Z</time>
      </trkpt>
      <trkpt lat="43.62919" lon="1.24209">
        <ele>233.362736</ele>
        <time>2023-01-03T14:19:01.159Z</time>
      </trkpt>
      <trkpt lat="43.62915" lon="1.24223">
        <ele>233.443079</ele>
        <time>2023-01-03T14:19:04.162Z</time>
      </trkpt>
      <trkpt lat="43.62912" lon="1.24237">
        <ele>233.519133</ele>
        <time>2023-01-03T14:19:07.166Z</time>
      </trkpt>
      <trkpt lat="43.62908" lon="1.24251">
        <ele>233.602003</ele>
        <time>2023-01-03T14:19:10.178Z</time>
      </trkpt>
      <trkpt lat="43.62905" lon="1.24267">
        <ele>233.689085</ele>
        <time>2023-01-03T14:19:13.172Z</time>
      </trkpt>
      <trkpt lat="43.62901" lon="1.24284">
        <ele>233.786178</ele>
        <time>2023-01-03T14:19:16.156Z</time>
      </trkpt>
      <trkpt lat="43.62898" lon="1.24296">
        <ele>233.852881</ele>
        <time>2023-01-03T14:19:18.161Z</time>
      </trkpt>
      <trkpt lat="43.62896" lon="1.24309">
        <ele>233.925381</ele>
        <time>2023-01-03T14:19:20.179Z</time>
      </trkpt>
      <trkpt lat="43.62892" lon="1.24326">
        <ele>234.025035</ele>
        <time>2023-01-03T14:19:23.177Z</time>
      </trkpt>
      <trkpt lat="43.62889" lon="1.24339">
        <ele>234.095654</ele>
        <time>2023-01-03T14:19:25.161Z</time>
      </trkpt>
      <trkpt lat="43.62885" lon="1.24356">
        <ele>233.997912</ele>
        <time>2023-01-03T14:19:28.171Z</time>
      </trkpt>
      <trkpt lat="43.62882" lon="1.24369">
        <ele>233.893883</ele>
        <time>2023-01-03T14:19:30.160Z</time>
      </trkpt>
      <trkpt lat="43.6288" lon="1.24382">
        <ele>233.792418</ele>
        <time>2023-01-03T14:19:32.165Z</time>
      </trkpt>
      <trkpt lat="43.62877" lon="1.24395">
        <ele>233.684251</ele>
        <time>2023-01-03T14:19:34.163Z</time>
      </trkpt>
      <trkpt lat="43.62875" lon="1.24407">
        <ele>233.584897</ele>
        <time>2023-01-03T14:19:36.185Z</time>
      </trkpt>
      <trkpt lat="43.62872" lon="1.2442">
        <ele>233.479969</ele>
        <time>2023-01-03T14:19:38.179Z</time>
      </trkpt>
      <trkpt lat="43.62869" lon="1.24433">
        <ele>233.375498</ele>
        <time>2023-01-03T14:19:40.171Z</time>
      </trkpt>
      <trkpt lat="43.62866" lon="1.24451">
        <ele>233.229453</ele>
        <time>2023-01-03T14:19:43.175Z</time>
      </trkpt>
      <trkpt lat="43.62863" lon="1.24463">
        <ele>233.130984</ele>
        <time>2023-01-03T14:19:45.164Z</time>
      </trkpt>
      <trkpt lat="43.6286" lon="1.2448">
        <ele>232.992491</ele>
        <time>2023-01-03T14:19:48.151Z</time>
      </trkpt>
      <trkpt lat="43.62858" lon="1.24492">
        <ele>232.891176</ele>
        <time>2023-01-03T14:19:50.163Z</time>
      </trkpt>
      <trkpt lat="43.62855" lon="1.24505">
        <ele>232.791631</ele>
        <time>2023-01-03T14:19:52.176Z</time>
      </trkpt>
      <trkpt lat="43.62852" lon="1.24522">
        <ele>232.652474</ele>
        <time>2023-01-03T14:19:55.171Z</time>
      </trkpt>
      <trkpt lat="43.62849" lon="1.24534">
        <ele>232.554753</ele>
        <time>2023-01-03T14:19:57.163Z</time>
      </trkpt>
      <trkpt lat="43.62847" lon="1.24546">
        <ele>232.456152</ele>
        <time>2023-01-03T14:19:59.160Z</time>
      </trkpt>
      <trkpt lat="43.62844" lon="1.24563">
        <ele>232.315231</ele>
        <time>2023-01-03T14:20:02.166Z</time>
      </trkpt>
      <trkpt lat="43.62841" lon="1.24581">
        <ele>232.175579</ele>
        <time>2023-01-03T14:20:05.161Z</time>
      </trkpt>
      <trkpt lat="43.62838" lon="1.24594">
        <ele>232.140687</ele>
        <time>2023-01-03T14:20:07.159Z</time>
      </trkpt>
      <trkpt lat="43.62836" lon="1.24606">
        <ele>232.112805</ele>
        <time>2023-01-03T14:20:09.155Z</time>
      </trkpt>
      <trkpt lat="43.62833" lon="1.24618">
        <ele>232.085227</ele>
        <time>2023-01-03T14:20:11.168Z</time>
      </trkpt>
      <trkpt lat="43.62831" lon="1.2463">
        <ele>232.057064</ele>
        <time>2023-01-03T14:20:13.181Z</time>
      </trkpt>
      <trkpt lat="43.62828" lon="1.24642">
        <ele>232.02945</ele>
        <time>2023-01-03T14:20:15.158Z</time>
      </trkpt>
      <trkpt lat="43.62826" lon="1.24655">
        <ele>231.999624</ele>
        <time>2023-01-03T14:20:17.179Z</time>
      </trkpt>
      <trkpt lat="43.62822" lon="1.24668">
        <ele>231.96895</ele>
        <time>2023-01-03T14:20:19.163Z</time>
      </trkpt>
      <trkpt lat="43.62821" lon="1.24681">
        <ele>231.940322</ele>
        <time>2023-01-03T14:20:21.166Z</time>
      </trkpt>
      <trkpt lat="43.62818" lon="1.24695">
        <ele>231.909001</ele>
        <time>2023-01-03T14:20:23.176Z</time>
      </trkpt>
      <trkpt lat="43.62816" lon="1.24708">
        <ele>231.878108</ele>
        <time>2023-01-03T14:20:25.169Z</time>
      </trkpt>
      <trkpt lat="43.62814" lon="1.24721">
        <ele>231.848799</ele>
        <time>2023-01-03T14:20:27.165Z</time>
      </trkpt>
      <trkpt lat="43.62811" lon="1.24735">
        <ele>231.817198</ele>
        <time>2023-01-03T14:20:29.156Z</time>
      </trkpt>
      <trkpt lat="43.62809" lon="1.24749">
        <ele>231.785877</ele>
        <time>2023-01-03T14:20:31.178Z</time>
      </trkpt>
      <trkpt lat="43.62807" lon="1.24762">
        <ele>231.756205</ele>
        <time>2023-01-03T14:20:33.182Z</time>
      </trkpt>
      <trkpt lat="43.62804" lon="1.24776">
        <ele>231.723813</ele>
        <time>2023-01-03T14:20:35.154Z</time>
      </trkpt>
      <trkpt lat="43.62802" lon="1.24788">
        <ele>231.695904</ele>
        <time>2023-01-03T14:20:37.180Z</time>
      </trkpt>
      <trkpt lat="43.628" lon="1.24802">
        <ele>231.664445</ele>
        <time>2023-01-03T14:20:39.155Z</time>
      </trkpt>
      <trkpt lat="43.62797" lon="1.24816">
        <ele>231.632702</ele>
        <time>2023-01-03T14:20:41.179Z</time>
      </trkpt>
      <trkpt lat="43.62795" lon="1.24829">
        <ele>231.646993</ele>
        <time>2023-01-03T14:20:43.160Z</time>
      </trkpt>
      <trkpt lat="43.62792" lon="1.24843">
        <ele>231.700202</ele>
        <time>2023-01-03T14:20:45.159Z</time>
      </trkpt>
      <trkpt lat="43.6279" lon="1.24857">
        <ele>231.7579</ele>
        <time>2023-01-03T14:20:47.162Z</time>
      </trkpt>
      <trkpt lat="43.62788" lon="1.2487">
        <ele>231.809908</ele>
        <time>2023-01-03T14:20:49.155Z</time>
      </trkpt>
      <trkpt lat="43.62785" lon="1.24883">
        <ele>231.860359</ele>
        <time>2023-01-03T14:20:51.178Z</time>
      </trkpt>
      <trkpt lat="43.62782" lon="1.24896">
        <ele>231.914526</ele>
        <time>2023-01-03T14:20:53.160Z</time>
      </trkpt>
      <trkpt lat="43.62778" lon="1.24909">
        <ele>231.969607</ele>
        <time>2023-01-03T14:20:55.160Z</time>
      </trkpt>
      <trkpt lat="43.62774" lon="1.24922">
        <ele>232.024553</ele>
        <time>2023-01-03T14:20:57.176Z</time>
      </trkpt>
      <trkpt lat="43.62771" lon="1.24935">
        <ele>232.07872</ele>
        <time>2023-01-03T14:20:59.155Z</time>
      </trkpt>
      <trkpt lat="43.62767" lon="1.24948">
        <ele>232.132523</ele>
        <time>2023-01-03T14:21:01.176Z</time>
      </trkpt>
      <trkpt lat="43.62763" lon="1.24962">
        <ele>232.188188</ele>
        <time>2023-01-03T14:21:03.180Z</time>
      </trkpt>
      <trkpt lat="43.6276" lon="1.24975">
        <ele>232.244184</ele>
        <time>2023-01-03T14:21:05.160Z</time>
      </trkpt>
      <trkpt lat="43.62756" lon="1.24988">
        <ele>232.299265</ele>
        <time>2023-01-03T14:21:07.176Z</time>
      </trkpt>
      <trkpt lat="43.62753" lon="1.25002">
        <ele>232.35471</ele>
        <time>2023-01-03T14:21:09.156Z</time>
      </trkpt>
      <trkpt lat="43.62749" lon="1.25016">
        <ele>232.410552</ele>
        <time>2023-01-03T14:21:11.172Z</time>
      </trkpt>
      <trkpt lat="43.62746" lon="1.25029">
        <ele>232.466025</ele>
        <time>2023-01-03T14:21:13.174Z</time>
      </trkpt>
      <trkpt lat="43.62742" lon="1.25043">
        <ele>232.52277</ele>
        <time>2023-01-03T14:21:15.153Z</time>
      </trkpt>
      <trkpt lat="43.62738" lon="1.25056">
        <ele>232.578638</ele>
        <time>2023-01-03T14:21:17.156Z</time>
      </trkpt>
      <trkpt lat="43.62735" lon="1.2507">
        <ele>232.636139</ele>
        <time>2023-01-03T14:21:19.153Z</time>
      </trkpt>
      <trkpt lat="43.62731" lon="1.25083">
        <ele>232.693551</ele>
        <time>2023-01-03T14:21:21.157Z</time>
      </trkpt>
      <trkpt lat="43.62727" lon="1.25096">
        <ele>232.749667</ele>
        <time>2023-01-03T14:21:23.157Z</time>
      </trkpt>
      <trkpt lat="43.62724" lon="1.25109">
        <ele>232.805017</ele>
        <time>2023-01-03T14:21:25.161Z</time>
      </trkpt>
      <trkpt lat="43.6272" lon="1.25122">
        <ele>232.860929</ele>
        <time>2023-01-03T14:21:27.173Z</time>
      </trkpt>
      <trkpt lat="43.62717" lon="1.25135">
        <ele>232.913839</ele>
        <time>2023-01-03T14:21:29.147Z</time>
      </trkpt>
      <trkpt lat="43.62714" lon="1.25147">
        <ele>232.964728</ele>
        <time>2023-01-03T14:21:31.175Z</time>
      </trkpt>
      <trkpt lat="43.6271" lon="1.2516">
        <ele>233.019889</ele>
        <time>2023-01-03T14:21:33.161Z</time>
      </trkpt>
      <trkpt lat="43.62707" lon="1.25172">
        <ele>233.073781</ele>
        <time>2023-01-03T14:21:35.159Z</time>
      </trkpt>
      <trkpt lat="43.62703" lon="1.25185">
        <ele>233.128581</ele>
        <time>2023-01-03T14:21:37.173Z</time>
      </trkpt>
      <trkpt lat="43.62699" lon="1.25198">
        <ele>233.183754</ele>
        <time>2023-01-03T14:21:39.153Z</time>
      </trkpt>
      <trkpt lat="43.62695" lon="1.25211">
        <ele>233.241389</ele>
        <time>2023-01-03T14:21:41.165Z</time>
      </trkpt>
      <trkpt lat="43.62692" lon="1.25225">
        <ele>233.298449</ele>
        <time>2023-01-03T14:21:43.177Z</time>
      </trkpt>
      <trkpt lat="43.62687" lon="1.25238">
        <ele>233.358354</ele>
        <time>2023-01-03T14:21:45.171Z</time>
      </trkpt>
      <trkpt lat="43.62683" lon="1.25251">
        <ele>233.414212</ele>
        <time>2023-01-03T14:21:47.184Z</time>
      </trkpt>
      <trkpt lat="43.62679" lon="1.25265">
        <ele>233.47411</ele>
        <time>2023-01-03T14:21:49.168Z</time>
      </trkpt>
      <trkpt lat="43.62674" lon="1.25279">
        <ele>233.533922</ele>
        <time>2023-01-03T14:21:51.163Z</time>
      </trkpt>
      <trkpt lat="43.62671" lon="1.25292">
        <ele>233.551772</ele>
        <time>2023-01-03T14:21:53.180Z</time>
      </trkpt>
      <trkpt lat="43.62666" lon="1.25305">
        <ele>233.473668</ele>
        <time>2023-01-03T14:21:55.165Z</time>
      </trkpt>
      <trkpt lat="43.62662" lon="1.25318">
        <ele>233.394943</ele>
        <time>2023-01-03T14:21:57.182Z</time>
      </trkpt>
      <trkpt lat="43.62657" lon="1.25331">
        <ele>233.316215</ele>
        <time>2023-01-03T14:21:59.158Z</time>
      </trkpt>
      <trkpt lat="43.62653" lon="1.25343">
        <ele>233.240743</ele>
        <time>2023-01-03T14:22:01.173Z</time>
      </trkpt>
      <trkpt lat="43.62648" lon="1.25355">
        <ele>233.163957</ele>
        <time>2023-01-03T14:22:03.177Z</time>
      </trkpt>
      <trkpt lat="43.62643" lon="1.25367">
        <ele>233.091681</ele>
        <time>2023-01-03T14:22:05.173Z</time>
      </trkpt>
      <trkpt lat="43.62638" lon="1.25378">
        <ele>233.0201</ele>
        <time>2023-01-03T14:22:07.180Z</time>
      </trkpt>
      <trkpt lat="43.62632" lon="1.25388">
        <ele>232.948122</ele>
        <time>2023-01-03T14:22:09.163Z</time>
      </trkpt>
      <trkpt lat="43.62626" lon="1.25399">
        <ele>232.877876</ele>
        <time>2023-01-03T14:22:11.167Z</time>
      </trkpt>
      <trkpt lat="43.62621" lon="1.2541">
        <ele>232.803248</ele>
        <time>2023-01-03T14:22:13.180Z</time>
      </trkpt>
      <trkpt lat="43.62615" lon="1.25422">
        <ele>232.725005</ele>
        <time>2023-01-03T14:22:15.177Z</time>
      </trkpt>
      <trkpt lat="43.62609" lon="1.25433">
        <ele>232.649489</ele>
        <time>2023-01-03T14:22:17.164Z</time>
      </trkpt>
      <trkpt lat="43.62603" lon="1.25444">
        <ele>232.572653</ele>
        <time>2023-01-03T14:22:19.159Z</time>
      </trkpt>
      <trkpt lat="43.62597" lon="1.25456">
        <ele>232.495375</ele>
        <time>2023-01-03T14:22:21.153Z</time>
      </trkpt>
      <trkpt lat="43.62592" lon="1.25467">
        <ele>232.420691</ele>
        <time>2023-01-03T14:22:23.167Z</time>
      </trkpt>
      <trkpt lat="43.62586" lon="1.25481">
        <ele>232.331144</ele>
        <time>2023-01-03T14:22:26.148Z</time>
      </trkpt>
      <trkpt lat="43.62578" lon="1.25495">
        <ele>232.241495</ele>
        <time>2023-01-03T14:22:29.164Z</time>
      </trkpt>
      <trkpt lat="43.62571" lon="1.25509">
        <ele>232.227605</ele>
        <time>2023-01-03T14:22:32.156Z</time>
      </trkpt>
      <trkpt lat="43.62562" lon="1.25522">
        <ele>232.239292</ele>
        <time>2023-01-03T14:22:35.176Z</time>
      </trkpt>
      <trkpt lat="43.62555" lon="1.25537">
        <ele>232.251071</ele>
        <time>2023-01-03T14:22:38.158Z</time>
      </trkpt>
      <trkpt lat="43.62548" lon="1.25548">
        <ele>232.260075</ele>
        <time>2023-01-03T14:22:40.161Z</time>
      </trkpt>
      <trkpt lat="43.62542" lon="1.2556">
        <ele>232.269281</ele>
        <time>2023-01-03T14:22:42.156Z</time>
      </trkpt>
      <trkpt lat="43.62537" lon="1.25572">
        <ele>232.278007</ele>
        <time>2023-01-03T14:22:44.154Z</time>
      </trkpt>
      <trkpt lat="43.62531" lon="1.25583">
        <ele>232.28645</ele>
        <time>2023-01-03T14:22:46.172Z</time>
      </trkpt>
      <trkpt lat="43.62526" lon="1.25593">
        <ele>232.294578</ele>
        <time>2023-01-03T14:22:48.158Z</time>
      </trkpt>
      <trkpt lat="43.62519" lon="1.25608">
        <ele>232.305823</ele>
        <time>2023-01-03T14:22:51.173Z</time>
      </trkpt>
      <trkpt lat="43.62514" lon="1.25626">
        <ele>232.318037</ele>
        <time>2023-01-03T14:22:54.174Z</time>
      </trkpt>
      <trkpt lat="43.62511" lon="1.2564">
        <ele>232.326869</ele>
        <time>2023-01-03T14:22:56.153Z</time>
      </trkpt>
      <trkpt lat="43.62509" lon="1.25654">
        <ele>232.336292</ele>
        <time>2023-01-03T14:22:58.158Z</time>
      </trkpt>
      <trkpt lat="43.62507" lon="1.25668">
        <ele>232.345202</ele>
        <time>2023-01-03T14:23:00.164Z</time>
      </trkpt>
      <trkpt lat="43.62504" lon="1.25682">
        <ele>232.354379</ele>
        <time>2023-01-03T14:23:02.190Z</time>
      </trkpt>
      <trkpt lat="43.62502" lon="1.25696">
        <ele>232.363514</ele>
        <time>2023-01-03T14:23:04.171Z</time>
      </trkpt>
      <trkpt lat="43.62499" lon="1.25709">
        <ele>232.372394</ele>
        <time>2023-01-03T14:23:06.151Z</time>
      </trkpt>
      <trkpt lat="43.62496" lon="1.25722">
        <ele>232.353252</ele>
        <time>2023-01-03T14:23:08.165Z</time>
      </trkpt>
      <trkpt lat="43.62492" lon="1.25737">
        <ele>232.292299</ele>
        <time>2023-01-03T14:23:11.166Z</time>
      </trkpt>
      <trkpt lat="43.62489" lon="1.25752">
        <ele>232.232311</ele>
        <time>2023-01-03T14:23:15.153Z</time>
      </trkpt>
      <trkpt lat="43.62485" lon="1.25765">
        <ele>232.176822</ele>
        <time>2023-01-03T14:23:18.175Z</time>
      </trkpt>
      <trkpt lat="43.6248" lon="1.2578">
        <ele>232.112731</ele>
        <time>2023-01-03T14:23:21.180Z</time>
      </trkpt>
      <trkpt lat="43.62475" lon="1.25795">
        <ele>232.045752</ele>
        <time>2023-01-03T14:23:24.153Z</time>
      </trkpt>
      <trkpt lat="43.62469" lon="1.25811">
        <ele>231.977113</ele>
        <time>2023-01-03T14:23:27.161Z</time>
      </trkpt>
      <trkpt lat="43.62463" lon="1.25821">
        <ele>231.927957</ele>
        <time>2023-01-03T14:23:29.146Z</time>
      </trkpt>
      <trkpt lat="43.62458" lon="1.25832">
        <ele>231.875607</ele>
        <time>2023-01-03T14:23:31.158Z</time>
      </trkpt>
      <trkpt lat="43.62452" lon="1.25844">
        <ele>231.820287</ele>
        <time>2023-01-03T14:23:33.175Z</time>
      </trkpt>
      <trkpt lat="43.62447" lon="1.25857">
        <ele>231.762013</ele>
        <time>2023-01-03T14:23:35.159Z</time>
      </trkpt>
      <trkpt lat="43.62442" lon="1.25869">
        <ele>231.707166</ele>
        <time>2023-01-03T14:23:37.161Z</time>
      </trkpt>
      <trkpt lat="43.62437" lon="1.2588">
        <ele>231.655813</ele>
        <time>2023-01-03T14:23:39.163Z</time>
      </trkpt>
      <trkpt lat="43.62431" lon="1.25891">
        <ele>231.603834</ele>
        <time>2023-01-03T14:23:41.167Z</time>
      </trkpt>
      <trkpt lat="43.62426" lon="1.25903">
        <ele>231.551885</ele>
        <time>2023-01-03T14:23:43.172Z</time>
      </trkpt>
      <trkpt lat="43.62421" lon="1.25914">
        <ele>231.501614</ele>
        <time>2023-01-03T14:23:45.151Z</time>
      </trkpt>
      <trkpt lat="43.62415" lon="1.25929">
        <ele>231.435735</ele>
        <time>2023-01-03T14:23:48.154Z</time>
      </trkpt>
      <trkpt lat="43.62409" lon="1.25943">
        <ele>231.42601</ele>
        <time>2023-01-03T14:23:51.155Z</time>
      </trkpt>
      <trkpt lat="43.62403" lon="1.25956">
        <ele>231.448234</ele>
        <time>2023-01-03T14:23:54.152Z</time>
      </trkpt>
      <trkpt lat="43.62398" lon="1.25969">
        <ele>231.469512</ele>
        <time>2023-01-03T14:23:57.155Z</time>
      </trkpt>
      <trkpt lat="43.62393" lon="1.25982">
        <ele>231.489616</ele>
        <time>2023-01-03T14:24:00.161Z</time>
      </trkpt>
      <trkpt lat="43.62388" lon="1.25996">
        <ele>231.512127</ele>
        <time>2023-01-03T14:24:03.165Z</time>
      </trkpt>
      <trkpt lat="43.62383" lon="1.26011">
        <ele>231.537308</ele>
        <time>2023-01-03T14:24:06.169Z</time>
      </trkpt>
      <trkpt lat="43.6238" lon="1.26027">
        <ele>231.560651</ele>
        <time>2023-01-03T14:24:09.145Z</time>
      </trkpt>
      <trkpt lat="43.62375" lon="1.26045">
        <ele>231.587392</ele>
        <time>2023-01-03T14:24:12.155Z</time>
      </trkpt>
      <trkpt lat="43.62371" lon="1.26056">
        <ele>231.605847</ele>
        <time>2023-01-03T14:24:14.159Z</time>
      </trkpt>
      <trkpt lat="43.62368" lon="1.26069">
        <ele>231.624957</ele>
        <time>2023-01-03T14:24:16.174Z</time>
      </trkpt>
      <trkpt lat="43.62364" lon="1.2608">
        <ele>231.643217</ele>
        <time>2023-01-03T14:24:18.166Z</time>
      </trkpt>
      <trkpt lat="43.62361" lon="1.26093">
        <ele>231.662195</ele>
        <time>2023-01-03T14:24:20.175Z</time>
      </trkpt>
      <trkpt lat="43.62358" lon="1.26104">
        <ele>231.680096</ele>
        <time>2023-01-03T14:24:22.163Z</time>
      </trkpt>
      <trkpt lat="43.62354" lon="1.26116">
        <ele>231.698132</ele>
        <time>2023-01-03T14:24:24.160Z</time>
      </trkpt>
      <trkpt lat="43.6235" lon="1.26128">
        <ele>231.716673</ele>
        <time>2023-01-03T14:24:26.158Z</time>
      </trkpt>
      <trkpt lat="43.62346" lon="1.26144">
        <ele>231.740915</ele>
        <time>2023-01-03T14:24:29.156Z</time>
      </trkpt>
      <trkpt lat="43.62342" lon="1.26159">
        <ele>231.763948</ele>
        <time>2023-01-03T14:24:32.161Z</time>
      </trkpt>
      <trkpt lat="43.62338" lon="1.26174">
        <ele>231.872112</ele>
        <time>2023-01-03T14:24:35.179Z</time>
      </trkpt>
      <trkpt lat="43.62335" lon="1.2619">
        <ele>232.001597</ele>
        <time>2023-01-03T14:24:38.155Z</time>
      </trkpt>
      <trkpt lat="43.62332" lon="1.26206">
        <ele>232.131987</ele>
        <time>2023-01-03T14:24:41.174Z</time>
      </trkpt>
      <trkpt lat="43.62328" lon="1.26225">
        <ele>232.277987</ele>
        <time>2023-01-03T14:24:44.181Z</time>
      </trkpt>
      <trkpt lat="43.62326" lon="1.26243">
        <ele>232.41943</ele>
        <time>2023-01-03T14:24:47.176Z</time>
      </trkpt>
      <trkpt lat="43.62324" lon="1.26255">
        <ele>232.518055</ele>
        <time>2023-01-03T14:24:49.175Z</time>
      </trkpt>
      <trkpt lat="43.62323" lon="1.26268">
        <ele>232.616104</ele>
        <time>2023-01-03T14:24:51.176Z</time>
      </trkpt>
      <trkpt lat="43.62321" lon="1.2628">
        <ele>232.714748</ele>
        <time>2023-01-03T14:24:53.174Z</time>
      </trkpt>
      <trkpt lat="43.6232" lon="1.26293">
        <ele>232.815393</ele>
        <time>2023-01-03T14:24:55.170Z</time>
      </trkpt>
      <trkpt lat="43.62319" lon="1.26306">
        <ele>232.917445</ele>
        <time>2023-01-03T14:24:57.170Z</time>
      </trkpt>
      <trkpt lat="43.62317" lon="1.26319">
        <ele>233.01891</ele>
        <time>2023-01-03T14:24:59.161Z</time>
      </trkpt>
      <trkpt lat="43.62316" lon="1.26333">
        <ele>233.127662</ele>
        <time>2023-01-03T14:25:01.179Z</time>
      </trkpt>
      <trkpt lat="43.62315" lon="1.26347">
        <ele>233.236635</ele>
        <time>2023-01-03T14:25:03.166Z</time>
      </trkpt>
      <trkpt lat="43.62314" lon="1.26361">
        <ele>233.344191</ele>
        <time>2023-01-03T14:25:05.176Z</time>
      </trkpt>
      <trkpt lat="43.62312" lon="1.26374">
        <ele>233.449882</ele>
        <time>2023-01-03T14:25:07.176Z</time>
      </trkpt>
      <trkpt lat="43.62311" lon="1.26388">
        <ele>233.557572</ele>
        <time>2023-01-03T14:25:09.155Z</time>
      </trkpt>
      <trkpt lat="43.62309" lon="1.26402">
        <ele>233.667422</ele>
        <time>2023-01-03T14:25:11.168Z</time>
      </trkpt>
      <trkpt lat="43.62308" lon="1.26416">
        <ele>233.677906</ele>
        <time>2023-01-03T14:25:13.162Z</time>
      </trkpt>
      <trkpt lat="43.62306" lon="1.2643">
        <ele>233.661642</ele>
        <time>2023-01-03T14:25:15.164Z</time>
      </trkpt>
      <trkpt lat="43.62304" lon="1.26444">
        <ele>233.645627</ele>
        <time>2023-01-03T14:25:17.147Z</time>
      </trkpt>
      <trkpt lat="43.62303" lon="1.26458">
        <ele>233.629657</ele>
        <time>2023-01-03T14:25:19.167Z</time>
      </trkpt>
      <trkpt lat="43.62301" lon="1.26473">
        <ele>233.613554</ele>
        <time>2023-01-03T14:25:21.176Z</time>
      </trkpt>
      <trkpt lat="43.623" lon="1.26486">
        <ele>233.597932</ele>
        <time>2023-01-03T14:25:23.153Z</time>
      </trkpt>
      <trkpt lat="43.62298" lon="1.265">
        <ele>233.582469</ele>
        <time>2023-01-03T14:25:25.176Z</time>
      </trkpt>
      <trkpt lat="43.62297" lon="1.26513">
        <ele>233.566987</ele>
        <time>2023-01-03T14:25:27.166Z</time>
      </trkpt>
      <trkpt lat="43.62296" lon="1.26527">
        <ele>233.551006</ele>
        <time>2023-01-03T14:25:29.157Z</time>
      </trkpt>
      <trkpt lat="43.62295" lon="1.26541">
        <ele>233.536104</ele>
        <time>2023-01-03T14:25:31.175Z</time>
      </trkpt>
      <trkpt lat="43.62296" lon="1.26555">
        <ele>233.520056</ele>
        <time>2023-01-03T14:25:33.180Z</time>
      </trkpt>
      <trkpt lat="43.62296" lon="1.26569">
        <ele>233.503879</ele>
        <time>2023-01-03T14:25:35.177Z</time>
      </trkpt>
      <trkpt lat="43.62297" lon="1.26583">
        <ele>233.487797</ele>
        <time>2023-01-03T14:25:37.180Z</time>
      </trkpt>
      <trkpt lat="43.62299" lon="1.26597">
        <ele>233.471643</ele>
        <time>2023-01-03T14:25:39.158Z</time>
      </trkpt>
      <trkpt lat="43.623" lon="1.26611">
        <ele>233.456098</ele>
        <time>2023-01-03T14:25:41.178Z</time>
      </trkpt>
      <trkpt lat="43.62302" lon="1.26624">
        <ele>233.440647</ele>
        <time>2023-01-03T14:25:43.176Z</time>
      </trkpt>
      <trkpt lat="43.62305" lon="1.26638">
        <ele>233.425049</ele>
        <time>2023-01-03T14:25:45.166Z</time>
      </trkpt>
      <trkpt lat="43.62306" lon="1.26652">
        <ele>233.414148</ele>
        <time>2023-01-03T14:25:47.166Z</time>
      </trkpt>
      <trkpt lat="43.62308" lon="1.26666">
        <ele>233.496756</ele>
        <time>2023-01-03T14:25:49.159Z</time>
      </trkpt>
      <trkpt lat="43.62311" lon="1.2668">
        <ele>233.580048</ele>
        <time>2023-01-03T14:25:51.159Z</time>
      </trkpt>
      <trkpt lat="43.62312" lon="1.26694">
        <ele>233.658619</ele>
        <time>2023-01-03T14:25:53.157Z</time>
      </trkpt>
      <trkpt lat="43.62314" lon="1.26707">
        <ele>233.734396</ele>
        <time>2023-01-03T14:25:55.158Z</time>
      </trkpt>
      <trkpt lat="43.62315" lon="1.2672">
        <ele>233.809931</ele>
        <time>2023-01-03T14:25:57.161Z</time>
      </trkpt>
      <trkpt lat="43.62317" lon="1.26734">
        <ele>233.889619</ele>
        <time>2023-01-03T14:25:59.155Z</time>
      </trkpt>
      <trkpt lat="43.62319" lon="1.26747">
        <ele>233.960443</ele>
        <time>2023-01-03T14:26:01.177Z</time>
      </trkpt>
      <trkpt lat="43.62321" lon="1.26759">
        <ele>234.034826</ele>
        <time>2023-01-03T14:26:03.162Z</time>
      </trkpt>
      <trkpt lat="43.62323" lon="1.26772">
        <ele>234.108583</ele>
        <time>2023-01-03T14:26:05.160Z</time>
      </trkpt>
      <trkpt lat="43.62324" lon="1.26785">
        <ele>234.181878</ele>
        <time>2023-01-03T14:26:07.165Z</time>
      </trkpt>
      <trkpt lat="43.62325" lon="1.26797">
        <ele>234.252257</ele>
        <time>2023-01-03T14:26:09.153Z</time>
      </trkpt>
      <trkpt lat="43.62327" lon="1.2681">
        <ele>234.325938</ele>
        <time>2023-01-03T14:26:11.159Z</time>
      </trkpt>
      <trkpt lat="43.62329" lon="1.26823">
        <ele>234.401906</ele>
        <time>2023-01-03T14:26:13.162Z</time>
      </trkpt>
      <trkpt lat="43.62331" lon="1.26841">
        <ele>234.503665</ele>
        <time>2023-01-03T14:26:16.176Z</time>
      </trkpt>
      <trkpt lat="43.62333" lon="1.26857">
        <ele>234.596712</ele>
        <time>2023-01-03T14:26:19.151Z</time>
      </trkpt>
      <trkpt lat="43.62334" lon="1.26869">
        <ele>234.667208</ele>
        <time>2023-01-03T14:26:23.155Z</time>
      </trkpt>
      <trkpt lat="43.62336" lon="1.26889">
        <ele>234.778717</ele>
        <time>2023-01-03T14:28:24.168Z</time>
      </trkpt>
      <trkpt lat="43.62339" lon="1.26903">
        <ele>234.873664</ele>
        <time>2023-01-03T14:28:27.155Z</time>
      </trkpt>
      <trkpt lat="43.6234" lon="1.26917">
        <ele>234.988714</ele>
        <time>2023-01-03T14:28:30.154Z</time>
      </trkpt>
      <trkpt lat="43.62342" lon="1.26932">
        <ele>235.107757</ele>
        <time>2023-01-03T14:28:33.152Z</time>
      </trkpt>
      <trkpt lat="43.62344" lon="1.26948">
        <ele>235.239608</ele>
        <time>2023-01-03T14:28:36.156Z</time>
      </trkpt>
      <trkpt lat="43.62349" lon="1.26964">
        <ele>235.376907</ele>
        <time>2023-01-03T14:28:39.159Z</time>
      </trkpt>
      <trkpt lat="43.62351" lon="1.26981">
        <ele>235.513088</ele>
        <time>2023-01-03T14:28:42.160Z</time>
      </trkpt>
      <trkpt lat="43.62354" lon="1.26998">
        <ele>235.649758</ele>
        <time>2023-01-03T14:28:45.154Z</time>
      </trkpt>
      <trkpt lat="43.62356" lon="1.27015">
        <ele>235.788948</ele>
        <time>2023-01-03T14:28:48.162Z</time>
      </trkpt>
      <trkpt lat="43.62359" lon="1.27033">
        <ele>235.929116</ele>
        <time>2023-01-03T14:28:51.154Z</time>
      </trkpt>
      <trkpt lat="43.62361" lon="1.2705">
        <ele>236.07084</ele>
        <time>2023-01-03T14:28:54.161Z</time>
      </trkpt>
      <trkpt lat="43.62364" lon="1.27068">
        <ele>236.211372</ele>
        <time>2023-01-03T14:28:57.175Z</time>
      </trkpt>
      <trkpt lat="43.62366" lon="1.2708">
        <ele>236.314221</ele>
        <time>2023-01-03T14:28:59.155Z</time>
      </trkpt>
      <trkpt lat="43.62369" lon="1.27092">
        <ele>236.412946</ele>
        <time>2023-01-03T14:29:01.159Z</time>
      </trkpt>
      <trkpt lat="43.62371" lon="1.27109">
        <ele>236.544744</ele>
        <time>2023-01-03T14:29:04.160Z</time>
      </trkpt>
      <trkpt lat="43.62374" lon="1.27123">
        <ele>236.663785</ele>
        <time>2023-01-03T14:29:07.160Z</time>
      </trkpt>
      <trkpt lat="43.62378" lon="1.27138">
        <ele>236.782932</ele>
        <time>2023-01-03T14:29:10.167Z</time>
      </trkpt>
      <trkpt lat="43.62381" lon="1.27154">
        <ele>236.784762</ele>
        <time>2023-01-03T14:29:13.182Z</time>
      </trkpt>
      <trkpt lat="43.62384" lon="1.27171">
        <ele>236.786685</ele>
        <time>2023-01-03T14:29:16.173Z</time>
      </trkpt>
      <trkpt lat="43.62389" lon="1.27188">
        <ele>236.788725</ele>
        <time>2023-01-03T14:29:19.153Z</time>
      </trkpt>
      <trkpt lat="43.62392" lon="1.272">
        <ele>236.790121</ele>
        <time>2023-01-03T14:29:21.161Z</time>
      </trkpt>
      <trkpt lat="43.62396" lon="1.27219">
        <ele>236.792229</ele>
        <time>2023-01-03T14:29:24.175Z</time>
      </trkpt>
      <trkpt lat="43.62399" lon="1.27232">
        <ele>236.793709</ele>
        <time>2023-01-03T14:29:26.162Z</time>
      </trkpt>
      <trkpt lat="43.62402" lon="1.27244">
        <ele>236.795145</ele>
        <time>2023-01-03T14:29:28.160Z</time>
      </trkpt>
      <trkpt lat="43.62404" lon="1.27257">
        <ele>236.796587</ele>
        <time>2023-01-03T14:29:30.192Z</time>
      </trkpt>
      <trkpt lat="43.62407" lon="1.2727">
        <ele>236.798074</ele>
        <time>2023-01-03T14:29:32.171Z</time>
      </trkpt>
      <trkpt lat="43.6241" lon="1.27283">
        <ele>236.799561</ele>
        <time>2023-01-03T14:29:34.162Z</time>
      </trkpt>
      <trkpt lat="43.62413" lon="1.27296">
        <ele>236.801105</ele>
        <time>2023-01-03T14:29:36.152Z</time>
      </trkpt>
      <trkpt lat="43.62416" lon="1.2731">
        <ele>236.80264</ele>
        <time>2023-01-03T14:29:38.159Z</time>
      </trkpt>
      <trkpt lat="43.6242" lon="1.27323">
        <ele>236.804219</ele>
        <time>2023-01-03T14:29:40.161Z</time>
      </trkpt>
      <trkpt lat="43.62423" lon="1.27337">
        <ele>236.80577</ele>
        <time>2023-01-03T14:29:42.160Z</time>
      </trkpt>
      <trkpt lat="43.62426" lon="1.2735">
        <ele>236.80732</ele>
        <time>2023-01-03T14:29:44.162Z</time>
      </trkpt>
      <trkpt lat="43.62429" lon="1.27364">
        <ele>236.808865</ele>
        <time>2023-01-03T14:29:46.160Z</time>
      </trkpt>
      <trkpt lat="43.62431" lon="1.27377">
        <ele>236.822535</ele>
        <time>2023-01-03T14:29:48.163Z</time>
      </trkpt>
      <trkpt lat="43.62434" lon="1.27391">
        <ele>236.879931</ele>
        <time>2023-01-03T14:29:50.174Z</time>
      </trkpt>
      <trkpt lat="43.62437" lon="1.27404">
        <ele>236.937727</ele>
        <time>2023-01-03T14:29:52.176Z</time>
      </trkpt>
      <trkpt lat="43.6244" lon="1.27418">
        <ele>236.996009</ele>
        <time>2023-01-03T14:29:54.157Z</time>
      </trkpt>
      <trkpt lat="43.62443" lon="1.27431">
        <ele>237.053328</ele>
        <time>2023-01-03T14:29:56.164Z</time>
      </trkpt>
      <trkpt lat="43.62446" lon="1.27444">
        <ele>237.109455</ele>
        <time>2023-01-03T14:29:58.175Z</time>
      </trkpt>
      <trkpt lat="43.62449" lon="1.27461">
        <ele>237.185608</ele>
        <time>2023-01-03T14:30:01.174Z</time>
      </trkpt>
      <trkpt lat="43.62453" lon="1.27476">
        <ele>237.251885</ele>
        <time>2023-01-03T14:30:04.163Z</time>
      </trkpt>
      <trkpt lat="43.62455" lon="1.2749">
        <ele>237.308034</ele>
        <time>2023-01-03T14:30:07.175Z</time>
      </trkpt>
      <trkpt lat="43.62458" lon="1.27502">
        <ele>237.363432</ele>
        <time>2023-01-03T14:30:10.167Z</time>
      </trkpt>
      <trkpt lat="43.62461" lon="1.27516">
        <ele>237.422344</ele>
        <time>2023-01-03T14:30:13.165Z</time>
      </trkpt>
      <trkpt lat="43.62464" lon="1.27531">
        <ele>237.488209</ele>
        <time>2023-01-03T14:30:16.167Z</time>
      </trkpt>
      <trkpt lat="43.62466" lon="1.27548">
        <ele>237.56</ele>
        <time>2023-01-03T14:30:19.149Z</time>
      </trkpt>
      <trkpt lat="43.6247" lon="1.27566">
        <ele>237.637015</ele>
        <time>2023-01-03T14:30:22.155Z</time>
      </trkpt>
      <trkpt lat="43.62472" lon="1.27579">
        <ele>237.691385</ele>
        <time>2023-01-03T14:30:24.154Z</time>
      </trkpt>
      <trkpt lat="43.62475" lon="1.27591">
        <ele>237.744434</ele>
        <time>2023-01-03T14:30:26.165Z</time>
      </trkpt>
      <trkpt lat="43.62477" lon="1.27604">
        <ele>237.797754</ele>
        <time>2023-01-03T14:30:28.159Z</time>
      </trkpt>
      <trkpt lat="43.62479" lon="1.27616">
        <ele>237.835741</ele>
        <time>2023-01-03T14:30:30.171Z</time>
      </trkpt>
      <trkpt lat="43.62481" lon="1.27629">
        <ele>237.797241</ele>
        <time>2023-01-03T14:30:32.166Z</time>
      </trkpt>
      <trkpt lat="43.62482" lon="1.27641">
        <ele>237.759779</ele>
        <time>2023-01-03T14:30:34.174Z</time>
      </trkpt>
      <trkpt lat="43.62483" lon="1.27654">
        <ele>237.722737</ele>
        <time>2023-01-03T14:30:36.176Z</time>
      </trkpt>
      <trkpt lat="43.62484" lon="1.27666">
        <ele>237.685069</ele>
        <time>2023-01-03T14:30:38.180Z</time>
      </trkpt>
      <trkpt lat="43.62485" lon="1.27684">
        <ele>237.631328</ele>
        <time>2023-01-03T14:30:41.175Z</time>
      </trkpt>
      <trkpt lat="43.62485" lon="1.27697">
        <ele>237.59384</ele>
        <time>2023-01-03T14:30:43.173Z</time>
      </trkpt>
      <trkpt lat="43.62483" lon="1.27709">
        <ele>237.556507</ele>
        <time>2023-01-03T14:30:45.161Z</time>
      </trkpt>
      <trkpt lat="43.62479" lon="1.27727">
        <ele>237.501526</ele>
        <time>2023-01-03T14:30:48.181Z</time>
      </trkpt>
      <trkpt lat="43.62473" lon="1.27742">
        <ele>237.448381</ele>
        <time>2023-01-03T14:30:51.177Z</time>
      </trkpt>
      <trkpt lat="43.62468" lon="1.27753">
        <ele>237.410242</ele>
        <time>2023-01-03T14:30:53.176Z</time>
      </trkpt>
      <trkpt lat="43.62463" lon="1.27765">
        <ele>237.368843</ele>
        <time>2023-01-03T14:30:55.176Z</time>
      </trkpt>
      <trkpt lat="43.62457" lon="1.27777">
        <ele>237.326084</ele>
        <time>2023-01-03T14:30:57.179Z</time>
      </trkpt>
      <trkpt lat="43.62452" lon="1.2779">
        <ele>237.281843</ele>
        <time>2023-01-03T14:30:59.155Z</time>
      </trkpt>
      <trkpt lat="43.62446" lon="1.27803">
        <ele>237.235394</ele>
        <time>2023-01-03T14:31:01.163Z</time>
      </trkpt>
      <trkpt lat="43.62441" lon="1.27818">
        <ele>237.188593</ele>
        <time>2023-01-03T14:31:03.164Z</time>
      </trkpt>
      <trkpt lat="43.62436" lon="1.27832">
        <ele>237.141544</ele>
        <time>2023-01-03T14:31:05.168Z</time>
      </trkpt>
      <trkpt lat="43.62432" lon="1.27846">
        <ele>237.071066</ele>
        <time>2023-01-03T14:31:07.176Z</time>
      </trkpt>
      <trkpt lat="43.62429" lon="1.2786">
        <ele>236.806754</ele>
        <time>2023-01-03T14:31:09.153Z</time>
      </trkpt>
      <trkpt lat="43.62427" lon="1.27875">
        <ele>236.541186</ele>
        <time>2023-01-03T14:31:11.162Z</time>
      </trkpt>
      <trkpt lat="43.62426" lon="1.27889">
        <ele>236.296551</ele>
        <time>2023-01-03T14:31:13.175Z</time>
      </trkpt>
      <trkpt lat="43.62426" lon="1.27903">
        <ele>236.044301</ele>
        <time>2023-01-03T14:31:15.160Z</time>
      </trkpt>
      <trkpt lat="43.62425" lon="1.27919">
        <ele>235.75972</ele>
        <time>2023-01-03T14:31:17.156Z</time>
      </trkpt>
      <trkpt lat="43.62424" lon="1.27936">
        <ele>235.462893</ele>
        <time>2023-01-03T14:31:19.152Z</time>
      </trkpt>
      <trkpt lat="43.62424" lon="1.27953">
        <ele>235.170075</ele>
        <time>2023-01-03T14:31:21.174Z</time>
      </trkpt>
      <trkpt lat="43.62424" lon="1.27968">
        <ele>234.889445</ele>
        <time>2023-01-03T14:31:23.148Z</time>
      </trkpt>
      <trkpt lat="43.62425" lon="1.27985">
        <ele>234.598034</ele>
        <time>2023-01-03T14:31:25.162Z</time>
      </trkpt>
      <trkpt lat="43.62426" lon="1.28001">
        <ele>234.30773</ele>
        <time>2023-01-03T14:31:27.176Z</time>
      </trkpt>
      <trkpt lat="43.62427" lon="1.28018">
        <ele>234.01873</ele>
        <time>2023-01-03T14:31:29.150Z</time>
      </trkpt>
      <trkpt lat="43.62429" lon="1.28033">
        <ele>233.747</ele>
        <time>2023-01-03T14:31:31.159Z</time>
      </trkpt>
      <trkpt lat="43.62429" lon="1.28049">
        <ele>233.471735</ele>
        <time>2023-01-03T14:31:33.155Z</time>
      </trkpt>
      <trkpt lat="43.62429" lon="1.28065">
        <ele>233.189468</ele>
        <time>2023-01-03T14:31:35.164Z</time>
      </trkpt>
      <trkpt lat="43.62427" lon="1.28081">
        <ele>232.901965</ele>
        <time>2023-01-03T14:31:37.172Z</time>
      </trkpt>
      <trkpt lat="43.62426" lon="1.28097">
        <ele>232.397425</ele>
        <time>2023-01-03T14:31:39.154Z</time>
      </trkpt>
      <trkpt lat="43.62423" lon="1.28111">
        <ele>231.61519</ele>
        <time>2023-01-03T14:31:41.163Z</time>
      </trkpt>
      <trkpt lat="43.6242" lon="1.28124">
        <ele>230.843294</ele>
        <time>2023-01-03T14:31:43.164Z</time>
      </trkpt>
      <trkpt lat="43.62415" lon="1.28137">
        <ele>230.066093</ele>
        <time>2023-01-03T14:31:45.167Z</time>
      </trkpt>
      <trkpt lat="43.62407" lon="1.28149">
        <ele>229.214762</ele>
        <time>2023-01-03T14:31:47.152Z</time>
      </trkpt>
      <trkpt lat="43.62398" lon="1.28162">
        <ele>228.236788</ele>
        <time>2023-01-03T14:31:49.145Z</time>
      </trkpt>
      <trkpt lat="43.62389" lon="1.28175">
        <ele>227.231554</ele>
        <time>2023-01-03T14:31:51.178Z</time>
      </trkpt>
      <trkpt lat="43.6238" lon="1.2819">
        <ele>226.185074</ele>
        <time>2023-01-03T14:31:53.170Z</time>
      </trkpt>
      <trkpt lat="43.62372" lon="1.28207">
        <ele>225.138451</ele>
        <time>2023-01-03T14:31:55.162Z</time>
      </trkpt>
      <trkpt lat="43.62365" lon="1.28224">
        <ele>224.042988</ele>
        <time>2023-01-03T14:31:57.159Z</time>
      </trkpt>
      <trkpt lat="43.62358" lon="1.28241">
        <ele>223.015442</ele>
        <time>2023-01-03T14:31:59.149Z</time>
      </trkpt>
      <trkpt lat="43.62352" lon="1.28258">
        <ele>221.971019</ele>
        <time>2023-01-03T14:32:01.164Z</time>
      </trkpt>
      <trkpt lat="43.62345" lon="1.28275">
        <ele>220.93256</ele>
        <time>2023-01-03T14:32:03.154Z</time>
      </trkpt>
      <trkpt lat="43.62339" lon="1.28291">
        <ele>219.953184</ele>
        <time>2023-01-03T14:32:05.155Z</time>
      </trkpt>
      <trkpt lat="43.62334" lon="1.28307">
        <ele>219.014935</ele>
        <time>2023-01-03T14:32:07.172Z</time>
      </trkpt>
      <trkpt lat="43.62329" lon="1.28323">
        <ele>218.158506</ele>
        <time>2023-01-03T14:32:09.149Z</time>
      </trkpt>
      <trkpt lat="43.62324" lon="1.2834">
        <ele>217.240171</ele>
        <time>2023-01-03T14:32:11.173Z</time>
      </trkpt>
      <trkpt lat="43.62318" lon="1.28356">
        <ele>216.333024</ele>
        <time>2023-01-03T14:32:13.171Z</time>
      </trkpt>
      <trkpt lat="43.62312" lon="1.28373">
        <ele>215.372461</ele>
        <time>2023-01-03T14:32:15.221Z</time>
      </trkpt>
      <trkpt lat="43.62304" lon="1.28389">
        <ele>214.404454</ele>
        <time>2023-01-03T14:32:17.151Z</time>
      </trkpt>
      <trkpt lat="43.62296" lon="1.28405">
        <ele>213.420716</ele>
        <time>2023-01-03T14:32:19.146Z</time>
      </trkpt>
      <trkpt lat="43.62289" lon="1.28421">
        <ele>212.432019</ele>
        <time>2023-01-03T14:32:21.156Z</time>
      </trkpt>
      <trkpt lat="43.62284" lon="1.2844">
        <ele>211.42556</ele>
        <time>2023-01-03T14:32:23.154Z</time>
      </trkpt>
      <trkpt lat="43.62282" lon="1.28461">
        <ele>210.380791</ele>
        <time>2023-01-03T14:32:25.148Z</time>
      </trkpt>
      <trkpt lat="43.6228" lon="1.28483">
        <ele>209.285237</ele>
        <time>2023-01-03T14:32:27.168Z</time>
      </trkpt>
      <trkpt lat="43.6228" lon="1.28504">
        <ele>208.202073</ele>
        <time>2023-01-03T14:32:29.169Z</time>
      </trkpt>
      <trkpt lat="43.6228" lon="1.28524">
        <ele>207.17949</ele>
        <time>2023-01-03T14:32:31.167Z</time>
      </trkpt>
      <trkpt lat="43.6228" lon="1.28542">
        <ele>206.758525</ele>
        <time>2023-01-03T14:32:33.159Z</time>
      </trkpt>
      <trkpt lat="43.62279" lon="1.28557">
        <ele>206.709985</ele>
        <time>2023-01-03T14:32:35.159Z</time>
      </trkpt>
      <trkpt lat="43.6228" lon="1.28571">
        <ele>206.666146</ele>
        <time>2023-01-03T14:32:37.175Z</time>
      </trkpt>
      <trkpt lat="43.62279" lon="1.28584">
        <ele>206.624805</ele>
        <time>2023-01-03T14:32:39.154Z</time>
      </trkpt>
      <trkpt lat="43.62279" lon="1.28597">
        <ele>206.582225</ele>
        <time>2023-01-03T14:32:41.154Z</time>
      </trkpt>
      <trkpt lat="43.62279" lon="1.28611">
        <ele>206.538418</ele>
        <time>2023-01-03T14:32:43.165Z</time>
      </trkpt>
      <trkpt lat="43.62279" lon="1.28625">
        <ele>206.495243</ele>
        <time>2023-01-03T14:32:45.174Z</time>
      </trkpt>
      <trkpt lat="43.62278" lon="1.28639">
        <ele>206.452243</ele>
        <time>2023-01-03T14:32:47.161Z</time>
      </trkpt>
      <trkpt lat="43.62279" lon="1.28656">
        <ele>206.398955</ele>
        <time>2023-01-03T14:32:50.160Z</time>
      </trkpt>
      <trkpt lat="43.62279" lon="1.28669">
        <ele>206.356076</ele>
        <time>2023-01-03T14:32:53.159Z</time>
      </trkpt>
      <trkpt lat="43.62276" lon="1.28683">
        <ele>206.311937</ele>
        <time>2023-01-03T14:32:56.173Z</time>
      </trkpt>
      <trkpt lat="43.62267" lon="1.2869">
        <ele>206.264302</ele>
        <time>2023-01-03T14:32:59.177Z</time>
      </trkpt>
      <trkpt lat="43.62255" lon="1.28692">
        <ele>206.211385</ele>
        <time>2023-01-03T14:33:02.166Z</time>
      </trkpt>
      <trkpt lat="43.62242" lon="1.28692">
        <ele>206.156529</ele>
        <time>2023-01-03T14:33:05.172Z</time>
      </trkpt>
      <trkpt lat="43.62233" lon="1.28693">
        <ele>206.116761</ele>
        <time>2023-01-03T14:33:07.155Z</time>
      </trkpt>
      <trkpt lat="43.62224" lon="1.28694">
        <ele>206.076175</ele>
        <time>2023-01-03T14:33:09.154Z</time>
      </trkpt>
      <trkpt lat="43.62214" lon="1.28695">
        <ele>206.033002</ele>
        <time>2023-01-03T14:33:11.146Z</time>
      </trkpt>
      <trkpt lat="43.62205" lon="1.28695">
        <ele>205.991826</ele>
        <time>2023-01-03T14:33:13.164Z</time>
      </trkpt>
      <trkpt lat="43.62194" lon="1.28695">
        <ele>205.939158</ele>
        <time>2023-01-03T14:33:16.154Z</time>
      </trkpt>
      <trkpt lat="43.62183" lon="1.28696">
        <ele>205.887457</ele>
        <time>2023-01-03T14:33:19.158Z</time>
      </trkpt>
      <trkpt lat="43.62162" lon="1.28699">
        <ele>205.779473</ele>
        <time>2023-01-03T14:34:04.177Z</time>
      </trkpt>
      <trkpt lat="43.62151" lon="1.28703">
        <ele>205.726522</ele>
        <time>2023-01-03T14:34:08.154Z</time>
      </trkpt>
      <trkpt lat="43.62149" lon="1.28715">
        <ele>205.681603</ele>
        <time>2023-01-03T14:34:14.152Z</time>
      </trkpt>
      <trkpt lat="43.62149" lon="1.28728">
        <ele>205.63635</ele>
        <time>2023-01-03T14:34:17.189Z</time>
      </trkpt>
      <trkpt lat="43.6215" lon="1.28743">
        <ele>205.582719</ele>
        <time>2023-01-03T14:34:20.163Z</time>
      </trkpt>
      <trkpt lat="43.6215" lon="1.28759">
        <ele>205.523568</ele>
        <time>2023-01-03T14:34:23.151Z</time>
      </trkpt>
      <trkpt lat="43.62149" lon="1.28777">
        <ele>205.460531</ele>
        <time>2023-01-03T14:34:26.157Z</time>
      </trkpt>
      <trkpt lat="43.62146" lon="1.28794">
        <ele>205.398466</ele>
        <time>2023-01-03T14:34:29.151Z</time>
      </trkpt>
      <trkpt lat="43.62144" lon="1.28811">
        <ele>205.337619</ele>
        <time>2023-01-03T14:34:32.158Z</time>
      </trkpt>
      <trkpt lat="43.6214" lon="1.28826">
        <ele>205.279977</ele>
        <time>2023-01-03T14:34:35.169Z</time>
      </trkpt>
      <trkpt lat="43.62137" lon="1.28841">
        <ele>205.225817</ele>
        <time>2023-01-03T14:34:38.165Z</time>
      </trkpt>
      <trkpt lat="43.62132" lon="1.28852">
        <ele>205.179838</ele>
        <time>2023-01-03T14:34:41.162Z</time>
      </trkpt>
      <trkpt lat="43.6213" lon="1.28864">
        <ele>205.134571</ele>
        <time>2023-01-03T14:34:45.155Z</time>
      </trkpt>
      <trkpt lat="43.62128" lon="1.28878">
        <ele>205.240775</ele>
        <time>2023-01-03T14:34:49.158Z</time>
      </trkpt>
      <trkpt lat="43.62122" lon="1.28888">
        <ele>205.399563</ele>
        <time>2023-01-03T14:34:53.151Z</time>
      </trkpt>
      <trkpt lat="43.62112" lon="1.28888">
        <ele>205.560073</ele>
        <time>2023-01-03T14:34:57.163Z</time>
      </trkpt>
      <trkpt lat="43.62102" lon="1.28888">
        <ele>205.727282</ele>
        <time>2023-01-03T14:35:01.161Z</time>
      </trkpt>
      <trkpt lat="43.62091" lon="1.28884">
        <ele>205.917914</ele>
        <time>2023-01-03T14:35:06.176Z</time>
      </trkpt>
      <trkpt lat="43.62083" lon="1.28879">
        <ele>206.077961</ele>
        <time>2023-01-03T14:35:10.175Z</time>
      </trkpt>
      <trkpt lat="43.62068" lon="1.28881">
        <ele>206.330448</ele>
        <time>2023-01-03T14:35:57.169Z</time>
      </trkpt>
      <trkpt lat="43.62057" lon="1.28877">
        <ele>206.510658</ele>
        <time>2023-01-03T14:36:01.163Z</time>
      </trkpt>
      <trkpt lat="43.62046" lon="1.28875">
        <ele>206.706894</ele>
        <time>2023-01-03T14:36:05.165Z</time>
      </trkpt>
      <trkpt lat="43.62035" lon="1.28871">
        <ele>206.890203</ele>
        <time>2023-01-03T14:36:09.172Z</time>
      </trkpt>
      <trkpt lat="43.62025" lon="1.28868">
        <ele>207.07344</ele>
        <time>2023-01-03T14:36:13.173Z</time>
      </trkpt>
      <trkpt lat="43.62014" lon="1.28863">
        <ele>207.274585</ele>
        <time>2023-01-03T14:36:17.156Z</time>
      </trkpt>
      <trkpt lat="43.62002" lon="1.28858">
        <ele>207.47299</ele>
        <time>2023-01-03T14:36:21.150Z</time>
      </trkpt>
      <trkpt lat="43.61991" lon="1.28854">
        <ele>207.668299</ele>
        <time>2023-01-03T14:36:25.152Z</time>
      </trkpt>
      <trkpt lat="43.6198" lon="1.28853">
        <ele>207.861941</ele>
        <time>2023-01-03T14:36:29.152Z</time>
      </trkpt>
      <trkpt lat="43.61969" lon="1.2885">
        <ele>208.047745</ele>
        <time>2023-01-03T14:36:33.163Z</time>
      </trkpt>
      <trkpt lat="43.61959" lon="1.28849">
        <ele>208.115641</ele>
        <time>2023-01-03T14:36:38.149Z</time>
      </trkpt>
      <trkpt lat="43.61953" lon="1.28873">
        <ele>207.883321</ele>
        <time>2023-01-03T14:37:04.150Z</time>
      </trkpt>
      <trkpt lat="43.61951" lon="1.28889">
        <ele>207.736848</ele>
        <time>2023-01-03T14:37:07.159Z</time>
      </trkpt>
      <trkpt lat="43.61948" lon="1.28907">
        <ele>207.570959</ele>
        <time>2023-01-03T14:37:10.158Z</time>
      </trkpt>
      <trkpt lat="43.61947" lon="1.2892">
        <ele>207.44915</ele>
        <time>2023-01-03T14:37:12.163Z</time>
      </trkpt>
      <trkpt lat="43.61945" lon="1.28938">
        <ele>207.289351</ele>
        <time>2023-01-03T14:37:15.164Z</time>
      </trkpt>
      <trkpt lat="43.61943" lon="1.28955">
        <ele>207.130344</ele>
        <time>2023-01-03T14:37:18.161Z</time>
      </trkpt>
      <trkpt lat="43.61942" lon="1.28972">
        <ele>206.972483</ele>
        <time>2023-01-03T14:37:21.164Z</time>
      </trkpt>
      <trkpt lat="43.61938" lon="1.2899">
        <ele>206.801781</ele>
        <time>2023-01-03T14:37:24.168Z</time>
      </trkpt>
      <trkpt lat="43.61937" lon="1.29008">
        <ele>206.636126</ele>
        <time>2023-01-03T14:37:27.157Z</time>
      </trkpt>
      <trkpt lat="43.61935" lon="1.29027">
        <ele>206.469234</ele>
        <time>2023-01-03T14:37:30.173Z</time>
      </trkpt>
      <trkpt lat="43.61933" lon="1.29039">
        <ele>206.349534</ele>
        <time>2023-01-03T14:37:32.172Z</time>
      </trkpt>
      <trkpt lat="43.6193" lon="1.29057">
        <ele>206.185425</ele>
        <time>2023-01-03T14:37:35.169Z</time>
      </trkpt>
      <trkpt lat="43.61929" lon="1.2907">
        <ele>206.068634</ele>
        <time>2023-01-03T14:37:37.174Z</time>
      </trkpt>
      <trkpt lat="43.61927" lon="1.29084">
        <ele>205.935692</ele>
        <time>2023-01-03T14:37:39.164Z</time>
      </trkpt>
      <trkpt lat="43.61925" lon="1.29099">
        <ele>205.878658</ele>
        <time>2023-01-03T14:37:41.169Z</time>
      </trkpt>
      <trkpt lat="43.61923" lon="1.29115">
        <ele>205.846907</ele>
        <time>2023-01-03T14:37:43.175Z</time>
      </trkpt>
      <trkpt lat="43.61921" lon="1.29131">
        <ele>205.812287</ele>
        <time>2023-01-03T14:37:45.173Z</time>
      </trkpt>
      <trkpt lat="43.6192" lon="1.29148">
        <ele>205.777703</ele>
        <time>2023-01-03T14:37:47.175Z</time>
      </trkpt>
      <trkpt lat="43.61918" lon="1.29164">
        <ele>205.745411</ele>
        <time>2023-01-03T14:37:49.155Z</time>
      </trkpt>
      <trkpt lat="43.61916" lon="1.29176">
        <ele>205.719943</ele>
        <time>2023-01-03T14:37:51.161Z</time>
      </trkpt>
      <trkpt lat="43.61914" lon="1.2919">
        <ele>205.691822</ele>
        <time>2023-01-03T14:37:54.157Z</time>
      </trkpt>
      <trkpt lat="43.61913" lon="1.29205">
        <ele>205.66099</ele>
        <time>2023-01-03T14:37:57.170Z</time>
      </trkpt>
      <trkpt lat="43.61911" lon="1.29222">
        <ele>205.624631</ele>
        <time>2023-01-03T14:38:00.159Z</time>
      </trkpt>
      <trkpt lat="43.61909" lon="1.29235">
        <ele>205.598219</ele>
        <time>2023-01-03T14:38:02.175Z</time>
      </trkpt>
      <trkpt lat="43.61908" lon="1.29248">
        <ele>205.571709</ele>
        <time>2023-01-03T14:38:04.174Z</time>
      </trkpt>
      <trkpt lat="43.61906" lon="1.29261">
        <ele>205.543472</ele>
        <time>2023-01-03T14:38:06.156Z</time>
      </trkpt>
      <trkpt lat="43.61905" lon="1.29275">
        <ele>205.515858</ele>
        <time>2023-01-03T14:38:08.173Z</time>
      </trkpt>
      <trkpt lat="43.61903" lon="1.29288">
        <ele>205.488991</ele>
        <time>2023-01-03T14:38:10.174Z</time>
      </trkpt>
      <trkpt lat="43.61901" lon="1.29301">
        <ele>205.461877</ele>
        <time>2023-01-03T14:38:12.176Z</time>
      </trkpt>
      <trkpt lat="43.619" lon="1.29313">
        <ele>205.43624</ele>
        <time>2023-01-03T14:38:14.164Z</time>
      </trkpt>
      <trkpt lat="43.61898" lon="1.2933">
        <ele>205.401134</ele>
        <time>2023-01-03T14:38:17.173Z</time>
      </trkpt>
      <trkpt lat="43.61896" lon="1.29346">
        <ele>205.421924</ele>
        <time>2023-01-03T14:38:20.171Z</time>
      </trkpt>
      <trkpt lat="43.6189" lon="1.29356">
        <ele>205.447331</ele>
        <time>2023-01-03T14:38:23.169Z</time>
      </trkpt>
      <trkpt lat="43.61878" lon="1.29354">
        <ele>205.479942</ele>
        <time>2023-01-03T14:38:27.172Z</time>
      </trkpt>
      <trkpt lat="43.61867" lon="1.29346">
        <ele>205.512573</ele>
        <time>2023-01-03T14:38:30.174Z</time>
      </trkpt>
      <trkpt lat="43.61856" lon="1.29338">
        <ele>205.547561</ele>
        <time>2023-01-03T14:38:33.166Z</time>
      </trkpt>
      <trkpt lat="43.61843" lon="1.2933">
        <ele>205.583555</ele>
        <time>2023-01-03T14:38:36.168Z</time>
      </trkpt>
      <trkpt lat="43.61831" lon="1.29323">
        <ele>205.619962</ele>
        <time>2023-01-03T14:38:39.152Z</time>
      </trkpt>
      <trkpt lat="43.61819" lon="1.29314">
        <ele>205.655489</ele>
        <time>2023-01-03T14:38:42.154Z</time>
      </trkpt>
      <trkpt lat="43.61808" lon="1.29307">
        <ele>205.689136</ele>
        <time>2023-01-03T14:38:45.167Z</time>
      </trkpt>
      <trkpt lat="43.61798" lon="1.29301">
        <ele>205.719277</ele>
        <time>2023-01-03T14:38:48.171Z</time>
      </trkpt>
      <trkpt lat="43.61787" lon="1.29293">
        <ele>205.752566</ele>
        <time>2023-01-03T14:38:51.181Z</time>
      </trkpt>
      <trkpt lat="43.61775" lon="1.29285">
        <ele>205.787827</ele>
        <time>2023-01-03T14:38:54.149Z</time>
      </trkpt>
      <trkpt lat="43.61767" lon="1.29279">
        <ele>205.81264</ele>
        <time>2023-01-03T14:38:56.165Z</time>
      </trkpt>
      <trkpt lat="43.61758" lon="1.29274">
        <ele>205.837088</ele>
        <time>2023-01-03T14:38:58.174Z</time>
      </trkpt>
      <trkpt lat="43.61746" lon="1.29266">
        <ele>205.87312</ele>
        <time>2023-01-03T14:39:01.174Z</time>
      </trkpt>
      <trkpt lat="43.61738" lon="1.29261">
        <ele>205.807691</ele>
        <time>2023-01-03T14:39:03.171Z</time>
      </trkpt>
      <trkpt lat="43.61729" lon="1.29257">
        <ele>205.713924</ele>
        <time>2023-01-03T14:39:05.171Z</time>
      </trkpt>
      <trkpt lat="43.6172" lon="1.29252">
        <ele>205.614529</ele>
        <time>2023-01-03T14:39:07.174Z</time>
      </trkpt>
      <trkpt lat="43.6171" lon="1.29248">
        <ele>205.507077</ele>
        <time>2023-01-03T14:39:09.154Z</time>
      </trkpt>
      <trkpt lat="43.617" lon="1.29244">
        <ele>205.399902</ele>
        <time>2023-01-03T14:39:11.174Z</time>
      </trkpt>
      <trkpt lat="43.6169" lon="1.2924">
        <ele>205.291219</ele>
        <time>2023-01-03T14:39:13.173Z</time>
      </trkpt>
      <trkpt lat="43.6168" lon="1.29236">
        <ele>205.188665</ele>
        <time>2023-01-03T14:39:15.151Z</time>
      </trkpt>
      <trkpt lat="43.61668" lon="1.29231">
        <ele>205.05245</ele>
        <time>2023-01-03T14:39:18.174Z</time>
      </trkpt>
      <trkpt lat="43.61656" lon="1.29226">
        <ele>204.926726</ele>
        <time>2023-01-03T14:39:21.157Z</time>
      </trkpt>
      <trkpt lat="43.61644" lon="1.29221">
        <ele>204.795261</ele>
        <time>2023-01-03T14:39:24.160Z</time>
      </trkpt>
      <trkpt lat="43.61633" lon="1.29216">
        <ele>204.674221</ele>
        <time>2023-01-03T14:39:27.159Z</time>
      </trkpt>
      <trkpt lat="43.61622" lon="1.29212">
        <ele>204.559973</ele>
        <time>2023-01-03T14:39:30.169Z</time>
      </trkpt>
      <trkpt lat="43.61613" lon="1.29207">
        <ele>204.466365</ele>
        <time>2023-01-03T14:39:33.155Z</time>
      </trkpt>
      <trkpt lat="43.61604" lon="1.29207">
        <ele>204.365577</ele>
        <time>2023-01-03T14:39:40.152Z</time>
      </trkpt>
      <trkpt lat="43.61599" lon="1.29222">
        <ele>204.24784</ele>
        <time>2023-01-03T14:39:45.153Z</time>
      </trkpt>
      <trkpt lat="43.61597" lon="1.29235">
        <ele>204.145313</ele>
        <time>2023-01-03T14:39:48.166Z</time>
      </trkpt>
      <trkpt lat="43.61594" lon="1.29251">
        <ele>204.019205</ele>
        <time>2023-01-03T14:39:51.172Z</time>
      </trkpt>
      <trkpt lat="43.61591" lon="1.29268">
        <ele>203.685327</ele>
        <time>2023-01-03T14:39:54.173Z</time>
      </trkpt>
      <trkpt lat="43.61589" lon="1.29286">
        <ele>203.356726</ele>
        <time>2023-01-03T14:39:57.153Z</time>
      </trkpt>
      <trkpt lat="43.61586" lon="1.29301">
        <ele>203.060123</ele>
        <time>2023-01-03T14:40:00.168Z</time>
      </trkpt>
      <trkpt lat="43.61585" lon="1.29314">
        <ele>202.816706</ele>
        <time>2023-01-03T14:40:03.171Z</time>
      </trkpt>
      <trkpt lat="43.6158" lon="1.29324">
        <ele>202.584627</ele>
        <time>2023-01-03T14:40:08.174Z</time>
      </trkpt>
      <trkpt lat="43.61577" lon="1.29338">
        <ele>202.329708</ele>
        <time>2023-01-03T14:40:13.156Z</time>
      </trkpt>
      <trkpt lat="43.61575" lon="1.2935">
        <ele>202.086849</ele>
        <time>2023-01-03T14:40:16.151Z</time>
      </trkpt>
      <trkpt lat="43.61573" lon="1.29364">
        <ele>201.832398</ele>
        <time>2023-01-03T14:40:19.152Z</time>
      </trkpt>
      <trkpt lat="43.61571" lon="1.29378">
        <ele>201.563358</ele>
        <time>2023-01-03T14:40:22.153Z</time>
      </trkpt>
      <trkpt lat="43.61568" lon="1.29392">
        <ele>201.283217</ele>
        <time>2023-01-03T14:40:25.155Z</time>
      </trkpt>
      <trkpt lat="43.61566" lon="1.29407">
        <ele>200.999082</ele>
        <time>2023-01-03T14:40:28.169Z</time>
      </trkpt>
      <trkpt lat="43.61564" lon="1.29423">
        <ele>200.70162</ele>
        <time>2023-01-03T14:40:31.150Z</time>
      </trkpt>
      <trkpt lat="43.61562" lon="1.2944">
        <ele>200.385936</ele>
        <time>2023-01-03T14:40:34.148Z</time>
      </trkpt>
      <trkpt lat="43.61559" lon="1.29455">
        <ele>200.088664</ele>
        <time>2023-01-03T14:40:37.171Z</time>
      </trkpt>
      <trkpt lat="43.61556" lon="1.29471">
        <ele>199.789755</ele>
        <time>2023-01-03T14:40:40.150Z</time>
      </trkpt>
      <trkpt lat="43.61553" lon="1.29486">
        <ele>199.493851</ele>
        <time>2023-01-03T14:40:43.156Z</time>
      </trkpt>
      <trkpt lat="43.61551" lon="1.29503">
        <ele>199.578555</ele>
        <time>2023-01-03T14:40:46.150Z</time>
      </trkpt>
      <trkpt lat="43.61549" lon="1.2952">
        <ele>199.827168</ele>
        <time>2023-01-03T14:40:49.148Z</time>
      </trkpt>
      <trkpt lat="43.61546" lon="1.29538">
        <ele>200.089849</ele>
        <time>2023-01-03T14:40:52.161Z</time>
      </trkpt>
      <trkpt lat="43.61544" lon="1.29551">
        <ele>200.267538</ele>
        <time>2023-01-03T14:40:54.165Z</time>
      </trkpt>
      <trkpt lat="43.61542" lon="1.29564">
        <ele>200.458139</ele>
        <time>2023-01-03T14:40:56.156Z</time>
      </trkpt>
      <trkpt lat="43.6154" lon="1.29577">
        <ele>200.637613</ele>
        <time>2023-01-03T14:40:58.165Z</time>
      </trkpt>
      <trkpt lat="43.61539" lon="1.29589">
        <ele>200.811566</ele>
        <time>2023-01-03T14:41:00.177Z</time>
      </trkpt>
      <trkpt lat="43.61537" lon="1.29606">
        <ele>201.050435</ele>
        <time>2023-01-03T14:41:03.173Z</time>
      </trkpt>
      <trkpt lat="43.61535" lon="1.29623">
        <ele>201.285865</ele>
        <time>2023-01-03T14:41:06.161Z</time>
      </trkpt>
      <trkpt lat="43.61533" lon="1.29639">
        <ele>201.518215</ele>
        <time>2023-01-03T14:41:09.153Z</time>
      </trkpt>
      <trkpt lat="43.61531" lon="1.29654">
        <ele>201.735091</ele>
        <time>2023-01-03T14:41:12.159Z</time>
      </trkpt>
      <trkpt lat="43.61529" lon="1.29669">
        <ele>201.938929</ele>
        <time>2023-01-03T14:41:15.173Z</time>
      </trkpt>
      <trkpt lat="43.61528" lon="1.29682">
        <ele>202.130581</ele>
        <time>2023-01-03T14:41:18.173Z</time>
      </trkpt>
      <trkpt lat="43.61525" lon="1.29696">
        <ele>202.337023</ele>
        <time>2023-01-03T14:41:22.160Z</time>
      </trkpt>
      <trkpt lat="43.61521" lon="1.2971">
        <ele>202.530898</ele>
        <time>2023-01-03T14:41:26.162Z</time>
      </trkpt>
      <trkpt lat="43.61519" lon="1.29724">
        <ele>202.729277</ele>
        <time>2023-01-03T14:41:30.158Z</time>
      </trkpt>
      <trkpt lat="43.61517" lon="1.29738">
        <ele>203.06822</ele>
        <time>2023-01-03T14:41:34.174Z</time>
      </trkpt>
      <trkpt lat="43.61514" lon="1.29753">
        <ele>203.849243</ele>
        <time>2023-01-03T14:41:38.163Z</time>
      </trkpt>
      <trkpt lat="43.6151" lon="1.29767">
        <ele>204.541396</ele>
        <time>2023-01-03T14:41:42.172Z</time>
      </trkpt>
      <trkpt lat="43.61506" lon="1.29778">
        <ele>205.158659</ele>
        <time>2023-01-03T14:41:46.152Z</time>
      </trkpt>
      <trkpt lat="43.61502" lon="1.2979">
        <ele>205.767404</ele>
        <time>2023-01-03T14:41:50.160Z</time>
      </trkpt>
      <trkpt lat="43.61497" lon="1.298">
        <ele>206.379017</ele>
        <time>2023-01-03T14:41:54.175Z</time>
      </trkpt>
      <trkpt lat="43.61492" lon="1.29813">
        <ele>207.05339</ele>
        <time>2023-01-03T14:41:59.153Z</time>
      </trkpt>
      <trkpt lat="43.61488" lon="1.29825">
        <ele>207.707615</ele>
        <time>2023-01-03T14:42:04.155Z</time>
      </trkpt>
      <trkpt lat="43.61482" lon="1.29836">
        <ele>208.370873</ele>
        <time>2023-01-03T14:42:09.153Z</time>
      </trkpt>
      <trkpt lat="43.61478" lon="1.29848">
        <ele>209.014877</ele>
        <time>2023-01-03T14:42:14.152Z</time>
      </trkpt>
      <trkpt lat="43.61472" lon="1.29858">
        <ele>209.660173</ele>
        <time>2023-01-03T14:42:19.150Z</time>
      </trkpt>
      <trkpt lat="43.61466" lon="1.29871">
        <ele>210.360142</ele>
        <time>2023-01-03T14:42:25.149Z</time>
      </trkpt>
      <trkpt lat="43.61464" lon="1.29883">
        <ele>210.976723</ele>
        <time>2023-01-03T14:42:30.162Z</time>
      </trkpt>
      <trkpt lat="43.61462" lon="1.29897">
        <ele>211.626359</ele>
        <time>2023-01-03T14:42:36.164Z</time>
      </trkpt>
      <trkpt lat="43.6146" lon="1.29911">
        <ele>212.344766</ele>
        <time>2023-01-03T14:42:42.161Z</time>
      </trkpt>
      <trkpt lat="43.61458" lon="1.29925">
        <ele>213.007942</ele>
        <time>2023-01-03T14:42:48.167Z</time>
      </trkpt>
      <trkpt lat="43.61455" lon="1.29938">
        <ele>213.669948</ele>
        <time>2023-01-03T14:42:54.158Z</time>
      </trkpt>
      <trkpt lat="43.61453" lon="1.29951">
        <ele>214.315826</ele>
        <time>2023-01-03T14:43:00.158Z</time>
      </trkpt>
      <trkpt lat="43.61451" lon="1.29964">
        <ele>214.958682</ele>
        <time>2023-01-03T14:43:07.160Z</time>
      </trkpt>
      <trkpt lat="43.61449" lon="1.29977">
        <ele>215.445854</ele>
        <time>2023-01-03T14:43:12.149Z</time>
      </trkpt>
      <trkpt lat="43.61447" lon="1.29992">
        <ele>216.008928</ele>
        <time>2023-01-03T14:43:18.154Z</time>
      </trkpt>
      <trkpt lat="43.61445" lon="1.30004">
        <ele>216.482388</ele>
        <time>2023-01-03T14:43:23.175Z</time>
      </trkpt>
      <trkpt lat="43.61445" lon="1.30018">
        <ele>217.009424</ele>
        <time>2023-01-03T14:43:29.149Z</time>
      </trkpt>
      <trkpt lat="43.61444" lon="1.30032">
        <ele>217.553535</ele>
        <time>2023-01-03T14:43:35.173Z</time>
      </trkpt>
      <trkpt lat="43.61443" lon="1.30045">
        <ele>218.040939</ele>
        <time>2023-01-03T14:43:40.173Z</time>
      </trkpt>
      <trkpt lat="43.61444" lon="1.30058">
        <ele>218.538294</ele>
        <time>2023-01-03T14:43:45.172Z</time>
      </trkpt>
      <trkpt lat="43.61444" lon="1.30073">
        <ele>219.087918</ele>
        <time>2023-01-03T14:43:51.166Z</time>
      </trkpt>
      <trkpt lat="43.61444" lon="1.30086">
        <ele>219.585517</ele>
        <time>2023-01-03T14:43:56.171Z</time>
      </trkpt>
      <trkpt lat="43.61445" lon="1.301">
        <ele>220.103874</ele>
        <time>2023-01-03T14:44:01.161Z</time>
      </trkpt>
      <trkpt lat="43.61445" lon="1.30113">
        <ele>220.608323</ele>
        <time>2023-01-03T14:44:06.163Z</time>
      </trkpt>
      <trkpt lat="43.61445" lon="1.30127">
        <ele>221.116536</ele>
        <time>2023-01-03T14:44:11.175Z</time>
      </trkpt>
      <trkpt lat="43.61445" lon="1.3014">
        <ele>221.609938</ele>
        <time>2023-01-03T14:44:16.166Z</time>
      </trkpt>
      <trkpt lat="43.61445" lon="1.30154">
        <ele>222.130095</ele>
        <time>2023-01-03T14:44:21.156Z</time>
      </trkpt>
      <trkpt lat="43.61445" lon="1.30168">
        <ele>222.66466</ele>
        <time>2023-01-03T14:44:26.162Z</time>
      </trkpt>
      <trkpt lat="43.61445" lon="1.30181">
        <ele>223.143209</ele>
        <time>2023-01-03T14:44:30.171Z</time>
      </trkpt>
      <trkpt lat="43.61442" lon="1.30193">
        <ele>223.632386</ele>
        <time>2023-01-03T14:44:34.160Z</time>
      </trkpt>
      <trkpt lat="43.6144" lon="1.30207">
        <ele>224.152042</ele>
        <time>2023-01-03T14:44:38.165Z</time>
      </trkpt>
      <trkpt lat="43.61431" lon="1.30216">
        <ele>224.25034</ele>
        <time>2023-01-03T14:44:42.164Z</time>
      </trkpt>
      <trkpt lat="43.61425" lon="1.30226">
        <ele>224.275869</ele>
        <time>2023-01-03T14:44:45.159Z</time>
      </trkpt>
      <trkpt lat="43.61421" lon="1.3024">
        <ele>224.306343</ele>
        <time>2023-01-03T14:44:49.156Z</time>
      </trkpt>
      <trkpt lat="43.61423" lon="1.30255">
        <ele>224.33705</ele>
        <time>2023-01-03T14:44:53.155Z</time>
      </trkpt>
      <trkpt lat="43.61428" lon="1.30268">
        <ele>224.367117</ele>
        <time>2023-01-03T14:44:57.164Z</time>
      </trkpt>
      <trkpt lat="43.61427" lon="1.30282">
        <ele>224.395218</ele>
        <time>2023-01-03T14:45:01.151Z</time>
      </trkpt>
      <trkpt lat="43.61424" lon="1.30295">
        <ele>224.422575</ele>
        <time>2023-01-03T14:45:04.149Z</time>
      </trkpt>
      <trkpt lat="43.61421" lon="1.30309">
        <ele>224.45176</ele>
        <time>2023-01-03T14:45:07.167Z</time>
      </trkpt>
      <trkpt lat="43.61418" lon="1.30324">
        <ele>224.483224</ele>
        <time>2023-01-03T14:45:10.160Z</time>
      </trkpt>
      <trkpt lat="43.61416" lon="1.30339">
        <ele>224.514639</ele>
        <time>2023-01-03T14:45:13.153Z</time>
      </trkpt>
      <trkpt lat="43.61413" lon="1.30355">
        <ele>224.546767</ele>
        <time>2023-01-03T14:45:16.171Z</time>
      </trkpt>
      <trkpt lat="43.6141" lon="1.3037">
        <ele>224.578118</ele>
        <time>2023-01-03T14:45:19.148Z</time>
      </trkpt>
      <trkpt lat="43.61407" lon="1.30386">
        <ele>224.612931</ele>
        <time>2023-01-03T14:45:22.151Z</time>
      </trkpt>
      <trkpt lat="43.61404" lon="1.30404">
        <ele>224.649787</ele>
        <time>2023-01-03T14:45:25.154Z</time>
      </trkpt>
      <trkpt lat="43.61401" lon="1.30416">
        <ele>224.675244</ele>
        <time>2023-01-03T14:45:27.159Z</time>
      </trkpt>
      <trkpt lat="43.61399" lon="1.30428">
        <ele>224.700174</ele>
        <time>2023-01-03T14:45:29.158Z</time>
      </trkpt>
      <trkpt lat="43.61397" lon="1.30441">
        <ele>224.730609</ele>
        <time>2023-01-03T14:45:31.172Z</time>
      </trkpt>
      <trkpt lat="43.61394" lon="1.30458">
        <ele>224.827262</ele>
        <time>2023-01-03T14:45:34.170Z</time>
      </trkpt>
      <trkpt lat="43.61391" lon="1.30476">
        <ele>224.92673</ele>
        <time>2023-01-03T14:45:37.173Z</time>
      </trkpt>
      <trkpt lat="43.61388" lon="1.30493">
        <ele>225.02496</ele>
        <time>2023-01-03T14:45:40.147Z</time>
      </trkpt>
      <trkpt lat="43.61385" lon="1.3051">
        <ele>225.122314</ele>
        <time>2023-01-03T14:45:43.159Z</time>
      </trkpt>
      <trkpt lat="43.61381" lon="1.30528">
        <ele>225.219858</ele>
        <time>2023-01-03T14:45:46.158Z</time>
      </trkpt>
      <trkpt lat="43.61378" lon="1.30546">
        <ele>225.319867</ele>
        <time>2023-01-03T14:45:49.155Z</time>
      </trkpt>
      <trkpt lat="43.61376" lon="1.30563">
        <ele>225.416053</ele>
        <time>2023-01-03T14:45:52.166Z</time>
      </trkpt>
      <trkpt lat="43.61374" lon="1.30578">
        <ele>225.500959</ele>
        <time>2023-01-03T14:45:55.168Z</time>
      </trkpt>
      <trkpt lat="43.61368" lon="1.30591">
        <ele>225.581355</ele>
        <time>2023-01-03T14:45:58.154Z</time>
      </trkpt>
      <trkpt lat="43.61364" lon="1.30606">
        <ele>225.668</ele>
        <time>2023-01-03T14:46:01.172Z</time>
      </trkpt>
      <trkpt lat="43.61359" lon="1.30621">
        <ele>225.760519</ele>
        <time>2023-01-03T14:46:04.169Z</time>
      </trkpt>
      <trkpt lat="43.61355" lon="1.30636">
        <ele>225.846963</ele>
        <time>2023-01-03T14:46:07.159Z</time>
      </trkpt>
      <trkpt lat="43.61351" lon="1.3065">
        <ele>225.927198</ele>
        <time>2023-01-03T14:46:10.169Z</time>
      </trkpt>
      <trkpt lat="43.61348" lon="1.30663">
        <ele>226.003359</ele>
        <time>2023-01-03T14:46:13.181Z</time>
      </trkpt>
      <trkpt lat="43.61342" lon="1.30674">
        <ele>226.074948</ele>
        <time>2023-01-03T14:46:16.174Z</time>
      </trkpt>
      <trkpt lat="43.61335" lon="1.30683">
        <ele>226.042927</ele>
        <time>2023-01-03T14:46:19.156Z</time>
      </trkpt>
      <trkpt lat="43.61325" lon="1.30684">
        <ele>226.000644</ele>
        <time>2023-01-03T14:46:23.168Z</time>
      </trkpt>
      <trkpt lat="43.61314" lon="1.30679">
        <ele>225.956706</ele>
        <time>2023-01-03T14:46:27.161Z</time>
      </trkpt>
      <trkpt lat="43.61305" lon="1.30674">
        <ele>225.919531</ele>
        <time>2023-01-03T14:46:32.145Z</time>
      </trkpt>
      <trkpt lat="43.61295" lon="1.30671">
        <ele>225.876758</ele>
        <time>2023-01-03T14:46:44.177Z</time>
      </trkpt>
      <trkpt lat="43.61286" lon="1.30665">
        <ele>225.841</ele>
        <time>2023-01-03T14:46:47.159Z</time>
      </trkpt>
      <trkpt lat="43.61276" lon="1.30659">
        <ele>225.795147</ele>
        <time>2023-01-03T14:46:50.161Z</time>
      </trkpt>
      <trkpt lat="43.61264" lon="1.30653">
        <ele>225.745156</ele>
        <time>2023-01-03T14:46:53.167Z</time>
      </trkpt>
      <trkpt lat="43.61252" lon="1.30645">
        <ele>225.692888</ele>
        <time>2023-01-03T14:46:56.161Z</time>
      </trkpt>
      <trkpt lat="43.6124" lon="1.30637">
        <ele>225.641072</ele>
        <time>2023-01-03T14:46:59.155Z</time>
      </trkpt>
      <trkpt lat="43.61227" lon="1.3063">
        <ele>225.588197</ele>
        <time>2023-01-03T14:47:02.172Z</time>
      </trkpt>
      <trkpt lat="43.61219" lon="1.30624">
        <ele>225.552208</ele>
        <time>2023-01-03T14:47:04.181Z</time>
      </trkpt>
      <trkpt lat="43.6121" lon="1.30619">
        <ele>225.513939</ele>
        <time>2023-01-03T14:47:06.165Z</time>
      </trkpt>
      <trkpt lat="43.61201" lon="1.30614">
        <ele>225.475671</ele>
        <time>2023-01-03T14:47:08.170Z</time>
      </trkpt>
      <trkpt lat="43.61192" lon="1.30608">
        <ele>225.437422</ele>
        <time>2023-01-03T14:47:10.173Z</time>
      </trkpt>
      <trkpt lat="43.61184" lon="1.30603">
        <ele>225.399649</ele>
        <time>2023-01-03T14:47:12.156Z</time>
      </trkpt>
      <trkpt lat="43.61175" lon="1.30598">
        <ele>225.418503</ele>
        <time>2023-01-03T14:47:14.176Z</time>
      </trkpt>
      <trkpt lat="43.61166" lon="1.30593">
        <ele>225.577981</ele>
        <time>2023-01-03T14:47:16.170Z</time>
      </trkpt>
      <trkpt lat="43.61156" lon="1.3059">
        <ele>225.734864</ele>
        <time>2023-01-03T14:47:18.159Z</time>
      </trkpt>
      <trkpt lat="43.61147" lon="1.30589">
        <ele>225.890855</ele>
        <time>2023-01-03T14:47:20.159Z</time>
      </trkpt>
      <trkpt lat="43.61136" lon="1.30589">
        <ele>226.059224</ele>
        <time>2023-01-03T14:47:22.162Z</time>
      </trkpt>
      <trkpt lat="43.61127" lon="1.30588">
        <ele>226.2162</ele>
        <time>2023-01-03T14:47:24.189Z</time>
      </trkpt>
      <trkpt lat="43.61117" lon="1.30588">
        <ele>226.381388</ele>
        <time>2023-01-03T14:47:26.164Z</time>
      </trkpt>
      <trkpt lat="43.61106" lon="1.30588">
        <ele>226.548325</ele>
        <time>2023-01-03T14:47:28.160Z</time>
      </trkpt>
      <trkpt lat="43.61096" lon="1.30589">
        <ele>226.711795</ele>
        <time>2023-01-03T14:47:30.161Z</time>
      </trkpt>
      <trkpt lat="43.61086" lon="1.30589">
        <ele>226.875196</ele>
        <time>2023-01-03T14:47:32.152Z</time>
      </trkpt>
      <trkpt lat="43.61077" lon="1.30588">
        <ele>227.037032</ele>
        <time>2023-01-03T14:47:34.157Z</time>
      </trkpt>
      <trkpt lat="43.61066" lon="1.30588">
        <ele>227.205351</ele>
        <time>2023-01-03T14:47:36.159Z</time>
      </trkpt>
      <trkpt lat="43.61056" lon="1.30588">
        <ele>227.376959</ele>
        <time>2023-01-03T14:47:38.165Z</time>
      </trkpt>
      <trkpt lat="43.61046" lon="1.30588">
        <ele>227.535458</ele>
        <time>2023-01-03T14:47:40.173Z</time>
      </trkpt>
      <trkpt lat="43.61036" lon="1.30589">
        <ele>227.697229</ele>
        <time>2023-01-03T14:47:42.167Z</time>
      </trkpt>
      <trkpt lat="43.61027" lon="1.30588">
        <ele>227.849196</ele>
        <time>2023-01-03T14:47:44.156Z</time>
      </trkpt>
      <trkpt lat="43.61014" lon="1.30589">
        <ele>228.060196</ele>
        <time>2023-01-03T14:47:47.159Z</time>
      </trkpt>
      <trkpt lat="43.61002" lon="1.30589">
        <ele>228.251375</ele>
        <time>2023-01-03T14:47:50.159Z</time>
      </trkpt>
      <trkpt lat="43.6099" lon="1.3059">
        <ele>228.236922</ele>
        <time>2023-01-03T14:47:53.163Z</time>
      </trkpt>
      <trkpt lat="43.6098" lon="1.30591">
        <ele>228.135818</ele>
        <time>2023-01-03T14:47:56.175Z</time>
      </trkpt>
      <trkpt lat="43.60969" lon="1.3059">
        <ele>228.042148</ele>
        <time>2023-01-03T14:47:59.151Z</time>
      </trkpt>
      <trkpt lat="43.6096" lon="1.30585">
        <ele>227.944902</ele>
        <time>2023-01-03T14:48:03.167Z</time>
      </trkpt>
      <trkpt lat="43.60949" lon="1.30586">
        <ele>227.85028</ele>
        <time>2023-01-03T14:48:07.155Z</time>
      </trkpt>
      <trkpt lat="43.60938" lon="1.30587">
        <ele>227.745471</ele>
        <time>2023-01-03T14:48:11.166Z</time>
      </trkpt>
      <trkpt lat="43.60928" lon="1.30581">
        <ele>227.64527</ele>
        <time>2023-01-03T14:48:16.151Z</time>
      </trkpt>
      <trkpt lat="43.60925" lon="1.30565">
        <ele>227.539296</ele>
        <time>2023-01-03T14:48:20.153Z</time>
      </trkpt>
      <trkpt lat="43.60922" lon="1.30552">
        <ele>227.447447</ele>
        <time>2023-01-03T14:48:23.153Z</time>
      </trkpt>
      <trkpt lat="43.60919" lon="1.30539">
        <ele>227.353683</ele>
        <time>2023-01-03T14:48:26.174Z</time>
      </trkpt>
      <trkpt lat="43.60915" lon="1.30525">
        <ele>227.252677</ele>
        <time>2023-01-03T14:48:30.173Z</time>
      </trkpt>
      <trkpt lat="43.6092" lon="1.30512">
        <ele>227.159362</ele>
        <time>2023-01-03T14:48:35.165Z</time>
      </trkpt>
      <trkpt lat="43.60919" lon="1.30499">
        <ele>227.071446</ele>
        <time>2023-01-03T14:48:42.162Z</time>
      </trkpt>
      <trkpt lat="43.6091" lon="1.30491">
        <ele>226.972968</ele>
        <time>2023-01-03T14:48:46.152Z</time>
      </trkpt>
      <trkpt lat="43.60901" lon="1.30494">
        <ele>226.883207</ele>
        <time>2023-01-03T14:48:49.155Z</time>
      </trkpt>
      <trkpt lat="43.60895" lon="1.30505">
        <ele>226.789128</ele>
        <time>2023-01-03T14:48:52.160Z</time>
      </trkpt>
      <trkpt lat="43.6089" lon="1.30516">
        <ele>226.701472</ele>
        <time>2023-01-03T14:48:55.157Z</time>
      </trkpt>
      <trkpt lat="43.60882" lon="1.30526">
        <ele>226.660955</ele>
        <time>2023-01-03T14:48:59.155Z</time>
      </trkpt>
      <trkpt lat="43.60871" lon="1.30534">
        <ele>226.701578</ele>
        <time>2023-01-03T14:49:03.160Z</time>
      </trkpt>
      <trkpt lat="43.60863" lon="1.30541">
        <ele>226.734372</ele>
        <time>2023-01-03T14:49:06.180Z</time>
      </trkpt>
      <trkpt lat="43.60855" lon="1.30549">
        <ele>226.767733</ele>
        <time>2023-01-03T14:49:09.155Z</time>
      </trkpt>
      <trkpt lat="43.60847" lon="1.30555">
        <ele>226.799347</ele>
        <time>2023-01-03T14:49:12.157Z</time>
      </trkpt>
      <trkpt lat="43.60838" lon="1.30564">
        <ele>226.835618</ele>
        <time>2023-01-03T14:49:16.150Z</time>
      </trkpt>
      <trkpt lat="43.6083" lon="1.3057">
        <ele>226.867296</ele>
        <time>2023-01-03T14:49:20.188Z</time>
      </trkpt>
      <trkpt lat="43.6082" lon="1.30578">
        <ele>226.904669</ele>
        <time>2023-01-03T14:49:29.152Z</time>
      </trkpt>
      <trkpt lat="43.6081" lon="1.30587">
        <ele>226.944342</ele>
        <time>2023-01-03T14:49:33.173Z</time>
      </trkpt>
      <trkpt lat="43.608" lon="1.30582">
        <ele>226.979693</ele>
        <time>2023-01-03T14:49:36.165Z</time>
      </trkpt>
      <trkpt lat="43.6079" lon="1.30573">
        <ele>227.019966</ele>
        <time>2023-01-03T14:49:39.152Z</time>
      </trkpt>
      <trkpt lat="43.60779" lon="1.30567">
        <ele>227.058449</ele>
        <time>2023-01-03T14:49:42.165Z</time>
      </trkpt>
      <trkpt lat="43.60771" lon="1.3056">
        <ele>227.092294</ele>
        <time>2023-01-03T14:49:45.166Z</time>
      </trkpt>
      <trkpt lat="43.6076" lon="1.30553">
        <ele>227.13179</ele>
        <time>2023-01-03T14:49:49.152Z</time>
      </trkpt>
      <trkpt lat="43.60751" lon="1.30546">
        <ele>227.168057</ele>
        <time>2023-01-03T14:49:53.161Z</time>
      </trkpt>
      <trkpt lat="43.60741" lon="1.3054">
        <ele>227.204399</ele>
        <time>2023-01-03T14:49:57.158Z</time>
      </trkpt>
      <trkpt lat="43.60734" lon="1.30542">
        <ele>227.228379</ele>
        <time>2023-01-03T14:50:13.899Z</time>
      </trkpt>
      <trkpt lat="43.60729" lon="1.30539">
        <ele>227.246095</ele>
        <time>2023-01-03T16:45:17.525Z</time>
      </trkpt>
      <trkpt lat="43.60732" lon="1.30553">
        <ele>227.263147</ele>
        <time>2023-01-03T16:46:12.162Z</time>
      </trkpt>
      <trkpt lat="43.60728" lon="1.30565">
        <ele>227.277726</ele>
        <time>2023-01-03T16:46:17.174Z</time>
      </trkpt>
      <trkpt lat="43.60723" lon="1.3058">
        <ele>227.295337</ele>
        <time>2023-01-03T16:46:21.150Z</time>
      </trkpt>
      <trkpt lat="43.60728" lon="1.30592">
        <ele>227.309633</ele>
        <time>2023-01-03T16:46:24.149Z</time>
      </trkpt>
      <trkpt lat="43.60736" lon="1.30598">
        <ele>227.322772</ele>
        <time>2023-01-03T16:46:27.159Z</time>
      </trkpt>
      <trkpt lat="43.60746" lon="1.30604">
        <ele>227.338829</ele>
        <time>2023-01-03T16:46:31.164Z</time>
      </trkpt>
      <trkpt lat="43.60758" lon="1.30609">
        <ele>227.356403</ele>
        <time>2023-01-03T16:46:35.156Z</time>
      </trkpt>
      <trkpt lat="43.60763" lon="1.3062">
        <ele>227.370373</ele>
        <time>2023-01-03T16:46:38.149Z</time>
      </trkpt>
      <trkpt lat="43.60763" lon="1.30632">
        <ele>227.38353</ele>
        <time>2023-01-03T16:46:41.152Z</time>
      </trkpt>
      <trkpt lat="43.60769" lon="1.30642">
        <ele>227.396945</ele>
        <time>2023-01-03T16:46:44.150Z</time>
      </trkpt>
      <trkpt lat="43.60777" lon="1.30648">
        <ele>227.410989</ele>
        <time>2023-01-03T16:46:47.161Z</time>
      </trkpt>
      <trkpt lat="43.60786" lon="1.30653">
        <ele>227.425012</ele>
        <time>2023-01-03T16:46:50.175Z</time>
      </trkpt>
      <trkpt lat="43.60794" lon="1.30658">
        <ele>227.438428</ele>
        <time>2023-01-03T16:46:53.175Z</time>
      </trkpt>
      <trkpt lat="43.60804" lon="1.30667">
        <ele>227.454899</ele>
        <time>2023-01-03T16:46:57.176Z</time>
      </trkpt>
      <trkpt lat="43.60813" lon="1.30675">
        <ele>227.47067</ele>
        <time>2023-01-03T16:47:02.166Z</time>
      </trkpt>
      <trkpt lat="43.60822" lon="1.30682">
        <ele>227.486468</ele>
        <time>2023-01-03T16:47:06.156Z</time>
      </trkpt>
      <trkpt lat="43.60833" lon="1.30689">
        <ele>227.50356</ele>
        <time>2023-01-03T16:47:10.148Z</time>
      </trkpt>
      <trkpt lat="43.60842" lon="1.30695">
        <ele>227.566581</ele>
        <time>2023-01-03T16:47:14.170Z</time>
      </trkpt>
      <trkpt lat="43.6085" lon="1.30701">
        <ele>227.689252</ele>
        <time>2023-01-03T16:47:23.175Z</time>
      </trkpt>
      <trkpt lat="43.60847" lon="1.30713">
        <ele>227.813184</ele>
        <time>2023-01-03T16:47:37.147Z</time>
      </trkpt>
      <trkpt lat="43.60855" lon="1.30723">
        <ele>227.970932</ele>
        <time>2023-01-03T16:48:05.154Z</time>
      </trkpt>
      <trkpt lat="43.60865" lon="1.30731">
        <ele>228.127137</ele>
        <time>2023-01-03T16:48:09.168Z</time>
      </trkpt>
      <trkpt lat="43.60874" lon="1.30738">
        <ele>228.270989</ele>
        <time>2023-01-03T16:48:12.189Z</time>
      </trkpt>
      <trkpt lat="43.60884" lon="1.30745">
        <ele>228.413978</ele>
        <time>2023-01-03T16:48:15.174Z</time>
      </trkpt>
      <trkpt lat="43.60893" lon="1.30751">
        <ele>228.555736</ele>
        <time>2023-01-03T16:48:18.179Z</time>
      </trkpt>
      <trkpt lat="43.60902" lon="1.30756">
        <ele>228.69254</ele>
        <time>2023-01-03T16:48:21.176Z</time>
      </trkpt>
      <trkpt lat="43.60912" lon="1.30763">
        <ele>228.837192</ele>
        <time>2023-01-03T16:48:24.151Z</time>
      </trkpt>
      <trkpt lat="43.60921" lon="1.30769">
        <ele>228.985175</ele>
        <time>2023-01-03T16:48:27.176Z</time>
      </trkpt>
      <trkpt lat="43.6093" lon="1.30776">
        <ele>229.122955</ele>
        <time>2023-01-03T16:48:30.177Z</time>
      </trkpt>
      <trkpt lat="43.60939" lon="1.3078">
        <ele>229.248132</ele>
        <time>2023-01-03T16:48:33.160Z</time>
      </trkpt>
      <trkpt lat="43.60948" lon="1.30784">
        <ele>229.382033</ele>
        <time>2023-01-03T16:48:40.157Z</time>
      </trkpt>
      <trkpt lat="43.60957" lon="1.3079">
        <ele>229.519716</ele>
        <time>2023-01-03T16:48:46.148Z</time>
      </trkpt>
      <trkpt lat="43.60968" lon="1.30783">
        <ele>229.676783</ele>
        <time>2023-01-03T16:48:51.172Z</time>
      </trkpt>
      <trkpt lat="43.60977" lon="1.30779">
        <ele>229.808114</ele>
        <time>2023-01-03T16:48:55.152Z</time>
      </trkpt>
      <trkpt lat="43.60981" lon="1.30767">
        <ele>229.938299</ele>
        <time>2023-01-03T16:49:00.160Z</time>
      </trkpt>
      <trkpt lat="43.6099" lon="1.30771">
        <ele>229.952241</ele>
        <time>2023-01-03T16:49:08.164Z</time>
      </trkpt>
      <trkpt lat="43.60992" lon="1.30784">
        <ele>229.91959</ele>
        <time>2023-01-03T16:49:15.153Z</time>
      </trkpt>
      <trkpt lat="43.60997" lon="1.30795">
        <ele>229.888455</ele>
        <time>2023-01-03T16:49:19.158Z</time>
      </trkpt>
      <trkpt lat="43.61002" lon="1.30808">
        <ele>229.851914</ele>
        <time>2023-01-03T16:49:23.174Z</time>
      </trkpt>
      <trkpt lat="43.61004" lon="1.30821">
        <ele>229.819611</ele>
        <time>2023-01-03T16:49:27.164Z</time>
      </trkpt>
      <trkpt lat="43.61012" lon="1.3083">
        <ele>229.783965</ele>
        <time>2023-01-03T16:49:32.145Z</time>
      </trkpt>
      <trkpt lat="43.61016" lon="1.30842">
        <ele>229.752465</ele>
        <time>2023-01-03T16:49:38.151Z</time>
      </trkpt>
      <trkpt lat="43.61025" lon="1.30848">
        <ele>229.720114</ele>
        <time>2023-01-03T16:49:45.175Z</time>
      </trkpt>
      <trkpt lat="43.61034" lon="1.30847">
        <ele>229.688635</ele>
        <time>2023-01-03T16:49:48.175Z</time>
      </trkpt>
      <trkpt lat="43.61045" lon="1.30847">
        <ele>229.65156</ele>
        <time>2023-01-03T16:49:51.151Z</time>
      </trkpt>
      <trkpt lat="43.61056" lon="1.30847">
        <ele>229.614126</ele>
        <time>2023-01-03T16:49:54.145Z</time>
      </trkpt>
      <trkpt lat="43.61068" lon="1.30846">
        <ele>229.574708</ele>
        <time>2023-01-03T16:49:57.151Z</time>
      </trkpt>
      <trkpt lat="43.6108" lon="1.30848">
        <ele>229.535784</ele>
        <time>2023-01-03T16:50:00.183Z</time>
      </trkpt>
      <trkpt lat="43.61091" lon="1.30851">
        <ele>229.498809</ele>
        <time>2023-01-03T16:50:03.152Z</time>
      </trkpt>
      <trkpt lat="43.61101" lon="1.3085">
        <ele>229.464751</ele>
        <time>2023-01-03T16:50:06.159Z</time>
      </trkpt>
      <trkpt lat="43.6111" lon="1.30851">
        <ele>229.432693</ele>
        <time>2023-01-03T16:50:09.152Z</time>
      </trkpt>
      <trkpt lat="43.61122" lon="1.30847">
        <ele>229.39267</ele>
        <time>2023-01-03T16:50:13.147Z</time>
      </trkpt>
      <trkpt lat="43.61133" lon="1.30846">
        <ele>229.344907</ele>
        <time>2023-01-03T16:50:16.148Z</time>
      </trkpt>
      <trkpt lat="43.61145" lon="1.30848">
        <ele>229.278216</ele>
        <time>2023-01-03T16:50:19.146Z</time>
      </trkpt>
      <trkpt lat="43.61154" lon="1.3085">
        <ele>229.228536</ele>
        <time>2023-01-03T16:50:21.147Z</time>
      </trkpt>
      <trkpt lat="43.61164" lon="1.30853">
        <ele>229.176245</ele>
        <time>2023-01-03T16:50:23.163Z</time>
      </trkpt>
      <trkpt lat="43.61176" lon="1.3086">
        <ele>229.101979</ele>
        <time>2023-01-03T16:50:26.173Z</time>
      </trkpt>
      <trkpt lat="43.61185" lon="1.30866">
        <ele>229.048946</ele>
        <time>2023-01-03T16:50:28.157Z</time>
      </trkpt>
      <trkpt lat="43.61194" lon="1.30873">
        <ele>228.993439</ele>
        <time>2023-01-03T16:50:30.155Z</time>
      </trkpt>
      <trkpt lat="43.61205" lon="1.30882">
        <ele>228.923743</ele>
        <time>2023-01-03T16:50:33.168Z</time>
      </trkpt>
      <trkpt lat="43.61214" lon="1.30888">
        <ele>228.871676</ele>
        <time>2023-01-03T16:50:36.154Z</time>
      </trkpt>
      <trkpt lat="43.61227" lon="1.30875">
        <ele>228.783789</ele>
        <time>2023-01-03T16:51:02.156Z</time>
      </trkpt>
      <trkpt lat="43.61236" lon="1.30868">
        <ele>228.726587</ele>
        <time>2023-01-03T16:51:07.148Z</time>
      </trkpt>
      <trkpt lat="43.61245" lon="1.30864">
        <ele>228.677107</ele>
        <time>2023-01-03T16:51:11.156Z</time>
      </trkpt>
      <trkpt lat="43.61254" lon="1.30858">
        <ele>228.621642</ele>
        <time>2023-01-03T16:51:16.158Z</time>
      </trkpt>
      <trkpt lat="43.61263" lon="1.30849">
        <ele>228.558297</ele>
        <time>2023-01-03T16:51:20.176Z</time>
      </trkpt>
      <trkpt lat="43.61269" lon="1.30838">
        <ele>228.505377</ele>
        <time>2023-01-03T16:51:23.175Z</time>
      </trkpt>
      <trkpt lat="43.61276" lon="1.30826">
        <ele>228.447027</ele>
        <time>2023-01-03T16:51:27.158Z</time>
      </trkpt>
      <trkpt lat="43.61285" lon="1.30832">
        <ele>228.400328</ele>
        <time>2023-01-03T16:51:33.162Z</time>
      </trkpt>
      <trkpt lat="43.61291" lon="1.30842">
        <ele>228.465475</ele>
        <time>2023-01-03T16:51:37.156Z</time>
      </trkpt>
      <trkpt lat="43.61287" lon="1.30856">
        <ele>228.544494</ele>
        <time>2023-01-03T16:51:41.162Z</time>
      </trkpt>
      <trkpt lat="43.61289" lon="1.3087">
        <ele>228.615222</ele>
        <time>2023-01-03T16:51:44.157Z</time>
      </trkpt>
      <trkpt lat="43.61293" lon="1.30884">
        <ele>228.693272</ele>
        <time>2023-01-03T16:51:47.153Z</time>
      </trkpt>
      <trkpt lat="43.61296" lon="1.30898">
        <ele>228.768443</ele>
        <time>2023-01-03T16:51:50.155Z</time>
      </trkpt>
      <trkpt lat="43.61301" lon="1.30909">
        <ele>228.833752</ele>
        <time>2023-01-03T16:51:53.170Z</time>
      </trkpt>
      <trkpt lat="43.61308" lon="1.30919">
        <ele>228.907848</ele>
        <time>2023-01-03T16:51:59.173Z</time>
      </trkpt>
      <trkpt lat="43.61307" lon="1.30934">
        <ele>228.981737</ele>
        <time>2023-01-03T16:52:04.176Z</time>
      </trkpt>
      <trkpt lat="43.61316" lon="1.3094">
        <ele>229.056968</ele>
        <time>2023-01-03T16:52:10.171Z</time>
      </trkpt>
      <trkpt lat="43.61327" lon="1.30946">
        <ele>229.136477</ele>
        <time>2023-01-03T16:52:15.192Z</time>
      </trkpt>
      <trkpt lat="43.61336" lon="1.30949">
        <ele>229.203239</ele>
        <time>2023-01-03T16:52:18.174Z</time>
      </trkpt>
      <trkpt lat="43.61345" lon="1.30954">
        <ele>229.270746</ele>
        <time>2023-01-03T16:52:21.177Z</time>
      </trkpt>
      <trkpt lat="43.61354" lon="1.30959">
        <ele>229.338133</ele>
        <time>2023-01-03T16:52:24.157Z</time>
      </trkpt>
      <trkpt lat="43.61363" lon="1.30964">
        <ele>229.409655</ele>
        <time>2023-01-03T16:52:27.153Z</time>
      </trkpt>
      <trkpt lat="43.61373" lon="1.30969">
        <ele>229.483556</ele>
        <time>2023-01-03T16:52:30.163Z</time>
      </trkpt>
      <trkpt lat="43.61383" lon="1.30974">
        <ele>229.556228</ele>
        <time>2023-01-03T16:52:33.170Z</time>
      </trkpt>
      <trkpt lat="43.61392" lon="1.3098">
        <ele>229.624995</ele>
        <time>2023-01-03T16:52:36.164Z</time>
      </trkpt>
      <trkpt lat="43.61403" lon="1.30986">
        <ele>229.485939</ele>
        <time>2023-01-03T16:52:40.178Z</time>
      </trkpt>
      <trkpt lat="43.61413" lon="1.30992">
        <ele>229.172002</ele>
        <time>2023-01-03T16:52:44.162Z</time>
      </trkpt>
      <trkpt lat="43.6142" lon="1.31002">
        <ele>228.888718</ele>
        <time>2023-01-03T16:52:48.167Z</time>
      </trkpt>
      <trkpt lat="43.61425" lon="1.31014">
        <ele>228.601418</ele>
        <time>2023-01-03T16:52:52.152Z</time>
      </trkpt>
      <trkpt lat="43.6143" lon="1.31026">
        <ele>228.313681</ele>
        <time>2023-01-03T16:52:56.171Z</time>
      </trkpt>
      <trkpt lat="43.61426" lon="1.31041">
        <ele>227.994496</ele>
        <time>2023-01-03T16:53:00.166Z</time>
      </trkpt>
      <trkpt lat="43.61422" lon="1.31057">
        <ele>227.642595</ele>
        <time>2023-01-03T16:53:03.151Z</time>
      </trkpt>
      <trkpt lat="43.6142" lon="1.3107">
        <ele>227.381977</ele>
        <time>2023-01-03T16:53:05.174Z</time>
      </trkpt>
      <trkpt lat="43.61417" lon="1.31084">
        <ele>227.080478</ele>
        <time>2023-01-03T16:53:07.151Z</time>
      </trkpt>
      <trkpt lat="43.61416" lon="1.31099">
        <ele>226.772858</ele>
        <time>2023-01-03T16:53:09.175Z</time>
      </trkpt>
      <trkpt lat="43.61415" lon="1.31114">
        <ele>226.468623</ele>
        <time>2023-01-03T16:53:11.176Z</time>
      </trkpt>
      <trkpt lat="43.61414" lon="1.31128">
        <ele>226.178914</ele>
        <time>2023-01-03T16:53:13.169Z</time>
      </trkpt>
      <trkpt lat="43.61411" lon="1.31144">
        <ele>225.843874</ele>
        <time>2023-01-03T16:53:16.156Z</time>
      </trkpt>
      <trkpt lat="43.61406" lon="1.31158">
        <ele>225.519343</ele>
        <time>2023-01-03T16:53:19.151Z</time>
      </trkpt>
      <trkpt lat="43.61402" lon="1.3117">
        <ele>225.255834</ele>
        <time>2023-01-03T16:53:22.150Z</time>
      </trkpt>
      <trkpt lat="43.61412" lon="1.31179">
        <ele>224.930462</ele>
        <time>2023-01-03T16:53:26.154Z</time>
      </trkpt>
      <trkpt lat="43.61421" lon="1.31175">
        <ele>224.652226</ele>
        <time>2023-01-03T16:53:29.157Z</time>
      </trkpt>
      <trkpt lat="43.61431" lon="1.31174">
        <ele>224.436059</ele>
        <time>2023-01-03T16:53:32.150Z</time>
      </trkpt>
      <trkpt lat="43.61442" lon="1.31177">
        <ele>224.23594</ele>
        <time>2023-01-03T16:53:35.150Z</time>
      </trkpt>
      <trkpt lat="43.61454" lon="1.31179">
        <ele>224.000051</ele>
        <time>2023-01-03T16:53:38.156Z</time>
      </trkpt>
      <trkpt lat="43.61465" lon="1.31184">
        <ele>223.778929</ele>
        <time>2023-01-03T16:53:41.158Z</time>
      </trkpt>
      <trkpt lat="43.61472" lon="1.31196">
        <ele>223.560948</ele>
        <time>2023-01-03T16:53:44.154Z</time>
      </trkpt>
      <trkpt lat="43.61477" lon="1.31213">
        <ele>223.323473</ele>
        <time>2023-01-03T16:53:47.147Z</time>
      </trkpt>
      <trkpt lat="43.6148" lon="1.31224">
        <ele>223.151815</ele>
        <time>2023-01-03T16:53:49.160Z</time>
      </trkpt>
      <trkpt lat="43.61483" lon="1.31236">
        <ele>222.975525</ele>
        <time>2023-01-03T16:53:51.152Z</time>
      </trkpt>
      <trkpt lat="43.61487" lon="1.31248">
        <ele>222.794138</ele>
        <time>2023-01-03T16:53:53.162Z</time>
      </trkpt>
      <trkpt lat="43.61492" lon="1.3126">
        <ele>222.609345</ele>
        <time>2023-01-03T16:53:55.156Z</time>
      </trkpt>
      <trkpt lat="43.61503" lon="1.31267">
        <ele>222.385415</ele>
        <time>2023-01-03T16:53:58.175Z</time>
      </trkpt>
      <trkpt lat="43.61512" lon="1.31277">
        <ele>222.166665</ele>
        <time>2023-01-03T16:54:02.156Z</time>
      </trkpt>
      <trkpt lat="43.61521" lon="1.31278">
        <ele>221.987829</ele>
        <time>2023-01-03T16:54:06.167Z</time>
      </trkpt>
      <trkpt lat="43.61531" lon="1.31281">
        <ele>221.803269</ele>
        <time>2023-01-03T16:54:16.153Z</time>
      </trkpt>
      <trkpt lat="43.61541" lon="1.31288">
        <ele>221.594909</ele>
        <time>2023-01-03T16:54:21.149Z</time>
      </trkpt>
      <trkpt lat="43.61549" lon="1.31294">
        <ele>221.409064</ele>
        <time>2023-01-03T16:54:26.154Z</time>
      </trkpt>
      <trkpt lat="43.61558" lon="1.313">
        <ele>221.231035</ele>
        <time>2023-01-03T16:54:30.156Z</time>
      </trkpt>
      <trkpt lat="43.61568" lon="1.31306">
        <ele>221.079432</ele>
        <time>2023-01-03T16:54:34.170Z</time>
      </trkpt>
      <trkpt lat="43.61577" lon="1.3131">
        <ele>220.970821</ele>
        <time>2023-01-03T16:54:40.170Z</time>
      </trkpt>
      <trkpt lat="43.61587" lon="1.31303">
        <ele>220.85265</ele>
        <time>2023-01-03T16:54:46.169Z</time>
      </trkpt>
      <trkpt lat="43.61591" lon="1.31292">
        <ele>220.745907</ele>
        <time>2023-01-03T16:54:49.172Z</time>
      </trkpt>
      <trkpt lat="43.61595" lon="1.3128">
        <ele>220.633376</ele>
        <time>2023-01-03T16:54:52.164Z</time>
      </trkpt>
      <trkpt lat="43.61599" lon="1.31268">
        <ele>220.523129</ele>
        <time>2023-01-03T16:54:55.150Z</time>
      </trkpt>
      <trkpt lat="43.61604" lon="1.31257">
        <ele>220.41947</ele>
        <time>2023-01-03T16:54:58.156Z</time>
      </trkpt>
      <trkpt lat="43.61612" lon="1.31246">
        <ele>220.291085</ele>
        <time>2023-01-03T16:55:02.159Z</time>
      </trkpt>
      <trkpt lat="43.61623" lon="1.31241">
        <ele>220.161275</ele>
        <time>2023-01-03T16:55:06.152Z</time>
      </trkpt>
      <trkpt lat="43.61632" lon="1.31238">
        <ele>220.057499</ele>
        <time>2023-01-03T16:55:09.157Z</time>
      </trkpt>
      <trkpt lat="43.6164" lon="1.31232">
        <ele>219.950728</ele>
        <time>2023-01-03T16:55:13.161Z</time>
      </trkpt>
      <trkpt lat="43.61649" lon="1.31229">
        <ele>219.843694</ele>
        <time>2023-01-03T16:55:17.152Z</time>
      </trkpt>
      <trkpt lat="43.61658" lon="1.31226">
        <ele>219.739286</ele>
        <time>2023-01-03T16:55:23.156Z</time>
      </trkpt>
      <trkpt lat="43.61665" lon="1.3124">
        <ele>219.601837</ele>
        <time>2023-01-03T16:55:34.150Z</time>
      </trkpt>
      <trkpt lat="43.61671" lon="1.31251">
        <ele>219.490975</ele>
        <time>2023-01-03T16:55:36.147Z</time>
      </trkpt>
      <trkpt lat="43.61675" lon="1.31266">
        <ele>219.359667</ele>
        <time>2023-01-03T16:55:38.159Z</time>
      </trkpt>
      <trkpt lat="43.61679" lon="1.31281">
        <ele>219.228039</ele>
        <time>2023-01-03T16:55:40.172Z</time>
      </trkpt>
      <trkpt lat="43.61683" lon="1.31298">
        <ele>219.069876</ele>
        <time>2023-01-03T16:55:42.173Z</time>
      </trkpt>
      <trkpt lat="43.61688" lon="1.31317">
        <ele>218.886549</ele>
        <time>2023-01-03T16:55:44.152Z</time>
      </trkpt>
      <trkpt lat="43.61693" lon="1.31336">
        <ele>218.701042</ele>
        <time>2023-01-03T16:55:46.173Z</time>
      </trkpt>
      <trkpt lat="43.61698" lon="1.31354">
        <ele>218.518867</ele>
        <time>2023-01-03T16:55:48.173Z</time>
      </trkpt>
      <trkpt lat="43.61703" lon="1.31372">
        <ele>218.338614</ele>
        <time>2023-01-03T16:55:50.152Z</time>
      </trkpt>
      <trkpt lat="43.61708" lon="1.31391">
        <ele>218.153529</ele>
        <time>2023-01-03T16:55:52.150Z</time>
      </trkpt>
      <trkpt lat="43.61713" lon="1.31408">
        <ele>217.981912</ele>
        <time>2023-01-03T16:55:54.174Z</time>
      </trkpt>
      <trkpt lat="43.61717" lon="1.31425">
        <ele>217.816963</ele>
        <time>2023-01-03T16:55:56.152Z</time>
      </trkpt>
      <trkpt lat="43.61721" lon="1.31439">
        <ele>217.671631</ele>
        <time>2023-01-03T16:55:58.168Z</time>
      </trkpt>
      <trkpt lat="43.61726" lon="1.31452">
        <ele>217.536933</ele>
        <time>2023-01-03T16:56:00.158Z</time>
      </trkpt>
      <trkpt lat="43.6173" lon="1.31464">
        <ele>217.413454</ele>
        <time>2023-01-03T16:56:02.176Z</time>
      </trkpt>
      <trkpt lat="43.61734" lon="1.3148">
        <ele>217.255511</ele>
        <time>2023-01-03T16:56:05.174Z</time>
      </trkpt>
      <trkpt lat="43.61737" lon="1.31492">
        <ele>217.134728</ele>
        <time>2023-01-03T16:56:08.171Z</time>
      </trkpt>
      <trkpt lat="43.61741" lon="1.31505">
        <ele>217.002425</ele>
        <time>2023-01-03T16:56:13.150Z</time>
      </trkpt>
      <trkpt lat="43.61745" lon="1.31517">
        <ele>216.882761</ele>
        <time>2023-01-03T16:56:18.153Z</time>
      </trkpt>
      <trkpt lat="43.61749" lon="1.31529">
        <ele>217.02911</ele>
        <time>2023-01-03T16:56:23.150Z</time>
      </trkpt>
      <trkpt lat="43.61753" lon="1.31542">
        <ele>217.607198</ele>
        <time>2023-01-03T16:56:28.154Z</time>
      </trkpt>
      <trkpt lat="43.61756" lon="1.31556">
        <ele>218.158419</ele>
        <time>2023-01-03T16:56:33.158Z</time>
      </trkpt>
      <trkpt lat="43.6176" lon="1.31569">
        <ele>218.700951</ele>
        <time>2023-01-03T16:56:38.155Z</time>
      </trkpt>
      <trkpt lat="43.61762" lon="1.31581">
        <ele>219.182297</ele>
        <time>2023-01-03T16:56:43.155Z</time>
      </trkpt>
      <trkpt lat="43.61758" lon="1.31595">
        <ele>219.743948</ele>
        <time>2023-01-03T16:56:49.159Z</time>
      </trkpt>
      <trkpt lat="43.61755" lon="1.31607">
        <ele>220.258881</ele>
        <time>2023-01-03T16:56:54.152Z</time>
      </trkpt>
      <trkpt lat="43.61752" lon="1.31619">
        <ele>220.767811</ele>
        <time>2023-01-03T16:56:59.172Z</time>
      </trkpt>
      <trkpt lat="43.6175" lon="1.31632">
        <ele>221.266172</ele>
        <time>2023-01-03T16:57:04.153Z</time>
      </trkpt>
      <trkpt lat="43.61748" lon="1.31645">
        <ele>221.772414</ele>
        <time>2023-01-03T16:57:09.162Z</time>
      </trkpt>
      <trkpt lat="43.61746" lon="1.31659">
        <ele>222.304257</ele>
        <time>2023-01-03T16:57:14.159Z</time>
      </trkpt>
      <trkpt lat="43.61744" lon="1.31671">
        <ele>222.814494</ele>
        <time>2023-01-03T16:57:19.157Z</time>
      </trkpt>
      <trkpt lat="43.61742" lon="1.31686">
        <ele>223.411041</ele>
        <time>2023-01-03T16:57:25.188Z</time>
      </trkpt>
      <trkpt lat="43.61739" lon="1.31701">
        <ele>224.007589</ele>
        <time>2023-01-03T16:57:30.152Z</time>
      </trkpt>
      <trkpt lat="43.61736" lon="1.31714">
        <ele>224.506062</ele>
        <time>2023-01-03T16:57:34.155Z</time>
      </trkpt>
      <trkpt lat="43.61734" lon="1.31728">
        <ele>225.09108</ele>
        <time>2023-01-03T16:57:38.153Z</time>
      </trkpt>
      <trkpt lat="43.61731" lon="1.31741">
        <ele>225.608761</ele>
        <time>2023-01-03T16:57:42.164Z</time>
      </trkpt>
      <trkpt lat="43.61728" lon="1.31755">
        <ele>226.171722</ele>
        <time>2023-01-03T16:57:46.150Z</time>
      </trkpt>
      <trkpt lat="43.61726" lon="1.31768">
        <ele>226.46458</ele>
        <time>2023-01-03T16:57:49.155Z</time>
      </trkpt>
      <trkpt lat="43.61723" lon="1.31782">
        <ele>226.554927</ele>
        <time>2023-01-03T16:57:52.160Z</time>
      </trkpt>
      <trkpt lat="43.6172" lon="1.31796">
        <ele>226.646476</ele>
        <time>2023-01-03T16:57:55.150Z</time>
      </trkpt>
      <trkpt lat="43.61717" lon="1.31811">
        <ele>226.739812</ele>
        <time>2023-01-03T16:57:58.173Z</time>
      </trkpt>
      <trkpt lat="43.61714" lon="1.31825">
        <ele>226.83279</ele>
        <time>2023-01-03T16:58:01.171Z</time>
      </trkpt>
      <trkpt lat="43.61711" lon="1.31841">
        <ele>226.933226</ele>
        <time>2023-01-03T16:58:04.157Z</time>
      </trkpt>
      <trkpt lat="43.6171" lon="1.31855">
        <ele>227.020993</ele>
        <time>2023-01-03T16:58:07.170Z</time>
      </trkpt>
      <trkpt lat="43.6171" lon="1.31869">
        <ele>227.110991</ele>
        <time>2023-01-03T16:58:10.171Z</time>
      </trkpt>
      <trkpt lat="43.61712" lon="1.31881">
        <ele>227.1882</ele>
        <time>2023-01-03T16:58:13.174Z</time>
      </trkpt>
      <trkpt lat="43.61716" lon="1.31895">
        <ele>227.280852</ele>
        <time>2023-01-03T16:58:17.151Z</time>
      </trkpt>
      <trkpt lat="43.61719" lon="1.31907">
        <ele>227.35913</ele>
        <time>2023-01-03T16:58:22.155Z</time>
      </trkpt>
      <trkpt lat="43.61725" lon="1.3192">
        <ele>227.451513</ele>
        <time>2023-01-03T16:58:26.152Z</time>
      </trkpt>
      <trkpt lat="43.61728" lon="1.31931">
        <ele>227.531129</ele>
        <time>2023-01-03T16:58:29.157Z</time>
      </trkpt>
      <trkpt lat="43.61733" lon="1.31943">
        <ele>227.616928</ele>
        <time>2023-01-03T16:58:32.171Z</time>
      </trkpt>
      <trkpt lat="43.61739" lon="1.31956">
        <ele>227.706288</ele>
        <time>2023-01-03T16:58:35.175Z</time>
      </trkpt>
      <trkpt lat="43.61743" lon="1.31968">
        <ele>227.793568</ele>
        <time>2023-01-03T16:58:38.151Z</time>
      </trkpt>
      <trkpt lat="43.61749" lon="1.3198">
        <ele>227.880037</ele>
        <time>2023-01-03T16:58:41.156Z</time>
      </trkpt>
      <trkpt lat="43.61756" lon="1.31989">
        <ele>227.966919</ele>
        <time>2023-01-03T16:58:45.162Z</time>
      </trkpt>
      <trkpt lat="43.61761" lon="1.32">
        <ele>228.049455</ele>
        <time>2023-01-03T16:58:48.161Z</time>
      </trkpt>
      <trkpt lat="43.61766" lon="1.32012">
        <ele>228.137318</ele>
        <time>2023-01-03T16:58:51.153Z</time>
      </trkpt>
      <trkpt lat="43.61772" lon="1.32026">
        <ele>228.235658</ele>
        <time>2023-01-03T16:58:54.157Z</time>
      </trkpt>
      <trkpt lat="43.61778" lon="1.3204">
        <ele>228.337889</ele>
        <time>2023-01-03T16:58:57.155Z</time>
      </trkpt>
      <trkpt lat="43.61784" lon="1.32053">
        <ele>228.433959</ele>
        <time>2023-01-03T16:59:00.172Z</time>
      </trkpt>
      <trkpt lat="43.61788" lon="1.32066">
        <ele>228.522556</ele>
        <time>2023-01-03T16:59:03.177Z</time>
      </trkpt>
      <trkpt lat="43.61793" lon="1.32077">
        <ele>228.606614</ele>
        <time>2023-01-03T16:59:06.167Z</time>
      </trkpt>
      <trkpt lat="43.61795" lon="1.3209">
        <ele>228.684884</ele>
        <time>2023-01-03T16:59:09.169Z</time>
      </trkpt>
      <trkpt lat="43.61796" lon="1.32105">
        <ele>228.783261</ele>
        <time>2023-01-03T16:59:13.155Z</time>
      </trkpt>
      <trkpt lat="43.61797" lon="1.32118">
        <ele>228.86383</ele>
        <time>2023-01-03T16:59:16.165Z</time>
      </trkpt>
      <trkpt lat="43.61797" lon="1.32133">
        <ele>228.953855</ele>
        <time>2023-01-03T16:59:19.170Z</time>
      </trkpt>
      <trkpt lat="43.61796" lon="1.32148">
        <ele>229.048715</ele>
        <time>2023-01-03T16:59:22.172Z</time>
      </trkpt>
      <trkpt lat="43.61794" lon="1.32165">
        <ele>229.156369</ele>
        <time>2023-01-03T16:59:25.161Z</time>
      </trkpt>
      <trkpt lat="43.61792" lon="1.32182">
        <ele>229.263548</ele>
        <time>2023-01-03T16:59:28.166Z</time>
      </trkpt>
      <trkpt lat="43.61791" lon="1.32199">
        <ele>229.372722</ele>
        <time>2023-01-03T16:59:31.159Z</time>
      </trkpt>
      <trkpt lat="43.61789" lon="1.32217">
        <ele>229.483394</ele>
        <time>2023-01-03T16:59:34.157Z</time>
      </trkpt>
      <trkpt lat="43.61787" lon="1.32235">
        <ele>229.62421</ele>
        <time>2023-01-03T16:59:37.148Z</time>
      </trkpt>
      <trkpt lat="43.61786" lon="1.32253">
        <ele>229.787173</ele>
        <time>2023-01-03T16:59:40.162Z</time>
      </trkpt>
      <trkpt lat="43.61784" lon="1.3227">
        <ele>229.933701</ele>
        <time>2023-01-03T16:59:43.145Z</time>
      </trkpt>
      <trkpt lat="43.61782" lon="1.32287">
        <ele>230.078017</ele>
        <time>2023-01-03T16:59:46.142Z</time>
      </trkpt>
      <trkpt lat="43.61783" lon="1.32303">
        <ele>230.210949</ele>
        <time>2023-01-03T16:59:49.149Z</time>
      </trkpt>
      <trkpt lat="43.61783" lon="1.32318">
        <ele>230.343824</ele>
        <time>2023-01-03T16:59:52.144Z</time>
      </trkpt>
      <trkpt lat="43.61781" lon="1.32333">
        <ele>230.479248</ele>
        <time>2023-01-03T16:59:55.143Z</time>
      </trkpt>
      <trkpt lat="43.61779" lon="1.3235">
        <ele>230.621247</ele>
        <time>2023-01-03T16:59:58.153Z</time>
      </trkpt>
      <trkpt lat="43.61778" lon="1.32367">
        <ele>230.765608</ele>
        <time>2023-01-03T17:00:01.159Z</time>
      </trkpt>
      <trkpt lat="43.61777" lon="1.32383">
        <ele>230.907513</ele>
        <time>2023-01-03T17:00:04.147Z</time>
      </trkpt>
      <trkpt lat="43.61775" lon="1.32401">
        <ele>231.063283</ele>
        <time>2023-01-03T17:00:07.153Z</time>
      </trkpt>
      <trkpt lat="43.61775" lon="1.32419">
        <ele>231.219153</ele>
        <time>2023-01-03T17:00:10.155Z</time>
      </trkpt>
      <trkpt lat="43.61776" lon="1.32436">
        <ele>231.362412</ele>
        <time>2023-01-03T17:00:13.155Z</time>
      </trkpt>
      <trkpt lat="43.61776" lon="1.32452">
        <ele>231.497852</ele>
        <time>2023-01-03T17:00:16.147Z</time>
      </trkpt>
      <trkpt lat="43.61778" lon="1.32466">
        <ele>231.623206</ele>
        <time>2023-01-03T17:00:19.155Z</time>
      </trkpt>
      <trkpt lat="43.61781" lon="1.32481">
        <ele>231.563395</ele>
        <time>2023-01-03T17:00:23.152Z</time>
      </trkpt>
      <trkpt lat="43.61785" lon="1.32495">
        <ele>231.451389</ele>
        <time>2023-01-03T17:00:27.157Z</time>
      </trkpt>
      <trkpt lat="43.61788" lon="1.32507">
        <ele>231.355337</ele>
        <time>2023-01-03T17:00:30.149Z</time>
      </trkpt>
      <trkpt lat="43.61789" lon="1.32521">
        <ele>231.247869</ele>
        <time>2023-01-03T17:00:33.152Z</time>
      </trkpt>
      <trkpt lat="43.61791" lon="1.32537">
        <ele>231.132029</ele>
        <time>2023-01-03T17:00:36.165Z</time>
      </trkpt>
      <trkpt lat="43.61791" lon="1.32553">
        <ele>231.011494</ele>
        <time>2023-01-03T17:00:39.163Z</time>
      </trkpt>
      <trkpt lat="43.61792" lon="1.32569">
        <ele>230.887423</ele>
        <time>2023-01-03T17:00:42.165Z</time>
      </trkpt>
      <trkpt lat="43.61792" lon="1.32586">
        <ele>230.76396</ele>
        <time>2023-01-03T17:00:45.151Z</time>
      </trkpt>
      <trkpt lat="43.61793" lon="1.32605">
        <ele>230.623404</ele>
        <time>2023-01-03T17:00:48.152Z</time>
      </trkpt>
      <trkpt lat="43.61792" lon="1.32618">
        <ele>230.525157</ele>
        <time>2023-01-03T17:00:50.162Z</time>
      </trkpt>
      <trkpt lat="43.61791" lon="1.32636">
        <ele>230.388583</ele>
        <time>2023-01-03T17:00:53.172Z</time>
      </trkpt>
      <trkpt lat="43.61788" lon="1.32653">
        <ele>230.256604</ele>
        <time>2023-01-03T17:00:56.159Z</time>
      </trkpt>
      <trkpt lat="43.61784" lon="1.3267">
        <ele>230.127957</ele>
        <time>2023-01-03T17:00:59.154Z</time>
      </trkpt>
      <trkpt lat="43.61781" lon="1.32683">
        <ele>230.020278</ele>
        <time>2023-01-03T17:01:02.169Z</time>
      </trkpt>
      <trkpt lat="43.61779" lon="1.32696">
        <ele>229.923653</ele>
        <time>2023-01-03T17:01:07.165Z</time>
      </trkpt>
      <trkpt lat="43.61787" lon="1.32706">
        <ele>229.82087</ele>
        <time>2023-01-03T17:01:16.157Z</time>
      </trkpt>
      <trkpt lat="43.61792" lon="1.32719">
        <ele>229.80511</ele>
        <time>2023-01-03T17:01:21.151Z</time>
      </trkpt>
      <trkpt lat="43.618" lon="1.32728">
        <ele>229.817194</ele>
        <time>2023-01-03T17:01:25.164Z</time>
      </trkpt>
      <trkpt lat="43.61803" lon="1.32739">
        <ele>229.828176</ele>
        <time>2023-01-03T17:01:28.166Z</time>
      </trkpt>
      <trkpt lat="43.61812" lon="1.32743">
        <ele>229.839183</ele>
        <time>2023-01-03T17:01:32.159Z</time>
      </trkpt>
      <trkpt lat="43.61823" lon="1.32743">
        <ele>229.852584</ele>
        <time>2023-01-03T17:01:36.153Z</time>
      </trkpt>
      <trkpt lat="43.61832" lon="1.32742">
        <ele>229.863596</ele>
        <time>2023-01-03T17:01:39.151Z</time>
      </trkpt>
      <trkpt lat="43.61843" lon="1.32746">
        <ele>229.876869</ele>
        <time>2023-01-03T17:01:42.172Z</time>
      </trkpt>
      <trkpt lat="43.61854" lon="1.3275">
        <ele>229.891067</ele>
        <time>2023-01-03T17:01:45.167Z</time>
      </trkpt>
      <trkpt lat="43.61866" lon="1.32754">
        <ele>229.905844</ele>
        <time>2023-01-03T17:01:48.153Z</time>
      </trkpt>
      <trkpt lat="43.61879" lon="1.32759">
        <ele>229.92197</ele>
        <time>2023-01-03T17:01:51.172Z</time>
      </trkpt>
      <trkpt lat="43.61888" lon="1.32763">
        <ele>229.93318</ele>
        <time>2023-01-03T17:01:53.151Z</time>
      </trkpt>
      <trkpt lat="43.61896" lon="1.32775">
        <ele>229.947792</ele>
        <time>2023-01-03T17:01:56.184Z</time>
      </trkpt>
      <trkpt lat="43.61897" lon="1.32792">
        <ele>229.962643</ele>
        <time>2023-01-03T17:01:59.170Z</time>
      </trkpt>
      <trkpt lat="43.61895" lon="1.32809">
        <ele>229.977264</ele>
        <time>2023-01-03T17:02:02.167Z</time>
      </trkpt>
      <trkpt lat="43.61893" lon="1.32825">
        <ele>229.991732</ele>
        <time>2023-01-03T17:02:05.159Z</time>
      </trkpt>
      <trkpt lat="43.61893" lon="1.32841">
        <ele>230.005914</ele>
        <time>2023-01-03T17:02:08.172Z</time>
      </trkpt>
      <trkpt lat="43.61896" lon="1.32854">
        <ele>230.011955</ele>
        <time>2023-01-03T17:02:11.173Z</time>
      </trkpt>
      <trkpt lat="43.61901" lon="1.32867">
        <ele>230.011955</ele>
        <time>2023-01-03T17:02:14.152Z</time>
      </trkpt>
      <trkpt lat="43.61908" lon="1.32876">
        <ele>230.011955</ele>
        <time>2023-01-03T17:02:17.153Z</time>
      </trkpt>
      <trkpt lat="43.61918" lon="1.32876">
        <ele>230.011955</ele>
        <time>2023-01-03T17:02:20.177Z</time>
      </trkpt>
      <trkpt lat="43.61929" lon="1.3287">
        <ele>230.011955</ele>
        <time>2023-01-03T17:02:23.175Z</time>
      </trkpt>
      <trkpt lat="43.61942" lon="1.32871">
        <ele>230.011955</ele>
        <time>2023-01-03T17:02:26.153Z</time>
      </trkpt>
      <trkpt lat="43.61956" lon="1.32873">
        <ele>230.011955</ele>
        <time>2023-01-03T17:02:29.172Z</time>
      </trkpt>
      <trkpt lat="43.61967" lon="1.32875">
        <ele>230.011955</ele>
        <time>2023-01-03T17:02:31.157Z</time>
      </trkpt>
      <trkpt lat="43.61977" lon="1.32876">
        <ele>230.011955</ele>
        <time>2023-01-03T17:02:33.174Z</time>
      </trkpt>
      <trkpt lat="43.61987" lon="1.32877">
        <ele>230.011955</ele>
        <time>2023-01-03T17:02:35.156Z</time>
      </trkpt>
      <trkpt lat="43.61997" lon="1.32878">
        <ele>230.011955</ele>
        <time>2023-01-03T17:02:37.152Z</time>
      </trkpt>
      <trkpt lat="43.62006" lon="1.3288">
        <ele>230.011955</ele>
        <time>2023-01-03T17:02:39.182Z</time>
      </trkpt>
      <trkpt lat="43.62015" lon="1.32881">
        <ele>230.011955</ele>
        <time>2023-01-03T17:02:41.170Z</time>
      </trkpt>
      <trkpt lat="43.62027" lon="1.3288">
        <ele>230.011955</ele>
        <time>2023-01-03T17:02:44.159Z</time>
      </trkpt>
      <trkpt lat="43.62038" lon="1.32874">
        <ele>230.011955</ele>
        <time>2023-01-03T17:02:47.166Z</time>
      </trkpt>
      <trkpt lat="43.62047" lon="1.32862">
        <ele>230.011955</ele>
        <time>2023-01-03T17:02:50.153Z</time>
      </trkpt>
      <trkpt lat="43.62051" lon="1.32848">
        <ele>230.011955</ele>
        <time>2023-01-03T17:02:53.173Z</time>
      </trkpt>
      <trkpt lat="43.62054" lon="1.32835">
        <ele>230.011955</ele>
        <time>2023-01-03T17:02:56.159Z</time>
      </trkpt>
      <trkpt lat="43.62058" lon="1.32821">
        <ele>230.011955</ele>
        <time>2023-01-03T17:03:00.171Z</time>
      </trkpt>
      <trkpt lat="43.62061" lon="1.3281">
        <ele>230.011955</ele>
        <time>2023-01-03T17:03:23.943Z</time>
        <extensions>
          <visugpx:TrkExtension xmlns:visugpx="https://www.visugpx.com/editgpx/">
            <visugpx:node>1</visugpx:node>
            </visugpx:TrkExtension>
        </extensions>
      </trkpt>
    </trkseg>
  </trk>
  <trk>
    <name><![CDATA[Colomiers - Pezens]]></name>
    <extensions>
      <line xmlns="http://www.topografix.com/GPX/gpx_style/0/2">
        <color>0000ff</color>
        <width>4</width>
      </line>
    </extensions>
    <trkseg>
      <trkpt lat="43.62084" lon="1.32901">
        <ele>230.505201</ele>
        <time>2023-01-04T08:20:32.194Z</time>
      </trkpt>
      <trkpt lat="43.62088" lon="1.32888">
        <ele>230.505201</ele>
        <time>2023-01-04T08:21:33.265Z</time>
      </trkpt>
      <trkpt lat="43.62089" lon="1.32874">
        <ele>230.505201</ele>
        <time>2023-01-04T08:21:39.255Z</time>
      </trkpt>
      <trkpt lat="43.62085" lon="1.32862">
        <ele>230.505201</ele>
        <time>2023-01-04T08:21:45.253Z</time>
      </trkpt>
      <trkpt lat="43.62077" lon="1.32852">
        <ele>230.505201</ele>
        <time>2023-01-04T08:21:51.236Z</time>
      </trkpt>
      <trkpt lat="43.6207" lon="1.32844">
        <ele>230.505201</ele>
        <time>2023-01-04T08:21:58.248Z</time>
      </trkpt>
      <trkpt lat="43.6207" lon="1.32831">
        <ele>230.505201</ele>
        <time>2023-01-04T08:23:12.240Z</time>
      </trkpt>
      <trkpt lat="43.62063" lon="1.32821">
        <ele>230.505201</ele>
        <time>2023-01-04T08:23:18.248Z</time>
      </trkpt>
      <trkpt lat="43.62054" lon="1.32822">
        <ele>230.505201</ele>
        <time>2023-01-04T08:23:24.233Z</time>
      </trkpt>
      <trkpt lat="43.62049" lon="1.32832">
        <ele>230.505201</ele>
        <time>2023-01-04T08:23:29.246Z</time>
      </trkpt>
      <trkpt lat="43.62045" lon="1.32847">
        <ele>230.44352</ele>
        <time>2023-01-04T08:23:33.253Z</time>
      </trkpt>
      <trkpt lat="43.62041" lon="1.32858">
        <ele>230.383699</ele>
        <time>2023-01-04T08:23:36.254Z</time>
      </trkpt>
      <trkpt lat="43.62035" lon="1.32868">
        <ele>230.323737</ele>
        <time>2023-01-04T08:23:39.258Z</time>
      </trkpt>
      <trkpt lat="43.62027" lon="1.32875">
        <ele>230.264984</ele>
        <time>2023-01-04T08:23:42.259Z</time>
      </trkpt>
      <trkpt lat="43.62018" lon="1.32875">
        <ele>230.204673</ele>
        <time>2023-01-04T08:23:45.235Z</time>
      </trkpt>
      <trkpt lat="43.62008" lon="1.32874">
        <ele>230.13964</ele>
        <time>2023-01-04T08:23:48.247Z</time>
      </trkpt>
      <trkpt lat="43.61997" lon="1.32873">
        <ele>230.071624</ele>
        <time>2023-01-04T08:23:51.244Z</time>
      </trkpt>
      <trkpt lat="43.61986" lon="1.32872">
        <ele>229.998343</ele>
        <time>2023-01-04T08:23:54.263Z</time>
      </trkpt>
      <trkpt lat="43.61974" lon="1.32871">
        <ele>229.923781</ele>
        <time>2023-01-04T08:23:57.266Z</time>
      </trkpt>
      <trkpt lat="43.61962" lon="1.32869">
        <ele>229.843691</ele>
        <time>2023-01-04T08:24:00.238Z</time>
      </trkpt>
      <trkpt lat="43.6195" lon="1.32867">
        <ele>229.769147</ele>
        <time>2023-01-04T08:24:03.241Z</time>
      </trkpt>
      <trkpt lat="43.61939" lon="1.32866">
        <ele>229.699066</ele>
        <time>2023-01-04T08:24:06.248Z</time>
      </trkpt>
      <trkpt lat="43.61929" lon="1.32865">
        <ele>229.632714</ele>
        <time>2023-01-04T08:24:09.254Z</time>
      </trkpt>
      <trkpt lat="43.61919" lon="1.32864">
        <ele>229.567263</ele>
        <time>2023-01-04T08:24:13.241Z</time>
      </trkpt>
      <trkpt lat="43.6191" lon="1.32873">
        <ele>229.498889</ele>
        <time>2023-01-04T08:24:17.250Z</time>
      </trkpt>
      <trkpt lat="43.6191" lon="1.32887">
        <ele>229.430591</ele>
        <time>2023-01-04T08:24:21.240Z</time>
      </trkpt>
      <trkpt lat="43.61914" lon="1.32899">
        <ele>229.370937</ele>
        <time>2023-01-04T08:24:24.233Z</time>
      </trkpt>
      <trkpt lat="43.61918" lon="1.32912">
        <ele>229.391218</ele>
        <time>2023-01-04T08:24:27.250Z</time>
      </trkpt>
      <trkpt lat="43.6192" lon="1.32927">
        <ele>229.450378</ele>
        <time>2023-01-04T08:24:30.244Z</time>
      </trkpt>
      <trkpt lat="43.61919" lon="1.32942">
        <ele>229.50966</ele>
        <time>2023-01-04T08:24:33.245Z</time>
      </trkpt>
      <trkpt lat="43.61917" lon="1.32957">
        <ele>229.571198</ele>
        <time>2023-01-04T08:24:36.239Z</time>
      </trkpt>
      <trkpt lat="43.61913" lon="1.3297">
        <ele>229.625955</ele>
        <time>2023-01-04T08:24:39.238Z</time>
      </trkpt>
      <trkpt lat="43.61909" lon="1.32983">
        <ele>229.681796</ele>
        <time>2023-01-04T08:24:42.242Z</time>
      </trkpt>
      <trkpt lat="43.61905" lon="1.32997">
        <ele>229.740282</ele>
        <time>2023-01-04T08:24:45.245Z</time>
      </trkpt>
      <trkpt lat="43.61902" lon="1.33011">
        <ele>229.800455</ele>
        <time>2023-01-04T08:24:48.247Z</time>
      </trkpt>
      <trkpt lat="43.61897" lon="1.33025">
        <ele>229.859711</ele>
        <time>2023-01-04T08:24:51.254Z</time>
      </trkpt>
      <trkpt lat="43.61894" lon="1.3304">
        <ele>229.920963</ele>
        <time>2023-01-04T08:24:54.239Z</time>
      </trkpt>
      <trkpt lat="43.61889" lon="1.33055">
        <ele>229.985442</ele>
        <time>2023-01-04T08:24:57.237Z</time>
      </trkpt>
      <trkpt lat="43.61881" lon="1.33068">
        <ele>230.053361</ele>
        <time>2023-01-04T08:25:00.257Z</time>
      </trkpt>
      <trkpt lat="43.61871" lon="1.33078">
        <ele>230.117824</ele>
        <time>2023-01-04T08:25:03.251Z</time>
      </trkpt>
      <trkpt lat="43.61861" lon="1.33082">
        <ele>230.176216</ele>
        <time>2023-01-04T08:25:06.240Z</time>
      </trkpt>
      <trkpt lat="43.6185" lon="1.33084">
        <ele>230.23618</ele>
        <time>2023-01-04T08:25:09.253Z</time>
      </trkpt>
      <trkpt lat="43.61839" lon="1.33082">
        <ele>230.29919</ele>
        <time>2023-01-04T08:25:12.248Z</time>
      </trkpt>
      <trkpt lat="43.61828" lon="1.33079">
        <ele>230.348701</ele>
        <time>2023-01-04T08:25:15.247Z</time>
      </trkpt>
      <trkpt lat="43.61816" lon="1.33076">
        <ele>230.384913</ele>
        <time>2023-01-04T08:25:18.255Z</time>
      </trkpt>
      <trkpt lat="43.61804" lon="1.33073">
        <ele>230.423013</ele>
        <time>2023-01-04T08:25:21.239Z</time>
      </trkpt>
      <trkpt lat="43.61792" lon="1.3307">
        <ele>230.46027</ele>
        <time>2023-01-04T08:25:24.245Z</time>
      </trkpt>
      <trkpt lat="43.6178" lon="1.33066">
        <ele>230.496332</ele>
        <time>2023-01-04T08:25:27.246Z</time>
      </trkpt>
      <trkpt lat="43.6177" lon="1.33062">
        <ele>230.528803</ele>
        <time>2023-01-04T08:25:30.240Z</time>
      </trkpt>
      <trkpt lat="43.6176" lon="1.33057">
        <ele>230.561073</ele>
        <time>2023-01-04T08:25:33.240Z</time>
      </trkpt>
      <trkpt lat="43.6175" lon="1.33049">
        <ele>230.59705</ele>
        <time>2023-01-04T08:25:36.256Z</time>
      </trkpt>
      <trkpt lat="43.61739" lon="1.3304">
        <ele>230.635374</ele>
        <time>2023-01-04T08:25:39.257Z</time>
      </trkpt>
      <trkpt lat="43.61729" lon="1.33031">
        <ele>230.673321</ele>
        <time>2023-01-04T08:25:42.239Z</time>
      </trkpt>
      <trkpt lat="43.61719" lon="1.33021">
        <ele>230.709603</ele>
        <time>2023-01-04T08:25:45.240Z</time>
      </trkpt>
      <trkpt lat="43.61711" lon="1.3301">
        <ele>230.745343</ele>
        <time>2023-01-04T08:25:49.252Z</time>
      </trkpt>
      <trkpt lat="43.6171" lon="1.32996">
        <ele>230.777089</ele>
        <time>2023-01-04T08:25:53.241Z</time>
      </trkpt>
      <trkpt lat="43.61703" lon="1.32988">
        <ele>230.805829</ele>
        <time>2023-01-04T08:25:58.251Z</time>
      </trkpt>
      <trkpt lat="43.61694" lon="1.32994">
        <ele>230.834985</ele>
        <time>2023-01-04T08:26:03.244Z</time>
      </trkpt>
      <trkpt lat="43.61684" lon="1.32991">
        <ele>230.866821</ele>
        <time>2023-01-04T08:26:07.245Z</time>
      </trkpt>
      <trkpt lat="43.61674" lon="1.32998">
        <ele>230.924412</ele>
        <time>2023-01-04T08:26:11.248Z</time>
      </trkpt>
      <trkpt lat="43.61664" lon="1.33008">
        <ele>231.003843</ele>
        <time>2023-01-04T08:26:14.258Z</time>
      </trkpt>
      <trkpt lat="43.61654" lon="1.33016">
        <ele>231.081423</ele>
        <time>2023-01-04T08:26:17.256Z</time>
      </trkpt>
      <trkpt lat="43.61643" lon="1.33019">
        <ele>231.148847</ele>
        <time>2023-01-04T08:26:20.237Z</time>
      </trkpt>
      <trkpt lat="43.61633" lon="1.33015">
        <ele>231.219191</ele>
        <time>2023-01-04T08:26:23.253Z</time>
      </trkpt>
      <trkpt lat="43.61625" lon="1.33007">
        <ele>231.285183</ele>
        <time>2023-01-04T08:26:26.248Z</time>
      </trkpt>
      <trkpt lat="43.61615" lon="1.33001">
        <ele>231.355559</ele>
        <time>2023-01-04T08:26:30.239Z</time>
      </trkpt>
      <trkpt lat="43.61606" lon="1.33">
        <ele>231.414306</ele>
        <time>2023-01-04T08:26:35.240Z</time>
      </trkpt>
      <trkpt lat="43.61599" lon="1.33008">
        <ele>231.474198</ele>
        <time>2023-01-04T08:26:42.240Z</time>
      </trkpt>
      <trkpt lat="43.61593" lon="1.33022">
        <ele>231.548058</ele>
        <time>2023-01-04T08:26:57.252Z</time>
      </trkpt>
      <trkpt lat="43.61587" lon="1.33032">
        <ele>231.609102</ele>
        <time>2023-01-04T08:27:24.247Z</time>
      </trkpt>
      <trkpt lat="43.61582" lon="1.33044">
        <ele>231.675137</ele>
        <time>2023-01-04T08:27:29.253Z</time>
      </trkpt>
      <trkpt lat="43.61577" lon="1.33058">
        <ele>231.748766</ele>
        <time>2023-01-04T08:27:33.233Z</time>
      </trkpt>
      <trkpt lat="43.61572" lon="1.33069">
        <ele>231.808586</ele>
        <time>2023-01-04T08:27:37.239Z</time>
      </trkpt>
      <trkpt lat="43.61567" lon="1.33079">
        <ele>231.868406</ele>
        <time>2023-01-04T08:27:51.249Z</time>
      </trkpt>
      <trkpt lat="43.61561" lon="1.3309">
        <ele>231.932014</ele>
        <time>2023-01-04T08:27:56.238Z</time>
      </trkpt>
      <trkpt lat="43.61557" lon="1.33102">
        <ele>231.994381</ele>
        <time>2023-01-04T08:28:01.248Z</time>
      </trkpt>
      <trkpt lat="43.61551" lon="1.33114">
        <ele>232.070595</ele>
        <time>2023-01-04T08:28:10.239Z</time>
      </trkpt>
      <trkpt lat="43.61545" lon="1.33128">
        <ele>232.186819</ele>
        <time>2023-01-04T08:28:15.250Z</time>
      </trkpt>
      <trkpt lat="43.6154" lon="1.33141">
        <ele>232.302233</ele>
        <time>2023-01-04T08:28:19.242Z</time>
      </trkpt>
      <trkpt lat="43.61535" lon="1.33154">
        <ele>232.408761</ele>
        <time>2023-01-04T08:28:23.241Z</time>
      </trkpt>
      <trkpt lat="43.61531" lon="1.33166">
        <ele>232.505755</ele>
        <time>2023-01-04T08:28:27.234Z</time>
      </trkpt>
      <trkpt lat="43.61526" lon="1.33177">
        <ele>232.601027</ele>
        <time>2023-01-04T08:28:32.240Z</time>
      </trkpt>
      <trkpt lat="43.61518" lon="1.33186">
        <ele>232.705689</ele>
        <time>2023-01-04T08:28:48.249Z</time>
      </trkpt>
      <trkpt lat="43.61508" lon="1.33182">
        <ele>232.813818</ele>
        <time>2023-01-04T08:28:59.247Z</time>
      </trkpt>
      <trkpt lat="43.61499" lon="1.33176">
        <ele>232.912246</ele>
        <time>2023-01-04T08:29:03.265Z</time>
      </trkpt>
      <trkpt lat="43.61488" lon="1.33174">
        <ele>233.022072</ele>
        <time>2023-01-04T08:29:09.253Z</time>
      </trkpt>
      <trkpt lat="43.61478" lon="1.33167">
        <ele>233.139948</ele>
        <time>2023-01-04T08:29:14.248Z</time>
      </trkpt>
      <trkpt lat="43.61467" lon="1.33163">
        <ele>233.257018</ele>
        <time>2023-01-04T08:29:18.242Z</time>
      </trkpt>
      <trkpt lat="43.61458" lon="1.33157">
        <ele>233.357593</ele>
        <time>2023-01-04T08:29:21.254Z</time>
      </trkpt>
      <trkpt lat="43.61448" lon="1.33152">
        <ele>233.463125</ele>
        <time>2023-01-04T08:29:24.257Z</time>
      </trkpt>
      <trkpt lat="43.61439" lon="1.33144">
        <ele>233.573181</ele>
        <time>2023-01-04T08:29:27.242Z</time>
      </trkpt>
      <trkpt lat="43.61428" lon="1.33138">
        <ele>233.692263</ele>
        <time>2023-01-04T08:29:30.237Z</time>
      </trkpt>
      <trkpt lat="43.61417" lon="1.33132">
        <ele>233.811711</ele>
        <time>2023-01-04T08:29:33.233Z</time>
      </trkpt>
      <trkpt lat="43.61405" lon="1.33127">
        <ele>233.825261</ele>
        <time>2023-01-04T08:29:36.235Z</time>
      </trkpt>
      <trkpt lat="43.61393" lon="1.33123">
        <ele>233.700327</ele>
        <time>2023-01-04T08:29:39.257Z</time>
      </trkpt>
      <trkpt lat="43.6138" lon="1.33122">
        <ele>233.572567</ele>
        <time>2023-01-04T08:29:42.256Z</time>
      </trkpt>
      <trkpt lat="43.61368" lon="1.33121">
        <ele>233.458989</ele>
        <time>2023-01-04T08:29:45.256Z</time>
      </trkpt>
      <trkpt lat="43.61357" lon="1.3312">
        <ele>233.349301</ele>
        <time>2023-01-04T08:29:48.243Z</time>
      </trkpt>
      <trkpt lat="43.61347" lon="1.33115">
        <ele>233.236413</ele>
        <time>2023-01-04T08:29:51.247Z</time>
      </trkpt>
      <trkpt lat="43.61337" lon="1.33104">
        <ele>233.112134</ele>
        <time>2023-01-04T08:29:54.237Z</time>
      </trkpt>
      <trkpt lat="43.61331" lon="1.33089">
        <ele>232.987704</ele>
        <time>2023-01-04T08:29:57.247Z</time>
      </trkpt>
      <trkpt lat="43.61322" lon="1.33076">
        <ele>232.862273</ele>
        <time>2023-01-04T08:30:00.244Z</time>
      </trkpt>
      <trkpt lat="43.61311" lon="1.33068">
        <ele>232.733709</ele>
        <time>2023-01-04T08:30:03.248Z</time>
      </trkpt>
      <trkpt lat="43.61298" lon="1.33064">
        <ele>232.602899</ele>
        <time>2023-01-04T08:30:06.245Z</time>
      </trkpt>
      <trkpt lat="43.61285" lon="1.33066">
        <ele>232.470988</ele>
        <time>2023-01-04T08:30:09.247Z</time>
      </trkpt>
      <trkpt lat="43.61277" lon="1.33072">
        <ele>232.379967</ele>
        <time>2023-01-04T08:30:11.246Z</time>
      </trkpt>
      <trkpt lat="43.6127" lon="1.3308">
        <ele>232.289864</ele>
        <time>2023-01-04T08:30:13.241Z</time>
      </trkpt>
      <trkpt lat="43.61262" lon="1.33094">
        <ele>232.164974</ele>
        <time>2023-01-04T08:30:16.256Z</time>
      </trkpt>
      <trkpt lat="43.61259" lon="1.3311">
        <ele>232.073128</ele>
        <time>2023-01-04T08:30:19.253Z</time>
      </trkpt>
      <trkpt lat="43.61258" lon="1.33125">
        <ele>232.02401</ele>
        <time>2023-01-04T08:30:22.249Z</time>
      </trkpt>
      <trkpt lat="43.61259" lon="1.33142">
        <ele>231.972043</ele>
        <time>2023-01-04T08:30:25.241Z</time>
      </trkpt>
      <trkpt lat="43.61263" lon="1.33158">
        <ele>231.917798</ele>
        <time>2023-01-04T08:30:28.253Z</time>
      </trkpt>
      <trkpt lat="43.61267" lon="1.33175">
        <ele>231.8618</ele>
        <time>2023-01-04T08:30:31.258Z</time>
      </trkpt>
      <trkpt lat="43.61269" lon="1.33193">
        <ele>231.806413</ele>
        <time>2023-01-04T08:30:34.240Z</time>
      </trkpt>
      <trkpt lat="43.61267" lon="1.33205">
        <ele>231.767218</ele>
        <time>2023-01-04T08:30:36.243Z</time>
      </trkpt>
      <trkpt lat="43.61264" lon="1.33217">
        <ele>231.728075</ele>
        <time>2023-01-04T08:30:38.239Z</time>
      </trkpt>
      <trkpt lat="43.61261" lon="1.33229">
        <ele>231.687321</ele>
        <time>2023-01-04T08:30:40.239Z</time>
      </trkpt>
      <trkpt lat="43.61258" lon="1.33242">
        <ele>231.64613</ele>
        <time>2023-01-04T08:30:42.237Z</time>
      </trkpt>
      <trkpt lat="43.61253" lon="1.3326">
        <ele>231.586037</ele>
        <time>2023-01-04T08:30:45.238Z</time>
      </trkpt>
      <trkpt lat="43.6125" lon="1.33272">
        <ele>231.543382</ele>
        <time>2023-01-04T08:30:47.239Z</time>
      </trkpt>
      <trkpt lat="43.61246" lon="1.33285">
        <ele>231.502311</ele>
        <time>2023-01-04T08:30:49.236Z</time>
      </trkpt>
      <trkpt lat="43.61241" lon="1.33302">
        <ele>231.443972</ele>
        <time>2023-01-04T08:30:52.236Z</time>
      </trkpt>
      <trkpt lat="43.61238" lon="1.33315">
        <ele>231.400142</ele>
        <time>2023-01-04T08:30:54.247Z</time>
      </trkpt>
      <trkpt lat="43.61235" lon="1.33331">
        <ele>231.351138</ele>
        <time>2023-01-04T08:30:56.246Z</time>
      </trkpt>
      <trkpt lat="43.61231" lon="1.33346">
        <ele>231.355268</ele>
        <time>2023-01-04T08:30:58.255Z</time>
      </trkpt>
      <trkpt lat="43.61228" lon="1.33361">
        <ele>231.450183</ele>
        <time>2023-01-04T08:31:00.259Z</time>
      </trkpt>
      <trkpt lat="43.61224" lon="1.33375">
        <ele>231.544626</ele>
        <time>2023-01-04T08:31:02.248Z</time>
      </trkpt>
      <trkpt lat="43.6122" lon="1.33389">
        <ele>231.636687</ele>
        <time>2023-01-04T08:31:04.244Z</time>
      </trkpt>
      <trkpt lat="43.61216" lon="1.33403">
        <ele>231.727303</ele>
        <time>2023-01-04T08:31:06.251Z</time>
      </trkpt>
      <trkpt lat="43.61213" lon="1.33417">
        <ele>231.813331</ele>
        <time>2023-01-04T08:31:08.241Z</time>
      </trkpt>
      <trkpt lat="43.61208" lon="1.3343">
        <ele>231.902881</ele>
        <time>2023-01-04T08:31:10.239Z</time>
      </trkpt>
      <trkpt lat="43.61204" lon="1.33441">
        <ele>231.979812</ele>
        <time>2023-01-04T08:31:12.242Z</time>
      </trkpt>
      <trkpt lat="43.612" lon="1.33452">
        <ele>232.057267</ele>
        <time>2023-01-04T08:31:14.259Z</time>
      </trkpt>
      <trkpt lat="43.61197" lon="1.33464">
        <ele>232.13499</ele>
        <time>2023-01-04T08:31:16.247Z</time>
      </trkpt>
      <trkpt lat="43.61192" lon="1.33476">
        <ele>232.216474</ele>
        <time>2023-01-04T08:31:18.237Z</time>
      </trkpt>
      <trkpt lat="43.61189" lon="1.33488">
        <ele>232.296145</ele>
        <time>2023-01-04T08:31:20.255Z</time>
      </trkpt>
      <trkpt lat="43.61184" lon="1.33501">
        <ele>232.384032</ele>
        <time>2023-01-04T08:31:22.240Z</time>
      </trkpt>
      <trkpt lat="43.61178" lon="1.33519">
        <ele>232.499059</ele>
        <time>2023-01-04T08:31:25.251Z</time>
      </trkpt>
      <trkpt lat="43.61174" lon="1.33536">
        <ele>232.610619</ele>
        <time>2023-01-04T08:31:28.250Z</time>
      </trkpt>
      <trkpt lat="43.61169" lon="1.33551">
        <ele>232.711665</ele>
        <time>2023-01-04T08:31:31.252Z</time>
      </trkpt>
      <trkpt lat="43.61164" lon="1.33567">
        <ele>232.816278</ele>
        <time>2023-01-04T08:31:34.254Z</time>
      </trkpt>
      <trkpt lat="43.61159" lon="1.33582">
        <ele>232.994431</ele>
        <time>2023-01-04T08:31:37.243Z</time>
      </trkpt>
      <trkpt lat="43.61154" lon="1.33598">
        <ele>233.19433</ele>
        <time>2023-01-04T08:31:40.242Z</time>
      </trkpt>
      <trkpt lat="43.61148" lon="1.33612">
        <ele>233.378137</ele>
        <time>2023-01-04T08:31:43.261Z</time>
      </trkpt>
      <trkpt lat="43.61139" lon="1.33621">
        <ele>233.559779</ele>
        <time>2023-01-04T08:31:46.244Z</time>
      </trkpt>
      <trkpt lat="43.61128" lon="1.33627">
        <ele>233.74637</ele>
        <time>2023-01-04T08:31:49.249Z</time>
      </trkpt>
      <trkpt lat="43.61116" lon="1.33635">
        <ele>233.962377</ele>
        <time>2023-01-04T08:31:52.249Z</time>
      </trkpt>
      <trkpt lat="43.61109" lon="1.33644">
        <ele>234.108213</ele>
        <time>2023-01-04T08:31:54.262Z</time>
      </trkpt>
      <trkpt lat="43.61099" lon="1.33654">
        <ele>234.308424</ele>
        <time>2023-01-04T08:31:57.250Z</time>
      </trkpt>
      <trkpt lat="43.61087" lon="1.33658">
        <ele>234.512671</ele>
        <time>2023-01-04T08:32:00.246Z</time>
      </trkpt>
      <trkpt lat="43.61078" lon="1.33657">
        <ele>234.65967</ele>
        <time>2023-01-04T08:32:02.238Z</time>
      </trkpt>
      <trkpt lat="43.61067" lon="1.33655">
        <ele>234.824391</ele>
        <time>2023-01-04T08:32:04.249Z</time>
      </trkpt>
      <trkpt lat="43.61057" lon="1.33652">
        <ele>234.989113</ele>
        <time>2023-01-04T08:32:06.245Z</time>
      </trkpt>
      <trkpt lat="43.61048" lon="1.33651">
        <ele>235.132647</ele>
        <time>2023-01-04T08:32:08.246Z</time>
      </trkpt>
      <trkpt lat="43.61039" lon="1.33649">
        <ele>235.283463</ele>
        <time>2023-01-04T08:32:10.238Z</time>
      </trkpt>
      <trkpt lat="43.61028" lon="1.33647">
        <ele>235.457996</ele>
        <time>2023-01-04T08:32:12.239Z</time>
      </trkpt>
      <trkpt lat="43.61018" lon="1.33644">
        <ele>235.617267</ele>
        <time>2023-01-04T08:32:14.253Z</time>
      </trkpt>
      <trkpt lat="43.6101" lon="1.3364">
        <ele>235.716488</ele>
        <time>2023-01-04T08:32:16.250Z</time>
      </trkpt>
      <trkpt lat="43.60997" lon="1.33635">
        <ele>235.767634</ele>
        <time>2023-01-04T08:32:19.241Z</time>
      </trkpt>
      <trkpt lat="43.60985" lon="1.33632">
        <ele>235.816638</ele>
        <time>2023-01-04T08:32:22.237Z</time>
      </trkpt>
      <trkpt lat="43.60972" lon="1.33629">
        <ele>235.86626</ele>
        <time>2023-01-04T08:32:25.259Z</time>
      </trkpt>
      <trkpt lat="43.60962" lon="1.33626">
        <ele>235.906018</ele>
        <time>2023-01-04T08:32:28.259Z</time>
      </trkpt>
      <trkpt lat="43.60953" lon="1.33625">
        <ele>235.942125</ele>
        <time>2023-01-04T08:32:31.240Z</time>
      </trkpt>
      <trkpt lat="43.60943" lon="1.33623">
        <ele>235.979762</ele>
        <time>2023-01-04T08:32:34.241Z</time>
      </trkpt>
      <trkpt lat="43.60933" lon="1.33619">
        <ele>236.021965</ele>
        <time>2023-01-04T08:32:37.245Z</time>
      </trkpt>
      <trkpt lat="43.60923" lon="1.33614">
        <ele>236.061893</ele>
        <time>2023-01-04T08:32:40.240Z</time>
      </trkpt>
      <trkpt lat="43.60913" lon="1.33611">
        <ele>236.102445</ele>
        <time>2023-01-04T08:32:43.246Z</time>
      </trkpt>
      <trkpt lat="43.60904" lon="1.33609">
        <ele>236.138207</ele>
        <time>2023-01-04T08:32:46.238Z</time>
      </trkpt>
      <trkpt lat="43.60892" lon="1.33609">
        <ele>236.185149</ele>
        <time>2023-01-04T08:32:50.250Z</time>
      </trkpt>
      <trkpt lat="43.60883" lon="1.33606">
        <ele>236.223339</ele>
        <time>2023-01-04T08:32:53.247Z</time>
      </trkpt>
      <trkpt lat="43.60876" lon="1.33597">
        <ele>236.261199</ele>
        <time>2023-01-04T08:32:56.247Z</time>
      </trkpt>
      <trkpt lat="43.60867" lon="1.3359">
        <ele>236.301454</ele>
        <time>2023-01-04T08:32:59.258Z</time>
      </trkpt>
      <trkpt lat="43.60857" lon="1.33589">
        <ele>236.340563</ele>
        <time>2023-01-04T08:33:02.254Z</time>
      </trkpt>
      <trkpt lat="43.60846" lon="1.33594">
        <ele>236.383408</ele>
        <time>2023-01-04T08:33:05.259Z</time>
      </trkpt>
      <trkpt lat="43.60835" lon="1.33591">
        <ele>236.351863</ele>
        <time>2023-01-04T08:33:08.254Z</time>
      </trkpt>
      <trkpt lat="43.60823" lon="1.33587">
        <ele>236.2529</ele>
        <time>2023-01-04T08:33:11.255Z</time>
      </trkpt>
      <trkpt lat="43.60812" lon="1.33583">
        <ele>236.160302</ele>
        <time>2023-01-04T08:33:14.250Z</time>
      </trkpt>
      <trkpt lat="43.60801" lon="1.3358">
        <ele>236.069027</ele>
        <time>2023-01-04T08:33:17.237Z</time>
      </trkpt>
      <trkpt lat="43.6079" lon="1.33576">
        <ele>235.978532</ele>
        <time>2023-01-04T08:33:20.256Z</time>
      </trkpt>
      <trkpt lat="43.60777" lon="1.33573">
        <ele>235.879181</ele>
        <time>2023-01-04T08:33:23.254Z</time>
      </trkpt>
      <trkpt lat="43.60765" lon="1.33569">
        <ele>235.774754</ele>
        <time>2023-01-04T08:33:26.253Z</time>
      </trkpt>
      <trkpt lat="43.60753" lon="1.33564">
        <ele>235.675843</ele>
        <time>2023-01-04T08:33:29.255Z</time>
      </trkpt>
      <trkpt lat="43.60743" lon="1.33562">
        <ele>235.598203</ele>
        <time>2023-01-04T08:33:32.255Z</time>
      </trkpt>
      <trkpt lat="43.60734" lon="1.33559">
        <ele>235.521113</ele>
        <time>2023-01-04T08:33:35.248Z</time>
      </trkpt>
      <trkpt lat="43.60726" lon="1.33552">
        <ele>235.448218</ele>
        <time>2023-01-04T08:33:38.254Z</time>
      </trkpt>
      <trkpt lat="43.6072" lon="1.33541">
        <ele>235.365221</ele>
        <time>2023-01-04T08:33:41.253Z</time>
      </trkpt>
      <trkpt lat="43.60712" lon="1.3353">
        <ele>235.274782</ele>
        <time>2023-01-04T08:33:44.252Z</time>
      </trkpt>
      <trkpt lat="43.60701" lon="1.33523">
        <ele>235.176945</ele>
        <time>2023-01-04T08:33:47.245Z</time>
      </trkpt>
      <trkpt lat="43.60688" lon="1.33517">
        <ele>235.070098</ele>
        <time>2023-01-04T08:33:50.266Z</time>
      </trkpt>
      <trkpt lat="43.60677" lon="1.33513">
        <ele>234.979604</ele>
        <time>2023-01-04T08:33:54.240Z</time>
      </trkpt>
      <trkpt lat="43.60667" lon="1.3351">
        <ele>235.130684</ele>
        <time>2023-01-04T08:33:56.249Z</time>
      </trkpt>
      <trkpt lat="43.60657" lon="1.33506">
        <ele>235.341067</ele>
        <time>2023-01-04T08:33:57.252Z</time>
      </trkpt>
      <trkpt lat="43.60644" lon="1.33502">
        <ele>235.626377</ele>
        <time>2023-01-04T08:33:59.245Z</time>
      </trkpt>
      <trkpt lat="43.60634" lon="1.33497">
        <ele>235.851542</ele>
        <time>2023-01-04T08:34:01.248Z</time>
      </trkpt>
      <trkpt lat="43.60624" lon="1.33493">
        <ele>236.067997</ele>
        <time>2023-01-04T08:34:03.257Z</time>
      </trkpt>
      <trkpt lat="43.60615" lon="1.3349">
        <ele>236.268246</ele>
        <time>2023-01-04T08:34:05.257Z</time>
      </trkpt>
      <trkpt lat="43.60603" lon="1.33487">
        <ele>236.516777</ele>
        <time>2023-01-04T08:34:08.255Z</time>
      </trkpt>
      <trkpt lat="43.60593" lon="1.33484">
        <ele>236.722813</ele>
        <time>2023-01-04T08:34:11.253Z</time>
      </trkpt>
      <trkpt lat="43.60583" lon="1.3348">
        <ele>236.960432</ele>
        <time>2023-01-04T08:34:15.245Z</time>
      </trkpt>
      <trkpt lat="43.60573" lon="1.33476">
        <ele>237.171296</ele>
        <time>2023-01-04T08:34:19.246Z</time>
      </trkpt>
      <trkpt lat="43.60564" lon="1.33472">
        <ele>237.368786</ele>
        <time>2023-01-04T08:34:23.262Z</time>
      </trkpt>
      <trkpt lat="43.60553" lon="1.33469">
        <ele>237.614663</ele>
        <time>2023-01-04T08:34:27.238Z</time>
      </trkpt>
      <trkpt lat="43.60543" lon="1.33466">
        <ele>237.816453</ele>
        <time>2023-01-04T08:34:30.261Z</time>
      </trkpt>
      <trkpt lat="43.60532" lon="1.3347">
        <ele>238.056352</ele>
        <time>2023-01-04T08:34:34.251Z</time>
      </trkpt>
      <trkpt lat="43.60522" lon="1.33476">
        <ele>238.283224</ele>
        <time>2023-01-04T08:34:38.258Z</time>
      </trkpt>
      <trkpt lat="43.60513" lon="1.33474">
        <ele>238.477087</ele>
        <time>2023-01-04T08:34:41.250Z</time>
      </trkpt>
      <trkpt lat="43.60505" lon="1.33462">
        <ele>238.720987</ele>
        <time>2023-01-04T08:34:45.256Z</time>
      </trkpt>
      <trkpt lat="43.60496" lon="1.33457">
        <ele>238.559949</ele>
        <time>2023-01-04T08:34:50.252Z</time>
      </trkpt>
      <trkpt lat="43.60486" lon="1.33457">
        <ele>238.366306</ele>
        <time>2023-01-04T08:34:55.254Z</time>
      </trkpt>
      <trkpt lat="43.60477" lon="1.33458">
        <ele>238.197364</ele>
        <time>2023-01-04T08:35:01.241Z</time>
      </trkpt>
      <trkpt lat="43.60466" lon="1.33454">
        <ele>237.986259</ele>
        <time>2023-01-04T08:35:06.251Z</time>
      </trkpt>
      <trkpt lat="43.6046" lon="1.33464">
        <ele>237.816508</ele>
        <time>2023-01-04T08:35:10.248Z</time>
      </trkpt>
      <trkpt lat="43.60456" lon="1.33476">
        <ele>237.644599</ele>
        <time>2023-01-04T08:35:13.250Z</time>
      </trkpt>
      <trkpt lat="43.60451" lon="1.33487">
        <ele>237.465091</ele>
        <time>2023-01-04T08:35:16.247Z</time>
      </trkpt>
      <trkpt lat="43.60445" lon="1.335">
        <ele>237.256513</ele>
        <time>2023-01-04T08:35:19.260Z</time>
      </trkpt>
      <trkpt lat="43.60441" lon="1.33514">
        <ele>237.050119</ele>
        <time>2023-01-04T08:35:22.248Z</time>
      </trkpt>
      <trkpt lat="43.60436" lon="1.33526">
        <ele>236.866194</ele>
        <time>2023-01-04T08:35:25.239Z</time>
      </trkpt>
      <trkpt lat="43.6043" lon="1.33541">
        <ele>236.642216</ele>
        <time>2023-01-04T08:35:29.240Z</time>
      </trkpt>
      <trkpt lat="43.60425" lon="1.33553">
        <ele>236.448736</ele>
        <time>2023-01-04T08:35:32.252Z</time>
      </trkpt>
      <trkpt lat="43.60421" lon="1.33565">
        <ele>236.265688</ele>
        <time>2023-01-04T08:35:35.236Z</time>
      </trkpt>
      <trkpt lat="43.60416" lon="1.33577">
        <ele>236.084399</ele>
        <time>2023-01-04T08:35:39.242Z</time>
      </trkpt>
      <trkpt lat="43.60418" lon="1.3359">
        <ele>235.910057</ele>
        <time>2023-01-04T08:35:43.242Z</time>
      </trkpt>
      <trkpt lat="43.60411" lon="1.336">
        <ele>235.718983</ele>
        <time>2023-01-04T08:35:51.254Z</time>
      </trkpt>
      <trkpt lat="43.60401" lon="1.33601">
        <ele>235.524306</ele>
        <time>2023-01-04T08:35:55.254Z</time>
      </trkpt>
      <trkpt lat="43.60391" lon="1.33606">
        <ele>235.32831</ele>
        <time>2023-01-04T08:35:59.250Z</time>
      </trkpt>
      <trkpt lat="43.60383" lon="1.33615">
        <ele>235.076908</ele>
        <time>2023-01-04T08:36:03.251Z</time>
      </trkpt>
      <trkpt lat="43.60376" lon="1.33622">
        <ele>234.8519</ele>
        <time>2023-01-04T08:36:06.259Z</time>
      </trkpt>
      <trkpt lat="43.60369" lon="1.33631">
        <ele>234.632237</ele>
        <time>2023-01-04T08:36:09.250Z</time>
      </trkpt>
      <trkpt lat="43.60361" lon="1.3364">
        <ele>234.37193</ele>
        <time>2023-01-04T08:36:13.254Z</time>
      </trkpt>
      <trkpt lat="43.60347" lon="1.33654">
        <ele>233.963746</ele>
        <time>2023-01-04T08:36:42.271Z</time>
      </trkpt>
      <trkpt lat="43.60337" lon="1.33663">
        <ele>233.680407</ele>
        <time>2023-01-04T08:36:46.251Z</time>
      </trkpt>
      <trkpt lat="43.60331" lon="1.33674">
        <ele>233.434393</ele>
        <time>2023-01-04T08:36:49.255Z</time>
      </trkpt>
      <trkpt lat="43.60325" lon="1.33687">
        <ele>233.174253</ele>
        <time>2023-01-04T08:36:52.254Z</time>
      </trkpt>
      <trkpt lat="43.6032" lon="1.33701">
        <ele>232.899933</ele>
        <time>2023-01-04T08:36:55.241Z</time>
      </trkpt>
      <trkpt lat="43.60316" lon="1.33714">
        <ele>232.645784</ele>
        <time>2023-01-04T08:36:58.255Z</time>
      </trkpt>
      <trkpt lat="43.60313" lon="1.33728">
        <ele>232.398242</ele>
        <time>2023-01-04T08:37:01.255Z</time>
      </trkpt>
      <trkpt lat="43.60311" lon="1.33741">
        <ele>232.167104</ele>
        <time>2023-01-04T08:37:04.251Z</time>
      </trkpt>
      <trkpt lat="43.60309" lon="1.33754">
        <ele>231.941757</ele>
        <time>2023-01-04T08:37:07.254Z</time>
      </trkpt>
      <trkpt lat="43.60307" lon="1.33768">
        <ele>231.688667</ele>
        <time>2023-01-04T08:37:10.245Z</time>
      </trkpt>
      <trkpt lat="43.60304" lon="1.33783">
        <ele>231.409339</ele>
        <time>2023-01-04T08:37:13.251Z</time>
      </trkpt>
      <trkpt lat="43.60301" lon="1.33798">
        <ele>231.135342</ele>
        <time>2023-01-04T08:37:16.247Z</time>
      </trkpt>
      <trkpt lat="43.60298" lon="1.33814">
        <ele>230.924269</ele>
        <time>2023-01-04T08:37:19.250Z</time>
      </trkpt>
      <trkpt lat="43.60295" lon="1.3383">
        <ele>230.734404</ele>
        <time>2023-01-04T08:37:22.249Z</time>
      </trkpt>
      <trkpt lat="43.60292" lon="1.33846">
        <ele>230.541459</ele>
        <time>2023-01-04T08:37:25.248Z</time>
      </trkpt>
      <trkpt lat="43.60289" lon="1.33863">
        <ele>230.33616</ele>
        <time>2023-01-04T08:37:28.250Z</time>
      </trkpt>
      <trkpt lat="43.60286" lon="1.3388">
        <ele>230.125959</ele>
        <time>2023-01-04T08:37:31.250Z</time>
      </trkpt>
      <trkpt lat="43.60283" lon="1.33898">
        <ele>229.912023</ele>
        <time>2023-01-04T08:37:34.246Z</time>
      </trkpt>
      <trkpt lat="43.60281" lon="1.33911">
        <ele>229.761599</ele>
        <time>2023-01-04T08:37:36.248Z</time>
      </trkpt>
      <trkpt lat="43.60278" lon="1.33924">
        <ele>229.608618</ele>
        <time>2023-01-04T08:37:38.254Z</time>
      </trkpt>
      <trkpt lat="43.60276" lon="1.33936">
        <ele>229.455699</ele>
        <time>2023-01-04T08:37:40.254Z</time>
      </trkpt>
      <trkpt lat="43.60274" lon="1.3395">
        <ele>229.299856</ele>
        <time>2023-01-04T08:37:42.243Z</time>
      </trkpt>
      <trkpt lat="43.60272" lon="1.33962">
        <ele>229.149536</ele>
        <time>2023-01-04T08:37:44.255Z</time>
      </trkpt>
      <trkpt lat="43.60269" lon="1.33975">
        <ele>228.994566</ele>
        <time>2023-01-04T08:37:46.265Z</time>
      </trkpt>
      <trkpt lat="43.60267" lon="1.33988">
        <ele>228.840876</ele>
        <time>2023-01-04T08:37:48.249Z</time>
      </trkpt>
      <trkpt lat="43.60265" lon="1.34001">
        <ele>228.683403</ele>
        <time>2023-01-04T08:37:50.261Z</time>
      </trkpt>
      <trkpt lat="43.60262" lon="1.34014">
        <ele>228.522845</ele>
        <time>2023-01-04T08:37:52.251Z</time>
      </trkpt>
      <trkpt lat="43.60259" lon="1.34028">
        <ele>228.355969</ele>
        <time>2023-01-04T08:37:54.254Z</time>
      </trkpt>
      <trkpt lat="43.60257" lon="1.34042">
        <ele>228.189446</ele>
        <time>2023-01-04T08:37:56.241Z</time>
      </trkpt>
      <trkpt lat="43.60255" lon="1.34057">
        <ele>228.133273</ele>
        <time>2023-01-04T08:37:58.241Z</time>
      </trkpt>
      <trkpt lat="43.60253" lon="1.34071">
        <ele>228.093223</ele>
        <time>2023-01-04T08:38:00.258Z</time>
      </trkpt>
      <trkpt lat="43.6025" lon="1.34085">
        <ele>228.052093</ele>
        <time>2023-01-04T08:38:02.253Z</time>
      </trkpt>
      <trkpt lat="43.60247" lon="1.34099">
        <ele>228.012253</ele>
        <time>2023-01-04T08:38:04.235Z</time>
      </trkpt>
      <trkpt lat="43.60244" lon="1.34113">
        <ele>227.972993</ele>
        <time>2023-01-04T08:38:06.253Z</time>
      </trkpt>
      <trkpt lat="43.60242" lon="1.34127">
        <ele>227.931596</ele>
        <time>2023-01-04T08:38:08.269Z</time>
      </trkpt>
      <trkpt lat="43.60239" lon="1.34142">
        <ele>227.890466</ele>
        <time>2023-01-04T08:38:10.249Z</time>
      </trkpt>
      <trkpt lat="43.60236" lon="1.34155">
        <ele>227.852168</ele>
        <time>2023-01-04T08:38:12.250Z</time>
      </trkpt>
      <trkpt lat="43.60234" lon="1.34168">
        <ele>227.815196</ele>
        <time>2023-01-04T08:38:14.256Z</time>
      </trkpt>
      <trkpt lat="43.60231" lon="1.3418">
        <ele>227.778258</ele>
        <time>2023-01-04T08:38:16.258Z</time>
      </trkpt>
      <trkpt lat="43.6023" lon="1.34193">
        <ele>227.743835</ele>
        <time>2023-01-04T08:38:18.248Z</time>
      </trkpt>
      <trkpt lat="43.60227" lon="1.34209">
        <ele>227.698366</ele>
        <time>2023-01-04T08:38:21.251Z</time>
      </trkpt>
      <trkpt lat="43.60225" lon="1.34225">
        <ele>227.651562</ele>
        <time>2023-01-04T08:38:24.259Z</time>
      </trkpt>
      <trkpt lat="43.60223" lon="1.34242">
        <ele>227.606175</ele>
        <time>2023-01-04T08:38:27.262Z</time>
      </trkpt>
      <trkpt lat="43.60223" lon="1.34258">
        <ele>227.562209</ele>
        <time>2023-01-04T08:38:30.255Z</time>
      </trkpt>
      <trkpt lat="43.60224" lon="1.34274">
        <ele>227.517908</ele>
        <time>2023-01-04T08:38:33.245Z</time>
      </trkpt>
      <trkpt lat="43.60224" lon="1.3429">
        <ele>227.397263</ele>
        <time>2023-01-04T08:38:36.242Z</time>
      </trkpt>
      <trkpt lat="43.60226" lon="1.34308">
        <ele>227.017186</ele>
        <time>2023-01-04T08:38:39.252Z</time>
      </trkpt>
      <trkpt lat="43.60226" lon="1.34321">
        <ele>226.740812</ele>
        <time>2023-01-04T08:38:41.241Z</time>
      </trkpt>
      <trkpt lat="43.60226" lon="1.34334">
        <ele>226.468469</ele>
        <time>2023-01-04T08:38:43.253Z</time>
      </trkpt>
      <trkpt lat="43.60228" lon="1.34351">
        <ele>226.115244</ele>
        <time>2023-01-04T08:38:46.251Z</time>
      </trkpt>
      <trkpt lat="43.6023" lon="1.34367">
        <ele>225.773485</ele>
        <time>2023-01-04T08:38:49.258Z</time>
      </trkpt>
      <trkpt lat="43.60233" lon="1.34383">
        <ele>225.414625</ele>
        <time>2023-01-04T08:38:52.255Z</time>
      </trkpt>
      <trkpt lat="43.60236" lon="1.34401">
        <ele>225.031851</ele>
        <time>2023-01-04T08:38:55.252Z</time>
      </trkpt>
      <trkpt lat="43.60238" lon="1.34413">
        <ele>224.762567</ele>
        <time>2023-01-04T08:38:57.250Z</time>
      </trkpt>
      <trkpt lat="43.60241" lon="1.34425">
        <ele>224.498702</ele>
        <time>2023-01-04T08:38:59.245Z</time>
      </trkpt>
      <trkpt lat="43.60242" lon="1.34439">
        <ele>224.21731</ele>
        <time>2023-01-04T08:39:01.248Z</time>
      </trkpt>
      <trkpt lat="43.60246" lon="1.34455">
        <ele>223.861029</ele>
        <time>2023-01-04T08:39:04.250Z</time>
      </trkpt>
      <trkpt lat="43.60249" lon="1.34469">
        <ele>223.539282</ele>
        <time>2023-01-04T08:39:07.255Z</time>
      </trkpt>
      <trkpt lat="43.60251" lon="1.34483">
        <ele>223.248812</ele>
        <time>2023-01-04T08:39:10.247Z</time>
      </trkpt>
      <trkpt lat="43.60245" lon="1.34492">
        <ele>222.981736</ele>
        <time>2023-01-04T08:39:16.245Z</time>
      </trkpt>
      <trkpt lat="43.60236" lon="1.34481">
        <ele>222.635428</ele>
        <time>2023-01-04T08:39:20.252Z</time>
      </trkpt>
      <trkpt lat="43.60227" lon="1.34473">
        <ele>222.334574</ele>
        <time>2023-01-04T08:39:23.269Z</time>
      </trkpt>
      <trkpt lat="43.60218" lon="1.34465">
        <ele>222.079788</ele>
        <time>2023-01-04T08:39:27.248Z</time>
      </trkpt>
      <trkpt lat="43.60207" lon="1.34456">
        <ele>221.823331</ele>
        <time>2023-01-04T08:39:30.243Z</time>
      </trkpt>
      <trkpt lat="43.60197" lon="1.34448">
        <ele>221.590799</ele>
        <time>2023-01-04T08:39:32.258Z</time>
      </trkpt>
      <trkpt lat="43.60188" lon="1.34438">
        <ele>221.345675</ele>
        <time>2023-01-04T08:39:34.258Z</time>
      </trkpt>
      <trkpt lat="43.60176" lon="1.3443">
        <ele>221.084216</ele>
        <time>2023-01-04T08:39:36.245Z</time>
      </trkpt>
      <trkpt lat="43.60164" lon="1.34424">
        <ele>220.816329</ele>
        <time>2023-01-04T08:39:38.242Z</time>
      </trkpt>
      <trkpt lat="43.60151" lon="1.34424">
        <ele>220.553132</ele>
        <time>2023-01-04T08:39:40.253Z</time>
      </trkpt>
      <trkpt lat="43.60139" lon="1.34429">
        <ele>220.303759</ele>
        <time>2023-01-04T08:39:42.250Z</time>
      </trkpt>
      <trkpt lat="43.60129" lon="1.34436">
        <ele>220.065735</ele>
        <time>2023-01-04T08:39:44.256Z</time>
      </trkpt>
      <trkpt lat="43.60121" lon="1.34444">
        <ele>219.865726</ele>
        <time>2023-01-04T08:39:46.257Z</time>
      </trkpt>
      <trkpt lat="43.60112" lon="1.34458">
        <ele>219.589361</ele>
        <time>2023-01-04T08:39:49.253Z</time>
      </trkpt>
      <trkpt lat="43.60103" lon="1.34471">
        <ele>219.319336</ele>
        <time>2023-01-04T08:39:52.254Z</time>
      </trkpt>
      <trkpt lat="43.60094" lon="1.34485">
        <ele>219.056732</ele>
        <time>2023-01-04T08:39:55.244Z</time>
      </trkpt>
      <trkpt lat="43.60087" lon="1.34499">
        <ele>218.804236</ele>
        <time>2023-01-04T08:39:58.260Z</time>
      </trkpt>
      <trkpt lat="43.60081" lon="1.34508">
        <ele>218.617871</ele>
        <time>2023-01-04T08:40:00.240Z</time>
      </trkpt>
      <trkpt lat="43.60072" lon="1.34518">
        <ele>218.626826</ele>
        <time>2023-01-04T08:40:02.256Z</time>
      </trkpt>
      <trkpt lat="43.60065" lon="1.34528">
        <ele>218.690446</ele>
        <time>2023-01-04T08:40:04.259Z</time>
      </trkpt>
      <trkpt lat="43.60057" lon="1.34539">
        <ele>218.757034</ele>
        <time>2023-01-04T08:40:06.246Z</time>
      </trkpt>
      <trkpt lat="43.6005" lon="1.3455">
        <ele>218.824269</ele>
        <time>2023-01-04T08:40:08.251Z</time>
      </trkpt>
      <trkpt lat="43.60042" lon="1.34561">
        <ele>218.891033</ele>
        <time>2023-01-04T08:40:10.263Z</time>
      </trkpt>
      <trkpt lat="43.60034" lon="1.34573">
        <ele>218.963427</ele>
        <time>2023-01-04T08:40:12.243Z</time>
      </trkpt>
      <trkpt lat="43.60024" lon="1.34584">
        <ele>219.036869</ele>
        <time>2023-01-04T08:40:14.262Z</time>
      </trkpt>
      <trkpt lat="43.60014" lon="1.34591">
        <ele>219.10385</ele>
        <time>2023-01-04T08:40:16.256Z</time>
      </trkpt>
      <trkpt lat="43.60003" lon="1.34595">
        <ele>219.170659</ele>
        <time>2023-01-04T08:40:18.261Z</time>
      </trkpt>
      <trkpt lat="43.59994" lon="1.34597">
        <ele>219.229979</ele>
        <time>2023-01-04T08:40:20.256Z</time>
      </trkpt>
      <trkpt lat="43.59984" lon="1.34598">
        <ele>219.288996</ele>
        <time>2023-01-04T08:40:22.250Z</time>
      </trkpt>
      <trkpt lat="43.59974" lon="1.34598">
        <ele>219.349057</ele>
        <time>2023-01-04T08:40:24.255Z</time>
      </trkpt>
      <trkpt lat="43.59964" lon="1.34598">
        <ele>219.409722</ele>
        <time>2023-01-04T08:40:26.251Z</time>
      </trkpt>
      <trkpt lat="43.59954" lon="1.34598">
        <ele>219.465583</ele>
        <time>2023-01-04T08:40:28.261Z</time>
      </trkpt>
      <trkpt lat="43.59945" lon="1.34599">
        <ele>219.523899</ele>
        <time>2023-01-04T08:40:30.262Z</time>
      </trkpt>
      <trkpt lat="43.59932" lon="1.346">
        <ele>219.597898</ele>
        <time>2023-01-04T08:40:33.251Z</time>
      </trkpt>
      <trkpt lat="43.59923" lon="1.34599">
        <ele>219.652614</ele>
        <time>2023-01-04T08:40:35.246Z</time>
      </trkpt>
      <trkpt lat="43.59911" lon="1.34599">
        <ele>219.555303</ele>
        <time>2023-01-04T08:40:38.256Z</time>
      </trkpt>
      <trkpt lat="43.59899" lon="1.34598">
        <ele>219.459817</ele>
        <time>2023-01-04T08:40:41.254Z</time>
      </trkpt>
      <trkpt lat="43.59888" lon="1.34596">
        <ele>219.377535</ele>
        <time>2023-01-04T08:40:44.252Z</time>
      </trkpt>
      <trkpt lat="43.59879" lon="1.34593">
        <ele>219.297929</ele>
        <time>2023-01-04T08:40:47.259Z</time>
      </trkpt>
      <trkpt lat="43.59868" lon="1.34591">
        <ele>219.214527</ele>
        <time>2023-01-04T08:40:50.246Z</time>
      </trkpt>
      <trkpt lat="43.59857" lon="1.34587">
        <ele>219.123554</ele>
        <time>2023-01-04T08:40:53.263Z</time>
      </trkpt>
      <trkpt lat="43.59846" lon="1.34579">
        <ele>219.023661</ele>
        <time>2023-01-04T08:40:56.258Z</time>
      </trkpt>
      <trkpt lat="43.59834" lon="1.34572">
        <ele>218.922323</ele>
        <time>2023-01-04T08:40:59.247Z</time>
      </trkpt>
      <trkpt lat="43.59825" lon="1.34574">
        <ele>218.847164</ele>
        <time>2023-01-04T08:41:01.251Z</time>
      </trkpt>
      <trkpt lat="43.59815" lon="1.34576">
        <ele>218.771237</ele>
        <time>2023-01-04T08:41:03.241Z</time>
      </trkpt>
      <trkpt lat="43.59805" lon="1.34577">
        <ele>218.693364</ele>
        <time>2023-01-04T08:41:05.248Z</time>
      </trkpt>
      <trkpt lat="43.59795" lon="1.34575">
        <ele>218.609631</ele>
        <time>2023-01-04T08:41:07.252Z</time>
      </trkpt>
      <trkpt lat="43.59784" lon="1.34572">
        <ele>218.520196</ele>
        <time>2023-01-04T08:41:09.249Z</time>
      </trkpt>
      <trkpt lat="43.59772" lon="1.34569">
        <ele>218.426247</ele>
        <time>2023-01-04T08:41:11.254Z</time>
      </trkpt>
      <trkpt lat="43.59762" lon="1.34567">
        <ele>218.342922</ele>
        <time>2023-01-04T08:41:13.242Z</time>
      </trkpt>
      <trkpt lat="43.59751" lon="1.34565">
        <ele>218.252282</ele>
        <time>2023-01-04T08:41:16.246Z</time>
      </trkpt>
      <trkpt lat="43.59741" lon="1.34568">
        <ele>217.983753</ele>
        <time>2023-01-04T08:41:20.245Z</time>
      </trkpt>
      <trkpt lat="43.59729" lon="1.34563">
        <ele>217.548978</ele>
        <time>2023-01-04T08:41:24.251Z</time>
      </trkpt>
      <trkpt lat="43.59718" lon="1.34558">
        <ele>217.143964</ele>
        <time>2023-01-04T08:41:27.250Z</time>
      </trkpt>
      <trkpt lat="43.59708" lon="1.34552">
        <ele>216.732447</ele>
        <time>2023-01-04T08:41:30.239Z</time>
      </trkpt>
      <trkpt lat="43.59698" lon="1.34546">
        <ele>216.335084</ele>
        <time>2023-01-04T08:41:33.250Z</time>
      </trkpt>
      <trkpt lat="43.59688" lon="1.34539">
        <ele>215.942056</ele>
        <time>2023-01-04T08:41:36.256Z</time>
      </trkpt>
      <trkpt lat="43.59679" lon="1.34532">
        <ele>215.565433</ele>
        <time>2023-01-04T08:41:39.258Z</time>
      </trkpt>
      <trkpt lat="43.59669" lon="1.34526">
        <ele>215.196077</ele>
        <time>2023-01-04T08:41:42.255Z</time>
      </trkpt>
      <trkpt lat="43.5966" lon="1.34518">
        <ele>214.818125</ele>
        <time>2023-01-04T08:41:45.254Z</time>
      </trkpt>
      <trkpt lat="43.59653" lon="1.3451">
        <ele>214.462206</ele>
        <time>2023-01-04T08:41:48.269Z</time>
      </trkpt>
      <trkpt lat="43.59645" lon="1.34502">
        <ele>214.121131</ele>
        <time>2023-01-04T08:41:51.246Z</time>
      </trkpt>
      <trkpt lat="43.59636" lon="1.34505">
        <ele>213.799619</ele>
        <time>2023-01-04T08:41:56.247Z</time>
      </trkpt>
      <trkpt lat="43.59639" lon="1.34518">
        <ele>213.458423</ele>
        <time>2023-01-04T08:41:59.252Z</time>
      </trkpt>
      <trkpt lat="43.59642" lon="1.34534">
        <ele>213.011645</ele>
        <time>2023-01-04T08:42:02.262Z</time>
      </trkpt>
      <trkpt lat="43.59644" lon="1.34547">
        <ele>212.67118</ele>
        <time>2023-01-04T08:42:04.250Z</time>
      </trkpt>
      <trkpt lat="43.59645" lon="1.34561">
        <ele>212.317935</ele>
        <time>2023-01-04T08:42:06.246Z</time>
      </trkpt>
      <trkpt lat="43.59646" lon="1.34574">
        <ele>211.970728</ele>
        <time>2023-01-04T08:42:08.263Z</time>
      </trkpt>
      <trkpt lat="43.59646" lon="1.34588">
        <ele>211.694938</ele>
        <time>2023-01-04T08:42:10.253Z</time>
      </trkpt>
      <trkpt lat="43.59644" lon="1.34602">
        <ele>211.525045</ele>
        <time>2023-01-04T08:42:12.250Z</time>
      </trkpt>
      <trkpt lat="43.59639" lon="1.34616">
        <ele>211.340412</ele>
        <time>2023-01-04T08:42:14.253Z</time>
      </trkpt>
      <trkpt lat="43.59635" lon="1.3463">
        <ele>211.153376</ele>
        <time>2023-01-04T08:42:16.249Z</time>
      </trkpt>
      <trkpt lat="43.5963" lon="1.34645">
        <ele>210.96143</ele>
        <time>2023-01-04T08:42:18.255Z</time>
      </trkpt>
      <trkpt lat="43.59626" lon="1.34658">
        <ele>210.784934</ele>
        <time>2023-01-04T08:42:20.268Z</time>
      </trkpt>
      <trkpt lat="43.59621" lon="1.34672">
        <ele>210.609115</ele>
        <time>2023-01-04T08:42:22.250Z</time>
      </trkpt>
      <trkpt lat="43.59617" lon="1.34685">
        <ele>210.436819</ele>
        <time>2023-01-04T08:42:24.260Z</time>
      </trkpt>
      <trkpt lat="43.59614" lon="1.34697">
        <ele>210.280594</ele>
        <time>2023-01-04T08:42:26.262Z</time>
      </trkpt>
      <trkpt lat="43.5961" lon="1.3471">
        <ele>210.11387</ele>
        <time>2023-01-04T08:42:28.256Z</time>
      </trkpt>
      <trkpt lat="43.59606" lon="1.34722">
        <ele>209.954726</ele>
        <time>2023-01-04T08:42:30.259Z</time>
      </trkpt>
      <trkpt lat="43.59602" lon="1.34734">
        <ele>209.793653</ele>
        <time>2023-01-04T08:42:32.248Z</time>
      </trkpt>
      <trkpt lat="43.59597" lon="1.34747">
        <ele>209.624987</ele>
        <time>2023-01-04T08:42:34.240Z</time>
      </trkpt>
      <trkpt lat="43.59593" lon="1.34759">
        <ele>209.462114</ele>
        <time>2023-01-04T08:42:36.262Z</time>
      </trkpt>
      <trkpt lat="43.59588" lon="1.3477">
        <ele>209.311879</ele>
        <time>2023-01-04T08:42:38.246Z</time>
      </trkpt>
      <trkpt lat="43.59582" lon="1.34785">
        <ele>209.098928</ele>
        <time>2023-01-04T08:42:41.248Z</time>
      </trkpt>
      <trkpt lat="43.59577" lon="1.34799">
        <ele>208.906019</ele>
        <time>2023-01-04T08:42:44.262Z</time>
      </trkpt>
      <trkpt lat="43.59573" lon="1.34815">
        <ele>208.78858</ele>
        <time>2023-01-04T08:42:47.259Z</time>
      </trkpt>
      <trkpt lat="43.59568" lon="1.34831">
        <ele>208.766508</ele>
        <time>2023-01-04T08:42:50.252Z</time>
      </trkpt>
      <trkpt lat="43.59562" lon="1.34847">
        <ele>208.744114</ele>
        <time>2023-01-04T08:42:53.247Z</time>
      </trkpt>
      <trkpt lat="43.59557" lon="1.3486">
        <ele>208.724523</ele>
        <time>2023-01-04T08:42:56.255Z</time>
      </trkpt>
      <trkpt lat="43.59552" lon="1.34872">
        <ele>208.707074</ele>
        <time>2023-01-04T08:42:59.245Z</time>
      </trkpt>
      <trkpt lat="43.59545" lon="1.34883">
        <ele>208.687818</ele>
        <time>2023-01-04T08:43:02.248Z</time>
      </trkpt>
      <trkpt lat="43.59537" lon="1.34895">
        <ele>208.668137</ele>
        <time>2023-01-04T08:43:05.247Z</time>
      </trkpt>
      <trkpt lat="43.5953" lon="1.34909">
        <ele>208.646979</ele>
        <time>2023-01-04T08:43:08.251Z</time>
      </trkpt>
      <trkpt lat="43.59524" lon="1.34924">
        <ele>208.624621</ele>
        <time>2023-01-04T08:43:11.253Z</time>
      </trkpt>
      <trkpt lat="43.59517" lon="1.34938">
        <ele>208.602913</ele>
        <time>2023-01-04T08:43:14.254Z</time>
      </trkpt>
      <trkpt lat="43.59512" lon="1.34952">
        <ele>208.582901</ele>
        <time>2023-01-04T08:43:17.245Z</time>
      </trkpt>
      <trkpt lat="43.59506" lon="1.34967">
        <ele>208.561333</ele>
        <time>2023-01-04T08:43:20.261Z</time>
      </trkpt>
      <trkpt lat="43.59503" lon="1.34982">
        <ele>208.541913</ele>
        <time>2023-01-04T08:43:23.257Z</time>
      </trkpt>
      <trkpt lat="43.59501" lon="1.34996">
        <ele>208.524211</ele>
        <time>2023-01-04T08:43:26.247Z</time>
      </trkpt>
      <trkpt lat="43.59496" lon="1.35008">
        <ele>208.506873</ele>
        <time>2023-01-04T08:43:29.253Z</time>
      </trkpt>
      <trkpt lat="43.5949" lon="1.35018">
        <ele>208.490754</ele>
        <time>2023-01-04T08:43:32.256Z</time>
      </trkpt>
      <trkpt lat="43.59487" lon="1.35033">
        <ele>208.594613</ele>
        <time>2023-01-04T08:43:36.257Z</time>
      </trkpt>
      <trkpt lat="43.59488" lon="1.35046">
        <ele>208.730826</ele>
        <time>2023-01-04T08:43:39.251Z</time>
      </trkpt>
      <trkpt lat="43.59489" lon="1.35032">
        <ele>208.880741</ele>
        <time>2023-01-04T08:43:58.251Z</time>
      </trkpt>
      <trkpt lat="43.59486" lon="1.35018">
        <ele>209.034452</ele>
        <time>2023-01-04T08:44:02.249Z</time>
      </trkpt>
      <trkpt lat="43.59478" lon="1.35013">
        <ele>209.177076</ele>
        <time>2023-01-04T08:44:05.251Z</time>
      </trkpt>
      <trkpt lat="43.59467" lon="1.35009">
        <ele>209.343609</ele>
        <time>2023-01-04T08:44:08.252Z</time>
      </trkpt>
      <trkpt lat="43.59456" lon="1.35004">
        <ele>209.517307</ele>
        <time>2023-01-04T08:44:11.243Z</time>
      </trkpt>
      <trkpt lat="43.59445" lon="1.35">
        <ele>209.684332</ele>
        <time>2023-01-04T08:44:14.251Z</time>
      </trkpt>
      <trkpt lat="43.59435" lon="1.35006">
        <ele>209.845931</ele>
        <time>2023-01-04T08:44:18.244Z</time>
      </trkpt>
      <trkpt lat="43.59435" lon="1.3502">
        <ele>209.995848</ele>
        <time>2023-01-04T08:44:21.239Z</time>
      </trkpt>
      <trkpt lat="43.59436" lon="1.35033">
        <ele>210.137604</ele>
        <time>2023-01-04T08:44:24.242Z</time>
      </trkpt>
      <trkpt lat="43.59437" lon="1.35046">
        <ele>210.284166</ele>
        <time>2023-01-04T08:44:27.239Z</time>
      </trkpt>
      <trkpt lat="43.59439" lon="1.35062">
        <ele>210.456975</ele>
        <time>2023-01-04T08:44:30.244Z</time>
      </trkpt>
      <trkpt lat="43.59443" lon="1.35079">
        <ele>210.648319</ele>
        <time>2023-01-04T08:44:33.243Z</time>
      </trkpt>
      <trkpt lat="43.59445" lon="1.35096">
        <ele>210.832065</ele>
        <time>2023-01-04T08:44:36.243Z</time>
      </trkpt>
      <trkpt lat="43.59447" lon="1.35111">
        <ele>211.000201</ele>
        <time>2023-01-04T08:44:39.252Z</time>
      </trkpt>
      <trkpt lat="43.59449" lon="1.35124">
        <ele>211.142273</ele>
        <time>2023-01-04T08:44:42.259Z</time>
      </trkpt>
      <trkpt lat="43.59447" lon="1.35138">
        <ele>211.322043</ele>
        <time>2023-01-04T08:44:46.240Z</time>
      </trkpt>
      <trkpt lat="43.59442" lon="1.35149">
        <ele>211.49445</ele>
        <time>2023-01-04T08:44:50.253Z</time>
      </trkpt>
      <trkpt lat="43.59435" lon="1.3516">
        <ele>211.679613</ele>
        <time>2023-01-04T08:44:54.269Z</time>
      </trkpt>
      <trkpt lat="43.5943" lon="1.3517">
        <ele>211.842109</ele>
        <time>2023-01-04T08:44:57.250Z</time>
      </trkpt>
      <trkpt lat="43.59426" lon="1.35183">
        <ele>212.030804</ele>
        <time>2023-01-04T08:45:00.242Z</time>
      </trkpt>
      <trkpt lat="43.59421" lon="1.35196">
        <ele>212.210887</ele>
        <time>2023-01-04T08:45:03.243Z</time>
      </trkpt>
      <trkpt lat="43.59417" lon="1.35209">
        <ele>212.396297</ele>
        <time>2023-01-04T08:45:06.243Z</time>
      </trkpt>
      <trkpt lat="43.59413" lon="1.35223">
        <ele>212.596337</ele>
        <time>2023-01-04T08:45:09.237Z</time>
      </trkpt>
      <trkpt lat="43.5941" lon="1.35235">
        <ele>212.759727</ele>
        <time>2023-01-04T08:45:11.248Z</time>
      </trkpt>
      <trkpt lat="43.59406" lon="1.35246">
        <ele>212.92414</ele>
        <time>2023-01-04T08:45:13.249Z</time>
      </trkpt>
      <trkpt lat="43.59401" lon="1.35261">
        <ele>213.137499</ele>
        <time>2023-01-04T08:45:16.246Z</time>
      </trkpt>
      <trkpt lat="43.59397" lon="1.35273">
        <ele>213.316028</ele>
        <time>2023-01-04T08:45:19.261Z</time>
      </trkpt>
      <trkpt lat="43.59392" lon="1.35287">
        <ele>213.508659</ele>
        <time>2023-01-04T08:45:22.255Z</time>
      </trkpt>
      <trkpt lat="43.59387" lon="1.35299">
        <ele>213.696326</ele>
        <time>2023-01-04T08:45:25.244Z</time>
      </trkpt>
      <trkpt lat="43.59381" lon="1.35312">
        <ele>213.895175</ele>
        <time>2023-01-04T08:45:28.252Z</time>
      </trkpt>
      <trkpt lat="43.59376" lon="1.35324">
        <ele>214.074598</ele>
        <time>2023-01-04T08:45:31.253Z</time>
      </trkpt>
      <trkpt lat="43.59371" lon="1.35337">
        <ele>214.268045</ele>
        <time>2023-01-04T08:45:34.262Z</time>
      </trkpt>
      <trkpt lat="43.59366" lon="1.35349">
        <ele>214.371041</ele>
        <time>2023-01-04T08:45:37.246Z</time>
      </trkpt>
      <trkpt lat="43.5936" lon="1.35362">
        <ele>214.056785</ele>
        <time>2023-01-04T08:45:40.245Z</time>
      </trkpt>
      <trkpt lat="43.59354" lon="1.35377">
        <ele>213.725901</ele>
        <time>2023-01-04T08:45:43.244Z</time>
      </trkpt>
      <trkpt lat="43.59348" lon="1.35388">
        <ele>213.449507</ele>
        <time>2023-01-04T08:45:46.244Z</time>
      </trkpt>
      <trkpt lat="43.59343" lon="1.354">
        <ele>213.173222</ele>
        <time>2023-01-04T08:45:49.245Z</time>
      </trkpt>
      <trkpt lat="43.59337" lon="1.35414">
        <ele>212.84663</ele>
        <time>2023-01-04T08:45:52.244Z</time>
      </trkpt>
      <trkpt lat="43.59335" lon="1.35427">
        <ele>212.580649</ele>
        <time>2023-01-04T08:45:56.254Z</time>
      </trkpt>
      <trkpt lat="43.59335" lon="1.35442">
        <ele>212.267778</ele>
        <time>2023-01-04T08:46:00.244Z</time>
      </trkpt>
      <trkpt lat="43.5933" lon="1.35455">
        <ele>211.971684</ele>
        <time>2023-01-04T08:46:03.258Z</time>
      </trkpt>
      <trkpt lat="43.59326" lon="1.35469">
        <ele>211.670386</ele>
        <time>2023-01-04T08:46:06.245Z</time>
      </trkpt>
      <trkpt lat="43.59322" lon="1.35483">
        <ele>211.359042</ele>
        <time>2023-01-04T08:46:09.243Z</time>
      </trkpt>
      <trkpt lat="43.59318" lon="1.35499">
        <ele>211.034491</ele>
        <time>2023-01-04T08:46:12.242Z</time>
      </trkpt>
      <trkpt lat="43.59316" lon="1.35515">
        <ele>210.696523</ele>
        <time>2023-01-04T08:46:15.241Z</time>
      </trkpt>
      <trkpt lat="43.59314" lon="1.35531">
        <ele>210.367401</ele>
        <time>2023-01-04T08:46:18.246Z</time>
      </trkpt>
      <trkpt lat="43.59312" lon="1.35548">
        <ele>210.02792</ele>
        <time>2023-01-04T08:46:21.254Z</time>
      </trkpt>
      <trkpt lat="43.5931" lon="1.35564">
        <ele>209.708676</ele>
        <time>2023-01-04T08:46:24.245Z</time>
      </trkpt>
      <trkpt lat="43.59308" lon="1.35579">
        <ele>209.428071</ele>
        <time>2023-01-04T08:46:27.250Z</time>
      </trkpt>
      <trkpt lat="43.59307" lon="1.35596">
        <ele>209.348333</ele>
        <time>2023-01-04T08:46:30.249Z</time>
      </trkpt>
      <trkpt lat="43.59305" lon="1.35613">
        <ele>209.262482</ele>
        <time>2023-01-04T08:46:33.250Z</time>
      </trkpt>
      <trkpt lat="43.59303" lon="1.3563">
        <ele>209.178265</ele>
        <time>2023-01-04T08:46:36.239Z</time>
      </trkpt>
      <trkpt lat="43.59301" lon="1.35646">
        <ele>209.100826</ele>
        <time>2023-01-04T08:46:39.243Z</time>
      </trkpt>
      <trkpt lat="43.59299" lon="1.35662">
        <ele>209.023564</ele>
        <time>2023-01-04T08:46:42.243Z</time>
      </trkpt>
      <trkpt lat="43.59296" lon="1.35678">
        <ele>208.944172</ele>
        <time>2023-01-04T08:46:45.250Z</time>
      </trkpt>
      <trkpt lat="43.59294" lon="1.35696">
        <ele>208.857443</ele>
        <time>2023-01-04T08:46:48.253Z</time>
      </trkpt>
      <trkpt lat="43.59292" lon="1.35709">
        <ele>208.795035</ele>
        <time>2023-01-04T08:46:50.247Z</time>
      </trkpt>
      <trkpt lat="43.59291" lon="1.35721">
        <ele>208.732627</ele>
        <time>2023-01-04T08:46:52.255Z</time>
      </trkpt>
      <trkpt lat="43.59289" lon="1.35734">
        <ele>208.672022</ele>
        <time>2023-01-04T08:46:54.256Z</time>
      </trkpt>
      <trkpt lat="43.59288" lon="1.35752">
        <ele>208.586394</ele>
        <time>2023-01-04T08:46:57.249Z</time>
      </trkpt>
      <trkpt lat="43.59286" lon="1.35767">
        <ele>208.511417</ele>
        <time>2023-01-04T08:47:00.245Z</time>
      </trkpt>
      <trkpt lat="43.59285" lon="1.35782">
        <ele>208.437652</ele>
        <time>2023-01-04T08:47:03.249Z</time>
      </trkpt>
      <trkpt lat="43.59283" lon="1.35797">
        <ele>208.366955</ele>
        <time>2023-01-04T08:47:06.253Z</time>
      </trkpt>
      <trkpt lat="43.59281" lon="1.35809">
        <ele>208.305497</ele>
        <time>2023-01-04T08:47:09.256Z</time>
      </trkpt>
      <trkpt lat="43.5928" lon="1.35824">
        <ele>208.238979</ele>
        <time>2023-01-04T08:47:12.251Z</time>
      </trkpt>
      <trkpt lat="43.59279" lon="1.3584">
        <ele>208.203864</ele>
        <time>2023-01-04T08:47:15.244Z</time>
      </trkpt>
      <trkpt lat="43.59278" lon="1.35858">
        <ele>208.167202</ele>
        <time>2023-01-04T08:47:18.265Z</time>
      </trkpt>
      <trkpt lat="43.59278" lon="1.35873">
        <ele>208.134646</ele>
        <time>2023-01-04T08:47:21.254Z</time>
      </trkpt>
      <trkpt lat="43.59277" lon="1.35887">
        <ele>208.10494</ele>
        <time>2023-01-04T08:47:24.269Z</time>
      </trkpt>
      <trkpt lat="43.59273" lon="1.35899">
        <ele>208.076613</ele>
        <time>2023-01-04T08:47:27.248Z</time>
      </trkpt>
      <trkpt lat="43.59269" lon="1.35914">
        <ele>208.042405</ele>
        <time>2023-01-04T08:47:30.255Z</time>
      </trkpt>
      <trkpt lat="43.59268" lon="1.35931">
        <ele>208.006539</ele>
        <time>2023-01-04T08:47:33.243Z</time>
      </trkpt>
      <trkpt lat="43.59265" lon="1.35947">
        <ele>207.972085</ele>
        <time>2023-01-04T08:47:36.256Z</time>
      </trkpt>
      <trkpt lat="43.59261" lon="1.35959">
        <ele>207.943848</ele>
        <time>2023-01-04T08:47:38.253Z</time>
      </trkpt>
      <trkpt lat="43.59256" lon="1.35976">
        <ele>207.904565</ele>
        <time>2023-01-04T08:47:41.244Z</time>
      </trkpt>
      <trkpt lat="43.5925" lon="1.35993">
        <ele>207.865669</ele>
        <time>2023-01-04T08:47:44.256Z</time>
      </trkpt>
      <trkpt lat="43.59244" lon="1.36008">
        <ele>207.829945</ele>
        <time>2023-01-04T08:47:47.248Z</time>
      </trkpt>
      <trkpt lat="43.5924" lon="1.36022">
        <ele>207.797458</ele>
        <time>2023-01-04T08:47:50.263Z</time>
      </trkpt>
      <trkpt lat="43.59233" lon="1.36033">
        <ele>207.766624</ele>
        <time>2023-01-04T08:47:53.245Z</time>
      </trkpt>
      <trkpt lat="43.59223" lon="1.36036">
        <ele>207.736713</ele>
        <time>2023-01-04T08:47:56.249Z</time>
      </trkpt>
      <trkpt lat="43.59212" lon="1.36038">
        <ele>207.698183</ele>
        <time>2023-01-04T08:47:59.245Z</time>
      </trkpt>
      <trkpt lat="43.59205" lon="1.36048">
        <ele>207.65049</ele>
        <time>2023-01-04T08:48:02.258Z</time>
      </trkpt>
      <trkpt lat="43.59205" lon="1.36063">
        <ele>207.600858</ele>
        <time>2023-01-04T08:48:05.252Z</time>
      </trkpt>
      <trkpt lat="43.59208" lon="1.36077">
        <ele>207.551727</ele>
        <time>2023-01-04T08:48:08.250Z</time>
      </trkpt>
      <trkpt lat="43.59205" lon="1.36092">
        <ele>207.499736</ele>
        <time>2023-01-04T08:48:11.255Z</time>
      </trkpt>
      <trkpt lat="43.59201" lon="1.36108">
        <ele>207.438846</ele>
        <time>2023-01-04T08:48:14.252Z</time>
      </trkpt>
      <trkpt lat="43.59198" lon="1.3612">
        <ele>207.396177</ele>
        <time>2023-01-04T08:48:16.248Z</time>
      </trkpt>
      <trkpt lat="43.59195" lon="1.36132">
        <ele>207.353023</ele>
        <time>2023-01-04T08:48:18.244Z</time>
      </trkpt>
      <trkpt lat="43.59191" lon="1.36144">
        <ele>207.309434</ele>
        <time>2023-01-04T08:48:20.276Z</time>
      </trkpt>
      <trkpt lat="43.59187" lon="1.36155">
        <ele>207.266984</ele>
        <time>2023-01-04T08:48:22.248Z</time>
      </trkpt>
      <trkpt lat="43.59181" lon="1.3617">
        <ele>207.210216</ele>
        <time>2023-01-04T08:48:25.249Z</time>
      </trkpt>
      <trkpt lat="43.59175" lon="1.36182">
        <ele>207.161175</ele>
        <time>2023-01-04T08:48:28.245Z</time>
      </trkpt>
      <trkpt lat="43.59165" lon="1.36188">
        <ele>207.112143</ele>
        <time>2023-01-04T08:48:31.241Z</time>
      </trkpt>
      <trkpt lat="43.59157" lon="1.36194">
        <ele>207.067181</ele>
        <time>2023-01-04T08:48:34.247Z</time>
      </trkpt>
      <trkpt lat="43.59153" lon="1.36207">
        <ele>207.019699</ele>
        <time>2023-01-04T08:48:38.243Z</time>
      </trkpt>
      <trkpt lat="43.59157" lon="1.36219">
        <ele>206.975111</ele>
        <time>2023-01-04T08:48:53.252Z</time>
      </trkpt>
      <trkpt lat="43.59167" lon="1.3622">
        <ele>206.926623</ele>
        <time>2023-01-04T08:48:57.246Z</time>
      </trkpt>
      <trkpt lat="43.59176" lon="1.36211">
        <ele>206.873687</ele>
        <time>2023-01-04T08:49:01.255Z</time>
      </trkpt>
      <trkpt lat="43.59177" lon="1.36197">
        <ele>206.765584</ele>
        <time>2023-01-04T08:49:05.269Z</time>
      </trkpt>
      <trkpt lat="43.59169" lon="1.36186">
        <ele>206.641948</ele>
        <time>2023-01-04T08:49:09.256Z</time>
      </trkpt>
      <trkpt lat="43.59161" lon="1.36178">
        <ele>206.535142</ele>
        <time>2023-01-04T08:49:12.254Z</time>
      </trkpt>
      <trkpt lat="43.59152" lon="1.36167">
        <ele>206.40881</ele>
        <time>2023-01-04T08:49:16.243Z</time>
      </trkpt>
      <trkpt lat="43.59145" lon="1.36159">
        <ele>206.310571</ele>
        <time>2023-01-04T08:49:19.244Z</time>
      </trkpt>
      <trkpt lat="43.59139" lon="1.36148">
        <ele>206.205787</ele>
        <time>2023-01-04T08:49:22.253Z</time>
      </trkpt>
      <trkpt lat="43.59133" lon="1.36138">
        <ele>206.107967</ele>
        <time>2023-01-04T08:49:25.253Z</time>
      </trkpt>
      <trkpt lat="43.59124" lon="1.36128">
        <ele>205.98223</ele>
        <time>2023-01-04T08:49:29.248Z</time>
      </trkpt>
      <trkpt lat="43.59115" lon="1.36122">
        <ele>205.872277</ele>
        <time>2023-01-04T08:49:33.250Z</time>
      </trkpt>
      <trkpt lat="43.59107" lon="1.3613">
        <ele>205.763237</ele>
        <time>2023-01-04T08:49:37.251Z</time>
      </trkpt>
      <trkpt lat="43.59101" lon="1.36145">
        <ele>205.634205</ele>
        <time>2023-01-04T08:49:40.246Z</time>
      </trkpt>
      <trkpt lat="43.59097" lon="1.36162">
        <ele>205.497048</ele>
        <time>2023-01-04T08:49:43.252Z</time>
      </trkpt>
      <trkpt lat="43.59103" lon="1.36177">
        <ele>205.362791</ele>
        <time>2023-01-04T08:49:46.254Z</time>
      </trkpt>
      <trkpt lat="43.59112" lon="1.3619">
        <ele>205.226301</ele>
        <time>2023-01-04T08:49:49.246Z</time>
      </trkpt>
      <trkpt lat="43.59118" lon="1.36202">
        <ele>205.116031</ele>
        <time>2023-01-04T08:49:52.260Z</time>
      </trkpt>
      <trkpt lat="43.59121" lon="1.36219">
        <ele>204.980921</ele>
        <time>2023-01-04T08:49:55.258Z</time>
      </trkpt>
      <trkpt lat="43.59121" lon="1.36233">
        <ele>204.799321</ele>
        <time>2023-01-04T08:49:57.266Z</time>
      </trkpt>
      <trkpt lat="43.59121" lon="1.36247">
        <ele>204.581599</ele>
        <time>2023-01-04T08:49:59.264Z</time>
      </trkpt>
      <trkpt lat="43.59122" lon="1.3626">
        <ele>204.389047</ele>
        <time>2023-01-04T08:50:01.251Z</time>
      </trkpt>
      <trkpt lat="43.59126" lon="1.36276">
        <ele>204.132719</ele>
        <time>2023-01-04T08:50:04.252Z</time>
      </trkpt>
      <trkpt lat="43.59138" lon="1.36284">
        <ele>203.868663</ele>
        <time>2023-01-04T08:50:07.256Z</time>
      </trkpt>
      <trkpt lat="43.59146" lon="1.36291">
        <ele>203.673158</ele>
        <time>2023-01-04T08:50:10.253Z</time>
      </trkpt>
      <trkpt lat="43.59145" lon="1.36308">
        <ele>203.424855</ele>
        <time>2023-01-04T08:50:14.255Z</time>
      </trkpt>
      <trkpt lat="43.59141" lon="1.36322">
        <ele>203.188079</ele>
        <time>2023-01-04T08:50:17.250Z</time>
      </trkpt>
      <trkpt lat="43.59137" lon="1.3634">
        <ele>202.921388</ele>
        <time>2023-01-04T08:50:20.243Z</time>
      </trkpt>
      <trkpt lat="43.59133" lon="1.36356">
        <ele>202.664901</ele>
        <time>2023-01-04T08:50:23.241Z</time>
      </trkpt>
      <trkpt lat="43.59128" lon="1.36373">
        <ele>202.388827</ele>
        <time>2023-01-04T08:50:26.255Z</time>
      </trkpt>
      <trkpt lat="43.59125" lon="1.3639">
        <ele>202.123248</ele>
        <time>2023-01-04T08:50:29.256Z</time>
      </trkpt>
      <trkpt lat="43.5912" lon="1.36407">
        <ele>201.863406</ele>
        <time>2023-01-04T08:50:32.257Z</time>
      </trkpt>
      <trkpt lat="43.59118" lon="1.36422">
        <ele>201.625447</ele>
        <time>2023-01-04T08:50:35.248Z</time>
      </trkpt>
      <trkpt lat="43.59115" lon="1.36434">
        <ele>201.439068</ele>
        <time>2023-01-04T08:50:37.250Z</time>
      </trkpt>
      <trkpt lat="43.59112" lon="1.36447">
        <ele>201.250912</ele>
        <time>2023-01-04T08:50:39.255Z</time>
      </trkpt>
      <trkpt lat="43.59108" lon="1.36465">
        <ele>201.22004</ele>
        <time>2023-01-04T08:50:42.259Z</time>
      </trkpt>
      <trkpt lat="43.59104" lon="1.36481">
        <ele>201.191564</ele>
        <time>2023-01-04T08:50:45.259Z</time>
      </trkpt>
      <trkpt lat="43.59099" lon="1.36497">
        <ele>201.163299</ele>
        <time>2023-01-04T08:50:48.256Z</time>
      </trkpt>
      <trkpt lat="43.59096" lon="1.3651">
        <ele>201.141262</ele>
        <time>2023-01-04T08:50:50.254Z</time>
      </trkpt>
      <trkpt lat="43.59093" lon="1.36523">
        <ele>201.11911</ele>
        <time>2023-01-04T08:50:52.260Z</time>
      </trkpt>
      <trkpt lat="43.59089" lon="1.36535">
        <ele>201.096263</ele>
        <time>2023-01-04T08:50:54.254Z</time>
      </trkpt>
      <trkpt lat="43.59085" lon="1.36548">
        <ele>201.073174</ele>
        <time>2023-01-04T08:50:56.248Z</time>
      </trkpt>
      <trkpt lat="43.5908" lon="1.3656">
        <ele>201.050788</ele>
        <time>2023-01-04T08:50:58.249Z</time>
      </trkpt>
      <trkpt lat="43.59075" lon="1.36571">
        <ele>201.029084</ele>
        <time>2023-01-04T08:51:00.240Z</time>
      </trkpt>
      <trkpt lat="43.59069" lon="1.36581">
        <ele>201.007969</ele>
        <time>2023-01-04T08:51:02.250Z</time>
      </trkpt>
      <trkpt lat="43.59064" lon="1.36592">
        <ele>200.986848</ele>
        <time>2023-01-04T08:51:04.258Z</time>
      </trkpt>
      <trkpt lat="43.59056" lon="1.36604">
        <ele>200.958628</ele>
        <time>2023-01-04T08:51:07.246Z</time>
      </trkpt>
      <trkpt lat="43.59047" lon="1.36616">
        <ele>200.930302</ele>
        <time>2023-01-04T08:51:10.255Z</time>
      </trkpt>
      <trkpt lat="43.59038" lon="1.36621">
        <ele>200.909814</ele>
        <time>2023-01-04T08:51:13.252Z</time>
      </trkpt>
      <trkpt lat="43.59029" lon="1.36621">
        <ele>200.888175</ele>
        <time>2023-01-04T08:51:16.249Z</time>
      </trkpt>
      <trkpt lat="43.59019" lon="1.36618">
        <ele>200.864535</ele>
        <time>2023-01-04T08:51:20.254Z</time>
      </trkpt>
      <trkpt lat="43.5901" lon="1.36617">
        <ele>200.843288</ele>
        <time>2023-01-04T08:51:25.253Z</time>
      </trkpt>
      <trkpt lat="43.59" lon="1.36625">
        <ele>200.97914</ele>
        <time>2023-01-04T08:51:32.253Z</time>
      </trkpt>
      <trkpt lat="43.58997" lon="1.3664">
        <ele>201.120641</ele>
        <time>2023-01-04T08:51:36.246Z</time>
      </trkpt>
      <trkpt lat="43.58999" lon="1.36654">
        <ele>201.244983</ele>
        <time>2023-01-04T08:51:39.260Z</time>
      </trkpt>
      <trkpt lat="43.59001" lon="1.36667">
        <ele>201.361616</ele>
        <time>2023-01-04T08:51:42.261Z</time>
      </trkpt>
      <trkpt lat="43.59002" lon="1.3668">
        <ele>201.478438</ele>
        <time>2023-01-04T08:51:45.253Z</time>
      </trkpt>
      <trkpt lat="43.59005" lon="1.36695">
        <ele>201.616084</ele>
        <time>2023-01-04T08:51:48.254Z</time>
      </trkpt>
      <trkpt lat="43.59007" lon="1.36709">
        <ele>201.748445</ele>
        <time>2023-01-04T08:51:51.255Z</time>
      </trkpt>
      <trkpt lat="43.59009" lon="1.36723">
        <ele>201.879046</ele>
        <time>2023-01-04T08:51:54.244Z</time>
      </trkpt>
      <trkpt lat="43.59011" lon="1.36738">
        <ele>202.010917</ele>
        <time>2023-01-04T08:51:57.258Z</time>
      </trkpt>
      <trkpt lat="43.59013" lon="1.36752">
        <ele>202.140383</ele>
        <time>2023-01-04T08:52:00.250Z</time>
      </trkpt>
      <trkpt lat="43.59015" lon="1.36764">
        <ele>202.252365</ele>
        <time>2023-01-04T08:52:03.251Z</time>
      </trkpt>
      <trkpt lat="43.59015" lon="1.36781">
        <ele>202.40208</ele>
        <time>2023-01-04T08:52:07.258Z</time>
      </trkpt>
      <trkpt lat="43.59016" lon="1.36794">
        <ele>202.520824</ele>
        <time>2023-01-04T08:52:10.254Z</time>
      </trkpt>
      <trkpt lat="43.59016" lon="1.36807">
        <ele>202.642247</ele>
        <time>2023-01-04T08:52:13.254Z</time>
      </trkpt>
      <trkpt lat="43.59015" lon="1.36821">
        <ele>202.763822</ele>
        <time>2023-01-04T08:52:16.267Z</time>
      </trkpt>
      <trkpt lat="43.59014" lon="1.36834">
        <ele>202.883672</ele>
        <time>2023-01-04T08:52:19.254Z</time>
      </trkpt>
      <trkpt lat="43.59014" lon="1.3685">
        <ele>203.028903</ele>
        <time>2023-01-04T08:52:23.266Z</time>
      </trkpt>
      <trkpt lat="43.5901" lon="1.36866">
        <ele>203.249663</ele>
        <time>2023-01-04T08:52:27.264Z</time>
      </trkpt>
      <trkpt lat="43.59006" lon="1.36878">
        <ele>203.448493</ele>
        <time>2023-01-04T08:52:30.270Z</time>
      </trkpt>
      <trkpt lat="43.59004" lon="1.36891">
        <ele>203.65397</ele>
        <time>2023-01-04T08:52:33.265Z</time>
      </trkpt>
      <trkpt lat="43.59001" lon="1.36904">
        <ele>203.86947</ele>
        <time>2023-01-04T08:52:36.255Z</time>
      </trkpt>
      <trkpt lat="43.58999" lon="1.3692">
        <ele>204.113193</ele>
        <time>2023-01-04T08:52:40.256Z</time>
      </trkpt>
      <trkpt lat="43.58996" lon="1.36932">
        <ele>204.319939</ele>
        <time>2023-01-04T08:52:44.253Z</time>
      </trkpt>
      <trkpt lat="43.58993" lon="1.36946">
        <ele>204.541455</ele>
        <time>2023-01-04T08:52:49.261Z</time>
      </trkpt>
      <trkpt lat="43.58991" lon="1.36958">
        <ele>204.735994</ele>
        <time>2023-01-04T08:52:54.253Z</time>
      </trkpt>
      <trkpt lat="43.58988" lon="1.36973">
        <ele>204.974066</ele>
        <time>2023-01-04T08:52:58.256Z</time>
      </trkpt>
      <trkpt lat="43.58987" lon="1.36987">
        <ele>205.18676</ele>
        <time>2023-01-04T08:53:01.259Z</time>
      </trkpt>
      <trkpt lat="43.58984" lon="1.37001">
        <ele>205.407256</ele>
        <time>2023-01-04T08:53:04.259Z</time>
      </trkpt>
      <trkpt lat="43.58982" lon="1.37015">
        <ele>205.628961</ele>
        <time>2023-01-04T08:53:07.248Z</time>
      </trkpt>
      <trkpt lat="43.58981" lon="1.37028">
        <ele>205.838879</ele>
        <time>2023-01-04T08:53:10.245Z</time>
      </trkpt>
      <trkpt lat="43.58979" lon="1.37043">
        <ele>206.073155</ele>
        <time>2023-01-04T08:53:13.251Z</time>
      </trkpt>
      <trkpt lat="43.58978" lon="1.37058">
        <ele>206.303702</ele>
        <time>2023-01-04T08:53:16.258Z</time>
      </trkpt>
      <trkpt lat="43.58977" lon="1.37074">
        <ele>206.548101</ele>
        <time>2023-01-04T08:53:19.246Z</time>
      </trkpt>
      <trkpt lat="43.58977" lon="1.37091">
        <ele>206.807555</ele>
        <time>2023-01-04T08:53:22.247Z</time>
      </trkpt>
      <trkpt lat="43.58977" lon="1.37108">
        <ele>206.886602</ele>
        <time>2023-01-04T08:53:25.246Z</time>
      </trkpt>
      <trkpt lat="43.58977" lon="1.37125">
        <ele>206.852962</ele>
        <time>2023-01-04T08:53:28.245Z</time>
      </trkpt>
      <trkpt lat="43.58977" lon="1.37143">
        <ele>206.818549</ele>
        <time>2023-01-04T08:53:31.247Z</time>
      </trkpt>
      <trkpt lat="43.58977" lon="1.37159">
        <ele>206.785916</ele>
        <time>2023-01-04T08:53:34.256Z</time>
      </trkpt>
      <trkpt lat="43.58977" lon="1.37176">
        <ele>206.752086</ele>
        <time>2023-01-04T08:53:37.271Z</time>
      </trkpt>
      <trkpt lat="43.58978" lon="1.37193">
        <ele>206.718607</ele>
        <time>2023-01-04T08:53:40.253Z</time>
      </trkpt>
      <trkpt lat="43.58979" lon="1.37211">
        <ele>206.683494</ele>
        <time>2023-01-04T08:53:43.258Z</time>
      </trkpt>
      <trkpt lat="43.5898" lon="1.37229">
        <ele>206.647001</ele>
        <time>2023-01-04T08:53:46.268Z</time>
      </trkpt>
      <trkpt lat="43.58981" lon="1.37243">
        <ele>206.619571</ele>
        <time>2023-01-04T08:53:48.270Z</time>
      </trkpt>
      <trkpt lat="43.58981" lon="1.37256">
        <ele>206.593639</ele>
        <time>2023-01-04T08:53:50.271Z</time>
      </trkpt>
      <trkpt lat="43.58982" lon="1.37269">
        <ele>206.567708</ele>
        <time>2023-01-04T08:53:52.264Z</time>
      </trkpt>
      <trkpt lat="43.58981" lon="1.37282">
        <ele>206.542369</ele>
        <time>2023-01-04T08:53:54.256Z</time>
      </trkpt>
      <trkpt lat="43.58982" lon="1.37297">
        <ele>206.513364</ele>
        <time>2023-01-04T08:53:56.259Z</time>
      </trkpt>
      <trkpt lat="43.58983" lon="1.37309">
        <ele>206.488233</ele>
        <time>2023-01-04T08:53:58.259Z</time>
      </trkpt>
      <trkpt lat="43.58983" lon="1.37324">
        <ele>206.459275</ele>
        <time>2023-01-04T08:54:00.270Z</time>
      </trkpt>
      <trkpt lat="43.58984" lon="1.37337">
        <ele>206.434152</ele>
        <time>2023-01-04T08:54:02.259Z</time>
      </trkpt>
      <trkpt lat="43.58983" lon="1.3735">
        <ele>206.438196</ele>
        <time>2023-01-04T08:54:04.244Z</time>
      </trkpt>
      <trkpt lat="43.58984" lon="1.37368">
        <ele>206.528121</ele>
        <time>2023-01-04T08:54:07.251Z</time>
      </trkpt>
      <trkpt lat="43.58985" lon="1.37385">
        <ele>206.613008</ele>
        <time>2023-01-04T08:54:10.258Z</time>
      </trkpt>
      <trkpt lat="43.58986" lon="1.37399">
        <ele>206.677597</ele>
        <time>2023-01-04T08:54:12.246Z</time>
      </trkpt>
      <trkpt lat="43.58986" lon="1.37411">
        <ele>206.740629</ele>
        <time>2023-01-04T08:54:14.244Z</time>
      </trkpt>
      <trkpt lat="43.58986" lon="1.37425">
        <ele>206.80647</ele>
        <time>2023-01-04T08:54:16.253Z</time>
      </trkpt>
      <trkpt lat="43.58987" lon="1.37438">
        <ele>206.869949</ele>
        <time>2023-01-04T08:54:18.246Z</time>
      </trkpt>
      <trkpt lat="43.58987" lon="1.37451">
        <ele>206.934857</ele>
        <time>2023-01-04T08:54:20.248Z</time>
      </trkpt>
      <trkpt lat="43.58988" lon="1.37464">
        <ele>206.997791</ele>
        <time>2023-01-04T08:54:22.247Z</time>
      </trkpt>
      <trkpt lat="43.58988" lon="1.37477">
        <ele>207.06118</ele>
        <time>2023-01-04T08:54:24.253Z</time>
      </trkpt>
      <trkpt lat="43.58988" lon="1.37491">
        <ele>207.127509</ele>
        <time>2023-01-04T08:54:26.250Z</time>
      </trkpt>
      <trkpt lat="43.58989" lon="1.37509">
        <ele>207.215444</ele>
        <time>2023-01-04T08:54:29.249Z</time>
      </trkpt>
      <trkpt lat="43.58989" lon="1.37526">
        <ele>207.301761</ele>
        <time>2023-01-04T08:54:32.253Z</time>
      </trkpt>
      <trkpt lat="43.5899" lon="1.37539">
        <ele>207.364613</ele>
        <time>2023-01-04T08:54:34.251Z</time>
      </trkpt>
      <trkpt lat="43.5899" lon="1.37553">
        <ele>207.430959</ele>
        <time>2023-01-04T08:54:36.258Z</time>
      </trkpt>
      <trkpt lat="43.58991" lon="1.37566">
        <ele>207.495748</ele>
        <time>2023-01-04T08:54:38.253Z</time>
      </trkpt>
      <trkpt lat="43.58992" lon="1.37579">
        <ele>207.558394</ele>
        <time>2023-01-04T08:54:40.245Z</time>
      </trkpt>
      <trkpt lat="43.58992" lon="1.37592">
        <ele>207.622762</ele>
        <time>2023-01-04T08:54:42.255Z</time>
      </trkpt>
      <trkpt lat="43.58992" lon="1.37606">
        <ele>207.648703</ele>
        <time>2023-01-04T08:54:44.259Z</time>
      </trkpt>
      <trkpt lat="43.58993" lon="1.37624">
        <ele>207.678081</ele>
        <time>2023-01-04T08:54:47.244Z</time>
      </trkpt>
      <trkpt lat="43.58995" lon="1.37641">
        <ele>207.706054</ele>
        <time>2023-01-04T08:54:50.252Z</time>
      </trkpt>
      <trkpt lat="43.58996" lon="1.37656">
        <ele>207.732074</ele>
        <time>2023-01-04T08:54:53.259Z</time>
      </trkpt>
      <trkpt lat="43.58998" lon="1.37671">
        <ele>207.756871</ele>
        <time>2023-01-04T08:54:56.247Z</time>
      </trkpt>
      <trkpt lat="43.58997" lon="1.37686">
        <ele>207.781429</ele>
        <time>2023-01-04T08:55:00.248Z</time>
      </trkpt>
      <trkpt lat="43.58996" lon="1.37701">
        <ele>207.805837</ele>
        <time>2023-01-04T08:55:03.254Z</time>
      </trkpt>
      <trkpt lat="43.58998" lon="1.37718">
        <ele>207.833109</ele>
        <time>2023-01-04T08:55:06.257Z</time>
      </trkpt>
      <trkpt lat="43.58999" lon="1.37733">
        <ele>207.858228</ele>
        <time>2023-01-04T08:55:09.252Z</time>
      </trkpt>
      <trkpt lat="43.58999" lon="1.37748">
        <ele>207.883492</ele>
        <time>2023-01-04T08:55:12.270Z</time>
      </trkpt>
      <trkpt lat="43.59001" lon="1.37765">
        <ele>207.910677</ele>
        <time>2023-01-04T08:55:15.250Z</time>
      </trkpt>
      <trkpt lat="43.59002" lon="1.37781">
        <ele>207.937239</ele>
        <time>2023-01-04T08:55:18.250Z</time>
      </trkpt>
      <trkpt lat="43.59005" lon="1.37798">
        <ele>207.965464</ele>
        <time>2023-01-04T08:55:21.257Z</time>
      </trkpt>
      <trkpt lat="43.59007" lon="1.37813">
        <ele>207.991268</ele>
        <time>2023-01-04T08:55:24.259Z</time>
      </trkpt>
      <trkpt lat="43.59009" lon="1.37828">
        <ele>208.016151</ele>
        <time>2023-01-04T08:55:27.266Z</time>
      </trkpt>
      <trkpt lat="43.59011" lon="1.37843">
        <ele>208.011068</ele>
        <time>2023-01-04T08:55:30.253Z</time>
      </trkpt>
      <trkpt lat="43.59014" lon="1.37859">
        <ele>207.908137</ele>
        <time>2023-01-04T08:55:33.261Z</time>
      </trkpt>
      <trkpt lat="43.59017" lon="1.37875">
        <ele>207.804756</ele>
        <time>2023-01-04T08:55:36.240Z</time>
      </trkpt>
      <trkpt lat="43.59019" lon="1.37891">
        <ele>207.705226</ele>
        <time>2023-01-04T08:55:39.245Z</time>
      </trkpt>
      <trkpt lat="43.59021" lon="1.37909">
        <ele>207.592803</ele>
        <time>2023-01-04T08:55:42.257Z</time>
      </trkpt>
      <trkpt lat="43.59023" lon="1.37927">
        <ele>207.476301</ele>
        <time>2023-01-04T08:55:45.262Z</time>
      </trkpt>
      <trkpt lat="43.59025" lon="1.3794">
        <ele>207.396322</ele>
        <time>2023-01-04T08:55:47.267Z</time>
      </trkpt>
      <trkpt lat="43.59028" lon="1.37952">
        <ele>207.316258</ele>
        <time>2023-01-04T08:55:49.251Z</time>
      </trkpt>
      <trkpt lat="43.5903" lon="1.37964">
        <ele>207.237097</ele>
        <time>2023-01-04T08:55:51.257Z</time>
      </trkpt>
      <trkpt lat="43.59033" lon="1.37981">
        <ele>207.128926</ele>
        <time>2023-01-04T08:55:54.260Z</time>
      </trkpt>
      <trkpt lat="43.59036" lon="1.37999">
        <ele>207.016412</ele>
        <time>2023-01-04T08:55:57.248Z</time>
      </trkpt>
      <trkpt lat="43.59039" lon="1.38012">
        <ele>206.933662</ele>
        <time>2023-01-04T08:55:59.264Z</time>
      </trkpt>
      <trkpt lat="43.5904" lon="1.38024">
        <ele>206.854312</ele>
        <time>2023-01-04T08:56:01.266Z</time>
      </trkpt>
      <trkpt lat="43.59042" lon="1.38038">
        <ele>206.765288</ele>
        <time>2023-01-04T08:56:03.257Z</time>
      </trkpt>
      <trkpt lat="43.59045" lon="1.38052">
        <ele>206.678302</ele>
        <time>2023-01-04T08:56:05.245Z</time>
      </trkpt>
      <trkpt lat="43.59047" lon="1.38066">
        <ele>206.589093</ele>
        <time>2023-01-04T08:56:07.256Z</time>
      </trkpt>
      <trkpt lat="43.59049" lon="1.38079">
        <ele>206.503103</ele>
        <time>2023-01-04T08:56:09.245Z</time>
      </trkpt>
      <trkpt lat="43.5905" lon="1.38092">
        <ele>206.501264</ele>
        <time>2023-01-04T08:56:11.248Z</time>
      </trkpt>
      <trkpt lat="43.59054" lon="1.3811">
        <ele>206.518982</ele>
        <time>2023-01-04T08:56:14.257Z</time>
      </trkpt>
      <trkpt lat="43.59057" lon="1.38127">
        <ele>206.53544</ele>
        <time>2023-01-04T08:56:17.251Z</time>
      </trkpt>
      <trkpt lat="43.59058" lon="1.38139">
        <ele>206.547332</ele>
        <time>2023-01-04T08:56:19.248Z</time>
      </trkpt>
      <trkpt lat="43.5906" lon="1.38152">
        <ele>206.55957</ele>
        <time>2023-01-04T08:56:21.258Z</time>
      </trkpt>
      <trkpt lat="43.59061" lon="1.38166">
        <ele>206.572719</ele>
        <time>2023-01-04T08:56:23.250Z</time>
      </trkpt>
      <trkpt lat="43.59063" lon="1.38178">
        <ele>206.584856</ele>
        <time>2023-01-04T08:56:25.250Z</time>
      </trkpt>
      <trkpt lat="43.59065" lon="1.38193">
        <ele>206.598616</ele>
        <time>2023-01-04T08:56:27.249Z</time>
      </trkpt>
      <trkpt lat="43.59067" lon="1.38206">
        <ele>206.611578</ele>
        <time>2023-01-04T08:56:29.263Z</time>
      </trkpt>
      <trkpt lat="43.5907" lon="1.38219">
        <ele>206.624505</ele>
        <time>2023-01-04T08:56:31.262Z</time>
      </trkpt>
      <trkpt lat="43.59071" lon="1.38233">
        <ele>206.637447</ele>
        <time>2023-01-04T08:56:33.251Z</time>
      </trkpt>
      <trkpt lat="43.59074" lon="1.3825">
        <ele>206.654519</ele>
        <time>2023-01-04T08:56:36.249Z</time>
      </trkpt>
      <trkpt lat="43.59078" lon="1.38266">
        <ele>206.670191</ele>
        <time>2023-01-04T08:56:39.246Z</time>
      </trkpt>
      <trkpt lat="43.59079" lon="1.38281">
        <ele>206.684225</ele>
        <time>2023-01-04T08:56:42.260Z</time>
      </trkpt>
      <trkpt lat="43.59082" lon="1.38296">
        <ele>206.699638</ele>
        <time>2023-01-04T08:56:45.255Z</time>
      </trkpt>
      <trkpt lat="43.59084" lon="1.38312">
        <ele>206.71486</ele>
        <time>2023-01-04T08:56:48.249Z</time>
      </trkpt>
      <trkpt lat="43.59087" lon="1.38327">
        <ele>206.723122</ele>
        <time>2023-01-04T08:56:51.260Z</time>
      </trkpt>
      <trkpt lat="43.5909" lon="1.38342">
        <ele>206.706041</ele>
        <time>2023-01-04T08:56:54.250Z</time>
      </trkpt>
      <trkpt lat="43.59092" lon="1.38355">
        <ele>206.690967</ele>
        <time>2023-01-04T08:56:57.248Z</time>
      </trkpt>
      <trkpt lat="43.59094" lon="1.38371">
        <ele>206.673395</ele>
        <time>2023-01-04T08:57:01.247Z</time>
      </trkpt>
      <trkpt lat="43.59097" lon="1.38385">
        <ele>206.658007</ele>
        <time>2023-01-04T08:57:04.256Z</time>
      </trkpt>
      <trkpt lat="43.59101" lon="1.38399">
        <ele>206.641107</ele>
        <time>2023-01-04T08:57:07.256Z</time>
      </trkpt>
      <trkpt lat="43.59103" lon="1.38411">
        <ele>206.626934</ele>
        <time>2023-01-04T08:57:10.256Z</time>
      </trkpt>
      <trkpt lat="43.59106" lon="1.38426">
        <ele>206.610636</ele>
        <time>2023-01-04T08:57:13.264Z</time>
      </trkpt>
      <trkpt lat="43.59109" lon="1.3844">
        <ele>206.594208</ele>
        <time>2023-01-04T08:57:16.263Z</time>
      </trkpt>
      <trkpt lat="43.59113" lon="1.38455">
        <ele>206.576843</ele>
        <time>2023-01-04T08:57:19.260Z</time>
      </trkpt>
      <trkpt lat="43.59117" lon="1.3847">
        <ele>206.5585</ele>
        <time>2023-01-04T08:57:22.267Z</time>
      </trkpt>
      <trkpt lat="43.59122" lon="1.38487">
        <ele>206.538557</ele>
        <time>2023-01-04T08:57:25.261Z</time>
      </trkpt>
      <trkpt lat="43.59127" lon="1.38503">
        <ele>206.519476</ele>
        <time>2023-01-04T08:57:28.257Z</time>
      </trkpt>
      <trkpt lat="43.59131" lon="1.38519">
        <ele>206.500758</ele>
        <time>2023-01-04T08:57:31.247Z</time>
      </trkpt>
      <trkpt lat="43.59137" lon="1.38535">
        <ele>206.480608</ele>
        <time>2023-01-04T08:57:34.257Z</time>
      </trkpt>
      <trkpt lat="43.59141" lon="1.38547">
        <ele>206.466849</ele>
        <time>2023-01-04T08:57:36.262Z</time>
      </trkpt>
      <trkpt lat="43.59145" lon="1.38558">
        <ele>206.453685</ele>
        <time>2023-01-04T08:57:38.258Z</time>
      </trkpt>
      <trkpt lat="43.5915" lon="1.38569">
        <ele>206.527491</ele>
        <time>2023-01-04T08:57:40.254Z</time>
      </trkpt>
      <trkpt lat="43.59156" lon="1.38583">
        <ele>206.625356</ele>
        <time>2023-01-04T08:57:43.262Z</time>
      </trkpt>
      <trkpt lat="43.59161" lon="1.38599">
        <ele>206.726712</ele>
        <time>2023-01-04T08:57:46.273Z</time>
      </trkpt>
      <trkpt lat="43.59165" lon="1.3861">
        <ele>206.80071</ele>
        <time>2023-01-04T08:57:48.253Z</time>
      </trkpt>
      <trkpt lat="43.5917" lon="1.38626">
        <ele>206.901746</ele>
        <time>2023-01-04T08:57:51.259Z</time>
      </trkpt>
      <trkpt lat="43.59175" lon="1.38641">
        <ele>206.999176</ele>
        <time>2023-01-04T08:57:54.248Z</time>
      </trkpt>
      <trkpt lat="43.59182" lon="1.38658">
        <ele>207.112003</ele>
        <time>2023-01-04T08:57:57.258Z</time>
      </trkpt>
      <trkpt lat="43.59187" lon="1.38669">
        <ele>207.191147</ele>
        <time>2023-01-04T08:57:59.250Z</time>
      </trkpt>
      <trkpt lat="43.59191" lon="1.38681">
        <ele>207.26593</ele>
        <time>2023-01-04T08:58:01.252Z</time>
      </trkpt>
      <trkpt lat="43.59196" lon="1.38692">
        <ele>207.344507</ele>
        <time>2023-01-04T08:58:03.254Z</time>
      </trkpt>
      <trkpt lat="43.59203" lon="1.38708">
        <ele>207.450112</ele>
        <time>2023-01-04T08:58:06.247Z</time>
      </trkpt>
      <trkpt lat="43.59206" lon="1.3872">
        <ele>207.52574</ele>
        <time>2023-01-04T08:58:08.263Z</time>
      </trkpt>
      <trkpt lat="43.59211" lon="1.38737">
        <ele>207.633414</ele>
        <time>2023-01-04T08:58:11.263Z</time>
      </trkpt>
      <trkpt lat="43.59216" lon="1.38748">
        <ele>207.707167</ele>
        <time>2023-01-04T08:58:13.251Z</time>
      </trkpt>
      <trkpt lat="43.59221" lon="1.38763">
        <ele>207.809229</ele>
        <time>2023-01-04T08:58:16.251Z</time>
      </trkpt>
      <trkpt lat="43.59225" lon="1.38775">
        <ele>207.88429</ele>
        <time>2023-01-04T08:58:18.251Z</time>
      </trkpt>
      <trkpt lat="43.59229" lon="1.38786">
        <ele>207.87209</ele>
        <time>2023-01-04T08:58:20.260Z</time>
      </trkpt>
      <trkpt lat="43.59234" lon="1.38799">
        <ele>207.807693</ele>
        <time>2023-01-04T08:58:22.255Z</time>
      </trkpt>
      <trkpt lat="43.5924" lon="1.38816">
        <ele>207.721822</ele>
        <time>2023-01-04T08:58:25.256Z</time>
      </trkpt>
      <trkpt lat="43.59244" lon="1.38827">
        <ele>207.662768</ele>
        <time>2023-01-04T08:58:27.254Z</time>
      </trkpt>
      <trkpt lat="43.59249" lon="1.38839">
        <ele>207.600499</ele>
        <time>2023-01-04T08:58:29.263Z</time>
      </trkpt>
      <trkpt lat="43.59253" lon="1.38851">
        <ele>207.540524</ele>
        <time>2023-01-04T08:58:31.253Z</time>
      </trkpt>
      <trkpt lat="43.59257" lon="1.38863">
        <ele>207.479036</ele>
        <time>2023-01-04T08:58:33.249Z</time>
      </trkpt>
      <trkpt lat="43.59262" lon="1.38875">
        <ele>207.416855</ele>
        <time>2023-01-04T08:58:35.263Z</time>
      </trkpt>
      <trkpt lat="43.59268" lon="1.38891">
        <ele>207.334893</ele>
        <time>2023-01-04T08:58:38.267Z</time>
      </trkpt>
      <trkpt lat="43.59273" lon="1.38902">
        <ele>207.277064</ele>
        <time>2023-01-04T08:58:40.265Z</time>
      </trkpt>
      <trkpt lat="43.59278" lon="1.38917">
        <ele>207.201305</ele>
        <time>2023-01-04T08:58:43.264Z</time>
      </trkpt>
      <trkpt lat="43.59284" lon="1.38931">
        <ele>207.125042</ele>
        <time>2023-01-04T08:58:46.261Z</time>
      </trkpt>
      <trkpt lat="43.5929" lon="1.38946">
        <ele>207.045905</ele>
        <time>2023-01-04T08:58:49.254Z</time>
      </trkpt>
      <trkpt lat="43.59295" lon="1.38961">
        <ele>206.970264</ele>
        <time>2023-01-04T08:58:52.268Z</time>
      </trkpt>
      <trkpt lat="43.59301" lon="1.38978">
        <ele>206.886676</ele>
        <time>2023-01-04T08:58:55.259Z</time>
      </trkpt>
      <trkpt lat="43.59306" lon="1.3899">
        <ele>206.824901</ele>
        <time>2023-01-04T08:58:57.257Z</time>
      </trkpt>
      <trkpt lat="43.59311" lon="1.39007">
        <ele>206.810741</ele>
        <time>2023-01-04T08:59:00.241Z</time>
      </trkpt>
      <trkpt lat="43.59315" lon="1.39019">
        <ele>206.868709</ele>
        <time>2023-01-04T08:59:02.250Z</time>
      </trkpt>
      <trkpt lat="43.59319" lon="1.3903">
        <ele>206.923876</ele>
        <time>2023-01-04T08:59:04.253Z</time>
      </trkpt>
      <trkpt lat="43.59325" lon="1.39047">
        <ele>207.008769</ele>
        <time>2023-01-04T08:59:07.255Z</time>
      </trkpt>
      <trkpt lat="43.5933" lon="1.39059">
        <ele>207.067234</ele>
        <time>2023-01-04T08:59:09.248Z</time>
      </trkpt>
      <trkpt lat="43.59335" lon="1.39071">
        <ele>207.129458</ele>
        <time>2023-01-04T08:59:11.253Z</time>
      </trkpt>
      <trkpt lat="43.5934" lon="1.39082">
        <ele>207.186907</ele>
        <time>2023-01-04T08:59:13.254Z</time>
      </trkpt>
      <trkpt lat="43.59347" lon="1.39097">
        <ele>207.26593</ele>
        <time>2023-01-04T08:59:16.256Z</time>
      </trkpt>
      <trkpt lat="43.59351" lon="1.39108">
        <ele>207.321097</ele>
        <time>2023-01-04T08:59:18.250Z</time>
      </trkpt>
      <trkpt lat="43.59356" lon="1.3912">
        <ele>207.379064</ele>
        <time>2023-01-04T08:59:20.249Z</time>
      </trkpt>
      <trkpt lat="43.59361" lon="1.39136">
        <ele>207.458934</ele>
        <time>2023-01-04T08:59:23.251Z</time>
      </trkpt>
      <trkpt lat="43.59366" lon="1.39151">
        <ele>207.530454</ele>
        <time>2023-01-04T08:59:26.251Z</time>
      </trkpt>
      <trkpt lat="43.59369" lon="1.39166">
        <ele>207.595708</ele>
        <time>2023-01-04T08:59:29.256Z</time>
      </trkpt>
      <trkpt lat="43.59368" lon="1.39181">
        <ele>207.662709</ele>
        <time>2023-01-04T08:59:32.259Z</time>
      </trkpt>
      <trkpt lat="43.59365" lon="1.39198">
        <ele>207.73955</ele>
        <time>2023-01-04T08:59:35.255Z</time>
      </trkpt>
      <trkpt lat="43.59362" lon="1.3921">
        <ele>207.794667</ele>
        <time>2023-01-04T08:59:37.260Z</time>
      </trkpt>
      <trkpt lat="43.59359" lon="1.39222">
        <ele>207.850172</ele>
        <time>2023-01-04T08:59:39.247Z</time>
      </trkpt>
      <trkpt lat="43.59355" lon="1.39234">
        <ele>207.840765</ele>
        <time>2023-01-04T08:59:41.252Z</time>
      </trkpt>
      <trkpt lat="43.59352" lon="1.39245">
        <ele>207.799105</ele>
        <time>2023-01-04T08:59:43.257Z</time>
      </trkpt>
      <trkpt lat="43.59349" lon="1.39257">
        <ele>207.758555</ele>
        <time>2023-01-04T08:59:45.247Z</time>
      </trkpt>
      <trkpt lat="43.59344" lon="1.39273">
        <ele>207.703708</ele>
        <time>2023-01-04T08:59:48.248Z</time>
      </trkpt>
      <trkpt lat="43.5934" lon="1.39288">
        <ele>207.652569</ele>
        <time>2023-01-04T08:59:51.246Z</time>
      </trkpt>
      <trkpt lat="43.59337" lon="1.39303">
        <ele>207.601012</ele>
        <time>2023-01-04T08:59:54.245Z</time>
      </trkpt>
      <trkpt lat="43.59333" lon="1.39318">
        <ele>207.547316</ele>
        <time>2023-01-04T08:59:57.253Z</time>
      </trkpt>
      <trkpt lat="43.59329" lon="1.39335">
        <ele>207.489296</ele>
        <time>2023-01-04T09:00:00.249Z</time>
      </trkpt>
      <trkpt lat="43.59325" lon="1.39353">
        <ele>207.430293</ele>
        <time>2023-01-04T09:00:03.248Z</time>
      </trkpt>
      <trkpt lat="43.59321" lon="1.39369">
        <ele>207.372612</ele>
        <time>2023-01-04T09:00:06.249Z</time>
      </trkpt>
      <trkpt lat="43.59317" lon="1.39387">
        <ele>207.312937</ele>
        <time>2023-01-04T09:00:09.268Z</time>
      </trkpt>
      <trkpt lat="43.59314" lon="1.39399">
        <ele>207.271178</ele>
        <time>2023-01-04T09:00:11.265Z</time>
      </trkpt>
      <trkpt lat="43.5931" lon="1.39411">
        <ele>207.227669</ele>
        <time>2023-01-04T09:00:13.256Z</time>
      </trkpt>
      <trkpt lat="43.59307" lon="1.39424">
        <ele>207.183586</ele>
        <time>2023-01-04T09:00:15.248Z</time>
      </trkpt>
      <trkpt lat="43.59304" lon="1.39437">
        <ele>207.140137</ele>
        <time>2023-01-04T09:00:17.250Z</time>
      </trkpt>
      <trkpt lat="43.59301" lon="1.39449">
        <ele>207.097745</ele>
        <time>2023-01-04T09:00:19.265Z</time>
      </trkpt>
      <trkpt lat="43.59298" lon="1.39461">
        <ele>207.070296</ele>
        <time>2023-01-04T09:00:21.248Z</time>
      </trkpt>
      <trkpt lat="43.59295" lon="1.39474">
        <ele>207.154052</ele>
        <time>2023-01-04T09:00:23.259Z</time>
      </trkpt>
      <trkpt lat="43.59292" lon="1.39487">
        <ele>207.235045</ele>
        <time>2023-01-04T09:00:25.249Z</time>
      </trkpt>
      <trkpt lat="43.59289" lon="1.395">
        <ele>207.317192</ele>
        <time>2023-01-04T09:00:27.251Z</time>
      </trkpt>
      <trkpt lat="43.59285" lon="1.39517">
        <ele>207.424824</ele>
        <time>2023-01-04T09:00:30.251Z</time>
      </trkpt>
      <trkpt lat="43.59282" lon="1.39534">
        <ele>207.529146</ele>
        <time>2023-01-04T09:00:33.270Z</time>
      </trkpt>
      <trkpt lat="43.59278" lon="1.39551">
        <ele>207.637413</ele>
        <time>2023-01-04T09:00:36.248Z</time>
      </trkpt>
      <trkpt lat="43.59275" lon="1.39563">
        <ele>207.718614</ele>
        <time>2023-01-04T09:00:38.253Z</time>
      </trkpt>
      <trkpt lat="43.59271" lon="1.39575">
        <ele>207.795383</ele>
        <time>2023-01-04T09:00:40.258Z</time>
      </trkpt>
      <trkpt lat="43.59268" lon="1.39588">
        <ele>207.87942</ele>
        <time>2023-01-04T09:00:42.254Z</time>
      </trkpt>
      <trkpt lat="43.59264" lon="1.39601">
        <ele>207.961767</ele>
        <time>2023-01-04T09:00:44.253Z</time>
      </trkpt>
      <trkpt lat="43.59261" lon="1.39614">
        <ele>208.041291</ele>
        <time>2023-01-04T09:00:46.258Z</time>
      </trkpt>
      <trkpt lat="43.59259" lon="1.39626">
        <ele>208.121462</ele>
        <time>2023-01-04T09:00:48.253Z</time>
      </trkpt>
      <trkpt lat="43.59256" lon="1.39639">
        <ele>208.200414</ele>
        <time>2023-01-04T09:00:50.249Z</time>
      </trkpt>
      <trkpt lat="43.59253" lon="1.39651">
        <ele>208.277078</ele>
        <time>2023-01-04T09:00:52.261Z</time>
      </trkpt>
      <trkpt lat="43.59248" lon="1.39668">
        <ele>208.389225</ele>
        <time>2023-01-04T09:00:55.257Z</time>
      </trkpt>
      <trkpt lat="43.59244" lon="1.39684">
        <ele>208.489164</ele>
        <time>2023-01-04T09:00:58.247Z</time>
      </trkpt>
      <trkpt lat="43.59241" lon="1.39699">
        <ele>208.53624</ele>
        <time>2023-01-04T09:01:01.261Z</time>
      </trkpt>
      <trkpt lat="43.59237" lon="1.39713">
        <ele>208.432334</ele>
        <time>2023-01-04T09:01:04.254Z</time>
      </trkpt>
      <trkpt lat="43.59234" lon="1.39727">
        <ele>208.32864</ele>
        <time>2023-01-04T09:01:07.247Z</time>
      </trkpt>
      <trkpt lat="43.5923" lon="1.39741">
        <ele>208.22913</ele>
        <time>2023-01-04T09:01:10.248Z</time>
      </trkpt>
      <trkpt lat="43.59226" lon="1.39754">
        <ele>208.132873</ele>
        <time>2023-01-04T09:01:13.258Z</time>
      </trkpt>
      <trkpt lat="43.59223" lon="1.39766">
        <ele>208.045704</ele>
        <time>2023-01-04T09:01:16.251Z</time>
      </trkpt>
      <trkpt lat="43.59219" lon="1.39778">
        <ele>207.955967</ele>
        <time>2023-01-04T09:01:19.256Z</time>
      </trkpt>
      <trkpt lat="43.59217" lon="1.3979">
        <ele>207.869486</ele>
        <time>2023-01-04T09:01:22.260Z</time>
      </trkpt>
      <trkpt lat="43.59214" lon="1.39806">
        <ele>207.758042</ele>
        <time>2023-01-04T09:01:26.251Z</time>
      </trkpt>
      <trkpt lat="43.5921" lon="1.3982">
        <ele>207.658627</ele>
        <time>2023-01-04T09:01:30.255Z</time>
      </trkpt>
      <trkpt lat="43.59205" lon="1.3983">
        <ele>207.573298</ele>
        <time>2023-01-04T09:01:33.258Z</time>
      </trkpt>
      <trkpt lat="43.59203" lon="1.39843">
        <ele>207.483603</ele>
        <time>2023-01-04T09:01:36.261Z</time>
      </trkpt>
      <trkpt lat="43.59203" lon="1.39856">
        <ele>207.392616</ele>
        <time>2023-01-04T09:01:39.247Z</time>
      </trkpt>
      <trkpt lat="43.59203" lon="1.39871">
        <ele>207.291332</ele>
        <time>2023-01-04T09:01:42.256Z</time>
      </trkpt>
      <trkpt lat="43.59203" lon="1.39887">
        <ele>207.179079</ele>
        <time>2023-01-04T09:01:45.252Z</time>
      </trkpt>
      <trkpt lat="43.59204" lon="1.39904">
        <ele>207.064775</ele>
        <time>2023-01-04T09:01:48.257Z</time>
      </trkpt>
      <trkpt lat="43.59204" lon="1.39919">
        <ele>206.964739</ele>
        <time>2023-01-04T09:01:51.259Z</time>
      </trkpt>
      <trkpt lat="43.59205" lon="1.39932">
        <ele>206.870716</ele>
        <time>2023-01-04T09:01:54.249Z</time>
      </trkpt>
      <trkpt lat="43.59206" lon="1.39947">
        <ele>206.687786</ele>
        <time>2023-01-04T09:01:57.255Z</time>
      </trkpt>
      <trkpt lat="43.59209" lon="1.39961">
        <ele>206.502357</ele>
        <time>2023-01-04T09:02:00.250Z</time>
      </trkpt>
      <trkpt lat="43.59212" lon="1.39974">
        <ele>206.327342</ele>
        <time>2023-01-04T09:02:04.254Z</time>
      </trkpt>
      <trkpt lat="43.59215" lon="1.39989">
        <ele>206.122635</ele>
        <time>2023-01-04T09:02:08.253Z</time>
      </trkpt>
      <trkpt lat="43.59218" lon="1.40005">
        <ele>205.91658</ele>
        <time>2023-01-04T09:02:11.249Z</time>
      </trkpt>
      <trkpt lat="43.59221" lon="1.40021">
        <ele>205.698621</ele>
        <time>2023-01-04T09:02:14.266Z</time>
      </trkpt>
      <trkpt lat="43.59224" lon="1.40038">
        <ele>205.478984</ele>
        <time>2023-01-04T09:02:17.259Z</time>
      </trkpt>
      <trkpt lat="43.59227" lon="1.40055">
        <ele>205.25421</ele>
        <time>2023-01-04T09:02:20.250Z</time>
      </trkpt>
      <trkpt lat="43.59229" lon="1.40072">
        <ele>205.029963</ele>
        <time>2023-01-04T09:02:23.262Z</time>
      </trkpt>
      <trkpt lat="43.59232" lon="1.40089">
        <ele>204.796139</ele>
        <time>2023-01-04T09:02:26.247Z</time>
      </trkpt>
      <trkpt lat="43.59235" lon="1.40107">
        <ele>204.562172</ele>
        <time>2023-01-04T09:02:29.256Z</time>
      </trkpt>
      <trkpt lat="43.59237" lon="1.40124">
        <ele>204.335212</ele>
        <time>2023-01-04T09:02:32.245Z</time>
      </trkpt>
      <trkpt lat="43.59241" lon="1.40142">
        <ele>204.095365</ele>
        <time>2023-01-04T09:02:35.256Z</time>
      </trkpt>
      <trkpt lat="43.59244" lon="1.40155">
        <ele>203.924469</ele>
        <time>2023-01-04T09:02:37.251Z</time>
      </trkpt>
      <trkpt lat="43.59246" lon="1.40167">
        <ele>203.759091</ele>
        <time>2023-01-04T09:02:39.252Z</time>
      </trkpt>
      <trkpt lat="43.5925" lon="1.4018">
        <ele>203.590504</ele>
        <time>2023-01-04T09:02:41.262Z</time>
      </trkpt>
      <trkpt lat="43.59252" lon="1.40194">
        <ele>203.427403</ele>
        <time>2023-01-04T09:02:43.259Z</time>
      </trkpt>
      <trkpt lat="43.59254" lon="1.40207">
        <ele>203.269763</ele>
        <time>2023-01-04T09:02:45.259Z</time>
      </trkpt>
      <trkpt lat="43.59257" lon="1.40221">
        <ele>203.095282</ele>
        <time>2023-01-04T09:02:47.263Z</time>
      </trkpt>
      <trkpt lat="43.5926" lon="1.40236">
        <ele>202.906946</ele>
        <time>2023-01-04T09:02:49.260Z</time>
      </trkpt>
      <trkpt lat="43.59264" lon="1.40252">
        <ele>202.71164</ele>
        <time>2023-01-04T09:02:51.252Z</time>
      </trkpt>
      <trkpt lat="43.59266" lon="1.40269">
        <ele>202.512658</ele>
        <time>2023-01-04T09:02:53.261Z</time>
      </trkpt>
      <trkpt lat="43.59268" lon="1.40286">
        <ele>202.302034</ele>
        <time>2023-01-04T09:02:55.256Z</time>
      </trkpt>
      <trkpt lat="43.59271" lon="1.40304">
        <ele>202.087218</ele>
        <time>2023-01-04T09:02:57.255Z</time>
      </trkpt>
      <trkpt lat="43.59274" lon="1.40319">
        <ele>201.89777</ele>
        <time>2023-01-04T09:02:59.262Z</time>
      </trkpt>
      <trkpt lat="43.59278" lon="1.40334">
        <ele>201.714257</ele>
        <time>2023-01-04T09:03:01.261Z</time>
      </trkpt>
      <trkpt lat="43.59281" lon="1.40349">
        <ele>201.532075</ele>
        <time>2023-01-04T09:03:03.268Z</time>
      </trkpt>
      <trkpt lat="43.59283" lon="1.40364">
        <ele>201.350324</ele>
        <time>2023-01-04T09:03:05.266Z</time>
      </trkpt>
      <trkpt lat="43.59285" lon="1.40378">
        <ele>201.178145</ele>
        <time>2023-01-04T09:03:07.262Z</time>
      </trkpt>
      <trkpt lat="43.59288" lon="1.40392">
        <ele>201.010913</ele>
        <time>2023-01-04T09:03:09.246Z</time>
      </trkpt>
      <trkpt lat="43.5929" lon="1.40405">
        <ele>200.855471</ele>
        <time>2023-01-04T09:03:11.250Z</time>
      </trkpt>
      <trkpt lat="43.59292" lon="1.40417">
        <ele>200.717779</ele>
        <time>2023-01-04T09:03:13.260Z</time>
      </trkpt>
      <trkpt lat="43.59295" lon="1.4043">
        <ele>200.637724</ele>
        <time>2023-01-04T09:03:15.258Z</time>
      </trkpt>
      <trkpt lat="43.59297" lon="1.40442">
        <ele>200.564147</ele>
        <time>2023-01-04T09:03:17.254Z</time>
      </trkpt>
      <trkpt lat="43.59301" lon="1.40459">
        <ele>200.460949</ele>
        <time>2023-01-04T09:03:20.263Z</time>
      </trkpt>
      <trkpt lat="43.59305" lon="1.40476">
        <ele>200.355446</ele>
        <time>2023-01-04T09:03:23.268Z</time>
      </trkpt>
      <trkpt lat="43.59307" lon="1.4049">
        <ele>200.270666</ele>
        <time>2023-01-04T09:03:25.254Z</time>
      </trkpt>
      <trkpt lat="43.59312" lon="1.40509">
        <ele>200.152114</ele>
        <time>2023-01-04T09:03:28.257Z</time>
      </trkpt>
      <trkpt lat="43.59314" lon="1.40522">
        <ele>200.071706</ele>
        <time>2023-01-04T09:03:30.271Z</time>
      </trkpt>
      <trkpt lat="43.59317" lon="1.40536">
        <ele>199.982875</ele>
        <time>2023-01-04T09:03:32.271Z</time>
      </trkpt>
      <trkpt lat="43.5932" lon="1.4055">
        <ele>199.901329</ele>
        <time>2023-01-04T09:03:34.255Z</time>
      </trkpt>
      <trkpt lat="43.59321" lon="1.40563">
        <ele>199.8186</ele>
        <time>2023-01-04T09:03:36.251Z</time>
      </trkpt>
      <trkpt lat="43.59323" lon="1.40578">
        <ele>199.728164</ele>
        <time>2023-01-04T09:03:38.251Z</time>
      </trkpt>
      <trkpt lat="43.59325" lon="1.40592">
        <ele>199.645676</ele>
        <time>2023-01-04T09:03:40.247Z</time>
      </trkpt>
      <trkpt lat="43.59327" lon="1.40605">
        <ele>199.566748</ele>
        <time>2023-01-04T09:03:42.249Z</time>
      </trkpt>
      <trkpt lat="43.5933" lon="1.40618">
        <ele>199.486464</ele>
        <time>2023-01-04T09:03:44.254Z</time>
      </trkpt>
      <trkpt lat="43.59333" lon="1.40636">
        <ele>199.377519</ele>
        <time>2023-01-04T09:03:47.279Z</time>
      </trkpt>
      <trkpt lat="43.59335" lon="1.40648">
        <ele>199.302895</ele>
        <time>2023-01-04T09:03:49.256Z</time>
      </trkpt>
      <trkpt lat="43.59338" lon="1.40662">
        <ele>199.231032</ele>
        <time>2023-01-04T09:03:52.251Z</time>
      </trkpt>
      <trkpt lat="43.59341" lon="1.40677">
        <ele>199.168101</ele>
        <time>2023-01-04T09:03:55.260Z</time>
      </trkpt>
      <trkpt lat="43.59344" lon="1.40691">
        <ele>199.108369</ele>
        <time>2023-01-04T09:03:58.258Z</time>
      </trkpt>
      <trkpt lat="43.59346" lon="1.40705">
        <ele>199.051224</ele>
        <time>2023-01-04T09:04:01.251Z</time>
      </trkpt>
      <trkpt lat="43.59348" lon="1.40717">
        <ele>198.998471</ele>
        <time>2023-01-04T09:04:04.250Z</time>
      </trkpt>
      <trkpt lat="43.59352" lon="1.40731">
        <ele>198.940339</ele>
        <time>2023-01-04T09:04:07.269Z</time>
      </trkpt>
      <trkpt lat="43.59355" lon="1.40743">
        <ele>198.88718</ele>
        <time>2023-01-04T09:04:10.255Z</time>
      </trkpt>
      <trkpt lat="43.59358" lon="1.40759">
        <ele>198.82181</ele>
        <time>2023-01-04T09:04:14.259Z</time>
      </trkpt>
      <trkpt lat="43.5936" lon="1.40773">
        <ele>198.761763</ele>
        <time>2023-01-04T09:04:18.247Z</time>
      </trkpt>
      <trkpt lat="43.59361" lon="1.40787">
        <ele>198.702077</ele>
        <time>2023-01-04T09:04:22.250Z</time>
      </trkpt>
      <trkpt lat="43.59363" lon="1.40802">
        <ele>198.64004</ele>
        <time>2023-01-04T09:04:26.256Z</time>
      </trkpt>
      <trkpt lat="43.59365" lon="1.40817">
        <ele>198.579917</ele>
        <time>2023-01-04T09:04:30.250Z</time>
      </trkpt>
      <trkpt lat="43.59366" lon="1.40832">
        <ele>198.518683</ele>
        <time>2023-01-04T09:04:34.250Z</time>
      </trkpt>
      <trkpt lat="43.59367" lon="1.40845">
        <ele>198.465629</ele>
        <time>2023-01-04T09:04:38.250Z</time>
      </trkpt>
      <trkpt lat="43.59368" lon="1.40877">
        <ele>198.333569</ele>
        <time>2023-01-04T09:05:15.250Z</time>
      </trkpt>
      <trkpt lat="43.5937" lon="1.40892">
        <ele>198.272999</ele>
        <time>2023-01-04T09:05:20.249Z</time>
      </trkpt>
      <trkpt lat="43.59368" lon="1.40906">
        <ele>198.140196</ele>
        <time>2023-01-04T09:05:26.257Z</time>
      </trkpt>
      <trkpt lat="43.5937" lon="1.40919">
        <ele>197.963015</ele>
        <time>2023-01-04T09:05:32.249Z</time>
      </trkpt>
      <trkpt lat="43.59378" lon="1.40928">
        <ele>197.769785</ele>
        <time>2023-01-04T09:05:36.253Z</time>
      </trkpt>
      <trkpt lat="43.59386" lon="1.40936">
        <ele>197.591233</ele>
        <time>2023-01-04T09:05:39.249Z</time>
      </trkpt>
      <trkpt lat="43.59391" lon="1.40949">
        <ele>197.400714</ele>
        <time>2023-01-04T09:05:42.258Z</time>
      </trkpt>
      <trkpt lat="43.59395" lon="1.40964">
        <ele>197.17748</ele>
        <time>2023-01-04T09:05:45.262Z</time>
      </trkpt>
      <trkpt lat="43.59398" lon="1.40977">
        <ele>197.006899</ele>
        <time>2023-01-04T09:05:47.264Z</time>
      </trkpt>
      <trkpt lat="43.59401" lon="1.40991">
        <ele>196.815838</ele>
        <time>2023-01-04T09:05:49.259Z</time>
      </trkpt>
      <trkpt lat="43.59404" lon="1.41006">
        <ele>196.599275</ele>
        <time>2023-01-04T09:05:51.248Z</time>
      </trkpt>
      <trkpt lat="43.59406" lon="1.41022">
        <ele>196.386891</ele>
        <time>2023-01-04T09:05:53.242Z</time>
      </trkpt>
      <trkpt lat="43.59408" lon="1.41039">
        <ele>196.165719</ele>
        <time>2023-01-04T09:05:55.250Z</time>
      </trkpt>
      <trkpt lat="43.59411" lon="1.41055">
        <ele>195.937349</ele>
        <time>2023-01-04T09:05:57.252Z</time>
      </trkpt>
      <trkpt lat="43.59413" lon="1.41071">
        <ele>195.730657</ele>
        <time>2023-01-04T09:05:59.251Z</time>
      </trkpt>
      <trkpt lat="43.59418" lon="1.41085">
        <ele>195.52234</ele>
        <time>2023-01-04T09:06:01.247Z</time>
      </trkpt>
      <trkpt lat="43.5942" lon="1.411">
        <ele>195.326801</ele>
        <time>2023-01-04T09:06:03.244Z</time>
      </trkpt>
      <trkpt lat="43.59422" lon="1.41114">
        <ele>195.125686</ele>
        <time>2023-01-04T09:06:05.246Z</time>
      </trkpt>
      <trkpt lat="43.59424" lon="1.41132">
        <ele>194.99189</ele>
        <time>2023-01-04T09:06:08.256Z</time>
      </trkpt>
      <trkpt lat="43.59427" lon="1.41148">
        <ele>195.11709</ele>
        <time>2023-01-04T09:06:11.248Z</time>
      </trkpt>
      <trkpt lat="43.5943" lon="1.41162">
        <ele>195.229165</ele>
        <time>2023-01-04T09:06:14.252Z</time>
      </trkpt>
      <trkpt lat="43.59432" lon="1.41176">
        <ele>195.339259</ele>
        <time>2023-01-04T09:06:17.251Z</time>
      </trkpt>
      <trkpt lat="43.59436" lon="1.41192">
        <ele>195.467787</ele>
        <time>2023-01-04T09:06:20.256Z</time>
      </trkpt>
      <trkpt lat="43.5944" lon="1.41207">
        <ele>195.595662</ele>
        <time>2023-01-04T09:06:23.246Z</time>
      </trkpt>
      <trkpt lat="43.59444" lon="1.41223">
        <ele>195.720123</ele>
        <time>2023-01-04T09:06:26.250Z</time>
      </trkpt>
      <trkpt lat="43.59446" lon="1.41238">
        <ele>195.837774</ele>
        <time>2023-01-04T09:06:29.247Z</time>
      </trkpt>
      <trkpt lat="43.59448" lon="1.41251">
        <ele>195.937309</ele>
        <time>2023-01-04T09:06:32.254Z</time>
      </trkpt>
      <trkpt lat="43.59446" lon="1.41263">
        <ele>196.033057</ele>
        <time>2023-01-04T09:06:36.252Z</time>
      </trkpt>
      <trkpt lat="43.59451" lon="1.41274">
        <ele>196.12912</ele>
        <time>2023-01-04T09:06:39.248Z</time>
      </trkpt>
      <trkpt lat="43.59457" lon="1.41286">
        <ele>196.245461</ele>
        <time>2023-01-04T09:06:42.253Z</time>
      </trkpt>
      <trkpt lat="43.59459" lon="1.41303">
        <ele>196.376909</ele>
        <time>2023-01-04T09:06:45.249Z</time>
      </trkpt>
      <trkpt lat="43.59462" lon="1.4132">
        <ele>196.507746</ele>
        <time>2023-01-04T09:06:48.268Z</time>
      </trkpt>
      <trkpt lat="43.59465" lon="1.41337">
        <ele>196.64532</ele>
        <time>2023-01-04T09:06:51.248Z</time>
      </trkpt>
      <trkpt lat="43.59468" lon="1.41354">
        <ele>196.779223</ele>
        <time>2023-01-04T09:06:54.247Z</time>
      </trkpt>
      <trkpt lat="43.59472" lon="1.41366">
        <ele>196.919131</ele>
        <time>2023-01-04T09:06:56.260Z</time>
      </trkpt>
      <trkpt lat="43.59477" lon="1.41383">
        <ele>197.400995</ele>
        <time>2023-01-04T09:06:59.255Z</time>
      </trkpt>
      <trkpt lat="43.59481" lon="1.41399">
        <ele>197.819972</ele>
        <time>2023-01-04T09:07:02.250Z</time>
      </trkpt>
      <trkpt lat="43.59483" lon="1.41414">
        <ele>198.210274</ele>
        <time>2023-01-04T09:07:05.263Z</time>
      </trkpt>
      <trkpt lat="43.59487" lon="1.41431">
        <ele>198.673128</ele>
        <time>2023-01-04T09:07:08.259Z</time>
      </trkpt>
      <trkpt lat="43.5949" lon="1.41448">
        <ele>199.124558</ele>
        <time>2023-01-04T09:07:11.257Z</time>
      </trkpt>
      <trkpt lat="43.59492" lon="1.41465">
        <ele>199.571404</ele>
        <time>2023-01-04T09:07:14.259Z</time>
      </trkpt>
      <trkpt lat="43.59494" lon="1.41481">
        <ele>199.976047</ele>
        <time>2023-01-04T09:07:17.264Z</time>
      </trkpt>
      <trkpt lat="43.59497" lon="1.41495">
        <ele>200.373457</ele>
        <time>2023-01-04T09:07:20.247Z</time>
      </trkpt>
      <trkpt lat="43.595" lon="1.4151">
        <ele>200.748768</ele>
        <time>2023-01-04T09:07:23.259Z</time>
      </trkpt>
      <trkpt lat="43.595" lon="1.41524">
        <ele>201.116641</ele>
        <time>2023-01-04T09:07:26.264Z</time>
      </trkpt>
      <trkpt lat="43.59502" lon="1.41536">
        <ele>201.436982</ele>
        <time>2023-01-04T09:07:29.262Z</time>
      </trkpt>
      <trkpt lat="43.59501" lon="1.41549">
        <ele>201.759964</ele>
        <time>2023-01-04T09:07:32.257Z</time>
      </trkpt>
      <trkpt lat="43.59501" lon="1.41562">
        <ele>202.106694</ele>
        <time>2023-01-04T09:07:35.272Z</time>
      </trkpt>
      <trkpt lat="43.59505" lon="1.41577">
        <ele>202.528796</ele>
        <time>2023-01-04T09:07:38.253Z</time>
      </trkpt>
      <trkpt lat="43.5951" lon="1.41589">
        <ele>202.866758</ele>
        <time>2023-01-04T09:07:40.272Z</time>
      </trkpt>
      <trkpt lat="43.59512" lon="1.41601">
        <ele>203.195528</ele>
        <time>2023-01-04T09:07:42.251Z</time>
      </trkpt>
      <trkpt lat="43.59515" lon="1.41619">
        <ele>203.590181</ele>
        <time>2023-01-04T09:07:45.253Z</time>
      </trkpt>
      <trkpt lat="43.59518" lon="1.41634">
        <ele>203.932711</ele>
        <time>2023-01-04T09:07:48.250Z</time>
      </trkpt>
      <trkpt lat="43.59521" lon="1.41649">
        <ele>204.263566</ele>
        <time>2023-01-04T09:07:51.256Z</time>
      </trkpt>
      <trkpt lat="43.59525" lon="1.41662">
        <ele>204.575642</ele>
        <time>2023-01-04T09:07:55.254Z</time>
      </trkpt>
      <trkpt lat="43.59529" lon="1.41676">
        <ele>204.894826</ele>
        <time>2023-01-04T09:08:01.253Z</time>
      </trkpt>
      <trkpt lat="43.59533" lon="1.41688">
        <ele>205.186962</ele>
        <time>2023-01-04T09:08:07.255Z</time>
      </trkpt>
      <trkpt lat="43.59535" lon="1.41703">
        <ele>205.521922</ele>
        <time>2023-01-04T09:08:11.249Z</time>
      </trkpt>
      <trkpt lat="43.59537" lon="1.41721">
        <ele>205.908392</ele>
        <time>2023-01-04T09:08:14.254Z</time>
      </trkpt>
      <trkpt lat="43.59543" lon="1.41738">
        <ele>206.300422</ele>
        <time>2023-01-04T09:08:17.265Z</time>
      </trkpt>
      <trkpt lat="43.59549" lon="1.41754">
        <ele>206.702522</ele>
        <time>2023-01-04T09:08:20.262Z</time>
      </trkpt>
      <trkpt lat="43.59554" lon="1.41764">
        <ele>206.97556</ele>
        <time>2023-01-04T09:08:22.261Z</time>
      </trkpt>
      <trkpt lat="43.59561" lon="1.41779">
        <ele>207.351772</ele>
        <time>2023-01-04T09:08:25.256Z</time>
      </trkpt>
      <trkpt lat="43.59564" lon="1.41792">
        <ele>207.644473</ele>
        <time>2023-01-04T09:08:29.261Z</time>
      </trkpt>
      <trkpt lat="43.59566" lon="1.41805">
        <ele>207.946477</ele>
        <time>2023-01-04T09:08:33.253Z</time>
      </trkpt>
      <trkpt lat="43.59564" lon="1.4182">
        <ele>208.271817</ele>
        <time>2023-01-04T09:08:36.257Z</time>
      </trkpt>
      <trkpt lat="43.5956" lon="1.41834">
        <ele>208.585016</ele>
        <time>2023-01-04T09:08:39.250Z</time>
      </trkpt>
      <trkpt lat="43.59562" lon="1.41848">
        <ele>208.319888</ele>
        <time>2023-01-04T09:08:42.251Z</time>
      </trkpt>
      <trkpt lat="43.59565" lon="1.41864">
        <ele>207.971185</ele>
        <time>2023-01-04T09:08:45.259Z</time>
      </trkpt>
      <trkpt lat="43.59567" lon="1.41882">
        <ele>207.591869</ele>
        <time>2023-01-04T09:08:48.253Z</time>
      </trkpt>
      <trkpt lat="43.5957" lon="1.41898">
        <ele>207.248596</ele>
        <time>2023-01-04T09:08:51.251Z</time>
      </trkpt>
      <trkpt lat="43.59572" lon="1.41912">
        <ele>206.94637</ele>
        <time>2023-01-04T09:08:54.261Z</time>
      </trkpt>
      <trkpt lat="43.59573" lon="1.41925">
        <ele>206.679773</ele>
        <time>2023-01-04T09:08:57.271Z</time>
      </trkpt>
      <trkpt lat="43.5957" lon="1.41936">
        <ele>206.422198</ele>
        <time>2023-01-04T09:09:01.257Z</time>
      </trkpt>
      <trkpt lat="43.59572" lon="1.41949">
        <ele>206.141887</ele>
        <time>2023-01-04T09:09:06.256Z</time>
      </trkpt>
      <trkpt lat="43.59576" lon="1.41962">
        <ele>205.850204</ele>
        <time>2023-01-04T09:09:10.279Z</time>
      </trkpt>
      <trkpt lat="43.59582" lon="1.41974">
        <ele>205.542244</ele>
        <time>2023-01-04T09:09:13.253Z</time>
      </trkpt>
      <trkpt lat="43.59585" lon="1.41989">
        <ele>205.219147</ele>
        <time>2023-01-04T09:09:16.249Z</time>
      </trkpt>
      <trkpt lat="43.59588" lon="1.42004">
        <ele>204.890817</ele>
        <time>2023-01-04T09:09:19.263Z</time>
      </trkpt>
      <trkpt lat="43.59591" lon="1.42021">
        <ele>204.53203</ele>
        <time>2023-01-04T09:09:22.256Z</time>
      </trkpt>
      <trkpt lat="43.59594" lon="1.42038">
        <ele>204.164802</ele>
        <time>2023-01-04T09:09:25.275Z</time>
      </trkpt>
      <trkpt lat="43.59597" lon="1.42055">
        <ele>203.787706</ele>
        <time>2023-01-04T09:09:28.250Z</time>
      </trkpt>
      <trkpt lat="43.59599" lon="1.4207">
        <ele>203.472576</ele>
        <time>2023-01-04T09:09:31.267Z</time>
      </trkpt>
      <trkpt lat="43.59601" lon="1.42084">
        <ele>203.265829</ele>
        <time>2023-01-04T09:09:34.268Z</time>
      </trkpt>
      <trkpt lat="43.59604" lon="1.421">
        <ele>203.056336</ele>
        <time>2023-01-04T09:09:37.255Z</time>
      </trkpt>
      <trkpt lat="43.59608" lon="1.42118">
        <ele>202.818773</ele>
        <time>2023-01-04T09:09:40.248Z</time>
      </trkpt>
      <trkpt lat="43.5961" lon="1.4213">
        <ele>202.654271</ele>
        <time>2023-01-04T09:09:42.249Z</time>
      </trkpt>
      <trkpt lat="43.59614" lon="1.42144">
        <ele>202.465056</ele>
        <time>2023-01-04T09:09:44.249Z</time>
      </trkpt>
      <trkpt lat="43.59615" lon="1.42157">
        <ele>202.296054</ele>
        <time>2023-01-04T09:09:46.249Z</time>
      </trkpt>
      <trkpt lat="43.59619" lon="1.42173">
        <ele>202.066618</ele>
        <time>2023-01-04T09:09:49.264Z</time>
      </trkpt>
      <trkpt lat="43.59622" lon="1.42188">
        <ele>201.866086</ele>
        <time>2023-01-04T09:09:52.263Z</time>
      </trkpt>
      <trkpt lat="43.59625" lon="1.42203">
        <ele>201.666968</ele>
        <time>2023-01-04T09:09:55.252Z</time>
      </trkpt>
      <trkpt lat="43.59629" lon="1.42219">
        <ele>201.449242</ele>
        <time>2023-01-04T09:09:58.272Z</time>
      </trkpt>
      <trkpt lat="43.59632" lon="1.42234">
        <ele>201.252095</ele>
        <time>2023-01-04T09:10:01.251Z</time>
      </trkpt>
      <trkpt lat="43.59635" lon="1.42246">
        <ele>201.08652</ele>
        <time>2023-01-04T09:10:04.257Z</time>
      </trkpt>
      <trkpt lat="43.59637" lon="1.42259">
        <ele>200.915875</ele>
        <time>2023-01-04T09:10:08.264Z</time>
      </trkpt>
      <trkpt lat="43.59636" lon="1.42274">
        <ele>200.720479</ele>
        <time>2023-01-04T09:10:13.261Z</time>
      </trkpt>
      <trkpt lat="43.59628" lon="1.42284">
        <ele>200.528461</ele>
        <time>2023-01-04T09:10:17.253Z</time>
      </trkpt>
      <trkpt lat="43.59618" lon="1.42281">
        <ele>200.345412</ele>
        <time>2023-01-04T09:10:20.259Z</time>
      </trkpt>
      <trkpt lat="43.5961" lon="1.42275">
        <ele>200.208404</ele>
        <time>2023-01-04T09:10:23.255Z</time>
      </trkpt>
      <trkpt lat="43.596" lon="1.42269">
        <ele>200.242553</ele>
        <time>2023-01-04T09:10:26.270Z</time>
      </trkpt>
      <trkpt lat="43.5959" lon="1.42261">
        <ele>200.27759</ele>
        <time>2023-01-04T09:10:29.247Z</time>
      </trkpt>
      <trkpt lat="43.5958" lon="1.42254">
        <ele>200.314545</ele>
        <time>2023-01-04T09:10:32.262Z</time>
      </trkpt>
      <trkpt lat="43.5957" lon="1.42246">
        <ele>200.350523</ele>
        <time>2023-01-04T09:10:35.260Z</time>
      </trkpt>
      <trkpt lat="43.59559" lon="1.42239">
        <ele>200.389391</ele>
        <time>2023-01-04T09:10:38.267Z</time>
      </trkpt>
      <trkpt lat="43.59549" lon="1.42231">
        <ele>200.427688</ele>
        <time>2023-01-04T09:10:41.257Z</time>
      </trkpt>
      <trkpt lat="43.59539" lon="1.42223">
        <ele>200.463734</ele>
        <time>2023-01-04T09:10:44.251Z</time>
      </trkpt>
      <trkpt lat="43.5953" lon="1.42215">
        <ele>200.498762</ele>
        <time>2023-01-04T09:10:47.253Z</time>
      </trkpt>
      <trkpt lat="43.59518" lon="1.42206">
        <ele>200.539248</ele>
        <time>2023-01-04T09:10:50.259Z</time>
      </trkpt>
      <trkpt lat="43.59508" lon="1.42197">
        <ele>200.579828</ele>
        <time>2023-01-04T09:10:53.262Z</time>
      </trkpt>
      <trkpt lat="43.59498" lon="1.4219">
        <ele>200.614421</ele>
        <time>2023-01-04T09:10:56.261Z</time>
      </trkpt>
      <trkpt lat="43.59488" lon="1.42183">
        <ele>200.650034</ele>
        <time>2023-01-04T09:10:59.259Z</time>
      </trkpt>
      <trkpt lat="43.59476" lon="1.42175">
        <ele>200.690433</ele>
        <time>2023-01-04T09:11:02.249Z</time>
      </trkpt>
      <trkpt lat="43.59466" lon="1.42166">
        <ele>200.730231</ele>
        <time>2023-01-04T09:11:05.246Z</time>
      </trkpt>
      <trkpt lat="43.59458" lon="1.4216">
        <ele>200.75921</ele>
        <time>2023-01-04T09:11:07.250Z</time>
      </trkpt>
      <trkpt lat="43.59447" lon="1.42151">
        <ele>200.660216</ele>
        <time>2023-01-04T09:11:10.255Z</time>
      </trkpt>
      <trkpt lat="43.59436" lon="1.42143">
        <ele>200.465646</ele>
        <time>2023-01-04T09:11:13.253Z</time>
      </trkpt>
      <trkpt lat="43.59426" lon="1.42135">
        <ele>200.270569</ele>
        <time>2023-01-04T09:11:16.256Z</time>
      </trkpt>
      <trkpt lat="43.59416" lon="1.42128">
        <ele>200.10265</ele>
        <time>2023-01-04T09:11:19.251Z</time>
      </trkpt>
      <trkpt lat="43.59407" lon="1.42121">
        <ele>199.936923</ele>
        <time>2023-01-04T09:11:22.249Z</time>
      </trkpt>
      <trkpt lat="43.59398" lon="1.42115">
        <ele>199.780492</ele>
        <time>2023-01-04T09:11:26.256Z</time>
      </trkpt>
      <trkpt lat="43.59388" lon="1.42106">
        <ele>199.598741</ele>
        <time>2023-01-04T09:11:30.257Z</time>
      </trkpt>
      <trkpt lat="43.59381" lon="1.42098">
        <ele>199.456147</ele>
        <time>2023-01-04T09:11:33.249Z</time>
      </trkpt>
      <trkpt lat="43.59372" lon="1.4209">
        <ele>199.286135</ele>
        <time>2023-01-04T09:11:36.254Z</time>
      </trkpt>
      <trkpt lat="43.59362" lon="1.42082">
        <ele>199.102846</ele>
        <time>2023-01-04T09:11:39.253Z</time>
      </trkpt>
      <trkpt lat="43.59352" lon="1.42073">
        <ele>198.911034</ele>
        <time>2023-01-04T09:11:42.278Z</time>
      </trkpt>
      <trkpt lat="43.59344" lon="1.42067">
        <ele>198.766789</ele>
        <time>2023-01-04T09:11:44.261Z</time>
      </trkpt>
      <trkpt lat="43.59332" lon="1.42059">
        <ele>198.565598</ele>
        <time>2023-01-04T09:11:47.257Z</time>
      </trkpt>
      <trkpt lat="43.59322" lon="1.4205">
        <ele>198.376858</ele>
        <time>2023-01-04T09:11:50.259Z</time>
      </trkpt>
      <trkpt lat="43.59311" lon="1.42041">
        <ele>198.173699</ele>
        <time>2023-01-04T09:11:53.260Z</time>
      </trkpt>
      <trkpt lat="43.59302" lon="1.42035">
        <ele>198.018666</ele>
        <time>2023-01-04T09:11:55.264Z</time>
      </trkpt>
      <trkpt lat="43.59291" lon="1.42025">
        <ele>197.935323</ele>
        <time>2023-01-04T09:11:58.271Z</time>
      </trkpt>
      <trkpt lat="43.5928" lon="1.42015">
        <ele>197.910765</ele>
        <time>2023-01-04T09:12:01.260Z</time>
      </trkpt>
      <trkpt lat="43.5927" lon="1.42006">
        <ele>197.888969</ele>
        <time>2023-01-04T09:12:04.259Z</time>
      </trkpt>
      <trkpt lat="43.59262" lon="1.41998">
        <ele>197.870825</ele>
        <time>2023-01-04T09:12:07.266Z</time>
      </trkpt>
      <trkpt lat="43.59253" lon="1.4199">
        <ele>197.851996</ele>
        <time>2023-01-04T09:12:10.264Z</time>
      </trkpt>
      <trkpt lat="43.59244" lon="1.41982">
        <ele>197.832253</ele>
        <time>2023-01-04T09:12:13.259Z</time>
      </trkpt>
      <trkpt lat="43.59236" lon="1.41974">
        <ele>197.813047</ele>
        <time>2023-01-04T09:12:16.269Z</time>
      </trkpt>
      <trkpt lat="43.59226" lon="1.41967">
        <ele>197.792521</ele>
        <time>2023-01-04T09:12:19.260Z</time>
      </trkpt>
      <trkpt lat="43.59216" lon="1.41959">
        <ele>197.770764</ele>
        <time>2023-01-04T09:12:22.251Z</time>
      </trkpt>
      <trkpt lat="43.59207" lon="1.41952">
        <ele>197.75159</ele>
        <time>2023-01-04T09:12:25.271Z</time>
      </trkpt>
      <trkpt lat="43.59199" lon="1.41945">
        <ele>197.73417</ele>
        <time>2023-01-04T09:12:28.262Z</time>
      </trkpt>
      <trkpt lat="43.59191" lon="1.41939">
        <ele>197.717309</ele>
        <time>2023-01-04T09:12:37.268Z</time>
      </trkpt>
      <trkpt lat="43.59182" lon="1.41935">
        <ele>197.699756</ele>
        <time>2023-01-04T09:12:41.261Z</time>
      </trkpt>
      <trkpt lat="43.59172" lon="1.4193">
        <ele>197.679578</ele>
        <time>2023-01-04T09:12:45.249Z</time>
      </trkpt>
      <trkpt lat="43.59159" lon="1.41918">
        <ele>197.652141</ele>
        <time>2023-01-04T09:13:29.250Z</time>
      </trkpt>
      <trkpt lat="43.5915" lon="1.41913">
        <ele>197.633779</ele>
        <time>2023-01-04T09:13:33.247Z</time>
      </trkpt>
      <trkpt lat="43.59139" lon="1.41917">
        <ele>197.544174</ele>
        <time>2023-01-04T09:13:38.261Z</time>
      </trkpt>
      <trkpt lat="43.5913" lon="1.41926">
        <ele>197.296363</ele>
        <time>2023-01-04T09:13:46.253Z</time>
      </trkpt>
      <trkpt lat="43.59122" lon="1.41934">
        <ele>197.055913</ele>
        <time>2023-01-04T09:13:50.267Z</time>
      </trkpt>
      <trkpt lat="43.59114" lon="1.41943">
        <ele>196.831562</ele>
        <time>2023-01-04T09:13:53.261Z</time>
      </trkpt>
      <trkpt lat="43.59107" lon="1.41954">
        <ele>196.574637</ele>
        <time>2023-01-04T09:13:56.257Z</time>
      </trkpt>
      <trkpt lat="43.59099" lon="1.41966">
        <ele>196.319616</ele>
        <time>2023-01-04T09:13:59.262Z</time>
      </trkpt>
      <trkpt lat="43.59091" lon="1.41978">
        <ele>196.039286</ele>
        <time>2023-01-04T09:14:02.267Z</time>
      </trkpt>
      <trkpt lat="43.59082" lon="1.41991">
        <ele>195.755877</ele>
        <time>2023-01-04T09:14:05.268Z</time>
      </trkpt>
      <trkpt lat="43.59074" lon="1.42004">
        <ele>195.478847</ele>
        <time>2023-01-04T09:14:08.246Z</time>
      </trkpt>
      <trkpt lat="43.59068" lon="1.42015">
        <ele>195.248131</ele>
        <time>2023-01-04T09:14:11.253Z</time>
      </trkpt>
      <trkpt lat="43.59061" lon="1.42024">
        <ele>195.035703</ele>
        <time>2023-01-04T09:14:14.250Z</time>
      </trkpt>
      <trkpt lat="43.59054" lon="1.42035">
        <ele>194.781277</ele>
        <time>2023-01-04T09:14:18.266Z</time>
      </trkpt>
      <trkpt lat="43.59048" lon="1.42047">
        <ele>194.551537</ele>
        <time>2023-01-04T09:14:21.252Z</time>
      </trkpt>
      <trkpt lat="43.59041" lon="1.42058">
        <ele>194.305976</ele>
        <time>2023-01-04T09:14:24.258Z</time>
      </trkpt>
      <trkpt lat="43.59033" lon="1.42071">
        <ele>194.020739</ele>
        <time>2023-01-04T09:14:27.261Z</time>
      </trkpt>
      <trkpt lat="43.59025" lon="1.42084">
        <ele>193.735756</ele>
        <time>2023-01-04T09:14:30.261Z</time>
      </trkpt>
      <trkpt lat="43.59015" lon="1.42096">
        <ele>193.44429</ele>
        <time>2023-01-04T09:14:33.265Z</time>
      </trkpt>
      <trkpt lat="43.59007" lon="1.42108">
        <ele>193.141014</ele>
        <time>2023-01-04T09:14:36.269Z</time>
      </trkpt>
      <trkpt lat="43.58999" lon="1.42119">
        <ele>192.846933</ele>
        <time>2023-01-04T09:14:39.275Z</time>
      </trkpt>
      <trkpt lat="43.58992" lon="1.42129">
        <ele>192.602043</ele>
        <time>2023-01-04T09:14:42.261Z</time>
      </trkpt>
      <trkpt lat="43.58988" lon="1.42142">
        <ele>192.34464</ele>
        <time>2023-01-04T09:14:45.270Z</time>
      </trkpt>
      <trkpt lat="43.58981" lon="1.42152">
        <ele>192.102136</ele>
        <time>2023-01-04T09:14:48.267Z</time>
      </trkpt>
      <trkpt lat="43.58976" lon="1.42163">
        <ele>191.857542</ele>
        <time>2023-01-04T09:14:52.269Z</time>
      </trkpt>
      <trkpt lat="43.5897" lon="1.42174">
        <ele>191.608194</ele>
        <time>2023-01-04T09:14:58.272Z</time>
      </trkpt>
      <trkpt lat="43.58963" lon="1.42185">
        <ele>191.348179</ele>
        <time>2023-01-04T09:15:04.267Z</time>
      </trkpt>
      <trkpt lat="43.58956" lon="1.42193">
        <ele>191.11122</ele>
        <time>2023-01-04T09:15:08.264Z</time>
      </trkpt>
      <trkpt lat="43.58949" lon="1.42201">
        <ele>190.88508</ele>
        <time>2023-01-04T09:15:11.264Z</time>
      </trkpt>
      <trkpt lat="43.58943" lon="1.42212">
        <ele>190.641419</ele>
        <time>2023-01-04T09:15:14.266Z</time>
      </trkpt>
      <trkpt lat="43.58936" lon="1.42222">
        <ele>190.377032</ele>
        <time>2023-01-04T09:15:17.263Z</time>
      </trkpt>
      <trkpt lat="43.58928" lon="1.42234">
        <ele>190.092773</ele>
        <time>2023-01-04T09:15:20.255Z</time>
      </trkpt>
      <trkpt lat="43.5892" lon="1.42247">
        <ele>189.791212</ele>
        <time>2023-01-04T09:15:23.261Z</time>
      </trkpt>
      <trkpt lat="43.58912" lon="1.4226">
        <ele>189.463252</ele>
        <time>2023-01-04T09:15:26.271Z</time>
      </trkpt>
      <trkpt lat="43.58905" lon="1.4227">
        <ele>189.218954</ele>
        <time>2023-01-04T09:15:28.270Z</time>
      </trkpt>
      <trkpt lat="43.58899" lon="1.4228">
        <ele>189.039665</ele>
        <time>2023-01-04T09:15:30.271Z</time>
      </trkpt>
      <trkpt lat="43.58892" lon="1.42292">
        <ele>189.189407</ele>
        <time>2023-01-04T09:15:32.254Z</time>
      </trkpt>
      <trkpt lat="43.58884" lon="1.42302">
        <ele>189.345538</ele>
        <time>2023-01-04T09:15:34.263Z</time>
      </trkpt>
      <trkpt lat="43.58876" lon="1.42315">
        <ele>189.51477</ele>
        <time>2023-01-04T09:15:36.267Z</time>
      </trkpt>
      <trkpt lat="43.58868" lon="1.42326">
        <ele>189.675093</ele>
        <time>2023-01-04T09:15:38.249Z</time>
      </trkpt>
      <trkpt lat="43.5886" lon="1.42338">
        <ele>189.838324</ele>
        <time>2023-01-04T09:15:40.256Z</time>
      </trkpt>
      <trkpt lat="43.58853" lon="1.42349">
        <ele>189.996936</ele>
        <time>2023-01-04T09:15:42.261Z</time>
      </trkpt>
      <trkpt lat="43.58844" lon="1.4236">
        <ele>190.169563</ele>
        <time>2023-01-04T09:15:44.264Z</time>
      </trkpt>
      <trkpt lat="43.58837" lon="1.42372">
        <ele>190.319306</ele>
        <time>2023-01-04T09:15:46.265Z</time>
      </trkpt>
      <trkpt lat="43.5883" lon="1.42381">
        <ele>190.460938</ele>
        <time>2023-01-04T09:15:48.253Z</time>
      </trkpt>
      <trkpt lat="43.58824" lon="1.42392">
        <ele>190.596088</ele>
        <time>2023-01-04T09:15:50.262Z</time>
      </trkpt>
      <trkpt lat="43.58818" lon="1.42402">
        <ele>190.731622</ele>
        <time>2023-01-04T09:15:52.269Z</time>
      </trkpt>
      <trkpt lat="43.58809" lon="1.42414">
        <ele>190.903909</ele>
        <time>2023-01-04T09:15:55.261Z</time>
      </trkpt>
      <trkpt lat="43.58802" lon="1.42424">
        <ele>191.047339</ele>
        <time>2023-01-04T09:15:58.265Z</time>
      </trkpt>
      <trkpt lat="43.58795" lon="1.42435">
        <ele>191.202533</ele>
        <time>2023-01-04T09:16:01.252Z</time>
      </trkpt>
      <trkpt lat="43.58788" lon="1.42447">
        <ele>191.355407</ele>
        <time>2023-01-04T09:16:04.264Z</time>
      </trkpt>
      <trkpt lat="43.58782" lon="1.42457">
        <ele>191.492786</ele>
        <time>2023-01-04T09:16:07.260Z</time>
      </trkpt>
      <trkpt lat="43.58775" lon="1.42467">
        <ele>191.629036</ele>
        <time>2023-01-04T09:16:10.268Z</time>
      </trkpt>
      <trkpt lat="43.58768" lon="1.42476">
        <ele>191.7657</ele>
        <time>2023-01-04T09:16:13.269Z</time>
      </trkpt>
      <trkpt lat="43.58761" lon="1.42486">
        <ele>191.906906</ele>
        <time>2023-01-04T09:16:16.270Z</time>
      </trkpt>
      <trkpt lat="43.58753" lon="1.42497">
        <ele>192.06063</ele>
        <time>2023-01-04T09:16:19.267Z</time>
      </trkpt>
      <trkpt lat="43.58746" lon="1.42508">
        <ele>192.200652</ele>
        <time>2023-01-04T09:16:22.268Z</time>
      </trkpt>
      <trkpt lat="43.58738" lon="1.42518">
        <ele>192.354376</ele>
        <time>2023-01-04T09:16:25.262Z</time>
      </trkpt>
      <trkpt lat="43.5873" lon="1.42528">
        <ele>192.503978</ele>
        <time>2023-01-04T09:16:28.267Z</time>
      </trkpt>
      <trkpt lat="43.58723" lon="1.42537">
        <ele>192.635459</ele>
        <time>2023-01-04T09:16:31.259Z</time>
      </trkpt>
      <trkpt lat="43.58716" lon="1.42547">
        <ele>192.776769</ele>
        <time>2023-01-04T09:16:34.269Z</time>
      </trkpt>
      <trkpt lat="43.58709" lon="1.42558">
        <ele>192.927602</ele>
        <time>2023-01-04T09:16:37.256Z</time>
      </trkpt>
      <trkpt lat="43.58702" lon="1.42569">
        <ele>193.074353</ele>
        <time>2023-01-04T09:16:40.249Z</time>
      </trkpt>
      <trkpt lat="43.58695" lon="1.42581">
        <ele>193.227488</ele>
        <time>2023-01-04T09:16:43.259Z</time>
      </trkpt>
      <trkpt lat="43.58688" lon="1.42592">
        <ele>193.368967</ele>
        <time>2023-01-04T09:16:46.273Z</time>
      </trkpt>
      <trkpt lat="43.58681" lon="1.42606">
        <ele>193.538792</ele>
        <time>2023-01-04T09:16:50.271Z</time>
      </trkpt>
      <trkpt lat="43.58674" lon="1.42617">
        <ele>193.685543</ele>
        <time>2023-01-04T09:16:53.262Z</time>
      </trkpt>
      <trkpt lat="43.58667" lon="1.42628">
        <ele>193.833058</ele>
        <time>2023-01-04T09:16:56.263Z</time>
      </trkpt>
      <trkpt lat="43.58661" lon="1.42638">
        <ele>193.966651</ele>
        <time>2023-01-04T09:16:59.294Z</time>
      </trkpt>
      <trkpt lat="43.58654" lon="1.42649">
        <ele>194.118985</ele>
        <time>2023-01-04T09:17:02.262Z</time>
      </trkpt>
      <trkpt lat="43.58647" lon="1.4266">
        <ele>194.285355</ele>
        <time>2023-01-04T09:17:05.259Z</time>
      </trkpt>
      <trkpt lat="43.5864" lon="1.42671">
        <ele>194.441117</ele>
        <time>2023-01-04T09:17:08.275Z</time>
      </trkpt>
      <trkpt lat="43.58632" lon="1.42682">
        <ele>194.616165</ele>
        <time>2023-01-04T09:17:11.275Z</time>
      </trkpt>
      <trkpt lat="43.58625" lon="1.42692">
        <ele>194.769046</ele>
        <time>2023-01-04T09:17:14.262Z</time>
      </trkpt>
      <trkpt lat="43.58619" lon="1.42702">
        <ele>194.913226</ele>
        <time>2023-01-04T09:17:17.257Z</time>
      </trkpt>
      <trkpt lat="43.58612" lon="1.42711">
        <ele>195.05665</ele>
        <time>2023-01-04T09:17:20.260Z</time>
      </trkpt>
      <trkpt lat="43.58606" lon="1.42722">
        <ele>195.209969</ele>
        <time>2023-01-04T09:17:23.256Z</time>
      </trkpt>
      <trkpt lat="43.58599" lon="1.42732">
        <ele>195.358354</ele>
        <time>2023-01-04T09:17:26.270Z</time>
      </trkpt>
      <trkpt lat="43.58591" lon="1.42743">
        <ele>195.525478</ele>
        <time>2023-01-04T09:17:30.263Z</time>
      </trkpt>
      <trkpt lat="43.58586" lon="1.42754">
        <ele>195.669633</ele>
        <time>2023-01-04T09:17:37.253Z</time>
      </trkpt>
      <trkpt lat="43.58578" lon="1.42767">
        <ele>195.86029</ele>
        <time>2023-01-04T09:17:41.261Z</time>
      </trkpt>
      <trkpt lat="43.58572" lon="1.42779">
        <ele>196.022966</ele>
        <time>2023-01-04T09:17:44.264Z</time>
      </trkpt>
      <trkpt lat="43.58565" lon="1.42792">
        <ele>196.200705</ele>
        <time>2023-01-04T09:17:47.272Z</time>
      </trkpt>
      <trkpt lat="43.58558" lon="1.42804">
        <ele>196.370539</ele>
        <time>2023-01-04T09:17:50.269Z</time>
      </trkpt>
      <trkpt lat="43.58552" lon="1.42817">
        <ele>196.542068</ele>
        <time>2023-01-04T09:17:54.264Z</time>
      </trkpt>
      <trkpt lat="43.58544" lon="1.42823">
        <ele>196.6834</ele>
        <time>2023-01-04T09:18:01.254Z</time>
      </trkpt>
      <trkpt lat="43.58534" lon="1.42816">
        <ele>196.825436</ele>
        <time>2023-01-04T09:18:11.268Z</time>
      </trkpt>
      <trkpt lat="43.58525" lon="1.42809">
        <ele>196.929908</ele>
        <time>2023-01-04T09:18:16.263Z</time>
      </trkpt>
      <trkpt lat="43.58516" lon="1.42802">
        <ele>197.030923</ele>
        <time>2023-01-04T09:18:20.264Z</time>
      </trkpt>
      <trkpt lat="43.58507" lon="1.42801">
        <ele>197.120997</ele>
        <time>2023-01-04T09:18:24.267Z</time>
      </trkpt>
      <trkpt lat="43.58494" lon="1.42816">
        <ele>197.291664</ele>
        <time>2023-01-04T09:20:10.256Z</time>
      </trkpt>
      <trkpt lat="43.58492" lon="1.42828">
        <ele>197.38156</ele>
        <time>2023-01-04T09:20:13.270Z</time>
      </trkpt>
      <trkpt lat="43.5849" lon="1.42843">
        <ele>197.490643</ele>
        <time>2023-01-04T09:20:17.258Z</time>
      </trkpt>
      <trkpt lat="43.58489" lon="1.42858">
        <ele>197.601225</ele>
        <time>2023-01-04T09:20:21.263Z</time>
      </trkpt>
      <trkpt lat="43.58487" lon="1.42871">
        <ele>197.695771</ele>
        <time>2023-01-04T09:20:24.249Z</time>
      </trkpt>
      <trkpt lat="43.58485" lon="1.42885">
        <ele>197.794751</ele>
        <time>2023-01-04T09:20:27.261Z</time>
      </trkpt>
      <trkpt lat="43.58483" lon="1.42898">
        <ele>197.891155</ele>
        <time>2023-01-04T09:20:30.249Z</time>
      </trkpt>
      <trkpt lat="43.58481" lon="1.42911">
        <ele>197.988959</ele>
        <time>2023-01-04T09:20:33.262Z</time>
      </trkpt>
      <trkpt lat="43.58477" lon="1.42923">
        <ele>198.080739</ele>
        <time>2023-01-04T09:20:36.264Z</time>
      </trkpt>
      <trkpt lat="43.58475" lon="1.42935">
        <ele>198.173897</ele>
        <time>2023-01-04T09:20:39.248Z</time>
      </trkpt>
      <trkpt lat="43.58473" lon="1.42949">
        <ele>198.276891</ele>
        <time>2023-01-04T09:20:42.255Z</time>
      </trkpt>
      <trkpt lat="43.58471" lon="1.42964">
        <ele>198.383416</ele>
        <time>2023-01-04T09:20:45.257Z</time>
      </trkpt>
      <trkpt lat="43.58468" lon="1.42978">
        <ele>198.492424</ele>
        <time>2023-01-04T09:20:48.260Z</time>
      </trkpt>
      <trkpt lat="43.58466" lon="1.42993">
        <ele>198.539266</ele>
        <time>2023-01-04T09:20:51.251Z</time>
      </trkpt>
      <trkpt lat="43.58464" lon="1.43008">
        <ele>198.390004</ele>
        <time>2023-01-04T09:20:54.259Z</time>
      </trkpt>
      <trkpt lat="43.58462" lon="1.43023">
        <ele>198.243791</ele>
        <time>2023-01-04T09:20:57.258Z</time>
      </trkpt>
      <trkpt lat="43.58459" lon="1.43038">
        <ele>198.09825</ele>
        <time>2023-01-04T09:21:00.249Z</time>
      </trkpt>
      <trkpt lat="43.58457" lon="1.4305">
        <ele>197.976253</ele>
        <time>2023-01-04T09:21:03.252Z</time>
      </trkpt>
      <trkpt lat="43.58455" lon="1.43063">
        <ele>197.848857</ele>
        <time>2023-01-04T09:21:06.257Z</time>
      </trkpt>
      <trkpt lat="43.58453" lon="1.43076">
        <ele>197.716832</ele>
        <time>2023-01-04T09:21:09.253Z</time>
      </trkpt>
      <trkpt lat="43.58451" lon="1.43089">
        <ele>197.59202</ele>
        <time>2023-01-04T09:21:12.271Z</time>
      </trkpt>
      <trkpt lat="43.58449" lon="1.43102">
        <ele>197.459691</ele>
        <time>2023-01-04T09:21:16.248Z</time>
      </trkpt>
      <trkpt lat="43.58446" lon="1.43115">
        <ele>197.331393</ele>
        <time>2023-01-04T09:21:21.264Z</time>
      </trkpt>
      <trkpt lat="43.58444" lon="1.43128">
        <ele>197.201405</ele>
        <time>2023-01-04T09:21:25.255Z</time>
      </trkpt>
      <trkpt lat="43.58437" lon="1.43149">
        <ele>196.975403</ele>
        <time>2023-01-04T09:22:38.260Z</time>
      </trkpt>
      <trkpt lat="43.58427" lon="1.43151">
        <ele>196.847291</ele>
        <time>2023-01-04T09:22:42.263Z</time>
      </trkpt>
      <trkpt lat="43.58418" lon="1.43147">
        <ele>196.720671</ele>
        <time>2023-01-04T09:22:45.268Z</time>
      </trkpt>
      <trkpt lat="43.58408" lon="1.43142">
        <ele>196.570499</ele>
        <time>2023-01-04T09:22:48.251Z</time>
      </trkpt>
      <trkpt lat="43.58397" lon="1.43135">
        <ele>196.408982</ele>
        <time>2023-01-04T09:22:51.254Z</time>
      </trkpt>
      <trkpt lat="43.58388" lon="1.43125">
        <ele>196.258879</ele>
        <time>2023-01-04T09:22:54.255Z</time>
      </trkpt>
      <trkpt lat="43.58382" lon="1.43112">
        <ele>196.135933</ele>
        <time>2023-01-04T09:22:58.254Z</time>
      </trkpt>
      <trkpt lat="43.58391" lon="1.43108">
        <ele>196.065852</ele>
        <time>2023-01-04T09:23:16.262Z</time>
      </trkpt>
      <trkpt lat="43.58399" lon="1.43114">
        <ele>195.999285</ele>
        <time>2023-01-04T09:23:19.254Z</time>
      </trkpt>
      <trkpt lat="43.58406" lon="1.43122">
        <ele>195.932945</ele>
        <time>2023-01-04T09:23:22.256Z</time>
      </trkpt>
      <trkpt lat="43.58413" lon="1.43131">
        <ele>195.866149</ele>
        <time>2023-01-04T09:23:53.079Z</time>
      </trkpt>
      <trkpt lat="43.58414" lon="1.43131">
        <ele>195.859534</ele>
        <time>2023-01-04T09:40:40.944Z</time>
      </trkpt>
      <trkpt lat="43.58403" lon="1.43121">
        <ele>195.762199</ele>
        <time>2023-01-04T09:42:09.032Z</time>
      </trkpt>
      <trkpt lat="43.58393" lon="1.43115">
        <ele>195.686399</ele>
        <time>2023-01-04T09:42:12.027Z</time>
      </trkpt>
      <trkpt lat="43.58385" lon="1.43108">
        <ele>195.61967</ele>
        <time>2023-01-04T09:42:15.024Z</time>
      </trkpt>
      <trkpt lat="43.58384" lon="1.43094">
        <ele>195.541542</ele>
        <time>2023-01-04T09:42:19.030Z</time>
      </trkpt>
      <trkpt lat="43.58388" lon="1.43082">
        <ele>195.470186</ele>
        <time>2023-01-04T09:42:22.026Z</time>
      </trkpt>
      <trkpt lat="43.58392" lon="1.43071">
        <ele>195.404832</ele>
        <time>2023-01-04T09:42:25.035Z</time>
      </trkpt>
      <trkpt lat="43.58391" lon="1.43057">
        <ele>195.330033</ele>
        <time>2023-01-04T09:42:30.033Z</time>
      </trkpt>
      <trkpt lat="43.58381" lon="1.43053">
        <ele>195.254137</ele>
        <time>2023-01-04T09:42:34.027Z</time>
      </trkpt>
      <trkpt lat="43.58371" lon="1.43063">
        <ele>195.170506</ele>
        <time>2023-01-04T09:42:38.029Z</time>
      </trkpt>
      <trkpt lat="43.58368" lon="1.43078">
        <ele>195.086228</ele>
        <time>2023-01-04T09:42:42.023Z</time>
      </trkpt>
      <trkpt lat="43.58367" lon="1.43091">
        <ele>195.016231</ele>
        <time>2023-01-04T09:42:45.053Z</time>
      </trkpt>
      <trkpt lat="43.58371" lon="1.43104">
        <ele>194.944064</ele>
        <time>2023-01-04T09:42:48.031Z</time>
      </trkpt>
      <trkpt lat="43.58376" lon="1.43119">
        <ele>194.891158</ele>
        <time>2023-01-04T09:42:52.028Z</time>
      </trkpt>
      <trkpt lat="43.58382" lon="1.43132">
        <ele>195.117273</ele>
        <time>2023-01-04T09:42:56.031Z</time>
      </trkpt>
      <trkpt lat="43.58389" lon="1.43143">
        <ele>195.328259</ele>
        <time>2023-01-04T09:43:00.041Z</time>
      </trkpt>
      <trkpt lat="43.58398" lon="1.43149">
        <ele>195.530523</ele>
        <time>2023-01-04T09:43:04.026Z</time>
      </trkpt>
      <trkpt lat="43.58407" lon="1.43154">
        <ele>195.730342</ele>
        <time>2023-01-04T09:43:08.028Z</time>
      </trkpt>
      <trkpt lat="43.58417" lon="1.43159">
        <ele>195.932261</ele>
        <time>2023-01-04T09:43:12.026Z</time>
      </trkpt>
      <trkpt lat="43.58427" lon="1.43163">
        <ele>196.139778</ele>
        <time>2023-01-04T09:43:17.048Z</time>
      </trkpt>
      <trkpt lat="43.58435" lon="1.43167">
        <ele>196.320739</ele>
        <time>2023-01-04T09:43:21.036Z</time>
      </trkpt>
      <trkpt lat="43.5844" lon="1.43179">
        <ele>196.515969</ele>
        <time>2023-01-04T09:43:25.027Z</time>
      </trkpt>
      <trkpt lat="43.58439" lon="1.43194">
        <ele>196.732947</ele>
        <time>2023-01-04T09:43:29.027Z</time>
      </trkpt>
      <trkpt lat="43.58437" lon="1.4321">
        <ele>196.966021</ele>
        <time>2023-01-04T09:43:33.026Z</time>
      </trkpt>
      <trkpt lat="43.58436" lon="1.43222">
        <ele>197.152741</ele>
        <time>2023-01-04T09:43:36.032Z</time>
      </trkpt>
      <trkpt lat="43.58436" lon="1.43239">
        <ele>197.389482</ele>
        <time>2023-01-04T09:43:40.033Z</time>
      </trkpt>
      <trkpt lat="43.58435" lon="1.43252">
        <ele>197.578499</ele>
        <time>2023-01-04T09:43:43.025Z</time>
      </trkpt>
      <trkpt lat="43.58435" lon="1.43266">
        <ele>197.782016</ele>
        <time>2023-01-04T09:43:46.035Z</time>
      </trkpt>
      <trkpt lat="43.58434" lon="1.43281">
        <ele>198.000726</ele>
        <time>2023-01-04T09:43:49.038Z</time>
      </trkpt>
      <trkpt lat="43.58433" lon="1.43296">
        <ele>198.227056</ele>
        <time>2023-01-04T09:43:52.031Z</time>
      </trkpt>
      <trkpt lat="43.58432" lon="1.43312">
        <ele>198.460065</ele>
        <time>2023-01-04T09:43:55.032Z</time>
      </trkpt>
      <trkpt lat="43.58431" lon="1.43329">
        <ele>198.477594</ele>
        <time>2023-01-04T09:43:58.039Z</time>
      </trkpt>
      <trkpt lat="43.5843" lon="1.43345">
        <ele>198.483562</ele>
        <time>2023-01-04T09:44:01.034Z</time>
      </trkpt>
      <trkpt lat="43.5843" lon="1.43358">
        <ele>198.488742</ele>
        <time>2023-01-04T09:44:04.028Z</time>
      </trkpt>
      <trkpt lat="43.58429" lon="1.43372">
        <ele>198.493814</ele>
        <time>2023-01-04T09:44:07.029Z</time>
      </trkpt>
      <trkpt lat="43.58428" lon="1.43387">
        <ele>198.499524</ele>
        <time>2023-01-04T09:44:10.023Z</time>
      </trkpt>
      <trkpt lat="43.58427" lon="1.43404">
        <ele>198.505802</ele>
        <time>2023-01-04T09:44:13.051Z</time>
      </trkpt>
      <trkpt lat="43.58427" lon="1.43421">
        <ele>198.512182</ele>
        <time>2023-01-04T09:44:16.037Z</time>
      </trkpt>
      <trkpt lat="43.58425" lon="1.43438">
        <ele>198.518577</ele>
        <time>2023-01-04T09:44:19.039Z</time>
      </trkpt>
      <trkpt lat="43.58425" lon="1.43455">
        <ele>198.525032</ele>
        <time>2023-01-04T09:44:22.039Z</time>
      </trkpt>
      <trkpt lat="43.58424" lon="1.43472">
        <ele>198.531418</ele>
        <time>2023-01-04T09:44:25.023Z</time>
      </trkpt>
      <trkpt lat="43.58423" lon="1.4349">
        <ele>198.53802</ele>
        <time>2023-01-04T09:44:28.042Z</time>
      </trkpt>
      <trkpt lat="43.58422" lon="1.43507">
        <ele>198.544523</ele>
        <time>2023-01-04T09:44:31.050Z</time>
      </trkpt>
      <trkpt lat="43.58422" lon="1.43522">
        <ele>198.550264</ele>
        <time>2023-01-04T09:44:34.051Z</time>
      </trkpt>
      <trkpt lat="43.58421" lon="1.43537">
        <ele>198.555698</ele>
        <time>2023-01-04T09:44:37.033Z</time>
      </trkpt>
      <trkpt lat="43.58421" lon="1.43552">
        <ele>198.561514</ele>
        <time>2023-01-04T09:44:40.057Z</time>
      </trkpt>
      <trkpt lat="43.5842" lon="1.43569">
        <ele>198.555067</ele>
        <time>2023-01-04T09:44:43.024Z</time>
      </trkpt>
      <trkpt lat="43.58419" lon="1.43586">
        <ele>198.535401</ele>
        <time>2023-01-04T09:44:46.025Z</time>
      </trkpt>
      <trkpt lat="43.58419" lon="1.43603">
        <ele>198.516222</ele>
        <time>2023-01-04T09:44:49.047Z</time>
      </trkpt>
      <trkpt lat="43.58418" lon="1.43618">
        <ele>198.498707</ele>
        <time>2023-01-04T09:44:52.040Z</time>
      </trkpt>
      <trkpt lat="43.58417" lon="1.43632">
        <ele>198.482949</ele>
        <time>2023-01-04T09:44:55.042Z</time>
      </trkpt>
      <trkpt lat="43.58417" lon="1.43646">
        <ele>198.466936</ele>
        <time>2023-01-04T09:44:58.047Z</time>
      </trkpt>
      <trkpt lat="43.58416" lon="1.4366">
        <ele>198.451225</ele>
        <time>2023-01-04T09:45:01.067Z</time>
      </trkpt>
      <trkpt lat="43.58415" lon="1.43672">
        <ele>198.437021</ele>
        <time>2023-01-04T09:45:04.044Z</time>
      </trkpt>
      <trkpt lat="43.58413" lon="1.43688">
        <ele>198.418931</ele>
        <time>2023-01-04T09:45:08.046Z</time>
      </trkpt>
      <trkpt lat="43.58412" lon="1.43704">
        <ele>198.401144</ele>
        <time>2023-01-04T09:45:12.041Z</time>
      </trkpt>
      <trkpt lat="43.58412" lon="1.43716">
        <ele>198.386988</ele>
        <time>2023-01-04T09:45:15.047Z</time>
      </trkpt>
      <trkpt lat="43.58412" lon="1.43729">
        <ele>198.372269</ele>
        <time>2023-01-04T09:45:18.043Z</time>
      </trkpt>
      <trkpt lat="43.58412" lon="1.43744">
        <ele>198.355256</ele>
        <time>2023-01-04T09:45:22.045Z</time>
      </trkpt>
      <trkpt lat="43.58412" lon="1.43757">
        <ele>198.339738</ele>
        <time>2023-01-04T09:45:25.040Z</time>
      </trkpt>
      <trkpt lat="43.58411" lon="1.43773">
        <ele>198.321562</ele>
        <time>2023-01-04T09:45:28.037Z</time>
      </trkpt>
      <trkpt lat="43.58411" lon="1.4379">
        <ele>198.302569</ele>
        <time>2023-01-04T09:45:31.050Z</time>
      </trkpt>
      <trkpt lat="43.5841" lon="1.43807">
        <ele>198.28312</ele>
        <time>2023-01-04T09:45:34.056Z</time>
      </trkpt>
      <trkpt lat="43.58409" lon="1.43823">
        <ele>198.376707</ele>
        <time>2023-01-04T09:45:37.027Z</time>
      </trkpt>
      <trkpt lat="43.58409" lon="1.43839">
        <ele>198.473348</ele>
        <time>2023-01-04T09:45:40.048Z</time>
      </trkpt>
      <trkpt lat="43.58408" lon="1.43852">
        <ele>198.560021</ele>
        <time>2023-01-04T09:45:43.045Z</time>
      </trkpt>
      <trkpt lat="43.58408" lon="1.43865">
        <ele>198.643371</ele>
        <time>2023-01-04T09:45:46.029Z</time>
      </trkpt>
      <trkpt lat="43.58407" lon="1.43879">
        <ele>198.729637</ele>
        <time>2023-01-04T09:45:49.044Z</time>
      </trkpt>
      <trkpt lat="43.58406" lon="1.43895">
        <ele>198.832438</ele>
        <time>2023-01-04T09:45:53.044Z</time>
      </trkpt>
      <trkpt lat="43.58405" lon="1.43909">
        <ele>198.923411</ele>
        <time>2023-01-04T09:45:57.049Z</time>
      </trkpt>
      <trkpt lat="43.58404" lon="1.43942">
        <ele>199.134819</ele>
        <time>2023-01-04T09:47:12.055Z</time>
      </trkpt>
      <trkpt lat="43.58403" lon="1.43959">
        <ele>199.239519</ele>
        <time>2023-01-04T09:47:16.036Z</time>
      </trkpt>
      <trkpt lat="43.58403" lon="1.43971">
        <ele>199.318981</ele>
        <time>2023-01-04T09:47:20.030Z</time>
      </trkpt>
      <trkpt lat="43.58402" lon="1.43985">
        <ele>199.407337</ele>
        <time>2023-01-04T09:47:24.052Z</time>
      </trkpt>
      <trkpt lat="43.58402" lon="1.44">
        <ele>199.499517</ele>
        <time>2023-01-04T09:47:28.033Z</time>
      </trkpt>
      <trkpt lat="43.58402" lon="1.44013">
        <ele>199.582232</ele>
        <time>2023-01-04T09:47:31.031Z</time>
      </trkpt>
      <trkpt lat="43.58401" lon="1.44027">
        <ele>199.673978</ele>
        <time>2023-01-04T09:47:34.037Z</time>
      </trkpt>
      <trkpt lat="43.584" lon="1.44043">
        <ele>199.776327</ele>
        <time>2023-01-04T09:47:37.023Z</time>
      </trkpt>
      <trkpt lat="43.58399" lon="1.44056">
        <ele>199.857541</ele>
        <time>2023-01-04T09:47:40.030Z</time>
      </trkpt>
      <trkpt lat="43.58398" lon="1.44069">
        <ele>199.79142</ele>
        <time>2023-01-04T09:47:43.036Z</time>
      </trkpt>
      <trkpt lat="43.58398" lon="1.44085">
        <ele>199.706863</ele>
        <time>2023-01-04T09:47:47.036Z</time>
      </trkpt>
      <trkpt lat="43.58398" lon="1.44101">
        <ele>199.626352</ele>
        <time>2023-01-04T09:47:51.035Z</time>
      </trkpt>
      <trkpt lat="43.58397" lon="1.44117">
        <ele>199.541698</ele>
        <time>2023-01-04T09:47:55.029Z</time>
      </trkpt>
      <trkpt lat="43.58397" lon="1.44132">
        <ele>199.464813</ele>
        <time>2023-01-04T09:47:59.024Z</time>
      </trkpt>
      <trkpt lat="43.58396" lon="1.44148">
        <ele>199.383066</ele>
        <time>2023-01-04T09:48:03.027Z</time>
      </trkpt>
      <trkpt lat="43.58395" lon="1.44162">
        <ele>199.310615</ele>
        <time>2023-01-04T09:48:08.058Z</time>
      </trkpt>
      <trkpt lat="43.58394" lon="1.44177">
        <ele>199.229131</ele>
        <time>2023-01-04T09:48:12.050Z</time>
      </trkpt>
      <trkpt lat="43.58393" lon="1.44191">
        <ele>199.155714</ele>
        <time>2023-01-04T09:48:15.052Z</time>
      </trkpt>
      <trkpt lat="43.58392" lon="1.44206">
        <ele>199.081322</ele>
        <time>2023-01-04T09:48:18.047Z</time>
      </trkpt>
      <trkpt lat="43.58392" lon="1.44218">
        <ele>199.016234</ele>
        <time>2023-01-04T09:48:21.032Z</time>
      </trkpt>
      <trkpt lat="43.58391" lon="1.44234">
        <ele>198.936795</ele>
        <time>2023-01-04T09:48:25.055Z</time>
      </trkpt>
      <trkpt lat="43.58391" lon="1.44248">
        <ele>198.864123</ele>
        <time>2023-01-04T09:48:30.026Z</time>
      </trkpt>
      <trkpt lat="43.58389" lon="1.44262">
        <ele>198.788249</ele>
        <time>2023-01-04T09:48:35.027Z</time>
      </trkpt>
      <trkpt lat="43.58389" lon="1.44278">
        <ele>198.70785</ele>
        <time>2023-01-04T09:48:39.037Z</time>
      </trkpt>
      <trkpt lat="43.58389" lon="1.44292">
        <ele>198.631957</ele>
        <time>2023-01-04T09:48:42.031Z</time>
      </trkpt>
      <trkpt lat="43.58388" lon="1.44307">
        <ele>198.557623</ele>
        <time>2023-01-04T09:48:45.034Z</time>
      </trkpt>
      <trkpt lat="43.58388" lon="1.44322">
        <ele>198.492994</ele>
        <time>2023-01-04T09:48:48.028Z</time>
      </trkpt>
      <trkpt lat="43.58386" lon="1.44336">
        <ele>198.426802</ele>
        <time>2023-01-04T09:48:51.036Z</time>
      </trkpt>
      <trkpt lat="43.58385" lon="1.44352">
        <ele>198.356964</ele>
        <time>2023-01-04T09:48:54.039Z</time>
      </trkpt>
      <trkpt lat="43.58385" lon="1.44365">
        <ele>198.299871</ele>
        <time>2023-01-04T09:48:57.038Z</time>
      </trkpt>
      <trkpt lat="43.58387" lon="1.4438">
        <ele>198.232351</ele>
        <time>2023-01-04T09:49:02.029Z</time>
      </trkpt>
      <trkpt lat="43.58388" lon="1.44393">
        <ele>198.174574</ele>
        <time>2023-01-04T09:49:06.038Z</time>
      </trkpt>
      <trkpt lat="43.58387" lon="1.44406">
        <ele>198.117886</ele>
        <time>2023-01-04T09:49:09.038Z</time>
      </trkpt>
      <trkpt lat="43.58389" lon="1.4442">
        <ele>198.052651</ele>
        <time>2023-01-04T09:49:12.035Z</time>
      </trkpt>
      <trkpt lat="43.58392" lon="1.44436">
        <ele>197.981159</ele>
        <time>2023-01-04T09:49:15.025Z</time>
      </trkpt>
      <trkpt lat="43.58394" lon="1.44451">
        <ele>197.913753</ele>
        <time>2023-01-04T09:49:18.046Z</time>
      </trkpt>
      <trkpt lat="43.58396" lon="1.44466">
        <ele>197.847101</ele>
        <time>2023-01-04T09:49:21.039Z</time>
      </trkpt>
      <trkpt lat="43.58398" lon="1.44481">
        <ele>197.779802</ele>
        <time>2023-01-04T09:49:24.033Z</time>
      </trkpt>
      <trkpt lat="43.584" lon="1.44496">
        <ele>197.709732</ele>
        <time>2023-01-04T09:49:27.040Z</time>
      </trkpt>
      <trkpt lat="43.58402" lon="1.44511">
        <ele>197.643826</ele>
        <time>2023-01-04T09:49:31.049Z</time>
      </trkpt>
      <trkpt lat="43.58404" lon="1.44524">
        <ele>197.585971</ele>
        <time>2023-01-04T09:49:34.034Z</time>
      </trkpt>
      <trkpt lat="43.58405" lon="1.44537">
        <ele>197.527554</ele>
        <time>2023-01-04T09:49:37.048Z</time>
      </trkpt>
      <trkpt lat="43.58406" lon="1.44553">
        <ele>197.461095</ele>
        <time>2023-01-04T09:49:41.025Z</time>
      </trkpt>
      <trkpt lat="43.58409" lon="1.44567">
        <ele>197.409141</ele>
        <time>2023-01-04T09:49:44.029Z</time>
      </trkpt>
      <trkpt lat="43.58411" lon="1.44579">
        <ele>197.362776</ele>
        <time>2023-01-04T09:49:47.029Z</time>
      </trkpt>
      <trkpt lat="43.58414" lon="1.44595">
        <ele>197.30318</ele>
        <time>2023-01-04T09:49:51.039Z</time>
      </trkpt>
      <trkpt lat="43.58416" lon="1.44608">
        <ele>197.255465</ele>
        <time>2023-01-04T09:49:54.040Z</time>
      </trkpt>
      <trkpt lat="43.58418" lon="1.44621">
        <ele>197.206604</ele>
        <time>2023-01-04T09:49:57.043Z</time>
      </trkpt>
      <trkpt lat="43.5842" lon="1.44636">
        <ele>197.153746</ele>
        <time>2023-01-04T09:50:00.027Z</time>
      </trkpt>
      <trkpt lat="43.58421" lon="1.44653">
        <ele>197.093063</ele>
        <time>2023-01-04T09:50:03.026Z</time>
      </trkpt>
      <trkpt lat="43.58423" lon="1.44668">
        <ele>197.037745</ele>
        <time>2023-01-04T09:50:06.054Z</time>
      </trkpt>
      <trkpt lat="43.58425" lon="1.44683">
        <ele>196.982677</ele>
        <time>2023-01-04T09:50:09.038Z</time>
      </trkpt>
      <trkpt lat="43.58427" lon="1.44698">
        <ele>196.929358</ele>
        <time>2023-01-04T09:50:12.038Z</time>
      </trkpt>
      <trkpt lat="43.58428" lon="1.44712">
        <ele>196.875684</ele>
        <time>2023-01-04T09:50:15.053Z</time>
      </trkpt>
      <trkpt lat="43.5843" lon="1.44726">
        <ele>196.825406</ele>
        <time>2023-01-04T09:50:18.037Z</time>
      </trkpt>
      <trkpt lat="43.58431" lon="1.44739">
        <ele>196.778202</ele>
        <time>2023-01-04T09:50:21.035Z</time>
      </trkpt>
      <trkpt lat="43.58433" lon="1.44752">
        <ele>196.732964</ele>
        <time>2023-01-04T09:50:24.054Z</time>
      </trkpt>
      <trkpt lat="43.58434" lon="1.44765">
        <ele>196.683922</ele>
        <time>2023-01-04T09:50:27.039Z</time>
      </trkpt>
      <trkpt lat="43.58434" lon="1.4478">
        <ele>196.630386</ele>
        <time>2023-01-04T09:50:30.057Z</time>
      </trkpt>
      <trkpt lat="43.58431" lon="1.44795">
        <ele>196.570126</ele>
        <time>2023-01-04T09:50:33.051Z</time>
      </trkpt>
      <trkpt lat="43.58428" lon="1.4481">
        <ele>196.472895</ele>
        <time>2023-01-04T09:50:36.033Z</time>
      </trkpt>
      <trkpt lat="43.58426" lon="1.44826">
        <ele>196.372754</ele>
        <time>2023-01-04T09:50:39.034Z</time>
      </trkpt>
      <trkpt lat="43.58424" lon="1.44842">
        <ele>196.271697</ele>
        <time>2023-01-04T09:50:42.036Z</time>
      </trkpt>
      <trkpt lat="43.58421" lon="1.44855">
        <ele>196.182695</ele>
        <time>2023-01-04T09:50:44.028Z</time>
      </trkpt>
      <trkpt lat="43.58418" lon="1.44873">
        <ele>196.068749</ele>
        <time>2023-01-04T09:50:47.038Z</time>
      </trkpt>
      <trkpt lat="43.58414" lon="1.4489">
        <ele>195.960986</ele>
        <time>2023-01-04T09:50:50.028Z</time>
      </trkpt>
      <trkpt lat="43.5841" lon="1.44907">
        <ele>195.847748</ele>
        <time>2023-01-04T09:50:53.035Z</time>
      </trkpt>
      <trkpt lat="43.58405" lon="1.44924">
        <ele>195.732647</ele>
        <time>2023-01-04T09:50:56.032Z</time>
      </trkpt>
      <trkpt lat="43.58402" lon="1.44936">
        <ele>195.652534</ele>
        <time>2023-01-04T09:50:58.027Z</time>
      </trkpt>
      <trkpt lat="43.58398" lon="1.44948">
        <ele>195.57136</ele>
        <time>2023-01-04T09:51:00.038Z</time>
      </trkpt>
      <trkpt lat="43.58395" lon="1.44961">
        <ele>195.488529</ele>
        <time>2023-01-04T09:51:02.026Z</time>
      </trkpt>
      <trkpt lat="43.58391" lon="1.44973">
        <ele>195.403955</ele>
        <time>2023-01-04T09:51:04.036Z</time>
      </trkpt>
      <trkpt lat="43.58387" lon="1.44986">
        <ele>195.318098</ele>
        <time>2023-01-04T09:51:06.026Z</time>
      </trkpt>
      <trkpt lat="43.58383" lon="1.44998">
        <ele>195.237572</ele>
        <time>2023-01-04T09:51:08.047Z</time>
      </trkpt>
      <trkpt lat="43.5838" lon="1.4501">
        <ele>195.155055</ele>
        <time>2023-01-04T09:51:10.033Z</time>
      </trkpt>
      <trkpt lat="43.58375" lon="1.45026">
        <ele>195.044417</ele>
        <time>2023-01-04T09:51:13.037Z</time>
      </trkpt>
      <trkpt lat="43.58371" lon="1.45037">
        <ele>194.993058</ele>
        <time>2023-01-04T09:51:15.032Z</time>
      </trkpt>
      <trkpt lat="43.58367" lon="1.45053">
        <ele>194.9284</ele>
        <time>2023-01-04T09:51:18.030Z</time>
      </trkpt>
      <trkpt lat="43.58365" lon="1.45069">
        <ele>194.866726</ele>
        <time>2023-01-04T09:51:21.033Z</time>
      </trkpt>
      <trkpt lat="43.58366" lon="1.45085">
        <ele>194.803676</ele>
        <time>2023-01-04T09:51:24.023Z</time>
      </trkpt>
      <trkpt lat="43.58371" lon="1.45099">
        <ele>194.740943</ele>
        <time>2023-01-04T09:51:27.037Z</time>
      </trkpt>
      <trkpt lat="43.58379" lon="1.45114">
        <ele>194.6692</ele>
        <time>2023-01-04T09:51:30.037Z</time>
      </trkpt>
      <trkpt lat="43.58386" lon="1.45129">
        <ele>194.600404</ele>
        <time>2023-01-04T09:51:33.057Z</time>
      </trkpt>
      <trkpt lat="43.58391" lon="1.4514">
        <ele>194.551838</ele>
        <time>2023-01-04T09:51:35.039Z</time>
      </trkpt>
      <trkpt lat="43.58395" lon="1.45151">
        <ele>194.50284</ele>
        <time>2023-01-04T09:51:37.056Z</time>
      </trkpt>
      <trkpt lat="43.584" lon="1.45161">
        <ele>194.453744</ele>
        <time>2023-01-04T09:51:39.059Z</time>
      </trkpt>
      <trkpt lat="43.58404" lon="1.45174">
        <ele>194.401317</ele>
        <time>2023-01-04T09:51:42.041Z</time>
      </trkpt>
      <trkpt lat="43.5841" lon="1.45187">
        <ele>194.340114</ele>
        <time>2023-01-04T09:51:45.057Z</time>
      </trkpt>
      <trkpt lat="43.58416" lon="1.45201">
        <ele>194.278341</ele>
        <time>2023-01-04T09:51:48.025Z</time>
      </trkpt>
      <trkpt lat="43.58423" lon="1.45215">
        <ele>194.212465</ele>
        <time>2023-01-04T09:51:51.037Z</time>
      </trkpt>
      <trkpt lat="43.58428" lon="1.45229">
        <ele>194.150072</ele>
        <time>2023-01-04T09:51:54.046Z</time>
      </trkpt>
      <trkpt lat="43.58433" lon="1.45241">
        <ele>194.096293</ele>
        <time>2023-01-04T09:51:56.051Z</time>
      </trkpt>
      <trkpt lat="43.5844" lon="1.45257">
        <ele>194.015693</ele>
        <time>2023-01-04T09:51:59.052Z</time>
      </trkpt>
      <trkpt lat="43.58444" lon="1.45268">
        <ele>193.95571</ele>
        <time>2023-01-04T09:52:01.050Z</time>
      </trkpt>
      <trkpt lat="43.5845" lon="1.45284">
        <ele>193.873368</ele>
        <time>2023-01-04T09:52:04.040Z</time>
      </trkpt>
      <trkpt lat="43.58456" lon="1.45299">
        <ele>193.796247</ele>
        <time>2023-01-04T09:52:07.030Z</time>
      </trkpt>
      <trkpt lat="43.58461" lon="1.4531">
        <ele>193.734934</ele>
        <time>2023-01-04T09:52:09.036Z</time>
      </trkpt>
      <trkpt lat="43.58465" lon="1.45322">
        <ele>193.67161</ele>
        <time>2023-01-04T09:52:11.035Z</time>
      </trkpt>
      <trkpt lat="43.58471" lon="1.45334">
        <ele>193.610119</ele>
        <time>2023-01-04T09:52:13.030Z</time>
      </trkpt>
      <trkpt lat="43.58476" lon="1.45345">
        <ele>193.548657</ele>
        <time>2023-01-04T09:52:15.035Z</time>
      </trkpt>
      <trkpt lat="43.58481" lon="1.45356">
        <ele>193.489105</ele>
        <time>2023-01-04T09:52:17.037Z</time>
      </trkpt>
      <trkpt lat="43.58485" lon="1.45367">
        <ele>193.431477</ele>
        <time>2023-01-04T09:52:19.040Z</time>
      </trkpt>
      <trkpt lat="43.58489" lon="1.45378">
        <ele>193.373255</ele>
        <time>2023-01-04T09:52:21.050Z</time>
      </trkpt>
      <trkpt lat="43.58496" lon="1.45392">
        <ele>193.294577</ele>
        <time>2023-01-04T09:52:24.052Z</time>
      </trkpt>
      <trkpt lat="43.58502" lon="1.45407">
        <ele>193.216767</ele>
        <time>2023-01-04T09:52:27.047Z</time>
      </trkpt>
      <trkpt lat="43.58508" lon="1.4542">
        <ele>193.143444</ele>
        <time>2023-01-04T09:52:30.045Z</time>
      </trkpt>
      <trkpt lat="43.58513" lon="1.45435">
        <ele>193.069018</ele>
        <time>2023-01-04T09:52:33.054Z</time>
      </trkpt>
      <trkpt lat="43.58519" lon="1.45451">
        <ele>192.984736</ele>
        <time>2023-01-04T09:52:36.056Z</time>
      </trkpt>
      <trkpt lat="43.58524" lon="1.45466">
        <ele>192.9419</ele>
        <time>2023-01-04T09:52:39.037Z</time>
      </trkpt>
      <trkpt lat="43.5853" lon="1.45481">
        <ele>193.041668</ele>
        <time>2023-01-04T09:52:42.057Z</time>
      </trkpt>
      <trkpt lat="43.58537" lon="1.45493">
        <ele>193.129038</ele>
        <time>2023-01-04T09:52:44.042Z</time>
      </trkpt>
      <trkpt lat="43.58542" lon="1.45504">
        <ele>193.205938</ele>
        <time>2023-01-04T09:52:46.034Z</time>
      </trkpt>
      <trkpt lat="43.58548" lon="1.45521">
        <ele>193.317817</ele>
        <time>2023-01-04T09:52:49.044Z</time>
      </trkpt>
      <trkpt lat="43.58553" lon="1.45533">
        <ele>193.395252</ele>
        <time>2023-01-04T09:52:51.040Z</time>
      </trkpt>
      <trkpt lat="43.58559" lon="1.45545">
        <ele>193.474994</ele>
        <time>2023-01-04T09:52:53.037Z</time>
      </trkpt>
      <trkpt lat="43.58564" lon="1.45556">
        <ele>193.552397</ele>
        <time>2023-01-04T09:52:55.029Z</time>
      </trkpt>
      <trkpt lat="43.58569" lon="1.45568">
        <ele>193.633182</ele>
        <time>2023-01-04T09:52:57.041Z</time>
      </trkpt>
      <trkpt lat="43.58576" lon="1.45585">
        <ele>193.746612</ele>
        <time>2023-01-04T09:53:00.037Z</time>
      </trkpt>
      <trkpt lat="43.58581" lon="1.45602">
        <ele>193.850478</ele>
        <time>2023-01-04T09:53:03.032Z</time>
      </trkpt>
      <trkpt lat="43.58588" lon="1.45617">
        <ele>193.952251</ele>
        <time>2023-01-04T09:53:06.032Z</time>
      </trkpt>
      <trkpt lat="43.58594" lon="1.45633">
        <ele>194.057308</ele>
        <time>2023-01-04T09:53:09.024Z</time>
      </trkpt>
      <trkpt lat="43.58601" lon="1.4565">
        <ele>194.16632</ele>
        <time>2023-01-04T09:53:12.030Z</time>
      </trkpt>
      <trkpt lat="43.58607" lon="1.45666">
        <ele>194.274547</ele>
        <time>2023-01-04T09:53:15.032Z</time>
      </trkpt>
      <trkpt lat="43.58612" lon="1.45682">
        <ele>194.370593</ele>
        <time>2023-01-04T09:53:18.036Z</time>
      </trkpt>
      <trkpt lat="43.58619" lon="1.45696">
        <ele>194.461362</ele>
        <time>2023-01-04T09:53:21.037Z</time>
      </trkpt>
      <trkpt lat="43.58624" lon="1.45707">
        <ele>194.528912</ele>
        <time>2023-01-04T09:53:23.033Z</time>
      </trkpt>
      <trkpt lat="43.5863" lon="1.45721">
        <ele>194.616792</ele>
        <time>2023-01-04T09:53:26.039Z</time>
      </trkpt>
      <trkpt lat="43.58637" lon="1.45736">
        <ele>194.710411</ele>
        <time>2023-01-04T09:53:30.030Z</time>
      </trkpt>
      <trkpt lat="43.58642" lon="1.4575">
        <ele>194.794737</ele>
        <time>2023-01-04T09:53:33.047Z</time>
      </trkpt>
      <trkpt lat="43.58648" lon="1.45764">
        <ele>194.879431</ele>
        <time>2023-01-04T09:53:36.031Z</time>
      </trkpt>
      <trkpt lat="43.58653" lon="1.45778">
        <ele>194.963756</ele>
        <time>2023-01-04T09:53:39.029Z</time>
      </trkpt>
      <trkpt lat="43.58659" lon="1.45792">
        <ele>195.051022</ele>
        <time>2023-01-04T09:53:42.031Z</time>
      </trkpt>
      <trkpt lat="43.58665" lon="1.45806">
        <ele>195.135936</ele>
        <time>2023-01-04T09:53:45.050Z</time>
      </trkpt>
      <trkpt lat="43.5867" lon="1.45818">
        <ele>195.208963</ele>
        <time>2023-01-04T09:53:48.049Z</time>
      </trkpt>
      <trkpt lat="43.58676" lon="1.45833">
        <ele>195.298288</ele>
        <time>2023-01-04T09:53:52.032Z</time>
      </trkpt>
      <trkpt lat="43.58682" lon="1.45845">
        <ele>195.37676</ele>
        <time>2023-01-04T09:53:55.030Z</time>
      </trkpt>
      <trkpt lat="43.58687" lon="1.45858">
        <ele>195.457135</ele>
        <time>2023-01-04T09:53:58.047Z</time>
      </trkpt>
      <trkpt lat="43.58693" lon="1.45873">
        <ele>195.548094</ele>
        <time>2023-01-04T09:54:01.058Z</time>
      </trkpt>
      <trkpt lat="43.587" lon="1.45888">
        <ele>195.641641</ele>
        <time>2023-01-04T09:54:04.027Z</time>
      </trkpt>
      <trkpt lat="43.58705" lon="1.45903">
        <ele>195.874556</ele>
        <time>2023-01-04T09:54:07.034Z</time>
      </trkpt>
      <trkpt lat="43.5871" lon="1.45917">
        <ele>196.160936</ele>
        <time>2023-01-04T09:54:10.036Z</time>
      </trkpt>
      <trkpt lat="43.58715" lon="1.4593">
        <ele>196.434711</ele>
        <time>2023-01-04T09:54:13.032Z</time>
      </trkpt>
      <trkpt lat="43.5872" lon="1.45941">
        <ele>196.668285</ele>
        <time>2023-01-04T09:54:16.048Z</time>
      </trkpt>
      <trkpt lat="43.58725" lon="1.45956">
        <ele>196.974939</ele>
        <time>2023-01-04T09:54:20.048Z</time>
      </trkpt>
      <trkpt lat="43.58731" lon="1.4597">
        <ele>197.281331</ele>
        <time>2023-01-04T09:54:24.049Z</time>
      </trkpt>
      <trkpt lat="43.58737" lon="1.45985">
        <ele>197.587884</ele>
        <time>2023-01-04T09:54:28.041Z</time>
      </trkpt>
      <trkpt lat="43.58743" lon="1.45998">
        <ele>197.889701</ele>
        <time>2023-01-04T09:54:32.056Z</time>
      </trkpt>
      <trkpt lat="43.58749" lon="1.46011">
        <ele>198.165217</ele>
        <time>2023-01-04T09:54:36.054Z</time>
      </trkpt>
      <trkpt lat="43.58753" lon="1.46022">
        <ele>198.400014</ele>
        <time>2023-01-04T09:54:40.030Z</time>
      </trkpt>
      <trkpt lat="43.58745" lon="1.46033">
        <ele>198.672404</ele>
        <time>2023-01-04T09:54:45.030Z</time>
      </trkpt>
      <trkpt lat="43.58733" lon="1.46035">
        <ele>198.983932</ele>
        <time>2023-01-04T09:54:49.038Z</time>
      </trkpt>
      <trkpt lat="43.58724" lon="1.46036">
        <ele>199.212798</ele>
        <time>2023-01-04T09:54:52.029Z</time>
      </trkpt>
      <trkpt lat="43.58713" lon="1.46041">
        <ele>199.515966</ele>
        <time>2023-01-04T09:54:56.035Z</time>
      </trkpt>
      <trkpt lat="43.58704" lon="1.46046">
        <ele>199.760303</ele>
        <time>2023-01-04T09:55:00.059Z</time>
      </trkpt>
      <trkpt lat="43.58694" lon="1.46049">
        <ele>200.021131</ele>
        <time>2023-01-04T09:55:03.050Z</time>
      </trkpt>
      <trkpt lat="43.58683" lon="1.46052">
        <ele>200.247472</ele>
        <time>2023-01-04T09:55:06.030Z</time>
      </trkpt>
      <trkpt lat="43.58671" lon="1.46057">
        <ele>200.121404</ele>
        <time>2023-01-04T09:55:09.066Z</time>
      </trkpt>
      <trkpt lat="43.5866" lon="1.46062">
        <ele>200.002419</ele>
        <time>2023-01-04T09:55:12.024Z</time>
      </trkpt>
      <trkpt lat="43.58649" lon="1.46066">
        <ele>199.886697</ele>
        <time>2023-01-04T09:55:15.037Z</time>
      </trkpt>
      <trkpt lat="43.58637" lon="1.46071">
        <ele>199.767826</ele>
        <time>2023-01-04T09:55:18.057Z</time>
      </trkpt>
      <trkpt lat="43.58625" lon="1.46077">
        <ele>199.644998</ele>
        <time>2023-01-04T09:55:21.059Z</time>
      </trkpt>
      <trkpt lat="43.58613" lon="1.46081">
        <ele>199.520082</ele>
        <time>2023-01-04T09:55:24.051Z</time>
      </trkpt>
      <trkpt lat="43.58601" lon="1.46086">
        <ele>199.393441</ele>
        <time>2023-01-04T09:55:27.051Z</time>
      </trkpt>
      <trkpt lat="43.58589" lon="1.46091">
        <ele>199.270776</ele>
        <time>2023-01-04T09:55:30.034Z</time>
      </trkpt>
      <trkpt lat="43.58577" lon="1.46096">
        <ele>199.142029</ele>
        <time>2023-01-04T09:55:33.028Z</time>
      </trkpt>
      <trkpt lat="43.58565" lon="1.46099">
        <ele>199.022904</ele>
        <time>2023-01-04T09:55:36.041Z</time>
      </trkpt>
      <trkpt lat="43.58553" lon="1.46105">
        <ele>198.900755</ele>
        <time>2023-01-04T09:55:39.036Z</time>
      </trkpt>
      <trkpt lat="43.58542" lon="1.46109">
        <ele>198.781567</ele>
        <time>2023-01-04T09:55:42.038Z</time>
      </trkpt>
      <trkpt lat="43.5853" lon="1.46113">
        <ele>198.663533</ele>
        <time>2023-01-04T09:55:45.044Z</time>
      </trkpt>
      <trkpt lat="43.58519" lon="1.46118">
        <ele>198.540868</ele>
        <time>2023-01-04T09:55:48.059Z</time>
      </trkpt>
      <trkpt lat="43.58506" lon="1.46123">
        <ele>198.470009</ele>
        <time>2023-01-04T09:55:51.033Z</time>
      </trkpt>
      <trkpt lat="43.58493" lon="1.46128">
        <ele>198.463377</ele>
        <time>2023-01-04T09:55:54.036Z</time>
      </trkpt>
      <trkpt lat="43.58482" lon="1.46133">
        <ele>198.457455</ele>
        <time>2023-01-04T09:55:57.033Z</time>
      </trkpt>
      <trkpt lat="43.58472" lon="1.46137">
        <ele>198.45262</ele>
        <time>2023-01-04T09:56:00.044Z</time>
      </trkpt>
      <trkpt lat="43.58463" lon="1.46141">
        <ele>198.447624</ele>
        <time>2023-01-04T09:56:03.036Z</time>
      </trkpt>
      <trkpt lat="43.58452" lon="1.46146">
        <ele>198.442025</ele>
        <time>2023-01-04T09:56:06.056Z</time>
      </trkpt>
      <trkpt lat="43.58442" lon="1.4615">
        <ele>198.436803</ele>
        <time>2023-01-04T09:56:09.056Z</time>
      </trkpt>
      <trkpt lat="43.58433" lon="1.46154">
        <ele>198.431796</ele>
        <time>2023-01-04T09:56:12.031Z</time>
      </trkpt>
      <trkpt lat="43.58422" lon="1.46159">
        <ele>198.426022</ele>
        <time>2023-01-04T09:56:15.058Z</time>
      </trkpt>
      <trkpt lat="43.5841" lon="1.46164">
        <ele>198.42013</ele>
        <time>2023-01-04T09:56:18.044Z</time>
      </trkpt>
      <trkpt lat="43.58398" lon="1.46171">
        <ele>198.413717</ele>
        <time>2023-01-04T09:56:21.034Z</time>
      </trkpt>
      <trkpt lat="43.5839" lon="1.46175">
        <ele>198.409109</ele>
        <time>2023-01-04T09:56:23.049Z</time>
      </trkpt>
      <trkpt lat="43.58377" lon="1.46181">
        <ele>198.402522</ele>
        <time>2023-01-04T09:56:26.053Z</time>
      </trkpt>
      <trkpt lat="43.58365" lon="1.46186">
        <ele>198.396235</ele>
        <time>2023-01-04T09:56:29.050Z</time>
      </trkpt>
      <trkpt lat="43.58353" lon="1.46191">
        <ele>198.389767</ele>
        <time>2023-01-04T09:56:32.056Z</time>
      </trkpt>
      <trkpt lat="43.58342" lon="1.46197">
        <ele>198.38384</ele>
        <time>2023-01-04T09:56:35.035Z</time>
      </trkpt>
      <trkpt lat="43.58331" lon="1.462">
        <ele>198.476733</ele>
        <time>2023-01-04T09:56:38.038Z</time>
      </trkpt>
      <trkpt lat="43.58321" lon="1.46205">
        <ele>198.579629</ele>
        <time>2023-01-04T09:56:41.045Z</time>
      </trkpt>
      <trkpt lat="43.5831" lon="1.46212">
        <ele>198.693444</ele>
        <time>2023-01-04T09:56:44.044Z</time>
      </trkpt>
      <trkpt lat="43.58298" lon="1.46219">
        <ele>198.814464</ele>
        <time>2023-01-04T09:56:47.055Z</time>
      </trkpt>
      <trkpt lat="43.58289" lon="1.46224">
        <ele>198.900885</ele>
        <time>2023-01-04T09:56:49.061Z</time>
      </trkpt>
      <trkpt lat="43.58278" lon="1.4623">
        <ele>199.018174</ele>
        <time>2023-01-04T09:56:52.035Z</time>
      </trkpt>
      <trkpt lat="43.58266" lon="1.46236">
        <ele>199.134336</ele>
        <time>2023-01-04T09:56:55.033Z</time>
      </trkpt>
      <trkpt lat="43.58255" lon="1.46243">
        <ele>199.247901</ele>
        <time>2023-01-04T09:56:58.038Z</time>
      </trkpt>
      <trkpt lat="43.58246" lon="1.46248">
        <ele>199.341683</ele>
        <time>2023-01-04T09:57:00.034Z</time>
      </trkpt>
      <trkpt lat="43.58234" lon="1.46255">
        <ele>199.464631</ele>
        <time>2023-01-04T09:57:03.047Z</time>
      </trkpt>
      <trkpt lat="43.58222" lon="1.46263">
        <ele>199.592393</ele>
        <time>2023-01-04T09:57:06.039Z</time>
      </trkpt>
      <trkpt lat="43.58213" lon="1.46268">
        <ele>199.679463</ele>
        <time>2023-01-04T09:57:08.033Z</time>
      </trkpt>
      <trkpt lat="43.58201" lon="1.46275">
        <ele>199.801875</ele>
        <time>2023-01-04T09:57:11.046Z</time>
      </trkpt>
      <trkpt lat="43.58189" lon="1.46282">
        <ele>199.925001</ele>
        <time>2023-01-04T09:57:14.053Z</time>
      </trkpt>
      <trkpt lat="43.58177" lon="1.46288">
        <ele>200.04252</ele>
        <time>2023-01-04T09:57:17.057Z</time>
      </trkpt>
      <trkpt lat="43.58168" lon="1.46293">
        <ele>200.099102</ele>
        <time>2023-01-04T09:57:20.031Z</time>
      </trkpt>
      <trkpt lat="43.58159" lon="1.463">
        <ele>200.138491</ele>
        <time>2023-01-04T09:57:24.033Z</time>
      </trkpt>
      <trkpt lat="43.58148" lon="1.46303">
        <ele>200.180143</ele>
        <time>2023-01-04T09:57:29.039Z</time>
      </trkpt>
      <trkpt lat="43.58141" lon="1.4631">
        <ele>200.214528</ele>
        <time>2023-01-04T09:57:45.050Z</time>
      </trkpt>
      <trkpt lat="43.5813" lon="1.4632">
        <ele>200.262451</ele>
        <time>2023-01-04T09:58:14.030Z</time>
      </trkpt>
      <trkpt lat="43.5812" lon="1.46328">
        <ele>200.307122</ele>
        <time>2023-01-04T09:58:18.031Z</time>
      </trkpt>
      <trkpt lat="43.58112" lon="1.46338">
        <ele>200.347793</ele>
        <time>2023-01-04T09:58:21.050Z</time>
      </trkpt>
      <trkpt lat="43.58103" lon="1.46347">
        <ele>200.39028</ele>
        <time>2023-01-04T09:58:24.024Z</time>
      </trkpt>
      <trkpt lat="43.58093" lon="1.46356">
        <ele>200.433885</ele>
        <time>2023-01-04T09:58:27.025Z</time>
      </trkpt>
      <trkpt lat="43.58084" lon="1.46366">
        <ele>200.476696</ele>
        <time>2023-01-04T09:58:30.038Z</time>
      </trkpt>
      <trkpt lat="43.58075" lon="1.46376">
        <ele>200.52195</ele>
        <time>2023-01-04T09:58:33.027Z</time>
      </trkpt>
      <trkpt lat="43.58066" lon="1.46385">
        <ele>200.562621</ele>
        <time>2023-01-04T09:58:36.052Z</time>
      </trkpt>
      <trkpt lat="43.58057" lon="1.46394">
        <ele>200.605109</ele>
        <time>2023-01-04T09:58:39.055Z</time>
      </trkpt>
      <trkpt lat="43.58047" lon="1.46402">
        <ele>200.649275</ele>
        <time>2023-01-04T09:58:42.044Z</time>
      </trkpt>
      <trkpt lat="43.58038" lon="1.46411">
        <ele>200.693486</ele>
        <time>2023-01-04T09:58:45.029Z</time>
      </trkpt>
      <trkpt lat="43.58028" lon="1.46423">
        <ele>200.743482</ele>
        <time>2023-01-04T09:58:48.027Z</time>
      </trkpt>
      <trkpt lat="43.58018" lon="1.46434">
        <ele>200.605969</ele>
        <time>2023-01-04T09:58:51.041Z</time>
      </trkpt>
      <trkpt lat="43.58008" lon="1.46446">
        <ele>200.400126</ele>
        <time>2023-01-04T09:58:54.049Z</time>
      </trkpt>
      <trkpt lat="43.57999" lon="1.46458">
        <ele>200.217841</ele>
        <time>2023-01-04T09:58:57.027Z</time>
      </trkpt>
      <trkpt lat="43.57991" lon="1.46468">
        <ele>200.05219</ele>
        <time>2023-01-04T09:59:00.032Z</time>
      </trkpt>
      <trkpt lat="43.57983" lon="1.46477">
        <ele>199.89888</ele>
        <time>2023-01-04T09:59:03.049Z</time>
      </trkpt>
      <trkpt lat="43.57974" lon="1.46486">
        <ele>199.722187</ele>
        <time>2023-01-04T09:59:06.050Z</time>
      </trkpt>
      <trkpt lat="43.57967" lon="1.46494">
        <ele>199.584356</ele>
        <time>2023-01-04T09:59:22.025Z</time>
      </trkpt>
      <trkpt lat="43.57957" lon="1.46501">
        <ele>199.411951</ele>
        <time>2023-01-04T09:59:27.052Z</time>
      </trkpt>
      <trkpt lat="43.57946" lon="1.4651">
        <ele>199.225074</ele>
        <time>2023-01-04T09:59:30.053Z</time>
      </trkpt>
      <trkpt lat="43.57932" lon="1.4652">
        <ele>198.988471</ele>
        <time>2023-01-04T09:59:33.056Z</time>
      </trkpt>
      <trkpt lat="43.57923" lon="1.46526">
        <ele>198.829095</ele>
        <time>2023-01-04T09:59:35.035Z</time>
      </trkpt>
      <trkpt lat="43.57913" lon="1.46532">
        <ele>198.663756</ele>
        <time>2023-01-04T09:59:37.025Z</time>
      </trkpt>
      <trkpt lat="43.57903" lon="1.46538">
        <ele>198.508349</ele>
        <time>2023-01-04T09:59:39.048Z</time>
      </trkpt>
      <trkpt lat="43.57893" lon="1.46542">
        <ele>198.348984</ele>
        <time>2023-01-04T09:59:41.051Z</time>
      </trkpt>
      <trkpt lat="43.5788" lon="1.46545">
        <ele>198.151893</ele>
        <time>2023-01-04T09:59:44.043Z</time>
      </trkpt>
      <trkpt lat="43.57871" lon="1.4655">
        <ele>198.025927</ele>
        <time>2023-01-04T09:59:46.030Z</time>
      </trkpt>
      <trkpt lat="43.57861" lon="1.46555">
        <ele>198.027642</ele>
        <time>2023-01-04T09:59:48.051Z</time>
      </trkpt>
      <trkpt lat="43.57848" lon="1.4656">
        <ele>198.029949</ele>
        <time>2023-01-04T09:59:51.047Z</time>
      </trkpt>
      <trkpt lat="43.57837" lon="1.46563">
        <ele>198.031698</ele>
        <time>2023-01-04T09:59:53.051Z</time>
      </trkpt>
      <trkpt lat="43.57826" lon="1.46567">
        <ele>198.03365</ele>
        <time>2023-01-04T09:59:55.033Z</time>
      </trkpt>
      <trkpt lat="43.57815" lon="1.4657">
        <ele>198.035328</ele>
        <time>2023-01-04T09:59:57.026Z</time>
      </trkpt>
      <trkpt lat="43.57805" lon="1.46573">
        <ele>198.037018</ele>
        <time>2023-01-04T09:59:59.050Z</time>
      </trkpt>
      <trkpt lat="43.57795" lon="1.46576">
        <ele>198.038673</ele>
        <time>2023-01-04T10:00:01.028Z</time>
      </trkpt>
      <trkpt lat="43.57786" lon="1.46577">
        <ele>198.040174</ele>
        <time>2023-01-04T10:00:03.049Z</time>
      </trkpt>
      <trkpt lat="43.57773" lon="1.46576">
        <ele>198.042277</ele>
        <time>2023-01-04T10:00:06.061Z</time>
      </trkpt>
      <trkpt lat="43.57763" lon="1.46576">
        <ele>198.043988</ele>
        <time>2023-01-04T10:00:08.052Z</time>
      </trkpt>
      <trkpt lat="43.57752" lon="1.46577">
        <ele>198.045782</ele>
        <time>2023-01-04T10:00:10.050Z</time>
      </trkpt>
      <trkpt lat="43.57742" lon="1.46577">
        <ele>198.04733</ele>
        <time>2023-01-04T10:00:12.053Z</time>
      </trkpt>
      <trkpt lat="43.57732" lon="1.46577">
        <ele>198.048961</ele>
        <time>2023-01-04T10:00:14.038Z</time>
      </trkpt>
      <trkpt lat="43.57722" lon="1.4658">
        <ele>198.050612</ele>
        <time>2023-01-04T10:00:16.049Z</time>
      </trkpt>
      <trkpt lat="43.57712" lon="1.4658">
        <ele>198.052293</ele>
        <time>2023-01-04T10:00:18.052Z</time>
      </trkpt>
      <trkpt lat="43.57702" lon="1.46581">
        <ele>198.053878</ele>
        <time>2023-01-04T10:00:20.050Z</time>
      </trkpt>
      <trkpt lat="43.57693" lon="1.46582">
        <ele>198.061877</ele>
        <time>2023-01-04T10:00:22.047Z</time>
      </trkpt>
      <trkpt lat="43.57679" lon="1.46585">
        <ele>198.102231</ele>
        <time>2023-01-04T10:00:25.050Z</time>
      </trkpt>
      <trkpt lat="43.57669" lon="1.46588">
        <ele>198.131637</ele>
        <time>2023-01-04T10:00:27.053Z</time>
      </trkpt>
      <trkpt lat="43.57658" lon="1.46591">
        <ele>198.162705</ele>
        <time>2023-01-04T10:00:29.030Z</time>
      </trkpt>
      <trkpt lat="43.57649" lon="1.46595">
        <ele>198.190899</ele>
        <time>2023-01-04T10:00:31.044Z</time>
      </trkpt>
      <trkpt lat="43.5764" lon="1.466">
        <ele>198.216735</ele>
        <time>2023-01-04T10:00:33.049Z</time>
      </trkpt>
      <trkpt lat="43.57629" lon="1.46606">
        <ele>198.251368</ele>
        <time>2023-01-04T10:00:35.050Z</time>
      </trkpt>
      <trkpt lat="43.5762" lon="1.46613">
        <ele>198.281064</ele>
        <time>2023-01-04T10:00:37.047Z</time>
      </trkpt>
      <trkpt lat="43.5761" lon="1.4662">
        <ele>198.311453</ele>
        <time>2023-01-04T10:00:39.039Z</time>
      </trkpt>
      <trkpt lat="43.57603" lon="1.46629">
        <ele>198.339216</ele>
        <time>2023-01-04T10:00:41.046Z</time>
      </trkpt>
      <trkpt lat="43.57595" lon="1.46638">
        <ele>198.368517</ele>
        <time>2023-01-04T10:00:43.050Z</time>
      </trkpt>
      <trkpt lat="43.57587" lon="1.46648">
        <ele>198.400138</ele>
        <time>2023-01-04T10:00:45.033Z</time>
      </trkpt>
      <trkpt lat="43.57578" lon="1.46659">
        <ele>198.433778</ele>
        <time>2023-01-04T10:00:47.052Z</time>
      </trkpt>
      <trkpt lat="43.5757" lon="1.4667">
        <ele>198.465472</ele>
        <time>2023-01-04T10:00:49.045Z</time>
      </trkpt>
      <trkpt lat="43.57563" lon="1.4668">
        <ele>198.496269</ele>
        <time>2023-01-04T10:00:51.040Z</time>
      </trkpt>
      <trkpt lat="43.57557" lon="1.4669">
        <ele>198.523294</ele>
        <time>2023-01-04T10:00:53.051Z</time>
      </trkpt>
      <trkpt lat="43.57549" lon="1.467">
        <ele>198.552117</ele>
        <time>2023-01-04T10:00:55.028Z</time>
      </trkpt>
      <trkpt lat="43.57543" lon="1.4671">
        <ele>198.563295</ele>
        <time>2023-01-04T10:00:57.049Z</time>
      </trkpt>
      <trkpt lat="43.57539" lon="1.46722">
        <ele>198.552986</ele>
        <time>2023-01-04T10:00:59.031Z</time>
      </trkpt>
      <trkpt lat="43.57531" lon="1.46736">
        <ele>198.539901</ele>
        <time>2023-01-04T10:01:02.046Z</time>
      </trkpt>
      <trkpt lat="43.57523" lon="1.46752">
        <ele>198.525173</ele>
        <time>2023-01-04T10:01:05.031Z</time>
      </trkpt>
      <trkpt lat="43.57518" lon="1.46763">
        <ele>198.515246</ele>
        <time>2023-01-04T10:01:07.051Z</time>
      </trkpt>
      <trkpt lat="43.57512" lon="1.46775">
        <ele>198.50524</ele>
        <time>2023-01-04T10:01:09.044Z</time>
      </trkpt>
      <trkpt lat="43.57506" lon="1.46789">
        <ele>198.492688</ele>
        <time>2023-01-04T10:01:12.053Z</time>
      </trkpt>
      <trkpt lat="43.57498" lon="1.46803">
        <ele>198.479288</ele>
        <time>2023-01-04T10:01:15.047Z</time>
      </trkpt>
      <trkpt lat="43.57492" lon="1.46814">
        <ele>198.468942</ele>
        <time>2023-01-04T10:01:17.036Z</time>
      </trkpt>
      <trkpt lat="43.57487" lon="1.46825">
        <ele>198.459316</ele>
        <time>2023-01-04T10:01:19.030Z</time>
      </trkpt>
      <trkpt lat="43.57481" lon="1.46835">
        <ele>198.449271</ele>
        <time>2023-01-04T10:01:21.035Z</time>
      </trkpt>
      <trkpt lat="43.57472" lon="1.4685">
        <ele>198.434864</ele>
        <time>2023-01-04T10:01:24.054Z</time>
      </trkpt>
      <trkpt lat="43.57465" lon="1.46863">
        <ele>198.422629</ele>
        <time>2023-01-04T10:01:27.049Z</time>
      </trkpt>
      <trkpt lat="43.57459" lon="1.46876">
        <ele>198.410624</ele>
        <time>2023-01-04T10:01:30.049Z</time>
      </trkpt>
      <trkpt lat="43.5745" lon="1.46891">
        <ele>198.396301</ele>
        <time>2023-01-04T10:01:33.050Z</time>
      </trkpt>
      <trkpt lat="43.5744" lon="1.46901">
        <ele>198.383063</ele>
        <time>2023-01-04T10:01:36.048Z</time>
      </trkpt>
      <trkpt lat="43.57429" lon="1.4691">
        <ele>198.55557</ele>
        <time>2023-01-04T10:01:39.052Z</time>
      </trkpt>
      <trkpt lat="43.5742" lon="1.46918">
        <ele>198.742995</ele>
        <time>2023-01-04T10:01:42.053Z</time>
      </trkpt>
      <trkpt lat="43.57409" lon="1.46925">
        <ele>198.935578</ele>
        <time>2023-01-04T10:01:45.025Z</time>
      </trkpt>
      <trkpt lat="43.57399" lon="1.4693">
        <ele>199.121865</ele>
        <time>2023-01-04T10:01:48.049Z</time>
      </trkpt>
      <trkpt lat="43.57389" lon="1.4693">
        <ele>199.290289</ele>
        <time>2023-01-04T10:01:52.031Z</time>
      </trkpt>
      <trkpt lat="43.5738" lon="1.46934">
        <ele>199.44473</ele>
        <time>2023-01-04T10:01:56.043Z</time>
      </trkpt>
      <trkpt lat="43.57372" lon="1.46938">
        <ele>199.597623</ele>
        <time>2023-01-04T10:01:59.046Z</time>
      </trkpt>
      <trkpt lat="43.57362" lon="1.46943">
        <ele>199.770006</ele>
        <time>2023-01-04T10:02:02.051Z</time>
      </trkpt>
      <trkpt lat="43.57353" lon="1.46946">
        <ele>199.927867</ele>
        <time>2023-01-04T10:02:05.048Z</time>
      </trkpt>
      <trkpt lat="43.57343" lon="1.4695">
        <ele>200.107118</ele>
        <time>2023-01-04T10:02:08.054Z</time>
      </trkpt>
      <trkpt lat="43.57333" lon="1.46955">
        <ele>200.277224</ele>
        <time>2023-01-04T10:02:11.049Z</time>
      </trkpt>
      <trkpt lat="43.57323" lon="1.4696">
        <ele>200.462759</ele>
        <time>2023-01-04T10:02:14.050Z</time>
      </trkpt>
      <trkpt lat="43.57311" lon="1.46964">
        <ele>200.660864</ele>
        <time>2023-01-04T10:02:17.037Z</time>
      </trkpt>
      <trkpt lat="43.573" lon="1.46966">
        <ele>200.858414</ele>
        <time>2023-01-04T10:02:20.054Z</time>
      </trkpt>
      <trkpt lat="43.5729" lon="1.4697">
        <ele>201.024333</ele>
        <time>2023-01-04T10:02:22.054Z</time>
      </trkpt>
      <trkpt lat="43.57282" lon="1.46972">
        <ele>201.175176</ele>
        <time>2023-01-04T10:02:24.046Z</time>
      </trkpt>
      <trkpt lat="43.57267" lon="1.46975">
        <ele>201.407432</ele>
        <time>2023-01-04T10:02:27.051Z</time>
      </trkpt>
      <trkpt lat="43.57258" lon="1.46977">
        <ele>201.326162</ele>
        <time>2023-01-04T10:02:29.033Z</time>
      </trkpt>
      <trkpt lat="43.57248" lon="1.46979">
        <ele>201.237612</ele>
        <time>2023-01-04T10:02:31.048Z</time>
      </trkpt>
      <trkpt lat="43.57235" lon="1.46979">
        <ele>201.122329</ele>
        <time>2023-01-04T10:02:34.050Z</time>
      </trkpt>
      <trkpt lat="43.57222" lon="1.46978">
        <ele>200.999911</ele>
        <time>2023-01-04T10:02:37.031Z</time>
      </trkpt>
      <trkpt lat="43.57211" lon="1.46978">
        <ele>200.909403</ele>
        <time>2023-01-04T10:02:39.050Z</time>
      </trkpt>
      <trkpt lat="43.57198" lon="1.46979">
        <ele>200.7893</ele>
        <time>2023-01-04T10:02:42.049Z</time>
      </trkpt>
      <trkpt lat="43.57185" lon="1.46981">
        <ele>200.676086</ele>
        <time>2023-01-04T10:02:45.048Z</time>
      </trkpt>
      <trkpt lat="43.57176" lon="1.46982">
        <ele>200.595264</ele>
        <time>2023-01-04T10:02:47.052Z</time>
      </trkpt>
      <trkpt lat="43.57167" lon="1.46982">
        <ele>200.510131</ele>
        <time>2023-01-04T10:02:49.029Z</time>
      </trkpt>
      <trkpt lat="43.57157" lon="1.46982">
        <ele>200.424998</ele>
        <time>2023-01-04T10:02:51.056Z</time>
      </trkpt>
      <trkpt lat="43.57146" lon="1.46982">
        <ele>200.330979</ele>
        <time>2023-01-04T10:02:53.052Z</time>
      </trkpt>
      <trkpt lat="43.57134" lon="1.46982">
        <ele>200.218351</ele>
        <time>2023-01-04T10:02:56.054Z</time>
      </trkpt>
      <trkpt lat="43.57123" lon="1.46982">
        <ele>200.127012</ele>
        <time>2023-01-04T10:02:58.052Z</time>
      </trkpt>
      <trkpt lat="43.57113" lon="1.46982">
        <ele>200.036449</ele>
        <time>2023-01-04T10:03:00.057Z</time>
      </trkpt>
      <trkpt lat="43.57103" lon="1.46982">
        <ele>199.945995</ele>
        <time>2023-01-04T10:03:02.059Z</time>
      </trkpt>
      <trkpt lat="43.57094" lon="1.46983">
        <ele>199.865134</ele>
        <time>2023-01-04T10:03:04.054Z</time>
      </trkpt>
      <trkpt lat="43.57084" lon="1.46985">
        <ele>199.78369</ele>
        <time>2023-01-04T10:03:06.048Z</time>
      </trkpt>
      <trkpt lat="43.57073" lon="1.46986">
        <ele>199.695532</ele>
        <time>2023-01-04T10:03:08.050Z</time>
      </trkpt>
      <trkpt lat="43.57062" lon="1.46989">
        <ele>199.603626</ele>
        <time>2023-01-04T10:03:10.049Z</time>
      </trkpt>
      <trkpt lat="43.57048" lon="1.46992">
        <ele>199.488281</ele>
        <time>2023-01-04T10:03:13.054Z</time>
      </trkpt>
      <trkpt lat="43.57036" lon="1.46996">
        <ele>199.386868</ele>
        <time>2023-01-04T10:03:15.050Z</time>
      </trkpt>
      <trkpt lat="43.57025" lon="1.46999">
        <ele>199.302736</ele>
        <time>2023-01-04T10:03:17.051Z</time>
      </trkpt>
      <trkpt lat="43.57016" lon="1.47001">
        <ele>199.223866</ele>
        <time>2023-01-04T10:03:20.028Z</time>
      </trkpt>
      <trkpt lat="43.57013" lon="1.47014">
        <ele>199.148881</ele>
        <time>2023-01-04T10:03:34.029Z</time>
      </trkpt>
      <trkpt lat="43.57017" lon="1.47029">
        <ele>199.058298</ele>
        <time>2023-01-04T10:03:39.033Z</time>
      </trkpt>
      <trkpt lat="43.57021" lon="1.4704">
        <ele>198.985652</ele>
        <time>2023-01-04T10:03:42.045Z</time>
      </trkpt>
      <trkpt lat="43.57013" lon="1.47051">
        <ele>198.88819</ele>
        <time>2023-01-04T10:03:47.055Z</time>
      </trkpt>
      <trkpt lat="43.57004" lon="1.47057">
        <ele>198.810382</ele>
        <time>2023-01-04T10:03:49.051Z</time>
      </trkpt>
      <trkpt lat="43.56994" lon="1.47063">
        <ele>198.726525</ele>
        <time>2023-01-04T10:03:51.026Z</time>
      </trkpt>
      <trkpt lat="43.56985" lon="1.4707">
        <ele>198.640689</ele>
        <time>2023-01-04T10:03:53.031Z</time>
      </trkpt>
      <trkpt lat="43.56972" lon="1.47077">
        <ele>198.535232</ele>
        <time>2023-01-04T10:03:56.045Z</time>
      </trkpt>
      <trkpt lat="43.56961" lon="1.47085">
        <ele>198.432878</ele>
        <time>2023-01-04T10:03:59.050Z</time>
      </trkpt>
      <trkpt lat="43.56951" lon="1.47092">
        <ele>198.381448</ele>
        <time>2023-01-04T10:04:02.050Z</time>
      </trkpt>
      <trkpt lat="43.56941" lon="1.471">
        <ele>198.395053</ele>
        <time>2023-01-04T10:04:05.052Z</time>
      </trkpt>
      <trkpt lat="43.56933" lon="1.47105">
        <ele>198.405766</ele>
        <time>2023-01-04T10:04:07.052Z</time>
      </trkpt>
      <trkpt lat="43.56924" lon="1.47112">
        <ele>198.417591</ele>
        <time>2023-01-04T10:04:09.052Z</time>
      </trkpt>
      <trkpt lat="43.56912" lon="1.4712">
        <ele>198.433365</ele>
        <time>2023-01-04T10:04:12.041Z</time>
      </trkpt>
      <trkpt lat="43.56903" lon="1.47127">
        <ele>198.44567</ele>
        <time>2023-01-04T10:04:14.033Z</time>
      </trkpt>
      <trkpt lat="43.56891" lon="1.47136">
        <ele>198.461874</ele>
        <time>2023-01-04T10:04:17.051Z</time>
      </trkpt>
      <trkpt lat="43.56883" lon="1.47143">
        <ele>198.473345</ele>
        <time>2023-01-04T10:04:19.046Z</time>
      </trkpt>
      <trkpt lat="43.56874" lon="1.4715">
        <ele>198.485472</ele>
        <time>2023-01-04T10:04:21.030Z</time>
      </trkpt>
      <trkpt lat="43.56862" lon="1.47158">
        <ele>198.501631</ele>
        <time>2023-01-04T10:04:24.051Z</time>
      </trkpt>
      <trkpt lat="43.56853" lon="1.47161">
        <ele>198.512775</ele>
        <time>2023-01-04T10:04:26.025Z</time>
      </trkpt>
      <trkpt lat="43.56841" lon="1.47164">
        <ele>198.5273</ele>
        <time>2023-01-04T10:04:29.042Z</time>
      </trkpt>
      <trkpt lat="43.56828" lon="1.47166">
        <ele>198.541905</ele>
        <time>2023-01-04T10:04:32.031Z</time>
      </trkpt>
      <trkpt lat="43.56817" lon="1.47168">
        <ele>198.555523</ele>
        <time>2023-01-04T10:04:35.031Z</time>
      </trkpt>
      <trkpt lat="43.56806" lon="1.47171">
        <ele>198.569549</ele>
        <time>2023-01-04T10:04:38.028Z</time>
      </trkpt>
      <trkpt lat="43.56793" lon="1.47173">
        <ele>198.584216</ele>
        <time>2023-01-04T10:04:41.050Z</time>
      </trkpt>
      <trkpt lat="43.56783" lon="1.47173">
        <ele>198.636478</ele>
        <time>2023-01-04T10:04:43.047Z</time>
      </trkpt>
      <trkpt lat="43.5677" lon="1.47173">
        <ele>198.761422</ele>
        <time>2023-01-04T10:04:46.057Z</time>
      </trkpt>
      <trkpt lat="43.56761" lon="1.47175">
        <ele>198.846444</ele>
        <time>2023-01-04T10:04:48.049Z</time>
      </trkpt>
      <trkpt lat="43.5675" lon="1.47175">
        <ele>198.939224</ele>
        <time>2023-01-04T10:04:50.048Z</time>
      </trkpt>
      <trkpt lat="43.56741" lon="1.47176">
        <ele>199.028627</ele>
        <time>2023-01-04T10:04:52.056Z</time>
      </trkpt>
      <trkpt lat="43.56731" lon="1.47177">
        <ele>199.120681</ele>
        <time>2023-01-04T10:04:54.043Z</time>
      </trkpt>
      <trkpt lat="43.56721" lon="1.47177">
        <ele>199.210705</ele>
        <time>2023-01-04T10:04:56.033Z</time>
      </trkpt>
      <trkpt lat="43.56711" lon="1.47177">
        <ele>199.304423</ele>
        <time>2023-01-04T10:04:58.046Z</time>
      </trkpt>
      <trkpt lat="43.567" lon="1.47176">
        <ele>199.400932</ele>
        <time>2023-01-04T10:05:00.050Z</time>
      </trkpt>
      <trkpt lat="43.56691" lon="1.47177">
        <ele>199.490045</ele>
        <time>2023-01-04T10:05:02.052Z</time>
      </trkpt>
      <trkpt lat="43.5668" lon="1.47178">
        <ele>199.586774</ele>
        <time>2023-01-04T10:05:04.045Z</time>
      </trkpt>
      <trkpt lat="43.5667" lon="1.47177">
        <ele>199.683263</ele>
        <time>2023-01-04T10:05:06.035Z</time>
      </trkpt>
      <trkpt lat="43.56656" lon="1.47178">
        <ele>199.804562</ele>
        <time>2023-01-04T10:05:09.048Z</time>
      </trkpt>
      <trkpt lat="43.56646" lon="1.47178">
        <ele>199.895622</ele>
        <time>2023-01-04T10:05:11.056Z</time>
      </trkpt>
      <trkpt lat="43.56636" lon="1.4718">
        <ele>199.991488</ele>
        <time>2023-01-04T10:05:13.031Z</time>
      </trkpt>
      <trkpt lat="43.56625" lon="1.4718">
        <ele>200.088861</ele>
        <time>2023-01-04T10:05:15.033Z</time>
      </trkpt>
      <trkpt lat="43.56615" lon="1.47179">
        <ele>200.180722</ele>
        <time>2023-01-04T10:05:17.051Z</time>
      </trkpt>
      <trkpt lat="43.56605" lon="1.47179">
        <ele>200.295513</ele>
        <time>2023-01-04T10:05:19.051Z</time>
      </trkpt>
      <trkpt lat="43.56596" lon="1.4718">
        <ele>200.441294</ele>
        <time>2023-01-04T10:05:21.055Z</time>
      </trkpt>
      <trkpt lat="43.56587" lon="1.4718">
        <ele>200.583851</ele>
        <time>2023-01-04T10:05:23.034Z</time>
      </trkpt>
      <trkpt lat="43.56578" lon="1.47178">
        <ele>200.730385</ele>
        <time>2023-01-04T10:05:25.038Z</time>
      </trkpt>
      <trkpt lat="43.56568" lon="1.47179">
        <ele>200.880794</ele>
        <time>2023-01-04T10:05:27.043Z</time>
      </trkpt>
      <trkpt lat="43.56559" lon="1.47179">
        <ele>201.021766</ele>
        <time>2023-01-04T10:05:29.056Z</time>
      </trkpt>
      <trkpt lat="43.56555" lon="1.47193">
        <ele>201.194102</ele>
        <time>2023-01-04T10:05:34.055Z</time>
      </trkpt>
      <trkpt lat="43.56555" lon="1.47208">
        <ele>201.364525</ele>
        <time>2023-01-04T10:05:38.055Z</time>
      </trkpt>
      <trkpt lat="43.56547" lon="1.47214">
        <ele>201.505319</ele>
        <time>2023-01-04T10:05:44.056Z</time>
      </trkpt>
      <trkpt lat="43.56542" lon="1.47204">
        <ele>201.649116</ele>
        <time>2023-01-04T10:05:57.033Z</time>
      </trkpt>
      <trkpt lat="43.56534" lon="1.47197">
        <ele>201.797235</ele>
        <time>2023-01-04T10:06:07.030Z</time>
      </trkpt>
      <trkpt lat="43.5653" lon="1.47185">
        <ele>201.949436</ele>
        <time>2023-01-04T10:06:19.033Z</time>
      </trkpt>
      <trkpt lat="43.56525" lon="1.47175">
        <ele>202.092831</ele>
        <time>2023-01-04T10:06:23.034Z</time>
      </trkpt>
      <trkpt lat="43.56513" lon="1.47171">
        <ele>202.291079</ele>
        <time>2023-01-04T10:06:26.054Z</time>
      </trkpt>
      <trkpt lat="43.56501" lon="1.47171">
        <ele>202.468092</ele>
        <time>2023-01-04T10:06:29.058Z</time>
      </trkpt>
      <trkpt lat="43.5649" lon="1.4717">
        <ele>202.649135</ele>
        <time>2023-01-04T10:06:32.054Z</time>
      </trkpt>
      <trkpt lat="43.56477" lon="1.47169">
        <ele>202.845012</ele>
        <time>2023-01-04T10:06:35.052Z</time>
      </trkpt>
      <trkpt lat="43.56465" lon="1.47167">
        <ele>203.041301</ele>
        <time>2023-01-04T10:06:38.047Z</time>
      </trkpt>
      <trkpt lat="43.56453" lon="1.47167">
        <ele>202.852122</ele>
        <time>2023-01-04T10:06:41.051Z</time>
      </trkpt>
      <trkpt lat="43.5644" lon="1.47166">
        <ele>202.616734</ele>
        <time>2023-01-04T10:06:44.039Z</time>
      </trkpt>
      <trkpt lat="43.56427" lon="1.47168">
        <ele>202.369163</ele>
        <time>2023-01-04T10:06:47.053Z</time>
      </trkpt>
      <trkpt lat="43.56417" lon="1.47168">
        <ele>202.182764</ele>
        <time>2023-01-04T10:06:49.054Z</time>
      </trkpt>
      <trkpt lat="43.56404" lon="1.47172">
        <ele>201.9248</ele>
        <time>2023-01-04T10:06:52.056Z</time>
      </trkpt>
      <trkpt lat="43.56395" lon="1.47175">
        <ele>201.747712</ele>
        <time>2023-01-04T10:06:54.048Z</time>
      </trkpt>
      <trkpt lat="43.56385" lon="1.47179">
        <ele>201.561889</ele>
        <time>2023-01-04T10:06:56.053Z</time>
      </trkpt>
      <trkpt lat="43.56375" lon="1.47182">
        <ele>201.368544</ele>
        <time>2023-01-04T10:06:58.055Z</time>
      </trkpt>
      <trkpt lat="43.56366" lon="1.47186">
        <ele>201.184624</ele>
        <time>2023-01-04T10:07:00.029Z</time>
      </trkpt>
      <trkpt lat="43.56354" lon="1.4719">
        <ele>200.94804</ele>
        <time>2023-01-04T10:07:03.040Z</time>
      </trkpt>
      <trkpt lat="43.56344" lon="1.47197">
        <ele>200.754613</ele>
        <time>2023-01-04T10:07:05.056Z</time>
      </trkpt>
      <trkpt lat="43.56335" lon="1.47204">
        <ele>200.559249</ele>
        <time>2023-01-04T10:07:07.026Z</time>
      </trkpt>
      <trkpt lat="43.56324" lon="1.47214">
        <ele>200.307513</ele>
        <time>2023-01-04T10:07:10.056Z</time>
      </trkpt>
      <trkpt lat="43.56315" lon="1.47222">
        <ele>200.103842</ele>
        <time>2023-01-04T10:07:12.031Z</time>
      </trkpt>
      <trkpt lat="43.56306" lon="1.47233">
        <ele>199.879436</ele>
        <time>2023-01-04T10:07:14.051Z</time>
      </trkpt>
      <trkpt lat="43.56298" lon="1.47243">
        <ele>199.677257</ele>
        <time>2023-01-04T10:07:16.062Z</time>
      </trkpt>
      <trkpt lat="43.5629" lon="1.47252">
        <ele>199.587161</ele>
        <time>2023-01-04T10:07:18.054Z</time>
      </trkpt>
      <trkpt lat="43.56284" lon="1.47263">
        <ele>199.49395</ele>
        <time>2023-01-04T10:07:20.047Z</time>
      </trkpt>
      <trkpt lat="43.56277" lon="1.47272">
        <ele>199.414812</ele>
        <time>2023-01-04T10:07:22.030Z</time>
      </trkpt>
      <trkpt lat="43.56269" lon="1.47281">
        <ele>199.323658</ele>
        <time>2023-01-04T10:07:24.032Z</time>
      </trkpt>
      <trkpt lat="43.56263" lon="1.47292">
        <ele>199.23682</ele>
        <time>2023-01-04T10:07:26.045Z</time>
      </trkpt>
      <trkpt lat="43.56252" lon="1.47303">
        <ele>199.11707</ele>
        <time>2023-01-04T10:07:29.053Z</time>
      </trkpt>
      <trkpt lat="43.56245" lon="1.47313">
        <ele>199.027549</ele>
        <time>2023-01-04T10:07:31.051Z</time>
      </trkpt>
      <trkpt lat="43.56238" lon="1.47323">
        <ele>198.941231</ele>
        <time>2023-01-04T10:07:33.047Z</time>
      </trkpt>
      <trkpt lat="43.5623" lon="1.47335">
        <ele>198.842507</ele>
        <time>2023-01-04T10:07:35.049Z</time>
      </trkpt>
      <trkpt lat="43.56222" lon="1.47346">
        <ele>198.740502</ele>
        <time>2023-01-04T10:07:37.052Z</time>
      </trkpt>
      <trkpt lat="43.56214" lon="1.47355">
        <ele>198.645441</ele>
        <time>2023-01-04T10:07:39.056Z</time>
      </trkpt>
      <trkpt lat="43.56206" lon="1.47365">
        <ele>198.557508</ele>
        <time>2023-01-04T10:07:41.053Z</time>
      </trkpt>
      <trkpt lat="43.562" lon="1.47374">
        <ele>198.473608</ele>
        <time>2023-01-04T10:07:43.051Z</time>
      </trkpt>
      <trkpt lat="43.56189" lon="1.47387">
        <ele>198.350636</ele>
        <time>2023-01-04T10:07:46.046Z</time>
      </trkpt>
      <trkpt lat="43.56181" lon="1.47396">
        <ele>198.257049</ele>
        <time>2023-01-04T10:07:48.055Z</time>
      </trkpt>
      <trkpt lat="43.56174" lon="1.47405">
        <ele>198.17791</ele>
        <time>2023-01-04T10:07:50.028Z</time>
      </trkpt>
      <trkpt lat="43.56165" lon="1.47414">
        <ele>198.105721</ele>
        <time>2023-01-04T10:07:52.049Z</time>
      </trkpt>
      <trkpt lat="43.56158" lon="1.47424">
        <ele>198.138753</ele>
        <time>2023-01-04T10:07:54.053Z</time>
      </trkpt>
      <trkpt lat="43.5615" lon="1.47437">
        <ele>198.179763</ele>
        <time>2023-01-04T10:07:57.054Z</time>
      </trkpt>
      <trkpt lat="43.56142" lon="1.47445">
        <ele>198.209496</ele>
        <time>2023-01-04T10:07:59.053Z</time>
      </trkpt>
      <trkpt lat="43.56136" lon="1.47455">
        <ele>198.240895</ele>
        <time>2023-01-04T10:08:01.052Z</time>
      </trkpt>
      <trkpt lat="43.56126" lon="1.47467">
        <ele>198.282946</ele>
        <time>2023-01-04T10:08:04.053Z</time>
      </trkpt>
      <trkpt lat="43.56118" lon="1.47477">
        <ele>198.318178</ele>
        <time>2023-01-04T10:08:06.053Z</time>
      </trkpt>
      <trkpt lat="43.56109" lon="1.47488">
        <ele>198.355758</ele>
        <time>2023-01-04T10:08:09.054Z</time>
      </trkpt>
      <trkpt lat="43.56102" lon="1.47497">
        <ele>198.388303</ele>
        <time>2023-01-04T10:08:11.054Z</time>
      </trkpt>
      <trkpt lat="43.56094" lon="1.47507">
        <ele>198.421336</ele>
        <time>2023-01-04T10:08:13.042Z</time>
      </trkpt>
      <trkpt lat="43.56085" lon="1.47518">
        <ele>198.458489</ele>
        <time>2023-01-04T10:08:16.057Z</time>
      </trkpt>
      <trkpt lat="43.56078" lon="1.47526">
        <ele>198.489409</ele>
        <time>2023-01-04T10:08:18.056Z</time>
      </trkpt>
      <trkpt lat="43.5607" lon="1.47536">
        <ele>198.524231</ele>
        <time>2023-01-04T10:08:20.055Z</time>
      </trkpt>
      <trkpt lat="43.56062" lon="1.47544">
        <ele>198.555212</ele>
        <time>2023-01-04T10:08:22.042Z</time>
      </trkpt>
      <trkpt lat="43.56055" lon="1.47553">
        <ele>198.586194</ele>
        <time>2023-01-04T10:08:24.035Z</time>
      </trkpt>
      <trkpt lat="43.56045" lon="1.47565">
        <ele>198.628582</ele>
        <time>2023-01-04T10:08:27.053Z</time>
      </trkpt>
      <trkpt lat="43.56034" lon="1.47577">
        <ele>198.673553</ele>
        <time>2023-01-04T10:08:30.053Z</time>
      </trkpt>
      <trkpt lat="43.56025" lon="1.47585">
        <ele>198.755109</ele>
        <time>2023-01-04T10:08:32.040Z</time>
      </trkpt>
      <trkpt lat="43.56018" lon="1.47594">
        <ele>198.842451</ele>
        <time>2023-01-04T10:08:34.049Z</time>
      </trkpt>
      <trkpt lat="43.5601" lon="1.47604">
        <ele>198.929793</ele>
        <time>2023-01-04T10:08:37.054Z</time>
      </trkpt>
      <trkpt lat="43.56001" lon="1.47612">
        <ele>199.0179</ele>
        <time>2023-01-04T10:08:39.054Z</time>
      </trkpt>
      <trkpt lat="43.55992" lon="1.47623">
        <ele>199.12193</ele>
        <time>2023-01-04T10:08:41.054Z</time>
      </trkpt>
      <trkpt lat="43.55983" lon="1.47632">
        <ele>199.214887</ele>
        <time>2023-01-04T10:08:43.053Z</time>
      </trkpt>
      <trkpt lat="43.55974" lon="1.47642">
        <ele>199.312758</ele>
        <time>2023-01-04T10:08:45.051Z</time>
      </trkpt>
      <trkpt lat="43.55967" lon="1.47651">
        <ele>199.393915</ele>
        <time>2023-01-04T10:08:47.052Z</time>
      </trkpt>
      <trkpt lat="43.55956" lon="1.47662">
        <ele>199.504386</ele>
        <time>2023-01-04T10:08:50.050Z</time>
      </trkpt>
      <trkpt lat="43.55949" lon="1.47671">
        <ele>199.586153</ele>
        <time>2023-01-04T10:08:52.035Z</time>
      </trkpt>
      <trkpt lat="43.5594" lon="1.47683">
        <ele>199.687687</ele>
        <time>2023-01-04T10:08:54.056Z</time>
      </trkpt>
      <trkpt lat="43.55934" lon="1.47693">
        <ele>199.769656</ele>
        <time>2023-01-04T10:08:56.052Z</time>
      </trkpt>
      <trkpt lat="43.55925" lon="1.47703">
        <ele>199.865849</ele>
        <time>2023-01-04T10:08:58.054Z</time>
      </trkpt>
      <trkpt lat="43.55918" lon="1.47715">
        <ele>199.956292</ele>
        <time>2023-01-04T10:09:00.065Z</time>
      </trkpt>
      <trkpt lat="43.55911" lon="1.47724">
        <ele>200.036844</ele>
        <time>2023-01-04T10:09:02.041Z</time>
      </trkpt>
      <trkpt lat="43.55903" lon="1.47735">
        <ele>200.130983</ele>
        <time>2023-01-04T10:09:05.052Z</time>
      </trkpt>
      <trkpt lat="43.55897" lon="1.47744">
        <ele>200.225976</ele>
        <time>2023-01-04T10:09:07.053Z</time>
      </trkpt>
      <trkpt lat="43.55888" lon="1.47757">
        <ele>200.442609</ele>
        <time>2023-01-04T10:09:10.052Z</time>
      </trkpt>
      <trkpt lat="43.55881" lon="1.47766">
        <ele>200.594245</ele>
        <time>2023-01-04T10:09:12.051Z</time>
      </trkpt>
      <trkpt lat="43.55874" lon="1.47776">
        <ele>200.762328</ele>
        <time>2023-01-04T10:09:14.050Z</time>
      </trkpt>
      <trkpt lat="43.55868" lon="1.47786">
        <ele>200.913665</ele>
        <time>2023-01-04T10:09:16.052Z</time>
      </trkpt>
      <trkpt lat="43.5586" lon="1.47798">
        <ele>201.103305</ele>
        <time>2023-01-04T10:09:18.055Z</time>
      </trkpt>
      <trkpt lat="43.55853" lon="1.47808">
        <ele>201.265633</ele>
        <time>2023-01-04T10:09:20.050Z</time>
      </trkpt>
      <trkpt lat="43.55843" lon="1.47821">
        <ele>201.494884</ele>
        <time>2023-01-04T10:09:23.055Z</time>
      </trkpt>
      <trkpt lat="43.55835" lon="1.47833">
        <ele>201.673423</ele>
        <time>2023-01-04T10:09:25.037Z</time>
      </trkpt>
      <trkpt lat="43.55828" lon="1.47843">
        <ele>201.838861</ele>
        <time>2023-01-04T10:09:27.032Z</time>
      </trkpt>
      <trkpt lat="43.5582" lon="1.47856">
        <ele>202.048053</ele>
        <time>2023-01-04T10:09:30.054Z</time>
      </trkpt>
      <trkpt lat="43.55812" lon="1.47865">
        <ele>202.203041</ele>
        <time>2023-01-04T10:09:32.057Z</time>
      </trkpt>
      <trkpt lat="43.55806" lon="1.47875">
        <ele>202.36116</ele>
        <time>2023-01-04T10:09:34.059Z</time>
      </trkpt>
      <trkpt lat="43.558" lon="1.47884">
        <ele>202.506642</ele>
        <time>2023-01-04T10:09:36.053Z</time>
      </trkpt>
      <trkpt lat="43.55792" lon="1.47896">
        <ele>202.695826</ele>
        <time>2023-01-04T10:09:39.054Z</time>
      </trkpt>
      <trkpt lat="43.55783" lon="1.47908">
        <ele>202.900077</ele>
        <time>2023-01-04T10:09:42.035Z</time>
      </trkpt>
      <trkpt lat="43.55775" lon="1.47917">
        <ele>203.06877</ele>
        <time>2023-01-04T10:09:44.054Z</time>
      </trkpt>
      <trkpt lat="43.55767" lon="1.47927">
        <ele>202.861888</ele>
        <time>2023-01-04T10:09:47.050Z</time>
      </trkpt>
      <trkpt lat="43.55759" lon="1.47937">
        <ele>202.581069</ele>
        <time>2023-01-04T10:09:50.043Z</time>
      </trkpt>
      <trkpt lat="43.55748" lon="1.47949">
        <ele>202.194142</ele>
        <time>2023-01-04T10:09:53.048Z</time>
      </trkpt>
      <trkpt lat="43.55736" lon="1.47959">
        <ele>201.831623</ele>
        <time>2023-01-04T10:09:56.042Z</time>
      </trkpt>
      <trkpt lat="43.55728" lon="1.47966">
        <ele>201.577082</ele>
        <time>2023-01-04T10:09:58.052Z</time>
      </trkpt>
      <trkpt lat="43.55715" lon="1.47975">
        <ele>201.207171</ele>
        <time>2023-01-04T10:10:01.047Z</time>
      </trkpt>
      <trkpt lat="43.55707" lon="1.47983">
        <ele>200.931227</ele>
        <time>2023-01-04T10:10:03.058Z</time>
      </trkpt>
      <trkpt lat="43.55697" lon="1.47991">
        <ele>200.624213</ele>
        <time>2023-01-04T10:10:05.053Z</time>
      </trkpt>
      <trkpt lat="43.55688" lon="1.47998">
        <ele>200.347947</ele>
        <time>2023-01-04T10:10:07.052Z</time>
      </trkpt>
      <trkpt lat="43.5568" lon="1.48005">
        <ele>200.08948</ele>
        <time>2023-01-04T10:10:09.054Z</time>
      </trkpt>
      <trkpt lat="43.55671" lon="1.48011">
        <ele>199.843427</ele>
        <time>2023-01-04T10:10:11.057Z</time>
      </trkpt>
      <trkpt lat="43.55661" lon="1.48021">
        <ele>199.517087</ele>
        <time>2023-01-04T10:10:13.034Z</time>
      </trkpt>
      <trkpt lat="43.55653" lon="1.48027">
        <ele>199.24734</ele>
        <time>2023-01-04T10:10:15.048Z</time>
      </trkpt>
      <trkpt lat="43.5564" lon="1.48037">
        <ele>198.871833</ele>
        <time>2023-01-04T10:10:18.060Z</time>
      </trkpt>
      <trkpt lat="43.55631" lon="1.48044">
        <ele>198.590081</ele>
        <time>2023-01-04T10:10:20.054Z</time>
      </trkpt>
      <trkpt lat="43.55623" lon="1.4805">
        <ele>198.341867</ele>
        <time>2023-01-04T10:10:22.054Z</time>
      </trkpt>
      <trkpt lat="43.55614" lon="1.48055">
        <ele>198.354672</ele>
        <time>2023-01-04T10:10:24.056Z</time>
      </trkpt>
      <trkpt lat="43.55603" lon="1.48063">
        <ele>198.423033</ele>
        <time>2023-01-04T10:10:27.046Z</time>
      </trkpt>
      <trkpt lat="43.55591" lon="1.48071">
        <ele>198.487625</ele>
        <time>2023-01-04T10:10:30.053Z</time>
      </trkpt>
      <trkpt lat="43.5558" lon="1.48078">
        <ele>198.549434</ele>
        <time>2023-01-04T10:10:33.028Z</time>
      </trkpt>
      <trkpt lat="43.55567" lon="1.4808">
        <ele>198.614781</ele>
        <time>2023-01-04T10:10:36.054Z</time>
      </trkpt>
      <trkpt lat="43.55555" lon="1.48083">
        <ele>198.679951</ele>
        <time>2023-01-04T10:10:39.029Z</time>
      </trkpt>
      <trkpt lat="43.55542" lon="1.48088">
        <ele>198.745914</ele>
        <time>2023-01-04T10:10:42.059Z</time>
      </trkpt>
      <trkpt lat="43.5553" lon="1.48095">
        <ele>198.815019</ele>
        <time>2023-01-04T10:10:45.053Z</time>
      </trkpt>
      <trkpt lat="43.55519" lon="1.48099">
        <ele>198.873246</ele>
        <time>2023-01-04T10:10:47.054Z</time>
      </trkpt>
      <trkpt lat="43.55508" lon="1.48101">
        <ele>198.931014</ele>
        <time>2023-01-04T10:10:50.044Z</time>
      </trkpt>
      <trkpt lat="43.55499" lon="1.48106">
        <ele>198.977218</ele>
        <time>2023-01-04T10:10:52.053Z</time>
      </trkpt>
      <trkpt lat="43.5549" lon="1.48111">
        <ele>199.025704</ele>
        <time>2023-01-04T10:10:54.041Z</time>
      </trkpt>
      <trkpt lat="43.55478" lon="1.48117">
        <ele>199.093117</ele>
        <time>2023-01-04T10:10:57.052Z</time>
      </trkpt>
      <trkpt lat="43.55468" lon="1.48121">
        <ele>199.147234</ele>
        <time>2023-01-04T10:11:00.055Z</time>
      </trkpt>
      <trkpt lat="43.55458" lon="1.48123">
        <ele>199.198647</ele>
        <time>2023-01-04T10:11:03.031Z</time>
      </trkpt>
      <trkpt lat="43.55446" lon="1.48121">
        <ele>199.217048</ele>
        <time>2023-01-04T10:11:07.051Z</time>
      </trkpt>
      <trkpt lat="43.55434" lon="1.4812">
        <ele>199.179946</ele>
        <time>2023-01-04T10:11:11.054Z</time>
      </trkpt>
      <trkpt lat="43.55419" lon="1.48121">
        <ele>199.137029</ele>
        <time>2023-01-04T10:11:14.050Z</time>
      </trkpt>
      <trkpt lat="43.55409" lon="1.48122">
        <ele>199.109223</ele>
        <time>2023-01-04T10:11:16.054Z</time>
      </trkpt>
      <trkpt lat="43.55396" lon="1.48122">
        <ele>199.071014</ele>
        <time>2023-01-04T10:11:19.055Z</time>
      </trkpt>
      <trkpt lat="43.55384" lon="1.48123">
        <ele>199.035368</ele>
        <time>2023-01-04T10:11:22.042Z</time>
      </trkpt>
      <trkpt lat="43.55372" lon="1.48125">
        <ele>198.998753</ele>
        <time>2023-01-04T10:11:25.038Z</time>
      </trkpt>
      <trkpt lat="43.55362" lon="1.48127">
        <ele>198.968929</ele>
        <time>2023-01-04T10:11:27.051Z</time>
      </trkpt>
      <trkpt lat="43.55349" lon="1.48129">
        <ele>198.931281</ele>
        <time>2023-01-04T10:11:30.054Z</time>
      </trkpt>
      <trkpt lat="43.55339" lon="1.48133">
        <ele>198.90322</ele>
        <time>2023-01-04T10:11:32.056Z</time>
      </trkpt>
      <trkpt lat="43.55327" lon="1.48135">
        <ele>198.865803</ele>
        <time>2023-01-04T10:11:35.046Z</time>
      </trkpt>
      <trkpt lat="43.55316" lon="1.48138">
        <ele>198.833671</ele>
        <time>2023-01-04T10:11:38.042Z</time>
      </trkpt>
      <trkpt lat="43.55294" lon="1.48142">
        <ele>198.770133</ele>
        <time>2023-01-04T10:12:34.033Z</time>
      </trkpt>
      <trkpt lat="43.55284" lon="1.48143">
        <ele>198.738822</ele>
        <time>2023-01-04T10:12:38.035Z</time>
      </trkpt>
      <trkpt lat="43.55274" lon="1.48145">
        <ele>198.709796</ele>
        <time>2023-01-04T10:12:41.034Z</time>
      </trkpt>
      <trkpt lat="43.55263" lon="1.48149">
        <ele>198.776327</ele>
        <time>2023-01-04T10:12:44.039Z</time>
      </trkpt>
      <trkpt lat="43.55251" lon="1.48154">
        <ele>198.860255</ele>
        <time>2023-01-04T10:12:47.049Z</time>
      </trkpt>
      <trkpt lat="43.55239" lon="1.48161">
        <ele>198.944851</ele>
        <time>2023-01-04T10:12:50.053Z</time>
      </trkpt>
      <trkpt lat="43.55227" lon="1.48166">
        <ele>199.028976</ele>
        <time>2023-01-04T10:12:53.052Z</time>
      </trkpt>
      <trkpt lat="43.55214" lon="1.4817">
        <ele>199.12019</ele>
        <time>2023-01-04T10:12:56.051Z</time>
      </trkpt>
      <trkpt lat="43.55205" lon="1.48174">
        <ele>199.181968</ele>
        <time>2023-01-04T10:12:58.054Z</time>
      </trkpt>
      <trkpt lat="43.55194" lon="1.48178">
        <ele>199.261083</ele>
        <time>2023-01-04T10:13:01.043Z</time>
      </trkpt>
      <trkpt lat="43.55182" lon="1.48184">
        <ele>199.348022</ele>
        <time>2023-01-04T10:13:04.050Z</time>
      </trkpt>
      <trkpt lat="43.55173" lon="1.48188">
        <ele>199.410734</ele>
        <time>2023-01-04T10:13:06.053Z</time>
      </trkpt>
      <trkpt lat="43.55164" lon="1.4819">
        <ele>199.472242</ele>
        <time>2023-01-04T10:13:08.055Z</time>
      </trkpt>
      <trkpt lat="43.55149" lon="1.48196">
        <ele>199.571323</ele>
        <time>2023-01-04T10:13:11.055Z</time>
      </trkpt>
      <trkpt lat="43.55139" lon="1.48199">
        <ele>199.641405</ele>
        <time>2023-01-04T10:13:13.055Z</time>
      </trkpt>
      <trkpt lat="43.5513" lon="1.48204">
        <ele>199.7087</ele>
        <time>2023-01-04T10:13:15.052Z</time>
      </trkpt>
      <trkpt lat="43.55117" lon="1.48207">
        <ele>199.793596</ele>
        <time>2023-01-04T10:13:18.052Z</time>
      </trkpt>
      <trkpt lat="43.55105" lon="1.48213">
        <ele>199.880568</ele>
        <time>2023-01-04T10:13:21.058Z</time>
      </trkpt>
      <trkpt lat="43.55095" lon="1.48213">
        <ele>199.858267</ele>
        <time>2023-01-04T10:13:24.040Z</time>
      </trkpt>
      <trkpt lat="43.55087" lon="1.4822">
        <ele>199.744643</ele>
        <time>2023-01-04T10:13:26.054Z</time>
      </trkpt>
      <trkpt lat="43.55074" lon="1.48228">
        <ele>199.58771</ele>
        <time>2023-01-04T10:13:29.056Z</time>
      </trkpt>
      <trkpt lat="43.55065" lon="1.48237">
        <ele>199.469273</ele>
        <time>2023-01-04T10:13:31.030Z</time>
      </trkpt>
      <trkpt lat="43.55056" lon="1.48245">
        <ele>199.354891</ele>
        <time>2023-01-04T10:13:33.056Z</time>
      </trkpt>
      <trkpt lat="43.55049" lon="1.48253">
        <ele>199.249613</ele>
        <time>2023-01-04T10:13:35.053Z</time>
      </trkpt>
      <trkpt lat="43.55041" lon="1.48261">
        <ele>199.14157</ele>
        <time>2023-01-04T10:13:37.053Z</time>
      </trkpt>
      <trkpt lat="43.55033" lon="1.48269">
        <ele>199.033565</ele>
        <time>2023-01-04T10:13:39.054Z</time>
      </trkpt>
      <trkpt lat="43.55026" lon="1.48277">
        <ele>198.932497</ele>
        <time>2023-01-04T10:13:41.052Z</time>
      </trkpt>
      <trkpt lat="43.55018" lon="1.48285">
        <ele>198.828204</ele>
        <time>2023-01-04T10:13:43.052Z</time>
      </trkpt>
      <trkpt lat="43.55009" lon="1.48292">
        <ele>198.712545</ele>
        <time>2023-01-04T10:13:46.034Z</time>
      </trkpt>
      <trkpt lat="43.55001" lon="1.48302">
        <ele>198.589997</ele>
        <time>2023-01-04T10:13:48.034Z</time>
      </trkpt>
      <trkpt lat="43.54991" lon="1.48312">
        <ele>198.457495</ele>
        <time>2023-01-04T10:13:51.036Z</time>
      </trkpt>
      <trkpt lat="43.54982" lon="1.4832">
        <ele>198.334941</ele>
        <time>2023-01-04T10:13:54.053Z</time>
      </trkpt>
      <trkpt lat="43.54973" lon="1.48328">
        <ele>198.219682</ele>
        <time>2023-01-04T10:13:57.056Z</time>
      </trkpt>
      <trkpt lat="43.54966" lon="1.48337">
        <ele>198.114159</ele>
        <time>2023-01-04T10:14:00.053Z</time>
      </trkpt>
      <trkpt lat="43.54958" lon="1.48347">
        <ele>198.00162</ele>
        <time>2023-01-04T10:14:03.055Z</time>
      </trkpt>
      <trkpt lat="43.5495" lon="1.48354">
        <ele>197.882158</ele>
        <time>2023-01-04T10:14:06.054Z</time>
      </trkpt>
      <trkpt lat="43.54942" lon="1.48364">
        <ele>197.717344</ele>
        <time>2023-01-04T10:14:09.056Z</time>
      </trkpt>
      <trkpt lat="43.54934" lon="1.48372">
        <ele>197.578877</ele>
        <time>2023-01-04T10:14:12.050Z</time>
      </trkpt>
      <trkpt lat="43.54926" lon="1.48381">
        <ele>197.425994</ele>
        <time>2023-01-04T10:14:15.054Z</time>
      </trkpt>
      <trkpt lat="43.54917" lon="1.4839">
        <ele>197.259602</ele>
        <time>2023-01-04T10:14:18.052Z</time>
      </trkpt>
      <trkpt lat="43.54908" lon="1.48398">
        <ele>197.099996</ele>
        <time>2023-01-04T10:14:21.046Z</time>
      </trkpt>
      <trkpt lat="43.54898" lon="1.48405">
        <ele>196.934061</ele>
        <time>2023-01-04T10:14:24.054Z</time>
      </trkpt>
      <trkpt lat="43.54887" lon="1.48413">
        <ele>196.756876</ele>
        <time>2023-01-04T10:14:27.053Z</time>
      </trkpt>
      <trkpt lat="43.54878" lon="1.48419">
        <ele>196.600755</ele>
        <time>2023-01-04T10:14:30.037Z</time>
      </trkpt>
      <trkpt lat="43.5487" lon="1.48426">
        <ele>196.462529</ele>
        <time>2023-01-04T10:14:33.054Z</time>
      </trkpt>
      <trkpt lat="43.54861" lon="1.48433">
        <ele>196.320151</ele>
        <time>2023-01-04T10:14:37.045Z</time>
      </trkpt>
      <trkpt lat="43.54852" lon="1.4844">
        <ele>196.153284</ele>
        <time>2023-01-04T10:14:41.039Z</time>
      </trkpt>
      <trkpt lat="43.54842" lon="1.48448">
        <ele>195.993349</ele>
        <time>2023-01-04T10:14:45.041Z</time>
      </trkpt>
      <trkpt lat="43.54834" lon="1.48454">
        <ele>195.856605</ele>
        <time>2023-01-04T10:14:48.050Z</time>
      </trkpt>
      <trkpt lat="43.54826" lon="1.48461">
        <ele>195.712945</ele>
        <time>2023-01-04T10:14:52.060Z</time>
      </trkpt>
      <trkpt lat="43.5482" lon="1.48471">
        <ele>195.579818</ele>
        <time>2023-01-04T10:14:56.055Z</time>
      </trkpt>
      <trkpt lat="43.54825" lon="1.48483">
        <ele>195.438149</ele>
        <time>2023-01-04T10:15:02.036Z</time>
      </trkpt>
      <trkpt lat="43.54832" lon="1.48473">
        <ele>195.291729</ele>
        <time>2023-01-04T10:15:08.029Z</time>
      </trkpt>
      <trkpt lat="43.54823" lon="1.48468">
        <ele>195.520982</ele>
        <time>2023-01-04T10:15:14.050Z</time>
      </trkpt>
      <trkpt lat="43.54811" lon="1.48467">
        <ele>195.819644</ele>
        <time>2023-01-04T10:15:18.062Z</time>
      </trkpt>
      <trkpt lat="43.54801" lon="1.48473">
        <ele>196.08884</ele>
        <time>2023-01-04T10:15:22.055Z</time>
      </trkpt>
      <trkpt lat="43.54791" lon="1.48479">
        <ele>196.364221</ele>
        <time>2023-01-04T10:15:26.048Z</time>
      </trkpt>
      <trkpt lat="43.54783" lon="1.48487">
        <ele>196.636926</ele>
        <time>2023-01-04T10:15:29.054Z</time>
      </trkpt>
      <trkpt lat="43.54775" lon="1.48494">
        <ele>196.871379</ele>
        <time>2023-01-04T10:15:32.049Z</time>
      </trkpt>
      <trkpt lat="43.54766" lon="1.48499">
        <ele>197.114405</ele>
        <time>2023-01-04T10:15:35.052Z</time>
      </trkpt>
      <trkpt lat="43.54756" lon="1.48507">
        <ele>197.405127</ele>
        <time>2023-01-04T10:15:38.053Z</time>
      </trkpt>
      <trkpt lat="43.54745" lon="1.48516">
        <ele>197.736358</ele>
        <time>2023-01-04T10:15:41.061Z</time>
      </trkpt>
      <trkpt lat="43.54733" lon="1.48525">
        <ele>198.068514</ele>
        <time>2023-01-04T10:15:44.057Z</time>
      </trkpt>
      <trkpt lat="43.54722" lon="1.48534">
        <ele>198.39819</ele>
        <time>2023-01-04T10:15:47.054Z</time>
      </trkpt>
      <trkpt lat="43.54714" lon="1.4854">
        <ele>198.640575</ele>
        <time>2023-01-04T10:15:49.059Z</time>
      </trkpt>
      <trkpt lat="43.54705" lon="1.48547">
        <ele>198.888184</ele>
        <time>2023-01-04T10:15:51.041Z</time>
      </trkpt>
      <trkpt lat="43.54697" lon="1.48554">
        <ele>199.132976</ele>
        <time>2023-01-04T10:15:53.040Z</time>
      </trkpt>
      <trkpt lat="43.54686" lon="1.48563">
        <ele>199.468616</ele>
        <time>2023-01-04T10:15:56.033Z</time>
      </trkpt>
      <trkpt lat="43.54674" lon="1.48572">
        <ele>199.805167</ele>
        <time>2023-01-04T10:15:59.055Z</time>
      </trkpt>
      <trkpt lat="43.54666" lon="1.48578">
        <ele>199.939159</ele>
        <time>2023-01-04T10:16:01.042Z</time>
      </trkpt>
      <trkpt lat="43.54656" lon="1.48588">
        <ele>200.1013</ele>
        <time>2023-01-04T10:16:04.051Z</time>
      </trkpt>
      <trkpt lat="43.54648" lon="1.48596">
        <ele>200.217195</ele>
        <time>2023-01-04T10:16:06.052Z</time>
      </trkpt>
      <trkpt lat="43.54641" lon="1.48605">
        <ele>200.337389</ele>
        <time>2023-01-04T10:16:08.056Z</time>
      </trkpt>
      <trkpt lat="43.54634" lon="1.48614">
        <ele>200.462553</ele>
        <time>2023-01-04T10:16:10.054Z</time>
      </trkpt>
      <trkpt lat="43.54627" lon="1.48623">
        <ele>200.579726</ele>
        <time>2023-01-04T10:16:12.055Z</time>
      </trkpt>
      <trkpt lat="43.54618" lon="1.48635">
        <ele>200.740976</ele>
        <time>2023-01-04T10:16:15.054Z</time>
      </trkpt>
      <trkpt lat="43.5461" lon="1.48648">
        <ele>200.902437</ele>
        <time>2023-01-04T10:16:18.055Z</time>
      </trkpt>
      <trkpt lat="43.54603" lon="1.48658">
        <ele>201.020115</ele>
        <time>2023-01-04T10:16:20.055Z</time>
      </trkpt>
      <trkpt lat="43.54598" lon="1.48669">
        <ele>201.138017</ele>
        <time>2023-01-04T10:16:22.052Z</time>
      </trkpt>
      <trkpt lat="43.54593" lon="1.4868">
        <ele>201.258296</ele>
        <time>2023-01-04T10:16:24.057Z</time>
      </trkpt>
      <trkpt lat="43.54588" lon="1.4869">
        <ele>201.375399</ele>
        <time>2023-01-04T10:16:26.055Z</time>
      </trkpt>
      <trkpt lat="43.54582" lon="1.48701">
        <ele>201.503615</ele>
        <time>2023-01-04T10:16:28.037Z</time>
      </trkpt>
      <trkpt lat="43.54577" lon="1.48713">
        <ele>201.627133</ele>
        <time>2023-01-04T10:16:30.055Z</time>
      </trkpt>
      <trkpt lat="43.54573" lon="1.48726">
        <ele>201.755725</ele>
        <time>2023-01-04T10:16:32.056Z</time>
      </trkpt>
      <trkpt lat="43.54568" lon="1.48737">
        <ele>201.874398</ele>
        <time>2023-01-04T10:16:34.027Z</time>
      </trkpt>
      <trkpt lat="43.54563" lon="1.48749">
        <ele>202.002501</ele>
        <time>2023-01-04T10:16:36.053Z</time>
      </trkpt>
      <trkpt lat="43.54559" lon="1.48761">
        <ele>202.107064</ele>
        <time>2023-01-04T10:16:38.058Z</time>
      </trkpt>
      <trkpt lat="43.54555" lon="1.48774">
        <ele>201.828152</ele>
        <time>2023-01-04T10:16:40.052Z</time>
      </trkpt>
      <trkpt lat="43.54551" lon="1.48787">
        <ele>201.529197</ele>
        <time>2023-01-04T10:16:42.055Z</time>
      </trkpt>
      <trkpt lat="43.54546" lon="1.48798">
        <ele>201.262522</ele>
        <time>2023-01-04T10:16:44.035Z</time>
      </trkpt>
      <trkpt lat="43.54543" lon="1.4881">
        <ele>200.997974</ele>
        <time>2023-01-04T10:16:46.056Z</time>
      </trkpt>
      <trkpt lat="43.54538" lon="1.48822">
        <ele>200.712342</ele>
        <time>2023-01-04T10:16:48.052Z</time>
      </trkpt>
      <trkpt lat="43.54533" lon="1.48834">
        <ele>200.434836</ele>
        <time>2023-01-04T10:16:50.055Z</time>
      </trkpt>
      <trkpt lat="43.54529" lon="1.48846">
        <ele>200.162489</ele>
        <time>2023-01-04T10:16:52.050Z</time>
      </trkpt>
      <trkpt lat="43.54524" lon="1.48858">
        <ele>199.881345</ele>
        <time>2023-01-04T10:16:54.051Z</time>
      </trkpt>
      <trkpt lat="43.54517" lon="1.48874">
        <ele>199.500313</ele>
        <time>2023-01-04T10:16:57.052Z</time>
      </trkpt>
      <trkpt lat="43.54513" lon="1.48886">
        <ele>199.222806</ele>
        <time>2023-01-04T10:16:59.034Z</time>
      </trkpt>
      <trkpt lat="43.54509" lon="1.48897">
        <ele>198.960195</ele>
        <time>2023-01-04T10:17:01.075Z</time>
      </trkpt>
      <trkpt lat="43.54503" lon="1.48914">
        <ele>198.577298</ele>
        <time>2023-01-04T10:17:04.033Z</time>
      </trkpt>
      <trkpt lat="43.54497" lon="1.48924">
        <ele>198.318899</ele>
        <time>2023-01-04T10:17:06.034Z</time>
      </trkpt>
      <trkpt lat="43.54492" lon="1.48936">
        <ele>198.04185</ele>
        <time>2023-01-04T10:17:08.056Z</time>
      </trkpt>
      <trkpt lat="43.54486" lon="1.48951">
        <ele>197.671949</ele>
        <time>2023-01-04T10:17:11.054Z</time>
      </trkpt>
      <trkpt lat="43.54481" lon="1.48963">
        <ele>197.396701</ele>
        <time>2023-01-04T10:17:13.053Z</time>
      </trkpt>
      <trkpt lat="43.54476" lon="1.48973">
        <ele>197.134741</ele>
        <time>2023-01-04T10:17:15.051Z</time>
      </trkpt>
      <trkpt lat="43.54469" lon="1.48988">
        <ele>196.759817</ele>
        <time>2023-01-04T10:17:18.058Z</time>
      </trkpt>
      <trkpt lat="43.54463" lon="1.48998">
        <ele>196.454697</ele>
        <time>2023-01-04T10:17:21.053Z</time>
      </trkpt>
      <trkpt lat="43.54455" lon="1.49006">
        <ele>196.162053</ele>
        <time>2023-01-04T10:17:26.033Z</time>
      </trkpt>
      <trkpt lat="43.54445" lon="1.49006">
        <ele>195.859304</ele>
        <time>2023-01-04T10:17:30.054Z</time>
      </trkpt>
      <trkpt lat="43.54434" lon="1.49012">
        <ele>195.484097</ele>
        <time>2023-01-04T10:17:33.052Z</time>
      </trkpt>
      <trkpt lat="43.54424" lon="1.49015">
        <ele>195.176319</ele>
        <time>2023-01-04T10:17:36.053Z</time>
      </trkpt>
      <trkpt lat="43.54411" lon="1.4902">
        <ele>194.771502</ele>
        <time>2023-01-04T10:17:39.055Z</time>
      </trkpt>
      <trkpt lat="43.54401" lon="1.49028">
        <ele>194.426555</ele>
        <time>2023-01-04T10:17:41.041Z</time>
      </trkpt>
      <trkpt lat="43.54391" lon="1.49033">
        <ele>194.089597</ele>
        <time>2023-01-04T10:17:43.035Z</time>
      </trkpt>
      <trkpt lat="43.54378" lon="1.49034">
        <ele>193.700314</ele>
        <time>2023-01-04T10:17:46.058Z</time>
      </trkpt>
      <trkpt lat="43.54367" lon="1.4904">
        <ele>193.341732</ele>
        <time>2023-01-04T10:17:48.056Z</time>
      </trkpt>
      <trkpt lat="43.54356" lon="1.49047">
        <ele>192.976815</ele>
        <time>2023-01-04T10:17:50.055Z</time>
      </trkpt>
      <trkpt lat="43.54343" lon="1.4905">
        <ele>192.571763</ele>
        <time>2023-01-04T10:17:53.031Z</time>
      </trkpt>
      <trkpt lat="43.54334" lon="1.49054">
        <ele>192.265312</ele>
        <time>2023-01-04T10:17:55.053Z</time>
      </trkpt>
      <trkpt lat="43.54325" lon="1.49059">
        <ele>191.959267</ele>
        <time>2023-01-04T10:17:57.053Z</time>
      </trkpt>
      <trkpt lat="43.54313" lon="1.49066">
        <ele>191.580053</ele>
        <time>2023-01-04T10:17:59.054Z</time>
      </trkpt>
      <trkpt lat="43.54302" lon="1.49073">
        <ele>191.556001</ele>
        <time>2023-01-04T10:18:01.037Z</time>
      </trkpt>
      <trkpt lat="43.54292" lon="1.49078">
        <ele>191.602908</ele>
        <time>2023-01-04T10:18:03.057Z</time>
      </trkpt>
      <trkpt lat="43.54283" lon="1.49081">
        <ele>191.644582</ele>
        <time>2023-01-04T10:18:05.055Z</time>
      </trkpt>
      <trkpt lat="43.54273" lon="1.49086">
        <ele>191.69304</ele>
        <time>2023-01-04T10:18:07.055Z</time>
      </trkpt>
      <trkpt lat="43.54263" lon="1.49091">
        <ele>191.741264</ele>
        <time>2023-01-04T10:18:09.054Z</time>
      </trkpt>
      <trkpt lat="43.5425" lon="1.49095">
        <ele>191.799781</ele>
        <time>2023-01-04T10:18:12.052Z</time>
      </trkpt>
      <trkpt lat="43.5424" lon="1.49099">
        <ele>191.845263</ele>
        <time>2023-01-04T10:18:14.054Z</time>
      </trkpt>
      <trkpt lat="43.54231" lon="1.49103">
        <ele>191.890825</ele>
        <time>2023-01-04T10:18:16.060Z</time>
      </trkpt>
      <trkpt lat="43.54217" lon="1.49111">
        <ele>191.955093</ele>
        <time>2023-01-04T10:18:19.055Z</time>
      </trkpt>
      <trkpt lat="43.54208" lon="1.49118">
        <ele>192.004178</ele>
        <time>2023-01-04T10:18:21.033Z</time>
      </trkpt>
      <trkpt lat="43.54198" lon="1.49122">
        <ele>192.048189</ele>
        <time>2023-01-04T10:18:24.059Z</time>
      </trkpt>
      <trkpt lat="43.54189" lon="1.49129">
        <ele>192.095071</ele>
        <time>2023-01-04T10:18:26.050Z</time>
      </trkpt>
      <trkpt lat="43.54181" lon="1.49133">
        <ele>192.13556</ele>
        <time>2023-01-04T10:18:28.055Z</time>
      </trkpt>
      <trkpt lat="43.54166" lon="1.49141">
        <ele>192.205054</ele>
        <time>2023-01-04T10:18:31.034Z</time>
      </trkpt>
      <trkpt lat="43.54156" lon="1.4915">
        <ele>192.260974</ele>
        <time>2023-01-04T10:18:33.051Z</time>
      </trkpt>
      <trkpt lat="43.54145" lon="1.49159">
        <ele>192.315648</ele>
        <time>2023-01-04T10:18:35.056Z</time>
      </trkpt>
      <trkpt lat="43.54136" lon="1.49165">
        <ele>192.591006</ele>
        <time>2023-01-04T10:18:37.052Z</time>
      </trkpt>
      <trkpt lat="43.54127" lon="1.49172">
        <ele>192.877097</ele>
        <time>2023-01-04T10:18:39.057Z</time>
      </trkpt>
      <trkpt lat="43.54118" lon="1.49178">
        <ele>193.132733</ele>
        <time>2023-01-04T10:18:41.055Z</time>
      </trkpt>
      <trkpt lat="43.54109" lon="1.49182">
        <ele>193.405467</ele>
        <time>2023-01-04T10:18:44.040Z</time>
      </trkpt>
      <trkpt lat="43.541" lon="1.49186">
        <ele>193.669841</ele>
        <time>2023-01-04T10:18:46.054Z</time>
      </trkpt>
      <trkpt lat="43.5409" lon="1.49192">
        <ele>193.950159</ele>
        <time>2023-01-04T10:18:48.057Z</time>
      </trkpt>
      <trkpt lat="43.5408" lon="1.49201">
        <ele>194.27055</ele>
        <time>2023-01-04T10:18:50.056Z</time>
      </trkpt>
      <trkpt lat="43.54069" lon="1.49208">
        <ele>194.59296</ele>
        <time>2023-01-04T10:18:52.057Z</time>
      </trkpt>
      <trkpt lat="43.54059" lon="1.49214">
        <ele>194.889113</ele>
        <time>2023-01-04T10:18:54.055Z</time>
      </trkpt>
      <trkpt lat="43.54049" lon="1.4922">
        <ele>195.185826</ele>
        <time>2023-01-04T10:18:56.053Z</time>
      </trkpt>
      <trkpt lat="43.54039" lon="1.49224">
        <ele>195.467323</ele>
        <time>2023-01-04T10:18:58.056Z</time>
      </trkpt>
      <trkpt lat="43.54029" lon="1.49229">
        <ele>195.780975</ele>
        <time>2023-01-04T10:19:00.049Z</time>
      </trkpt>
      <trkpt lat="43.54019" lon="1.49234">
        <ele>196.065761</ele>
        <time>2023-01-04T10:19:02.034Z</time>
      </trkpt>
      <trkpt lat="43.54008" lon="1.49239">
        <ele>196.362159</ele>
        <time>2023-01-04T10:19:04.052Z</time>
      </trkpt>
      <trkpt lat="43.53998" lon="1.49243">
        <ele>196.663145</ele>
        <time>2023-01-04T10:19:06.056Z</time>
      </trkpt>
      <trkpt lat="43.53987" lon="1.49247">
        <ele>196.967141</ele>
        <time>2023-01-04T10:19:08.042Z</time>
      </trkpt>
      <trkpt lat="43.53978" lon="1.49246">
        <ele>197.192132</ele>
        <time>2023-01-04T10:19:10.046Z</time>
      </trkpt>
      <trkpt lat="43.53967" lon="1.49249">
        <ele>197.09281</ele>
        <time>2023-01-04T10:19:12.052Z</time>
      </trkpt>
      <trkpt lat="43.53956" lon="1.49254">
        <ele>196.993176</ele>
        <time>2023-01-04T10:19:14.055Z</time>
      </trkpt>
      <trkpt lat="43.53946" lon="1.49257">
        <ele>196.901463</ele>
        <time>2023-01-04T10:19:16.034Z</time>
      </trkpt>
      <trkpt lat="43.53936" lon="1.49256">
        <ele>196.81708</ele>
        <time>2023-01-04T10:19:18.057Z</time>
      </trkpt>
      <trkpt lat="43.53925" lon="1.49262">
        <ele>196.710759</ele>
        <time>2023-01-04T10:19:20.060Z</time>
      </trkpt>
      <trkpt lat="43.53915" lon="1.49267">
        <ele>196.619009</ele>
        <time>2023-01-04T10:19:22.054Z</time>
      </trkpt>
      <trkpt lat="43.53905" lon="1.49273">
        <ele>196.522698</ele>
        <time>2023-01-04T10:19:24.051Z</time>
      </trkpt>
      <trkpt lat="43.53896" lon="1.49277">
        <ele>196.441076</ele>
        <time>2023-01-04T10:19:26.057Z</time>
      </trkpt>
      <trkpt lat="43.53887" lon="1.49285">
        <ele>196.3496</ele>
        <time>2023-01-04T10:19:28.053Z</time>
      </trkpt>
      <trkpt lat="43.5388" lon="1.49295">
        <ele>196.258009</ele>
        <time>2023-01-04T10:19:30.054Z</time>
      </trkpt>
      <trkpt lat="43.53873" lon="1.49307">
        <ele>196.164096</ele>
        <time>2023-01-04T10:19:32.054Z</time>
      </trkpt>
      <trkpt lat="43.53867" lon="1.49318">
        <ele>196.074924</ele>
        <time>2023-01-04T10:19:34.058Z</time>
      </trkpt>
      <trkpt lat="43.53864" lon="1.4933">
        <ele>195.992588</ele>
        <time>2023-01-04T10:19:36.038Z</time>
      </trkpt>
      <trkpt lat="43.53862" lon="1.49343">
        <ele>195.90924</ele>
        <time>2023-01-04T10:19:38.059Z</time>
      </trkpt>
      <trkpt lat="43.53861" lon="1.49357">
        <ele>195.81897</ele>
        <time>2023-01-04T10:19:41.054Z</time>
      </trkpt>
      <trkpt lat="43.53861" lon="1.49372">
        <ele>195.720802</ele>
        <time>2023-01-04T10:19:43.052Z</time>
      </trkpt>
      <trkpt lat="43.53861" lon="1.49386">
        <ele>195.631012</ele>
        <time>2023-01-04T10:19:45.054Z</time>
      </trkpt>
      <trkpt lat="43.53863" lon="1.49399">
        <ele>195.614549</ele>
        <time>2023-01-04T10:19:47.052Z</time>
      </trkpt>
      <trkpt lat="43.53863" lon="1.49414">
        <ele>195.608272</ele>
        <time>2023-01-04T10:19:49.053Z</time>
      </trkpt>
      <trkpt lat="43.53865" lon="1.49432">
        <ele>195.600537</ele>
        <time>2023-01-04T10:19:52.054Z</time>
      </trkpt>
      <trkpt lat="43.53867" lon="1.49451">
        <ele>195.592628</ele>
        <time>2023-01-04T10:19:55.052Z</time>
      </trkpt>
      <trkpt lat="43.53869" lon="1.4947">
        <ele>195.584503</ele>
        <time>2023-01-04T10:19:58.056Z</time>
      </trkpt>
      <trkpt lat="43.5387" lon="1.49488">
        <ele>195.57719</ele>
        <time>2023-01-04T10:20:01.054Z</time>
      </trkpt>
      <trkpt lat="43.53871" lon="1.49502">
        <ele>195.570952</ele>
        <time>2023-01-04T10:20:03.056Z</time>
      </trkpt>
      <trkpt lat="43.53874" lon="1.49516">
        <ele>195.565254</ele>
        <time>2023-01-04T10:20:05.051Z</time>
      </trkpt>
      <trkpt lat="43.53877" lon="1.49529">
        <ele>195.559332</ele>
        <time>2023-01-04T10:20:07.055Z</time>
      </trkpt>
      <trkpt lat="43.53879" lon="1.49544">
        <ele>195.55317</ele>
        <time>2023-01-04T10:20:09.056Z</time>
      </trkpt>
      <trkpt lat="43.53881" lon="1.49557">
        <ele>195.547352</ele>
        <time>2023-01-04T10:20:11.054Z</time>
      </trkpt>
      <trkpt lat="43.53882" lon="1.49571">
        <ele>195.541513</ele>
        <time>2023-01-04T10:20:13.042Z</time>
      </trkpt>
      <trkpt lat="43.53885" lon="1.49586">
        <ele>195.535209</ele>
        <time>2023-01-04T10:20:15.053Z</time>
      </trkpt>
      <trkpt lat="43.53888" lon="1.49599">
        <ele>195.529406</ele>
        <time>2023-01-04T10:20:17.051Z</time>
      </trkpt>
      <trkpt lat="43.53891" lon="1.49612">
        <ele>195.523441</ele>
        <time>2023-01-04T10:20:19.054Z</time>
      </trkpt>
      <trkpt lat="43.53894" lon="1.49624">
        <ele>195.518167</ele>
        <time>2023-01-04T10:20:21.056Z</time>
      </trkpt>
      <trkpt lat="43.53896" lon="1.49639">
        <ele>195.549946</ele>
        <time>2023-01-04T10:20:23.053Z</time>
      </trkpt>
      <trkpt lat="43.53899" lon="1.49652">
        <ele>195.609545</ele>
        <time>2023-01-04T10:20:25.055Z</time>
      </trkpt>
      <trkpt lat="43.53902" lon="1.49665">
        <ele>195.671481</ele>
        <time>2023-01-04T10:20:27.043Z</time>
      </trkpt>
      <trkpt lat="43.53905" lon="1.49681">
        <ele>195.743523</ele>
        <time>2023-01-04T10:20:30.056Z</time>
      </trkpt>
      <trkpt lat="43.53906" lon="1.49694">
        <ele>195.801151</ele>
        <time>2023-01-04T10:20:32.054Z</time>
      </trkpt>
      <trkpt lat="43.53907" lon="1.49707">
        <ele>195.86122</ele>
        <time>2023-01-04T10:20:34.053Z</time>
      </trkpt>
      <trkpt lat="43.53908" lon="1.49721">
        <ele>195.921077</ele>
        <time>2023-01-04T10:20:36.056Z</time>
      </trkpt>
      <trkpt lat="43.53909" lon="1.4974">
        <ele>196.006345</ele>
        <time>2023-01-04T10:20:39.056Z</time>
      </trkpt>
      <trkpt lat="43.53909" lon="1.49754">
        <ele>196.067242</ele>
        <time>2023-01-04T10:20:41.056Z</time>
      </trkpt>
      <trkpt lat="43.53909" lon="1.49767">
        <ele>196.124583</ele>
        <time>2023-01-04T10:20:43.057Z</time>
      </trkpt>
      <trkpt lat="43.53908" lon="1.49781">
        <ele>196.187895</ele>
        <time>2023-01-04T10:20:45.056Z</time>
      </trkpt>
      <trkpt lat="43.53905" lon="1.49799">
        <ele>196.266356</ele>
        <time>2023-01-04T10:20:48.056Z</time>
      </trkpt>
      <trkpt lat="43.53903" lon="1.49812">
        <ele>196.325239</ele>
        <time>2023-01-04T10:20:50.062Z</time>
      </trkpt>
      <trkpt lat="43.53901" lon="1.49828">
        <ele>196.398837</ele>
        <time>2023-01-04T10:20:53.055Z</time>
      </trkpt>
      <trkpt lat="43.53898" lon="1.49842">
        <ele>196.465095</ele>
        <time>2023-01-04T10:20:55.038Z</time>
      </trkpt>
      <trkpt lat="43.53895" lon="1.49854">
        <ele>196.5207</ele>
        <time>2023-01-04T10:20:57.051Z</time>
      </trkpt>
      <trkpt lat="43.53892" lon="1.49867">
        <ele>196.577566</ele>
        <time>2023-01-04T10:20:59.038Z</time>
      </trkpt>
      <trkpt lat="43.53888" lon="1.49883">
        <ele>196.736366</ele>
        <time>2023-01-04T10:21:02.051Z</time>
      </trkpt>
      <trkpt lat="43.53883" lon="1.499">
        <ele>196.956935</ele>
        <time>2023-01-04T10:21:05.054Z</time>
      </trkpt>
      <trkpt lat="43.53879" lon="1.49918">
        <ele>197.189095</ele>
        <time>2023-01-04T10:21:08.055Z</time>
      </trkpt>
      <trkpt lat="43.53874" lon="1.49932">
        <ele>197.377984</ele>
        <time>2023-01-04T10:21:10.055Z</time>
      </trkpt>
      <trkpt lat="43.53869" lon="1.49944">
        <ele>197.54631</ele>
        <time>2023-01-04T10:21:12.055Z</time>
      </trkpt>
      <trkpt lat="43.53864" lon="1.49956">
        <ele>197.725714</ele>
        <time>2023-01-04T10:21:14.055Z</time>
      </trkpt>
      <trkpt lat="43.53858" lon="1.49969">
        <ele>197.911288</ele>
        <time>2023-01-04T10:21:16.052Z</time>
      </trkpt>
      <trkpt lat="43.53848" lon="1.49985">
        <ele>198.170053</ele>
        <time>2023-01-04T10:21:19.060Z</time>
      </trkpt>
      <trkpt lat="43.53842" lon="1.49995">
        <ele>198.336729</ele>
        <time>2023-01-04T10:21:21.029Z</time>
      </trkpt>
      <trkpt lat="43.53836" lon="1.50005">
        <ele>198.490634</ele>
        <time>2023-01-04T10:21:23.056Z</time>
      </trkpt>
      <trkpt lat="43.53828" lon="1.50019">
        <ele>198.714066</ele>
        <time>2023-01-04T10:21:26.051Z</time>
      </trkpt>
      <trkpt lat="43.53819" lon="1.50033">
        <ele>198.940228</ele>
        <time>2023-01-04T10:21:29.055Z</time>
      </trkpt>
      <trkpt lat="43.53813" lon="1.50044">
        <ele>199.108235</ele>
        <time>2023-01-04T10:21:31.055Z</time>
      </trkpt>
      <trkpt lat="43.53806" lon="1.50055">
        <ele>199.284235</ele>
        <time>2023-01-04T10:21:33.054Z</time>
      </trkpt>
      <trkpt lat="43.53799" lon="1.50066">
        <ele>199.472691</ele>
        <time>2023-01-04T10:21:35.058Z</time>
      </trkpt>
      <trkpt lat="43.53793" lon="1.50078">
        <ele>199.654186</ele>
        <time>2023-01-04T10:21:37.055Z</time>
      </trkpt>
      <trkpt lat="43.53787" lon="1.50088">
        <ele>199.574374</ele>
        <time>2023-01-04T10:21:39.053Z</time>
      </trkpt>
      <trkpt lat="43.53781" lon="1.50099">
        <ele>199.468752</ele>
        <time>2023-01-04T10:21:41.040Z</time>
      </trkpt>
      <trkpt lat="43.53775" lon="1.5011">
        <ele>199.361232</ele>
        <time>2023-01-04T10:21:43.054Z</time>
      </trkpt>
      <trkpt lat="43.53768" lon="1.50124">
        <ele>199.227165</ele>
        <time>2023-01-04T10:21:46.053Z</time>
      </trkpt>
      <trkpt lat="43.53762" lon="1.50135">
        <ele>199.122815</ele>
        <time>2023-01-04T10:21:49.054Z</time>
      </trkpt>
      <trkpt lat="43.53756" lon="1.50146">
        <ele>199.015266</ele>
        <time>2023-01-04T10:21:52.055Z</time>
      </trkpt>
      <trkpt lat="43.53752" lon="1.50159">
        <ele>198.90196</ele>
        <time>2023-01-04T10:21:55.053Z</time>
      </trkpt>
      <trkpt lat="43.53747" lon="1.50174">
        <ele>198.774613</ele>
        <time>2023-01-04T10:21:58.055Z</time>
      </trkpt>
      <trkpt lat="43.53741" lon="1.50186">
        <ele>198.656962</ele>
        <time>2023-01-04T10:22:00.056Z</time>
      </trkpt>
      <trkpt lat="43.53735" lon="1.50198">
        <ele>198.545664</ele>
        <time>2023-01-04T10:22:02.035Z</time>
      </trkpt>
      <trkpt lat="43.53728" lon="1.50208">
        <ele>198.435696</ele>
        <time>2023-01-04T10:22:04.035Z</time>
      </trkpt>
      <trkpt lat="43.53719" lon="1.5022">
        <ele>198.301136</ele>
        <time>2023-01-04T10:22:07.029Z</time>
      </trkpt>
      <trkpt lat="43.53713" lon="1.5023">
        <ele>198.200574</ele>
        <time>2023-01-04T10:22:09.056Z</time>
      </trkpt>
      <trkpt lat="43.53707" lon="1.50239">
        <ele>198.101575</ele>
        <time>2023-01-04T10:22:11.055Z</time>
      </trkpt>
      <trkpt lat="43.53698" lon="1.5025">
        <ele>197.973364</ele>
        <time>2023-01-04T10:22:13.059Z</time>
      </trkpt>
      <trkpt lat="43.53691" lon="1.50259">
        <ele>197.87524</ele>
        <time>2023-01-04T10:22:15.044Z</time>
      </trkpt>
      <trkpt lat="43.53684" lon="1.50267">
        <ele>197.776801</ele>
        <time>2023-01-04T10:22:17.040Z</time>
      </trkpt>
      <trkpt lat="43.53674" lon="1.5028">
        <ele>197.702272</ele>
        <time>2023-01-04T10:22:20.060Z</time>
      </trkpt>
      <trkpt lat="43.53667" lon="1.50291">
        <ele>197.675226</ele>
        <time>2023-01-04T10:22:22.051Z</time>
      </trkpt>
      <trkpt lat="43.5366" lon="1.50301">
        <ele>197.647744</ele>
        <time>2023-01-04T10:22:24.055Z</time>
      </trkpt>
      <trkpt lat="43.53653" lon="1.5031">
        <ele>197.620911</ele>
        <time>2023-01-04T10:22:26.069Z</time>
      </trkpt>
      <trkpt lat="43.53646" lon="1.50318">
        <ele>197.597076</ele>
        <time>2023-01-04T10:22:28.054Z</time>
      </trkpt>
      <trkpt lat="43.53638" lon="1.50329">
        <ele>197.568755</ele>
        <time>2023-01-04T10:22:30.054Z</time>
      </trkpt>
      <trkpt lat="43.5363" lon="1.50339">
        <ele>197.53953</ele>
        <time>2023-01-04T10:22:32.061Z</time>
      </trkpt>
      <trkpt lat="43.53622" lon="1.5035">
        <ele>197.510023</ele>
        <time>2023-01-04T10:22:34.056Z</time>
      </trkpt>
      <trkpt lat="43.53614" lon="1.50359">
        <ele>197.482419</ele>
        <time>2023-01-04T10:22:36.058Z</time>
      </trkpt>
      <trkpt lat="43.53607" lon="1.50366">
        <ele>197.458503</ele>
        <time>2023-01-04T10:22:38.055Z</time>
      </trkpt>
      <trkpt lat="43.53599" lon="1.50375">
        <ele>197.430463</ele>
        <time>2023-01-04T10:22:40.056Z</time>
      </trkpt>
      <trkpt lat="43.53588" lon="1.50386">
        <ele>197.395193</ele>
        <time>2023-01-04T10:22:43.056Z</time>
      </trkpt>
      <trkpt lat="43.5358" lon="1.50393">
        <ele>197.369419</ele>
        <time>2023-01-04T10:22:45.053Z</time>
      </trkpt>
      <trkpt lat="43.53571" lon="1.50401">
        <ele>197.340591</ele>
        <time>2023-01-04T10:22:47.055Z</time>
      </trkpt>
      <trkpt lat="43.53562" lon="1.5041">
        <ele>197.313067</ele>
        <time>2023-01-04T10:22:49.054Z</time>
      </trkpt>
      <trkpt lat="43.53553" lon="1.50419">
        <ele>197.283912</ele>
        <time>2023-01-04T10:22:51.053Z</time>
      </trkpt>
      <trkpt lat="43.53545" lon="1.50426">
        <ele>197.258228</ele>
        <time>2023-01-04T10:22:53.056Z</time>
      </trkpt>
      <trkpt lat="43.53534" lon="1.50434">
        <ele>197.102893</ele>
        <time>2023-01-04T10:22:56.053Z</time>
      </trkpt>
      <trkpt lat="43.53525" lon="1.50441">
        <ele>196.94908</ele>
        <time>2023-01-04T10:22:58.063Z</time>
      </trkpt>
      <trkpt lat="43.53516" lon="1.50448">
        <ele>196.795091</ele>
        <time>2023-01-04T10:23:00.054Z</time>
      </trkpt>
      <trkpt lat="43.53508" lon="1.50455">
        <ele>196.64909</ele>
        <time>2023-01-04T10:23:02.053Z</time>
      </trkpt>
      <trkpt lat="43.53498" lon="1.50463">
        <ele>196.477077</ele>
        <time>2023-01-04T10:23:04.062Z</time>
      </trkpt>
      <trkpt lat="43.53485" lon="1.50472">
        <ele>196.260998</ele>
        <time>2023-01-04T10:23:07.054Z</time>
      </trkpt>
      <trkpt lat="43.53476" lon="1.5048">
        <ele>196.100279</ele>
        <time>2023-01-04T10:23:09.059Z</time>
      </trkpt>
      <trkpt lat="43.53468" lon="1.50486">
        <ele>195.964261</ele>
        <time>2023-01-04T10:23:11.053Z</time>
      </trkpt>
      <trkpt lat="43.53459" lon="1.5049">
        <ele>195.813626</ele>
        <time>2023-01-04T10:23:14.055Z</time>
      </trkpt>
      <trkpt lat="43.5345" lon="1.50495">
        <ele>195.676222</ele>
        <time>2023-01-04T10:23:16.055Z</time>
      </trkpt>
      <trkpt lat="43.53442" lon="1.50501">
        <ele>195.529679</ele>
        <time>2023-01-04T10:23:18.052Z</time>
      </trkpt>
      <trkpt lat="43.53429" lon="1.50506">
        <ele>195.332977</ele>
        <time>2023-01-04T10:23:21.053Z</time>
      </trkpt>
      <trkpt lat="43.53417" lon="1.50513">
        <ele>195.128328</ele>
        <time>2023-01-04T10:23:24.055Z</time>
      </trkpt>
      <trkpt lat="43.53407" lon="1.50519">
        <ele>194.976371</ele>
        <time>2023-01-04T10:23:26.057Z</time>
      </trkpt>
      <trkpt lat="43.53395" lon="1.50526">
        <ele>194.770727</ele>
        <time>2023-01-04T10:23:29.040Z</time>
      </trkpt>
      <trkpt lat="43.5338" lon="1.50532">
        <ele>194.541519</ele>
        <time>2023-01-04T10:23:32.055Z</time>
      </trkpt>
      <trkpt lat="43.53367" lon="1.50534">
        <ele>194.541377</ele>
        <time>2023-01-04T10:23:35.052Z</time>
      </trkpt>
      <trkpt lat="43.53358" lon="1.50536">
        <ele>194.541943</ele>
        <time>2023-01-04T10:23:37.055Z</time>
      </trkpt>
      <trkpt lat="43.53348" lon="1.50537">
        <ele>194.542531</ele>
        <time>2023-01-04T10:23:39.038Z</time>
      </trkpt>
      <trkpt lat="43.53339" lon="1.50538">
        <ele>194.543077</ele>
        <time>2023-01-04T10:23:41.046Z</time>
      </trkpt>
      <trkpt lat="43.53329" lon="1.5054">
        <ele>194.543675</ele>
        <time>2023-01-04T10:23:43.056Z</time>
      </trkpt>
      <trkpt lat="43.53319" lon="1.50542">
        <ele>194.544254</ele>
        <time>2023-01-04T10:23:45.052Z</time>
      </trkpt>
      <trkpt lat="43.53309" lon="1.50544">
        <ele>194.544874</ele>
        <time>2023-01-04T10:23:47.051Z</time>
      </trkpt>
      <trkpt lat="43.53299" lon="1.50545">
        <ele>194.545447</ele>
        <time>2023-01-04T10:23:49.067Z</time>
      </trkpt>
      <trkpt lat="43.53289" lon="1.50547">
        <ele>194.546035</ele>
        <time>2023-01-04T10:23:51.056Z</time>
      </trkpt>
      <trkpt lat="43.53275" lon="1.5055">
        <ele>194.546894</ele>
        <time>2023-01-04T10:23:54.063Z</time>
      </trkpt>
      <trkpt lat="43.53262" lon="1.50552">
        <ele>194.547669</ele>
        <time>2023-01-04T10:23:57.061Z</time>
      </trkpt>
      <trkpt lat="43.53248" lon="1.50553">
        <ele>194.548466</ele>
        <time>2023-01-04T10:24:00.054Z</time>
      </trkpt>
      <trkpt lat="43.53238" lon="1.50556">
        <ele>194.54909</ele>
        <time>2023-01-04T10:24:02.054Z</time>
      </trkpt>
      <trkpt lat="43.53228" lon="1.50557">
        <ele>194.549673</ele>
        <time>2023-01-04T10:24:04.034Z</time>
      </trkpt>
      <trkpt lat="43.53214" lon="1.50559">
        <ele>194.550497</ele>
        <time>2023-01-04T10:24:07.059Z</time>
      </trkpt>
      <trkpt lat="43.53205" lon="1.50561">
        <ele>194.551084</ele>
        <time>2023-01-04T10:24:09.054Z</time>
      </trkpt>
      <trkpt lat="43.53195" lon="1.50566">
        <ele>194.637151</ele>
        <time>2023-01-04T10:24:11.049Z</time>
      </trkpt>
      <trkpt lat="43.53185" lon="1.50569">
        <ele>194.768123</ele>
        <time>2023-01-04T10:24:13.057Z</time>
      </trkpt>
      <trkpt lat="43.53176" lon="1.50573">
        <ele>194.893769</ele>
        <time>2023-01-04T10:24:15.054Z</time>
      </trkpt>
      <trkpt lat="43.53165" lon="1.50578">
        <ele>195.031172</ele>
        <time>2023-01-04T10:24:17.041Z</time>
      </trkpt>
      <trkpt lat="43.53155" lon="1.50583">
        <ele>195.158847</ele>
        <time>2023-01-04T10:24:19.053Z</time>
      </trkpt>
      <trkpt lat="43.53147" lon="1.50587">
        <ele>195.277106</ele>
        <time>2023-01-04T10:24:21.055Z</time>
      </trkpt>
      <trkpt lat="43.53138" lon="1.50592">
        <ele>195.390195</ele>
        <time>2023-01-04T10:24:23.054Z</time>
      </trkpt>
      <trkpt lat="43.53127" lon="1.50598">
        <ele>195.542344</ele>
        <time>2023-01-04T10:24:26.055Z</time>
      </trkpt>
      <trkpt lat="43.53116" lon="1.50607">
        <ele>195.694388</ele>
        <time>2023-01-04T10:24:29.056Z</time>
      </trkpt>
      <trkpt lat="43.53106" lon="1.50611">
        <ele>195.827174</ele>
        <time>2023-01-04T10:24:32.068Z</time>
      </trkpt>
      <trkpt lat="43.53094" lon="1.50615">
        <ele>195.980402</ele>
        <time>2023-01-04T10:24:35.056Z</time>
      </trkpt>
      <trkpt lat="43.53082" lon="1.50624">
        <ele>196.156908</ele>
        <time>2023-01-04T10:24:38.051Z</time>
      </trkpt>
      <trkpt lat="43.53073" lon="1.50629">
        <ele>196.272911</ele>
        <time>2023-01-04T10:24:40.049Z</time>
      </trkpt>
      <trkpt lat="43.53064" lon="1.50635">
        <ele>196.398735</ele>
        <time>2023-01-04T10:24:42.045Z</time>
      </trkpt>
      <trkpt lat="43.53055" lon="1.50641">
        <ele>196.519381</ele>
        <time>2023-01-04T10:24:44.055Z</time>
      </trkpt>
      <trkpt lat="43.53044" lon="1.50649">
        <ele>196.683753</ele>
        <time>2023-01-04T10:24:47.066Z</time>
      </trkpt>
      <trkpt lat="43.53032" lon="1.50658">
        <ele>196.802862</ele>
        <time>2023-01-04T10:24:50.058Z</time>
      </trkpt>
      <trkpt lat="43.53022" lon="1.50668">
        <ele>196.824349</ele>
        <time>2023-01-04T10:24:53.056Z</time>
      </trkpt>
      <trkpt lat="43.53013" lon="1.50678">
        <ele>196.845877</ele>
        <time>2023-01-04T10:24:56.049Z</time>
      </trkpt>
      <trkpt lat="43.53003" lon="1.50689">
        <ele>196.868981</ele>
        <time>2023-01-04T10:24:59.054Z</time>
      </trkpt>
      <trkpt lat="43.52993" lon="1.507">
        <ele>196.892834</ele>
        <time>2023-01-04T10:25:02.055Z</time>
      </trkpt>
      <trkpt lat="43.52986" lon="1.50709">
        <ele>196.90944</ele>
        <time>2023-01-04T10:25:04.057Z</time>
      </trkpt>
      <trkpt lat="43.52976" lon="1.5072">
        <ele>196.932404</ele>
        <time>2023-01-04T10:25:07.055Z</time>
      </trkpt>
      <trkpt lat="43.52965" lon="1.50732">
        <ele>196.958115</ele>
        <time>2023-01-04T10:25:10.066Z</time>
      </trkpt>
      <trkpt lat="43.52954" lon="1.50744">
        <ele>196.982611</ele>
        <time>2023-01-04T10:25:13.052Z</time>
      </trkpt>
      <trkpt lat="43.52947" lon="1.50754">
        <ele>197.001259</ele>
        <time>2023-01-04T10:25:15.052Z</time>
      </trkpt>
      <trkpt lat="43.52939" lon="1.50762">
        <ele>197.019356</ele>
        <time>2023-01-04T10:25:17.057Z</time>
      </trkpt>
      <trkpt lat="43.52931" lon="1.50771">
        <ele>197.036886</ele>
        <time>2023-01-04T10:25:19.055Z</time>
      </trkpt>
      <trkpt lat="43.52923" lon="1.5078">
        <ele>197.055359</ele>
        <time>2023-01-04T10:25:21.055Z</time>
      </trkpt>
      <trkpt lat="43.52913" lon="1.5079">
        <ele>197.078106</ele>
        <time>2023-01-04T10:25:24.054Z</time>
      </trkpt>
      <trkpt lat="43.52906" lon="1.50798">
        <ele>197.094469</ele>
        <time>2023-01-04T10:25:26.056Z</time>
      </trkpt>
      <trkpt lat="43.52896" lon="1.50809">
        <ele>197.116664</ele>
        <time>2023-01-04T10:25:29.058Z</time>
      </trkpt>
      <trkpt lat="43.52888" lon="1.50816">
        <ele>197.11833</ele>
        <time>2023-01-04T10:25:31.064Z</time>
      </trkpt>
      <trkpt lat="43.52881" lon="1.50824">
        <ele>197.117639</ele>
        <time>2023-01-04T10:25:33.055Z</time>
      </trkpt>
      <trkpt lat="43.52872" lon="1.50831">
        <ele>197.116889</ele>
        <time>2023-01-04T10:25:35.054Z</time>
      </trkpt>
      <trkpt lat="43.52859" lon="1.50841">
        <ele>197.115837</ele>
        <time>2023-01-04T10:25:38.067Z</time>
      </trkpt>
      <trkpt lat="43.52847" lon="1.50849">
        <ele>197.114844</ele>
        <time>2023-01-04T10:25:41.043Z</time>
      </trkpt>
      <trkpt lat="43.52838" lon="1.50854">
        <ele>197.114155</ele>
        <time>2023-01-04T10:25:43.058Z</time>
      </trkpt>
      <trkpt lat="43.52829" lon="1.50859">
        <ele>197.11343</ele>
        <time>2023-01-04T10:25:45.055Z</time>
      </trkpt>
      <trkpt lat="43.5282" lon="1.50865">
        <ele>197.112741</ele>
        <time>2023-01-04T10:25:47.057Z</time>
      </trkpt>
      <trkpt lat="43.52807" lon="1.50872">
        <ele>197.111707</ele>
        <time>2023-01-04T10:25:50.043Z</time>
      </trkpt>
      <trkpt lat="43.52798" lon="1.50876">
        <ele>197.111002</ele>
        <time>2023-01-04T10:25:52.051Z</time>
      </trkpt>
      <trkpt lat="43.52789" lon="1.50882">
        <ele>197.110256</ele>
        <time>2023-01-04T10:25:54.057Z</time>
      </trkpt>
      <trkpt lat="43.5278" lon="1.50888">
        <ele>197.109543</ele>
        <time>2023-01-04T10:25:56.033Z</time>
      </trkpt>
      <trkpt lat="43.52772" lon="1.50895">
        <ele>197.108874</ele>
        <time>2023-01-04T10:25:58.058Z</time>
      </trkpt>
      <trkpt lat="43.52762" lon="1.50905">
        <ele>197.107961</ele>
        <time>2023-01-04T10:26:01.056Z</time>
      </trkpt>
      <trkpt lat="43.52753" lon="1.50916">
        <ele>197.107078</ele>
        <time>2023-01-04T10:26:04.056Z</time>
      </trkpt>
      <trkpt lat="43.52745" lon="1.50927">
        <ele>197.106275</ele>
        <time>2023-01-04T10:26:07.056Z</time>
      </trkpt>
      <trkpt lat="43.52738" lon="1.50939">
        <ele>197.123357</ele>
        <time>2023-01-04T10:26:10.056Z</time>
      </trkpt>
      <trkpt lat="43.5273" lon="1.50949">
        <ele>197.153342</ele>
        <time>2023-01-04T10:26:13.062Z</time>
      </trkpt>
      <trkpt lat="43.52724" lon="1.50959">
        <ele>197.180778</ele>
        <time>2023-01-04T10:26:16.054Z</time>
      </trkpt>
      <trkpt lat="43.52717" lon="1.50972">
        <ele>197.214124</ele>
        <time>2023-01-04T10:26:19.056Z</time>
      </trkpt>
      <trkpt lat="43.52711" lon="1.50983">
        <ele>197.244361</ele>
        <time>2023-01-04T10:26:22.054Z</time>
      </trkpt>
      <trkpt lat="43.52704" lon="1.50996">
        <ele>197.278918</ele>
        <time>2023-01-04T10:26:25.054Z</time>
      </trkpt>
      <trkpt lat="43.52699" lon="1.51008">
        <ele>197.309712</ele>
        <time>2023-01-04T10:26:28.048Z</time>
      </trkpt>
      <trkpt lat="43.52694" lon="1.51019">
        <ele>197.336622</ele>
        <time>2023-01-04T10:26:30.053Z</time>
      </trkpt>
      <trkpt lat="43.52689" lon="1.51033">
        <ele>197.371033</ele>
        <time>2023-01-04T10:26:33.058Z</time>
      </trkpt>
      <trkpt lat="43.52683" lon="1.51048">
        <ele>197.407027</ele>
        <time>2023-01-04T10:26:36.058Z</time>
      </trkpt>
      <trkpt lat="43.52678" lon="1.51066">
        <ele>197.447765</ele>
        <time>2023-01-04T10:26:39.053Z</time>
      </trkpt>
      <trkpt lat="43.52673" lon="1.51085">
        <ele>197.490436</ele>
        <time>2023-01-04T10:26:42.053Z</time>
      </trkpt>
      <trkpt lat="43.5267" lon="1.51098">
        <ele>197.520436</ele>
        <time>2023-01-04T10:26:44.054Z</time>
      </trkpt>
      <trkpt lat="43.52666" lon="1.51112">
        <ele>197.55217</ele>
        <time>2023-01-04T10:26:46.057Z</time>
      </trkpt>
      <trkpt lat="43.52662" lon="1.51129">
        <ele>197.590392</ele>
        <time>2023-01-04T10:26:49.057Z</time>
      </trkpt>
      <trkpt lat="43.52659" lon="1.51143">
        <ele>197.620955</ele>
        <time>2023-01-04T10:26:51.032Z</time>
      </trkpt>
      <trkpt lat="43.52657" lon="1.51156">
        <ele>197.588804</ele>
        <time>2023-01-04T10:26:53.054Z</time>
      </trkpt>
      <trkpt lat="43.52654" lon="1.51174">
        <ele>197.456774</ele>
        <time>2023-01-04T10:26:56.054Z</time>
      </trkpt>
      <trkpt lat="43.52652" lon="1.51191">
        <ele>197.331616</ele>
        <time>2023-01-04T10:26:59.055Z</time>
      </trkpt>
      <trkpt lat="43.5265" lon="1.51209">
        <ele>197.203643</ele>
        <time>2023-01-04T10:27:02.047Z</time>
      </trkpt>
      <trkpt lat="43.52649" lon="1.51221">
        <ele>197.113912</ele>
        <time>2023-01-04T10:27:04.052Z</time>
      </trkpt>
      <trkpt lat="43.52648" lon="1.51234">
        <ele>197.023161</ele>
        <time>2023-01-04T10:27:06.067Z</time>
      </trkpt>
      <trkpt lat="43.52648" lon="1.51247">
        <ele>196.929684</ele>
        <time>2023-01-04T10:27:08.057Z</time>
      </trkpt>
      <trkpt lat="43.52647" lon="1.5126">
        <ele>196.835314</ele>
        <time>2023-01-04T10:27:10.054Z</time>
      </trkpt>
      <trkpt lat="43.52647" lon="1.51273">
        <ele>196.742301</ele>
        <time>2023-01-04T10:27:12.055Z</time>
      </trkpt>
      <trkpt lat="43.52646" lon="1.51286">
        <ele>196.650209</ele>
        <time>2023-01-04T10:27:14.054Z</time>
      </trkpt>
      <trkpt lat="43.52646" lon="1.51299">
        <ele>196.557404</ele>
        <time>2023-01-04T10:27:16.054Z</time>
      </trkpt>
      <trkpt lat="43.52646" lon="1.51316">
        <ele>196.435961</ele>
        <time>2023-01-04T10:27:19.058Z</time>
      </trkpt>
      <trkpt lat="43.52645" lon="1.51333">
        <ele>196.316657</ele>
        <time>2023-01-04T10:27:22.056Z</time>
      </trkpt>
      <trkpt lat="43.52644" lon="1.5135">
        <ele>196.191651</ele>
        <time>2023-01-04T10:27:25.053Z</time>
      </trkpt>
      <trkpt lat="43.52643" lon="1.51363">
        <ele>196.102732</ele>
        <time>2023-01-04T10:27:27.053Z</time>
      </trkpt>
      <trkpt lat="43.52642" lon="1.51376">
        <ele>196.008517</ele>
        <time>2023-01-04T10:27:29.052Z</time>
      </trkpt>
      <trkpt lat="43.52641" lon="1.51389">
        <ele>195.912477</ele>
        <time>2023-01-04T10:27:31.053Z</time>
      </trkpt>
      <trkpt lat="43.5264" lon="1.51402">
        <ele>195.936271</ele>
        <time>2023-01-04T10:27:33.036Z</time>
      </trkpt>
      <trkpt lat="43.5264" lon="1.51418">
        <ele>196.100172</ele>
        <time>2023-01-04T10:27:35.058Z</time>
      </trkpt>
      <trkpt lat="43.52638" lon="1.51434">
        <ele>196.270192</ele>
        <time>2023-01-04T10:27:37.058Z</time>
      </trkpt>
      <trkpt lat="43.52636" lon="1.5145">
        <ele>196.447547</ele>
        <time>2023-01-04T10:27:39.053Z</time>
      </trkpt>
      <trkpt lat="43.52634" lon="1.51466">
        <ele>196.621997</ele>
        <time>2023-01-04T10:27:41.039Z</time>
      </trkpt>
      <trkpt lat="43.52632" lon="1.51483">
        <ele>196.796699</ele>
        <time>2023-01-04T10:27:43.054Z</time>
      </trkpt>
      <trkpt lat="43.5263" lon="1.51498">
        <ele>196.962065</ele>
        <time>2023-01-04T10:27:45.055Z</time>
      </trkpt>
      <trkpt lat="43.52628" lon="1.51512">
        <ele>197.118597</ele>
        <time>2023-01-04T10:27:47.057Z</time>
      </trkpt>
      <trkpt lat="43.52626" lon="1.51526">
        <ele>197.266326</ele>
        <time>2023-01-04T10:27:49.054Z</time>
      </trkpt>
      <trkpt lat="43.52625" lon="1.51539">
        <ele>197.403534</ele>
        <time>2023-01-04T10:27:51.055Z</time>
      </trkpt>
      <trkpt lat="43.52623" lon="1.51551">
        <ele>197.535417</ele>
        <time>2023-01-04T10:27:53.054Z</time>
      </trkpt>
      <trkpt lat="43.52616" lon="1.51565">
        <ele>197.712497</ele>
        <time>2023-01-04T10:27:56.055Z</time>
      </trkpt>
      <trkpt lat="43.52613" lon="1.5158">
        <ele>197.886739</ele>
        <time>2023-01-04T10:27:59.055Z</time>
      </trkpt>
      <trkpt lat="43.52609" lon="1.51596">
        <ele>198.065401</ele>
        <time>2023-01-04T10:28:02.050Z</time>
      </trkpt>
      <trkpt lat="43.52606" lon="1.51608">
        <ele>198.198636</ele>
        <time>2023-01-04T10:28:04.055Z</time>
      </trkpt>
      <trkpt lat="43.52601" lon="1.51626">
        <ele>198.397243</ele>
        <time>2023-01-04T10:28:07.056Z</time>
      </trkpt>
      <trkpt lat="43.52597" lon="1.51638">
        <ele>198.564203</ele>
        <time>2023-01-04T10:28:09.048Z</time>
      </trkpt>
      <trkpt lat="43.52593" lon="1.5165">
        <ele>198.787134</ele>
        <time>2023-01-04T10:28:11.056Z</time>
      </trkpt>
      <trkpt lat="43.52589" lon="1.51662">
        <ele>199.014751</ele>
        <time>2023-01-04T10:28:13.057Z</time>
      </trkpt>
      <trkpt lat="43.52586" lon="1.51675">
        <ele>199.253834</ele>
        <time>2023-01-04T10:28:15.053Z</time>
      </trkpt>
      <trkpt lat="43.52582" lon="1.51687">
        <ele>199.484589</ele>
        <time>2023-01-04T10:28:17.055Z</time>
      </trkpt>
      <trkpt lat="43.52577" lon="1.517">
        <ele>199.72879</ele>
        <time>2023-01-04T10:28:19.062Z</time>
      </trkpt>
      <trkpt lat="43.52573" lon="1.51711">
        <ele>199.945301</ele>
        <time>2023-01-04T10:28:21.045Z</time>
      </trkpt>
      <trkpt lat="43.52567" lon="1.51722">
        <ele>200.183279</ele>
        <time>2023-01-04T10:28:23.057Z</time>
      </trkpt>
      <trkpt lat="43.52562" lon="1.51734">
        <ele>200.419786</ele>
        <time>2023-01-04T10:28:25.058Z</time>
      </trkpt>
      <trkpt lat="43.52557" lon="1.51745">
        <ele>200.651589</ele>
        <time>2023-01-04T10:28:27.052Z</time>
      </trkpt>
      <trkpt lat="43.52551" lon="1.51756">
        <ele>200.873447</ele>
        <time>2023-01-04T10:28:29.056Z</time>
      </trkpt>
      <trkpt lat="43.52546" lon="1.51767">
        <ele>201.107873</ele>
        <time>2023-01-04T10:28:31.041Z</time>
      </trkpt>
      <trkpt lat="43.5254" lon="1.51778">
        <ele>201.339487</ele>
        <time>2023-01-04T10:28:33.056Z</time>
      </trkpt>
      <trkpt lat="43.52533" lon="1.51787">
        <ele>201.578246</ele>
        <time>2023-01-04T10:28:35.059Z</time>
      </trkpt>
      <trkpt lat="43.52525" lon="1.51797">
        <ele>201.825125</ele>
        <time>2023-01-04T10:28:37.054Z</time>
      </trkpt>
      <trkpt lat="43.52517" lon="1.51805">
        <ele>202.066219</ele>
        <time>2023-01-04T10:28:39.058Z</time>
      </trkpt>
      <trkpt lat="43.52509" lon="1.51813">
        <ele>202.297153</ele>
        <time>2023-01-04T10:28:41.057Z</time>
      </trkpt>
      <trkpt lat="43.52501" lon="1.5182">
        <ele>202.519621</ele>
        <time>2023-01-04T10:28:43.056Z</time>
      </trkpt>
      <trkpt lat="43.5249" lon="1.5183">
        <ele>202.780763</ele>
        <time>2023-01-04T10:28:46.053Z</time>
      </trkpt>
      <trkpt lat="43.5248" lon="1.51838">
        <ele>202.817003</ele>
        <time>2023-01-04T10:28:49.057Z</time>
      </trkpt>
      <trkpt lat="43.52469" lon="1.51846">
        <ele>202.851797</ele>
        <time>2023-01-04T10:28:52.055Z</time>
      </trkpt>
      <trkpt lat="43.52459" lon="1.51853">
        <ele>202.887119</ele>
        <time>2023-01-04T10:28:55.057Z</time>
      </trkpt>
      <trkpt lat="43.52448" lon="1.5186">
        <ele>202.923143</ele>
        <time>2023-01-04T10:28:58.057Z</time>
      </trkpt>
      <trkpt lat="43.52437" lon="1.51866">
        <ele>202.95655</ele>
        <time>2023-01-04T10:29:01.056Z</time>
      </trkpt>
      <trkpt lat="43.52428" lon="1.51871">
        <ele>202.985288</ele>
        <time>2023-01-04T10:29:04.057Z</time>
      </trkpt>
      <trkpt lat="43.52417" lon="1.51875">
        <ele>203.019769</ele>
        <time>2023-01-04T10:29:08.054Z</time>
      </trkpt>
      <trkpt lat="43.52407" lon="1.51878">
        <ele>203.05015</ele>
        <time>2023-01-04T10:29:13.055Z</time>
      </trkpt>
      <trkpt lat="43.52398" lon="1.5188">
        <ele>203.07772</ele>
        <time>2023-01-04T10:29:18.058Z</time>
      </trkpt>
      <trkpt lat="43.52388" lon="1.5188">
        <ele>203.108392</ele>
        <time>2023-01-04T10:29:22.057Z</time>
      </trkpt>
      <trkpt lat="43.52377" lon="1.51883">
        <ele>203.140916</ele>
        <time>2023-01-04T10:29:26.054Z</time>
      </trkpt>
      <trkpt lat="43.52366" lon="1.51886">
        <ele>203.172505</ele>
        <time>2023-01-04T10:29:29.048Z</time>
      </trkpt>
      <trkpt lat="43.52357" lon="1.51888">
        <ele>203.199575</ele>
        <time>2023-01-04T10:29:32.060Z</time>
      </trkpt>
      <trkpt lat="43.52346" lon="1.5189">
        <ele>203.234897</ele>
        <time>2023-01-04T10:29:36.057Z</time>
      </trkpt>
      <trkpt lat="43.52336" lon="1.51895">
        <ele>203.264929</ele>
        <time>2023-01-04T10:29:39.055Z</time>
      </trkpt>
      <trkpt lat="43.52327" lon="1.519">
        <ele>203.295204</ele>
        <time>2023-01-04T10:29:42.057Z</time>
      </trkpt>
      <trkpt lat="43.52318" lon="1.51906">
        <ele>203.360561</ele>
        <time>2023-01-04T10:29:45.057Z</time>
      </trkpt>
      <trkpt lat="43.52308" lon="1.51912">
        <ele>203.464022</ele>
        <time>2023-01-04T10:29:49.055Z</time>
      </trkpt>
      <trkpt lat="43.52299" lon="1.51916">
        <ele>203.55069</ele>
        <time>2023-01-04T10:29:52.059Z</time>
      </trkpt>
      <trkpt lat="43.5229" lon="1.51919">
        <ele>203.642671</ele>
        <time>2023-01-04T10:29:55.056Z</time>
      </trkpt>
      <trkpt lat="43.52281" lon="1.51922">
        <ele>203.734148</ele>
        <time>2023-01-04T10:29:58.053Z</time>
      </trkpt>
      <trkpt lat="43.5227" lon="1.51927">
        <ele>203.842415</ele>
        <time>2023-01-04T10:30:01.054Z</time>
      </trkpt>
      <trkpt lat="43.52259" lon="1.51932">
        <ele>203.954782</ele>
        <time>2023-01-04T10:30:04.056Z</time>
      </trkpt>
      <trkpt lat="43.52247" lon="1.51937">
        <ele>204.071861</ele>
        <time>2023-01-04T10:30:07.057Z</time>
      </trkpt>
      <trkpt lat="43.52235" lon="1.51943">
        <ele>204.191673</ele>
        <time>2023-01-04T10:30:10.040Z</time>
      </trkpt>
      <trkpt lat="43.52222" lon="1.51946">
        <ele>204.314888</ele>
        <time>2023-01-04T10:30:13.053Z</time>
      </trkpt>
      <trkpt lat="43.5221" lon="1.51949">
        <ele>204.431131</ele>
        <time>2023-01-04T10:30:16.056Z</time>
      </trkpt>
      <trkpt lat="43.52197" lon="1.51953">
        <ele>204.562097</ele>
        <time>2023-01-04T10:30:19.057Z</time>
      </trkpt>
      <trkpt lat="43.52184" lon="1.51954">
        <ele>204.683371</ele>
        <time>2023-01-04T10:30:22.054Z</time>
      </trkpt>
      <trkpt lat="43.52175" lon="1.51955">
        <ele>204.773157</ele>
        <time>2023-01-04T10:30:24.057Z</time>
      </trkpt>
      <trkpt lat="43.52164" lon="1.51956">
        <ele>204.873747</ele>
        <time>2023-01-04T10:30:26.057Z</time>
      </trkpt>
      <trkpt lat="43.52155" lon="1.51953">
        <ele>204.971262</ele>
        <time>2023-01-04T10:30:28.039Z</time>
      </trkpt>
      <trkpt lat="43.52144" lon="1.51954">
        <ele>204.992579</ele>
        <time>2023-01-04T10:30:30.056Z</time>
      </trkpt>
      <trkpt lat="43.52134" lon="1.51954">
        <ele>204.935369</ele>
        <time>2023-01-04T10:30:32.056Z</time>
      </trkpt>
      <trkpt lat="43.52121" lon="1.51956">
        <ele>204.854998</ele>
        <time>2023-01-04T10:30:35.041Z</time>
      </trkpt>
      <trkpt lat="43.52111" lon="1.5196">
        <ele>204.793756</ele>
        <time>2023-01-04T10:30:37.042Z</time>
      </trkpt>
      <trkpt lat="43.521" lon="1.51965">
        <ele>204.727933</ele>
        <time>2023-01-04T10:30:39.038Z</time>
      </trkpt>
      <trkpt lat="43.52091" lon="1.51971">
        <ele>204.667106</ele>
        <time>2023-01-04T10:30:41.054Z</time>
      </trkpt>
      <trkpt lat="43.52081" lon="1.5198">
        <ele>204.596699</ele>
        <time>2023-01-04T10:30:43.036Z</time>
      </trkpt>
      <trkpt lat="43.52072" lon="1.51986">
        <ele>204.537312</ele>
        <time>2023-01-04T10:30:45.059Z</time>
      </trkpt>
      <trkpt lat="43.5206" lon="1.51994">
        <ele>204.458174</ele>
        <time>2023-01-04T10:30:48.063Z</time>
      </trkpt>
      <trkpt lat="43.52049" lon="1.52">
        <ele>204.384746</ele>
        <time>2023-01-04T10:30:51.058Z</time>
      </trkpt>
      <trkpt lat="43.52038" lon="1.52005">
        <ele>204.318823</ele>
        <time>2023-01-04T10:30:54.056Z</time>
      </trkpt>
      <trkpt lat="43.5203" lon="1.52012">
        <ele>204.257623</ele>
        <time>2023-01-04T10:30:56.045Z</time>
      </trkpt>
      <trkpt lat="43.52021" lon="1.52015">
        <ele>204.203579</ele>
        <time>2023-01-04T10:30:58.056Z</time>
      </trkpt>
      <trkpt lat="43.52011" lon="1.52018">
        <ele>204.145774</ele>
        <time>2023-01-04T10:31:00.057Z</time>
      </trkpt>
      <trkpt lat="43.52002" lon="1.52021">
        <ele>204.087284</ele>
        <time>2023-01-04T10:31:02.053Z</time>
      </trkpt>
      <trkpt lat="43.51988" lon="1.52023">
        <ele>204.003529</ele>
        <time>2023-01-04T10:31:05.062Z</time>
      </trkpt>
      <trkpt lat="43.51977" lon="1.52024">
        <ele>203.921968</ele>
        <time>2023-01-04T10:31:07.060Z</time>
      </trkpt>
      <trkpt lat="43.51968" lon="1.52023">
        <ele>203.799982</ele>
        <time>2023-01-04T10:31:09.047Z</time>
      </trkpt>
      <trkpt lat="43.51958" lon="1.52018">
        <ele>203.665018</ele>
        <time>2023-01-04T10:31:11.055Z</time>
      </trkpt>
      <trkpt lat="43.51946" lon="1.52016">
        <ele>203.514299</ele>
        <time>2023-01-04T10:31:13.059Z</time>
      </trkpt>
      <trkpt lat="43.51935" lon="1.52013">
        <ele>203.367036</ele>
        <time>2023-01-04T10:31:15.056Z</time>
      </trkpt>
      <trkpt lat="43.51924" lon="1.5201">
        <ele>203.215188</ele>
        <time>2023-01-04T10:31:17.055Z</time>
      </trkpt>
      <trkpt lat="43.51912" lon="1.52007">
        <ele>203.056438</ele>
        <time>2023-01-04T10:31:19.057Z</time>
      </trkpt>
      <trkpt lat="43.51902" lon="1.52001">
        <ele>202.913064</ele>
        <time>2023-01-04T10:31:21.044Z</time>
      </trkpt>
      <trkpt lat="43.51891" lon="1.51997">
        <ele>202.769124</ele>
        <time>2023-01-04T10:31:23.038Z</time>
      </trkpt>
      <trkpt lat="43.51878" lon="1.51991">
        <ele>202.592985</ele>
        <time>2023-01-04T10:31:26.059Z</time>
      </trkpt>
      <trkpt lat="43.51866" lon="1.51985">
        <ele>202.427328</ele>
        <time>2023-01-04T10:31:29.056Z</time>
      </trkpt>
      <trkpt lat="43.51857" lon="1.51981">
        <ele>202.301623</ele>
        <time>2023-01-04T10:31:31.055Z</time>
      </trkpt>
      <trkpt lat="43.51846" lon="1.51977">
        <ele>202.157713</ele>
        <time>2023-01-04T10:31:33.052Z</time>
      </trkpt>
      <trkpt lat="43.51838" lon="1.51973">
        <ele>202.039604</ele>
        <time>2023-01-04T10:31:35.056Z</time>
      </trkpt>
      <trkpt lat="43.51828" lon="1.51972">
        <ele>201.911392</ele>
        <time>2023-01-04T10:31:37.057Z</time>
      </trkpt>
      <trkpt lat="43.51818" lon="1.51971">
        <ele>201.780031</ele>
        <time>2023-01-04T10:31:39.054Z</time>
      </trkpt>
      <trkpt lat="43.51808" lon="1.51973">
        <ele>201.658384</ele>
        <time>2023-01-04T10:31:41.061Z</time>
      </trkpt>
      <trkpt lat="43.51799" lon="1.51975">
        <ele>201.769981</ele>
        <time>2023-01-04T10:31:44.057Z</time>
      </trkpt>
      <trkpt lat="43.5179" lon="1.5198">
        <ele>201.995035</ele>
        <time>2023-01-04T10:31:46.055Z</time>
      </trkpt>
      <trkpt lat="43.51778" lon="1.51986">
        <ele>202.309865</ele>
        <time>2023-01-04T10:31:49.061Z</time>
      </trkpt>
      <trkpt lat="43.51768" lon="1.51994">
        <ele>202.576702</ele>
        <time>2023-01-04T10:31:51.048Z</time>
      </trkpt>
      <trkpt lat="43.51756" lon="1.52004">
        <ele>202.904529</ele>
        <time>2023-01-04T10:31:54.056Z</time>
      </trkpt>
      <trkpt lat="43.51748" lon="1.5201">
        <ele>203.123075</ele>
        <time>2023-01-04T10:31:56.057Z</time>
      </trkpt>
      <trkpt lat="43.51739" lon="1.52018">
        <ele>203.383748</ele>
        <time>2023-01-04T10:31:58.056Z</time>
      </trkpt>
      <trkpt lat="43.5173" lon="1.52023">
        <ele>203.614837</ele>
        <time>2023-01-04T10:32:00.069Z</time>
      </trkpt>
      <trkpt lat="43.51722" lon="1.52029">
        <ele>203.835856</ele>
        <time>2023-01-04T10:32:02.057Z</time>
      </trkpt>
      <trkpt lat="43.51712" lon="1.52036">
        <ele>204.100161</ele>
        <time>2023-01-04T10:32:04.038Z</time>
      </trkpt>
      <trkpt lat="43.51703" lon="1.52042">
        <ele>204.332339</ele>
        <time>2023-01-04T10:32:06.041Z</time>
      </trkpt>
      <trkpt lat="43.51692" lon="1.52046">
        <ele>204.605677</ele>
        <time>2023-01-04T10:32:09.054Z</time>
      </trkpt>
      <trkpt lat="43.51681" lon="1.52053">
        <ele>204.908907</ele>
        <time>2023-01-04T10:32:12.054Z</time>
      </trkpt>
      <trkpt lat="43.51671" lon="1.52057">
        <ele>205.15003</ele>
        <time>2023-01-04T10:32:14.056Z</time>
      </trkpt>
      <trkpt lat="43.51662" lon="1.52061">
        <ele>205.378581</ele>
        <time>2023-01-04T10:32:16.057Z</time>
      </trkpt>
      <trkpt lat="43.51652" lon="1.52066">
        <ele>205.632153</ele>
        <time>2023-01-04T10:32:18.057Z</time>
      </trkpt>
      <trkpt lat="43.51642" lon="1.52064">
        <ele>205.881758</ele>
        <time>2023-01-04T10:32:21.056Z</time>
      </trkpt>
      <trkpt lat="43.51632" lon="1.52061">
        <ele>205.923837</ele>
        <time>2023-01-04T10:32:24.055Z</time>
      </trkpt>
      <trkpt lat="43.51619" lon="1.52062">
        <ele>205.927636</ele>
        <time>2023-01-04T10:32:27.057Z</time>
      </trkpt>
      <trkpt lat="43.51608" lon="1.5206">
        <ele>205.93073</ele>
        <time>2023-01-04T10:32:29.045Z</time>
      </trkpt>
      <trkpt lat="43.51599" lon="1.52056">
        <ele>205.933317</ele>
        <time>2023-01-04T10:32:31.049Z</time>
      </trkpt>
      <trkpt lat="43.51587" lon="1.5205">
        <ele>205.936902</ele>
        <time>2023-01-04T10:32:34.054Z</time>
      </trkpt>
      <trkpt lat="43.51578" lon="1.52039">
        <ele>205.940161</ele>
        <time>2023-01-04T10:32:37.067Z</time>
      </trkpt>
      <trkpt lat="43.5157" lon="1.52029">
        <ele>205.943269</ele>
        <time>2023-01-04T10:32:40.057Z</time>
      </trkpt>
      <trkpt lat="43.51562" lon="1.52018">
        <ele>205.946405</ele>
        <time>2023-01-04T10:32:43.053Z</time>
      </trkpt>
      <trkpt lat="43.51554" lon="1.52005">
        <ele>205.949965</ele>
        <time>2023-01-04T10:32:46.054Z</time>
      </trkpt>
      <trkpt lat="43.51546" lon="1.51997">
        <ele>205.952693</ele>
        <time>2023-01-04T10:32:48.057Z</time>
      </trkpt>
      <trkpt lat="43.51539" lon="1.51989">
        <ele>205.955295</ele>
        <time>2023-01-04T10:32:50.057Z</time>
      </trkpt>
      <trkpt lat="43.51529" lon="1.51978">
        <ele>205.958863</ele>
        <time>2023-01-04T10:32:53.057Z</time>
      </trkpt>
      <trkpt lat="43.51522" lon="1.5197">
        <ele>205.961411</ele>
        <time>2023-01-04T10:32:55.054Z</time>
      </trkpt>
      <trkpt lat="43.51515" lon="1.51962">
        <ele>205.96407</ele>
        <time>2023-01-04T10:32:57.056Z</time>
      </trkpt>
      <trkpt lat="43.51508" lon="1.51953">
        <ele>205.966789</ele>
        <time>2023-01-04T10:32:59.056Z</time>
      </trkpt>
      <trkpt lat="43.51501" lon="1.51945">
        <ele>205.96935</ele>
        <time>2023-01-04T10:33:01.043Z</time>
      </trkpt>
      <trkpt lat="43.51493" lon="1.5193">
        <ele>205.957945</ele>
        <time>2023-01-04T10:33:04.053Z</time>
      </trkpt>
      <trkpt lat="43.51488" lon="1.5192">
        <ele>205.915111</ele>
        <time>2023-01-04T10:33:06.047Z</time>
      </trkpt>
      <trkpt lat="43.51483" lon="1.51909">
        <ele>205.871463</ele>
        <time>2023-01-04T10:33:08.067Z</time>
      </trkpt>
      <trkpt lat="43.51478" lon="1.51894">
        <ele>205.815022</ele>
        <time>2023-01-04T10:33:11.062Z</time>
      </trkpt>
      <trkpt lat="43.51476" lon="1.5188">
        <ele>205.765993</ele>
        <time>2023-01-04T10:33:14.061Z</time>
      </trkpt>
      <trkpt lat="43.51474" lon="1.51864">
        <ele>205.711524</ele>
        <time>2023-01-04T10:33:16.058Z</time>
      </trkpt>
      <trkpt lat="43.51473" lon="1.51851">
        <ele>205.666582</ele>
        <time>2023-01-04T10:33:18.054Z</time>
      </trkpt>
      <trkpt lat="43.51473" lon="1.51837">
        <ele>205.618418</ele>
        <time>2023-01-04T10:33:21.069Z</time>
      </trkpt>
      <trkpt lat="43.51471" lon="1.51825">
        <ele>205.575398</ele>
        <time>2023-01-04T10:33:25.047Z</time>
      </trkpt>
      <trkpt lat="43.51465" lon="1.51816">
        <ele>205.530713</ele>
        <time>2023-01-04T10:33:29.040Z</time>
      </trkpt>
      <trkpt lat="43.51454" lon="1.51811">
        <ele>205.478329</ele>
        <time>2023-01-04T10:33:32.059Z</time>
      </trkpt>
      <trkpt lat="43.51444" lon="1.51807">
        <ele>205.430702</ele>
        <time>2023-01-04T10:33:35.042Z</time>
      </trkpt>
      <trkpt lat="43.51434" lon="1.51803">
        <ele>205.380169</ele>
        <time>2023-01-04T10:33:38.056Z</time>
      </trkpt>
      <trkpt lat="43.51424" lon="1.51799">
        <ele>205.329127</ele>
        <time>2023-01-04T10:33:41.044Z</time>
      </trkpt>
      <trkpt lat="43.51413" lon="1.51794">
        <ele>205.276294</ele>
        <time>2023-01-04T10:33:44.057Z</time>
      </trkpt>
      <trkpt lat="43.51404" lon="1.51784">
        <ele>205.224023</ele>
        <time>2023-01-04T10:33:47.051Z</time>
      </trkpt>
      <trkpt lat="43.51402" lon="1.51769">
        <ele>205.169972</ele>
        <time>2023-01-04T10:33:50.055Z</time>
      </trkpt>
      <trkpt lat="43.51401" lon="1.51752">
        <ele>205.130028</ele>
        <time>2023-01-04T10:33:53.058Z</time>
      </trkpt>
      <trkpt lat="43.514" lon="1.51736">
        <ele>205.148319</ele>
        <time>2023-01-04T10:33:56.054Z</time>
      </trkpt>
      <trkpt lat="43.51397" lon="1.51722">
        <ele>205.16511</ele>
        <time>2023-01-04T10:33:59.059Z</time>
      </trkpt>
      <trkpt lat="43.51387" lon="1.51718">
        <ele>205.180729</ele>
        <time>2023-01-04T10:34:02.057Z</time>
      </trkpt>
      <trkpt lat="43.51376" lon="1.51721">
        <ele>205.197923</ele>
        <time>2023-01-04T10:34:05.067Z</time>
      </trkpt>
      <trkpt lat="43.51365" lon="1.51723">
        <ele>205.215973</ele>
        <time>2023-01-04T10:34:08.066Z</time>
      </trkpt>
      <trkpt lat="43.51354" lon="1.51725">
        <ele>205.232747</ele>
        <time>2023-01-04T10:34:11.053Z</time>
      </trkpt>
      <trkpt lat="43.51345" lon="1.51716">
        <ele>205.24875</ele>
        <time>2023-01-04T10:34:14.038Z</time>
      </trkpt>
      <trkpt lat="43.5134" lon="1.51705">
        <ele>205.264068</ele>
        <time>2023-01-04T10:34:17.039Z</time>
      </trkpt>
      <trkpt lat="43.51334" lon="1.51695">
        <ele>205.278799</ele>
        <time>2023-01-04T10:34:20.061Z</time>
      </trkpt>
      <trkpt lat="43.51326" lon="1.51688">
        <ele>205.292962</ele>
        <time>2023-01-04T10:34:23.056Z</time>
      </trkpt>
      <trkpt lat="43.51315" lon="1.51686">
        <ele>205.310791</ele>
        <time>2023-01-04T10:34:27.054Z</time>
      </trkpt>
      <trkpt lat="43.51303" lon="1.51689">
        <ele>205.328615</ele>
        <time>2023-01-04T10:34:30.058Z</time>
      </trkpt>
      <trkpt lat="43.51293" lon="1.51692">
        <ele>205.344854</ele>
        <time>2023-01-04T10:34:33.057Z</time>
      </trkpt>
      <trkpt lat="43.5128" lon="1.51695">
        <ele>205.36546</ele>
        <time>2023-01-04T10:34:36.066Z</time>
      </trkpt>
      <trkpt lat="43.51269" lon="1.517">
        <ele>205.382741</ele>
        <time>2023-01-04T10:34:38.038Z</time>
      </trkpt>
      <trkpt lat="43.5126" lon="1.51702">
        <ele>205.39669</ele>
        <time>2023-01-04T10:34:40.053Z</time>
      </trkpt>
      <trkpt lat="43.5125" lon="1.51705">
        <ele>205.451371</ele>
        <time>2023-01-04T10:34:42.066Z</time>
      </trkpt>
      <trkpt lat="43.51241" lon="1.51709">
        <ele>205.541674</ele>
        <time>2023-01-04T10:34:44.075Z</time>
      </trkpt>
      <trkpt lat="43.51231" lon="1.51712">
        <ele>205.629366</ele>
        <time>2023-01-04T10:34:46.054Z</time>
      </trkpt>
      <trkpt lat="43.51218" lon="1.51715">
        <ele>205.75124</ele>
        <time>2023-01-04T10:34:49.066Z</time>
      </trkpt>
      <trkpt lat="43.51206" lon="1.51719">
        <ele>205.862034</ele>
        <time>2023-01-04T10:34:52.037Z</time>
      </trkpt>
      <trkpt lat="43.51197" lon="1.51722">
        <ele>205.947331</ele>
        <time>2023-01-04T10:34:54.059Z</time>
      </trkpt>
      <trkpt lat="43.51185" lon="1.51725">
        <ele>206.058829</ele>
        <time>2023-01-04T10:34:57.040Z</time>
      </trkpt>
      <trkpt lat="43.5117" lon="1.51724">
        <ele>206.189553</ele>
        <time>2023-01-04T10:35:00.056Z</time>
      </trkpt>
      <trkpt lat="43.5116" lon="1.51728">
        <ele>206.283345</ele>
        <time>2023-01-04T10:35:02.067Z</time>
      </trkpt>
      <trkpt lat="43.51151" lon="1.5173">
        <ele>206.368441</ele>
        <time>2023-01-04T10:35:04.049Z</time>
      </trkpt>
      <trkpt lat="43.51138" lon="1.51733">
        <ele>206.480322</ele>
        <time>2023-01-04T10:35:07.050Z</time>
      </trkpt>
      <trkpt lat="43.5113" lon="1.51736">
        <ele>206.562993</ele>
        <time>2023-01-04T10:35:10.056Z</time>
      </trkpt>
      <trkpt lat="43.5112" lon="1.51742">
        <ele>206.655216</ele>
        <time>2023-01-04T10:35:18.049Z</time>
      </trkpt>
      <trkpt lat="43.51112" lon="1.51747">
        <ele>206.741144</ele>
        <time>2023-01-04T10:35:31.036Z</time>
      </trkpt>
      <trkpt lat="43.51103" lon="1.5175">
        <ele>206.824385</ele>
        <time>2023-01-04T10:35:35.055Z</time>
      </trkpt>
      <trkpt lat="43.51093" lon="1.51753">
        <ele>206.911878</ele>
        <time>2023-01-04T10:35:39.059Z</time>
      </trkpt>
      <trkpt lat="43.51081" lon="1.51755">
        <ele>207.018318</ele>
        <time>2023-01-04T10:35:43.055Z</time>
      </trkpt>
      <trkpt lat="43.51072" lon="1.51759">
        <ele>207.205456</ele>
        <time>2023-01-04T10:35:46.059Z</time>
      </trkpt>
      <trkpt lat="43.51063" lon="1.51762">
        <ele>207.381437</ele>
        <time>2023-01-04T10:35:49.055Z</time>
      </trkpt>
      <trkpt lat="43.51053" lon="1.51765">
        <ele>207.566551</ele>
        <time>2023-01-04T10:35:52.059Z</time>
      </trkpt>
      <trkpt lat="43.51043" lon="1.51768">
        <ele>207.759409</ele>
        <time>2023-01-04T10:35:55.044Z</time>
      </trkpt>
      <trkpt lat="43.51034" lon="1.5177">
        <ele>207.946729</ele>
        <time>2023-01-04T10:35:58.047Z</time>
      </trkpt>
      <trkpt lat="43.51023" lon="1.5177">
        <ele>208.141097</ele>
        <time>2023-01-04T10:36:01.061Z</time>
      </trkpt>
      <trkpt lat="43.51013" lon="1.51774">
        <ele>208.350511</ele>
        <time>2023-01-04T10:36:04.043Z</time>
      </trkpt>
      <trkpt lat="43.51003" lon="1.51779">
        <ele>208.554165</ele>
        <time>2023-01-04T10:36:07.057Z</time>
      </trkpt>
      <trkpt lat="43.50993" lon="1.51784">
        <ele>208.748752</ele>
        <time>2023-01-04T10:36:09.056Z</time>
      </trkpt>
      <trkpt lat="43.50981" lon="1.5179">
        <ele>209.000568</ele>
        <time>2023-01-04T10:36:12.058Z</time>
      </trkpt>
      <trkpt lat="43.50972" lon="1.51793">
        <ele>209.171124</ele>
        <time>2023-01-04T10:36:14.063Z</time>
      </trkpt>
      <trkpt lat="43.50962" lon="1.51799">
        <ele>209.373212</ele>
        <time>2023-01-04T10:36:16.057Z</time>
      </trkpt>
      <trkpt lat="43.50952" lon="1.51808">
        <ele>209.604837</ele>
        <time>2023-01-04T10:36:19.057Z</time>
      </trkpt>
      <trkpt lat="43.50943" lon="1.51817">
        <ele>209.822154</ele>
        <time>2023-01-04T10:36:22.036Z</time>
      </trkpt>
      <trkpt lat="43.50932" lon="1.51825">
        <ele>210.051604</ele>
        <time>2023-01-04T10:36:25.054Z</time>
      </trkpt>
      <trkpt lat="43.50921" lon="1.51836">
        <ele>210.312036</ele>
        <time>2023-01-04T10:36:28.048Z</time>
      </trkpt>
      <trkpt lat="43.5091" lon="1.51847">
        <ele>210.505368</ele>
        <time>2023-01-04T10:36:31.057Z</time>
      </trkpt>
      <trkpt lat="43.50902" lon="1.51855">
        <ele>210.585563</ele>
        <time>2023-01-04T10:36:33.054Z</time>
      </trkpt>
      <trkpt lat="43.50894" lon="1.51863">
        <ele>210.661394</ele>
        <time>2023-01-04T10:36:35.065Z</time>
      </trkpt>
      <trkpt lat="43.50884" lon="1.51873">
        <ele>210.766199</ele>
        <time>2023-01-04T10:36:38.060Z</time>
      </trkpt>
      <trkpt lat="43.50873" lon="1.51883">
        <ele>210.874769</ele>
        <time>2023-01-04T10:36:41.054Z</time>
      </trkpt>
      <trkpt lat="43.50863" lon="1.51893">
        <ele>210.977943</ele>
        <time>2023-01-04T10:36:44.068Z</time>
      </trkpt>
      <trkpt lat="43.50853" lon="1.51904">
        <ele>211.080627</ele>
        <time>2023-01-04T10:36:47.066Z</time>
      </trkpt>
      <trkpt lat="43.50846" lon="1.51913">
        <ele>211.159968</ele>
        <time>2023-01-04T10:36:49.051Z</time>
      </trkpt>
      <trkpt lat="43.50839" lon="1.51922">
        <ele>211.236706</ele>
        <time>2023-01-04T10:36:51.040Z</time>
      </trkpt>
      <trkpt lat="43.50829" lon="1.51934">
        <ele>211.344595</ele>
        <time>2023-01-04T10:36:54.059Z</time>
      </trkpt>
      <trkpt lat="43.50822" lon="1.51942">
        <ele>211.418316</ele>
        <time>2023-01-04T10:36:56.048Z</time>
      </trkpt>
      <trkpt lat="43.50815" lon="1.51951">
        <ele>211.498073</ele>
        <time>2023-01-04T10:36:58.064Z</time>
      </trkpt>
      <trkpt lat="43.50807" lon="1.51961">
        <ele>211.588297</ele>
        <time>2023-01-04T10:37:00.061Z</time>
      </trkpt>
      <trkpt lat="43.50798" lon="1.51971">
        <ele>211.677853</ele>
        <time>2023-01-04T10:37:02.073Z</time>
      </trkpt>
      <trkpt lat="43.50791" lon="1.51979">
        <ele>211.757849</ele>
        <time>2023-01-04T10:37:04.072Z</time>
      </trkpt>
      <trkpt lat="43.50784" lon="1.51988">
        <ele>211.834984</ele>
        <time>2023-01-04T10:37:06.063Z</time>
      </trkpt>
      <trkpt lat="43.50774" lon="1.52">
        <ele>211.883433</ele>
        <time>2023-01-04T10:37:09.056Z</time>
      </trkpt>
      <trkpt lat="43.50766" lon="1.52008">
        <ele>211.687202</ele>
        <time>2023-01-04T10:37:11.046Z</time>
      </trkpt>
      <trkpt lat="43.50754" lon="1.52019">
        <ele>211.418119</ele>
        <time>2023-01-04T10:37:14.056Z</time>
      </trkpt>
      <trkpt lat="43.50746" lon="1.52027">
        <ele>211.228354</ele>
        <time>2023-01-04T10:37:16.064Z</time>
      </trkpt>
      <trkpt lat="43.50738" lon="1.52034">
        <ele>211.050367</ele>
        <time>2023-01-04T10:37:18.055Z</time>
      </trkpt>
      <trkpt lat="43.50725" lon="1.52042">
        <ele>210.777725</ele>
        <time>2023-01-04T10:37:21.056Z</time>
      </trkpt>
      <trkpt lat="43.50716" lon="1.52047">
        <ele>210.594199</ele>
        <time>2023-01-04T10:37:23.056Z</time>
      </trkpt>
      <trkpt lat="43.50707" lon="1.52053">
        <ele>210.406577</ele>
        <time>2023-01-04T10:37:25.065Z</time>
      </trkpt>
      <trkpt lat="43.50698" lon="1.52056">
        <ele>210.226747</ele>
        <time>2023-01-04T10:37:27.046Z</time>
      </trkpt>
      <trkpt lat="43.50689" lon="1.52061">
        <ele>210.041985</ele>
        <time>2023-01-04T10:37:29.054Z</time>
      </trkpt>
      <trkpt lat="43.50677" lon="1.52064">
        <ele>209.810711</ele>
        <time>2023-01-04T10:37:32.049Z</time>
      </trkpt>
      <trkpt lat="43.50668" lon="1.52068">
        <ele>209.625722</ele>
        <time>2023-01-04T10:37:34.054Z</time>
      </trkpt>
      <trkpt lat="43.50655" lon="1.52071">
        <ele>209.36816</ele>
        <time>2023-01-04T10:37:37.055Z</time>
      </trkpt>
      <trkpt lat="43.50642" lon="1.52073">
        <ele>209.118168</ele>
        <time>2023-01-04T10:37:40.059Z</time>
      </trkpt>
      <trkpt lat="43.50632" lon="1.52076">
        <ele>208.935466</ele>
        <time>2023-01-04T10:37:42.055Z</time>
      </trkpt>
      <trkpt lat="43.5062" lon="1.52076">
        <ele>208.694561</ele>
        <time>2023-01-04T10:37:45.046Z</time>
      </trkpt>
      <trkpt lat="43.50607" lon="1.52077">
        <ele>208.479729</ele>
        <time>2023-01-04T10:37:48.041Z</time>
      </trkpt>
      <trkpt lat="43.50595" lon="1.52078">
        <ele>208.415558</ele>
        <time>2023-01-04T10:37:51.061Z</time>
      </trkpt>
      <trkpt lat="43.50583" lon="1.52079">
        <ele>208.356161</ele>
        <time>2023-01-04T10:37:54.056Z</time>
      </trkpt>
      <trkpt lat="43.50571" lon="1.5208">
        <ele>208.292468</ele>
        <time>2023-01-04T10:37:57.043Z</time>
      </trkpt>
      <trkpt lat="43.50558" lon="1.52082">
        <ele>208.223417</ele>
        <time>2023-01-04T10:38:00.061Z</time>
      </trkpt>
      <trkpt lat="43.50544" lon="1.52085">
        <ele>208.154682</ele>
        <time>2023-01-04T10:38:03.059Z</time>
      </trkpt>
      <trkpt lat="43.50532" lon="1.52089">
        <ele>208.090745</ele>
        <time>2023-01-04T10:38:06.061Z</time>
      </trkpt>
      <trkpt lat="43.50521" lon="1.52092">
        <ele>208.030213</ele>
        <time>2023-01-04T10:38:09.056Z</time>
      </trkpt>
      <trkpt lat="43.50512" lon="1.52098">
        <ele>207.983252</ele>
        <time>2023-01-04T10:38:11.067Z</time>
      </trkpt>
      <trkpt lat="43.50503" lon="1.52107">
        <ele>207.923833</ele>
        <time>2023-01-04T10:38:13.046Z</time>
      </trkpt>
      <trkpt lat="43.50492" lon="1.52115">
        <ele>207.859571</ele>
        <time>2023-01-04T10:38:16.049Z</time>
      </trkpt>
      <trkpt lat="43.50482" lon="1.52129">
        <ele>207.787332</ele>
        <time>2023-01-04T10:38:19.038Z</time>
      </trkpt>
      <trkpt lat="43.50475" lon="1.52138">
        <ele>207.740237</ele>
        <time>2023-01-04T10:38:21.043Z</time>
      </trkpt>
      <trkpt lat="43.50468" lon="1.52147">
        <ele>207.691514</ele>
        <time>2023-01-04T10:38:23.055Z</time>
      </trkpt>
      <trkpt lat="43.50458" lon="1.5216">
        <ele>207.622295</ele>
        <time>2023-01-04T10:38:26.067Z</time>
      </trkpt>
      <trkpt lat="43.50449" lon="1.52172">
        <ele>207.535705</ele>
        <time>2023-01-04T10:38:29.042Z</time>
      </trkpt>
      <trkpt lat="43.50442" lon="1.52186">
        <ele>207.376658</ele>
        <time>2023-01-04T10:38:32.067Z</time>
      </trkpt>
      <trkpt lat="43.50436" lon="1.522">
        <ele>207.236355</ele>
        <time>2023-01-04T10:38:35.060Z</time>
      </trkpt>
      <trkpt lat="43.50431" lon="1.52215">
        <ele>207.078539</ele>
        <time>2023-01-04T10:38:38.064Z</time>
      </trkpt>
      <trkpt lat="43.50428" lon="1.5223">
        <ele>206.929953</ele>
        <time>2023-01-04T10:38:41.055Z</time>
      </trkpt>
      <trkpt lat="43.50428" lon="1.52244">
        <ele>206.800869</ele>
        <time>2023-01-04T10:38:43.060Z</time>
      </trkpt>
      <trkpt lat="43.50429" lon="1.52257">
        <ele>206.675506</ele>
        <time>2023-01-04T10:38:45.069Z</time>
      </trkpt>
      <trkpt lat="43.50429" lon="1.5227">
        <ele>206.554406</ele>
        <time>2023-01-04T10:38:47.058Z</time>
      </trkpt>
      <trkpt lat="43.5043" lon="1.52288">
        <ele>206.388845</ele>
        <time>2023-01-04T10:38:50.072Z</time>
      </trkpt>
      <trkpt lat="43.5043" lon="1.52303">
        <ele>206.24746</ele>
        <time>2023-01-04T10:38:53.065Z</time>
      </trkpt>
      <trkpt lat="43.50427" lon="1.52318">
        <ele>206.108015</ele>
        <time>2023-01-04T10:38:56.055Z</time>
      </trkpt>
      <trkpt lat="43.50425" lon="1.52332">
        <ele>205.973633</ele>
        <time>2023-01-04T10:38:59.059Z</time>
      </trkpt>
      <trkpt lat="43.50424" lon="1.52348">
        <ele>205.821635</ele>
        <time>2023-01-04T10:39:02.059Z</time>
      </trkpt>
      <trkpt lat="43.50424" lon="1.52362">
        <ele>205.687874</ele>
        <time>2023-01-04T10:39:05.064Z</time>
      </trkpt>
      <trkpt lat="43.50424" lon="1.52377">
        <ele>205.550821</ele>
        <time>2023-01-04T10:39:08.037Z</time>
      </trkpt>
      <trkpt lat="43.50425" lon="1.52392">
        <ele>205.411163</ele>
        <time>2023-01-04T10:39:11.067Z</time>
      </trkpt>
      <trkpt lat="43.50426" lon="1.52404">
        <ele>205.290746</ele>
        <time>2023-01-04T10:39:14.055Z</time>
      </trkpt>
      <trkpt lat="43.50423" lon="1.5242">
        <ele>205.306349</ele>
        <time>2023-01-04T10:39:17.065Z</time>
      </trkpt>
      <trkpt lat="43.50421" lon="1.52434">
        <ele>205.385552</ele>
        <time>2023-01-04T10:39:20.058Z</time>
      </trkpt>
      <trkpt lat="43.50417" lon="1.52448">
        <ele>205.467862</ele>
        <time>2023-01-04T10:39:22.060Z</time>
      </trkpt>
      <trkpt lat="43.50414" lon="1.52461">
        <ele>205.543493</ele>
        <time>2023-01-04T10:39:24.059Z</time>
      </trkpt>
      <trkpt lat="43.50411" lon="1.52474">
        <ele>205.616194</ele>
        <time>2023-01-04T10:39:26.069Z</time>
      </trkpt>
      <trkpt lat="43.50408" lon="1.52487">
        <ele>205.690372</ele>
        <time>2023-01-04T10:39:28.058Z</time>
      </trkpt>
      <trkpt lat="43.50405" lon="1.52499">
        <ele>205.761388</ele>
        <time>2023-01-04T10:39:30.056Z</time>
      </trkpt>
      <trkpt lat="43.50401" lon="1.52516">
        <ele>205.857591</ele>
        <time>2023-01-04T10:39:33.056Z</time>
      </trkpt>
      <trkpt lat="43.50398" lon="1.52531">
        <ele>205.94528</ele>
        <time>2023-01-04T10:39:35.051Z</time>
      </trkpt>
      <trkpt lat="43.50395" lon="1.52545">
        <ele>206.021427</ele>
        <time>2023-01-04T10:39:37.058Z</time>
      </trkpt>
      <trkpt lat="43.50393" lon="1.52559">
        <ele>206.103442</ele>
        <time>2023-01-04T10:39:39.040Z</time>
      </trkpt>
      <trkpt lat="43.5039" lon="1.52574">
        <ele>206.185616</ele>
        <time>2023-01-04T10:39:41.045Z</time>
      </trkpt>
      <trkpt lat="43.50387" lon="1.52592">
        <ele>206.284418</ele>
        <time>2023-01-04T10:39:44.052Z</time>
      </trkpt>
      <trkpt lat="43.50384" lon="1.52607">
        <ele>206.371262</ele>
        <time>2023-01-04T10:39:47.065Z</time>
      </trkpt>
      <trkpt lat="43.50379" lon="1.52625">
        <ele>206.47406</ele>
        <time>2023-01-04T10:39:50.046Z</time>
      </trkpt>
      <trkpt lat="43.50375" lon="1.52637">
        <ele>206.548573</ele>
        <time>2023-01-04T10:39:52.058Z</time>
      </trkpt>
      <trkpt lat="43.50372" lon="1.52652">
        <ele>206.640618</ele>
        <time>2023-01-04T10:39:55.055Z</time>
      </trkpt>
      <trkpt lat="43.50368" lon="1.5267">
        <ele>206.752703</ele>
        <time>2023-01-04T10:39:58.055Z</time>
      </trkpt>
      <trkpt lat="43.50362" lon="1.52687">
        <ele>206.871434</ele>
        <time>2023-01-04T10:40:01.037Z</time>
      </trkpt>
      <trkpt lat="43.50354" lon="1.52698">
        <ele>206.968372</ele>
        <time>2023-01-04T10:40:03.059Z</time>
      </trkpt>
      <trkpt lat="43.50349" lon="1.52709">
        <ele>207.049933</ele>
        <time>2023-01-04T10:40:05.040Z</time>
      </trkpt>
      <trkpt lat="43.50343" lon="1.52719">
        <ele>207.128418</ele>
        <time>2023-01-04T10:40:07.062Z</time>
      </trkpt>
      <trkpt lat="43.50335" lon="1.5273">
        <ele>207.226136</ele>
        <time>2023-01-04T10:40:10.056Z</time>
      </trkpt>
      <trkpt lat="43.50326" lon="1.52742">
        <ele>207.334023</ele>
        <time>2023-01-04T10:40:13.061Z</time>
      </trkpt>
      <trkpt lat="43.50319" lon="1.5275">
        <ele>207.411667</ele>
        <time>2023-01-04T10:40:15.059Z</time>
      </trkpt>
      <trkpt lat="43.5031" lon="1.52763">
        <ele>207.520852</ele>
        <time>2023-01-04T10:40:18.055Z</time>
      </trkpt>
      <trkpt lat="43.50302" lon="1.52777">
        <ele>207.638274</ele>
        <time>2023-01-04T10:40:21.068Z</time>
      </trkpt>
      <trkpt lat="43.50293" lon="1.52786">
        <ele>207.725113</ele>
        <time>2023-01-04T10:40:23.058Z</time>
      </trkpt>
      <trkpt lat="43.50285" lon="1.52793">
        <ele>207.809409</ele>
        <time>2023-01-04T10:40:25.067Z</time>
      </trkpt>
      <trkpt lat="43.50278" lon="1.52801">
        <ele>207.892701</ele>
        <time>2023-01-04T10:40:27.062Z</time>
      </trkpt>
      <trkpt lat="43.5027" lon="1.52809">
        <ele>207.969965</ele>
        <time>2023-01-04T10:40:29.054Z</time>
      </trkpt>
      <trkpt lat="43.50262" lon="1.52816">
        <ele>208.052272</ele>
        <time>2023-01-04T10:40:31.060Z</time>
      </trkpt>
      <trkpt lat="43.5025" lon="1.52826">
        <ele>208.098954</ele>
        <time>2023-01-04T10:40:34.057Z</time>
      </trkpt>
      <trkpt lat="43.50242" lon="1.52834">
        <ele>207.999679</ele>
        <time>2023-01-04T10:40:36.068Z</time>
      </trkpt>
      <trkpt lat="43.50232" lon="1.52843">
        <ele>207.887756</ele>
        <time>2023-01-04T10:40:38.066Z</time>
      </trkpt>
      <trkpt lat="43.50224" lon="1.5285">
        <ele>207.79149</ele>
        <time>2023-01-04T10:40:40.058Z</time>
      </trkpt>
      <trkpt lat="43.50215" lon="1.52856">
        <ele>207.696237</ele>
        <time>2023-01-04T10:40:42.062Z</time>
      </trkpt>
      <trkpt lat="43.50207" lon="1.52863">
        <ele>207.599773</ele>
        <time>2023-01-04T10:40:44.061Z</time>
      </trkpt>
      <trkpt lat="43.50196" lon="1.52872">
        <ele>207.469346</ele>
        <time>2023-01-04T10:40:47.063Z</time>
      </trkpt>
      <trkpt lat="43.50187" lon="1.52879">
        <ele>207.373103</ele>
        <time>2023-01-04T10:40:49.067Z</time>
      </trkpt>
      <trkpt lat="43.50179" lon="1.52885">
        <ele>207.282407</ele>
        <time>2023-01-04T10:40:51.055Z</time>
      </trkpt>
      <trkpt lat="43.5017" lon="1.52893">
        <ele>207.17735</ele>
        <time>2023-01-04T10:40:53.061Z</time>
      </trkpt>
      <trkpt lat="43.50161" lon="1.529">
        <ele>207.071724</ele>
        <time>2023-01-04T10:40:55.056Z</time>
      </trkpt>
      <trkpt lat="43.50153" lon="1.52907">
        <ele>206.978528</ele>
        <time>2023-01-04T10:40:57.061Z</time>
      </trkpt>
      <trkpt lat="43.50144" lon="1.52914">
        <ele>206.881075</ele>
        <time>2023-01-04T10:40:59.067Z</time>
      </trkpt>
      <trkpt lat="43.50136" lon="1.52921">
        <ele>206.78005</ele>
        <time>2023-01-04T10:41:01.059Z</time>
      </trkpt>
      <trkpt lat="43.50127" lon="1.52928">
        <ele>206.685358</ele>
        <time>2023-01-04T10:41:03.059Z</time>
      </trkpt>
      <trkpt lat="43.50119" lon="1.52938">
        <ele>206.573417</ele>
        <time>2023-01-04T10:41:05.066Z</time>
      </trkpt>
      <trkpt lat="43.50109" lon="1.52947">
        <ele>206.4593</ele>
        <time>2023-01-04T10:41:07.070Z</time>
      </trkpt>
      <trkpt lat="43.50103" lon="1.52956">
        <ele>206.365919</ele>
        <time>2023-01-04T10:41:09.057Z</time>
      </trkpt>
      <trkpt lat="43.50095" lon="1.52966">
        <ele>206.427757</ele>
        <time>2023-01-04T10:41:11.065Z</time>
      </trkpt>
      <trkpt lat="43.50087" lon="1.52975">
        <ele>206.494853</ele>
        <time>2023-01-04T10:41:13.050Z</time>
      </trkpt>
      <trkpt lat="43.5008" lon="1.52984">
        <ele>206.559288</ele>
        <time>2023-01-04T10:41:15.057Z</time>
      </trkpt>
      <trkpt lat="43.50069" lon="1.52995">
        <ele>206.652224</ele>
        <time>2023-01-04T10:41:18.041Z</time>
      </trkpt>
      <trkpt lat="43.50061" lon="1.53005">
        <ele>206.717967</ele>
        <time>2023-01-04T10:41:20.071Z</time>
      </trkpt>
      <trkpt lat="43.50054" lon="1.53015">
        <ele>206.786288</ele>
        <time>2023-01-04T10:41:22.057Z</time>
      </trkpt>
      <trkpt lat="43.50047" lon="1.53024">
        <ele>206.852838</ele>
        <time>2023-01-04T10:41:24.057Z</time>
      </trkpt>
      <trkpt lat="43.50037" lon="1.53037">
        <ele>206.939325</ele>
        <time>2023-01-04T10:41:27.041Z</time>
      </trkpt>
      <trkpt lat="43.50028" lon="1.53049">
        <ele>207.022701</ele>
        <time>2023-01-04T10:41:30.043Z</time>
      </trkpt>
      <trkpt lat="43.50019" lon="1.53058">
        <ele>207.10021</ele>
        <time>2023-01-04T10:41:33.060Z</time>
      </trkpt>
      <trkpt lat="43.50011" lon="1.53067">
        <ele>207.165581</ele>
        <time>2023-01-04T10:41:35.069Z</time>
      </trkpt>
      <trkpt lat="43.50004" lon="1.53075">
        <ele>207.225469</ele>
        <time>2023-01-04T10:41:37.068Z</time>
      </trkpt>
      <trkpt lat="43.49997" lon="1.53084">
        <ele>207.288129</ele>
        <time>2023-01-04T10:41:39.064Z</time>
      </trkpt>
      <trkpt lat="43.49986" lon="1.53094">
        <ele>207.371507</ele>
        <time>2023-01-04T10:41:42.044Z</time>
      </trkpt>
      <trkpt lat="43.49976" lon="1.53104">
        <ele>207.456781</ele>
        <time>2023-01-04T10:41:45.056Z</time>
      </trkpt>
      <trkpt lat="43.49965" lon="1.53113">
        <ele>207.541809</ele>
        <time>2023-01-04T10:41:48.072Z</time>
      </trkpt>
      <trkpt lat="43.49955" lon="1.53122">
        <ele>207.544783</ele>
        <time>2023-01-04T10:41:51.062Z</time>
      </trkpt>
      <trkpt lat="43.49945" lon="1.53129">
        <ele>207.540068</ele>
        <time>2023-01-04T10:41:54.070Z</time>
      </trkpt>
      <trkpt lat="43.49935" lon="1.53138">
        <ele>207.534924</ele>
        <time>2023-01-04T10:41:57.058Z</time>
      </trkpt>
      <trkpt lat="43.49927" lon="1.53145">
        <ele>207.531104</ele>
        <time>2023-01-04T10:41:59.063Z</time>
      </trkpt>
      <trkpt lat="43.4992" lon="1.53153">
        <ele>207.527225</ele>
        <time>2023-01-04T10:42:01.057Z</time>
      </trkpt>
      <trkpt lat="43.49909" lon="1.53162">
        <ele>207.521978</ele>
        <time>2023-01-04T10:42:04.067Z</time>
      </trkpt>
      <trkpt lat="43.49899" lon="1.53169">
        <ele>207.517329</ele>
        <time>2023-01-04T10:42:06.059Z</time>
      </trkpt>
      <trkpt lat="43.4989" lon="1.53178">
        <ele>207.512621</ele>
        <time>2023-01-04T10:42:08.066Z</time>
      </trkpt>
      <trkpt lat="43.49882" lon="1.53186">
        <ele>207.508582</ele>
        <time>2023-01-04T10:42:10.053Z</time>
      </trkpt>
      <trkpt lat="43.49874" lon="1.53193">
        <ele>207.50475</ele>
        <time>2023-01-04T10:42:12.059Z</time>
      </trkpt>
      <trkpt lat="43.49864" lon="1.53203">
        <ele>207.499492</ele>
        <time>2023-01-04T10:42:15.058Z</time>
      </trkpt>
      <trkpt lat="43.49856" lon="1.53212">
        <ele>207.495247</ele>
        <time>2023-01-04T10:42:17.064Z</time>
      </trkpt>
      <trkpt lat="43.49846" lon="1.53223">
        <ele>207.489876</ele>
        <time>2023-01-04T10:42:20.063Z</time>
      </trkpt>
      <trkpt lat="43.49837" lon="1.53234">
        <ele>207.484678</ele>
        <time>2023-01-04T10:42:23.066Z</time>
      </trkpt>
      <trkpt lat="43.49827" lon="1.53246">
        <ele>207.47923</ele>
        <time>2023-01-04T10:42:26.062Z</time>
      </trkpt>
      <trkpt lat="43.49818" lon="1.53257">
        <ele>207.474056</ele>
        <time>2023-01-04T10:42:29.067Z</time>
      </trkpt>
      <trkpt lat="43.49808" lon="1.53268">
        <ele>207.511539</ele>
        <time>2023-01-04T10:42:32.058Z</time>
      </trkpt>
      <trkpt lat="43.49798" lon="1.53281">
        <ele>207.548345</ele>
        <time>2023-01-04T10:42:35.062Z</time>
      </trkpt>
      <trkpt lat="43.4979" lon="1.53296">
        <ele>207.589491</ele>
        <time>2023-01-04T10:42:38.042Z</time>
      </trkpt>
      <trkpt lat="43.4978" lon="1.53307">
        <ele>207.625128</ele>
        <time>2023-01-04T10:42:41.070Z</time>
      </trkpt>
      <trkpt lat="43.49772" lon="1.5332">
        <ele>207.661115</ele>
        <time>2023-01-04T10:42:44.069Z</time>
      </trkpt>
      <trkpt lat="43.49764" lon="1.53331">
        <ele>207.693191</ele>
        <time>2023-01-04T10:42:47.056Z</time>
      </trkpt>
      <trkpt lat="43.49757" lon="1.53346">
        <ele>207.730288</ele>
        <time>2023-01-04T10:42:50.069Z</time>
      </trkpt>
      <trkpt lat="43.49751" lon="1.5336">
        <ele>207.765966</ele>
        <time>2023-01-04T10:42:53.067Z</time>
      </trkpt>
      <trkpt lat="43.49745" lon="1.53371">
        <ele>207.793447</ele>
        <time>2023-01-04T10:42:55.065Z</time>
      </trkpt>
      <trkpt lat="43.49738" lon="1.53385">
        <ele>207.828832</ele>
        <time>2023-01-04T10:42:57.069Z</time>
      </trkpt>
      <trkpt lat="43.49731" lon="1.53398">
        <ele>207.863589</ele>
        <time>2023-01-04T10:43:00.058Z</time>
      </trkpt>
      <trkpt lat="43.49723" lon="1.53413">
        <ele>207.901858</ele>
        <time>2023-01-04T10:43:03.072Z</time>
      </trkpt>
      <trkpt lat="43.49716" lon="1.53428">
        <ele>207.940579</ele>
        <time>2023-01-04T10:43:06.058Z</time>
      </trkpt>
      <trkpt lat="43.49709" lon="1.53441">
        <ele>207.974103</ele>
        <time>2023-01-04T10:43:09.054Z</time>
      </trkpt>
      <trkpt lat="43.49701" lon="1.53453">
        <ele>207.92314</ele>
        <time>2023-01-04T10:43:12.061Z</time>
      </trkpt>
      <trkpt lat="43.49692" lon="1.53468">
        <ele>207.734884</ele>
        <time>2023-01-04T10:43:15.057Z</time>
      </trkpt>
      <trkpt lat="43.49682" lon="1.53482">
        <ele>207.54888</ele>
        <time>2023-01-04T10:43:18.066Z</time>
      </trkpt>
      <trkpt lat="43.49675" lon="1.53493">
        <ele>207.406165</ele>
        <time>2023-01-04T10:43:20.058Z</time>
      </trkpt>
      <trkpt lat="43.49668" lon="1.53505">
        <ele>207.252238</ele>
        <time>2023-01-04T10:43:22.061Z</time>
      </trkpt>
      <trkpt lat="43.49661" lon="1.53515">
        <ele>207.127562</ele>
        <time>2023-01-04T10:43:24.071Z</time>
      </trkpt>
      <trkpt lat="43.49653" lon="1.53526">
        <ele>206.976405</ele>
        <time>2023-01-04T10:43:27.042Z</time>
      </trkpt>
      <trkpt lat="43.49644" lon="1.53535">
        <ele>206.829716</ele>
        <time>2023-01-04T10:43:30.054Z</time>
      </trkpt>
      <trkpt lat="43.49635" lon="1.53543">
        <ele>206.684594</ele>
        <time>2023-01-04T10:43:33.060Z</time>
      </trkpt>
      <trkpt lat="43.49626" lon="1.53551">
        <ele>206.54223</ele>
        <time>2023-01-04T10:43:36.059Z</time>
      </trkpt>
      <trkpt lat="43.49616" lon="1.53561">
        <ele>206.375273</ele>
        <time>2023-01-04T10:43:39.065Z</time>
      </trkpt>
      <trkpt lat="43.49609" lon="1.5357">
        <ele>206.249651</ele>
        <time>2023-01-04T10:43:42.062Z</time>
      </trkpt>
      <trkpt lat="43.49601" lon="1.53577">
        <ele>206.123163</ele>
        <time>2023-01-04T10:43:58.039Z</time>
      </trkpt>
      <trkpt lat="43.49591" lon="1.53581">
        <ele>205.990824</ele>
        <time>2023-01-04T10:44:02.044Z</time>
      </trkpt>
      <trkpt lat="43.4958" lon="1.53586">
        <ele>205.838008</ele>
        <time>2023-01-04T10:44:05.067Z</time>
      </trkpt>
      <trkpt lat="43.49572" lon="1.53591">
        <ele>205.709502</ele>
        <time>2023-01-04T10:44:07.045Z</time>
      </trkpt>
      <trkpt lat="43.49562" lon="1.53595">
        <ele>205.605327</ele>
        <time>2023-01-04T10:44:09.046Z</time>
      </trkpt>
      <trkpt lat="43.49553" lon="1.53599">
        <ele>205.627396</ele>
        <time>2023-01-04T10:44:11.048Z</time>
      </trkpt>
      <trkpt lat="43.49542" lon="1.53603">
        <ele>205.650371</ele>
        <time>2023-01-04T10:44:13.043Z</time>
      </trkpt>
      <trkpt lat="43.49532" lon="1.53607">
        <ele>205.673137</ele>
        <time>2023-01-04T10:44:15.039Z</time>
      </trkpt>
      <trkpt lat="43.49523" lon="1.5361">
        <ele>205.694624</ele>
        <time>2023-01-04T10:44:17.047Z</time>
      </trkpt>
      <trkpt lat="43.49513" lon="1.53614">
        <ele>205.717303</ele>
        <time>2023-01-04T10:44:19.060Z</time>
      </trkpt>
      <trkpt lat="43.49503" lon="1.53618">
        <ele>205.739477</ele>
        <time>2023-01-04T10:44:21.063Z</time>
      </trkpt>
      <trkpt lat="43.49493" lon="1.53621">
        <ele>205.761229</ele>
        <time>2023-01-04T10:44:23.041Z</time>
      </trkpt>
      <trkpt lat="43.49485" lon="1.53624">
        <ele>205.781027</ele>
        <time>2023-01-04T10:44:25.056Z</time>
      </trkpt>
      <trkpt lat="43.49472" lon="1.53628">
        <ele>205.80868</ele>
        <time>2023-01-04T10:44:28.061Z</time>
      </trkpt>
      <trkpt lat="43.4946" lon="1.53631">
        <ele>205.835803</ele>
        <time>2023-01-04T10:44:31.045Z</time>
      </trkpt>
      <trkpt lat="43.49449" lon="1.53635">
        <ele>205.861835</ele>
        <time>2023-01-04T10:44:34.059Z</time>
      </trkpt>
      <trkpt lat="43.49436" lon="1.53638">
        <ele>205.888743</ele>
        <time>2023-01-04T10:44:37.056Z</time>
      </trkpt>
      <trkpt lat="43.49425" lon="1.53642">
        <ele>205.915314</ele>
        <time>2023-01-04T10:44:40.052Z</time>
      </trkpt>
      <trkpt lat="43.49412" lon="1.53644">
        <ele>205.94257</ele>
        <time>2023-01-04T10:44:43.063Z</time>
      </trkpt>
      <trkpt lat="43.494" lon="1.53647">
        <ele>205.970715</ele>
        <time>2023-01-04T10:44:46.071Z</time>
      </trkpt>
      <trkpt lat="43.49391" lon="1.5365">
        <ele>205.990788</ele>
        <time>2023-01-04T10:44:48.061Z</time>
      </trkpt>
      <trkpt lat="43.49382" lon="1.53652">
        <ele>205.973855</ele>
        <time>2023-01-04T10:44:50.060Z</time>
      </trkpt>
      <trkpt lat="43.49372" lon="1.53654">
        <ele>205.946935</ele>
        <time>2023-01-04T10:44:52.066Z</time>
      </trkpt>
      <trkpt lat="43.49362" lon="1.53656">
        <ele>205.916613</ele>
        <time>2023-01-04T10:44:54.061Z</time>
      </trkpt>
      <trkpt lat="43.4935" lon="1.53657">
        <ele>205.881458</ele>
        <time>2023-01-04T10:44:56.047Z</time>
      </trkpt>
      <trkpt lat="43.4934" lon="1.53658">
        <ele>205.851929</ele>
        <time>2023-01-04T10:44:58.065Z</time>
      </trkpt>
      <trkpt lat="43.49329" lon="1.53659">
        <ele>205.822147</ele>
        <time>2023-01-04T10:45:01.065Z</time>
      </trkpt>
      <trkpt lat="43.49319" lon="1.53659">
        <ele>205.790906</ele>
        <time>2023-01-04T10:45:04.055Z</time>
      </trkpt>
      <trkpt lat="43.49306" lon="1.53661">
        <ele>205.755396</ele>
        <time>2023-01-04T10:45:07.062Z</time>
      </trkpt>
      <trkpt lat="43.49294" lon="1.53663">
        <ele>205.718011</ele>
        <time>2023-01-04T10:45:10.058Z</time>
      </trkpt>
      <trkpt lat="43.49284" lon="1.53664">
        <ele>205.690185</ele>
        <time>2023-01-04T10:45:12.061Z</time>
      </trkpt>
      <trkpt lat="43.49274" lon="1.53664">
        <ele>205.661852</ele>
        <time>2023-01-04T10:45:14.059Z</time>
      </trkpt>
      <trkpt lat="43.49265" lon="1.53664">
        <ele>205.635547</ele>
        <time>2023-01-04T10:45:16.051Z</time>
      </trkpt>
      <trkpt lat="43.49256" lon="1.53664">
        <ele>205.609493</ele>
        <time>2023-01-04T10:45:18.047Z</time>
      </trkpt>
      <trkpt lat="43.49243" lon="1.53664">
        <ele>205.572207</ele>
        <time>2023-01-04T10:45:21.067Z</time>
      </trkpt>
      <trkpt lat="43.4923" lon="1.53664">
        <ele>205.533719</ele>
        <time>2023-01-04T10:45:24.061Z</time>
      </trkpt>
      <trkpt lat="43.49217" lon="1.53662">
        <ele>205.496362</ele>
        <time>2023-01-04T10:45:27.058Z</time>
      </trkpt>
      <trkpt lat="43.49204" lon="1.53662">
        <ele>205.479205</ele>
        <time>2023-01-04T10:45:30.061Z</time>
      </trkpt>
      <trkpt lat="43.49194" lon="1.53661">
        <ele>205.486387</ele>
        <time>2023-01-04T10:45:32.070Z</time>
      </trkpt>
      <trkpt lat="43.49185" lon="1.5366">
        <ele>205.493275</ele>
        <time>2023-01-04T10:45:34.057Z</time>
      </trkpt>
      <trkpt lat="43.49171" lon="1.53658">
        <ele>205.503399</ele>
        <time>2023-01-04T10:45:37.061Z</time>
      </trkpt>
      <trkpt lat="43.49162" lon="1.53655">
        <ele>205.51012</ele>
        <time>2023-01-04T10:45:39.061Z</time>
      </trkpt>
      <trkpt lat="43.49153" lon="1.53653">
        <ele>205.517092</ele>
        <time>2023-01-04T10:45:41.061Z</time>
      </trkpt>
      <trkpt lat="43.49143" lon="1.53651">
        <ele>205.524477</ele>
        <time>2023-01-04T10:45:43.058Z</time>
      </trkpt>
      <trkpt lat="43.49133" lon="1.53649">
        <ele>205.532162</ele>
        <time>2023-01-04T10:45:45.061Z</time>
      </trkpt>
      <trkpt lat="43.49123" lon="1.53646">
        <ele>205.539434</ele>
        <time>2023-01-04T10:45:47.065Z</time>
      </trkpt>
      <trkpt lat="43.49112" lon="1.53643">
        <ele>205.547607</ele>
        <time>2023-01-04T10:45:49.069Z</time>
      </trkpt>
      <trkpt lat="43.49101" lon="1.53639">
        <ele>205.55587</ele>
        <time>2023-01-04T10:45:51.062Z</time>
      </trkpt>
      <trkpt lat="43.49092" lon="1.53636">
        <ele>205.563382</ele>
        <time>2023-01-04T10:45:53.061Z</time>
      </trkpt>
      <trkpt lat="43.49081" lon="1.53634">
        <ele>205.571207</ele>
        <time>2023-01-04T10:45:55.068Z</time>
      </trkpt>
      <trkpt lat="43.49068" lon="1.53628">
        <ele>205.581435</ele>
        <time>2023-01-04T10:45:58.062Z</time>
      </trkpt>
      <trkpt lat="43.49055" lon="1.53625">
        <ele>205.59082</ele>
        <time>2023-01-04T10:46:01.042Z</time>
      </trkpt>
      <trkpt lat="43.49042" lon="1.53621">
        <ele>205.600795</ele>
        <time>2023-01-04T10:46:04.073Z</time>
      </trkpt>
      <trkpt lat="43.49029" lon="1.53622">
        <ele>205.619505</ele>
        <time>2023-01-04T10:46:07.065Z</time>
      </trkpt>
      <trkpt lat="43.49016" lon="1.53627">
        <ele>205.657486</ele>
        <time>2023-01-04T10:46:10.055Z</time>
      </trkpt>
      <trkpt lat="43.49004" lon="1.53634">
        <ele>205.693839</ele>
        <time>2023-01-04T10:46:13.066Z</time>
      </trkpt>
      <trkpt lat="43.48994" lon="1.53642">
        <ele>205.72711</ele>
        <time>2023-01-04T10:46:16.069Z</time>
      </trkpt>
      <trkpt lat="43.48985" lon="1.53653">
        <ele>205.761372</ele>
        <time>2023-01-04T10:46:19.057Z</time>
      </trkpt>
      <trkpt lat="43.48978" lon="1.53666">
        <ele>205.79569</ele>
        <time>2023-01-04T10:46:22.068Z</time>
      </trkpt>
      <trkpt lat="43.48971" lon="1.53681">
        <ele>205.832624</ele>
        <time>2023-01-04T10:46:25.070Z</time>
      </trkpt>
      <trkpt lat="43.48966" lon="1.53697">
        <ele>205.867618</ele>
        <time>2023-01-04T10:46:28.054Z</time>
      </trkpt>
      <trkpt lat="43.48963" lon="1.53712">
        <ele>205.90027</ele>
        <time>2023-01-04T10:46:31.055Z</time>
      </trkpt>
      <trkpt lat="43.48961" lon="1.53728">
        <ele>205.934043</ele>
        <time>2023-01-04T10:46:34.065Z</time>
      </trkpt>
      <trkpt lat="43.48961" lon="1.53743">
        <ele>205.966352</ele>
        <time>2023-01-04T10:46:37.049Z</time>
      </trkpt>
      <trkpt lat="43.48962" lon="1.53759">
        <ele>205.998703</ele>
        <time>2023-01-04T10:46:40.048Z</time>
      </trkpt>
      <trkpt lat="43.48962" lon="1.53774">
        <ele>206.031647</ele>
        <time>2023-01-04T10:46:43.065Z</time>
      </trkpt>
      <trkpt lat="43.48963" lon="1.53788">
        <ele>206.06051</ele>
        <time>2023-01-04T10:46:46.068Z</time>
      </trkpt>
      <trkpt lat="43.48962" lon="1.53801">
        <ele>206.086418</ele>
        <time>2023-01-04T10:46:49.054Z</time>
      </trkpt>
      <trkpt lat="43.48965" lon="1.53818">
        <ele>206.123056</ele>
        <time>2023-01-04T10:46:52.058Z</time>
      </trkpt>
      <trkpt lat="43.48968" lon="1.53835">
        <ele>206.093364</ele>
        <time>2023-01-04T10:46:55.044Z</time>
      </trkpt>
      <trkpt lat="43.4897" lon="1.53848">
        <ele>206.069747</ele>
        <time>2023-01-04T10:46:57.058Z</time>
      </trkpt>
      <trkpt lat="43.48971" lon="1.53861">
        <ele>206.046671</ele>
        <time>2023-01-04T10:46:59.070Z</time>
      </trkpt>
      <trkpt lat="43.48973" lon="1.53878">
        <ele>206.015226</ele>
        <time>2023-01-04T10:47:02.061Z</time>
      </trkpt>
      <trkpt lat="43.48976" lon="1.53894">
        <ele>205.98622</ele>
        <time>2023-01-04T10:47:05.061Z</time>
      </trkpt>
      <trkpt lat="43.48977" lon="1.53911">
        <ele>205.955506</ele>
        <time>2023-01-04T10:47:08.063Z</time>
      </trkpt>
      <trkpt lat="43.48978" lon="1.53928">
        <ele>205.924313</ele>
        <time>2023-01-04T10:47:11.052Z</time>
      </trkpt>
      <trkpt lat="43.4898" lon="1.53942">
        <ele>205.899869</ele>
        <time>2023-01-04T10:47:13.043Z</time>
      </trkpt>
      <trkpt lat="43.48981" lon="1.5396">
        <ele>205.86703</ele>
        <time>2023-01-04T10:47:16.055Z</time>
      </trkpt>
      <trkpt lat="43.48981" lon="1.53974">
        <ele>205.842144</ele>
        <time>2023-01-04T10:47:18.063Z</time>
      </trkpt>
      <trkpt lat="43.48981" lon="1.53987">
        <ele>205.819047</ele>
        <time>2023-01-04T10:47:20.060Z</time>
      </trkpt>
      <trkpt lat="43.48981" lon="1.53999">
        <ele>205.79631</ele>
        <time>2023-01-04T10:47:22.064Z</time>
      </trkpt>
      <trkpt lat="43.48981" lon="1.54012">
        <ele>205.772824</ele>
        <time>2023-01-04T10:47:24.049Z</time>
      </trkpt>
      <trkpt lat="43.4898" lon="1.54026">
        <ele>205.748574</ele>
        <time>2023-01-04T10:47:26.067Z</time>
      </trkpt>
      <trkpt lat="43.48979" lon="1.54039">
        <ele>205.724921</ele>
        <time>2023-01-04T10:47:28.057Z</time>
      </trkpt>
      <trkpt lat="43.48978" lon="1.54054">
        <ele>205.698688</ele>
        <time>2023-01-04T10:47:30.069Z</time>
      </trkpt>
      <trkpt lat="43.48978" lon="1.54066">
        <ele>205.666682</ele>
        <time>2023-01-04T10:47:32.060Z</time>
      </trkpt>
      <trkpt lat="43.48977" lon="1.5408">
        <ele>205.594681</ele>
        <time>2023-01-04T10:47:34.069Z</time>
      </trkpt>
      <trkpt lat="43.48976" lon="1.54098">
        <ele>205.492911</ele>
        <time>2023-01-04T10:47:37.068Z</time>
      </trkpt>
      <trkpt lat="43.48975" lon="1.54116">
        <ele>205.393143</ele>
        <time>2023-01-04T10:47:40.064Z</time>
      </trkpt>
      <trkpt lat="43.48973" lon="1.54133">
        <ele>205.298694</ele>
        <time>2023-01-04T10:47:43.057Z</time>
      </trkpt>
      <trkpt lat="43.48971" lon="1.54151">
        <ele>205.199293</ele>
        <time>2023-01-04T10:47:46.067Z</time>
      </trkpt>
      <trkpt lat="43.48968" lon="1.54165">
        <ele>205.123161</ele>
        <time>2023-01-04T10:47:49.047Z</time>
      </trkpt>
      <trkpt lat="43.48963" lon="1.54184">
        <ele>205.011536</ele>
        <time>2023-01-04T10:47:52.067Z</time>
      </trkpt>
      <trkpt lat="43.4896" lon="1.54198">
        <ele>204.931375</ele>
        <time>2023-01-04T10:47:54.069Z</time>
      </trkpt>
      <trkpt lat="43.48954" lon="1.54215">
        <ele>204.831537</ele>
        <time>2023-01-04T10:47:57.071Z</time>
      </trkpt>
      <trkpt lat="43.4895" lon="1.54229">
        <ele>204.750074</ele>
        <time>2023-01-04T10:47:59.072Z</time>
      </trkpt>
      <trkpt lat="43.48945" lon="1.54244">
        <ele>204.656807</ele>
        <time>2023-01-04T10:48:01.071Z</time>
      </trkpt>
      <trkpt lat="43.48938" lon="1.5426">
        <ele>204.553816</ele>
        <time>2023-01-04T10:48:04.069Z</time>
      </trkpt>
      <trkpt lat="43.48931" lon="1.54274">
        <ele>204.464378</ele>
        <time>2023-01-04T10:48:07.047Z</time>
      </trkpt>
      <trkpt lat="43.48924" lon="1.54286">
        <ele>204.373489</ele>
        <time>2023-01-04T10:48:10.072Z</time>
      </trkpt>
      <trkpt lat="43.48916" lon="1.54298">
        <ele>204.427143</ele>
        <time>2023-01-04T10:48:13.060Z</time>
      </trkpt>
      <trkpt lat="43.48907" lon="1.54311">
        <ele>204.678397</ele>
        <time>2023-01-04T10:48:16.062Z</time>
      </trkpt>
      <trkpt lat="43.48901" lon="1.54321">
        <ele>204.871471</ele>
        <time>2023-01-04T10:48:18.064Z</time>
      </trkpt>
      <trkpt lat="43.48894" lon="1.5433">
        <ele>205.053342</ele>
        <time>2023-01-04T10:48:20.064Z</time>
      </trkpt>
      <trkpt lat="43.48887" lon="1.5434">
        <ele>205.251697</ele>
        <time>2023-01-04T10:48:22.064Z</time>
      </trkpt>
      <trkpt lat="43.48877" lon="1.54351">
        <ele>205.501608</ele>
        <time>2023-01-04T10:48:25.047Z</time>
      </trkpt>
      <trkpt lat="43.48868" lon="1.54362">
        <ele>205.739317</ele>
        <time>2023-01-04T10:48:28.059Z</time>
      </trkpt>
      <trkpt lat="43.48861" lon="1.54374">
        <ele>205.947852</ele>
        <time>2023-01-04T10:48:30.045Z</time>
      </trkpt>
      <trkpt lat="43.48853" lon="1.54384">
        <ele>206.153297</ele>
        <time>2023-01-04T10:48:32.069Z</time>
      </trkpt>
      <trkpt lat="43.48844" lon="1.54394">
        <ele>206.393181</ele>
        <time>2023-01-04T10:48:35.046Z</time>
      </trkpt>
      <trkpt lat="43.48836" lon="1.54405">
        <ele>206.60921</ele>
        <time>2023-01-04T10:48:38.063Z</time>
      </trkpt>
      <trkpt lat="43.4883" lon="1.54416">
        <ele>206.814737</ele>
        <time>2023-01-04T10:48:41.068Z</time>
      </trkpt>
      <trkpt lat="43.48822" lon="1.54426">
        <ele>207.023101</ele>
        <time>2023-01-04T10:48:44.058Z</time>
      </trkpt>
      <trkpt lat="43.48816" lon="1.54436">
        <ele>207.212746</ele>
        <time>2023-01-04T10:48:47.065Z</time>
      </trkpt>
      <trkpt lat="43.48808" lon="1.54447">
        <ele>207.414123</ele>
        <time>2023-01-04T10:48:50.071Z</time>
      </trkpt>
      <trkpt lat="43.48802" lon="1.54457">
        <ele>207.611702</ele>
        <time>2023-01-04T10:48:53.067Z</time>
      </trkpt>
      <trkpt lat="43.48795" lon="1.54469">
        <ele>207.819029</ele>
        <time>2023-01-04T10:48:56.060Z</time>
      </trkpt>
      <trkpt lat="43.4879" lon="1.54479">
        <ele>207.770885</ele>
        <time>2023-01-04T10:48:58.048Z</time>
      </trkpt>
      <trkpt lat="43.48782" lon="1.54491">
        <ele>207.644986</ele>
        <time>2023-01-04T10:49:01.055Z</time>
      </trkpt>
      <trkpt lat="43.48774" lon="1.54503">
        <ele>207.521853</ele>
        <time>2023-01-04T10:49:04.073Z</time>
      </trkpt>
      <trkpt lat="43.48765" lon="1.54519">
        <ele>207.364314</ele>
        <time>2023-01-04T10:49:07.060Z</time>
      </trkpt>
      <trkpt lat="43.48755" lon="1.54532">
        <ele>207.215708</ele>
        <time>2023-01-04T10:49:10.066Z</time>
      </trkpt>
      <trkpt lat="43.48749" lon="1.54541">
        <ele>207.117205</ele>
        <time>2023-01-04T10:49:12.069Z</time>
      </trkpt>
      <trkpt lat="43.4874" lon="1.54551">
        <ele>207.000988</ele>
        <time>2023-01-04T10:49:15.040Z</time>
      </trkpt>
      <trkpt lat="43.48731" lon="1.54561">
        <ele>206.875626</ele>
        <time>2023-01-04T10:49:18.063Z</time>
      </trkpt>
      <trkpt lat="43.48721" lon="1.54571">
        <ele>206.740784</ele>
        <time>2023-01-04T10:49:21.070Z</time>
      </trkpt>
      <trkpt lat="43.48713" lon="1.54579">
        <ele>206.644481</ele>
        <time>2023-01-04T10:49:23.066Z</time>
      </trkpt>
      <trkpt lat="43.48705" lon="1.54585">
        <ele>206.544831</ele>
        <time>2023-01-04T10:49:25.059Z</time>
      </trkpt>
      <trkpt lat="43.48696" lon="1.54591">
        <ele>206.439846</ele>
        <time>2023-01-04T10:49:27.059Z</time>
      </trkpt>
      <trkpt lat="43.48687" lon="1.54598">
        <ele>206.331956</ele>
        <time>2023-01-04T10:49:29.054Z</time>
      </trkpt>
      <trkpt lat="43.48679" lon="1.54603">
        <ele>206.231159</ele>
        <time>2023-01-04T10:49:31.043Z</time>
      </trkpt>
      <trkpt lat="43.48667" lon="1.54611">
        <ele>206.094606</ele>
        <time>2023-01-04T10:49:34.064Z</time>
      </trkpt>
      <trkpt lat="43.48658" lon="1.54615">
        <ele>205.995845</ele>
        <time>2023-01-04T10:49:36.065Z</time>
      </trkpt>
      <trkpt lat="43.48647" lon="1.5462">
        <ele>205.917037</ele>
        <time>2023-01-04T10:49:39.072Z</time>
      </trkpt>
      <trkpt lat="43.48636" lon="1.54623">
        <ele>205.876718</ele>
        <time>2023-01-04T10:49:42.073Z</time>
      </trkpt>
      <trkpt lat="43.48624" lon="1.54627">
        <ele>205.832072</ele>
        <time>2023-01-04T10:49:45.060Z</time>
      </trkpt>
      <trkpt lat="43.48614" lon="1.5463">
        <ele>205.794556</ele>
        <time>2023-01-04T10:49:47.065Z</time>
      </trkpt>
      <trkpt lat="43.48602" lon="1.54631">
        <ele>205.751146</ele>
        <time>2023-01-04T10:49:50.074Z</time>
      </trkpt>
      <trkpt lat="43.48592" lon="1.54634">
        <ele>205.717291</ele>
        <time>2023-01-04T10:49:52.070Z</time>
      </trkpt>
      <trkpt lat="43.48582" lon="1.54636">
        <ele>205.681248</ele>
        <time>2023-01-04T10:49:54.069Z</time>
      </trkpt>
      <trkpt lat="43.48572" lon="1.54637">
        <ele>205.646037</ele>
        <time>2023-01-04T10:49:56.070Z</time>
      </trkpt>
      <trkpt lat="43.48562" lon="1.54639">
        <ele>205.610432</ele>
        <time>2023-01-04T10:49:58.062Z</time>
      </trkpt>
      <trkpt lat="43.48552" lon="1.54641">
        <ele>205.572371</ele>
        <time>2023-01-04T10:50:00.060Z</time>
      </trkpt>
      <trkpt lat="43.48542" lon="1.54643">
        <ele>205.538037</ele>
        <time>2023-01-04T10:50:02.073Z</time>
      </trkpt>
      <trkpt lat="43.48529" lon="1.54645">
        <ele>205.490226</ele>
        <time>2023-01-04T10:50:05.068Z</time>
      </trkpt>
      <trkpt lat="43.4852" lon="1.54647">
        <ele>205.458006</ele>
        <time>2023-01-04T10:50:07.048Z</time>
      </trkpt>
      <trkpt lat="43.48507" lon="1.54649">
        <ele>205.412843</ele>
        <time>2023-01-04T10:50:10.073Z</time>
      </trkpt>
      <trkpt lat="43.48495" lon="1.54654">
        <ele>205.366003</ele>
        <time>2023-01-04T10:50:13.058Z</time>
      </trkpt>
      <trkpt lat="43.48483" lon="1.54658">
        <ele>205.323557</ele>
        <time>2023-01-04T10:50:16.065Z</time>
      </trkpt>
      <trkpt lat="43.4847" lon="1.54664">
        <ele>205.218877</ele>
        <time>2023-01-04T10:50:19.067Z</time>
      </trkpt>
      <trkpt lat="43.48462" lon="1.54668">
        <ele>205.109878</ele>
        <time>2023-01-04T10:50:21.070Z</time>
      </trkpt>
      <trkpt lat="43.48449" lon="1.54675">
        <ele>204.939172</ele>
        <time>2023-01-04T10:50:24.065Z</time>
      </trkpt>
      <trkpt lat="43.4844" lon="1.54677">
        <ele>204.827756</ele>
        <time>2023-01-04T10:50:26.064Z</time>
      </trkpt>
      <trkpt lat="43.48428" lon="1.54681">
        <ele>204.679518</ele>
        <time>2023-01-04T10:50:29.075Z</time>
      </trkpt>
      <trkpt lat="43.48416" lon="1.54685">
        <ele>204.533229</ele>
        <time>2023-01-04T10:50:32.071Z</time>
      </trkpt>
      <trkpt lat="43.48406" lon="1.54687">
        <ele>204.40503</ele>
        <time>2023-01-04T10:50:35.064Z</time>
      </trkpt>
      <trkpt lat="43.48395" lon="1.54686">
        <ele>204.279984</ele>
        <time>2023-01-04T10:50:38.076Z</time>
      </trkpt>
      <trkpt lat="43.48384" lon="1.54686">
        <ele>204.138989</ele>
        <time>2023-01-04T10:50:41.067Z</time>
      </trkpt>
      <trkpt lat="43.48372" lon="1.54684">
        <ele>203.991389</ele>
        <time>2023-01-04T10:50:44.063Z</time>
      </trkpt>
      <trkpt lat="43.48359" lon="1.5468">
        <ele>203.838608</ele>
        <time>2023-01-04T10:50:47.058Z</time>
      </trkpt>
      <trkpt lat="43.48348" lon="1.54678">
        <ele>203.695986</ele>
        <time>2023-01-04T10:50:49.070Z</time>
      </trkpt>
      <trkpt lat="43.48338" lon="1.54674">
        <ele>203.56923</ele>
        <time>2023-01-04T10:50:51.065Z</time>
      </trkpt>
      <trkpt lat="43.48327" lon="1.54673">
        <ele>203.435899</ele>
        <time>2023-01-04T10:50:53.061Z</time>
      </trkpt>
      <trkpt lat="43.48318" lon="1.54669">
        <ele>203.325408</ele>
        <time>2023-01-04T10:50:55.060Z</time>
      </trkpt>
      <trkpt lat="43.48308" lon="1.54669">
        <ele>203.206428</ele>
        <time>2023-01-04T10:50:57.065Z</time>
      </trkpt>
      <trkpt lat="43.48298" lon="1.54671">
        <ele>203.175921</ele>
        <time>2023-01-04T10:50:59.063Z</time>
      </trkpt>
      <trkpt lat="43.48289" lon="1.54676">
        <ele>203.354942</ele>
        <time>2023-01-04T10:51:01.039Z</time>
      </trkpt>
      <trkpt lat="43.48281" lon="1.54683">
        <ele>203.529666</ele>
        <time>2023-01-04T10:51:03.070Z</time>
      </trkpt>
      <trkpt lat="43.48272" lon="1.54693">
        <ele>203.765887</ele>
        <time>2023-01-04T10:51:06.044Z</time>
      </trkpt>
      <trkpt lat="43.48261" lon="1.54703">
        <ele>204.008788</ele>
        <time>2023-01-04T10:51:09.045Z</time>
      </trkpt>
      <trkpt lat="43.4825" lon="1.54713">
        <ele>204.257971</ele>
        <time>2023-01-04T10:51:12.069Z</time>
      </trkpt>
      <trkpt lat="43.48238" lon="1.54724">
        <ele>204.526711</ele>
        <time>2023-01-04T10:51:15.069Z</time>
      </trkpt>
      <trkpt lat="43.48229" lon="1.54734">
        <ele>204.743958</ele>
        <time>2023-01-04T10:51:17.072Z</time>
      </trkpt>
      <trkpt lat="43.48221" lon="1.54743">
        <ele>204.945791</ele>
        <time>2023-01-04T10:51:19.073Z</time>
      </trkpt>
      <trkpt lat="43.48213" lon="1.54751">
        <ele>205.130971</ele>
        <time>2023-01-04T10:51:21.072Z</time>
      </trkpt>
      <trkpt lat="43.48206" lon="1.54758">
        <ele>205.307351</ele>
        <time>2023-01-04T10:51:23.051Z</time>
      </trkpt>
      <trkpt lat="43.48197" lon="1.54764">
        <ele>205.497351</ele>
        <time>2023-01-04T10:51:25.056Z</time>
      </trkpt>
      <trkpt lat="43.48185" lon="1.54771">
        <ele>205.742215</ele>
        <time>2023-01-04T10:51:28.062Z</time>
      </trkpt>
      <trkpt lat="43.48172" lon="1.54779">
        <ele>206.006809</ele>
        <time>2023-01-04T10:51:31.071Z</time>
      </trkpt>
      <trkpt lat="43.4816" lon="1.54788">
        <ele>206.264806</ele>
        <time>2023-01-04T10:51:33.058Z</time>
      </trkpt>
      <trkpt lat="43.48151" lon="1.54793">
        <ele>206.456057</ele>
        <time>2023-01-04T10:51:35.052Z</time>
      </trkpt>
      <trkpt lat="43.48141" lon="1.54798">
        <ele>206.456979</ele>
        <time>2023-01-04T10:51:37.054Z</time>
      </trkpt>
      <trkpt lat="43.48132" lon="1.548">
        <ele>206.344126</ele>
        <time>2023-01-04T10:51:39.055Z</time>
      </trkpt>
      <trkpt lat="43.48121" lon="1.54804">
        <ele>206.206348</ele>
        <time>2023-01-04T10:51:41.071Z</time>
      </trkpt>
      <trkpt lat="43.48111" lon="1.54811">
        <ele>206.065053</ele>
        <time>2023-01-04T10:51:43.065Z</time>
      </trkpt>
      <trkpt lat="43.48101" lon="1.54819">
        <ele>205.922013</ele>
        <time>2023-01-04T10:51:45.054Z</time>
      </trkpt>
      <trkpt lat="43.48092" lon="1.54829">
        <ele>205.781116</ele>
        <time>2023-01-04T10:51:47.045Z</time>
      </trkpt>
      <trkpt lat="43.48085" lon="1.54838">
        <ele>205.656126</ele>
        <time>2023-01-04T10:51:49.059Z</time>
      </trkpt>
      <trkpt lat="43.4808" lon="1.54849">
        <ele>205.54082</ele>
        <time>2023-01-04T10:51:51.068Z</time>
      </trkpt>
      <trkpt lat="43.48077" lon="1.54866">
        <ele>205.388142</ele>
        <time>2023-01-04T10:51:54.070Z</time>
      </trkpt>
      <trkpt lat="43.48076" lon="1.54882">
        <ele>205.236967</ele>
        <time>2023-01-04T10:51:58.065Z</time>
      </trkpt>
      <trkpt lat="43.48076" lon="1.54898">
        <ele>205.099665</ele>
        <time>2023-01-04T10:52:03.043Z</time>
      </trkpt>
      <trkpt lat="43.48073" lon="1.54911">
        <ele>204.974722</ele>
        <time>2023-01-04T10:52:06.050Z</time>
      </trkpt>
      <trkpt lat="43.4807" lon="1.54927">
        <ele>204.82195</ele>
        <time>2023-01-04T10:52:09.065Z</time>
      </trkpt>
      <trkpt lat="43.48068" lon="1.54944">
        <ele>204.671304</ele>
        <time>2023-01-04T10:52:12.068Z</time>
      </trkpt>
      <trkpt lat="43.48065" lon="1.54955">
        <ele>204.558365</ele>
        <time>2023-01-04T10:52:14.064Z</time>
      </trkpt>
      <trkpt lat="43.48062" lon="1.54968">
        <ele>204.441544</ele>
        <time>2023-01-04T10:52:16.071Z</time>
      </trkpt>
      <trkpt lat="43.48058" lon="1.5498">
        <ele>204.323884</ele>
        <time>2023-01-04T10:52:18.065Z</time>
      </trkpt>
      <trkpt lat="43.48054" lon="1.54991">
        <ele>204.388423</ele>
        <time>2023-01-04T10:52:20.070Z</time>
      </trkpt>
      <trkpt lat="43.48047" lon="1.55007">
        <ele>204.548116</ele>
        <time>2023-01-04T10:52:23.075Z</time>
      </trkpt>
      <trkpt lat="43.48038" lon="1.55021">
        <ele>204.705235</ele>
        <time>2023-01-04T10:52:26.071Z</time>
      </trkpt>
      <trkpt lat="43.48031" lon="1.5503">
        <ele>204.81816</ele>
        <time>2023-01-04T10:52:28.063Z</time>
      </trkpt>
      <trkpt lat="43.48024" lon="1.55038">
        <ele>204.926721</ele>
        <time>2023-01-04T10:52:30.050Z</time>
      </trkpt>
      <trkpt lat="43.48014" lon="1.55048">
        <ele>205.078247</ele>
        <time>2023-01-04T10:52:33.074Z</time>
      </trkpt>
      <trkpt lat="43.48005" lon="1.55054">
        <ele>205.186721</ele>
        <time>2023-01-04T10:52:35.071Z</time>
      </trkpt>
      <trkpt lat="43.47997" lon="1.55061">
        <ele>205.30231</ele>
        <time>2023-01-04T10:52:37.060Z</time>
      </trkpt>
      <trkpt lat="43.47989" lon="1.55067">
        <ele>205.415576</ele>
        <time>2023-01-04T10:52:40.072Z</time>
      </trkpt>
      <trkpt lat="43.47978" lon="1.55076">
        <ele>205.564727</ele>
        <time>2023-01-04T10:52:43.059Z</time>
      </trkpt>
      <trkpt lat="43.47967" lon="1.55083">
        <ele>205.710174</ele>
        <time>2023-01-04T10:52:46.062Z</time>
      </trkpt>
      <trkpt lat="43.47954" lon="1.5509">
        <ele>205.8734</ele>
        <time>2023-01-04T10:52:49.066Z</time>
      </trkpt>
      <trkpt lat="43.47945" lon="1.55096">
        <ele>205.990959</ele>
        <time>2023-01-04T10:52:51.071Z</time>
      </trkpt>
      <trkpt lat="43.47935" lon="1.55103">
        <ele>206.122211</ele>
        <time>2023-01-04T10:52:53.068Z</time>
      </trkpt>
      <trkpt lat="43.47926" lon="1.55109">
        <ele>206.23814</ele>
        <time>2023-01-04T10:52:55.069Z</time>
      </trkpt>
      <trkpt lat="43.47917" lon="1.55115">
        <ele>206.362131</ele>
        <time>2023-01-04T10:52:57.055Z</time>
      </trkpt>
      <trkpt lat="43.47908" lon="1.55122">
        <ele>206.458273</ele>
        <time>2023-01-04T10:52:59.071Z</time>
      </trkpt>
      <trkpt lat="43.47899" lon="1.55129">
        <ele>206.537988</ele>
        <time>2023-01-04T10:53:01.073Z</time>
      </trkpt>
      <trkpt lat="43.47889" lon="1.55136">
        <ele>206.621397</ele>
        <time>2023-01-04T10:53:03.078Z</time>
      </trkpt>
      <trkpt lat="43.47879" lon="1.55143">
        <ele>206.703075</ele>
        <time>2023-01-04T10:53:05.067Z</time>
      </trkpt>
      <trkpt lat="43.4787" lon="1.55151">
        <ele>206.781222</ele>
        <time>2023-01-04T10:53:07.073Z</time>
      </trkpt>
      <trkpt lat="43.47862" lon="1.5516">
        <ele>206.861114</ele>
        <time>2023-01-04T10:53:09.060Z</time>
      </trkpt>
      <trkpt lat="43.47854" lon="1.55167">
        <ele>206.929396</ele>
        <time>2023-01-04T10:53:11.069Z</time>
      </trkpt>
      <trkpt lat="43.47847" lon="1.55176">
        <ele>206.998068</ele>
        <time>2023-01-04T10:53:13.047Z</time>
      </trkpt>
      <trkpt lat="43.4784" lon="1.55184">
        <ele>207.065124</ele>
        <time>2023-01-04T10:53:15.070Z</time>
      </trkpt>
      <trkpt lat="43.47834" lon="1.55193">
        <ele>207.135775</ele>
        <time>2023-01-04T10:53:17.070Z</time>
      </trkpt>
      <trkpt lat="43.47825" lon="1.55205">
        <ele>207.223979</ele>
        <time>2023-01-04T10:53:20.071Z</time>
      </trkpt>
      <trkpt lat="43.47818" lon="1.55216">
        <ele>207.305319</ele>
        <time>2023-01-04T10:53:22.056Z</time>
      </trkpt>
      <trkpt lat="43.47808" lon="1.5523">
        <ele>207.410165</ele>
        <time>2023-01-04T10:53:25.070Z</time>
      </trkpt>
      <trkpt lat="43.47797" lon="1.55243">
        <ele>207.5186</ele>
        <time>2023-01-04T10:53:28.061Z</time>
      </trkpt>
      <trkpt lat="43.47788" lon="1.55254">
        <ele>207.605126</ele>
        <time>2023-01-04T10:53:30.070Z</time>
      </trkpt>
      <trkpt lat="43.4778" lon="1.55262">
        <ele>207.681107</ele>
        <time>2023-01-04T10:53:32.060Z</time>
      </trkpt>
      <trkpt lat="43.4777" lon="1.55272">
        <ele>207.730622</ele>
        <time>2023-01-04T10:53:35.067Z</time>
      </trkpt>
      <trkpt lat="43.47763" lon="1.5528">
        <ele>207.595587</ele>
        <time>2023-01-04T10:53:41.071Z</time>
      </trkpt>
      <trkpt lat="43.47755" lon="1.5529">
        <ele>207.441341</ele>
        <time>2023-01-04T10:54:01.050Z</time>
      </trkpt>
      <trkpt lat="43.47746" lon="1.553">
        <ele>207.264207</ele>
        <time>2023-01-04T10:54:04.066Z</time>
      </trkpt>
      <trkpt lat="43.47739" lon="1.55308">
        <ele>207.122489</ele>
        <time>2023-01-04T10:54:06.072Z</time>
      </trkpt>
      <trkpt lat="43.47731" lon="1.55316">
        <ele>206.977914</ele>
        <time>2023-01-04T10:54:08.071Z</time>
      </trkpt>
      <trkpt lat="43.47723" lon="1.55324">
        <ele>206.832279</ele>
        <time>2023-01-04T10:54:10.068Z</time>
      </trkpt>
      <trkpt lat="43.47713" lon="1.55336">
        <ele>206.635591</ele>
        <time>2023-01-04T10:54:13.061Z</time>
      </trkpt>
      <trkpt lat="43.47703" lon="1.55345">
        <ele>206.457389</ele>
        <time>2023-01-04T10:54:16.066Z</time>
      </trkpt>
      <trkpt lat="43.47694" lon="1.55353">
        <ele>206.297002</ele>
        <time>2023-01-04T10:54:19.070Z</time>
      </trkpt>
      <trkpt lat="43.47685" lon="1.55362">
        <ele>206.13785</ele>
        <time>2023-01-04T10:54:22.066Z</time>
      </trkpt>
      <trkpt lat="43.47676" lon="1.5537">
        <ele>205.976753</ele>
        <time>2023-01-04T10:54:25.059Z</time>
      </trkpt>
      <trkpt lat="43.47667" lon="1.55377">
        <ele>205.821057</ele>
        <time>2023-01-04T10:54:28.064Z</time>
      </trkpt>
      <trkpt lat="43.47659" lon="1.55385">
        <ele>205.671121</ele>
        <time>2023-01-04T10:54:31.064Z</time>
      </trkpt>
      <trkpt lat="43.4765" lon="1.55394">
        <ele>205.499639</ele>
        <time>2023-01-04T10:54:34.069Z</time>
      </trkpt>
      <trkpt lat="43.4764" lon="1.55402">
        <ele>205.326908</ele>
        <time>2023-01-04T10:54:37.052Z</time>
      </trkpt>
      <trkpt lat="43.4763" lon="1.55411">
        <ele>205.155426</ele>
        <time>2023-01-04T10:54:40.077Z</time>
      </trkpt>
      <trkpt lat="43.47619" lon="1.5542">
        <ele>205.210543</ele>
        <time>2023-01-04T10:54:43.060Z</time>
      </trkpt>
      <trkpt lat="43.4761" lon="1.5543">
        <ele>205.419436</ele>
        <time>2023-01-04T10:54:45.064Z</time>
      </trkpt>
      <trkpt lat="43.47602" lon="1.55436">
        <ele>205.581337</ele>
        <time>2023-01-04T10:54:47.070Z</time>
      </trkpt>
      <trkpt lat="43.4759" lon="1.55446">
        <ele>205.822539</ele>
        <time>2023-01-04T10:54:49.073Z</time>
      </trkpt>
      <trkpt lat="43.47583" lon="1.55454">
        <ele>205.988435</ele>
        <time>2023-01-04T10:54:51.053Z</time>
      </trkpt>
      <trkpt lat="43.47573" lon="1.55465">
        <ele>206.221122</ele>
        <time>2023-01-04T10:54:54.073Z</time>
      </trkpt>
      <trkpt lat="43.47562" lon="1.55475">
        <ele>206.441736</ele>
        <time>2023-01-04T10:54:57.060Z</time>
      </trkpt>
      <trkpt lat="43.47552" lon="1.55486">
        <ele>206.674916</ele>
        <time>2023-01-04T10:55:00.071Z</time>
      </trkpt>
      <trkpt lat="43.47545" lon="1.55493">
        <ele>206.835179</ele>
        <time>2023-01-04T10:55:02.067Z</time>
      </trkpt>
      <trkpt lat="43.47536" lon="1.55502">
        <ele>207.025505</ele>
        <time>2023-01-04T10:55:04.072Z</time>
      </trkpt>
      <trkpt lat="43.47525" lon="1.55513">
        <ele>207.265051</ele>
        <time>2023-01-04T10:55:07.047Z</time>
      </trkpt>
      <trkpt lat="43.47514" lon="1.55526">
        <ele>207.522612</ele>
        <time>2023-01-04T10:55:10.062Z</time>
      </trkpt>
      <trkpt lat="43.47507" lon="1.55534">
        <ele>207.685677</ele>
        <time>2023-01-04T10:55:12.062Z</time>
      </trkpt>
      <trkpt lat="43.47499" lon="1.55542">
        <ele>207.857385</ele>
        <time>2023-01-04T10:55:14.072Z</time>
      </trkpt>
      <trkpt lat="43.47491" lon="1.5555">
        <ele>208.029768</ele>
        <time>2023-01-04T10:55:16.072Z</time>
      </trkpt>
      <trkpt lat="43.47484" lon="1.55557">
        <ele>208.192221</ele>
        <time>2023-01-04T10:55:18.072Z</time>
      </trkpt>
      <trkpt lat="43.47476" lon="1.55565">
        <ele>208.222825</ele>
        <time>2023-01-04T10:55:20.071Z</time>
      </trkpt>
      <trkpt lat="43.47469" lon="1.55574">
        <ele>208.145877</ele>
        <time>2023-01-04T10:55:22.065Z</time>
      </trkpt>
      <trkpt lat="43.47461" lon="1.5558">
        <ele>208.069825</ele>
        <time>2023-01-04T10:55:24.071Z</time>
      </trkpt>
      <trkpt lat="43.47453" lon="1.55588">
        <ele>207.989508</ele>
        <time>2023-01-04T10:55:26.068Z</time>
      </trkpt>
      <trkpt lat="43.47446" lon="1.55596">
        <ele>207.911908</ele>
        <time>2023-01-04T10:55:28.066Z</time>
      </trkpt>
      <trkpt lat="43.47437" lon="1.55605">
        <ele>207.825897</ele>
        <time>2023-01-04T10:55:30.053Z</time>
      </trkpt>
      <trkpt lat="43.47425" lon="1.55614">
        <ele>207.710862</ele>
        <time>2023-01-04T10:55:33.055Z</time>
      </trkpt>
      <trkpt lat="43.47415" lon="1.55618">
        <ele>207.6295</ele>
        <time>2023-01-04T10:55:35.066Z</time>
      </trkpt>
      <trkpt lat="43.47406" lon="1.55624">
        <ele>207.551671</ele>
        <time>2023-01-04T10:55:37.069Z</time>
      </trkpt>
      <trkpt lat="43.47397" lon="1.55629">
        <ele>207.472298</ele>
        <time>2023-01-04T10:55:39.041Z</time>
      </trkpt>
      <trkpt lat="43.47389" lon="1.55633">
        <ele>207.398072</ele>
        <time>2023-01-04T10:55:41.071Z</time>
      </trkpt>
      <trkpt lat="43.4738" lon="1.55638">
        <ele>207.317281</ele>
        <time>2023-01-04T10:55:43.056Z</time>
      </trkpt>
      <trkpt lat="43.47367" lon="1.55644">
        <ele>207.207774</ele>
        <time>2023-01-04T10:55:46.058Z</time>
      </trkpt>
      <trkpt lat="43.47359" lon="1.55648">
        <ele>207.134701</ele>
        <time>2023-01-04T10:55:48.060Z</time>
      </trkpt>
      <trkpt lat="43.47347" lon="1.55653">
        <ele>207.03574</ele>
        <time>2023-01-04T10:55:51.045Z</time>
      </trkpt>
      <trkpt lat="43.47338" lon="1.55657">
        <ele>206.960549</ele>
        <time>2023-01-04T10:55:53.041Z</time>
      </trkpt>
      <trkpt lat="43.47328" lon="1.55661">
        <ele>206.873876</ele>
        <time>2023-01-04T10:55:55.064Z</time>
      </trkpt>
      <trkpt lat="43.47318" lon="1.55667">
        <ele>206.797771</ele>
        <time>2023-01-04T10:55:57.048Z</time>
      </trkpt>
      <trkpt lat="43.47309" lon="1.55672">
        <ele>206.789448</ele>
        <time>2023-01-04T10:55:59.068Z</time>
      </trkpt>
      <trkpt lat="43.47299" lon="1.55677">
        <ele>206.781059</ele>
        <time>2023-01-04T10:56:01.053Z</time>
      </trkpt>
      <trkpt lat="43.4729" lon="1.55681">
        <ele>206.772629</ele>
        <time>2023-01-04T10:56:03.070Z</time>
      </trkpt>
      <trkpt lat="43.4728" lon="1.55686">
        <ele>206.764136</ele>
        <time>2023-01-04T10:56:05.068Z</time>
      </trkpt>
      <trkpt lat="43.4727" lon="1.55692">
        <ele>206.754855</ele>
        <time>2023-01-04T10:56:07.074Z</time>
      </trkpt>
      <trkpt lat="43.4726" lon="1.55696">
        <ele>206.746483</ele>
        <time>2023-01-04T10:56:09.069Z</time>
      </trkpt>
      <trkpt lat="43.47248" lon="1.55701">
        <ele>206.735486</ele>
        <time>2023-01-04T10:56:12.054Z</time>
      </trkpt>
      <trkpt lat="43.47239" lon="1.55706">
        <ele>206.727526</ele>
        <time>2023-01-04T10:56:14.068Z</time>
      </trkpt>
      <trkpt lat="43.4723" lon="1.5571">
        <ele>206.719727</ele>
        <time>2023-01-04T10:56:16.069Z</time>
      </trkpt>
      <trkpt lat="43.47216" lon="1.55716">
        <ele>206.707843</ele>
        <time>2023-01-04T10:56:19.073Z</time>
      </trkpt>
      <trkpt lat="43.47207" lon="1.55719">
        <ele>206.700096</ele>
        <time>2023-01-04T10:56:21.049Z</time>
      </trkpt>
      <trkpt lat="43.47198" lon="1.55722">
        <ele>206.691604</ele>
        <time>2023-01-04T10:56:23.071Z</time>
      </trkpt>
      <trkpt lat="43.47188" lon="1.55725">
        <ele>206.683806</ele>
        <time>2023-01-04T10:56:25.073Z</time>
      </trkpt>
      <trkpt lat="43.47179" lon="1.55727">
        <ele>206.675774</ele>
        <time>2023-01-04T10:56:27.050Z</time>
      </trkpt>
      <trkpt lat="43.47169" lon="1.5573">
        <ele>206.66751</ele>
        <time>2023-01-04T10:56:29.071Z</time>
      </trkpt>
      <trkpt lat="43.47159" lon="1.55733">
        <ele>206.658567</ele>
        <time>2023-01-04T10:56:31.056Z</time>
      </trkpt>
      <trkpt lat="43.47149" lon="1.55735">
        <ele>206.650193</ele>
        <time>2023-01-04T10:56:33.071Z</time>
      </trkpt>
      <trkpt lat="43.47139" lon="1.55737">
        <ele>206.584922</ele>
        <time>2023-01-04T10:56:35.071Z</time>
      </trkpt>
      <trkpt lat="43.47129" lon="1.55739">
        <ele>206.512836</ele>
        <time>2023-01-04T10:56:37.067Z</time>
      </trkpt>
      <trkpt lat="43.47119" lon="1.55741">
        <ele>206.440675</ele>
        <time>2023-01-04T10:56:39.067Z</time>
      </trkpt>
      <trkpt lat="43.47109" lon="1.55743">
        <ele>206.366994</ele>
        <time>2023-01-04T10:56:41.068Z</time>
      </trkpt>
      <trkpt lat="43.47098" lon="1.55746">
        <ele>206.28307</ele>
        <time>2023-01-04T10:56:43.067Z</time>
      </trkpt>
      <trkpt lat="43.47088" lon="1.55747">
        <ele>206.208294</ele>
        <time>2023-01-04T10:56:45.071Z</time>
      </trkpt>
      <trkpt lat="43.47076" lon="1.55749">
        <ele>206.123266</ele>
        <time>2023-01-04T10:56:48.049Z</time>
      </trkpt>
      <trkpt lat="43.47063" lon="1.55753">
        <ele>206.028109</ele>
        <time>2023-01-04T10:56:51.049Z</time>
      </trkpt>
      <trkpt lat="43.47051" lon="1.55757">
        <ele>205.932461</ele>
        <time>2023-01-04T10:56:54.069Z</time>
      </trkpt>
      <trkpt lat="43.4704" lon="1.55761">
        <ele>205.851138</ele>
        <time>2023-01-04T10:56:57.070Z</time>
      </trkpt>
      <trkpt lat="43.4703" lon="1.55766">
        <ele>205.776917</ele>
        <time>2023-01-04T10:57:00.064Z</time>
      </trkpt>
      <trkpt lat="43.4702" lon="1.55773">
        <ele>205.693028</ele>
        <time>2023-01-04T10:57:03.075Z</time>
      </trkpt>
      <trkpt lat="43.47011" lon="1.5578">
        <ele>205.617313</ele>
        <time>2023-01-04T10:57:06.072Z</time>
      </trkpt>
      <trkpt lat="43.47002" lon="1.55788">
        <ele>205.53753</ele>
        <time>2023-01-04T10:57:09.071Z</time>
      </trkpt>
      <trkpt lat="43.46993" lon="1.558">
        <ele>205.448655</ele>
        <time>2023-01-04T10:57:12.073Z</time>
      </trkpt>
      <trkpt lat="43.46983" lon="1.5581">
        <ele>205.361078</ele>
        <time>2023-01-04T10:57:15.068Z</time>
      </trkpt>
      <trkpt lat="43.46974" lon="1.5582">
        <ele>205.386958</ele>
        <time>2023-01-04T10:57:18.072Z</time>
      </trkpt>
      <trkpt lat="43.46968" lon="1.5583">
        <ele>205.439376</ele>
        <time>2023-01-04T10:57:21.067Z</time>
      </trkpt>
      <trkpt lat="43.46961" lon="1.5584">
        <ele>205.496077</ele>
        <time>2023-01-04T10:57:24.071Z</time>
      </trkpt>
      <trkpt lat="43.46954" lon="1.55855">
        <ele>205.568696</ele>
        <time>2023-01-04T10:57:27.074Z</time>
      </trkpt>
      <trkpt lat="43.46949" lon="1.55868">
        <ele>205.629118</ele>
        <time>2023-01-04T10:57:29.068Z</time>
      </trkpt>
      <trkpt lat="43.46943" lon="1.5588">
        <ele>205.687313</ele>
        <time>2023-01-04T10:57:31.047Z</time>
      </trkpt>
      <trkpt lat="43.46936" lon="1.55894">
        <ele>205.755997</ele>
        <time>2023-01-04T10:57:34.063Z</time>
      </trkpt>
      <trkpt lat="43.46931" lon="1.55904">
        <ele>205.8066</ele>
        <time>2023-01-04T10:57:36.062Z</time>
      </trkpt>
      <trkpt lat="43.46924" lon="1.55914">
        <ele>205.861871</ele>
        <time>2023-01-04T10:57:38.063Z</time>
      </trkpt>
      <trkpt lat="43.46919" lon="1.55925">
        <ele>205.915116</ele>
        <time>2023-01-04T10:57:40.061Z</time>
      </trkpt>
      <trkpt lat="43.46913" lon="1.55937">
        <ele>205.973311</ele>
        <time>2023-01-04T10:57:42.053Z</time>
      </trkpt>
      <trkpt lat="43.46907" lon="1.5595">
        <ele>206.036805</ele>
        <time>2023-01-04T10:57:44.066Z</time>
      </trkpt>
      <trkpt lat="43.46899" lon="1.55967">
        <ele>206.119744</ele>
        <time>2023-01-04T10:57:47.071Z</time>
      </trkpt>
      <trkpt lat="43.46895" lon="1.55979">
        <ele>206.173713</ele>
        <time>2023-01-04T10:57:49.051Z</time>
      </trkpt>
      <trkpt lat="43.46889" lon="1.5599">
        <ele>206.227317</ele>
        <time>2023-01-04T10:57:51.064Z</time>
      </trkpt>
      <trkpt lat="43.46882" lon="1.56004">
        <ele>206.298009</ele>
        <time>2023-01-04T10:57:54.072Z</time>
      </trkpt>
      <trkpt lat="43.46875" lon="1.56018">
        <ele>206.360872</ele>
        <time>2023-01-04T10:57:56.069Z</time>
      </trkpt>
      <trkpt lat="43.4687" lon="1.56029">
        <ele>206.399054</ele>
        <time>2023-01-04T10:57:58.050Z</time>
      </trkpt>
      <trkpt lat="43.46864" lon="1.5604">
        <ele>206.441998</ele>
        <time>2023-01-04T10:58:00.048Z</time>
      </trkpt>
      <trkpt lat="43.46859" lon="1.56051">
        <ele>206.480307</ele>
        <time>2023-01-04T10:58:02.071Z</time>
      </trkpt>
      <trkpt lat="43.46853" lon="1.56062">
        <ele>206.522024</ele>
        <time>2023-01-04T10:58:04.068Z</time>
      </trkpt>
      <trkpt lat="43.46847" lon="1.56074">
        <ele>206.566934</ele>
        <time>2023-01-04T10:58:06.073Z</time>
      </trkpt>
      <trkpt lat="43.46841" lon="1.56087">
        <ele>206.614608</ele>
        <time>2023-01-04T10:58:08.074Z</time>
      </trkpt>
      <trkpt lat="43.46835" lon="1.56099">
        <ele>206.658093</ele>
        <time>2023-01-04T10:58:10.069Z</time>
      </trkpt>
      <trkpt lat="43.4683" lon="1.5611">
        <ele>206.697897</ele>
        <time>2023-01-04T10:58:12.070Z</time>
      </trkpt>
      <trkpt lat="43.46825" lon="1.56122">
        <ele>206.738666</ele>
        <time>2023-01-04T10:58:14.072Z</time>
      </trkpt>
      <trkpt lat="43.46819" lon="1.56134">
        <ele>206.7823</ele>
        <time>2023-01-04T10:58:16.070Z</time>
      </trkpt>
      <trkpt lat="43.46814" lon="1.56145">
        <ele>206.822789</ele>
        <time>2023-01-04T10:58:18.074Z</time>
      </trkpt>
      <trkpt lat="43.46809" lon="1.56155">
        <ele>206.861376</ele>
        <time>2023-01-04T10:58:20.065Z</time>
      </trkpt>
      <trkpt lat="43.46802" lon="1.56171">
        <ele>206.916552</ele>
        <time>2023-01-04T10:58:23.067Z</time>
      </trkpt>
      <trkpt lat="43.46795" lon="1.56184">
        <ele>206.963914</ele>
        <time>2023-01-04T10:58:26.074Z</time>
      </trkpt>
      <trkpt lat="43.46787" lon="1.56199">
        <ele>207.020844</ele>
        <time>2023-01-04T10:58:29.071Z</time>
      </trkpt>
      <trkpt lat="43.46783" lon="1.5621">
        <ele>207.059609</ele>
        <time>2023-01-04T10:58:31.062Z</time>
      </trkpt>
      <trkpt lat="43.46778" lon="1.56223">
        <ele>207.093355</ele>
        <time>2023-01-04T10:58:33.066Z</time>
      </trkpt>
      <trkpt lat="43.46773" lon="1.56234">
        <ele>207.075473</ele>
        <time>2023-01-04T10:58:35.070Z</time>
      </trkpt>
      <trkpt lat="43.46767" lon="1.56246">
        <ele>207.054936</ele>
        <time>2023-01-04T10:58:37.068Z</time>
      </trkpt>
      <trkpt lat="43.46762" lon="1.56258">
        <ele>207.035798</ele>
        <time>2023-01-04T10:58:39.066Z</time>
      </trkpt>
      <trkpt lat="43.46756" lon="1.5627">
        <ele>207.01567</ele>
        <time>2023-01-04T10:58:41.062Z</time>
      </trkpt>
      <trkpt lat="43.46751" lon="1.56283">
        <ele>206.994496</ele>
        <time>2023-01-04T10:58:43.045Z</time>
      </trkpt>
      <trkpt lat="43.46744" lon="1.56297">
        <ele>206.971906</ele>
        <time>2023-01-04T10:58:46.069Z</time>
      </trkpt>
      <trkpt lat="43.46738" lon="1.56307">
        <ele>206.954148</ele>
        <time>2023-01-04T10:58:48.066Z</time>
      </trkpt>
      <trkpt lat="43.46731" lon="1.5632">
        <ele>206.931219</ele>
        <time>2023-01-04T10:58:51.065Z</time>
      </trkpt>
      <trkpt lat="43.46726" lon="1.56333">
        <ele>206.910941</ele>
        <time>2023-01-04T10:58:53.074Z</time>
      </trkpt>
      <trkpt lat="43.46719" lon="1.56347">
        <ele>206.88721</ele>
        <time>2023-01-04T10:58:56.071Z</time>
      </trkpt>
      <trkpt lat="43.46715" lon="1.56359">
        <ele>206.869525</ele>
        <time>2023-01-04T10:58:58.074Z</time>
      </trkpt>
      <trkpt lat="43.46709" lon="1.56374">
        <ele>206.844881</ele>
        <time>2023-01-04T10:59:01.048Z</time>
      </trkpt>
      <trkpt lat="43.46701" lon="1.56388">
        <ele>206.820481</ele>
        <time>2023-01-04T10:59:04.051Z</time>
      </trkpt>
      <trkpt lat="43.46694" lon="1.56405">
        <ele>206.794197</ele>
        <time>2023-01-04T10:59:07.049Z</time>
      </trkpt>
      <trkpt lat="43.46689" lon="1.56416">
        <ele>206.775505</ele>
        <time>2023-01-04T10:59:09.073Z</time>
      </trkpt>
      <trkpt lat="43.46685" lon="1.56427">
        <ele>206.757659</ele>
        <time>2023-01-04T10:59:11.070Z</time>
      </trkpt>
      <trkpt lat="43.46679" lon="1.56443">
        <ele>206.807617</ele>
        <time>2023-01-04T10:59:13.047Z</time>
      </trkpt>
      <trkpt lat="43.46675" lon="1.56455">
        <ele>206.860394</ele>
        <time>2023-01-04T10:59:15.059Z</time>
      </trkpt>
      <trkpt lat="43.46672" lon="1.56467">
        <ele>206.915322</ele>
        <time>2023-01-04T10:59:17.072Z</time>
      </trkpt>
      <trkpt lat="43.46667" lon="1.56478">
        <ele>206.966513</ele>
        <time>2023-01-04T10:59:19.056Z</time>
      </trkpt>
      <trkpt lat="43.46663" lon="1.56492">
        <ele>207.026676</ele>
        <time>2023-01-04T10:59:21.071Z</time>
      </trkpt>
      <trkpt lat="43.46659" lon="1.56506">
        <ele>207.091406</ele>
        <time>2023-01-04T10:59:23.061Z</time>
      </trkpt>
      <trkpt lat="43.46655" lon="1.56518">
        <ele>207.142295</ele>
        <time>2023-01-04T10:59:25.070Z</time>
      </trkpt>
      <trkpt lat="43.4665" lon="1.5653">
        <ele>207.199272</ele>
        <time>2023-01-04T10:59:27.070Z</time>
      </trkpt>
      <trkpt lat="43.46645" lon="1.56544">
        <ele>207.26368</ele>
        <time>2023-01-04T10:59:29.051Z</time>
      </trkpt>
      <trkpt lat="43.46639" lon="1.56561">
        <ele>207.340755</ele>
        <time>2023-01-04T10:59:32.073Z</time>
      </trkpt>
      <trkpt lat="43.46634" lon="1.56574">
        <ele>207.397657</ele>
        <time>2023-01-04T10:59:34.068Z</time>
      </trkpt>
      <trkpt lat="43.46629" lon="1.56586">
        <ele>207.456618</ele>
        <time>2023-01-04T10:59:36.049Z</time>
      </trkpt>
      <trkpt lat="43.46625" lon="1.566">
        <ele>207.516339</ele>
        <time>2023-01-04T10:59:38.068Z</time>
      </trkpt>
      <trkpt lat="43.46619" lon="1.56615">
        <ele>207.589675</ele>
        <time>2023-01-04T10:59:41.071Z</time>
      </trkpt>
      <trkpt lat="43.46613" lon="1.5663">
        <ele>207.658855</ele>
        <time>2023-01-04T10:59:44.065Z</time>
      </trkpt>
      <trkpt lat="43.46607" lon="1.56644">
        <ele>207.724921</ele>
        <time>2023-01-04T10:59:46.058Z</time>
      </trkpt>
      <trkpt lat="43.46601" lon="1.56658">
        <ele>207.763681</ele>
        <time>2023-01-04T10:59:49.053Z</time>
      </trkpt>
      <trkpt lat="43.46596" lon="1.56671">
        <ele>207.763595</ele>
        <time>2023-01-04T10:59:51.071Z</time>
      </trkpt>
      <trkpt lat="43.4659" lon="1.56683">
        <ele>207.763507</ele>
        <time>2023-01-04T10:59:53.072Z</time>
      </trkpt>
      <trkpt lat="43.46585" lon="1.56697">
        <ele>207.763413</ele>
        <time>2023-01-04T10:59:56.066Z</time>
      </trkpt>
      <trkpt lat="43.46579" lon="1.56712">
        <ele>207.76331</ele>
        <time>2023-01-04T10:59:59.071Z</time>
      </trkpt>
      <trkpt lat="43.46574" lon="1.56724">
        <ele>207.763231</ele>
        <time>2023-01-04T11:00:01.057Z</time>
      </trkpt>
      <trkpt lat="43.46567" lon="1.56738">
        <ele>207.763126</ele>
        <time>2023-01-04T11:00:04.053Z</time>
      </trkpt>
      <trkpt lat="43.46562" lon="1.56748">
        <ele>207.76305</ele>
        <time>2023-01-04T11:00:06.071Z</time>
      </trkpt>
      <trkpt lat="43.46555" lon="1.56763">
        <ele>207.762947</ele>
        <time>2023-01-04T11:00:08.063Z</time>
      </trkpt>
      <trkpt lat="43.46549" lon="1.56777">
        <ele>207.762849</ele>
        <time>2023-01-04T11:00:11.065Z</time>
      </trkpt>
      <trkpt lat="43.46539" lon="1.56794">
        <ele>207.762715</ele>
        <time>2023-01-04T11:00:14.074Z</time>
      </trkpt>
      <trkpt lat="43.46531" lon="1.56809">
        <ele>207.762603</ele>
        <time>2023-01-04T11:00:17.067Z</time>
      </trkpt>
      <trkpt lat="43.46524" lon="1.5682">
        <ele>207.762517</ele>
        <time>2023-01-04T11:00:19.076Z</time>
      </trkpt>
      <trkpt lat="43.46518" lon="1.56832">
        <ele>207.762431</ele>
        <time>2023-01-04T11:00:21.083Z</time>
      </trkpt>
      <trkpt lat="43.46512" lon="1.56842">
        <ele>207.762352</ele>
        <time>2023-01-04T11:00:23.069Z</time>
      </trkpt>
      <trkpt lat="43.46505" lon="1.56854">
        <ele>207.762259</ele>
        <time>2023-01-04T11:00:26.086Z</time>
      </trkpt>
      <trkpt lat="43.46499" lon="1.56866">
        <ele>207.697476</ele>
        <time>2023-01-04T11:00:29.074Z</time>
      </trkpt>
      <trkpt lat="43.46493" lon="1.56877">
        <ele>207.617377</ele>
        <time>2023-01-04T11:00:32.056Z</time>
      </trkpt>
      <trkpt lat="43.46485" lon="1.56891">
        <ele>207.51505</ele>
        <time>2023-01-04T11:00:35.051Z</time>
      </trkpt>
      <trkpt lat="43.46476" lon="1.56906">
        <ele>207.405746</ele>
        <time>2023-01-04T11:00:38.077Z</time>
      </trkpt>
      <trkpt lat="43.46468" lon="1.5692">
        <ele>207.302965</ele>
        <time>2023-01-04T11:00:41.071Z</time>
      </trkpt>
      <trkpt lat="43.46462" lon="1.56932">
        <ele>207.21723</ele>
        <time>2023-01-04T11:00:44.064Z</time>
      </trkpt>
      <trkpt lat="43.46456" lon="1.56942">
        <ele>207.14319</ele>
        <time>2023-01-04T11:00:47.057Z</time>
      </trkpt>
      <trkpt lat="43.4645" lon="1.56953">
        <ele>207.05793</ele>
        <time>2023-01-04T11:00:51.072Z</time>
      </trkpt>
      <trkpt lat="43.46442" lon="1.56964">
        <ele>206.970494</ele>
        <time>2023-01-04T11:01:02.057Z</time>
      </trkpt>
      <trkpt lat="43.46434" lon="1.56975">
        <ele>206.878896</ele>
        <time>2023-01-04T11:01:06.073Z</time>
      </trkpt>
      <trkpt lat="43.46426" lon="1.56986">
        <ele>206.783626</ele>
        <time>2023-01-04T11:01:09.068Z</time>
      </trkpt>
      <trkpt lat="43.46417" lon="1.56993">
        <ele>206.707574</ele>
        <time>2023-01-04T11:01:11.066Z</time>
      </trkpt>
      <trkpt lat="43.46409" lon="1.57001">
        <ele>206.629324</ele>
        <time>2023-01-04T11:01:13.075Z</time>
      </trkpt>
      <trkpt lat="43.46401" lon="1.57008">
        <ele>206.548768</ele>
        <time>2023-01-04T11:01:15.067Z</time>
      </trkpt>
      <trkpt lat="43.46392" lon="1.57018">
        <ele>206.460833</ele>
        <time>2023-01-04T11:01:18.068Z</time>
      </trkpt>
      <trkpt lat="43.46384" lon="1.57025">
        <ele>206.38318</ele>
        <time>2023-01-04T11:01:21.051Z</time>
      </trkpt>
      <trkpt lat="43.46375" lon="1.57035">
        <ele>206.294636</ele>
        <time>2023-01-04T11:01:25.069Z</time>
      </trkpt>
      <trkpt lat="43.46368" lon="1.57043">
        <ele>206.230538</ele>
        <time>2023-01-04T11:01:28.060Z</time>
      </trkpt>
      <trkpt lat="43.46358" lon="1.57049">
        <ele>206.161389</ele>
        <time>2023-01-04T11:01:31.072Z</time>
      </trkpt>
      <trkpt lat="43.46349" lon="1.57056">
        <ele>206.089697</ele>
        <time>2023-01-04T11:01:34.073Z</time>
      </trkpt>
      <trkpt lat="43.4634" lon="1.57064">
        <ele>206.01953</ele>
        <time>2023-01-04T11:01:37.077Z</time>
      </trkpt>
      <trkpt lat="43.46331" lon="1.57069">
        <ele>205.951444</ele>
        <time>2023-01-04T11:01:40.067Z</time>
      </trkpt>
      <trkpt lat="43.46322" lon="1.57074">
        <ele>205.886692</ele>
        <time>2023-01-04T11:01:43.067Z</time>
      </trkpt>
      <trkpt lat="43.46313" lon="1.57079">
        <ele>205.825863</ele>
        <time>2023-01-04T11:01:46.070Z</time>
      </trkpt>
      <trkpt lat="43.46304" lon="1.57082">
        <ele>205.760877</ele>
        <time>2023-01-04T11:01:50.059Z</time>
      </trkpt>
      <trkpt lat="43.46295" lon="1.57086">
        <ele>205.699341</ele>
        <time>2023-01-04T11:01:54.072Z</time>
      </trkpt>
      <trkpt lat="43.46285" lon="1.57092">
        <ele>205.624901</ele>
        <time>2023-01-04T11:01:58.069Z</time>
      </trkpt>
      <trkpt lat="43.46277" lon="1.57099">
        <ele>205.562659</ele>
        <time>2023-01-04T11:02:01.073Z</time>
      </trkpt>
      <trkpt lat="43.46268" lon="1.57108">
        <ele>205.484701</ele>
        <time>2023-01-04T11:02:05.067Z</time>
      </trkpt>
      <trkpt lat="43.4626" lon="1.57115">
        <ele>205.420883</ele>
        <time>2023-01-04T11:02:08.077Z</time>
      </trkpt>
      <trkpt lat="43.46251" lon="1.57122">
        <ele>205.350131</ele>
        <time>2023-01-04T11:02:11.056Z</time>
      </trkpt>
      <trkpt lat="43.46242" lon="1.57129">
        <ele>205.28185</ele>
        <time>2023-01-04T11:02:14.066Z</time>
      </trkpt>
      <trkpt lat="43.46234" lon="1.57136">
        <ele>205.219684</ele>
        <time>2023-01-04T11:02:17.073Z</time>
      </trkpt>
      <trkpt lat="43.46227" lon="1.57146">
        <ele>205.152118</ele>
        <time>2023-01-04T11:02:20.077Z</time>
      </trkpt>
      <trkpt lat="43.4622" lon="1.57155">
        <ele>205.177686</ele>
        <time>2023-01-04T11:02:23.074Z</time>
      </trkpt>
      <trkpt lat="43.46213" lon="1.57162">
        <ele>205.35947</ele>
        <time>2023-01-04T11:02:28.051Z</time>
      </trkpt>
      <trkpt lat="43.46205" lon="1.57171">
        <ele>205.549827</ele>
        <time>2023-01-04T11:02:32.071Z</time>
      </trkpt>
      <trkpt lat="43.46198" lon="1.5718">
        <ele>205.750457</ele>
        <time>2023-01-04T11:02:36.075Z</time>
      </trkpt>
      <trkpt lat="43.46191" lon="1.57188">
        <ele>205.939276</ele>
        <time>2023-01-04T11:02:39.073Z</time>
      </trkpt>
      <trkpt lat="43.46183" lon="1.57199">
        <ele>206.155943</ele>
        <time>2023-01-04T11:02:42.067Z</time>
      </trkpt>
      <trkpt lat="43.46175" lon="1.5721">
        <ele>206.378876</ele>
        <time>2023-01-04T11:02:45.071Z</time>
      </trkpt>
      <trkpt lat="43.46167" lon="1.57222">
        <ele>206.614176</ele>
        <time>2023-01-04T11:02:48.065Z</time>
      </trkpt>
      <trkpt lat="43.46161" lon="1.57232">
        <ele>206.801979</ele>
        <time>2023-01-04T11:02:50.071Z</time>
      </trkpt>
      <trkpt lat="43.46153" lon="1.57245">
        <ele>207.05024</ele>
        <time>2023-01-04T11:02:53.072Z</time>
      </trkpt>
      <trkpt lat="43.46144" lon="1.5726">
        <ele>207.328826</ele>
        <time>2023-01-04T11:02:56.071Z</time>
      </trkpt>
      <trkpt lat="43.46135" lon="1.57274">
        <ele>207.582933</ele>
        <time>2023-01-04T11:02:58.072Z</time>
      </trkpt>
      <trkpt lat="43.46129" lon="1.57284">
        <ele>207.78291</ele>
        <time>2023-01-04T11:03:00.082Z</time>
      </trkpt>
      <trkpt lat="43.46121" lon="1.57296">
        <ele>208.022513</ele>
        <time>2023-01-04T11:03:03.073Z</time>
      </trkpt>
      <trkpt lat="43.46115" lon="1.57307">
        <ele>208.214361</ele>
        <time>2023-01-04T11:03:05.066Z</time>
      </trkpt>
      <trkpt lat="43.46107" lon="1.5732">
        <ele>208.451121</ele>
        <time>2023-01-04T11:03:08.074Z</time>
      </trkpt>
      <trkpt lat="43.46099" lon="1.57335">
        <ele>208.663216</ele>
        <time>2023-01-04T11:03:11.074Z</time>
      </trkpt>
      <trkpt lat="43.46092" lon="1.57348">
        <ele>208.620329</ele>
        <time>2023-01-04T11:03:14.071Z</time>
      </trkpt>
      <trkpt lat="43.46085" lon="1.57361">
        <ele>208.57725</ele>
        <time>2023-01-04T11:03:17.052Z</time>
      </trkpt>
      <trkpt lat="43.46078" lon="1.57373">
        <ele>208.536967</ele>
        <time>2023-01-04T11:03:20.066Z</time>
      </trkpt>
      <trkpt lat="43.4607" lon="1.57386">
        <ele>208.492127</ele>
        <time>2023-01-04T11:03:23.073Z</time>
      </trkpt>
      <trkpt lat="43.46062" lon="1.57397">
        <ele>208.449348</ele>
        <time>2023-01-04T11:03:26.074Z</time>
      </trkpt>
      <trkpt lat="43.46055" lon="1.57412">
        <ele>208.401963</ele>
        <time>2023-01-04T11:03:28.073Z</time>
      </trkpt>
      <trkpt lat="43.46048" lon="1.57422">
        <ele>208.365733</ele>
        <time>2023-01-04T11:03:30.073Z</time>
      </trkpt>
      <trkpt lat="43.46042" lon="1.57435">
        <ele>208.324794</ele>
        <time>2023-01-04T11:03:32.072Z</time>
      </trkpt>
      <trkpt lat="43.46036" lon="1.57447">
        <ele>208.287512</ele>
        <time>2023-01-04T11:03:34.083Z</time>
      </trkpt>
      <trkpt lat="43.46031" lon="1.57458">
        <ele>208.25067</ele>
        <time>2023-01-04T11:03:36.068Z</time>
      </trkpt>
      <trkpt lat="43.46023" lon="1.57471">
        <ele>208.206293</ele>
        <time>2023-01-04T11:03:39.070Z</time>
      </trkpt>
      <trkpt lat="43.46019" lon="1.57482">
        <ele>208.172866</ele>
        <time>2023-01-04T11:03:41.071Z</time>
      </trkpt>
      <trkpt lat="43.46012" lon="1.57494">
        <ele>208.133827</ele>
        <time>2023-01-04T11:03:44.074Z</time>
      </trkpt>
      <trkpt lat="43.46005" lon="1.57504">
        <ele>208.097107</ele>
        <time>2023-01-04T11:03:47.048Z</time>
      </trkpt>
      <trkpt lat="43.45998" lon="1.57517">
        <ele>208.050976</ele>
        <time>2023-01-04T11:03:50.062Z</time>
      </trkpt>
      <trkpt lat="43.45992" lon="1.57528">
        <ele>208.015435</ele>
        <time>2023-01-04T11:03:52.057Z</time>
      </trkpt>
      <trkpt lat="43.45986" lon="1.57538">
        <ele>207.945779</ele>
        <time>2023-01-04T11:03:54.071Z</time>
      </trkpt>
      <trkpt lat="43.45981" lon="1.5755">
        <ele>207.870185</ele>
        <time>2023-01-04T11:03:56.063Z</time>
      </trkpt>
      <trkpt lat="43.45973" lon="1.57565">
        <ele>207.767271</ele>
        <time>2023-01-04T11:03:59.049Z</time>
      </trkpt>
      <trkpt lat="43.45967" lon="1.57577">
        <ele>207.689021</ele>
        <time>2023-01-04T11:04:01.070Z</time>
      </trkpt>
      <trkpt lat="43.4596" lon="1.57592">
        <ele>207.588693</ele>
        <time>2023-01-04T11:04:03.070Z</time>
      </trkpt>
      <trkpt lat="43.45954" lon="1.57602">
        <ele>207.514955</ele>
        <time>2023-01-04T11:04:05.068Z</time>
      </trkpt>
      <trkpt lat="43.45949" lon="1.57613">
        <ele>207.442472</ele>
        <time>2023-01-04T11:04:07.071Z</time>
      </trkpt>
      <trkpt lat="43.45943" lon="1.57624">
        <ele>207.365172</ele>
        <time>2023-01-04T11:04:09.066Z</time>
      </trkpt>
      <trkpt lat="43.45937" lon="1.57636">
        <ele>207.287422</ele>
        <time>2023-01-04T11:04:11.068Z</time>
      </trkpt>
      <trkpt lat="43.45932" lon="1.57648">
        <ele>207.210013</ele>
        <time>2023-01-04T11:04:13.073Z</time>
      </trkpt>
      <trkpt lat="43.45926" lon="1.57659">
        <ele>207.130468</ele>
        <time>2023-01-04T11:04:15.073Z</time>
      </trkpt>
      <trkpt lat="43.4592" lon="1.57673">
        <ele>207.045355</ele>
        <time>2023-01-04T11:04:17.073Z</time>
      </trkpt>
      <trkpt lat="43.45914" lon="1.57685">
        <ele>206.965295</ele>
        <time>2023-01-04T11:04:19.050Z</time>
      </trkpt>
      <trkpt lat="43.4591" lon="1.57696">
        <ele>206.894573</ele>
        <time>2023-01-04T11:04:21.072Z</time>
      </trkpt>
      <trkpt lat="43.45904" lon="1.57709">
        <ele>206.80461</ele>
        <time>2023-01-04T11:04:24.078Z</time>
      </trkpt>
      <trkpt lat="43.45898" lon="1.57723">
        <ele>206.717183</ele>
        <time>2023-01-04T11:04:27.050Z</time>
      </trkpt>
      <trkpt lat="43.45893" lon="1.57738">
        <ele>206.65664</ele>
        <time>2023-01-04T11:04:30.066Z</time>
      </trkpt>
      <trkpt lat="43.45887" lon="1.57754">
        <ele>206.813469</ele>
        <time>2023-01-04T11:04:33.072Z</time>
      </trkpt>
      <trkpt lat="43.45881" lon="1.5777">
        <ele>206.977719</ele>
        <time>2023-01-04T11:04:36.071Z</time>
      </trkpt>
      <trkpt lat="43.45876" lon="1.57786">
        <ele>207.128633</ele>
        <time>2023-01-04T11:04:39.055Z</time>
      </trkpt>
      <trkpt lat="43.45872" lon="1.57801">
        <ele>207.269877</ele>
        <time>2023-01-04T11:04:42.054Z</time>
      </trkpt>
      <trkpt lat="43.45865" lon="1.57817">
        <ele>207.441036</ele>
        <time>2023-01-04T11:04:45.072Z</time>
      </trkpt>
      <trkpt lat="43.45861" lon="1.57829">
        <ele>207.553689</ele>
        <time>2023-01-04T11:04:47.072Z</time>
      </trkpt>
      <trkpt lat="43.45857" lon="1.57841">
        <ele>207.677821</ele>
        <time>2023-01-04T11:04:49.072Z</time>
      </trkpt>
      <trkpt lat="43.45852" lon="1.57858">
        <ele>207.835114</ele>
        <time>2023-01-04T11:04:52.071Z</time>
      </trkpt>
      <trkpt lat="43.45847" lon="1.57875">
        <ele>208.003688</ele>
        <time>2023-01-04T11:04:55.051Z</time>
      </trkpt>
      <trkpt lat="43.45842" lon="1.57886">
        <ele>208.121808</ele>
        <time>2023-01-04T11:04:57.075Z</time>
      </trkpt>
      <trkpt lat="43.45837" lon="1.57898">
        <ele>208.237934</ele>
        <time>2023-01-04T11:04:59.067Z</time>
      </trkpt>
      <trkpt lat="43.45834" lon="1.5791">
        <ele>208.355477</ele>
        <time>2023-01-04T11:05:01.070Z</time>
      </trkpt>
      <trkpt lat="43.45827" lon="1.57928">
        <ele>208.537182</ele>
        <time>2023-01-04T11:05:04.072Z</time>
      </trkpt>
      <trkpt lat="43.45821" lon="1.57942">
        <ele>208.683415</ele>
        <time>2023-01-04T11:05:06.074Z</time>
      </trkpt>
      <trkpt lat="43.45815" lon="1.57957">
        <ele>208.830676</ele>
        <time>2023-01-04T11:05:08.066Z</time>
      </trkpt>
      <trkpt lat="43.45809" lon="1.57971">
        <ele>208.641983</ele>
        <time>2023-01-04T11:05:10.067Z</time>
      </trkpt>
      <trkpt lat="43.45803" lon="1.57982">
        <ele>208.449283</ele>
        <time>2023-01-04T11:05:12.073Z</time>
      </trkpt>
      <trkpt lat="43.45797" lon="1.57994">
        <ele>208.240784</ele>
        <time>2023-01-04T11:05:14.072Z</time>
      </trkpt>
      <trkpt lat="43.45792" lon="1.58005">
        <ele>208.0586</ele>
        <time>2023-01-04T11:05:16.064Z</time>
      </trkpt>
      <trkpt lat="43.45786" lon="1.58014">
        <ele>207.883543</ele>
        <time>2023-01-04T11:05:18.052Z</time>
      </trkpt>
      <trkpt lat="43.4578" lon="1.58024">
        <ele>207.696365</ele>
        <time>2023-01-04T11:05:20.066Z</time>
      </trkpt>
      <trkpt lat="43.45773" lon="1.58036">
        <ele>207.484129</ele>
        <time>2023-01-04T11:05:22.074Z</time>
      </trkpt>
      <trkpt lat="43.45767" lon="1.58046">
        <ele>207.307316</ele>
        <time>2023-01-04T11:05:24.072Z</time>
      </trkpt>
      <trkpt lat="43.45759" lon="1.58056">
        <ele>207.09601</ele>
        <time>2023-01-04T11:05:26.074Z</time>
      </trkpt>
      <trkpt lat="43.45752" lon="1.58067">
        <ele>206.888752</ele>
        <time>2023-01-04T11:05:28.055Z</time>
      </trkpt>
      <trkpt lat="43.45745" lon="1.58077">
        <ele>206.691945</ele>
        <time>2023-01-04T11:05:30.065Z</time>
      </trkpt>
      <trkpt lat="43.45738" lon="1.58086">
        <ele>206.501081</ele>
        <time>2023-01-04T11:05:32.071Z</time>
      </trkpt>
      <trkpt lat="43.45729" lon="1.58098">
        <ele>206.269553</ele>
        <time>2023-01-04T11:05:35.071Z</time>
      </trkpt>
      <trkpt lat="43.45723" lon="1.58107">
        <ele>206.088564</ele>
        <time>2023-01-04T11:05:37.073Z</time>
      </trkpt>
      <trkpt lat="43.45716" lon="1.58117">
        <ele>205.902461</ele>
        <time>2023-01-04T11:05:39.055Z</time>
      </trkpt>
      <trkpt lat="43.4571" lon="1.58127">
        <ele>205.709362</ele>
        <time>2023-01-04T11:05:41.072Z</time>
      </trkpt>
      <trkpt lat="43.45703" lon="1.58139">
        <ele>205.500793</ele>
        <time>2023-01-04T11:05:43.080Z</time>
      </trkpt>
      <trkpt lat="43.45696" lon="1.5815">
        <ele>205.340753</ele>
        <time>2023-01-04T11:05:45.072Z</time>
      </trkpt>
      <trkpt lat="43.45688" lon="1.58163">
        <ele>205.274009</ele>
        <time>2023-01-04T11:05:48.070Z</time>
      </trkpt>
      <trkpt lat="43.45681" lon="1.58172">
        <ele>205.223311</ele>
        <time>2023-01-04T11:05:50.053Z</time>
      </trkpt>
      <trkpt lat="43.45675" lon="1.58184">
        <ele>205.165267</ele>
        <time>2023-01-04T11:05:52.070Z</time>
      </trkpt>
      <trkpt lat="43.45668" lon="1.58194">
        <ele>205.113832</ele>
        <time>2023-01-04T11:05:54.053Z</time>
      </trkpt>
      <trkpt lat="43.45658" lon="1.58205">
        <ele>205.042887</ele>
        <time>2023-01-04T11:05:57.060Z</time>
      </trkpt>
      <trkpt lat="43.45652" lon="1.58213">
        <ele>204.994171</ele>
        <time>2023-01-04T11:05:59.073Z</time>
      </trkpt>
      <trkpt lat="43.45644" lon="1.58225">
        <ele>204.930734</ele>
        <time>2023-01-04T11:06:01.056Z</time>
      </trkpt>
      <trkpt lat="43.45632" lon="1.5824">
        <ele>204.845693</ele>
        <time>2023-01-04T11:06:04.066Z</time>
      </trkpt>
      <trkpt lat="43.45625" lon="1.58251">
        <ele>204.786695</ele>
        <time>2023-01-04T11:06:06.075Z</time>
      </trkpt>
      <trkpt lat="43.45619" lon="1.58261">
        <ele>204.736942</ele>
        <time>2023-01-04T11:06:08.073Z</time>
      </trkpt>
      <trkpt lat="43.45612" lon="1.58272">
        <ele>204.679295</ele>
        <time>2023-01-04T11:06:10.072Z</time>
      </trkpt>
      <trkpt lat="43.45607" lon="1.58285">
        <ele>204.621511</ele>
        <time>2023-01-04T11:06:12.071Z</time>
      </trkpt>
      <trkpt lat="43.45602" lon="1.58296">
        <ele>204.57096</ele>
        <time>2023-01-04T11:06:14.076Z</time>
      </trkpt>
      <trkpt lat="43.45596" lon="1.58308">
        <ele>204.514798</ele>
        <time>2023-01-04T11:06:16.070Z</time>
      </trkpt>
      <trkpt lat="43.45591" lon="1.58322">
        <ele>204.450823</ele>
        <time>2023-01-04T11:06:18.056Z</time>
      </trkpt>
      <trkpt lat="43.45586" lon="1.58341">
        <ele>204.384445</ele>
        <time>2023-01-04T11:06:21.073Z</time>
      </trkpt>
      <trkpt lat="43.45582" lon="1.58359">
        <ele>204.379805</ele>
        <time>2023-01-04T11:06:24.076Z</time>
      </trkpt>
      <trkpt lat="43.45578" lon="1.58374">
        <ele>204.376177</ele>
        <time>2023-01-04T11:06:26.079Z</time>
      </trkpt>
      <trkpt lat="43.45577" lon="1.58388">
        <ele>204.372752</ele>
        <time>2023-01-04T11:06:28.073Z</time>
      </trkpt>
      <trkpt lat="43.45575" lon="1.58403">
        <ele>204.36924</ele>
        <time>2023-01-04T11:06:30.071Z</time>
      </trkpt>
      <trkpt lat="43.45574" lon="1.58416">
        <ele>204.366053</ele>
        <time>2023-01-04T11:06:32.067Z</time>
      </trkpt>
      <trkpt lat="43.45573" lon="1.58431">
        <ele>204.362656</ele>
        <time>2023-01-04T11:06:34.074Z</time>
      </trkpt>
      <trkpt lat="43.45571" lon="1.58447">
        <ele>204.358778</ele>
        <time>2023-01-04T11:06:36.074Z</time>
      </trkpt>
      <trkpt lat="43.4557" lon="1.58461">
        <ele>204.355509</ele>
        <time>2023-01-04T11:06:38.071Z</time>
      </trkpt>
      <trkpt lat="43.45568" lon="1.58476">
        <ele>204.351758</ele>
        <time>2023-01-04T11:06:40.073Z</time>
      </trkpt>
      <trkpt lat="43.45567" lon="1.5849">
        <ele>204.348658</ele>
        <time>2023-01-04T11:06:42.069Z</time>
      </trkpt>
      <trkpt lat="43.45567" lon="1.58502">
        <ele>204.345637</ele>
        <time>2023-01-04T11:06:44.074Z</time>
      </trkpt>
      <trkpt lat="43.45567" lon="1.58515">
        <ele>204.342639</ele>
        <time>2023-01-04T11:06:46.072Z</time>
      </trkpt>
      <trkpt lat="43.45568" lon="1.58531">
        <ele>204.338825</ele>
        <time>2023-01-04T11:06:49.071Z</time>
      </trkpt>
      <trkpt lat="43.45568" lon="1.58545">
        <ele>204.335521</ele>
        <time>2023-01-04T11:06:51.051Z</time>
      </trkpt>
      <trkpt lat="43.4557" lon="1.58558">
        <ele>204.332415</ele>
        <time>2023-01-04T11:06:53.068Z</time>
      </trkpt>
      <trkpt lat="43.45571" lon="1.58573">
        <ele>204.328877</ele>
        <time>2023-01-04T11:06:55.068Z</time>
      </trkpt>
      <trkpt lat="43.45571" lon="1.58589">
        <ele>204.347614</ele>
        <time>2023-01-04T11:06:57.072Z</time>
      </trkpt>
      <trkpt lat="43.45572" lon="1.58605">
        <ele>204.394591</ele>
        <time>2023-01-04T11:06:59.077Z</time>
      </trkpt>
      <trkpt lat="43.45574" lon="1.5862">
        <ele>204.439794</ele>
        <time>2023-01-04T11:07:01.057Z</time>
      </trkpt>
      <trkpt lat="43.45574" lon="1.58634">
        <ele>204.483673</ele>
        <time>2023-01-04T11:07:03.070Z</time>
      </trkpt>
      <trkpt lat="43.45576" lon="1.58648">
        <ele>204.526274</ele>
        <time>2023-01-04T11:07:05.070Z</time>
      </trkpt>
      <trkpt lat="43.45578" lon="1.58664">
        <ele>204.575233</ele>
        <time>2023-01-04T11:07:07.067Z</time>
      </trkpt>
      <trkpt lat="43.45578" lon="1.58676">
        <ele>204.61384</ele>
        <time>2023-01-04T11:07:09.075Z</time>
      </trkpt>
      <trkpt lat="43.45579" lon="1.58691">
        <ele>204.657451</ele>
        <time>2023-01-04T11:07:11.070Z</time>
      </trkpt>
      <trkpt lat="43.45581" lon="1.58709">
        <ele>204.712312</ele>
        <time>2023-01-04T11:07:14.072Z</time>
      </trkpt>
      <trkpt lat="43.45583" lon="1.58722">
        <ele>204.752731</ele>
        <time>2023-01-04T11:07:16.074Z</time>
      </trkpt>
      <trkpt lat="43.45584" lon="1.58735">
        <ele>204.792547</ele>
        <time>2023-01-04T11:07:18.075Z</time>
      </trkpt>
      <trkpt lat="43.45585" lon="1.58747">
        <ele>204.830976</ele>
        <time>2023-01-04T11:07:20.067Z</time>
      </trkpt>
      <trkpt lat="43.45586" lon="1.58763">
        <ele>204.879768</ele>
        <time>2023-01-04T11:07:23.068Z</time>
      </trkpt>
      <trkpt lat="43.45587" lon="1.58781">
        <ele>204.934561</ele>
        <time>2023-01-04T11:07:26.074Z</time>
      </trkpt>
      <trkpt lat="43.45587" lon="1.58795">
        <ele>204.977713</ele>
        <time>2023-01-04T11:07:28.069Z</time>
      </trkpt>
      <trkpt lat="43.45587" lon="1.58809">
        <ele>205.019087</ele>
        <time>2023-01-04T11:07:30.071Z</time>
      </trkpt>
      <trkpt lat="43.45588" lon="1.58826">
        <ele>205.07142</ele>
        <time>2023-01-04T11:07:33.079Z</time>
      </trkpt>
      <trkpt lat="43.45587" lon="1.58842">
        <ele>205.12617</ele>
        <time>2023-01-04T11:07:36.073Z</time>
      </trkpt>
      <trkpt lat="43.45587" lon="1.58859">
        <ele>205.183728</ele>
        <time>2023-01-04T11:07:39.070Z</time>
      </trkpt>
      <trkpt lat="43.45586" lon="1.58873">
        <ele>205.232638</ele>
        <time>2023-01-04T11:07:41.074Z</time>
      </trkpt>
      <trkpt lat="43.45585" lon="1.58887">
        <ele>205.282244</ele>
        <time>2023-01-04T11:07:44.071Z</time>
      </trkpt>
      <trkpt lat="43.45584" lon="1.58901">
        <ele>205.330978</ele>
        <time>2023-01-04T11:07:46.075Z</time>
      </trkpt>
      <trkpt lat="43.45583" lon="1.58919">
        <ele>205.39338</ele>
        <time>2023-01-04T11:07:49.075Z</time>
      </trkpt>
      <trkpt lat="43.45582" lon="1.58931">
        <ele>205.437612</ele>
        <time>2023-01-04T11:07:51.069Z</time>
      </trkpt>
      <trkpt lat="43.45581" lon="1.58947">
        <ele>205.493892</ele>
        <time>2023-01-04T11:07:54.073Z</time>
      </trkpt>
      <trkpt lat="43.4558" lon="1.58963">
        <ele>205.547928</ele>
        <time>2023-01-04T11:07:57.071Z</time>
      </trkpt>
      <trkpt lat="43.45579" lon="1.58983">
        <ele>205.617488</ele>
        <time>2023-01-04T11:08:00.072Z</time>
      </trkpt>
      <trkpt lat="43.45578" lon="1.58995">
        <ele>205.662612</ele>
        <time>2023-01-04T11:08:02.071Z</time>
      </trkpt>
      <trkpt lat="43.45576" lon="1.59013">
        <ele>205.724376</ele>
        <time>2023-01-04T11:08:05.068Z</time>
      </trkpt>
      <trkpt lat="43.45575" lon="1.59025">
        <ele>205.76786</ele>
        <time>2023-01-04T11:08:07.073Z</time>
      </trkpt>
      <trkpt lat="43.45574" lon="1.59041">
        <ele>205.823281</ele>
        <time>2023-01-04T11:08:10.072Z</time>
      </trkpt>
      <trkpt lat="43.45574" lon="1.59057">
        <ele>205.879099</ele>
        <time>2023-01-04T11:08:14.070Z</time>
      </trkpt>
      <trkpt lat="43.45574" lon="1.59073">
        <ele>205.932427</ele>
        <time>2023-01-04T11:08:17.071Z</time>
      </trkpt>
      <trkpt lat="43.45575" lon="1.59089">
        <ele>205.935563</ele>
        <time>2023-01-04T11:08:20.052Z</time>
      </trkpt>
      <trkpt lat="43.45575" lon="1.59102">
        <ele>205.92759</ele>
        <time>2023-01-04T11:08:23.073Z</time>
      </trkpt>
      <trkpt lat="43.45571" lon="1.59115">
        <ele>205.919645</ele>
        <time>2023-01-04T11:08:27.050Z</time>
      </trkpt>
      <trkpt lat="43.45567" lon="1.59127">
        <ele>205.911825</ele>
        <time>2023-01-04T11:08:31.063Z</time>
      </trkpt>
      <trkpt lat="43.45563" lon="1.59141">
        <ele>205.903132</ele>
        <time>2023-01-04T11:08:34.072Z</time>
      </trkpt>
      <trkpt lat="43.45559" lon="1.59156">
        <ele>205.893818</ele>
        <time>2023-01-04T11:08:37.068Z</time>
      </trkpt>
      <trkpt lat="43.45555" lon="1.59171">
        <ele>205.884798</ele>
        <time>2023-01-04T11:08:39.052Z</time>
      </trkpt>
      <trkpt lat="43.45549" lon="1.59187">
        <ele>205.874341</ele>
        <time>2023-01-04T11:08:42.072Z</time>
      </trkpt>
      <trkpt lat="43.45543" lon="1.59203">
        <ele>205.864009</ele>
        <time>2023-01-04T11:08:45.074Z</time>
      </trkpt>
      <trkpt lat="43.45538" lon="1.59216">
        <ele>205.855572</ele>
        <time>2023-01-04T11:08:48.073Z</time>
      </trkpt>
      <trkpt lat="43.45532" lon="1.59228">
        <ele>205.84706</ele>
        <time>2023-01-04T11:08:51.052Z</time>
      </trkpt>
      <trkpt lat="43.45524" lon="1.5924">
        <ele>205.837696</ele>
        <time>2023-01-04T11:08:54.077Z</time>
      </trkpt>
      <trkpt lat="43.45515" lon="1.59253">
        <ele>205.827595</ele>
        <time>2023-01-04T11:08:57.071Z</time>
      </trkpt>
      <trkpt lat="43.45506" lon="1.59265">
        <ele>205.817137</ele>
        <time>2023-01-04T11:09:00.056Z</time>
      </trkpt>
      <trkpt lat="43.45497" lon="1.59277">
        <ele>205.807047</ele>
        <time>2023-01-04T11:09:03.076Z</time>
      </trkpt>
      <trkpt lat="43.45485" lon="1.59288">
        <ele>205.806528</ele>
        <time>2023-01-04T11:09:06.074Z</time>
      </trkpt>
      <trkpt lat="43.45473" lon="1.59297">
        <ele>205.826192</ele>
        <time>2023-01-04T11:09:09.073Z</time>
      </trkpt>
      <trkpt lat="43.45464" lon="1.593">
        <ele>205.839582</ele>
        <time>2023-01-04T11:09:11.072Z</time>
      </trkpt>
      <trkpt lat="43.45454" lon="1.59303">
        <ele>205.853059</ele>
        <time>2023-01-04T11:09:13.071Z</time>
      </trkpt>
      <trkpt lat="43.45445" lon="1.59306">
        <ele>205.867084</ele>
        <time>2023-01-04T11:09:15.067Z</time>
      </trkpt>
      <trkpt lat="43.45435" lon="1.59308">
        <ele>205.880481</ele>
        <time>2023-01-04T11:09:17.071Z</time>
      </trkpt>
      <trkpt lat="43.45425" lon="1.59312">
        <ele>205.895834</ele>
        <time>2023-01-04T11:09:19.070Z</time>
      </trkpt>
      <trkpt lat="43.45415" lon="1.59314">
        <ele>205.910131</ele>
        <time>2023-01-04T11:09:21.075Z</time>
      </trkpt>
      <trkpt lat="43.45406" lon="1.59317">
        <ele>205.923447</ele>
        <time>2023-01-04T11:09:23.074Z</time>
      </trkpt>
      <trkpt lat="43.45396" lon="1.59321">
        <ele>205.93711</ele>
        <time>2023-01-04T11:09:25.070Z</time>
      </trkpt>
      <trkpt lat="43.45386" lon="1.59324">
        <ele>205.951694</ele>
        <time>2023-01-04T11:09:27.074Z</time>
      </trkpt>
      <trkpt lat="43.45376" lon="1.59327">
        <ele>205.965993</ele>
        <time>2023-01-04T11:09:29.072Z</time>
      </trkpt>
      <trkpt lat="43.45365" lon="1.59331">
        <ele>205.98229</ele>
        <time>2023-01-04T11:09:31.073Z</time>
      </trkpt>
      <trkpt lat="43.45352" lon="1.59337">
        <ele>206.001086</ele>
        <time>2023-01-04T11:09:34.062Z</time>
      </trkpt>
      <trkpt lat="43.45343" lon="1.59341">
        <ele>206.015048</ele>
        <time>2023-01-04T11:09:36.075Z</time>
      </trkpt>
      <trkpt lat="43.45333" lon="1.59342">
        <ele>206.02843</ele>
        <time>2023-01-04T11:09:38.047Z</time>
      </trkpt>
      <trkpt lat="43.45323" lon="1.59346">
        <ele>206.043774</ele>
        <time>2023-01-04T11:09:40.071Z</time>
      </trkpt>
      <trkpt lat="43.45312" lon="1.59351">
        <ele>206.015052</ele>
        <time>2023-01-04T11:09:42.069Z</time>
      </trkpt>
      <trkpt lat="43.45302" lon="1.59356">
        <ele>205.921339</ele>
        <time>2023-01-04T11:09:44.077Z</time>
      </trkpt>
      <trkpt lat="43.45291" lon="1.59361">
        <ele>205.826935</ele>
        <time>2023-01-04T11:09:46.066Z</time>
      </trkpt>
      <trkpt lat="43.45281" lon="1.59364">
        <ele>205.740315</ele>
        <time>2023-01-04T11:09:48.071Z</time>
      </trkpt>
      <trkpt lat="43.45272" lon="1.59369">
        <ele>205.657898</ele>
        <time>2023-01-04T11:09:50.055Z</time>
      </trkpt>
      <trkpt lat="43.45261" lon="1.59376">
        <ele>205.555966</ele>
        <time>2023-01-04T11:09:53.073Z</time>
      </trkpt>
      <trkpt lat="43.45249" lon="1.59384">
        <ele>205.442563</ele>
        <time>2023-01-04T11:09:56.069Z</time>
      </trkpt>
      <trkpt lat="43.45237" lon="1.59393">
        <ele>205.331745</ele>
        <time>2023-01-04T11:09:59.060Z</time>
      </trkpt>
      <trkpt lat="43.45228" lon="1.594">
        <ele>205.247086</ele>
        <time>2023-01-04T11:10:01.072Z</time>
      </trkpt>
      <trkpt lat="43.45218" lon="1.59411">
        <ele>205.134036</ele>
        <time>2023-01-04T11:10:04.058Z</time>
      </trkpt>
      <trkpt lat="43.45209" lon="1.59419">
        <ele>205.046041</ele>
        <time>2023-01-04T11:10:06.072Z</time>
      </trkpt>
      <trkpt lat="43.45201" lon="1.59428">
        <ele>204.961612</ele>
        <time>2023-01-04T11:10:08.070Z</time>
      </trkpt>
      <trkpt lat="43.45193" lon="1.59437">
        <ele>204.871853</ele>
        <time>2023-01-04T11:10:10.070Z</time>
      </trkpt>
      <trkpt lat="43.45185" lon="1.59445">
        <ele>204.792342</ele>
        <time>2023-01-04T11:10:12.053Z</time>
      </trkpt>
      <trkpt lat="43.45177" lon="1.59456">
        <ele>204.695065</ele>
        <time>2023-01-04T11:10:14.054Z</time>
      </trkpt>
      <trkpt lat="43.45169" lon="1.59467">
        <ele>204.596624</ele>
        <time>2023-01-04T11:10:16.054Z</time>
      </trkpt>
      <trkpt lat="43.4516" lon="1.59478">
        <ele>204.592873</ele>
        <time>2023-01-04T11:10:18.074Z</time>
      </trkpt>
      <trkpt lat="43.45153" lon="1.59487">
        <ele>204.698745</ele>
        <time>2023-01-04T11:10:20.080Z</time>
      </trkpt>
      <trkpt lat="43.45145" lon="1.59496">
        <ele>204.811438</ele>
        <time>2023-01-04T11:10:22.072Z</time>
      </trkpt>
      <trkpt lat="43.45138" lon="1.59506">
        <ele>204.920008</ele>
        <time>2023-01-04T11:10:24.078Z</time>
      </trkpt>
      <trkpt lat="43.45132" lon="1.59517">
        <ele>205.033527</ele>
        <time>2023-01-04T11:10:26.074Z</time>
      </trkpt>
      <trkpt lat="43.45126" lon="1.59526">
        <ele>205.133409</ele>
        <time>2023-01-04T11:10:28.072Z</time>
      </trkpt>
      <trkpt lat="43.45121" lon="1.59537">
        <ele>205.234663</ele>
        <time>2023-01-04T11:10:30.075Z</time>
      </trkpt>
      <trkpt lat="43.45117" lon="1.59549">
        <ele>205.343694</ele>
        <time>2023-01-04T11:10:32.070Z</time>
      </trkpt>
      <trkpt lat="43.45112" lon="1.59561">
        <ele>205.45322</ele>
        <time>2023-01-04T11:10:34.074Z</time>
      </trkpt>
      <trkpt lat="43.45108" lon="1.59575">
        <ele>205.572843</ele>
        <time>2023-01-04T11:10:36.061Z</time>
      </trkpt>
      <trkpt lat="43.45104" lon="1.59587">
        <ele>205.675719</ele>
        <time>2023-01-04T11:10:38.073Z</time>
      </trkpt>
      <trkpt lat="43.451" lon="1.596">
        <ele>205.787696</ele>
        <time>2023-01-04T11:10:40.072Z</time>
      </trkpt>
      <trkpt lat="43.45096" lon="1.59613">
        <ele>205.906421</ele>
        <time>2023-01-04T11:10:42.068Z</time>
      </trkpt>
      <trkpt lat="43.45091" lon="1.59626">
        <ele>206.019306</ele>
        <time>2023-01-04T11:10:44.071Z</time>
      </trkpt>
      <trkpt lat="43.45086" lon="1.59641">
        <ele>206.147786</ele>
        <time>2023-01-04T11:10:47.072Z</time>
      </trkpt>
      <trkpt lat="43.45083" lon="1.59652">
        <ele>206.247206</ele>
        <time>2023-01-04T11:10:49.070Z</time>
      </trkpt>
      <trkpt lat="43.45078" lon="1.59664">
        <ele>206.357947</ele>
        <time>2023-01-04T11:10:51.072Z</time>
      </trkpt>
      <trkpt lat="43.45073" lon="1.5968">
        <ele>206.496343</ele>
        <time>2023-01-04T11:10:53.076Z</time>
      </trkpt>
      <trkpt lat="43.45069" lon="1.59692">
        <ele>206.551129</ele>
        <time>2023-01-04T11:10:55.071Z</time>
      </trkpt>
      <trkpt lat="43.45062" lon="1.59708">
        <ele>206.601208</ele>
        <time>2023-01-04T11:10:58.073Z</time>
      </trkpt>
      <trkpt lat="43.45057" lon="1.59719">
        <ele>206.637671</ele>
        <time>2023-01-04T11:11:00.052Z</time>
      </trkpt>
      <trkpt lat="43.45051" lon="1.59734">
        <ele>206.68566</ele>
        <time>2023-01-04T11:11:03.073Z</time>
      </trkpt>
      <trkpt lat="43.45045" lon="1.59745">
        <ele>206.723447</ele>
        <time>2023-01-04T11:11:05.074Z</time>
      </trkpt>
      <trkpt lat="43.45037" lon="1.59758">
        <ele>206.770196</ele>
        <time>2023-01-04T11:11:08.070Z</time>
      </trkpt>
      <trkpt lat="43.45029" lon="1.5977">
        <ele>206.815266</ele>
        <time>2023-01-04T11:11:11.069Z</time>
      </trkpt>
      <trkpt lat="43.45023" lon="1.59779">
        <ele>206.849682</ele>
        <time>2023-01-04T11:11:13.073Z</time>
      </trkpt>
      <trkpt lat="43.45017" lon="1.59788">
        <ele>206.884364</ele>
        <time>2023-01-04T11:11:15.045Z</time>
      </trkpt>
      <trkpt lat="43.45007" lon="1.59801">
        <ele>206.935059</ele>
        <time>2023-01-04T11:11:18.071Z</time>
      </trkpt>
      <trkpt lat="43.45001" lon="1.59811">
        <ele>206.971531</ele>
        <time>2023-01-04T11:11:20.073Z</time>
      </trkpt>
      <trkpt lat="43.44994" lon="1.59821">
        <ele>207.00945</ele>
        <time>2023-01-04T11:11:22.059Z</time>
      </trkpt>
      <trkpt lat="43.44986" lon="1.59831">
        <ele>207.049024</ele>
        <time>2023-01-04T11:11:25.047Z</time>
      </trkpt>
      <trkpt lat="43.44979" lon="1.5984">
        <ele>207.086699</ele>
        <time>2023-01-04T11:11:28.072Z</time>
      </trkpt>
      <trkpt lat="43.4497" lon="1.59851">
        <ele>207.133513</ele>
        <time>2023-01-04T11:11:31.050Z</time>
      </trkpt>
      <trkpt lat="43.44961" lon="1.59858">
        <ele>207.172783</ele>
        <time>2023-01-04T11:11:34.074Z</time>
      </trkpt>
      <trkpt lat="43.44952" lon="1.59865">
        <ele>207.206387</ele>
        <time>2023-01-04T11:11:37.071Z</time>
      </trkpt>
      <trkpt lat="43.44941" lon="1.5987">
        <ele>207.187904</ele>
        <time>2023-01-04T11:11:41.073Z</time>
      </trkpt>
      <trkpt lat="43.4493" lon="1.59875">
        <ele>207.16863</ele>
        <time>2023-01-04T11:11:44.078Z</time>
      </trkpt>
      <trkpt lat="43.44917" lon="1.5988">
        <ele>207.14686</ele>
        <time>2023-01-04T11:11:47.068Z</time>
      </trkpt>
      <trkpt lat="43.44908" lon="1.59883">
        <ele>207.131538</ele>
        <time>2023-01-04T11:11:49.073Z</time>
      </trkpt>
      <trkpt lat="43.44899" lon="1.59886">
        <ele>207.116821</ele>
        <time>2023-01-04T11:11:51.077Z</time>
      </trkpt>
      <trkpt lat="43.44889" lon="1.5989">
        <ele>207.100685</ele>
        <time>2023-01-04T11:11:53.071Z</time>
      </trkpt>
      <trkpt lat="43.44878" lon="1.59894">
        <ele>207.08246</ele>
        <time>2023-01-04T11:11:55.073Z</time>
      </trkpt>
      <trkpt lat="43.44868" lon="1.599">
        <ele>207.064829</ele>
        <time>2023-01-04T11:11:57.073Z</time>
      </trkpt>
      <trkpt lat="43.44859" lon="1.59903">
        <ele>207.049795</ele>
        <time>2023-01-04T11:11:59.073Z</time>
      </trkpt>
      <trkpt lat="43.4485" lon="1.59905">
        <ele>207.033975</ele>
        <time>2023-01-04T11:12:01.051Z</time>
      </trkpt>
      <trkpt lat="43.4484" lon="1.59907">
        <ele>207.017905</ele>
        <time>2023-01-04T11:12:03.065Z</time>
      </trkpt>
      <trkpt lat="43.44829" lon="1.5991">
        <ele>207.000569</ele>
        <time>2023-01-04T11:12:05.073Z</time>
      </trkpt>
      <trkpt lat="43.44819" lon="1.59913">
        <ele>206.984251</ele>
        <time>2023-01-04T11:12:07.065Z</time>
      </trkpt>
      <trkpt lat="43.44809" lon="1.59916">
        <ele>206.968067</ele>
        <time>2023-01-04T11:12:09.073Z</time>
      </trkpt>
      <trkpt lat="43.448" lon="1.59919">
        <ele>206.953009</ele>
        <time>2023-01-04T11:12:11.060Z</time>
      </trkpt>
      <trkpt lat="43.44788" lon="1.59922">
        <ele>206.932332</ele>
        <time>2023-01-04T11:12:14.077Z</time>
      </trkpt>
      <trkpt lat="43.44775" lon="1.59923">
        <ele>206.908111</ele>
        <time>2023-01-04T11:12:17.074Z</time>
      </trkpt>
      <trkpt lat="43.44763" lon="1.59923">
        <ele>206.873842</ele>
        <time>2023-01-04T11:12:20.074Z</time>
      </trkpt>
      <trkpt lat="43.44753" lon="1.59926">
        <ele>206.841921</ele>
        <time>2023-01-04T11:12:22.071Z</time>
      </trkpt>
      <trkpt lat="43.44742" lon="1.59928">
        <ele>206.812637</ele>
        <time>2023-01-04T11:12:24.074Z</time>
      </trkpt>
      <trkpt lat="43.44731" lon="1.59932">
        <ele>206.777792</ele>
        <time>2023-01-04T11:12:27.072Z</time>
      </trkpt>
      <trkpt lat="43.44722" lon="1.59932">
        <ele>206.751618</ele>
        <time>2023-01-04T11:12:30.067Z</time>
      </trkpt>
      <trkpt lat="43.44712" lon="1.59934">
        <ele>206.724899</ele>
        <time>2023-01-04T11:12:34.080Z</time>
      </trkpt>
      <trkpt lat="43.44702" lon="1.59934">
        <ele>206.693843</ele>
        <time>2023-01-04T11:12:39.065Z</time>
      </trkpt>
      <trkpt lat="43.44692" lon="1.59936">
        <ele>206.666525</ele>
        <time>2023-01-04T11:12:44.049Z</time>
      </trkpt>
      <trkpt lat="43.44682" lon="1.5994">
        <ele>206.636128</ele>
        <time>2023-01-04T11:13:13.074Z</time>
      </trkpt>
      <trkpt lat="43.44672" lon="1.59942">
        <ele>206.607609</ele>
        <time>2023-01-04T11:13:17.079Z</time>
      </trkpt>
      <trkpt lat="43.44662" lon="1.59947">
        <ele>206.577906</ele>
        <time>2023-01-04T11:13:22.074Z</time>
      </trkpt>
      <trkpt lat="43.44653" lon="1.59948">
        <ele>206.551005</ele>
        <time>2023-01-04T11:13:31.050Z</time>
      </trkpt>
      <trkpt lat="43.44651" lon="1.59952">
        <ele>206.541707</ele>
        <time>2023-01-04T11:13:47.463Z</time>
      </trkpt>
      <trkpt lat="43.44639" lon="1.59952">
        <ele>206.507484</ele>
        <time>2023-01-04T11:28:42.076Z</time>
      </trkpt>
      <trkpt lat="43.44629" lon="1.59958">
        <ele>206.474899</ele>
        <time>2023-01-04T11:28:47.081Z</time>
      </trkpt>
      <trkpt lat="43.44619" lon="1.59963">
        <ele>206.442953</ele>
        <time>2023-01-04T11:28:51.086Z</time>
      </trkpt>
      <trkpt lat="43.44609" lon="1.59969">
        <ele>206.412286</ele>
        <time>2023-01-04T11:28:55.081Z</time>
      </trkpt>
      <trkpt lat="43.44598" lon="1.59977">
        <ele>206.395151</ele>
        <time>2023-01-04T11:28:59.080Z</time>
      </trkpt>
      <trkpt lat="43.4459" lon="1.59986">
        <ele>206.388423</ele>
        <time>2023-01-04T11:29:02.074Z</time>
      </trkpt>
      <trkpt lat="43.44581" lon="1.59995">
        <ele>206.381089</ele>
        <time>2023-01-04T11:29:05.086Z</time>
      </trkpt>
      <trkpt lat="43.44573" lon="1.60006">
        <ele>206.373614</ele>
        <time>2023-01-04T11:29:08.066Z</time>
      </trkpt>
      <trkpt lat="43.44565" lon="1.60017">
        <ele>206.365968</ele>
        <time>2023-01-04T11:29:11.062Z</time>
      </trkpt>
      <trkpt lat="43.44557" lon="1.60029">
        <ele>206.3582</ele>
        <time>2023-01-04T11:29:14.073Z</time>
      </trkpt>
      <trkpt lat="43.4455" lon="1.60041">
        <ele>206.350795</ele>
        <time>2023-01-04T11:29:17.079Z</time>
      </trkpt>
      <trkpt lat="43.44542" lon="1.60055">
        <ele>206.34248</ele>
        <time>2023-01-04T11:29:20.079Z</time>
      </trkpt>
      <trkpt lat="43.44537" lon="1.60065">
        <ele>206.33638</ele>
        <time>2023-01-04T11:29:22.077Z</time>
      </trkpt>
      <trkpt lat="43.44531" lon="1.60079">
        <ele>206.328538</ele>
        <time>2023-01-04T11:29:25.089Z</time>
      </trkpt>
      <trkpt lat="43.44527" lon="1.60092">
        <ele>206.321785</ele>
        <time>2023-01-04T11:29:28.082Z</time>
      </trkpt>
      <trkpt lat="43.44522" lon="1.60104">
        <ele>206.314785</ele>
        <time>2023-01-04T11:29:31.079Z</time>
      </trkpt>
      <trkpt lat="43.44516" lon="1.60121">
        <ele>206.306238</ele>
        <time>2023-01-04T11:29:34.080Z</time>
      </trkpt>
      <trkpt lat="43.44513" lon="1.60136">
        <ele>206.298334</ele>
        <time>2023-01-04T11:29:37.070Z</time>
      </trkpt>
      <trkpt lat="43.44518" lon="1.60153">
        <ele>206.289699</ele>
        <time>2023-01-04T11:29:40.090Z</time>
      </trkpt>
      <trkpt lat="43.44522" lon="1.60166">
        <ele>206.282742</ele>
        <time>2023-01-04T11:29:43.067Z</time>
      </trkpt>
      <trkpt lat="43.44524" lon="1.60179">
        <ele>206.431086</ele>
        <time>2023-01-04T11:29:46.080Z</time>
      </trkpt>
      <trkpt lat="43.44527" lon="1.60193">
        <ele>206.633313</ele>
        <time>2023-01-04T11:29:49.078Z</time>
      </trkpt>
      <trkpt lat="43.44529" lon="1.60207">
        <ele>206.836908</ele>
        <time>2023-01-04T11:29:52.083Z</time>
      </trkpt>
      <trkpt lat="43.44533" lon="1.60222">
        <ele>207.053321</ele>
        <time>2023-01-04T11:29:55.077Z</time>
      </trkpt>
      <trkpt lat="43.44536" lon="1.60238">
        <ele>207.282304</ele>
        <time>2023-01-04T11:29:58.084Z</time>
      </trkpt>
      <trkpt lat="43.44541" lon="1.60254">
        <ele>207.523451</ele>
        <time>2023-01-04T11:30:01.057Z</time>
      </trkpt>
      <trkpt lat="43.44545" lon="1.6027">
        <ele>207.759768</ele>
        <time>2023-01-04T11:30:04.081Z</time>
      </trkpt>
      <trkpt lat="43.4455" lon="1.60285">
        <ele>207.989124</ele>
        <time>2023-01-04T11:30:07.064Z</time>
      </trkpt>
      <trkpt lat="43.44553" lon="1.603">
        <ele>208.209546</ele>
        <time>2023-01-04T11:30:10.080Z</time>
      </trkpt>
      <trkpt lat="43.44556" lon="1.60315">
        <ele>208.430782</ele>
        <time>2023-01-04T11:30:13.076Z</time>
      </trkpt>
      <trkpt lat="43.4456" lon="1.60331">
        <ele>208.664312</ele>
        <time>2023-01-04T11:30:16.075Z</time>
      </trkpt>
      <trkpt lat="43.44563" lon="1.60348">
        <ele>208.910719</ele>
        <time>2023-01-04T11:30:19.089Z</time>
      </trkpt>
      <trkpt lat="43.44566" lon="1.60365">
        <ele>209.149009</ele>
        <time>2023-01-04T11:30:22.092Z</time>
      </trkpt>
      <trkpt lat="43.44569" lon="1.60381">
        <ele>209.380943</ele>
        <time>2023-01-04T11:30:25.075Z</time>
      </trkpt>
      <trkpt lat="43.44571" lon="1.60398">
        <ele>209.624089</ele>
        <time>2023-01-04T11:30:28.081Z</time>
      </trkpt>
      <trkpt lat="43.44572" lon="1.60412">
        <ele>209.778484</ele>
        <time>2023-01-04T11:30:30.092Z</time>
      </trkpt>
      <trkpt lat="43.44572" lon="1.60426">
        <ele>209.88787</ele>
        <time>2023-01-04T11:30:32.079Z</time>
      </trkpt>
      <trkpt lat="43.44571" lon="1.60445">
        <ele>210.034184</ele>
        <time>2023-01-04T11:30:35.088Z</time>
      </trkpt>
      <trkpt lat="43.44569" lon="1.60457">
        <ele>210.132362</ele>
        <time>2023-01-04T11:30:37.083Z</time>
      </trkpt>
      <trkpt lat="43.44566" lon="1.60473">
        <ele>210.259091</ele>
        <time>2023-01-04T11:30:40.082Z</time>
      </trkpt>
      <trkpt lat="43.44563" lon="1.60486">
        <ele>210.364655</ele>
        <time>2023-01-04T11:30:42.082Z</time>
      </trkpt>
      <trkpt lat="43.44558" lon="1.60498">
        <ele>210.477668</ele>
        <time>2023-01-04T11:30:44.078Z</time>
      </trkpt>
      <trkpt lat="43.44552" lon="1.6051">
        <ele>210.595827</ele>
        <time>2023-01-04T11:30:46.078Z</time>
      </trkpt>
      <trkpt lat="43.44545" lon="1.60524">
        <ele>210.723671</ele>
        <time>2023-01-04T11:30:49.090Z</time>
      </trkpt>
      <trkpt lat="43.44538" lon="1.60537">
        <ele>210.85129</ele>
        <time>2023-01-04T11:30:52.080Z</time>
      </trkpt>
      <trkpt lat="43.44529" lon="1.60549">
        <ele>210.982588</ele>
        <time>2023-01-04T11:30:55.082Z</time>
      </trkpt>
      <trkpt lat="43.4452" lon="1.60561">
        <ele>211.113544</ele>
        <time>2023-01-04T11:30:58.079Z</time>
      </trkpt>
      <trkpt lat="43.44512" lon="1.60572">
        <ele>211.241454</ele>
        <time>2023-01-04T11:31:01.080Z</time>
      </trkpt>
      <trkpt lat="43.44506" lon="1.60581">
        <ele>211.341495</ele>
        <time>2023-01-04T11:31:03.080Z</time>
      </trkpt>
      <trkpt lat="43.44498" lon="1.60589">
        <ele>211.438501</ele>
        <time>2023-01-04T11:31:05.055Z</time>
      </trkpt>
      <trkpt lat="43.44492" lon="1.60598">
        <ele>211.538542</ele>
        <time>2023-01-04T11:31:07.066Z</time>
      </trkpt>
      <trkpt lat="43.44483" lon="1.60611">
        <ele>211.663475</ele>
        <time>2023-01-04T11:31:10.077Z</time>
      </trkpt>
      <trkpt lat="43.44476" lon="1.6062">
        <ele>211.641522</ele>
        <time>2023-01-04T11:31:12.078Z</time>
      </trkpt>
      <trkpt lat="43.44467" lon="1.60631">
        <ele>211.613545</ele>
        <time>2023-01-04T11:31:15.078Z</time>
      </trkpt>
      <trkpt lat="43.44456" lon="1.60643">
        <ele>211.58275</ele>
        <time>2023-01-04T11:31:18.077Z</time>
      </trkpt>
      <trkpt lat="43.4445" lon="1.60653">
        <ele>211.559777</ele>
        <time>2023-01-04T11:31:20.080Z</time>
      </trkpt>
      <trkpt lat="43.44439" lon="1.60666">
        <ele>211.527095</ele>
        <time>2023-01-04T11:31:23.078Z</time>
      </trkpt>
      <trkpt lat="43.44429" lon="1.60679">
        <ele>211.495696</ele>
        <time>2023-01-04T11:31:26.070Z</time>
      </trkpt>
      <trkpt lat="43.44422" lon="1.6069">
        <ele>211.470683</ele>
        <time>2023-01-04T11:31:28.087Z</time>
      </trkpt>
      <trkpt lat="43.44414" lon="1.60699">
        <ele>211.448678</ele>
        <time>2023-01-04T11:31:30.087Z</time>
      </trkpt>
      <trkpt lat="43.44407" lon="1.60707">
        <ele>211.426923</ele>
        <time>2023-01-04T11:31:32.078Z</time>
      </trkpt>
      <trkpt lat="43.44397" lon="1.60718">
        <ele>211.397371</ele>
        <time>2023-01-04T11:31:35.079Z</time>
      </trkpt>
      <trkpt lat="43.44387" lon="1.60722">
        <ele>211.374679</ele>
        <time>2023-01-04T11:31:38.057Z</time>
      </trkpt>
      <trkpt lat="43.44375" lon="1.60733">
        <ele>211.340904</ele>
        <time>2023-01-04T11:31:41.077Z</time>
      </trkpt>
      <trkpt lat="43.44366" lon="1.6074">
        <ele>211.316828</ele>
        <time>2023-01-04T11:31:43.082Z</time>
      </trkpt>
      <trkpt lat="43.44357" lon="1.60748">
        <ele>211.293185</ele>
        <time>2023-01-04T11:31:45.063Z</time>
      </trkpt>
      <trkpt lat="43.44348" lon="1.60754">
        <ele>211.271074</ele>
        <time>2023-01-04T11:31:47.086Z</time>
      </trkpt>
      <trkpt lat="43.44339" lon="1.6076">
        <ele>211.256571</ele>
        <time>2023-01-04T11:31:49.081Z</time>
      </trkpt>
      <trkpt lat="43.44329" lon="1.60767">
        <ele>211.265015</ele>
        <time>2023-01-04T11:31:51.077Z</time>
      </trkpt>
      <trkpt lat="43.4432" lon="1.60773">
        <ele>211.27199</ele>
        <time>2023-01-04T11:31:53.077Z</time>
      </trkpt>
      <trkpt lat="43.44311" lon="1.60779">
        <ele>211.279343</ele>
        <time>2023-01-04T11:31:55.080Z</time>
      </trkpt>
      <trkpt lat="43.44302" lon="1.60785">
        <ele>211.286834</ele>
        <time>2023-01-04T11:31:57.074Z</time>
      </trkpt>
      <trkpt lat="43.44294" lon="1.60791">
        <ele>211.293918</ele>
        <time>2023-01-04T11:31:59.075Z</time>
      </trkpt>
      <trkpt lat="43.44285" lon="1.60798">
        <ele>211.301324</ele>
        <time>2023-01-04T11:32:01.079Z</time>
      </trkpt>
      <trkpt lat="43.44277" lon="1.60806">
        <ele>211.308952</ele>
        <time>2023-01-04T11:32:03.080Z</time>
      </trkpt>
      <trkpt lat="43.44269" lon="1.60814">
        <ele>211.316414</ele>
        <time>2023-01-04T11:32:05.079Z</time>
      </trkpt>
      <trkpt lat="43.44263" lon="1.60823">
        <ele>211.323297</ele>
        <time>2023-01-04T11:32:07.086Z</time>
      </trkpt>
      <trkpt lat="43.44255" lon="1.60832">
        <ele>211.330705</ele>
        <time>2023-01-04T11:32:09.080Z</time>
      </trkpt>
      <trkpt lat="43.44247" lon="1.60841">
        <ele>211.338351</ele>
        <time>2023-01-04T11:32:11.086Z</time>
      </trkpt>
      <trkpt lat="43.44241" lon="1.60852">
        <ele>211.346267</ele>
        <time>2023-01-04T11:32:13.067Z</time>
      </trkpt>
      <trkpt lat="43.44232" lon="1.60867">
        <ele>211.356588</ele>
        <time>2023-01-04T11:32:16.079Z</time>
      </trkpt>
      <trkpt lat="43.44225" lon="1.60876">
        <ele>211.363448</ele>
        <time>2023-01-04T11:32:18.077Z</time>
      </trkpt>
      <trkpt lat="43.44218" lon="1.60884">
        <ele>211.370415</ele>
        <time>2023-01-04T11:32:20.082Z</time>
      </trkpt>
      <trkpt lat="43.44211" lon="1.60897">
        <ele>211.379016</ele>
        <time>2023-01-04T11:32:22.082Z</time>
      </trkpt>
      <trkpt lat="43.44203" lon="1.60909">
        <ele>211.388184</ele>
        <time>2023-01-04T11:32:24.077Z</time>
      </trkpt>
      <trkpt lat="43.44195" lon="1.60921">
        <ele>211.500995</ele>
        <time>2023-01-04T11:32:26.080Z</time>
      </trkpt>
      <trkpt lat="43.44189" lon="1.60932">
        <ele>211.592699</ele>
        <time>2023-01-04T11:32:28.080Z</time>
      </trkpt>
      <trkpt lat="43.44183" lon="1.60942">
        <ele>211.685856</ele>
        <time>2023-01-04T11:32:30.081Z</time>
      </trkpt>
      <trkpt lat="43.44176" lon="1.60955">
        <ele>211.801531</ele>
        <time>2023-01-04T11:32:32.084Z</time>
      </trkpt>
      <trkpt lat="43.44171" lon="1.60968">
        <ele>211.904108</ele>
        <time>2023-01-04T11:32:34.089Z</time>
      </trkpt>
      <trkpt lat="43.44165" lon="1.6098">
        <ele>212.010046</ele>
        <time>2023-01-04T11:32:36.081Z</time>
      </trkpt>
      <trkpt lat="43.44161" lon="1.60994">
        <ele>212.116056</ele>
        <time>2023-01-04T11:32:38.081Z</time>
      </trkpt>
      <trkpt lat="43.44155" lon="1.61007">
        <ele>212.226955</ele>
        <time>2023-01-04T11:32:40.079Z</time>
      </trkpt>
      <trkpt lat="43.4415" lon="1.61021">
        <ele>212.33376</ele>
        <time>2023-01-04T11:32:43.085Z</time>
      </trkpt>
      <trkpt lat="43.44145" lon="1.61033">
        <ele>212.43293</ele>
        <time>2023-01-04T11:32:45.080Z</time>
      </trkpt>
      <trkpt lat="43.44142" lon="1.61045">
        <ele>212.523427</ele>
        <time>2023-01-04T11:32:47.085Z</time>
      </trkpt>
      <trkpt lat="43.44137" lon="1.61059">
        <ele>212.629836</ele>
        <time>2023-01-04T11:32:49.089Z</time>
      </trkpt>
      <trkpt lat="43.44133" lon="1.61074">
        <ele>212.747023</ele>
        <time>2023-01-04T11:32:52.066Z</time>
      </trkpt>
      <trkpt lat="43.44128" lon="1.61086">
        <ele>212.839385</ele>
        <time>2023-01-04T11:32:54.068Z</time>
      </trkpt>
      <trkpt lat="43.44123" lon="1.61099">
        <ele>212.945372</ele>
        <time>2023-01-04T11:32:56.077Z</time>
      </trkpt>
      <trkpt lat="43.44118" lon="1.61112">
        <ele>213.052382</ele>
        <time>2023-01-04T11:32:59.076Z</time>
      </trkpt>
      <trkpt lat="43.44113" lon="1.61123">
        <ele>213.141574</ele>
        <time>2023-01-04T11:33:01.079Z</time>
      </trkpt>
      <trkpt lat="43.44107" lon="1.61139">
        <ele>213.145007</ele>
        <time>2023-01-04T11:33:04.080Z</time>
      </trkpt>
      <trkpt lat="43.44102" lon="1.61149">
        <ele>213.147549</ele>
        <time>2023-01-04T11:33:06.088Z</time>
      </trkpt>
      <trkpt lat="43.44097" lon="1.6116">
        <ele>213.150165</ele>
        <time>2023-01-04T11:33:08.069Z</time>
      </trkpt>
      <trkpt lat="43.44089" lon="1.61174">
        <ele>213.153667</ele>
        <time>2023-01-04T11:33:11.077Z</time>
      </trkpt>
      <trkpt lat="43.4408" lon="1.61188">
        <ele>213.157411</ele>
        <time>2023-01-04T11:33:14.082Z</time>
      </trkpt>
      <trkpt lat="43.44071" lon="1.61199">
        <ele>213.160696</ele>
        <time>2023-01-04T11:33:17.079Z</time>
      </trkpt>
      <trkpt lat="43.4406" lon="1.6121">
        <ele>213.164351</ele>
        <time>2023-01-04T11:33:20.081Z</time>
      </trkpt>
      <trkpt lat="43.44049" lon="1.6122">
        <ele>213.167905</ele>
        <time>2023-01-04T11:33:23.082Z</time>
      </trkpt>
      <trkpt lat="43.44041" lon="1.61227">
        <ele>213.170651</ele>
        <time>2023-01-04T11:33:25.063Z</time>
      </trkpt>
      <trkpt lat="43.4403" lon="1.61235">
        <ele>213.173885</ele>
        <time>2023-01-04T11:33:28.077Z</time>
      </trkpt>
      <trkpt lat="43.44021" lon="1.61242">
        <ele>213.176822</ele>
        <time>2023-01-04T11:33:30.063Z</time>
      </trkpt>
      <trkpt lat="43.44012" lon="1.61245">
        <ele>213.179334</ele>
        <time>2023-01-04T11:33:32.078Z</time>
      </trkpt>
      <trkpt lat="43.44" lon="1.61248">
        <ele>213.18247</ele>
        <time>2023-01-04T11:33:35.076Z</time>
      </trkpt>
      <trkpt lat="43.43989" lon="1.61251">
        <ele>213.185593</ele>
        <time>2023-01-04T11:33:38.066Z</time>
      </trkpt>
      <trkpt lat="43.43978" lon="1.61252">
        <ele>213.188723</ele>
        <time>2023-01-04T11:33:42.088Z</time>
      </trkpt>
      <trkpt lat="43.43967" lon="1.61256">
        <ele>213.219564</ele>
        <time>2023-01-04T11:33:46.069Z</time>
      </trkpt>
      <trkpt lat="43.43957" lon="1.61259">
        <ele>213.302226</ele>
        <time>2023-01-04T11:33:51.071Z</time>
      </trkpt>
      <trkpt lat="43.43948" lon="1.61262">
        <ele>213.374645</ele>
        <time>2023-01-04T11:33:55.083Z</time>
      </trkpt>
      <trkpt lat="43.43937" lon="1.61269">
        <ele>213.46536</ele>
        <time>2023-01-04T11:33:59.080Z</time>
      </trkpt>
      <trkpt lat="43.43927" lon="1.61276">
        <ele>213.551683</ele>
        <time>2023-01-04T11:34:02.087Z</time>
      </trkpt>
      <trkpt lat="43.43916" lon="1.61286">
        <ele>213.64548</ele>
        <time>2023-01-04T11:34:05.076Z</time>
      </trkpt>
      <trkpt lat="43.43908" lon="1.61296">
        <ele>213.73274</ele>
        <time>2023-01-04T11:34:08.081Z</time>
      </trkpt>
      <trkpt lat="43.43899" lon="1.61302">
        <ele>213.804666</ele>
        <time>2023-01-04T11:34:11.082Z</time>
      </trkpt>
      <trkpt lat="43.43889" lon="1.61306">
        <ele>213.888841</ele>
        <time>2023-01-04T11:34:14.068Z</time>
      </trkpt>
      <trkpt lat="43.43878" lon="1.61313">
        <ele>213.981615</ele>
        <time>2023-01-04T11:34:17.082Z</time>
      </trkpt>
      <trkpt lat="43.43867" lon="1.61322">
        <ele>214.078518</ele>
        <time>2023-01-04T11:34:20.088Z</time>
      </trkpt>
      <trkpt lat="43.43857" lon="1.61332">
        <ele>214.172632</ele>
        <time>2023-01-04T11:34:23.084Z</time>
      </trkpt>
      <trkpt lat="43.4385" lon="1.6134">
        <ele>214.242023</ele>
        <time>2023-01-04T11:34:25.080Z</time>
      </trkpt>
      <trkpt lat="43.43841" lon="1.61353">
        <ele>214.337288</ele>
        <time>2023-01-04T11:34:28.085Z</time>
      </trkpt>
      <trkpt lat="43.43834" lon="1.61363">
        <ele>214.414917</ele>
        <time>2023-01-04T11:34:31.078Z</time>
      </trkpt>
      <trkpt lat="43.43827" lon="1.61371">
        <ele>214.488455</ele>
        <time>2023-01-04T11:34:34.087Z</time>
      </trkpt>
      <trkpt lat="43.43819" lon="1.61382">
        <ele>214.56369</ele>
        <time>2023-01-04T11:34:38.072Z</time>
      </trkpt>
      <trkpt lat="43.43812" lon="1.6139">
        <ele>214.5894</ele>
        <time>2023-01-04T11:34:41.078Z</time>
      </trkpt>
      <trkpt lat="43.43804" lon="1.614">
        <ele>214.617587</ele>
        <time>2023-01-04T11:34:44.082Z</time>
      </trkpt>
      <trkpt lat="43.43797" lon="1.61409">
        <ele>214.643813</ele>
        <time>2023-01-04T11:34:47.075Z</time>
      </trkpt>
      <trkpt lat="43.4379" lon="1.61419">
        <ele>214.669469</ele>
        <time>2023-01-04T11:34:50.067Z</time>
      </trkpt>
      <trkpt lat="43.43782" lon="1.61428">
        <ele>214.696292</ele>
        <time>2023-01-04T11:34:53.080Z</time>
      </trkpt>
      <trkpt lat="43.43773" lon="1.6144">
        <ele>214.728384</ele>
        <time>2023-01-04T11:34:56.063Z</time>
      </trkpt>
      <trkpt lat="43.43765" lon="1.61451">
        <ele>214.758815</ele>
        <time>2023-01-04T11:34:59.080Z</time>
      </trkpt>
      <trkpt lat="43.43759" lon="1.6146">
        <ele>214.784071</ele>
        <time>2023-01-04T11:35:01.079Z</time>
      </trkpt>
      <trkpt lat="43.43752" lon="1.61469">
        <ele>214.808437</ele>
        <time>2023-01-04T11:35:03.081Z</time>
      </trkpt>
      <trkpt lat="43.43743" lon="1.61483">
        <ele>214.842975</ele>
        <time>2023-01-04T11:35:06.071Z</time>
      </trkpt>
      <trkpt lat="43.43734" lon="1.61496">
        <ele>214.878556</ele>
        <time>2023-01-04T11:35:09.062Z</time>
      </trkpt>
      <trkpt lat="43.43727" lon="1.61506">
        <ele>214.90637</ele>
        <time>2023-01-04T11:35:11.076Z</time>
      </trkpt>
      <trkpt lat="43.43717" lon="1.61519">
        <ele>214.940941</ele>
        <time>2023-01-04T11:35:14.087Z</time>
      </trkpt>
      <trkpt lat="43.4371" lon="1.61528">
        <ele>214.966987</ele>
        <time>2023-01-04T11:35:16.080Z</time>
      </trkpt>
      <trkpt lat="43.437" lon="1.6154">
        <ele>215.002701</ele>
        <time>2023-01-04T11:35:19.066Z</time>
      </trkpt>
      <trkpt lat="43.4369" lon="1.61552">
        <ele>215.041873</ele>
        <time>2023-01-04T11:35:22.082Z</time>
      </trkpt>
      <trkpt lat="43.43681" lon="1.61562">
        <ele>215.312103</ele>
        <time>2023-01-04T11:35:24.078Z</time>
      </trkpt>
      <trkpt lat="43.43672" lon="1.6157">
        <ele>215.553343</ele>
        <time>2023-01-04T11:35:26.079Z</time>
      </trkpt>
      <trkpt lat="43.4366" lon="1.61584">
        <ele>215.90404</ele>
        <time>2023-01-04T11:35:29.071Z</time>
      </trkpt>
      <trkpt lat="43.43651" lon="1.61595">
        <ele>216.184529</ele>
        <time>2023-01-04T11:35:32.079Z</time>
      </trkpt>
      <trkpt lat="43.43642" lon="1.61603">
        <ele>216.423877</ele>
        <time>2023-01-04T11:35:34.080Z</time>
      </trkpt>
      <trkpt lat="43.43633" lon="1.61612">
        <ele>216.684808</ele>
        <time>2023-01-04T11:35:36.093Z</time>
      </trkpt>
      <trkpt lat="43.43625" lon="1.6162">
        <ele>216.913093</ele>
        <time>2023-01-04T11:35:38.067Z</time>
      </trkpt>
      <trkpt lat="43.43617" lon="1.61628">
        <ele>217.13648</ele>
        <time>2023-01-04T11:35:40.089Z</time>
      </trkpt>
      <trkpt lat="43.43608" lon="1.61636">
        <ele>217.367458</ele>
        <time>2023-01-04T11:35:42.081Z</time>
      </trkpt>
      <trkpt lat="43.43598" lon="1.61647">
        <ele>217.661233</ele>
        <time>2023-01-04T11:35:45.081Z</time>
      </trkpt>
      <trkpt lat="43.4359" lon="1.61655">
        <ele>217.889725</ele>
        <time>2023-01-04T11:35:47.066Z</time>
      </trkpt>
      <trkpt lat="43.43581" lon="1.61662">
        <ele>218.132885</ele>
        <time>2023-01-04T11:35:49.078Z</time>
      </trkpt>
      <trkpt lat="43.43573" lon="1.6167">
        <ele>218.358217</ele>
        <time>2023-01-04T11:35:51.067Z</time>
      </trkpt>
      <trkpt lat="43.43565" lon="1.61682">
        <ele>218.61468</ele>
        <time>2023-01-04T11:35:53.080Z</time>
      </trkpt>
      <trkpt lat="43.43555" lon="1.61695">
        <ele>218.935003</ele>
        <time>2023-01-04T11:35:56.084Z</time>
      </trkpt>
      <trkpt lat="43.43549" lon="1.61706">
        <ele>219.113893</ele>
        <time>2023-01-04T11:35:58.079Z</time>
      </trkpt>
      <trkpt lat="43.43541" lon="1.61716">
        <ele>218.903433</ele>
        <time>2023-01-04T11:36:00.056Z</time>
      </trkpt>
      <trkpt lat="43.43534" lon="1.61726">
        <ele>218.698996</ele>
        <time>2023-01-04T11:36:02.059Z</time>
      </trkpt>
      <trkpt lat="43.43524" lon="1.6174">
        <ele>218.436432</ele>
        <time>2023-01-04T11:36:05.078Z</time>
      </trkpt>
      <trkpt lat="43.43515" lon="1.61755">
        <ele>218.149497</ele>
        <time>2023-01-04T11:36:08.083Z</time>
      </trkpt>
      <trkpt lat="43.43505" lon="1.61768">
        <ele>217.882165</ele>
        <time>2023-01-04T11:36:11.079Z</time>
      </trkpt>
      <trkpt lat="43.43499" lon="1.61778">
        <ele>217.68939</ele>
        <time>2023-01-04T11:36:13.066Z</time>
      </trkpt>
      <trkpt lat="43.43493" lon="1.61789">
        <ele>217.49694</ele>
        <time>2023-01-04T11:36:15.082Z</time>
      </trkpt>
      <trkpt lat="43.43485" lon="1.61801">
        <ele>217.269747</ele>
        <time>2023-01-04T11:36:17.079Z</time>
      </trkpt>
      <trkpt lat="43.43478" lon="1.61811">
        <ele>217.076191</ele>
        <time>2023-01-04T11:36:19.080Z</time>
      </trkpt>
      <trkpt lat="43.43471" lon="1.61823">
        <ele>216.851072</ele>
        <time>2023-01-04T11:36:21.062Z</time>
      </trkpt>
      <trkpt lat="43.43464" lon="1.61835">
        <ele>216.640488</ele>
        <time>2023-01-04T11:36:23.061Z</time>
      </trkpt>
      <trkpt lat="43.43458" lon="1.61847">
        <ele>216.425222</ele>
        <time>2023-01-04T11:36:25.089Z</time>
      </trkpt>
      <trkpt lat="43.43449" lon="1.61859">
        <ele>216.172268</ele>
        <time>2023-01-04T11:36:27.078Z</time>
      </trkpt>
      <trkpt lat="43.43441" lon="1.61871">
        <ele>215.948179</ele>
        <time>2023-01-04T11:36:29.082Z</time>
      </trkpt>
      <trkpt lat="43.43433" lon="1.61881">
        <ele>215.739078</ele>
        <time>2023-01-04T11:36:31.087Z</time>
      </trkpt>
      <trkpt lat="43.43426" lon="1.61891">
        <ele>215.597406</ele>
        <time>2023-01-04T11:36:33.078Z</time>
      </trkpt>
      <trkpt lat="43.43418" lon="1.61901">
        <ele>215.55233</ele>
        <time>2023-01-04T11:36:35.062Z</time>
      </trkpt>
      <trkpt lat="43.43411" lon="1.61911">
        <ele>215.509061</ele>
        <time>2023-01-04T11:36:37.079Z</time>
      </trkpt>
      <trkpt lat="43.43403" lon="1.61919">
        <ele>215.470161</ele>
        <time>2023-01-04T11:36:39.079Z</time>
      </trkpt>
      <trkpt lat="43.43397" lon="1.61927">
        <ele>215.43159</ele>
        <time>2023-01-04T11:36:41.085Z</time>
      </trkpt>
      <trkpt lat="43.43389" lon="1.61933">
        <ele>215.393459</ele>
        <time>2023-01-04T11:36:43.078Z</time>
      </trkpt>
      <trkpt lat="43.43379" lon="1.61947">
        <ele>215.335317</ele>
        <time>2023-01-04T11:36:46.081Z</time>
      </trkpt>
      <trkpt lat="43.43367" lon="1.6196">
        <ele>215.271696</ele>
        <time>2023-01-04T11:36:49.083Z</time>
      </trkpt>
      <trkpt lat="43.43359" lon="1.61969">
        <ele>215.225667</ele>
        <time>2023-01-04T11:36:51.068Z</time>
      </trkpt>
      <trkpt lat="43.43348" lon="1.61981">
        <ele>215.167858</ele>
        <time>2023-01-04T11:36:54.082Z</time>
      </trkpt>
      <trkpt lat="43.4334" lon="1.61988">
        <ele>215.128993</ele>
        <time>2023-01-04T11:36:56.080Z</time>
      </trkpt>
      <trkpt lat="43.43329" lon="1.61999">
        <ele>215.070885</ele>
        <time>2023-01-04T11:36:59.079Z</time>
      </trkpt>
      <trkpt lat="43.4332" lon="1.62007">
        <ele>215.027887</ele>
        <time>2023-01-04T11:37:01.068Z</time>
      </trkpt>
      <trkpt lat="43.43309" lon="1.62018">
        <ele>214.96893</ele>
        <time>2023-01-04T11:37:04.089Z</time>
      </trkpt>
      <trkpt lat="43.43301" lon="1.62027">
        <ele>214.923553</ele>
        <time>2023-01-04T11:37:06.082Z</time>
      </trkpt>
      <trkpt lat="43.43291" lon="1.62037">
        <ele>214.873731</ele>
        <time>2023-01-04T11:37:08.083Z</time>
      </trkpt>
      <trkpt lat="43.43282" lon="1.62048">
        <ele>214.834254</ele>
        <time>2023-01-04T11:37:10.065Z</time>
      </trkpt>
      <trkpt lat="43.43272" lon="1.62058">
        <ele>214.801149</ele>
        <time>2023-01-04T11:37:12.063Z</time>
      </trkpt>
      <trkpt lat="43.43262" lon="1.62068">
        <ele>214.769105</ele>
        <time>2023-01-04T11:37:14.078Z</time>
      </trkpt>
      <trkpt lat="43.43253" lon="1.62075">
        <ele>214.741234</ele>
        <time>2023-01-04T11:37:16.093Z</time>
      </trkpt>
      <trkpt lat="43.43244" lon="1.62081">
        <ele>214.714163</ele>
        <time>2023-01-04T11:37:18.077Z</time>
      </trkpt>
      <trkpt lat="43.43235" lon="1.62086">
        <ele>214.686939</ele>
        <time>2023-01-04T11:37:20.079Z</time>
      </trkpt>
      <trkpt lat="43.43226" lon="1.6209">
        <ele>214.662708</ele>
        <time>2023-01-04T11:37:22.084Z</time>
      </trkpt>
      <trkpt lat="43.43216" lon="1.62094">
        <ele>214.633994</ele>
        <time>2023-01-04T11:37:24.084Z</time>
      </trkpt>
      <trkpt lat="43.43206" lon="1.62096">
        <ele>214.608237</ele>
        <time>2023-01-04T11:37:26.080Z</time>
      </trkpt>
      <trkpt lat="43.43196" lon="1.62097">
        <ele>214.580426</ele>
        <time>2023-01-04T11:37:28.057Z</time>
      </trkpt>
      <trkpt lat="43.43187" lon="1.62099">
        <ele>214.554769</ele>
        <time>2023-01-04T11:37:30.080Z</time>
      </trkpt>
      <trkpt lat="43.43177" lon="1.62097">
        <ele>214.529688</ele>
        <time>2023-01-04T11:37:32.072Z</time>
      </trkpt>
      <trkpt lat="43.43168" lon="1.62097">
        <ele>214.503603</ele>
        <time>2023-01-04T11:37:34.077Z</time>
      </trkpt>
      <trkpt lat="43.43158" lon="1.62095">
        <ele>214.478722</ele>
        <time>2023-01-04T11:37:36.080Z</time>
      </trkpt>
      <trkpt lat="43.43149" lon="1.62093">
        <ele>214.453467</ele>
        <time>2023-01-04T11:37:38.084Z</time>
      </trkpt>
      <trkpt lat="43.4314" lon="1.62091">
        <ele>214.428506</ele>
        <time>2023-01-04T11:37:40.089Z</time>
      </trkpt>
      <trkpt lat="43.43129" lon="1.62089">
        <ele>214.399001</ele>
        <time>2023-01-04T11:37:42.083Z</time>
      </trkpt>
      <trkpt lat="43.43119" lon="1.62087">
        <ele>214.372871</ele>
        <time>2023-01-04T11:37:44.076Z</time>
      </trkpt>
      <trkpt lat="43.43109" lon="1.62086">
        <ele>214.349165</ele>
        <time>2023-01-04T11:37:46.079Z</time>
      </trkpt>
      <trkpt lat="43.431" lon="1.62086">
        <ele>214.326962</ele>
        <time>2023-01-04T11:37:48.079Z</time>
      </trkpt>
      <trkpt lat="43.43089" lon="1.62085">
        <ele>214.301475</ele>
        <time>2023-01-04T11:37:50.091Z</time>
      </trkpt>
      <trkpt lat="43.43079" lon="1.62085">
        <ele>214.279222</ele>
        <time>2023-01-04T11:37:52.085Z</time>
      </trkpt>
      <trkpt lat="43.43066" lon="1.62085">
        <ele>214.248841</ele>
        <time>2023-01-04T11:37:55.079Z</time>
      </trkpt>
      <trkpt lat="43.43054" lon="1.62085">
        <ele>214.221252</ele>
        <time>2023-01-04T11:37:58.067Z</time>
      </trkpt>
      <trkpt lat="43.43042" lon="1.62088">
        <ele>214.191063</ele>
        <time>2023-01-04T11:38:01.079Z</time>
      </trkpt>
      <trkpt lat="43.43029" lon="1.6209">
        <ele>214.162078</ele>
        <time>2023-01-04T11:38:04.079Z</time>
      </trkpt>
      <trkpt lat="43.43016" lon="1.62093">
        <ele>214.131155</ele>
        <time>2023-01-04T11:38:07.081Z</time>
      </trkpt>
      <trkpt lat="43.43004" lon="1.62099">
        <ele>214.101481</ele>
        <time>2023-01-04T11:38:10.090Z</time>
      </trkpt>
      <trkpt lat="43.42993" lon="1.62107">
        <ele>214.071597</ele>
        <time>2023-01-04T11:38:13.078Z</time>
      </trkpt>
      <trkpt lat="43.42984" lon="1.62116">
        <ele>214.045504</ele>
        <time>2023-01-04T11:38:16.087Z</time>
      </trkpt>
      <trkpt lat="43.42977" lon="1.62124">
        <ele>214.023739</ele>
        <time>2023-01-04T11:38:18.079Z</time>
      </trkpt>
      <trkpt lat="43.42968" lon="1.62136">
        <ele>213.994697</ele>
        <time>2023-01-04T11:38:21.086Z</time>
      </trkpt>
      <trkpt lat="43.42961" lon="1.62145">
        <ele>213.972199</ele>
        <time>2023-01-04T11:38:23.064Z</time>
      </trkpt>
      <trkpt lat="43.42954" lon="1.62155">
        <ele>213.988106</ele>
        <time>2023-01-04T11:38:25.078Z</time>
      </trkpt>
      <trkpt lat="43.42948" lon="1.62166">
        <ele>214.165191</ele>
        <time>2023-01-04T11:38:27.084Z</time>
      </trkpt>
      <trkpt lat="43.42941" lon="1.62176">
        <ele>214.357776</ele>
        <time>2023-01-04T11:38:29.063Z</time>
      </trkpt>
      <trkpt lat="43.42934" lon="1.62185">
        <ele>214.531725</ele>
        <time>2023-01-04T11:38:31.078Z</time>
      </trkpt>
      <trkpt lat="43.42926" lon="1.62194">
        <ele>214.722438</ele>
        <time>2023-01-04T11:38:33.081Z</time>
      </trkpt>
      <trkpt lat="43.4292" lon="1.62204">
        <ele>214.889215</ele>
        <time>2023-01-04T11:38:35.086Z</time>
      </trkpt>
      <trkpt lat="43.42914" lon="1.62215">
        <ele>215.083997</ele>
        <time>2023-01-04T11:38:38.083Z</time>
      </trkpt>
      <trkpt lat="43.42905" lon="1.62229">
        <ele>215.330521</ele>
        <time>2023-01-04T11:38:41.079Z</time>
      </trkpt>
      <trkpt lat="43.42895" lon="1.62241">
        <ele>215.576585</ele>
        <time>2023-01-04T11:38:44.064Z</time>
      </trkpt>
      <trkpt lat="43.42887" lon="1.62253">
        <ele>215.795421</ele>
        <time>2023-01-04T11:38:46.087Z</time>
      </trkpt>
      <trkpt lat="43.42881" lon="1.62263">
        <ele>215.965468</ele>
        <time>2023-01-04T11:38:48.083Z</time>
      </trkpt>
      <trkpt lat="43.42874" lon="1.62272">
        <ele>216.143628</ele>
        <time>2023-01-04T11:38:50.079Z</time>
      </trkpt>
      <trkpt lat="43.42868" lon="1.62282">
        <ele>216.31508</ele>
        <time>2023-01-04T11:38:52.078Z</time>
      </trkpt>
      <trkpt lat="43.42862" lon="1.62291">
        <ele>216.486094</ele>
        <time>2023-01-04T11:38:54.076Z</time>
      </trkpt>
      <trkpt lat="43.42854" lon="1.62302">
        <ele>216.699027</ele>
        <time>2023-01-04T11:38:57.086Z</time>
      </trkpt>
      <trkpt lat="43.42845" lon="1.62315">
        <ele>216.930864</ele>
        <time>2023-01-04T11:39:00.082Z</time>
      </trkpt>
      <trkpt lat="43.42839" lon="1.62325">
        <ele>217.111362</ele>
        <time>2023-01-04T11:39:02.079Z</time>
      </trkpt>
      <trkpt lat="43.42831" lon="1.62336">
        <ele>217.258878</ele>
        <time>2023-01-04T11:39:04.087Z</time>
      </trkpt>
      <trkpt lat="43.42825" lon="1.62346">
        <ele>217.150498</ele>
        <time>2023-01-04T11:39:06.083Z</time>
      </trkpt>
      <trkpt lat="43.42819" lon="1.62357">
        <ele>217.032756</ele>
        <time>2023-01-04T11:39:08.079Z</time>
      </trkpt>
      <trkpt lat="43.42811" lon="1.62368">
        <ele>216.901341</ele>
        <time>2023-01-04T11:39:10.088Z</time>
      </trkpt>
      <trkpt lat="43.42801" lon="1.62381">
        <ele>216.753316</ele>
        <time>2023-01-04T11:39:12.083Z</time>
      </trkpt>
      <trkpt lat="43.42793" lon="1.62393">
        <ele>216.621668</ele>
        <time>2023-01-04T11:39:14.078Z</time>
      </trkpt>
      <trkpt lat="43.42786" lon="1.62407">
        <ele>216.478778</ele>
        <time>2023-01-04T11:39:16.090Z</time>
      </trkpt>
      <trkpt lat="43.42779" lon="1.62419">
        <ele>216.348453</ele>
        <time>2023-01-04T11:39:18.081Z</time>
      </trkpt>
      <trkpt lat="43.42772" lon="1.62429">
        <ele>216.240061</ele>
        <time>2023-01-04T11:39:20.075Z</time>
      </trkpt>
      <trkpt lat="43.42767" lon="1.62441">
        <ele>216.124296</ele>
        <time>2023-01-04T11:39:22.078Z</time>
      </trkpt>
      <trkpt lat="43.4276" lon="1.62453">
        <ele>215.998595</ele>
        <time>2023-01-04T11:39:24.079Z</time>
      </trkpt>
      <trkpt lat="43.42754" lon="1.62463">
        <ele>215.885584</ele>
        <time>2023-01-04T11:39:26.081Z</time>
      </trkpt>
      <trkpt lat="43.42749" lon="1.62476">
        <ele>215.770537</ele>
        <time>2023-01-04T11:39:29.087Z</time>
      </trkpt>
      <trkpt lat="43.42743" lon="1.62488">
        <ele>215.650709</ele>
        <time>2023-01-04T11:39:32.080Z</time>
      </trkpt>
      <trkpt lat="43.42737" lon="1.62503">
        <ele>215.510264</ele>
        <time>2023-01-04T11:39:36.079Z</time>
      </trkpt>
      <trkpt lat="43.42731" lon="1.62514">
        <ele>215.39451</ele>
        <time>2023-01-04T11:39:38.086Z</time>
      </trkpt>
      <trkpt lat="43.42724" lon="1.62527">
        <ele>215.258903</ele>
        <time>2023-01-04T11:39:40.070Z</time>
      </trkpt>
      <trkpt lat="43.4272" lon="1.62539">
        <ele>215.258462</ele>
        <time>2023-01-04T11:39:42.081Z</time>
      </trkpt>
      <trkpt lat="43.42713" lon="1.62554">
        <ele>215.28117</ele>
        <time>2023-01-04T11:39:45.081Z</time>
      </trkpt>
      <trkpt lat="43.42704" lon="1.62574">
        <ele>215.312013</ele>
        <time>2023-01-04T11:39:48.091Z</time>
      </trkpt>
      <trkpt lat="43.42698" lon="1.62589">
        <ele>215.334658</ele>
        <time>2023-01-04T11:39:51.085Z</time>
      </trkpt>
      <trkpt lat="43.42694" lon="1.62604">
        <ele>215.356308</ele>
        <time>2023-01-04T11:39:54.081Z</time>
      </trkpt>
      <trkpt lat="43.42691" lon="1.62616">
        <ele>215.372694</ele>
        <time>2023-01-04T11:39:57.077Z</time>
      </trkpt>
      <trkpt lat="43.42687" lon="1.62633">
        <ele>215.395887</ele>
        <time>2023-01-04T11:40:00.081Z</time>
      </trkpt>
      <trkpt lat="43.42681" lon="1.62649">
        <ele>215.419143</ele>
        <time>2023-01-04T11:40:02.077Z</time>
      </trkpt>
      <trkpt lat="43.42679" lon="1.62662">
        <ele>215.436921</ele>
        <time>2023-01-04T11:40:04.083Z</time>
      </trkpt>
      <trkpt lat="43.42675" lon="1.62679">
        <ele>215.461286</ele>
        <time>2023-01-04T11:40:07.079Z</time>
      </trkpt>
      <trkpt lat="43.42673" lon="1.62692">
        <ele>215.478379</ele>
        <time>2023-01-04T11:40:09.077Z</time>
      </trkpt>
      <trkpt lat="43.42669" lon="1.62705">
        <ele>215.496006</ele>
        <time>2023-01-04T11:40:12.077Z</time>
      </trkpt>
      <trkpt lat="43.42665" lon="1.62719">
        <ele>215.515983</ele>
        <time>2023-01-04T11:40:15.087Z</time>
      </trkpt>
      <trkpt lat="43.42661" lon="1.6273">
        <ele>215.532443</ele>
        <time>2023-01-04T11:40:18.091Z</time>
      </trkpt>
      <trkpt lat="43.42657" lon="1.62742">
        <ele>215.549895</ele>
        <time>2023-01-04T11:40:21.077Z</time>
      </trkpt>
      <trkpt lat="43.42653" lon="1.62755">
        <ele>215.569321</ele>
        <time>2023-01-04T11:40:24.078Z</time>
      </trkpt>
      <trkpt lat="43.42649" lon="1.62769">
        <ele>215.660379</ele>
        <time>2023-01-04T11:40:27.080Z</time>
      </trkpt>
      <trkpt lat="43.42645" lon="1.62782">
        <ele>215.748515</ele>
        <time>2023-01-04T11:40:30.081Z</time>
      </trkpt>
      <trkpt lat="43.42639" lon="1.62796">
        <ele>215.852262</ele>
        <time>2023-01-04T11:40:33.062Z</time>
      </trkpt>
      <trkpt lat="43.42634" lon="1.62812">
        <ele>215.959399</ele>
        <time>2023-01-04T11:40:36.081Z</time>
      </trkpt>
      <trkpt lat="43.4263" lon="1.62826">
        <ele>216.050836</ele>
        <time>2023-01-04T11:40:39.059Z</time>
      </trkpt>
      <trkpt lat="43.42624" lon="1.62841">
        <ele>216.159537</ele>
        <time>2023-01-04T11:40:42.081Z</time>
      </trkpt>
      <trkpt lat="43.42621" lon="1.62855">
        <ele>216.253689</ele>
        <time>2023-01-04T11:40:44.081Z</time>
      </trkpt>
      <trkpt lat="43.42618" lon="1.62873">
        <ele>216.364687</ele>
        <time>2023-01-04T11:40:46.078Z</time>
      </trkpt>
      <trkpt lat="43.42614" lon="1.62888">
        <ele>216.46997</ele>
        <time>2023-01-04T11:40:48.092Z</time>
      </trkpt>
      <trkpt lat="43.42613" lon="1.62901">
        <ele>216.552567</ele>
        <time>2023-01-04T11:40:51.085Z</time>
      </trkpt>
      <trkpt lat="43.42613" lon="1.62918">
        <ele>216.654849</ele>
        <time>2023-01-04T11:40:54.080Z</time>
      </trkpt>
      <trkpt lat="43.4261" lon="1.62932">
        <ele>216.747563</ele>
        <time>2023-01-04T11:40:56.090Z</time>
      </trkpt>
      <trkpt lat="43.42609" lon="1.62946">
        <ele>216.834433</ele>
        <time>2023-01-04T11:40:58.087Z</time>
      </trkpt>
      <trkpt lat="43.42609" lon="1.62961">
        <ele>216.930455</ele>
        <time>2023-01-04T11:41:00.078Z</time>
      </trkpt>
      <trkpt lat="43.42613" lon="1.62975">
        <ele>217.021302</ele>
        <time>2023-01-04T11:41:02.089Z</time>
      </trkpt>
      <trkpt lat="43.42615" lon="1.62988">
        <ele>217.107509</ele>
        <time>2023-01-04T11:41:04.077Z</time>
      </trkpt>
      <trkpt lat="43.42618" lon="1.63002">
        <ele>216.980572</ele>
        <time>2023-01-04T11:41:06.080Z</time>
      </trkpt>
      <trkpt lat="43.4262" lon="1.63019">
        <ele>216.783608</ele>
        <time>2023-01-04T11:41:09.081Z</time>
      </trkpt>
      <trkpt lat="43.42627" lon="1.63033">
        <ele>216.586268</ele>
        <time>2023-01-04T11:41:11.087Z</time>
      </trkpt>
      <trkpt lat="43.42632" lon="1.63046">
        <ele>216.418783</ele>
        <time>2023-01-04T11:41:13.087Z</time>
      </trkpt>
      <trkpt lat="43.42639" lon="1.63061">
        <ele>216.210107</ele>
        <time>2023-01-04T11:41:15.077Z</time>
      </trkpt>
      <trkpt lat="43.42645" lon="1.63075">
        <ele>216.021427</ele>
        <time>2023-01-04T11:41:18.078Z</time>
      </trkpt>
      <trkpt lat="43.42651" lon="1.63087">
        <ele>215.859113</ele>
        <time>2023-01-04T11:41:20.083Z</time>
      </trkpt>
      <trkpt lat="43.42657" lon="1.63098">
        <ele>215.694082</ele>
        <time>2023-01-04T11:41:22.082Z</time>
      </trkpt>
      <trkpt lat="43.42664" lon="1.63108">
        <ele>215.532987</ele>
        <time>2023-01-04T11:41:24.087Z</time>
      </trkpt>
      <trkpt lat="43.42669" lon="1.63118">
        <ele>215.387066</ele>
        <time>2023-01-04T11:41:26.076Z</time>
      </trkpt>
      <trkpt lat="43.42677" lon="1.63133">
        <ele>215.178392</ele>
        <time>2023-01-04T11:41:28.081Z</time>
      </trkpt>
      <trkpt lat="43.42683" lon="1.63147">
        <ele>214.993325</ele>
        <time>2023-01-04T11:41:30.078Z</time>
      </trkpt>
      <trkpt lat="43.42691" lon="1.63162">
        <ele>214.783839</ele>
        <time>2023-01-04T11:41:33.077Z</time>
      </trkpt>
      <trkpt lat="43.42696" lon="1.63173">
        <ele>214.631283</ele>
        <time>2023-01-04T11:41:35.080Z</time>
      </trkpt>
      <trkpt lat="43.42701" lon="1.63183">
        <ele>214.483534</ele>
        <time>2023-01-04T11:41:37.087Z</time>
      </trkpt>
      <trkpt lat="43.42705" lon="1.63195">
        <ele>214.338811</ele>
        <time>2023-01-04T11:41:39.061Z</time>
      </trkpt>
      <trkpt lat="43.42708" lon="1.63207">
        <ele>214.27443</ele>
        <time>2023-01-04T11:41:41.086Z</time>
      </trkpt>
      <trkpt lat="43.42713" lon="1.63221">
        <ele>214.303606</ele>
        <time>2023-01-04T11:41:43.085Z</time>
      </trkpt>
      <trkpt lat="43.42716" lon="1.63234">
        <ele>214.33078</ele>
        <time>2023-01-04T11:41:45.088Z</time>
      </trkpt>
      <trkpt lat="43.42719" lon="1.63249">
        <ele>214.360209</ele>
        <time>2023-01-04T11:41:47.069Z</time>
      </trkpt>
      <trkpt lat="43.4272" lon="1.63264">
        <ele>214.390262</ele>
        <time>2023-01-04T11:41:49.079Z</time>
      </trkpt>
      <trkpt lat="43.42719" lon="1.63276">
        <ele>214.414501</ele>
        <time>2023-01-04T11:41:51.076Z</time>
      </trkpt>
      <trkpt lat="43.42719" lon="1.63289">
        <ele>214.439927</ele>
        <time>2023-01-04T11:41:53.086Z</time>
      </trkpt>
      <trkpt lat="43.42716" lon="1.63308">
        <ele>214.477137</ele>
        <time>2023-01-04T11:41:56.078Z</time>
      </trkpt>
      <trkpt lat="43.42712" lon="1.63321">
        <ele>214.504622</ele>
        <time>2023-01-04T11:41:58.081Z</time>
      </trkpt>
      <trkpt lat="43.42709" lon="1.63333">
        <ele>214.529255</ele>
        <time>2023-01-04T11:42:00.077Z</time>
      </trkpt>
      <trkpt lat="43.42704" lon="1.63345">
        <ele>214.555312</ele>
        <time>2023-01-04T11:42:02.079Z</time>
      </trkpt>
      <trkpt lat="43.42697" lon="1.6336">
        <ele>214.591191</ele>
        <time>2023-01-04T11:42:05.079Z</time>
      </trkpt>
      <trkpt lat="43.42691" lon="1.63371">
        <ele>214.61808</ele>
        <time>2023-01-04T11:42:07.086Z</time>
      </trkpt>
      <trkpt lat="43.42683" lon="1.63382">
        <ele>214.649401</ele>
        <time>2023-01-04T11:42:09.078Z</time>
      </trkpt>
      <trkpt lat="43.42675" lon="1.63393">
        <ele>214.678012</ele>
        <time>2023-01-04T11:42:11.089Z</time>
      </trkpt>
      <trkpt lat="43.42667" lon="1.63402">
        <ele>214.706362</ele>
        <time>2023-01-04T11:42:13.091Z</time>
      </trkpt>
      <trkpt lat="43.42657" lon="1.6341">
        <ele>214.736704</ele>
        <time>2023-01-04T11:42:15.087Z</time>
      </trkpt>
      <trkpt lat="43.42647" lon="1.63415">
        <ele>214.82232</ele>
        <time>2023-01-04T11:42:17.081Z</time>
      </trkpt>
      <trkpt lat="43.42637" lon="1.63418">
        <ele>214.932912</ele>
        <time>2023-01-04T11:42:19.084Z</time>
      </trkpt>
      <trkpt lat="43.42625" lon="1.63419">
        <ele>215.050151</ele>
        <time>2023-01-04T11:42:21.089Z</time>
      </trkpt>
      <trkpt lat="43.42614" lon="1.63417">
        <ele>215.158006</ele>
        <time>2023-01-04T11:42:23.069Z</time>
      </trkpt>
      <trkpt lat="43.42604" lon="1.63416">
        <ele>215.260483</ele>
        <time>2023-01-04T11:42:25.087Z</time>
      </trkpt>
      <trkpt lat="43.42591" lon="1.63412">
        <ele>215.393342</ele>
        <time>2023-01-04T11:42:28.088Z</time>
      </trkpt>
      <trkpt lat="43.42581" lon="1.63409">
        <ele>215.493116</ele>
        <time>2023-01-04T11:42:30.093Z</time>
      </trkpt>
      <trkpt lat="43.42569" lon="1.63407">
        <ele>215.615039</ele>
        <time>2023-01-04T11:42:32.092Z</time>
      </trkpt>
      <trkpt lat="43.42558" lon="1.63409">
        <ele>215.728141</ele>
        <time>2023-01-04T11:42:34.091Z</time>
      </trkpt>
      <trkpt lat="43.42546" lon="1.63414">
        <ele>215.853254</ele>
        <time>2023-01-04T11:42:37.077Z</time>
      </trkpt>
      <trkpt lat="43.42536" lon="1.6342">
        <ele>215.956238</ele>
        <time>2023-01-04T11:42:40.080Z</time>
      </trkpt>
      <trkpt lat="43.42529" lon="1.63428">
        <ele>216.050025</ele>
        <time>2023-01-04T11:42:43.087Z</time>
      </trkpt>
      <trkpt lat="43.42523" lon="1.63439">
        <ele>216.149756</ele>
        <time>2023-01-04T11:42:46.079Z</time>
      </trkpt>
      <trkpt lat="43.42515" lon="1.6345">
        <ele>216.263116</ele>
        <time>2023-01-04T11:42:49.065Z</time>
      </trkpt>
      <trkpt lat="43.42506" lon="1.63464">
        <ele>216.399851</ele>
        <time>2023-01-04T11:42:52.089Z</time>
      </trkpt>
      <trkpt lat="43.425" lon="1.63474">
        <ele>216.490714</ele>
        <time>2023-01-04T11:42:54.089Z</time>
      </trkpt>
      <trkpt lat="43.42494" lon="1.63486">
        <ele>216.494164</ele>
        <time>2023-01-04T11:42:56.087Z</time>
      </trkpt>
      <trkpt lat="43.42487" lon="1.63494">
        <ele>216.414052</ele>
        <time>2023-01-04T11:42:58.077Z</time>
      </trkpt>
      <trkpt lat="43.42481" lon="1.63505">
        <ele>216.328394</ele>
        <time>2023-01-04T11:43:00.081Z</time>
      </trkpt>
      <trkpt lat="43.42475" lon="1.63517">
        <ele>216.235068</ele>
        <time>2023-01-04T11:43:02.090Z</time>
      </trkpt>
      <trkpt lat="43.42468" lon="1.63528">
        <ele>216.143079</ele>
        <time>2023-01-04T11:43:04.087Z</time>
      </trkpt>
      <trkpt lat="43.42461" lon="1.6354">
        <ele>216.047002</ele>
        <time>2023-01-04T11:43:06.089Z</time>
      </trkpt>
      <trkpt lat="43.42454" lon="1.63549">
        <ele>215.960913</ele>
        <time>2023-01-04T11:43:08.081Z</time>
      </trkpt>
      <trkpt lat="43.42447" lon="1.6356">
        <ele>215.876674</ele>
        <time>2023-01-04T11:43:10.089Z</time>
      </trkpt>
      <trkpt lat="43.4244" lon="1.63572">
        <ele>215.770824</ele>
        <time>2023-01-04T11:43:12.087Z</time>
      </trkpt>
      <trkpt lat="43.42433" lon="1.63582">
        <ele>215.687305</ele>
        <time>2023-01-04T11:43:14.092Z</time>
      </trkpt>
      <trkpt lat="43.42427" lon="1.63593">
        <ele>215.602518</ele>
        <time>2023-01-04T11:43:16.088Z</time>
      </trkpt>
      <trkpt lat="43.42421" lon="1.63603">
        <ele>215.516693</ele>
        <time>2023-01-04T11:43:18.083Z</time>
      </trkpt>
      <trkpt lat="43.42413" lon="1.63614">
        <ele>215.420694</ele>
        <time>2023-01-04T11:43:20.089Z</time>
      </trkpt>
      <trkpt lat="43.42406" lon="1.63625">
        <ele>215.329553</ele>
        <time>2023-01-04T11:43:22.083Z</time>
      </trkpt>
      <trkpt lat="43.42398" lon="1.6364">
        <ele>215.210242</ele>
        <time>2023-01-04T11:43:25.070Z</time>
      </trkpt>
      <trkpt lat="43.4239" lon="1.6365">
        <ele>215.11969</ele>
        <time>2023-01-04T11:43:27.071Z</time>
      </trkpt>
      <trkpt lat="43.42383" lon="1.63659">
        <ele>215.033398</ele>
        <time>2023-01-04T11:43:29.081Z</time>
      </trkpt>
      <trkpt lat="43.42376" lon="1.63668">
        <ele>214.958512</ele>
        <time>2023-01-04T11:43:31.090Z</time>
      </trkpt>
      <trkpt lat="43.42367" lon="1.63681">
        <ele>214.877899</ele>
        <time>2023-01-04T11:43:33.061Z</time>
      </trkpt>
      <trkpt lat="43.42359" lon="1.63691">
        <ele>214.805017</ele>
        <time>2023-01-04T11:43:35.063Z</time>
      </trkpt>
      <trkpt lat="43.4235" lon="1.63699">
        <ele>214.731721</ele>
        <time>2023-01-04T11:43:37.074Z</time>
      </trkpt>
      <trkpt lat="43.4234" lon="1.63706">
        <ele>214.66272</ele>
        <time>2023-01-04T11:43:39.082Z</time>
      </trkpt>
      <trkpt lat="43.42332" lon="1.63715">
        <ele>214.592627</ele>
        <time>2023-01-04T11:43:41.059Z</time>
      </trkpt>
      <trkpt lat="43.42324" lon="1.63721">
        <ele>214.533995</ele>
        <time>2023-01-04T11:43:43.059Z</time>
      </trkpt>
      <trkpt lat="43.42314" lon="1.63729">
        <ele>214.461153</ele>
        <time>2023-01-04T11:43:45.062Z</time>
      </trkpt>
      <trkpt lat="43.42305" lon="1.63738">
        <ele>214.387857</ele>
        <time>2023-01-04T11:43:47.058Z</time>
      </trkpt>
      <trkpt lat="43.42295" lon="1.63748">
        <ele>214.309193</ele>
        <time>2023-01-04T11:43:49.074Z</time>
      </trkpt>
      <trkpt lat="43.42283" lon="1.63758">
        <ele>214.214851</ele>
        <time>2023-01-04T11:43:52.067Z</time>
      </trkpt>
      <trkpt lat="43.42274" lon="1.63767">
        <ele>214.145563</ele>
        <time>2023-01-04T11:43:54.067Z</time>
      </trkpt>
      <trkpt lat="43.42263" lon="1.63777">
        <ele>214.057953</ele>
        <time>2023-01-04T11:43:57.072Z</time>
      </trkpt>
      <trkpt lat="43.42252" lon="1.63786">
        <ele>213.974361</ele>
        <time>2023-01-04T11:44:00.075Z</time>
      </trkpt>
      <trkpt lat="43.4224" lon="1.63796">
        <ele>213.883833</ele>
        <time>2023-01-04T11:44:03.075Z</time>
      </trkpt>
      <trkpt lat="43.42233" lon="1.63804">
        <ele>213.82071</ele>
        <time>2023-01-04T11:44:05.079Z</time>
      </trkpt>
      <trkpt lat="43.42222" lon="1.63814">
        <ele>213.973106</ele>
        <time>2023-01-04T11:44:08.066Z</time>
      </trkpt>
      <trkpt lat="43.42212" lon="1.63824">
        <ele>214.141266</ele>
        <time>2023-01-04T11:44:10.080Z</time>
      </trkpt>
      <trkpt lat="43.42201" lon="1.63836">
        <ele>214.340029</ele>
        <time>2023-01-04T11:44:13.077Z</time>
      </trkpt>
      <trkpt lat="43.4219" lon="1.63848">
        <ele>214.541873</ele>
        <time>2023-01-04T11:44:16.067Z</time>
      </trkpt>
      <trkpt lat="43.42182" lon="1.63859">
        <ele>214.711095</ele>
        <time>2023-01-04T11:44:18.106Z</time>
      </trkpt>
      <trkpt lat="43.42172" lon="1.63871">
        <ele>214.891884</ele>
        <time>2023-01-04T11:44:20.074Z</time>
      </trkpt>
      <trkpt lat="43.42164" lon="1.63879">
        <ele>215.033579</ele>
        <time>2023-01-04T11:44:22.076Z</time>
      </trkpt>
      <trkpt lat="43.42157" lon="1.63886">
        <ele>215.168067</ele>
        <time>2023-01-04T11:44:24.075Z</time>
      </trkpt>
      <trkpt lat="43.42148" lon="1.63894">
        <ele>215.310255</ele>
        <time>2023-01-04T11:44:27.079Z</time>
      </trkpt>
      <trkpt lat="43.4214" lon="1.63905">
        <ele>215.480484</ele>
        <time>2023-01-04T11:44:31.076Z</time>
      </trkpt>
      <trkpt lat="43.42131" lon="1.63917">
        <ele>215.657335</ele>
        <time>2023-01-04T11:44:34.067Z</time>
      </trkpt>
      <trkpt lat="43.42124" lon="1.63925">
        <ele>215.795149</ele>
        <time>2023-01-04T11:44:36.077Z</time>
      </trkpt>
      <trkpt lat="43.42115" lon="1.63936">
        <ele>215.958703</ele>
        <time>2023-01-04T11:44:38.067Z</time>
      </trkpt>
      <trkpt lat="43.42108" lon="1.63944">
        <ele>216.092529</ele>
        <time>2023-01-04T11:44:40.074Z</time>
      </trkpt>
      <trkpt lat="43.42099" lon="1.63954">
        <ele>216.25672</ele>
        <time>2023-01-04T11:44:43.067Z</time>
      </trkpt>
      <trkpt lat="43.4209" lon="1.63962">
        <ele>216.379397</ele>
        <time>2023-01-04T11:44:46.062Z</time>
      </trkpt>
      <trkpt lat="43.4208" lon="1.63971">
        <ele>216.345642</ele>
        <time>2023-01-04T11:44:48.083Z</time>
      </trkpt>
      <trkpt lat="43.42071" lon="1.63978">
        <ele>216.316823</ele>
        <time>2023-01-04T11:44:50.075Z</time>
      </trkpt>
      <trkpt lat="43.42062" lon="1.63986">
        <ele>216.286778</ele>
        <time>2023-01-04T11:44:52.076Z</time>
      </trkpt>
      <trkpt lat="43.42053" lon="1.63994">
        <ele>216.255546</ele>
        <time>2023-01-04T11:44:54.092Z</time>
      </trkpt>
      <trkpt lat="43.42042" lon="1.64001">
        <ele>216.222348</ele>
        <time>2023-01-04T11:44:56.056Z</time>
      </trkpt>
      <trkpt lat="43.42033" lon="1.64007">
        <ele>216.192159</ele>
        <time>2023-01-04T11:44:58.080Z</time>
      </trkpt>
      <trkpt lat="43.42024" lon="1.64014">
        <ele>216.163341</ele>
        <time>2023-01-04T11:45:00.066Z</time>
      </trkpt>
      <trkpt lat="43.42014" lon="1.6402">
        <ele>216.132649</ele>
        <time>2023-01-04T11:45:02.076Z</time>
      </trkpt>
      <trkpt lat="43.42005" lon="1.64026">
        <ele>216.104629</ele>
        <time>2023-01-04T11:45:04.074Z</time>
      </trkpt>
      <trkpt lat="43.41994" lon="1.64035">
        <ele>216.067335</ele>
        <time>2023-01-04T11:45:07.079Z</time>
      </trkpt>
      <trkpt lat="43.41984" lon="1.6404">
        <ele>216.038771</ele>
        <time>2023-01-04T11:45:09.077Z</time>
      </trkpt>
      <trkpt lat="43.41975" lon="1.64045">
        <ele>216.010812</ele>
        <time>2023-01-04T11:45:11.075Z</time>
      </trkpt>
      <trkpt lat="43.41967" lon="1.64051">
        <ele>215.985033</ele>
        <time>2023-01-04T11:45:13.075Z</time>
      </trkpt>
      <trkpt lat="43.41959" lon="1.64056">
        <ele>215.959252</ele>
        <time>2023-01-04T11:45:15.060Z</time>
      </trkpt>
      <trkpt lat="43.41949" lon="1.64063">
        <ele>215.927421</ele>
        <time>2023-01-04T11:45:18.078Z</time>
      </trkpt>
      <trkpt lat="43.4194" lon="1.64069">
        <ele>215.898904</ele>
        <time>2023-01-04T11:45:21.088Z</time>
      </trkpt>
      <trkpt lat="43.41929" lon="1.64077">
        <ele>215.92203</ele>
        <time>2023-01-04T11:45:24.076Z</time>
      </trkpt>
      <trkpt lat="43.41918" lon="1.64082">
        <ele>216.079536</ele>
        <time>2023-01-04T11:45:26.076Z</time>
      </trkpt>
      <trkpt lat="43.41906" lon="1.64086">
        <ele>216.243306</ele>
        <time>2023-01-04T11:45:28.076Z</time>
      </trkpt>
      <trkpt lat="43.41895" lon="1.64092">
        <ele>216.396209</ele>
        <time>2023-01-04T11:45:30.074Z</time>
      </trkpt>
      <trkpt lat="43.41886" lon="1.64098">
        <ele>216.538151</ele>
        <time>2023-01-04T11:45:32.076Z</time>
      </trkpt>
      <trkpt lat="43.41876" lon="1.64104">
        <ele>216.683342</ele>
        <time>2023-01-04T11:45:35.066Z</time>
      </trkpt>
      <trkpt lat="43.41868" lon="1.64114">
        <ele>216.82426</ele>
        <time>2023-01-04T11:45:40.079Z</time>
      </trkpt>
      <trkpt lat="43.41866" lon="1.64128">
        <ele>216.962054</ele>
        <time>2023-01-04T11:45:46.059Z</time>
      </trkpt>
      <trkpt lat="43.41858" lon="1.64137">
        <ele>217.103224</ele>
        <time>2023-01-04T11:45:49.087Z</time>
      </trkpt>
      <trkpt lat="43.41848" lon="1.64141">
        <ele>217.246008</ele>
        <time>2023-01-04T11:45:52.078Z</time>
      </trkpt>
      <trkpt lat="43.41836" lon="1.64142">
        <ele>217.409515</ele>
        <time>2023-01-04T11:45:56.077Z</time>
      </trkpt>
      <trkpt lat="43.41825" lon="1.64144">
        <ele>217.559114</ele>
        <time>2023-01-04T11:45:59.076Z</time>
      </trkpt>
      <trkpt lat="43.41815" lon="1.64151">
        <ele>217.714066</ele>
        <time>2023-01-04T11:46:03.079Z</time>
      </trkpt>
      <trkpt lat="43.41805" lon="1.64157">
        <ele>217.850659</ele>
        <time>2023-01-04T11:46:06.083Z</time>
      </trkpt>
      <trkpt lat="43.41794" lon="1.6416">
        <ele>218.001774</ele>
        <time>2023-01-04T11:46:10.075Z</time>
      </trkpt>
      <trkpt lat="43.41785" lon="1.64168">
        <ele>218.150814</ele>
        <time>2023-01-04T11:46:25.074Z</time>
      </trkpt>
      <trkpt lat="43.41777" lon="1.64179">
        <ele>218.290462</ele>
        <time>2023-01-04T11:46:29.067Z</time>
      </trkpt>
      <trkpt lat="43.41768" lon="1.64189">
        <ele>218.256509</ele>
        <time>2023-01-04T11:46:32.079Z</time>
      </trkpt>
      <trkpt lat="43.41758" lon="1.64198">
        <ele>218.220157</ele>
        <time>2023-01-04T11:46:35.072Z</time>
      </trkpt>
      <trkpt lat="43.41747" lon="1.64208">
        <ele>218.180164</ele>
        <time>2023-01-04T11:46:38.060Z</time>
      </trkpt>
      <trkpt lat="43.41735" lon="1.64217">
        <ele>218.14012</ele>
        <time>2023-01-04T11:46:41.074Z</time>
      </trkpt>
      <trkpt lat="43.41724" lon="1.64224">
        <ele>218.102982</ele>
        <time>2023-01-04T11:46:44.081Z</time>
      </trkpt>
      <trkpt lat="43.41715" lon="1.64231">
        <ele>218.069885</ele>
        <time>2023-01-04T11:46:47.083Z</time>
      </trkpt>
      <trkpt lat="43.41704" lon="1.64239">
        <ele>218.031905</ele>
        <time>2023-01-04T11:46:50.068Z</time>
      </trkpt>
      <trkpt lat="43.41692" lon="1.64248">
        <ele>217.992482</ele>
        <time>2023-01-04T11:46:53.074Z</time>
      </trkpt>
      <trkpt lat="43.41681" lon="1.64259">
        <ele>217.952278</ele>
        <time>2023-01-04T11:46:56.067Z</time>
      </trkpt>
      <trkpt lat="43.41671" lon="1.64271">
        <ele>217.910342</ele>
        <time>2023-01-04T11:46:59.077Z</time>
      </trkpt>
      <trkpt lat="43.4166" lon="1.64283">
        <ele>217.869768</ele>
        <time>2023-01-04T11:47:02.079Z</time>
      </trkpt>
      <trkpt lat="43.41653" lon="1.6429">
        <ele>217.842094</ele>
        <time>2023-01-04T11:47:04.086Z</time>
      </trkpt>
      <trkpt lat="43.41643" lon="1.64302">
        <ele>217.800535</ele>
        <time>2023-01-04T11:47:07.088Z</time>
      </trkpt>
      <trkpt lat="43.41633" lon="1.64315">
        <ele>217.760671</ele>
        <time>2023-01-04T11:47:10.082Z</time>
      </trkpt>
      <trkpt lat="43.41623" lon="1.64328">
        <ele>217.648125</ele>
        <time>2023-01-04T11:47:13.088Z</time>
      </trkpt>
      <trkpt lat="43.41617" lon="1.64338">
        <ele>217.552909</ele>
        <time>2023-01-04T11:47:15.081Z</time>
      </trkpt>
      <trkpt lat="43.41608" lon="1.64347">
        <ele>217.443171</ele>
        <time>2023-01-04T11:47:17.089Z</time>
      </trkpt>
      <trkpt lat="43.41601" lon="1.64355">
        <ele>217.347366</ele>
        <time>2023-01-04T11:47:19.082Z</time>
      </trkpt>
      <trkpt lat="43.41594" lon="1.64365">
        <ele>217.249727</ele>
        <time>2023-01-04T11:47:22.079Z</time>
      </trkpt>
      <trkpt lat="43.41588" lon="1.64376">
        <ele>217.153879</ele>
        <time>2023-01-04T11:47:25.067Z</time>
      </trkpt>
      <trkpt lat="43.41583" lon="1.64387">
        <ele>217.060888</ele>
        <time>2023-01-04T11:47:28.076Z</time>
      </trkpt>
      <trkpt lat="43.41577" lon="1.64401">
        <ele>216.93893</ele>
        <time>2023-01-04T11:47:32.080Z</time>
      </trkpt>
      <trkpt lat="43.41569" lon="1.64415">
        <ele>216.808991</ele>
        <time>2023-01-04T11:47:35.063Z</time>
      </trkpt>
      <trkpt lat="43.41561" lon="1.6443">
        <ele>216.673145</ele>
        <time>2023-01-04T11:47:38.079Z</time>
      </trkpt>
      <trkpt lat="43.41554" lon="1.64444">
        <ele>216.547923</ele>
        <time>2023-01-04T11:47:41.066Z</time>
      </trkpt>
      <trkpt lat="43.41547" lon="1.64458">
        <ele>216.429159</ele>
        <time>2023-01-04T11:47:43.083Z</time>
      </trkpt>
      <trkpt lat="43.41542" lon="1.64469">
        <ele>216.334245</ele>
        <time>2023-01-04T11:47:45.089Z</time>
      </trkpt>
      <trkpt lat="43.41536" lon="1.64483">
        <ele>216.217485</ele>
        <time>2023-01-04T11:47:47.073Z</time>
      </trkpt>
      <trkpt lat="43.41531" lon="1.64495">
        <ele>216.115531</ele>
        <time>2023-01-04T11:47:49.087Z</time>
      </trkpt>
      <trkpt lat="43.41524" lon="1.64507">
        <ele>216.005</ele>
        <time>2023-01-04T11:47:52.091Z</time>
      </trkpt>
      <trkpt lat="43.41517" lon="1.64522">
        <ele>216.030091</ele>
        <time>2023-01-04T11:47:55.084Z</time>
      </trkpt>
      <trkpt lat="43.41511" lon="1.64535">
        <ele>216.155571</ele>
        <time>2023-01-04T11:47:57.087Z</time>
      </trkpt>
      <trkpt lat="43.41506" lon="1.64547">
        <ele>216.260021</ele>
        <time>2023-01-04T11:47:59.068Z</time>
      </trkpt>
      <trkpt lat="43.415" lon="1.64557">
        <ele>216.359028</ele>
        <time>2023-01-04T11:48:01.087Z</time>
      </trkpt>
      <trkpt lat="43.41494" lon="1.64569">
        <ele>216.476952</ele>
        <time>2023-01-04T11:48:03.070Z</time>
      </trkpt>
      <trkpt lat="43.41487" lon="1.6458">
        <ele>216.586348</ele>
        <time>2023-01-04T11:48:05.088Z</time>
      </trkpt>
      <trkpt lat="43.41478" lon="1.64597">
        <ele>216.748413</ele>
        <time>2023-01-04T11:48:08.087Z</time>
      </trkpt>
      <trkpt lat="43.4147" lon="1.64609">
        <ele>216.879233</ele>
        <time>2023-01-04T11:48:10.079Z</time>
      </trkpt>
      <trkpt lat="43.41464" lon="1.6462">
        <ele>216.987054</ele>
        <time>2023-01-04T11:48:12.097Z</time>
      </trkpt>
      <trkpt lat="43.41456" lon="1.6463">
        <ele>217.103512</ele>
        <time>2023-01-04T11:48:14.088Z</time>
      </trkpt>
      <trkpt lat="43.41446" lon="1.64641">
        <ele>217.237018</ele>
        <time>2023-01-04T11:48:16.082Z</time>
      </trkpt>
      <trkpt lat="43.41438" lon="1.64651">
        <ele>217.354147</ele>
        <time>2023-01-04T11:48:18.090Z</time>
      </trkpt>
      <trkpt lat="43.41429" lon="1.6466">
        <ele>217.476676</ele>
        <time>2023-01-04T11:48:20.080Z</time>
      </trkpt>
      <trkpt lat="43.41419" lon="1.64671">
        <ele>217.606548</ele>
        <time>2023-01-04T11:48:22.087Z</time>
      </trkpt>
      <trkpt lat="43.41411" lon="1.64679">
        <ele>217.718838</ele>
        <time>2023-01-04T11:48:24.092Z</time>
      </trkpt>
      <trkpt lat="43.41401" lon="1.64689">
        <ele>217.853299</ele>
        <time>2023-01-04T11:48:26.081Z</time>
      </trkpt>
      <trkpt lat="43.41391" lon="1.64695">
        <ele>217.991681</ele>
        <time>2023-01-04T11:48:28.079Z</time>
      </trkpt>
      <trkpt lat="43.41383" lon="1.64703">
        <ele>218.132796</ele>
        <time>2023-01-04T11:48:30.087Z</time>
      </trkpt>
      <trkpt lat="43.41373" lon="1.64709">
        <ele>218.291729</ele>
        <time>2023-01-04T11:48:32.085Z</time>
      </trkpt>
      <trkpt lat="43.41362" lon="1.64715">
        <ele>218.447668</ele>
        <time>2023-01-04T11:48:34.082Z</time>
      </trkpt>
      <trkpt lat="43.41353" lon="1.6472">
        <ele>218.588631</ele>
        <time>2023-01-04T11:48:36.088Z</time>
      </trkpt>
      <trkpt lat="43.41344" lon="1.64724">
        <ele>218.721802</ele>
        <time>2023-01-04T11:48:38.080Z</time>
      </trkpt>
      <trkpt lat="43.41332" lon="1.64729">
        <ele>218.901401</ele>
        <time>2023-01-04T11:48:40.088Z</time>
      </trkpt>
      <trkpt lat="43.41323" lon="1.64734">
        <ele>219.042011</ele>
        <time>2023-01-04T11:48:42.089Z</time>
      </trkpt>
      <trkpt lat="43.41312" lon="1.64738">
        <ele>219.192667</ele>
        <time>2023-01-04T11:48:44.089Z</time>
      </trkpt>
      <trkpt lat="43.41302" lon="1.64741">
        <ele>219.345193</ele>
        <time>2023-01-04T11:48:46.062Z</time>
      </trkpt>
      <trkpt lat="43.41292" lon="1.64746">
        <ele>219.492137</ele>
        <time>2023-01-04T11:48:48.081Z</time>
      </trkpt>
      <trkpt lat="43.4128" lon="1.64748">
        <ele>219.655781</ele>
        <time>2023-01-04T11:48:51.087Z</time>
      </trkpt>
      <trkpt lat="43.41271" lon="1.64752">
        <ele>219.793578</ele>
        <time>2023-01-04T11:48:53.090Z</time>
      </trkpt>
      <trkpt lat="43.41262" lon="1.64755">
        <ele>219.928958</ele>
        <time>2023-01-04T11:48:55.077Z</time>
      </trkpt>
      <trkpt lat="43.41251" lon="1.6476">
        <ele>220.090993</ele>
        <time>2023-01-04T11:48:57.076Z</time>
      </trkpt>
      <trkpt lat="43.4124" lon="1.64768">
        <ele>220.265862</ele>
        <time>2023-01-04T11:49:00.083Z</time>
      </trkpt>
      <trkpt lat="43.41229" lon="1.64778">
        <ele>220.404382</ele>
        <time>2023-01-04T11:49:03.088Z</time>
      </trkpt>
      <trkpt lat="43.41221" lon="1.64787">
        <ele>220.350845</ele>
        <time>2023-01-04T11:49:05.086Z</time>
      </trkpt>
      <trkpt lat="43.4121" lon="1.64802">
        <ele>220.275042</ele>
        <time>2023-01-04T11:49:08.063Z</time>
      </trkpt>
      <trkpt lat="43.41201" lon="1.64818">
        <ele>220.201899</ele>
        <time>2023-01-04T11:49:11.087Z</time>
      </trkpt>
      <trkpt lat="43.41193" lon="1.64829">
        <ele>220.146247</ele>
        <time>2023-01-04T11:49:13.085Z</time>
      </trkpt>
      <trkpt lat="43.4119" lon="1.64844">
        <ele>220.091806</ele>
        <time>2023-01-04T11:49:16.077Z</time>
      </trkpt>
      <trkpt lat="43.41185" lon="1.64856">
        <ele>220.039498</ele>
        <time>2023-01-04T11:49:18.080Z</time>
      </trkpt>
      <trkpt lat="43.4118" lon="1.64869">
        <ele>219.988233</ele>
        <time>2023-01-04T11:49:20.078Z</time>
      </trkpt>
      <trkpt lat="43.41174" lon="1.64886">
        <ele>219.91958</ele>
        <time>2023-01-04T11:49:23.089Z</time>
      </trkpt>
      <trkpt lat="43.4117" lon="1.64902">
        <ele>219.859739</ele>
        <time>2023-01-04T11:49:26.079Z</time>
      </trkpt>
      <trkpt lat="43.41167" lon="1.64914">
        <ele>219.81274</ele>
        <time>2023-01-04T11:49:28.086Z</time>
      </trkpt>
      <trkpt lat="43.41165" lon="1.64929">
        <ele>219.758303</ele>
        <time>2023-01-04T11:49:31.085Z</time>
      </trkpt>
      <trkpt lat="43.4116" lon="1.64945">
        <ele>219.695325</ele>
        <time>2023-01-04T11:49:33.091Z</time>
      </trkpt>
      <trkpt lat="43.41154" lon="1.64959">
        <ele>219.637357</ele>
        <time>2023-01-04T11:49:35.090Z</time>
      </trkpt>
      <trkpt lat="43.4115" lon="1.64971">
        <ele>219.589214</ele>
        <time>2023-01-04T11:49:37.082Z</time>
      </trkpt>
      <trkpt lat="43.41145" lon="1.64982">
        <ele>219.54149</ele>
        <time>2023-01-04T11:49:39.085Z</time>
      </trkpt>
      <trkpt lat="43.41141" lon="1.65001">
        <ele>219.633086</ele>
        <time>2023-01-04T11:49:42.081Z</time>
      </trkpt>
      <trkpt lat="43.4114" lon="1.65014">
        <ele>219.732828</ele>
        <time>2023-01-04T11:49:44.079Z</time>
      </trkpt>
      <trkpt lat="43.41137" lon="1.6503">
        <ele>219.857735</ele>
        <time>2023-01-04T11:49:46.078Z</time>
      </trkpt>
      <trkpt lat="43.41137" lon="1.65044">
        <ele>219.967038</ele>
        <time>2023-01-04T11:49:48.076Z</time>
      </trkpt>
      <trkpt lat="43.41136" lon="1.65058">
        <ele>220.076719</ele>
        <time>2023-01-04T11:49:50.081Z</time>
      </trkpt>
      <trkpt lat="43.41133" lon="1.65074">
        <ele>220.204512</ele>
        <time>2023-01-04T11:49:52.083Z</time>
      </trkpt>
      <trkpt lat="43.41132" lon="1.6509">
        <ele>220.324418</ele>
        <time>2023-01-04T11:49:54.079Z</time>
      </trkpt>
      <trkpt lat="43.41133" lon="1.65106">
        <ele>220.449738</ele>
        <time>2023-01-04T11:49:56.082Z</time>
      </trkpt>
      <trkpt lat="43.41133" lon="1.65125">
        <ele>220.596328</ele>
        <time>2023-01-04T11:49:59.080Z</time>
      </trkpt>
      <trkpt lat="43.41131" lon="1.6514">
        <ele>220.710023</ele>
        <time>2023-01-04T11:50:01.088Z</time>
      </trkpt>
      <trkpt lat="43.41138" lon="1.65185">
        <ele>221.062223</ele>
        <time>2023-01-04T11:50:09.091Z</time>
      </trkpt>
      <trkpt lat="43.41138" lon="1.65206">
        <ele>221.21953</ele>
        <time>2023-01-04T11:50:11.095Z</time>
      </trkpt>
      <trkpt lat="43.41132" lon="1.65221">
        <ele>221.352115</ele>
        <time>2023-01-04T11:50:13.088Z</time>
      </trkpt>
      <trkpt lat="43.41134" lon="1.65237">
        <ele>221.35857</ele>
        <time>2023-01-04T11:50:17.087Z</time>
      </trkpt>
      <trkpt lat="43.41136" lon="1.65249">
        <ele>221.270056</ele>
        <time>2023-01-04T11:50:20.079Z</time>
      </trkpt>
      <trkpt lat="43.41138" lon="1.65265">
        <ele>221.152632</ele>
        <time>2023-01-04T11:50:23.084Z</time>
      </trkpt>
      <trkpt lat="43.41139" lon="1.65282">
        <ele>221.039439</ele>
        <time>2023-01-04T11:50:26.089Z</time>
      </trkpt>
      <trkpt lat="43.41143" lon="1.65295">
        <ele>220.940917</ele>
        <time>2023-01-04T11:50:29.089Z</time>
      </trkpt>
      <trkpt lat="43.41147" lon="1.65308">
        <ele>220.844656</ele>
        <time>2023-01-04T11:50:32.087Z</time>
      </trkpt>
      <trkpt lat="43.4115" lon="1.65323">
        <ele>220.73146</ele>
        <time>2023-01-04T11:50:35.082Z</time>
      </trkpt>
      <trkpt lat="43.41151" lon="1.65341">
        <ele>220.608782</ele>
        <time>2023-01-04T11:50:38.083Z</time>
      </trkpt>
      <trkpt lat="43.41153" lon="1.65357">
        <ele>220.491043</ele>
        <time>2023-01-04T11:50:41.087Z</time>
      </trkpt>
      <trkpt lat="43.41156" lon="1.65376">
        <ele>220.360895</ele>
        <time>2023-01-04T11:50:44.084Z</time>
      </trkpt>
      <trkpt lat="43.41159" lon="1.65389">
        <ele>220.262031</ele>
        <time>2023-01-04T11:50:46.089Z</time>
      </trkpt>
      <trkpt lat="43.41164" lon="1.65401">
        <ele>220.164009</ele>
        <time>2023-01-04T11:50:48.080Z</time>
      </trkpt>
      <trkpt lat="43.41168" lon="1.65419">
        <ele>220.034483</ele>
        <time>2023-01-04T11:50:51.087Z</time>
      </trkpt>
      <trkpt lat="43.41172" lon="1.6543">
        <ele>219.948107</ele>
        <time>2023-01-04T11:50:53.090Z</time>
      </trkpt>
      <trkpt lat="43.41175" lon="1.65443">
        <ele>219.850576</ele>
        <time>2023-01-04T11:50:55.061Z</time>
      </trkpt>
      <trkpt lat="43.41179" lon="1.65457">
        <ele>219.745804</ele>
        <time>2023-01-04T11:50:57.079Z</time>
      </trkpt>
      <trkpt lat="43.41182" lon="1.65472">
        <ele>219.660229</ele>
        <time>2023-01-04T11:50:59.088Z</time>
      </trkpt>
      <trkpt lat="43.41184" lon="1.65488">
        <ele>219.591597</ele>
        <time>2023-01-04T11:51:01.076Z</time>
      </trkpt>
      <trkpt lat="43.41186" lon="1.65505">
        <ele>219.522853</ele>
        <time>2023-01-04T11:51:03.070Z</time>
      </trkpt>
      <trkpt lat="43.4119" lon="1.6552">
        <ele>219.458821</ele>
        <time>2023-01-04T11:51:05.084Z</time>
      </trkpt>
      <trkpt lat="43.41195" lon="1.65537">
        <ele>219.381609</ele>
        <time>2023-01-04T11:51:08.080Z</time>
      </trkpt>
      <trkpt lat="43.41198" lon="1.6555">
        <ele>219.32806</ele>
        <time>2023-01-04T11:51:10.080Z</time>
      </trkpt>
      <trkpt lat="43.412" lon="1.65562">
        <ele>219.276193</ele>
        <time>2023-01-04T11:51:12.083Z</time>
      </trkpt>
      <trkpt lat="43.41203" lon="1.65575">
        <ele>219.222689</ele>
        <time>2023-01-04T11:51:14.093Z</time>
      </trkpt>
      <trkpt lat="43.41205" lon="1.65587">
        <ele>219.17158</ele>
        <time>2023-01-04T11:51:16.087Z</time>
      </trkpt>
      <trkpt lat="43.41208" lon="1.65605">
        <ele>219.098275</ele>
        <time>2023-01-04T11:51:19.083Z</time>
      </trkpt>
      <trkpt lat="43.41211" lon="1.65618">
        <ele>219.043519</ele>
        <time>2023-01-04T11:51:21.089Z</time>
      </trkpt>
      <trkpt lat="43.41213" lon="1.65631">
        <ele>218.988998</ele>
        <time>2023-01-04T11:51:23.058Z</time>
      </trkpt>
      <trkpt lat="43.41215" lon="1.65646">
        <ele>218.927742</ele>
        <time>2023-01-04T11:51:25.083Z</time>
      </trkpt>
      <trkpt lat="43.41219" lon="1.65659">
        <ele>218.867898</ele>
        <time>2023-01-04T11:51:27.066Z</time>
      </trkpt>
      <trkpt lat="43.41223" lon="1.65672">
        <ele>218.812883</ele>
        <time>2023-01-04T11:51:29.088Z</time>
      </trkpt>
      <trkpt lat="43.41226" lon="1.65684">
        <ele>218.762717</ele>
        <time>2023-01-04T11:51:32.096Z</time>
      </trkpt>
      <trkpt lat="43.41226" lon="1.65698">
        <ele>218.704708</ele>
        <time>2023-01-04T11:51:37.080Z</time>
      </trkpt>
      <trkpt lat="43.41229" lon="1.65712">
        <ele>218.647777</ele>
        <time>2023-01-04T11:51:40.087Z</time>
      </trkpt>
      <trkpt lat="43.41231" lon="1.65727">
        <ele>218.592843</ele>
        <time>2023-01-04T11:51:42.086Z</time>
      </trkpt>
      <trkpt lat="43.41232" lon="1.65744">
        <ele>218.528832</ele>
        <time>2023-01-04T11:51:44.087Z</time>
      </trkpt>
      <trkpt lat="43.41233" lon="1.65762">
        <ele>218.464087</ele>
        <time>2023-01-04T11:51:46.088Z</time>
      </trkpt>
      <trkpt lat="43.41233" lon="1.65781">
        <ele>218.392091</ele>
        <time>2023-01-04T11:51:48.097Z</time>
      </trkpt>
      <trkpt lat="43.41232" lon="1.65798">
        <ele>218.331849</ele>
        <time>2023-01-04T11:51:50.066Z</time>
      </trkpt>
      <trkpt lat="43.41229" lon="1.65817">
        <ele>218.258633</ele>
        <time>2023-01-04T11:51:52.090Z</time>
      </trkpt>
      <trkpt lat="43.41231" lon="1.65837">
        <ele>218.187523</ele>
        <time>2023-01-04T11:51:54.085Z</time>
      </trkpt>
      <trkpt lat="43.41233" lon="1.65852">
        <ele>218.130594</ele>
        <time>2023-01-04T11:51:56.083Z</time>
      </trkpt>
      <trkpt lat="43.41231" lon="1.65865">
        <ele>218.080628</ele>
        <time>2023-01-04T11:51:58.074Z</time>
      </trkpt>
      <trkpt lat="43.41229" lon="1.65878">
        <ele>218.032921</ele>
        <time>2023-01-04T11:52:00.089Z</time>
      </trkpt>
      <trkpt lat="43.4123" lon="1.65893">
        <ele>217.976712</ele>
        <time>2023-01-04T11:52:03.078Z</time>
      </trkpt>
      <trkpt lat="43.41227" lon="1.65914">
        <ele>217.899899</ele>
        <time>2023-01-04T11:52:06.088Z</time>
      </trkpt>
      <trkpt lat="43.41224" lon="1.65929">
        <ele>217.843122</ele>
        <time>2023-01-04T11:52:09.087Z</time>
      </trkpt>
      <trkpt lat="43.41222" lon="1.65942">
        <ele>217.793487</ele>
        <time>2023-01-04T11:52:11.091Z</time>
      </trkpt>
      <trkpt lat="43.41219" lon="1.65955">
        <ele>217.717581</ele>
        <time>2023-01-04T11:52:13.080Z</time>
      </trkpt>
      <trkpt lat="43.41214" lon="1.65967">
        <ele>217.607623</ele>
        <time>2023-01-04T11:52:15.071Z</time>
      </trkpt>
      <trkpt lat="43.41209" lon="1.65982">
        <ele>217.489251</ele>
        <time>2023-01-04T11:52:18.091Z</time>
      </trkpt>
      <trkpt lat="43.41204" lon="1.65998">
        <ele>217.360141</ele>
        <time>2023-01-04T11:52:21.084Z</time>
      </trkpt>
      <trkpt lat="43.41197" lon="1.66013">
        <ele>217.224498</ele>
        <time>2023-01-04T11:52:24.086Z</time>
      </trkpt>
      <trkpt lat="43.41192" lon="1.66026">
        <ele>217.117733</ele>
        <time>2023-01-04T11:52:26.082Z</time>
      </trkpt>
      <trkpt lat="43.41186" lon="1.6604">
        <ele>216.996944</ele>
        <time>2023-01-04T11:52:28.080Z</time>
      </trkpt>
      <trkpt lat="43.41181" lon="1.6605">
        <ele>216.903961</ele>
        <time>2023-01-04T11:52:30.078Z</time>
      </trkpt>
      <trkpt lat="43.41174" lon="1.66063">
        <ele>216.784666</ele>
        <time>2023-01-04T11:52:32.083Z</time>
      </trkpt>
      <trkpt lat="43.41169" lon="1.66074">
        <ele>216.686969</ele>
        <time>2023-01-04T11:52:34.080Z</time>
      </trkpt>
      <trkpt lat="43.41163" lon="1.66085">
        <ele>216.583375</ele>
        <time>2023-01-04T11:52:36.079Z</time>
      </trkpt>
      <trkpt lat="43.41156" lon="1.66101">
        <ele>216.447044</ele>
        <time>2023-01-04T11:52:39.088Z</time>
      </trkpt>
      <trkpt lat="43.41148" lon="1.66113">
        <ele>216.327856</ele>
        <time>2023-01-04T11:52:42.082Z</time>
      </trkpt>
      <trkpt lat="43.41141" lon="1.66122">
        <ele>216.228164</ele>
        <time>2023-01-04T11:52:44.082Z</time>
      </trkpt>
      <trkpt lat="43.41135" lon="1.66133">
        <ele>216.123832</ele>
        <time>2023-01-04T11:52:46.062Z</time>
      </trkpt>
      <trkpt lat="43.41128" lon="1.66143">
        <ele>216.026286</ele>
        <time>2023-01-04T11:52:48.079Z</time>
      </trkpt>
      <trkpt lat="43.4112" lon="1.66153">
        <ele>215.91526</ele>
        <time>2023-01-04T11:52:50.079Z</time>
      </trkpt>
      <trkpt lat="43.41112" lon="1.6616">
        <ele>215.833058</ele>
        <time>2023-01-04T11:52:52.080Z</time>
      </trkpt>
      <trkpt lat="43.41105" lon="1.66169">
        <ele>215.740595</ele>
        <time>2023-01-04T11:52:54.088Z</time>
      </trkpt>
      <trkpt lat="43.41097" lon="1.6618">
        <ele>215.640886</ele>
        <time>2023-01-04T11:52:56.082Z</time>
      </trkpt>
      <trkpt lat="43.41088" lon="1.66191">
        <ele>215.523959</ele>
        <time>2023-01-04T11:52:59.085Z</time>
      </trkpt>
      <trkpt lat="43.41081" lon="1.66201">
        <ele>215.436604</ele>
        <time>2023-01-04T11:53:01.083Z</time>
      </trkpt>
      <trkpt lat="43.41072" lon="1.66211">
        <ele>215.330784</ele>
        <time>2023-01-04T11:53:03.090Z</time>
      </trkpt>
      <trkpt lat="43.41063" lon="1.66222">
        <ele>215.222681</ele>
        <time>2023-01-04T11:53:05.074Z</time>
      </trkpt>
      <trkpt lat="43.41054" lon="1.66233">
        <ele>215.11137</ele>
        <time>2023-01-04T11:53:07.091Z</time>
      </trkpt>
      <trkpt lat="43.41043" lon="1.66245">
        <ele>214.979675</ele>
        <time>2023-01-04T11:53:10.080Z</time>
      </trkpt>
      <trkpt lat="43.41033" lon="1.66256">
        <ele>214.870178</ele>
        <time>2023-01-04T11:53:12.086Z</time>
      </trkpt>
      <trkpt lat="43.41025" lon="1.66265">
        <ele>214.772229</ele>
        <time>2023-01-04T11:53:14.090Z</time>
      </trkpt>
      <trkpt lat="43.41017" lon="1.66275">
        <ele>214.674815</ele>
        <time>2023-01-04T11:53:16.088Z</time>
      </trkpt>
      <trkpt lat="43.41008" lon="1.66284">
        <ele>214.57186</ele>
        <time>2023-01-04T11:53:18.079Z</time>
      </trkpt>
      <trkpt lat="43.40999" lon="1.66294">
        <ele>214.471514</ele>
        <time>2023-01-04T11:53:20.090Z</time>
      </trkpt>
      <trkpt lat="43.40991" lon="1.66303">
        <ele>214.374796</ele>
        <time>2023-01-04T11:53:22.094Z</time>
      </trkpt>
      <trkpt lat="43.40982" lon="1.66314">
        <ele>214.291376</ele>
        <time>2023-01-04T11:53:24.064Z</time>
      </trkpt>
      <trkpt lat="43.40974" lon="1.66322">
        <ele>214.304445</ele>
        <time>2023-01-04T11:53:26.088Z</time>
      </trkpt>
      <trkpt lat="43.40966" lon="1.6633">
        <ele>214.317467</ele>
        <time>2023-01-04T11:53:28.077Z</time>
      </trkpt>
      <trkpt lat="43.40957" lon="1.66339">
        <ele>214.331429</ele>
        <time>2023-01-04T11:53:30.089Z</time>
      </trkpt>
      <trkpt lat="43.40948" lon="1.66348">
        <ele>214.345817</ele>
        <time>2023-01-04T11:53:32.085Z</time>
      </trkpt>
      <trkpt lat="43.40939" lon="1.66355">
        <ele>214.359265</ele>
        <time>2023-01-04T11:53:34.087Z</time>
      </trkpt>
      <trkpt lat="43.40929" lon="1.66365">
        <ele>214.374707</ele>
        <time>2023-01-04T11:53:37.079Z</time>
      </trkpt>
      <trkpt lat="43.40919" lon="1.66372">
        <ele>214.389241</ele>
        <time>2023-01-04T11:53:39.089Z</time>
      </trkpt>
      <trkpt lat="43.4091" lon="1.6638">
        <ele>214.403018</ele>
        <time>2023-01-04T11:53:41.077Z</time>
      </trkpt>
      <trkpt lat="43.40903" lon="1.66388">
        <ele>214.4151</ele>
        <time>2023-01-04T11:53:43.077Z</time>
      </trkpt>
      <trkpt lat="43.40893" lon="1.66396">
        <ele>214.42949</ele>
        <time>2023-01-04T11:53:45.087Z</time>
      </trkpt>
      <trkpt lat="43.40884" lon="1.66403">
        <ele>214.442654</ele>
        <time>2023-01-04T11:53:47.085Z</time>
      </trkpt>
      <trkpt lat="43.40873" lon="1.66412">
        <ele>214.459498</ele>
        <time>2023-01-04T11:53:49.083Z</time>
      </trkpt>
      <trkpt lat="43.40863" lon="1.66421">
        <ele>214.474149</ele>
        <time>2023-01-04T11:53:51.069Z</time>
      </trkpt>
      <trkpt lat="43.40855" lon="1.66429">
        <ele>214.487271</ele>
        <time>2023-01-04T11:53:53.087Z</time>
      </trkpt>
      <trkpt lat="43.40846" lon="1.66435">
        <ele>214.499352</ele>
        <time>2023-01-04T11:53:55.067Z</time>
      </trkpt>
      <trkpt lat="43.40838" lon="1.66443">
        <ele>214.512416</ele>
        <time>2023-01-04T11:53:57.096Z</time>
      </trkpt>
      <trkpt lat="43.40829" lon="1.6645">
        <ele>214.454761</ele>
        <time>2023-01-04T11:53:59.081Z</time>
      </trkpt>
      <trkpt lat="43.4082" lon="1.66458">
        <ele>214.328352</ele>
        <time>2023-01-04T11:54:01.089Z</time>
      </trkpt>
      <trkpt lat="43.40812" lon="1.66464">
        <ele>214.20978</ele>
        <time>2023-01-04T11:54:03.061Z</time>
      </trkpt>
      <trkpt lat="43.40802" lon="1.66472">
        <ele>214.075741</ele>
        <time>2023-01-04T11:54:05.087Z</time>
      </trkpt>
      <trkpt lat="43.40793" lon="1.66478">
        <ele>213.950072</ele>
        <time>2023-01-04T11:54:07.089Z</time>
      </trkpt>
      <trkpt lat="43.40781" lon="1.66486">
        <ele>213.796754</ele>
        <time>2023-01-04T11:54:09.078Z</time>
      </trkpt>
      <trkpt lat="43.40771" lon="1.66494">
        <ele>213.65353</ele>
        <time>2023-01-04T11:54:11.081Z</time>
      </trkpt>
      <trkpt lat="43.4076" lon="1.66502">
        <ele>213.499473</ele>
        <time>2023-01-04T11:54:13.082Z</time>
      </trkpt>
      <trkpt lat="43.40751" lon="1.66508">
        <ele>213.378189</ele>
        <time>2023-01-04T11:54:15.079Z</time>
      </trkpt>
      <trkpt lat="43.40739" lon="1.66518">
        <ele>213.209852</ele>
        <time>2023-01-04T11:54:18.091Z</time>
      </trkpt>
      <trkpt lat="43.4073" lon="1.66523">
        <ele>213.097392</ele>
        <time>2023-01-04T11:54:20.083Z</time>
      </trkpt>
      <trkpt lat="43.40722" lon="1.66529">
        <ele>212.98015</ele>
        <time>2023-01-04T11:54:22.087Z</time>
      </trkpt>
      <trkpt lat="43.40713" lon="1.66533">
        <ele>212.864015</ele>
        <time>2023-01-04T11:54:24.086Z</time>
      </trkpt>
      <trkpt lat="43.40701" lon="1.66539">
        <ele>212.706285</ele>
        <time>2023-01-04T11:54:27.087Z</time>
      </trkpt>
      <trkpt lat="43.40691" lon="1.66543">
        <ele>212.586954</ele>
        <time>2023-01-04T11:54:29.069Z</time>
      </trkpt>
      <trkpt lat="43.40682" lon="1.66549">
        <ele>212.464084</ele>
        <time>2023-01-04T11:54:31.089Z</time>
      </trkpt>
      <trkpt lat="43.40671" lon="1.66553">
        <ele>212.340285</ele>
        <time>2023-01-04T11:54:33.080Z</time>
      </trkpt>
      <trkpt lat="43.40662" lon="1.66557">
        <ele>212.361643</ele>
        <time>2023-01-04T11:54:35.082Z</time>
      </trkpt>
      <trkpt lat="43.40653" lon="1.66562">
        <ele>212.382559</ele>
        <time>2023-01-04T11:54:37.088Z</time>
      </trkpt>
      <trkpt lat="43.4064" lon="1.66569">
        <ele>212.414919</ele>
        <time>2023-01-04T11:54:40.089Z</time>
      </trkpt>
      <trkpt lat="43.40626" lon="1.66575">
        <ele>212.447349</ele>
        <time>2023-01-04T11:54:43.087Z</time>
      </trkpt>
      <trkpt lat="43.40617" lon="1.66582">
        <ele>212.471079</ele>
        <time>2023-01-04T11:54:45.066Z</time>
      </trkpt>
      <trkpt lat="43.40605" lon="1.66589">
        <ele>212.499783</ele>
        <time>2023-01-04T11:54:47.084Z</time>
      </trkpt>
      <trkpt lat="43.40595" lon="1.66596">
        <ele>212.526117</ele>
        <time>2023-01-04T11:54:49.087Z</time>
      </trkpt>
      <trkpt lat="43.40582" lon="1.66605">
        <ele>212.557036</ele>
        <time>2023-01-04T11:54:51.082Z</time>
      </trkpt>
      <trkpt lat="43.40573" lon="1.66611">
        <ele>212.580549</ele>
        <time>2023-01-04T11:54:53.075Z</time>
      </trkpt>
      <trkpt lat="43.40563" lon="1.66618">
        <ele>212.606795</ele>
        <time>2023-01-04T11:54:55.077Z</time>
      </trkpt>
      <trkpt lat="43.40555" lon="1.66624">
        <ele>212.627154</ele>
        <time>2023-01-04T11:54:57.088Z</time>
      </trkpt>
      <trkpt lat="43.40546" lon="1.6663">
        <ele>212.650391</ele>
        <time>2023-01-04T11:54:59.089Z</time>
      </trkpt>
      <trkpt lat="43.40533" lon="1.6664">
        <ele>212.682245</ele>
        <time>2023-01-04T11:55:02.094Z</time>
      </trkpt>
      <trkpt lat="43.40525" lon="1.66647">
        <ele>212.704552</ele>
        <time>2023-01-04T11:55:04.071Z</time>
      </trkpt>
      <trkpt lat="43.40514" lon="1.66655">
        <ele>212.731113</ele>
        <time>2023-01-04T11:55:06.074Z</time>
      </trkpt>
      <trkpt lat="43.40503" lon="1.66666">
        <ele>213.139454</ele>
        <time>2023-01-04T11:55:08.069Z</time>
      </trkpt>
      <trkpt lat="43.40494" lon="1.66676">
        <ele>213.697247</ele>
        <time>2023-01-04T11:55:10.077Z</time>
      </trkpt>
      <trkpt lat="43.40486" lon="1.66684">
        <ele>214.188109</ele>
        <time>2023-01-04T11:55:12.091Z</time>
      </trkpt>
      <trkpt lat="43.40475" lon="1.66695">
        <ele>214.839473</ele>
        <time>2023-01-04T11:55:15.065Z</time>
      </trkpt>
      <trkpt lat="43.40467" lon="1.66705">
        <ele>215.376296</ele>
        <time>2023-01-04T11:55:17.088Z</time>
      </trkpt>
      <trkpt lat="43.40458" lon="1.66715">
        <ele>215.961704</ele>
        <time>2023-01-04T11:55:19.077Z</time>
      </trkpt>
      <trkpt lat="43.40448" lon="1.66727">
        <ele>216.58644</ele>
        <time>2023-01-04T11:55:22.085Z</time>
      </trkpt>
      <trkpt lat="43.4044" lon="1.66739">
        <ele>217.127433</ele>
        <time>2023-01-04T11:55:24.084Z</time>
      </trkpt>
      <trkpt lat="43.40432" lon="1.66753">
        <ele>217.772991</ele>
        <time>2023-01-04T11:55:27.079Z</time>
      </trkpt>
      <trkpt lat="43.40425" lon="1.66763">
        <ele>218.279418</ele>
        <time>2023-01-04T11:55:29.090Z</time>
      </trkpt>
      <trkpt lat="43.40418" lon="1.66775">
        <ele>218.802606</ele>
        <time>2023-01-04T11:55:31.064Z</time>
      </trkpt>
      <trkpt lat="43.40412" lon="1.66785">
        <ele>219.270806</ele>
        <time>2023-01-04T11:55:33.080Z</time>
      </trkpt>
      <trkpt lat="43.40407" lon="1.66797">
        <ele>219.752236</ele>
        <time>2023-01-04T11:55:35.080Z</time>
      </trkpt>
      <trkpt lat="43.40403" lon="1.66813">
        <ele>220.365174</ele>
        <time>2023-01-04T11:55:38.069Z</time>
      </trkpt>
      <trkpt lat="43.40396" lon="1.66825">
        <ele>220.891043</ele>
        <time>2023-01-04T11:55:41.063Z</time>
      </trkpt>
      <trkpt lat="43.40391" lon="1.66838">
        <ele>221.383876</ele>
        <time>2023-01-04T11:55:43.067Z</time>
      </trkpt>
      <trkpt lat="43.40386" lon="1.66849">
        <ele>221.631481</ele>
        <time>2023-01-04T11:55:45.087Z</time>
      </trkpt>
      <trkpt lat="43.40382" lon="1.66861">
        <ele>221.826838</ele>
        <time>2023-01-04T11:55:47.092Z</time>
      </trkpt>
      <trkpt lat="43.40374" lon="1.66876">
        <ele>222.121203</ele>
        <time>2023-01-04T11:55:50.090Z</time>
      </trkpt>
      <trkpt lat="43.40368" lon="1.66886">
        <ele>222.327895</ele>
        <time>2023-01-04T11:55:52.083Z</time>
      </trkpt>
      <trkpt lat="43.40363" lon="1.66901">
        <ele>222.58373</ele>
        <time>2023-01-04T11:55:55.088Z</time>
      </trkpt>
      <trkpt lat="43.40356" lon="1.66917">
        <ele>222.870317</ele>
        <time>2023-01-04T11:55:58.082Z</time>
      </trkpt>
      <trkpt lat="43.40352" lon="1.66928">
        <ele>223.069919</ele>
        <time>2023-01-04T11:56:00.081Z</time>
      </trkpt>
      <trkpt lat="43.40346" lon="1.66943">
        <ele>223.345613</ele>
        <time>2023-01-04T11:56:03.088Z</time>
      </trkpt>
      <trkpt lat="43.40343" lon="1.66956">
        <ele>223.557353</ele>
        <time>2023-01-04T11:56:06.089Z</time>
      </trkpt>
      <trkpt lat="43.40336" lon="1.6697">
        <ele>223.805168</ele>
        <time>2023-01-04T11:56:08.084Z</time>
      </trkpt>
      <trkpt lat="43.40332" lon="1.66986">
        <ele>224.077571</ele>
        <time>2023-01-04T11:56:11.091Z</time>
      </trkpt>
      <trkpt lat="43.40328" lon="1.66997">
        <ele>224.272274</ele>
        <time>2023-01-04T11:56:13.093Z</time>
      </trkpt>
      <trkpt lat="43.40323" lon="1.67016">
        <ele>224.576891</ele>
        <time>2023-01-04T11:56:16.086Z</time>
      </trkpt>
      <trkpt lat="43.40316" lon="1.6703">
        <ele>224.846397</ele>
        <time>2023-01-04T11:56:18.090Z</time>
      </trkpt>
      <trkpt lat="43.40314" lon="1.67044">
        <ele>225.069026</ele>
        <time>2023-01-04T11:56:20.083Z</time>
      </trkpt>
      <trkpt lat="43.4031" lon="1.67057">
        <ele>225.290664</ele>
        <time>2023-01-04T11:56:22.088Z</time>
      </trkpt>
      <trkpt lat="43.40305" lon="1.67068">
        <ele>225.633058</ele>
        <time>2023-01-04T11:56:24.078Z</time>
      </trkpt>
      <trkpt lat="43.403" lon="1.67083">
        <ele>226.058541</ele>
        <time>2023-01-04T11:56:27.079Z</time>
      </trkpt>
      <trkpt lat="43.40297" lon="1.67096">
        <ele>226.447448</ele>
        <time>2023-01-04T11:56:29.094Z</time>
      </trkpt>
      <trkpt lat="43.40292" lon="1.67112">
        <ele>226.89759</ele>
        <time>2023-01-04T11:56:31.087Z</time>
      </trkpt>
      <trkpt lat="43.40286" lon="1.67128">
        <ele>227.389971</ele>
        <time>2023-01-04T11:56:33.081Z</time>
      </trkpt>
      <trkpt lat="43.40278" lon="1.67146">
        <ele>227.9672</ele>
        <time>2023-01-04T11:56:36.085Z</time>
      </trkpt>
      <trkpt lat="43.40272" lon="1.6716">
        <ele>228.403417</ele>
        <time>2023-01-04T11:56:39.081Z</time>
      </trkpt>
      <trkpt lat="43.40266" lon="1.67173">
        <ele>228.808009</ele>
        <time>2023-01-04T11:56:41.085Z</time>
      </trkpt>
      <trkpt lat="43.40261" lon="1.67186">
        <ele>229.187964</ele>
        <time>2023-01-04T11:56:43.080Z</time>
      </trkpt>
      <trkpt lat="43.40255" lon="1.67201">
        <ele>229.646161</ele>
        <time>2023-01-04T11:56:45.090Z</time>
      </trkpt>
      <trkpt lat="43.40248" lon="1.67219">
        <ele>230.196635</ele>
        <time>2023-01-04T11:56:48.088Z</time>
      </trkpt>
      <trkpt lat="43.40244" lon="1.67231">
        <ele>230.558728</ele>
        <time>2023-01-04T11:56:50.088Z</time>
      </trkpt>
      <trkpt lat="43.40241" lon="1.67244">
        <ele>230.943895</ele>
        <time>2023-01-04T11:56:52.071Z</time>
      </trkpt>
      <trkpt lat="43.40235" lon="1.6726">
        <ele>231.416949</ele>
        <time>2023-01-04T11:56:54.079Z</time>
      </trkpt>
      <trkpt lat="43.40233" lon="1.67273">
        <ele>231.752614</ele>
        <time>2023-01-04T11:56:56.090Z</time>
      </trkpt>
      <trkpt lat="43.4023" lon="1.67285">
        <ele>231.925101</ele>
        <time>2023-01-04T11:56:58.081Z</time>
      </trkpt>
      <trkpt lat="43.40225" lon="1.673">
        <ele>231.832891</ele>
        <time>2023-01-04T11:57:01.080Z</time>
      </trkpt>
      <trkpt lat="43.40221" lon="1.67315">
        <ele>231.749394</ele>
        <time>2023-01-04T11:57:03.084Z</time>
      </trkpt>
      <trkpt lat="43.40219" lon="1.6733">
        <ele>231.665863</ele>
        <time>2023-01-04T11:57:05.079Z</time>
      </trkpt>
      <trkpt lat="43.40215" lon="1.67343">
        <ele>231.590274</ele>
        <time>2023-01-04T11:57:08.082Z</time>
      </trkpt>
      <trkpt lat="43.40211" lon="1.67358">
        <ele>231.500352</ele>
        <time>2023-01-04T11:57:10.076Z</time>
      </trkpt>
      <trkpt lat="43.40206" lon="1.67372">
        <ele>231.418189</ele>
        <time>2023-01-04T11:57:12.089Z</time>
      </trkpt>
      <trkpt lat="43.40203" lon="1.67384">
        <ele>231.347024</ele>
        <time>2023-01-04T11:57:14.091Z</time>
      </trkpt>
      <trkpt lat="43.402" lon="1.67398">
        <ele>231.265379</ele>
        <time>2023-01-04T11:57:16.081Z</time>
      </trkpt>
      <trkpt lat="43.40194" lon="1.67413">
        <ele>231.173099</ele>
        <time>2023-01-04T11:57:18.078Z</time>
      </trkpt>
      <trkpt lat="43.40187" lon="1.6743">
        <ele>231.062809</ele>
        <time>2023-01-04T11:57:20.089Z</time>
      </trkpt>
      <trkpt lat="43.40181" lon="1.67444">
        <ele>230.976506</ele>
        <time>2023-01-04T11:57:22.081Z</time>
      </trkpt>
      <trkpt lat="43.40178" lon="1.67456">
        <ele>230.905578</ele>
        <time>2023-01-04T11:57:24.091Z</time>
      </trkpt>
      <trkpt lat="43.40174" lon="1.67467">
        <ele>230.836195</ele>
        <time>2023-01-04T11:57:26.079Z</time>
      </trkpt>
      <trkpt lat="43.40169" lon="1.67482">
        <ele>230.745013</ele>
        <time>2023-01-04T11:57:29.086Z</time>
      </trkpt>
      <trkpt lat="43.40162" lon="1.67496">
        <ele>230.656315</ele>
        <time>2023-01-04T11:57:31.082Z</time>
      </trkpt>
      <trkpt lat="43.40159" lon="1.6751">
        <ele>230.554382</ele>
        <time>2023-01-04T11:57:33.087Z</time>
      </trkpt>
      <trkpt lat="43.40153" lon="1.67524">
        <ele>230.371294</ele>
        <time>2023-01-04T11:57:36.088Z</time>
      </trkpt>
      <trkpt lat="43.40147" lon="1.67535">
        <ele>230.228189</ele>
        <time>2023-01-04T11:57:38.076Z</time>
      </trkpt>
      <trkpt lat="43.4014" lon="1.67548">
        <ele>230.050813</ele>
        <time>2023-01-04T11:57:40.079Z</time>
      </trkpt>
      <trkpt lat="43.40135" lon="1.67559">
        <ele>229.904251</ele>
        <time>2023-01-04T11:57:42.085Z</time>
      </trkpt>
      <trkpt lat="43.40128" lon="1.67571">
        <ele>229.746066</ele>
        <time>2023-01-04T11:57:44.064Z</time>
      </trkpt>
      <trkpt lat="43.40123" lon="1.67583">
        <ele>229.591309</ele>
        <time>2023-01-04T11:57:46.084Z</time>
      </trkpt>
      <trkpt lat="43.40117" lon="1.67594">
        <ele>229.440249</ele>
        <time>2023-01-04T11:57:48.084Z</time>
      </trkpt>
      <trkpt lat="43.40112" lon="1.67608">
        <ele>229.273296</ele>
        <time>2023-01-04T11:57:50.085Z</time>
      </trkpt>
      <trkpt lat="43.40105" lon="1.67621">
        <ele>229.103077</ele>
        <time>2023-01-04T11:57:52.097Z</time>
      </trkpt>
      <trkpt lat="43.401" lon="1.67632">
        <ele>228.959028</ele>
        <time>2023-01-04T11:57:54.084Z</time>
      </trkpt>
      <trkpt lat="43.40091" lon="1.6765">
        <ele>228.715104</ele>
        <time>2023-01-04T11:57:57.091Z</time>
      </trkpt>
      <trkpt lat="43.40085" lon="1.67662">
        <ele>228.561422</ele>
        <time>2023-01-04T11:57:59.079Z</time>
      </trkpt>
      <trkpt lat="43.40079" lon="1.67672">
        <ele>228.416074</ele>
        <time>2023-01-04T11:58:01.079Z</time>
      </trkpt>
      <trkpt lat="43.40073" lon="1.67683">
        <ele>228.271112</ele>
        <time>2023-01-04T11:58:03.082Z</time>
      </trkpt>
      <trkpt lat="43.40068" lon="1.67697">
        <ele>228.10667</ele>
        <time>2023-01-04T11:58:05.070Z</time>
      </trkpt>
      <trkpt lat="43.4006" lon="1.6771">
        <ele>227.924762</ele>
        <time>2023-01-04T11:58:07.087Z</time>
      </trkpt>
      <trkpt lat="43.40055" lon="1.6772">
        <ele>227.921962</ele>
        <time>2023-01-04T11:58:09.071Z</time>
      </trkpt>
      <trkpt lat="43.40049" lon="1.67732">
        <ele>227.925245</ele>
        <time>2023-01-04T11:58:11.081Z</time>
      </trkpt>
      <trkpt lat="43.40043" lon="1.67745">
        <ele>227.928818</ele>
        <time>2023-01-04T11:58:13.090Z</time>
      </trkpt>
      <trkpt lat="43.40035" lon="1.6776">
        <ele>227.933293</ele>
        <time>2023-01-04T11:58:16.080Z</time>
      </trkpt>
      <trkpt lat="43.40029" lon="1.6777">
        <ele>227.936389</ele>
        <time>2023-01-04T11:58:18.092Z</time>
      </trkpt>
      <trkpt lat="43.40022" lon="1.67786">
        <ele>227.940702</ele>
        <time>2023-01-04T11:58:21.090Z</time>
      </trkpt>
      <trkpt lat="43.40016" lon="1.67797">
        <ele>227.943854</ele>
        <time>2023-01-04T11:58:23.068Z</time>
      </trkpt>
      <trkpt lat="43.4001" lon="1.67807">
        <ele>227.946897</ele>
        <time>2023-01-04T11:58:25.082Z</time>
      </trkpt>
      <trkpt lat="43.40003" lon="1.67822">
        <ele>227.95109</ele>
        <time>2023-01-04T11:58:28.082Z</time>
      </trkpt>
      <trkpt lat="43.39997" lon="1.67832">
        <ele>227.954097</ele>
        <time>2023-01-04T11:58:30.090Z</time>
      </trkpt>
      <trkpt lat="43.39989" lon="1.67844">
        <ele>227.957758</ele>
        <time>2023-01-04T11:58:32.096Z</time>
      </trkpt>
      <trkpt lat="43.39984" lon="1.67855">
        <ele>227.960937</ele>
        <time>2023-01-04T11:58:34.095Z</time>
      </trkpt>
      <trkpt lat="43.39977" lon="1.67865">
        <ele>227.964238</ele>
        <time>2023-01-04T11:58:36.092Z</time>
      </trkpt>
      <trkpt lat="43.39971" lon="1.67876">
        <ele>227.967276</ele>
        <time>2023-01-04T11:58:38.092Z</time>
      </trkpt>
      <trkpt lat="43.39963" lon="1.6789">
        <ele>227.971516</ele>
        <time>2023-01-04T11:58:41.081Z</time>
      </trkpt>
      <trkpt lat="43.39956" lon="1.67898">
        <ele>227.974506</ele>
        <time>2023-01-04T11:58:43.081Z</time>
      </trkpt>
      <trkpt lat="43.39946" lon="1.6791">
        <ele>227.948997</ele>
        <time>2023-01-04T11:58:46.078Z</time>
      </trkpt>
      <trkpt lat="43.39937" lon="1.67922">
        <ele>227.883834</ele>
        <time>2023-01-04T11:58:49.091Z</time>
      </trkpt>
      <trkpt lat="43.39929" lon="1.67929">
        <ele>227.83798</ele>
        <time>2023-01-04T11:58:51.084Z</time>
      </trkpt>
      <trkpt lat="43.39919" lon="1.6794">
        <ele>227.773055</ele>
        <time>2023-01-04T11:58:54.082Z</time>
      </trkpt>
      <trkpt lat="43.3991" lon="1.67949">
        <ele>227.714048</ele>
        <time>2023-01-04T11:58:57.082Z</time>
      </trkpt>
      <trkpt lat="43.39899" lon="1.67953">
        <ele>227.659996</ele>
        <time>2023-01-04T11:59:00.083Z</time>
      </trkpt>
      <trkpt lat="43.39889" lon="1.67956">
        <ele>227.605332</ele>
        <time>2023-01-04T11:59:04.088Z</time>
      </trkpt>
      <trkpt lat="43.3988" lon="1.67961">
        <ele>227.558878</ele>
        <time>2023-01-04T11:59:12.090Z</time>
      </trkpt>
      <trkpt lat="43.39871" lon="1.67967">
        <ele>227.508438</ele>
        <time>2023-01-04T11:59:17.090Z</time>
      </trkpt>
      <trkpt lat="43.39861" lon="1.67971">
        <ele>227.453014</ele>
        <time>2023-01-04T11:59:21.079Z</time>
      </trkpt>
      <trkpt lat="43.39851" lon="1.67977">
        <ele>227.399972</ele>
        <time>2023-01-04T11:59:25.080Z</time>
      </trkpt>
      <trkpt lat="43.39842" lon="1.67982">
        <ele>227.349975</ele>
        <time>2023-01-04T11:59:29.067Z</time>
      </trkpt>
      <trkpt lat="43.39834" lon="1.6799">
        <ele>227.300997</ele>
        <time>2023-01-04T11:59:32.089Z</time>
      </trkpt>
      <trkpt lat="43.39827" lon="1.68001">
        <ele>227.246167</ele>
        <time>2023-01-04T11:59:36.091Z</time>
      </trkpt>
      <trkpt lat="43.3982" lon="1.68013">
        <ele>227.187974</ele>
        <time>2023-01-04T11:59:40.091Z</time>
      </trkpt>
      <trkpt lat="43.39813" lon="1.68026">
        <ele>227.129975</ele>
        <time>2023-01-04T11:59:44.090Z</time>
      </trkpt>
      <trkpt lat="43.39806" lon="1.68037">
        <ele>227.076598</ele>
        <time>2023-01-04T11:59:48.086Z</time>
      </trkpt>
      <trkpt lat="43.39799" lon="1.68052">
        <ele>227.140248</ele>
        <time>2023-01-04T11:59:52.090Z</time>
      </trkpt>
      <trkpt lat="43.39794" lon="1.68065">
        <ele>227.213965</ele>
        <time>2023-01-04T11:59:55.080Z</time>
      </trkpt>
      <trkpt lat="43.39788" lon="1.68078">
        <ele>227.293185</ele>
        <time>2023-01-04T11:59:58.068Z</time>
      </trkpt>
      <trkpt lat="43.39782" lon="1.68092">
        <ele>227.373695</ele>
        <time>2023-01-04T12:00:01.080Z</time>
      </trkpt>
      <trkpt lat="43.39778" lon="1.68105">
        <ele>227.441252</ele>
        <time>2023-01-04T12:00:03.076Z</time>
      </trkpt>
      <trkpt lat="43.39775" lon="1.68121">
        <ele>227.525033</ele>
        <time>2023-01-04T12:00:06.082Z</time>
      </trkpt>
      <trkpt lat="43.39773" lon="1.68133">
        <ele>227.589621</ele>
        <time>2023-01-04T12:00:08.089Z</time>
      </trkpt>
      <trkpt lat="43.39769" lon="1.68145">
        <ele>227.654305</ele>
        <time>2023-01-04T12:00:12.078Z</time>
      </trkpt>
      <trkpt lat="43.39764" lon="1.6816">
        <ele>227.739341</ele>
        <time>2023-01-04T12:00:15.088Z</time>
      </trkpt>
      <trkpt lat="43.39759" lon="1.68177">
        <ele>227.827747</ele>
        <time>2023-01-04T12:00:18.089Z</time>
      </trkpt>
      <trkpt lat="43.39758" lon="1.6819">
        <ele>227.890166</ele>
        <time>2023-01-04T12:00:20.091Z</time>
      </trkpt>
      <trkpt lat="43.39754" lon="1.68205">
        <ele>227.970133</ele>
        <time>2023-01-04T12:00:23.080Z</time>
      </trkpt>
      <trkpt lat="43.39751" lon="1.68217">
        <ele>228.035819</ele>
        <time>2023-01-04T12:00:25.077Z</time>
      </trkpt>
      <trkpt lat="43.39744" lon="1.68231">
        <ele>228.120199</ele>
        <time>2023-01-04T12:00:28.090Z</time>
      </trkpt>
      <trkpt lat="43.3974" lon="1.68248">
        <ele>228.211946</ele>
        <time>2023-01-04T12:00:31.094Z</time>
      </trkpt>
      <trkpt lat="43.39733" lon="1.68261">
        <ele>228.291166</ele>
        <time>2023-01-04T12:00:33.081Z</time>
      </trkpt>
      <trkpt lat="43.39727" lon="1.68272">
        <ele>228.125992</ele>
        <time>2023-01-04T12:00:35.089Z</time>
      </trkpt>
      <trkpt lat="43.3972" lon="1.68282">
        <ele>227.89783</ele>
        <time>2023-01-04T12:00:38.090Z</time>
      </trkpt>
      <trkpt lat="43.39712" lon="1.68294">
        <ele>227.637921</ele>
        <time>2023-01-04T12:00:41.084Z</time>
      </trkpt>
      <trkpt lat="43.39703" lon="1.68305">
        <ele>227.396439</ele>
        <time>2023-01-04T12:00:43.090Z</time>
      </trkpt>
      <trkpt lat="43.39695" lon="1.68316">
        <ele>227.142905</ele>
        <time>2023-01-04T12:00:46.093Z</time>
      </trkpt>
      <trkpt lat="43.39685" lon="1.68324">
        <ele>226.881502</ele>
        <time>2023-01-04T12:00:49.086Z</time>
      </trkpt>
      <trkpt lat="43.39674" lon="1.6833">
        <ele>226.643557</ele>
        <time>2023-01-04T12:00:52.063Z</time>
      </trkpt>
      <trkpt lat="43.39666" lon="1.68336">
        <ele>226.447871</ele>
        <time>2023-01-04T12:00:54.065Z</time>
      </trkpt>
      <trkpt lat="43.39656" lon="1.68344">
        <ele>226.189688</ele>
        <time>2023-01-04T12:00:56.078Z</time>
      </trkpt>
      <trkpt lat="43.39646" lon="1.68352">
        <ele>225.937655</ele>
        <time>2023-01-04T12:00:58.080Z</time>
      </trkpt>
      <trkpt lat="43.39636" lon="1.68356">
        <ele>225.720001</ele>
        <time>2023-01-04T12:01:00.079Z</time>
      </trkpt>
      <trkpt lat="43.39628" lon="1.68366">
        <ele>225.486854</ele>
        <time>2023-01-04T12:01:02.084Z</time>
      </trkpt>
      <trkpt lat="43.39619" lon="1.68372">
        <ele>225.266243</ele>
        <time>2023-01-04T12:01:04.088Z</time>
      </trkpt>
      <trkpt lat="43.3961" lon="1.68379">
        <ele>225.051299</ele>
        <time>2023-01-04T12:01:06.079Z</time>
      </trkpt>
      <trkpt lat="43.39603" lon="1.68388">
        <ele>224.842069</ele>
        <time>2023-01-04T12:01:08.087Z</time>
      </trkpt>
      <trkpt lat="43.39594" lon="1.68397">
        <ele>224.608314</ele>
        <time>2023-01-04T12:01:10.063Z</time>
      </trkpt>
      <trkpt lat="43.39585" lon="1.68412">
        <ele>224.524809</ele>
        <time>2023-01-04T12:01:13.089Z</time>
      </trkpt>
      <trkpt lat="43.3958" lon="1.68422">
        <ele>224.698446</ele>
        <time>2023-01-04T12:01:15.082Z</time>
      </trkpt>
      <trkpt lat="43.39575" lon="1.68434">
        <ele>224.881747</ele>
        <time>2023-01-04T12:01:17.090Z</time>
      </trkpt>
      <trkpt lat="43.39572" lon="1.68445">
        <ele>225.055321</ele>
        <time>2023-01-04T12:01:19.084Z</time>
      </trkpt>
      <trkpt lat="43.39571" lon="1.68461">
        <ele>225.267094</ele>
        <time>2023-01-04T12:01:22.080Z</time>
      </trkpt>
      <trkpt lat="43.39573" lon="1.6848">
        <ele>225.531201</ele>
        <time>2023-01-04T12:01:25.067Z</time>
      </trkpt>
      <trkpt lat="43.39572" lon="1.68496">
        <ele>225.761883</ele>
        <time>2023-01-04T12:01:27.086Z</time>
      </trkpt>
      <trkpt lat="43.39573" lon="1.68511">
        <ele>225.969568</ele>
        <time>2023-01-04T12:01:29.088Z</time>
      </trkpt>
      <trkpt lat="43.39574" lon="1.68526">
        <ele>226.174282</ele>
        <time>2023-01-04T12:01:31.080Z</time>
      </trkpt>
      <trkpt lat="43.39576" lon="1.68544">
        <ele>226.431299</ele>
        <time>2023-01-04T12:01:34.090Z</time>
      </trkpt>
      <trkpt lat="43.39579" lon="1.6856">
        <ele>226.663599</ele>
        <time>2023-01-04T12:01:37.082Z</time>
      </trkpt>
      <trkpt lat="43.3958" lon="1.68573">
        <ele>226.839009</ele>
        <time>2023-01-04T12:01:39.077Z</time>
      </trkpt>
      <trkpt lat="43.3958" lon="1.68588">
        <ele>227.041096</ele>
        <time>2023-01-04T12:01:41.068Z</time>
      </trkpt>
      <trkpt lat="43.39581" lon="1.68604">
        <ele>227.272334</ele>
        <time>2023-01-04T12:01:43.080Z</time>
      </trkpt>
      <trkpt lat="43.39578" lon="1.68622">
        <ele>227.521272</ele>
        <time>2023-01-04T12:01:46.088Z</time>
      </trkpt>
      <trkpt lat="43.39576" lon="1.6864">
        <ele>227.779335</ele>
        <time>2023-01-04T12:01:49.090Z</time>
      </trkpt>
      <trkpt lat="43.39575" lon="1.68654">
        <ele>227.79609</ele>
        <time>2023-01-04T12:01:51.089Z</time>
      </trkpt>
      <trkpt lat="43.39574" lon="1.68671">
        <ele>227.697751</ele>
        <time>2023-01-04T12:01:54.086Z</time>
      </trkpt>
      <trkpt lat="43.39573" lon="1.68685">
        <ele>227.617407</ele>
        <time>2023-01-04T12:01:56.078Z</time>
      </trkpt>
      <trkpt lat="43.3957" lon="1.68699">
        <ele>227.527004</ele>
        <time>2023-01-04T12:01:58.080Z</time>
      </trkpt>
      <trkpt lat="43.39568" lon="1.68712">
        <ele>227.448313</ele>
        <time>2023-01-04T12:02:00.077Z</time>
      </trkpt>
      <trkpt lat="43.39564" lon="1.68724">
        <ele>227.37254</ele>
        <time>2023-01-04T12:02:02.081Z</time>
      </trkpt>
      <trkpt lat="43.39563" lon="1.6874">
        <ele>227.279227</ele>
        <time>2023-01-04T12:02:05.089Z</time>
      </trkpt>
      <trkpt lat="43.3956" lon="1.68755">
        <ele>227.182067</ele>
        <time>2023-01-04T12:02:08.087Z</time>
      </trkpt>
      <trkpt lat="43.39553" lon="1.68773">
        <ele>227.065903</ele>
        <time>2023-01-04T12:02:11.081Z</time>
      </trkpt>
      <trkpt lat="43.39548" lon="1.68785">
        <ele>226.980623</ele>
        <time>2023-01-04T12:02:13.082Z</time>
      </trkpt>
      <trkpt lat="43.39541" lon="1.68798">
        <ele>226.886259</ele>
        <time>2023-01-04T12:02:15.080Z</time>
      </trkpt>
      <trkpt lat="43.39534" lon="1.68808">
        <ele>226.802166</ele>
        <time>2023-01-04T12:02:17.080Z</time>
      </trkpt>
      <trkpt lat="43.39526" lon="1.68815">
        <ele>226.722266</ele>
        <time>2023-01-04T12:02:19.080Z</time>
      </trkpt>
      <trkpt lat="43.39517" lon="1.6882">
        <ele>226.643617</ele>
        <time>2023-01-04T12:02:21.090Z</time>
      </trkpt>
      <trkpt lat="43.39505" lon="1.68825">
        <ele>226.542234</ele>
        <time>2023-01-04T12:02:23.086Z</time>
      </trkpt>
      <trkpt lat="43.39495" lon="1.68827">
        <ele>226.465241</ele>
        <time>2023-01-04T12:02:24.085Z</time>
      </trkpt>
      <trkpt lat="43.39484" lon="1.68827">
        <ele>226.385882</ele>
        <time>2023-01-04T12:02:27.066Z</time>
      </trkpt>
      <trkpt lat="43.39472" lon="1.68825">
        <ele>226.402298</ele>
        <time>2023-01-04T12:02:29.090Z</time>
      </trkpt>
      <trkpt lat="43.39461" lon="1.68823">
        <ele>226.416475</ele>
        <time>2023-01-04T12:02:31.092Z</time>
      </trkpt>
      <trkpt lat="43.3945" lon="1.68821">
        <ele>226.431433</ele>
        <time>2023-01-04T12:02:33.078Z</time>
      </trkpt>
      <trkpt lat="43.3944" lon="1.68819">
        <ele>226.445161</ele>
        <time>2023-01-04T12:02:35.069Z</time>
      </trkpt>
      <trkpt lat="43.3943" lon="1.68817">
        <ele>226.458371</ele>
        <time>2023-01-04T12:02:37.060Z</time>
      </trkpt>
      <trkpt lat="43.39419" lon="1.68815">
        <ele>226.474223</ele>
        <time>2023-01-04T12:02:40.068Z</time>
      </trkpt>
      <trkpt lat="43.39408" lon="1.68812">
        <ele>226.489075</ele>
        <time>2023-01-04T12:02:43.087Z</time>
      </trkpt>
      <trkpt lat="43.39397" lon="1.68809">
        <ele>226.503452</ele>
        <time>2023-01-04T12:02:45.078Z</time>
      </trkpt>
      <trkpt lat="43.39386" lon="1.68802">
        <ele>226.519955</ele>
        <time>2023-01-04T12:02:47.079Z</time>
      </trkpt>
      <trkpt lat="43.39376" lon="1.68799">
        <ele>226.533895</ele>
        <time>2023-01-04T12:02:49.086Z</time>
      </trkpt>
      <trkpt lat="43.39365" lon="1.68805">
        <ele>226.549581</ele>
        <time>2023-01-04T12:02:52.072Z</time>
      </trkpt>
      <trkpt lat="43.39361" lon="1.68816">
        <ele>226.561611</ele>
        <time>2023-01-04T12:02:55.092Z</time>
      </trkpt>
      <trkpt lat="43.39356" lon="1.68829">
        <ele>226.575745</ele>
        <time>2023-01-04T12:02:58.082Z</time>
      </trkpt>
      <trkpt lat="43.39352" lon="1.68843">
        <ele>226.59022</ele>
        <time>2023-01-04T12:03:02.077Z</time>
      </trkpt>
      <trkpt lat="43.39347" lon="1.68854">
        <ele>226.602408</ele>
        <time>2023-01-04T12:03:05.086Z</time>
      </trkpt>
      <trkpt lat="43.3934" lon="1.68864">
        <ele>226.616639</ele>
        <time>2023-01-04T12:03:08.090Z</time>
      </trkpt>
      <trkpt lat="43.39333" lon="1.68872">
        <ele>226.58182</ele>
        <time>2023-01-04T12:03:10.083Z</time>
      </trkpt>
      <trkpt lat="43.39328" lon="1.68883">
        <ele>226.46018</ele>
        <time>2023-01-04T12:03:12.090Z</time>
      </trkpt>
      <trkpt lat="43.39322" lon="1.68893">
        <ele>226.338024</ele>
        <time>2023-01-04T12:03:14.082Z</time>
      </trkpt>
      <trkpt lat="43.39316" lon="1.68908">
        <ele>226.171603</ele>
        <time>2023-01-04T12:03:17.089Z</time>
      </trkpt>
      <trkpt lat="43.39308" lon="1.68924">
        <ele>225.990755</ele>
        <time>2023-01-04T12:03:20.078Z</time>
      </trkpt>
      <trkpt lat="43.39304" lon="1.68935">
        <ele>225.872061</ele>
        <time>2023-01-04T12:03:22.092Z</time>
      </trkpt>
      <trkpt lat="43.393" lon="1.68947">
        <ele>225.747944</ele>
        <time>2023-01-04T12:03:24.088Z</time>
      </trkpt>
      <trkpt lat="43.39295" lon="1.68958">
        <ele>225.624541</ele>
        <time>2023-01-04T12:03:26.078Z</time>
      </trkpt>
      <trkpt lat="43.39291" lon="1.6897">
        <ele>225.495157</ele>
        <time>2023-01-04T12:03:28.080Z</time>
      </trkpt>
      <trkpt lat="43.39287" lon="1.68982">
        <ele>225.371864</ele>
        <time>2023-01-04T12:03:30.080Z</time>
      </trkpt>
      <trkpt lat="43.39284" lon="1.68999">
        <ele>225.199907</ele>
        <time>2023-01-04T12:03:33.090Z</time>
      </trkpt>
      <trkpt lat="43.3928" lon="1.69011">
        <ele>225.078886</ele>
        <time>2023-01-04T12:03:35.080Z</time>
      </trkpt>
      <trkpt lat="43.39278" lon="1.69024">
        <ele>224.953478</ele>
        <time>2023-01-04T12:03:37.087Z</time>
      </trkpt>
      <trkpt lat="43.39271" lon="1.69036">
        <ele>224.807288</ele>
        <time>2023-01-04T12:03:39.089Z</time>
      </trkpt>
      <trkpt lat="43.3926" lon="1.69052">
        <ele>224.60187</ele>
        <time>2023-01-04T12:03:42.090Z</time>
      </trkpt>
      <trkpt lat="43.39257" lon="1.69065">
        <ele>224.476248</ele>
        <time>2023-01-04T12:03:44.080Z</time>
      </trkpt>
      <trkpt lat="43.3925" lon="1.69076">
        <ele>224.327281</ele>
        <time>2023-01-04T12:03:46.091Z</time>
      </trkpt>
      <trkpt lat="43.39244" lon="1.69093">
        <ele>224.669071</ele>
        <time>2023-01-04T12:03:49.087Z</time>
      </trkpt>
      <trkpt lat="43.39239" lon="1.69106">
        <ele>225.134946</ele>
        <time>2023-01-04T12:03:53.080Z</time>
      </trkpt>
      <trkpt lat="43.39233" lon="1.69117">
        <ele>225.59231</ele>
        <time>2023-01-04T12:03:56.079Z</time>
      </trkpt>
      <trkpt lat="43.3923" lon="1.6913">
        <ele>226.01432</ele>
        <time>2023-01-04T12:03:59.091Z</time>
      </trkpt>
      <trkpt lat="43.39221" lon="1.69143">
        <ele>226.592039</ele>
        <time>2023-01-04T12:04:02.082Z</time>
      </trkpt>
      <trkpt lat="43.39212" lon="1.69154">
        <ele>227.146008</ele>
        <time>2023-01-04T12:04:05.089Z</time>
      </trkpt>
      <trkpt lat="43.39204" lon="1.69163">
        <ele>227.56851</ele>
        <time>2023-01-04T12:04:08.090Z</time>
      </trkpt>
      <trkpt lat="43.39197" lon="1.6917">
        <ele>227.978919</ele>
        <time>2023-01-04T12:04:12.090Z</time>
      </trkpt>
      <trkpt lat="43.39187" lon="1.69172">
        <ele>228.391952</ele>
        <time>2023-01-04T12:04:21.067Z</time>
      </trkpt>
      <trkpt lat="43.39179" lon="1.69182">
        <ele>228.896652</ele>
        <time>2023-01-04T12:04:43.082Z</time>
      </trkpt>
      <trkpt lat="43.39169" lon="1.69194">
        <ele>229.45921</ele>
        <time>2023-01-04T12:04:47.075Z</time>
      </trkpt>
      <trkpt lat="43.39161" lon="1.69206">
        <ele>230.002474</ele>
        <time>2023-01-04T12:04:50.088Z</time>
      </trkpt>
      <trkpt lat="43.39153" lon="1.69215">
        <ele>230.44287</ele>
        <time>2023-01-04T12:04:52.079Z</time>
      </trkpt>
      <trkpt lat="43.39144" lon="1.69226">
        <ele>230.975483</ele>
        <time>2023-01-04T12:04:55.089Z</time>
      </trkpt>
      <trkpt lat="43.39136" lon="1.69239">
        <ele>231.506747</ele>
        <time>2023-01-04T12:04:58.087Z</time>
      </trkpt>
      <trkpt lat="43.39131" lon="1.6925">
        <ele>231.918426</ele>
        <time>2023-01-04T12:05:00.084Z</time>
      </trkpt>
      <trkpt lat="43.39123" lon="1.69263">
        <ele>232.175228</ele>
        <time>2023-01-04T12:05:03.083Z</time>
      </trkpt>
      <trkpt lat="43.39117" lon="1.69273">
        <ele>232.150203</ele>
        <time>2023-01-04T12:05:06.070Z</time>
      </trkpt>
      <trkpt lat="43.3911" lon="1.69284">
        <ele>232.121057</ele>
        <time>2023-01-04T12:05:10.090Z</time>
      </trkpt>
      <trkpt lat="43.39102" lon="1.69293">
        <ele>232.093827</ele>
        <time>2023-01-04T12:05:14.071Z</time>
      </trkpt>
      <trkpt lat="43.39093" lon="1.69299">
        <ele>232.066384</ele>
        <time>2023-01-04T12:05:17.077Z</time>
      </trkpt>
      <trkpt lat="43.39083" lon="1.69308">
        <ele>232.035043</ele>
        <time>2023-01-04T12:05:20.082Z</time>
      </trkpt>
      <trkpt lat="43.39075" lon="1.69321">
        <ele>232.000832</ele>
        <time>2023-01-04T12:05:22.085Z</time>
      </trkpt>
      <trkpt lat="43.39068" lon="1.69331">
        <ele>231.975396</ele>
        <time>2023-01-04T12:05:24.083Z</time>
      </trkpt>
      <trkpt lat="43.39057" lon="1.69341">
        <ele>231.938532</ele>
        <time>2023-01-04T12:05:27.087Z</time>
      </trkpt>
      <trkpt lat="43.3905" lon="1.69351">
        <ele>231.911973</ele>
        <time>2023-01-04T12:05:29.070Z</time>
      </trkpt>
      <trkpt lat="43.3904" lon="1.69364">
        <ele>231.874675</ele>
        <time>2023-01-04T12:05:32.089Z</time>
      </trkpt>
      <trkpt lat="43.39031" lon="1.69374">
        <ele>231.843501</ele>
        <time>2023-01-04T12:05:34.081Z</time>
      </trkpt>
      <trkpt lat="43.39026" lon="1.69386">
        <ele>231.817565</ele>
        <time>2023-01-04T12:05:37.082Z</time>
      </trkpt>
      <trkpt lat="43.39023" lon="1.69401">
        <ele>231.785862</ele>
        <time>2023-01-04T12:05:41.080Z</time>
      </trkpt>
      <trkpt lat="43.39017" lon="1.69414">
        <ele>231.755642</ele>
        <time>2023-01-04T12:05:44.089Z</time>
      </trkpt>
      <trkpt lat="43.39007" lon="1.69425">
        <ele>231.720746</ele>
        <time>2023-01-04T12:05:47.090Z</time>
      </trkpt>
      <trkpt lat="43.39007" lon="1.69438">
        <ele>231.735388</ele>
        <time>2023-01-04T12:05:49.083Z</time>
      </trkpt>
      <trkpt lat="43.39003" lon="1.69457">
        <ele>231.811946</ele>
        <time>2023-01-04T12:05:52.082Z</time>
      </trkpt>
      <trkpt lat="43.39001" lon="1.69471">
        <ele>231.869756</ele>
        <time>2023-01-04T12:05:55.087Z</time>
      </trkpt>
      <trkpt lat="43.38998" lon="1.69488">
        <ele>231.938147</ele>
        <time>2023-01-04T12:05:58.077Z</time>
      </trkpt>
      <trkpt lat="43.38996" lon="1.69502">
        <ele>231.990118</ele>
        <time>2023-01-04T12:06:00.079Z</time>
      </trkpt>
      <trkpt lat="43.38992" lon="1.69518">
        <ele>232.0601</ele>
        <time>2023-01-04T12:06:02.084Z</time>
      </trkpt>
      <trkpt lat="43.38987" lon="1.69531">
        <ele>232.115367</ele>
        <time>2023-01-04T12:06:04.084Z</time>
      </trkpt>
      <trkpt lat="43.38985" lon="1.69545">
        <ele>232.172163</ele>
        <time>2023-01-04T12:06:06.086Z</time>
      </trkpt>
      <trkpt lat="43.38985" lon="1.69559">
        <ele>232.224137</ele>
        <time>2023-01-04T12:06:08.092Z</time>
      </trkpt>
      <trkpt lat="43.38985" lon="1.69572">
        <ele>232.275781</ele>
        <time>2023-01-04T12:06:10.086Z</time>
      </trkpt>
      <trkpt lat="43.38991" lon="1.69584">
        <ele>232.328844</ele>
        <time>2023-01-04T12:06:12.088Z</time>
      </trkpt>
      <trkpt lat="43.38992" lon="1.69597">
        <ele>232.382355</ele>
        <time>2023-01-04T12:06:14.079Z</time>
      </trkpt>
      <trkpt lat="43.38996" lon="1.69612">
        <ele>232.44442</ele>
        <time>2023-01-04T12:06:17.083Z</time>
      </trkpt>
      <trkpt lat="43.39004" lon="1.69626">
        <ele>232.511556</ele>
        <time>2023-01-04T12:06:20.084Z</time>
      </trkpt>
      <trkpt lat="43.3901" lon="1.69637">
        <ele>232.564572</ele>
        <time>2023-01-04T12:06:22.081Z</time>
      </trkpt>
      <trkpt lat="43.39017" lon="1.69651">
        <ele>232.631428</ele>
        <time>2023-01-04T12:06:25.063Z</time>
      </trkpt>
      <trkpt lat="43.39025" lon="1.69662">
        <ele>232.698871</ele>
        <time>2023-01-04T12:06:27.089Z</time>
      </trkpt>
      <trkpt lat="43.39031" lon="1.69673">
        <ele>232.776738</ele>
        <time>2023-01-04T12:06:29.088Z</time>
      </trkpt>
      <trkpt lat="43.39037" lon="1.69688">
        <ele>232.873641</ele>
        <time>2023-01-04T12:06:31.079Z</time>
      </trkpt>
      <trkpt lat="43.39041" lon="1.69702">
        <ele>232.954517</ele>
        <time>2023-01-04T12:06:33.091Z</time>
      </trkpt>
      <trkpt lat="43.39046" lon="1.69713">
        <ele>233.025492</ele>
        <time>2023-01-04T12:06:35.082Z</time>
      </trkpt>
      <trkpt lat="43.39051" lon="1.69729">
        <ele>233.122046</ele>
        <time>2023-01-04T12:06:37.083Z</time>
      </trkpt>
      <trkpt lat="43.39053" lon="1.69744">
        <ele>233.208582</ele>
        <time>2023-01-04T12:06:39.073Z</time>
      </trkpt>
      <trkpt lat="43.39052" lon="1.69759">
        <ele>233.291587</ele>
        <time>2023-01-04T12:06:41.066Z</time>
      </trkpt>
      <trkpt lat="43.3905" lon="1.69774">
        <ele>233.376776</ele>
        <time>2023-01-04T12:06:43.089Z</time>
      </trkpt>
      <trkpt lat="43.39047" lon="1.69787">
        <ele>233.450608</ele>
        <time>2023-01-04T12:06:45.091Z</time>
      </trkpt>
      <trkpt lat="43.3905" lon="1.69799">
        <ele>233.520806</ele>
        <time>2023-01-04T12:06:47.086Z</time>
      </trkpt>
      <trkpt lat="43.3905" lon="1.69813">
        <ele>233.599414</ele>
        <time>2023-01-04T12:06:49.063Z</time>
      </trkpt>
      <trkpt lat="43.39044" lon="1.69827">
        <ele>233.688068</ele>
        <time>2023-01-04T12:06:51.081Z</time>
      </trkpt>
      <trkpt lat="43.39046" lon="1.69841">
        <ele>233.763991</ele>
        <time>2023-01-04T12:06:53.090Z</time>
      </trkpt>
      <trkpt lat="43.39042" lon="1.69853">
        <ele>233.83702</ele>
        <time>2023-01-04T12:06:55.089Z</time>
      </trkpt>
      <trkpt lat="43.39038" lon="1.69872">
        <ele>233.947241</ele>
        <time>2023-01-04T12:06:57.091Z</time>
      </trkpt>
      <trkpt lat="43.39041" lon="1.69892">
        <ele>233.98435</ele>
        <time>2023-01-04T12:07:00.080Z</time>
      </trkpt>
      <trkpt lat="43.39033" lon="1.69909">
        <ele>233.674435</ele>
        <time>2023-01-04T12:07:02.089Z</time>
      </trkpt>
      <trkpt lat="43.39026" lon="1.69924">
        <ele>233.395293</ele>
        <time>2023-01-04T12:07:04.074Z</time>
      </trkpt>
      <trkpt lat="43.39022" lon="1.69937">
        <ele>233.184743</ele>
        <time>2023-01-04T12:07:06.088Z</time>
      </trkpt>
      <trkpt lat="43.39011" lon="1.69952">
        <ele>232.858488</ele>
        <time>2023-01-04T12:07:08.090Z</time>
      </trkpt>
      <trkpt lat="43.39001" lon="1.69963">
        <ele>232.589468</ele>
        <time>2023-01-04T12:07:10.093Z</time>
      </trkpt>
      <trkpt lat="43.38992" lon="1.69971">
        <ele>232.365565</ele>
        <time>2023-01-04T12:07:12.090Z</time>
      </trkpt>
      <trkpt lat="43.3898" lon="1.69973">
        <ele>232.11188</ele>
        <time>2023-01-04T12:07:15.090Z</time>
      </trkpt>
      <trkpt lat="43.38965" lon="1.69974">
        <ele>231.790546</ele>
        <time>2023-01-04T12:07:18.082Z</time>
      </trkpt>
      <trkpt lat="43.38955" lon="1.69973">
        <ele>231.590587</ele>
        <time>2023-01-04T12:07:20.091Z</time>
      </trkpt>
      <trkpt lat="43.38944" lon="1.69971">
        <ele>231.35544</ele>
        <time>2023-01-04T12:07:22.083Z</time>
      </trkpt>
      <trkpt lat="43.38934" lon="1.6997">
        <ele>231.140456</ele>
        <time>2023-01-04T12:07:24.085Z</time>
      </trkpt>
      <trkpt lat="43.38923" lon="1.69968">
        <ele>230.91515</ele>
        <time>2023-01-04T12:07:26.073Z</time>
      </trkpt>
      <trkpt lat="43.38912" lon="1.69969">
        <ele>230.684272</ele>
        <time>2023-01-04T12:07:28.066Z</time>
      </trkpt>
      <trkpt lat="43.38901" lon="1.69968">
        <ele>230.444709</ele>
        <time>2023-01-04T12:07:31.066Z</time>
      </trkpt>
      <trkpt lat="43.38889" lon="1.69968">
        <ele>230.186409</ele>
        <time>2023-01-04T12:07:34.079Z</time>
      </trkpt>
      <trkpt lat="43.3888" lon="1.6997">
        <ele>229.949121</ele>
        <time>2023-01-04T12:07:36.094Z</time>
      </trkpt>
      <trkpt lat="43.3887" lon="1.69972">
        <ele>229.705177</ele>
        <time>2023-01-04T12:07:38.067Z</time>
      </trkpt>
      <trkpt lat="43.38862" lon="1.69976">
        <ele>229.47719</ele>
        <time>2023-01-04T12:07:40.086Z</time>
      </trkpt>
      <trkpt lat="43.38849" lon="1.69981">
        <ele>229.144367</ele>
        <time>2023-01-04T12:07:43.080Z</time>
      </trkpt>
      <trkpt lat="43.38841" lon="1.69987">
        <ele>228.915481</ele>
        <time>2023-01-04T12:07:45.084Z</time>
      </trkpt>
      <trkpt lat="43.38829" lon="1.69995">
        <ele>228.580637</ele>
        <time>2023-01-04T12:07:48.083Z</time>
      </trkpt>
      <trkpt lat="43.38821" lon="1.70003">
        <ele>228.33584</ele>
        <time>2023-01-04T12:07:50.090Z</time>
      </trkpt>
      <trkpt lat="43.38812" lon="1.70011">
        <ele>228.06514</ele>
        <time>2023-01-04T12:07:52.092Z</time>
      </trkpt>
      <trkpt lat="43.38802" lon="1.70021">
        <ele>227.757955</ele>
        <time>2023-01-04T12:07:54.092Z</time>
      </trkpt>
      <trkpt lat="43.38791" lon="1.70027">
        <ele>227.445622</ele>
        <time>2023-01-04T12:07:57.091Z</time>
      </trkpt>
      <trkpt lat="43.38782" lon="1.7004">
        <ele>227.132759</ele>
        <time>2023-01-04T12:07:59.086Z</time>
      </trkpt>
      <trkpt lat="43.38773" lon="1.70048">
        <ele>226.856996</ele>
        <time>2023-01-04T12:08:01.090Z</time>
      </trkpt>
      <trkpt lat="43.38763" lon="1.70053">
        <ele>226.581165</ele>
        <time>2023-01-04T12:08:03.081Z</time>
      </trkpt>
      <trkpt lat="43.38754" lon="1.7006">
        <ele>226.327943</ele>
        <time>2023-01-04T12:08:05.090Z</time>
      </trkpt>
      <trkpt lat="43.38746" lon="1.70068">
        <ele>226.076954</ele>
        <time>2023-01-04T12:08:07.094Z</time>
      </trkpt>
      <trkpt lat="43.38737" lon="1.70075">
        <ele>225.811084</ele>
        <time>2023-01-04T12:08:09.091Z</time>
      </trkpt>
      <trkpt lat="43.38727" lon="1.70083">
        <ele>225.991279</ele>
        <time>2023-01-04T12:08:11.066Z</time>
      </trkpt>
      <trkpt lat="43.38717" lon="1.70092">
        <ele>226.329839</ele>
        <time>2023-01-04T12:08:13.094Z</time>
      </trkpt>
      <trkpt lat="43.38708" lon="1.70098">
        <ele>226.620342</ele>
        <time>2023-01-04T12:08:15.091Z</time>
      </trkpt>
      <trkpt lat="43.38699" lon="1.70104">
        <ele>226.921963</ele>
        <time>2023-01-04T12:08:17.085Z</time>
      </trkpt>
      <trkpt lat="43.38691" lon="1.70113">
        <ele>227.225036</ele>
        <time>2023-01-04T12:08:19.066Z</time>
      </trkpt>
      <trkpt lat="43.38682" lon="1.70121">
        <ele>227.562301</ele>
        <time>2023-01-04T12:08:21.085Z</time>
      </trkpt>
      <trkpt lat="43.38674" lon="1.70131">
        <ele>227.868166</ele>
        <time>2023-01-04T12:08:23.082Z</time>
      </trkpt>
      <trkpt lat="43.38668" lon="1.7014">
        <ele>228.142829</ele>
        <time>2023-01-04T12:08:25.064Z</time>
      </trkpt>
      <trkpt lat="43.38658" lon="1.70153">
        <ele>228.546607</ele>
        <time>2023-01-04T12:08:27.090Z</time>
      </trkpt>
      <trkpt lat="43.3865" lon="1.70163">
        <ele>228.877305</ele>
        <time>2023-01-04T12:08:29.098Z</time>
      </trkpt>
      <trkpt lat="43.38639" lon="1.70179">
        <ele>229.355433</ele>
        <time>2023-01-04T12:08:32.082Z</time>
      </trkpt>
      <trkpt lat="43.38631" lon="1.70192">
        <ele>229.732554</ele>
        <time>2023-01-04T12:08:35.088Z</time>
      </trkpt>
      <trkpt lat="43.38622" lon="1.70207">
        <ele>230.145448</ele>
        <time>2023-01-04T12:08:38.091Z</time>
      </trkpt>
      <trkpt lat="43.38614" lon="1.70216">
        <ele>230.440171</ele>
        <time>2023-01-04T12:08:40.085Z</time>
      </trkpt>
      <trkpt lat="43.38607" lon="1.70225">
        <ele>230.729956</ele>
        <time>2023-01-04T12:08:41.087Z</time>
      </trkpt>
      <trkpt lat="43.38599" lon="1.70237">
        <ele>231.090723</ele>
        <time>2023-01-04T12:08:43.087Z</time>
      </trkpt>
      <trkpt lat="43.38593" lon="1.70248">
        <ele>231.395024</ele>
        <time>2023-01-04T12:08:45.079Z</time>
      </trkpt>
      <trkpt lat="43.38587" lon="1.70259">
        <ele>231.690476</ele>
        <time>2023-01-04T12:08:47.091Z</time>
      </trkpt>
      <trkpt lat="43.38579" lon="1.7027">
        <ele>232.038643</ele>
        <time>2023-01-04T12:08:49.084Z</time>
      </trkpt>
      <trkpt lat="43.38572" lon="1.70282">
        <ele>232.374898</ele>
        <time>2023-01-04T12:08:51.092Z</time>
      </trkpt>
      <trkpt lat="43.38565" lon="1.70296">
        <ele>232.722104</ele>
        <time>2023-01-04T12:08:53.079Z</time>
      </trkpt>
      <trkpt lat="43.38558" lon="1.70311">
        <ele>233.125723</ele>
        <time>2023-01-04T12:08:56.080Z</time>
      </trkpt>
      <trkpt lat="43.38553" lon="1.70324">
        <ele>233.453628</ele>
        <time>2023-01-04T12:08:58.081Z</time>
      </trkpt>
      <trkpt lat="43.38545" lon="1.70338">
        <ele>233.825263</ele>
        <time>2023-01-04T12:09:00.085Z</time>
      </trkpt>
      <trkpt lat="43.38539" lon="1.70347">
        <ele>234.106531</ele>
        <time>2023-01-04T12:09:02.089Z</time>
      </trkpt>
      <trkpt lat="43.38534" lon="1.70359">
        <ele>234.418141</ele>
        <time>2023-01-04T12:09:04.089Z</time>
      </trkpt>
      <trkpt lat="43.38524" lon="1.7037">
        <ele>234.792741</ele>
        <time>2023-01-04T12:09:06.092Z</time>
      </trkpt>
      <trkpt lat="43.38516" lon="1.70383">
        <ele>235.17225</ele>
        <time>2023-01-04T12:09:08.088Z</time>
      </trkpt>
      <trkpt lat="43.38511" lon="1.70394">
        <ele>235.454737</ele>
        <time>2023-01-04T12:09:10.081Z</time>
      </trkpt>
      <trkpt lat="43.38504" lon="1.70405">
        <ele>235.776153</ele>
        <time>2023-01-04T12:09:13.090Z</time>
      </trkpt>
      <trkpt lat="43.38501" lon="1.7042">
        <ele>236.120626</ele>
        <time>2023-01-04T12:09:15.089Z</time>
      </trkpt>
      <trkpt lat="43.38496" lon="1.70437">
        <ele>236.508725</ele>
        <time>2023-01-04T12:09:17.069Z</time>
      </trkpt>
      <trkpt lat="43.38495" lon="1.70451">
        <ele>236.629042</ele>
        <time>2023-01-04T12:09:19.070Z</time>
      </trkpt>
      <trkpt lat="43.38496" lon="1.7047">
        <ele>236.798672</ele>
        <time>2023-01-04T12:09:22.080Z</time>
      </trkpt>
      <trkpt lat="43.385" lon="1.70488">
        <ele>236.956111</ele>
        <time>2023-01-04T12:09:25.078Z</time>
      </trkpt>
      <trkpt lat="43.38506" lon="1.70502">
        <ele>237.095407</ele>
        <time>2023-01-04T12:09:27.083Z</time>
      </trkpt>
      <trkpt lat="43.3851" lon="1.70515">
        <ele>237.220706</ele>
        <time>2023-01-04T12:09:29.091Z</time>
      </trkpt>
      <trkpt lat="43.38512" lon="1.70529">
        <ele>237.339631</ele>
        <time>2023-01-04T12:09:31.083Z</time>
      </trkpt>
      <trkpt lat="43.38517" lon="1.7054">
        <ele>237.456996</ele>
        <time>2023-01-04T12:09:33.090Z</time>
      </trkpt>
      <trkpt lat="43.38523" lon="1.70554">
        <ele>237.591155</ele>
        <time>2023-01-04T12:09:35.070Z</time>
      </trkpt>
      <trkpt lat="43.38526" lon="1.70573">
        <ele>237.764213</ele>
        <time>2023-01-04T12:09:38.079Z</time>
      </trkpt>
      <trkpt lat="43.3853" lon="1.70586">
        <ele>237.879914</ele>
        <time>2023-01-04T12:09:40.088Z</time>
      </trkpt>
      <trkpt lat="43.38534" lon="1.706">
        <ele>238.009777</ele>
        <time>2023-01-04T12:09:42.082Z</time>
      </trkpt>
      <trkpt lat="43.38538" lon="1.70612">
        <ele>238.126131</ele>
        <time>2023-01-04T12:09:44.089Z</time>
      </trkpt>
      <trkpt lat="43.38542" lon="1.70629">
        <ele>238.288141</ele>
        <time>2023-01-04T12:09:47.088Z</time>
      </trkpt>
      <trkpt lat="43.38549" lon="1.70644">
        <ele>238.442459</ele>
        <time>2023-01-04T12:09:49.090Z</time>
      </trkpt>
      <trkpt lat="43.38555" lon="1.70661">
        <ele>238.600612</ele>
        <time>2023-01-04T12:09:52.095Z</time>
      </trkpt>
      <trkpt lat="43.38558" lon="1.70673">
        <ele>238.728021</ele>
        <time>2023-01-04T12:09:55.084Z</time>
      </trkpt>
      <trkpt lat="43.38563" lon="1.70688">
        <ele>238.906019</ele>
        <time>2023-01-04T12:09:59.091Z</time>
      </trkpt>
      <trkpt lat="43.38568" lon="1.707">
        <ele>239.06341</ele>
        <time>2023-01-04T12:10:02.089Z</time>
      </trkpt>
      <trkpt lat="43.38573" lon="1.70716">
        <ele>239.25203</ele>
        <time>2023-01-04T12:10:05.069Z</time>
      </trkpt>
      <trkpt lat="43.38577" lon="1.70728">
        <ele>239.39655</ele>
        <time>2023-01-04T12:10:07.073Z</time>
      </trkpt>
      <trkpt lat="43.38584" lon="1.70744">
        <ele>239.594772</ele>
        <time>2023-01-04T12:10:09.079Z</time>
      </trkpt>
      <trkpt lat="43.38589" lon="1.70755">
        <ele>239.734584</ele>
        <time>2023-01-04T12:10:11.067Z</time>
      </trkpt>
      <trkpt lat="43.38595" lon="1.7077">
        <ele>239.92979</ele>
        <time>2023-01-04T12:10:14.076Z</time>
      </trkpt>
      <trkpt lat="43.38598" lon="1.70785">
        <ele>240.087592</ele>
        <time>2023-01-04T12:10:18.087Z</time>
      </trkpt>
      <trkpt lat="43.38602" lon="1.70796">
        <ele>240.228247</ele>
        <time>2023-01-04T12:10:25.081Z</time>
      </trkpt>
      <trkpt lat="43.38609" lon="1.70808">
        <ele>240.399888</ele>
        <time>2023-01-04T12:10:48.062Z</time>
      </trkpt>
      <trkpt lat="43.38612" lon="1.70824">
        <ele>240.576752</ele>
        <time>2023-01-04T12:10:51.058Z</time>
      </trkpt>
      <trkpt lat="43.38616" lon="1.70837">
        <ele>240.737035</ele>
        <time>2023-01-04T12:10:55.073Z</time>
      </trkpt>
      <trkpt lat="43.38618" lon="1.7085">
        <ele>240.876208</ele>
        <time>2023-01-04T12:11:00.066Z</time>
      </trkpt>
      <trkpt lat="43.3862" lon="1.70862">
        <ele>241.011101</ele>
        <time>2023-01-04T12:11:05.072Z</time>
      </trkpt>
      <trkpt lat="43.38624" lon="1.70874">
        <ele>241.156018</ele>
        <time>2023-01-04T12:11:10.061Z</time>
      </trkpt>
      <trkpt lat="43.38626" lon="1.70887">
        <ele>241.298342</ele>
        <time>2023-01-04T12:11:15.067Z</time>
      </trkpt>
      <trkpt lat="43.38632" lon="1.70898">
        <ele>241.212842</ele>
        <time>2023-01-04T12:11:21.090Z</time>
      </trkpt>
      <trkpt lat="43.38639" lon="1.70906">
        <ele>241.046329</ele>
        <time>2023-01-04T12:11:27.094Z</time>
      </trkpt>
      <trkpt lat="43.38645" lon="1.70917">
        <ele>240.859349</ele>
        <time>2023-01-04T12:11:33.088Z</time>
      </trkpt>
      <trkpt lat="43.38654" lon="1.70925">
        <ele>240.656303</ele>
        <time>2023-01-04T12:11:40.080Z</time>
      </trkpt>
      <trkpt lat="43.38665" lon="1.70929">
        <ele>240.460743</ele>
        <time>2023-01-04T12:11:44.084Z</time>
      </trkpt>
      <trkpt lat="43.38675" lon="1.70937">
        <ele>240.247016</ele>
        <time>2023-01-04T12:11:47.062Z</time>
      </trkpt>
      <trkpt lat="43.38683" lon="1.70949">
        <ele>240.025412</ele>
        <time>2023-01-04T12:11:50.067Z</time>
      </trkpt>
      <trkpt lat="43.38692" lon="1.70958">
        <ele>239.82251</ele>
        <time>2023-01-04T12:11:53.094Z</time>
      </trkpt>
      <trkpt lat="43.38703" lon="1.70963">
        <ele>239.615344</ele>
        <time>2023-01-04T12:11:56.088Z</time>
      </trkpt>
      <trkpt lat="43.38715" lon="1.70967">
        <ele>239.374211</ele>
        <time>2023-01-04T12:11:59.088Z</time>
      </trkpt>
      <trkpt lat="43.38726" lon="1.7097">
        <ele>239.179002</ele>
        <time>2023-01-04T12:12:03.089Z</time>
      </trkpt>
      <trkpt lat="43.38737" lon="1.70974">
        <ele>238.96113</ele>
        <time>2023-01-04T12:12:06.090Z</time>
      </trkpt>
      <trkpt lat="43.38747" lon="1.70979">
        <ele>238.76958</ele>
        <time>2023-01-04T12:12:09.091Z</time>
      </trkpt>
      <trkpt lat="43.38759" lon="1.70984">
        <ele>238.54504</ele>
        <time>2023-01-04T12:12:12.074Z</time>
      </trkpt>
      <trkpt lat="43.38771" lon="1.70992">
        <ele>238.296612</ele>
        <time>2023-01-04T12:12:15.088Z</time>
      </trkpt>
      <trkpt lat="43.38781" lon="1.70998">
        <ele>238.094566</ele>
        <time>2023-01-04T12:12:17.084Z</time>
      </trkpt>
      <trkpt lat="43.38791" lon="1.71008">
        <ele>237.431985</ele>
        <time>2023-01-04T12:12:19.070Z</time>
      </trkpt>
      <trkpt lat="43.38802" lon="1.71016">
        <ele>236.560367</ele>
        <time>2023-01-04T12:12:21.080Z</time>
      </trkpt>
      <trkpt lat="43.38809" lon="1.71025">
        <ele>235.891596</ele>
        <time>2023-01-04T12:12:23.084Z</time>
      </trkpt>
      <trkpt lat="43.38819" lon="1.71032">
        <ele>235.13214</ele>
        <time>2023-01-04T12:12:25.086Z</time>
      </trkpt>
      <trkpt lat="43.38829" lon="1.71039">
        <ele>234.381019</ele>
        <time>2023-01-04T12:12:29.086Z</time>
      </trkpt>
      <trkpt lat="43.38837" lon="1.71048">
        <ele>233.666448</ele>
        <time>2023-01-04T12:12:33.090Z</time>
      </trkpt>
      <trkpt lat="43.38849" lon="1.71056">
        <ele>232.738168</ele>
        <time>2023-01-04T12:12:36.080Z</time>
      </trkpt>
      <trkpt lat="43.3886" lon="1.71064">
        <ele>231.881672</ele>
        <time>2023-01-04T12:12:38.082Z</time>
      </trkpt>
      <trkpt lat="43.3887" lon="1.71069">
        <ele>231.204914</ele>
        <time>2023-01-04T12:12:40.080Z</time>
      </trkpt>
      <trkpt lat="43.38881" lon="1.71077">
        <ele>230.324173</ele>
        <time>2023-01-04T12:12:42.070Z</time>
      </trkpt>
      <trkpt lat="43.38891" lon="1.71081">
        <ele>229.641803</ele>
        <time>2023-01-04T12:12:44.086Z</time>
      </trkpt>
      <trkpt lat="43.38903" lon="1.71088">
        <ele>228.723845</ele>
        <time>2023-01-04T12:12:45.080Z</time>
      </trkpt>
      <trkpt lat="43.38913" lon="1.71093">
        <ele>228.046373</ele>
        <time>2023-01-04T12:12:47.089Z</time>
      </trkpt>
      <trkpt lat="43.38921" lon="1.71097">
        <ele>227.431322</ele>
        <time>2023-01-04T12:12:50.079Z</time>
      </trkpt>
      <trkpt lat="43.38935" lon="1.71104">
        <ele>226.406861</ele>
        <time>2023-01-04T12:12:52.090Z</time>
      </trkpt>
      <trkpt lat="43.38944" lon="1.71108">
        <ele>225.793913</ele>
        <time>2023-01-04T12:12:55.090Z</time>
      </trkpt>
      <trkpt lat="43.38952" lon="1.71114">
        <ele>225.77644</ele>
        <time>2023-01-04T12:13:00.086Z</time>
      </trkpt>
      <trkpt lat="43.38962" lon="1.71116">
        <ele>225.78913</ele>
        <time>2023-01-04T12:13:04.077Z</time>
      </trkpt>
      <trkpt lat="43.38975" lon="1.71121">
        <ele>225.807288</ele>
        <time>2023-01-04T12:13:08.066Z</time>
      </trkpt>
      <trkpt lat="43.38983" lon="1.71129">
        <ele>225.819435</ele>
        <time>2023-01-04T12:13:10.070Z</time>
      </trkpt>
      <trkpt lat="43.38983" lon="1.71142">
        <ele>225.831406</ele>
        <time>2023-01-04T12:13:15.073Z</time>
      </trkpt>
      <trkpt lat="43.38978" lon="1.71153">
        <ele>225.843689</ele>
        <time>2023-01-04T12:13:20.070Z</time>
      </trkpt>
      <trkpt lat="43.38973" lon="1.71166">
        <ele>225.857487</ele>
        <time>2023-01-04T12:13:25.066Z</time>
      </trkpt>
      <trkpt lat="43.38981" lon="1.71175">
        <ele>225.870917</ele>
        <time>2023-01-04T12:13:30.069Z</time>
      </trkpt>
      <trkpt lat="43.38991" lon="1.71182">
        <ele>225.885714</ele>
        <time>2023-01-04T12:13:34.063Z</time>
      </trkpt>
      <trkpt lat="43.38999" lon="1.71189">
        <ele>225.8979</ele>
        <time>2023-01-04T12:13:37.059Z</time>
      </trkpt>
      <trkpt lat="43.39006" lon="1.71197">
        <ele>225.909903</ele>
        <time>2023-01-04T12:13:40.065Z</time>
      </trkpt>
      <trkpt lat="43.39015" lon="1.71205">
        <ele>225.922994</ele>
        <time>2023-01-04T12:13:43.072Z</time>
      </trkpt>
      <trkpt lat="43.39025" lon="1.71215">
        <ele>225.939557</ele>
        <time>2023-01-04T12:13:46.067Z</time>
      </trkpt>
      <trkpt lat="43.39035" lon="1.71223">
        <ele>225.954335</ele>
        <time>2023-01-04T12:13:49.071Z</time>
      </trkpt>
      <trkpt lat="43.39043" lon="1.71232">
        <ele>225.967815</ele>
        <time>2023-01-04T12:13:52.096Z</time>
      </trkpt>
      <trkpt lat="43.3905" lon="1.71242">
        <ele>225.981453</ele>
        <time>2023-01-04T12:13:55.062Z</time>
      </trkpt>
      <trkpt lat="43.39056" lon="1.71254">
        <ele>225.994736</ele>
        <time>2023-01-04T12:13:58.074Z</time>
      </trkpt>
      <trkpt lat="43.39063" lon="1.71264">
        <ele>226.290359</ele>
        <time>2023-01-04T12:14:01.063Z</time>
      </trkpt>
      <trkpt lat="43.39071" lon="1.71273">
        <ele>226.722948</ele>
        <time>2023-01-04T12:14:06.091Z</time>
      </trkpt>
      <trkpt lat="43.3908" lon="1.71287">
        <ele>227.255008</ele>
        <time>2023-01-04T12:14:12.087Z</time>
      </trkpt>
      <trkpt lat="43.39093" lon="1.713">
        <ele>227.922472</ele>
        <time>2023-01-04T12:14:14.083Z</time>
      </trkpt>
      <trkpt lat="43.39093" lon="1.71313">
        <ele>228.302304</ele>
        <time>2023-01-04T12:14:16.069Z</time>
      </trkpt>
      <trkpt lat="43.39093" lon="1.71331">
        <ele>228.834813</ele>
        <time>2023-01-04T12:14:19.083Z</time>
      </trkpt>
      <trkpt lat="43.39095" lon="1.71348">
        <ele>229.327829</ele>
        <time>2023-01-04T12:14:22.082Z</time>
      </trkpt>
      <trkpt lat="43.39093" lon="1.71362">
        <ele>229.732631</ele>
        <time>2023-01-04T12:14:24.083Z</time>
      </trkpt>
      <trkpt lat="43.39092" lon="1.71378">
        <ele>230.204753</ele>
        <time>2023-01-04T12:14:27.091Z</time>
      </trkpt>
      <trkpt lat="43.3909" lon="1.71395">
        <ele>230.725236</ele>
        <time>2023-01-04T12:14:30.080Z</time>
      </trkpt>
      <trkpt lat="43.39086" lon="1.71408">
        <ele>231.132339</ele>
        <time>2023-01-04T12:14:32.072Z</time>
      </trkpt>
      <trkpt lat="43.39085" lon="1.71426">
        <ele>231.667075</ele>
        <time>2023-01-04T12:14:35.081Z</time>
      </trkpt>
      <trkpt lat="43.39082" lon="1.71439">
        <ele>232.06044</ele>
        <time>2023-01-04T12:14:37.088Z</time>
      </trkpt>
      <trkpt lat="43.39079" lon="1.71452">
        <ele>232.462211</ele>
        <time>2023-01-04T12:14:40.068Z</time>
      </trkpt>
      <trkpt lat="43.39078" lon="1.71475">
        <ele>233.134014</ele>
        <time>2023-01-04T12:14:43.068Z</time>
      </trkpt>
      <trkpt lat="43.39075" lon="1.71489">
        <ele>233.182739</ele>
        <time>2023-01-04T12:14:46.089Z</time>
      </trkpt>
      <trkpt lat="43.39071" lon="1.71508">
        <ele>233.095678</ele>
        <time>2023-01-04T12:14:49.096Z</time>
      </trkpt>
      <trkpt lat="43.39067" lon="1.71519">
        <ele>233.040099</ele>
        <time>2023-01-04T12:14:51.083Z</time>
      </trkpt>
      <trkpt lat="43.39064" lon="1.71535">
        <ele>232.971175</ele>
        <time>2023-01-04T12:14:53.083Z</time>
      </trkpt>
      <trkpt lat="43.39063" lon="1.71548">
        <ele>232.914442</ele>
        <time>2023-01-04T12:14:55.079Z</time>
      </trkpt>
      <trkpt lat="43.39061" lon="1.71566">
        <ele>232.833697</ele>
        <time>2023-01-04T12:14:58.090Z</time>
      </trkpt>
      <trkpt lat="43.39058" lon="1.71578">
        <ele>232.779701</ele>
        <time>2023-01-04T12:15:00.083Z</time>
      </trkpt>
      <trkpt lat="43.39056" lon="1.71596">
        <ele>232.698315</ele>
        <time>2023-01-04T12:15:03.087Z</time>
      </trkpt>
      <trkpt lat="43.39054" lon="1.71611">
        <ele>232.630447</ele>
        <time>2023-01-04T12:15:05.091Z</time>
      </trkpt>
      <trkpt lat="43.3905" lon="1.71627">
        <ele>232.559417</ele>
        <time>2023-01-04T12:15:07.080Z</time>
      </trkpt>
      <trkpt lat="43.39048" lon="1.7164">
        <ele>232.499113</ele>
        <time>2023-01-04T12:15:09.090Z</time>
      </trkpt>
      <trkpt lat="43.39047" lon="1.71652">
        <ele>232.444787</ele>
        <time>2023-01-04T12:15:11.089Z</time>
      </trkpt>
      <trkpt lat="43.39044" lon="1.71669">
        <ele>232.371041</ele>
        <time>2023-01-04T12:15:13.088Z</time>
      </trkpt>
      <trkpt lat="43.39042" lon="1.71682">
        <ele>232.310861</ele>
        <time>2023-01-04T12:15:15.089Z</time>
      </trkpt>
      <trkpt lat="43.3904" lon="1.71699">
        <ele>232.234853</ele>
        <time>2023-01-04T12:15:17.086Z</time>
      </trkpt>
      <trkpt lat="43.39038" lon="1.71716">
        <ele>232.162866</ele>
        <time>2023-01-04T12:15:19.091Z</time>
      </trkpt>
      <trkpt lat="43.39038" lon="1.7173">
        <ele>231.596191</ele>
        <time>2023-01-04T12:15:22.085Z</time>
      </trkpt>
      <trkpt lat="43.39038" lon="1.71745">
        <ele>230.835845</ele>
        <time>2023-01-04T12:15:24.084Z</time>
      </trkpt>
      <trkpt lat="43.39037" lon="1.71759">
        <ele>230.138218</ele>
        <time>2023-01-04T12:15:26.092Z</time>
      </trkpt>
      <trkpt lat="43.39035" lon="1.71772">
        <ele>229.487074</ele>
        <time>2023-01-04T12:15:28.088Z</time>
      </trkpt>
      <trkpt lat="43.39034" lon="1.71786">
        <ele>228.787716</ele>
        <time>2023-01-04T12:15:31.066Z</time>
      </trkpt>
      <trkpt lat="43.39033" lon="1.71801">
        <ele>228.056605</ele>
        <time>2023-01-04T12:15:34.092Z</time>
      </trkpt>
      <trkpt lat="43.3903" lon="1.71821">
        <ele>227.072968</ele>
        <time>2023-01-04T12:15:37.091Z</time>
      </trkpt>
      <trkpt lat="43.39026" lon="1.71838">
        <ele>226.169191</ele>
        <time>2023-01-04T12:15:40.091Z</time>
      </trkpt>
      <trkpt lat="43.39022" lon="1.71853">
        <ele>225.358957</ele>
        <time>2023-01-04T12:15:42.092Z</time>
      </trkpt>
      <trkpt lat="43.39017" lon="1.71869">
        <ele>224.534075</ele>
        <time>2023-01-04T12:15:44.093Z</time>
      </trkpt>
      <trkpt lat="43.39012" lon="1.71884">
        <ele>223.722218</ele>
        <time>2023-01-04T12:15:47.088Z</time>
      </trkpt>
      <trkpt lat="43.39007" lon="1.71897">
        <ele>222.959563</ele>
        <time>2023-01-04T12:15:49.090Z</time>
      </trkpt>
      <trkpt lat="43.39" lon="1.71911">
        <ele>222.139891</ele>
        <time>2023-01-04T12:15:51.092Z</time>
      </trkpt>
      <trkpt lat="43.38993" lon="1.71924">
        <ele>221.342876</ele>
        <time>2023-01-04T12:15:53.094Z</time>
      </trkpt>
      <trkpt lat="43.38987" lon="1.71937">
        <ele>220.599389</ele>
        <time>2023-01-04T12:15:55.082Z</time>
      </trkpt>
      <trkpt lat="43.38978" lon="1.71948">
        <ele>220.017479</ele>
        <time>2023-01-04T12:15:58.081Z</time>
      </trkpt>
      <trkpt lat="43.3897" lon="1.71956">
        <ele>220.451169</ele>
        <time>2023-01-04T12:16:00.081Z</time>
      </trkpt>
      <trkpt lat="43.38959" lon="1.71967">
        <ele>221.054793</ele>
        <time>2023-01-04T12:16:03.085Z</time>
      </trkpt>
      <trkpt lat="43.38949" lon="1.71974">
        <ele>221.554419</ele>
        <time>2023-01-04T12:16:05.074Z</time>
      </trkpt>
      <trkpt lat="43.3894" lon="1.71979">
        <ele>221.971663</ele>
        <time>2023-01-04T12:16:07.069Z</time>
      </trkpt>
      <trkpt lat="43.38931" lon="1.71984">
        <ele>222.420031</ele>
        <time>2023-01-04T12:16:09.083Z</time>
      </trkpt>
      <trkpt lat="43.38922" lon="1.71991">
        <ele>222.856535</ele>
        <time>2023-01-04T12:16:11.089Z</time>
      </trkpt>
      <trkpt lat="43.38911" lon="1.71995">
        <ele>223.360718</ele>
        <time>2023-01-04T12:16:13.086Z</time>
      </trkpt>
      <trkpt lat="43.38902" lon="1.72001">
        <ele>223.813953</ele>
        <time>2023-01-04T12:16:15.074Z</time>
      </trkpt>
      <trkpt lat="43.38893" lon="1.72005">
        <ele>224.212364</ele>
        <time>2023-01-04T12:16:17.095Z</time>
      </trkpt>
      <trkpt lat="43.38883" lon="1.72009">
        <ele>224.679278</ele>
        <time>2023-01-04T12:16:19.088Z</time>
      </trkpt>
      <trkpt lat="43.38873" lon="1.72012">
        <ele>225.108044</ele>
        <time>2023-01-04T12:16:21.069Z</time>
      </trkpt>
      <trkpt lat="43.38862" lon="1.72015">
        <ele>225.610481</ele>
        <time>2023-01-04T12:16:23.083Z</time>
      </trkpt>
      <trkpt lat="43.38852" lon="1.72019">
        <ele>226.073901</ele>
        <time>2023-01-04T12:16:25.084Z</time>
      </trkpt>
      <trkpt lat="43.38841" lon="1.7202">
        <ele>226.548826</ele>
        <time>2023-01-04T12:16:27.086Z</time>
      </trkpt>
      <trkpt lat="43.38827" lon="1.72023">
        <ele>227.179856</ele>
        <time>2023-01-04T12:16:30.088Z</time>
      </trkpt>
      <trkpt lat="43.38816" lon="1.72026">
        <ele>227.668791</ele>
        <time>2023-01-04T12:16:32.083Z</time>
      </trkpt>
      <trkpt lat="43.38806" lon="1.72026">
        <ele>227.779748</ele>
        <time>2023-01-04T12:16:34.083Z</time>
      </trkpt>
      <trkpt lat="43.38797" lon="1.72027">
        <ele>227.725937</ele>
        <time>2023-01-04T12:16:36.092Z</time>
      </trkpt>
      <trkpt lat="43.38788" lon="1.72027">
        <ele>227.671617</ele>
        <time>2023-01-04T12:16:38.078Z</time>
      </trkpt>
      <trkpt lat="43.38779" lon="1.7203">
        <ele>227.618757</ele>
        <time>2023-01-04T12:16:40.091Z</time>
      </trkpt>
      <trkpt lat="43.38767" lon="1.72035">
        <ele>227.545505</ele>
        <time>2023-01-04T12:16:43.089Z</time>
      </trkpt>
      <trkpt lat="43.38757" lon="1.72038">
        <ele>227.485862</ele>
        <time>2023-01-04T12:16:45.072Z</time>
      </trkpt>
      <trkpt lat="43.38745" lon="1.72042">
        <ele>227.413363</ele>
        <time>2023-01-04T12:16:48.081Z</time>
      </trkpt>
      <trkpt lat="43.38736" lon="1.72044">
        <ele>227.358785</ele>
        <time>2023-01-04T12:16:50.084Z</time>
      </trkpt>
      <trkpt lat="43.38725" lon="1.72048">
        <ele>227.28811</ele>
        <time>2023-01-04T12:16:53.069Z</time>
      </trkpt>
      <trkpt lat="43.38713" lon="1.72054">
        <ele>227.214978</ele>
        <time>2023-01-04T12:16:56.085Z</time>
      </trkpt>
      <trkpt lat="43.38703" lon="1.72063">
        <ele>227.145333</ele>
        <time>2023-01-04T12:16:59.088Z</time>
      </trkpt>
      <trkpt lat="43.38693" lon="1.72071">
        <ele>227.075014</ele>
        <time>2023-01-04T12:17:02.090Z</time>
      </trkpt>
      <trkpt lat="43.38683" lon="1.72082">
        <ele>227.003438</ele>
        <time>2023-01-04T12:17:05.084Z</time>
      </trkpt>
      <trkpt lat="43.38673" lon="1.72093">
        <ele>226.923705</ele>
        <time>2023-01-04T12:17:08.087Z</time>
      </trkpt>
      <trkpt lat="43.38666" lon="1.72106">
        <ele>226.8557</ele>
        <time>2023-01-04T12:17:11.090Z</time>
      </trkpt>
      <trkpt lat="43.38657" lon="1.72121">
        <ele>226.775163</ele>
        <time>2023-01-04T12:17:14.083Z</time>
      </trkpt>
      <trkpt lat="43.38648" lon="1.72135">
        <ele>226.594996</ele>
        <time>2023-01-04T12:17:17.089Z</time>
      </trkpt>
      <trkpt lat="43.38641" lon="1.72149">
        <ele>226.410871</ele>
        <time>2023-01-04T12:17:20.084Z</time>
      </trkpt>
      <trkpt lat="43.38635" lon="1.7216">
        <ele>226.255386</ele>
        <time>2023-01-04T12:17:22.068Z</time>
      </trkpt>
      <trkpt lat="43.38628" lon="1.72173">
        <ele>226.081068</ele>
        <time>2023-01-04T12:17:24.089Z</time>
      </trkpt>
      <trkpt lat="43.38621" lon="1.72187">
        <ele>225.881787</ele>
        <time>2023-01-04T12:17:27.083Z</time>
      </trkpt>
      <trkpt lat="43.38615" lon="1.72198">
        <ele>225.734156</ele>
        <time>2023-01-04T12:17:29.083Z</time>
      </trkpt>
      <trkpt lat="43.38607" lon="1.72211">
        <ele>225.546447</ele>
        <time>2023-01-04T12:17:32.080Z</time>
      </trkpt>
      <trkpt lat="43.38599" lon="1.72223">
        <ele>225.366952</ele>
        <time>2023-01-04T12:17:34.085Z</time>
      </trkpt>
      <trkpt lat="43.38591" lon="1.72235">
        <ele>225.187916</ele>
        <time>2023-01-04T12:17:36.062Z</time>
      </trkpt>
      <trkpt lat="43.38584" lon="1.72248">
        <ele>225.007396</ele>
        <time>2023-01-04T12:17:38.086Z</time>
      </trkpt>
      <trkpt lat="43.38576" lon="1.7226">
        <ele>224.836893</ele>
        <time>2023-01-04T12:17:40.078Z</time>
      </trkpt>
      <trkpt lat="43.38569" lon="1.72273">
        <ele>224.644744</ele>
        <time>2023-01-04T12:17:43.068Z</time>
      </trkpt>
      <trkpt lat="43.38561" lon="1.72285">
        <ele>224.473854</ele>
        <time>2023-01-04T12:17:45.089Z</time>
      </trkpt>
      <trkpt lat="43.38555" lon="1.72299">
        <ele>224.284719</ele>
        <time>2023-01-04T12:17:48.081Z</time>
      </trkpt>
      <trkpt lat="43.38551" lon="1.72311">
        <ele>224.145533</ele>
        <time>2023-01-04T12:17:50.071Z</time>
      </trkpt>
      <trkpt lat="43.38543" lon="1.72321">
        <ele>224.060762</ele>
        <time>2023-01-04T12:17:52.091Z</time>
      </trkpt>
      <trkpt lat="43.38537" lon="1.72331">
        <ele>224.206084</ele>
        <time>2023-01-04T12:17:54.072Z</time>
      </trkpt>
      <trkpt lat="43.38528" lon="1.72347">
        <ele>224.433844</ele>
        <time>2023-01-04T12:17:57.085Z</time>
      </trkpt>
      <trkpt lat="43.3852" lon="1.72361">
        <ele>224.634861</ele>
        <time>2023-01-04T12:17:59.081Z</time>
      </trkpt>
      <trkpt lat="43.38513" lon="1.72372">
        <ele>224.801875</ele>
        <time>2023-01-04T12:18:01.089Z</time>
      </trkpt>
      <trkpt lat="43.38507" lon="1.72385">
        <ele>224.978849</ele>
        <time>2023-01-04T12:18:04.090Z</time>
      </trkpt>
      <trkpt lat="43.38499" lon="1.72399">
        <ele>225.169241</ele>
        <time>2023-01-04T12:18:07.083Z</time>
      </trkpt>
      <trkpt lat="43.38493" lon="1.72409">
        <ele>225.317094</ele>
        <time>2023-01-04T12:18:09.090Z</time>
      </trkpt>
      <trkpt lat="43.38487" lon="1.72421">
        <ele>225.478598</ele>
        <time>2023-01-04T12:18:11.087Z</time>
      </trkpt>
      <trkpt lat="43.38481" lon="1.72433">
        <ele>225.645403</ele>
        <time>2023-01-04T12:18:14.081Z</time>
      </trkpt>
      <trkpt lat="43.38474" lon="1.72448">
        <ele>225.84499</ele>
        <time>2023-01-04T12:18:17.079Z</time>
      </trkpt>
      <trkpt lat="43.38467" lon="1.72463">
        <ele>226.042719</ele>
        <time>2023-01-04T12:18:20.088Z</time>
      </trkpt>
      <trkpt lat="43.38462" lon="1.72474">
        <ele>226.188845</ele>
        <time>2023-01-04T12:18:22.089Z</time>
      </trkpt>
      <trkpt lat="43.38455" lon="1.72489">
        <ele>226.384395</ele>
        <time>2023-01-04T12:18:25.080Z</time>
      </trkpt>
      <trkpt lat="43.38449" lon="1.72503">
        <ele>226.56925</ele>
        <time>2023-01-04T12:18:27.072Z</time>
      </trkpt>
      <trkpt lat="43.38445" lon="1.72515">
        <ele>226.718876</ele>
        <time>2023-01-04T12:18:29.065Z</time>
      </trkpt>
      <trkpt lat="43.3844" lon="1.7253">
        <ele>226.811853</ele>
        <time>2023-01-04T12:18:31.089Z</time>
      </trkpt>
      <trkpt lat="43.38435" lon="1.72543">
        <ele>226.835193</ele>
        <time>2023-01-04T12:18:34.080Z</time>
      </trkpt>
      <trkpt lat="43.3843" lon="1.72554">
        <ele>226.855774</ele>
        <time>2023-01-04T12:18:37.094Z</time>
      </trkpt>
      <trkpt lat="43.38422" lon="1.7257">
        <ele>226.885278</ele>
        <time>2023-01-04T12:18:41.089Z</time>
      </trkpt>
      <trkpt lat="43.38415" lon="1.72586">
        <ele>226.914896</ele>
        <time>2023-01-04T12:18:44.093Z</time>
      </trkpt>
      <trkpt lat="43.3841" lon="1.72599">
        <ele>226.937126</ele>
        <time>2023-01-04T12:18:47.091Z</time>
      </trkpt>
      <trkpt lat="43.38404" lon="1.72613">
        <ele>226.963886</ele>
        <time>2023-01-04T12:18:50.068Z</time>
      </trkpt>
      <trkpt lat="43.38396" lon="1.72626">
        <ele>226.990158</ele>
        <time>2023-01-04T12:18:53.089Z</time>
      </trkpt>
      <trkpt lat="43.38388" lon="1.72637">
        <ele>227.0155</ele>
        <time>2023-01-04T12:18:56.086Z</time>
      </trkpt>
      <trkpt lat="43.38378" lon="1.7265">
        <ele>227.04467</ele>
        <time>2023-01-04T12:18:58.083Z</time>
      </trkpt>
      <trkpt lat="43.38373" lon="1.72662">
        <ele>227.066244</ele>
        <time>2023-01-04T12:19:00.078Z</time>
      </trkpt>
      <trkpt lat="43.3837" lon="1.72674">
        <ele>227.086965</ele>
        <time>2023-01-04T12:19:03.086Z</time>
      </trkpt>
      <trkpt lat="43.38364" lon="1.72686">
        <ele>227.110703</ele>
        <time>2023-01-04T12:19:06.089Z</time>
      </trkpt>
      <trkpt lat="43.38358" lon="1.72699">
        <ele>227.133833</ele>
        <time>2023-01-04T12:19:09.078Z</time>
      </trkpt>
      <trkpt lat="43.38354" lon="1.72711">
        <ele>227.155893</ele>
        <time>2023-01-04T12:19:12.079Z</time>
      </trkpt>
      <trkpt lat="43.38349" lon="1.72726">
        <ele>227.181313</ele>
        <time>2023-01-04T12:19:15.080Z</time>
      </trkpt>
      <trkpt lat="43.38344" lon="1.72738">
        <ele>227.054999</ele>
        <time>2023-01-04T12:19:18.083Z</time>
      </trkpt>
      <trkpt lat="43.38337" lon="1.7275">
        <ele>226.862243</ele>
        <time>2023-01-04T12:19:21.087Z</time>
      </trkpt>
      <trkpt lat="43.38331" lon="1.72761">
        <ele>226.698604</ele>
        <time>2023-01-04T12:19:25.088Z</time>
      </trkpt>
      <trkpt lat="43.38323" lon="1.72767">
        <ele>226.545355</ele>
        <time>2023-01-04T12:19:29.088Z</time>
      </trkpt>
      <trkpt lat="43.38317" lon="1.72776">
        <ele>226.384061</ele>
        <time>2023-01-04T12:19:33.085Z</time>
      </trkpt>
      <trkpt lat="43.38309" lon="1.72788">
        <ele>226.190663</ele>
        <time>2023-01-04T12:19:38.079Z</time>
      </trkpt>
      <trkpt lat="43.38302" lon="1.72798">
        <ele>226.010061</ele>
        <time>2023-01-04T12:19:41.089Z</time>
      </trkpt>
      <trkpt lat="43.38294" lon="1.7281">
        <ele>225.808262</ele>
        <time>2023-01-04T12:19:44.083Z</time>
      </trkpt>
      <trkpt lat="43.38288" lon="1.72823">
        <ele>225.615678</ele>
        <time>2023-01-04T12:19:47.073Z</time>
      </trkpt>
      <trkpt lat="43.38284" lon="1.72835">
        <ele>225.461176</ele>
        <time>2023-01-04T12:19:50.087Z</time>
      </trkpt>
      <trkpt lat="43.38279" lon="1.72847">
        <ele>225.280041</ele>
        <time>2023-01-04T12:19:55.085Z</time>
      </trkpt>
      <trkpt lat="43.3827" lon="1.72854">
        <ele>225.105134</ele>
        <time>2023-01-04T12:19:58.080Z</time>
      </trkpt>
      <trkpt lat="43.38263" lon="1.72863">
        <ele>224.939081</ele>
        <time>2023-01-04T12:20:01.074Z</time>
      </trkpt>
      <trkpt lat="43.3826" lon="1.72877">
        <ele>224.753033</ele>
        <time>2023-01-04T12:20:06.083Z</time>
      </trkpt>
      <trkpt lat="43.38252" lon="1.72888">
        <ele>224.564701</ele>
        <time>2023-01-04T12:20:10.088Z</time>
      </trkpt>
      <trkpt lat="43.38247" lon="1.729">
        <ele>224.402484</ele>
        <time>2023-01-04T12:20:14.089Z</time>
      </trkpt>
      <trkpt lat="43.38243" lon="1.72912">
        <ele>224.227901</ele>
        <time>2023-01-04T12:20:17.078Z</time>
      </trkpt>
      <trkpt lat="43.38237" lon="1.72923">
        <ele>224.067202</ele>
        <time>2023-01-04T12:20:20.088Z</time>
      </trkpt>
      <trkpt lat="43.38231" lon="1.72933">
        <ele>223.898264</ele>
        <time>2023-01-04T12:20:23.080Z</time>
      </trkpt>
      <trkpt lat="43.38223" lon="1.72944">
        <ele>223.71052</ele>
        <time>2023-01-04T12:20:25.068Z</time>
      </trkpt>
      <trkpt lat="43.38217" lon="1.72956">
        <ele>223.521411</ele>
        <time>2023-01-04T12:20:27.090Z</time>
      </trkpt>
      <trkpt lat="43.38212" lon="1.72968">
        <ele>223.355112</ele>
        <time>2023-01-04T12:20:29.072Z</time>
      </trkpt>
      <trkpt lat="43.38204" lon="1.7298">
        <ele>223.152299</ele>
        <time>2023-01-04T12:20:31.079Z</time>
      </trkpt>
      <trkpt lat="43.38196" lon="1.72993">
        <ele>222.942273</ele>
        <time>2023-01-04T12:20:34.091Z</time>
      </trkpt>
      <trkpt lat="43.38191" lon="1.73009">
        <ele>222.728688</ele>
        <time>2023-01-04T12:20:37.083Z</time>
      </trkpt>
      <trkpt lat="43.38185" lon="1.73025">
        <ele>222.508443</ele>
        <time>2023-01-04T12:20:40.083Z</time>
      </trkpt>
      <trkpt lat="43.38181" lon="1.73038">
        <ele>222.327157</ele>
        <time>2023-01-04T12:20:43.089Z</time>
      </trkpt>
      <trkpt lat="43.38174" lon="1.7305">
        <ele>222.137146</ele>
        <time>2023-01-04T12:20:45.088Z</time>
      </trkpt>
      <trkpt lat="43.38169" lon="1.7306">
        <ele>221.983274</ele>
        <time>2023-01-04T12:20:46.089Z</time>
      </trkpt>
      <trkpt lat="43.38162" lon="1.73073">
        <ele>221.78328</ele>
        <time>2023-01-04T12:20:48.070Z</time>
      </trkpt>
      <trkpt lat="43.38159" lon="1.73089">
        <ele>221.585214</ele>
        <time>2023-01-04T12:20:50.088Z</time>
      </trkpt>
      <trkpt lat="43.3815" lon="1.73105">
        <ele>221.32694</ele>
        <time>2023-01-04T12:20:53.082Z</time>
      </trkpt>
      <trkpt lat="43.38145" lon="1.73117">
        <ele>221.154865</ele>
        <time>2023-01-04T12:20:55.084Z</time>
      </trkpt>
      <trkpt lat="43.38141" lon="1.73129">
        <ele>221.047391</ele>
        <time>2023-01-04T12:20:57.089Z</time>
      </trkpt>
      <trkpt lat="43.38136" lon="1.73148">
        <ele>221.079251</ele>
        <time>2023-01-04T12:21:00.082Z</time>
      </trkpt>
      <trkpt lat="43.38133" lon="1.73161">
        <ele>221.101391</ele>
        <time>2023-01-04T12:21:02.092Z</time>
      </trkpt>
      <trkpt lat="43.38129" lon="1.73172">
        <ele>221.12227</ele>
        <time>2023-01-04T12:21:04.091Z</time>
      </trkpt>
      <trkpt lat="43.38124" lon="1.73184">
        <ele>221.144053</ele>
        <time>2023-01-04T12:21:07.093Z</time>
      </trkpt>
      <trkpt lat="43.38122" lon="1.73196">
        <ele>221.163974</ele>
        <time>2023-01-04T12:21:10.068Z</time>
      </trkpt>
      <trkpt lat="43.38118" lon="1.73213">
        <ele>221.192631</ele>
        <time>2023-01-04T12:21:12.089Z</time>
      </trkpt>
      <trkpt lat="43.38114" lon="1.73228">
        <ele>221.21818</ele>
        <time>2023-01-04T12:21:14.090Z</time>
      </trkpt>
      <trkpt lat="43.38112" lon="1.7324">
        <ele>221.238824</ele>
        <time>2023-01-04T12:21:16.081Z</time>
      </trkpt>
      <trkpt lat="43.38109" lon="1.73254">
        <ele>221.262124</ele>
        <time>2023-01-04T12:21:18.081Z</time>
      </trkpt>
      <trkpt lat="43.38106" lon="1.73267">
        <ele>221.284368</ele>
        <time>2023-01-04T12:21:20.091Z</time>
      </trkpt>
      <trkpt lat="43.38104" lon="1.73283">
        <ele>221.309377</ele>
        <time>2023-01-04T12:21:22.093Z</time>
      </trkpt>
      <trkpt lat="43.38102" lon="1.73295">
        <ele>221.330333</ele>
        <time>2023-01-04T12:21:24.089Z</time>
      </trkpt>
      <trkpt lat="43.38098" lon="1.7331">
        <ele>221.355653</ele>
        <time>2023-01-04T12:21:26.088Z</time>
      </trkpt>
      <trkpt lat="43.38097" lon="1.73325">
        <ele>221.380369</ele>
        <time>2023-01-04T12:21:28.090Z</time>
      </trkpt>
      <trkpt lat="43.38093" lon="1.7334">
        <ele>221.4066</ele>
        <time>2023-01-04T12:21:30.089Z</time>
      </trkpt>
      <trkpt lat="43.38089" lon="1.73359">
        <ele>221.436969</ele>
        <time>2023-01-04T12:21:33.095Z</time>
      </trkpt>
      <trkpt lat="43.38086" lon="1.73373">
        <ele>221.624702</ele>
        <time>2023-01-04T12:21:35.087Z</time>
      </trkpt>
      <trkpt lat="43.38082" lon="1.73391">
        <ele>221.907503</ele>
        <time>2023-01-04T12:21:38.079Z</time>
      </trkpt>
      <trkpt lat="43.38078" lon="1.73404">
        <ele>222.125645</ele>
        <time>2023-01-04T12:21:40.090Z</time>
      </trkpt>
      <trkpt lat="43.3807" lon="1.73417">
        <ele>222.37234</ele>
        <time>2023-01-04T12:21:43.084Z</time>
      </trkpt>
      <trkpt lat="43.38064" lon="1.73428">
        <ele>222.576489</ele>
        <time>2023-01-04T12:21:45.094Z</time>
      </trkpt>
      <trkpt lat="43.38059" lon="1.73443">
        <ele>222.82592</ele>
        <time>2023-01-04T12:21:47.092Z</time>
      </trkpt>
      <trkpt lat="43.38055" lon="1.73456">
        <ele>223.035834</ele>
        <time>2023-01-04T12:21:49.074Z</time>
      </trkpt>
      <trkpt lat="43.38049" lon="1.73468">
        <ele>223.254403</ele>
        <time>2023-01-04T12:21:51.086Z</time>
      </trkpt>
      <trkpt lat="43.38043" lon="1.73478">
        <ele>223.44521</ele>
        <time>2023-01-04T12:21:53.090Z</time>
      </trkpt>
      <trkpt lat="43.38038" lon="1.73494">
        <ele>223.707689</ele>
        <time>2023-01-04T12:21:56.080Z</time>
      </trkpt>
      <trkpt lat="43.38031" lon="1.73508">
        <ele>223.962172</ele>
        <time>2023-01-04T12:21:59.096Z</time>
      </trkpt>
      <trkpt lat="43.38025" lon="1.73526">
        <ele>224.258605</ele>
        <time>2023-01-04T12:22:02.082Z</time>
      </trkpt>
      <trkpt lat="43.38019" lon="1.73542">
        <ele>224.522805</ele>
        <time>2023-01-04T12:22:04.081Z</time>
      </trkpt>
      <trkpt lat="43.38012" lon="1.73558">
        <ele>224.80203</ele>
        <time>2023-01-04T12:22:07.094Z</time>
      </trkpt>
      <trkpt lat="43.38007" lon="1.73574">
        <ele>225.067563</ele>
        <time>2023-01-04T12:22:09.097Z</time>
      </trkpt>
      <trkpt lat="43.38001" lon="1.73591">
        <ele>225.141634</ele>
        <time>2023-01-04T12:22:11.077Z</time>
      </trkpt>
      <trkpt lat="43.37994" lon="1.73606">
        <ele>225.151516</ele>
        <time>2023-01-04T12:22:13.089Z</time>
      </trkpt>
      <trkpt lat="43.37989" lon="1.73622">
        <ele>225.161506</ele>
        <time>2023-01-04T12:22:15.067Z</time>
      </trkpt>
      <trkpt lat="43.37984" lon="1.73638">
        <ele>225.170684</ele>
        <time>2023-01-04T12:22:17.091Z</time>
      </trkpt>
      <trkpt lat="43.37978" lon="1.73652">
        <ele>225.179805</ele>
        <time>2023-01-04T12:22:19.087Z</time>
      </trkpt>
      <trkpt lat="43.37969" lon="1.73669">
        <ele>225.191318</ele>
        <time>2023-01-04T12:22:22.089Z</time>
      </trkpt>
      <trkpt lat="43.37963" lon="1.73685">
        <ele>225.201462</ele>
        <time>2023-01-04T12:22:25.091Z</time>
      </trkpt>
      <trkpt lat="43.37958" lon="1.73699">
        <ele>225.209855</ele>
        <time>2023-01-04T12:22:28.091Z</time>
      </trkpt>
      <trkpt lat="43.37955" lon="1.73712">
        <ele>225.217013</ele>
        <time>2023-01-04T12:22:30.091Z</time>
      </trkpt>
      <trkpt lat="43.37951" lon="1.73724">
        <ele>225.224136</ele>
        <time>2023-01-04T12:22:34.093Z</time>
      </trkpt>
      <trkpt lat="43.37946" lon="1.73736">
        <ele>225.231832</ele>
        <time>2023-01-04T12:22:37.081Z</time>
      </trkpt>
      <trkpt lat="43.3794" lon="1.73751">
        <ele>225.24158</ele>
        <time>2023-01-04T12:22:40.087Z</time>
      </trkpt>
      <trkpt lat="43.37937" lon="1.73771">
        <ele>225.252635</ele>
        <time>2023-01-04T12:22:43.082Z</time>
      </trkpt>
      <trkpt lat="43.37933" lon="1.73782">
        <ele>225.259493</ele>
        <time>2023-01-04T12:22:46.068Z</time>
      </trkpt>
      <trkpt lat="43.37926" lon="1.73796">
        <ele>225.26883</ele>
        <time>2023-01-04T12:22:49.091Z</time>
      </trkpt>
      <trkpt lat="43.37919" lon="1.7381">
        <ele>225.064052</ele>
        <time>2023-01-04T12:22:52.095Z</time>
      </trkpt>
      <trkpt lat="43.37913" lon="1.73826">
        <ele>224.799845</ele>
        <time>2023-01-04T12:22:55.090Z</time>
      </trkpt>
      <trkpt lat="43.37908" lon="1.73836">
        <ele>224.613263</ele>
        <time>2023-01-04T12:22:57.088Z</time>
      </trkpt>
      <trkpt lat="43.37902" lon="1.73848">
        <ele>224.407744</ele>
        <time>2023-01-04T12:22:59.092Z</time>
      </trkpt>
      <trkpt lat="43.37897" lon="1.73859">
        <ele>224.212315</ele>
        <time>2023-01-04T12:23:01.091Z</time>
      </trkpt>
      <trkpt lat="43.37892" lon="1.7387">
        <ele>224.029388</ele>
        <time>2023-01-04T12:23:03.082Z</time>
      </trkpt>
      <trkpt lat="43.37884" lon="1.73883">
        <ele>223.78083</ele>
        <time>2023-01-04T12:23:06.095Z</time>
      </trkpt>
      <trkpt lat="43.37877" lon="1.73896">
        <ele>223.537217</ele>
        <time>2023-01-04T12:23:09.090Z</time>
      </trkpt>
      <trkpt lat="43.3787" lon="1.73904">
        <ele>223.355581</ele>
        <time>2023-01-04T12:23:11.066Z</time>
      </trkpt>
      <trkpt lat="43.37863" lon="1.73913">
        <ele>223.166487</ele>
        <time>2023-01-04T12:23:13.090Z</time>
      </trkpt>
      <trkpt lat="43.37857" lon="1.73922">
        <ele>222.983258</ele>
        <time>2023-01-04T12:23:15.090Z</time>
      </trkpt>
      <trkpt lat="43.3785" lon="1.73931">
        <ele>222.784774</ele>
        <time>2023-01-04T12:23:17.080Z</time>
      </trkpt>
      <trkpt lat="43.37841" lon="1.73943">
        <ele>222.526739</ele>
        <time>2023-01-04T12:23:20.089Z</time>
      </trkpt>
      <trkpt lat="43.37834" lon="1.73951">
        <ele>222.343906</ele>
        <time>2023-01-04T12:23:22.094Z</time>
      </trkpt>
      <trkpt lat="43.37826" lon="1.73962">
        <ele>222.126776</ele>
        <time>2023-01-04T12:23:24.090Z</time>
      </trkpt>
      <trkpt lat="43.37819" lon="1.7397">
        <ele>221.939203</ele>
        <time>2023-01-04T12:23:26.090Z</time>
      </trkpt>
      <trkpt lat="43.37809" lon="1.73981">
        <ele>221.68996</ele>
        <time>2023-01-04T12:23:29.072Z</time>
      </trkpt>
      <trkpt lat="43.378" lon="1.7399">
        <ele>221.500662</ele>
        <time>2023-01-04T12:23:32.093Z</time>
      </trkpt>
      <trkpt lat="43.37791" lon="1.74003">
        <ele>221.295362</ele>
        <time>2023-01-04T12:23:35.083Z</time>
      </trkpt>
      <trkpt lat="43.37782" lon="1.74013">
        <ele>221.102629</ele>
        <time>2023-01-04T12:23:38.076Z</time>
      </trkpt>
      <trkpt lat="43.37774" lon="1.74021">
        <ele>220.95592</ele>
        <time>2023-01-04T12:23:40.072Z</time>
      </trkpt>
      <trkpt lat="43.37766" lon="1.74026">
        <ele>220.809054</ele>
        <time>2023-01-04T12:23:42.065Z</time>
      </trkpt>
      <trkpt lat="43.37755" lon="1.74036">
        <ele>220.605865</ele>
        <time>2023-01-04T12:23:45.092Z</time>
      </trkpt>
      <trkpt lat="43.37747" lon="1.74045">
        <ele>220.440297</ele>
        <time>2023-01-04T12:23:47.090Z</time>
      </trkpt>
      <trkpt lat="43.37736" lon="1.74055">
        <ele>220.235433</ele>
        <time>2023-01-04T12:23:50.094Z</time>
      </trkpt>
      <trkpt lat="43.37728" lon="1.74064">
        <ele>220.077746</ele>
        <time>2023-01-04T12:23:52.093Z</time>
      </trkpt>
      <trkpt lat="43.3772" lon="1.74072">
        <ele>219.915653</ele>
        <time>2023-01-04T12:23:54.090Z</time>
      </trkpt>
      <trkpt lat="43.37709" lon="1.74082">
        <ele>219.713223</ele>
        <time>2023-01-04T12:23:57.087Z</time>
      </trkpt>
      <trkpt lat="43.37702" lon="1.7409">
        <ele>219.571215</ele>
        <time>2023-01-04T12:23:59.068Z</time>
      </trkpt>
      <trkpt lat="43.37694" lon="1.74099">
        <ele>219.403111</ele>
        <time>2023-01-04T12:24:01.087Z</time>
      </trkpt>
      <trkpt lat="43.37687" lon="1.7411">
        <ele>219.247079</ele>
        <time>2023-01-04T12:24:03.080Z</time>
      </trkpt>
      <trkpt lat="43.37677" lon="1.74121">
        <ele>219.042575</ele>
        <time>2023-01-04T12:24:06.090Z</time>
      </trkpt>
      <trkpt lat="43.37672" lon="1.74131">
        <ele>218.896942</ele>
        <time>2023-01-04T12:24:08.081Z</time>
      </trkpt>
      <trkpt lat="43.37667" lon="1.74147">
        <ele>218.741255</ele>
        <time>2023-01-04T12:24:12.083Z</time>
      </trkpt>
      <trkpt lat="43.37663" lon="1.74162">
        <ele>218.637696</ele>
        <time>2023-01-04T12:24:14.090Z</time>
      </trkpt>
      <trkpt lat="43.37657" lon="1.74173">
        <ele>218.543391</ele>
        <time>2023-01-04T12:24:16.090Z</time>
      </trkpt>
      <trkpt lat="43.37651" lon="1.74186">
        <ele>218.435842</ele>
        <time>2023-01-04T12:24:19.066Z</time>
      </trkpt>
      <trkpt lat="43.37646" lon="1.74199">
        <ele>218.337633</ele>
        <time>2023-01-04T12:24:22.094Z</time>
      </trkpt>
      <trkpt lat="43.37642" lon="1.74213">
        <ele>218.23524</ele>
        <time>2023-01-04T12:24:24.090Z</time>
      </trkpt>
      <trkpt lat="43.37637" lon="1.74228">
        <ele>218.122147</ele>
        <time>2023-01-04T12:24:26.082Z</time>
      </trkpt>
      <trkpt lat="43.37632" lon="1.74244">
        <ele>218.005176</ele>
        <time>2023-01-04T12:24:28.093Z</time>
      </trkpt>
      <trkpt lat="43.37629" lon="1.74256">
        <ele>217.918736</ele>
        <time>2023-01-04T12:24:31.091Z</time>
      </trkpt>
      <trkpt lat="43.37624" lon="1.74269">
        <ele>217.824547</ele>
        <time>2023-01-04T12:24:34.092Z</time>
      </trkpt>
      <trkpt lat="43.3762" lon="1.74279">
        <ele>217.740541</ele>
        <time>2023-01-04T12:24:36.086Z</time>
      </trkpt>
      <trkpt lat="43.37612" lon="1.74297">
        <ele>217.602467</ele>
        <time>2023-01-04T12:24:39.094Z</time>
      </trkpt>
      <trkpt lat="43.37608" lon="1.7431">
        <ele>217.505793</ele>
        <time>2023-01-04T12:24:41.070Z</time>
      </trkpt>
      <trkpt lat="43.37604" lon="1.74326">
        <ele>217.389207</ele>
        <time>2023-01-04T12:24:44.081Z</time>
      </trkpt>
      <trkpt lat="43.376" lon="1.74341">
        <ele>217.27984</ele>
        <time>2023-01-04T12:24:46.094Z</time>
      </trkpt>
      <trkpt lat="43.37597" lon="1.74359">
        <ele>217.152397</ele>
        <time>2023-01-04T12:24:48.090Z</time>
      </trkpt>
      <trkpt lat="43.37593" lon="1.74372">
        <ele>217.095488</ele>
        <time>2023-01-04T12:24:50.085Z</time>
      </trkpt>
      <trkpt lat="43.37588" lon="1.74384">
        <ele>217.049176</ele>
        <time>2023-01-04T12:24:52.070Z</time>
      </trkpt>
      <trkpt lat="43.37584" lon="1.74398">
        <ele>217.000197</ele>
        <time>2023-01-04T12:24:54.091Z</time>
      </trkpt>
      <trkpt lat="43.3758" lon="1.74416">
        <ele>216.935674</ele>
        <time>2023-01-04T12:24:56.086Z</time>
      </trkpt>
      <trkpt lat="43.37579" lon="1.74431">
        <ele>216.883473</ele>
        <time>2023-01-04T12:24:58.086Z</time>
      </trkpt>
      <trkpt lat="43.37577" lon="1.74448">
        <ele>216.826279</ele>
        <time>2023-01-04T12:25:00.090Z</time>
      </trkpt>
      <trkpt lat="43.37572" lon="1.74461">
        <ele>216.77789</ele>
        <time>2023-01-04T12:25:03.092Z</time>
      </trkpt>
      <trkpt lat="43.37567" lon="1.74477">
        <ele>216.718976</ele>
        <time>2023-01-04T12:25:06.087Z</time>
      </trkpt>
      <trkpt lat="43.3756" lon="1.74495">
        <ele>216.649792</ele>
        <time>2023-01-04T12:25:09.091Z</time>
      </trkpt>
      <trkpt lat="43.37554" lon="1.7451">
        <ele>216.593851</ele>
        <time>2023-01-04T12:25:11.087Z</time>
      </trkpt>
      <trkpt lat="43.37549" lon="1.74523">
        <ele>216.544825</ele>
        <time>2023-01-04T12:25:13.094Z</time>
      </trkpt>
      <trkpt lat="43.37545" lon="1.74538">
        <ele>216.491446</ele>
        <time>2023-01-04T12:25:16.079Z</time>
      </trkpt>
      <trkpt lat="43.37542" lon="1.74551">
        <ele>216.444871</ele>
        <time>2023-01-04T12:25:18.091Z</time>
      </trkpt>
      <trkpt lat="43.37536" lon="1.74567">
        <ele>216.384085</ele>
        <time>2023-01-04T12:25:20.094Z</time>
      </trkpt>
      <trkpt lat="43.3753" lon="1.74583">
        <ele>216.325229</ele>
        <time>2023-01-04T12:25:22.090Z</time>
      </trkpt>
      <trkpt lat="43.37522" lon="1.74601">
        <ele>216.45485</ele>
        <time>2023-01-04T12:25:25.075Z</time>
      </trkpt>
      <trkpt lat="43.37516" lon="1.74619">
        <ele>216.68344</ele>
        <time>2023-01-04T12:25:28.091Z</time>
      </trkpt>
      <trkpt lat="43.3751" lon="1.74632">
        <ele>216.857384</ele>
        <time>2023-01-04T12:25:30.091Z</time>
      </trkpt>
      <trkpt lat="43.37505" lon="1.74648">
        <ele>217.05711</ele>
        <time>2023-01-04T12:25:33.090Z</time>
      </trkpt>
      <trkpt lat="43.37501" lon="1.74661">
        <ele>217.217097</ele>
        <time>2023-01-04T12:25:35.092Z</time>
      </trkpt>
      <trkpt lat="43.37496" lon="1.74674">
        <ele>217.38201</ele>
        <time>2023-01-04T12:25:37.083Z</time>
      </trkpt>
      <trkpt lat="43.37492" lon="1.74687">
        <ele>217.540944</ele>
        <time>2023-01-04T12:25:40.085Z</time>
      </trkpt>
      <trkpt lat="43.37486" lon="1.74703">
        <ele>217.746448</ele>
        <time>2023-01-04T12:25:43.070Z</time>
      </trkpt>
      <trkpt lat="43.37481" lon="1.74717">
        <ele>217.92149</ele>
        <time>2023-01-04T12:25:46.090Z</time>
      </trkpt>
      <trkpt lat="43.37476" lon="1.74728">
        <ele>218.080584</ele>
        <time>2023-01-04T12:25:48.091Z</time>
      </trkpt>
      <trkpt lat="43.37469" lon="1.74741">
        <ele>218.260755</ele>
        <time>2023-01-04T12:25:50.084Z</time>
      </trkpt>
      <trkpt lat="43.37463" lon="1.74753">
        <ele>218.422875</ele>
        <time>2023-01-04T12:25:52.098Z</time>
      </trkpt>
      <trkpt lat="43.37456" lon="1.74765">
        <ele>218.597781</ele>
        <time>2023-01-04T12:25:54.079Z</time>
      </trkpt>
      <trkpt lat="43.37448" lon="1.74777">
        <ele>218.78349</ele>
        <time>2023-01-04T12:25:57.099Z</time>
      </trkpt>
      <trkpt lat="43.3744" lon="1.74788">
        <ele>218.967723</ele>
        <time>2023-01-04T12:25:59.092Z</time>
      </trkpt>
      <trkpt lat="43.37431" lon="1.74798">
        <ele>219.129797</ele>
        <time>2023-01-04T12:26:01.083Z</time>
      </trkpt>
      <trkpt lat="43.37425" lon="1.7481">
        <ele>219.180533</ele>
        <time>2023-01-04T12:26:03.088Z</time>
      </trkpt>
      <trkpt lat="43.37418" lon="1.74821">
        <ele>219.228695</ele>
        <time>2023-01-04T12:26:05.087Z</time>
      </trkpt>
      <trkpt lat="43.37412" lon="1.74832">
        <ele>219.27584</ele>
        <time>2023-01-04T12:26:07.091Z</time>
      </trkpt>
      <trkpt lat="43.37401" lon="1.74844">
        <ele>219.341605</ele>
        <time>2023-01-04T12:26:09.082Z</time>
      </trkpt>
      <trkpt lat="43.37395" lon="1.74854">
        <ele>219.385512</ele>
        <time>2023-01-04T12:26:11.080Z</time>
      </trkpt>
      <trkpt lat="43.37388" lon="1.74864">
        <ele>219.435484</ele>
        <time>2023-01-04T12:26:13.089Z</time>
      </trkpt>
      <trkpt lat="43.37381" lon="1.74873">
        <ele>219.480849</ele>
        <time>2023-01-04T12:26:15.090Z</time>
      </trkpt>
      <trkpt lat="43.37373" lon="1.74884">
        <ele>219.532199</ele>
        <time>2023-01-04T12:26:17.090Z</time>
      </trkpt>
      <trkpt lat="43.37366" lon="1.74896">
        <ele>219.584013</ele>
        <time>2023-01-04T12:26:20.067Z</time>
      </trkpt>
      <trkpt lat="43.3736" lon="1.74906">
        <ele>219.626053</ele>
        <time>2023-01-04T12:26:22.090Z</time>
      </trkpt>
      <trkpt lat="43.37354" lon="1.74922">
        <ele>219.687664</ele>
        <time>2023-01-04T12:26:25.086Z</time>
      </trkpt>
      <trkpt lat="43.37346" lon="1.7493">
        <ele>219.735108</ele>
        <time>2023-01-04T12:26:27.085Z</time>
      </trkpt>
      <trkpt lat="43.37337" lon="1.74941">
        <ele>219.792063</ele>
        <time>2023-01-04T12:26:30.093Z</time>
      </trkpt>
      <trkpt lat="43.37329" lon="1.74951">
        <ele>219.842189</ele>
        <time>2023-01-04T12:26:33.087Z</time>
      </trkpt>
      <trkpt lat="43.37322" lon="1.74962">
        <ele>219.89097</ele>
        <time>2023-01-04T12:26:35.095Z</time>
      </trkpt>
      <trkpt lat="43.37316" lon="1.74972">
        <ele>219.935467</ele>
        <time>2023-01-04T12:26:37.089Z</time>
      </trkpt>
      <trkpt lat="43.37311" lon="1.74985">
        <ele>219.873156</ele>
        <time>2023-01-04T12:26:39.091Z</time>
      </trkpt>
      <trkpt lat="43.373" lon="1.74996">
        <ele>219.623143</ele>
        <time>2023-01-04T12:26:41.087Z</time>
      </trkpt>
      <trkpt lat="43.37293" lon="1.75007">
        <ele>219.426354</ele>
        <time>2023-01-04T12:26:43.089Z</time>
      </trkpt>
      <trkpt lat="43.37286" lon="1.75021">
        <ele>219.19637</ele>
        <time>2023-01-04T12:26:46.091Z</time>
      </trkpt>
      <trkpt lat="43.37276" lon="1.75035">
        <ele>218.926777</ele>
        <time>2023-01-04T12:26:49.069Z</time>
      </trkpt>
      <trkpt lat="43.37269" lon="1.75048">
        <ele>218.721696</ele>
        <time>2023-01-04T12:26:51.082Z</time>
      </trkpt>
      <trkpt lat="43.37264" lon="1.75058">
        <ele>218.548407</ele>
        <time>2023-01-04T12:26:53.086Z</time>
      </trkpt>
      <trkpt lat="43.37256" lon="1.75073">
        <ele>218.302111</ele>
        <time>2023-01-04T12:26:56.084Z</time>
      </trkpt>
      <trkpt lat="43.37249" lon="1.75084">
        <ele>218.102584</ele>
        <time>2023-01-04T12:26:59.078Z</time>
      </trkpt>
      <trkpt lat="43.37245" lon="1.75098">
        <ele>217.90722</ele>
        <time>2023-01-04T12:27:01.086Z</time>
      </trkpt>
      <trkpt lat="43.37239" lon="1.75107">
        <ele>217.739453</ele>
        <time>2023-01-04T12:27:02.057Z</time>
      </trkpt>
      <trkpt lat="43.37236" lon="1.7512">
        <ele>217.55139</ele>
        <time>2023-01-04T12:27:04.088Z</time>
      </trkpt>
      <trkpt lat="43.37229" lon="1.75131">
        <ele>217.354927</ele>
        <time>2023-01-04T12:27:06.090Z</time>
      </trkpt>
      <trkpt lat="43.37223" lon="1.75152">
        <ele>217.056308</ele>
        <time>2023-01-04T12:27:08.087Z</time>
      </trkpt>
      <trkpt lat="43.37219" lon="1.75166">
        <ele>216.851796</ele>
        <time>2023-01-04T12:27:10.091Z</time>
      </trkpt>
      <trkpt lat="43.37213" lon="1.75176">
        <ele>216.679525</ele>
        <time>2023-01-04T12:27:12.093Z</time>
      </trkpt>
      <trkpt lat="43.37211" lon="1.75192">
        <ele>216.587295</ele>
        <time>2023-01-04T12:27:14.066Z</time>
      </trkpt>
      <trkpt lat="43.37205" lon="1.75205">
        <ele>216.539564</ele>
        <time>2023-01-04T12:27:16.090Z</time>
      </trkpt>
      <trkpt lat="43.37204" lon="1.7522">
        <ele>216.49125</ele>
        <time>2023-01-04T12:27:18.080Z</time>
      </trkpt>
      <trkpt lat="43.37201" lon="1.75233">
        <ele>216.444702</ele>
        <time>2023-01-04T12:27:20.090Z</time>
      </trkpt>
      <trkpt lat="43.37196" lon="1.75248">
        <ele>216.389954</ele>
        <time>2023-01-04T12:27:23.091Z</time>
      </trkpt>
      <trkpt lat="43.3719" lon="1.75265">
        <ele>216.330237</ele>
        <time>2023-01-04T12:27:26.094Z</time>
      </trkpt>
      <trkpt lat="43.37183" lon="1.7528">
        <ele>216.273849</ele>
        <time>2023-01-04T12:27:29.081Z</time>
      </trkpt>
      <trkpt lat="43.37178" lon="1.75296">
        <ele>216.216991</ele>
        <time>2023-01-04T12:27:31.092Z</time>
      </trkpt>
      <trkpt lat="43.37173" lon="1.75308">
        <ele>216.173008</ele>
        <time>2023-01-04T12:27:33.091Z</time>
      </trkpt>
      <trkpt lat="43.37167" lon="1.75323">
        <ele>216.117334</ele>
        <time>2023-01-04T12:27:35.086Z</time>
      </trkpt>
      <trkpt lat="43.37161" lon="1.75334">
        <ele>216.072402</ele>
        <time>2023-01-04T12:27:37.084Z</time>
      </trkpt>
      <trkpt lat="43.37157" lon="1.75345">
        <ele>216.030907</ele>
        <time>2023-01-04T12:27:39.066Z</time>
      </trkpt>
      <trkpt lat="43.37151" lon="1.75358">
        <ele>215.980898</ele>
        <time>2023-01-04T12:27:41.084Z</time>
      </trkpt>
      <trkpt lat="43.37144" lon="1.75369">
        <ele>215.934087</ele>
        <time>2023-01-04T12:27:43.092Z</time>
      </trkpt>
      <trkpt lat="43.37138" lon="1.7538">
        <ele>215.88732</ele>
        <time>2023-01-04T12:27:45.090Z</time>
      </trkpt>
      <trkpt lat="43.37128" lon="1.75395">
        <ele>215.829765</ele>
        <time>2023-01-04T12:27:48.087Z</time>
      </trkpt>
      <trkpt lat="43.3712" lon="1.75404">
        <ele>216.384237</ele>
        <time>2023-01-04T12:27:50.082Z</time>
      </trkpt>
      <trkpt lat="43.37111" lon="1.75415">
        <ele>217.075845</ele>
        <time>2023-01-04T12:27:53.083Z</time>
      </trkpt>
      <trkpt lat="43.37101" lon="1.75424">
        <ele>217.685134</ele>
        <time>2023-01-04T12:27:56.092Z</time>
      </trkpt>
      <trkpt lat="43.37094" lon="1.75436">
        <ele>218.276735</ele>
        <time>2023-01-04T12:27:59.069Z</time>
      </trkpt>
      <trkpt lat="43.37087" lon="1.75447">
        <ele>218.838176</ele>
        <time>2023-01-04T12:28:02.083Z</time>
      </trkpt>
      <trkpt lat="43.37079" lon="1.75454">
        <ele>219.361752</ele>
        <time>2023-01-04T12:28:04.090Z</time>
      </trkpt>
      <trkpt lat="43.37069" lon="1.75462">
        <ele>219.9625</ele>
        <time>2023-01-04T12:28:06.093Z</time>
      </trkpt>
      <trkpt lat="43.3706" lon="1.75467">
        <ele>220.490057</ele>
        <time>2023-01-04T12:28:08.090Z</time>
      </trkpt>
      <trkpt lat="43.37049" lon="1.75477">
        <ele>221.194505</ele>
        <time>2023-01-04T12:28:11.090Z</time>
      </trkpt>
      <trkpt lat="43.37039" lon="1.75489">
        <ele>221.890233</ele>
        <time>2023-01-04T12:28:14.093Z</time>
      </trkpt>
      <trkpt lat="43.37029" lon="1.75497">
        <ele>222.521648</ele>
        <time>2023-01-04T12:28:17.077Z</time>
      </trkpt>
      <trkpt lat="43.37019" lon="1.75508">
        <ele>223.224405</ele>
        <time>2023-01-04T12:28:20.069Z</time>
      </trkpt>
      <trkpt lat="43.3701" lon="1.75517">
        <ele>223.8004</ele>
        <time>2023-01-04T12:28:23.090Z</time>
      </trkpt>
      <trkpt lat="43.37002" lon="1.75523">
        <ele>224.306711</ele>
        <time>2023-01-04T12:28:25.065Z</time>
      </trkpt>
      <trkpt lat="43.36992" lon="1.75534">
        <ele>224.958895</ele>
        <time>2023-01-04T12:28:28.092Z</time>
      </trkpt>
      <trkpt lat="43.36985" lon="1.75542">
        <ele>225.471993</ele>
        <time>2023-01-04T12:28:31.071Z</time>
      </trkpt>
      <trkpt lat="43.36977" lon="1.75552">
        <ele>225.851701</ele>
        <time>2023-01-04T12:28:34.065Z</time>
      </trkpt>
      <trkpt lat="43.36966" lon="1.75561">
        <ele>226.286656</ele>
        <time>2023-01-04T12:28:37.087Z</time>
      </trkpt>
      <trkpt lat="43.36958" lon="1.75571">
        <ele>226.669499</ele>
        <time>2023-01-04T12:28:40.076Z</time>
      </trkpt>
      <trkpt lat="43.36948" lon="1.75579">
        <ele>227.075207</ele>
        <time>2023-01-04T12:28:43.070Z</time>
      </trkpt>
      <trkpt lat="43.3694" lon="1.75586">
        <ele>227.395432</ele>
        <time>2023-01-04T12:28:45.089Z</time>
      </trkpt>
      <trkpt lat="43.36929" lon="1.75594">
        <ele>227.832834</ele>
        <time>2023-01-04T12:28:48.091Z</time>
      </trkpt>
      <trkpt lat="43.3692" lon="1.75604">
        <ele>228.229283</ele>
        <time>2023-01-04T12:28:52.082Z</time>
      </trkpt>
      <trkpt lat="43.3691" lon="1.7561">
        <ele>228.60056</ele>
        <time>2023-01-04T12:28:55.086Z</time>
      </trkpt>
      <trkpt lat="43.36898" lon="1.75617">
        <ele>229.055994</ele>
        <time>2023-01-04T12:28:58.069Z</time>
      </trkpt>
      <trkpt lat="43.36888" lon="1.75626">
        <ele>229.477831</ele>
        <time>2023-01-04T12:29:01.090Z</time>
      </trkpt>
      <trkpt lat="43.36877" lon="1.75635">
        <ele>229.915488</ele>
        <time>2023-01-04T12:29:04.090Z</time>
      </trkpt>
      <trkpt lat="43.36869" lon="1.75643">
        <ele>230.272586</ele>
        <time>2023-01-04T12:29:07.070Z</time>
      </trkpt>
      <trkpt lat="43.36861" lon="1.7565">
        <ele>230.596858</ele>
        <time>2023-01-04T12:29:10.084Z</time>
      </trkpt>
      <trkpt lat="43.36853" lon="1.75661">
        <ele>231.00011</ele>
        <time>2023-01-04T12:29:14.092Z</time>
      </trkpt>
      <trkpt lat="43.36847" lon="1.7567">
        <ele>231.315554</ele>
        <time>2023-01-04T12:29:18.093Z</time>
      </trkpt>
      <trkpt lat="43.3684" lon="1.7568">
        <ele>231.649925</ele>
        <time>2023-01-04T12:29:25.069Z</time>
      </trkpt>
      <trkpt lat="43.36834" lon="1.7569">
        <ele>231.559574</ele>
        <time>2023-01-04T12:29:41.089Z</time>
      </trkpt>
      <trkpt lat="43.3683" lon="1.75701">
        <ele>231.353501</ele>
        <time>2023-01-04T12:29:45.092Z</time>
      </trkpt>
      <trkpt lat="43.3682" lon="1.75713">
        <ele>231.070366</ele>
        <time>2023-01-04T12:29:48.076Z</time>
      </trkpt>
      <trkpt lat="43.36813" lon="1.75722">
        <ele>230.857494</ele>
        <time>2023-01-04T12:29:50.091Z</time>
      </trkpt>
      <trkpt lat="43.36804" lon="1.7573">
        <ele>230.612667</ele>
        <time>2023-01-04T12:29:53.092Z</time>
      </trkpt>
      <trkpt lat="43.36795" lon="1.75737">
        <ele>230.390137</ele>
        <time>2023-01-04T12:29:56.094Z</time>
      </trkpt>
      <trkpt lat="43.36788" lon="1.75746">
        <ele>230.17738</ele>
        <time>2023-01-04T12:29:59.080Z</time>
      </trkpt>
      <trkpt lat="43.36779" lon="1.75756">
        <ele>229.925158</ele>
        <time>2023-01-04T12:30:02.090Z</time>
      </trkpt>
      <trkpt lat="43.36772" lon="1.75768">
        <ele>229.68907</ele>
        <time>2023-01-04T12:30:05.091Z</time>
      </trkpt>
      <trkpt lat="43.36764" lon="1.75778">
        <ele>229.442502</ele>
        <time>2023-01-04T12:30:08.094Z</time>
      </trkpt>
      <trkpt lat="43.36757" lon="1.75792">
        <ele>229.164875</ele>
        <time>2023-01-04T12:30:11.077Z</time>
      </trkpt>
      <trkpt lat="43.36749" lon="1.75802">
        <ele>228.939803</ele>
        <time>2023-01-04T12:30:14.084Z</time>
      </trkpt>
      <trkpt lat="43.36744" lon="1.75814">
        <ele>228.7064</ele>
        <time>2023-01-04T12:30:17.089Z</time>
      </trkpt>
      <trkpt lat="43.36736" lon="1.75829">
        <ele>228.417401</ele>
        <time>2023-01-04T12:30:20.091Z</time>
      </trkpt>
      <trkpt lat="43.36728" lon="1.75842">
        <ele>228.134645</ele>
        <time>2023-01-04T12:30:23.090Z</time>
      </trkpt>
      <trkpt lat="43.3672" lon="1.75856">
        <ele>227.863824</ele>
        <time>2023-01-04T12:30:26.097Z</time>
      </trkpt>
      <trkpt lat="43.36714" lon="1.7587">
        <ele>227.68816</ele>
        <time>2023-01-04T12:30:29.090Z</time>
      </trkpt>
      <trkpt lat="43.36709" lon="1.75884">
        <ele>227.572563</ele>
        <time>2023-01-04T12:30:32.078Z</time>
      </trkpt>
      <trkpt lat="43.36704" lon="1.75898">
        <ele>227.459709</ele>
        <time>2023-01-04T12:30:35.092Z</time>
      </trkpt>
      <trkpt lat="43.36698" lon="1.75911">
        <ele>227.351671</ele>
        <time>2023-01-04T12:30:38.068Z</time>
      </trkpt>
      <trkpt lat="43.36692" lon="1.75926">
        <ele>227.233344</ele>
        <time>2023-01-04T12:30:41.091Z</time>
      </trkpt>
      <trkpt lat="43.36686" lon="1.75941">
        <ele>227.108375</ele>
        <time>2023-01-04T12:30:44.092Z</time>
      </trkpt>
      <trkpt lat="43.36681" lon="1.75952">
        <ele>227.015528</ele>
        <time>2023-01-04T12:30:46.069Z</time>
      </trkpt>
      <trkpt lat="43.36675" lon="1.75964">
        <ele>226.910838</ele>
        <time>2023-01-04T12:30:48.091Z</time>
      </trkpt>
      <trkpt lat="43.3667" lon="1.75977">
        <ele>226.808538</ele>
        <time>2023-01-04T12:30:50.090Z</time>
      </trkpt>
      <trkpt lat="43.36664" lon="1.75994">
        <ele>226.67402</ele>
        <time>2023-01-04T12:30:53.092Z</time>
      </trkpt>
      <trkpt lat="43.36658" lon="1.7601">
        <ele>226.544473</ele>
        <time>2023-01-04T12:30:56.076Z</time>
      </trkpt>
      <trkpt lat="43.36652" lon="1.76023">
        <ele>226.435418</ele>
        <time>2023-01-04T12:30:59.092Z</time>
      </trkpt>
      <trkpt lat="43.36648" lon="1.76037">
        <ele>226.328584</ele>
        <time>2023-01-04T12:31:02.093Z</time>
      </trkpt>
      <trkpt lat="43.36642" lon="1.76052">
        <ele>226.200213</ele>
        <time>2023-01-04T12:31:05.096Z</time>
      </trkpt>
      <trkpt lat="43.36637" lon="1.76064">
        <ele>226.105632</ele>
        <time>2023-01-04T12:31:07.086Z</time>
      </trkpt>
      <trkpt lat="43.36631" lon="1.76076">
        <ele>225.999675</ele>
        <time>2023-01-04T12:31:09.092Z</time>
      </trkpt>
      <trkpt lat="43.36625" lon="1.7609">
        <ele>226.088482</ele>
        <time>2023-01-04T12:31:11.071Z</time>
      </trkpt>
      <trkpt lat="43.36621" lon="1.76106">
        <ele>226.204544</ele>
        <time>2023-01-04T12:31:13.073Z</time>
      </trkpt>
      <trkpt lat="43.36617" lon="1.76118">
        <ele>226.297381</ele>
        <time>2023-01-04T12:31:15.086Z</time>
      </trkpt>
      <trkpt lat="43.36613" lon="1.76135">
        <ele>226.416683</ele>
        <time>2023-01-04T12:31:18.090Z</time>
      </trkpt>
      <trkpt lat="43.3661" lon="1.76147">
        <ele>226.505983</ele>
        <time>2023-01-04T12:31:20.090Z</time>
      </trkpt>
      <trkpt lat="43.36607" lon="1.76159">
        <ele>226.595169</ele>
        <time>2023-01-04T12:31:22.086Z</time>
      </trkpt>
      <trkpt lat="43.36603" lon="1.76176">
        <ele>226.712881</ele>
        <time>2023-01-04T12:31:25.086Z</time>
      </trkpt>
      <trkpt lat="43.366" lon="1.76188">
        <ele>226.805134</ele>
        <time>2023-01-04T12:31:27.071Z</time>
      </trkpt>
      <trkpt lat="43.36597" lon="1.76205">
        <ele>226.92247</ele>
        <time>2023-01-04T12:31:29.091Z</time>
      </trkpt>
      <trkpt lat="43.36595" lon="1.76222">
        <ele>227.03839</ele>
        <time>2023-01-04T12:31:31.072Z</time>
      </trkpt>
      <trkpt lat="43.36591" lon="1.76239">
        <ele>227.16236</ele>
        <time>2023-01-04T12:31:33.086Z</time>
      </trkpt>
      <trkpt lat="43.3659" lon="1.76253">
        <ele>227.261469</ele>
        <time>2023-01-04T12:31:35.091Z</time>
      </trkpt>
      <trkpt lat="43.36589" lon="1.76267">
        <ele>227.356362</ele>
        <time>2023-01-04T12:31:37.090Z</time>
      </trkpt>
      <trkpt lat="43.36587" lon="1.76281">
        <ele>227.455286</ele>
        <time>2023-01-04T12:31:39.070Z</time>
      </trkpt>
      <trkpt lat="43.36586" lon="1.76299">
        <ele>227.577068</ele>
        <time>2023-01-04T12:31:42.090Z</time>
      </trkpt>
      <trkpt lat="43.36583" lon="1.76315">
        <ele>227.689362</ele>
        <time>2023-01-04T12:31:45.072Z</time>
      </trkpt>
      <trkpt lat="43.36581" lon="1.76331">
        <ele>227.743516</ele>
        <time>2023-01-04T12:31:48.089Z</time>
      </trkpt>
      <trkpt lat="43.36579" lon="1.76344">
        <ele>227.787726</ele>
        <time>2023-01-04T12:31:51.089Z</time>
      </trkpt>
      <trkpt lat="43.36576" lon="1.76359">
        <ele>227.841112</ele>
        <time>2023-01-04T12:31:54.093Z</time>
      </trkpt>
      <trkpt lat="43.36572" lon="1.76376">
        <ele>227.900386</ele>
        <time>2023-01-04T12:31:57.077Z</time>
      </trkpt>
      <trkpt lat="43.36569" lon="1.76391">
        <ele>227.95507</ele>
        <time>2023-01-04T12:32:00.078Z</time>
      </trkpt>
      <trkpt lat="43.36566" lon="1.76404">
        <ele>228.002899</ele>
        <time>2023-01-04T12:32:03.071Z</time>
      </trkpt>
      <trkpt lat="43.36563" lon="1.76418">
        <ele>228.050821</ele>
        <time>2023-01-04T12:32:06.094Z</time>
      </trkpt>
      <trkpt lat="43.36557" lon="1.76434">
        <ele>228.111086</ele>
        <time>2023-01-04T12:32:09.090Z</time>
      </trkpt>
      <trkpt lat="43.3655" lon="1.76444">
        <ele>228.157992</ele>
        <time>2023-01-04T12:32:11.080Z</time>
      </trkpt>
      <trkpt lat="43.36545" lon="1.76458">
        <ele>228.212659</ele>
        <time>2023-01-04T12:32:13.087Z</time>
      </trkpt>
      <trkpt lat="43.36538" lon="1.7647">
        <ele>228.265447</ele>
        <time>2023-01-04T12:32:15.089Z</time>
      </trkpt>
      <trkpt lat="43.3653" lon="1.76485">
        <ele>228.326465</ele>
        <time>2023-01-04T12:32:17.091Z</time>
      </trkpt>
      <trkpt lat="43.36525" lon="1.76499">
        <ele>228.381806</ele>
        <time>2023-01-04T12:32:19.083Z</time>
      </trkpt>
      <trkpt lat="43.36519" lon="1.76512">
        <ele>228.433921</ele>
        <time>2023-01-04T12:32:21.089Z</time>
      </trkpt>
      <trkpt lat="43.36513" lon="1.76526">
        <ele>228.487732</ele>
        <time>2023-01-04T12:32:23.090Z</time>
      </trkpt>
      <trkpt lat="43.36507" lon="1.76538">
        <ele>228.539007</ele>
        <time>2023-01-04T12:32:25.083Z</time>
      </trkpt>
      <trkpt lat="43.36503" lon="1.7655">
        <ele>228.591642</ele>
        <time>2023-01-04T12:32:27.091Z</time>
      </trkpt>
      <trkpt lat="43.36498" lon="1.76564">
        <ele>228.648367</ele>
        <time>2023-01-04T12:32:29.092Z</time>
      </trkpt>
      <trkpt lat="43.36493" lon="1.76578">
        <ele>228.71146</ele>
        <time>2023-01-04T12:32:31.089Z</time>
      </trkpt>
      <trkpt lat="43.36487" lon="1.76593">
        <ele>228.776074</ele>
        <time>2023-01-04T12:32:33.087Z</time>
      </trkpt>
      <trkpt lat="43.36482" lon="1.76607">
        <ele>228.836019</ele>
        <time>2023-01-04T12:32:35.083Z</time>
      </trkpt>
      <trkpt lat="43.36478" lon="1.7662">
        <ele>228.892637</ele>
        <time>2023-01-04T12:32:37.091Z</time>
      </trkpt>
      <trkpt lat="43.36472" lon="1.76635">
        <ele>228.955715</ele>
        <time>2023-01-04T12:32:39.090Z</time>
      </trkpt>
      <trkpt lat="43.36467" lon="1.76648">
        <ele>229.013948</ele>
        <time>2023-01-04T12:32:41.091Z</time>
      </trkpt>
      <trkpt lat="43.36462" lon="1.76662">
        <ele>229.074703</ele>
        <time>2023-01-04T12:32:43.089Z</time>
      </trkpt>
      <trkpt lat="43.36458" lon="1.76674">
        <ele>229.126514</ele>
        <time>2023-01-04T12:32:45.091Z</time>
      </trkpt>
      <trkpt lat="43.36454" lon="1.76689">
        <ele>229.186389</ele>
        <time>2023-01-04T12:32:47.091Z</time>
      </trkpt>
      <trkpt lat="43.36448" lon="1.76704">
        <ele>229.253119</ele>
        <time>2023-01-04T12:32:49.081Z</time>
      </trkpt>
      <trkpt lat="43.36444" lon="1.76717">
        <ele>229.311437</ele>
        <time>2023-01-04T12:32:51.094Z</time>
      </trkpt>
      <trkpt lat="43.3644" lon="1.7673">
        <ele>229.365673</ele>
        <time>2023-01-04T12:32:53.091Z</time>
      </trkpt>
      <trkpt lat="43.36437" lon="1.76744">
        <ele>229.419898</ele>
        <time>2023-01-04T12:32:55.091Z</time>
      </trkpt>
      <trkpt lat="43.36433" lon="1.76758">
        <ele>229.481381</ele>
        <time>2023-01-04T12:32:57.091Z</time>
      </trkpt>
      <trkpt lat="43.36429" lon="1.76771">
        <ele>229.443915</ele>
        <time>2023-01-04T12:32:59.091Z</time>
      </trkpt>
      <trkpt lat="43.36427" lon="1.76784">
        <ele>229.401951</ele>
        <time>2023-01-04T12:33:01.090Z</time>
      </trkpt>
      <trkpt lat="43.3642" lon="1.768">
        <ele>229.340276</ele>
        <time>2023-01-04T12:33:04.089Z</time>
      </trkpt>
      <trkpt lat="43.36416" lon="1.76816">
        <ele>229.287031</ele>
        <time>2023-01-04T12:33:07.092Z</time>
      </trkpt>
      <trkpt lat="43.36414" lon="1.76831">
        <ele>229.237756</ele>
        <time>2023-01-04T12:33:10.069Z</time>
      </trkpt>
      <trkpt lat="43.36412" lon="1.76848">
        <ele>229.180816</ele>
        <time>2023-01-04T12:33:13.095Z</time>
      </trkpt>
      <trkpt lat="43.3641" lon="1.76861">
        <ele>229.13885</ele>
        <time>2023-01-04T12:33:15.089Z</time>
      </trkpt>
      <trkpt lat="43.36408" lon="1.76874">
        <ele>229.095677</ele>
        <time>2023-01-04T12:33:17.089Z</time>
      </trkpt>
      <trkpt lat="43.36407" lon="1.76886">
        <ele>229.054172</ele>
        <time>2023-01-04T12:33:19.095Z</time>
      </trkpt>
      <trkpt lat="43.36407" lon="1.769">
        <ele>229.010431</ele>
        <time>2023-01-04T12:33:21.092Z</time>
      </trkpt>
      <trkpt lat="43.36406" lon="1.76914">
        <ele>228.962761</ele>
        <time>2023-01-04T12:33:23.089Z</time>
      </trkpt>
      <trkpt lat="43.36404" lon="1.7693">
        <ele>228.911401</ele>
        <time>2023-01-04T12:33:25.060Z</time>
      </trkpt>
      <trkpt lat="43.36403" lon="1.76945">
        <ele>228.86049</ele>
        <time>2023-01-04T12:33:27.085Z</time>
      </trkpt>
      <trkpt lat="43.36401" lon="1.7696">
        <ele>228.811451</ele>
        <time>2023-01-04T12:33:29.092Z</time>
      </trkpt>
      <trkpt lat="43.36399" lon="1.76975">
        <ele>228.764344</ele>
        <time>2023-01-04T12:33:31.092Z</time>
      </trkpt>
      <trkpt lat="43.36398" lon="1.76989">
        <ele>228.71613</ele>
        <time>2023-01-04T12:33:33.086Z</time>
      </trkpt>
      <trkpt lat="43.36395" lon="1.77004">
        <ele>228.680623</ele>
        <time>2023-01-04T12:33:35.091Z</time>
      </trkpt>
      <trkpt lat="43.36394" lon="1.77018">
        <ele>228.683757</ele>
        <time>2023-01-04T12:33:37.094Z</time>
      </trkpt>
      <trkpt lat="43.36392" lon="1.77034">
        <ele>228.687403</ele>
        <time>2023-01-04T12:33:39.070Z</time>
      </trkpt>
      <trkpt lat="43.36391" lon="1.77051">
        <ele>228.691266</ele>
        <time>2023-01-04T12:33:41.088Z</time>
      </trkpt>
      <trkpt lat="43.36388" lon="1.77065">
        <ele>228.694518</ele>
        <time>2023-01-04T12:33:43.094Z</time>
      </trkpt>
      <trkpt lat="43.36387" lon="1.77081">
        <ele>228.698108</ele>
        <time>2023-01-04T12:33:45.090Z</time>
      </trkpt>
      <trkpt lat="43.36384" lon="1.77097">
        <ele>228.701883</ele>
        <time>2023-01-04T12:33:47.090Z</time>
      </trkpt>
      <trkpt lat="43.36382" lon="1.77111">
        <ele>228.705184</ele>
        <time>2023-01-04T12:33:49.090Z</time>
      </trkpt>
      <trkpt lat="43.3638" lon="1.77127">
        <ele>228.70882</ele>
        <time>2023-01-04T12:33:51.092Z</time>
      </trkpt>
      <trkpt lat="43.36378" lon="1.77142">
        <ele>228.712199</ele>
        <time>2023-01-04T12:33:53.086Z</time>
      </trkpt>
      <trkpt lat="43.36377" lon="1.77156">
        <ele>228.715573</ele>
        <time>2023-01-04T12:33:55.090Z</time>
      </trkpt>
      <trkpt lat="43.36377" lon="1.77171">
        <ele>228.718971</ele>
        <time>2023-01-04T12:33:57.090Z</time>
      </trkpt>
      <trkpt lat="43.36373" lon="1.77187">
        <ele>228.722655</ele>
        <time>2023-01-04T12:33:59.089Z</time>
      </trkpt>
      <trkpt lat="43.36369" lon="1.77204">
        <ele>228.726627</ele>
        <time>2023-01-04T12:34:01.090Z</time>
      </trkpt>
      <trkpt lat="43.36365" lon="1.77218">
        <ele>228.730175</ele>
        <time>2023-01-04T12:34:03.085Z</time>
      </trkpt>
      <trkpt lat="43.3636" lon="1.77235">
        <ele>228.734223</ele>
        <time>2023-01-04T12:34:05.091Z</time>
      </trkpt>
      <trkpt lat="43.36356" lon="1.7725">
        <ele>228.947223</ele>
        <time>2023-01-04T12:34:07.087Z</time>
      </trkpt>
      <trkpt lat="43.36352" lon="1.77264">
        <ele>229.257448</ele>
        <time>2023-01-04T12:34:09.066Z</time>
      </trkpt>
      <trkpt lat="43.36347" lon="1.7728">
        <ele>229.620095</ele>
        <time>2023-01-04T12:34:12.093Z</time>
      </trkpt>
      <trkpt lat="43.36343" lon="1.77294">
        <ele>229.915538</ele>
        <time>2023-01-04T12:34:15.085Z</time>
      </trkpt>
      <trkpt lat="43.3634" lon="1.77306">
        <ele>230.182099</ele>
        <time>2023-01-04T12:34:19.085Z</time>
      </trkpt>
      <trkpt lat="43.36335" lon="1.77317">
        <ele>230.457672</ele>
        <time>2023-01-04T12:34:22.088Z</time>
      </trkpt>
      <trkpt lat="43.3633" lon="1.77331">
        <ele>230.773632</ele>
        <time>2023-01-04T12:34:25.089Z</time>
      </trkpt>
      <trkpt lat="43.36326" lon="1.77342">
        <ele>231.029938</ele>
        <time>2023-01-04T12:34:28.072Z</time>
      </trkpt>
      <trkpt lat="43.36324" lon="1.77356">
        <ele>231.315351</ele>
        <time>2023-01-04T12:34:33.101Z</time>
      </trkpt>
      <trkpt lat="43.36315" lon="1.77362">
        <ele>231.595038</ele>
        <time>2023-01-04T12:34:45.094Z</time>
      </trkpt>
      <trkpt lat="43.36312" lon="1.77375">
        <ele>231.87148</ele>
        <time>2023-01-04T12:34:55.088Z</time>
      </trkpt>
      <trkpt lat="43.3631" lon="1.77387">
        <ele>232.145131</ele>
        <time>2023-01-04T12:34:59.097Z</time>
      </trkpt>
      <trkpt lat="43.36307" lon="1.774">
        <ele>232.41846</ele>
        <time>2023-01-04T12:35:02.091Z</time>
      </trkpt>
      <trkpt lat="43.36302" lon="1.77413">
        <ele>232.721301</ele>
        <time>2023-01-04T12:35:05.083Z</time>
      </trkpt>
      <trkpt lat="43.36298" lon="1.77427">
        <ele>233.041135</ele>
        <time>2023-01-04T12:35:08.089Z</time>
      </trkpt>
      <trkpt lat="43.36293" lon="1.77444">
        <ele>233.408132</ele>
        <time>2023-01-04T12:35:11.093Z</time>
      </trkpt>
      <trkpt lat="43.36289" lon="1.77456">
        <ele>233.679609</ele>
        <time>2023-01-04T12:35:13.086Z</time>
      </trkpt>
      <trkpt lat="43.36284" lon="1.7747">
        <ele>233.801421</ele>
        <time>2023-01-04T12:35:15.089Z</time>
      </trkpt>
      <trkpt lat="43.36278" lon="1.77481">
        <ele>233.706043</ele>
        <time>2023-01-04T12:35:17.076Z</time>
      </trkpt>
      <trkpt lat="43.36274" lon="1.77498">
        <ele>233.582368</ele>
        <time>2023-01-04T12:35:20.082Z</time>
      </trkpt>
      <trkpt lat="43.3627" lon="1.77513">
        <ele>233.476934</ele>
        <time>2023-01-04T12:35:22.072Z</time>
      </trkpt>
      <trkpt lat="43.36265" lon="1.77525">
        <ele>233.383577</ele>
        <time>2023-01-04T12:35:24.085Z</time>
      </trkpt>
      <trkpt lat="43.36262" lon="1.77539">
        <ele>233.280758</ele>
        <time>2023-01-04T12:35:26.090Z</time>
      </trkpt>
      <trkpt lat="43.36258" lon="1.77551">
        <ele>233.195038</ele>
        <time>2023-01-04T12:35:28.070Z</time>
      </trkpt>
      <trkpt lat="43.36253" lon="1.77563">
        <ele>233.102821</ele>
        <time>2023-01-04T12:35:30.089Z</time>
      </trkpt>
      <trkpt lat="43.36249" lon="1.77574">
        <ele>233.016315</ele>
        <time>2023-01-04T12:35:32.084Z</time>
      </trkpt>
      <trkpt lat="43.36246" lon="1.77586">
        <ele>232.926283</ele>
        <time>2023-01-04T12:35:34.092Z</time>
      </trkpt>
      <trkpt lat="43.36242" lon="1.77598">
        <ele>232.836687</ele>
        <time>2023-01-04T12:35:36.095Z</time>
      </trkpt>
      <trkpt lat="43.36238" lon="1.7761">
        <ele>232.750584</ele>
        <time>2023-01-04T12:35:38.071Z</time>
      </trkpt>
      <trkpt lat="43.36235" lon="1.77622">
        <ele>232.661849</ele>
        <time>2023-01-04T12:35:40.091Z</time>
      </trkpt>
      <trkpt lat="43.36231" lon="1.77634">
        <ele>232.57138</ele>
        <time>2023-01-04T12:35:42.097Z</time>
      </trkpt>
      <trkpt lat="43.36225" lon="1.77649">
        <ele>232.454772</ele>
        <time>2023-01-04T12:35:45.088Z</time>
      </trkpt>
      <trkpt lat="43.36216" lon="1.77659">
        <ele>232.35238</ele>
        <time>2023-01-04T12:35:49.069Z</time>
      </trkpt>
      <trkpt lat="43.3621" lon="1.7767">
        <ele>232.258104</ele>
        <time>2023-01-04T12:35:53.092Z</time>
      </trkpt>
      <trkpt lat="43.36204" lon="1.7768">
        <ele>232.170251</ele>
        <time>2023-01-04T12:35:56.093Z</time>
      </trkpt>
      <trkpt lat="43.36198" lon="1.77691">
        <ele>232.171157</ele>
        <time>2023-01-04T12:35:59.088Z</time>
      </trkpt>
      <trkpt lat="43.3619" lon="1.777">
        <ele>232.176604</ele>
        <time>2023-01-04T12:36:02.076Z</time>
      </trkpt>
      <trkpt lat="43.36183" lon="1.77711">
        <ele>232.182575</ele>
        <time>2023-01-04T12:36:05.071Z</time>
      </trkpt>
      <trkpt lat="43.36174" lon="1.77722">
        <ele>232.188807</ele>
        <time>2023-01-04T12:36:08.092Z</time>
      </trkpt>
      <trkpt lat="43.36168" lon="1.7773">
        <ele>232.193688</ele>
        <time>2023-01-04T12:36:10.095Z</time>
      </trkpt>
      <trkpt lat="43.36161" lon="1.77739">
        <ele>232.198542</ele>
        <time>2023-01-04T12:36:12.092Z</time>
      </trkpt>
      <trkpt lat="43.36154" lon="1.7775">
        <ele>232.204281</ele>
        <time>2023-01-04T12:36:15.090Z</time>
      </trkpt>
      <trkpt lat="43.36147" lon="1.77763">
        <ele>232.210637</ele>
        <time>2023-01-04T12:36:18.088Z</time>
      </trkpt>
      <trkpt lat="43.36139" lon="1.77777">
        <ele>232.217595</ele>
        <time>2023-01-04T12:36:21.090Z</time>
      </trkpt>
      <trkpt lat="43.36133" lon="1.77787">
        <ele>232.22271</ele>
        <time>2023-01-04T12:36:23.091Z</time>
      </trkpt>
      <trkpt lat="43.36127" lon="1.77797">
        <ele>232.227947</ele>
        <time>2023-01-04T12:36:25.091Z</time>
      </trkpt>
      <trkpt lat="43.3612" lon="1.77808">
        <ele>232.233505</ele>
        <time>2023-01-04T12:36:27.093Z</time>
      </trkpt>
      <trkpt lat="43.36112" lon="1.7782">
        <ele>232.239925</ele>
        <time>2023-01-04T12:36:30.070Z</time>
      </trkpt>
      <trkpt lat="43.36105" lon="1.77838">
        <ele>232.247898</ele>
        <time>2023-01-04T12:36:33.070Z</time>
      </trkpt>
      <trkpt lat="43.36095" lon="1.77852">
        <ele>232.255735</ele>
        <time>2023-01-04T12:36:36.091Z</time>
      </trkpt>
      <trkpt lat="43.36087" lon="1.77863">
        <ele>232.26149</ele>
        <time>2023-01-04T12:36:38.069Z</time>
      </trkpt>
      <trkpt lat="43.36081" lon="1.7788">
        <ele>232.272626</ele>
        <time>2023-01-04T12:36:41.066Z</time>
      </trkpt>
      <trkpt lat="43.36077" lon="1.77892">
        <ele>232.279998</ele>
        <time>2023-01-04T12:36:43.076Z</time>
      </trkpt>
      <trkpt lat="43.3607" lon="1.77909">
        <ele>232.291962</ele>
        <time>2023-01-04T12:36:46.070Z</time>
      </trkpt>
      <trkpt lat="43.36063" lon="1.77924">
        <ele>232.302797</ele>
        <time>2023-01-04T12:36:49.071Z</time>
      </trkpt>
      <trkpt lat="43.3606" lon="1.7794">
        <ele>232.312399</ele>
        <time>2023-01-04T12:36:52.069Z</time>
      </trkpt>
      <trkpt lat="43.36054" lon="1.77956">
        <ele>232.322685</ele>
        <time>2023-01-04T12:36:55.061Z</time>
      </trkpt>
      <trkpt lat="43.36049" lon="1.77974">
        <ele>232.33413</ele>
        <time>2023-01-04T12:36:58.097Z</time>
      </trkpt>
      <trkpt lat="43.36046" lon="1.77986">
        <ele>232.342003</ele>
        <time>2023-01-04T12:37:00.075Z</time>
      </trkpt>
      <trkpt lat="43.36043" lon="1.78001">
        <ele>232.35112</ele>
        <time>2023-01-04T12:37:02.073Z</time>
      </trkpt>
      <trkpt lat="43.36038" lon="1.78019">
        <ele>232.362615</ele>
        <time>2023-01-04T12:37:04.071Z</time>
      </trkpt>
      <trkpt lat="43.36035" lon="1.78035">
        <ele>232.372322</ele>
        <time>2023-01-04T12:37:06.073Z</time>
      </trkpt>
      <trkpt lat="43.36032" lon="1.78048">
        <ele>232.380613</ele>
        <time>2023-01-04T12:37:08.065Z</time>
      </trkpt>
      <trkpt lat="43.36026" lon="1.78062">
        <ele>232.390129</ele>
        <time>2023-01-04T12:37:11.072Z</time>
      </trkpt>
      <trkpt lat="43.36023" lon="1.78075">
        <ele>232.398157</ele>
        <time>2023-01-04T12:37:14.073Z</time>
      </trkpt>
      <trkpt lat="43.36016" lon="1.78086">
        <ele>232.40734</ele>
        <time>2023-01-04T12:37:18.072Z</time>
      </trkpt>
      <trkpt lat="43.36009" lon="1.78098">
        <ele>232.374367</ele>
        <time>2023-01-04T12:37:21.074Z</time>
      </trkpt>
      <trkpt lat="43.36003" lon="1.78108">
        <ele>232.332814</ele>
        <time>2023-01-04T12:37:23.068Z</time>
      </trkpt>
      <trkpt lat="43.35998" lon="1.78119">
        <ele>232.291213</ele>
        <time>2023-01-04T12:37:25.093Z</time>
      </trkpt>
      <trkpt lat="43.35992" lon="1.78134">
        <ele>232.235314</ele>
        <time>2023-01-04T12:37:28.092Z</time>
      </trkpt>
      <trkpt lat="43.35985" lon="1.7815">
        <ele>232.175708</ele>
        <time>2023-01-04T12:37:31.072Z</time>
      </trkpt>
      <trkpt lat="43.35981" lon="1.78161">
        <ele>232.134447</ele>
        <time>2023-01-04T12:37:33.092Z</time>
      </trkpt>
      <trkpt lat="43.35973" lon="1.78175">
        <ele>232.077368</ele>
        <time>2023-01-04T12:37:35.085Z</time>
      </trkpt>
      <trkpt lat="43.35967" lon="1.78185">
        <ele>232.033603</ele>
        <time>2023-01-04T12:37:37.081Z</time>
      </trkpt>
      <trkpt lat="43.3596" lon="1.78195">
        <ele>231.989623</ele>
        <time>2023-01-04T12:37:39.199Z</time>
      </trkpt>
      <trkpt lat="43.35953" lon="1.78207">
        <ele>231.939035</ele>
        <time>2023-01-04T12:37:42.073Z</time>
      </trkpt>
      <trkpt lat="43.35946" lon="1.78223">
        <ele>231.877987</ele>
        <time>2023-01-04T12:37:44.086Z</time>
      </trkpt>
      <trkpt lat="43.35938" lon="1.78233">
        <ele>231.832168</ele>
        <time>2023-01-04T12:37:46.072Z</time>
      </trkpt>
      <trkpt lat="43.3593" lon="1.78249">
        <ele>231.768447</ele>
        <time>2023-01-04T12:37:48.073Z</time>
      </trkpt>
      <trkpt lat="43.35922" lon="1.7826">
        <ele>231.715597</ele>
        <time>2023-01-04T12:37:51.071Z</time>
      </trkpt>
      <trkpt lat="43.35914" lon="1.78273">
        <ele>231.660869</ele>
        <time>2023-01-04T12:37:54.082Z</time>
      </trkpt>
      <trkpt lat="43.35906" lon="1.78288">
        <ele>231.603766</ele>
        <time>2023-01-04T12:37:57.070Z</time>
      </trkpt>
      <trkpt lat="43.35902" lon="1.78299">
        <ele>231.585384</ele>
        <time>2023-01-04T12:37:59.069Z</time>
      </trkpt>
      <trkpt lat="43.35896" lon="1.78311">
        <ele>231.565748</ele>
        <time>2023-01-04T12:38:01.088Z</time>
      </trkpt>
      <trkpt lat="43.35892" lon="1.78322">
        <ele>231.547917</ele>
        <time>2023-01-04T12:38:03.092Z</time>
      </trkpt>
      <trkpt lat="43.35886" lon="1.78333">
        <ele>231.527482</ele>
        <time>2023-01-04T12:38:05.079Z</time>
      </trkpt>
      <trkpt lat="43.35882" lon="1.78345">
        <ele>231.50914</ele>
        <time>2023-01-04T12:38:07.078Z</time>
      </trkpt>
      <trkpt lat="43.35878" lon="1.78358">
        <ele>231.489116</ele>
        <time>2023-01-04T12:38:09.079Z</time>
      </trkpt>
      <trkpt lat="43.35873" lon="1.7837">
        <ele>231.468514</ele>
        <time>2023-01-04T12:38:11.073Z</time>
      </trkpt>
      <trkpt lat="43.35869" lon="1.78382">
        <ele>231.449615</ele>
        <time>2023-01-04T12:38:13.077Z</time>
      </trkpt>
      <trkpt lat="43.35864" lon="1.78394">
        <ele>231.429863</ele>
        <time>2023-01-04T12:38:15.089Z</time>
      </trkpt>
      <trkpt lat="43.3586" lon="1.78409">
        <ele>231.407537</ele>
        <time>2023-01-04T12:38:17.089Z</time>
      </trkpt>
      <trkpt lat="43.35854" lon="1.78426">
        <ele>231.380152</ele>
        <time>2023-01-04T12:38:20.072Z</time>
      </trkpt>
      <trkpt lat="43.35851" lon="1.7844">
        <ele>231.358361</ele>
        <time>2023-01-04T12:38:22.091Z</time>
      </trkpt>
      <trkpt lat="43.35844" lon="1.78454">
        <ele>231.334521</ele>
        <time>2023-01-04T12:38:24.077Z</time>
      </trkpt>
      <trkpt lat="43.3584" lon="1.78473">
        <ele>231.306099</ele>
        <time>2023-01-04T12:38:27.085Z</time>
      </trkpt>
      <trkpt lat="43.35835" lon="1.78487">
        <ele>231.28311</ele>
        <time>2023-01-04T12:38:29.080Z</time>
      </trkpt>
      <trkpt lat="43.35831" lon="1.78501">
        <ele>231.262128</ele>
        <time>2023-01-04T12:38:31.069Z</time>
      </trkpt>
      <trkpt lat="43.35828" lon="1.78515">
        <ele>231.219029</ele>
        <time>2023-01-04T12:38:33.089Z</time>
      </trkpt>
      <trkpt lat="43.35824" lon="1.78533">
        <ele>231.126874</ele>
        <time>2023-01-04T12:38:35.073Z</time>
      </trkpt>
      <trkpt lat="43.35821" lon="1.7855">
        <ele>231.037645</ele>
        <time>2023-01-04T12:38:38.073Z</time>
      </trkpt>
      <trkpt lat="43.35816" lon="1.78566">
        <ele>230.950572</ele>
        <time>2023-01-04T12:38:41.070Z</time>
      </trkpt>
      <trkpt lat="43.35813" lon="1.7858">
        <ele>230.876127</ele>
        <time>2023-01-04T12:38:44.070Z</time>
      </trkpt>
      <trkpt lat="43.3581" lon="1.78594">
        <ele>230.806627</ele>
        <time>2023-01-04T12:38:46.082Z</time>
      </trkpt>
      <trkpt lat="43.35805" lon="1.78612">
        <ele>230.709337</ele>
        <time>2023-01-04T12:38:49.088Z</time>
      </trkpt>
      <trkpt lat="43.35802" lon="1.78624">
        <ele>230.646273</ele>
        <time>2023-01-04T12:38:51.088Z</time>
      </trkpt>
      <trkpt lat="43.35798" lon="1.78642">
        <ele>230.554072</ele>
        <time>2023-01-04T12:38:54.091Z</time>
      </trkpt>
      <trkpt lat="43.35795" lon="1.78659">
        <ele>230.466465</ele>
        <time>2023-01-04T12:38:57.069Z</time>
      </trkpt>
      <trkpt lat="43.35792" lon="1.78671">
        <ele>230.401991</ele>
        <time>2023-01-04T12:38:59.073Z</time>
      </trkpt>
      <trkpt lat="43.35787" lon="1.78682">
        <ele>230.33358</ele>
        <time>2023-01-04T12:39:01.088Z</time>
      </trkpt>
      <trkpt lat="43.35783" lon="1.78696">
        <ele>230.261108</ele>
        <time>2023-01-04T12:39:03.086Z</time>
      </trkpt>
      <trkpt lat="43.3578" lon="1.78708">
        <ele>230.19844</ele>
        <time>2023-01-04T12:39:05.073Z</time>
      </trkpt>
      <trkpt lat="43.35774" lon="1.78725">
        <ele>230.101914</ele>
        <time>2023-01-04T12:39:08.085Z</time>
      </trkpt>
      <trkpt lat="43.35768" lon="1.78741">
        <ele>230.019057</ele>
        <time>2023-01-04T12:39:10.072Z</time>
      </trkpt>
      <trkpt lat="43.35767" lon="1.78758">
        <ele>230.204531</ele>
        <time>2023-01-04T12:39:12.071Z</time>
      </trkpt>
      <trkpt lat="43.35763" lon="1.7877">
        <ele>230.349333</ele>
        <time>2023-01-04T12:39:14.078Z</time>
      </trkpt>
      <trkpt lat="43.35758" lon="1.78786">
        <ele>230.534352</ele>
        <time>2023-01-04T12:39:16.087Z</time>
      </trkpt>
      <trkpt lat="43.35755" lon="1.788">
        <ele>230.687371</ele>
        <time>2023-01-04T12:39:18.072Z</time>
      </trkpt>
      <trkpt lat="43.3575" lon="1.78819">
        <ele>230.901189</ele>
        <time>2023-01-04T12:39:21.072Z</time>
      </trkpt>
      <trkpt lat="43.35747" lon="1.78833">
        <ele>231.054787</ele>
        <time>2023-01-04T12:39:23.077Z</time>
      </trkpt>
      <trkpt lat="43.35742" lon="1.78847">
        <ele>231.22682</ele>
        <time>2023-01-04T12:39:25.070Z</time>
      </trkpt>
      <trkpt lat="43.35739" lon="1.7886">
        <ele>231.371218</ele>
        <time>2023-01-04T12:39:27.070Z</time>
      </trkpt>
      <trkpt lat="43.35734" lon="1.78876">
        <ele>231.553694</ele>
        <time>2023-01-04T12:39:30.074Z</time>
      </trkpt>
      <trkpt lat="43.35729" lon="1.78893">
        <ele>231.752527</ele>
        <time>2023-01-04T12:39:33.090Z</time>
      </trkpt>
      <trkpt lat="43.35725" lon="1.78906">
        <ele>231.903713</ele>
        <time>2023-01-04T12:39:35.073Z</time>
      </trkpt>
      <trkpt lat="43.35721" lon="1.78919">
        <ele>232.060051</ele>
        <time>2023-01-04T12:39:37.091Z</time>
      </trkpt>
      <trkpt lat="43.35717" lon="1.78932">
        <ele>232.206107</ele>
        <time>2023-01-04T12:39:39.071Z</time>
      </trkpt>
      <trkpt lat="43.35715" lon="1.78947">
        <ele>232.364575</ele>
        <time>2023-01-04T12:39:41.070Z</time>
      </trkpt>
      <trkpt lat="43.3571" lon="1.78959">
        <ele>232.513864</ele>
        <time>2023-01-04T12:39:43.072Z</time>
      </trkpt>
      <trkpt lat="43.35705" lon="1.78976">
        <ele>232.637909</ele>
        <time>2023-01-04T12:39:46.086Z</time>
      </trkpt>
      <trkpt lat="43.35701" lon="1.78987">
        <ele>232.577312</ele>
        <time>2023-01-04T12:39:48.087Z</time>
      </trkpt>
      <trkpt lat="43.35697" lon="1.79002">
        <ele>232.507878</ele>
        <time>2023-01-04T12:39:51.092Z</time>
      </trkpt>
      <trkpt lat="43.35695" lon="1.79015">
        <ele>232.444929</ele>
        <time>2023-01-04T12:39:53.092Z</time>
      </trkpt>
      <trkpt lat="43.35693" lon="1.79029">
        <ele>232.378881</ele>
        <time>2023-01-04T12:39:55.079Z</time>
      </trkpt>
      <trkpt lat="43.35689" lon="1.79041">
        <ele>232.318134</ele>
        <time>2023-01-04T12:39:57.086Z</time>
      </trkpt>
      <trkpt lat="43.35686" lon="1.79053">
        <ele>232.261043</ele>
        <time>2023-01-04T12:39:59.092Z</time>
      </trkpt>
      <trkpt lat="43.35681" lon="1.79065">
        <ele>232.196694</ele>
        <time>2023-01-04T12:40:01.091Z</time>
      </trkpt>
      <trkpt lat="43.35677" lon="1.79079">
        <ele>232.128578</ele>
        <time>2023-01-04T12:40:03.070Z</time>
      </trkpt>
      <trkpt lat="43.35675" lon="1.79093">
        <ele>232.062474</ele>
        <time>2023-01-04T12:40:05.090Z</time>
      </trkpt>
      <trkpt lat="43.35672" lon="1.79107">
        <ele>231.99534</ele>
        <time>2023-01-04T12:40:07.088Z</time>
      </trkpt>
      <trkpt lat="43.3567" lon="1.79122">
        <ele>231.925696</ele>
        <time>2023-01-04T12:40:09.067Z</time>
      </trkpt>
      <trkpt lat="43.35667" lon="1.79138">
        <ele>231.848921</ele>
        <time>2023-01-04T12:40:11.071Z</time>
      </trkpt>
      <trkpt lat="43.35663" lon="1.79154">
        <ele>231.77164</ele>
        <time>2023-01-04T12:40:13.069Z</time>
      </trkpt>
      <trkpt lat="43.35659" lon="1.79169">
        <ele>231.697685</ele>
        <time>2023-01-04T12:40:15.093Z</time>
      </trkpt>
      <trkpt lat="43.35656" lon="1.79183">
        <ele>231.628202</ele>
        <time>2023-01-04T12:40:17.094Z</time>
      </trkpt>
      <trkpt lat="43.35651" lon="1.79198">
        <ele>231.554134</ele>
        <time>2023-01-04T12:40:19.086Z</time>
      </trkpt>
      <trkpt lat="43.35647" lon="1.79217">
        <ele>231.644416</ele>
        <time>2023-01-04T12:40:22.095Z</time>
      </trkpt>
      <trkpt lat="43.35643" lon="1.79231">
        <ele>231.79055</ele>
        <time>2023-01-04T12:40:24.091Z</time>
      </trkpt>
      <trkpt lat="43.35641" lon="1.79243">
        <ele>231.921762</ele>
        <time>2023-01-04T12:40:26.095Z</time>
      </trkpt>
      <trkpt lat="43.35638" lon="1.79257">
        <ele>232.062415</ele>
        <time>2023-01-04T12:40:28.094Z</time>
      </trkpt>
      <trkpt lat="43.35635" lon="1.79271">
        <ele>232.212311</ele>
        <time>2023-01-04T12:40:30.093Z</time>
      </trkpt>
      <trkpt lat="43.35633" lon="1.79285">
        <ele>232.34832</ele>
        <time>2023-01-04T12:40:32.093Z</time>
      </trkpt>
      <trkpt lat="43.3563" lon="1.79298">
        <ele>232.493388</ele>
        <time>2023-01-04T12:40:34.089Z</time>
      </trkpt>
      <trkpt lat="43.35628" lon="1.79317">
        <ele>232.68241</ele>
        <time>2023-01-04T12:40:37.090Z</time>
      </trkpt>
      <trkpt lat="43.35624" lon="1.79328">
        <ele>232.808489</ele>
        <time>2023-01-04T12:40:39.092Z</time>
      </trkpt>
      <trkpt lat="43.35621" lon="1.7934">
        <ele>232.935297</ele>
        <time>2023-01-04T12:40:41.091Z</time>
      </trkpt>
      <trkpt lat="43.35618" lon="1.79354">
        <ele>233.083639</ele>
        <time>2023-01-04T12:40:43.072Z</time>
      </trkpt>
      <trkpt lat="43.35615" lon="1.7937">
        <ele>233.24164</ele>
        <time>2023-01-04T12:40:45.075Z</time>
      </trkpt>
      <trkpt lat="43.35613" lon="1.79384">
        <ele>233.390431</ele>
        <time>2023-01-04T12:40:47.091Z</time>
      </trkpt>
      <trkpt lat="43.35611" lon="1.79398">
        <ele>233.533301</ele>
        <time>2023-01-04T12:40:49.100Z</time>
      </trkpt>
      <trkpt lat="43.3561" lon="1.79413">
        <ele>233.68029</ele>
        <time>2023-01-04T12:40:51.094Z</time>
      </trkpt>
      <trkpt lat="43.35608" lon="1.7943">
        <ele>233.857231</ele>
        <time>2023-01-04T12:40:54.091Z</time>
      </trkpt>
      <trkpt lat="43.35608" lon="1.79444">
        <ele>233.999683</ele>
        <time>2023-01-04T12:40:56.095Z</time>
      </trkpt>
      <trkpt lat="43.35606" lon="1.79457">
        <ele>233.984391</ele>
        <time>2023-01-04T12:40:58.096Z</time>
      </trkpt>
      <trkpt lat="43.35604" lon="1.7947">
        <ele>233.96697</ele>
        <time>2023-01-04T12:41:00.092Z</time>
      </trkpt>
      <trkpt lat="43.35601" lon="1.79485">
        <ele>233.945899</ele>
        <time>2023-01-04T12:41:02.099Z</time>
      </trkpt>
      <trkpt lat="43.35599" lon="1.795">
        <ele>233.924817</ele>
        <time>2023-01-04T12:41:04.095Z</time>
      </trkpt>
      <trkpt lat="43.35595" lon="1.79513">
        <ele>233.905353</ele>
        <time>2023-01-04T12:41:06.093Z</time>
      </trkpt>
      <trkpt lat="43.35592" lon="1.79527">
        <ele>233.885696</ele>
        <time>2023-01-04T12:41:08.073Z</time>
      </trkpt>
      <trkpt lat="43.35589" lon="1.7954">
        <ele>233.867505</ele>
        <time>2023-01-04T12:41:10.094Z</time>
      </trkpt>
      <trkpt lat="43.35585" lon="1.79555">
        <ele>233.844915</ele>
        <time>2023-01-04T12:41:13.091Z</time>
      </trkpt>
      <trkpt lat="43.35578" lon="1.7957">
        <ele>233.820796</ele>
        <time>2023-01-04T12:41:16.085Z</time>
      </trkpt>
      <trkpt lat="43.3557" lon="1.79588">
        <ele>233.793678</ele>
        <time>2023-01-04T12:41:19.100Z</time>
      </trkpt>
      <trkpt lat="43.35564" lon="1.79604">
        <ele>233.768489</ele>
        <time>2023-01-04T12:41:21.092Z</time>
      </trkpt>
      <trkpt lat="43.35556" lon="1.79618">
        <ele>233.743555</ele>
        <time>2023-01-04T12:41:23.088Z</time>
      </trkpt>
      <trkpt lat="43.35548" lon="1.79633">
        <ele>233.719392</ele>
        <time>2023-01-04T12:41:25.088Z</time>
      </trkpt>
      <trkpt lat="43.35543" lon="1.79653">
        <ele>233.690422</ele>
        <time>2023-01-04T12:41:27.093Z</time>
      </trkpt>
      <trkpt lat="43.35536" lon="1.79667">
        <ele>233.666663</ele>
        <time>2023-01-04T12:41:28.073Z</time>
      </trkpt>
      <trkpt lat="43.35526" lon="1.79676">
        <ele>233.61364</ele>
        <time>2023-01-04T12:41:30.077Z</time>
      </trkpt>
      <trkpt lat="43.35518" lon="1.79692">
        <ele>233.544043</ele>
        <time>2023-01-04T12:41:32.074Z</time>
      </trkpt>
      <trkpt lat="43.35509" lon="1.79708">
        <ele>233.473185</ele>
        <time>2023-01-04T12:41:37.093Z</time>
      </trkpt>
      <trkpt lat="43.35501" lon="1.79719">
        <ele>233.419093</ele>
        <time>2023-01-04T12:41:39.089Z</time>
      </trkpt>
      <trkpt lat="43.35494" lon="1.79734">
        <ele>233.357972</ele>
        <time>2023-01-04T12:41:42.092Z</time>
      </trkpt>
      <trkpt lat="43.35488" lon="1.79745">
        <ele>233.308185</ele>
        <time>2023-01-04T12:41:44.093Z</time>
      </trkpt>
      <trkpt lat="43.35482" lon="1.79758">
        <ele>233.257086</ele>
        <time>2023-01-04T12:41:46.092Z</time>
      </trkpt>
      <trkpt lat="43.35477" lon="1.79768">
        <ele>233.212382</ele>
        <time>2023-01-04T12:41:48.069Z</time>
      </trkpt>
      <trkpt lat="43.35472" lon="1.79779">
        <ele>233.169088</ele>
        <time>2023-01-04T12:41:50.094Z</time>
      </trkpt>
      <trkpt lat="43.35465" lon="1.79792">
        <ele>233.111382</ele>
        <time>2023-01-04T12:41:52.101Z</time>
      </trkpt>
      <trkpt lat="43.35458" lon="1.79804">
        <ele>233.059052</ele>
        <time>2023-01-04T12:41:54.085Z</time>
      </trkpt>
      <trkpt lat="43.35457" lon="1.79819">
        <ele>233.007547</ele>
        <time>2023-01-04T12:41:56.072Z</time>
      </trkpt>
      <trkpt lat="43.35449" lon="1.7983">
        <ele>232.953968</ele>
        <time>2023-01-04T12:41:58.093Z</time>
      </trkpt>
      <trkpt lat="43.35444" lon="1.79842">
        <ele>232.902365</ele>
        <time>2023-01-04T12:42:00.092Z</time>
      </trkpt>
      <trkpt lat="43.35438" lon="1.79854">
        <ele>232.852661</ele>
        <time>2023-01-04T12:42:02.092Z</time>
      </trkpt>
      <trkpt lat="43.35433" lon="1.79865">
        <ele>232.806543</ele>
        <time>2023-01-04T12:42:04.071Z</time>
      </trkpt>
      <trkpt lat="43.35426" lon="1.7988">
        <ele>232.79809</ele>
        <time>2023-01-04T12:42:07.093Z</time>
      </trkpt>
      <trkpt lat="43.35422" lon="1.79892">
        <ele>232.796008</ele>
        <time>2023-01-04T12:42:09.091Z</time>
      </trkpt>
      <trkpt lat="43.35414" lon="1.79906">
        <ele>232.793128</ele>
        <time>2023-01-04T12:42:12.065Z</time>
      </trkpt>
      <trkpt lat="43.35407" lon="1.7992">
        <ele>232.79034</ele>
        <time>2023-01-04T12:42:15.094Z</time>
      </trkpt>
      <trkpt lat="43.35402" lon="1.79936">
        <ele>232.787516</ele>
        <time>2023-01-04T12:42:18.093Z</time>
      </trkpt>
      <trkpt lat="43.354" lon="1.79954">
        <ele>232.784643</ele>
        <time>2023-01-04T12:42:21.087Z</time>
      </trkpt>
      <trkpt lat="43.35402" lon="1.79968">
        <ele>232.782272</ele>
        <time>2023-01-04T12:42:24.092Z</time>
      </trkpt>
      <trkpt lat="43.35407" lon="1.7998">
        <ele>232.779988</ele>
        <time>2023-01-04T12:42:27.094Z</time>
      </trkpt>
      <trkpt lat="43.35407" lon="1.79993">
        <ele>232.777885</ele>
        <time>2023-01-04T12:42:29.070Z</time>
      </trkpt>
      <trkpt lat="43.35405" lon="1.80008">
        <ele>232.775405</ele>
        <time>2023-01-04T12:42:31.090Z</time>
      </trkpt>
      <trkpt lat="43.35403" lon="1.80027">
        <ele>232.772384</ele>
        <time>2023-01-04T12:42:34.088Z</time>
      </trkpt>
      <trkpt lat="43.35403" lon="1.80041">
        <ele>232.770086</ele>
        <time>2023-01-04T12:42:36.092Z</time>
      </trkpt>
      <trkpt lat="43.35403" lon="1.80055">
        <ele>232.767739</ele>
        <time>2023-01-04T12:42:38.096Z</time>
      </trkpt>
      <trkpt lat="43.35406" lon="1.80067">
        <ele>232.7657</ele>
        <time>2023-01-04T12:42:40.073Z</time>
      </trkpt>
      <trkpt lat="43.35406" lon="1.8008">
        <ele>232.763692</ele>
        <time>2023-01-04T12:42:42.090Z</time>
      </trkpt>
      <trkpt lat="43.35411" lon="1.80092">
        <ele>232.761479</ele>
        <time>2023-01-04T12:42:44.094Z</time>
      </trkpt>
      <trkpt lat="43.35414" lon="1.80105">
        <ele>232.771353</ele>
        <time>2023-01-04T12:42:46.082Z</time>
      </trkpt>
      <trkpt lat="43.35418" lon="1.80117">
        <ele>232.786532</ele>
        <time>2023-01-04T12:42:48.094Z</time>
      </trkpt>
      <trkpt lat="43.35422" lon="1.8013">
        <ele>232.80237</ele>
        <time>2023-01-04T12:42:50.069Z</time>
      </trkpt>
      <trkpt lat="43.35428" lon="1.80146">
        <ele>232.823638</ele>
        <time>2023-01-04T12:42:53.072Z</time>
      </trkpt>
      <trkpt lat="43.35435" lon="1.80161">
        <ele>232.843992</ele>
        <time>2023-01-04T12:42:56.093Z</time>
      </trkpt>
      <trkpt lat="43.35442" lon="1.80177">
        <ele>232.865141</ele>
        <time>2023-01-04T12:42:59.091Z</time>
      </trkpt>
      <trkpt lat="43.35448" lon="1.80188">
        <ele>232.880992</ele>
        <time>2023-01-04T12:43:01.073Z</time>
      </trkpt>
      <trkpt lat="43.35455" lon="1.80199">
        <ele>232.897243</ele>
        <time>2023-01-04T12:43:03.092Z</time>
      </trkpt>
      <trkpt lat="43.35462" lon="1.80211">
        <ele>232.915062</ele>
        <time>2023-01-04T12:43:06.093Z</time>
      </trkpt>
      <trkpt lat="43.35471" lon="1.80223">
        <ele>232.935475</ele>
        <time>2023-01-04T12:43:09.084Z</time>
      </trkpt>
      <trkpt lat="43.3548" lon="1.80236">
        <ele>232.955976</ele>
        <time>2023-01-04T12:43:12.080Z</time>
      </trkpt>
      <trkpt lat="43.35487" lon="1.80249">
        <ele>232.97509</ele>
        <time>2023-01-04T12:43:15.091Z</time>
      </trkpt>
      <trkpt lat="43.35492" lon="1.80264">
        <ele>232.993287</ele>
        <time>2023-01-04T12:43:18.090Z</time>
      </trkpt>
      <trkpt lat="43.35496" lon="1.80277">
        <ele>233.009962</ele>
        <time>2023-01-04T12:43:21.075Z</time>
      </trkpt>
      <trkpt lat="43.35506" lon="1.80298">
        <ele>233.039364</ele>
        <time>2023-01-04T12:43:29.093Z</time>
      </trkpt>
      <trkpt lat="43.35539" lon="1.80314">
        <ele>232.737486</ele>
        <time>2023-01-04T12:43:35.080Z</time>
      </trkpt>
      <trkpt lat="43.35535" lon="1.80326">
        <ele>232.642037</ele>
        <time>2023-01-04T12:43:37.071Z</time>
      </trkpt>
      <trkpt lat="43.35543" lon="1.80331">
        <ele>232.548186</ele>
        <time>2023-01-04T12:43:39.062Z</time>
      </trkpt>
      <trkpt lat="43.35552" lon="1.80337">
        <ele>232.444301</ele>
        <time>2023-01-04T12:43:42.075Z</time>
      </trkpt>
      <trkpt lat="43.35566" lon="1.80348">
        <ele>232.282823</ele>
        <time>2023-01-04T12:43:46.068Z</time>
      </trkpt>
      <trkpt lat="43.35577" lon="1.80361">
        <ele>232.142115</ele>
        <time>2023-01-04T12:43:48.070Z</time>
      </trkpt>
      <trkpt lat="43.35586" lon="1.80376">
        <ele>232.001146</ele>
        <time>2023-01-04T12:43:50.069Z</time>
      </trkpt>
      <trkpt lat="43.35593" lon="1.80387">
        <ele>231.892879</ele>
        <time>2023-01-04T12:43:52.070Z</time>
      </trkpt>
      <trkpt lat="43.35599" lon="1.80399">
        <ele>231.779629</ele>
        <time>2023-01-04T12:43:54.069Z</time>
      </trkpt>
      <trkpt lat="43.35607" lon="1.8041">
        <ele>231.668148</ele>
        <time>2023-01-04T12:43:56.071Z</time>
      </trkpt>
      <trkpt lat="43.35614" lon="1.80421">
        <ele>231.563751</ele>
        <time>2023-01-04T12:43:58.071Z</time>
      </trkpt>
      <trkpt lat="43.35621" lon="1.8043">
        <ele>231.46529</ele>
        <time>2023-01-04T12:44:00.072Z</time>
      </trkpt>
      <trkpt lat="43.35629" lon="1.8044">
        <ele>231.356039</ele>
        <time>2023-01-04T12:44:02.070Z</time>
      </trkpt>
      <trkpt lat="43.35636" lon="1.80451">
        <ele>231.249369</ele>
        <time>2023-01-04T12:44:04.072Z</time>
      </trkpt>
      <trkpt lat="43.35642" lon="1.8046">
        <ele>231.602066</ele>
        <time>2023-01-04T12:44:06.072Z</time>
      </trkpt>
      <trkpt lat="43.35648" lon="1.80473">
        <ele>232.135848</ele>
        <time>2023-01-04T12:44:09.071Z</time>
      </trkpt>
      <trkpt lat="43.35655" lon="1.80485">
        <ele>232.655375</ele>
        <time>2023-01-04T12:44:12.093Z</time>
      </trkpt>
      <trkpt lat="43.35662" lon="1.80495">
        <ele>233.134895</ele>
        <time>2023-01-04T12:44:14.090Z</time>
      </trkpt>
      <trkpt lat="43.35669" lon="1.80508">
        <ele>233.709965</ele>
        <time>2023-01-04T12:44:17.071Z</time>
      </trkpt>
      <trkpt lat="43.35677" lon="1.80523">
        <ele>234.362061</ele>
        <time>2023-01-04T12:44:20.091Z</time>
      </trkpt>
      <trkpt lat="43.35685" lon="1.80536">
        <ele>234.960869</ele>
        <time>2023-01-04T12:44:23.093Z</time>
      </trkpt>
      <trkpt lat="43.35691" lon="1.80549">
        <ele>235.508063</ele>
        <time>2023-01-04T12:44:26.091Z</time>
      </trkpt>
      <trkpt lat="43.35694" lon="1.80562">
        <ele>235.979099</ele>
        <time>2023-01-04T12:44:29.095Z</time>
      </trkpt>
      <trkpt lat="43.35697" lon="1.80574">
        <ele>236.414307</ele>
        <time>2023-01-04T12:44:32.092Z</time>
      </trkpt>
      <trkpt lat="43.35698" lon="1.80587">
        <ele>236.887188</ele>
        <time>2023-01-04T12:44:36.094Z</time>
      </trkpt>
      <trkpt lat="43.357" lon="1.806">
        <ele>237.352444</ele>
        <time>2023-01-04T12:44:40.074Z</time>
      </trkpt>
      <trkpt lat="43.35703" lon="1.80613">
        <ele>237.818339</ele>
        <time>2023-01-04T12:44:45.086Z</time>
      </trkpt>
      <trkpt lat="43.35707" lon="1.80631">
        <ele>238.481619</ele>
        <time>2023-01-04T12:45:10.091Z</time>
      </trkpt>
      <trkpt lat="43.35711" lon="1.80643">
        <ele>238.942842</ele>
        <time>2023-01-04T12:45:15.095Z</time>
      </trkpt>
      <trkpt lat="43.35724" lon="1.80662">
        <ele>239.848232</ele>
        <time>2023-01-04T12:47:55.094Z</time>
      </trkpt>
      <trkpt lat="43.3573" lon="1.80671">
        <ele>239.806267</ele>
        <time>2023-01-04T12:47:59.092Z</time>
      </trkpt>
      <trkpt lat="43.35735" lon="1.80684">
        <ele>239.697664</ele>
        <time>2023-01-04T12:48:05.092Z</time>
      </trkpt>
      <trkpt lat="43.35739" lon="1.80698">
        <ele>239.577466</ele>
        <time>2023-01-04T12:48:10.089Z</time>
      </trkpt>
      <trkpt lat="43.35743" lon="1.80711">
        <ele>239.45714</ele>
        <time>2023-01-04T12:48:14.143Z</time>
      </trkpt>
      <trkpt lat="43.35747" lon="1.80726">
        <ele>239.329837</ele>
        <time>2023-01-04T12:48:18.091Z</time>
      </trkpt>
      <trkpt lat="43.35752" lon="1.80741">
        <ele>239.198789</ele>
        <time>2023-01-04T12:48:22.094Z</time>
      </trkpt>
      <trkpt lat="43.35755" lon="1.80757">
        <ele>239.069527</ele>
        <time>2023-01-04T12:48:26.144Z</time>
      </trkpt>
      <trkpt lat="43.35758" lon="1.80769">
        <ele>238.962878</ele>
        <time>2023-01-04T12:48:29.092Z</time>
      </trkpt>
      <trkpt lat="43.3576" lon="1.80785">
        <ele>238.839819</ele>
        <time>2023-01-04T12:48:33.092Z</time>
      </trkpt>
      <trkpt lat="43.35763" lon="1.80798">
        <ele>238.731254</ele>
        <time>2023-01-04T12:48:36.096Z</time>
      </trkpt>
      <trkpt lat="43.35766" lon="1.80813">
        <ele>238.606731</ele>
        <time>2023-01-04T12:48:39.094Z</time>
      </trkpt>
      <trkpt lat="43.35769" lon="1.80828">
        <ele>238.482983</ele>
        <time>2023-01-04T12:48:42.097Z</time>
      </trkpt>
      <trkpt lat="43.35773" lon="1.80843">
        <ele>238.350805</ele>
        <time>2023-01-04T12:48:45.092Z</time>
      </trkpt>
      <trkpt lat="43.35775" lon="1.80859">
        <ele>238.22175</ele>
        <time>2023-01-04T12:48:48.092Z</time>
      </trkpt>
      <trkpt lat="43.35778" lon="1.80875">
        <ele>238.091159</ele>
        <time>2023-01-04T12:48:52.092Z</time>
      </trkpt>
      <trkpt lat="43.3578" lon="1.80889">
        <ele>237.979127</ele>
        <time>2023-01-04T12:48:55.093Z</time>
      </trkpt>
      <trkpt lat="43.3578" lon="1.80905">
        <ele>237.909921</ele>
        <time>2023-01-04T12:48:58.098Z</time>
      </trkpt>
      <trkpt lat="43.35781" lon="1.80921">
        <ele>237.890616</ele>
        <time>2023-01-04T12:49:01.093Z</time>
      </trkpt>
      <trkpt lat="43.35784" lon="1.80936">
        <ele>237.87133</ele>
        <time>2023-01-04T12:49:04.091Z</time>
      </trkpt>
      <trkpt lat="43.35786" lon="1.80949">
        <ele>237.855632</ele>
        <time>2023-01-04T12:49:07.149Z</time>
      </trkpt>
      <trkpt lat="43.35787" lon="1.80964">
        <ele>237.837783</ele>
        <time>2023-01-04T12:49:10.090Z</time>
      </trkpt>
      <trkpt lat="43.35789" lon="1.8098">
        <ele>237.81822</ele>
        <time>2023-01-04T12:49:13.140Z</time>
      </trkpt>
      <trkpt lat="43.35791" lon="1.80996">
        <ele>237.798968</ele>
        <time>2023-01-04T12:49:16.093Z</time>
      </trkpt>
      <trkpt lat="43.35792" lon="1.81012">
        <ele>237.77981</ele>
        <time>2023-01-04T12:49:19.143Z</time>
      </trkpt>
      <trkpt lat="43.35793" lon="1.81029">
        <ele>237.759537</ele>
        <time>2023-01-04T12:49:22.094Z</time>
      </trkpt>
      <trkpt lat="43.35794" lon="1.81047">
        <ele>237.738441</ele>
        <time>2023-01-04T12:49:25.135Z</time>
      </trkpt>
      <trkpt lat="43.35794" lon="1.81063">
        <ele>237.719612</ele>
        <time>2023-01-04T12:49:28.103Z</time>
      </trkpt>
      <trkpt lat="43.35795" lon="1.81078">
        <ele>237.702073</ele>
        <time>2023-01-04T12:49:31.170Z</time>
      </trkpt>
      <trkpt lat="43.35796" lon="1.81093">
        <ele>237.683649</ele>
        <time>2023-01-04T12:49:34.092Z</time>
      </trkpt>
      <trkpt lat="43.35798" lon="1.81109">
        <ele>237.664761</ele>
        <time>2023-01-04T12:49:37.140Z</time>
      </trkpt>
      <trkpt lat="43.35799" lon="1.81122">
        <ele>237.648199</ele>
        <time>2023-01-04T12:49:40.086Z</time>
      </trkpt>
      <trkpt lat="43.35796" lon="1.81135">
        <ele>237.632921</ele>
        <time>2023-01-04T12:49:42.095Z</time>
      </trkpt>
      <trkpt lat="43.35795" lon="1.81152">
        <ele>237.616118</ele>
        <time>2023-01-04T12:49:45.096Z</time>
      </trkpt>
      <trkpt lat="43.35794" lon="1.81168">
        <ele>237.602284</ele>
        <time>2023-01-04T12:49:48.093Z</time>
      </trkpt>
      <trkpt lat="43.35792" lon="1.81185">
        <ele>237.587902</ele>
        <time>2023-01-04T12:49:51.090Z</time>
      </trkpt>
      <trkpt lat="43.35791" lon="1.81199">
        <ele>237.575913</ele>
        <time>2023-01-04T12:50:04.092Z</time>
      </trkpt>
      <trkpt lat="43.3579" lon="1.81214">
        <ele>237.562323</ele>
        <time>2023-01-04T12:50:09.085Z</time>
      </trkpt>
      <trkpt lat="43.35788" lon="1.81227">
        <ele>237.551528</ele>
        <time>2023-01-04T12:50:12.095Z</time>
      </trkpt>
      <trkpt lat="43.35786" lon="1.81241">
        <ele>237.538902</ele>
        <time>2023-01-04T12:50:15.096Z</time>
      </trkpt>
      <trkpt lat="43.35784" lon="1.81257">
        <ele>237.52514</ele>
        <time>2023-01-04T12:50:18.092Z</time>
      </trkpt>
      <trkpt lat="43.35782" lon="1.81271">
        <ele>237.51278</ele>
        <time>2023-01-04T12:50:21.091Z</time>
      </trkpt>
      <trkpt lat="43.3578" lon="1.81286">
        <ele>237.499948</ele>
        <time>2023-01-04T12:50:24.072Z</time>
      </trkpt>
      <trkpt lat="43.35776" lon="1.813">
        <ele>237.487486</ele>
        <time>2023-01-04T12:50:27.091Z</time>
      </trkpt>
      <trkpt lat="43.35774" lon="1.81312">
        <ele>237.476739</ele>
        <time>2023-01-04T12:50:30.092Z</time>
      </trkpt>
      <trkpt lat="43.3577" lon="1.81325">
        <ele>237.464876</ele>
        <time>2023-01-04T12:50:33.095Z</time>
      </trkpt>
      <trkpt lat="43.35767" lon="1.81337">
        <ele>237.453523</ele>
        <time>2023-01-04T12:50:36.093Z</time>
      </trkpt>
      <trkpt lat="43.35764" lon="1.8135">
        <ele>237.442066</ele>
        <time>2023-01-04T12:50:39.093Z</time>
      </trkpt>
      <trkpt lat="43.3576" lon="1.81365">
        <ele>237.428353</ele>
        <time>2023-01-04T12:50:42.092Z</time>
      </trkpt>
      <trkpt lat="43.35756" lon="1.81381">
        <ele>237.413807</ele>
        <time>2023-01-04T12:50:45.071Z</time>
      </trkpt>
      <trkpt lat="43.35752" lon="1.81397">
        <ele>237.330925</ele>
        <time>2023-01-04T12:50:48.091Z</time>
      </trkpt>
      <trkpt lat="43.35748" lon="1.81412">
        <ele>237.24919</ele>
        <time>2023-01-04T12:50:51.094Z</time>
      </trkpt>
      <trkpt lat="43.35744" lon="1.81428">
        <ele>237.166807</ele>
        <time>2023-01-04T12:50:54.095Z</time>
      </trkpt>
      <trkpt lat="43.3574" lon="1.81443">
        <ele>237.085363</ele>
        <time>2023-01-04T12:50:57.092Z</time>
      </trkpt>
      <trkpt lat="43.35735" lon="1.81461">
        <ele>236.993614</ele>
        <time>2023-01-04T12:51:00.135Z</time>
      </trkpt>
      <trkpt lat="43.35732" lon="1.81472">
        <ele>236.930184</ele>
        <time>2023-01-04T12:51:02.094Z</time>
      </trkpt>
      <trkpt lat="43.35727" lon="1.81489">
        <ele>236.843061</ele>
        <time>2023-01-04T12:51:05.091Z</time>
      </trkpt>
      <trkpt lat="43.35723" lon="1.81504">
        <ele>236.758041</ele>
        <time>2023-01-04T12:51:08.094Z</time>
      </trkpt>
      <trkpt lat="43.35718" lon="1.81518">
        <ele>236.683625</ele>
        <time>2023-01-04T12:51:11.094Z</time>
      </trkpt>
      <trkpt lat="43.35712" lon="1.81535">
        <ele>236.589031</ele>
        <time>2023-01-04T12:51:14.092Z</time>
      </trkpt>
      <trkpt lat="43.35708" lon="1.81547">
        <ele>236.527185</ele>
        <time>2023-01-04T12:51:16.088Z</time>
      </trkpt>
      <trkpt lat="43.35703" lon="1.81562">
        <ele>236.44109</ele>
        <time>2023-01-04T12:51:19.090Z</time>
      </trkpt>
      <trkpt lat="43.35697" lon="1.81577">
        <ele>236.356536</ele>
        <time>2023-01-04T12:51:22.087Z</time>
      </trkpt>
      <trkpt lat="43.35692" lon="1.81592">
        <ele>236.274182</ele>
        <time>2023-01-04T12:51:25.091Z</time>
      </trkpt>
      <trkpt lat="43.35687" lon="1.81606">
        <ele>236.196053</ele>
        <time>2023-01-04T12:51:28.093Z</time>
      </trkpt>
      <trkpt lat="43.35683" lon="1.81619">
        <ele>236.228329</ele>
        <time>2023-01-04T12:51:31.077Z</time>
      </trkpt>
      <trkpt lat="43.3568" lon="1.81634">
        <ele>236.289963</ele>
        <time>2023-01-04T12:51:35.143Z</time>
      </trkpt>
      <trkpt lat="43.3568" lon="1.81648">
        <ele>236.349973</ele>
        <time>2023-01-04T12:51:40.092Z</time>
      </trkpt>
      <trkpt lat="43.35674" lon="1.81659">
        <ele>236.40422</ele>
        <time>2023-01-04T12:51:45.092Z</time>
      </trkpt>
      <trkpt lat="43.35669" lon="1.81669">
        <ele>236.45612</ele>
        <time>2023-01-04T12:51:49.093Z</time>
      </trkpt>
      <trkpt lat="43.35663" lon="1.81682">
        <ele>236.516584</ele>
        <time>2023-01-04T12:51:53.091Z</time>
      </trkpt>
      <trkpt lat="43.35657" lon="1.81693">
        <ele>236.571572</ele>
        <time>2023-01-04T12:51:56.094Z</time>
      </trkpt>
      <trkpt lat="43.3565" lon="1.81706">
        <ele>236.638009</ele>
        <time>2023-01-04T12:51:59.091Z</time>
      </trkpt>
      <trkpt lat="43.35643" lon="1.81719">
        <ele>236.705371</ele>
        <time>2023-01-04T12:52:02.073Z</time>
      </trkpt>
      <trkpt lat="43.35635" lon="1.81731">
        <ele>236.772595</ele>
        <time>2023-01-04T12:52:05.087Z</time>
      </trkpt>
      <trkpt lat="43.35625" lon="1.81744">
        <ele>236.845778</ele>
        <time>2023-01-04T12:52:08.091Z</time>
      </trkpt>
      <trkpt lat="43.35618" lon="1.81752">
        <ele>236.898749</ele>
        <time>2023-01-04T12:52:10.154Z</time>
      </trkpt>
      <trkpt lat="43.35609" lon="1.81765">
        <ele>236.972272</ele>
        <time>2023-01-04T12:52:13.091Z</time>
      </trkpt>
      <trkpt lat="43.35601" lon="1.81776">
        <ele>237.037835</ele>
        <time>2023-01-04T12:52:16.092Z</time>
      </trkpt>
      <trkpt lat="43.35595" lon="1.81786">
        <ele>237.090251</ele>
        <time>2023-01-04T12:52:19.067Z</time>
      </trkpt>
      <trkpt lat="43.35588" lon="1.81796">
        <ele>237.14359</ele>
        <time>2023-01-04T12:52:22.094Z</time>
      </trkpt>
      <trkpt lat="43.3558" lon="1.81806">
        <ele>237.246774</ele>
        <time>2023-01-04T12:52:26.095Z</time>
      </trkpt>
      <trkpt lat="43.35571" lon="1.81813">
        <ele>237.42479</ele>
        <time>2023-01-04T12:52:30.095Z</time>
      </trkpt>
      <trkpt lat="43.3556" lon="1.81818">
        <ele>237.63771</ele>
        <time>2023-01-04T12:52:34.105Z</time>
      </trkpt>
      <trkpt lat="43.35552" lon="1.81826">
        <ele>237.816788</ele>
        <time>2023-01-04T12:52:38.093Z</time>
      </trkpt>
      <trkpt lat="43.35543" lon="1.8183">
        <ele>237.981058</ele>
        <time>2023-01-04T12:52:43.095Z</time>
      </trkpt>
      <trkpt lat="43.35534" lon="1.81839">
        <ele>238.186884</ele>
        <time>2023-01-04T12:52:48.094Z</time>
      </trkpt>
      <trkpt lat="43.35525" lon="1.81847">
        <ele>238.384612</ele>
        <time>2023-01-04T12:52:53.096Z</time>
      </trkpt>
      <trkpt lat="43.35517" lon="1.81856">
        <ele>238.567404</ele>
        <time>2023-01-04T12:52:57.082Z</time>
      </trkpt>
      <trkpt lat="43.35508" lon="1.81867">
        <ele>238.773014</ele>
        <time>2023-01-04T12:53:01.087Z</time>
      </trkpt>
      <trkpt lat="43.35499" lon="1.81876">
        <ele>238.982596</ele>
        <time>2023-01-04T12:53:05.072Z</time>
      </trkpt>
      <trkpt lat="43.35489" lon="1.81885">
        <ele>239.19886</ele>
        <time>2023-01-04T12:53:09.091Z</time>
      </trkpt>
      <trkpt lat="43.35481" lon="1.81892">
        <ele>239.371267</ele>
        <time>2023-01-04T12:53:12.086Z</time>
      </trkpt>
      <trkpt lat="43.35472" lon="1.819">
        <ele>239.552611</ele>
        <time>2023-01-04T12:53:15.068Z</time>
      </trkpt>
      <trkpt lat="43.35464" lon="1.81909">
        <ele>239.738784</ele>
        <time>2023-01-04T12:53:18.093Z</time>
      </trkpt>
      <trkpt lat="43.35456" lon="1.81916">
        <ele>239.918605</ele>
        <time>2023-01-04T12:53:21.089Z</time>
      </trkpt>
      <trkpt lat="43.35446" lon="1.81925">
        <ele>240.129795</ele>
        <time>2023-01-04T12:53:25.170Z</time>
      </trkpt>
      <trkpt lat="43.35439" lon="1.81933">
        <ele>240.299972</ele>
        <time>2023-01-04T12:53:28.093Z</time>
      </trkpt>
      <trkpt lat="43.3543" lon="1.8194">
        <ele>240.396251</ele>
        <time>2023-01-04T12:53:31.096Z</time>
      </trkpt>
      <trkpt lat="43.35421" lon="1.81948">
        <ele>240.214994</ele>
        <time>2023-01-04T12:53:34.094Z</time>
      </trkpt>
      <trkpt lat="43.35412" lon="1.81956">
        <ele>240.034184</ele>
        <time>2023-01-04T12:53:37.089Z</time>
      </trkpt>
      <trkpt lat="43.35403" lon="1.81964">
        <ele>239.867307</ele>
        <time>2023-01-04T12:53:40.070Z</time>
      </trkpt>
      <trkpt lat="43.35395" lon="1.81974">
        <ele>239.685895</ele>
        <time>2023-01-04T12:53:43.087Z</time>
      </trkpt>
      <trkpt lat="43.35385" lon="1.81983">
        <ele>239.5028</ele>
        <time>2023-01-04T12:53:46.093Z</time>
      </trkpt>
      <trkpt lat="43.35377" lon="1.81991">
        <ele>239.327806</ele>
        <time>2023-01-04T12:53:49.091Z</time>
      </trkpt>
      <trkpt lat="43.3537" lon="1.82">
        <ele>239.171642</ele>
        <time>2023-01-04T12:53:52.095Z</time>
      </trkpt>
      <trkpt lat="43.35364" lon="1.8201">
        <ele>239.019839</ele>
        <time>2023-01-04T12:53:55.093Z</time>
      </trkpt>
      <trkpt lat="43.35357" lon="1.82018">
        <ele>238.869166</ele>
        <time>2023-01-04T12:53:58.091Z</time>
      </trkpt>
      <trkpt lat="43.35351" lon="1.82027">
        <ele>238.720721</ele>
        <time>2023-01-04T12:54:02.095Z</time>
      </trkpt>
      <trkpt lat="43.35344" lon="1.82039">
        <ele>238.543225</ele>
        <time>2023-01-04T12:54:08.093Z</time>
      </trkpt>
      <trkpt lat="43.35337" lon="1.82049">
        <ele>238.378432</ele>
        <time>2023-01-04T12:54:11.142Z</time>
      </trkpt>
      <trkpt lat="43.35328" lon="1.8206">
        <ele>238.18102</ele>
        <time>2023-01-04T12:54:14.092Z</time>
      </trkpt>
      <trkpt lat="43.3532" lon="1.82071">
        <ele>237.989642</ele>
        <time>2023-01-04T12:54:17.076Z</time>
      </trkpt>
      <trkpt lat="43.35312" lon="1.82083">
        <ele>237.795755</ele>
        <time>2023-01-04T12:54:20.092Z</time>
      </trkpt>
      <trkpt lat="43.35303" lon="1.82093">
        <ele>237.607524</ele>
        <time>2023-01-04T12:54:23.077Z</time>
      </trkpt>
      <trkpt lat="43.35295" lon="1.82102">
        <ele>237.527014</ele>
        <time>2023-01-04T12:54:26.094Z</time>
      </trkpt>
      <trkpt lat="43.35286" lon="1.82111">
        <ele>237.670067</ele>
        <time>2023-01-04T12:54:29.076Z</time>
      </trkpt>
      <trkpt lat="43.35278" lon="1.82123">
        <ele>237.811026</ele>
        <time>2023-01-04T12:54:32.095Z</time>
      </trkpt>
      <trkpt lat="43.35271" lon="1.82135">
        <ele>237.95447</ele>
        <time>2023-01-04T12:54:35.074Z</time>
      </trkpt>
      <trkpt lat="43.35264" lon="1.82145">
        <ele>238.085674</ele>
        <time>2023-01-04T12:54:38.091Z</time>
      </trkpt>
      <trkpt lat="43.35256" lon="1.82153">
        <ele>238.211548</ele>
        <time>2023-01-04T12:54:41.093Z</time>
      </trkpt>
      <trkpt lat="43.35248" lon="1.82163">
        <ele>238.339257</ele>
        <time>2023-01-04T12:54:44.093Z</time>
      </trkpt>
      <trkpt lat="43.35242" lon="1.82173">
        <ele>238.459517</ele>
        <time>2023-01-04T12:54:47.098Z</time>
      </trkpt>
      <trkpt lat="43.35235" lon="1.82183">
        <ele>238.590445</ele>
        <time>2023-01-04T12:54:50.091Z</time>
      </trkpt>
      <trkpt lat="43.35229" lon="1.82192">
        <ele>238.710666</ele>
        <time>2023-01-04T12:54:53.073Z</time>
      </trkpt>
      <trkpt lat="43.3522" lon="1.82202">
        <ele>238.853563</ele>
        <time>2023-01-04T12:54:57.091Z</time>
      </trkpt>
      <trkpt lat="43.35212" lon="1.82212">
        <ele>238.99213</ele>
        <time>2023-01-04T12:55:01.099Z</time>
      </trkpt>
      <trkpt lat="43.35204" lon="1.82222">
        <ele>239.125455</ele>
        <time>2023-01-04T12:55:04.093Z</time>
      </trkpt>
      <trkpt lat="43.35197" lon="1.82231">
        <ele>239.245676</ele>
        <time>2023-01-04T12:55:07.094Z</time>
      </trkpt>
      <trkpt lat="43.35189" lon="1.82239">
        <ele>239.374683</ele>
        <time>2023-01-04T12:55:11.092Z</time>
      </trkpt>
      <trkpt lat="43.35182" lon="1.8225">
        <ele>239.51036</ele>
        <time>2023-01-04T12:55:16.095Z</time>
      </trkpt>
      <trkpt lat="43.35175" lon="1.82259">
        <ele>239.632708</ele>
        <time>2023-01-04T12:55:21.093Z</time>
      </trkpt>
      <trkpt lat="43.35168" lon="1.8227">
        <ele>239.760275</ele>
        <time>2023-01-04T12:55:26.077Z</time>
      </trkpt>
      <trkpt lat="43.35161" lon="1.82279">
        <ele>239.775548</ele>
        <time>2023-01-04T12:55:31.092Z</time>
      </trkpt>
      <trkpt lat="43.35151" lon="1.82276">
        <ele>239.787041</ele>
        <time>2023-01-04T12:55:36.149Z</time>
      </trkpt>
      <trkpt lat="43.35142" lon="1.82271">
        <ele>239.796952</ele>
        <time>2023-01-04T12:55:39.094Z</time>
      </trkpt>
      <trkpt lat="43.35133" lon="1.82268">
        <ele>239.806751</ele>
        <time>2023-01-04T12:55:42.143Z</time>
      </trkpt>
      <trkpt lat="43.35123" lon="1.8227">
        <ele>239.817185</ele>
        <time>2023-01-04T12:55:45.094Z</time>
      </trkpt>
      <trkpt lat="43.35113" lon="1.82278">
        <ele>239.828657</ele>
        <time>2023-01-04T12:55:48.094Z</time>
      </trkpt>
      <trkpt lat="43.35104" lon="1.82286">
        <ele>239.84082</ele>
        <time>2023-01-04T12:55:51.073Z</time>
      </trkpt>
      <trkpt lat="43.35093" lon="1.82295">
        <ele>239.853705</ele>
        <time>2023-01-04T12:55:54.093Z</time>
      </trkpt>
      <trkpt lat="43.35083" lon="1.82306">
        <ele>239.86736</ele>
        <time>2023-01-04T12:55:57.090Z</time>
      </trkpt>
      <trkpt lat="43.35072" lon="1.82316">
        <ele>239.881391</ele>
        <time>2023-01-04T12:56:00.094Z</time>
      </trkpt>
      <trkpt lat="43.3506" lon="1.82324">
        <ele>239.895607</ele>
        <time>2023-01-04T12:56:03.092Z</time>
      </trkpt>
      <trkpt lat="43.35051" lon="1.82329">
        <ele>239.905511</ele>
        <time>2023-01-04T12:56:05.095Z</time>
      </trkpt>
      <trkpt lat="43.35042" lon="1.82333">
        <ele>239.915683</ele>
        <time>2023-01-04T12:56:07.094Z</time>
      </trkpt>
      <trkpt lat="43.35032" lon="1.82337">
        <ele>239.92662</ele>
        <time>2023-01-04T12:56:09.093Z</time>
      </trkpt>
      <trkpt lat="43.35022" lon="1.8234">
        <ele>239.937873</ele>
        <time>2023-01-04T12:56:11.077Z</time>
      </trkpt>
      <trkpt lat="43.3501" lon="1.82344">
        <ele>239.949862</ele>
        <time>2023-01-04T12:56:13.092Z</time>
      </trkpt>
      <trkpt lat="43.34999" lon="1.82347">
        <ele>239.84655</ele>
        <time>2023-01-04T12:56:15.105Z</time>
      </trkpt>
      <trkpt lat="43.34988" lon="1.8235">
        <ele>239.659132</ele>
        <time>2023-01-04T12:56:17.093Z</time>
      </trkpt>
      <trkpt lat="43.34977" lon="1.82354">
        <ele>239.467249</ele>
        <time>2023-01-04T12:56:19.091Z</time>
      </trkpt>
      <trkpt lat="43.34965" lon="1.82357">
        <ele>239.276378</ele>
        <time>2023-01-04T12:56:21.138Z</time>
      </trkpt>
      <trkpt lat="43.34953" lon="1.8236">
        <ele>239.079301</ele>
        <time>2023-01-04T12:56:23.093Z</time>
      </trkpt>
      <trkpt lat="43.34942" lon="1.82363">
        <ele>238.883606</ele>
        <time>2023-01-04T12:56:25.094Z</time>
      </trkpt>
      <trkpt lat="43.3493" lon="1.82367">
        <ele>238.69064</ele>
        <time>2023-01-04T12:56:27.150Z</time>
      </trkpt>
      <trkpt lat="43.34919" lon="1.82369">
        <ele>238.500452</ele>
        <time>2023-01-04T12:56:29.089Z</time>
      </trkpt>
      <trkpt lat="43.34908" lon="1.82373">
        <ele>238.31761</ele>
        <time>2023-01-04T12:56:31.094Z</time>
      </trkpt>
      <trkpt lat="43.34897" lon="1.82375">
        <ele>238.137534</ele>
        <time>2023-01-04T12:56:33.113Z</time>
      </trkpt>
      <trkpt lat="43.34886" lon="1.82378">
        <ele>237.954938</ele>
        <time>2023-01-04T12:56:35.096Z</time>
      </trkpt>
      <trkpt lat="43.34876" lon="1.82381">
        <ele>237.785429</ele>
        <time>2023-01-04T12:56:37.103Z</time>
      </trkpt>
      <trkpt lat="43.34866" lon="1.82384">
        <ele>237.622132</ele>
        <time>2023-01-04T12:56:39.131Z</time>
      </trkpt>
      <trkpt lat="43.34857" lon="1.82387">
        <ele>237.466743</ele>
        <time>2023-01-04T12:56:41.093Z</time>
      </trkpt>
      <trkpt lat="43.34845" lon="1.82391">
        <ele>237.256471</ele>
        <time>2023-01-04T12:56:44.090Z</time>
      </trkpt>
      <trkpt lat="43.34833" lon="1.82395">
        <ele>237.056845</ele>
        <time>2023-01-04T12:56:47.096Z</time>
      </trkpt>
      <trkpt lat="43.3482" lon="1.82401">
        <ele>236.89418</ele>
        <time>2023-01-04T12:56:50.095Z</time>
      </trkpt>
      <trkpt lat="43.34809" lon="1.82408">
        <ele>236.752146</ele>
        <time>2023-01-04T12:56:53.077Z</time>
      </trkpt>
      <trkpt lat="43.34798" lon="1.82416">
        <ele>236.612893</ele>
        <time>2023-01-04T12:56:56.095Z</time>
      </trkpt>
      <trkpt lat="43.34787" lon="1.82426">
        <ele>236.467712</ele>
        <time>2023-01-04T12:56:59.097Z</time>
      </trkpt>
      <trkpt lat="43.34775" lon="1.82435">
        <ele>236.317299</ele>
        <time>2023-01-04T12:57:02.094Z</time>
      </trkpt>
      <trkpt lat="43.34764" lon="1.82445">
        <ele>236.169236</ele>
        <time>2023-01-04T12:57:05.094Z</time>
      </trkpt>
      <trkpt lat="43.34756" lon="1.82452">
        <ele>236.062788</ele>
        <time>2023-01-04T12:57:07.090Z</time>
      </trkpt>
      <trkpt lat="43.34747" lon="1.82458">
        <ele>235.956774</ele>
        <time>2023-01-04T12:57:09.134Z</time>
      </trkpt>
      <trkpt lat="43.34739" lon="1.82464">
        <ele>235.849993</ele>
        <time>2023-01-04T12:57:11.071Z</time>
      </trkpt>
      <trkpt lat="43.34731" lon="1.82471">
        <ele>235.740039</ele>
        <time>2023-01-04T12:57:13.095Z</time>
      </trkpt>
      <trkpt lat="43.34722" lon="1.82478">
        <ele>235.626582</ele>
        <time>2023-01-04T12:57:15.150Z</time>
      </trkpt>
      <trkpt lat="43.34713" lon="1.82485">
        <ele>235.511753</ele>
        <time>2023-01-04T12:57:17.095Z</time>
      </trkpt>
      <trkpt lat="43.34704" lon="1.82493">
        <ele>235.392394</ele>
        <time>2023-01-04T12:57:19.074Z</time>
      </trkpt>
      <trkpt lat="43.34695" lon="1.825">
        <ele>235.277791</ele>
        <time>2023-01-04T12:57:21.145Z</time>
      </trkpt>
      <trkpt lat="43.34686" lon="1.82507">
        <ele>235.163625</ele>
        <time>2023-01-04T12:57:23.076Z</time>
      </trkpt>
      <trkpt lat="43.34678" lon="1.82514">
        <ele>235.052211</ele>
        <time>2023-01-04T12:57:25.092Z</time>
      </trkpt>
      <trkpt lat="43.34669" lon="1.82521">
        <ele>235.010279</ele>
        <time>2023-01-04T12:57:27.149Z</time>
      </trkpt>
      <trkpt lat="43.3466" lon="1.82528">
        <ele>235.038504</ele>
        <time>2023-01-04T12:57:29.090Z</time>
      </trkpt>
      <trkpt lat="43.34652" lon="1.82534">
        <ele>235.06523</ele>
        <time>2023-01-04T12:57:31.096Z</time>
      </trkpt>
      <trkpt lat="43.34644" lon="1.82542">
        <ele>235.092216</ele>
        <time>2023-01-04T12:57:33.142Z</time>
      </trkpt>
      <trkpt lat="43.34636" lon="1.82549">
        <ele>235.118509</ele>
        <time>2023-01-04T12:57:35.094Z</time>
      </trkpt>
      <trkpt lat="43.34627" lon="1.82556">
        <ele>235.145777</ele>
        <time>2023-01-04T12:57:37.083Z</time>
      </trkpt>
      <trkpt lat="43.34619" lon="1.82563">
        <ele>235.172099</ele>
        <time>2023-01-04T12:57:39.174Z</time>
      </trkpt>
      <trkpt lat="43.34611" lon="1.82569">
        <ele>235.199027</ele>
        <time>2023-01-04T12:57:41.074Z</time>
      </trkpt>
      <trkpt lat="43.34602" lon="1.82576">
        <ele>235.225615</ele>
        <time>2023-01-04T12:57:43.092Z</time>
      </trkpt>
      <trkpt lat="43.34595" lon="1.82583">
        <ele>235.251226</ele>
        <time>2023-01-04T12:57:45.143Z</time>
      </trkpt>
      <trkpt lat="43.34587" lon="1.8259">
        <ele>235.276762</ele>
        <time>2023-01-04T12:57:47.095Z</time>
      </trkpt>
      <trkpt lat="43.34578" lon="1.82597">
        <ele>235.304001</ele>
        <time>2023-01-04T12:57:49.069Z</time>
      </trkpt>
      <trkpt lat="43.3457" lon="1.82603">
        <ele>235.33053</ele>
        <time>2023-01-04T12:57:51.172Z</time>
      </trkpt>
      <trkpt lat="43.34562" lon="1.8261">
        <ele>235.35672</ele>
        <time>2023-01-04T12:57:53.095Z</time>
      </trkpt>
      <trkpt lat="43.34553" lon="1.82617">
        <ele>235.384906</ele>
        <time>2023-01-04T12:57:55.091Z</time>
      </trkpt>
      <trkpt lat="43.34545" lon="1.82623">
        <ele>235.410576</ele>
        <time>2023-01-04T12:57:57.141Z</time>
      </trkpt>
      <trkpt lat="43.34537" lon="1.8263">
        <ele>235.436623</ele>
        <time>2023-01-04T12:57:59.093Z</time>
      </trkpt>
      <trkpt lat="43.34528" lon="1.82637">
        <ele>235.463522</ele>
        <time>2023-01-04T12:58:01.094Z</time>
      </trkpt>
      <trkpt lat="43.3452" lon="1.82644">
        <ele>235.491336</ele>
        <time>2023-01-04T12:58:03.151Z</time>
      </trkpt>
      <trkpt lat="43.34511" lon="1.82651">
        <ele>235.572927</ele>
        <time>2023-01-04T12:58:05.095Z</time>
      </trkpt>
      <trkpt lat="43.34502" lon="1.82659">
        <ele>235.65895</ele>
        <time>2023-01-04T12:58:07.073Z</time>
      </trkpt>
      <trkpt lat="43.34495" lon="1.82665">
        <ele>235.736608</ele>
        <time>2023-01-04T12:58:09.140Z</time>
      </trkpt>
      <trkpt lat="43.34484" lon="1.82674">
        <ele>235.844661</ele>
        <time>2023-01-04T12:58:12.091Z</time>
      </trkpt>
      <trkpt lat="43.34474" lon="1.82683">
        <ele>235.942152</ele>
        <time>2023-01-04T12:58:15.142Z</time>
      </trkpt>
      <trkpt lat="43.34465" lon="1.82694">
        <ele>236.049305</ele>
        <time>2023-01-04T12:58:18.095Z</time>
      </trkpt>
      <trkpt lat="43.34455" lon="1.82708">
        <ele>236.163988</ele>
        <time>2023-01-04T12:58:21.149Z</time>
      </trkpt>
      <trkpt lat="43.34446" lon="1.82721">
        <ele>236.275845</ele>
        <time>2023-01-04T12:58:24.094Z</time>
      </trkpt>
      <trkpt lat="43.34441" lon="1.82731">
        <ele>236.35226</ele>
        <time>2023-01-04T12:58:26.094Z</time>
      </trkpt>
      <trkpt lat="43.34436" lon="1.82742">
        <ele>236.432253</ele>
        <time>2023-01-04T12:58:28.094Z</time>
      </trkpt>
      <trkpt lat="43.34431" lon="1.82753">
        <ele>236.513218</ele>
        <time>2023-01-04T12:58:30.094Z</time>
      </trkpt>
      <trkpt lat="43.34425" lon="1.82763">
        <ele>236.593016</ele>
        <time>2023-01-04T12:58:32.095Z</time>
      </trkpt>
      <trkpt lat="43.3442" lon="1.82774">
        <ele>236.66995</ele>
        <time>2023-01-04T12:58:34.095Z</time>
      </trkpt>
      <trkpt lat="43.34415" lon="1.82785">
        <ele>236.752044</ele>
        <time>2023-01-04T12:58:36.097Z</time>
      </trkpt>
      <trkpt lat="43.34411" lon="1.82797">
        <ele>236.834723</ele>
        <time>2023-01-04T12:58:38.095Z</time>
      </trkpt>
      <trkpt lat="43.34406" lon="1.8281">
        <ele>236.923875</ele>
        <time>2023-01-04T12:58:40.077Z</time>
      </trkpt>
      <trkpt lat="43.34401" lon="1.82822">
        <ele>237.009159</ele>
        <time>2023-01-04T12:58:42.089Z</time>
      </trkpt>
      <trkpt lat="43.34397" lon="1.82835">
        <ele>237.046497</ele>
        <time>2023-01-04T12:58:44.094Z</time>
      </trkpt>
      <trkpt lat="43.34392" lon="1.82848">
        <ele>237.077463</ele>
        <time>2023-01-04T12:58:46.094Z</time>
      </trkpt>
      <trkpt lat="43.34388" lon="1.82859">
        <ele>237.106891</ele>
        <time>2023-01-04T12:58:48.094Z</time>
      </trkpt>
      <trkpt lat="43.34383" lon="1.82872">
        <ele>237.13725</ele>
        <time>2023-01-04T12:58:50.093Z</time>
      </trkpt>
      <trkpt lat="43.34379" lon="1.82884">
        <ele>237.167218</ele>
        <time>2023-01-04T12:58:52.088Z</time>
      </trkpt>
      <trkpt lat="43.34374" lon="1.82896">
        <ele>237.197184</ele>
        <time>2023-01-04T12:58:54.097Z</time>
      </trkpt>
      <trkpt lat="43.34369" lon="1.82909">
        <ele>237.228352</ele>
        <time>2023-01-04T12:58:56.095Z</time>
      </trkpt>
      <trkpt lat="43.34365" lon="1.82921">
        <ele>237.259103</ele>
        <time>2023-01-04T12:58:58.088Z</time>
      </trkpt>
      <trkpt lat="43.3436" lon="1.82934">
        <ele>237.290548</ele>
        <time>2023-01-04T12:59:00.091Z</time>
      </trkpt>
      <trkpt lat="43.34355" lon="1.82946">
        <ele>237.320807</ele>
        <time>2023-01-04T12:59:02.098Z</time>
      </trkpt>
      <trkpt lat="43.3435" lon="1.82958">
        <ele>237.3511</ele>
        <time>2023-01-04T12:59:04.146Z</time>
      </trkpt>
      <trkpt lat="43.34346" lon="1.8297">
        <ele>237.379683</ele>
        <time>2023-01-04T12:59:06.095Z</time>
      </trkpt>
      <trkpt lat="43.34341" lon="1.82982">
        <ele>237.410511</ele>
        <time>2023-01-04T12:59:08.092Z</time>
      </trkpt>
      <trkpt lat="43.34337" lon="1.82994">
        <ele>237.438765</ele>
        <time>2023-01-04T12:59:10.139Z</time>
      </trkpt>
      <trkpt lat="43.34331" lon="1.8301">
        <ele>237.478147</ele>
        <time>2023-01-04T12:59:13.095Z</time>
      </trkpt>
      <trkpt lat="43.34326" lon="1.83022">
        <ele>237.50857</ele>
        <time>2023-01-04T12:59:15.096Z</time>
      </trkpt>
      <trkpt lat="43.34322" lon="1.83035">
        <ele>237.538087</ele>
        <time>2023-01-04T12:59:17.088Z</time>
      </trkpt>
      <trkpt lat="43.34315" lon="1.83051">
        <ele>237.548263</ele>
        <time>2023-01-04T12:59:20.070Z</time>
      </trkpt>
      <trkpt lat="43.34311" lon="1.83064">
        <ele>237.528924</ele>
        <time>2023-01-04T12:59:22.102Z</time>
      </trkpt>
      <trkpt lat="43.34307" lon="1.83076">
        <ele>237.509621</ele>
        <time>2023-01-04T12:59:24.093Z</time>
      </trkpt>
      <trkpt lat="43.34303" lon="1.83088">
        <ele>237.491273</ele>
        <time>2023-01-04T12:59:26.074Z</time>
      </trkpt>
      <trkpt lat="43.34299" lon="1.831">
        <ele>237.473313</ele>
        <time>2023-01-04T12:59:28.093Z</time>
      </trkpt>
      <trkpt lat="43.34295" lon="1.83112">
        <ele>237.454939</ele>
        <time>2023-01-04T12:59:30.093Z</time>
      </trkpt>
      <trkpt lat="43.34291" lon="1.83124">
        <ele>237.436192</ele>
        <time>2023-01-04T12:59:32.095Z</time>
      </trkpt>
      <trkpt lat="43.34287" lon="1.83136">
        <ele>237.416306</ele>
        <time>2023-01-04T12:59:34.093Z</time>
      </trkpt>
      <trkpt lat="43.34282" lon="1.83149">
        <ele>237.39684</ele>
        <time>2023-01-04T12:59:36.095Z</time>
      </trkpt>
      <trkpt lat="43.34277" lon="1.83161">
        <ele>237.377438</ele>
        <time>2023-01-04T12:59:38.096Z</time>
      </trkpt>
      <trkpt lat="43.34274" lon="1.83173">
        <ele>237.359142</ele>
        <time>2023-01-04T12:59:40.093Z</time>
      </trkpt>
      <trkpt lat="43.3427" lon="1.83185">
        <ele>237.33971</ele>
        <time>2023-01-04T12:59:42.095Z</time>
      </trkpt>
      <trkpt lat="43.34264" lon="1.83198">
        <ele>237.319534</ele>
        <time>2023-01-04T12:59:44.095Z</time>
      </trkpt>
      <trkpt lat="43.34259" lon="1.83211">
        <ele>237.298957</ele>
        <time>2023-01-04T12:59:46.095Z</time>
      </trkpt>
      <trkpt lat="43.34255" lon="1.83223">
        <ele>237.279322</ele>
        <time>2023-01-04T12:59:48.103Z</time>
      </trkpt>
      <trkpt lat="43.34251" lon="1.83234">
        <ele>237.261797</ele>
        <time>2023-01-04T12:59:50.093Z</time>
      </trkpt>
      <trkpt lat="43.34245" lon="1.8325">
        <ele>237.237723</ele>
        <time>2023-01-04T12:59:53.095Z</time>
      </trkpt>
      <trkpt lat="43.3424" lon="1.83264">
        <ele>237.215379</ele>
        <time>2023-01-04T12:59:56.089Z</time>
      </trkpt>
      <trkpt lat="43.34235" lon="1.83278">
        <ele>237.37773</ele>
        <time>2023-01-04T12:59:59.097Z</time>
      </trkpt>
      <trkpt lat="43.3423" lon="1.8329">
        <ele>237.545432</ele>
        <time>2023-01-04T13:00:02.094Z</time>
      </trkpt>
      <trkpt lat="43.34226" lon="1.83303">
        <ele>237.710588</ele>
        <time>2023-01-04T13:00:06.093Z</time>
      </trkpt>
      <trkpt lat="43.34221" lon="1.83314">
        <ele>237.86047</ele>
        <time>2023-01-04T13:00:09.156Z</time>
      </trkpt>
      <trkpt lat="43.34216" lon="1.83326">
        <ele>238.029703</ele>
        <time>2023-01-04T13:00:12.073Z</time>
      </trkpt>
      <trkpt lat="43.34211" lon="1.8334">
        <ele>238.208891</ele>
        <time>2023-01-04T13:00:15.146Z</time>
      </trkpt>
      <trkpt lat="43.34206" lon="1.83354">
        <ele>238.401565</ele>
        <time>2023-01-04T13:00:18.094Z</time>
      </trkpt>
      <trkpt lat="43.34201" lon="1.83369">
        <ele>238.592938</ele>
        <time>2023-01-04T13:00:21.141Z</time>
      </trkpt>
      <trkpt lat="43.34196" lon="1.83385">
        <ele>238.806704</ele>
        <time>2023-01-04T13:00:24.090Z</time>
      </trkpt>
      <trkpt lat="43.3419" lon="1.834">
        <ele>239.011577</ele>
        <time>2023-01-04T13:00:27.143Z</time>
      </trkpt>
      <trkpt lat="43.34184" lon="1.83414">
        <ele>239.202562</ele>
        <time>2023-01-04T13:00:30.092Z</time>
      </trkpt>
      <trkpt lat="43.34179" lon="1.83425">
        <ele>239.360921</ele>
        <time>2023-01-04T13:00:33.137Z</time>
      </trkpt>
      <trkpt lat="43.34174" lon="1.83439">
        <ele>239.54011</ele>
        <time>2023-01-04T13:00:37.094Z</time>
      </trkpt>
      <trkpt lat="43.34168" lon="1.83449">
        <ele>239.698186</ele>
        <time>2023-01-04T13:00:42.094Z</time>
      </trkpt>
      <trkpt lat="43.34159" lon="1.83478">
        <ele>240.069573</ele>
        <time>2023-01-04T13:01:37.140Z</time>
      </trkpt>
      <trkpt lat="43.34154" lon="1.83494">
        <ele>240.128331</ele>
        <time>2023-01-04T13:01:40.093Z</time>
      </trkpt>
      <trkpt lat="43.3415" lon="1.83506">
        <ele>240.089013</ele>
        <time>2023-01-04T13:01:42.094Z</time>
      </trkpt>
      <trkpt lat="43.34146" lon="1.83517">
        <ele>240.049299</ele>
        <time>2023-01-04T13:01:44.084Z</time>
      </trkpt>
      <trkpt lat="43.34142" lon="1.83528">
        <ele>240.00969</ele>
        <time>2023-01-04T13:01:46.094Z</time>
      </trkpt>
      <trkpt lat="43.34136" lon="1.83545">
        <ele>239.951559</ele>
        <time>2023-01-04T13:01:49.145Z</time>
      </trkpt>
      <trkpt lat="43.34131" lon="1.83561">
        <ele>239.89678</ele>
        <time>2023-01-04T13:01:52.077Z</time>
      </trkpt>
      <trkpt lat="43.34127" lon="1.83572">
        <ele>239.857934</ele>
        <time>2023-01-04T13:01:54.095Z</time>
      </trkpt>
      <trkpt lat="43.34122" lon="1.83587">
        <ele>239.804783</ele>
        <time>2023-01-04T13:01:57.095Z</time>
      </trkpt>
      <trkpt lat="43.34115" lon="1.83602">
        <ele>239.751144</ele>
        <time>2023-01-04T13:02:00.096Z</time>
      </trkpt>
      <trkpt lat="43.34109" lon="1.83617">
        <ele>239.696705</ele>
        <time>2023-01-04T13:02:03.099Z</time>
      </trkpt>
      <trkpt lat="43.34102" lon="1.83631">
        <ele>239.64356</ele>
        <time>2023-01-04T13:02:06.092Z</time>
      </trkpt>
      <trkpt lat="43.34095" lon="1.83646">
        <ele>239.586963</ele>
        <time>2023-01-04T13:02:09.095Z</time>
      </trkpt>
      <trkpt lat="43.34089" lon="1.83663">
        <ele>239.527991</ele>
        <time>2023-01-04T13:02:12.086Z</time>
      </trkpt>
      <trkpt lat="43.34085" lon="1.83674">
        <ele>239.48783</ele>
        <time>2023-01-04T13:02:14.076Z</time>
      </trkpt>
      <trkpt lat="43.34081" lon="1.83687">
        <ele>239.446705</ele>
        <time>2023-01-04T13:02:16.100Z</time>
      </trkpt>
      <trkpt lat="43.34078" lon="1.837">
        <ele>239.402497</ele>
        <time>2023-01-04T13:02:18.094Z</time>
      </trkpt>
      <trkpt lat="43.34075" lon="1.83713">
        <ele>239.307446</ele>
        <time>2023-01-04T13:02:20.094Z</time>
      </trkpt>
      <trkpt lat="43.34073" lon="1.83726">
        <ele>239.166708</ele>
        <time>2023-01-04T13:02:22.095Z</time>
      </trkpt>
      <trkpt lat="43.34072" lon="1.8374">
        <ele>239.030533</ele>
        <time>2023-01-04T13:02:24.133Z</time>
      </trkpt>
      <trkpt lat="43.34071" lon="1.83753">
        <ele>238.896737</ele>
        <time>2023-01-04T13:02:26.098Z</time>
      </trkpt>
      <trkpt lat="43.3407" lon="1.83767">
        <ele>238.752642</ele>
        <time>2023-01-04T13:02:28.097Z</time>
      </trkpt>
      <trkpt lat="43.3407" lon="1.83781">
        <ele>238.615715</ele>
        <time>2023-01-04T13:02:30.095Z</time>
      </trkpt>
      <trkpt lat="43.3407" lon="1.83798">
        <ele>238.437527</ele>
        <time>2023-01-04T13:02:33.096Z</time>
      </trkpt>
      <trkpt lat="43.34072" lon="1.83811">
        <ele>238.305989</ele>
        <time>2023-01-04T13:02:35.149Z</time>
      </trkpt>
      <trkpt lat="43.34076" lon="1.83823">
        <ele>238.168857</ele>
        <time>2023-01-04T13:02:37.095Z</time>
      </trkpt>
      <trkpt lat="43.34082" lon="1.83835">
        <ele>238.022505</ele>
        <time>2023-01-04T13:02:39.080Z</time>
      </trkpt>
      <trkpt lat="43.34088" lon="1.83848">
        <ele>237.871942</ele>
        <time>2023-01-04T13:02:41.139Z</time>
      </trkpt>
      <trkpt lat="43.34095" lon="1.83859">
        <ele>237.721456</ele>
        <time>2023-01-04T13:02:43.092Z</time>
      </trkpt>
      <trkpt lat="43.34101" lon="1.83873">
        <ele>237.56108</ele>
        <time>2023-01-04T13:02:45.093Z</time>
      </trkpt>
      <trkpt lat="43.34108" lon="1.83885">
        <ele>237.408195</ele>
        <time>2023-01-04T13:02:47.099Z</time>
      </trkpt>
      <trkpt lat="43.34115" lon="1.83898">
        <ele>237.246298</ele>
        <time>2023-01-04T13:02:49.095Z</time>
      </trkpt>
      <trkpt lat="43.34121" lon="1.8391">
        <ele>237.090133</ele>
        <time>2023-01-04T13:02:51.098Z</time>
      </trkpt>
      <trkpt lat="43.34127" lon="1.83924">
        <ele>236.933201</ele>
        <time>2023-01-04T13:02:53.095Z</time>
      </trkpt>
      <trkpt lat="43.34133" lon="1.83935">
        <ele>236.692023</ele>
        <time>2023-01-04T13:02:55.095Z</time>
      </trkpt>
      <trkpt lat="43.34139" lon="1.83947">
        <ele>236.410642</ele>
        <time>2023-01-04T13:02:57.093Z</time>
      </trkpt>
      <trkpt lat="43.34146" lon="1.83959">
        <ele>236.127798</ele>
        <time>2023-01-04T13:02:59.093Z</time>
      </trkpt>
      <trkpt lat="43.34151" lon="1.8397">
        <ele>235.866391</ele>
        <time>2023-01-04T13:03:01.094Z</time>
      </trkpt>
      <trkpt lat="43.34158" lon="1.83981">
        <ele>235.586453</ele>
        <time>2023-01-04T13:03:03.141Z</time>
      </trkpt>
      <trkpt lat="43.34164" lon="1.8399">
        <ele>235.343498</ele>
        <time>2023-01-04T13:03:05.091Z</time>
      </trkpt>
      <trkpt lat="43.3417" lon="1.84">
        <ele>235.091175</ele>
        <time>2023-01-04T13:03:07.092Z</time>
      </trkpt>
      <trkpt lat="43.34177" lon="1.84009">
        <ele>234.839629</ele>
        <time>2023-01-04T13:03:09.136Z</time>
      </trkpt>
      <trkpt lat="43.34185" lon="1.84018">
        <ele>234.562303</ele>
        <time>2023-01-04T13:03:11.096Z</time>
      </trkpt>
      <trkpt lat="43.34193" lon="1.84027">
        <ele>234.284959</ele>
        <time>2023-01-04T13:03:13.089Z</time>
      </trkpt>
      <trkpt lat="43.34201" lon="1.84033">
        <ele>234.029184</ele>
        <time>2023-01-04T13:03:15.137Z</time>
      </trkpt>
      <trkpt lat="43.34211" lon="1.8404">
        <ele>233.745888</ele>
        <time>2023-01-04T13:03:17.094Z</time>
      </trkpt>
      <trkpt lat="43.34221" lon="1.84046">
        <ele>233.452856</ele>
        <time>2023-01-04T13:03:19.094Z</time>
      </trkpt>
      <trkpt lat="43.34232" lon="1.84053">
        <ele>233.139602</ele>
        <time>2023-01-04T13:03:21.153Z</time>
      </trkpt>
      <trkpt lat="43.34242" lon="1.8406">
        <ele>232.823931</ele>
        <time>2023-01-04T13:03:23.102Z</time>
      </trkpt>
      <trkpt lat="43.34253" lon="1.84066">
        <ele>232.49997</ele>
        <time>2023-01-04T13:03:25.093Z</time>
      </trkpt>
      <trkpt lat="43.34265" lon="1.84073">
        <ele>232.172519</ele>
        <time>2023-01-04T13:03:27.156Z</time>
      </trkpt>
      <trkpt lat="43.34275" lon="1.84078">
        <ele>232.041338</ele>
        <time>2023-01-04T13:03:29.099Z</time>
      </trkpt>
      <trkpt lat="43.34287" lon="1.84084">
        <ele>231.980128</ele>
        <time>2023-01-04T13:03:31.094Z</time>
      </trkpt>
      <trkpt lat="43.34299" lon="1.84089">
        <ele>231.921008</ele>
        <time>2023-01-04T13:03:33.081Z</time>
      </trkpt>
      <trkpt lat="43.3431" lon="1.84095">
        <ele>231.861425</ele>
        <time>2023-01-04T13:03:35.087Z</time>
      </trkpt>
      <trkpt lat="43.34322" lon="1.84101">
        <ele>231.799163</ele>
        <time>2023-01-04T13:03:37.093Z</time>
      </trkpt>
      <trkpt lat="43.34334" lon="1.84106">
        <ele>231.736791</ele>
        <time>2023-01-04T13:03:39.077Z</time>
      </trkpt>
      <trkpt lat="43.34346" lon="1.84113">
        <ele>231.674156</ele>
        <time>2023-01-04T13:03:41.093Z</time>
      </trkpt>
      <trkpt lat="43.34357" lon="1.84118">
        <ele>231.61562</ele>
        <time>2023-01-04T13:03:43.094Z</time>
      </trkpt>
      <trkpt lat="43.34368" lon="1.84124">
        <ele>231.556971</ele>
        <time>2023-01-04T13:03:45.093Z</time>
      </trkpt>
      <trkpt lat="43.34379" lon="1.84131">
        <ele>231.496682</ele>
        <time>2023-01-04T13:03:47.092Z</time>
      </trkpt>
      <trkpt lat="43.3439" lon="1.84139">
        <ele>231.437772</ele>
        <time>2023-01-04T13:03:49.096Z</time>
      </trkpt>
      <trkpt lat="43.344" lon="1.84146">
        <ele>231.379699</ele>
        <time>2023-01-04T13:03:51.076Z</time>
      </trkpt>
      <trkpt lat="43.34411" lon="1.84155">
        <ele>231.319122</ele>
        <time>2023-01-04T13:03:53.095Z</time>
      </trkpt>
      <trkpt lat="43.34421" lon="1.84164">
        <ele>231.258061</ele>
        <time>2023-01-04T13:03:55.095Z</time>
      </trkpt>
      <trkpt lat="43.34431" lon="1.84173">
        <ele>231.198603</ele>
        <time>2023-01-04T13:03:57.093Z</time>
      </trkpt>
      <trkpt lat="43.34443" lon="1.84182">
        <ele>231.219245</ele>
        <time>2023-01-04T13:03:59.080Z</time>
      </trkpt>
      <trkpt lat="43.34453" lon="1.84191">
        <ele>231.243653</ele>
        <time>2023-01-04T13:04:01.098Z</time>
      </trkpt>
      <trkpt lat="43.34463" lon="1.84199">
        <ele>231.267289</ele>
        <time>2023-01-04T13:04:03.095Z</time>
      </trkpt>
      <trkpt lat="43.34473" lon="1.84208">
        <ele>231.290413</ele>
        <time>2023-01-04T13:04:05.095Z</time>
      </trkpt>
      <trkpt lat="43.34482" lon="1.84217">
        <ele>231.312149</ele>
        <time>2023-01-04T13:04:07.098Z</time>
      </trkpt>
      <trkpt lat="43.34492" lon="1.84225">
        <ele>231.334961</ele>
        <time>2023-01-04T13:04:09.077Z</time>
      </trkpt>
      <trkpt lat="43.34502" lon="1.84233">
        <ele>231.357661</ele>
        <time>2023-01-04T13:04:11.093Z</time>
      </trkpt>
      <trkpt lat="43.34511" lon="1.84241">
        <ele>231.379829</ele>
        <time>2023-01-04T13:04:13.094Z</time>
      </trkpt>
      <trkpt lat="43.34521" lon="1.84249">
        <ele>231.40187</ele>
        <time>2023-01-04T13:04:15.079Z</time>
      </trkpt>
      <trkpt lat="43.3453" lon="1.84257">
        <ele>231.42306</ele>
        <time>2023-01-04T13:04:17.093Z</time>
      </trkpt>
      <trkpt lat="43.34539" lon="1.84265">
        <ele>231.444632</ele>
        <time>2023-01-04T13:04:19.094Z</time>
      </trkpt>
      <trkpt lat="43.34547" lon="1.84273">
        <ele>231.46515</ele>
        <time>2023-01-04T13:04:21.098Z</time>
      </trkpt>
      <trkpt lat="43.34557" lon="1.84281">
        <ele>231.486417</ele>
        <time>2023-01-04T13:04:23.098Z</time>
      </trkpt>
      <trkpt lat="43.34565" lon="1.84288">
        <ele>231.506895</ele>
        <time>2023-01-04T13:04:25.095Z</time>
      </trkpt>
      <trkpt lat="43.34574" lon="1.84295">
        <ele>231.526836</ele>
        <time>2023-01-04T13:04:27.099Z</time>
      </trkpt>
      <trkpt lat="43.34582" lon="1.84303">
        <ele>231.546131</ele>
        <time>2023-01-04T13:04:29.097Z</time>
      </trkpt>
      <trkpt lat="43.3459" lon="1.8431">
        <ele>231.595802</ele>
        <time>2023-01-04T13:04:31.143Z</time>
      </trkpt>
      <trkpt lat="43.34597" lon="1.84316">
        <ele>231.659619</ele>
        <time>2023-01-04T13:04:33.100Z</time>
      </trkpt>
      <trkpt lat="43.34608" lon="1.84325">
        <ele>231.752687</ele>
        <time>2023-01-04T13:04:36.093Z</time>
      </trkpt>
      <trkpt lat="43.34619" lon="1.84335">
        <ele>231.844007</ele>
        <time>2023-01-04T13:04:39.093Z</time>
      </trkpt>
      <trkpt lat="43.34631" lon="1.84345">
        <ele>231.939863</ele>
        <time>2023-01-04T13:04:42.081Z</time>
      </trkpt>
      <trkpt lat="43.34638" lon="1.84352">
        <ele>232.005618</ele>
        <time>2023-01-04T13:04:44.081Z</time>
      </trkpt>
      <trkpt lat="43.3465" lon="1.84361">
        <ele>232.098762</ele>
        <time>2023-01-04T13:04:47.095Z</time>
      </trkpt>
      <trkpt lat="43.34658" lon="1.84369">
        <ele>232.166297</ele>
        <time>2023-01-04T13:04:49.147Z</time>
      </trkpt>
      <trkpt lat="43.34665" lon="1.84375">
        <ele>232.232403</ele>
        <time>2023-01-04T13:04:51.097Z</time>
      </trkpt>
      <trkpt lat="43.34673" lon="1.84382">
        <ele>232.297034</ele>
        <time>2023-01-04T13:04:53.097Z</time>
      </trkpt>
      <trkpt lat="43.34681" lon="1.84389">
        <ele>232.361725</ele>
        <time>2023-01-04T13:04:55.112Z</time>
      </trkpt>
      <trkpt lat="43.34689" lon="1.84395">
        <ele>232.428106</ele>
        <time>2023-01-04T13:04:57.095Z</time>
      </trkpt>
      <trkpt lat="43.347" lon="1.84405">
        <ele>232.520569</ele>
        <time>2023-01-04T13:05:00.097Z</time>
      </trkpt>
      <trkpt lat="43.3471" lon="1.84415">
        <ele>232.607181</ele>
        <time>2023-01-04T13:05:03.096Z</time>
      </trkpt>
      <trkpt lat="43.3472" lon="1.84423">
        <ele>232.689222</ele>
        <time>2023-01-04T13:05:06.096Z</time>
      </trkpt>
      <trkpt lat="43.34729" lon="1.84429">
        <ele>232.76495</ele>
        <time>2023-01-04T13:05:09.095Z</time>
      </trkpt>
      <trkpt lat="43.34738" lon="1.84437">
        <ele>232.851902</ele>
        <time>2023-01-04T13:05:12.094Z</time>
      </trkpt>
      <trkpt lat="43.34747" lon="1.84443">
        <ele>233.016946</ele>
        <time>2023-01-04T13:05:15.094Z</time>
      </trkpt>
      <trkpt lat="43.34758" lon="1.84449">
        <ele>233.192826</ele>
        <time>2023-01-04T13:05:18.096Z</time>
      </trkpt>
      <trkpt lat="43.34768" lon="1.84456">
        <ele>233.377355</ele>
        <time>2023-01-04T13:05:21.097Z</time>
      </trkpt>
      <trkpt lat="43.34779" lon="1.84462">
        <ele>233.563342</ele>
        <time>2023-01-04T13:05:24.095Z</time>
      </trkpt>
      <trkpt lat="43.3479" lon="1.84467">
        <ele>233.750785</ele>
        <time>2023-01-04T13:05:27.094Z</time>
      </trkpt>
      <trkpt lat="43.34802" lon="1.84473">
        <ele>233.941603</ele>
        <time>2023-01-04T13:05:30.091Z</time>
      </trkpt>
      <trkpt lat="43.34813" lon="1.84479">
        <ele>234.130536</ele>
        <time>2023-01-04T13:05:33.096Z</time>
      </trkpt>
      <trkpt lat="43.34824" lon="1.84484">
        <ele>234.315711</ele>
        <time>2023-01-04T13:05:36.073Z</time>
      </trkpt>
      <trkpt lat="43.34835" lon="1.84488">
        <ele>234.50588</ele>
        <time>2023-01-04T13:05:39.096Z</time>
      </trkpt>
      <trkpt lat="43.34846" lon="1.84493">
        <ele>234.680586</ele>
        <time>2023-01-04T13:05:42.092Z</time>
      </trkpt>
      <trkpt lat="43.34856" lon="1.84497">
        <ele>234.840297</ele>
        <time>2023-01-04T13:05:45.106Z</time>
      </trkpt>
      <trkpt lat="43.34873" lon="1.84506">
        <ele>235.131403</ele>
        <time>2023-01-04T13:08:42.089Z</time>
      </trkpt>
      <trkpt lat="43.34882" lon="1.84515">
        <ele>235.307822</ele>
        <time>2023-01-04T13:08:47.086Z</time>
      </trkpt>
      <trkpt lat="43.34889" lon="1.84528">
        <ele>235.494301</ele>
        <time>2023-01-04T13:08:51.096Z</time>
      </trkpt>
      <trkpt lat="43.34891" lon="1.84541">
        <ele>235.645576</ele>
        <time>2023-01-04T13:08:54.079Z</time>
      </trkpt>
      <trkpt lat="43.34891" lon="1.84556">
        <ele>235.744235</ele>
        <time>2023-01-04T13:08:57.096Z</time>
      </trkpt>
      <trkpt lat="43.34888" lon="1.84571">
        <ele>235.829406</ele>
        <time>2023-01-04T13:09:00.090Z</time>
      </trkpt>
      <trkpt lat="43.34885" lon="1.84588">
        <ele>235.92491</ele>
        <time>2023-01-04T13:09:03.080Z</time>
      </trkpt>
      <trkpt lat="43.34882" lon="1.846">
        <ele>235.993271</ele>
        <time>2023-01-04T13:09:05.089Z</time>
      </trkpt>
      <trkpt lat="43.34873" lon="1.84614">
        <ele>236.089881</ele>
        <time>2023-01-04T13:09:07.095Z</time>
      </trkpt>
      <trkpt lat="43.3487" lon="1.84626">
        <ele>236.160053</ele>
        <time>2023-01-04T13:09:09.092Z</time>
      </trkpt>
      <trkpt lat="43.34867" lon="1.84638">
        <ele>236.228432</ele>
        <time>2023-01-04T13:09:11.087Z</time>
      </trkpt>
      <trkpt lat="43.34864" lon="1.84651">
        <ele>236.303161</ele>
        <time>2023-01-04T13:09:13.083Z</time>
      </trkpt>
      <trkpt lat="43.34861" lon="1.84664">
        <ele>236.374821</ele>
        <time>2023-01-04T13:09:15.075Z</time>
      </trkpt>
      <trkpt lat="43.34858" lon="1.84676">
        <ele>236.443522</ele>
        <time>2023-01-04T13:09:17.081Z</time>
      </trkpt>
      <trkpt lat="43.34854" lon="1.84694">
        <ele>236.542128</ele>
        <time>2023-01-04T13:09:20.087Z</time>
      </trkpt>
      <trkpt lat="43.3485" lon="1.84711">
        <ele>236.64044</ele>
        <time>2023-01-04T13:09:23.085Z</time>
      </trkpt>
      <trkpt lat="43.34846" lon="1.84728">
        <ele>236.735397</ele>
        <time>2023-01-04T13:09:26.086Z</time>
      </trkpt>
      <trkpt lat="43.34843" lon="1.84739">
        <ele>236.803004</ele>
        <time>2023-01-04T13:09:28.078Z</time>
      </trkpt>
      <trkpt lat="43.3484" lon="1.84751">
        <ele>236.870107</ele>
        <time>2023-01-04T13:09:30.088Z</time>
      </trkpt>
      <trkpt lat="43.34837" lon="1.84768">
        <ele>236.963667</ele>
        <time>2023-01-04T13:09:33.089Z</time>
      </trkpt>
      <trkpt lat="43.34832" lon="1.84783">
        <ele>236.955292</ele>
        <time>2023-01-04T13:09:36.080Z</time>
      </trkpt>
      <trkpt lat="43.34827" lon="1.848">
        <ele>236.816402</ele>
        <time>2023-01-04T13:09:39.090Z</time>
      </trkpt>
      <trkpt lat="43.34825" lon="1.84813">
        <ele>236.715882</ele>
        <time>2023-01-04T13:09:41.107Z</time>
      </trkpt>
      <trkpt lat="43.34822" lon="1.84826">
        <ele>236.611299</ele>
        <time>2023-01-04T13:09:43.097Z</time>
      </trkpt>
      <trkpt lat="43.34819" lon="1.8484">
        <ele>236.503368</ele>
        <time>2023-01-04T13:09:45.079Z</time>
      </trkpt>
      <trkpt lat="43.34816" lon="1.84852">
        <ele>236.402509</ele>
        <time>2023-01-04T13:09:47.114Z</time>
      </trkpt>
      <trkpt lat="43.34812" lon="1.84866">
        <ele>236.288427</ele>
        <time>2023-01-04T13:09:49.107Z</time>
      </trkpt>
      <trkpt lat="43.34808" lon="1.8488">
        <ele>236.17509</ele>
        <time>2023-01-04T13:09:51.107Z</time>
      </trkpt>
      <trkpt lat="43.34803" lon="1.84893">
        <ele>236.06908</ele>
        <time>2023-01-04T13:09:53.098Z</time>
      </trkpt>
      <trkpt lat="43.34799" lon="1.84906">
        <ele>235.95895</ele>
        <time>2023-01-04T13:09:55.091Z</time>
      </trkpt>
      <trkpt lat="43.34794" lon="1.8492">
        <ele>235.840654</ele>
        <time>2023-01-04T13:09:57.110Z</time>
      </trkpt>
      <trkpt lat="43.34789" lon="1.84934">
        <ele>235.720943</ele>
        <time>2023-01-04T13:09:59.080Z</time>
      </trkpt>
      <trkpt lat="43.34784" lon="1.84948">
        <ele>235.607083</ele>
        <time>2023-01-04T13:10:01.086Z</time>
      </trkpt>
      <trkpt lat="43.34779" lon="1.84959">
        <ele>235.50134</ele>
        <time>2023-01-04T13:10:03.084Z</time>
      </trkpt>
      <trkpt lat="43.34773" lon="1.84973">
        <ele>235.38372</ele>
        <time>2023-01-04T13:10:05.109Z</time>
      </trkpt>
      <trkpt lat="43.34768" lon="1.84986">
        <ele>235.271022</ele>
        <time>2023-01-04T13:10:07.104Z</time>
      </trkpt>
      <trkpt lat="43.34762" lon="1.84999">
        <ele>235.158261</ele>
        <time>2023-01-04T13:10:09.096Z</time>
      </trkpt>
      <trkpt lat="43.34756" lon="1.85011">
        <ele>235.038492</ele>
        <time>2023-01-04T13:10:11.082Z</time>
      </trkpt>
      <trkpt lat="43.34751" lon="1.85024">
        <ele>234.921633</ele>
        <time>2023-01-04T13:10:13.105Z</time>
      </trkpt>
      <trkpt lat="43.34745" lon="1.85036">
        <ele>234.80544</ele>
        <time>2023-01-04T13:10:15.081Z</time>
      </trkpt>
      <trkpt lat="43.34739" lon="1.85048">
        <ele>234.696399</ele>
        <time>2023-01-04T13:10:17.088Z</time>
      </trkpt>
      <trkpt lat="43.34734" lon="1.85058">
        <ele>234.591861</ele>
        <time>2023-01-04T13:10:19.087Z</time>
      </trkpt>
      <trkpt lat="43.34726" lon="1.85073">
        <ele>234.445706</ele>
        <time>2023-01-04T13:10:22.088Z</time>
      </trkpt>
      <trkpt lat="43.34719" lon="1.85088">
        <ele>234.307223</ele>
        <time>2023-01-04T13:10:25.086Z</time>
      </trkpt>
      <trkpt lat="43.34711" lon="1.85102">
        <ele>234.164264</ele>
        <time>2023-01-04T13:10:28.097Z</time>
      </trkpt>
      <trkpt lat="43.34706" lon="1.85114">
        <ele>234.059984</ele>
        <time>2023-01-04T13:10:30.074Z</time>
      </trkpt>
      <trkpt lat="43.347" lon="1.85127">
        <ele>233.934175</ele>
        <time>2023-01-04T13:10:33.081Z</time>
      </trkpt>
      <trkpt lat="43.34692" lon="1.85142">
        <ele>233.791861</ele>
        <time>2023-01-04T13:10:36.088Z</time>
      </trkpt>
      <trkpt lat="43.34686" lon="1.85154">
        <ele>233.668118</ele>
        <time>2023-01-04T13:10:39.083Z</time>
      </trkpt>
      <trkpt lat="43.34679" lon="1.85163">
        <ele>233.567675</ele>
        <time>2023-01-04T13:10:42.083Z</time>
      </trkpt>
      <trkpt lat="43.34671" lon="1.85174">
        <ele>233.44964</ele>
        <time>2023-01-04T13:10:46.092Z</time>
      </trkpt>
      <trkpt lat="43.34667" lon="1.85185">
        <ele>233.348043</ele>
        <time>2023-01-04T13:10:49.086Z</time>
      </trkpt>
      <trkpt lat="43.34661" lon="1.852">
        <ele>233.211431</ele>
        <time>2023-01-04T13:10:52.095Z</time>
      </trkpt>
      <trkpt lat="43.34655" lon="1.85214">
        <ele>232.934418</ele>
        <time>2023-01-04T13:10:55.093Z</time>
      </trkpt>
      <trkpt lat="43.34649" lon="1.85225">
        <ele>232.676604</ele>
        <time>2023-01-04T13:10:57.080Z</time>
      </trkpt>
      <trkpt lat="43.34643" lon="1.85241">
        <ele>232.312878</ele>
        <time>2023-01-04T13:11:00.079Z</time>
      </trkpt>
      <trkpt lat="43.34638" lon="1.85252">
        <ele>232.052038</ele>
        <time>2023-01-04T13:11:02.084Z</time>
      </trkpt>
      <trkpt lat="43.34633" lon="1.85263">
        <ele>231.804012</ele>
        <time>2023-01-04T13:11:04.088Z</time>
      </trkpt>
      <trkpt lat="43.34627" lon="1.85275">
        <ele>231.513703</ele>
        <time>2023-01-04T13:11:06.082Z</time>
      </trkpt>
      <trkpt lat="43.34622" lon="1.85287">
        <ele>231.229128</ele>
        <time>2023-01-04T13:11:08.089Z</time>
      </trkpt>
      <trkpt lat="43.34616" lon="1.853">
        <ele>230.923129</ele>
        <time>2023-01-04T13:11:10.076Z</time>
      </trkpt>
      <trkpt lat="43.34611" lon="1.85313">
        <ele>230.636472</ele>
        <time>2023-01-04T13:11:12.086Z</time>
      </trkpt>
      <trkpt lat="43.34606" lon="1.85327">
        <ele>230.325337</ele>
        <time>2023-01-04T13:11:14.105Z</time>
      </trkpt>
      <trkpt lat="43.346" lon="1.85341">
        <ele>230.002316</ele>
        <time>2023-01-04T13:11:16.079Z</time>
      </trkpt>
      <trkpt lat="43.34595" lon="1.85358">
        <ele>229.641033</ele>
        <time>2023-01-04T13:11:18.087Z</time>
      </trkpt>
      <trkpt lat="43.3459" lon="1.85375">
        <ele>229.262904</ele>
        <time>2023-01-04T13:11:20.086Z</time>
      </trkpt>
      <trkpt lat="43.34586" lon="1.85393">
        <ele>228.897773</ele>
        <time>2023-01-04T13:11:22.085Z</time>
      </trkpt>
      <trkpt lat="43.34581" lon="1.8541">
        <ele>228.52802</ele>
        <time>2023-01-04T13:11:24.089Z</time>
      </trkpt>
      <trkpt lat="43.34577" lon="1.85426">
        <ele>228.268683</ele>
        <time>2023-01-04T13:11:26.103Z</time>
      </trkpt>
      <trkpt lat="43.34573" lon="1.85441">
        <ele>228.361048</ele>
        <time>2023-01-04T13:11:28.084Z</time>
      </trkpt>
      <trkpt lat="43.3457" lon="1.85452">
        <ele>228.435604</ele>
        <time>2023-01-04T13:11:30.078Z</time>
      </trkpt>
      <trkpt lat="43.34565" lon="1.85469">
        <ele>228.542433</ele>
        <time>2023-01-04T13:11:33.080Z</time>
      </trkpt>
      <trkpt lat="43.34561" lon="1.85486">
        <ele>228.649592</ele>
        <time>2023-01-04T13:11:36.105Z</time>
      </trkpt>
      <trkpt lat="43.34556" lon="1.85498">
        <ele>228.727426</ele>
        <time>2023-01-04T13:11:38.085Z</time>
      </trkpt>
      <trkpt lat="43.34552" lon="1.85509">
        <ele>228.802415</ele>
        <time>2023-01-04T13:11:40.084Z</time>
      </trkpt>
      <trkpt lat="43.34547" lon="1.85525">
        <ele>228.904163</ele>
        <time>2023-01-04T13:11:43.080Z</time>
      </trkpt>
      <trkpt lat="43.34542" lon="1.85538">
        <ele>228.992772</ele>
        <time>2023-01-04T13:11:46.087Z</time>
      </trkpt>
      <trkpt lat="43.34536" lon="1.85552">
        <ele>229.088565</ele>
        <time>2023-01-04T13:11:49.084Z</time>
      </trkpt>
      <trkpt lat="43.34532" lon="1.85565">
        <ele>229.17278</ele>
        <time>2023-01-04T13:11:52.073Z</time>
      </trkpt>
      <trkpt lat="43.34527" lon="1.85578">
        <ele>229.260152</ele>
        <time>2023-01-04T13:11:55.093Z</time>
      </trkpt>
      <trkpt lat="43.34523" lon="1.8559">
        <ele>229.338372</ele>
        <time>2023-01-04T13:11:58.095Z</time>
      </trkpt>
      <trkpt lat="43.34518" lon="1.85602">
        <ele>229.41862</ele>
        <time>2023-01-04T13:12:01.081Z</time>
      </trkpt>
      <trkpt lat="43.34512" lon="1.85614">
        <ele>229.502849</ele>
        <time>2023-01-04T13:12:04.085Z</time>
      </trkpt>
      <trkpt lat="43.34508" lon="1.85625">
        <ele>229.576436</ele>
        <time>2023-01-04T13:12:07.076Z</time>
      </trkpt>
      <trkpt lat="43.34502" lon="1.85637">
        <ele>229.666048</ele>
        <time>2023-01-04T13:12:11.104Z</time>
      </trkpt>
      <trkpt lat="43.34494" lon="1.85646">
        <ele>229.791691</ele>
        <time>2023-01-04T13:12:15.092Z</time>
      </trkpt>
      <trkpt lat="43.34482" lon="1.85646">
        <ele>230.01082</ele>
        <time>2023-01-04T13:12:19.088Z</time>
      </trkpt>
      <trkpt lat="43.34473" lon="1.8564">
        <ele>230.189355</ele>
        <time>2023-01-04T13:12:22.083Z</time>
      </trkpt>
      <trkpt lat="43.34463" lon="1.85634">
        <ele>230.385363</ele>
        <time>2023-01-04T13:12:25.088Z</time>
      </trkpt>
      <trkpt lat="43.34453" lon="1.85628">
        <ele>230.569305</ele>
        <time>2023-01-04T13:12:28.081Z</time>
      </trkpt>
      <trkpt lat="43.34443" lon="1.85622">
        <ele>230.766833</ele>
        <time>2023-01-04T13:12:31.080Z</time>
      </trkpt>
      <trkpt lat="43.34432" lon="1.85616">
        <ele>230.978221</ele>
        <time>2023-01-04T13:12:34.086Z</time>
      </trkpt>
      <trkpt lat="43.34422" lon="1.85609">
        <ele>231.182471</ele>
        <time>2023-01-04T13:12:37.078Z</time>
      </trkpt>
      <trkpt lat="43.3441" lon="1.85603">
        <ele>231.409261</ele>
        <time>2023-01-04T13:12:40.083Z</time>
      </trkpt>
      <trkpt lat="43.34398" lon="1.85597">
        <ele>231.63652</ele>
        <time>2023-01-04T13:12:43.080Z</time>
      </trkpt>
      <trkpt lat="43.34386" lon="1.85592">
        <ele>231.871978</ele>
        <time>2023-01-04T13:12:46.074Z</time>
      </trkpt>
      <trkpt lat="43.34376" lon="1.85592">
        <ele>232.040987</ele>
        <time>2023-01-04T13:12:48.089Z</time>
      </trkpt>
      <trkpt lat="43.34367" lon="1.85593">
        <ele>232.214936</ele>
        <time>2023-01-04T13:12:50.080Z</time>
      </trkpt>
      <trkpt lat="43.34354" lon="1.85598">
        <ele>232.451401</ele>
        <time>2023-01-04T13:12:53.086Z</time>
      </trkpt>
      <trkpt lat="43.34342" lon="1.85603">
        <ele>232.66779</ele>
        <time>2023-01-04T13:12:56.078Z</time>
      </trkpt>
      <trkpt lat="43.34331" lon="1.85608">
        <ele>232.877905</ele>
        <time>2023-01-04T13:12:59.092Z</time>
      </trkpt>
      <trkpt lat="43.34321" lon="1.85615">
        <ele>233.092582</ele>
        <time>2023-01-04T13:13:02.085Z</time>
      </trkpt>
      <trkpt lat="43.34311" lon="1.85619">
        <ele>233.302786</ele>
        <time>2023-01-04T13:13:05.084Z</time>
      </trkpt>
      <trkpt lat="43.34302" lon="1.85623">
        <ele>233.495444</ele>
        <time>2023-01-04T13:13:08.081Z</time>
      </trkpt>
      <trkpt lat="43.34293" lon="1.85628">
        <ele>233.684352</ele>
        <time>2023-01-04T13:13:11.085Z</time>
      </trkpt>
      <trkpt lat="43.34284" lon="1.85633">
        <ele>233.880703</ele>
        <time>2023-01-04T13:13:14.083Z</time>
      </trkpt>
      <trkpt lat="43.34275" lon="1.85638">
        <ele>234.068169</ele>
        <time>2023-01-04T13:13:17.078Z</time>
      </trkpt>
      <trkpt lat="43.34266" lon="1.85642">
        <ele>234.248107</ele>
        <time>2023-01-04T13:13:20.081Z</time>
      </trkpt>
      <trkpt lat="43.34257" lon="1.85647">
        <ele>234.431908</ele>
        <time>2023-01-04T13:13:23.084Z</time>
      </trkpt>
      <trkpt lat="43.34247" lon="1.85652">
        <ele>234.644767</ele>
        <time>2023-01-04T13:13:26.081Z</time>
      </trkpt>
      <trkpt lat="43.34235" lon="1.85659">
        <ele>234.915109</ele>
        <time>2023-01-04T13:13:29.083Z</time>
      </trkpt>
      <trkpt lat="43.34225" lon="1.85664">
        <ele>235.115643</ele>
        <time>2023-01-04T13:13:31.083Z</time>
      </trkpt>
      <trkpt lat="43.34215" lon="1.8567">
        <ele>235.323524</ele>
        <time>2023-01-04T13:13:33.098Z</time>
      </trkpt>
      <trkpt lat="43.34204" lon="1.85675">
        <ele>235.55183</ele>
        <time>2023-01-04T13:13:35.090Z</time>
      </trkpt>
      <trkpt lat="43.34194" lon="1.85681">
        <ele>235.776449</ele>
        <time>2023-01-04T13:13:37.084Z</time>
      </trkpt>
      <trkpt lat="43.34183" lon="1.85685">
        <ele>235.987048</ele>
        <time>2023-01-04T13:13:39.091Z</time>
      </trkpt>
      <trkpt lat="43.34173" lon="1.8569">
        <ele>236.205851</ele>
        <time>2023-01-04T13:13:41.084Z</time>
      </trkpt>
      <trkpt lat="43.34163" lon="1.85692">
        <ele>236.40352</ele>
        <time>2023-01-04T13:13:43.084Z</time>
      </trkpt>
      <trkpt lat="43.34149" lon="1.85694">
        <ele>236.416428</ele>
        <time>2023-01-04T13:13:46.092Z</time>
      </trkpt>
      <trkpt lat="43.34136" lon="1.85695">
        <ele>236.32442</ele>
        <time>2023-01-04T13:13:49.097Z</time>
      </trkpt>
      <trkpt lat="43.34124" lon="1.85696">
        <ele>236.242153</ele>
        <time>2023-01-04T13:13:52.087Z</time>
      </trkpt>
      <trkpt lat="43.34114" lon="1.85698">
        <ele>236.170023</ele>
        <time>2023-01-04T13:13:55.087Z</time>
      </trkpt>
      <trkpt lat="43.34105" lon="1.857">
        <ele>236.107427</ele>
        <time>2023-01-04T13:13:58.088Z</time>
      </trkpt>
      <trkpt lat="43.34094" lon="1.85702">
        <ele>236.032564</ele>
        <time>2023-01-04T13:14:02.082Z</time>
      </trkpt>
      <trkpt lat="43.34084" lon="1.85704">
        <ele>235.964981</ele>
        <time>2023-01-04T13:14:06.077Z</time>
      </trkpt>
      <trkpt lat="43.34073" lon="1.85709">
        <ele>235.881129</ele>
        <time>2023-01-04T13:14:10.094Z</time>
      </trkpt>
      <trkpt lat="43.34061" lon="1.85717">
        <ele>235.79352</ele>
        <time>2023-01-04T13:14:13.089Z</time>
      </trkpt>
      <trkpt lat="43.34053" lon="1.85723">
        <ele>235.72534</ele>
        <time>2023-01-04T13:14:15.092Z</time>
      </trkpt>
      <trkpt lat="43.34043" lon="1.85732">
        <ele>235.642546</ele>
        <time>2023-01-04T13:14:17.090Z</time>
      </trkpt>
      <trkpt lat="43.34031" lon="1.85742">
        <ele>235.549896</ele>
        <time>2023-01-04T13:14:19.089Z</time>
      </trkpt>
      <trkpt lat="43.34021" lon="1.85753">
        <ele>235.459232</ele>
        <time>2023-01-04T13:14:21.085Z</time>
      </trkpt>
      <trkpt lat="43.3401" lon="1.85763">
        <ele>235.368568</ele>
        <time>2023-01-04T13:14:23.088Z</time>
      </trkpt>
      <trkpt lat="43.33997" lon="1.85771">
        <ele>235.273219</ele>
        <time>2023-01-04T13:14:25.088Z</time>
      </trkpt>
      <trkpt lat="43.33984" lon="1.85774">
        <ele>235.329601</ele>
        <time>2023-01-04T13:14:27.083Z</time>
      </trkpt>
      <trkpt lat="43.33971" lon="1.85768">
        <ele>235.458724</ele>
        <time>2023-01-04T13:14:29.105Z</time>
      </trkpt>
      <trkpt lat="43.33961" lon="1.85761">
        <ele>235.576539</ele>
        <time>2023-01-04T13:14:31.084Z</time>
      </trkpt>
      <trkpt lat="43.33952" lon="1.85752">
        <ele>235.679502</ele>
        <time>2023-01-04T13:14:33.102Z</time>
      </trkpt>
      <trkpt lat="43.33941" lon="1.85743">
        <ele>235.808089</ele>
        <time>2023-01-04T13:14:36.087Z</time>
      </trkpt>
      <trkpt lat="43.3393" lon="1.85737">
        <ele>235.919457</ele>
        <time>2023-01-04T13:14:39.085Z</time>
      </trkpt>
      <trkpt lat="43.33921" lon="1.85731">
        <ele>236.021648</ele>
        <time>2023-01-04T13:14:42.082Z</time>
      </trkpt>
      <trkpt lat="43.33912" lon="1.85726">
        <ele>236.118455</ele>
        <time>2023-01-04T13:14:45.096Z</time>
      </trkpt>
      <trkpt lat="43.33902" lon="1.8572">
        <ele>236.220647</ele>
        <time>2023-01-04T13:14:48.087Z</time>
      </trkpt>
      <trkpt lat="43.33893" lon="1.85714">
        <ele>236.321659</ele>
        <time>2023-01-04T13:14:51.084Z</time>
      </trkpt>
      <trkpt lat="43.33884" lon="1.8571">
        <ele>236.41342</ele>
        <time>2023-01-04T13:14:54.086Z</time>
      </trkpt>
      <trkpt lat="43.33875" lon="1.85705">
        <ele>236.510831</ele>
        <time>2023-01-04T13:14:57.089Z</time>
      </trkpt>
      <trkpt lat="43.33865" lon="1.85698">
        <ele>236.615695</ele>
        <time>2023-01-04T13:15:00.087Z</time>
      </trkpt>
      <trkpt lat="43.33856" lon="1.85692">
        <ele>236.716413</ele>
        <time>2023-01-04T13:15:03.088Z</time>
      </trkpt>
      <trkpt lat="43.33847" lon="1.85686">
        <ele>236.809403</ele>
        <time>2023-01-04T13:15:06.084Z</time>
      </trkpt>
      <trkpt lat="43.33837" lon="1.85679">
        <ele>236.925522</ele>
        <time>2023-01-04T13:15:10.091Z</time>
      </trkpt>
      <trkpt lat="43.33826" lon="1.85671">
        <ele>237.090023</ele>
        <time>2023-01-04T13:15:14.089Z</time>
      </trkpt>
      <trkpt lat="43.33816" lon="1.85665">
        <ele>237.344778</ele>
        <time>2023-01-04T13:15:18.089Z</time>
      </trkpt>
      <trkpt lat="43.33806" lon="1.85662">
        <ele>237.589629</ele>
        <time>2023-01-04T13:15:22.080Z</time>
      </trkpt>
      <trkpt lat="43.33794" lon="1.85665">
        <ele>237.861361</ele>
        <time>2023-01-04T13:15:26.076Z</time>
      </trkpt>
      <trkpt lat="43.33785" lon="1.85676">
        <ele>238.130676</ele>
        <time>2023-01-04T13:15:30.079Z</time>
      </trkpt>
      <trkpt lat="43.3378" lon="1.85686">
        <ele>238.345547</ele>
        <time>2023-01-04T13:15:33.084Z</time>
      </trkpt>
      <trkpt lat="43.33774" lon="1.85697">
        <ele>238.563103</ele>
        <time>2023-01-04T13:15:36.080Z</time>
      </trkpt>
      <trkpt lat="43.33769" lon="1.85707">
        <ele>238.767268</ele>
        <time>2023-01-04T13:15:39.087Z</time>
      </trkpt>
      <trkpt lat="43.33762" lon="1.85719">
        <ele>239.025434</ele>
        <time>2023-01-04T13:15:43.086Z</time>
      </trkpt>
      <trkpt lat="43.33755" lon="1.85728">
        <ele>239.237666</ele>
        <time>2023-01-04T13:15:46.082Z</time>
      </trkpt>
      <trkpt lat="43.33748" lon="1.85739">
        <ele>239.484147</ele>
        <time>2023-01-04T13:15:50.085Z</time>
      </trkpt>
      <trkpt lat="43.33743" lon="1.85751">
        <ele>239.712673</ele>
        <time>2023-01-04T13:15:54.087Z</time>
      </trkpt>
      <trkpt lat="43.33739" lon="1.85763">
        <ele>239.926364</ele>
        <time>2023-01-04T13:15:58.077Z</time>
      </trkpt>
      <trkpt lat="43.33735" lon="1.85777">
        <ele>240.178524</ele>
        <time>2023-01-04T13:16:02.096Z</time>
      </trkpt>
      <trkpt lat="43.33731" lon="1.8579">
        <ele>240.419301</ele>
        <time>2023-01-04T13:16:05.104Z</time>
      </trkpt>
      <trkpt lat="43.33725" lon="1.85805">
        <ele>240.697397</ele>
        <time>2023-01-04T13:16:08.086Z</time>
      </trkpt>
      <trkpt lat="43.33719" lon="1.8582">
        <ele>240.981014</ele>
        <time>2023-01-04T13:16:11.089Z</time>
      </trkpt>
      <trkpt lat="43.33713" lon="1.85835">
        <ele>241.148753</ele>
        <time>2023-01-04T13:16:14.080Z</time>
      </trkpt>
      <trkpt lat="43.33708" lon="1.85851">
        <ele>241.218844</ele>
        <time>2023-01-04T13:16:17.092Z</time>
      </trkpt>
      <trkpt lat="43.33703" lon="1.85866">
        <ele>241.286405</ele>
        <time>2023-01-04T13:16:20.100Z</time>
      </trkpt>
      <trkpt lat="43.337" lon="1.85882">
        <ele>241.355915</ele>
        <time>2023-01-04T13:16:23.085Z</time>
      </trkpt>
      <trkpt lat="43.33697" lon="1.859">
        <ele>241.429025</ele>
        <time>2023-01-04T13:16:26.080Z</time>
      </trkpt>
      <trkpt lat="43.33695" lon="1.85912">
        <ele>241.48006</ele>
        <time>2023-01-04T13:16:28.087Z</time>
      </trkpt>
      <trkpt lat="43.33693" lon="1.85925">
        <ele>241.531889</ele>
        <time>2023-01-04T13:16:30.084Z</time>
      </trkpt>
      <trkpt lat="43.33689" lon="1.85941">
        <ele>241.602344</ele>
        <time>2023-01-04T13:16:33.084Z</time>
      </trkpt>
      <trkpt lat="43.33683" lon="1.85957">
        <ele>241.676052</ele>
        <time>2023-01-04T13:16:36.079Z</time>
      </trkpt>
      <trkpt lat="43.33677" lon="1.85968">
        <ele>241.729426</ele>
        <time>2023-01-04T13:16:38.087Z</time>
      </trkpt>
      <trkpt lat="43.33672" lon="1.85979">
        <ele>241.784739</ele>
        <time>2023-01-04T13:16:40.087Z</time>
      </trkpt>
      <trkpt lat="43.33666" lon="1.8599">
        <ele>241.840404</ele>
        <time>2023-01-04T13:16:42.091Z</time>
      </trkpt>
      <trkpt lat="43.33659" lon="1.86">
        <ele>241.896534</ele>
        <time>2023-01-04T13:16:44.086Z</time>
      </trkpt>
      <trkpt lat="43.33652" lon="1.86011">
        <ele>241.953957</ele>
        <time>2023-01-04T13:16:46.087Z</time>
      </trkpt>
      <trkpt lat="43.33646" lon="1.86022">
        <ele>242.011301</ele>
        <time>2023-01-04T13:16:48.082Z</time>
      </trkpt>
      <trkpt lat="43.3364" lon="1.86034">
        <ele>242.071549</ele>
        <time>2023-01-04T13:16:50.082Z</time>
      </trkpt>
      <trkpt lat="43.33634" lon="1.86046">
        <ele>242.134801</ele>
        <time>2023-01-04T13:16:52.083Z</time>
      </trkpt>
      <trkpt lat="43.33628" lon="1.86063">
        <ele>242.260412</ele>
        <time>2023-01-04T13:16:55.088Z</time>
      </trkpt>
      <trkpt lat="43.33622" lon="1.86079">
        <ele>242.386336</ele>
        <time>2023-01-04T13:16:58.080Z</time>
      </trkpt>
      <trkpt lat="43.33616" lon="1.86096">
        <ele>242.508358</ele>
        <time>2023-01-04T13:17:01.094Z</time>
      </trkpt>
      <trkpt lat="43.33612" lon="1.86108">
        <ele>242.598119</ele>
        <time>2023-01-04T13:17:03.108Z</time>
      </trkpt>
      <trkpt lat="43.33607" lon="1.86119">
        <ele>242.68197</ele>
        <time>2023-01-04T13:17:05.097Z</time>
      </trkpt>
      <trkpt lat="43.33603" lon="1.86131">
        <ele>242.769921</ele>
        <time>2023-01-04T13:17:07.096Z</time>
      </trkpt>
      <trkpt lat="43.33597" lon="1.86142">
        <ele>242.859604</ele>
        <time>2023-01-04T13:17:09.086Z</time>
      </trkpt>
      <trkpt lat="43.33592" lon="1.86152">
        <ele>242.94661</ele>
        <time>2023-01-04T13:17:11.085Z</time>
      </trkpt>
      <trkpt lat="43.33584" lon="1.86161">
        <ele>243.036724</ele>
        <time>2023-01-04T13:17:13.085Z</time>
      </trkpt>
      <trkpt lat="43.33571" lon="1.86167">
        <ele>243.163359</ele>
        <time>2023-01-04T13:17:16.101Z</time>
      </trkpt>
      <trkpt lat="43.33559" lon="1.86171">
        <ele>243.281372</ele>
        <time>2023-01-04T13:17:19.081Z</time>
      </trkpt>
      <trkpt lat="43.33546" lon="1.86175">
        <ele>243.400845</ele>
        <time>2023-01-04T13:17:22.080Z</time>
      </trkpt>
      <trkpt lat="43.33534" lon="1.86175">
        <ele>243.512931</ele>
        <time>2023-01-04T13:17:25.084Z</time>
      </trkpt>
      <trkpt lat="43.33521" lon="1.86172">
        <ele>243.634479</ele>
        <time>2023-01-04T13:17:28.085Z</time>
      </trkpt>
      <trkpt lat="43.33508" lon="1.86168">
        <ele>243.75622</ele>
        <time>2023-01-04T13:17:31.078Z</time>
      </trkpt>
      <trkpt lat="43.33495" lon="1.86164">
        <ele>243.670181</ele>
        <time>2023-01-04T13:17:34.086Z</time>
      </trkpt>
      <trkpt lat="43.33486" lon="1.8616">
        <ele>243.59082</ele>
        <time>2023-01-04T13:17:36.080Z</time>
      </trkpt>
      <trkpt lat="43.33477" lon="1.86156">
        <ele>243.513068</ele>
        <time>2023-01-04T13:17:38.084Z</time>
      </trkpt>
      <trkpt lat="43.33468" lon="1.86152">
        <ele>243.433982</ele>
        <time>2023-01-04T13:17:40.082Z</time>
      </trkpt>
      <trkpt lat="43.33459" lon="1.86148">
        <ele>243.353532</ele>
        <time>2023-01-04T13:17:42.083Z</time>
      </trkpt>
      <trkpt lat="43.33449" lon="1.86145">
        <ele>243.272372</ele>
        <time>2023-01-04T13:17:44.101Z</time>
      </trkpt>
      <trkpt lat="43.3344" lon="1.86142">
        <ele>243.193943</ele>
        <time>2023-01-04T13:17:46.098Z</time>
      </trkpt>
      <trkpt lat="43.33427" lon="1.86137">
        <ele>243.081615</ele>
        <time>2023-01-04T13:17:49.088Z</time>
      </trkpt>
      <trkpt lat="43.33419" lon="1.86133">
        <ele>243.005526</ele>
        <time>2023-01-04T13:17:51.091Z</time>
      </trkpt>
      <trkpt lat="43.3341" lon="1.8613">
        <ele>242.92845</ele>
        <time>2023-01-04T13:17:53.087Z</time>
      </trkpt>
      <trkpt lat="43.33401" lon="1.86127">
        <ele>242.849575</ele>
        <time>2023-01-04T13:17:55.088Z</time>
      </trkpt>
      <trkpt lat="43.33392" lon="1.86123">
        <ele>242.769313</ele>
        <time>2023-01-04T13:17:57.091Z</time>
      </trkpt>
      <trkpt lat="43.33383" lon="1.86119">
        <ele>242.693026</ele>
        <time>2023-01-04T13:17:59.086Z</time>
      </trkpt>
      <trkpt lat="43.33371" lon="1.86112">
        <ele>242.583803</ele>
        <time>2023-01-04T13:18:02.077Z</time>
      </trkpt>
      <trkpt lat="43.33359" lon="1.86105">
        <ele>242.478644</ele>
        <time>2023-01-04T13:18:05.088Z</time>
      </trkpt>
      <trkpt lat="43.33349" lon="1.861">
        <ele>242.381333</ele>
        <time>2023-01-04T13:18:08.079Z</time>
      </trkpt>
      <trkpt lat="43.33337" lon="1.86093">
        <ele>242.279977</ele>
        <time>2023-01-04T13:18:11.087Z</time>
      </trkpt>
      <trkpt lat="43.33329" lon="1.86089">
        <ele>242.059802</ele>
        <time>2023-01-04T13:18:13.087Z</time>
      </trkpt>
      <trkpt lat="43.3332" lon="1.86083">
        <ele>241.763403</ele>
        <time>2023-01-04T13:18:15.088Z</time>
      </trkpt>
      <trkpt lat="43.33309" lon="1.86077">
        <ele>241.420594</ele>
        <time>2023-01-04T13:18:17.086Z</time>
      </trkpt>
      <trkpt lat="43.33297" lon="1.8607">
        <ele>241.048044</ele>
        <time>2023-01-04T13:18:19.089Z</time>
      </trkpt>
      <trkpt lat="43.33285" lon="1.86063">
        <ele>240.656325</ele>
        <time>2023-01-04T13:18:21.112Z</time>
      </trkpt>
      <trkpt lat="43.33271" lon="1.86056">
        <ele>240.237667</ele>
        <time>2023-01-04T13:18:23.099Z</time>
      </trkpt>
      <trkpt lat="43.33258" lon="1.86048">
        <ele>239.800392</ele>
        <time>2023-01-04T13:18:25.080Z</time>
      </trkpt>
      <trkpt lat="43.33244" lon="1.8604">
        <ele>239.359344</ele>
        <time>2023-01-04T13:18:27.106Z</time>
      </trkpt>
      <trkpt lat="43.3323" lon="1.86032">
        <ele>238.943133</ele>
        <time>2023-01-04T13:18:29.097Z</time>
      </trkpt>
      <trkpt lat="43.33218" lon="1.86026">
        <ele>238.551047</ele>
        <time>2023-01-04T13:18:31.086Z</time>
      </trkpt>
      <trkpt lat="43.33207" lon="1.86021">
        <ele>238.21478</ele>
        <time>2023-01-04T13:18:33.085Z</time>
      </trkpt>
      <trkpt lat="43.33197" lon="1.86019">
        <ele>237.919096</ele>
        <time>2023-01-04T13:18:35.080Z</time>
      </trkpt>
      <trkpt lat="43.33188" lon="1.86019">
        <ele>237.644611</ele>
        <time>2023-01-04T13:18:37.086Z</time>
      </trkpt>
      <trkpt lat="43.33179" lon="1.86023">
        <ele>237.368467</ele>
        <time>2023-01-04T13:18:39.087Z</time>
      </trkpt>
      <trkpt lat="43.33171" lon="1.86031">
        <ele>237.096431</ele>
        <time>2023-01-04T13:18:41.106Z</time>
      </trkpt>
      <trkpt lat="43.33165" lon="1.8604">
        <ele>236.998299</ele>
        <time>2023-01-04T13:18:43.086Z</time>
      </trkpt>
      <trkpt lat="43.33158" lon="1.86052">
        <ele>236.979146</ele>
        <time>2023-01-04T13:18:45.084Z</time>
      </trkpt>
      <trkpt lat="43.33152" lon="1.86063">
        <ele>236.959989</ele>
        <time>2023-01-04T13:18:47.082Z</time>
      </trkpt>
      <trkpt lat="43.33146" lon="1.86075">
        <ele>236.941264</ele>
        <time>2023-01-04T13:18:49.091Z</time>
      </trkpt>
      <trkpt lat="43.3314" lon="1.86087">
        <ele>236.921569</ele>
        <time>2023-01-04T13:18:51.084Z</time>
      </trkpt>
      <trkpt lat="43.33134" lon="1.86099">
        <ele>236.902195</ele>
        <time>2023-01-04T13:18:53.088Z</time>
      </trkpt>
      <trkpt lat="43.33128" lon="1.86111">
        <ele>236.882378</ele>
        <time>2023-01-04T13:18:55.080Z</time>
      </trkpt>
      <trkpt lat="43.33123" lon="1.86122">
        <ele>236.864738</ele>
        <time>2023-01-04T13:18:57.106Z</time>
      </trkpt>
      <trkpt lat="43.33117" lon="1.86133">
        <ele>236.846109</ele>
        <time>2023-01-04T13:18:59.086Z</time>
      </trkpt>
      <trkpt lat="43.33111" lon="1.86145">
        <ele>236.826728</ele>
        <time>2023-01-04T13:19:01.093Z</time>
      </trkpt>
      <trkpt lat="43.33105" lon="1.86157">
        <ele>236.807568</ele>
        <time>2023-01-04T13:19:03.104Z</time>
      </trkpt>
      <trkpt lat="43.33099" lon="1.86169">
        <ele>236.78829</ele>
        <time>2023-01-04T13:19:05.087Z</time>
      </trkpt>
      <trkpt lat="43.33091" lon="1.86178">
        <ele>236.768508</ele>
        <time>2023-01-04T13:19:07.084Z</time>
      </trkpt>
      <trkpt lat="43.33081" lon="1.86184">
        <ele>236.748888</ele>
        <time>2023-01-04T13:19:09.084Z</time>
      </trkpt>
      <trkpt lat="43.33071" lon="1.86182">
        <ele>236.729678</ele>
        <time>2023-01-04T13:19:11.087Z</time>
      </trkpt>
      <trkpt lat="43.33061" lon="1.86178">
        <ele>236.711478</ele>
        <time>2023-01-04T13:19:13.095Z</time>
      </trkpt>
      <trkpt lat="43.3305" lon="1.86174">
        <ele>236.689585</ele>
        <time>2023-01-04T13:19:16.086Z</time>
      </trkpt>
      <trkpt lat="43.3304" lon="1.86169">
        <ele>236.645615</ele>
        <time>2023-01-04T13:19:20.079Z</time>
      </trkpt>
      <trkpt lat="43.3303" lon="1.86165">
        <ele>236.577554</ele>
        <time>2023-01-04T13:19:25.090Z</time>
      </trkpt>
      <trkpt lat="43.33019" lon="1.86159">
        <ele>236.507006</ele>
        <time>2023-01-04T13:19:31.086Z</time>
      </trkpt>
      <trkpt lat="43.33009" lon="1.86163">
        <ele>236.441143</ele>
        <time>2023-01-04T13:19:35.103Z</time>
      </trkpt>
      <trkpt lat="43.33006" lon="1.86178">
        <ele>236.366575</ele>
        <time>2023-01-04T13:19:38.092Z</time>
      </trkpt>
      <trkpt lat="43.33004" lon="1.8619">
        <ele>236.304904</ele>
        <time>2023-01-04T13:19:40.083Z</time>
      </trkpt>
      <trkpt lat="43.32998" lon="1.86202">
        <ele>236.239053</ele>
        <time>2023-01-04T13:19:42.091Z</time>
      </trkpt>
      <trkpt lat="43.32992" lon="1.86213">
        <ele>236.177153</ele>
        <time>2023-01-04T13:19:44.089Z</time>
      </trkpt>
      <trkpt lat="43.32988" lon="1.86224">
        <ele>236.11579</ele>
        <time>2023-01-04T13:19:46.086Z</time>
      </trkpt>
      <trkpt lat="43.32984" lon="1.86238">
        <ele>236.047592</ele>
        <time>2023-01-04T13:19:48.083Z</time>
      </trkpt>
      <trkpt lat="43.32981" lon="1.86251">
        <ele>235.983751</ele>
        <time>2023-01-04T13:19:50.082Z</time>
      </trkpt>
      <trkpt lat="43.32978" lon="1.86263">
        <ele>235.920996</ele>
        <time>2023-01-04T13:19:52.086Z</time>
      </trkpt>
      <trkpt lat="43.32974" lon="1.86281">
        <ele>235.832629</ele>
        <time>2023-01-04T13:19:55.086Z</time>
      </trkpt>
      <trkpt lat="43.32971" lon="1.86293">
        <ele>235.773063</ele>
        <time>2023-01-04T13:19:57.086Z</time>
      </trkpt>
      <trkpt lat="43.32968" lon="1.86306">
        <ele>235.712925</ele>
        <time>2023-01-04T13:19:59.092Z</time>
      </trkpt>
      <trkpt lat="43.32964" lon="1.86322">
        <ele>235.630635</ele>
        <time>2023-01-04T13:20:02.086Z</time>
      </trkpt>
      <trkpt lat="43.3296" lon="1.86335">
        <ele>235.564856</ele>
        <time>2023-01-04T13:20:05.084Z</time>
      </trkpt>
      <trkpt lat="43.32956" lon="1.86347">
        <ele>235.506804</ele>
        <time>2023-01-04T13:20:09.086Z</time>
      </trkpt>
      <trkpt lat="43.32952" lon="1.86358">
        <ele>235.453527</ele>
        <time>2023-01-04T13:20:14.082Z</time>
      </trkpt>
      <trkpt lat="43.32955" lon="1.86377">
        <ele>235.369104</ele>
        <time>2023-01-04T13:21:21.088Z</time>
      </trkpt>
      <trkpt lat="43.32957" lon="1.86389">
        <ele>235.315239</ele>
        <time>2023-01-04T13:21:26.098Z</time>
      </trkpt>
      <trkpt lat="43.32953" lon="1.86404">
        <ele>235.247835</ele>
        <time>2023-01-04T13:21:30.100Z</time>
      </trkpt>
      <trkpt lat="43.32949" lon="1.86421">
        <ele>235.175368</ele>
        <time>2023-01-04T13:21:34.083Z</time>
      </trkpt>
      <trkpt lat="43.32946" lon="1.86437">
        <ele>235.103178</ele>
        <time>2023-01-04T13:21:38.081Z</time>
      </trkpt>
      <trkpt lat="43.32942" lon="1.86453">
        <ele>235.032979</ele>
        <time>2023-01-04T13:21:42.088Z</time>
      </trkpt>
      <trkpt lat="43.3294" lon="1.86465">
        <ele>234.979595</ele>
        <time>2023-01-04T13:21:45.090Z</time>
      </trkpt>
      <trkpt lat="43.32936" lon="1.86481">
        <ele>234.910238</ele>
        <time>2023-01-04T13:21:48.097Z</time>
      </trkpt>
      <trkpt lat="43.32933" lon="1.86497">
        <ele>234.839814</ele>
        <time>2023-01-04T13:21:51.092Z</time>
      </trkpt>
      <trkpt lat="43.3293" lon="1.8651">
        <ele>234.778381</ele>
        <time>2023-01-04T13:21:54.087Z</time>
      </trkpt>
      <trkpt lat="43.32927" lon="1.86527">
        <ele>234.705648</ele>
        <time>2023-01-04T13:21:57.082Z</time>
      </trkpt>
      <trkpt lat="43.32924" lon="1.86543">
        <ele>234.633841</ele>
        <time>2023-01-04T13:22:00.086Z</time>
      </trkpt>
      <trkpt lat="43.32921" lon="1.8656">
        <ele>234.562484</ele>
        <time>2023-01-04T13:22:03.089Z</time>
      </trkpt>
      <trkpt lat="43.32918" lon="1.86577">
        <ele>234.489292</ele>
        <time>2023-01-04T13:22:06.088Z</time>
      </trkpt>
      <trkpt lat="43.32916" lon="1.86595">
        <ele>234.457242</ele>
        <time>2023-01-04T13:22:09.081Z</time>
      </trkpt>
      <trkpt lat="43.32914" lon="1.86609">
        <ele>234.445903</ele>
        <time>2023-01-04T13:22:11.093Z</time>
      </trkpt>
      <trkpt lat="43.32913" lon="1.86621">
        <ele>234.435048</ele>
        <time>2023-01-04T13:22:13.084Z</time>
      </trkpt>
      <trkpt lat="43.32911" lon="1.86635">
        <ele>234.423514</ele>
        <time>2023-01-04T13:22:15.088Z</time>
      </trkpt>
      <trkpt lat="43.32908" lon="1.86653">
        <ele>234.408181</ele>
        <time>2023-01-04T13:22:18.091Z</time>
      </trkpt>
      <trkpt lat="43.32908" lon="1.86668">
        <ele>234.395018</ele>
        <time>2023-01-04T13:22:21.086Z</time>
      </trkpt>
      <trkpt lat="43.32907" lon="1.86685">
        <ele>234.380438</ele>
        <time>2023-01-04T13:22:24.083Z</time>
      </trkpt>
      <trkpt lat="43.32905" lon="1.86699">
        <ele>234.368767</ele>
        <time>2023-01-04T13:22:26.087Z</time>
      </trkpt>
      <trkpt lat="43.32906" lon="1.86714">
        <ele>234.356142</ele>
        <time>2023-01-04T13:22:29.084Z</time>
      </trkpt>
      <trkpt lat="43.32906" lon="1.86732">
        <ele>234.340916</ele>
        <time>2023-01-04T13:22:32.082Z</time>
      </trkpt>
      <trkpt lat="43.32905" lon="1.86745">
        <ele>234.330035</ele>
        <time>2023-01-04T13:22:34.100Z</time>
      </trkpt>
      <trkpt lat="43.32905" lon="1.86764">
        <ele>234.314305</ele>
        <time>2023-01-04T13:22:37.082Z</time>
      </trkpt>
      <trkpt lat="43.32907" lon="1.86781">
        <ele>234.299446</ele>
        <time>2023-01-04T13:22:40.081Z</time>
      </trkpt>
      <trkpt lat="43.32908" lon="1.86799">
        <ele>234.284094</ele>
        <time>2023-01-04T13:22:43.082Z</time>
      </trkpt>
      <trkpt lat="43.32907" lon="1.86816">
        <ele>234.27</ele>
        <time>2023-01-04T13:22:46.079Z</time>
      </trkpt>
      <trkpt lat="43.32909" lon="1.86828">
        <ele>234.249477</ele>
        <time>2023-01-04T13:22:48.086Z</time>
      </trkpt>
      <trkpt lat="43.32908" lon="1.86841">
        <ele>234.181207</ele>
        <time>2023-01-04T13:22:50.095Z</time>
      </trkpt>
      <trkpt lat="43.3291" lon="1.86858">
        <ele>234.09072</ele>
        <time>2023-01-04T13:22:53.089Z</time>
      </trkpt>
      <trkpt lat="43.32909" lon="1.86875">
        <ele>233.996915</ele>
        <time>2023-01-04T13:22:56.087Z</time>
      </trkpt>
      <trkpt lat="43.32907" lon="1.86891">
        <ele>233.910082</ele>
        <time>2023-01-04T13:22:59.084Z</time>
      </trkpt>
      <trkpt lat="43.32902" lon="1.86905">
        <ele>233.824888</ele>
        <time>2023-01-04T13:23:02.086Z</time>
      </trkpt>
      <trkpt lat="43.32896" lon="1.86925">
        <ele>233.708611</ele>
        <time>2023-01-04T13:23:05.086Z</time>
      </trkpt>
      <trkpt lat="43.32893" lon="1.86937">
        <ele>233.641614</ele>
        <time>2023-01-04T13:23:07.087Z</time>
      </trkpt>
      <trkpt lat="43.32888" lon="1.86953">
        <ele>233.543952</ele>
        <time>2023-01-04T13:23:10.087Z</time>
      </trkpt>
      <trkpt lat="43.32883" lon="1.86968">
        <ele>233.456289</ele>
        <time>2023-01-04T13:23:13.082Z</time>
      </trkpt>
      <trkpt lat="43.32878" lon="1.86983">
        <ele>233.368696</ele>
        <time>2023-01-04T13:23:16.086Z</time>
      </trkpt>
      <trkpt lat="43.32875" lon="1.86997">
        <ele>233.290843</ele>
        <time>2023-01-04T13:23:19.083Z</time>
      </trkpt>
      <trkpt lat="43.32873" lon="1.87011">
        <ele>233.21503</ele>
        <time>2023-01-04T13:23:22.084Z</time>
      </trkpt>
      <trkpt lat="43.32869" lon="1.87024">
        <ele>233.136512</ele>
        <time>2023-01-04T13:23:25.088Z</time>
      </trkpt>
      <trkpt lat="43.32866" lon="1.87035">
        <ele>233.069805</ele>
        <time>2023-01-04T13:23:28.095Z</time>
      </trkpt>
      <trkpt lat="43.32861" lon="1.87047">
        <ele>232.997924</ele>
        <time>2023-01-04T13:23:31.087Z</time>
      </trkpt>
      <trkpt lat="43.32858" lon="1.87059">
        <ele>232.92841</ele>
        <time>2023-01-04T13:23:33.087Z</time>
      </trkpt>
      <trkpt lat="43.32854" lon="1.87075">
        <ele>232.657111</ele>
        <time>2023-01-04T13:23:35.079Z</time>
      </trkpt>
      <trkpt lat="43.3285" lon="1.87088">
        <ele>232.409816</ele>
        <time>2023-01-04T13:23:37.108Z</time>
      </trkpt>
      <trkpt lat="43.32844" lon="1.87104">
        <ele>232.114559</ele>
        <time>2023-01-04T13:23:39.086Z</time>
      </trkpt>
      <trkpt lat="43.32839" lon="1.87117">
        <ele>231.857095</ele>
        <time>2023-01-04T13:23:41.091Z</time>
      </trkpt>
      <trkpt lat="43.32832" lon="1.87133">
        <ele>231.560113</ele>
        <time>2023-01-04T13:23:43.106Z</time>
      </trkpt>
      <trkpt lat="43.32827" lon="1.87147">
        <ele>231.288997</ele>
        <time>2023-01-04T13:23:45.109Z</time>
      </trkpt>
      <trkpt lat="43.32823" lon="1.8716">
        <ele>231.052296</ele>
        <time>2023-01-04T13:23:47.091Z</time>
      </trkpt>
      <trkpt lat="43.32819" lon="1.87173">
        <ele>230.802328</ele>
        <time>2023-01-04T13:23:49.094Z</time>
      </trkpt>
      <trkpt lat="43.32815" lon="1.87186">
        <ele>230.580085</ele>
        <time>2023-01-04T13:23:51.092Z</time>
      </trkpt>
      <trkpt lat="43.32811" lon="1.872">
        <ele>230.311718</ele>
        <time>2023-01-04T13:23:54.093Z</time>
      </trkpt>
      <trkpt lat="43.32805" lon="1.87216">
        <ele>230.030052</ele>
        <time>2023-01-04T13:23:57.078Z</time>
      </trkpt>
      <trkpt lat="43.32802" lon="1.8723">
        <ele>229.784016</ele>
        <time>2023-01-04T13:23:59.103Z</time>
      </trkpt>
      <trkpt lat="43.32798" lon="1.87243">
        <ele>229.541843</ele>
        <time>2023-01-04T13:24:02.088Z</time>
      </trkpt>
      <trkpt lat="43.32794" lon="1.87256">
        <ele>229.298068</ele>
        <time>2023-01-04T13:24:05.077Z</time>
      </trkpt>
      <trkpt lat="43.3279" lon="1.87268">
        <ele>229.070102</ele>
        <time>2023-01-04T13:24:08.091Z</time>
      </trkpt>
      <trkpt lat="43.32787" lon="1.8728">
        <ele>228.859765</ele>
        <time>2023-01-04T13:24:11.083Z</time>
      </trkpt>
      <trkpt lat="43.32782" lon="1.87294">
        <ele>228.767637</ele>
        <time>2023-01-04T13:24:14.084Z</time>
      </trkpt>
      <trkpt lat="43.32776" lon="1.87309">
        <ele>228.77068</ele>
        <time>2023-01-04T13:24:16.084Z</time>
      </trkpt>
      <trkpt lat="43.32772" lon="1.87321">
        <ele>228.773009</ele>
        <time>2023-01-04T13:24:18.108Z</time>
      </trkpt>
      <trkpt lat="43.32769" lon="1.87335">
        <ele>228.775511</ele>
        <time>2023-01-04T13:24:21.090Z</time>
      </trkpt>
      <trkpt lat="43.32763" lon="1.87349">
        <ele>228.778298</ele>
        <time>2023-01-04T13:24:24.081Z</time>
      </trkpt>
      <trkpt lat="43.32759" lon="1.87363">
        <ele>228.780971</ele>
        <time>2023-01-04T13:24:27.082Z</time>
      </trkpt>
      <trkpt lat="43.32755" lon="1.87375">
        <ele>228.783392</ele>
        <time>2023-01-04T13:24:29.085Z</time>
      </trkpt>
      <trkpt lat="43.32752" lon="1.87395">
        <ele>228.786946</ele>
        <time>2023-01-04T13:24:31.095Z</time>
      </trkpt>
      <trkpt lat="43.3275" lon="1.87408">
        <ele>228.789307</ele>
        <time>2023-01-04T13:24:33.086Z</time>
      </trkpt>
      <trkpt lat="43.32748" lon="1.87426">
        <ele>228.792462</ele>
        <time>2023-01-04T13:24:35.086Z</time>
      </trkpt>
      <trkpt lat="43.32746" lon="1.87441">
        <ele>228.795188</ele>
        <time>2023-01-04T13:24:37.106Z</time>
      </trkpt>
      <trkpt lat="43.32744" lon="1.87454">
        <ele>228.797534</ele>
        <time>2023-01-04T13:24:39.084Z</time>
      </trkpt>
      <trkpt lat="43.32742" lon="1.87472">
        <ele>228.800652</ele>
        <time>2023-01-04T13:24:42.090Z</time>
      </trkpt>
      <trkpt lat="43.3274" lon="1.87489">
        <ele>228.803665</ele>
        <time>2023-01-04T13:24:44.094Z</time>
      </trkpt>
      <trkpt lat="43.32739" lon="1.87504">
        <ele>228.806282</ele>
        <time>2023-01-04T13:24:46.087Z</time>
      </trkpt>
      <trkpt lat="43.32737" lon="1.87518">
        <ele>228.808883</ele>
        <time>2023-01-04T13:24:48.091Z</time>
      </trkpt>
      <trkpt lat="43.32737" lon="1.87538">
        <ele>228.829846</ele>
        <time>2023-01-04T13:24:51.087Z</time>
      </trkpt>
      <trkpt lat="43.32736" lon="1.87552">
        <ele>228.84753</ele>
        <time>2023-01-04T13:24:53.136Z</time>
      </trkpt>
      <trkpt lat="43.32735" lon="1.87564">
        <ele>228.862936</ele>
        <time>2023-01-04T13:24:55.089Z</time>
      </trkpt>
      <trkpt lat="43.32733" lon="1.87577">
        <ele>228.878545</ele>
        <time>2023-01-04T13:24:57.098Z</time>
      </trkpt>
      <trkpt lat="43.32731" lon="1.8759">
        <ele>228.894974</ele>
        <time>2023-01-04T13:24:59.089Z</time>
      </trkpt>
      <trkpt lat="43.32729" lon="1.87603">
        <ele>228.911868</ele>
        <time>2023-01-04T13:25:01.100Z</time>
      </trkpt>
      <trkpt lat="43.32727" lon="1.87616">
        <ele>228.927933</ele>
        <time>2023-01-04T13:25:03.095Z</time>
      </trkpt>
      <trkpt lat="43.32726" lon="1.87629">
        <ele>228.943877</ele>
        <time>2023-01-04T13:25:05.100Z</time>
      </trkpt>
      <trkpt lat="43.32725" lon="1.87642">
        <ele>228.959406</ele>
        <time>2023-01-04T13:25:07.112Z</time>
      </trkpt>
      <trkpt lat="43.32724" lon="1.87655">
        <ele>228.975465</ele>
        <time>2023-01-04T13:25:09.105Z</time>
      </trkpt>
      <trkpt lat="43.32723" lon="1.87667">
        <ele>228.991387</ele>
        <time>2023-01-04T13:25:11.085Z</time>
      </trkpt>
      <trkpt lat="43.32722" lon="1.8768">
        <ele>229.00738</ele>
        <time>2023-01-04T13:25:13.088Z</time>
      </trkpt>
      <trkpt lat="43.32721" lon="1.87699">
        <ele>229.029936</ele>
        <time>2023-01-04T13:25:16.101Z</time>
      </trkpt>
      <trkpt lat="43.32719" lon="1.87712">
        <ele>229.046584</ele>
        <time>2023-01-04T13:25:18.090Z</time>
      </trkpt>
      <trkpt lat="43.32719" lon="1.87727">
        <ele>229.065181</ele>
        <time>2023-01-04T13:25:21.086Z</time>
      </trkpt>
      <trkpt lat="43.32718" lon="1.8774">
        <ele>229.081418</ele>
        <time>2023-01-04T13:25:23.088Z</time>
      </trkpt>
      <trkpt lat="43.32717" lon="1.87758">
        <ele>229.10271</ele>
        <time>2023-01-04T13:25:26.083Z</time>
      </trkpt>
      <trkpt lat="43.32716" lon="1.87771">
        <ele>229.116176</ele>
        <time>2023-01-04T13:25:28.104Z</time>
      </trkpt>
      <trkpt lat="43.32715" lon="1.87784">
        <ele>229.124219</ele>
        <time>2023-01-04T13:25:30.094Z</time>
      </trkpt>
      <trkpt lat="43.32713" lon="1.87798">
        <ele>229.132733</ele>
        <time>2023-01-04T13:25:32.111Z</time>
      </trkpt>
      <trkpt lat="43.3271" lon="1.87814">
        <ele>229.142504</ele>
        <time>2023-01-04T13:25:36.086Z</time>
      </trkpt>
      <trkpt lat="43.32707" lon="1.87829">
        <ele>229.151912</ele>
        <time>2023-01-04T13:25:39.093Z</time>
      </trkpt>
      <trkpt lat="43.32703" lon="1.87844">
        <ele>229.161486</ele>
        <time>2023-01-04T13:25:42.097Z</time>
      </trkpt>
      <trkpt lat="43.32699" lon="1.87858">
        <ele>229.170635</ele>
        <time>2023-01-04T13:25:45.079Z</time>
      </trkpt>
      <trkpt lat="43.32694" lon="1.87874">
        <ele>229.181265</ele>
        <time>2023-01-04T13:25:48.091Z</time>
      </trkpt>
      <trkpt lat="43.32688" lon="1.87889">
        <ele>229.19155</ele>
        <time>2023-01-04T13:25:51.086Z</time>
      </trkpt>
      <trkpt lat="43.32682" lon="1.87899">
        <ele>229.19938</ele>
        <time>2023-01-04T13:25:53.097Z</time>
      </trkpt>
      <trkpt lat="43.32676" lon="1.87914">
        <ele>229.209366</ele>
        <time>2023-01-04T13:25:56.091Z</time>
      </trkpt>
      <trkpt lat="43.32673" lon="1.87926">
        <ele>229.216999</ele>
        <time>2023-01-04T13:25:59.092Z</time>
      </trkpt>
      <trkpt lat="43.32667" lon="1.87936">
        <ele>229.224728</ele>
        <time>2023-01-04T13:26:02.086Z</time>
      </trkpt>
      <trkpt lat="43.32662" lon="1.87947">
        <ele>229.232522</ele>
        <time>2023-01-04T13:26:04.086Z</time>
      </trkpt>
      <trkpt lat="43.32658" lon="1.87958">
        <ele>229.240221</ele>
        <time>2023-01-04T13:26:06.092Z</time>
      </trkpt>
      <trkpt lat="43.32651" lon="1.87973">
        <ele>229.250703</ele>
        <time>2023-01-04T13:26:09.083Z</time>
      </trkpt>
      <trkpt lat="43.32646" lon="1.87985">
        <ele>229.258972</ele>
        <time>2023-01-04T13:26:11.093Z</time>
      </trkpt>
      <trkpt lat="43.32638" lon="1.88001">
        <ele>229.303542</ele>
        <time>2023-01-04T13:26:14.082Z</time>
      </trkpt>
      <trkpt lat="43.32631" lon="1.88016">
        <ele>229.356463</ele>
        <time>2023-01-04T13:26:17.084Z</time>
      </trkpt>
      <trkpt lat="43.32625" lon="1.88032">
        <ele>229.409384</ele>
        <time>2023-01-04T13:26:20.086Z</time>
      </trkpt>
      <trkpt lat="43.32618" lon="1.88041">
        <ele>229.448745</ele>
        <time>2023-01-04T13:26:22.086Z</time>
      </trkpt>
      <trkpt lat="43.32612" lon="1.88054">
        <ele>229.490948</ele>
        <time>2023-01-04T13:26:24.082Z</time>
      </trkpt>
      <trkpt lat="43.32607" lon="1.88066">
        <ele>229.534114</ele>
        <time>2023-01-04T13:26:26.086Z</time>
      </trkpt>
      <trkpt lat="43.32601" lon="1.88079">
        <ele>229.579163</ele>
        <time>2023-01-04T13:26:28.088Z</time>
      </trkpt>
      <trkpt lat="43.32597" lon="1.88091">
        <ele>229.615918</ele>
        <time>2023-01-04T13:26:30.107Z</time>
      </trkpt>
      <trkpt lat="43.3259" lon="1.88104">
        <ele>229.665125</ele>
        <time>2023-01-04T13:26:33.093Z</time>
      </trkpt>
      <trkpt lat="43.32586" lon="1.88116">
        <ele>229.704452</ele>
        <time>2023-01-04T13:26:36.086Z</time>
      </trkpt>
      <trkpt lat="43.3258" lon="1.88129">
        <ele>229.747294</ele>
        <time>2023-01-04T13:26:39.085Z</time>
      </trkpt>
      <trkpt lat="43.32574" lon="1.88144">
        <ele>229.797974</ele>
        <time>2023-01-04T13:26:42.089Z</time>
      </trkpt>
      <trkpt lat="43.32569" lon="1.88154">
        <ele>229.835799</ele>
        <time>2023-01-04T13:26:44.080Z</time>
      </trkpt>
      <trkpt lat="43.32562" lon="1.88168">
        <ele>229.881956</ele>
        <time>2023-01-04T13:26:46.088Z</time>
      </trkpt>
      <trkpt lat="43.32556" lon="1.88182">
        <ele>229.93224</ele>
        <time>2023-01-04T13:26:49.084Z</time>
      </trkpt>
      <trkpt lat="43.32551" lon="1.88194">
        <ele>229.970793</ele>
        <time>2023-01-04T13:26:51.096Z</time>
      </trkpt>
      <trkpt lat="43.32546" lon="1.88204">
        <ele>229.945176</ele>
        <time>2023-01-04T13:26:53.086Z</time>
      </trkpt>
      <trkpt lat="43.32539" lon="1.88216">
        <ele>229.838628</ele>
        <time>2023-01-04T13:26:56.088Z</time>
      </trkpt>
      <trkpt lat="43.32532" lon="1.8823">
        <ele>229.730501</ele>
        <time>2023-01-04T13:26:59.103Z</time>
      </trkpt>
      <trkpt lat="43.32527" lon="1.88245">
        <ele>229.61592</ele>
        <time>2023-01-04T13:27:02.090Z</time>
      </trkpt>
      <trkpt lat="43.32524" lon="1.88264">
        <ele>229.491618</ele>
        <time>2023-01-04T13:27:04.087Z</time>
      </trkpt>
      <trkpt lat="43.32523" lon="1.88277">
        <ele>229.401176</ele>
        <time>2023-01-04T13:27:06.079Z</time>
      </trkpt>
      <trkpt lat="43.32521" lon="1.8829">
        <ele>229.313126</ele>
        <time>2023-01-04T13:27:08.095Z</time>
      </trkpt>
      <trkpt lat="43.32521" lon="1.88308">
        <ele>229.193395</ele>
        <time>2023-01-04T13:27:11.077Z</time>
      </trkpt>
      <trkpt lat="43.32521" lon="1.88322">
        <ele>229.102286</ele>
        <time>2023-01-04T13:27:13.087Z</time>
      </trkpt>
      <trkpt lat="43.32521" lon="1.88339">
        <ele>228.989842</ele>
        <time>2023-01-04T13:27:16.075Z</time>
      </trkpt>
      <trkpt lat="43.32521" lon="1.88353">
        <ele>228.894708</ele>
        <time>2023-01-04T13:27:19.090Z</time>
      </trkpt>
      <trkpt lat="43.32517" lon="1.88368">
        <ele>228.793452</ele>
        <time>2023-01-04T13:27:23.088Z</time>
      </trkpt>
      <trkpt lat="43.32517" lon="1.88381">
        <ele>228.702054</ele>
        <time>2023-01-04T13:27:26.085Z</time>
      </trkpt>
      <trkpt lat="43.32515" lon="1.88395">
        <ele>228.606879</ele>
        <time>2023-01-04T13:27:29.086Z</time>
      </trkpt>
      <trkpt lat="43.32517" lon="1.88411">
        <ele>228.503166</ele>
        <time>2023-01-04T13:27:32.102Z</time>
      </trkpt>
      <trkpt lat="43.3252" lon="1.88423">
        <ele>228.420444</ele>
        <time>2023-01-04T13:27:34.082Z</time>
      </trkpt>
      <trkpt lat="43.3252" lon="1.88437">
        <ele>228.291494</ele>
        <time>2023-01-04T13:27:37.077Z</time>
      </trkpt>
      <trkpt lat="43.32519" lon="1.88451">
        <ele>227.985549</ele>
        <time>2023-01-04T13:27:40.076Z</time>
      </trkpt>
      <trkpt lat="43.32519" lon="1.88465">
        <ele>227.669265</ele>
        <time>2023-01-04T13:27:43.090Z</time>
      </trkpt>
      <trkpt lat="43.32519" lon="1.88481">
        <ele>227.322847</ele>
        <time>2023-01-04T13:27:46.079Z</time>
      </trkpt>
      <trkpt lat="43.32519" lon="1.88497">
        <ele>226.99595</ele>
        <time>2023-01-04T13:27:49.077Z</time>
      </trkpt>
      <trkpt lat="43.32518" lon="1.8851">
        <ele>226.700998</ele>
        <time>2023-01-04T13:27:52.097Z</time>
      </trkpt>
      <trkpt lat="43.32519" lon="1.88526">
        <ele>226.352149</ele>
        <time>2023-01-04T13:27:55.089Z</time>
      </trkpt>
      <trkpt lat="43.3252" lon="1.8854">
        <ele>226.058391</ele>
        <time>2023-01-04T13:27:58.088Z</time>
      </trkpt>
      <trkpt lat="43.32518" lon="1.88552">
        <ele>225.787898</ele>
        <time>2023-01-04T13:28:04.080Z</time>
      </trkpt>
      <trkpt lat="43.32517" lon="1.88572">
        <ele>225.362339</ele>
        <time>2023-01-04T13:28:42.092Z</time>
      </trkpt>
      <trkpt lat="43.32516" lon="1.88588">
        <ele>225.011024</ele>
        <time>2023-01-04T13:28:45.092Z</time>
      </trkpt>
      <trkpt lat="43.32516" lon="1.88606">
        <ele>224.627567</ele>
        <time>2023-01-04T13:28:48.088Z</time>
      </trkpt>
      <trkpt lat="43.32516" lon="1.88618">
        <ele>224.352639</ele>
        <time>2023-01-04T13:28:50.103Z</time>
      </trkpt>
      <trkpt lat="43.32516" lon="1.88631">
        <ele>224.075529</ele>
        <time>2023-01-04T13:28:52.104Z</time>
      </trkpt>
      <trkpt lat="43.32516" lon="1.88644">
        <ele>223.785203</ele>
        <time>2023-01-04T13:28:54.091Z</time>
      </trkpt>
      <trkpt lat="43.32516" lon="1.88663">
        <ele>223.386781</ele>
        <time>2023-01-04T13:28:57.093Z</time>
      </trkpt>
      <trkpt lat="43.32516" lon="1.88675">
        <ele>223.118083</ele>
        <time>2023-01-04T13:28:59.081Z</time>
      </trkpt>
      <trkpt lat="43.32516" lon="1.88692">
        <ele>222.972321</ele>
        <time>2023-01-04T13:29:02.079Z</time>
      </trkpt>
      <trkpt lat="43.32516" lon="1.88708">
        <ele>222.94294</ele>
        <time>2023-01-04T13:29:05.086Z</time>
      </trkpt>
      <trkpt lat="43.32515" lon="1.88723">
        <ele>222.915561</ele>
        <time>2023-01-04T13:29:08.090Z</time>
      </trkpt>
      <trkpt lat="43.32515" lon="1.88738">
        <ele>222.887092</ele>
        <time>2023-01-04T13:29:11.089Z</time>
      </trkpt>
      <trkpt lat="43.32515" lon="1.88756">
        <ele>222.855855</ele>
        <time>2023-01-04T13:29:14.086Z</time>
      </trkpt>
      <trkpt lat="43.32514" lon="1.88774">
        <ele>222.822273</ele>
        <time>2023-01-04T13:29:17.086Z</time>
      </trkpt>
      <trkpt lat="43.32514" lon="1.88787">
        <ele>222.799278</ele>
        <time>2023-01-04T13:29:19.084Z</time>
      </trkpt>
      <trkpt lat="43.32514" lon="1.88805">
        <ele>222.765149</ele>
        <time>2023-01-04T13:29:22.107Z</time>
      </trkpt>
      <trkpt lat="43.32514" lon="1.88819">
        <ele>222.740694</ele>
        <time>2023-01-04T13:29:24.080Z</time>
      </trkpt>
      <trkpt lat="43.32514" lon="1.88832">
        <ele>222.717091</ele>
        <time>2023-01-04T13:29:26.086Z</time>
      </trkpt>
      <trkpt lat="43.32513" lon="1.88845">
        <ele>222.693337</ele>
        <time>2023-01-04T13:29:28.093Z</time>
      </trkpt>
      <trkpt lat="43.32513" lon="1.88857">
        <ele>222.670131</ele>
        <time>2023-01-04T13:29:30.081Z</time>
      </trkpt>
      <trkpt lat="43.32511" lon="1.88876">
        <ele>222.636581</ele>
        <time>2023-01-04T13:29:33.083Z</time>
      </trkpt>
      <trkpt lat="43.3251" lon="1.88888">
        <ele>222.613285</ele>
        <time>2023-01-04T13:29:35.088Z</time>
      </trkpt>
      <trkpt lat="43.32508" lon="1.88901">
        <ele>222.59011</ele>
        <time>2023-01-04T13:29:37.084Z</time>
      </trkpt>
      <trkpt lat="43.32505" lon="1.88913">
        <ele>222.566808</ele>
        <time>2023-01-04T13:29:39.091Z</time>
      </trkpt>
      <trkpt lat="43.32502" lon="1.8893">
        <ele>222.522367</ele>
        <time>2023-01-04T13:29:42.105Z</time>
      </trkpt>
      <trkpt lat="43.32499" lon="1.88942">
        <ele>222.457632</ele>
        <time>2023-01-04T13:29:44.089Z</time>
      </trkpt>
      <trkpt lat="43.32495" lon="1.8896">
        <ele>222.361247</ele>
        <time>2023-01-04T13:29:47.126Z</time>
      </trkpt>
      <trkpt lat="43.32492" lon="1.88973">
        <ele>222.290706</ele>
        <time>2023-01-04T13:29:49.090Z</time>
      </trkpt>
      <trkpt lat="43.32489" lon="1.88985">
        <ele>222.22281</ele>
        <time>2023-01-04T13:29:51.089Z</time>
      </trkpt>
      <trkpt lat="43.32486" lon="1.88998">
        <ele>222.154851</ele>
        <time>2023-01-04T13:29:53.081Z</time>
      </trkpt>
      <trkpt lat="43.32483" lon="1.89011">
        <ele>222.084993</ele>
        <time>2023-01-04T13:29:55.103Z</time>
      </trkpt>
      <trkpt lat="43.32481" lon="1.89023">
        <ele>222.018427</ele>
        <time>2023-01-04T13:29:57.082Z</time>
      </trkpt>
      <trkpt lat="43.32478" lon="1.89036">
        <ele>221.950063</ele>
        <time>2023-01-04T13:29:59.078Z</time>
      </trkpt>
      <trkpt lat="43.32475" lon="1.89048">
        <ele>221.883367</ele>
        <time>2023-01-04T13:30:01.112Z</time>
      </trkpt>
      <trkpt lat="43.32471" lon="1.89065">
        <ele>221.790537</ele>
        <time>2023-01-04T13:30:04.104Z</time>
      </trkpt>
      <trkpt lat="43.32467" lon="1.89083">
        <ele>221.694279</ele>
        <time>2023-01-04T13:30:07.104Z</time>
      </trkpt>
      <trkpt lat="43.32463" lon="1.891">
        <ele>221.605004</ele>
        <time>2023-01-04T13:30:10.087Z</time>
      </trkpt>
      <trkpt lat="43.3246" lon="1.89112">
        <ele>221.539289</ele>
        <time>2023-01-04T13:30:12.084Z</time>
      </trkpt>
      <trkpt lat="43.32455" lon="1.89129">
        <ele>221.444755</ele>
        <time>2023-01-04T13:30:15.079Z</time>
      </trkpt>
      <trkpt lat="43.32453" lon="1.89141">
        <ele>221.380731</ele>
        <time>2023-01-04T13:30:17.086Z</time>
      </trkpt>
      <trkpt lat="43.3245" lon="1.89153">
        <ele>221.315847</ele>
        <time>2023-01-04T13:30:19.090Z</time>
      </trkpt>
      <trkpt lat="43.32449" lon="1.89165">
        <ele>221.279417</ele>
        <time>2023-01-04T13:30:21.088Z</time>
      </trkpt>
      <trkpt lat="43.32447" lon="1.89178">
        <ele>221.34092</ele>
        <time>2023-01-04T13:30:23.082Z</time>
      </trkpt>
      <trkpt lat="43.32444" lon="1.8919">
        <ele>221.4026</ele>
        <time>2023-01-04T13:30:25.089Z</time>
      </trkpt>
      <trkpt lat="43.32442" lon="1.89207">
        <ele>221.49154</ele>
        <time>2023-01-04T13:30:28.094Z</time>
      </trkpt>
      <trkpt lat="43.32438" lon="1.89221">
        <ele>221.562772</ele>
        <time>2023-01-04T13:30:30.085Z</time>
      </trkpt>
      <trkpt lat="43.32435" lon="1.89238">
        <ele>221.647846</ele>
        <time>2023-01-04T13:30:33.087Z</time>
      </trkpt>
      <trkpt lat="43.32434" lon="1.89254">
        <ele>221.726982</ele>
        <time>2023-01-04T13:30:36.087Z</time>
      </trkpt>
      <trkpt lat="43.32432" lon="1.89267">
        <ele>221.792004</ele>
        <time>2023-01-04T13:30:39.087Z</time>
      </trkpt>
      <trkpt lat="43.3243" lon="1.89285">
        <ele>221.881658</ele>
        <time>2023-01-04T13:30:42.089Z</time>
      </trkpt>
      <trkpt lat="43.32429" lon="1.89299">
        <ele>221.948819</ele>
        <time>2023-01-04T13:30:44.082Z</time>
      </trkpt>
      <trkpt lat="43.32428" lon="1.89311">
        <ele>222.012094</ele>
        <time>2023-01-04T13:30:46.086Z</time>
      </trkpt>
      <trkpt lat="43.32426" lon="1.89326">
        <ele>222.08783</ele>
        <time>2023-01-04T13:30:49.082Z</time>
      </trkpt>
      <trkpt lat="43.32424" lon="1.89341">
        <ele>222.159858</ele>
        <time>2023-01-04T13:30:51.084Z</time>
      </trkpt>
      <trkpt lat="43.32421" lon="1.89359">
        <ele>222.249716</ele>
        <time>2023-01-04T13:30:54.086Z</time>
      </trkpt>
      <trkpt lat="43.32419" lon="1.89371">
        <ele>222.312619</ele>
        <time>2023-01-04T13:30:56.087Z</time>
      </trkpt>
      <trkpt lat="43.32417" lon="1.89389">
        <ele>222.401529</ele>
        <time>2023-01-04T13:30:59.090Z</time>
      </trkpt>
      <trkpt lat="43.32415" lon="1.89402">
        <ele>222.464196</ele>
        <time>2023-01-04T13:31:01.077Z</time>
      </trkpt>
      <trkpt lat="43.32414" lon="1.89415">
        <ele>222.502311</ele>
        <time>2023-01-04T13:31:03.082Z</time>
      </trkpt>
      <trkpt lat="43.32411" lon="1.89431">
        <ele>222.538153</ele>
        <time>2023-01-04T13:31:06.090Z</time>
      </trkpt>
      <trkpt lat="43.32407" lon="1.89447">
        <ele>222.574514</ele>
        <time>2023-01-04T13:31:09.100Z</time>
      </trkpt>
      <trkpt lat="43.32405" lon="1.8946">
        <ele>222.603661</ele>
        <time>2023-01-04T13:31:11.088Z</time>
      </trkpt>
      <trkpt lat="43.32403" lon="1.89477">
        <ele>222.639554</ele>
        <time>2023-01-04T13:31:13.089Z</time>
      </trkpt>
      <trkpt lat="43.32402" lon="1.8949">
        <ele>222.667172</ele>
        <time>2023-01-04T13:31:15.102Z</time>
      </trkpt>
      <trkpt lat="43.32399" lon="1.89502">
        <ele>222.695581</ele>
        <time>2023-01-04T13:31:17.105Z</time>
      </trkpt>
      <trkpt lat="43.32396" lon="1.89521">
        <ele>222.735802</ele>
        <time>2023-01-04T13:31:20.087Z</time>
      </trkpt>
      <trkpt lat="43.32392" lon="1.89536">
        <ele>222.771484</ele>
        <time>2023-01-04T13:31:23.086Z</time>
      </trkpt>
      <trkpt lat="43.32388" lon="1.89551">
        <ele>222.80461</ele>
        <time>2023-01-04T13:31:26.090Z</time>
      </trkpt>
      <trkpt lat="43.32384" lon="1.89568">
        <ele>222.842987</ele>
        <time>2023-01-04T13:31:28.078Z</time>
      </trkpt>
      <trkpt lat="43.32381" lon="1.89582">
        <ele>222.874817</ele>
        <time>2023-01-04T13:31:30.086Z</time>
      </trkpt>
      <trkpt lat="43.32378" lon="1.89599">
        <ele>222.912718</ele>
        <time>2023-01-04T13:31:33.087Z</time>
      </trkpt>
      <trkpt lat="43.32374" lon="1.89614">
        <ele>222.945947</ele>
        <time>2023-01-04T13:31:35.087Z</time>
      </trkpt>
      <trkpt lat="43.3237" lon="1.89627">
        <ele>222.975549</ele>
        <time>2023-01-04T13:31:37.106Z</time>
      </trkpt>
      <trkpt lat="43.32367" lon="1.8964">
        <ele>223.004649</ele>
        <time>2023-01-04T13:31:39.092Z</time>
      </trkpt>
      <trkpt lat="43.32365" lon="1.89653">
        <ele>222.923965</ele>
        <time>2023-01-04T13:31:41.088Z</time>
      </trkpt>
      <trkpt lat="43.32362" lon="1.89666">
        <ele>222.811676</ele>
        <time>2023-01-04T13:31:43.087Z</time>
      </trkpt>
      <trkpt lat="43.32358" lon="1.8968">
        <ele>222.68886</ele>
        <time>2023-01-04T13:31:45.086Z</time>
      </trkpt>
      <trkpt lat="43.32353" lon="1.89694">
        <ele>222.563686</ele>
        <time>2023-01-04T13:31:48.084Z</time>
      </trkpt>
      <trkpt lat="43.32348" lon="1.89711">
        <ele>222.415288</ele>
        <time>2023-01-04T13:31:51.087Z</time>
      </trkpt>
      <trkpt lat="43.32345" lon="1.89723">
        <ele>222.312381</ele>
        <time>2023-01-04T13:31:53.091Z</time>
      </trkpt>
      <trkpt lat="43.32341" lon="1.89735">
        <ele>222.203685</ele>
        <time>2023-01-04T13:31:55.086Z</time>
      </trkpt>
      <trkpt lat="43.32337" lon="1.89747">
        <ele>222.097664</ele>
        <time>2023-01-04T13:31:57.081Z</time>
      </trkpt>
      <trkpt lat="43.32334" lon="1.8976">
        <ele>221.987878</ele>
        <time>2023-01-04T13:31:59.088Z</time>
      </trkpt>
      <trkpt lat="43.3233" lon="1.89772">
        <ele>221.881857</ele>
        <time>2023-01-04T13:32:01.086Z</time>
      </trkpt>
      <trkpt lat="43.32326" lon="1.89785">
        <ele>221.764708</ele>
        <time>2023-01-04T13:32:04.086Z</time>
      </trkpt>
      <trkpt lat="43.32323" lon="1.89797">
        <ele>221.66286</ele>
        <time>2023-01-04T13:32:06.088Z</time>
      </trkpt>
      <trkpt lat="43.32318" lon="1.89814">
        <ele>221.513462</ele>
        <time>2023-01-04T13:32:09.089Z</time>
      </trkpt>
      <trkpt lat="43.32315" lon="1.89826">
        <ele>221.40902</ele>
        <time>2023-01-04T13:32:11.094Z</time>
      </trkpt>
      <trkpt lat="43.32312" lon="1.89838">
        <ele>221.308007</ele>
        <time>2023-01-04T13:32:13.089Z</time>
      </trkpt>
      <trkpt lat="43.32309" lon="1.89854">
        <ele>221.177636</ele>
        <time>2023-01-04T13:32:16.083Z</time>
      </trkpt>
      <trkpt lat="43.32307" lon="1.89869">
        <ele>221.052742</ele>
        <time>2023-01-04T13:32:19.080Z</time>
      </trkpt>
      <trkpt lat="43.32304" lon="1.89883">
        <ele>220.953339</ele>
        <time>2023-01-04T13:32:22.106Z</time>
      </trkpt>
      <trkpt lat="43.32301" lon="1.89896">
        <ele>220.872553</ele>
        <time>2023-01-04T13:32:25.086Z</time>
      </trkpt>
      <trkpt lat="43.32296" lon="1.89907">
        <ele>220.792218</ele>
        <time>2023-01-04T13:32:28.088Z</time>
      </trkpt>
      <trkpt lat="43.3229" lon="1.89924">
        <ele>220.679899</ele>
        <time>2023-01-04T13:32:32.095Z</time>
      </trkpt>
      <trkpt lat="43.32286" lon="1.89936">
        <ele>220.599121</ele>
        <time>2023-01-04T13:32:34.090Z</time>
      </trkpt>
      <trkpt lat="43.32282" lon="1.89949">
        <ele>220.518798</ele>
        <time>2023-01-04T13:32:36.083Z</time>
      </trkpt>
      <trkpt lat="43.32278" lon="1.89962">
        <ele>220.43363</ele>
        <time>2023-01-04T13:32:38.088Z</time>
      </trkpt>
      <trkpt lat="43.32274" lon="1.89975">
        <ele>220.346252</ele>
        <time>2023-01-04T13:32:40.089Z</time>
      </trkpt>
      <trkpt lat="43.3227" lon="1.89988">
        <ele>220.263392</ele>
        <time>2023-01-04T13:32:42.088Z</time>
      </trkpt>
      <trkpt lat="43.32266" lon="1.9">
        <ele>220.184497</ele>
        <time>2023-01-04T13:32:44.092Z</time>
      </trkpt>
      <trkpt lat="43.32263" lon="1.90012">
        <ele>220.10455</ele>
        <time>2023-01-04T13:32:46.086Z</time>
      </trkpt>
      <trkpt lat="43.32259" lon="1.90025">
        <ele>220.022796</ele>
        <time>2023-01-04T13:32:48.093Z</time>
      </trkpt>
      <trkpt lat="43.32256" lon="1.90037">
        <ele>219.944267</ele>
        <time>2023-01-04T13:32:50.089Z</time>
      </trkpt>
      <trkpt lat="43.32252" lon="1.90049">
        <ele>219.86339</ele>
        <time>2023-01-04T13:32:52.102Z</time>
      </trkpt>
      <trkpt lat="43.32248" lon="1.90062">
        <ele>219.778922</ele>
        <time>2023-01-04T13:32:54.086Z</time>
      </trkpt>
      <trkpt lat="43.32244" lon="1.90074">
        <ele>219.701038</ele>
        <time>2023-01-04T13:32:56.093Z</time>
      </trkpt>
      <trkpt lat="43.3224" lon="1.9009">
        <ele>219.597938</ele>
        <time>2023-01-04T13:32:59.079Z</time>
      </trkpt>
      <trkpt lat="43.32236" lon="1.90106">
        <ele>219.519231</ele>
        <time>2023-01-04T13:33:02.080Z</time>
      </trkpt>
      <trkpt lat="43.32233" lon="1.90123">
        <ele>219.516885</ele>
        <time>2023-01-04T13:33:05.088Z</time>
      </trkpt>
      <trkpt lat="43.32231" lon="1.90135">
        <ele>219.515044</ele>
        <time>2023-01-04T13:33:08.089Z</time>
      </trkpt>
      <trkpt lat="43.32227" lon="1.9015">
        <ele>219.51295</ele>
        <time>2023-01-04T13:33:12.091Z</time>
      </trkpt>
      <trkpt lat="43.32226" lon="1.90162">
        <ele>219.511192</ele>
        <time>2023-01-04T13:33:23.081Z</time>
      </trkpt>
      <trkpt lat="43.32224" lon="1.90175">
        <ele>219.509365</ele>
        <time>2023-01-04T13:33:27.084Z</time>
      </trkpt>
      <trkpt lat="43.32223" lon="1.90188">
        <ele>219.50748</ele>
        <time>2023-01-04T13:33:30.087Z</time>
      </trkpt>
      <trkpt lat="43.32222" lon="1.90203">
        <ele>219.505376</ele>
        <time>2023-01-04T13:33:33.085Z</time>
      </trkpt>
      <trkpt lat="43.3222" lon="1.9022">
        <ele>219.503065</ele>
        <time>2023-01-04T13:33:36.087Z</time>
      </trkpt>
      <trkpt lat="43.32218" lon="1.90237">
        <ele>219.500591</ele>
        <time>2023-01-04T13:33:39.087Z</time>
      </trkpt>
      <trkpt lat="43.32217" lon="1.90256">
        <ele>219.498028</ele>
        <time>2023-01-04T13:33:42.087Z</time>
      </trkpt>
      <trkpt lat="43.32217" lon="1.90269">
        <ele>219.496197</ele>
        <time>2023-01-04T13:33:44.088Z</time>
      </trkpt>
      <trkpt lat="43.32217" lon="1.90287">
        <ele>219.493668</ele>
        <time>2023-01-04T13:33:47.084Z</time>
      </trkpt>
      <trkpt lat="43.32217" lon="1.90305">
        <ele>219.491099</ele>
        <time>2023-01-04T13:33:50.092Z</time>
      </trkpt>
      <trkpt lat="43.32217" lon="1.90318">
        <ele>219.489256</ele>
        <time>2023-01-04T13:33:52.088Z</time>
      </trkpt>
      <trkpt lat="43.32218" lon="1.90337">
        <ele>219.486641</ele>
        <time>2023-01-04T13:33:55.086Z</time>
      </trkpt>
      <trkpt lat="43.32218" lon="1.9035">
        <ele>219.512481</ele>
        <time>2023-01-04T13:33:57.087Z</time>
      </trkpt>
      <trkpt lat="43.32218" lon="1.90368">
        <ele>219.659572</ele>
        <time>2023-01-04T13:34:00.091Z</time>
      </trkpt>
      <trkpt lat="43.32219" lon="1.90386">
        <ele>219.810106</ele>
        <time>2023-01-04T13:34:03.084Z</time>
      </trkpt>
      <trkpt lat="43.32219" lon="1.90398">
        <ele>219.91452</ele>
        <time>2023-01-04T13:34:05.088Z</time>
      </trkpt>
      <trkpt lat="43.32218" lon="1.90411">
        <ele>220.01884</ele>
        <time>2023-01-04T13:34:07.084Z</time>
      </trkpt>
      <trkpt lat="43.32216" lon="1.90427">
        <ele>220.154225</ele>
        <time>2023-01-04T13:34:10.103Z</time>
      </trkpt>
      <trkpt lat="43.32213" lon="1.90443">
        <ele>220.297344</ele>
        <time>2023-01-04T13:34:13.088Z</time>
      </trkpt>
      <trkpt lat="43.32211" lon="1.90458">
        <ele>220.424947</ele>
        <time>2023-01-04T13:34:15.079Z</time>
      </trkpt>
      <trkpt lat="43.3221" lon="1.90472">
        <ele>220.540186</ele>
        <time>2023-01-04T13:34:17.079Z</time>
      </trkpt>
      <trkpt lat="43.32209" lon="1.9049">
        <ele>220.688538</ele>
        <time>2023-01-04T13:34:20.084Z</time>
      </trkpt>
      <trkpt lat="43.32205" lon="1.90506">
        <ele>220.833195</ele>
        <time>2023-01-04T13:34:23.086Z</time>
      </trkpt>
      <trkpt lat="43.32202" lon="1.90525">
        <ele>220.995512</ele>
        <time>2023-01-04T13:34:26.085Z</time>
      </trkpt>
      <trkpt lat="43.32199" lon="1.90538">
        <ele>221.102668</ele>
        <time>2023-01-04T13:34:28.081Z</time>
      </trkpt>
      <trkpt lat="43.32197" lon="1.90551">
        <ele>221.214945</ele>
        <time>2023-01-04T13:34:30.088Z</time>
      </trkpt>
      <trkpt lat="43.32194" lon="1.90563">
        <ele>221.322237</ele>
        <time>2023-01-04T13:34:32.085Z</time>
      </trkpt>
      <trkpt lat="43.32192" lon="1.90576">
        <ele>221.43626</ele>
        <time>2023-01-04T13:34:34.088Z</time>
      </trkpt>
      <trkpt lat="43.32189" lon="1.9059">
        <ele>221.558733</ele>
        <time>2023-01-04T13:34:36.094Z</time>
      </trkpt>
      <trkpt lat="43.32187" lon="1.90602">
        <ele>221.706654</ele>
        <time>2023-01-04T13:34:38.083Z</time>
      </trkpt>
      <trkpt lat="43.32184" lon="1.90618">
        <ele>221.904322</ele>
        <time>2023-01-04T13:34:41.089Z</time>
      </trkpt>
      <trkpt lat="43.32181" lon="1.90631">
        <ele>222.062996</ele>
        <time>2023-01-04T13:34:43.090Z</time>
      </trkpt>
      <trkpt lat="43.32178" lon="1.90646">
        <ele>222.24812</ele>
        <time>2023-01-04T13:34:45.090Z</time>
      </trkpt>
      <trkpt lat="43.32174" lon="1.9066">
        <ele>222.42128</ele>
        <time>2023-01-04T13:34:47.086Z</time>
      </trkpt>
      <trkpt lat="43.3217" lon="1.90678">
        <ele>222.644051</ele>
        <time>2023-01-04T13:34:50.088Z</time>
      </trkpt>
      <trkpt lat="43.32167" lon="1.90691">
        <ele>222.812187</ele>
        <time>2023-01-04T13:34:52.095Z</time>
      </trkpt>
      <trkpt lat="43.32164" lon="1.90703">
        <ele>222.961483</ele>
        <time>2023-01-04T13:34:54.103Z</time>
      </trkpt>
      <trkpt lat="43.32161" lon="1.90722">
        <ele>223.194231</ele>
        <time>2023-01-04T13:34:57.087Z</time>
      </trkpt>
      <trkpt lat="43.32159" lon="1.90735">
        <ele>223.34984</ele>
        <time>2023-01-04T13:34:59.085Z</time>
      </trkpt>
      <trkpt lat="43.32156" lon="1.90748">
        <ele>223.514408</ele>
        <time>2023-01-04T13:35:01.082Z</time>
      </trkpt>
      <trkpt lat="43.32155" lon="1.90762">
        <ele>223.681961</ele>
        <time>2023-01-04T13:35:03.092Z</time>
      </trkpt>
      <trkpt lat="43.32152" lon="1.90777">
        <ele>223.86678</ele>
        <time>2023-01-04T13:35:05.086Z</time>
      </trkpt>
      <trkpt lat="43.32151" lon="1.90791">
        <ele>224.037829</ele>
        <time>2023-01-04T13:35:07.095Z</time>
      </trkpt>
      <trkpt lat="43.32148" lon="1.90806">
        <ele>224.219591</ele>
        <time>2023-01-04T13:35:09.084Z</time>
      </trkpt>
      <trkpt lat="43.32147" lon="1.90819">
        <ele>224.376739</ele>
        <time>2023-01-04T13:35:11.093Z</time>
      </trkpt>
      <trkpt lat="43.32143" lon="1.90835">
        <ele>224.389769</ele>
        <time>2023-01-04T13:35:14.087Z</time>
      </trkpt>
      <trkpt lat="43.32141" lon="1.90848">
        <ele>224.181357</ele>
        <time>2023-01-04T13:35:16.089Z</time>
      </trkpt>
      <trkpt lat="43.32139" lon="1.90862">
        <ele>223.966425</ele>
        <time>2023-01-04T13:35:18.085Z</time>
      </trkpt>
      <trkpt lat="43.32137" lon="1.90877">
        <ele>223.740747</ele>
        <time>2023-01-04T13:35:20.107Z</time>
      </trkpt>
      <trkpt lat="43.32134" lon="1.9089">
        <ele>223.539978</ele>
        <time>2023-01-04T13:35:22.086Z</time>
      </trkpt>
      <trkpt lat="43.32133" lon="1.90903">
        <ele>223.335412</ele>
        <time>2023-01-04T13:35:24.090Z</time>
      </trkpt>
      <trkpt lat="43.3213" lon="1.9092">
        <ele>223.07961</ele>
        <time>2023-01-04T13:35:27.082Z</time>
      </trkpt>
      <trkpt lat="43.32126" lon="1.90933">
        <ele>222.864353</ele>
        <time>2023-01-04T13:35:30.087Z</time>
      </trkpt>
      <trkpt lat="43.32122" lon="1.90948">
        <ele>222.615176</ele>
        <time>2023-01-04T13:35:33.078Z</time>
      </trkpt>
      <trkpt lat="43.32116" lon="1.90967">
        <ele>222.303422</ele>
        <time>2023-01-04T13:35:36.088Z</time>
      </trkpt>
      <trkpt lat="43.32111" lon="1.9098">
        <ele>222.086999</ele>
        <time>2023-01-04T13:35:39.092Z</time>
      </trkpt>
      <trkpt lat="43.32104" lon="1.90996">
        <ele>221.810678</ele>
        <time>2023-01-04T13:35:42.086Z</time>
      </trkpt>
      <trkpt lat="43.32098" lon="1.91012">
        <ele>221.541792</ele>
        <time>2023-01-04T13:35:45.092Z</time>
      </trkpt>
      <trkpt lat="43.32092" lon="1.91029">
        <ele>221.251713</ele>
        <time>2023-01-04T13:35:48.082Z</time>
      </trkpt>
      <trkpt lat="43.32089" lon="1.91041">
        <ele>221.055372</ele>
        <time>2023-01-04T13:35:50.082Z</time>
      </trkpt>
      <trkpt lat="43.32084" lon="1.91052">
        <ele>220.866889</ele>
        <time>2023-01-04T13:35:52.083Z</time>
      </trkpt>
      <trkpt lat="43.32081" lon="1.91064">
        <ele>220.842215</ele>
        <time>2023-01-04T13:35:55.086Z</time>
      </trkpt>
      <trkpt lat="43.32078" lon="1.91079">
        <ele>221.059767</ele>
        <time>2023-01-04T13:35:58.090Z</time>
      </trkpt>
      <trkpt lat="43.32074" lon="1.91098">
        <ele>221.319759</ele>
        <time>2023-01-04T13:36:00.088Z</time>
      </trkpt>
      <trkpt lat="43.32073" lon="1.91113">
        <ele>221.538548</ele>
        <time>2023-01-04T13:36:02.087Z</time>
      </trkpt>
      <trkpt lat="43.32071" lon="1.91128">
        <ele>221.744078</ele>
        <time>2023-01-04T13:36:04.084Z</time>
      </trkpt>
      <trkpt lat="43.32069" lon="1.91144">
        <ele>221.95824</ele>
        <time>2023-01-04T13:36:06.086Z</time>
      </trkpt>
      <trkpt lat="43.32068" lon="1.9116">
        <ele>222.179697</ele>
        <time>2023-01-04T13:36:08.088Z</time>
      </trkpt>
      <trkpt lat="43.32067" lon="1.91174">
        <ele>222.37389</ele>
        <time>2023-01-04T13:36:10.086Z</time>
      </trkpt>
      <trkpt lat="43.32067" lon="1.91187">
        <ele>222.548811</ele>
        <time>2023-01-04T13:36:12.088Z</time>
      </trkpt>
      <trkpt lat="43.32068" lon="1.91204">
        <ele>222.786283</ele>
        <time>2023-01-04T13:36:15.091Z</time>
      </trkpt>
      <trkpt lat="43.32069" lon="1.91221">
        <ele>223.02071</ele>
        <time>2023-01-04T13:36:18.086Z</time>
      </trkpt>
      <trkpt lat="43.32072" lon="1.91239">
        <ele>223.260697</ele>
        <time>2023-01-04T13:36:21.079Z</time>
      </trkpt>
      <trkpt lat="43.32073" lon="1.91256">
        <ele>223.502975</ele>
        <time>2023-01-04T13:36:24.097Z</time>
      </trkpt>
      <trkpt lat="43.32075" lon="1.91274">
        <ele>223.74821</ele>
        <time>2023-01-04T13:36:27.089Z</time>
      </trkpt>
      <trkpt lat="43.32077" lon="1.91291">
        <ele>223.980823</ele>
        <time>2023-01-04T13:36:30.090Z</time>
      </trkpt>
      <trkpt lat="43.32079" lon="1.91306">
        <ele>224.084978</ele>
        <time>2023-01-04T13:36:33.085Z</time>
      </trkpt>
      <trkpt lat="43.32079" lon="1.9132">
        <ele>223.910876</ele>
        <time>2023-01-04T13:36:36.103Z</time>
      </trkpt>
      <trkpt lat="43.32083" lon="1.91333">
        <ele>223.721377</ele>
        <time>2023-01-04T13:36:39.081Z</time>
      </trkpt>
      <trkpt lat="43.32085" lon="1.91346">
        <ele>223.55735</ele>
        <time>2023-01-04T13:36:42.094Z</time>
      </trkpt>
      <trkpt lat="43.32086" lon="1.91359">
        <ele>223.39326</ele>
        <time>2023-01-04T13:36:45.085Z</time>
      </trkpt>
      <trkpt lat="43.32086" lon="1.91372">
        <ele>223.225909</ele>
        <time>2023-01-04T13:36:48.088Z</time>
      </trkpt>
      <trkpt lat="43.32086" lon="1.91384">
        <ele>223.062392</ele>
        <time>2023-01-04T13:36:51.086Z</time>
      </trkpt>
      <trkpt lat="43.32086" lon="1.91397">
        <ele>222.898903</ele>
        <time>2023-01-04T13:36:54.090Z</time>
      </trkpt>
      <trkpt lat="43.32086" lon="1.91412">
        <ele>222.701924</ele>
        <time>2023-01-04T13:36:57.086Z</time>
      </trkpt>
      <trkpt lat="43.32089" lon="1.91428">
        <ele>222.488325</ele>
        <time>2023-01-04T13:37:00.095Z</time>
      </trkpt>
      <trkpt lat="43.32093" lon="1.91446">
        <ele>222.254975</ele>
        <time>2023-01-04T13:37:03.093Z</time>
      </trkpt>
      <trkpt lat="43.32095" lon="1.91458">
        <ele>222.087846</ele>
        <time>2023-01-04T13:37:05.100Z</time>
      </trkpt>
      <trkpt lat="43.321" lon="1.91476">
        <ele>221.841525</ele>
        <time>2023-01-04T13:37:08.084Z</time>
      </trkpt>
      <trkpt lat="43.32103" lon="1.91488">
        <ele>221.675185</ele>
        <time>2023-01-04T13:37:10.104Z</time>
      </trkpt>
      <trkpt lat="43.32108" lon="1.91505">
        <ele>221.444693</ele>
        <time>2023-01-04T13:37:13.103Z</time>
      </trkpt>
      <trkpt lat="43.32112" lon="1.9152">
        <ele>221.231067</ele>
        <time>2023-01-04T13:37:16.084Z</time>
      </trkpt>
      <trkpt lat="43.32117" lon="1.91535">
        <ele>221.026454</ele>
        <time>2023-01-04T13:37:19.083Z</time>
      </trkpt>
      <trkpt lat="43.32121" lon="1.91547">
        <ele>220.945186</ele>
        <time>2023-01-04T13:37:22.087Z</time>
      </trkpt>
      <trkpt lat="43.32125" lon="1.91562">
        <ele>220.925585</ele>
        <time>2023-01-04T13:37:26.094Z</time>
      </trkpt>
      <trkpt lat="43.32129" lon="1.91574">
        <ele>220.908824</ele>
        <time>2023-01-04T13:37:29.079Z</time>
      </trkpt>
      <trkpt lat="43.32133" lon="1.91587">
        <ele>220.891022</ele>
        <time>2023-01-04T13:37:32.089Z</time>
      </trkpt>
      <trkpt lat="43.32134" lon="1.91602">
        <ele>220.871334</ele>
        <time>2023-01-04T13:37:35.085Z</time>
      </trkpt>
      <trkpt lat="43.32135" lon="1.91619">
        <ele>220.850019</ele>
        <time>2023-01-04T13:37:38.091Z</time>
      </trkpt>
      <trkpt lat="43.32134" lon="1.91635">
        <ele>220.828649</ele>
        <time>2023-01-04T13:37:41.089Z</time>
      </trkpt>
      <trkpt lat="43.3213" lon="1.91652">
        <ele>220.806827</ele>
        <time>2023-01-04T13:37:44.093Z</time>
      </trkpt>
      <trkpt lat="43.32126" lon="1.91669">
        <ele>220.783931</ele>
        <time>2023-01-04T13:37:47.102Z</time>
      </trkpt>
      <trkpt lat="43.32123" lon="1.91681">
        <ele>220.767512</ele>
        <time>2023-01-04T13:37:49.089Z</time>
      </trkpt>
      <trkpt lat="43.32119" lon="1.91693">
        <ele>220.750971</ele>
        <time>2023-01-04T13:37:51.087Z</time>
      </trkpt>
      <trkpt lat="43.32116" lon="1.91705">
        <ele>220.734548</ele>
        <time>2023-01-04T13:37:53.103Z</time>
      </trkpt>
      <trkpt lat="43.32113" lon="1.91718">
        <ele>220.717649</ele>
        <time>2023-01-04T13:37:55.088Z</time>
      </trkpt>
      <trkpt lat="43.3211" lon="1.9173">
        <ele>220.700859</ele>
        <time>2023-01-04T13:37:57.106Z</time>
      </trkpt>
      <trkpt lat="43.32106" lon="1.91742">
        <ele>220.6842</ele>
        <time>2023-01-04T13:37:59.086Z</time>
      </trkpt>
      <trkpt lat="43.32103" lon="1.91755">
        <ele>220.667422</ele>
        <time>2023-01-04T13:38:01.088Z</time>
      </trkpt>
      <trkpt lat="43.321" lon="1.91767">
        <ele>220.650222</ele>
        <time>2023-01-04T13:38:03.086Z</time>
      </trkpt>
      <trkpt lat="43.32097" lon="1.9178">
        <ele>220.643137</ele>
        <time>2023-01-04T13:38:05.088Z</time>
      </trkpt>
      <trkpt lat="43.32094" lon="1.91793">
        <ele>220.650866</ele>
        <time>2023-01-04T13:38:07.103Z</time>
      </trkpt>
      <trkpt lat="43.32091" lon="1.91806">
        <ele>220.658845</ele>
        <time>2023-01-04T13:38:09.087Z</time>
      </trkpt>
      <trkpt lat="43.32088" lon="1.91819">
        <ele>220.667005</ele>
        <time>2023-01-04T13:38:11.086Z</time>
      </trkpt>
      <trkpt lat="43.32084" lon="1.91832">
        <ele>220.674758</ele>
        <time>2023-01-04T13:38:13.093Z</time>
      </trkpt>
      <trkpt lat="43.32082" lon="1.91845">
        <ele>220.682339</ele>
        <time>2023-01-04T13:38:15.091Z</time>
      </trkpt>
      <trkpt lat="43.32079" lon="1.91858">
        <ele>220.690009</ele>
        <time>2023-01-04T13:38:17.104Z</time>
      </trkpt>
      <trkpt lat="43.32076" lon="1.91869">
        <ele>220.697192</ele>
        <time>2023-01-04T13:38:19.087Z</time>
      </trkpt>
      <trkpt lat="43.32075" lon="1.91887">
        <ele>220.707531</ele>
        <time>2023-01-04T13:38:22.086Z</time>
      </trkpt>
      <trkpt lat="43.32073" lon="1.91906">
        <ele>220.718279</ele>
        <time>2023-01-04T13:38:25.102Z</time>
      </trkpt>
      <trkpt lat="43.32071" lon="1.91918">
        <ele>220.725479</ele>
        <time>2023-01-04T13:38:27.092Z</time>
      </trkpt>
      <trkpt lat="43.3207" lon="1.91931">
        <ele>220.733135</ele>
        <time>2023-01-04T13:38:29.084Z</time>
      </trkpt>
      <trkpt lat="43.3207" lon="1.91944">
        <ele>220.740498</ele>
        <time>2023-01-04T13:38:31.080Z</time>
      </trkpt>
      <trkpt lat="43.32069" lon="1.91958">
        <ele>220.74855</ele>
        <time>2023-01-04T13:38:33.088Z</time>
      </trkpt>
      <trkpt lat="43.32069" lon="1.91972">
        <ele>220.756319</ele>
        <time>2023-01-04T13:38:35.098Z</time>
      </trkpt>
      <trkpt lat="43.32069" lon="1.91986">
        <ele>220.76448</ele>
        <time>2023-01-04T13:38:37.075Z</time>
      </trkpt>
      <trkpt lat="43.32068" lon="1.92">
        <ele>220.772478</ele>
        <time>2023-01-04T13:38:39.089Z</time>
      </trkpt>
      <trkpt lat="43.32069" lon="1.92014">
        <ele>220.780706</ele>
        <time>2023-01-04T13:38:41.100Z</time>
      </trkpt>
      <trkpt lat="43.32069" lon="1.92027">
        <ele>220.811074</ele>
        <time>2023-01-04T13:38:43.104Z</time>
      </trkpt>
      <trkpt lat="43.3207" lon="1.9204">
        <ele>220.846634</ele>
        <time>2023-01-04T13:38:45.106Z</time>
      </trkpt>
      <trkpt lat="43.32072" lon="1.92057">
        <ele>220.8938</ele>
        <time>2023-01-04T13:38:48.139Z</time>
      </trkpt>
      <trkpt lat="43.32074" lon="1.92072">
        <ele>220.93811</ele>
        <time>2023-01-04T13:38:51.097Z</time>
      </trkpt>
      <trkpt lat="43.32076" lon="1.92088">
        <ele>220.982079</ele>
        <time>2023-01-04T13:38:54.157Z</time>
      </trkpt>
      <trkpt lat="43.32079" lon="1.92102">
        <ele>221.02538</ele>
        <time>2023-01-04T13:38:57.096Z</time>
      </trkpt>
      <trkpt lat="43.32083" lon="1.92118">
        <ele>221.07209</ele>
        <time>2023-01-04T13:39:00.159Z</time>
      </trkpt>
      <trkpt lat="43.32085" lon="1.92131">
        <ele>221.10726</ele>
        <time>2023-01-04T13:39:02.098Z</time>
      </trkpt>
      <trkpt lat="43.32088" lon="1.92143">
        <ele>221.142759</ele>
        <time>2023-01-04T13:39:04.098Z</time>
      </trkpt>
      <trkpt lat="43.32091" lon="1.92155">
        <ele>221.177575</ele>
        <time>2023-01-04T13:39:06.169Z</time>
      </trkpt>
      <trkpt lat="43.32094" lon="1.92172">
        <ele>221.227092</ele>
        <time>2023-01-04T13:39:09.108Z</time>
      </trkpt>
      <trkpt lat="43.32097" lon="1.92187">
        <ele>221.270935</ele>
        <time>2023-01-04T13:39:12.144Z</time>
      </trkpt>
      <trkpt lat="43.321" lon="1.92202">
        <ele>221.31323</ele>
        <time>2023-01-04T13:39:15.111Z</time>
      </trkpt>
      <trkpt lat="43.32103" lon="1.92218">
        <ele>221.360035</ele>
        <time>2023-01-04T13:39:18.148Z</time>
      </trkpt>
      <trkpt lat="43.32105" lon="1.92236">
        <ele>221.408924</ele>
        <time>2023-01-04T13:39:21.095Z</time>
      </trkpt>
      <trkpt lat="43.32105" lon="1.92254">
        <ele>221.460429</ele>
        <time>2023-01-04T13:39:24.148Z</time>
      </trkpt>
      <trkpt lat="43.32105" lon="1.92267">
        <ele>221.447048</ele>
        <time>2023-01-04T13:39:26.101Z</time>
      </trkpt>
      <trkpt lat="43.32104" lon="1.92279">
        <ele>221.415204</ele>
        <time>2023-01-04T13:39:28.099Z</time>
      </trkpt>
      <trkpt lat="43.32102" lon="1.92291">
        <ele>221.382987</ele>
        <time>2023-01-04T13:39:30.175Z</time>
      </trkpt>
      <trkpt lat="43.32098" lon="1.92302">
        <ele>221.35108</ele>
        <time>2023-01-04T13:39:32.106Z</time>
      </trkpt>
      <trkpt lat="43.32095" lon="1.92314">
        <ele>221.318626</ele>
        <time>2023-01-04T13:39:34.107Z</time>
      </trkpt>
      <trkpt lat="43.32091" lon="1.92326">
        <ele>221.285555</ele>
        <time>2023-01-04T13:39:36.097Z</time>
      </trkpt>
      <trkpt lat="43.32087" lon="1.92338">
        <ele>221.251722</ele>
        <time>2023-01-04T13:39:38.101Z</time>
      </trkpt>
      <trkpt lat="43.32082" lon="1.92357">
        <ele>221.199205</ele>
        <time>2023-01-04T13:39:41.162Z</time>
      </trkpt>
      <trkpt lat="43.32078" lon="1.9237">
        <ele>221.162695</ele>
        <time>2023-01-04T13:39:43.111Z</time>
      </trkpt>
      <trkpt lat="43.32073" lon="1.92388">
        <ele>221.111725</ele>
        <time>2023-01-04T13:39:46.115Z</time>
      </trkpt>
      <trkpt lat="43.32069" lon="1.92401">
        <ele>221.075669</ele>
        <time>2023-01-04T13:39:48.095Z</time>
      </trkpt>
      <trkpt lat="43.32065" lon="1.92415">
        <ele>221.038286</ele>
        <time>2023-01-04T13:39:50.079Z</time>
      </trkpt>
      <trkpt lat="43.32062" lon="1.92428">
        <ele>221.000902</ele>
        <time>2023-01-04T13:39:52.096Z</time>
      </trkpt>
      <trkpt lat="43.32059" lon="1.92443">
        <ele>220.962441</ele>
        <time>2023-01-04T13:39:54.107Z</time>
      </trkpt>
      <trkpt lat="43.32057" lon="1.92457">
        <ele>220.925683</ele>
        <time>2023-01-04T13:39:56.095Z</time>
      </trkpt>
      <trkpt lat="43.32055" lon="1.9247">
        <ele>220.890808</ele>
        <time>2023-01-04T13:39:58.098Z</time>
      </trkpt>
      <trkpt lat="43.32053" lon="1.92488">
        <ele>220.843949</ele>
        <time>2023-01-04T13:40:01.099Z</time>
      </trkpt>
      <trkpt lat="43.32051" lon="1.92506">
        <ele>220.854413</ele>
        <time>2023-01-04T13:40:04.094Z</time>
      </trkpt>
      <trkpt lat="43.32048" lon="1.92523">
        <ele>220.883553</ele>
        <time>2023-01-04T13:40:07.102Z</time>
      </trkpt>
      <trkpt lat="43.32046" lon="1.92537">
        <ele>220.905408</ele>
        <time>2023-01-04T13:40:09.109Z</time>
      </trkpt>
      <trkpt lat="43.32044" lon="1.92549">
        <ele>220.926122</ele>
        <time>2023-01-04T13:40:11.141Z</time>
      </trkpt>
      <trkpt lat="43.32043" lon="1.92562">
        <ele>220.947486</ele>
        <time>2023-01-04T13:40:13.108Z</time>
      </trkpt>
      <trkpt lat="43.32041" lon="1.92575">
        <ele>220.968014</ele>
        <time>2023-01-04T13:40:15.107Z</time>
      </trkpt>
      <trkpt lat="43.32041" lon="1.92592">
        <ele>220.995705</ele>
        <time>2023-01-04T13:40:18.105Z</time>
      </trkpt>
      <trkpt lat="43.32038" lon="1.92607">
        <ele>221.020658</ele>
        <time>2023-01-04T13:40:21.098Z</time>
      </trkpt>
      <trkpt lat="43.32037" lon="1.92621">
        <ele>221.043387</ele>
        <time>2023-01-04T13:40:24.111Z</time>
      </trkpt>
      <trkpt lat="43.32036" lon="1.92638">
        <ele>221.07067</ele>
        <time>2023-01-04T13:40:28.167Z</time>
      </trkpt>
      <trkpt lat="43.32034" lon="1.92653">
        <ele>221.09497</ele>
        <time>2023-01-04T13:40:32.087Z</time>
      </trkpt>
      <trkpt lat="43.32031" lon="1.92665">
        <ele>221.116478</ele>
        <time>2023-01-04T13:40:37.113Z</time>
      </trkpt>
      <trkpt lat="43.32029" lon="1.92678">
        <ele>221.137608</ele>
        <time>2023-01-04T13:40:41.110Z</time>
      </trkpt>
      <trkpt lat="43.32028" lon="1.92693">
        <ele>221.16151</ele>
        <time>2023-01-04T13:40:45.099Z</time>
      </trkpt>
      <trkpt lat="43.32027" lon="1.92708">
        <ele>221.186561</ele>
        <time>2023-01-04T13:40:49.101Z</time>
      </trkpt>
      <trkpt lat="43.32026" lon="1.92723">
        <ele>221.21041</ele>
        <time>2023-01-04T13:40:52.165Z</time>
      </trkpt>
      <trkpt lat="43.32024" lon="1.92739">
        <ele>221.236946</ele>
        <time>2023-01-04T13:40:55.107Z</time>
      </trkpt>
      <trkpt lat="43.32022" lon="1.92753">
        <ele>221.25968</ele>
        <time>2023-01-04T13:40:58.163Z</time>
      </trkpt>
      <trkpt lat="43.32021" lon="1.92771">
        <ele>221.288655</ele>
        <time>2023-01-04T13:41:01.101Z</time>
      </trkpt>
      <trkpt lat="43.32017" lon="1.92789">
        <ele>221.318778</ele>
        <time>2023-01-04T13:41:04.145Z</time>
      </trkpt>
      <trkpt lat="43.32015" lon="1.92806">
        <ele>221.346924</ele>
        <time>2023-01-04T13:41:07.109Z</time>
      </trkpt>
      <trkpt lat="43.32014" lon="1.92821">
        <ele>221.372215</ele>
        <time>2023-01-04T13:41:10.140Z</time>
      </trkpt>
      <trkpt lat="43.32011" lon="1.92839">
        <ele>221.400825</ele>
        <time>2023-01-04T13:41:13.102Z</time>
      </trkpt>
      <trkpt lat="43.3201" lon="1.92855">
        <ele>221.427076</ele>
        <time>2023-01-04T13:41:16.136Z</time>
      </trkpt>
      <trkpt lat="43.32007" lon="1.92867">
        <ele>221.447708</ele>
        <time>2023-01-04T13:41:18.099Z</time>
      </trkpt>
      <trkpt lat="43.32004" lon="1.9288">
        <ele>221.469984</ele>
        <time>2023-01-04T13:41:20.096Z</time>
      </trkpt>
      <trkpt lat="43.32002" lon="1.92898">
        <ele>221.49963</ele>
        <time>2023-01-04T13:41:23.110Z</time>
      </trkpt>
      <trkpt lat="43.32" lon="1.92911">
        <ele>221.520097</ele>
        <time>2023-01-04T13:41:25.107Z</time>
      </trkpt>
      <trkpt lat="43.31998" lon="1.92928">
        <ele>221.548908</ele>
        <time>2023-01-04T13:41:27.091Z</time>
      </trkpt>
      <trkpt lat="43.31994" lon="1.9294">
        <ele>221.569101</ele>
        <time>2023-01-04T13:41:29.109Z</time>
      </trkpt>
      <trkpt lat="43.31992" lon="1.92956">
        <ele>221.595696</ele>
        <time>2023-01-04T13:41:32.169Z</time>
      </trkpt>
      <trkpt lat="43.3199" lon="1.92973">
        <ele>221.622559</ele>
        <time>2023-01-04T13:41:36.107Z</time>
      </trkpt>
      <trkpt lat="43.31987" lon="1.9299">
        <ele>221.60585</ele>
        <time>2023-01-04T13:41:39.110Z</time>
      </trkpt>
      <trkpt lat="43.31983" lon="1.93005">
        <ele>221.572993</ele>
        <time>2023-01-04T13:41:41.098Z</time>
      </trkpt>
      <trkpt lat="43.31979" lon="1.93022">
        <ele>221.537641</ele>
        <time>2023-01-04T13:41:44.136Z</time>
      </trkpt>
      <trkpt lat="43.31975" lon="1.93039">
        <ele>221.501428</ele>
        <time>2023-01-04T13:41:47.080Z</time>
      </trkpt>
      <trkpt lat="43.31972" lon="1.93055">
        <ele>221.467011</ele>
        <time>2023-01-04T13:41:50.164Z</time>
      </trkpt>
      <trkpt lat="43.31968" lon="1.9307">
        <ele>221.434154</ele>
        <time>2023-01-04T13:41:53.111Z</time>
      </trkpt>
      <trkpt lat="43.31965" lon="1.93087">
        <ele>221.398605</ele>
        <time>2023-01-04T13:41:56.087Z</time>
      </trkpt>
      <trkpt lat="43.31962" lon="1.93099">
        <ele>221.372739</ele>
        <time>2023-01-04T13:41:58.098Z</time>
      </trkpt>
      <trkpt lat="43.31958" lon="1.93112">
        <ele>221.34467</ele>
        <time>2023-01-04T13:42:00.100Z</time>
      </trkpt>
      <trkpt lat="43.31955" lon="1.93125">
        <ele>221.315643</ele>
        <time>2023-01-04T13:42:02.101Z</time>
      </trkpt>
      <trkpt lat="43.31952" lon="1.93137">
        <ele>221.289491</ele>
        <time>2023-01-04T13:42:04.109Z</time>
      </trkpt>
      <trkpt lat="43.31949" lon="1.9315">
        <ele>221.263023</ele>
        <time>2023-01-04T13:42:06.102Z</time>
      </trkpt>
      <trkpt lat="43.31944" lon="1.93168">
        <ele>221.223942</ele>
        <time>2023-01-04T13:42:09.083Z</time>
      </trkpt>
      <trkpt lat="43.3194" lon="1.93181">
        <ele>221.196257</ele>
        <time>2023-01-04T13:42:11.098Z</time>
      </trkpt>
      <trkpt lat="43.31937" lon="1.93193">
        <ele>221.169278</ele>
        <time>2023-01-04T13:42:13.108Z</time>
      </trkpt>
      <trkpt lat="43.31931" lon="1.93205">
        <ele>221.141122</ele>
        <time>2023-01-04T13:42:15.108Z</time>
      </trkpt>
      <trkpt lat="43.31926" lon="1.93216">
        <ele>221.149601</ele>
        <time>2023-01-04T13:42:17.085Z</time>
      </trkpt>
      <trkpt lat="43.31919" lon="1.93231">
        <ele>221.203306</ele>
        <time>2023-01-04T13:42:20.107Z</time>
      </trkpt>
      <trkpt lat="43.31912" lon="1.93244">
        <ele>221.255718</ele>
        <time>2023-01-04T13:42:23.101Z</time>
      </trkpt>
      <trkpt lat="43.31906" lon="1.93254">
        <ele>221.29541</ele>
        <time>2023-01-04T13:42:25.101Z</time>
      </trkpt>
      <trkpt lat="43.31898" lon="1.93268">
        <ele>221.347822</ele>
        <time>2023-01-04T13:42:28.106Z</time>
      </trkpt>
      <trkpt lat="43.3189" lon="1.93281">
        <ele>221.402309</ele>
        <time>2023-01-04T13:42:31.089Z</time>
      </trkpt>
      <trkpt lat="43.31882" lon="1.93292">
        <ele>221.44727</ele>
        <time>2023-01-04T13:42:33.100Z</time>
      </trkpt>
      <trkpt lat="43.31875" lon="1.93302">
        <ele>221.491489</ele>
        <time>2023-01-04T13:42:35.110Z</time>
      </trkpt>
      <trkpt lat="43.31868" lon="1.93312">
        <ele>221.534003</ele>
        <time>2023-01-04T13:42:37.106Z</time>
      </trkpt>
      <trkpt lat="43.31861" lon="1.93323">
        <ele>221.578392</ele>
        <time>2023-01-04T13:42:39.106Z</time>
      </trkpt>
      <trkpt lat="43.31852" lon="1.93337">
        <ele>221.636719</ele>
        <time>2023-01-04T13:42:42.143Z</time>
      </trkpt>
      <trkpt lat="43.31846" lon="1.93348">
        <ele>221.681992</ele>
        <time>2023-01-04T13:42:44.098Z</time>
      </trkpt>
      <trkpt lat="43.31836" lon="1.93362">
        <ele>221.741184</ele>
        <time>2023-01-04T13:42:47.086Z</time>
      </trkpt>
      <trkpt lat="43.3183" lon="1.93372">
        <ele>221.78027</ele>
        <time>2023-01-04T13:42:49.108Z</time>
      </trkpt>
      <trkpt lat="43.31821" lon="1.93383">
        <ele>221.83024</ele>
        <time>2023-01-04T13:42:52.102Z</time>
      </trkpt>
      <trkpt lat="43.31813" lon="1.93395">
        <ele>221.880946</ele>
        <time>2023-01-04T13:42:55.082Z</time>
      </trkpt>
      <trkpt lat="43.31804" lon="1.93408">
        <ele>221.856433</ele>
        <time>2023-01-04T13:42:58.111Z</time>
      </trkpt>
      <trkpt lat="43.31796" lon="1.93421">
        <ele>221.816312</ele>
        <time>2023-01-04T13:43:01.111Z</time>
      </trkpt>
      <trkpt lat="43.31789" lon="1.93437">
        <ele>221.774515</ele>
        <time>2023-01-04T13:43:04.097Z</time>
      </trkpt>
      <trkpt lat="43.31786" lon="1.93449">
        <ele>221.744947</ele>
        <time>2023-01-04T13:43:06.155Z</time>
      </trkpt>
      <trkpt lat="43.31784" lon="1.93468">
        <ele>221.70214</ele>
        <time>2023-01-04T13:43:09.084Z</time>
      </trkpt>
      <trkpt lat="43.31785" lon="1.93481">
        <ele>221.671883</ele>
        <time>2023-01-04T13:43:11.098Z</time>
      </trkpt>
      <trkpt lat="43.31788" lon="1.93494">
        <ele>221.642081</ele>
        <time>2023-01-04T13:43:13.090Z</time>
      </trkpt>
      <trkpt lat="43.31792" lon="1.93507">
        <ele>221.61035</ele>
        <time>2023-01-04T13:43:15.092Z</time>
      </trkpt>
      <trkpt lat="43.31795" lon="1.9352">
        <ele>221.578746</ele>
        <time>2023-01-04T13:43:17.090Z</time>
      </trkpt>
      <trkpt lat="43.31799" lon="1.93533">
        <ele>221.54746</ele>
        <time>2023-01-04T13:43:19.096Z</time>
      </trkpt>
      <trkpt lat="43.31803" lon="1.93545">
        <ele>221.518094</ele>
        <time>2023-01-04T13:43:21.101Z</time>
      </trkpt>
      <trkpt lat="43.31805" lon="1.93557">
        <ele>221.489168</ele>
        <time>2023-01-04T13:43:23.147Z</time>
      </trkpt>
      <trkpt lat="43.31808" lon="1.93574">
        <ele>221.449433</ele>
        <time>2023-01-04T13:43:26.098Z</time>
      </trkpt>
      <trkpt lat="43.31807" lon="1.9359">
        <ele>221.411993</ele>
        <time>2023-01-04T13:43:29.112Z</time>
      </trkpt>
      <trkpt lat="43.31803" lon="1.93607">
        <ele>221.371994</ele>
        <time>2023-01-04T13:43:32.104Z</time>
      </trkpt>
      <trkpt lat="43.318" lon="1.93619">
        <ele>221.343801</ele>
        <time>2023-01-04T13:43:34.162Z</time>
      </trkpt>
      <trkpt lat="43.31796" lon="1.93631">
        <ele>221.294777</ele>
        <time>2023-01-04T13:43:36.099Z</time>
      </trkpt>
      <trkpt lat="43.31791" lon="1.93644">
        <ele>221.221633</ele>
        <time>2023-01-04T13:43:38.105Z</time>
      </trkpt>
      <trkpt lat="43.31787" lon="1.93657">
        <ele>221.153489</ele>
        <time>2023-01-04T13:43:40.174Z</time>
      </trkpt>
      <trkpt lat="43.31783" lon="1.93669">
        <ele>221.086541</ele>
        <time>2023-01-04T13:43:42.106Z</time>
      </trkpt>
      <trkpt lat="43.31778" lon="1.93679">
        <ele>221.023064</ele>
        <time>2023-01-04T13:43:44.105Z</time>
      </trkpt>
      <trkpt lat="43.31773" lon="1.93693">
        <ele>220.947603</ele>
        <time>2023-01-04T13:43:46.194Z</time>
      </trkpt>
      <trkpt lat="43.31769" lon="1.93706">
        <ele>220.876415</ele>
        <time>2023-01-04T13:43:48.095Z</time>
      </trkpt>
      <trkpt lat="43.31766" lon="1.9372">
        <ele>220.803356</ele>
        <time>2023-01-04T13:43:50.109Z</time>
      </trkpt>
      <trkpt lat="43.31763" lon="1.93733">
        <ele>220.735454</ele>
        <time>2023-01-04T13:43:52.088Z</time>
      </trkpt>
      <trkpt lat="43.3176" lon="1.93746">
        <ele>220.6681</ele>
        <time>2023-01-04T13:43:54.102Z</time>
      </trkpt>
      <trkpt lat="43.31758" lon="1.93761">
        <ele>220.591377</ele>
        <time>2023-01-04T13:43:57.150Z</time>
      </trkpt>
      <trkpt lat="43.31758" lon="1.93775">
        <ele>220.523092</ele>
        <time>2023-01-04T13:44:00.102Z</time>
      </trkpt>
      <trkpt lat="43.31756" lon="1.9379">
        <ele>220.448822</ele>
        <time>2023-01-04T13:44:03.154Z</time>
      </trkpt>
      <trkpt lat="43.31753" lon="1.93807">
        <ele>220.35989</ele>
        <time>2023-01-04T13:44:06.107Z</time>
      </trkpt>
      <trkpt lat="43.31752" lon="1.93819">
        <ele>220.298247</ele>
        <time>2023-01-04T13:44:08.110Z</time>
      </trkpt>
      <trkpt lat="43.31748" lon="1.93831">
        <ele>220.234583</ele>
        <time>2023-01-04T13:44:10.108Z</time>
      </trkpt>
      <trkpt lat="43.31743" lon="1.93844">
        <ele>220.161506</ele>
        <time>2023-01-04T13:44:13.095Z</time>
      </trkpt>
      <trkpt lat="43.31738" lon="1.93856">
        <ele>220.097689</ele>
        <time>2023-01-04T13:44:16.109Z</time>
      </trkpt>
      <trkpt lat="43.31731" lon="1.9387">
        <ele>220.10972</ele>
        <time>2023-01-04T13:44:19.107Z</time>
      </trkpt>
      <trkpt lat="43.31721" lon="1.93882">
        <ele>220.122774</ele>
        <time>2023-01-04T13:44:22.109Z</time>
      </trkpt>
      <trkpt lat="43.31714" lon="1.9389">
        <ele>220.132223</ele>
        <time>2023-01-04T13:44:24.097Z</time>
      </trkpt>
      <trkpt lat="43.31706" lon="1.93899">
        <ele>220.142285</ele>
        <time>2023-01-04T13:44:26.096Z</time>
      </trkpt>
      <trkpt lat="43.31695" lon="1.9391">
        <ele>220.155377</ele>
        <time>2023-01-04T13:44:29.106Z</time>
      </trkpt>
      <trkpt lat="43.31687" lon="1.93918">
        <ele>220.165112</ele>
        <time>2023-01-04T13:44:31.127Z</time>
      </trkpt>
      <trkpt lat="43.3168" lon="1.93926">
        <ele>220.174992</ele>
        <time>2023-01-04T13:44:33.101Z</time>
      </trkpt>
      <trkpt lat="43.31672" lon="1.93935">
        <ele>220.185345</ele>
        <time>2023-01-04T13:44:35.094Z</time>
      </trkpt>
      <trkpt lat="43.31664" lon="1.93944">
        <ele>220.195622</ele>
        <time>2023-01-04T13:44:37.107Z</time>
      </trkpt>
      <trkpt lat="43.31655" lon="1.93953">
        <ele>220.206027</ele>
        <time>2023-01-04T13:44:39.091Z</time>
      </trkpt>
      <trkpt lat="43.31648" lon="1.93962">
        <ele>220.215966</ele>
        <time>2023-01-04T13:44:41.111Z</time>
      </trkpt>
      <trkpt lat="43.31639" lon="1.93971">
        <ele>220.227099</ele>
        <time>2023-01-04T13:44:43.110Z</time>
      </trkpt>
      <trkpt lat="43.3163" lon="1.93981">
        <ele>220.238128</ele>
        <time>2023-01-04T13:44:45.110Z</time>
      </trkpt>
      <trkpt lat="43.31622" lon="1.9399">
        <ele>220.248454</ele>
        <time>2023-01-04T13:44:47.101Z</time>
      </trkpt>
      <trkpt lat="43.31614" lon="1.93998">
        <ele>220.258516</ele>
        <time>2023-01-04T13:44:49.109Z</time>
      </trkpt>
      <trkpt lat="43.31606" lon="1.94007">
        <ele>220.268342</ele>
        <time>2023-01-04T13:44:51.110Z</time>
      </trkpt>
      <trkpt lat="43.31598" lon="1.94015">
        <ele>220.290987</ele>
        <time>2023-01-04T13:44:53.100Z</time>
      </trkpt>
      <trkpt lat="43.31591" lon="1.94023">
        <ele>220.345227</ele>
        <time>2023-01-04T13:44:55.104Z</time>
      </trkpt>
      <trkpt lat="43.31582" lon="1.9403">
        <ele>220.4021</ele>
        <time>2023-01-04T13:44:57.099Z</time>
      </trkpt>
      <trkpt lat="43.31572" lon="1.94037">
        <ele>220.46501</ele>
        <time>2023-01-04T13:44:59.099Z</time>
      </trkpt>
      <trkpt lat="43.31563" lon="1.94042">
        <ele>220.524413</ele>
        <time>2023-01-04T13:45:01.105Z</time>
      </trkpt>
      <trkpt lat="43.31552" lon="1.94048">
        <ele>220.587448</ele>
        <time>2023-01-04T13:45:03.114Z</time>
      </trkpt>
      <trkpt lat="43.31542" lon="1.94053">
        <ele>220.649807</ele>
        <time>2023-01-04T13:45:05.108Z</time>
      </trkpt>
      <trkpt lat="43.31532" lon="1.9406">
        <ele>220.712663</ele>
        <time>2023-01-04T13:45:07.090Z</time>
      </trkpt>
      <trkpt lat="43.31523" lon="1.94067">
        <ele>220.774862</ele>
        <time>2023-01-04T13:45:09.084Z</time>
      </trkpt>
      <trkpt lat="43.31514" lon="1.94077">
        <ele>220.83595</ele>
        <time>2023-01-04T13:45:11.113Z</time>
      </trkpt>
      <trkpt lat="43.31507" lon="1.94087">
        <ele>220.896845</ele>
        <time>2023-01-04T13:45:13.108Z</time>
      </trkpt>
      <trkpt lat="43.31499" lon="1.94097">
        <ele>220.957603</ele>
        <time>2023-01-04T13:45:15.108Z</time>
      </trkpt>
      <trkpt lat="43.31491" lon="1.94107">
        <ele>221.019872</ele>
        <time>2023-01-04T13:45:17.102Z</time>
      </trkpt>
      <trkpt lat="43.31484" lon="1.94119">
        <ele>221.0825</ele>
        <time>2023-01-04T13:45:19.099Z</time>
      </trkpt>
      <trkpt lat="43.31477" lon="1.94131">
        <ele>221.147281</ele>
        <time>2023-01-04T13:45:21.095Z</time>
      </trkpt>
      <trkpt lat="43.3147" lon="1.94141">
        <ele>221.204788</ele>
        <time>2023-01-04T13:45:23.100Z</time>
      </trkpt>
      <trkpt lat="43.31464" lon="1.94153">
        <ele>221.263774</ele>
        <time>2023-01-04T13:45:25.106Z</time>
      </trkpt>
      <trkpt lat="43.31457" lon="1.94162">
        <ele>221.290629</ele>
        <time>2023-01-04T13:45:27.102Z</time>
      </trkpt>
      <trkpt lat="43.31449" lon="1.94177">
        <ele>221.249866</ele>
        <time>2023-01-04T13:45:30.110Z</time>
      </trkpt>
      <trkpt lat="43.31443" lon="1.94187">
        <ele>221.222074</ele>
        <time>2023-01-04T13:45:32.088Z</time>
      </trkpt>
      <trkpt lat="43.31438" lon="1.94198">
        <ele>221.192689</ele>
        <time>2023-01-04T13:45:34.110Z</time>
      </trkpt>
      <trkpt lat="43.31432" lon="1.94209">
        <ele>221.162939</ele>
        <time>2023-01-04T13:45:36.106Z</time>
      </trkpt>
      <trkpt lat="43.31426" lon="1.9422">
        <ele>221.1332</ele>
        <time>2023-01-04T13:45:38.107Z</time>
      </trkpt>
      <trkpt lat="43.3142" lon="1.94231">
        <ele>221.100964</ele>
        <time>2023-01-04T13:45:40.100Z</time>
      </trkpt>
      <trkpt lat="43.31412" lon="1.94243">
        <ele>221.06821</ele>
        <time>2023-01-04T13:45:42.097Z</time>
      </trkpt>
      <trkpt lat="43.31405" lon="1.94254">
        <ele>221.035129</ele>
        <time>2023-01-04T13:45:44.100Z</time>
      </trkpt>
      <trkpt lat="43.31399" lon="1.94264">
        <ele>221.006259</ele>
        <time>2023-01-04T13:45:46.177Z</time>
      </trkpt>
      <trkpt lat="43.31393" lon="1.94275">
        <ele>220.976519</ele>
        <time>2023-01-04T13:45:48.110Z</time>
      </trkpt>
      <trkpt lat="43.31387" lon="1.94285">
        <ele>220.948452</ele>
        <time>2023-01-04T13:45:50.104Z</time>
      </trkpt>
      <trkpt lat="43.31381" lon="1.94294">
        <ele>220.92055</ele>
        <time>2023-01-04T13:45:52.140Z</time>
      </trkpt>
      <trkpt lat="43.31374" lon="1.94308">
        <ele>220.884426</ele>
        <time>2023-01-04T13:45:55.112Z</time>
      </trkpt>
      <trkpt lat="43.31369" lon="1.94323">
        <ele>220.849029</ele>
        <time>2023-01-04T13:45:58.142Z</time>
      </trkpt>
      <trkpt lat="43.31364" lon="1.94337">
        <ele>220.812949</ele>
        <time>2023-01-04T13:46:01.110Z</time>
      </trkpt>
      <trkpt lat="43.31358" lon="1.94354">
        <ele>220.773786</ele>
        <time>2023-01-04T13:46:04.142Z</time>
      </trkpt>
      <trkpt lat="43.31355" lon="1.94371">
        <ele>220.751564</ele>
        <time>2023-01-04T13:46:07.109Z</time>
      </trkpt>
      <trkpt lat="43.31352" lon="1.94388">
        <ele>220.739428</ele>
        <time>2023-01-04T13:46:10.150Z</time>
      </trkpt>
      <trkpt lat="43.3135" lon="1.94401">
        <ele>220.730624</ele>
        <time>2023-01-04T13:46:12.122Z</time>
      </trkpt>
      <trkpt lat="43.31347" lon="1.94419">
        <ele>220.718358</ele>
        <time>2023-01-04T13:46:15.110Z</time>
      </trkpt>
      <trkpt lat="43.31342" lon="1.94435">
        <ele>220.70684</ele>
        <time>2023-01-04T13:46:18.099Z</time>
      </trkpt>
      <trkpt lat="43.31336" lon="1.94449">
        <ele>220.696074</ele>
        <time>2023-01-04T13:46:21.155Z</time>
      </trkpt>
      <trkpt lat="43.31327" lon="1.9446">
        <ele>220.685158</ele>
        <time>2023-01-04T13:46:24.079Z</time>
      </trkpt>
      <trkpt lat="43.31318" lon="1.94471">
        <ele>220.673857</ele>
        <time>2023-01-04T13:46:27.152Z</time>
      </trkpt>
      <trkpt lat="43.31308" lon="1.94483">
        <ele>220.661762</ele>
        <time>2023-01-04T13:46:30.103Z</time>
      </trkpt>
      <trkpt lat="43.31299" lon="1.94496">
        <ele>220.649597</ele>
        <time>2023-01-04T13:46:33.120Z</time>
      </trkpt>
      <trkpt lat="43.31291" lon="1.9451">
        <ele>220.637601</ele>
        <time>2023-01-04T13:46:36.109Z</time>
      </trkpt>
      <trkpt lat="43.31286" lon="1.94527">
        <ele>220.625912</ele>
        <time>2023-01-04T13:46:39.113Z</time>
      </trkpt>
      <trkpt lat="43.31281" lon="1.94543">
        <ele>220.614424</ele>
        <time>2023-01-04T13:46:42.111Z</time>
      </trkpt>
      <trkpt lat="43.31278" lon="1.94558">
        <ele>220.603883</ele>
        <time>2023-01-04T13:46:45.111Z</time>
      </trkpt>
      <trkpt lat="43.31276" lon="1.94573">
        <ele>220.587469</ele>
        <time>2023-01-04T13:46:48.111Z</time>
      </trkpt>
      <trkpt lat="43.31273" lon="1.94586">
        <ele>220.382349</ele>
        <time>2023-01-04T13:46:51.108Z</time>
      </trkpt>
      <trkpt lat="43.31271" lon="1.94599">
        <ele>220.18609</ele>
        <time>2023-01-04T13:46:54.087Z</time>
      </trkpt>
      <trkpt lat="43.31269" lon="1.94613">
        <ele>219.972298</ele>
        <time>2023-01-04T13:46:57.109Z</time>
      </trkpt>
      <trkpt lat="43.31269" lon="1.94626">
        <ele>219.779989</ele>
        <time>2023-01-04T13:47:00.097Z</time>
      </trkpt>
      <trkpt lat="43.3127" lon="1.9464">
        <ele>219.559477</ele>
        <time>2023-01-04T13:47:04.085Z</time>
      </trkpt>
      <trkpt lat="43.31271" lon="1.94652">
        <ele>219.388463</ele>
        <time>2023-01-04T13:48:42.408Z</time>
      </trkpt>
      <trkpt lat="43.31262" lon="1.94651">
        <ele>219.19417</ele>
        <time>2023-01-04T13:50:20.087Z</time>
      </trkpt>
      <trkpt lat="43.31254" lon="1.94639">
        <ele>218.955474</ele>
        <time>2023-01-04T13:50:33.094Z</time>
      </trkpt>
      <trkpt lat="43.31248" lon="1.9463">
        <ele>218.757055</ele>
        <time>2023-01-04T13:50:36.113Z</time>
      </trkpt>
      <trkpt lat="43.3124" lon="1.94619">
        <ele>218.532766</ele>
        <time>2023-01-04T13:50:39.110Z</time>
      </trkpt>
      <trkpt lat="43.31233" lon="1.94606">
        <ele>218.292156</ele>
        <time>2023-01-04T13:50:42.093Z</time>
      </trkpt>
      <trkpt lat="43.31225" lon="1.94594">
        <ele>218.036812</ele>
        <time>2023-01-04T13:50:45.099Z</time>
      </trkpt>
      <trkpt lat="43.31216" lon="1.9458">
        <ele>217.773361</ele>
        <time>2023-01-04T13:50:48.104Z</time>
      </trkpt>
      <trkpt lat="43.31207" lon="1.94567">
        <ele>217.497687</ele>
        <time>2023-01-04T13:50:51.082Z</time>
      </trkpt>
      <trkpt lat="43.31197" lon="1.94555">
        <ele>217.222082</ele>
        <time>2023-01-04T13:50:54.109Z</time>
      </trkpt>
      <trkpt lat="43.31186" lon="1.94545">
        <ele>216.950661</ele>
        <time>2023-01-04T13:50:57.106Z</time>
      </trkpt>
      <trkpt lat="43.31177" lon="1.9454">
        <ele>216.666522</ele>
        <time>2023-01-04T13:50:59.087Z</time>
      </trkpt>
      <trkpt lat="43.31168" lon="1.94535">
        <ele>216.309257</ele>
        <time>2023-01-04T13:51:01.089Z</time>
      </trkpt>
      <trkpt lat="43.31157" lon="1.94531">
        <ele>215.931987</ele>
        <time>2023-01-04T13:51:03.110Z</time>
      </trkpt>
      <trkpt lat="43.31146" lon="1.94526">
        <ele>215.535554</ele>
        <time>2023-01-04T13:51:05.088Z</time>
      </trkpt>
      <trkpt lat="43.31134" lon="1.94521">
        <ele>215.102223</ele>
        <time>2023-01-04T13:51:07.103Z</time>
      </trkpt>
      <trkpt lat="43.31122" lon="1.94515">
        <ele>214.65927</ele>
        <time>2023-01-04T13:51:09.085Z</time>
      </trkpt>
      <trkpt lat="43.3111" lon="1.9451">
        <ele>214.222159</ele>
        <time>2023-01-04T13:51:11.097Z</time>
      </trkpt>
      <trkpt lat="43.311" lon="1.94506">
        <ele>213.859144</ele>
        <time>2023-01-04T13:51:13.106Z</time>
      </trkpt>
      <trkpt lat="43.31089" lon="1.94499">
        <ele>213.461713</ele>
        <time>2023-01-04T13:51:15.101Z</time>
      </trkpt>
      <trkpt lat="43.3108" lon="1.9449">
        <ele>213.070663</ele>
        <time>2023-01-04T13:51:17.093Z</time>
      </trkpt>
      <trkpt lat="43.3107" lon="1.9448">
        <ele>212.63344</ele>
        <time>2023-01-04T13:51:19.090Z</time>
      </trkpt>
      <trkpt lat="43.3106" lon="1.94467">
        <ele>212.168587</ele>
        <time>2023-01-04T13:51:21.087Z</time>
      </trkpt>
      <trkpt lat="43.31051" lon="1.94454">
        <ele>211.710814</ele>
        <time>2023-01-04T13:51:23.083Z</time>
      </trkpt>
      <trkpt lat="43.31044" lon="1.94439">
        <ele>211.27379</ele>
        <time>2023-01-04T13:51:25.099Z</time>
      </trkpt>
      <trkpt lat="43.31039" lon="1.94426">
        <ele>210.880452</ele>
        <time>2023-01-04T13:51:27.099Z</time>
      </trkpt>
      <trkpt lat="43.31034" lon="1.94414">
        <ele>210.637414</ele>
        <time>2023-01-04T13:51:29.086Z</time>
      </trkpt>
      <trkpt lat="43.31029" lon="1.94402">
        <ele>210.546873</ele>
        <time>2023-01-04T13:51:31.110Z</time>
      </trkpt>
      <trkpt lat="43.31022" lon="1.94388">
        <ele>210.429502</ele>
        <time>2023-01-04T13:51:34.099Z</time>
      </trkpt>
      <trkpt lat="43.31017" lon="1.94375">
        <ele>210.334704</ele>
        <time>2023-01-04T13:51:37.078Z</time>
      </trkpt>
      <trkpt lat="43.31013" lon="1.94361">
        <ele>210.225793</ele>
        <time>2023-01-04T13:51:40.112Z</time>
      </trkpt>
      <trkpt lat="43.31009" lon="1.94346">
        <ele>210.12375</ele>
        <time>2023-01-04T13:51:43.100Z</time>
      </trkpt>
      <trkpt lat="43.31005" lon="1.94334">
        <ele>210.03302</ele>
        <time>2023-01-04T13:51:46.083Z</time>
      </trkpt>
      <trkpt lat="43.30996" lon="1.94333">
        <ele>209.94824</ele>
        <time>2023-01-04T13:51:49.090Z</time>
      </trkpt>
      <trkpt lat="43.30991" lon="1.94347">
        <ele>209.841847</ele>
        <time>2023-01-04T13:51:52.092Z</time>
      </trkpt>
      <trkpt lat="43.30986" lon="1.94363">
        <ele>209.72322</ele>
        <time>2023-01-04T13:51:55.099Z</time>
      </trkpt>
      <trkpt lat="43.30981" lon="1.94374">
        <ele>209.632705</ele>
        <time>2023-01-04T13:51:57.097Z</time>
      </trkpt>
      <trkpt lat="43.30976" lon="1.94385">
        <ele>209.546516</ele>
        <time>2023-01-04T13:51:59.108Z</time>
      </trkpt>
      <trkpt lat="43.30973" lon="1.94397">
        <ele>209.456863</ele>
        <time>2023-01-04T13:52:01.086Z</time>
      </trkpt>
      <trkpt lat="43.30968" lon="1.94409">
        <ele>209.369765</ele>
        <time>2023-01-04T13:52:03.103Z</time>
      </trkpt>
      <trkpt lat="43.30962" lon="1.94421">
        <ele>209.268799</ele>
        <time>2023-01-04T13:52:06.094Z</time>
      </trkpt>
      <trkpt lat="43.30959" lon="1.94437">
        <ele>209.155411</ele>
        <time>2023-01-04T13:52:09.088Z</time>
      </trkpt>
      <trkpt lat="43.30956" lon="1.9445">
        <ele>209.067064</ele>
        <time>2023-01-04T13:52:11.091Z</time>
      </trkpt>
      <trkpt lat="43.30953" lon="1.94463">
        <ele>208.969999</ele>
        <time>2023-01-04T13:52:13.100Z</time>
      </trkpt>
      <trkpt lat="43.3095" lon="1.94476">
        <ele>208.859073</ele>
        <time>2023-01-04T13:52:15.113Z</time>
      </trkpt>
      <trkpt lat="43.30947" lon="1.94489">
        <ele>208.748845</ele>
        <time>2023-01-04T13:52:17.114Z</time>
      </trkpt>
      <trkpt lat="43.30943" lon="1.94503">
        <ele>208.636411</ele>
        <time>2023-01-04T13:52:19.104Z</time>
      </trkpt>
      <trkpt lat="43.30939" lon="1.94516">
        <ele>208.528813</ele>
        <time>2023-01-04T13:52:21.101Z</time>
      </trkpt>
      <trkpt lat="43.30936" lon="1.94529">
        <ele>208.418573</ele>
        <time>2023-01-04T13:52:23.091Z</time>
      </trkpt>
      <trkpt lat="43.30932" lon="1.94541">
        <ele>208.308233</ele>
        <time>2023-01-04T13:52:25.120Z</time>
      </trkpt>
      <trkpt lat="43.30928" lon="1.94554">
        <ele>208.203502</ele>
        <time>2023-01-04T13:52:27.107Z</time>
      </trkpt>
      <trkpt lat="43.30924" lon="1.94567">
        <ele>208.093262</ele>
        <time>2023-01-04T13:52:29.093Z</time>
      </trkpt>
      <trkpt lat="43.3092" lon="1.9458">
        <ele>207.980828</ele>
        <time>2023-01-04T13:52:31.117Z</time>
      </trkpt>
      <trkpt lat="43.30916" lon="1.94593">
        <ele>207.865146</ele>
        <time>2023-01-04T13:52:33.109Z</time>
      </trkpt>
      <trkpt lat="43.30912" lon="1.94608">
        <ele>207.745665</ele>
        <time>2023-01-04T13:52:35.112Z</time>
      </trkpt>
      <trkpt lat="43.30908" lon="1.94621">
        <ele>207.630295</ele>
        <time>2023-01-04T13:52:37.105Z</time>
      </trkpt>
      <trkpt lat="43.30904" lon="1.94635">
        <ele>207.510082</ele>
        <time>2023-01-04T13:52:39.104Z</time>
      </trkpt>
      <trkpt lat="43.309" lon="1.9465">
        <ele>207.385413</ele>
        <time>2023-01-04T13:52:41.103Z</time>
      </trkpt>
      <trkpt lat="43.30895" lon="1.94664">
        <ele>207.26873</ele>
        <time>2023-01-04T13:52:43.111Z</time>
      </trkpt>
      <trkpt lat="43.30892" lon="1.94677">
        <ele>207.157759</ele>
        <time>2023-01-04T13:52:45.108Z</time>
      </trkpt>
      <trkpt lat="43.30888" lon="1.9469">
        <ele>207.0645</ele>
        <time>2023-01-04T13:52:47.101Z</time>
      </trkpt>
      <trkpt lat="43.30884" lon="1.94705">
        <ele>207.223631</ele>
        <time>2023-01-04T13:52:49.109Z</time>
      </trkpt>
      <trkpt lat="43.3088" lon="1.94718">
        <ele>207.379203</ele>
        <time>2023-01-04T13:52:51.099Z</time>
      </trkpt>
      <trkpt lat="43.30876" lon="1.94732">
        <ele>207.534555</ele>
        <time>2023-01-04T13:52:53.109Z</time>
      </trkpt>
      <trkpt lat="43.30872" lon="1.94745">
        <ele>207.686441</ele>
        <time>2023-01-04T13:52:55.111Z</time>
      </trkpt>
      <trkpt lat="43.30868" lon="1.94757">
        <ele>207.817245</ele>
        <time>2023-01-04T13:52:57.103Z</time>
      </trkpt>
      <trkpt lat="43.30863" lon="1.94773">
        <ele>208.004957</ele>
        <time>2023-01-04T13:53:00.095Z</time>
      </trkpt>
      <trkpt lat="43.30856" lon="1.94787">
        <ele>208.183291</ele>
        <time>2023-01-04T13:53:03.094Z</time>
      </trkpt>
      <trkpt lat="43.30846" lon="1.94795">
        <ele>208.35012</ele>
        <time>2023-01-04T13:53:06.087Z</time>
      </trkpt>
      <trkpt lat="43.30835" lon="1.94797">
        <ele>208.518602</ele>
        <time>2023-01-04T13:53:09.091Z</time>
      </trkpt>
      <trkpt lat="43.30827" lon="1.94803">
        <ele>208.650257</ele>
        <time>2023-01-04T13:53:12.090Z</time>
      </trkpt>
      <trkpt lat="43.30821" lon="1.94814">
        <ele>208.795505</ele>
        <time>2023-01-04T13:53:16.093Z</time>
      </trkpt>
      <trkpt lat="43.30824" lon="1.94829">
        <ele>208.954224</ele>
        <time>2023-01-04T13:53:21.089Z</time>
      </trkpt>
      <trkpt lat="43.30826" lon="1.94845">
        <ele>209.12991</ele>
        <time>2023-01-04T13:53:25.091Z</time>
      </trkpt>
      <trkpt lat="43.30828" lon="1.9486">
        <ele>209.28181</ele>
        <time>2023-01-04T13:53:28.111Z</time>
      </trkpt>
      <trkpt lat="43.30826" lon="1.94875">
        <ele>209.449194</ele>
        <time>2023-01-04T13:53:31.092Z</time>
      </trkpt>
      <trkpt lat="43.30821" lon="1.9489">
        <ele>209.622083</ele>
        <time>2023-01-04T13:53:34.091Z</time>
      </trkpt>
      <trkpt lat="43.30815" lon="1.94906">
        <ele>209.698197</ele>
        <time>2023-01-04T13:53:37.098Z</time>
      </trkpt>
      <trkpt lat="43.3081" lon="1.94922">
        <ele>209.756907</ele>
        <time>2023-01-04T13:53:40.103Z</time>
      </trkpt>
      <trkpt lat="43.30804" lon="1.94939">
        <ele>209.815323</ele>
        <time>2023-01-04T13:53:43.099Z</time>
      </trkpt>
      <trkpt lat="43.30799" lon="1.94954">
        <ele>209.870452</ele>
        <time>2023-01-04T13:53:46.101Z</time>
      </trkpt>
      <trkpt lat="43.30794" lon="1.94969">
        <ele>209.924034</ele>
        <time>2023-01-04T13:53:49.098Z</time>
      </trkpt>
      <trkpt lat="43.30789" lon="1.94983">
        <ele>209.973906</ele>
        <time>2023-01-04T13:53:52.098Z</time>
      </trkpt>
      <trkpt lat="43.30783" lon="1.94995">
        <ele>210.019252</ele>
        <time>2023-01-04T13:53:55.081Z</time>
      </trkpt>
      <trkpt lat="43.30778" lon="1.95007">
        <ele>210.066261</ele>
        <time>2023-01-04T13:53:58.085Z</time>
      </trkpt>
      <trkpt lat="43.30771" lon="1.9502">
        <ele>210.119465</ele>
        <time>2023-01-04T13:54:01.110Z</time>
      </trkpt>
      <trkpt lat="43.30762" lon="1.95033">
        <ele>210.173897</ele>
        <time>2023-01-04T13:54:04.092Z</time>
      </trkpt>
      <trkpt lat="43.30754" lon="1.95045">
        <ele>210.229579</ele>
        <time>2023-01-04T13:54:07.111Z</time>
      </trkpt>
      <trkpt lat="43.30745" lon="1.95057">
        <ele>210.28402</ele>
        <time>2023-01-04T13:54:10.087Z</time>
      </trkpt>
      <trkpt lat="43.30737" lon="1.95069">
        <ele>210.335145</ele>
        <time>2023-01-04T13:54:13.104Z</time>
      </trkpt>
      <trkpt lat="43.3073" lon="1.95082">
        <ele>210.38838</ele>
        <time>2023-01-04T13:54:16.112Z</time>
      </trkpt>
      <trkpt lat="43.30723" lon="1.95093">
        <ele>210.437161</ele>
        <time>2023-01-04T13:54:19.102Z</time>
      </trkpt>
      <trkpt lat="43.30716" lon="1.95105">
        <ele>210.334869</ele>
        <time>2023-01-04T13:54:22.109Z</time>
      </trkpt>
      <trkpt lat="43.30711" lon="1.95115">
        <ele>210.202919</ele>
        <time>2023-01-04T13:54:24.088Z</time>
      </trkpt>
      <trkpt lat="43.30706" lon="1.95127">
        <ele>210.065516</ele>
        <time>2023-01-04T13:54:26.109Z</time>
      </trkpt>
      <trkpt lat="43.30702" lon="1.95139">
        <ele>209.925155</ele>
        <time>2023-01-04T13:54:28.104Z</time>
      </trkpt>
      <trkpt lat="43.30697" lon="1.95151">
        <ele>209.779092</ele>
        <time>2023-01-04T13:54:30.109Z</time>
      </trkpt>
      <trkpt lat="43.30691" lon="1.95164">
        <ele>209.623639</ele>
        <time>2023-01-04T13:54:32.103Z</time>
      </trkpt>
      <trkpt lat="43.30686" lon="1.95177">
        <ele>209.467268</ele>
        <time>2023-01-04T13:54:34.105Z</time>
      </trkpt>
      <trkpt lat="43.30681" lon="1.9519">
        <ele>209.308381</ele>
        <time>2023-01-04T13:54:36.102Z</time>
      </trkpt>
      <trkpt lat="43.30678" lon="1.95203">
        <ele>209.166985</ele>
        <time>2023-01-04T13:54:38.090Z</time>
      </trkpt>
      <trkpt lat="43.30673" lon="1.95216">
        <ele>209.013775</ele>
        <time>2023-01-04T13:54:40.087Z</time>
      </trkpt>
      <trkpt lat="43.30668" lon="1.95229">
        <ele>208.86559</ele>
        <time>2023-01-04T13:54:42.085Z</time>
      </trkpt>
      <trkpt lat="43.30664" lon="1.95242">
        <ele>208.71393</ele>
        <time>2023-01-04T13:54:44.099Z</time>
      </trkpt>
      <trkpt lat="43.3066" lon="1.95256">
        <ele>208.559772</ele>
        <time>2023-01-04T13:54:46.112Z</time>
      </trkpt>
      <trkpt lat="43.30655" lon="1.95268">
        <ele>208.414096</ele>
        <time>2023-01-04T13:54:48.104Z</time>
      </trkpt>
      <trkpt lat="43.30651" lon="1.95281">
        <ele>208.263028</ele>
        <time>2023-01-04T13:54:50.109Z</time>
      </trkpt>
      <trkpt lat="43.30646" lon="1.95294">
        <ele>208.117042</ele>
        <time>2023-01-04T13:54:52.114Z</time>
      </trkpt>
      <trkpt lat="43.30642" lon="1.95307">
        <ele>207.969607</ele>
        <time>2023-01-04T13:54:54.106Z</time>
      </trkpt>
      <trkpt lat="43.30637" lon="1.95321">
        <ele>207.851417</ele>
        <time>2023-01-04T13:54:57.101Z</time>
      </trkpt>
      <trkpt lat="43.30631" lon="1.95331">
        <ele>207.812928</ele>
        <time>2023-01-04T13:55:00.103Z</time>
      </trkpt>
      <trkpt lat="43.30628" lon="1.95346">
        <ele>207.766345</ele>
        <time>2023-01-04T13:55:04.101Z</time>
      </trkpt>
      <trkpt lat="43.30624" lon="1.9536">
        <ele>207.721176</ele>
        <time>2023-01-04T13:55:07.097Z</time>
      </trkpt>
      <trkpt lat="43.30619" lon="1.95371">
        <ele>207.684711</ele>
        <time>2023-01-04T13:55:09.089Z</time>
      </trkpt>
      <trkpt lat="43.30615" lon="1.95382">
        <ele>207.645969</ele>
        <time>2023-01-04T13:55:11.102Z</time>
      </trkpt>
      <trkpt lat="43.30611" lon="1.95395">
        <ele>207.604235</ele>
        <time>2023-01-04T13:55:13.101Z</time>
      </trkpt>
      <trkpt lat="43.30607" lon="1.95407">
        <ele>207.563881</ele>
        <time>2023-01-04T13:55:15.087Z</time>
      </trkpt>
      <trkpt lat="43.30602" lon="1.9542">
        <ele>207.521436</ele>
        <time>2023-01-04T13:55:17.084Z</time>
      </trkpt>
      <trkpt lat="43.30598" lon="1.95433">
        <ele>207.479606</ele>
        <time>2023-01-04T13:55:19.099Z</time>
      </trkpt>
      <trkpt lat="43.30593" lon="1.95447">
        <ele>207.432171</ele>
        <time>2023-01-04T13:55:21.114Z</time>
      </trkpt>
      <trkpt lat="43.30589" lon="1.95461">
        <ele>207.388336</ele>
        <time>2023-01-04T13:55:23.104Z</time>
      </trkpt>
      <trkpt lat="43.30585" lon="1.95474">
        <ele>207.346841</ele>
        <time>2023-01-04T13:55:25.107Z</time>
      </trkpt>
      <trkpt lat="43.3058" lon="1.95487">
        <ele>207.303322</ele>
        <time>2023-01-04T13:55:27.079Z</time>
      </trkpt>
      <trkpt lat="43.30576" lon="1.955">
        <ele>207.260782</ele>
        <time>2023-01-04T13:55:29.105Z</time>
      </trkpt>
      <trkpt lat="43.30571" lon="1.95512">
        <ele>207.219824</ele>
        <time>2023-01-04T13:55:31.106Z</time>
      </trkpt>
      <trkpt lat="43.30567" lon="1.95524">
        <ele>207.181462</ele>
        <time>2023-01-04T13:55:33.099Z</time>
      </trkpt>
      <trkpt lat="43.30562" lon="1.95539">
        <ele>207.134276</ele>
        <time>2023-01-04T13:55:36.106Z</time>
      </trkpt>
      <trkpt lat="43.30557" lon="1.95552">
        <ele>207.118787</ele>
        <time>2023-01-04T13:55:39.101Z</time>
      </trkpt>
      <trkpt lat="43.30554" lon="1.95567">
        <ele>207.102509</ele>
        <time>2023-01-04T13:55:42.097Z</time>
      </trkpt>
      <trkpt lat="43.30551" lon="1.95582">
        <ele>207.085981</ele>
        <time>2023-01-04T13:55:45.104Z</time>
      </trkpt>
      <trkpt lat="43.30546" lon="1.95598">
        <ele>207.0672</ele>
        <time>2023-01-04T13:55:48.100Z</time>
      </trkpt>
      <trkpt lat="43.30542" lon="1.95609">
        <ele>207.054037</ele>
        <time>2023-01-04T13:55:50.110Z</time>
      </trkpt>
      <trkpt lat="43.30538" lon="1.95622">
        <ele>207.040177</ele>
        <time>2023-01-04T13:55:52.097Z</time>
      </trkpt>
      <trkpt lat="43.30534" lon="1.95632">
        <ele>207.026962</ele>
        <time>2023-01-04T13:55:54.111Z</time>
      </trkpt>
      <trkpt lat="43.30528" lon="1.95648">
        <ele>207.008192</ele>
        <time>2023-01-04T13:55:57.089Z</time>
      </trkpt>
      <trkpt lat="43.30521" lon="1.9566">
        <ele>206.992136</ele>
        <time>2023-01-04T13:56:00.110Z</time>
      </trkpt>
      <trkpt lat="43.30514" lon="1.95669">
        <ele>206.977904</ele>
        <time>2023-01-04T13:56:04.109Z</time>
      </trkpt>
      <trkpt lat="43.30504" lon="1.95674">
        <ele>206.962497</ele>
        <time>2023-01-04T13:56:38.117Z</time>
      </trkpt>
      <trkpt lat="43.30493" lon="1.95671">
        <ele>206.94656</ele>
        <time>2023-01-04T13:56:42.082Z</time>
      </trkpt>
      <trkpt lat="43.30482" lon="1.95667">
        <ele>206.930242</ele>
        <time>2023-01-04T13:56:45.084Z</time>
      </trkpt>
      <trkpt lat="43.3047" lon="1.95663">
        <ele>206.912395</ele>
        <time>2023-01-04T13:56:48.082Z</time>
      </trkpt>
      <trkpt lat="43.30458" lon="1.95658">
        <ele>206.893412</ele>
        <time>2023-01-04T13:56:51.087Z</time>
      </trkpt>
      <trkpt lat="43.30449" lon="1.95655">
        <ele>206.880343</ele>
        <time>2023-01-04T13:56:53.088Z</time>
      </trkpt>
      <trkpt lat="43.30436" lon="1.95651">
        <ele>206.912768</ele>
        <time>2023-01-04T13:56:56.093Z</time>
      </trkpt>
      <trkpt lat="43.30427" lon="1.95648">
        <ele>206.953977</ele>
        <time>2023-01-04T13:56:58.089Z</time>
      </trkpt>
      <trkpt lat="43.30418" lon="1.95644">
        <ele>206.996421</ele>
        <time>2023-01-04T13:57:00.101Z</time>
      </trkpt>
      <trkpt lat="43.30404" lon="1.9564">
        <ele>207.05569</ele>
        <time>2023-01-04T13:57:03.100Z</time>
      </trkpt>
      <trkpt lat="43.30395" lon="1.95636">
        <ele>207.096402</ele>
        <time>2023-01-04T13:57:05.094Z</time>
      </trkpt>
      <trkpt lat="43.30383" lon="1.95632">
        <ele>207.150449</ele>
        <time>2023-01-04T13:57:08.092Z</time>
      </trkpt>
      <trkpt lat="43.30372" lon="1.95628">
        <ele>207.202149</ele>
        <time>2023-01-04T13:57:11.115Z</time>
      </trkpt>
      <trkpt lat="43.30361" lon="1.95624">
        <ele>207.250897</ele>
        <time>2023-01-04T13:57:14.096Z</time>
      </trkpt>
      <trkpt lat="43.30352" lon="1.95621">
        <ele>207.291156</ele>
        <time>2023-01-04T13:57:17.113Z</time>
      </trkpt>
      <trkpt lat="43.30344" lon="1.95617">
        <ele>207.330576</ele>
        <time>2023-01-04T13:57:26.092Z</time>
      </trkpt>
      <trkpt lat="43.30332" lon="1.95614">
        <ele>207.38283</ele>
        <time>2023-01-04T13:57:30.085Z</time>
      </trkpt>
      <trkpt lat="43.3032" lon="1.9561">
        <ele>207.434378</ele>
        <time>2023-01-04T13:57:33.095Z</time>
      </trkpt>
      <trkpt lat="43.30307" lon="1.95605">
        <ele>207.493631</ele>
        <time>2023-01-04T13:57:36.093Z</time>
      </trkpt>
      <trkpt lat="43.30298" lon="1.95602">
        <ele>207.53626</ele>
        <time>2023-01-04T13:57:38.118Z</time>
      </trkpt>
      <trkpt lat="43.30288" lon="1.95598">
        <ele>207.578201</ele>
        <time>2023-01-04T13:57:40.091Z</time>
      </trkpt>
      <trkpt lat="43.30279" lon="1.95594">
        <ele>207.622525</ele>
        <time>2023-01-04T13:57:42.094Z</time>
      </trkpt>
      <trkpt lat="43.30268" lon="1.9559">
        <ele>207.636245</ele>
        <time>2023-01-04T13:57:44.088Z</time>
      </trkpt>
      <trkpt lat="43.30258" lon="1.95586">
        <ele>207.550909</ele>
        <time>2023-01-04T13:57:46.088Z</time>
      </trkpt>
      <trkpt lat="43.30248" lon="1.95581">
        <ele>207.46546</ele>
        <time>2023-01-04T13:57:48.086Z</time>
      </trkpt>
      <trkpt lat="43.30239" lon="1.95577">
        <ele>207.383566</ele>
        <time>2023-01-04T13:57:50.086Z</time>
      </trkpt>
      <trkpt lat="43.30228" lon="1.95574">
        <ele>207.298868</ele>
        <time>2023-01-04T13:57:52.089Z</time>
      </trkpt>
      <trkpt lat="43.30218" lon="1.95569">
        <ele>207.207845</ele>
        <time>2023-01-04T13:57:54.092Z</time>
      </trkpt>
      <trkpt lat="43.30207" lon="1.95566">
        <ele>207.119114</ele>
        <time>2023-01-04T13:57:56.087Z</time>
      </trkpt>
      <trkpt lat="43.30196" lon="1.95562">
        <ele>207.030043</ele>
        <time>2023-01-04T13:57:58.092Z</time>
      </trkpt>
      <trkpt lat="43.30186" lon="1.95558">
        <ele>206.942209</ele>
        <time>2023-01-04T13:58:00.104Z</time>
      </trkpt>
      <trkpt lat="43.30175" lon="1.95555">
        <ele>206.85466</ele>
        <time>2023-01-04T13:58:02.091Z</time>
      </trkpt>
      <trkpt lat="43.30165" lon="1.95551">
        <ele>206.76975</ele>
        <time>2023-01-04T13:58:04.104Z</time>
      </trkpt>
      <trkpt lat="43.30156" lon="1.95547">
        <ele>206.691908</ele>
        <time>2023-01-04T13:58:06.093Z</time>
      </trkpt>
      <trkpt lat="43.30144" lon="1.95542">
        <ele>206.586914</ele>
        <time>2023-01-04T13:58:09.092Z</time>
      </trkpt>
      <trkpt lat="43.30137" lon="1.95532">
        <ele>206.506505</ele>
        <time>2023-01-04T13:58:12.101Z</time>
      </trkpt>
      <trkpt lat="43.30132" lon="1.95518">
        <ele>206.415051</ele>
        <time>2023-01-04T13:58:15.091Z</time>
      </trkpt>
      <trkpt lat="43.30125" lon="1.95504">
        <ele>206.316317</ele>
        <time>2023-01-04T13:58:18.090Z</time>
      </trkpt>
      <trkpt lat="43.30115" lon="1.95494">
        <ele>206.213784</ele>
        <time>2023-01-04T13:58:21.089Z</time>
      </trkpt>
      <trkpt lat="43.30102" lon="1.9549">
        <ele>206.162123</ele>
        <time>2023-01-04T13:58:24.114Z</time>
      </trkpt>
      <trkpt lat="43.30089" lon="1.95491">
        <ele>206.118054</ele>
        <time>2023-01-04T13:58:27.089Z</time>
      </trkpt>
      <trkpt lat="43.30081" lon="1.95496">
        <ele>206.088027</ele>
        <time>2023-01-04T13:58:29.088Z</time>
      </trkpt>
      <trkpt lat="43.30072" lon="1.95501">
        <ele>206.057595</ele>
        <time>2023-01-04T13:58:31.099Z</time>
      </trkpt>
      <trkpt lat="43.30065" lon="1.95509">
        <ele>206.025949</ele>
        <time>2023-01-04T13:58:33.124Z</time>
      </trkpt>
      <trkpt lat="43.30057" lon="1.95523">
        <ele>205.983351</ele>
        <time>2023-01-04T13:58:36.123Z</time>
      </trkpt>
      <trkpt lat="43.30052" lon="1.95537">
        <ele>205.943979</ele>
        <time>2023-01-04T13:58:39.104Z</time>
      </trkpt>
      <trkpt lat="43.30045" lon="1.95549">
        <ele>205.906431</ele>
        <time>2023-01-04T13:58:43.086Z</time>
      </trkpt>
      <trkpt lat="43.30035" lon="1.95556">
        <ele>205.870938</ele>
        <time>2023-01-04T13:58:47.093Z</time>
      </trkpt>
      <trkpt lat="43.30031" lon="1.95569">
        <ele>205.835987</ele>
        <time>2023-01-04T13:58:51.089Z</time>
      </trkpt>
      <trkpt lat="43.30027" lon="1.95582">
        <ele>205.802166</ele>
        <time>2023-01-04T13:58:55.090Z</time>
      </trkpt>
      <trkpt lat="43.30018" lon="1.95591">
        <ele>205.765836</ele>
        <time>2023-01-04T13:58:59.089Z</time>
      </trkpt>
      <trkpt lat="43.30011" lon="1.95599">
        <ele>205.735654</ele>
        <time>2023-01-04T13:59:02.090Z</time>
      </trkpt>
      <trkpt lat="43.3" lon="1.95602">
        <ele>205.698705</ele>
        <time>2023-01-04T13:59:06.091Z</time>
      </trkpt>
      <trkpt lat="43.29991" lon="1.95592">
        <ele>205.659606</ele>
        <time>2023-01-04T13:59:10.097Z</time>
      </trkpt>
      <trkpt lat="43.29983" lon="1.95583">
        <ele>205.625493</ele>
        <time>2023-01-04T13:59:13.092Z</time>
      </trkpt>
      <trkpt lat="43.29979" lon="1.95571">
        <ele>205.645217</ele>
        <time>2023-01-04T13:59:16.085Z</time>
      </trkpt>
      <trkpt lat="43.29978" lon="1.95556">
        <ele>205.874953</ele>
        <time>2023-01-04T13:59:20.098Z</time>
      </trkpt>
      <trkpt lat="43.29975" lon="1.95542">
        <ele>206.102616</ele>
        <time>2023-01-04T13:59:24.108Z</time>
      </trkpt>
      <trkpt lat="43.29973" lon="1.95527">
        <ele>206.353593</ele>
        <time>2023-01-04T13:59:28.096Z</time>
      </trkpt>
      <trkpt lat="43.29974" lon="1.95511">
        <ele>206.596246</ele>
        <time>2023-01-04T13:59:32.097Z</time>
      </trkpt>
      <trkpt lat="43.29984" lon="1.95508">
        <ele>206.81252</ele>
        <time>2023-01-04T13:59:36.091Z</time>
      </trkpt>
      <trkpt lat="43.29993" lon="1.95512">
        <ele>207.01575</ele>
        <time>2023-01-04T13:59:40.092Z</time>
      </trkpt>
      <trkpt lat="43.30002" lon="1.95516">
        <ele>207.214066</ele>
        <time>2023-01-04T13:59:44.092Z</time>
      </trkpt>
      <trkpt lat="43.30012" lon="1.95522">
        <ele>207.453461</ele>
        <time>2023-01-04T13:59:49.088Z</time>
      </trkpt>
      <trkpt lat="43.30021" lon="1.95528">
        <ele>207.683626</ele>
        <time>2023-01-04T13:59:54.093Z</time>
      </trkpt>
      <trkpt lat="43.30021" lon="1.9553">
        <ele>207.716494</ele>
        <time>2023-01-04T14:00:24.026Z</time>
      </trkpt>
      <trkpt lat="43.30089" lon="1.95448">
        <ele>209.305816</ele>
        <time>2023-01-04T14:42:34.107Z</time>
      </trkpt>
      <trkpt lat="43.30096" lon="1.95431">
        <ele>209.053828</ele>
        <time>2023-01-04T14:43:36.102Z</time>
      </trkpt>
      <trkpt lat="43.30104" lon="1.9542">
        <ele>208.847665</ele>
        <time>2023-01-04T14:43:41.094Z</time>
      </trkpt>
      <trkpt lat="43.30113" lon="1.9542">
        <ele>208.681398</ele>
        <time>2023-01-04T14:43:46.097Z</time>
      </trkpt>
      <trkpt lat="43.30114" lon="1.95435">
        <ele>208.485224</ele>
        <time>2023-01-04T14:43:50.122Z</time>
      </trkpt>
      <trkpt lat="43.30111" lon="1.95448">
        <ele>208.307504</ele>
        <time>2023-01-04T14:43:53.121Z</time>
      </trkpt>
      <trkpt lat="43.30108" lon="1.95463">
        <ele>208.106309</ele>
        <time>2023-01-04T14:43:57.093Z</time>
      </trkpt>
      <trkpt lat="43.30105" lon="1.95476">
        <ele>207.931273</ele>
        <time>2023-01-04T14:44:03.104Z</time>
      </trkpt>
      <trkpt lat="43.301" lon="1.95486">
        <ele>207.765322</ele>
        <time>2023-01-04T14:44:10.111Z</time>
      </trkpt>
      <trkpt lat="43.3009" lon="1.9549">
        <ele>207.577189</ele>
        <time>2023-01-04T14:44:19.101Z</time>
      </trkpt>
      <trkpt lat="43.30079" lon="1.95495">
        <ele>207.361929</ele>
        <time>2023-01-04T14:44:23.094Z</time>
      </trkpt>
      <trkpt lat="43.3007" lon="1.95502">
        <ele>207.172248</ele>
        <time>2023-01-04T14:44:26.120Z</time>
      </trkpt>
      <trkpt lat="43.30062" lon="1.95513">
        <ele>206.975363</ele>
        <time>2023-01-04T14:44:29.102Z</time>
      </trkpt>
      <trkpt lat="43.30057" lon="1.95526">
        <ele>206.775867</ele>
        <time>2023-01-04T14:44:32.104Z</time>
      </trkpt>
      <trkpt lat="43.30054" lon="1.95541">
        <ele>206.568024</ele>
        <time>2023-01-04T14:44:35.111Z</time>
      </trkpt>
      <trkpt lat="43.30055" lon="1.95556">
        <ele>206.370536</ele>
        <time>2023-01-04T14:44:38.095Z</time>
      </trkpt>
      <trkpt lat="43.30057" lon="1.9557">
        <ele>206.213764</ele>
        <time>2023-01-04T14:44:41.095Z</time>
      </trkpt>
      <trkpt lat="43.30061" lon="1.95582">
        <ele>206.183596</ele>
        <time>2023-01-04T14:44:44.097Z</time>
      </trkpt>
      <trkpt lat="43.3007" lon="1.95593">
        <ele>206.145507</ele>
        <time>2023-01-04T14:44:48.089Z</time>
      </trkpt>
      <trkpt lat="43.30079" lon="1.956">
        <ele>206.111624</ele>
        <time>2023-01-04T14:44:51.091Z</time>
      </trkpt>
      <trkpt lat="43.30089" lon="1.95607">
        <ele>206.075884</ele>
        <time>2023-01-04T14:44:54.090Z</time>
      </trkpt>
      <trkpt lat="43.30097" lon="1.95616">
        <ele>206.041381</ele>
        <time>2023-01-04T14:44:57.128Z</time>
      </trkpt>
      <trkpt lat="43.30103" lon="1.95627">
        <ele>206.008956</ele>
        <time>2023-01-04T14:45:00.093Z</time>
      </trkpt>
      <trkpt lat="43.30106" lon="1.95641">
        <ele>205.975094</ele>
        <time>2023-01-04T14:45:03.092Z</time>
      </trkpt>
      <trkpt lat="43.30109" lon="1.95657">
        <ele>205.936792</ele>
        <time>2023-01-04T14:45:06.101Z</time>
      </trkpt>
      <trkpt lat="43.30111" lon="1.95674">
        <ele>205.897288</ele>
        <time>2023-01-04T14:45:09.113Z</time>
      </trkpt>
      <trkpt lat="43.30114" lon="1.95691">
        <ele>205.856422</ele>
        <time>2023-01-04T14:45:12.139Z</time>
      </trkpt>
      <trkpt lat="43.30116" lon="1.95708">
        <ele>205.813884</ele>
        <time>2023-01-04T14:45:15.120Z</time>
      </trkpt>
      <trkpt lat="43.30118" lon="1.95721">
        <ele>205.784468</ele>
        <time>2023-01-04T14:45:17.102Z</time>
      </trkpt>
      <trkpt lat="43.3012" lon="1.95733">
        <ele>205.753839</ele>
        <time>2023-01-04T14:45:19.094Z</time>
      </trkpt>
      <trkpt lat="43.30122" lon="1.95751">
        <ele>205.711329</ele>
        <time>2023-01-04T14:45:22.098Z</time>
      </trkpt>
      <trkpt lat="43.30124" lon="1.95764">
        <ele>205.681975</ele>
        <time>2023-01-04T14:45:24.107Z</time>
      </trkpt>
      <trkpt lat="43.30126" lon="1.95777">
        <ele>205.650427</ele>
        <time>2023-01-04T14:45:26.090Z</time>
      </trkpt>
      <trkpt lat="43.30127" lon="1.9579">
        <ele>205.653483</ele>
        <time>2023-01-04T14:45:28.136Z</time>
      </trkpt>
      <trkpt lat="43.30129" lon="1.95804">
        <ele>205.67437</ele>
        <time>2023-01-04T14:45:30.092Z</time>
      </trkpt>
      <trkpt lat="43.30131" lon="1.95818">
        <ele>205.694048</ele>
        <time>2023-01-04T14:45:32.112Z</time>
      </trkpt>
      <trkpt lat="43.30132" lon="1.95832">
        <ele>205.714296</ele>
        <time>2023-01-04T14:45:34.120Z</time>
      </trkpt>
      <trkpt lat="43.30134" lon="1.95845">
        <ele>205.73391</ele>
        <time>2023-01-04T14:45:36.109Z</time>
      </trkpt>
      <trkpt lat="43.30135" lon="1.9586">
        <ele>205.755098</ele>
        <time>2023-01-04T14:45:38.114Z</time>
      </trkpt>
      <trkpt lat="43.30137" lon="1.95874">
        <ele>205.775856</ele>
        <time>2023-01-04T14:45:40.112Z</time>
      </trkpt>
      <trkpt lat="43.30138" lon="1.95888">
        <ele>205.796803</ele>
        <time>2023-01-04T14:45:42.088Z</time>
      </trkpt>
      <trkpt lat="43.30139" lon="1.95903">
        <ele>205.818994</ele>
        <time>2023-01-04T14:45:44.109Z</time>
      </trkpt>
      <trkpt lat="43.3014" lon="1.95918">
        <ele>205.840623</ele>
        <time>2023-01-04T14:45:46.115Z</time>
      </trkpt>
      <trkpt lat="43.3014" lon="1.95934">
        <ele>205.863639</ele>
        <time>2023-01-04T14:45:48.108Z</time>
      </trkpt>
      <trkpt lat="43.30141" lon="1.9595">
        <ele>205.886366</ele>
        <time>2023-01-04T14:45:50.099Z</time>
      </trkpt>
      <trkpt lat="43.3014" lon="1.95966">
        <ele>205.909516</ele>
        <time>2023-01-04T14:45:52.096Z</time>
      </trkpt>
      <trkpt lat="43.3014" lon="1.95982">
        <ele>205.932974</ele>
        <time>2023-01-04T14:45:54.112Z</time>
      </trkpt>
      <trkpt lat="43.30139" lon="1.95998">
        <ele>205.956512</ele>
        <time>2023-01-04T14:45:56.098Z</time>
      </trkpt>
      <trkpt lat="43.30137" lon="1.96015">
        <ele>205.98062</ele>
        <time>2023-01-04T14:45:58.090Z</time>
      </trkpt>
      <trkpt lat="43.30135" lon="1.96031">
        <ele>205.958267</ele>
        <time>2023-01-04T14:46:00.119Z</time>
      </trkpt>
      <trkpt lat="43.30133" lon="1.96047">
        <ele>205.821329</ele>
        <time>2023-01-04T14:46:02.107Z</time>
      </trkpt>
      <trkpt lat="43.30131" lon="1.96063">
        <ele>205.673645</ele>
        <time>2023-01-04T14:46:04.101Z</time>
      </trkpt>
      <trkpt lat="43.30128" lon="1.96079">
        <ele>205.528857</ele>
        <time>2023-01-04T14:46:06.098Z</time>
      </trkpt>
      <trkpt lat="43.30125" lon="1.96096">
        <ele>205.378154</ele>
        <time>2023-01-04T14:46:08.109Z</time>
      </trkpt>
      <trkpt lat="43.30123" lon="1.96113">
        <ele>205.226011</ele>
        <time>2023-01-04T14:46:10.108Z</time>
      </trkpt>
      <trkpt lat="43.3012" lon="1.9613">
        <ele>205.071637</ele>
        <time>2023-01-04T14:46:12.096Z</time>
      </trkpt>
      <trkpt lat="43.30117" lon="1.96148">
        <ele>204.917547</ele>
        <time>2023-01-04T14:46:14.096Z</time>
      </trkpt>
      <trkpt lat="43.30114" lon="1.96165">
        <ele>204.763147</ele>
        <time>2023-01-04T14:46:16.087Z</time>
      </trkpt>
      <trkpt lat="43.30111" lon="1.96182">
        <ele>204.612697</ele>
        <time>2023-01-04T14:46:18.094Z</time>
      </trkpt>
      <trkpt lat="43.30107" lon="1.96199">
        <ele>204.456888</ele>
        <time>2023-01-04T14:46:20.110Z</time>
      </trkpt>
      <trkpt lat="43.30104" lon="1.96216">
        <ele>204.303477</ele>
        <time>2023-01-04T14:46:22.109Z</time>
      </trkpt>
      <trkpt lat="43.301" lon="1.96234">
        <ele>204.142704</ele>
        <time>2023-01-04T14:46:24.119Z</time>
      </trkpt>
      <trkpt lat="43.30097" lon="1.9625">
        <ele>203.996476</ele>
        <time>2023-01-04T14:46:26.101Z</time>
      </trkpt>
      <trkpt lat="43.30094" lon="1.96267">
        <ele>203.844736</ele>
        <time>2023-01-04T14:46:28.102Z</time>
      </trkpt>
      <trkpt lat="43.3009" lon="1.96283">
        <ele>203.736472</ele>
        <time>2023-01-04T14:46:30.120Z</time>
      </trkpt>
      <trkpt lat="43.30087" lon="1.96301">
        <ele>203.618039</ele>
        <time>2023-01-04T14:46:32.118Z</time>
      </trkpt>
      <trkpt lat="43.30083" lon="1.96318">
        <ele>203.503992</ele>
        <time>2023-01-04T14:46:34.110Z</time>
      </trkpt>
      <trkpt lat="43.30079" lon="1.96335">
        <ele>203.384493</ele>
        <time>2023-01-04T14:46:36.092Z</time>
      </trkpt>
      <trkpt lat="43.30076" lon="1.96352">
        <ele>203.271822</ele>
        <time>2023-01-04T14:46:38.110Z</time>
      </trkpt>
      <trkpt lat="43.30073" lon="1.96369">
        <ele>203.15798</ele>
        <time>2023-01-04T14:46:40.089Z</time>
      </trkpt>
      <trkpt lat="43.30069" lon="1.96387">
        <ele>203.042044</ele>
        <time>2023-01-04T14:46:42.112Z</time>
      </trkpt>
      <trkpt lat="43.30066" lon="1.96404">
        <ele>202.929463</ele>
        <time>2023-01-04T14:46:44.097Z</time>
      </trkpt>
      <trkpt lat="43.30063" lon="1.96421">
        <ele>202.815168</ele>
        <time>2023-01-04T14:46:46.108Z</time>
      </trkpt>
      <trkpt lat="43.30059" lon="1.96438">
        <ele>202.696357</ele>
        <time>2023-01-04T14:46:48.097Z</time>
      </trkpt>
      <trkpt lat="43.30055" lon="1.96456">
        <ele>202.579225</ele>
        <time>2023-01-04T14:46:50.100Z</time>
      </trkpt>
      <trkpt lat="43.30051" lon="1.96473">
        <ele>202.460162</ele>
        <time>2023-01-04T14:46:52.105Z</time>
      </trkpt>
      <trkpt lat="43.30045" lon="1.9649">
        <ele>202.338791</ele>
        <time>2023-01-04T14:46:54.101Z</time>
      </trkpt>
      <trkpt lat="43.3004" lon="1.96507">
        <ele>202.244328</ele>
        <time>2023-01-04T14:46:56.109Z</time>
      </trkpt>
      <trkpt lat="43.30034" lon="1.96523">
        <ele>202.219626</ele>
        <time>2023-01-04T14:46:58.101Z</time>
      </trkpt>
      <trkpt lat="43.30029" lon="1.9654">
        <ele>202.194725</ele>
        <time>2023-01-04T14:47:00.099Z</time>
      </trkpt>
      <trkpt lat="43.30025" lon="1.96554">
        <ele>202.1734</ele>
        <time>2023-01-04T14:47:02.108Z</time>
      </trkpt>
      <trkpt lat="43.30021" lon="1.96568">
        <ele>202.153059</ele>
        <time>2023-01-04T14:47:04.096Z</time>
      </trkpt>
      <trkpt lat="43.30018" lon="1.96582">
        <ele>202.132971</ele>
        <time>2023-01-04T14:47:06.106Z</time>
      </trkpt>
      <trkpt lat="43.30015" lon="1.96594">
        <ele>202.115258</ele>
        <time>2023-01-04T14:47:08.111Z</time>
      </trkpt>
      <trkpt lat="43.30013" lon="1.96608">
        <ele>202.094606</ele>
        <time>2023-01-04T14:47:10.093Z</time>
      </trkpt>
      <trkpt lat="43.3001" lon="1.96623">
        <ele>202.073543</ele>
        <time>2023-01-04T14:47:12.090Z</time>
      </trkpt>
      <trkpt lat="43.30008" lon="1.96639">
        <ele>202.051973</ele>
        <time>2023-01-04T14:47:14.112Z</time>
      </trkpt>
      <trkpt lat="43.30007" lon="1.96654">
        <ele>202.030349</ele>
        <time>2023-01-04T14:47:16.095Z</time>
      </trkpt>
      <trkpt lat="43.30006" lon="1.9667">
        <ele>202.008018</ele>
        <time>2023-01-04T14:47:18.122Z</time>
      </trkpt>
      <trkpt lat="43.30005" lon="1.96686">
        <ele>201.986693</ele>
        <time>2023-01-04T14:47:20.123Z</time>
      </trkpt>
      <trkpt lat="43.30003" lon="1.96698">
        <ele>201.96934</ele>
        <time>2023-01-04T14:47:22.099Z</time>
      </trkpt>
      <trkpt lat="43.3" lon="1.96715">
        <ele>201.945639</ele>
        <time>2023-01-04T14:47:25.108Z</time>
      </trkpt>
      <trkpt lat="43.29992" lon="1.96726">
        <ele>201.922875</ele>
        <time>2023-01-04T14:47:28.107Z</time>
      </trkpt>
      <trkpt lat="43.29982" lon="1.96738">
        <ele>201.863373</ele>
        <time>2023-01-04T14:47:31.097Z</time>
      </trkpt>
      <trkpt lat="43.29979" lon="1.96756">
        <ele>201.75486</ele>
        <time>2023-01-04T14:47:34.123Z</time>
      </trkpt>
      <trkpt lat="43.29979" lon="1.96774">
        <ele>201.648322</ele>
        <time>2023-01-04T14:47:37.103Z</time>
      </trkpt>
      <trkpt lat="43.29983" lon="1.96785">
        <ele>201.573541</ele>
        <time>2023-01-04T14:47:39.104Z</time>
      </trkpt>
      <trkpt lat="43.29989" lon="1.96795">
        <ele>201.499625</ele>
        <time>2023-01-04T14:47:41.108Z</time>
      </trkpt>
      <trkpt lat="43.29996" lon="1.96803">
        <ele>201.425054</ele>
        <time>2023-01-04T14:47:43.111Z</time>
      </trkpt>
      <trkpt lat="43.30002" lon="1.96813">
        <ele>201.348174</ele>
        <time>2023-01-04T14:47:45.098Z</time>
      </trkpt>
      <trkpt lat="43.30006" lon="1.96825">
        <ele>201.268379</ele>
        <time>2023-01-04T14:47:47.122Z</time>
      </trkpt>
      <trkpt lat="43.30009" lon="1.96839">
        <ele>201.182027</ele>
        <time>2023-01-04T14:47:49.136Z</time>
      </trkpt>
      <trkpt lat="43.30014" lon="1.96853">
        <ele>201.093377</ele>
        <time>2023-01-04T14:47:51.114Z</time>
      </trkpt>
      <trkpt lat="43.30017" lon="1.96867">
        <ele>201.005067</ele>
        <time>2023-01-04T14:47:53.106Z</time>
      </trkpt>
      <trkpt lat="43.30022" lon="1.96881">
        <ele>200.91273</ele>
        <time>2023-01-04T14:47:55.124Z</time>
      </trkpt>
      <trkpt lat="43.30026" lon="1.96895">
        <ele>200.819949</ele>
        <time>2023-01-04T14:47:57.121Z</time>
      </trkpt>
      <trkpt lat="43.30029" lon="1.9691">
        <ele>200.727441</ele>
        <time>2023-01-04T14:47:59.109Z</time>
      </trkpt>
      <trkpt lat="43.30034" lon="1.96925">
        <ele>200.632145</ele>
        <time>2023-01-04T14:48:01.106Z</time>
      </trkpt>
      <trkpt lat="43.30037" lon="1.9694">
        <ele>200.537121</ele>
        <time>2023-01-04T14:48:03.097Z</time>
      </trkpt>
      <trkpt lat="43.30041" lon="1.96956">
        <ele>200.437737</ele>
        <time>2023-01-04T14:48:05.107Z</time>
      </trkpt>
      <trkpt lat="43.30045" lon="1.96972">
        <ele>200.344935</ele>
        <time>2023-01-04T14:48:07.113Z</time>
      </trkpt>
      <trkpt lat="43.3005" lon="1.96987">
        <ele>200.252394</ele>
        <time>2023-01-04T14:48:09.118Z</time>
      </trkpt>
      <trkpt lat="43.30054" lon="1.97003">
        <ele>200.159574</ele>
        <time>2023-01-04T14:48:11.098Z</time>
      </trkpt>
      <trkpt lat="43.30058" lon="1.97018">
        <ele>200.066773</ele>
        <time>2023-01-04T14:48:13.123Z</time>
      </trkpt>
      <trkpt lat="43.30062" lon="1.97033">
        <ele>199.977389</ele>
        <time>2023-01-04T14:48:15.113Z</time>
      </trkpt>
      <trkpt lat="43.30065" lon="1.97048">
        <ele>199.891686</ele>
        <time>2023-01-04T14:48:17.121Z</time>
      </trkpt>
      <trkpt lat="43.3007" lon="1.97062">
        <ele>199.805632</ele>
        <time>2023-01-04T14:48:19.107Z</time>
      </trkpt>
      <trkpt lat="43.30074" lon="1.97075">
        <ele>199.725592</ele>
        <time>2023-01-04T14:48:21.106Z</time>
      </trkpt>
      <trkpt lat="43.30079" lon="1.97087">
        <ele>199.647626</ele>
        <time>2023-01-04T14:48:23.116Z</time>
      </trkpt>
      <trkpt lat="43.30084" lon="1.971">
        <ele>199.567446</ele>
        <time>2023-01-04T14:48:25.119Z</time>
      </trkpt>
      <trkpt lat="43.3009" lon="1.97113">
        <ele>199.484181</ele>
        <time>2023-01-04T14:48:27.105Z</time>
      </trkpt>
      <trkpt lat="43.30095" lon="1.97125">
        <ele>199.40022</ele>
        <time>2023-01-04T14:48:29.119Z</time>
      </trkpt>
      <trkpt lat="43.30102" lon="1.97139">
        <ele>199.30948</ele>
        <time>2023-01-04T14:48:31.119Z</time>
      </trkpt>
      <trkpt lat="43.30108" lon="1.97153">
        <ele>199.216619</ele>
        <time>2023-01-04T14:48:33.124Z</time>
      </trkpt>
      <trkpt lat="43.30116" lon="1.97166">
        <ele>199.123834</ele>
        <time>2023-01-04T14:48:35.109Z</time>
      </trkpt>
      <trkpt lat="43.30123" lon="1.9718">
        <ele>199.113053</ele>
        <time>2023-01-04T14:48:37.111Z</time>
      </trkpt>
      <trkpt lat="43.3013" lon="1.97193">
        <ele>199.3191</ele>
        <time>2023-01-04T14:48:39.120Z</time>
      </trkpt>
      <trkpt lat="43.30137" lon="1.97205">
        <ele>199.518192</ele>
        <time>2023-01-04T14:48:41.090Z</time>
      </trkpt>
      <trkpt lat="43.30145" lon="1.97218">
        <ele>199.71656</ele>
        <time>2023-01-04T14:48:43.115Z</time>
      </trkpt>
      <trkpt lat="43.30152" lon="1.97229">
        <ele>199.905202</ele>
        <time>2023-01-04T14:48:45.116Z</time>
      </trkpt>
      <trkpt lat="43.30159" lon="1.97242">
        <ele>200.104201</ele>
        <time>2023-01-04T14:48:47.130Z</time>
      </trkpt>
      <trkpt lat="43.30166" lon="1.97255">
        <ele>200.30068</ele>
        <time>2023-01-04T14:48:49.123Z</time>
      </trkpt>
      <trkpt lat="43.30173" lon="1.97266">
        <ele>200.490091</ele>
        <time>2023-01-04T14:48:51.091Z</time>
      </trkpt>
      <trkpt lat="43.30181" lon="1.97277">
        <ele>200.67412</ele>
        <time>2023-01-04T14:48:53.114Z</time>
      </trkpt>
      <trkpt lat="43.30188" lon="1.97288">
        <ele>200.851597</ele>
        <time>2023-01-04T14:48:55.094Z</time>
      </trkpt>
      <trkpt lat="43.30193" lon="1.97299">
        <ele>201.01353</ele>
        <time>2023-01-04T14:48:57.107Z</time>
      </trkpt>
      <trkpt lat="43.30199" lon="1.97309">
        <ele>201.173885</ele>
        <time>2023-01-04T14:48:59.128Z</time>
      </trkpt>
      <trkpt lat="43.30207" lon="1.97322">
        <ele>201.383839</ele>
        <time>2023-01-04T14:49:02.121Z</time>
      </trkpt>
      <trkpt lat="43.30214" lon="1.97335">
        <ele>201.585787</ele>
        <time>2023-01-04T14:49:05.122Z</time>
      </trkpt>
      <trkpt lat="43.30221" lon="1.97348">
        <ele>201.785774</ele>
        <time>2023-01-04T14:49:08.121Z</time>
      </trkpt>
      <trkpt lat="43.30228" lon="1.97361">
        <ele>201.979734</ele>
        <time>2023-01-04T14:49:11.112Z</time>
      </trkpt>
      <trkpt lat="43.30234" lon="1.97373">
        <ele>202.123551</ele>
        <time>2023-01-04T14:49:14.120Z</time>
      </trkpt>
      <trkpt lat="43.30241" lon="1.97386">
        <ele>202.161562</ele>
        <time>2023-01-04T14:49:17.120Z</time>
      </trkpt>
      <trkpt lat="43.30247" lon="1.97398">
        <ele>202.198348</ele>
        <time>2023-01-04T14:49:20.094Z</time>
      </trkpt>
      <trkpt lat="43.30252" lon="1.9741">
        <ele>202.234502</ele>
        <time>2023-01-04T14:49:23.096Z</time>
      </trkpt>
      <trkpt lat="43.30257" lon="1.97422">
        <ele>202.268285</ele>
        <time>2023-01-04T14:49:26.093Z</time>
      </trkpt>
      <trkpt lat="43.30261" lon="1.97433">
        <ele>202.29954</ele>
        <time>2023-01-04T14:49:29.105Z</time>
      </trkpt>
      <trkpt lat="43.30263" lon="1.97446">
        <ele>202.331455</ele>
        <time>2023-01-04T14:49:33.123Z</time>
      </trkpt>
      <trkpt lat="43.30262" lon="1.97462">
        <ele>202.371816</ele>
        <time>2023-01-04T14:49:38.103Z</time>
      </trkpt>
      <trkpt lat="43.3026" lon="1.97476">
        <ele>202.408207</ele>
        <time>2023-01-04T14:49:41.090Z</time>
      </trkpt>
      <trkpt lat="43.30261" lon="1.97491">
        <ele>202.445798</ele>
        <time>2023-01-04T14:49:44.110Z</time>
      </trkpt>
      <trkpt lat="43.30267" lon="1.97503">
        <ele>202.482302</ele>
        <time>2023-01-04T14:49:47.102Z</time>
      </trkpt>
      <trkpt lat="43.30273" lon="1.97513">
        <ele>202.515255</ele>
        <time>2023-01-04T14:49:50.123Z</time>
      </trkpt>
      <trkpt lat="43.30287" lon="1.97526">
        <ele>202.573013</ele>
        <time>2023-01-04T14:50:26.121Z</time>
      </trkpt>
      <trkpt lat="43.30298" lon="1.97524">
        <ele>202.609923</ele>
        <time>2023-01-04T14:50:31.102Z</time>
      </trkpt>
      <trkpt lat="43.30308" lon="1.97528">
        <ele>202.646878</ele>
        <time>2023-01-04T14:50:35.100Z</time>
      </trkpt>
      <trkpt lat="43.30318" lon="1.97538">
        <ele>202.687946</ele>
        <time>2023-01-04T14:50:39.112Z</time>
      </trkpt>
      <trkpt lat="43.30324" lon="1.97548">
        <ele>202.72069</ele>
        <time>2023-01-04T14:50:42.095Z</time>
      </trkpt>
      <trkpt lat="43.3033" lon="1.9756">
        <ele>202.881762</ele>
        <time>2023-01-04T14:50:45.096Z</time>
      </trkpt>
      <trkpt lat="43.30335" lon="1.97572">
        <ele>203.09096</ele>
        <time>2023-01-04T14:50:48.112Z</time>
      </trkpt>
      <trkpt lat="43.30341" lon="1.97584">
        <ele>203.305734</ele>
        <time>2023-01-04T14:50:51.108Z</time>
      </trkpt>
      <trkpt lat="43.30347" lon="1.97596">
        <ele>203.516169</ele>
        <time>2023-01-04T14:50:54.104Z</time>
      </trkpt>
      <trkpt lat="43.30353" lon="1.97608">
        <ele>203.735699</ele>
        <time>2023-01-04T14:50:57.124Z</time>
      </trkpt>
      <trkpt lat="43.30359" lon="1.9762">
        <ele>203.954222</ele>
        <time>2023-01-04T14:51:00.100Z</time>
      </trkpt>
      <trkpt lat="43.30365" lon="1.97633">
        <ele>204.175194</ele>
        <time>2023-01-04T14:51:03.094Z</time>
      </trkpt>
      <trkpt lat="43.30372" lon="1.97645">
        <ele>204.403017</ele>
        <time>2023-01-04T14:51:06.093Z</time>
      </trkpt>
      <trkpt lat="43.30378" lon="1.97659">
        <ele>204.638042</ele>
        <time>2023-01-04T14:51:09.094Z</time>
      </trkpt>
      <trkpt lat="43.30385" lon="1.97672">
        <ele>204.873067</ele>
        <time>2023-01-04T14:51:12.095Z</time>
      </trkpt>
      <trkpt lat="43.30391" lon="1.97685">
        <ele>205.108413</ele>
        <time>2023-01-04T14:51:15.089Z</time>
      </trkpt>
      <trkpt lat="43.30398" lon="1.97699">
        <ele>205.340065</ele>
        <time>2023-01-04T14:51:18.093Z</time>
      </trkpt>
      <trkpt lat="43.30404" lon="1.97711">
        <ele>205.566708</ele>
        <time>2023-01-04T14:51:21.105Z</time>
      </trkpt>
      <trkpt lat="43.30412" lon="1.97723">
        <ele>205.796077</ele>
        <time>2023-01-04T14:51:24.095Z</time>
      </trkpt>
      <trkpt lat="43.30419" lon="1.97735">
        <ele>206.024667</ele>
        <time>2023-01-04T14:51:27.098Z</time>
      </trkpt>
      <trkpt lat="43.30427" lon="1.97746">
        <ele>206.251841</ele>
        <time>2023-01-04T14:51:30.108Z</time>
      </trkpt>
      <trkpt lat="43.30435" lon="1.97757">
        <ele>206.355101</ele>
        <time>2023-01-04T14:51:33.104Z</time>
      </trkpt>
      <trkpt lat="43.30443" lon="1.97769">
        <ele>206.352217</ele>
        <time>2023-01-04T14:51:36.094Z</time>
      </trkpt>
      <trkpt lat="43.30452" lon="1.97781">
        <ele>206.349347</ele>
        <time>2023-01-04T14:51:39.104Z</time>
      </trkpt>
      <trkpt lat="43.30461" lon="1.97793">
        <ele>206.346266</ele>
        <time>2023-01-04T14:51:42.110Z</time>
      </trkpt>
      <trkpt lat="43.30471" lon="1.97805">
        <ele>206.343138</ele>
        <time>2023-01-04T14:51:45.120Z</time>
      </trkpt>
      <trkpt lat="43.30482" lon="1.97816">
        <ele>206.339938</ele>
        <time>2023-01-04T14:51:48.093Z</time>
      </trkpt>
      <trkpt lat="43.30491" lon="1.97828">
        <ele>206.336968</ele>
        <time>2023-01-04T14:51:51.112Z</time>
      </trkpt>
      <trkpt lat="43.305" lon="1.97838">
        <ele>206.33415</ele>
        <time>2023-01-04T14:51:54.104Z</time>
      </trkpt>
      <trkpt lat="43.30509" lon="1.97851">
        <ele>206.331189</ele>
        <time>2023-01-04T14:51:57.097Z</time>
      </trkpt>
      <trkpt lat="43.30518" lon="1.97864">
        <ele>206.32805</ele>
        <time>2023-01-04T14:52:00.099Z</time>
      </trkpt>
      <trkpt lat="43.30527" lon="1.97876">
        <ele>206.324963</ele>
        <time>2023-01-04T14:52:03.106Z</time>
      </trkpt>
      <trkpt lat="43.30537" lon="1.97888">
        <ele>206.321823</ele>
        <time>2023-01-04T14:52:06.113Z</time>
      </trkpt>
      <trkpt lat="43.30546" lon="1.979">
        <ele>206.318803</ele>
        <time>2023-01-04T14:52:09.098Z</time>
      </trkpt>
      <trkpt lat="43.30555" lon="1.97913">
        <ele>206.315804</ele>
        <time>2023-01-04T14:52:12.097Z</time>
      </trkpt>
      <trkpt lat="43.30563" lon="1.97925">
        <ele>206.220693</ele>
        <time>2023-01-04T14:52:15.098Z</time>
      </trkpt>
      <trkpt lat="43.30569" lon="1.97938">
        <ele>205.933197</ele>
        <time>2023-01-04T14:52:18.103Z</time>
      </trkpt>
      <trkpt lat="43.30573" lon="1.97953">
        <ele>205.647799</ele>
        <time>2023-01-04T14:52:21.108Z</time>
      </trkpt>
      <trkpt lat="43.30568" lon="1.97964">
        <ele>205.420786</ele>
        <time>2023-01-04T14:52:24.117Z</time>
      </trkpt>
      <trkpt lat="43.30559" lon="1.97968">
        <ele>205.165442</ele>
        <time>2023-01-04T14:52:27.127Z</time>
      </trkpt>
      <trkpt lat="43.30547" lon="1.97969">
        <ele>204.874162</ele>
        <time>2023-01-04T14:52:30.105Z</time>
      </trkpt>
      <trkpt lat="43.30537" lon="1.9797">
        <ele>204.613567</ele>
        <time>2023-01-04T14:52:34.122Z</time>
      </trkpt>
      <trkpt lat="43.30537" lon="1.97956">
        <ele>204.35484</ele>
        <time>2023-01-04T14:52:39.119Z</time>
      </trkpt>
      <trkpt lat="43.30543" lon="1.97947">
        <ele>204.120849</ele>
        <time>2023-01-04T14:52:42.094Z</time>
      </trkpt>
      <trkpt lat="43.30548" lon="1.97933">
        <ele>203.845057</ele>
        <time>2023-01-04T14:52:46.114Z</time>
      </trkpt>
      <trkpt lat="43.30541" lon="1.97918">
        <ele>203.530698</ele>
        <time>2023-01-04T14:52:50.120Z</time>
      </trkpt>
      <trkpt lat="43.30533" lon="1.97908">
        <ele>203.261222</ele>
        <time>2023-01-04T14:52:53.100Z</time>
      </trkpt>
      <trkpt lat="43.30527" lon="1.97899">
        <ele>203.034131</ele>
        <time>2023-01-04T14:52:56.100Z</time>
      </trkpt>
      <trkpt lat="43.3052" lon="1.97891">
        <ele>202.805292</ele>
        <time>2023-01-04T14:53:00.093Z</time>
      </trkpt>
      <trkpt lat="43.30512" lon="1.97885">
        <ele>202.57307</ele>
        <time>2023-01-04T14:53:05.099Z</time>
      </trkpt>
      <trkpt lat="43.30505" lon="1.97894">
        <ele>202.339078</ele>
        <time>2023-01-04T14:53:09.109Z</time>
      </trkpt>
      <trkpt lat="43.30499" lon="1.97906">
        <ele>202.068116</ele>
        <time>2023-01-04T14:53:13.103Z</time>
      </trkpt>
      <trkpt lat="43.30492" lon="1.97916">
        <ele>201.829299</ele>
        <time>2023-01-04T14:53:17.095Z</time>
      </trkpt>
      <trkpt lat="43.30482" lon="1.97912">
        <ele>201.858063</ele>
        <time>2023-01-04T14:53:22.102Z</time>
      </trkpt>
      <trkpt lat="43.30472" lon="1.97916">
        <ele>201.905026</ele>
        <time>2023-01-04T14:53:40.093Z</time>
      </trkpt>
      <trkpt lat="43.30466" lon="1.97927">
        <ele>201.952715</ele>
        <time>2023-01-04T14:53:46.096Z</time>
      </trkpt>
      <trkpt lat="43.30461" lon="1.97939">
        <ele>201.997711</ele>
        <time>2023-01-04T14:53:50.092Z</time>
      </trkpt>
      <trkpt lat="43.30454" lon="1.97951">
        <ele>202.051329</ele>
        <time>2023-01-04T14:53:54.089Z</time>
      </trkpt>
      <trkpt lat="43.30448" lon="1.97962">
        <ele>202.095214</ele>
        <time>2023-01-04T14:53:57.104Z</time>
      </trkpt>
      <trkpt lat="43.30443" lon="1.97974">
        <ele>202.141051</ele>
        <time>2023-01-04T14:54:00.106Z</time>
      </trkpt>
      <trkpt lat="43.30437" lon="1.97985">
        <ele>202.186302</ele>
        <time>2023-01-04T14:54:03.116Z</time>
      </trkpt>
      <trkpt lat="43.30432" lon="1.97996">
        <ele>202.231263</ele>
        <time>2023-01-04T14:54:06.111Z</time>
      </trkpt>
      <trkpt lat="43.30425" lon="1.98007">
        <ele>202.281218</ele>
        <time>2023-01-04T14:54:09.096Z</time>
      </trkpt>
      <trkpt lat="43.30418" lon="1.98018">
        <ele>202.328849</ele>
        <time>2023-01-04T14:54:12.103Z</time>
      </trkpt>
      <trkpt lat="43.30411" lon="1.98027">
        <ele>202.371402</ele>
        <time>2023-01-04T14:54:15.100Z</time>
      </trkpt>
      <trkpt lat="43.30405" lon="1.98036">
        <ele>202.414514</ele>
        <time>2023-01-04T14:54:18.099Z</time>
      </trkpt>
      <trkpt lat="43.30398" lon="1.98047">
        <ele>202.462144</ele>
        <time>2023-01-04T14:54:21.108Z</time>
      </trkpt>
      <trkpt lat="43.30391" lon="1.98058">
        <ele>202.511511</ele>
        <time>2023-01-04T14:54:24.114Z</time>
      </trkpt>
      <trkpt lat="43.30384" lon="1.98069">
        <ele>202.560149</ele>
        <time>2023-01-04T14:54:27.109Z</time>
      </trkpt>
      <trkpt lat="43.30377" lon="1.9808">
        <ele>202.610547</ele>
        <time>2023-01-04T14:54:30.105Z</time>
      </trkpt>
      <trkpt lat="43.30369" lon="1.98091">
        <ele>202.638991</ele>
        <time>2023-01-04T14:54:33.096Z</time>
      </trkpt>
      <trkpt lat="43.30361" lon="1.98102">
        <ele>202.63657</ele>
        <time>2023-01-04T14:54:36.113Z</time>
      </trkpt>
      <trkpt lat="43.30354" lon="1.98113">
        <ele>202.634134</ele>
        <time>2023-01-04T14:54:39.104Z</time>
      </trkpt>
      <trkpt lat="43.30346" lon="1.98125">
        <ele>202.63165</ele>
        <time>2023-01-04T14:54:42.117Z</time>
      </trkpt>
      <trkpt lat="43.30339" lon="1.98136">
        <ele>202.6292</ele>
        <time>2023-01-04T14:54:45.093Z</time>
      </trkpt>
      <trkpt lat="43.30332" lon="1.98148">
        <ele>202.626764</ele>
        <time>2023-01-04T14:54:48.118Z</time>
      </trkpt>
      <trkpt lat="43.30324" lon="1.98159">
        <ele>202.624281</ele>
        <time>2023-01-04T14:54:51.090Z</time>
      </trkpt>
      <trkpt lat="43.30317" lon="1.98171">
        <ele>202.621878</ele>
        <time>2023-01-04T14:54:54.114Z</time>
      </trkpt>
      <trkpt lat="43.30309" lon="1.98182">
        <ele>202.61941</ele>
        <time>2023-01-04T14:54:57.118Z</time>
      </trkpt>
      <trkpt lat="43.30302" lon="1.98193">
        <ele>202.616975</ele>
        <time>2023-01-04T14:55:00.112Z</time>
      </trkpt>
      <trkpt lat="43.30295" lon="1.98205">
        <ele>202.614539</ele>
        <time>2023-01-04T14:55:03.100Z</time>
      </trkpt>
      <trkpt lat="43.30287" lon="1.98216">
        <ele>202.612026</ele>
        <time>2023-01-04T14:55:06.106Z</time>
      </trkpt>
      <trkpt lat="43.3028" lon="1.98228">
        <ele>202.609615</ele>
        <time>2023-01-04T14:55:09.099Z</time>
      </trkpt>
      <trkpt lat="43.30273" lon="1.98239">
        <ele>202.607169</ele>
        <time>2023-01-04T14:55:12.094Z</time>
      </trkpt>
      <trkpt lat="43.30265" lon="1.9825">
        <ele>202.604752</ele>
        <time>2023-01-04T14:55:15.089Z</time>
      </trkpt>
      <trkpt lat="43.30258" lon="1.98262">
        <ele>202.602314</ele>
        <time>2023-01-04T14:55:18.093Z</time>
      </trkpt>
      <trkpt lat="43.3025" lon="1.98273">
        <ele>202.604185</ele>
        <time>2023-01-04T14:55:21.097Z</time>
      </trkpt>
      <trkpt lat="43.30243" lon="1.98285">
        <ele>202.621049</ele>
        <time>2023-01-04T14:55:24.100Z</time>
      </trkpt>
      <trkpt lat="43.30235" lon="1.98297">
        <ele>202.637599</ele>
        <time>2023-01-04T14:55:27.087Z</time>
      </trkpt>
      <trkpt lat="43.30227" lon="1.98309">
        <ele>202.654541</ele>
        <time>2023-01-04T14:55:30.095Z</time>
      </trkpt>
      <trkpt lat="43.3022" lon="1.98321">
        <ele>202.671089</ele>
        <time>2023-01-04T14:55:33.099Z</time>
      </trkpt>
      <trkpt lat="43.30212" lon="1.98334">
        <ele>202.688396</ele>
        <time>2023-01-04T14:55:36.097Z</time>
      </trkpt>
      <trkpt lat="43.30204" lon="1.98346">
        <ele>202.705645</ele>
        <time>2023-01-04T14:55:39.092Z</time>
      </trkpt>
      <trkpt lat="43.30196" lon="1.98359">
        <ele>202.723068</ele>
        <time>2023-01-04T14:55:42.097Z</time>
      </trkpt>
      <trkpt lat="43.30189" lon="1.9837">
        <ele>202.739774</ele>
        <time>2023-01-04T14:55:45.099Z</time>
      </trkpt>
      <trkpt lat="43.30181" lon="1.98382">
        <ele>202.75619</ele>
        <time>2023-01-04T14:55:48.094Z</time>
      </trkpt>
      <trkpt lat="43.30173" lon="1.98393">
        <ele>202.772585</ele>
        <time>2023-01-04T14:55:51.094Z</time>
      </trkpt>
      <trkpt lat="43.30165" lon="1.98405">
        <ele>202.789544</ele>
        <time>2023-01-04T14:55:54.103Z</time>
      </trkpt>
      <trkpt lat="43.30159" lon="1.98418">
        <ele>202.80634</ele>
        <time>2023-01-04T14:55:57.093Z</time>
      </trkpt>
      <trkpt lat="43.30152" lon="1.98432">
        <ele>202.822989</ele>
        <time>2023-01-04T14:56:00.093Z</time>
      </trkpt>
      <trkpt lat="43.30147" lon="1.98446">
        <ele>202.840201</ele>
        <time>2023-01-04T14:56:03.104Z</time>
      </trkpt>
      <trkpt lat="43.30142" lon="1.9846">
        <ele>202.856126</ele>
        <time>2023-01-04T14:56:06.099Z</time>
      </trkpt>
      <trkpt lat="43.30137" lon="1.98473">
        <ele>202.887351</ele>
        <time>2023-01-04T14:56:09.095Z</time>
      </trkpt>
      <trkpt lat="43.30133" lon="1.98487">
        <ele>202.922836</ele>
        <time>2023-01-04T14:56:12.099Z</time>
      </trkpt>
      <trkpt lat="43.30129" lon="1.98499">
        <ele>202.954574</ele>
        <time>2023-01-04T14:56:15.094Z</time>
      </trkpt>
      <trkpt lat="43.30125" lon="1.98513">
        <ele>202.990806</ele>
        <time>2023-01-04T14:56:18.119Z</time>
      </trkpt>
      <trkpt lat="43.3012" lon="1.98527">
        <ele>203.028183</ele>
        <time>2023-01-04T14:56:21.091Z</time>
      </trkpt>
      <trkpt lat="43.30115" lon="1.98541">
        <ele>203.066498</ele>
        <time>2023-01-04T14:56:24.114Z</time>
      </trkpt>
      <trkpt lat="43.30111" lon="1.98555">
        <ele>203.103746</ele>
        <time>2023-01-04T14:56:27.101Z</time>
      </trkpt>
      <trkpt lat="43.30106" lon="1.9857">
        <ele>203.140949</ele>
        <time>2023-01-04T14:56:30.110Z</time>
      </trkpt>
      <trkpt lat="43.30102" lon="1.98582">
        <ele>203.174715</ele>
        <time>2023-01-04T14:56:33.112Z</time>
      </trkpt>
      <trkpt lat="43.30097" lon="1.98593">
        <ele>203.20524</ele>
        <time>2023-01-04T14:56:36.103Z</time>
      </trkpt>
      <trkpt lat="43.30093" lon="1.98605">
        <ele>203.235677</ele>
        <time>2023-01-04T14:56:41.100Z</time>
      </trkpt>
      <trkpt lat="43.30088" lon="1.98616">
        <ele>203.269103</ele>
        <time>2023-01-04T14:56:51.094Z</time>
      </trkpt>
      <trkpt lat="43.30082" lon="1.98628">
        <ele>203.304967</ele>
        <time>2023-01-04T14:56:55.119Z</time>
      </trkpt>
      <trkpt lat="43.30075" lon="1.98639">
        <ele>203.337937</ele>
        <time>2023-01-04T14:56:58.106Z</time>
      </trkpt>
      <trkpt lat="43.30068" lon="1.9865">
        <ele>203.37298</ele>
        <time>2023-01-04T14:57:01.111Z</time>
      </trkpt>
      <trkpt lat="43.30061" lon="1.98661">
        <ele>203.409267</ele>
        <time>2023-01-04T14:57:04.111Z</time>
      </trkpt>
      <trkpt lat="43.30054" lon="1.98673">
        <ele>203.446091</ele>
        <time>2023-01-04T14:57:07.112Z</time>
      </trkpt>
      <trkpt lat="43.30046" lon="1.98684">
        <ele>203.430662</ele>
        <time>2023-01-04T14:57:10.114Z</time>
      </trkpt>
      <trkpt lat="43.30039" lon="1.98695">
        <ele>203.398944</ele>
        <time>2023-01-04T14:57:13.120Z</time>
      </trkpt>
      <trkpt lat="43.30031" lon="1.98705">
        <ele>203.368911</ele>
        <time>2023-01-04T14:57:16.114Z</time>
      </trkpt>
      <trkpt lat="43.30024" lon="1.98717">
        <ele>203.335632</ele>
        <time>2023-01-04T14:57:19.117Z</time>
      </trkpt>
      <trkpt lat="43.30016" lon="1.98729">
        <ele>203.302067</ele>
        <time>2023-01-04T14:57:22.111Z</time>
      </trkpt>
      <trkpt lat="43.30009" lon="1.9874">
        <ele>203.268617</ele>
        <time>2023-01-04T14:57:25.096Z</time>
      </trkpt>
      <trkpt lat="43.3" lon="1.98751">
        <ele>203.234543</ele>
        <time>2023-01-04T14:57:28.116Z</time>
      </trkpt>
      <trkpt lat="43.29991" lon="1.98763">
        <ele>203.198444</ele>
        <time>2023-01-04T14:57:31.100Z</time>
      </trkpt>
      <trkpt lat="43.29983" lon="1.98775">
        <ele>203.164084</ele>
        <time>2023-01-04T14:57:34.104Z</time>
      </trkpt>
      <trkpt lat="43.29975" lon="1.98787">
        <ele>203.128299</ele>
        <time>2023-01-04T14:57:37.102Z</time>
      </trkpt>
      <trkpt lat="43.29967" lon="1.988">
        <ele>203.092014</ele>
        <time>2023-01-04T14:57:40.101Z</time>
      </trkpt>
      <trkpt lat="43.29958" lon="1.98812">
        <ele>203.055285</ele>
        <time>2023-01-04T14:57:43.094Z</time>
      </trkpt>
      <trkpt lat="43.29949" lon="1.98824">
        <ele>203.01787</ele>
        <time>2023-01-04T14:57:46.099Z</time>
      </trkpt>
      <trkpt lat="43.2994" lon="1.98836">
        <ele>202.983104</ele>
        <time>2023-01-04T14:57:49.093Z</time>
      </trkpt>
      <trkpt lat="43.29932" lon="1.98847">
        <ele>202.948882</ele>
        <time>2023-01-04T14:57:52.093Z</time>
      </trkpt>
      <trkpt lat="43.29925" lon="1.98858">
        <ele>202.906774</ele>
        <time>2023-01-04T14:57:55.096Z</time>
      </trkpt>
      <trkpt lat="43.29919" lon="1.98867">
        <ele>202.849842</ele>
        <time>2023-01-04T14:57:58.124Z</time>
      </trkpt>
      <trkpt lat="43.29913" lon="1.98879">
        <ele>202.780837</ele>
        <time>2023-01-04T14:58:02.093Z</time>
      </trkpt>
      <trkpt lat="43.29907" lon="1.98889">
        <ele>202.723354</ele>
        <time>2023-01-04T14:58:05.093Z</time>
      </trkpt>
      <trkpt lat="43.29901" lon="1.98901">
        <ele>202.657293</ele>
        <time>2023-01-04T14:58:08.097Z</time>
      </trkpt>
      <trkpt lat="43.29894" lon="1.98911">
        <ele>202.590881</ele>
        <time>2023-01-04T14:58:11.091Z</time>
      </trkpt>
      <trkpt lat="43.29887" lon="1.98923">
        <ele>202.523735</ele>
        <time>2023-01-04T14:58:14.100Z</time>
      </trkpt>
      <trkpt lat="43.29881" lon="1.98936">
        <ele>202.4553</ele>
        <time>2023-01-04T14:58:17.115Z</time>
      </trkpt>
      <trkpt lat="43.29875" lon="1.98949">
        <ele>202.382357</ele>
        <time>2023-01-04T14:58:20.106Z</time>
      </trkpt>
      <trkpt lat="43.2987" lon="1.98964">
        <ele>202.307115</ele>
        <time>2023-01-04T14:58:23.098Z</time>
      </trkpt>
      <trkpt lat="43.29867" lon="1.98979">
        <ele>202.232777</ele>
        <time>2023-01-04T14:58:26.106Z</time>
      </trkpt>
      <trkpt lat="43.29865" lon="1.98995">
        <ele>202.159323</ele>
        <time>2023-01-04T14:58:29.100Z</time>
      </trkpt>
      <trkpt lat="43.29863" lon="1.99009">
        <ele>202.096136</ele>
        <time>2023-01-04T14:58:32.102Z</time>
      </trkpt>
      <trkpt lat="43.29862" lon="1.99022">
        <ele>202.034013</ele>
        <time>2023-01-04T14:58:35.120Z</time>
      </trkpt>
      <trkpt lat="43.29861" lon="1.99035">
        <ele>201.973662</ele>
        <time>2023-01-04T14:58:38.100Z</time>
      </trkpt>
      <trkpt lat="43.29862" lon="1.9905">
        <ele>201.906591</ele>
        <time>2023-01-04T14:58:41.092Z</time>
      </trkpt>
      <trkpt lat="43.29862" lon="1.99066">
        <ele>201.83364</ele>
        <time>2023-01-04T14:58:44.099Z</time>
      </trkpt>
      <trkpt lat="43.29863" lon="1.99083">
        <ele>201.783351</ele>
        <time>2023-01-04T14:58:47.108Z</time>
      </trkpt>
      <trkpt lat="43.29861" lon="1.99096">
        <ele>201.763309</ele>
        <time>2023-01-04T14:58:50.089Z</time>
      </trkpt>
      <trkpt lat="43.29859" lon="1.99113">
        <ele>201.73797</ele>
        <time>2023-01-04T14:58:53.094Z</time>
      </trkpt>
      <trkpt lat="43.29855" lon="1.9913">
        <ele>201.712097</ele>
        <time>2023-01-04T14:58:56.097Z</time>
      </trkpt>
      <trkpt lat="43.2985" lon="1.99145">
        <ele>201.687478</ele>
        <time>2023-01-04T14:58:59.109Z</time>
      </trkpt>
      <trkpt lat="43.29844" lon="1.9916">
        <ele>201.662465</ele>
        <time>2023-01-04T14:59:02.107Z</time>
      </trkpt>
      <trkpt lat="43.29838" lon="1.99174">
        <ele>201.63783</ele>
        <time>2023-01-04T14:59:05.097Z</time>
      </trkpt>
      <trkpt lat="43.29832" lon="1.99188">
        <ele>201.614183</ele>
        <time>2023-01-04T14:59:08.112Z</time>
      </trkpt>
      <trkpt lat="43.29827" lon="1.99201">
        <ele>201.592371</ele>
        <time>2023-01-04T14:59:11.101Z</time>
      </trkpt>
      <trkpt lat="43.29823" lon="1.99212">
        <ele>201.573776</ele>
        <time>2023-01-04T14:59:14.116Z</time>
      </trkpt>
      <trkpt lat="43.29817" lon="1.99224">
        <ele>201.552984</ele>
        <time>2023-01-04T14:59:17.116Z</time>
      </trkpt>
      <trkpt lat="43.29812" lon="1.99238">
        <ele>201.530272</ele>
        <time>2023-01-04T14:59:20.100Z</time>
      </trkpt>
      <trkpt lat="43.29807" lon="1.99252">
        <ele>201.506901</ele>
        <time>2023-01-04T14:59:23.101Z</time>
      </trkpt>
      <trkpt lat="43.29803" lon="1.99267">
        <ele>201.483251</ele>
        <time>2023-01-04T14:59:26.104Z</time>
      </trkpt>
      <trkpt lat="43.29798" lon="1.99282">
        <ele>201.459227</ele>
        <time>2023-01-04T14:59:29.104Z</time>
      </trkpt>
      <trkpt lat="43.29794" lon="1.99297">
        <ele>201.43522</ele>
        <time>2023-01-04T14:59:32.101Z</time>
      </trkpt>
      <trkpt lat="43.29791" lon="1.99312">
        <ele>201.208464</ele>
        <time>2023-01-04T14:59:35.101Z</time>
      </trkpt>
      <trkpt lat="43.29787" lon="1.99325">
        <ele>200.966554</ele>
        <time>2023-01-04T14:59:38.120Z</time>
      </trkpt>
      <trkpt lat="43.29784" lon="1.99339">
        <ele>200.713827</ele>
        <time>2023-01-04T14:59:42.100Z</time>
      </trkpt>
      <trkpt lat="43.29783" lon="1.99352">
        <ele>200.489393</ele>
        <time>2023-01-04T14:59:52.099Z</time>
      </trkpt>
      <trkpt lat="43.29776" lon="1.99361">
        <ele>200.243499</ele>
        <time>2023-01-04T15:00:01.101Z</time>
      </trkpt>
      <trkpt lat="43.29772" lon="1.99375">
        <ele>199.993336</ele>
        <time>2023-01-04T15:00:05.099Z</time>
      </trkpt>
      <trkpt lat="43.2977" lon="1.99389">
        <ele>199.739964</ele>
        <time>2023-01-04T15:00:09.108Z</time>
      </trkpt>
      <trkpt lat="43.29767" lon="1.99402">
        <ele>199.512269</ele>
        <time>2023-01-04T15:00:12.092Z</time>
      </trkpt>
      <trkpt lat="43.29764" lon="1.99416">
        <ele>199.250808</ele>
        <time>2023-01-04T15:00:15.093Z</time>
      </trkpt>
      <trkpt lat="43.2976" lon="1.99431">
        <ele>198.980383</ele>
        <time>2023-01-04T15:00:18.118Z</time>
      </trkpt>
      <trkpt lat="43.29755" lon="1.99447">
        <ele>198.685384</ele>
        <time>2023-01-04T15:00:21.092Z</time>
      </trkpt>
      <trkpt lat="43.29752" lon="1.99462">
        <ele>198.400955</ele>
        <time>2023-01-04T15:00:24.114Z</time>
      </trkpt>
      <trkpt lat="43.2975" lon="1.99475">
        <ele>198.174007</ele>
        <time>2023-01-04T15:00:28.109Z</time>
      </trkpt>
      <trkpt lat="43.29749" lon="1.99501">
        <ele>197.729585</ele>
        <time>2023-01-04T15:01:30.094Z</time>
      </trkpt>
      <trkpt lat="43.29746" lon="1.99515">
        <ele>197.475184</ele>
        <time>2023-01-04T15:01:33.103Z</time>
      </trkpt>
      <trkpt lat="43.29743" lon="1.99526">
        <ele>197.256575</ele>
        <time>2023-01-04T15:01:36.088Z</time>
      </trkpt>
      <trkpt lat="43.29738" lon="1.9954">
        <ele>197.079607</ele>
        <time>2023-01-04T15:01:39.111Z</time>
      </trkpt>
      <trkpt lat="43.29734" lon="1.99555">
        <ele>196.947905</ele>
        <time>2023-01-04T15:01:42.113Z</time>
      </trkpt>
      <trkpt lat="43.2973" lon="1.99572">
        <ele>196.795827</ele>
        <time>2023-01-04T15:01:45.112Z</time>
      </trkpt>
      <trkpt lat="43.29727" lon="1.99585">
        <ele>196.680476</ele>
        <time>2023-01-04T15:01:47.104Z</time>
      </trkpt>
      <trkpt lat="43.29724" lon="1.99598">
        <ele>196.568409</ele>
        <time>2023-01-04T15:01:49.104Z</time>
      </trkpt>
      <trkpt lat="43.2972" lon="1.99612">
        <ele>196.450217</ele>
        <time>2023-01-04T15:01:51.098Z</time>
      </trkpt>
      <trkpt lat="43.29717" lon="1.99625">
        <ele>196.336877</ele>
        <time>2023-01-04T15:01:53.101Z</time>
      </trkpt>
      <trkpt lat="43.29714" lon="1.99638">
        <ele>196.219971</ele>
        <time>2023-01-04T15:01:55.094Z</time>
      </trkpt>
      <trkpt lat="43.29711" lon="1.99652">
        <ele>196.100444</ele>
        <time>2023-01-04T15:01:57.120Z</time>
      </trkpt>
      <trkpt lat="43.29707" lon="1.99666">
        <ele>195.977233</ele>
        <time>2023-01-04T15:01:59.098Z</time>
      </trkpt>
      <trkpt lat="43.29703" lon="1.9968">
        <ele>195.85332</ele>
        <time>2023-01-04T15:02:01.101Z</time>
      </trkpt>
      <trkpt lat="43.297" lon="1.99694">
        <ele>195.730889</ele>
        <time>2023-01-04T15:02:03.101Z</time>
      </trkpt>
      <trkpt lat="43.29696" lon="1.99708">
        <ele>195.608925</ele>
        <time>2023-01-04T15:02:05.107Z</time>
      </trkpt>
      <trkpt lat="43.29692" lon="1.99721">
        <ele>195.491628</ele>
        <time>2023-01-04T15:02:07.118Z</time>
      </trkpt>
      <trkpt lat="43.29689" lon="1.99735">
        <ele>195.372004</ele>
        <time>2023-01-04T15:02:09.102Z</time>
      </trkpt>
      <trkpt lat="43.29685" lon="1.99747">
        <ele>195.260342</ele>
        <time>2023-01-04T15:02:11.103Z</time>
      </trkpt>
      <trkpt lat="43.29682" lon="1.99759">
        <ele>195.157638</ele>
        <time>2023-01-04T15:02:13.120Z</time>
      </trkpt>
      <trkpt lat="43.29679" lon="1.99771">
        <ele>195.061723</ele>
        <time>2023-01-04T15:02:15.114Z</time>
      </trkpt>
      <trkpt lat="43.29675" lon="1.99788">
        <ele>194.940201</ele>
        <time>2023-01-04T15:02:18.096Z</time>
      </trkpt>
      <trkpt lat="43.29672" lon="1.998">
        <ele>194.854175</ele>
        <time>2023-01-04T15:02:20.103Z</time>
      </trkpt>
      <trkpt lat="43.29669" lon="1.99812">
        <ele>194.763072</ele>
        <time>2023-01-04T15:02:22.098Z</time>
      </trkpt>
      <trkpt lat="43.29667" lon="1.99825">
        <ele>194.674819</ele>
        <time>2023-01-04T15:02:24.129Z</time>
      </trkpt>
      <trkpt lat="43.29663" lon="1.99838">
        <ele>194.581433</ele>
        <time>2023-01-04T15:02:26.119Z</time>
      </trkpt>
      <trkpt lat="43.2966" lon="1.9985">
        <ele>194.488692</ele>
        <time>2023-01-04T15:02:28.121Z</time>
      </trkpt>
      <trkpt lat="43.29656" lon="1.99863">
        <ele>194.392341</ele>
        <time>2023-01-04T15:02:30.107Z</time>
      </trkpt>
      <trkpt lat="43.29653" lon="1.99875">
        <ele>194.306023</ele>
        <time>2023-01-04T15:02:32.100Z</time>
      </trkpt>
      <trkpt lat="43.2965" lon="1.99888">
        <ele>194.212344</ele>
        <time>2023-01-04T15:02:34.135Z</time>
      </trkpt>
      <trkpt lat="43.29645" lon="1.99901">
        <ele>194.116901</ele>
        <time>2023-01-04T15:02:36.120Z</time>
      </trkpt>
      <trkpt lat="43.2964" lon="1.99912">
        <ele>194.027917</ele>
        <time>2023-01-04T15:02:38.120Z</time>
      </trkpt>
      <trkpt lat="43.29637" lon="1.99924">
        <ele>193.942893</ele>
        <time>2023-01-04T15:02:40.120Z</time>
      </trkpt>
      <trkpt lat="43.29633" lon="1.9994">
        <ele>193.825027</ele>
        <time>2023-01-04T15:02:43.102Z</time>
      </trkpt>
      <trkpt lat="43.2963" lon="1.99958">
        <ele>193.699631</ele>
        <time>2023-01-04T15:02:46.123Z</time>
      </trkpt>
      <trkpt lat="43.29627" lon="1.99971">
        <ele>193.609416</ele>
        <time>2023-01-04T15:02:48.103Z</time>
      </trkpt>
      <trkpt lat="43.29624" lon="1.99982">
        <ele>193.524688</ele>
        <time>2023-01-04T15:02:50.107Z</time>
      </trkpt>
      <trkpt lat="43.29621" lon="1.99995">
        <ele>193.43613</ele>
        <time>2023-01-04T15:02:52.120Z</time>
      </trkpt>
      <trkpt lat="43.29617" lon="2.00012">
        <ele>193.464043</ele>
        <time>2023-01-04T15:02:55.127Z</time>
      </trkpt>
      <trkpt lat="43.29614" lon="2.00025">
        <ele>193.503234</ele>
        <time>2023-01-04T15:02:57.111Z</time>
      </trkpt>
      <trkpt lat="43.29611" lon="2.00037">
        <ele>193.541259</ele>
        <time>2023-01-04T15:02:59.116Z</time>
      </trkpt>
      <trkpt lat="43.29607" lon="2.0005">
        <ele>193.580132</ele>
        <time>2023-01-04T15:03:01.096Z</time>
      </trkpt>
      <trkpt lat="43.29605" lon="2.00062">
        <ele>193.616844</ele>
        <time>2023-01-04T15:03:03.118Z</time>
      </trkpt>
      <trkpt lat="43.29602" lon="2.00079">
        <ele>193.669471</ele>
        <time>2023-01-04T15:03:06.112Z</time>
      </trkpt>
      <trkpt lat="43.29598" lon="2.00091">
        <ele>193.707378</ele>
        <time>2023-01-04T15:03:08.104Z</time>
      </trkpt>
      <trkpt lat="43.29595" lon="2.00103">
        <ele>193.744582</ele>
        <time>2023-01-04T15:03:10.101Z</time>
      </trkpt>
      <trkpt lat="43.29591" lon="2.00116">
        <ele>193.785122</ele>
        <time>2023-01-04T15:03:12.101Z</time>
      </trkpt>
      <trkpt lat="43.29588" lon="2.00128">
        <ele>193.824664</ele>
        <time>2023-01-04T15:03:14.092Z</time>
      </trkpt>
      <trkpt lat="43.29582" lon="2.00146">
        <ele>193.882982</ele>
        <time>2023-01-04T15:03:17.116Z</time>
      </trkpt>
      <trkpt lat="43.29574" lon="2.00165">
        <ele>193.944309</ele>
        <time>2023-01-04T15:03:20.119Z</time>
      </trkpt>
      <trkpt lat="43.29569" lon="2.00177">
        <ele>193.985619</ele>
        <time>2023-01-04T15:03:22.099Z</time>
      </trkpt>
      <trkpt lat="43.29565" lon="2.00189">
        <ele>194.024663</ele>
        <time>2023-01-04T15:03:24.121Z</time>
      </trkpt>
      <trkpt lat="43.29558" lon="2.002">
        <ele>194.066666</ele>
        <time>2023-01-04T15:03:26.121Z</time>
      </trkpt>
      <trkpt lat="43.29552" lon="2.0021">
        <ele>194.105893</ele>
        <time>2023-01-04T15:03:28.100Z</time>
      </trkpt>
      <trkpt lat="43.29544" lon="2.00221">
        <ele>194.161045</ele>
        <time>2023-01-04T15:03:30.094Z</time>
      </trkpt>
      <trkpt lat="43.29537" lon="2.0023">
        <ele>194.255923</ele>
        <time>2023-01-04T15:03:32.098Z</time>
      </trkpt>
      <trkpt lat="43.29529" lon="2.00239">
        <ele>194.358788</ele>
        <time>2023-01-04T15:03:34.119Z</time>
      </trkpt>
      <trkpt lat="43.29522" lon="2.00247">
        <ele>194.447707</ele>
        <time>2023-01-04T15:03:36.118Z</time>
      </trkpt>
      <trkpt lat="43.29515" lon="2.00257">
        <ele>194.550507</ele>
        <time>2023-01-04T15:03:38.095Z</time>
      </trkpt>
      <trkpt lat="43.29506" lon="2.00266">
        <ele>194.654296</ele>
        <time>2023-01-04T15:03:40.120Z</time>
      </trkpt>
      <trkpt lat="43.29498" lon="2.00274">
        <ele>194.753015</ele>
        <time>2023-01-04T15:03:42.112Z</time>
      </trkpt>
      <trkpt lat="43.29491" lon="2.00283">
        <ele>194.848814</ele>
        <time>2023-01-04T15:03:44.103Z</time>
      </trkpt>
      <trkpt lat="43.29484" lon="2.00292">
        <ele>194.942919</ele>
        <time>2023-01-04T15:03:46.107Z</time>
      </trkpt>
      <trkpt lat="43.29476" lon="2.00301">
        <ele>195.046176</ele>
        <time>2023-01-04T15:03:48.100Z</time>
      </trkpt>
      <trkpt lat="43.29467" lon="2.00309">
        <ele>195.14779</ele>
        <time>2023-01-04T15:03:50.099Z</time>
      </trkpt>
      <trkpt lat="43.2946" lon="2.00319">
        <ele>195.248898</ele>
        <time>2023-01-04T15:03:52.110Z</time>
      </trkpt>
      <trkpt lat="43.29452" lon="2.00327">
        <ele>195.344225</ele>
        <time>2023-01-04T15:03:54.123Z</time>
      </trkpt>
      <trkpt lat="43.29445" lon="2.00336">
        <ele>195.435732</ele>
        <time>2023-01-04T15:03:56.140Z</time>
      </trkpt>
      <trkpt lat="43.29437" lon="2.00347">
        <ele>195.553836</ele>
        <time>2023-01-04T15:03:59.114Z</time>
      </trkpt>
      <trkpt lat="43.29429" lon="2.00355">
        <ele>195.643311</ele>
        <time>2023-01-04T15:04:01.098Z</time>
      </trkpt>
      <trkpt lat="43.29422" lon="2.00363">
        <ele>195.737702</ele>
        <time>2023-01-04T15:04:03.102Z</time>
      </trkpt>
      <trkpt lat="43.29415" lon="2.00372">
        <ele>195.83303</ele>
        <time>2023-01-04T15:04:05.108Z</time>
      </trkpt>
      <trkpt lat="43.29407" lon="2.0038">
        <ele>195.897369</ele>
        <time>2023-01-04T15:04:07.102Z</time>
      </trkpt>
      <trkpt lat="43.294" lon="2.00388">
        <ele>195.844511</ele>
        <time>2023-01-04T15:04:09.095Z</time>
      </trkpt>
      <trkpt lat="43.2939" lon="2.004">
        <ele>195.770619</ele>
        <time>2023-01-04T15:04:12.096Z</time>
      </trkpt>
      <trkpt lat="43.29382" lon="2.00412">
        <ele>195.702399</ele>
        <time>2023-01-04T15:04:15.124Z</time>
      </trkpt>
      <trkpt lat="43.29373" lon="2.00425">
        <ele>195.629763</ele>
        <time>2023-01-04T15:04:18.103Z</time>
      </trkpt>
      <trkpt lat="43.29365" lon="2.0044">
        <ele>195.553138</ele>
        <time>2023-01-04T15:04:21.093Z</time>
      </trkpt>
      <trkpt lat="43.29361" lon="2.00451">
        <ele>195.500996</ele>
        <time>2023-01-04T15:04:23.107Z</time>
      </trkpt>
      <trkpt lat="43.29355" lon="2.00467">
        <ele>195.424506</ele>
        <time>2023-01-04T15:04:26.093Z</time>
      </trkpt>
      <trkpt lat="43.29348" lon="2.00483">
        <ele>195.352157</ele>
        <time>2023-01-04T15:04:29.106Z</time>
      </trkpt>
      <trkpt lat="43.2934" lon="2.00496">
        <ele>195.280599</ele>
        <time>2023-01-04T15:04:32.118Z</time>
      </trkpt>
      <trkpt lat="43.29333" lon="2.00509">
        <ele>195.213633</ele>
        <time>2023-01-04T15:04:35.110Z</time>
      </trkpt>
      <trkpt lat="43.29329" lon="2.00522">
        <ele>195.156997</ele>
        <time>2023-01-04T15:04:38.106Z</time>
      </trkpt>
      <trkpt lat="43.29326" lon="2.00535">
        <ele>195.097574</ele>
        <time>2023-01-04T15:04:42.103Z</time>
      </trkpt>
      <trkpt lat="43.29323" lon="2.00551">
        <ele>195.033085</ele>
        <time>2023-01-04T15:04:47.100Z</time>
      </trkpt>
      <trkpt lat="43.29319" lon="2.00565">
        <ele>194.967046</ele>
        <time>2023-01-04T15:04:50.139Z</time>
      </trkpt>
      <trkpt lat="43.29315" lon="2.00577">
        <ele>194.914259</ele>
        <time>2023-01-04T15:04:52.113Z</time>
      </trkpt>
      <trkpt lat="43.29311" lon="2.0059">
        <ele>194.803758</ele>
        <time>2023-01-04T15:04:54.114Z</time>
      </trkpt>
      <trkpt lat="43.29308" lon="2.00603">
        <ele>194.655208</ele>
        <time>2023-01-04T15:04:56.104Z</time>
      </trkpt>
      <trkpt lat="43.29303" lon="2.00616">
        <ele>194.500853</ele>
        <time>2023-01-04T15:04:58.116Z</time>
      </trkpt>
      <trkpt lat="43.29298" lon="2.00628">
        <ele>194.347894</ele>
        <time>2023-01-04T15:05:00.100Z</time>
      </trkpt>
      <trkpt lat="43.29294" lon="2.0064">
        <ele>194.20001</ele>
        <time>2023-01-04T15:05:02.101Z</time>
      </trkpt>
      <trkpt lat="43.29289" lon="2.00653">
        <ele>194.053392</ele>
        <time>2023-01-04T15:05:04.118Z</time>
      </trkpt>
      <trkpt lat="43.29282" lon="2.00669">
        <ele>193.848577</ele>
        <time>2023-01-04T15:05:07.112Z</time>
      </trkpt>
      <trkpt lat="43.29279" lon="2.00681">
        <ele>193.710085</ele>
        <time>2023-01-04T15:05:09.102Z</time>
      </trkpt>
      <trkpt lat="43.29274" lon="2.00693">
        <ele>193.561829</ele>
        <time>2023-01-04T15:05:11.102Z</time>
      </trkpt>
      <trkpt lat="43.2927" lon="2.00706">
        <ele>193.41232</ele>
        <time>2023-01-04T15:05:13.096Z</time>
      </trkpt>
      <trkpt lat="43.29266" lon="2.00718">
        <ele>193.27269</ele>
        <time>2023-01-04T15:05:15.109Z</time>
      </trkpt>
      <trkpt lat="43.29261" lon="2.00729">
        <ele>193.131318</ele>
        <time>2023-01-04T15:05:17.115Z</time>
      </trkpt>
      <trkpt lat="43.29257" lon="2.0074">
        <ele>192.993788</ele>
        <time>2023-01-04T15:05:19.104Z</time>
      </trkpt>
      <trkpt lat="43.29253" lon="2.00752">
        <ele>192.853331</ele>
        <time>2023-01-04T15:05:21.102Z</time>
      </trkpt>
      <trkpt lat="43.29249" lon="2.00763">
        <ele>192.715865</ele>
        <time>2023-01-04T15:05:23.092Z</time>
      </trkpt>
      <trkpt lat="43.29244" lon="2.00775">
        <ele>192.57413</ele>
        <time>2023-01-04T15:05:25.100Z</time>
      </trkpt>
      <trkpt lat="43.2924" lon="2.00787">
        <ele>192.429144</ele>
        <time>2023-01-04T15:05:27.100Z</time>
      </trkpt>
      <trkpt lat="43.29236" lon="2.00799">
        <ele>192.282227</ele>
        <time>2023-01-04T15:05:29.112Z</time>
      </trkpt>
      <trkpt lat="43.29231" lon="2.00811">
        <ele>192.254673</ele>
        <time>2023-01-04T15:05:31.112Z</time>
      </trkpt>
      <trkpt lat="43.29227" lon="2.00825">
        <ele>192.309558</ele>
        <time>2023-01-04T15:05:33.117Z</time>
      </trkpt>
      <trkpt lat="43.29222" lon="2.00838">
        <ele>192.364539</ele>
        <time>2023-01-04T15:05:35.120Z</time>
      </trkpt>
      <trkpt lat="43.29218" lon="2.0085">
        <ele>192.416775</ele>
        <time>2023-01-04T15:05:37.101Z</time>
      </trkpt>
      <trkpt lat="43.29214" lon="2.00861">
        <ele>192.464237</ele>
        <time>2023-01-04T15:05:39.099Z</time>
      </trkpt>
      <trkpt lat="43.29211" lon="2.00873">
        <ele>192.512609</ele>
        <time>2023-01-04T15:05:41.121Z</time>
      </trkpt>
      <trkpt lat="43.29207" lon="2.00884">
        <ele>192.560498</ele>
        <time>2023-01-04T15:05:43.120Z</time>
      </trkpt>
      <trkpt lat="43.29203" lon="2.00896">
        <ele>192.608834</ele>
        <time>2023-01-04T15:05:45.111Z</time>
      </trkpt>
      <trkpt lat="43.29199" lon="2.00908">
        <ele>192.658331</ele>
        <time>2023-01-04T15:05:47.111Z</time>
      </trkpt>
      <trkpt lat="43.29195" lon="2.0092">
        <ele>192.710349</ele>
        <time>2023-01-04T15:05:49.118Z</time>
      </trkpt>
      <trkpt lat="43.29191" lon="2.00932">
        <ele>192.760629</ele>
        <time>2023-01-04T15:05:51.105Z</time>
      </trkpt>
      <trkpt lat="43.29188" lon="2.00944">
        <ele>192.809812</ele>
        <time>2023-01-04T15:05:53.101Z</time>
      </trkpt>
      <trkpt lat="43.29186" lon="2.00957">
        <ele>192.859465</ele>
        <time>2023-01-04T15:05:55.101Z</time>
      </trkpt>
      <trkpt lat="43.29183" lon="2.0097">
        <ele>192.911714</ele>
        <time>2023-01-04T15:05:57.105Z</time>
      </trkpt>
      <trkpt lat="43.29179" lon="2.00987">
        <ele>192.980259</ele>
        <time>2023-01-04T15:06:00.120Z</time>
      </trkpt>
      <trkpt lat="43.29176" lon="2.01004">
        <ele>193.047736</ele>
        <time>2023-01-04T15:06:03.102Z</time>
      </trkpt>
      <trkpt lat="43.29173" lon="2.01016">
        <ele>193.09709</ele>
        <time>2023-01-04T15:06:05.106Z</time>
      </trkpt>
      <trkpt lat="43.2917" lon="2.0103">
        <ele>193.150295</ele>
        <time>2023-01-04T15:06:07.121Z</time>
      </trkpt>
      <trkpt lat="43.29168" lon="2.01042">
        <ele>193.145526</ele>
        <time>2023-01-04T15:06:09.113Z</time>
      </trkpt>
      <trkpt lat="43.29165" lon="2.01056">
        <ele>193.111185</ele>
        <time>2023-01-04T15:06:11.109Z</time>
      </trkpt>
      <trkpt lat="43.29162" lon="2.01069">
        <ele>193.07657</ele>
        <time>2023-01-04T15:06:13.120Z</time>
      </trkpt>
      <trkpt lat="43.2916" lon="2.01082">
        <ele>193.043979</ele>
        <time>2023-01-04T15:06:15.116Z</time>
      </trkpt>
      <trkpt lat="43.29157" lon="2.01095">
        <ele>193.011443</ele>
        <time>2023-01-04T15:06:17.124Z</time>
      </trkpt>
      <trkpt lat="43.29154" lon="2.01107">
        <ele>192.97881</ele>
        <time>2023-01-04T15:06:19.097Z</time>
      </trkpt>
      <trkpt lat="43.29151" lon="2.01124">
        <ele>192.936427</ele>
        <time>2023-01-04T15:06:22.122Z</time>
      </trkpt>
      <trkpt lat="43.29148" lon="2.01139">
        <ele>192.898269</ele>
        <time>2023-01-04T15:06:25.118Z</time>
      </trkpt>
      <trkpt lat="43.29145" lon="2.01156">
        <ele>192.855013</ele>
        <time>2023-01-04T15:06:28.123Z</time>
      </trkpt>
      <trkpt lat="43.29143" lon="2.01168">
        <ele>192.824023</ele>
        <time>2023-01-04T15:06:30.112Z</time>
      </trkpt>
      <trkpt lat="43.2914" lon="2.01181">
        <ele>192.792707</ele>
        <time>2023-01-04T15:06:32.105Z</time>
      </trkpt>
      <trkpt lat="43.29138" lon="2.01193">
        <ele>192.760285</ele>
        <time>2023-01-04T15:06:34.122Z</time>
      </trkpt>
      <trkpt lat="43.29135" lon="2.01205">
        <ele>192.729763</ele>
        <time>2023-01-04T15:06:36.108Z</time>
      </trkpt>
      <trkpt lat="43.29132" lon="2.01218">
        <ele>192.69817</ele>
        <time>2023-01-04T15:06:38.102Z</time>
      </trkpt>
      <trkpt lat="43.29129" lon="2.01235">
        <ele>192.654158</ele>
        <time>2023-01-04T15:06:41.095Z</time>
      </trkpt>
      <trkpt lat="43.29125" lon="2.01251">
        <ele>192.612793</ele>
        <time>2023-01-04T15:06:44.119Z</time>
      </trkpt>
      <trkpt lat="43.2912" lon="2.01268">
        <ele>192.567711</ele>
        <time>2023-01-04T15:06:47.119Z</time>
      </trkpt>
      <trkpt lat="43.29117" lon="2.0128">
        <ele>192.494423</ele>
        <time>2023-01-04T15:06:49.120Z</time>
      </trkpt>
      <trkpt lat="43.29114" lon="2.01291">
        <ele>192.404239</ele>
        <time>2023-01-04T15:06:51.089Z</time>
      </trkpt>
      <trkpt lat="43.2911" lon="2.01303">
        <ele>192.307318</ele>
        <time>2023-01-04T15:06:53.093Z</time>
      </trkpt>
      <trkpt lat="43.29106" lon="2.01315">
        <ele>192.216821</ele>
        <time>2023-01-04T15:06:55.120Z</time>
      </trkpt>
      <trkpt lat="43.29103" lon="2.01327">
        <ele>192.120924</ele>
        <time>2023-01-04T15:06:57.104Z</time>
      </trkpt>
      <trkpt lat="43.291" lon="2.01339">
        <ele>192.026603</ele>
        <time>2023-01-04T15:06:59.098Z</time>
      </trkpt>
      <trkpt lat="43.29096" lon="2.01351">
        <ele>191.929479</ele>
        <time>2023-01-04T15:07:01.092Z</time>
      </trkpt>
      <trkpt lat="43.29092" lon="2.01363">
        <ele>191.837233</ele>
        <time>2023-01-04T15:07:03.106Z</time>
      </trkpt>
      <trkpt lat="43.29088" lon="2.01374">
        <ele>191.745586</ele>
        <time>2023-01-04T15:07:05.120Z</time>
      </trkpt>
      <trkpt lat="43.29085" lon="2.01386">
        <ele>191.653422</ele>
        <time>2023-01-04T15:07:07.121Z</time>
      </trkpt>
      <trkpt lat="43.29082" lon="2.01398">
        <ele>191.558545</ele>
        <time>2023-01-04T15:07:09.098Z</time>
      </trkpt>
      <trkpt lat="43.29078" lon="2.0141">
        <ele>191.467967</ele>
        <time>2023-01-04T15:07:11.099Z</time>
      </trkpt>
      <trkpt lat="43.29073" lon="2.01427">
        <ele>191.331976</ele>
        <time>2023-01-04T15:07:14.121Z</time>
      </trkpt>
      <trkpt lat="43.29069" lon="2.01444">
        <ele>191.199066</ele>
        <time>2023-01-04T15:07:17.118Z</time>
      </trkpt>
      <trkpt lat="43.29065" lon="2.01457">
        <ele>191.10283</ele>
        <time>2023-01-04T15:07:19.102Z</time>
      </trkpt>
      <trkpt lat="43.29062" lon="2.01468">
        <ele>191.00811</ele>
        <time>2023-01-04T15:07:21.098Z</time>
      </trkpt>
      <trkpt lat="43.29057" lon="2.01486">
        <ele>190.873859</ele>
        <time>2023-01-04T15:07:24.119Z</time>
      </trkpt>
      <trkpt lat="43.29051" lon="2.01502">
        <ele>190.736466</ele>
        <time>2023-01-04T15:07:27.119Z</time>
      </trkpt>
      <trkpt lat="43.29048" lon="2.01514">
        <ele>190.603765</ele>
        <time>2023-01-04T15:07:30.095Z</time>
      </trkpt>
      <trkpt lat="43.29043" lon="2.01527">
        <ele>190.452369</ele>
        <time>2023-01-04T15:07:33.098Z</time>
      </trkpt>
      <trkpt lat="43.29039" lon="2.01542">
        <ele>190.285716</ele>
        <time>2023-01-04T15:07:36.116Z</time>
      </trkpt>
      <trkpt lat="43.29033" lon="2.01558">
        <ele>190.106903</ele>
        <time>2023-01-04T15:07:39.102Z</time>
      </trkpt>
      <trkpt lat="43.29028" lon="2.01569">
        <ele>189.972492</ele>
        <time>2023-01-04T15:07:41.091Z</time>
      </trkpt>
      <trkpt lat="43.29022" lon="2.01585">
        <ele>189.790916</ele>
        <time>2023-01-04T15:07:44.102Z</time>
      </trkpt>
      <trkpt lat="43.29019" lon="2.016">
        <ele>189.626764</ele>
        <time>2023-01-04T15:07:47.119Z</time>
      </trkpt>
      <trkpt lat="43.29019" lon="2.01614">
        <ele>189.483072</ele>
        <time>2023-01-04T15:07:51.108Z</time>
      </trkpt>
      <trkpt lat="43.29015" lon="2.01627">
        <ele>189.341233</ele>
        <time>2023-01-04T15:07:54.110Z</time>
      </trkpt>
      <trkpt lat="43.29011" lon="2.01644">
        <ele>189.153919</ele>
        <time>2023-01-04T15:07:57.095Z</time>
      </trkpt>
      <trkpt lat="43.29007" lon="2.01657">
        <ele>189.015066</ele>
        <time>2023-01-04T15:07:59.123Z</time>
      </trkpt>
      <trkpt lat="43.29003" lon="2.0167">
        <ele>188.868613</ele>
        <time>2023-01-04T15:08:01.096Z</time>
      </trkpt>
      <trkpt lat="43.28999" lon="2.01683">
        <ele>188.720533</ele>
        <time>2023-01-04T15:08:03.119Z</time>
      </trkpt>
      <trkpt lat="43.28995" lon="2.01697">
        <ele>188.561361</ele>
        <time>2023-01-04T15:08:05.102Z</time>
      </trkpt>
      <trkpt lat="43.28992" lon="2.0171">
        <ele>188.42472</ele>
        <time>2023-01-04T15:08:07.091Z</time>
      </trkpt>
      <trkpt lat="43.28989" lon="2.01722">
        <ele>188.287665</ele>
        <time>2023-01-04T15:08:09.100Z</time>
      </trkpt>
      <trkpt lat="43.28986" lon="2.01734">
        <ele>188.1865</ele>
        <time>2023-01-04T15:08:11.110Z</time>
      </trkpt>
      <trkpt lat="43.2898" lon="2.0175">
        <ele>188.099774</ele>
        <time>2023-01-04T15:08:14.098Z</time>
      </trkpt>
      <trkpt lat="43.28976" lon="2.01766">
        <ele>188.015064</ele>
        <time>2023-01-04T15:08:17.098Z</time>
      </trkpt>
      <trkpt lat="43.2897" lon="2.0178">
        <ele>187.933769</ele>
        <time>2023-01-04T15:08:20.118Z</time>
      </trkpt>
      <trkpt lat="43.28967" lon="2.01794">
        <ele>187.861375</ele>
        <time>2023-01-04T15:08:23.106Z</time>
      </trkpt>
      <trkpt lat="43.28963" lon="2.01807">
        <ele>187.79111</ele>
        <time>2023-01-04T15:08:26.116Z</time>
      </trkpt>
      <trkpt lat="43.28959" lon="2.01819">
        <ele>187.726458</ele>
        <time>2023-01-04T15:08:29.098Z</time>
      </trkpt>
      <trkpt lat="43.28955" lon="2.01832">
        <ele>187.655495</ele>
        <time>2023-01-04T15:08:32.119Z</time>
      </trkpt>
      <trkpt lat="43.28951" lon="2.01845">
        <ele>187.584443</ele>
        <time>2023-01-04T15:08:35.097Z</time>
      </trkpt>
      <trkpt lat="43.28947" lon="2.01858">
        <ele>187.511472</ele>
        <time>2023-01-04T15:08:38.108Z</time>
      </trkpt>
      <trkpt lat="43.28942" lon="2.01872">
        <ele>187.432819</ele>
        <time>2023-01-04T15:08:41.110Z</time>
      </trkpt>
      <trkpt lat="43.28937" lon="2.01888">
        <ele>187.34956</ele>
        <time>2023-01-04T15:08:44.117Z</time>
      </trkpt>
      <trkpt lat="43.28932" lon="2.01903">
        <ele>187.263929</ele>
        <time>2023-01-04T15:08:47.105Z</time>
      </trkpt>
      <trkpt lat="43.28927" lon="2.01919">
        <ele>187.17803</ele>
        <time>2023-01-04T15:08:50.118Z</time>
      </trkpt>
      <trkpt lat="43.28922" lon="2.01936">
        <ele>187.088831</ele>
        <time>2023-01-04T15:08:53.114Z</time>
      </trkpt>
      <trkpt lat="43.28917" lon="2.01952">
        <ele>187.000909</ele>
        <time>2023-01-04T15:08:56.109Z</time>
      </trkpt>
      <trkpt lat="43.28912" lon="2.01968">
        <ele>186.876344</ele>
        <time>2023-01-04T15:08:59.113Z</time>
      </trkpt>
      <trkpt lat="43.28907" lon="2.01985">
        <ele>186.740788</ele>
        <time>2023-01-04T15:09:02.102Z</time>
      </trkpt>
      <trkpt lat="43.28903" lon="2.02">
        <ele>186.617947</ele>
        <time>2023-01-04T15:09:05.106Z</time>
      </trkpt>
      <trkpt lat="43.289" lon="2.02012">
        <ele>186.520007</ele>
        <time>2023-01-04T15:09:08.097Z</time>
      </trkpt>
      <trkpt lat="43.28895" lon="2.02028">
        <ele>186.395683</ele>
        <time>2023-01-04T15:09:12.120Z</time>
      </trkpt>
      <trkpt lat="43.28891" lon="2.02041">
        <ele>186.28669</ele>
        <time>2023-01-04T15:09:15.098Z</time>
      </trkpt>
      <trkpt lat="43.28887" lon="2.02057">
        <ele>186.160618</ele>
        <time>2023-01-04T15:09:18.108Z</time>
      </trkpt>
      <trkpt lat="43.28884" lon="2.02072">
        <ele>186.041546</ele>
        <time>2023-01-04T15:09:21.099Z</time>
      </trkpt>
      <trkpt lat="43.2888" lon="2.02089">
        <ele>185.90599</ele>
        <time>2023-01-04T15:09:24.108Z</time>
      </trkpt>
      <trkpt lat="43.28877" lon="2.02101">
        <ele>185.812304</ele>
        <time>2023-01-04T15:09:26.094Z</time>
      </trkpt>
      <trkpt lat="43.28873" lon="2.02112">
        <ele>185.718723</ele>
        <time>2023-01-04T15:09:28.105Z</time>
      </trkpt>
      <trkpt lat="43.28869" lon="2.02124">
        <ele>185.617111</ele>
        <time>2023-01-04T15:09:30.097Z</time>
      </trkpt>
      <trkpt lat="43.28866" lon="2.02137">
        <ele>185.514549</ele>
        <time>2023-01-04T15:09:32.105Z</time>
      </trkpt>
      <trkpt lat="43.28862" lon="2.02151">
        <ele>185.402278</ele>
        <time>2023-01-04T15:09:34.091Z</time>
      </trkpt>
      <trkpt lat="43.28857" lon="2.02164">
        <ele>185.291396</ele>
        <time>2023-01-04T15:09:36.101Z</time>
      </trkpt>
      <trkpt lat="43.28854" lon="2.02177">
        <ele>185.187068</ele>
        <time>2023-01-04T15:09:38.093Z</time>
      </trkpt>
      <trkpt lat="43.2885" lon="2.0219">
        <ele>185.149084</ele>
        <time>2023-01-04T15:09:40.097Z</time>
      </trkpt>
      <trkpt lat="43.28847" lon="2.02203">
        <ele>185.274782</ele>
        <time>2023-01-04T15:09:42.114Z</time>
      </trkpt>
      <trkpt lat="43.28844" lon="2.02215">
        <ele>185.399549</ele>
        <time>2023-01-04T15:09:44.111Z</time>
      </trkpt>
      <trkpt lat="43.28841" lon="2.02227">
        <ele>185.524335</ele>
        <time>2023-01-04T15:09:46.096Z</time>
      </trkpt>
      <trkpt lat="43.28837" lon="2.02239">
        <ele>185.652754</ele>
        <time>2023-01-04T15:09:48.106Z</time>
      </trkpt>
      <trkpt lat="43.28834" lon="2.02252">
        <ele>185.780662</ele>
        <time>2023-01-04T15:09:50.098Z</time>
      </trkpt>
      <trkpt lat="43.28831" lon="2.02265">
        <ele>185.910428</ele>
        <time>2023-01-04T15:09:52.096Z</time>
      </trkpt>
      <trkpt lat="43.28828" lon="2.02278">
        <ele>186.040195</ele>
        <time>2023-01-04T15:09:54.104Z</time>
      </trkpt>
      <trkpt lat="43.28825" lon="2.0229">
        <ele>186.167844</ele>
        <time>2023-01-04T15:09:56.102Z</time>
      </trkpt>
      <trkpt lat="43.28822" lon="2.02303">
        <ele>186.292348</ele>
        <time>2023-01-04T15:09:58.101Z</time>
      </trkpt>
      <trkpt lat="43.28819" lon="2.02314">
        <ele>186.413297</ele>
        <time>2023-01-04T15:10:00.107Z</time>
      </trkpt>
      <trkpt lat="43.28817" lon="2.02326">
        <ele>186.5321</ele>
        <time>2023-01-04T15:10:02.111Z</time>
      </trkpt>
      <trkpt lat="43.28814" lon="2.02344">
        <ele>186.711592</ele>
        <time>2023-01-04T15:10:05.102Z</time>
      </trkpt>
      <trkpt lat="43.28811" lon="2.02358">
        <ele>186.841856</ele>
        <time>2023-01-04T15:10:07.098Z</time>
      </trkpt>
      <trkpt lat="43.2881" lon="2.0237">
        <ele>186.963724</ele>
        <time>2023-01-04T15:10:09.107Z</time>
      </trkpt>
      <trkpt lat="43.28809" lon="2.02383">
        <ele>187.089188</ele>
        <time>2023-01-04T15:10:11.097Z</time>
      </trkpt>
      <trkpt lat="43.28807" lon="2.02396">
        <ele>187.216017</ele>
        <time>2023-01-04T15:10:13.104Z</time>
      </trkpt>
      <trkpt lat="43.28805" lon="2.02408">
        <ele>187.337159</ele>
        <time>2023-01-04T15:10:15.109Z</time>
      </trkpt>
      <trkpt lat="43.28803" lon="2.0242">
        <ele>187.456199</ele>
        <time>2023-01-04T15:10:17.109Z</time>
      </trkpt>
      <trkpt lat="43.28801" lon="2.02437">
        <ele>187.508226</ele>
        <time>2023-01-04T15:10:20.114Z</time>
      </trkpt>
      <trkpt lat="43.28801" lon="2.02451">
        <ele>187.528584</ele>
        <time>2023-01-04T15:10:23.102Z</time>
      </trkpt>
      <trkpt lat="43.288" lon="2.02465">
        <ele>187.547963</ele>
        <time>2023-01-04T15:10:26.115Z</time>
      </trkpt>
      <trkpt lat="43.28798" lon="2.02478">
        <ele>187.567746</ele>
        <time>2023-01-04T15:10:29.099Z</time>
      </trkpt>
      <trkpt lat="43.28795" lon="2.02493">
        <ele>187.58909</ele>
        <time>2023-01-04T15:10:32.105Z</time>
      </trkpt>
      <trkpt lat="43.28792" lon="2.02507">
        <ele>187.610713</ele>
        <time>2023-01-04T15:10:35.104Z</time>
      </trkpt>
      <trkpt lat="43.28788" lon="2.02521">
        <ele>187.632588</ele>
        <time>2023-01-04T15:10:38.114Z</time>
      </trkpt>
      <trkpt lat="43.28785" lon="2.02534">
        <ele>187.652186</ele>
        <time>2023-01-04T15:10:41.097Z</time>
      </trkpt>
      <trkpt lat="43.2878" lon="2.02548">
        <ele>187.674906</ele>
        <time>2023-01-04T15:10:44.116Z</time>
      </trkpt>
      <trkpt lat="43.28773" lon="2.02561">
        <ele>187.697289</ele>
        <time>2023-01-04T15:10:47.116Z</time>
      </trkpt>
      <trkpt lat="43.28766" lon="2.02575">
        <ele>187.722928</ele>
        <time>2023-01-04T15:10:50.103Z</time>
      </trkpt>
      <trkpt lat="43.28759" lon="2.0259">
        <ele>187.748338</ele>
        <time>2023-01-04T15:10:53.119Z</time>
      </trkpt>
      <trkpt lat="43.28752" lon="2.02606">
        <ele>187.774696</ele>
        <time>2023-01-04T15:10:56.113Z</time>
      </trkpt>
      <trkpt lat="43.28745" lon="2.0262">
        <ele>187.799558</ele>
        <time>2023-01-04T15:10:59.094Z</time>
      </trkpt>
      <trkpt lat="43.28739" lon="2.02634">
        <ele>187.822875</ele>
        <time>2023-01-04T15:11:02.103Z</time>
      </trkpt>
      <trkpt lat="43.28734" lon="2.02647">
        <ele>187.844176</ele>
        <time>2023-01-04T15:11:05.112Z</time>
      </trkpt>
      <trkpt lat="43.28729" lon="2.02661">
        <ele>187.911859</ele>
        <time>2023-01-04T15:11:08.115Z</time>
      </trkpt>
      <trkpt lat="43.28724" lon="2.02675">
        <ele>187.983909</ele>
        <time>2023-01-04T15:11:11.113Z</time>
      </trkpt>
      <trkpt lat="43.28719" lon="2.02691">
        <ele>188.058543</ele>
        <time>2023-01-04T15:11:14.116Z</time>
      </trkpt>
      <trkpt lat="43.28715" lon="2.02707">
        <ele>188.134125</ele>
        <time>2023-01-04T15:11:17.118Z</time>
      </trkpt>
      <trkpt lat="43.28711" lon="2.02723">
        <ele>188.207747</ele>
        <time>2023-01-04T15:11:20.101Z</time>
      </trkpt>
      <trkpt lat="43.28708" lon="2.0274">
        <ele>188.285014</ele>
        <time>2023-01-04T15:11:23.120Z</time>
      </trkpt>
      <trkpt lat="43.28704" lon="2.02756">
        <ele>188.356711</ele>
        <time>2023-01-04T15:11:26.118Z</time>
      </trkpt>
      <trkpt lat="43.28701" lon="2.02769">
        <ele>188.419512</ele>
        <time>2023-01-04T15:11:29.105Z</time>
      </trkpt>
      <trkpt lat="43.28698" lon="2.02782">
        <ele>188.479352</ele>
        <time>2023-01-04T15:11:32.112Z</time>
      </trkpt>
      <trkpt lat="43.28694" lon="2.02794">
        <ele>188.538409</ele>
        <time>2023-01-04T15:11:35.116Z</time>
      </trkpt>
      <trkpt lat="43.2869" lon="2.02806">
        <ele>188.595501</ele>
        <time>2023-01-04T15:11:38.105Z</time>
      </trkpt>
      <trkpt lat="43.28685" lon="2.02817">
        <ele>188.654414</ele>
        <time>2023-01-04T15:11:41.099Z</time>
      </trkpt>
      <trkpt lat="43.28682" lon="2.02829">
        <ele>188.71001</ele>
        <time>2023-01-04T15:11:44.119Z</time>
      </trkpt>
      <trkpt lat="43.2868" lon="2.02844">
        <ele>188.776399</ele>
        <time>2023-01-04T15:11:48.116Z</time>
      </trkpt>
      <trkpt lat="43.28679" lon="2.02857">
        <ele>188.831816</ele>
        <time>2023-01-04T15:11:51.105Z</time>
      </trkpt>
      <trkpt lat="43.28678" lon="2.02872">
        <ele>188.900145</ele>
        <time>2023-01-04T15:11:55.097Z</time>
      </trkpt>
      <trkpt lat="43.28678" lon="2.02886">
        <ele>188.887868</ele>
        <time>2023-01-04T15:11:58.110Z</time>
      </trkpt>
      <trkpt lat="43.28674" lon="2.02901">
        <ele>188.764716</ele>
        <time>2023-01-04T15:12:01.100Z</time>
      </trkpt>
      <trkpt lat="43.2867" lon="2.02918">
        <ele>188.628944</ele>
        <time>2023-01-04T15:12:04.122Z</time>
      </trkpt>
      <trkpt lat="43.28667" lon="2.0293">
        <ele>188.532122</ele>
        <time>2023-01-04T15:12:06.106Z</time>
      </trkpt>
      <trkpt lat="43.28664" lon="2.02948">
        <ele>188.395997</ele>
        <time>2023-01-04T15:12:09.117Z</time>
      </trkpt>
      <trkpt lat="43.2866" lon="2.02964">
        <ele>188.270133</ele>
        <time>2023-01-04T15:12:12.116Z</time>
      </trkpt>
      <trkpt lat="43.28657" lon="2.02979">
        <ele>188.147676</ele>
        <time>2023-01-04T15:12:15.118Z</time>
      </trkpt>
      <trkpt lat="43.28653" lon="2.02995">
        <ele>188.023803</ele>
        <time>2023-01-04T15:12:18.119Z</time>
      </trkpt>
      <trkpt lat="43.2865" lon="2.03011">
        <ele>187.897618</ele>
        <time>2023-01-04T15:12:21.100Z</time>
      </trkpt>
      <trkpt lat="43.28647" lon="2.03028">
        <ele>187.769699</ele>
        <time>2023-01-04T15:12:24.121Z</time>
      </trkpt>
      <trkpt lat="43.28644" lon="2.03044">
        <ele>187.645791</ele>
        <time>2023-01-04T15:12:27.099Z</time>
      </trkpt>
      <trkpt lat="43.28641" lon="2.0306">
        <ele>187.520152</ele>
        <time>2023-01-04T15:12:30.102Z</time>
      </trkpt>
      <trkpt lat="43.28637" lon="2.03077">
        <ele>187.385568</ele>
        <time>2023-01-04T15:12:33.111Z</time>
      </trkpt>
      <trkpt lat="43.28633" lon="2.03094">
        <ele>187.250783</ele>
        <time>2023-01-04T15:12:36.101Z</time>
      </trkpt>
      <trkpt lat="43.28629" lon="2.03111">
        <ele>187.11606</ele>
        <time>2023-01-04T15:12:39.118Z</time>
      </trkpt>
      <trkpt lat="43.28626" lon="2.03123">
        <ele>187.127171</ele>
        <time>2023-01-04T15:12:41.100Z</time>
      </trkpt>
      <trkpt lat="43.28623" lon="2.0314">
        <ele>187.295434</ele>
        <time>2023-01-04T15:12:44.119Z</time>
      </trkpt>
      <trkpt lat="43.2862" lon="2.03158">
        <ele>187.464026</ele>
        <time>2023-01-04T15:12:47.119Z</time>
      </trkpt>
      <trkpt lat="43.28617" lon="2.03175">
        <ele>187.62926</ele>
        <time>2023-01-04T15:12:50.113Z</time>
      </trkpt>
      <trkpt lat="43.28612" lon="2.0319">
        <ele>187.779494</ele>
        <time>2023-01-04T15:12:53.095Z</time>
      </trkpt>
      <trkpt lat="43.28608" lon="2.03206">
        <ele>187.935793</ele>
        <time>2023-01-04T15:12:56.131Z</time>
      </trkpt>
      <trkpt lat="43.28604" lon="2.03224">
        <ele>188.106315</ele>
        <time>2023-01-04T15:12:59.101Z</time>
      </trkpt>
      <trkpt lat="43.28601" lon="2.03236">
        <ele>188.223124</ele>
        <time>2023-01-04T15:13:01.110Z</time>
      </trkpt>
      <trkpt lat="43.28598" lon="2.03248">
        <ele>188.337932</ele>
        <time>2023-01-04T15:13:03.115Z</time>
      </trkpt>
      <trkpt lat="43.28596" lon="2.0326">
        <ele>188.453995</ele>
        <time>2023-01-04T15:13:05.108Z</time>
      </trkpt>
      <trkpt lat="43.28593" lon="2.03272">
        <ele>188.56908</ele>
        <time>2023-01-04T15:13:07.117Z</time>
      </trkpt>
      <trkpt lat="43.28589" lon="2.03284">
        <ele>188.688536</ele>
        <time>2023-01-04T15:13:09.109Z</time>
      </trkpt>
      <trkpt lat="43.28587" lon="2.03296">
        <ele>188.803532</ele>
        <time>2023-01-04T15:13:11.107Z</time>
      </trkpt>
      <trkpt lat="43.28585" lon="2.03308">
        <ele>188.918528</ele>
        <time>2023-01-04T15:13:13.119Z</time>
      </trkpt>
      <trkpt lat="43.2858" lon="2.03324">
        <ele>189.078929</ele>
        <time>2023-01-04T15:13:16.120Z</time>
      </trkpt>
      <trkpt lat="43.28574" lon="2.03339">
        <ele>189.23439</ele>
        <time>2023-01-04T15:13:19.106Z</time>
      </trkpt>
      <trkpt lat="43.2857" lon="2.03353">
        <ele>189.287752</ele>
        <time>2023-01-04T15:13:22.100Z</time>
      </trkpt>
      <trkpt lat="43.28564" lon="2.03369">
        <ele>188.892259</ele>
        <time>2023-01-04T15:13:25.113Z</time>
      </trkpt>
      <trkpt lat="43.28559" lon="2.03384">
        <ele>188.511009</ele>
        <time>2023-01-04T15:13:28.107Z</time>
      </trkpt>
      <trkpt lat="43.28553" lon="2.03394">
        <ele>188.230725</ele>
        <time>2023-01-04T15:13:30.097Z</time>
      </trkpt>
      <trkpt lat="43.28547" lon="2.03403">
        <ele>187.950276</ele>
        <time>2023-01-04T15:13:32.104Z</time>
      </trkpt>
      <trkpt lat="43.28544" lon="2.03415">
        <ele>187.662678</ele>
        <time>2023-01-04T15:13:34.121Z</time>
      </trkpt>
      <trkpt lat="43.28542" lon="2.03432">
        <ele>187.291938</ele>
        <time>2023-01-04T15:13:37.102Z</time>
      </trkpt>
      <trkpt lat="43.28539" lon="2.03446">
        <ele>186.949794</ele>
        <time>2023-01-04T15:13:40.097Z</time>
      </trkpt>
      <trkpt lat="43.28537" lon="2.03462">
        <ele>186.593439</ele>
        <time>2023-01-04T15:13:43.107Z</time>
      </trkpt>
      <trkpt lat="43.28533" lon="2.03474">
        <ele>186.299548</ele>
        <time>2023-01-04T15:13:45.098Z</time>
      </trkpt>
      <trkpt lat="43.28529" lon="2.03487">
        <ele>185.982434</ele>
        <time>2023-01-04T15:13:47.105Z</time>
      </trkpt>
      <trkpt lat="43.28524" lon="2.035">
        <ele>185.651167</ele>
        <time>2023-01-04T15:13:49.100Z</time>
      </trkpt>
      <trkpt lat="43.2852" lon="2.03515">
        <ele>185.293594</ele>
        <time>2023-01-04T15:13:51.099Z</time>
      </trkpt>
      <trkpt lat="43.28516" lon="2.03528">
        <ele>184.979659</ele>
        <time>2023-01-04T15:13:53.107Z</time>
      </trkpt>
      <trkpt lat="43.28513" lon="2.03542">
        <ele>184.647634</ele>
        <time>2023-01-04T15:13:55.111Z</time>
      </trkpt>
      <trkpt lat="43.28509" lon="2.03554">
        <ele>184.35356</ele>
        <time>2023-01-04T15:13:57.103Z</time>
      </trkpt>
      <trkpt lat="43.28505" lon="2.03566">
        <ele>184.056036</ele>
        <time>2023-01-04T15:13:59.119Z</time>
      </trkpt>
      <trkpt lat="43.28502" lon="2.03577">
        <ele>183.788337</ele>
        <time>2023-01-04T15:14:01.105Z</time>
      </trkpt>
      <trkpt lat="43.28498" lon="2.03589">
        <ele>183.705647</ele>
        <time>2023-01-04T15:14:03.104Z</time>
      </trkpt>
      <trkpt lat="43.28495" lon="2.03601">
        <ele>183.621853</ele>
        <time>2023-01-04T15:14:05.100Z</time>
      </trkpt>
      <trkpt lat="43.28492" lon="2.03614">
        <ele>183.536825</ele>
        <time>2023-01-04T15:14:07.117Z</time>
      </trkpt>
      <trkpt lat="43.28488" lon="2.03626">
        <ele>183.451267</ele>
        <time>2023-01-04T15:14:09.101Z</time>
      </trkpt>
      <trkpt lat="43.28485" lon="2.03638">
        <ele>183.370884</ele>
        <time>2023-01-04T15:14:11.111Z</time>
      </trkpt>
      <trkpt lat="43.28481" lon="2.0365">
        <ele>183.281572</ele>
        <time>2023-01-04T15:14:13.118Z</time>
      </trkpt>
      <trkpt lat="43.28477" lon="2.03662">
        <ele>183.197802</ele>
        <time>2023-01-04T15:14:15.102Z</time>
      </trkpt>
      <trkpt lat="43.28472" lon="2.03679">
        <ele>183.080991</ele>
        <time>2023-01-04T15:14:18.120Z</time>
      </trkpt>
      <trkpt lat="43.28468" lon="2.03695">
        <ele>182.971806</ele>
        <time>2023-01-04T15:14:21.100Z</time>
      </trkpt>
      <trkpt lat="43.28463" lon="2.03711">
        <ele>182.859933</ele>
        <time>2023-01-04T15:14:24.125Z</time>
      </trkpt>
      <trkpt lat="43.28457" lon="2.03728">
        <ele>182.738193</ele>
        <time>2023-01-04T15:14:27.118Z</time>
      </trkpt>
      <trkpt lat="43.28454" lon="2.0374">
        <ele>182.654796</ele>
        <time>2023-01-04T15:14:29.107Z</time>
      </trkpt>
      <trkpt lat="43.28451" lon="2.03753">
        <ele>182.568976</ele>
        <time>2023-01-04T15:14:31.107Z</time>
      </trkpt>
      <trkpt lat="43.28446" lon="2.03765">
        <ele>182.480118</ele>
        <time>2023-01-04T15:14:33.102Z</time>
      </trkpt>
      <trkpt lat="43.28442" lon="2.03777">
        <ele>182.392803</ele>
        <time>2023-01-04T15:14:35.114Z</time>
      </trkpt>
      <trkpt lat="43.28439" lon="2.03791">
        <ele>182.299095</ele>
        <time>2023-01-04T15:14:37.113Z</time>
      </trkpt>
      <trkpt lat="43.28435" lon="2.03804">
        <ele>182.209875</ele>
        <time>2023-01-04T15:14:39.105Z</time>
      </trkpt>
      <trkpt lat="43.28431" lon="2.03817">
        <ele>182.19471</ele>
        <time>2023-01-04T15:14:41.106Z</time>
      </trkpt>
      <trkpt lat="43.28426" lon="2.0383">
        <ele>182.19002</ele>
        <time>2023-01-04T15:14:43.101Z</time>
      </trkpt>
      <trkpt lat="43.28423" lon="2.03842">
        <ele>182.185565</ele>
        <time>2023-01-04T15:14:45.122Z</time>
      </trkpt>
      <trkpt lat="43.28419" lon="2.03854">
        <ele>182.180944</ele>
        <time>2023-01-04T15:14:47.100Z</time>
      </trkpt>
      <trkpt lat="43.28415" lon="2.03866">
        <ele>182.176488</ele>
        <time>2023-01-04T15:14:49.121Z</time>
      </trkpt>
      <trkpt lat="43.28411" lon="2.03878">
        <ele>182.17196</ele>
        <time>2023-01-04T15:14:51.105Z</time>
      </trkpt>
      <trkpt lat="43.28406" lon="2.03891">
        <ele>182.16719</ele>
        <time>2023-01-04T15:14:53.098Z</time>
      </trkpt>
      <trkpt lat="43.28402" lon="2.03904">
        <ele>182.162338</ele>
        <time>2023-01-04T15:14:55.099Z</time>
      </trkpt>
      <trkpt lat="43.28397" lon="2.03918">
        <ele>182.157339</ele>
        <time>2023-01-04T15:14:57.105Z</time>
      </trkpt>
      <trkpt lat="43.28393" lon="2.0393">
        <ele>182.152718</ele>
        <time>2023-01-04T15:14:59.106Z</time>
      </trkpt>
      <trkpt lat="43.2839" lon="2.03943">
        <ele>182.147834</ele>
        <time>2023-01-04T15:15:01.099Z</time>
      </trkpt>
      <trkpt lat="43.28385" lon="2.03957">
        <ele>182.142928</ele>
        <time>2023-01-04T15:15:03.117Z</time>
      </trkpt>
      <trkpt lat="43.28381" lon="2.0397">
        <ele>182.137933</ele>
        <time>2023-01-04T15:15:05.103Z</time>
      </trkpt>
      <trkpt lat="43.28377" lon="2.03983">
        <ele>182.133175</ele>
        <time>2023-01-04T15:15:07.125Z</time>
      </trkpt>
      <trkpt lat="43.28373" lon="2.03997">
        <ele>182.128207</ele>
        <time>2023-01-04T15:15:09.095Z</time>
      </trkpt>
      <trkpt lat="43.28368" lon="2.0401">
        <ele>182.123252</ele>
        <time>2023-01-04T15:15:11.093Z</time>
      </trkpt>
      <trkpt lat="43.28363" lon="2.04023">
        <ele>182.118289</ele>
        <time>2023-01-04T15:15:13.119Z</time>
      </trkpt>
      <trkpt lat="43.28359" lon="2.04035">
        <ele>182.142398</ele>
        <time>2023-01-04T15:15:15.109Z</time>
      </trkpt>
      <trkpt lat="43.28356" lon="2.04049">
        <ele>182.214107</ele>
        <time>2023-01-04T15:15:17.098Z</time>
      </trkpt>
      <trkpt lat="43.28352" lon="2.04061">
        <ele>182.283904</ele>
        <time>2023-01-04T15:15:19.109Z</time>
      </trkpt>
      <trkpt lat="43.28347" lon="2.04074">
        <ele>182.356311</ele>
        <time>2023-01-04T15:15:21.103Z</time>
      </trkpt>
      <trkpt lat="43.28343" lon="2.04087">
        <ele>182.429486</ele>
        <time>2023-01-04T15:15:23.119Z</time>
      </trkpt>
      <trkpt lat="43.28338" lon="2.041">
        <ele>182.506063</ele>
        <time>2023-01-04T15:15:25.130Z</time>
      </trkpt>
      <trkpt lat="43.28333" lon="2.04114">
        <ele>182.583683</ele>
        <time>2023-01-04T15:15:27.104Z</time>
      </trkpt>
      <trkpt lat="43.28328" lon="2.04126">
        <ele>182.656711</ele>
        <time>2023-01-04T15:15:29.121Z</time>
      </trkpt>
      <trkpt lat="43.28324" lon="2.04138">
        <ele>182.723745</ele>
        <time>2023-01-04T15:15:31.095Z</time>
      </trkpt>
      <trkpt lat="43.28318" lon="2.04154">
        <ele>182.811139</ele>
        <time>2023-01-04T15:15:34.094Z</time>
      </trkpt>
      <trkpt lat="43.28313" lon="2.04169">
        <ele>182.89717</ele>
        <time>2023-01-04T15:15:37.120Z</time>
      </trkpt>
      <trkpt lat="43.28307" lon="2.04184">
        <ele>182.984406</ele>
        <time>2023-01-04T15:15:40.100Z</time>
      </trkpt>
      <trkpt lat="43.28302" lon="2.042">
        <ele>183.076232</ele>
        <time>2023-01-04T15:15:43.115Z</time>
      </trkpt>
      <trkpt lat="43.28296" lon="2.04216">
        <ele>183.165311</ele>
        <time>2023-01-04T15:15:46.120Z</time>
      </trkpt>
      <trkpt lat="43.28291" lon="2.04231">
        <ele>183.247908</ele>
        <time>2023-01-04T15:15:49.105Z</time>
      </trkpt>
      <trkpt lat="43.28287" lon="2.04244">
        <ele>183.323111</ele>
        <time>2023-01-04T15:15:52.117Z</time>
      </trkpt>
      <trkpt lat="43.28283" lon="2.04256">
        <ele>183.37913</ele>
        <time>2023-01-04T15:15:55.097Z</time>
      </trkpt>
      <trkpt lat="43.2828" lon="2.04271">
        <ele>183.396207</ele>
        <time>2023-01-04T15:15:59.098Z</time>
      </trkpt>
      <trkpt lat="43.28279" lon="2.04284">
        <ele>183.41046</ele>
        <time>2023-01-04T15:16:02.115Z</time>
      </trkpt>
      <trkpt lat="43.28276" lon="2.04299">
        <ele>183.426904</ele>
        <time>2023-01-04T15:16:05.116Z</time>
      </trkpt>
      <trkpt lat="43.2827" lon="2.04311">
        <ele>183.443613</ele>
        <time>2023-01-04T15:16:08.116Z</time>
      </trkpt>
      <trkpt lat="43.28263" lon="2.04324">
        <ele>183.460738</ele>
        <time>2023-01-04T15:16:11.110Z</time>
      </trkpt>
      <trkpt lat="43.28257" lon="2.04339">
        <ele>183.478376</ele>
        <time>2023-01-04T15:16:14.106Z</time>
      </trkpt>
      <trkpt lat="43.28253" lon="2.04354">
        <ele>183.496495</ele>
        <time>2023-01-04T15:16:17.110Z</time>
      </trkpt>
      <trkpt lat="43.28248" lon="2.04369">
        <ele>183.513958</ele>
        <time>2023-01-04T15:16:20.104Z</time>
      </trkpt>
      <trkpt lat="43.28244" lon="2.04383">
        <ele>183.531058</ele>
        <time>2023-01-04T15:16:23.110Z</time>
      </trkpt>
      <trkpt lat="43.28239" lon="2.04398">
        <ele>183.548486</ele>
        <time>2023-01-04T15:16:26.103Z</time>
      </trkpt>
      <trkpt lat="43.28234" lon="2.04414">
        <ele>183.567642</ele>
        <time>2023-01-04T15:16:29.103Z</time>
      </trkpt>
      <trkpt lat="43.28227" lon="2.0443">
        <ele>183.587715</ele>
        <time>2023-01-04T15:16:32.110Z</time>
      </trkpt>
      <trkpt lat="43.28223" lon="2.04442">
        <ele>183.601855</ele>
        <time>2023-01-04T15:16:34.110Z</time>
      </trkpt>
      <trkpt lat="43.28219" lon="2.04455">
        <ele>183.617034</ele>
        <time>2023-01-04T15:16:36.101Z</time>
      </trkpt>
      <trkpt lat="43.28215" lon="2.04467">
        <ele>183.631828</ele>
        <time>2023-01-04T15:16:38.100Z</time>
      </trkpt>
      <trkpt lat="43.28211" lon="2.0448">
        <ele>183.645579</ele>
        <time>2023-01-04T15:16:40.124Z</time>
      </trkpt>
      <trkpt lat="43.28206" lon="2.04494">
        <ele>183.650671</ele>
        <time>2023-01-04T15:16:42.105Z</time>
      </trkpt>
      <trkpt lat="43.28202" lon="2.04508">
        <ele>183.655863</ele>
        <time>2023-01-04T15:16:44.107Z</time>
      </trkpt>
      <trkpt lat="43.28197" lon="2.04522">
        <ele>183.661117</ele>
        <time>2023-01-04T15:16:46.104Z</time>
      </trkpt>
      <trkpt lat="43.28193" lon="2.04536">
        <ele>183.666515</ele>
        <time>2023-01-04T15:16:48.101Z</time>
      </trkpt>
      <trkpt lat="43.28188" lon="2.04551">
        <ele>183.672107</ele>
        <time>2023-01-04T15:16:50.106Z</time>
      </trkpt>
      <trkpt lat="43.28183" lon="2.04566">
        <ele>183.677637</ele>
        <time>2023-01-04T15:16:52.102Z</time>
      </trkpt>
      <trkpt lat="43.28178" lon="2.04581">
        <ele>183.683229</ele>
        <time>2023-01-04T15:16:54.115Z</time>
      </trkpt>
      <trkpt lat="43.28172" lon="2.04595">
        <ele>183.688727</ele>
        <time>2023-01-04T15:16:56.100Z</time>
      </trkpt>
      <trkpt lat="43.28167" lon="2.0461">
        <ele>183.694408</ele>
        <time>2023-01-04T15:16:58.097Z</time>
      </trkpt>
      <trkpt lat="43.28162" lon="2.04625">
        <ele>183.700183</ele>
        <time>2023-01-04T15:17:00.112Z</time>
      </trkpt>
      <trkpt lat="43.28156" lon="2.0464">
        <ele>183.705854</ele>
        <time>2023-01-04T15:17:02.100Z</time>
      </trkpt>
      <trkpt lat="43.28151" lon="2.04654">
        <ele>183.711186</ele>
        <time>2023-01-04T15:17:04.102Z</time>
      </trkpt>
      <trkpt lat="43.28147" lon="2.04669">
        <ele>183.716691</ele>
        <time>2023-01-04T15:17:06.102Z</time>
      </trkpt>
      <trkpt lat="43.28142" lon="2.04684">
        <ele>183.722269</ele>
        <time>2023-01-04T15:17:08.106Z</time>
      </trkpt>
      <trkpt lat="43.28136" lon="2.04699">
        <ele>183.727827</ele>
        <time>2023-01-04T15:17:10.112Z</time>
      </trkpt>
      <trkpt lat="43.28131" lon="2.04713">
        <ele>183.764467</ele>
        <time>2023-01-04T15:17:12.101Z</time>
      </trkpt>
      <trkpt lat="43.28126" lon="2.04728">
        <ele>183.811186</ele>
        <time>2023-01-04T15:17:14.118Z</time>
      </trkpt>
      <trkpt lat="43.28121" lon="2.04742">
        <ele>183.855141</ele>
        <time>2023-01-04T15:17:16.106Z</time>
      </trkpt>
      <trkpt lat="43.28116" lon="2.04756">
        <ele>183.899097</ele>
        <time>2023-01-04T15:17:18.122Z</time>
      </trkpt>
      <trkpt lat="43.28112" lon="2.0477">
        <ele>183.940358</ele>
        <time>2023-01-04T15:17:20.118Z</time>
      </trkpt>
      <trkpt lat="43.28107" lon="2.04783">
        <ele>183.981874</ele>
        <time>2023-01-04T15:17:22.118Z</time>
      </trkpt>
      <trkpt lat="43.28103" lon="2.04795">
        <ele>184.018913</ele>
        <time>2023-01-04T15:17:24.118Z</time>
      </trkpt>
      <trkpt lat="43.28097" lon="2.04811">
        <ele>184.069347</ele>
        <time>2023-01-04T15:17:27.124Z</time>
      </trkpt>
      <trkpt lat="43.28091" lon="2.04826">
        <ele>184.11695</ele>
        <time>2023-01-04T15:17:30.105Z</time>
      </trkpt>
      <trkpt lat="43.28086" lon="2.04839">
        <ele>184.15949</ele>
        <time>2023-01-04T15:17:33.118Z</time>
      </trkpt>
      <trkpt lat="43.28081" lon="2.04852">
        <ele>184.200624</ele>
        <time>2023-01-04T15:17:36.097Z</time>
      </trkpt>
      <trkpt lat="43.28076" lon="2.04866">
        <ele>184.243837</ele>
        <time>2023-01-04T15:17:39.120Z</time>
      </trkpt>
      <trkpt lat="43.28071" lon="2.04882">
        <ele>184.294317</ele>
        <time>2023-01-04T15:17:42.119Z</time>
      </trkpt>
      <trkpt lat="43.28067" lon="2.04894">
        <ele>184.331441</ele>
        <time>2023-01-04T15:17:44.119Z</time>
      </trkpt>
      <trkpt lat="43.28063" lon="2.04907">
        <ele>184.36925</ele>
        <time>2023-01-04T15:17:46.119Z</time>
      </trkpt>
      <trkpt lat="43.28059" lon="2.0492">
        <ele>184.410192</ele>
        <time>2023-01-04T15:17:48.120Z</time>
      </trkpt>
      <trkpt lat="43.28056" lon="2.04934">
        <ele>184.261557</ele>
        <time>2023-01-04T15:17:50.110Z</time>
      </trkpt>
      <trkpt lat="43.28052" lon="2.04948">
        <ele>184.005272</ele>
        <time>2023-01-04T15:17:52.093Z</time>
      </trkpt>
      <trkpt lat="43.28052" lon="2.04962">
        <ele>183.76299</ele>
        <time>2023-01-04T15:17:54.097Z</time>
      </trkpt>
      <trkpt lat="43.28052" lon="2.04976">
        <ele>183.524448</ele>
        <time>2023-01-04T15:17:56.109Z</time>
      </trkpt>
      <trkpt lat="43.28051" lon="2.0499">
        <ele>183.293658</ele>
        <time>2023-01-04T15:17:58.102Z</time>
      </trkpt>
      <trkpt lat="43.28048" lon="2.05003">
        <ele>183.065967</ele>
        <time>2023-01-04T15:18:00.104Z</time>
      </trkpt>
      <trkpt lat="43.28041" lon="2.05012">
        <ele>182.84835</ele>
        <time>2023-01-04T15:18:02.105Z</time>
      </trkpt>
      <trkpt lat="43.2803" lon="2.05014">
        <ele>182.588015</ele>
        <time>2023-01-04T15:18:05.120Z</time>
      </trkpt>
      <trkpt lat="43.28022" lon="2.05024">
        <ele>182.325232</ele>
        <time>2023-01-04T15:18:10.119Z</time>
      </trkpt>
      <trkpt lat="43.28017" lon="2.05037">
        <ele>182.082111</ele>
        <time>2023-01-04T15:18:13.124Z</time>
      </trkpt>
      <trkpt lat="43.28012" lon="2.05054">
        <ele>181.776435</ele>
        <time>2023-01-04T15:18:16.117Z</time>
      </trkpt>
      <trkpt lat="43.28008" lon="2.05066">
        <ele>181.554444</ele>
        <time>2023-01-04T15:18:18.120Z</time>
      </trkpt>
      <trkpt lat="43.28004" lon="2.05079">
        <ele>181.311914</ele>
        <time>2023-01-04T15:18:20.121Z</time>
      </trkpt>
      <trkpt lat="43.28" lon="2.05092">
        <ele>181.077207</ele>
        <time>2023-01-04T15:18:22.115Z</time>
      </trkpt>
      <trkpt lat="43.27996" lon="2.05105">
        <ele>180.837108</ele>
        <time>2023-01-04T15:18:24.111Z</time>
      </trkpt>
      <trkpt lat="43.27992" lon="2.05116">
        <ele>180.625579</ele>
        <time>2023-01-04T15:18:26.108Z</time>
      </trkpt>
      <trkpt lat="43.27987" lon="2.05133">
        <ele>180.31862</ele>
        <time>2023-01-04T15:18:29.119Z</time>
      </trkpt>
      <trkpt lat="43.27982" lon="2.05149">
        <ele>180.235267</ele>
        <time>2023-01-04T15:18:32.096Z</time>
      </trkpt>
      <trkpt lat="43.27978" lon="2.05161">
        <ele>180.225325</ele>
        <time>2023-01-04T15:18:34.118Z</time>
      </trkpt>
      <trkpt lat="43.27974" lon="2.05172">
        <ele>180.215464</ele>
        <time>2023-01-04T15:18:36.101Z</time>
      </trkpt>
      <trkpt lat="43.27969" lon="2.05185">
        <ele>180.205127</ele>
        <time>2023-01-04T15:18:38.117Z</time>
      </trkpt>
      <trkpt lat="43.27965" lon="2.05197">
        <ele>180.194927</ele>
        <time>2023-01-04T15:18:40.102Z</time>
      </trkpt>
      <trkpt lat="43.27961" lon="2.05209">
        <ele>180.184613</ele>
        <time>2023-01-04T15:18:42.116Z</time>
      </trkpt>
      <trkpt lat="43.27957" lon="2.05221">
        <ele>180.174408</ele>
        <time>2023-01-04T15:18:44.112Z</time>
      </trkpt>
      <trkpt lat="43.27953" lon="2.05233">
        <ele>180.164503</ele>
        <time>2023-01-04T15:18:46.124Z</time>
      </trkpt>
      <trkpt lat="43.27948" lon="2.0525">
        <ele>180.150854</ele>
        <time>2023-01-04T15:18:49.095Z</time>
      </trkpt>
      <trkpt lat="43.27942" lon="2.05266">
        <ele>180.137469</ele>
        <time>2023-01-04T15:18:52.098Z</time>
      </trkpt>
      <trkpt lat="43.27937" lon="2.05282">
        <ele>180.124306</ele>
        <time>2023-01-04T15:18:55.116Z</time>
      </trkpt>
      <trkpt lat="43.27932" lon="2.05298">
        <ele>180.110971</ele>
        <time>2023-01-04T15:18:58.121Z</time>
      </trkpt>
      <trkpt lat="43.27928" lon="2.05309">
        <ele>180.101404</ele>
        <time>2023-01-04T15:19:00.103Z</time>
      </trkpt>
      <trkpt lat="43.27924" lon="2.05321">
        <ele>180.091771</ele>
        <time>2023-01-04T15:19:02.095Z</time>
      </trkpt>
      <trkpt lat="43.2792" lon="2.05332">
        <ele>180.081753</ele>
        <time>2023-01-04T15:19:04.101Z</time>
      </trkpt>
      <trkpt lat="43.27916" lon="2.05344">
        <ele>180.071755</ele>
        <time>2023-01-04T15:19:06.097Z</time>
      </trkpt>
      <trkpt lat="43.27911" lon="2.05356">
        <ele>180.062211</ele>
        <time>2023-01-04T15:19:08.100Z</time>
      </trkpt>
      <trkpt lat="43.27907" lon="2.05367">
        <ele>180.060996</ele>
        <time>2023-01-04T15:19:10.101Z</time>
      </trkpt>
      <trkpt lat="43.27903" lon="2.0538">
        <ele>180.066385</ele>
        <time>2023-01-04T15:19:12.106Z</time>
      </trkpt>
      <trkpt lat="43.27898" lon="2.05395">
        <ele>180.073136</ele>
        <time>2023-01-04T15:19:15.118Z</time>
      </trkpt>
      <trkpt lat="43.27894" lon="2.0541">
        <ele>180.079401</ele>
        <time>2023-01-04T15:19:18.096Z</time>
      </trkpt>
      <trkpt lat="43.27889" lon="2.05423">
        <ele>180.085106</ele>
        <time>2023-01-04T15:19:21.098Z</time>
      </trkpt>
      <trkpt lat="43.27885" lon="2.05434">
        <ele>180.089997</ele>
        <time>2023-01-04T15:19:24.114Z</time>
      </trkpt>
      <trkpt lat="43.27881" lon="2.05449">
        <ele>180.096301</ele>
        <time>2023-01-04T15:19:27.118Z</time>
      </trkpt>
      <trkpt lat="43.27876" lon="2.05464">
        <ele>180.102783</ele>
        <time>2023-01-04T15:19:30.103Z</time>
      </trkpt>
      <trkpt lat="43.27872" lon="2.05479">
        <ele>180.109366</ele>
        <time>2023-01-04T15:19:33.118Z</time>
      </trkpt>
      <trkpt lat="43.27867" lon="2.05496">
        <ele>180.116554</ele>
        <time>2023-01-04T15:19:36.104Z</time>
      </trkpt>
      <trkpt lat="43.27862" lon="2.05512">
        <ele>180.123435</ele>
        <time>2023-01-04T15:19:39.098Z</time>
      </trkpt>
      <trkpt lat="43.27857" lon="2.05527">
        <ele>180.130021</ele>
        <time>2023-01-04T15:19:42.102Z</time>
      </trkpt>
      <trkpt lat="43.27853" lon="2.05544">
        <ele>180.136939</ele>
        <time>2023-01-04T15:19:45.116Z</time>
      </trkpt>
      <trkpt lat="43.27849" lon="2.05555">
        <ele>180.141869</ele>
        <time>2023-01-04T15:19:47.111Z</time>
      </trkpt>
      <trkpt lat="43.27845" lon="2.05566">
        <ele>180.146859</ele>
        <time>2023-01-04T15:19:49.098Z</time>
      </trkpt>
      <trkpt lat="43.27841" lon="2.05577">
        <ele>180.151777</ele>
        <time>2023-01-04T15:19:51.096Z</time>
      </trkpt>
      <trkpt lat="43.27835" lon="2.05594">
        <ele>180.225874</ele>
        <time>2023-01-04T15:19:54.099Z</time>
      </trkpt>
      <trkpt lat="43.27831" lon="2.05612">
        <ele>180.396509</ele>
        <time>2023-01-04T15:19:57.115Z</time>
      </trkpt>
      <trkpt lat="43.27827" lon="2.05627">
        <ele>180.546864</ele>
        <time>2023-01-04T15:20:00.102Z</time>
      </trkpt>
      <trkpt lat="43.27821" lon="2.05643">
        <ele>180.701863</ele>
        <time>2023-01-04T15:20:03.101Z</time>
      </trkpt>
      <trkpt lat="43.27817" lon="2.05658">
        <ele>180.840428</ele>
        <time>2023-01-04T15:20:06.117Z</time>
      </trkpt>
      <trkpt lat="43.27814" lon="2.05671">
        <ele>180.967139</ele>
        <time>2023-01-04T15:20:09.117Z</time>
      </trkpt>
      <trkpt lat="43.2781" lon="2.05685">
        <ele>181.106967</ele>
        <time>2023-01-04T15:20:13.103Z</time>
      </trkpt>
      <trkpt lat="43.27807" lon="2.05698">
        <ele>181.223827</ele>
        <time>2023-01-04T15:20:16.107Z</time>
      </trkpt>
      <trkpt lat="43.27804" lon="2.05714">
        <ele>181.376137</ele>
        <time>2023-01-04T15:20:20.124Z</time>
      </trkpt>
      <trkpt lat="43.278" lon="2.0573">
        <ele>181.529042</ele>
        <time>2023-01-04T15:20:23.091Z</time>
      </trkpt>
      <trkpt lat="43.27797" lon="2.05746">
        <ele>181.67733</ele>
        <time>2023-01-04T15:20:26.096Z</time>
      </trkpt>
      <trkpt lat="43.27794" lon="2.05762">
        <ele>181.822691</ele>
        <time>2023-01-04T15:20:29.100Z</time>
      </trkpt>
      <trkpt lat="43.27791" lon="2.05777">
        <ele>181.967704</ele>
        <time>2023-01-04T15:20:32.095Z</time>
      </trkpt>
      <trkpt lat="43.27787" lon="2.05794">
        <ele>182.119962</ele>
        <time>2023-01-04T15:20:35.104Z</time>
      </trkpt>
      <trkpt lat="43.27785" lon="2.0581">
        <ele>182.275234</ele>
        <time>2023-01-04T15:20:38.108Z</time>
      </trkpt>
      <trkpt lat="43.27781" lon="2.05828">
        <ele>182.314297</ele>
        <time>2023-01-04T15:20:41.105Z</time>
      </trkpt>
      <trkpt lat="43.27778" lon="2.05845">
        <ele>182.144468</ele>
        <time>2023-01-04T15:20:44.110Z</time>
      </trkpt>
      <trkpt lat="43.27776" lon="2.05862">
        <ele>181.983003</ele>
        <time>2023-01-04T15:20:47.097Z</time>
      </trkpt>
      <trkpt lat="43.27774" lon="2.05877">
        <ele>181.832981</ele>
        <time>2023-01-04T15:20:50.111Z</time>
      </trkpt>
      <trkpt lat="43.27771" lon="2.05893">
        <ele>181.67516</ele>
        <time>2023-01-04T15:20:53.116Z</time>
      </trkpt>
      <trkpt lat="43.27769" lon="2.05905">
        <ele>181.556302</ele>
        <time>2023-01-04T15:20:55.101Z</time>
      </trkpt>
      <trkpt lat="43.27767" lon="2.05921">
        <ele>181.408606</ele>
        <time>2023-01-04T15:20:58.120Z</time>
      </trkpt>
      <trkpt lat="43.27765" lon="2.05937">
        <ele>181.253745</ele>
        <time>2023-01-04T15:21:01.091Z</time>
      </trkpt>
      <trkpt lat="43.27763" lon="2.05953">
        <ele>181.09388</ele>
        <time>2023-01-04T15:21:04.111Z</time>
      </trkpt>
      <trkpt lat="43.27761" lon="2.0597">
        <ele>180.927216</ele>
        <time>2023-01-04T15:21:07.104Z</time>
      </trkpt>
      <trkpt lat="43.27758" lon="2.0599">
        <ele>180.740617</ele>
        <time>2023-01-04T15:21:10.101Z</time>
      </trkpt>
      <trkpt lat="43.27756" lon="2.06007">
        <ele>180.575192</ele>
        <time>2023-01-04T15:21:13.119Z</time>
      </trkpt>
      <trkpt lat="43.27755" lon="2.06024">
        <ele>180.410883</ele>
        <time>2023-01-04T15:21:16.103Z</time>
      </trkpt>
      <trkpt lat="43.27753" lon="2.06042">
        <ele>180.235466</ele>
        <time>2023-01-04T15:21:19.104Z</time>
      </trkpt>
      <trkpt lat="43.2775" lon="2.0606">
        <ele>180.060317</ele>
        <time>2023-01-04T15:21:22.110Z</time>
      </trkpt>
      <trkpt lat="43.27748" lon="2.06073">
        <ele>180.016088</ele>
        <time>2023-01-04T15:21:24.122Z</time>
      </trkpt>
      <trkpt lat="43.27746" lon="2.06085">
        <ele>180.007633</ele>
        <time>2023-01-04T15:21:26.116Z</time>
      </trkpt>
      <trkpt lat="43.27744" lon="2.06098">
        <ele>179.998768</ele>
        <time>2023-01-04T15:21:28.107Z</time>
      </trkpt>
      <trkpt lat="43.27741" lon="2.0611">
        <ele>179.990132</ele>
        <time>2023-01-04T15:21:30.119Z</time>
      </trkpt>
      <trkpt lat="43.2774" lon="2.06128">
        <ele>179.97849</ele>
        <time>2023-01-04T15:21:33.137Z</time>
      </trkpt>
      <trkpt lat="43.27739" lon="2.0614">
        <ele>179.969893</ele>
        <time>2023-01-04T15:21:35.110Z</time>
      </trkpt>
      <trkpt lat="43.27736" lon="2.06158">
        <ele>179.957809</ele>
        <time>2023-01-04T15:21:38.115Z</time>
      </trkpt>
      <trkpt lat="43.27735" lon="2.06175">
        <ele>179.946486</ele>
        <time>2023-01-04T15:21:41.105Z</time>
      </trkpt>
      <trkpt lat="43.27732" lon="2.06188">
        <ele>179.936986</ele>
        <time>2023-01-04T15:21:44.102Z</time>
      </trkpt>
      <trkpt lat="43.2773" lon="2.06201">
        <ele>179.927989</ele>
        <time>2023-01-04T15:21:47.091Z</time>
      </trkpt>
      <trkpt lat="43.27728" lon="2.06217">
        <ele>179.917554</ele>
        <time>2023-01-04T15:21:50.110Z</time>
      </trkpt>
      <trkpt lat="43.27726" lon="2.06232">
        <ele>179.907388</ele>
        <time>2023-01-04T15:21:53.106Z</time>
      </trkpt>
      <trkpt lat="43.27725" lon="2.06249">
        <ele>179.89564</ele>
        <time>2023-01-04T15:21:56.106Z</time>
      </trkpt>
      <trkpt lat="43.27724" lon="2.06262">
        <ele>179.887072</ele>
        <time>2023-01-04T15:21:58.091Z</time>
      </trkpt>
      <trkpt lat="43.27722" lon="2.06274">
        <ele>179.878535</ele>
        <time>2023-01-04T15:22:00.113Z</time>
      </trkpt>
      <trkpt lat="43.27722" lon="2.06287">
        <ele>179.869931</ele>
        <time>2023-01-04T15:22:03.102Z</time>
      </trkpt>
      <trkpt lat="43.27718" lon="2.06302">
        <ele>179.85945</ele>
        <time>2023-01-04T15:22:06.120Z</time>
      </trkpt>
      <trkpt lat="43.27716" lon="2.06319">
        <ele>179.851983</ele>
        <time>2023-01-04T15:22:09.102Z</time>
      </trkpt>
      <trkpt lat="43.27714" lon="2.06336">
        <ele>179.845888</ele>
        <time>2023-01-04T15:22:12.101Z</time>
      </trkpt>
      <trkpt lat="43.27712" lon="2.06351">
        <ele>179.840407</ele>
        <time>2023-01-04T15:22:15.103Z</time>
      </trkpt>
      <trkpt lat="43.27709" lon="2.06369">
        <ele>179.834269</ele>
        <time>2023-01-04T15:22:18.102Z</time>
      </trkpt>
      <trkpt lat="43.27707" lon="2.06385">
        <ele>179.828447</ele>
        <time>2023-01-04T15:22:21.103Z</time>
      </trkpt>
      <trkpt lat="43.27705" lon="2.06402">
        <ele>179.82237</ele>
        <time>2023-01-04T15:22:24.119Z</time>
      </trkpt>
      <trkpt lat="43.27703" lon="2.06414">
        <ele>179.818077</ele>
        <time>2023-01-04T15:22:26.099Z</time>
      </trkpt>
      <trkpt lat="43.27701" lon="2.06427">
        <ele>179.813738</ele>
        <time>2023-01-04T15:22:28.117Z</time>
      </trkpt>
      <trkpt lat="43.27699" lon="2.06444">
        <ele>179.807524</ele>
        <time>2023-01-04T15:22:31.099Z</time>
      </trkpt>
      <trkpt lat="43.27698" lon="2.0646">
        <ele>179.802095</ele>
        <time>2023-01-04T15:22:34.118Z</time>
      </trkpt>
      <trkpt lat="43.27696" lon="2.06474">
        <ele>179.796992</ele>
        <time>2023-01-04T15:22:37.097Z</time>
      </trkpt>
      <trkpt lat="43.27694" lon="2.06489">
        <ele>179.79163</ele>
        <time>2023-01-04T15:22:40.101Z</time>
      </trkpt>
      <trkpt lat="43.27691" lon="2.06506">
        <ele>179.785715</ele>
        <time>2023-01-04T15:22:43.121Z</time>
      </trkpt>
      <trkpt lat="43.27689" lon="2.06522">
        <ele>179.779964</ele>
        <time>2023-01-04T15:22:46.106Z</time>
      </trkpt>
      <trkpt lat="43.27685" lon="2.06539">
        <ele>179.773935</ele>
        <time>2023-01-04T15:22:49.119Z</time>
      </trkpt>
      <trkpt lat="43.27685" lon="2.06552">
        <ele>179.751529</ele>
        <time>2023-01-04T15:22:51.107Z</time>
      </trkpt>
      <trkpt lat="43.27682" lon="2.06569">
        <ele>179.635036</ele>
        <time>2023-01-04T15:22:54.115Z</time>
      </trkpt>
      <trkpt lat="43.2768" lon="2.06582">
        <ele>179.549923</ele>
        <time>2023-01-04T15:22:56.111Z</time>
      </trkpt>
      <trkpt lat="43.27678" lon="2.06599">
        <ele>179.442408</ele>
        <time>2023-01-04T15:22:59.120Z</time>
      </trkpt>
      <trkpt lat="43.27676" lon="2.06612">
        <ele>179.359032</ele>
        <time>2023-01-04T15:23:01.113Z</time>
      </trkpt>
      <trkpt lat="43.27675" lon="2.06625">
        <ele>179.273072</ele>
        <time>2023-01-04T15:23:03.120Z</time>
      </trkpt>
      <trkpt lat="43.27672" lon="2.06637">
        <ele>179.191626</ele>
        <time>2023-01-04T15:23:05.103Z</time>
      </trkpt>
      <trkpt lat="43.27671" lon="2.06653">
        <ele>179.083939</ele>
        <time>2023-01-04T15:23:08.096Z</time>
      </trkpt>
      <trkpt lat="43.27668" lon="2.06668">
        <ele>178.988037</ele>
        <time>2023-01-04T15:23:11.108Z</time>
      </trkpt>
      <trkpt lat="43.27667" lon="2.06684">
        <ele>178.884601</ele>
        <time>2023-01-04T15:23:14.117Z</time>
      </trkpt>
      <trkpt lat="43.27665" lon="2.067">
        <ele>178.781166</ele>
        <time>2023-01-04T15:23:17.114Z</time>
      </trkpt>
      <trkpt lat="43.27663" lon="2.06717">
        <ele>178.665998</ele>
        <time>2023-01-04T15:23:20.119Z</time>
      </trkpt>
      <trkpt lat="43.27662" lon="2.06735">
        <ele>178.549554</ele>
        <time>2023-01-04T15:23:23.117Z</time>
      </trkpt>
      <trkpt lat="43.2766" lon="2.06748">
        <ele>178.466342</ele>
        <time>2023-01-04T15:23:25.120Z</time>
      </trkpt>
      <trkpt lat="43.27658" lon="2.0676">
        <ele>178.384053</ele>
        <time>2023-01-04T15:23:27.118Z</time>
      </trkpt>
      <trkpt lat="43.27655" lon="2.06777">
        <ele>178.27613</ele>
        <time>2023-01-04T15:23:30.106Z</time>
      </trkpt>
      <trkpt lat="43.27652" lon="2.06792">
        <ele>178.180115</ele>
        <time>2023-01-04T15:23:33.118Z</time>
      </trkpt>
      <trkpt lat="43.2765" lon="2.06808">
        <ele>178.224996</ele>
        <time>2023-01-04T15:23:36.101Z</time>
      </trkpt>
      <trkpt lat="43.27648" lon="2.06823">
        <ele>178.268806</ele>
        <time>2023-01-04T15:23:39.119Z</time>
      </trkpt>
      <trkpt lat="43.27646" lon="2.0684">
        <ele>178.314637</ele>
        <time>2023-01-04T15:23:42.099Z</time>
      </trkpt>
      <trkpt lat="43.27642" lon="2.06857">
        <ele>178.365763</ele>
        <time>2023-01-04T15:23:45.119Z</time>
      </trkpt>
      <trkpt lat="43.27638" lon="2.06875">
        <ele>178.416837</ele>
        <time>2023-01-04T15:23:48.120Z</time>
      </trkpt>
      <trkpt lat="43.27635" lon="2.06894">
        <ele>178.469948</ele>
        <time>2023-01-04T15:23:51.105Z</time>
      </trkpt>
      <trkpt lat="43.27633" lon="2.06907">
        <ele>178.506682</ele>
        <time>2023-01-04T15:23:53.101Z</time>
      </trkpt>
      <trkpt lat="43.27629" lon="2.06919">
        <ele>178.542965</ele>
        <time>2023-01-04T15:23:55.101Z</time>
      </trkpt>
      <trkpt lat="43.27625" lon="2.06931">
        <ele>178.579143</ele>
        <time>2023-01-04T15:23:57.098Z</time>
      </trkpt>
      <trkpt lat="43.27621" lon="2.06947">
        <ele>178.627343</ele>
        <time>2023-01-04T15:24:00.098Z</time>
      </trkpt>
      <trkpt lat="43.27615" lon="2.06963">
        <ele>178.674612</ele>
        <time>2023-01-04T15:24:03.104Z</time>
      </trkpt>
      <trkpt lat="43.27609" lon="2.06976">
        <ele>178.718866</ele>
        <time>2023-01-04T15:24:06.100Z</time>
      </trkpt>
      <trkpt lat="43.27604" lon="2.06988">
        <ele>178.75643</ele>
        <time>2023-01-04T15:24:09.096Z</time>
      </trkpt>
      <trkpt lat="43.27599" lon="2.07001">
        <ele>178.797146</ele>
        <time>2023-01-04T15:24:12.100Z</time>
      </trkpt>
      <trkpt lat="43.27595" lon="2.07013">
        <ele>178.833634</ele>
        <time>2023-01-04T15:24:15.111Z</time>
      </trkpt>
      <trkpt lat="43.2759" lon="2.07027">
        <ele>178.904292</ele>
        <time>2023-01-04T15:24:18.108Z</time>
      </trkpt>
      <trkpt lat="43.27583" lon="2.07042">
        <ele>179.014018</ele>
        <time>2023-01-04T15:24:21.119Z</time>
      </trkpt>
      <trkpt lat="43.27579" lon="2.07052">
        <ele>179.095746</ele>
        <time>2023-01-04T15:24:23.118Z</time>
      </trkpt>
      <trkpt lat="43.27572" lon="2.07067">
        <ele>179.209796</ele>
        <time>2023-01-04T15:24:25.119Z</time>
      </trkpt>
      <trkpt lat="43.27568" lon="2.07079">
        <ele>179.29913</ele>
        <time>2023-01-04T15:24:27.099Z</time>
      </trkpt>
      <trkpt lat="43.27563" lon="2.07092">
        <ele>179.392882</ele>
        <time>2023-01-04T15:24:29.119Z</time>
      </trkpt>
      <trkpt lat="43.27558" lon="2.07102">
        <ele>179.476701</ele>
        <time>2023-01-04T15:24:31.098Z</time>
      </trkpt>
      <trkpt lat="43.27552" lon="2.07119">
        <ele>179.599282</ele>
        <time>2023-01-04T15:24:34.111Z</time>
      </trkpt>
      <trkpt lat="43.27547" lon="2.07129">
        <ele>179.680996</ele>
        <time>2023-01-04T15:24:36.118Z</time>
      </trkpt>
      <trkpt lat="43.27542" lon="2.07141">
        <ele>179.770905</ele>
        <time>2023-01-04T15:24:38.102Z</time>
      </trkpt>
      <trkpt lat="43.27537" lon="2.07157">
        <ele>179.886358</ele>
        <time>2023-01-04T15:24:41.104Z</time>
      </trkpt>
      <trkpt lat="43.27532" lon="2.07169">
        <ele>179.977664</ele>
        <time>2023-01-04T15:24:43.097Z</time>
      </trkpt>
      <trkpt lat="43.27528" lon="2.0718">
        <ele>180.059689</ele>
        <time>2023-01-04T15:24:45.099Z</time>
      </trkpt>
      <trkpt lat="43.27522" lon="2.07191">
        <ele>180.146754</ele>
        <time>2023-01-04T15:24:47.106Z</time>
      </trkpt>
      <trkpt lat="43.27517" lon="2.07208">
        <ele>180.268446</ele>
        <time>2023-01-04T15:24:50.117Z</time>
      </trkpt>
      <trkpt lat="43.27514" lon="2.07225">
        <ele>180.383962</ele>
        <time>2023-01-04T15:24:53.111Z</time>
      </trkpt>
      <trkpt lat="43.27513" lon="2.0724">
        <ele>180.48252</ele>
        <time>2023-01-04T15:24:56.120Z</time>
      </trkpt>
      <trkpt lat="43.27513" lon="2.07253">
        <ele>180.557445</ele>
        <time>2023-01-04T15:24:59.116Z</time>
      </trkpt>
      <trkpt lat="43.27515" lon="2.07266">
        <ele>180.631634</ele>
        <time>2023-01-04T15:25:02.119Z</time>
      </trkpt>
      <trkpt lat="43.27518" lon="2.0728">
        <ele>180.710228</ele>
        <time>2023-01-04T15:25:05.105Z</time>
      </trkpt>
      <trkpt lat="43.27521" lon="2.07295">
        <ele>180.79525</ele>
        <time>2023-01-04T15:25:08.103Z</time>
      </trkpt>
      <trkpt lat="43.27525" lon="2.0731">
        <ele>180.882157</ele>
        <time>2023-01-04T15:25:11.108Z</time>
      </trkpt>
      <trkpt lat="43.27529" lon="2.07324">
        <ele>180.966212</ele>
        <time>2023-01-04T15:25:14.120Z</time>
      </trkpt>
      <trkpt lat="43.27533" lon="2.07338">
        <ele>181.049459</ele>
        <time>2023-01-04T15:25:17.118Z</time>
      </trkpt>
      <trkpt lat="43.27537" lon="2.07351">
        <ele>181.128992</ele>
        <time>2023-01-04T15:25:20.106Z</time>
      </trkpt>
      <trkpt lat="43.27542" lon="2.07366">
        <ele>181.217641</ele>
        <time>2023-01-04T15:25:23.123Z</time>
      </trkpt>
      <trkpt lat="43.27547" lon="2.0738">
        <ele>181.303973</ele>
        <time>2023-01-04T15:25:26.113Z</time>
      </trkpt>
      <trkpt lat="43.27552" lon="2.07393">
        <ele>181.38559</ele>
        <time>2023-01-04T15:25:29.103Z</time>
      </trkpt>
      <trkpt lat="43.27558" lon="2.07407">
        <ele>181.472701</ele>
        <time>2023-01-04T15:25:32.120Z</time>
      </trkpt>
      <trkpt lat="43.27564" lon="2.07422">
        <ele>181.568279</ele>
        <time>2023-01-04T15:25:35.111Z</time>
      </trkpt>
      <trkpt lat="43.2757" lon="2.07435">
        <ele>181.657039</ele>
        <time>2023-01-04T15:25:38.121Z</time>
      </trkpt>
      <trkpt lat="43.27578" lon="2.07449">
        <ele>181.752708</ele>
        <time>2023-01-04T15:25:41.106Z</time>
      </trkpt>
      <trkpt lat="43.27586" lon="2.07462">
        <ele>181.842318</ele>
        <time>2023-01-04T15:25:44.114Z</time>
      </trkpt>
      <trkpt lat="43.27591" lon="2.07472">
        <ele>181.945428</ele>
        <time>2023-01-04T15:25:46.117Z</time>
      </trkpt>
      <trkpt lat="43.27597" lon="2.07482">
        <ele>182.057139</ele>
        <time>2023-01-04T15:25:48.122Z</time>
      </trkpt>
      <trkpt lat="43.27602" lon="2.07497">
        <ele>182.207049</ele>
        <time>2023-01-04T15:25:51.101Z</time>
      </trkpt>
      <trkpt lat="43.27608" lon="2.07513">
        <ele>182.358078</ele>
        <time>2023-01-04T15:25:54.121Z</time>
      </trkpt>
      <trkpt lat="43.27612" lon="2.07529">
        <ele>182.506785</ele>
        <time>2023-01-04T15:25:57.106Z</time>
      </trkpt>
      <trkpt lat="43.27614" lon="2.07543">
        <ele>182.625661</ele>
        <time>2023-01-04T15:26:00.096Z</time>
      </trkpt>
      <trkpt lat="43.27616" lon="2.07555">
        <ele>182.735785</ele>
        <time>2023-01-04T15:26:03.100Z</time>
      </trkpt>
      <trkpt lat="43.27617" lon="2.07569">
        <ele>182.855059</ele>
        <time>2023-01-04T15:26:06.131Z</time>
      </trkpt>
      <trkpt lat="43.27618" lon="2.07583">
        <ele>182.985098</ele>
        <time>2023-01-04T15:26:09.103Z</time>
      </trkpt>
      <trkpt lat="43.27619" lon="2.07598">
        <ele>183.10958</ele>
        <time>2023-01-04T15:26:12.102Z</time>
      </trkpt>
      <trkpt lat="43.27616" lon="2.07612">
        <ele>183.236913</ele>
        <time>2023-01-04T15:26:15.106Z</time>
      </trkpt>
      <trkpt lat="43.27613" lon="2.07626">
        <ele>183.366454</ele>
        <time>2023-01-04T15:34:11.107Z</time>
      </trkpt>
      <trkpt lat="43.27613" lon="2.07641">
        <ele>183.496819</ele>
        <time>2023-01-04T15:34:15.107Z</time>
      </trkpt>
      <trkpt lat="43.27613" lon="2.07654">
        <ele>183.612404</ele>
        <time>2023-01-04T15:34:18.106Z</time>
      </trkpt>
      <trkpt lat="43.27612" lon="2.07668">
        <ele>183.73358</ele>
        <time>2023-01-04T15:34:21.101Z</time>
      </trkpt>
      <trkpt lat="43.27611" lon="2.07681">
        <ele>183.846961</ele>
        <time>2023-01-04T15:34:24.119Z</time>
      </trkpt>
      <trkpt lat="43.2761" lon="2.07695">
        <ele>183.96947</ele>
        <time>2023-01-04T15:34:27.111Z</time>
      </trkpt>
      <trkpt lat="43.27609" lon="2.07709">
        <ele>183.950373</ele>
        <time>2023-01-04T15:34:30.108Z</time>
      </trkpt>
      <trkpt lat="43.27607" lon="2.07721">
        <ele>183.889526</ele>
        <time>2023-01-04T15:34:33.103Z</time>
      </trkpt>
      <trkpt lat="43.27606" lon="2.07736">
        <ele>183.821792</ele>
        <time>2023-01-04T15:34:36.120Z</time>
      </trkpt>
      <trkpt lat="43.27604" lon="2.07752">
        <ele>183.744517</ele>
        <time>2023-01-04T15:34:39.113Z</time>
      </trkpt>
      <trkpt lat="43.27603" lon="2.07767">
        <ele>183.672599</ele>
        <time>2023-01-04T15:34:42.105Z</time>
      </trkpt>
      <trkpt lat="43.27603" lon="2.07782">
        <ele>183.598703</ele>
        <time>2023-01-04T15:34:45.111Z</time>
      </trkpt>
      <trkpt lat="43.27602" lon="2.07796">
        <ele>183.53261</ele>
        <time>2023-01-04T15:34:48.110Z</time>
      </trkpt>
      <trkpt lat="43.27601" lon="2.0781">
        <ele>183.467239</ele>
        <time>2023-01-04T15:34:51.106Z</time>
      </trkpt>
      <trkpt lat="43.276" lon="2.07822">
        <ele>183.408586</ele>
        <time>2023-01-04T15:34:54.121Z</time>
      </trkpt>
      <trkpt lat="43.27601" lon="2.07838">
        <ele>183.332322</ele>
        <time>2023-01-04T15:34:58.123Z</time>
      </trkpt>
      <trkpt lat="43.27601" lon="2.07853">
        <ele>183.258882</ele>
        <time>2023-01-04T15:35:02.104Z</time>
      </trkpt>
      <trkpt lat="43.27602" lon="2.07868">
        <ele>183.186728</ele>
        <time>2023-01-04T15:35:06.101Z</time>
      </trkpt>
      <trkpt lat="43.27602" lon="2.07883">
        <ele>183.115642</ele>
        <time>2023-01-04T15:35:10.104Z</time>
      </trkpt>
      <trkpt lat="43.27602" lon="2.07896">
        <ele>183.056066</ele>
        <time>2023-01-04T15:35:15.110Z</time>
      </trkpt>
      <trkpt lat="43.27598" lon="2.07912">
        <ele>182.976311</ele>
        <time>2023-01-04T15:35:19.101Z</time>
      </trkpt>
      <trkpt lat="43.27597" lon="2.07926">
        <ele>182.90574</ele>
        <time>2023-01-04T15:35:21.111Z</time>
      </trkpt>
      <trkpt lat="43.27595" lon="2.07942">
        <ele>182.828111</ele>
        <time>2023-01-04T15:35:23.111Z</time>
      </trkpt>
      <trkpt lat="43.27593" lon="2.07959">
        <ele>182.753492</ele>
        <time>2023-01-04T15:35:25.100Z</time>
      </trkpt>
      <trkpt lat="43.27592" lon="2.07975">
        <ele>182.684664</ele>
        <time>2023-01-04T15:35:27.134Z</time>
      </trkpt>
      <trkpt lat="43.27592" lon="2.07989">
        <ele>182.622919</ele>
        <time>2023-01-04T15:35:29.115Z</time>
      </trkpt>
      <trkpt lat="43.27592" lon="2.08002">
        <ele>182.565105</ele>
        <time>2023-01-04T15:35:31.100Z</time>
      </trkpt>
      <trkpt lat="43.27591" lon="2.08015">
        <ele>182.510316</ele>
        <time>2023-01-04T15:35:33.105Z</time>
      </trkpt>
      <trkpt lat="43.27591" lon="2.08031">
        <ele>182.437624</ele>
        <time>2023-01-04T15:35:36.102Z</time>
      </trkpt>
      <trkpt lat="43.27591" lon="2.08045">
        <ele>182.375879</ele>
        <time>2023-01-04T15:35:39.097Z</time>
      </trkpt>
      <trkpt lat="43.2759" lon="2.08058">
        <ele>182.320587</ele>
        <time>2023-01-04T15:35:42.123Z</time>
      </trkpt>
      <trkpt lat="43.2759" lon="2.0807">
        <ele>182.265769</ele>
        <time>2023-01-04T15:35:45.114Z</time>
      </trkpt>
      <trkpt lat="43.2759" lon="2.08087">
        <ele>182.192579</ele>
        <time>2023-01-04T15:35:49.103Z</time>
      </trkpt>
      <trkpt lat="43.2759" lon="2.081">
        <ele>182.13434</ele>
        <time>2023-01-04T15:35:52.102Z</time>
      </trkpt>
      <trkpt lat="43.2759" lon="2.08114">
        <ele>182.075222</ele>
        <time>2023-01-04T15:35:55.117Z</time>
      </trkpt>
      <trkpt lat="43.2759" lon="2.08128">
        <ele>182.0125</ele>
        <time>2023-01-04T15:35:58.100Z</time>
      </trkpt>
      <trkpt lat="43.2759" lon="2.08143">
        <ele>181.94813</ele>
        <time>2023-01-04T15:36:01.097Z</time>
      </trkpt>
      <trkpt lat="43.27589" lon="2.08159">
        <ele>181.878921</ele>
        <time>2023-01-04T15:36:04.119Z</time>
      </trkpt>
      <trkpt lat="43.27589" lon="2.08174">
        <ele>181.811389</ele>
        <time>2023-01-04T15:36:07.104Z</time>
      </trkpt>
      <trkpt lat="43.27589" lon="2.08188">
        <ele>181.751836</ele>
        <time>2023-01-04T15:36:10.105Z</time>
      </trkpt>
      <trkpt lat="43.27589" lon="2.08201">
        <ele>181.744806</ele>
        <time>2023-01-04T15:36:13.099Z</time>
      </trkpt>
      <trkpt lat="43.27589" lon="2.08214">
        <ele>181.750901</ele>
        <time>2023-01-04T15:36:16.098Z</time>
      </trkpt>
      <trkpt lat="43.27589" lon="2.08229">
        <ele>181.757764</ele>
        <time>2023-01-04T15:36:19.116Z</time>
      </trkpt>
      <trkpt lat="43.27589" lon="2.08245">
        <ele>181.764764</ele>
        <time>2023-01-04T15:36:22.127Z</time>
      </trkpt>
      <trkpt lat="43.27589" lon="2.08261">
        <ele>181.772034</ele>
        <time>2023-01-04T15:36:25.101Z</time>
      </trkpt>
      <trkpt lat="43.27588" lon="2.08277">
        <ele>181.779261</ele>
        <time>2023-01-04T15:36:28.102Z</time>
      </trkpt>
      <trkpt lat="43.27588" lon="2.08291">
        <ele>181.785807</ele>
        <time>2023-01-04T15:36:31.109Z</time>
      </trkpt>
      <trkpt lat="43.27587" lon="2.08304">
        <ele>181.79162</ele>
        <time>2023-01-04T15:36:34.116Z</time>
      </trkpt>
      <trkpt lat="43.27587" lon="2.08317">
        <ele>181.797399</ele>
        <time>2023-01-04T15:36:37.104Z</time>
      </trkpt>
      <trkpt lat="43.27587" lon="2.08331">
        <ele>181.803633</ele>
        <time>2023-01-04T15:36:40.101Z</time>
      </trkpt>
      <trkpt lat="43.27587" lon="2.08345">
        <ele>181.810137</ele>
        <time>2023-01-04T15:36:43.107Z</time>
      </trkpt>
      <trkpt lat="43.27586" lon="2.08358">
        <ele>181.816053</ele>
        <time>2023-01-04T15:36:46.098Z</time>
      </trkpt>
      <trkpt lat="43.27586" lon="2.08371">
        <ele>181.821923</ele>
        <time>2023-01-04T15:36:49.093Z</time>
      </trkpt>
      <trkpt lat="43.27586" lon="2.08386">
        <ele>181.828615</ele>
        <time>2023-01-04T15:36:52.102Z</time>
      </trkpt>
      <trkpt lat="43.27586" lon="2.08401">
        <ele>181.835479</ele>
        <time>2023-01-04T15:36:55.118Z</time>
      </trkpt>
      <trkpt lat="43.27586" lon="2.08417">
        <ele>181.842703</ele>
        <time>2023-01-04T15:36:58.099Z</time>
      </trkpt>
      <trkpt lat="43.27585" lon="2.08433">
        <ele>181.849883</ele>
        <time>2023-01-04T15:37:01.103Z</time>
      </trkpt>
      <trkpt lat="43.27585" lon="2.08449">
        <ele>181.832742</ele>
        <time>2023-01-04T15:37:04.101Z</time>
      </trkpt>
      <trkpt lat="43.27585" lon="2.08464">
        <ele>181.809135</ele>
        <time>2023-01-04T15:37:07.111Z</time>
      </trkpt>
      <trkpt lat="43.27585" lon="2.0848">
        <ele>181.783274</ele>
        <time>2023-01-04T15:37:11.101Z</time>
      </trkpt>
      <trkpt lat="43.27584" lon="2.08493">
        <ele>181.761598</ele>
        <time>2023-01-04T15:37:14.107Z</time>
      </trkpt>
      <trkpt lat="43.27584" lon="2.08509">
        <ele>181.736385</ele>
        <time>2023-01-04T15:37:17.102Z</time>
      </trkpt>
      <trkpt lat="43.27584" lon="2.08523">
        <ele>181.712301</ele>
        <time>2023-01-04T15:37:20.105Z</time>
      </trkpt>
      <trkpt lat="43.27584" lon="2.08539">
        <ele>181.687572</ele>
        <time>2023-01-04T15:37:23.110Z</time>
      </trkpt>
      <trkpt lat="43.27584" lon="2.08554">
        <ele>181.662968</ele>
        <time>2023-01-04T15:37:26.111Z</time>
      </trkpt>
      <trkpt lat="43.27583" lon="2.08567">
        <ele>181.641121</ele>
        <time>2023-01-04T15:37:29.117Z</time>
      </trkpt>
      <trkpt lat="43.27581" lon="2.08584">
        <ele>181.613675</ele>
        <time>2023-01-04T15:37:33.119Z</time>
      </trkpt>
      <trkpt lat="43.27581" lon="2.08597">
        <ele>181.593695</ele>
        <time>2023-01-04T15:37:36.110Z</time>
      </trkpt>
      <trkpt lat="43.2758" lon="2.0861">
        <ele>181.572503</ele>
        <time>2023-01-04T15:37:39.119Z</time>
      </trkpt>
      <trkpt lat="43.2758" lon="2.08624">
        <ele>181.549513</ele>
        <time>2023-01-04T15:37:42.117Z</time>
      </trkpt>
      <trkpt lat="43.2758" lon="2.08637">
        <ele>181.527528</ele>
        <time>2023-01-04T15:37:45.101Z</time>
      </trkpt>
      <trkpt lat="43.2758" lon="2.08651">
        <ele>181.505223</ele>
        <time>2023-01-04T15:37:48.103Z</time>
      </trkpt>
      <trkpt lat="43.2758" lon="2.08665">
        <ele>181.482272</ele>
        <time>2023-01-04T15:37:51.111Z</time>
      </trkpt>
      <trkpt lat="43.2758" lon="2.08679">
        <ele>181.459606</ele>
        <time>2023-01-04T15:37:54.106Z</time>
      </trkpt>
      <trkpt lat="43.2758" lon="2.08694">
        <ele>181.430487</ele>
        <time>2023-01-04T15:37:57.105Z</time>
      </trkpt>
      <trkpt lat="43.2758" lon="2.08708">
        <ele>181.401474</ele>
        <time>2023-01-04T15:38:00.098Z</time>
      </trkpt>
      <trkpt lat="43.2758" lon="2.08723">
        <ele>181.369689</ele>
        <time>2023-01-04T15:38:03.106Z</time>
      </trkpt>
      <trkpt lat="43.2758" lon="2.08738">
        <ele>181.336196</ele>
        <time>2023-01-04T15:38:06.108Z</time>
      </trkpt>
      <trkpt lat="43.2758" lon="2.08754">
        <ele>181.302487</ele>
        <time>2023-01-04T15:38:09.100Z</time>
      </trkpt>
      <trkpt lat="43.27579" lon="2.0877">
        <ele>181.269417</ele>
        <time>2023-01-04T15:38:12.101Z</time>
      </trkpt>
      <trkpt lat="43.27579" lon="2.08784">
        <ele>181.238907</ele>
        <time>2023-01-04T15:38:15.106Z</time>
      </trkpt>
      <trkpt lat="43.2758" lon="2.08798">
        <ele>181.20902</ele>
        <time>2023-01-04T15:38:18.106Z</time>
      </trkpt>
      <trkpt lat="43.27579" lon="2.08812">
        <ele>181.178289</ele>
        <time>2023-01-04T15:38:21.112Z</time>
      </trkpt>
      <trkpt lat="43.2758" lon="2.08826">
        <ele>181.148625</ele>
        <time>2023-01-04T15:38:24.118Z</time>
      </trkpt>
      <trkpt lat="43.2758" lon="2.08841">
        <ele>181.117907</ele>
        <time>2023-01-04T15:38:27.126Z</time>
      </trkpt>
      <trkpt lat="43.27579" lon="2.08853">
        <ele>181.091022</ele>
        <time>2023-01-04T15:38:30.104Z</time>
      </trkpt>
      <trkpt lat="43.27579" lon="2.08867">
        <ele>181.062218</ele>
        <time>2023-01-04T15:38:33.105Z</time>
      </trkpt>
      <trkpt lat="43.27579" lon="2.08881">
        <ele>181.031927</ele>
        <time>2023-01-04T15:38:36.109Z</time>
      </trkpt>
      <trkpt lat="43.27579" lon="2.08895">
        <ele>181.001204</ele>
        <time>2023-01-04T15:38:39.112Z</time>
      </trkpt>
      <trkpt lat="43.27579" lon="2.0891">
        <ele>180.969194</ele>
        <time>2023-01-04T15:38:42.121Z</time>
      </trkpt>
      <trkpt lat="43.27579" lon="2.08925">
        <ele>180.936982</ele>
        <time>2023-01-04T15:38:45.109Z</time>
      </trkpt>
      <trkpt lat="43.27578" lon="2.08941">
        <ele>180.95309</ele>
        <time>2023-01-04T15:38:48.115Z</time>
      </trkpt>
      <trkpt lat="43.27579" lon="2.08956">
        <ele>180.996757</ele>
        <time>2023-01-04T15:38:51.099Z</time>
      </trkpt>
      <trkpt lat="43.27579" lon="2.08972">
        <ele>181.04013</ele>
        <time>2023-01-04T15:38:54.123Z</time>
      </trkpt>
      <trkpt lat="43.2758" lon="2.08988">
        <ele>181.085168</ele>
        <time>2023-01-04T15:38:57.120Z</time>
      </trkpt>
      <trkpt lat="43.27581" lon="2.09004">
        <ele>181.12924</ele>
        <time>2023-01-04T15:39:00.099Z</time>
      </trkpt>
      <trkpt lat="43.27582" lon="2.09019">
        <ele>181.17192</ele>
        <time>2023-01-04T15:39:03.122Z</time>
      </trkpt>
      <trkpt lat="43.27583" lon="2.09034">
        <ele>181.214315</ele>
        <time>2023-01-04T15:39:06.117Z</time>
      </trkpt>
      <trkpt lat="43.27585" lon="2.09047">
        <ele>181.252904</ele>
        <time>2023-01-04T15:39:09.106Z</time>
      </trkpt>
      <trkpt lat="43.27586" lon="2.09061">
        <ele>181.289988</ele>
        <time>2023-01-04T15:39:12.107Z</time>
      </trkpt>
      <trkpt lat="43.27588" lon="2.09075">
        <ele>181.329885</ele>
        <time>2023-01-04T15:39:15.103Z</time>
      </trkpt>
      <trkpt lat="43.27591" lon="2.09089">
        <ele>181.371503</ele>
        <time>2023-01-04T15:39:18.108Z</time>
      </trkpt>
      <trkpt lat="43.27592" lon="2.09104">
        <ele>181.414016</ele>
        <time>2023-01-04T15:39:21.113Z</time>
      </trkpt>
      <trkpt lat="43.27593" lon="2.0912">
        <ele>181.458089</ele>
        <time>2023-01-04T15:39:24.122Z</time>
      </trkpt>
      <trkpt lat="43.27592" lon="2.09134">
        <ele>181.497442</ele>
        <time>2023-01-04T15:39:27.108Z</time>
      </trkpt>
      <trkpt lat="43.27588" lon="2.09148">
        <ele>181.538568</ele>
        <time>2023-01-04T15:39:30.104Z</time>
      </trkpt>
      <trkpt lat="43.27583" lon="2.0916">
        <ele>181.58018</ele>
        <time>2023-01-04T15:39:33.130Z</time>
      </trkpt>
      <trkpt lat="43.27577" lon="2.09173">
        <ele>181.611755</ele>
        <time>2023-01-04T15:39:36.104Z</time>
      </trkpt>
      <trkpt lat="43.27571" lon="2.09185">
        <ele>181.563122</ele>
        <time>2023-01-04T15:39:39.112Z</time>
      </trkpt>
      <trkpt lat="43.27564" lon="2.09199">
        <ele>181.50985</ele>
        <time>2023-01-04T15:39:42.099Z</time>
      </trkpt>
      <trkpt lat="43.27557" lon="2.09213">
        <ele>181.456577</ele>
        <time>2023-01-04T15:39:45.121Z</time>
      </trkpt>
      <trkpt lat="43.27551" lon="2.09225">
        <ele>181.408724</ele>
        <time>2023-01-04T15:39:48.106Z</time>
      </trkpt>
      <trkpt lat="43.27544" lon="2.09236">
        <ele>181.361913</ele>
        <time>2023-01-04T15:39:51.108Z</time>
      </trkpt>
      <trkpt lat="43.27537" lon="2.09248">
        <ele>181.312302</ele>
        <time>2023-01-04T15:39:54.121Z</time>
      </trkpt>
      <trkpt lat="43.27528" lon="2.09261">
        <ele>181.25577</ele>
        <time>2023-01-04T15:39:57.108Z</time>
      </trkpt>
      <trkpt lat="43.27519" lon="2.09273">
        <ele>181.198616</ele>
        <time>2023-01-04T15:40:00.104Z</time>
      </trkpt>
      <trkpt lat="43.27512" lon="2.09282">
        <ele>181.15892</ele>
        <time>2023-01-04T15:40:02.102Z</time>
      </trkpt>
      <trkpt lat="43.27506" lon="2.09292">
        <ele>181.116229</ele>
        <time>2023-01-04T15:40:04.103Z</time>
      </trkpt>
      <trkpt lat="43.27499" lon="2.09301">
        <ele>181.073252</ele>
        <time>2023-01-04T15:40:06.104Z</time>
      </trkpt>
      <trkpt lat="43.27491" lon="2.09311">
        <ele>181.027878</ele>
        <time>2023-01-04T15:40:08.105Z</time>
      </trkpt>
      <trkpt lat="43.27485" lon="2.09321">
        <ele>180.985589</ele>
        <time>2023-01-04T15:40:10.120Z</time>
      </trkpt>
      <trkpt lat="43.27478" lon="2.09331">
        <ele>180.942527</ele>
        <time>2023-01-04T15:40:12.110Z</time>
      </trkpt>
      <trkpt lat="43.27471" lon="2.09341">
        <ele>180.899302</ele>
        <time>2023-01-04T15:40:14.118Z</time>
      </trkpt>
      <trkpt lat="43.27465" lon="2.0935">
        <ele>180.856375</ele>
        <time>2023-01-04T15:40:16.112Z</time>
      </trkpt>
      <trkpt lat="43.27458" lon="2.0936">
        <ele>180.787886</ele>
        <time>2023-01-04T15:40:18.127Z</time>
      </trkpt>
      <trkpt lat="43.2745" lon="2.09372">
        <ele>180.581482</ele>
        <time>2023-01-04T15:40:21.101Z</time>
      </trkpt>
      <trkpt lat="43.27442" lon="2.09384">
        <ele>180.388031</ele>
        <time>2023-01-04T15:40:24.129Z</time>
      </trkpt>
      <trkpt lat="43.27435" lon="2.09395">
        <ele>180.212143</ele>
        <time>2023-01-04T15:40:27.106Z</time>
      </trkpt>
      <trkpt lat="43.27427" lon="2.09404">
        <ele>180.047307</ele>
        <time>2023-01-04T15:40:30.111Z</time>
      </trkpt>
      <trkpt lat="43.2742" lon="2.09411">
        <ele>179.899614</ele>
        <time>2023-01-04T15:40:33.108Z</time>
      </trkpt>
      <trkpt lat="43.27413" lon="2.0942">
        <ele>179.743361</ele>
        <time>2023-01-04T15:40:36.107Z</time>
      </trkpt>
      <trkpt lat="43.27404" lon="2.09431">
        <ele>179.548219</ele>
        <time>2023-01-04T15:40:39.104Z</time>
      </trkpt>
      <trkpt lat="43.27397" lon="2.09445">
        <ele>179.349756</ele>
        <time>2023-01-04T15:40:42.105Z</time>
      </trkpt>
      <trkpt lat="43.27388" lon="2.09459">
        <ele>179.123001</ele>
        <time>2023-01-04T15:40:45.113Z</time>
      </trkpt>
      <trkpt lat="43.2738" lon="2.09469">
        <ele>178.942423</ele>
        <time>2023-01-04T15:40:47.113Z</time>
      </trkpt>
      <trkpt lat="43.27371" lon="2.09481">
        <ele>178.743628</ele>
        <time>2023-01-04T15:40:49.116Z</time>
      </trkpt>
      <trkpt lat="43.27362" lon="2.09492">
        <ele>178.546435</ele>
        <time>2023-01-04T15:40:51.113Z</time>
      </trkpt>
      <trkpt lat="43.27353" lon="2.09503">
        <ele>178.346851</ele>
        <time>2023-01-04T15:40:53.108Z</time>
      </trkpt>
      <trkpt lat="43.27345" lon="2.09513">
        <ele>178.162444</ele>
        <time>2023-01-04T15:40:55.120Z</time>
      </trkpt>
      <trkpt lat="43.27337" lon="2.09523">
        <ele>177.977002</ele>
        <time>2023-01-04T15:40:57.108Z</time>
      </trkpt>
      <trkpt lat="43.27329" lon="2.09533">
        <ele>177.909738</ele>
        <time>2023-01-04T15:40:59.134Z</time>
      </trkpt>
      <trkpt lat="43.27322" lon="2.09543">
        <ele>178.011107</ele>
        <time>2023-01-04T15:41:01.123Z</time>
      </trkpt>
      <trkpt lat="43.27316" lon="2.09556">
        <ele>178.118305</ele>
        <time>2023-01-04T15:41:05.107Z</time>
      </trkpt>
      <trkpt lat="43.27306" lon="2.09566">
        <ele>178.240227</ele>
        <time>2023-01-04T15:42:25.122Z</time>
      </trkpt>
      <trkpt lat="43.27299" lon="2.09574">
        <ele>178.331066</ele>
        <time>2023-01-04T15:42:29.103Z</time>
      </trkpt>
      <trkpt lat="43.27291" lon="2.09585">
        <ele>178.439644</ele>
        <time>2023-01-04T15:42:33.106Z</time>
      </trkpt>
      <trkpt lat="43.27283" lon="2.09594">
        <ele>178.536181</ele>
        <time>2023-01-04T15:42:36.104Z</time>
      </trkpt>
      <trkpt lat="43.27276" lon="2.09605">
        <ele>178.643443</ele>
        <time>2023-01-04T15:42:39.118Z</time>
      </trkpt>
      <trkpt lat="43.27267" lon="2.09615">
        <ele>178.754916</ele>
        <time>2023-01-04T15:42:42.115Z</time>
      </trkpt>
      <trkpt lat="43.27259" lon="2.09627">
        <ele>178.867642</ele>
        <time>2023-01-04T15:42:45.113Z</time>
      </trkpt>
      <trkpt lat="43.27251" lon="2.09638">
        <ele>178.983979</ele>
        <time>2023-01-04T15:42:48.103Z</time>
      </trkpt>
      <trkpt lat="43.27242" lon="2.0965">
        <ele>179.106274</ele>
        <time>2023-01-04T15:42:51.104Z</time>
      </trkpt>
      <trkpt lat="43.27233" lon="2.09661">
        <ele>179.22207</ele>
        <time>2023-01-04T15:42:54.114Z</time>
      </trkpt>
      <trkpt lat="43.27225" lon="2.0967">
        <ele>179.323904</ele>
        <time>2023-01-04T15:42:57.119Z</time>
      </trkpt>
      <trkpt lat="43.27218" lon="2.0968">
        <ele>179.427958</ele>
        <time>2023-01-04T15:43:00.106Z</time>
      </trkpt>
      <trkpt lat="43.27209" lon="2.09692">
        <ele>179.548106</ele>
        <time>2023-01-04T15:43:03.111Z</time>
      </trkpt>
      <trkpt lat="43.272" lon="2.09704">
        <ele>179.609628</ele>
        <time>2023-01-04T15:43:06.101Z</time>
      </trkpt>
      <trkpt lat="43.2719" lon="2.09716">
        <ele>179.53831</ele>
        <time>2023-01-04T15:43:09.110Z</time>
      </trkpt>
      <trkpt lat="43.27181" lon="2.09729">
        <ele>179.46591</ele>
        <time>2023-01-04T15:43:12.099Z</time>
      </trkpt>
      <trkpt lat="43.27175" lon="2.09738">
        <ele>179.41682</ele>
        <time>2023-01-04T15:43:14.099Z</time>
      </trkpt>
      <trkpt lat="43.27168" lon="2.09748">
        <ele>179.366859</ele>
        <time>2023-01-04T15:43:16.103Z</time>
      </trkpt>
      <trkpt lat="43.27162" lon="2.09757">
        <ele>179.314335</ele>
        <time>2023-01-04T15:43:18.107Z</time>
      </trkpt>
      <trkpt lat="43.27156" lon="2.09767">
        <ele>179.264005</ele>
        <time>2023-01-04T15:43:20.102Z</time>
      </trkpt>
      <trkpt lat="43.27149" lon="2.09776">
        <ele>179.211397</ele>
        <time>2023-01-04T15:43:22.103Z</time>
      </trkpt>
      <trkpt lat="43.27143" lon="2.09786">
        <ele>179.159442</ele>
        <time>2023-01-04T15:43:24.114Z</time>
      </trkpt>
      <trkpt lat="43.27137" lon="2.09797">
        <ele>179.105617</ele>
        <time>2023-01-04T15:43:26.112Z</time>
      </trkpt>
      <trkpt lat="43.27131" lon="2.09807">
        <ele>179.055649</ele>
        <time>2023-01-04T15:43:28.100Z</time>
      </trkpt>
      <trkpt lat="43.27127" lon="2.09819">
        <ele>179.002965</ele>
        <time>2023-01-04T15:43:30.102Z</time>
      </trkpt>
      <trkpt lat="43.27122" lon="2.0983">
        <ele>178.951058</ele>
        <time>2023-01-04T15:43:32.100Z</time>
      </trkpt>
      <trkpt lat="43.27118" lon="2.09842">
        <ele>178.899329</ele>
        <time>2023-01-04T15:43:34.104Z</time>
      </trkpt>
      <trkpt lat="43.27113" lon="2.09854">
        <ele>178.84573</ele>
        <time>2023-01-04T15:43:36.103Z</time>
      </trkpt>
      <trkpt lat="43.27109" lon="2.09867">
        <ele>178.789636</ele>
        <time>2023-01-04T15:43:38.103Z</time>
      </trkpt>
      <trkpt lat="43.27104" lon="2.09879">
        <ele>178.735552</ele>
        <time>2023-01-04T15:43:40.106Z</time>
      </trkpt>
      <trkpt lat="43.271" lon="2.09891">
        <ele>178.683867</ele>
        <time>2023-01-04T15:43:42.106Z</time>
      </trkpt>
      <trkpt lat="43.27096" lon="2.09902">
        <ele>178.632097</ele>
        <time>2023-01-04T15:43:44.108Z</time>
      </trkpt>
      <trkpt lat="43.27091" lon="2.09915">
        <ele>178.577389</ele>
        <time>2023-01-04T15:43:46.106Z</time>
      </trkpt>
      <trkpt lat="43.27086" lon="2.09927">
        <ele>178.524443</ele>
        <time>2023-01-04T15:43:48.102Z</time>
      </trkpt>
      <trkpt lat="43.27082" lon="2.09939">
        <ele>178.472137</ele>
        <time>2023-01-04T15:43:50.103Z</time>
      </trkpt>
      <trkpt lat="43.27077" lon="2.09951">
        <ele>178.418953</ele>
        <time>2023-01-04T15:43:52.106Z</time>
      </trkpt>
      <trkpt lat="43.27072" lon="2.09963">
        <ele>178.364918</ele>
        <time>2023-01-04T15:43:54.111Z</time>
      </trkpt>
      <trkpt lat="43.27068" lon="2.09976">
        <ele>178.309609</ele>
        <time>2023-01-04T15:43:56.120Z</time>
      </trkpt>
      <trkpt lat="43.27063" lon="2.09988">
        <ele>178.256705</ele>
        <time>2023-01-04T15:43:58.106Z</time>
      </trkpt>
      <trkpt lat="43.27059" lon="2.1">
        <ele>178.202476</ele>
        <time>2023-01-04T15:44:00.105Z</time>
      </trkpt>
      <trkpt lat="43.27054" lon="2.10012">
        <ele>178.149486</ele>
        <time>2023-01-04T15:44:02.101Z</time>
      </trkpt>
      <trkpt lat="43.2705" lon="2.10024">
        <ele>178.098518</ele>
        <time>2023-01-04T15:44:04.110Z</time>
      </trkpt>
      <trkpt lat="43.27046" lon="2.10037">
        <ele>178.045106</ele>
        <time>2023-01-04T15:44:06.114Z</time>
      </trkpt>
      <trkpt lat="43.27041" lon="2.10048">
        <ele>177.993203</ele>
        <time>2023-01-04T15:44:08.107Z</time>
      </trkpt>
      <trkpt lat="43.27037" lon="2.10061">
        <ele>177.938626</ele>
        <time>2023-01-04T15:44:10.108Z</time>
      </trkpt>
      <trkpt lat="43.27032" lon="2.10073">
        <ele>177.885121</ele>
        <time>2023-01-04T15:44:12.109Z</time>
      </trkpt>
      <trkpt lat="43.27027" lon="2.10086">
        <ele>177.828664</ele>
        <time>2023-01-04T15:44:14.106Z</time>
      </trkpt>
      <trkpt lat="43.27023" lon="2.10099">
        <ele>177.773953</ele>
        <time>2023-01-04T15:44:16.134Z</time>
      </trkpt>
      <trkpt lat="43.27018" lon="2.10111">
        <ele>177.721305</ele>
        <time>2023-01-04T15:44:18.106Z</time>
      </trkpt>
      <trkpt lat="43.27013" lon="2.10122">
        <ele>177.670268</ele>
        <time>2023-01-04T15:44:20.104Z</time>
      </trkpt>
      <trkpt lat="43.27007" lon="2.10138">
        <ele>177.603309</ele>
        <time>2023-01-04T15:44:23.107Z</time>
      </trkpt>
      <trkpt lat="43.27" lon="2.10154">
        <ele>177.533683</ele>
        <time>2023-01-04T15:44:26.111Z</time>
      </trkpt>
      <trkpt lat="43.26995" lon="2.10166">
        <ele>177.482305</ele>
        <time>2023-01-04T15:44:28.130Z</time>
      </trkpt>
      <trkpt lat="43.2699" lon="2.10178">
        <ele>177.430626</ele>
        <time>2023-01-04T15:44:30.114Z</time>
      </trkpt>
      <trkpt lat="43.26985" lon="2.1019">
        <ele>177.378228</ele>
        <time>2023-01-04T15:44:32.115Z</time>
      </trkpt>
      <trkpt lat="43.26979" lon="2.10201">
        <ele>177.326141</ele>
        <time>2023-01-04T15:44:34.124Z</time>
      </trkpt>
      <trkpt lat="43.26974" lon="2.10213">
        <ele>177.275205</ele>
        <time>2023-01-04T15:44:36.110Z</time>
      </trkpt>
      <trkpt lat="43.26968" lon="2.10224">
        <ele>177.223426</ele>
        <time>2023-01-04T15:44:38.117Z</time>
      </trkpt>
      <trkpt lat="43.26963" lon="2.10235">
        <ele>177.173172</ele>
        <time>2023-01-04T15:44:40.103Z</time>
      </trkpt>
      <trkpt lat="43.26955" lon="2.1025">
        <ele>177.102632</ele>
        <time>2023-01-04T15:44:43.120Z</time>
      </trkpt>
      <trkpt lat="43.26947" lon="2.10266">
        <ele>177.031468</ele>
        <time>2023-01-04T15:44:46.110Z</time>
      </trkpt>
      <trkpt lat="43.26941" lon="2.10277">
        <ele>176.982105</ele>
        <time>2023-01-04T15:44:48.118Z</time>
      </trkpt>
      <trkpt lat="43.26936" lon="2.10288">
        <ele>176.93034</ele>
        <time>2023-01-04T15:44:50.106Z</time>
      </trkpt>
      <trkpt lat="43.2693" lon="2.103">
        <ele>176.878961</ele>
        <time>2023-01-04T15:44:52.106Z</time>
      </trkpt>
      <trkpt lat="43.26925" lon="2.10313">
        <ele>176.824244</ele>
        <time>2023-01-04T15:44:54.120Z</time>
      </trkpt>
      <trkpt lat="43.26923" lon="2.10326">
        <ele>176.773987</ele>
        <time>2023-01-04T15:44:56.125Z</time>
      </trkpt>
      <trkpt lat="43.26921" lon="2.10339">
        <ele>176.781198</ele>
        <time>2023-01-04T15:44:58.112Z</time>
      </trkpt>
      <trkpt lat="43.26919" lon="2.10357">
        <ele>176.80343</ele>
        <time>2023-01-04T15:45:01.105Z</time>
      </trkpt>
      <trkpt lat="43.26919" lon="2.10374">
        <ele>176.824566</ele>
        <time>2023-01-04T15:45:04.126Z</time>
      </trkpt>
      <trkpt lat="43.26919" lon="2.10393">
        <ele>176.84654</ele>
        <time>2023-01-04T15:45:07.103Z</time>
      </trkpt>
      <trkpt lat="43.26919" lon="2.10405">
        <ele>176.861595</ele>
        <time>2023-01-04T15:45:09.100Z</time>
      </trkpt>
      <trkpt lat="43.26918" lon="2.10418">
        <ele>176.877174</ele>
        <time>2023-01-04T15:45:11.123Z</time>
      </trkpt>
      <trkpt lat="43.26918" lon="2.1043">
        <ele>176.892597</ele>
        <time>2023-01-04T15:45:13.110Z</time>
      </trkpt>
      <trkpt lat="43.26918" lon="2.10443">
        <ele>176.907773</ele>
        <time>2023-01-04T15:45:15.123Z</time>
      </trkpt>
      <trkpt lat="43.26917" lon="2.10456">
        <ele>176.924172</ele>
        <time>2023-01-04T15:45:17.115Z</time>
      </trkpt>
      <trkpt lat="43.26917" lon="2.10475">
        <ele>176.946508</ele>
        <time>2023-01-04T15:45:20.102Z</time>
      </trkpt>
      <trkpt lat="43.26917" lon="2.10488">
        <ele>176.962776</ele>
        <time>2023-01-04T15:45:22.108Z</time>
      </trkpt>
      <trkpt lat="43.26917" lon="2.10501">
        <ele>176.978798</ele>
        <time>2023-01-04T15:45:24.109Z</time>
      </trkpt>
      <trkpt lat="43.26917" lon="2.10515">
        <ele>176.994698</ele>
        <time>2023-01-04T15:45:26.116Z</time>
      </trkpt>
      <trkpt lat="43.26916" lon="2.10528">
        <ele>177.010485</ele>
        <time>2023-01-04T15:45:28.123Z</time>
      </trkpt>
      <trkpt lat="43.26916" lon="2.10542">
        <ele>177.027481</ele>
        <time>2023-01-04T15:45:30.114Z</time>
      </trkpt>
      <trkpt lat="43.26916" lon="2.10554">
        <ele>177.043139</ele>
        <time>2023-01-04T15:45:32.106Z</time>
      </trkpt>
      <trkpt lat="43.26916" lon="2.10567">
        <ele>177.058675</ele>
        <time>2023-01-04T15:45:34.112Z</time>
      </trkpt>
      <trkpt lat="43.26915" lon="2.10581">
        <ele>177.0781</ele>
        <time>2023-01-04T15:45:36.108Z</time>
      </trkpt>
      <trkpt lat="43.26915" lon="2.10593">
        <ele>177.099024</ele>
        <time>2023-01-04T15:45:38.124Z</time>
      </trkpt>
      <trkpt lat="43.26914" lon="2.1061">
        <ele>177.127634</ele>
        <time>2023-01-04T15:45:41.109Z</time>
      </trkpt>
      <trkpt lat="43.26912" lon="2.10627">
        <ele>177.156863</ele>
        <time>2023-01-04T15:45:44.102Z</time>
      </trkpt>
      <trkpt lat="43.26909" lon="2.10645">
        <ele>177.187388</ele>
        <time>2023-01-04T15:45:47.105Z</time>
      </trkpt>
      <trkpt lat="43.26905" lon="2.10663">
        <ele>177.218248</ele>
        <time>2023-01-04T15:45:50.103Z</time>
      </trkpt>
      <trkpt lat="43.26901" lon="2.10675">
        <ele>177.24089</ele>
        <time>2023-01-04T15:45:52.113Z</time>
      </trkpt>
      <trkpt lat="43.26896" lon="2.10687">
        <ele>177.263379</ele>
        <time>2023-01-04T15:45:54.107Z</time>
      </trkpt>
      <trkpt lat="43.26892" lon="2.10699">
        <ele>177.286296</ele>
        <time>2023-01-04T15:45:56.102Z</time>
      </trkpt>
      <trkpt lat="43.26887" lon="2.10712">
        <ele>177.309987</ele>
        <time>2023-01-04T15:45:58.110Z</time>
      </trkpt>
      <trkpt lat="43.26882" lon="2.10724">
        <ele>177.332877</ele>
        <time>2023-01-04T15:46:00.121Z</time>
      </trkpt>
      <trkpt lat="43.26877" lon="2.10737">
        <ele>177.358187</ele>
        <time>2023-01-04T15:46:02.108Z</time>
      </trkpt>
      <trkpt lat="43.26872" lon="2.1075">
        <ele>177.382781</ele>
        <time>2023-01-04T15:46:04.120Z</time>
      </trkpt>
      <trkpt lat="43.26866" lon="2.10762">
        <ele>177.406231</ele>
        <time>2023-01-04T15:46:06.103Z</time>
      </trkpt>
      <trkpt lat="43.26861" lon="2.10773">
        <ele>177.42803</ele>
        <time>2023-01-04T15:46:08.102Z</time>
      </trkpt>
      <trkpt lat="43.26856" lon="2.10783">
        <ele>177.449003</ele>
        <time>2023-01-04T15:46:10.133Z</time>
      </trkpt>
      <trkpt lat="43.26847" lon="2.10796">
        <ele>177.479148</ele>
        <time>2023-01-04T15:46:13.113Z</time>
      </trkpt>
      <trkpt lat="43.26838" lon="2.10807">
        <ele>177.609378</ele>
        <time>2023-01-04T15:46:16.121Z</time>
      </trkpt>
      <trkpt lat="43.26827" lon="2.10818">
        <ele>177.746526</ele>
        <time>2023-01-04T15:46:19.109Z</time>
      </trkpt>
      <trkpt lat="43.26816" lon="2.10826">
        <ele>177.887913</ele>
        <time>2023-01-04T15:46:22.124Z</time>
      </trkpt>
      <trkpt lat="43.26804" lon="2.10833">
        <ele>178.031859</ele>
        <time>2023-01-04T15:46:25.124Z</time>
      </trkpt>
      <trkpt lat="43.26795" lon="2.10837">
        <ele>178.132774</ele>
        <time>2023-01-04T15:46:27.125Z</time>
      </trkpt>
      <trkpt lat="43.26786" lon="2.1084">
        <ele>178.234734</ele>
        <time>2023-01-04T15:46:29.103Z</time>
      </trkpt>
      <trkpt lat="43.26774" lon="2.10847">
        <ele>178.380387</ele>
        <time>2023-01-04T15:46:32.108Z</time>
      </trkpt>
      <trkpt lat="43.26765" lon="2.10852">
        <ele>178.481941</ele>
        <time>2023-01-04T15:46:34.103Z</time>
      </trkpt>
      <trkpt lat="43.26753" lon="2.10859">
        <ele>178.625269</ele>
        <time>2023-01-04T15:46:37.113Z</time>
      </trkpt>
      <trkpt lat="43.26745" lon="2.10865">
        <ele>178.727723</ele>
        <time>2023-01-04T15:46:39.102Z</time>
      </trkpt>
      <trkpt lat="43.26736" lon="2.10869">
        <ele>178.827669</ele>
        <time>2023-01-04T15:46:41.101Z</time>
      </trkpt>
      <trkpt lat="43.26727" lon="2.10874">
        <ele>178.932564</ele>
        <time>2023-01-04T15:46:43.123Z</time>
      </trkpt>
      <trkpt lat="43.26719" lon="2.10879">
        <ele>179.030394</ele>
        <time>2023-01-04T15:46:45.121Z</time>
      </trkpt>
      <trkpt lat="43.26706" lon="2.10885">
        <ele>179.178662</ele>
        <time>2023-01-04T15:46:48.110Z</time>
      </trkpt>
      <trkpt lat="43.26695" lon="2.10892">
        <ele>179.317033</ele>
        <time>2023-01-04T15:46:51.101Z</time>
      </trkpt>
      <trkpt lat="43.26683" lon="2.10899">
        <ele>179.444462</ele>
        <time>2023-01-04T15:46:54.108Z</time>
      </trkpt>
      <trkpt lat="43.26675" lon="2.10904">
        <ele>179.405171</ele>
        <time>2023-01-04T15:46:56.100Z</time>
      </trkpt>
      <trkpt lat="43.26666" lon="2.1091">
        <ele>179.364044</ele>
        <time>2023-01-04T15:46:58.112Z</time>
      </trkpt>
      <trkpt lat="43.26658" lon="2.10915">
        <ele>179.324731</ele>
        <time>2023-01-04T15:47:00.110Z</time>
      </trkpt>
      <trkpt lat="43.26645" lon="2.10922">
        <ele>179.268118</ele>
        <time>2023-01-04T15:47:03.118Z</time>
      </trkpt>
      <trkpt lat="43.26633" lon="2.10929">
        <ele>179.210985</ele>
        <time>2023-01-04T15:47:06.104Z</time>
      </trkpt>
      <trkpt lat="43.26621" lon="2.10935">
        <ele>179.154771</ele>
        <time>2023-01-04T15:47:09.107Z</time>
      </trkpt>
      <trkpt lat="43.2661" lon="2.10943">
        <ele>179.100288</ele>
        <time>2023-01-04T15:47:12.115Z</time>
      </trkpt>
      <trkpt lat="43.26598" lon="2.10949">
        <ele>179.047306</ele>
        <time>2023-01-04T15:47:15.119Z</time>
      </trkpt>
      <trkpt lat="43.26588" lon="2.10955">
        <ele>178.998837</ele>
        <time>2023-01-04T15:47:18.111Z</time>
      </trkpt>
      <trkpt lat="43.26579" lon="2.1096">
        <ele>178.955164</ele>
        <time>2023-01-04T15:47:21.106Z</time>
      </trkpt>
      <trkpt lat="43.26568" lon="2.10965">
        <ele>178.904587</ele>
        <time>2023-01-04T15:47:25.124Z</time>
      </trkpt>
      <trkpt lat="43.26558" lon="2.10968">
        <ele>178.863869</ele>
        <time>2023-01-04T15:47:28.112Z</time>
      </trkpt>
      <trkpt lat="43.26549" lon="2.10973">
        <ele>178.82123</ele>
        <time>2023-01-04T15:47:31.121Z</time>
      </trkpt>
      <trkpt lat="43.2654" lon="2.1098">
        <ele>178.776642</ele>
        <time>2023-01-04T15:47:34.110Z</time>
      </trkpt>
      <trkpt lat="43.26533" lon="2.10987">
        <ele>178.736031</ele>
        <time>2023-01-04T15:47:37.134Z</time>
      </trkpt>
      <trkpt lat="43.26524" lon="2.10994">
        <ele>178.693384</ele>
        <time>2023-01-04T15:47:41.112Z</time>
      </trkpt>
      <trkpt lat="43.26515" lon="2.10998">
        <ele>178.63657</ele>
        <time>2023-01-04T15:47:44.106Z</time>
      </trkpt>
      <trkpt lat="43.26502" lon="2.11005">
        <ele>178.541842</ele>
        <time>2023-01-04T15:47:47.112Z</time>
      </trkpt>
      <trkpt lat="43.26494" lon="2.1101">
        <ele>178.473025</ele>
        <time>2023-01-04T15:47:49.122Z</time>
      </trkpt>
      <trkpt lat="43.26485" lon="2.11014">
        <ele>178.403724</ele>
        <time>2023-01-04T15:47:51.112Z</time>
      </trkpt>
      <trkpt lat="43.26473" lon="2.11021">
        <ele>178.312669</ele>
        <time>2023-01-04T15:47:54.126Z</time>
      </trkpt>
      <trkpt lat="43.26463" lon="2.11028">
        <ele>178.228298</ele>
        <time>2023-01-04T15:47:57.113Z</time>
      </trkpt>
      <trkpt lat="43.26451" lon="2.11034">
        <ele>178.139662</ele>
        <time>2023-01-04T15:48:00.106Z</time>
      </trkpt>
      <trkpt lat="43.2644" lon="2.11041">
        <ele>178.049783</ele>
        <time>2023-01-04T15:48:03.123Z</time>
      </trkpt>
      <trkpt lat="43.26429" lon="2.11046">
        <ele>177.963336</ele>
        <time>2023-01-04T15:48:06.105Z</time>
      </trkpt>
      <trkpt lat="43.26418" lon="2.11052">
        <ele>177.877573</ele>
        <time>2023-01-04T15:48:09.120Z</time>
      </trkpt>
      <trkpt lat="43.26407" lon="2.11058">
        <ele>177.794246</ele>
        <time>2023-01-04T15:48:12.110Z</time>
      </trkpt>
      <trkpt lat="43.26396" lon="2.11063">
        <ele>177.710345</ele>
        <time>2023-01-04T15:48:15.115Z</time>
      </trkpt>
      <trkpt lat="43.26386" lon="2.11069">
        <ele>177.629031</ele>
        <time>2023-01-04T15:48:18.107Z</time>
      </trkpt>
      <trkpt lat="43.26375" lon="2.11076">
        <ele>177.543081</ele>
        <time>2023-01-04T15:48:21.122Z</time>
      </trkpt>
      <trkpt lat="43.26365" lon="2.11082">
        <ele>177.459803</ele>
        <time>2023-01-04T15:48:24.125Z</time>
      </trkpt>
      <trkpt lat="43.26354" lon="2.11088">
        <ele>177.375859</ele>
        <time>2023-01-04T15:48:27.123Z</time>
      </trkpt>
      <trkpt lat="43.26343" lon="2.11094">
        <ele>177.254241</ele>
        <time>2023-01-04T15:48:30.110Z</time>
      </trkpt>
      <trkpt lat="43.26333" lon="2.111">
        <ele>177.136869</ele>
        <time>2023-01-04T15:48:33.103Z</time>
      </trkpt>
      <trkpt lat="43.26322" lon="2.11107">
        <ele>177.00766</ele>
        <time>2023-01-04T15:48:36.102Z</time>
      </trkpt>
      <trkpt lat="43.26311" lon="2.11113">
        <ele>176.875829</ele>
        <time>2023-01-04T15:48:39.103Z</time>
      </trkpt>
      <trkpt lat="43.263" lon="2.1112">
        <ele>176.74485</ele>
        <time>2023-01-04T15:48:42.111Z</time>
      </trkpt>
      <trkpt lat="43.2629" lon="2.11125">
        <ele>176.625267</ele>
        <time>2023-01-04T15:48:45.113Z</time>
      </trkpt>
      <trkpt lat="43.26279" lon="2.11131">
        <ele>176.501331</ele>
        <time>2023-01-04T15:48:48.101Z</time>
      </trkpt>
      <trkpt lat="43.26268" lon="2.11138">
        <ele>176.36603</ele>
        <time>2023-01-04T15:48:51.115Z</time>
      </trkpt>
      <trkpt lat="43.26257" lon="2.11144">
        <ele>176.23996</ele>
        <time>2023-01-04T15:48:54.102Z</time>
      </trkpt>
      <trkpt lat="43.26246" lon="2.11152">
        <ele>176.111997</ele>
        <time>2023-01-04T15:48:57.100Z</time>
      </trkpt>
      <trkpt lat="43.26236" lon="2.11159">
        <ele>175.983729</ele>
        <time>2023-01-04T15:49:00.116Z</time>
      </trkpt>
      <trkpt lat="43.26226" lon="2.11167">
        <ele>175.859666</ele>
        <time>2023-01-04T15:49:03.104Z</time>
      </trkpt>
      <trkpt lat="43.26217" lon="2.11175">
        <ele>175.742894</ele>
        <time>2023-01-04T15:49:06.106Z</time>
      </trkpt>
      <trkpt lat="43.26206" lon="2.11181">
        <ele>175.616655</ele>
        <time>2023-01-04T15:49:09.111Z</time>
      </trkpt>
      <trkpt lat="43.26196" lon="2.11189">
        <ele>175.488125</ele>
        <time>2023-01-04T15:49:12.105Z</time>
      </trkpt>
      <trkpt lat="43.26186" lon="2.11198">
        <ele>175.44526</ele>
        <time>2023-01-04T15:49:15.099Z</time>
      </trkpt>
      <trkpt lat="43.26175" lon="2.11207">
        <ele>175.525807</ele>
        <time>2023-01-04T15:49:18.100Z</time>
      </trkpt>
      <trkpt lat="43.26167" lon="2.11218">
        <ele>175.599147</ele>
        <time>2023-01-04T15:49:21.103Z</time>
      </trkpt>
      <trkpt lat="43.26159" lon="2.11229">
        <ele>175.669034</ele>
        <time>2023-01-04T15:49:24.106Z</time>
      </trkpt>
      <trkpt lat="43.26152" lon="2.11241">
        <ele>175.743491</ele>
        <time>2023-01-04T15:49:27.101Z</time>
      </trkpt>
      <trkpt lat="43.26146" lon="2.11255">
        <ele>175.814937</ele>
        <time>2023-01-04T15:49:30.103Z</time>
      </trkpt>
      <trkpt lat="43.2614" lon="2.11269">
        <ele>175.891774</ele>
        <time>2023-01-04T15:49:33.113Z</time>
      </trkpt>
      <trkpt lat="43.26134" lon="2.11283">
        <ele>175.970851</ele>
        <time>2023-01-04T15:49:36.107Z</time>
      </trkpt>
      <trkpt lat="43.26127" lon="2.11298">
        <ele>176.051699</ele>
        <time>2023-01-04T15:49:39.103Z</time>
      </trkpt>
      <trkpt lat="43.26121" lon="2.11313">
        <ele>176.132948</ele>
        <time>2023-01-04T15:49:42.106Z</time>
      </trkpt>
      <trkpt lat="43.26116" lon="2.11324">
        <ele>176.19041</ele>
        <time>2023-01-04T15:49:44.102Z</time>
      </trkpt>
      <trkpt lat="43.26112" lon="2.11335">
        <ele>176.24806</ele>
        <time>2023-01-04T15:49:46.111Z</time>
      </trkpt>
      <trkpt lat="43.26108" lon="2.11346">
        <ele>176.305844</ele>
        <time>2023-01-04T15:49:48.108Z</time>
      </trkpt>
      <trkpt lat="43.26103" lon="2.11357">
        <ele>176.363604</ele>
        <time>2023-01-04T15:49:50.104Z</time>
      </trkpt>
      <trkpt lat="43.26098" lon="2.11368">
        <ele>176.423174</ele>
        <time>2023-01-04T15:49:52.104Z</time>
      </trkpt>
      <trkpt lat="43.26094" lon="2.11379">
        <ele>176.481234</ele>
        <time>2023-01-04T15:49:54.117Z</time>
      </trkpt>
      <trkpt lat="43.2609" lon="2.1139">
        <ele>176.540233</ele>
        <time>2023-01-04T15:49:56.120Z</time>
      </trkpt>
      <trkpt lat="43.26086" lon="2.11401">
        <ele>176.555697</ele>
        <time>2023-01-04T15:49:58.124Z</time>
      </trkpt>
      <trkpt lat="43.26081" lon="2.11413">
        <ele>176.545764</ele>
        <time>2023-01-04T15:50:00.101Z</time>
      </trkpt>
      <trkpt lat="43.26077" lon="2.11423">
        <ele>176.536174</ele>
        <time>2023-01-04T15:50:02.110Z</time>
      </trkpt>
      <trkpt lat="43.26072" lon="2.11434">
        <ele>176.526366</ele>
        <time>2023-01-04T15:50:04.122Z</time>
      </trkpt>
      <trkpt lat="43.26067" lon="2.11446">
        <ele>176.516433</ele>
        <time>2023-01-04T15:50:06.117Z</time>
      </trkpt>
      <trkpt lat="43.26063" lon="2.11458">
        <ele>176.50633</ele>
        <time>2023-01-04T15:50:08.135Z</time>
      </trkpt>
      <trkpt lat="43.26058" lon="2.11469">
        <ele>176.496712</ele>
        <time>2023-01-04T15:50:10.115Z</time>
      </trkpt>
      <trkpt lat="43.26054" lon="2.1148">
        <ele>176.487078</ele>
        <time>2023-01-04T15:50:12.111Z</time>
      </trkpt>
      <trkpt lat="43.26048" lon="2.11495">
        <ele>176.474087</ele>
        <time>2023-01-04T15:50:15.123Z</time>
      </trkpt>
      <trkpt lat="43.26041" lon="2.1151">
        <ele>176.461023</ele>
        <time>2023-01-04T15:50:18.119Z</time>
      </trkpt>
      <trkpt lat="43.26037" lon="2.11521">
        <ele>176.451616</ele>
        <time>2023-01-04T15:50:20.133Z</time>
      </trkpt>
      <trkpt lat="43.26032" lon="2.11531">
        <ele>176.442197</ele>
        <time>2023-01-04T15:50:22.110Z</time>
      </trkpt>
      <trkpt lat="43.26028" lon="2.11543">
        <ele>176.432447</ele>
        <time>2023-01-04T15:50:24.126Z</time>
      </trkpt>
      <trkpt lat="43.26023" lon="2.11554">
        <ele>176.422707</ele>
        <time>2023-01-04T15:50:26.111Z</time>
      </trkpt>
      <trkpt lat="43.26019" lon="2.11565">
        <ele>176.412921</ele>
        <time>2023-01-04T15:50:28.100Z</time>
      </trkpt>
      <trkpt lat="43.26013" lon="2.11576">
        <ele>176.402579</ele>
        <time>2023-01-04T15:50:30.108Z</time>
      </trkpt>
      <trkpt lat="43.26006" lon="2.11592">
        <ele>176.388933</ele>
        <time>2023-01-04T15:50:33.113Z</time>
      </trkpt>
      <trkpt lat="43.26002" lon="2.11604">
        <ele>176.379079</ele>
        <time>2023-01-04T15:50:35.110Z</time>
      </trkpt>
      <trkpt lat="43.25997" lon="2.11615">
        <ele>176.373307</ele>
        <time>2023-01-04T15:50:37.109Z</time>
      </trkpt>
      <trkpt lat="43.25992" lon="2.11628">
        <ele>176.370842</ele>
        <time>2023-01-04T15:50:39.110Z</time>
      </trkpt>
      <trkpt lat="43.25987" lon="2.1164">
        <ele>176.36853</ele>
        <time>2023-01-04T15:50:41.117Z</time>
      </trkpt>
      <trkpt lat="43.25983" lon="2.11651">
        <ele>176.366286</ele>
        <time>2023-01-04T15:50:43.127Z</time>
      </trkpt>
      <trkpt lat="43.25978" lon="2.11663">
        <ele>176.364077</ele>
        <time>2023-01-04T15:50:45.113Z</time>
      </trkpt>
      <trkpt lat="43.25974" lon="2.11674">
        <ele>176.361906</ele>
        <time>2023-01-04T15:50:47.101Z</time>
      </trkpt>
      <trkpt lat="43.25967" lon="2.11688">
        <ele>176.358987</ele>
        <time>2023-01-04T15:50:50.106Z</time>
      </trkpt>
      <trkpt lat="43.25962" lon="2.11703">
        <ele>176.356235</ele>
        <time>2023-01-04T15:50:53.110Z</time>
      </trkpt>
      <trkpt lat="43.25955" lon="2.11718">
        <ele>176.353152</ele>
        <time>2023-01-04T15:50:56.106Z</time>
      </trkpt>
      <trkpt lat="43.2595" lon="2.11729">
        <ele>176.350919</ele>
        <time>2023-01-04T15:50:58.111Z</time>
      </trkpt>
      <trkpt lat="43.25945" lon="2.1174">
        <ele>176.348788</ele>
        <time>2023-01-04T15:51:00.107Z</time>
      </trkpt>
      <trkpt lat="43.25941" lon="2.11751">
        <ele>176.346553</ele>
        <time>2023-01-04T15:51:02.114Z</time>
      </trkpt>
      <trkpt lat="43.25936" lon="2.11763">
        <ele>176.344367</ele>
        <time>2023-01-04T15:51:04.134Z</time>
      </trkpt>
      <trkpt lat="43.25931" lon="2.11774">
        <ele>176.342066</ele>
        <time>2023-01-04T15:51:06.111Z</time>
      </trkpt>
      <trkpt lat="43.25926" lon="2.11785">
        <ele>176.33986</ele>
        <time>2023-01-04T15:51:08.136Z</time>
      </trkpt>
      <trkpt lat="43.2592" lon="2.11801">
        <ele>176.336841</ele>
        <time>2023-01-04T15:51:11.108Z</time>
      </trkpt>
      <trkpt lat="43.25914" lon="2.11816">
        <ele>176.333802</ele>
        <time>2023-01-04T15:51:14.106Z</time>
      </trkpt>
      <trkpt lat="43.25907" lon="2.11832">
        <ele>176.194666</ele>
        <time>2023-01-04T15:51:17.110Z</time>
      </trkpt>
      <trkpt lat="43.259" lon="2.11848">
        <ele>175.96017</ele>
        <time>2023-01-04T15:51:20.110Z</time>
      </trkpt>
      <trkpt lat="43.25893" lon="2.11863">
        <ele>175.738887</ele>
        <time>2023-01-04T15:51:23.119Z</time>
      </trkpt>
      <trkpt lat="43.25886" lon="2.11878">
        <ele>175.508147</ele>
        <time>2023-01-04T15:51:26.104Z</time>
      </trkpt>
      <trkpt lat="43.25881" lon="2.11889">
        <ele>175.348895</ele>
        <time>2023-01-04T15:51:28.123Z</time>
      </trkpt>
      <trkpt lat="43.25875" lon="2.11905">
        <ele>175.112353</ele>
        <time>2023-01-04T15:51:31.110Z</time>
      </trkpt>
      <trkpt lat="43.25869" lon="2.11921">
        <ele>174.886399</ele>
        <time>2023-01-04T15:51:34.117Z</time>
      </trkpt>
      <trkpt lat="43.25864" lon="2.11937">
        <ele>174.668078</ele>
        <time>2023-01-04T15:51:37.105Z</time>
      </trkpt>
      <trkpt lat="43.25858" lon="2.1195">
        <ele>174.466373</ele>
        <time>2023-01-04T15:51:40.117Z</time>
      </trkpt>
      <trkpt lat="43.25852" lon="2.11964">
        <ele>174.266443</ele>
        <time>2023-01-04T15:51:43.123Z</time>
      </trkpt>
      <trkpt lat="43.25851" lon="2.11976">
        <ele>174.105721</ele>
        <time>2023-01-04T15:51:46.134Z</time>
      </trkpt>
      <trkpt lat="43.25853" lon="2.11992">
        <ele>173.900907</ele>
        <time>2023-01-04T15:51:49.135Z</time>
      </trkpt>
      <trkpt lat="43.2585" lon="2.12004">
        <ele>173.738198</ele>
        <time>2023-01-04T15:51:51.107Z</time>
      </trkpt>
      <trkpt lat="43.25843" lon="2.12019">
        <ele>173.514715</ele>
        <time>2023-01-04T15:51:54.122Z</time>
      </trkpt>
      <trkpt lat="43.25838" lon="2.12034">
        <ele>173.304012</ele>
        <time>2023-01-04T15:51:57.103Z</time>
      </trkpt>
      <trkpt lat="43.25831" lon="2.12047">
        <ele>173.144661</ele>
        <time>2023-01-04T15:52:00.101Z</time>
      </trkpt>
      <trkpt lat="43.25823" lon="2.12056">
        <ele>173.050818</ele>
        <time>2023-01-04T15:52:03.114Z</time>
      </trkpt>
      <trkpt lat="43.25813" lon="2.1206">
        <ele>172.961796</ele>
        <time>2023-01-04T15:52:06.135Z</time>
      </trkpt>
      <trkpt lat="43.25807" lon="2.1207">
        <ele>172.881258</ele>
        <time>2023-01-04T15:52:08.135Z</time>
      </trkpt>
      <trkpt lat="43.25802" lon="2.12081">
        <ele>172.79945</ele>
        <time>2023-01-04T15:52:10.135Z</time>
      </trkpt>
      <trkpt lat="43.25797" lon="2.12093">
        <ele>172.709552</ele>
        <time>2023-01-04T15:52:12.108Z</time>
      </trkpt>
      <trkpt lat="43.25792" lon="2.12105">
        <ele>172.623883</ele>
        <time>2023-01-04T15:52:14.122Z</time>
      </trkpt>
      <trkpt lat="43.25787" lon="2.12117">
        <ele>172.539216</ele>
        <time>2023-01-04T15:52:16.110Z</time>
      </trkpt>
      <trkpt lat="43.25782" lon="2.12129">
        <ele>172.451175</ele>
        <time>2023-01-04T15:52:18.112Z</time>
      </trkpt>
      <trkpt lat="43.25777" lon="2.12141">
        <ele>172.363007</ele>
        <time>2023-01-04T15:52:20.119Z</time>
      </trkpt>
      <trkpt lat="43.25772" lon="2.12153">
        <ele>172.276806</ele>
        <time>2023-01-04T15:52:22.121Z</time>
      </trkpt>
      <trkpt lat="43.25767" lon="2.12165">
        <ele>172.185272</ele>
        <time>2023-01-04T15:52:24.100Z</time>
      </trkpt>
      <trkpt lat="43.25762" lon="2.12178">
        <ele>172.093493</ele>
        <time>2023-01-04T15:52:26.106Z</time>
      </trkpt>
      <trkpt lat="43.25756" lon="2.1219">
        <ele>172.000973</ele>
        <time>2023-01-04T15:52:28.114Z</time>
      </trkpt>
      <trkpt lat="43.25751" lon="2.12203">
        <ele>171.906477</ele>
        <time>2023-01-04T15:52:30.133Z</time>
      </trkpt>
      <trkpt lat="43.25746" lon="2.12216">
        <ele>171.811505</ele>
        <time>2023-01-04T15:52:32.121Z</time>
      </trkpt>
      <trkpt lat="43.2574" lon="2.12229">
        <ele>171.718439</ele>
        <time>2023-01-04T15:52:34.123Z</time>
      </trkpt>
      <trkpt lat="43.25736" lon="2.12241">
        <ele>171.633326</ele>
        <time>2023-01-04T15:52:36.135Z</time>
      </trkpt>
      <trkpt lat="43.25731" lon="2.12252">
        <ele>171.663844</ele>
        <time>2023-01-04T15:52:38.113Z</time>
      </trkpt>
      <trkpt lat="43.25726" lon="2.12264">
        <ele>171.707668</ele>
        <time>2023-01-04T15:52:40.124Z</time>
      </trkpt>
      <trkpt lat="43.2572" lon="2.12275">
        <ele>171.753387</ele>
        <time>2023-01-04T15:52:42.126Z</time>
      </trkpt>
      <trkpt lat="43.25716" lon="2.12287">
        <ele>171.796993</ele>
        <time>2023-01-04T15:52:44.111Z</time>
      </trkpt>
      <trkpt lat="43.25711" lon="2.123">
        <ele>171.843971</ele>
        <time>2023-01-04T15:52:46.107Z</time>
      </trkpt>
      <trkpt lat="43.25705" lon="2.12311">
        <ele>171.88819</ele>
        <time>2023-01-04T15:52:48.098Z</time>
      </trkpt>
      <trkpt lat="43.257" lon="2.12324">
        <ele>171.935592</ele>
        <time>2023-01-04T15:52:50.125Z</time>
      </trkpt>
      <trkpt lat="43.25695" lon="2.12336">
        <ele>171.983929</ele>
        <time>2023-01-04T15:52:52.136Z</time>
      </trkpt>
      <trkpt lat="43.2569" lon="2.12349">
        <ele>172.031907</ele>
        <time>2023-01-04T15:52:54.103Z</time>
      </trkpt>
      <trkpt lat="43.25684" lon="2.12363">
        <ele>172.080882</ele>
        <time>2023-01-04T15:52:56.106Z</time>
      </trkpt>
      <trkpt lat="43.25679" lon="2.12375">
        <ele>172.126961</ele>
        <time>2023-01-04T15:52:58.114Z</time>
      </trkpt>
      <trkpt lat="43.25674" lon="2.12387">
        <ele>172.174621</ele>
        <time>2023-01-04T15:53:00.104Z</time>
      </trkpt>
      <trkpt lat="43.25669" lon="2.124">
        <ele>172.221202</ele>
        <time>2023-01-04T15:53:02.115Z</time>
      </trkpt>
      <trkpt lat="43.25664" lon="2.12412">
        <ele>172.267961</ele>
        <time>2023-01-04T15:53:04.103Z</time>
      </trkpt>
      <trkpt lat="43.25659" lon="2.12425">
        <ele>172.315729</ele>
        <time>2023-01-04T15:53:06.103Z</time>
      </trkpt>
      <trkpt lat="43.25653" lon="2.12437">
        <ele>172.360933</ele>
        <time>2023-01-04T15:53:08.108Z</time>
      </trkpt>
      <trkpt lat="43.25649" lon="2.12449">
        <ele>172.405271</ele>
        <time>2023-01-04T15:53:10.101Z</time>
      </trkpt>
      <trkpt lat="43.25644" lon="2.12461">
        <ele>172.445105</ele>
        <time>2023-01-04T15:53:12.110Z</time>
      </trkpt>
      <trkpt lat="43.25639" lon="2.12473">
        <ele>172.479824</ele>
        <time>2023-01-04T15:53:14.107Z</time>
      </trkpt>
      <trkpt lat="43.25634" lon="2.12485">
        <ele>172.513511</ele>
        <time>2023-01-04T15:53:16.107Z</time>
      </trkpt>
      <trkpt lat="43.25629" lon="2.12497">
        <ele>172.545854</ele>
        <time>2023-01-04T15:53:18.099Z</time>
      </trkpt>
      <trkpt lat="43.25624" lon="2.12508">
        <ele>172.579328</ele>
        <time>2023-01-04T15:53:20.109Z</time>
      </trkpt>
      <trkpt lat="43.2562" lon="2.1252">
        <ele>172.612007</ele>
        <time>2023-01-04T15:53:22.104Z</time>
      </trkpt>
      <trkpt lat="43.25613" lon="2.12537">
        <ele>172.657675</ele>
        <time>2023-01-04T15:53:25.106Z</time>
      </trkpt>
      <trkpt lat="43.25607" lon="2.12551">
        <ele>172.698306</ele>
        <time>2023-01-04T15:53:28.121Z</time>
      </trkpt>
      <trkpt lat="43.25602" lon="2.12564">
        <ele>172.734367</ele>
        <time>2023-01-04T15:53:31.111Z</time>
      </trkpt>
      <trkpt lat="43.25597" lon="2.12577">
        <ele>172.770525</ele>
        <time>2023-01-04T15:53:34.107Z</time>
      </trkpt>
      <trkpt lat="43.25591" lon="2.1259">
        <ele>172.808355</ele>
        <time>2023-01-04T15:53:37.125Z</time>
      </trkpt>
      <trkpt lat="43.25586" lon="2.12604">
        <ele>172.846772</ele>
        <time>2023-01-04T15:53:40.105Z</time>
      </trkpt>
      <trkpt lat="43.25582" lon="2.12618">
        <ele>172.882008</ele>
        <time>2023-01-04T15:53:43.103Z</time>
      </trkpt>
      <trkpt lat="43.25578" lon="2.1263">
        <ele>172.916004</ele>
        <time>2023-01-04T15:53:46.110Z</time>
      </trkpt>
      <trkpt lat="43.25573" lon="2.12641">
        <ele>172.947326</ele>
        <time>2023-01-04T15:53:49.108Z</time>
      </trkpt>
      <trkpt lat="43.25569" lon="2.12655">
        <ele>172.983801</ele>
        <time>2023-01-04T15:53:53.122Z</time>
      </trkpt>
      <trkpt lat="43.25564" lon="2.1267">
        <ele>173.023751</ele>
        <time>2023-01-04T15:55:23.136Z</time>
      </trkpt>
      <trkpt lat="43.25559" lon="2.12684">
        <ele>173.024423</ele>
        <time>2023-01-04T15:55:32.113Z</time>
      </trkpt>
      <trkpt lat="43.25554" lon="2.12694">
        <ele>173.009563</ele>
        <time>2023-01-04T15:55:36.105Z</time>
      </trkpt>
      <trkpt lat="43.25549" lon="2.12707">
        <ele>172.992311</ele>
        <time>2023-01-04T15:55:39.101Z</time>
      </trkpt>
      <trkpt lat="43.25543" lon="2.12723">
        <ele>172.97061</ele>
        <time>2023-01-04T15:55:42.105Z</time>
      </trkpt>
      <trkpt lat="43.25538" lon="2.12734">
        <ele>172.955006</ele>
        <time>2023-01-04T15:55:44.110Z</time>
      </trkpt>
      <trkpt lat="43.25531" lon="2.12748">
        <ele>172.935231</ele>
        <time>2023-01-04T15:55:47.103Z</time>
      </trkpt>
      <trkpt lat="43.25527" lon="2.12761">
        <ele>172.917664</ele>
        <time>2023-01-04T15:55:50.114Z</time>
      </trkpt>
      <trkpt lat="43.25522" lon="2.12772">
        <ele>172.901817</ele>
        <time>2023-01-04T15:55:53.104Z</time>
      </trkpt>
      <trkpt lat="43.25517" lon="2.12785">
        <ele>172.884501</ele>
        <time>2023-01-04T15:55:57.105Z</time>
      </trkpt>
      <trkpt lat="43.25511" lon="2.12798">
        <ele>172.866251</ele>
        <time>2023-01-04T15:56:02.107Z</time>
      </trkpt>
      <trkpt lat="43.25506" lon="2.12811">
        <ele>172.848268</ele>
        <time>2023-01-04T15:56:06.118Z</time>
      </trkpt>
      <trkpt lat="43.255" lon="2.12823">
        <ele>172.831564</ele>
        <time>2023-01-04T15:56:09.109Z</time>
      </trkpt>
      <trkpt lat="43.25495" lon="2.12835">
        <ele>172.815226</ele>
        <time>2023-01-04T15:56:12.104Z</time>
      </trkpt>
      <trkpt lat="43.25489" lon="2.12845">
        <ele>172.799596</ele>
        <time>2023-01-04T15:56:15.113Z</time>
      </trkpt>
      <trkpt lat="43.25485" lon="2.12857">
        <ele>172.784141</ele>
        <time>2023-01-04T15:56:18.105Z</time>
      </trkpt>
      <trkpt lat="43.2548" lon="2.1287">
        <ele>172.767046</ele>
        <time>2023-01-04T15:56:21.105Z</time>
      </trkpt>
      <trkpt lat="43.25475" lon="2.1288">
        <ele>172.751849</ele>
        <time>2023-01-04T15:56:24.122Z</time>
      </trkpt>
      <trkpt lat="43.2547" lon="2.12893">
        <ele>172.685425</ele>
        <time>2023-01-04T15:56:27.124Z</time>
      </trkpt>
      <trkpt lat="43.25465" lon="2.12905">
        <ele>172.542491</ele>
        <time>2023-01-04T15:56:30.108Z</time>
      </trkpt>
      <trkpt lat="43.2546" lon="2.12917">
        <ele>172.414349</ele>
        <time>2023-01-04T15:56:33.120Z</time>
      </trkpt>
      <trkpt lat="43.25456" lon="2.12931">
        <ele>172.260083</ele>
        <time>2023-01-04T15:56:37.116Z</time>
      </trkpt>
      <trkpt lat="43.25451" lon="2.12943">
        <ele>172.125145</ele>
        <time>2023-01-04T15:56:41.104Z</time>
      </trkpt>
      <trkpt lat="43.25443" lon="2.12955">
        <ele>171.966699</ele>
        <time>2023-01-04T15:56:45.118Z</time>
      </trkpt>
      <trkpt lat="43.25439" lon="2.12968">
        <ele>171.824995</ele>
        <time>2023-01-04T15:56:48.108Z</time>
      </trkpt>
      <trkpt lat="43.25434" lon="2.12979">
        <ele>171.702112</ele>
        <time>2023-01-04T15:56:51.112Z</time>
      </trkpt>
      <trkpt lat="43.25428" lon="2.1299">
        <ele>171.570805</ele>
        <time>2023-01-04T15:56:54.135Z</time>
      </trkpt>
      <trkpt lat="43.25425" lon="2.13002">
        <ele>171.439267</ele>
        <time>2023-01-04T15:56:57.105Z</time>
      </trkpt>
      <trkpt lat="43.2542" lon="2.13013">
        <ele>171.311156</ele>
        <time>2023-01-04T15:57:00.109Z</time>
      </trkpt>
      <trkpt lat="43.25415" lon="2.13026">
        <ele>171.175508</ele>
        <time>2023-01-04T15:57:03.113Z</time>
      </trkpt>
      <trkpt lat="43.2541" lon="2.13037">
        <ele>171.041781</ele>
        <time>2023-01-04T15:57:06.100Z</time>
      </trkpt>
      <trkpt lat="43.25405" lon="2.13049">
        <ele>170.906695</ele>
        <time>2023-01-04T15:57:09.115Z</time>
      </trkpt>
      <trkpt lat="43.25401" lon="2.1306">
        <ele>170.782486</ele>
        <time>2023-01-04T15:57:12.113Z</time>
      </trkpt>
      <trkpt lat="43.25395" lon="2.13073">
        <ele>170.630967</ele>
        <time>2023-01-04T15:57:16.119Z</time>
      </trkpt>
      <trkpt lat="43.2539" lon="2.13084">
        <ele>170.505037</ele>
        <time>2023-01-04T15:57:19.103Z</time>
      </trkpt>
      <trkpt lat="43.25384" lon="2.131">
        <ele>170.331982</ele>
        <time>2023-01-04T15:57:23.108Z</time>
      </trkpt>
      <trkpt lat="43.25378" lon="2.13114">
        <ele>170.296039</ele>
        <time>2023-01-04T15:57:26.108Z</time>
      </trkpt>
      <trkpt lat="43.25373" lon="2.13126">
        <ele>170.280685</ele>
        <time>2023-01-04T15:57:29.115Z</time>
      </trkpt>
      <trkpt lat="43.25367" lon="2.1314">
        <ele>170.263859</ele>
        <time>2023-01-04T15:57:32.134Z</time>
      </trkpt>
      <trkpt lat="43.25361" lon="2.13154">
        <ele>170.246521</ele>
        <time>2023-01-04T15:57:35.112Z</time>
      </trkpt>
      <trkpt lat="43.25356" lon="2.13167">
        <ele>170.230704</ele>
        <time>2023-01-04T15:57:38.112Z</time>
      </trkpt>
      <trkpt lat="43.2535" lon="2.13177">
        <ele>170.216656</ele>
        <time>2023-01-04T15:57:41.116Z</time>
      </trkpt>
      <trkpt lat="43.25346" lon="2.13189">
        <ele>170.20341</ele>
        <time>2023-01-04T15:57:44.110Z</time>
      </trkpt>
      <trkpt lat="43.25341" lon="2.13201">
        <ele>170.188858</ele>
        <time>2023-01-04T15:57:48.135Z</time>
      </trkpt>
      <trkpt lat="43.25336" lon="2.13211">
        <ele>170.175456</ele>
        <time>2023-01-04T15:57:52.114Z</time>
      </trkpt>
      <trkpt lat="43.2533" lon="2.13225">
        <ele>170.159018</ele>
        <time>2023-01-04T15:57:56.112Z</time>
      </trkpt>
      <trkpt lat="43.25326" lon="2.13236">
        <ele>170.146002</ele>
        <time>2023-01-04T15:57:59.112Z</time>
      </trkpt>
      <trkpt lat="43.25321" lon="2.13249">
        <ele>170.130628</ele>
        <time>2023-01-04T15:58:02.109Z</time>
      </trkpt>
      <trkpt lat="43.25316" lon="2.13261">
        <ele>170.115123</ele>
        <time>2023-01-04T15:58:05.120Z</time>
      </trkpt>
      <trkpt lat="43.2531" lon="2.13274">
        <ele>170.098941</ele>
        <time>2023-01-04T15:58:08.106Z</time>
      </trkpt>
      <trkpt lat="43.25305" lon="2.13289">
        <ele>170.081581</ele>
        <time>2023-01-04T15:58:11.118Z</time>
      </trkpt>
      <trkpt lat="43.25299" lon="2.13303">
        <ele>170.064775</ele>
        <time>2023-01-04T15:58:14.109Z</time>
      </trkpt>
      <trkpt lat="43.25293" lon="2.13315">
        <ele>170.049756</ele>
        <time>2023-01-04T15:58:17.101Z</time>
      </trkpt>
      <trkpt lat="43.25287" lon="2.13328">
        <ele>170.008824</ele>
        <time>2023-01-04T15:58:20.114Z</time>
      </trkpt>
      <trkpt lat="43.25281" lon="2.13343">
        <ele>169.964968</ele>
        <time>2023-01-04T15:58:23.102Z</time>
      </trkpt>
      <trkpt lat="43.25275" lon="2.13357">
        <ele>169.923466</ele>
        <time>2023-01-04T15:58:26.101Z</time>
      </trkpt>
      <trkpt lat="43.25269" lon="2.1337">
        <ele>169.883987</ele>
        <time>2023-01-04T15:58:29.106Z</time>
      </trkpt>
      <trkpt lat="43.25264" lon="2.13382">
        <ele>169.847566</ele>
        <time>2023-01-04T15:58:32.105Z</time>
      </trkpt>
      <trkpt lat="43.25259" lon="2.13396">
        <ele>169.805821</ele>
        <time>2023-01-04T15:58:35.107Z</time>
      </trkpt>
      <trkpt lat="43.25254" lon="2.13409">
        <ele>169.767233</ele>
        <time>2023-01-04T15:58:38.100Z</time>
      </trkpt>
      <trkpt lat="43.25249" lon="2.13423">
        <ele>169.726873</ele>
        <time>2023-01-04T15:58:41.107Z</time>
      </trkpt>
      <trkpt lat="43.25245" lon="2.13436">
        <ele>169.689916</ele>
        <time>2023-01-04T15:58:44.112Z</time>
      </trkpt>
      <trkpt lat="43.25243" lon="2.13449">
        <ele>169.655552</ele>
        <time>2023-01-04T15:58:48.112Z</time>
      </trkpt>
      <trkpt lat="43.2524" lon="2.13461">
        <ele>169.622052</ele>
        <time>2023-01-04T15:58:58.113Z</time>
      </trkpt>
      <trkpt lat="43.25231" lon="2.13466">
        <ele>169.587946</ele>
        <time>2023-01-04T15:59:10.133Z</time>
      </trkpt>
      <trkpt lat="43.25223" lon="2.13475">
        <ele>169.553371</ele>
        <time>2023-01-04T15:59:15.117Z</time>
      </trkpt>
      <trkpt lat="43.2522" lon="2.13489">
        <ele>169.514986</ele>
        <time>2023-01-04T15:59:20.102Z</time>
      </trkpt>
      <trkpt lat="43.25214" lon="2.13501">
        <ele>169.477174</ele>
        <time>2023-01-04T15:59:24.106Z</time>
      </trkpt>
      <trkpt lat="43.2521" lon="2.13513">
        <ele>169.441361</ele>
        <time>2023-01-04T15:59:29.136Z</time>
      </trkpt>
      <trkpt lat="43.25204" lon="2.13526">
        <ele>169.403848</ele>
        <time>2023-01-04T15:59:34.106Z</time>
      </trkpt>
      <trkpt lat="43.25199" lon="2.13541">
        <ele>169.3705</ele>
        <time>2023-01-04T15:59:38.113Z</time>
      </trkpt>
      <trkpt lat="43.25194" lon="2.13552">
        <ele>169.344646</ele>
        <time>2023-01-04T15:59:41.106Z</time>
      </trkpt>
      <trkpt lat="43.25189" lon="2.13566">
        <ele>169.313841</ele>
        <time>2023-01-04T15:59:45.112Z</time>
      </trkpt>
      <trkpt lat="43.25183" lon="2.13577">
        <ele>169.285962</ele>
        <time>2023-01-04T15:59:50.101Z</time>
      </trkpt>
      <trkpt lat="43.25178" lon="2.13591">
        <ele>169.254868</ele>
        <time>2023-01-04T15:59:54.116Z</time>
      </trkpt>
      <trkpt lat="43.25174" lon="2.13603">
        <ele>169.227016</ele>
        <time>2023-01-04T15:59:58.106Z</time>
      </trkpt>
      <trkpt lat="43.25167" lon="2.13615">
        <ele>169.197183</ele>
        <time>2023-01-04T16:00:02.110Z</time>
      </trkpt>
      <trkpt lat="43.25162" lon="2.13625">
        <ele>169.172209</ele>
        <time>2023-01-04T16:00:05.117Z</time>
      </trkpt>
      <trkpt lat="43.25157" lon="2.13636">
        <ele>169.145913</ele>
        <time>2023-01-04T16:00:08.104Z</time>
      </trkpt>
      <trkpt lat="43.25152" lon="2.13648">
        <ele>169.119994</ele>
        <time>2023-01-04T16:00:11.117Z</time>
      </trkpt>
      <trkpt lat="43.25146" lon="2.13662">
        <ele>169.087734</ele>
        <time>2023-01-04T16:00:15.118Z</time>
      </trkpt>
      <trkpt lat="43.2514" lon="2.13673">
        <ele>169.059188</ele>
        <time>2023-01-04T16:00:18.117Z</time>
      </trkpt>
      <trkpt lat="43.25135" lon="2.13684">
        <ele>169.033844</ele>
        <time>2023-01-04T16:00:21.115Z</time>
      </trkpt>
      <trkpt lat="43.25131" lon="2.13699">
        <ele>169.001469</ele>
        <time>2023-01-04T16:00:25.104Z</time>
      </trkpt>
      <trkpt lat="43.25126" lon="2.13711">
        <ele>168.974324</ele>
        <time>2023-01-04T16:00:28.122Z</time>
      </trkpt>
      <trkpt lat="43.25121" lon="2.13723">
        <ele>168.946291</ele>
        <time>2023-01-04T16:00:31.114Z</time>
      </trkpt>
      <trkpt lat="43.25116" lon="2.13735">
        <ele>168.917461</ele>
        <time>2023-01-04T16:00:34.132Z</time>
      </trkpt>
      <trkpt lat="43.2511" lon="2.13749">
        <ele>168.916459</ele>
        <time>2023-01-04T16:00:37.111Z</time>
      </trkpt>
      <trkpt lat="43.25104" lon="2.13761">
        <ele>168.922124</ele>
        <time>2023-01-04T16:00:40.102Z</time>
      </trkpt>
      <trkpt lat="43.25098" lon="2.13774">
        <ele>168.928637</ele>
        <time>2023-01-04T16:00:44.112Z</time>
      </trkpt>
      <trkpt lat="43.25092" lon="2.13785">
        <ele>168.933659</ele>
        <time>2023-01-04T16:00:47.102Z</time>
      </trkpt>
      <trkpt lat="43.25087" lon="2.13796">
        <ele>168.939266</ele>
        <time>2023-01-04T16:00:50.104Z</time>
      </trkpt>
      <trkpt lat="43.25081" lon="2.13809">
        <ele>168.945236</ele>
        <time>2023-01-04T16:00:53.121Z</time>
      </trkpt>
      <trkpt lat="43.25075" lon="2.13822">
        <ele>168.951638</ele>
        <time>2023-01-04T16:00:56.106Z</time>
      </trkpt>
      <trkpt lat="43.25069" lon="2.13834">
        <ele>168.957311</ele>
        <time>2023-01-04T16:00:59.105Z</time>
      </trkpt>
      <trkpt lat="43.25065" lon="2.13847">
        <ele>168.962815</ele>
        <time>2023-01-04T16:01:02.104Z</time>
      </trkpt>
      <trkpt lat="43.25061" lon="2.13862">
        <ele>168.969297</ele>
        <time>2023-01-04T16:01:06.102Z</time>
      </trkpt>
      <trkpt lat="43.25055" lon="2.13875">
        <ele>168.975402</ele>
        <time>2023-01-04T16:01:09.111Z</time>
      </trkpt>
      <trkpt lat="43.25049" lon="2.13886">
        <ele>168.98098</ele>
        <time>2023-01-04T16:01:12.114Z</time>
      </trkpt>
      <trkpt lat="43.25043" lon="2.13899">
        <ele>168.987078</ele>
        <time>2023-01-04T16:01:15.109Z</time>
      </trkpt>
      <trkpt lat="43.25035" lon="2.13912">
        <ele>168.993891</ele>
        <time>2023-01-04T16:01:19.105Z</time>
      </trkpt>
      <trkpt lat="43.2503" lon="2.13925">
        <ele>168.999827</ele>
        <time>2023-01-04T16:01:22.111Z</time>
      </trkpt>
      <trkpt lat="43.25026" lon="2.13938">
        <ele>169.005516</ele>
        <time>2023-01-04T16:01:25.113Z</time>
      </trkpt>
      <trkpt lat="43.25022" lon="2.13951">
        <ele>169.019251</ele>
        <time>2023-01-04T16:01:28.112Z</time>
      </trkpt>
      <trkpt lat="43.25016" lon="2.13962">
        <ele>169.074489</ele>
        <time>2023-01-04T16:01:31.111Z</time>
      </trkpt>
      <trkpt lat="43.25011" lon="2.13973">
        <ele>169.131052</ele>
        <time>2023-01-04T16:01:34.127Z</time>
      </trkpt>
      <trkpt lat="43.25006" lon="2.13984">
        <ele>169.183961</ele>
        <time>2023-01-04T16:01:37.105Z</time>
      </trkpt>
      <trkpt lat="43.25" lon="2.13995">
        <ele>169.239475</ele>
        <time>2023-01-04T16:01:40.123Z</time>
      </trkpt>
      <trkpt lat="43.24995" lon="2.14008">
        <ele>169.302923</ele>
        <time>2023-01-04T16:01:43.111Z</time>
      </trkpt>
      <trkpt lat="43.2499" lon="2.1402">
        <ele>169.359706</ele>
        <time>2023-01-04T16:01:48.119Z</time>
      </trkpt>
      <trkpt lat="43.24985" lon="2.14034">
        <ele>169.42618</ele>
        <time>2023-01-04T16:01:52.148Z</time>
      </trkpt>
      <trkpt lat="43.24978" lon="2.14047">
        <ele>169.489102</ele>
        <time>2023-01-04T16:01:56.102Z</time>
      </trkpt>
      <trkpt lat="43.24971" lon="2.14059">
        <ele>169.556435</ele>
        <time>2023-01-04T16:02:00.122Z</time>
      </trkpt>
      <trkpt lat="43.24967" lon="2.14072">
        <ele>169.614966</ele>
        <time>2023-01-04T16:02:03.115Z</time>
      </trkpt>
      <trkpt lat="43.24961" lon="2.14084">
        <ele>169.673974</ele>
        <time>2023-01-04T16:02:06.105Z</time>
      </trkpt>
      <trkpt lat="43.24955" lon="2.14097">
        <ele>169.738574</ele>
        <time>2023-01-04T16:02:09.116Z</time>
      </trkpt>
      <trkpt lat="43.24948" lon="2.14109">
        <ele>169.804547</ele>
        <time>2023-01-04T16:02:12.112Z</time>
      </trkpt>
      <trkpt lat="43.24941" lon="2.14122">
        <ele>169.869161</ele>
        <time>2023-01-04T16:02:15.109Z</time>
      </trkpt>
      <trkpt lat="43.24933" lon="2.14134">
        <ele>169.937614</ele>
        <time>2023-01-04T16:02:18.111Z</time>
      </trkpt>
      <trkpt lat="43.24926" lon="2.14144">
        <ele>169.997531</ele>
        <time>2023-01-04T16:02:21.103Z</time>
      </trkpt>
      <trkpt lat="43.24919" lon="2.14154">
        <ele>170.033147</ele>
        <time>2023-01-04T16:02:24.117Z</time>
      </trkpt>
      <trkpt lat="43.24913" lon="2.14166">
        <ele>170.011868</ele>
        <time>2023-01-04T16:02:27.109Z</time>
      </trkpt>
      <trkpt lat="43.24906" lon="2.14179">
        <ele>169.989843</ele>
        <time>2023-01-04T16:02:30.102Z</time>
      </trkpt>
      <trkpt lat="43.24901" lon="2.14189">
        <ele>169.971623</ele>
        <time>2023-01-04T16:02:33.102Z</time>
      </trkpt>
      <trkpt lat="43.24894" lon="2.14202">
        <ele>169.949247</ele>
        <time>2023-01-04T16:02:37.101Z</time>
      </trkpt>
      <trkpt lat="43.24888" lon="2.14213">
        <ele>169.928837</ele>
        <time>2023-01-04T16:02:41.104Z</time>
      </trkpt>
      <trkpt lat="43.24882" lon="2.14225">
        <ele>169.908884</ele>
        <time>2023-01-04T16:02:44.112Z</time>
      </trkpt>
      <trkpt lat="43.24875" lon="2.14237">
        <ele>169.885906</ele>
        <time>2023-01-04T16:02:47.106Z</time>
      </trkpt>
      <trkpt lat="43.24869" lon="2.14247">
        <ele>169.867879</ele>
        <time>2023-01-04T16:02:50.107Z</time>
      </trkpt>
      <trkpt lat="43.24863" lon="2.14259">
        <ele>169.847203</ele>
        <time>2023-01-04T16:02:53.113Z</time>
      </trkpt>
      <trkpt lat="43.24857" lon="2.14269">
        <ele>169.828106</ele>
        <time>2023-01-04T16:02:56.108Z</time>
      </trkpt>
      <trkpt lat="43.2485" lon="2.14281">
        <ele>169.80613</ele>
        <time>2023-01-04T16:03:00.108Z</time>
      </trkpt>
      <trkpt lat="43.24843" lon="2.14292">
        <ele>169.786255</ele>
        <time>2023-01-04T16:03:03.116Z</time>
      </trkpt>
      <trkpt lat="43.24837" lon="2.14304">
        <ele>169.764462</ele>
        <time>2023-01-04T16:03:06.107Z</time>
      </trkpt>
      <trkpt lat="43.24829" lon="2.14317">
        <ele>169.741704</ele>
        <time>2023-01-04T16:03:09.107Z</time>
      </trkpt>
      <trkpt lat="43.24823" lon="2.14328">
        <ele>169.721295</ele>
        <time>2023-01-04T16:03:12.108Z</time>
      </trkpt>
      <trkpt lat="43.24817" lon="2.14339">
        <ele>169.7011</ele>
        <time>2023-01-04T16:03:15.120Z</time>
      </trkpt>
      <trkpt lat="43.2481" lon="2.14349">
        <ele>169.682133</ele>
        <time>2023-01-04T16:03:18.110Z</time>
      </trkpt>
      <trkpt lat="43.24803" lon="2.14359">
        <ele>169.664254</ele>
        <time>2023-01-04T16:03:21.117Z</time>
      </trkpt>
      <trkpt lat="43.24797" lon="2.14369">
        <ele>169.646441</ele>
        <time>2023-01-04T16:03:24.117Z</time>
      </trkpt>
      <trkpt lat="43.24791" lon="2.14381">
        <ele>169.626346</ele>
        <time>2023-01-04T16:03:28.120Z</time>
      </trkpt>
      <trkpt lat="43.24785" lon="2.14391">
        <ele>169.60852</ele>
        <time>2023-01-04T16:03:31.110Z</time>
      </trkpt>
      <trkpt lat="43.24778" lon="2.14405">
        <ele>169.585921</ele>
        <time>2023-01-04T16:03:34.107Z</time>
      </trkpt>
      <trkpt lat="43.2477" lon="2.14418">
        <ele>169.562868</ele>
        <time>2023-01-04T16:03:37.103Z</time>
      </trkpt>
      <trkpt lat="43.24761" lon="2.14432">
        <ele>169.538251</ele>
        <time>2023-01-04T16:03:40.136Z</time>
      </trkpt>
      <trkpt lat="43.24753" lon="2.14444">
        <ele>169.516515</ele>
        <time>2023-01-04T16:03:43.112Z</time>
      </trkpt>
      <trkpt lat="43.24747" lon="2.14456">
        <ele>169.496416</ele>
        <time>2023-01-04T16:03:46.115Z</time>
      </trkpt>
      <trkpt lat="43.2474" lon="2.14468">
        <ele>169.475671</ele>
        <time>2023-01-04T16:03:49.113Z</time>
      </trkpt>
      <trkpt lat="43.24733" lon="2.14483">
        <ele>169.451652</ele>
        <time>2023-01-04T16:03:52.109Z</time>
      </trkpt>
      <trkpt lat="43.24726" lon="2.14496">
        <ele>169.429708</ele>
        <time>2023-01-04T16:03:55.133Z</time>
      </trkpt>
      <trkpt lat="43.2472" lon="2.14507">
        <ele>169.411148</ele>
        <time>2023-01-04T16:03:58.118Z</time>
      </trkpt>
      <trkpt lat="43.24713" lon="2.14518">
        <ele>169.391128</ele>
        <time>2023-01-04T16:04:01.105Z</time>
      </trkpt>
      <trkpt lat="43.24706" lon="2.14531">
        <ele>169.369284</ele>
        <time>2023-01-04T16:04:04.115Z</time>
      </trkpt>
      <trkpt lat="43.24701" lon="2.14542">
        <ele>169.352298</ele>
        <time>2023-01-04T16:04:07.120Z</time>
      </trkpt>
      <trkpt lat="43.24695" lon="2.14554">
        <ele>169.40305</ele>
        <time>2023-01-04T16:04:11.134Z</time>
      </trkpt>
      <trkpt lat="43.24689" lon="2.14564">
        <ele>169.447027</ele>
        <time>2023-01-04T16:04:14.117Z</time>
      </trkpt>
      <trkpt lat="43.24683" lon="2.14575">
        <ele>169.493195</ele>
        <time>2023-01-04T16:04:17.104Z</time>
      </trkpt>
      <trkpt lat="43.24675" lon="2.14587">
        <ele>169.546838</ele>
        <time>2023-01-04T16:04:20.116Z</time>
      </trkpt>
      <trkpt lat="43.24668" lon="2.14599">
        <ele>169.597618</ele>
        <time>2023-01-04T16:04:23.118Z</time>
      </trkpt>
      <trkpt lat="43.24662" lon="2.1461">
        <ele>169.645116</ele>
        <time>2023-01-04T16:04:26.120Z</time>
      </trkpt>
      <trkpt lat="43.24656" lon="2.14621">
        <ele>169.68964</ele>
        <time>2023-01-04T16:04:29.109Z</time>
      </trkpt>
      <trkpt lat="43.24649" lon="2.14634">
        <ele>169.743408</ele>
        <time>2023-01-04T16:04:32.113Z</time>
      </trkpt>
      <trkpt lat="43.24642" lon="2.14646">
        <ele>169.79555</ele>
        <time>2023-01-04T16:04:35.107Z</time>
      </trkpt>
      <trkpt lat="43.24635" lon="2.14658">
        <ele>169.846596</ele>
        <time>2023-01-04T16:04:38.120Z</time>
      </trkpt>
      <trkpt lat="43.24629" lon="2.14669">
        <ele>169.893601</ele>
        <time>2023-01-04T16:04:41.110Z</time>
      </trkpt>
      <trkpt lat="43.24622" lon="2.1468">
        <ele>169.943108</ele>
        <time>2023-01-04T16:04:44.122Z</time>
      </trkpt>
      <trkpt lat="43.24614" lon="2.14693">
        <ele>169.998292</ele>
        <time>2023-01-04T16:04:47.106Z</time>
      </trkpt>
      <trkpt lat="43.24607" lon="2.14706">
        <ele>170.054784</ele>
        <time>2023-01-04T16:04:50.110Z</time>
      </trkpt>
      <trkpt lat="43.24599" lon="2.14719">
        <ele>170.109895</ele>
        <time>2023-01-04T16:04:53.107Z</time>
      </trkpt>
      <trkpt lat="43.24592" lon="2.14733">
        <ele>170.167157</ele>
        <time>2023-01-04T16:04:56.108Z</time>
      </trkpt>
      <trkpt lat="43.24585" lon="2.14746">
        <ele>170.223329</ele>
        <time>2023-01-04T16:04:59.121Z</time>
      </trkpt>
      <trkpt lat="43.24578" lon="2.14758">
        <ele>170.274323</ele>
        <time>2023-01-04T16:05:02.106Z</time>
      </trkpt>
      <trkpt lat="43.24571" lon="2.1477">
        <ele>170.328599</ele>
        <time>2023-01-04T16:05:05.106Z</time>
      </trkpt>
      <trkpt lat="43.24564" lon="2.14783">
        <ele>170.384224</ele>
        <time>2023-01-04T16:05:08.134Z</time>
      </trkpt>
      <trkpt lat="43.24558" lon="2.14794">
        <ele>170.4321</ele>
        <time>2023-01-04T16:05:11.110Z</time>
      </trkpt>
      <trkpt lat="43.24551" lon="2.14806">
        <ele>170.483095</ele>
        <time>2023-01-04T16:05:14.114Z</time>
      </trkpt>
      <trkpt lat="43.24543" lon="2.14818">
        <ele>170.539914</ele>
        <time>2023-01-04T16:05:17.114Z</time>
      </trkpt>
      <trkpt lat="43.24536" lon="2.14832">
        <ele>170.596632</ele>
        <time>2023-01-04T16:05:20.112Z</time>
      </trkpt>
      <trkpt lat="43.24529" lon="2.14842">
        <ele>170.644057</ele>
        <time>2023-01-04T16:05:23.106Z</time>
      </trkpt>
      <trkpt lat="43.24522" lon="2.14851">
        <ele>170.691575</ele>
        <time>2023-01-04T16:05:26.124Z</time>
      </trkpt>
      <trkpt lat="43.24515" lon="2.14865">
        <ele>170.749133</ele>
        <time>2023-01-04T16:05:29.135Z</time>
      </trkpt>
      <trkpt lat="43.24509" lon="2.14879">
        <ele>170.80253</ele>
        <time>2023-01-04T16:05:32.135Z</time>
      </trkpt>
      <trkpt lat="43.24505" lon="2.14891">
        <ele>170.847388</ele>
        <time>2023-01-04T16:05:35.129Z</time>
      </trkpt>
      <trkpt lat="43.245" lon="2.14903">
        <ele>170.897286</ele>
        <time>2023-01-04T16:05:39.108Z</time>
      </trkpt>
      <trkpt lat="43.24494" lon="2.14918">
        <ele>170.956018</ele>
        <time>2023-01-04T16:05:43.102Z</time>
      </trkpt>
      <trkpt lat="43.24489" lon="2.14931">
        <ele>171.006033</ele>
        <time>2023-01-04T16:05:46.137Z</time>
      </trkpt>
      <trkpt lat="43.24484" lon="2.14944">
        <ele>170.92556</ele>
        <time>2023-01-04T16:05:51.117Z</time>
      </trkpt>
      <trkpt lat="43.2448" lon="2.14956">
        <ele>170.780475</ele>
        <time>2023-01-04T16:05:54.105Z</time>
      </trkpt>
      <trkpt lat="43.24477" lon="2.1497">
        <ele>170.609246</ele>
        <time>2023-01-04T16:05:57.111Z</time>
      </trkpt>
      <trkpt lat="43.24475" lon="2.14984">
        <ele>170.44138</ele>
        <time>2023-01-04T16:06:00.109Z</time>
      </trkpt>
      <trkpt lat="43.24473" lon="2.14997">
        <ele>170.286238</ele>
        <time>2023-01-04T16:06:03.116Z</time>
      </trkpt>
      <trkpt lat="43.2447" lon="2.1501">
        <ele>170.132632</ele>
        <time>2023-01-04T16:06:06.108Z</time>
      </trkpt>
      <trkpt lat="43.24469" lon="2.15023">
        <ele>169.977293</ele>
        <time>2023-01-04T16:06:11.112Z</time>
      </trkpt>
      <trkpt lat="43.24467" lon="2.15036">
        <ele>169.819882</ele>
        <time>2023-01-04T16:06:15.103Z</time>
      </trkpt>
      <trkpt lat="43.24466" lon="2.15049">
        <ele>169.671442</ele>
        <time>2023-01-04T16:06:18.103Z</time>
      </trkpt>
      <trkpt lat="43.24464" lon="2.15063">
        <ele>169.511222</ele>
        <time>2023-01-04T16:06:21.102Z</time>
      </trkpt>
      <trkpt lat="43.24462" lon="2.15076">
        <ele>169.356116</ele>
        <time>2023-01-04T16:06:24.109Z</time>
      </trkpt>
      <trkpt lat="43.24461" lon="2.15089">
        <ele>169.206088</ele>
        <time>2023-01-04T16:06:27.107Z</time>
      </trkpt>
      <trkpt lat="43.24459" lon="2.15102">
        <ele>169.051235</ele>
        <time>2023-01-04T16:06:30.113Z</time>
      </trkpt>
      <trkpt lat="43.24457" lon="2.15115">
        <ele>168.898033</ele>
        <time>2023-01-04T16:06:33.112Z</time>
      </trkpt>
      <trkpt lat="43.24456" lon="2.1513">
        <ele>168.719828</ele>
        <time>2023-01-04T16:06:36.106Z</time>
      </trkpt>
      <trkpt lat="43.24453" lon="2.15156">
        <ele>168.410099</ele>
        <time>2023-01-04T16:06:38.106Z</time>
      </trkpt>
      <trkpt lat="43.24452" lon="2.15171">
        <ele>168.23711</ele>
        <time>2023-01-04T16:06:41.115Z</time>
      </trkpt>
      <trkpt lat="43.24451" lon="2.15185">
        <ele>168.366662</ele>
        <time>2023-01-04T16:06:44.106Z</time>
      </trkpt>
      <trkpt lat="43.24451" lon="2.15198">
        <ele>168.704853</ele>
        <time>2023-01-04T16:06:48.112Z</time>
      </trkpt>
      <trkpt lat="43.2445" lon="2.15212">
        <ele>169.044454</ele>
        <time>2023-01-04T16:06:52.107Z</time>
      </trkpt>
      <trkpt lat="43.24448" lon="2.15228">
        <ele>169.474107</ele>
        <time>2023-01-04T16:06:56.117Z</time>
      </trkpt>
      <trkpt lat="43.24446" lon="2.15243">
        <ele>169.855046</ele>
        <time>2023-01-04T16:07:00.108Z</time>
      </trkpt>
      <trkpt lat="43.24447" lon="2.15263">
        <ele>170.383184</ele>
        <time>2023-01-04T16:07:03.135Z</time>
      </trkpt>
      <trkpt lat="43.24447" lon="2.15277">
        <ele>170.7357</ele>
        <time>2023-01-04T16:07:05.120Z</time>
      </trkpt>
      <trkpt lat="43.24447" lon="2.15289">
        <ele>171.052306</ele>
        <time>2023-01-04T16:07:07.134Z</time>
      </trkpt>
      <trkpt lat="43.24446" lon="2.15303">
        <ele>171.419317</ele>
        <time>2023-01-04T16:07:10.108Z</time>
      </trkpt>
      <trkpt lat="43.24447" lon="2.15316">
        <ele>171.741588</ele>
        <time>2023-01-04T16:07:13.112Z</time>
      </trkpt>
      <trkpt lat="43.24448" lon="2.15329">
        <ele>172.093611</ele>
        <time>2023-01-04T16:07:16.119Z</time>
      </trkpt>
      <trkpt lat="43.24449" lon="2.15344">
        <ele>172.482221</ele>
        <time>2023-01-04T16:07:20.104Z</time>
      </trkpt>
      <trkpt lat="43.2445" lon="2.1536">
        <ele>172.886873</ele>
        <time>2023-01-04T16:07:24.110Z</time>
      </trkpt>
      <trkpt lat="43.24451" lon="2.15374">
        <ele>173.235128</ele>
        <time>2023-01-04T16:07:29.129Z</time>
      </trkpt>
      <trkpt lat="43.24454" lon="2.15386">
        <ele>173.566802</ele>
        <time>2023-01-04T16:07:33.133Z</time>
      </trkpt>
      <trkpt lat="43.24456" lon="2.154">
        <ele>173.933162</ele>
        <time>2023-01-04T16:07:36.119Z</time>
      </trkpt>
      <trkpt lat="43.24456" lon="2.15415">
        <ele>174.324259</ele>
        <time>2023-01-04T16:07:39.108Z</time>
      </trkpt>
      <trkpt lat="43.24456" lon="2.1543">
        <ele>174.504163</ele>
        <time>2023-01-04T16:07:42.108Z</time>
      </trkpt>
      <trkpt lat="43.24456" lon="2.15444">
        <ele>174.481569</ele>
        <time>2023-01-04T16:07:45.116Z</time>
      </trkpt>
      <trkpt lat="43.24456" lon="2.15458">
        <ele>174.45745</ele>
        <time>2023-01-04T16:07:48.121Z</time>
      </trkpt>
      <trkpt lat="43.24455" lon="2.15471">
        <ele>174.435761</ele>
        <time>2023-01-04T16:07:51.132Z</time>
      </trkpt>
      <trkpt lat="43.24454" lon="2.15484">
        <ele>174.414641</ele>
        <time>2023-01-04T16:07:54.122Z</time>
      </trkpt>
      <trkpt lat="43.24454" lon="2.15498">
        <ele>174.391138</ele>
        <time>2023-01-04T16:07:58.116Z</time>
      </trkpt>
      <trkpt lat="43.24453" lon="2.15511">
        <ele>174.368859</ele>
        <time>2023-01-04T16:08:01.115Z</time>
      </trkpt>
      <trkpt lat="43.24452" lon="2.15523">
        <ele>174.347821</ele>
        <time>2023-01-04T16:08:04.110Z</time>
      </trkpt>
      <trkpt lat="43.24449" lon="2.1554">
        <ele>174.319629</ele>
        <time>2023-01-04T16:08:08.136Z</time>
      </trkpt>
      <trkpt lat="43.24447" lon="2.15552">
        <ele>174.298974</ele>
        <time>2023-01-04T16:08:11.105Z</time>
      </trkpt>
      <trkpt lat="43.24444" lon="2.15564">
        <ele>174.277216</ele>
        <time>2023-01-04T16:08:15.131Z</time>
      </trkpt>
      <trkpt lat="43.24442" lon="2.15578">
        <ele>174.253667</ele>
        <time>2023-01-04T16:08:19.116Z</time>
      </trkpt>
      <trkpt lat="43.24439" lon="2.1559">
        <ele>174.232506</ele>
        <time>2023-01-04T16:08:23.107Z</time>
      </trkpt>
      <trkpt lat="43.24435" lon="2.15602">
        <ele>174.209521</ele>
        <time>2023-01-04T16:08:28.115Z</time>
      </trkpt>
      <trkpt lat="43.24429" lon="2.15614">
        <ele>174.185423</ele>
        <time>2023-01-04T16:08:32.125Z</time>
      </trkpt>
      <trkpt lat="43.24421" lon="2.15624">
        <ele>174.160223</ele>
        <time>2023-01-04T16:08:35.122Z</time>
      </trkpt>
      <trkpt lat="43.24417" lon="2.15636">
        <ele>174.138984</ele>
        <time>2023-01-04T16:08:38.134Z</time>
      </trkpt>
      <trkpt lat="43.24416" lon="2.15651">
        <ele>174.112896</ele>
        <time>2023-01-04T16:08:42.133Z</time>
      </trkpt>
      <trkpt lat="43.24416" lon="2.15666">
        <ele>174.208323</ele>
        <time>2023-01-04T16:08:46.117Z</time>
      </trkpt>
      <trkpt lat="43.24415" lon="2.15653">
        <ele>174.355972</ele>
        <time>2023-01-04T16:09:42.118Z</time>
      </trkpt>
      <trkpt lat="43.24416" lon="2.15641">
        <ele>174.495996</ele>
        <time>2023-01-04T16:09:46.117Z</time>
      </trkpt>
      <trkpt lat="43.24421" lon="2.1563">
        <ele>174.641839</ele>
        <time>2023-01-04T16:09:50.109Z</time>
      </trkpt>
      <trkpt lat="43.24424" lon="2.15618">
        <ele>174.782923</ele>
        <time>2023-01-04T16:10:09.110Z</time>
      </trkpt>
      <trkpt lat="43.24419" lon="2.15631">
        <ele>174.946679</ele>
        <time>2023-01-04T16:10:23.123Z</time>
      </trkpt>
      <trkpt lat="43.24417" lon="2.15644">
        <ele>175.098027</ele>
        <time>2023-01-04T16:10:27.107Z</time>
      </trkpt>
      <trkpt lat="43.24418" lon="2.1566">
        <ele>175.280222</ele>
        <time>2023-01-04T16:10:31.109Z</time>
      </trkpt>
      <trkpt lat="43.24415" lon="2.15674">
        <ele>175.443631</ele>
        <time>2023-01-04T16:10:35.115Z</time>
      </trkpt>
      <trkpt lat="43.24411" lon="2.15688">
        <ele>175.609597</ele>
        <time>2023-01-04T16:10:39.112Z</time>
      </trkpt>
      <trkpt lat="43.24409" lon="2.15701">
        <ele>175.761641</ele>
        <time>2023-01-04T16:10:42.117Z</time>
      </trkpt>
      <trkpt lat="43.24406" lon="2.15713">
        <ele>175.903227</ele>
        <time>2023-01-04T16:10:45.114Z</time>
      </trkpt>
      <trkpt lat="43.24403" lon="2.15727">
        <ele>176.071811</ele>
        <time>2023-01-04T16:10:48.106Z</time>
      </trkpt>
      <trkpt lat="43.24399" lon="2.1574">
        <ele>176.225099</ele>
        <time>2023-01-04T16:10:51.134Z</time>
      </trkpt>
      <trkpt lat="43.24396" lon="2.15752">
        <ele>176.367184</ele>
        <time>2023-01-04T16:10:54.134Z</time>
      </trkpt>
      <trkpt lat="43.24391" lon="2.15766">
        <ele>176.546161</ele>
        <time>2023-01-04T16:10:58.108Z</time>
      </trkpt>
      <trkpt lat="43.24384" lon="2.15778">
        <ele>176.719444</ele>
        <time>2023-01-04T16:11:01.108Z</time>
      </trkpt>
      <trkpt lat="43.24379" lon="2.15792">
        <ele>176.884622</ele>
        <time>2023-01-04T16:11:04.107Z</time>
      </trkpt>
      <trkpt lat="43.24374" lon="2.15804">
        <ele>176.796198</ele>
        <time>2023-01-04T16:11:07.107Z</time>
      </trkpt>
      <trkpt lat="43.24368" lon="2.15815">
        <ele>176.714196</ele>
        <time>2023-01-04T16:11:10.104Z</time>
      </trkpt>
      <trkpt lat="43.24362" lon="2.15826">
        <ele>176.62759</ele>
        <time>2023-01-04T16:11:13.113Z</time>
      </trkpt>
      <trkpt lat="43.24357" lon="2.15837">
        <ele>176.545051</ele>
        <time>2023-01-04T16:11:16.126Z</time>
      </trkpt>
      <trkpt lat="43.24351" lon="2.15848">
        <ele>176.463561</ele>
        <time>2023-01-04T16:11:19.112Z</time>
      </trkpt>
      <trkpt lat="43.24344" lon="2.15858">
        <ele>176.371624</ele>
        <time>2023-01-04T16:11:22.134Z</time>
      </trkpt>
      <trkpt lat="43.24338" lon="2.1587">
        <ele>176.276857</ele>
        <time>2023-01-04T16:11:25.136Z</time>
      </trkpt>
      <trkpt lat="43.2433" lon="2.15882">
        <ele>176.181308</ele>
        <time>2023-01-04T16:11:28.117Z</time>
      </trkpt>
      <trkpt lat="43.24323" lon="2.15894">
        <ele>176.077194</ele>
        <time>2023-01-04T16:11:31.116Z</time>
      </trkpt>
      <trkpt lat="43.24315" lon="2.15907">
        <ele>175.976122</ele>
        <time>2023-01-04T16:11:34.113Z</time>
      </trkpt>
      <trkpt lat="43.24309" lon="2.15918">
        <ele>175.886384</ele>
        <time>2023-01-04T16:11:37.136Z</time>
      </trkpt>
      <trkpt lat="43.24302" lon="2.15927">
        <ele>175.804679</ele>
        <time>2023-01-04T16:11:41.115Z</time>
      </trkpt>
      <trkpt lat="43.24294" lon="2.15933">
        <ele>175.723087</ele>
        <time>2023-01-04T16:12:05.108Z</time>
      </trkpt>
      <trkpt lat="43.24284" lon="2.15933">
        <ele>175.638233</ele>
        <time>2023-01-04T16:12:43.135Z</time>
      </trkpt>
      <trkpt lat="43.2428" lon="2.15944">
        <ele>175.559942</ele>
        <time>2023-01-04T16:12:51.136Z</time>
      </trkpt>
      <trkpt lat="43.24281" lon="2.15958">
        <ele>175.470449</ele>
        <time>2023-01-04T16:12:56.125Z</time>
      </trkpt>
      <trkpt lat="43.24281" lon="2.15972">
        <ele>175.384685</ele>
        <time>2023-01-04T16:13:01.124Z</time>
      </trkpt>
      <trkpt lat="43.24277" lon="2.15984">
        <ele>175.367856</ele>
        <time>2023-01-04T16:13:07.123Z</time>
      </trkpt>
      <trkpt lat="43.24269" lon="2.15992">
        <ele>175.452699</ele>
        <time>2023-01-04T16:13:11.131Z</time>
      </trkpt>
      <trkpt lat="43.2426" lon="2.16001">
        <ele>175.550557</ele>
        <time>2023-01-04T16:13:16.111Z</time>
      </trkpt>
      <trkpt lat="43.24253" lon="2.16012">
        <ele>175.644634</ele>
        <time>2023-01-04T16:13:20.134Z</time>
      </trkpt>
      <trkpt lat="43.24245" lon="2.16022">
        <ele>175.740866</ele>
        <time>2023-01-04T16:13:24.137Z</time>
      </trkpt>
      <trkpt lat="43.24236" lon="2.16032">
        <ele>175.840547</ele>
        <time>2023-01-04T16:13:28.120Z</time>
      </trkpt>
      <trkpt lat="43.24228" lon="2.16044">
        <ele>175.944227</ele>
        <time>2023-01-04T16:13:32.113Z</time>
      </trkpt>
      <trkpt lat="43.24221" lon="2.16053">
        <ele>176.029873</ele>
        <time>2023-01-04T16:13:35.103Z</time>
      </trkpt>
      <trkpt lat="43.24214" lon="2.16062">
        <ele>176.113115</ele>
        <time>2023-01-04T16:13:38.121Z</time>
      </trkpt>
      <trkpt lat="43.24207" lon="2.16072">
        <ele>176.205612</ele>
        <time>2023-01-04T16:13:42.116Z</time>
      </trkpt>
      <trkpt lat="43.24199" lon="2.16084">
        <ele>176.303788</ele>
        <time>2023-01-04T16:13:46.108Z</time>
      </trkpt>
      <trkpt lat="43.24193" lon="2.16093">
        <ele>176.385124</ele>
        <time>2023-01-04T16:13:49.118Z</time>
      </trkpt>
      <trkpt lat="43.24185" lon="2.16105">
        <ele>176.486482</ele>
        <time>2023-01-04T16:13:53.113Z</time>
      </trkpt>
      <trkpt lat="43.24178" lon="2.16115">
        <ele>176.576838</ele>
        <time>2023-01-04T16:13:56.134Z</time>
      </trkpt>
      <trkpt lat="43.24172" lon="2.16126">
        <ele>176.666719</ele>
        <time>2023-01-04T16:13:59.135Z</time>
      </trkpt>
      <trkpt lat="43.24166" lon="2.16137">
        <ele>176.755759</ele>
        <time>2023-01-04T16:14:02.110Z</time>
      </trkpt>
      <trkpt lat="43.2416" lon="2.16151">
        <ele>176.856931</ele>
        <time>2023-01-04T16:14:06.111Z</time>
      </trkpt>
      <trkpt lat="43.24154" lon="2.16165">
        <ele>176.908996</ele>
        <time>2023-01-04T16:14:10.108Z</time>
      </trkpt>
      <trkpt lat="43.24148" lon="2.16175">
        <ele>176.898121</ele>
        <time>2023-01-04T16:14:14.113Z</time>
      </trkpt>
      <trkpt lat="43.24143" lon="2.16188">
        <ele>176.886185</ele>
        <time>2023-01-04T16:14:18.104Z</time>
      </trkpt>
      <trkpt lat="43.24137" lon="2.16203">
        <ele>176.872656</ele>
        <time>2023-01-04T16:14:22.108Z</time>
      </trkpt>
      <trkpt lat="43.24134" lon="2.16215">
        <ele>176.861847</ele>
        <time>2023-01-04T16:14:25.106Z</time>
      </trkpt>
      <trkpt lat="43.24129" lon="2.16229">
        <ele>176.849458</ele>
        <time>2023-01-04T16:14:29.113Z</time>
      </trkpt>
      <trkpt lat="43.24124" lon="2.16243">
        <ele>176.836544</ele>
        <time>2023-01-04T16:14:33.123Z</time>
      </trkpt>
      <trkpt lat="43.2412" lon="2.16257">
        <ele>176.823524</ele>
        <time>2023-01-04T16:14:37.110Z</time>
      </trkpt>
      <trkpt lat="43.24115" lon="2.16271">
        <ele>176.811783</ele>
        <time>2023-01-04T16:14:41.114Z</time>
      </trkpt>
      <trkpt lat="43.24113" lon="2.16286">
        <ele>176.798709</ele>
        <time>2023-01-04T16:14:45.120Z</time>
      </trkpt>
      <trkpt lat="43.2411" lon="2.16298">
        <ele>176.788291</ele>
        <time>2023-01-04T16:14:48.117Z</time>
      </trkpt>
      <trkpt lat="43.24108" lon="2.1631">
        <ele>176.778003</ele>
        <time>2023-01-04T16:14:51.121Z</time>
      </trkpt>
      <trkpt lat="43.24106" lon="2.16325">
        <ele>176.765565</ele>
        <time>2023-01-04T16:14:55.132Z</time>
      </trkpt>
      <trkpt lat="43.24103" lon="2.16339">
        <ele>176.754058</ele>
        <time>2023-01-04T16:14:59.116Z</time>
      </trkpt>
      <trkpt lat="43.24101" lon="2.16351">
        <ele>176.743559</ele>
        <time>2023-01-04T16:15:03.121Z</time>
      </trkpt>
      <trkpt lat="43.24099" lon="2.16365">
        <ele>176.731654</ele>
        <time>2023-01-04T16:15:07.133Z</time>
      </trkpt>
      <trkpt lat="43.24096" lon="2.1638">
        <ele>176.719456</ele>
        <time>2023-01-04T16:15:11.135Z</time>
      </trkpt>
      <trkpt lat="43.24093" lon="2.16395">
        <ele>176.786476</ele>
        <time>2023-01-04T16:15:15.109Z</time>
      </trkpt>
      <trkpt lat="43.2409" lon="2.16407">
        <ele>176.915453</ele>
        <time>2023-01-04T16:15:18.119Z</time>
      </trkpt>
      <trkpt lat="43.24088" lon="2.1642">
        <ele>177.054569</ele>
        <time>2023-01-04T16:15:21.136Z</time>
      </trkpt>
      <trkpt lat="43.24085" lon="2.16432">
        <ele>177.182062</ele>
        <time>2023-01-04T16:15:24.114Z</time>
      </trkpt>
      <trkpt lat="43.24082" lon="2.16445">
        <ele>177.31712</ele>
        <time>2023-01-04T16:15:28.119Z</time>
      </trkpt>
      <trkpt lat="43.24079" lon="2.16458">
        <ele>177.457083</ele>
        <time>2023-01-04T16:15:33.108Z</time>
      </trkpt>
      <trkpt lat="43.24076" lon="2.16471">
        <ele>177.60326</ele>
        <time>2023-01-04T16:15:38.108Z</time>
      </trkpt>
      <trkpt lat="43.24072" lon="2.16484">
        <ele>177.749359</ele>
        <time>2023-01-04T16:15:43.115Z</time>
      </trkpt>
      <trkpt lat="43.24068" lon="2.16496">
        <ele>177.887518</ele>
        <time>2023-01-04T16:15:47.136Z</time>
      </trkpt>
      <trkpt lat="43.24063" lon="2.1651">
        <ele>178.040462</ele>
        <time>2023-01-04T16:15:51.112Z</time>
      </trkpt>
      <trkpt lat="43.24059" lon="2.16521">
        <ele>178.168362</ele>
        <time>2023-01-04T16:15:55.116Z</time>
      </trkpt>
      <trkpt lat="43.24057" lon="2.16534">
        <ele>178.299627</ele>
        <time>2023-01-04T16:15:59.105Z</time>
      </trkpt>
      <trkpt lat="43.24052" lon="2.16546">
        <ele>178.437785</ele>
        <time>2023-01-04T16:16:03.108Z</time>
      </trkpt>
      <trkpt lat="43.24047" lon="2.1656">
        <ele>178.595952</ele>
        <time>2023-01-04T16:16:07.115Z</time>
      </trkpt>
      <trkpt lat="43.24043" lon="2.16573">
        <ele>178.752047</ele>
        <time>2023-01-04T16:16:12.113Z</time>
      </trkpt>
      <trkpt lat="43.24038" lon="2.16587">
        <ele>178.903745</ele>
        <time>2023-01-04T16:16:16.116Z</time>
      </trkpt>
      <trkpt lat="43.24034" lon="2.16598">
        <ele>179.035903</ele>
        <time>2023-01-04T16:16:23.121Z</time>
      </trkpt>
      <trkpt lat="43.24029" lon="2.16609">
        <ele>179.164288</ele>
        <time>2023-01-04T16:16:38.105Z</time>
      </trkpt>
      <trkpt lat="43.24025" lon="2.1662">
        <ele>179.164288</ele>
        <time>2023-01-04T16:16:44.136Z</time>
      </trkpt>
      <trkpt lat="43.24021" lon="2.16631">
        <ele>178.934578</ele>
        <time>2023-01-04T16:16:49.119Z</time>
      </trkpt>
      <trkpt lat="43.24015" lon="2.16644">
        <ele>178.672896</ele>
        <time>2023-01-04T16:16:54.112Z</time>
      </trkpt>
      <trkpt lat="43.2401" lon="2.16657">
        <ele>178.414631</ele>
        <time>2023-01-04T16:16:58.106Z</time>
      </trkpt>
      <trkpt lat="43.24006" lon="2.16669">
        <ele>178.179187</ele>
        <time>2023-01-04T16:17:02.106Z</time>
      </trkpt>
      <trkpt lat="43.24002" lon="2.16681">
        <ele>177.936402</ele>
        <time>2023-01-04T16:17:06.130Z</time>
      </trkpt>
      <trkpt lat="43.23997" lon="2.16694">
        <ele>177.687187</ele>
        <time>2023-01-04T16:17:10.116Z</time>
      </trkpt>
      <trkpt lat="43.23992" lon="2.16705">
        <ele>177.442009</ele>
        <time>2023-01-04T16:17:14.109Z</time>
      </trkpt>
      <trkpt lat="43.23987" lon="2.16718">
        <ele>177.185818</ele>
        <time>2023-01-04T16:17:18.127Z</time>
      </trkpt>
      <trkpt lat="43.23983" lon="2.16731">
        <ele>176.948274</ele>
        <time>2023-01-04T16:17:22.134Z</time>
      </trkpt>
      <trkpt lat="43.23978" lon="2.16743">
        <ele>176.687466</ele>
        <time>2023-01-04T16:17:26.114Z</time>
      </trkpt>
      <trkpt lat="43.23973" lon="2.16754">
        <ele>176.458677</ele>
        <time>2023-01-04T16:17:30.115Z</time>
      </trkpt>
      <trkpt lat="43.23968" lon="2.16766">
        <ele>176.211507</ele>
        <time>2023-01-04T16:17:37.112Z</time>
      </trkpt>
      <trkpt lat="43.23961" lon="2.16774">
        <ele>175.987122</ele>
        <time>2023-01-04T16:17:42.113Z</time>
      </trkpt>
      <trkpt lat="43.23957" lon="2.16786">
        <ele>175.761946</ele>
        <time>2023-01-04T16:17:46.119Z</time>
      </trkpt>
      <trkpt lat="43.23958" lon="2.16798">
        <ele>175.535128</ele>
        <time>2023-01-04T16:17:53.116Z</time>
      </trkpt>
      <trkpt lat="43.23954" lon="2.16812">
        <ele>175.268261</ele>
        <time>2023-01-04T16:17:58.133Z</time>
      </trkpt>
      <trkpt lat="43.23953" lon="2.16826">
        <ele>175.020949</ele>
        <time>2023-01-04T16:18:01.104Z</time>
      </trkpt>
      <trkpt lat="43.23952" lon="2.16839">
        <ele>174.779379</ele>
        <time>2023-01-04T16:18:04.116Z</time>
      </trkpt>
      <trkpt lat="43.23951" lon="2.16852">
        <ele>174.542103</ele>
        <time>2023-01-04T16:18:07.115Z</time>
      </trkpt>
      <trkpt lat="43.2395" lon="2.16865">
        <ele>174.293935</ele>
        <time>2023-01-04T16:18:10.119Z</time>
      </trkpt>
      <trkpt lat="43.23949" lon="2.16879">
        <ele>174.036165</ele>
        <time>2023-01-04T16:18:13.114Z</time>
      </trkpt>
      <trkpt lat="43.23943" lon="2.16893">
        <ele>173.718773</ele>
        <time>2023-01-04T16:19:49.123Z</time>
      </trkpt>
      <trkpt lat="43.23936" lon="2.16904">
        <ele>173.453576</ele>
        <time>2023-01-04T16:20:03.110Z</time>
      </trkpt>
      <trkpt lat="43.23935" lon="2.16918">
        <ele>173.184734</ele>
        <time>2023-01-04T16:20:06.120Z</time>
      </trkpt>
      <trkpt lat="43.23935" lon="2.16936">
        <ele>172.857763</ele>
        <time>2023-01-04T16:20:09.114Z</time>
      </trkpt>
      <trkpt lat="43.23934" lon="2.16949">
        <ele>172.603719</ele>
        <time>2023-01-04T16:20:11.112Z</time>
      </trkpt>
      <trkpt lat="43.23933" lon="2.16964">
        <ele>172.335174</ele>
        <time>2023-01-04T16:20:13.116Z</time>
      </trkpt>
      <trkpt lat="43.23932" lon="2.16978">
        <ele>172.064776</ele>
        <time>2023-01-04T16:20:15.111Z</time>
      </trkpt>
      <trkpt lat="43.23931" lon="2.16993">
        <ele>171.776551</ele>
        <time>2023-01-04T16:20:17.125Z</time>
      </trkpt>
      <trkpt lat="43.2393" lon="2.1701">
        <ele>171.457914</ele>
        <time>2023-01-04T16:20:19.136Z</time>
      </trkpt>
      <trkpt lat="43.23929" lon="2.17027">
        <ele>171.141134</ele>
        <time>2023-01-04T16:20:21.114Z</time>
      </trkpt>
      <trkpt lat="43.23928" lon="2.17045">
        <ele>170.808425</ele>
        <time>2023-01-04T16:20:23.124Z</time>
      </trkpt>
      <trkpt lat="43.23927" lon="2.17063">
        <ele>170.469782</ele>
        <time>2023-01-04T16:20:25.134Z</time>
      </trkpt>
      <trkpt lat="43.23925" lon="2.17083">
        <ele>170.222234</ele>
        <time>2023-01-04T16:20:27.127Z</time>
      </trkpt>
      <trkpt lat="43.23924" lon="2.17102">
        <ele>170.15905</ele>
        <time>2023-01-04T16:20:29.121Z</time>
      </trkpt>
      <trkpt lat="43.23923" lon="2.17121">
        <ele>170.095473</ele>
        <time>2023-01-04T16:20:31.136Z</time>
      </trkpt>
      <trkpt lat="43.23922" lon="2.17142">
        <ele>170.029629</ele>
        <time>2023-01-04T16:20:33.137Z</time>
      </trkpt>
      <trkpt lat="43.23921" lon="2.1716">
        <ele>169.970298</ele>
        <time>2023-01-04T16:20:35.138Z</time>
      </trkpt>
      <trkpt lat="43.2392" lon="2.17178">
        <ele>169.909765</ele>
        <time>2023-01-04T16:20:37.136Z</time>
      </trkpt>
      <trkpt lat="43.23919" lon="2.17197">
        <ele>169.850433</ele>
        <time>2023-01-04T16:20:39.136Z</time>
      </trkpt>
      <trkpt lat="43.23918" lon="2.17214">
        <ele>169.792638</ele>
        <time>2023-01-04T16:20:41.123Z</time>
      </trkpt>
      <trkpt lat="43.23917" lon="2.17231">
        <ele>169.73715</ele>
        <time>2023-01-04T16:20:43.136Z</time>
      </trkpt>
      <trkpt lat="43.23916" lon="2.17247">
        <ele>169.685338</ele>
        <time>2023-01-04T16:20:45.135Z</time>
      </trkpt>
      <trkpt lat="43.23915" lon="2.17263">
        <ele>169.63345</ele>
        <time>2023-01-04T16:20:47.112Z</time>
      </trkpt>
      <trkpt lat="43.23914" lon="2.17278">
        <ele>169.585559</ele>
        <time>2023-01-04T16:20:49.127Z</time>
      </trkpt>
      <trkpt lat="43.23912" lon="2.17293">
        <ele>169.535193</ele>
        <time>2023-01-04T16:20:51.118Z</time>
      </trkpt>
      <trkpt lat="43.23911" lon="2.17308">
        <ele>169.487995</ele>
        <time>2023-01-04T16:20:53.104Z</time>
      </trkpt>
      <trkpt lat="43.2391" lon="2.17322">
        <ele>169.446536</ele>
        <time>2023-01-04T16:20:55.127Z</time>
      </trkpt>
      <trkpt lat="43.23908" lon="2.17335">
        <ele>169.508622</ele>
        <time>2023-01-04T16:20:57.137Z</time>
      </trkpt>
      <trkpt lat="43.23907" lon="2.17347">
        <ele>169.56821</ele>
        <time>2023-01-04T16:20:59.111Z</time>
      </trkpt>
      <trkpt lat="43.23906" lon="2.1736">
        <ele>169.629445</ele>
        <time>2023-01-04T16:21:01.138Z</time>
      </trkpt>
      <trkpt lat="43.23905" lon="2.17373">
        <ele>169.689535</ele>
        <time>2023-01-04T16:21:03.121Z</time>
      </trkpt>
      <trkpt lat="43.23902" lon="2.17385">
        <ele>169.748926</ele>
        <time>2023-01-04T16:21:05.115Z</time>
      </trkpt>
      <trkpt lat="43.23899" lon="2.17402">
        <ele>169.831943</ele>
        <time>2023-01-04T16:21:08.120Z</time>
      </trkpt>
      <trkpt lat="43.23895" lon="2.17418">
        <ele>169.91192</ele>
        <time>2023-01-04T16:21:11.128Z</time>
      </trkpt>
      <trkpt lat="43.23891" lon="2.17433">
        <ele>169.985944</ele>
        <time>2023-01-04T16:21:14.118Z</time>
      </trkpt>
      <trkpt lat="43.23888" lon="2.17445">
        <ele>170.046001</ele>
        <time>2023-01-04T16:21:17.126Z</time>
      </trkpt>
      <trkpt lat="43.23886" lon="2.17461">
        <ele>170.122416</ele>
        <time>2023-01-04T16:21:21.121Z</time>
      </trkpt>
      <trkpt lat="43.23885" lon="2.17475">
        <ele>170.184946</ele>
        <time>2023-01-04T16:21:25.117Z</time>
      </trkpt>
      <trkpt lat="43.23887" lon="2.17488">
        <ele>170.248303</ele>
        <time>2023-01-04T16:21:37.120Z</time>
      </trkpt>
      <trkpt lat="43.23895" lon="2.17497">
        <ele>170.314883</ele>
        <time>2023-01-04T16:21:51.116Z</time>
      </trkpt>
      <trkpt lat="43.23905" lon="2.17504">
        <ele>170.389816</ele>
        <time>2023-01-04T16:21:56.122Z</time>
      </trkpt>
      <trkpt lat="43.23916" lon="2.17507">
        <ele>170.457608</ele>
        <time>2023-01-04T16:21:59.124Z</time>
      </trkpt>
      <trkpt lat="43.23926" lon="2.17511">
        <ele>170.527504</ele>
        <time>2023-01-04T16:22:02.114Z</time>
      </trkpt>
      <trkpt lat="43.23937" lon="2.17516">
        <ele>170.59843</ele>
        <time>2023-01-04T16:22:05.137Z</time>
      </trkpt>
      <trkpt lat="43.23949" lon="2.1752">
        <ele>170.384146</ele>
        <time>2023-01-04T16:22:08.116Z</time>
      </trkpt>
      <trkpt lat="43.23962" lon="2.17524">
        <ele>170.155467</ele>
        <time>2023-01-04T16:22:11.118Z</time>
      </trkpt>
      <trkpt lat="43.23975" lon="2.17529">
        <ele>169.926506</ele>
        <time>2023-01-04T16:22:14.112Z</time>
      </trkpt>
      <trkpt lat="43.23984" lon="2.17531">
        <ele>169.771916</ele>
        <time>2023-01-04T16:22:16.122Z</time>
      </trkpt>
      <trkpt lat="43.23993" lon="2.17535">
        <ele>169.61552</ele>
        <time>2023-01-04T16:22:18.105Z</time>
      </trkpt>
      <trkpt lat="43.24002" lon="2.17538">
        <ele>169.455074</ele>
        <time>2023-01-04T16:22:20.115Z</time>
      </trkpt>
      <trkpt lat="43.24011" lon="2.17541">
        <ele>169.296694</ele>
        <time>2023-01-04T16:22:22.110Z</time>
      </trkpt>
      <trkpt lat="43.2402" lon="2.17544">
        <ele>169.138485</ele>
        <time>2023-01-04T16:22:24.118Z</time>
      </trkpt>
      <trkpt lat="43.24033" lon="2.17548">
        <ele>168.911755</ele>
        <time>2023-01-04T16:22:27.114Z</time>
      </trkpt>
      <trkpt lat="43.24046" lon="2.17551">
        <ele>168.686319</ele>
        <time>2023-01-04T16:22:30.112Z</time>
      </trkpt>
      <trkpt lat="43.24058" lon="2.17556">
        <ele>168.478989</ele>
        <time>2023-01-04T16:22:33.112Z</time>
      </trkpt>
      <trkpt lat="43.24068" lon="2.1756">
        <ele>168.289494</ele>
        <time>2023-01-04T16:22:36.106Z</time>
      </trkpt>
      <trkpt lat="43.24078" lon="2.17564">
        <ele>168.117497</ele>
        <time>2023-01-04T16:22:50.130Z</time>
      </trkpt>
      <trkpt lat="43.24089" lon="2.17567">
        <ele>167.928337</ele>
        <time>2023-01-04T16:22:54.113Z</time>
      </trkpt>
      <trkpt lat="43.24099" lon="2.17571">
        <ele>167.740197</ele>
        <time>2023-01-04T16:22:57.117Z</time>
      </trkpt>
      <trkpt lat="43.24111" lon="2.17575">
        <ele>167.527395</ele>
        <time>2023-01-04T16:23:00.106Z</time>
      </trkpt>
      <trkpt lat="43.24124" lon="2.17578">
        <ele>167.439259</ele>
        <time>2023-01-04T16:23:03.109Z</time>
      </trkpt>
      <trkpt lat="43.24133" lon="2.1758">
        <ele>167.384105</ele>
        <time>2023-01-04T16:23:05.135Z</time>
      </trkpt>
      <trkpt lat="43.24143" lon="2.17583">
        <ele>167.324974</ele>
        <time>2023-01-04T16:23:07.135Z</time>
      </trkpt>
      <trkpt lat="43.24153" lon="2.17585">
        <ele>167.26325</ele>
        <time>2023-01-04T16:23:09.111Z</time>
      </trkpt>
      <trkpt lat="43.24163" lon="2.17588">
        <ele>167.199474</ele>
        <time>2023-01-04T16:23:11.135Z</time>
      </trkpt>
      <trkpt lat="43.24172" lon="2.1759">
        <ele>167.138961</ele>
        <time>2023-01-04T16:23:13.119Z</time>
      </trkpt>
      <trkpt lat="43.24183" lon="2.17592">
        <ele>167.076557</ele>
        <time>2023-01-04T16:23:15.109Z</time>
      </trkpt>
      <trkpt lat="43.24192" lon="2.17592">
        <ele>167.015657</ele>
        <time>2023-01-04T16:23:17.138Z</time>
      </trkpt>
      <trkpt lat="43.24203" lon="2.1759">
        <ele>166.951934</ele>
        <time>2023-01-04T16:23:19.136Z</time>
      </trkpt>
      <trkpt lat="43.24212" lon="2.17587">
        <ele>166.892285</ele>
        <time>2023-01-04T16:23:21.111Z</time>
      </trkpt>
      <trkpt lat="43.24221" lon="2.17581">
        <ele>166.83223</ele>
        <time>2023-01-04T16:23:23.115Z</time>
      </trkpt>
      <trkpt lat="43.2423" lon="2.17573">
        <ele>166.76879</ele>
        <time>2023-01-04T16:23:25.135Z</time>
      </trkpt>
      <trkpt lat="43.24238" lon="2.17566">
        <ele>166.706108</ele>
        <time>2023-01-04T16:23:27.137Z</time>
      </trkpt>
      <trkpt lat="43.24247" lon="2.17558">
        <ele>166.641385</ele>
        <time>2023-01-04T16:23:29.121Z</time>
      </trkpt>
      <trkpt lat="43.24257" lon="2.17552">
        <ele>166.575779</ele>
        <time>2023-01-04T16:23:31.112Z</time>
      </trkpt>
      <trkpt lat="43.24267" lon="2.17549">
        <ele>166.512553</ele>
        <time>2023-01-04T16:23:33.111Z</time>
      </trkpt>
      <trkpt lat="43.24277" lon="2.17548">
        <ele>166.448614</ele>
        <time>2023-01-04T16:23:35.114Z</time>
      </trkpt>
      <trkpt lat="43.24288" lon="2.1755">
        <ele>166.409228</ele>
        <time>2023-01-04T16:23:37.109Z</time>
      </trkpt>
      <trkpt lat="43.24297" lon="2.17552">
        <ele>166.401633</ele>
        <time>2023-01-04T16:23:39.111Z</time>
      </trkpt>
      <trkpt lat="43.24307" lon="2.17554">
        <ele>166.394334</ele>
        <time>2023-01-04T16:23:41.117Z</time>
      </trkpt>
      <trkpt lat="43.24317" lon="2.17557">
        <ele>166.386993</ele>
        <time>2023-01-04T16:23:43.116Z</time>
      </trkpt>
      <trkpt lat="43.24328" lon="2.1756">
        <ele>166.377907</ele>
        <time>2023-01-04T16:23:46.137Z</time>
      </trkpt>
      <trkpt lat="43.24338" lon="2.17561">
        <ele>166.370839</ele>
        <time>2023-01-04T16:23:48.111Z</time>
      </trkpt>
      <trkpt lat="43.24351" lon="2.17563">
        <ele>166.360694</ele>
        <time>2023-01-04T16:23:51.111Z</time>
      </trkpt>
      <trkpt lat="43.24361" lon="2.17561">
        <ele>166.353261</ele>
        <time>2023-01-04T16:23:53.135Z</time>
      </trkpt>
      <trkpt lat="43.24371" lon="2.17561">
        <ele>166.345923</ele>
        <time>2023-01-04T16:23:55.127Z</time>
      </trkpt>
      <trkpt lat="43.2438" lon="2.17559">
        <ele>166.338549</ele>
        <time>2023-01-04T16:23:57.110Z</time>
      </trkpt>
      <trkpt lat="43.2439" lon="2.17557">
        <ele>166.331363</ele>
        <time>2023-01-04T16:23:59.124Z</time>
      </trkpt>
      <trkpt lat="43.24399" lon="2.17555">
        <ele>166.324224</ele>
        <time>2023-01-04T16:24:01.129Z</time>
      </trkpt>
      <trkpt lat="43.24411" lon="2.17553">
        <ele>166.314799</ele>
        <time>2023-01-04T16:24:04.105Z</time>
      </trkpt>
      <trkpt lat="43.24423" lon="2.17552">
        <ele>166.306172</ele>
        <time>2023-01-04T16:24:07.111Z</time>
      </trkpt>
      <trkpt lat="43.24433" lon="2.17552">
        <ele>166.298312</ele>
        <time>2023-01-04T16:24:10.111Z</time>
      </trkpt>
      <trkpt lat="43.24444" lon="2.17551">
        <ele>166.290373</ele>
        <time>2023-01-04T16:24:13.135Z</time>
      </trkpt>
      <trkpt lat="43.24455" lon="2.17552">
        <ele>166.281677</ele>
        <time>2023-01-04T16:24:16.136Z</time>
      </trkpt>
      <trkpt lat="43.24468" lon="2.17553">
        <ele>166.322214</ele>
        <time>2023-01-04T16:24:19.120Z</time>
      </trkpt>
      <trkpt lat="43.24477" lon="2.17554">
        <ele>166.387294</ele>
        <time>2023-01-04T16:24:21.111Z</time>
      </trkpt>
      <trkpt lat="43.24487" lon="2.17554">
        <ele>166.454464</ele>
        <time>2023-01-04T16:24:23.133Z</time>
      </trkpt>
      <trkpt lat="43.24496" lon="2.17554">
        <ele>166.52164</ele>
        <time>2023-01-04T16:24:25.137Z</time>
      </trkpt>
      <trkpt lat="43.24505" lon="2.17555">
        <ele>166.585625</ele>
        <time>2023-01-04T16:24:27.111Z</time>
      </trkpt>
      <trkpt lat="43.24515" lon="2.17556">
        <ele>166.653695</ele>
        <time>2023-01-04T16:24:29.117Z</time>
      </trkpt>
      <trkpt lat="43.24525" lon="2.17557">
        <ele>166.723216</ele>
        <time>2023-01-04T16:24:31.142Z</time>
      </trkpt>
      <trkpt lat="43.24534" lon="2.17558">
        <ele>166.792736</ele>
        <time>2023-01-04T16:24:33.115Z</time>
      </trkpt>
      <trkpt lat="43.24544" lon="2.1756">
        <ele>166.86069</ele>
        <time>2023-01-04T16:24:35.138Z</time>
      </trkpt>
      <trkpt lat="43.24553" lon="2.17562">
        <ele>166.925235</ele>
        <time>2023-01-04T16:24:37.138Z</time>
      </trkpt>
      <trkpt lat="43.24562" lon="2.17565">
        <ele>166.993269</ele>
        <time>2023-01-04T16:24:39.109Z</time>
      </trkpt>
      <trkpt lat="43.24571" lon="2.17568">
        <ele>167.058874</ele>
        <time>2023-01-04T16:24:41.117Z</time>
      </trkpt>
      <trkpt lat="43.24581" lon="2.1757">
        <ele>167.125085</ele>
        <time>2023-01-04T16:24:43.117Z</time>
      </trkpt>
      <trkpt lat="43.24589" lon="2.17574">
        <ele>167.188654</ele>
        <time>2023-01-04T16:24:45.112Z</time>
      </trkpt>
      <trkpt lat="43.24598" lon="2.17577">
        <ele>167.253703</ele>
        <time>2023-01-04T16:24:47.115Z</time>
      </trkpt>
      <trkpt lat="43.24607" lon="2.17581">
        <ele>167.320243</ele>
        <time>2023-01-04T16:24:49.137Z</time>
      </trkpt>
      <trkpt lat="43.24616" lon="2.17585">
        <ele>167.385447</ele>
        <time>2023-01-04T16:24:51.114Z</time>
      </trkpt>
      <trkpt lat="43.24625" lon="2.17589">
        <ele>167.454176</ele>
        <time>2023-01-04T16:24:53.136Z</time>
      </trkpt>
      <trkpt lat="43.24635" lon="2.17592">
        <ele>167.525971</ele>
        <time>2023-01-04T16:24:55.124Z</time>
      </trkpt>
      <trkpt lat="43.24644" lon="2.17596">
        <ele>167.552277</ele>
        <time>2023-01-04T16:24:57.111Z</time>
      </trkpt>
      <trkpt lat="43.24653" lon="2.17601">
        <ele>167.557601</ele>
        <time>2023-01-04T16:24:59.136Z</time>
      </trkpt>
      <trkpt lat="43.24663" lon="2.17605">
        <ele>167.563406</ele>
        <time>2023-01-04T16:25:01.135Z</time>
      </trkpt>
      <trkpt lat="43.24673" lon="2.17609">
        <ele>167.569194</ele>
        <time>2023-01-04T16:25:03.110Z</time>
      </trkpt>
      <trkpt lat="43.24683" lon="2.17612">
        <ele>167.574711</ele>
        <time>2023-01-04T16:25:05.137Z</time>
      </trkpt>
      <trkpt lat="43.24692" lon="2.17614">
        <ele>167.580145</ele>
        <time>2023-01-04T16:25:07.133Z</time>
      </trkpt>
      <trkpt lat="43.24705" lon="2.17616">
        <ele>167.587391</ele>
        <time>2023-01-04T16:25:10.113Z</time>
      </trkpt>
      <trkpt lat="43.24717" lon="2.17618">
        <ele>167.594099</ele>
        <time>2023-01-04T16:25:13.114Z</time>
      </trkpt>
      <trkpt lat="43.2473" lon="2.1762">
        <ele>167.601438</ele>
        <time>2023-01-04T16:25:16.118Z</time>
      </trkpt>
      <trkpt lat="43.24742" lon="2.17621">
        <ele>167.608373</ele>
        <time>2023-01-04T16:25:19.116Z</time>
      </trkpt>
      <trkpt lat="43.24755" lon="2.17624">
        <ele>167.615692</ele>
        <time>2023-01-04T16:25:22.114Z</time>
      </trkpt>
      <trkpt lat="43.24764" lon="2.17625">
        <ele>167.620929</ele>
        <time>2023-01-04T16:25:24.111Z</time>
      </trkpt>
      <trkpt lat="43.24774" lon="2.17625">
        <ele>167.626264</ele>
        <time>2023-01-04T16:25:26.115Z</time>
      </trkpt>
      <trkpt lat="43.24783" lon="2.17626">
        <ele>167.631616</ele>
        <time>2023-01-04T16:25:28.111Z</time>
      </trkpt>
      <trkpt lat="43.24794" lon="2.17628">
        <ele>167.637439</ele>
        <time>2023-01-04T16:25:30.114Z</time>
      </trkpt>
      <trkpt lat="43.24807" lon="2.17632">
        <ele>167.644955</ele>
        <time>2023-01-04T16:25:33.110Z</time>
      </trkpt>
      <trkpt lat="43.24818" lon="2.17633">
        <ele>167.657487</ele>
        <time>2023-01-04T16:25:35.119Z</time>
      </trkpt>
      <trkpt lat="43.24827" lon="2.17635">
        <ele>167.684933</ele>
        <time>2023-01-04T16:25:37.121Z</time>
      </trkpt>
      <trkpt lat="43.2484" lon="2.17637">
        <ele>167.724216</ele>
        <time>2023-01-04T16:25:40.120Z</time>
      </trkpt>
      <trkpt lat="43.24853" lon="2.17641">
        <ele>167.761573</ele>
        <time>2023-01-04T16:25:43.109Z</time>
      </trkpt>
      <trkpt lat="43.24866" lon="2.17643">
        <ele>167.79942</ele>
        <time>2023-01-04T16:25:46.128Z</time>
      </trkpt>
      <trkpt lat="43.24879" lon="2.17646">
        <ele>167.837207</ele>
        <time>2023-01-04T16:25:49.115Z</time>
      </trkpt>
      <trkpt lat="43.24888" lon="2.17649">
        <ele>167.865269</ele>
        <time>2023-01-04T16:25:51.107Z</time>
      </trkpt>
      <trkpt lat="43.24897" lon="2.17651">
        <ele>167.892593</ele>
        <time>2023-01-04T16:25:53.114Z</time>
      </trkpt>
      <trkpt lat="43.2491" lon="2.17652">
        <ele>167.930155</ele>
        <time>2023-01-04T16:25:56.104Z</time>
      </trkpt>
      <trkpt lat="43.24922" lon="2.17653">
        <ele>167.963263</ele>
        <time>2023-01-04T16:25:59.107Z</time>
      </trkpt>
      <trkpt lat="43.24934" lon="2.17652">
        <ele>167.998426</ele>
        <time>2023-01-04T16:26:02.115Z</time>
      </trkpt>
      <trkpt lat="43.24946" lon="2.17651">
        <ele>168.03271</ele>
        <time>2023-01-04T16:26:05.107Z</time>
      </trkpt>
      <trkpt lat="43.24957" lon="2.17651">
        <ele>168.064643</ele>
        <time>2023-01-04T16:26:08.111Z</time>
      </trkpt>
      <trkpt lat="43.24968" lon="2.17652">
        <ele>168.097197</ele>
        <time>2023-01-04T16:26:11.120Z</time>
      </trkpt>
      <trkpt lat="43.24979" lon="2.17654">
        <ele>168.128489</ele>
        <time>2023-01-04T16:26:14.108Z</time>
      </trkpt>
      <trkpt lat="43.2499" lon="2.17655">
        <ele>168.161966</ele>
        <time>2023-01-04T16:26:18.110Z</time>
      </trkpt>
      <trkpt lat="43.25" lon="2.17656">
        <ele>168.1548</ele>
        <time>2023-01-04T16:26:22.134Z</time>
      </trkpt>
      <trkpt lat="43.25012" lon="2.17657">
        <ele>168.124127</ele>
        <time>2023-01-04T16:26:26.127Z</time>
      </trkpt>
      <trkpt lat="43.25023" lon="2.17657">
        <ele>168.095098</ele>
        <time>2023-01-04T16:26:29.131Z</time>
      </trkpt>
      <trkpt lat="43.25037" lon="2.17659">
        <ele>168.059696</ele>
        <time>2023-01-04T16:26:32.135Z</time>
      </trkpt>
      <trkpt lat="43.25047" lon="2.17661">
        <ele>168.032637</ele>
        <time>2023-01-04T16:26:34.139Z</time>
      </trkpt>
      <trkpt lat="43.25058" lon="2.17664">
        <ele>168.004124</ele>
        <time>2023-01-04T16:26:36.132Z</time>
      </trkpt>
      <trkpt lat="43.25069" lon="2.17667">
        <ele>167.974201</ele>
        <time>2023-01-04T16:26:38.125Z</time>
      </trkpt>
      <trkpt lat="43.2508" lon="2.17671">
        <ele>167.945117</ele>
        <time>2023-01-04T16:26:40.138Z</time>
      </trkpt>
      <trkpt lat="43.25091" lon="2.17676">
        <ele>167.916818</ele>
        <time>2023-01-04T16:26:42.136Z</time>
      </trkpt>
      <trkpt lat="43.25101" lon="2.17681">
        <ele>167.889969</ele>
        <time>2023-01-04T16:26:44.135Z</time>
      </trkpt>
      <trkpt lat="43.2511" lon="2.17686">
        <ele>167.863054</ele>
        <time>2023-01-04T16:26:46.137Z</time>
      </trkpt>
      <trkpt lat="43.2512" lon="2.17692">
        <ele>167.836353</ele>
        <time>2023-01-04T16:26:48.133Z</time>
      </trkpt>
      <trkpt lat="43.25129" lon="2.17697">
        <ele>167.811181</ele>
        <time>2023-01-04T16:26:50.118Z</time>
      </trkpt>
      <trkpt lat="43.25139" lon="2.17703">
        <ele>167.783539</ele>
        <time>2023-01-04T16:26:52.115Z</time>
      </trkpt>
      <trkpt lat="43.25148" lon="2.17707">
        <ele>167.7587</ele>
        <time>2023-01-04T16:26:54.114Z</time>
      </trkpt>
      <trkpt lat="43.25157" lon="2.17712">
        <ele>167.732743</ele>
        <time>2023-01-04T16:26:56.123Z</time>
      </trkpt>
      <trkpt lat="43.25166" lon="2.17718">
        <ele>167.714267</ele>
        <time>2023-01-04T16:26:58.109Z</time>
      </trkpt>
      <trkpt lat="43.25178" lon="2.17722">
        <ele>167.990636</ele>
        <time>2023-01-04T16:27:01.110Z</time>
      </trkpt>
      <trkpt lat="43.25188" lon="2.17727">
        <ele>168.241527</ele>
        <time>2023-01-04T16:27:04.120Z</time>
      </trkpt>
      <trkpt lat="43.25199" lon="2.17731">
        <ele>168.496481</ele>
        <time>2023-01-04T16:27:07.109Z</time>
      </trkpt>
      <trkpt lat="43.25209" lon="2.17735">
        <ele>168.728078</ele>
        <time>2023-01-04T16:27:10.132Z</time>
      </trkpt>
      <trkpt lat="43.25218" lon="2.1774">
        <ele>168.958591</ele>
        <time>2023-01-04T16:27:13.115Z</time>
      </trkpt>
      <trkpt lat="43.25226" lon="2.17746">
        <ele>169.169643</ele>
        <time>2023-01-04T16:27:16.136Z</time>
      </trkpt>
      <trkpt lat="43.25236" lon="2.17755">
        <ele>169.442616</ele>
        <time>2023-01-04T16:27:20.111Z</time>
      </trkpt>
      <trkpt lat="43.25246" lon="2.1776">
        <ele>169.666074</ele>
        <time>2023-01-04T16:27:23.116Z</time>
      </trkpt>
      <trkpt lat="43.25255" lon="2.17765">
        <ele>169.895003</ele>
        <time>2023-01-04T16:27:26.135Z</time>
      </trkpt>
      <trkpt lat="43.25264" lon="2.17769">
        <ele>170.106304</ele>
        <time>2023-01-04T16:27:29.138Z</time>
      </trkpt>
      <trkpt lat="43.25273" lon="2.17774">
        <ele>170.325194</ele>
        <time>2023-01-04T16:27:32.122Z</time>
      </trkpt>
      <trkpt lat="43.25283" lon="2.17776">
        <ele>170.560387</ele>
        <time>2023-01-04T16:27:35.107Z</time>
      </trkpt>
      <trkpt lat="43.25293" lon="2.17781">
        <ele>170.801117</ele>
        <time>2023-01-04T16:27:38.137Z</time>
      </trkpt>
      <trkpt lat="43.25303" lon="2.17785">
        <ele>171.029538</ele>
        <time>2023-01-04T16:27:41.138Z</time>
      </trkpt>
      <trkpt lat="43.25313" lon="2.17789">
        <ele>171.270907</ele>
        <time>2023-01-04T16:27:44.116Z</time>
      </trkpt>
      <trkpt lat="43.25323" lon="2.17795">
        <ele>171.513501</ele>
        <time>2023-01-04T16:27:47.114Z</time>
      </trkpt>
      <trkpt lat="43.25333" lon="2.178">
        <ele>171.757722</ele>
        <time>2023-01-04T16:27:50.143Z</time>
      </trkpt>
      <trkpt lat="43.25342" lon="2.17804">
        <ele>171.64677</ele>
        <time>2023-01-04T16:27:53.116Z</time>
      </trkpt>
      <trkpt lat="43.25353" lon="2.17809">
        <ele>171.440137</ele>
        <time>2023-01-04T16:27:58.113Z</time>
      </trkpt>
      <trkpt lat="43.25362" lon="2.1782">
        <ele>171.224784</ele>
        <time>2023-01-04T16:28:02.110Z</time>
      </trkpt>
      <trkpt lat="43.25367" lon="2.17834">
        <ele>171.023429</ele>
        <time>2023-01-04T16:28:05.130Z</time>
      </trkpt>
      <trkpt lat="43.25371" lon="2.17846">
        <ele>170.851784</ele>
        <time>2023-01-04T16:28:07.120Z</time>
      </trkpt>
      <trkpt lat="43.25375" lon="2.17858">
        <ele>170.679248</ele>
        <time>2023-01-04T16:28:09.115Z</time>
      </trkpt>
      <trkpt lat="43.2538" lon="2.17871">
        <ele>170.480621</ele>
        <time>2023-01-04T16:28:11.127Z</time>
      </trkpt>
      <trkpt lat="43.25385" lon="2.17884">
        <ele>170.288496</ele>
        <time>2023-01-04T16:28:13.123Z</time>
      </trkpt>
      <trkpt lat="43.25391" lon="2.17896">
        <ele>170.102522</ele>
        <time>2023-01-04T16:28:15.124Z</time>
      </trkpt>
      <trkpt lat="43.25398" lon="2.17908">
        <ele>169.907998</ele>
        <time>2023-01-04T16:28:17.117Z</time>
      </trkpt>
      <trkpt lat="43.25406" lon="2.17918">
        <ele>169.711119</ele>
        <time>2023-01-04T16:28:19.119Z</time>
      </trkpt>
      <trkpt lat="43.25415" lon="2.17927">
        <ele>169.511026</ele>
        <time>2023-01-04T16:28:21.132Z</time>
      </trkpt>
      <trkpt lat="43.25425" lon="2.17937">
        <ele>169.299301</ele>
        <time>2023-01-04T16:28:23.126Z</time>
      </trkpt>
      <trkpt lat="43.25433" lon="2.17946">
        <ele>169.100261</ele>
        <time>2023-01-04T16:28:25.147Z</time>
      </trkpt>
      <trkpt lat="43.2544" lon="2.17957">
        <ele>168.911299</ele>
        <time>2023-01-04T16:28:27.134Z</time>
      </trkpt>
      <trkpt lat="43.25446" lon="2.1797">
        <ele>168.709207</ele>
        <time>2023-01-04T16:28:29.136Z</time>
      </trkpt>
      <trkpt lat="43.25453" lon="2.17983">
        <ele>168.551589</ele>
        <time>2023-01-04T16:28:31.137Z</time>
      </trkpt>
      <trkpt lat="43.25458" lon="2.17998">
        <ele>168.479737</ele>
        <time>2023-01-04T16:28:33.135Z</time>
      </trkpt>
      <trkpt lat="43.25464" lon="2.18012">
        <ele>168.407595</ele>
        <time>2023-01-04T16:28:35.126Z</time>
      </trkpt>
      <trkpt lat="43.25468" lon="2.18027">
        <ele>168.334924</ele>
        <time>2023-01-04T16:28:37.137Z</time>
      </trkpt>
      <trkpt lat="43.25473" lon="2.18042">
        <ele>168.262001</ele>
        <time>2023-01-04T16:28:39.139Z</time>
      </trkpt>
      <trkpt lat="43.25478" lon="2.18057">
        <ele>168.18974</ele>
        <time>2023-01-04T16:28:41.141Z</time>
      </trkpt>
      <trkpt lat="43.25484" lon="2.18071">
        <ele>168.117404</ele>
        <time>2023-01-04T16:28:43.126Z</time>
      </trkpt>
      <trkpt lat="43.25488" lon="2.18084">
        <ele>168.049832</ele>
        <time>2023-01-04T16:28:45.130Z</time>
      </trkpt>
      <trkpt lat="43.25492" lon="2.18098">
        <ele>167.981916</ele>
        <time>2023-01-04T16:28:47.136Z</time>
      </trkpt>
      <trkpt lat="43.25497" lon="2.18112">
        <ele>167.915242</ele>
        <time>2023-01-04T16:28:49.141Z</time>
      </trkpt>
      <trkpt lat="43.25501" lon="2.18126">
        <ele>167.848155</ele>
        <time>2023-01-04T16:28:51.118Z</time>
      </trkpt>
      <trkpt lat="43.25506" lon="2.18138">
        <ele>167.787921</ele>
        <time>2023-01-04T16:28:53.132Z</time>
      </trkpt>
      <trkpt lat="43.2551" lon="2.18151">
        <ele>167.720263</ele>
        <time>2023-01-04T16:28:55.121Z</time>
      </trkpt>
      <trkpt lat="43.25515" lon="2.18165">
        <ele>167.650801</ele>
        <time>2023-01-04T16:28:57.137Z</time>
      </trkpt>
      <trkpt lat="43.25519" lon="2.1818">
        <ele>167.581222</ele>
        <time>2023-01-04T16:28:59.137Z</time>
      </trkpt>
      <trkpt lat="43.25523" lon="2.18194">
        <ele>167.5146</ele>
        <time>2023-01-04T16:29:01.136Z</time>
      </trkpt>
      <trkpt lat="43.25527" lon="2.18208">
        <ele>167.506222</ele>
        <time>2023-01-04T16:29:03.135Z</time>
      </trkpt>
      <trkpt lat="43.25531" lon="2.18222">
        <ele>167.601446</ele>
        <time>2023-01-04T16:29:05.138Z</time>
      </trkpt>
      <trkpt lat="43.25535" lon="2.18236">
        <ele>167.695498</ele>
        <time>2023-01-04T16:29:07.137Z</time>
      </trkpt>
      <trkpt lat="43.25539" lon="2.18251">
        <ele>167.790427</ele>
        <time>2023-01-04T16:29:09.117Z</time>
      </trkpt>
      <trkpt lat="43.25543" lon="2.18266">
        <ele>167.889704</ele>
        <time>2023-01-04T16:29:11.136Z</time>
      </trkpt>
      <trkpt lat="43.25547" lon="2.1828">
        <ele>167.985865</ele>
        <time>2023-01-04T16:29:13.117Z</time>
      </trkpt>
      <trkpt lat="43.2555" lon="2.18295">
        <ele>168.082438</ele>
        <time>2023-01-04T16:29:15.112Z</time>
      </trkpt>
      <trkpt lat="43.25553" lon="2.18311">
        <ele>168.184311</ele>
        <time>2023-01-04T16:29:17.107Z</time>
      </trkpt>
      <trkpt lat="43.25556" lon="2.18326">
        <ele>168.279107</ele>
        <time>2023-01-04T16:29:19.110Z</time>
      </trkpt>
      <trkpt lat="43.25559" lon="2.18339">
        <ele>168.363365</ele>
        <time>2023-01-04T16:29:21.125Z</time>
      </trkpt>
      <trkpt lat="43.25563" lon="2.18353">
        <ele>168.453652</ele>
        <time>2023-01-04T16:29:23.110Z</time>
      </trkpt>
      <trkpt lat="43.25566" lon="2.18365">
        <ele>168.53497</ele>
        <time>2023-01-04T16:29:25.138Z</time>
      </trkpt>
      <trkpt lat="43.25569" lon="2.18378">
        <ele>168.620075</ele>
        <time>2023-01-04T16:29:27.126Z</time>
      </trkpt>
      <trkpt lat="43.25571" lon="2.18391">
        <ele>168.699531</ele>
        <time>2023-01-04T16:29:29.138Z</time>
      </trkpt>
      <trkpt lat="43.25574" lon="2.18408">
        <ele>168.812034</ele>
        <time>2023-01-04T16:29:32.137Z</time>
      </trkpt>
      <trkpt lat="43.25577" lon="2.1842">
        <ele>168.88989</ele>
        <time>2023-01-04T16:29:34.117Z</time>
      </trkpt>
      <trkpt lat="43.25579" lon="2.18433">
        <ele>168.967155</ele>
        <time>2023-01-04T16:29:36.133Z</time>
      </trkpt>
      <trkpt lat="43.25582" lon="2.18445">
        <ele>168.994818</ele>
        <time>2023-01-04T16:29:38.136Z</time>
      </trkpt>
      <trkpt lat="43.25585" lon="2.18458">
        <ele>168.989691</ele>
        <time>2023-01-04T16:29:40.136Z</time>
      </trkpt>
      <trkpt lat="43.25588" lon="2.18469">
        <ele>168.984723</ele>
        <time>2023-01-04T16:29:42.136Z</time>
      </trkpt>
      <trkpt lat="43.25592" lon="2.18483">
        <ele>168.979225</ele>
        <time>2023-01-04T16:29:44.116Z</time>
      </trkpt>
      <trkpt lat="43.25595" lon="2.18496">
        <ele>168.973818</ele>
        <time>2023-01-04T16:29:46.136Z</time>
      </trkpt>
      <trkpt lat="43.25598" lon="2.1851">
        <ele>168.968263</ele>
        <time>2023-01-04T16:29:48.132Z</time>
      </trkpt>
      <trkpt lat="43.25601" lon="2.18524">
        <ele>168.962322</ele>
        <time>2023-01-04T16:29:50.135Z</time>
      </trkpt>
      <trkpt lat="43.25604" lon="2.18539">
        <ele>168.956314</ele>
        <time>2023-01-04T16:29:52.132Z</time>
      </trkpt>
      <trkpt lat="43.25607" lon="2.18555">
        <ele>168.949992</ele>
        <time>2023-01-04T16:29:54.111Z</time>
      </trkpt>
      <trkpt lat="43.2561" lon="2.18569">
        <ele>168.944162</ele>
        <time>2023-01-04T16:29:56.114Z</time>
      </trkpt>
      <trkpt lat="43.25615" lon="2.18584">
        <ele>168.938092</ele>
        <time>2023-01-04T16:29:58.119Z</time>
      </trkpt>
      <trkpt lat="43.25618" lon="2.18598">
        <ele>168.932267</ele>
        <time>2023-01-04T16:30:00.119Z</time>
      </trkpt>
      <trkpt lat="43.25622" lon="2.18612">
        <ele>168.926548</ele>
        <time>2023-01-04T16:30:02.120Z</time>
      </trkpt>
      <trkpt lat="43.25625" lon="2.18627">
        <ele>168.920495</ele>
        <time>2023-01-04T16:30:04.117Z</time>
      </trkpt>
      <trkpt lat="43.25628" lon="2.18642">
        <ele>168.914435</ele>
        <time>2023-01-04T16:30:06.118Z</time>
      </trkpt>
      <trkpt lat="43.25631" lon="2.18656">
        <ele>168.908568</ele>
        <time>2023-01-04T16:30:08.109Z</time>
      </trkpt>
      <trkpt lat="43.25634" lon="2.1867">
        <ele>168.902859</ele>
        <time>2023-01-04T16:30:10.115Z</time>
      </trkpt>
      <trkpt lat="43.25638" lon="2.18684">
        <ele>169.142745</ele>
        <time>2023-01-04T16:30:12.108Z</time>
      </trkpt>
      <trkpt lat="43.25642" lon="2.18697">
        <ele>169.41509</ele>
        <time>2023-01-04T16:30:14.118Z</time>
      </trkpt>
      <trkpt lat="43.25646" lon="2.18709">
        <ele>169.676412</ele>
        <time>2023-01-04T16:30:16.112Z</time>
      </trkpt>
      <trkpt lat="43.25651" lon="2.18721">
        <ele>169.93392</ele>
        <time>2023-01-04T16:30:18.113Z</time>
      </trkpt>
      <trkpt lat="43.25655" lon="2.18733">
        <ele>170.183227</ele>
        <time>2023-01-04T16:30:20.109Z</time>
      </trkpt>
      <trkpt lat="43.25659" lon="2.18744">
        <ele>170.443711</ele>
        <time>2023-01-04T16:30:22.120Z</time>
      </trkpt>
      <trkpt lat="43.25664" lon="2.18757">
        <ele>170.716969</ele>
        <time>2023-01-04T16:30:24.113Z</time>
      </trkpt>
      <trkpt lat="43.25669" lon="2.1877">
        <ele>170.999111</ele>
        <time>2023-01-04T16:30:26.110Z</time>
      </trkpt>
      <trkpt lat="43.25674" lon="2.18782">
        <ele>171.282523</ele>
        <time>2023-01-04T16:30:28.111Z</time>
      </trkpt>
      <trkpt lat="43.2568" lon="2.18794">
        <ele>171.550167</ele>
        <time>2023-01-04T16:30:30.131Z</time>
      </trkpt>
      <trkpt lat="43.25684" lon="2.18805">
        <ele>171.790175</ele>
        <time>2023-01-04T16:30:32.117Z</time>
      </trkpt>
      <trkpt lat="43.25689" lon="2.18816">
        <ele>172.036565</ele>
        <time>2023-01-04T16:30:34.125Z</time>
      </trkpt>
      <trkpt lat="43.25695" lon="2.18832">
        <ele>172.391149</ele>
        <time>2023-01-04T16:30:37.125Z</time>
      </trkpt>
      <trkpt lat="43.257" lon="2.18843">
        <ele>172.63453</ele>
        <time>2023-01-04T16:30:39.110Z</time>
      </trkpt>
      <trkpt lat="43.25706" lon="2.18857">
        <ele>172.968871</ele>
        <time>2023-01-04T16:30:42.134Z</time>
      </trkpt>
      <trkpt lat="43.25712" lon="2.18872">
        <ele>173.283822</ele>
        <time>2023-01-04T16:30:45.120Z</time>
      </trkpt>
      <trkpt lat="43.25717" lon="2.18884">
        <ele>173.562797</ele>
        <time>2023-01-04T16:30:48.111Z</time>
      </trkpt>
      <trkpt lat="43.25722" lon="2.18895">
        <ele>173.823067</ele>
        <time>2023-01-04T16:30:51.111Z</time>
      </trkpt>
      <trkpt lat="43.25726" lon="2.18907">
        <ele>174.093252</ele>
        <time>2023-01-04T16:30:54.129Z</time>
      </trkpt>
      <trkpt lat="43.25731" lon="2.18918">
        <ele>174.364031</ele>
        <time>2023-01-04T16:30:57.120Z</time>
      </trkpt>
      <trkpt lat="43.25736" lon="2.18929">
        <ele>174.636272</ele>
        <time>2023-01-04T16:31:00.113Z</time>
      </trkpt>
      <trkpt lat="43.25742" lon="2.18943">
        <ele>174.982221</ele>
        <time>2023-01-04T16:31:04.118Z</time>
      </trkpt>
      <trkpt lat="43.25747" lon="2.18954">
        <ele>175.240315</ele>
        <time>2023-01-04T16:31:07.126Z</time>
      </trkpt>
      <trkpt lat="43.25752" lon="2.18965">
        <ele>175.515088</ele>
        <time>2023-01-04T16:31:10.126Z</time>
      </trkpt>
      <trkpt lat="43.25756" lon="2.18976">
        <ele>175.777577</ele>
        <time>2023-01-04T16:31:13.117Z</time>
      </trkpt>
      <trkpt lat="43.2576" lon="2.18987">
        <ele>176.036368</ele>
        <time>2023-01-04T16:31:16.128Z</time>
      </trkpt>
      <trkpt lat="43.25766" lon="2.19001">
        <ele>176.366466</ele>
        <time>2023-01-04T16:31:20.108Z</time>
      </trkpt>
      <trkpt lat="43.25772" lon="2.19014">
        <ele>176.679792</ele>
        <time>2023-01-04T16:31:24.115Z</time>
      </trkpt>
      <trkpt lat="43.25777" lon="2.19028">
        <ele>177.012194</ele>
        <time>2023-01-04T16:31:28.107Z</time>
      </trkpt>
      <trkpt lat="43.25782" lon="2.19042">
        <ele>177.340451</ele>
        <time>2023-01-04T16:31:32.117Z</time>
      </trkpt>
      <trkpt lat="43.25787" lon="2.19053">
        <ele>177.612468</ele>
        <time>2023-01-04T16:31:35.113Z</time>
      </trkpt>
      <trkpt lat="43.25792" lon="2.19066">
        <ele>177.910604</ele>
        <time>2023-01-04T16:31:38.114Z</time>
      </trkpt>
      <trkpt lat="43.25797" lon="2.1908">
        <ele>178.234252</ele>
        <time>2023-01-04T16:31:41.118Z</time>
      </trkpt>
      <trkpt lat="43.25801" lon="2.19096">
        <ele>178.586016</ele>
        <time>2023-01-04T16:31:44.111Z</time>
      </trkpt>
      <trkpt lat="43.25806" lon="2.1911">
        <ele>178.872854</ele>
        <time>2023-01-04T16:31:47.118Z</time>
      </trkpt>
      <trkpt lat="43.25811" lon="2.19126">
        <ele>178.997762</ele>
        <time>2023-01-04T16:31:50.112Z</time>
      </trkpt>
      <trkpt lat="43.25817" lon="2.19143">
        <ele>179.13269</ele>
        <time>2023-01-04T16:31:53.118Z</time>
      </trkpt>
      <trkpt lat="43.25821" lon="2.19154">
        <ele>179.223373</ele>
        <time>2023-01-04T16:31:55.118Z</time>
      </trkpt>
      <trkpt lat="43.25825" lon="2.19165">
        <ele>179.31539</ele>
        <time>2023-01-04T16:31:57.115Z</time>
      </trkpt>
      <trkpt lat="43.25828" lon="2.19177">
        <ele>179.409381</ele>
        <time>2023-01-04T16:31:59.114Z</time>
      </trkpt>
      <trkpt lat="43.25833" lon="2.1919">
        <ele>179.509703</ele>
        <time>2023-01-04T16:32:01.122Z</time>
      </trkpt>
      <trkpt lat="43.25837" lon="2.19202">
        <ele>179.605957</ele>
        <time>2023-01-04T16:32:03.117Z</time>
      </trkpt>
      <trkpt lat="43.25841" lon="2.19213">
        <ele>179.703561</ele>
        <time>2023-01-04T16:32:05.105Z</time>
      </trkpt>
      <trkpt lat="43.25845" lon="2.19226">
        <ele>179.805588</ele>
        <time>2023-01-04T16:32:07.116Z</time>
      </trkpt>
      <trkpt lat="43.25849" lon="2.1924">
        <ele>179.91322</ele>
        <time>2023-01-04T16:32:09.121Z</time>
      </trkpt>
      <trkpt lat="43.25854" lon="2.19253">
        <ele>180.018139</ele>
        <time>2023-01-04T16:32:11.115Z</time>
      </trkpt>
      <trkpt lat="43.25859" lon="2.19266">
        <ele>180.124601</ele>
        <time>2023-01-04T16:32:13.121Z</time>
      </trkpt>
      <trkpt lat="43.25863" lon="2.1928">
        <ele>180.237872</ele>
        <time>2023-01-04T16:32:15.123Z</time>
      </trkpt>
      <trkpt lat="43.25868" lon="2.19294">
        <ele>180.349398</ele>
        <time>2023-01-04T16:32:17.119Z</time>
      </trkpt>
      <trkpt lat="43.25873" lon="2.19308">
        <ele>180.461334</ele>
        <time>2023-01-04T16:32:19.118Z</time>
      </trkpt>
      <trkpt lat="43.25877" lon="2.19321">
        <ele>180.569635</ele>
        <time>2023-01-04T16:32:21.117Z</time>
      </trkpt>
      <trkpt lat="43.25882" lon="2.19335">
        <ele>180.67491</ele>
        <time>2023-01-04T16:32:23.124Z</time>
      </trkpt>
      <trkpt lat="43.25887" lon="2.19349">
        <ele>180.763653</ele>
        <time>2023-01-04T16:32:25.116Z</time>
      </trkpt>
      <trkpt lat="43.25892" lon="2.19363">
        <ele>180.850011</ele>
        <time>2023-01-04T16:32:27.115Z</time>
      </trkpt>
      <trkpt lat="43.25896" lon="2.19377">
        <ele>180.937219</ele>
        <time>2023-01-04T16:32:29.123Z</time>
      </trkpt>
      <trkpt lat="43.25901" lon="2.19391">
        <ele>181.023751</ele>
        <time>2023-01-04T16:32:31.137Z</time>
      </trkpt>
      <trkpt lat="43.25905" lon="2.19406">
        <ele>181.114944</ele>
        <time>2023-01-04T16:32:33.131Z</time>
      </trkpt>
      <trkpt lat="43.2591" lon="2.1942">
        <ele>181.207177</ele>
        <time>2023-01-04T16:32:35.135Z</time>
      </trkpt>
      <trkpt lat="43.25915" lon="2.19435">
        <ele>181.296618</ele>
        <time>2023-01-04T16:32:37.130Z</time>
      </trkpt>
      <trkpt lat="43.2592" lon="2.1945">
        <ele>181.388645</ele>
        <time>2023-01-04T16:32:39.115Z</time>
      </trkpt>
      <trkpt lat="43.25924" lon="2.19464">
        <ele>181.478085</ele>
        <time>2023-01-04T16:32:41.112Z</time>
      </trkpt>
      <trkpt lat="43.25929" lon="2.19478">
        <ele>181.566657</ele>
        <time>2023-01-04T16:32:43.111Z</time>
      </trkpt>
      <trkpt lat="43.25933" lon="2.19492">
        <ele>181.653393</ele>
        <time>2023-01-04T16:32:45.114Z</time>
      </trkpt>
      <trkpt lat="43.25938" lon="2.19506">
        <ele>181.741358</ele>
        <time>2023-01-04T16:32:47.113Z</time>
      </trkpt>
      <trkpt lat="43.25943" lon="2.19522">
        <ele>181.835681</ele>
        <time>2023-01-04T16:32:49.138Z</time>
      </trkpt>
      <trkpt lat="43.25947" lon="2.19537">
        <ele>181.930706</ele>
        <time>2023-01-04T16:32:51.129Z</time>
      </trkpt>
      <trkpt lat="43.25952" lon="2.19553">
        <ele>182.026076</ele>
        <time>2023-01-04T16:32:53.135Z</time>
      </trkpt>
      <trkpt lat="43.25956" lon="2.19568">
        <ele>181.992314</ele>
        <time>2023-01-04T16:32:55.128Z</time>
      </trkpt>
      <trkpt lat="43.2596" lon="2.19582">
        <ele>181.908588</ele>
        <time>2023-01-04T16:32:57.122Z</time>
      </trkpt>
      <trkpt lat="43.25964" lon="2.19597">
        <ele>181.825299</ele>
        <time>2023-01-04T16:32:59.136Z</time>
      </trkpt>
      <trkpt lat="43.25968" lon="2.1961">
        <ele>181.748321</ele>
        <time>2023-01-04T16:33:01.114Z</time>
      </trkpt>
      <trkpt lat="43.25972" lon="2.19624">
        <ele>181.669995</ele>
        <time>2023-01-04T16:33:03.138Z</time>
      </trkpt>
      <trkpt lat="43.25975" lon="2.19637">
        <ele>181.595495</ele>
        <time>2023-01-04T16:33:05.130Z</time>
      </trkpt>
      <trkpt lat="43.25979" lon="2.1965">
        <ele>181.523497</ele>
        <time>2023-01-04T16:33:07.126Z</time>
      </trkpt>
      <trkpt lat="43.25983" lon="2.19661">
        <ele>181.457021</ele>
        <time>2023-01-04T16:33:09.119Z</time>
      </trkpt>
      <trkpt lat="43.25987" lon="2.19674">
        <ele>181.38595</ele>
        <time>2023-01-04T16:33:11.127Z</time>
      </trkpt>
      <trkpt lat="43.25991" lon="2.19686">
        <ele>181.312584</ele>
        <time>2023-01-04T16:33:13.135Z</time>
      </trkpt>
      <trkpt lat="43.25996" lon="2.19699">
        <ele>181.237523</ele>
        <time>2023-01-04T16:33:15.129Z</time>
      </trkpt>
      <trkpt lat="43.26" lon="2.19712">
        <ele>181.158015</ele>
        <time>2023-01-04T16:33:17.121Z</time>
      </trkpt>
      <trkpt lat="43.26004" lon="2.19726">
        <ele>181.079755</ele>
        <time>2023-01-04T16:33:19.122Z</time>
      </trkpt>
      <trkpt lat="43.26009" lon="2.1974">
        <ele>180.998419</ele>
        <time>2023-01-04T16:33:21.134Z</time>
      </trkpt>
      <trkpt lat="43.26013" lon="2.19755">
        <ele>180.914641</ele>
        <time>2023-01-04T16:33:23.132Z</time>
      </trkpt>
      <trkpt lat="43.26018" lon="2.19769">
        <ele>180.834471</ele>
        <time>2023-01-04T16:33:25.122Z</time>
      </trkpt>
      <trkpt lat="43.26022" lon="2.19783">
        <ele>180.749638</ele>
        <time>2023-01-04T16:33:27.118Z</time>
      </trkpt>
      <trkpt lat="43.26026" lon="2.19798">
        <ele>180.733589</ele>
        <time>2023-01-04T16:33:29.113Z</time>
      </trkpt>
      <trkpt lat="43.26031" lon="2.19812">
        <ele>180.723159</ele>
        <time>2023-01-04T16:33:31.128Z</time>
      </trkpt>
      <trkpt lat="43.26037" lon="2.19828">
        <ele>180.712049</ele>
        <time>2023-01-04T16:33:33.111Z</time>
      </trkpt>
      <trkpt lat="43.26041" lon="2.19843">
        <ele>180.701246</ele>
        <time>2023-01-04T16:33:35.122Z</time>
      </trkpt>
      <trkpt lat="43.26046" lon="2.19859">
        <ele>180.690537</ele>
        <time>2023-01-04T16:33:37.120Z</time>
      </trkpt>
      <trkpt lat="43.26051" lon="2.19874">
        <ele>180.680004</ele>
        <time>2023-01-04T16:33:39.137Z</time>
      </trkpt>
      <trkpt lat="43.26056" lon="2.19888">
        <ele>180.669896</ele>
        <time>2023-01-04T16:33:41.124Z</time>
      </trkpt>
      <trkpt lat="43.2606" lon="2.19902">
        <ele>180.660494</ele>
        <time>2023-01-04T16:33:43.134Z</time>
      </trkpt>
      <trkpt lat="43.26064" lon="2.19915">
        <ele>180.651145</ele>
        <time>2023-01-04T16:33:45.132Z</time>
      </trkpt>
      <trkpt lat="43.26068" lon="2.19929">
        <ele>180.641389</ele>
        <time>2023-01-04T16:33:47.109Z</time>
      </trkpt>
      <trkpt lat="43.26072" lon="2.19943">
        <ele>180.631602</ele>
        <time>2023-01-04T16:33:49.133Z</time>
      </trkpt>
      <trkpt lat="43.26077" lon="2.19958">
        <ele>180.621351</ele>
        <time>2023-01-04T16:33:51.118Z</time>
      </trkpt>
      <trkpt lat="43.26081" lon="2.19973">
        <ele>180.6111</ele>
        <time>2023-01-04T16:33:53.140Z</time>
      </trkpt>
      <trkpt lat="43.26086" lon="2.19988">
        <ele>180.60046</ele>
        <time>2023-01-04T16:33:55.120Z</time>
      </trkpt>
      <trkpt lat="43.26089" lon="2.20004">
        <ele>180.589659</ele>
        <time>2023-01-04T16:33:57.144Z</time>
      </trkpt>
      <trkpt lat="43.26092" lon="2.2002">
        <ele>180.624864</ele>
        <time>2023-01-04T16:33:59.148Z</time>
      </trkpt>
      <trkpt lat="43.26095" lon="2.20037">
        <ele>180.718583</ele>
        <time>2023-01-04T16:34:01.138Z</time>
      </trkpt>
      <trkpt lat="43.26098" lon="2.20054">
        <ele>180.812998</ele>
        <time>2023-01-04T16:34:03.138Z</time>
      </trkpt>
      <trkpt lat="43.261" lon="2.20071">
        <ele>180.909495</ele>
        <time>2023-01-04T16:34:05.126Z</time>
      </trkpt>
      <trkpt lat="43.26102" lon="2.20089">
        <ele>181.00653</ele>
        <time>2023-01-04T16:34:07.136Z</time>
      </trkpt>
      <trkpt lat="43.26103" lon="2.20106">
        <ele>181.102434</ele>
        <time>2023-01-04T16:34:09.113Z</time>
      </trkpt>
      <trkpt lat="43.26105" lon="2.20125">
        <ele>181.204838</ele>
        <time>2023-01-04T16:34:11.130Z</time>
      </trkpt>
      <trkpt lat="43.26107" lon="2.20143">
        <ele>181.304456</ele>
        <time>2023-01-04T16:34:13.121Z</time>
      </trkpt>
      <trkpt lat="43.26108" lon="2.20161">
        <ele>181.401272</ele>
        <time>2023-01-04T16:34:15.131Z</time>
      </trkpt>
      <trkpt lat="43.2611" lon="2.20178">
        <ele>181.495471</ele>
        <time>2023-01-04T16:34:17.128Z</time>
      </trkpt>
      <trkpt lat="43.26111" lon="2.20195">
        <ele>181.589487</ele>
        <time>2023-01-04T16:34:19.130Z</time>
      </trkpt>
      <trkpt lat="43.26113" lon="2.20211">
        <ele>181.679725</ele>
        <time>2023-01-04T16:34:21.120Z</time>
      </trkpt>
      <trkpt lat="43.26115" lon="2.2023">
        <ele>181.77942</ele>
        <time>2023-01-04T16:34:23.115Z</time>
      </trkpt>
      <trkpt lat="43.26116" lon="2.20247">
        <ele>181.877661</ele>
        <time>2023-01-04T16:34:25.134Z</time>
      </trkpt>
      <trkpt lat="43.26117" lon="2.20266">
        <ele>181.938517</ele>
        <time>2023-01-04T16:34:27.138Z</time>
      </trkpt>
      <trkpt lat="43.26118" lon="2.20283">
        <ele>181.957591</ele>
        <time>2023-01-04T16:34:29.140Z</time>
      </trkpt>
      <trkpt lat="43.26118" lon="2.20302">
        <ele>181.97753</ele>
        <time>2023-01-04T16:34:31.120Z</time>
      </trkpt>
      <trkpt lat="43.26119" lon="2.20321">
        <ele>181.998087</ele>
        <time>2023-01-04T16:34:33.121Z</time>
      </trkpt>
      <trkpt lat="43.2612" lon="2.20341">
        <ele>182.019107</ele>
        <time>2023-01-04T16:34:35.112Z</time>
      </trkpt>
      <trkpt lat="43.2612" lon="2.2036">
        <ele>182.039439</ele>
        <time>2023-01-04T16:34:37.134Z</time>
      </trkpt>
      <trkpt lat="43.2612" lon="2.2038">
        <ele>182.059991</ele>
        <time>2023-01-04T16:34:39.123Z</time>
      </trkpt>
      <trkpt lat="43.26121" lon="2.20399">
        <ele>182.080858</ele>
        <time>2023-01-04T16:34:41.139Z</time>
      </trkpt>
      <trkpt lat="43.26121" lon="2.20419">
        <ele>182.10162</ele>
        <time>2023-01-04T16:34:43.137Z</time>
      </trkpt>
      <trkpt lat="43.26121" lon="2.20438">
        <ele>182.122058</ele>
        <time>2023-01-04T16:34:45.138Z</time>
      </trkpt>
      <trkpt lat="43.26121" lon="2.20457">
        <ele>182.142071</ele>
        <time>2023-01-04T16:34:47.135Z</time>
      </trkpt>
      <trkpt lat="43.2612" lon="2.20476">
        <ele>182.162315</ele>
        <time>2023-01-04T16:34:49.130Z</time>
      </trkpt>
      <trkpt lat="43.2612" lon="2.20494">
        <ele>182.182352</ele>
        <time>2023-01-04T16:34:51.119Z</time>
      </trkpt>
      <trkpt lat="43.26119" lon="2.20513">
        <ele>182.159868</ele>
        <time>2023-01-04T16:34:53.137Z</time>
      </trkpt>
      <trkpt lat="43.26119" lon="2.20532">
        <ele>182.099151</ele>
        <time>2023-01-04T16:34:55.130Z</time>
      </trkpt>
      <trkpt lat="43.26118" lon="2.2055">
        <ele>182.039097</ele>
        <time>2023-01-04T16:34:57.112Z</time>
      </trkpt>
      <trkpt lat="43.26118" lon="2.20569">
        <ele>181.975632</ele>
        <time>2023-01-04T16:34:59.138Z</time>
      </trkpt>
      <trkpt lat="43.26117" lon="2.20588">
        <ele>181.912221</ele>
        <time>2023-01-04T16:35:01.114Z</time>
      </trkpt>
      <trkpt lat="43.26117" lon="2.20605">
        <ele>181.854173</ele>
        <time>2023-01-04T16:35:03.139Z</time>
      </trkpt>
      <trkpt lat="43.26118" lon="2.20624">
        <ele>181.791108</ele>
        <time>2023-01-04T16:35:05.138Z</time>
      </trkpt>
      <trkpt lat="43.26117" lon="2.20643">
        <ele>181.728376</ele>
        <time>2023-01-04T16:35:07.117Z</time>
      </trkpt>
      <trkpt lat="43.26118" lon="2.2066">
        <ele>181.669185</ele>
        <time>2023-01-04T16:35:09.120Z</time>
      </trkpt>
      <trkpt lat="43.26119" lon="2.20679">
        <ele>181.606075</ele>
        <time>2023-01-04T16:35:11.130Z</time>
      </trkpt>
      <trkpt lat="43.26119" lon="2.20698">
        <ele>181.541998</ele>
        <time>2023-01-04T16:35:13.117Z</time>
      </trkpt>
      <trkpt lat="43.2612" lon="2.20716">
        <ele>181.481699</ele>
        <time>2023-01-04T16:35:15.136Z</time>
      </trkpt>
      <trkpt lat="43.26121" lon="2.20735">
        <ele>181.420635</ele>
        <time>2023-01-04T16:35:17.116Z</time>
      </trkpt>
      <trkpt lat="43.26121" lon="2.20752">
        <ele>181.368432</ele>
        <time>2023-01-04T16:35:19.119Z</time>
      </trkpt>
      <trkpt lat="43.26122" lon="2.2077">
        <ele>181.370042</ele>
        <time>2023-01-04T16:35:21.153Z</time>
      </trkpt>
      <trkpt lat="43.26123" lon="2.20787">
        <ele>181.37163</ele>
        <time>2023-01-04T16:35:23.115Z</time>
      </trkpt>
      <trkpt lat="43.26123" lon="2.20803">
        <ele>181.373175</ele>
        <time>2023-01-04T16:35:25.135Z</time>
      </trkpt>
      <trkpt lat="43.26124" lon="2.20821">
        <ele>181.374795</ele>
        <time>2023-01-04T16:35:27.129Z</time>
      </trkpt>
      <trkpt lat="43.26125" lon="2.20838">
        <ele>181.376412</ele>
        <time>2023-01-04T16:35:29.130Z</time>
      </trkpt>
      <trkpt lat="43.26126" lon="2.20856">
        <ele>181.378064</ele>
        <time>2023-01-04T16:35:31.140Z</time>
      </trkpt>
      <trkpt lat="43.26128" lon="2.20873">
        <ele>181.379706</ele>
        <time>2023-01-04T16:35:33.118Z</time>
      </trkpt>
      <trkpt lat="43.2613" lon="2.20892">
        <ele>181.38145</ele>
        <time>2023-01-04T16:35:35.117Z</time>
      </trkpt>
      <trkpt lat="43.26131" lon="2.2091">
        <ele>181.383166</ele>
        <time>2023-01-04T16:35:37.123Z</time>
      </trkpt>
      <trkpt lat="43.26133" lon="2.20928">
        <ele>181.384881</ele>
        <time>2023-01-04T16:35:39.114Z</time>
      </trkpt>
      <trkpt lat="43.26135" lon="2.20947">
        <ele>181.386645</ele>
        <time>2023-01-04T16:35:41.139Z</time>
      </trkpt>
      <trkpt lat="43.26138" lon="2.20965">
        <ele>181.38837</ele>
        <time>2023-01-04T16:35:43.121Z</time>
      </trkpt>
      <trkpt lat="43.26139" lon="2.20984">
        <ele>181.390099</ele>
        <time>2023-01-04T16:35:45.121Z</time>
      </trkpt>
      <trkpt lat="43.2614" lon="2.21003">
        <ele>181.349626</ele>
        <time>2023-01-04T16:35:47.121Z</time>
      </trkpt>
      <trkpt lat="43.26142" lon="2.21022">
        <ele>181.234208</ele>
        <time>2023-01-04T16:35:49.118Z</time>
      </trkpt>
      <trkpt lat="43.26144" lon="2.21042">
        <ele>181.113125</ele>
        <time>2023-01-04T16:35:51.120Z</time>
      </trkpt>
      <trkpt lat="43.26146" lon="2.21063">
        <ele>180.986683</ele>
        <time>2023-01-04T16:35:53.138Z</time>
      </trkpt>
      <trkpt lat="43.26147" lon="2.21085">
        <ele>180.855149</ele>
        <time>2023-01-04T16:35:55.135Z</time>
      </trkpt>
      <trkpt lat="43.2615" lon="2.21106">
        <ele>180.722543</ele>
        <time>2023-01-04T16:35:57.119Z</time>
      </trkpt>
      <trkpt lat="43.26151" lon="2.21129">
        <ele>180.58895</ele>
        <time>2023-01-04T16:35:59.114Z</time>
      </trkpt>
      <trkpt lat="43.26153" lon="2.2115">
        <ele>180.459805</ele>
        <time>2023-01-04T16:36:01.136Z</time>
      </trkpt>
      <trkpt lat="43.26155" lon="2.21171">
        <ele>180.331673</ele>
        <time>2023-01-04T16:36:03.113Z</time>
      </trkpt>
      <trkpt lat="43.26156" lon="2.21192">
        <ele>180.203723</ele>
        <time>2023-01-04T16:36:05.111Z</time>
      </trkpt>
      <trkpt lat="43.26157" lon="2.21213">
        <ele>180.078082</ele>
        <time>2023-01-04T16:36:07.121Z</time>
      </trkpt>
      <trkpt lat="43.26158" lon="2.21234">
        <ele>179.951389</ele>
        <time>2023-01-04T16:36:09.112Z</time>
      </trkpt>
      <trkpt lat="43.26157" lon="2.21256">
        <ele>179.97182</ele>
        <time>2023-01-04T16:36:11.121Z</time>
      </trkpt>
      <trkpt lat="43.26156" lon="2.21276">
        <ele>180.06425</ele>
        <time>2023-01-04T16:36:13.117Z</time>
      </trkpt>
      <trkpt lat="43.26154" lon="2.21296">
        <ele>180.153296</ele>
        <time>2023-01-04T16:36:15.117Z</time>
      </trkpt>
      <trkpt lat="43.26154" lon="2.21314">
        <ele>180.234781</ele>
        <time>2023-01-04T16:36:17.123Z</time>
      </trkpt>
      <trkpt lat="43.26153" lon="2.21332">
        <ele>180.317256</ele>
        <time>2023-01-04T16:36:19.118Z</time>
      </trkpt>
      <trkpt lat="43.26153" lon="2.2135">
        <ele>180.396455</ele>
        <time>2023-01-04T16:36:21.118Z</time>
      </trkpt>
      <trkpt lat="43.26152" lon="2.21368">
        <ele>180.476649</ele>
        <time>2023-01-04T16:36:23.116Z</time>
      </trkpt>
      <trkpt lat="43.26151" lon="2.21385">
        <ele>180.556621</ele>
        <time>2023-01-04T16:36:25.119Z</time>
      </trkpt>
      <trkpt lat="43.26149" lon="2.21404">
        <ele>180.641033</ele>
        <time>2023-01-04T16:36:27.119Z</time>
      </trkpt>
      <trkpt lat="43.26147" lon="2.21422">
        <ele>180.724375</ele>
        <time>2023-01-04T16:36:29.118Z</time>
      </trkpt>
      <trkpt lat="43.26145" lon="2.2144">
        <ele>180.807254</ele>
        <time>2023-01-04T16:36:31.118Z</time>
      </trkpt>
      <trkpt lat="43.26143" lon="2.21459">
        <ele>180.890694</ele>
        <time>2023-01-04T16:36:33.130Z</time>
      </trkpt>
      <trkpt lat="43.26141" lon="2.21477">
        <ele>180.97537</ele>
        <time>2023-01-04T16:36:35.129Z</time>
      </trkpt>
      <trkpt lat="43.26139" lon="2.21495">
        <ele>181.111031</ele>
        <time>2023-01-04T16:36:37.140Z</time>
      </trkpt>
      <trkpt lat="43.26136" lon="2.21513">
        <ele>181.297179</ele>
        <time>2023-01-04T16:36:39.120Z</time>
      </trkpt>
      <trkpt lat="43.26134" lon="2.21529">
        <ele>181.473971</ele>
        <time>2023-01-04T16:36:41.108Z</time>
      </trkpt>
      <trkpt lat="43.26131" lon="2.21545">
        <ele>181.64887</ele>
        <time>2023-01-04T16:36:43.113Z</time>
      </trkpt>
      <trkpt lat="43.26129" lon="2.21561">
        <ele>181.822859</ele>
        <time>2023-01-04T16:36:45.121Z</time>
      </trkpt>
      <trkpt lat="43.26127" lon="2.21577">
        <ele>181.994915</ele>
        <time>2023-01-04T16:36:47.114Z</time>
      </trkpt>
      <trkpt lat="43.26125" lon="2.21592">
        <ele>182.153368</ele>
        <time>2023-01-04T16:36:49.115Z</time>
      </trkpt>
      <trkpt lat="43.26123" lon="2.21607">
        <ele>182.320779</ele>
        <time>2023-01-04T16:36:51.132Z</time>
      </trkpt>
      <trkpt lat="43.26121" lon="2.21624">
        <ele>182.49716</ele>
        <time>2023-01-04T16:36:53.121Z</time>
      </trkpt>
      <trkpt lat="43.26118" lon="2.21641">
        <ele>182.68331</ele>
        <time>2023-01-04T16:36:55.130Z</time>
      </trkpt>
      <trkpt lat="43.26115" lon="2.21659">
        <ele>182.875989</ele>
        <time>2023-01-04T16:36:57.117Z</time>
      </trkpt>
      <trkpt lat="43.26113" lon="2.21675">
        <ele>183.053763</ele>
        <time>2023-01-04T16:36:59.128Z</time>
      </trkpt>
      <trkpt lat="43.26111" lon="2.21692">
        <ele>183.237832</ele>
        <time>2023-01-04T16:37:01.117Z</time>
      </trkpt>
      <trkpt lat="43.26109" lon="2.2171">
        <ele>183.425521</ele>
        <time>2023-01-04T16:37:03.118Z</time>
      </trkpt>
      <trkpt lat="43.26106" lon="2.21727">
        <ele>183.611391</ele>
        <time>2023-01-04T16:37:05.129Z</time>
      </trkpt>
      <trkpt lat="43.26104" lon="2.21744">
        <ele>183.529944</ele>
        <time>2023-01-04T16:37:07.115Z</time>
      </trkpt>
      <trkpt lat="43.26101" lon="2.21761">
        <ele>183.393725</ele>
        <time>2023-01-04T16:37:09.114Z</time>
      </trkpt>
      <trkpt lat="43.26098" lon="2.21777">
        <ele>183.264058</ele>
        <time>2023-01-04T16:37:11.128Z</time>
      </trkpt>
      <trkpt lat="43.26097" lon="2.21794">
        <ele>183.13203</ele>
        <time>2023-01-04T16:37:13.116Z</time>
      </trkpt>
      <trkpt lat="43.26095" lon="2.21809">
        <ele>183.012692</ele>
        <time>2023-01-04T16:37:15.122Z</time>
      </trkpt>
      <trkpt lat="43.26094" lon="2.21824">
        <ele>182.895653</ele>
        <time>2023-01-04T16:37:17.113Z</time>
      </trkpt>
      <trkpt lat="43.26092" lon="2.2184">
        <ele>182.775849</ele>
        <time>2023-01-04T16:37:19.119Z</time>
      </trkpt>
      <trkpt lat="43.2609" lon="2.21854">
        <ele>182.663683</ele>
        <time>2023-01-04T16:37:21.135Z</time>
      </trkpt>
      <trkpt lat="43.26089" lon="2.21869">
        <ele>182.548448</ele>
        <time>2023-01-04T16:37:23.138Z</time>
      </trkpt>
      <trkpt lat="43.26087" lon="2.21884">
        <ele>182.427881</ele>
        <time>2023-01-04T16:37:25.114Z</time>
      </trkpt>
      <trkpt lat="43.26086" lon="2.21901">
        <ele>182.298147</ele>
        <time>2023-01-04T16:37:27.120Z</time>
      </trkpt>
      <trkpt lat="43.26083" lon="2.21918">
        <ele>182.162425</ele>
        <time>2023-01-04T16:37:29.119Z</time>
      </trkpt>
      <trkpt lat="43.2608" lon="2.21935">
        <ele>182.027168</ele>
        <time>2023-01-04T16:37:31.117Z</time>
      </trkpt>
      <trkpt lat="43.26078" lon="2.21952">
        <ele>181.892748</ele>
        <time>2023-01-04T16:37:33.139Z</time>
      </trkpt>
      <trkpt lat="43.26076" lon="2.2197">
        <ele>181.749541</ele>
        <time>2023-01-04T16:37:35.116Z</time>
      </trkpt>
      <trkpt lat="43.26073" lon="2.21988">
        <ele>181.762483</ele>
        <time>2023-01-04T16:37:37.122Z</time>
      </trkpt>
      <trkpt lat="43.2607" lon="2.22007">
        <ele>181.799535</ele>
        <time>2023-01-04T16:37:39.139Z</time>
      </trkpt>
      <trkpt lat="43.26068" lon="2.22026">
        <ele>181.837837</ele>
        <time>2023-01-04T16:37:41.116Z</time>
      </trkpt>
      <trkpt lat="43.26065" lon="2.22045">
        <ele>181.875466</ele>
        <time>2023-01-04T16:37:43.126Z</time>
      </trkpt>
      <trkpt lat="43.26062" lon="2.22064">
        <ele>181.913781</ele>
        <time>2023-01-04T16:37:45.135Z</time>
      </trkpt>
      <trkpt lat="43.2606" lon="2.22084">
        <ele>181.953392</ele>
        <time>2023-01-04T16:37:47.138Z</time>
      </trkpt>
      <trkpt lat="43.26058" lon="2.22102">
        <ele>181.990702</ele>
        <time>2023-01-04T16:37:49.114Z</time>
      </trkpt>
      <trkpt lat="43.26055" lon="2.22122">
        <ele>182.030313</ele>
        <time>2023-01-04T16:37:51.124Z</time>
      </trkpt>
      <trkpt lat="43.26053" lon="2.22142">
        <ele>182.069099</ele>
        <time>2023-01-04T16:37:53.138Z</time>
      </trkpt>
      <trkpt lat="43.2605" lon="2.22161">
        <ele>182.106922</ele>
        <time>2023-01-04T16:37:55.120Z</time>
      </trkpt>
      <trkpt lat="43.26048" lon="2.2218">
        <ele>182.146102</ele>
        <time>2023-01-04T16:37:57.139Z</time>
      </trkpt>
      <trkpt lat="43.26046" lon="2.22199">
        <ele>182.183995</ele>
        <time>2023-01-04T16:37:59.139Z</time>
      </trkpt>
      <trkpt lat="43.26043" lon="2.22218">
        <ele>182.221039</ele>
        <time>2023-01-04T16:38:01.141Z</time>
      </trkpt>
      <trkpt lat="43.26041" lon="2.22238">
        <ele>182.252689</ele>
        <time>2023-01-04T16:38:03.120Z</time>
      </trkpt>
      <trkpt lat="43.26037" lon="2.22257">
        <ele>182.283527</ele>
        <time>2023-01-04T16:38:05.119Z</time>
      </trkpt>
      <trkpt lat="43.26034" lon="2.22275">
        <ele>182.31344</ele>
        <time>2023-01-04T16:38:07.118Z</time>
      </trkpt>
      <trkpt lat="43.26031" lon="2.22292">
        <ele>182.3413</ele>
        <time>2023-01-04T16:38:09.114Z</time>
      </trkpt>
      <trkpt lat="43.26028" lon="2.22309">
        <ele>182.368506</ele>
        <time>2023-01-04T16:38:11.110Z</time>
      </trkpt>
      <trkpt lat="43.26026" lon="2.22325">
        <ele>182.39399</ele>
        <time>2023-01-04T16:38:13.137Z</time>
      </trkpt>
      <trkpt lat="43.26024" lon="2.22341">
        <ele>182.419678</ele>
        <time>2023-01-04T16:38:15.120Z</time>
      </trkpt>
      <trkpt lat="43.26023" lon="2.22356">
        <ele>182.443889</ele>
        <time>2023-01-04T16:38:17.113Z</time>
      </trkpt>
      <trkpt lat="43.26021" lon="2.22371">
        <ele>182.468166</ele>
        <time>2023-01-04T16:38:19.137Z</time>
      </trkpt>
      <trkpt lat="43.2602" lon="2.22386">
        <ele>182.49175</ele>
        <time>2023-01-04T16:38:21.114Z</time>
      </trkpt>
      <trkpt lat="43.26019" lon="2.224">
        <ele>182.514589</ele>
        <time>2023-01-04T16:38:23.112Z</time>
      </trkpt>
      <trkpt lat="43.26018" lon="2.22415">
        <ele>182.538628</ele>
        <time>2023-01-04T16:38:25.111Z</time>
      </trkpt>
      <trkpt lat="43.26017" lon="2.22432">
        <ele>182.564582</ele>
        <time>2023-01-04T16:38:27.120Z</time>
      </trkpt>
      <trkpt lat="43.26016" lon="2.22448">
        <ele>182.590504</ele>
        <time>2023-01-04T16:38:29.138Z</time>
      </trkpt>
      <trkpt lat="43.26016" lon="2.22464">
        <ele>182.438192</ele>
        <time>2023-01-04T16:38:31.125Z</time>
      </trkpt>
      <trkpt lat="43.26015" lon="2.22482">
        <ele>181.80744</ele>
        <time>2023-01-04T16:38:33.136Z</time>
      </trkpt>
      <trkpt lat="43.26016" lon="2.22499">
        <ele>181.183718</ele>
        <time>2023-01-04T16:38:35.138Z</time>
      </trkpt>
      <trkpt lat="43.26016" lon="2.22518">
        <ele>180.531644</ele>
        <time>2023-01-04T16:38:37.138Z</time>
      </trkpt>
      <trkpt lat="43.26016" lon="2.22536">
        <ele>179.865319</ele>
        <time>2023-01-04T16:38:39.140Z</time>
      </trkpt>
      <trkpt lat="43.26015" lon="2.22557">
        <ele>179.120044</ele>
        <time>2023-01-04T16:38:41.128Z</time>
      </trkpt>
      <trkpt lat="43.26014" lon="2.22579">
        <ele>178.333957</ele>
        <time>2023-01-04T16:38:43.120Z</time>
      </trkpt>
      <trkpt lat="43.26013" lon="2.22601">
        <ele>177.556806</ele>
        <time>2023-01-04T16:38:45.151Z</time>
      </trkpt>
      <trkpt lat="43.26013" lon="2.22624">
        <ele>176.74744</ele>
        <time>2023-01-04T16:38:47.138Z</time>
      </trkpt>
      <trkpt lat="43.26013" lon="2.22646">
        <ele>175.952724</ele>
        <time>2023-01-04T16:38:49.135Z</time>
      </trkpt>
      <trkpt lat="43.26011" lon="2.22669">
        <ele>175.12788</ele>
        <time>2023-01-04T16:38:51.136Z</time>
      </trkpt>
      <trkpt lat="43.26011" lon="2.22692">
        <ele>174.293587</ele>
        <time>2023-01-04T16:38:53.137Z</time>
      </trkpt>
      <trkpt lat="43.2601" lon="2.22716">
        <ele>173.55225</ele>
        <time>2023-01-04T16:38:55.148Z</time>
      </trkpt>
      <trkpt lat="43.26009" lon="2.22739">
        <ele>172.949033</ele>
        <time>2023-01-04T16:38:57.136Z</time>
      </trkpt>
      <trkpt lat="43.26008" lon="2.22761">
        <ele>172.347891</ele>
        <time>2023-01-04T16:38:59.122Z</time>
      </trkpt>
      <trkpt lat="43.26007" lon="2.22782">
        <ele>171.808271</ele>
        <time>2023-01-04T16:39:01.117Z</time>
      </trkpt>
      <trkpt lat="43.26005" lon="2.228">
        <ele>171.323189</ele>
        <time>2023-01-04T16:39:03.118Z</time>
      </trkpt>
      <trkpt lat="43.26005" lon="2.22816">
        <ele>170.912483</ele>
        <time>2023-01-04T16:39:05.137Z</time>
      </trkpt>
      <trkpt lat="43.26004" lon="2.22829">
        <ele>170.575532</ele>
        <time>2023-01-04T16:39:07.137Z</time>
      </trkpt>
      <trkpt lat="43.26005" lon="2.22841">
        <ele>170.240803</ele>
        <time>2023-01-04T16:39:10.111Z</time>
      </trkpt>
      <trkpt lat="43.26008" lon="2.22855">
        <ele>169.870748</ele>
        <time>2023-01-04T16:44:31.150Z</time>
      </trkpt>
      <trkpt lat="43.26007" lon="2.22871">
        <ele>169.444379</ele>
        <time>2023-01-04T16:44:35.138Z</time>
      </trkpt>
      <trkpt lat="43.26008" lon="2.22885">
        <ele>169.070643</ele>
        <time>2023-01-04T16:44:38.117Z</time>
      </trkpt>
      <trkpt lat="43.26007" lon="2.22902">
        <ele>168.625338</ele>
        <time>2023-01-04T16:44:41.131Z</time>
      </trkpt>
      <trkpt lat="43.26006" lon="2.22915">
        <ele>168.284604</ele>
        <time>2023-01-04T16:44:43.120Z</time>
      </trkpt>
      <trkpt lat="43.26005" lon="2.22928">
        <ele>167.949115</ele>
        <time>2023-01-04T16:44:45.112Z</time>
      </trkpt>
      <trkpt lat="43.26005" lon="2.22941">
        <ele>167.598412</ele>
        <time>2023-01-04T16:44:47.124Z</time>
      </trkpt>
      <trkpt lat="43.26004" lon="2.22955">
        <ele>167.350723</ele>
        <time>2023-01-04T16:44:49.121Z</time>
      </trkpt>
      <trkpt lat="43.26003" lon="2.22969">
        <ele>167.566273</ele>
        <time>2023-01-04T16:44:51.116Z</time>
      </trkpt>
      <trkpt lat="43.26003" lon="2.22983">
        <ele>167.785981</ele>
        <time>2023-01-04T16:44:53.119Z</time>
      </trkpt>
      <trkpt lat="43.26002" lon="2.22997">
        <ele>168.004228</ele>
        <time>2023-01-04T16:44:55.129Z</time>
      </trkpt>
      <trkpt lat="43.26003" lon="2.23011">
        <ele>168.22238</ele>
        <time>2023-01-04T16:44:57.120Z</time>
      </trkpt>
      <trkpt lat="43.26003" lon="2.23025">
        <ele>168.446603</ele>
        <time>2023-01-04T16:44:59.123Z</time>
      </trkpt>
      <trkpt lat="43.26002" lon="2.2304">
        <ele>168.674573</ele>
        <time>2023-01-04T16:45:01.116Z</time>
      </trkpt>
      <trkpt lat="43.26001" lon="2.23054">
        <ele>168.905371</ele>
        <time>2023-01-04T16:45:03.123Z</time>
      </trkpt>
      <trkpt lat="43.26001" lon="2.23069">
        <ele>169.128037</ele>
        <time>2023-01-04T16:45:05.138Z</time>
      </trkpt>
      <trkpt lat="43.26001" lon="2.23083">
        <ele>169.355404</ele>
        <time>2023-01-04T16:45:07.116Z</time>
      </trkpt>
      <trkpt lat="43.26" lon="2.23099">
        <ele>169.60175</ele>
        <time>2023-01-04T16:45:09.133Z</time>
      </trkpt>
      <trkpt lat="43.26" lon="2.23115">
        <ele>169.843128</ele>
        <time>2023-01-04T16:45:11.117Z</time>
      </trkpt>
      <trkpt lat="43.26" lon="2.23129">
        <ele>170.068989</ele>
        <time>2023-01-04T16:45:13.123Z</time>
      </trkpt>
      <trkpt lat="43.26" lon="2.23145">
        <ele>170.315038</ele>
        <time>2023-01-04T16:45:15.124Z</time>
      </trkpt>
      <trkpt lat="43.25999" lon="2.2316">
        <ele>170.544082</ele>
        <time>2023-01-04T16:45:17.124Z</time>
      </trkpt>
      <trkpt lat="43.25999" lon="2.23174">
        <ele>170.773215</ele>
        <time>2023-01-04T16:45:19.120Z</time>
      </trkpt>
      <trkpt lat="43.25998" lon="2.23189">
        <ele>170.996035</ele>
        <time>2023-01-04T16:45:21.120Z</time>
      </trkpt>
      <trkpt lat="43.25998" lon="2.23204">
        <ele>171.181891</ele>
        <time>2023-01-04T16:45:23.115Z</time>
      </trkpt>
      <trkpt lat="43.25998" lon="2.2322">
        <ele>171.276144</ele>
        <time>2023-01-04T16:45:25.119Z</time>
      </trkpt>
      <trkpt lat="43.25997" lon="2.23236">
        <ele>171.371608</ele>
        <time>2023-01-04T16:45:27.117Z</time>
      </trkpt>
      <trkpt lat="43.25997" lon="2.23252">
        <ele>171.46292</ele>
        <time>2023-01-04T16:45:29.111Z</time>
      </trkpt>
      <trkpt lat="43.25997" lon="2.23267">
        <ele>171.553661</ele>
        <time>2023-01-04T16:45:31.117Z</time>
      </trkpt>
      <trkpt lat="43.25997" lon="2.23284">
        <ele>171.650362</ele>
        <time>2023-01-04T16:45:33.116Z</time>
      </trkpt>
      <trkpt lat="43.25997" lon="2.23299">
        <ele>171.741089</ele>
        <time>2023-01-04T16:45:35.125Z</time>
      </trkpt>
      <trkpt lat="43.25996" lon="2.23316">
        <ele>171.841195</ele>
        <time>2023-01-04T16:45:37.118Z</time>
      </trkpt>
      <trkpt lat="43.25996" lon="2.23333">
        <ele>171.939561</ele>
        <time>2023-01-04T16:45:39.127Z</time>
      </trkpt>
      <trkpt lat="43.25996" lon="2.23348">
        <ele>172.025609</ele>
        <time>2023-01-04T16:45:41.122Z</time>
      </trkpt>
      <trkpt lat="43.25996" lon="2.23363">
        <ele>172.112917</ele>
        <time>2023-01-04T16:45:43.121Z</time>
      </trkpt>
      <trkpt lat="43.25995" lon="2.23378">
        <ele>172.200732</ele>
        <time>2023-01-04T16:45:45.122Z</time>
      </trkpt>
      <trkpt lat="43.25995" lon="2.23391">
        <ele>172.282098</ele>
        <time>2023-01-04T16:45:47.117Z</time>
      </trkpt>
      <trkpt lat="43.25996" lon="2.23406">
        <ele>172.369317</ele>
        <time>2023-01-04T16:45:49.115Z</time>
      </trkpt>
      <trkpt lat="43.25995" lon="2.23421">
        <ele>172.453035</ele>
        <time>2023-01-04T16:45:51.131Z</time>
      </trkpt>
      <trkpt lat="43.25996" lon="2.23433">
        <ele>172.527975</ele>
        <time>2023-01-04T16:45:53.123Z</time>
      </trkpt>
      <trkpt lat="43.25995" lon="2.23447">
        <ele>172.629686</ele>
        <time>2023-01-04T16:45:55.117Z</time>
      </trkpt>
      <trkpt lat="43.25995" lon="2.2346">
        <ele>172.890148</ele>
        <time>2023-01-04T16:45:57.121Z</time>
      </trkpt>
      <trkpt lat="43.25996" lon="2.23477">
        <ele>173.238742</ele>
        <time>2023-01-04T16:46:00.124Z</time>
      </trkpt>
      <trkpt lat="43.25995" lon="2.23489">
        <ele>173.490791</ele>
        <time>2023-01-04T16:46:02.115Z</time>
      </trkpt>
      <trkpt lat="43.25995" lon="2.23507">
        <ele>173.856351</ele>
        <time>2023-01-04T16:46:05.121Z</time>
      </trkpt>
      <trkpt lat="43.25995" lon="2.23525">
        <ele>174.216167</ele>
        <time>2023-01-04T16:46:08.121Z</time>
      </trkpt>
      <trkpt lat="43.25994" lon="2.23542">
        <ele>174.565984</ele>
        <time>2023-01-04T16:46:11.116Z</time>
      </trkpt>
      <trkpt lat="43.25993" lon="2.23559">
        <ele>174.897404</ele>
        <time>2023-01-04T16:46:14.133Z</time>
      </trkpt>
      <trkpt lat="43.25993" lon="2.23574">
        <ele>175.204844</ele>
        <time>2023-01-04T16:46:17.123Z</time>
      </trkpt>
      <trkpt lat="43.25992" lon="2.23589">
        <ele>175.516334</ele>
        <time>2023-01-04T16:46:20.132Z</time>
      </trkpt>
      <trkpt lat="43.25991" lon="2.23605">
        <ele>175.836134</ele>
        <time>2023-01-04T16:46:23.128Z</time>
      </trkpt>
      <trkpt lat="43.2599" lon="2.23618">
        <ele>176.115463</ele>
        <time>2023-01-04T16:46:26.124Z</time>
      </trkpt>
      <trkpt lat="43.25989" lon="2.23631">
        <ele>176.370045</ele>
        <time>2023-01-04T16:46:35.113Z</time>
      </trkpt>
      <trkpt lat="43.25989" lon="2.23645">
        <ele>176.658452</ele>
        <time>2023-01-04T16:46:39.123Z</time>
      </trkpt>
      <trkpt lat="43.25989" lon="2.23659">
        <ele>176.936667</ele>
        <time>2023-01-04T16:46:42.123Z</time>
      </trkpt>
      <trkpt lat="43.25989" lon="2.23675">
        <ele>177.265928</ele>
        <time>2023-01-04T16:46:45.118Z</time>
      </trkpt>
      <trkpt lat="43.25988" lon="2.23693">
        <ele>177.616339</ele>
        <time>2023-01-04T16:46:48.112Z</time>
      </trkpt>
      <trkpt lat="43.25986" lon="2.23705">
        <ele>177.673445</ele>
        <time>2023-01-04T16:46:50.128Z</time>
      </trkpt>
      <trkpt lat="43.25986" lon="2.23718">
        <ele>177.731334</ele>
        <time>2023-01-04T16:46:52.126Z</time>
      </trkpt>
      <trkpt lat="43.25985" lon="2.23731">
        <ele>177.790179</ele>
        <time>2023-01-04T16:46:54.123Z</time>
      </trkpt>
      <trkpt lat="43.25985" lon="2.23743">
        <ele>177.847165</ele>
        <time>2023-01-04T16:46:56.116Z</time>
      </trkpt>
      <trkpt lat="43.25985" lon="2.23757">
        <ele>177.907748</ele>
        <time>2023-01-04T16:46:58.114Z</time>
      </trkpt>
      <trkpt lat="43.25984" lon="2.2377">
        <ele>177.967677</ele>
        <time>2023-01-04T16:47:00.127Z</time>
      </trkpt>
      <trkpt lat="43.25984" lon="2.23784">
        <ele>178.030511</ele>
        <time>2023-01-04T16:47:02.110Z</time>
      </trkpt>
      <trkpt lat="43.25983" lon="2.23799">
        <ele>178.097643</ele>
        <time>2023-01-04T16:47:04.128Z</time>
      </trkpt>
      <trkpt lat="43.25982" lon="2.23814">
        <ele>178.167028</ele>
        <time>2023-01-04T16:47:06.128Z</time>
      </trkpt>
      <trkpt lat="43.25981" lon="2.23829">
        <ele>178.237424</ele>
        <time>2023-01-04T16:47:08.122Z</time>
      </trkpt>
      <trkpt lat="43.2598" lon="2.23845">
        <ele>178.307663</ele>
        <time>2023-01-04T16:47:10.122Z</time>
      </trkpt>
      <trkpt lat="43.25979" lon="2.23861">
        <ele>178.379858</ele>
        <time>2023-01-04T16:47:12.124Z</time>
      </trkpt>
      <trkpt lat="43.25978" lon="2.23877">
        <ele>178.453464</ele>
        <time>2023-01-04T16:47:14.128Z</time>
      </trkpt>
      <trkpt lat="43.25976" lon="2.23894">
        <ele>178.529686</ele>
        <time>2023-01-04T16:47:16.114Z</time>
      </trkpt>
      <trkpt lat="43.25974" lon="2.2391">
        <ele>178.602622</ele>
        <time>2023-01-04T16:47:18.124Z</time>
      </trkpt>
      <trkpt lat="43.25972" lon="2.23926">
        <ele>178.680016</ele>
        <time>2023-01-04T16:47:20.118Z</time>
      </trkpt>
      <trkpt lat="43.2597" lon="2.23944">
        <ele>178.759222</ele>
        <time>2023-01-04T16:47:22.113Z</time>
      </trkpt>
      <trkpt lat="43.25968" lon="2.23962">
        <ele>178.836291</ele>
        <time>2023-01-04T16:47:24.121Z</time>
      </trkpt>
      <trkpt lat="43.25967" lon="2.23978">
        <ele>178.906169</ele>
        <time>2023-01-04T16:47:26.136Z</time>
      </trkpt>
      <trkpt lat="43.25964" lon="2.23995">
        <ele>178.984155</ele>
        <time>2023-01-04T16:47:28.133Z</time>
      </trkpt>
      <trkpt lat="43.25961" lon="2.24013">
        <ele>179.063432</ele>
        <time>2023-01-04T16:47:30.125Z</time>
      </trkpt>
      <trkpt lat="43.25959" lon="2.24031">
        <ele>179.142822</ele>
        <time>2023-01-04T16:47:32.134Z</time>
      </trkpt>
      <trkpt lat="43.25957" lon="2.24049">
        <ele>179.219957</ele>
        <time>2023-01-04T16:47:34.124Z</time>
      </trkpt>
      <trkpt lat="43.25955" lon="2.24067">
        <ele>179.2984</ele>
        <time>2023-01-04T16:47:36.135Z</time>
      </trkpt>
      <trkpt lat="43.25952" lon="2.24083">
        <ele>179.368859</ele>
        <time>2023-01-04T16:47:38.137Z</time>
      </trkpt>
      <trkpt lat="43.2595" lon="2.241">
        <ele>179.445072</ele>
        <time>2023-01-04T16:47:40.136Z</time>
      </trkpt>
      <trkpt lat="43.25948" lon="2.24119">
        <ele>179.526695</ele>
        <time>2023-01-04T16:47:42.133Z</time>
      </trkpt>
      <trkpt lat="43.25946" lon="2.24137">
        <ele>179.608416</ele>
        <time>2023-01-04T16:47:44.125Z</time>
      </trkpt>
      <trkpt lat="43.25943" lon="2.24155">
        <ele>179.687149</ele>
        <time>2023-01-04T16:47:46.137Z</time>
      </trkpt>
      <trkpt lat="43.25941" lon="2.24174">
        <ele>179.770152</ele>
        <time>2023-01-04T16:47:48.126Z</time>
      </trkpt>
      <trkpt lat="43.25939" lon="2.24193">
        <ele>179.736216</ele>
        <time>2023-01-04T16:47:50.126Z</time>
      </trkpt>
      <trkpt lat="43.25937" lon="2.24211">
        <ele>179.632249</ele>
        <time>2023-01-04T16:47:52.138Z</time>
      </trkpt>
      <trkpt lat="43.25935" lon="2.24229">
        <ele>179.529866</ele>
        <time>2023-01-04T16:47:54.118Z</time>
      </trkpt>
      <trkpt lat="43.25933" lon="2.24248">
        <ele>179.428031</ele>
        <time>2023-01-04T16:47:56.138Z</time>
      </trkpt>
      <trkpt lat="43.25931" lon="2.24265">
        <ele>179.329476</ele>
        <time>2023-01-04T16:47:58.140Z</time>
      </trkpt>
      <trkpt lat="43.25929" lon="2.24282">
        <ele>179.237598</ele>
        <time>2023-01-04T16:48:00.117Z</time>
      </trkpt>
      <trkpt lat="43.25926" lon="2.24298">
        <ele>179.145334</ele>
        <time>2023-01-04T16:48:02.115Z</time>
      </trkpt>
      <trkpt lat="43.25925" lon="2.24313">
        <ele>179.059815</ele>
        <time>2023-01-04T16:48:04.114Z</time>
      </trkpt>
      <trkpt lat="43.25923" lon="2.24329">
        <ele>178.974184</ele>
        <time>2023-01-04T16:48:06.141Z</time>
      </trkpt>
      <trkpt lat="43.25922" lon="2.24343">
        <ele>178.890855</ele>
        <time>2023-01-04T16:48:08.114Z</time>
      </trkpt>
      <trkpt lat="43.2592" lon="2.24358">
        <ele>178.807525</ele>
        <time>2023-01-04T16:48:10.127Z</time>
      </trkpt>
      <trkpt lat="43.25919" lon="2.24373">
        <ele>178.725596</ele>
        <time>2023-01-04T16:48:12.128Z</time>
      </trkpt>
      <trkpt lat="43.25917" lon="2.24388">
        <ele>178.64028</ele>
        <time>2023-01-04T16:48:14.135Z</time>
      </trkpt>
      <trkpt lat="43.25916" lon="2.24404">
        <ele>178.552671</ele>
        <time>2023-01-04T16:48:16.117Z</time>
      </trkpt>
      <trkpt lat="43.25914" lon="2.2442">
        <ele>178.466159</ele>
        <time>2023-01-04T16:48:18.127Z</time>
      </trkpt>
      <trkpt lat="43.25913" lon="2.24435">
        <ele>178.40599</ele>
        <time>2023-01-04T16:48:20.123Z</time>
      </trkpt>
      <trkpt lat="43.25912" lon="2.24452">
        <ele>178.359814</ele>
        <time>2023-01-04T16:48:22.127Z</time>
      </trkpt>
      <trkpt lat="43.25911" lon="2.24469">
        <ele>178.312565</ele>
        <time>2023-01-04T16:48:24.124Z</time>
      </trkpt>
      <trkpt lat="43.2591" lon="2.24487">
        <ele>178.262749</ele>
        <time>2023-01-04T16:48:26.121Z</time>
      </trkpt>
      <trkpt lat="43.25909" lon="2.24503">
        <ele>178.216395</ele>
        <time>2023-01-04T16:48:28.114Z</time>
      </trkpt>
      <trkpt lat="43.25908" lon="2.24521">
        <ele>178.168037</ele>
        <time>2023-01-04T16:48:30.113Z</time>
      </trkpt>
      <trkpt lat="43.25907" lon="2.24537">
        <ele>178.122516</ele>
        <time>2023-01-04T16:48:32.117Z</time>
      </trkpt>
      <trkpt lat="43.25906" lon="2.24553">
        <ele>178.078134</ele>
        <time>2023-01-04T16:48:34.132Z</time>
      </trkpt>
      <trkpt lat="43.25905" lon="2.24569">
        <ele>178.032027</ele>
        <time>2023-01-04T16:48:36.128Z</time>
      </trkpt>
      <trkpt lat="43.25904" lon="2.24587">
        <ele>177.982211</ele>
        <time>2023-01-04T16:48:38.137Z</time>
      </trkpt>
      <trkpt lat="43.25902" lon="2.24604">
        <ele>177.935165</ele>
        <time>2023-01-04T16:48:40.130Z</time>
      </trkpt>
      <trkpt lat="43.25902" lon="2.24621">
        <ele>177.887786</ele>
        <time>2023-01-04T16:48:42.138Z</time>
      </trkpt>
      <trkpt lat="43.25901" lon="2.24638">
        <ele>177.839598</ele>
        <time>2023-01-04T16:48:44.135Z</time>
      </trkpt>
      <trkpt lat="43.259" lon="2.24657">
        <ele>177.788187</ele>
        <time>2023-01-04T16:48:46.127Z</time>
      </trkpt>
      <trkpt lat="43.259" lon="2.24675">
        <ele>177.72371</ele>
        <time>2023-01-04T16:48:48.122Z</time>
      </trkpt>
      <trkpt lat="43.25899" lon="2.24694">
        <ele>177.585877</ele>
        <time>2023-01-04T16:48:50.113Z</time>
      </trkpt>
      <trkpt lat="43.25899" lon="2.24712">
        <ele>177.4583</ele>
        <time>2023-01-04T16:48:52.122Z</time>
      </trkpt>
      <trkpt lat="43.25899" lon="2.2473">
        <ele>177.32853</ele>
        <time>2023-01-04T16:48:54.140Z</time>
      </trkpt>
      <trkpt lat="43.25898" lon="2.24748">
        <ele>177.203746</ele>
        <time>2023-01-04T16:48:56.136Z</time>
      </trkpt>
      <trkpt lat="43.25897" lon="2.24763">
        <ele>177.090309</ele>
        <time>2023-01-04T16:48:58.131Z</time>
      </trkpt>
      <trkpt lat="43.25896" lon="2.24779">
        <ele>176.977278</ele>
        <time>2023-01-04T16:49:00.114Z</time>
      </trkpt>
      <trkpt lat="43.25896" lon="2.24793">
        <ele>176.87532</ele>
        <time>2023-01-04T16:49:02.118Z</time>
      </trkpt>
      <trkpt lat="43.25895" lon="2.24808">
        <ele>176.772022</ele>
        <time>2023-01-04T16:49:04.138Z</time>
      </trkpt>
      <trkpt lat="43.25893" lon="2.24822">
        <ele>176.670139</ele>
        <time>2023-01-04T16:49:06.138Z</time>
      </trkpt>
      <trkpt lat="43.25892" lon="2.24836">
        <ele>176.57201</ele>
        <time>2023-01-04T16:49:08.131Z</time>
      </trkpt>
      <trkpt lat="43.25891" lon="2.24849">
        <ele>176.474825</ele>
        <time>2023-01-04T16:49:10.147Z</time>
      </trkpt>
      <trkpt lat="43.25889" lon="2.24862">
        <ele>176.380624</ele>
        <time>2023-01-04T16:49:12.118Z</time>
      </trkpt>
      <trkpt lat="43.25884" lon="2.24875">
        <ele>176.277185</ele>
        <time>2023-01-04T16:49:14.134Z</time>
      </trkpt>
      <trkpt lat="43.25878" lon="2.24888">
        <ele>176.170347</ele>
        <time>2023-01-04T16:49:16.140Z</time>
      </trkpt>
      <trkpt lat="43.25877" lon="2.24903">
        <ele>176.063144</ele>
        <time>2023-01-04T16:49:18.116Z</time>
      </trkpt>
      <trkpt lat="43.25877" lon="2.24918">
        <ele>175.999731</ele>
        <time>2023-01-04T16:49:20.131Z</time>
      </trkpt>
      <trkpt lat="43.25877" lon="2.24933">
        <ele>176.043794</ele>
        <time>2023-01-04T16:49:22.117Z</time>
      </trkpt>
      <trkpt lat="43.25874" lon="2.24948">
        <ele>176.090145</ele>
        <time>2023-01-04T16:49:24.115Z</time>
      </trkpt>
      <trkpt lat="43.2587" lon="2.24964">
        <ele>176.139933</ele>
        <time>2023-01-04T16:49:26.142Z</time>
      </trkpt>
      <trkpt lat="43.25866" lon="2.24981">
        <ele>176.1925</ele>
        <time>2023-01-04T16:49:28.117Z</time>
      </trkpt>
      <trkpt lat="43.25861" lon="2.24998">
        <ele>176.244946</ele>
        <time>2023-01-04T16:49:30.124Z</time>
      </trkpt>
      <trkpt lat="43.25856" lon="2.25015">
        <ele>176.300295</ele>
        <time>2023-01-04T16:49:32.121Z</time>
      </trkpt>
      <trkpt lat="43.25851" lon="2.25033">
        <ele>176.355136</ele>
        <time>2023-01-04T16:49:34.121Z</time>
      </trkpt>
      <trkpt lat="43.25846" lon="2.2505">
        <ele>176.410758</ele>
        <time>2023-01-04T16:49:36.113Z</time>
      </trkpt>
      <trkpt lat="43.2584" lon="2.25067">
        <ele>176.4656</ele>
        <time>2023-01-04T16:49:38.120Z</time>
      </trkpt>
      <trkpt lat="43.25836" lon="2.25085">
        <ele>176.521474</ele>
        <time>2023-01-04T16:49:40.116Z</time>
      </trkpt>
      <trkpt lat="43.25831" lon="2.25103">
        <ele>176.577489</ele>
        <time>2023-01-04T16:49:42.134Z</time>
      </trkpt>
      <trkpt lat="43.25827" lon="2.25122">
        <ele>176.63365</ele>
        <time>2023-01-04T16:49:44.120Z</time>
      </trkpt>
      <trkpt lat="43.25824" lon="2.2514">
        <ele>176.688732</ele>
        <time>2023-01-04T16:49:46.128Z</time>
      </trkpt>
      <trkpt lat="43.25821" lon="2.25159">
        <ele>176.548275</ele>
        <time>2023-01-04T16:49:48.115Z</time>
      </trkpt>
      <trkpt lat="43.25817" lon="2.25177">
        <ele>176.280487</ele>
        <time>2023-01-04T16:49:50.123Z</time>
      </trkpt>
      <trkpt lat="43.25814" lon="2.25196">
        <ele>176.001257</ele>
        <time>2023-01-04T16:49:52.113Z</time>
      </trkpt>
      <trkpt lat="43.25811" lon="2.25215">
        <ele>175.732455</ele>
        <time>2023-01-04T16:49:54.125Z</time>
      </trkpt>
      <trkpt lat="43.25808" lon="2.25234">
        <ele>175.464438</ele>
        <time>2023-01-04T16:49:56.129Z</time>
      </trkpt>
      <trkpt lat="43.25806" lon="2.25252">
        <ele>175.200937</ele>
        <time>2023-01-04T16:49:58.139Z</time>
      </trkpt>
      <trkpt lat="43.25804" lon="2.25269">
        <ele>174.955877</ele>
        <time>2023-01-04T16:50:00.122Z</time>
      </trkpt>
      <trkpt lat="43.25802" lon="2.25286">
        <ele>174.705617</ele>
        <time>2023-01-04T16:50:02.140Z</time>
      </trkpt>
      <trkpt lat="43.258" lon="2.25303">
        <ele>174.46725</ele>
        <time>2023-01-04T16:50:04.140Z</time>
      </trkpt>
      <trkpt lat="43.25799" lon="2.2532">
        <ele>174.230108</ele>
        <time>2023-01-04T16:50:06.138Z</time>
      </trkpt>
      <trkpt lat="43.25798" lon="2.25336">
        <ele>173.997414</ele>
        <time>2023-01-04T16:50:08.140Z</time>
      </trkpt>
      <trkpt lat="43.25796" lon="2.25352">
        <ele>173.775294</ele>
        <time>2023-01-04T16:50:10.142Z</time>
      </trkpt>
      <trkpt lat="43.25795" lon="2.25368">
        <ele>173.548185</ele>
        <time>2023-01-04T16:50:12.128Z</time>
      </trkpt>
      <trkpt lat="43.25794" lon="2.25384">
        <ele>173.313854</ele>
        <time>2023-01-04T16:50:14.129Z</time>
      </trkpt>
      <trkpt lat="43.25792" lon="2.25402">
        <ele>172.856443</ele>
        <time>2023-01-04T16:50:16.128Z</time>
      </trkpt>
      <trkpt lat="43.25791" lon="2.25421">
        <ele>172.242526</ele>
        <time>2023-01-04T16:50:18.121Z</time>
      </trkpt>
      <trkpt lat="43.25788" lon="2.25442">
        <ele>171.589888</ele>
        <time>2023-01-04T16:50:20.140Z</time>
      </trkpt>
      <trkpt lat="43.25785" lon="2.25463">
        <ele>170.897581</ele>
        <time>2023-01-04T16:50:22.140Z</time>
      </trkpt>
      <trkpt lat="43.25782" lon="2.25485">
        <ele>170.176005</ele>
        <time>2023-01-04T16:50:24.139Z</time>
      </trkpt>
      <trkpt lat="43.25778" lon="2.25508">
        <ele>169.438178</ele>
        <time>2023-01-04T16:50:26.116Z</time>
      </trkpt>
      <trkpt lat="43.25774" lon="2.25532">
        <ele>168.661245</ele>
        <time>2023-01-04T16:50:28.122Z</time>
      </trkpt>
      <trkpt lat="43.25769" lon="2.25556">
        <ele>167.866714</ele>
        <time>2023-01-04T16:50:30.138Z</time>
      </trkpt>
      <trkpt lat="43.25767" lon="2.25568">
        <ele>167.464098</ele>
        <time>2023-01-04T16:50:31.139Z</time>
      </trkpt>
      <trkpt lat="43.25765" lon="2.2558">
        <ele>167.063758</ele>
        <time>2023-01-04T16:50:32.121Z</time>
      </trkpt>
      <trkpt lat="43.25762" lon="2.25593">
        <ele>166.648303</ele>
        <time>2023-01-04T16:50:33.137Z</time>
      </trkpt>
      <trkpt lat="43.25759" lon="2.25605">
        <ele>166.248003</ele>
        <time>2023-01-04T16:50:34.138Z</time>
      </trkpt>
      <trkpt lat="43.25756" lon="2.25617">
        <ele>165.844676</ele>
        <time>2023-01-04T16:50:35.140Z</time>
      </trkpt>
      <trkpt lat="43.25753" lon="2.25629">
        <ele>165.452057</ele>
        <time>2023-01-04T16:50:36.139Z</time>
      </trkpt>
      <trkpt lat="43.25748" lon="2.2565">
        <ele>165.087349</ele>
        <time>2023-01-04T16:50:38.128Z</time>
      </trkpt>
      <trkpt lat="43.25743" lon="2.25672">
        <ele>164.752407</ele>
        <time>2023-01-04T16:50:40.114Z</time>
      </trkpt>
      <trkpt lat="43.25738" lon="2.25693">
        <ele>164.431108</ele>
        <time>2023-01-04T16:50:42.137Z</time>
      </trkpt>
      <trkpt lat="43.25733" lon="2.25714">
        <ele>164.129387</ele>
        <time>2023-01-04T16:50:44.151Z</time>
      </trkpt>
      <trkpt lat="43.25728" lon="2.25733">
        <ele>163.836382</ele>
        <time>2023-01-04T16:50:46.120Z</time>
      </trkpt>
      <trkpt lat="43.25723" lon="2.25752">
        <ele>163.540664</ele>
        <time>2023-01-04T16:50:48.127Z</time>
      </trkpt>
      <trkpt lat="43.25718" lon="2.2577">
        <ele>163.264467</ele>
        <time>2023-01-04T16:50:50.114Z</time>
      </trkpt>
      <trkpt lat="43.25713" lon="2.25788">
        <ele>162.997055</ele>
        <time>2023-01-04T16:50:52.112Z</time>
      </trkpt>
      <trkpt lat="43.25708" lon="2.25805">
        <ele>162.734315</ele>
        <time>2023-01-04T16:50:54.118Z</time>
      </trkpt>
      <trkpt lat="43.25704" lon="2.25822">
        <ele>162.480292</ele>
        <time>2023-01-04T16:50:56.125Z</time>
      </trkpt>
      <trkpt lat="43.25699" lon="2.25838">
        <ele>162.229357</ele>
        <time>2023-01-04T16:50:58.114Z</time>
      </trkpt>
      <trkpt lat="43.25694" lon="2.25855">
        <ele>161.957879</ele>
        <time>2023-01-04T16:51:00.120Z</time>
      </trkpt>
      <trkpt lat="43.25689" lon="2.25872">
        <ele>161.813825</ele>
        <time>2023-01-04T16:51:02.118Z</time>
      </trkpt>
      <trkpt lat="43.25684" lon="2.2589">
        <ele>161.772868</ele>
        <time>2023-01-04T16:51:04.124Z</time>
      </trkpt>
      <trkpt lat="43.25677" lon="2.25907">
        <ele>161.729908</ele>
        <time>2023-01-04T16:51:06.124Z</time>
      </trkpt>
      <trkpt lat="43.2567" lon="2.25923">
        <ele>161.687472</ele>
        <time>2023-01-04T16:51:08.128Z</time>
      </trkpt>
      <trkpt lat="43.25661" lon="2.25939">
        <ele>161.645678</ele>
        <time>2023-01-04T16:51:10.126Z</time>
      </trkpt>
      <trkpt lat="43.25653" lon="2.25954">
        <ele>161.603377</ele>
        <time>2023-01-04T16:51:12.137Z</time>
      </trkpt>
      <trkpt lat="43.25645" lon="2.25969">
        <ele>161.562311</ele>
        <time>2023-01-04T16:51:14.124Z</time>
      </trkpt>
      <trkpt lat="43.25636" lon="2.25984">
        <ele>161.522284</ele>
        <time>2023-01-04T16:51:16.134Z</time>
      </trkpt>
      <trkpt lat="43.25628" lon="2.25998">
        <ele>161.484012</ele>
        <time>2023-01-04T16:51:18.121Z</time>
      </trkpt>
      <trkpt lat="43.25622" lon="2.26012">
        <ele>161.447996</ele>
        <time>2023-01-04T16:51:20.123Z</time>
      </trkpt>
      <trkpt lat="43.25617" lon="2.26026">
        <ele>161.413213</ele>
        <time>2023-01-04T16:51:22.118Z</time>
      </trkpt>
      <trkpt lat="43.25612" lon="2.26042">
        <ele>161.374169</ele>
        <time>2023-01-04T16:51:24.116Z</time>
      </trkpt>
      <trkpt lat="43.25606" lon="2.26059">
        <ele>161.333931</ele>
        <time>2023-01-04T16:51:26.121Z</time>
      </trkpt>
      <trkpt lat="43.25601" lon="2.26077">
        <ele>161.29968</ele>
        <time>2023-01-04T16:51:28.121Z</time>
      </trkpt>
      <trkpt lat="43.25596" lon="2.26095">
        <ele>161.332207</ele>
        <time>2023-01-04T16:51:30.121Z</time>
      </trkpt>
      <trkpt lat="43.25591" lon="2.26111">
        <ele>161.363411</ele>
        <time>2023-01-04T16:51:32.118Z</time>
      </trkpt>
      <trkpt lat="43.25586" lon="2.26128">
        <ele>161.394681</ele>
        <time>2023-01-04T16:51:34.118Z</time>
      </trkpt>
      <trkpt lat="43.25581" lon="2.26145">
        <ele>161.426092</ele>
        <time>2023-01-04T16:51:36.115Z</time>
      </trkpt>
      <trkpt lat="43.25576" lon="2.26162">
        <ele>161.456956</ele>
        <time>2023-01-04T16:51:38.125Z</time>
      </trkpt>
      <trkpt lat="43.25571" lon="2.26177">
        <ele>161.485972</ele>
        <time>2023-01-04T16:51:40.138Z</time>
      </trkpt>
      <trkpt lat="43.25568" lon="2.26194">
        <ele>161.515716</ele>
        <time>2023-01-04T16:51:42.134Z</time>
      </trkpt>
      <trkpt lat="43.25563" lon="2.26209">
        <ele>161.542985</ele>
        <time>2023-01-04T16:51:44.137Z</time>
      </trkpt>
      <trkpt lat="43.25559" lon="2.26224">
        <ele>161.570852</ele>
        <time>2023-01-04T16:51:46.124Z</time>
      </trkpt>
      <trkpt lat="43.25555" lon="2.26239">
        <ele>161.597838</ele>
        <time>2023-01-04T16:51:48.127Z</time>
      </trkpt>
      <trkpt lat="43.25551" lon="2.26253">
        <ele>161.622975</ele>
        <time>2023-01-04T16:51:50.123Z</time>
      </trkpt>
      <trkpt lat="43.25549" lon="2.26265">
        <ele>161.64518</ele>
        <time>2023-01-04T16:51:52.128Z</time>
      </trkpt>
      <trkpt lat="43.25545" lon="2.26278">
        <ele>161.669038</ele>
        <time>2023-01-04T16:51:54.135Z</time>
      </trkpt>
      <trkpt lat="43.25542" lon="2.26291">
        <ele>161.691848</ele>
        <time>2023-01-04T16:51:56.130Z</time>
      </trkpt>
      <trkpt lat="43.25538" lon="2.26302">
        <ele>161.713276</ele>
        <time>2023-01-04T16:51:58.119Z</time>
      </trkpt>
      <trkpt lat="43.25534" lon="2.26314">
        <ele>161.633121</ele>
        <time>2023-01-04T16:52:00.119Z</time>
      </trkpt>
      <trkpt lat="43.25529" lon="2.26329">
        <ele>161.478009</ele>
        <time>2023-01-04T16:52:03.136Z</time>
      </trkpt>
      <trkpt lat="43.25525" lon="2.26344">
        <ele>161.325234</ele>
        <time>2023-01-04T16:52:06.136Z</time>
      </trkpt>
      <trkpt lat="43.2552" lon="2.26361">
        <ele>161.161243</ele>
        <time>2023-01-04T16:52:09.118Z</time>
      </trkpt>
      <trkpt lat="43.25517" lon="2.26373">
        <ele>161.04589</ele>
        <time>2023-01-04T16:52:11.115Z</time>
      </trkpt>
      <trkpt lat="43.25513" lon="2.26384">
        <ele>160.931205</ele>
        <time>2023-01-04T16:52:13.136Z</time>
      </trkpt>
      <trkpt lat="43.25509" lon="2.26395">
        <ele>160.816524</ele>
        <time>2023-01-04T16:52:15.120Z</time>
      </trkpt>
      <trkpt lat="43.25499" lon="2.26406">
        <ele>160.66009</ele>
        <time>2023-01-04T16:52:18.127Z</time>
      </trkpt>
      <trkpt lat="43.2549" lon="2.26418">
        <ele>160.499588</ele>
        <time>2023-01-04T16:52:21.127Z</time>
      </trkpt>
      <trkpt lat="43.2548" lon="2.2643">
        <ele>160.33318</ele>
        <time>2023-01-04T16:52:24.117Z</time>
      </trkpt>
      <trkpt lat="43.2547" lon="2.26441">
        <ele>160.169435</ele>
        <time>2023-01-04T16:52:27.120Z</time>
      </trkpt>
      <trkpt lat="43.25462" lon="2.26453">
        <ele>160.014458</ele>
        <time>2023-01-04T16:52:30.123Z</time>
      </trkpt>
      <trkpt lat="43.25454" lon="2.26464">
        <ele>159.875184</ele>
        <time>2023-01-04T16:52:33.117Z</time>
      </trkpt>
      <trkpt lat="43.25447" lon="2.26475">
        <ele>159.740098</ele>
        <time>2023-01-04T16:52:36.127Z</time>
      </trkpt>
      <trkpt lat="43.2544" lon="2.26483">
        <ele>159.622887</ele>
        <time>2023-01-04T16:52:39.117Z</time>
      </trkpt>
      <trkpt lat="43.25441" lon="2.26504">
        <ele>159.466926</ele>
        <time>2023-01-04T16:53:41.131Z</time>
      </trkpt>
      <trkpt lat="43.25448" lon="2.26513">
        <ele>159.796066</ele>
        <time>2023-01-04T16:53:46.130Z</time>
      </trkpt>
      <trkpt lat="43.25455" lon="2.26523">
        <ele>160.14698</ele>
        <time>2023-01-04T16:53:52.116Z</time>
      </trkpt>
      <trkpt lat="43.25462" lon="2.26533">
        <ele>160.464087</ele>
        <time>2023-01-04T16:53:57.116Z</time>
      </trkpt>
      <trkpt lat="43.25468" lon="2.26543">
        <ele>160.793129</ele>
        <time>2023-01-04T16:54:02.116Z</time>
      </trkpt>
      <trkpt lat="43.25476" lon="2.2655">
        <ele>161.112446</ele>
        <time>2023-01-04T16:54:06.120Z</time>
      </trkpt>
      <trkpt lat="43.25484" lon="2.26557">
        <ele>161.438752</ele>
        <time>2023-01-04T16:54:11.129Z</time>
      </trkpt>
      <trkpt lat="43.25491" lon="2.26565">
        <ele>161.756654</ele>
        <time>2023-01-04T16:54:31.122Z</time>
      </trkpt>
      <trkpt lat="43.25496" lon="2.26576">
        <ele>162.073158</ele>
        <time>2023-01-04T16:54:42.113Z</time>
      </trkpt>
      <trkpt lat="43.25502" lon="2.26587">
        <ele>162.413426</ele>
        <time>2023-01-04T16:54:54.118Z</time>
      </trkpt>
      <trkpt lat="43.25508" lon="2.26597">
        <ele>162.749821</ele>
        <time>2023-01-04T16:55:05.150Z</time>
      </trkpt>
      <trkpt lat="43.25511" lon="2.26609">
        <ele>163.060124</ele>
        <time>2023-01-04T16:55:14.122Z</time>
      </trkpt>
      <trkpt lat="43.25513" lon="2.26626">
        <ele>163.481982</ele>
        <time>2023-01-04T16:55:35.129Z</time>
      </trkpt>
      <trkpt lat="43.25513" lon="2.26639">
        <ele>163.80365</ele>
        <time>2023-01-04T16:55:39.115Z</time>
      </trkpt>
      <trkpt lat="43.25512" lon="2.26654">
        <ele>164.165483</ele>
        <time>2023-01-04T16:55:43.124Z</time>
      </trkpt>
      <trkpt lat="43.2551" lon="2.2667">
        <ele>164.57039</ele>
        <time>2023-01-04T16:55:47.137Z</time>
      </trkpt>
      <trkpt lat="43.25507" lon="2.26686">
        <ele>164.972879</ele>
        <time>2023-01-04T16:55:51.145Z</time>
      </trkpt>
      <trkpt lat="43.25506" lon="2.26701">
        <ele>165.356921</ele>
        <time>2023-01-04T16:55:55.130Z</time>
      </trkpt>
      <trkpt lat="43.25506" lon="2.26714">
        <ele>165.593755</ele>
        <time>2023-01-04T16:55:59.128Z</time>
      </trkpt>
      <trkpt lat="43.25513" lon="2.26725">
        <ele>165.718951</ele>
        <time>2023-01-04T16:56:04.130Z</time>
      </trkpt>
      <trkpt lat="43.25522" lon="2.26732">
        <ele>165.84047</ele>
        <time>2023-01-04T16:56:07.127Z</time>
      </trkpt>
      <trkpt lat="43.25533" lon="2.26735">
        <ele>165.967732</ele>
        <time>2023-01-04T16:56:10.124Z</time>
      </trkpt>
      <trkpt lat="43.25545" lon="2.26738">
        <ele>166.104355</ele>
        <time>2023-01-04T16:56:13.118Z</time>
      </trkpt>
      <trkpt lat="43.25555" lon="2.26742">
        <ele>166.234312</ele>
        <time>2023-01-04T16:56:16.129Z</time>
      </trkpt>
      <trkpt lat="43.25566" lon="2.26745">
        <ele>166.35834</ele>
        <time>2023-01-04T16:56:19.141Z</time>
      </trkpt>
      <trkpt lat="43.25576" lon="2.26749">
        <ele>166.478457</ele>
        <time>2023-01-04T16:56:23.113Z</time>
      </trkpt>
      <trkpt lat="43.2558" lon="2.26762">
        <ele>166.594227</ele>
        <time>2023-01-04T16:56:28.130Z</time>
      </trkpt>
      <trkpt lat="43.25577" lon="2.26777">
        <ele>166.728087</ele>
        <time>2023-01-04T16:56:32.122Z</time>
      </trkpt>
      <trkpt lat="43.25574" lon="2.2679">
        <ele>166.841944</ele>
        <time>2023-01-04T16:56:35.124Z</time>
      </trkpt>
      <trkpt lat="43.25573" lon="2.26805">
        <ele>166.963143</ele>
        <time>2023-01-04T16:56:38.123Z</time>
      </trkpt>
      <trkpt lat="43.25572" lon="2.26818">
        <ele>167.074928</ele>
        <time>2023-01-04T16:56:41.123Z</time>
      </trkpt>
      <trkpt lat="43.25573" lon="2.26832">
        <ele>167.192101</ele>
        <time>2023-01-04T16:56:45.119Z</time>
      </trkpt>
      <trkpt lat="43.25573" lon="2.26846">
        <ele>167.310389</ele>
        <time>2023-01-04T16:56:49.129Z</time>
      </trkpt>
      <trkpt lat="43.25574" lon="2.26862">
        <ele>167.443852</ele>
        <time>2023-01-04T16:56:53.135Z</time>
      </trkpt>
      <trkpt lat="43.25574" lon="2.26877">
        <ele>167.568867</ele>
        <time>2023-01-04T16:56:57.120Z</time>
      </trkpt>
      <trkpt lat="43.25573" lon="2.2689">
        <ele>167.509172</ele>
        <time>2023-01-04T16:57:00.131Z</time>
      </trkpt>
      <trkpt lat="43.25573" lon="2.26904">
        <ele>167.26318</ele>
        <time>2023-01-04T16:57:03.128Z</time>
      </trkpt>
      <trkpt lat="43.25572" lon="2.26917">
        <ele>167.038413</ele>
        <time>2023-01-04T16:57:06.126Z</time>
      </trkpt>
      <trkpt lat="43.25572" lon="2.2693">
        <ele>166.816334</ele>
        <time>2023-01-04T16:57:10.116Z</time>
      </trkpt>
      <trkpt lat="43.25572" lon="2.26944">
        <ele>166.57377</ele>
        <time>2023-01-04T16:57:15.130Z</time>
      </trkpt>
      <trkpt lat="43.25575" lon="2.26959">
        <ele>166.310917</ele>
        <time>2023-01-04T16:57:20.116Z</time>
      </trkpt>
      <trkpt lat="43.25574" lon="2.26974">
        <ele>166.067945</ele>
        <time>2023-01-04T16:57:24.135Z</time>
      </trkpt>
      <trkpt lat="43.25573" lon="2.2699">
        <ele>165.792667</ele>
        <time>2023-01-04T16:57:28.125Z</time>
      </trkpt>
      <trkpt lat="43.25572" lon="2.27002">
        <ele>165.572197</ele>
        <time>2023-01-04T16:57:31.126Z</time>
      </trkpt>
      <trkpt lat="43.25572" lon="2.27016">
        <ele>165.341162</ele>
        <time>2023-01-04T16:57:34.125Z</time>
      </trkpt>
      <trkpt lat="43.25571" lon="2.27031">
        <ele>165.089662</ele>
        <time>2023-01-04T16:57:37.139Z</time>
      </trkpt>
      <trkpt lat="43.2557" lon="2.27047">
        <ele>164.814905</ele>
        <time>2023-01-04T16:57:40.147Z</time>
      </trkpt>
      <trkpt lat="43.25568" lon="2.27062">
        <ele>164.554729</ele>
        <time>2023-01-04T16:57:43.131Z</time>
      </trkpt>
      <trkpt lat="43.25566" lon="2.27075">
        <ele>164.3127</ele>
        <time>2023-01-04T16:57:46.113Z</time>
      </trkpt>
      <trkpt lat="43.25564" lon="2.27088">
        <ele>164.093626</ele>
        <time>2023-01-04T16:57:49.117Z</time>
      </trkpt>
      <trkpt lat="43.25563" lon="2.27101">
        <ele>163.872615</ele>
        <time>2023-01-04T16:57:52.119Z</time>
      </trkpt>
      <trkpt lat="43.25562" lon="2.27114">
        <ele>163.647847</ele>
        <time>2023-01-04T16:57:56.126Z</time>
      </trkpt>
      <trkpt lat="43.25558" lon="2.27127">
        <ele>163.405202</ele>
        <time>2023-01-04T16:58:00.119Z</time>
      </trkpt>
      <trkpt lat="43.25555" lon="2.27141">
        <ele>163.207479</ele>
        <time>2023-01-04T16:58:04.127Z</time>
      </trkpt>
      <trkpt lat="43.25552" lon="2.27154">
        <ele>163.020818</ele>
        <time>2023-01-04T16:58:08.124Z</time>
      </trkpt>
      <trkpt lat="43.25549" lon="2.27169">
        <ele>162.80449</ele>
        <time>2023-01-04T16:58:12.118Z</time>
      </trkpt>
      <trkpt lat="43.25546" lon="2.27184">
        <ele>162.579366</ele>
        <time>2023-01-04T16:58:16.123Z</time>
      </trkpt>
      <trkpt lat="43.25544" lon="2.27199">
        <ele>162.370661</ele>
        <time>2023-01-04T16:58:20.124Z</time>
      </trkpt>
      <trkpt lat="43.25542" lon="2.27213">
        <ele>162.17706</ele>
        <time>2023-01-04T16:58:24.124Z</time>
      </trkpt>
      <trkpt lat="43.2554" lon="2.27227">
        <ele>161.966</ele>
        <time>2023-01-04T16:58:28.133Z</time>
      </trkpt>
      <trkpt lat="43.25539" lon="2.27242">
        <ele>161.758074</ele>
        <time>2023-01-04T16:58:32.124Z</time>
      </trkpt>
      <trkpt lat="43.25538" lon="2.27272">
        <ele>161.348846</ele>
        <time>2023-01-04T16:59:18.128Z</time>
      </trkpt>
      <trkpt lat="43.25537" lon="2.27287">
        <ele>161.13576</ele>
        <time>2023-01-04T16:59:21.132Z</time>
      </trkpt>
      <trkpt lat="43.25536" lon="2.27302">
        <ele>160.928867</ele>
        <time>2023-01-04T16:59:24.121Z</time>
      </trkpt>
      <trkpt lat="43.25535" lon="2.27316">
        <ele>160.727073</ele>
        <time>2023-01-04T16:59:28.132Z</time>
      </trkpt>
      <trkpt lat="43.25536" lon="2.27331">
        <ele>160.527872</ele>
        <time>2023-01-04T16:59:33.131Z</time>
      </trkpt>
      <trkpt lat="43.25538" lon="2.27345">
        <ele>160.319167</ele>
        <time>2023-01-04T16:59:37.131Z</time>
      </trkpt>
      <trkpt lat="43.25539" lon="2.27362">
        <ele>160.092089</ele>
        <time>2023-01-04T16:59:41.132Z</time>
      </trkpt>
      <trkpt lat="43.25538" lon="2.27378">
        <ele>159.907935</ele>
        <time>2023-01-04T16:59:45.120Z</time>
      </trkpt>
      <trkpt lat="43.25538" lon="2.27393">
        <ele>159.786137</ele>
        <time>2023-01-04T16:59:48.135Z</time>
      </trkpt>
      <trkpt lat="43.25538" lon="2.27409">
        <ele>159.659572</ele>
        <time>2023-01-04T16:59:51.133Z</time>
      </trkpt>
      <trkpt lat="43.25537" lon="2.27424">
        <ele>159.53968</ele>
        <time>2023-01-04T16:59:54.137Z</time>
      </trkpt>
      <trkpt lat="43.25536" lon="2.27437">
        <ele>159.440338</ele>
        <time>2023-01-04T16:59:57.135Z</time>
      </trkpt>
      <trkpt lat="43.25534" lon="2.27451">
        <ele>159.324016</ele>
        <time>2023-01-04T17:00:01.136Z</time>
      </trkpt>
      <trkpt lat="43.25533" lon="2.27467">
        <ele>159.193216</ele>
        <time>2023-01-04T17:00:05.134Z</time>
      </trkpt>
      <trkpt lat="43.25531" lon="2.27481">
        <ele>159.083198</ele>
        <time>2023-01-04T17:00:08.126Z</time>
      </trkpt>
      <trkpt lat="43.25529" lon="2.27497">
        <ele>158.957414</ele>
        <time>2023-01-04T17:00:11.131Z</time>
      </trkpt>
      <trkpt lat="43.25528" lon="2.27513">
        <ele>158.829382</ele>
        <time>2023-01-04T17:00:14.136Z</time>
      </trkpt>
      <trkpt lat="43.25526" lon="2.27526">
        <ele>158.721597</ele>
        <time>2023-01-04T17:00:17.135Z</time>
      </trkpt>
      <trkpt lat="43.25525" lon="2.27539">
        <ele>158.618661</ele>
        <time>2023-01-04T17:00:20.127Z</time>
      </trkpt>
      <trkpt lat="43.25524" lon="2.27553">
        <ele>158.50293</ele>
        <time>2023-01-04T17:00:23.133Z</time>
      </trkpt>
      <trkpt lat="43.25523" lon="2.27568">
        <ele>158.385167</ele>
        <time>2023-01-04T17:00:26.122Z</time>
      </trkpt>
      <trkpt lat="43.25521" lon="2.27582">
        <ele>158.272695</ele>
        <time>2023-01-04T17:00:29.132Z</time>
      </trkpt>
      <trkpt lat="43.25519" lon="2.27594">
        <ele>158.172732</ele>
        <time>2023-01-04T17:00:32.112Z</time>
      </trkpt>
      <trkpt lat="43.25517" lon="2.27609">
        <ele>158.055755</ele>
        <time>2023-01-04T17:00:36.125Z</time>
      </trkpt>
      <trkpt lat="43.25513" lon="2.27623">
        <ele>158.004835</ele>
        <time>2023-01-04T17:00:40.133Z</time>
      </trkpt>
      <trkpt lat="43.25508" lon="2.27633">
        <ele>158.004835</ele>
        <time>2023-01-04T17:00:44.120Z</time>
      </trkpt>
      <trkpt lat="43.25505" lon="2.27645">
        <ele>158.004835</ele>
        <time>2023-01-04T17:00:49.134Z</time>
      </trkpt>
      <trkpt lat="43.255" lon="2.27658">
        <ele>158.004835</ele>
        <time>2023-01-04T17:00:55.135Z</time>
      </trkpt>
      <trkpt lat="43.25493" lon="2.27688">
        <ele>158.004835</ele>
        <time>2023-01-04T17:01:22.136Z</time>
      </trkpt>
      <trkpt lat="43.2549" lon="2.27702">
        <ele>158.004835</ele>
        <time>2023-01-04T17:01:26.115Z</time>
      </trkpt>
      <trkpt lat="43.25486" lon="2.27714">
        <ele>158.004835</ele>
        <time>2023-01-04T17:01:30.132Z</time>
      </trkpt>
      <trkpt lat="43.25483" lon="2.27726">
        <ele>158.004835</ele>
        <time>2023-01-04T17:01:34.122Z</time>
      </trkpt>
      <trkpt lat="43.25478" lon="2.27738">
        <ele>158.004835</ele>
        <time>2023-01-04T17:01:38.132Z</time>
      </trkpt>
      <trkpt lat="43.25474" lon="2.27751">
        <ele>158.004835</ele>
        <time>2023-01-04T17:01:42.135Z</time>
      </trkpt>
      <trkpt lat="43.25469" lon="2.27762">
        <ele>158.004835</ele>
        <time>2023-01-04T17:01:46.135Z</time>
      </trkpt>
      <trkpt lat="43.25465" lon="2.27773">
        <ele>158.004835</ele>
        <time>2023-01-04T17:01:50.134Z</time>
      </trkpt>
      <trkpt lat="43.2546" lon="2.27784">
        <ele>158.004835</ele>
        <time>2023-01-04T17:01:54.139Z</time>
      </trkpt>
      <trkpt lat="43.25455" lon="2.27792">
        <ele>158.004835</ele>
        <time>2023-01-04T17:02:48.294Z</time>
        <extensions>
          <visugpx:TrkExtension xmlns:visugpx="https://www.visugpx.com/editgpx/">
            <visugpx:node>1</visugpx:node>
            </visugpx:TrkExtension>
        </extensions>
      </trkpt>
    </trkseg>
  </trk>
  <trk>
    <name><![CDATA[Pezens - Narbonne]]></name>
    <extensions>
      <line xmlns="http://www.topografix.com/GPX/gpx_style/0/2">
        <color>ff0000</color>
        <width>4</width>
      </line>
    </extensions>
    <trkseg>
      <trkpt lat="43.25528" lon="2.2751">
        <ele>160.088213</ele>
        <time>2023-01-05T10:51:27.919Z</time>
      </trkpt>
      <trkpt lat="43.25527" lon="2.27498">
        <ele>160.088213</ele>
        <time>2023-01-05T10:51:53.918Z</time>
      </trkpt>
      <trkpt lat="43.25529" lon="2.27485">
        <ele>160.088213</ele>
        <time>2023-01-05T10:51:59.912Z</time>
      </trkpt>
      <trkpt lat="43.2553" lon="2.27472">
        <ele>160.088213</ele>
        <time>2023-01-05T10:52:04.926Z</time>
      </trkpt>
      <trkpt lat="43.25531" lon="2.27458">
        <ele>160.088213</ele>
        <time>2023-01-05T10:52:09.937Z</time>
      </trkpt>
      <trkpt lat="43.25532" lon="2.27443">
        <ele>160.088213</ele>
        <time>2023-01-05T10:52:14.931Z</time>
      </trkpt>
      <trkpt lat="43.25533" lon="2.27428">
        <ele>160.088213</ele>
        <time>2023-01-05T10:52:19.916Z</time>
      </trkpt>
      <trkpt lat="43.25534" lon="2.27414">
        <ele>160.088213</ele>
        <time>2023-01-05T10:52:23.935Z</time>
      </trkpt>
      <trkpt lat="43.25535" lon="2.27401">
        <ele>160.088213</ele>
        <time>2023-01-05T10:52:27.937Z</time>
      </trkpt>
      <trkpt lat="43.25535" lon="2.27388">
        <ele>160.088213</ele>
        <time>2023-01-05T10:52:31.932Z</time>
      </trkpt>
      <trkpt lat="43.25535" lon="2.27373">
        <ele>160.242434</ele>
        <time>2023-01-05T10:52:35.928Z</time>
      </trkpt>
      <trkpt lat="43.25534" lon="2.27359">
        <ele>160.396826</ele>
        <time>2023-01-05T10:52:39.932Z</time>
      </trkpt>
      <trkpt lat="43.25532" lon="2.27344">
        <ele>160.562878</ele>
        <time>2023-01-05T10:52:45.912Z</time>
      </trkpt>
      <trkpt lat="43.25533" lon="2.27332">
        <ele>160.703001</ele>
        <time>2023-01-05T10:52:49.938Z</time>
      </trkpt>
      <trkpt lat="43.25533" lon="2.27318">
        <ele>160.849149</ele>
        <time>2023-01-05T10:52:53.938Z</time>
      </trkpt>
      <trkpt lat="43.25534" lon="2.27305">
        <ele>160.992553</ele>
        <time>2023-01-05T10:52:58.927Z</time>
      </trkpt>
      <trkpt lat="43.25534" lon="2.27293">
        <ele>161.131542</ele>
        <time>2023-01-05T10:53:02.911Z</time>
      </trkpt>
      <trkpt lat="43.25535" lon="2.27278">
        <ele>161.286079</ele>
        <time>2023-01-05T10:53:06.925Z</time>
      </trkpt>
      <trkpt lat="43.25536" lon="2.27266">
        <ele>161.428021</ele>
        <time>2023-01-05T10:53:10.910Z</time>
      </trkpt>
      <trkpt lat="43.25537" lon="2.2725">
        <ele>161.598417</ele>
        <time>2023-01-05T10:53:15.942Z</time>
      </trkpt>
      <trkpt lat="43.25538" lon="2.27235">
        <ele>161.75954</ele>
        <time>2023-01-05T10:53:20.924Z</time>
      </trkpt>
      <trkpt lat="43.2554" lon="2.2722">
        <ele>161.926495</ele>
        <time>2023-01-05T10:53:25.916Z</time>
      </trkpt>
      <trkpt lat="43.25542" lon="2.27206">
        <ele>162.090259</ele>
        <time>2023-01-05T10:53:30.927Z</time>
      </trkpt>
      <trkpt lat="43.25543" lon="2.27192">
        <ele>162.246504</ele>
        <time>2023-01-05T10:53:35.936Z</time>
      </trkpt>
      <trkpt lat="43.25545" lon="2.2718">
        <ele>162.381213</ele>
        <time>2023-01-05T10:53:39.918Z</time>
      </trkpt>
      <trkpt lat="43.25547" lon="2.27166">
        <ele>162.529329</ele>
        <time>2023-01-05T10:53:44.929Z</time>
      </trkpt>
      <trkpt lat="43.25549" lon="2.27153">
        <ele>162.680064</ele>
        <time>2023-01-05T10:53:49.914Z</time>
      </trkpt>
      <trkpt lat="43.25553" lon="2.2714">
        <ele>162.88732</ele>
        <time>2023-01-05T10:53:54.938Z</time>
      </trkpt>
      <trkpt lat="43.25556" lon="2.27124">
        <ele>163.274882</ele>
        <time>2023-01-05T10:53:58.926Z</time>
      </trkpt>
      <trkpt lat="43.25558" lon="2.27111">
        <ele>163.60373</ele>
        <time>2023-01-05T10:54:01.927Z</time>
      </trkpt>
      <trkpt lat="43.25561" lon="2.27096">
        <ele>163.977361</ele>
        <time>2023-01-05T10:54:05.931Z</time>
      </trkpt>
      <trkpt lat="43.25563" lon="2.27081">
        <ele>164.34696</ele>
        <time>2023-01-05T10:54:09.930Z</time>
      </trkpt>
      <trkpt lat="43.25565" lon="2.27068">
        <ele>164.656662</ele>
        <time>2023-01-05T10:54:13.931Z</time>
      </trkpt>
      <trkpt lat="43.25566" lon="2.27054">
        <ele>164.99597</ele>
        <time>2023-01-05T10:54:17.915Z</time>
      </trkpt>
      <trkpt lat="43.25568" lon="2.27039">
        <ele>165.366271</ele>
        <time>2023-01-05T10:54:22.926Z</time>
      </trkpt>
      <trkpt lat="43.2557" lon="2.27025">
        <ele>165.707896</ele>
        <time>2023-01-05T10:54:26.917Z</time>
      </trkpt>
      <trkpt lat="43.25571" lon="2.27012">
        <ele>166.040602</ele>
        <time>2023-01-05T10:54:30.926Z</time>
      </trkpt>
      <trkpt lat="43.25572" lon="2.26997">
        <ele>166.397258</ele>
        <time>2023-01-05T10:54:34.939Z</time>
      </trkpt>
      <trkpt lat="43.25573" lon="2.26984">
        <ele>166.714225</ele>
        <time>2023-01-05T10:54:38.939Z</time>
      </trkpt>
      <trkpt lat="43.25573" lon="2.26968">
        <ele>167.083366</ele>
        <time>2023-01-05T10:54:43.918Z</time>
      </trkpt>
      <trkpt lat="43.25573" lon="2.26955">
        <ele>167.413757</ele>
        <time>2023-01-05T10:54:47.934Z</time>
      </trkpt>
      <trkpt lat="43.25573" lon="2.26941">
        <ele>167.751462</ele>
        <time>2023-01-05T10:54:51.925Z</time>
      </trkpt>
      <trkpt lat="43.25572" lon="2.26928">
        <ele>168.059297</ele>
        <time>2023-01-05T10:54:56.919Z</time>
      </trkpt>
      <trkpt lat="43.25563" lon="2.26919">
        <ele>168.417617</ele>
        <time>2023-01-05T10:55:02.911Z</time>
      </trkpt>
      <trkpt lat="43.25553" lon="2.26915">
        <ele>168.745483</ele>
        <time>2023-01-05T10:55:07.913Z</time>
      </trkpt>
      <trkpt lat="43.25544" lon="2.26913">
        <ele>168.750591</ele>
        <time>2023-01-05T10:55:12.918Z</time>
      </trkpt>
      <trkpt lat="43.25533" lon="2.26908">
        <ele>168.756779</ele>
        <time>2023-01-05T10:55:18.911Z</time>
      </trkpt>
      <trkpt lat="43.25524" lon="2.26903">
        <ele>168.762218</ele>
        <time>2023-01-05T10:55:23.933Z</time>
      </trkpt>
      <trkpt lat="43.25514" lon="2.26898">
        <ele>168.768037</ele>
        <time>2023-01-05T10:55:29.927Z</time>
      </trkpt>
      <trkpt lat="43.25504" lon="2.26893">
        <ele>168.773923</ele>
        <time>2023-01-05T10:55:34.936Z</time>
      </trkpt>
      <trkpt lat="43.25495" lon="2.26886">
        <ele>168.779812</ele>
        <time>2023-01-05T10:55:39.937Z</time>
      </trkpt>
      <trkpt lat="43.25486" lon="2.2688">
        <ele>168.785444</ele>
        <time>2023-01-05T10:55:43.926Z</time>
      </trkpt>
      <trkpt lat="43.25477" lon="2.26872">
        <ele>168.791701</ele>
        <time>2023-01-05T10:55:47.911Z</time>
      </trkpt>
      <trkpt lat="43.25468" lon="2.26866">
        <ele>168.797028</ele>
        <time>2023-01-05T10:55:50.932Z</time>
      </trkpt>
      <trkpt lat="43.2546" lon="2.26861">
        <ele>168.802118</ele>
        <time>2023-01-05T10:55:53.924Z</time>
      </trkpt>
      <trkpt lat="43.25451" lon="2.26853">
        <ele>168.807965</ele>
        <time>2023-01-05T10:55:57.917Z</time>
      </trkpt>
      <trkpt lat="43.25452" lon="2.2684">
        <ele>168.813052</ele>
        <time>2023-01-05T10:56:02.913Z</time>
      </trkpt>
      <trkpt lat="43.25459" lon="2.26828">
        <ele>168.819101</ele>
        <time>2023-01-05T10:56:08.922Z</time>
      </trkpt>
      <trkpt lat="43.25465" lon="2.26816">
        <ele>168.825213</ele>
        <time>2023-01-05T10:56:13.916Z</time>
      </trkpt>
      <trkpt lat="43.25471" lon="2.26803">
        <ele>168.831532</ele>
        <time>2023-01-05T10:56:17.924Z</time>
      </trkpt>
      <trkpt lat="43.25476" lon="2.26792">
        <ele>168.836813</ele>
        <time>2023-01-05T10:56:21.941Z</time>
      </trkpt>
      <trkpt lat="43.2548" lon="2.26779">
        <ele>168.842489</ele>
        <time>2023-01-05T10:56:25.933Z</time>
      </trkpt>
      <trkpt lat="43.25485" lon="2.26767">
        <ele>168.784317</ele>
        <time>2023-01-05T10:56:29.915Z</time>
      </trkpt>
      <trkpt lat="43.2549" lon="2.26756">
        <ele>168.676937</ele>
        <time>2023-01-05T10:56:33.930Z</time>
      </trkpt>
      <trkpt lat="43.25493" lon="2.26742">
        <ele>168.552896</ele>
        <time>2023-01-05T10:56:38.916Z</time>
      </trkpt>
      <trkpt lat="43.25496" lon="2.26731">
        <ele>168.446589</ele>
        <time>2023-01-05T10:56:42.933Z</time>
      </trkpt>
      <trkpt lat="43.25499" lon="2.26719">
        <ele>168.336234</ele>
        <time>2023-01-05T10:56:46.926Z</time>
      </trkpt>
      <trkpt lat="43.25501" lon="2.26704">
        <ele>168.210137</ele>
        <time>2023-01-05T10:56:50.913Z</time>
      </trkpt>
      <trkpt lat="43.25504" lon="2.26689">
        <ele>168.077993</ele>
        <time>2023-01-05T10:56:54.929Z</time>
      </trkpt>
      <trkpt lat="43.25507" lon="2.26674">
        <ele>167.941064</ele>
        <time>2023-01-05T10:56:58.940Z</time>
      </trkpt>
      <trkpt lat="43.25509" lon="2.26658">
        <ele>167.803806</ele>
        <time>2023-01-05T10:57:02.932Z</time>
      </trkpt>
      <trkpt lat="43.2551" lon="2.26642">
        <ele>167.666245</ele>
        <time>2023-01-05T10:57:06.938Z</time>
      </trkpt>
      <trkpt lat="43.25511" lon="2.26626">
        <ele>167.526692</ele>
        <time>2023-01-05T10:57:10.940Z</time>
      </trkpt>
      <trkpt lat="43.25512" lon="2.26612">
        <ele>167.411701</ele>
        <time>2023-01-05T10:57:13.940Z</time>
      </trkpt>
      <trkpt lat="43.25515" lon="2.266">
        <ele>167.295332</ele>
        <time>2023-01-05T10:57:16.926Z</time>
      </trkpt>
      <trkpt lat="43.25516" lon="2.26587">
        <ele>167.183171</ele>
        <time>2023-01-05T10:57:20.938Z</time>
      </trkpt>
      <trkpt lat="43.25511" lon="2.26574">
        <ele>167.064333</ele>
        <time>2023-01-05T10:57:24.928Z</time>
      </trkpt>
      <trkpt lat="43.25503" lon="2.26567">
        <ele>166.94544</ele>
        <time>2023-01-05T10:57:27.917Z</time>
      </trkpt>
      <trkpt lat="43.25495" lon="2.26558">
        <ele>166.82402</ele>
        <time>2023-01-05T10:57:30.919Z</time>
      </trkpt>
      <trkpt lat="43.25487" lon="2.26553">
        <ele>166.688181</ele>
        <time>2023-01-05T10:57:33.928Z</time>
      </trkpt>
      <trkpt lat="43.25478" lon="2.26547">
        <ele>166.238947</ele>
        <time>2023-01-05T10:57:36.912Z</time>
      </trkpt>
      <trkpt lat="43.25469" lon="2.2654">
        <ele>165.759424</ele>
        <time>2023-01-05T10:57:39.937Z</time>
      </trkpt>
      <trkpt lat="43.2546" lon="2.26528">
        <ele>165.182612</ele>
        <time>2023-01-05T10:57:42.918Z</time>
      </trkpt>
      <trkpt lat="43.25452" lon="2.26518">
        <ele>164.690784</ele>
        <time>2023-01-05T10:57:45.927Z</time>
      </trkpt>
      <trkpt lat="43.25445" lon="2.26509">
        <ele>164.238545</ele>
        <time>2023-01-05T10:57:48.930Z</time>
      </trkpt>
      <trkpt lat="43.25438" lon="2.26499">
        <ele>163.801696</ele>
        <time>2023-01-05T10:57:53.913Z</time>
      </trkpt>
      <trkpt lat="43.25444" lon="2.26482">
        <ele>163.157449</ele>
        <time>2023-01-05T10:59:24.929Z</time>
      </trkpt>
      <trkpt lat="43.25451" lon="2.26471">
        <ele>162.674057</ele>
        <time>2023-01-05T10:59:28.917Z</time>
      </trkpt>
      <trkpt lat="43.2546" lon="2.26463">
        <ele>162.193344</ele>
        <time>2023-01-05T10:59:32.921Z</time>
      </trkpt>
      <trkpt lat="43.25451" lon="2.26468">
        <ele>161.764877</ele>
        <time>2023-01-05T10:59:43.927Z</time>
      </trkpt>
      <trkpt lat="43.25444" lon="2.26476">
        <ele>161.312124</ele>
        <time>2023-01-05T10:59:48.922Z</time>
      </trkpt>
      <trkpt lat="43.25437" lon="2.26467">
        <ele>160.859885</ele>
        <time>2023-01-05T10:59:53.920Z</time>
      </trkpt>
      <trkpt lat="43.25428" lon="2.26455">
        <ele>160.298786</ele>
        <time>2023-01-05T10:59:56.921Z</time>
      </trkpt>
      <trkpt lat="43.25419" lon="2.26443">
        <ele>159.730914</ele>
        <time>2023-01-05T10:59:59.923Z</time>
      </trkpt>
      <trkpt lat="43.2541" lon="2.26431">
        <ele>159.150391</ele>
        <time>2023-01-05T11:00:02.914Z</time>
      </trkpt>
      <trkpt lat="43.25401" lon="2.26421">
        <ele>158.604766</ele>
        <time>2023-01-05T11:00:05.914Z</time>
      </trkpt>
      <trkpt lat="43.25391" lon="2.26413">
        <ele>158.323108</ele>
        <time>2023-01-05T11:00:08.930Z</time>
      </trkpt>
      <trkpt lat="43.25381" lon="2.26408">
        <ele>158.160458</ele>
        <time>2023-01-05T11:00:11.924Z</time>
      </trkpt>
      <trkpt lat="43.25372" lon="2.26401">
        <ele>158.002981</ele>
        <time>2023-01-05T11:00:14.944Z</time>
      </trkpt>
      <trkpt lat="43.25363" lon="2.26393">
        <ele>157.852949</ele>
        <time>2023-01-05T11:00:17.918Z</time>
      </trkpt>
      <trkpt lat="43.25355" lon="2.26387">
        <ele>157.706793</ele>
        <time>2023-01-05T11:00:20.927Z</time>
      </trkpt>
      <trkpt lat="43.25345" lon="2.26379">
        <ele>157.534518</ele>
        <time>2023-01-05T11:00:24.924Z</time>
      </trkpt>
      <trkpt lat="43.25337" lon="2.26371">
        <ele>157.392095</ele>
        <time>2023-01-05T11:00:28.920Z</time>
      </trkpt>
      <trkpt lat="43.2533" lon="2.26362">
        <ele>157.244712</ele>
        <time>2023-01-05T11:00:32.937Z</time>
      </trkpt>
      <trkpt lat="43.25322" lon="2.26353">
        <ele>157.085835</ele>
        <time>2023-01-05T11:00:36.922Z</time>
      </trkpt>
      <trkpt lat="43.25308" lon="2.26344">
        <ele>156.856616</ele>
        <time>2023-01-05T11:01:12.922Z</time>
      </trkpt>
      <trkpt lat="43.253" lon="2.26334">
        <ele>156.691734</ele>
        <time>2023-01-05T11:01:16.914Z</time>
      </trkpt>
      <trkpt lat="43.25292" lon="2.26327">
        <ele>156.552995</ele>
        <time>2023-01-05T11:01:19.920Z</time>
      </trkpt>
      <trkpt lat="43.25285" lon="2.26318">
        <ele>156.406432</ele>
        <time>2023-01-05T11:01:22.925Z</time>
      </trkpt>
      <trkpt lat="43.25277" lon="2.26309">
        <ele>156.254227</ele>
        <time>2023-01-05T11:01:25.920Z</time>
      </trkpt>
      <trkpt lat="43.25268" lon="2.26299">
        <ele>156.084933</ele>
        <time>2023-01-05T11:01:28.920Z</time>
      </trkpt>
      <trkpt lat="43.2526" lon="2.26289">
        <ele>155.915885</ele>
        <time>2023-01-05T11:01:31.930Z</time>
      </trkpt>
      <trkpt lat="43.25251" lon="2.2628">
        <ele>155.75193</ele>
        <time>2023-01-05T11:01:34.924Z</time>
      </trkpt>
      <trkpt lat="43.25242" lon="2.26272">
        <ele>155.71841</ele>
        <time>2023-01-05T11:01:37.918Z</time>
      </trkpt>
      <trkpt lat="43.25233" lon="2.26265">
        <ele>155.697427</ele>
        <time>2023-01-05T11:01:40.926Z</time>
      </trkpt>
      <trkpt lat="43.25223" lon="2.26257">
        <ele>155.674989</ele>
        <time>2023-01-05T11:01:43.917Z</time>
      </trkpt>
      <trkpt lat="43.25213" lon="2.26251">
        <ele>155.652552</ele>
        <time>2023-01-05T11:01:46.932Z</time>
      </trkpt>
      <trkpt lat="43.25203" lon="2.26244">
        <ele>155.629637</ele>
        <time>2023-01-05T11:01:49.921Z</time>
      </trkpt>
      <trkpt lat="43.25192" lon="2.26239">
        <ele>155.606947</ele>
        <time>2023-01-05T11:01:52.917Z</time>
      </trkpt>
      <trkpt lat="43.25182" lon="2.26233">
        <ele>155.583666</ele>
        <time>2023-01-05T11:01:55.926Z</time>
      </trkpt>
      <trkpt lat="43.25171" lon="2.26228">
        <ele>155.561149</ele>
        <time>2023-01-05T11:01:58.924Z</time>
      </trkpt>
      <trkpt lat="43.2516" lon="2.26225">
        <ele>155.539338</ele>
        <time>2023-01-05T11:02:01.921Z</time>
      </trkpt>
      <trkpt lat="43.25149" lon="2.26222">
        <ele>155.516961</ele>
        <time>2023-01-05T11:02:04.919Z</time>
      </trkpt>
      <trkpt lat="43.25138" lon="2.2622">
        <ele>155.494279</ele>
        <time>2023-01-05T11:02:07.923Z</time>
      </trkpt>
      <trkpt lat="43.25127" lon="2.26219">
        <ele>155.471569</ele>
        <time>2023-01-05T11:02:10.928Z</time>
      </trkpt>
      <trkpt lat="43.25115" lon="2.2622">
        <ele>155.447676</ele>
        <time>2023-01-05T11:02:13.919Z</time>
      </trkpt>
      <trkpt lat="43.25103" lon="2.2622">
        <ele>155.42399</ele>
        <time>2023-01-05T11:02:16.932Z</time>
      </trkpt>
      <trkpt lat="43.25092" lon="2.26222">
        <ele>155.400618</ele>
        <time>2023-01-05T11:02:19.926Z</time>
      </trkpt>
      <trkpt lat="43.2508" lon="2.26223">
        <ele>155.378085</ele>
        <time>2023-01-05T11:02:22.919Z</time>
      </trkpt>
      <trkpt lat="43.25069" lon="2.26224">
        <ele>155.505003</ele>
        <time>2023-01-05T11:02:25.922Z</time>
      </trkpt>
      <trkpt lat="43.25056" lon="2.26226">
        <ele>155.648676</ele>
        <time>2023-01-05T11:02:28.923Z</time>
      </trkpt>
      <trkpt lat="43.25044" lon="2.26227">
        <ele>155.79822</ele>
        <time>2023-01-05T11:02:31.923Z</time>
      </trkpt>
      <trkpt lat="43.25031" lon="2.26228">
        <ele>155.950156</ele>
        <time>2023-01-05T11:02:34.931Z</time>
      </trkpt>
      <trkpt lat="43.25018" lon="2.2623">
        <ele>156.09977</ele>
        <time>2023-01-05T11:02:37.914Z</time>
      </trkpt>
      <trkpt lat="43.25006" lon="2.26231">
        <ele>156.243511</ele>
        <time>2023-01-05T11:02:40.923Z</time>
      </trkpt>
      <trkpt lat="43.24994" lon="2.26232">
        <ele>156.383577</ele>
        <time>2023-01-05T11:02:43.922Z</time>
      </trkpt>
      <trkpt lat="43.24981" lon="2.26234">
        <ele>156.528292</ele>
        <time>2023-01-05T11:02:46.924Z</time>
      </trkpt>
      <trkpt lat="43.24968" lon="2.26233">
        <ele>156.677374</ele>
        <time>2023-01-05T11:02:49.923Z</time>
      </trkpt>
      <trkpt lat="43.24956" lon="2.26235">
        <ele>156.822347</ele>
        <time>2023-01-05T11:02:52.923Z</time>
      </trkpt>
      <trkpt lat="43.24944" lon="2.26234">
        <ele>156.963698</ele>
        <time>2023-01-05T11:02:55.920Z</time>
      </trkpt>
      <trkpt lat="43.24931" lon="2.26233">
        <ele>157.108152</ele>
        <time>2023-01-05T11:02:58.923Z</time>
      </trkpt>
      <trkpt lat="43.24919" lon="2.26234">
        <ele>157.253819</ele>
        <time>2023-01-05T11:03:01.927Z</time>
      </trkpt>
      <trkpt lat="43.24907" lon="2.26234">
        <ele>157.395927</ele>
        <time>2023-01-05T11:03:04.917Z</time>
      </trkpt>
      <trkpt lat="43.24894" lon="2.26233">
        <ele>157.414925</ele>
        <time>2023-01-05T11:03:07.920Z</time>
      </trkpt>
      <trkpt lat="43.24882" lon="2.2623">
        <ele>157.294292</ele>
        <time>2023-01-05T11:03:10.933Z</time>
      </trkpt>
      <trkpt lat="43.2487" lon="2.26228">
        <ele>157.177638</ele>
        <time>2023-01-05T11:03:13.921Z</time>
      </trkpt>
      <trkpt lat="43.24857" lon="2.26226">
        <ele>157.058661</ele>
        <time>2023-01-05T11:03:16.931Z</time>
      </trkpt>
      <trkpt lat="43.24845" lon="2.26225">
        <ele>156.939999</ele>
        <time>2023-01-05T11:03:19.920Z</time>
      </trkpt>
      <trkpt lat="43.24832" lon="2.26224">
        <ele>156.820627</ele>
        <time>2023-01-05T11:03:22.922Z</time>
      </trkpt>
      <trkpt lat="43.2482" lon="2.26223">
        <ele>156.70605</ele>
        <time>2023-01-05T11:03:25.919Z</time>
      </trkpt>
      <trkpt lat="43.24808" lon="2.26224">
        <ele>156.591414</ele>
        <time>2023-01-05T11:03:28.918Z</time>
      </trkpt>
      <trkpt lat="43.24796" lon="2.26225">
        <ele>156.475907</ele>
        <time>2023-01-05T11:03:31.928Z</time>
      </trkpt>
      <trkpt lat="43.24784" lon="2.26226">
        <ele>156.361747</ele>
        <time>2023-01-05T11:03:34.930Z</time>
      </trkpt>
      <trkpt lat="43.24773" lon="2.26228">
        <ele>156.247513</ele>
        <time>2023-01-05T11:03:37.918Z</time>
      </trkpt>
      <trkpt lat="43.2476" lon="2.2623">
        <ele>156.130433</ele>
        <time>2023-01-05T11:03:40.913Z</time>
      </trkpt>
      <trkpt lat="43.24748" lon="2.26232">
        <ele>156.011986</ele>
        <time>2023-01-05T11:03:43.923Z</time>
      </trkpt>
      <trkpt lat="43.24736" lon="2.26234">
        <ele>155.893718</ele>
        <time>2023-01-05T11:03:46.932Z</time>
      </trkpt>
      <trkpt lat="43.24724" lon="2.26237">
        <ele>155.777689</ele>
        <time>2023-01-05T11:03:49.918Z</time>
      </trkpt>
      <trkpt lat="43.24712" lon="2.26239">
        <ele>155.939469</ele>
        <time>2023-01-05T11:03:52.926Z</time>
      </trkpt>
      <trkpt lat="43.247" lon="2.26242">
        <ele>156.168516</ele>
        <time>2023-01-05T11:03:55.928Z</time>
      </trkpt>
      <trkpt lat="43.24689" lon="2.26243">
        <ele>156.392712</ele>
        <time>2023-01-05T11:03:58.922Z</time>
      </trkpt>
      <trkpt lat="43.24677" lon="2.26246">
        <ele>156.616473</ele>
        <time>2023-01-05T11:04:01.920Z</time>
      </trkpt>
      <trkpt lat="43.24665" lon="2.26249">
        <ele>156.84827</ele>
        <time>2023-01-05T11:04:04.932Z</time>
      </trkpt>
      <trkpt lat="43.24653" lon="2.26251">
        <ele>157.078672</ele>
        <time>2023-01-05T11:04:07.921Z</time>
      </trkpt>
      <trkpt lat="43.24642" lon="2.26252">
        <ele>157.291254</ele>
        <time>2023-01-05T11:04:10.927Z</time>
      </trkpt>
      <trkpt lat="43.24632" lon="2.26255">
        <ele>157.494408</ele>
        <time>2023-01-05T11:04:13.920Z</time>
      </trkpt>
      <trkpt lat="43.24622" lon="2.26257">
        <ele>157.683827</ele>
        <time>2023-01-05T11:04:16.923Z</time>
      </trkpt>
      <trkpt lat="43.2461" lon="2.26259">
        <ele>157.914063</ele>
        <time>2023-01-05T11:04:20.924Z</time>
      </trkpt>
      <trkpt lat="43.246" lon="2.2626">
        <ele>158.107103</ele>
        <time>2023-01-05T11:04:23.922Z</time>
      </trkpt>
      <trkpt lat="43.24589" lon="2.26263">
        <ele>158.333214</ele>
        <time>2023-01-05T11:04:27.918Z</time>
      </trkpt>
      <trkpt lat="43.2458" lon="2.26265">
        <ele>158.506762</ele>
        <time>2023-01-05T11:04:30.950Z</time>
      </trkpt>
      <trkpt lat="43.2457" lon="2.26267">
        <ele>158.691468</ele>
        <time>2023-01-05T11:04:33.923Z</time>
      </trkpt>
      <trkpt lat="43.2456" lon="2.26269">
        <ele>158.882537</ele>
        <time>2023-01-05T11:04:36.919Z</time>
      </trkpt>
      <trkpt lat="43.24551" lon="2.26272">
        <ele>159.075272</ele>
        <time>2023-01-05T11:04:40.914Z</time>
      </trkpt>
      <trkpt lat="43.24541" lon="2.26275">
        <ele>159.255456</ele>
        <time>2023-01-05T11:04:45.921Z</time>
      </trkpt>
      <trkpt lat="43.24531" lon="2.26279">
        <ele>159.439241</ele>
        <time>2023-01-05T11:04:50.919Z</time>
      </trkpt>
      <trkpt lat="43.24522" lon="2.26279">
        <ele>159.60612</ele>
        <time>2023-01-05T11:04:55.922Z</time>
      </trkpt>
      <trkpt lat="43.24511" lon="2.26282">
        <ele>159.804324</ele>
        <time>2023-01-05T11:04:59.928Z</time>
      </trkpt>
      <trkpt lat="43.24502" lon="2.26284">
        <ele>159.980284</ele>
        <time>2023-01-05T11:05:03.926Z</time>
      </trkpt>
      <trkpt lat="43.24492" lon="2.26287">
        <ele>160.155156</ele>
        <time>2023-01-05T11:05:07.922Z</time>
      </trkpt>
      <trkpt lat="43.24481" lon="2.26288">
        <ele>160.349642</ele>
        <time>2023-01-05T11:05:11.935Z</time>
      </trkpt>
      <trkpt lat="43.2447" lon="2.26291">
        <ele>160.557935</ele>
        <time>2023-01-05T11:05:15.924Z</time>
      </trkpt>
      <trkpt lat="43.24461" lon="2.26291">
        <ele>160.723227</ele>
        <time>2023-01-05T11:05:18.919Z</time>
      </trkpt>
      <trkpt lat="43.24451" lon="2.2629">
        <ele>160.89998</ele>
        <time>2023-01-05T11:05:21.924Z</time>
      </trkpt>
      <trkpt lat="43.24442" lon="2.26288">
        <ele>161.059784</ele>
        <time>2023-01-05T11:05:24.920Z</time>
      </trkpt>
      <trkpt lat="43.2443" lon="2.26285">
        <ele>161.273796</ele>
        <time>2023-01-05T11:05:28.932Z</time>
      </trkpt>
      <trkpt lat="43.2442" lon="2.26281">
        <ele>161.46007</ele>
        <time>2023-01-05T11:05:32.921Z</time>
      </trkpt>
      <trkpt lat="43.24411" lon="2.26277">
        <ele>161.628916</ele>
        <time>2023-01-05T11:05:36.932Z</time>
      </trkpt>
      <trkpt lat="43.24402" lon="2.26273">
        <ele>161.806794</ele>
        <time>2023-01-05T11:05:40.913Z</time>
      </trkpt>
      <trkpt lat="43.24392" lon="2.2627">
        <ele>161.99225</ele>
        <time>2023-01-05T11:05:44.920Z</time>
      </trkpt>
      <trkpt lat="43.24382" lon="2.26266">
        <ele>162.182194</ele>
        <time>2023-01-05T11:05:48.919Z</time>
      </trkpt>
      <trkpt lat="43.24372" lon="2.26264">
        <ele>162.353738</ele>
        <time>2023-01-05T11:05:52.930Z</time>
      </trkpt>
      <trkpt lat="43.24362" lon="2.26267">
        <ele>162.301163</ele>
        <time>2023-01-05T11:05:56.920Z</time>
      </trkpt>
      <trkpt lat="43.24353" lon="2.26273">
        <ele>162.027879</ele>
        <time>2023-01-05T11:06:00.923Z</time>
      </trkpt>
      <trkpt lat="43.24345" lon="2.26282">
        <ele>161.747235</ele>
        <time>2023-01-05T11:06:04.926Z</time>
      </trkpt>
      <trkpt lat="43.24336" lon="2.2629">
        <ele>161.482997</ele>
        <time>2023-01-05T11:06:08.921Z</time>
      </trkpt>
      <trkpt lat="43.24329" lon="2.26298">
        <ele>161.222375</ele>
        <time>2023-01-05T11:06:12.921Z</time>
      </trkpt>
      <trkpt lat="43.24321" lon="2.26307">
        <ele>160.970321</ele>
        <time>2023-01-05T11:06:16.932Z</time>
      </trkpt>
      <trkpt lat="43.24314" lon="2.26315">
        <ele>160.71175</ele>
        <time>2023-01-05T11:06:21.919Z</time>
      </trkpt>
      <trkpt lat="43.24305" lon="2.26323">
        <ele>160.431149</ele>
        <time>2023-01-05T11:06:26.915Z</time>
      </trkpt>
      <trkpt lat="43.24296" lon="2.26333">
        <ele>160.14082</ele>
        <time>2023-01-05T11:06:31.921Z</time>
      </trkpt>
      <trkpt lat="43.24288" lon="2.26342">
        <ele>159.852319</ele>
        <time>2023-01-05T11:06:36.925Z</time>
      </trkpt>
      <trkpt lat="43.24281" lon="2.2635">
        <ele>159.609595</ele>
        <time>2023-01-05T11:06:40.919Z</time>
      </trkpt>
      <trkpt lat="43.24273" lon="2.2636">
        <ele>159.330028</ele>
        <time>2023-01-05T11:06:45.926Z</time>
      </trkpt>
      <trkpt lat="43.24264" lon="2.26368">
        <ele>159.053629</ele>
        <time>2023-01-05T11:06:50.935Z</time>
      </trkpt>
      <trkpt lat="43.24256" lon="2.26376">
        <ele>158.791578</ele>
        <time>2023-01-05T11:06:55.923Z</time>
      </trkpt>
      <trkpt lat="43.24248" lon="2.26385">
        <ele>158.515179</ele>
        <time>2023-01-05T11:07:01.928Z</time>
      </trkpt>
      <trkpt lat="43.24239" lon="2.26392">
        <ele>158.244205</ele>
        <time>2023-01-05T11:07:06.923Z</time>
      </trkpt>
      <trkpt lat="43.2423" lon="2.26399">
        <ele>157.976894</ele>
        <time>2023-01-05T11:07:11.927Z</time>
      </trkpt>
      <trkpt lat="43.24221" lon="2.26405">
        <ele>157.716256</ele>
        <time>2023-01-05T11:07:16.921Z</time>
      </trkpt>
      <trkpt lat="43.24211" lon="2.26409">
        <ele>158.364067</ele>
        <time>2023-01-05T11:07:21.917Z</time>
      </trkpt>
      <trkpt lat="43.24203" lon="2.26412">
        <ele>159.022674</ele>
        <time>2023-01-05T11:07:26.923Z</time>
      </trkpt>
      <trkpt lat="43.24193" lon="2.2642">
        <ele>159.812031</ele>
        <time>2023-01-05T11:07:32.922Z</time>
      </trkpt>
      <trkpt lat="43.24184" lon="2.26425">
        <ele>160.492827</ele>
        <time>2023-01-05T11:07:37.923Z</time>
      </trkpt>
      <trkpt lat="43.24173" lon="2.26425">
        <ele>161.307516</ele>
        <time>2023-01-05T11:07:41.923Z</time>
      </trkpt>
      <trkpt lat="43.24136" lon="2.26429">
        <ele>163.923814</ele>
        <time>2023-01-05T11:07:43.930Z</time>
      </trkpt>
      <trkpt lat="43.24126" lon="2.26428">
        <ele>164.689362</ele>
        <time>2023-01-05T11:07:47.919Z</time>
      </trkpt>
      <trkpt lat="43.24116" lon="2.26427">
        <ele>165.391412</ele>
        <time>2023-01-05T11:07:51.926Z</time>
      </trkpt>
      <trkpt lat="43.24106" lon="2.26427">
        <ele>166.085635</ele>
        <time>2023-01-05T11:07:55.926Z</time>
      </trkpt>
      <trkpt lat="43.24095" lon="2.26424">
        <ele>166.890979</ele>
        <time>2023-01-05T11:08:00.926Z</time>
      </trkpt>
      <trkpt lat="43.24086" lon="2.26423">
        <ele>167.572075</ele>
        <time>2023-01-05T11:08:04.934Z</time>
      </trkpt>
      <trkpt lat="43.24076" lon="2.26422">
        <ele>168.288375</ele>
        <time>2023-01-05T11:08:08.923Z</time>
      </trkpt>
      <trkpt lat="43.24065" lon="2.26419">
        <ele>169.033885</ele>
        <time>2023-01-05T11:08:12.933Z</time>
      </trkpt>
      <trkpt lat="43.24056" lon="2.26418">
        <ele>169.71123</ele>
        <time>2023-01-05T11:08:16.920Z</time>
      </trkpt>
      <trkpt lat="43.24047" lon="2.26417">
        <ele>170.36186</ele>
        <time>2023-01-05T11:08:20.927Z</time>
      </trkpt>
      <trkpt lat="43.24036" lon="2.26415">
        <ele>171.134922</ele>
        <time>2023-01-05T11:08:25.921Z</time>
      </trkpt>
      <trkpt lat="43.24025" lon="2.26414">
        <ele>171.910567</ele>
        <time>2023-01-05T11:08:30.927Z</time>
      </trkpt>
      <trkpt lat="43.24015" lon="2.26411">
        <ele>172.619433</ele>
        <time>2023-01-05T11:08:35.920Z</time>
      </trkpt>
      <trkpt lat="43.24004" lon="2.26408">
        <ele>173.381955</ele>
        <time>2023-01-05T11:08:41.921Z</time>
      </trkpt>
      <trkpt lat="43.23995" lon="2.26404">
        <ele>174.047917</ele>
        <time>2023-01-05T11:08:46.931Z</time>
      </trkpt>
      <trkpt lat="43.23986" lon="2.264">
        <ele>174.705517</ele>
        <time>2023-01-05T11:08:51.931Z</time>
      </trkpt>
      <trkpt lat="43.23976" lon="2.26396">
        <ele>175.448866</ele>
        <time>2023-01-05T11:08:57.924Z</time>
      </trkpt>
      <trkpt lat="43.23967" lon="2.26392">
        <ele>176.129652</ele>
        <time>2023-01-05T11:09:03.936Z</time>
      </trkpt>
      <trkpt lat="43.23956" lon="2.26388">
        <ele>176.877101</ele>
        <time>2023-01-05T11:09:09.921Z</time>
      </trkpt>
      <trkpt lat="43.23946" lon="2.26383">
        <ele>177.602305</ele>
        <time>2023-01-05T11:09:15.918Z</time>
      </trkpt>
      <trkpt lat="43.23937" lon="2.26379">
        <ele>178.266736</ele>
        <time>2023-01-05T11:09:20.923Z</time>
      </trkpt>
      <trkpt lat="43.23928" lon="2.26375">
        <ele>178.917875</ele>
        <time>2023-01-05T11:09:25.929Z</time>
      </trkpt>
      <trkpt lat="43.2392" lon="2.26371">
        <ele>179.572174</ele>
        <time>2023-01-05T11:09:30.918Z</time>
      </trkpt>
      <trkpt lat="43.2391" lon="2.26366">
        <ele>180.29982</ele>
        <time>2023-01-05T11:09:36.926Z</time>
      </trkpt>
      <trkpt lat="43.23901" lon="2.26361">
        <ele>180.941282</ele>
        <time>2023-01-05T11:09:41.924Z</time>
      </trkpt>
      <trkpt lat="43.23892" lon="2.26357">
        <ele>181.65822</ele>
        <time>2023-01-05T11:09:46.916Z</time>
      </trkpt>
      <trkpt lat="43.23882" lon="2.26353">
        <ele>182.3472</ele>
        <time>2023-01-05T11:09:51.926Z</time>
      </trkpt>
      <trkpt lat="43.23874" lon="2.26348">
        <ele>182.978937</ele>
        <time>2023-01-05T11:09:56.924Z</time>
      </trkpt>
      <trkpt lat="43.23865" lon="2.26343">
        <ele>182.907323</ele>
        <time>2023-01-05T11:10:01.922Z</time>
      </trkpt>
      <trkpt lat="43.23856" lon="2.26339">
        <ele>182.693661</ele>
        <time>2023-01-05T11:10:07.923Z</time>
      </trkpt>
      <trkpt lat="43.23846" lon="2.26334">
        <ele>182.440578</ele>
        <time>2023-01-05T11:10:13.933Z</time>
      </trkpt>
      <trkpt lat="43.23837" lon="2.26327">
        <ele>182.213084</ele>
        <time>2023-01-05T11:10:17.927Z</time>
      </trkpt>
      <trkpt lat="43.23827" lon="2.26321">
        <ele>181.957658</ele>
        <time>2023-01-05T11:10:20.923Z</time>
      </trkpt>
      <trkpt lat="43.23815" lon="2.26316">
        <ele>181.693969</ele>
        <time>2023-01-05T11:10:23.922Z</time>
      </trkpt>
      <trkpt lat="43.23803" lon="2.2631">
        <ele>181.408445</ele>
        <time>2023-01-05T11:10:26.922Z</time>
      </trkpt>
      <trkpt lat="43.23791" lon="2.26303">
        <ele>181.102525</ele>
        <time>2023-01-05T11:10:29.925Z</time>
      </trkpt>
      <trkpt lat="43.23782" lon="2.26297">
        <ele>180.881901</ele>
        <time>2023-01-05T11:10:31.940Z</time>
      </trkpt>
      <trkpt lat="43.23773" lon="2.26292">
        <ele>180.6688</ele>
        <time>2023-01-05T11:10:33.935Z</time>
      </trkpt>
      <trkpt lat="43.23764" lon="2.26287">
        <ele>180.434211</ele>
        <time>2023-01-05T11:10:35.938Z</time>
      </trkpt>
      <trkpt lat="43.23755" lon="2.26283">
        <ele>180.220548</ele>
        <time>2023-01-05T11:10:37.923Z</time>
      </trkpt>
      <trkpt lat="43.23744" lon="2.26278">
        <ele>179.975866</ele>
        <time>2023-01-05T11:10:39.923Z</time>
      </trkpt>
      <trkpt lat="43.23734" lon="2.26274">
        <ele>179.737156</ele>
        <time>2023-01-05T11:10:41.932Z</time>
      </trkpt>
      <trkpt lat="43.23725" lon="2.2627">
        <ele>179.517311</ele>
        <time>2023-01-05T11:10:43.922Z</time>
      </trkpt>
      <trkpt lat="43.23715" lon="2.26266">
        <ele>179.282203</ele>
        <time>2023-01-05T11:10:45.923Z</time>
      </trkpt>
      <trkpt lat="43.23706" lon="2.26263">
        <ele>179.08104</ele>
        <time>2023-01-05T11:10:47.937Z</time>
      </trkpt>
      <trkpt lat="43.23694" lon="2.26259">
        <ele>179.473259</ele>
        <time>2023-01-05T11:10:50.922Z</time>
      </trkpt>
      <trkpt lat="43.23683" lon="2.26255">
        <ele>179.988101</ele>
        <time>2023-01-05T11:10:53.910Z</time>
      </trkpt>
      <trkpt lat="43.23671" lon="2.26251">
        <ele>180.510615</ele>
        <time>2023-01-05T11:10:56.937Z</time>
      </trkpt>
      <trkpt lat="43.2366" lon="2.26246">
        <ele>181.03443</ele>
        <time>2023-01-05T11:10:59.920Z</time>
      </trkpt>
      <trkpt lat="43.23648" lon="2.26241">
        <ele>181.563725</ele>
        <time>2023-01-05T11:11:02.938Z</time>
      </trkpt>
      <trkpt lat="43.23638" lon="2.26237">
        <ele>182.018765</ele>
        <time>2023-01-05T11:11:05.941Z</time>
      </trkpt>
      <trkpt lat="43.23628" lon="2.26233">
        <ele>182.466185</ele>
        <time>2023-01-05T11:11:08.941Z</time>
      </trkpt>
      <trkpt lat="43.23617" lon="2.2623">
        <ele>182.968996</ele>
        <time>2023-01-05T11:11:12.922Z</time>
      </trkpt>
      <trkpt lat="43.23606" lon="2.26228">
        <ele>183.463274</ele>
        <time>2023-01-05T11:11:16.956Z</time>
      </trkpt>
      <trkpt lat="43.23595" lon="2.26226">
        <ele>183.934619</ele>
        <time>2023-01-05T11:11:20.940Z</time>
      </trkpt>
      <trkpt lat="43.23586" lon="2.26225">
        <ele>184.341916</ele>
        <time>2023-01-05T11:11:24.940Z</time>
      </trkpt>
      <trkpt lat="43.23576" lon="2.26224">
        <ele>184.745093</ele>
        <time>2023-01-05T11:11:29.009Z</time>
      </trkpt>
      <trkpt lat="43.23566" lon="2.26226">
        <ele>185.214371</ele>
        <time>2023-01-05T11:11:33.940Z</time>
      </trkpt>
      <trkpt lat="43.23555" lon="2.26228">
        <ele>185.673086</ele>
        <time>2023-01-05T11:11:38.943Z</time>
      </trkpt>
      <trkpt lat="43.23545" lon="2.26231">
        <ele>186.124536</ele>
        <time>2023-01-05T11:11:43.933Z</time>
      </trkpt>
      <trkpt lat="43.23536" lon="2.26236">
        <ele>186.556399</ele>
        <time>2023-01-05T11:11:48.937Z</time>
      </trkpt>
      <trkpt lat="43.23526" lon="2.2624">
        <ele>186.947452</ele>
        <time>2023-01-05T11:11:54.941Z</time>
      </trkpt>
      <trkpt lat="43.23517" lon="2.26245">
        <ele>187.145883</ele>
        <time>2023-01-05T11:11:59.944Z</time>
      </trkpt>
      <trkpt lat="43.23509" lon="2.26251">
        <ele>187.335069</ele>
        <time>2023-01-05T11:12:04.940Z</time>
      </trkpt>
      <trkpt lat="43.23501" lon="2.26258">
        <ele>187.53054</ele>
        <time>2023-01-05T11:12:09.997Z</time>
      </trkpt>
      <trkpt lat="43.23493" lon="2.26265">
        <ele>187.727572</ele>
        <time>2023-01-05T11:12:14.946Z</time>
      </trkpt>
      <trkpt lat="43.23485" lon="2.2627">
        <ele>187.917568</ele>
        <time>2023-01-05T11:12:19.939Z</time>
      </trkpt>
      <trkpt lat="43.23474" lon="2.26271">
        <ele>188.146436</ele>
        <time>2023-01-05T11:12:25.944Z</time>
      </trkpt>
      <trkpt lat="43.23466" lon="2.26265">
        <ele>188.333964</ele>
        <time>2023-01-05T11:12:29.929Z</time>
      </trkpt>
      <trkpt lat="43.23457" lon="2.26255">
        <ele>188.566158</ele>
        <time>2023-01-05T11:12:33.938Z</time>
      </trkpt>
      <trkpt lat="43.23456" lon="2.26242">
        <ele>188.762161</ele>
        <time>2023-01-05T11:12:37.929Z</time>
      </trkpt>
      <trkpt lat="43.23453" lon="2.2623">
        <ele>188.953482</ele>
        <time>2023-01-05T11:12:40.934Z</time>
      </trkpt>
      <trkpt lat="43.23452" lon="2.26217">
        <ele>189.156359</ele>
        <time>2023-01-05T11:12:43.936Z</time>
      </trkpt>
      <trkpt lat="43.23451" lon="2.26202">
        <ele>189.378756</ele>
        <time>2023-01-05T11:12:46.942Z</time>
      </trkpt>
      <trkpt lat="43.23452" lon="2.26187">
        <ele>189.602519</ele>
        <time>2023-01-05T11:12:49.939Z</time>
      </trkpt>
      <trkpt lat="43.23451" lon="2.26172">
        <ele>189.831043</ele>
        <time>2023-01-05T11:12:52.929Z</time>
      </trkpt>
      <trkpt lat="43.2345" lon="2.26157">
        <ele>190.061779</ele>
        <time>2023-01-05T11:12:55.943Z</time>
      </trkpt>
      <trkpt lat="43.23449" lon="2.26143">
        <ele>190.282406</ele>
        <time>2023-01-05T11:12:58.938Z</time>
      </trkpt>
      <trkpt lat="43.23446" lon="2.26128">
        <ele>190.510159</ele>
        <time>2023-01-05T11:13:01.923Z</time>
      </trkpt>
      <trkpt lat="43.23443" lon="2.26115">
        <ele>190.621863</ele>
        <time>2023-01-05T11:13:04.942Z</time>
      </trkpt>
      <trkpt lat="43.23438" lon="2.26102">
        <ele>190.629297</ele>
        <time>2023-01-05T11:13:07.942Z</time>
      </trkpt>
      <trkpt lat="43.23433" lon="2.26092">
        <ele>190.636205</ele>
        <time>2023-01-05T11:13:10.943Z</time>
      </trkpt>
      <trkpt lat="43.23427" lon="2.26082">
        <ele>190.643104</ele>
        <time>2023-01-05T11:13:13.940Z</time>
      </trkpt>
      <trkpt lat="43.2342" lon="2.26073">
        <ele>190.649842</ele>
        <time>2023-01-05T11:13:16.924Z</time>
      </trkpt>
      <trkpt lat="43.23412" lon="2.26065">
        <ele>190.656921</ele>
        <time>2023-01-05T11:13:19.943Z</time>
      </trkpt>
      <trkpt lat="43.23405" lon="2.26056">
        <ele>190.663851</ele>
        <time>2023-01-05T11:13:22.941Z</time>
      </trkpt>
      <trkpt lat="43.23398" lon="2.26048">
        <ele>190.670467</ele>
        <time>2023-01-05T11:13:25.943Z</time>
      </trkpt>
      <trkpt lat="43.2339" lon="2.2604">
        <ele>190.677504</ele>
        <time>2023-01-05T11:13:28.943Z</time>
      </trkpt>
      <trkpt lat="43.23383" lon="2.26032">
        <ele>190.684599</ele>
        <time>2023-01-05T11:13:31.941Z</time>
      </trkpt>
      <trkpt lat="43.23375" lon="2.26025">
        <ele>190.691185</ele>
        <time>2023-01-05T11:13:34.939Z</time>
      </trkpt>
      <trkpt lat="43.23368" lon="2.26017">
        <ele>190.698312</ele>
        <time>2023-01-05T11:13:37.941Z</time>
      </trkpt>
      <trkpt lat="43.23359" lon="2.26008">
        <ele>190.705768</ele>
        <time>2023-01-05T11:13:40.931Z</time>
      </trkpt>
      <trkpt lat="43.23351" lon="2.26003">
        <ele>190.712596</ele>
        <time>2023-01-05T11:13:43.932Z</time>
      </trkpt>
      <trkpt lat="43.23344" lon="2.25994">
        <ele>190.719641</ele>
        <time>2023-01-05T11:13:46.936Z</time>
      </trkpt>
      <trkpt lat="43.23336" lon="2.25984">
        <ele>190.727314</ele>
        <time>2023-01-05T11:13:49.938Z</time>
      </trkpt>
      <trkpt lat="43.23328" lon="2.25975">
        <ele>190.735237</ele>
        <time>2023-01-05T11:13:52.993Z</time>
      </trkpt>
      <trkpt lat="43.23319" lon="2.25965">
        <ele>190.743011</ele>
        <time>2023-01-05T11:13:55.946Z</time>
      </trkpt>
      <trkpt lat="43.23311" lon="2.25956">
        <ele>190.735732</ele>
        <time>2023-01-05T11:13:58.942Z</time>
      </trkpt>
      <trkpt lat="43.23302" lon="2.25948">
        <ele>190.662402</ele>
        <time>2023-01-05T11:14:01.945Z</time>
      </trkpt>
      <trkpt lat="43.23294" lon="2.25939">
        <ele>190.587897</ele>
        <time>2023-01-05T11:14:04.930Z</time>
      </trkpt>
      <trkpt lat="43.23285" lon="2.25931">
        <ele>190.518832</ele>
        <time>2023-01-05T11:14:07.942Z</time>
      </trkpt>
      <trkpt lat="43.23276" lon="2.25922">
        <ele>190.437757</ele>
        <time>2023-01-05T11:14:12.001Z</time>
      </trkpt>
      <trkpt lat="43.23269" lon="2.25913">
        <ele>190.371654</ele>
        <time>2023-01-05T11:14:14.942Z</time>
      </trkpt>
      <trkpt lat="43.2326" lon="2.25904">
        <ele>190.297646</ele>
        <time>2023-01-05T11:14:17.998Z</time>
      </trkpt>
      <trkpt lat="43.23251" lon="2.25896">
        <ele>190.222043</ele>
        <time>2023-01-05T11:14:20.934Z</time>
      </trkpt>
      <trkpt lat="43.23242" lon="2.25888">
        <ele>190.147295</ele>
        <time>2023-01-05T11:14:23.942Z</time>
      </trkpt>
      <trkpt lat="43.23233" lon="2.25879">
        <ele>190.072529</ele>
        <time>2023-01-05T11:14:26.943Z</time>
      </trkpt>
      <trkpt lat="43.23224" lon="2.2587">
        <ele>189.992376</ele>
        <time>2023-01-05T11:14:29.936Z</time>
      </trkpt>
      <trkpt lat="43.23214" lon="2.2586">
        <ele>189.909934</ele>
        <time>2023-01-05T11:14:32.942Z</time>
      </trkpt>
      <trkpt lat="43.23204" lon="2.25851">
        <ele>189.828637</ele>
        <time>2023-01-05T11:14:35.937Z</time>
      </trkpt>
      <trkpt lat="43.23195" lon="2.25843">
        <ele>189.755525</ele>
        <time>2023-01-05T11:14:38.937Z</time>
      </trkpt>
      <trkpt lat="43.23188" lon="2.25836">
        <ele>189.691551</ele>
        <time>2023-01-05T11:14:41.941Z</time>
      </trkpt>
      <trkpt lat="43.2318" lon="2.2583">
        <ele>189.627119</ele>
        <time>2023-01-05T11:14:44.943Z</time>
      </trkpt>
      <trkpt lat="43.23171" lon="2.25824">
        <ele>189.558787</ele>
        <time>2023-01-05T11:14:47.942Z</time>
      </trkpt>
      <trkpt lat="43.23162" lon="2.25818">
        <ele>189.505882</ele>
        <time>2023-01-05T11:14:50.944Z</time>
      </trkpt>
      <trkpt lat="43.23151" lon="2.25811">
        <ele>189.490544</ele>
        <time>2023-01-05T11:14:53.934Z</time>
      </trkpt>
      <trkpt lat="43.23139" lon="2.25805">
        <ele>189.474756</ele>
        <time>2023-01-05T11:14:56.942Z</time>
      </trkpt>
      <trkpt lat="43.23128" lon="2.25799">
        <ele>189.459218</ele>
        <time>2023-01-05T11:14:59.941Z</time>
      </trkpt>
      <trkpt lat="43.23116" lon="2.25793">
        <ele>189.443549</ele>
        <time>2023-01-05T11:15:02.995Z</time>
      </trkpt>
      <trkpt lat="43.23104" lon="2.25787">
        <ele>189.427502</ele>
        <time>2023-01-05T11:15:05.942Z</time>
      </trkpt>
      <trkpt lat="43.23092" lon="2.25781">
        <ele>189.410947</ele>
        <time>2023-01-05T11:15:08.993Z</time>
      </trkpt>
      <trkpt lat="43.2308" lon="2.25776">
        <ele>189.394651</ele>
        <time>2023-01-05T11:15:11.941Z</time>
      </trkpt>
      <trkpt lat="43.23068" lon="2.25772">
        <ele>189.379413</ele>
        <time>2023-01-05T11:15:15.001Z</time>
      </trkpt>
      <trkpt lat="43.23057" lon="2.25767">
        <ele>189.364262</ele>
        <time>2023-01-05T11:15:17.944Z</time>
      </trkpt>
      <trkpt lat="43.23045" lon="2.25763">
        <ele>189.34917</ele>
        <time>2023-01-05T11:15:20.991Z</time>
      </trkpt>
      <trkpt lat="43.23033" lon="2.25759">
        <ele>189.333654</ele>
        <time>2023-01-05T11:15:23.942Z</time>
      </trkpt>
      <trkpt lat="43.23022" lon="2.25755">
        <ele>189.319</ele>
        <time>2023-01-05T11:15:26.952Z</time>
      </trkpt>
      <trkpt lat="43.23011" lon="2.25751">
        <ele>189.304267</ele>
        <time>2023-01-05T11:15:29.939Z</time>
      </trkpt>
      <trkpt lat="43.22999" lon="2.25748">
        <ele>189.288956</ele>
        <time>2023-01-05T11:15:33.017Z</time>
      </trkpt>
      <trkpt lat="43.22987" lon="2.25743">
        <ele>189.334651</ele>
        <time>2023-01-05T11:15:35.923Z</time>
      </trkpt>
      <trkpt lat="43.22977" lon="2.2574">
        <ele>189.433813</ele>
        <time>2023-01-05T11:15:38.992Z</time>
      </trkpt>
      <trkpt lat="43.22967" lon="2.25736">
        <ele>189.526611</ele>
        <time>2023-01-05T11:15:41.931Z</time>
      </trkpt>
      <trkpt lat="43.22957" lon="2.25733">
        <ele>189.617281</ele>
        <time>2023-01-05T11:15:44.990Z</time>
      </trkpt>
      <trkpt lat="43.22948" lon="2.2573">
        <ele>189.702735</ele>
        <time>2023-01-05T11:15:47.939Z</time>
      </trkpt>
      <trkpt lat="43.22939" lon="2.25727">
        <ele>189.786543</ele>
        <time>2023-01-05T11:15:51.020Z</time>
      </trkpt>
      <trkpt lat="43.2293" lon="2.25724">
        <ele>189.87215</ele>
        <time>2023-01-05T11:15:53.944Z</time>
      </trkpt>
      <trkpt lat="43.22921" lon="2.25721">
        <ele>189.961789</ele>
        <time>2023-01-05T11:15:57.010Z</time>
      </trkpt>
      <trkpt lat="43.2291" lon="2.25717">
        <ele>190.065679</ele>
        <time>2023-01-05T11:16:00.945Z</time>
      </trkpt>
      <trkpt lat="43.229" lon="2.25713">
        <ele>190.158259</ele>
        <time>2023-01-05T11:16:04.937Z</time>
      </trkpt>
      <trkpt lat="43.2289" lon="2.25709">
        <ele>190.256061</ele>
        <time>2023-01-05T11:16:08.969Z</time>
      </trkpt>
      <trkpt lat="43.22879" lon="2.25705">
        <ele>190.357885</ele>
        <time>2023-01-05T11:16:12.932Z</time>
      </trkpt>
      <trkpt lat="43.22869" lon="2.25701">
        <ele>190.453943</ele>
        <time>2023-01-05T11:16:16.939Z</time>
      </trkpt>
      <trkpt lat="43.2286" lon="2.25697">
        <ele>190.540951</ele>
        <time>2023-01-05T11:16:20.945Z</time>
      </trkpt>
      <trkpt lat="43.22851" lon="2.25692">
        <ele>190.631638</ele>
        <time>2023-01-05T11:16:24.928Z</time>
      </trkpt>
      <trkpt lat="43.22841" lon="2.25687">
        <ele>190.726895</ele>
        <time>2023-01-05T11:16:29.941Z</time>
      </trkpt>
      <trkpt lat="43.22831" lon="2.2568">
        <ele>190.826457</ele>
        <time>2023-01-05T11:16:33.943Z</time>
      </trkpt>
      <trkpt lat="43.22821" lon="2.25674">
        <ele>190.940645</ele>
        <time>2023-01-05T11:16:37.941Z</time>
      </trkpt>
      <trkpt lat="43.2281" lon="2.2567">
        <ele>191.304403</ele>
        <time>2023-01-05T11:16:41.989Z</time>
      </trkpt>
      <trkpt lat="43.228" lon="2.25665">
        <ele>191.650147</ele>
        <time>2023-01-05T11:16:45.934Z</time>
      </trkpt>
      <trkpt lat="43.2279" lon="2.25658">
        <ele>192.000207</ele>
        <time>2023-01-05T11:16:49.941Z</time>
      </trkpt>
      <trkpt lat="43.22781" lon="2.25652">
        <ele>192.341504</ele>
        <time>2023-01-05T11:16:52.988Z</time>
      </trkpt>
      <trkpt lat="43.2277" lon="2.25646">
        <ele>192.703324</ele>
        <time>2023-01-05T11:16:55.938Z</time>
      </trkpt>
      <trkpt lat="43.22759" lon="2.25639">
        <ele>193.089802</ele>
        <time>2023-01-05T11:16:58.925Z</time>
      </trkpt>
      <trkpt lat="43.2275" lon="2.25634">
        <ele>193.42122</ele>
        <time>2023-01-05T11:17:01.940Z</time>
      </trkpt>
      <trkpt lat="43.22741" lon="2.25628">
        <ele>193.762443</ele>
        <time>2023-01-05T11:17:04.982Z</time>
      </trkpt>
      <trkpt lat="43.22732" lon="2.25623">
        <ele>194.067655</ele>
        <time>2023-01-05T11:17:07.942Z</time>
      </trkpt>
      <trkpt lat="43.2272" lon="2.25618">
        <ele>194.45549</ele>
        <time>2023-01-05T11:17:11.937Z</time>
      </trkpt>
      <trkpt lat="43.22711" lon="2.25613">
        <ele>194.763962</ele>
        <time>2023-01-05T11:17:14.940Z</time>
      </trkpt>
      <trkpt lat="43.227" lon="2.25608">
        <ele>195.141866</ele>
        <time>2023-01-05T11:17:18.940Z</time>
      </trkpt>
      <trkpt lat="43.2269" lon="2.25604">
        <ele>195.505625</ele>
        <time>2023-01-05T11:17:23.082Z</time>
      </trkpt>
      <trkpt lat="43.22681" lon="2.25599">
        <ele>195.81108</ele>
        <time>2023-01-05T11:17:25.939Z</time>
      </trkpt>
      <trkpt lat="43.2267" lon="2.25593">
        <ele>196.183218</ele>
        <time>2023-01-05T11:17:29.940Z</time>
      </trkpt>
      <trkpt lat="43.22659" lon="2.25588">
        <ele>196.545791</ele>
        <time>2023-01-05T11:17:33.937Z</time>
      </trkpt>
      <trkpt lat="43.2265" lon="2.25586">
        <ele>196.700602</ele>
        <time>2023-01-05T11:17:36.943Z</time>
      </trkpt>
      <trkpt lat="43.2264" lon="2.25583">
        <ele>196.573509</ele>
        <time>2023-01-05T11:17:39.940Z</time>
      </trkpt>
      <trkpt lat="43.2263" lon="2.25583">
        <ele>196.444398</ele>
        <time>2023-01-05T11:17:42.942Z</time>
      </trkpt>
      <trkpt lat="43.22621" lon="2.25586">
        <ele>196.323473</ele>
        <time>2023-01-05T11:17:45.939Z</time>
      </trkpt>
      <trkpt lat="43.22611" lon="2.2559">
        <ele>196.199437</ele>
        <time>2023-01-05T11:17:49.946Z</time>
      </trkpt>
      <trkpt lat="43.22602" lon="2.25588">
        <ele>196.081535</ele>
        <time>2023-01-05T11:17:54.938Z</time>
      </trkpt>
      <trkpt lat="43.22603" lon="2.25575">
        <ele>195.962506</ele>
        <time>2023-01-05T11:17:59.917Z</time>
      </trkpt>
      <trkpt lat="43.22607" lon="2.25562">
        <ele>195.830348</ele>
        <time>2023-01-05T11:18:03.985Z</time>
      </trkpt>
      <trkpt lat="43.22602" lon="2.25549">
        <ele>195.697211</ele>
        <time>2023-01-05T11:18:08.943Z</time>
      </trkpt>
      <trkpt lat="43.22593" lon="2.25544">
        <ele>195.578342</ele>
        <time>2023-01-05T11:18:12.937Z</time>
      </trkpt>
      <trkpt lat="43.22584" lon="2.2554">
        <ele>195.457099</ele>
        <time>2023-01-05T11:18:16.922Z</time>
      </trkpt>
      <trkpt lat="43.22574" lon="2.25536">
        <ele>195.329665</ele>
        <time>2023-01-05T11:18:21.941Z</time>
      </trkpt>
      <trkpt lat="43.22564" lon="2.25531">
        <ele>195.195817</ele>
        <time>2023-01-05T11:18:26.941Z</time>
      </trkpt>
      <trkpt lat="43.22553" lon="2.25526">
        <ele>195.049714</ele>
        <time>2023-01-05T11:18:30.913Z</time>
      </trkpt>
      <trkpt lat="43.22544" lon="2.25522">
        <ele>194.922453</ele>
        <time>2023-01-05T11:18:34.932Z</time>
      </trkpt>
      <trkpt lat="43.22533" lon="2.25517">
        <ele>194.782657</ele>
        <time>2023-01-05T11:18:39.941Z</time>
      </trkpt>
      <trkpt lat="43.22527" lon="2.25507">
        <ele>194.660238</ele>
        <time>2023-01-05T11:18:45.938Z</time>
      </trkpt>
      <trkpt lat="43.22528" lon="2.25491">
        <ele>194.51161</ele>
        <time>2023-01-05T11:18:49.937Z</time>
      </trkpt>
      <trkpt lat="43.22527" lon="2.25477">
        <ele>194.438061</ele>
        <time>2023-01-05T11:18:53.949Z</time>
      </trkpt>
      <trkpt lat="43.22529" lon="2.25463">
        <ele>194.390163</ele>
        <time>2023-01-05T11:18:57.944Z</time>
      </trkpt>
      <trkpt lat="43.22528" lon="2.25451">
        <ele>194.347464</ele>
        <time>2023-01-05T11:19:01.941Z</time>
      </trkpt>
      <trkpt lat="43.22526" lon="2.25437">
        <ele>194.300587</ele>
        <time>2023-01-05T11:19:06.943Z</time>
      </trkpt>
      <trkpt lat="43.2252" lon="2.25427">
        <ele>194.255641</ele>
        <time>2023-01-05T11:19:12.017Z</time>
      </trkpt>
      <trkpt lat="43.22511" lon="2.25423">
        <ele>194.210038</ele>
        <time>2023-01-05T11:19:15.941Z</time>
      </trkpt>
      <trkpt lat="43.225" lon="2.25421">
        <ele>194.158552</ele>
        <time>2023-01-05T11:19:19.944Z</time>
      </trkpt>
      <trkpt lat="43.2249" lon="2.25423">
        <ele>194.112847</ele>
        <time>2023-01-05T11:19:23.996Z</time>
      </trkpt>
      <trkpt lat="43.22499" lon="2.25417">
        <ele>194.065417</ele>
        <time>2023-01-05T11:21:07.942Z</time>
      </trkpt>
      <trkpt lat="43.22508" lon="2.25423">
        <ele>194.018247</ele>
        <time>2023-01-05T11:21:11.931Z</time>
      </trkpt>
      <trkpt lat="43.22516" lon="2.25432">
        <ele>193.97188</ele>
        <time>2023-01-05T11:21:15.931Z</time>
      </trkpt>
      <trkpt lat="43.22523" lon="2.25441">
        <ele>193.927117</ele>
        <time>2023-01-05T11:21:19.939Z</time>
      </trkpt>
      <trkpt lat="43.22527" lon="2.25452">
        <ele>193.884254</ele>
        <time>2023-01-05T11:21:23.943Z</time>
      </trkpt>
      <trkpt lat="43.22529" lon="2.25465">
        <ele>193.839929</ele>
        <time>2023-01-05T11:21:28.990Z</time>
      </trkpt>
      <trkpt lat="43.22527" lon="2.25478">
        <ele>193.798607</ele>
        <time>2023-01-05T11:21:33.940Z</time>
      </trkpt>
      <trkpt lat="43.22526" lon="2.25491">
        <ele>193.751305</ele>
        <time>2023-01-05T11:21:38.944Z</time>
      </trkpt>
      <trkpt lat="43.22526" lon="2.25504">
        <ele>193.707904</ele>
        <time>2023-01-05T11:21:43.942Z</time>
      </trkpt>
      <trkpt lat="43.22527" lon="2.25518">
        <ele>193.661816</ele>
        <time>2023-01-05T11:21:48.945Z</time>
      </trkpt>
      <trkpt lat="43.22534" lon="2.25528">
        <ele>193.758064</ele>
        <time>2023-01-05T11:21:56.945Z</time>
      </trkpt>
      <trkpt lat="43.22543" lon="2.25531">
        <ele>193.989933</ele>
        <time>2023-01-05T11:22:02.944Z</time>
      </trkpt>
      <trkpt lat="43.22552" lon="2.25534">
        <ele>194.214238</ele>
        <time>2023-01-05T11:22:07.942Z</time>
      </trkpt>
      <trkpt lat="43.22562" lon="2.25538">
        <ele>194.469418</ele>
        <time>2023-01-05T11:22:13.952Z</time>
      </trkpt>
      <trkpt lat="43.22572" lon="2.25541">
        <ele>194.698365</ele>
        <time>2023-01-05T11:22:18.949Z</time>
      </trkpt>
      <trkpt lat="43.22581" lon="2.25545">
        <ele>194.940749</ele>
        <time>2023-01-05T11:22:23.940Z</time>
      </trkpt>
      <trkpt lat="43.2259" lon="2.25547">
        <ele>195.161101</ele>
        <time>2023-01-05T11:22:28.945Z</time>
      </trkpt>
      <trkpt lat="43.226" lon="2.25551">
        <ele>195.409233</ele>
        <time>2023-01-05T11:22:33.926Z</time>
      </trkpt>
      <trkpt lat="43.22608" lon="2.25556">
        <ele>195.637634</ele>
        <time>2023-01-05T11:22:37.940Z</time>
      </trkpt>
      <trkpt lat="43.22621" lon="2.25558">
        <ele>195.944938</ele>
        <time>2023-01-05T11:22:39.939Z</time>
      </trkpt>
      <trkpt lat="43.22629" lon="2.25546">
        <ele>196.238699</ele>
        <time>2023-01-05T11:22:43.942Z</time>
      </trkpt>
      <trkpt lat="43.22636" lon="2.25536">
        <ele>196.479707</ele>
        <time>2023-01-05T11:22:46.936Z</time>
      </trkpt>
      <trkpt lat="43.22643" lon="2.25526">
        <ele>196.715291</ele>
        <time>2023-01-05T11:22:49.943Z</time>
      </trkpt>
      <trkpt lat="43.22651" lon="2.25514">
        <ele>197.002692</ele>
        <time>2023-01-05T11:22:52.939Z</time>
      </trkpt>
      <trkpt lat="43.2266" lon="2.25502">
        <ele>197.313869</ele>
        <time>2023-01-05T11:22:55.936Z</time>
      </trkpt>
      <trkpt lat="43.22668" lon="2.25495">
        <ele>197.534758</ele>
        <time>2023-01-05T11:22:57.937Z</time>
      </trkpt>
      <trkpt lat="43.22678" lon="2.25485">
        <ele>197.854387</ele>
        <time>2023-01-05T11:23:00.929Z</time>
      </trkpt>
      <trkpt lat="43.22689" lon="2.25477">
        <ele>197.60633</ele>
        <time>2023-01-05T11:23:03.942Z</time>
      </trkpt>
      <trkpt lat="43.22699" lon="2.2547">
        <ele>196.96067</ele>
        <time>2023-01-05T11:23:06.941Z</time>
      </trkpt>
      <trkpt lat="43.22708" lon="2.25463">
        <ele>196.30441</ele>
        <time>2023-01-05T11:23:09.942Z</time>
      </trkpt>
      <trkpt lat="43.22719" lon="2.25455">
        <ele>195.604162</ele>
        <time>2023-01-05T11:23:12.933Z</time>
      </trkpt>
      <trkpt lat="43.22729" lon="2.25449">
        <ele>194.954089</ele>
        <time>2023-01-05T11:23:15.939Z</time>
      </trkpt>
      <trkpt lat="43.22738" lon="2.25444">
        <ele>194.365503</ele>
        <time>2023-01-05T11:23:18.940Z</time>
      </trkpt>
      <trkpt lat="43.22748" lon="2.25439">
        <ele>193.716941</ele>
        <time>2023-01-05T11:23:21.942Z</time>
      </trkpt>
      <trkpt lat="43.22758" lon="2.25434">
        <ele>193.105136</ele>
        <time>2023-01-05T11:23:24.942Z</time>
      </trkpt>
      <trkpt lat="43.22767" lon="2.25429">
        <ele>192.483884</ele>
        <time>2023-01-05T11:23:28.937Z</time>
      </trkpt>
      <trkpt lat="43.22777" lon="2.25424">
        <ele>191.841989</ele>
        <time>2023-01-05T11:23:32.938Z</time>
      </trkpt>
      <trkpt lat="43.22788" lon="2.25417">
        <ele>191.114116</ele>
        <time>2023-01-05T11:23:36.959Z</time>
      </trkpt>
      <trkpt lat="43.228" lon="2.25411">
        <ele>190.380643</ele>
        <time>2023-01-05T11:23:39.939Z</time>
      </trkpt>
      <trkpt lat="43.22813" lon="2.25405">
        <ele>189.583456</ele>
        <time>2023-01-05T11:23:43.017Z</time>
      </trkpt>
      <trkpt lat="43.22824" lon="2.254">
        <ele>188.861315</ele>
        <time>2023-01-05T11:23:45.933Z</time>
      </trkpt>
      <trkpt lat="43.22835" lon="2.25394">
        <ele>188.158784</ele>
        <time>2023-01-05T11:23:48.923Z</time>
      </trkpt>
      <trkpt lat="43.22846" lon="2.2539">
        <ele>187.493087</ele>
        <time>2023-01-05T11:23:51.939Z</time>
      </trkpt>
      <trkpt lat="43.22855" lon="2.25387">
        <ele>186.990923</ele>
        <time>2023-01-05T11:23:54.942Z</time>
      </trkpt>
      <trkpt lat="43.22864" lon="2.25385">
        <ele>186.541648</ele>
        <time>2023-01-05T11:23:58.944Z</time>
      </trkpt>
      <trkpt lat="43.22875" lon="2.25382">
        <ele>186.006103</ele>
        <time>2023-01-05T11:24:03.942Z</time>
      </trkpt>
      <trkpt lat="43.22886" lon="2.25377">
        <ele>185.458965</ele>
        <time>2023-01-05T11:24:07.941Z</time>
      </trkpt>
      <trkpt lat="43.22895" lon="2.25375">
        <ele>184.99199</ele>
        <time>2023-01-05T11:24:10.938Z</time>
      </trkpt>
      <trkpt lat="43.22917" lon="2.25372">
        <ele>183.940802</ele>
        <time>2023-01-05T11:26:44.922Z</time>
      </trkpt>
      <trkpt lat="43.22926" lon="2.25374">
        <ele>183.500624</ele>
        <time>2023-01-05T11:26:47.926Z</time>
      </trkpt>
      <trkpt lat="43.22937" lon="2.25374">
        <ele>182.991998</ele>
        <time>2023-01-05T11:26:50.917Z</time>
      </trkpt>
      <trkpt lat="43.22948" lon="2.25375">
        <ele>182.438371</ele>
        <time>2023-01-05T11:26:53.918Z</time>
      </trkpt>
      <trkpt lat="43.2296" lon="2.25379">
        <ele>181.854457</ele>
        <time>2023-01-05T11:26:56.914Z</time>
      </trkpt>
      <trkpt lat="43.22973" lon="2.25382">
        <ele>181.233114</ele>
        <time>2023-01-05T11:26:59.941Z</time>
      </trkpt>
      <trkpt lat="43.22986" lon="2.25385">
        <ele>180.598163</ele>
        <time>2023-01-05T11:27:02.917Z</time>
      </trkpt>
      <trkpt lat="43.22995" lon="2.25387">
        <ele>180.160155</ele>
        <time>2023-01-05T11:27:04.913Z</time>
      </trkpt>
      <trkpt lat="43.23005" lon="2.25388">
        <ele>179.69732</ele>
        <time>2023-01-05T11:27:06.940Z</time>
      </trkpt>
      <trkpt lat="43.23014" lon="2.2539">
        <ele>179.234128</ele>
        <time>2023-01-05T11:27:08.917Z</time>
      </trkpt>
      <trkpt lat="43.23025" lon="2.25391">
        <ele>178.73845</ele>
        <time>2023-01-05T11:27:10.936Z</time>
      </trkpt>
      <trkpt lat="43.23035" lon="2.25391">
        <ele>178.379629</ele>
        <time>2023-01-05T11:27:12.927Z</time>
      </trkpt>
      <trkpt lat="43.23044" lon="2.25392">
        <ele>178.104765</ele>
        <time>2023-01-05T11:27:14.922Z</time>
      </trkpt>
      <trkpt lat="43.23054" lon="2.25392">
        <ele>177.80658</ele>
        <time>2023-01-05T11:27:16.932Z</time>
      </trkpt>
      <trkpt lat="43.23064" lon="2.25393">
        <ele>177.505445</ele>
        <time>2023-01-05T11:27:18.940Z</time>
      </trkpt>
      <trkpt lat="43.23074" lon="2.25393">
        <ele>177.218672</ele>
        <time>2023-01-05T11:27:20.947Z</time>
      </trkpt>
      <trkpt lat="43.23084" lon="2.25394">
        <ele>176.919674</ele>
        <time>2023-01-05T11:27:22.940Z</time>
      </trkpt>
      <trkpt lat="43.23094" lon="2.25395">
        <ele>176.621233</ele>
        <time>2023-01-05T11:27:24.926Z</time>
      </trkpt>
      <trkpt lat="43.23104" lon="2.25396">
        <ele>176.325177</ele>
        <time>2023-01-05T11:27:26.954Z</time>
      </trkpt>
      <trkpt lat="43.23114" lon="2.25397">
        <ele>176.040699</ele>
        <time>2023-01-05T11:27:28.938Z</time>
      </trkpt>
      <trkpt lat="43.23123" lon="2.25399">
        <ele>175.761667</ele>
        <time>2023-01-05T11:27:30.937Z</time>
      </trkpt>
      <trkpt lat="43.23133" lon="2.254">
        <ele>175.471949</ele>
        <time>2023-01-05T11:27:32.937Z</time>
      </trkpt>
      <trkpt lat="43.23143" lon="2.25401">
        <ele>175.172951</ele>
        <time>2023-01-05T11:27:34.941Z</time>
      </trkpt>
      <trkpt lat="43.23157" lon="2.25401">
        <ele>174.7745</ele>
        <time>2023-01-05T11:27:37.942Z</time>
      </trkpt>
      <trkpt lat="43.23166" lon="2.25401">
        <ele>174.50595</ele>
        <time>2023-01-05T11:27:39.932Z</time>
      </trkpt>
      <trkpt lat="43.23176" lon="2.25402">
        <ele>174.215945</ele>
        <time>2023-01-05T11:27:41.929Z</time>
      </trkpt>
      <trkpt lat="43.23185" lon="2.25401">
        <ele>173.934767</ele>
        <time>2023-01-05T11:27:43.940Z</time>
      </trkpt>
      <trkpt lat="43.23195" lon="2.254">
        <ele>173.638336</ele>
        <time>2023-01-05T11:27:45.914Z</time>
      </trkpt>
      <trkpt lat="43.23209" lon="2.25399">
        <ele>173.256908</ele>
        <time>2023-01-05T11:27:48.940Z</time>
      </trkpt>
      <trkpt lat="43.23218" lon="2.25399">
        <ele>173.07813</ele>
        <time>2023-01-05T11:27:50.932Z</time>
      </trkpt>
      <trkpt lat="43.23228" lon="2.25399">
        <ele>172.895485</ele>
        <time>2023-01-05T11:27:52.915Z</time>
      </trkpt>
      <trkpt lat="43.23237" lon="2.25398">
        <ele>172.716535</ele>
        <time>2023-01-05T11:27:54.936Z</time>
      </trkpt>
      <trkpt lat="43.23247" lon="2.25398">
        <ele>172.522559</ele>
        <time>2023-01-05T11:27:56.941Z</time>
      </trkpt>
      <trkpt lat="43.23256" lon="2.25398">
        <ele>172.349485</ele>
        <time>2023-01-05T11:27:58.944Z</time>
      </trkpt>
      <trkpt lat="43.23265" lon="2.25397">
        <ele>172.175498</ele>
        <time>2023-01-05T11:28:00.943Z</time>
      </trkpt>
      <trkpt lat="43.23275" lon="2.25394">
        <ele>171.999014</ele>
        <time>2023-01-05T11:28:02.943Z</time>
      </trkpt>
      <trkpt lat="43.23283" lon="2.2539">
        <ele>171.827204</ele>
        <time>2023-01-05T11:28:04.939Z</time>
      </trkpt>
      <trkpt lat="43.23291" lon="2.25385">
        <ele>171.653643</ele>
        <time>2023-01-05T11:28:06.924Z</time>
      </trkpt>
      <trkpt lat="43.233" lon="2.25378">
        <ele>171.470734</ele>
        <time>2023-01-05T11:28:08.917Z</time>
      </trkpt>
      <trkpt lat="43.23307" lon="2.2537">
        <ele>171.290376</ele>
        <time>2023-01-05T11:28:10.913Z</time>
      </trkpt>
      <trkpt lat="43.23317" lon="2.25359">
        <ele>171.043454</ele>
        <time>2023-01-05T11:28:13.916Z</time>
      </trkpt>
      <trkpt lat="43.23328" lon="2.25349">
        <ele>170.806691</ele>
        <time>2023-01-05T11:28:16.938Z</time>
      </trkpt>
      <trkpt lat="43.23339" lon="2.25341">
        <ele>170.560978</ele>
        <time>2023-01-05T11:28:19.922Z</time>
      </trkpt>
      <trkpt lat="43.2335" lon="2.25333">
        <ele>170.318123</ele>
        <time>2023-01-05T11:28:22.932Z</time>
      </trkpt>
      <trkpt lat="43.23362" lon="2.25326">
        <ele>170.074852</ele>
        <time>2023-01-05T11:28:25.940Z</time>
      </trkpt>
      <trkpt lat="43.23374" lon="2.2532">
        <ele>169.866161</ele>
        <time>2023-01-05T11:28:28.944Z</time>
      </trkpt>
      <trkpt lat="43.23386" lon="2.25316">
        <ele>169.851295</ele>
        <time>2023-01-05T11:28:31.927Z</time>
      </trkpt>
      <trkpt lat="43.23399" lon="2.25314">
        <ele>169.836431</ele>
        <time>2023-01-05T11:28:34.939Z</time>
      </trkpt>
      <trkpt lat="43.23412" lon="2.25314">
        <ele>169.821431</ele>
        <time>2023-01-05T11:28:37.916Z</time>
      </trkpt>
      <trkpt lat="43.23425" lon="2.25315">
        <ele>169.806241</ele>
        <time>2023-01-05T11:28:40.929Z</time>
      </trkpt>
      <trkpt lat="43.23438" lon="2.25318">
        <ele>169.791399</ele>
        <time>2023-01-05T11:28:43.934Z</time>
      </trkpt>
      <trkpt lat="43.23449" lon="2.25322">
        <ele>169.777243</ele>
        <time>2023-01-05T11:28:46.940Z</time>
      </trkpt>
      <trkpt lat="43.23461" lon="2.25325">
        <ele>169.763298</ele>
        <time>2023-01-05T11:28:49.921Z</time>
      </trkpt>
      <trkpt lat="43.23473" lon="2.25326">
        <ele>169.750022</ele>
        <time>2023-01-05T11:28:52.915Z</time>
      </trkpt>
      <trkpt lat="43.23484" lon="2.25323">
        <ele>169.737196</ele>
        <time>2023-01-05T11:28:55.916Z</time>
      </trkpt>
      <trkpt lat="43.23493" lon="2.25322">
        <ele>169.726005</ele>
        <time>2023-01-05T11:28:58.932Z</time>
      </trkpt>
      <trkpt lat="43.23502" lon="2.25319">
        <ele>169.715601</ele>
        <time>2023-01-05T11:29:01.933Z</time>
      </trkpt>
      <trkpt lat="43.23513" lon="2.25315">
        <ele>169.702561</ele>
        <time>2023-01-05T11:29:05.940Z</time>
      </trkpt>
      <trkpt lat="43.23523" lon="2.25312">
        <ele>169.691157</ele>
        <time>2023-01-05T11:29:09.931Z</time>
      </trkpt>
      <trkpt lat="43.23532" lon="2.25308">
        <ele>169.679532</ele>
        <time>2023-01-05T11:29:13.924Z</time>
      </trkpt>
      <trkpt lat="43.23544" lon="2.25305">
        <ele>169.666425</ele>
        <time>2023-01-05T11:29:17.927Z</time>
      </trkpt>
      <trkpt lat="43.23555" lon="2.25305">
        <ele>169.692546</ele>
        <time>2023-01-05T11:29:21.917Z</time>
      </trkpt>
      <trkpt lat="43.23567" lon="2.25306">
        <ele>169.757173</ele>
        <time>2023-01-05T11:29:25.917Z</time>
      </trkpt>
      <trkpt lat="43.23576" lon="2.25308">
        <ele>169.811088</ele>
        <time>2023-01-05T11:29:28.940Z</time>
      </trkpt>
      <trkpt lat="43.23585" lon="2.25311">
        <ele>169.860832</ele>
        <time>2023-01-05T11:29:31.941Z</time>
      </trkpt>
      <trkpt lat="43.23597" lon="2.25312">
        <ele>169.923647</ele>
        <time>2023-01-05T11:29:35.940Z</time>
      </trkpt>
      <trkpt lat="43.23607" lon="2.25313">
        <ele>169.981373</ele>
        <time>2023-01-05T11:29:39.931Z</time>
      </trkpt>
      <trkpt lat="43.23617" lon="2.25313">
        <ele>170.034194</ele>
        <time>2023-01-05T11:29:43.942Z</time>
      </trkpt>
      <trkpt lat="43.23627" lon="2.25313">
        <ele>170.08916</ele>
        <time>2023-01-05T11:29:48.923Z</time>
      </trkpt>
      <trkpt lat="43.23634" lon="2.25304">
        <ele>170.144038</ele>
        <time>2023-01-05T11:30:10.916Z</time>
      </trkpt>
      <trkpt lat="43.23637" lon="2.2529">
        <ele>170.201505</ele>
        <time>2023-01-05T11:30:16.921Z</time>
      </trkpt>
      <trkpt lat="43.23639" lon="2.25278">
        <ele>170.253535</ele>
        <time>2023-01-05T11:30:20.936Z</time>
      </trkpt>
      <trkpt lat="43.23631" lon="2.25269">
        <ele>170.308865</ele>
        <time>2023-01-05T11:30:27.932Z</time>
      </trkpt>
      <trkpt lat="43.23621" lon="2.25269">
        <ele>170.364966</ele>
        <time>2023-01-05T11:30:30.915Z</time>
      </trkpt>
      <trkpt lat="43.23612" lon="2.25269">
        <ele>170.41446</ele>
        <time>2023-01-05T11:30:33.942Z</time>
      </trkpt>
      <trkpt lat="43.23603" lon="2.25264">
        <ele>170.465796</ele>
        <time>2023-01-05T11:30:36.925Z</time>
      </trkpt>
      <trkpt lat="43.23594" lon="2.25262">
        <ele>170.518021</ele>
        <time>2023-01-05T11:30:40.912Z</time>
      </trkpt>
      <trkpt lat="43.23583" lon="2.25262">
        <ele>170.576834</ele>
        <time>2023-01-05T11:30:45.939Z</time>
      </trkpt>
      <trkpt lat="43.23573" lon="2.25258">
        <ele>170.635255</ele>
        <time>2023-01-05T11:30:50.923Z</time>
      </trkpt>
      <trkpt lat="43.23563" lon="2.25254">
        <ele>170.708128</ele>
        <time>2023-01-05T11:30:55.920Z</time>
      </trkpt>
      <trkpt lat="43.23555" lon="2.25246">
        <ele>170.781601</ele>
        <time>2023-01-05T11:31:00.916Z</time>
      </trkpt>
      <trkpt lat="43.23548" lon="2.25237">
        <ele>170.853502</ele>
        <time>2023-01-05T11:31:04.937Z</time>
      </trkpt>
      <trkpt lat="43.23543" lon="2.25225">
        <ele>170.92416</ele>
        <time>2023-01-05T11:31:08.927Z</time>
      </trkpt>
      <trkpt lat="43.23542" lon="2.25212">
        <ele>170.995129</ele>
        <time>2023-01-05T11:31:12.942Z</time>
      </trkpt>
      <trkpt lat="43.23541" lon="2.25199">
        <ele>171.068685</ele>
        <time>2023-01-05T11:31:16.940Z</time>
      </trkpt>
      <trkpt lat="43.23539" lon="2.25186">
        <ele>171.139654</ele>
        <time>2023-01-05T11:31:20.920Z</time>
      </trkpt>
      <trkpt lat="43.23539" lon="2.25172">
        <ele>171.217592</ele>
        <time>2023-01-05T11:31:24.925Z</time>
      </trkpt>
      <trkpt lat="43.23539" lon="2.25156">
        <ele>171.299831</ele>
        <time>2023-01-05T11:31:28.944Z</time>
      </trkpt>
      <trkpt lat="43.23542" lon="2.25144">
        <ele>171.372554</ele>
        <time>2023-01-05T11:31:32.933Z</time>
      </trkpt>
      <trkpt lat="43.23545" lon="2.25129">
        <ele>171.452447</ele>
        <time>2023-01-05T11:31:36.918Z</time>
      </trkpt>
      <trkpt lat="43.23547" lon="2.25117">
        <ele>171.522554</ele>
        <time>2023-01-05T11:31:39.944Z</time>
      </trkpt>
      <trkpt lat="43.23549" lon="2.25104">
        <ele>171.593455</ele>
        <time>2023-01-05T11:31:42.933Z</time>
      </trkpt>
      <trkpt lat="43.23552" lon="2.25092">
        <ele>171.662348</ele>
        <time>2023-01-05T11:31:45.919Z</time>
      </trkpt>
      <trkpt lat="43.23554" lon="2.25077">
        <ele>171.743111</ele>
        <time>2023-01-05T11:31:49.942Z</time>
      </trkpt>
      <trkpt lat="43.23557" lon="2.25064">
        <ele>171.818351</ele>
        <time>2023-01-05T11:31:53.925Z</time>
      </trkpt>
      <trkpt lat="43.2356" lon="2.25052">
        <ele>171.886277</ele>
        <time>2023-01-05T11:31:57.942Z</time>
      </trkpt>
      <trkpt lat="43.23562" lon="2.25039">
        <ele>171.959972</ele>
        <time>2023-01-05T11:32:01.941Z</time>
      </trkpt>
      <trkpt lat="43.23563" lon="2.25025">
        <ele>171.946777</ele>
        <time>2023-01-05T11:32:04.937Z</time>
      </trkpt>
      <trkpt lat="43.23564" lon="2.25009">
        <ele>171.877111</ele>
        <time>2023-01-05T11:32:08.942Z</time>
      </trkpt>
      <trkpt lat="43.23565" lon="2.24994">
        <ele>171.812334</ele>
        <time>2023-01-05T11:32:12.934Z</time>
      </trkpt>
      <trkpt lat="43.23565" lon="2.24979">
        <ele>171.745162</ele>
        <time>2023-01-05T11:32:16.940Z</time>
      </trkpt>
      <trkpt lat="43.23566" lon="2.24966">
        <ele>171.690798</ele>
        <time>2023-01-05T11:32:19.941Z</time>
      </trkpt>
      <trkpt lat="43.23565" lon="2.24953">
        <ele>171.63558</ele>
        <time>2023-01-05T11:32:22.946Z</time>
      </trkpt>
      <trkpt lat="43.23565" lon="2.24938">
        <ele>171.573544</ele>
        <time>2023-01-05T11:32:26.935Z</time>
      </trkpt>
      <trkpt lat="43.23564" lon="2.24926">
        <ele>171.520509</ele>
        <time>2023-01-05T11:32:29.935Z</time>
      </trkpt>
      <trkpt lat="43.23563" lon="2.24912">
        <ele>171.457649</ele>
        <time>2023-01-05T11:32:32.937Z</time>
      </trkpt>
      <trkpt lat="43.23562" lon="2.24899">
        <ele>171.404054</ele>
        <time>2023-01-05T11:32:35.937Z</time>
      </trkpt>
      <trkpt lat="43.23561" lon="2.24884">
        <ele>171.340627</ele>
        <time>2023-01-05T11:32:39.940Z</time>
      </trkpt>
      <trkpt lat="43.23559" lon="2.24869">
        <ele>171.274074</ele>
        <time>2023-01-05T11:32:43.945Z</time>
      </trkpt>
      <trkpt lat="43.23557" lon="2.24853">
        <ele>171.203028</ele>
        <time>2023-01-05T11:32:47.944Z</time>
      </trkpt>
      <trkpt lat="43.23556" lon="2.24839">
        <ele>171.144653</ele>
        <time>2023-01-05T11:32:51.936Z</time>
      </trkpt>
      <trkpt lat="43.23554" lon="2.24824">
        <ele>171.079784</ele>
        <time>2023-01-05T11:32:55.940Z</time>
      </trkpt>
      <trkpt lat="43.23551" lon="2.24809">
        <ele>171.011029</ele>
        <time>2023-01-05T11:32:59.940Z</time>
      </trkpt>
      <trkpt lat="43.2355" lon="2.24793">
        <ele>170.942083</ele>
        <time>2023-01-05T11:33:03.940Z</time>
      </trkpt>
      <trkpt lat="43.23548" lon="2.24779">
        <ele>170.919706</ele>
        <time>2023-01-05T11:33:06.918Z</time>
      </trkpt>
      <trkpt lat="43.23545" lon="2.24767">
        <ele>170.909978</ele>
        <time>2023-01-05T11:33:09.942Z</time>
      </trkpt>
      <trkpt lat="43.23542" lon="2.24752">
        <ele>170.898561</ele>
        <time>2023-01-05T11:33:13.940Z</time>
      </trkpt>
      <trkpt lat="43.2354" lon="2.2474">
        <ele>170.888477</ele>
        <time>2023-01-05T11:33:17.939Z</time>
      </trkpt>
      <trkpt lat="43.23538" lon="2.24727">
        <ele>170.878796</ele>
        <time>2023-01-05T11:33:21.941Z</time>
      </trkpt>
      <trkpt lat="43.23536" lon="2.24714">
        <ele>170.868409</ele>
        <time>2023-01-05T11:33:25.941Z</time>
      </trkpt>
      <trkpt lat="43.23533" lon="2.247">
        <ele>170.857249</ele>
        <time>2023-01-05T11:33:29.942Z</time>
      </trkpt>
      <trkpt lat="43.23531" lon="2.24688">
        <ele>170.847808</ele>
        <time>2023-01-05T11:33:33.923Z</time>
      </trkpt>
      <trkpt lat="43.23528" lon="2.24673">
        <ele>170.836199</ele>
        <time>2023-01-05T11:33:37.941Z</time>
      </trkpt>
      <trkpt lat="43.23525" lon="2.24658">
        <ele>170.82462</ele>
        <time>2023-01-05T11:33:41.936Z</time>
      </trkpt>
      <trkpt lat="43.23521" lon="2.24644">
        <ele>170.813049</ele>
        <time>2023-01-05T11:33:45.936Z</time>
      </trkpt>
      <trkpt lat="43.23517" lon="2.24631">
        <ele>170.801979</ele>
        <time>2023-01-05T11:33:48.920Z</time>
      </trkpt>
      <trkpt lat="43.23513" lon="2.24616">
        <ele>170.790406</ele>
        <time>2023-01-05T11:33:51.933Z</time>
      </trkpt>
      <trkpt lat="43.23508" lon="2.24601">
        <ele>170.777285</ele>
        <time>2023-01-05T11:33:54.925Z</time>
      </trkpt>
      <trkpt lat="43.23502" lon="2.24588">
        <ele>170.76574</ele>
        <time>2023-01-05T11:33:57.942Z</time>
      </trkpt>
      <trkpt lat="43.23495" lon="2.24577">
        <ele>170.754675</ele>
        <time>2023-01-05T11:34:00.921Z</time>
      </trkpt>
      <trkpt lat="43.2349" lon="2.24565">
        <ele>170.744335</ele>
        <time>2023-01-05T11:34:03.917Z</time>
      </trkpt>
      <trkpt lat="43.23486" lon="2.24554">
        <ele>170.688963</ele>
        <time>2023-01-05T11:34:06.938Z</time>
      </trkpt>
      <trkpt lat="43.23482" lon="2.24542">
        <ele>170.584023</ele>
        <time>2023-01-05T11:34:09.940Z</time>
      </trkpt>
      <trkpt lat="43.23479" lon="2.2453">
        <ele>170.477595</ele>
        <time>2023-01-05T11:34:12.943Z</time>
      </trkpt>
      <trkpt lat="43.23476" lon="2.24517">
        <ele>170.364405</ele>
        <time>2023-01-05T11:34:15.916Z</time>
      </trkpt>
      <trkpt lat="43.23472" lon="2.24503">
        <ele>170.247649</ele>
        <time>2023-01-05T11:34:18.940Z</time>
      </trkpt>
      <trkpt lat="43.23468" lon="2.2449">
        <ele>170.130758</ele>
        <time>2023-01-05T11:34:21.918Z</time>
      </trkpt>
      <trkpt lat="43.23461" lon="2.24476">
        <ele>169.995762</ele>
        <time>2023-01-05T11:34:24.939Z</time>
      </trkpt>
      <trkpt lat="43.23455" lon="2.24463">
        <ele>169.870121</ele>
        <time>2023-01-05T11:34:27.931Z</time>
      </trkpt>
      <trkpt lat="43.23449" lon="2.24451">
        <ele>169.748577</ele>
        <time>2023-01-05T11:34:30.913Z</time>
      </trkpt>
      <trkpt lat="43.23445" lon="2.2444">
        <ele>169.645034</ele>
        <time>2023-01-05T11:34:33.919Z</time>
      </trkpt>
      <trkpt lat="43.23437" lon="2.2443">
        <ele>169.531559</ele>
        <time>2023-01-05T11:34:37.928Z</time>
      </trkpt>
      <trkpt lat="43.23429" lon="2.24423">
        <ele>169.424505</ele>
        <time>2023-01-05T11:34:41.916Z</time>
      </trkpt>
      <trkpt lat="43.23422" lon="2.24414">
        <ele>169.320879</ele>
        <time>2023-01-05T11:34:45.932Z</time>
      </trkpt>
      <trkpt lat="43.23413" lon="2.24405">
        <ele>169.190833</ele>
        <time>2023-01-05T11:34:49.942Z</time>
      </trkpt>
      <trkpt lat="43.23403" lon="2.24397">
        <ele>169.065541</ele>
        <time>2023-01-05T11:34:53.923Z</time>
      </trkpt>
      <trkpt lat="43.23393" lon="2.24391">
        <ele>168.94933</ele>
        <time>2023-01-05T11:34:57.928Z</time>
      </trkpt>
      <trkpt lat="43.23382" lon="2.24385">
        <ele>168.812367</ele>
        <time>2023-01-05T11:35:01.916Z</time>
      </trkpt>
      <trkpt lat="43.23372" lon="2.24382">
        <ele>168.789394</ele>
        <time>2023-01-05T11:35:04.925Z</time>
      </trkpt>
      <trkpt lat="43.23362" lon="2.24382">
        <ele>168.966059</ele>
        <time>2023-01-05T11:35:07.918Z</time>
      </trkpt>
      <trkpt lat="43.23352" lon="2.24383">
        <ele>169.136266</ele>
        <time>2023-01-05T11:35:10.920Z</time>
      </trkpt>
      <trkpt lat="43.23341" lon="2.24385">
        <ele>169.332611</ele>
        <time>2023-01-05T11:35:14.946Z</time>
      </trkpt>
      <trkpt lat="43.2333" lon="2.2439">
        <ele>169.519071</ele>
        <time>2023-01-05T11:35:17.922Z</time>
      </trkpt>
      <trkpt lat="43.23321" lon="2.24394">
        <ele>169.678709</ele>
        <time>2023-01-05T11:35:20.931Z</time>
      </trkpt>
      <trkpt lat="43.23311" lon="2.24397">
        <ele>169.862758</ele>
        <time>2023-01-05T11:35:25.941Z</time>
      </trkpt>
      <trkpt lat="43.233" lon="2.24402">
        <ele>170.05931</ele>
        <time>2023-01-05T11:35:30.940Z</time>
      </trkpt>
      <trkpt lat="43.23289" lon="2.24407">
        <ele>170.261922</ele>
        <time>2023-01-05T11:35:34.939Z</time>
      </trkpt>
      <trkpt lat="43.2328" lon="2.2441">
        <ele>170.420934</ele>
        <time>2023-01-05T11:35:38.932Z</time>
      </trkpt>
      <trkpt lat="43.23271" lon="2.24414">
        <ele>170.583934</ele>
        <time>2023-01-05T11:35:42.918Z</time>
      </trkpt>
      <trkpt lat="43.2326" lon="2.24416">
        <ele>170.767837</ele>
        <time>2023-01-05T11:35:47.918Z</time>
      </trkpt>
      <trkpt lat="43.2325" lon="2.2442">
        <ele>170.953611</ele>
        <time>2023-01-05T11:35:51.922Z</time>
      </trkpt>
      <trkpt lat="43.23239" lon="2.24422">
        <ele>171.145626</ele>
        <time>2023-01-05T11:35:55.937Z</time>
      </trkpt>
      <trkpt lat="43.23227" lon="2.24425">
        <ele>171.34346</ele>
        <time>2023-01-05T11:35:59.920Z</time>
      </trkpt>
      <trkpt lat="43.23218" lon="2.24428">
        <ele>171.504439</ele>
        <time>2023-01-05T11:36:03.919Z</time>
      </trkpt>
      <trkpt lat="43.23209" lon="2.24431">
        <ele>171.668286</ele>
        <time>2023-01-05T11:36:07.942Z</time>
      </trkpt>
      <trkpt lat="43.23199" lon="2.24432">
        <ele>171.801348</ele>
        <time>2023-01-05T11:36:11.914Z</time>
      </trkpt>
      <trkpt lat="43.23188" lon="2.24435">
        <ele>171.681925</ele>
        <time>2023-01-05T11:36:15.921Z</time>
      </trkpt>
      <trkpt lat="43.23177" lon="2.24438">
        <ele>171.549273</ele>
        <time>2023-01-05T11:36:19.938Z</time>
      </trkpt>
      <trkpt lat="43.23167" lon="2.24441">
        <ele>171.429563</ele>
        <time>2023-01-05T11:36:24.924Z</time>
      </trkpt>
      <trkpt lat="43.23157" lon="2.24445">
        <ele>171.306787</ele>
        <time>2023-01-05T11:36:29.922Z</time>
      </trkpt>
      <trkpt lat="43.23146" lon="2.2445">
        <ele>171.178812</ele>
        <time>2023-01-05T11:36:33.925Z</time>
      </trkpt>
      <trkpt lat="43.23137" lon="2.24452">
        <ele>171.072582</ele>
        <time>2023-01-05T11:36:36.949Z</time>
      </trkpt>
      <trkpt lat="43.23127" lon="2.24459">
        <ele>170.940668</ele>
        <time>2023-01-05T11:36:40.918Z</time>
      </trkpt>
      <trkpt lat="43.23118" lon="2.24466">
        <ele>170.818585</ele>
        <time>2023-01-05T11:36:44.928Z</time>
      </trkpt>
      <trkpt lat="43.23109" lon="2.24473">
        <ele>170.700495</ele>
        <time>2023-01-05T11:36:49.920Z</time>
      </trkpt>
      <trkpt lat="43.23101" lon="2.24479">
        <ele>170.594322</ele>
        <time>2023-01-05T11:36:57.934Z</time>
      </trkpt>
      <trkpt lat="43.23092" lon="2.24485">
        <ele>170.486955</ele>
        <time>2023-01-05T11:37:07.919Z</time>
      </trkpt>
      <trkpt lat="43.23083" lon="2.2449">
        <ele>170.369052</ele>
        <time>2023-01-05T11:37:20.921Z</time>
      </trkpt>
      <trkpt lat="43.23074" lon="2.24496">
        <ele>170.257228</ele>
        <time>2023-01-05T11:37:24.920Z</time>
      </trkpt>
      <trkpt lat="43.23066" lon="2.24504">
        <ele>170.139935</ele>
        <time>2023-01-05T11:37:28.924Z</time>
      </trkpt>
      <trkpt lat="43.23057" lon="2.24511">
        <ele>170.028516</ele>
        <time>2023-01-05T11:37:32.938Z</time>
      </trkpt>
      <trkpt lat="43.23048" lon="2.24518">
        <ele>169.901358</ele>
        <time>2023-01-05T11:37:36.947Z</time>
      </trkpt>
      <trkpt lat="43.23039" lon="2.24526">
        <ele>169.787458</ele>
        <time>2023-01-05T11:37:40.937Z</time>
      </trkpt>
      <trkpt lat="43.2303" lon="2.24532">
        <ele>169.661184</ele>
        <time>2023-01-05T11:37:44.941Z</time>
      </trkpt>
      <trkpt lat="43.23022" lon="2.24538">
        <ele>169.549285</ele>
        <time>2023-01-05T11:37:47.941Z</time>
      </trkpt>
      <trkpt lat="43.23013" lon="2.24542">
        <ele>169.44015</ele>
        <time>2023-01-05T11:37:51.937Z</time>
      </trkpt>
      <trkpt lat="43.23005" lon="2.24548">
        <ele>169.322156</ele>
        <time>2023-01-05T11:37:55.941Z</time>
      </trkpt>
      <trkpt lat="43.22996" lon="2.24553">
        <ele>169.205242</ele>
        <time>2023-01-05T11:37:59.921Z</time>
      </trkpt>
      <trkpt lat="43.22987" lon="2.24557">
        <ele>169.087329</ele>
        <time>2023-01-05T11:38:03.932Z</time>
      </trkpt>
      <trkpt lat="43.22975" lon="2.24558">
        <ele>168.950425</ele>
        <time>2023-01-05T11:38:07.918Z</time>
      </trkpt>
      <trkpt lat="43.22964" lon="2.24556">
        <ele>168.814482</ele>
        <time>2023-01-05T11:38:12.920Z</time>
      </trkpt>
      <trkpt lat="43.22955" lon="2.24553">
        <ele>168.701672</ele>
        <time>2023-01-05T11:38:16.919Z</time>
      </trkpt>
      <trkpt lat="43.22945" lon="2.2455">
        <ele>168.57895</ele>
        <time>2023-01-05T11:38:20.926Z</time>
      </trkpt>
      <trkpt lat="43.22936" lon="2.24542">
        <ele>168.440969</ele>
        <time>2023-01-05T11:38:24.925Z</time>
      </trkpt>
      <trkpt lat="43.22928" lon="2.24532">
        <ele>168.308927</ele>
        <time>2023-01-05T11:38:28.942Z</time>
      </trkpt>
      <trkpt lat="43.22922" lon="2.24523">
        <ele>168.19882</ele>
        <time>2023-01-05T11:38:32.941Z</time>
      </trkpt>
      <trkpt lat="43.22918" lon="2.24509">
        <ele>168.071238</ele>
        <time>2023-01-05T11:38:36.938Z</time>
      </trkpt>
      <trkpt lat="43.22916" lon="2.24495">
        <ele>167.937829</ele>
        <time>2023-01-05T11:38:41.924Z</time>
      </trkpt>
      <trkpt lat="43.22916" lon="2.24482">
        <ele>167.822141</ele>
        <time>2023-01-05T11:38:59.921Z</time>
      </trkpt>
      <trkpt lat="43.22918" lon="2.24469">
        <ele>167.706348</ele>
        <time>2023-01-05T11:39:04.918Z</time>
      </trkpt>
      <trkpt lat="43.22921" lon="2.24455">
        <ele>167.580008</ele>
        <time>2023-01-05T11:39:08.940Z</time>
      </trkpt>
      <trkpt lat="43.22923" lon="2.24441">
        <ele>167.706918</ele>
        <time>2023-01-05T11:39:12.920Z</time>
      </trkpt>
      <trkpt lat="43.22926" lon="2.24427">
        <ele>167.909117</ele>
        <time>2023-01-05T11:39:16.931Z</time>
      </trkpt>
      <trkpt lat="43.22929" lon="2.24414">
        <ele>168.09484</ele>
        <time>2023-01-05T11:39:20.918Z</time>
      </trkpt>
      <trkpt lat="43.22931" lon="2.24402">
        <ele>168.268496</ele>
        <time>2023-01-05T11:39:24.919Z</time>
      </trkpt>
      <trkpt lat="43.22934" lon="2.24389">
        <ele>168.463944</ele>
        <time>2023-01-05T11:39:29.940Z</time>
      </trkpt>
      <trkpt lat="43.22937" lon="2.24376">
        <ele>168.646121</ele>
        <time>2023-01-05T11:39:35.921Z</time>
      </trkpt>
      <trkpt lat="43.22936" lon="2.24363">
        <ele>168.834854</ele>
        <time>2023-01-05T11:39:40.932Z</time>
      </trkpt>
      <trkpt lat="43.22936" lon="2.2435">
        <ele>169.01383</ele>
        <time>2023-01-05T11:39:44.919Z</time>
      </trkpt>
      <trkpt lat="43.22937" lon="2.24335">
        <ele>169.213497</ele>
        <time>2023-01-05T11:39:48.918Z</time>
      </trkpt>
      <trkpt lat="43.22937" lon="2.24322">
        <ele>169.399369</ele>
        <time>2023-01-05T11:39:52.919Z</time>
      </trkpt>
      <trkpt lat="43.22937" lon="2.24307">
        <ele>169.603282</ele>
        <time>2023-01-05T11:39:56.936Z</time>
      </trkpt>
      <trkpt lat="43.22937" lon="2.24293">
        <ele>169.799196</ele>
        <time>2023-01-05T11:40:00.935Z</time>
      </trkpt>
      <trkpt lat="43.22936" lon="2.2428">
        <ele>169.986929</ele>
        <time>2023-01-05T11:40:04.945Z</time>
      </trkpt>
      <trkpt lat="43.22934" lon="2.24265">
        <ele>170.192994</ele>
        <time>2023-01-05T11:40:08.938Z</time>
      </trkpt>
      <trkpt lat="43.22932" lon="2.24252">
        <ele>170.381998</ele>
        <time>2023-01-05T11:40:12.942Z</time>
      </trkpt>
      <trkpt lat="43.2293" lon="2.24238">
        <ele>170.575827</ele>
        <time>2023-01-05T11:40:16.937Z</time>
      </trkpt>
      <trkpt lat="43.22929" lon="2.24226">
        <ele>170.74851</ele>
        <time>2023-01-05T11:40:20.926Z</time>
      </trkpt>
      <trkpt lat="43.22927" lon="2.24209">
        <ele>170.97603</ele>
        <time>2023-01-05T11:40:25.940Z</time>
      </trkpt>
      <trkpt lat="43.22926" lon="2.24196">
        <ele>170.896487</ele>
        <time>2023-01-05T11:40:29.935Z</time>
      </trkpt>
      <trkpt lat="43.22925" lon="2.24183">
        <ele>170.819911</ele>
        <time>2023-01-05T11:40:33.943Z</time>
      </trkpt>
      <trkpt lat="43.22923" lon="2.24168">
        <ele>170.729516</ele>
        <time>2023-01-05T11:40:38.921Z</time>
      </trkpt>
      <trkpt lat="43.22922" lon="2.24152">
        <ele>170.635754</ele>
        <time>2023-01-05T11:40:43.931Z</time>
      </trkpt>
      <trkpt lat="43.2292" lon="2.24138">
        <ele>170.549513</ele>
        <time>2023-01-05T11:40:47.940Z</time>
      </trkpt>
      <trkpt lat="43.22918" lon="2.24125">
        <ele>170.468839</ele>
        <time>2023-01-05T11:40:52.922Z</time>
      </trkpt>
      <trkpt lat="43.22918" lon="2.2411">
        <ele>170.381219</ele>
        <time>2023-01-05T11:40:56.917Z</time>
      </trkpt>
      <trkpt lat="43.22916" lon="2.24096">
        <ele>170.296443</ele>
        <time>2023-01-05T11:41:00.938Z</time>
      </trkpt>
      <trkpt lat="43.22916" lon="2.24083">
        <ele>170.221739</ele>
        <time>2023-01-05T11:41:04.923Z</time>
      </trkpt>
      <trkpt lat="43.22916" lon="2.24069">
        <ele>170.137122</ele>
        <time>2023-01-05T11:41:09.927Z</time>
      </trkpt>
      <trkpt lat="43.22917" lon="2.24056">
        <ele>170.059275</ele>
        <time>2023-01-05T11:41:14.937Z</time>
      </trkpt>
      <trkpt lat="43.22919" lon="2.24041">
        <ele>169.969058</ele>
        <time>2023-01-05T11:41:19.927Z</time>
      </trkpt>
      <trkpt lat="43.2292" lon="2.24028">
        <ele>169.894109</ele>
        <time>2023-01-05T11:41:23.921Z</time>
      </trkpt>
      <trkpt lat="43.22923" lon="2.24014">
        <ele>169.809405</ele>
        <time>2023-01-05T11:41:27.945Z</time>
      </trkpt>
      <trkpt lat="43.22927" lon="2.24001">
        <ele>169.726141</ele>
        <time>2023-01-05T11:41:31.923Z</time>
      </trkpt>
      <trkpt lat="43.22931" lon="2.23987">
        <ele>169.636088</ele>
        <time>2023-01-05T11:41:35.938Z</time>
      </trkpt>
      <trkpt lat="43.22934" lon="2.23973">
        <ele>169.549185</ele>
        <time>2023-01-05T11:41:39.946Z</time>
      </trkpt>
      <trkpt lat="43.2294" lon="2.23962">
        <ele>169.516648</ele>
        <time>2023-01-05T11:41:44.922Z</time>
      </trkpt>
      <trkpt lat="43.22945" lon="2.23948">
        <ele>169.518757</ele>
        <time>2023-01-05T11:41:48.919Z</time>
      </trkpt>
      <trkpt lat="43.22949" lon="2.23936">
        <ele>169.52044</ele>
        <time>2023-01-05T11:41:51.923Z</time>
      </trkpt>
      <trkpt lat="43.22953" lon="2.23925">
        <ele>169.522137</ele>
        <time>2023-01-05T11:41:54.937Z</time>
      </trkpt>
      <trkpt lat="43.22957" lon="2.23911">
        <ele>169.524078</ele>
        <time>2023-01-05T11:41:58.939Z</time>
      </trkpt>
      <trkpt lat="43.22962" lon="2.23901">
        <ele>169.525778</ele>
        <time>2023-01-05T11:42:02.934Z</time>
      </trkpt>
      <trkpt lat="43.22968" lon="2.2389">
        <ele>169.52753</ele>
        <time>2023-01-05T11:42:06.923Z</time>
      </trkpt>
      <trkpt lat="43.22974" lon="2.23879">
        <ele>169.529389</ele>
        <time>2023-01-05T11:42:10.922Z</time>
      </trkpt>
      <trkpt lat="43.2298" lon="2.23868">
        <ele>169.531224</ele>
        <time>2023-01-05T11:42:14.931Z</time>
      </trkpt>
      <trkpt lat="43.22985" lon="2.23857">
        <ele>169.532954</ele>
        <time>2023-01-05T11:42:18.937Z</time>
      </trkpt>
      <trkpt lat="43.22992" lon="2.23845">
        <ele>169.534956</ele>
        <time>2023-01-05T11:42:23.930Z</time>
      </trkpt>
      <trkpt lat="43.22997" lon="2.23833">
        <ele>169.536843</ele>
        <time>2023-01-05T11:42:27.922Z</time>
      </trkpt>
      <trkpt lat="43.23004" lon="2.23822">
        <ele>169.538732</ele>
        <time>2023-01-05T11:42:31.941Z</time>
      </trkpt>
      <trkpt lat="43.2301" lon="2.23811">
        <ele>169.540567</ele>
        <time>2023-01-05T11:42:36.918Z</time>
      </trkpt>
      <trkpt lat="43.23016" lon="2.23801">
        <ele>169.542299</ele>
        <time>2023-01-05T11:42:41.938Z</time>
      </trkpt>
      <trkpt lat="43.23022" lon="2.2379">
        <ele>169.544015</ele>
        <time>2023-01-05T11:42:46.939Z</time>
      </trkpt>
      <trkpt lat="43.23027" lon="2.23778">
        <ele>169.545939</ele>
        <time>2023-01-05T11:42:51.919Z</time>
      </trkpt>
      <trkpt lat="43.23034" lon="2.23766">
        <ele>169.547956</ele>
        <time>2023-01-05T11:42:56.927Z</time>
      </trkpt>
      <trkpt lat="43.2304" lon="2.23755">
        <ele>169.594338</ele>
        <time>2023-01-05T11:43:00.929Z</time>
      </trkpt>
      <trkpt lat="43.23047" lon="2.23742">
        <ele>169.657853</ele>
        <time>2023-01-05T11:43:05.934Z</time>
      </trkpt>
      <trkpt lat="43.23052" lon="2.23732">
        <ele>169.708142</ele>
        <time>2023-01-05T11:43:09.941Z</time>
      </trkpt>
      <trkpt lat="43.23058" lon="2.23722">
        <ele>169.76174</ele>
        <time>2023-01-05T11:43:13.941Z</time>
      </trkpt>
      <trkpt lat="43.23063" lon="2.23711">
        <ele>169.815984</ele>
        <time>2023-01-05T11:43:18.929Z</time>
      </trkpt>
      <trkpt lat="43.23069" lon="2.23699">
        <ele>169.874236</ele>
        <time>2023-01-05T11:43:23.941Z</time>
      </trkpt>
      <trkpt lat="43.23074" lon="2.23688">
        <ele>169.927864</ele>
        <time>2023-01-05T11:43:27.936Z</time>
      </trkpt>
      <trkpt lat="43.2308" lon="2.23678">
        <ele>169.979482</ele>
        <time>2023-01-05T11:43:32.921Z</time>
      </trkpt>
      <trkpt lat="43.23086" lon="2.23667">
        <ele>170.036054</ele>
        <time>2023-01-05T11:43:37.913Z</time>
      </trkpt>
      <trkpt lat="43.23092" lon="2.23654">
        <ele>170.099584</ele>
        <time>2023-01-05T11:43:42.923Z</time>
      </trkpt>
      <trkpt lat="43.23098" lon="2.23643">
        <ele>170.155174</ele>
        <time>2023-01-05T11:43:46.933Z</time>
      </trkpt>
      <trkpt lat="43.23104" lon="2.23632">
        <ele>170.210743</ele>
        <time>2023-01-05T11:43:51.929Z</time>
      </trkpt>
      <trkpt lat="43.2311" lon="2.23621">
        <ele>170.269375</ele>
        <time>2023-01-05T11:43:57.925Z</time>
      </trkpt>
      <trkpt lat="43.23115" lon="2.23608">
        <ele>170.329349</ele>
        <time>2023-01-05T11:44:03.924Z</time>
      </trkpt>
      <trkpt lat="43.23121" lon="2.23597">
        <ele>170.384265</ele>
        <time>2023-01-05T11:44:08.915Z</time>
      </trkpt>
      <trkpt lat="43.23128" lon="2.23585">
        <ele>170.447452</ele>
        <time>2023-01-05T11:44:13.940Z</time>
      </trkpt>
      <trkpt lat="43.23135" lon="2.23572">
        <ele>170.509972</ele>
        <time>2023-01-05T11:44:18.938Z</time>
      </trkpt>
      <trkpt lat="43.2314" lon="2.23562">
        <ele>170.552492</ele>
        <time>2023-01-05T11:44:22.929Z</time>
      </trkpt>
      <trkpt lat="43.23145" lon="2.23552">
        <ele>170.493636</ele>
        <time>2023-01-05T11:44:26.937Z</time>
      </trkpt>
      <trkpt lat="43.2315" lon="2.23541">
        <ele>170.434251</ele>
        <time>2023-01-05T11:44:30.925Z</time>
      </trkpt>
      <trkpt lat="43.23156" lon="2.23528">
        <ele>170.363465</ele>
        <time>2023-01-05T11:44:35.940Z</time>
      </trkpt>
      <trkpt lat="43.23162" lon="2.23517">
        <ele>170.298486</ele>
        <time>2023-01-05T11:44:39.943Z</time>
      </trkpt>
      <trkpt lat="43.23167" lon="2.23506">
        <ele>170.23841</ele>
        <time>2023-01-05T11:44:43.917Z</time>
      </trkpt>
      <trkpt lat="43.23172" lon="2.23495">
        <ele>170.174602</ele>
        <time>2023-01-05T11:44:48.922Z</time>
      </trkpt>
      <trkpt lat="43.2318" lon="2.23484">
        <ele>170.102584</ele>
        <time>2023-01-05T11:44:53.937Z</time>
      </trkpt>
      <trkpt lat="43.23186" lon="2.23472">
        <ele>170.034096</ele>
        <time>2023-01-05T11:44:57.942Z</time>
      </trkpt>
      <trkpt lat="43.23192" lon="2.23462">
        <ele>169.974863</ele>
        <time>2023-01-05T11:45:01.941Z</time>
      </trkpt>
      <trkpt lat="43.23199" lon="2.23452">
        <ele>169.909174</ele>
        <time>2023-01-05T11:45:05.945Z</time>
      </trkpt>
      <trkpt lat="43.23207" lon="2.23442">
        <ele>169.836578</ele>
        <time>2023-01-05T11:45:09.943Z</time>
      </trkpt>
      <trkpt lat="43.23214" lon="2.23432">
        <ele>169.768612</ele>
        <time>2023-01-05T11:45:13.921Z</time>
      </trkpt>
      <trkpt lat="43.23222" lon="2.23421">
        <ele>169.697412</ele>
        <time>2023-01-05T11:45:17.931Z</time>
      </trkpt>
      <trkpt lat="43.23229" lon="2.23413">
        <ele>169.638715</ele>
        <time>2023-01-05T11:45:21.916Z</time>
      </trkpt>
      <trkpt lat="43.23238" lon="2.23405">
        <ele>169.568892</ele>
        <time>2023-01-05T11:45:26.935Z</time>
      </trkpt>
      <trkpt lat="43.23247" lon="2.23396">
        <ele>169.500149</ele>
        <time>2023-01-05T11:45:31.920Z</time>
      </trkpt>
      <trkpt lat="43.23255" lon="2.23389">
        <ele>169.433256</ele>
        <time>2023-01-05T11:45:36.918Z</time>
      </trkpt>
      <trkpt lat="43.23265" lon="2.23383">
        <ele>169.461687</ele>
        <time>2023-01-05T11:45:41.935Z</time>
      </trkpt>
      <trkpt lat="43.23273" lon="2.23377">
        <ele>169.633691</ele>
        <time>2023-01-05T11:45:45.920Z</time>
      </trkpt>
      <trkpt lat="43.23281" lon="2.2337">
        <ele>169.805299</ele>
        <time>2023-01-05T11:45:49.944Z</time>
      </trkpt>
      <trkpt lat="43.23292" lon="2.23363">
        <ele>170.007719</ele>
        <time>2023-01-05T11:45:54.926Z</time>
      </trkpt>
      <trkpt lat="43.23302" lon="2.23355">
        <ele>170.217246</ele>
        <time>2023-01-05T11:45:59.917Z</time>
      </trkpt>
      <trkpt lat="43.2331" lon="2.23349">
        <ele>170.379822</ele>
        <time>2023-01-05T11:46:03.941Z</time>
      </trkpt>
      <trkpt lat="43.23318" lon="2.2334">
        <ele>170.572395</ele>
        <time>2023-01-05T11:46:08.943Z</time>
      </trkpt>
      <trkpt lat="43.23325" lon="2.2333">
        <ele>170.755037</ele>
        <time>2023-01-05T11:46:12.925Z</time>
      </trkpt>
      <trkpt lat="43.23331" lon="2.2332">
        <ele>170.917311</ele>
        <time>2023-01-05T11:46:16.929Z</time>
      </trkpt>
      <trkpt lat="43.23336" lon="2.23309">
        <ele>171.088118</ele>
        <time>2023-01-05T11:46:20.944Z</time>
      </trkpt>
      <trkpt lat="43.23341" lon="2.23298">
        <ele>171.264533</ele>
        <time>2023-01-05T11:46:24.920Z</time>
      </trkpt>
      <trkpt lat="43.23346" lon="2.23287">
        <ele>171.432285</ele>
        <time>2023-01-05T11:46:29.939Z</time>
      </trkpt>
      <trkpt lat="43.23351" lon="2.23274">
        <ele>171.619121</ele>
        <time>2023-01-05T11:46:35.937Z</time>
      </trkpt>
      <trkpt lat="43.23355" lon="2.23261">
        <ele>171.806864</ele>
        <time>2023-01-05T11:46:40.941Z</time>
      </trkpt>
      <trkpt lat="43.23357" lon="2.23247">
        <ele>171.992481</ele>
        <time>2023-01-05T11:46:46.930Z</time>
      </trkpt>
      <trkpt lat="43.2336" lon="2.23234">
        <ele>172.158509</ele>
        <time>2023-01-05T11:46:50.932Z</time>
      </trkpt>
      <trkpt lat="43.23363" lon="2.2322">
        <ele>172.359228</ele>
        <time>2023-01-05T11:46:55.942Z</time>
      </trkpt>
      <trkpt lat="43.23365" lon="2.23207">
        <ele>172.534027</ele>
        <time>2023-01-05T11:46:59.934Z</time>
      </trkpt>
      <trkpt lat="43.23367" lon="2.23193">
        <ele>172.538083</ele>
        <time>2023-01-05T11:47:04.923Z</time>
      </trkpt>
      <trkpt lat="43.23369" lon="2.23179">
        <ele>172.420288</ele>
        <time>2023-01-05T11:47:08.933Z</time>
      </trkpt>
      <trkpt lat="43.23369" lon="2.23165">
        <ele>172.29803</ele>
        <time>2023-01-05T11:47:12.917Z</time>
      </trkpt>
      <trkpt lat="43.23368" lon="2.2315">
        <ele>172.176269</ele>
        <time>2023-01-05T11:47:16.917Z</time>
      </trkpt>
      <trkpt lat="43.23367" lon="2.23136">
        <ele>172.052376</ele>
        <time>2023-01-05T11:47:20.915Z</time>
      </trkpt>
      <trkpt lat="43.23365" lon="2.23122">
        <ele>171.935769</ele>
        <time>2023-01-05T11:47:24.920Z</time>
      </trkpt>
      <trkpt lat="43.23364" lon="2.2311">
        <ele>171.828876</ele>
        <time>2023-01-05T11:47:28.934Z</time>
      </trkpt>
      <trkpt lat="43.2336" lon="2.23095">
        <ele>171.696942</ele>
        <time>2023-01-05T11:47:33.917Z</time>
      </trkpt>
      <trkpt lat="43.23353" lon="2.23083">
        <ele>171.567941</ele>
        <time>2023-01-05T11:47:37.928Z</time>
      </trkpt>
      <trkpt lat="43.23348" lon="2.23071">
        <ele>171.446956</ele>
        <time>2023-01-05T11:47:41.941Z</time>
      </trkpt>
      <trkpt lat="43.23341" lon="2.23058">
        <ele>171.315755</ele>
        <time>2023-01-05T11:47:45.942Z</time>
      </trkpt>
      <trkpt lat="43.23334" lon="2.23047">
        <ele>171.184978</ele>
        <time>2023-01-05T11:47:49.924Z</time>
      </trkpt>
      <trkpt lat="43.23328" lon="2.23037">
        <ele>171.073246</ele>
        <time>2023-01-05T11:47:53.928Z</time>
      </trkpt>
      <trkpt lat="43.2332" lon="2.23025">
        <ele>170.944393</ele>
        <time>2023-01-05T11:47:58.921Z</time>
      </trkpt>
      <trkpt lat="43.23313" lon="2.23014">
        <ele>170.810538</ele>
        <time>2023-01-05T11:48:02.925Z</time>
      </trkpt>
      <trkpt lat="43.23306" lon="2.23004">
        <ele>170.701477</ele>
        <time>2023-01-05T11:48:06.943Z</time>
      </trkpt>
      <trkpt lat="43.23298" lon="2.23">
        <ele>170.59153</ele>
        <time>2023-01-05T11:48:12.928Z</time>
      </trkpt>
      <trkpt lat="43.23293" lon="2.23011">
        <ele>170.500269</ele>
        <time>2023-01-05T11:48:17.920Z</time>
      </trkpt>
      <trkpt lat="43.23287" lon="2.23024">
        <ele>170.447142</ele>
        <time>2023-01-05T11:48:23.928Z</time>
      </trkpt>
      <trkpt lat="43.23279" lon="2.23033">
        <ele>170.398671</ele>
        <time>2023-01-05T11:48:28.918Z</time>
      </trkpt>
      <trkpt lat="43.23269" lon="2.23033">
        <ele>170.351179</ele>
        <time>2023-01-05T11:48:34.929Z</time>
      </trkpt>
      <trkpt lat="43.23263" lon="2.23024">
        <ele>170.307596</ele>
        <time>2023-01-05T11:48:38.919Z</time>
      </trkpt>
      <trkpt lat="43.23257" lon="2.23011">
        <ele>170.252567</ele>
        <time>2023-01-05T11:48:42.944Z</time>
      </trkpt>
      <trkpt lat="43.23252" lon="2.23001">
        <ele>170.207274</ele>
        <time>2023-01-05T11:48:45.934Z</time>
      </trkpt>
      <trkpt lat="43.23245" lon="2.2299">
        <ele>170.157321</ele>
        <time>2023-01-05T11:48:48.946Z</time>
      </trkpt>
      <trkpt lat="43.23238" lon="2.22978">
        <ele>170.104051</ele>
        <time>2023-01-05T11:48:51.942Z</time>
      </trkpt>
      <trkpt lat="43.23231" lon="2.22965">
        <ele>170.047612</ele>
        <time>2023-01-05T11:48:54.940Z</time>
      </trkpt>
      <trkpt lat="43.23226" lon="2.22951">
        <ele>169.991598</ele>
        <time>2023-01-05T11:48:57.940Z</time>
      </trkpt>
      <trkpt lat="43.23224" lon="2.22935">
        <ele>169.934712</ele>
        <time>2023-01-05T11:49:00.915Z</time>
      </trkpt>
      <trkpt lat="43.23223" lon="2.22922">
        <ele>169.886739</ele>
        <time>2023-01-05T11:49:03.919Z</time>
      </trkpt>
      <trkpt lat="43.23224" lon="2.22907">
        <ele>169.833836</ele>
        <time>2023-01-05T11:49:07.942Z</time>
      </trkpt>
      <trkpt lat="43.23225" lon="2.2289">
        <ele>169.776491</ele>
        <time>2023-01-05T11:49:11.939Z</time>
      </trkpt>
      <trkpt lat="43.23228" lon="2.22877">
        <ele>169.726938</ele>
        <time>2023-01-05T11:49:16.922Z</time>
      </trkpt>
      <trkpt lat="43.23231" lon="2.22865">
        <ele>169.68339</ele>
        <time>2023-01-05T11:49:35.927Z</time>
      </trkpt>
      <trkpt lat="43.23229" lon="2.22879">
        <ele>169.635835</ele>
        <time>2023-01-05T11:52:03.922Z</time>
      </trkpt>
      <trkpt lat="43.23226" lon="2.22891">
        <ele>169.600924</ele>
        <time>2023-01-05T11:52:07.927Z</time>
      </trkpt>
      <trkpt lat="43.23224" lon="2.22906">
        <ele>169.557004</ele>
        <time>2023-01-05T11:52:11.934Z</time>
      </trkpt>
      <trkpt lat="43.23224" lon="2.22921">
        <ele>169.515171</ele>
        <time>2023-01-05T11:52:16.932Z</time>
      </trkpt>
      <trkpt lat="43.23226" lon="2.22935">
        <ele>169.475173</ele>
        <time>2023-01-05T11:52:20.927Z</time>
      </trkpt>
      <trkpt lat="43.23228" lon="2.22949">
        <ele>169.433956</ele>
        <time>2023-01-05T11:52:24.941Z</time>
      </trkpt>
      <trkpt lat="43.23233" lon="2.22963">
        <ele>169.390563</ele>
        <time>2023-01-05T11:52:28.928Z</time>
      </trkpt>
      <trkpt lat="43.23239" lon="2.22976">
        <ele>169.34782</ele>
        <time>2023-01-05T11:52:32.936Z</time>
      </trkpt>
      <trkpt lat="43.23245" lon="2.22987">
        <ele>169.307617</ele>
        <time>2023-01-05T11:52:36.928Z</time>
      </trkpt>
      <trkpt lat="43.23251" lon="2.22999">
        <ele>169.265794</ele>
        <time>2023-01-05T11:52:40.947Z</time>
      </trkpt>
      <trkpt lat="43.23257" lon="2.2301">
        <ele>169.226969</ele>
        <time>2023-01-05T11:52:44.947Z</time>
      </trkpt>
      <trkpt lat="43.23264" lon="2.2302">
        <ele>169.187844</ele>
        <time>2023-01-05T11:52:48.939Z</time>
      </trkpt>
      <trkpt lat="43.23272" lon="2.23029">
        <ele>169.148647</ele>
        <time>2023-01-05T11:52:53.929Z</time>
      </trkpt>
      <trkpt lat="43.2328" lon="2.23034">
        <ele>169.112491</ele>
        <time>2023-01-05T11:53:00.924Z</time>
      </trkpt>
      <trkpt lat="43.23288" lon="2.23023">
        <ele>169.06945</ele>
        <time>2023-01-05T11:53:06.932Z</time>
      </trkpt>
      <trkpt lat="43.23294" lon="2.23013">
        <ele>169.033364</ele>
        <time>2023-01-05T11:53:11.919Z</time>
      </trkpt>
      <trkpt lat="43.23302" lon="2.23003">
        <ele>168.990974</ele>
        <time>2023-01-05T11:53:16.946Z</time>
      </trkpt>
      <trkpt lat="43.23313" lon="2.2301">
        <ele>168.928704</ele>
        <time>2023-01-05T11:53:19.925Z</time>
      </trkpt>
      <trkpt lat="43.23321" lon="2.23024">
        <ele>168.601144</ele>
        <time>2023-01-05T11:53:21.942Z</time>
      </trkpt>
      <trkpt lat="43.23329" lon="2.23037">
        <ele>168.278773</ele>
        <time>2023-01-05T11:53:23.940Z</time>
      </trkpt>
      <trkpt lat="43.23335" lon="2.23049">
        <ele>167.988898</ele>
        <time>2023-01-05T11:53:25.944Z</time>
      </trkpt>
      <trkpt lat="43.23341" lon="2.2306">
        <ele>167.737662</ele>
        <time>2023-01-05T11:53:27.930Z</time>
      </trkpt>
      <trkpt lat="43.23348" lon="2.23071">
        <ele>167.447364</ele>
        <time>2023-01-05T11:53:30.931Z</time>
      </trkpt>
      <trkpt lat="43.23355" lon="2.23083">
        <ele>167.15141</ele>
        <time>2023-01-05T11:53:33.933Z</time>
      </trkpt>
      <trkpt lat="43.23361" lon="2.23097">
        <ele>166.839959</ele>
        <time>2023-01-05T11:53:37.949Z</time>
      </trkpt>
      <trkpt lat="43.23366" lon="2.23111">
        <ele>166.542535</ele>
        <time>2023-01-05T11:53:41.946Z</time>
      </trkpt>
      <trkpt lat="43.23371" lon="2.23123">
        <ele>166.282442</ele>
        <time>2023-01-05T11:53:45.929Z</time>
      </trkpt>
      <trkpt lat="43.23372" lon="2.23137">
        <ele>166.007676</ele>
        <time>2023-01-05T11:53:49.930Z</time>
      </trkpt>
      <trkpt lat="43.23373" lon="2.23151">
        <ele>165.751985</ele>
        <time>2023-01-05T11:53:52.944Z</time>
      </trkpt>
      <trkpt lat="43.23374" lon="2.23165">
        <ele>165.47216</ele>
        <time>2023-01-05T11:53:55.935Z</time>
      </trkpt>
      <trkpt lat="43.23374" lon="2.23181">
        <ele>165.165079</ele>
        <time>2023-01-05T11:53:58.968Z</time>
      </trkpt>
      <trkpt lat="43.23379" lon="2.23193">
        <ele>164.900346</ele>
        <time>2023-01-05T11:54:00.950Z</time>
      </trkpt>
      <trkpt lat="43.23389" lon="2.232">
        <ele>164.627653</ele>
        <time>2023-01-05T11:54:02.928Z</time>
      </trkpt>
      <trkpt lat="43.23399" lon="2.23206">
        <ele>164.337076</ele>
        <time>2023-01-05T11:54:04.937Z</time>
      </trkpt>
      <trkpt lat="43.23408" lon="2.2321">
        <ele>164.148894</ele>
        <time>2023-01-05T11:54:06.937Z</time>
      </trkpt>
      <trkpt lat="43.23417" lon="2.23213">
        <ele>164.024198</ele>
        <time>2023-01-05T11:54:08.926Z</time>
      </trkpt>
      <trkpt lat="43.23426" lon="2.23217">
        <ele>163.898183</ele>
        <time>2023-01-05T11:54:10.924Z</time>
      </trkpt>
      <trkpt lat="43.23437" lon="2.23222">
        <ele>163.740592</ele>
        <time>2023-01-05T11:54:13.932Z</time>
      </trkpt>
      <trkpt lat="43.23446" lon="2.23226">
        <ele>163.61966</ele>
        <time>2023-01-05T11:54:15.937Z</time>
      </trkpt>
      <trkpt lat="43.23458" lon="2.23232">
        <ele>163.45361</ele>
        <time>2023-01-05T11:54:18.930Z</time>
      </trkpt>
      <trkpt lat="43.2347" lon="2.23237">
        <ele>163.286896</ele>
        <time>2023-01-05T11:54:21.929Z</time>
      </trkpt>
      <trkpt lat="43.23482" lon="2.23244">
        <ele>163.111934</ele>
        <time>2023-01-05T11:54:24.937Z</time>
      </trkpt>
      <trkpt lat="43.23491" lon="2.23248">
        <ele>162.988816</ele>
        <time>2023-01-05T11:54:26.928Z</time>
      </trkpt>
      <trkpt lat="43.235" lon="2.23252">
        <ele>162.862801</ele>
        <time>2023-01-05T11:54:28.927Z</time>
      </trkpt>
      <trkpt lat="43.23509" lon="2.23256">
        <ele>162.738048</ele>
        <time>2023-01-05T11:54:30.935Z</time>
      </trkpt>
      <trkpt lat="43.2352" lon="2.23262">
        <ele>162.572639</ele>
        <time>2023-01-05T11:54:33.948Z</time>
      </trkpt>
      <trkpt lat="43.23533" lon="2.23267">
        <ele>162.402814</ele>
        <time>2023-01-05T11:54:36.930Z</time>
      </trkpt>
      <trkpt lat="43.23544" lon="2.23274">
        <ele>162.238413</ele>
        <time>2023-01-05T11:54:39.931Z</time>
      </trkpt>
      <trkpt lat="43.23555" lon="2.23281">
        <ele>162.081728</ele>
        <time>2023-01-05T11:54:42.926Z</time>
      </trkpt>
      <trkpt lat="43.23565" lon="2.23287">
        <ele>161.93554</ele>
        <time>2023-01-05T11:54:45.927Z</time>
      </trkpt>
      <trkpt lat="43.23575" lon="2.23293">
        <ele>161.889689</ele>
        <time>2023-01-05T11:54:48.923Z</time>
      </trkpt>
      <trkpt lat="43.23582" lon="2.233">
        <ele>162.120966</ele>
        <time>2023-01-05T11:54:51.933Z</time>
      </trkpt>
      <trkpt lat="43.23584" lon="2.23314">
        <ele>162.366743</ele>
        <time>2023-01-05T11:54:56.943Z</time>
      </trkpt>
      <trkpt lat="43.2359" lon="2.23305">
        <ele>162.588486</ele>
        <time>2023-01-05T11:55:05.950Z</time>
      </trkpt>
      <trkpt lat="43.23599" lon="2.233">
        <ele>162.824043</ele>
        <time>2023-01-05T11:55:09.930Z</time>
      </trkpt>
      <trkpt lat="43.23608" lon="2.23297">
        <ele>163.043278</ele>
        <time>2023-01-05T11:55:12.948Z</time>
      </trkpt>
      <trkpt lat="43.23618" lon="2.23295">
        <ele>163.282111</ele>
        <time>2023-01-05T11:55:15.936Z</time>
      </trkpt>
      <trkpt lat="43.23633" lon="2.2329">
        <ele>163.675682</ele>
        <time>2023-01-05T11:56:05.929Z</time>
      </trkpt>
      <trkpt lat="43.23644" lon="2.23283">
        <ele>163.96517</ele>
        <time>2023-01-05T11:56:09.937Z</time>
      </trkpt>
      <trkpt lat="43.23653" lon="2.23278">
        <ele>164.195448</ele>
        <time>2023-01-05T11:56:12.926Z</time>
      </trkpt>
      <trkpt lat="43.23663" lon="2.23272">
        <ele>164.445633</ele>
        <time>2023-01-05T11:56:15.930Z</time>
      </trkpt>
      <trkpt lat="43.23672" lon="2.23267">
        <ele>164.69678</ele>
        <time>2023-01-05T11:56:18.933Z</time>
      </trkpt>
      <trkpt lat="43.23682" lon="2.23261">
        <ele>164.95343</ele>
        <time>2023-01-05T11:56:21.935Z</time>
      </trkpt>
      <trkpt lat="43.23691" lon="2.23254">
        <ele>165.199057</ele>
        <time>2023-01-05T11:56:24.927Z</time>
      </trkpt>
      <trkpt lat="43.237" lon="2.23246">
        <ele>165.466133</ele>
        <time>2023-01-05T11:56:28.923Z</time>
      </trkpt>
      <trkpt lat="43.23711" lon="2.23246">
        <ele>165.720226</ele>
        <time>2023-01-05T11:56:33.925Z</time>
      </trkpt>
      <trkpt lat="43.2372" lon="2.23248">
        <ele>165.944966</ele>
        <time>2023-01-05T11:56:36.927Z</time>
      </trkpt>
      <trkpt lat="43.23731" lon="2.23251">
        <ele>166.186833</ele>
        <time>2023-01-05T11:56:40.929Z</time>
      </trkpt>
      <trkpt lat="43.23742" lon="2.23256">
        <ele>166.255588</ele>
        <time>2023-01-05T11:56:44.926Z</time>
      </trkpt>
      <trkpt lat="43.23752" lon="2.23262">
        <ele>166.323225</ele>
        <time>2023-01-05T11:56:48.935Z</time>
      </trkpt>
      <trkpt lat="43.23762" lon="2.23265">
        <ele>166.381123</ele>
        <time>2023-01-05T11:56:52.950Z</time>
      </trkpt>
      <trkpt lat="43.23773" lon="2.23272">
        <ele>166.450749</ele>
        <time>2023-01-05T11:56:58.928Z</time>
      </trkpt>
      <trkpt lat="43.23779" lon="2.23282">
        <ele>166.509517</ele>
        <time>2023-01-05T11:57:01.925Z</time>
      </trkpt>
      <trkpt lat="43.23788" lon="2.23288">
        <ele>166.568047</ele>
        <time>2023-01-05T11:57:04.927Z</time>
      </trkpt>
      <trkpt lat="43.23797" lon="2.23293">
        <ele>166.626936</ele>
        <time>2023-01-05T11:57:07.926Z</time>
      </trkpt>
      <trkpt lat="43.23807" lon="2.23297">
        <ele>166.68506</ele>
        <time>2023-01-05T11:57:10.938Z</time>
      </trkpt>
      <trkpt lat="43.23816" lon="2.233">
        <ele>166.743476</ele>
        <time>2023-01-05T11:57:13.925Z</time>
      </trkpt>
      <trkpt lat="43.23826" lon="2.23302">
        <ele>166.802184</ele>
        <time>2023-01-05T11:57:16.929Z</time>
      </trkpt>
      <trkpt lat="43.23835" lon="2.23305">
        <ele>166.856805</ele>
        <time>2023-01-05T11:57:19.938Z</time>
      </trkpt>
      <trkpt lat="43.23845" lon="2.23307">
        <ele>166.916682</ele>
        <time>2023-01-05T11:57:22.938Z</time>
      </trkpt>
      <trkpt lat="43.23857" lon="2.23311">
        <ele>166.989517</ele>
        <time>2023-01-05T11:57:26.933Z</time>
      </trkpt>
      <trkpt lat="43.23867" lon="2.23316">
        <ele>167.052413</ele>
        <time>2023-01-05T11:57:29.934Z</time>
      </trkpt>
      <trkpt lat="43.23876" lon="2.23322">
        <ele>167.11218</ele>
        <time>2023-01-05T11:57:32.945Z</time>
      </trkpt>
      <trkpt lat="43.23886" lon="2.23326">
        <ele>167.170691</ele>
        <time>2023-01-05T11:57:35.930Z</time>
      </trkpt>
      <trkpt lat="43.23895" lon="2.23331">
        <ele>167.230292</ele>
        <time>2023-01-05T11:57:38.928Z</time>
      </trkpt>
      <trkpt lat="43.23904" lon="2.23336">
        <ele>167.038648</ele>
        <time>2023-01-05T11:57:41.929Z</time>
      </trkpt>
      <trkpt lat="43.23913" lon="2.2334">
        <ele>166.736792</ele>
        <time>2023-01-05T11:57:45.938Z</time>
      </trkpt>
      <trkpt lat="43.23921" lon="2.23346">
        <ele>166.473813</ele>
        <time>2023-01-05T11:57:49.928Z</time>
      </trkpt>
      <trkpt lat="43.23932" lon="2.23353">
        <ele>166.143579</ele>
        <time>2023-01-05T11:57:53.925Z</time>
      </trkpt>
      <trkpt lat="43.2394" lon="2.23358">
        <ele>165.875338</ele>
        <time>2023-01-05T11:57:56.946Z</time>
      </trkpt>
      <trkpt lat="43.23948" lon="2.23362">
        <ele>165.613518</ele>
        <time>2023-01-05T11:57:59.925Z</time>
      </trkpt>
      <trkpt lat="43.23957" lon="2.23369">
        <ele>165.312462</ele>
        <time>2023-01-05T11:58:02.924Z</time>
      </trkpt>
      <trkpt lat="43.23963" lon="2.23381">
        <ele>165.007475</ele>
        <time>2023-01-05T11:58:05.948Z</time>
      </trkpt>
      <trkpt lat="43.23968" lon="2.23395">
        <ele>164.680859</ele>
        <time>2023-01-05T11:58:08.926Z</time>
      </trkpt>
      <trkpt lat="43.23974" lon="2.2341">
        <ele>164.316788</ele>
        <time>2023-01-05T11:58:11.949Z</time>
      </trkpt>
      <trkpt lat="43.23978" lon="2.23422">
        <ele>164.033549</ele>
        <time>2023-01-05T11:58:13.944Z</time>
      </trkpt>
      <trkpt lat="43.23982" lon="2.23434">
        <ele>163.738012</ele>
        <time>2023-01-05T11:58:15.934Z</time>
      </trkpt>
      <trkpt lat="43.23984" lon="2.23449">
        <ele>163.429742</ele>
        <time>2023-01-05T11:58:17.926Z</time>
      </trkpt>
      <trkpt lat="43.23985" lon="2.23464">
        <ele>163.111399</ele>
        <time>2023-01-05T11:58:19.926Z</time>
      </trkpt>
      <trkpt lat="43.23987" lon="2.23476">
        <ele>162.83765</ele>
        <time>2023-01-05T11:58:21.931Z</time>
      </trkpt>
      <trkpt lat="43.23992" lon="2.23492">
        <ele>162.47181</ele>
        <time>2023-01-05T11:58:24.962Z</time>
      </trkpt>
      <trkpt lat="43.23996" lon="2.23504">
        <ele>162.178194</ele>
        <time>2023-01-05T11:58:27.950Z</time>
      </trkpt>
      <trkpt lat="43.24001" lon="2.23518">
        <ele>161.972485</ele>
        <time>2023-01-05T11:58:31.932Z</time>
      </trkpt>
      <trkpt lat="43.23998" lon="2.2353">
        <ele>161.933532</ele>
        <time>2023-01-05T11:58:34.946Z</time>
      </trkpt>
      <trkpt lat="43.23993" lon="2.23543">
        <ele>161.888942</ele>
        <time>2023-01-05T11:58:37.929Z</time>
      </trkpt>
      <trkpt lat="43.23986" lon="2.23556">
        <ele>161.840099</ele>
        <time>2023-01-05T11:58:40.949Z</time>
      </trkpt>
      <trkpt lat="43.23979" lon="2.2357">
        <ele>161.790469</ele>
        <time>2023-01-05T11:58:43.933Z</time>
      </trkpt>
      <trkpt lat="43.23973" lon="2.23584">
        <ele>161.742454</ele>
        <time>2023-01-05T11:58:46.949Z</time>
      </trkpt>
      <trkpt lat="43.23968" lon="2.23598">
        <ele>161.694829</ele>
        <time>2023-01-05T11:58:49.927Z</time>
      </trkpt>
      <trkpt lat="43.23963" lon="2.23612">
        <ele>161.647557</ele>
        <time>2023-01-05T11:58:52.948Z</time>
      </trkpt>
      <trkpt lat="43.23959" lon="2.23626">
        <ele>161.60045</ele>
        <time>2023-01-05T11:58:55.929Z</time>
      </trkpt>
      <trkpt lat="43.23955" lon="2.23641">
        <ele>161.555111</ele>
        <time>2023-01-05T11:58:58.950Z</time>
      </trkpt>
      <trkpt lat="43.23952" lon="2.23657">
        <ele>161.505407</ele>
        <time>2023-01-05T11:59:01.930Z</time>
      </trkpt>
      <trkpt lat="43.23949" lon="2.23674">
        <ele>161.450451</ele>
        <time>2023-01-05T11:59:04.929Z</time>
      </trkpt>
      <trkpt lat="43.23946" lon="2.23687">
        <ele>161.412236</ele>
        <time>2023-01-05T11:59:06.944Z</time>
      </trkpt>
      <trkpt lat="43.23944" lon="2.23699">
        <ele>161.374729</ele>
        <time>2023-01-05T11:59:08.948Z</time>
      </trkpt>
      <trkpt lat="43.23942" lon="2.23711">
        <ele>161.337134</ele>
        <time>2023-01-05T11:59:10.932Z</time>
      </trkpt>
      <trkpt lat="43.2394" lon="2.23723">
        <ele>161.2999</ele>
        <time>2023-01-05T11:59:12.941Z</time>
      </trkpt>
      <trkpt lat="43.23936" lon="2.23741">
        <ele>161.227429</ele>
        <time>2023-01-05T11:59:15.928Z</time>
      </trkpt>
      <trkpt lat="43.23934" lon="2.23753">
        <ele>160.980576</ele>
        <time>2023-01-05T11:59:17.928Z</time>
      </trkpt>
      <trkpt lat="43.23931" lon="2.23766">
        <ele>160.730796</ele>
        <time>2023-01-05T11:59:19.930Z</time>
      </trkpt>
      <trkpt lat="43.23928" lon="2.23779">
        <ele>160.466164</ele>
        <time>2023-01-05T11:59:21.932Z</time>
      </trkpt>
      <trkpt lat="43.23925" lon="2.23793">
        <ele>160.196008</ele>
        <time>2023-01-05T11:59:23.928Z</time>
      </trkpt>
      <trkpt lat="43.23921" lon="2.23806">
        <ele>159.92514</ele>
        <time>2023-01-05T11:59:25.926Z</time>
      </trkpt>
      <trkpt lat="43.23918" lon="2.2382">
        <ele>159.649765</ele>
        <time>2023-01-05T11:59:27.944Z</time>
      </trkpt>
      <trkpt lat="43.23914" lon="2.23833">
        <ele>159.376436</ele>
        <time>2023-01-05T11:59:29.931Z</time>
      </trkpt>
      <trkpt lat="43.2391" lon="2.23847">
        <ele>159.094918</ele>
        <time>2023-01-05T11:59:31.934Z</time>
      </trkpt>
      <trkpt lat="43.23906" lon="2.23861">
        <ele>158.821393</ele>
        <time>2023-01-05T11:59:33.929Z</time>
      </trkpt>
      <trkpt lat="43.23902" lon="2.23874">
        <ele>158.552892</ele>
        <time>2023-01-05T11:59:35.934Z</time>
      </trkpt>
      <trkpt lat="43.23899" lon="2.23887">
        <ele>158.285384</ele>
        <time>2023-01-05T11:59:37.936Z</time>
      </trkpt>
      <trkpt lat="43.23894" lon="2.23901">
        <ele>158.003652</ele>
        <time>2023-01-05T11:59:39.929Z</time>
      </trkpt>
      <trkpt lat="43.2389" lon="2.23914">
        <ele>157.738869</ele>
        <time>2023-01-05T11:59:41.926Z</time>
      </trkpt>
      <trkpt lat="43.23886" lon="2.23927">
        <ele>157.466102</ele>
        <time>2023-01-05T11:59:43.936Z</time>
      </trkpt>
      <trkpt lat="43.23881" lon="2.23941">
        <ele>157.172993</ele>
        <time>2023-01-05T11:59:45.929Z</time>
      </trkpt>
      <trkpt lat="43.23877" lon="2.23955">
        <ele>156.888241</ele>
        <time>2023-01-05T11:59:47.925Z</time>
      </trkpt>
      <trkpt lat="43.23873" lon="2.23969">
        <ele>156.606256</ele>
        <time>2023-01-05T11:59:49.925Z</time>
      </trkpt>
      <trkpt lat="43.23868" lon="2.23983">
        <ele>156.699401</ele>
        <time>2023-01-05T11:59:51.927Z</time>
      </trkpt>
      <trkpt lat="43.23864" lon="2.23997">
        <ele>156.83227</ele>
        <time>2023-01-05T11:59:53.921Z</time>
      </trkpt>
      <trkpt lat="43.2386" lon="2.24012">
        <ele>156.968246</ele>
        <time>2023-01-05T11:59:55.946Z</time>
      </trkpt>
      <trkpt lat="43.23857" lon="2.24027">
        <ele>157.102023</ele>
        <time>2023-01-05T11:59:57.948Z</time>
      </trkpt>
      <trkpt lat="43.23853" lon="2.24042">
        <ele>157.234167</ele>
        <time>2023-01-05T11:59:59.925Z</time>
      </trkpt>
      <trkpt lat="43.23851" lon="2.24057">
        <ele>157.365254</ele>
        <time>2023-01-05T12:00:01.948Z</time>
      </trkpt>
      <trkpt lat="43.23848" lon="2.24072">
        <ele>157.499939</ele>
        <time>2023-01-05T12:00:03.942Z</time>
      </trkpt>
      <trkpt lat="43.23845" lon="2.24087">
        <ele>157.632969</ele>
        <time>2023-01-05T12:00:05.933Z</time>
      </trkpt>
      <trkpt lat="43.23842" lon="2.24103">
        <ele>157.76931</ele>
        <time>2023-01-05T12:00:07.936Z</time>
      </trkpt>
      <trkpt lat="43.23839" lon="2.24118">
        <ele>157.902114</ele>
        <time>2023-01-05T12:00:09.928Z</time>
      </trkpt>
      <trkpt lat="43.23836" lon="2.24133">
        <ele>158.036565</ele>
        <time>2023-01-05T12:00:11.930Z</time>
      </trkpt>
      <trkpt lat="43.23833" lon="2.24148">
        <ele>158.172907</ele>
        <time>2023-01-05T12:00:13.930Z</time>
      </trkpt>
      <trkpt lat="43.23831" lon="2.24164">
        <ele>158.308704</ele>
        <time>2023-01-05T12:00:15.939Z</time>
      </trkpt>
      <trkpt lat="43.23828" lon="2.2418">
        <ele>158.448932</ele>
        <time>2023-01-05T12:00:17.934Z</time>
      </trkpt>
      <trkpt lat="43.23825" lon="2.24195">
        <ele>158.583638</ele>
        <time>2023-01-05T12:00:19.936Z</time>
      </trkpt>
      <trkpt lat="43.23823" lon="2.2421">
        <ele>158.714032</ele>
        <time>2023-01-05T12:00:21.937Z</time>
      </trkpt>
      <trkpt lat="43.2382" lon="2.24226">
        <ele>158.832786</ele>
        <time>2023-01-05T12:00:23.950Z</time>
      </trkpt>
      <trkpt lat="43.23817" lon="2.24242">
        <ele>158.947799</ele>
        <time>2023-01-05T12:00:25.930Z</time>
      </trkpt>
      <trkpt lat="43.23815" lon="2.24257">
        <ele>159.060603</ele>
        <time>2023-01-05T12:00:27.951Z</time>
      </trkpt>
      <trkpt lat="43.23813" lon="2.24271">
        <ele>159.170004</ele>
        <time>2023-01-05T12:00:29.932Z</time>
      </trkpt>
      <trkpt lat="43.23812" lon="2.24286">
        <ele>159.278149</ele>
        <time>2023-01-05T12:00:31.951Z</time>
      </trkpt>
      <trkpt lat="43.23811" lon="2.243">
        <ele>159.379047</ele>
        <time>2023-01-05T12:00:33.952Z</time>
      </trkpt>
      <trkpt lat="43.2381" lon="2.24314">
        <ele>159.483789</ele>
        <time>2023-01-05T12:00:35.928Z</time>
      </trkpt>
      <trkpt lat="43.2381" lon="2.24328">
        <ele>159.583117</ele>
        <time>2023-01-05T12:00:37.950Z</time>
      </trkpt>
      <trkpt lat="43.2381" lon="2.24341">
        <ele>159.683176</ele>
        <time>2023-01-05T12:00:39.933Z</time>
      </trkpt>
      <trkpt lat="43.23809" lon="2.24355">
        <ele>159.784457</ele>
        <time>2023-01-05T12:00:41.952Z</time>
      </trkpt>
      <trkpt lat="43.23808" lon="2.24369">
        <ele>159.887553</ele>
        <time>2023-01-05T12:00:43.932Z</time>
      </trkpt>
      <trkpt lat="43.23808" lon="2.24384">
        <ele>159.991263</ele>
        <time>2023-01-05T12:00:45.948Z</time>
      </trkpt>
      <trkpt lat="43.23807" lon="2.24398">
        <ele>160.0966</ele>
        <time>2023-01-05T12:00:47.938Z</time>
      </trkpt>
      <trkpt lat="43.23807" lon="2.24412">
        <ele>160.195928</ele>
        <time>2023-01-05T12:00:49.946Z</time>
      </trkpt>
      <trkpt lat="43.23807" lon="2.24426">
        <ele>160.299711</ele>
        <time>2023-01-05T12:00:51.934Z</time>
      </trkpt>
      <trkpt lat="43.23806" lon="2.24441">
        <ele>160.410832</ele>
        <time>2023-01-05T12:00:53.951Z</time>
      </trkpt>
      <trkpt lat="43.23805" lon="2.24456">
        <ele>160.499809</ele>
        <time>2023-01-05T12:00:55.964Z</time>
      </trkpt>
      <trkpt lat="43.23804" lon="2.24472">
        <ele>160.528137</ele>
        <time>2023-01-05T12:00:57.937Z</time>
      </trkpt>
      <trkpt lat="43.23802" lon="2.24488">
        <ele>160.557989</ele>
        <time>2023-01-05T12:00:59.939Z</time>
      </trkpt>
      <trkpt lat="43.238" lon="2.24503">
        <ele>160.586898</ele>
        <time>2023-01-05T12:01:01.950Z</time>
      </trkpt>
      <trkpt lat="43.23798" lon="2.24519">
        <ele>160.616521</ele>
        <time>2023-01-05T12:01:03.928Z</time>
      </trkpt>
      <trkpt lat="43.23796" lon="2.24535">
        <ele>160.644848</ele>
        <time>2023-01-05T12:01:05.946Z</time>
      </trkpt>
      <trkpt lat="43.23794" lon="2.2455">
        <ele>160.674119</ele>
        <time>2023-01-05T12:01:07.933Z</time>
      </trkpt>
      <trkpt lat="43.23792" lon="2.24565">
        <ele>160.701041</ele>
        <time>2023-01-05T12:01:09.961Z</time>
      </trkpt>
      <trkpt lat="43.23791" lon="2.2458">
        <ele>160.728866</ele>
        <time>2023-01-05T12:01:11.929Z</time>
      </trkpt>
      <trkpt lat="43.23789" lon="2.24595">
        <ele>160.756397</ele>
        <time>2023-01-05T12:01:13.933Z</time>
      </trkpt>
      <trkpt lat="43.23787" lon="2.2461">
        <ele>160.784264</ele>
        <time>2023-01-05T12:01:15.925Z</time>
      </trkpt>
      <trkpt lat="43.23785" lon="2.24624">
        <ele>160.810242</ele>
        <time>2023-01-05T12:01:17.942Z</time>
      </trkpt>
      <trkpt lat="43.23784" lon="2.24638">
        <ele>160.83622</ele>
        <time>2023-01-05T12:01:19.932Z</time>
      </trkpt>
      <trkpt lat="43.23782" lon="2.24653">
        <ele>160.863933</ele>
        <time>2023-01-05T12:01:21.951Z</time>
      </trkpt>
      <trkpt lat="43.23781" lon="2.24666">
        <ele>160.889254</ele>
        <time>2023-01-05T12:01:23.951Z</time>
      </trkpt>
      <trkpt lat="43.23779" lon="2.2468">
        <ele>160.91443</ele>
        <time>2023-01-05T12:01:25.951Z</time>
      </trkpt>
      <trkpt lat="43.23778" lon="2.24694">
        <ele>160.940873</ele>
        <time>2023-01-05T12:01:27.933Z</time>
      </trkpt>
      <trkpt lat="43.23776" lon="2.24708">
        <ele>161.034863</ele>
        <time>2023-01-05T12:01:29.929Z</time>
      </trkpt>
      <trkpt lat="43.23774" lon="2.24723">
        <ele>161.144134</ele>
        <time>2023-01-05T12:01:31.930Z</time>
      </trkpt>
      <trkpt lat="43.23772" lon="2.24737">
        <ele>161.245211</ele>
        <time>2023-01-05T12:01:33.936Z</time>
      </trkpt>
      <trkpt lat="43.23769" lon="2.2475">
        <ele>161.346439</ele>
        <time>2023-01-05T12:01:35.960Z</time>
      </trkpt>
      <trkpt lat="43.23767" lon="2.24763">
        <ele>161.442567</ele>
        <time>2023-01-05T12:01:37.932Z</time>
      </trkpt>
      <trkpt lat="43.23764" lon="2.24776">
        <ele>161.540229</ele>
        <time>2023-01-05T12:01:39.952Z</time>
      </trkpt>
      <trkpt lat="43.23761" lon="2.24789">
        <ele>161.640805</ele>
        <time>2023-01-05T12:01:41.924Z</time>
      </trkpt>
      <trkpt lat="43.23759" lon="2.24803">
        <ele>161.739291</ele>
        <time>2023-01-05T12:01:43.952Z</time>
      </trkpt>
      <trkpt lat="43.23756" lon="2.24816">
        <ele>161.836814</ele>
        <time>2023-01-05T12:01:45.927Z</time>
      </trkpt>
      <trkpt lat="43.23753" lon="2.24829">
        <ele>161.938785</ele>
        <time>2023-01-05T12:01:47.931Z</time>
      </trkpt>
      <trkpt lat="43.23751" lon="2.24842">
        <ele>162.036502</ele>
        <time>2023-01-05T12:01:49.952Z</time>
      </trkpt>
      <trkpt lat="43.23748" lon="2.24855">
        <ele>162.136831</ele>
        <time>2023-01-05T12:01:51.932Z</time>
      </trkpt>
      <trkpt lat="43.23745" lon="2.24869">
        <ele>162.239626</ele>
        <time>2023-01-05T12:01:53.932Z</time>
      </trkpt>
      <trkpt lat="43.23742" lon="2.24882">
        <ele>162.339578</ele>
        <time>2023-01-05T12:01:55.949Z</time>
      </trkpt>
      <trkpt lat="43.23738" lon="2.24896">
        <ele>162.442226</ele>
        <time>2023-01-05T12:01:57.949Z</time>
      </trkpt>
      <trkpt lat="43.23734" lon="2.24908">
        <ele>162.538493</ele>
        <time>2023-01-05T12:01:59.952Z</time>
      </trkpt>
      <trkpt lat="43.23731" lon="2.24921">
        <ele>162.641168</ele>
        <time>2023-01-05T12:02:01.938Z</time>
      </trkpt>
      <trkpt lat="43.23727" lon="2.24934">
        <ele>162.751073</ele>
        <time>2023-01-05T12:02:03.950Z</time>
      </trkpt>
      <trkpt lat="43.23723" lon="2.24947">
        <ele>162.949176</ele>
        <time>2023-01-05T12:02:05.954Z</time>
      </trkpt>
      <trkpt lat="43.2372" lon="2.2496">
        <ele>163.148617</ele>
        <time>2023-01-05T12:02:07.953Z</time>
      </trkpt>
      <trkpt lat="43.23716" lon="2.24972">
        <ele>163.337974</ele>
        <time>2023-01-05T12:02:09.930Z</time>
      </trkpt>
      <trkpt lat="43.23712" lon="2.24984">
        <ele>163.531498</ele>
        <time>2023-01-05T12:02:11.949Z</time>
      </trkpt>
      <trkpt lat="43.23709" lon="2.24996">
        <ele>163.722189</ele>
        <time>2023-01-05T12:02:13.951Z</time>
      </trkpt>
      <trkpt lat="43.23705" lon="2.25009">
        <ele>163.914651</ele>
        <time>2023-01-05T12:02:15.933Z</time>
      </trkpt>
      <trkpt lat="43.23701" lon="2.25021">
        <ele>164.104759</ele>
        <time>2023-01-05T12:02:17.935Z</time>
      </trkpt>
      <trkpt lat="43.23697" lon="2.25034">
        <ele>164.302143</ele>
        <time>2023-01-05T12:02:19.935Z</time>
      </trkpt>
      <trkpt lat="43.23694" lon="2.25046">
        <ele>164.495439</ele>
        <time>2023-01-05T12:02:21.934Z</time>
      </trkpt>
      <trkpt lat="43.2369" lon="2.25059">
        <ele>164.696167</ele>
        <time>2023-01-05T12:02:23.935Z</time>
      </trkpt>
      <trkpt lat="43.23687" lon="2.25072">
        <ele>164.891019</ele>
        <time>2023-01-05T12:02:25.952Z</time>
      </trkpt>
      <trkpt lat="43.23683" lon="2.25084">
        <ele>165.07893</ele>
        <time>2023-01-05T12:02:27.931Z</time>
      </trkpt>
      <trkpt lat="43.2368" lon="2.25096">
        <ele>165.261442</ele>
        <time>2023-01-05T12:02:29.938Z</time>
      </trkpt>
      <trkpt lat="43.23677" lon="2.25108">
        <ele>165.444604</ele>
        <time>2023-01-05T12:02:31.931Z</time>
      </trkpt>
      <trkpt lat="43.23674" lon="2.2512">
        <ele>165.630482</ele>
        <time>2023-01-05T12:02:33.935Z</time>
      </trkpt>
      <trkpt lat="43.23671" lon="2.25133">
        <ele>165.817491</ele>
        <time>2023-01-05T12:02:35.953Z</time>
      </trkpt>
      <trkpt lat="43.23669" lon="2.25145">
        <ele>165.999543</ele>
        <time>2023-01-05T12:02:37.932Z</time>
      </trkpt>
      <trkpt lat="43.23666" lon="2.25157">
        <ele>166.180477</ele>
        <time>2023-01-05T12:02:39.950Z</time>
      </trkpt>
      <trkpt lat="43.23663" lon="2.25173">
        <ele>166.424405</ele>
        <time>2023-01-05T12:02:42.948Z</time>
      </trkpt>
      <trkpt lat="43.23659" lon="2.25189">
        <ele>166.67174</ele>
        <time>2023-01-05T12:02:45.925Z</time>
      </trkpt>
      <trkpt lat="43.23656" lon="2.25204">
        <ele>166.908885</ele>
        <time>2023-01-05T12:02:48.949Z</time>
      </trkpt>
      <trkpt lat="43.23652" lon="2.25218">
        <ele>167.129317</ele>
        <time>2023-01-05T12:02:51.932Z</time>
      </trkpt>
      <trkpt lat="43.23649" lon="2.25232">
        <ele>167.34772</ele>
        <time>2023-01-05T12:02:54.950Z</time>
      </trkpt>
      <trkpt lat="43.23647" lon="2.25245">
        <ele>167.548405</ele>
        <time>2023-01-05T12:02:57.951Z</time>
      </trkpt>
      <trkpt lat="43.23644" lon="2.25257">
        <ele>167.740749</ele>
        <time>2023-01-05T12:03:00.952Z</time>
      </trkpt>
      <trkpt lat="43.23641" lon="2.25269">
        <ele>167.931911</ele>
        <time>2023-01-05T12:03:03.928Z</time>
      </trkpt>
      <trkpt lat="43.23639" lon="2.25282">
        <ele>168.11757</ele>
        <time>2023-01-05T12:03:06.923Z</time>
      </trkpt>
      <trkpt lat="43.23637" lon="2.25294">
        <ele>168.307885</ele>
        <time>2023-01-05T12:03:09.921Z</time>
      </trkpt>
      <trkpt lat="43.23634" lon="2.25306">
        <ele>168.493321</ele>
        <time>2023-01-05T12:03:12.930Z</time>
      </trkpt>
      <trkpt lat="43.23632" lon="2.2532">
        <ele>168.704801</ele>
        <time>2023-01-05T12:03:15.926Z</time>
      </trkpt>
      <trkpt lat="43.23629" lon="2.25333">
        <ele>168.913225</ele>
        <time>2023-01-05T12:03:18.941Z</time>
      </trkpt>
      <trkpt lat="43.23627" lon="2.25349">
        <ele>169.150394</ele>
        <time>2023-01-05T12:03:21.925Z</time>
      </trkpt>
      <trkpt lat="43.23625" lon="2.25366">
        <ele>169.418915</ele>
        <time>2023-01-05T12:03:24.947Z</time>
      </trkpt>
      <trkpt lat="43.23622" lon="2.25384">
        <ele>169.690722</ele>
        <time>2023-01-05T12:03:27.939Z</time>
      </trkpt>
      <trkpt lat="43.2362" lon="2.25402">
        <ele>169.958368</ele>
        <time>2023-01-05T12:03:30.933Z</time>
      </trkpt>
      <trkpt lat="43.23617" lon="2.25418">
        <ele>170.03753</ele>
        <time>2023-01-05T12:03:33.945Z</time>
      </trkpt>
      <trkpt lat="43.23615" lon="2.25434">
        <ele>170.111593</ele>
        <time>2023-01-05T12:03:36.928Z</time>
      </trkpt>
      <trkpt lat="43.23613" lon="2.25451">
        <ele>170.189625</ele>
        <time>2023-01-05T12:03:39.932Z</time>
      </trkpt>
      <trkpt lat="43.2361" lon="2.25468">
        <ele>170.267134</ele>
        <time>2023-01-05T12:03:42.949Z</time>
      </trkpt>
      <trkpt lat="43.23608" lon="2.25486">
        <ele>170.34728</ele>
        <time>2023-01-05T12:03:45.942Z</time>
      </trkpt>
      <trkpt lat="43.23605" lon="2.25502">
        <ele>170.424545</ele>
        <time>2023-01-05T12:03:48.956Z</time>
      </trkpt>
      <trkpt lat="43.23602" lon="2.25519">
        <ele>170.501308</ele>
        <time>2023-01-05T12:03:51.951Z</time>
      </trkpt>
      <trkpt lat="43.236" lon="2.25536">
        <ele>170.579568</ele>
        <time>2023-01-05T12:03:54.945Z</time>
      </trkpt>
      <trkpt lat="43.23598" lon="2.25553">
        <ele>170.655761</ele>
        <time>2023-01-05T12:03:57.947Z</time>
      </trkpt>
      <trkpt lat="43.23596" lon="2.25569">
        <ele>170.730629</ele>
        <time>2023-01-05T12:04:00.936Z</time>
      </trkpt>
      <trkpt lat="43.23593" lon="2.25586">
        <ele>170.806217</ele>
        <time>2023-01-05T12:04:03.936Z</time>
      </trkpt>
      <trkpt lat="43.2359" lon="2.25602">
        <ele>170.882104</ele>
        <time>2023-01-05T12:04:06.929Z</time>
      </trkpt>
      <trkpt lat="43.23588" lon="2.25619">
        <ele>170.957116</ele>
        <time>2023-01-05T12:04:09.929Z</time>
      </trkpt>
      <trkpt lat="43.23585" lon="2.25634">
        <ele>171.02722</ele>
        <time>2023-01-05T12:04:12.933Z</time>
      </trkpt>
      <trkpt lat="43.23584" lon="2.25649">
        <ele>171.146713</ele>
        <time>2023-01-05T12:04:15.928Z</time>
      </trkpt>
      <trkpt lat="43.23582" lon="2.25664">
        <ele>171.386112</ele>
        <time>2023-01-05T12:04:18.950Z</time>
      </trkpt>
      <trkpt lat="43.23579" lon="2.25678">
        <ele>171.613778</ele>
        <time>2023-01-05T12:04:21.948Z</time>
      </trkpt>
      <trkpt lat="43.23577" lon="2.25693">
        <ele>171.842088</ele>
        <time>2023-01-05T12:04:24.950Z</time>
      </trkpt>
      <trkpt lat="43.23575" lon="2.25707">
        <ele>172.063687</ele>
        <time>2023-01-05T12:04:27.948Z</time>
      </trkpt>
      <trkpt lat="43.23573" lon="2.25721">
        <ele>172.283169</ele>
        <time>2023-01-05T12:04:30.933Z</time>
      </trkpt>
      <trkpt lat="43.23571" lon="2.25734">
        <ele>172.49975</ele>
        <time>2023-01-05T12:04:33.955Z</time>
      </trkpt>
      <trkpt lat="43.23569" lon="2.25748">
        <ele>172.715803</ele>
        <time>2023-01-05T12:04:36.950Z</time>
      </trkpt>
      <trkpt lat="43.23568" lon="2.25761">
        <ele>172.929974</ele>
        <time>2023-01-05T12:04:39.948Z</time>
      </trkpt>
      <trkpt lat="43.23566" lon="2.25777">
        <ele>173.178527</ele>
        <time>2023-01-05T12:04:43.949Z</time>
      </trkpt>
      <trkpt lat="43.23563" lon="2.25792">
        <ele>173.41227</ele>
        <time>2023-01-05T12:04:47.931Z</time>
      </trkpt>
      <trkpt lat="43.23561" lon="2.25807">
        <ele>173.660593</ele>
        <time>2023-01-05T12:04:51.929Z</time>
      </trkpt>
      <trkpt lat="43.23559" lon="2.2582">
        <ele>173.858684</ele>
        <time>2023-01-05T12:04:54.919Z</time>
      </trkpt>
      <trkpt lat="43.23557" lon="2.25832">
        <ele>174.053725</ele>
        <time>2023-01-05T12:04:57.949Z</time>
      </trkpt>
      <trkpt lat="43.23556" lon="2.25845">
        <ele>174.247607</ele>
        <time>2023-01-05T12:05:00.936Z</time>
      </trkpt>
      <trkpt lat="43.23553" lon="2.25861">
        <ele>174.501568</ele>
        <time>2023-01-05T12:05:04.950Z</time>
      </trkpt>
      <trkpt lat="43.2355" lon="2.25876">
        <ele>174.754365</ele>
        <time>2023-01-05T12:05:08.945Z</time>
      </trkpt>
      <trkpt lat="43.23548" lon="2.25892">
        <ele>175.127717</ele>
        <time>2023-01-05T12:05:12.950Z</time>
      </trkpt>
      <trkpt lat="43.23546" lon="2.25907">
        <ele>175.730822</ele>
        <time>2023-01-05T12:05:16.930Z</time>
      </trkpt>
      <trkpt lat="43.23544" lon="2.25923">
        <ele>176.361159</ele>
        <time>2023-01-05T12:05:20.924Z</time>
      </trkpt>
      <trkpt lat="43.23541" lon="2.25937">
        <ele>176.938017</ele>
        <time>2023-01-05T12:05:24.925Z</time>
      </trkpt>
      <trkpt lat="43.2354" lon="2.2595">
        <ele>177.448596</ele>
        <time>2023-01-05T12:05:28.938Z</time>
      </trkpt>
      <trkpt lat="43.23537" lon="2.25963">
        <ele>177.979793</ele>
        <time>2023-01-05T12:05:32.942Z</time>
      </trkpt>
      <trkpt lat="43.23535" lon="2.25977">
        <ele>178.519773</ele>
        <time>2023-01-05T12:05:36.930Z</time>
      </trkpt>
      <trkpt lat="43.23532" lon="2.2599">
        <ele>179.057212</ele>
        <time>2023-01-05T12:05:40.925Z</time>
      </trkpt>
      <trkpt lat="43.23531" lon="2.26004">
        <ele>179.592728</ele>
        <time>2023-01-05T12:05:44.923Z</time>
      </trkpt>
      <trkpt lat="43.23528" lon="2.26017">
        <ele>180.126566</ele>
        <time>2023-01-05T12:05:48.964Z</time>
      </trkpt>
      <trkpt lat="43.23527" lon="2.26029">
        <ele>180.609366</ele>
        <time>2023-01-05T12:05:52.939Z</time>
      </trkpt>
      <trkpt lat="43.23525" lon="2.26042">
        <ele>181.099074</ele>
        <time>2023-01-05T12:05:56.935Z</time>
      </trkpt>
      <trkpt lat="43.23523" lon="2.26054">
        <ele>181.578042</ele>
        <time>2023-01-05T12:06:00.937Z</time>
      </trkpt>
      <trkpt lat="43.2352" lon="2.26066">
        <ele>182.068485</ele>
        <time>2023-01-05T12:06:04.947Z</time>
      </trkpt>
      <trkpt lat="43.23518" lon="2.26079">
        <ele>182.622332</ele>
        <time>2023-01-05T12:06:09.928Z</time>
      </trkpt>
      <trkpt lat="43.23515" lon="2.26093">
        <ele>183.17618</ele>
        <time>2023-01-05T12:06:14.945Z</time>
      </trkpt>
      <trkpt lat="43.23512" lon="2.26106">
        <ele>183.692204</ele>
        <time>2023-01-05T12:06:19.948Z</time>
      </trkpt>
      <trkpt lat="43.23508" lon="2.26119">
        <ele>184.235648</ele>
        <time>2023-01-05T12:06:24.931Z</time>
      </trkpt>
      <trkpt lat="43.23507" lon="2.26132">
        <ele>184.684216</ele>
        <time>2023-01-05T12:06:29.929Z</time>
      </trkpt>
      <trkpt lat="43.23503" lon="2.26146">
        <ele>185.090536</ele>
        <time>2023-01-05T12:06:35.947Z</time>
      </trkpt>
      <trkpt lat="43.23501" lon="2.26158">
        <ele>185.450351</ele>
        <time>2023-01-05T12:06:40.951Z</time>
      </trkpt>
      <trkpt lat="43.23496" lon="2.26169">
        <ele>185.800289</ele>
        <time>2023-01-05T12:06:45.929Z</time>
      </trkpt>
      <trkpt lat="43.23493" lon="2.26181">
        <ele>186.159875</ele>
        <time>2023-01-05T12:06:50.938Z</time>
      </trkpt>
      <trkpt lat="43.23489" lon="2.26193">
        <ele>186.501219</ele>
        <time>2023-01-05T12:06:55.928Z</time>
      </trkpt>
      <trkpt lat="43.23486" lon="2.26204">
        <ele>186.849176</ele>
        <time>2023-01-05T12:07:00.938Z</time>
      </trkpt>
      <trkpt lat="43.23481" lon="2.26216">
        <ele>187.223933</ele>
        <time>2023-01-05T12:07:05.948Z</time>
      </trkpt>
      <trkpt lat="43.23477" lon="2.26228">
        <ele>187.58797</ele>
        <time>2023-01-05T12:07:10.932Z</time>
      </trkpt>
      <trkpt lat="43.23473" lon="2.2624">
        <ele>187.950524</ele>
        <time>2023-01-05T12:07:15.942Z</time>
      </trkpt>
      <trkpt lat="43.23469" lon="2.26253">
        <ele>188.334939</ele>
        <time>2023-01-05T12:07:20.929Z</time>
      </trkpt>
      <trkpt lat="43.23464" lon="2.26265">
        <ele>188.719384</ele>
        <time>2023-01-05T12:07:25.928Z</time>
      </trkpt>
      <trkpt lat="43.2346" lon="2.26277">
        <ele>189.101369</ele>
        <time>2023-01-05T12:07:30.931Z</time>
      </trkpt>
      <trkpt lat="43.23455" lon="2.26291">
        <ele>189.511536</ele>
        <time>2023-01-05T12:07:34.928Z</time>
      </trkpt>
      <trkpt lat="43.2345" lon="2.26305">
        <ele>189.956389</ele>
        <time>2023-01-05T12:07:38.938Z</time>
      </trkpt>
      <trkpt lat="43.23446" lon="2.26317">
        <ele>190.316749</ele>
        <time>2023-01-05T12:07:41.926Z</time>
      </trkpt>
      <trkpt lat="43.23441" lon="2.2633">
        <ele>190.726008</ele>
        <time>2023-01-05T12:07:44.933Z</time>
      </trkpt>
      <trkpt lat="43.23437" lon="2.26345">
        <ele>191.157891</ele>
        <time>2023-01-05T12:07:47.936Z</time>
      </trkpt>
      <trkpt lat="43.23432" lon="2.26359">
        <ele>191.289574</ele>
        <time>2023-01-05T12:07:50.948Z</time>
      </trkpt>
      <trkpt lat="43.23427" lon="2.26373">
        <ele>191.184976</ele>
        <time>2023-01-05T12:07:53.931Z</time>
      </trkpt>
      <trkpt lat="43.23423" lon="2.26387">
        <ele>191.082139</ele>
        <time>2023-01-05T12:07:56.923Z</time>
      </trkpt>
      <trkpt lat="43.23419" lon="2.264">
        <ele>190.984567</ele>
        <time>2023-01-05T12:07:59.924Z</time>
      </trkpt>
      <trkpt lat="43.23415" lon="2.26414">
        <ele>190.886205</ele>
        <time>2023-01-05T12:08:02.950Z</time>
      </trkpt>
      <trkpt lat="43.23411" lon="2.26428">
        <ele>190.782281</ele>
        <time>2023-01-05T12:08:05.936Z</time>
      </trkpt>
      <trkpt lat="43.23407" lon="2.26444">
        <ele>190.66843</ele>
        <time>2023-01-05T12:08:08.935Z</time>
      </trkpt>
      <trkpt lat="43.23402" lon="2.2646">
        <ele>190.546266</ele>
        <time>2023-01-05T12:08:11.950Z</time>
      </trkpt>
      <trkpt lat="43.23398" lon="2.26472">
        <ele>190.462033</ele>
        <time>2023-01-05T12:08:13.934Z</time>
      </trkpt>
      <trkpt lat="43.23393" lon="2.26489">
        <ele>190.336746</ele>
        <time>2023-01-05T12:08:16.931Z</time>
      </trkpt>
      <trkpt lat="43.23388" lon="2.26506">
        <ele>190.21252</ele>
        <time>2023-01-05T12:08:19.937Z</time>
      </trkpt>
      <trkpt lat="43.23384" lon="2.26517">
        <ele>190.128832</ele>
        <time>2023-01-05T12:08:21.951Z</time>
      </trkpt>
      <trkpt lat="43.23379" lon="2.26534">
        <ele>190.006038</ele>
        <time>2023-01-05T12:08:24.950Z</time>
      </trkpt>
      <trkpt lat="43.23375" lon="2.2655">
        <ele>189.88764</ele>
        <time>2023-01-05T12:08:27.935Z</time>
      </trkpt>
      <trkpt lat="43.2337" lon="2.26566">
        <ele>189.770645</ele>
        <time>2023-01-05T12:08:30.945Z</time>
      </trkpt>
      <trkpt lat="43.23366" lon="2.26582">
        <ele>189.675777</ele>
        <time>2023-01-05T12:08:33.933Z</time>
      </trkpt>
      <trkpt lat="43.23361" lon="2.26597">
        <ele>189.690872</ele>
        <time>2023-01-05T12:08:36.930Z</time>
      </trkpt>
      <trkpt lat="43.23356" lon="2.26613">
        <ele>189.706346</ele>
        <time>2023-01-05T12:08:39.933Z</time>
      </trkpt>
      <trkpt lat="43.23351" lon="2.26629">
        <ele>189.721643</ele>
        <time>2023-01-05T12:08:42.930Z</time>
      </trkpt>
      <trkpt lat="43.23347" lon="2.26645">
        <ele>189.737617</ele>
        <time>2023-01-05T12:08:45.935Z</time>
      </trkpt>
      <trkpt lat="43.23344" lon="2.26657">
        <ele>189.74881</ele>
        <time>2023-01-05T12:08:47.949Z</time>
      </trkpt>
      <trkpt lat="43.2334" lon="2.26669">
        <ele>189.760638</ele>
        <time>2023-01-05T12:08:49.930Z</time>
      </trkpt>
      <trkpt lat="43.23336" lon="2.26681">
        <ele>189.772584</ele>
        <time>2023-01-05T12:08:51.944Z</time>
      </trkpt>
      <trkpt lat="43.23332" lon="2.26695">
        <ele>189.785502</ele>
        <time>2023-01-05T12:08:53.930Z</time>
      </trkpt>
      <trkpt lat="43.23328" lon="2.26708">
        <ele>189.798688</ele>
        <time>2023-01-05T12:08:55.938Z</time>
      </trkpt>
      <trkpt lat="43.23324" lon="2.26721">
        <ele>189.811245</ele>
        <time>2023-01-05T12:08:57.948Z</time>
      </trkpt>
      <trkpt lat="43.2332" lon="2.26735">
        <ele>189.824657</ele>
        <time>2023-01-05T12:08:59.929Z</time>
      </trkpt>
      <trkpt lat="43.23316" lon="2.26748">
        <ele>189.837371</ele>
        <time>2023-01-05T12:09:01.949Z</time>
      </trkpt>
      <trkpt lat="43.23312" lon="2.26762">
        <ele>189.850948</ele>
        <time>2023-01-05T12:09:03.941Z</time>
      </trkpt>
      <trkpt lat="43.23308" lon="2.26776">
        <ele>189.864804</ele>
        <time>2023-01-05T12:09:05.930Z</time>
      </trkpt>
      <trkpt lat="43.23303" lon="2.26791">
        <ele>189.879105</ele>
        <time>2023-01-05T12:09:07.948Z</time>
      </trkpt>
      <trkpt lat="43.23299" lon="2.26806">
        <ele>189.893218</ele>
        <time>2023-01-05T12:09:09.933Z</time>
      </trkpt>
      <trkpt lat="43.23295" lon="2.2682">
        <ele>189.810582</ele>
        <time>2023-01-05T12:09:11.928Z</time>
      </trkpt>
      <trkpt lat="43.2329" lon="2.26836">
        <ele>189.707994</ele>
        <time>2023-01-05T12:09:13.935Z</time>
      </trkpt>
      <trkpt lat="43.23286" lon="2.26851">
        <ele>189.603873</ele>
        <time>2023-01-05T12:09:15.941Z</time>
      </trkpt>
      <trkpt lat="43.23281" lon="2.26866">
        <ele>189.501485</ele>
        <time>2023-01-05T12:09:17.927Z</time>
      </trkpt>
      <trkpt lat="43.23277" lon="2.26882">
        <ele>189.397144</ele>
        <time>2023-01-05T12:09:19.950Z</time>
      </trkpt>
      <trkpt lat="43.23273" lon="2.26898">
        <ele>189.290743</ele>
        <time>2023-01-05T12:09:21.930Z</time>
      </trkpt>
      <trkpt lat="43.23268" lon="2.26913">
        <ele>189.18456</ele>
        <time>2023-01-05T12:09:23.940Z</time>
      </trkpt>
      <trkpt lat="43.23263" lon="2.26929">
        <ele>189.079859</ele>
        <time>2023-01-05T12:09:25.950Z</time>
      </trkpt>
      <trkpt lat="43.23259" lon="2.26945">
        <ele>188.973998</ele>
        <time>2023-01-05T12:09:27.928Z</time>
      </trkpt>
      <trkpt lat="43.23254" lon="2.26961">
        <ele>188.867012</ele>
        <time>2023-01-05T12:09:29.949Z</time>
      </trkpt>
      <trkpt lat="43.2325" lon="2.26977">
        <ele>188.760611</ele>
        <time>2023-01-05T12:09:31.950Z</time>
      </trkpt>
      <trkpt lat="43.23245" lon="2.26992">
        <ele>188.6588</ele>
        <time>2023-01-05T12:09:33.939Z</time>
      </trkpt>
      <trkpt lat="43.23241" lon="2.27007">
        <ele>188.552983</ele>
        <time>2023-01-05T12:09:35.951Z</time>
      </trkpt>
      <trkpt lat="43.23236" lon="2.27023">
        <ele>188.446274</ele>
        <time>2023-01-05T12:09:37.952Z</time>
      </trkpt>
      <trkpt lat="43.23232" lon="2.27039">
        <ele>188.340436</ele>
        <time>2023-01-05T12:09:39.936Z</time>
      </trkpt>
      <trkpt lat="43.23227" lon="2.27055">
        <ele>188.232025</ele>
        <time>2023-01-05T12:09:41.951Z</time>
      </trkpt>
      <trkpt lat="43.23223" lon="2.27072">
        <ele>188.120691</ele>
        <time>2023-01-05T12:09:43.950Z</time>
      </trkpt>
      <trkpt lat="43.23218" lon="2.27088">
        <ele>188.00815</ele>
        <time>2023-01-05T12:09:45.934Z</time>
      </trkpt>
      <trkpt lat="43.23213" lon="2.27105">
        <ele>187.898293</ele>
        <time>2023-01-05T12:09:47.961Z</time>
      </trkpt>
      <trkpt lat="43.23209" lon="2.27121">
        <ele>187.787817</ele>
        <time>2023-01-05T12:09:49.932Z</time>
      </trkpt>
      <trkpt lat="43.23204" lon="2.27138">
        <ele>187.675896</ele>
        <time>2023-01-05T12:09:51.936Z</time>
      </trkpt>
      <trkpt lat="43.232" lon="2.27155">
        <ele>187.564277</ele>
        <time>2023-01-05T12:09:53.935Z</time>
      </trkpt>
      <trkpt lat="43.23195" lon="2.27171">
        <ele>187.453833</ele>
        <time>2023-01-05T12:09:55.942Z</time>
      </trkpt>
      <trkpt lat="43.23191" lon="2.27187">
        <ele>187.347677</ele>
        <time>2023-01-05T12:09:57.948Z</time>
      </trkpt>
      <trkpt lat="43.23186" lon="2.27203">
        <ele>187.240111</ele>
        <time>2023-01-05T12:09:59.936Z</time>
      </trkpt>
      <trkpt lat="43.23181" lon="2.27219">
        <ele>187.132317</ele>
        <time>2023-01-05T12:10:01.933Z</time>
      </trkpt>
      <trkpt lat="43.23177" lon="2.27234">
        <ele>187.029235</ele>
        <time>2023-01-05T12:10:03.929Z</time>
      </trkpt>
      <trkpt lat="43.23174" lon="2.2725">
        <ele>186.927029</ele>
        <time>2023-01-05T12:10:05.950Z</time>
      </trkpt>
      <trkpt lat="43.23169" lon="2.27265">
        <ele>186.82508</ele>
        <time>2023-01-05T12:10:07.939Z</time>
      </trkpt>
      <trkpt lat="43.23165" lon="2.2728">
        <ele>186.823003</ele>
        <time>2023-01-05T12:10:09.940Z</time>
      </trkpt>
      <trkpt lat="43.23161" lon="2.27295">
        <ele>186.847285</ele>
        <time>2023-01-05T12:10:11.930Z</time>
      </trkpt>
      <trkpt lat="43.23156" lon="2.27308">
        <ele>186.87029</ele>
        <time>2023-01-05T12:10:13.967Z</time>
      </trkpt>
      <trkpt lat="43.23152" lon="2.27322">
        <ele>186.89328</ele>
        <time>2023-01-05T12:10:15.950Z</time>
      </trkpt>
      <trkpt lat="43.23149" lon="2.27337">
        <ele>186.916623</ele>
        <time>2023-01-05T12:10:17.938Z</time>
      </trkpt>
      <trkpt lat="43.23145" lon="2.27351">
        <ele>186.939893</ele>
        <time>2023-01-05T12:10:19.927Z</time>
      </trkpt>
      <trkpt lat="43.23141" lon="2.27365">
        <ele>186.963962</ele>
        <time>2023-01-05T12:10:21.952Z</time>
      </trkpt>
      <trkpt lat="43.23137" lon="2.2738">
        <ele>186.987812</ele>
        <time>2023-01-05T12:10:23.932Z</time>
      </trkpt>
      <trkpt lat="43.23133" lon="2.27395">
        <ele>187.0126</ele>
        <time>2023-01-05T12:10:25.950Z</time>
      </trkpt>
      <trkpt lat="43.23129" lon="2.2741">
        <ele>187.036389</ele>
        <time>2023-01-05T12:10:27.939Z</time>
      </trkpt>
      <trkpt lat="43.23125" lon="2.27425">
        <ele>187.061707</ele>
        <time>2023-01-05T12:10:29.950Z</time>
      </trkpt>
      <trkpt lat="43.2312" lon="2.2744">
        <ele>187.087296</ele>
        <time>2023-01-05T12:10:31.956Z</time>
      </trkpt>
      <trkpt lat="43.23116" lon="2.27457">
        <ele>187.113818</ele>
        <time>2023-01-05T12:10:33.952Z</time>
      </trkpt>
      <trkpt lat="43.23111" lon="2.27472">
        <ele>187.140213</ele>
        <time>2023-01-05T12:10:35.952Z</time>
      </trkpt>
      <trkpt lat="43.23106" lon="2.27489">
        <ele>187.168271</ele>
        <time>2023-01-05T12:10:37.948Z</time>
      </trkpt>
      <trkpt lat="43.23101" lon="2.27506">
        <ele>187.114446</ele>
        <time>2023-01-05T12:10:39.931Z</time>
      </trkpt>
      <trkpt lat="43.23096" lon="2.27523">
        <ele>186.959591</ele>
        <time>2023-01-05T12:10:41.944Z</time>
      </trkpt>
      <trkpt lat="43.23091" lon="2.2754">
        <ele>186.807408</ele>
        <time>2023-01-05T12:10:43.952Z</time>
      </trkpt>
      <trkpt lat="43.23086" lon="2.27558">
        <ele>186.644914</ele>
        <time>2023-01-05T12:10:45.933Z</time>
      </trkpt>
      <trkpt lat="43.23081" lon="2.27575">
        <ele>186.48996</ele>
        <time>2023-01-05T12:10:47.934Z</time>
      </trkpt>
      <trkpt lat="43.23075" lon="2.27591">
        <ele>186.33573</ele>
        <time>2023-01-05T12:10:49.931Z</time>
      </trkpt>
      <trkpt lat="43.23069" lon="2.2761">
        <ele>186.166777</ele>
        <time>2023-01-05T12:10:51.927Z</time>
      </trkpt>
      <trkpt lat="43.23063" lon="2.27627">
        <ele>186.000696</ele>
        <time>2023-01-05T12:10:53.930Z</time>
      </trkpt>
      <trkpt lat="43.23057" lon="2.27645">
        <ele>185.84006</ele>
        <time>2023-01-05T12:10:55.931Z</time>
      </trkpt>
      <trkpt lat="43.23051" lon="2.27662">
        <ele>185.681535</ele>
        <time>2023-01-05T12:10:57.934Z</time>
      </trkpt>
      <trkpt lat="43.23046" lon="2.27678">
        <ele>185.528324</ele>
        <time>2023-01-05T12:10:59.929Z</time>
      </trkpt>
      <trkpt lat="43.2304" lon="2.27694">
        <ele>185.378362</ele>
        <time>2023-01-05T12:11:01.950Z</time>
      </trkpt>
      <trkpt lat="43.23034" lon="2.27711">
        <ele>185.22565</ele>
        <time>2023-01-05T12:11:03.948Z</time>
      </trkpt>
      <trkpt lat="43.23029" lon="2.27727">
        <ele>185.080002</ele>
        <time>2023-01-05T12:11:05.950Z</time>
      </trkpt>
      <trkpt lat="43.23023" lon="2.27743">
        <ele>184.947547</ele>
        <time>2023-01-05T12:11:07.933Z</time>
      </trkpt>
      <trkpt lat="43.23017" lon="2.27759">
        <ele>184.810392</ele>
        <time>2023-01-05T12:11:09.950Z</time>
      </trkpt>
      <trkpt lat="43.23012" lon="2.27775">
        <ele>184.678829</ele>
        <time>2023-01-05T12:11:11.934Z</time>
      </trkpt>
      <trkpt lat="43.23006" lon="2.27792">
        <ele>184.538543</ele>
        <time>2023-01-05T12:11:13.949Z</time>
      </trkpt>
      <trkpt lat="43.23" lon="2.27809">
        <ele>184.401164</ele>
        <time>2023-01-05T12:11:15.930Z</time>
      </trkpt>
      <trkpt lat="43.22994" lon="2.27826">
        <ele>184.260161</ele>
        <time>2023-01-05T12:11:17.945Z</time>
      </trkpt>
      <trkpt lat="43.22988" lon="2.27843">
        <ele>184.121621</ele>
        <time>2023-01-05T12:11:19.948Z</time>
      </trkpt>
      <trkpt lat="43.22983" lon="2.27859">
        <ele>183.989361</ele>
        <time>2023-01-05T12:11:21.932Z</time>
      </trkpt>
      <trkpt lat="43.22978" lon="2.27875">
        <ele>183.860667</ele>
        <time>2023-01-05T12:11:23.932Z</time>
      </trkpt>
      <trkpt lat="43.22973" lon="2.2789">
        <ele>183.734173</ele>
        <time>2023-01-05T12:11:25.944Z</time>
      </trkpt>
      <trkpt lat="43.22968" lon="2.27906">
        <ele>183.608362</ele>
        <time>2023-01-05T12:11:27.934Z</time>
      </trkpt>
      <trkpt lat="43.22963" lon="2.27921">
        <ele>183.481996</ele>
        <time>2023-01-05T12:11:29.936Z</time>
      </trkpt>
      <trkpt lat="43.22958" lon="2.27937">
        <ele>183.357403</ele>
        <time>2023-01-05T12:11:31.937Z</time>
      </trkpt>
      <trkpt lat="43.22954" lon="2.27952">
        <ele>183.258884</ele>
        <time>2023-01-05T12:11:33.923Z</time>
      </trkpt>
      <trkpt lat="43.22949" lon="2.27967">
        <ele>183.229129</ele>
        <time>2023-01-05T12:11:35.925Z</time>
      </trkpt>
      <trkpt lat="43.22945" lon="2.27982">
        <ele>183.199966</ele>
        <time>2023-01-05T12:11:37.927Z</time>
      </trkpt>
      <trkpt lat="43.2294" lon="2.27997">
        <ele>183.171134</ele>
        <time>2023-01-05T12:11:39.929Z</time>
      </trkpt>
      <trkpt lat="43.22936" lon="2.28012">
        <ele>183.141637</ele>
        <time>2023-01-05T12:11:41.931Z</time>
      </trkpt>
      <trkpt lat="43.22931" lon="2.28029">
        <ele>183.109956</ele>
        <time>2023-01-05T12:11:43.947Z</time>
      </trkpt>
      <trkpt lat="43.22926" lon="2.28045">
        <ele>183.078735</ele>
        <time>2023-01-05T12:11:45.932Z</time>
      </trkpt>
      <trkpt lat="43.22922" lon="2.28061">
        <ele>183.048147</ele>
        <time>2023-01-05T12:11:47.923Z</time>
      </trkpt>
      <trkpt lat="43.22917" lon="2.28077">
        <ele>183.016543</ele>
        <time>2023-01-05T12:11:49.936Z</time>
      </trkpt>
      <trkpt lat="43.22913" lon="2.28093">
        <ele>182.985371</ele>
        <time>2023-01-05T12:11:51.924Z</time>
      </trkpt>
      <trkpt lat="43.22908" lon="2.28109">
        <ele>182.955358</ele>
        <time>2023-01-05T12:11:53.925Z</time>
      </trkpt>
      <trkpt lat="43.22903" lon="2.28125">
        <ele>182.923497</ele>
        <time>2023-01-05T12:11:55.938Z</time>
      </trkpt>
      <trkpt lat="43.22899" lon="2.28141">
        <ele>182.893409</ele>
        <time>2023-01-05T12:11:57.936Z</time>
      </trkpt>
      <trkpt lat="43.22894" lon="2.28156">
        <ele>182.864245</ele>
        <time>2023-01-05T12:11:59.937Z</time>
      </trkpt>
      <trkpt lat="43.2289" lon="2.28171">
        <ele>182.835263</ele>
        <time>2023-01-05T12:12:01.932Z</time>
      </trkpt>
      <trkpt lat="43.22886" lon="2.28187">
        <ele>182.790892</ele>
        <time>2023-01-05T12:12:03.949Z</time>
      </trkpt>
      <trkpt lat="43.22882" lon="2.28201">
        <ele>182.742978</ele>
        <time>2023-01-05T12:12:05.941Z</time>
      </trkpt>
      <trkpt lat="43.22878" lon="2.28216">
        <ele>182.693439</ele>
        <time>2023-01-05T12:12:07.934Z</time>
      </trkpt>
      <trkpt lat="43.22874" lon="2.28231">
        <ele>182.64228</ele>
        <time>2023-01-05T12:12:09.927Z</time>
      </trkpt>
      <trkpt lat="43.2287" lon="2.28246">
        <ele>182.594366</ele>
        <time>2023-01-05T12:12:11.932Z</time>
      </trkpt>
      <trkpt lat="43.22866" lon="2.2826">
        <ele>182.544184</ele>
        <time>2023-01-05T12:12:13.923Z</time>
      </trkpt>
      <trkpt lat="43.22862" lon="2.28275">
        <ele>182.493468</ele>
        <time>2023-01-05T12:12:15.933Z</time>
      </trkpt>
      <trkpt lat="43.22857" lon="2.28289">
        <ele>182.446689</ele>
        <time>2023-01-05T12:12:17.931Z</time>
      </trkpt>
      <trkpt lat="43.22853" lon="2.28304">
        <ele>182.395416</ele>
        <time>2023-01-05T12:12:19.948Z</time>
      </trkpt>
      <trkpt lat="43.22848" lon="2.28318">
        <ele>182.348179</ele>
        <time>2023-01-05T12:12:21.932Z</time>
      </trkpt>
      <trkpt lat="43.22844" lon="2.28332">
        <ele>182.300131</ele>
        <time>2023-01-05T12:12:23.930Z</time>
      </trkpt>
      <trkpt lat="43.22839" lon="2.28345">
        <ele>182.252722</ele>
        <time>2023-01-05T12:12:25.933Z</time>
      </trkpt>
      <trkpt lat="43.22835" lon="2.28359">
        <ele>182.204779</ele>
        <time>2023-01-05T12:12:27.933Z</time>
      </trkpt>
      <trkpt lat="43.2283" lon="2.28374">
        <ele>182.155755</ele>
        <time>2023-01-05T12:12:29.943Z</time>
      </trkpt>
      <trkpt lat="43.22825" lon="2.28387">
        <ele>182.10949</ele>
        <time>2023-01-05T12:12:31.932Z</time>
      </trkpt>
      <trkpt lat="43.22821" lon="2.28399">
        <ele>182.065327</ele>
        <time>2023-01-05T12:12:33.949Z</time>
      </trkpt>
      <trkpt lat="43.22816" lon="2.28412">
        <ele>182.139002</ele>
        <time>2023-01-05T12:12:35.950Z</time>
      </trkpt>
      <trkpt lat="43.22811" lon="2.28424">
        <ele>182.284092</ele>
        <time>2023-01-05T12:12:37.943Z</time>
      </trkpt>
      <trkpt lat="43.22806" lon="2.28437">
        <ele>182.428639</ele>
        <time>2023-01-05T12:12:39.931Z</time>
      </trkpt>
      <trkpt lat="43.22802" lon="2.28449">
        <ele>182.573405</ele>
        <time>2023-01-05T12:12:41.937Z</time>
      </trkpt>
      <trkpt lat="43.22798" lon="2.28461">
        <ele>182.719747</ele>
        <time>2023-01-05T12:12:43.928Z</time>
      </trkpt>
      <trkpt lat="43.22793" lon="2.28474">
        <ele>182.864294</ele>
        <time>2023-01-05T12:12:45.931Z</time>
      </trkpt>
      <trkpt lat="43.22789" lon="2.28485">
        <ele>182.999715</ele>
        <time>2023-01-05T12:12:47.926Z</time>
      </trkpt>
      <trkpt lat="43.22785" lon="2.28497">
        <ele>183.134389</ele>
        <time>2023-01-05T12:12:49.938Z</time>
      </trkpt>
      <trkpt lat="43.22781" lon="2.28509">
        <ele>183.275465</ele>
        <time>2023-01-05T12:12:51.941Z</time>
      </trkpt>
      <trkpt lat="43.22777" lon="2.2852">
        <ele>183.410502</ele>
        <time>2023-01-05T12:12:53.929Z</time>
      </trkpt>
      <trkpt lat="43.22772" lon="2.28537">
        <ele>183.604069</ele>
        <time>2023-01-05T12:12:56.938Z</time>
      </trkpt>
      <trkpt lat="43.22767" lon="2.28548">
        <ele>183.736353</ele>
        <time>2023-01-05T12:12:58.935Z</time>
      </trkpt>
      <trkpt lat="43.22763" lon="2.2856">
        <ele>183.875463</ele>
        <time>2023-01-05T12:13:00.931Z</time>
      </trkpt>
      <trkpt lat="43.22759" lon="2.28571">
        <ele>184.010995</ele>
        <time>2023-01-05T12:13:02.928Z</time>
      </trkpt>
      <trkpt lat="43.22754" lon="2.28583">
        <ele>184.149075</ele>
        <time>2023-01-05T12:13:04.934Z</time>
      </trkpt>
      <trkpt lat="43.22749" lon="2.28596">
        <ele>184.298585</ele>
        <time>2023-01-05T12:13:06.930Z</time>
      </trkpt>
      <trkpt lat="43.22745" lon="2.28608">
        <ele>184.444618</ele>
        <time>2023-01-05T12:13:08.929Z</time>
      </trkpt>
      <trkpt lat="43.22741" lon="2.28621">
        <ele>184.592982</ele>
        <time>2023-01-05T12:13:10.934Z</time>
      </trkpt>
      <trkpt lat="43.22736" lon="2.28634">
        <ele>184.587753</ele>
        <time>2023-01-05T12:13:12.934Z</time>
      </trkpt>
      <trkpt lat="43.22732" lon="2.28646">
        <ele>184.496435</ele>
        <time>2023-01-05T12:13:14.931Z</time>
      </trkpt>
      <trkpt lat="43.22729" lon="2.2866">
        <ele>184.402918</ele>
        <time>2023-01-05T12:13:16.929Z</time>
      </trkpt>
      <trkpt lat="43.22724" lon="2.28674">
        <ele>184.301022</ele>
        <time>2023-01-05T12:13:18.932Z</time>
      </trkpt>
      <trkpt lat="43.2272" lon="2.28687">
        <ele>184.205285</ele>
        <time>2023-01-05T12:13:20.930Z</time>
      </trkpt>
      <trkpt lat="43.22716" lon="2.28702">
        <ele>184.099615</ele>
        <time>2023-01-05T12:13:22.936Z</time>
      </trkpt>
      <trkpt lat="43.22712" lon="2.28716">
        <ele>183.999505</ele>
        <time>2023-01-05T12:13:24.965Z</time>
      </trkpt>
      <trkpt lat="43.22708" lon="2.28731">
        <ele>183.894936</ele>
        <time>2023-01-05T12:13:26.927Z</time>
      </trkpt>
      <trkpt lat="43.22703" lon="2.28746">
        <ele>183.78368</ele>
        <time>2023-01-05T12:13:28.933Z</time>
      </trkpt>
      <trkpt lat="43.22698" lon="2.28761">
        <ele>183.672902</ele>
        <time>2023-01-05T12:13:30.941Z</time>
      </trkpt>
      <trkpt lat="43.22693" lon="2.28777">
        <ele>183.556782</ele>
        <time>2023-01-05T12:13:32.946Z</time>
      </trkpt>
      <trkpt lat="43.22688" lon="2.28794">
        <ele>183.43944</ele>
        <time>2023-01-05T12:13:34.931Z</time>
      </trkpt>
      <trkpt lat="43.22683" lon="2.28809">
        <ele>183.325015</ele>
        <time>2023-01-05T12:13:36.950Z</time>
      </trkpt>
      <trkpt lat="43.22678" lon="2.28826">
        <ele>183.203379</ele>
        <time>2023-01-05T12:13:38.935Z</time>
      </trkpt>
      <trkpt lat="43.22672" lon="2.28843">
        <ele>183.083595</ele>
        <time>2023-01-05T12:13:40.952Z</time>
      </trkpt>
      <trkpt lat="43.22667" lon="2.28859">
        <ele>182.942513</ele>
        <time>2023-01-05T12:13:42.934Z</time>
      </trkpt>
      <trkpt lat="43.22662" lon="2.28876">
        <ele>182.757899</ele>
        <time>2023-01-05T12:13:44.949Z</time>
      </trkpt>
      <trkpt lat="43.22657" lon="2.28892">
        <ele>182.575705</ele>
        <time>2023-01-05T12:13:46.948Z</time>
      </trkpt>
      <trkpt lat="43.22651" lon="2.28909">
        <ele>182.388856</ele>
        <time>2023-01-05T12:13:48.953Z</time>
      </trkpt>
      <trkpt lat="43.22646" lon="2.28926">
        <ele>182.201271</ele>
        <time>2023-01-05T12:13:50.946Z</time>
      </trkpt>
      <trkpt lat="43.22641" lon="2.28943">
        <ele>182.012467</ele>
        <time>2023-01-05T12:13:52.931Z</time>
      </trkpt>
      <trkpt lat="43.22636" lon="2.28959">
        <ele>181.829326</ele>
        <time>2023-01-05T12:13:54.932Z</time>
      </trkpt>
      <trkpt lat="43.22631" lon="2.28977">
        <ele>181.64</ele>
        <time>2023-01-05T12:13:56.951Z</time>
      </trkpt>
      <trkpt lat="43.22626" lon="2.28993">
        <ele>181.462108</ele>
        <time>2023-01-05T12:13:58.936Z</time>
      </trkpt>
      <trkpt lat="43.2262" lon="2.2901">
        <ele>181.268531</ele>
        <time>2023-01-05T12:14:00.937Z</time>
      </trkpt>
      <trkpt lat="43.22614" lon="2.29027">
        <ele>181.073661</ele>
        <time>2023-01-05T12:14:02.952Z</time>
      </trkpt>
      <trkpt lat="43.22609" lon="2.29045">
        <ele>180.874494</ele>
        <time>2023-01-05T12:14:04.950Z</time>
      </trkpt>
      <trkpt lat="43.22603" lon="2.29063">
        <ele>180.678308</ele>
        <time>2023-01-05T12:14:06.938Z</time>
      </trkpt>
      <trkpt lat="43.22597" lon="2.2908">
        <ele>180.492605</ele>
        <time>2023-01-05T12:14:08.931Z</time>
      </trkpt>
      <trkpt lat="43.22592" lon="2.29097">
        <ele>180.446802</ele>
        <time>2023-01-05T12:14:10.949Z</time>
      </trkpt>
      <trkpt lat="43.22587" lon="2.29114">
        <ele>180.40327</ele>
        <time>2023-01-05T12:14:12.949Z</time>
      </trkpt>
      <trkpt lat="43.22581" lon="2.2913">
        <ele>180.358512</ele>
        <time>2023-01-05T12:14:14.951Z</time>
      </trkpt>
      <trkpt lat="43.22576" lon="2.29146">
        <ele>180.317123</ele>
        <time>2023-01-05T12:14:16.949Z</time>
      </trkpt>
      <trkpt lat="43.22571" lon="2.29161">
        <ele>180.274766</ele>
        <time>2023-01-05T12:14:18.934Z</time>
      </trkpt>
      <trkpt lat="43.22565" lon="2.29177">
        <ele>180.233076</ele>
        <time>2023-01-05T12:14:20.936Z</time>
      </trkpt>
      <trkpt lat="43.2256" lon="2.29192">
        <ele>180.191859</ele>
        <time>2023-01-05T12:14:22.935Z</time>
      </trkpt>
      <trkpt lat="43.22553" lon="2.29207">
        <ele>180.149602</ele>
        <time>2023-01-05T12:14:24.929Z</time>
      </trkpt>
      <trkpt lat="43.22547" lon="2.29221">
        <ele>180.107765</ele>
        <time>2023-01-05T12:14:26.933Z</time>
      </trkpt>
      <trkpt lat="43.2254" lon="2.29237">
        <ele>180.063034</ele>
        <time>2023-01-05T12:14:28.947Z</time>
      </trkpt>
      <trkpt lat="43.22533" lon="2.29252">
        <ele>180.019333</ele>
        <time>2023-01-05T12:14:30.927Z</time>
      </trkpt>
      <trkpt lat="43.22525" lon="2.29266">
        <ele>179.97549</ele>
        <time>2023-01-05T12:14:32.949Z</time>
      </trkpt>
      <trkpt lat="43.22517" lon="2.29281">
        <ele>179.931256</ele>
        <time>2023-01-05T12:14:34.933Z</time>
      </trkpt>
      <trkpt lat="43.22509" lon="2.29295">
        <ele>179.850675</ele>
        <time>2023-01-05T12:14:36.939Z</time>
      </trkpt>
      <trkpt lat="43.22502" lon="2.29309">
        <ele>179.4209</ele>
        <time>2023-01-05T12:14:38.946Z</time>
      </trkpt>
      <trkpt lat="43.22494" lon="2.29323">
        <ele>178.993103</ele>
        <time>2023-01-05T12:14:40.948Z</time>
      </trkpt>
      <trkpt lat="43.22486" lon="2.29337">
        <ele>178.559034</ele>
        <time>2023-01-05T12:14:42.936Z</time>
      </trkpt>
      <trkpt lat="43.22478" lon="2.2935">
        <ele>178.110087</ele>
        <time>2023-01-05T12:14:44.943Z</time>
      </trkpt>
      <trkpt lat="43.22469" lon="2.29365">
        <ele>177.643647</ele>
        <time>2023-01-05T12:14:46.927Z</time>
      </trkpt>
      <trkpt lat="43.2246" lon="2.29379">
        <ele>177.163711</ele>
        <time>2023-01-05T12:14:48.950Z</time>
      </trkpt>
      <trkpt lat="43.2245" lon="2.29394">
        <ele>176.672823</ele>
        <time>2023-01-05T12:14:50.947Z</time>
      </trkpt>
      <trkpt lat="43.2244" lon="2.29409">
        <ele>176.158995</ele>
        <time>2023-01-05T12:14:52.949Z</time>
      </trkpt>
      <trkpt lat="43.22429" lon="2.29423">
        <ele>175.653492</ele>
        <time>2023-01-05T12:14:54.950Z</time>
      </trkpt>
      <trkpt lat="43.22418" lon="2.29438">
        <ele>175.117633</ele>
        <time>2023-01-05T12:14:56.929Z</time>
      </trkpt>
      <trkpt lat="43.22406" lon="2.29453">
        <ele>174.576666</ele>
        <time>2023-01-05T12:14:58.924Z</time>
      </trkpt>
      <trkpt lat="43.22395" lon="2.29467">
        <ele>174.063446</ele>
        <time>2023-01-05T12:15:00.947Z</time>
      </trkpt>
      <trkpt lat="43.22384" lon="2.29481">
        <ele>173.567999</ele>
        <time>2023-01-05T12:15:02.948Z</time>
      </trkpt>
      <trkpt lat="43.22373" lon="2.29496">
        <ele>173.098238</ele>
        <time>2023-01-05T12:15:04.928Z</time>
      </trkpt>
      <trkpt lat="43.22362" lon="2.2951">
        <ele>172.629319</ele>
        <time>2023-01-05T12:15:06.950Z</time>
      </trkpt>
      <trkpt lat="43.22351" lon="2.29525">
        <ele>172.145937</ele>
        <time>2023-01-05T12:15:08.926Z</time>
      </trkpt>
      <trkpt lat="43.22339" lon="2.2954">
        <ele>171.647982</ele>
        <time>2023-01-05T12:15:10.928Z</time>
      </trkpt>
      <trkpt lat="43.22328" lon="2.29557">
        <ele>171.135987</ele>
        <time>2023-01-05T12:15:12.927Z</time>
      </trkpt>
      <trkpt lat="43.22317" lon="2.29573">
        <ele>170.643237</ele>
        <time>2023-01-05T12:15:14.930Z</time>
      </trkpt>
      <trkpt lat="43.22307" lon="2.29589">
        <ele>170.169137</ele>
        <time>2023-01-05T12:15:16.946Z</time>
      </trkpt>
      <trkpt lat="43.22299" lon="2.29605">
        <ele>169.715997</ele>
        <time>2023-01-05T12:15:18.928Z</time>
      </trkpt>
      <trkpt lat="43.2229" lon="2.29622">
        <ele>169.253495</ele>
        <time>2023-01-05T12:15:20.948Z</time>
      </trkpt>
      <trkpt lat="43.22281" lon="2.29639">
        <ele>168.780317</ele>
        <time>2023-01-05T12:15:22.928Z</time>
      </trkpt>
      <trkpt lat="43.22273" lon="2.29657">
        <ele>168.30515</ele>
        <time>2023-01-05T12:15:24.932Z</time>
      </trkpt>
      <trkpt lat="43.22263" lon="2.29675">
        <ele>167.781484</ele>
        <time>2023-01-05T12:15:26.932Z</time>
      </trkpt>
      <trkpt lat="43.22254" lon="2.29693">
        <ele>167.237959</ele>
        <time>2023-01-05T12:15:28.950Z</time>
      </trkpt>
      <trkpt lat="43.22244" lon="2.29712">
        <ele>166.673159</ele>
        <time>2023-01-05T12:15:30.953Z</time>
      </trkpt>
      <trkpt lat="43.22234" lon="2.29732">
        <ele>166.102288</ele>
        <time>2023-01-05T12:15:32.949Z</time>
      </trkpt>
      <trkpt lat="43.22224" lon="2.29752">
        <ele>165.523632</ele>
        <time>2023-01-05T12:15:34.933Z</time>
      </trkpt>
      <trkpt lat="43.22213" lon="2.29772">
        <ele>164.931752</ele>
        <time>2023-01-05T12:15:36.938Z</time>
      </trkpt>
      <trkpt lat="43.22208" lon="2.29782">
        <ele>164.633822</ele>
        <time>2023-01-05T12:15:37.934Z</time>
      </trkpt>
      <trkpt lat="43.22203" lon="2.29792">
        <ele>164.33785</ele>
        <time>2023-01-05T12:15:38.929Z</time>
      </trkpt>
      <trkpt lat="43.22192" lon="2.29813">
        <ele>163.742099</ele>
        <time>2023-01-05T12:15:40.947Z</time>
      </trkpt>
      <trkpt lat="43.22182" lon="2.29832">
        <ele>163.167394</ele>
        <time>2023-01-05T12:15:42.928Z</time>
      </trkpt>
      <trkpt lat="43.22173" lon="2.29851">
        <ele>162.614044</ele>
        <time>2023-01-05T12:15:44.941Z</time>
      </trkpt>
      <trkpt lat="43.22164" lon="2.29869">
        <ele>162.511627</ele>
        <time>2023-01-05T12:15:46.932Z</time>
      </trkpt>
      <trkpt lat="43.22156" lon="2.29885">
        <ele>163.081202</ele>
        <time>2023-01-05T12:15:48.933Z</time>
      </trkpt>
      <trkpt lat="43.22148" lon="2.29901">
        <ele>163.639644</ele>
        <time>2023-01-05T12:15:50.925Z</time>
      </trkpt>
      <trkpt lat="43.2214" lon="2.29916">
        <ele>164.146908</ele>
        <time>2023-01-05T12:15:52.948Z</time>
      </trkpt>
      <trkpt lat="43.22133" lon="2.29929">
        <ele>164.6285</ele>
        <time>2023-01-05T12:15:54.945Z</time>
      </trkpt>
      <trkpt lat="43.22127" lon="2.29941">
        <ele>165.052379</ele>
        <time>2023-01-05T12:15:56.946Z</time>
      </trkpt>
      <trkpt lat="43.22122" lon="2.29953">
        <ele>165.435256</ele>
        <time>2023-01-05T12:15:58.933Z</time>
      </trkpt>
      <trkpt lat="43.22114" lon="2.29967">
        <ele>165.95174</ele>
        <time>2023-01-05T12:16:01.946Z</time>
      </trkpt>
      <trkpt lat="43.22106" lon="2.29981">
        <ele>166.451856</ele>
        <time>2023-01-05T12:16:04.946Z</time>
      </trkpt>
      <trkpt lat="43.221" lon="2.29993">
        <ele>166.870951</ele>
        <time>2023-01-05T12:16:07.923Z</time>
      </trkpt>
      <trkpt lat="43.22095" lon="2.30004">
        <ele>167.239241</ele>
        <time>2023-01-05T12:16:10.932Z</time>
      </trkpt>
      <trkpt lat="43.22088" lon="2.30016">
        <ele>167.681475</ele>
        <time>2023-01-05T12:16:14.946Z</time>
      </trkpt>
      <trkpt lat="43.22082" lon="2.30029">
        <ele>168.11467</ele>
        <time>2023-01-05T12:16:18.926Z</time>
      </trkpt>
      <trkpt lat="43.22076" lon="2.30039">
        <ele>168.496941</ele>
        <time>2023-01-05T12:16:22.944Z</time>
      </trkpt>
      <trkpt lat="43.22071" lon="2.30049">
        <ele>168.858177</ele>
        <time>2023-01-05T12:16:26.930Z</time>
      </trkpt>
      <trkpt lat="43.22065" lon="2.3006">
        <ele>169.226362</ele>
        <time>2023-01-05T12:16:30.927Z</time>
      </trkpt>
      <trkpt lat="43.2206" lon="2.3007">
        <ele>169.544449</ele>
        <time>2023-01-05T12:16:34.925Z</time>
      </trkpt>
      <trkpt lat="43.22053" lon="2.30081">
        <ele>169.885286</ele>
        <time>2023-01-05T12:16:39.938Z</time>
      </trkpt>
      <trkpt lat="43.22047" lon="2.30093">
        <ele>170.233555</ele>
        <time>2023-01-05T12:16:44.947Z</time>
      </trkpt>
      <trkpt lat="43.22041" lon="2.30105">
        <ele>170.557403</ele>
        <time>2023-01-05T12:16:49.953Z</time>
      </trkpt>
      <trkpt lat="43.22035" lon="2.30116">
        <ele>170.886844</ele>
        <time>2023-01-05T12:16:54.926Z</time>
      </trkpt>
      <trkpt lat="43.22029" lon="2.30128">
        <ele>171.216598</ele>
        <time>2023-01-05T12:16:59.944Z</time>
      </trkpt>
      <trkpt lat="43.22024" lon="2.3014">
        <ele>171.556394</ele>
        <time>2023-01-05T12:17:04.942Z</time>
      </trkpt>
      <trkpt lat="43.22018" lon="2.30152">
        <ele>171.891542</ele>
        <time>2023-01-05T12:17:09.934Z</time>
      </trkpt>
      <trkpt lat="43.22013" lon="2.30163">
        <ele>172.1793</ele>
        <time>2023-01-05T12:17:13.940Z</time>
      </trkpt>
      <trkpt lat="43.22008" lon="2.30174">
        <ele>172.473956</ele>
        <time>2023-01-05T12:17:17.935Z</time>
      </trkpt>
      <trkpt lat="43.22003" lon="2.30187">
        <ele>172.829088</ele>
        <time>2023-01-05T12:17:22.932Z</time>
      </trkpt>
      <trkpt lat="43.21999" lon="2.30199">
        <ele>173.134975</ele>
        <time>2023-01-05T12:17:26.949Z</time>
      </trkpt>
      <trkpt lat="43.21995" lon="2.3021">
        <ele>173.425499</ele>
        <time>2023-01-05T12:17:30.935Z</time>
      </trkpt>
      <trkpt lat="43.21991" lon="2.30221">
        <ele>173.721614</ele>
        <time>2023-01-05T12:17:34.930Z</time>
      </trkpt>
      <trkpt lat="43.21986" lon="2.30233">
        <ele>174.017081</ele>
        <time>2023-01-05T12:17:38.951Z</time>
      </trkpt>
      <trkpt lat="43.21983" lon="2.30244">
        <ele>174.306479</ele>
        <time>2023-01-05T12:17:41.951Z</time>
      </trkpt>
      <trkpt lat="43.2198" lon="2.30257">
        <ele>174.62054</ele>
        <time>2023-01-05T12:17:44.945Z</time>
      </trkpt>
      <trkpt lat="43.21974" lon="2.30272">
        <ele>175.012433</ele>
        <time>2023-01-05T12:17:47.948Z</time>
      </trkpt>
      <trkpt lat="43.2197" lon="2.30286">
        <ele>175.083297</ele>
        <time>2023-01-05T12:17:50.953Z</time>
      </trkpt>
      <trkpt lat="43.21966" lon="2.30301">
        <ele>175.040286</ele>
        <time>2023-01-05T12:17:53.929Z</time>
      </trkpt>
      <trkpt lat="43.2196" lon="2.30317">
        <ele>174.995092</ele>
        <time>2023-01-05T12:17:56.959Z</time>
      </trkpt>
      <trkpt lat="43.21957" lon="2.30328">
        <ele>174.961889</ele>
        <time>2023-01-05T12:17:58.951Z</time>
      </trkpt>
      <trkpt lat="43.21954" lon="2.30341">
        <ele>174.925659</ele>
        <time>2023-01-05T12:18:00.951Z</time>
      </trkpt>
      <trkpt lat="43.21949" lon="2.30355">
        <ele>174.885089</ele>
        <time>2023-01-05T12:18:02.949Z</time>
      </trkpt>
      <trkpt lat="43.21944" lon="2.3037">
        <ele>174.841662</ele>
        <time>2023-01-05T12:18:04.949Z</time>
      </trkpt>
      <trkpt lat="43.21939" lon="2.30384">
        <ele>174.799272</ele>
        <time>2023-01-05T12:18:06.942Z</time>
      </trkpt>
      <trkpt lat="43.21935" lon="2.304">
        <ele>174.753339</ele>
        <time>2023-01-05T12:18:08.936Z</time>
      </trkpt>
      <trkpt lat="43.21929" lon="2.30417">
        <ele>174.703396</ele>
        <time>2023-01-05T12:18:10.935Z</time>
      </trkpt>
      <trkpt lat="43.21924" lon="2.30435">
        <ele>174.651696</ele>
        <time>2023-01-05T12:18:12.934Z</time>
      </trkpt>
      <trkpt lat="43.21918" lon="2.30453">
        <ele>174.597243</ele>
        <time>2023-01-05T12:18:14.933Z</time>
      </trkpt>
      <trkpt lat="43.21912" lon="2.30472">
        <ele>174.542092</ele>
        <time>2023-01-05T12:18:16.948Z</time>
      </trkpt>
      <trkpt lat="43.21906" lon="2.30492">
        <ele>174.48553</ele>
        <time>2023-01-05T12:18:18.931Z</time>
      </trkpt>
      <trkpt lat="43.219" lon="2.30511">
        <ele>174.484745</ele>
        <time>2023-01-05T12:18:20.947Z</time>
      </trkpt>
      <trkpt lat="43.21894" lon="2.30531">
        <ele>174.563881</ele>
        <time>2023-01-05T12:18:22.951Z</time>
      </trkpt>
      <trkpt lat="43.21888" lon="2.30552">
        <ele>174.643116</ele>
        <time>2023-01-05T12:18:24.951Z</time>
      </trkpt>
      <trkpt lat="43.21881" lon="2.30572">
        <ele>174.722582</ele>
        <time>2023-01-05T12:18:26.952Z</time>
      </trkpt>
      <trkpt lat="43.21875" lon="2.30593">
        <ele>174.802666</ele>
        <time>2023-01-05T12:18:28.952Z</time>
      </trkpt>
      <trkpt lat="43.21869" lon="2.30612">
        <ele>174.876866</ele>
        <time>2023-01-05T12:18:30.951Z</time>
      </trkpt>
      <trkpt lat="43.21863" lon="2.3063">
        <ele>174.947063</ele>
        <time>2023-01-05T12:18:32.950Z</time>
      </trkpt>
      <trkpt lat="43.21857" lon="2.30647">
        <ele>175.015286</ele>
        <time>2023-01-05T12:18:34.939Z</time>
      </trkpt>
      <trkpt lat="43.21852" lon="2.30663">
        <ele>175.07992</ele>
        <time>2023-01-05T12:18:36.938Z</time>
      </trkpt>
      <trkpt lat="43.21847" lon="2.3068">
        <ele>175.144397</ele>
        <time>2023-01-05T12:18:38.938Z</time>
      </trkpt>
      <trkpt lat="43.21842" lon="2.30696">
        <ele>175.207452</ele>
        <time>2023-01-05T12:18:40.950Z</time>
      </trkpt>
      <trkpt lat="43.21837" lon="2.30712">
        <ele>175.267115</ele>
        <time>2023-01-05T12:18:42.951Z</time>
      </trkpt>
      <trkpt lat="43.21833" lon="2.30727">
        <ele>175.326146</ele>
        <time>2023-01-05T12:18:44.950Z</time>
      </trkpt>
      <trkpt lat="43.21828" lon="2.30741">
        <ele>175.406242</ele>
        <time>2023-01-05T12:18:46.935Z</time>
      </trkpt>
      <trkpt lat="43.21824" lon="2.30755">
        <ele>175.490715</ele>
        <time>2023-01-05T12:18:48.947Z</time>
      </trkpt>
      <trkpt lat="43.21819" lon="2.30769">
        <ele>175.570677</ele>
        <time>2023-01-05T12:18:50.952Z</time>
      </trkpt>
      <trkpt lat="43.21815" lon="2.30782">
        <ele>175.647723</ele>
        <time>2023-01-05T12:18:52.946Z</time>
      </trkpt>
      <trkpt lat="43.21811" lon="2.30794">
        <ele>175.72146</ele>
        <time>2023-01-05T12:18:54.968Z</time>
      </trkpt>
      <trkpt lat="43.21807" lon="2.30806">
        <ele>175.794016</ele>
        <time>2023-01-05T12:18:56.932Z</time>
      </trkpt>
      <trkpt lat="43.21804" lon="2.30818">
        <ele>175.863481</ele>
        <time>2023-01-05T12:18:58.935Z</time>
      </trkpt>
      <trkpt lat="43.218" lon="2.3083">
        <ele>175.937123</ele>
        <time>2023-01-05T12:19:00.949Z</time>
      </trkpt>
      <trkpt lat="43.21796" lon="2.30843">
        <ele>176.015778</ele>
        <time>2023-01-05T12:19:02.951Z</time>
      </trkpt>
      <trkpt lat="43.21792" lon="2.30856">
        <ele>176.09173</ele>
        <time>2023-01-05T12:19:04.946Z</time>
      </trkpt>
      <trkpt lat="43.21788" lon="2.30871">
        <ele>176.176877</ele>
        <time>2023-01-05T12:19:06.949Z</time>
      </trkpt>
      <trkpt lat="43.21784" lon="2.30885">
        <ele>176.261234</ele>
        <time>2023-01-05T12:19:08.936Z</time>
      </trkpt>
      <trkpt lat="43.2178" lon="2.30899">
        <ele>176.344343</ele>
        <time>2023-01-05T12:19:10.951Z</time>
      </trkpt>
      <trkpt lat="43.21776" lon="2.30914">
        <ele>176.42845</ele>
        <time>2023-01-05T12:19:12.947Z</time>
      </trkpt>
      <trkpt lat="43.21772" lon="2.30929">
        <ele>176.517978</ele>
        <time>2023-01-05T12:19:14.935Z</time>
      </trkpt>
      <trkpt lat="43.21769" lon="2.30945">
        <ele>176.610015</ele>
        <time>2023-01-05T12:19:16.933Z</time>
      </trkpt>
      <trkpt lat="43.21766" lon="2.30962">
        <ele>176.673314</ele>
        <time>2023-01-05T12:19:18.952Z</time>
      </trkpt>
      <trkpt lat="43.21763" lon="2.30978">
        <ele>176.550286</ele>
        <time>2023-01-05T12:19:20.948Z</time>
      </trkpt>
      <trkpt lat="43.21759" lon="2.30994">
        <ele>176.429007</ele>
        <time>2023-01-05T12:19:22.950Z</time>
      </trkpt>
      <trkpt lat="43.21756" lon="2.31011">
        <ele>176.305179</ele>
        <time>2023-01-05T12:19:24.946Z</time>
      </trkpt>
      <trkpt lat="43.21754" lon="2.31027">
        <ele>176.184236</ele>
        <time>2023-01-05T12:19:26.951Z</time>
      </trkpt>
      <trkpt lat="43.21752" lon="2.31045">
        <ele>176.057067</ele>
        <time>2023-01-05T12:19:28.935Z</time>
      </trkpt>
      <trkpt lat="43.21749" lon="2.31062">
        <ele>175.932293</ele>
        <time>2023-01-05T12:19:30.951Z</time>
      </trkpt>
      <trkpt lat="43.21746" lon="2.31078">
        <ele>175.809141</ele>
        <time>2023-01-05T12:19:32.933Z</time>
      </trkpt>
      <trkpt lat="43.21744" lon="2.31096">
        <ele>175.680048</ele>
        <time>2023-01-05T12:19:34.947Z</time>
      </trkpt>
      <trkpt lat="43.21741" lon="2.31113">
        <ele>175.550843</ele>
        <time>2023-01-05T12:19:36.932Z</time>
      </trkpt>
      <trkpt lat="43.21738" lon="2.31131">
        <ele>175.424665</ele>
        <time>2023-01-05T12:19:38.949Z</time>
      </trkpt>
      <trkpt lat="43.21735" lon="2.31148">
        <ele>175.29377</ele>
        <time>2023-01-05T12:19:40.947Z</time>
      </trkpt>
      <trkpt lat="43.21733" lon="2.31166">
        <ele>175.163623</ele>
        <time>2023-01-05T12:19:42.949Z</time>
      </trkpt>
      <trkpt lat="43.2173" lon="2.31184">
        <ele>175.035236</ele>
        <time>2023-01-05T12:19:44.952Z</time>
      </trkpt>
      <trkpt lat="43.21728" lon="2.31201">
        <ele>174.9068</ele>
        <time>2023-01-05T12:19:46.947Z</time>
      </trkpt>
      <trkpt lat="43.21726" lon="2.31219">
        <ele>174.751636</ele>
        <time>2023-01-05T12:19:48.936Z</time>
      </trkpt>
      <trkpt lat="43.21723" lon="2.31237">
        <ele>174.597132</ele>
        <time>2023-01-05T12:19:50.945Z</time>
      </trkpt>
      <trkpt lat="43.21721" lon="2.31253">
        <ele>174.452543</ele>
        <time>2023-01-05T12:19:52.948Z</time>
      </trkpt>
      <trkpt lat="43.21719" lon="2.31269">
        <ele>174.31431</ele>
        <time>2023-01-05T12:19:54.950Z</time>
      </trkpt>
      <trkpt lat="43.21717" lon="2.31285">
        <ele>174.173931</ele>
        <time>2023-01-05T12:19:56.941Z</time>
      </trkpt>
      <trkpt lat="43.21715" lon="2.31301">
        <ele>174.034009</ele>
        <time>2023-01-05T12:19:58.936Z</time>
      </trkpt>
      <trkpt lat="43.21713" lon="2.31318">
        <ele>173.887909</ele>
        <time>2023-01-05T12:20:00.941Z</time>
      </trkpt>
      <trkpt lat="43.21711" lon="2.31335">
        <ele>173.74143</ele>
        <time>2023-01-05T12:20:02.930Z</time>
      </trkpt>
      <trkpt lat="43.21708" lon="2.31352">
        <ele>173.587975</ele>
        <time>2023-01-05T12:20:04.932Z</time>
      </trkpt>
      <trkpt lat="43.21706" lon="2.3137">
        <ele>173.434948</ele>
        <time>2023-01-05T12:20:06.931Z</time>
      </trkpt>
      <trkpt lat="43.21704" lon="2.31387">
        <ele>173.285517</ele>
        <time>2023-01-05T12:20:08.931Z</time>
      </trkpt>
      <trkpt lat="43.21702" lon="2.31403">
        <ele>173.141964</ele>
        <time>2023-01-05T12:20:10.950Z</time>
      </trkpt>
      <trkpt lat="43.217" lon="2.3142">
        <ele>172.995485</ele>
        <time>2023-01-05T12:20:12.925Z</time>
      </trkpt>
      <trkpt lat="43.21697" lon="2.31437">
        <ele>172.849322</ele>
        <time>2023-01-05T12:20:14.949Z</time>
      </trkpt>
      <trkpt lat="43.21695" lon="2.31453">
        <ele>172.679859</ele>
        <time>2023-01-05T12:20:16.946Z</time>
      </trkpt>
      <trkpt lat="43.21693" lon="2.3147">
        <ele>172.49651</ele>
        <time>2023-01-05T12:20:18.948Z</time>
      </trkpt>
      <trkpt lat="43.21691" lon="2.31487">
        <ele>172.308873</ele>
        <time>2023-01-05T12:20:20.941Z</time>
      </trkpt>
      <trkpt lat="43.21688" lon="2.31504">
        <ele>172.121195</ele>
        <time>2023-01-05T12:20:22.931Z</time>
      </trkpt>
      <trkpt lat="43.21686" lon="2.31521">
        <ele>171.931764</ele>
        <time>2023-01-05T12:20:24.928Z</time>
      </trkpt>
      <trkpt lat="43.21684" lon="2.31539">
        <ele>171.737468</ele>
        <time>2023-01-05T12:20:26.946Z</time>
      </trkpt>
      <trkpt lat="43.21681" lon="2.31557">
        <ele>171.542667</ele>
        <time>2023-01-05T12:20:28.938Z</time>
      </trkpt>
      <trkpt lat="43.2168" lon="2.31575">
        <ele>171.346137</ele>
        <time>2023-01-05T12:20:30.929Z</time>
      </trkpt>
      <trkpt lat="43.21677" lon="2.31593">
        <ele>171.140165</ele>
        <time>2023-01-05T12:20:32.951Z</time>
      </trkpt>
      <trkpt lat="43.21675" lon="2.31612">
        <ele>170.935516</ele>
        <time>2023-01-05T12:20:34.954Z</time>
      </trkpt>
      <trkpt lat="43.21672" lon="2.3163">
        <ele>170.730985</ele>
        <time>2023-01-05T12:20:36.930Z</time>
      </trkpt>
      <trkpt lat="43.2167" lon="2.31649">
        <ele>170.52475</ele>
        <time>2023-01-05T12:20:38.948Z</time>
      </trkpt>
      <trkpt lat="43.21667" lon="2.3167">
        <ele>170.290312</ele>
        <time>2023-01-05T12:20:40.950Z</time>
      </trkpt>
      <trkpt lat="43.21664" lon="2.31692">
        <ele>170.010352</ele>
        <time>2023-01-05T12:20:42.927Z</time>
      </trkpt>
      <trkpt lat="43.21661" lon="2.31715">
        <ele>169.632824</ele>
        <time>2023-01-05T12:20:44.950Z</time>
      </trkpt>
      <trkpt lat="43.21658" lon="2.31736">
        <ele>169.269211</ele>
        <time>2023-01-05T12:20:46.949Z</time>
      </trkpt>
      <trkpt lat="43.21653" lon="2.31758">
        <ele>168.885607</ele>
        <time>2023-01-05T12:20:48.957Z</time>
      </trkpt>
      <trkpt lat="43.21648" lon="2.31781">
        <ele>168.494103</ele>
        <time>2023-01-05T12:20:50.933Z</time>
      </trkpt>
      <trkpt lat="43.21643" lon="2.31804">
        <ele>168.088195</ele>
        <time>2023-01-05T12:20:52.952Z</time>
      </trkpt>
      <trkpt lat="43.21637" lon="2.31827">
        <ele>167.681945</ele>
        <time>2023-01-05T12:20:54.940Z</time>
      </trkpt>
      <trkpt lat="43.21633" lon="2.31839">
        <ele>167.475682</ele>
        <time>2023-01-05T12:20:55.934Z</time>
      </trkpt>
      <trkpt lat="43.2163" lon="2.3185">
        <ele>167.2686</ele>
        <time>2023-01-05T12:20:56.951Z</time>
      </trkpt>
      <trkpt lat="43.21627" lon="2.31862">
        <ele>167.062885</ele>
        <time>2023-01-05T12:20:57.950Z</time>
      </trkpt>
      <trkpt lat="43.2162" lon="2.31883">
        <ele>166.668544</ele>
        <time>2023-01-05T12:20:59.935Z</time>
      </trkpt>
      <trkpt lat="43.21612" lon="2.31905">
        <ele>166.268618</ele>
        <time>2023-01-05T12:21:01.929Z</time>
      </trkpt>
      <trkpt lat="43.21605" lon="2.31926">
        <ele>165.949788</ele>
        <time>2023-01-05T12:21:03.926Z</time>
      </trkpt>
      <trkpt lat="43.21598" lon="2.31945">
        <ele>165.774665</ele>
        <time>2023-01-05T12:21:05.953Z</time>
      </trkpt>
      <trkpt lat="43.2159" lon="2.31963">
        <ele>165.607485</ele>
        <time>2023-01-05T12:21:07.942Z</time>
      </trkpt>
      <trkpt lat="43.21583" lon="2.31981">
        <ele>165.446837</ele>
        <time>2023-01-05T12:21:09.949Z</time>
      </trkpt>
      <trkpt lat="43.21577" lon="2.31996">
        <ele>165.301245</ele>
        <time>2023-01-05T12:21:11.935Z</time>
      </trkpt>
      <trkpt lat="43.2157" lon="2.32012">
        <ele>165.158031</ele>
        <time>2023-01-05T12:21:13.942Z</time>
      </trkpt>
      <trkpt lat="43.21564" lon="2.32025">
        <ele>165.027668</ele>
        <time>2023-01-05T12:21:15.935Z</time>
      </trkpt>
      <trkpt lat="43.21558" lon="2.32038">
        <ele>164.905321</ele>
        <time>2023-01-05T12:21:17.951Z</time>
      </trkpt>
      <trkpt lat="43.21552" lon="2.32049">
        <ele>164.795409</ele>
        <time>2023-01-05T12:21:19.951Z</time>
      </trkpt>
      <trkpt lat="43.21544" lon="2.32062">
        <ele>164.661348</ele>
        <time>2023-01-05T12:21:22.932Z</time>
      </trkpt>
      <trkpt lat="43.21542" lon="2.32067">
        <ele>164.61739</ele>
        <time>2023-01-05T12:22:42.589Z</time>
      </trkpt>
      <trkpt lat="43.21536" lon="2.32078">
        <ele>164.502927</ele>
        <time>2023-01-05T12:30:17.948Z</time>
      </trkpt>
      <trkpt lat="43.2153" lon="2.32092">
        <ele>164.371371</ele>
        <time>2023-01-05T12:30:22.934Z</time>
      </trkpt>
      <trkpt lat="43.21524" lon="2.32105">
        <ele>164.24949</ele>
        <time>2023-01-05T12:30:25.971Z</time>
      </trkpt>
      <trkpt lat="43.21517" lon="2.32119">
        <ele>164.111808</ele>
        <time>2023-01-05T12:30:28.932Z</time>
      </trkpt>
      <trkpt lat="43.21512" lon="2.32137">
        <ele>163.976687</ele>
        <time>2023-01-05T12:30:31.935Z</time>
      </trkpt>
      <trkpt lat="43.21507" lon="2.32148">
        <ele>163.905924</ele>
        <time>2023-01-05T12:30:33.933Z</time>
      </trkpt>
      <trkpt lat="43.21502" lon="2.32159">
        <ele>163.833241</ele>
        <time>2023-01-05T12:30:35.929Z</time>
      </trkpt>
      <trkpt lat="43.21497" lon="2.3217">
        <ele>163.758218</ele>
        <time>2023-01-05T12:30:37.938Z</time>
      </trkpt>
      <trkpt lat="43.2149" lon="2.32181">
        <ele>163.682242</ele>
        <time>2023-01-05T12:30:39.936Z</time>
      </trkpt>
      <trkpt lat="43.21484" lon="2.32191">
        <ele>163.603117</ele>
        <time>2023-01-05T12:30:41.930Z</time>
      </trkpt>
      <trkpt lat="43.21478" lon="2.32203">
        <ele>163.523159</ele>
        <time>2023-01-05T12:30:43.951Z</time>
      </trkpt>
      <trkpt lat="43.21471" lon="2.32214">
        <ele>163.442123</ele>
        <time>2023-01-05T12:30:45.936Z</time>
      </trkpt>
      <trkpt lat="43.21464" lon="2.32225">
        <ele>163.359571</ele>
        <time>2023-01-05T12:30:47.935Z</time>
      </trkpt>
      <trkpt lat="43.21457" lon="2.32235">
        <ele>163.278791</ele>
        <time>2023-01-05T12:30:49.941Z</time>
      </trkpt>
      <trkpt lat="43.2145" lon="2.32246">
        <ele>163.198608</ele>
        <time>2023-01-05T12:30:51.935Z</time>
      </trkpt>
      <trkpt lat="43.21443" lon="2.32258">
        <ele>163.115409</ele>
        <time>2023-01-05T12:30:53.939Z</time>
      </trkpt>
      <trkpt lat="43.21437" lon="2.32267">
        <ele>163.043502</ele>
        <time>2023-01-05T12:30:55.943Z</time>
      </trkpt>
      <trkpt lat="43.21431" lon="2.32277">
        <ele>162.972452</ele>
        <time>2023-01-05T12:30:57.935Z</time>
      </trkpt>
      <trkpt lat="43.21425" lon="2.32287">
        <ele>162.897932</ele>
        <time>2023-01-05T12:30:59.933Z</time>
      </trkpt>
      <trkpt lat="43.21419" lon="2.32297">
        <ele>162.826025</ele>
        <time>2023-01-05T12:31:01.936Z</time>
      </trkpt>
      <trkpt lat="43.21413" lon="2.32306">
        <ele>162.754977</ele>
        <time>2023-01-05T12:31:03.945Z</time>
      </trkpt>
      <trkpt lat="43.21403" lon="2.32318">
        <ele>162.654161</ele>
        <time>2023-01-05T12:31:06.948Z</time>
      </trkpt>
      <trkpt lat="43.2139" lon="2.32321">
        <ele>162.695492</ele>
        <time>2023-01-05T12:31:09.967Z</time>
      </trkpt>
      <trkpt lat="43.21377" lon="2.32323">
        <ele>162.766153</ele>
        <time>2023-01-05T12:31:12.929Z</time>
      </trkpt>
      <trkpt lat="43.21367" lon="2.32334">
        <ele>162.838221</ele>
        <time>2023-01-05T12:31:15.928Z</time>
      </trkpt>
      <trkpt lat="43.21363" lon="2.32351">
        <ele>162.908281</ele>
        <time>2023-01-05T12:31:18.931Z</time>
      </trkpt>
      <trkpt lat="43.21366" lon="2.32369">
        <ele>162.98107</ele>
        <time>2023-01-05T12:31:21.934Z</time>
      </trkpt>
      <trkpt lat="43.21367" lon="2.32388">
        <ele>163.055184</ele>
        <time>2023-01-05T12:31:24.939Z</time>
      </trkpt>
      <trkpt lat="43.21365" lon="2.32401">
        <ele>163.111624</ele>
        <time>2023-01-05T12:31:26.928Z</time>
      </trkpt>
      <trkpt lat="43.21361" lon="2.32414">
        <ele>163.168845</ele>
        <time>2023-01-05T12:31:28.921Z</time>
      </trkpt>
      <trkpt lat="43.21356" lon="2.32428">
        <ele>163.227279</ele>
        <time>2023-01-05T12:31:30.929Z</time>
      </trkpt>
      <trkpt lat="43.21352" lon="2.32442">
        <ele>163.290519</ele>
        <time>2023-01-05T12:31:32.937Z</time>
      </trkpt>
      <trkpt lat="43.21347" lon="2.32456">
        <ele>163.351195</ele>
        <time>2023-01-05T12:31:34.924Z</time>
      </trkpt>
      <trkpt lat="43.21342" lon="2.32469">
        <ele>163.409894</ele>
        <time>2023-01-05T12:31:36.920Z</time>
      </trkpt>
      <trkpt lat="43.21336" lon="2.32482">
        <ele>163.469387</ele>
        <time>2023-01-05T12:31:38.944Z</time>
      </trkpt>
      <trkpt lat="43.21331" lon="2.32495">
        <ele>163.527224</ele>
        <time>2023-01-05T12:31:40.937Z</time>
      </trkpt>
      <trkpt lat="43.21327" lon="2.32508">
        <ele>163.582541</ele>
        <time>2023-01-05T12:31:42.944Z</time>
      </trkpt>
      <trkpt lat="43.21323" lon="2.3252">
        <ele>163.631538</ele>
        <time>2023-01-05T12:31:44.943Z</time>
      </trkpt>
      <trkpt lat="43.21319" lon="2.32531">
        <ele>163.66728</ele>
        <time>2023-01-05T12:31:46.949Z</time>
      </trkpt>
      <trkpt lat="43.21313" lon="2.32545">
        <ele>163.715196</ele>
        <time>2023-01-05T12:31:49.936Z</time>
      </trkpt>
      <trkpt lat="43.21308" lon="2.3256">
        <ele>163.760511</ele>
        <time>2023-01-05T12:31:52.955Z</time>
      </trkpt>
      <trkpt lat="43.21303" lon="2.32575">
        <ele>163.809693</ele>
        <time>2023-01-05T12:31:55.928Z</time>
      </trkpt>
      <trkpt lat="43.21298" lon="2.32592">
        <ele>163.862685</ele>
        <time>2023-01-05T12:31:58.945Z</time>
      </trkpt>
      <trkpt lat="43.21294" lon="2.32604">
        <ele>163.899793</ele>
        <time>2023-01-05T12:32:00.934Z</time>
      </trkpt>
      <trkpt lat="43.2129" lon="2.32616">
        <ele>163.937753</ele>
        <time>2023-01-05T12:32:02.936Z</time>
      </trkpt>
      <trkpt lat="43.21285" lon="2.32633">
        <ele>163.990001</ele>
        <time>2023-01-05T12:32:05.926Z</time>
      </trkpt>
      <trkpt lat="43.21281" lon="2.32648">
        <ele>164.036694</ele>
        <time>2023-01-05T12:32:08.954Z</time>
      </trkpt>
      <trkpt lat="43.21277" lon="2.32662">
        <ele>164.07999</ele>
        <time>2023-01-05T12:32:11.954Z</time>
      </trkpt>
      <trkpt lat="43.21272" lon="2.32673">
        <ele>164.118288</ele>
        <time>2023-01-05T12:32:14.956Z</time>
      </trkpt>
      <trkpt lat="43.21262" lon="2.32675">
        <ele>164.158386</ele>
        <time>2023-01-05T12:32:17.936Z</time>
      </trkpt>
      <trkpt lat="43.21251" lon="2.32672">
        <ele>164.202925</ele>
        <time>2023-01-05T12:32:20.950Z</time>
      </trkpt>
      <trkpt lat="43.2124" lon="2.3267">
        <ele>164.247217</ele>
        <time>2023-01-05T12:32:23.933Z</time>
      </trkpt>
      <trkpt lat="43.21229" lon="2.32667">
        <ele>164.291171</ele>
        <time>2023-01-05T12:32:26.933Z</time>
      </trkpt>
      <trkpt lat="43.21218" lon="2.32663">
        <ele>164.312236</ele>
        <time>2023-01-05T12:32:29.935Z</time>
      </trkpt>
      <trkpt lat="43.21206" lon="2.32662">
        <ele>164.114504</ele>
        <time>2023-01-05T12:32:32.937Z</time>
      </trkpt>
      <trkpt lat="43.21194" lon="2.3266">
        <ele>163.909842</ele>
        <time>2023-01-05T12:32:35.934Z</time>
      </trkpt>
      <trkpt lat="43.21183" lon="2.32657">
        <ele>163.712524</ele>
        <time>2023-01-05T12:32:38.953Z</time>
      </trkpt>
      <trkpt lat="43.21172" lon="2.32655">
        <ele>163.534047</ele>
        <time>2023-01-05T12:32:41.934Z</time>
      </trkpt>
      <trkpt lat="43.21163" lon="2.32653">
        <ele>163.381092</ele>
        <time>2023-01-05T12:32:44.951Z</time>
      </trkpt>
      <trkpt lat="43.21154" lon="2.3265">
        <ele>163.2194</ele>
        <time>2023-01-05T12:32:47.952Z</time>
      </trkpt>
      <trkpt lat="43.21145" lon="2.3265">
        <ele>163.064385</ele>
        <time>2023-01-05T12:32:50.947Z</time>
      </trkpt>
      <trkpt lat="43.21136" lon="2.3265">
        <ele>162.912814</ele>
        <time>2023-01-05T12:32:53.939Z</time>
      </trkpt>
      <trkpt lat="43.21125" lon="2.32653">
        <ele>162.730593</ele>
        <time>2023-01-05T12:32:57.949Z</time>
      </trkpt>
      <trkpt lat="43.21122" lon="2.32666">
        <ele>162.566604</ele>
        <time>2023-01-05T12:33:00.939Z</time>
      </trkpt>
      <trkpt lat="43.21122" lon="2.32682">
        <ele>162.372462</ele>
        <time>2023-01-05T12:33:03.949Z</time>
      </trkpt>
      <trkpt lat="43.21122" lon="2.32698">
        <ele>162.171107</ele>
        <time>2023-01-05T12:33:06.951Z</time>
      </trkpt>
      <trkpt lat="43.21122" lon="2.32715">
        <ele>161.969753</ele>
        <time>2023-01-05T12:33:09.950Z</time>
      </trkpt>
      <trkpt lat="43.21121" lon="2.32731">
        <ele>161.771162</ele>
        <time>2023-01-05T12:33:12.934Z</time>
      </trkpt>
      <trkpt lat="43.21121" lon="2.32747">
        <ele>161.576026</ele>
        <time>2023-01-05T12:33:15.940Z</time>
      </trkpt>
      <trkpt lat="43.21121" lon="2.32763">
        <ele>161.378458</ele>
        <time>2023-01-05T12:33:18.934Z</time>
      </trkpt>
      <trkpt lat="43.21122" lon="2.32779">
        <ele>161.431168</ele>
        <time>2023-01-05T12:33:21.944Z</time>
      </trkpt>
      <trkpt lat="43.21123" lon="2.32794">
        <ele>161.631851</ele>
        <time>2023-01-05T12:33:24.936Z</time>
      </trkpt>
      <trkpt lat="43.21125" lon="2.32809">
        <ele>161.827085</ele>
        <time>2023-01-05T12:33:27.927Z</time>
      </trkpt>
      <trkpt lat="43.21128" lon="2.32826">
        <ele>162.042501</ele>
        <time>2023-01-05T12:33:30.940Z</time>
      </trkpt>
      <trkpt lat="43.21131" lon="2.32841">
        <ele>162.252002</ele>
        <time>2023-01-05T12:33:33.955Z</time>
      </trkpt>
      <trkpt lat="43.21135" lon="2.32855">
        <ele>162.436737</ele>
        <time>2023-01-05T12:33:36.953Z</time>
      </trkpt>
      <trkpt lat="43.2114" lon="2.32868">
        <ele>162.616024</ele>
        <time>2023-01-05T12:33:39.937Z</time>
      </trkpt>
      <trkpt lat="43.21145" lon="2.32879">
        <ele>162.79727</ele>
        <time>2023-01-05T12:33:42.944Z</time>
      </trkpt>
      <trkpt lat="43.21151" lon="2.32893">
        <ele>163.002856</ele>
        <time>2023-01-05T12:33:45.932Z</time>
      </trkpt>
      <trkpt lat="43.21156" lon="2.32909">
        <ele>163.213074</ele>
        <time>2023-01-05T12:33:48.933Z</time>
      </trkpt>
      <trkpt lat="43.21161" lon="2.32923">
        <ele>163.423088</ele>
        <time>2023-01-05T12:33:51.934Z</time>
      </trkpt>
      <trkpt lat="43.21166" lon="2.32938">
        <ele>163.625766</ele>
        <time>2023-01-05T12:33:54.932Z</time>
      </trkpt>
      <trkpt lat="43.2117" lon="2.32949">
        <ele>163.792383</ele>
        <time>2023-01-05T12:33:57.936Z</time>
      </trkpt>
      <trkpt lat="43.21174" lon="2.32963">
        <ele>163.98434</ele>
        <time>2023-01-05T12:34:01.949Z</time>
      </trkpt>
      <trkpt lat="43.21179" lon="2.32974">
        <ele>164.148079</ele>
        <time>2023-01-05T12:34:04.950Z</time>
      </trkpt>
      <trkpt lat="43.21184" lon="2.32987">
        <ele>164.330132</ele>
        <time>2023-01-05T12:34:07.931Z</time>
      </trkpt>
      <trkpt lat="43.21188" lon="2.32999">
        <ele>164.465971</ele>
        <time>2023-01-05T12:34:10.928Z</time>
      </trkpt>
      <trkpt lat="43.21192" lon="2.3301">
        <ele>164.480562</ele>
        <time>2023-01-05T12:34:13.934Z</time>
      </trkpt>
      <trkpt lat="43.21201" lon="2.33019">
        <ele>164.497945</ele>
        <time>2023-01-05T12:34:17.932Z</time>
      </trkpt>
      <trkpt lat="43.21211" lon="2.33024">
        <ele>164.515416</ele>
        <time>2023-01-05T12:34:21.927Z</time>
      </trkpt>
      <trkpt lat="43.21218" lon="2.33033">
        <ele>164.530759</ele>
        <time>2023-01-05T12:34:24.930Z</time>
      </trkpt>
      <trkpt lat="43.21223" lon="2.33045">
        <ele>164.547389</ele>
        <time>2023-01-05T12:34:27.947Z</time>
      </trkpt>
      <trkpt lat="43.21226" lon="2.33059">
        <ele>164.563467</ele>
        <time>2023-01-05T12:34:31.929Z</time>
      </trkpt>
      <trkpt lat="43.21226" lon="2.33044">
        <ele>164.580567</ele>
        <time>2023-01-05T12:35:16.983Z</time>
      </trkpt>
      <trkpt lat="43.21222" lon="2.33029">
        <ele>164.599141</ele>
        <time>2023-01-05T12:35:20.929Z</time>
      </trkpt>
      <trkpt lat="43.21218" lon="2.33017">
        <ele>164.614243</ele>
        <time>2023-01-05T12:35:23.939Z</time>
      </trkpt>
      <trkpt lat="43.21215" lon="2.33005">
        <ele>164.628825</ele>
        <time>2023-01-05T12:35:26.949Z</time>
      </trkpt>
      <trkpt lat="43.2121" lon="2.32992">
        <ele>164.647229</ele>
        <time>2023-01-05T12:35:30.933Z</time>
      </trkpt>
      <trkpt lat="43.21198" lon="2.3299">
        <ele>164.665537</ele>
        <time>2023-01-05T12:35:34.930Z</time>
      </trkpt>
      <trkpt lat="43.21193" lon="2.33004">
        <ele>164.68395</ele>
        <time>2023-01-05T12:35:38.922Z</time>
      </trkpt>
      <trkpt lat="43.21193" lon="2.33018">
        <ele>164.699998</ele>
        <time>2023-01-05T12:35:41.941Z</time>
      </trkpt>
      <trkpt lat="43.21192" lon="2.33034">
        <ele>164.718086</ele>
        <time>2023-01-05T12:35:44.936Z</time>
      </trkpt>
      <trkpt lat="43.21189" lon="2.33049">
        <ele>164.737107</ele>
        <time>2023-01-05T12:35:47.930Z</time>
      </trkpt>
      <trkpt lat="43.21185" lon="2.33065">
        <ele>164.725204</ele>
        <time>2023-01-05T12:35:50.940Z</time>
      </trkpt>
      <trkpt lat="43.21181" lon="2.33081">
        <ele>164.655759</ele>
        <time>2023-01-05T12:35:53.949Z</time>
      </trkpt>
      <trkpt lat="43.21177" lon="2.33093">
        <ele>164.60515</ele>
        <time>2023-01-05T12:35:55.951Z</time>
      </trkpt>
      <trkpt lat="43.21172" lon="2.33104">
        <ele>164.551812</ele>
        <time>2023-01-05T12:35:57.941Z</time>
      </trkpt>
      <trkpt lat="43.21168" lon="2.33116">
        <ele>164.497144</ele>
        <time>2023-01-05T12:35:59.931Z</time>
      </trkpt>
      <trkpt lat="43.21165" lon="2.33129">
        <ele>164.443314</ele>
        <time>2023-01-05T12:36:01.950Z</time>
      </trkpt>
      <trkpt lat="43.2116" lon="2.33145">
        <ele>164.372023</ele>
        <time>2023-01-05T12:36:04.935Z</time>
      </trkpt>
      <trkpt lat="43.21155" lon="2.3316">
        <ele>164.304596</ele>
        <time>2023-01-05T12:36:07.933Z</time>
      </trkpt>
      <trkpt lat="43.21151" lon="2.33175">
        <ele>164.239538</ele>
        <time>2023-01-05T12:36:10.948Z</time>
      </trkpt>
      <trkpt lat="43.21147" lon="2.33191">
        <ele>164.17027</ele>
        <time>2023-01-05T12:36:13.952Z</time>
      </trkpt>
      <trkpt lat="43.21143" lon="2.33203">
        <ele>164.119901</ele>
        <time>2023-01-05T12:36:15.953Z</time>
      </trkpt>
      <trkpt lat="43.21138" lon="2.33218">
        <ele>164.052436</ele>
        <time>2023-01-05T12:36:18.950Z</time>
      </trkpt>
      <trkpt lat="43.21131" lon="2.33232">
        <ele>163.982898</ele>
        <time>2023-01-05T12:36:21.941Z</time>
      </trkpt>
      <trkpt lat="43.21127" lon="2.33246">
        <ele>163.922746</ele>
        <time>2023-01-05T12:36:24.949Z</time>
      </trkpt>
      <trkpt lat="43.21123" lon="2.33261">
        <ele>163.859341</ele>
        <time>2023-01-05T12:36:27.946Z</time>
      </trkpt>
      <trkpt lat="43.21121" lon="2.33276">
        <ele>163.797311</ele>
        <time>2023-01-05T12:36:30.926Z</time>
      </trkpt>
      <trkpt lat="43.21119" lon="2.3329">
        <ele>163.824079</ele>
        <time>2023-01-05T12:36:33.955Z</time>
      </trkpt>
      <trkpt lat="43.21117" lon="2.33306">
        <ele>164.239482</ele>
        <time>2023-01-05T12:36:36.947Z</time>
      </trkpt>
      <trkpt lat="43.21115" lon="2.33322">
        <ele>164.662697</ele>
        <time>2023-01-05T12:36:39.948Z</time>
      </trkpt>
      <trkpt lat="43.21113" lon="2.33336">
        <ele>165.059253</ele>
        <time>2023-01-05T12:36:42.934Z</time>
      </trkpt>
      <trkpt lat="43.21111" lon="2.3335">
        <ele>165.416278</ele>
        <time>2023-01-05T12:36:45.938Z</time>
      </trkpt>
      <trkpt lat="43.21109" lon="2.33363">
        <ele>165.777724</ele>
        <time>2023-01-05T12:36:48.925Z</time>
      </trkpt>
      <trkpt lat="43.21107" lon="2.33379">
        <ele>166.200898</ele>
        <time>2023-01-05T12:36:52.948Z</time>
      </trkpt>
      <trkpt lat="43.21106" lon="2.33393">
        <ele>166.571295</ele>
        <time>2023-01-05T12:36:55.951Z</time>
      </trkpt>
      <trkpt lat="43.21105" lon="2.33405">
        <ele>166.897616</ele>
        <time>2023-01-05T12:36:58.951Z</time>
      </trkpt>
      <trkpt lat="43.21104" lon="2.33419">
        <ele>167.258824</ele>
        <time>2023-01-05T12:37:01.947Z</time>
      </trkpt>
      <trkpt lat="43.21104" lon="2.33432">
        <ele>167.605013</ele>
        <time>2023-01-05T12:37:04.936Z</time>
      </trkpt>
      <trkpt lat="43.21104" lon="2.33446">
        <ele>167.981108</ele>
        <time>2023-01-05T12:37:07.953Z</time>
      </trkpt>
      <trkpt lat="43.21103" lon="2.3346">
        <ele>168.350204</ele>
        <time>2023-01-05T12:37:10.948Z</time>
      </trkpt>
      <trkpt lat="43.21102" lon="2.33473">
        <ele>168.71252</ele>
        <time>2023-01-05T12:37:13.936Z</time>
      </trkpt>
      <trkpt lat="43.21102" lon="2.33487">
        <ele>169.062011</ele>
        <time>2023-01-05T12:37:16.930Z</time>
      </trkpt>
      <trkpt lat="43.21101" lon="2.335">
        <ele>169.422052</ele>
        <time>2023-01-05T12:37:20.937Z</time>
      </trkpt>
      <trkpt lat="43.21101" lon="2.33514">
        <ele>169.792165</ele>
        <time>2023-01-05T12:37:27.933Z</time>
      </trkpt>
      <trkpt lat="43.21102" lon="2.33528">
        <ele>170.156381</ele>
        <time>2023-01-05T12:37:31.930Z</time>
      </trkpt>
      <trkpt lat="43.21101" lon="2.33545">
        <ele>170.214779</ele>
        <time>2023-01-05T12:37:34.943Z</time>
      </trkpt>
      <trkpt lat="43.21101" lon="2.33563">
        <ele>170.134213</ele>
        <time>2023-01-05T12:37:37.949Z</time>
      </trkpt>
      <trkpt lat="43.21101" lon="2.33576">
        <ele>170.077049</ele>
        <time>2023-01-05T12:37:39.932Z</time>
      </trkpt>
      <trkpt lat="43.21101" lon="2.3359">
        <ele>170.019378</ele>
        <time>2023-01-05T12:37:41.931Z</time>
      </trkpt>
      <trkpt lat="43.21101" lon="2.33603">
        <ele>169.960457</ele>
        <time>2023-01-05T12:37:43.931Z</time>
      </trkpt>
      <trkpt lat="43.21101" lon="2.33618">
        <ele>169.896756</ele>
        <time>2023-01-05T12:37:45.929Z</time>
      </trkpt>
      <trkpt lat="43.211" lon="2.33633">
        <ele>169.832222</ele>
        <time>2023-01-05T12:37:47.947Z</time>
      </trkpt>
      <trkpt lat="43.211" lon="2.33648">
        <ele>169.765796</ele>
        <time>2023-01-05T12:37:49.934Z</time>
      </trkpt>
      <trkpt lat="43.21099" lon="2.33664">
        <ele>169.698978</ele>
        <time>2023-01-05T12:37:51.940Z</time>
      </trkpt>
      <trkpt lat="43.21098" lon="2.33679">
        <ele>169.633924</ele>
        <time>2023-01-05T12:37:53.937Z</time>
      </trkpt>
      <trkpt lat="43.21098" lon="2.33694">
        <ele>169.567971</ele>
        <time>2023-01-05T12:37:55.945Z</time>
      </trkpt>
      <trkpt lat="43.21097" lon="2.33709">
        <ele>169.502514</ele>
        <time>2023-01-05T12:37:57.946Z</time>
      </trkpt>
      <trkpt lat="43.21097" lon="2.33724">
        <ele>169.435826</ele>
        <time>2023-01-05T12:37:59.947Z</time>
      </trkpt>
      <trkpt lat="43.21097" lon="2.33739">
        <ele>169.372965</ele>
        <time>2023-01-05T12:38:01.938Z</time>
      </trkpt>
      <trkpt lat="43.21096" lon="2.33754">
        <ele>169.307403</ele>
        <time>2023-01-05T12:38:03.933Z</time>
      </trkpt>
      <trkpt lat="43.21095" lon="2.3377">
        <ele>169.23935</ele>
        <time>2023-01-05T12:38:05.934Z</time>
      </trkpt>
      <trkpt lat="43.21095" lon="2.33784">
        <ele>169.169851</ele>
        <time>2023-01-05T12:38:07.929Z</time>
      </trkpt>
      <trkpt lat="43.21095" lon="2.338">
        <ele>169.088326</ele>
        <time>2023-01-05T12:38:09.935Z</time>
      </trkpt>
      <trkpt lat="43.21095" lon="2.33815">
        <ele>169.004652</ele>
        <time>2023-01-05T12:38:11.936Z</time>
      </trkpt>
      <trkpt lat="43.21095" lon="2.33831">
        <ele>168.920432</ele>
        <time>2023-01-05T12:38:13.931Z</time>
      </trkpt>
      <trkpt lat="43.21095" lon="2.33846">
        <ele>168.83834</ele>
        <time>2023-01-05T12:38:15.934Z</time>
      </trkpt>
      <trkpt lat="43.21095" lon="2.33862">
        <ele>168.754666</ele>
        <time>2023-01-05T12:38:17.929Z</time>
      </trkpt>
      <trkpt lat="43.21094" lon="2.33876">
        <ele>168.676328</ele>
        <time>2023-01-05T12:38:19.937Z</time>
      </trkpt>
      <trkpt lat="43.21093" lon="2.33892">
        <ele>168.59293</ele>
        <time>2023-01-05T12:38:21.936Z</time>
      </trkpt>
      <trkpt lat="43.21093" lon="2.33907">
        <ele>168.513383</ele>
        <time>2023-01-05T12:38:23.936Z</time>
      </trkpt>
      <trkpt lat="43.21092" lon="2.33922">
        <ele>168.431991</ele>
        <time>2023-01-05T12:38:25.952Z</time>
      </trkpt>
      <trkpt lat="43.21091" lon="2.33938">
        <ele>168.347043</ele>
        <time>2023-01-05T12:38:27.935Z</time>
      </trkpt>
      <trkpt lat="43.21091" lon="2.33953">
        <ele>168.263359</ele>
        <time>2023-01-05T12:38:29.950Z</time>
      </trkpt>
      <trkpt lat="43.2109" lon="2.33968">
        <ele>168.183358</ele>
        <time>2023-01-05T12:38:31.938Z</time>
      </trkpt>
      <trkpt lat="43.21089" lon="2.33982">
        <ele>168.105899</ele>
        <time>2023-01-05T12:38:33.956Z</time>
      </trkpt>
      <trkpt lat="43.21089" lon="2.33998">
        <ele>168.023808</ele>
        <time>2023-01-05T12:38:35.939Z</time>
      </trkpt>
      <trkpt lat="43.21089" lon="2.34013">
        <ele>167.942253</ele>
        <time>2023-01-05T12:38:37.944Z</time>
      </trkpt>
      <trkpt lat="43.21089" lon="2.34028">
        <ele>167.867356</ele>
        <time>2023-01-05T12:38:39.948Z</time>
      </trkpt>
      <trkpt lat="43.21087" lon="2.34043">
        <ele>167.824868</ele>
        <time>2023-01-05T12:38:41.951Z</time>
      </trkpt>
      <trkpt lat="43.21086" lon="2.34058">
        <ele>167.780064</ele>
        <time>2023-01-05T12:38:43.929Z</time>
      </trkpt>
      <trkpt lat="43.21085" lon="2.34073">
        <ele>167.737079</ele>
        <time>2023-01-05T12:38:45.940Z</time>
      </trkpt>
      <trkpt lat="43.21084" lon="2.34086">
        <ele>167.697144</ele>
        <time>2023-01-05T12:38:47.951Z</time>
      </trkpt>
      <trkpt lat="43.21081" lon="2.34099">
        <ele>167.658513</ele>
        <time>2023-01-05T12:38:49.950Z</time>
      </trkpt>
      <trkpt lat="43.21081" lon="2.34113">
        <ele>167.617751</ele>
        <time>2023-01-05T12:38:51.929Z</time>
      </trkpt>
      <trkpt lat="43.21083" lon="2.34129">
        <ele>167.569691</ele>
        <time>2023-01-05T12:38:54.939Z</time>
      </trkpt>
      <trkpt lat="43.21085" lon="2.34146">
        <ele>167.520701</ele>
        <time>2023-01-05T12:38:57.930Z</time>
      </trkpt>
      <trkpt lat="43.21084" lon="2.3416">
        <ele>167.479349</ele>
        <time>2023-01-05T12:39:00.933Z</time>
      </trkpt>
      <trkpt lat="43.21084" lon="2.34175">
        <ele>167.437698</ele>
        <time>2023-01-05T12:39:03.941Z</time>
      </trkpt>
      <trkpt lat="43.21083" lon="2.3419">
        <ele>167.393007</ele>
        <time>2023-01-05T12:39:06.944Z</time>
      </trkpt>
      <trkpt lat="43.21082" lon="2.34206">
        <ele>167.345703</ele>
        <time>2023-01-05T12:39:09.932Z</time>
      </trkpt>
      <trkpt lat="43.21082" lon="2.34223">
        <ele>167.297066</ele>
        <time>2023-01-05T12:39:12.928Z</time>
      </trkpt>
      <trkpt lat="43.21081" lon="2.34238">
        <ele>167.251505</ele>
        <time>2023-01-05T12:39:15.936Z</time>
      </trkpt>
      <trkpt lat="43.2108" lon="2.34255">
        <ele>167.203911</ele>
        <time>2023-01-05T12:39:18.954Z</time>
      </trkpt>
      <trkpt lat="43.2108" lon="2.34269">
        <ele>167.16373</ele>
        <time>2023-01-05T12:39:21.923Z</time>
      </trkpt>
      <trkpt lat="43.2108" lon="2.34284">
        <ele>167.259395</ele>
        <time>2023-01-05T12:39:24.932Z</time>
      </trkpt>
      <trkpt lat="43.21081" lon="2.34297">
        <ele>167.363603</ele>
        <time>2023-01-05T12:39:27.931Z</time>
      </trkpt>
      <trkpt lat="43.2108" lon="2.3431">
        <ele>167.46018</ele>
        <time>2023-01-05T12:39:30.937Z</time>
      </trkpt>
      <trkpt lat="43.21079" lon="2.34323">
        <ele>167.557931</ele>
        <time>2023-01-05T12:39:33.936Z</time>
      </trkpt>
      <trkpt lat="43.21078" lon="2.34338">
        <ele>167.673995</ele>
        <time>2023-01-05T12:39:36.933Z</time>
      </trkpt>
      <trkpt lat="43.21078" lon="2.34354">
        <ele>167.798317</ele>
        <time>2023-01-05T12:39:39.931Z</time>
      </trkpt>
      <trkpt lat="43.21077" lon="2.3437">
        <ele>167.923259</ele>
        <time>2023-01-05T12:39:42.966Z</time>
      </trkpt>
      <trkpt lat="43.21077" lon="2.34386">
        <ele>168.042075</ele>
        <time>2023-01-05T12:39:45.927Z</time>
      </trkpt>
      <trkpt lat="43.21075" lon="2.34401">
        <ele>168.16324</ele>
        <time>2023-01-05T12:39:48.944Z</time>
      </trkpt>
      <trkpt lat="43.21072" lon="2.34415">
        <ele>168.275232</ele>
        <time>2023-01-05T12:39:51.934Z</time>
      </trkpt>
      <trkpt lat="43.21068" lon="2.3443">
        <ele>168.395889</ele>
        <time>2023-01-05T12:39:54.931Z</time>
      </trkpt>
      <trkpt lat="43.21066" lon="2.34444">
        <ele>168.503678</ele>
        <time>2023-01-05T12:39:57.935Z</time>
      </trkpt>
      <trkpt lat="43.21063" lon="2.34457">
        <ele>168.607096</ele>
        <time>2023-01-05T12:40:00.943Z</time>
      </trkpt>
      <trkpt lat="43.21061" lon="2.34471">
        <ele>168.714294</ele>
        <time>2023-01-05T12:40:04.929Z</time>
      </trkpt>
      <trkpt lat="43.21058" lon="2.34483">
        <ele>168.811549</ele>
        <time>2023-01-05T12:40:08.950Z</time>
      </trkpt>
      <trkpt lat="43.21054" lon="2.34495">
        <ele>168.917667</ele>
        <time>2023-01-05T12:40:15.933Z</time>
      </trkpt>
      <trkpt lat="43.21051" lon="2.34508">
        <ele>169.022131</ele>
        <time>2023-01-05T12:40:20.931Z</time>
      </trkpt>
      <trkpt lat="43.21049" lon="2.34521">
        <ele>169.094032</ele>
        <time>2023-01-05T12:40:23.929Z</time>
      </trkpt>
      <trkpt lat="43.21047" lon="2.34536">
        <ele>169.166199</ele>
        <time>2023-01-05T12:40:26.930Z</time>
      </trkpt>
      <trkpt lat="43.21044" lon="2.34551">
        <ele>169.244231</ele>
        <time>2023-01-05T12:40:30.929Z</time>
      </trkpt>
      <trkpt lat="43.21041" lon="2.34569">
        <ele>169.331404</ele>
        <time>2023-01-05T12:40:33.931Z</time>
      </trkpt>
      <trkpt lat="43.2104" lon="2.34583">
        <ele>169.394996</ele>
        <time>2023-01-05T12:40:35.930Z</time>
      </trkpt>
      <trkpt lat="43.21037" lon="2.34599">
        <ele>169.476718</ele>
        <time>2023-01-05T12:40:38.928Z</time>
      </trkpt>
      <trkpt lat="43.21034" lon="2.34616">
        <ele>169.559834</ele>
        <time>2023-01-05T12:40:41.930Z</time>
      </trkpt>
      <trkpt lat="43.21032" lon="2.34632">
        <ele>169.638306</ele>
        <time>2023-01-05T12:40:44.930Z</time>
      </trkpt>
      <trkpt lat="43.2103" lon="2.34649">
        <ele>169.720702</ele>
        <time>2023-01-05T12:40:47.937Z</time>
      </trkpt>
      <trkpt lat="43.21029" lon="2.34667">
        <ele>169.802822</ele>
        <time>2023-01-05T12:40:50.936Z</time>
      </trkpt>
      <trkpt lat="43.21029" lon="2.34684">
        <ele>169.88485</ele>
        <time>2023-01-05T12:40:53.936Z</time>
      </trkpt>
      <trkpt lat="43.21029" lon="2.34697">
        <ele>169.950214</ele>
        <time>2023-01-05T12:40:55.948Z</time>
      </trkpt>
      <trkpt lat="43.21029" lon="2.3471">
        <ele>170.010784</ele>
        <time>2023-01-05T12:40:57.932Z</time>
      </trkpt>
      <trkpt lat="43.21029" lon="2.34723">
        <ele>170.073257</ele>
        <time>2023-01-05T12:40:59.935Z</time>
      </trkpt>
      <trkpt lat="43.21029" lon="2.34738">
        <ele>170.142912</ele>
        <time>2023-01-05T12:41:01.933Z</time>
      </trkpt>
      <trkpt lat="43.21029" lon="2.34752">
        <ele>170.209213</ele>
        <time>2023-01-05T12:41:03.934Z</time>
      </trkpt>
      <trkpt lat="43.21029" lon="2.34767">
        <ele>170.259076</ele>
        <time>2023-01-05T12:41:05.930Z</time>
      </trkpt>
      <trkpt lat="43.2103" lon="2.34784">
        <ele>170.307129</ele>
        <time>2023-01-05T12:41:07.942Z</time>
      </trkpt>
      <trkpt lat="43.2103" lon="2.34801">
        <ele>170.352461</ele>
        <time>2023-01-05T12:41:09.929Z</time>
      </trkpt>
      <trkpt lat="43.21032" lon="2.34819">
        <ele>170.402488</ele>
        <time>2023-01-05T12:41:11.936Z</time>
      </trkpt>
      <trkpt lat="43.21032" lon="2.34837">
        <ele>170.453939</ele>
        <time>2023-01-05T12:41:13.938Z</time>
      </trkpt>
      <trkpt lat="43.21032" lon="2.34854">
        <ele>170.501502</ele>
        <time>2023-01-05T12:41:15.937Z</time>
      </trkpt>
      <trkpt lat="43.21032" lon="2.34871">
        <ele>170.547669</ele>
        <time>2023-01-05T12:41:17.953Z</time>
      </trkpt>
      <trkpt lat="43.21032" lon="2.34888">
        <ele>170.596617</ele>
        <time>2023-01-05T12:41:19.938Z</time>
      </trkpt>
      <trkpt lat="43.21032" lon="2.34906">
        <ele>170.6467</ele>
        <time>2023-01-05T12:41:21.938Z</time>
      </trkpt>
      <trkpt lat="43.21033" lon="2.34924">
        <ele>170.696297</ele>
        <time>2023-01-05T12:41:23.935Z</time>
      </trkpt>
      <trkpt lat="43.21033" lon="2.3494">
        <ele>170.740809</ele>
        <time>2023-01-05T12:41:25.948Z</time>
      </trkpt>
      <trkpt lat="43.21034" lon="2.34954">
        <ele>170.779835</ele>
        <time>2023-01-05T12:41:27.933Z</time>
      </trkpt>
      <trkpt lat="43.21034" lon="2.3497">
        <ele>170.822413</ele>
        <time>2023-01-05T12:41:29.935Z</time>
      </trkpt>
      <trkpt lat="43.21034" lon="2.34985">
        <ele>170.865243</ele>
        <time>2023-01-05T12:41:31.928Z</time>
      </trkpt>
      <trkpt lat="43.21033" lon="2.35">
        <ele>170.908276</ele>
        <time>2023-01-05T12:41:33.931Z</time>
      </trkpt>
      <trkpt lat="43.21033" lon="2.35017">
        <ele>170.430617</ele>
        <time>2023-01-05T12:41:35.943Z</time>
      </trkpt>
      <trkpt lat="43.21034" lon="2.35035">
        <ele>169.874504</ele>
        <time>2023-01-05T12:41:37.951Z</time>
      </trkpt>
      <trkpt lat="43.21036" lon="2.35054">
        <ele>169.301683</ele>
        <time>2023-01-05T12:41:39.950Z</time>
      </trkpt>
      <trkpt lat="43.21036" lon="2.35074">
        <ele>168.684135</ele>
        <time>2023-01-05T12:41:41.951Z</time>
      </trkpt>
      <trkpt lat="43.21037" lon="2.35093">
        <ele>168.094812</ele>
        <time>2023-01-05T12:41:43.932Z</time>
      </trkpt>
      <trkpt lat="43.21037" lon="2.35111">
        <ele>167.529531</ele>
        <time>2023-01-05T12:41:45.949Z</time>
      </trkpt>
      <trkpt lat="43.21037" lon="2.35127">
        <ele>167.040996</ele>
        <time>2023-01-05T12:41:47.934Z</time>
      </trkpt>
      <trkpt lat="43.21036" lon="2.35141">
        <ele>166.607939</ele>
        <time>2023-01-05T12:41:49.929Z</time>
      </trkpt>
      <trkpt lat="43.21034" lon="2.35155">
        <ele>166.182945</ele>
        <time>2023-01-05T12:41:51.951Z</time>
      </trkpt>
      <trkpt lat="43.21035" lon="2.35169">
        <ele>165.761984</ele>
        <time>2023-01-05T12:41:53.931Z</time>
      </trkpt>
      <trkpt lat="43.21034" lon="2.35183">
        <ele>165.328736</ele>
        <time>2023-01-05T12:41:55.925Z</time>
      </trkpt>
      <trkpt lat="43.21035" lon="2.35197">
        <ele>164.901528</ele>
        <time>2023-01-05T12:41:57.931Z</time>
      </trkpt>
      <trkpt lat="43.21035" lon="2.3521">
        <ele>164.492744</ele>
        <time>2023-01-05T12:41:59.943Z</time>
      </trkpt>
      <trkpt lat="43.21032" lon="2.35227">
        <ele>163.948219</ele>
        <time>2023-01-05T12:42:02.936Z</time>
      </trkpt>
      <trkpt lat="43.21024" lon="2.35241">
        <ele>163.404288</ele>
        <time>2023-01-05T12:42:05.931Z</time>
      </trkpt>
      <trkpt lat="43.21019" lon="2.35258">
        <ele>163.039473</ele>
        <time>2023-01-05T12:42:08.949Z</time>
      </trkpt>
      <trkpt lat="43.21022" lon="2.35274">
        <ele>162.722321</ele>
        <time>2023-01-05T12:42:11.968Z</time>
      </trkpt>
      <trkpt lat="43.21031" lon="2.35286">
        <ele>162.406256</ele>
        <time>2023-01-05T12:42:14.952Z</time>
      </trkpt>
      <trkpt lat="43.21036" lon="2.35301">
        <ele>162.084051</ele>
        <time>2023-01-05T12:42:17.950Z</time>
      </trkpt>
      <trkpt lat="43.21037" lon="2.35314">
        <ele>161.849918</ele>
        <time>2023-01-05T12:42:19.948Z</time>
      </trkpt>
      <trkpt lat="43.21036" lon="2.3533">
        <ele>161.534575</ele>
        <time>2023-01-05T12:42:22.950Z</time>
      </trkpt>
      <trkpt lat="43.21037" lon="2.35345">
        <ele>161.263839</ele>
        <time>2023-01-05T12:42:25.948Z</time>
      </trkpt>
      <trkpt lat="43.21037" lon="2.35361">
        <ele>160.953984</ele>
        <time>2023-01-05T12:42:28.947Z</time>
      </trkpt>
      <trkpt lat="43.21036" lon="2.35378">
        <ele>160.628638</ele>
        <time>2023-01-05T12:42:31.950Z</time>
      </trkpt>
      <trkpt lat="43.21035" lon="2.35395">
        <ele>160.306882</ele>
        <time>2023-01-05T12:42:34.948Z</time>
      </trkpt>
      <trkpt lat="43.21033" lon="2.35409">
        <ele>160.038256</ele>
        <time>2023-01-05T12:42:37.933Z</time>
      </trkpt>
      <trkpt lat="43.21033" lon="2.35423">
        <ele>159.780889</ele>
        <time>2023-01-05T12:42:41.930Z</time>
      </trkpt>
      <trkpt lat="43.21037" lon="2.35435">
        <ele>159.53068</ele>
        <time>2023-01-05T12:43:06.938Z</time>
      </trkpt>
      <trkpt lat="43.21037" lon="2.3545">
        <ele>159.241571</ele>
        <time>2023-01-05T12:43:11.927Z</time>
      </trkpt>
      <trkpt lat="43.21036" lon="2.35464">
        <ele>158.971579</ele>
        <time>2023-01-05T12:43:14.942Z</time>
      </trkpt>
      <trkpt lat="43.21037" lon="2.3548">
        <ele>158.676994</ele>
        <time>2023-01-05T12:43:17.926Z</time>
      </trkpt>
      <trkpt lat="43.21039" lon="2.35496">
        <ele>158.478695</ele>
        <time>2023-01-05T12:43:20.927Z</time>
      </trkpt>
      <trkpt lat="43.2104" lon="2.35512">
        <ele>158.283572</ele>
        <time>2023-01-05T12:43:23.927Z</time>
      </trkpt>
      <trkpt lat="43.21045" lon="2.35525">
        <ele>158.102573</ele>
        <time>2023-01-05T12:43:26.938Z</time>
      </trkpt>
      <trkpt lat="43.21056" lon="2.35531">
        <ele>157.913341</ele>
        <time>2023-01-05T12:43:29.933Z</time>
      </trkpt>
      <trkpt lat="43.21068" lon="2.35532">
        <ele>157.715991</ele>
        <time>2023-01-05T12:43:32.941Z</time>
      </trkpt>
      <trkpt lat="43.21081" lon="2.35532">
        <ele>157.510573</ele>
        <time>2023-01-05T12:43:35.946Z</time>
      </trkpt>
      <trkpt lat="43.21091" lon="2.35533">
        <ele>157.347595</ele>
        <time>2023-01-05T12:43:37.952Z</time>
      </trkpt>
      <trkpt lat="43.21101" lon="2.35533">
        <ele>157.176755</ele>
        <time>2023-01-05T12:43:39.944Z</time>
      </trkpt>
      <trkpt lat="43.2111" lon="2.35535">
        <ele>157.025729</ele>
        <time>2023-01-05T12:43:41.939Z</time>
      </trkpt>
      <trkpt lat="43.21123" lon="2.35536">
        <ele>156.816619</ele>
        <time>2023-01-05T12:43:44.949Z</time>
      </trkpt>
      <trkpt lat="43.21133" lon="2.35538">
        <ele>156.648993</ele>
        <time>2023-01-05T12:43:47.934Z</time>
      </trkpt>
      <trkpt lat="43.21145" lon="2.35539">
        <ele>156.454861</ele>
        <time>2023-01-05T12:43:50.927Z</time>
      </trkpt>
      <trkpt lat="43.21156" lon="2.3554">
        <ele>156.26237</ele>
        <time>2023-01-05T12:43:53.957Z</time>
      </trkpt>
      <trkpt lat="43.21167" lon="2.35543">
        <ele>156.077906</ele>
        <time>2023-01-05T12:43:56.948Z</time>
      </trkpt>
      <trkpt lat="43.21178" lon="2.35547">
        <ele>155.904196</ele>
        <time>2023-01-05T12:43:59.952Z</time>
      </trkpt>
      <trkpt lat="43.21186" lon="2.35553">
        <ele>155.748079</ele>
        <time>2023-01-05T12:44:02.937Z</time>
      </trkpt>
      <trkpt lat="43.21191" lon="2.35565">
        <ele>155.707287</ele>
        <time>2023-01-05T12:44:05.936Z</time>
      </trkpt>
      <trkpt lat="43.2119" lon="2.35578">
        <ele>155.694683</ele>
        <time>2023-01-05T12:44:08.930Z</time>
      </trkpt>
      <trkpt lat="43.21187" lon="2.35593">
        <ele>155.680357</ele>
        <time>2023-01-05T12:44:11.952Z</time>
      </trkpt>
      <trkpt lat="43.21185" lon="2.35609">
        <ele>155.665067</ele>
        <time>2023-01-05T12:44:14.951Z</time>
      </trkpt>
      <trkpt lat="43.21183" lon="2.35624">
        <ele>155.650503</ele>
        <time>2023-01-05T12:44:17.948Z</time>
      </trkpt>
      <trkpt lat="43.21181" lon="2.35638">
        <ele>155.637732</ele>
        <time>2023-01-05T12:44:20.953Z</time>
      </trkpt>
      <trkpt lat="43.21179" lon="2.35653">
        <ele>155.623694</ele>
        <time>2023-01-05T12:44:23.953Z</time>
      </trkpt>
      <trkpt lat="43.21176" lon="2.35669">
        <ele>155.60819</ele>
        <time>2023-01-05T12:44:26.940Z</time>
      </trkpt>
      <trkpt lat="43.21173" lon="2.35682">
        <ele>155.59546</ele>
        <time>2023-01-05T12:44:29.949Z</time>
      </trkpt>
      <trkpt lat="43.21171" lon="2.35697">
        <ele>155.580889</ele>
        <time>2023-01-05T12:44:32.937Z</time>
      </trkpt>
      <trkpt lat="43.21169" lon="2.3571">
        <ele>155.568615</ele>
        <time>2023-01-05T12:44:35.933Z</time>
      </trkpt>
      <trkpt lat="43.21167" lon="2.35724">
        <ele>155.554916</ele>
        <time>2023-01-05T12:44:38.934Z</time>
      </trkpt>
      <trkpt lat="43.21165" lon="2.35738">
        <ele>155.542115</ele>
        <time>2023-01-05T12:44:41.932Z</time>
      </trkpt>
      <trkpt lat="43.21166" lon="2.35751">
        <ele>155.52973</ele>
        <time>2023-01-05T12:44:44.947Z</time>
      </trkpt>
      <trkpt lat="43.21172" lon="2.35763">
        <ele>155.516175</ele>
        <time>2023-01-05T12:44:48.937Z</time>
      </trkpt>
      <trkpt lat="43.21181" lon="2.35771">
        <ele>155.502955</ele>
        <time>2023-01-05T12:44:51.951Z</time>
      </trkpt>
      <trkpt lat="43.21187" lon="2.35781">
        <ele>155.490671</ele>
        <time>2023-01-05T12:44:54.930Z</time>
      </trkpt>
      <trkpt lat="43.21187" lon="2.35797">
        <ele>155.551422</ele>
        <time>2023-01-05T12:44:58.923Z</time>
      </trkpt>
      <trkpt lat="43.21184" lon="2.35811">
        <ele>155.625176</ele>
        <time>2023-01-05T12:45:01.945Z</time>
      </trkpt>
      <trkpt lat="43.2118" lon="2.35823">
        <ele>155.693489</ele>
        <time>2023-01-05T12:45:04.928Z</time>
      </trkpt>
      <trkpt lat="43.21177" lon="2.35837">
        <ele>155.768935</ele>
        <time>2023-01-05T12:45:07.930Z</time>
      </trkpt>
      <trkpt lat="43.21173" lon="2.35852">
        <ele>155.845765</ele>
        <time>2023-01-05T12:45:10.939Z</time>
      </trkpt>
      <trkpt lat="43.2117" lon="2.35866">
        <ele>155.921959</ele>
        <time>2023-01-05T12:45:13.930Z</time>
      </trkpt>
      <trkpt lat="43.21166" lon="2.35881">
        <ele>155.998432</ele>
        <time>2023-01-05T12:45:16.936Z</time>
      </trkpt>
      <trkpt lat="43.21164" lon="2.35895">
        <ele>156.073661</ele>
        <time>2023-01-05T12:45:19.956Z</time>
      </trkpt>
      <trkpt lat="43.2116" lon="2.35909">
        <ele>156.148122</ele>
        <time>2023-01-05T12:45:22.949Z</time>
      </trkpt>
      <trkpt lat="43.21156" lon="2.35922">
        <ele>156.21998</ele>
        <time>2023-01-05T12:45:25.931Z</time>
      </trkpt>
      <trkpt lat="43.21153" lon="2.35936">
        <ele>156.293966</ele>
        <time>2023-01-05T12:45:28.932Z</time>
      </trkpt>
      <trkpt lat="43.21149" lon="2.35951">
        <ele>156.372456</ele>
        <time>2023-01-05T12:45:31.931Z</time>
      </trkpt>
      <trkpt lat="43.21145" lon="2.35966">
        <ele>156.454979</ele>
        <time>2023-01-05T12:45:34.932Z</time>
      </trkpt>
      <trkpt lat="43.21141" lon="2.35981">
        <ele>156.537978</ele>
        <time>2023-01-05T12:45:37.951Z</time>
      </trkpt>
      <trkpt lat="43.21137" lon="2.35996">
        <ele>156.615079</ele>
        <time>2023-01-05T12:45:40.928Z</time>
      </trkpt>
      <trkpt lat="43.21133" lon="2.3601">
        <ele>156.693163</ele>
        <time>2023-01-05T12:45:43.934Z</time>
      </trkpt>
      <trkpt lat="43.21129" lon="2.36025">
        <ele>156.657048</ele>
        <time>2023-01-05T12:45:46.939Z</time>
      </trkpt>
      <trkpt lat="43.21124" lon="2.3604">
        <ele>156.515995</ele>
        <time>2023-01-05T12:45:49.947Z</time>
      </trkpt>
      <trkpt lat="43.21121" lon="2.36054">
        <ele>156.376329</ele>
        <time>2023-01-05T12:45:52.945Z</time>
      </trkpt>
      <trkpt lat="43.21117" lon="2.36069">
        <ele>156.235449</ele>
        <time>2023-01-05T12:45:55.937Z</time>
      </trkpt>
      <trkpt lat="43.21113" lon="2.36084">
        <ele>156.08429</ele>
        <time>2023-01-05T12:45:58.937Z</time>
      </trkpt>
      <trkpt lat="43.21108" lon="2.36101">
        <ele>155.922004</ele>
        <time>2023-01-05T12:46:01.943Z</time>
      </trkpt>
      <trkpt lat="43.21103" lon="2.36117">
        <ele>155.760936</ele>
        <time>2023-01-05T12:46:04.933Z</time>
      </trkpt>
      <trkpt lat="43.21098" lon="2.36134">
        <ele>155.600797</ele>
        <time>2023-01-05T12:46:07.930Z</time>
      </trkpt>
      <trkpt lat="43.21093" lon="2.3615">
        <ele>155.436941</ele>
        <time>2023-01-05T12:46:10.938Z</time>
      </trkpt>
      <trkpt lat="43.21088" lon="2.36166">
        <ele>155.281022</ele>
        <time>2023-01-05T12:46:13.928Z</time>
      </trkpt>
      <trkpt lat="43.21084" lon="2.36182">
        <ele>155.132034</ele>
        <time>2023-01-05T12:46:16.928Z</time>
      </trkpt>
      <trkpt lat="43.2108" lon="2.36196">
        <ele>154.994136</ele>
        <time>2023-01-05T12:46:19.926Z</time>
      </trkpt>
      <trkpt lat="43.21076" lon="2.3621">
        <ele>154.857526</ele>
        <time>2023-01-05T12:46:22.927Z</time>
      </trkpt>
      <trkpt lat="43.21072" lon="2.36225">
        <ele>154.712275</ele>
        <time>2023-01-05T12:46:25.929Z</time>
      </trkpt>
      <trkpt lat="43.21068" lon="2.36239">
        <ele>154.572236</ele>
        <time>2023-01-05T12:46:28.929Z</time>
      </trkpt>
      <trkpt lat="43.21064" lon="2.36253">
        <ele>154.615176</ele>
        <time>2023-01-05T12:46:31.930Z</time>
      </trkpt>
      <trkpt lat="43.2106" lon="2.36268">
        <ele>154.955087</ele>
        <time>2023-01-05T12:46:34.932Z</time>
      </trkpt>
      <trkpt lat="43.21056" lon="2.36284">
        <ele>155.314904</ele>
        <time>2023-01-05T12:46:37.927Z</time>
      </trkpt>
      <trkpt lat="43.21052" lon="2.363">
        <ele>155.680011</ele>
        <time>2023-01-05T12:46:40.930Z</time>
      </trkpt>
      <trkpt lat="43.21048" lon="2.36315">
        <ele>156.02283</ele>
        <time>2023-01-05T12:46:43.940Z</time>
      </trkpt>
      <trkpt lat="43.21044" lon="2.36331">
        <ele>156.380649</ele>
        <time>2023-01-05T12:46:46.939Z</time>
      </trkpt>
      <trkpt lat="43.21039" lon="2.36346">
        <ele>156.724529</ele>
        <time>2023-01-05T12:46:49.926Z</time>
      </trkpt>
      <trkpt lat="43.21036" lon="2.3636">
        <ele>157.048266</ele>
        <time>2023-01-05T12:46:52.929Z</time>
      </trkpt>
      <trkpt lat="43.21031" lon="2.36374">
        <ele>157.366915</ele>
        <time>2023-01-05T12:46:55.930Z</time>
      </trkpt>
      <trkpt lat="43.21027" lon="2.36386">
        <ele>157.646861</ele>
        <time>2023-01-05T12:46:58.940Z</time>
      </trkpt>
      <trkpt lat="43.21024" lon="2.36398">
        <ele>157.920492</ele>
        <time>2023-01-05T12:47:02.934Z</time>
      </trkpt>
      <trkpt lat="43.21021" lon="2.3641">
        <ele>158.194124</ele>
        <time>2023-01-05T12:47:06.926Z</time>
      </trkpt>
      <trkpt lat="43.21017" lon="2.36425">
        <ele>158.531913</ele>
        <time>2023-01-05T12:47:10.936Z</time>
      </trkpt>
      <trkpt lat="43.21012" lon="2.36439">
        <ele>158.870755</ele>
        <time>2023-01-05T12:47:14.930Z</time>
      </trkpt>
      <trkpt lat="43.21008" lon="2.36455">
        <ele>159.21553</ele>
        <time>2023-01-05T12:47:18.928Z</time>
      </trkpt>
      <trkpt lat="43.21005" lon="2.36467">
        <ele>159.491159</ele>
        <time>2023-01-05T12:47:21.948Z</time>
      </trkpt>
      <trkpt lat="43.21002" lon="2.36479">
        <ele>159.768987</ele>
        <time>2023-01-05T12:47:24.933Z</time>
      </trkpt>
      <trkpt lat="43.20999" lon="2.36491">
        <ele>160.066438</ele>
        <time>2023-01-05T12:47:27.936Z</time>
      </trkpt>
      <trkpt lat="43.20996" lon="2.36503">
        <ele>160.366316</ele>
        <time>2023-01-05T12:47:30.935Z</time>
      </trkpt>
      <trkpt lat="43.20993" lon="2.36516">
        <ele>160.680031</ele>
        <time>2023-01-05T12:47:33.935Z</time>
      </trkpt>
      <trkpt lat="43.2099" lon="2.36529">
        <ele>160.997365</ele>
        <time>2023-01-05T12:47:36.938Z</time>
      </trkpt>
      <trkpt lat="43.20985" lon="2.36542">
        <ele>161.322739</ele>
        <time>2023-01-05T12:47:39.953Z</time>
      </trkpt>
      <trkpt lat="43.20981" lon="2.36555">
        <ele>161.654517</ele>
        <time>2023-01-05T12:47:42.939Z</time>
      </trkpt>
      <trkpt lat="43.20978" lon="2.36567">
        <ele>161.962836</ele>
        <time>2023-01-05T12:47:45.934Z</time>
      </trkpt>
      <trkpt lat="43.20974" lon="2.36581">
        <ele>162.302289</ele>
        <time>2023-01-05T12:47:48.929Z</time>
      </trkpt>
      <trkpt lat="43.2097" lon="2.36594">
        <ele>162.629239</ele>
        <time>2023-01-05T12:47:51.949Z</time>
      </trkpt>
      <trkpt lat="43.20966" lon="2.36607">
        <ele>162.966023</ele>
        <time>2023-01-05T12:47:54.948Z</time>
      </trkpt>
      <trkpt lat="43.20963" lon="2.36621">
        <ele>163.305253</ele>
        <time>2023-01-05T12:47:57.938Z</time>
      </trkpt>
      <trkpt lat="43.2096" lon="2.36635">
        <ele>163.63979</ele>
        <time>2023-01-05T12:48:00.951Z</time>
      </trkpt>
      <trkpt lat="43.20956" lon="2.36648">
        <ele>163.970156</ele>
        <time>2023-01-05T12:48:03.947Z</time>
      </trkpt>
      <trkpt lat="43.20953" lon="2.36661">
        <ele>164.290513</ele>
        <time>2023-01-05T12:48:06.936Z</time>
      </trkpt>
      <trkpt lat="43.2095" lon="2.36674">
        <ele>164.609745</ele>
        <time>2023-01-05T12:48:09.949Z</time>
      </trkpt>
      <trkpt lat="43.20946" lon="2.36687">
        <ele>164.944282</ele>
        <time>2023-01-05T12:48:12.941Z</time>
      </trkpt>
      <trkpt lat="43.20942" lon="2.36701">
        <ele>165.279113</ele>
        <time>2023-01-05T12:48:15.951Z</time>
      </trkpt>
      <trkpt lat="43.20939" lon="2.36714">
        <ele>165.569263</ele>
        <time>2023-01-05T12:48:18.948Z</time>
      </trkpt>
      <trkpt lat="43.20936" lon="2.36727">
        <ele>165.805958</ele>
        <time>2023-01-05T12:48:21.931Z</time>
      </trkpt>
      <trkpt lat="43.20932" lon="2.3674">
        <ele>166.052361</ele>
        <time>2023-01-05T12:48:24.949Z</time>
      </trkpt>
      <trkpt lat="43.20928" lon="2.36754">
        <ele>166.301983</ele>
        <time>2023-01-05T12:48:27.945Z</time>
      </trkpt>
      <trkpt lat="43.20925" lon="2.36767">
        <ele>166.551617</ele>
        <time>2023-01-05T12:48:30.936Z</time>
      </trkpt>
      <trkpt lat="43.20921" lon="2.3678">
        <ele>166.782924</ele>
        <time>2023-01-05T12:48:33.933Z</time>
      </trkpt>
      <trkpt lat="43.20918" lon="2.36791">
        <ele>166.997813</ele>
        <time>2023-01-05T12:48:36.939Z</time>
      </trkpt>
      <trkpt lat="43.20914" lon="2.36803">
        <ele>167.224718</ele>
        <time>2023-01-05T12:48:40.929Z</time>
      </trkpt>
      <trkpt lat="43.20909" lon="2.36817">
        <ele>167.486256</ele>
        <time>2023-01-05T12:48:46.941Z</time>
      </trkpt>
      <trkpt lat="43.20906" lon="2.36829">
        <ele>167.701156</ele>
        <time>2023-01-05T12:48:49.929Z</time>
      </trkpt>
      <trkpt lat="43.20903" lon="2.36842">
        <ele>167.933095</ele>
        <time>2023-01-05T12:48:52.932Z</time>
      </trkpt>
      <trkpt lat="43.209" lon="2.36854">
        <ele>168.160915</ele>
        <time>2023-01-05T12:48:55.933Z</time>
      </trkpt>
      <trkpt lat="43.20897" lon="2.36867">
        <ele>168.387126</ele>
        <time>2023-01-05T12:48:58.930Z</time>
      </trkpt>
      <trkpt lat="43.20894" lon="2.36879">
        <ele>168.610123</ele>
        <time>2023-01-05T12:49:01.944Z</time>
      </trkpt>
      <trkpt lat="43.2089" lon="2.36895">
        <ele>168.895284</ele>
        <time>2023-01-05T12:49:05.940Z</time>
      </trkpt>
      <trkpt lat="43.20887" lon="2.36907">
        <ele>169.112681</ele>
        <time>2023-01-05T12:49:08.932Z</time>
      </trkpt>
      <trkpt lat="43.20883" lon="2.3692">
        <ele>169.352833</ele>
        <time>2023-01-05T12:49:12.935Z</time>
      </trkpt>
      <trkpt lat="43.20879" lon="2.36934">
        <ele>169.621886</ele>
        <time>2023-01-05T12:49:16.943Z</time>
      </trkpt>
      <trkpt lat="43.20877" lon="2.36948">
        <ele>169.831089</ele>
        <time>2023-01-05T12:49:20.936Z</time>
      </trkpt>
      <trkpt lat="43.20873" lon="2.3696">
        <ele>170.0126</ele>
        <time>2023-01-05T12:49:24.936Z</time>
      </trkpt>
      <trkpt lat="43.20869" lon="2.36975">
        <ele>170.208905</ele>
        <time>2023-01-05T12:49:28.950Z</time>
      </trkpt>
      <trkpt lat="43.20868" lon="2.36988">
        <ele>170.383189</ele>
        <time>2023-01-05T12:49:31.929Z</time>
      </trkpt>
      <trkpt lat="43.20865" lon="2.37">
        <ele>170.562092</ele>
        <time>2023-01-05T12:49:34.929Z</time>
      </trkpt>
      <trkpt lat="43.2086" lon="2.37014">
        <ele>170.759764</ele>
        <time>2023-01-05T12:49:37.930Z</time>
      </trkpt>
      <trkpt lat="43.20855" lon="2.37029">
        <ele>170.970718</ele>
        <time>2023-01-05T12:49:40.926Z</time>
      </trkpt>
      <trkpt lat="43.20851" lon="2.37044">
        <ele>171.19083</ele>
        <time>2023-01-05T12:49:43.930Z</time>
      </trkpt>
      <trkpt lat="43.20846" lon="2.37059">
        <ele>171.407465</ele>
        <time>2023-01-05T12:49:46.946Z</time>
      </trkpt>
      <trkpt lat="43.20842" lon="2.37076">
        <ele>171.638875</ele>
        <time>2023-01-05T12:49:49.929Z</time>
      </trkpt>
      <trkpt lat="43.20838" lon="2.37091">
        <ele>171.852963</ele>
        <time>2023-01-05T12:49:52.951Z</time>
      </trkpt>
      <trkpt lat="43.20834" lon="2.37106">
        <ele>172.052227</ele>
        <time>2023-01-05T12:49:55.935Z</time>
      </trkpt>
      <trkpt lat="43.2083" lon="2.37121">
        <ele>172.267783</ele>
        <time>2023-01-05T12:49:58.932Z</time>
      </trkpt>
      <trkpt lat="43.20826" lon="2.37135">
        <ele>172.474456</ele>
        <time>2023-01-05T12:50:01.929Z</time>
      </trkpt>
      <trkpt lat="43.20822" lon="2.3715">
        <ele>172.680498</ele>
        <time>2023-01-05T12:50:04.929Z</time>
      </trkpt>
      <trkpt lat="43.20818" lon="2.37163">
        <ele>172.866585</ele>
        <time>2023-01-05T12:50:07.928Z</time>
      </trkpt>
      <trkpt lat="43.20813" lon="2.37178">
        <ele>173.051091</ele>
        <time>2023-01-05T12:50:10.927Z</time>
      </trkpt>
      <trkpt lat="43.20809" lon="2.37194">
        <ele>173.205122</ele>
        <time>2023-01-05T12:50:13.931Z</time>
      </trkpt>
      <trkpt lat="43.20805" lon="2.37209">
        <ele>173.349344</ele>
        <time>2023-01-05T12:50:16.934Z</time>
      </trkpt>
      <trkpt lat="43.20802" lon="2.37222">
        <ele>173.469142</ele>
        <time>2023-01-05T12:50:19.933Z</time>
      </trkpt>
      <trkpt lat="43.208" lon="2.37236">
        <ele>173.600606</ele>
        <time>2023-01-05T12:50:22.933Z</time>
      </trkpt>
      <trkpt lat="43.20797" lon="2.3725">
        <ele>173.739641</ele>
        <time>2023-01-05T12:50:25.930Z</time>
      </trkpt>
      <trkpt lat="43.20794" lon="2.37266">
        <ele>173.879593</ele>
        <time>2023-01-05T12:50:28.938Z</time>
      </trkpt>
      <trkpt lat="43.20793" lon="2.37281">
        <ele>174.021355</ele>
        <time>2023-01-05T12:50:31.932Z</time>
      </trkpt>
      <trkpt lat="43.20791" lon="2.37296">
        <ele>174.160094</ele>
        <time>2023-01-05T12:50:34.949Z</time>
      </trkpt>
      <trkpt lat="43.2079" lon="2.3731">
        <ele>174.285368</ele>
        <time>2023-01-05T12:50:37.937Z</time>
      </trkpt>
      <trkpt lat="43.20789" lon="2.37324">
        <ele>174.415457</ele>
        <time>2023-01-05T12:50:40.934Z</time>
      </trkpt>
      <trkpt lat="43.20788" lon="2.3734">
        <ele>174.560344</ele>
        <time>2023-01-05T12:50:43.947Z</time>
      </trkpt>
      <trkpt lat="43.20786" lon="2.37356">
        <ele>174.709121</ele>
        <time>2023-01-05T12:50:46.934Z</time>
      </trkpt>
      <trkpt lat="43.20785" lon="2.37373">
        <ele>174.857</ele>
        <time>2023-01-05T12:50:49.930Z</time>
      </trkpt>
      <trkpt lat="43.20783" lon="2.37389">
        <ele>175.008326</ele>
        <time>2023-01-05T12:50:52.946Z</time>
      </trkpt>
      <trkpt lat="43.20782" lon="2.37405">
        <ele>175.155469</ele>
        <time>2023-01-05T12:50:55.932Z</time>
      </trkpt>
      <trkpt lat="43.2078" lon="2.37421">
        <ele>175.2727</ele>
        <time>2023-01-05T12:50:58.936Z</time>
      </trkpt>
      <trkpt lat="43.2078" lon="2.37437">
        <ele>175.358927</ele>
        <time>2023-01-05T12:51:01.940Z</time>
      </trkpt>
      <trkpt lat="43.20779" lon="2.3745">
        <ele>175.435912</ele>
        <time>2023-01-05T12:51:04.937Z</time>
      </trkpt>
      <trkpt lat="43.20778" lon="2.37463">
        <ele>175.506266</ele>
        <time>2023-01-05T12:51:07.937Z</time>
      </trkpt>
      <trkpt lat="43.20777" lon="2.37475">
        <ele>175.578424</ele>
        <time>2023-01-05T12:51:10.928Z</time>
      </trkpt>
      <trkpt lat="43.20777" lon="2.37489">
        <ele>175.653526</ele>
        <time>2023-01-05T12:51:13.935Z</time>
      </trkpt>
      <trkpt lat="43.20775" lon="2.37503">
        <ele>175.735248</ele>
        <time>2023-01-05T12:51:16.929Z</time>
      </trkpt>
      <trkpt lat="43.20774" lon="2.37518">
        <ele>175.822972</ele>
        <time>2023-01-05T12:51:19.941Z</time>
      </trkpt>
      <trkpt lat="43.20773" lon="2.37535">
        <ele>175.915243</ele>
        <time>2023-01-05T12:51:22.933Z</time>
      </trkpt>
      <trkpt lat="43.20772" lon="2.37551">
        <ele>176.004565</ele>
        <time>2023-01-05T12:51:25.934Z</time>
      </trkpt>
      <trkpt lat="43.2077" lon="2.37567">
        <ele>176.095079</ele>
        <time>2023-01-05T12:51:28.943Z</time>
      </trkpt>
      <trkpt lat="43.20769" lon="2.37582">
        <ele>176.182027</ele>
        <time>2023-01-05T12:51:31.934Z</time>
      </trkpt>
      <trkpt lat="43.20767" lon="2.37598">
        <ele>176.274001</ele>
        <time>2023-01-05T12:51:34.933Z</time>
      </trkpt>
      <trkpt lat="43.20767" lon="2.37613">
        <ele>176.356523</ele>
        <time>2023-01-05T12:51:37.932Z</time>
      </trkpt>
      <trkpt lat="43.20765" lon="2.37627">
        <ele>176.439365</ele>
        <time>2023-01-05T12:51:40.935Z</time>
      </trkpt>
      <trkpt lat="43.20764" lon="2.37642">
        <ele>176.524274</ele>
        <time>2023-01-05T12:51:43.936Z</time>
      </trkpt>
      <trkpt lat="43.20762" lon="2.37657">
        <ele>176.607316</ele>
        <time>2023-01-05T12:51:46.936Z</time>
      </trkpt>
      <trkpt lat="43.20761" lon="2.37671">
        <ele>176.689765</ele>
        <time>2023-01-05T12:51:49.944Z</time>
      </trkpt>
      <trkpt lat="43.20759" lon="2.37687">
        <ele>176.780279</ele>
        <time>2023-01-05T12:51:52.941Z</time>
      </trkpt>
      <trkpt lat="43.20758" lon="2.37704">
        <ele>176.871198</ele>
        <time>2023-01-05T12:51:55.948Z</time>
      </trkpt>
      <trkpt lat="43.20757" lon="2.3772">
        <ele>176.960717</ele>
        <time>2023-01-05T12:51:58.952Z</time>
      </trkpt>
      <trkpt lat="43.20755" lon="2.37734">
        <ele>177.041832</ele>
        <time>2023-01-05T12:52:01.950Z</time>
      </trkpt>
      <trkpt lat="43.20754" lon="2.37748">
        <ele>177.121095</ele>
        <time>2023-01-05T12:52:04.953Z</time>
      </trkpt>
      <trkpt lat="43.20753" lon="2.37764">
        <ele>177.208856</ele>
        <time>2023-01-05T12:52:07.939Z</time>
      </trkpt>
      <trkpt lat="43.20752" lon="2.3778">
        <ele>177.301369</ele>
        <time>2023-01-05T12:52:10.951Z</time>
      </trkpt>
      <trkpt lat="43.20751" lon="2.37796">
        <ele>177.390823</ele>
        <time>2023-01-05T12:52:13.942Z</time>
      </trkpt>
      <trkpt lat="43.20751" lon="2.37811">
        <ele>177.47405</ele>
        <time>2023-01-05T12:52:16.939Z</time>
      </trkpt>
      <trkpt lat="43.20749" lon="2.37827">
        <ele>177.566652</ele>
        <time>2023-01-05T12:52:19.928Z</time>
      </trkpt>
      <trkpt lat="43.20747" lon="2.37844">
        <ele>177.658821</ele>
        <time>2023-01-05T12:52:22.930Z</time>
      </trkpt>
      <trkpt lat="43.20745" lon="2.37859">
        <ele>177.743358</ele>
        <time>2023-01-05T12:52:25.932Z</time>
      </trkpt>
      <trkpt lat="43.20745" lon="2.37874">
        <ele>177.82668</ele>
        <time>2023-01-05T12:52:28.948Z</time>
      </trkpt>
      <trkpt lat="43.20744" lon="2.37889">
        <ele>177.914506</ele>
        <time>2023-01-05T12:52:31.933Z</time>
      </trkpt>
      <trkpt lat="43.20743" lon="2.37906">
        <ele>177.970669</ele>
        <time>2023-01-05T12:52:34.948Z</time>
      </trkpt>
      <trkpt lat="43.20741" lon="2.37922">
        <ele>177.814852</ele>
        <time>2023-01-05T12:52:37.938Z</time>
      </trkpt>
      <trkpt lat="43.20739" lon="2.37938">
        <ele>177.662638</ele>
        <time>2023-01-05T12:52:40.933Z</time>
      </trkpt>
      <trkpt lat="43.20738" lon="2.37953">
        <ele>177.519995</ele>
        <time>2023-01-05T12:52:43.936Z</time>
      </trkpt>
      <trkpt lat="43.20737" lon="2.37969">
        <ele>177.373745</ele>
        <time>2023-01-05T12:52:46.947Z</time>
      </trkpt>
      <trkpt lat="43.20736" lon="2.37984">
        <ele>177.228068</ele>
        <time>2023-01-05T12:52:49.934Z</time>
      </trkpt>
      <trkpt lat="43.20735" lon="2.37998">
        <ele>177.095731</ele>
        <time>2023-01-05T12:52:52.934Z</time>
      </trkpt>
      <trkpt lat="43.20733" lon="2.38013">
        <ele>176.944898</ele>
        <time>2023-01-05T12:52:56.947Z</time>
      </trkpt>
      <trkpt lat="43.20731" lon="2.38028">
        <ele>176.802385</ele>
        <time>2023-01-05T12:52:59.942Z</time>
      </trkpt>
      <trkpt lat="43.2073" lon="2.38043">
        <ele>176.657653</ele>
        <time>2023-01-05T12:53:02.934Z</time>
      </trkpt>
      <trkpt lat="43.20729" lon="2.38059">
        <ele>176.506191</ele>
        <time>2023-01-05T12:53:05.945Z</time>
      </trkpt>
      <trkpt lat="43.20728" lon="2.38075">
        <ele>176.351897</ele>
        <time>2023-01-05T12:53:08.931Z</time>
      </trkpt>
      <trkpt lat="43.20727" lon="2.3809">
        <ele>176.215238</ele>
        <time>2023-01-05T12:53:11.939Z</time>
      </trkpt>
      <trkpt lat="43.20726" lon="2.38106">
        <ele>176.062203</ele>
        <time>2023-01-05T12:53:14.931Z</time>
      </trkpt>
      <trkpt lat="43.20725" lon="2.38122">
        <ele>175.905457</ele>
        <time>2023-01-05T12:53:17.964Z</time>
      </trkpt>
      <trkpt lat="43.20723" lon="2.38139">
        <ele>175.748366</ele>
        <time>2023-01-05T12:53:20.933Z</time>
      </trkpt>
      <trkpt lat="43.20722" lon="2.38155">
        <ele>175.734438</ele>
        <time>2023-01-05T12:53:23.955Z</time>
      </trkpt>
      <trkpt lat="43.2072" lon="2.38171">
        <ele>175.93512</ele>
        <time>2023-01-05T12:53:26.955Z</time>
      </trkpt>
      <trkpt lat="43.20719" lon="2.38187">
        <ele>176.129159</ele>
        <time>2023-01-05T12:53:29.949Z</time>
      </trkpt>
      <trkpt lat="43.20718" lon="2.38205">
        <ele>176.346457</ele>
        <time>2023-01-05T12:53:32.931Z</time>
      </trkpt>
      <trkpt lat="43.20716" lon="2.3822">
        <ele>176.537448</ele>
        <time>2023-01-05T12:53:35.935Z</time>
      </trkpt>
      <trkpt lat="43.20715" lon="2.38238">
        <ele>176.75353</ele>
        <time>2023-01-05T12:53:38.960Z</time>
      </trkpt>
      <trkpt lat="43.20714" lon="2.38255">
        <ele>176.95835</ele>
        <time>2023-01-05T12:53:41.936Z</time>
      </trkpt>
      <trkpt lat="43.20713" lon="2.38271">
        <ele>177.162111</ele>
        <time>2023-01-05T12:53:44.931Z</time>
      </trkpt>
      <trkpt lat="43.20712" lon="2.38286">
        <ele>177.3417</ele>
        <time>2023-01-05T12:53:47.951Z</time>
      </trkpt>
      <trkpt lat="43.20711" lon="2.38301">
        <ele>177.523595</ele>
        <time>2023-01-05T12:53:50.933Z</time>
      </trkpt>
      <trkpt lat="43.2071" lon="2.38316">
        <ele>177.714373</ele>
        <time>2023-01-05T12:53:53.933Z</time>
      </trkpt>
      <trkpt lat="43.20708" lon="2.38332">
        <ele>177.905152</ele>
        <time>2023-01-05T12:53:56.933Z</time>
      </trkpt>
      <trkpt lat="43.20705" lon="2.38347">
        <ele>178.105913</ele>
        <time>2023-01-05T12:53:59.925Z</time>
      </trkpt>
      <trkpt lat="43.20698" lon="2.38361">
        <ele>178.312241</ele>
        <time>2023-01-05T12:54:02.941Z</time>
      </trkpt>
      <trkpt lat="43.20689" lon="2.38373">
        <ele>178.516753</ele>
        <time>2023-01-05T12:54:05.932Z</time>
      </trkpt>
      <trkpt lat="43.20686" lon="2.38387">
        <ele>178.68086</ele>
        <time>2023-01-05T12:54:08.947Z</time>
      </trkpt>
      <trkpt lat="43.20686" lon="2.38401">
        <ele>178.787277</ele>
        <time>2023-01-05T12:54:11.943Z</time>
      </trkpt>
      <trkpt lat="43.20691" lon="2.38417">
        <ele>178.905324</ele>
        <time>2023-01-05T12:54:14.944Z</time>
      </trkpt>
      <trkpt lat="43.20695" lon="2.38428">
        <ele>178.997913</ele>
        <time>2023-01-05T12:54:16.938Z</time>
      </trkpt>
      <trkpt lat="43.20697" lon="2.38441">
        <ele>179.095166</ele>
        <time>2023-01-05T12:54:18.954Z</time>
      </trkpt>
      <trkpt lat="43.20696" lon="2.38455">
        <ele>179.189443</ele>
        <time>2023-01-05T12:54:20.951Z</time>
      </trkpt>
      <trkpt lat="43.20696" lon="2.38468">
        <ele>179.288122</ele>
        <time>2023-01-05T12:54:22.949Z</time>
      </trkpt>
      <trkpt lat="43.20696" lon="2.38483">
        <ele>179.388898</ele>
        <time>2023-01-05T12:54:24.940Z</time>
      </trkpt>
      <trkpt lat="43.20694" lon="2.38496">
        <ele>179.486623</ele>
        <time>2023-01-05T12:54:26.951Z</time>
      </trkpt>
      <trkpt lat="43.20694" lon="2.38509">
        <ele>179.57972</ele>
        <time>2023-01-05T12:54:28.941Z</time>
      </trkpt>
      <trkpt lat="43.20692" lon="2.38527">
        <ele>179.707354</ele>
        <time>2023-01-05T12:54:31.929Z</time>
      </trkpt>
      <trkpt lat="43.20691" lon="2.38544">
        <ele>179.827481</ele>
        <time>2023-01-05T12:54:34.939Z</time>
      </trkpt>
      <trkpt lat="43.2069" lon="2.38561">
        <ele>179.955344</ele>
        <time>2023-01-05T12:54:37.950Z</time>
      </trkpt>
      <trkpt lat="43.20689" lon="2.38574">
        <ele>180.046473</ele>
        <time>2023-01-05T12:54:39.949Z</time>
      </trkpt>
      <trkpt lat="43.20688" lon="2.38587">
        <ele>180.137933</ele>
        <time>2023-01-05T12:54:41.950Z</time>
      </trkpt>
      <trkpt lat="43.20687" lon="2.38599">
        <ele>180.228685</ele>
        <time>2023-01-05T12:54:43.950Z</time>
      </trkpt>
      <trkpt lat="43.20686" lon="2.38613">
        <ele>180.326213</ele>
        <time>2023-01-05T12:54:45.950Z</time>
      </trkpt>
      <trkpt lat="43.20684" lon="2.38627">
        <ele>180.423895</ele>
        <time>2023-01-05T12:54:47.931Z</time>
      </trkpt>
      <trkpt lat="43.20683" lon="2.3864">
        <ele>180.428567</ele>
        <time>2023-01-05T12:54:49.932Z</time>
      </trkpt>
      <trkpt lat="43.20683" lon="2.38654">
        <ele>180.425866</ele>
        <time>2023-01-05T12:54:51.926Z</time>
      </trkpt>
      <trkpt lat="43.20681" lon="2.38667">
        <ele>180.423305</ele>
        <time>2023-01-05T12:54:53.940Z</time>
      </trkpt>
      <trkpt lat="43.2068" lon="2.38681">
        <ele>180.420736</ele>
        <time>2023-01-05T12:54:55.934Z</time>
      </trkpt>
      <trkpt lat="43.2068" lon="2.38694">
        <ele>180.418132</ele>
        <time>2023-01-05T12:54:57.941Z</time>
      </trkpt>
      <trkpt lat="43.20678" lon="2.38708">
        <ele>180.415417</ele>
        <time>2023-01-05T12:54:59.932Z</time>
      </trkpt>
      <trkpt lat="43.20678" lon="2.38721">
        <ele>180.412796</ele>
        <time>2023-01-05T12:55:01.949Z</time>
      </trkpt>
      <trkpt lat="43.20677" lon="2.38735">
        <ele>180.410074</ele>
        <time>2023-01-05T12:55:03.953Z</time>
      </trkpt>
      <trkpt lat="43.20676" lon="2.3875">
        <ele>180.407218</ele>
        <time>2023-01-05T12:55:05.932Z</time>
      </trkpt>
      <trkpt lat="43.20675" lon="2.38765">
        <ele>180.404309</ele>
        <time>2023-01-05T12:55:07.939Z</time>
      </trkpt>
      <trkpt lat="43.20674" lon="2.38781">
        <ele>180.401199</ele>
        <time>2023-01-05T12:55:09.939Z</time>
      </trkpt>
      <trkpt lat="43.20673" lon="2.38796">
        <ele>180.398314</ele>
        <time>2023-01-05T12:55:11.928Z</time>
      </trkpt>
      <trkpt lat="43.20672" lon="2.38811">
        <ele>180.395374</ele>
        <time>2023-01-05T12:55:13.929Z</time>
      </trkpt>
      <trkpt lat="43.20671" lon="2.38826">
        <ele>180.39236</ele>
        <time>2023-01-05T12:55:15.932Z</time>
      </trkpt>
      <trkpt lat="43.20669" lon="2.38842">
        <ele>180.389227</ele>
        <time>2023-01-05T12:55:17.934Z</time>
      </trkpt>
      <trkpt lat="43.20668" lon="2.38858">
        <ele>180.386226</ele>
        <time>2023-01-05T12:55:19.931Z</time>
      </trkpt>
      <trkpt lat="43.20667" lon="2.38873">
        <ele>180.385073</ele>
        <time>2023-01-05T12:55:21.937Z</time>
      </trkpt>
      <trkpt lat="43.20665" lon="2.38889">
        <ele>180.512822</ele>
        <time>2023-01-05T12:55:23.935Z</time>
      </trkpt>
      <trkpt lat="43.20664" lon="2.38905">
        <ele>180.64017</ele>
        <time>2023-01-05T12:55:25.941Z</time>
      </trkpt>
      <trkpt lat="43.20662" lon="2.38922">
        <ele>180.769964</ele>
        <time>2023-01-05T12:55:27.937Z</time>
      </trkpt>
      <trkpt lat="43.20661" lon="2.38936">
        <ele>180.880968</ele>
        <time>2023-01-05T12:55:29.931Z</time>
      </trkpt>
      <trkpt lat="43.20659" lon="2.38951">
        <ele>181.005483</ele>
        <time>2023-01-05T12:55:31.931Z</time>
      </trkpt>
      <trkpt lat="43.20658" lon="2.38967">
        <ele>181.135733</ele>
        <time>2023-01-05T12:55:33.930Z</time>
      </trkpt>
      <trkpt lat="43.20655" lon="2.38984">
        <ele>181.271284</ele>
        <time>2023-01-05T12:55:35.939Z</time>
      </trkpt>
      <trkpt lat="43.20652" lon="2.39">
        <ele>181.39995</ele>
        <time>2023-01-05T12:55:37.936Z</time>
      </trkpt>
      <trkpt lat="43.2065" lon="2.39015">
        <ele>181.522975</ele>
        <time>2023-01-05T12:55:39.941Z</time>
      </trkpt>
      <trkpt lat="43.20648" lon="2.3903">
        <ele>181.642445</ele>
        <time>2023-01-05T12:55:41.931Z</time>
      </trkpt>
      <trkpt lat="43.20646" lon="2.39046">
        <ele>181.770046</ele>
        <time>2023-01-05T12:55:43.935Z</time>
      </trkpt>
      <trkpt lat="43.20643" lon="2.39062">
        <ele>181.899438</ele>
        <time>2023-01-05T12:55:45.936Z</time>
      </trkpt>
      <trkpt lat="43.2064" lon="2.39077">
        <ele>182.025817</ele>
        <time>2023-01-05T12:55:47.936Z</time>
      </trkpt>
      <trkpt lat="43.20637" lon="2.39093">
        <ele>182.155735</ele>
        <time>2023-01-05T12:55:49.939Z</time>
      </trkpt>
      <trkpt lat="43.20633" lon="2.39109">
        <ele>182.284987</ele>
        <time>2023-01-05T12:55:51.932Z</time>
      </trkpt>
      <trkpt lat="43.2063" lon="2.39124">
        <ele>182.348939</ele>
        <time>2023-01-05T12:55:53.945Z</time>
      </trkpt>
      <trkpt lat="43.20627" lon="2.39138">
        <ele>182.370342</ele>
        <time>2023-01-05T12:55:55.953Z</time>
      </trkpt>
      <trkpt lat="43.20624" lon="2.39154">
        <ele>182.39284</ele>
        <time>2023-01-05T12:55:57.935Z</time>
      </trkpt>
      <trkpt lat="43.20621" lon="2.39169">
        <ele>182.415837</ele>
        <time>2023-01-05T12:55:59.936Z</time>
      </trkpt>
      <trkpt lat="43.20618" lon="2.39184">
        <ele>182.438061</ele>
        <time>2023-01-05T12:56:01.933Z</time>
      </trkpt>
      <trkpt lat="43.20615" lon="2.392">
        <ele>182.461196</ele>
        <time>2023-01-05T12:56:03.948Z</time>
      </trkpt>
      <trkpt lat="43.20612" lon="2.39216">
        <ele>182.485021</ele>
        <time>2023-01-05T12:56:05.940Z</time>
      </trkpt>
      <trkpt lat="43.20608" lon="2.39232">
        <ele>182.508541</ele>
        <time>2023-01-05T12:56:07.951Z</time>
      </trkpt>
      <trkpt lat="43.20605" lon="2.39247">
        <ele>182.530612</ele>
        <time>2023-01-05T12:56:09.939Z</time>
      </trkpt>
      <trkpt lat="43.20602" lon="2.39262">
        <ele>182.553334</ele>
        <time>2023-01-05T12:56:11.936Z</time>
      </trkpt>
      <trkpt lat="43.20599" lon="2.39278">
        <ele>182.577226</ele>
        <time>2023-01-05T12:56:13.937Z</time>
      </trkpt>
      <trkpt lat="43.20596" lon="2.39295">
        <ele>182.601558</ele>
        <time>2023-01-05T12:56:15.947Z</time>
      </trkpt>
      <trkpt lat="43.20593" lon="2.39311">
        <ele>182.625708</ele>
        <time>2023-01-05T12:56:17.949Z</time>
      </trkpt>
      <trkpt lat="43.2059" lon="2.39328">
        <ele>182.65005</ele>
        <time>2023-01-05T12:56:19.930Z</time>
      </trkpt>
      <trkpt lat="43.20587" lon="2.39346">
        <ele>182.675865</ele>
        <time>2023-01-05T12:56:21.945Z</time>
      </trkpt>
      <trkpt lat="43.20584" lon="2.39364">
        <ele>182.489685</ele>
        <time>2023-01-05T12:56:23.938Z</time>
      </trkpt>
      <trkpt lat="43.2058" lon="2.39382">
        <ele>182.139739</ele>
        <time>2023-01-05T12:56:25.942Z</time>
      </trkpt>
      <trkpt lat="43.20577" lon="2.39401">
        <ele>181.787671</ele>
        <time>2023-01-05T12:56:27.936Z</time>
      </trkpt>
      <trkpt lat="43.20573" lon="2.3942">
        <ele>181.429069</ele>
        <time>2023-01-05T12:56:29.929Z</time>
      </trkpt>
      <trkpt lat="43.2057" lon="2.39439">
        <ele>181.059811</ele>
        <time>2023-01-05T12:56:31.941Z</time>
      </trkpt>
      <trkpt lat="43.20566" lon="2.39459">
        <ele>180.684019</ele>
        <time>2023-01-05T12:56:33.926Z</time>
      </trkpt>
      <trkpt lat="43.20562" lon="2.3948">
        <ele>180.298103</ele>
        <time>2023-01-05T12:56:35.931Z</time>
      </trkpt>
      <trkpt lat="43.20559" lon="2.39499">
        <ele>179.926441</ele>
        <time>2023-01-05T12:56:37.936Z</time>
      </trkpt>
      <trkpt lat="43.20555" lon="2.3952">
        <ele>179.541682</ele>
        <time>2023-01-05T12:56:39.933Z</time>
      </trkpt>
      <trkpt lat="43.20551" lon="2.39541">
        <ele>179.144508</ele>
        <time>2023-01-05T12:56:41.929Z</time>
      </trkpt>
      <trkpt lat="43.20546" lon="2.39562">
        <ele>178.737637</ele>
        <time>2023-01-05T12:56:43.935Z</time>
      </trkpt>
      <trkpt lat="43.20542" lon="2.39584">
        <ele>178.328565</ele>
        <time>2023-01-05T12:56:45.933Z</time>
      </trkpt>
      <trkpt lat="43.20538" lon="2.39607">
        <ele>177.922932</ele>
        <time>2023-01-05T12:56:47.931Z</time>
      </trkpt>
      <trkpt lat="43.20534" lon="2.39628">
        <ele>177.551799</ele>
        <time>2023-01-05T12:56:49.935Z</time>
      </trkpt>
      <trkpt lat="43.20529" lon="2.3965">
        <ele>177.188832</ele>
        <time>2023-01-05T12:56:51.924Z</time>
      </trkpt>
      <trkpt lat="43.20526" lon="2.39671">
        <ele>176.827112</ele>
        <time>2023-01-05T12:56:53.931Z</time>
      </trkpt>
      <trkpt lat="43.20521" lon="2.39692">
        <ele>176.472369</ele>
        <time>2023-01-05T12:56:55.933Z</time>
      </trkpt>
      <trkpt lat="43.20516" lon="2.39713">
        <ele>176.114244</ele>
        <time>2023-01-05T12:56:57.935Z</time>
      </trkpt>
      <trkpt lat="43.20512" lon="2.39733">
        <ele>175.764865</ele>
        <time>2023-01-05T12:56:59.932Z</time>
      </trkpt>
      <trkpt lat="43.20507" lon="2.39754">
        <ele>175.397512</ele>
        <time>2023-01-05T12:57:01.933Z</time>
      </trkpt>
      <trkpt lat="43.20503" lon="2.39776">
        <ele>175.031515</ele>
        <time>2023-01-05T12:57:03.941Z</time>
      </trkpt>
      <trkpt lat="43.20499" lon="2.39797">
        <ele>174.676649</ele>
        <time>2023-01-05T12:57:05.936Z</time>
      </trkpt>
      <trkpt lat="43.20495" lon="2.39819">
        <ele>174.307468</ele>
        <time>2023-01-05T12:57:07.934Z</time>
      </trkpt>
      <trkpt lat="43.20492" lon="2.3984">
        <ele>173.940064</ele>
        <time>2023-01-05T12:57:09.932Z</time>
      </trkpt>
      <trkpt lat="43.20488" lon="2.3986">
        <ele>173.566422</ele>
        <time>2023-01-05T12:57:11.939Z</time>
      </trkpt>
      <trkpt lat="43.20483" lon="2.39881">
        <ele>173.186707</ele>
        <time>2023-01-05T12:57:13.934Z</time>
      </trkpt>
      <trkpt lat="43.2048" lon="2.39901">
        <ele>172.820652</ele>
        <time>2023-01-05T12:57:15.943Z</time>
      </trkpt>
      <trkpt lat="43.20477" lon="2.3992">
        <ele>172.476869</ele>
        <time>2023-01-05T12:57:17.936Z</time>
      </trkpt>
      <trkpt lat="43.20473" lon="2.39939">
        <ele>172.125702</ele>
        <time>2023-01-05T12:57:19.935Z</time>
      </trkpt>
      <trkpt lat="43.2047" lon="2.39959">
        <ele>171.773298</ele>
        <time>2023-01-05T12:57:21.931Z</time>
      </trkpt>
      <trkpt lat="43.20467" lon="2.39978">
        <ele>171.43521</ele>
        <time>2023-01-05T12:57:23.928Z</time>
      </trkpt>
      <trkpt lat="43.20464" lon="2.39996">
        <ele>171.103467</ele>
        <time>2023-01-05T12:57:25.936Z</time>
      </trkpt>
      <trkpt lat="43.2046" lon="2.40013">
        <ele>170.781976</ele>
        <time>2023-01-05T12:57:27.935Z</time>
      </trkpt>
      <trkpt lat="43.20457" lon="2.40031">
        <ele>170.464516</ele>
        <time>2023-01-05T12:57:29.932Z</time>
      </trkpt>
      <trkpt lat="43.20454" lon="2.40047">
        <ele>170.170912</ele>
        <time>2023-01-05T12:57:31.942Z</time>
      </trkpt>
      <trkpt lat="43.20451" lon="2.40063">
        <ele>169.878528</ele>
        <time>2023-01-05T12:57:33.928Z</time>
      </trkpt>
      <trkpt lat="43.20449" lon="2.40078">
        <ele>169.733892</ele>
        <time>2023-01-05T12:57:35.930Z</time>
      </trkpt>
      <trkpt lat="43.20447" lon="2.40092">
        <ele>169.685634</ele>
        <time>2023-01-05T12:57:37.949Z</time>
      </trkpt>
      <trkpt lat="43.20445" lon="2.40109">
        <ele>169.629966</ele>
        <time>2023-01-05T12:57:39.937Z</time>
      </trkpt>
      <trkpt lat="43.20445" lon="2.40126">
        <ele>169.574504</ele>
        <time>2023-01-05T12:57:41.951Z</time>
      </trkpt>
      <trkpt lat="43.20444" lon="2.40143">
        <ele>169.520157</ele>
        <time>2023-01-05T12:57:43.948Z</time>
      </trkpt>
      <trkpt lat="43.20445" lon="2.40159">
        <ele>169.467436</ele>
        <time>2023-01-05T12:57:45.952Z</time>
      </trkpt>
      <trkpt lat="43.20446" lon="2.40176">
        <ele>169.413111</ele>
        <time>2023-01-05T12:57:47.934Z</time>
      </trkpt>
      <trkpt lat="43.20448" lon="2.40193">
        <ele>169.358566</ele>
        <time>2023-01-05T12:57:49.943Z</time>
      </trkpt>
      <trkpt lat="43.20449" lon="2.40209">
        <ele>169.305535</ele>
        <time>2023-01-05T12:57:51.937Z</time>
      </trkpt>
      <trkpt lat="43.20451" lon="2.40224">
        <ele>169.254832</ele>
        <time>2023-01-05T12:57:53.935Z</time>
      </trkpt>
      <trkpt lat="43.20454" lon="2.4024">
        <ele>169.202859</ele>
        <time>2023-01-05T12:57:55.933Z</time>
      </trkpt>
      <trkpt lat="43.20456" lon="2.40256">
        <ele>169.148883</ele>
        <time>2023-01-05T12:57:57.930Z</time>
      </trkpt>
      <trkpt lat="43.2046" lon="2.4027">
        <ele>169.099402</ele>
        <time>2023-01-05T12:57:59.935Z</time>
      </trkpt>
      <trkpt lat="43.20464" lon="2.40284">
        <ele>169.050007</ele>
        <time>2023-01-05T12:58:01.958Z</time>
      </trkpt>
      <trkpt lat="43.20468" lon="2.40299">
        <ele>168.999703</ele>
        <time>2023-01-05T12:58:03.932Z</time>
      </trkpt>
      <trkpt lat="43.20472" lon="2.40314">
        <ele>168.940965</ele>
        <time>2023-01-05T12:58:05.958Z</time>
      </trkpt>
      <trkpt lat="43.20476" lon="2.40329">
        <ele>168.864599</ele>
        <time>2023-01-05T12:58:07.937Z</time>
      </trkpt>
      <trkpt lat="43.2048" lon="2.40345">
        <ele>168.786266</ele>
        <time>2023-01-05T12:58:09.932Z</time>
      </trkpt>
      <trkpt lat="43.20484" lon="2.40362">
        <ele>168.705286</ele>
        <time>2023-01-05T12:58:11.930Z</time>
      </trkpt>
      <trkpt lat="43.20488" lon="2.40379">
        <ele>168.620319</ele>
        <time>2023-01-05T12:58:13.951Z</time>
      </trkpt>
      <trkpt lat="43.20492" lon="2.40397">
        <ele>168.53401</ele>
        <time>2023-01-05T12:58:15.946Z</time>
      </trkpt>
      <trkpt lat="43.20495" lon="2.40415">
        <ele>168.449207</ele>
        <time>2023-01-05T12:58:17.940Z</time>
      </trkpt>
      <trkpt lat="43.20497" lon="2.40433">
        <ele>168.362372</ele>
        <time>2023-01-05T12:58:19.931Z</time>
      </trkpt>
      <trkpt lat="43.20498" lon="2.40451">
        <ele>168.280623</ele>
        <time>2023-01-05T12:58:21.950Z</time>
      </trkpt>
      <trkpt lat="43.20499" lon="2.40468">
        <ele>168.199629</ele>
        <time>2023-01-05T12:58:23.951Z</time>
      </trkpt>
      <trkpt lat="43.205" lon="2.40485">
        <ele>168.119953</ele>
        <time>2023-01-05T12:58:25.933Z</time>
      </trkpt>
      <trkpt lat="43.20499" lon="2.40503">
        <ele>168.038759</ele>
        <time>2023-01-05T12:58:27.937Z</time>
      </trkpt>
      <trkpt lat="43.20498" lon="2.4052">
        <ele>167.955912</ele>
        <time>2023-01-05T12:58:29.932Z</time>
      </trkpt>
      <trkpt lat="43.20496" lon="2.40538">
        <ele>167.872535</ele>
        <time>2023-01-05T12:58:31.932Z</time>
      </trkpt>
      <trkpt lat="43.20495" lon="2.40557">
        <ele>167.79922</ele>
        <time>2023-01-05T12:58:33.949Z</time>
      </trkpt>
      <trkpt lat="43.20492" lon="2.40575">
        <ele>167.761146</ele>
        <time>2023-01-05T12:58:35.939Z</time>
      </trkpt>
      <trkpt lat="43.2049" lon="2.40593">
        <ele>167.724377</ele>
        <time>2023-01-05T12:58:37.950Z</time>
      </trkpt>
      <trkpt lat="43.20488" lon="2.4061">
        <ele>167.688577</ele>
        <time>2023-01-05T12:58:39.933Z</time>
      </trkpt>
      <trkpt lat="43.20486" lon="2.40628">
        <ele>167.651359</ele>
        <time>2023-01-05T12:58:41.938Z</time>
      </trkpt>
      <trkpt lat="43.20484" lon="2.40646">
        <ele>167.614141</ele>
        <time>2023-01-05T12:58:43.952Z</time>
      </trkpt>
      <trkpt lat="43.20482" lon="2.40663">
        <ele>167.577332</ele>
        <time>2023-01-05T12:58:45.950Z</time>
      </trkpt>
      <trkpt lat="43.20479" lon="2.40681">
        <ele>167.53926</ele>
        <time>2023-01-05T12:58:47.934Z</time>
      </trkpt>
      <trkpt lat="43.20477" lon="2.407">
        <ele>167.501389</ele>
        <time>2023-01-05T12:58:49.951Z</time>
      </trkpt>
      <trkpt lat="43.20474" lon="2.40718">
        <ele>167.462765</ele>
        <time>2023-01-05T12:58:51.948Z</time>
      </trkpt>
      <trkpt lat="43.20472" lon="2.40737">
        <ele>167.423632</ele>
        <time>2023-01-05T12:58:53.950Z</time>
      </trkpt>
      <trkpt lat="43.2047" lon="2.40755">
        <ele>167.38524</ele>
        <time>2023-01-05T12:58:55.947Z</time>
      </trkpt>
      <trkpt lat="43.20468" lon="2.40774">
        <ele>167.346805</ele>
        <time>2023-01-05T12:58:57.936Z</time>
      </trkpt>
      <trkpt lat="43.20466" lon="2.40792">
        <ele>167.308528</ele>
        <time>2023-01-05T12:58:59.941Z</time>
      </trkpt>
      <trkpt lat="43.20463" lon="2.40811">
        <ele>167.239426</ele>
        <time>2023-01-05T12:59:01.949Z</time>
      </trkpt>
      <trkpt lat="43.20461" lon="2.40829">
        <ele>167.168702</ele>
        <time>2023-01-05T12:59:03.962Z</time>
      </trkpt>
      <trkpt lat="43.20459" lon="2.40847">
        <ele>167.098646</ele>
        <time>2023-01-05T12:59:05.934Z</time>
      </trkpt>
      <trkpt lat="43.20456" lon="2.40865">
        <ele>167.027251</ele>
        <time>2023-01-05T12:59:07.930Z</time>
      </trkpt>
      <trkpt lat="43.20454" lon="2.40882">
        <ele>166.959955</ele>
        <time>2023-01-05T12:59:09.947Z</time>
      </trkpt>
      <trkpt lat="43.20451" lon="2.40899">
        <ele>166.894081</ele>
        <time>2023-01-05T12:59:11.928Z</time>
      </trkpt>
      <trkpt lat="43.20449" lon="2.40916">
        <ele>166.82782</ele>
        <time>2023-01-05T12:59:13.925Z</time>
      </trkpt>
      <trkpt lat="43.20447" lon="2.40933">
        <ele>166.76109</ele>
        <time>2023-01-05T12:59:15.939Z</time>
      </trkpt>
      <trkpt lat="43.20445" lon="2.40949">
        <ele>166.695975</ele>
        <time>2023-01-05T12:59:17.931Z</time>
      </trkpt>
      <trkpt lat="43.20443" lon="2.40966">
        <ele>166.630642</ele>
        <time>2023-01-05T12:59:19.933Z</time>
      </trkpt>
      <trkpt lat="43.20442" lon="2.40983">
        <ele>166.562168</ele>
        <time>2023-01-05T12:59:21.931Z</time>
      </trkpt>
      <trkpt lat="43.20439" lon="2.41001">
        <ele>166.494294</ele>
        <time>2023-01-05T12:59:23.928Z</time>
      </trkpt>
      <trkpt lat="43.20437" lon="2.41019">
        <ele>166.422618</ele>
        <time>2023-01-05T12:59:25.933Z</time>
      </trkpt>
      <trkpt lat="43.20434" lon="2.41037">
        <ele>166.351323</ele>
        <time>2023-01-05T12:59:27.946Z</time>
      </trkpt>
      <trkpt lat="43.20432" lon="2.41056">
        <ele>166.126523</ele>
        <time>2023-01-05T12:59:29.931Z</time>
      </trkpt>
      <trkpt lat="43.2043" lon="2.41075">
        <ele>165.89002</ele>
        <time>2023-01-05T12:59:31.930Z</time>
      </trkpt>
      <trkpt lat="43.20427" lon="2.41095">
        <ele>165.648473</ele>
        <time>2023-01-05T12:59:33.953Z</time>
      </trkpt>
      <trkpt lat="43.20425" lon="2.41115">
        <ele>165.407205</ele>
        <time>2023-01-05T12:59:35.937Z</time>
      </trkpt>
      <trkpt lat="43.20422" lon="2.41135">
        <ele>165.160897</ele>
        <time>2023-01-05T12:59:37.936Z</time>
      </trkpt>
      <trkpt lat="43.2042" lon="2.41155">
        <ele>164.917471</ele>
        <time>2023-01-05T12:59:39.935Z</time>
      </trkpt>
      <trkpt lat="43.20418" lon="2.41175">
        <ele>164.670755</ele>
        <time>2023-01-05T12:59:41.940Z</time>
      </trkpt>
      <trkpt lat="43.20417" lon="2.41195">
        <ele>164.430292</ele>
        <time>2023-01-05T12:59:43.937Z</time>
      </trkpt>
      <trkpt lat="43.20415" lon="2.41214">
        <ele>164.19496</ele>
        <time>2023-01-05T12:59:45.937Z</time>
      </trkpt>
      <trkpt lat="43.20415" lon="2.41234">
        <ele>163.95783</ele>
        <time>2023-01-05T12:59:47.930Z</time>
      </trkpt>
      <trkpt lat="43.20415" lon="2.41253">
        <ele>163.72107</ele>
        <time>2023-01-05T12:59:49.950Z</time>
      </trkpt>
      <trkpt lat="43.20415" lon="2.41273">
        <ele>163.484305</ele>
        <time>2023-01-05T12:59:51.950Z</time>
      </trkpt>
      <trkpt lat="43.20415" lon="2.41293">
        <ele>163.374741</ele>
        <time>2023-01-05T12:59:53.931Z</time>
      </trkpt>
      <trkpt lat="43.20416" lon="2.41314">
        <ele>163.388641</ele>
        <time>2023-01-05T12:59:55.933Z</time>
      </trkpt>
      <trkpt lat="43.20417" lon="2.41334">
        <ele>163.402006</ele>
        <time>2023-01-05T12:59:57.951Z</time>
      </trkpt>
      <trkpt lat="43.20419" lon="2.41353">
        <ele>163.415271</ele>
        <time>2023-01-05T12:59:59.953Z</time>
      </trkpt>
      <trkpt lat="43.20422" lon="2.41373">
        <ele>163.428617</ele>
        <time>2023-01-05T13:00:01.954Z</time>
      </trkpt>
      <trkpt lat="43.20424" lon="2.41392">
        <ele>163.441231</ele>
        <time>2023-01-05T13:00:03.928Z</time>
      </trkpt>
      <trkpt lat="43.20428" lon="2.4141">
        <ele>163.453365</ele>
        <time>2023-01-05T13:00:05.929Z</time>
      </trkpt>
      <trkpt lat="43.20431" lon="2.41427">
        <ele>163.465073</ele>
        <time>2023-01-05T13:00:07.940Z</time>
      </trkpt>
      <trkpt lat="43.20435" lon="2.41443">
        <ele>163.476755</ele>
        <time>2023-01-05T13:00:09.943Z</time>
      </trkpt>
      <trkpt lat="43.20439" lon="2.4146">
        <ele>163.488115</ele>
        <time>2023-01-05T13:00:11.934Z</time>
      </trkpt>
      <trkpt lat="43.20443" lon="2.41475">
        <ele>163.499257</ele>
        <time>2023-01-05T13:00:13.930Z</time>
      </trkpt>
      <trkpt lat="43.20447" lon="2.41491">
        <ele>163.510146</ele>
        <time>2023-01-05T13:00:15.939Z</time>
      </trkpt>
      <trkpt lat="43.20452" lon="2.41506">
        <ele>163.521199</ele>
        <time>2023-01-05T13:00:17.946Z</time>
      </trkpt>
      <trkpt lat="43.20456" lon="2.41521">
        <ele>163.529122</ele>
        <time>2023-01-05T13:00:19.954Z</time>
      </trkpt>
      <trkpt lat="43.2046" lon="2.41536">
        <ele>163.353735</ele>
        <time>2023-01-05T13:00:21.943Z</time>
      </trkpt>
      <trkpt lat="43.20464" lon="2.41551">
        <ele>163.180426</ele>
        <time>2023-01-05T13:00:23.935Z</time>
      </trkpt>
      <trkpt lat="43.20468" lon="2.41566">
        <ele>163.010655</ele>
        <time>2023-01-05T13:00:25.946Z</time>
      </trkpt>
      <trkpt lat="43.20471" lon="2.41582">
        <ele>162.831618</ele>
        <time>2023-01-05T13:00:27.940Z</time>
      </trkpt>
      <trkpt lat="43.20476" lon="2.41596">
        <ele>162.660793</ele>
        <time>2023-01-05T13:00:29.937Z</time>
      </trkpt>
      <trkpt lat="43.20481" lon="2.41611">
        <ele>162.486793</ele>
        <time>2023-01-05T13:00:31.938Z</time>
      </trkpt>
      <trkpt lat="43.20485" lon="2.41626">
        <ele>162.315368</ele>
        <time>2023-01-05T13:00:33.941Z</time>
      </trkpt>
      <trkpt lat="43.2049" lon="2.4164">
        <ele>162.143943</ele>
        <time>2023-01-05T13:00:35.940Z</time>
      </trkpt>
      <trkpt lat="43.20494" lon="2.41656">
        <ele>161.960342</ele>
        <time>2023-01-05T13:00:37.951Z</time>
      </trkpt>
      <trkpt lat="43.20499" lon="2.41672">
        <ele>161.772033</ele>
        <time>2023-01-05T13:00:39.938Z</time>
      </trkpt>
      <trkpt lat="43.20504" lon="2.41688">
        <ele>161.580146</ele>
        <time>2023-01-05T13:00:41.945Z</time>
      </trkpt>
      <trkpt lat="43.20509" lon="2.41704">
        <ele>161.389259</ele>
        <time>2023-01-05T13:00:43.949Z</time>
      </trkpt>
      <trkpt lat="43.20513" lon="2.41721">
        <ele>161.196058</ele>
        <time>2023-01-05T13:00:45.935Z</time>
      </trkpt>
      <trkpt lat="43.20518" lon="2.41739">
        <ele>160.993052</ele>
        <time>2023-01-05T13:00:47.938Z</time>
      </trkpt>
      <trkpt lat="43.20522" lon="2.41758">
        <ele>160.6985</ele>
        <time>2023-01-05T13:00:49.932Z</time>
      </trkpt>
      <trkpt lat="43.20528" lon="2.41777">
        <ele>160.260485</ele>
        <time>2023-01-05T13:00:51.951Z</time>
      </trkpt>
      <trkpt lat="43.20533" lon="2.41796">
        <ele>159.825104</ele>
        <time>2023-01-05T13:00:53.943Z</time>
      </trkpt>
      <trkpt lat="43.20539" lon="2.41814">
        <ele>159.395589</ele>
        <time>2023-01-05T13:00:55.952Z</time>
      </trkpt>
      <trkpt lat="43.20544" lon="2.41832">
        <ele>158.971174</ele>
        <time>2023-01-05T13:00:57.948Z</time>
      </trkpt>
      <trkpt lat="43.20548" lon="2.41851">
        <ele>158.545798</ele>
        <time>2023-01-05T13:00:59.952Z</time>
      </trkpt>
      <trkpt lat="43.20553" lon="2.41869">
        <ele>158.136608</ele>
        <time>2023-01-05T13:01:01.935Z</time>
      </trkpt>
      <trkpt lat="43.20558" lon="2.41887">
        <ele>157.721437</ele>
        <time>2023-01-05T13:01:03.953Z</time>
      </trkpt>
      <trkpt lat="43.20563" lon="2.41906">
        <ele>157.284821</ele>
        <time>2023-01-05T13:01:05.937Z</time>
      </trkpt>
      <trkpt lat="43.20569" lon="2.41925">
        <ele>156.840194</ele>
        <time>2023-01-05T13:01:07.943Z</time>
      </trkpt>
      <trkpt lat="43.20574" lon="2.41943">
        <ele>156.419531</ele>
        <time>2023-01-05T13:01:09.950Z</time>
      </trkpt>
      <trkpt lat="43.2058" lon="2.41961">
        <ele>155.990222</ele>
        <time>2023-01-05T13:01:11.943Z</time>
      </trkpt>
      <trkpt lat="43.20585" lon="2.41979">
        <ele>155.572055</ele>
        <time>2023-01-05T13:01:13.929Z</time>
      </trkpt>
      <trkpt lat="43.2059" lon="2.41998">
        <ele>155.329533</ele>
        <time>2023-01-05T13:01:15.928Z</time>
      </trkpt>
      <trkpt lat="43.20594" lon="2.42017">
        <ele>155.093987</ele>
        <time>2023-01-05T13:01:17.930Z</time>
      </trkpt>
      <trkpt lat="43.20597" lon="2.42037">
        <ele>154.853725</ele>
        <time>2023-01-05T13:01:19.931Z</time>
      </trkpt>
      <trkpt lat="43.206" lon="2.42058">
        <ele>154.604657</ele>
        <time>2023-01-05T13:01:21.937Z</time>
      </trkpt>
      <trkpt lat="43.20603" lon="2.4208">
        <ele>154.347553</ele>
        <time>2023-01-05T13:01:23.936Z</time>
      </trkpt>
      <trkpt lat="43.20604" lon="2.42103">
        <ele>154.087514</ele>
        <time>2023-01-05T13:01:25.938Z</time>
      </trkpt>
      <trkpt lat="43.20604" lon="2.42125">
        <ele>153.827651</ele>
        <time>2023-01-05T13:01:27.943Z</time>
      </trkpt>
      <trkpt lat="43.20604" lon="2.42146">
        <ele>153.576244</ele>
        <time>2023-01-05T13:01:29.941Z</time>
      </trkpt>
      <trkpt lat="43.20603" lon="2.42167">
        <ele>153.333396</ele>
        <time>2023-01-05T13:01:31.925Z</time>
      </trkpt>
      <trkpt lat="43.20603" lon="2.42187">
        <ele>153.102923</ele>
        <time>2023-01-05T13:01:33.924Z</time>
      </trkpt>
      <trkpt lat="43.20602" lon="2.42207">
        <ele>152.871919</ele>
        <time>2023-01-05T13:01:35.935Z</time>
      </trkpt>
      <trkpt lat="43.20601" lon="2.42227">
        <ele>152.628601</ele>
        <time>2023-01-05T13:01:37.931Z</time>
      </trkpt>
      <trkpt lat="43.20599" lon="2.42247">
        <ele>152.364003</ele>
        <time>2023-01-05T13:01:39.926Z</time>
      </trkpt>
      <trkpt lat="43.20597" lon="2.42267">
        <ele>152.106397</ele>
        <time>2023-01-05T13:01:41.936Z</time>
      </trkpt>
      <trkpt lat="43.20596" lon="2.42285">
        <ele>151.863111</ele>
        <time>2023-01-05T13:01:43.936Z</time>
      </trkpt>
      <trkpt lat="43.20595" lon="2.42303">
        <ele>151.625236</ele>
        <time>2023-01-05T13:01:45.948Z</time>
      </trkpt>
      <trkpt lat="43.20593" lon="2.42321">
        <ele>151.387004</ele>
        <time>2023-01-05T13:01:47.930Z</time>
      </trkpt>
      <trkpt lat="43.20592" lon="2.42339">
        <ele>151.154006</ele>
        <time>2023-01-05T13:01:49.943Z</time>
      </trkpt>
      <trkpt lat="43.2059" lon="2.42356">
        <ele>150.929487</ele>
        <time>2023-01-05T13:01:51.936Z</time>
      </trkpt>
      <trkpt lat="43.20589" lon="2.42373">
        <ele>150.694537</ele>
        <time>2023-01-05T13:01:53.929Z</time>
      </trkpt>
      <trkpt lat="43.20588" lon="2.42391">
        <ele>150.466147</ele>
        <time>2023-01-05T13:01:55.937Z</time>
      </trkpt>
      <trkpt lat="43.20588" lon="2.42407">
        <ele>150.248521</ele>
        <time>2023-01-05T13:01:57.944Z</time>
      </trkpt>
      <trkpt lat="43.20586" lon="2.42422">
        <ele>150.055242</ele>
        <time>2023-01-05T13:01:59.939Z</time>
      </trkpt>
      <trkpt lat="43.20585" lon="2.42439">
        <ele>149.822191</ele>
        <time>2023-01-05T13:02:02.940Z</time>
      </trkpt>
      <trkpt lat="43.20585" lon="2.42456">
        <ele>149.600978</ele>
        <time>2023-01-05T13:02:05.934Z</time>
      </trkpt>
      <trkpt lat="43.20583" lon="2.42473">
        <ele>149.357686</ele>
        <time>2023-01-05T13:02:08.938Z</time>
      </trkpt>
      <trkpt lat="43.20576" lon="2.42489">
        <ele>149.054618</ele>
        <time>2023-01-05T13:02:11.935Z</time>
      </trkpt>
      <trkpt lat="43.2057" lon="2.42498">
        <ele>148.843923</ele>
        <time>2023-01-05T13:02:13.947Z</time>
      </trkpt>
      <trkpt lat="43.20569" lon="2.42515">
        <ele>148.549984</ele>
        <time>2023-01-05T13:02:16.935Z</time>
      </trkpt>
      <trkpt lat="43.20575" lon="2.42526">
        <ele>148.329264</ele>
        <time>2023-01-05T13:02:18.941Z</time>
      </trkpt>
      <trkpt lat="43.20582" lon="2.42535">
        <ele>148.095696</ele>
        <time>2023-01-05T13:02:20.929Z</time>
      </trkpt>
      <trkpt lat="43.20589" lon="2.42548">
        <ele>147.843313</ele>
        <time>2023-01-05T13:02:22.941Z</time>
      </trkpt>
      <trkpt lat="43.20593" lon="2.42562">
        <ele>147.574716</ele>
        <time>2023-01-05T13:02:24.940Z</time>
      </trkpt>
      <trkpt lat="43.20596" lon="2.42579">
        <ele>147.28601</ele>
        <time>2023-01-05T13:02:26.937Z</time>
      </trkpt>
      <trkpt lat="43.206" lon="2.42595">
        <ele>146.991527</ele>
        <time>2023-01-05T13:02:28.936Z</time>
      </trkpt>
      <trkpt lat="43.20604" lon="2.42612">
        <ele>146.687753</ele>
        <time>2023-01-05T13:02:30.937Z</time>
      </trkpt>
      <trkpt lat="43.20608" lon="2.4263">
        <ele>146.376354</ele>
        <time>2023-01-05T13:02:32.942Z</time>
      </trkpt>
      <trkpt lat="43.20612" lon="2.42647">
        <ele>146.073079</ele>
        <time>2023-01-05T13:02:34.952Z</time>
      </trkpt>
      <trkpt lat="43.20616" lon="2.42665">
        <ele>145.753539</ele>
        <time>2023-01-05T13:02:36.946Z</time>
      </trkpt>
      <trkpt lat="43.20619" lon="2.42683">
        <ele>145.440514</ele>
        <time>2023-01-05T13:02:38.945Z</time>
      </trkpt>
      <trkpt lat="43.20623" lon="2.42701">
        <ele>145.117244</ele>
        <time>2023-01-05T13:02:40.943Z</time>
      </trkpt>
      <trkpt lat="43.20626" lon="2.42721">
        <ele>144.802328</ele>
        <time>2023-01-05T13:02:42.950Z</time>
      </trkpt>
      <trkpt lat="43.20629" lon="2.4274">
        <ele>144.482132</ele>
        <time>2023-01-05T13:02:44.937Z</time>
      </trkpt>
      <trkpt lat="43.20631" lon="2.4276">
        <ele>144.154055</ele>
        <time>2023-01-05T13:02:46.938Z</time>
      </trkpt>
      <trkpt lat="43.20632" lon="2.4278">
        <ele>143.832107</ele>
        <time>2023-01-05T13:02:48.950Z</time>
      </trkpt>
      <trkpt lat="43.20633" lon="2.428">
        <ele>143.50937</ele>
        <time>2023-01-05T13:02:50.951Z</time>
      </trkpt>
      <trkpt lat="43.20633" lon="2.4282">
        <ele>143.193289</ele>
        <time>2023-01-05T13:02:52.942Z</time>
      </trkpt>
      <trkpt lat="43.20633" lon="2.4284">
        <ele>142.87717</ele>
        <time>2023-01-05T13:02:54.937Z</time>
      </trkpt>
      <trkpt lat="43.20632" lon="2.4286">
        <ele>142.557154</ele>
        <time>2023-01-05T13:02:56.932Z</time>
      </trkpt>
      <trkpt lat="43.20631" lon="2.42879">
        <ele>142.248489</ele>
        <time>2023-01-05T13:02:58.936Z</time>
      </trkpt>
      <trkpt lat="43.2063" lon="2.42898">
        <ele>141.941275</ele>
        <time>2023-01-05T13:03:00.949Z</time>
      </trkpt>
      <trkpt lat="43.20629" lon="2.42917">
        <ele>141.640462</ele>
        <time>2023-01-05T13:03:02.950Z</time>
      </trkpt>
      <trkpt lat="43.20627" lon="2.42935">
        <ele>141.348882</ele>
        <time>2023-01-05T13:03:04.947Z</time>
      </trkpt>
      <trkpt lat="43.20626" lon="2.42954">
        <ele>141.118277</ele>
        <time>2023-01-05T13:03:06.950Z</time>
      </trkpt>
      <trkpt lat="43.20625" lon="2.42973">
        <ele>140.923794</ele>
        <time>2023-01-05T13:03:08.951Z</time>
      </trkpt>
      <trkpt lat="43.20624" lon="2.4299">
        <ele>140.741649</ele>
        <time>2023-01-05T13:03:10.950Z</time>
      </trkpt>
      <trkpt lat="43.20624" lon="2.43008">
        <ele>140.558522</ele>
        <time>2023-01-05T13:03:12.936Z</time>
      </trkpt>
      <trkpt lat="43.20623" lon="2.43026">
        <ele>140.368914</ele>
        <time>2023-01-05T13:03:14.932Z</time>
      </trkpt>
      <trkpt lat="43.20622" lon="2.43044">
        <ele>140.17504</ele>
        <time>2023-01-05T13:03:16.943Z</time>
      </trkpt>
      <trkpt lat="43.20621" lon="2.43063">
        <ele>139.981065</ele>
        <time>2023-01-05T13:03:18.943Z</time>
      </trkpt>
      <trkpt lat="43.20619" lon="2.43081">
        <ele>139.785906</ele>
        <time>2023-01-05T13:03:20.940Z</time>
      </trkpt>
      <trkpt lat="43.20616" lon="2.43099">
        <ele>139.592119</ele>
        <time>2023-01-05T13:03:22.948Z</time>
      </trkpt>
      <trkpt lat="43.20612" lon="2.43116">
        <ele>139.411288</ele>
        <time>2023-01-05T13:03:24.936Z</time>
      </trkpt>
      <trkpt lat="43.20608" lon="2.43131">
        <ele>139.239191</ele>
        <time>2023-01-05T13:03:26.934Z</time>
      </trkpt>
      <trkpt lat="43.20608" lon="2.43148">
        <ele>139.068697</ele>
        <time>2023-01-05T13:03:28.943Z</time>
      </trkpt>
      <trkpt lat="43.20611" lon="2.43165">
        <ele>138.886134</ele>
        <time>2023-01-05T13:03:30.939Z</time>
      </trkpt>
      <trkpt lat="43.20616" lon="2.43182">
        <ele>138.692798</ele>
        <time>2023-01-05T13:03:32.933Z</time>
      </trkpt>
      <trkpt lat="43.20621" lon="2.43199">
        <ele>138.819895</ele>
        <time>2023-01-05T13:03:34.940Z</time>
      </trkpt>
      <trkpt lat="43.20624" lon="2.43218">
        <ele>138.956795</ele>
        <time>2023-01-05T13:03:36.943Z</time>
      </trkpt>
      <trkpt lat="43.20622" lon="2.43233">
        <ele>139.066814</ele>
        <time>2023-01-05T13:03:38.947Z</time>
      </trkpt>
      <trkpt lat="43.2062" lon="2.43246">
        <ele>139.159914</ele>
        <time>2023-01-05T13:03:40.935Z</time>
      </trkpt>
      <trkpt lat="43.20615" lon="2.43263">
        <ele>139.285358</ele>
        <time>2023-01-05T13:03:43.922Z</time>
      </trkpt>
      <trkpt lat="43.20612" lon="2.43279">
        <ele>139.403098</ele>
        <time>2023-01-05T13:03:46.950Z</time>
      </trkpt>
      <trkpt lat="43.20609" lon="2.43295">
        <ele>139.519237</ele>
        <time>2023-01-05T13:03:49.943Z</time>
      </trkpt>
      <trkpt lat="43.20608" lon="2.43313">
        <ele>139.646399</ele>
        <time>2023-01-05T13:03:52.941Z</time>
      </trkpt>
      <trkpt lat="43.20607" lon="2.4333">
        <ele>139.769514</ele>
        <time>2023-01-05T13:03:55.942Z</time>
      </trkpt>
      <trkpt lat="43.20608" lon="2.43349">
        <ele>139.90006</ele>
        <time>2023-01-05T13:03:58.945Z</time>
      </trkpt>
      <trkpt lat="43.20607" lon="2.43367">
        <ele>140.031682</ele>
        <time>2023-01-05T13:04:01.939Z</time>
      </trkpt>
      <trkpt lat="43.20607" lon="2.43381">
        <ele>140.124684</ele>
        <time>2023-01-05T13:04:03.938Z</time>
      </trkpt>
      <trkpt lat="43.20606" lon="2.43394">
        <ele>140.221194</ele>
        <time>2023-01-05T13:04:05.944Z</time>
      </trkpt>
      <trkpt lat="43.20607" lon="2.43408">
        <ele>140.317742</ele>
        <time>2023-01-05T13:04:07.932Z</time>
      </trkpt>
      <trkpt lat="43.20607" lon="2.43422">
        <ele>140.413717</ele>
        <time>2023-01-05T13:04:09.923Z</time>
      </trkpt>
      <trkpt lat="43.20608" lon="2.43436">
        <ele>140.280491</ele>
        <time>2023-01-05T13:04:11.938Z</time>
      </trkpt>
      <trkpt lat="43.20608" lon="2.43451">
        <ele>140.109093</ele>
        <time>2023-01-05T13:04:13.945Z</time>
      </trkpt>
      <trkpt lat="43.20608" lon="2.43465">
        <ele>139.935131</ele>
        <time>2023-01-05T13:04:15.938Z</time>
      </trkpt>
      <trkpt lat="43.20608" lon="2.4348">
        <ele>139.760171</ele>
        <time>2023-01-05T13:04:17.933Z</time>
      </trkpt>
      <trkpt lat="43.20607" lon="2.43495">
        <ele>139.58682</ele>
        <time>2023-01-05T13:04:19.942Z</time>
      </trkpt>
      <trkpt lat="43.20607" lon="2.4351">
        <ele>139.406979</ele>
        <time>2023-01-05T13:04:21.952Z</time>
      </trkpt>
      <trkpt lat="43.20603" lon="2.43523">
        <ele>139.232514</ele>
        <time>2023-01-05T13:04:23.962Z</time>
      </trkpt>
      <trkpt lat="43.206" lon="2.43538">
        <ele>139.046027</ele>
        <time>2023-01-05T13:04:25.951Z</time>
      </trkpt>
      <trkpt lat="43.20595" lon="2.43553">
        <ele>138.857989</ele>
        <time>2023-01-05T13:04:27.949Z</time>
      </trkpt>
      <trkpt lat="43.2059" lon="2.43568">
        <ele>138.660086</ele>
        <time>2023-01-05T13:04:29.965Z</time>
      </trkpt>
      <trkpt lat="43.20584" lon="2.43582">
        <ele>138.470795</ele>
        <time>2023-01-05T13:04:31.940Z</time>
      </trkpt>
      <trkpt lat="43.20578" lon="2.43596">
        <ele>138.276807</ele>
        <time>2023-01-05T13:04:33.934Z</time>
      </trkpt>
      <trkpt lat="43.20572" lon="2.43609">
        <ele>138.087597</ele>
        <time>2023-01-05T13:04:35.931Z</time>
      </trkpt>
      <trkpt lat="43.20567" lon="2.43622">
        <ele>137.910933</ele>
        <time>2023-01-05T13:04:37.951Z</time>
      </trkpt>
      <trkpt lat="43.2056" lon="2.43637">
        <ele>137.700826</ele>
        <time>2023-01-05T13:04:40.941Z</time>
      </trkpt>
      <trkpt lat="43.2055" lon="2.43665">
        <ele>137.260577</ele>
        <time>2023-01-05T13:06:14.932Z</time>
      </trkpt>
      <trkpt lat="43.20544" lon="2.43677">
        <ele>137.002867</ele>
        <time>2023-01-05T13:06:17.937Z</time>
      </trkpt>
      <trkpt lat="43.20538" lon="2.4369">
        <ele>136.718629</ele>
        <time>2023-01-05T13:06:20.936Z</time>
      </trkpt>
      <trkpt lat="43.20533" lon="2.43705">
        <ele>136.427467</ele>
        <time>2023-01-05T13:06:23.940Z</time>
      </trkpt>
      <trkpt lat="43.20527" lon="2.43721">
        <ele>136.109675</ele>
        <time>2023-01-05T13:06:26.940Z</time>
      </trkpt>
      <trkpt lat="43.20523" lon="2.43732">
        <ele>135.884142</ele>
        <time>2023-01-05T13:06:28.933Z</time>
      </trkpt>
      <trkpt lat="43.20518" lon="2.43744">
        <ele>135.648467</ele>
        <time>2023-01-05T13:06:30.933Z</time>
      </trkpt>
      <trkpt lat="43.20513" lon="2.43756">
        <ele>135.404799</ele>
        <time>2023-01-05T13:06:32.939Z</time>
      </trkpt>
      <trkpt lat="43.20509" lon="2.43768">
        <ele>135.153536</ele>
        <time>2023-01-05T13:06:34.935Z</time>
      </trkpt>
      <trkpt lat="43.20504" lon="2.43781">
        <ele>134.893702</ele>
        <time>2023-01-05T13:06:36.962Z</time>
      </trkpt>
      <trkpt lat="43.20498" lon="2.43793">
        <ele>134.646954</ele>
        <time>2023-01-05T13:06:38.929Z</time>
      </trkpt>
      <trkpt lat="43.20493" lon="2.43806">
        <ele>134.386349</ele>
        <time>2023-01-05T13:06:40.943Z</time>
      </trkpt>
      <trkpt lat="43.20488" lon="2.43819">
        <ele>134.116266</ele>
        <time>2023-01-05T13:06:42.943Z</time>
      </trkpt>
      <trkpt lat="43.20482" lon="2.43832">
        <ele>133.85171</ele>
        <time>2023-01-05T13:06:44.941Z</time>
      </trkpt>
      <trkpt lat="43.20477" lon="2.43845">
        <ele>133.596573</ele>
        <time>2023-01-05T13:06:46.932Z</time>
      </trkpt>
      <trkpt lat="43.20472" lon="2.43857">
        <ele>133.337875</ele>
        <time>2023-01-05T13:06:48.937Z</time>
      </trkpt>
      <trkpt lat="43.20467" lon="2.4387">
        <ele>133.097549</ele>
        <time>2023-01-05T13:06:50.935Z</time>
      </trkpt>
      <trkpt lat="43.20462" lon="2.43882">
        <ele>133.029858</ele>
        <time>2023-01-05T13:06:52.938Z</time>
      </trkpt>
      <trkpt lat="43.20457" lon="2.43894">
        <ele>132.964545</ele>
        <time>2023-01-05T13:06:54.936Z</time>
      </trkpt>
      <trkpt lat="43.20452" lon="2.43907">
        <ele>132.89538</ele>
        <time>2023-01-05T13:06:56.936Z</time>
      </trkpt>
      <trkpt lat="43.20446" lon="2.43919">
        <ele>132.82556</ele>
        <time>2023-01-05T13:06:58.938Z</time>
      </trkpt>
      <trkpt lat="43.20441" lon="2.43932">
        <ele>132.754914</ele>
        <time>2023-01-05T13:07:00.940Z</time>
      </trkpt>
      <trkpt lat="43.20436" lon="2.43946">
        <ele>132.683302</ele>
        <time>2023-01-05T13:07:02.936Z</time>
      </trkpt>
      <trkpt lat="43.20431" lon="2.43958">
        <ele>132.612737</ele>
        <time>2023-01-05T13:07:04.943Z</time>
      </trkpt>
      <trkpt lat="43.20425" lon="2.43971">
        <ele>132.541484</ele>
        <time>2023-01-05T13:07:06.951Z</time>
      </trkpt>
      <trkpt lat="43.2042" lon="2.43984">
        <ele>132.473975</ele>
        <time>2023-01-05T13:07:08.952Z</time>
      </trkpt>
      <trkpt lat="43.20415" lon="2.43997">
        <ele>132.401149</ele>
        <time>2023-01-05T13:07:10.943Z</time>
      </trkpt>
      <trkpt lat="43.2041" lon="2.4401">
        <ele>132.32958</ele>
        <time>2023-01-05T13:07:12.943Z</time>
      </trkpt>
      <trkpt lat="43.20404" lon="2.44023">
        <ele>132.258327</ele>
        <time>2023-01-05T13:07:14.933Z</time>
      </trkpt>
      <trkpt lat="43.204" lon="2.44036">
        <ele>132.188417</ele>
        <time>2023-01-05T13:07:16.934Z</time>
      </trkpt>
      <trkpt lat="43.20394" lon="2.44049">
        <ele>132.119251</ele>
        <time>2023-01-05T13:07:18.935Z</time>
      </trkpt>
      <trkpt lat="43.20389" lon="2.44061">
        <ele>132.051656</ele>
        <time>2023-01-05T13:07:20.938Z</time>
      </trkpt>
      <trkpt lat="43.20384" lon="2.44074">
        <ele>131.983545</ele>
        <time>2023-01-05T13:07:22.941Z</time>
      </trkpt>
      <trkpt lat="43.2038" lon="2.44086">
        <ele>131.926377</ele>
        <time>2023-01-05T13:07:24.946Z</time>
      </trkpt>
      <trkpt lat="43.20375" lon="2.44098">
        <ele>131.938064</ele>
        <time>2023-01-05T13:07:26.943Z</time>
      </trkpt>
      <trkpt lat="43.2037" lon="2.44111">
        <ele>131.950205</ele>
        <time>2023-01-05T13:07:28.933Z</time>
      </trkpt>
      <trkpt lat="43.20365" lon="2.44123">
        <ele>131.961745</ele>
        <time>2023-01-05T13:07:30.927Z</time>
      </trkpt>
      <trkpt lat="43.2036" lon="2.44135">
        <ele>131.973606</ele>
        <time>2023-01-05T13:07:32.938Z</time>
      </trkpt>
      <trkpt lat="43.20354" lon="2.44148">
        <ele>131.985667</ele>
        <time>2023-01-05T13:07:34.936Z</time>
      </trkpt>
      <trkpt lat="43.20349" lon="2.4416">
        <ele>131.997298</ele>
        <time>2023-01-05T13:07:36.934Z</time>
      </trkpt>
      <trkpt lat="43.20344" lon="2.44173">
        <ele>132.009185</ele>
        <time>2023-01-05T13:07:38.932Z</time>
      </trkpt>
      <trkpt lat="43.20339" lon="2.44185">
        <ele>132.020656</ele>
        <time>2023-01-05T13:07:40.951Z</time>
      </trkpt>
      <trkpt lat="43.20334" lon="2.44195">
        <ele>132.031218</ele>
        <time>2023-01-05T13:07:42.939Z</time>
      </trkpt>
      <trkpt lat="43.20328" lon="2.44206">
        <ele>132.042231</ele>
        <time>2023-01-05T13:07:44.935Z</time>
      </trkpt>
      <trkpt lat="43.20323" lon="2.44217">
        <ele>132.053311</ele>
        <time>2023-01-05T13:07:46.932Z</time>
      </trkpt>
      <trkpt lat="43.20317" lon="2.44228">
        <ele>132.064594</ele>
        <time>2023-01-05T13:07:48.936Z</time>
      </trkpt>
      <trkpt lat="43.20311" lon="2.44239">
        <ele>132.076296</ele>
        <time>2023-01-05T13:07:50.935Z</time>
      </trkpt>
      <trkpt lat="43.20304" lon="2.44251">
        <ele>132.088451</ele>
        <time>2023-01-05T13:07:52.950Z</time>
      </trkpt>
      <trkpt lat="43.20298" lon="2.44261">
        <ele>132.099799</ele>
        <time>2023-01-05T13:07:54.935Z</time>
      </trkpt>
      <trkpt lat="43.2029" lon="2.44269">
        <ele>132.110877</ele>
        <time>2023-01-05T13:07:56.937Z</time>
      </trkpt>
      <trkpt lat="43.20278" lon="2.44276">
        <ele>132.126176</ele>
        <time>2023-01-05T13:07:59.940Z</time>
      </trkpt>
      <trkpt lat="43.20267" lon="2.44286">
        <ele>132.193562</ele>
        <time>2023-01-05T13:08:02.939Z</time>
      </trkpt>
      <trkpt lat="43.20258" lon="2.44298">
        <ele>132.282731</ele>
        <time>2023-01-05T13:08:05.931Z</time>
      </trkpt>
      <trkpt lat="43.2025" lon="2.4431">
        <ele>132.367413</ele>
        <time>2023-01-05T13:08:08.938Z</time>
      </trkpt>
      <trkpt lat="43.20243" lon="2.44321">
        <ele>132.442805</ele>
        <time>2023-01-05T13:08:11.932Z</time>
      </trkpt>
      <trkpt lat="43.20237" lon="2.44333">
        <ele>132.510319</ele>
        <time>2023-01-05T13:08:14.941Z</time>
      </trkpt>
      <trkpt lat="43.2023" lon="2.44345">
        <ele>132.590521</ele>
        <time>2023-01-05T13:08:18.931Z</time>
      </trkpt>
      <trkpt lat="43.20229" lon="2.44359">
        <ele>132.661731</ele>
        <time>2023-01-05T13:08:54.549Z</time>
      </trkpt>
      <trkpt lat="43.20238" lon="2.44353">
        <ele>132.734311</ele>
        <time>2023-01-05T13:23:01.951Z</time>
      </trkpt>
      <trkpt lat="43.2024" lon="2.4434">
        <ele>132.800066</ele>
        <time>2023-01-05T13:23:05.939Z</time>
      </trkpt>
      <trkpt lat="43.20242" lon="2.44327">
        <ele>132.868663</ele>
        <time>2023-01-05T13:23:09.952Z</time>
      </trkpt>
      <trkpt lat="43.2025" lon="2.44317">
        <ele>132.945243</ele>
        <time>2023-01-05T13:23:14.942Z</time>
      </trkpt>
      <trkpt lat="43.20258" lon="2.4432">
        <ele>133.008978</ele>
        <time>2023-01-05T13:23:18.938Z</time>
      </trkpt>
      <trkpt lat="43.20265" lon="2.4433">
        <ele>133.07896</ele>
        <time>2023-01-05T13:23:23.938Z</time>
      </trkpt>
      <trkpt lat="43.20266" lon="2.44345">
        <ele>133.153065</ele>
        <time>2023-01-05T13:23:27.937Z</time>
      </trkpt>
      <trkpt lat="43.20262" lon="2.44357">
        <ele>133.21956</ele>
        <time>2023-01-05T13:23:30.937Z</time>
      </trkpt>
      <trkpt lat="43.20257" lon="2.4437">
        <ele>133.296441</ele>
        <time>2023-01-05T13:23:33.929Z</time>
      </trkpt>
      <trkpt lat="43.20252" lon="2.44384">
        <ele>133.376387</ele>
        <time>2023-01-05T13:23:36.929Z</time>
      </trkpt>
      <trkpt lat="43.20247" lon="2.44399">
        <ele>133.270296</ele>
        <time>2023-01-05T13:23:39.933Z</time>
      </trkpt>
      <trkpt lat="43.20241" lon="2.44414">
        <ele>133.129756</ele>
        <time>2023-01-05T13:23:42.956Z</time>
      </trkpt>
      <trkpt lat="43.20236" lon="2.44425">
        <ele>133.029883</ele>
        <time>2023-01-05T13:23:44.949Z</time>
      </trkpt>
      <trkpt lat="43.2023" lon="2.44441">
        <ele>132.883996</ele>
        <time>2023-01-05T13:23:47.951Z</time>
      </trkpt>
      <trkpt lat="43.20224" lon="2.44457">
        <ele>132.740776</ele>
        <time>2023-01-05T13:23:50.935Z</time>
      </trkpt>
      <trkpt lat="43.2022" lon="2.44469">
        <ele>132.635579</ele>
        <time>2023-01-05T13:23:52.946Z</time>
      </trkpt>
      <trkpt lat="43.20214" lon="2.44485">
        <ele>132.486544</ele>
        <time>2023-01-05T13:23:55.932Z</time>
      </trkpt>
      <trkpt lat="43.2021" lon="2.44497">
        <ele>132.382063</ele>
        <time>2023-01-05T13:23:57.954Z</time>
      </trkpt>
      <trkpt lat="43.20205" lon="2.44508">
        <ele>132.278308</ele>
        <time>2023-01-05T13:23:59.958Z</time>
      </trkpt>
      <trkpt lat="43.20201" lon="2.4452">
        <ele>132.171181</ele>
        <time>2023-01-05T13:24:01.950Z</time>
      </trkpt>
      <trkpt lat="43.20196" lon="2.44532">
        <ele>132.058113</ele>
        <time>2023-01-05T13:24:03.951Z</time>
      </trkpt>
      <trkpt lat="43.20191" lon="2.44545">
        <ele>131.944478</ele>
        <time>2023-01-05T13:24:05.959Z</time>
      </trkpt>
      <trkpt lat="43.20186" lon="2.44557">
        <ele>131.839163</ele>
        <time>2023-01-05T13:24:07.949Z</time>
      </trkpt>
      <trkpt lat="43.20181" lon="2.44568">
        <ele>131.727202</ele>
        <time>2023-01-05T13:24:09.951Z</time>
      </trkpt>
      <trkpt lat="43.20176" lon="2.44581">
        <ele>131.613061</ele>
        <time>2023-01-05T13:24:11.953Z</time>
      </trkpt>
      <trkpt lat="43.20171" lon="2.44593">
        <ele>131.49982</ele>
        <time>2023-01-05T13:24:13.933Z</time>
      </trkpt>
      <trkpt lat="43.20166" lon="2.44606">
        <ele>131.402577</ele>
        <time>2023-01-05T13:24:15.945Z</time>
      </trkpt>
      <trkpt lat="43.20161" lon="2.44618">
        <ele>131.390799</ele>
        <time>2023-01-05T13:24:17.950Z</time>
      </trkpt>
      <trkpt lat="43.20156" lon="2.44631">
        <ele>131.378722</ele>
        <time>2023-01-05T13:24:19.931Z</time>
      </trkpt>
      <trkpt lat="43.20151" lon="2.44643">
        <ele>131.366634</ele>
        <time>2023-01-05T13:24:21.951Z</time>
      </trkpt>
      <trkpt lat="43.20147" lon="2.44656">
        <ele>131.354735</ele>
        <time>2023-01-05T13:24:23.952Z</time>
      </trkpt>
      <trkpt lat="43.20141" lon="2.44668">
        <ele>131.343215</ele>
        <time>2023-01-05T13:24:25.957Z</time>
      </trkpt>
      <trkpt lat="43.20137" lon="2.4468">
        <ele>131.331681</ele>
        <time>2023-01-05T13:24:27.948Z</time>
      </trkpt>
      <trkpt lat="43.20132" lon="2.44692">
        <ele>131.319814</ele>
        <time>2023-01-05T13:24:29.956Z</time>
      </trkpt>
      <trkpt lat="43.20126" lon="2.44705">
        <ele>131.307171</ele>
        <time>2023-01-05T13:24:31.931Z</time>
      </trkpt>
      <trkpt lat="43.20121" lon="2.44716">
        <ele>131.2959</ele>
        <time>2023-01-05T13:24:33.949Z</time>
      </trkpt>
      <trkpt lat="43.20116" lon="2.44729">
        <ele>131.28394</ele>
        <time>2023-01-05T13:24:35.924Z</time>
      </trkpt>
      <trkpt lat="43.20111" lon="2.44741">
        <ele>131.271812</ele>
        <time>2023-01-05T13:24:37.952Z</time>
      </trkpt>
      <trkpt lat="43.20106" lon="2.44753">
        <ele>131.260482</ele>
        <time>2023-01-05T13:24:39.949Z</time>
      </trkpt>
      <trkpt lat="43.20101" lon="2.44767">
        <ele>131.24769</ele>
        <time>2023-01-05T13:24:41.937Z</time>
      </trkpt>
      <trkpt lat="43.20096" lon="2.44779">
        <ele>131.235285</ele>
        <time>2023-01-05T13:24:43.959Z</time>
      </trkpt>
      <trkpt lat="43.20091" lon="2.44792">
        <ele>131.223158</ele>
        <time>2023-01-05T13:24:45.946Z</time>
      </trkpt>
      <trkpt lat="43.20085" lon="2.44804">
        <ele>131.211118</ele>
        <time>2023-01-05T13:24:47.951Z</time>
      </trkpt>
      <trkpt lat="43.2008" lon="2.44817">
        <ele>131.198752</ele>
        <time>2023-01-05T13:24:49.941Z</time>
      </trkpt>
      <trkpt lat="43.20075" lon="2.44829">
        <ele>131.182984</ele>
        <time>2023-01-05T13:24:51.941Z</time>
      </trkpt>
      <trkpt lat="43.2007" lon="2.44842">
        <ele>131.165844</ele>
        <time>2023-01-05T13:24:53.947Z</time>
      </trkpt>
      <trkpt lat="43.20064" lon="2.44855">
        <ele>131.148405</ele>
        <time>2023-01-05T13:24:55.952Z</time>
      </trkpt>
      <trkpt lat="43.20059" lon="2.44868">
        <ele>131.131172</ele>
        <time>2023-01-05T13:24:57.938Z</time>
      </trkpt>
      <trkpt lat="43.20055" lon="2.44881">
        <ele>131.113684</ele>
        <time>2023-01-05T13:24:59.949Z</time>
      </trkpt>
      <trkpt lat="43.20049" lon="2.44894">
        <ele>131.096159</ele>
        <time>2023-01-05T13:25:01.946Z</time>
      </trkpt>
      <trkpt lat="43.20044" lon="2.44906">
        <ele>131.079539</ele>
        <time>2023-01-05T13:25:03.934Z</time>
      </trkpt>
      <trkpt lat="43.20038" lon="2.4492">
        <ele>131.059985</ele>
        <time>2023-01-05T13:25:05.946Z</time>
      </trkpt>
      <trkpt lat="43.20032" lon="2.44933">
        <ele>131.042043</ele>
        <time>2023-01-05T13:25:07.956Z</time>
      </trkpt>
      <trkpt lat="43.20027" lon="2.44947">
        <ele>131.023847</ele>
        <time>2023-01-05T13:25:09.927Z</time>
      </trkpt>
      <trkpt lat="43.20021" lon="2.44961">
        <ele>131.005032</ele>
        <time>2023-01-05T13:25:11.955Z</time>
      </trkpt>
      <trkpt lat="43.20016" lon="2.44974">
        <ele>130.98772</ele>
        <time>2023-01-05T13:25:13.953Z</time>
      </trkpt>
      <trkpt lat="43.2001" lon="2.44987">
        <ele>130.969688</ele>
        <time>2023-01-05T13:25:15.951Z</time>
      </trkpt>
      <trkpt lat="43.20005" lon="2.45001">
        <ele>130.951136</ele>
        <time>2023-01-05T13:25:17.949Z</time>
      </trkpt>
      <trkpt lat="43.19999" lon="2.45014">
        <ele>130.933207</ele>
        <time>2023-01-05T13:25:19.953Z</time>
      </trkpt>
      <trkpt lat="43.19995" lon="2.45028">
        <ele>130.915648</ele>
        <time>2023-01-05T13:25:21.941Z</time>
      </trkpt>
      <trkpt lat="43.19988" lon="2.45041">
        <ele>130.859582</ele>
        <time>2023-01-05T13:25:23.957Z</time>
      </trkpt>
      <trkpt lat="43.19983" lon="2.45054">
        <ele>130.772887</ele>
        <time>2023-01-05T13:25:25.950Z</time>
      </trkpt>
      <trkpt lat="43.19977" lon="2.45067">
        <ele>130.680461</ele>
        <time>2023-01-05T13:25:27.948Z</time>
      </trkpt>
      <trkpt lat="43.19972" lon="2.45081">
        <ele>130.591183</ele>
        <time>2023-01-05T13:25:29.955Z</time>
      </trkpt>
      <trkpt lat="43.19967" lon="2.45094">
        <ele>130.500288</ele>
        <time>2023-01-05T13:25:31.956Z</time>
      </trkpt>
      <trkpt lat="43.19962" lon="2.45108">
        <ele>130.410098</ele>
        <time>2023-01-05T13:25:33.944Z</time>
      </trkpt>
      <trkpt lat="43.19956" lon="2.45121">
        <ele>130.320017</ele>
        <time>2023-01-05T13:25:35.952Z</time>
      </trkpt>
      <trkpt lat="43.1995" lon="2.45135">
        <ele>130.223495</ele>
        <time>2023-01-05T13:25:37.952Z</time>
      </trkpt>
      <trkpt lat="43.19945" lon="2.45149">
        <ele>130.130073</ele>
        <time>2023-01-05T13:25:39.949Z</time>
      </trkpt>
      <trkpt lat="43.1994" lon="2.45163">
        <ele>130.038649</ele>
        <time>2023-01-05T13:25:41.959Z</time>
      </trkpt>
      <trkpt lat="43.19934" lon="2.45179">
        <ele>129.934235</ele>
        <time>2023-01-05T13:25:43.952Z</time>
      </trkpt>
      <trkpt lat="43.19928" lon="2.45192">
        <ele>129.84028</ele>
        <time>2023-01-05T13:25:45.927Z</time>
      </trkpt>
      <trkpt lat="43.19922" lon="2.45208">
        <ele>129.73766</ele>
        <time>2023-01-05T13:25:47.946Z</time>
      </trkpt>
      <trkpt lat="43.19916" lon="2.45222">
        <ele>129.642563</ele>
        <time>2023-01-05T13:25:49.949Z</time>
      </trkpt>
      <trkpt lat="43.1991" lon="2.45235">
        <ele>129.550644</ele>
        <time>2023-01-05T13:25:51.949Z</time>
      </trkpt>
      <trkpt lat="43.19904" lon="2.45249">
        <ele>129.455664</ele>
        <time>2023-01-05T13:25:53.948Z</time>
      </trkpt>
      <trkpt lat="43.19899" lon="2.45263">
        <ele>129.468332</ele>
        <time>2023-01-05T13:25:55.952Z</time>
      </trkpt>
      <trkpt lat="43.19893" lon="2.45277">
        <ele>129.486104</ele>
        <time>2023-01-05T13:25:57.947Z</time>
      </trkpt>
      <trkpt lat="43.19887" lon="2.4529">
        <ele>129.504001</ele>
        <time>2023-01-05T13:25:59.936Z</time>
      </trkpt>
      <trkpt lat="43.19881" lon="2.45305">
        <ele>129.522695</ele>
        <time>2023-01-05T13:26:01.950Z</time>
      </trkpt>
      <trkpt lat="43.19875" lon="2.45319">
        <ele>129.540577</ele>
        <time>2023-01-05T13:26:03.950Z</time>
      </trkpt>
      <trkpt lat="43.19869" lon="2.45332">
        <ele>129.558527</ele>
        <time>2023-01-05T13:26:05.947Z</time>
      </trkpt>
      <trkpt lat="43.19863" lon="2.45346">
        <ele>129.575747</ele>
        <time>2023-01-05T13:26:07.956Z</time>
      </trkpt>
      <trkpt lat="43.19858" lon="2.45361">
        <ele>129.594246</ele>
        <time>2023-01-05T13:26:09.949Z</time>
      </trkpt>
      <trkpt lat="43.19852" lon="2.45374">
        <ele>129.611932</ele>
        <time>2023-01-05T13:26:11.949Z</time>
      </trkpt>
      <trkpt lat="43.19847" lon="2.45389">
        <ele>129.630453</ele>
        <time>2023-01-05T13:26:13.947Z</time>
      </trkpt>
      <trkpt lat="43.19841" lon="2.45404">
        <ele>129.649197</ele>
        <time>2023-01-05T13:26:15.953Z</time>
      </trkpt>
      <trkpt lat="43.19835" lon="2.45419">
        <ele>129.668211</ele>
        <time>2023-01-05T13:26:17.947Z</time>
      </trkpt>
      <trkpt lat="43.19829" lon="2.45434">
        <ele>129.687396</ele>
        <time>2023-01-05T13:26:19.943Z</time>
      </trkpt>
      <trkpt lat="43.19824" lon="2.45448">
        <ele>129.705647</ele>
        <time>2023-01-05T13:26:21.948Z</time>
      </trkpt>
      <trkpt lat="43.19817" lon="2.45463">
        <ele>129.724936</ele>
        <time>2023-01-05T13:26:23.945Z</time>
      </trkpt>
      <trkpt lat="43.19811" lon="2.45478">
        <ele>129.649984</ele>
        <time>2023-01-05T13:26:25.941Z</time>
      </trkpt>
      <trkpt lat="43.19805" lon="2.45492">
        <ele>129.564821</ele>
        <time>2023-01-05T13:26:27.950Z</time>
      </trkpt>
      <trkpt lat="43.19799" lon="2.45507">
        <ele>129.477662</ele>
        <time>2023-01-05T13:26:29.947Z</time>
      </trkpt>
      <trkpt lat="43.19793" lon="2.45521">
        <ele>129.393831</ele>
        <time>2023-01-05T13:26:31.948Z</time>
      </trkpt>
      <trkpt lat="43.19787" lon="2.45535">
        <ele>129.308669</ele>
        <time>2023-01-05T13:26:33.949Z</time>
      </trkpt>
      <trkpt lat="43.19781" lon="2.4555">
        <ele>129.220715</ele>
        <time>2023-01-05T13:26:35.931Z</time>
      </trkpt>
      <trkpt lat="43.19775" lon="2.45565">
        <ele>129.133103</ele>
        <time>2023-01-05T13:26:37.928Z</time>
      </trkpt>
      <trkpt lat="43.19769" lon="2.4558">
        <ele>129.045518</ele>
        <time>2023-01-05T13:26:39.946Z</time>
      </trkpt>
      <trkpt lat="43.19763" lon="2.45596">
        <ele>128.95241</ele>
        <time>2023-01-05T13:26:41.947Z</time>
      </trkpt>
      <trkpt lat="43.19757" lon="2.4561">
        <ele>128.865105</ele>
        <time>2023-01-05T13:26:43.951Z</time>
      </trkpt>
      <trkpt lat="43.1975" lon="2.45626">
        <ele>128.771909</ele>
        <time>2023-01-05T13:26:45.951Z</time>
      </trkpt>
      <trkpt lat="43.19744" lon="2.45641">
        <ele>128.683955</ele>
        <time>2023-01-05T13:26:47.948Z</time>
      </trkpt>
      <trkpt lat="43.19738" lon="2.45655">
        <ele>128.597453</ele>
        <time>2023-01-05T13:26:49.950Z</time>
      </trkpt>
      <trkpt lat="43.19732" lon="2.4567">
        <ele>128.509253</ele>
        <time>2023-01-05T13:26:51.935Z</time>
      </trkpt>
      <trkpt lat="43.19726" lon="2.45684">
        <ele>128.444155</ele>
        <time>2023-01-05T13:26:53.949Z</time>
      </trkpt>
      <trkpt lat="43.1972" lon="2.45699">
        <ele>128.416597</ele>
        <time>2023-01-05T13:26:55.949Z</time>
      </trkpt>
      <trkpt lat="43.19714" lon="2.45714">
        <ele>128.389745</ele>
        <time>2023-01-05T13:26:57.936Z</time>
      </trkpt>
      <trkpt lat="43.19708" lon="2.45728">
        <ele>128.362611</ele>
        <time>2023-01-05T13:26:59.943Z</time>
      </trkpt>
      <trkpt lat="43.19702" lon="2.45744">
        <ele>128.333348</ele>
        <time>2023-01-05T13:27:01.951Z</time>
      </trkpt>
      <trkpt lat="43.19696" lon="2.45759">
        <ele>128.306165</ele>
        <time>2023-01-05T13:27:03.934Z</time>
      </trkpt>
      <trkpt lat="43.1969" lon="2.45773">
        <ele>128.279984</ele>
        <time>2023-01-05T13:27:05.947Z</time>
      </trkpt>
      <trkpt lat="43.19684" lon="2.45787">
        <ele>128.253774</ele>
        <time>2023-01-05T13:27:07.945Z</time>
      </trkpt>
      <trkpt lat="43.19679" lon="2.45801">
        <ele>128.228345</ele>
        <time>2023-01-05T13:27:09.949Z</time>
      </trkpt>
      <trkpt lat="43.19673" lon="2.45814">
        <ele>128.203273</ele>
        <time>2023-01-05T13:27:11.948Z</time>
      </trkpt>
      <trkpt lat="43.19667" lon="2.45828">
        <ele>128.177441</ele>
        <time>2023-01-05T13:27:13.949Z</time>
      </trkpt>
      <trkpt lat="43.19662" lon="2.45841">
        <ele>128.154074</ele>
        <time>2023-01-05T13:27:15.960Z</time>
      </trkpt>
      <trkpt lat="43.19657" lon="2.45855">
        <ele>128.127936</ele>
        <time>2023-01-05T13:27:17.931Z</time>
      </trkpt>
      <trkpt lat="43.19651" lon="2.45867">
        <ele>128.104273</ele>
        <time>2023-01-05T13:27:19.935Z</time>
      </trkpt>
      <trkpt lat="43.19646" lon="2.45881">
        <ele>128.079944</ele>
        <time>2023-01-05T13:27:21.957Z</time>
      </trkpt>
      <trkpt lat="43.19641" lon="2.45895">
        <ele>128.054547</ele>
        <time>2023-01-05T13:27:23.948Z</time>
      </trkpt>
      <trkpt lat="43.19635" lon="2.45908">
        <ele>128.056459</ele>
        <time>2023-01-05T13:27:25.956Z</time>
      </trkpt>
      <trkpt lat="43.19629" lon="2.45922">
        <ele>128.059676</ele>
        <time>2023-01-05T13:27:27.954Z</time>
      </trkpt>
      <trkpt lat="43.19623" lon="2.45936">
        <ele>128.062992</ele>
        <time>2023-01-05T13:27:29.953Z</time>
      </trkpt>
      <trkpt lat="43.19618" lon="2.4595">
        <ele>128.066217</ele>
        <time>2023-01-05T13:27:31.948Z</time>
      </trkpt>
      <trkpt lat="43.19612" lon="2.45963">
        <ele>128.069488</ele>
        <time>2023-01-05T13:27:33.946Z</time>
      </trkpt>
      <trkpt lat="43.19607" lon="2.45977">
        <ele>128.072749</ele>
        <time>2023-01-05T13:27:35.944Z</time>
      </trkpt>
      <trkpt lat="43.19601" lon="2.45991">
        <ele>128.076038</ele>
        <time>2023-01-05T13:27:37.947Z</time>
      </trkpt>
      <trkpt lat="43.19596" lon="2.46004">
        <ele>128.079236</ele>
        <time>2023-01-05T13:27:39.943Z</time>
      </trkpt>
      <trkpt lat="43.1959" lon="2.46018">
        <ele>128.082494</ele>
        <time>2023-01-05T13:27:41.938Z</time>
      </trkpt>
      <trkpt lat="43.19585" lon="2.46033">
        <ele>128.085797</ele>
        <time>2023-01-05T13:27:43.946Z</time>
      </trkpt>
      <trkpt lat="43.19579" lon="2.46047">
        <ele>128.089197</ele>
        <time>2023-01-05T13:27:45.950Z</time>
      </trkpt>
      <trkpt lat="43.19574" lon="2.4606">
        <ele>128.092426</ele>
        <time>2023-01-05T13:27:47.961Z</time>
      </trkpt>
      <trkpt lat="43.19568" lon="2.46074">
        <ele>128.095666</ele>
        <time>2023-01-05T13:27:49.950Z</time>
      </trkpt>
      <trkpt lat="43.19562" lon="2.46088">
        <ele>128.099027</ele>
        <time>2023-01-05T13:27:51.951Z</time>
      </trkpt>
      <trkpt lat="43.19557" lon="2.46102">
        <ele>128.10238</ele>
        <time>2023-01-05T13:27:53.961Z</time>
      </trkpt>
      <trkpt lat="43.19551" lon="2.46116">
        <ele>128.221623</ele>
        <time>2023-01-05T13:27:55.947Z</time>
      </trkpt>
      <trkpt lat="43.19545" lon="2.46129">
        <ele>128.529815</ele>
        <time>2023-01-05T13:27:57.950Z</time>
      </trkpt>
      <trkpt lat="43.1954" lon="2.46142">
        <ele>128.821138</ele>
        <time>2023-01-05T13:27:59.958Z</time>
      </trkpt>
      <trkpt lat="43.19536" lon="2.46154">
        <ele>129.090942</ele>
        <time>2023-01-05T13:28:01.947Z</time>
      </trkpt>
      <trkpt lat="43.19531" lon="2.46165">
        <ele>129.345708</ele>
        <time>2023-01-05T13:28:03.950Z</time>
      </trkpt>
      <trkpt lat="43.19526" lon="2.46176">
        <ele>129.593918</ele>
        <time>2023-01-05T13:28:05.953Z</time>
      </trkpt>
      <trkpt lat="43.1952" lon="2.46191">
        <ele>129.948985</ele>
        <time>2023-01-05T13:28:08.951Z</time>
      </trkpt>
      <trkpt lat="43.19516" lon="2.46203">
        <ele>130.197839</ele>
        <time>2023-01-05T13:28:10.942Z</time>
      </trkpt>
      <trkpt lat="43.19511" lon="2.46213">
        <ele>130.449144</ele>
        <time>2023-01-05T13:28:12.960Z</time>
      </trkpt>
      <trkpt lat="43.19507" lon="2.46225">
        <ele>130.710059</ele>
        <time>2023-01-05T13:28:14.948Z</time>
      </trkpt>
      <trkpt lat="43.19501" lon="2.46241">
        <ele>131.061254</ele>
        <time>2023-01-05T13:28:17.960Z</time>
      </trkpt>
      <trkpt lat="43.19495" lon="2.46254">
        <ele>131.373098</ele>
        <time>2023-01-05T13:28:20.944Z</time>
      </trkpt>
      <trkpt lat="43.19491" lon="2.46267">
        <ele>131.660175</ele>
        <time>2023-01-05T13:28:23.948Z</time>
      </trkpt>
      <trkpt lat="43.19485" lon="2.46282">
        <ele>131.996441</ele>
        <time>2023-01-05T13:28:26.933Z</time>
      </trkpt>
      <trkpt lat="43.19479" lon="2.46297">
        <ele>132.327033</ele>
        <time>2023-01-05T13:28:29.946Z</time>
      </trkpt>
      <trkpt lat="43.19474" lon="2.46309">
        <ele>132.626316</ele>
        <time>2023-01-05T13:28:32.951Z</time>
      </trkpt>
      <trkpt lat="43.19469" lon="2.4632">
        <ele>132.88524</ele>
        <time>2023-01-05T13:28:35.947Z</time>
      </trkpt>
      <trkpt lat="43.19464" lon="2.46331">
        <ele>133.07207</ele>
        <time>2023-01-05T13:28:38.947Z</time>
      </trkpt>
      <trkpt lat="43.19457" lon="2.46345">
        <ele>133.201257</ele>
        <time>2023-01-05T13:28:42.950Z</time>
      </trkpt>
      <trkpt lat="43.19451" lon="2.46359">
        <ele>133.328131</ele>
        <time>2023-01-05T13:28:46.954Z</time>
      </trkpt>
      <trkpt lat="43.19446" lon="2.46372">
        <ele>133.448293</ele>
        <time>2023-01-05T13:28:50.946Z</time>
      </trkpt>
      <trkpt lat="43.1944" lon="2.46385">
        <ele>133.572276</ele>
        <time>2023-01-05T13:28:54.951Z</time>
      </trkpt>
      <trkpt lat="43.19434" lon="2.46399">
        <ele>133.699946</ele>
        <time>2023-01-05T13:28:58.948Z</time>
      </trkpt>
      <trkpt lat="43.19429" lon="2.4641">
        <ele>133.798121</ele>
        <time>2023-01-05T13:29:01.949Z</time>
      </trkpt>
      <trkpt lat="43.19424" lon="2.46425">
        <ele>133.928709</ele>
        <time>2023-01-05T13:29:05.945Z</time>
      </trkpt>
      <trkpt lat="43.1942" lon="2.46436">
        <ele>134.031781</ele>
        <time>2023-01-05T13:29:08.952Z</time>
      </trkpt>
      <trkpt lat="43.19415" lon="2.46448">
        <ele>134.132853</ele>
        <time>2023-01-05T13:29:11.947Z</time>
      </trkpt>
      <trkpt lat="43.19411" lon="2.4646">
        <ele>134.243351</ele>
        <time>2023-01-05T13:29:14.927Z</time>
      </trkpt>
      <trkpt lat="43.19405" lon="2.46476">
        <ele>134.378175</ele>
        <time>2023-01-05T13:29:17.948Z</time>
      </trkpt>
      <trkpt lat="43.19401" lon="2.46488">
        <ele>134.488674</ele>
        <time>2023-01-05T13:29:19.955Z</time>
      </trkpt>
      <trkpt lat="43.19397" lon="2.46502">
        <ele>134.604778</ele>
        <time>2023-01-05T13:29:21.947Z</time>
      </trkpt>
      <trkpt lat="43.19392" lon="2.46516">
        <ele>134.728484</ele>
        <time>2023-01-05T13:29:23.945Z</time>
      </trkpt>
      <trkpt lat="43.19387" lon="2.4653">
        <ele>134.855271</ele>
        <time>2023-01-05T13:29:25.959Z</time>
      </trkpt>
      <trkpt lat="43.19381" lon="2.46546">
        <ele>134.940658</ele>
        <time>2023-01-05T13:29:27.940Z</time>
      </trkpt>
      <trkpt lat="43.19375" lon="2.46562">
        <ele>134.635987</ele>
        <time>2023-01-05T13:29:29.927Z</time>
      </trkpt>
      <trkpt lat="43.1937" lon="2.46578">
        <ele>134.338941</ele>
        <time>2023-01-05T13:29:31.950Z</time>
      </trkpt>
      <trkpt lat="43.19364" lon="2.46594">
        <ele>134.035281</ele>
        <time>2023-01-05T13:29:33.954Z</time>
      </trkpt>
      <trkpt lat="43.19357" lon="2.4661">
        <ele>133.716748</ele>
        <time>2023-01-05T13:29:35.947Z</time>
      </trkpt>
      <trkpt lat="43.19351" lon="2.46628">
        <ele>133.384006</ele>
        <time>2023-01-05T13:29:37.935Z</time>
      </trkpt>
      <trkpt lat="43.19345" lon="2.46645">
        <ele>133.053269</ele>
        <time>2023-01-05T13:29:39.960Z</time>
      </trkpt>
      <trkpt lat="43.19338" lon="2.46663">
        <ele>132.712262</ele>
        <time>2023-01-05T13:29:41.950Z</time>
      </trkpt>
      <trkpt lat="43.19332" lon="2.46682">
        <ele>132.358058</ele>
        <time>2023-01-05T13:29:43.957Z</time>
      </trkpt>
      <trkpt lat="43.19325" lon="2.467">
        <ele>132.014087</ele>
        <time>2023-01-05T13:29:45.951Z</time>
      </trkpt>
      <trkpt lat="43.19319" lon="2.46718">
        <ele>131.668581</ele>
        <time>2023-01-05T13:29:47.936Z</time>
      </trkpt>
      <trkpt lat="43.19311" lon="2.46736">
        <ele>131.314973</ele>
        <time>2023-01-05T13:29:49.941Z</time>
      </trkpt>
      <trkpt lat="43.19305" lon="2.46755">
        <ele>130.965325</ele>
        <time>2023-01-05T13:29:51.948Z</time>
      </trkpt>
      <trkpt lat="43.19298" lon="2.46774">
        <ele>130.713769</ele>
        <time>2023-01-05T13:29:53.958Z</time>
      </trkpt>
      <trkpt lat="43.19291" lon="2.46792">
        <ele>130.585325</ele>
        <time>2023-01-05T13:29:55.966Z</time>
      </trkpt>
      <trkpt lat="43.19284" lon="2.46809">
        <ele>130.462208</ele>
        <time>2023-01-05T13:29:57.960Z</time>
      </trkpt>
      <trkpt lat="43.19277" lon="2.46826">
        <ele>130.342564</ele>
        <time>2023-01-05T13:29:59.945Z</time>
      </trkpt>
      <trkpt lat="43.19271" lon="2.46844">
        <ele>130.220253</ele>
        <time>2023-01-05T13:30:01.950Z</time>
      </trkpt>
      <trkpt lat="43.19264" lon="2.4686">
        <ele>130.104321</ele>
        <time>2023-01-05T13:30:03.958Z</time>
      </trkpt>
      <trkpt lat="43.19258" lon="2.46877">
        <ele>129.990596</ele>
        <time>2023-01-05T13:30:05.959Z</time>
      </trkpt>
      <trkpt lat="43.19252" lon="2.46893">
        <ele>129.876738</ele>
        <time>2023-01-05T13:30:07.957Z</time>
      </trkpt>
      <trkpt lat="43.19247" lon="2.46909">
        <ele>129.767502</ele>
        <time>2023-01-05T13:30:09.947Z</time>
      </trkpt>
      <trkpt lat="43.19242" lon="2.46925">
        <ele>129.657184</ele>
        <time>2023-01-05T13:30:11.938Z</time>
      </trkpt>
      <trkpt lat="43.19235" lon="2.46943">
        <ele>129.53566</ele>
        <time>2023-01-05T13:30:13.948Z</time>
      </trkpt>
      <trkpt lat="43.19229" lon="2.46959">
        <ele>129.4231</ele>
        <time>2023-01-05T13:30:15.957Z</time>
      </trkpt>
      <trkpt lat="43.19223" lon="2.46975">
        <ele>129.31032</ele>
        <time>2023-01-05T13:30:17.932Z</time>
      </trkpt>
      <trkpt lat="43.19218" lon="2.46991">
        <ele>129.213286</ele>
        <time>2023-01-05T13:30:19.950Z</time>
      </trkpt>
      <trkpt lat="43.19212" lon="2.47007">
        <ele>129.141008</ele>
        <time>2023-01-05T13:30:21.949Z</time>
      </trkpt>
      <trkpt lat="43.19206" lon="2.47023">
        <ele>129.068117</ele>
        <time>2023-01-05T13:30:23.952Z</time>
      </trkpt>
      <trkpt lat="43.192" lon="2.47038">
        <ele>128.997201</ele>
        <time>2023-01-05T13:30:25.958Z</time>
      </trkpt>
      <trkpt lat="43.19194" lon="2.47053">
        <ele>128.927721</ele>
        <time>2023-01-05T13:30:27.956Z</time>
      </trkpt>
      <trkpt lat="43.19189" lon="2.47068">
        <ele>128.860109</ele>
        <time>2023-01-05T13:30:29.953Z</time>
      </trkpt>
      <trkpt lat="43.19184" lon="2.47082">
        <ele>128.796897</ele>
        <time>2023-01-05T13:30:31.953Z</time>
      </trkpt>
      <trkpt lat="43.19179" lon="2.47095">
        <ele>128.736902</ele>
        <time>2023-01-05T13:30:33.947Z</time>
      </trkpt>
      <trkpt lat="43.19174" lon="2.4711">
        <ele>128.669653</ele>
        <time>2023-01-05T13:30:35.949Z</time>
      </trkpt>
      <trkpt lat="43.19169" lon="2.47125">
        <ele>128.601042</ele>
        <time>2023-01-05T13:30:37.953Z</time>
      </trkpt>
      <trkpt lat="43.19164" lon="2.4714">
        <ele>128.532335</ele>
        <time>2023-01-05T13:30:39.947Z</time>
      </trkpt>
      <trkpt lat="43.19158" lon="2.47156">
        <ele>128.460928</ele>
        <time>2023-01-05T13:30:41.947Z</time>
      </trkpt>
      <trkpt lat="43.19152" lon="2.47171">
        <ele>128.392702</ele>
        <time>2023-01-05T13:30:43.957Z</time>
      </trkpt>
      <trkpt lat="43.19147" lon="2.47186">
        <ele>128.322509</ele>
        <time>2023-01-05T13:30:45.949Z</time>
      </trkpt>
      <trkpt lat="43.19142" lon="2.47202">
        <ele>128.250619</ele>
        <time>2023-01-05T13:30:47.954Z</time>
      </trkpt>
      <trkpt lat="43.19136" lon="2.47218">
        <ele>128.180662</ele>
        <time>2023-01-05T13:30:49.951Z</time>
      </trkpt>
      <trkpt lat="43.19131" lon="2.47233">
        <ele>128.11196</ele>
        <time>2023-01-05T13:30:51.956Z</time>
      </trkpt>
      <trkpt lat="43.19125" lon="2.47249">
        <ele>128.03761</ele>
        <time>2023-01-05T13:30:53.931Z</time>
      </trkpt>
      <trkpt lat="43.1912" lon="2.47265">
        <ele>127.966576</ele>
        <time>2023-01-05T13:30:55.949Z</time>
      </trkpt>
      <trkpt lat="43.19114" lon="2.47281">
        <ele>127.893095</ele>
        <time>2023-01-05T13:30:57.951Z</time>
      </trkpt>
      <trkpt lat="43.19108" lon="2.47296">
        <ele>127.820925</ele>
        <time>2023-01-05T13:30:59.948Z</time>
      </trkpt>
      <trkpt lat="43.19101" lon="2.47312">
        <ele>127.747404</ele>
        <time>2023-01-05T13:31:01.963Z</time>
      </trkpt>
      <trkpt lat="43.19096" lon="2.47328">
        <ele>127.674412</ele>
        <time>2023-01-05T13:31:03.951Z</time>
      </trkpt>
      <trkpt lat="43.1909" lon="2.47344">
        <ele>127.603378</ele>
        <time>2023-01-05T13:31:05.952Z</time>
      </trkpt>
      <trkpt lat="43.19084" lon="2.47359">
        <ele>127.531978</ele>
        <time>2023-01-05T13:31:07.951Z</time>
      </trkpt>
      <trkpt lat="43.19079" lon="2.47375">
        <ele>127.460205</ele>
        <time>2023-01-05T13:31:09.952Z</time>
      </trkpt>
      <trkpt lat="43.19073" lon="2.47389">
        <ele>127.393425</ele>
        <time>2023-01-05T13:31:11.936Z</time>
      </trkpt>
      <trkpt lat="43.19067" lon="2.47404">
        <ele>127.323775</ele>
        <time>2023-01-05T13:31:13.954Z</time>
      </trkpt>
      <trkpt lat="43.19061" lon="2.47419">
        <ele>127.254639</ele>
        <time>2023-01-05T13:31:15.949Z</time>
      </trkpt>
      <trkpt lat="43.19056" lon="2.47435">
        <ele>127.221056</ele>
        <time>2023-01-05T13:31:17.958Z</time>
      </trkpt>
      <trkpt lat="43.19051" lon="2.4745">
        <ele>127.214452</ele>
        <time>2023-01-05T13:31:19.948Z</time>
      </trkpt>
      <trkpt lat="43.19045" lon="2.47464">
        <ele>127.207866</ele>
        <time>2023-01-05T13:31:21.961Z</time>
      </trkpt>
      <trkpt lat="43.1904" lon="2.47479">
        <ele>127.201441</ele>
        <time>2023-01-05T13:31:23.958Z</time>
      </trkpt>
      <trkpt lat="43.19035" lon="2.47494">
        <ele>127.195062</ele>
        <time>2023-01-05T13:31:25.950Z</time>
      </trkpt>
      <trkpt lat="43.1903" lon="2.47509">
        <ele>127.188447</ele>
        <time>2023-01-05T13:31:27.967Z</time>
      </trkpt>
      <trkpt lat="43.19024" lon="2.47523">
        <ele>127.181999</ele>
        <time>2023-01-05T13:31:29.942Z</time>
      </trkpt>
      <trkpt lat="43.19019" lon="2.47538">
        <ele>127.175456</ele>
        <time>2023-01-05T13:31:31.948Z</time>
      </trkpt>
      <trkpt lat="43.19014" lon="2.47554">
        <ele>127.168569</ele>
        <time>2023-01-05T13:31:33.951Z</time>
      </trkpt>
      <trkpt lat="43.19008" lon="2.47568">
        <ele>127.162311</ele>
        <time>2023-01-05T13:31:35.959Z</time>
      </trkpt>
      <trkpt lat="43.19003" lon="2.47583">
        <ele>127.155445</ele>
        <time>2023-01-05T13:31:37.949Z</time>
      </trkpt>
      <trkpt lat="43.18997" lon="2.476">
        <ele>127.148213</ele>
        <time>2023-01-05T13:31:39.954Z</time>
      </trkpt>
      <trkpt lat="43.18991" lon="2.47615">
        <ele>127.141361</ele>
        <time>2023-01-05T13:31:41.952Z</time>
      </trkpt>
      <trkpt lat="43.18985" lon="2.4763">
        <ele>127.134741</ele>
        <time>2023-01-05T13:31:43.933Z</time>
      </trkpt>
      <trkpt lat="43.18979" lon="2.47648">
        <ele>127.126973</ele>
        <time>2023-01-05T13:31:45.956Z</time>
      </trkpt>
      <trkpt lat="43.18973" lon="2.47664">
        <ele>127.121538</ele>
        <time>2023-01-05T13:31:47.948Z</time>
      </trkpt>
      <trkpt lat="43.18968" lon="2.47681">
        <ele>127.115764</ele>
        <time>2023-01-05T13:31:49.956Z</time>
      </trkpt>
      <trkpt lat="43.18962" lon="2.47697">
        <ele>127.110281</ele>
        <time>2023-01-05T13:31:51.950Z</time>
      </trkpt>
      <trkpt lat="43.18956" lon="2.47713">
        <ele>127.104981</ele>
        <time>2023-01-05T13:31:53.936Z</time>
      </trkpt>
      <trkpt lat="43.1895" lon="2.4773">
        <ele>127.099281</ele>
        <time>2023-01-05T13:31:55.956Z</time>
      </trkpt>
      <trkpt lat="43.18944" lon="2.47746">
        <ele>127.093782</ele>
        <time>2023-01-05T13:31:57.961Z</time>
      </trkpt>
      <trkpt lat="43.18938" lon="2.47763">
        <ele>127.087891</ele>
        <time>2023-01-05T13:31:59.932Z</time>
      </trkpt>
      <trkpt lat="43.18932" lon="2.4778">
        <ele>127.082164</ele>
        <time>2023-01-05T13:32:01.951Z</time>
      </trkpt>
      <trkpt lat="43.18926" lon="2.47797">
        <ele>127.076437</ele>
        <time>2023-01-05T13:32:03.958Z</time>
      </trkpt>
      <trkpt lat="43.18919" lon="2.47813">
        <ele>127.070861</ele>
        <time>2023-01-05T13:32:05.960Z</time>
      </trkpt>
      <trkpt lat="43.18913" lon="2.47829">
        <ele>127.065334</ele>
        <time>2023-01-05T13:32:07.951Z</time>
      </trkpt>
      <trkpt lat="43.18907" lon="2.47846">
        <ele>127.059631</ele>
        <time>2023-01-05T13:32:09.927Z</time>
      </trkpt>
      <trkpt lat="43.18901" lon="2.47862">
        <ele>127.053966</ele>
        <time>2023-01-05T13:32:11.951Z</time>
      </trkpt>
      <trkpt lat="43.18895" lon="2.4788">
        <ele>127.138843</ele>
        <time>2023-01-05T13:32:13.949Z</time>
      </trkpt>
      <trkpt lat="43.18889" lon="2.47897">
        <ele>127.255727</ele>
        <time>2023-01-05T13:32:15.961Z</time>
      </trkpt>
      <trkpt lat="43.18883" lon="2.47913">
        <ele>127.368316</ele>
        <time>2023-01-05T13:32:17.934Z</time>
      </trkpt>
      <trkpt lat="43.18877" lon="2.47929">
        <ele>127.482941</ele>
        <time>2023-01-05T13:32:19.960Z</time>
      </trkpt>
      <trkpt lat="43.18871" lon="2.47946">
        <ele>127.600246</ele>
        <time>2023-01-05T13:32:21.946Z</time>
      </trkpt>
      <trkpt lat="43.18866" lon="2.47963">
        <ele>127.716411</ele>
        <time>2023-01-05T13:32:23.952Z</time>
      </trkpt>
      <trkpt lat="43.1886" lon="2.47979">
        <ele>127.83085</ele>
        <time>2023-01-05T13:32:25.949Z</time>
      </trkpt>
      <trkpt lat="43.18854" lon="2.47994">
        <ele>127.933657</ele>
        <time>2023-01-05T13:32:27.950Z</time>
      </trkpt>
      <trkpt lat="43.18849" lon="2.48009">
        <ele>128.037444</ele>
        <time>2023-01-05T13:32:29.961Z</time>
      </trkpt>
      <trkpt lat="43.18844" lon="2.48023">
        <ele>128.134998</ele>
        <time>2023-01-05T13:32:31.948Z</time>
      </trkpt>
      <trkpt lat="43.18839" lon="2.48036">
        <ele>128.228082</ele>
        <time>2023-01-05T13:32:33.933Z</time>
      </trkpt>
      <trkpt lat="43.18835" lon="2.48049">
        <ele>128.318554</ele>
        <time>2023-01-05T13:32:35.941Z</time>
      </trkpt>
      <trkpt lat="43.1883" lon="2.48062">
        <ele>128.408323</ele>
        <time>2023-01-05T13:32:37.960Z</time>
      </trkpt>
      <trkpt lat="43.18825" lon="2.48075">
        <ele>128.498092</ele>
        <time>2023-01-05T13:32:39.950Z</time>
      </trkpt>
      <trkpt lat="43.1882" lon="2.48088">
        <ele>128.58967</ele>
        <time>2023-01-05T13:32:41.926Z</time>
      </trkpt>
      <trkpt lat="43.18815" lon="2.48101">
        <ele>128.628932</ele>
        <time>2023-01-05T13:32:43.939Z</time>
      </trkpt>
      <trkpt lat="43.1881" lon="2.48113">
        <ele>128.662398</ele>
        <time>2023-01-05T13:32:45.950Z</time>
      </trkpt>
      <trkpt lat="43.18805" lon="2.48125">
        <ele>128.696114</ele>
        <time>2023-01-05T13:32:47.950Z</time>
      </trkpt>
      <trkpt lat="43.18801" lon="2.48138">
        <ele>128.731318</ele>
        <time>2023-01-05T13:32:49.965Z</time>
      </trkpt>
      <trkpt lat="43.18796" lon="2.48152">
        <ele>128.767957</ele>
        <time>2023-01-05T13:32:51.948Z</time>
      </trkpt>
      <trkpt lat="43.18791" lon="2.48165">
        <ele>128.802434</ele>
        <time>2023-01-05T13:32:53.948Z</time>
      </trkpt>
      <trkpt lat="43.18786" lon="2.48178">
        <ele>128.838796</ele>
        <time>2023-01-05T13:32:55.957Z</time>
      </trkpt>
      <trkpt lat="43.18781" lon="2.48192">
        <ele>128.874578</ele>
        <time>2023-01-05T13:32:57.953Z</time>
      </trkpt>
      <trkpt lat="43.18777" lon="2.48205">
        <ele>128.909196</ele>
        <time>2023-01-05T13:32:59.951Z</time>
      </trkpt>
      <trkpt lat="43.18772" lon="2.48219">
        <ele>128.946696</ele>
        <time>2023-01-05T13:33:01.949Z</time>
      </trkpt>
      <trkpt lat="43.18767" lon="2.48232">
        <ele>128.983121</ele>
        <time>2023-01-05T13:33:03.946Z</time>
      </trkpt>
      <trkpt lat="43.18762" lon="2.48245">
        <ele>129.017521</ele>
        <time>2023-01-05T13:33:05.952Z</time>
      </trkpt>
      <trkpt lat="43.18757" lon="2.48258">
        <ele>129.053033</ele>
        <time>2023-01-05T13:33:07.949Z</time>
      </trkpt>
      <trkpt lat="43.18752" lon="2.48271">
        <ele>129.087385</ele>
        <time>2023-01-05T13:33:09.952Z</time>
      </trkpt>
      <trkpt lat="43.18747" lon="2.48285">
        <ele>129.125181</ele>
        <time>2023-01-05T13:33:11.938Z</time>
      </trkpt>
      <trkpt lat="43.18742" lon="2.48298">
        <ele>129.160518</ele>
        <time>2023-01-05T13:33:13.953Z</time>
      </trkpt>
      <trkpt lat="43.18738" lon="2.4831">
        <ele>129.195017</ele>
        <time>2023-01-05T13:33:15.952Z</time>
      </trkpt>
      <trkpt lat="43.18734" lon="2.48321">
        <ele>129.231201</ele>
        <time>2023-01-05T13:33:17.955Z</time>
      </trkpt>
      <trkpt lat="43.18729" lon="2.48334">
        <ele>129.273593</ele>
        <time>2023-01-05T13:33:19.945Z</time>
      </trkpt>
      <trkpt lat="43.18725" lon="2.48347">
        <ele>129.314047</ele>
        <time>2023-01-05T13:33:21.959Z</time>
      </trkpt>
      <trkpt lat="43.1872" lon="2.48359">
        <ele>129.354242</ele>
        <time>2023-01-05T13:33:23.954Z</time>
      </trkpt>
      <trkpt lat="43.18716" lon="2.48371">
        <ele>129.39366</ele>
        <time>2023-01-05T13:33:25.947Z</time>
      </trkpt>
      <trkpt lat="43.18712" lon="2.48383">
        <ele>129.433299</ele>
        <time>2023-01-05T13:33:27.945Z</time>
      </trkpt>
      <trkpt lat="43.18707" lon="2.48395">
        <ele>129.473369</ele>
        <time>2023-01-05T13:33:29.936Z</time>
      </trkpt>
      <trkpt lat="43.18703" lon="2.48407">
        <ele>129.51424</ele>
        <time>2023-01-05T13:33:31.934Z</time>
      </trkpt>
      <trkpt lat="43.18698" lon="2.4842">
        <ele>129.557161</ele>
        <time>2023-01-05T13:33:33.946Z</time>
      </trkpt>
      <trkpt lat="43.18693" lon="2.48434">
        <ele>129.601605</ele>
        <time>2023-01-05T13:33:35.960Z</time>
      </trkpt>
      <trkpt lat="43.18689" lon="2.48447">
        <ele>129.64505</ele>
        <time>2023-01-05T13:33:37.948Z</time>
      </trkpt>
      <trkpt lat="43.18684" lon="2.48459">
        <ele>129.685212</ele>
        <time>2023-01-05T13:33:39.960Z</time>
      </trkpt>
      <trkpt lat="43.18679" lon="2.48472">
        <ele>129.726379</ele>
        <time>2023-01-05T13:33:41.960Z</time>
      </trkpt>
      <trkpt lat="43.18675" lon="2.48484">
        <ele>129.76725</ele>
        <time>2023-01-05T13:33:43.953Z</time>
      </trkpt>
      <trkpt lat="43.1867" lon="2.48496">
        <ele>129.80875</ele>
        <time>2023-01-05T13:33:45.948Z</time>
      </trkpt>
      <trkpt lat="43.18666" lon="2.48509">
        <ele>129.850873</ele>
        <time>2023-01-05T13:33:47.949Z</time>
      </trkpt>
      <trkpt lat="43.18662" lon="2.48521">
        <ele>129.889444</ele>
        <time>2023-01-05T13:33:49.951Z</time>
      </trkpt>
      <trkpt lat="43.18658" lon="2.48534">
        <ele>129.872743</ele>
        <time>2023-01-05T13:33:51.950Z</time>
      </trkpt>
      <trkpt lat="43.18654" lon="2.48545">
        <ele>129.735982</ele>
        <time>2023-01-05T13:33:53.948Z</time>
      </trkpt>
      <trkpt lat="43.18651" lon="2.48557">
        <ele>129.591039</ele>
        <time>2023-01-05T13:33:55.961Z</time>
      </trkpt>
      <trkpt lat="43.18648" lon="2.48571">
        <ele>129.436385</ele>
        <time>2023-01-05T13:33:57.946Z</time>
      </trkpt>
      <trkpt lat="43.18644" lon="2.48585">
        <ele>129.273337</ele>
        <time>2023-01-05T13:33:59.951Z</time>
      </trkpt>
      <trkpt lat="43.18641" lon="2.48598">
        <ele>129.112832</ele>
        <time>2023-01-05T13:34:01.949Z</time>
      </trkpt>
      <trkpt lat="43.18638" lon="2.48613">
        <ele>128.947552</ele>
        <time>2023-01-05T13:34:03.954Z</time>
      </trkpt>
      <trkpt lat="43.18635" lon="2.48628">
        <ele>128.779447</ele>
        <time>2023-01-05T13:34:05.949Z</time>
      </trkpt>
      <trkpt lat="43.18633" lon="2.48643">
        <ele>128.610233</ele>
        <time>2023-01-05T13:34:07.948Z</time>
      </trkpt>
      <trkpt lat="43.18631" lon="2.48657">
        <ele>128.44596</ele>
        <time>2023-01-05T13:34:09.955Z</time>
      </trkpt>
      <trkpt lat="43.18629" lon="2.48673">
        <ele>128.271686</ele>
        <time>2023-01-05T13:34:11.958Z</time>
      </trkpt>
      <trkpt lat="43.18626" lon="2.48688">
        <ele>128.099241</ele>
        <time>2023-01-05T13:34:13.960Z</time>
      </trkpt>
      <trkpt lat="43.18624" lon="2.48705">
        <ele>127.916266</ele>
        <time>2023-01-05T13:34:15.937Z</time>
      </trkpt>
      <trkpt lat="43.18623" lon="2.4872">
        <ele>127.743978</ele>
        <time>2023-01-05T13:34:17.934Z</time>
      </trkpt>
      <trkpt lat="43.18621" lon="2.48737">
        <ele>127.553813</ele>
        <time>2023-01-05T13:34:19.958Z</time>
      </trkpt>
      <trkpt lat="43.18619" lon="2.48754">
        <ele>127.361038</ele>
        <time>2023-01-05T13:34:21.931Z</time>
      </trkpt>
      <trkpt lat="43.18617" lon="2.48772">
        <ele>127.195009</ele>
        <time>2023-01-05T13:34:23.958Z</time>
      </trkpt>
      <trkpt lat="43.18615" lon="2.48789">
        <ele>127.168967</ele>
        <time>2023-01-05T13:34:25.957Z</time>
      </trkpt>
      <trkpt lat="43.18612" lon="2.48807">
        <ele>127.141462</ele>
        <time>2023-01-05T13:34:27.949Z</time>
      </trkpt>
      <trkpt lat="43.18609" lon="2.48824">
        <ele>127.114674</ele>
        <time>2023-01-05T13:34:29.950Z</time>
      </trkpt>
      <trkpt lat="43.18607" lon="2.48842">
        <ele>127.088221</ele>
        <time>2023-01-05T13:34:31.950Z</time>
      </trkpt>
      <trkpt lat="43.18606" lon="2.4886">
        <ele>127.061084</ele>
        <time>2023-01-05T13:34:33.939Z</time>
      </trkpt>
      <trkpt lat="43.18604" lon="2.48878">
        <ele>127.034121</ele>
        <time>2023-01-05T13:34:35.961Z</time>
      </trkpt>
      <trkpt lat="43.18602" lon="2.48894">
        <ele>127.009078</ele>
        <time>2023-01-05T13:34:37.936Z</time>
      </trkpt>
      <trkpt lat="43.186" lon="2.48912">
        <ele>126.982477</ele>
        <time>2023-01-05T13:34:39.956Z</time>
      </trkpt>
      <trkpt lat="43.18598" lon="2.48929">
        <ele>126.956822</ele>
        <time>2023-01-05T13:34:41.944Z</time>
      </trkpt>
      <trkpt lat="43.18596" lon="2.48946">
        <ele>126.931042</ele>
        <time>2023-01-05T13:34:43.948Z</time>
      </trkpt>
      <trkpt lat="43.18594" lon="2.48963">
        <ele>126.905181</ele>
        <time>2023-01-05T13:34:45.951Z</time>
      </trkpt>
      <trkpt lat="43.18593" lon="2.4898">
        <ele>126.879614</ele>
        <time>2023-01-05T13:34:47.953Z</time>
      </trkpt>
      <trkpt lat="43.18591" lon="2.48998">
        <ele>126.852746</ele>
        <time>2023-01-05T13:34:49.948Z</time>
      </trkpt>
      <trkpt lat="43.18589" lon="2.49016">
        <ele>126.804971</ele>
        <time>2023-01-05T13:34:51.951Z</time>
      </trkpt>
      <trkpt lat="43.18588" lon="2.49034">
        <ele>126.661247</ele>
        <time>2023-01-05T13:34:53.950Z</time>
      </trkpt>
      <trkpt lat="43.18586" lon="2.49052">
        <ele>126.517167</ele>
        <time>2023-01-05T13:34:55.945Z</time>
      </trkpt>
      <trkpt lat="43.18584" lon="2.4907">
        <ele>126.371731</ele>
        <time>2023-01-05T13:34:57.959Z</time>
      </trkpt>
      <trkpt lat="43.18582" lon="2.4909">
        <ele>126.219585</ele>
        <time>2023-01-05T13:34:59.948Z</time>
      </trkpt>
      <trkpt lat="43.18581" lon="2.49108">
        <ele>126.071163</ele>
        <time>2023-01-05T13:35:01.938Z</time>
      </trkpt>
      <trkpt lat="43.18579" lon="2.49127">
        <ele>125.920958</ele>
        <time>2023-01-05T13:35:03.931Z</time>
      </trkpt>
      <trkpt lat="43.18578" lon="2.49146">
        <ele>125.77429</ele>
        <time>2023-01-05T13:35:05.950Z</time>
      </trkpt>
      <trkpt lat="43.18577" lon="2.49165">
        <ele>125.620571</ele>
        <time>2023-01-05T13:35:07.952Z</time>
      </trkpt>
      <trkpt lat="43.18576" lon="2.49185">
        <ele>125.468133</ele>
        <time>2023-01-05T13:35:09.948Z</time>
      </trkpt>
      <trkpt lat="43.18575" lon="2.49203">
        <ele>125.320682</ele>
        <time>2023-01-05T13:35:11.961Z</time>
      </trkpt>
      <trkpt lat="43.18573" lon="2.49222">
        <ele>125.174606</ele>
        <time>2023-01-05T13:35:13.947Z</time>
      </trkpt>
      <trkpt lat="43.18572" lon="2.49241">
        <ele>125.024401</ele>
        <time>2023-01-05T13:35:15.949Z</time>
      </trkpt>
      <trkpt lat="43.18571" lon="2.4926">
        <ele>124.873469</ele>
        <time>2023-01-05T13:35:17.948Z</time>
      </trkpt>
      <trkpt lat="43.1857" lon="2.49278">
        <ele>124.715822</ele>
        <time>2023-01-05T13:35:19.946Z</time>
      </trkpt>
      <trkpt lat="43.18569" lon="2.49296">
        <ele>124.56292</ele>
        <time>2023-01-05T13:35:21.951Z</time>
      </trkpt>
      <trkpt lat="43.18567" lon="2.49315">
        <ele>124.405174</ele>
        <time>2023-01-05T13:35:23.954Z</time>
      </trkpt>
      <trkpt lat="43.18566" lon="2.49332">
        <ele>124.260841</ele>
        <time>2023-01-05T13:35:25.952Z</time>
      </trkpt>
      <trkpt lat="43.18565" lon="2.49349">
        <ele>124.114293</ele>
        <time>2023-01-05T13:35:27.950Z</time>
      </trkpt>
      <trkpt lat="43.18564" lon="2.49366">
        <ele>123.967833</ele>
        <time>2023-01-05T13:35:29.940Z</time>
      </trkpt>
      <trkpt lat="43.18563" lon="2.49383">
        <ele>123.822978</ele>
        <time>2023-01-05T13:35:31.935Z</time>
      </trkpt>
      <trkpt lat="43.18562" lon="2.49401">
        <ele>123.674536</ele>
        <time>2023-01-05T13:35:33.947Z</time>
      </trkpt>
      <trkpt lat="43.1856" lon="2.49418">
        <ele>123.526605</ele>
        <time>2023-01-05T13:35:35.946Z</time>
      </trkpt>
      <trkpt lat="43.18559" lon="2.49435">
        <ele>123.375729</ele>
        <time>2023-01-05T13:35:37.951Z</time>
      </trkpt>
      <trkpt lat="43.18558" lon="2.49454">
        <ele>123.220713</ele>
        <time>2023-01-05T13:35:39.956Z</time>
      </trkpt>
      <trkpt lat="43.18557" lon="2.49473">
        <ele>123.059477</ele>
        <time>2023-01-05T13:35:41.939Z</time>
      </trkpt>
      <trkpt lat="43.18555" lon="2.49491">
        <ele>122.902642</ele>
        <time>2023-01-05T13:35:43.947Z</time>
      </trkpt>
      <trkpt lat="43.18554" lon="2.4951">
        <ele>122.760755</ele>
        <time>2023-01-05T13:35:45.940Z</time>
      </trkpt>
      <trkpt lat="43.18552" lon="2.49529">
        <ele>122.656657</ele>
        <time>2023-01-05T13:35:47.938Z</time>
      </trkpt>
      <trkpt lat="43.18551" lon="2.49548">
        <ele>122.554003</ele>
        <time>2023-01-05T13:35:49.944Z</time>
      </trkpt>
      <trkpt lat="43.1855" lon="2.49567">
        <ele>122.452848</ele>
        <time>2023-01-05T13:35:51.950Z</time>
      </trkpt>
      <trkpt lat="43.18549" lon="2.49587">
        <ele>122.347357</ele>
        <time>2023-01-05T13:35:53.956Z</time>
      </trkpt>
      <trkpt lat="43.18548" lon="2.49606">
        <ele>122.243048</ele>
        <time>2023-01-05T13:35:55.952Z</time>
      </trkpt>
      <trkpt lat="43.18546" lon="2.49626">
        <ele>122.137883</ele>
        <time>2023-01-05T13:35:57.949Z</time>
      </trkpt>
      <trkpt lat="43.18546" lon="2.49646">
        <ele>122.030412</ele>
        <time>2023-01-05T13:35:59.955Z</time>
      </trkpt>
      <trkpt lat="43.18544" lon="2.49665">
        <ele>121.927989</ele>
        <time>2023-01-05T13:36:01.951Z</time>
      </trkpt>
      <trkpt lat="43.18543" lon="2.49684">
        <ele>121.826356</ele>
        <time>2023-01-05T13:36:03.949Z</time>
      </trkpt>
      <trkpt lat="43.18542" lon="2.49703">
        <ele>121.72347</ele>
        <time>2023-01-05T13:36:05.958Z</time>
      </trkpt>
      <trkpt lat="43.18541" lon="2.49722">
        <ele>121.620651</ele>
        <time>2023-01-05T13:36:07.949Z</time>
      </trkpt>
      <trkpt lat="43.1854" lon="2.4974">
        <ele>121.52179</ele>
        <time>2023-01-05T13:36:09.946Z</time>
      </trkpt>
      <trkpt lat="43.18538" lon="2.49759">
        <ele>121.562382</ele>
        <time>2023-01-05T13:36:11.952Z</time>
      </trkpt>
      <trkpt lat="43.18537" lon="2.49778">
        <ele>121.733481</ele>
        <time>2023-01-05T13:36:13.945Z</time>
      </trkpt>
      <trkpt lat="43.18536" lon="2.49796">
        <ele>121.893115</ele>
        <time>2023-01-05T13:36:15.958Z</time>
      </trkpt>
      <trkpt lat="43.18535" lon="2.49814">
        <ele>122.059238</ele>
        <time>2023-01-05T13:36:17.956Z</time>
      </trkpt>
      <trkpt lat="43.18534" lon="2.49832">
        <ele>122.222454</ele>
        <time>2023-01-05T13:36:19.942Z</time>
      </trkpt>
      <trkpt lat="43.18532" lon="2.49851">
        <ele>122.392405</ele>
        <time>2023-01-05T13:36:21.951Z</time>
      </trkpt>
      <trkpt lat="43.18531" lon="2.4987">
        <ele>122.5609</ele>
        <time>2023-01-05T13:36:23.949Z</time>
      </trkpt>
      <trkpt lat="43.1853" lon="2.49889">
        <ele>122.736086</ele>
        <time>2023-01-05T13:36:25.946Z</time>
      </trkpt>
      <trkpt lat="43.18529" lon="2.49908">
        <ele>122.909484</ele>
        <time>2023-01-05T13:36:27.945Z</time>
      </trkpt>
      <trkpt lat="43.18528" lon="2.49927">
        <ele>123.079687</ele>
        <time>2023-01-05T13:36:29.949Z</time>
      </trkpt>
      <trkpt lat="43.18526" lon="2.49946">
        <ele>123.247407</ele>
        <time>2023-01-05T13:36:31.953Z</time>
      </trkpt>
      <trkpt lat="43.18523" lon="2.49963">
        <ele>123.407657</ele>
        <time>2023-01-05T13:36:33.930Z</time>
      </trkpt>
      <trkpt lat="43.18521" lon="2.49981">
        <ele>123.57039</ele>
        <time>2023-01-05T13:36:35.935Z</time>
      </trkpt>
      <trkpt lat="43.18519" lon="2.49999">
        <ele>123.703234</ele>
        <time>2023-01-05T13:36:37.943Z</time>
      </trkpt>
      <trkpt lat="43.18518" lon="2.50016">
        <ele>123.747383</ele>
        <time>2023-01-05T13:36:39.950Z</time>
      </trkpt>
      <trkpt lat="43.18517" lon="2.50034">
        <ele>123.792909</ele>
        <time>2023-01-05T13:36:41.938Z</time>
      </trkpt>
      <trkpt lat="43.18515" lon="2.50051">
        <ele>123.838137</ele>
        <time>2023-01-05T13:36:43.945Z</time>
      </trkpt>
      <trkpt lat="43.18514" lon="2.50068">
        <ele>123.882041</ele>
        <time>2023-01-05T13:36:45.951Z</time>
      </trkpt>
      <trkpt lat="43.18512" lon="2.50086">
        <ele>123.927567</ele>
        <time>2023-01-05T13:36:47.946Z</time>
      </trkpt>
      <trkpt lat="43.18511" lon="2.50103">
        <ele>123.972837</ele>
        <time>2023-01-05T13:36:49.949Z</time>
      </trkpt>
      <trkpt lat="43.1851" lon="2.5012">
        <ele>124.016503</ele>
        <time>2023-01-05T13:36:51.959Z</time>
      </trkpt>
      <trkpt lat="43.18509" lon="2.50136">
        <ele>124.058267</ele>
        <time>2023-01-05T13:36:53.958Z</time>
      </trkpt>
      <trkpt lat="43.18509" lon="2.50153">
        <ele>124.101268</ele>
        <time>2023-01-05T13:36:55.937Z</time>
      </trkpt>
      <trkpt lat="43.18509" lon="2.50169">
        <ele>124.142716</ele>
        <time>2023-01-05T13:36:57.945Z</time>
      </trkpt>
      <trkpt lat="43.1851" lon="2.50186">
        <ele>124.185646</ele>
        <time>2023-01-05T13:36:59.928Z</time>
      </trkpt>
      <trkpt lat="43.18512" lon="2.50203">
        <ele>124.228949</ele>
        <time>2023-01-05T13:37:01.929Z</time>
      </trkpt>
      <trkpt lat="43.18513" lon="2.5022">
        <ele>124.273488</ele>
        <time>2023-01-05T13:37:03.952Z</time>
      </trkpt>
      <trkpt lat="43.18515" lon="2.50237">
        <ele>124.317804</ele>
        <time>2023-01-05T13:37:05.960Z</time>
      </trkpt>
      <trkpt lat="43.18517" lon="2.50254">
        <ele>124.249513</ele>
        <time>2023-01-05T13:37:07.963Z</time>
      </trkpt>
      <trkpt lat="43.18519" lon="2.50272">
        <ele>124.157466</ele>
        <time>2023-01-05T13:37:09.953Z</time>
      </trkpt>
      <trkpt lat="43.1852" lon="2.5029">
        <ele>124.06857</ele>
        <time>2023-01-05T13:37:11.952Z</time>
      </trkpt>
      <trkpt lat="43.1852" lon="2.50307">
        <ele>123.980441</ele>
        <time>2023-01-05T13:37:13.949Z</time>
      </trkpt>
      <trkpt lat="43.18518" lon="2.50323">
        <ele>123.899889</ele>
        <time>2023-01-05T13:37:15.930Z</time>
      </trkpt>
      <trkpt lat="43.18522" lon="2.50338">
        <ele>123.822733</ele>
        <time>2023-01-05T13:37:17.931Z</time>
      </trkpt>
      <trkpt lat="43.1853" lon="2.50349">
        <ele>123.742119</ele>
        <time>2023-01-05T13:37:19.934Z</time>
      </trkpt>
      <trkpt lat="43.1854" lon="2.50357">
        <ele>123.659064</ele>
        <time>2023-01-05T13:37:21.932Z</time>
      </trkpt>
      <trkpt lat="43.18549" lon="2.50367">
        <ele>123.577039</ele>
        <time>2023-01-05T13:37:23.931Z</time>
      </trkpt>
      <trkpt lat="43.18556" lon="2.50381">
        <ele>123.495164</ele>
        <time>2023-01-05T13:37:25.940Z</time>
      </trkpt>
      <trkpt lat="43.18562" lon="2.50396">
        <ele>123.407688</ele>
        <time>2023-01-05T13:37:27.932Z</time>
      </trkpt>
      <trkpt lat="43.18568" lon="2.50412">
        <ele>123.315896</ele>
        <time>2023-01-05T13:37:29.930Z</time>
      </trkpt>
      <trkpt lat="43.18574" lon="2.50428">
        <ele>123.224071</ele>
        <time>2023-01-05T13:37:31.950Z</time>
      </trkpt>
      <trkpt lat="43.18579" lon="2.50445">
        <ele>123.133173</ele>
        <time>2023-01-05T13:37:33.950Z</time>
      </trkpt>
      <trkpt lat="43.18585" lon="2.50462">
        <ele>123.075303</ele>
        <time>2023-01-05T13:37:35.959Z</time>
      </trkpt>
      <trkpt lat="43.1859" lon="2.50479">
        <ele>123.072179</ele>
        <time>2023-01-05T13:37:37.952Z</time>
      </trkpt>
      <trkpt lat="43.18596" lon="2.50496">
        <ele>123.068918</ele>
        <time>2023-01-05T13:37:39.947Z</time>
      </trkpt>
      <trkpt lat="43.18601" lon="2.50514">
        <ele>123.065654</ele>
        <time>2023-01-05T13:37:41.946Z</time>
      </trkpt>
      <trkpt lat="43.18606" lon="2.50532">
        <ele>123.062417</ele>
        <time>2023-01-05T13:37:43.963Z</time>
      </trkpt>
      <trkpt lat="43.18612" lon="2.50549">
        <ele>123.059144</ele>
        <time>2023-01-05T13:37:45.951Z</time>
      </trkpt>
      <trkpt lat="43.18618" lon="2.50567">
        <ele>123.055889</ele>
        <time>2023-01-05T13:37:47.952Z</time>
      </trkpt>
      <trkpt lat="43.18623" lon="2.50584">
        <ele>123.052696</ele>
        <time>2023-01-05T13:37:49.950Z</time>
      </trkpt>
      <trkpt lat="43.18629" lon="2.50601">
        <ele>123.049532</ele>
        <time>2023-01-05T13:37:51.962Z</time>
      </trkpt>
      <trkpt lat="43.18634" lon="2.50618">
        <ele>123.046449</ele>
        <time>2023-01-05T13:37:53.944Z</time>
      </trkpt>
      <trkpt lat="43.1864" lon="2.50634">
        <ele>123.043371</ele>
        <time>2023-01-05T13:37:55.947Z</time>
      </trkpt>
      <trkpt lat="43.18645" lon="2.50651">
        <ele>123.040232</ele>
        <time>2023-01-05T13:37:57.954Z</time>
      </trkpt>
      <trkpt lat="43.18651" lon="2.50668">
        <ele>123.037068</ele>
        <time>2023-01-05T13:37:59.955Z</time>
      </trkpt>
      <trkpt lat="43.18657" lon="2.50684">
        <ele>123.006401</ele>
        <time>2023-01-05T13:38:01.936Z</time>
      </trkpt>
      <trkpt lat="43.18663" lon="2.50701">
        <ele>122.885186</ele>
        <time>2023-01-05T13:38:03.959Z</time>
      </trkpt>
      <trkpt lat="43.18668" lon="2.50717">
        <ele>122.767316</ele>
        <time>2023-01-05T13:38:05.948Z</time>
      </trkpt>
      <trkpt lat="43.18673" lon="2.50733">
        <ele>122.651533</ele>
        <time>2023-01-05T13:38:07.955Z</time>
      </trkpt>
      <trkpt lat="43.18678" lon="2.50749">
        <ele>122.539034</ele>
        <time>2023-01-05T13:38:09.953Z</time>
      </trkpt>
      <trkpt lat="43.18682" lon="2.50765">
        <ele>122.428042</ele>
        <time>2023-01-05T13:38:11.958Z</time>
      </trkpt>
      <trkpt lat="43.18687" lon="2.5078">
        <ele>122.31705</ele>
        <time>2023-01-05T13:38:13.947Z</time>
      </trkpt>
      <trkpt lat="43.18691" lon="2.50796">
        <ele>122.203023</ele>
        <time>2023-01-05T13:38:15.950Z</time>
      </trkpt>
      <trkpt lat="43.18695" lon="2.50813">
        <ele>122.089293</ele>
        <time>2023-01-05T13:38:17.947Z</time>
      </trkpt>
      <trkpt lat="43.187" lon="2.50829">
        <ele>121.97216</ele>
        <time>2023-01-05T13:38:19.963Z</time>
      </trkpt>
      <trkpt lat="43.18705" lon="2.50846">
        <ele>121.852557</ele>
        <time>2023-01-05T13:38:21.947Z</time>
      </trkpt>
      <trkpt lat="43.18709" lon="2.50864">
        <ele>121.730161</ele>
        <time>2023-01-05T13:38:23.950Z</time>
      </trkpt>
      <trkpt lat="43.18713" lon="2.50882">
        <ele>121.607036</ele>
        <time>2023-01-05T13:38:25.948Z</time>
      </trkpt>
      <trkpt lat="43.18717" lon="2.509">
        <ele>121.482022</ele>
        <time>2023-01-05T13:38:27.961Z</time>
      </trkpt>
      <trkpt lat="43.18721" lon="2.50918">
        <ele>121.42219</ele>
        <time>2023-01-05T13:38:29.945Z</time>
      </trkpt>
      <trkpt lat="43.18725" lon="2.50937">
        <ele>121.459047</ele>
        <time>2023-01-05T13:38:31.960Z</time>
      </trkpt>
      <trkpt lat="43.18728" lon="2.50956">
        <ele>121.494885</ele>
        <time>2023-01-05T13:38:33.948Z</time>
      </trkpt>
      <trkpt lat="43.18731" lon="2.50975">
        <ele>121.5313</ele>
        <time>2023-01-05T13:38:35.948Z</time>
      </trkpt>
      <trkpt lat="43.18735" lon="2.50995">
        <ele>121.568375</ele>
        <time>2023-01-05T13:38:37.952Z</time>
      </trkpt>
      <trkpt lat="43.18738" lon="2.51013">
        <ele>121.603706</ele>
        <time>2023-01-05T13:38:39.956Z</time>
      </trkpt>
      <trkpt lat="43.18741" lon="2.51032">
        <ele>121.639466</ele>
        <time>2023-01-05T13:38:41.937Z</time>
      </trkpt>
      <trkpt lat="43.18743" lon="2.51051">
        <ele>121.67603</ele>
        <time>2023-01-05T13:38:43.942Z</time>
      </trkpt>
      <trkpt lat="43.18745" lon="2.5107">
        <ele>121.711556</ele>
        <time>2023-01-05T13:38:45.949Z</time>
      </trkpt>
      <trkpt lat="43.18748" lon="2.5109">
        <ele>121.748486</ele>
        <time>2023-01-05T13:38:47.955Z</time>
      </trkpt>
      <trkpt lat="43.1875" lon="2.51109">
        <ele>121.784342</ele>
        <time>2023-01-05T13:38:49.953Z</time>
      </trkpt>
      <trkpt lat="43.18752" lon="2.51128">
        <ele>121.820933</ele>
        <time>2023-01-05T13:38:51.949Z</time>
      </trkpt>
      <trkpt lat="43.18755" lon="2.51149">
        <ele>121.859107</ele>
        <time>2023-01-05T13:38:53.950Z</time>
      </trkpt>
      <trkpt lat="43.18756" lon="2.51169">
        <ele>121.882191</ele>
        <time>2023-01-05T13:38:55.953Z</time>
      </trkpt>
      <trkpt lat="43.18757" lon="2.51189">
        <ele>121.901769</ele>
        <time>2023-01-05T13:38:57.946Z</time>
      </trkpt>
      <trkpt lat="43.18758" lon="2.51209">
        <ele>121.921332</ele>
        <time>2023-01-05T13:38:59.962Z</time>
      </trkpt>
      <trkpt lat="43.18759" lon="2.51229">
        <ele>121.94062</ele>
        <time>2023-01-05T13:39:01.959Z</time>
      </trkpt>
      <trkpt lat="43.18759" lon="2.51249">
        <ele>121.959765</ele>
        <time>2023-01-05T13:39:03.961Z</time>
      </trkpt>
      <trkpt lat="43.18759" lon="2.51268">
        <ele>121.978813</ele>
        <time>2023-01-05T13:39:05.952Z</time>
      </trkpt>
      <trkpt lat="43.18759" lon="2.51287">
        <ele>121.997571</ele>
        <time>2023-01-05T13:39:07.962Z</time>
      </trkpt>
      <trkpt lat="43.18759" lon="2.51308">
        <ele>122.017202</ele>
        <time>2023-01-05T13:39:09.950Z</time>
      </trkpt>
      <trkpt lat="43.18758" lon="2.51328">
        <ele>122.037225</ele>
        <time>2023-01-05T13:39:11.938Z</time>
      </trkpt>
      <trkpt lat="43.18758" lon="2.51348">
        <ele>122.05649</ele>
        <time>2023-01-05T13:39:13.949Z</time>
      </trkpt>
      <trkpt lat="43.18756" lon="2.51367">
        <ele>122.075423</ele>
        <time>2023-01-05T13:39:15.947Z</time>
      </trkpt>
      <trkpt lat="43.18755" lon="2.51388">
        <ele>122.095022</ele>
        <time>2023-01-05T13:39:17.961Z</time>
      </trkpt>
      <trkpt lat="43.18753" lon="2.51407">
        <ele>122.118348</ele>
        <time>2023-01-05T13:39:19.948Z</time>
      </trkpt>
      <trkpt lat="43.18752" lon="2.51427">
        <ele>122.145985</ele>
        <time>2023-01-05T13:39:21.958Z</time>
      </trkpt>
      <trkpt lat="43.1875" lon="2.51446">
        <ele>122.172853</ele>
        <time>2023-01-05T13:39:23.959Z</time>
      </trkpt>
      <trkpt lat="43.18748" lon="2.51465">
        <ele>122.199894</ele>
        <time>2023-01-05T13:39:25.948Z</time>
      </trkpt>
      <trkpt lat="43.18746" lon="2.51484">
        <ele>122.226576</ele>
        <time>2023-01-05T13:39:27.947Z</time>
      </trkpt>
      <trkpt lat="43.18744" lon="2.51501">
        <ele>122.251249</ele>
        <time>2023-01-05T13:39:29.951Z</time>
      </trkpt>
      <trkpt lat="43.18742" lon="2.51518">
        <ele>122.2752</ele>
        <time>2023-01-05T13:39:31.948Z</time>
      </trkpt>
      <trkpt lat="43.1874" lon="2.51536">
        <ele>122.300245</ele>
        <time>2023-01-05T13:39:33.960Z</time>
      </trkpt>
      <trkpt lat="43.18737" lon="2.51553">
        <ele>122.324917</ele>
        <time>2023-01-05T13:39:35.951Z</time>
      </trkpt>
      <trkpt lat="43.18734" lon="2.5157">
        <ele>122.349674</ele>
        <time>2023-01-05T13:39:37.928Z</time>
      </trkpt>
      <trkpt lat="43.18732" lon="2.51587">
        <ele>122.373895</ele>
        <time>2023-01-05T13:39:39.956Z</time>
      </trkpt>
      <trkpt lat="43.18729" lon="2.51605">
        <ele>122.399941</ele>
        <time>2023-01-05T13:39:41.959Z</time>
      </trkpt>
      <trkpt lat="43.18726" lon="2.51623">
        <ele>122.425468</ele>
        <time>2023-01-05T13:39:43.932Z</time>
      </trkpt>
      <trkpt lat="43.18723" lon="2.5164">
        <ele>122.450635</ele>
        <time>2023-01-05T13:39:45.949Z</time>
      </trkpt>
      <trkpt lat="43.1872" lon="2.51658">
        <ele>122.541655</ele>
        <time>2023-01-05T13:39:47.950Z</time>
      </trkpt>
      <trkpt lat="43.18717" lon="2.51676">
        <ele>122.634444</ele>
        <time>2023-01-05T13:39:49.954Z</time>
      </trkpt>
      <trkpt lat="43.18714" lon="2.51693">
        <ele>122.724942</ele>
        <time>2023-01-05T13:39:51.948Z</time>
      </trkpt>
      <trkpt lat="43.18711" lon="2.5171">
        <ele>122.815729</ele>
        <time>2023-01-05T13:39:53.955Z</time>
      </trkpt>
      <trkpt lat="43.18708" lon="2.51728">
        <ele>122.906172</ele>
        <time>2023-01-05T13:39:55.950Z</time>
      </trkpt>
      <trkpt lat="43.18704" lon="2.51743">
        <ele>122.992115</ele>
        <time>2023-01-05T13:39:57.943Z</time>
      </trkpt>
      <trkpt lat="43.187" lon="2.51758">
        <ele>123.07036</ele>
        <time>2023-01-05T13:39:59.962Z</time>
      </trkpt>
      <trkpt lat="43.18696" lon="2.51772">
        <ele>123.147653</ele>
        <time>2023-01-05T13:40:01.947Z</time>
      </trkpt>
      <trkpt lat="43.18692" lon="2.51785">
        <ele>123.219671</ele>
        <time>2023-01-05T13:40:03.931Z</time>
      </trkpt>
      <trkpt lat="43.18687" lon="2.51797">
        <ele>123.291186</ele>
        <time>2023-01-05T13:40:05.945Z</time>
      </trkpt>
      <trkpt lat="43.18681" lon="2.51808">
        <ele>123.359918</ele>
        <time>2023-01-05T13:40:07.945Z</time>
      </trkpt>
      <trkpt lat="43.18674" lon="2.51815">
        <ele>123.4237</ele>
        <time>2023-01-05T13:40:09.933Z</time>
      </trkpt>
      <trkpt lat="43.18666" lon="2.51822">
        <ele>123.491245</ele>
        <time>2023-01-05T13:40:11.931Z</time>
      </trkpt>
      <trkpt lat="43.1866" lon="2.51833">
        <ele>123.558315</ele>
        <time>2023-01-05T13:40:13.939Z</time>
      </trkpt>
      <trkpt lat="43.18656" lon="2.51845">
        <ele>123.626673</ele>
        <time>2023-01-05T13:40:15.938Z</time>
      </trkpt>
      <trkpt lat="43.18655" lon="2.51858">
        <ele>123.692824</ele>
        <time>2023-01-05T13:40:17.932Z</time>
      </trkpt>
      <trkpt lat="43.18654" lon="2.51872">
        <ele>123.66926</ele>
        <time>2023-01-05T13:40:19.938Z</time>
      </trkpt>
      <trkpt lat="43.18657" lon="2.51885">
        <ele>123.604636</ele>
        <time>2023-01-05T13:40:21.940Z</time>
      </trkpt>
      <trkpt lat="43.18661" lon="2.51896">
        <ele>123.544441</ele>
        <time>2023-01-05T13:40:23.937Z</time>
      </trkpt>
      <trkpt lat="43.18665" lon="2.51909">
        <ele>123.478927</ele>
        <time>2023-01-05T13:40:25.951Z</time>
      </trkpt>
      <trkpt lat="43.18665" lon="2.51922">
        <ele>123.413992</ele>
        <time>2023-01-05T13:40:27.936Z</time>
      </trkpt>
      <trkpt lat="43.18663" lon="2.51935">
        <ele>123.348604</ele>
        <time>2023-01-05T13:40:29.937Z</time>
      </trkpt>
      <trkpt lat="43.1866" lon="2.5195">
        <ele>123.275754</ele>
        <time>2023-01-05T13:40:31.950Z</time>
      </trkpt>
      <trkpt lat="43.18657" lon="2.51966">
        <ele>123.197776</ele>
        <time>2023-01-05T13:40:33.952Z</time>
      </trkpt>
      <trkpt lat="43.18654" lon="2.51982">
        <ele>123.12064</ele>
        <time>2023-01-05T13:40:35.948Z</time>
      </trkpt>
      <trkpt lat="43.1865" lon="2.51996">
        <ele>123.046634</ele>
        <time>2023-01-05T13:40:37.961Z</time>
      </trkpt>
      <trkpt lat="43.18648" lon="2.52011">
        <ele>122.974445</ele>
        <time>2023-01-05T13:40:39.946Z</time>
      </trkpt>
      <trkpt lat="43.18644" lon="2.52025">
        <ele>122.90136</ele>
        <time>2023-01-05T13:40:41.930Z</time>
      </trkpt>
      <trkpt lat="43.1864" lon="2.5204">
        <ele>122.827354</ele>
        <time>2023-01-05T13:40:43.949Z</time>
      </trkpt>
      <trkpt lat="43.18637" lon="2.52054">
        <ele>122.754269</ele>
        <time>2023-01-05T13:40:45.952Z</time>
      </trkpt>
      <trkpt lat="43.18634" lon="2.5207">
        <ele>122.676975</ele>
        <time>2023-01-05T13:40:47.956Z</time>
      </trkpt>
      <trkpt lat="43.18631" lon="2.52086">
        <ele>122.599809</ele>
        <time>2023-01-05T13:40:49.954Z</time>
      </trkpt>
      <trkpt lat="43.18628" lon="2.52103">
        <ele>122.51667</ele>
        <time>2023-01-05T13:40:51.951Z</time>
      </trkpt>
      <trkpt lat="43.18625" lon="2.52119">
        <ele>122.439232</ele>
        <time>2023-01-05T13:40:53.944Z</time>
      </trkpt>
      <trkpt lat="43.18623" lon="2.52135">
        <ele>122.362986</ele>
        <time>2023-01-05T13:40:55.954Z</time>
      </trkpt>
      <trkpt lat="43.18621" lon="2.52152">
        <ele>122.28508</ele>
        <time>2023-01-05T13:40:57.946Z</time>
      </trkpt>
      <trkpt lat="43.18618" lon="2.52167">
        <ele>122.210379</ele>
        <time>2023-01-05T13:40:59.946Z</time>
      </trkpt>
      <trkpt lat="43.18616" lon="2.52184">
        <ele>122.130745</ele>
        <time>2023-01-05T13:41:01.948Z</time>
      </trkpt>
      <trkpt lat="43.18615" lon="2.522">
        <ele>122.056921</ele>
        <time>2023-01-05T13:41:03.954Z</time>
      </trkpt>
      <trkpt lat="43.18614" lon="2.52217">
        <ele>121.980318</ele>
        <time>2023-01-05T13:41:05.947Z</time>
      </trkpt>
      <trkpt lat="43.18614" lon="2.52234">
        <ele>121.900225</ele>
        <time>2023-01-05T13:41:07.931Z</time>
      </trkpt>
      <trkpt lat="43.18614" lon="2.5225">
        <ele>121.822547</ele>
        <time>2023-01-05T13:41:09.952Z</time>
      </trkpt>
      <trkpt lat="43.18614" lon="2.52268">
        <ele>121.741575</ele>
        <time>2023-01-05T13:41:11.953Z</time>
      </trkpt>
      <trkpt lat="43.18614" lon="2.52286">
        <ele>121.658773</ele>
        <time>2023-01-05T13:41:13.956Z</time>
      </trkpt>
      <trkpt lat="43.18615" lon="2.52304">
        <ele>121.575476</ele>
        <time>2023-01-05T13:41:15.954Z</time>
      </trkpt>
      <trkpt lat="43.18615" lon="2.52321">
        <ele>121.493592</ele>
        <time>2023-01-05T13:41:17.948Z</time>
      </trkpt>
      <trkpt lat="43.18616" lon="2.52339">
        <ele>121.410247</ele>
        <time>2023-01-05T13:41:19.933Z</time>
      </trkpt>
      <trkpt lat="43.18616" lon="2.52357">
        <ele>121.36551</ele>
        <time>2023-01-05T13:41:21.939Z</time>
      </trkpt>
      <trkpt lat="43.18617" lon="2.52375">
        <ele>121.331379</ele>
        <time>2023-01-05T13:41:23.946Z</time>
      </trkpt>
      <trkpt lat="43.18618" lon="2.52393">
        <ele>121.296828</ele>
        <time>2023-01-05T13:41:25.935Z</time>
      </trkpt>
      <trkpt lat="43.18618" lon="2.52411">
        <ele>121.262347</ele>
        <time>2023-01-05T13:41:27.959Z</time>
      </trkpt>
      <trkpt lat="43.18619" lon="2.5243">
        <ele>121.227232</ele>
        <time>2023-01-05T13:41:29.957Z</time>
      </trkpt>
      <trkpt lat="43.18619" lon="2.52448">
        <ele>121.193477</ele>
        <time>2023-01-05T13:41:31.957Z</time>
      </trkpt>
      <trkpt lat="43.18621" lon="2.52466">
        <ele>121.159616</ele>
        <time>2023-01-05T13:41:33.951Z</time>
      </trkpt>
      <trkpt lat="43.18621" lon="2.52484">
        <ele>121.124955</ele>
        <time>2023-01-05T13:41:35.944Z</time>
      </trkpt>
      <trkpt lat="43.18621" lon="2.52502">
        <ele>121.090482</ele>
        <time>2023-01-05T13:41:37.950Z</time>
      </trkpt>
      <trkpt lat="43.18621" lon="2.5252">
        <ele>121.056549</ele>
        <time>2023-01-05T13:41:39.957Z</time>
      </trkpt>
      <trkpt lat="43.18622" lon="2.52539">
        <ele>121.021666</ele>
        <time>2023-01-05T13:41:41.960Z</time>
      </trkpt>
      <trkpt lat="43.18623" lon="2.52557">
        <ele>120.987146</ele>
        <time>2023-01-05T13:41:43.952Z</time>
      </trkpt>
      <trkpt lat="43.18623" lon="2.52575">
        <ele>120.953976</ele>
        <time>2023-01-05T13:41:45.958Z</time>
      </trkpt>
      <trkpt lat="43.18623" lon="2.52592">
        <ele>120.920233</ele>
        <time>2023-01-05T13:41:47.960Z</time>
      </trkpt>
      <trkpt lat="43.18624" lon="2.52609">
        <ele>120.876423</ele>
        <time>2023-01-05T13:41:49.951Z</time>
      </trkpt>
      <trkpt lat="43.18625" lon="2.52626">
        <ele>120.833879</ele>
        <time>2023-01-05T13:41:51.948Z</time>
      </trkpt>
      <trkpt lat="43.18625" lon="2.52642">
        <ele>120.791703</ele>
        <time>2023-01-05T13:41:53.951Z</time>
      </trkpt>
      <trkpt lat="43.18625" lon="2.52659">
        <ele>120.750037</ele>
        <time>2023-01-05T13:41:55.948Z</time>
      </trkpt>
      <trkpt lat="43.18625" lon="2.52675">
        <ele>120.708358</ele>
        <time>2023-01-05T13:41:57.949Z</time>
      </trkpt>
      <trkpt lat="43.18626" lon="2.52692">
        <ele>120.665331</ele>
        <time>2023-01-05T13:41:59.955Z</time>
      </trkpt>
      <trkpt lat="43.18626" lon="2.52709">
        <ele>120.62289</ele>
        <time>2023-01-05T13:42:01.949Z</time>
      </trkpt>
      <trkpt lat="43.18627" lon="2.52725">
        <ele>120.581153</ele>
        <time>2023-01-05T13:42:03.952Z</time>
      </trkpt>
      <trkpt lat="43.18627" lon="2.5274">
        <ele>120.54253</ele>
        <time>2023-01-05T13:42:05.956Z</time>
      </trkpt>
      <trkpt lat="43.18628" lon="2.52756">
        <ele>120.503835</ele>
        <time>2023-01-05T13:42:07.951Z</time>
      </trkpt>
      <trkpt lat="43.18628" lon="2.5277">
        <ele>120.466916</ele>
        <time>2023-01-05T13:42:09.949Z</time>
      </trkpt>
      <trkpt lat="43.18629" lon="2.52785">
        <ele>120.43029</ele>
        <time>2023-01-05T13:42:11.949Z</time>
      </trkpt>
      <trkpt lat="43.18629" lon="2.52799">
        <ele>120.393932</ele>
        <time>2023-01-05T13:42:13.949Z</time>
      </trkpt>
      <trkpt lat="43.1863" lon="2.52813">
        <ele>120.358083</ele>
        <time>2023-01-05T13:42:15.956Z</time>
      </trkpt>
      <trkpt lat="43.1863" lon="2.52827">
        <ele>120.32175</ele>
        <time>2023-01-05T13:42:17.950Z</time>
      </trkpt>
      <trkpt lat="43.1863" lon="2.52842">
        <ele>120.302013</ele>
        <time>2023-01-05T13:42:19.948Z</time>
      </trkpt>
      <trkpt lat="43.1863" lon="2.52857">
        <ele>120.308307</ele>
        <time>2023-01-05T13:42:21.960Z</time>
      </trkpt>
      <trkpt lat="43.18631" lon="2.52872">
        <ele>120.314516</ele>
        <time>2023-01-05T13:42:23.950Z</time>
      </trkpt>
      <trkpt lat="43.18631" lon="2.52887">
        <ele>120.321152</ele>
        <time>2023-01-05T13:42:25.959Z</time>
      </trkpt>
      <trkpt lat="43.18631" lon="2.52903">
        <ele>120.327746</ele>
        <time>2023-01-05T13:42:27.953Z</time>
      </trkpt>
      <trkpt lat="43.18632" lon="2.52919">
        <ele>120.33456</ele>
        <time>2023-01-05T13:42:29.954Z</time>
      </trkpt>
      <trkpt lat="43.18633" lon="2.52934">
        <ele>120.341199</ele>
        <time>2023-01-05T13:42:31.948Z</time>
      </trkpt>
      <trkpt lat="43.18633" lon="2.5295">
        <ele>120.347959</ele>
        <time>2023-01-05T13:42:33.937Z</time>
      </trkpt>
      <trkpt lat="43.18633" lon="2.52967">
        <ele>120.355198</ele>
        <time>2023-01-05T13:42:35.952Z</time>
      </trkpt>
      <trkpt lat="43.18634" lon="2.52984">
        <ele>120.362307</ele>
        <time>2023-01-05T13:42:37.949Z</time>
      </trkpt>
      <trkpt lat="43.18634" lon="2.53001">
        <ele>120.369452</ele>
        <time>2023-01-05T13:42:39.953Z</time>
      </trkpt>
      <trkpt lat="43.18635" lon="2.53017">
        <ele>120.376274</ele>
        <time>2023-01-05T13:42:41.928Z</time>
      </trkpt>
      <trkpt lat="43.18636" lon="2.53032">
        <ele>120.382913</ele>
        <time>2023-01-05T13:42:43.953Z</time>
      </trkpt>
      <trkpt lat="43.18636" lon="2.53047">
        <ele>120.38912</ele>
        <time>2023-01-05T13:42:45.954Z</time>
      </trkpt>
      <trkpt lat="43.18637" lon="2.5306">
        <ele>120.394884</ele>
        <time>2023-01-05T13:42:47.949Z</time>
      </trkpt>
      <trkpt lat="43.18637" lon="2.53074">
        <ele>120.40067</ele>
        <time>2023-01-05T13:42:49.943Z</time>
      </trkpt>
      <trkpt lat="43.18637" lon="2.53088">
        <ele>120.423172</ele>
        <time>2023-01-05T13:42:51.938Z</time>
      </trkpt>
      <trkpt lat="43.18637" lon="2.53102">
        <ele>120.471872</ele>
        <time>2023-01-05T13:42:53.934Z</time>
      </trkpt>
      <trkpt lat="43.18638" lon="2.53117">
        <ele>120.521871</ele>
        <time>2023-01-05T13:42:55.952Z</time>
      </trkpt>
      <trkpt lat="43.18638" lon="2.53132">
        <ele>120.571246</ele>
        <time>2023-01-05T13:42:57.957Z</time>
      </trkpt>
      <trkpt lat="43.18638" lon="2.53147">
        <ele>120.623626</ele>
        <time>2023-01-05T13:42:59.956Z</time>
      </trkpt>
      <trkpt lat="43.18639" lon="2.53163">
        <ele>120.676358</ele>
        <time>2023-01-05T13:43:01.959Z</time>
      </trkpt>
      <trkpt lat="43.1864" lon="2.53179">
        <ele>120.729221</ele>
        <time>2023-01-05T13:43:03.956Z</time>
      </trkpt>
      <trkpt lat="43.1864" lon="2.53195">
        <ele>120.785653</ele>
        <time>2023-01-05T13:43:05.946Z</time>
      </trkpt>
      <trkpt lat="43.18641" lon="2.53212">
        <ele>120.842527</ele>
        <time>2023-01-05T13:43:07.953Z</time>
      </trkpt>
      <trkpt lat="43.18641" lon="2.53229">
        <ele>120.901035</ele>
        <time>2023-01-05T13:43:09.947Z</time>
      </trkpt>
      <trkpt lat="43.18641" lon="2.53247">
        <ele>120.959141</ele>
        <time>2023-01-05T13:43:11.958Z</time>
      </trkpt>
      <trkpt lat="43.18642" lon="2.53264">
        <ele>121.017336</ele>
        <time>2023-01-05T13:43:13.950Z</time>
      </trkpt>
      <trkpt lat="43.18643" lon="2.53281">
        <ele>121.075506</ele>
        <time>2023-01-05T13:43:15.932Z</time>
      </trkpt>
      <trkpt lat="43.18644" lon="2.53298">
        <ele>121.13474</ele>
        <time>2023-01-05T13:43:17.930Z</time>
      </trkpt>
      <trkpt lat="43.18644" lon="2.53316">
        <ele>121.193887</ele>
        <time>2023-01-05T13:43:19.950Z</time>
      </trkpt>
      <trkpt lat="43.18644" lon="2.53333">
        <ele>121.271744</ele>
        <time>2023-01-05T13:43:21.958Z</time>
      </trkpt>
      <trkpt lat="43.18645" lon="2.53351">
        <ele>121.40542</ele>
        <time>2023-01-05T13:43:23.949Z</time>
      </trkpt>
      <trkpt lat="43.18645" lon="2.53368">
        <ele>121.534615</ele>
        <time>2023-01-05T13:43:25.954Z</time>
      </trkpt>
      <trkpt lat="43.18645" lon="2.53383">
        <ele>121.653084</ele>
        <time>2023-01-05T13:43:27.958Z</time>
      </trkpt>
      <trkpt lat="43.18646" lon="2.53398">
        <ele>121.768543</ele>
        <time>2023-01-05T13:43:29.952Z</time>
      </trkpt>
      <trkpt lat="43.18646" lon="2.53415">
        <ele>121.893882</ele>
        <time>2023-01-05T13:43:31.947Z</time>
      </trkpt>
      <trkpt lat="43.18647" lon="2.53431">
        <ele>122.017021</ele>
        <time>2023-01-05T13:43:33.959Z</time>
      </trkpt>
      <trkpt lat="43.18647" lon="2.53447">
        <ele>122.13924</ele>
        <time>2023-01-05T13:43:35.953Z</time>
      </trkpt>
      <trkpt lat="43.18648" lon="2.53463">
        <ele>122.265382</ele>
        <time>2023-01-05T13:43:37.953Z</time>
      </trkpt>
      <trkpt lat="43.18648" lon="2.53481">
        <ele>122.398438</ele>
        <time>2023-01-05T13:43:39.941Z</time>
      </trkpt>
      <trkpt lat="43.1865" lon="2.53499">
        <ele>122.53519</ele>
        <time>2023-01-05T13:43:41.946Z</time>
      </trkpt>
      <trkpt lat="43.18651" lon="2.53516">
        <ele>122.67088</ele>
        <time>2023-01-05T13:43:43.958Z</time>
      </trkpt>
      <trkpt lat="43.18651" lon="2.53534">
        <ele>122.803128</ele>
        <time>2023-01-05T13:43:45.959Z</time>
      </trkpt>
      <trkpt lat="43.18651" lon="2.53551">
        <ele>122.93604</ele>
        <time>2023-01-05T13:43:47.950Z</time>
      </trkpt>
      <trkpt lat="43.18651" lon="2.53568">
        <ele>123.06666</ele>
        <time>2023-01-05T13:43:49.940Z</time>
      </trkpt>
      <trkpt lat="43.18652" lon="2.53585">
        <ele>123.165953</ele>
        <time>2023-01-05T13:43:51.951Z</time>
      </trkpt>
      <trkpt lat="43.18652" lon="2.536">
        <ele>123.239732</ele>
        <time>2023-01-05T13:43:53.951Z</time>
      </trkpt>
      <trkpt lat="43.18652" lon="2.53617">
        <ele>123.315873</ele>
        <time>2023-01-05T13:43:55.947Z</time>
      </trkpt>
      <trkpt lat="43.18652" lon="2.53633">
        <ele>123.391993</ele>
        <time>2023-01-05T13:43:57.961Z</time>
      </trkpt>
      <trkpt lat="43.18652" lon="2.53649">
        <ele>123.469522</ele>
        <time>2023-01-05T13:43:59.952Z</time>
      </trkpt>
      <trkpt lat="43.18653" lon="2.53666">
        <ele>123.546133</ele>
        <time>2023-01-05T13:44:01.934Z</time>
      </trkpt>
      <trkpt lat="43.18653" lon="2.53682">
        <ele>123.622318</ele>
        <time>2023-01-05T13:44:03.961Z</time>
      </trkpt>
      <trkpt lat="43.18654" lon="2.53698">
        <ele>123.700953</ele>
        <time>2023-01-05T13:44:05.961Z</time>
      </trkpt>
      <trkpt lat="43.18654" lon="2.53716">
        <ele>123.78134</ele>
        <time>2023-01-05T13:44:07.945Z</time>
      </trkpt>
      <trkpt lat="43.18655" lon="2.53733">
        <ele>123.864595</ele>
        <time>2023-01-05T13:44:09.957Z</time>
      </trkpt>
      <trkpt lat="43.18655" lon="2.53751">
        <ele>123.947759</ele>
        <time>2023-01-05T13:44:11.925Z</time>
      </trkpt>
      <trkpt lat="43.18655" lon="2.53768">
        <ele>124.028585</ele>
        <time>2023-01-05T13:44:13.945Z</time>
      </trkpt>
      <trkpt lat="43.18655" lon="2.53786">
        <ele>124.111282</ele>
        <time>2023-01-05T13:44:15.946Z</time>
      </trkpt>
      <trkpt lat="43.18656" lon="2.53804">
        <ele>124.195918</ele>
        <time>2023-01-05T13:44:17.950Z</time>
      </trkpt>
      <trkpt lat="43.18657" lon="2.53821">
        <ele>124.278916</ele>
        <time>2023-01-05T13:44:19.949Z</time>
      </trkpt>
      <trkpt lat="43.18658" lon="2.53839">
        <ele>124.371871</ele>
        <time>2023-01-05T13:44:21.952Z</time>
      </trkpt>
      <trkpt lat="43.18658" lon="2.53857">
        <ele>124.467007</ele>
        <time>2023-01-05T13:44:23.957Z</time>
      </trkpt>
      <trkpt lat="43.18659" lon="2.53875">
        <ele>124.56285</ele>
        <time>2023-01-05T13:44:25.949Z</time>
      </trkpt>
      <trkpt lat="43.18659" lon="2.53893">
        <ele>124.659551</ele>
        <time>2023-01-05T13:44:27.952Z</time>
      </trkpt>
      <trkpt lat="43.1866" lon="2.53912">
        <ele>124.758408</ele>
        <time>2023-01-05T13:44:29.949Z</time>
      </trkpt>
      <trkpt lat="43.18661" lon="2.5393">
        <ele>124.853108</ele>
        <time>2023-01-05T13:44:31.930Z</time>
      </trkpt>
      <trkpt lat="43.18661" lon="2.53948">
        <ele>124.94939</ele>
        <time>2023-01-05T13:44:33.951Z</time>
      </trkpt>
      <trkpt lat="43.18662" lon="2.53966">
        <ele>125.045637</ele>
        <time>2023-01-05T13:44:35.956Z</time>
      </trkpt>
      <trkpt lat="43.18663" lon="2.53984">
        <ele>125.139898</ele>
        <time>2023-01-05T13:44:37.941Z</time>
      </trkpt>
      <trkpt lat="43.18663" lon="2.54002">
        <ele>125.236071</ele>
        <time>2023-01-05T13:44:39.958Z</time>
      </trkpt>
      <trkpt lat="43.18664" lon="2.5402">
        <ele>125.327949</ele>
        <time>2023-01-05T13:44:41.928Z</time>
      </trkpt>
      <trkpt lat="43.18666" lon="2.54037">
        <ele>125.421269</ele>
        <time>2023-01-05T13:44:43.960Z</time>
      </trkpt>
      <trkpt lat="43.18667" lon="2.54055">
        <ele>125.515158</ele>
        <time>2023-01-05T13:44:45.949Z</time>
      </trkpt>
      <trkpt lat="43.1867" lon="2.54072">
        <ele>125.544571</ele>
        <time>2023-01-05T13:44:47.957Z</time>
      </trkpt>
      <trkpt lat="43.18673" lon="2.5409">
        <ele>125.398801</ele>
        <time>2023-01-05T13:44:49.944Z</time>
      </trkpt>
      <trkpt lat="43.18676" lon="2.54107">
        <ele>125.255681</ele>
        <time>2023-01-05T13:44:51.959Z</time>
      </trkpt>
      <trkpt lat="43.1868" lon="2.54124">
        <ele>125.108114</ele>
        <time>2023-01-05T13:44:53.951Z</time>
      </trkpt>
      <trkpt lat="43.18684" lon="2.54142">
        <ele>124.956515</ele>
        <time>2023-01-05T13:44:55.947Z</time>
      </trkpt>
      <trkpt lat="43.18688" lon="2.54159">
        <ele>124.80801</ele>
        <time>2023-01-05T13:44:57.967Z</time>
      </trkpt>
      <trkpt lat="43.18693" lon="2.54176">
        <ele>124.65641</ele>
        <time>2023-01-05T13:44:59.953Z</time>
      </trkpt>
      <trkpt lat="43.18697" lon="2.54194">
        <ele>124.505845</ele>
        <time>2023-01-05T13:45:01.941Z</time>
      </trkpt>
      <trkpt lat="43.18701" lon="2.54212">
        <ele>124.355148</ele>
        <time>2023-01-05T13:45:03.931Z</time>
      </trkpt>
      <trkpt lat="43.18704" lon="2.5423">
        <ele>124.203285</ele>
        <time>2023-01-05T13:45:05.950Z</time>
      </trkpt>
      <trkpt lat="43.18707" lon="2.54248">
        <ele>124.048528</ele>
        <time>2023-01-05T13:45:07.949Z</time>
      </trkpt>
      <trkpt lat="43.1871" lon="2.54268">
        <ele>123.886787</ele>
        <time>2023-01-05T13:45:09.931Z</time>
      </trkpt>
      <trkpt lat="43.18713" lon="2.54286">
        <ele>123.729907</ele>
        <time>2023-01-05T13:45:11.946Z</time>
      </trkpt>
      <trkpt lat="43.18715" lon="2.54306">
        <ele>123.568107</ele>
        <time>2023-01-05T13:45:13.929Z</time>
      </trkpt>
      <trkpt lat="43.18717" lon="2.54326">
        <ele>123.506525</ele>
        <time>2023-01-05T13:45:15.939Z</time>
      </trkpt>
      <trkpt lat="43.18719" lon="2.54346">
        <ele>123.444452</ele>
        <time>2023-01-05T13:45:17.958Z</time>
      </trkpt>
      <trkpt lat="43.1872" lon="2.54365">
        <ele>123.38285</ele>
        <time>2023-01-05T13:45:19.951Z</time>
      </trkpt>
      <trkpt lat="43.18722" lon="2.54385">
        <ele>123.321142</ele>
        <time>2023-01-05T13:45:21.958Z</time>
      </trkpt>
      <trkpt lat="43.18724" lon="2.54405">
        <ele>123.258663</ele>
        <time>2023-01-05T13:45:23.941Z</time>
      </trkpt>
      <trkpt lat="43.18725" lon="2.54424">
        <ele>123.198699</ele>
        <time>2023-01-05T13:45:25.956Z</time>
      </trkpt>
      <trkpt lat="43.18727" lon="2.54444">
        <ele>123.135956</ele>
        <time>2023-01-05T13:45:27.949Z</time>
      </trkpt>
      <trkpt lat="43.18729" lon="2.54463">
        <ele>123.078122</ele>
        <time>2023-01-05T13:45:29.965Z</time>
      </trkpt>
      <trkpt lat="43.18731" lon="2.54481">
        <ele>123.021208</ele>
        <time>2023-01-05T13:45:31.957Z</time>
      </trkpt>
      <trkpt lat="43.18732" lon="2.54499">
        <ele>122.96477</ele>
        <time>2023-01-05T13:45:33.953Z</time>
      </trkpt>
      <trkpt lat="43.18734" lon="2.54516">
        <ele>122.911485</ele>
        <time>2023-01-05T13:45:35.967Z</time>
      </trkpt>
      <trkpt lat="43.18736" lon="2.54532">
        <ele>122.860412</ele>
        <time>2023-01-05T13:45:37.958Z</time>
      </trkpt>
      <trkpt lat="43.18738" lon="2.54548">
        <ele>122.810685</ele>
        <time>2023-01-05T13:45:39.952Z</time>
      </trkpt>
      <trkpt lat="43.18739" lon="2.54563">
        <ele>122.730987</ele>
        <time>2023-01-05T13:45:41.949Z</time>
      </trkpt>
      <trkpt lat="43.18739" lon="2.54579">
        <ele>122.646247</ele>
        <time>2023-01-05T13:45:43.948Z</time>
      </trkpt>
      <trkpt lat="43.18741" lon="2.54594">
        <ele>122.562804</ele>
        <time>2023-01-05T13:45:45.959Z</time>
      </trkpt>
      <trkpt lat="43.18742" lon="2.54608">
        <ele>122.479449</ele>
        <time>2023-01-05T13:45:47.932Z</time>
      </trkpt>
      <trkpt lat="43.18743" lon="2.54623">
        <ele>122.400912</ele>
        <time>2023-01-05T13:45:49.952Z</time>
      </trkpt>
      <trkpt lat="43.18743" lon="2.54638">
        <ele>122.316114</ele>
        <time>2023-01-05T13:45:52.959Z</time>
      </trkpt>
      <trkpt lat="43.18745" lon="2.54652">
        <ele>122.234783</ele>
        <time>2023-01-05T13:45:55.957Z</time>
      </trkpt>
      <trkpt lat="43.18745" lon="2.54665">
        <ele>122.164683</ele>
        <time>2023-01-05T13:45:58.949Z</time>
      </trkpt>
      <trkpt lat="43.18746" lon="2.54673">
        <ele>122.118868</ele>
        <time>2023-01-05T13:46:11.035Z</time>
      </trkpt>
      <trkpt lat="43.18747" lon="2.54688">
        <ele>122.03496</ele>
        <time>2023-01-05T13:48:23.941Z</time>
      </trkpt>
      <trkpt lat="43.18748" lon="2.547">
        <ele>121.966142</ele>
        <time>2023-01-05T13:48:27.937Z</time>
      </trkpt>
      <trkpt lat="43.18751" lon="2.54714">
        <ele>121.885914</ele>
        <time>2023-01-05T13:48:30.934Z</time>
      </trkpt>
      <trkpt lat="43.18753" lon="2.54727">
        <ele>121.814493</ele>
        <time>2023-01-05T13:48:33.965Z</time>
      </trkpt>
      <trkpt lat="43.18753" lon="2.5474">
        <ele>121.738127</ele>
        <time>2023-01-05T13:48:36.960Z</time>
      </trkpt>
      <trkpt lat="43.18754" lon="2.54755">
        <ele>121.658247</ele>
        <time>2023-01-05T13:48:39.935Z</time>
      </trkpt>
      <trkpt lat="43.18755" lon="2.5477">
        <ele>121.572128</ele>
        <time>2023-01-05T13:48:42.942Z</time>
      </trkpt>
      <trkpt lat="43.18756" lon="2.54786">
        <ele>121.480732</ele>
        <time>2023-01-05T13:48:45.930Z</time>
      </trkpt>
      <trkpt lat="43.18758" lon="2.54804">
        <ele>121.525419</ele>
        <time>2023-01-05T13:48:48.959Z</time>
      </trkpt>
      <trkpt lat="43.18759" lon="2.54823">
        <ele>121.721906</ele>
        <time>2023-01-05T13:48:51.953Z</time>
      </trkpt>
      <trkpt lat="43.18761" lon="2.54841">
        <ele>121.915125</ele>
        <time>2023-01-05T13:48:54.951Z</time>
      </trkpt>
      <trkpt lat="43.18761" lon="2.54854">
        <ele>122.053354</ele>
        <time>2023-01-05T13:48:56.948Z</time>
      </trkpt>
      <trkpt lat="43.18762" lon="2.54868">
        <ele>122.191338</ele>
        <time>2023-01-05T13:48:58.955Z</time>
      </trkpt>
      <trkpt lat="43.18762" lon="2.54881">
        <ele>122.331321</ele>
        <time>2023-01-05T13:49:00.960Z</time>
      </trkpt>
      <trkpt lat="43.18761" lon="2.54894">
        <ele>122.469551</ele>
        <time>2023-01-05T13:49:02.950Z</time>
      </trkpt>
      <trkpt lat="43.18761" lon="2.54907">
        <ele>122.601274</ele>
        <time>2023-01-05T13:49:04.946Z</time>
      </trkpt>
      <trkpt lat="43.18761" lon="2.5492">
        <ele>122.734969</ele>
        <time>2023-01-05T13:49:06.959Z</time>
      </trkpt>
      <trkpt lat="43.18761" lon="2.54937">
        <ele>122.920927</ele>
        <time>2023-01-05T13:49:09.951Z</time>
      </trkpt>
      <trkpt lat="43.18759" lon="2.54955">
        <ele>123.10361</ele>
        <time>2023-01-05T13:49:12.947Z</time>
      </trkpt>
      <trkpt lat="43.18759" lon="2.5497">
        <ele>123.266768</ele>
        <time>2023-01-05T13:49:15.955Z</time>
      </trkpt>
      <trkpt lat="43.18758" lon="2.54983">
        <ele>123.401568</ele>
        <time>2023-01-05T13:49:18.946Z</time>
      </trkpt>
      <trkpt lat="43.18758" lon="2.54998">
        <ele>123.558292</ele>
        <time>2023-01-05T13:49:22.959Z</time>
      </trkpt>
      <trkpt lat="43.18758" lon="2.55011">
        <ele>123.691979</ele>
        <time>2023-01-05T13:49:25.961Z</time>
      </trkpt>
      <trkpt lat="43.18757" lon="2.55025">
        <ele>123.832526</ele>
        <time>2023-01-05T13:49:28.956Z</time>
      </trkpt>
      <trkpt lat="43.18756" lon="2.55038">
        <ele>123.975152</ele>
        <time>2023-01-05T13:49:31.953Z</time>
      </trkpt>
      <trkpt lat="43.18755" lon="2.55051">
        <ele>124.00634</ele>
        <time>2023-01-05T13:49:34.952Z</time>
      </trkpt>
      <trkpt lat="43.18754" lon="2.55065">
        <ele>124.003759</ele>
        <time>2023-01-05T13:49:38.948Z</time>
      </trkpt>
      <trkpt lat="43.18754" lon="2.55078">
        <ele>124.001408</ele>
        <time>2023-01-05T13:49:41.937Z</time>
      </trkpt>
      <trkpt lat="43.18754" lon="2.55092">
        <ele>123.998911</ele>
        <time>2023-01-05T13:49:44.948Z</time>
      </trkpt>
      <trkpt lat="43.18754" lon="2.55107">
        <ele>123.996233</ele>
        <time>2023-01-05T13:49:47.954Z</time>
      </trkpt>
      <trkpt lat="43.18755" lon="2.5512">
        <ele>123.993706</ele>
        <time>2023-01-05T13:49:50.963Z</time>
      </trkpt>
      <trkpt lat="43.18755" lon="2.55135">
        <ele>123.991083</ele>
        <time>2023-01-05T13:49:53.957Z</time>
      </trkpt>
      <trkpt lat="43.18756" lon="2.5515">
        <ele>123.988329</ele>
        <time>2023-01-05T13:49:56.959Z</time>
      </trkpt>
      <trkpt lat="43.18756" lon="2.55164">
        <ele>123.985685</ele>
        <time>2023-01-05T13:49:59.959Z</time>
      </trkpt>
      <trkpt lat="43.18757" lon="2.55178">
        <ele>123.983096</ele>
        <time>2023-01-05T13:50:02.947Z</time>
      </trkpt>
      <trkpt lat="43.18759" lon="2.55192">
        <ele>123.980663</ele>
        <time>2023-01-05T13:50:05.948Z</time>
      </trkpt>
      <trkpt lat="43.1876" lon="2.55205">
        <ele>123.978146</ele>
        <time>2023-01-05T13:50:08.933Z</time>
      </trkpt>
      <trkpt lat="43.18761" lon="2.5522">
        <ele>123.975417</ele>
        <time>2023-01-05T13:50:11.960Z</time>
      </trkpt>
      <trkpt lat="43.18762" lon="2.55236">
        <ele>123.972617</ele>
        <time>2023-01-05T13:50:14.953Z</time>
      </trkpt>
      <trkpt lat="43.18764" lon="2.55252">
        <ele>123.96965</ele>
        <time>2023-01-05T13:50:17.934Z</time>
      </trkpt>
      <trkpt lat="43.18765" lon="2.55271">
        <ele>123.966169</ele>
        <time>2023-01-05T13:50:20.931Z</time>
      </trkpt>
      <trkpt lat="43.18766" lon="2.55288">
        <ele>123.959245</ele>
        <time>2023-01-05T13:50:23.952Z</time>
      </trkpt>
      <trkpt lat="43.18767" lon="2.55306">
        <ele>123.858546</ele>
        <time>2023-01-05T13:50:26.952Z</time>
      </trkpt>
      <trkpt lat="43.18769" lon="2.55323">
        <ele>123.758315</ele>
        <time>2023-01-05T13:50:29.952Z</time>
      </trkpt>
      <trkpt lat="43.1877" lon="2.5534">
        <ele>123.660872</ele>
        <time>2023-01-05T13:50:32.960Z</time>
      </trkpt>
      <trkpt lat="43.18772" lon="2.55359">
        <ele>123.5572</ele>
        <time>2023-01-05T13:50:35.954Z</time>
      </trkpt>
      <trkpt lat="43.18773" lon="2.55371">
        <ele>123.487923</ele>
        <time>2023-01-05T13:50:37.929Z</time>
      </trkpt>
      <trkpt lat="43.18774" lon="2.55388">
        <ele>123.392013</ele>
        <time>2023-01-05T13:50:40.947Z</time>
      </trkpt>
      <trkpt lat="43.18775" lon="2.55405">
        <ele>123.297847</ele>
        <time>2023-01-05T13:50:43.958Z</time>
      </trkpt>
      <trkpt lat="43.18776" lon="2.55421">
        <ele>123.204306</ele>
        <time>2023-01-05T13:50:46.950Z</time>
      </trkpt>
      <trkpt lat="43.18777" lon="2.5544">
        <ele>123.101176</ele>
        <time>2023-01-05T13:50:49.958Z</time>
      </trkpt>
      <trkpt lat="43.18778" lon="2.55458">
        <ele>122.9955</ele>
        <time>2023-01-05T13:50:52.938Z</time>
      </trkpt>
      <trkpt lat="43.18777" lon="2.55471">
        <ele>122.924587</ele>
        <time>2023-01-05T13:50:54.948Z</time>
      </trkpt>
      <trkpt lat="43.18776" lon="2.55484">
        <ele>122.853074</ele>
        <time>2023-01-05T13:50:56.951Z</time>
      </trkpt>
      <trkpt lat="43.18775" lon="2.55502">
        <ele>122.748138</ele>
        <time>2023-01-05T13:50:59.948Z</time>
      </trkpt>
      <trkpt lat="43.18772" lon="2.55521">
        <ele>122.639471</ele>
        <time>2023-01-05T13:51:02.929Z</time>
      </trkpt>
      <trkpt lat="43.18771" lon="2.55536">
        <ele>122.485786</ele>
        <time>2023-01-05T13:51:04.952Z</time>
      </trkpt>
      <trkpt lat="43.18771" lon="2.55551">
        <ele>122.117794</ele>
        <time>2023-01-05T13:51:06.957Z</time>
      </trkpt>
      <trkpt lat="43.18772" lon="2.55567">
        <ele>121.714296</ele>
        <time>2023-01-05T13:51:08.933Z</time>
      </trkpt>
      <trkpt lat="43.18772" lon="2.55583">
        <ele>121.308146</ele>
        <time>2023-01-05T13:51:10.951Z</time>
      </trkpt>
      <trkpt lat="43.18773" lon="2.55599">
        <ele>120.893634</ele>
        <time>2023-01-05T13:51:12.936Z</time>
      </trkpt>
      <trkpt lat="43.18774" lon="2.55616">
        <ele>120.46215</ele>
        <time>2023-01-05T13:51:14.938Z</time>
      </trkpt>
      <trkpt lat="43.18775" lon="2.55634">
        <ele>120.011277</ele>
        <time>2023-01-05T13:51:16.951Z</time>
      </trkpt>
      <trkpt lat="43.18775" lon="2.55652">
        <ele>119.547527</ele>
        <time>2023-01-05T13:51:18.957Z</time>
      </trkpt>
      <trkpt lat="43.18776" lon="2.5567">
        <ele>119.09842</ele>
        <time>2023-01-05T13:51:20.928Z</time>
      </trkpt>
      <trkpt lat="43.18776" lon="2.55687">
        <ele>118.672475</ele>
        <time>2023-01-05T13:51:22.937Z</time>
      </trkpt>
      <trkpt lat="43.18775" lon="2.55702">
        <ele>118.301915</ele>
        <time>2023-01-05T13:51:24.933Z</time>
      </trkpt>
      <trkpt lat="43.18776" lon="2.55714">
        <ele>117.986697</ele>
        <time>2023-01-05T13:51:26.947Z</time>
      </trkpt>
      <trkpt lat="43.18776" lon="2.55728">
        <ele>117.651468</ele>
        <time>2023-01-05T13:51:28.932Z</time>
      </trkpt>
      <trkpt lat="43.18776" lon="2.55741">
        <ele>117.313666</ele>
        <time>2023-01-05T13:51:30.947Z</time>
      </trkpt>
      <trkpt lat="43.18776" lon="2.55755">
        <ele>116.970877</ele>
        <time>2023-01-05T13:51:32.930Z</time>
      </trkpt>
      <trkpt lat="43.18776" lon="2.55769">
        <ele>116.595277</ele>
        <time>2023-01-05T13:51:34.948Z</time>
      </trkpt>
      <trkpt lat="43.18777" lon="2.55784">
        <ele>116.349817</ele>
        <time>2023-01-05T13:51:36.942Z</time>
      </trkpt>
      <trkpt lat="43.18777" lon="2.55799">
        <ele>116.32409</ele>
        <time>2023-01-05T13:51:38.935Z</time>
      </trkpt>
      <trkpt lat="43.18777" lon="2.55815">
        <ele>116.296461</ele>
        <time>2023-01-05T13:51:40.959Z</time>
      </trkpt>
      <trkpt lat="43.18777" lon="2.55831">
        <ele>116.269186</ele>
        <time>2023-01-05T13:51:42.960Z</time>
      </trkpt>
      <trkpt lat="43.18778" lon="2.55848">
        <ele>116.241043</ele>
        <time>2023-01-05T13:51:44.940Z</time>
      </trkpt>
      <trkpt lat="43.18778" lon="2.55864">
        <ele>116.213365</ele>
        <time>2023-01-05T13:51:46.955Z</time>
      </trkpt>
      <trkpt lat="43.18778" lon="2.5588">
        <ele>116.185751</ele>
        <time>2023-01-05T13:51:48.947Z</time>
      </trkpt>
      <trkpt lat="43.18778" lon="2.55896">
        <ele>116.158481</ele>
        <time>2023-01-05T13:51:50.960Z</time>
      </trkpt>
      <trkpt lat="43.18778" lon="2.55913">
        <ele>116.128972</ele>
        <time>2023-01-05T13:51:52.951Z</time>
      </trkpt>
      <trkpt lat="43.18777" lon="2.55931">
        <ele>116.098825</ele>
        <time>2023-01-05T13:51:54.934Z</time>
      </trkpt>
      <trkpt lat="43.18776" lon="2.55948">
        <ele>116.069094</ele>
        <time>2023-01-05T13:51:56.933Z</time>
      </trkpt>
      <trkpt lat="43.18775" lon="2.55965">
        <ele>116.039035</ele>
        <time>2023-01-05T13:51:58.932Z</time>
      </trkpt>
      <trkpt lat="43.18774" lon="2.55982">
        <ele>116.010176</ele>
        <time>2023-01-05T13:52:00.941Z</time>
      </trkpt>
      <trkpt lat="43.18773" lon="2.56">
        <ele>115.979402</ele>
        <time>2023-01-05T13:52:02.955Z</time>
      </trkpt>
      <trkpt lat="43.18772" lon="2.56018">
        <ele>115.948473</ele>
        <time>2023-01-05T13:52:04.949Z</time>
      </trkpt>
      <trkpt lat="43.18771" lon="2.56036">
        <ele>115.93976</ele>
        <time>2023-01-05T13:52:06.936Z</time>
      </trkpt>
      <trkpt lat="43.18771" lon="2.56055">
        <ele>115.945253</ele>
        <time>2023-01-05T13:52:08.960Z</time>
      </trkpt>
      <trkpt lat="43.1877" lon="2.56072">
        <ele>115.950659</ele>
        <time>2023-01-05T13:52:10.936Z</time>
      </trkpt>
      <trkpt lat="43.18769" lon="2.5609">
        <ele>115.956109</ele>
        <time>2023-01-05T13:52:12.961Z</time>
      </trkpt>
      <trkpt lat="43.18768" lon="2.56109">
        <ele>115.961834</ele>
        <time>2023-01-05T13:52:14.952Z</time>
      </trkpt>
      <trkpt lat="43.18768" lon="2.56128">
        <ele>115.967541</ele>
        <time>2023-01-05T13:52:16.961Z</time>
      </trkpt>
      <trkpt lat="43.18767" lon="2.56146">
        <ele>115.9731</ele>
        <time>2023-01-05T13:52:18.964Z</time>
      </trkpt>
      <trkpt lat="43.18766" lon="2.56164">
        <ele>115.978566</ele>
        <time>2023-01-05T13:52:20.938Z</time>
      </trkpt>
      <trkpt lat="43.18766" lon="2.56181">
        <ele>115.983815</ele>
        <time>2023-01-05T13:52:22.958Z</time>
      </trkpt>
      <trkpt lat="43.18765" lon="2.56198">
        <ele>115.988962</ele>
        <time>2023-01-05T13:52:24.945Z</time>
      </trkpt>
      <trkpt lat="43.18764" lon="2.56215">
        <ele>115.994061</ele>
        <time>2023-01-05T13:52:26.943Z</time>
      </trkpt>
      <trkpt lat="43.18763" lon="2.56232">
        <ele>115.999252</ele>
        <time>2023-01-05T13:52:28.950Z</time>
      </trkpt>
      <trkpt lat="43.18763" lon="2.56248">
        <ele>116.00411</ele>
        <time>2023-01-05T13:52:30.948Z</time>
      </trkpt>
      <trkpt lat="43.18762" lon="2.56264">
        <ele>116.009003</ele>
        <time>2023-01-05T13:52:32.938Z</time>
      </trkpt>
      <trkpt lat="43.18761" lon="2.5628">
        <ele>116.065417</ele>
        <time>2023-01-05T13:52:34.938Z</time>
      </trkpt>
      <trkpt lat="43.1876" lon="2.56297">
        <ele>116.160761</ele>
        <time>2023-01-05T13:52:36.951Z</time>
      </trkpt>
      <trkpt lat="43.1876" lon="2.56313">
        <ele>116.25944</ele>
        <time>2023-01-05T13:52:38.965Z</time>
      </trkpt>
      <trkpt lat="43.1876" lon="2.5633">
        <ele>116.356381</ele>
        <time>2023-01-05T13:52:40.951Z</time>
      </trkpt>
      <trkpt lat="43.18758" lon="2.56347">
        <ele>116.454416</ele>
        <time>2023-01-05T13:52:42.945Z</time>
      </trkpt>
      <trkpt lat="43.18758" lon="2.56363">
        <ele>116.550771</ele>
        <time>2023-01-05T13:52:44.950Z</time>
      </trkpt>
      <trkpt lat="43.18757" lon="2.56379">
        <ele>116.645395</ele>
        <time>2023-01-05T13:52:46.947Z</time>
      </trkpt>
      <trkpt lat="43.18758" lon="2.56396">
        <ele>116.745809</ele>
        <time>2023-01-05T13:52:48.946Z</time>
      </trkpt>
      <trkpt lat="43.18756" lon="2.56413">
        <ele>116.843447</ele>
        <time>2023-01-05T13:52:50.934Z</time>
      </trkpt>
      <trkpt lat="43.18755" lon="2.5643">
        <ele>116.945877</ele>
        <time>2023-01-05T13:52:52.951Z</time>
      </trkpt>
      <trkpt lat="43.18755" lon="2.56447">
        <ele>117.043365</ele>
        <time>2023-01-05T13:52:54.935Z</time>
      </trkpt>
      <trkpt lat="43.18755" lon="2.56463">
        <ele>117.140843</ele>
        <time>2023-01-05T13:52:56.953Z</time>
      </trkpt>
      <trkpt lat="43.18755" lon="2.56478">
        <ele>117.227195</ele>
        <time>2023-01-05T13:52:58.947Z</time>
      </trkpt>
      <trkpt lat="43.18753" lon="2.56492">
        <ele>117.311135</ele>
        <time>2023-01-05T13:53:00.956Z</time>
      </trkpt>
      <trkpt lat="43.18752" lon="2.56506">
        <ele>117.393326</ele>
        <time>2023-01-05T13:53:02.949Z</time>
      </trkpt>
      <trkpt lat="43.18749" lon="2.56519">
        <ele>117.449618</ele>
        <time>2023-01-05T13:53:04.931Z</time>
      </trkpt>
      <trkpt lat="43.18744" lon="2.56531">
        <ele>117.394452</ele>
        <time>2023-01-05T13:53:06.938Z</time>
      </trkpt>
      <trkpt lat="43.18738" lon="2.56541">
        <ele>117.342164</ele>
        <time>2023-01-05T13:53:08.946Z</time>
      </trkpt>
      <trkpt lat="43.18734" lon="2.56553">
        <ele>117.290548</ele>
        <time>2023-01-05T13:53:10.962Z</time>
      </trkpt>
      <trkpt lat="43.18735" lon="2.56567">
        <ele>117.235687</ele>
        <time>2023-01-05T13:53:12.932Z</time>
      </trkpt>
      <trkpt lat="43.18739" lon="2.5658">
        <ele>117.182372</ele>
        <time>2023-01-05T13:53:14.930Z</time>
      </trkpt>
      <trkpt lat="43.18745" lon="2.56591">
        <ele>117.128316</ele>
        <time>2023-01-05T13:53:16.938Z</time>
      </trkpt>
      <trkpt lat="43.18747" lon="2.56605">
        <ele>117.072372</ele>
        <time>2023-01-05T13:53:18.934Z</time>
      </trkpt>
      <trkpt lat="43.18747" lon="2.5662">
        <ele>117.014256</ele>
        <time>2023-01-05T13:53:20.950Z</time>
      </trkpt>
      <trkpt lat="43.18748" lon="2.56635">
        <ele>116.954819</ele>
        <time>2023-01-05T13:53:22.940Z</time>
      </trkpt>
      <trkpt lat="43.18748" lon="2.5665">
        <ele>116.896321</ele>
        <time>2023-01-05T13:53:24.951Z</time>
      </trkpt>
      <trkpt lat="43.18747" lon="2.56665">
        <ele>116.835006</ele>
        <time>2023-01-05T13:53:26.934Z</time>
      </trkpt>
      <trkpt lat="43.18747" lon="2.5668">
        <ele>116.776</ele>
        <time>2023-01-05T13:53:28.959Z</time>
      </trkpt>
      <trkpt lat="43.18746" lon="2.56696">
        <ele>116.714264</ele>
        <time>2023-01-05T13:53:30.959Z</time>
      </trkpt>
      <trkpt lat="43.18745" lon="2.56711">
        <ele>116.654568</ele>
        <time>2023-01-05T13:53:32.945Z</time>
      </trkpt>
      <trkpt lat="43.18744" lon="2.56726">
        <ele>116.592802</ele>
        <time>2023-01-05T13:53:34.948Z</time>
      </trkpt>
      <trkpt lat="43.18743" lon="2.56742">
        <ele>116.53064</ele>
        <time>2023-01-05T13:53:36.950Z</time>
      </trkpt>
      <trkpt lat="43.18743" lon="2.56757">
        <ele>116.501672</ele>
        <time>2023-01-05T13:53:38.948Z</time>
      </trkpt>
      <trkpt lat="43.18743" lon="2.56771">
        <ele>116.576501</ele>
        <time>2023-01-05T13:53:40.926Z</time>
      </trkpt>
      <trkpt lat="43.18742" lon="2.56787">
        <ele>116.655905</ele>
        <time>2023-01-05T13:53:42.952Z</time>
      </trkpt>
      <trkpt lat="43.18741" lon="2.56802">
        <ele>116.734947</ele>
        <time>2023-01-05T13:53:44.951Z</time>
      </trkpt>
      <trkpt lat="43.18741" lon="2.56818">
        <ele>116.813802</ele>
        <time>2023-01-05T13:53:46.951Z</time>
      </trkpt>
      <trkpt lat="43.18741" lon="2.56833">
        <ele>116.890676</ele>
        <time>2023-01-05T13:53:48.952Z</time>
      </trkpt>
      <trkpt lat="43.1874" lon="2.56848">
        <ele>116.969569</ele>
        <time>2023-01-05T13:53:50.932Z</time>
      </trkpt>
      <trkpt lat="43.18739" lon="2.56864">
        <ele>117.049174</ele>
        <time>2023-01-05T13:53:52.950Z</time>
      </trkpt>
      <trkpt lat="43.18738" lon="2.56879">
        <ele>117.130432</ele>
        <time>2023-01-05T13:53:54.943Z</time>
      </trkpt>
      <trkpt lat="43.18737" lon="2.56896">
        <ele>117.21356</ele>
        <time>2023-01-05T13:53:56.957Z</time>
      </trkpt>
      <trkpt lat="43.18736" lon="2.56911">
        <ele>117.294309</ele>
        <time>2023-01-05T13:53:58.955Z</time>
      </trkpt>
      <trkpt lat="43.18735" lon="2.56927">
        <ele>117.374424</ele>
        <time>2023-01-05T13:54:00.959Z</time>
      </trkpt>
      <trkpt lat="43.18735" lon="2.56942">
        <ele>117.453009</ele>
        <time>2023-01-05T13:54:02.931Z</time>
      </trkpt>
      <trkpt lat="43.18734" lon="2.56957">
        <ele>117.531494</ele>
        <time>2023-01-05T13:54:04.959Z</time>
      </trkpt>
      <trkpt lat="43.18733" lon="2.56973">
        <ele>117.611511</ele>
        <time>2023-01-05T13:54:06.962Z</time>
      </trkpt>
      <trkpt lat="43.18733" lon="2.56989">
        <ele>117.690977</ele>
        <time>2023-01-05T13:54:08.952Z</time>
      </trkpt>
      <trkpt lat="43.18732" lon="2.57004">
        <ele>117.789918</ele>
        <time>2023-01-05T13:54:10.949Z</time>
      </trkpt>
      <trkpt lat="43.18731" lon="2.57019">
        <ele>117.935221</ele>
        <time>2023-01-05T13:54:12.957Z</time>
      </trkpt>
      <trkpt lat="43.18731" lon="2.57035">
        <ele>118.087087</ele>
        <time>2023-01-05T13:54:14.960Z</time>
      </trkpt>
      <trkpt lat="43.1873" lon="2.5705">
        <ele>118.239069</ele>
        <time>2023-01-05T13:54:16.962Z</time>
      </trkpt>
      <trkpt lat="43.18729" lon="2.57065">
        <ele>118.383261</ele>
        <time>2023-01-05T13:54:18.940Z</time>
      </trkpt>
      <trkpt lat="43.1873" lon="2.57081">
        <ele>118.53504</ele>
        <time>2023-01-05T13:54:20.951Z</time>
      </trkpt>
      <trkpt lat="43.18729" lon="2.57095">
        <ele>118.672415</ele>
        <time>2023-01-05T13:54:22.960Z</time>
      </trkpt>
      <trkpt lat="43.18729" lon="2.5711">
        <ele>118.812745</ele>
        <time>2023-01-05T13:54:24.960Z</time>
      </trkpt>
      <trkpt lat="43.18728" lon="2.57124">
        <ele>118.951213</ele>
        <time>2023-01-05T13:54:26.968Z</time>
      </trkpt>
      <trkpt lat="43.18727" lon="2.57138">
        <ele>119.090823</ele>
        <time>2023-01-05T13:54:28.962Z</time>
      </trkpt>
      <trkpt lat="43.18727" lon="2.57152">
        <ele>119.223587</ele>
        <time>2023-01-05T13:54:30.936Z</time>
      </trkpt>
      <trkpt lat="43.18726" lon="2.57165">
        <ele>119.353559</ele>
        <time>2023-01-05T13:54:32.947Z</time>
      </trkpt>
      <trkpt lat="43.18726" lon="2.57179">
        <ele>119.488925</ele>
        <time>2023-01-05T13:54:34.952Z</time>
      </trkpt>
      <trkpt lat="43.18726" lon="2.57192">
        <ele>119.611761</ele>
        <time>2023-01-05T13:54:36.957Z</time>
      </trkpt>
      <trkpt lat="43.18726" lon="2.57206">
        <ele>119.749264</ele>
        <time>2023-01-05T13:54:38.935Z</time>
      </trkpt>
      <trkpt lat="43.18725" lon="2.57221">
        <ele>119.886851</ele>
        <time>2023-01-05T13:54:40.953Z</time>
      </trkpt>
      <trkpt lat="43.18724" lon="2.57235">
        <ele>120.027924</ele>
        <time>2023-01-05T13:54:42.947Z</time>
      </trkpt>
      <trkpt lat="43.18724" lon="2.57249">
        <ele>120.167452</ele>
        <time>2023-01-05T13:54:44.957Z</time>
      </trkpt>
      <trkpt lat="43.18723" lon="2.57264">
        <ele>120.329592</ele>
        <time>2023-01-05T13:54:46.956Z</time>
      </trkpt>
      <trkpt lat="43.18722" lon="2.57279">
        <ele>120.492381</ele>
        <time>2023-01-05T13:54:48.960Z</time>
      </trkpt>
      <trkpt lat="43.18722" lon="2.57293">
        <ele>120.653933</ele>
        <time>2023-01-05T13:54:50.965Z</time>
      </trkpt>
      <trkpt lat="43.18721" lon="2.57308">
        <ele>120.811441</ele>
        <time>2023-01-05T13:54:52.951Z</time>
      </trkpt>
      <trkpt lat="43.18721" lon="2.57321">
        <ele>120.957575</ele>
        <time>2023-01-05T13:54:54.956Z</time>
      </trkpt>
      <trkpt lat="43.18721" lon="2.57334">
        <ele>121.098157</ele>
        <time>2023-01-05T13:54:56.952Z</time>
      </trkpt>
      <trkpt lat="43.1872" lon="2.57347">
        <ele>121.247584</ele>
        <time>2023-01-05T13:54:58.952Z</time>
      </trkpt>
      <trkpt lat="43.1872" lon="2.57362">
        <ele>121.405758</ele>
        <time>2023-01-05T13:55:00.941Z</time>
      </trkpt>
      <trkpt lat="43.18719" lon="2.57377">
        <ele>121.569733</ele>
        <time>2023-01-05T13:55:02.949Z</time>
      </trkpt>
      <trkpt lat="43.18719" lon="2.57391">
        <ele>121.733542</ele>
        <time>2023-01-05T13:55:04.954Z</time>
      </trkpt>
      <trkpt lat="43.18718" lon="2.57407">
        <ele>121.90254</ele>
        <time>2023-01-05T13:55:06.958Z</time>
      </trkpt>
      <trkpt lat="43.18716" lon="2.57422">
        <ele>122.067729</ele>
        <time>2023-01-05T13:55:08.951Z</time>
      </trkpt>
      <trkpt lat="43.18715" lon="2.57437">
        <ele>122.23315</ele>
        <time>2023-01-05T13:55:10.961Z</time>
      </trkpt>
      <trkpt lat="43.18713" lon="2.57452">
        <ele>122.400352</ele>
        <time>2023-01-05T13:55:12.958Z</time>
      </trkpt>
      <trkpt lat="43.18711" lon="2.57466">
        <ele>122.562706</ele>
        <time>2023-01-05T13:55:14.963Z</time>
      </trkpt>
      <trkpt lat="43.18709" lon="2.57481">
        <ele>122.72342</ele>
        <time>2023-01-05T13:55:16.954Z</time>
      </trkpt>
      <trkpt lat="43.18707" lon="2.57494">
        <ele>122.861473</ele>
        <time>2023-01-05T13:55:18.950Z</time>
      </trkpt>
      <trkpt lat="43.18705" lon="2.57507">
        <ele>122.939975</ele>
        <time>2023-01-05T13:55:20.955Z</time>
      </trkpt>
      <trkpt lat="43.18703" lon="2.5752">
        <ele>123.017328</ele>
        <time>2023-01-05T13:55:22.954Z</time>
      </trkpt>
      <trkpt lat="43.18701" lon="2.57534">
        <ele>123.098022</ele>
        <time>2023-01-05T13:55:24.957Z</time>
      </trkpt>
      <trkpt lat="43.18699" lon="2.57547">
        <ele>123.175468</ele>
        <time>2023-01-05T13:55:26.961Z</time>
      </trkpt>
      <trkpt lat="43.18697" lon="2.5756">
        <ele>123.253136</ele>
        <time>2023-01-05T13:55:28.950Z</time>
      </trkpt>
      <trkpt lat="43.18695" lon="2.57572">
        <ele>123.327779</ele>
        <time>2023-01-05T13:55:30.959Z</time>
      </trkpt>
      <trkpt lat="43.18693" lon="2.57586">
        <ele>123.40733</ele>
        <time>2023-01-05T13:55:32.949Z</time>
      </trkpt>
      <trkpt lat="43.18691" lon="2.57599">
        <ele>123.486003</ele>
        <time>2023-01-05T13:55:34.953Z</time>
      </trkpt>
      <trkpt lat="43.18689" lon="2.57613">
        <ele>123.567801</ele>
        <time>2023-01-05T13:55:36.958Z</time>
      </trkpt>
      <trkpt lat="43.18686" lon="2.57626">
        <ele>123.650735</ele>
        <time>2023-01-05T13:55:38.941Z</time>
      </trkpt>
      <trkpt lat="43.18684" lon="2.5764">
        <ele>123.732171</ele>
        <time>2023-01-05T13:55:40.949Z</time>
      </trkpt>
      <trkpt lat="43.18681" lon="2.57654">
        <ele>123.816471</ele>
        <time>2023-01-05T13:55:42.957Z</time>
      </trkpt>
      <trkpt lat="43.18679" lon="2.57668">
        <ele>123.903051</ele>
        <time>2023-01-05T13:55:44.957Z</time>
      </trkpt>
      <trkpt lat="43.18677" lon="2.57683">
        <ele>123.988084</ele>
        <time>2023-01-05T13:55:46.954Z</time>
      </trkpt>
      <trkpt lat="43.18674" lon="2.57697">
        <ele>124.075206</ele>
        <time>2023-01-05T13:55:48.960Z</time>
      </trkpt>
      <trkpt lat="43.18671" lon="2.57711">
        <ele>124.160992</ele>
        <time>2023-01-05T13:55:50.962Z</time>
      </trkpt>
      <trkpt lat="43.18669" lon="2.57726">
        <ele>124.249801</ele>
        <time>2023-01-05T13:55:52.957Z</time>
      </trkpt>
      <trkpt lat="43.18667" lon="2.5774">
        <ele>124.325184</ele>
        <time>2023-01-05T13:55:54.950Z</time>
      </trkpt>
      <trkpt lat="43.18664" lon="2.57756">
        <ele>124.401047</ele>
        <time>2023-01-05T13:55:56.950Z</time>
      </trkpt>
      <trkpt lat="43.18662" lon="2.5777">
        <ele>124.471637</ele>
        <time>2023-01-05T13:55:58.949Z</time>
      </trkpt>
      <trkpt lat="43.1866" lon="2.57783">
        <ele>124.536873</ele>
        <time>2023-01-05T13:56:00.953Z</time>
      </trkpt>
      <trkpt lat="43.18657" lon="2.57796">
        <ele>124.601585</ele>
        <time>2023-01-05T13:56:02.950Z</time>
      </trkpt>
      <trkpt lat="43.18655" lon="2.5781">
        <ele>124.668823</ele>
        <time>2023-01-05T13:56:04.958Z</time>
      </trkpt>
      <trkpt lat="43.18653" lon="2.57823">
        <ele>124.733879</ele>
        <time>2023-01-05T13:56:06.958Z</time>
      </trkpt>
      <trkpt lat="43.1865" lon="2.57837">
        <ele>124.802184</ele>
        <time>2023-01-05T13:56:08.960Z</time>
      </trkpt>
      <trkpt lat="43.18648" lon="2.57852">
        <ele>124.872164</ele>
        <time>2023-01-05T13:56:10.948Z</time>
      </trkpt>
      <trkpt lat="43.18646" lon="2.57865">
        <ele>124.936556</ele>
        <time>2023-01-05T13:56:12.947Z</time>
      </trkpt>
      <trkpt lat="43.18644" lon="2.57879">
        <ele>125.00614</ele>
        <time>2023-01-05T13:56:14.955Z</time>
      </trkpt>
      <trkpt lat="43.18641" lon="2.57893">
        <ele>125.074093</ele>
        <time>2023-01-05T13:56:16.947Z</time>
      </trkpt>
      <trkpt lat="43.18639" lon="2.57907">
        <ele>125.143298</ele>
        <time>2023-01-05T13:56:18.954Z</time>
      </trkpt>
      <trkpt lat="43.18637" lon="2.57922">
        <ele>125.214642</ele>
        <time>2023-01-05T13:56:20.961Z</time>
      </trkpt>
      <trkpt lat="43.18634" lon="2.57936">
        <ele>125.28616</ele>
        <time>2023-01-05T13:56:22.942Z</time>
      </trkpt>
      <trkpt lat="43.18632" lon="2.5795">
        <ele>125.356338</ele>
        <time>2023-01-05T13:56:24.963Z</time>
      </trkpt>
      <trkpt lat="43.1863" lon="2.57965">
        <ele>125.427395</ele>
        <time>2023-01-05T13:56:26.945Z</time>
      </trkpt>
      <trkpt lat="43.18627" lon="2.5798">
        <ele>125.557729</ele>
        <time>2023-01-05T13:56:28.951Z</time>
      </trkpt>
      <trkpt lat="43.18625" lon="2.57994">
        <ele>125.743475</ele>
        <time>2023-01-05T13:56:30.959Z</time>
      </trkpt>
      <trkpt lat="43.18622" lon="2.58009">
        <ele>125.925554</ele>
        <time>2023-01-05T13:56:32.949Z</time>
      </trkpt>
      <trkpt lat="43.18619" lon="2.58023">
        <ele>126.109677</ele>
        <time>2023-01-05T13:56:34.943Z</time>
      </trkpt>
      <trkpt lat="43.18618" lon="2.58038">
        <ele>126.296269</ele>
        <time>2023-01-05T13:56:36.959Z</time>
      </trkpt>
      <trkpt lat="43.18615" lon="2.58052">
        <ele>126.479967</ele>
        <time>2023-01-05T13:56:38.951Z</time>
      </trkpt>
      <trkpt lat="43.18613" lon="2.58067">
        <ele>126.666921</ele>
        <time>2023-01-05T13:56:40.936Z</time>
      </trkpt>
      <trkpt lat="43.1861" lon="2.58082">
        <ele>126.851002</ele>
        <time>2023-01-05T13:56:42.950Z</time>
      </trkpt>
      <trkpt lat="43.18608" lon="2.58096">
        <ele>127.036748</ele>
        <time>2023-01-05T13:56:44.951Z</time>
      </trkpt>
      <trkpt lat="43.18606" lon="2.58112">
        <ele>127.230958</ele>
        <time>2023-01-05T13:56:46.959Z</time>
      </trkpt>
      <trkpt lat="43.18604" lon="2.58126">
        <ele>127.412387</ele>
        <time>2023-01-05T13:56:48.957Z</time>
      </trkpt>
      <trkpt lat="43.18601" lon="2.58141">
        <ele>127.60207</ele>
        <time>2023-01-05T13:56:50.949Z</time>
      </trkpt>
      <trkpt lat="43.18599" lon="2.58156">
        <ele>127.786258</ele>
        <time>2023-01-05T13:56:52.958Z</time>
      </trkpt>
      <trkpt lat="43.18596" lon="2.5817">
        <ele>127.967139</ele>
        <time>2023-01-05T13:56:54.955Z</time>
      </trkpt>
      <trkpt lat="43.18594" lon="2.58185">
        <ele>128.152423</ele>
        <time>2023-01-05T13:56:56.948Z</time>
      </trkpt>
      <trkpt lat="43.18592" lon="2.58199">
        <ele>128.33143</ele>
        <time>2023-01-05T13:56:58.953Z</time>
      </trkpt>
      <trkpt lat="43.1859" lon="2.58213">
        <ele>128.505846</ele>
        <time>2023-01-05T13:57:00.952Z</time>
      </trkpt>
      <trkpt lat="43.18588" lon="2.58226">
        <ele>128.662778</ele>
        <time>2023-01-05T13:57:02.951Z</time>
      </trkpt>
      <trkpt lat="43.18586" lon="2.5824">
        <ele>128.816645</ele>
        <time>2023-01-05T13:57:04.967Z</time>
      </trkpt>
      <trkpt lat="43.18583" lon="2.58253">
        <ele>128.970271</ele>
        <time>2023-01-05T13:57:06.959Z</time>
      </trkpt>
      <trkpt lat="43.18582" lon="2.58266">
        <ele>129.122248</ele>
        <time>2023-01-05T13:57:08.967Z</time>
      </trkpt>
      <trkpt lat="43.1858" lon="2.58279">
        <ele>129.273389</ele>
        <time>2023-01-05T13:57:10.957Z</time>
      </trkpt>
      <trkpt lat="43.18578" lon="2.58292">
        <ele>129.423752</ele>
        <time>2023-01-05T13:57:12.961Z</time>
      </trkpt>
      <trkpt lat="43.18575" lon="2.58305">
        <ele>129.577011</ele>
        <time>2023-01-05T13:57:14.961Z</time>
      </trkpt>
      <trkpt lat="43.18573" lon="2.58318">
        <ele>129.72706</ele>
        <time>2023-01-05T13:57:16.954Z</time>
      </trkpt>
      <trkpt lat="43.18571" lon="2.58331">
        <ele>129.872358</ele>
        <time>2023-01-05T13:57:18.964Z</time>
      </trkpt>
      <trkpt lat="43.18569" lon="2.58344">
        <ele>130.023499</ele>
        <time>2023-01-05T13:57:20.935Z</time>
      </trkpt>
      <trkpt lat="43.18566" lon="2.58356">
        <ele>130.171803</ele>
        <time>2023-01-05T13:57:22.959Z</time>
      </trkpt>
      <trkpt lat="43.18564" lon="2.5837">
        <ele>130.325812</ele>
        <time>2023-01-05T13:57:24.961Z</time>
      </trkpt>
      <trkpt lat="43.18562" lon="2.58383">
        <ele>130.476518</ele>
        <time>2023-01-05T13:57:26.953Z</time>
      </trkpt>
      <trkpt lat="43.18559" lon="2.58396">
        <ele>130.631627</ele>
        <time>2023-01-05T13:57:28.959Z</time>
      </trkpt>
      <trkpt lat="43.18557" lon="2.58409">
        <ele>130.783874</ele>
        <time>2023-01-05T13:57:30.959Z</time>
      </trkpt>
      <trkpt lat="43.18555" lon="2.58422">
        <ele>130.93534</ele>
        <time>2023-01-05T13:57:32.952Z</time>
      </trkpt>
      <trkpt lat="43.18553" lon="2.58436">
        <ele>131.08728</ele>
        <time>2023-01-05T13:57:34.955Z</time>
      </trkpt>
      <trkpt lat="43.18551" lon="2.58449">
        <ele>131.238716</ele>
        <time>2023-01-05T13:57:36.952Z</time>
      </trkpt>
      <trkpt lat="43.18548" lon="2.58461">
        <ele>131.44369</ele>
        <time>2023-01-05T13:57:38.949Z</time>
      </trkpt>
      <trkpt lat="43.18546" lon="2.58474">
        <ele>131.683489</ele>
        <time>2023-01-05T13:57:40.956Z</time>
      </trkpt>
      <trkpt lat="43.18544" lon="2.58487">
        <ele>131.920536</ele>
        <time>2023-01-05T13:57:42.958Z</time>
      </trkpt>
      <trkpt lat="43.18541" lon="2.585">
        <ele>132.164965</ele>
        <time>2023-01-05T13:57:44.964Z</time>
      </trkpt>
      <trkpt lat="43.18539" lon="2.58513">
        <ele>132.405296</ele>
        <time>2023-01-05T13:57:46.959Z</time>
      </trkpt>
      <trkpt lat="43.18538" lon="2.58525">
        <ele>132.638753</ele>
        <time>2023-01-05T13:57:48.956Z</time>
      </trkpt>
      <trkpt lat="43.18535" lon="2.58538">
        <ele>132.870269</ele>
        <time>2023-01-05T13:57:50.965Z</time>
      </trkpt>
      <trkpt lat="43.18533" lon="2.5855">
        <ele>133.108291</ele>
        <time>2023-01-05T13:57:52.961Z</time>
      </trkpt>
      <trkpt lat="43.1853" lon="2.58568">
        <ele>133.439389</ele>
        <time>2023-01-05T13:57:55.954Z</time>
      </trkpt>
      <trkpt lat="43.18528" lon="2.58586">
        <ele>133.76997</ele>
        <time>2023-01-05T13:57:58.964Z</time>
      </trkpt>
      <trkpt lat="43.18526" lon="2.58598">
        <ele>133.995359</ele>
        <time>2023-01-05T13:58:00.959Z</time>
      </trkpt>
      <trkpt lat="43.18524" lon="2.58611">
        <ele>134.225249</ele>
        <time>2023-01-05T13:58:02.950Z</time>
      </trkpt>
      <trkpt lat="43.18522" lon="2.58623">
        <ele>134.450304</ele>
        <time>2023-01-05T13:58:04.960Z</time>
      </trkpt>
      <trkpt lat="43.18521" lon="2.58635">
        <ele>134.682051</ele>
        <time>2023-01-05T13:58:06.934Z</time>
      </trkpt>
      <trkpt lat="43.18519" lon="2.58648">
        <ele>134.915509</ele>
        <time>2023-01-05T13:58:08.963Z</time>
      </trkpt>
      <trkpt lat="43.18517" lon="2.58664">
        <ele>135.218863</ele>
        <time>2023-01-05T13:58:11.962Z</time>
      </trkpt>
      <trkpt lat="43.18517" lon="2.58679">
        <ele>135.484378</ele>
        <time>2023-01-05T13:58:14.942Z</time>
      </trkpt>
      <trkpt lat="43.18516" lon="2.58694">
        <ele>135.760067</ele>
        <time>2023-01-05T13:58:17.954Z</time>
      </trkpt>
      <trkpt lat="43.18515" lon="2.5871">
        <ele>135.848382</ele>
        <time>2023-01-05T13:58:20.954Z</time>
      </trkpt>
      <trkpt lat="43.18515" lon="2.58726">
        <ele>135.920021</ele>
        <time>2023-01-05T13:58:23.937Z</time>
      </trkpt>
      <trkpt lat="43.18516" lon="2.58742">
        <ele>135.989936</ele>
        <time>2023-01-05T13:58:26.951Z</time>
      </trkpt>
      <trkpt lat="43.18517" lon="2.58759">
        <ele>136.06395</ele>
        <time>2023-01-05T13:58:29.952Z</time>
      </trkpt>
      <trkpt lat="43.18517" lon="2.58776">
        <ele>136.139258</ele>
        <time>2023-01-05T13:58:32.939Z</time>
      </trkpt>
      <trkpt lat="43.18518" lon="2.58792">
        <ele>136.212476</ele>
        <time>2023-01-05T13:58:35.956Z</time>
      </trkpt>
      <trkpt lat="43.1852" lon="2.58808">
        <ele>136.28653</ele>
        <time>2023-01-05T13:58:38.950Z</time>
      </trkpt>
      <trkpt lat="43.18522" lon="2.58826">
        <ele>136.365685</ele>
        <time>2023-01-05T13:58:41.937Z</time>
      </trkpt>
      <trkpt lat="43.18524" lon="2.58844">
        <ele>136.448196</ele>
        <time>2023-01-05T13:58:44.950Z</time>
      </trkpt>
      <trkpt lat="43.18526" lon="2.58857">
        <ele>136.50685</ele>
        <time>2023-01-05T13:58:46.950Z</time>
      </trkpt>
      <trkpt lat="43.18528" lon="2.5887">
        <ele>136.566657</ele>
        <time>2023-01-05T13:58:48.958Z</time>
      </trkpt>
      <trkpt lat="43.1853" lon="2.58883">
        <ele>136.625332</ele>
        <time>2023-01-05T13:58:50.936Z</time>
      </trkpt>
      <trkpt lat="43.18533" lon="2.58897">
        <ele>136.689315</ele>
        <time>2023-01-05T13:58:52.951Z</time>
      </trkpt>
      <trkpt lat="43.18536" lon="2.58912">
        <ele>136.756114</ele>
        <time>2023-01-05T13:58:54.949Z</time>
      </trkpt>
      <trkpt lat="43.18539" lon="2.58926">
        <ele>136.823088</ele>
        <time>2023-01-05T13:58:56.951Z</time>
      </trkpt>
      <trkpt lat="43.18542" lon="2.5894">
        <ele>136.825201</ele>
        <time>2023-01-05T13:58:58.956Z</time>
      </trkpt>
      <trkpt lat="43.18546" lon="2.58955">
        <ele>136.502247</ele>
        <time>2023-01-05T13:59:00.950Z</time>
      </trkpt>
      <trkpt lat="43.1855" lon="2.5897">
        <ele>136.163752</ele>
        <time>2023-01-05T13:59:02.942Z</time>
      </trkpt>
      <trkpt lat="43.18555" lon="2.58986">
        <ele>135.807206</ele>
        <time>2023-01-05T13:59:04.953Z</time>
      </trkpt>
      <trkpt lat="43.1856" lon="2.59002">
        <ele>135.443814</ele>
        <time>2023-01-05T13:59:06.939Z</time>
      </trkpt>
      <trkpt lat="43.18565" lon="2.59017">
        <ele>135.093938</ele>
        <time>2023-01-05T13:59:08.955Z</time>
      </trkpt>
      <trkpt lat="43.1857" lon="2.59033">
        <ele>134.733808</ele>
        <time>2023-01-05T13:59:10.928Z</time>
      </trkpt>
      <trkpt lat="43.18575" lon="2.59049">
        <ele>134.378303</ele>
        <time>2023-01-05T13:59:12.953Z</time>
      </trkpt>
      <trkpt lat="43.18581" lon="2.59066">
        <ele>134.001992</ele>
        <time>2023-01-05T13:59:14.950Z</time>
      </trkpt>
      <trkpt lat="43.18586" lon="2.59083">
        <ele>133.603981</ele>
        <time>2023-01-05T13:59:16.952Z</time>
      </trkpt>
      <trkpt lat="43.18593" lon="2.59101">
        <ele>133.197438</ele>
        <time>2023-01-05T13:59:18.957Z</time>
      </trkpt>
      <trkpt lat="43.18598" lon="2.59119">
        <ele>132.781172</ele>
        <time>2023-01-05T13:59:20.959Z</time>
      </trkpt>
      <trkpt lat="43.18605" lon="2.59139">
        <ele>132.339002</ele>
        <time>2023-01-05T13:59:22.957Z</time>
      </trkpt>
      <trkpt lat="43.18611" lon="2.59157">
        <ele>131.907462</ele>
        <time>2023-01-05T13:59:24.950Z</time>
      </trkpt>
      <trkpt lat="43.18617" lon="2.59177">
        <ele>131.505098</ele>
        <time>2023-01-05T13:59:26.933Z</time>
      </trkpt>
      <trkpt lat="43.18623" lon="2.59197">
        <ele>131.110935</ele>
        <time>2023-01-05T13:59:28.956Z</time>
      </trkpt>
      <trkpt lat="43.1863" lon="2.59217">
        <ele>130.70898</ele>
        <time>2023-01-05T13:59:30.936Z</time>
      </trkpt>
      <trkpt lat="43.18636" lon="2.59237">
        <ele>130.30101</ele>
        <time>2023-01-05T13:59:32.952Z</time>
      </trkpt>
      <trkpt lat="43.18644" lon="2.59258">
        <ele>129.884463</ele>
        <time>2023-01-05T13:59:34.958Z</time>
      </trkpt>
      <trkpt lat="43.18651" lon="2.59279">
        <ele>129.452596</ele>
        <time>2023-01-05T13:59:36.951Z</time>
      </trkpt>
      <trkpt lat="43.18658" lon="2.593">
        <ele>129.038613</ele>
        <time>2023-01-05T13:59:38.949Z</time>
      </trkpt>
      <trkpt lat="43.18664" lon="2.59321">
        <ele>128.614219</ele>
        <time>2023-01-05T13:59:40.962Z</time>
      </trkpt>
      <trkpt lat="43.18671" lon="2.59343">
        <ele>128.190488</ele>
        <time>2023-01-05T13:59:42.951Z</time>
      </trkpt>
      <trkpt lat="43.18678" lon="2.59364">
        <ele>127.77643</ele>
        <time>2023-01-05T13:59:44.958Z</time>
      </trkpt>
      <trkpt lat="43.18685" lon="2.59384">
        <ele>127.360785</ele>
        <time>2023-01-05T13:59:46.958Z</time>
      </trkpt>
      <trkpt lat="43.18691" lon="2.59405">
        <ele>127.256438</ele>
        <time>2023-01-05T13:59:48.958Z</time>
      </trkpt>
      <trkpt lat="43.18697" lon="2.59425">
        <ele>127.254257</ele>
        <time>2023-01-05T13:59:50.951Z</time>
      </trkpt>
      <trkpt lat="43.18704" lon="2.59445">
        <ele>127.252138</ele>
        <time>2023-01-05T13:59:52.953Z</time>
      </trkpt>
      <trkpt lat="43.1871" lon="2.59464">
        <ele>127.25009</ele>
        <time>2023-01-05T13:59:54.950Z</time>
      </trkpt>
      <trkpt lat="43.18717" lon="2.59483">
        <ele>127.248079</ele>
        <time>2023-01-05T13:59:56.958Z</time>
      </trkpt>
      <trkpt lat="43.18723" lon="2.59502">
        <ele>127.246047</ele>
        <time>2023-01-05T13:59:58.950Z</time>
      </trkpt>
      <trkpt lat="43.18729" lon="2.5952">
        <ele>127.244115</ele>
        <time>2023-01-05T14:00:00.961Z</time>
      </trkpt>
      <trkpt lat="43.18735" lon="2.59538">
        <ele>127.242155</ele>
        <time>2023-01-05T14:00:02.935Z</time>
      </trkpt>
      <trkpt lat="43.18741" lon="2.59557">
        <ele>127.240196</ele>
        <time>2023-01-05T14:00:04.954Z</time>
      </trkpt>
      <trkpt lat="43.18746" lon="2.59574">
        <ele>127.238311</ele>
        <time>2023-01-05T14:00:06.935Z</time>
      </trkpt>
      <trkpt lat="43.18752" lon="2.59593">
        <ele>127.236349</ele>
        <time>2023-01-05T14:00:08.960Z</time>
      </trkpt>
      <trkpt lat="43.18758" lon="2.59611">
        <ele>127.23437</ele>
        <time>2023-01-05T14:00:10.946Z</time>
      </trkpt>
      <trkpt lat="43.18765" lon="2.59629">
        <ele>127.366714</ele>
        <time>2023-01-05T14:00:12.959Z</time>
      </trkpt>
      <trkpt lat="43.18771" lon="2.59648">
        <ele>127.531211</ele>
        <time>2023-01-05T14:00:14.934Z</time>
      </trkpt>
      <trkpt lat="43.18776" lon="2.59666">
        <ele>127.68958</ele>
        <time>2023-01-05T14:00:16.961Z</time>
      </trkpt>
      <trkpt lat="43.18782" lon="2.59683">
        <ele>127.846493</ele>
        <time>2023-01-05T14:00:18.962Z</time>
      </trkpt>
      <trkpt lat="43.18787" lon="2.59701">
        <ele>127.999636</ele>
        <time>2023-01-05T14:00:20.934Z</time>
      </trkpt>
      <trkpt lat="43.18793" lon="2.59717">
        <ele>128.145952</ele>
        <time>2023-01-05T14:00:22.952Z</time>
      </trkpt>
      <trkpt lat="43.18798" lon="2.59734">
        <ele>128.295964</ele>
        <time>2023-01-05T14:00:24.952Z</time>
      </trkpt>
      <trkpt lat="43.18803" lon="2.5975">
        <ele>128.444161</ele>
        <time>2023-01-05T14:00:26.959Z</time>
      </trkpt>
      <trkpt lat="43.18809" lon="2.59768">
        <ele>128.597629</ele>
        <time>2023-01-05T14:00:28.963Z</time>
      </trkpt>
      <trkpt lat="43.18814" lon="2.59785">
        <ele>128.755401</ele>
        <time>2023-01-05T14:00:30.948Z</time>
      </trkpt>
      <trkpt lat="43.1882" lon="2.59803">
        <ele>128.911368</ele>
        <time>2023-01-05T14:00:32.956Z</time>
      </trkpt>
      <trkpt lat="43.18826" lon="2.59821">
        <ele>129.073173</ele>
        <time>2023-01-05T14:00:34.968Z</time>
      </trkpt>
      <trkpt lat="43.18831" lon="2.59839">
        <ele>129.23303</ele>
        <time>2023-01-05T14:00:36.957Z</time>
      </trkpt>
      <trkpt lat="43.18837" lon="2.59857">
        <ele>129.068988</ele>
        <time>2023-01-05T14:00:38.944Z</time>
      </trkpt>
      <trkpt lat="43.18842" lon="2.59874">
        <ele>128.875724</ele>
        <time>2023-01-05T14:00:40.949Z</time>
      </trkpt>
      <trkpt lat="43.18848" lon="2.59892">
        <ele>128.673683</ele>
        <time>2023-01-05T14:00:42.957Z</time>
      </trkpt>
      <trkpt lat="43.18854" lon="2.5991">
        <ele>128.470512</ele>
        <time>2023-01-05T14:00:44.956Z</time>
      </trkpt>
      <trkpt lat="43.1886" lon="2.59927">
        <ele>128.278989</ele>
        <time>2023-01-05T14:00:46.948Z</time>
      </trkpt>
      <trkpt lat="43.18865" lon="2.59944">
        <ele>128.087235</ele>
        <time>2023-01-05T14:00:48.938Z</time>
      </trkpt>
      <trkpt lat="43.1887" lon="2.59961">
        <ele>127.899802</ele>
        <time>2023-01-05T14:00:50.961Z</time>
      </trkpt>
      <trkpt lat="43.18876" lon="2.59978">
        <ele>127.711281</ele>
        <time>2023-01-05T14:00:52.958Z</time>
      </trkpt>
      <trkpt lat="43.18881" lon="2.59994">
        <ele>127.531771</ele>
        <time>2023-01-05T14:00:54.958Z</time>
      </trkpt>
      <trkpt lat="43.18886" lon="2.6001">
        <ele>127.353937</ele>
        <time>2023-01-05T14:00:56.957Z</time>
      </trkpt>
      <trkpt lat="43.18891" lon="2.60025">
        <ele>127.175128</ele>
        <time>2023-01-05T14:00:58.961Z</time>
      </trkpt>
      <trkpt lat="43.18897" lon="2.60041">
        <ele>126.995713</ele>
        <time>2023-01-05T14:01:00.954Z</time>
      </trkpt>
      <trkpt lat="43.18902" lon="2.60058">
        <ele>126.805853</ele>
        <time>2023-01-05T14:01:02.935Z</time>
      </trkpt>
      <trkpt lat="43.18908" lon="2.60076">
        <ele>126.590885</ele>
        <time>2023-01-05T14:01:04.960Z</time>
      </trkpt>
      <trkpt lat="43.18914" lon="2.60093">
        <ele>126.359248</ele>
        <time>2023-01-05T14:01:06.940Z</time>
      </trkpt>
      <trkpt lat="43.1892" lon="2.60111">
        <ele>126.11815</ele>
        <time>2023-01-05T14:01:08.957Z</time>
      </trkpt>
      <trkpt lat="43.18926" lon="2.60129">
        <ele>125.876351</ele>
        <time>2023-01-05T14:01:10.954Z</time>
      </trkpt>
      <trkpt lat="43.18932" lon="2.60148">
        <ele>125.628412</ele>
        <time>2023-01-05T14:01:12.962Z</time>
      </trkpt>
      <trkpt lat="43.18938" lon="2.60167">
        <ele>125.374072</ele>
        <time>2023-01-05T14:01:14.959Z</time>
      </trkpt>
      <trkpt lat="43.18945" lon="2.60187">
        <ele>125.115612</ele>
        <time>2023-01-05T14:01:16.963Z</time>
      </trkpt>
      <trkpt lat="43.18951" lon="2.60206">
        <ele>124.861927</ele>
        <time>2023-01-05T14:01:18.956Z</time>
      </trkpt>
      <trkpt lat="43.18957" lon="2.60225">
        <ele>124.611116</ele>
        <time>2023-01-05T14:01:20.966Z</time>
      </trkpt>
      <trkpt lat="43.18963" lon="2.60244">
        <ele>124.356956</ele>
        <time>2023-01-05T14:01:22.961Z</time>
      </trkpt>
      <trkpt lat="43.1897" lon="2.60264">
        <ele>124.08794</ele>
        <time>2023-01-05T14:01:24.958Z</time>
      </trkpt>
      <trkpt lat="43.18977" lon="2.60284">
        <ele>123.82496</ele>
        <time>2023-01-05T14:01:26.963Z</time>
      </trkpt>
      <trkpt lat="43.18983" lon="2.60304">
        <ele>123.550705</ele>
        <time>2023-01-05T14:01:28.960Z</time>
      </trkpt>
      <trkpt lat="43.18989" lon="2.60323">
        <ele>123.277533</ele>
        <time>2023-01-05T14:01:30.951Z</time>
      </trkpt>
      <trkpt lat="43.18995" lon="2.60342">
        <ele>123.002847</ele>
        <time>2023-01-05T14:01:32.948Z</time>
      </trkpt>
      <trkpt lat="43.19001" lon="2.60362">
        <ele>122.722459</ele>
        <time>2023-01-05T14:01:34.963Z</time>
      </trkpt>
      <trkpt lat="43.19008" lon="2.60381">
        <ele>122.445137</ele>
        <time>2023-01-05T14:01:36.963Z</time>
      </trkpt>
      <trkpt lat="43.19014" lon="2.604">
        <ele>122.166184</ele>
        <time>2023-01-05T14:01:38.961Z</time>
      </trkpt>
      <trkpt lat="43.19021" lon="2.6042">
        <ele>121.885294</ele>
        <time>2023-01-05T14:01:40.945Z</time>
      </trkpt>
      <trkpt lat="43.19027" lon="2.60439">
        <ele>121.611397</ele>
        <time>2023-01-05T14:01:42.956Z</time>
      </trkpt>
      <trkpt lat="43.19033" lon="2.60458">
        <ele>121.332545</ele>
        <time>2023-01-05T14:01:44.948Z</time>
      </trkpt>
      <trkpt lat="43.1904" lon="2.60477">
        <ele>121.057168</ele>
        <time>2023-01-05T14:01:46.959Z</time>
      </trkpt>
      <trkpt lat="43.19045" lon="2.60496">
        <ele>120.789906</ele>
        <time>2023-01-05T14:01:48.949Z</time>
      </trkpt>
      <trkpt lat="43.19052" lon="2.60515">
        <ele>120.524789</ele>
        <time>2023-01-05T14:01:50.949Z</time>
      </trkpt>
      <trkpt lat="43.19057" lon="2.60533">
        <ele>120.54924</ele>
        <time>2023-01-05T14:01:52.954Z</time>
      </trkpt>
      <trkpt lat="43.19062" lon="2.60551">
        <ele>120.598235</ele>
        <time>2023-01-05T14:01:54.967Z</time>
      </trkpt>
      <trkpt lat="43.19068" lon="2.60569">
        <ele>120.646217</ele>
        <time>2023-01-05T14:01:56.960Z</time>
      </trkpt>
      <trkpt lat="43.19074" lon="2.60587">
        <ele>120.6956</ele>
        <time>2023-01-05T14:01:58.959Z</time>
      </trkpt>
      <trkpt lat="43.19079" lon="2.60606">
        <ele>120.744984</ele>
        <time>2023-01-05T14:02:00.932Z</time>
      </trkpt>
      <trkpt lat="43.19085" lon="2.60625">
        <ele>120.796356</ele>
        <time>2023-01-05T14:02:02.944Z</time>
      </trkpt>
      <trkpt lat="43.19091" lon="2.60644">
        <ele>120.847667</ele>
        <time>2023-01-05T14:02:04.945Z</time>
      </trkpt>
      <trkpt lat="43.19096" lon="2.60664">
        <ele>120.899544</ele>
        <time>2023-01-05T14:02:06.957Z</time>
      </trkpt>
      <trkpt lat="43.19102" lon="2.60683">
        <ele>120.950718</ele>
        <time>2023-01-05T14:02:08.953Z</time>
      </trkpt>
      <trkpt lat="43.19106" lon="2.60702">
        <ele>121.000405</ele>
        <time>2023-01-05T14:02:10.941Z</time>
      </trkpt>
      <trkpt lat="43.19111" lon="2.60722">
        <ele>121.051737</ele>
        <time>2023-01-05T14:02:12.938Z</time>
      </trkpt>
      <trkpt lat="43.19116" lon="2.60741">
        <ele>121.100732</ele>
        <time>2023-01-05T14:02:14.961Z</time>
      </trkpt>
      <trkpt lat="43.19121" lon="2.60759">
        <ele>121.340929</ele>
        <time>2023-01-05T14:02:16.961Z</time>
      </trkpt>
      <trkpt lat="43.19125" lon="2.60778">
        <ele>121.643721</ele>
        <time>2023-01-05T14:02:18.964Z</time>
      </trkpt>
      <trkpt lat="43.1913" lon="2.60795">
        <ele>121.935956</ele>
        <time>2023-01-05T14:02:20.939Z</time>
      </trkpt>
      <trkpt lat="43.19134" lon="2.60813">
        <ele>122.22414</ele>
        <time>2023-01-05T14:02:22.953Z</time>
      </trkpt>
      <trkpt lat="43.19137" lon="2.60829">
        <ele>122.4988</ele>
        <time>2023-01-05T14:02:24.954Z</time>
      </trkpt>
      <trkpt lat="43.19141" lon="2.60846">
        <ele>122.774562</ele>
        <time>2023-01-05T14:02:26.962Z</time>
      </trkpt>
      <trkpt lat="43.19144" lon="2.60862">
        <ele>123.032807</ele>
        <time>2023-01-05T14:02:28.950Z</time>
      </trkpt>
      <trkpt lat="43.19148" lon="2.60877">
        <ele>123.28559</ele>
        <time>2023-01-05T14:02:30.963Z</time>
      </trkpt>
      <trkpt lat="43.1915" lon="2.60892">
        <ele>123.531501</ele>
        <time>2023-01-05T14:02:32.965Z</time>
      </trkpt>
      <trkpt lat="43.19153" lon="2.60907">
        <ele>123.763598</ele>
        <time>2023-01-05T14:02:34.956Z</time>
      </trkpt>
      <trkpt lat="43.19156" lon="2.60921">
        <ele>123.998753</ele>
        <time>2023-01-05T14:02:36.966Z</time>
      </trkpt>
      <trkpt lat="43.19158" lon="2.60935">
        <ele>124.219675</ele>
        <time>2023-01-05T14:02:38.967Z</time>
      </trkpt>
      <trkpt lat="43.1916" lon="2.60948">
        <ele>124.432444</ele>
        <time>2023-01-05T14:02:40.967Z</time>
      </trkpt>
      <trkpt lat="43.19162" lon="2.60961">
        <ele>124.641129</ele>
        <time>2023-01-05T14:02:42.952Z</time>
      </trkpt>
      <trkpt lat="43.19164" lon="2.60974">
        <ele>124.857656</ele>
        <time>2023-01-05T14:02:44.957Z</time>
      </trkpt>
      <trkpt lat="43.19166" lon="2.60987">
        <ele>125.065937</ele>
        <time>2023-01-05T14:02:46.953Z</time>
      </trkpt>
      <trkpt lat="43.19169" lon="2.60999">
        <ele>125.252829</ele>
        <time>2023-01-05T14:02:48.953Z</time>
      </trkpt>
      <trkpt lat="43.1917" lon="2.61012">
        <ele>125.446255</ele>
        <time>2023-01-05T14:02:50.935Z</time>
      </trkpt>
      <trkpt lat="43.19172" lon="2.61025">
        <ele>125.646755</ele>
        <time>2023-01-05T14:02:52.963Z</time>
      </trkpt>
      <trkpt lat="43.19175" lon="2.61043">
        <ele>125.93002</ele>
        <time>2023-01-05T14:02:55.939Z</time>
      </trkpt>
      <trkpt lat="43.19178" lon="2.6106">
        <ele>126.193711</ele>
        <time>2023-01-05T14:02:58.951Z</time>
      </trkpt>
      <trkpt lat="43.19181" lon="2.61077">
        <ele>126.464214</ele>
        <time>2023-01-05T14:03:01.952Z</time>
      </trkpt>
      <trkpt lat="43.19183" lon="2.61096">
        <ele>126.74835</ele>
        <time>2023-01-05T14:03:04.961Z</time>
      </trkpt>
      <trkpt lat="43.19185" lon="2.61109">
        <ele>126.949656</ele>
        <time>2023-01-05T14:03:06.948Z</time>
      </trkpt>
      <trkpt lat="43.19186" lon="2.61122">
        <ele>127.152793</ele>
        <time>2023-01-05T14:03:08.953Z</time>
      </trkpt>
      <trkpt lat="43.19188" lon="2.61135">
        <ele>127.352285</ele>
        <time>2023-01-05T14:03:10.961Z</time>
      </trkpt>
      <trkpt lat="43.19189" lon="2.61149">
        <ele>127.562913</ele>
        <time>2023-01-05T14:03:12.955Z</time>
      </trkpt>
      <trkpt lat="43.19191" lon="2.61162">
        <ele>127.763906</ele>
        <time>2023-01-05T14:03:14.949Z</time>
      </trkpt>
      <trkpt lat="43.19192" lon="2.61175">
        <ele>127.965597</ele>
        <time>2023-01-05T14:03:16.961Z</time>
      </trkpt>
      <trkpt lat="43.19193" lon="2.61189">
        <ele>128.173936</ele>
        <time>2023-01-05T14:03:18.948Z</time>
      </trkpt>
      <trkpt lat="43.19195" lon="2.61202">
        <ele>128.384245</ele>
        <time>2023-01-05T14:03:20.956Z</time>
      </trkpt>
      <trkpt lat="43.19196" lon="2.61216">
        <ele>128.595481</ele>
        <time>2023-01-05T14:03:22.963Z</time>
      </trkpt>
      <trkpt lat="43.19197" lon="2.6123">
        <ele>128.744287</ele>
        <time>2023-01-05T14:03:24.957Z</time>
      </trkpt>
      <trkpt lat="43.19199" lon="2.61245">
        <ele>128.744068</ele>
        <time>2023-01-05T14:03:26.953Z</time>
      </trkpt>
      <trkpt lat="43.19199" lon="2.61259">
        <ele>128.743853</ele>
        <time>2023-01-05T14:03:28.953Z</time>
      </trkpt>
      <trkpt lat="43.19201" lon="2.61273">
        <ele>128.743636</ele>
        <time>2023-01-05T14:03:30.946Z</time>
      </trkpt>
      <trkpt lat="43.19202" lon="2.61288">
        <ele>128.743409</ele>
        <time>2023-01-05T14:03:32.962Z</time>
      </trkpt>
      <trkpt lat="43.19202" lon="2.61303">
        <ele>128.743178</ele>
        <time>2023-01-05T14:03:34.963Z</time>
      </trkpt>
      <trkpt lat="43.19203" lon="2.61318">
        <ele>128.74295</ele>
        <time>2023-01-05T14:03:36.951Z</time>
      </trkpt>
      <trkpt lat="43.19205" lon="2.61332">
        <ele>128.742732</ele>
        <time>2023-01-05T14:03:38.956Z</time>
      </trkpt>
      <trkpt lat="43.19206" lon="2.61348">
        <ele>128.742486</ele>
        <time>2023-01-05T14:03:40.961Z</time>
      </trkpt>
      <trkpt lat="43.19207" lon="2.61364">
        <ele>128.742242</ele>
        <time>2023-01-05T14:03:42.963Z</time>
      </trkpt>
      <trkpt lat="43.19208" lon="2.6138">
        <ele>128.742003</ele>
        <time>2023-01-05T14:03:44.956Z</time>
      </trkpt>
      <trkpt lat="43.19208" lon="2.61397">
        <ele>128.741741</ele>
        <time>2023-01-05T14:03:46.941Z</time>
      </trkpt>
      <trkpt lat="43.19208" lon="2.61414">
        <ele>128.741486</ele>
        <time>2023-01-05T14:03:48.935Z</time>
      </trkpt>
      <trkpt lat="43.19209" lon="2.61431">
        <ele>128.741231</ele>
        <time>2023-01-05T14:03:50.960Z</time>
      </trkpt>
      <trkpt lat="43.19209" lon="2.61448">
        <ele>128.740974</ele>
        <time>2023-01-05T14:03:52.959Z</time>
      </trkpt>
      <trkpt lat="43.1921" lon="2.61466">
        <ele>128.740707</ele>
        <time>2023-01-05T14:03:54.953Z</time>
      </trkpt>
      <trkpt lat="43.1921" lon="2.61483">
        <ele>128.580735</ele>
        <time>2023-01-05T14:03:56.960Z</time>
      </trkpt>
      <trkpt lat="43.1921" lon="2.61501">
        <ele>128.326207</ele>
        <time>2023-01-05T14:03:58.952Z</time>
      </trkpt>
      <trkpt lat="43.19211" lon="2.6152">
        <ele>128.061736</ele>
        <time>2023-01-05T14:04:00.953Z</time>
      </trkpt>
      <trkpt lat="43.19211" lon="2.61538">
        <ele>127.798729</ele>
        <time>2023-01-05T14:04:02.936Z</time>
      </trkpt>
      <trkpt lat="43.19211" lon="2.61558">
        <ele>127.521642</ele>
        <time>2023-01-05T14:04:04.951Z</time>
      </trkpt>
      <trkpt lat="43.19211" lon="2.61578">
        <ele>127.240294</ele>
        <time>2023-01-05T14:04:06.951Z</time>
      </trkpt>
      <trkpt lat="43.19211" lon="2.61598">
        <ele>126.960326</ele>
        <time>2023-01-05T14:04:08.951Z</time>
      </trkpt>
      <trkpt lat="43.19211" lon="2.61619">
        <ele>126.657775</ele>
        <time>2023-01-05T14:04:10.930Z</time>
      </trkpt>
      <trkpt lat="43.19211" lon="2.61641">
        <ele>126.342502</ele>
        <time>2023-01-05T14:04:12.956Z</time>
      </trkpt>
      <trkpt lat="43.19211" lon="2.61663">
        <ele>126.035735</ele>
        <time>2023-01-05T14:04:14.951Z</time>
      </trkpt>
      <trkpt lat="43.19211" lon="2.61686">
        <ele>125.714831</ele>
        <time>2023-01-05T14:04:16.958Z</time>
      </trkpt>
      <trkpt lat="43.19211" lon="2.6171">
        <ele>125.376958</ele>
        <time>2023-01-05T14:04:18.957Z</time>
      </trkpt>
      <trkpt lat="43.19211" lon="2.61734">
        <ele>124.968559</ele>
        <time>2023-01-05T14:04:20.953Z</time>
      </trkpt>
      <trkpt lat="43.19211" lon="2.61747">
        <ele>124.744108</ele>
        <time>2023-01-05T14:04:21.966Z</time>
      </trkpt>
      <trkpt lat="43.19212" lon="2.6176">
        <ele>124.505179</ele>
        <time>2023-01-05T14:04:22.934Z</time>
      </trkpt>
      <trkpt lat="43.19211" lon="2.61772">
        <ele>124.28247</ele>
        <time>2023-01-05T14:04:23.955Z</time>
      </trkpt>
      <trkpt lat="43.19212" lon="2.61785">
        <ele>124.050785</ele>
        <time>2023-01-05T14:04:24.957Z</time>
      </trkpt>
      <trkpt lat="43.19212" lon="2.61798">
        <ele>123.815561</ele>
        <time>2023-01-05T14:04:25.954Z</time>
      </trkpt>
      <trkpt lat="43.19212" lon="2.61812">
        <ele>123.569515</ele>
        <time>2023-01-05T14:04:26.954Z</time>
      </trkpt>
      <trkpt lat="43.19212" lon="2.61826">
        <ele>123.323517</ele>
        <time>2023-01-05T14:04:27.950Z</time>
      </trkpt>
      <trkpt lat="43.19212" lon="2.61839">
        <ele>123.088293</ele>
        <time>2023-01-05T14:04:28.949Z</time>
      </trkpt>
      <trkpt lat="43.19212" lon="2.61853">
        <ele>122.838693</ele>
        <time>2023-01-05T14:04:29.958Z</time>
      </trkpt>
      <trkpt lat="43.19212" lon="2.61866">
        <ele>122.594478</ele>
        <time>2023-01-05T14:04:30.946Z</time>
      </trkpt>
      <trkpt lat="43.19211" lon="2.6188">
        <ele>122.346245</ele>
        <time>2023-01-05T14:04:31.961Z</time>
      </trkpt>
      <trkpt lat="43.19211" lon="2.61894">
        <ele>122.10005</ele>
        <time>2023-01-05T14:04:32.959Z</time>
      </trkpt>
      <trkpt lat="43.19211" lon="2.61908">
        <ele>121.846823</ele>
        <time>2023-01-05T14:04:33.952Z</time>
      </trkpt>
      <trkpt lat="43.19211" lon="2.61922">
        <ele>121.589863</ele>
        <time>2023-01-05T14:04:34.952Z</time>
      </trkpt>
      <trkpt lat="43.19211" lon="2.61937">
        <ele>121.331284</ele>
        <time>2023-01-05T14:04:35.961Z</time>
      </trkpt>
      <trkpt lat="43.19211" lon="2.61951">
        <ele>121.07091</ele>
        <time>2023-01-05T14:04:36.955Z</time>
      </trkpt>
      <trkpt lat="43.19211" lon="2.61966">
        <ele>120.815136</ele>
        <time>2023-01-05T14:04:37.953Z</time>
      </trkpt>
      <trkpt lat="43.19211" lon="2.6198">
        <ele>120.587121</ele>
        <time>2023-01-05T14:04:38.958Z</time>
      </trkpt>
      <trkpt lat="43.1921" lon="2.61994">
        <ele>120.357481</ele>
        <time>2023-01-05T14:04:39.960Z</time>
      </trkpt>
      <trkpt lat="43.19211" lon="2.62009">
        <ele>120.126246</ele>
        <time>2023-01-05T14:04:40.955Z</time>
      </trkpt>
      <trkpt lat="43.19211" lon="2.62024">
        <ele>119.890259</ele>
        <time>2023-01-05T14:04:41.968Z</time>
      </trkpt>
      <trkpt lat="43.19211" lon="2.62039">
        <ele>119.647895</ele>
        <time>2023-01-05T14:04:42.930Z</time>
      </trkpt>
      <trkpt lat="43.19211" lon="2.62054">
        <ele>119.40873</ele>
        <time>2023-01-05T14:04:43.936Z</time>
      </trkpt>
      <trkpt lat="43.19211" lon="2.62069">
        <ele>119.172753</ele>
        <time>2023-01-05T14:04:44.937Z</time>
      </trkpt>
      <trkpt lat="43.19211" lon="2.62084">
        <ele>118.925606</ele>
        <time>2023-01-05T14:04:45.937Z</time>
      </trkpt>
      <trkpt lat="43.19211" lon="2.62099">
        <ele>118.680023</ele>
        <time>2023-01-05T14:04:46.963Z</time>
      </trkpt>
      <trkpt lat="43.19211" lon="2.62114">
        <ele>118.442362</ele>
        <time>2023-01-05T14:04:47.952Z</time>
      </trkpt>
      <trkpt lat="43.19211" lon="2.6213">
        <ele>118.198403</ele>
        <time>2023-01-05T14:04:48.952Z</time>
      </trkpt>
      <trkpt lat="43.19212" lon="2.62145">
        <ele>117.949585</ele>
        <time>2023-01-05T14:04:49.963Z</time>
      </trkpt>
      <trkpt lat="43.19212" lon="2.62161">
        <ele>117.705636</ele>
        <time>2023-01-05T14:04:50.935Z</time>
      </trkpt>
      <trkpt lat="43.19212" lon="2.62176">
        <ele>117.463124</ele>
        <time>2023-01-05T14:04:51.939Z</time>
      </trkpt>
      <trkpt lat="43.19212" lon="2.62191">
        <ele>117.219018</ele>
        <time>2023-01-05T14:04:52.937Z</time>
      </trkpt>
      <trkpt lat="43.19212" lon="2.62206">
        <ele>116.978248</ele>
        <time>2023-01-05T14:04:53.963Z</time>
      </trkpt>
      <trkpt lat="43.19212" lon="2.62221">
        <ele>116.799742</ele>
        <time>2023-01-05T14:04:54.932Z</time>
      </trkpt>
      <trkpt lat="43.19212" lon="2.62235">
        <ele>116.650329</ele>
        <time>2023-01-05T14:04:55.947Z</time>
      </trkpt>
      <trkpt lat="43.19212" lon="2.6225">
        <ele>116.503984</ele>
        <time>2023-01-05T14:04:56.962Z</time>
      </trkpt>
      <trkpt lat="43.19212" lon="2.62265">
        <ele>116.351522</ele>
        <time>2023-01-05T14:04:57.964Z</time>
      </trkpt>
      <trkpt lat="43.19213" lon="2.6228">
        <ele>116.198013</ele>
        <time>2023-01-05T14:04:58.958Z</time>
      </trkpt>
      <trkpt lat="43.19213" lon="2.62294">
        <ele>116.051615</ele>
        <time>2023-01-05T14:04:59.951Z</time>
      </trkpt>
      <trkpt lat="43.19213" lon="2.62308">
        <ele>115.906233</ele>
        <time>2023-01-05T14:05:00.935Z</time>
      </trkpt>
      <trkpt lat="43.19213" lon="2.62323">
        <ele>115.75684</ele>
        <time>2023-01-05T14:05:01.953Z</time>
      </trkpt>
      <trkpt lat="43.19213" lon="2.62338">
        <ele>115.60643</ele>
        <time>2023-01-05T14:05:02.967Z</time>
      </trkpt>
      <trkpt lat="43.19213" lon="2.62352">
        <ele>115.459049</ele>
        <time>2023-01-05T14:05:03.963Z</time>
      </trkpt>
      <trkpt lat="43.19212" lon="2.62367">
        <ele>115.315698</ele>
        <time>2023-01-05T14:05:04.948Z</time>
      </trkpt>
      <trkpt lat="43.19213" lon="2.62381">
        <ele>115.1693</ele>
        <time>2023-01-05T14:05:05.960Z</time>
      </trkpt>
      <trkpt lat="43.19213" lon="2.62395">
        <ele>115.023971</ele>
        <time>2023-01-05T14:05:06.955Z</time>
      </trkpt>
      <trkpt lat="43.19213" lon="2.6241">
        <ele>114.878623</ele>
        <time>2023-01-05T14:05:07.946Z</time>
      </trkpt>
      <trkpt lat="43.19212" lon="2.62423">
        <ele>114.740302</ele>
        <time>2023-01-05T14:05:08.936Z</time>
      </trkpt>
      <trkpt lat="43.19212" lon="2.62437">
        <ele>114.598028</ele>
        <time>2023-01-05T14:05:09.962Z</time>
      </trkpt>
      <trkpt lat="43.19212" lon="2.62451">
        <ele>114.460829</ele>
        <time>2023-01-05T14:05:10.948Z</time>
      </trkpt>
      <trkpt lat="43.19212" lon="2.62464">
        <ele>114.359487</ele>
        <time>2023-01-05T14:05:11.965Z</time>
      </trkpt>
      <trkpt lat="43.19211" lon="2.62477">
        <ele>114.304837</ele>
        <time>2023-01-05T14:05:12.962Z</time>
      </trkpt>
      <trkpt lat="43.19211" lon="2.6249">
        <ele>114.252718</ele>
        <time>2023-01-05T14:05:13.931Z</time>
      </trkpt>
      <trkpt lat="43.19211" lon="2.62503">
        <ele>114.200189</ele>
        <time>2023-01-05T14:05:14.954Z</time>
      </trkpt>
      <trkpt lat="43.19211" lon="2.62516">
        <ele>114.145612</ele>
        <time>2023-01-05T14:05:15.957Z</time>
      </trkpt>
      <trkpt lat="43.19212" lon="2.62529">
        <ele>114.094289</ele>
        <time>2023-01-05T14:05:16.956Z</time>
      </trkpt>
      <trkpt lat="43.19212" lon="2.62542">
        <ele>114.039275</ele>
        <time>2023-01-05T14:05:17.962Z</time>
      </trkpt>
      <trkpt lat="43.19212" lon="2.62555">
        <ele>113.986746</ele>
        <time>2023-01-05T14:05:18.953Z</time>
      </trkpt>
      <trkpt lat="43.19212" lon="2.62567">
        <ele>113.935833</ele>
        <time>2023-01-05T14:05:19.944Z</time>
      </trkpt>
      <trkpt lat="43.19212" lon="2.6258">
        <ele>113.884511</ele>
        <time>2023-01-05T14:05:20.966Z</time>
      </trkpt>
      <trkpt lat="43.19212" lon="2.62592">
        <ele>113.833614</ele>
        <time>2023-01-05T14:05:21.953Z</time>
      </trkpt>
      <trkpt lat="43.19212" lon="2.62616">
        <ele>113.736357</ele>
        <time>2023-01-05T14:05:23.954Z</time>
      </trkpt>
      <trkpt lat="43.19213" lon="2.62639">
        <ele>113.641948</ele>
        <time>2023-01-05T14:05:25.953Z</time>
      </trkpt>
      <trkpt lat="43.19213" lon="2.62662">
        <ele>113.547975</ele>
        <time>2023-01-05T14:05:27.954Z</time>
      </trkpt>
      <trkpt lat="43.19212" lon="2.62684">
        <ele>113.455173</ele>
        <time>2023-01-05T14:05:29.951Z</time>
      </trkpt>
      <trkpt lat="43.19212" lon="2.62707">
        <ele>113.368343</ele>
        <time>2023-01-05T14:05:31.957Z</time>
      </trkpt>
      <trkpt lat="43.19213" lon="2.62728">
        <ele>113.347815</ele>
        <time>2023-01-05T14:05:33.957Z</time>
      </trkpt>
      <trkpt lat="43.19212" lon="2.62748">
        <ele>113.32776</ele>
        <time>2023-01-05T14:05:35.961Z</time>
      </trkpt>
      <trkpt lat="43.19212" lon="2.62768">
        <ele>113.308303</ele>
        <time>2023-01-05T14:05:37.941Z</time>
      </trkpt>
      <trkpt lat="43.19212" lon="2.62788">
        <ele>113.288849</ele>
        <time>2023-01-05T14:05:39.953Z</time>
      </trkpt>
      <trkpt lat="43.19213" lon="2.62809">
        <ele>113.269292</ele>
        <time>2023-01-05T14:05:41.964Z</time>
      </trkpt>
      <trkpt lat="43.19213" lon="2.62828">
        <ele>113.25081</ele>
        <time>2023-01-05T14:05:43.966Z</time>
      </trkpt>
      <trkpt lat="43.19212" lon="2.62846">
        <ele>113.232612</ele>
        <time>2023-01-05T14:05:45.960Z</time>
      </trkpt>
      <trkpt lat="43.19213" lon="2.62865">
        <ele>113.214507</ele>
        <time>2023-01-05T14:05:47.956Z</time>
      </trkpt>
      <trkpt lat="43.19212" lon="2.62883">
        <ele>113.197179</ele>
        <time>2023-01-05T14:05:49.954Z</time>
      </trkpt>
      <trkpt lat="43.19213" lon="2.62901">
        <ele>113.179473</ele>
        <time>2023-01-05T14:05:51.962Z</time>
      </trkpt>
      <trkpt lat="43.19212" lon="2.62919">
        <ele>113.16206</ele>
        <time>2023-01-05T14:05:53.933Z</time>
      </trkpt>
      <trkpt lat="43.19212" lon="2.62937">
        <ele>113.144737</ele>
        <time>2023-01-05T14:05:55.938Z</time>
      </trkpt>
      <trkpt lat="43.19212" lon="2.62955">
        <ele>113.130394</ele>
        <time>2023-01-05T14:05:57.966Z</time>
      </trkpt>
      <trkpt lat="43.19212" lon="2.62973">
        <ele>113.132364</ele>
        <time>2023-01-05T14:05:59.965Z</time>
      </trkpt>
      <trkpt lat="43.19212" lon="2.62991">
        <ele>113.134281</ele>
        <time>2023-01-05T14:06:01.954Z</time>
      </trkpt>
      <trkpt lat="43.19212" lon="2.63009">
        <ele>113.136155</ele>
        <time>2023-01-05T14:06:03.963Z</time>
      </trkpt>
      <trkpt lat="43.19212" lon="2.63028">
        <ele>113.138167</ele>
        <time>2023-01-05T14:06:05.961Z</time>
      </trkpt>
      <trkpt lat="43.19212" lon="2.63047">
        <ele>113.140159</ele>
        <time>2023-01-05T14:06:07.966Z</time>
      </trkpt>
      <trkpt lat="43.19212" lon="2.63066">
        <ele>113.14216</ele>
        <time>2023-01-05T14:06:09.966Z</time>
      </trkpt>
      <trkpt lat="43.19212" lon="2.63085">
        <ele>113.144152</ele>
        <time>2023-01-05T14:06:11.962Z</time>
      </trkpt>
      <trkpt lat="43.19212" lon="2.63103">
        <ele>113.146132</ele>
        <time>2023-01-05T14:06:13.948Z</time>
      </trkpt>
      <trkpt lat="43.19212" lon="2.6312">
        <ele>113.147922</ele>
        <time>2023-01-05T14:06:15.968Z</time>
      </trkpt>
      <trkpt lat="43.19213" lon="2.63138">
        <ele>113.149839</ele>
        <time>2023-01-05T14:06:17.953Z</time>
      </trkpt>
      <trkpt lat="43.19213" lon="2.63156">
        <ele>113.151692</ele>
        <time>2023-01-05T14:06:19.937Z</time>
      </trkpt>
      <trkpt lat="43.19213" lon="2.63173">
        <ele>113.153514</ele>
        <time>2023-01-05T14:06:21.951Z</time>
      </trkpt>
      <trkpt lat="43.19213" lon="2.63191">
        <ele>113.155409</ele>
        <time>2023-01-05T14:06:23.962Z</time>
      </trkpt>
      <trkpt lat="43.19213" lon="2.63208">
        <ele>113.114348</ele>
        <time>2023-01-05T14:06:25.948Z</time>
      </trkpt>
      <trkpt lat="43.19213" lon="2.63227">
        <ele>113.036553</ele>
        <time>2023-01-05T14:06:27.956Z</time>
      </trkpt>
      <trkpt lat="43.19213" lon="2.63245">
        <ele>112.960875</ele>
        <time>2023-01-05T14:06:29.956Z</time>
      </trkpt>
      <trkpt lat="43.19213" lon="2.63262">
        <ele>112.886895</ele>
        <time>2023-01-05T14:06:31.948Z</time>
      </trkpt>
      <trkpt lat="43.19212" lon="2.63279">
        <ele>112.81529</ele>
        <time>2023-01-05T14:06:33.945Z</time>
      </trkpt>
      <trkpt lat="43.19212" lon="2.63298">
        <ele>112.737477</ele>
        <time>2023-01-05T14:06:35.963Z</time>
      </trkpt>
      <trkpt lat="43.19212" lon="2.63316">
        <ele>112.661395</ele>
        <time>2023-01-05T14:06:37.944Z</time>
      </trkpt>
      <trkpt lat="43.19211" lon="2.63334">
        <ele>112.585681</ele>
        <time>2023-01-05T14:06:39.939Z</time>
      </trkpt>
      <trkpt lat="43.1921" lon="2.63352">
        <ele>112.510264</ele>
        <time>2023-01-05T14:06:41.948Z</time>
      </trkpt>
      <trkpt lat="43.19209" lon="2.6337">
        <ele>112.434847</ele>
        <time>2023-01-05T14:06:43.935Z</time>
      </trkpt>
      <trkpt lat="43.19209" lon="2.63387">
        <ele>112.362493</ele>
        <time>2023-01-05T14:06:45.962Z</time>
      </trkpt>
      <trkpt lat="43.19207" lon="2.63404">
        <ele>112.290165</ele>
        <time>2023-01-05T14:06:47.949Z</time>
      </trkpt>
      <trkpt lat="43.19206" lon="2.63421">
        <ele>112.218255</ele>
        <time>2023-01-05T14:06:49.958Z</time>
      </trkpt>
      <trkpt lat="43.19205" lon="2.63437">
        <ele>112.151684</ele>
        <time>2023-01-05T14:06:51.963Z</time>
      </trkpt>
      <trkpt lat="43.19204" lon="2.63453">
        <ele>112.140245</ele>
        <time>2023-01-05T14:06:53.947Z</time>
      </trkpt>
      <trkpt lat="43.19202" lon="2.63468">
        <ele>112.179721</ele>
        <time>2023-01-05T14:06:55.957Z</time>
      </trkpt>
      <trkpt lat="43.19201" lon="2.63484">
        <ele>112.221229</ele>
        <time>2023-01-05T14:06:57.957Z</time>
      </trkpt>
      <trkpt lat="43.192" lon="2.63501">
        <ele>112.263541</ele>
        <time>2023-01-05T14:06:59.958Z</time>
      </trkpt>
      <trkpt lat="43.19199" lon="2.63518">
        <ele>112.3073</ele>
        <time>2023-01-05T14:07:01.947Z</time>
      </trkpt>
      <trkpt lat="43.19197" lon="2.63534">
        <ele>112.349825</ele>
        <time>2023-01-05T14:07:03.957Z</time>
      </trkpt>
      <trkpt lat="43.19196" lon="2.63551">
        <ele>112.393839</ele>
        <time>2023-01-05T14:07:05.961Z</time>
      </trkpt>
      <trkpt lat="43.19194" lon="2.63568">
        <ele>112.436912</ele>
        <time>2023-01-05T14:07:07.935Z</time>
      </trkpt>
      <trkpt lat="43.19192" lon="2.63585">
        <ele>112.481649</ele>
        <time>2023-01-05T14:07:09.948Z</time>
      </trkpt>
      <trkpt lat="43.19191" lon="2.63602">
        <ele>112.525626</ele>
        <time>2023-01-05T14:07:11.956Z</time>
      </trkpt>
      <trkpt lat="43.19189" lon="2.63619">
        <ele>112.568955</ele>
        <time>2023-01-05T14:07:13.952Z</time>
      </trkpt>
      <trkpt lat="43.19187" lon="2.63635">
        <ele>112.611078</ele>
        <time>2023-01-05T14:07:15.960Z</time>
      </trkpt>
      <trkpt lat="43.19184" lon="2.63652">
        <ele>112.655119</ele>
        <time>2023-01-05T14:07:17.953Z</time>
      </trkpt>
      <trkpt lat="43.19182" lon="2.63669">
        <ele>112.700522</ele>
        <time>2023-01-05T14:07:19.959Z</time>
      </trkpt>
      <trkpt lat="43.1918" lon="2.63687">
        <ele>112.745354</ele>
        <time>2023-01-05T14:07:21.951Z</time>
      </trkpt>
      <trkpt lat="43.19178" lon="2.63703">
        <ele>112.763054</ele>
        <time>2023-01-05T14:07:23.955Z</time>
      </trkpt>
      <trkpt lat="43.19176" lon="2.6372">
        <ele>112.777552</ele>
        <time>2023-01-05T14:07:25.950Z</time>
      </trkpt>
      <trkpt lat="43.19173" lon="2.63737">
        <ele>112.792559</ele>
        <time>2023-01-05T14:07:27.938Z</time>
      </trkpt>
      <trkpt lat="43.1917" lon="2.63754">
        <ele>112.807141</ele>
        <time>2023-01-05T14:07:29.955Z</time>
      </trkpt>
      <trkpt lat="43.19167" lon="2.63771">
        <ele>112.821933</ele>
        <time>2023-01-05T14:07:31.958Z</time>
      </trkpt>
      <trkpt lat="43.19164" lon="2.63788">
        <ele>112.83664</ele>
        <time>2023-01-05T14:07:33.950Z</time>
      </trkpt>
      <trkpt lat="43.19161" lon="2.63805">
        <ele>112.851156</ele>
        <time>2023-01-05T14:07:35.964Z</time>
      </trkpt>
      <trkpt lat="43.19158" lon="2.63823">
        <ele>112.866303</ele>
        <time>2023-01-05T14:07:37.952Z</time>
      </trkpt>
      <trkpt lat="43.19155" lon="2.6384">
        <ele>112.881237</ele>
        <time>2023-01-05T14:07:39.958Z</time>
      </trkpt>
      <trkpt lat="43.19152" lon="2.63857">
        <ele>112.895704</ele>
        <time>2023-01-05T14:07:41.953Z</time>
      </trkpt>
      <trkpt lat="43.19148" lon="2.63873">
        <ele>112.909928</ele>
        <time>2023-01-05T14:07:43.953Z</time>
      </trkpt>
      <trkpt lat="43.19146" lon="2.63887">
        <ele>112.922538</ele>
        <time>2023-01-05T14:07:45.975Z</time>
      </trkpt>
      <trkpt lat="43.19142" lon="2.63902">
        <ele>112.935301</ele>
        <time>2023-01-05T14:07:47.968Z</time>
      </trkpt>
      <trkpt lat="43.19139" lon="2.63917">
        <ele>112.948268</ele>
        <time>2023-01-05T14:07:49.956Z</time>
      </trkpt>
      <trkpt lat="43.19136" lon="2.63931">
        <ele>112.976069</ele>
        <time>2023-01-05T14:07:51.958Z</time>
      </trkpt>
      <trkpt lat="43.19133" lon="2.63944">
        <ele>113.058324</ele>
        <time>2023-01-05T14:07:53.961Z</time>
      </trkpt>
      <trkpt lat="43.19131" lon="2.63958">
        <ele>113.144181</ele>
        <time>2023-01-05T14:07:55.958Z</time>
      </trkpt>
      <trkpt lat="43.19128" lon="2.63972">
        <ele>113.228425</ele>
        <time>2023-01-05T14:07:57.958Z</time>
      </trkpt>
      <trkpt lat="43.19124" lon="2.63987">
        <ele>113.319358</ele>
        <time>2023-01-05T14:07:59.953Z</time>
      </trkpt>
      <trkpt lat="43.19121" lon="2.64001">
        <ele>113.408762</ele>
        <time>2023-01-05T14:08:01.950Z</time>
      </trkpt>
      <trkpt lat="43.19117" lon="2.64016">
        <ele>113.502437</ele>
        <time>2023-01-05T14:08:03.961Z</time>
      </trkpt>
      <trkpt lat="43.19113" lon="2.64031">
        <ele>113.598883</ele>
        <time>2023-01-05T14:08:05.958Z</time>
      </trkpt>
      <trkpt lat="43.19109" lon="2.64046">
        <ele>113.693759</ele>
        <time>2023-01-05T14:08:07.959Z</time>
      </trkpt>
      <trkpt lat="43.19106" lon="2.64061">
        <ele>113.785255</ele>
        <time>2023-01-05T14:08:09.958Z</time>
      </trkpt>
      <trkpt lat="43.19101" lon="2.64075">
        <ele>113.878063</ele>
        <time>2023-01-05T14:08:11.959Z</time>
      </trkpt>
      <trkpt lat="43.19098" lon="2.6409">
        <ele>113.967574</ele>
        <time>2023-01-05T14:08:13.959Z</time>
      </trkpt>
      <trkpt lat="43.19093" lon="2.64106">
        <ele>114.069304</ele>
        <time>2023-01-05T14:08:15.964Z</time>
      </trkpt>
      <trkpt lat="43.19089" lon="2.64121">
        <ele>114.165144</ele>
        <time>2023-01-05T14:08:17.951Z</time>
      </trkpt>
      <trkpt lat="43.19085" lon="2.64135">
        <ele>114.255214</ele>
        <time>2023-01-05T14:08:19.946Z</time>
      </trkpt>
      <trkpt lat="43.19081" lon="2.64149">
        <ele>114.344993</ele>
        <time>2023-01-05T14:08:21.961Z</time>
      </trkpt>
      <trkpt lat="43.19078" lon="2.64163">
        <ele>114.433736</ele>
        <time>2023-01-05T14:08:23.937Z</time>
      </trkpt>
      <trkpt lat="43.19074" lon="2.64176">
        <ele>114.545225</ele>
        <time>2023-01-05T14:08:25.956Z</time>
      </trkpt>
      <trkpt lat="43.1907" lon="2.64188">
        <ele>114.656195</ele>
        <time>2023-01-05T14:08:27.960Z</time>
      </trkpt>
      <trkpt lat="43.19066" lon="2.64202">
        <ele>114.771488</ele>
        <time>2023-01-05T14:08:29.949Z</time>
      </trkpt>
      <trkpt lat="43.19062" lon="2.64215">
        <ele>114.886143</ele>
        <time>2023-01-05T14:08:31.963Z</time>
      </trkpt>
      <trkpt lat="43.19058" lon="2.64229">
        <ele>115.007155</ele>
        <time>2023-01-05T14:08:33.963Z</time>
      </trkpt>
      <trkpt lat="43.19053" lon="2.64243">
        <ele>115.131986</ele>
        <time>2023-01-05T14:08:35.959Z</time>
      </trkpt>
      <trkpt lat="43.19049" lon="2.64257">
        <ele>115.253122</ele>
        <time>2023-01-05T14:08:37.951Z</time>
      </trkpt>
      <trkpt lat="43.19044" lon="2.6427">
        <ele>115.375621</ele>
        <time>2023-01-05T14:08:39.955Z</time>
      </trkpt>
      <trkpt lat="43.19038" lon="2.64284">
        <ele>115.501583</ele>
        <time>2023-01-05T14:08:41.957Z</time>
      </trkpt>
      <trkpt lat="43.19033" lon="2.64298">
        <ele>115.629167</ele>
        <time>2023-01-05T14:08:43.954Z</time>
      </trkpt>
      <trkpt lat="43.19028" lon="2.64312">
        <ele>115.750453</ele>
        <time>2023-01-05T14:08:45.946Z</time>
      </trkpt>
      <trkpt lat="43.19023" lon="2.64326">
        <ele>115.877065</ele>
        <time>2023-01-05T14:08:47.962Z</time>
      </trkpt>
      <trkpt lat="43.19018" lon="2.64341">
        <ele>116.008254</ele>
        <time>2023-01-05T14:08:49.961Z</time>
      </trkpt>
      <trkpt lat="43.19013" lon="2.64355">
        <ele>116.138457</ele>
        <time>2023-01-05T14:08:51.950Z</time>
      </trkpt>
      <trkpt lat="43.19008" lon="2.64371">
        <ele>116.276413</ele>
        <time>2023-01-05T14:08:53.960Z</time>
      </trkpt>
      <trkpt lat="43.19003" lon="2.64386">
        <ele>116.403871</ele>
        <time>2023-01-05T14:08:55.966Z</time>
      </trkpt>
      <trkpt lat="43.18998" lon="2.64401">
        <ele>116.431319</ele>
        <time>2023-01-05T14:08:57.963Z</time>
      </trkpt>
      <trkpt lat="43.18993" lon="2.64416">
        <ele>116.45802</ele>
        <time>2023-01-05T14:08:59.971Z</time>
      </trkpt>
      <trkpt lat="43.18987" lon="2.64431">
        <ele>116.485266</ele>
        <time>2023-01-05T14:09:01.949Z</time>
      </trkpt>
      <trkpt lat="43.18982" lon="2.64443">
        <ele>116.509514</ele>
        <time>2023-01-05T14:09:03.961Z</time>
      </trkpt>
      <trkpt lat="43.18978" lon="2.64457">
        <ele>116.533904</ele>
        <time>2023-01-05T14:09:05.956Z</time>
      </trkpt>
      <trkpt lat="43.18972" lon="2.64471">
        <ele>116.559881</ele>
        <time>2023-01-05T14:09:07.958Z</time>
      </trkpt>
      <trkpt lat="43.18967" lon="2.64484">
        <ele>116.584562</ele>
        <time>2023-01-05T14:09:09.955Z</time>
      </trkpt>
      <trkpt lat="43.18962" lon="2.64498">
        <ele>116.609979</ele>
        <time>2023-01-05T14:09:11.959Z</time>
      </trkpt>
      <trkpt lat="43.18958" lon="2.64512">
        <ele>116.63525</ele>
        <time>2023-01-05T14:09:13.937Z</time>
      </trkpt>
      <trkpt lat="43.18953" lon="2.64526">
        <ele>116.661423</ele>
        <time>2023-01-05T14:09:15.957Z</time>
      </trkpt>
      <trkpt lat="43.18948" lon="2.64541">
        <ele>116.687656</ele>
        <time>2023-01-05T14:09:17.953Z</time>
      </trkpt>
      <trkpt lat="43.18944" lon="2.64556">
        <ele>116.714017</ele>
        <time>2023-01-05T14:09:19.953Z</time>
      </trkpt>
      <trkpt lat="43.18939" lon="2.6457">
        <ele>116.74077</ele>
        <time>2023-01-05T14:09:21.960Z</time>
      </trkpt>
      <trkpt lat="43.18934" lon="2.64585">
        <ele>116.766914</ele>
        <time>2023-01-05T14:09:23.969Z</time>
      </trkpt>
      <trkpt lat="43.18929" lon="2.64599">
        <ele>116.793289</ele>
        <time>2023-01-05T14:09:25.961Z</time>
      </trkpt>
      <trkpt lat="43.18923" lon="2.64613">
        <ele>116.836249</ele>
        <time>2023-01-05T14:09:27.962Z</time>
      </trkpt>
      <trkpt lat="43.18917" lon="2.64628">
        <ele>116.900428</ele>
        <time>2023-01-05T14:09:29.961Z</time>
      </trkpt>
      <trkpt lat="43.18912" lon="2.64642">
        <ele>116.961764</ele>
        <time>2023-01-05T14:09:31.951Z</time>
      </trkpt>
      <trkpt lat="43.18907" lon="2.64656">
        <ele>117.025783</ele>
        <time>2023-01-05T14:09:33.967Z</time>
      </trkpt>
      <trkpt lat="43.18902" lon="2.64671">
        <ele>117.089801</ele>
        <time>2023-01-05T14:09:35.956Z</time>
      </trkpt>
      <trkpt lat="43.18897" lon="2.64685">
        <ele>117.149104</ele>
        <time>2023-01-05T14:09:37.953Z</time>
      </trkpt>
      <trkpt lat="43.18892" lon="2.64698">
        <ele>117.208452</ele>
        <time>2023-01-05T14:09:39.956Z</time>
      </trkpt>
      <trkpt lat="43.18887" lon="2.64711">
        <ele>117.26398</ele>
        <time>2023-01-05T14:09:41.944Z</time>
      </trkpt>
      <trkpt lat="43.18883" lon="2.64723">
        <ele>117.316365</ele>
        <time>2023-01-05T14:09:43.950Z</time>
      </trkpt>
      <trkpt lat="43.18879" lon="2.64735">
        <ele>117.372131</ele>
        <time>2023-01-05T14:09:45.951Z</time>
      </trkpt>
      <trkpt lat="43.18874" lon="2.64749">
        <ele>117.430961</ele>
        <time>2023-01-05T14:09:47.940Z</time>
      </trkpt>
      <trkpt lat="43.18869" lon="2.64763">
        <ele>117.489918</ele>
        <time>2023-01-05T14:09:49.942Z</time>
      </trkpt>
      <trkpt lat="43.18865" lon="2.64776">
        <ele>117.548518</ele>
        <time>2023-01-05T14:09:51.953Z</time>
      </trkpt>
      <trkpt lat="43.1886" lon="2.64789">
        <ele>117.607961</ele>
        <time>2023-01-05T14:09:53.949Z</time>
      </trkpt>
      <trkpt lat="43.18855" lon="2.64803">
        <ele>117.667309</ele>
        <time>2023-01-05T14:09:55.965Z</time>
      </trkpt>
      <trkpt lat="43.1885" lon="2.64818">
        <ele>117.730163</ele>
        <time>2023-01-05T14:09:57.964Z</time>
      </trkpt>
      <trkpt lat="43.18845" lon="2.64832">
        <ele>117.765295</ele>
        <time>2023-01-05T14:09:59.965Z</time>
      </trkpt>
      <trkpt lat="43.1884" lon="2.64846">
        <ele>117.703927</ele>
        <time>2023-01-05T14:10:01.967Z</time>
      </trkpt>
      <trkpt lat="43.18835" lon="2.64861">
        <ele>117.642063</ele>
        <time>2023-01-05T14:10:03.965Z</time>
      </trkpt>
      <trkpt lat="43.1883" lon="2.64876">
        <ele>117.580028</ele>
        <time>2023-01-05T14:10:05.959Z</time>
      </trkpt>
      <trkpt lat="43.18825" lon="2.6489">
        <ele>117.521411</ele>
        <time>2023-01-05T14:10:07.952Z</time>
      </trkpt>
      <trkpt lat="43.1882" lon="2.64904">
        <ele>117.461562</ele>
        <time>2023-01-05T14:10:09.962Z</time>
      </trkpt>
      <trkpt lat="43.18815" lon="2.64916">
        <ele>117.40815</ele>
        <time>2023-01-05T14:10:11.966Z</time>
      </trkpt>
      <trkpt lat="43.18811" lon="2.64929">
        <ele>117.355136</ele>
        <time>2023-01-05T14:10:13.952Z</time>
      </trkpt>
      <trkpt lat="43.18806" lon="2.64942">
        <ele>117.300072</ele>
        <time>2023-01-05T14:10:15.959Z</time>
      </trkpt>
      <trkpt lat="43.18801" lon="2.64955">
        <ele>117.242563</ele>
        <time>2023-01-05T14:10:17.966Z</time>
      </trkpt>
      <trkpt lat="43.18797" lon="2.64969">
        <ele>117.184673</ele>
        <time>2023-01-05T14:10:19.963Z</time>
      </trkpt>
      <trkpt lat="43.18792" lon="2.64983">
        <ele>117.125609</ele>
        <time>2023-01-05T14:10:21.962Z</time>
      </trkpt>
      <trkpt lat="43.18787" lon="2.64997">
        <ele>117.067305</ele>
        <time>2023-01-05T14:10:23.955Z</time>
      </trkpt>
      <trkpt lat="43.18782" lon="2.65011">
        <ele>117.004813</ele>
        <time>2023-01-05T14:10:25.938Z</time>
      </trkpt>
      <trkpt lat="43.18777" lon="2.65026">
        <ele>116.942552</ele>
        <time>2023-01-05T14:10:27.960Z</time>
      </trkpt>
      <trkpt lat="43.18771" lon="2.65041">
        <ele>116.87925</ele>
        <time>2023-01-05T14:10:29.957Z</time>
      </trkpt>
      <trkpt lat="43.18766" lon="2.65056">
        <ele>116.83895</ele>
        <time>2023-01-05T14:10:31.961Z</time>
      </trkpt>
      <trkpt lat="43.1876" lon="2.65071">
        <ele>116.838994</ele>
        <time>2023-01-05T14:10:33.953Z</time>
      </trkpt>
      <trkpt lat="43.18755" lon="2.65085">
        <ele>116.839036</ele>
        <time>2023-01-05T14:10:35.955Z</time>
      </trkpt>
      <trkpt lat="43.1875" lon="2.65099">
        <ele>116.839078</ele>
        <time>2023-01-05T14:10:37.968Z</time>
      </trkpt>
      <trkpt lat="43.18745" lon="2.65113">
        <ele>116.839119</ele>
        <time>2023-01-05T14:10:39.954Z</time>
      </trkpt>
      <trkpt lat="43.1874" lon="2.65126">
        <ele>116.839158</ele>
        <time>2023-01-05T14:10:41.957Z</time>
      </trkpt>
      <trkpt lat="43.18736" lon="2.6514">
        <ele>116.839197</ele>
        <time>2023-01-05T14:10:43.942Z</time>
      </trkpt>
      <trkpt lat="43.18731" lon="2.65154">
        <ele>116.839239</ele>
        <time>2023-01-05T14:10:45.964Z</time>
      </trkpt>
      <trkpt lat="43.18727" lon="2.65169">
        <ele>116.83928</ele>
        <time>2023-01-05T14:10:47.967Z</time>
      </trkpt>
      <trkpt lat="43.18721" lon="2.65184">
        <ele>116.839324</ele>
        <time>2023-01-05T14:10:49.962Z</time>
      </trkpt>
      <trkpt lat="43.18716" lon="2.65199">
        <ele>116.839368</ele>
        <time>2023-01-05T14:10:51.959Z</time>
      </trkpt>
      <trkpt lat="43.1871" lon="2.65214">
        <ele>116.839412</ele>
        <time>2023-01-05T14:10:53.948Z</time>
      </trkpt>
      <trkpt lat="43.18705" lon="2.65229">
        <ele>116.839456</ele>
        <time>2023-01-05T14:10:55.961Z</time>
      </trkpt>
      <trkpt lat="43.187" lon="2.65244">
        <ele>116.839501</ele>
        <time>2023-01-05T14:10:57.963Z</time>
      </trkpt>
      <trkpt lat="43.18695" lon="2.65259">
        <ele>116.839544</ele>
        <time>2023-01-05T14:10:59.957Z</time>
      </trkpt>
      <trkpt lat="43.1869" lon="2.65273">
        <ele>116.84117</ele>
        <time>2023-01-05T14:11:01.963Z</time>
      </trkpt>
      <trkpt lat="43.18685" lon="2.65286">
        <ele>116.976716</ele>
        <time>2023-01-05T14:11:03.981Z</time>
      </trkpt>
      <trkpt lat="43.1868" lon="2.653">
        <ele>117.113687</ele>
        <time>2023-01-05T14:11:05.936Z</time>
      </trkpt>
      <trkpt lat="43.18676" lon="2.65313">
        <ele>117.243028</ele>
        <time>2023-01-05T14:11:07.957Z</time>
      </trkpt>
      <trkpt lat="43.18672" lon="2.65326">
        <ele>117.373416</ele>
        <time>2023-01-05T14:11:09.959Z</time>
      </trkpt>
      <trkpt lat="43.18668" lon="2.6534">
        <ele>117.507129</ele>
        <time>2023-01-05T14:11:11.963Z</time>
      </trkpt>
      <trkpt lat="43.18663" lon="2.65353">
        <ele>117.645941</ele>
        <time>2023-01-05T14:11:13.965Z</time>
      </trkpt>
      <trkpt lat="43.18657" lon="2.65366">
        <ele>117.778704</ele>
        <time>2023-01-05T14:11:15.957Z</time>
      </trkpt>
      <trkpt lat="43.18652" lon="2.6538">
        <ele>117.917042</ele>
        <time>2023-01-05T14:11:17.961Z</time>
      </trkpt>
      <trkpt lat="43.18648" lon="2.65393">
        <ele>118.050713</ele>
        <time>2023-01-05T14:11:19.938Z</time>
      </trkpt>
      <trkpt lat="43.18643" lon="2.65407">
        <ele>118.185524</ele>
        <time>2023-01-05T14:11:21.963Z</time>
      </trkpt>
      <trkpt lat="43.18638" lon="2.65421">
        <ele>118.325697</ele>
        <time>2023-01-05T14:11:23.955Z</time>
      </trkpt>
      <trkpt lat="43.18633" lon="2.65435">
        <ele>118.466687</ele>
        <time>2023-01-05T14:11:25.950Z</time>
      </trkpt>
      <trkpt lat="43.18628" lon="2.65448">
        <ele>118.607434</ele>
        <time>2023-01-05T14:11:27.954Z</time>
      </trkpt>
      <trkpt lat="43.18624" lon="2.65462">
        <ele>118.744095</ele>
        <time>2023-01-05T14:11:29.949Z</time>
      </trkpt>
      <trkpt lat="43.18618" lon="2.65476">
        <ele>118.888418</ele>
        <time>2023-01-05T14:11:31.957Z</time>
      </trkpt>
      <trkpt lat="43.18613" lon="2.6549">
        <ele>119.02273</ele>
        <time>2023-01-05T14:11:33.949Z</time>
      </trkpt>
      <trkpt lat="43.18609" lon="2.65503">
        <ele>119.186527</ele>
        <time>2023-01-05T14:11:35.949Z</time>
      </trkpt>
      <trkpt lat="43.18604" lon="2.65516">
        <ele>119.370147</ele>
        <time>2023-01-05T14:11:37.957Z</time>
      </trkpt>
      <trkpt lat="43.18599" lon="2.65529">
        <ele>119.548483</ele>
        <time>2023-01-05T14:11:39.940Z</time>
      </trkpt>
      <trkpt lat="43.18595" lon="2.65541">
        <ele>119.716832</ele>
        <time>2023-01-05T14:11:41.932Z</time>
      </trkpt>
      <trkpt lat="43.18591" lon="2.65553">
        <ele>119.880303</ele>
        <time>2023-01-05T14:11:43.951Z</time>
      </trkpt>
      <trkpt lat="43.18588" lon="2.65565">
        <ele>120.039488</ele>
        <time>2023-01-05T14:11:45.957Z</time>
      </trkpt>
      <trkpt lat="43.18584" lon="2.65578">
        <ele>120.203897</ele>
        <time>2023-01-05T14:11:47.938Z</time>
      </trkpt>
      <trkpt lat="43.1858" lon="2.6559">
        <ele>120.367275</ele>
        <time>2023-01-05T14:11:49.966Z</time>
      </trkpt>
      <trkpt lat="43.18577" lon="2.65602">
        <ele>120.525644</ele>
        <time>2023-01-05T14:11:51.958Z</time>
      </trkpt>
      <trkpt lat="43.18572" lon="2.65615">
        <ele>120.700778</ele>
        <time>2023-01-05T14:11:53.956Z</time>
      </trkpt>
      <trkpt lat="43.18569" lon="2.65627">
        <ele>120.859437</ele>
        <time>2023-01-05T14:11:55.953Z</time>
      </trkpt>
      <trkpt lat="43.18564" lon="2.65642">
        <ele>121.068882</ele>
        <time>2023-01-05T14:11:58.950Z</time>
      </trkpt>
      <trkpt lat="43.1856" lon="2.65657">
        <ele>121.27335</ele>
        <time>2023-01-05T14:12:01.953Z</time>
      </trkpt>
      <trkpt lat="43.18556" lon="2.65674">
        <ele>121.484832</ele>
        <time>2023-01-05T14:12:04.946Z</time>
      </trkpt>
      <trkpt lat="43.18552" lon="2.6569">
        <ele>121.699202</ele>
        <time>2023-01-05T14:12:07.966Z</time>
      </trkpt>
      <trkpt lat="43.18547" lon="2.65707">
        <ele>121.917025</ele>
        <time>2023-01-05T14:12:10.964Z</time>
      </trkpt>
      <trkpt lat="43.18542" lon="2.65723">
        <ele>122.128514</ele>
        <time>2023-01-05T14:12:13.945Z</time>
      </trkpt>
      <trkpt lat="43.18538" lon="2.6574">
        <ele>122.181723</ele>
        <time>2023-01-05T14:12:16.954Z</time>
      </trkpt>
      <trkpt lat="43.18535" lon="2.65757">
        <ele>122.233419</ele>
        <time>2023-01-05T14:12:19.964Z</time>
      </trkpt>
      <trkpt lat="43.18531" lon="2.65773">
        <ele>122.286038</ele>
        <time>2023-01-05T14:12:22.949Z</time>
      </trkpt>
      <trkpt lat="43.18526" lon="2.6579">
        <ele>122.339945</ele>
        <time>2023-01-05T14:12:25.964Z</time>
      </trkpt>
      <trkpt lat="43.18522" lon="2.65802">
        <ele>122.379058</ele>
        <time>2023-01-05T14:12:27.965Z</time>
      </trkpt>
      <trkpt lat="43.1852" lon="2.65814">
        <ele>122.416547</ele>
        <time>2023-01-05T14:12:29.956Z</time>
      </trkpt>
      <trkpt lat="43.18517" lon="2.65826">
        <ele>122.45397</ele>
        <time>2023-01-05T14:12:31.962Z</time>
      </trkpt>
      <trkpt lat="43.18513" lon="2.65839">
        <ele>122.494209</ele>
        <time>2023-01-05T14:12:33.959Z</time>
      </trkpt>
      <trkpt lat="43.18511" lon="2.65852">
        <ele>122.534578</ele>
        <time>2023-01-05T14:12:35.969Z</time>
      </trkpt>
      <trkpt lat="43.18508" lon="2.65865">
        <ele>122.576803</ele>
        <time>2023-01-05T14:12:37.960Z</time>
      </trkpt>
      <trkpt lat="43.18505" lon="2.65879">
        <ele>122.618903</ele>
        <time>2023-01-05T14:12:39.960Z</time>
      </trkpt>
      <trkpt lat="43.18502" lon="2.65892">
        <ele>122.660881</ele>
        <time>2023-01-05T14:12:41.961Z</time>
      </trkpt>
      <trkpt lat="43.18498" lon="2.65906">
        <ele>122.704366</ele>
        <time>2023-01-05T14:12:43.965Z</time>
      </trkpt>
      <trkpt lat="43.18494" lon="2.65919">
        <ele>122.747732</ele>
        <time>2023-01-05T14:12:45.951Z</time>
      </trkpt>
      <trkpt lat="43.18491" lon="2.65933">
        <ele>122.791548</ele>
        <time>2023-01-05T14:12:47.961Z</time>
      </trkpt>
      <trkpt lat="43.18488" lon="2.65947">
        <ele>122.833526</ele>
        <time>2023-01-05T14:12:49.949Z</time>
      </trkpt>
      <trkpt lat="43.18485" lon="2.6596">
        <ele>122.869602</ele>
        <time>2023-01-05T14:12:51.960Z</time>
      </trkpt>
      <trkpt lat="43.18482" lon="2.65973">
        <ele>122.890384</ele>
        <time>2023-01-05T14:12:53.955Z</time>
      </trkpt>
      <trkpt lat="43.18479" lon="2.65986">
        <ele>122.910942</ele>
        <time>2023-01-05T14:12:55.967Z</time>
      </trkpt>
      <trkpt lat="43.18476" lon="2.66">
        <ele>122.931912</ele>
        <time>2023-01-05T14:12:57.963Z</time>
      </trkpt>
      <trkpt lat="43.18473" lon="2.66011">
        <ele>122.951254</ele>
        <time>2023-01-05T14:12:59.959Z</time>
      </trkpt>
      <trkpt lat="43.1847" lon="2.66025">
        <ele>122.972962</ele>
        <time>2023-01-05T14:13:01.961Z</time>
      </trkpt>
      <trkpt lat="43.18466" lon="2.66039">
        <ele>122.994569</ele>
        <time>2023-01-05T14:13:03.956Z</time>
      </trkpt>
      <trkpt lat="43.18463" lon="2.66053">
        <ele>123.016769</ele>
        <time>2023-01-05T14:13:05.959Z</time>
      </trkpt>
      <trkpt lat="43.1846" lon="2.66066">
        <ele>123.038368</ele>
        <time>2023-01-05T14:13:07.942Z</time>
      </trkpt>
      <trkpt lat="43.18456" lon="2.66081">
        <ele>123.062096</ele>
        <time>2023-01-05T14:13:09.956Z</time>
      </trkpt>
      <trkpt lat="43.18452" lon="2.66095">
        <ele>123.084756</ele>
        <time>2023-01-05T14:13:11.936Z</time>
      </trkpt>
      <trkpt lat="43.18449" lon="2.66111">
        <ele>123.108785</ele>
        <time>2023-01-05T14:13:13.957Z</time>
      </trkpt>
      <trkpt lat="43.18446" lon="2.66126">
        <ele>123.132779</ele>
        <time>2023-01-05T14:13:15.965Z</time>
      </trkpt>
      <trkpt lat="43.18442" lon="2.66141">
        <ele>123.156441</ele>
        <time>2023-01-05T14:13:17.958Z</time>
      </trkpt>
      <trkpt lat="43.18439" lon="2.66156">
        <ele>123.180841</ele>
        <time>2023-01-05T14:13:19.962Z</time>
      </trkpt>
      <trkpt lat="43.18435" lon="2.66173">
        <ele>123.207118</ele>
        <time>2023-01-05T14:13:21.953Z</time>
      </trkpt>
      <trkpt lat="43.18431" lon="2.66189">
        <ele>123.232693</ele>
        <time>2023-01-05T14:13:23.966Z</time>
      </trkpt>
      <trkpt lat="43.18428" lon="2.66205">
        <ele>123.263495</ele>
        <time>2023-01-05T14:13:25.966Z</time>
      </trkpt>
      <trkpt lat="43.18424" lon="2.66222">
        <ele>123.295011</ele>
        <time>2023-01-05T14:13:27.960Z</time>
      </trkpt>
      <trkpt lat="43.1842" lon="2.66238">
        <ele>123.326653</ele>
        <time>2023-01-05T14:13:29.953Z</time>
      </trkpt>
      <trkpt lat="43.18416" lon="2.66255">
        <ele>123.359128</ele>
        <time>2023-01-05T14:13:31.950Z</time>
      </trkpt>
      <trkpt lat="43.18413" lon="2.66271">
        <ele>123.390896</ele>
        <time>2023-01-05T14:13:33.956Z</time>
      </trkpt>
      <trkpt lat="43.18409" lon="2.66287">
        <ele>123.42237</ele>
        <time>2023-01-05T14:13:35.945Z</time>
      </trkpt>
      <trkpt lat="43.18405" lon="2.66303">
        <ele>123.453784</ele>
        <time>2023-01-05T14:13:37.971Z</time>
      </trkpt>
      <trkpt lat="43.184" lon="2.66319">
        <ele>123.485346</ele>
        <time>2023-01-05T14:13:39.963Z</time>
      </trkpt>
      <trkpt lat="43.18396" lon="2.66334">
        <ele>123.515799</ele>
        <time>2023-01-05T14:13:41.959Z</time>
      </trkpt>
      <trkpt lat="43.18392" lon="2.6635">
        <ele>123.54606</ele>
        <time>2023-01-05T14:13:43.964Z</time>
      </trkpt>
      <trkpt lat="43.18388" lon="2.66366">
        <ele>123.577198</ele>
        <time>2023-01-05T14:13:45.963Z</time>
      </trkpt>
      <trkpt lat="43.18385" lon="2.66382">
        <ele>123.607655</ele>
        <time>2023-01-05T14:13:47.958Z</time>
      </trkpt>
      <trkpt lat="43.18381" lon="2.66398">
        <ele>123.638522</ele>
        <time>2023-01-05T14:13:49.954Z</time>
      </trkpt>
      <trkpt lat="43.18377" lon="2.66414">
        <ele>123.670338</ele>
        <time>2023-01-05T14:13:51.964Z</time>
      </trkpt>
      <trkpt lat="43.18373" lon="2.66428">
        <ele>123.726338</ele>
        <time>2023-01-05T14:13:53.938Z</time>
      </trkpt>
      <trkpt lat="43.1837" lon="2.66443">
        <ele>123.861725</ele>
        <time>2023-01-05T14:13:55.962Z</time>
      </trkpt>
      <trkpt lat="43.18366" lon="2.66457">
        <ele>123.996818</ele>
        <time>2023-01-05T14:13:57.961Z</time>
      </trkpt>
      <trkpt lat="43.18363" lon="2.66471">
        <ele>124.127169</ele>
        <time>2023-01-05T14:13:59.953Z</time>
      </trkpt>
      <trkpt lat="43.18359" lon="2.66485">
        <ele>124.255868</ele>
        <time>2023-01-05T14:14:01.937Z</time>
      </trkpt>
      <trkpt lat="43.18355" lon="2.66498">
        <ele>124.384973</ele>
        <time>2023-01-05T14:14:03.962Z</time>
      </trkpt>
      <trkpt lat="43.18352" lon="2.66513">
        <ele>124.523826</ele>
        <time>2023-01-05T14:14:05.935Z</time>
      </trkpt>
      <trkpt lat="43.18348" lon="2.66528">
        <ele>124.662133</ele>
        <time>2023-01-05T14:14:07.939Z</time>
      </trkpt>
      <trkpt lat="43.18345" lon="2.66543">
        <ele>124.803181</ele>
        <time>2023-01-05T14:14:09.957Z</time>
      </trkpt>
      <trkpt lat="43.18341" lon="2.66558">
        <ele>124.939379</ele>
        <time>2023-01-05T14:14:11.964Z</time>
      </trkpt>
      <trkpt lat="43.18338" lon="2.66572">
        <ele>125.073766</ele>
        <time>2023-01-05T14:14:13.954Z</time>
      </trkpt>
      <trkpt lat="43.18335" lon="2.66588">
        <ele>125.217568</ele>
        <time>2023-01-05T14:14:15.959Z</time>
      </trkpt>
      <trkpt lat="43.18332" lon="2.66602">
        <ele>125.350112</ele>
        <time>2023-01-05T14:14:17.937Z</time>
      </trkpt>
      <trkpt lat="43.18329" lon="2.66617">
        <ele>125.490181</ele>
        <time>2023-01-05T14:14:19.954Z</time>
      </trkpt>
      <trkpt lat="43.18325" lon="2.66632">
        <ele>125.630156</ele>
        <time>2023-01-05T14:14:21.951Z</time>
      </trkpt>
      <trkpt lat="43.18321" lon="2.66648">
        <ele>125.778906</ele>
        <time>2023-01-05T14:14:23.951Z</time>
      </trkpt>
      <trkpt lat="43.18317" lon="2.66663">
        <ele>125.92949</ele>
        <time>2023-01-05T14:14:25.961Z</time>
      </trkpt>
      <trkpt lat="43.18314" lon="2.66677">
        <ele>126.107221</ele>
        <time>2023-01-05T14:14:27.954Z</time>
      </trkpt>
      <trkpt lat="43.1831" lon="2.66693">
        <ele>126.302921</ele>
        <time>2023-01-05T14:14:29.962Z</time>
      </trkpt>
      <trkpt lat="43.18306" lon="2.66708">
        <ele>126.480664</ele>
        <time>2023-01-05T14:14:31.957Z</time>
      </trkpt>
      <trkpt lat="43.18303" lon="2.66723">
        <ele>126.663375</ele>
        <time>2023-01-05T14:14:33.961Z</time>
      </trkpt>
      <trkpt lat="43.18299" lon="2.66737">
        <ele>126.84221</ele>
        <time>2023-01-05T14:14:35.963Z</time>
      </trkpt>
      <trkpt lat="43.18295" lon="2.66751">
        <ele>127.007986</ele>
        <time>2023-01-05T14:14:37.973Z</time>
      </trkpt>
      <trkpt lat="43.18291" lon="2.66765">
        <ele>127.181471</ele>
        <time>2023-01-05T14:14:39.965Z</time>
      </trkpt>
      <trkpt lat="43.18288" lon="2.66778">
        <ele>127.340339</ele>
        <time>2023-01-05T14:14:41.950Z</time>
      </trkpt>
      <trkpt lat="43.18286" lon="2.66792">
        <ele>127.510858</ele>
        <time>2023-01-05T14:14:43.958Z</time>
      </trkpt>
      <trkpt lat="43.18282" lon="2.66806">
        <ele>127.681527</ele>
        <time>2023-01-05T14:14:45.963Z</time>
      </trkpt>
      <trkpt lat="43.18279" lon="2.6682">
        <ele>127.851763</ele>
        <time>2023-01-05T14:14:47.967Z</time>
      </trkpt>
      <trkpt lat="43.18276" lon="2.66835">
        <ele>128.028617</ele>
        <time>2023-01-05T14:14:49.959Z</time>
      </trkpt>
      <trkpt lat="43.18272" lon="2.6685">
        <ele>128.208153</ele>
        <time>2023-01-05T14:14:51.966Z</time>
      </trkpt>
      <trkpt lat="43.18269" lon="2.66864">
        <ele>128.383776</ele>
        <time>2023-01-05T14:14:53.956Z</time>
      </trkpt>
      <trkpt lat="43.18266" lon="2.66879">
        <ele>128.560684</ele>
        <time>2023-01-05T14:14:55.939Z</time>
      </trkpt>
      <trkpt lat="43.18263" lon="2.66893">
        <ele>128.732021</ele>
        <time>2023-01-05T14:14:57.963Z</time>
      </trkpt>
      <trkpt lat="43.18258" lon="2.66907">
        <ele>128.768425</ele>
        <time>2023-01-05T14:14:59.957Z</time>
      </trkpt>
      <trkpt lat="43.18255" lon="2.66922">
        <ele>128.800363</ele>
        <time>2023-01-05T14:15:01.962Z</time>
      </trkpt>
      <trkpt lat="43.18252" lon="2.66937">
        <ele>128.83152</ele>
        <time>2023-01-05T14:15:03.965Z</time>
      </trkpt>
      <trkpt lat="43.18248" lon="2.66953">
        <ele>128.864097</ele>
        <time>2023-01-05T14:15:05.958Z</time>
      </trkpt>
      <trkpt lat="43.18244" lon="2.66968">
        <ele>128.896861</ele>
        <time>2023-01-05T14:15:07.964Z</time>
      </trkpt>
      <trkpt lat="43.1824" lon="2.66984">
        <ele>128.928664</ele>
        <time>2023-01-05T14:15:09.957Z</time>
      </trkpt>
      <trkpt lat="43.18237" lon="2.66999">
        <ele>128.959937</ele>
        <time>2023-01-05T14:15:11.957Z</time>
      </trkpt>
      <trkpt lat="43.18234" lon="2.67013">
        <ele>128.988848</ele>
        <time>2023-01-05T14:15:13.935Z</time>
      </trkpt>
      <trkpt lat="43.1823" lon="2.67027">
        <ele>129.018173</ele>
        <time>2023-01-05T14:15:15.949Z</time>
      </trkpt>
      <trkpt lat="43.18227" lon="2.67041">
        <ele>129.047222</ele>
        <time>2023-01-05T14:15:17.969Z</time>
      </trkpt>
      <trkpt lat="43.18224" lon="2.67055">
        <ele>129.076401</ele>
        <time>2023-01-05T14:15:19.961Z</time>
      </trkpt>
      <trkpt lat="43.1822" lon="2.67069">
        <ele>129.105999</ele>
        <time>2023-01-05T14:15:21.957Z</time>
      </trkpt>
      <trkpt lat="43.18216" lon="2.67084">
        <ele>129.1371</ele>
        <time>2023-01-05T14:15:23.961Z</time>
      </trkpt>
      <trkpt lat="43.18212" lon="2.671">
        <ele>129.170709</ele>
        <time>2023-01-05T14:15:25.967Z</time>
      </trkpt>
      <trkpt lat="43.18208" lon="2.67116">
        <ele>129.204186</ele>
        <time>2023-01-05T14:15:27.964Z</time>
      </trkpt>
      <trkpt lat="43.18204" lon="2.67132">
        <ele>129.201635</ele>
        <time>2023-01-05T14:15:29.963Z</time>
      </trkpt>
      <trkpt lat="43.18201" lon="2.67147">
        <ele>129.104755</ele>
        <time>2023-01-05T14:15:31.946Z</time>
      </trkpt>
      <trkpt lat="43.18198" lon="2.67163">
        <ele>129.011477</ele>
        <time>2023-01-05T14:15:33.967Z</time>
      </trkpt>
      <trkpt lat="43.18194" lon="2.67178">
        <ele>128.918829</ele>
        <time>2023-01-05T14:15:35.963Z</time>
      </trkpt>
      <trkpt lat="43.1819" lon="2.67193">
        <ele>128.822889</ele>
        <time>2023-01-05T14:15:37.959Z</time>
      </trkpt>
      <trkpt lat="43.18187" lon="2.67208">
        <ele>128.729371</ele>
        <time>2023-01-05T14:15:39.966Z</time>
      </trkpt>
      <trkpt lat="43.18183" lon="2.67224">
        <ele>128.63497</ele>
        <time>2023-01-05T14:15:41.964Z</time>
      </trkpt>
      <trkpt lat="43.1818" lon="2.67239">
        <ele>128.538726</ele>
        <time>2023-01-05T14:15:43.964Z</time>
      </trkpt>
      <trkpt lat="43.18176" lon="2.67254">
        <ele>128.447502</ele>
        <time>2023-01-05T14:15:45.963Z</time>
      </trkpt>
      <trkpt lat="43.18172" lon="2.6727">
        <ele>128.348526</ele>
        <time>2023-01-05T14:15:47.963Z</time>
      </trkpt>
      <trkpt lat="43.18168" lon="2.67285">
        <ele>128.253888</ele>
        <time>2023-01-05T14:15:49.958Z</time>
      </trkpt>
      <trkpt lat="43.18165" lon="2.673">
        <ele>128.16117</ele>
        <time>2023-01-05T14:15:51.960Z</time>
      </trkpt>
      <trkpt lat="43.18162" lon="2.67317">
        <ele>128.063474</ele>
        <time>2023-01-05T14:15:53.953Z</time>
      </trkpt>
      <trkpt lat="43.18158" lon="2.67333">
        <ele>127.962515</ele>
        <time>2023-01-05T14:15:55.949Z</time>
      </trkpt>
      <trkpt lat="43.18153" lon="2.67349">
        <ele>127.859711</ele>
        <time>2023-01-05T14:15:57.963Z</time>
      </trkpt>
      <trkpt lat="43.18149" lon="2.67367">
        <ele>127.74173</ele>
        <time>2023-01-05T14:15:59.960Z</time>
      </trkpt>
      <trkpt lat="43.18144" lon="2.67385">
        <ele>127.58846</ele>
        <time>2023-01-05T14:16:01.958Z</time>
      </trkpt>
      <trkpt lat="43.1814" lon="2.67403">
        <ele>127.439932</ele>
        <time>2023-01-05T14:16:03.963Z</time>
      </trkpt>
      <trkpt lat="43.18135" lon="2.67422">
        <ele>127.280434</ele>
        <time>2023-01-05T14:16:05.960Z</time>
      </trkpt>
      <trkpt lat="43.1813" lon="2.67441">
        <ele>127.123515</ele>
        <time>2023-01-05T14:16:07.944Z</time>
      </trkpt>
      <trkpt lat="43.18126" lon="2.67461">
        <ele>126.963445</ele>
        <time>2023-01-05T14:16:09.964Z</time>
      </trkpt>
      <trkpt lat="43.18121" lon="2.6748">
        <ele>126.804631</ele>
        <time>2023-01-05T14:16:11.951Z</time>
      </trkpt>
      <trkpt lat="43.18116" lon="2.675">
        <ele>126.639929</ele>
        <time>2023-01-05T14:16:13.963Z</time>
      </trkpt>
      <trkpt lat="43.18112" lon="2.6752">
        <ele>126.4773</ele>
        <time>2023-01-05T14:16:15.961Z</time>
      </trkpt>
      <trkpt lat="43.18107" lon="2.67539">
        <ele>126.31542</ele>
        <time>2023-01-05T14:16:17.965Z</time>
      </trkpt>
      <trkpt lat="43.18103" lon="2.67559">
        <ele>126.151721</ele>
        <time>2023-01-05T14:16:19.963Z</time>
      </trkpt>
      <trkpt lat="43.18098" lon="2.67579">
        <ele>125.986275</ele>
        <time>2023-01-05T14:16:21.963Z</time>
      </trkpt>
      <trkpt lat="43.18094" lon="2.67599">
        <ele>125.836934</ele>
        <time>2023-01-05T14:16:23.952Z</time>
      </trkpt>
      <trkpt lat="43.1809" lon="2.67619">
        <ele>125.768403</ele>
        <time>2023-01-05T14:16:25.964Z</time>
      </trkpt>
      <trkpt lat="43.18086" lon="2.67639">
        <ele>125.699957</ele>
        <time>2023-01-05T14:16:27.959Z</time>
      </trkpt>
      <trkpt lat="43.18083" lon="2.67658">
        <ele>125.634624</ele>
        <time>2023-01-05T14:16:29.938Z</time>
      </trkpt>
      <trkpt lat="43.1808" lon="2.67679">
        <ele>125.564525</ele>
        <time>2023-01-05T14:16:31.954Z</time>
      </trkpt>
      <trkpt lat="43.18077" lon="2.67699">
        <ele>125.495725</ele>
        <time>2023-01-05T14:16:33.952Z</time>
      </trkpt>
      <trkpt lat="43.18074" lon="2.6772">
        <ele>125.426865</ele>
        <time>2023-01-05T14:16:35.954Z</time>
      </trkpt>
      <trkpt lat="43.18071" lon="2.6774">
        <ele>125.358065</ele>
        <time>2023-01-05T14:16:37.958Z</time>
      </trkpt>
      <trkpt lat="43.18068" lon="2.67762">
        <ele>125.285535</ele>
        <time>2023-01-05T14:16:39.957Z</time>
      </trkpt>
      <trkpt lat="43.18065" lon="2.67783">
        <ele>125.213712</ele>
        <time>2023-01-05T14:16:41.950Z</time>
      </trkpt>
      <trkpt lat="43.18063" lon="2.67804">
        <ele>125.141629</ele>
        <time>2023-01-05T14:16:43.959Z</time>
      </trkpt>
      <trkpt lat="43.18061" lon="2.67825">
        <ele>125.0721</ele>
        <time>2023-01-05T14:16:45.959Z</time>
      </trkpt>
      <trkpt lat="43.18059" lon="2.67846">
        <ele>125.154461</ele>
        <time>2023-01-05T14:16:47.959Z</time>
      </trkpt>
      <trkpt lat="43.18058" lon="2.67866">
        <ele>125.488186</ele>
        <time>2023-01-05T14:16:49.956Z</time>
      </trkpt>
      <trkpt lat="43.18057" lon="2.67886">
        <ele>125.818261</ele>
        <time>2023-01-05T14:16:51.959Z</time>
      </trkpt>
      <trkpt lat="43.18056" lon="2.67905">
        <ele>126.12818</ele>
        <time>2023-01-05T14:16:53.959Z</time>
      </trkpt>
      <trkpt lat="43.18056" lon="2.67923">
        <ele>126.429378</ele>
        <time>2023-01-05T14:16:55.962Z</time>
      </trkpt>
      <trkpt lat="43.18056" lon="2.67941">
        <ele>126.717385</ele>
        <time>2023-01-05T14:16:57.955Z</time>
      </trkpt>
      <trkpt lat="43.18056" lon="2.67957">
        <ele>126.995546</ele>
        <time>2023-01-05T14:16:59.957Z</time>
      </trkpt>
      <trkpt lat="43.18055" lon="2.67974">
        <ele>127.264402</ele>
        <time>2023-01-05T14:17:01.953Z</time>
      </trkpt>
      <trkpt lat="43.18055" lon="2.67989">
        <ele>127.521172</ele>
        <time>2023-01-05T14:17:03.966Z</time>
      </trkpt>
      <trkpt lat="43.18055" lon="2.68004">
        <ele>127.766392</ele>
        <time>2023-01-05T14:17:05.961Z</time>
      </trkpt>
      <trkpt lat="43.18056" lon="2.68018">
        <ele>127.998612</ele>
        <time>2023-01-05T14:17:07.953Z</time>
      </trkpt>
      <trkpt lat="43.18056" lon="2.68032">
        <ele>128.217909</ele>
        <time>2023-01-05T14:17:09.967Z</time>
      </trkpt>
      <trkpt lat="43.18057" lon="2.68044">
        <ele>128.424857</ele>
        <time>2023-01-05T14:17:11.962Z</time>
      </trkpt>
      <trkpt lat="43.18058" lon="2.68057">
        <ele>128.630713</ele>
        <time>2023-01-05T14:17:13.955Z</time>
      </trkpt>
      <trkpt lat="43.18059" lon="2.68069">
        <ele>128.835789</ele>
        <time>2023-01-05T14:17:15.962Z</time>
      </trkpt>
      <trkpt lat="43.18061" lon="2.68086">
        <ele>129.146634</ele>
        <time>2023-01-05T14:17:18.958Z</time>
      </trkpt>
      <trkpt lat="43.18063" lon="2.68102">
        <ele>129.641878</ele>
        <time>2023-01-05T14:17:21.962Z</time>
      </trkpt>
      <trkpt lat="43.18064" lon="2.68118">
        <ele>130.10471</ele>
        <time>2023-01-05T14:17:24.933Z</time>
      </trkpt>
      <trkpt lat="43.18066" lon="2.68133">
        <ele>130.566619</ele>
        <time>2023-01-05T14:17:27.939Z</time>
      </trkpt>
      <trkpt lat="43.18067" lon="2.68147">
        <ele>131.011975</ele>
        <time>2023-01-05T14:17:30.962Z</time>
      </trkpt>
      <trkpt lat="43.18069" lon="2.68161">
        <ele>131.431623</ele>
        <time>2023-01-05T14:17:33.939Z</time>
      </trkpt>
      <trkpt lat="43.1807" lon="2.68174">
        <ele>131.831222</ele>
        <time>2023-01-05T14:17:36.965Z</time>
      </trkpt>
      <trkpt lat="43.18071" lon="2.68188">
        <ele>132.240786</ele>
        <time>2023-01-05T14:17:39.949Z</time>
      </trkpt>
      <trkpt lat="43.18073" lon="2.68203">
        <ele>132.695041</ele>
        <time>2023-01-05T14:17:43.964Z</time>
      </trkpt>
      <trkpt lat="43.18075" lon="2.68216">
        <ele>133.108161</ele>
        <time>2023-01-05T14:17:47.942Z</time>
      </trkpt>
      <trkpt lat="43.18077" lon="2.68231">
        <ele>133.553531</ele>
        <time>2023-01-05T14:17:51.959Z</time>
      </trkpt>
      <trkpt lat="43.18078" lon="2.68245">
        <ele>133.98272</ele>
        <time>2023-01-05T14:17:55.967Z</time>
      </trkpt>
      <trkpt lat="43.18079" lon="2.6826">
        <ele>134.423409</ele>
        <time>2023-01-05T14:17:59.964Z</time>
      </trkpt>
      <trkpt lat="43.1808" lon="2.68274">
        <ele>134.87129</ele>
        <time>2023-01-05T14:18:03.962Z</time>
      </trkpt>
      <trkpt lat="43.18082" lon="2.68289">
        <ele>135.319172</ele>
        <time>2023-01-05T14:18:07.965Z</time>
      </trkpt>
      <trkpt lat="43.18082" lon="2.68304">
        <ele>135.776638</ele>
        <time>2023-01-05T14:18:11.965Z</time>
      </trkpt>
      <trkpt lat="43.18084" lon="2.68319">
        <ele>136.226641</ele>
        <time>2023-01-05T14:18:15.962Z</time>
      </trkpt>
      <trkpt lat="43.18086" lon="2.68334">
        <ele>136.628402</ele>
        <time>2023-01-05T14:18:19.963Z</time>
      </trkpt>
      <trkpt lat="43.18087" lon="2.68349">
        <ele>136.923067</ele>
        <time>2023-01-05T14:18:23.947Z</time>
      </trkpt>
      <trkpt lat="43.18089" lon="2.68365">
        <ele>137.229002</ele>
        <time>2023-01-05T14:18:27.962Z</time>
      </trkpt>
      <trkpt lat="43.1809" lon="2.6838">
        <ele>137.526761</ele>
        <time>2023-01-05T14:18:31.962Z</time>
      </trkpt>
      <trkpt lat="43.18091" lon="2.68395">
        <ele>137.830031</ele>
        <time>2023-01-05T14:18:35.952Z</time>
      </trkpt>
      <trkpt lat="43.18092" lon="2.68407">
        <ele>138.072674</ele>
        <time>2023-01-05T14:18:38.946Z</time>
      </trkpt>
      <trkpt lat="43.18093" lon="2.6842">
        <ele>138.31946</ele>
        <time>2023-01-05T14:18:41.964Z</time>
      </trkpt>
      <trkpt lat="43.18095" lon="2.68436">
        <ele>138.637258</ele>
        <time>2023-01-05T14:18:45.933Z</time>
      </trkpt>
      <trkpt lat="43.18097" lon="2.68451">
        <ele>138.949828</ele>
        <time>2023-01-05T14:18:49.964Z</time>
      </trkpt>
      <trkpt lat="43.18099" lon="2.68467">
        <ele>139.266702</ele>
        <time>2023-01-05T14:18:53.973Z</time>
      </trkpt>
      <trkpt lat="43.18101" lon="2.68482">
        <ele>139.554509</ele>
        <time>2023-01-05T14:18:57.956Z</time>
      </trkpt>
      <trkpt lat="43.18103" lon="2.68497">
        <ele>139.860836</ele>
        <time>2023-01-05T14:19:01.961Z</time>
      </trkpt>
      <trkpt lat="43.18104" lon="2.68509">
        <ele>140.106848</ele>
        <time>2023-01-05T14:19:04.967Z</time>
      </trkpt>
      <trkpt lat="43.18105" lon="2.68522">
        <ele>140.350254</ele>
        <time>2023-01-05T14:19:07.958Z</time>
      </trkpt>
      <trkpt lat="43.18106" lon="2.68535">
        <ele>140.606756</ele>
        <time>2023-01-05T14:19:10.966Z</time>
      </trkpt>
      <trkpt lat="43.18108" lon="2.68548">
        <ele>140.867986</ele>
        <time>2023-01-05T14:19:13.940Z</time>
      </trkpt>
      <trkpt lat="43.18109" lon="2.68561">
        <ele>141.122543</ele>
        <time>2023-01-05T14:19:16.960Z</time>
      </trkpt>
      <trkpt lat="43.18111" lon="2.68574">
        <ele>141.371666</ele>
        <time>2023-01-05T14:19:19.963Z</time>
      </trkpt>
      <trkpt lat="43.18112" lon="2.68588">
        <ele>141.466851</ele>
        <time>2023-01-05T14:19:22.964Z</time>
      </trkpt>
      <trkpt lat="43.18114" lon="2.68602">
        <ele>141.568388</ele>
        <time>2023-01-05T14:19:25.932Z</time>
      </trkpt>
      <trkpt lat="43.18116" lon="2.68617">
        <ele>141.677467</ele>
        <time>2023-01-05T14:19:28.958Z</time>
      </trkpt>
      <trkpt lat="43.18117" lon="2.68633">
        <ele>141.794407</ele>
        <time>2023-01-05T14:19:31.951Z</time>
      </trkpt>
      <trkpt lat="43.18119" lon="2.6865">
        <ele>141.911907</ele>
        <time>2023-01-05T14:19:34.959Z</time>
      </trkpt>
      <trkpt lat="43.18121" lon="2.68664">
        <ele>142.016632</ele>
        <time>2023-01-05T14:19:37.966Z</time>
      </trkpt>
      <trkpt lat="43.18122" lon="2.68677">
        <ele>142.110693</ele>
        <time>2023-01-05T14:19:40.963Z</time>
      </trkpt>
      <trkpt lat="43.18123" lon="2.6869">
        <ele>142.199299</ele>
        <time>2023-01-05T14:19:43.968Z</time>
      </trkpt>
      <trkpt lat="43.18125" lon="2.68703">
        <ele>142.295187</ele>
        <time>2023-01-05T14:19:46.965Z</time>
      </trkpt>
      <trkpt lat="43.18126" lon="2.68718">
        <ele>142.403017</ele>
        <time>2023-01-05T14:19:49.957Z</time>
      </trkpt>
      <trkpt lat="43.18128" lon="2.68735">
        <ele>142.520963</ele>
        <time>2023-01-05T14:19:52.962Z</time>
      </trkpt>
      <trkpt lat="43.1813" lon="2.68751">
        <ele>142.639736</ele>
        <time>2023-01-05T14:19:55.962Z</time>
      </trkpt>
      <trkpt lat="43.18132" lon="2.68768">
        <ele>142.76274</ele>
        <time>2023-01-05T14:19:58.953Z</time>
      </trkpt>
      <trkpt lat="43.18133" lon="2.68786">
        <ele>142.886697</ele>
        <time>2023-01-05T14:20:01.963Z</time>
      </trkpt>
      <trkpt lat="43.18135" lon="2.68798">
        <ele>142.975558</ele>
        <time>2023-01-05T14:20:03.941Z</time>
      </trkpt>
      <trkpt lat="43.18136" lon="2.68811">
        <ele>143.068634</ele>
        <time>2023-01-05T14:20:05.971Z</time>
      </trkpt>
      <trkpt lat="43.18138" lon="2.68824">
        <ele>143.072377</ele>
        <time>2023-01-05T14:20:07.959Z</time>
      </trkpt>
      <trkpt lat="43.18139" lon="2.68839">
        <ele>143.008363</ele>
        <time>2023-01-05T14:20:09.956Z</time>
      </trkpt>
      <trkpt lat="43.1814" lon="2.68852">
        <ele>142.946627</ele>
        <time>2023-01-05T14:20:11.965Z</time>
      </trkpt>
      <trkpt lat="43.18142" lon="2.68866">
        <ele>142.885844</ele>
        <time>2023-01-05T14:20:13.956Z</time>
      </trkpt>
      <trkpt lat="43.18143" lon="2.68879">
        <ele>142.825134</ele>
        <time>2023-01-05T14:20:15.960Z</time>
      </trkpt>
      <trkpt lat="43.18144" lon="2.68893">
        <ele>142.764279</ele>
        <time>2023-01-05T14:20:17.939Z</time>
      </trkpt>
      <trkpt lat="43.18146" lon="2.68906">
        <ele>142.70694</ele>
        <time>2023-01-05T14:20:19.963Z</time>
      </trkpt>
      <trkpt lat="43.18147" lon="2.68918">
        <ele>142.65083</ele>
        <time>2023-01-05T14:20:21.939Z</time>
      </trkpt>
      <trkpt lat="43.18149" lon="2.68936">
        <ele>142.572143</ele>
        <time>2023-01-05T14:20:24.962Z</time>
      </trkpt>
      <trkpt lat="43.18151" lon="2.68953">
        <ele>142.493894</ele>
        <time>2023-01-05T14:20:27.959Z</time>
      </trkpt>
      <trkpt lat="43.18154" lon="2.6897">
        <ele>142.416865</ele>
        <time>2023-01-05T14:20:30.967Z</time>
      </trkpt>
      <trkpt lat="43.18158" lon="2.68988">
        <ele>142.334828</ele>
        <time>2023-01-05T14:20:33.963Z</time>
      </trkpt>
      <trkpt lat="43.18161" lon="2.69">
        <ele>142.278739</ele>
        <time>2023-01-05T14:20:35.937Z</time>
      </trkpt>
      <trkpt lat="43.18164" lon="2.69013">
        <ele>142.215336</ele>
        <time>2023-01-05T14:20:37.934Z</time>
      </trkpt>
      <trkpt lat="43.18167" lon="2.69028">
        <ele>142.149635</ele>
        <time>2023-01-05T14:20:39.956Z</time>
      </trkpt>
      <trkpt lat="43.18171" lon="2.69042">
        <ele>142.082525</ele>
        <time>2023-01-05T14:20:41.958Z</time>
      </trkpt>
      <trkpt lat="43.18175" lon="2.69057">
        <ele>142.011424</ele>
        <time>2023-01-05T14:20:43.953Z</time>
      </trkpt>
      <trkpt lat="43.1818" lon="2.69071">
        <ele>141.901214</ele>
        <time>2023-01-05T14:20:45.965Z</time>
      </trkpt>
      <trkpt lat="43.18185" lon="2.69087">
        <ele>141.785356</ele>
        <time>2023-01-05T14:20:47.963Z</time>
      </trkpt>
      <trkpt lat="43.1819" lon="2.69102">
        <ele>141.671091</ele>
        <time>2023-01-05T14:20:49.963Z</time>
      </trkpt>
      <trkpt lat="43.18196" lon="2.69116">
        <ele>141.562694</ele>
        <time>2023-01-05T14:20:51.966Z</time>
      </trkpt>
      <trkpt lat="43.18201" lon="2.69132">
        <ele>141.443296</ele>
        <time>2023-01-05T14:20:53.936Z</time>
      </trkpt>
      <trkpt lat="43.18207" lon="2.69147">
        <ele>141.324513</ele>
        <time>2023-01-05T14:20:55.960Z</time>
      </trkpt>
      <trkpt lat="43.18212" lon="2.69163">
        <ele>141.207532</ele>
        <time>2023-01-05T14:20:57.942Z</time>
      </trkpt>
      <trkpt lat="43.18217" lon="2.69178">
        <ele>141.093189</ele>
        <time>2023-01-05T14:20:59.952Z</time>
      </trkpt>
      <trkpt lat="43.18223" lon="2.69193">
        <ele>140.976236</ele>
        <time>2023-01-05T14:21:01.968Z</time>
      </trkpt>
      <trkpt lat="43.18228" lon="2.69209">
        <ele>140.856998</ele>
        <time>2023-01-05T14:21:03.957Z</time>
      </trkpt>
      <trkpt lat="43.18233" lon="2.69225">
        <ele>140.736792</ele>
        <time>2023-01-05T14:21:05.966Z</time>
      </trkpt>
      <trkpt lat="43.18239" lon="2.6924">
        <ele>140.621507</ele>
        <time>2023-01-05T14:21:07.956Z</time>
      </trkpt>
      <trkpt lat="43.18244" lon="2.69256">
        <ele>140.499452</ele>
        <time>2023-01-05T14:21:09.944Z</time>
      </trkpt>
      <trkpt lat="43.1825" lon="2.69272">
        <ele>140.379205</ele>
        <time>2023-01-05T14:21:11.952Z</time>
      </trkpt>
      <trkpt lat="43.18256" lon="2.69288">
        <ele>140.278364</ele>
        <time>2023-01-05T14:21:13.956Z</time>
      </trkpt>
      <trkpt lat="43.18262" lon="2.69304">
        <ele>140.19198</ele>
        <time>2023-01-05T14:21:15.960Z</time>
      </trkpt>
      <trkpt lat="43.18267" lon="2.6932">
        <ele>140.107908</ele>
        <time>2023-01-05T14:21:17.965Z</time>
      </trkpt>
      <trkpt lat="43.18273" lon="2.69337">
        <ele>140.015757</ele>
        <time>2023-01-05T14:21:19.961Z</time>
      </trkpt>
      <trkpt lat="43.18279" lon="2.69354">
        <ele>139.924471</ele>
        <time>2023-01-05T14:21:21.968Z</time>
      </trkpt>
      <trkpt lat="43.18285" lon="2.69371">
        <ele>139.832461</ele>
        <time>2023-01-05T14:21:23.964Z</time>
      </trkpt>
      <trkpt lat="43.18292" lon="2.69388">
        <ele>139.738862</ele>
        <time>2023-01-05T14:21:25.965Z</time>
      </trkpt>
      <trkpt lat="43.18298" lon="2.69405">
        <ele>139.644909</ele>
        <time>2023-01-05T14:21:27.966Z</time>
      </trkpt>
      <trkpt lat="43.18305" lon="2.69423">
        <ele>139.548134</ele>
        <time>2023-01-05T14:21:29.964Z</time>
      </trkpt>
      <trkpt lat="43.18311" lon="2.69442">
        <ele>139.449324</ele>
        <time>2023-01-05T14:21:31.967Z</time>
      </trkpt>
      <trkpt lat="43.18318" lon="2.6946">
        <ele>139.35096</ele>
        <time>2023-01-05T14:21:33.954Z</time>
      </trkpt>
      <trkpt lat="43.18325" lon="2.69478">
        <ele>139.253288</ele>
        <time>2023-01-05T14:21:35.962Z</time>
      </trkpt>
      <trkpt lat="43.18331" lon="2.69497">
        <ele>139.153902</ele>
        <time>2023-01-05T14:21:37.957Z</time>
      </trkpt>
      <trkpt lat="43.18337" lon="2.69515">
        <ele>139.103112</ele>
        <time>2023-01-05T14:21:39.957Z</time>
      </trkpt>
      <trkpt lat="43.18344" lon="2.69534">
        <ele>139.060485</ele>
        <time>2023-01-05T14:21:41.938Z</time>
      </trkpt>
      <trkpt lat="43.1835" lon="2.69552">
        <ele>139.018665</ele>
        <time>2023-01-05T14:21:43.948Z</time>
      </trkpt>
      <trkpt lat="43.18357" lon="2.6957">
        <ele>138.976412</ele>
        <time>2023-01-05T14:21:45.964Z</time>
      </trkpt>
      <trkpt lat="43.18363" lon="2.69588">
        <ele>138.935519</ele>
        <time>2023-01-05T14:21:47.957Z</time>
      </trkpt>
      <trkpt lat="43.1837" lon="2.69606">
        <ele>138.894149</ele>
        <time>2023-01-05T14:21:49.966Z</time>
      </trkpt>
      <trkpt lat="43.18376" lon="2.69623">
        <ele>138.853254</ele>
        <time>2023-01-05T14:21:51.957Z</time>
      </trkpt>
      <trkpt lat="43.18383" lon="2.69641">
        <ele>138.812383</ele>
        <time>2023-01-05T14:21:53.957Z</time>
      </trkpt>
      <trkpt lat="43.18388" lon="2.69659">
        <ele>138.773213</ele>
        <time>2023-01-05T14:21:55.952Z</time>
      </trkpt>
      <trkpt lat="43.18395" lon="2.69676">
        <ele>138.731929</ele>
        <time>2023-01-05T14:21:57.961Z</time>
      </trkpt>
      <trkpt lat="43.18402" lon="2.69695">
        <ele>138.689489</ele>
        <time>2023-01-05T14:21:59.964Z</time>
      </trkpt>
      <trkpt lat="43.18408" lon="2.69713">
        <ele>138.648102</ele>
        <time>2023-01-05T14:22:01.965Z</time>
      </trkpt>
      <trkpt lat="43.18414" lon="2.69731">
        <ele>138.64058</ele>
        <time>2023-01-05T14:22:03.956Z</time>
      </trkpt>
      <trkpt lat="43.18421" lon="2.69749">
        <ele>138.665246</ele>
        <time>2023-01-05T14:22:05.962Z</time>
      </trkpt>
      <trkpt lat="43.18427" lon="2.69767">
        <ele>138.688821</ele>
        <time>2023-01-05T14:22:07.955Z</time>
      </trkpt>
      <trkpt lat="43.18434" lon="2.69785">
        <ele>138.71272</ele>
        <time>2023-01-05T14:22:09.964Z</time>
      </trkpt>
      <trkpt lat="43.1844" lon="2.69802">
        <ele>138.736121</ele>
        <time>2023-01-05T14:22:11.933Z</time>
      </trkpt>
      <trkpt lat="43.18446" lon="2.6982">
        <ele>138.759732</ele>
        <time>2023-01-05T14:22:13.955Z</time>
      </trkpt>
      <trkpt lat="43.18453" lon="2.69837">
        <ele>138.782555</ele>
        <time>2023-01-05T14:22:15.961Z</time>
      </trkpt>
      <trkpt lat="43.18458" lon="2.69853">
        <ele>138.80458</ele>
        <time>2023-01-05T14:22:17.963Z</time>
      </trkpt>
      <trkpt lat="43.18465" lon="2.6987">
        <ele>138.826792</ele>
        <time>2023-01-05T14:22:19.964Z</time>
      </trkpt>
      <trkpt lat="43.1847" lon="2.69886">
        <ele>138.848458</ele>
        <time>2023-01-05T14:22:21.952Z</time>
      </trkpt>
      <trkpt lat="43.18476" lon="2.69902">
        <ele>138.869876</ele>
        <time>2023-01-05T14:22:23.961Z</time>
      </trkpt>
      <trkpt lat="43.18482" lon="2.69919">
        <ele>138.891831</ele>
        <time>2023-01-05T14:22:25.965Z</time>
      </trkpt>
      <trkpt lat="43.18487" lon="2.69935">
        <ele>138.913316</ele>
        <time>2023-01-05T14:22:27.959Z</time>
      </trkpt>
      <trkpt lat="43.18493" lon="2.69951">
        <ele>138.834066</ele>
        <time>2023-01-05T14:22:29.958Z</time>
      </trkpt>
      <trkpt lat="43.18499" lon="2.69967">
        <ele>138.649433</ele>
        <time>2023-01-05T14:22:31.954Z</time>
      </trkpt>
      <trkpt lat="43.18505" lon="2.69983">
        <ele>138.466291</ele>
        <time>2023-01-05T14:22:33.960Z</time>
      </trkpt>
      <trkpt lat="43.18511" lon="2.69998">
        <ele>138.282234</ele>
        <time>2023-01-05T14:22:35.962Z</time>
      </trkpt>
      <trkpt lat="43.18516" lon="2.70015">
        <ele>138.098195</ele>
        <time>2023-01-05T14:22:37.962Z</time>
      </trkpt>
      <trkpt lat="43.18522" lon="2.70031">
        <ele>137.910963</ele>
        <time>2023-01-05T14:22:39.965Z</time>
      </trkpt>
      <trkpt lat="43.18527" lon="2.70047">
        <ele>137.730917</ele>
        <time>2023-01-05T14:22:41.959Z</time>
      </trkpt>
      <trkpt lat="43.18532" lon="2.70064">
        <ele>137.538384</ele>
        <time>2023-01-05T14:22:43.962Z</time>
      </trkpt>
      <trkpt lat="43.18537" lon="2.70081">
        <ele>137.349257</ele>
        <time>2023-01-05T14:22:45.961Z</time>
      </trkpt>
      <trkpt lat="43.18542" lon="2.70099">
        <ele>137.152174</ele>
        <time>2023-01-05T14:22:47.942Z</time>
      </trkpt>
      <trkpt lat="43.18547" lon="2.70116">
        <ele>136.958942</ele>
        <time>2023-01-05T14:22:49.957Z</time>
      </trkpt>
      <trkpt lat="43.18553" lon="2.70134">
        <ele>136.758903</ele>
        <time>2023-01-05T14:22:51.960Z</time>
      </trkpt>
      <trkpt lat="43.18557" lon="2.70153">
        <ele>136.558443</ele>
        <time>2023-01-05T14:22:53.963Z</time>
      </trkpt>
      <trkpt lat="43.18562" lon="2.70171">
        <ele>136.348069</ele>
        <time>2023-01-05T14:22:55.954Z</time>
      </trkpt>
      <trkpt lat="43.18567" lon="2.70189">
        <ele>135.972307</ele>
        <time>2023-01-05T14:22:57.965Z</time>
      </trkpt>
      <trkpt lat="43.18571" lon="2.70208">
        <ele>135.601392</ele>
        <time>2023-01-05T14:22:59.958Z</time>
      </trkpt>
      <trkpt lat="43.18574" lon="2.70227">
        <ele>135.23036</ele>
        <time>2023-01-05T14:23:01.967Z</time>
      </trkpt>
      <trkpt lat="43.18578" lon="2.70247">
        <ele>134.838345</ele>
        <time>2023-01-05T14:23:03.967Z</time>
      </trkpt>
      <trkpt lat="43.18581" lon="2.70265">
        <ele>134.472312</ele>
        <time>2023-01-05T14:23:05.954Z</time>
      </trkpt>
      <trkpt lat="43.18585" lon="2.70285">
        <ele>134.087052</ele>
        <time>2023-01-05T14:23:07.954Z</time>
      </trkpt>
      <trkpt lat="43.18588" lon="2.70305">
        <ele>133.689282</ele>
        <time>2023-01-05T14:23:09.936Z</time>
      </trkpt>
      <trkpt lat="43.18591" lon="2.70326">
        <ele>133.29338</ele>
        <time>2023-01-05T14:23:11.973Z</time>
      </trkpt>
      <trkpt lat="43.18594" lon="2.70347">
        <ele>132.879131</ele>
        <time>2023-01-05T14:23:13.956Z</time>
      </trkpt>
      <trkpt lat="43.18597" lon="2.70368">
        <ele>132.472091</ele>
        <time>2023-01-05T14:23:15.967Z</time>
      </trkpt>
      <trkpt lat="43.18601" lon="2.7039">
        <ele>132.04095</ele>
        <time>2023-01-05T14:23:17.953Z</time>
      </trkpt>
      <trkpt lat="43.18604" lon="2.70411">
        <ele>131.635912</ele>
        <time>2023-01-05T14:23:19.959Z</time>
      </trkpt>
      <trkpt lat="43.18606" lon="2.70432">
        <ele>131.37214</ele>
        <time>2023-01-05T14:23:21.938Z</time>
      </trkpt>
      <trkpt lat="43.18608" lon="2.70453">
        <ele>131.101909</ele>
        <time>2023-01-05T14:23:23.966Z</time>
      </trkpt>
      <trkpt lat="43.18611" lon="2.70476">
        <ele>130.818047</ele>
        <time>2023-01-05T14:23:25.953Z</time>
      </trkpt>
      <trkpt lat="43.18614" lon="2.70498">
        <ele>130.539084</ele>
        <time>2023-01-05T14:23:27.964Z</time>
      </trkpt>
      <trkpt lat="43.18616" lon="2.70519">
        <ele>130.265882</ele>
        <time>2023-01-05T14:23:29.969Z</time>
      </trkpt>
      <trkpt lat="43.18618" lon="2.70539">
        <ele>130.007319</ele>
        <time>2023-01-05T14:23:31.967Z</time>
      </trkpt>
      <trkpt lat="43.1862" lon="2.70561">
        <ele>129.732326</ele>
        <time>2023-01-05T14:23:33.963Z</time>
      </trkpt>
      <trkpt lat="43.18622" lon="2.70582">
        <ele>129.462596</ele>
        <time>2023-01-05T14:23:35.956Z</time>
      </trkpt>
      <trkpt lat="43.18624" lon="2.70604">
        <ele>129.189062</ele>
        <time>2023-01-05T14:23:37.963Z</time>
      </trkpt>
      <trkpt lat="43.18626" lon="2.70625">
        <ele>128.924565</ele>
        <time>2023-01-05T14:23:39.967Z</time>
      </trkpt>
      <trkpt lat="43.18628" lon="2.70646">
        <ele>128.654335</ele>
        <time>2023-01-05T14:23:41.964Z</time>
      </trkpt>
      <trkpt lat="43.18631" lon="2.70666">
        <ele>128.355621</ele>
        <time>2023-01-05T14:23:43.955Z</time>
      </trkpt>
      <trkpt lat="43.18633" lon="2.70686">
        <ele>128.045953</ele>
        <time>2023-01-05T14:23:45.952Z</time>
      </trkpt>
      <trkpt lat="43.18635" lon="2.70706">
        <ele>127.740878</ele>
        <time>2023-01-05T14:23:47.962Z</time>
      </trkpt>
      <trkpt lat="43.18637" lon="2.70725">
        <ele>127.432428</ele>
        <time>2023-01-05T14:23:49.937Z</time>
      </trkpt>
      <trkpt lat="43.18639" lon="2.70745">
        <ele>127.13436</ele>
        <time>2023-01-05T14:23:51.961Z</time>
      </trkpt>
      <trkpt lat="43.18641" lon="2.70764">
        <ele>126.830498</ele>
        <time>2023-01-05T14:23:53.964Z</time>
      </trkpt>
      <trkpt lat="43.18643" lon="2.70783">
        <ele>126.526549</ele>
        <time>2023-01-05T14:23:55.966Z</time>
      </trkpt>
      <trkpt lat="43.18645" lon="2.70803">
        <ele>126.213184</ele>
        <time>2023-01-05T14:23:57.954Z</time>
      </trkpt>
      <trkpt lat="43.18648" lon="2.70825">
        <ele>125.880811</ele>
        <time>2023-01-05T14:23:59.970Z</time>
      </trkpt>
      <trkpt lat="43.18649" lon="2.70845">
        <ele>125.564315</ele>
        <time>2023-01-05T14:24:01.937Z</time>
      </trkpt>
      <trkpt lat="43.18652" lon="2.70865">
        <ele>125.246031</ele>
        <time>2023-01-05T14:24:03.950Z</time>
      </trkpt>
      <trkpt lat="43.18654" lon="2.70885">
        <ele>124.930237</ele>
        <time>2023-01-05T14:24:05.956Z</time>
      </trkpt>
      <trkpt lat="43.18656" lon="2.70906">
        <ele>124.620607</ele>
        <time>2023-01-05T14:24:07.961Z</time>
      </trkpt>
      <trkpt lat="43.18658" lon="2.70924">
        <ele>124.33736</ele>
        <time>2023-01-05T14:24:09.963Z</time>
      </trkpt>
      <trkpt lat="43.18659" lon="2.70944">
        <ele>124.036869</ele>
        <time>2023-01-05T14:24:11.963Z</time>
      </trkpt>
      <trkpt lat="43.18661" lon="2.70965">
        <ele>123.724555</ele>
        <time>2023-01-05T14:24:13.960Z</time>
      </trkpt>
      <trkpt lat="43.18663" lon="2.70984">
        <ele>123.435597</ele>
        <time>2023-01-05T14:24:15.957Z</time>
      </trkpt>
      <trkpt lat="43.18666" lon="2.71004">
        <ele>123.145708</ele>
        <time>2023-01-05T14:24:17.962Z</time>
      </trkpt>
      <trkpt lat="43.18668" lon="2.71022">
        <ele>122.865597</ele>
        <time>2023-01-05T14:24:19.953Z</time>
      </trkpt>
      <trkpt lat="43.1867" lon="2.71041">
        <ele>122.587463</ele>
        <time>2023-01-05T14:24:21.958Z</time>
      </trkpt>
      <trkpt lat="43.18672" lon="2.7106">
        <ele>122.301455</ele>
        <time>2023-01-05T14:24:23.963Z</time>
      </trkpt>
      <trkpt lat="43.18674" lon="2.71079">
        <ele>122.009254</ele>
        <time>2023-01-05T14:24:25.955Z</time>
      </trkpt>
      <trkpt lat="43.18676" lon="2.71099">
        <ele>121.712224</ele>
        <time>2023-01-05T14:24:27.962Z</time>
      </trkpt>
      <trkpt lat="43.18678" lon="2.71119">
        <ele>121.404681</ele>
        <time>2023-01-05T14:24:29.965Z</time>
      </trkpt>
      <trkpt lat="43.1868" lon="2.71139">
        <ele>121.115509</ele>
        <time>2023-01-05T14:24:31.962Z</time>
      </trkpt>
      <trkpt lat="43.18682" lon="2.71159">
        <ele>121.041533</ele>
        <time>2023-01-05T14:24:33.939Z</time>
      </trkpt>
      <trkpt lat="43.18684" lon="2.71179">
        <ele>121.005868</ele>
        <time>2023-01-05T14:24:35.966Z</time>
      </trkpt>
      <trkpt lat="43.18685" lon="2.71198">
        <ele>120.972244</ele>
        <time>2023-01-05T14:24:37.968Z</time>
      </trkpt>
      <trkpt lat="43.18688" lon="2.71217">
        <ele>120.937721</ele>
        <time>2023-01-05T14:24:39.954Z</time>
      </trkpt>
      <trkpt lat="43.18689" lon="2.71236">
        <ele>120.904272</ele>
        <time>2023-01-05T14:24:41.954Z</time>
      </trkpt>
      <trkpt lat="43.18691" lon="2.71255">
        <ele>120.870503</ele>
        <time>2023-01-05T14:24:43.959Z</time>
      </trkpt>
      <trkpt lat="43.18693" lon="2.71274">
        <ele>120.837955</ele>
        <time>2023-01-05T14:24:45.960Z</time>
      </trkpt>
      <trkpt lat="43.18695" lon="2.71291">
        <ele>120.806878</ele>
        <time>2023-01-05T14:24:47.967Z</time>
      </trkpt>
      <trkpt lat="43.18696" lon="2.71309">
        <ele>120.776354</ele>
        <time>2023-01-05T14:24:49.965Z</time>
      </trkpt>
      <trkpt lat="43.18697" lon="2.71326">
        <ele>120.746505</ele>
        <time>2023-01-05T14:24:51.936Z</time>
      </trkpt>
      <trkpt lat="43.18699" lon="2.71341">
        <ele>120.718416</ele>
        <time>2023-01-05T14:24:53.959Z</time>
      </trkpt>
      <trkpt lat="43.18701" lon="2.71357">
        <ele>120.690068</ele>
        <time>2023-01-05T14:24:55.944Z</time>
      </trkpt>
      <trkpt lat="43.18703" lon="2.71372">
        <ele>120.663361</ele>
        <time>2023-01-05T14:24:57.964Z</time>
      </trkpt>
      <trkpt lat="43.18704" lon="2.71386">
        <ele>120.642447</ele>
        <time>2023-01-05T14:24:59.953Z</time>
      </trkpt>
      <trkpt lat="43.18706" lon="2.714">
        <ele>120.7194</ele>
        <time>2023-01-05T14:25:01.957Z</time>
      </trkpt>
      <trkpt lat="43.18707" lon="2.71412">
        <ele>120.793657</ele>
        <time>2023-01-05T14:25:03.960Z</time>
      </trkpt>
      <trkpt lat="43.18708" lon="2.71425">
        <ele>120.866048</ele>
        <time>2023-01-05T14:25:05.936Z</time>
      </trkpt>
      <trkpt lat="43.1871" lon="2.71444">
        <ele>120.974117</ele>
        <time>2023-01-05T14:25:08.940Z</time>
      </trkpt>
      <trkpt lat="43.18711" lon="2.71457">
        <ele>121.048949</ele>
        <time>2023-01-05T14:25:10.953Z</time>
      </trkpt>
      <trkpt lat="43.18712" lon="2.7147">
        <ele>121.124055</ele>
        <time>2023-01-05T14:25:12.949Z</time>
      </trkpt>
      <trkpt lat="43.18714" lon="2.71488">
        <ele>121.226511</ele>
        <time>2023-01-05T14:25:15.937Z</time>
      </trkpt>
      <trkpt lat="43.18716" lon="2.71504">
        <ele>121.320243</ele>
        <time>2023-01-05T14:25:19.937Z</time>
      </trkpt>
      <trkpt lat="43.18718" lon="2.71518">
        <ele>121.402743</ele>
        <time>2023-01-05T14:25:22.958Z</time>
      </trkpt>
      <trkpt lat="43.18719" lon="2.71533">
        <ele>121.489595</ele>
        <time>2023-01-05T14:25:25.963Z</time>
      </trkpt>
      <trkpt lat="43.18721" lon="2.71549">
        <ele>121.581009</ele>
        <time>2023-01-05T14:25:28.955Z</time>
      </trkpt>
      <trkpt lat="43.18723" lon="2.71566">
        <ele>121.680035</ele>
        <time>2023-01-05T14:25:31.956Z</time>
      </trkpt>
      <trkpt lat="43.18724" lon="2.71583">
        <ele>121.780048</ele>
        <time>2023-01-05T14:25:34.939Z</time>
      </trkpt>
      <trkpt lat="43.18725" lon="2.71597">
        <ele>121.857152</ele>
        <time>2023-01-05T14:25:38.945Z</time>
      </trkpt>
      <trkpt lat="43.18726" lon="2.71598">
        <ele>121.86522</ele>
        <time>2023-01-05T14:26:06.264Z</time>
      </trkpt>
      <trkpt lat="43.18731" lon="2.71613">
        <ele>121.962657</ele>
        <time>2023-01-05T14:28:37.945Z</time>
      </trkpt>
      <trkpt lat="43.18733" lon="2.71626">
        <ele>122.034715</ele>
        <time>2023-01-05T14:28:41.957Z</time>
      </trkpt>
      <trkpt lat="43.18735" lon="2.71642">
        <ele>122.013356</ele>
        <time>2023-01-05T14:28:45.964Z</time>
      </trkpt>
      <trkpt lat="43.18736" lon="2.71658">
        <ele>121.970287</ele>
        <time>2023-01-05T14:28:49.938Z</time>
      </trkpt>
      <trkpt lat="43.18738" lon="2.71672">
        <ele>121.930756</ele>
        <time>2023-01-05T14:28:54.938Z</time>
      </trkpt>
      <trkpt lat="43.18739" lon="2.71684">
        <ele>121.897486</ele>
        <time>2023-01-05T14:28:57.946Z</time>
      </trkpt>
      <trkpt lat="43.1874" lon="2.71698">
        <ele>121.859617</ele>
        <time>2023-01-05T14:29:00.948Z</time>
      </trkpt>
      <trkpt lat="43.18742" lon="2.71712">
        <ele>121.822009</ele>
        <time>2023-01-05T14:29:03.948Z</time>
      </trkpt>
      <trkpt lat="43.18743" lon="2.71726">
        <ele>121.782405</ele>
        <time>2023-01-05T14:29:06.953Z</time>
      </trkpt>
      <trkpt lat="43.18745" lon="2.71742">
        <ele>121.740774</ele>
        <time>2023-01-05T14:29:09.941Z</time>
      </trkpt>
      <trkpt lat="43.18746" lon="2.71758">
        <ele>121.69647</ele>
        <time>2023-01-05T14:29:12.946Z</time>
      </trkpt>
      <trkpt lat="43.18748" lon="2.71775">
        <ele>121.651048</ele>
        <time>2023-01-05T14:29:15.948Z</time>
      </trkpt>
      <trkpt lat="43.18749" lon="2.71792">
        <ele>121.603305</ele>
        <time>2023-01-05T14:29:18.956Z</time>
      </trkpt>
      <trkpt lat="43.18751" lon="2.7181">
        <ele>121.554626</ele>
        <time>2023-01-05T14:29:21.952Z</time>
      </trkpt>
      <trkpt lat="43.18754" lon="2.71829">
        <ele>121.502992</ele>
        <time>2023-01-05T14:29:24.940Z</time>
      </trkpt>
      <trkpt lat="43.18756" lon="2.71841">
        <ele>121.468888</ele>
        <time>2023-01-05T14:29:26.954Z</time>
      </trkpt>
      <trkpt lat="43.18756" lon="2.71855">
        <ele>121.433198</ele>
        <time>2023-01-05T14:29:28.966Z</time>
      </trkpt>
      <trkpt lat="43.18757" lon="2.71867">
        <ele>121.399726</ele>
        <time>2023-01-05T14:29:30.937Z</time>
      </trkpt>
      <trkpt lat="43.18758" lon="2.7188">
        <ele>121.268153</ele>
        <time>2023-01-05T14:29:32.964Z</time>
      </trkpt>
      <trkpt lat="43.18759" lon="2.71893">
        <ele>121.050525</ele>
        <time>2023-01-05T14:29:34.953Z</time>
      </trkpt>
      <trkpt lat="43.1876" lon="2.71906">
        <ele>120.829592</ele>
        <time>2023-01-05T14:29:36.959Z</time>
      </trkpt>
      <trkpt lat="43.18761" lon="2.71918">
        <ele>120.62488</ele>
        <time>2023-01-05T14:29:38.947Z</time>
      </trkpt>
      <trkpt lat="43.18763" lon="2.71931">
        <ele>120.399082</ele>
        <time>2023-01-05T14:29:40.952Z</time>
      </trkpt>
      <trkpt lat="43.18764" lon="2.71948">
        <ele>120.113986</ele>
        <time>2023-01-05T14:29:43.952Z</time>
      </trkpt>
      <trkpt lat="43.18765" lon="2.71961">
        <ele>119.902944</ele>
        <time>2023-01-05T14:29:45.955Z</time>
      </trkpt>
      <trkpt lat="43.18767" lon="2.71973">
        <ele>119.695177</ele>
        <time>2023-01-05T14:29:47.944Z</time>
      </trkpt>
      <trkpt lat="43.18768" lon="2.71986">
        <ele>119.482498</ele>
        <time>2023-01-05T14:29:49.960Z</time>
      </trkpt>
      <trkpt lat="43.1877" lon="2.71999">
        <ele>119.262649</ele>
        <time>2023-01-05T14:29:51.961Z</time>
      </trkpt>
      <trkpt lat="43.18772" lon="2.72016">
        <ele>118.978297</ele>
        <time>2023-01-05T14:29:54.963Z</time>
      </trkpt>
      <trkpt lat="43.18773" lon="2.72029">
        <ele>118.76234</ele>
        <time>2023-01-05T14:29:56.942Z</time>
      </trkpt>
      <trkpt lat="43.18775" lon="2.72042">
        <ele>118.542172</ele>
        <time>2023-01-05T14:29:58.965Z</time>
      </trkpt>
      <trkpt lat="43.18776" lon="2.72055">
        <ele>118.320359</ele>
        <time>2023-01-05T14:30:00.967Z</time>
      </trkpt>
      <trkpt lat="43.18778" lon="2.7207">
        <ele>118.063646</ele>
        <time>2023-01-05T14:30:02.957Z</time>
      </trkpt>
      <trkpt lat="43.18779" lon="2.72085">
        <ele>117.80991</ele>
        <time>2023-01-05T14:30:04.964Z</time>
      </trkpt>
      <trkpt lat="43.18781" lon="2.72101">
        <ele>117.543984</ele>
        <time>2023-01-05T14:30:06.942Z</time>
      </trkpt>
      <trkpt lat="43.18783" lon="2.72118">
        <ele>117.269112</ele>
        <time>2023-01-05T14:30:08.966Z</time>
      </trkpt>
      <trkpt lat="43.18785" lon="2.72135">
        <ele>117.073595</ele>
        <time>2023-01-05T14:30:10.970Z</time>
      </trkpt>
      <trkpt lat="43.18786" lon="2.72151">
        <ele>116.883124</ele>
        <time>2023-01-05T14:30:12.954Z</time>
      </trkpt>
      <trkpt lat="43.18788" lon="2.72166">
        <ele>116.703401</ele>
        <time>2023-01-05T14:30:14.957Z</time>
      </trkpt>
      <trkpt lat="43.18789" lon="2.72183">
        <ele>116.50991</ele>
        <time>2023-01-05T14:30:16.952Z</time>
      </trkpt>
      <trkpt lat="43.18791" lon="2.72198">
        <ele>116.334062</ele>
        <time>2023-01-05T14:30:18.959Z</time>
      </trkpt>
      <trkpt lat="43.18793" lon="2.72214">
        <ele>116.144503</ele>
        <time>2023-01-05T14:30:20.954Z</time>
      </trkpt>
      <trkpt lat="43.18794" lon="2.72232">
        <ele>115.941023</ele>
        <time>2023-01-05T14:30:22.960Z</time>
      </trkpt>
      <trkpt lat="43.18796" lon="2.72247">
        <ele>115.7578</ele>
        <time>2023-01-05T14:30:24.965Z</time>
      </trkpt>
      <trkpt lat="43.18798" lon="2.72264">
        <ele>115.562748</ele>
        <time>2023-01-05T14:30:26.946Z</time>
      </trkpt>
      <trkpt lat="43.188" lon="2.7228">
        <ele>115.372495</ele>
        <time>2023-01-05T14:30:28.958Z</time>
      </trkpt>
      <trkpt lat="43.18801" lon="2.72297">
        <ele>115.174929</ele>
        <time>2023-01-05T14:30:30.965Z</time>
      </trkpt>
      <trkpt lat="43.18803" lon="2.72313">
        <ele>114.983925</ele>
        <time>2023-01-05T14:30:32.956Z</time>
      </trkpt>
      <trkpt lat="43.18804" lon="2.7233">
        <ele>114.790434</ele>
        <time>2023-01-05T14:30:34.959Z</time>
      </trkpt>
      <trkpt lat="43.18806" lon="2.72345">
        <ele>114.614587</ele>
        <time>2023-01-05T14:30:36.958Z</time>
      </trkpt>
      <trkpt lat="43.18808" lon="2.7236">
        <ele>114.437847</ele>
        <time>2023-01-05T14:30:38.938Z</time>
      </trkpt>
      <trkpt lat="43.18809" lon="2.72376">
        <ele>114.473133</ele>
        <time>2023-01-05T14:30:40.959Z</time>
      </trkpt>
      <trkpt lat="43.1881" lon="2.72392">
        <ele>114.51909</ele>
        <time>2023-01-05T14:30:42.965Z</time>
      </trkpt>
      <trkpt lat="43.18812" lon="2.72408">
        <ele>114.566341</ele>
        <time>2023-01-05T14:30:44.948Z</time>
      </trkpt>
      <trkpt lat="43.18814" lon="2.72423">
        <ele>114.610565</ele>
        <time>2023-01-05T14:30:46.962Z</time>
      </trkpt>
      <trkpt lat="43.18815" lon="2.72439">
        <ele>114.656948</ele>
        <time>2023-01-05T14:30:48.955Z</time>
      </trkpt>
      <trkpt lat="43.18817" lon="2.72454">
        <ele>114.701306</ele>
        <time>2023-01-05T14:30:50.967Z</time>
      </trkpt>
      <trkpt lat="43.18818" lon="2.7247">
        <ele>114.746071</ele>
        <time>2023-01-05T14:30:52.958Z</time>
      </trkpt>
      <trkpt lat="43.18819" lon="2.72485">
        <ele>114.789444</ele>
        <time>2023-01-05T14:30:54.961Z</time>
      </trkpt>
      <trkpt lat="43.18821" lon="2.72499">
        <ele>114.832949</ele>
        <time>2023-01-05T14:30:56.962Z</time>
      </trkpt>
      <trkpt lat="43.18823" lon="2.72514">
        <ele>114.877173</ele>
        <time>2023-01-05T14:30:58.959Z</time>
      </trkpt>
      <trkpt lat="43.18825" lon="2.72529">
        <ele>114.919398</ele>
        <time>2023-01-05T14:31:00.935Z</time>
      </trkpt>
      <trkpt lat="43.18826" lon="2.72543">
        <ele>114.960242</ele>
        <time>2023-01-05T14:31:02.960Z</time>
      </trkpt>
      <trkpt lat="43.18827" lon="2.72556">
        <ele>114.997366</ele>
        <time>2023-01-05T14:31:04.936Z</time>
      </trkpt>
      <trkpt lat="43.18829" lon="2.72569">
        <ele>115.036962</ele>
        <time>2023-01-05T14:31:06.958Z</time>
      </trkpt>
      <trkpt lat="43.1883" lon="2.72582">
        <ele>115.075775</ele>
        <time>2023-01-05T14:31:08.939Z</time>
      </trkpt>
      <trkpt lat="43.18831" lon="2.72596">
        <ele>115.116109</ele>
        <time>2023-01-05T14:31:10.943Z</time>
      </trkpt>
      <trkpt lat="43.18833" lon="2.7261">
        <ele>115.259207</ele>
        <time>2023-01-05T14:31:12.959Z</time>
      </trkpt>
      <trkpt lat="43.18834" lon="2.72623">
        <ele>115.605882</ele>
        <time>2023-01-05T14:31:14.970Z</time>
      </trkpt>
      <trkpt lat="43.18836" lon="2.72636">
        <ele>115.945</ele>
        <time>2023-01-05T14:31:16.955Z</time>
      </trkpt>
      <trkpt lat="43.18837" lon="2.72649">
        <ele>116.2816</ele>
        <time>2023-01-05T14:31:18.947Z</time>
      </trkpt>
      <trkpt lat="43.18839" lon="2.72662">
        <ele>116.615818</ele>
        <time>2023-01-05T14:31:20.968Z</time>
      </trkpt>
      <trkpt lat="43.18841" lon="2.72675">
        <ele>116.952533</ele>
        <time>2023-01-05T14:31:22.951Z</time>
      </trkpt>
      <trkpt lat="43.18844" lon="2.72693">
        <ele>117.426034</ele>
        <time>2023-01-05T14:31:25.960Z</time>
      </trkpt>
      <trkpt lat="43.18846" lon="2.72711">
        <ele>117.899005</ele>
        <time>2023-01-05T14:31:28.961Z</time>
      </trkpt>
      <trkpt lat="43.18849" lon="2.72727">
        <ele>118.322592</ele>
        <time>2023-01-05T14:31:31.948Z</time>
      </trkpt>
      <trkpt lat="43.18852" lon="2.72743">
        <ele>118.722167</ele>
        <time>2023-01-05T14:31:34.958Z</time>
      </trkpt>
      <trkpt lat="43.18856" lon="2.72756">
        <ele>119.088113</ele>
        <time>2023-01-05T14:31:37.963Z</time>
      </trkpt>
      <trkpt lat="43.18859" lon="2.72769">
        <ele>119.444318</ele>
        <time>2023-01-05T14:31:40.965Z</time>
      </trkpt>
      <trkpt lat="43.18863" lon="2.72782">
        <ele>119.798503</ele>
        <time>2023-01-05T14:31:43.966Z</time>
      </trkpt>
      <trkpt lat="43.18866" lon="2.72795">
        <ele>120.151113</ele>
        <time>2023-01-05T14:31:46.947Z</time>
      </trkpt>
      <trkpt lat="43.1887" lon="2.72807">
        <ele>120.482406</ele>
        <time>2023-01-05T14:31:49.945Z</time>
      </trkpt>
      <trkpt lat="43.18874" lon="2.72819">
        <ele>120.816427</ele>
        <time>2023-01-05T14:31:52.953Z</time>
      </trkpt>
      <trkpt lat="43.18877" lon="2.72831">
        <ele>121.135621</ele>
        <time>2023-01-05T14:31:55.954Z</time>
      </trkpt>
      <trkpt lat="43.18882" lon="2.72846">
        <ele>121.565608</ele>
        <time>2023-01-05T14:31:59.958Z</time>
      </trkpt>
      <trkpt lat="43.18886" lon="2.72859">
        <ele>122.000688</ele>
        <time>2023-01-05T14:32:03.966Z</time>
      </trkpt>
      <trkpt lat="43.18891" lon="2.72872">
        <ele>122.414128</ele>
        <time>2023-01-05T14:32:07.965Z</time>
      </trkpt>
      <trkpt lat="43.18896" lon="2.72884">
        <ele>122.807235</ele>
        <time>2023-01-05T14:32:11.966Z</time>
      </trkpt>
      <trkpt lat="43.18901" lon="2.72895">
        <ele>123.188905</ele>
        <time>2023-01-05T14:32:15.944Z</time>
      </trkpt>
      <trkpt lat="43.18906" lon="2.72907">
        <ele>123.591541</ele>
        <time>2023-01-05T14:32:19.963Z</time>
      </trkpt>
      <trkpt lat="43.18911" lon="2.72919">
        <ele>124.003749</ele>
        <time>2023-01-05T14:32:23.940Z</time>
      </trkpt>
      <trkpt lat="43.18917" lon="2.72932">
        <ele>124.432036</ele>
        <time>2023-01-05T14:32:27.961Z</time>
      </trkpt>
      <trkpt lat="43.18922" lon="2.72944">
        <ele>124.856353</ele>
        <time>2023-01-05T14:32:31.962Z</time>
      </trkpt>
      <trkpt lat="43.18927" lon="2.72957">
        <ele>125.280923</ele>
        <time>2023-01-05T14:32:35.963Z</time>
      </trkpt>
      <trkpt lat="43.18933" lon="2.72968">
        <ele>125.672082</ele>
        <time>2023-01-05T14:32:39.965Z</time>
      </trkpt>
      <trkpt lat="43.18939" lon="2.72979">
        <ele>126.084838</ele>
        <time>2023-01-05T14:32:43.952Z</time>
      </trkpt>
      <trkpt lat="43.18946" lon="2.7299">
        <ele>126.499378</ele>
        <time>2023-01-05T14:32:47.961Z</time>
      </trkpt>
      <trkpt lat="43.18953" lon="2.73001">
        <ele>126.932182</ele>
        <time>2023-01-05T14:32:51.970Z</time>
      </trkpt>
      <trkpt lat="43.1896" lon="2.73012">
        <ele>127.363344</ele>
        <time>2023-01-05T14:32:55.967Z</time>
      </trkpt>
      <trkpt lat="43.18967" lon="2.73023">
        <ele>127.793502</ele>
        <time>2023-01-05T14:32:59.955Z</time>
      </trkpt>
      <trkpt lat="43.18975" lon="2.73033">
        <ele>128.21129</ele>
        <time>2023-01-05T14:33:03.938Z</time>
      </trkpt>
      <trkpt lat="43.18982" lon="2.73043">
        <ele>128.622785</ele>
        <time>2023-01-05T14:33:07.963Z</time>
      </trkpt>
      <trkpt lat="43.18989" lon="2.73053">
        <ele>128.804625</ele>
        <time>2023-01-05T14:33:11.950Z</time>
      </trkpt>
      <trkpt lat="43.18996" lon="2.73063">
        <ele>128.988783</ele>
        <time>2023-01-05T14:33:15.957Z</time>
      </trkpt>
      <trkpt lat="43.19003" lon="2.73073">
        <ele>129.17567</ele>
        <time>2023-01-05T14:33:19.965Z</time>
      </trkpt>
      <trkpt lat="43.1901" lon="2.73083">
        <ele>129.356893</ele>
        <time>2023-01-05T14:33:23.962Z</time>
      </trkpt>
      <trkpt lat="43.19018" lon="2.73094">
        <ele>129.549116</ele>
        <time>2023-01-05T14:33:27.967Z</time>
      </trkpt>
      <trkpt lat="43.19025" lon="2.73104">
        <ele>129.739733</ele>
        <time>2023-01-05T14:33:31.961Z</time>
      </trkpt>
      <trkpt lat="43.19033" lon="2.73114">
        <ele>129.936245</ele>
        <time>2023-01-05T14:33:35.956Z</time>
      </trkpt>
      <trkpt lat="43.19042" lon="2.73125">
        <ele>130.142983</ele>
        <time>2023-01-05T14:33:39.953Z</time>
      </trkpt>
      <trkpt lat="43.19048" lon="2.73134">
        <ele>130.306955</ele>
        <time>2023-01-05T14:33:42.955Z</time>
      </trkpt>
      <trkpt lat="43.19055" lon="2.73144">
        <ele>130.480991</ele>
        <time>2023-01-05T14:33:45.960Z</time>
      </trkpt>
      <trkpt lat="43.19062" lon="2.73153">
        <ele>130.659443</ele>
        <time>2023-01-05T14:33:48.937Z</time>
      </trkpt>
      <trkpt lat="43.19069" lon="2.73165">
        <ele>130.861833</ele>
        <time>2023-01-05T14:33:51.940Z</time>
      </trkpt>
      <trkpt lat="43.19077" lon="2.73176">
        <ele>131.06858</ele>
        <time>2023-01-05T14:33:54.967Z</time>
      </trkpt>
      <trkpt lat="43.19085" lon="2.73188">
        <ele>131.278263</ele>
        <time>2023-01-05T14:33:57.959Z</time>
      </trkpt>
      <trkpt lat="43.19092" lon="2.73201">
        <ele>131.484048</ele>
        <time>2023-01-05T14:34:00.968Z</time>
      </trkpt>
      <trkpt lat="43.19099" lon="2.73213">
        <ele>131.693971</ele>
        <time>2023-01-05T14:34:03.959Z</time>
      </trkpt>
      <trkpt lat="43.19106" lon="2.73226">
        <ele>131.812448</ele>
        <time>2023-01-05T14:34:06.933Z</time>
      </trkpt>
      <trkpt lat="43.19114" lon="2.73239">
        <ele>131.554247</ele>
        <time>2023-01-05T14:34:09.966Z</time>
      </trkpt>
      <trkpt lat="43.19122" lon="2.73253">
        <ele>131.272365</ele>
        <time>2023-01-05T14:34:12.966Z</time>
      </trkpt>
      <trkpt lat="43.1913" lon="2.73268">
        <ele>130.991781</ele>
        <time>2023-01-05T14:34:15.962Z</time>
      </trkpt>
      <trkpt lat="43.19135" lon="2.73278">
        <ele>130.793857</ele>
        <time>2023-01-05T14:34:17.966Z</time>
      </trkpt>
      <trkpt lat="43.1914" lon="2.73289">
        <ele>130.600919</ele>
        <time>2023-01-05T14:34:19.957Z</time>
      </trkpt>
      <trkpt lat="43.19146" lon="2.73299">
        <ele>130.406765</ele>
        <time>2023-01-05T14:34:21.947Z</time>
      </trkpt>
      <trkpt lat="43.19154" lon="2.73313">
        <ele>130.124825</ele>
        <time>2023-01-05T14:34:24.954Z</time>
      </trkpt>
      <trkpt lat="43.19162" lon="2.73327">
        <ele>129.845233</ele>
        <time>2023-01-05T14:34:27.957Z</time>
      </trkpt>
      <trkpt lat="43.19167" lon="2.73338">
        <ele>129.64731</ele>
        <time>2023-01-05T14:34:29.969Z</time>
      </trkpt>
      <trkpt lat="43.19173" lon="2.73349">
        <ele>129.430349</ele>
        <time>2023-01-05T14:34:31.949Z</time>
      </trkpt>
      <trkpt lat="43.19179" lon="2.7336">
        <ele>129.216148</ele>
        <time>2023-01-05T14:34:33.971Z</time>
      </trkpt>
      <trkpt lat="43.19185" lon="2.73373">
        <ele>128.976745</ele>
        <time>2023-01-05T14:34:35.940Z</time>
      </trkpt>
      <trkpt lat="43.19192" lon="2.73386">
        <ele>128.728628</ele>
        <time>2023-01-05T14:34:37.968Z</time>
      </trkpt>
      <trkpt lat="43.19199" lon="2.73401">
        <ele>128.455557</ele>
        <time>2023-01-05T14:34:39.968Z</time>
      </trkpt>
      <trkpt lat="43.19207" lon="2.73415">
        <ele>128.176224</ele>
        <time>2023-01-05T14:34:41.957Z</time>
      </trkpt>
      <trkpt lat="43.19215" lon="2.73429">
        <ele>127.772064</ele>
        <time>2023-01-05T14:34:43.963Z</time>
      </trkpt>
      <trkpt lat="43.19224" lon="2.73446">
        <ele>127.177784</ele>
        <time>2023-01-05T14:34:45.958Z</time>
      </trkpt>
      <trkpt lat="43.19233" lon="2.73464">
        <ele>126.564912</ele>
        <time>2023-01-05T14:34:47.953Z</time>
      </trkpt>
      <trkpt lat="43.19242" lon="2.73482">
        <ele>125.954242</ele>
        <time>2023-01-05T14:34:49.939Z</time>
      </trkpt>
      <trkpt lat="43.19251" lon="2.735">
        <ele>125.327784</ele>
        <time>2023-01-05T14:34:51.962Z</time>
      </trkpt>
      <trkpt lat="43.19259" lon="2.73518">
        <ele>124.711879</ele>
        <time>2023-01-05T14:34:53.957Z</time>
      </trkpt>
      <trkpt lat="43.19269" lon="2.73536">
        <ele>124.057703</ele>
        <time>2023-01-05T14:34:55.962Z</time>
      </trkpt>
      <trkpt lat="43.19279" lon="2.73556">
        <ele>123.3846</ele>
        <time>2023-01-05T14:34:57.960Z</time>
      </trkpt>
      <trkpt lat="43.19289" lon="2.73574">
        <ele>122.725632</ele>
        <time>2023-01-05T14:34:59.957Z</time>
      </trkpt>
      <trkpt lat="43.19294" lon="2.73584">
        <ele>122.364985</ele>
        <time>2023-01-05T14:35:00.939Z</time>
      </trkpt>
      <trkpt lat="43.19299" lon="2.73595">
        <ele>122.004231</ele>
        <time>2023-01-05T14:35:01.964Z</time>
      </trkpt>
      <trkpt lat="43.19309" lon="2.73616">
        <ele>121.282158</ele>
        <time>2023-01-05T14:35:03.964Z</time>
      </trkpt>
      <trkpt lat="43.19314" lon="2.73628">
        <ele>120.928413</ele>
        <time>2023-01-05T14:35:04.961Z</time>
      </trkpt>
      <trkpt lat="43.19318" lon="2.73639">
        <ele>120.663852</ele>
        <time>2023-01-05T14:35:05.969Z</time>
      </trkpt>
      <trkpt lat="43.19323" lon="2.73651">
        <ele>120.385056</ele>
        <time>2023-01-05T14:35:06.955Z</time>
      </trkpt>
      <trkpt lat="43.19328" lon="2.73663">
        <ele>120.111576</ele>
        <time>2023-01-05T14:35:07.968Z</time>
      </trkpt>
      <trkpt lat="43.19332" lon="2.73676">
        <ele>119.827751</ele>
        <time>2023-01-05T14:35:08.957Z</time>
      </trkpt>
      <trkpt lat="43.19337" lon="2.73689">
        <ele>119.539703</ele>
        <time>2023-01-05T14:35:09.951Z</time>
      </trkpt>
      <trkpt lat="43.19341" lon="2.73701">
        <ele>119.249828</ele>
        <time>2023-01-05T14:35:10.964Z</time>
      </trkpt>
      <trkpt lat="43.19345" lon="2.73715">
        <ele>118.954916</ele>
        <time>2023-01-05T14:35:11.956Z</time>
      </trkpt>
      <trkpt lat="43.1935" lon="2.73728">
        <ele>118.659259</ele>
        <time>2023-01-05T14:35:12.960Z</time>
      </trkpt>
      <trkpt lat="43.19354" lon="2.73742">
        <ele>118.355808</ele>
        <time>2023-01-05T14:35:13.960Z</time>
      </trkpt>
      <trkpt lat="43.19358" lon="2.73755">
        <ele>118.057497</ele>
        <time>2023-01-05T14:35:14.935Z</time>
      </trkpt>
      <trkpt lat="43.19362" lon="2.73769">
        <ele>117.756244</ele>
        <time>2023-01-05T14:35:15.966Z</time>
      </trkpt>
      <trkpt lat="43.19367" lon="2.73783">
        <ele>117.453904</ele>
        <time>2023-01-05T14:35:16.936Z</time>
      </trkpt>
      <trkpt lat="43.19371" lon="2.73797">
        <ele>117.144319</ele>
        <time>2023-01-05T14:35:17.949Z</time>
      </trkpt>
      <trkpt lat="43.19374" lon="2.73811">
        <ele>116.840562</ele>
        <time>2023-01-05T14:35:18.942Z</time>
      </trkpt>
      <trkpt lat="43.19378" lon="2.73825">
        <ele>116.544332</ele>
        <time>2023-01-05T14:35:19.957Z</time>
      </trkpt>
      <trkpt lat="43.19382" lon="2.73838">
        <ele>116.251</ele>
        <time>2023-01-05T14:35:20.938Z</time>
      </trkpt>
      <trkpt lat="43.19386" lon="2.73852">
        <ele>115.972191</ele>
        <time>2023-01-05T14:35:21.950Z</time>
      </trkpt>
      <trkpt lat="43.19389" lon="2.73865">
        <ele>115.859763</ele>
        <time>2023-01-05T14:35:22.960Z</time>
      </trkpt>
      <trkpt lat="43.19393" lon="2.73877">
        <ele>115.750954</ele>
        <time>2023-01-05T14:35:23.964Z</time>
      </trkpt>
      <trkpt lat="43.19397" lon="2.73889">
        <ele>115.640648</ele>
        <time>2023-01-05T14:35:24.958Z</time>
      </trkpt>
      <trkpt lat="43.19401" lon="2.73901">
        <ele>115.534857</ele>
        <time>2023-01-05T14:35:25.955Z</time>
      </trkpt>
      <trkpt lat="43.19406" lon="2.73912">
        <ele>115.429067</ele>
        <time>2023-01-05T14:35:26.960Z</time>
      </trkpt>
      <trkpt lat="43.1941" lon="2.73924">
        <ele>115.323179</ele>
        <time>2023-01-05T14:35:27.966Z</time>
      </trkpt>
      <trkpt lat="43.19415" lon="2.73935">
        <ele>115.216356</ele>
        <time>2023-01-05T14:35:28.962Z</time>
      </trkpt>
      <trkpt lat="43.1942" lon="2.73945">
        <ele>115.115281</ele>
        <time>2023-01-05T14:35:29.963Z</time>
      </trkpt>
      <trkpt lat="43.19425" lon="2.73956">
        <ele>115.012905</ele>
        <time>2023-01-05T14:35:30.966Z</time>
      </trkpt>
      <trkpt lat="43.19436" lon="2.73975">
        <ele>114.812201</ele>
        <time>2023-01-05T14:35:32.943Z</time>
      </trkpt>
      <trkpt lat="43.19447" lon="2.73992">
        <ele>114.622332</ele>
        <time>2023-01-05T14:35:34.939Z</time>
      </trkpt>
      <trkpt lat="43.19459" lon="2.74009">
        <ele>114.435692</ele>
        <time>2023-01-05T14:35:36.938Z</time>
      </trkpt>
      <trkpt lat="43.19471" lon="2.74024">
        <ele>114.255436</ele>
        <time>2023-01-05T14:35:38.957Z</time>
      </trkpt>
      <trkpt lat="43.19483" lon="2.74035">
        <ele>114.091399</ele>
        <time>2023-01-05T14:35:40.943Z</time>
      </trkpt>
      <trkpt lat="43.19494" lon="2.74047">
        <ele>113.988681</ele>
        <time>2023-01-05T14:35:42.957Z</time>
      </trkpt>
      <trkpt lat="43.19506" lon="2.74058">
        <ele>114.097768</ele>
        <time>2023-01-05T14:35:44.964Z</time>
      </trkpt>
      <trkpt lat="43.19518" lon="2.74068">
        <ele>114.201553</ele>
        <time>2023-01-05T14:35:46.956Z</time>
      </trkpt>
      <trkpt lat="43.1953" lon="2.74079">
        <ele>114.308139</ele>
        <time>2023-01-05T14:35:48.964Z</time>
      </trkpt>
      <trkpt lat="43.19542" lon="2.7409">
        <ele>114.416268</ele>
        <time>2023-01-05T14:35:50.958Z</time>
      </trkpt>
      <trkpt lat="43.19554" lon="2.74101">
        <ele>114.531591</ele>
        <time>2023-01-05T14:35:52.961Z</time>
      </trkpt>
      <trkpt lat="43.19567" lon="2.74112">
        <ele>114.642847</ele>
        <time>2023-01-05T14:35:54.953Z</time>
      </trkpt>
      <trkpt lat="43.19579" lon="2.74123">
        <ele>114.750066</ele>
        <time>2023-01-05T14:35:56.962Z</time>
      </trkpt>
      <trkpt lat="43.1959" lon="2.74134">
        <ele>114.85726</ele>
        <time>2023-01-05T14:35:58.962Z</time>
      </trkpt>
      <trkpt lat="43.19602" lon="2.74145">
        <ele>114.965069</ele>
        <time>2023-01-05T14:36:00.956Z</time>
      </trkpt>
      <trkpt lat="43.19613" lon="2.74155">
        <ele>115.065087</ele>
        <time>2023-01-05T14:36:02.963Z</time>
      </trkpt>
      <trkpt lat="43.19623" lon="2.74165">
        <ele>115.160797</ele>
        <time>2023-01-05T14:36:04.935Z</time>
      </trkpt>
      <trkpt lat="43.19633" lon="2.74176">
        <ele>115.2559</ele>
        <time>2023-01-05T14:36:06.952Z</time>
      </trkpt>
      <trkpt lat="43.19642" lon="2.74187">
        <ele>115.272094</ele>
        <time>2023-01-05T14:36:08.942Z</time>
      </trkpt>
      <trkpt lat="43.19651" lon="2.74198">
        <ele>115.065973</ele>
        <time>2023-01-05T14:36:10.966Z</time>
      </trkpt>
      <trkpt lat="43.19659" lon="2.74209">
        <ele>114.869784</ele>
        <time>2023-01-05T14:36:12.965Z</time>
      </trkpt>
      <trkpt lat="43.19667" lon="2.74221">
        <ele>114.668161</ele>
        <time>2023-01-05T14:36:14.967Z</time>
      </trkpt>
      <trkpt lat="43.19675" lon="2.74233">
        <ele>114.466083</ele>
        <time>2023-01-05T14:36:16.968Z</time>
      </trkpt>
      <trkpt lat="43.19682" lon="2.74245">
        <ele>114.26691</ele>
        <time>2023-01-05T14:36:18.968Z</time>
      </trkpt>
      <trkpt lat="43.19688" lon="2.74257">
        <ele>114.081039</ele>
        <time>2023-01-05T14:36:20.957Z</time>
      </trkpt>
      <trkpt lat="43.19696" lon="2.7427">
        <ele>113.878523</ele>
        <time>2023-01-05T14:36:22.957Z</time>
      </trkpt>
      <trkpt lat="43.19703" lon="2.74282">
        <ele>113.681231</ele>
        <time>2023-01-05T14:36:24.966Z</time>
      </trkpt>
      <trkpt lat="43.1971" lon="2.74295">
        <ele>113.47688</ele>
        <time>2023-01-05T14:36:26.941Z</time>
      </trkpt>
      <trkpt lat="43.19718" lon="2.74309">
        <ele>113.244269</ele>
        <time>2023-01-05T14:36:28.962Z</time>
      </trkpt>
      <trkpt lat="43.19726" lon="2.74323">
        <ele>113.024789</ele>
        <time>2023-01-05T14:36:30.960Z</time>
      </trkpt>
      <trkpt lat="43.19734" lon="2.74338">
        <ele>112.797264</ele>
        <time>2023-01-05T14:36:32.965Z</time>
      </trkpt>
      <trkpt lat="43.19743" lon="2.74353">
        <ele>112.553477</ele>
        <time>2023-01-05T14:36:34.964Z</time>
      </trkpt>
      <trkpt lat="43.19751" lon="2.74368">
        <ele>112.314775</ele>
        <time>2023-01-05T14:36:36.940Z</time>
      </trkpt>
      <trkpt lat="43.1976" lon="2.74384">
        <ele>112.0937</ele>
        <time>2023-01-05T14:36:38.940Z</time>
      </trkpt>
      <trkpt lat="43.19768" lon="2.74401">
        <ele>111.885706</ele>
        <time>2023-01-05T14:36:40.950Z</time>
      </trkpt>
      <trkpt lat="43.19776" lon="2.74418">
        <ele>111.673748</ele>
        <time>2023-01-05T14:36:42.963Z</time>
      </trkpt>
      <trkpt lat="43.19784" lon="2.74436">
        <ele>111.459217</ele>
        <time>2023-01-05T14:36:44.944Z</time>
      </trkpt>
      <trkpt lat="43.19791" lon="2.74455">
        <ele>111.247266</ele>
        <time>2023-01-05T14:36:46.967Z</time>
      </trkpt>
      <trkpt lat="43.19798" lon="2.74474">
        <ele>111.027846</ele>
        <time>2023-01-05T14:36:48.958Z</time>
      </trkpt>
      <trkpt lat="43.19804" lon="2.74493">
        <ele>110.808598</ele>
        <time>2023-01-05T14:36:50.955Z</time>
      </trkpt>
      <trkpt lat="43.1981" lon="2.74513">
        <ele>110.595072</ele>
        <time>2023-01-05T14:36:52.963Z</time>
      </trkpt>
      <trkpt lat="43.19814" lon="2.74532">
        <ele>110.383956</ele>
        <time>2023-01-05T14:36:54.969Z</time>
      </trkpt>
      <trkpt lat="43.19819" lon="2.74552">
        <ele>110.170766</ele>
        <time>2023-01-05T14:36:56.956Z</time>
      </trkpt>
      <trkpt lat="43.19822" lon="2.74572">
        <ele>109.959008</ele>
        <time>2023-01-05T14:36:58.971Z</time>
      </trkpt>
      <trkpt lat="43.19825" lon="2.74592">
        <ele>109.752137</ele>
        <time>2023-01-05T14:37:00.957Z</time>
      </trkpt>
      <trkpt lat="43.19827" lon="2.74611">
        <ele>109.547695</ele>
        <time>2023-01-05T14:37:02.937Z</time>
      </trkpt>
      <trkpt lat="43.1983" lon="2.74632">
        <ele>109.332781</ele>
        <time>2023-01-05T14:37:04.956Z</time>
      </trkpt>
      <trkpt lat="43.19831" lon="2.74653">
        <ele>109.121765</ele>
        <time>2023-01-05T14:37:06.956Z</time>
      </trkpt>
      <trkpt lat="43.19834" lon="2.74674">
        <ele>108.908652</ele>
        <time>2023-01-05T14:37:08.966Z</time>
      </trkpt>
      <trkpt lat="43.19835" lon="2.74694">
        <ele>108.701088</ele>
        <time>2023-01-05T14:37:10.964Z</time>
      </trkpt>
      <trkpt lat="43.19838" lon="2.74715">
        <ele>108.493053</ele>
        <time>2023-01-05T14:37:12.963Z</time>
      </trkpt>
      <trkpt lat="43.1984" lon="2.74735">
        <ele>108.282729</ele>
        <time>2023-01-05T14:37:14.939Z</time>
      </trkpt>
      <trkpt lat="43.19844" lon="2.74755">
        <ele>108.077144</ele>
        <time>2023-01-05T14:37:16.939Z</time>
      </trkpt>
      <trkpt lat="43.19849" lon="2.74774">
        <ele>107.874232</ele>
        <time>2023-01-05T14:37:18.942Z</time>
      </trkpt>
      <trkpt lat="43.19854" lon="2.74791">
        <ele>107.681732</ele>
        <time>2023-01-05T14:37:20.959Z</time>
      </trkpt>
      <trkpt lat="43.1986" lon="2.74808">
        <ele>107.488883</ele>
        <time>2023-01-05T14:37:22.938Z</time>
      </trkpt>
      <trkpt lat="43.19866" lon="2.74824">
        <ele>107.304009</ele>
        <time>2023-01-05T14:37:24.968Z</time>
      </trkpt>
      <trkpt lat="43.19873" lon="2.74839">
        <ele>107.123662</ele>
        <time>2023-01-05T14:37:26.937Z</time>
      </trkpt>
      <trkpt lat="43.19879" lon="2.74853">
        <ele>106.940836</ele>
        <time>2023-01-05T14:37:28.963Z</time>
      </trkpt>
      <trkpt lat="43.19887" lon="2.74868">
        <ele>106.739518</ele>
        <time>2023-01-05T14:37:30.938Z</time>
      </trkpt>
      <trkpt lat="43.19894" lon="2.74883">
        <ele>106.538226</ele>
        <time>2023-01-05T14:37:32.939Z</time>
      </trkpt>
      <trkpt lat="43.19903" lon="2.74896">
        <ele>106.337445</ele>
        <time>2023-01-05T14:37:34.957Z</time>
      </trkpt>
      <trkpt lat="43.19911" lon="2.7491">
        <ele>106.136537</ele>
        <time>2023-01-05T14:37:36.945Z</time>
      </trkpt>
      <trkpt lat="43.19921" lon="2.74924">
        <ele>105.925693</ele>
        <time>2023-01-05T14:37:38.957Z</time>
      </trkpt>
      <trkpt lat="43.1993" lon="2.74939">
        <ele>105.709718</ele>
        <time>2023-01-05T14:37:40.964Z</time>
      </trkpt>
      <trkpt lat="43.19941" lon="2.74952">
        <ele>105.490532</ele>
        <time>2023-01-05T14:37:42.964Z</time>
      </trkpt>
      <trkpt lat="43.19952" lon="2.74964">
        <ele>105.278023</ele>
        <time>2023-01-05T14:37:44.938Z</time>
      </trkpt>
      <trkpt lat="43.19963" lon="2.74975">
        <ele>105.067161</ele>
        <time>2023-01-05T14:37:46.939Z</time>
      </trkpt>
      <trkpt lat="43.19973" lon="2.74983">
        <ele>104.88869</ele>
        <time>2023-01-05T14:37:48.960Z</time>
      </trkpt>
      <trkpt lat="43.19983" lon="2.74992">
        <ele>104.702136</ele>
        <time>2023-01-05T14:37:50.964Z</time>
      </trkpt>
      <trkpt lat="43.19993" lon="2.75">
        <ele>104.528435</ele>
        <time>2023-01-05T14:37:52.966Z</time>
      </trkpt>
      <trkpt lat="43.20003" lon="2.75009">
        <ele>104.25304</ele>
        <time>2023-01-05T14:37:54.967Z</time>
      </trkpt>
      <trkpt lat="43.20013" lon="2.75016">
        <ele>103.935654</ele>
        <time>2023-01-05T14:37:56.966Z</time>
      </trkpt>
      <trkpt lat="43.20023" lon="2.75024">
        <ele>103.59305</ele>
        <time>2023-01-05T14:37:58.968Z</time>
      </trkpt>
      <trkpt lat="43.20034" lon="2.75031">
        <ele>103.236807</ele>
        <time>2023-01-05T14:38:00.958Z</time>
      </trkpt>
      <trkpt lat="43.20044" lon="2.75037">
        <ele>102.893957</ele>
        <time>2023-01-05T14:38:02.956Z</time>
      </trkpt>
      <trkpt lat="43.20055" lon="2.75045">
        <ele>102.535923</ele>
        <time>2023-01-05T14:38:04.958Z</time>
      </trkpt>
      <trkpt lat="43.20066" lon="2.75052">
        <ele>102.194671</ele>
        <time>2023-01-05T14:38:06.958Z</time>
      </trkpt>
      <trkpt lat="43.20075" lon="2.75059">
        <ele>101.879894</ele>
        <time>2023-01-05T14:38:08.947Z</time>
      </trkpt>
      <trkpt lat="43.20084" lon="2.75064">
        <ele>101.606262</ele>
        <time>2023-01-05T14:38:10.961Z</time>
      </trkpt>
      <trkpt lat="43.20092" lon="2.7507">
        <ele>101.325448</ele>
        <time>2023-01-05T14:38:12.964Z</time>
      </trkpt>
      <trkpt lat="43.20104" lon="2.75077">
        <ele>100.947789</ele>
        <time>2023-01-05T14:38:14.959Z</time>
      </trkpt>
      <trkpt lat="43.20115" lon="2.75084">
        <ele>100.603154</ele>
        <time>2023-01-05T14:38:16.947Z</time>
      </trkpt>
      <trkpt lat="43.20124" lon="2.7509">
        <ele>100.301253</ele>
        <time>2023-01-05T14:38:18.948Z</time>
      </trkpt>
      <trkpt lat="43.20134" lon="2.75097">
        <ele>99.962629</ele>
        <time>2023-01-05T14:38:20.950Z</time>
      </trkpt>
      <trkpt lat="43.20144" lon="2.75105">
        <ele>99.630869</ele>
        <time>2023-01-05T14:38:22.965Z</time>
      </trkpt>
      <trkpt lat="43.20155" lon="2.75111">
        <ele>99.298355</ele>
        <time>2023-01-05T14:38:24.963Z</time>
      </trkpt>
      <trkpt lat="43.20166" lon="2.75116">
        <ele>99.248829</ele>
        <time>2023-01-05T14:38:26.968Z</time>
      </trkpt>
      <trkpt lat="43.20175" lon="2.75124">
        <ele>99.375894</ele>
        <time>2023-01-05T14:38:28.966Z</time>
      </trkpt>
      <trkpt lat="43.20185" lon="2.7513">
        <ele>99.503913</ele>
        <time>2023-01-05T14:38:30.966Z</time>
      </trkpt>
      <trkpt lat="43.20195" lon="2.75137">
        <ele>99.634454</ele>
        <time>2023-01-05T14:38:32.941Z</time>
      </trkpt>
      <trkpt lat="43.20206" lon="2.75143">
        <ele>99.776032</ele>
        <time>2023-01-05T14:38:34.935Z</time>
      </trkpt>
      <trkpt lat="43.20217" lon="2.75148">
        <ele>99.90374</ele>
        <time>2023-01-05T14:38:36.962Z</time>
      </trkpt>
      <trkpt lat="43.20227" lon="2.75154">
        <ele>100.03016</ele>
        <time>2023-01-05T14:38:38.968Z</time>
      </trkpt>
      <trkpt lat="43.20236" lon="2.75159">
        <ele>100.151056</ele>
        <time>2023-01-05T14:38:40.962Z</time>
      </trkpt>
      <trkpt lat="43.20246" lon="2.75164">
        <ele>100.271509</ele>
        <time>2023-01-05T14:38:42.958Z</time>
      </trkpt>
      <trkpt lat="43.20258" lon="2.75171">
        <ele>100.429067</ele>
        <time>2023-01-05T14:38:45.967Z</time>
      </trkpt>
      <trkpt lat="43.20268" lon="2.75184">
        <ele>100.594886</ele>
        <time>2023-01-05T14:38:48.950Z</time>
      </trkpt>
      <trkpt lat="43.20276" lon="2.75194">
        <ele>100.723495</ele>
        <time>2023-01-05T14:38:50.958Z</time>
      </trkpt>
      <trkpt lat="43.20286" lon="2.75198">
        <ele>100.83867</ele>
        <time>2023-01-05T14:38:52.947Z</time>
      </trkpt>
      <trkpt lat="43.20295" lon="2.75199">
        <ele>100.950752</ele>
        <time>2023-01-05T14:38:54.943Z</time>
      </trkpt>
      <trkpt lat="43.20304" lon="2.75202">
        <ele>101.060846</ele>
        <time>2023-01-05T14:38:56.947Z</time>
      </trkpt>
      <trkpt lat="43.20313" lon="2.75207">
        <ele>101.176481</ele>
        <time>2023-01-05T14:38:58.951Z</time>
      </trkpt>
      <trkpt lat="43.20322" lon="2.75214">
        <ele>101.298057</ele>
        <time>2023-01-05T14:39:00.958Z</time>
      </trkpt>
      <trkpt lat="43.20331" lon="2.7522">
        <ele>101.450918</ele>
        <time>2023-01-05T14:39:02.955Z</time>
      </trkpt>
      <trkpt lat="43.20342" lon="2.75226">
        <ele>101.613723</ele>
        <time>2023-01-05T14:39:04.959Z</time>
      </trkpt>
      <trkpt lat="43.20351" lon="2.75232">
        <ele>101.762996</ele>
        <time>2023-01-05T14:39:06.964Z</time>
      </trkpt>
      <trkpt lat="43.2036" lon="2.75236">
        <ele>101.90364</ele>
        <time>2023-01-05T14:39:08.965Z</time>
      </trkpt>
      <trkpt lat="43.20371" lon="2.75243">
        <ele>102.08811</ele>
        <time>2023-01-05T14:39:11.967Z</time>
      </trkpt>
      <trkpt lat="43.2038" lon="2.7525">
        <ele>102.244228</ele>
        <time>2023-01-05T14:39:13.940Z</time>
      </trkpt>
      <trkpt lat="43.20388" lon="2.75256">
        <ele>102.382057</ele>
        <time>2023-01-05T14:39:15.958Z</time>
      </trkpt>
      <trkpt lat="43.20397" lon="2.75262">
        <ele>102.525086</ele>
        <time>2023-01-05T14:39:17.965Z</time>
      </trkpt>
      <trkpt lat="43.20405" lon="2.75269">
        <ele>102.660436</ele>
        <time>2023-01-05T14:39:19.963Z</time>
      </trkpt>
      <trkpt lat="43.20412" lon="2.75276">
        <ele>102.794967</ele>
        <time>2023-01-05T14:39:21.963Z</time>
      </trkpt>
      <trkpt lat="43.2042" lon="2.75284">
        <ele>102.944174</ele>
        <time>2023-01-05T14:39:23.958Z</time>
      </trkpt>
      <trkpt lat="43.20428" lon="2.75292">
        <ele>103.094114</ele>
        <time>2023-01-05T14:39:25.959Z</time>
      </trkpt>
      <trkpt lat="43.20436" lon="2.75301">
        <ele>103.245967</ele>
        <time>2023-01-05T14:39:27.934Z</time>
      </trkpt>
      <trkpt lat="43.20444" lon="2.7531">
        <ele>103.397821</ele>
        <time>2023-01-05T14:39:29.942Z</time>
      </trkpt>
      <trkpt lat="43.20451" lon="2.75321">
        <ele>103.554682</ele>
        <time>2023-01-05T14:39:31.938Z</time>
      </trkpt>
      <trkpt lat="43.20459" lon="2.75332">
        <ele>103.718722</ele>
        <time>2023-01-05T14:39:33.965Z</time>
      </trkpt>
      <trkpt lat="43.20465" lon="2.75344">
        <ele>103.882989</ele>
        <time>2023-01-05T14:39:35.944Z</time>
      </trkpt>
      <trkpt lat="43.20473" lon="2.75357">
        <ele>103.951695</ele>
        <time>2023-01-05T14:39:37.960Z</time>
      </trkpt>
      <trkpt lat="43.2048" lon="2.75371">
        <ele>103.965182</ele>
        <time>2023-01-05T14:39:39.954Z</time>
      </trkpt>
      <trkpt lat="43.20486" lon="2.75384">
        <ele>103.977456</ele>
        <time>2023-01-05T14:39:41.967Z</time>
      </trkpt>
      <trkpt lat="43.20492" lon="2.75397">
        <ele>103.990465</ele>
        <time>2023-01-05T14:39:43.947Z</time>
      </trkpt>
      <trkpt lat="43.20498" lon="2.75412">
        <ele>104.003226</ele>
        <time>2023-01-05T14:39:45.969Z</time>
      </trkpt>
      <trkpt lat="43.20502" lon="2.75425">
        <ele>104.015184</ele>
        <time>2023-01-05T14:39:47.957Z</time>
      </trkpt>
      <trkpt lat="43.20506" lon="2.7544">
        <ele>104.027393</ele>
        <time>2023-01-05T14:39:49.964Z</time>
      </trkpt>
      <trkpt lat="43.20509" lon="2.75455">
        <ele>104.039693</ele>
        <time>2023-01-05T14:39:51.958Z</time>
      </trkpt>
      <trkpt lat="43.20513" lon="2.7547">
        <ele>104.05216</ele>
        <time>2023-01-05T14:39:53.969Z</time>
      </trkpt>
      <trkpt lat="43.20516" lon="2.75485">
        <ele>104.064688</ele>
        <time>2023-01-05T14:39:55.962Z</time>
      </trkpt>
      <trkpt lat="43.20519" lon="2.755">
        <ele>104.077156</ele>
        <time>2023-01-05T14:39:57.967Z</time>
      </trkpt>
      <trkpt lat="43.20521" lon="2.75516">
        <ele>104.089862</ele>
        <time>2023-01-05T14:39:59.961Z</time>
      </trkpt>
      <trkpt lat="43.20523" lon="2.75532">
        <ele>104.102998</ele>
        <time>2023-01-05T14:40:01.964Z</time>
      </trkpt>
      <trkpt lat="43.20525" lon="2.75548">
        <ele>104.116075</ele>
        <time>2023-01-05T14:40:03.970Z</time>
      </trkpt>
      <trkpt lat="43.20526" lon="2.75564">
        <ele>104.128926</ele>
        <time>2023-01-05T14:40:05.965Z</time>
      </trkpt>
      <trkpt lat="43.20527" lon="2.75581">
        <ele>104.059146</ele>
        <time>2023-01-05T14:40:07.942Z</time>
      </trkpt>
      <trkpt lat="43.20526" lon="2.75599">
        <ele>103.701877</ele>
        <time>2023-01-05T14:40:09.939Z</time>
      </trkpt>
      <trkpt lat="43.20524" lon="2.75617">
        <ele>103.32959</ele>
        <time>2023-01-05T14:40:11.940Z</time>
      </trkpt>
      <trkpt lat="43.20522" lon="2.75635">
        <ele>102.948704</ele>
        <time>2023-01-05T14:40:13.946Z</time>
      </trkpt>
      <trkpt lat="43.20518" lon="2.75654">
        <ele>102.548924</ele>
        <time>2023-01-05T14:40:15.940Z</time>
      </trkpt>
      <trkpt lat="43.20514" lon="2.75673">
        <ele>102.140787</ele>
        <time>2023-01-05T14:40:17.963Z</time>
      </trkpt>
      <trkpt lat="43.20509" lon="2.75691">
        <ele>101.764064</ele>
        <time>2023-01-05T14:40:19.959Z</time>
      </trkpt>
      <trkpt lat="43.20503" lon="2.75709">
        <ele>101.352393</ele>
        <time>2023-01-05T14:40:21.970Z</time>
      </trkpt>
      <trkpt lat="43.20497" lon="2.75727">
        <ele>100.937689</ele>
        <time>2023-01-05T14:40:23.961Z</time>
      </trkpt>
      <trkpt lat="43.2049" lon="2.75746">
        <ele>100.509371</ele>
        <time>2023-01-05T14:40:25.967Z</time>
      </trkpt>
      <trkpt lat="43.20483" lon="2.75764">
        <ele>100.085438</ele>
        <time>2023-01-05T14:40:27.966Z</time>
      </trkpt>
      <trkpt lat="43.20476" lon="2.75782">
        <ele>99.672576</ele>
        <time>2023-01-05T14:40:29.958Z</time>
      </trkpt>
      <trkpt lat="43.2047" lon="2.75799">
        <ele>99.287681</ele>
        <time>2023-01-05T14:40:31.937Z</time>
      </trkpt>
      <trkpt lat="43.20463" lon="2.75817">
        <ele>99.048139</ele>
        <time>2023-01-05T14:40:33.951Z</time>
      </trkpt>
      <trkpt lat="43.20457" lon="2.75835">
        <ele>98.942329</ele>
        <time>2023-01-05T14:40:35.938Z</time>
      </trkpt>
      <trkpt lat="43.2045" lon="2.75853">
        <ele>98.836832</ele>
        <time>2023-01-05T14:40:37.938Z</time>
      </trkpt>
      <trkpt lat="43.20444" lon="2.75871">
        <ele>98.732135</ele>
        <time>2023-01-05T14:40:39.959Z</time>
      </trkpt>
      <trkpt lat="43.20438" lon="2.75889">
        <ele>98.629938</ele>
        <time>2023-01-05T14:40:41.963Z</time>
      </trkpt>
      <trkpt lat="43.20432" lon="2.75906">
        <ele>98.533212</ele>
        <time>2023-01-05T14:40:43.962Z</time>
      </trkpt>
      <trkpt lat="43.20427" lon="2.75922">
        <ele>98.438699</ele>
        <time>2023-01-05T14:40:45.940Z</time>
      </trkpt>
      <trkpt lat="43.20422" lon="2.75939">
        <ele>98.343011</ele>
        <time>2023-01-05T14:40:47.941Z</time>
      </trkpt>
      <trkpt lat="43.20417" lon="2.75956">
        <ele>98.247936</ele>
        <time>2023-01-05T14:40:49.940Z</time>
      </trkpt>
      <trkpt lat="43.20411" lon="2.75971">
        <ele>98.164368</ele>
        <time>2023-01-05T14:40:51.969Z</time>
      </trkpt>
      <trkpt lat="43.20406" lon="2.75987">
        <ele>98.070057</ele>
        <time>2023-01-05T14:40:53.968Z</time>
      </trkpt>
      <trkpt lat="43.204" lon="2.76003">
        <ele>97.975846</ele>
        <time>2023-01-05T14:40:55.969Z</time>
      </trkpt>
      <trkpt lat="43.20395" lon="2.7602">
        <ele>97.879714</ele>
        <time>2023-01-05T14:40:57.935Z</time>
      </trkpt>
      <trkpt lat="43.20389" lon="2.76036">
        <ele>97.792639</ele>
        <time>2023-01-05T14:40:59.955Z</time>
      </trkpt>
      <trkpt lat="43.20384" lon="2.76053">
        <ele>97.719171</ele>
        <time>2023-01-05T14:41:01.965Z</time>
      </trkpt>
      <trkpt lat="43.20379" lon="2.7607">
        <ele>97.647054</ele>
        <time>2023-01-05T14:41:03.963Z</time>
      </trkpt>
      <trkpt lat="43.20374" lon="2.76086">
        <ele>97.577039</ele>
        <time>2023-01-05T14:41:05.950Z</time>
      </trkpt>
      <trkpt lat="43.20368" lon="2.76101">
        <ele>97.509432</ele>
        <time>2023-01-05T14:41:07.945Z</time>
      </trkpt>
      <trkpt lat="43.20362" lon="2.76116">
        <ele>97.441749</ele>
        <time>2023-01-05T14:41:09.961Z</time>
      </trkpt>
      <trkpt lat="43.20356" lon="2.76128">
        <ele>97.385173</ele>
        <time>2023-01-05T14:41:11.963Z</time>
      </trkpt>
      <trkpt lat="43.2035" lon="2.76143">
        <ele>97.31543</ele>
        <time>2023-01-05T14:41:14.967Z</time>
      </trkpt>
      <trkpt lat="43.20345" lon="2.76156">
        <ele>97.256778</ele>
        <time>2023-01-05T14:41:18.964Z</time>
      </trkpt>
      <trkpt lat="43.20341" lon="2.76168">
        <ele>97.203093</ele>
        <time>2023-01-05T14:41:21.939Z</time>
      </trkpt>
      <trkpt lat="43.20335" lon="2.76182">
        <ele>97.138825</ele>
        <time>2023-01-05T14:41:24.963Z</time>
      </trkpt>
      <trkpt lat="43.20329" lon="2.76198">
        <ele>97.065618</ele>
        <time>2023-01-05T14:41:27.961Z</time>
      </trkpt>
      <trkpt lat="43.20324" lon="2.76211">
        <ele>97.008982</ele>
        <time>2023-01-05T14:41:29.956Z</time>
      </trkpt>
      <trkpt lat="43.2032" lon="2.76224">
        <ele>96.951516</ele>
        <time>2023-01-05T14:41:31.940Z</time>
      </trkpt>
      <trkpt lat="43.20317" lon="2.76238">
        <ele>96.891568</ele>
        <time>2023-01-05T14:41:33.956Z</time>
      </trkpt>
      <trkpt lat="43.20313" lon="2.76252">
        <ele>96.834102</ele>
        <time>2023-01-05T14:41:35.962Z</time>
      </trkpt>
      <trkpt lat="43.20311" lon="2.76267">
        <ele>96.66116</ele>
        <time>2023-01-05T14:41:37.941Z</time>
      </trkpt>
      <trkpt lat="43.20309" lon="2.76282">
        <ele>96.490582</ele>
        <time>2023-01-05T14:41:39.966Z</time>
      </trkpt>
      <trkpt lat="43.20306" lon="2.76295">
        <ele>96.329099</ele>
        <time>2023-01-05T14:41:41.965Z</time>
      </trkpt>
      <trkpt lat="43.20305" lon="2.76309">
        <ele>96.161744</ele>
        <time>2023-01-05T14:41:43.946Z</time>
      </trkpt>
      <trkpt lat="43.20303" lon="2.76325">
        <ele>95.980477</ele>
        <time>2023-01-05T14:41:45.967Z</time>
      </trkpt>
      <trkpt lat="43.20301" lon="2.76339">
        <ele>95.81403</ele>
        <time>2023-01-05T14:41:47.961Z</time>
      </trkpt>
      <trkpt lat="43.20299" lon="2.76354">
        <ele>95.641671</ele>
        <time>2023-01-05T14:41:49.949Z</time>
      </trkpt>
      <trkpt lat="43.20298" lon="2.76368">
        <ele>95.473868</ele>
        <time>2023-01-05T14:41:51.965Z</time>
      </trkpt>
      <trkpt lat="43.20297" lon="2.76383">
        <ele>95.29819</ele>
        <time>2023-01-05T14:41:53.960Z</time>
      </trkpt>
      <trkpt lat="43.20295" lon="2.76399">
        <ele>95.115988</ele>
        <time>2023-01-05T14:41:55.942Z</time>
      </trkpt>
      <trkpt lat="43.20293" lon="2.76415">
        <ele>94.927808</ele>
        <time>2023-01-05T14:41:57.960Z</time>
      </trkpt>
      <trkpt lat="43.20289" lon="2.76429">
        <ele>94.757047</ele>
        <time>2023-01-05T14:41:59.968Z</time>
      </trkpt>
      <trkpt lat="43.20286" lon="2.76442">
        <ele>94.599963</ele>
        <time>2023-01-05T14:42:01.958Z</time>
      </trkpt>
      <trkpt lat="43.20283" lon="2.76459">
        <ele>94.404652</ele>
        <time>2023-01-05T14:42:04.945Z</time>
      </trkpt>
      <trkpt lat="43.20281" lon="2.76471">
        <ele>94.253108</ele>
        <time>2023-01-05T14:42:09.957Z</time>
      </trkpt>
      <trkpt lat="43.20277" lon="2.7649">
        <ele>94.027689</ele>
        <time>2023-01-05T14:42:35.969Z</time>
      </trkpt>
      <trkpt lat="43.20274" lon="2.76506">
        <ele>93.825806</ele>
        <time>2023-01-05T14:42:38.963Z</time>
      </trkpt>
      <trkpt lat="43.2027" lon="2.76519">
        <ele>93.658686</ele>
        <time>2023-01-05T14:42:40.964Z</time>
      </trkpt>
      <trkpt lat="43.20267" lon="2.76531">
        <ele>93.499668</ele>
        <time>2023-01-05T14:42:42.970Z</time>
      </trkpt>
      <trkpt lat="43.20264" lon="2.76544">
        <ele>93.330223</ele>
        <time>2023-01-05T14:42:44.965Z</time>
      </trkpt>
      <trkpt lat="43.2026" lon="2.76558">
        <ele>93.147555</ele>
        <time>2023-01-05T14:42:46.959Z</time>
      </trkpt>
      <trkpt lat="43.20257" lon="2.76573">
        <ele>92.965957</ele>
        <time>2023-01-05T14:42:48.941Z</time>
      </trkpt>
      <trkpt lat="43.20253" lon="2.76587">
        <ele>92.770557</ele>
        <time>2023-01-05T14:42:50.964Z</time>
      </trkpt>
      <trkpt lat="43.20249" lon="2.76602">
        <ele>92.581003</ele>
        <time>2023-01-05T14:42:52.966Z</time>
      </trkpt>
      <trkpt lat="43.20246" lon="2.76617">
        <ele>92.390965</ele>
        <time>2023-01-05T14:42:54.964Z</time>
      </trkpt>
      <trkpt lat="43.20242" lon="2.76632">
        <ele>92.193886</ele>
        <time>2023-01-05T14:42:56.951Z</time>
      </trkpt>
      <trkpt lat="43.20239" lon="2.76647">
        <ele>92.004741</ele>
        <time>2023-01-05T14:42:58.957Z</time>
      </trkpt>
      <trkpt lat="43.20236" lon="2.76662">
        <ele>91.813523</ele>
        <time>2023-01-05T14:43:00.966Z</time>
      </trkpt>
      <trkpt lat="43.20233" lon="2.76678">
        <ele>91.611316</ele>
        <time>2023-01-05T14:43:02.962Z</time>
      </trkpt>
      <trkpt lat="43.2023" lon="2.76693">
        <ele>91.42055</ele>
        <time>2023-01-05T14:43:04.964Z</time>
      </trkpt>
      <trkpt lat="43.20227" lon="2.76709">
        <ele>91.221408</ele>
        <time>2023-01-05T14:43:06.963Z</time>
      </trkpt>
      <trkpt lat="43.20226" lon="2.76725">
        <ele>91.019216</ele>
        <time>2023-01-05T14:43:08.956Z</time>
      </trkpt>
      <trkpt lat="43.20225" lon="2.76741">
        <ele>90.937775</ele>
        <time>2023-01-05T14:43:10.959Z</time>
      </trkpt>
      <trkpt lat="43.20224" lon="2.76757">
        <ele>90.904511</ele>
        <time>2023-01-05T14:43:12.963Z</time>
      </trkpt>
      <trkpt lat="43.20222" lon="2.76774">
        <ele>90.870079</ele>
        <time>2023-01-05T14:43:14.959Z</time>
      </trkpt>
      <trkpt lat="43.20222" lon="2.7679">
        <ele>90.83753</ele>
        <time>2023-01-05T14:43:16.961Z</time>
      </trkpt>
      <trkpt lat="43.20223" lon="2.76805">
        <ele>90.806219</ele>
        <time>2023-01-05T14:43:18.973Z</time>
      </trkpt>
      <trkpt lat="43.20223" lon="2.76819">
        <ele>90.776565</ele>
        <time>2023-01-05T14:43:20.964Z</time>
      </trkpt>
      <trkpt lat="43.20223" lon="2.76834">
        <ele>90.745467</ele>
        <time>2023-01-05T14:43:22.956Z</time>
      </trkpt>
      <trkpt lat="43.20223" lon="2.76848">
        <ele>90.716021</ele>
        <time>2023-01-05T14:43:24.961Z</time>
      </trkpt>
      <trkpt lat="43.20223" lon="2.76863">
        <ele>90.684916</ele>
        <time>2023-01-05T14:43:26.938Z</time>
      </trkpt>
      <trkpt lat="43.20224" lon="2.76879">
        <ele>90.651673</ele>
        <time>2023-01-05T14:43:28.957Z</time>
      </trkpt>
      <trkpt lat="43.20225" lon="2.76895">
        <ele>90.618477</ele>
        <time>2023-01-05T14:43:30.960Z</time>
      </trkpt>
      <trkpt lat="43.20226" lon="2.76911">
        <ele>90.584959</ele>
        <time>2023-01-05T14:43:32.956Z</time>
      </trkpt>
      <trkpt lat="43.20226" lon="2.76927">
        <ele>90.551575</ele>
        <time>2023-01-05T14:43:34.962Z</time>
      </trkpt>
      <trkpt lat="43.20225" lon="2.76944">
        <ele>90.517344</ele>
        <time>2023-01-05T14:43:36.963Z</time>
      </trkpt>
      <trkpt lat="43.20226" lon="2.7696">
        <ele>90.484549</ele>
        <time>2023-01-05T14:43:38.969Z</time>
      </trkpt>
      <trkpt lat="43.20225" lon="2.76976">
        <ele>90.451586</ele>
        <time>2023-01-05T14:43:40.964Z</time>
      </trkpt>
      <trkpt lat="43.20226" lon="2.76991">
        <ele>90.543525</ele>
        <time>2023-01-05T14:43:42.960Z</time>
      </trkpt>
      <trkpt lat="43.20227" lon="2.77008">
        <ele>90.643248</ele>
        <time>2023-01-05T14:43:44.955Z</time>
      </trkpt>
      <trkpt lat="43.20227" lon="2.77025">
        <ele>90.742948</ele>
        <time>2023-01-05T14:43:46.955Z</time>
      </trkpt>
      <trkpt lat="43.20227" lon="2.77042">
        <ele>90.841461</ele>
        <time>2023-01-05T14:43:48.963Z</time>
      </trkpt>
      <trkpt lat="43.20227" lon="2.77058">
        <ele>90.939355</ele>
        <time>2023-01-05T14:43:50.966Z</time>
      </trkpt>
      <trkpt lat="43.20227" lon="2.77075">
        <ele>91.040834</ele>
        <time>2023-01-05T14:43:52.964Z</time>
      </trkpt>
      <trkpt lat="43.20228" lon="2.77092">
        <ele>91.142443</ele>
        <time>2023-01-05T14:43:54.965Z</time>
      </trkpt>
      <trkpt lat="43.20227" lon="2.77109">
        <ele>91.243906</ele>
        <time>2023-01-05T14:43:56.968Z</time>
      </trkpt>
      <trkpt lat="43.20228" lon="2.77127">
        <ele>91.348944</ele>
        <time>2023-01-05T14:43:58.963Z</time>
      </trkpt>
      <trkpt lat="43.20228" lon="2.77145">
        <ele>91.453953</ele>
        <time>2023-01-05T14:44:00.964Z</time>
      </trkpt>
      <trkpt lat="43.20228" lon="2.77161">
        <ele>91.553033</ele>
        <time>2023-01-05T14:44:02.961Z</time>
      </trkpt>
      <trkpt lat="43.20228" lon="2.77177">
        <ele>91.648044</ele>
        <time>2023-01-05T14:44:04.966Z</time>
      </trkpt>
      <trkpt lat="43.20229" lon="2.77194">
        <ele>91.745507</ele>
        <time>2023-01-05T14:44:06.944Z</time>
      </trkpt>
      <trkpt lat="43.20229" lon="2.77209">
        <ele>91.838147</ele>
        <time>2023-01-05T14:44:08.966Z</time>
      </trkpt>
      <trkpt lat="43.2023" lon="2.77223">
        <ele>91.927138</ele>
        <time>2023-01-05T14:44:10.965Z</time>
      </trkpt>
      <trkpt lat="43.20231" lon="2.77237">
        <ele>92.102179</ele>
        <time>2023-01-05T14:44:12.963Z</time>
      </trkpt>
      <trkpt lat="43.20231" lon="2.77251">
        <ele>92.275471</ele>
        <time>2023-01-05T14:44:14.964Z</time>
      </trkpt>
      <trkpt lat="43.20231" lon="2.77264">
        <ele>92.431316</ele>
        <time>2023-01-05T14:44:16.963Z</time>
      </trkpt>
      <trkpt lat="43.20232" lon="2.77276">
        <ele>92.588603</ele>
        <time>2023-01-05T14:44:18.960Z</time>
      </trkpt>
      <trkpt lat="43.20232" lon="2.77289">
        <ele>92.744495</ele>
        <time>2023-01-05T14:44:20.958Z</time>
      </trkpt>
      <trkpt lat="43.20232" lon="2.77307">
        <ele>92.97387</ele>
        <time>2023-01-05T14:44:23.969Z</time>
      </trkpt>
      <trkpt lat="43.20233" lon="2.7732">
        <ele>93.136055</ele>
        <time>2023-01-05T14:44:25.952Z</time>
      </trkpt>
      <trkpt lat="43.20233" lon="2.77333">
        <ele>93.293258</ele>
        <time>2023-01-05T14:44:27.937Z</time>
      </trkpt>
      <trkpt lat="43.20233" lon="2.77346">
        <ele>93.453034</ele>
        <time>2023-01-05T14:44:29.963Z</time>
      </trkpt>
      <trkpt lat="43.20233" lon="2.77358">
        <ele>93.607605</ele>
        <time>2023-01-05T14:44:31.946Z</time>
      </trkpt>
      <trkpt lat="43.20234" lon="2.77376">
        <ele>93.834873</ele>
        <time>2023-01-05T14:44:34.958Z</time>
      </trkpt>
      <trkpt lat="43.20235" lon="2.77389">
        <ele>93.989897</ele>
        <time>2023-01-05T14:44:36.937Z</time>
      </trkpt>
      <trkpt lat="43.20236" lon="2.77401">
        <ele>94.14788</ele>
        <time>2023-01-05T14:44:38.965Z</time>
      </trkpt>
      <trkpt lat="43.20237" lon="2.7742">
        <ele>94.377617</ele>
        <time>2023-01-05T14:44:41.968Z</time>
      </trkpt>
      <trkpt lat="43.20238" lon="2.77432">
        <ele>94.539317</ele>
        <time>2023-01-05T14:44:43.966Z</time>
      </trkpt>
      <trkpt lat="43.2024" lon="2.77445">
        <ele>94.695235</ele>
        <time>2023-01-05T14:44:45.961Z</time>
      </trkpt>
      <trkpt lat="43.20241" lon="2.77457">
        <ele>94.853411</ele>
        <time>2023-01-05T14:44:47.961Z</time>
      </trkpt>
      <trkpt lat="43.20242" lon="2.7747">
        <ele>94.981168</ele>
        <time>2023-01-05T14:44:49.959Z</time>
      </trkpt>
      <trkpt lat="43.20243" lon="2.77483">
        <ele>94.903111</ele>
        <time>2023-01-05T14:44:51.958Z</time>
      </trkpt>
      <trkpt lat="43.20245" lon="2.77496">
        <ele>94.823155</ele>
        <time>2023-01-05T14:44:53.966Z</time>
      </trkpt>
      <trkpt lat="43.20247" lon="2.7751">
        <ele>94.738118</ele>
        <time>2023-01-05T14:44:55.939Z</time>
      </trkpt>
      <trkpt lat="43.20249" lon="2.77525">
        <ele>94.652191</ele>
        <time>2023-01-05T14:44:57.938Z</time>
      </trkpt>
      <trkpt lat="43.20251" lon="2.77539">
        <ele>94.562672</ele>
        <time>2023-01-05T14:44:59.960Z</time>
      </trkpt>
      <trkpt lat="43.20253" lon="2.77555">
        <ele>94.470761</ele>
        <time>2023-01-05T14:45:01.962Z</time>
      </trkpt>
      <trkpt lat="43.20254" lon="2.77569">
        <ele>94.385763</ele>
        <time>2023-01-05T14:45:03.936Z</time>
      </trkpt>
      <trkpt lat="43.20253" lon="2.77583">
        <ele>94.304413</ele>
        <time>2023-01-05T14:45:05.958Z</time>
      </trkpt>
      <trkpt lat="43.20253" lon="2.77596">
        <ele>94.222536</ele>
        <time>2023-01-05T14:45:07.950Z</time>
      </trkpt>
      <trkpt lat="43.20253" lon="2.7761">
        <ele>94.143</ele>
        <time>2023-01-05T14:45:09.963Z</time>
      </trkpt>
      <trkpt lat="43.20252" lon="2.77623">
        <ele>94.064208</ele>
        <time>2023-01-05T14:45:11.965Z</time>
      </trkpt>
      <trkpt lat="43.20249" lon="2.77636">
        <ele>93.986601</ele>
        <time>2023-01-05T14:45:13.958Z</time>
      </trkpt>
      <trkpt lat="43.20246" lon="2.77648">
        <ele>93.909398</ele>
        <time>2023-01-05T14:45:15.963Z</time>
      </trkpt>
      <trkpt lat="43.20239" lon="2.77657">
        <ele>93.831345</ele>
        <time>2023-01-05T14:45:17.944Z</time>
      </trkpt>
      <trkpt lat="43.2023" lon="2.77663">
        <ele>93.752172</ele>
        <time>2023-01-05T14:45:19.943Z</time>
      </trkpt>
      <trkpt lat="43.20224" lon="2.77673">
        <ele>93.674053</ele>
        <time>2023-01-05T14:45:21.963Z</time>
      </trkpt>
      <trkpt lat="43.2022" lon="2.77685">
        <ele>93.593499</ele>
        <time>2023-01-05T14:45:23.941Z</time>
      </trkpt>
      <trkpt lat="43.20222" lon="2.77699">
        <ele>93.517548</ele>
        <time>2023-01-05T14:45:25.950Z</time>
      </trkpt>
      <trkpt lat="43.20228" lon="2.77709">
        <ele>93.453917</ele>
        <time>2023-01-05T14:45:27.941Z</time>
      </trkpt>
      <trkpt lat="43.20233" lon="2.77719">
        <ele>93.395589</ele>
        <time>2023-01-05T14:45:29.942Z</time>
      </trkpt>
      <trkpt lat="43.20238" lon="2.77732">
        <ele>93.329262</ele>
        <time>2023-01-05T14:45:31.943Z</time>
      </trkpt>
      <trkpt lat="43.2024" lon="2.77747">
        <ele>93.256087</ele>
        <time>2023-01-05T14:45:33.940Z</time>
      </trkpt>
      <trkpt lat="43.20242" lon="2.77763">
        <ele>93.183644</ele>
        <time>2023-01-05T14:45:35.941Z</time>
      </trkpt>
      <trkpt lat="43.20244" lon="2.77778">
        <ele>93.109174</ele>
        <time>2023-01-05T14:45:37.965Z</time>
      </trkpt>
      <trkpt lat="43.20246" lon="2.77794">
        <ele>93.034937</ele>
        <time>2023-01-05T14:45:39.956Z</time>
      </trkpt>
      <trkpt lat="43.20249" lon="2.7781">
        <ele>92.957361</ele>
        <time>2023-01-05T14:45:41.965Z</time>
      </trkpt>
      <trkpt lat="43.20252" lon="2.77826">
        <ele>92.882031</ele>
        <time>2023-01-05T14:45:43.963Z</time>
      </trkpt>
      <trkpt lat="43.20255" lon="2.77842">
        <ele>92.803818</ele>
        <time>2023-01-05T14:45:45.964Z</time>
      </trkpt>
      <trkpt lat="43.20259" lon="2.77857">
        <ele>92.728062</ele>
        <time>2023-01-05T14:45:47.967Z</time>
      </trkpt>
      <trkpt lat="43.20263" lon="2.77873">
        <ele>92.649016</ele>
        <time>2023-01-05T14:45:49.965Z</time>
      </trkpt>
      <trkpt lat="43.20267" lon="2.77888">
        <ele>92.573219</ele>
        <time>2023-01-05T14:45:51.966Z</time>
      </trkpt>
      <trkpt lat="43.20271" lon="2.77903">
        <ele>92.499655</ele>
        <time>2023-01-05T14:45:53.947Z</time>
      </trkpt>
      <trkpt lat="43.20275" lon="2.77919">
        <ele>92.42061</ele>
        <time>2023-01-05T14:45:55.957Z</time>
      </trkpt>
      <trkpt lat="43.20279" lon="2.77936">
        <ele>92.284528</ele>
        <time>2023-01-05T14:45:57.963Z</time>
      </trkpt>
      <trkpt lat="43.20283" lon="2.77952">
        <ele>92.074514</ele>
        <time>2023-01-05T14:45:59.937Z</time>
      </trkpt>
      <trkpt lat="43.20287" lon="2.77969">
        <ele>91.859419</ele>
        <time>2023-01-05T14:46:01.960Z</time>
      </trkpt>
      <trkpt lat="43.20292" lon="2.77987">
        <ele>91.637505</ele>
        <time>2023-01-05T14:46:03.967Z</time>
      </trkpt>
      <trkpt lat="43.20296" lon="2.78003">
        <ele>91.432023</ele>
        <time>2023-01-05T14:46:05.966Z</time>
      </trkpt>
      <trkpt lat="43.203" lon="2.78019">
        <ele>91.228669</ele>
        <time>2023-01-05T14:46:07.962Z</time>
      </trkpt>
      <trkpt lat="43.20304" lon="2.78037">
        <ele>91.003336</ele>
        <time>2023-01-05T14:46:09.961Z</time>
      </trkpt>
      <trkpt lat="43.20309" lon="2.78054">
        <ele>90.786004</ele>
        <time>2023-01-05T14:46:11.939Z</time>
      </trkpt>
      <trkpt lat="43.20313" lon="2.78071">
        <ele>90.56562</ele>
        <time>2023-01-05T14:46:13.955Z</time>
      </trkpt>
      <trkpt lat="43.20317" lon="2.78089">
        <ele>90.338512</ele>
        <time>2023-01-05T14:46:15.967Z</time>
      </trkpt>
      <trkpt lat="43.20321" lon="2.78107">
        <ele>90.107469</ele>
        <time>2023-01-05T14:46:17.940Z</time>
      </trkpt>
      <trkpt lat="43.20325" lon="2.78123">
        <ele>89.903601</ele>
        <time>2023-01-05T14:46:19.961Z</time>
      </trkpt>
      <trkpt lat="43.20329" lon="2.78141">
        <ele>89.685801</ele>
        <time>2023-01-05T14:46:21.965Z</time>
      </trkpt>
      <trkpt lat="43.20333" lon="2.78159">
        <ele>89.461082</ele>
        <time>2023-01-05T14:46:23.960Z</time>
      </trkpt>
      <trkpt lat="43.20338" lon="2.78176">
        <ele>89.487528</ele>
        <time>2023-01-05T14:46:25.967Z</time>
      </trkpt>
      <trkpt lat="43.20342" lon="2.78194">
        <ele>89.601624</ele>
        <time>2023-01-05T14:46:27.965Z</time>
      </trkpt>
      <trkpt lat="43.20346" lon="2.78212">
        <ele>89.716479</ele>
        <time>2023-01-05T14:46:29.949Z</time>
      </trkpt>
      <trkpt lat="43.20351" lon="2.78231">
        <ele>89.83186</ele>
        <time>2023-01-05T14:46:31.967Z</time>
      </trkpt>
      <trkpt lat="43.20356" lon="2.78248">
        <ele>89.943339</ele>
        <time>2023-01-05T14:46:33.962Z</time>
      </trkpt>
      <trkpt lat="43.2036" lon="2.78266">
        <ele>90.055168</ele>
        <time>2023-01-05T14:46:35.959Z</time>
      </trkpt>
      <trkpt lat="43.20364" lon="2.78285">
        <ele>90.169764</ele>
        <time>2023-01-05T14:46:37.965Z</time>
      </trkpt>
      <trkpt lat="43.20369" lon="2.78303">
        <ele>90.284618</ele>
        <time>2023-01-05T14:46:39.960Z</time>
      </trkpt>
      <trkpt lat="43.20374" lon="2.78322">
        <ele>90.404469</ele>
        <time>2023-01-05T14:46:41.963Z</time>
      </trkpt>
      <trkpt lat="43.20378" lon="2.7834">
        <ele>90.51963</ele>
        <time>2023-01-05T14:46:43.964Z</time>
      </trkpt>
      <trkpt lat="43.20382" lon="2.78359">
        <ele>90.635996</ele>
        <time>2023-01-05T14:46:45.964Z</time>
      </trkpt>
      <trkpt lat="43.20388" lon="2.78378">
        <ele>90.756978</ele>
        <time>2023-01-05T14:46:47.937Z</time>
      </trkpt>
      <trkpt lat="43.20392" lon="2.78395">
        <ele>90.866045</ele>
        <time>2023-01-05T14:46:49.959Z</time>
      </trkpt>
      <trkpt lat="43.20396" lon="2.78413">
        <ele>90.878095</ele>
        <time>2023-01-05T14:46:51.965Z</time>
      </trkpt>
      <trkpt lat="43.204" lon="2.78431">
        <ele>90.883542</ele>
        <time>2023-01-05T14:46:53.940Z</time>
      </trkpt>
      <trkpt lat="43.20405" lon="2.78448">
        <ele>90.888862</ele>
        <time>2023-01-05T14:46:55.967Z</time>
      </trkpt>
      <trkpt lat="43.20409" lon="2.78467">
        <ele>90.894494</ele>
        <time>2023-01-05T14:46:57.962Z</time>
      </trkpt>
      <trkpt lat="43.20414" lon="2.78484">
        <ele>90.899923</ele>
        <time>2023-01-05T14:46:59.959Z</time>
      </trkpt>
      <trkpt lat="43.20419" lon="2.78503">
        <ele>90.905569</ele>
        <time>2023-01-05T14:47:01.967Z</time>
      </trkpt>
      <trkpt lat="43.20423" lon="2.7852">
        <ele>90.910984</ele>
        <time>2023-01-05T14:47:03.967Z</time>
      </trkpt>
      <trkpt lat="43.20428" lon="2.78538">
        <ele>90.916453</ele>
        <time>2023-01-05T14:47:05.981Z</time>
      </trkpt>
      <trkpt lat="43.20432" lon="2.78556">
        <ele>90.92187</ele>
        <time>2023-01-05T14:47:07.966Z</time>
      </trkpt>
      <trkpt lat="43.20436" lon="2.78574">
        <ele>90.927192</ele>
        <time>2023-01-05T14:47:09.948Z</time>
      </trkpt>
      <trkpt lat="43.20441" lon="2.78591">
        <ele>90.93258</ele>
        <time>2023-01-05T14:47:11.958Z</time>
      </trkpt>
      <trkpt lat="43.20445" lon="2.78608">
        <ele>90.937818</ele>
        <time>2023-01-05T14:47:13.953Z</time>
      </trkpt>
      <trkpt lat="43.2045" lon="2.78627">
        <ele>90.943423</ele>
        <time>2023-01-05T14:47:15.962Z</time>
      </trkpt>
      <trkpt lat="43.20454" lon="2.78645">
        <ele>90.712249</ele>
        <time>2023-01-05T14:47:17.942Z</time>
      </trkpt>
      <trkpt lat="43.20458" lon="2.78663">
        <ele>90.445098</ele>
        <time>2023-01-05T14:47:19.964Z</time>
      </trkpt>
      <trkpt lat="43.20463" lon="2.78681">
        <ele>90.165194</ele>
        <time>2023-01-05T14:47:21.964Z</time>
      </trkpt>
      <trkpt lat="43.20467" lon="2.78701">
        <ele>89.872805</ele>
        <time>2023-01-05T14:47:23.935Z</time>
      </trkpt>
      <trkpt lat="43.20472" lon="2.7872">
        <ele>89.580016</ele>
        <time>2023-01-05T14:47:25.962Z</time>
      </trkpt>
      <trkpt lat="43.20476" lon="2.78739">
        <ele>89.297999</ele>
        <time>2023-01-05T14:47:27.958Z</time>
      </trkpt>
      <trkpt lat="43.2048" lon="2.78758">
        <ele>89.010302</ele>
        <time>2023-01-05T14:47:29.963Z</time>
      </trkpt>
      <trkpt lat="43.20485" lon="2.78777">
        <ele>88.721448</ele>
        <time>2023-01-05T14:47:31.959Z</time>
      </trkpt>
      <trkpt lat="43.20489" lon="2.78796">
        <ele>88.43882</ele>
        <time>2023-01-05T14:47:33.956Z</time>
      </trkpt>
      <trkpt lat="43.20494" lon="2.78815">
        <ele>88.153613</ele>
        <time>2023-01-05T14:47:35.966Z</time>
      </trkpt>
      <trkpt lat="43.20499" lon="2.78835">
        <ele>87.848517</ele>
        <time>2023-01-05T14:47:37.948Z</time>
      </trkpt>
      <trkpt lat="43.20503" lon="2.78854">
        <ele>87.55807</ele>
        <time>2023-01-05T14:47:39.959Z</time>
      </trkpt>
      <trkpt lat="43.20509" lon="2.78875">
        <ele>87.431812</ele>
        <time>2023-01-05T14:47:41.969Z</time>
      </trkpt>
      <trkpt lat="43.20513" lon="2.78895">
        <ele>87.488984</ele>
        <time>2023-01-05T14:47:43.967Z</time>
      </trkpt>
      <trkpt lat="43.20518" lon="2.78913">
        <ele>87.54215</ele>
        <time>2023-01-05T14:47:45.967Z</time>
      </trkpt>
      <trkpt lat="43.20523" lon="2.78933">
        <ele>87.59863</ele>
        <time>2023-01-05T14:47:47.941Z</time>
      </trkpt>
      <trkpt lat="43.20528" lon="2.78952">
        <ele>87.651169</ele>
        <time>2023-01-05T14:47:49.956Z</time>
      </trkpt>
      <trkpt lat="43.20532" lon="2.78971">
        <ele>87.704887</ele>
        <time>2023-01-05T14:47:51.964Z</time>
      </trkpt>
      <trkpt lat="43.20537" lon="2.78989">
        <ele>87.75679</ele>
        <time>2023-01-05T14:47:53.967Z</time>
      </trkpt>
      <trkpt lat="43.20542" lon="2.79008">
        <ele>87.812643</ele>
        <time>2023-01-05T14:47:55.961Z</time>
      </trkpt>
      <trkpt lat="43.20546" lon="2.79027">
        <ele>87.865477</ele>
        <time>2023-01-05T14:47:57.966Z</time>
      </trkpt>
      <trkpt lat="43.2055" lon="2.79047">
        <ele>87.921818</ele>
        <time>2023-01-05T14:47:59.964Z</time>
      </trkpt>
      <trkpt lat="43.20555" lon="2.79067">
        <ele>87.977702</ele>
        <time>2023-01-05T14:48:01.959Z</time>
      </trkpt>
      <trkpt lat="43.20559" lon="2.79086">
        <ele>88.032232</ele>
        <time>2023-01-05T14:48:03.969Z</time>
      </trkpt>
      <trkpt lat="43.20563" lon="2.79106">
        <ele>88.093036</ele>
        <time>2023-01-05T14:48:05.967Z</time>
      </trkpt>
      <trkpt lat="43.20567" lon="2.79125">
        <ele>88.168484</ele>
        <time>2023-01-05T14:48:07.943Z</time>
      </trkpt>
      <trkpt lat="43.20572" lon="2.79144">
        <ele>88.240982</ele>
        <time>2023-01-05T14:48:09.950Z</time>
      </trkpt>
      <trkpt lat="43.20577" lon="2.79164">
        <ele>88.317648</ele>
        <time>2023-01-05T14:48:11.968Z</time>
      </trkpt>
      <trkpt lat="43.20582" lon="2.79184">
        <ele>88.395508</ele>
        <time>2023-01-05T14:48:13.965Z</time>
      </trkpt>
      <trkpt lat="43.20586" lon="2.79204">
        <ele>88.470844</ele>
        <time>2023-01-05T14:48:15.961Z</time>
      </trkpt>
      <trkpt lat="43.20591" lon="2.79223">
        <ele>88.546655</ele>
        <time>2023-01-05T14:48:17.967Z</time>
      </trkpt>
      <trkpt lat="43.20596" lon="2.79243">
        <ele>88.622188</ele>
        <time>2023-01-05T14:48:19.965Z</time>
      </trkpt>
      <trkpt lat="43.20601" lon="2.79262">
        <ele>88.695596</ele>
        <time>2023-01-05T14:48:21.958Z</time>
      </trkpt>
      <trkpt lat="43.20606" lon="2.7928">
        <ele>88.767441</ele>
        <time>2023-01-05T14:48:23.963Z</time>
      </trkpt>
      <trkpt lat="43.20611" lon="2.79299">
        <ele>88.841733</ele>
        <time>2023-01-05T14:48:25.965Z</time>
      </trkpt>
      <trkpt lat="43.20616" lon="2.79319">
        <ele>88.916343</ele>
        <time>2023-01-05T14:48:27.944Z</time>
      </trkpt>
      <trkpt lat="43.2062" lon="2.79338">
        <ele>88.980324</ele>
        <time>2023-01-05T14:48:29.964Z</time>
      </trkpt>
      <trkpt lat="43.20624" lon="2.79358">
        <ele>89.016733</ele>
        <time>2023-01-05T14:48:31.961Z</time>
      </trkpt>
      <trkpt lat="43.20628" lon="2.79377">
        <ele>89.052468</ele>
        <time>2023-01-05T14:48:33.961Z</time>
      </trkpt>
      <trkpt lat="43.20632" lon="2.79396">
        <ele>89.087708</ele>
        <time>2023-01-05T14:48:35.957Z</time>
      </trkpt>
      <trkpt lat="43.20635" lon="2.79416">
        <ele>89.124016</ele>
        <time>2023-01-05T14:48:37.961Z</time>
      </trkpt>
      <trkpt lat="43.20639" lon="2.79435">
        <ele>89.160289</ele>
        <time>2023-01-05T14:48:39.967Z</time>
      </trkpt>
      <trkpt lat="43.20642" lon="2.79454">
        <ele>89.195328</ele>
        <time>2023-01-05T14:48:41.965Z</time>
      </trkpt>
      <trkpt lat="43.20646" lon="2.79474">
        <ele>89.231695</ele>
        <time>2023-01-05T14:48:43.967Z</time>
      </trkpt>
      <trkpt lat="43.2065" lon="2.79493">
        <ele>89.266391</ele>
        <time>2023-01-05T14:48:45.962Z</time>
      </trkpt>
      <trkpt lat="43.20653" lon="2.79511">
        <ele>89.301047</ele>
        <time>2023-01-05T14:48:47.967Z</time>
      </trkpt>
      <trkpt lat="43.20657" lon="2.79529">
        <ele>89.33434</ele>
        <time>2023-01-05T14:48:49.965Z</time>
      </trkpt>
      <trkpt lat="43.2066" lon="2.79548">
        <ele>89.36839</ele>
        <time>2023-01-05T14:48:51.966Z</time>
      </trkpt>
      <trkpt lat="43.20663" lon="2.79566">
        <ele>89.401859</ele>
        <time>2023-01-05T14:48:53.949Z</time>
      </trkpt>
      <trkpt lat="43.20667" lon="2.79583">
        <ele>89.301462</ele>
        <time>2023-01-05T14:48:55.967Z</time>
      </trkpt>
      <trkpt lat="43.2067" lon="2.79601">
        <ele>89.138992</ele>
        <time>2023-01-05T14:48:57.963Z</time>
      </trkpt>
      <trkpt lat="43.20672" lon="2.79619">
        <ele>88.976746</ele>
        <time>2023-01-05T14:48:59.957Z</time>
      </trkpt>
      <trkpt lat="43.20675" lon="2.79638">
        <ele>88.808822</ele>
        <time>2023-01-05T14:49:01.962Z</time>
      </trkpt>
      <trkpt lat="43.20676" lon="2.79656">
        <ele>88.648318</ele>
        <time>2023-01-05T14:49:03.964Z</time>
      </trkpt>
      <trkpt lat="43.20679" lon="2.79674">
        <ele>88.486485</ele>
        <time>2023-01-05T14:49:05.961Z</time>
      </trkpt>
      <trkpt lat="43.20681" lon="2.79692">
        <ele>88.325327</ele>
        <time>2023-01-05T14:49:07.961Z</time>
      </trkpt>
      <trkpt lat="43.20683" lon="2.7971">
        <ele>88.161598</ele>
        <time>2023-01-05T14:49:09.966Z</time>
      </trkpt>
      <trkpt lat="43.20684" lon="2.79728">
        <ele>88.003739</ele>
        <time>2023-01-05T14:49:11.966Z</time>
      </trkpt>
      <trkpt lat="43.20686" lon="2.79747">
        <ele>87.836331</ele>
        <time>2023-01-05T14:49:13.968Z</time>
      </trkpt>
      <trkpt lat="43.20689" lon="2.79765">
        <ele>87.665565</ele>
        <time>2023-01-05T14:49:15.967Z</time>
      </trkpt>
      <trkpt lat="43.20692" lon="2.79785">
        <ele>87.489798</ele>
        <time>2023-01-05T14:49:17.960Z</time>
      </trkpt>
      <trkpt lat="43.20694" lon="2.79805">
        <ele>87.308881</ele>
        <time>2023-01-05T14:49:19.959Z</time>
      </trkpt>
      <trkpt lat="43.20696" lon="2.79825">
        <ele>87.111957</ele>
        <time>2023-01-05T14:49:21.958Z</time>
      </trkpt>
      <trkpt lat="43.20699" lon="2.79846">
        <ele>86.895567</ele>
        <time>2023-01-05T14:49:23.967Z</time>
      </trkpt>
      <trkpt lat="43.20702" lon="2.79865">
        <ele>86.687532</ele>
        <time>2023-01-05T14:49:25.966Z</time>
      </trkpt>
      <trkpt lat="43.20705" lon="2.79885">
        <ele>86.478483</ele>
        <time>2023-01-05T14:49:27.963Z</time>
      </trkpt>
      <trkpt lat="43.20707" lon="2.79904">
        <ele>86.277305</ele>
        <time>2023-01-05T14:49:29.951Z</time>
      </trkpt>
      <trkpt lat="43.20709" lon="2.79924">
        <ele>86.070129</ele>
        <time>2023-01-05T14:49:31.960Z</time>
      </trkpt>
      <trkpt lat="43.20712" lon="2.79944">
        <ele>85.862159</ele>
        <time>2023-01-05T14:49:33.965Z</time>
      </trkpt>
      <trkpt lat="43.20714" lon="2.79963">
        <ele>85.660332</ele>
        <time>2023-01-05T14:49:35.963Z</time>
      </trkpt>
      <trkpt lat="43.20716" lon="2.79982">
        <ele>85.456459</ele>
        <time>2023-01-05T14:49:37.958Z</time>
      </trkpt>
      <trkpt lat="43.20718" lon="2.80002">
        <ele>85.251548</ele>
        <time>2023-01-05T14:49:39.962Z</time>
      </trkpt>
      <trkpt lat="43.2072" lon="2.80021">
        <ele>85.052215</ele>
        <time>2023-01-05T14:49:41.963Z</time>
      </trkpt>
      <trkpt lat="43.20722" lon="2.8004">
        <ele>84.852664</ele>
        <time>2023-01-05T14:49:43.966Z</time>
      </trkpt>
      <trkpt lat="43.20726" lon="2.8006">
        <ele>84.653168</ele>
        <time>2023-01-05T14:49:45.963Z</time>
      </trkpt>
      <trkpt lat="43.20728" lon="2.80081">
        <ele>84.537091</ele>
        <time>2023-01-05T14:49:47.949Z</time>
      </trkpt>
      <trkpt lat="43.20731" lon="2.80101">
        <ele>84.423005</ele>
        <time>2023-01-05T14:49:49.958Z</time>
      </trkpt>
      <trkpt lat="43.20733" lon="2.80123">
        <ele>84.304481</ele>
        <time>2023-01-05T14:49:51.952Z</time>
      </trkpt>
      <trkpt lat="43.20736" lon="2.80144">
        <ele>84.18571</ele>
        <time>2023-01-05T14:49:53.966Z</time>
      </trkpt>
      <trkpt lat="43.20737" lon="2.80164">
        <ele>84.073504</ele>
        <time>2023-01-05T14:49:55.964Z</time>
      </trkpt>
      <trkpt lat="43.2074" lon="2.80186">
        <ele>83.9539</ele>
        <time>2023-01-05T14:49:57.963Z</time>
      </trkpt>
      <trkpt lat="43.20743" lon="2.80208">
        <ele>83.832175</ele>
        <time>2023-01-05T14:49:59.967Z</time>
      </trkpt>
      <trkpt lat="43.20746" lon="2.80229">
        <ele>83.714482</ele>
        <time>2023-01-05T14:50:01.966Z</time>
      </trkpt>
      <trkpt lat="43.20748" lon="2.80251">
        <ele>83.593966</ele>
        <time>2023-01-05T14:50:03.958Z</time>
      </trkpt>
      <trkpt lat="43.20751" lon="2.80272">
        <ele>83.474781</ele>
        <time>2023-01-05T14:50:05.968Z</time>
      </trkpt>
      <trkpt lat="43.20754" lon="2.80293">
        <ele>83.357495</ele>
        <time>2023-01-05T14:50:07.967Z</time>
      </trkpt>
      <trkpt lat="43.20757" lon="2.80314">
        <ele>83.260549</ele>
        <time>2023-01-05T14:50:09.964Z</time>
      </trkpt>
      <trkpt lat="43.20759" lon="2.80335">
        <ele>83.174467</ele>
        <time>2023-01-05T14:50:11.957Z</time>
      </trkpt>
      <trkpt lat="43.20761" lon="2.80355">
        <ele>83.092058</ele>
        <time>2023-01-05T14:50:13.961Z</time>
      </trkpt>
      <trkpt lat="43.20763" lon="2.80375">
        <ele>83.008102</ele>
        <time>2023-01-05T14:50:15.962Z</time>
      </trkpt>
      <trkpt lat="43.20766" lon="2.80395">
        <ele>82.923955</ele>
        <time>2023-01-05T14:50:17.964Z</time>
      </trkpt>
      <trkpt lat="43.20769" lon="2.80415">
        <ele>82.8399</ele>
        <time>2023-01-05T14:50:19.956Z</time>
      </trkpt>
      <trkpt lat="43.20771" lon="2.80436">
        <ele>82.752598</ele>
        <time>2023-01-05T14:50:21.966Z</time>
      </trkpt>
      <trkpt lat="43.20774" lon="2.80457">
        <ele>82.664796</ele>
        <time>2023-01-05T14:50:23.941Z</time>
      </trkpt>
      <trkpt lat="43.20776" lon="2.80479">
        <ele>82.573592</ele>
        <time>2023-01-05T14:50:25.953Z</time>
      </trkpt>
      <trkpt lat="43.20779" lon="2.805">
        <ele>82.482038</ele>
        <time>2023-01-05T14:50:27.962Z</time>
      </trkpt>
      <trkpt lat="43.20781" lon="2.80523">
        <ele>82.388543</ele>
        <time>2023-01-05T14:50:29.953Z</time>
      </trkpt>
      <trkpt lat="43.20784" lon="2.80545">
        <ele>82.298945</ele>
        <time>2023-01-05T14:50:31.964Z</time>
      </trkpt>
      <trkpt lat="43.20787" lon="2.80566">
        <ele>82.375334</ele>
        <time>2023-01-05T14:50:33.936Z</time>
      </trkpt>
      <trkpt lat="43.2079" lon="2.80587">
        <ele>82.453385</ele>
        <time>2023-01-05T14:50:35.947Z</time>
      </trkpt>
      <trkpt lat="43.20792" lon="2.8061">
        <ele>82.534911</ele>
        <time>2023-01-05T14:50:37.957Z</time>
      </trkpt>
      <trkpt lat="43.20795" lon="2.80632">
        <ele>82.616138</ele>
        <time>2023-01-05T14:50:39.964Z</time>
      </trkpt>
      <trkpt lat="43.20798" lon="2.80654">
        <ele>82.695619</ele>
        <time>2023-01-05T14:50:41.939Z</time>
      </trkpt>
      <trkpt lat="43.208" lon="2.80675">
        <ele>82.771638</ele>
        <time>2023-01-05T14:50:43.964Z</time>
      </trkpt>
      <trkpt lat="43.20802" lon="2.80696">
        <ele>82.847657</ele>
        <time>2023-01-05T14:50:45.962Z</time>
      </trkpt>
      <trkpt lat="43.20805" lon="2.80717">
        <ele>82.922477</ele>
        <time>2023-01-05T14:50:47.964Z</time>
      </trkpt>
      <trkpt lat="43.20807" lon="2.80738">
        <ele>82.998211</ele>
        <time>2023-01-05T14:50:49.963Z</time>
      </trkpt>
      <trkpt lat="43.20809" lon="2.80758">
        <ele>83.072326</ele>
        <time>2023-01-05T14:50:51.956Z</time>
      </trkpt>
      <trkpt lat="43.20812" lon="2.80779">
        <ele>83.145817</ele>
        <time>2023-01-05T14:50:53.957Z</time>
      </trkpt>
      <trkpt lat="43.20814" lon="2.80798">
        <ele>83.132124</ele>
        <time>2023-01-05T14:50:55.967Z</time>
      </trkpt>
      <trkpt lat="43.20817" lon="2.80818">
        <ele>83.041984</ele>
        <time>2023-01-05T14:50:57.943Z</time>
      </trkpt>
      <trkpt lat="43.20819" lon="2.80838">
        <ele>82.952926</ele>
        <time>2023-01-05T14:50:59.964Z</time>
      </trkpt>
      <trkpt lat="43.20821" lon="2.80858">
        <ele>82.862544</ele>
        <time>2023-01-05T14:51:01.967Z</time>
      </trkpt>
      <trkpt lat="43.20824" lon="2.80878">
        <ele>82.77054</ele>
        <time>2023-01-05T14:51:03.932Z</time>
      </trkpt>
      <trkpt lat="43.20826" lon="2.80899">
        <ele>82.676536</ele>
        <time>2023-01-05T14:51:05.962Z</time>
      </trkpt>
      <trkpt lat="43.20829" lon="2.8092">
        <ele>82.580909</ele>
        <time>2023-01-05T14:51:07.965Z</time>
      </trkpt>
      <trkpt lat="43.20831" lon="2.80941">
        <ele>82.488025</ele>
        <time>2023-01-05T14:51:09.968Z</time>
      </trkpt>
      <trkpt lat="43.20834" lon="2.80962">
        <ele>82.393382</ele>
        <time>2023-01-05T14:51:11.968Z</time>
      </trkpt>
      <trkpt lat="43.20836" lon="2.80982">
        <ele>82.299121</ele>
        <time>2023-01-05T14:51:13.969Z</time>
      </trkpt>
      <trkpt lat="43.20839" lon="2.81004">
        <ele>82.201189</ele>
        <time>2023-01-05T14:51:15.960Z</time>
      </trkpt>
      <trkpt lat="43.20842" lon="2.81025">
        <ele>82.107968</ele>
        <time>2023-01-05T14:51:17.940Z</time>
      </trkpt>
      <trkpt lat="43.20844" lon="2.81046">
        <ele>82.024488</ele>
        <time>2023-01-05T14:51:19.963Z</time>
      </trkpt>
      <trkpt lat="43.20846" lon="2.81067">
        <ele>81.948613</ele>
        <time>2023-01-05T14:51:21.967Z</time>
      </trkpt>
      <trkpt lat="43.20849" lon="2.81087">
        <ele>81.874626</ele>
        <time>2023-01-05T14:51:23.965Z</time>
      </trkpt>
      <trkpt lat="43.20852" lon="2.81108">
        <ele>81.797161</ele>
        <time>2023-01-05T14:51:25.958Z</time>
      </trkpt>
      <trkpt lat="43.20855" lon="2.81128">
        <ele>81.720948</ele>
        <time>2023-01-05T14:51:27.965Z</time>
      </trkpt>
      <trkpt lat="43.20857" lon="2.81149">
        <ele>81.644358</ele>
        <time>2023-01-05T14:51:29.965Z</time>
      </trkpt>
      <trkpt lat="43.20859" lon="2.81169">
        <ele>81.570495</ele>
        <time>2023-01-05T14:51:31.965Z</time>
      </trkpt>
      <trkpt lat="43.20862" lon="2.81189">
        <ele>81.497396</ele>
        <time>2023-01-05T14:51:33.953Z</time>
      </trkpt>
      <trkpt lat="43.20864" lon="2.81208">
        <ele>81.427149</ele>
        <time>2023-01-05T14:51:35.941Z</time>
      </trkpt>
      <trkpt lat="43.20867" lon="2.81227">
        <ele>81.359039</ele>
        <time>2023-01-05T14:51:37.957Z</time>
      </trkpt>
      <trkpt lat="43.20869" lon="2.81246">
        <ele>81.290304</ele>
        <time>2023-01-05T14:51:39.954Z</time>
      </trkpt>
      <trkpt lat="43.20871" lon="2.81265">
        <ele>81.219805</ele>
        <time>2023-01-05T14:51:41.962Z</time>
      </trkpt>
      <trkpt lat="43.20873" lon="2.81284">
        <ele>81.132196</ele>
        <time>2023-01-05T14:51:43.966Z</time>
      </trkpt>
      <trkpt lat="43.20875" lon="2.81304">
        <ele>81.027239</ele>
        <time>2023-01-05T14:51:45.948Z</time>
      </trkpt>
      <trkpt lat="43.20878" lon="2.81324">
        <ele>80.9167</ele>
        <time>2023-01-05T14:51:47.968Z</time>
      </trkpt>
      <trkpt lat="43.2088" lon="2.81343">
        <ele>80.811213</ele>
        <time>2023-01-05T14:51:49.968Z</time>
      </trkpt>
      <trkpt lat="43.20883" lon="2.81364">
        <ele>80.699748</ele>
        <time>2023-01-05T14:51:51.968Z</time>
      </trkpt>
      <trkpt lat="43.20885" lon="2.81384">
        <ele>80.588526</ele>
        <time>2023-01-05T14:51:53.947Z</time>
      </trkpt>
      <trkpt lat="43.20888" lon="2.81405">
        <ele>80.476245</ele>
        <time>2023-01-05T14:51:55.959Z</time>
      </trkpt>
      <trkpt lat="43.2089" lon="2.81426">
        <ele>80.36279</ele>
        <time>2023-01-05T14:51:57.967Z</time>
      </trkpt>
      <trkpt lat="43.20892" lon="2.81447">
        <ele>80.248279</ele>
        <time>2023-01-05T14:51:59.968Z</time>
      </trkpt>
      <trkpt lat="43.20895" lon="2.81468">
        <ele>80.132994</ele>
        <time>2023-01-05T14:52:01.973Z</time>
      </trkpt>
      <trkpt lat="43.20898" lon="2.81489">
        <ele>80.021268</ele>
        <time>2023-01-05T14:52:03.963Z</time>
      </trkpt>
      <trkpt lat="43.209" lon="2.8151">
        <ele>79.908252</ele>
        <time>2023-01-05T14:52:05.969Z</time>
      </trkpt>
      <trkpt lat="43.20902" lon="2.81531">
        <ele>79.942441</ele>
        <time>2023-01-05T14:52:07.969Z</time>
      </trkpt>
      <trkpt lat="43.20905" lon="2.81551">
        <ele>80.07524</ele>
        <time>2023-01-05T14:52:09.968Z</time>
      </trkpt>
      <trkpt lat="43.20907" lon="2.8157">
        <ele>80.198102</ele>
        <time>2023-01-05T14:52:11.968Z</time>
      </trkpt>
      <trkpt lat="43.20909" lon="2.8159">
        <ele>80.326359</ele>
        <time>2023-01-05T14:52:13.966Z</time>
      </trkpt>
      <trkpt lat="43.20912" lon="2.8161">
        <ele>80.455868</ele>
        <time>2023-01-05T14:52:15.967Z</time>
      </trkpt>
      <trkpt lat="43.20915" lon="2.8163">
        <ele>80.581623</ele>
        <time>2023-01-05T14:52:17.967Z</time>
      </trkpt>
      <trkpt lat="43.20917" lon="2.81649">
        <ele>80.708943</ele>
        <time>2023-01-05T14:52:19.942Z</time>
      </trkpt>
      <trkpt lat="43.20919" lon="2.81669">
        <ele>80.835587</ele>
        <time>2023-01-05T14:52:21.963Z</time>
      </trkpt>
      <trkpt lat="43.20922" lon="2.81689">
        <ele>80.967601</ele>
        <time>2023-01-05T14:52:23.967Z</time>
      </trkpt>
      <trkpt lat="43.20925" lon="2.8171">
        <ele>81.100716</ele>
        <time>2023-01-05T14:52:25.965Z</time>
      </trkpt>
      <trkpt lat="43.20927" lon="2.8173">
        <ele>81.229501</ele>
        <time>2023-01-05T14:52:27.967Z</time>
      </trkpt>
      <trkpt lat="43.20929" lon="2.8175">
        <ele>81.360734</ele>
        <time>2023-01-05T14:52:29.971Z</time>
      </trkpt>
      <trkpt lat="43.20932" lon="2.81771">
        <ele>81.407046</ele>
        <time>2023-01-05T14:52:31.956Z</time>
      </trkpt>
      <trkpt lat="43.20935" lon="2.81791">
        <ele>81.347843</ele>
        <time>2023-01-05T14:52:33.966Z</time>
      </trkpt>
      <trkpt lat="43.20937" lon="2.81811">
        <ele>81.291296</ele>
        <time>2023-01-05T14:52:35.962Z</time>
      </trkpt>
      <trkpt lat="43.2094" lon="2.8183">
        <ele>81.235951</ele>
        <time>2023-01-05T14:52:37.965Z</time>
      </trkpt>
      <trkpt lat="43.20942" lon="2.81849">
        <ele>81.179745</ele>
        <time>2023-01-05T14:52:39.961Z</time>
      </trkpt>
      <trkpt lat="43.20944" lon="2.81869">
        <ele>81.122354</ele>
        <time>2023-01-05T14:52:41.965Z</time>
      </trkpt>
      <trkpt lat="43.20947" lon="2.81889">
        <ele>81.066305</ele>
        <time>2023-01-05T14:52:43.949Z</time>
      </trkpt>
      <trkpt lat="43.20949" lon="2.81908">
        <ele>81.011098</ele>
        <time>2023-01-05T14:52:45.968Z</time>
      </trkpt>
      <trkpt lat="43.20952" lon="2.81927">
        <ele>80.955543</ele>
        <time>2023-01-05T14:52:47.968Z</time>
      </trkpt>
      <trkpt lat="43.20954" lon="2.81944">
        <ele>80.905368</ele>
        <time>2023-01-05T14:52:49.977Z</time>
      </trkpt>
      <trkpt lat="43.20956" lon="2.81962">
        <ele>80.853662</ele>
        <time>2023-01-05T14:52:51.940Z</time>
      </trkpt>
      <trkpt lat="43.20958" lon="2.81979">
        <ele>80.80434</ele>
        <time>2023-01-05T14:52:53.961Z</time>
      </trkpt>
      <trkpt lat="43.2096" lon="2.81997">
        <ele>80.753408</ele>
        <time>2023-01-05T14:52:55.971Z</time>
      </trkpt>
      <trkpt lat="43.20963" lon="2.82015">
        <ele>80.668397</ele>
        <time>2023-01-05T14:52:57.954Z</time>
      </trkpt>
      <trkpt lat="43.20965" lon="2.82033">
        <ele>80.555791</ele>
        <time>2023-01-05T14:52:59.967Z</time>
      </trkpt>
      <trkpt lat="43.20967" lon="2.82052">
        <ele>80.440907</ele>
        <time>2023-01-05T14:53:01.967Z</time>
      </trkpt>
      <trkpt lat="43.20969" lon="2.8207">
        <ele>80.325892</ele>
        <time>2023-01-05T14:53:03.963Z</time>
      </trkpt>
      <trkpt lat="43.20972" lon="2.82089">
        <ele>80.206845</ele>
        <time>2023-01-05T14:53:05.943Z</time>
      </trkpt>
      <trkpt lat="43.20975" lon="2.82109">
        <ele>80.087163</ele>
        <time>2023-01-05T14:53:07.944Z</time>
      </trkpt>
      <trkpt lat="43.20977" lon="2.82128">
        <ele>79.965711</ele>
        <time>2023-01-05T14:53:09.961Z</time>
      </trkpt>
      <trkpt lat="43.20979" lon="2.82148">
        <ele>79.844627</ele>
        <time>2023-01-05T14:53:11.939Z</time>
      </trkpt>
      <trkpt lat="43.20981" lon="2.82168">
        <ele>79.720909</ele>
        <time>2023-01-05T14:53:13.949Z</time>
      </trkpt>
      <trkpt lat="43.20983" lon="2.82187">
        <ele>79.599865</ele>
        <time>2023-01-05T14:53:15.962Z</time>
      </trkpt>
      <trkpt lat="43.20986" lon="2.82208">
        <ele>79.475677</ele>
        <time>2023-01-05T14:53:17.965Z</time>
      </trkpt>
      <trkpt lat="43.20988" lon="2.82227">
        <ele>79.355725</ele>
        <time>2023-01-05T14:53:19.965Z</time>
      </trkpt>
      <trkpt lat="43.2099" lon="2.82247">
        <ele>79.231297</ele>
        <time>2023-01-05T14:53:21.959Z</time>
      </trkpt>
      <trkpt lat="43.20993" lon="2.82267">
        <ele>79.12331</ele>
        <time>2023-01-05T14:53:23.952Z</time>
      </trkpt>
      <trkpt lat="43.20996" lon="2.82288">
        <ele>79.015104</ele>
        <time>2023-01-05T14:53:25.966Z</time>
      </trkpt>
      <trkpt lat="43.20998" lon="2.82309">
        <ele>78.906784</ele>
        <time>2023-01-05T14:53:27.956Z</time>
      </trkpt>
      <trkpt lat="43.21001" lon="2.82329">
        <ele>78.798854</ele>
        <time>2023-01-05T14:53:29.962Z</time>
      </trkpt>
      <trkpt lat="43.21003" lon="2.82349">
        <ele>78.694436</ele>
        <time>2023-01-05T14:53:31.963Z</time>
      </trkpt>
      <trkpt lat="43.21006" lon="2.8237">
        <ele>78.586625</ele>
        <time>2023-01-05T14:53:33.959Z</time>
      </trkpt>
      <trkpt lat="43.21008" lon="2.8239">
        <ele>78.481869</ele>
        <time>2023-01-05T14:53:35.967Z</time>
      </trkpt>
      <trkpt lat="43.2101" lon="2.82409">
        <ele>78.381532</ele>
        <time>2023-01-05T14:53:37.966Z</time>
      </trkpt>
      <trkpt lat="43.21012" lon="2.82427">
        <ele>78.285896</ele>
        <time>2023-01-05T14:53:39.967Z</time>
      </trkpt>
      <trkpt lat="43.21015" lon="2.82446">
        <ele>78.188109</ele>
        <time>2023-01-05T14:53:41.944Z</time>
      </trkpt>
      <trkpt lat="43.21017" lon="2.82464">
        <ele>78.093259</ele>
        <time>2023-01-05T14:53:43.963Z</time>
      </trkpt>
      <trkpt lat="43.21019" lon="2.82482">
        <ele>77.999934</ele>
        <time>2023-01-05T14:53:45.957Z</time>
      </trkpt>
      <trkpt lat="43.21022" lon="2.825">
        <ele>77.845518</ele>
        <time>2023-01-05T14:53:47.961Z</time>
      </trkpt>
      <trkpt lat="43.21024" lon="2.82518">
        <ele>77.629966</ele>
        <time>2023-01-05T14:53:49.965Z</time>
      </trkpt>
      <trkpt lat="43.21026" lon="2.82538">
        <ele>77.400864</ele>
        <time>2023-01-05T14:53:51.956Z</time>
      </trkpt>
      <trkpt lat="43.21028" lon="2.82556">
        <ele>77.181575</ele>
        <time>2023-01-05T14:53:53.965Z</time>
      </trkpt>
      <trkpt lat="43.2103" lon="2.82576">
        <ele>76.946912</ele>
        <time>2023-01-05T14:53:55.965Z</time>
      </trkpt>
      <trkpt lat="43.21033" lon="2.82594">
        <ele>76.722452</ele>
        <time>2023-01-05T14:53:57.966Z</time>
      </trkpt>
      <trkpt lat="43.21035" lon="2.82614">
        <ele>76.484686</ele>
        <time>2023-01-05T14:53:59.966Z</time>
      </trkpt>
      <trkpt lat="43.21038" lon="2.82633">
        <ele>76.261907</ele>
        <time>2023-01-05T14:54:01.962Z</time>
      </trkpt>
      <trkpt lat="43.21039" lon="2.82651">
        <ele>76.043525</ele>
        <time>2023-01-05T14:54:03.963Z</time>
      </trkpt>
      <trkpt lat="43.21041" lon="2.82669">
        <ele>75.834699</ele>
        <time>2023-01-05T14:54:05.965Z</time>
      </trkpt>
      <trkpt lat="43.21044" lon="2.82686">
        <ele>75.634587</ele>
        <time>2023-01-05T14:54:07.969Z</time>
      </trkpt>
      <trkpt lat="43.21046" lon="2.82704">
        <ele>75.416521</ele>
        <time>2023-01-05T14:54:09.965Z</time>
      </trkpt>
      <trkpt lat="43.21049" lon="2.82721">
        <ele>75.205563</ele>
        <time>2023-01-05T14:54:11.969Z</time>
      </trkpt>
      <trkpt lat="43.21052" lon="2.82739">
        <ele>75.068081</ele>
        <time>2023-01-05T14:54:13.942Z</time>
      </trkpt>
      <trkpt lat="43.21053" lon="2.82757">
        <ele>75.157621</ele>
        <time>2023-01-05T14:54:15.961Z</time>
      </trkpt>
      <trkpt lat="43.21055" lon="2.82774">
        <ele>75.244875</ele>
        <time>2023-01-05T14:54:17.942Z</time>
      </trkpt>
      <trkpt lat="43.21058" lon="2.82791">
        <ele>75.330375</ele>
        <time>2023-01-05T14:54:19.964Z</time>
      </trkpt>
      <trkpt lat="43.21059" lon="2.82807">
        <ele>75.412648</ele>
        <time>2023-01-05T14:54:21.939Z</time>
      </trkpt>
      <trkpt lat="43.21061" lon="2.82824">
        <ele>75.499518</ele>
        <time>2023-01-05T14:54:23.963Z</time>
      </trkpt>
      <trkpt lat="43.21063" lon="2.8284">
        <ele>75.583677</ele>
        <time>2023-01-05T14:54:25.964Z</time>
      </trkpt>
      <trkpt lat="43.21066" lon="2.82857">
        <ele>75.670205</ele>
        <time>2023-01-05T14:54:27.965Z</time>
      </trkpt>
      <trkpt lat="43.21068" lon="2.82874">
        <ele>75.754591</ele>
        <time>2023-01-05T14:54:29.965Z</time>
      </trkpt>
      <trkpt lat="43.2107" lon="2.8289">
        <ele>75.840467</ele>
        <time>2023-01-05T14:54:31.950Z</time>
      </trkpt>
      <trkpt lat="43.21072" lon="2.82908">
        <ele>75.929711</ele>
        <time>2023-01-05T14:54:33.965Z</time>
      </trkpt>
      <trkpt lat="43.21074" lon="2.82926">
        <ele>76.020173</ele>
        <time>2023-01-05T14:54:35.940Z</time>
      </trkpt>
      <trkpt lat="43.21076" lon="2.82944">
        <ele>76.112903</ele>
        <time>2023-01-05T14:54:37.964Z</time>
      </trkpt>
      <trkpt lat="43.21078" lon="2.82961">
        <ele>76.202754</ele>
        <time>2023-01-05T14:54:39.967Z</time>
      </trkpt>
      <trkpt lat="43.2108" lon="2.8298">
        <ele>76.285196</ele>
        <time>2023-01-05T14:54:41.966Z</time>
      </trkpt>
      <trkpt lat="43.21083" lon="2.82997">
        <ele>76.256701</ele>
        <time>2023-01-05T14:54:43.946Z</time>
      </trkpt>
      <trkpt lat="43.21085" lon="2.83015">
        <ele>76.227731</ele>
        <time>2023-01-05T14:54:45.946Z</time>
      </trkpt>
      <trkpt lat="43.21087" lon="2.83033">
        <ele>76.198197</ele>
        <time>2023-01-05T14:54:47.964Z</time>
      </trkpt>
      <trkpt lat="43.21089" lon="2.83052">
        <ele>76.168594</ele>
        <time>2023-01-05T14:54:49.965Z</time>
      </trkpt>
      <trkpt lat="43.21092" lon="2.8307">
        <ele>76.138992</ele>
        <time>2023-01-05T14:54:51.975Z</time>
      </trkpt>
      <trkpt lat="43.21094" lon="2.83088">
        <ele>76.108683</ele>
        <time>2023-01-05T14:54:53.946Z</time>
      </trkpt>
      <trkpt lat="43.21096" lon="2.83107">
        <ele>76.079052</ele>
        <time>2023-01-05T14:54:55.963Z</time>
      </trkpt>
      <trkpt lat="43.21098" lon="2.83123">
        <ele>76.051738</ele>
        <time>2023-01-05T14:54:57.963Z</time>
      </trkpt>
      <trkpt lat="43.211" lon="2.83141">
        <ele>76.023164</ele>
        <time>2023-01-05T14:54:59.966Z</time>
      </trkpt>
      <trkpt lat="43.21102" lon="2.83159">
        <ele>75.993438</ele>
        <time>2023-01-05T14:55:01.964Z</time>
      </trkpt>
      <trkpt lat="43.21105" lon="2.83177">
        <ele>75.964666</ele>
        <time>2023-01-05T14:55:03.962Z</time>
      </trkpt>
      <trkpt lat="43.21107" lon="2.83193">
        <ele>75.938143</ele>
        <time>2023-01-05T14:55:05.963Z</time>
      </trkpt>
      <trkpt lat="43.21109" lon="2.83209">
        <ele>75.912688</ele>
        <time>2023-01-05T14:55:07.964Z</time>
      </trkpt>
      <trkpt lat="43.21111" lon="2.83225">
        <ele>75.895007</ele>
        <time>2023-01-05T14:55:09.966Z</time>
      </trkpt>
      <trkpt lat="43.21113" lon="2.83242">
        <ele>75.907563</ele>
        <time>2023-01-05T14:55:11.968Z</time>
      </trkpt>
      <trkpt lat="43.21115" lon="2.8326">
        <ele>75.920892</ele>
        <time>2023-01-05T14:55:13.967Z</time>
      </trkpt>
      <trkpt lat="43.21117" lon="2.83278">
        <ele>75.934634</ele>
        <time>2023-01-05T14:55:15.963Z</time>
      </trkpt>
      <trkpt lat="43.21119" lon="2.83296">
        <ele>75.948005</ele>
        <time>2023-01-05T14:55:17.968Z</time>
      </trkpt>
      <trkpt lat="43.21122" lon="2.83314">
        <ele>75.961403</ele>
        <time>2023-01-05T14:55:19.968Z</time>
      </trkpt>
      <trkpt lat="43.21125" lon="2.83332">
        <ele>75.974698</ele>
        <time>2023-01-05T14:55:21.966Z</time>
      </trkpt>
      <trkpt lat="43.21127" lon="2.8335">
        <ele>75.988096</ele>
        <time>2023-01-05T14:55:23.968Z</time>
      </trkpt>
      <trkpt lat="43.21129" lon="2.83367">
        <ele>76.001115</ele>
        <time>2023-01-05T14:55:25.967Z</time>
      </trkpt>
      <trkpt lat="43.21132" lon="2.83385">
        <ele>76.014477</ele>
        <time>2023-01-05T14:55:27.962Z</time>
      </trkpt>
      <trkpt lat="43.21134" lon="2.83403">
        <ele>76.027771</ele>
        <time>2023-01-05T14:55:29.961Z</time>
      </trkpt>
      <trkpt lat="43.21136" lon="2.83421">
        <ele>76.040969</ele>
        <time>2023-01-05T14:55:31.954Z</time>
      </trkpt>
      <trkpt lat="43.21138" lon="2.83438">
        <ele>76.053919</ele>
        <time>2023-01-05T14:55:33.961Z</time>
      </trkpt>
      <trkpt lat="43.2114" lon="2.83455">
        <ele>76.06662</ele>
        <time>2023-01-05T14:55:35.963Z</time>
      </trkpt>
      <trkpt lat="43.21142" lon="2.83473">
        <ele>76.024416</ele>
        <time>2023-01-05T14:55:37.965Z</time>
      </trkpt>
      <trkpt lat="43.21145" lon="2.83491">
        <ele>75.919137</ele>
        <time>2023-01-05T14:55:39.964Z</time>
      </trkpt>
      <trkpt lat="43.21146" lon="2.83509">
        <ele>75.819171</ele>
        <time>2023-01-05T14:55:41.966Z</time>
      </trkpt>
      <trkpt lat="43.21148" lon="2.83526">
        <ele>75.72009</ele>
        <time>2023-01-05T14:55:43.966Z</time>
      </trkpt>
      <trkpt lat="43.2115" lon="2.83544">
        <ele>75.620332</ele>
        <time>2023-01-05T14:55:45.969Z</time>
      </trkpt>
      <trkpt lat="43.21153" lon="2.83562">
        <ele>75.520018</ele>
        <time>2023-01-05T14:55:47.967Z</time>
      </trkpt>
      <trkpt lat="43.21154" lon="2.8358">
        <ele>75.417926</ele>
        <time>2023-01-05T14:55:49.962Z</time>
      </trkpt>
      <trkpt lat="43.21155" lon="2.83596">
        <ele>75.326335</ele>
        <time>2023-01-05T14:55:51.957Z</time>
      </trkpt>
      <trkpt lat="43.21157" lon="2.83612">
        <ele>75.232375</ele>
        <time>2023-01-05T14:55:53.971Z</time>
      </trkpt>
      <trkpt lat="43.2116" lon="2.83629">
        <ele>75.137256</ele>
        <time>2023-01-05T14:55:55.965Z</time>
      </trkpt>
      <trkpt lat="43.21163" lon="2.83646">
        <ele>75.039157</ele>
        <time>2023-01-05T14:55:57.964Z</time>
      </trkpt>
      <trkpt lat="43.21165" lon="2.83663">
        <ele>74.942854</ele>
        <time>2023-01-05T14:55:59.966Z</time>
      </trkpt>
      <trkpt lat="43.21167" lon="2.8368">
        <ele>74.842413</ele>
        <time>2023-01-05T14:56:01.966Z</time>
      </trkpt>
      <trkpt lat="43.21169" lon="2.83699">
        <ele>74.737327</ele>
        <time>2023-01-05T14:56:03.964Z</time>
      </trkpt>
      <trkpt lat="43.21171" lon="2.83718">
        <ele>74.649601</ele>
        <time>2023-01-05T14:56:05.944Z</time>
      </trkpt>
      <trkpt lat="43.21173" lon="2.83737">
        <ele>74.585196</ele>
        <time>2023-01-05T14:56:07.965Z</time>
      </trkpt>
      <trkpt lat="43.21176" lon="2.83756">
        <ele>74.520792</ele>
        <time>2023-01-05T14:56:09.964Z</time>
      </trkpt>
      <trkpt lat="43.21178" lon="2.83774">
        <ele>74.457344</ele>
        <time>2023-01-05T14:56:11.955Z</time>
      </trkpt>
      <trkpt lat="43.2118" lon="2.83793">
        <ele>74.39127</ele>
        <time>2023-01-05T14:56:13.949Z</time>
      </trkpt>
      <trkpt lat="43.21182" lon="2.83812">
        <ele>74.326343</ele>
        <time>2023-01-05T14:56:15.967Z</time>
      </trkpt>
      <trkpt lat="43.21185" lon="2.83831">
        <ele>74.260934</ele>
        <time>2023-01-05T14:56:17.966Z</time>
      </trkpt>
      <trkpt lat="43.21187" lon="2.8385">
        <ele>74.195935</ele>
        <time>2023-01-05T14:56:19.962Z</time>
      </trkpt>
      <trkpt lat="43.21189" lon="2.8387">
        <ele>74.128723</ele>
        <time>2023-01-05T14:56:21.952Z</time>
      </trkpt>
      <trkpt lat="43.21191" lon="2.83889">
        <ele>74.062382</ele>
        <time>2023-01-05T14:56:23.963Z</time>
      </trkpt>
      <trkpt lat="43.21194" lon="2.83909">
        <ele>73.993886</ele>
        <time>2023-01-05T14:56:25.966Z</time>
      </trkpt>
      <trkpt lat="43.21197" lon="2.83928">
        <ele>73.926337</ele>
        <time>2023-01-05T14:56:27.964Z</time>
      </trkpt>
      <trkpt lat="43.21199" lon="2.83948">
        <ele>73.859188</ele>
        <time>2023-01-05T14:56:29.954Z</time>
      </trkpt>
      <trkpt lat="43.21202" lon="2.83967">
        <ele>73.850619</ele>
        <time>2023-01-05T14:56:31.962Z</time>
      </trkpt>
      <trkpt lat="43.21204" lon="2.83986">
        <ele>73.854459</ele>
        <time>2023-01-05T14:56:33.964Z</time>
      </trkpt>
      <trkpt lat="43.21206" lon="2.84005">
        <ele>73.858286</ele>
        <time>2023-01-05T14:56:35.968Z</time>
      </trkpt>
      <trkpt lat="43.21208" lon="2.84024">
        <ele>73.862074</ele>
        <time>2023-01-05T14:56:37.965Z</time>
      </trkpt>
      <trkpt lat="43.21211" lon="2.84042">
        <ele>73.865801</ele>
        <time>2023-01-05T14:56:39.966Z</time>
      </trkpt>
      <trkpt lat="43.21213" lon="2.8406">
        <ele>73.869466</ele>
        <time>2023-01-05T14:56:41.970Z</time>
      </trkpt>
      <trkpt lat="43.21215" lon="2.84078">
        <ele>73.872937</ele>
        <time>2023-01-05T14:56:43.967Z</time>
      </trkpt>
      <trkpt lat="43.21217" lon="2.84095">
        <ele>73.876389</ele>
        <time>2023-01-05T14:56:45.967Z</time>
      </trkpt>
      <trkpt lat="43.21219" lon="2.84112">
        <ele>73.879848</ele>
        <time>2023-01-05T14:56:47.966Z</time>
      </trkpt>
      <trkpt lat="43.21221" lon="2.84129">
        <ele>73.883295</ele>
        <time>2023-01-05T14:56:49.968Z</time>
      </trkpt>
      <trkpt lat="43.21223" lon="2.84145">
        <ele>73.886631</ele>
        <time>2023-01-05T14:56:51.963Z</time>
      </trkpt>
      <trkpt lat="43.21225" lon="2.84163">
        <ele>73.890157</ele>
        <time>2023-01-05T14:56:53.959Z</time>
      </trkpt>
      <trkpt lat="43.21227" lon="2.8418">
        <ele>73.893639</ele>
        <time>2023-01-05T14:56:55.967Z</time>
      </trkpt>
      <trkpt lat="43.21229" lon="2.84197">
        <ele>73.900093</ele>
        <time>2023-01-05T14:56:57.970Z</time>
      </trkpt>
      <trkpt lat="43.21231" lon="2.84214">
        <ele>73.925346</ele>
        <time>2023-01-05T14:56:59.968Z</time>
      </trkpt>
      <trkpt lat="43.21233" lon="2.84232">
        <ele>73.951285</ele>
        <time>2023-01-05T14:57:01.963Z</time>
      </trkpt>
      <trkpt lat="43.21235" lon="2.8425">
        <ele>73.976656</ele>
        <time>2023-01-05T14:57:03.966Z</time>
      </trkpt>
      <trkpt lat="43.21237" lon="2.84268">
        <ele>74.003194</ele>
        <time>2023-01-05T14:57:05.965Z</time>
      </trkpt>
      <trkpt lat="43.2124" lon="2.84285">
        <ele>74.028809</ele>
        <time>2023-01-05T14:57:07.962Z</time>
      </trkpt>
      <trkpt lat="43.21242" lon="2.84302">
        <ele>74.052872</ele>
        <time>2023-01-05T14:57:09.966Z</time>
      </trkpt>
      <trkpt lat="43.21244" lon="2.84318">
        <ele>74.076934</ele>
        <time>2023-01-05T14:57:11.965Z</time>
      </trkpt>
      <trkpt lat="43.21247" lon="2.84334">
        <ele>74.100638</ele>
        <time>2023-01-05T14:57:13.963Z</time>
      </trkpt>
      <trkpt lat="43.21249" lon="2.8435">
        <ele>74.123106</ele>
        <time>2023-01-05T14:57:15.970Z</time>
      </trkpt>
      <trkpt lat="43.2125" lon="2.84364">
        <ele>74.144549</ele>
        <time>2023-01-05T14:57:17.938Z</time>
      </trkpt>
      <trkpt lat="43.21252" lon="2.84379">
        <ele>74.165827</ele>
        <time>2023-01-05T14:57:19.965Z</time>
      </trkpt>
      <trkpt lat="43.21253" lon="2.84393">
        <ele>74.18617</ele>
        <time>2023-01-05T14:57:21.963Z</time>
      </trkpt>
      <trkpt lat="43.21256" lon="2.84408">
        <ele>74.207476</ele>
        <time>2023-01-05T14:57:23.940Z</time>
      </trkpt>
      <trkpt lat="43.21257" lon="2.84422">
        <ele>74.228034</ele>
        <time>2023-01-05T14:57:25.974Z</time>
      </trkpt>
      <trkpt lat="43.21259" lon="2.84436">
        <ele>74.248519</ele>
        <time>2023-01-05T14:57:27.966Z</time>
      </trkpt>
      <trkpt lat="43.21261" lon="2.8445">
        <ele>74.211439</ele>
        <time>2023-01-05T14:57:29.959Z</time>
      </trkpt>
      <trkpt lat="43.21263" lon="2.84466">
        <ele>74.159937</ele>
        <time>2023-01-05T14:57:31.959Z</time>
      </trkpt>
      <trkpt lat="43.21265" lon="2.84482">
        <ele>74.107151</ele>
        <time>2023-01-05T14:57:33.957Z</time>
      </trkpt>
      <trkpt lat="43.21266" lon="2.84498">
        <ele>74.052818</ele>
        <time>2023-01-05T14:57:35.971Z</time>
      </trkpt>
      <trkpt lat="43.21268" lon="2.84515">
        <ele>73.99815</ele>
        <time>2023-01-05T14:57:37.964Z</time>
      </trkpt>
      <trkpt lat="43.21271" lon="2.84532">
        <ele>73.941694</ele>
        <time>2023-01-05T14:57:39.961Z</time>
      </trkpt>
      <trkpt lat="43.21273" lon="2.84549">
        <ele>73.884786</ele>
        <time>2023-01-05T14:57:41.966Z</time>
      </trkpt>
      <trkpt lat="43.21275" lon="2.84567">
        <ele>73.825565</ele>
        <time>2023-01-05T14:57:43.940Z</time>
      </trkpt>
      <trkpt lat="43.21278" lon="2.84585">
        <ele>73.766344</ele>
        <time>2023-01-05T14:57:45.965Z</time>
      </trkpt>
      <trkpt lat="43.2128" lon="2.84604">
        <ele>73.70598</ele>
        <time>2023-01-05T14:57:47.967Z</time>
      </trkpt>
      <trkpt lat="43.21282" lon="2.84621">
        <ele>73.649712</ele>
        <time>2023-01-05T14:57:49.967Z</time>
      </trkpt>
      <trkpt lat="43.21284" lon="2.84638">
        <ele>73.592235</ele>
        <time>2023-01-05T14:57:51.958Z</time>
      </trkpt>
      <trkpt lat="43.21286" lon="2.84656">
        <ele>73.533541</ele>
        <time>2023-01-05T14:57:53.966Z</time>
      </trkpt>
      <trkpt lat="43.21288" lon="2.84674">
        <ele>73.476161</ele>
        <time>2023-01-05T14:57:55.967Z</time>
      </trkpt>
      <trkpt lat="43.2129" lon="2.8469">
        <ele>73.39765</ele>
        <time>2023-01-05T14:57:57.966Z</time>
      </trkpt>
      <trkpt lat="43.21291" lon="2.84707">
        <ele>73.295919</ele>
        <time>2023-01-05T14:57:59.969Z</time>
      </trkpt>
      <trkpt lat="43.21293" lon="2.84725">
        <ele>73.194551</ele>
        <time>2023-01-05T14:58:01.964Z</time>
      </trkpt>
      <trkpt lat="43.21296" lon="2.84742">
        <ele>73.092116</ele>
        <time>2023-01-05T14:58:03.939Z</time>
      </trkpt>
      <trkpt lat="43.21298" lon="2.84759">
        <ele>72.98947</ele>
        <time>2023-01-05T14:58:05.959Z</time>
      </trkpt>
      <trkpt lat="43.213" lon="2.84777">
        <ele>72.882688</ele>
        <time>2023-01-05T14:58:07.966Z</time>
      </trkpt>
      <trkpt lat="43.21302" lon="2.84795">
        <ele>72.776299</ele>
        <time>2023-01-05T14:58:09.968Z</time>
      </trkpt>
      <trkpt lat="43.21304" lon="2.84813">
        <ele>72.668504</ele>
        <time>2023-01-05T14:58:11.960Z</time>
      </trkpt>
      <trkpt lat="43.21306" lon="2.84831">
        <ele>72.559937</ele>
        <time>2023-01-05T14:58:13.952Z</time>
      </trkpt>
      <trkpt lat="43.21309" lon="2.8485">
        <ele>72.445506</ele>
        <time>2023-01-05T14:58:15.965Z</time>
      </trkpt>
      <trkpt lat="43.21311" lon="2.8487">
        <ele>72.331215</ele>
        <time>2023-01-05T14:58:17.945Z</time>
      </trkpt>
      <trkpt lat="43.21313" lon="2.84889">
        <ele>72.215992</ele>
        <time>2023-01-05T14:58:19.962Z</time>
      </trkpt>
      <trkpt lat="43.21316" lon="2.84908">
        <ele>72.102101</ele>
        <time>2023-01-05T14:58:21.962Z</time>
      </trkpt>
      <trkpt lat="43.21318" lon="2.84926">
        <ele>72.003472</ele>
        <time>2023-01-05T14:58:23.963Z</time>
      </trkpt>
      <trkpt lat="43.21321" lon="2.84944">
        <ele>72.008555</ele>
        <time>2023-01-05T14:58:25.968Z</time>
      </trkpt>
      <trkpt lat="43.21323" lon="2.8496">
        <ele>72.013309</ele>
        <time>2023-01-05T14:58:27.967Z</time>
      </trkpt>
      <trkpt lat="43.21325" lon="2.84978">
        <ele>72.01841</ele>
        <time>2023-01-05T14:58:29.964Z</time>
      </trkpt>
      <trkpt lat="43.21327" lon="2.84996">
        <ele>72.023635</ele>
        <time>2023-01-05T14:58:31.961Z</time>
      </trkpt>
      <trkpt lat="43.21329" lon="2.85014">
        <ele>72.028961</ele>
        <time>2023-01-05T14:58:33.968Z</time>
      </trkpt>
      <trkpt lat="43.21331" lon="2.85033">
        <ele>72.034304</ele>
        <time>2023-01-05T14:58:35.967Z</time>
      </trkpt>
      <trkpt lat="43.21333" lon="2.85052">
        <ele>72.039679</ele>
        <time>2023-01-05T14:58:37.968Z</time>
      </trkpt>
      <trkpt lat="43.21336" lon="2.85069">
        <ele>72.044739</ele>
        <time>2023-01-05T14:58:39.966Z</time>
      </trkpt>
      <trkpt lat="43.21338" lon="2.85087">
        <ele>72.049981</ele>
        <time>2023-01-05T14:58:41.967Z</time>
      </trkpt>
      <trkpt lat="43.2134" lon="2.85104">
        <ele>72.054826</ele>
        <time>2023-01-05T14:58:43.965Z</time>
      </trkpt>
      <trkpt lat="43.21342" lon="2.8512">
        <ele>72.059551</ele>
        <time>2023-01-05T14:58:45.968Z</time>
      </trkpt>
      <trkpt lat="43.21344" lon="2.85137">
        <ele>72.064358</ele>
        <time>2023-01-05T14:58:47.967Z</time>
      </trkpt>
      <trkpt lat="43.21346" lon="2.85152">
        <ele>72.068912</ele>
        <time>2023-01-05T14:58:49.970Z</time>
      </trkpt>
      <trkpt lat="43.21347" lon="2.85167">
        <ele>72.073188</ele>
        <time>2023-01-05T14:58:51.968Z</time>
      </trkpt>
      <trkpt lat="43.2135" lon="2.85182">
        <ele>72.028396</ele>
        <time>2023-01-05T14:58:53.965Z</time>
      </trkpt>
      <trkpt lat="43.21351" lon="2.85195">
        <ele>71.988003</ele>
        <time>2023-01-05T14:58:55.968Z</time>
      </trkpt>
      <trkpt lat="43.21353" lon="2.8521">
        <ele>71.940233</ele>
        <time>2023-01-05T14:58:57.964Z</time>
      </trkpt>
      <trkpt lat="43.21354" lon="2.85226">
        <ele>71.89234</ele>
        <time>2023-01-05T14:58:59.966Z</time>
      </trkpt>
      <trkpt lat="43.21356" lon="2.8524">
        <ele>71.846764</ele>
        <time>2023-01-05T14:59:01.961Z</time>
      </trkpt>
      <trkpt lat="43.21358" lon="2.85256">
        <ele>71.797592</ele>
        <time>2023-01-05T14:59:03.968Z</time>
      </trkpt>
      <trkpt lat="43.2136" lon="2.85273">
        <ele>71.745118</ele>
        <time>2023-01-05T14:59:05.964Z</time>
      </trkpt>
      <trkpt lat="43.21362" lon="2.85291">
        <ele>71.690073</ele>
        <time>2023-01-05T14:59:07.967Z</time>
      </trkpt>
      <trkpt lat="43.21364" lon="2.85309">
        <ele>71.633272</ele>
        <time>2023-01-05T14:59:09.959Z</time>
      </trkpt>
      <trkpt lat="43.21366" lon="2.85326">
        <ele>71.578227</ele>
        <time>2023-01-05T14:59:11.968Z</time>
      </trkpt>
      <trkpt lat="43.21368" lon="2.85344">
        <ele>71.522889</ele>
        <time>2023-01-05T14:59:13.966Z</time>
      </trkpt>
      <trkpt lat="43.2137" lon="2.85362">
        <ele>71.467067</ele>
        <time>2023-01-05T14:59:15.966Z</time>
      </trkpt>
      <trkpt lat="43.21372" lon="2.85379">
        <ele>71.41466</ele>
        <time>2023-01-05T14:59:17.945Z</time>
      </trkpt>
      <trkpt lat="43.21374" lon="2.85395">
        <ele>71.36506</ele>
        <time>2023-01-05T14:59:19.968Z</time>
      </trkpt>
      <trkpt lat="43.21375" lon="2.85412">
        <ele>71.312777</ele>
        <time>2023-01-05T14:59:21.964Z</time>
      </trkpt>
      <trkpt lat="43.21377" lon="2.85428">
        <ele>71.274002</ele>
        <time>2023-01-05T14:59:23.964Z</time>
      </trkpt>
      <trkpt lat="43.21379" lon="2.85444">
        <ele>71.238538</ele>
        <time>2023-01-05T14:59:25.966Z</time>
      </trkpt>
      <trkpt lat="43.21381" lon="2.85459">
        <ele>71.201687</ele>
        <time>2023-01-05T14:59:27.963Z</time>
      </trkpt>
      <trkpt lat="43.21383" lon="2.85475">
        <ele>71.165723</ele>
        <time>2023-01-05T14:59:29.965Z</time>
      </trkpt>
      <trkpt lat="43.21382" lon="2.85491">
        <ele>71.129687</ele>
        <time>2023-01-05T14:59:31.944Z</time>
      </trkpt>
      <trkpt lat="43.21381" lon="2.85506">
        <ele>71.094468</ele>
        <time>2023-01-05T14:59:33.960Z</time>
      </trkpt>
      <trkpt lat="43.21381" lon="2.85522">
        <ele>71.057985</ele>
        <time>2023-01-05T14:59:35.964Z</time>
      </trkpt>
      <trkpt lat="43.21383" lon="2.85537">
        <ele>71.023154</ele>
        <time>2023-01-05T14:59:37.949Z</time>
      </trkpt>
      <trkpt lat="43.21385" lon="2.85552">
        <ele>70.988001</ele>
        <time>2023-01-05T14:59:39.952Z</time>
      </trkpt>
      <trkpt lat="43.21385" lon="2.85567">
        <ele>70.954407</ele>
        <time>2023-01-05T14:59:41.966Z</time>
      </trkpt>
      <trkpt lat="43.21387" lon="2.8558">
        <ele>70.922349</ele>
        <time>2023-01-05T14:59:43.963Z</time>
      </trkpt>
      <trkpt lat="43.21389" lon="2.85593">
        <ele>70.892777</ele>
        <time>2023-01-05T14:59:45.967Z</time>
      </trkpt>
      <trkpt lat="43.21391" lon="2.8561">
        <ele>70.852989</ele>
        <time>2023-01-05T14:59:48.965Z</time>
      </trkpt>
      <trkpt lat="43.21393" lon="2.8562">
        <ele>70.829499</ele>
        <time>2023-01-05T15:00:32.925Z</time>
      </trkpt>
      <trkpt lat="43.21395" lon="2.85633">
        <ele>70.799918</ele>
        <time>2023-01-05T15:08:13.949Z</time>
      </trkpt>
      <trkpt lat="43.21401" lon="2.85642">
        <ele>70.770774</ele>
        <time>2023-01-05T15:08:18.974Z</time>
      </trkpt>
      <trkpt lat="43.21407" lon="2.85653">
        <ele>70.765282</ele>
        <time>2023-01-05T15:08:22.944Z</time>
      </trkpt>
      <trkpt lat="43.21408" lon="2.85667">
        <ele>70.85635</ele>
        <time>2023-01-05T15:08:25.953Z</time>
      </trkpt>
      <trkpt lat="43.2141" lon="2.85682">
        <ele>70.963653</ele>
        <time>2023-01-05T15:08:28.949Z</time>
      </trkpt>
      <trkpt lat="43.21412" lon="2.85698">
        <ele>71.07716</ele>
        <time>2023-01-05T15:08:31.964Z</time>
      </trkpt>
      <trkpt lat="43.21414" lon="2.85716">
        <ele>71.196286</ele>
        <time>2023-01-05T15:08:34.964Z</time>
      </trkpt>
      <trkpt lat="43.21416" lon="2.85733">
        <ele>71.312178</ele>
        <time>2023-01-05T15:08:37.971Z</time>
      </trkpt>
      <trkpt lat="43.21418" lon="2.85749">
        <ele>71.423497</ele>
        <time>2023-01-05T15:08:40.961Z</time>
      </trkpt>
      <trkpt lat="43.2142" lon="2.85765">
        <ele>71.534489</ele>
        <time>2023-01-05T15:08:43.969Z</time>
      </trkpt>
      <trkpt lat="43.21422" lon="2.85783">
        <ele>71.657559</ele>
        <time>2023-01-05T15:08:46.949Z</time>
      </trkpt>
      <trkpt lat="43.21423" lon="2.85795">
        <ele>71.743095</ele>
        <time>2023-01-05T15:08:48.964Z</time>
      </trkpt>
      <trkpt lat="43.21425" lon="2.85808">
        <ele>71.831116</ele>
        <time>2023-01-05T15:08:50.955Z</time>
      </trkpt>
      <trkpt lat="43.21426" lon="2.85821">
        <ele>71.925177</ele>
        <time>2023-01-05T15:08:52.958Z</time>
      </trkpt>
      <trkpt lat="43.21427" lon="2.85836">
        <ele>72.023104</ele>
        <time>2023-01-05T15:08:54.952Z</time>
      </trkpt>
      <trkpt lat="43.21427" lon="2.8585">
        <ele>72.120588</ele>
        <time>2023-01-05T15:08:56.954Z</time>
      </trkpt>
      <trkpt lat="43.21427" lon="2.85864">
        <ele>72.216708</ele>
        <time>2023-01-05T15:08:58.952Z</time>
      </trkpt>
      <trkpt lat="43.21427" lon="2.85879">
        <ele>72.319658</ele>
        <time>2023-01-05T15:09:00.964Z</time>
      </trkpt>
      <trkpt lat="43.21426" lon="2.85894">
        <ele>72.423015</ele>
        <time>2023-01-05T15:09:02.948Z</time>
      </trkpt>
      <trkpt lat="43.21425" lon="2.8591">
        <ele>72.560669</ele>
        <time>2023-01-05T15:09:04.963Z</time>
      </trkpt>
      <trkpt lat="43.21425" lon="2.85924">
        <ele>72.692647</ele>
        <time>2023-01-05T15:09:06.958Z</time>
      </trkpt>
      <trkpt lat="43.21425" lon="2.85939">
        <ele>72.828237</ele>
        <time>2023-01-05T15:09:08.943Z</time>
      </trkpt>
      <trkpt lat="43.21425" lon="2.85953">
        <ele>72.953842</ele>
        <time>2023-01-05T15:09:10.957Z</time>
      </trkpt>
      <trkpt lat="43.21425" lon="2.85967">
        <ele>73.075884</ele>
        <time>2023-01-05T15:09:12.947Z</time>
      </trkpt>
      <trkpt lat="43.21424" lon="2.8598">
        <ele>73.193769</ele>
        <time>2023-01-05T15:09:14.961Z</time>
      </trkpt>
      <trkpt lat="43.21423" lon="2.85992">
        <ele>73.309854</ele>
        <time>2023-01-05T15:09:16.949Z</time>
      </trkpt>
      <trkpt lat="43.21422" lon="2.86005">
        <ele>73.425151</ele>
        <time>2023-01-05T15:09:18.963Z</time>
      </trkpt>
      <trkpt lat="43.21421" lon="2.86024">
        <ele>73.596577</ele>
        <time>2023-01-05T15:09:21.946Z</time>
      </trkpt>
      <trkpt lat="43.21421" lon="2.86042">
        <ele>73.760128</ele>
        <time>2023-01-05T15:09:24.963Z</time>
      </trkpt>
      <trkpt lat="43.21421" lon="2.86059">
        <ele>73.913819</ele>
        <time>2023-01-05T15:09:27.955Z</time>
      </trkpt>
      <trkpt lat="43.2142" lon="2.86075">
        <ele>74.058924</ele>
        <time>2023-01-05T15:09:30.955Z</time>
      </trkpt>
      <trkpt lat="43.21419" lon="2.86091">
        <ele>74.200429</ele>
        <time>2023-01-05T15:09:33.963Z</time>
      </trkpt>
      <trkpt lat="43.21417" lon="2.86108">
        <ele>74.356059</ele>
        <time>2023-01-05T15:09:36.973Z</time>
      </trkpt>
      <trkpt lat="43.21416" lon="2.86126">
        <ele>74.519385</ele>
        <time>2023-01-05T15:09:39.963Z</time>
      </trkpt>
      <trkpt lat="43.21416" lon="2.86138">
        <ele>74.633299</ele>
        <time>2023-01-05T15:09:41.965Z</time>
      </trkpt>
      <trkpt lat="43.21415" lon="2.86151">
        <ele>74.605837</ele>
        <time>2023-01-05T15:09:43.959Z</time>
      </trkpt>
      <trkpt lat="43.21415" lon="2.86164">
        <ele>74.53712</ele>
        <time>2023-01-05T15:09:45.971Z</time>
      </trkpt>
      <trkpt lat="43.21414" lon="2.86178">
        <ele>74.46667</ele>
        <time>2023-01-05T15:09:47.952Z</time>
      </trkpt>
      <trkpt lat="43.21413" lon="2.86192">
        <ele>74.39205</ele>
        <time>2023-01-05T15:09:49.974Z</time>
      </trkpt>
      <trkpt lat="43.21413" lon="2.86206">
        <ele>74.317468</ele>
        <time>2023-01-05T15:09:51.953Z</time>
      </trkpt>
      <trkpt lat="43.21412" lon="2.86219">
        <ele>74.245776</ele>
        <time>2023-01-05T15:09:53.949Z</time>
      </trkpt>
      <trkpt lat="43.21411" lon="2.86234">
        <ele>74.170139</ele>
        <time>2023-01-05T15:09:55.947Z</time>
      </trkpt>
      <trkpt lat="43.21411" lon="2.86248">
        <ele>74.095061</ele>
        <time>2023-01-05T15:09:57.950Z</time>
      </trkpt>
      <trkpt lat="43.2141" lon="2.86262">
        <ele>74.020282</ele>
        <time>2023-01-05T15:09:59.971Z</time>
      </trkpt>
      <trkpt lat="43.21409" lon="2.86276">
        <ele>73.945615</ele>
        <time>2023-01-05T15:10:01.950Z</time>
      </trkpt>
      <trkpt lat="43.21409" lon="2.8629">
        <ele>73.870896</ele>
        <time>2023-01-05T15:10:03.947Z</time>
      </trkpt>
      <trkpt lat="43.21407" lon="2.86304">
        <ele>73.794044</ele>
        <time>2023-01-05T15:10:05.966Z</time>
      </trkpt>
      <trkpt lat="43.21405" lon="2.86318">
        <ele>73.719189</ele>
        <time>2023-01-05T15:10:07.952Z</time>
      </trkpt>
      <trkpt lat="43.21403" lon="2.86332">
        <ele>73.643433</ele>
        <time>2023-01-05T15:10:09.971Z</time>
      </trkpt>
      <trkpt lat="43.214" lon="2.86345">
        <ele>73.571669</ele>
        <time>2023-01-05T15:10:11.970Z</time>
      </trkpt>
      <trkpt lat="43.21398" lon="2.86358">
        <ele>73.501758</ele>
        <time>2023-01-05T15:10:13.945Z</time>
      </trkpt>
      <trkpt lat="43.21396" lon="2.8637">
        <ele>73.435506</ele>
        <time>2023-01-05T15:10:15.966Z</time>
      </trkpt>
      <trkpt lat="43.21393" lon="2.86383">
        <ele>73.369253</ele>
        <time>2023-01-05T15:10:17.948Z</time>
      </trkpt>
      <trkpt lat="43.2139" lon="2.86399">
        <ele>73.279842</ele>
        <time>2023-01-05T15:10:20.948Z</time>
      </trkpt>
      <trkpt lat="43.21387" lon="2.86414">
        <ele>73.200466</ele>
        <time>2023-01-05T15:10:23.939Z</time>
      </trkpt>
      <trkpt lat="43.21384" lon="2.86429">
        <ele>73.122608</ele>
        <time>2023-01-05T15:10:26.947Z</time>
      </trkpt>
      <trkpt lat="43.21381" lon="2.86445">
        <ele>73.042624</ele>
        <time>2023-01-05T15:10:29.944Z</time>
      </trkpt>
      <trkpt lat="43.21379" lon="2.8646">
        <ele>72.962971</ele>
        <time>2023-01-05T15:10:32.955Z</time>
      </trkpt>
      <trkpt lat="43.21376" lon="2.86476">
        <ele>72.879378</ele>
        <time>2023-01-05T15:10:35.944Z</time>
      </trkpt>
      <trkpt lat="43.21372" lon="2.86492">
        <ele>72.792912</ele>
        <time>2023-01-05T15:10:38.948Z</time>
      </trkpt>
      <trkpt lat="43.21368" lon="2.8651">
        <ele>72.699741</ele>
        <time>2023-01-05T15:10:41.939Z</time>
      </trkpt>
      <trkpt lat="43.21366" lon="2.86522">
        <ele>72.636291</ele>
        <time>2023-01-05T15:10:43.948Z</time>
      </trkpt>
      <trkpt lat="43.21363" lon="2.86535">
        <ele>72.568866</ele>
        <time>2023-01-05T15:10:45.969Z</time>
      </trkpt>
      <trkpt lat="43.2136" lon="2.86547">
        <ele>72.502307</ele>
        <time>2023-01-05T15:10:47.947Z</time>
      </trkpt>
      <trkpt lat="43.21357" lon="2.86559">
        <ele>72.437846</ele>
        <time>2023-01-05T15:10:49.971Z</time>
      </trkpt>
      <trkpt lat="43.21353" lon="2.86573">
        <ele>72.3627</ele>
        <time>2023-01-05T15:10:51.946Z</time>
      </trkpt>
      <trkpt lat="43.21348" lon="2.86586">
        <ele>72.289716</ele>
        <time>2023-01-05T15:10:53.972Z</time>
      </trkpt>
      <trkpt lat="43.21344" lon="2.86599">
        <ele>72.21719</ele>
        <time>2023-01-05T15:10:55.970Z</time>
      </trkpt>
      <trkpt lat="43.21339" lon="2.86613">
        <ele>72.140116</ele>
        <time>2023-01-05T15:10:57.951Z</time>
      </trkpt>
      <trkpt lat="43.21334" lon="2.86626">
        <ele>72.072729</ele>
        <time>2023-01-05T15:10:59.949Z</time>
      </trkpt>
      <trkpt lat="43.21329" lon="2.86639">
        <ele>72.012154</ele>
        <time>2023-01-05T15:11:01.971Z</time>
      </trkpt>
      <trkpt lat="43.21325" lon="2.86653">
        <ele>71.94959</ele>
        <time>2023-01-05T15:11:03.950Z</time>
      </trkpt>
      <trkpt lat="43.2132" lon="2.86666">
        <ele>71.886529</ele>
        <time>2023-01-05T15:11:05.956Z</time>
      </trkpt>
      <trkpt lat="43.21314" lon="2.8668">
        <ele>71.820321</ele>
        <time>2023-01-05T15:11:07.949Z</time>
      </trkpt>
      <trkpt lat="43.21309" lon="2.86694">
        <ele>71.755482</ele>
        <time>2023-01-05T15:11:09.950Z</time>
      </trkpt>
      <trkpt lat="43.21304" lon="2.86708">
        <ele>71.690304</ele>
        <time>2023-01-05T15:11:11.964Z</time>
      </trkpt>
      <trkpt lat="43.21299" lon="2.86722">
        <ele>71.626741</ele>
        <time>2023-01-05T15:11:13.949Z</time>
      </trkpt>
      <trkpt lat="43.21294" lon="2.86735">
        <ele>71.566642</ele>
        <time>2023-01-05T15:11:15.952Z</time>
      </trkpt>
      <trkpt lat="43.2129" lon="2.86748">
        <ele>71.50595</ele>
        <time>2023-01-05T15:11:17.970Z</time>
      </trkpt>
      <trkpt lat="43.21285" lon="2.86762">
        <ele>71.442495</ele>
        <time>2023-01-05T15:11:19.950Z</time>
      </trkpt>
      <trkpt lat="43.2128" lon="2.86775">
        <ele>71.379574</ele>
        <time>2023-01-05T15:11:21.952Z</time>
      </trkpt>
      <trkpt lat="43.21275" lon="2.86789">
        <ele>71.316875</ele>
        <time>2023-01-05T15:11:23.955Z</time>
      </trkpt>
      <trkpt lat="43.21271" lon="2.86802">
        <ele>71.257428</ele>
        <time>2023-01-05T15:11:25.960Z</time>
      </trkpt>
      <trkpt lat="43.21266" lon="2.86815">
        <ele>71.196961</ele>
        <time>2023-01-05T15:11:27.953Z</time>
      </trkpt>
      <trkpt lat="43.21261" lon="2.86828">
        <ele>71.136143</ele>
        <time>2023-01-05T15:11:29.955Z</time>
      </trkpt>
      <trkpt lat="43.21257" lon="2.8684">
        <ele>71.081483</ele>
        <time>2023-01-05T15:11:31.949Z</time>
      </trkpt>
      <trkpt lat="43.21253" lon="2.86852">
        <ele>71.131595</ele>
        <time>2023-01-05T15:11:33.970Z</time>
      </trkpt>
      <trkpt lat="43.21249" lon="2.86863">
        <ele>71.179958</ele>
        <time>2023-01-05T15:11:35.946Z</time>
      </trkpt>
      <trkpt lat="43.21245" lon="2.86875">
        <ele>71.229769</ele>
        <time>2023-01-05T15:11:37.965Z</time>
      </trkpt>
      <trkpt lat="43.21241" lon="2.8689">
        <ele>71.294003</ele>
        <time>2023-01-05T15:11:40.980Z</time>
      </trkpt>
      <trkpt lat="43.21237" lon="2.86905">
        <ele>71.355575</ele>
        <time>2023-01-05T15:11:43.956Z</time>
      </trkpt>
      <trkpt lat="43.21234" lon="2.8692">
        <ele>71.414022</ele>
        <time>2023-01-05T15:11:46.973Z</time>
      </trkpt>
      <trkpt lat="43.2123" lon="2.86934">
        <ele>71.471077</ele>
        <time>2023-01-05T15:11:49.950Z</time>
      </trkpt>
      <trkpt lat="43.21228" lon="2.86948">
        <ele>71.529609</ele>
        <time>2023-01-05T15:11:52.960Z</time>
      </trkpt>
      <trkpt lat="43.21225" lon="2.86963">
        <ele>71.589651</ele>
        <time>2023-01-05T15:11:55.944Z</time>
      </trkpt>
      <trkpt lat="43.21222" lon="2.8698">
        <ele>71.654465</ele>
        <time>2023-01-05T15:11:58.959Z</time>
      </trkpt>
      <trkpt lat="43.21218" lon="2.86995">
        <ele>71.718245</ele>
        <time>2023-01-05T15:12:01.961Z</time>
      </trkpt>
      <trkpt lat="43.21211" lon="2.8701">
        <ele>71.787354</ele>
        <time>2023-01-05T15:12:04.973Z</time>
      </trkpt>
      <trkpt lat="43.21204" lon="2.87019">
        <ele>71.837211</ele>
        <time>2023-01-05T15:12:06.960Z</time>
      </trkpt>
      <trkpt lat="43.21195" lon="2.87032">
        <ele>71.907021</ele>
        <time>2023-01-05T15:12:09.975Z</time>
      </trkpt>
      <trkpt lat="43.21187" lon="2.87045">
        <ele>71.976063</ele>
        <time>2023-01-05T15:12:12.951Z</time>
      </trkpt>
      <trkpt lat="43.21179" lon="2.87061">
        <ele>72.079752</ele>
        <time>2023-01-05T15:12:15.943Z</time>
      </trkpt>
      <trkpt lat="43.21174" lon="2.87073">
        <ele>72.25973</ele>
        <time>2023-01-05T15:12:18.955Z</time>
      </trkpt>
      <trkpt lat="43.2117" lon="2.87086">
        <ele>72.456618</ele>
        <time>2023-01-05T15:12:21.947Z</time>
      </trkpt>
      <trkpt lat="43.21165" lon="2.871">
        <ele>72.667669</ele>
        <time>2023-01-05T15:12:24.972Z</time>
      </trkpt>
      <trkpt lat="43.21162" lon="2.87113">
        <ele>72.850499</ele>
        <time>2023-01-05T15:12:27.944Z</time>
      </trkpt>
      <trkpt lat="43.21157" lon="2.87126">
        <ele>73.053546</ele>
        <time>2023-01-05T15:12:30.947Z</time>
      </trkpt>
      <trkpt lat="43.21151" lon="2.8714">
        <ele>73.266052</ele>
        <time>2023-01-05T15:12:33.954Z</time>
      </trkpt>
      <trkpt lat="43.21145" lon="2.87154">
        <ele>73.487817</ele>
        <time>2023-01-05T15:12:36.944Z</time>
      </trkpt>
      <trkpt lat="43.2114" lon="2.87168">
        <ele>73.704945</ele>
        <time>2023-01-05T15:12:39.946Z</time>
      </trkpt>
      <trkpt lat="43.21135" lon="2.87182">
        <ele>73.910748</ele>
        <time>2023-01-05T15:12:42.955Z</time>
      </trkpt>
      <trkpt lat="43.2113" lon="2.87195">
        <ele>74.101641</ele>
        <time>2023-01-05T15:12:45.945Z</time>
      </trkpt>
      <trkpt lat="43.21126" lon="2.87208">
        <ele>74.294867</ele>
        <time>2023-01-05T15:12:48.951Z</time>
      </trkpt>
      <trkpt lat="43.21121" lon="2.87221">
        <ele>74.50067</ele>
        <time>2023-01-05T15:12:51.956Z</time>
      </trkpt>
      <trkpt lat="43.21116" lon="2.87235">
        <ele>74.716219</ele>
        <time>2023-01-05T15:12:54.951Z</time>
      </trkpt>
      <trkpt lat="43.2111" lon="2.87249">
        <ele>74.928519</ele>
        <time>2023-01-05T15:12:57.958Z</time>
      </trkpt>
      <trkpt lat="43.21105" lon="2.87263">
        <ele>75.138954</ele>
        <time>2023-01-05T15:13:00.946Z</time>
      </trkpt>
      <trkpt lat="43.211" lon="2.87277">
        <ele>75.353302</ele>
        <time>2023-01-05T15:13:03.947Z</time>
      </trkpt>
      <trkpt lat="43.21095" lon="2.87291">
        <ele>75.353189</ele>
        <time>2023-01-05T15:13:06.968Z</time>
      </trkpt>
      <trkpt lat="43.21089" lon="2.87306">
        <ele>75.332545</ele>
        <time>2023-01-05T15:13:09.974Z</time>
      </trkpt>
      <trkpt lat="43.21084" lon="2.8732">
        <ele>75.312128</ele>
        <time>2023-01-05T15:13:12.972Z</time>
      </trkpt>
      <trkpt lat="43.21078" lon="2.87334">
        <ele>75.292248</ele>
        <time>2023-01-05T15:13:15.970Z</time>
      </trkpt>
      <trkpt lat="43.21073" lon="2.87349">
        <ele>75.271872</ele>
        <time>2023-01-05T15:13:18.972Z</time>
      </trkpt>
      <trkpt lat="43.21068" lon="2.87362">
        <ele>75.252129</ele>
        <time>2023-01-05T15:13:21.951Z</time>
      </trkpt>
      <trkpt lat="43.21064" lon="2.87376">
        <ele>75.232949</ele>
        <time>2023-01-05T15:13:24.952Z</time>
      </trkpt>
      <trkpt lat="43.21063" lon="2.87391">
        <ele>75.214293</ele>
        <time>2023-01-05T15:13:27.957Z</time>
      </trkpt>
      <trkpt lat="43.21065" lon="2.87405">
        <ele>75.195842</ele>
        <time>2023-01-05T15:13:30.944Z</time>
      </trkpt>
      <trkpt lat="43.2107" lon="2.87418">
        <ele>75.177206</ele>
        <time>2023-01-05T15:13:33.952Z</time>
      </trkpt>
      <trkpt lat="43.21075" lon="2.87432">
        <ele>75.158042</ele>
        <time>2023-01-05T15:13:36.972Z</time>
      </trkpt>
      <trkpt lat="43.21077" lon="2.87447">
        <ele>75.138482</ele>
        <time>2023-01-05T15:13:39.966Z</time>
      </trkpt>
      <trkpt lat="43.21077" lon="2.87464">
        <ele>75.117447</ele>
        <time>2023-01-05T15:13:42.964Z</time>
      </trkpt>
      <trkpt lat="43.21073" lon="2.87478">
        <ele>75.09782</ele>
        <time>2023-01-05T15:13:45.956Z</time>
      </trkpt>
      <trkpt lat="43.21071" lon="2.87493">
        <ele>75.079049</ele>
        <time>2023-01-05T15:13:48.971Z</time>
      </trkpt>
      <trkpt lat="43.21073" lon="2.87508">
        <ele>75.059905</ele>
        <time>2023-01-05T15:13:51.953Z</time>
      </trkpt>
      <trkpt lat="43.21077" lon="2.87527">
        <ele>74.73194</ele>
        <time>2023-01-05T15:13:54.972Z</time>
      </trkpt>
      <trkpt lat="43.21084" lon="2.8754">
        <ele>74.448728</ele>
        <time>2023-01-05T15:13:58.961Z</time>
      </trkpt>
      <trkpt lat="43.21091" lon="2.87553">
        <ele>74.16413</ele>
        <time>2023-01-05T15:14:01.953Z</time>
      </trkpt>
      <trkpt lat="43.211" lon="2.87567">
        <ele>73.849926</ele>
        <time>2023-01-05T15:14:04.969Z</time>
      </trkpt>
      <trkpt lat="43.21107" lon="2.87579">
        <ele>73.586108</ele>
        <time>2023-01-05T15:14:06.957Z</time>
      </trkpt>
      <trkpt lat="43.21113" lon="2.87591">
        <ele>73.329887</ele>
        <time>2023-01-05T15:14:08.941Z</time>
      </trkpt>
      <trkpt lat="43.21117" lon="2.87604">
        <ele>73.093862</ele>
        <time>2023-01-05T15:14:10.970Z</time>
      </trkpt>
      <trkpt lat="43.21122" lon="2.87617">
        <ele>72.846822</ele>
        <time>2023-01-05T15:14:12.958Z</time>
      </trkpt>
      <trkpt lat="43.21126" lon="2.87629">
        <ele>72.611171</ele>
        <time>2023-01-05T15:14:14.970Z</time>
      </trkpt>
      <trkpt lat="43.21129" lon="2.87641">
        <ele>72.385946</ele>
        <time>2023-01-05T15:14:16.961Z</time>
      </trkpt>
      <trkpt lat="43.21134" lon="2.87654">
        <ele>72.13593</ele>
        <time>2023-01-05T15:14:18.951Z</time>
      </trkpt>
      <trkpt lat="43.21138" lon="2.87666">
        <ele>71.91615</ele>
        <time>2023-01-05T15:14:20.978Z</time>
      </trkpt>
      <trkpt lat="43.21141" lon="2.87678">
        <ele>71.691437</ele>
        <time>2023-01-05T15:14:22.962Z</time>
      </trkpt>
      <trkpt lat="43.21144" lon="2.87691">
        <ele>71.460247</ele>
        <time>2023-01-05T15:14:24.971Z</time>
      </trkpt>
      <trkpt lat="43.21148" lon="2.87703">
        <ele>71.233447</ele>
        <time>2023-01-05T15:14:26.975Z</time>
      </trkpt>
      <trkpt lat="43.21152" lon="2.87715">
        <ele>70.99114</ele>
        <time>2023-01-05T15:14:28.971Z</time>
      </trkpt>
      <trkpt lat="43.21156" lon="2.87729">
        <ele>70.773604</ele>
        <time>2023-01-05T15:14:30.976Z</time>
      </trkpt>
      <trkpt lat="43.2116" lon="2.87742">
        <ele>70.647866</ele>
        <time>2023-01-05T15:14:32.971Z</time>
      </trkpt>
      <trkpt lat="43.21165" lon="2.87757">
        <ele>70.512839</ele>
        <time>2023-01-05T15:14:34.957Z</time>
      </trkpt>
      <trkpt lat="43.2117" lon="2.87771">
        <ele>70.382919</ele>
        <time>2023-01-05T15:14:36.950Z</time>
      </trkpt>
      <trkpt lat="43.21174" lon="2.87786">
        <ele>70.245874</ele>
        <time>2023-01-05T15:14:38.971Z</time>
      </trkpt>
      <trkpt lat="43.21179" lon="2.878">
        <ele>70.110847</ele>
        <time>2023-01-05T15:14:40.950Z</time>
      </trkpt>
      <trkpt lat="43.21184" lon="2.87815">
        <ele>69.976886</ele>
        <time>2023-01-05T15:14:42.971Z</time>
      </trkpt>
      <trkpt lat="43.21189" lon="2.8783">
        <ele>69.834834</ele>
        <time>2023-01-05T15:14:44.952Z</time>
      </trkpt>
      <trkpt lat="43.21194" lon="2.87845">
        <ele>69.696337</ele>
        <time>2023-01-05T15:14:46.950Z</time>
      </trkpt>
      <trkpt lat="43.212" lon="2.87859">
        <ele>69.557827</ele>
        <time>2023-01-05T15:14:48.972Z</time>
      </trkpt>
      <trkpt lat="43.21206" lon="2.87873">
        <ele>69.418967</ele>
        <time>2023-01-05T15:14:50.972Z</time>
      </trkpt>
      <trkpt lat="43.21212" lon="2.87888">
        <ele>69.278929</ele>
        <time>2023-01-05T15:14:52.948Z</time>
      </trkpt>
      <trkpt lat="43.21218" lon="2.87901">
        <ele>69.13929</ele>
        <time>2023-01-05T15:14:54.946Z</time>
      </trkpt>
      <trkpt lat="43.21225" lon="2.87916">
        <ele>68.996892</ele>
        <time>2023-01-05T15:14:56.973Z</time>
      </trkpt>
      <trkpt lat="43.21231" lon="2.87929">
        <ele>68.860351</ele>
        <time>2023-01-05T15:14:58.956Z</time>
      </trkpt>
      <trkpt lat="43.21238" lon="2.87942">
        <ele>68.724233</ele>
        <time>2023-01-05T15:15:00.968Z</time>
      </trkpt>
      <trkpt lat="43.21246" lon="2.87955">
        <ele>68.697061</ele>
        <time>2023-01-05T15:15:02.971Z</time>
      </trkpt>
      <trkpt lat="43.21252" lon="2.87968">
        <ele>68.681707</ele>
        <time>2023-01-05T15:15:04.967Z</time>
      </trkpt>
      <trkpt lat="43.21258" lon="2.8798">
        <ele>68.667132</ele>
        <time>2023-01-05T15:15:06.971Z</time>
      </trkpt>
      <trkpt lat="43.21264" lon="2.87993">
        <ele>68.652488</ele>
        <time>2023-01-05T15:15:08.966Z</time>
      </trkpt>
      <trkpt lat="43.21271" lon="2.88005">
        <ele>68.63761</ele>
        <time>2023-01-05T15:15:10.966Z</time>
      </trkpt>
      <trkpt lat="43.21277" lon="2.88016">
        <ele>68.623993</ele>
        <time>2023-01-05T15:15:12.962Z</time>
      </trkpt>
      <trkpt lat="43.21283" lon="2.88027">
        <ele>68.609907</ele>
        <time>2023-01-05T15:15:14.963Z</time>
      </trkpt>
      <trkpt lat="43.21289" lon="2.8804">
        <ele>68.59583</ele>
        <time>2023-01-05T15:15:16.965Z</time>
      </trkpt>
      <trkpt lat="43.21295" lon="2.88052">
        <ele>68.581744</ele>
        <time>2023-01-05T15:15:18.965Z</time>
      </trkpt>
      <trkpt lat="43.21302" lon="2.88064">
        <ele>68.566539</ele>
        <time>2023-01-05T15:15:20.971Z</time>
      </trkpt>
      <trkpt lat="43.21309" lon="2.88077">
        <ele>68.550791</ele>
        <time>2023-01-05T15:15:22.954Z</time>
      </trkpt>
      <trkpt lat="43.21315" lon="2.8809">
        <ele>68.53512</ele>
        <time>2023-01-05T15:15:24.966Z</time>
      </trkpt>
      <trkpt lat="43.21322" lon="2.88103">
        <ele>68.519286</ele>
        <time>2023-01-05T15:15:26.949Z</time>
      </trkpt>
      <trkpt lat="43.21329" lon="2.88115">
        <ele>68.503696</ele>
        <time>2023-01-05T15:15:28.956Z</time>
      </trkpt>
      <trkpt lat="43.21336" lon="2.88128">
        <ele>68.488186</ele>
        <time>2023-01-05T15:15:30.943Z</time>
      </trkpt>
      <trkpt lat="43.21343" lon="2.88142">
        <ele>68.472035</ele>
        <time>2023-01-05T15:15:32.958Z</time>
      </trkpt>
      <trkpt lat="43.2135" lon="2.88156">
        <ele>68.492762</ele>
        <time>2023-01-05T15:15:34.943Z</time>
      </trkpt>
      <trkpt lat="43.21356" lon="2.88169">
        <ele>68.517997</ele>
        <time>2023-01-05T15:15:36.947Z</time>
      </trkpt>
      <trkpt lat="43.21363" lon="2.88182">
        <ele>68.542829</ele>
        <time>2023-01-05T15:15:38.971Z</time>
      </trkpt>
      <trkpt lat="43.21368" lon="2.88195">
        <ele>68.566715</ele>
        <time>2023-01-05T15:15:40.974Z</time>
      </trkpt>
      <trkpt lat="43.21373" lon="2.8821">
        <ele>68.592253</ele>
        <time>2023-01-05T15:15:42.952Z</time>
      </trkpt>
      <trkpt lat="43.21376" lon="2.88225">
        <ele>68.617952</ele>
        <time>2023-01-05T15:15:44.950Z</time>
      </trkpt>
      <trkpt lat="43.21377" lon="2.88241">
        <ele>68.642556</ele>
        <time>2023-01-05T15:15:46.957Z</time>
      </trkpt>
      <trkpt lat="43.21377" lon="2.88256">
        <ele>68.667099</ele>
        <time>2023-01-05T15:15:48.958Z</time>
      </trkpt>
      <trkpt lat="43.21376" lon="2.88271">
        <ele>68.691032</ele>
        <time>2023-01-05T15:15:50.957Z</time>
      </trkpt>
      <trkpt lat="43.21376" lon="2.88287">
        <ele>68.716084</ele>
        <time>2023-01-05T15:15:52.947Z</time>
      </trkpt>
      <trkpt lat="43.21376" lon="2.88303">
        <ele>68.741263</ele>
        <time>2023-01-05T15:15:54.950Z</time>
      </trkpt>
      <trkpt lat="43.21376" lon="2.88319">
        <ele>68.766756</ele>
        <time>2023-01-05T15:15:56.948Z</time>
      </trkpt>
      <trkpt lat="43.21376" lon="2.88336">
        <ele>68.793231</ele>
        <time>2023-01-05T15:15:58.969Z</time>
      </trkpt>
      <trkpt lat="43.21377" lon="2.88352">
        <ele>68.81889</ele>
        <time>2023-01-05T15:16:00.969Z</time>
      </trkpt>
      <trkpt lat="43.21377" lon="2.88369">
        <ele>68.845997</ele>
        <time>2023-01-05T15:16:02.972Z</time>
      </trkpt>
      <trkpt lat="43.21377" lon="2.88386">
        <ele>68.820353</ele>
        <time>2023-01-05T15:16:04.968Z</time>
      </trkpt>
      <trkpt lat="43.21378" lon="2.88403">
        <ele>68.731731</ele>
        <time>2023-01-05T15:16:06.976Z</time>
      </trkpt>
      <trkpt lat="43.21378" lon="2.88419">
        <ele>68.645093</ele>
        <time>2023-01-05T15:16:08.948Z</time>
      </trkpt>
      <trkpt lat="43.21379" lon="2.88436">
        <ele>68.555905</ele>
        <time>2023-01-05T15:16:10.955Z</time>
      </trkpt>
      <trkpt lat="43.21379" lon="2.88453">
        <ele>68.466753</ele>
        <time>2023-01-05T15:16:12.946Z</time>
      </trkpt>
      <trkpt lat="43.21379" lon="2.88469">
        <ele>68.379723</ele>
        <time>2023-01-05T15:16:14.950Z</time>
      </trkpt>
      <trkpt lat="43.2138" lon="2.88485">
        <ele>68.294098</ele>
        <time>2023-01-05T15:16:16.962Z</time>
      </trkpt>
      <trkpt lat="43.2138" lon="2.885">
        <ele>68.213895</ele>
        <time>2023-01-05T15:16:18.953Z</time>
      </trkpt>
      <trkpt lat="43.2138" lon="2.88515">
        <ele>68.136397</ele>
        <time>2023-01-05T15:16:20.958Z</time>
      </trkpt>
      <trkpt lat="43.2138" lon="2.8853">
        <ele>68.058399</ele>
        <time>2023-01-05T15:16:22.940Z</time>
      </trkpt>
      <trkpt lat="43.2138" lon="2.88544">
        <ele>67.980929</ele>
        <time>2023-01-05T15:16:24.967Z</time>
      </trkpt>
      <trkpt lat="43.2138" lon="2.88559">
        <ele>67.900265</ele>
        <time>2023-01-05T15:16:26.972Z</time>
      </trkpt>
      <trkpt lat="43.21381" lon="2.88574">
        <ele>67.822579</ele>
        <time>2023-01-05T15:16:28.944Z</time>
      </trkpt>
      <trkpt lat="43.21381" lon="2.8859">
        <ele>67.739262</ele>
        <time>2023-01-05T15:16:30.953Z</time>
      </trkpt>
      <trkpt lat="43.21381" lon="2.88605">
        <ele>67.657469</ele>
        <time>2023-01-05T15:16:32.955Z</time>
      </trkpt>
      <trkpt lat="43.21382" lon="2.88622">
        <ele>67.568833</ele>
        <time>2023-01-05T15:16:34.950Z</time>
      </trkpt>
      <trkpt lat="43.21382" lon="2.88639">
        <ele>67.520758</ele>
        <time>2023-01-05T15:16:36.965Z</time>
      </trkpt>
      <trkpt lat="43.21382" lon="2.88655">
        <ele>67.484032</ele>
        <time>2023-01-05T15:16:38.950Z</time>
      </trkpt>
      <trkpt lat="43.21382" lon="2.88671">
        <ele>67.447535</ele>
        <time>2023-01-05T15:16:40.951Z</time>
      </trkpt>
      <trkpt lat="43.21383" lon="2.88688">
        <ele>67.409176</ele>
        <time>2023-01-05T15:16:42.943Z</time>
      </trkpt>
      <trkpt lat="43.21384" lon="2.88705">
        <ele>67.371427</ele>
        <time>2023-01-05T15:16:44.951Z</time>
      </trkpt>
      <trkpt lat="43.21384" lon="2.88721">
        <ele>67.335152</ele>
        <time>2023-01-05T15:16:46.947Z</time>
      </trkpt>
      <trkpt lat="43.21384" lon="2.88737">
        <ele>67.299105</ele>
        <time>2023-01-05T15:16:48.949Z</time>
      </trkpt>
      <trkpt lat="43.21385" lon="2.88752">
        <ele>67.264828</ele>
        <time>2023-01-05T15:16:50.947Z</time>
      </trkpt>
      <trkpt lat="43.21386" lon="2.88768">
        <ele>67.229617</ele>
        <time>2023-01-05T15:16:52.973Z</time>
      </trkpt>
      <trkpt lat="43.21386" lon="2.88783">
        <ele>67.196038</ele>
        <time>2023-01-05T15:16:54.962Z</time>
      </trkpt>
      <trkpt lat="43.21386" lon="2.88797">
        <ele>67.16356</ele>
        <time>2023-01-05T15:16:56.953Z</time>
      </trkpt>
      <trkpt lat="43.21386" lon="2.88812">
        <ele>67.129316</ele>
        <time>2023-01-05T15:16:58.952Z</time>
      </trkpt>
      <trkpt lat="43.21387" lon="2.88828">
        <ele>67.093942</ele>
        <time>2023-01-05T15:17:00.950Z</time>
      </trkpt>
      <trkpt lat="43.21386" lon="2.88843">
        <ele>67.058797</ele>
        <time>2023-01-05T15:17:02.955Z</time>
      </trkpt>
      <trkpt lat="43.21387" lon="2.8886">
        <ele>67.02228</ele>
        <time>2023-01-05T15:17:04.966Z</time>
      </trkpt>
      <trkpt lat="43.21387" lon="2.88876">
        <ele>66.979839</ele>
        <time>2023-01-05T15:17:06.949Z</time>
      </trkpt>
      <trkpt lat="43.21387" lon="2.88892">
        <ele>66.914674</ele>
        <time>2023-01-05T15:17:08.976Z</time>
      </trkpt>
      <trkpt lat="43.21386" lon="2.88908">
        <ele>66.85111</ele>
        <time>2023-01-05T15:17:10.950Z</time>
      </trkpt>
      <trkpt lat="43.21385" lon="2.88924">
        <ele>66.785976</ele>
        <time>2023-01-05T15:17:12.968Z</time>
      </trkpt>
      <trkpt lat="43.21385" lon="2.8894">
        <ele>66.725179</ele>
        <time>2023-01-05T15:17:14.950Z</time>
      </trkpt>
      <trkpt lat="43.21384" lon="2.88955">
        <ele>66.662699</ele>
        <time>2023-01-05T15:17:16.958Z</time>
      </trkpt>
      <trkpt lat="43.21382" lon="2.88971">
        <ele>66.598391</ele>
        <time>2023-01-05T15:17:18.959Z</time>
      </trkpt>
      <trkpt lat="43.21381" lon="2.88986">
        <ele>66.537533</ele>
        <time>2023-01-05T15:17:20.947Z</time>
      </trkpt>
      <trkpt lat="43.21379" lon="2.89002">
        <ele>66.475099</ele>
        <time>2023-01-05T15:17:22.956Z</time>
      </trkpt>
      <trkpt lat="43.21377" lon="2.89017">
        <ele>66.412762</ele>
        <time>2023-01-05T15:17:24.951Z</time>
      </trkpt>
      <trkpt lat="43.21374" lon="2.89032">
        <ele>66.351903</ele>
        <time>2023-01-05T15:17:26.966Z</time>
      </trkpt>
      <trkpt lat="43.21372" lon="2.89047">
        <ele>66.289885</ele>
        <time>2023-01-05T15:17:28.969Z</time>
      </trkpt>
      <trkpt lat="43.21369" lon="2.89063">
        <ele>66.22748</ele>
        <time>2023-01-05T15:17:30.955Z</time>
      </trkpt>
      <trkpt lat="43.21367" lon="2.89078">
        <ele>66.167003</ele>
        <time>2023-01-05T15:17:32.947Z</time>
      </trkpt>
      <trkpt lat="43.21365" lon="2.89093">
        <ele>66.105836</ele>
        <time>2023-01-05T15:17:34.949Z</time>
      </trkpt>
      <trkpt lat="43.21362" lon="2.89108">
        <ele>66.043305</ele>
        <time>2023-01-05T15:17:36.956Z</time>
      </trkpt>
      <trkpt lat="43.2136" lon="2.89123">
        <ele>65.998743</ele>
        <time>2023-01-05T15:17:38.940Z</time>
      </trkpt>
      <trkpt lat="43.21358" lon="2.89138">
        <ele>65.96728</ele>
        <time>2023-01-05T15:17:40.955Z</time>
      </trkpt>
      <trkpt lat="43.21356" lon="2.89154">
        <ele>65.934824</ele>
        <time>2023-01-05T15:17:42.948Z</time>
      </trkpt>
      <trkpt lat="43.21355" lon="2.8917">
        <ele>65.902212</ele>
        <time>2023-01-05T15:17:44.951Z</time>
      </trkpt>
      <trkpt lat="43.21353" lon="2.89187">
        <ele>65.867678</ele>
        <time>2023-01-05T15:17:46.969Z</time>
      </trkpt>
      <trkpt lat="43.21351" lon="2.89203">
        <ele>65.83542</ele>
        <time>2023-01-05T15:17:48.956Z</time>
      </trkpt>
      <trkpt lat="43.2135" lon="2.89218">
        <ele>65.804677</ele>
        <time>2023-01-05T15:17:50.965Z</time>
      </trkpt>
      <trkpt lat="43.21348" lon="2.89234">
        <ele>65.772981</ele>
        <time>2023-01-05T15:17:52.956Z</time>
      </trkpt>
      <trkpt lat="43.21347" lon="2.89249">
        <ele>65.742282</ele>
        <time>2023-01-05T15:17:54.940Z</time>
      </trkpt>
      <trkpt lat="43.21344" lon="2.89264">
        <ele>65.710814</ele>
        <time>2023-01-05T15:17:56.953Z</time>
      </trkpt>
      <trkpt lat="43.21343" lon="2.89279">
        <ele>65.680551</ele>
        <time>2023-01-05T15:17:58.945Z</time>
      </trkpt>
      <trkpt lat="43.21341" lon="2.89295">
        <ele>65.648095</ele>
        <time>2023-01-05T15:18:00.955Z</time>
      </trkpt>
      <trkpt lat="43.21338" lon="2.89312">
        <ele>65.61344</ele>
        <time>2023-01-05T15:18:02.955Z</time>
      </trkpt>
      <trkpt lat="43.21334" lon="2.89329">
        <ele>65.578006</ele>
        <time>2023-01-05T15:18:04.949Z</time>
      </trkpt>
      <trkpt lat="43.2133" lon="2.89345">
        <ele>65.54214</ele>
        <time>2023-01-05T15:18:06.945Z</time>
      </trkpt>
      <trkpt lat="43.21325" lon="2.89362">
        <ele>65.540337</ele>
        <time>2023-01-05T15:18:08.946Z</time>
      </trkpt>
      <trkpt lat="43.21318" lon="2.89378">
        <ele>65.611334</ele>
        <time>2023-01-05T15:18:10.954Z</time>
      </trkpt>
      <trkpt lat="43.21312" lon="2.89394">
        <ele>65.68165</ele>
        <time>2023-01-05T15:18:12.956Z</time>
      </trkpt>
      <trkpt lat="43.21306" lon="2.8941">
        <ele>65.750867</ele>
        <time>2023-01-05T15:18:14.948Z</time>
      </trkpt>
      <trkpt lat="43.21299" lon="2.89425">
        <ele>65.818891</ele>
        <time>2023-01-05T15:18:16.955Z</time>
      </trkpt>
      <trkpt lat="43.21293" lon="2.8944">
        <ele>65.884633</ele>
        <time>2023-01-05T15:18:18.965Z</time>
      </trkpt>
      <trkpt lat="43.21287" lon="2.89454">
        <ele>65.946976</ele>
        <time>2023-01-05T15:18:20.948Z</time>
      </trkpt>
      <trkpt lat="43.21281" lon="2.89468">
        <ele>66.009579</ele>
        <time>2023-01-05T15:18:22.953Z</time>
      </trkpt>
      <trkpt lat="43.21275" lon="2.8948">
        <ele>66.067775</ele>
        <time>2023-01-05T15:18:24.941Z</time>
      </trkpt>
      <trkpt lat="43.2127" lon="2.89492">
        <ele>66.124065</ele>
        <time>2023-01-05T15:18:26.945Z</time>
      </trkpt>
      <trkpt lat="43.21264" lon="2.89505">
        <ele>66.18025</ele>
        <time>2023-01-05T15:18:28.947Z</time>
      </trkpt>
      <trkpt lat="43.21261" lon="2.89518">
        <ele>66.233299</ele>
        <time>2023-01-05T15:18:30.955Z</time>
      </trkpt>
      <trkpt lat="43.21257" lon="2.8953">
        <ele>66.285311</ele>
        <time>2023-01-05T15:18:32.951Z</time>
      </trkpt>
      <trkpt lat="43.21254" lon="2.89544">
        <ele>66.338793</ele>
        <time>2023-01-05T15:18:34.948Z</time>
      </trkpt>
      <trkpt lat="43.21252" lon="2.89558">
        <ele>66.394926</ele>
        <time>2023-01-05T15:18:36.950Z</time>
      </trkpt>
      <trkpt lat="43.21251" lon="2.89572">
        <ele>66.451097</ele>
        <time>2023-01-05T15:18:38.945Z</time>
      </trkpt>
      <trkpt lat="43.21249" lon="2.89587">
        <ele>66.497754</ele>
        <time>2023-01-05T15:18:40.940Z</time>
      </trkpt>
      <trkpt lat="43.21247" lon="2.89601">
        <ele>66.538265</ele>
        <time>2023-01-05T15:18:42.949Z</time>
      </trkpt>
      <trkpt lat="43.21245" lon="2.89616">
        <ele>66.580574</ele>
        <time>2023-01-05T15:18:44.946Z</time>
      </trkpt>
      <trkpt lat="43.21243" lon="2.89631">
        <ele>66.623141</ele>
        <time>2023-01-05T15:18:46.945Z</time>
      </trkpt>
      <trkpt lat="43.21241" lon="2.89645">
        <ele>66.664748</ele>
        <time>2023-01-05T15:18:48.946Z</time>
      </trkpt>
      <trkpt lat="43.21239" lon="2.8966">
        <ele>66.707932</ele>
        <time>2023-01-05T15:18:50.946Z</time>
      </trkpt>
      <trkpt lat="43.21237" lon="2.89675">
        <ele>66.749659</ele>
        <time>2023-01-05T15:18:52.953Z</time>
      </trkpt>
      <trkpt lat="43.21237" lon="2.8969">
        <ele>66.791683</ele>
        <time>2023-01-05T15:18:54.951Z</time>
      </trkpt>
      <trkpt lat="43.21236" lon="2.89706">
        <ele>66.836755</ele>
        <time>2023-01-05T15:18:56.955Z</time>
      </trkpt>
      <trkpt lat="43.21237" lon="2.89722">
        <ele>66.879393</ele>
        <time>2023-01-05T15:18:58.951Z</time>
      </trkpt>
      <trkpt lat="43.21236" lon="2.89736">
        <ele>66.920607</ele>
        <time>2023-01-05T15:19:00.949Z</time>
      </trkpt>
      <trkpt lat="43.21236" lon="2.89751">
        <ele>66.961713</ele>
        <time>2023-01-05T15:19:02.956Z</time>
      </trkpt>
      <trkpt lat="43.21236" lon="2.89765">
        <ele>67.001711</ele>
        <time>2023-01-05T15:19:04.957Z</time>
      </trkpt>
      <trkpt lat="43.21236" lon="2.89779">
        <ele>67.040017</ele>
        <time>2023-01-05T15:19:06.951Z</time>
      </trkpt>
      <trkpt lat="43.21236" lon="2.89792">
        <ele>67.076092</ele>
        <time>2023-01-05T15:19:08.958Z</time>
      </trkpt>
      <trkpt lat="43.21236" lon="2.8981">
        <ele>67.126151</ele>
        <time>2023-01-05T15:19:11.949Z</time>
      </trkpt>
      <trkpt lat="43.21236" lon="2.89828">
        <ele>67.161983</ele>
        <time>2023-01-05T15:19:14.947Z</time>
      </trkpt>
      <trkpt lat="43.21235" lon="2.89846">
        <ele>67.162291</ele>
        <time>2023-01-05T15:19:17.959Z</time>
      </trkpt>
      <trkpt lat="43.21233" lon="2.89858">
        <ele>67.162506</ele>
        <time>2023-01-05T15:19:19.943Z</time>
      </trkpt>
      <trkpt lat="43.21232" lon="2.89874">
        <ele>67.162782</ele>
        <time>2023-01-05T15:19:22.961Z</time>
      </trkpt>
      <trkpt lat="43.2123" lon="2.89888">
        <ele>67.163029</ele>
        <time>2023-01-05T15:19:25.951Z</time>
      </trkpt>
      <trkpt lat="43.21228" lon="2.89904">
        <ele>67.1633</ele>
        <time>2023-01-05T15:19:28.956Z</time>
      </trkpt>
      <trkpt lat="43.21227" lon="2.8992">
        <ele>67.163583</ele>
        <time>2023-01-05T15:19:31.955Z</time>
      </trkpt>
      <trkpt lat="43.21225" lon="2.89938">
        <ele>67.163881</ele>
        <time>2023-01-05T15:19:34.946Z</time>
      </trkpt>
      <trkpt lat="43.21224" lon="2.89956">
        <ele>67.164192</ele>
        <time>2023-01-05T15:19:37.956Z</time>
      </trkpt>
      <trkpt lat="43.21222" lon="2.89968">
        <ele>67.164413</ele>
        <time>2023-01-05T15:19:39.953Z</time>
      </trkpt>
      <trkpt lat="43.2122" lon="2.89987">
        <ele>67.164728</ele>
        <time>2023-01-05T15:19:42.943Z</time>
      </trkpt>
      <trkpt lat="43.21219" lon="2.89999">
        <ele>67.164948</ele>
        <time>2023-01-05T15:19:44.955Z</time>
      </trkpt>
      <trkpt lat="43.21218" lon="2.90012">
        <ele>67.165169</ele>
        <time>2023-01-05T15:19:46.941Z</time>
      </trkpt>
      <trkpt lat="43.21218" lon="2.90027">
        <ele>67.165424</ele>
        <time>2023-01-05T15:19:48.951Z</time>
      </trkpt>
      <trkpt lat="43.21217" lon="2.90046">
        <ele>67.165743</ele>
        <time>2023-01-05T15:19:51.957Z</time>
      </trkpt>
      <trkpt lat="43.21216" lon="2.90059">
        <ele>67.16597</ele>
        <time>2023-01-05T15:19:53.958Z</time>
      </trkpt>
      <trkpt lat="43.21215" lon="2.90073">
        <ele>67.219639</ele>
        <time>2023-01-05T15:19:55.949Z</time>
      </trkpt>
      <trkpt lat="43.21214" lon="2.90086">
        <ele>67.355913</ele>
        <time>2023-01-05T15:19:57.943Z</time>
      </trkpt>
      <trkpt lat="43.21213" lon="2.90099">
        <ele>67.499413</ele>
        <time>2023-01-05T15:19:59.947Z</time>
      </trkpt>
      <trkpt lat="43.21212" lon="2.90116">
        <ele>67.67849</ele>
        <time>2023-01-05T15:20:02.956Z</time>
      </trkpt>
      <trkpt lat="43.21212" lon="2.90132">
        <ele>67.835549</ele>
        <time>2023-01-05T15:20:05.944Z</time>
      </trkpt>
      <trkpt lat="43.21212" lon="2.90147">
        <ele>67.993629</ele>
        <time>2023-01-05T15:20:08.943Z</time>
      </trkpt>
      <trkpt lat="43.21213" lon="2.90162">
        <ele>68.149689</ele>
        <time>2023-01-05T15:20:11.944Z</time>
      </trkpt>
      <trkpt lat="43.21214" lon="2.90178">
        <ele>68.323033</ele>
        <time>2023-01-05T15:20:14.949Z</time>
      </trkpt>
      <trkpt lat="43.21215" lon="2.90196">
        <ele>68.510768</ele>
        <time>2023-01-05T15:20:17.965Z</time>
      </trkpt>
      <trkpt lat="43.21215" lon="2.90209">
        <ele>68.639754</ele>
        <time>2023-01-05T15:20:19.945Z</time>
      </trkpt>
      <trkpt lat="43.21217" lon="2.90227">
        <ele>68.831606</ele>
        <time>2023-01-05T15:20:22.950Z</time>
      </trkpt>
      <trkpt lat="43.21218" lon="2.9024">
        <ele>68.966245</ele>
        <time>2023-01-05T15:20:24.961Z</time>
      </trkpt>
      <trkpt lat="43.21219" lon="2.90253">
        <ele>69.105029</ele>
        <time>2023-01-05T15:20:26.946Z</time>
      </trkpt>
      <trkpt lat="43.21221" lon="2.90266">
        <ele>69.241474</ele>
        <time>2023-01-05T15:20:28.943Z</time>
      </trkpt>
      <trkpt lat="43.21222" lon="2.90279">
        <ele>69.377557</ele>
        <time>2023-01-05T15:20:30.936Z</time>
      </trkpt>
      <trkpt lat="43.21225" lon="2.90297">
        <ele>69.572973</ele>
        <time>2023-01-05T15:20:33.947Z</time>
      </trkpt>
      <trkpt lat="43.21228" lon="2.90315">
        <ele>69.707376</ele>
        <time>2023-01-05T15:20:36.948Z</time>
      </trkpt>
      <trkpt lat="43.2123" lon="2.90333">
        <ele>69.561961</ele>
        <time>2023-01-05T15:20:39.945Z</time>
      </trkpt>
      <trkpt lat="43.21231" lon="2.90351">
        <ele>69.416132</ele>
        <time>2023-01-05T15:20:42.957Z</time>
      </trkpt>
      <trkpt lat="43.21231" lon="2.90368">
        <ele>69.271934</ele>
        <time>2023-01-05T15:20:45.938Z</time>
      </trkpt>
      <trkpt lat="43.21233" lon="2.90385">
        <ele>69.138165</ele>
        <time>2023-01-05T15:20:48.946Z</time>
      </trkpt>
      <trkpt lat="43.21236" lon="2.90399">
        <ele>69.017181</ele>
        <time>2023-01-05T15:20:51.952Z</time>
      </trkpt>
      <trkpt lat="43.21239" lon="2.90411">
        <ele>68.911955</ele>
        <time>2023-01-05T15:20:54.947Z</time>
      </trkpt>
      <trkpt lat="43.21243" lon="2.90423">
        <ele>68.798984</ele>
        <time>2023-01-05T15:20:57.944Z</time>
      </trkpt>
      <trkpt lat="43.21247" lon="2.90437">
        <ele>68.677649</ele>
        <time>2023-01-05T15:21:00.943Z</time>
      </trkpt>
      <trkpt lat="43.21253" lon="2.90451">
        <ele>68.55179</ele>
        <time>2023-01-05T15:21:03.969Z</time>
      </trkpt>
      <trkpt lat="43.2126" lon="2.90463">
        <ele>68.417618</ele>
        <time>2023-01-05T15:21:06.950Z</time>
      </trkpt>
      <trkpt lat="43.21268" lon="2.90477">
        <ele>68.275863</ele>
        <time>2023-01-05T15:21:09.949Z</time>
      </trkpt>
      <trkpt lat="43.21277" lon="2.90491">
        <ele>68.121647</ele>
        <time>2023-01-05T15:21:12.954Z</time>
      </trkpt>
      <trkpt lat="43.21282" lon="2.90502">
        <ele>68.017434</ele>
        <time>2023-01-05T15:21:14.947Z</time>
      </trkpt>
      <trkpt lat="43.21286" lon="2.90513">
        <ele>67.915498</ele>
        <time>2023-01-05T15:21:16.949Z</time>
      </trkpt>
      <trkpt lat="43.21291" lon="2.90525">
        <ele>67.808452</ele>
        <time>2023-01-05T15:21:18.964Z</time>
      </trkpt>
      <trkpt lat="43.21296" lon="2.90542">
        <ele>67.644278</ele>
        <time>2023-01-05T15:21:21.956Z</time>
      </trkpt>
      <trkpt lat="43.21301" lon="2.90559">
        <ele>67.451736</ele>
        <time>2023-01-05T15:21:24.954Z</time>
      </trkpt>
      <trkpt lat="43.21304" lon="2.90571">
        <ele>67.316315</ele>
        <time>2023-01-05T15:21:26.966Z</time>
      </trkpt>
      <trkpt lat="43.21307" lon="2.90584">
        <ele>67.17797</ele>
        <time>2023-01-05T15:21:28.953Z</time>
      </trkpt>
      <trkpt lat="43.21311" lon="2.90596">
        <ele>67.033942</ele>
        <time>2023-01-05T15:21:30.964Z</time>
      </trkpt>
      <trkpt lat="43.21315" lon="2.90608">
        <ele>66.902373</ele>
        <time>2023-01-05T15:21:32.942Z</time>
      </trkpt>
      <trkpt lat="43.21321" lon="2.90619">
        <ele>66.75992</ele>
        <time>2023-01-05T15:21:34.970Z</time>
      </trkpt>
      <trkpt lat="43.21327" lon="2.90629">
        <ele>66.624574</ele>
        <time>2023-01-05T15:21:36.954Z</time>
      </trkpt>
      <trkpt lat="43.21333" lon="2.9064">
        <ele>66.481205</ele>
        <time>2023-01-05T15:21:38.944Z</time>
      </trkpt>
      <trkpt lat="43.21339" lon="2.9065">
        <ele>66.348806</ele>
        <time>2023-01-05T15:21:40.966Z</time>
      </trkpt>
      <trkpt lat="43.21345" lon="2.90665">
        <ele>66.170891</ele>
        <time>2023-01-05T15:21:43.949Z</time>
      </trkpt>
      <trkpt lat="43.21353" lon="2.90677">
        <ele>66.005746</ele>
        <time>2023-01-05T15:21:46.946Z</time>
      </trkpt>
      <trkpt lat="43.21361" lon="2.9069">
        <ele>65.826542</ele>
        <time>2023-01-05T15:21:49.950Z</time>
      </trkpt>
      <trkpt lat="43.21367" lon="2.907">
        <ele>65.692235</ele>
        <time>2023-01-05T15:21:51.956Z</time>
      </trkpt>
      <trkpt lat="43.21372" lon="2.9071">
        <ele>65.562333</ele>
        <time>2023-01-05T15:21:53.950Z</time>
      </trkpt>
      <trkpt lat="43.2138" lon="2.90725">
        <ele>65.375375</ele>
        <time>2023-01-05T15:21:56.952Z</time>
      </trkpt>
      <trkpt lat="43.21387" lon="2.9074">
        <ele>65.186758</ele>
        <time>2023-01-05T15:21:59.947Z</time>
      </trkpt>
      <trkpt lat="43.21393" lon="2.90755">
        <ele>65.231555</ele>
        <time>2023-01-05T15:22:02.950Z</time>
      </trkpt>
      <trkpt lat="43.21398" lon="2.90771">
        <ele>65.324731</ele>
        <time>2023-01-05T15:22:05.953Z</time>
      </trkpt>
      <trkpt lat="43.21403" lon="2.90787">
        <ele>65.419805</ele>
        <time>2023-01-05T15:22:08.960Z</time>
      </trkpt>
      <trkpt lat="43.21407" lon="2.90801">
        <ele>65.499614</ele>
        <time>2023-01-05T15:22:11.947Z</time>
      </trkpt>
      <trkpt lat="43.21411" lon="2.90816">
        <ele>65.585995</ele>
        <time>2023-01-05T15:22:14.962Z</time>
      </trkpt>
      <trkpt lat="43.21415" lon="2.90832">
        <ele>65.677464</ele>
        <time>2023-01-05T15:22:17.971Z</time>
      </trkpt>
      <trkpt lat="43.2142" lon="2.90847">
        <ele>65.768272</ele>
        <time>2023-01-05T15:22:20.944Z</time>
      </trkpt>
      <trkpt lat="43.21424" lon="2.90864">
        <ele>65.859691</ele>
        <time>2023-01-05T15:22:23.953Z</time>
      </trkpt>
      <trkpt lat="43.21427" lon="2.9088">
        <ele>65.951834</ele>
        <time>2023-01-05T15:22:26.952Z</time>
      </trkpt>
      <trkpt lat="43.21427" lon="2.90897">
        <ele>66.045189</ele>
        <time>2023-01-05T15:22:29.949Z</time>
      </trkpt>
      <trkpt lat="43.21423" lon="2.90913">
        <ele>66.132346</ele>
        <time>2023-01-05T15:22:32.971Z</time>
      </trkpt>
      <trkpt lat="43.21418" lon="2.90927">
        <ele>66.217324</ele>
        <time>2023-01-05T15:22:35.973Z</time>
      </trkpt>
      <trkpt lat="43.21413" lon="2.90941">
        <ele>66.300581</ele>
        <time>2023-01-05T15:22:38.949Z</time>
      </trkpt>
      <trkpt lat="43.21409" lon="2.90954">
        <ele>66.376404</ele>
        <time>2023-01-05T15:22:41.976Z</time>
      </trkpt>
      <trkpt lat="43.21405" lon="2.90966">
        <ele>66.449433</ele>
        <time>2023-01-05T15:22:44.971Z</time>
      </trkpt>
      <trkpt lat="43.21402" lon="2.90979">
        <ele>66.567193</ele>
        <time>2023-01-05T15:22:47.977Z</time>
      </trkpt>
      <trkpt lat="43.21399" lon="2.90991">
        <ele>66.729579</ele>
        <time>2023-01-05T15:22:50.953Z</time>
      </trkpt>
      <trkpt lat="43.21398" lon="2.91004">
        <ele>66.903842</ele>
        <time>2023-01-05T15:22:53.973Z</time>
      </trkpt>
      <trkpt lat="43.21398" lon="2.91018">
        <ele>67.079782</ele>
        <time>2023-01-05T15:22:56.966Z</time>
      </trkpt>
      <trkpt lat="43.21398" lon="2.91032">
        <ele>67.256027</ele>
        <time>2023-01-05T15:22:59.958Z</time>
      </trkpt>
      <trkpt lat="43.21399" lon="2.91046">
        <ele>67.43917</ele>
        <time>2023-01-05T15:23:02.971Z</time>
      </trkpt>
      <trkpt lat="43.214" lon="2.91062">
        <ele>67.633738</ele>
        <time>2023-01-05T15:23:05.958Z</time>
      </trkpt>
      <trkpt lat="43.21402" lon="2.91078">
        <ele>67.839181</ele>
        <time>2023-01-05T15:23:08.950Z</time>
      </trkpt>
      <trkpt lat="43.21404" lon="2.91093">
        <ele>68.040271</ele>
        <time>2023-01-05T15:23:11.949Z</time>
      </trkpt>
      <trkpt lat="43.21406" lon="2.91109">
        <ele>68.243533</ele>
        <time>2023-01-05T15:23:14.966Z</time>
      </trkpt>
      <trkpt lat="43.21407" lon="2.91124">
        <ele>68.440119</ele>
        <time>2023-01-05T15:23:17.960Z</time>
      </trkpt>
      <trkpt lat="43.2141" lon="2.91139">
        <ele>68.638757</ele>
        <time>2023-01-05T15:23:20.966Z</time>
      </trkpt>
      <trkpt lat="43.21413" lon="2.91154">
        <ele>68.838509</ele>
        <time>2023-01-05T15:23:23.976Z</time>
      </trkpt>
      <trkpt lat="43.21417" lon="2.91166">
        <ele>69.00718</ele>
        <time>2023-01-05T15:23:26.947Z</time>
      </trkpt>
      <trkpt lat="43.21423" lon="2.91178">
        <ele>69.179447</ele>
        <time>2023-01-05T15:23:29.953Z</time>
      </trkpt>
      <trkpt lat="43.21431" lon="2.9119">
        <ele>69.392782</ele>
        <time>2023-01-05T15:23:32.943Z</time>
      </trkpt>
      <trkpt lat="43.21438" lon="2.91198">
        <ele>69.552179</ele>
        <time>2023-01-05T15:23:34.950Z</time>
      </trkpt>
      <trkpt lat="43.21444" lon="2.91208">
        <ele>69.57614</ele>
        <time>2023-01-05T15:23:36.956Z</time>
      </trkpt>
      <trkpt lat="43.21451" lon="2.91217">
        <ele>69.456424</ele>
        <time>2023-01-05T15:23:38.944Z</time>
      </trkpt>
      <trkpt lat="43.21458" lon="2.91227">
        <ele>69.329524</ele>
        <time>2023-01-05T15:23:40.972Z</time>
      </trkpt>
      <trkpt lat="43.21466" lon="2.91236">
        <ele>69.20384</ele>
        <time>2023-01-05T15:23:42.956Z</time>
      </trkpt>
      <trkpt lat="43.21472" lon="2.91246">
        <ele>69.083667</ele>
        <time>2023-01-05T15:23:44.953Z</time>
      </trkpt>
      <trkpt lat="43.21479" lon="2.91256">
        <ele>68.952105</ele>
        <time>2023-01-05T15:23:46.963Z</time>
      </trkpt>
      <trkpt lat="43.21487" lon="2.91268">
        <ele>68.813181</ele>
        <time>2023-01-05T15:23:48.949Z</time>
      </trkpt>
      <trkpt lat="43.21493" lon="2.91281">
        <ele>68.674686</ele>
        <time>2023-01-05T15:23:50.945Z</time>
      </trkpt>
      <trkpt lat="43.21497" lon="2.91296">
        <ele>68.52863</ele>
        <time>2023-01-05T15:23:52.962Z</time>
      </trkpt>
      <trkpt lat="43.21502" lon="2.9131">
        <ele>68.388544</ele>
        <time>2023-01-05T15:23:54.946Z</time>
      </trkpt>
      <trkpt lat="43.21505" lon="2.91324">
        <ele>68.249827</ele>
        <time>2023-01-05T15:23:56.941Z</time>
      </trkpt>
      <trkpt lat="43.21509" lon="2.91338">
        <ele>68.117083</ele>
        <time>2023-01-05T15:23:58.943Z</time>
      </trkpt>
      <trkpt lat="43.21512" lon="2.91352">
        <ele>67.983618</ele>
        <time>2023-01-05T15:24:00.973Z</time>
      </trkpt>
      <trkpt lat="43.21515" lon="2.91366">
        <ele>67.850844</ele>
        <time>2023-01-05T15:24:02.943Z</time>
      </trkpt>
      <trkpt lat="43.21519" lon="2.9138">
        <ele>67.72102</ele>
        <time>2023-01-05T15:24:04.957Z</time>
      </trkpt>
      <trkpt lat="43.21522" lon="2.91393">
        <ele>67.594573</ele>
        <time>2023-01-05T15:24:06.939Z</time>
      </trkpt>
      <trkpt lat="43.21526" lon="2.91405">
        <ele>67.473429</ele>
        <time>2023-01-05T15:24:08.955Z</time>
      </trkpt>
      <trkpt lat="43.21529" lon="2.91417">
        <ele>67.410664</ele>
        <time>2023-01-05T15:24:10.974Z</time>
      </trkpt>
      <trkpt lat="43.21532" lon="2.9143">
        <ele>67.444734</ele>
        <time>2023-01-05T15:24:12.940Z</time>
      </trkpt>
      <trkpt lat="43.21536" lon="2.91447">
        <ele>67.492189</ele>
        <time>2023-01-05T15:24:15.968Z</time>
      </trkpt>
      <trkpt lat="43.2154" lon="2.91462">
        <ele>67.534164</ele>
        <time>2023-01-05T15:24:18.972Z</time>
      </trkpt>
      <trkpt lat="43.21544" lon="2.9148">
        <ele>67.581047</ele>
        <time>2023-01-05T15:24:21.957Z</time>
      </trkpt>
      <trkpt lat="43.21546" lon="2.91492">
        <ele>67.615451</ele>
        <time>2023-01-05T15:24:23.948Z</time>
      </trkpt>
      <trkpt lat="43.21549" lon="2.91505">
        <ele>67.649018</ele>
        <time>2023-01-05T15:24:25.958Z</time>
      </trkpt>
      <trkpt lat="43.2155" lon="2.91518">
        <ele>67.683143</ele>
        <time>2023-01-05T15:24:27.958Z</time>
      </trkpt>
      <trkpt lat="43.21552" lon="2.91531">
        <ele>67.717967</ele>
        <time>2023-01-05T15:24:29.973Z</time>
      </trkpt>
      <trkpt lat="43.21555" lon="2.91544">
        <ele>67.753306</ele>
        <time>2023-01-05T15:24:31.970Z</time>
      </trkpt>
      <trkpt lat="43.21557" lon="2.91557">
        <ele>67.788062</ele>
        <time>2023-01-05T15:24:33.956Z</time>
      </trkpt>
      <trkpt lat="43.21559" lon="2.91571">
        <ele>67.824854</ele>
        <time>2023-01-05T15:24:35.942Z</time>
      </trkpt>
      <trkpt lat="43.21561" lon="2.91584">
        <ele>67.859938</ele>
        <time>2023-01-05T15:24:37.945Z</time>
      </trkpt>
      <trkpt lat="43.21563" lon="2.91598">
        <ele>67.896875</ele>
        <time>2023-01-05T15:24:39.955Z</time>
      </trkpt>
      <trkpt lat="43.21565" lon="2.91612">
        <ele>67.932884</ele>
        <time>2023-01-05T15:24:41.954Z</time>
      </trkpt>
      <trkpt lat="43.21568" lon="2.91626">
        <ele>67.970819</ele>
        <time>2023-01-05T15:24:43.946Z</time>
      </trkpt>
      <trkpt lat="43.21571" lon="2.9164">
        <ele>68.007581</ele>
        <time>2023-01-05T15:24:45.953Z</time>
      </trkpt>
      <trkpt lat="43.21575" lon="2.91653">
        <ele>68.041425</ele>
        <time>2023-01-05T15:24:47.957Z</time>
      </trkpt>
      <trkpt lat="43.21579" lon="2.91666">
        <ele>68.054951</ele>
        <time>2023-01-05T15:24:49.945Z</time>
      </trkpt>
      <trkpt lat="43.21582" lon="2.91679">
        <ele>68.067843</ele>
        <time>2023-01-05T15:24:51.944Z</time>
      </trkpt>
      <trkpt lat="43.21585" lon="2.91692">
        <ele>68.080697</ele>
        <time>2023-01-05T15:24:53.956Z</time>
      </trkpt>
      <trkpt lat="43.21589" lon="2.91703">
        <ele>68.092514</ele>
        <time>2023-01-05T15:24:55.948Z</time>
      </trkpt>
      <trkpt lat="43.21593" lon="2.91718">
        <ele>68.107349</ele>
        <time>2023-01-05T15:24:58.953Z</time>
      </trkpt>
      <trkpt lat="43.21595" lon="2.91734">
        <ele>68.123057</ele>
        <time>2023-01-05T15:25:01.933Z</time>
      </trkpt>
      <trkpt lat="43.21597" lon="2.91751">
        <ele>68.138939</ele>
        <time>2023-01-05T15:25:04.946Z</time>
      </trkpt>
      <trkpt lat="43.216" lon="2.91768">
        <ele>68.155488</ele>
        <time>2023-01-05T15:25:07.944Z</time>
      </trkpt>
      <trkpt lat="43.21602" lon="2.91786">
        <ele>68.172726</ele>
        <time>2023-01-05T15:25:10.962Z</time>
      </trkpt>
      <trkpt lat="43.21604" lon="2.91804">
        <ele>68.189674</ele>
        <time>2023-01-05T15:25:13.949Z</time>
      </trkpt>
      <trkpt lat="43.21606" lon="2.91816">
        <ele>68.201645</ele>
        <time>2023-01-05T15:25:15.956Z</time>
      </trkpt>
      <trkpt lat="43.21608" lon="2.91829">
        <ele>68.213648</ele>
        <time>2023-01-05T15:25:17.948Z</time>
      </trkpt>
      <trkpt lat="43.21611" lon="2.91841">
        <ele>68.226193</ele>
        <time>2023-01-05T15:25:19.946Z</time>
      </trkpt>
      <trkpt lat="43.21614" lon="2.91855">
        <ele>68.239279</ele>
        <time>2023-01-05T15:25:21.942Z</time>
      </trkpt>
      <trkpt lat="43.21618" lon="2.91867">
        <ele>68.252166</ele>
        <time>2023-01-05T15:25:23.956Z</time>
      </trkpt>
      <trkpt lat="43.21621" lon="2.91881">
        <ele>68.265894</ele>
        <time>2023-01-05T15:25:25.947Z</time>
      </trkpt>
      <trkpt lat="43.21624" lon="2.91895">
        <ele>68.247393</ele>
        <time>2023-01-05T15:25:27.939Z</time>
      </trkpt>
      <trkpt lat="43.21627" lon="2.91908">
        <ele>68.197923</ele>
        <time>2023-01-05T15:25:29.953Z</time>
      </trkpt>
      <trkpt lat="43.21631" lon="2.91921">
        <ele>68.149298</ele>
        <time>2023-01-05T15:25:31.948Z</time>
      </trkpt>
      <trkpt lat="43.21636" lon="2.91933">
        <ele>68.101731</ele>
        <time>2023-01-05T15:25:33.939Z</time>
      </trkpt>
      <trkpt lat="43.2164" lon="2.91945">
        <ele>68.057385</ele>
        <time>2023-01-05T15:25:35.948Z</time>
      </trkpt>
      <trkpt lat="43.21644" lon="2.91956">
        <ele>68.012171</ele>
        <time>2023-01-05T15:25:37.969Z</time>
      </trkpt>
      <trkpt lat="43.21651" lon="2.91971">
        <ele>67.949632</ele>
        <time>2023-01-05T15:25:40.968Z</time>
      </trkpt>
      <trkpt lat="43.21656" lon="2.91983">
        <ele>67.905385</ele>
        <time>2023-01-05T15:25:42.963Z</time>
      </trkpt>
      <trkpt lat="43.2166" lon="2.91994">
        <ele>67.86192</ele>
        <time>2023-01-05T15:25:44.955Z</time>
      </trkpt>
      <trkpt lat="43.21665" lon="2.92006">
        <ele>67.814864</ele>
        <time>2023-01-05T15:25:46.978Z</time>
      </trkpt>
      <trkpt lat="43.21668" lon="2.92018">
        <ele>67.767949</ele>
        <time>2023-01-05T15:25:48.975Z</time>
      </trkpt>
      <trkpt lat="43.21671" lon="2.92032">
        <ele>67.717928</ele>
        <time>2023-01-05T15:25:50.970Z</time>
      </trkpt>
      <trkpt lat="43.21674" lon="2.92046">
        <ele>67.667326</ele>
        <time>2023-01-05T15:25:52.949Z</time>
      </trkpt>
      <trkpt lat="43.21675" lon="2.9206">
        <ele>67.61947</ele>
        <time>2023-01-05T15:25:54.971Z</time>
      </trkpt>
      <trkpt lat="43.21675" lon="2.92073">
        <ele>67.573724</ele>
        <time>2023-01-05T15:25:56.971Z</time>
      </trkpt>
      <trkpt lat="43.21674" lon="2.92086">
        <ele>67.528258</ele>
        <time>2023-01-05T15:25:58.948Z</time>
      </trkpt>
      <trkpt lat="43.21674" lon="2.921">
        <ele>67.481803</ele>
        <time>2023-01-05T15:26:00.953Z</time>
      </trkpt>
      <trkpt lat="43.21672" lon="2.92114">
        <ele>67.432101</ele>
        <time>2023-01-05T15:26:02.972Z</time>
      </trkpt>
      <trkpt lat="43.21671" lon="2.92128">
        <ele>67.482546</ele>
        <time>2023-01-05T15:26:04.949Z</time>
      </trkpt>
      <trkpt lat="43.21669" lon="2.92141">
        <ele>67.573854</ele>
        <time>2023-01-05T15:26:06.954Z</time>
      </trkpt>
      <trkpt lat="43.21667" lon="2.92155">
        <ele>67.668422</ele>
        <time>2023-01-05T15:26:08.945Z</time>
      </trkpt>
      <trkpt lat="43.21664" lon="2.92169">
        <ele>67.767986</ele>
        <time>2023-01-05T15:26:10.970Z</time>
      </trkpt>
      <trkpt lat="43.21661" lon="2.92184">
        <ele>67.869497</ele>
        <time>2023-01-05T15:26:12.949Z</time>
      </trkpt>
      <trkpt lat="43.21659" lon="2.92199">
        <ele>67.967657</ele>
        <time>2023-01-05T15:26:14.971Z</time>
      </trkpt>
      <trkpt lat="43.21657" lon="2.92212">
        <ele>68.062006</ele>
        <time>2023-01-05T15:26:16.948Z</time>
      </trkpt>
      <trkpt lat="43.21655" lon="2.92227">
        <ele>68.161482</ele>
        <time>2023-01-05T15:26:18.966Z</time>
      </trkpt>
      <trkpt lat="43.21653" lon="2.92241">
        <ele>68.254865</ele>
        <time>2023-01-05T15:26:20.953Z</time>
      </trkpt>
      <trkpt lat="43.21651" lon="2.92254">
        <ele>68.345799</ele>
        <time>2023-01-05T15:26:22.958Z</time>
      </trkpt>
      <trkpt lat="43.21649" lon="2.92268">
        <ele>68.439543</ele>
        <time>2023-01-05T15:26:24.945Z</time>
      </trkpt>
      <trkpt lat="43.21646" lon="2.92281">
        <ele>68.534819</ele>
        <time>2023-01-05T15:26:26.941Z</time>
      </trkpt>
      <trkpt lat="43.21644" lon="2.92295">
        <ele>68.630498</ele>
        <time>2023-01-05T15:26:28.969Z</time>
      </trkpt>
      <trkpt lat="43.2164" lon="2.92309">
        <ele>68.728677</ele>
        <time>2023-01-05T15:26:30.948Z</time>
      </trkpt>
      <trkpt lat="43.21636" lon="2.92322">
        <ele>68.825992</ele>
        <time>2023-01-05T15:26:32.961Z</time>
      </trkpt>
      <trkpt lat="43.21631" lon="2.92335">
        <ele>68.924174</ele>
        <time>2023-01-05T15:26:34.969Z</time>
      </trkpt>
      <trkpt lat="43.21626" lon="2.92348">
        <ele>69.022911</ele>
        <time>2023-01-05T15:26:36.957Z</time>
      </trkpt>
      <trkpt lat="43.2162" lon="2.9236">
        <ele>69.108969</ele>
        <time>2023-01-05T15:26:38.953Z</time>
      </trkpt>
      <trkpt lat="43.21614" lon="2.92373">
        <ele>69.181507</ele>
        <time>2023-01-05T15:26:40.971Z</time>
      </trkpt>
      <trkpt lat="43.21608" lon="2.92385">
        <ele>69.256952</ele>
        <time>2023-01-05T15:26:42.973Z</time>
      </trkpt>
      <trkpt lat="43.21602" lon="2.92398">
        <ele>69.332339</ele>
        <time>2023-01-05T15:26:44.948Z</time>
      </trkpt>
      <trkpt lat="43.21597" lon="2.92411">
        <ele>69.408636</ele>
        <time>2023-01-05T15:26:46.962Z</time>
      </trkpt>
      <trkpt lat="43.21591" lon="2.92424">
        <ele>69.484745</ele>
        <time>2023-01-05T15:26:48.969Z</time>
      </trkpt>
      <trkpt lat="43.21585" lon="2.92438">
        <ele>69.562408</ele>
        <time>2023-01-05T15:26:50.963Z</time>
      </trkpt>
      <trkpt lat="43.2158" lon="2.92449">
        <ele>69.630464</ele>
        <time>2023-01-05T15:26:52.953Z</time>
      </trkpt>
      <trkpt lat="43.21575" lon="2.9246">
        <ele>69.696851</ele>
        <time>2023-01-05T15:26:54.944Z</time>
      </trkpt>
      <trkpt lat="43.21569" lon="2.9247">
        <ele>69.759182</ele>
        <time>2023-01-05T15:26:56.956Z</time>
      </trkpt>
      <trkpt lat="43.21565" lon="2.92481">
        <ele>69.822014</ele>
        <time>2023-01-05T15:26:58.954Z</time>
      </trkpt>
      <trkpt lat="43.21558" lon="2.92497">
        <ele>69.913947</ele>
        <time>2023-01-05T15:27:01.953Z</time>
      </trkpt>
      <trkpt lat="43.21553" lon="2.92508">
        <ele>69.976654</ele>
        <time>2023-01-05T15:27:03.948Z</time>
      </trkpt>
      <trkpt lat="43.21549" lon="2.92519">
        <ele>70.042651</ele>
        <time>2023-01-05T15:27:05.961Z</time>
      </trkpt>
      <trkpt lat="43.21544" lon="2.9253">
        <ele>70.107968</ele>
        <time>2023-01-05T15:27:07.961Z</time>
      </trkpt>
      <trkpt lat="43.21539" lon="2.92542">
        <ele>70.17414</ele>
        <time>2023-01-05T15:27:09.956Z</time>
      </trkpt>
      <trkpt lat="43.21534" lon="2.92553">
        <ele>70.240311</ele>
        <time>2023-01-05T15:27:11.941Z</time>
      </trkpt>
      <trkpt lat="43.21529" lon="2.92564">
        <ele>70.303143</ele>
        <time>2023-01-05T15:27:13.948Z</time>
      </trkpt>
      <trkpt lat="43.21524" lon="2.92574">
        <ele>70.493024</ele>
        <time>2023-01-05T15:27:15.955Z</time>
      </trkpt>
      <trkpt lat="43.21519" lon="2.92585">
        <ele>70.691066</ele>
        <time>2023-01-05T15:27:17.952Z</time>
      </trkpt>
      <trkpt lat="43.21512" lon="2.926">
        <ele>70.961346</ele>
        <time>2023-01-05T15:27:20.953Z</time>
      </trkpt>
      <trkpt lat="43.21506" lon="2.92613">
        <ele>71.206661</ele>
        <time>2023-01-05T15:27:23.971Z</time>
      </trkpt>
      <trkpt lat="43.21501" lon="2.92627">
        <ele>71.444174</ele>
        <time>2023-01-05T15:27:26.949Z</time>
      </trkpt>
      <trkpt lat="43.21495" lon="2.9264">
        <ele>71.686299</ele>
        <time>2023-01-05T15:27:29.951Z</time>
      </trkpt>
      <trkpt lat="43.21489" lon="2.92652">
        <ele>71.916915</ele>
        <time>2023-01-05T15:27:32.942Z</time>
      </trkpt>
      <trkpt lat="43.21484" lon="2.92664">
        <ele>72.129414</ele>
        <time>2023-01-05T15:27:35.949Z</time>
      </trkpt>
      <trkpt lat="43.21478" lon="2.92677">
        <ele>72.37162</ele>
        <time>2023-01-05T15:27:39.947Z</time>
      </trkpt>
      <trkpt lat="43.21473" lon="2.92693">
        <ele>72.639255</ele>
        <time>2023-01-05T15:33:38.801Z</time>
      </trkpt>
      <trkpt lat="43.21466" lon="2.92705">
        <ele>72.87182</ele>
        <time>2023-01-05T15:34:30.549Z</time>
      </trkpt>
      <trkpt lat="43.2146" lon="2.92717">
        <ele>73.101988</ele>
        <time>2023-01-05T15:34:34.566Z</time>
      </trkpt>
      <trkpt lat="43.21453" lon="2.92729">
        <ele>73.347129</ele>
        <time>2023-01-05T15:34:38.563Z</time>
      </trkpt>
      <trkpt lat="43.21446" lon="2.9274">
        <ele>73.573816</ele>
        <time>2023-01-05T15:34:42.551Z</time>
      </trkpt>
      <trkpt lat="43.21446" lon="2.92755">
        <ele>73.796283</ele>
        <time>2023-01-05T15:34:47.572Z</time>
      </trkpt>
      <trkpt lat="43.21454" lon="2.92762">
        <ele>74.014109</ele>
        <time>2023-01-05T15:34:51.558Z</time>
      </trkpt>
      <trkpt lat="43.21463" lon="2.92766">
        <ele>74.12428</ele>
        <time>2023-01-05T15:34:54.552Z</time>
      </trkpt>
      <trkpt lat="43.21472" lon="2.92769">
        <ele>74.064265</ele>
        <time>2023-01-05T15:34:57.561Z</time>
      </trkpt>
      <trkpt lat="43.21482" lon="2.92773">
        <ele>74.001055</ele>
        <time>2023-01-05T15:35:00.555Z</time>
      </trkpt>
      <trkpt lat="43.21492" lon="2.92776">
        <ele>73.935356</ele>
        <time>2023-01-05T15:35:03.570Z</time>
      </trkpt>
      <trkpt lat="43.215" lon="2.9278">
        <ele>73.877311</ele>
        <time>2023-01-05T15:35:06.560Z</time>
      </trkpt>
      <trkpt lat="43.21511" lon="2.92785">
        <ele>73.802968</ele>
        <time>2023-01-05T15:35:10.565Z</time>
      </trkpt>
      <trkpt lat="43.21521" lon="2.92789">
        <ele>73.739526</ele>
        <time>2023-01-05T15:35:13.560Z</time>
      </trkpt>
      <trkpt lat="43.2153" lon="2.92793">
        <ele>73.675438</ele>
        <time>2023-01-05T15:35:16.561Z</time>
      </trkpt>
      <trkpt lat="43.2154" lon="2.92797">
        <ele>73.607887</ele>
        <time>2023-01-05T15:35:19.554Z</time>
      </trkpt>
      <trkpt lat="43.21551" lon="2.92802">
        <ele>73.540055</ele>
        <time>2023-01-05T15:35:22.556Z</time>
      </trkpt>
      <trkpt lat="43.21561" lon="2.92806">
        <ele>73.471283</ele>
        <time>2023-01-05T15:35:25.554Z</time>
      </trkpt>
      <trkpt lat="43.21571" lon="2.9281">
        <ele>73.401059</ele>
        <time>2023-01-05T15:35:28.568Z</time>
      </trkpt>
      <trkpt lat="43.21582" lon="2.92815">
        <ele>73.327184</ele>
        <time>2023-01-05T15:35:31.574Z</time>
      </trkpt>
      <trkpt lat="43.21594" lon="2.9282">
        <ele>73.25237</ele>
        <time>2023-01-05T15:35:34.559Z</time>
      </trkpt>
      <trkpt lat="43.21605" lon="2.92825">
        <ele>73.176528</ele>
        <time>2023-01-05T15:35:37.554Z</time>
      </trkpt>
      <trkpt lat="43.21616" lon="2.9283">
        <ele>73.101714</ele>
        <time>2023-01-05T15:35:40.556Z</time>
      </trkpt>
      <trkpt lat="43.21627" lon="2.92834">
        <ele>73.028868</ele>
        <time>2023-01-05T15:35:43.551Z</time>
      </trkpt>
      <trkpt lat="43.21637" lon="2.92839">
        <ele>73.101037</ele>
        <time>2023-01-05T15:35:46.573Z</time>
      </trkpt>
      <trkpt lat="43.21647" lon="2.92843">
        <ele>73.293609</ele>
        <time>2023-01-05T15:35:49.559Z</time>
      </trkpt>
      <trkpt lat="43.21657" lon="2.92847">
        <ele>73.49723</ele>
        <time>2023-01-05T15:35:52.569Z</time>
      </trkpt>
      <trkpt lat="43.21667" lon="2.92852">
        <ele>73.700286</ele>
        <time>2023-01-05T15:35:55.572Z</time>
      </trkpt>
      <trkpt lat="43.21676" lon="2.92855">
        <ele>73.884295</ele>
        <time>2023-01-05T15:35:58.552Z</time>
      </trkpt>
      <trkpt lat="43.21686" lon="2.92857">
        <ele>74.067048</ele>
        <time>2023-01-05T15:36:01.576Z</time>
      </trkpt>
      <trkpt lat="43.21695" lon="2.92856">
        <ele>74.254627</ele>
        <time>2023-01-05T15:36:04.559Z</time>
      </trkpt>
      <trkpt lat="43.21707" lon="2.92854">
        <ele>74.475457</ele>
        <time>2023-01-05T15:36:08.562Z</time>
      </trkpt>
      <trkpt lat="43.21717" lon="2.92855">
        <ele>74.678283</ele>
        <time>2023-01-05T15:36:12.574Z</time>
      </trkpt>
      <trkpt lat="43.21727" lon="2.92858">
        <ele>74.874203</ele>
        <time>2023-01-05T15:36:16.575Z</time>
      </trkpt>
      <trkpt lat="43.21735" lon="2.92866">
        <ele>75.056626</ele>
        <time>2023-01-05T15:36:20.559Z</time>
      </trkpt>
      <trkpt lat="43.21736" lon="2.9288">
        <ele>75.250328</ele>
        <time>2023-01-05T15:36:24.573Z</time>
      </trkpt>
      <trkpt lat="43.21734" lon="2.92895">
        <ele>75.47808</ele>
        <time>2023-01-05T15:36:28.559Z</time>
      </trkpt>
      <trkpt lat="43.21731" lon="2.92908">
        <ele>75.657179</ele>
        <time>2023-01-05T15:36:31.561Z</time>
      </trkpt>
      <trkpt lat="43.21724" lon="2.92918">
        <ele>75.847333</ele>
        <time>2023-01-05T15:36:34.559Z</time>
      </trkpt>
      <trkpt lat="43.21717" lon="2.92927">
        <ele>76.038293</ele>
        <time>2023-01-05T15:36:37.556Z</time>
      </trkpt>
      <trkpt lat="43.21709" lon="2.92937">
        <ele>76.24203</ele>
        <time>2023-01-05T15:36:40.555Z</time>
      </trkpt>
      <trkpt lat="43.217" lon="2.92948">
        <ele>76.462162</ele>
        <time>2023-01-05T15:36:43.557Z</time>
      </trkpt>
      <trkpt lat="43.21691" lon="2.9296">
        <ele>76.423243</ele>
        <time>2023-01-05T15:36:46.563Z</time>
      </trkpt>
      <trkpt lat="43.21685" lon="2.9297">
        <ele>76.395263</ele>
        <time>2023-01-05T15:36:48.568Z</time>
      </trkpt>
      <trkpt lat="43.21679" lon="2.9298">
        <ele>76.365377</ele>
        <time>2023-01-05T15:36:50.566Z</time>
      </trkpt>
      <trkpt lat="43.21673" lon="2.92991">
        <ele>76.335513</ele>
        <time>2023-01-05T15:36:52.567Z</time>
      </trkpt>
      <trkpt lat="43.21667" lon="2.93003">
        <ele>76.303136</ele>
        <time>2023-01-05T15:36:54.557Z</time>
      </trkpt>
      <trkpt lat="43.2166" lon="2.93015">
        <ele>76.269829</ele>
        <time>2023-01-05T15:36:56.564Z</time>
      </trkpt>
      <trkpt lat="43.21653" lon="2.93026">
        <ele>76.235771</ele>
        <time>2023-01-05T15:36:58.569Z</time>
      </trkpt>
      <trkpt lat="43.21645" lon="2.93039">
        <ele>76.199481</ele>
        <time>2023-01-05T15:37:00.569Z</time>
      </trkpt>
      <trkpt lat="43.21638" lon="2.93051">
        <ele>76.165297</ele>
        <time>2023-01-05T15:37:02.551Z</time>
      </trkpt>
      <trkpt lat="43.21631" lon="2.93064">
        <ele>76.128757</ele>
        <time>2023-01-05T15:37:04.551Z</time>
      </trkpt>
      <trkpt lat="43.21623" lon="2.93076">
        <ele>76.092025</ele>
        <time>2023-01-05T15:37:06.571Z</time>
      </trkpt>
      <trkpt lat="43.21615" lon="2.93089">
        <ele>76.054045</ele>
        <time>2023-01-05T15:37:08.555Z</time>
      </trkpt>
      <trkpt lat="43.21607" lon="2.93102">
        <ele>76.016908</ele>
        <time>2023-01-05T15:37:10.572Z</time>
      </trkpt>
      <trkpt lat="43.216" lon="2.93115">
        <ele>75.979796</ele>
        <time>2023-01-05T15:37:12.553Z</time>
      </trkpt>
      <trkpt lat="43.21592" lon="2.93128">
        <ele>75.943454</ele>
        <time>2023-01-05T15:37:14.552Z</time>
      </trkpt>
      <trkpt lat="43.21585" lon="2.93141">
        <ele>75.92527</ele>
        <time>2023-01-05T15:37:16.572Z</time>
      </trkpt>
      <trkpt lat="43.21578" lon="2.93151">
        <ele>75.970468</ele>
        <time>2023-01-05T15:37:18.559Z</time>
      </trkpt>
      <trkpt lat="43.21571" lon="2.93164">
        <ele>76.019339</ele>
        <time>2023-01-05T15:37:20.557Z</time>
      </trkpt>
      <trkpt lat="43.21563" lon="2.93176">
        <ele>76.06734</ele>
        <time>2023-01-05T15:37:22.559Z</time>
      </trkpt>
      <trkpt lat="43.21557" lon="2.93187">
        <ele>76.111802</ele>
        <time>2023-01-05T15:37:24.560Z</time>
      </trkpt>
      <trkpt lat="43.21551" lon="2.93198">
        <ele>76.154951</ele>
        <time>2023-01-05T15:37:26.580Z</time>
      </trkpt>
      <trkpt lat="43.21544" lon="2.9321">
        <ele>76.199625</ele>
        <time>2023-01-05T15:37:28.558Z</time>
      </trkpt>
      <trkpt lat="43.21537" lon="2.93221">
        <ele>76.246699</ele>
        <time>2023-01-05T15:37:30.575Z</time>
      </trkpt>
      <trkpt lat="43.2153" lon="2.93233">
        <ele>76.291615</ele>
        <time>2023-01-05T15:37:32.555Z</time>
      </trkpt>
      <trkpt lat="43.21523" lon="2.93244">
        <ele>76.335875</ele>
        <time>2023-01-05T15:37:34.557Z</time>
      </trkpt>
      <trkpt lat="43.21516" lon="2.93255">
        <ele>76.383179</ele>
        <time>2023-01-05T15:37:36.556Z</time>
      </trkpt>
      <trkpt lat="43.21509" lon="2.93267">
        <ele>76.428383</ele>
        <time>2023-01-05T15:37:38.573Z</time>
      </trkpt>
      <trkpt lat="43.21502" lon="2.93278">
        <ele>76.473082</ele>
        <time>2023-01-05T15:37:40.574Z</time>
      </trkpt>
      <trkpt lat="43.21496" lon="2.9329">
        <ele>76.51802</ele>
        <time>2023-01-05T15:37:42.573Z</time>
      </trkpt>
      <trkpt lat="43.21489" lon="2.933">
        <ele>76.561815</ele>
        <time>2023-01-05T15:37:44.559Z</time>
      </trkpt>
      <trkpt lat="43.21482" lon="2.93312">
        <ele>76.606545</ele>
        <time>2023-01-05T15:37:46.575Z</time>
      </trkpt>
      <trkpt lat="43.21476" lon="2.93323">
        <ele>76.65098</ele>
        <time>2023-01-05T15:37:48.558Z</time>
      </trkpt>
      <trkpt lat="43.2147" lon="2.93333">
        <ele>76.692859</ele>
        <time>2023-01-05T15:37:50.571Z</time>
      </trkpt>
      <trkpt lat="43.21463" lon="2.93345">
        <ele>76.740054</ele>
        <time>2023-01-05T15:37:52.543Z</time>
      </trkpt>
      <trkpt lat="43.21457" lon="2.93355">
        <ele>76.786004</ele>
        <time>2023-01-05T15:37:54.551Z</time>
      </trkpt>
      <trkpt lat="43.2145" lon="2.93367">
        <ele>76.834315</ele>
        <time>2023-01-05T15:37:56.564Z</time>
      </trkpt>
      <trkpt lat="43.21443" lon="2.93378">
        <ele>76.882342</ele>
        <time>2023-01-05T15:37:58.575Z</time>
      </trkpt>
      <trkpt lat="43.21437" lon="2.93389">
        <ele>76.928836</ele>
        <time>2023-01-05T15:38:00.573Z</time>
      </trkpt>
      <trkpt lat="43.2143" lon="2.93401">
        <ele>76.979027</ele>
        <time>2023-01-05T15:38:02.574Z</time>
      </trkpt>
      <trkpt lat="43.21423" lon="2.93412">
        <ele>77.028789</ele>
        <time>2023-01-05T15:38:04.557Z</time>
      </trkpt>
      <trkpt lat="43.21416" lon="2.93424">
        <ele>77.076797</ele>
        <time>2023-01-05T15:38:06.573Z</time>
      </trkpt>
      <trkpt lat="43.21409" lon="2.93436">
        <ele>77.126926</ele>
        <time>2023-01-05T15:38:08.555Z</time>
      </trkpt>
      <trkpt lat="43.21403" lon="2.93447">
        <ele>77.17498</ele>
        <time>2023-01-05T15:38:10.571Z</time>
      </trkpt>
      <trkpt lat="43.21396" lon="2.93458">
        <ele>77.222856</ele>
        <time>2023-01-05T15:38:12.561Z</time>
      </trkpt>
      <trkpt lat="43.21389" lon="2.93469">
        <ele>77.271741</ele>
        <time>2023-01-05T15:38:14.557Z</time>
      </trkpt>
      <trkpt lat="43.21382" lon="2.9348">
        <ele>77.318997</ele>
        <time>2023-01-05T15:38:16.574Z</time>
      </trkpt>
      <trkpt lat="43.21376" lon="2.93492">
        <ele>77.368342</ele>
        <time>2023-01-05T15:38:18.572Z</time>
      </trkpt>
      <trkpt lat="43.21369" lon="2.93503">
        <ele>77.416219</ele>
        <time>2023-01-05T15:38:20.575Z</time>
      </trkpt>
      <trkpt lat="43.21362" lon="2.93514">
        <ele>77.462966</ele>
        <time>2023-01-05T15:38:22.565Z</time>
      </trkpt>
      <trkpt lat="43.21355" lon="2.93525">
        <ele>77.52072</ele>
        <time>2023-01-05T15:38:24.576Z</time>
      </trkpt>
      <trkpt lat="43.21349" lon="2.93536">
        <ele>77.583378</ele>
        <time>2023-01-05T15:38:26.562Z</time>
      </trkpt>
      <trkpt lat="43.21342" lon="2.93547">
        <ele>77.647422</ele>
        <time>2023-01-05T15:38:28.549Z</time>
      </trkpt>
      <trkpt lat="43.21336" lon="2.93557">
        <ele>77.709887</ele>
        <time>2023-01-05T15:38:30.550Z</time>
      </trkpt>
      <trkpt lat="43.2133" lon="2.93568">
        <ele>77.769959</ele>
        <time>2023-01-05T15:38:32.570Z</time>
      </trkpt>
      <trkpt lat="43.21324" lon="2.93579">
        <ele>77.835237</ele>
        <time>2023-01-05T15:38:34.572Z</time>
      </trkpt>
      <trkpt lat="43.21318" lon="2.9359">
        <ele>77.899362</ele>
        <time>2023-01-05T15:38:36.574Z</time>
      </trkpt>
      <trkpt lat="43.21312" lon="2.93602">
        <ele>77.961272</ele>
        <time>2023-01-05T15:38:38.558Z</time>
      </trkpt>
      <trkpt lat="43.21308" lon="2.93613">
        <ele>78.019584</ele>
        <time>2023-01-05T15:38:40.575Z</time>
      </trkpt>
      <trkpt lat="43.21301" lon="2.93628">
        <ele>78.102335</ele>
        <time>2023-01-05T15:38:43.572Z</time>
      </trkpt>
      <trkpt lat="43.21296" lon="2.93642">
        <ele>78.174382</ele>
        <time>2023-01-05T15:38:46.574Z</time>
      </trkpt>
      <trkpt lat="43.21291" lon="2.93657">
        <ele>78.246416</ele>
        <time>2023-01-05T15:38:49.553Z</time>
      </trkpt>
      <trkpt lat="43.21287" lon="2.93672">
        <ele>78.320332</ele>
        <time>2023-01-05T15:38:52.564Z</time>
      </trkpt>
      <trkpt lat="43.21282" lon="2.93688">
        <ele>78.396638</ele>
        <time>2023-01-05T15:38:55.609Z</time>
      </trkpt>
      <trkpt lat="43.21278" lon="2.93705">
        <ele>78.480173</ele>
        <time>2023-01-05T15:38:58.555Z</time>
      </trkpt>
      <trkpt lat="43.21272" lon="2.93722">
        <ele>78.564897</ele>
        <time>2023-01-05T15:39:01.556Z</time>
      </trkpt>
      <trkpt lat="43.21269" lon="2.93734">
        <ele>78.648923</ele>
        <time>2023-01-05T15:39:03.557Z</time>
      </trkpt>
      <trkpt lat="43.21265" lon="2.93745">
        <ele>78.826182</ele>
        <time>2023-01-05T15:39:05.568Z</time>
      </trkpt>
      <trkpt lat="43.2126" lon="2.93762">
        <ele>79.086497</ele>
        <time>2023-01-05T15:39:08.555Z</time>
      </trkpt>
      <trkpt lat="43.21255" lon="2.93779">
        <ele>79.346996</ele>
        <time>2023-01-05T15:39:11.556Z</time>
      </trkpt>
      <trkpt lat="43.2125" lon="2.93795">
        <ele>79.590251</ele>
        <time>2023-01-05T15:39:14.558Z</time>
      </trkpt>
      <trkpt lat="43.21245" lon="2.93812">
        <ele>79.841738</ele>
        <time>2023-01-05T15:39:17.561Z</time>
      </trkpt>
      <trkpt lat="43.2124" lon="2.93828">
        <ele>80.092464</ele>
        <time>2023-01-05T15:39:20.573Z</time>
      </trkpt>
      <trkpt lat="43.21235" lon="2.93844">
        <ele>80.341132</ele>
        <time>2023-01-05T15:39:23.557Z</time>
      </trkpt>
      <trkpt lat="43.21231" lon="2.9386">
        <ele>80.588335</ele>
        <time>2023-01-05T15:39:26.576Z</time>
      </trkpt>
      <trkpt lat="43.21226" lon="2.93877">
        <ele>80.841896</ele>
        <time>2023-01-05T15:39:29.557Z</time>
      </trkpt>
      <trkpt lat="43.21221" lon="2.93893">
        <ele>81.094377</ele>
        <time>2023-01-05T15:39:32.558Z</time>
      </trkpt>
      <trkpt lat="43.21217" lon="2.93905">
        <ele>81.278356</ele>
        <time>2023-01-05T15:39:34.559Z</time>
      </trkpt>
      <trkpt lat="43.21212" lon="2.93921">
        <ele>81.522351</ele>
        <time>2023-01-05T15:39:37.562Z</time>
      </trkpt>
      <trkpt lat="43.21207" lon="2.93938">
        <ele>81.777213</ele>
        <time>2023-01-05T15:39:40.574Z</time>
      </trkpt>
      <trkpt lat="43.21203" lon="2.93953">
        <ele>82.015075</ele>
        <time>2023-01-05T15:39:43.563Z</time>
      </trkpt>
      <trkpt lat="43.21198" lon="2.9397">
        <ele>82.221072</ele>
        <time>2023-01-05T15:39:46.571Z</time>
      </trkpt>
      <trkpt lat="43.21193" lon="2.93987">
        <ele>82.400792</ele>
        <time>2023-01-05T15:39:49.555Z</time>
      </trkpt>
      <trkpt lat="43.21189" lon="2.94003">
        <ele>82.577306</ele>
        <time>2023-01-05T15:39:52.567Z</time>
      </trkpt>
      <trkpt lat="43.21184" lon="2.94019">
        <ele>82.743349</ele>
        <time>2023-01-05T15:39:55.558Z</time>
      </trkpt>
      <trkpt lat="43.21179" lon="2.94035">
        <ele>82.913824</ele>
        <time>2023-01-05T15:39:58.557Z</time>
      </trkpt>
      <trkpt lat="43.21174" lon="2.9405">
        <ele>83.082868</ele>
        <time>2023-01-05T15:40:01.572Z</time>
      </trkpt>
      <trkpt lat="43.21169" lon="2.94065">
        <ele>83.247903</ele>
        <time>2023-01-05T15:40:04.565Z</time>
      </trkpt>
      <trkpt lat="43.21165" lon="2.94081">
        <ele>83.412344</ele>
        <time>2023-01-05T15:40:07.572Z</time>
      </trkpt>
      <trkpt lat="43.2116" lon="2.94096">
        <ele>83.578115</ele>
        <time>2023-01-05T15:40:10.565Z</time>
      </trkpt>
      <trkpt lat="43.21156" lon="2.94111">
        <ele>83.7402</ele>
        <time>2023-01-05T15:40:13.551Z</time>
      </trkpt>
      <trkpt lat="43.21151" lon="2.94125">
        <ele>83.890622</ele>
        <time>2023-01-05T15:40:16.570Z</time>
      </trkpt>
      <trkpt lat="43.21147" lon="2.94139">
        <ele>84.042376</ele>
        <time>2023-01-05T15:40:19.554Z</time>
      </trkpt>
      <trkpt lat="43.21143" lon="2.94153">
        <ele>84.190858</ele>
        <time>2023-01-05T15:40:22.569Z</time>
      </trkpt>
      <trkpt lat="43.21139" lon="2.94168">
        <ele>84.342559</ele>
        <time>2023-01-05T15:40:25.575Z</time>
      </trkpt>
      <trkpt lat="43.21135" lon="2.94181">
        <ele>84.492105</ele>
        <time>2023-01-05T15:40:28.549Z</time>
      </trkpt>
      <trkpt lat="43.2113" lon="2.94195">
        <ele>84.693599</ele>
        <time>2023-01-05T15:40:31.571Z</time>
      </trkpt>
      <trkpt lat="43.21126" lon="2.9421">
        <ele>84.933821</ele>
        <time>2023-01-05T15:40:34.556Z</time>
      </trkpt>
      <trkpt lat="43.21122" lon="2.94223">
        <ele>85.160034</ele>
        <time>2023-01-05T15:40:37.571Z</time>
      </trkpt>
      <trkpt lat="43.21119" lon="2.94236">
        <ele>85.384616</ele>
        <time>2023-01-05T15:40:40.551Z</time>
      </trkpt>
      <trkpt lat="43.21114" lon="2.94249">
        <ele>85.613983</ele>
        <time>2023-01-05T15:40:43.572Z</time>
      </trkpt>
      <trkpt lat="43.2111" lon="2.94262">
        <ele>85.833782</ele>
        <time>2023-01-05T15:40:46.560Z</time>
      </trkpt>
      <trkpt lat="43.21106" lon="2.94274">
        <ele>86.045184</ele>
        <time>2023-01-05T15:40:49.579Z</time>
      </trkpt>
      <trkpt lat="43.21103" lon="2.94287">
        <ele>86.263001</ele>
        <time>2023-01-05T15:40:52.571Z</time>
      </trkpt>
      <trkpt lat="43.21099" lon="2.943">
        <ele>86.47586</ele>
        <time>2023-01-05T15:40:55.553Z</time>
      </trkpt>
      <trkpt lat="43.21096" lon="2.94312">
        <ele>86.678818</ele>
        <time>2023-01-05T15:40:58.552Z</time>
      </trkpt>
      <trkpt lat="43.21092" lon="2.94323">
        <ele>86.885288</ele>
        <time>2023-01-05T15:41:01.564Z</time>
      </trkpt>
      <trkpt lat="43.21088" lon="2.94336">
        <ele>87.096689</ele>
        <time>2023-01-05T15:41:04.551Z</time>
      </trkpt>
      <trkpt lat="43.21084" lon="2.94348">
        <ele>87.302873</ele>
        <time>2023-01-05T15:41:07.563Z</time>
      </trkpt>
      <trkpt lat="43.21081" lon="2.9436">
        <ele>87.507901</ele>
        <time>2023-01-05T15:41:10.574Z</time>
      </trkpt>
      <trkpt lat="43.21077" lon="2.94372">
        <ele>87.718466</ele>
        <time>2023-01-05T15:41:13.557Z</time>
      </trkpt>
      <trkpt lat="43.21073" lon="2.94384">
        <ele>87.929681</ele>
        <time>2023-01-05T15:41:16.579Z</time>
      </trkpt>
      <trkpt lat="43.2107" lon="2.94396">
        <ele>88.137959</ele>
        <time>2023-01-05T15:41:19.565Z</time>
      </trkpt>
      <trkpt lat="43.21066" lon="2.94409">
        <ele>88.34732</ele>
        <time>2023-01-05T15:41:22.570Z</time>
      </trkpt>
      <trkpt lat="43.21062" lon="2.94421">
        <ele>88.582147</ele>
        <time>2023-01-05T15:41:25.558Z</time>
      </trkpt>
      <trkpt lat="43.21058" lon="2.94433">
        <ele>88.846488</ele>
        <time>2023-01-05T15:41:28.574Z</time>
      </trkpt>
      <trkpt lat="43.21055" lon="2.94445">
        <ele>89.120425</ele>
        <time>2023-01-05T15:41:31.562Z</time>
      </trkpt>
      <trkpt lat="43.21051" lon="2.94458">
        <ele>89.387693</ele>
        <time>2023-01-05T15:41:34.553Z</time>
      </trkpt>
      <trkpt lat="43.21047" lon="2.9447">
        <ele>89.66724</ele>
        <time>2023-01-05T15:41:37.574Z</time>
      </trkpt>
      <trkpt lat="43.21043" lon="2.94482">
        <ele>89.935974</ele>
        <time>2023-01-05T15:41:40.571Z</time>
      </trkpt>
      <trkpt lat="43.2104" lon="2.94494">
        <ele>90.193649</ele>
        <time>2023-01-05T15:41:43.548Z</time>
      </trkpt>
      <trkpt lat="43.21036" lon="2.94507">
        <ele>90.462786</ele>
        <time>2023-01-05T15:41:46.574Z</time>
      </trkpt>
      <trkpt lat="43.21032" lon="2.94519">
        <ele>90.734513</ele>
        <time>2023-01-05T15:41:49.553Z</time>
      </trkpt>
      <trkpt lat="43.21028" lon="2.94531">
        <ele>91.008245</ele>
        <time>2023-01-05T15:41:52.546Z</time>
      </trkpt>
      <trkpt lat="43.21024" lon="2.94543">
        <ele>91.268064</ele>
        <time>2023-01-05T15:41:55.550Z</time>
      </trkpt>
      <trkpt lat="43.2102" lon="2.94558">
        <ele>91.59408</ele>
        <time>2023-01-05T15:41:59.550Z</time>
      </trkpt>
      <trkpt lat="43.21016" lon="2.9457">
        <ele>91.851313</ele>
        <time>2023-01-05T15:42:02.547Z</time>
      </trkpt>
      <trkpt lat="43.21012" lon="2.94582">
        <ele>92.117064</ele>
        <time>2023-01-05T15:42:05.551Z</time>
      </trkpt>
      <trkpt lat="43.21009" lon="2.94594">
        <ele>92.373616</ele>
        <time>2023-01-05T15:42:08.569Z</time>
      </trkpt>
      <trkpt lat="43.21005" lon="2.94606">
        <ele>92.637521</ele>
        <time>2023-01-05T15:42:11.558Z</time>
      </trkpt>
      <trkpt lat="43.21002" lon="2.94618">
        <ele>92.904792</ele>
        <time>2023-01-05T15:42:14.543Z</time>
      </trkpt>
      <trkpt lat="43.20998" lon="2.9463">
        <ele>93.175002</ele>
        <time>2023-01-05T15:42:17.573Z</time>
      </trkpt>
      <trkpt lat="43.20994" lon="2.94642">
        <ele>93.441492</ele>
        <time>2023-01-05T15:42:20.585Z</time>
      </trkpt>
      <trkpt lat="43.2099" lon="2.94655">
        <ele>93.520658</ele>
        <time>2023-01-05T15:42:23.570Z</time>
      </trkpt>
      <trkpt lat="43.20986" lon="2.94668">
        <ele>93.58989</ele>
        <time>2023-01-05T15:42:26.552Z</time>
      </trkpt>
      <trkpt lat="43.20982" lon="2.94682">
        <ele>93.657191</ele>
        <time>2023-01-05T15:42:29.572Z</time>
      </trkpt>
      <trkpt lat="43.20977" lon="2.94694">
        <ele>93.723471</ele>
        <time>2023-01-05T15:42:32.543Z</time>
      </trkpt>
      <trkpt lat="43.20973" lon="2.94707">
        <ele>93.79103</ele>
        <time>2023-01-05T15:42:35.574Z</time>
      </trkpt>
      <trkpt lat="43.20968" lon="2.94721">
        <ele>93.864066</ele>
        <time>2023-01-05T15:42:38.554Z</time>
      </trkpt>
      <trkpt lat="43.20964" lon="2.94735">
        <ele>93.935492</ele>
        <time>2023-01-05T15:42:41.573Z</time>
      </trkpt>
      <trkpt lat="43.20959" lon="2.94751">
        <ele>94.01655</ele>
        <time>2023-01-05T15:42:44.572Z</time>
      </trkpt>
      <trkpt lat="43.20954" lon="2.94768">
        <ele>94.102102</ele>
        <time>2023-01-05T15:42:47.572Z</time>
      </trkpt>
      <trkpt lat="43.20948" lon="2.94784">
        <ele>94.18878</ele>
        <time>2023-01-05T15:42:50.561Z</time>
      </trkpt>
      <trkpt lat="43.20944" lon="2.94796">
        <ele>94.248956</ele>
        <time>2023-01-05T15:42:52.563Z</time>
      </trkpt>
      <trkpt lat="43.20939" lon="2.94812">
        <ele>94.335036</ele>
        <time>2023-01-05T15:42:55.573Z</time>
      </trkpt>
      <trkpt lat="43.20934" lon="2.9483">
        <ele>94.424632</ele>
        <time>2023-01-05T15:42:58.572Z</time>
      </trkpt>
      <trkpt lat="43.2093" lon="2.94842">
        <ele>94.485916</ele>
        <time>2023-01-05T15:43:00.559Z</time>
      </trkpt>
      <trkpt lat="43.20926" lon="2.94853">
        <ele>94.545868</ele>
        <time>2023-01-05T15:43:02.556Z</time>
      </trkpt>
      <trkpt lat="43.20922" lon="2.94865">
        <ele>94.606336</ele>
        <time>2023-01-05T15:43:04.572Z</time>
      </trkpt>
      <trkpt lat="43.20918" lon="2.94877">
        <ele>94.685638</ele>
        <time>2023-01-05T15:43:06.573Z</time>
      </trkpt>
      <trkpt lat="43.20915" lon="2.94889">
        <ele>94.777474</ele>
        <time>2023-01-05T15:43:08.571Z</time>
      </trkpt>
      <trkpt lat="43.20911" lon="2.94901">
        <ele>94.867044</ele>
        <time>2023-01-05T15:43:10.560Z</time>
      </trkpt>
      <trkpt lat="43.20907" lon="2.94913">
        <ele>94.956779</ele>
        <time>2023-01-05T15:43:12.549Z</time>
      </trkpt>
      <trkpt lat="43.20902" lon="2.94928">
        <ele>95.073921</ele>
        <time>2023-01-05T15:43:15.572Z</time>
      </trkpt>
      <trkpt lat="43.20896" lon="2.94944">
        <ele>95.191534</ele>
        <time>2023-01-05T15:43:18.568Z</time>
      </trkpt>
      <trkpt lat="43.20891" lon="2.9496">
        <ele>95.314497</ele>
        <time>2023-01-05T15:43:21.569Z</time>
      </trkpt>
      <trkpt lat="43.20887" lon="2.94971">
        <ele>95.400931</ele>
        <time>2023-01-05T15:43:23.571Z</time>
      </trkpt>
      <trkpt lat="43.20881" lon="2.94988">
        <ele>95.528276</ele>
        <time>2023-01-05T15:43:26.556Z</time>
      </trkpt>
      <trkpt lat="43.20877" lon="2.95001">
        <ele>95.622836</ele>
        <time>2023-01-05T15:43:28.567Z</time>
      </trkpt>
      <trkpt lat="43.20874" lon="2.95012">
        <ele>95.710968</ele>
        <time>2023-01-05T15:43:30.571Z</time>
      </trkpt>
      <trkpt lat="43.2087" lon="2.95024">
        <ele>95.801622</ele>
        <time>2023-01-05T15:43:32.573Z</time>
      </trkpt>
      <trkpt lat="43.20866" lon="2.95037">
        <ele>95.893282</ele>
        <time>2023-01-05T15:43:34.572Z</time>
      </trkpt>
      <trkpt lat="43.20863" lon="2.95049">
        <ele>95.983464</ele>
        <time>2023-01-05T15:43:36.558Z</time>
      </trkpt>
      <trkpt lat="43.20859" lon="2.9506">
        <ele>96.068947</ele>
        <time>2023-01-05T15:43:38.552Z</time>
      </trkpt>
      <trkpt lat="43.20855" lon="2.95072">
        <ele>96.159738</ele>
        <time>2023-01-05T15:43:40.557Z</time>
      </trkpt>
      <trkpt lat="43.20852" lon="2.95085">
        <ele>96.249949</ele>
        <time>2023-01-05T15:43:42.552Z</time>
      </trkpt>
      <trkpt lat="43.20848" lon="2.95096">
        <ele>96.332366</ele>
        <time>2023-01-05T15:43:44.572Z</time>
      </trkpt>
      <trkpt lat="43.20843" lon="2.95108">
        <ele>96.391395</ele>
        <time>2023-01-05T15:43:46.564Z</time>
      </trkpt>
      <trkpt lat="43.2084" lon="2.95121">
        <ele>96.449205</ele>
        <time>2023-01-05T15:43:48.557Z</time>
      </trkpt>
      <trkpt lat="43.20836" lon="2.95133">
        <ele>96.505751</ele>
        <time>2023-01-05T15:43:50.558Z</time>
      </trkpt>
      <trkpt lat="43.20832" lon="2.95145">
        <ele>96.564129</ele>
        <time>2023-01-05T15:43:52.559Z</time>
      </trkpt>
      <trkpt lat="43.20828" lon="2.95157">
        <ele>96.622978</ele>
        <time>2023-01-05T15:43:54.572Z</time>
      </trkpt>
      <trkpt lat="43.20824" lon="2.9517">
        <ele>96.682464</ele>
        <time>2023-01-05T15:43:56.571Z</time>
      </trkpt>
      <trkpt lat="43.2082" lon="2.95183">
        <ele>96.745427</ele>
        <time>2023-01-05T15:43:58.568Z</time>
      </trkpt>
      <trkpt lat="43.20816" lon="2.95195">
        <ele>96.807485</ele>
        <time>2023-01-05T15:44:00.551Z</time>
      </trkpt>
      <trkpt lat="43.20811" lon="2.95209">
        <ele>96.871873</ele>
        <time>2023-01-05T15:44:02.571Z</time>
      </trkpt>
      <trkpt lat="43.20808" lon="2.95221">
        <ele>96.930319</ele>
        <time>2023-01-05T15:44:04.569Z</time>
      </trkpt>
      <trkpt lat="43.20803" lon="2.95234">
        <ele>96.993424</ele>
        <time>2023-01-05T15:44:06.563Z</time>
      </trkpt>
      <trkpt lat="43.20799" lon="2.95247">
        <ele>97.05376</ele>
        <time>2023-01-05T15:44:08.549Z</time>
      </trkpt>
      <trkpt lat="43.20794" lon="2.9526">
        <ele>97.117771</ele>
        <time>2023-01-05T15:44:10.547Z</time>
      </trkpt>
      <trkpt lat="43.2079" lon="2.95274">
        <ele>97.182744</ele>
        <time>2023-01-05T15:44:12.565Z</time>
      </trkpt>
      <trkpt lat="43.20786" lon="2.95288">
        <ele>97.251195</ele>
        <time>2023-01-05T15:44:14.549Z</time>
      </trkpt>
      <trkpt lat="43.20782" lon="2.95302">
        <ele>97.314141</ele>
        <time>2023-01-05T15:44:16.571Z</time>
      </trkpt>
      <trkpt lat="43.20778" lon="2.95316">
        <ele>97.382926</ele>
        <time>2023-01-05T15:44:18.565Z</time>
      </trkpt>
      <trkpt lat="43.20773" lon="2.9533">
        <ele>97.418065</ele>
        <time>2023-01-05T15:44:20.563Z</time>
      </trkpt>
      <trkpt lat="43.20768" lon="2.95344">
        <ele>97.441403</ele>
        <time>2023-01-05T15:44:22.578Z</time>
      </trkpt>
      <trkpt lat="43.20763" lon="2.95358">
        <ele>97.465074</ele>
        <time>2023-01-05T15:44:24.553Z</time>
      </trkpt>
      <trkpt lat="43.20759" lon="2.95372">
        <ele>97.488804</ele>
        <time>2023-01-05T15:44:26.572Z</time>
      </trkpt>
      <trkpt lat="43.20755" lon="2.95386">
        <ele>97.512253</ele>
        <time>2023-01-05T15:44:28.587Z</time>
      </trkpt>
      <trkpt lat="43.2075" lon="2.95401">
        <ele>97.536092</ele>
        <time>2023-01-05T15:44:30.573Z</time>
      </trkpt>
      <trkpt lat="43.20745" lon="2.95416">
        <ele>97.560935</ele>
        <time>2023-01-05T15:44:32.571Z</time>
      </trkpt>
      <trkpt lat="43.2074" lon="2.9543">
        <ele>97.5844</ele>
        <time>2023-01-05T15:44:34.556Z</time>
      </trkpt>
      <trkpt lat="43.20735" lon="2.95445">
        <ele>97.609296</ele>
        <time>2023-01-05T15:44:36.571Z</time>
      </trkpt>
      <trkpt lat="43.2073" lon="2.95458">
        <ele>97.633041</ele>
        <time>2023-01-05T15:44:38.559Z</time>
      </trkpt>
      <trkpt lat="43.20725" lon="2.95472">
        <ele>97.656369</ele>
        <time>2023-01-05T15:44:40.559Z</time>
      </trkpt>
      <trkpt lat="43.2072" lon="2.95486">
        <ele>97.680246</ele>
        <time>2023-01-05T15:44:42.568Z</time>
      </trkpt>
      <trkpt lat="43.20716" lon="2.955">
        <ele>97.703395</ele>
        <time>2023-01-05T15:44:44.555Z</time>
      </trkpt>
      <trkpt lat="43.20711" lon="2.95515">
        <ele>97.727108</ele>
        <time>2023-01-05T15:44:46.558Z</time>
      </trkpt>
      <trkpt lat="43.20707" lon="2.95529">
        <ele>97.750954</ele>
        <time>2023-01-05T15:44:48.557Z</time>
      </trkpt>
      <trkpt lat="43.20703" lon="2.95544">
        <ele>97.774463</ele>
        <time>2023-01-05T15:44:50.565Z</time>
      </trkpt>
      <trkpt lat="43.20699" lon="2.95558">
        <ele>97.898337</ele>
        <time>2023-01-05T15:44:52.572Z</time>
      </trkpt>
      <trkpt lat="43.20694" lon="2.95572">
        <ele>98.031331</ele>
        <time>2023-01-05T15:44:54.551Z</time>
      </trkpt>
      <trkpt lat="43.2069" lon="2.95586">
        <ele>98.159233</ele>
        <time>2023-01-05T15:44:56.553Z</time>
      </trkpt>
      <trkpt lat="43.20684" lon="2.956">
        <ele>98.296333</ele>
        <time>2023-01-05T15:44:58.556Z</time>
      </trkpt>
      <trkpt lat="43.2068" lon="2.95615">
        <ele>98.429901</ele>
        <time>2023-01-05T15:45:00.565Z</time>
      </trkpt>
      <trkpt lat="43.20676" lon="2.95629">
        <ele>98.565796</ele>
        <time>2023-01-05T15:45:02.576Z</time>
      </trkpt>
      <trkpt lat="43.20671" lon="2.95643">
        <ele>98.691959</ele>
        <time>2023-01-05T15:45:04.571Z</time>
      </trkpt>
      <trkpt lat="43.20667" lon="2.95658">
        <ele>98.830382</ele>
        <time>2023-01-05T15:45:06.571Z</time>
      </trkpt>
      <trkpt lat="43.20662" lon="2.95672">
        <ele>98.966024</ele>
        <time>2023-01-05T15:45:08.569Z</time>
      </trkpt>
      <trkpt lat="43.20658" lon="2.95687">
        <ele>99.098791</ele>
        <time>2023-01-05T15:45:10.553Z</time>
      </trkpt>
      <trkpt lat="43.20654" lon="2.95701">
        <ele>99.234213</ele>
        <time>2023-01-05T15:45:12.573Z</time>
      </trkpt>
      <trkpt lat="43.20649" lon="2.95715">
        <ele>99.365721</ele>
        <time>2023-01-05T15:45:14.574Z</time>
      </trkpt>
      <trkpt lat="43.20645" lon="2.95731">
        <ele>99.505776</ele>
        <time>2023-01-05T15:45:16.569Z</time>
      </trkpt>
      <trkpt lat="43.20641" lon="2.95744">
        <ele>99.631304</ele>
        <time>2023-01-05T15:45:18.560Z</time>
      </trkpt>
      <trkpt lat="43.20637" lon="2.95758">
        <ele>99.754814</ele>
        <time>2023-01-05T15:45:20.568Z</time>
      </trkpt>
      <trkpt lat="43.20634" lon="2.9577">
        <ele>99.867074</ele>
        <time>2023-01-05T15:45:22.570Z</time>
      </trkpt>
      <trkpt lat="43.20631" lon="2.95783">
        <ele>99.614395</ele>
        <time>2023-01-05T15:45:24.555Z</time>
      </trkpt>
      <trkpt lat="43.2063" lon="2.95795">
        <ele>99.280629</ele>
        <time>2023-01-05T15:45:26.555Z</time>
      </trkpt>
      <trkpt lat="43.20627" lon="2.95813">
        <ele>98.792785</ele>
        <time>2023-01-05T15:45:29.550Z</time>
      </trkpt>
      <trkpt lat="43.20625" lon="2.9583">
        <ele>98.339906</ele>
        <time>2023-01-05T15:45:32.574Z</time>
      </trkpt>
      <trkpt lat="43.20623" lon="2.95847">
        <ele>97.877615</ele>
        <time>2023-01-05T15:45:35.575Z</time>
      </trkpt>
      <trkpt lat="43.20621" lon="2.9586">
        <ele>97.521612</ele>
        <time>2023-01-05T15:45:37.573Z</time>
      </trkpt>
      <trkpt lat="43.20621" lon="2.95874">
        <ele>97.15116</ele>
        <time>2023-01-05T15:45:39.561Z</time>
      </trkpt>
      <trkpt lat="43.2062" lon="2.95889">
        <ele>96.759239</ele>
        <time>2023-01-05T15:45:41.571Z</time>
      </trkpt>
      <trkpt lat="43.20619" lon="2.95906">
        <ele>96.30624</ele>
        <time>2023-01-05T15:45:43.570Z</time>
      </trkpt>
      <trkpt lat="43.20618" lon="2.95924">
        <ele>95.81296</ele>
        <time>2023-01-05T15:45:45.555Z</time>
      </trkpt>
      <trkpt lat="43.20618" lon="2.95943">
        <ele>95.311942</ele>
        <time>2023-01-05T15:45:47.553Z</time>
      </trkpt>
      <trkpt lat="43.20617" lon="2.95963">
        <ele>94.776392</ele>
        <time>2023-01-05T15:45:49.555Z</time>
      </trkpt>
      <trkpt lat="43.20615" lon="2.95984">
        <ele>94.213846</ele>
        <time>2023-01-05T15:45:51.567Z</time>
      </trkpt>
      <trkpt lat="43.20613" lon="2.96007">
        <ele>93.601479</ele>
        <time>2023-01-05T15:45:53.549Z</time>
      </trkpt>
      <trkpt lat="43.20609" lon="2.96031">
        <ele>92.93338</ele>
        <time>2023-01-05T15:45:55.571Z</time>
      </trkpt>
      <trkpt lat="43.20607" lon="2.96043">
        <ele>92.576461</ele>
        <time>2023-01-05T15:45:56.553Z</time>
      </trkpt>
      <trkpt lat="43.20604" lon="2.96055">
        <ele>92.217594</ele>
        <time>2023-01-05T15:45:58.705Z</time>
      </trkpt>
      <trkpt lat="43.20601" lon="2.96067">
        <ele>91.869025</ele>
        <time>2023-01-05T15:45:58.730Z</time>
      </trkpt>
      <trkpt lat="43.20594" lon="2.96091">
        <ele>91.142532</ele>
        <time>2023-01-05T15:46:00.569Z</time>
      </trkpt>
      <trkpt lat="43.2059" lon="2.96103">
        <ele>90.77071</ele>
        <time>2023-01-05T15:46:01.570Z</time>
      </trkpt>
      <trkpt lat="43.20586" lon="2.96115">
        <ele>90.38804</ele>
        <time>2023-01-05T15:46:02.568Z</time>
      </trkpt>
      <trkpt lat="43.20581" lon="2.96128">
        <ele>89.994688</ele>
        <time>2023-01-05T15:46:03.566Z</time>
      </trkpt>
      <trkpt lat="43.20576" lon="2.96139">
        <ele>89.601054</ele>
        <time>2023-01-05T15:46:04.571Z</time>
      </trkpt>
      <trkpt lat="43.2057" lon="2.96151">
        <ele>89.216293</ele>
        <time>2023-01-05T15:46:05.548Z</time>
      </trkpt>
      <trkpt lat="43.20564" lon="2.96162">
        <ele>88.827927</ele>
        <time>2023-01-05T15:46:06.552Z</time>
      </trkpt>
      <trkpt lat="43.20559" lon="2.96173">
        <ele>88.446363</ele>
        <time>2023-01-05T15:46:07.571Z</time>
      </trkpt>
      <trkpt lat="43.20552" lon="2.96183">
        <ele>88.070941</ele>
        <time>2023-01-05T15:46:08.572Z</time>
      </trkpt>
      <trkpt lat="43.20546" lon="2.96193">
        <ele>87.706619</ele>
        <time>2023-01-05T15:46:09.553Z</time>
      </trkpt>
      <trkpt lat="43.2054" lon="2.96203">
        <ele>87.345116</ele>
        <time>2023-01-05T15:46:10.560Z</time>
      </trkpt>
      <trkpt lat="43.20533" lon="2.96212">
        <ele>86.979619</ele>
        <time>2023-01-05T15:46:11.571Z</time>
      </trkpt>
      <trkpt lat="43.20527" lon="2.96221">
        <ele>86.620821</ele>
        <time>2023-01-05T15:46:12.547Z</time>
      </trkpt>
      <trkpt lat="43.2052" lon="2.96229">
        <ele>86.333966</ele>
        <time>2023-01-05T15:46:13.550Z</time>
      </trkpt>
      <trkpt lat="43.20513" lon="2.96238">
        <ele>86.175006</ele>
        <time>2023-01-05T15:46:14.555Z</time>
      </trkpt>
      <trkpt lat="43.20506" lon="2.96246">
        <ele>86.019443</ele>
        <time>2023-01-05T15:46:15.567Z</time>
      </trkpt>
      <trkpt lat="43.20494" lon="2.96262">
        <ele>85.725296</ele>
        <time>2023-01-05T15:46:17.571Z</time>
      </trkpt>
      <trkpt lat="43.20481" lon="2.96277">
        <ele>85.438797</ele>
        <time>2023-01-05T15:46:19.548Z</time>
      </trkpt>
      <trkpt lat="43.20469" lon="2.96293">
        <ele>85.150619</ele>
        <time>2023-01-05T15:46:21.570Z</time>
      </trkpt>
      <trkpt lat="43.20457" lon="2.96307">
        <ele>84.874302</ele>
        <time>2023-01-05T15:46:23.573Z</time>
      </trkpt>
      <trkpt lat="43.20445" lon="2.96321">
        <ele>84.602244</ele>
        <time>2023-01-05T15:46:25.551Z</time>
      </trkpt>
      <trkpt lat="43.20434" lon="2.96335">
        <ele>84.3387</ele>
        <time>2023-01-05T15:46:27.553Z</time>
      </trkpt>
      <trkpt lat="43.20423" lon="2.96349">
        <ele>84.083258</ele>
        <time>2023-01-05T15:46:29.552Z</time>
      </trkpt>
      <trkpt lat="43.20412" lon="2.96363">
        <ele>83.824839</ele>
        <time>2023-01-05T15:46:31.566Z</time>
      </trkpt>
      <trkpt lat="43.20401" lon="2.96377">
        <ele>83.564259</ele>
        <time>2023-01-05T15:46:33.570Z</time>
      </trkpt>
      <trkpt lat="43.2039" lon="2.96391">
        <ele>83.303715</ele>
        <time>2023-01-05T15:46:35.555Z</time>
      </trkpt>
      <trkpt lat="43.20378" lon="2.96405">
        <ele>82.783666</ele>
        <time>2023-01-05T15:46:37.558Z</time>
      </trkpt>
      <trkpt lat="43.20367" lon="2.96419">
        <ele>82.235888</ele>
        <time>2023-01-05T15:46:39.548Z</time>
      </trkpt>
      <trkpt lat="43.20356" lon="2.96433">
        <ele>81.692506</ele>
        <time>2023-01-05T15:46:41.560Z</time>
      </trkpt>
      <trkpt lat="43.20344" lon="2.96447">
        <ele>81.130432</ele>
        <time>2023-01-05T15:46:43.548Z</time>
      </trkpt>
      <trkpt lat="43.20333" lon="2.96461">
        <ele>80.599211</ele>
        <time>2023-01-05T15:46:45.550Z</time>
      </trkpt>
      <trkpt lat="43.20322" lon="2.96474">
        <ele>80.066378</ele>
        <time>2023-01-05T15:46:47.548Z</time>
      </trkpt>
      <trkpt lat="43.20311" lon="2.96488">
        <ele>79.53879</ele>
        <time>2023-01-05T15:46:49.557Z</time>
      </trkpt>
      <trkpt lat="43.203" lon="2.965">
        <ele>79.046245</ele>
        <time>2023-01-05T15:46:51.556Z</time>
      </trkpt>
      <trkpt lat="43.2029" lon="2.96514">
        <ele>78.536227</ele>
        <time>2023-01-05T15:46:53.557Z</time>
      </trkpt>
      <trkpt lat="43.20279" lon="2.96528">
        <ele>78.005508</ele>
        <time>2023-01-05T15:46:55.569Z</time>
      </trkpt>
      <trkpt lat="43.20269" lon="2.96542">
        <ele>77.484802</ele>
        <time>2023-01-05T15:46:57.554Z</time>
      </trkpt>
      <trkpt lat="43.2026" lon="2.96557">
        <ele>76.977228</ele>
        <time>2023-01-05T15:46:59.558Z</time>
      </trkpt>
      <trkpt lat="43.20251" lon="2.96572">
        <ele>76.663421</ele>
        <time>2023-01-05T15:47:01.568Z</time>
      </trkpt>
      <trkpt lat="43.20241" lon="2.96587">
        <ele>76.418902</ele>
        <time>2023-01-05T15:47:03.564Z</time>
      </trkpt>
      <trkpt lat="43.20232" lon="2.96603">
        <ele>76.169542</ele>
        <time>2023-01-05T15:47:05.550Z</time>
      </trkpt>
      <trkpt lat="43.20223" lon="2.96618">
        <ele>75.924059</ele>
        <time>2023-01-05T15:47:07.555Z</time>
      </trkpt>
      <trkpt lat="43.20214" lon="2.96633">
        <ele>75.678444</ele>
        <time>2023-01-05T15:47:09.565Z</time>
      </trkpt>
      <trkpt lat="43.20205" lon="2.96648">
        <ele>75.438527</ele>
        <time>2023-01-05T15:47:11.568Z</time>
      </trkpt>
      <trkpt lat="43.20196" lon="2.96663">
        <ele>75.193044</ele>
        <time>2023-01-05T15:47:13.572Z</time>
      </trkpt>
      <trkpt lat="43.20187" lon="2.96678">
        <ele>74.950442</ele>
        <time>2023-01-05T15:47:15.557Z</time>
      </trkpt>
      <trkpt lat="43.20178" lon="2.96693">
        <ele>74.702053</ele>
        <time>2023-01-05T15:47:17.557Z</time>
      </trkpt>
      <trkpt lat="43.20169" lon="2.96707">
        <ele>74.480359</ele>
        <time>2023-01-05T15:47:19.563Z</time>
      </trkpt>
      <trkpt lat="43.20161" lon="2.9672">
        <ele>74.265152</ele>
        <time>2023-01-05T15:47:21.568Z</time>
      </trkpt>
      <trkpt lat="43.20154" lon="2.96731">
        <ele>74.073496</ele>
        <time>2023-01-05T15:47:23.551Z</time>
      </trkpt>
      <trkpt lat="43.20146" lon="2.96744">
        <ele>73.873745</ele>
        <time>2023-01-05T15:47:25.561Z</time>
      </trkpt>
      <trkpt lat="43.20138" lon="2.96756">
        <ele>73.712165</ele>
        <time>2023-01-05T15:47:27.555Z</time>
      </trkpt>
      <trkpt lat="43.20131" lon="2.96769">
        <ele>73.592835</ele>
        <time>2023-01-05T15:47:29.563Z</time>
      </trkpt>
      <trkpt lat="43.20123" lon="2.96781">
        <ele>73.472303</ele>
        <time>2023-01-05T15:47:31.554Z</time>
      </trkpt>
      <trkpt lat="43.20114" lon="2.96795">
        <ele>73.341124</ele>
        <time>2023-01-05T15:47:33.560Z</time>
      </trkpt>
      <trkpt lat="43.20106" lon="2.96809">
        <ele>73.206511</ele>
        <time>2023-01-05T15:47:35.558Z</time>
      </trkpt>
      <trkpt lat="43.20096" lon="2.96825">
        <ele>73.060519</ele>
        <time>2023-01-05T15:47:37.570Z</time>
      </trkpt>
      <trkpt lat="43.20087" lon="2.9684">
        <ele>72.915337</ele>
        <time>2023-01-05T15:47:39.556Z</time>
      </trkpt>
      <trkpt lat="43.20078" lon="2.96854">
        <ele>72.778401</ele>
        <time>2023-01-05T15:47:41.569Z</time>
      </trkpt>
      <trkpt lat="43.20071" lon="2.96865">
        <ele>72.673972</ele>
        <time>2023-01-05T15:47:43.564Z</time>
      </trkpt>
      <trkpt lat="43.20063" lon="2.96872">
        <ele>72.579057</ele>
        <time>2023-01-05T15:47:45.570Z</time>
      </trkpt>
      <trkpt lat="43.20056" lon="2.96881">
        <ele>72.483831</ele>
        <time>2023-01-05T15:47:47.558Z</time>
      </trkpt>
      <trkpt lat="43.20046" lon="2.96892">
        <ele>72.350366</ele>
        <time>2023-01-05T15:47:50.558Z</time>
      </trkpt>
      <trkpt lat="43.20033" lon="2.96896">
        <ele>72.218831</ele>
        <time>2023-01-05T15:47:53.552Z</time>
      </trkpt>
      <trkpt lat="43.20024" lon="2.96896">
        <ele>72.128733</ele>
        <time>2023-01-05T15:47:55.545Z</time>
      </trkpt>
      <trkpt lat="43.20014" lon="2.96902">
        <ele>72.020824</ele>
        <time>2023-01-05T15:47:58.561Z</time>
      </trkpt>
      <trkpt lat="43.20007" lon="2.96913">
        <ele>71.817415</ele>
        <time>2023-01-05T15:48:02.553Z</time>
      </trkpt>
      <trkpt lat="43.20007" lon="2.96929">
        <ele>71.524186</ele>
        <time>2023-01-05T15:48:06.544Z</time>
      </trkpt>
      <trkpt lat="43.20007" lon="2.96941">
        <ele>71.289933</ele>
        <time>2023-01-05T15:48:09.555Z</time>
      </trkpt>
      <trkpt lat="43.20007" lon="2.96953">
        <ele>71.055623</ele>
        <time>2023-01-05T15:48:12.559Z</time>
      </trkpt>
      <trkpt lat="43.20004" lon="2.96967">
        <ele>70.786121</ele>
        <time>2023-01-05T15:48:15.550Z</time>
      </trkpt>
      <trkpt lat="43.19998" lon="2.96981">
        <ele>70.478516</ele>
        <time>2023-01-05T15:48:18.554Z</time>
      </trkpt>
      <trkpt lat="43.19992" lon="2.96991">
        <ele>70.23576</ele>
        <time>2023-01-05T15:48:20.553Z</time>
      </trkpt>
      <trkpt lat="43.19987" lon="2.97003">
        <ele>69.972922</ele>
        <time>2023-01-05T15:48:22.562Z</time>
      </trkpt>
      <trkpt lat="43.1998" lon="2.97015">
        <ele>69.691849</ele>
        <time>2023-01-05T15:48:24.558Z</time>
      </trkpt>
      <trkpt lat="43.19973" lon="2.97027">
        <ele>69.400027</ele>
        <time>2023-01-05T15:48:26.550Z</time>
      </trkpt>
      <trkpt lat="43.19966" lon="2.97038">
        <ele>69.116502</ele>
        <time>2023-01-05T15:48:28.554Z</time>
      </trkpt>
      <trkpt lat="43.19958" lon="2.97051">
        <ele>68.80755</ele>
        <time>2023-01-05T15:48:30.566Z</time>
      </trkpt>
      <trkpt lat="43.19951" lon="2.97063">
        <ele>68.503161</ele>
        <time>2023-01-05T15:48:32.556Z</time>
      </trkpt>
      <trkpt lat="43.19943" lon="2.97076">
        <ele>68.196014</ele>
        <time>2023-01-05T15:48:34.562Z</time>
      </trkpt>
      <trkpt lat="43.19936" lon="2.97089">
        <ele>67.882928</ele>
        <time>2023-01-05T15:48:36.550Z</time>
      </trkpt>
      <trkpt lat="43.19929" lon="2.97102">
        <ele>67.571503</ele>
        <time>2023-01-05T15:48:38.551Z</time>
      </trkpt>
      <trkpt lat="43.19922" lon="2.97116">
        <ele>67.285366</ele>
        <time>2023-01-05T15:48:40.560Z</time>
      </trkpt>
      <trkpt lat="43.19916" lon="2.97131">
        <ele>67.139979</ele>
        <time>2023-01-05T15:48:42.558Z</time>
      </trkpt>
      <trkpt lat="43.19909" lon="2.97146">
        <ele>66.984219</ele>
        <time>2023-01-05T15:48:44.555Z</time>
      </trkpt>
      <trkpt lat="43.19903" lon="2.97162">
        <ele>66.829202</ele>
        <time>2023-01-05T15:48:46.578Z</time>
      </trkpt>
      <trkpt lat="43.19897" lon="2.97179">
        <ele>66.660072</ele>
        <time>2023-01-05T15:48:48.549Z</time>
      </trkpt>
      <trkpt lat="43.19891" lon="2.97197">
        <ele>66.494084</ele>
        <time>2023-01-05T15:48:50.558Z</time>
      </trkpt>
      <trkpt lat="43.19886" lon="2.97212">
        <ele>66.345113</ele>
        <time>2023-01-05T15:48:52.549Z</time>
      </trkpt>
      <trkpt lat="43.1988" lon="2.97227">
        <ele>66.202657</ele>
        <time>2023-01-05T15:48:54.543Z</time>
      </trkpt>
      <trkpt lat="43.19876" lon="2.97239">
        <ele>66.078481</ele>
        <time>2023-01-05T15:48:56.558Z</time>
      </trkpt>
      <trkpt lat="43.19872" lon="2.97252">
        <ele>65.958716</ele>
        <time>2023-01-05T15:48:58.548Z</time>
      </trkpt>
      <trkpt lat="43.19867" lon="2.97264">
        <ele>65.838085</ele>
        <time>2023-01-05T15:49:00.552Z</time>
      </trkpt>
      <trkpt lat="43.19862" lon="2.97276">
        <ele>65.723181</ele>
        <time>2023-01-05T15:49:02.559Z</time>
      </trkpt>
      <trkpt lat="43.19856" lon="2.97287">
        <ele>65.602074</ele>
        <time>2023-01-05T15:49:04.546Z</time>
      </trkpt>
      <trkpt lat="43.19849" lon="2.97296">
        <ele>65.482065</ele>
        <time>2023-01-05T15:49:06.549Z</time>
      </trkpt>
      <trkpt lat="43.1984" lon="2.97304">
        <ele>65.359955</ele>
        <time>2023-01-05T15:49:08.553Z</time>
      </trkpt>
      <trkpt lat="43.19828" lon="2.97307">
        <ele>65.212011</ele>
        <time>2023-01-05T15:49:11.550Z</time>
      </trkpt>
      <trkpt lat="43.19816" lon="2.97315">
        <ele>64.892229</ele>
        <time>2023-01-05T15:49:14.562Z</time>
      </trkpt>
      <trkpt lat="43.19809" lon="2.97331">
        <ele>64.515437</ele>
        <time>2023-01-05T15:49:17.573Z</time>
      </trkpt>
      <trkpt lat="43.19812" lon="2.97349">
        <ele>64.119654</ele>
        <time>2023-01-05T15:49:20.571Z</time>
      </trkpt>
      <trkpt lat="43.19816" lon="2.97362">
        <ele>63.825624</ele>
        <time>2023-01-05T15:49:22.569Z</time>
      </trkpt>
      <trkpt lat="43.1982" lon="2.97376">
        <ele>63.509101</ele>
        <time>2023-01-05T15:49:24.575Z</time>
      </trkpt>
      <trkpt lat="43.19818" lon="2.97392">
        <ele>63.182597</ele>
        <time>2023-01-05T15:49:26.569Z</time>
      </trkpt>
      <trkpt lat="43.19815" lon="2.97408">
        <ele>62.826992</ele>
        <time>2023-01-05T15:49:28.552Z</time>
      </trkpt>
      <trkpt lat="43.19809" lon="2.97424">
        <ele>62.451953</ele>
        <time>2023-01-05T15:49:30.573Z</time>
      </trkpt>
      <trkpt lat="43.19804" lon="2.97441">
        <ele>62.066879</ele>
        <time>2023-01-05T15:49:32.547Z</time>
      </trkpt>
      <trkpt lat="43.19797" lon="2.97457">
        <ele>61.674517</ele>
        <time>2023-01-05T15:49:34.554Z</time>
      </trkpt>
      <trkpt lat="43.19789" lon="2.97473">
        <ele>61.26658</ele>
        <time>2023-01-05T15:49:36.549Z</time>
      </trkpt>
      <trkpt lat="43.1978" lon="2.97489">
        <ele>60.861963</ele>
        <time>2023-01-05T15:49:38.545Z</time>
      </trkpt>
      <trkpt lat="43.19772" lon="2.97503">
        <ele>60.465509</ele>
        <time>2023-01-05T15:49:40.572Z</time>
      </trkpt>
      <trkpt lat="43.19762" lon="2.97517">
        <ele>60.07224</ele>
        <time>2023-01-05T15:49:42.572Z</time>
      </trkpt>
      <trkpt lat="43.19754" lon="2.97531">
        <ele>59.789187</ele>
        <time>2023-01-05T15:49:44.583Z</time>
      </trkpt>
      <trkpt lat="43.19744" lon="2.97546">
        <ele>59.51838</ele>
        <time>2023-01-05T15:49:46.550Z</time>
      </trkpt>
      <trkpt lat="43.19736" lon="2.9756">
        <ele>59.263616</ele>
        <time>2023-01-05T15:49:48.568Z</time>
      </trkpt>
      <trkpt lat="43.19727" lon="2.97574">
        <ele>59.007947</ele>
        <time>2023-01-05T15:49:50.569Z</time>
      </trkpt>
      <trkpt lat="43.19719" lon="2.97587">
        <ele>58.764393</ele>
        <time>2023-01-05T15:49:52.549Z</time>
      </trkpt>
      <trkpt lat="43.19711" lon="2.976">
        <ele>58.518713</ele>
        <time>2023-01-05T15:49:54.554Z</time>
      </trkpt>
      <trkpt lat="43.19703" lon="2.97613">
        <ele>58.284607</ele>
        <time>2023-01-05T15:49:56.558Z</time>
      </trkpt>
      <trkpt lat="43.19695" lon="2.97626">
        <ele>58.046945</ele>
        <time>2023-01-05T15:49:58.570Z</time>
      </trkpt>
      <trkpt lat="43.19687" lon="2.97638">
        <ele>57.815385</ele>
        <time>2023-01-05T15:50:00.571Z</time>
      </trkpt>
      <trkpt lat="43.19679" lon="2.9765">
        <ele>57.583825</ele>
        <time>2023-01-05T15:50:02.569Z</time>
      </trkpt>
      <trkpt lat="43.1967" lon="2.97662">
        <ele>57.350965</ele>
        <time>2023-01-05T15:50:04.551Z</time>
      </trkpt>
      <trkpt lat="43.19663" lon="2.97674">
        <ele>57.134185</ele>
        <time>2023-01-05T15:50:06.570Z</time>
      </trkpt>
      <trkpt lat="43.19655" lon="2.97685">
        <ele>56.915149</ele>
        <time>2023-01-05T15:50:08.551Z</time>
      </trkpt>
      <trkpt lat="43.19646" lon="2.97699">
        <ele>56.657864</ele>
        <time>2023-01-05T15:50:11.549Z</time>
      </trkpt>
      <trkpt lat="43.19637" lon="2.97711">
        <ele>56.482856</ele>
        <time>2023-01-05T15:50:14.558Z</time>
      </trkpt>
      <trkpt lat="43.19628" lon="2.97723">
        <ele>56.383159</ele>
        <time>2023-01-05T15:50:17.556Z</time>
      </trkpt>
      <trkpt lat="43.1962" lon="2.97736">
        <ele>56.285466</ele>
        <time>2023-01-05T15:50:20.559Z</time>
      </trkpt>
      <trkpt lat="43.1961" lon="2.97748">
        <ele>56.180061</ele>
        <time>2023-01-05T15:50:23.566Z</time>
      </trkpt>
      <trkpt lat="43.19602" lon="2.97758">
        <ele>56.099308</ele>
        <time>2023-01-05T15:50:25.559Z</time>
      </trkpt>
      <trkpt lat="43.19594" lon="2.97767">
        <ele>56.012055</ele>
        <time>2023-01-05T15:50:27.560Z</time>
      </trkpt>
      <trkpt lat="43.19585" lon="2.97778">
        <ele>55.919258</ele>
        <time>2023-01-05T15:50:29.565Z</time>
      </trkpt>
      <trkpt lat="43.19576" lon="2.97788">
        <ele>55.82858</ele>
        <time>2023-01-05T15:50:31.560Z</time>
      </trkpt>
      <trkpt lat="43.19566" lon="2.97799">
        <ele>55.726809</ele>
        <time>2023-01-05T15:50:33.559Z</time>
      </trkpt>
      <trkpt lat="43.19556" lon="2.97811">
        <ele>55.622488</ele>
        <time>2023-01-05T15:50:35.547Z</time>
      </trkpt>
      <trkpt lat="43.19546" lon="2.97823">
        <ele>55.519743</ele>
        <time>2023-01-05T15:50:37.570Z</time>
      </trkpt>
      <trkpt lat="43.19536" lon="2.97834">
        <ele>55.419318</ele>
        <time>2023-01-05T15:50:39.562Z</time>
      </trkpt>
      <trkpt lat="43.19527" lon="2.97845">
        <ele>55.319634</ele>
        <time>2023-01-05T15:50:41.557Z</time>
      </trkpt>
      <trkpt lat="43.19518" lon="2.97855">
        <ele>55.228946</ele>
        <time>2023-01-05T15:50:43.569Z</time>
      </trkpt>
      <trkpt lat="43.19509" lon="2.97865">
        <ele>55.138523</ele>
        <time>2023-01-05T15:50:45.553Z</time>
      </trkpt>
      <trkpt lat="43.19501" lon="2.97875">
        <ele>55.076794</ele>
        <time>2023-01-05T15:50:47.547Z</time>
      </trkpt>
      <trkpt lat="43.19491" lon="2.97885">
        <ele>55.020864</ele>
        <time>2023-01-05T15:50:49.547Z</time>
      </trkpt>
      <trkpt lat="43.19482" lon="2.97896">
        <ele>54.966096</ele>
        <time>2023-01-05T15:50:51.553Z</time>
      </trkpt>
      <trkpt lat="43.19473" lon="2.97906">
        <ele>54.910801</ele>
        <time>2023-01-05T15:50:53.552Z</time>
      </trkpt>
      <trkpt lat="43.19465" lon="2.97915">
        <ele>54.858952</ele>
        <time>2023-01-05T15:50:55.555Z</time>
      </trkpt>
      <trkpt lat="43.19457" lon="2.97925">
        <ele>54.806983</ele>
        <time>2023-01-05T15:50:57.558Z</time>
      </trkpt>
      <trkpt lat="43.19448" lon="2.97936">
        <ele>54.752439</ele>
        <time>2023-01-05T15:50:59.549Z</time>
      </trkpt>
      <trkpt lat="43.19439" lon="2.97947">
        <ele>54.69723</ele>
        <time>2023-01-05T15:51:01.554Z</time>
      </trkpt>
      <trkpt lat="43.19431" lon="2.97957">
        <ele>54.643399</ele>
        <time>2023-01-05T15:51:03.571Z</time>
      </trkpt>
      <trkpt lat="43.19422" lon="2.97966">
        <ele>54.590753</ele>
        <time>2023-01-05T15:51:05.555Z</time>
      </trkpt>
      <trkpt lat="43.19414" lon="2.97976">
        <ele>54.54175</ele>
        <time>2023-01-05T15:51:07.572Z</time>
      </trkpt>
      <trkpt lat="43.19406" lon="2.97984">
        <ele>54.49308</ele>
        <time>2023-01-05T15:51:09.561Z</time>
      </trkpt>
      <trkpt lat="43.19397" lon="2.97993">
        <ele>54.444201</ele>
        <time>2023-01-05T15:51:11.552Z</time>
      </trkpt>
      <trkpt lat="43.1939" lon="2.98">
        <ele>54.39948</ele>
        <time>2023-01-05T15:51:13.561Z</time>
      </trkpt>
      <trkpt lat="43.19377" lon="2.98008">
        <ele>54.334722</ele>
        <time>2023-01-05T15:51:16.555Z</time>
      </trkpt>
      <trkpt lat="43.19366" lon="2.98016">
        <ele>54.276018</ele>
        <time>2023-01-05T15:51:19.573Z</time>
      </trkpt>
      <trkpt lat="43.19355" lon="2.98024">
        <ele>54.26047</ele>
        <time>2023-01-05T15:51:22.571Z</time>
      </trkpt>
      <trkpt lat="43.19344" lon="2.9803">
        <ele>54.253058</ele>
        <time>2023-01-05T15:51:25.558Z</time>
      </trkpt>
      <trkpt lat="43.19334" lon="2.98028">
        <ele>54.246315</ele>
        <time>2023-01-05T15:51:28.556Z</time>
      </trkpt>
      <trkpt lat="43.19323" lon="2.98025">
        <ele>54.238442</ele>
        <time>2023-01-05T15:51:31.560Z</time>
      </trkpt>
      <trkpt lat="43.1931" lon="2.98027">
        <ele>54.229995</ele>
        <time>2023-01-05T15:51:34.542Z</time>
      </trkpt>
      <trkpt lat="43.19299" lon="2.98035">
        <ele>54.221813</ele>
        <time>2023-01-05T15:51:37.561Z</time>
      </trkpt>
      <trkpt lat="43.19292" lon="2.98048">
        <ele>54.213982</ele>
        <time>2023-01-05T15:51:40.548Z</time>
      </trkpt>
      <trkpt lat="43.19288" lon="2.98065">
        <ele>54.205311</ele>
        <time>2023-01-05T15:51:43.567Z</time>
      </trkpt>
      <trkpt lat="43.19288" lon="2.98084">
        <ele>54.196447</ele>
        <time>2023-01-05T15:51:46.554Z</time>
      </trkpt>
      <trkpt lat="43.19287" lon="2.98102">
        <ele>54.187815</ele>
        <time>2023-01-05T15:51:49.549Z</time>
      </trkpt>
      <trkpt lat="43.19283" lon="2.98114">
        <ele>54.181659</ele>
        <time>2023-01-05T15:51:51.550Z</time>
      </trkpt>
      <trkpt lat="43.19277" lon="2.9813">
        <ele>54.172698</ele>
        <time>2023-01-05T15:51:54.548Z</time>
      </trkpt>
      <trkpt lat="43.19269" lon="2.98143">
        <ele>54.164606</ele>
        <time>2023-01-05T15:51:57.556Z</time>
      </trkpt>
      <trkpt lat="43.1926" lon="2.98153">
        <ele>54.156835</ele>
        <time>2023-01-05T15:52:00.557Z</time>
      </trkpt>
      <trkpt lat="43.19251" lon="2.98163">
        <ele>54.149138</ele>
        <time>2023-01-05T15:52:03.555Z</time>
      </trkpt>
      <trkpt lat="43.19242" lon="2.98173">
        <ele>54.303679</ele>
        <time>2023-01-05T15:52:06.561Z</time>
      </trkpt>
      <trkpt lat="43.19232" lon="2.98184">
        <ele>54.472416</ele>
        <time>2023-01-05T15:52:09.557Z</time>
      </trkpt>
      <trkpt lat="43.19223" lon="2.98195">
        <ele>54.641004</ele>
        <time>2023-01-05T15:52:12.567Z</time>
      </trkpt>
      <trkpt lat="43.19214" lon="2.98206">
        <ele>54.808052</ele>
        <time>2023-01-05T15:52:15.566Z</time>
      </trkpt>
      <trkpt lat="43.19205" lon="2.98216">
        <ele>54.970033</ele>
        <time>2023-01-05T15:52:18.550Z</time>
      </trkpt>
      <trkpt lat="43.19195" lon="2.98226">
        <ele>55.131181</ele>
        <time>2023-01-05T15:52:21.568Z</time>
      </trkpt>
      <trkpt lat="43.19187" lon="2.98237">
        <ele>55.288738</ele>
        <time>2023-01-05T15:52:24.558Z</time>
      </trkpt>
      <trkpt lat="43.19179" lon="2.98247">
        <ele>55.436085</ele>
        <time>2023-01-05T15:52:27.552Z</time>
      </trkpt>
      <trkpt lat="43.19171" lon="2.98255">
        <ele>55.569561</ele>
        <time>2023-01-05T15:52:30.551Z</time>
      </trkpt>
      <trkpt lat="43.19162" lon="2.98265">
        <ele>55.73071</ele>
        <time>2023-01-05T15:52:34.553Z</time>
      </trkpt>
      <trkpt lat="43.19153" lon="2.98275">
        <ele>55.884891</ele>
        <time>2023-01-05T15:52:38.547Z</time>
      </trkpt>
      <trkpt lat="43.19145" lon="2.98284">
        <ele>56.024281</ele>
        <time>2023-01-05T15:52:42.576Z</time>
      </trkpt>
      <trkpt lat="43.19138" lon="2.98291">
        <ele>56.148353</ele>
        <time>2023-01-05T15:52:46.574Z</time>
      </trkpt>
      <trkpt lat="43.1913" lon="2.983">
        <ele>56.281206</ele>
        <time>2023-01-05T15:52:50.555Z</time>
      </trkpt>
      <trkpt lat="43.19123" lon="2.98308">
        <ele>56.417631</ele>
        <time>2023-01-05T15:52:54.572Z</time>
      </trkpt>
      <trkpt lat="43.19115" lon="2.98317">
        <ele>56.552222</ele>
        <time>2023-01-05T15:52:58.550Z</time>
      </trkpt>
      <trkpt lat="43.19108" lon="2.98326">
        <ele>56.745517</ele>
        <time>2023-01-05T15:53:02.571Z</time>
      </trkpt>
      <trkpt lat="43.191" lon="2.98335">
        <ele>56.980403</ele>
        <time>2023-01-05T15:53:06.553Z</time>
      </trkpt>
      <trkpt lat="43.19094" lon="2.98343">
        <ele>57.201506</ele>
        <time>2023-01-05T15:53:10.562Z</time>
      </trkpt>
      <trkpt lat="43.19087" lon="2.98352">
        <ele>57.421451</ele>
        <time>2023-01-05T15:53:14.565Z</time>
      </trkpt>
      <trkpt lat="43.1908" lon="2.9836">
        <ele>57.639619</ele>
        <time>2023-01-05T15:53:18.558Z</time>
      </trkpt>
      <trkpt lat="43.19071" lon="2.9837">
        <ele>57.906599</ele>
        <time>2023-01-05T15:53:23.552Z</time>
      </trkpt>
      <trkpt lat="43.19065" lon="2.98378">
        <ele>58.123115</ele>
        <time>2023-01-05T15:53:27.551Z</time>
      </trkpt>
      <trkpt lat="43.19058" lon="2.98387">
        <ele>58.341284</ele>
        <time>2023-01-05T15:53:31.553Z</time>
      </trkpt>
      <trkpt lat="43.19051" lon="2.98394">
        <ele>58.557067</ele>
        <time>2023-01-05T15:53:35.551Z</time>
      </trkpt>
      <trkpt lat="43.19043" lon="2.98402">
        <ele>58.777675</ele>
        <time>2023-01-05T15:53:39.557Z</time>
      </trkpt>
      <trkpt lat="43.19035" lon="2.98413">
        <ele>59.039258</ele>
        <time>2023-01-05T15:53:44.564Z</time>
      </trkpt>
      <trkpt lat="43.19028" lon="2.98423">
        <ele>59.293796</ele>
        <time>2023-01-05T15:53:49.552Z</time>
      </trkpt>
      <trkpt lat="43.1902" lon="2.98433">
        <ele>59.553879</ele>
        <time>2023-01-05T15:53:54.554Z</time>
      </trkpt>
      <trkpt lat="43.19012" lon="2.98444">
        <ele>59.819581</ele>
        <time>2023-01-05T15:54:00.552Z</time>
      </trkpt>
      <trkpt lat="43.19005" lon="2.98452">
        <ele>60.037161</ele>
        <time>2023-01-05T15:54:04.552Z</time>
      </trkpt>
      <trkpt lat="43.18998" lon="2.98462">
        <ele>60.268562</ele>
        <time>2023-01-05T15:54:08.552Z</time>
      </trkpt>
      <trkpt lat="43.18991" lon="2.9847">
        <ele>60.497219</ele>
        <time>2023-01-05T15:54:13.570Z</time>
      </trkpt>
      <trkpt lat="43.18984" lon="2.98478">
        <ele>60.714873</ele>
        <time>2023-01-05T15:54:18.550Z</time>
      </trkpt>
      <trkpt lat="43.18977" lon="2.98487">
        <ele>60.896535</ele>
        <time>2023-01-05T15:54:22.551Z</time>
      </trkpt>
      <trkpt lat="43.18965" lon="2.98488">
        <ele>60.896535</ele>
        <time>2023-01-05T15:54:26.557Z</time>
      </trkpt>
      <trkpt lat="43.18955" lon="2.98491">
        <ele>60.896535</ele>
        <time>2023-01-05T15:54:29.552Z</time>
      </trkpt>
      <trkpt lat="43.18947" lon="2.985">
        <ele>60.896535</ele>
        <time>2023-01-05T15:54:32.554Z</time>
      </trkpt>
      <trkpt lat="43.18944" lon="2.98513">
        <ele>60.896535</ele>
        <time>2023-01-05T15:54:35.570Z</time>
      </trkpt>
      <trkpt lat="43.18947" lon="2.98527">
        <ele>60.896535</ele>
        <time>2023-01-05T15:54:38.553Z</time>
      </trkpt>
      <trkpt lat="43.18949" lon="2.9854">
        <ele>60.896535</ele>
        <time>2023-01-05T15:54:41.552Z</time>
      </trkpt>
      <trkpt lat="43.18947" lon="2.98555">
        <ele>60.896535</ele>
        <time>2023-01-05T15:54:44.572Z</time>
      </trkpt>
      <trkpt lat="43.18941" lon="2.98569">
        <ele>60.896535</ele>
        <time>2023-01-05T15:54:47.548Z</time>
      </trkpt>
      <trkpt lat="43.18933" lon="2.98584">
        <ele>60.896535</ele>
        <time>2023-01-05T15:54:50.553Z</time>
      </trkpt>
      <trkpt lat="43.18925" lon="2.98598">
        <ele>60.896535</ele>
        <time>2023-01-05T15:54:53.561Z</time>
      </trkpt>
      <trkpt lat="43.18919" lon="2.98609">
        <ele>60.896535</ele>
        <time>2023-01-05T15:54:55.555Z</time>
      </trkpt>
      <trkpt lat="43.18914" lon="2.98619">
        <ele>60.896535</ele>
        <time>2023-01-05T15:54:57.549Z</time>
      </trkpt>
      <trkpt lat="43.18906" lon="2.98633">
        <ele>60.896535</ele>
        <time>2023-01-05T15:55:00.561Z</time>
      </trkpt>
      <trkpt lat="43.189" lon="2.98642">
        <ele>60.896535</ele>
        <time>2023-01-05T15:55:02.569Z</time>
      </trkpt>
      <trkpt lat="43.18892" lon="2.98654">
        <ele>60.896535</ele>
        <time>2023-01-05T15:55:05.559Z</time>
      </trkpt>
      <trkpt lat="43.18887" lon="2.98661">
        <ele>60.896535</ele>
        <time>2023-01-05T15:55:44.038Z</time>
      </trkpt>
      <trkpt lat="43.18819" lon="2.987">
        <ele>60.896535</ele>
        <time>2023-01-05T15:58:03.791Z</time>
        <extensions>
          <visugpx:TrkExtension xmlns:visugpx="https://www.visugpx.com/editgpx/">
            <visugpx:node>1</visugpx:node>
            </visugpx:TrkExtension>
        </extensions>
      </trkpt>
    </trkseg>
  </trk>
  <trk>
    <name><![CDATA[Narbonne - Marseillan]]></name>
    <extensions>
      <line xmlns="http://www.topografix.com/GPX/gpx_style/0/2">
        <color>0000FF</color>
        <width>4</width>
      </line>
    </extensions>
    <trkseg>
      <trkpt lat="43.18944" lon="2.98769">
        <ele>51.810009</ele>
        <time>2023-01-07T11:00:21.311Z</time>
      </trkpt>
      <trkpt lat="43.18953" lon="2.98778">
        <ele>51.810009</ele>
        <time>2023-01-07T11:01:37.114Z</time>
      </trkpt>
      <trkpt lat="43.18962" lon="2.98786">
        <ele>51.810009</ele>
        <time>2023-01-07T11:01:42.063Z</time>
      </trkpt>
      <trkpt lat="43.18971" lon="2.98793">
        <ele>51.810009</ele>
        <time>2023-01-07T11:01:47.114Z</time>
      </trkpt>
      <trkpt lat="43.18978" lon="2.98801">
        <ele>51.810009</ele>
        <time>2023-01-07T11:01:53.071Z</time>
      </trkpt>
      <trkpt lat="43.18986" lon="2.98808">
        <ele>51.810009</ele>
        <time>2023-01-07T11:01:58.066Z</time>
      </trkpt>
      <trkpt lat="43.18995" lon="2.98813">
        <ele>51.810009</ele>
        <time>2023-01-07T11:02:04.078Z</time>
      </trkpt>
      <trkpt lat="43.19004" lon="2.98815">
        <ele>51.810009</ele>
        <time>2023-01-07T11:02:10.063Z</time>
      </trkpt>
      <trkpt lat="43.18998" lon="2.98826">
        <ele>51.810009</ele>
        <time>2023-01-07T11:02:37.084Z</time>
      </trkpt>
      <trkpt lat="43.18992" lon="2.98838">
        <ele>51.815536</ele>
        <time>2023-01-07T11:02:41.064Z</time>
      </trkpt>
      <trkpt lat="43.18985" lon="2.98851">
        <ele>51.90239</ele>
        <time>2023-01-07T11:02:45.073Z</time>
      </trkpt>
      <trkpt lat="43.18978" lon="2.98863">
        <ele>51.983279</ele>
        <time>2023-01-07T11:02:49.074Z</time>
      </trkpt>
      <trkpt lat="43.1897" lon="2.98875">
        <ele>52.070137</ele>
        <time>2023-01-07T11:02:53.075Z</time>
      </trkpt>
      <trkpt lat="43.18965" lon="2.98886">
        <ele>52.141906</ele>
        <time>2023-01-07T11:02:56.068Z</time>
      </trkpt>
      <trkpt lat="43.18957" lon="2.98898">
        <ele>52.225546</ele>
        <time>2023-01-07T11:03:00.078Z</time>
      </trkpt>
      <trkpt lat="43.1895" lon="2.9891">
        <ele>52.309066</ele>
        <time>2023-01-07T11:03:04.074Z</time>
      </trkpt>
      <trkpt lat="43.18944" lon="2.98922">
        <ele>52.38901</ele>
        <time>2023-01-07T11:03:08.091Z</time>
      </trkpt>
      <trkpt lat="43.18937" lon="2.98935">
        <ele>52.476301</ele>
        <time>2023-01-07T11:03:12.061Z</time>
      </trkpt>
      <trkpt lat="43.18931" lon="2.98946">
        <ele>52.545878</ele>
        <time>2023-01-07T11:03:15.075Z</time>
      </trkpt>
      <trkpt lat="43.18925" lon="2.98957">
        <ele>52.621555</ele>
        <time>2023-01-07T11:03:18.080Z</time>
      </trkpt>
      <trkpt lat="43.18918" lon="2.98968">
        <ele>52.699774</ele>
        <time>2023-01-07T11:03:21.078Z</time>
      </trkpt>
      <trkpt lat="43.18912" lon="2.9898">
        <ele>52.773238</ele>
        <time>2023-01-07T11:03:24.066Z</time>
      </trkpt>
      <trkpt lat="43.18906" lon="2.98991">
        <ele>52.852753</ele>
        <time>2023-01-07T11:03:28.073Z</time>
      </trkpt>
      <trkpt lat="43.189" lon="2.99004">
        <ele>52.931007</ele>
        <time>2023-01-07T11:03:32.071Z</time>
      </trkpt>
      <trkpt lat="43.18893" lon="2.99013">
        <ele>53.002861</ele>
        <time>2023-01-07T11:03:36.074Z</time>
      </trkpt>
      <trkpt lat="43.18886" lon="2.99023">
        <ele>53.078535</ele>
        <time>2023-01-07T11:03:41.058Z</time>
      </trkpt>
      <trkpt lat="43.18878" lon="2.99033">
        <ele>53.110815</ele>
        <time>2023-01-07T11:03:45.063Z</time>
      </trkpt>
      <trkpt lat="43.18871" lon="2.99043">
        <ele>53.055486</ele>
        <time>2023-01-07T11:03:48.069Z</time>
      </trkpt>
      <trkpt lat="43.18865" lon="2.99052">
        <ele>53.003575</ele>
        <time>2023-01-07T11:03:51.060Z</time>
      </trkpt>
      <trkpt lat="43.18857" lon="2.99062">
        <ele>52.946614</ele>
        <time>2023-01-07T11:03:54.063Z</time>
      </trkpt>
      <trkpt lat="43.1885" lon="2.99071">
        <ele>52.895701</ele>
        <time>2023-01-07T11:03:57.062Z</time>
      </trkpt>
      <trkpt lat="43.18843" lon="2.99082">
        <ele>52.836009</ele>
        <time>2023-01-07T11:04:01.059Z</time>
      </trkpt>
      <trkpt lat="43.18837" lon="2.99092">
        <ele>52.785805</ele>
        <time>2023-01-07T11:04:05.064Z</time>
      </trkpt>
      <trkpt lat="43.18837" lon="2.99106">
        <ele>52.728222</ele>
        <time>2023-01-07T11:04:11.069Z</time>
      </trkpt>
      <trkpt lat="43.18845" lon="2.99115">
        <ele>52.671766</ele>
        <time>2023-01-07T11:04:15.086Z</time>
      </trkpt>
      <trkpt lat="43.18853" lon="2.99121">
        <ele>52.622529</ele>
        <time>2023-01-07T11:04:19.065Z</time>
      </trkpt>
      <trkpt lat="43.1886" lon="2.99129">
        <ele>52.573238</ele>
        <time>2023-01-07T11:04:22.078Z</time>
      </trkpt>
      <trkpt lat="43.18869" lon="2.99137">
        <ele>52.515078</ele>
        <time>2023-01-07T11:04:25.073Z</time>
      </trkpt>
      <trkpt lat="43.18877" lon="2.99147">
        <ele>52.456134</ele>
        <time>2023-01-07T11:04:28.059Z</time>
      </trkpt>
      <trkpt lat="43.18885" lon="2.99157">
        <ele>52.397985</ele>
        <time>2023-01-07T11:04:31.066Z</time>
      </trkpt>
      <trkpt lat="43.18892" lon="2.99168">
        <ele>52.337725</ele>
        <time>2023-01-07T11:04:34.068Z</time>
      </trkpt>
      <trkpt lat="43.18899" lon="2.9918">
        <ele>52.277089</ele>
        <time>2023-01-07T11:04:37.059Z</time>
      </trkpt>
      <trkpt lat="43.18902" lon="2.99193">
        <ele>52.222273</ele>
        <time>2023-01-07T11:04:40.061Z</time>
      </trkpt>
      <trkpt lat="43.18902" lon="2.99207">
        <ele>52.169441</ele>
        <time>2023-01-07T11:04:43.064Z</time>
      </trkpt>
      <trkpt lat="43.18903" lon="2.9922">
        <ele>52.176075</ele>
        <time>2023-01-07T11:04:46.071Z</time>
      </trkpt>
      <trkpt lat="43.18903" lon="2.99233">
        <ele>52.214181</ele>
        <time>2023-01-07T11:04:49.061Z</time>
      </trkpt>
      <trkpt lat="43.18899" lon="2.99245">
        <ele>52.253365</ele>
        <time>2023-01-07T11:04:52.063Z</time>
      </trkpt>
      <trkpt lat="43.18893" lon="2.99257">
        <ele>52.296971</ele>
        <time>2023-01-07T11:04:55.069Z</time>
      </trkpt>
      <trkpt lat="43.18886" lon="2.99267">
        <ele>52.337539</ele>
        <time>2023-01-07T11:04:58.064Z</time>
      </trkpt>
      <trkpt lat="43.1888" lon="2.99279">
        <ele>52.383564</ele>
        <time>2023-01-07T11:05:02.072Z</time>
      </trkpt>
      <trkpt lat="43.18876" lon="2.99294">
        <ele>52.430335</ele>
        <time>2023-01-07T11:05:06.066Z</time>
      </trkpt>
      <trkpt lat="43.18878" lon="2.99308">
        <ele>52.473062</ele>
        <time>2023-01-07T11:05:10.063Z</time>
      </trkpt>
      <trkpt lat="43.18886" lon="2.99316">
        <ele>52.513513</ele>
        <time>2023-01-07T11:05:13.078Z</time>
      </trkpt>
      <trkpt lat="43.18893" lon="2.99324">
        <ele>52.552361</ele>
        <time>2023-01-07T11:05:16.070Z</time>
      </trkpt>
      <trkpt lat="43.18901" lon="2.99331">
        <ele>52.591365</ele>
        <time>2023-01-07T11:05:19.074Z</time>
      </trkpt>
      <trkpt lat="43.18909" lon="2.99341">
        <ele>52.636786</ele>
        <time>2023-01-07T11:05:23.066Z</time>
      </trkpt>
      <trkpt lat="43.18918" lon="2.99354">
        <ele>52.687246</ele>
        <time>2023-01-07T11:05:27.065Z</time>
      </trkpt>
      <trkpt lat="43.18922" lon="2.99369">
        <ele>52.73658</ele>
        <time>2023-01-07T11:05:31.072Z</time>
      </trkpt>
      <trkpt lat="43.1892" lon="2.99382">
        <ele>52.775661</ele>
        <time>2023-01-07T11:05:35.061Z</time>
      </trkpt>
      <trkpt lat="43.18915" lon="2.99396">
        <ele>52.823572</ele>
        <time>2023-01-07T11:05:39.064Z</time>
      </trkpt>
      <trkpt lat="43.18912" lon="2.99408">
        <ele>52.861312</ele>
        <time>2023-01-07T11:05:42.057Z</time>
      </trkpt>
      <trkpt lat="43.1891" lon="2.9942">
        <ele>52.905394</ele>
        <time>2023-01-07T11:05:45.059Z</time>
      </trkpt>
      <trkpt lat="43.18907" lon="2.99434">
        <ele>52.975458</ele>
        <time>2023-01-07T11:05:48.063Z</time>
      </trkpt>
      <trkpt lat="43.18903" lon="2.99446">
        <ele>53.045532</ele>
        <time>2023-01-07T11:05:51.071Z</time>
      </trkpt>
      <trkpt lat="43.18897" lon="2.99458">
        <ele>53.118158</ele>
        <time>2023-01-07T11:05:55.065Z</time>
      </trkpt>
      <trkpt lat="43.18893" lon="2.99471">
        <ele>53.187221</ele>
        <time>2023-01-07T11:05:58.074Z</time>
      </trkpt>
      <trkpt lat="43.18889" lon="2.99484">
        <ele>53.256062</ele>
        <time>2023-01-07T11:06:01.065Z</time>
      </trkpt>
      <trkpt lat="43.18885" lon="2.99497">
        <ele>53.32772</ele>
        <time>2023-01-07T11:06:04.075Z</time>
      </trkpt>
      <trkpt lat="43.18883" lon="2.9951">
        <ele>53.395175</ele>
        <time>2023-01-07T11:06:07.078Z</time>
      </trkpt>
      <trkpt lat="43.1888" lon="2.99523">
        <ele>53.461685</ele>
        <time>2023-01-07T11:06:10.065Z</time>
      </trkpt>
      <trkpt lat="43.18878" lon="2.99535">
        <ele>53.525127</ele>
        <time>2023-01-07T11:06:18.083Z</time>
      </trkpt>
      <trkpt lat="43.18874" lon="2.9955">
        <ele>53.604399</ele>
        <time>2023-01-07T11:08:05.105Z</time>
      </trkpt>
      <trkpt lat="43.18869" lon="2.99564">
        <ele>53.682221</ele>
        <time>2023-01-07T11:08:10.062Z</time>
      </trkpt>
      <trkpt lat="43.18864" lon="2.99577">
        <ele>53.758961</ele>
        <time>2023-01-07T11:08:14.068Z</time>
      </trkpt>
      <trkpt lat="43.18859" lon="2.99588">
        <ele>53.822033</ele>
        <time>2023-01-07T11:08:17.067Z</time>
      </trkpt>
      <trkpt lat="43.18854" lon="2.99599">
        <ele>53.888293</ele>
        <time>2023-01-07T11:08:20.071Z</time>
      </trkpt>
      <trkpt lat="43.1885" lon="2.9961">
        <ele>53.951489</ele>
        <time>2023-01-07T11:08:23.072Z</time>
      </trkpt>
      <trkpt lat="43.18844" lon="2.99624">
        <ele>54.028823</ele>
        <time>2023-01-07T11:08:27.071Z</time>
      </trkpt>
      <trkpt lat="43.1884" lon="2.99635">
        <ele>54.094867</ele>
        <time>2023-01-07T11:08:31.080Z</time>
      </trkpt>
      <trkpt lat="43.18832" lon="2.99642">
        <ele>54.105283</ele>
        <time>2023-01-07T11:08:35.063Z</time>
      </trkpt>
      <trkpt lat="43.18823" lon="2.99643">
        <ele>54.064606</ele>
        <time>2023-01-07T11:08:38.066Z</time>
      </trkpt>
      <trkpt lat="43.18813" lon="2.99645">
        <ele>54.021462</ele>
        <time>2023-01-07T11:08:41.065Z</time>
      </trkpt>
      <trkpt lat="43.18804" lon="2.99648">
        <ele>53.978543</ele>
        <time>2023-01-07T11:08:44.076Z</time>
      </trkpt>
      <trkpt lat="43.18793" lon="2.99652">
        <ele>53.925935</ele>
        <time>2023-01-07T11:08:48.064Z</time>
      </trkpt>
      <trkpt lat="43.18782" lon="2.99657">
        <ele>53.877644</ele>
        <time>2023-01-07T11:08:52.072Z</time>
      </trkpt>
      <trkpt lat="43.18774" lon="2.99663">
        <ele>53.836147</ele>
        <time>2023-01-07T11:08:55.079Z</time>
      </trkpt>
      <trkpt lat="43.18766" lon="2.99669">
        <ele>53.792504</ele>
        <time>2023-01-07T11:08:58.076Z</time>
      </trkpt>
      <trkpt lat="43.18757" lon="2.99674">
        <ele>53.750169</ele>
        <time>2023-01-07T11:09:01.066Z</time>
      </trkpt>
      <trkpt lat="43.18749" lon="2.99681">
        <ele>53.707788</ele>
        <time>2023-01-07T11:09:04.081Z</time>
      </trkpt>
      <trkpt lat="43.18742" lon="2.99688">
        <ele>53.666709</ele>
        <time>2023-01-07T11:09:07.072Z</time>
      </trkpt>
      <trkpt lat="43.18734" lon="2.99696">
        <ele>53.623826</ele>
        <time>2023-01-07T11:09:10.060Z</time>
      </trkpt>
      <trkpt lat="43.18726" lon="2.99705">
        <ele>53.578713</ele>
        <time>2023-01-07T11:09:13.063Z</time>
      </trkpt>
      <trkpt lat="43.18718" lon="2.99713">
        <ele>53.532939</ele>
        <time>2023-01-07T11:09:16.058Z</time>
      </trkpt>
      <trkpt lat="43.18711" lon="2.99721">
        <ele>53.491519</ele>
        <time>2023-01-07T11:09:19.066Z</time>
      </trkpt>
      <trkpt lat="43.18703" lon="2.99731">
        <ele>53.442505</ele>
        <time>2023-01-07T11:09:22.062Z</time>
      </trkpt>
      <trkpt lat="43.18693" lon="2.99741">
        <ele>53.388041</ele>
        <time>2023-01-07T11:09:25.071Z</time>
      </trkpt>
      <trkpt lat="43.18684" lon="2.99749">
        <ele>53.338966</ele>
        <time>2023-01-07T11:09:28.074Z</time>
      </trkpt>
      <trkpt lat="43.18676" lon="2.99759">
        <ele>53.290869</ele>
        <time>2023-01-07T11:09:31.066Z</time>
      </trkpt>
      <trkpt lat="43.18667" lon="2.99769">
        <ele>53.243201</ele>
        <time>2023-01-07T11:09:34.070Z</time>
      </trkpt>
      <trkpt lat="43.18658" lon="2.99778">
        <ele>53.196537</ele>
        <time>2023-01-07T11:09:37.067Z</time>
      </trkpt>
      <trkpt lat="43.18649" lon="2.99788">
        <ele>53.148559</ele>
        <time>2023-01-07T11:09:40.070Z</time>
      </trkpt>
      <trkpt lat="43.18639" lon="2.99797">
        <ele>53.098455</ele>
        <time>2023-01-07T11:09:43.065Z</time>
      </trkpt>
      <trkpt lat="43.18631" lon="2.99806">
        <ele>53.053322</ele>
        <time>2023-01-07T11:09:46.064Z</time>
      </trkpt>
      <trkpt lat="43.18623" lon="2.99815">
        <ele>53.011476</ele>
        <time>2023-01-07T11:09:49.079Z</time>
      </trkpt>
      <trkpt lat="43.18615" lon="2.99824">
        <ele>52.968144</ele>
        <time>2023-01-07T11:09:52.073Z</time>
      </trkpt>
      <trkpt lat="43.18606" lon="2.99833">
        <ele>52.923346</ele>
        <time>2023-01-07T11:09:55.061Z</time>
      </trkpt>
      <trkpt lat="43.18599" lon="2.99841">
        <ele>52.883627</ele>
        <time>2023-01-07T11:09:58.081Z</time>
      </trkpt>
      <trkpt lat="43.1859" lon="2.9985">
        <ele>52.83658</ele>
        <time>2023-01-07T11:10:02.060Z</time>
      </trkpt>
      <trkpt lat="43.18581" lon="2.99858">
        <ele>52.791777</ele>
        <time>2023-01-07T11:10:06.079Z</time>
      </trkpt>
      <trkpt lat="43.18573" lon="2.99865">
        <ele>52.753203</ele>
        <time>2023-01-07T11:10:09.062Z</time>
      </trkpt>
      <trkpt lat="43.18565" lon="2.99873">
        <ele>52.712356</ele>
        <time>2023-01-07T11:10:12.062Z</time>
      </trkpt>
      <trkpt lat="43.18557" lon="2.99884">
        <ele>52.663772</ele>
        <time>2023-01-07T11:10:16.069Z</time>
      </trkpt>
      <trkpt lat="43.1855" lon="2.99896">
        <ele>52.617986</ele>
        <time>2023-01-07T11:10:20.057Z</time>
      </trkpt>
      <trkpt lat="43.18542" lon="2.99907">
        <ele>52.572141</ele>
        <time>2023-01-07T11:10:24.062Z</time>
      </trkpt>
      <trkpt lat="43.18534" lon="2.99916">
        <ele>52.64737</ele>
        <time>2023-01-07T11:10:28.064Z</time>
      </trkpt>
      <trkpt lat="43.18524" lon="2.99923">
        <ele>52.753632</ele>
        <time>2023-01-07T11:10:32.075Z</time>
      </trkpt>
      <trkpt lat="43.18516" lon="2.99929">
        <ele>52.841734</ele>
        <time>2023-01-07T11:10:36.067Z</time>
      </trkpt>
      <trkpt lat="43.18507" lon="2.99935">
        <ele>52.934321</ele>
        <time>2023-01-07T11:10:40.081Z</time>
      </trkpt>
      <trkpt lat="43.18499" lon="2.99942">
        <ele>53.026541</ele>
        <time>2023-01-07T11:10:45.064Z</time>
      </trkpt>
      <trkpt lat="43.18492" lon="2.99951">
        <ele>53.112244</ele>
        <time>2023-01-07T11:10:54.073Z</time>
      </trkpt>
      <trkpt lat="43.18485" lon="2.99959">
        <ele>53.201285</ele>
        <time>2023-01-07T11:11:04.060Z</time>
      </trkpt>
      <trkpt lat="43.18478" lon="2.9997">
        <ele>53.297557</ele>
        <time>2023-01-07T11:11:08.066Z</time>
      </trkpt>
      <trkpt lat="43.18473" lon="2.9998">
        <ele>53.388314</ele>
        <time>2023-01-07T11:11:11.066Z</time>
      </trkpt>
      <trkpt lat="43.1847" lon="2.99993">
        <ele>53.480204</ele>
        <time>2023-01-07T11:11:14.059Z</time>
      </trkpt>
      <trkpt lat="43.18471" lon="3.00006">
        <ele>53.568823</ele>
        <time>2023-01-07T11:11:17.061Z</time>
      </trkpt>
      <trkpt lat="43.18476" lon="3.00017">
        <ele>53.655838</ele>
        <time>2023-01-07T11:11:20.064Z</time>
      </trkpt>
      <trkpt lat="43.18483" lon="3.00026">
        <ele>53.748132</ele>
        <time>2023-01-07T11:11:23.065Z</time>
      </trkpt>
      <trkpt lat="43.1849" lon="3.00036">
        <ele>53.842904</ele>
        <time>2023-01-07T11:11:26.065Z</time>
      </trkpt>
      <trkpt lat="43.18498" lon="3.00046">
        <ele>53.940858</ele>
        <time>2023-01-07T11:11:29.060Z</time>
      </trkpt>
      <trkpt lat="43.18505" lon="3.00055">
        <ele>54.032575</ele>
        <time>2023-01-07T11:11:32.067Z</time>
      </trkpt>
      <trkpt lat="43.18513" lon="3.00064">
        <ele>54.12892</ele>
        <time>2023-01-07T11:11:35.066Z</time>
      </trkpt>
      <trkpt lat="43.1852" lon="3.00076">
        <ele>54.230743</ele>
        <time>2023-01-07T11:11:38.074Z</time>
      </trkpt>
      <trkpt lat="43.18528" lon="3.00087">
        <ele>54.334005</ele>
        <time>2023-01-07T11:11:41.063Z</time>
      </trkpt>
      <trkpt lat="43.18535" lon="3.00097">
        <ele>54.427168</ele>
        <time>2023-01-07T11:11:44.066Z</time>
      </trkpt>
      <trkpt lat="43.18544" lon="3.0011">
        <ele>54.538906</ele>
        <time>2023-01-07T11:11:47.075Z</time>
      </trkpt>
      <trkpt lat="43.18552" lon="3.00122">
        <ele>54.648776</ele>
        <time>2023-01-07T11:11:50.062Z</time>
      </trkpt>
      <trkpt lat="43.1856" lon="3.00133">
        <ele>54.748673</ele>
        <time>2023-01-07T11:11:53.071Z</time>
      </trkpt>
      <trkpt lat="43.18568" lon="3.00145">
        <ele>54.852873</ele>
        <time>2023-01-07T11:11:56.069Z</time>
      </trkpt>
      <trkpt lat="43.18577" lon="3.00153">
        <ele>54.946623</ele>
        <time>2023-01-07T11:11:59.065Z</time>
      </trkpt>
      <trkpt lat="43.18586" lon="3.00162">
        <ele>55.044027</ele>
        <time>2023-01-07T11:12:02.066Z</time>
      </trkpt>
      <trkpt lat="43.18594" lon="3.00173">
        <ele>55.14801</ele>
        <time>2023-01-07T11:12:05.069Z</time>
      </trkpt>
      <trkpt lat="43.18603" lon="3.00185">
        <ele>55.26101</ele>
        <time>2023-01-07T11:12:08.064Z</time>
      </trkpt>
      <trkpt lat="43.18614" lon="3.00196">
        <ele>55.376932</ele>
        <time>2023-01-07T11:12:11.061Z</time>
      </trkpt>
      <trkpt lat="43.18622" lon="3.00207">
        <ele>55.480511</ele>
        <time>2023-01-07T11:12:14.070Z</time>
      </trkpt>
      <trkpt lat="43.18629" lon="3.00218">
        <ele>55.575042</ele>
        <time>2023-01-07T11:12:17.069Z</time>
      </trkpt>
      <trkpt lat="43.18638" lon="3.00228">
        <ele>55.673647</ele>
        <time>2023-01-07T11:12:20.078Z</time>
      </trkpt>
      <trkpt lat="43.18645" lon="3.0024">
        <ele>55.776072</ele>
        <time>2023-01-07T11:12:23.063Z</time>
      </trkpt>
      <trkpt lat="43.18653" lon="3.00251">
        <ele>55.882772</ele>
        <time>2023-01-07T11:12:26.071Z</time>
      </trkpt>
      <trkpt lat="43.18661" lon="3.00262">
        <ele>56.016467</ele>
        <time>2023-01-07T11:12:29.083Z</time>
      </trkpt>
      <trkpt lat="43.18668" lon="3.00273">
        <ele>56.131118</ele>
        <time>2023-01-07T11:12:32.068Z</time>
      </trkpt>
      <trkpt lat="43.18676" lon="3.00281">
        <ele>56.249974</ele>
        <time>2023-01-07T11:12:37.064Z</time>
      </trkpt>
      <trkpt lat="43.18689" lon="3.0029">
        <ele>56.406601</ele>
        <time>2023-01-07T11:13:34.111Z</time>
      </trkpt>
      <trkpt lat="43.18695" lon="3.00299">
        <ele>56.508413</ele>
        <time>2023-01-07T11:13:37.071Z</time>
      </trkpt>
      <trkpt lat="43.18703" lon="3.00307">
        <ele>56.617669</ele>
        <time>2023-01-07T11:13:40.073Z</time>
      </trkpt>
      <trkpt lat="43.18711" lon="3.00316">
        <ele>56.739321</ele>
        <time>2023-01-07T11:13:43.071Z</time>
      </trkpt>
      <trkpt lat="43.18721" lon="3.00325">
        <ele>56.867922</ele>
        <time>2023-01-07T11:13:46.071Z</time>
      </trkpt>
      <trkpt lat="43.18731" lon="3.00334">
        <ele>57.00304</ele>
        <time>2023-01-07T11:13:49.066Z</time>
      </trkpt>
      <trkpt lat="43.18741" lon="3.00343">
        <ele>57.143818</ele>
        <time>2023-01-07T11:13:52.081Z</time>
      </trkpt>
      <trkpt lat="43.1875" lon="3.00353">
        <ele>57.276604</ele>
        <time>2023-01-07T11:13:55.079Z</time>
      </trkpt>
      <trkpt lat="43.18757" lon="3.00362">
        <ele>57.383405</ele>
        <time>2023-01-07T11:13:58.071Z</time>
      </trkpt>
      <trkpt lat="43.18765" lon="3.00371">
        <ele>57.498754</ele>
        <time>2023-01-07T11:14:01.061Z</time>
      </trkpt>
      <trkpt lat="43.18772" lon="3.00379">
        <ele>57.604114</ele>
        <time>2023-01-07T11:14:04.065Z</time>
      </trkpt>
      <trkpt lat="43.18782" lon="3.00388">
        <ele>57.737386</ele>
        <time>2023-01-07T11:14:07.068Z</time>
      </trkpt>
      <trkpt lat="43.18793" lon="3.00398">
        <ele>57.879813</ele>
        <time>2023-01-07T11:14:10.072Z</time>
      </trkpt>
      <trkpt lat="43.18804" lon="3.00408">
        <ele>57.735815</ele>
        <time>2023-01-07T11:14:13.081Z</time>
      </trkpt>
      <trkpt lat="43.18814" lon="3.00417">
        <ele>57.595005</ele>
        <time>2023-01-07T11:14:16.068Z</time>
      </trkpt>
      <trkpt lat="43.18824" lon="3.00427">
        <ele>57.456469</ele>
        <time>2023-01-07T11:14:19.074Z</time>
      </trkpt>
      <trkpt lat="43.18833" lon="3.00436">
        <ele>57.327797</ele>
        <time>2023-01-07T11:14:22.084Z</time>
      </trkpt>
      <trkpt lat="43.18843" lon="3.00444">
        <ele>57.199455</ele>
        <time>2023-01-07T11:14:25.073Z</time>
      </trkpt>
      <trkpt lat="43.18852" lon="3.00453">
        <ele>57.074095</ele>
        <time>2023-01-07T11:14:28.059Z</time>
      </trkpt>
      <trkpt lat="43.1886" lon="3.0046">
        <ele>56.969237</ele>
        <time>2023-01-07T11:14:31.081Z</time>
      </trkpt>
      <trkpt lat="43.18867" lon="3.00468">
        <ele>56.861057</ele>
        <time>2023-01-07T11:14:38.075Z</time>
      </trkpt>
      <trkpt lat="43.18874" lon="3.00479">
        <ele>56.741755</ele>
        <time>2023-01-07T11:14:47.074Z</time>
      </trkpt>
      <trkpt lat="43.18882" lon="3.00489">
        <ele>56.617127</ele>
        <time>2023-01-07T11:14:51.059Z</time>
      </trkpt>
      <trkpt lat="43.18891" lon="3.00496">
        <ele>56.509678</ele>
        <time>2023-01-07T11:14:54.063Z</time>
      </trkpt>
      <trkpt lat="43.189" lon="3.00505">
        <ele>56.38149</ele>
        <time>2023-01-07T11:14:57.064Z</time>
      </trkpt>
      <trkpt lat="43.18909" lon="3.00513">
        <ele>56.257329</ele>
        <time>2023-01-07T11:15:00.065Z</time>
      </trkpt>
      <trkpt lat="43.18917" lon="3.0052">
        <ele>56.148176</ele>
        <time>2023-01-07T11:15:03.061Z</time>
      </trkpt>
      <trkpt lat="43.18925" lon="3.00527">
        <ele>56.040489</ele>
        <time>2023-01-07T11:15:08.068Z</time>
      </trkpt>
      <trkpt lat="43.18939" lon="3.00542">
        <ele>55.855138</ele>
        <time>2023-01-07T11:15:52.073Z</time>
      </trkpt>
      <trkpt lat="43.18948" lon="3.0055">
        <ele>55.896937</ele>
        <time>2023-01-07T11:15:55.075Z</time>
      </trkpt>
      <trkpt lat="43.18957" lon="3.00558">
        <ele>55.943774</ele>
        <time>2023-01-07T11:15:58.071Z</time>
      </trkpt>
      <trkpt lat="43.18965" lon="3.00565">
        <ele>55.981428</ele>
        <time>2023-01-07T11:16:00.069Z</time>
      </trkpt>
      <trkpt lat="43.18975" lon="3.00578">
        <ele>56.035139</ele>
        <time>2023-01-07T11:16:03.066Z</time>
      </trkpt>
      <trkpt lat="43.18985" lon="3.00587">
        <ele>56.08348</ele>
        <time>2023-01-07T11:16:06.065Z</time>
      </trkpt>
      <trkpt lat="43.18994" lon="3.00595">
        <ele>56.129149</ele>
        <time>2023-01-07T11:16:09.070Z</time>
      </trkpt>
      <trkpt lat="43.19002" lon="3.00603">
        <ele>56.168428</ele>
        <time>2023-01-07T11:16:12.062Z</time>
      </trkpt>
      <trkpt lat="43.1901" lon="3.0061">
        <ele>56.20654</ele>
        <time>2023-01-07T11:16:17.075Z</time>
      </trkpt>
      <trkpt lat="43.19024" lon="3.00621">
        <ele>56.274594</ele>
        <time>2023-01-07T11:17:05.062Z</time>
      </trkpt>
      <trkpt lat="43.19033" lon="3.00629">
        <ele>56.319082</ele>
        <time>2023-01-07T11:17:08.071Z</time>
      </trkpt>
      <trkpt lat="43.19043" lon="3.00638">
        <ele>56.367256</ele>
        <time>2023-01-07T11:17:11.069Z</time>
      </trkpt>
      <trkpt lat="43.19054" lon="3.00648">
        <ele>56.419466</ele>
        <time>2023-01-07T11:17:14.078Z</time>
      </trkpt>
      <trkpt lat="43.19061" lon="3.00657">
        <ele>56.457943</ele>
        <time>2023-01-07T11:17:17.073Z</time>
      </trkpt>
      <trkpt lat="43.19069" lon="3.00664">
        <ele>56.497556</ele>
        <time>2023-01-07T11:17:20.082Z</time>
      </trkpt>
      <trkpt lat="43.19079" lon="3.00673">
        <ele>56.546407</ele>
        <time>2023-01-07T11:17:23.078Z</time>
      </trkpt>
      <trkpt lat="43.19089" lon="3.00683">
        <ele>56.51379</ele>
        <time>2023-01-07T11:17:26.080Z</time>
      </trkpt>
      <trkpt lat="43.19098" lon="3.00692">
        <ele>56.267845</ele>
        <time>2023-01-07T11:17:29.073Z</time>
      </trkpt>
      <trkpt lat="43.19108" lon="3.00701">
        <ele>56.019255</ele>
        <time>2023-01-07T11:17:32.070Z</time>
      </trkpt>
      <trkpt lat="43.19118" lon="3.00711">
        <ele>55.746002</ele>
        <time>2023-01-07T11:17:35.063Z</time>
      </trkpt>
      <trkpt lat="43.19129" lon="3.00721">
        <ele>55.471859</ele>
        <time>2023-01-07T11:17:38.073Z</time>
      </trkpt>
      <trkpt lat="43.19136" lon="3.00729">
        <ele>55.279535</ele>
        <time>2023-01-07T11:17:40.073Z</time>
      </trkpt>
      <trkpt lat="43.19145" lon="3.00737">
        <ele>55.058234</ele>
        <time>2023-01-07T11:17:42.063Z</time>
      </trkpt>
      <trkpt lat="43.19155" lon="3.00749">
        <ele>54.772357</ele>
        <time>2023-01-07T11:17:45.072Z</time>
      </trkpt>
      <trkpt lat="43.19166" lon="3.0076">
        <ele>54.476985</ele>
        <time>2023-01-07T11:17:48.060Z</time>
      </trkpt>
      <trkpt lat="43.19173" lon="3.00768">
        <ele>54.282405</ele>
        <time>2023-01-07T11:17:50.067Z</time>
      </trkpt>
      <trkpt lat="43.19181" lon="3.00778">
        <ele>54.040389</ele>
        <time>2023-01-07T11:17:53.063Z</time>
      </trkpt>
      <trkpt lat="43.1919" lon="3.00788">
        <ele>53.806989</ele>
        <time>2023-01-07T11:17:56.066Z</time>
      </trkpt>
      <trkpt lat="43.192" lon="3.00797">
        <ele>53.55754</ele>
        <time>2023-01-07T11:17:59.065Z</time>
      </trkpt>
      <trkpt lat="43.1921" lon="3.00807">
        <ele>53.281596</ele>
        <time>2023-01-07T11:18:02.069Z</time>
      </trkpt>
      <trkpt lat="43.1922" lon="3.00817">
        <ele>53.016134</ele>
        <time>2023-01-07T11:18:05.078Z</time>
      </trkpt>
      <trkpt lat="43.19231" lon="3.00827">
        <ele>52.747251</ele>
        <time>2023-01-07T11:18:08.071Z</time>
      </trkpt>
      <trkpt lat="43.1924" lon="3.00835">
        <ele>52.734645</ele>
        <time>2023-01-07T11:18:11.070Z</time>
      </trkpt>
      <trkpt lat="43.19249" lon="3.00843">
        <ele>52.730874</ele>
        <time>2023-01-07T11:18:14.067Z</time>
      </trkpt>
      <trkpt lat="43.19258" lon="3.0085">
        <ele>52.727278</ele>
        <time>2023-01-07T11:18:17.061Z</time>
      </trkpt>
      <trkpt lat="43.19266" lon="3.00857">
        <ele>52.723784</ele>
        <time>2023-01-07T11:18:20.078Z</time>
      </trkpt>
      <trkpt lat="43.19275" lon="3.00865">
        <ele>52.720177</ele>
        <time>2023-01-07T11:18:24.087Z</time>
      </trkpt>
      <trkpt lat="43.19283" lon="3.00874">
        <ele>52.716524</ele>
        <time>2023-01-07T11:18:27.062Z</time>
      </trkpt>
      <trkpt lat="43.19292" lon="3.00883">
        <ele>52.712667</ele>
        <time>2023-01-07T11:18:30.066Z</time>
      </trkpt>
      <trkpt lat="43.19302" lon="3.00893">
        <ele>52.708222</ele>
        <time>2023-01-07T11:18:33.067Z</time>
      </trkpt>
      <trkpt lat="43.19314" lon="3.00902">
        <ele>52.703593</ele>
        <time>2023-01-07T11:18:36.066Z</time>
      </trkpt>
      <trkpt lat="43.19325" lon="3.00912">
        <ele>52.699074</ele>
        <time>2023-01-07T11:18:39.079Z</time>
      </trkpt>
      <trkpt lat="43.19334" lon="3.00921">
        <ele>52.694918</ele>
        <time>2023-01-07T11:18:42.067Z</time>
      </trkpt>
      <trkpt lat="43.19344" lon="3.00929">
        <ele>52.691036</ele>
        <time>2023-01-07T11:18:45.064Z</time>
      </trkpt>
      <trkpt lat="43.19352" lon="3.00937">
        <ele>52.687558</ele>
        <time>2023-01-07T11:18:48.075Z</time>
      </trkpt>
      <trkpt lat="43.1936" lon="3.00946">
        <ele>52.684056</ele>
        <time>2023-01-07T11:18:51.063Z</time>
      </trkpt>
      <trkpt lat="43.1936" lon="3.00962">
        <ele>52.680017</ele>
        <time>2023-01-07T11:18:55.065Z</time>
      </trkpt>
      <trkpt lat="43.19362" lon="3.00977">
        <ele>52.676018</ele>
        <time>2023-01-07T11:18:59.065Z</time>
      </trkpt>
      <trkpt lat="43.19372" lon="3.00985">
        <ele>52.677377</ele>
        <time>2023-01-07T11:19:03.061Z</time>
      </trkpt>
      <trkpt lat="43.19381" lon="3.00982">
        <ele>52.679109</ele>
        <time>2023-01-07T11:19:06.070Z</time>
      </trkpt>
      <trkpt lat="43.19392" lon="3.00981">
        <ele>52.681083</ele>
        <time>2023-01-07T11:19:10.065Z</time>
      </trkpt>
      <trkpt lat="43.19401" lon="3.00987">
        <ele>52.683023</ele>
        <time>2023-01-07T11:19:13.068Z</time>
      </trkpt>
      <trkpt lat="43.19412" lon="3.00998">
        <ele>52.685402</ele>
        <time>2023-01-07T11:19:16.083Z</time>
      </trkpt>
      <trkpt lat="43.19422" lon="3.01008">
        <ele>52.687743</ele>
        <time>2023-01-07T11:19:19.083Z</time>
      </trkpt>
      <trkpt lat="43.19432" lon="3.01017">
        <ele>52.690016</ele>
        <time>2023-01-07T11:19:22.070Z</time>
      </trkpt>
      <trkpt lat="43.19442" lon="3.01026">
        <ele>52.692263</ele>
        <time>2023-01-07T11:19:25.075Z</time>
      </trkpt>
      <trkpt lat="43.19451" lon="3.01036">
        <ele>52.694274</ele>
        <time>2023-01-07T11:19:28.073Z</time>
      </trkpt>
      <trkpt lat="43.1946" lon="3.01044">
        <ele>52.696352</ele>
        <time>2023-01-07T11:19:31.062Z</time>
      </trkpt>
      <trkpt lat="43.19468" lon="3.01054">
        <ele>52.698432</ele>
        <time>2023-01-07T11:19:34.072Z</time>
      </trkpt>
      <trkpt lat="43.19478" lon="3.01064">
        <ele>52.700669</ele>
        <time>2023-01-07T11:19:37.076Z</time>
      </trkpt>
      <trkpt lat="43.19487" lon="3.01075">
        <ele>52.702881</ele>
        <time>2023-01-07T11:19:40.078Z</time>
      </trkpt>
      <trkpt lat="43.19496" lon="3.01085">
        <ele>52.705067</ele>
        <time>2023-01-07T11:19:43.082Z</time>
      </trkpt>
      <trkpt lat="43.19504" lon="3.01096">
        <ele>52.70714</ele>
        <time>2023-01-07T11:19:46.076Z</time>
      </trkpt>
      <trkpt lat="43.19513" lon="3.01107">
        <ele>52.742298</ele>
        <time>2023-01-07T11:19:49.076Z</time>
      </trkpt>
      <trkpt lat="43.19521" lon="3.01118">
        <ele>52.900631</ele>
        <time>2023-01-07T11:19:52.078Z</time>
      </trkpt>
      <trkpt lat="43.19528" lon="3.01128">
        <ele>53.050981</ele>
        <time>2023-01-07T11:19:55.075Z</time>
      </trkpt>
      <trkpt lat="43.19536" lon="3.01138">
        <ele>53.210006</ele>
        <time>2023-01-07T11:19:58.076Z</time>
      </trkpt>
      <trkpt lat="43.19545" lon="3.01148">
        <ele>53.371068</ele>
        <time>2023-01-07T11:20:01.064Z</time>
      </trkpt>
      <trkpt lat="43.19552" lon="3.01157">
        <ele>53.509989</ele>
        <time>2023-01-07T11:20:04.075Z</time>
      </trkpt>
      <trkpt lat="43.1956" lon="3.01166">
        <ele>53.663062</ele>
        <time>2023-01-07T11:20:07.074Z</time>
      </trkpt>
      <trkpt lat="43.19569" lon="3.01176">
        <ele>53.82137</ele>
        <time>2023-01-07T11:20:10.082Z</time>
      </trkpt>
      <trkpt lat="43.19578" lon="3.01186">
        <ele>53.989868</ele>
        <time>2023-01-07T11:20:13.081Z</time>
      </trkpt>
      <trkpt lat="43.19588" lon="3.01197">
        <ele>54.166275</ele>
        <time>2023-01-07T11:20:16.064Z</time>
      </trkpt>
      <trkpt lat="43.19597" lon="3.01207">
        <ele>54.334531</ele>
        <time>2023-01-07T11:20:19.063Z</time>
      </trkpt>
      <trkpt lat="43.19606" lon="3.01218">
        <ele>54.506824</ele>
        <time>2023-01-07T11:20:22.072Z</time>
      </trkpt>
      <trkpt lat="43.19616" lon="3.01229">
        <ele>54.685471</ele>
        <time>2023-01-07T11:20:25.059Z</time>
      </trkpt>
      <trkpt lat="43.19623" lon="3.01239">
        <ele>54.836319</ele>
        <time>2023-01-07T11:20:28.062Z</time>
      </trkpt>
      <trkpt lat="43.19631" lon="3.01248">
        <ele>54.977361</ele>
        <time>2023-01-07T11:20:31.069Z</time>
      </trkpt>
      <trkpt lat="43.19639" lon="3.01257">
        <ele>55.127338</ele>
        <time>2023-01-07T11:20:34.073Z</time>
      </trkpt>
      <trkpt lat="43.19647" lon="3.01266">
        <ele>55.272995</ele>
        <time>2023-01-07T11:20:37.075Z</time>
      </trkpt>
      <trkpt lat="43.19656" lon="3.01276">
        <ele>55.082401</ele>
        <time>2023-01-07T11:20:40.074Z</time>
      </trkpt>
      <trkpt lat="43.19664" lon="3.01286">
        <ele>54.892994</ele>
        <time>2023-01-07T11:20:43.069Z</time>
      </trkpt>
      <trkpt lat="43.19673" lon="3.01296">
        <ele>54.70725</ele>
        <time>2023-01-07T11:20:46.076Z</time>
      </trkpt>
      <trkpt lat="43.1968" lon="3.01304">
        <ele>54.555092</ele>
        <time>2023-01-07T11:20:48.070Z</time>
      </trkpt>
      <trkpt lat="43.1969" lon="3.01316">
        <ele>54.336066</ele>
        <time>2023-01-07T11:20:51.083Z</time>
      </trkpt>
      <trkpt lat="43.19699" lon="3.01327">
        <ele>54.136694</ele>
        <time>2023-01-07T11:20:54.077Z</time>
      </trkpt>
      <trkpt lat="43.19708" lon="3.01337">
        <ele>53.944566</ele>
        <time>2023-01-07T11:20:57.087Z</time>
      </trkpt>
      <trkpt lat="43.19716" lon="3.01347">
        <ele>53.754226</ele>
        <time>2023-01-07T11:21:00.074Z</time>
      </trkpt>
      <trkpt lat="43.19724" lon="3.01357">
        <ele>53.570599</ele>
        <time>2023-01-07T11:21:03.077Z</time>
      </trkpt>
      <trkpt lat="43.19733" lon="3.01366">
        <ele>53.38565</ele>
        <time>2023-01-07T11:21:06.063Z</time>
      </trkpt>
      <trkpt lat="43.19742" lon="3.01376">
        <ele>53.190375</ele>
        <time>2023-01-07T11:21:09.073Z</time>
      </trkpt>
      <trkpt lat="43.19752" lon="3.01386">
        <ele>52.992597</ele>
        <time>2023-01-07T11:21:12.066Z</time>
      </trkpt>
      <trkpt lat="43.19761" lon="3.01395">
        <ele>52.799052</ele>
        <time>2023-01-07T11:21:15.067Z</time>
      </trkpt>
      <trkpt lat="43.19771" lon="3.01405">
        <ele>52.592385</ele>
        <time>2023-01-07T11:21:18.073Z</time>
      </trkpt>
      <trkpt lat="43.19779" lon="3.01411">
        <ele>52.440754</ele>
        <time>2023-01-07T11:21:20.064Z</time>
      </trkpt>
      <trkpt lat="43.19787" lon="3.01418">
        <ele>52.290617</ele>
        <time>2023-01-07T11:21:22.065Z</time>
      </trkpt>
      <trkpt lat="43.19795" lon="3.01425">
        <ele>52.215884</ele>
        <time>2023-01-07T11:21:24.061Z</time>
      </trkpt>
      <trkpt lat="43.19803" lon="3.01433">
        <ele>52.155536</ele>
        <time>2023-01-07T11:21:26.065Z</time>
      </trkpt>
      <trkpt lat="43.19814" lon="3.01442">
        <ele>52.078284</ele>
        <time>2023-01-07T11:21:29.076Z</time>
      </trkpt>
      <trkpt lat="43.19823" lon="3.01452">
        <ele>52.008544</ele>
        <time>2023-01-07T11:21:32.060Z</time>
      </trkpt>
      <trkpt lat="43.19832" lon="3.01461">
        <ele>51.940188</ele>
        <time>2023-01-07T11:21:35.063Z</time>
      </trkpt>
      <trkpt lat="43.19841" lon="3.01472">
        <ele>51.865498</ele>
        <time>2023-01-07T11:21:38.063Z</time>
      </trkpt>
      <trkpt lat="43.19851" lon="3.01482">
        <ele>51.791284</ele>
        <time>2023-01-07T11:21:41.070Z</time>
      </trkpt>
      <trkpt lat="43.19861" lon="3.01493">
        <ele>51.712126</ele>
        <time>2023-01-07T11:21:44.073Z</time>
      </trkpt>
      <trkpt lat="43.1987" lon="3.01504">
        <ele>51.635901</ele>
        <time>2023-01-07T11:21:47.076Z</time>
      </trkpt>
      <trkpt lat="43.19879" lon="3.01516">
        <ele>51.561053</ele>
        <time>2023-01-07T11:21:50.067Z</time>
      </trkpt>
      <trkpt lat="43.19888" lon="3.01528">
        <ele>51.483072</ele>
        <time>2023-01-07T11:21:53.072Z</time>
      </trkpt>
      <trkpt lat="43.19897" lon="3.01542">
        <ele>51.400233</ele>
        <time>2023-01-07T11:21:56.080Z</time>
      </trkpt>
      <trkpt lat="43.19904" lon="3.01551">
        <ele>51.342824</ele>
        <time>2023-01-07T11:21:58.080Z</time>
      </trkpt>
      <trkpt lat="43.19912" lon="3.01566">
        <ele>51.259355</ele>
        <time>2023-01-07T11:22:01.076Z</time>
      </trkpt>
      <trkpt lat="43.19919" lon="3.01581">
        <ele>51.179764</ele>
        <time>2023-01-07T11:22:04.075Z</time>
      </trkpt>
      <trkpt lat="43.19925" lon="3.01595">
        <ele>51.235981</ele>
        <time>2023-01-07T11:22:07.065Z</time>
      </trkpt>
      <trkpt lat="43.1993" lon="3.01607">
        <ele>51.304947</ele>
        <time>2023-01-07T11:22:10.084Z</time>
      </trkpt>
      <trkpt lat="43.19934" lon="3.0162">
        <ele>51.377884</ele>
        <time>2023-01-07T11:22:14.078Z</time>
      </trkpt>
      <trkpt lat="43.19942" lon="3.01653">
        <ele>51.545556</ele>
        <time>2023-01-07T11:22:53.069Z</time>
      </trkpt>
      <trkpt lat="43.19944" lon="3.01667">
        <ele>51.619048</ele>
        <time>2023-01-07T11:22:56.075Z</time>
      </trkpt>
      <trkpt lat="43.19947" lon="3.01682">
        <ele>51.693952</ele>
        <time>2023-01-07T11:22:59.069Z</time>
      </trkpt>
      <trkpt lat="43.1995" lon="3.01698">
        <ele>51.771883</ele>
        <time>2023-01-07T11:23:02.070Z</time>
      </trkpt>
      <trkpt lat="43.19953" lon="3.01715">
        <ele>51.857306</ele>
        <time>2023-01-07T11:23:05.071Z</time>
      </trkpt>
      <trkpt lat="43.19955" lon="3.01731">
        <ele>51.938442</ele>
        <time>2023-01-07T11:23:08.067Z</time>
      </trkpt>
      <trkpt lat="43.19958" lon="3.01747">
        <ele>52.020538</ele>
        <time>2023-01-07T11:23:11.071Z</time>
      </trkpt>
      <trkpt lat="43.19961" lon="3.01764">
        <ele>52.106145</ele>
        <time>2023-01-07T11:23:14.064Z</time>
      </trkpt>
      <trkpt lat="43.19964" lon="3.01781">
        <ele>52.193797</ele>
        <time>2023-01-07T11:23:17.064Z</time>
      </trkpt>
      <trkpt lat="43.19968" lon="3.01798">
        <ele>52.283769</ele>
        <time>2023-01-07T11:23:20.062Z</time>
      </trkpt>
      <trkpt lat="43.19972" lon="3.0181">
        <ele>52.344793</ele>
        <time>2023-01-07T11:23:22.073Z</time>
      </trkpt>
      <trkpt lat="43.19977" lon="3.01827">
        <ele>52.356941</ele>
        <time>2023-01-07T11:23:25.064Z</time>
      </trkpt>
      <trkpt lat="43.19981" lon="3.01838">
        <ele>52.326473</ele>
        <time>2023-01-07T11:23:27.059Z</time>
      </trkpt>
      <trkpt lat="43.19985" lon="3.01849">
        <ele>52.295474</ele>
        <time>2023-01-07T11:23:29.066Z</time>
      </trkpt>
      <trkpt lat="43.1999" lon="3.01859">
        <ele>52.264768</ele>
        <time>2023-01-07T11:23:31.071Z</time>
      </trkpt>
      <trkpt lat="43.19996" lon="3.0187">
        <ele>52.233678</ele>
        <time>2023-01-07T11:23:33.061Z</time>
      </trkpt>
      <trkpt lat="43.20002" lon="3.01879">
        <ele>52.202333</ele>
        <time>2023-01-07T11:23:35.072Z</time>
      </trkpt>
      <trkpt lat="43.20008" lon="3.01889">
        <ele>52.171521</ele>
        <time>2023-01-07T11:23:37.072Z</time>
      </trkpt>
      <trkpt lat="43.20015" lon="3.01898">
        <ele>52.138984</ele>
        <time>2023-01-07T11:23:39.077Z</time>
      </trkpt>
      <trkpt lat="43.20021" lon="3.01907">
        <ele>52.107675</ele>
        <time>2023-01-07T11:23:41.072Z</time>
      </trkpt>
      <trkpt lat="43.2003" lon="3.01919">
        <ele>52.064819</ele>
        <time>2023-01-07T11:23:44.070Z</time>
      </trkpt>
      <trkpt lat="43.20039" lon="3.01931">
        <ele>52.021945</ele>
        <time>2023-01-07T11:23:47.083Z</time>
      </trkpt>
      <trkpt lat="43.20047" lon="3.01943">
        <ele>51.982446</ele>
        <time>2023-01-07T11:23:50.074Z</time>
      </trkpt>
      <trkpt lat="43.2005" lon="3.01958">
        <ele>51.943502</ele>
        <time>2023-01-07T11:23:53.083Z</time>
      </trkpt>
      <trkpt lat="43.20055" lon="3.01974">
        <ele>51.902064</ele>
        <time>2023-01-07T11:23:56.076Z</time>
      </trkpt>
      <trkpt lat="43.20064" lon="3.01986">
        <ele>51.858189</ele>
        <time>2023-01-07T11:23:59.070Z</time>
      </trkpt>
      <trkpt lat="43.20077" lon="3.01992">
        <ele>51.813209</ele>
        <time>2023-01-07T11:24:02.075Z</time>
      </trkpt>
      <trkpt lat="43.20091" lon="3.01991">
        <ele>51.794244</ele>
        <time>2023-01-07T11:24:05.071Z</time>
      </trkpt>
      <trkpt lat="43.20104" lon="3.01989">
        <ele>51.924816</ele>
        <time>2023-01-07T11:24:08.080Z</time>
      </trkpt>
      <trkpt lat="43.20113" lon="3.01989">
        <ele>52.015181</ele>
        <time>2023-01-07T11:24:10.067Z</time>
      </trkpt>
      <trkpt lat="43.20122" lon="3.01992">
        <ele>52.105349</ele>
        <time>2023-01-07T11:24:12.065Z</time>
      </trkpt>
      <trkpt lat="43.20131" lon="3.01995">
        <ele>52.194746</ele>
        <time>2023-01-07T11:24:14.064Z</time>
      </trkpt>
      <trkpt lat="43.2014" lon="3.01998">
        <ele>52.287282</ele>
        <time>2023-01-07T11:24:16.062Z</time>
      </trkpt>
      <trkpt lat="43.20153" lon="3.02001">
        <ele>52.41807</ele>
        <time>2023-01-07T11:24:19.066Z</time>
      </trkpt>
      <trkpt lat="43.20162" lon="3.02004">
        <ele>52.509345</ele>
        <time>2023-01-07T11:24:21.061Z</time>
      </trkpt>
      <trkpt lat="43.20172" lon="3.02007">
        <ele>52.604913</ele>
        <time>2023-01-07T11:24:23.072Z</time>
      </trkpt>
      <trkpt lat="43.20181" lon="3.0201">
        <ele>52.704171</ele>
        <time>2023-01-07T11:24:25.083Z</time>
      </trkpt>
      <trkpt lat="43.20191" lon="3.02013">
        <ele>52.803092</ele>
        <time>2023-01-07T11:24:27.069Z</time>
      </trkpt>
      <trkpt lat="43.20201" lon="3.02016">
        <ele>52.897701</ele>
        <time>2023-01-07T11:24:29.073Z</time>
      </trkpt>
      <trkpt lat="43.2021" lon="3.02019">
        <ele>52.99359</ele>
        <time>2023-01-07T11:24:31.065Z</time>
      </trkpt>
      <trkpt lat="43.2022" lon="3.02021">
        <ele>53.090506</ele>
        <time>2023-01-07T11:24:33.087Z</time>
      </trkpt>
      <trkpt lat="43.20229" lon="3.02024">
        <ele>53.187189</ele>
        <time>2023-01-07T11:24:35.084Z</time>
      </trkpt>
      <trkpt lat="43.20239" lon="3.02027">
        <ele>53.279017</ele>
        <time>2023-01-07T11:24:37.066Z</time>
      </trkpt>
      <trkpt lat="43.20248" lon="3.02029">
        <ele>53.372513</ele>
        <time>2023-01-07T11:24:39.079Z</time>
      </trkpt>
      <trkpt lat="43.20257" lon="3.02032">
        <ele>53.466674</ele>
        <time>2023-01-07T11:24:41.073Z</time>
      </trkpt>
      <trkpt lat="43.20267" lon="3.02034">
        <ele>53.540621</ele>
        <time>2023-01-07T11:24:43.073Z</time>
      </trkpt>
      <trkpt lat="43.20277" lon="3.02038">
        <ele>53.539772</ele>
        <time>2023-01-07T11:24:45.083Z</time>
      </trkpt>
      <trkpt lat="43.20286" lon="3.02042">
        <ele>53.538983</ele>
        <time>2023-01-07T11:24:47.082Z</time>
      </trkpt>
      <trkpt lat="43.20295" lon="3.02047">
        <ele>53.538195</ele>
        <time>2023-01-07T11:24:49.071Z</time>
      </trkpt>
      <trkpt lat="43.20304" lon="3.02051">
        <ele>53.537393</ele>
        <time>2023-01-07T11:24:51.082Z</time>
      </trkpt>
      <trkpt lat="43.20313" lon="3.02057">
        <ele>53.536597</ele>
        <time>2023-01-07T11:24:53.061Z</time>
      </trkpt>
      <trkpt lat="43.20323" lon="3.02063">
        <ele>53.535715</ele>
        <time>2023-01-07T11:24:55.066Z</time>
      </trkpt>
      <trkpt lat="43.20332" lon="3.0207">
        <ele>53.534861</ele>
        <time>2023-01-07T11:24:57.070Z</time>
      </trkpt>
      <trkpt lat="43.20341" lon="3.02078">
        <ele>53.534</ele>
        <time>2023-01-07T11:24:59.095Z</time>
      </trkpt>
      <trkpt lat="43.20349" lon="3.02085">
        <ele>53.533261</ele>
        <time>2023-01-07T11:25:01.068Z</time>
      </trkpt>
      <trkpt lat="43.20358" lon="3.02092">
        <ele>53.532417</ele>
        <time>2023-01-07T11:25:03.063Z</time>
      </trkpt>
      <trkpt lat="43.20366" lon="3.02099">
        <ele>53.531627</ele>
        <time>2023-01-07T11:25:05.070Z</time>
      </trkpt>
      <trkpt lat="43.20373" lon="3.02108">
        <ele>53.530813</ele>
        <time>2023-01-07T11:25:07.075Z</time>
      </trkpt>
      <trkpt lat="43.2038" lon="3.02116">
        <ele>53.530075</ele>
        <time>2023-01-07T11:25:09.083Z</time>
      </trkpt>
      <trkpt lat="43.20389" lon="3.02125">
        <ele>53.529214</ele>
        <time>2023-01-07T11:25:11.078Z</time>
      </trkpt>
      <trkpt lat="43.20399" lon="3.02137">
        <ele>53.528099</ele>
        <time>2023-01-07T11:25:14.078Z</time>
      </trkpt>
      <trkpt lat="43.20407" lon="3.02146">
        <ele>53.527264</ele>
        <time>2023-01-07T11:25:16.071Z</time>
      </trkpt>
      <trkpt lat="43.20415" lon="3.02154">
        <ele>53.526422</ele>
        <time>2023-01-07T11:25:18.081Z</time>
      </trkpt>
      <trkpt lat="43.20423" lon="3.02165">
        <ele>53.469315</ele>
        <time>2023-01-07T11:25:20.080Z</time>
      </trkpt>
      <trkpt lat="43.20431" lon="3.02173">
        <ele>53.390137</ele>
        <time>2023-01-07T11:25:22.065Z</time>
      </trkpt>
      <trkpt lat="43.20439" lon="3.02182">
        <ele>53.306179</ele>
        <time>2023-01-07T11:25:24.079Z</time>
      </trkpt>
      <trkpt lat="43.20446" lon="3.02191">
        <ele>53.226055</ele>
        <time>2023-01-07T11:25:26.076Z</time>
      </trkpt>
      <trkpt lat="43.20453" lon="3.02198">
        <ele>53.152515</ele>
        <time>2023-01-07T11:25:28.087Z</time>
      </trkpt>
      <trkpt lat="43.2046" lon="3.02207">
        <ele>53.078164</ele>
        <time>2023-01-07T11:25:30.079Z</time>
      </trkpt>
      <trkpt lat="43.20467" lon="3.02215">
        <ele>53.001346</ele>
        <time>2023-01-07T11:25:32.087Z</time>
      </trkpt>
      <trkpt lat="43.20474" lon="3.02223">
        <ele>52.926413</ele>
        <time>2023-01-07T11:25:34.067Z</time>
      </trkpt>
      <trkpt lat="43.20482" lon="3.02232">
        <ele>52.849596</ele>
        <time>2023-01-07T11:25:36.087Z</time>
      </trkpt>
      <trkpt lat="43.20492" lon="3.02244">
        <ele>52.740729</ele>
        <time>2023-01-07T11:25:39.072Z</time>
      </trkpt>
      <trkpt lat="43.20499" lon="3.02252">
        <ele>52.665199</ele>
        <time>2023-01-07T11:25:41.066Z</time>
      </trkpt>
      <trkpt lat="43.20506" lon="3.02261">
        <ele>52.585859</ele>
        <time>2023-01-07T11:25:43.068Z</time>
      </trkpt>
      <trkpt lat="43.20514" lon="3.0227">
        <ele>52.504129</ele>
        <time>2023-01-07T11:25:45.064Z</time>
      </trkpt>
      <trkpt lat="43.20522" lon="3.02278">
        <ele>52.424222</ele>
        <time>2023-01-07T11:25:47.081Z</time>
      </trkpt>
      <trkpt lat="43.20529" lon="3.02286">
        <ele>52.348261</ele>
        <time>2023-01-07T11:25:49.061Z</time>
      </trkpt>
      <trkpt lat="43.20536" lon="3.02295">
        <ele>52.269915</ele>
        <time>2023-01-07T11:25:51.070Z</time>
      </trkpt>
      <trkpt lat="43.20543" lon="3.02304">
        <ele>52.193586</ele>
        <time>2023-01-07T11:25:53.069Z</time>
      </trkpt>
      <trkpt lat="43.2055" lon="3.02313">
        <ele>52.113232</ele>
        <time>2023-01-07T11:25:55.076Z</time>
      </trkpt>
      <trkpt lat="43.20558" lon="3.02323">
        <ele>52.001722</ele>
        <time>2023-01-07T11:25:57.071Z</time>
      </trkpt>
      <trkpt lat="43.20568" lon="3.02336">
        <ele>51.825092</ele>
        <time>2023-01-07T11:26:00.087Z</time>
      </trkpt>
      <trkpt lat="43.20576" lon="3.02344">
        <ele>51.700031</ele>
        <time>2023-01-07T11:26:02.061Z</time>
      </trkpt>
      <trkpt lat="43.20583" lon="3.02352">
        <ele>51.576369</ele>
        <time>2023-01-07T11:26:04.068Z</time>
      </trkpt>
      <trkpt lat="43.2059" lon="3.02361">
        <ele>51.453941</ele>
        <time>2023-01-07T11:26:06.075Z</time>
      </trkpt>
      <trkpt lat="43.20598" lon="3.0237">
        <ele>51.329923</ele>
        <time>2023-01-07T11:26:08.071Z</time>
      </trkpt>
      <trkpt lat="43.20605" lon="3.02379">
        <ele>51.207211</ele>
        <time>2023-01-07T11:26:10.073Z</time>
      </trkpt>
      <trkpt lat="43.20612" lon="3.02387">
        <ele>51.087793</ele>
        <time>2023-01-07T11:26:12.072Z</time>
      </trkpt>
      <trkpt lat="43.20618" lon="3.02395">
        <ele>50.970473</ele>
        <time>2023-01-07T11:26:14.061Z</time>
      </trkpt>
      <trkpt lat="43.20626" lon="3.02404">
        <ele>50.84608</ele>
        <time>2023-01-07T11:26:16.077Z</time>
      </trkpt>
      <trkpt lat="43.20634" lon="3.02412">
        <ele>50.721588</ele>
        <time>2023-01-07T11:26:18.063Z</time>
      </trkpt>
      <trkpt lat="43.20641" lon="3.0242">
        <ele>50.600135</ele>
        <time>2023-01-07T11:26:20.059Z</time>
      </trkpt>
      <trkpt lat="43.20648" lon="3.02428">
        <ele>50.482709</ele>
        <time>2023-01-07T11:26:22.069Z</time>
      </trkpt>
      <trkpt lat="43.20654" lon="3.02437">
        <ele>50.365009</ele>
        <time>2023-01-07T11:26:24.065Z</time>
      </trkpt>
      <trkpt lat="43.20664" lon="3.0245">
        <ele>50.188103</ele>
        <time>2023-01-07T11:26:27.061Z</time>
      </trkpt>
      <trkpt lat="43.20672" lon="3.02458">
        <ele>50.061891</ele>
        <time>2023-01-07T11:26:29.078Z</time>
      </trkpt>
      <trkpt lat="43.2068" lon="3.02466">
        <ele>49.935907</ele>
        <time>2023-01-07T11:26:31.061Z</time>
      </trkpt>
      <trkpt lat="43.20687" lon="3.02474">
        <ele>49.819675</ele>
        <time>2023-01-07T11:26:33.072Z</time>
      </trkpt>
      <trkpt lat="43.20696" lon="3.02486">
        <ele>49.808097</ele>
        <time>2023-01-07T11:26:36.073Z</time>
      </trkpt>
      <trkpt lat="43.20705" lon="3.02498">
        <ele>49.911572</ele>
        <time>2023-01-07T11:26:39.069Z</time>
      </trkpt>
      <trkpt lat="43.20716" lon="3.0251">
        <ele>50.017853</ele>
        <time>2023-01-07T11:26:42.072Z</time>
      </trkpt>
      <trkpt lat="43.20723" lon="3.02519">
        <ele>50.092603</ele>
        <time>2023-01-07T11:26:44.067Z</time>
      </trkpt>
      <trkpt lat="43.2073" lon="3.02527">
        <ele>50.167939</ele>
        <time>2023-01-07T11:26:46.061Z</time>
      </trkpt>
      <trkpt lat="43.2074" lon="3.0254">
        <ele>50.271664</ele>
        <time>2023-01-07T11:26:49.065Z</time>
      </trkpt>
      <trkpt lat="43.20747" lon="3.02548">
        <ele>50.348813</ele>
        <time>2023-01-07T11:26:51.065Z</time>
      </trkpt>
      <trkpt lat="43.20757" lon="3.02561">
        <ele>50.455997</ele>
        <time>2023-01-07T11:26:54.070Z</time>
      </trkpt>
      <trkpt lat="43.20764" lon="3.02569">
        <ele>50.528414</ele>
        <time>2023-01-07T11:26:56.072Z</time>
      </trkpt>
      <trkpt lat="43.20771" lon="3.02578">
        <ele>50.604958</ele>
        <time>2023-01-07T11:26:58.071Z</time>
      </trkpt>
      <trkpt lat="43.20778" lon="3.02587">
        <ele>50.682268</ele>
        <time>2023-01-07T11:27:00.070Z</time>
      </trkpt>
      <trkpt lat="43.20786" lon="3.02596">
        <ele>50.763081</ele>
        <time>2023-01-07T11:27:02.070Z</time>
      </trkpt>
      <trkpt lat="43.20794" lon="3.02605">
        <ele>50.840837</ele>
        <time>2023-01-07T11:27:04.066Z</time>
      </trkpt>
      <trkpt lat="43.20804" lon="3.02617">
        <ele>50.947265</ele>
        <time>2023-01-07T11:27:07.061Z</time>
      </trkpt>
      <trkpt lat="43.20812" lon="3.02626">
        <ele>51.026861</ele>
        <time>2023-01-07T11:27:09.073Z</time>
      </trkpt>
      <trkpt lat="43.20819" lon="3.02635">
        <ele>51.103609</ele>
        <time>2023-01-07T11:27:11.076Z</time>
      </trkpt>
      <trkpt lat="43.20826" lon="3.02643">
        <ele>51.18376</ele>
        <time>2023-01-07T11:27:13.069Z</time>
      </trkpt>
      <trkpt lat="43.20833" lon="3.02651">
        <ele>51.304781</ele>
        <time>2023-01-07T11:27:15.064Z</time>
      </trkpt>
      <trkpt lat="43.20843" lon="3.02663">
        <ele>51.479347</ele>
        <time>2023-01-07T11:27:18.064Z</time>
      </trkpt>
      <trkpt lat="43.20853" lon="3.02676">
        <ele>51.664148</ele>
        <time>2023-01-07T11:27:21.073Z</time>
      </trkpt>
      <trkpt lat="43.20863" lon="3.02688">
        <ele>51.844957</ele>
        <time>2023-01-07T11:27:24.077Z</time>
      </trkpt>
      <trkpt lat="43.2087" lon="3.02697">
        <ele>51.976197</ele>
        <time>2023-01-07T11:27:26.079Z</time>
      </trkpt>
      <trkpt lat="43.20877" lon="3.02706">
        <ele>52.101525</ele>
        <time>2023-01-07T11:27:28.068Z</time>
      </trkpt>
      <trkpt lat="43.20884" lon="3.02715">
        <ele>52.237381</ele>
        <time>2023-01-07T11:27:30.076Z</time>
      </trkpt>
      <trkpt lat="43.20892" lon="3.02723">
        <ele>52.365653</ele>
        <time>2023-01-07T11:27:32.077Z</time>
      </trkpt>
      <trkpt lat="43.20899" lon="3.02732">
        <ele>52.492033</ele>
        <time>2023-01-07T11:27:34.066Z</time>
      </trkpt>
      <trkpt lat="43.20906" lon="3.0274">
        <ele>52.624021</ele>
        <time>2023-01-07T11:27:36.089Z</time>
      </trkpt>
      <trkpt lat="43.20915" lon="3.02749">
        <ele>52.762727</ele>
        <time>2023-01-07T11:27:38.076Z</time>
      </trkpt>
      <trkpt lat="43.20922" lon="3.02758">
        <ele>52.891017</ele>
        <time>2023-01-07T11:27:40.076Z</time>
      </trkpt>
      <trkpt lat="43.20929" lon="3.02765">
        <ele>53.016424</ele>
        <time>2023-01-07T11:27:42.084Z</time>
      </trkpt>
      <trkpt lat="43.20936" lon="3.02774">
        <ele>53.143121</ele>
        <time>2023-01-07T11:27:44.075Z</time>
      </trkpt>
      <trkpt lat="43.20943" lon="3.02783">
        <ele>53.264103</ele>
        <time>2023-01-07T11:27:46.075Z</time>
      </trkpt>
      <trkpt lat="43.20952" lon="3.02794">
        <ele>53.435509</ele>
        <time>2023-01-07T11:27:49.075Z</time>
      </trkpt>
      <trkpt lat="43.20962" lon="3.02805">
        <ele>53.586405</ele>
        <time>2023-01-07T11:27:52.068Z</time>
      </trkpt>
      <trkpt lat="43.20971" lon="3.02816">
        <ele>53.576008</ele>
        <time>2023-01-07T11:27:55.084Z</time>
      </trkpt>
      <trkpt lat="43.20981" lon="3.02827">
        <ele>53.565929</ele>
        <time>2023-01-07T11:27:58.080Z</time>
      </trkpt>
      <trkpt lat="43.2099" lon="3.02838">
        <ele>53.55543</ele>
        <time>2023-01-07T11:28:01.087Z</time>
      </trkpt>
      <trkpt lat="43.21" lon="3.0285">
        <ele>53.544737</ele>
        <time>2023-01-07T11:28:04.082Z</time>
      </trkpt>
      <trkpt lat="43.21007" lon="3.02857">
        <ele>53.537298</ele>
        <time>2023-01-07T11:28:06.079Z</time>
      </trkpt>
      <trkpt lat="43.21017" lon="3.02869">
        <ele>53.526366</ele>
        <time>2023-01-07T11:28:09.061Z</time>
      </trkpt>
      <trkpt lat="43.21027" lon="3.02882">
        <ele>53.515557</ele>
        <time>2023-01-07T11:28:12.070Z</time>
      </trkpt>
      <trkpt lat="43.21036" lon="3.02893">
        <ele>53.505131</ele>
        <time>2023-01-07T11:28:15.078Z</time>
      </trkpt>
      <trkpt lat="43.21046" lon="3.02904">
        <ele>53.494594</ele>
        <time>2023-01-07T11:28:18.081Z</time>
      </trkpt>
      <trkpt lat="43.21056" lon="3.02916">
        <ele>53.483866</ele>
        <time>2023-01-07T11:28:21.088Z</time>
      </trkpt>
      <trkpt lat="43.21065" lon="3.02928">
        <ele>53.473014</ele>
        <time>2023-01-07T11:28:24.072Z</time>
      </trkpt>
      <trkpt lat="43.21073" lon="3.02936">
        <ele>53.465089</ele>
        <time>2023-01-07T11:28:26.085Z</time>
      </trkpt>
      <trkpt lat="43.2108" lon="3.02945">
        <ele>53.45715</ele>
        <time>2023-01-07T11:28:28.079Z</time>
      </trkpt>
      <trkpt lat="43.21087" lon="3.02953">
        <ele>53.449583</ele>
        <time>2023-01-07T11:28:30.079Z</time>
      </trkpt>
      <trkpt lat="43.21094" lon="3.02961">
        <ele>53.442014</ele>
        <time>2023-01-07T11:28:32.079Z</time>
      </trkpt>
      <trkpt lat="43.21101" lon="3.02969">
        <ele>53.43576</ele>
        <time>2023-01-07T11:28:34.072Z</time>
      </trkpt>
      <trkpt lat="43.21108" lon="3.02978">
        <ele>53.430758</ele>
        <time>2023-01-07T11:28:36.074Z</time>
      </trkpt>
      <trkpt lat="43.21115" lon="3.02987">
        <ele>53.425692</ele>
        <time>2023-01-07T11:28:38.073Z</time>
      </trkpt>
      <trkpt lat="43.21122" lon="3.02995">
        <ele>53.420897</ele>
        <time>2023-01-07T11:28:40.083Z</time>
      </trkpt>
      <trkpt lat="43.21131" lon="3.03006">
        <ele>53.414172</ele>
        <time>2023-01-07T11:28:43.064Z</time>
      </trkpt>
      <trkpt lat="43.21141" lon="3.03019">
        <ele>53.407122</ele>
        <time>2023-01-07T11:28:46.074Z</time>
      </trkpt>
      <trkpt lat="43.21151" lon="3.03031">
        <ele>53.40011</ele>
        <time>2023-01-07T11:28:49.081Z</time>
      </trkpt>
      <trkpt lat="43.21158" lon="3.03039">
        <ele>53.395315</ele>
        <time>2023-01-07T11:28:51.073Z</time>
      </trkpt>
      <trkpt lat="43.21165" lon="3.03047">
        <ele>53.390327</ele>
        <time>2023-01-07T11:28:53.081Z</time>
      </trkpt>
      <trkpt lat="43.21172" lon="3.03056">
        <ele>53.385285</ele>
        <time>2023-01-07T11:28:55.084Z</time>
      </trkpt>
      <trkpt lat="43.2118" lon="3.03064">
        <ele>53.380129</ele>
        <time>2023-01-07T11:28:57.062Z</time>
      </trkpt>
      <trkpt lat="43.21186" lon="3.03072">
        <ele>53.375246</ele>
        <time>2023-01-07T11:28:59.079Z</time>
      </trkpt>
      <trkpt lat="43.21194" lon="3.03081">
        <ele>53.370214</ele>
        <time>2023-01-07T11:29:01.073Z</time>
      </trkpt>
      <trkpt lat="43.21201" lon="3.0309">
        <ele>53.364991</ele>
        <time>2023-01-07T11:29:03.074Z</time>
      </trkpt>
      <trkpt lat="43.21208" lon="3.03098">
        <ele>53.360114</ele>
        <time>2023-01-07T11:29:05.070Z</time>
      </trkpt>
      <trkpt lat="43.21218" lon="3.0311">
        <ele>53.35309</ele>
        <time>2023-01-07T11:29:08.075Z</time>
      </trkpt>
      <trkpt lat="43.21225" lon="3.03119">
        <ele>53.347816</ele>
        <time>2023-01-07T11:29:10.065Z</time>
      </trkpt>
      <trkpt lat="43.21232" lon="3.03127">
        <ele>53.342963</ele>
        <time>2023-01-07T11:29:12.064Z</time>
      </trkpt>
      <trkpt lat="43.21243" lon="3.03139">
        <ele>53.375593</ele>
        <time>2023-01-07T11:29:15.066Z</time>
      </trkpt>
      <trkpt lat="43.21251" lon="3.03149">
        <ele>53.400753</ele>
        <time>2023-01-07T11:29:17.064Z</time>
      </trkpt>
      <trkpt lat="43.21258" lon="3.03157">
        <ele>53.424878</ele>
        <time>2023-01-07T11:29:19.074Z</time>
      </trkpt>
      <trkpt lat="43.21265" lon="3.03166">
        <ele>53.447579</ele>
        <time>2023-01-07T11:29:21.073Z</time>
      </trkpt>
      <trkpt lat="43.21272" lon="3.03174">
        <ele>53.469818</ele>
        <time>2023-01-07T11:29:23.060Z</time>
      </trkpt>
      <trkpt lat="43.21282" lon="3.03186">
        <ele>53.502001</ele>
        <time>2023-01-07T11:29:26.075Z</time>
      </trkpt>
      <trkpt lat="43.21289" lon="3.03194">
        <ele>53.524771</ele>
        <time>2023-01-07T11:29:28.075Z</time>
      </trkpt>
      <trkpt lat="43.21299" lon="3.03206">
        <ele>53.557085</ele>
        <time>2023-01-07T11:29:31.074Z</time>
      </trkpt>
      <trkpt lat="43.21309" lon="3.03218">
        <ele>53.589331</ele>
        <time>2023-01-07T11:29:34.067Z</time>
      </trkpt>
      <trkpt lat="43.21319" lon="3.0323">
        <ele>53.620974</ele>
        <time>2023-01-07T11:29:37.069Z</time>
      </trkpt>
      <trkpt lat="43.21329" lon="3.03242">
        <ele>53.653773</ele>
        <time>2023-01-07T11:29:40.064Z</time>
      </trkpt>
      <trkpt lat="43.21339" lon="3.03254">
        <ele>53.686573</ele>
        <time>2023-01-07T11:29:43.064Z</time>
      </trkpt>
      <trkpt lat="43.21349" lon="3.03266">
        <ele>53.719187</ele>
        <time>2023-01-07T11:29:46.071Z</time>
      </trkpt>
      <trkpt lat="43.21359" lon="3.03278">
        <ele>53.751153</ele>
        <time>2023-01-07T11:29:49.086Z</time>
      </trkpt>
      <trkpt lat="43.21369" lon="3.03289">
        <ele>53.779848</ele>
        <time>2023-01-07T11:29:52.082Z</time>
      </trkpt>
      <trkpt lat="43.21379" lon="3.03302">
        <ele>53.717225</ele>
        <time>2023-01-07T11:29:55.079Z</time>
      </trkpt>
      <trkpt lat="43.21386" lon="3.0331">
        <ele>53.673806</ele>
        <time>2023-01-07T11:29:57.067Z</time>
      </trkpt>
      <trkpt lat="43.21393" lon="3.03318">
        <ele>53.632263</ele>
        <time>2023-01-07T11:29:59.064Z</time>
      </trkpt>
      <trkpt lat="43.214" lon="3.03326">
        <ele>53.59055</ele>
        <time>2023-01-07T11:30:01.074Z</time>
      </trkpt>
      <trkpt lat="43.21407" lon="3.03334">
        <ele>53.548664</ele>
        <time>2023-01-07T11:30:03.074Z</time>
      </trkpt>
      <trkpt lat="43.21416" lon="3.03345">
        <ele>53.494783</ele>
        <time>2023-01-07T11:30:06.077Z</time>
      </trkpt>
      <trkpt lat="43.21424" lon="3.03355">
        <ele>53.44596</ele>
        <time>2023-01-07T11:30:09.064Z</time>
      </trkpt>
      <trkpt lat="43.21431" lon="3.03364">
        <ele>53.39796</ele>
        <time>2023-01-07T11:30:12.076Z</time>
      </trkpt>
      <trkpt lat="43.21439" lon="3.03374">
        <ele>53.34838</ele>
        <time>2023-01-07T11:30:15.078Z</time>
      </trkpt>
      <trkpt lat="43.21447" lon="3.03384">
        <ele>53.299919</ele>
        <time>2023-01-07T11:30:18.069Z</time>
      </trkpt>
      <trkpt lat="43.21456" lon="3.03395">
        <ele>53.243192</ele>
        <time>2023-01-07T11:30:21.074Z</time>
      </trkpt>
      <trkpt lat="43.21465" lon="3.03406">
        <ele>53.187498</ele>
        <time>2023-01-07T11:30:24.077Z</time>
      </trkpt>
      <trkpt lat="43.21475" lon="3.03417">
        <ele>53.129015</ele>
        <time>2023-01-07T11:30:27.081Z</time>
      </trkpt>
      <trkpt lat="43.21485" lon="3.03429">
        <ele>53.067965</ele>
        <time>2023-01-07T11:30:30.076Z</time>
      </trkpt>
      <trkpt lat="43.21495" lon="3.03441">
        <ele>53.007179</ele>
        <time>2023-01-07T11:30:33.074Z</time>
      </trkpt>
      <trkpt lat="43.21502" lon="3.03449">
        <ele>52.965466</ele>
        <time>2023-01-07T11:30:35.075Z</time>
      </trkpt>
      <trkpt lat="43.21509" lon="3.03457">
        <ele>52.983014</ele>
        <time>2023-01-07T11:30:37.080Z</time>
      </trkpt>
      <trkpt lat="43.21519" lon="3.03469">
        <ele>53.042336</ele>
        <time>2023-01-07T11:30:40.069Z</time>
      </trkpt>
      <trkpt lat="43.21526" lon="3.03478">
        <ele>53.085082</ele>
        <time>2023-01-07T11:30:42.072Z</time>
      </trkpt>
      <trkpt lat="43.21537" lon="3.0349">
        <ele>53.145951</ele>
        <time>2023-01-07T11:30:45.073Z</time>
      </trkpt>
      <trkpt lat="43.21544" lon="3.03499">
        <ele>53.187391</ele>
        <time>2023-01-07T11:30:47.074Z</time>
      </trkpt>
      <trkpt lat="43.21551" lon="3.03507">
        <ele>53.228608</ele>
        <time>2023-01-07T11:30:49.072Z</time>
      </trkpt>
      <trkpt lat="43.21558" lon="3.03514">
        <ele>53.26893</ele>
        <time>2023-01-07T11:30:51.081Z</time>
      </trkpt>
      <trkpt lat="43.21568" lon="3.03526">
        <ele>53.325739</ele>
        <time>2023-01-07T11:30:54.080Z</time>
      </trkpt>
      <trkpt lat="43.21574" lon="3.03535">
        <ele>53.365973</ele>
        <time>2023-01-07T11:30:56.072Z</time>
      </trkpt>
      <trkpt lat="43.21581" lon="3.03543">
        <ele>53.407959</ele>
        <time>2023-01-07T11:30:58.083Z</time>
      </trkpt>
      <trkpt lat="43.21588" lon="3.03551">
        <ele>53.448092</ele>
        <time>2023-01-07T11:31:00.073Z</time>
      </trkpt>
      <trkpt lat="43.21595" lon="3.0356">
        <ele>53.488986</ele>
        <time>2023-01-07T11:31:02.069Z</time>
      </trkpt>
      <trkpt lat="43.21605" lon="3.03572">
        <ele>53.548201</ele>
        <time>2023-01-07T11:31:05.072Z</time>
      </trkpt>
      <trkpt lat="43.21615" lon="3.03585">
        <ele>53.607299</ele>
        <time>2023-01-07T11:31:08.072Z</time>
      </trkpt>
      <trkpt lat="43.21622" lon="3.03593">
        <ele>53.648234</ele>
        <time>2023-01-07T11:31:10.077Z</time>
      </trkpt>
      <trkpt lat="43.21629" lon="3.03601">
        <ele>53.689854</ele>
        <time>2023-01-07T11:31:12.076Z</time>
      </trkpt>
      <trkpt lat="43.21638" lon="3.03613">
        <ele>53.747981</ele>
        <time>2023-01-07T11:31:15.072Z</time>
      </trkpt>
      <trkpt lat="43.21648" lon="3.03624">
        <ele>53.807249</ele>
        <time>2023-01-07T11:31:18.078Z</time>
      </trkpt>
      <trkpt lat="43.21658" lon="3.03636">
        <ele>53.868802</ele>
        <time>2023-01-07T11:31:21.074Z</time>
      </trkpt>
      <trkpt lat="43.21669" lon="3.03648">
        <ele>53.931999</ele>
        <time>2023-01-07T11:31:24.070Z</time>
      </trkpt>
      <trkpt lat="43.21679" lon="3.0366">
        <ele>53.992624</ele>
        <time>2023-01-07T11:31:27.068Z</time>
      </trkpt>
      <trkpt lat="43.21685" lon="3.03668">
        <ele>54.034873</ele>
        <time>2023-01-07T11:31:29.067Z</time>
      </trkpt>
      <trkpt lat="43.21695" lon="3.0368">
        <ele>54.094112</ele>
        <time>2023-01-07T11:31:32.073Z</time>
      </trkpt>
      <trkpt lat="43.21702" lon="3.03688">
        <ele>54.137998</ele>
        <time>2023-01-07T11:31:34.078Z</time>
      </trkpt>
      <trkpt lat="43.21712" lon="3.03699">
        <ele>54.196872</ele>
        <time>2023-01-07T11:31:37.071Z</time>
      </trkpt>
      <trkpt lat="43.21721" lon="3.03711">
        <ele>54.256123</ele>
        <time>2023-01-07T11:31:40.063Z</time>
      </trkpt>
      <trkpt lat="43.2173" lon="3.03722">
        <ele>54.311908</ele>
        <time>2023-01-07T11:31:43.067Z</time>
      </trkpt>
      <trkpt lat="43.21739" lon="3.03733">
        <ele>54.369483</ele>
        <time>2023-01-07T11:31:46.071Z</time>
      </trkpt>
      <trkpt lat="43.21748" lon="3.03744">
        <ele>54.426416</ele>
        <time>2023-01-07T11:31:49.086Z</time>
      </trkpt>
      <trkpt lat="43.21757" lon="3.03755">
        <ele>54.482439</ele>
        <time>2023-01-07T11:31:52.081Z</time>
      </trkpt>
      <trkpt lat="43.21767" lon="3.03766">
        <ele>54.538813</ele>
        <time>2023-01-07T11:31:55.065Z</time>
      </trkpt>
      <trkpt lat="43.21776" lon="3.03777">
        <ele>54.585442</ele>
        <time>2023-01-07T11:31:58.081Z</time>
      </trkpt>
      <trkpt lat="43.21785" lon="3.03789">
        <ele>54.53275</ele>
        <time>2023-01-07T11:32:01.080Z</time>
      </trkpt>
      <trkpt lat="43.21795" lon="3.03799">
        <ele>54.481199</ele>
        <time>2023-01-07T11:32:04.067Z</time>
      </trkpt>
      <trkpt lat="43.21805" lon="3.0381">
        <ele>54.42991</ele>
        <time>2023-01-07T11:32:07.082Z</time>
      </trkpt>
      <trkpt lat="43.21814" lon="3.03821">
        <ele>54.379636</ele>
        <time>2023-01-07T11:32:10.090Z</time>
      </trkpt>
      <trkpt lat="43.21823" lon="3.03833">
        <ele>54.327551</ele>
        <time>2023-01-07T11:32:13.083Z</time>
      </trkpt>
      <trkpt lat="43.21833" lon="3.03844">
        <ele>54.27437</ele>
        <time>2023-01-07T11:32:16.074Z</time>
      </trkpt>
      <trkpt lat="43.21843" lon="3.03856">
        <ele>54.219948</ele>
        <time>2023-01-07T11:32:19.086Z</time>
      </trkpt>
      <trkpt lat="43.21853" lon="3.03868">
        <ele>54.16643</ele>
        <time>2023-01-07T11:32:22.077Z</time>
      </trkpt>
      <trkpt lat="43.21863" lon="3.03879">
        <ele>54.113616</ele>
        <time>2023-01-07T11:32:25.071Z</time>
      </trkpt>
      <trkpt lat="43.21872" lon="3.0389">
        <ele>54.06221</ele>
        <time>2023-01-07T11:32:28.065Z</time>
      </trkpt>
      <trkpt lat="43.21882" lon="3.03902">
        <ele>54.010018</ele>
        <time>2023-01-07T11:32:31.075Z</time>
      </trkpt>
      <trkpt lat="43.21892" lon="3.03914">
        <ele>53.955794</ele>
        <time>2023-01-07T11:32:34.065Z</time>
      </trkpt>
      <trkpt lat="43.21902" lon="3.03926">
        <ele>53.899932</ele>
        <time>2023-01-07T11:32:37.078Z</time>
      </trkpt>
      <trkpt lat="43.21912" lon="3.03938">
        <ele>53.848012</ele>
        <time>2023-01-07T11:32:40.082Z</time>
      </trkpt>
      <trkpt lat="43.21921" lon="3.0395">
        <ele>53.814761</ele>
        <time>2023-01-07T11:32:43.083Z</time>
      </trkpt>
      <trkpt lat="43.21931" lon="3.03962">
        <ele>53.781322</ele>
        <time>2023-01-07T11:32:46.083Z</time>
      </trkpt>
      <trkpt lat="43.21942" lon="3.03974">
        <ele>53.748171</ele>
        <time>2023-01-07T11:32:49.083Z</time>
      </trkpt>
      <trkpt lat="43.21951" lon="3.03985">
        <ele>53.716218</ele>
        <time>2023-01-07T11:32:52.071Z</time>
      </trkpt>
      <trkpt lat="43.21961" lon="3.03997">
        <ele>53.684305</ele>
        <time>2023-01-07T11:32:55.078Z</time>
      </trkpt>
      <trkpt lat="43.2197" lon="3.04008">
        <ele>53.652968</ele>
        <time>2023-01-07T11:32:58.073Z</time>
      </trkpt>
      <trkpt lat="43.21979" lon="3.04019">
        <ele>53.622412</ele>
        <time>2023-01-07T11:33:01.085Z</time>
      </trkpt>
      <trkpt lat="43.21988" lon="3.0403">
        <ele>53.592679</ele>
        <time>2023-01-07T11:33:04.073Z</time>
      </trkpt>
      <trkpt lat="43.21996" lon="3.0404">
        <ele>53.564907</ele>
        <time>2023-01-07T11:33:07.075Z</time>
      </trkpt>
      <trkpt lat="43.22005" lon="3.0405">
        <ele>53.535631</ele>
        <time>2023-01-07T11:33:10.071Z</time>
      </trkpt>
      <trkpt lat="43.22014" lon="3.04061">
        <ele>53.506515</ele>
        <time>2023-01-07T11:33:13.094Z</time>
      </trkpt>
      <trkpt lat="43.22022" lon="3.04071">
        <ele>53.478074</ele>
        <time>2023-01-07T11:33:16.085Z</time>
      </trkpt>
      <trkpt lat="43.22031" lon="3.04082">
        <ele>53.448959</ele>
        <time>2023-01-07T11:33:19.080Z</time>
      </trkpt>
      <trkpt lat="43.22039" lon="3.04092">
        <ele>53.421386</ele>
        <time>2023-01-07T11:33:22.087Z</time>
      </trkpt>
      <trkpt lat="43.22047" lon="3.04102">
        <ele>53.406608</ele>
        <time>2023-01-07T11:33:25.070Z</time>
      </trkpt>
      <trkpt lat="43.22056" lon="3.04113">
        <ele>53.470704</ele>
        <time>2023-01-07T11:33:28.081Z</time>
      </trkpt>
      <trkpt lat="43.22066" lon="3.04123">
        <ele>53.533671</ele>
        <time>2023-01-07T11:33:31.086Z</time>
      </trkpt>
      <trkpt lat="43.22075" lon="3.04135">
        <ele>53.598239</ele>
        <time>2023-01-07T11:33:34.068Z</time>
      </trkpt>
      <trkpt lat="43.22084" lon="3.04146">
        <ele>53.662975</ele>
        <time>2023-01-07T11:33:37.073Z</time>
      </trkpt>
      <trkpt lat="43.22094" lon="3.04157">
        <ele>53.7257</ele>
        <time>2023-01-07T11:33:40.067Z</time>
      </trkpt>
      <trkpt lat="43.22103" lon="3.04167">
        <ele>53.788989</ele>
        <time>2023-01-07T11:33:43.067Z</time>
      </trkpt>
      <trkpt lat="43.22113" lon="3.04178">
        <ele>53.851714</ele>
        <time>2023-01-07T11:33:46.064Z</time>
      </trkpt>
      <trkpt lat="43.22122" lon="3.04189">
        <ele>53.917403</ele>
        <time>2023-01-07T11:33:49.061Z</time>
      </trkpt>
      <trkpt lat="43.22132" lon="3.042">
        <ele>53.98338</ele>
        <time>2023-01-07T11:33:52.066Z</time>
      </trkpt>
      <trkpt lat="43.22142" lon="3.04212">
        <ele>54.049642</ele>
        <time>2023-01-07T11:33:55.064Z</time>
      </trkpt>
      <trkpt lat="43.22151" lon="3.04222">
        <ele>54.113648</ele>
        <time>2023-01-07T11:33:58.073Z</time>
      </trkpt>
      <trkpt lat="43.2216" lon="3.04234">
        <ele>54.178727</ele>
        <time>2023-01-07T11:34:01.071Z</time>
      </trkpt>
      <trkpt lat="43.22169" lon="3.04245">
        <ele>54.242036</ele>
        <time>2023-01-07T11:34:04.071Z</time>
      </trkpt>
      <trkpt lat="43.22178" lon="3.04256">
        <ele>54.303082</ele>
        <time>2023-01-07T11:34:07.066Z</time>
      </trkpt>
      <trkpt lat="43.22187" lon="3.04267">
        <ele>54.328152</ele>
        <time>2023-01-07T11:34:10.065Z</time>
      </trkpt>
      <trkpt lat="43.22196" lon="3.04278">
        <ele>54.320852</ele>
        <time>2023-01-07T11:34:13.073Z</time>
      </trkpt>
      <trkpt lat="43.22205" lon="3.04288">
        <ele>54.313539</ele>
        <time>2023-01-07T11:34:16.081Z</time>
      </trkpt>
      <trkpt lat="43.22215" lon="3.04299">
        <ele>54.30631</ele>
        <time>2023-01-07T11:34:19.083Z</time>
      </trkpt>
      <trkpt lat="43.22224" lon="3.04309">
        <ele>54.299023</ele>
        <time>2023-01-07T11:34:22.072Z</time>
      </trkpt>
      <trkpt lat="43.22233" lon="3.0432">
        <ele>54.291485</ele>
        <time>2023-01-07T11:34:25.067Z</time>
      </trkpt>
      <trkpt lat="43.22243" lon="3.04332">
        <ele>54.283828</ele>
        <time>2023-01-07T11:34:28.083Z</time>
      </trkpt>
      <trkpt lat="43.22252" lon="3.04343">
        <ele>54.276075</ele>
        <time>2023-01-07T11:34:31.086Z</time>
      </trkpt>
      <trkpt lat="43.22262" lon="3.04355">
        <ele>54.268357</ele>
        <time>2023-01-07T11:34:34.077Z</time>
      </trkpt>
      <trkpt lat="43.22272" lon="3.04367">
        <ele>54.260388</ele>
        <time>2023-01-07T11:34:37.079Z</time>
      </trkpt>
      <trkpt lat="43.22278" lon="3.04375">
        <ele>54.254847</ele>
        <time>2023-01-07T11:34:39.085Z</time>
      </trkpt>
      <trkpt lat="43.22286" lon="3.04383">
        <ele>54.249311</ele>
        <time>2023-01-07T11:34:41.077Z</time>
      </trkpt>
      <trkpt lat="43.22296" lon="3.04396">
        <ele>54.241087</ele>
        <time>2023-01-07T11:34:44.079Z</time>
      </trkpt>
      <trkpt lat="43.22305" lon="3.04408">
        <ele>54.233177</ele>
        <time>2023-01-07T11:34:47.066Z</time>
      </trkpt>
      <trkpt lat="43.22316" lon="3.0442">
        <ele>54.224982</ele>
        <time>2023-01-07T11:34:50.081Z</time>
      </trkpt>
      <trkpt lat="43.22326" lon="3.04432">
        <ele>54.220945</ele>
        <time>2023-01-07T11:34:53.088Z</time>
      </trkpt>
      <trkpt lat="43.22336" lon="3.04444">
        <ele>54.218294</ele>
        <time>2023-01-07T11:34:56.079Z</time>
      </trkpt>
      <trkpt lat="43.22346" lon="3.04456">
        <ele>54.215609</ele>
        <time>2023-01-07T11:34:59.082Z</time>
      </trkpt>
      <trkpt lat="43.22356" lon="3.04469">
        <ele>54.212974</ele>
        <time>2023-01-07T11:35:02.081Z</time>
      </trkpt>
      <trkpt lat="43.22365" lon="3.0448">
        <ele>54.210496</ele>
        <time>2023-01-07T11:35:05.073Z</time>
      </trkpt>
      <trkpt lat="43.22372" lon="3.04488">
        <ele>54.208655</ele>
        <time>2023-01-07T11:35:07.073Z</time>
      </trkpt>
      <trkpt lat="43.22379" lon="3.04497">
        <ele>54.206807</ele>
        <time>2023-01-07T11:35:09.075Z</time>
      </trkpt>
      <trkpt lat="43.22386" lon="3.04505">
        <ele>54.205021</ele>
        <time>2023-01-07T11:35:11.075Z</time>
      </trkpt>
      <trkpt lat="43.22396" lon="3.04517">
        <ele>54.202415</ele>
        <time>2023-01-07T11:35:14.084Z</time>
      </trkpt>
      <trkpt lat="43.22403" lon="3.04525">
        <ele>54.200607</ele>
        <time>2023-01-07T11:35:16.068Z</time>
      </trkpt>
      <trkpt lat="43.22413" lon="3.04536">
        <ele>54.197921</ele>
        <time>2023-01-07T11:35:19.075Z</time>
      </trkpt>
      <trkpt lat="43.22422" lon="3.04548">
        <ele>54.195452</ele>
        <time>2023-01-07T11:35:22.060Z</time>
      </trkpt>
      <trkpt lat="43.22432" lon="3.0456">
        <ele>54.192887</ele>
        <time>2023-01-07T11:35:25.067Z</time>
      </trkpt>
      <trkpt lat="43.2244" lon="3.04567">
        <ele>54.191032</ele>
        <time>2023-01-07T11:35:27.073Z</time>
      </trkpt>
      <trkpt lat="43.22446" lon="3.04576">
        <ele>54.189223</ele>
        <time>2023-01-07T11:35:29.073Z</time>
      </trkpt>
      <trkpt lat="43.22456" lon="3.04587">
        <ele>54.147097</ele>
        <time>2023-01-07T11:35:32.083Z</time>
      </trkpt>
      <trkpt lat="43.22466" lon="3.046">
        <ele>53.983038</ele>
        <time>2023-01-07T11:35:35.085Z</time>
      </trkpt>
      <trkpt lat="43.22476" lon="3.04611">
        <ele>53.820779</ele>
        <time>2023-01-07T11:35:38.065Z</time>
      </trkpt>
      <trkpt lat="43.22485" lon="3.04622">
        <ele>53.666465</ele>
        <time>2023-01-07T11:35:41.078Z</time>
      </trkpt>
      <trkpt lat="43.22494" lon="3.04633">
        <ele>53.51618</ele>
        <time>2023-01-07T11:35:44.078Z</time>
      </trkpt>
      <trkpt lat="43.22504" lon="3.04645">
        <ele>53.35794</ele>
        <time>2023-01-07T11:35:47.087Z</time>
      </trkpt>
      <trkpt lat="43.22513" lon="3.04655">
        <ele>53.210469</ele>
        <time>2023-01-07T11:35:50.082Z</time>
      </trkpt>
      <trkpt lat="43.22521" lon="3.04666">
        <ele>53.062065</ele>
        <time>2023-01-07T11:35:53.065Z</time>
      </trkpt>
      <trkpt lat="43.2253" lon="3.04677">
        <ele>52.911224</ele>
        <time>2023-01-07T11:35:56.084Z</time>
      </trkpt>
      <trkpt lat="43.2254" lon="3.04689">
        <ele>52.751165</ele>
        <time>2023-01-07T11:35:59.076Z</time>
      </trkpt>
      <trkpt lat="43.2255" lon="3.04701">
        <ele>52.585473</ele>
        <time>2023-01-07T11:36:02.067Z</time>
      </trkpt>
      <trkpt lat="43.2256" lon="3.04713">
        <ele>52.422498</ele>
        <time>2023-01-07T11:36:05.077Z</time>
      </trkpt>
      <trkpt lat="43.2257" lon="3.04724">
        <ele>52.259888</ele>
        <time>2023-01-07T11:36:08.084Z</time>
      </trkpt>
      <trkpt lat="43.2258" lon="3.04736">
        <ele>52.097969</ele>
        <time>2023-01-07T11:36:11.065Z</time>
      </trkpt>
      <trkpt lat="43.22589" lon="3.04748">
        <ele>51.93885</ele>
        <time>2023-01-07T11:36:14.066Z</time>
      </trkpt>
      <trkpt lat="43.22599" lon="3.0476">
        <ele>51.905544</ele>
        <time>2023-01-07T11:36:17.065Z</time>
      </trkpt>
      <trkpt lat="43.22608" lon="3.04772">
        <ele>51.872745</ele>
        <time>2023-01-07T11:36:20.064Z</time>
      </trkpt>
      <trkpt lat="43.22619" lon="3.04784">
        <ele>51.837959</ele>
        <time>2023-01-07T11:36:23.087Z</time>
      </trkpt>
      <trkpt lat="43.22628" lon="3.04796">
        <ele>51.805476</ele>
        <time>2023-01-07T11:36:26.063Z</time>
      </trkpt>
      <trkpt lat="43.22638" lon="3.04807">
        <ele>51.771886</ele>
        <time>2023-01-07T11:36:29.080Z</time>
      </trkpt>
      <trkpt lat="43.22644" lon="3.04816">
        <ele>51.748428</ele>
        <time>2023-01-07T11:36:31.068Z</time>
      </trkpt>
      <trkpt lat="43.22652" lon="3.04824">
        <ele>51.7239</ele>
        <time>2023-01-07T11:36:33.082Z</time>
      </trkpt>
      <trkpt lat="43.22662" lon="3.04836">
        <ele>51.689313</ele>
        <time>2023-01-07T11:36:36.077Z</time>
      </trkpt>
      <trkpt lat="43.22669" lon="3.04844">
        <ele>51.665124</ele>
        <time>2023-01-07T11:36:38.079Z</time>
      </trkpt>
      <trkpt lat="43.22679" lon="3.04857">
        <ele>51.630866</ele>
        <time>2023-01-07T11:36:41.086Z</time>
      </trkpt>
      <trkpt lat="43.22687" lon="3.04864">
        <ele>51.606559</ele>
        <time>2023-01-07T11:36:43.084Z</time>
      </trkpt>
      <trkpt lat="43.22695" lon="3.04875">
        <ele>51.576608</ele>
        <time>2023-01-07T11:36:46.081Z</time>
      </trkpt>
      <trkpt lat="43.22704" lon="3.04885">
        <ele>51.54743</ele>
        <time>2023-01-07T11:36:49.084Z</time>
      </trkpt>
      <trkpt lat="43.22714" lon="3.04895">
        <ele>51.515739</ele>
        <time>2023-01-07T11:36:52.071Z</time>
      </trkpt>
      <trkpt lat="43.22723" lon="3.04907">
        <ele>51.484079</ele>
        <time>2023-01-07T11:36:55.080Z</time>
      </trkpt>
      <trkpt lat="43.22733" lon="3.04918">
        <ele>51.633817</ele>
        <time>2023-01-07T11:36:58.087Z</time>
      </trkpt>
      <trkpt lat="43.2274" lon="3.04926">
        <ele>51.767619</ele>
        <time>2023-01-07T11:37:00.082Z</time>
      </trkpt>
      <trkpt lat="43.22746" lon="3.04935">
        <ele>51.902045</ele>
        <time>2023-01-07T11:37:02.071Z</time>
      </trkpt>
      <trkpt lat="43.22757" lon="3.04946">
        <ele>52.092223</ele>
        <time>2023-01-07T11:37:05.084Z</time>
      </trkpt>
      <trkpt lat="43.22766" lon="3.04956">
        <ele>52.270162</ele>
        <time>2023-01-07T11:37:08.076Z</time>
      </trkpt>
      <trkpt lat="43.22774" lon="3.04967">
        <ele>52.441831</ele>
        <time>2023-01-07T11:37:11.061Z</time>
      </trkpt>
      <trkpt lat="43.22782" lon="3.04976">
        <ele>52.588211</ele>
        <time>2023-01-07T11:37:14.068Z</time>
      </trkpt>
      <trkpt lat="43.22789" lon="3.04983">
        <ele>52.724479</ele>
        <time>2023-01-07T11:37:17.064Z</time>
      </trkpt>
      <trkpt lat="43.22797" lon="3.04992">
        <ele>52.880226</ele>
        <time>2023-01-07T11:37:20.064Z</time>
      </trkpt>
      <trkpt lat="43.22804" lon="3.05002">
        <ele>53.021671</ele>
        <time>2023-01-07T11:37:23.069Z</time>
      </trkpt>
      <trkpt lat="43.22811" lon="3.05013">
        <ele>53.181466</ele>
        <time>2023-01-07T11:37:27.074Z</time>
      </trkpt>
      <trkpt lat="43.22818" lon="3.05022">
        <ele>53.321549</ele>
        <time>2023-01-07T11:37:33.061Z</time>
      </trkpt>
      <trkpt lat="43.22831" lon="3.05037">
        <ele>53.577695</ele>
        <time>2023-01-07T11:38:03.069Z</time>
      </trkpt>
      <trkpt lat="43.22839" lon="3.05045">
        <ele>53.722738</ele>
        <time>2023-01-07T11:38:06.071Z</time>
      </trkpt>
      <trkpt lat="43.22847" lon="3.05054">
        <ele>53.872997</ele>
        <time>2023-01-07T11:38:09.066Z</time>
      </trkpt>
      <trkpt lat="43.22855" lon="3.05065">
        <ele>54.043499</ele>
        <time>2023-01-07T11:38:12.076Z</time>
      </trkpt>
      <trkpt lat="43.22862" lon="3.05075">
        <ele>54.165395</ele>
        <time>2023-01-07T11:38:15.085Z</time>
      </trkpt>
      <trkpt lat="43.22869" lon="3.05084">
        <ele>54.22788</ele>
        <time>2023-01-07T11:38:18.082Z</time>
      </trkpt>
      <trkpt lat="43.22877" lon="3.05091">
        <ele>54.290402</ele>
        <time>2023-01-07T11:38:21.085Z</time>
      </trkpt>
      <trkpt lat="43.22886" lon="3.05101">
        <ele>54.360048</ele>
        <time>2023-01-07T11:38:24.082Z</time>
      </trkpt>
      <trkpt lat="43.22894" lon="3.05111">
        <ele>54.434202</ele>
        <time>2023-01-07T11:38:27.084Z</time>
      </trkpt>
      <trkpt lat="43.22903" lon="3.05121">
        <ele>54.507863</ele>
        <time>2023-01-07T11:38:30.073Z</time>
      </trkpt>
      <trkpt lat="43.22912" lon="3.05132">
        <ele>54.584369</ele>
        <time>2023-01-07T11:38:33.072Z</time>
      </trkpt>
      <trkpt lat="43.22921" lon="3.05143">
        <ele>54.661507</ele>
        <time>2023-01-07T11:38:36.076Z</time>
      </trkpt>
      <trkpt lat="43.2293" lon="3.05153">
        <ele>54.738153</ele>
        <time>2023-01-07T11:38:39.078Z</time>
      </trkpt>
      <trkpt lat="43.22939" lon="3.05163">
        <ele>54.812799</ele>
        <time>2023-01-07T11:38:42.068Z</time>
      </trkpt>
      <trkpt lat="43.22947" lon="3.05173">
        <ele>54.885485</ele>
        <time>2023-01-07T11:38:45.068Z</time>
      </trkpt>
      <trkpt lat="43.22956" lon="3.05184">
        <ele>54.960932</ele>
        <time>2023-01-07T11:38:48.072Z</time>
      </trkpt>
      <trkpt lat="43.22965" lon="3.05195">
        <ele>55.039388</ele>
        <time>2023-01-07T11:38:51.085Z</time>
      </trkpt>
      <trkpt lat="43.22975" lon="3.05206">
        <ele>55.123836</ele>
        <time>2023-01-07T11:38:54.078Z</time>
      </trkpt>
      <trkpt lat="43.22985" lon="3.05217">
        <ele>55.204691</ele>
        <time>2023-01-07T11:38:57.084Z</time>
      </trkpt>
      <trkpt lat="43.22995" lon="3.05228">
        <ele>55.28764</ele>
        <time>2023-01-07T11:39:00.071Z</time>
      </trkpt>
      <trkpt lat="43.23004" lon="3.0524">
        <ele>55.233503</ele>
        <time>2023-01-07T11:39:03.063Z</time>
      </trkpt>
      <trkpt lat="43.23013" lon="3.0525">
        <ele>55.149593</ele>
        <time>2023-01-07T11:39:06.080Z</time>
      </trkpt>
      <trkpt lat="43.23021" lon="3.05259">
        <ele>55.067212</ele>
        <time>2023-01-07T11:39:09.070Z</time>
      </trkpt>
      <trkpt lat="43.2303" lon="3.05269">
        <ele>54.979204</ele>
        <time>2023-01-07T11:39:12.088Z</time>
      </trkpt>
      <trkpt lat="43.23038" lon="3.05279">
        <ele>54.896945</ele>
        <time>2023-01-07T11:39:15.080Z</time>
      </trkpt>
      <trkpt lat="43.23048" lon="3.0529">
        <ele>54.802287</ele>
        <time>2023-01-07T11:39:18.066Z</time>
      </trkpt>
      <trkpt lat="43.23057" lon="3.05301">
        <ele>54.710022</ele>
        <time>2023-01-07T11:39:21.085Z</time>
      </trkpt>
      <trkpt lat="43.23064" lon="3.05309">
        <ele>54.641785</ele>
        <time>2023-01-07T11:39:23.079Z</time>
      </trkpt>
      <trkpt lat="43.23074" lon="3.0532">
        <ele>54.54594</ele>
        <time>2023-01-07T11:39:26.075Z</time>
      </trkpt>
      <trkpt lat="43.23084" lon="3.05331">
        <ele>54.447291</ele>
        <time>2023-01-07T11:39:29.080Z</time>
      </trkpt>
      <trkpt lat="43.23092" lon="3.05343">
        <ele>54.355782</ele>
        <time>2023-01-07T11:39:32.077Z</time>
      </trkpt>
      <trkpt lat="43.23102" lon="3.05353">
        <ele>54.260625</ele>
        <time>2023-01-07T11:39:35.086Z</time>
      </trkpt>
      <trkpt lat="43.23112" lon="3.05365">
        <ele>54.162221</ele>
        <time>2023-01-07T11:39:38.080Z</time>
      </trkpt>
      <trkpt lat="43.2312" lon="3.05376">
        <ele>54.074992</ele>
        <time>2023-01-07T11:39:41.077Z</time>
      </trkpt>
      <trkpt lat="43.23128" lon="3.05386">
        <ele>53.992056</ele>
        <time>2023-01-07T11:39:44.069Z</time>
      </trkpt>
      <trkpt lat="43.23137" lon="3.05398">
        <ele>54.052889</ele>
        <time>2023-01-07T11:39:47.066Z</time>
      </trkpt>
      <trkpt lat="43.23146" lon="3.05408">
        <ele>54.277483</ele>
        <time>2023-01-07T11:39:50.074Z</time>
      </trkpt>
      <trkpt lat="43.23154" lon="3.05418">
        <ele>54.486464</ele>
        <time>2023-01-07T11:39:53.080Z</time>
      </trkpt>
      <trkpt lat="43.23161" lon="3.05429">
        <ele>54.687746</ele>
        <time>2023-01-07T11:39:56.075Z</time>
      </trkpt>
      <trkpt lat="43.2317" lon="3.05438">
        <ele>54.897612</ele>
        <time>2023-01-07T11:39:59.079Z</time>
      </trkpt>
      <trkpt lat="43.23178" lon="3.05449">
        <ele>55.121274</ele>
        <time>2023-01-07T11:40:02.075Z</time>
      </trkpt>
      <trkpt lat="43.23188" lon="3.0546">
        <ele>55.356395</ele>
        <time>2023-01-07T11:40:05.078Z</time>
      </trkpt>
      <trkpt lat="43.23197" lon="3.0547">
        <ele>55.596532</ele>
        <time>2023-01-07T11:40:08.069Z</time>
      </trkpt>
      <trkpt lat="43.23207" lon="3.05481">
        <ele>55.830428</ele>
        <time>2023-01-07T11:40:11.080Z</time>
      </trkpt>
      <trkpt lat="43.23215" lon="3.05491">
        <ele>56.043551</ele>
        <time>2023-01-07T11:40:14.078Z</time>
      </trkpt>
      <trkpt lat="43.23224" lon="3.055">
        <ele>56.253183</ele>
        <time>2023-01-07T11:40:17.078Z</time>
      </trkpt>
      <trkpt lat="43.23232" lon="3.0551">
        <ele>56.472109</ele>
        <time>2023-01-07T11:40:20.068Z</time>
      </trkpt>
      <trkpt lat="43.23241" lon="3.05522">
        <ele>56.700479</ele>
        <time>2023-01-07T11:40:23.070Z</time>
      </trkpt>
      <trkpt lat="43.23251" lon="3.05531">
        <ele>56.931156</ele>
        <time>2023-01-07T11:40:26.070Z</time>
      </trkpt>
      <trkpt lat="43.2326" lon="3.05541">
        <ele>57.162677</ele>
        <time>2023-01-07T11:40:29.072Z</time>
      </trkpt>
      <trkpt lat="43.23269" lon="3.0555">
        <ele>57.372976</ele>
        <time>2023-01-07T11:40:32.066Z</time>
      </trkpt>
      <trkpt lat="43.23278" lon="3.0556">
        <ele>57.248355</ele>
        <time>2023-01-07T11:40:35.075Z</time>
      </trkpt>
      <trkpt lat="43.23286" lon="3.0557">
        <ele>57.071615</ele>
        <time>2023-01-07T11:40:38.072Z</time>
      </trkpt>
      <trkpt lat="43.23293" lon="3.05581">
        <ele>56.896356</ele>
        <time>2023-01-07T11:40:41.067Z</time>
      </trkpt>
      <trkpt lat="43.23302" lon="3.05592">
        <ele>56.719615</ele>
        <time>2023-01-07T11:40:44.076Z</time>
      </trkpt>
      <trkpt lat="43.23309" lon="3.05604">
        <ele>56.536919</ele>
        <time>2023-01-07T11:40:47.067Z</time>
      </trkpt>
      <trkpt lat="43.23319" lon="3.05613">
        <ele>56.358434</ele>
        <time>2023-01-07T11:40:50.075Z</time>
      </trkpt>
      <trkpt lat="43.23326" lon="3.05621">
        <ele>56.206049</ele>
        <time>2023-01-07T11:40:53.081Z</time>
      </trkpt>
      <trkpt lat="43.23327" lon="3.05636">
        <ele>56.04096</ele>
        <time>2023-01-07T11:40:58.067Z</time>
      </trkpt>
      <trkpt lat="43.23321" lon="3.05649">
        <ele>55.85581</ele>
        <time>2023-01-07T11:41:02.066Z</time>
      </trkpt>
      <trkpt lat="43.23316" lon="3.05661">
        <ele>55.690973</ele>
        <time>2023-01-07T11:41:05.076Z</time>
      </trkpt>
      <trkpt lat="43.23314" lon="3.05676">
        <ele>55.51636</ele>
        <time>2023-01-07T11:41:08.072Z</time>
      </trkpt>
      <trkpt lat="43.23308" lon="3.0569">
        <ele>55.333607</ele>
        <time>2023-01-07T11:41:11.064Z</time>
      </trkpt>
      <trkpt lat="43.23303" lon="3.05704">
        <ele>55.157662</ele>
        <time>2023-01-07T11:41:14.068Z</time>
      </trkpt>
      <trkpt lat="43.23298" lon="3.05717">
        <ele>54.991297</ele>
        <time>2023-01-07T11:41:17.066Z</time>
      </trkpt>
      <trkpt lat="43.2329" lon="3.05736">
        <ele>54.738807</ele>
        <time>2023-01-07T11:42:07.082Z</time>
      </trkpt>
      <trkpt lat="43.23287" lon="3.05748">
        <ele>54.586761</ele>
        <time>2023-01-07T11:42:10.082Z</time>
      </trkpt>
      <trkpt lat="43.23283" lon="3.05762">
        <ele>54.431642</ele>
        <time>2023-01-07T11:42:13.080Z</time>
      </trkpt>
      <trkpt lat="43.2328" lon="3.05776">
        <ele>54.272492</ele>
        <time>2023-01-07T11:42:16.079Z</time>
      </trkpt>
      <trkpt lat="43.23277" lon="3.05789">
        <ele>54.134421</ele>
        <time>2023-01-07T11:42:19.078Z</time>
      </trkpt>
      <trkpt lat="43.23278" lon="3.05805">
        <ele>53.970688</ele>
        <time>2023-01-07T11:42:23.067Z</time>
      </trkpt>
      <trkpt lat="43.23286" lon="3.05816">
        <ele>53.807518</ele>
        <time>2023-01-07T11:42:26.072Z</time>
      </trkpt>
      <trkpt lat="43.23295" lon="3.05826">
        <ele>53.63985</ele>
        <time>2023-01-07T11:42:29.086Z</time>
      </trkpt>
      <trkpt lat="43.23302" lon="3.05834">
        <ele>53.509145</ele>
        <time>2023-01-07T11:42:31.088Z</time>
      </trkpt>
      <trkpt lat="43.2331" lon="3.05842">
        <ele>53.369367</ele>
        <time>2023-01-07T11:42:33.072Z</time>
      </trkpt>
      <trkpt lat="43.23318" lon="3.05849">
        <ele>53.231989</ele>
        <time>2023-01-07T11:42:35.068Z</time>
      </trkpt>
      <trkpt lat="43.23325" lon="3.05857">
        <ele>53.104158</ele>
        <time>2023-01-07T11:42:37.079Z</time>
      </trkpt>
      <trkpt lat="43.23332" lon="3.05864">
        <ele>52.974268</ele>
        <time>2023-01-07T11:42:39.087Z</time>
      </trkpt>
      <trkpt lat="43.23341" lon="3.05873">
        <ele>52.816271</ele>
        <time>2023-01-07T11:42:42.079Z</time>
      </trkpt>
      <trkpt lat="43.23352" lon="3.05876">
        <ele>52.6605</ele>
        <time>2023-01-07T11:42:45.076Z</time>
      </trkpt>
      <trkpt lat="43.23363" lon="3.05877">
        <ele>52.502779</ele>
        <time>2023-01-07T11:42:48.077Z</time>
      </trkpt>
      <trkpt lat="43.23375" lon="3.05874">
        <ele>52.331874</ele>
        <time>2023-01-07T11:42:51.072Z</time>
      </trkpt>
      <trkpt lat="43.23384" lon="3.05872">
        <ele>52.191755</ele>
        <time>2023-01-07T11:42:54.074Z</time>
      </trkpt>
      <trkpt lat="43.23395" lon="3.05875">
        <ele>52.038122</ele>
        <time>2023-01-07T11:42:58.084Z</time>
      </trkpt>
      <trkpt lat="43.23397" lon="3.05888">
        <ele>52.149699</ele>
        <time>2023-01-07T11:43:01.079Z</time>
      </trkpt>
      <trkpt lat="43.23399" lon="3.05903">
        <ele>52.42777</ele>
        <time>2023-01-07T11:43:04.077Z</time>
      </trkpt>
      <trkpt lat="43.234" lon="3.05919">
        <ele>52.731171</ele>
        <time>2023-01-07T11:43:07.067Z</time>
      </trkpt>
      <trkpt lat="43.23402" lon="3.05936">
        <ele>53.037366</ele>
        <time>2023-01-07T11:43:10.070Z</time>
      </trkpt>
      <trkpt lat="43.23401" lon="3.05953">
        <ele>53.340919</ele>
        <time>2023-01-07T11:43:13.078Z</time>
      </trkpt>
      <trkpt lat="43.23399" lon="3.0597">
        <ele>53.653375</ele>
        <time>2023-01-07T11:43:16.082Z</time>
      </trkpt>
      <trkpt lat="43.23396" lon="3.05985">
        <ele>53.94476</ele>
        <time>2023-01-07T11:43:19.076Z</time>
      </trkpt>
      <trkpt lat="43.23392" lon="3.06002">
        <ele>54.263788</ele>
        <time>2023-01-07T11:43:22.075Z</time>
      </trkpt>
      <trkpt lat="43.23389" lon="3.06018">
        <ele>54.571081</ele>
        <time>2023-01-07T11:43:25.079Z</time>
      </trkpt>
      <trkpt lat="43.23386" lon="3.06035">
        <ele>54.882163</ele>
        <time>2023-01-07T11:43:28.065Z</time>
      </trkpt>
      <trkpt lat="43.23386" lon="3.06052">
        <ele>55.199899</ele>
        <time>2023-01-07T11:43:31.092Z</time>
      </trkpt>
      <trkpt lat="43.23386" lon="3.06065">
        <ele>55.442784</ele>
        <time>2023-01-07T11:43:34.074Z</time>
      </trkpt>
      <trkpt lat="43.23389" lon="3.06082">
        <ele>55.757244</ele>
        <time>2023-01-07T11:43:37.078Z</time>
      </trkpt>
      <trkpt lat="43.23391" lon="3.06095">
        <ele>55.996011</ele>
        <time>2023-01-07T11:43:39.067Z</time>
      </trkpt>
      <trkpt lat="43.23392" lon="3.06113">
        <ele>56.319339</ele>
        <time>2023-01-07T11:43:42.073Z</time>
      </trkpt>
      <trkpt lat="43.23394" lon="3.06125">
        <ele>56.458097</ele>
        <time>2023-01-07T11:43:44.082Z</time>
      </trkpt>
      <trkpt lat="43.23395" lon="3.06138">
        <ele>56.317606</ele>
        <time>2023-01-07T11:43:46.076Z</time>
      </trkpt>
      <trkpt lat="43.23396" lon="3.06156">
        <ele>56.116669</ele>
        <time>2023-01-07T11:43:49.070Z</time>
      </trkpt>
      <trkpt lat="43.23397" lon="3.06169">
        <ele>55.971457</ele>
        <time>2023-01-07T11:43:51.066Z</time>
      </trkpt>
      <trkpt lat="43.23397" lon="3.06182">
        <ele>55.829561</ele>
        <time>2023-01-07T11:43:53.082Z</time>
      </trkpt>
      <trkpt lat="43.23397" lon="3.06196">
        <ele>55.675625</ele>
        <time>2023-01-07T11:43:55.074Z</time>
      </trkpt>
      <trkpt lat="43.23397" lon="3.06214">
        <ele>55.471942</ele>
        <time>2023-01-07T11:43:58.083Z</time>
      </trkpt>
      <trkpt lat="43.23397" lon="3.06233">
        <ele>55.267147</ele>
        <time>2023-01-07T11:44:01.079Z</time>
      </trkpt>
      <trkpt lat="43.23397" lon="3.06245">
        <ele>55.128643</ele>
        <time>2023-01-07T11:44:03.089Z</time>
      </trkpt>
      <trkpt lat="43.23399" lon="3.06259">
        <ele>54.974796</ele>
        <time>2023-01-07T11:44:05.075Z</time>
      </trkpt>
      <trkpt lat="43.234" lon="3.06272">
        <ele>54.82968</ele>
        <time>2023-01-07T11:44:07.089Z</time>
      </trkpt>
      <trkpt lat="43.23403" lon="3.06285">
        <ele>54.678706</ele>
        <time>2023-01-07T11:44:09.075Z</time>
      </trkpt>
      <trkpt lat="43.23405" lon="3.06298">
        <ele>54.534917</ele>
        <time>2023-01-07T11:44:11.074Z</time>
      </trkpt>
      <trkpt lat="43.23407" lon="3.0631">
        <ele>54.39527</ele>
        <time>2023-01-07T11:44:13.070Z</time>
      </trkpt>
      <trkpt lat="43.23412" lon="3.06327">
        <ele>54.197635</ele>
        <time>2023-01-07T11:44:16.082Z</time>
      </trkpt>
      <trkpt lat="43.23415" lon="3.0634">
        <ele>54.038392</ele>
        <time>2023-01-07T11:44:19.064Z</time>
      </trkpt>
      <trkpt lat="43.23418" lon="3.06355">
        <ele>53.864496</ele>
        <time>2023-01-07T11:44:22.067Z</time>
      </trkpt>
      <trkpt lat="43.23423" lon="3.06371">
        <ele>53.677255</ele>
        <time>2023-01-07T11:44:25.073Z</time>
      </trkpt>
      <trkpt lat="43.23427" lon="3.06385">
        <ele>53.509476</ele>
        <time>2023-01-07T11:44:28.088Z</time>
      </trkpt>
      <trkpt lat="43.2343" lon="3.06399">
        <ele>53.338535</ele>
        <time>2023-01-07T11:44:31.077Z</time>
      </trkpt>
      <trkpt lat="43.23433" lon="3.06413">
        <ele>53.170651</ele>
        <time>2023-01-07T11:44:34.078Z</time>
      </trkpt>
      <trkpt lat="43.23433" lon="3.06428">
        <ele>53.009506</ele>
        <time>2023-01-07T11:44:37.067Z</time>
      </trkpt>
      <trkpt lat="43.23434" lon="3.06443">
        <ele>52.832825</ele>
        <time>2023-01-07T11:44:40.078Z</time>
      </trkpt>
      <trkpt lat="43.23435" lon="3.06457">
        <ele>52.674992</ele>
        <time>2023-01-07T11:44:43.084Z</time>
      </trkpt>
      <trkpt lat="43.23434" lon="3.0647">
        <ele>52.528638</ele>
        <time>2023-01-07T11:44:47.082Z</time>
      </trkpt>
      <trkpt lat="43.23435" lon="3.0649">
        <ele>52.302638</ele>
        <time>2023-01-07T11:45:30.073Z</time>
      </trkpt>
      <trkpt lat="43.23437" lon="3.06506">
        <ele>52.12128</ele>
        <time>2023-01-07T11:45:34.066Z</time>
      </trkpt>
      <trkpt lat="43.23437" lon="3.06519">
        <ele>51.968882</ele>
        <time>2023-01-07T11:45:37.071Z</time>
      </trkpt>
      <trkpt lat="43.23438" lon="3.06533">
        <ele>51.808688</ele>
        <time>2023-01-07T11:45:40.064Z</time>
      </trkpt>
      <trkpt lat="43.23439" lon="3.06549">
        <ele>51.634018</ele>
        <time>2023-01-07T11:45:43.066Z</time>
      </trkpt>
      <trkpt lat="43.23439" lon="3.06565">
        <ele>51.452492</ele>
        <time>2023-01-07T11:45:46.069Z</time>
      </trkpt>
      <trkpt lat="43.2344" lon="3.06581">
        <ele>51.269198</ele>
        <time>2023-01-07T11:45:49.072Z</time>
      </trkpt>
      <trkpt lat="43.2344" lon="3.06597">
        <ele>51.090105</ele>
        <time>2023-01-07T11:45:52.065Z</time>
      </trkpt>
      <trkpt lat="43.23441" lon="3.06613">
        <ele>51.005394</ele>
        <time>2023-01-07T11:45:55.084Z</time>
      </trkpt>
      <trkpt lat="43.23441" lon="3.0663">
        <ele>51.128213</ele>
        <time>2023-01-07T11:45:58.075Z</time>
      </trkpt>
      <trkpt lat="43.23441" lon="3.06647">
        <ele>51.252524</ele>
        <time>2023-01-07T11:46:01.077Z</time>
      </trkpt>
      <trkpt lat="43.23442" lon="3.06664">
        <ele>51.377892</ele>
        <time>2023-01-07T11:46:04.076Z</time>
      </trkpt>
      <trkpt lat="43.23443" lon="3.06681">
        <ele>51.502601</ele>
        <time>2023-01-07T11:46:07.074Z</time>
      </trkpt>
      <trkpt lat="43.23443" lon="3.06698">
        <ele>51.63283</ele>
        <time>2023-01-07T11:46:10.069Z</time>
      </trkpt>
      <trkpt lat="43.23439" lon="3.06715">
        <ele>51.760849</ele>
        <time>2023-01-07T11:46:13.077Z</time>
      </trkpt>
      <trkpt lat="43.23436" lon="3.06732">
        <ele>51.891118</ele>
        <time>2023-01-07T11:46:16.086Z</time>
      </trkpt>
      <trkpt lat="43.23429" lon="3.06747">
        <ele>52.02</ele>
        <time>2023-01-07T11:46:19.075Z</time>
      </trkpt>
      <trkpt lat="43.23423" lon="3.06762">
        <ele>52.149529</ele>
        <time>2023-01-07T11:46:22.085Z</time>
      </trkpt>
      <trkpt lat="43.23416" lon="3.06777">
        <ele>52.278172</ele>
        <time>2023-01-07T11:46:25.088Z</time>
      </trkpt>
      <trkpt lat="43.23408" lon="3.06791">
        <ele>52.412722</ele>
        <time>2023-01-07T11:46:28.078Z</time>
      </trkpt>
      <trkpt lat="43.23404" lon="3.06802">
        <ele>52.50378</ele>
        <time>2023-01-07T11:46:30.074Z</time>
      </trkpt>
      <trkpt lat="43.23399" lon="3.06813">
        <ele>52.595698</ele>
        <time>2023-01-07T11:46:32.079Z</time>
      </trkpt>
      <trkpt lat="43.23393" lon="3.06828">
        <ele>52.725586</ele>
        <time>2023-01-07T11:46:35.083Z</time>
      </trkpt>
      <trkpt lat="43.23387" lon="3.06844">
        <ele>52.833895</ele>
        <time>2023-01-07T11:46:38.076Z</time>
      </trkpt>
      <trkpt lat="43.23381" lon="3.06861">
        <ele>52.920251</ele>
        <time>2023-01-07T11:46:41.075Z</time>
      </trkpt>
      <trkpt lat="43.23378" lon="3.06873">
        <ele>52.979423</ele>
        <time>2023-01-07T11:46:43.079Z</time>
      </trkpt>
      <trkpt lat="43.23373" lon="3.0689">
        <ele>53.06158</ele>
        <time>2023-01-07T11:46:46.088Z</time>
      </trkpt>
      <trkpt lat="43.23369" lon="3.06907">
        <ele>53.144639</ele>
        <time>2023-01-07T11:46:49.087Z</time>
      </trkpt>
      <trkpt lat="43.23366" lon="3.06924">
        <ele>53.224695</ele>
        <time>2023-01-07T11:46:52.070Z</time>
      </trkpt>
      <trkpt lat="43.23363" lon="3.06941">
        <ele>53.305565</ele>
        <time>2023-01-07T11:46:55.089Z</time>
      </trkpt>
      <trkpt lat="43.23362" lon="3.06953">
        <ele>53.362637</ele>
        <time>2023-01-07T11:46:57.077Z</time>
      </trkpt>
      <trkpt lat="43.23359" lon="3.06971">
        <ele>53.446235</ele>
        <time>2023-01-07T11:47:00.076Z</time>
      </trkpt>
      <trkpt lat="43.23357" lon="3.06989">
        <ele>53.530847</ele>
        <time>2023-01-07T11:47:03.083Z</time>
      </trkpt>
      <trkpt lat="43.23354" lon="3.07007">
        <ele>53.615262</ele>
        <time>2023-01-07T11:47:06.071Z</time>
      </trkpt>
      <trkpt lat="43.23351" lon="3.07025">
        <ele>53.699648</ele>
        <time>2023-01-07T11:47:09.089Z</time>
      </trkpt>
      <trkpt lat="43.2335" lon="3.07037">
        <ele>53.756956</ele>
        <time>2023-01-07T11:47:11.094Z</time>
      </trkpt>
      <trkpt lat="43.23348" lon="3.0705">
        <ele>53.818423</ele>
        <time>2023-01-07T11:47:13.069Z</time>
      </trkpt>
      <trkpt lat="43.23345" lon="3.07062">
        <ele>53.877136</ele>
        <time>2023-01-07T11:47:15.075Z</time>
      </trkpt>
      <trkpt lat="43.23344" lon="3.07075">
        <ele>53.937907</ele>
        <time>2023-01-07T11:47:17.085Z</time>
      </trkpt>
      <trkpt lat="43.23342" lon="3.07087">
        <ele>53.999688</ele>
        <time>2023-01-07T11:47:19.087Z</time>
      </trkpt>
      <trkpt lat="43.23339" lon="3.07105">
        <ele>54.08869</ele>
        <time>2023-01-07T11:47:22.084Z</time>
      </trkpt>
      <trkpt lat="43.23336" lon="3.07122">
        <ele>54.173687</ele>
        <time>2023-01-07T11:47:25.085Z</time>
      </trkpt>
      <trkpt lat="43.23334" lon="3.07139">
        <ele>54.261055</ele>
        <time>2023-01-07T11:47:28.065Z</time>
      </trkpt>
      <trkpt lat="43.23332" lon="3.07157">
        <ele>54.350239</ele>
        <time>2023-01-07T11:47:31.081Z</time>
      </trkpt>
      <trkpt lat="43.23331" lon="3.07175">
        <ele>54.437361</ele>
        <time>2023-01-07T11:47:34.067Z</time>
      </trkpt>
      <trkpt lat="43.23331" lon="3.07193">
        <ele>54.52833</ele>
        <time>2023-01-07T11:47:37.084Z</time>
      </trkpt>
      <trkpt lat="43.23331" lon="3.0721">
        <ele>54.612813</ele>
        <time>2023-01-07T11:47:40.079Z</time>
      </trkpt>
      <trkpt lat="43.23333" lon="3.07224">
        <ele>54.686109</ele>
        <time>2023-01-07T11:47:43.076Z</time>
      </trkpt>
      <trkpt lat="43.23335" lon="3.07239">
        <ele>54.756717</ele>
        <time>2023-01-07T11:47:46.083Z</time>
      </trkpt>
      <trkpt lat="43.23338" lon="3.07252">
        <ele>54.826973</ele>
        <time>2023-01-07T11:47:49.075Z</time>
      </trkpt>
      <trkpt lat="43.23341" lon="3.07265">
        <ele>54.895022</ele>
        <time>2023-01-07T11:47:52.082Z</time>
      </trkpt>
      <trkpt lat="43.23343" lon="3.07279">
        <ele>54.966094</ele>
        <time>2023-01-07T11:47:55.074Z</time>
      </trkpt>
      <trkpt lat="43.23345" lon="3.07292">
        <ele>55.030015</ele>
        <time>2023-01-07T11:47:58.087Z</time>
      </trkpt>
      <trkpt lat="43.23346" lon="3.07306">
        <ele>55.099887</ele>
        <time>2023-01-07T11:48:01.085Z</time>
      </trkpt>
      <trkpt lat="43.23345" lon="3.07322">
        <ele>55.22671</ele>
        <time>2023-01-07T11:48:04.066Z</time>
      </trkpt>
      <trkpt lat="43.23344" lon="3.07337">
        <ele>55.441063</ele>
        <time>2023-01-07T11:48:07.084Z</time>
      </trkpt>
      <trkpt lat="43.23343" lon="3.07352">
        <ele>55.649152</ele>
        <time>2023-01-07T11:48:10.072Z</time>
      </trkpt>
      <trkpt lat="43.23342" lon="3.07368">
        <ele>55.866518</ele>
        <time>2023-01-07T11:48:13.068Z</time>
      </trkpt>
      <trkpt lat="43.23342" lon="3.07384">
        <ele>56.086137</ele>
        <time>2023-01-07T11:48:16.079Z</time>
      </trkpt>
      <trkpt lat="43.23342" lon="3.074">
        <ele>56.311339</ele>
        <time>2023-01-07T11:48:19.080Z</time>
      </trkpt>
      <trkpt lat="43.23341" lon="3.07416">
        <ele>56.525735</ele>
        <time>2023-01-07T11:48:22.084Z</time>
      </trkpt>
      <trkpt lat="43.23342" lon="3.07431">
        <ele>56.732638</ele>
        <time>2023-01-07T11:48:25.072Z</time>
      </trkpt>
      <trkpt lat="43.23342" lon="3.07446">
        <ele>56.933046</ele>
        <time>2023-01-07T11:48:28.069Z</time>
      </trkpt>
      <trkpt lat="43.23342" lon="3.07461">
        <ele>57.143102</ele>
        <time>2023-01-07T11:48:31.079Z</time>
      </trkpt>
      <trkpt lat="43.23342" lon="3.07477">
        <ele>57.364094</ele>
        <time>2023-01-07T11:48:34.070Z</time>
      </trkpt>
      <trkpt lat="43.23343" lon="3.07493">
        <ele>57.578323</ele>
        <time>2023-01-07T11:48:37.079Z</time>
      </trkpt>
      <trkpt lat="43.23343" lon="3.07507">
        <ele>57.778705</ele>
        <time>2023-01-07T11:48:40.077Z</time>
      </trkpt>
      <trkpt lat="43.23342" lon="3.07523">
        <ele>57.992836</ele>
        <time>2023-01-07T11:48:43.073Z</time>
      </trkpt>
      <trkpt lat="43.23342" lon="3.07538">
        <ele>58.208314</ele>
        <time>2023-01-07T11:48:46.081Z</time>
      </trkpt>
      <trkpt lat="43.23343" lon="3.07554">
        <ele>58.422485</ele>
        <time>2023-01-07T11:48:49.077Z</time>
      </trkpt>
      <trkpt lat="43.23343" lon="3.07569">
        <ele>58.51884</ele>
        <time>2023-01-07T11:48:52.078Z</time>
      </trkpt>
      <trkpt lat="43.23343" lon="3.07585">
        <ele>58.481522</ele>
        <time>2023-01-07T11:48:55.089Z</time>
      </trkpt>
      <trkpt lat="43.23343" lon="3.076">
        <ele>58.44493</ele>
        <time>2023-01-07T11:48:58.085Z</time>
      </trkpt>
      <trkpt lat="43.23344" lon="3.07616">
        <ele>58.406824</ele>
        <time>2023-01-07T11:49:01.085Z</time>
      </trkpt>
      <trkpt lat="43.23344" lon="3.07632">
        <ele>58.368754</ele>
        <time>2023-01-07T11:49:04.069Z</time>
      </trkpt>
      <trkpt lat="43.23345" lon="3.07647">
        <ele>58.33262</ele>
        <time>2023-01-07T11:49:07.076Z</time>
      </trkpt>
      <trkpt lat="43.23345" lon="3.07662">
        <ele>58.294825</ele>
        <time>2023-01-07T11:49:10.075Z</time>
      </trkpt>
      <trkpt lat="43.23344" lon="3.07678">
        <ele>58.256547</ele>
        <time>2023-01-07T11:49:13.078Z</time>
      </trkpt>
      <trkpt lat="43.23344" lon="3.07694">
        <ele>58.217544</ele>
        <time>2023-01-07T11:49:16.078Z</time>
      </trkpt>
      <trkpt lat="43.23343" lon="3.0771">
        <ele>58.179096</ele>
        <time>2023-01-07T11:49:19.083Z</time>
      </trkpt>
      <trkpt lat="43.23342" lon="3.07726">
        <ele>58.140438</ele>
        <time>2023-01-07T11:49:22.072Z</time>
      </trkpt>
      <trkpt lat="43.23341" lon="3.07743">
        <ele>58.10045</ele>
        <time>2023-01-07T11:49:25.084Z</time>
      </trkpt>
      <trkpt lat="43.23339" lon="3.07759">
        <ele>58.059891</ele>
        <time>2023-01-07T11:49:28.083Z</time>
      </trkpt>
      <trkpt lat="43.23336" lon="3.07776">
        <ele>58.019031</ele>
        <time>2023-01-07T11:49:31.075Z</time>
      </trkpt>
      <trkpt lat="43.23333" lon="3.07792">
        <ele>57.979639</ele>
        <time>2023-01-07T11:49:34.084Z</time>
      </trkpt>
      <trkpt lat="43.2333" lon="3.07807">
        <ele>57.9415</ele>
        <time>2023-01-07T11:49:37.078Z</time>
      </trkpt>
      <trkpt lat="43.23327" lon="3.07824">
        <ele>57.913769</ele>
        <time>2023-01-07T11:49:40.082Z</time>
      </trkpt>
      <trkpt lat="43.23325" lon="3.07841">
        <ele>57.885789</ele>
        <time>2023-01-07T11:49:43.084Z</time>
      </trkpt>
      <trkpt lat="43.23322" lon="3.07857">
        <ele>57.858687</ele>
        <time>2023-01-07T11:49:46.072Z</time>
      </trkpt>
      <trkpt lat="43.23319" lon="3.07872">
        <ele>57.832802</ele>
        <time>2023-01-07T11:49:49.073Z</time>
      </trkpt>
      <trkpt lat="43.23317" lon="3.07887">
        <ele>57.808602</ele>
        <time>2023-01-07T11:49:52.080Z</time>
      </trkpt>
      <trkpt lat="43.23315" lon="3.079">
        <ele>57.787138</ele>
        <time>2023-01-07T11:49:55.070Z</time>
      </trkpt>
      <trkpt lat="43.23313" lon="3.07913">
        <ele>57.764206</ele>
        <time>2023-01-07T11:49:58.073Z</time>
      </trkpt>
      <trkpt lat="43.2331" lon="3.07927">
        <ele>57.740612</ele>
        <time>2023-01-07T11:50:01.081Z</time>
      </trkpt>
      <trkpt lat="43.23308" lon="3.07941">
        <ele>57.717509</ele>
        <time>2023-01-07T11:50:04.090Z</time>
      </trkpt>
      <trkpt lat="43.23305" lon="3.07955">
        <ele>57.693882</ele>
        <time>2023-01-07T11:50:07.068Z</time>
      </trkpt>
      <trkpt lat="43.23303" lon="3.0797">
        <ele>57.669139</ele>
        <time>2023-01-07T11:50:10.076Z</time>
      </trkpt>
      <trkpt lat="43.233" lon="3.07985">
        <ele>57.644304</ele>
        <time>2023-01-07T11:50:13.070Z</time>
      </trkpt>
      <trkpt lat="43.23298" lon="3.07999">
        <ele>57.621155</ele>
        <time>2023-01-07T11:50:16.078Z</time>
      </trkpt>
      <trkpt lat="43.23296" lon="3.08013">
        <ele>57.597892</ele>
        <time>2023-01-07T11:50:19.069Z</time>
      </trkpt>
      <trkpt lat="43.23293" lon="3.08027">
        <ele>57.574852</ele>
        <time>2023-01-07T11:50:22.075Z</time>
      </trkpt>
      <trkpt lat="43.23291" lon="3.0804">
        <ele>57.55192</ele>
        <time>2023-01-07T11:50:25.068Z</time>
      </trkpt>
      <trkpt lat="43.23289" lon="3.08053">
        <ele>57.78676</ele>
        <time>2023-01-07T11:50:28.082Z</time>
      </trkpt>
      <trkpt lat="43.23287" lon="3.08066">
        <ele>58.322938</ele>
        <time>2023-01-07T11:50:31.075Z</time>
      </trkpt>
      <trkpt lat="43.23285" lon="3.08081">
        <ele>58.937344</ele>
        <time>2023-01-07T11:50:35.078Z</time>
      </trkpt>
      <trkpt lat="43.23283" lon="3.08095">
        <ele>59.535557</ele>
        <time>2023-01-07T11:50:39.080Z</time>
      </trkpt>
      <trkpt lat="43.23282" lon="3.08108">
        <ele>60.080658</ele>
        <time>2023-01-07T11:50:43.078Z</time>
      </trkpt>
      <trkpt lat="43.23279" lon="3.08124">
        <ele>60.727499</ele>
        <time>2023-01-07T11:50:48.081Z</time>
      </trkpt>
      <trkpt lat="43.23278" lon="3.08139">
        <ele>61.355129</ele>
        <time>2023-01-07T11:50:53.073Z</time>
      </trkpt>
      <trkpt lat="43.23276" lon="3.08154">
        <ele>61.990909</ele>
        <time>2023-01-07T11:50:58.071Z</time>
      </trkpt>
      <trkpt lat="43.23275" lon="3.08167">
        <ele>62.525421</ele>
        <time>2023-01-07T11:51:03.075Z</time>
      </trkpt>
      <trkpt lat="43.23273" lon="3.08181">
        <ele>63.127691</ele>
        <time>2023-01-07T11:51:08.074Z</time>
      </trkpt>
      <trkpt lat="43.23273" lon="3.08195">
        <ele>63.693307</ele>
        <time>2023-01-07T11:51:13.076Z</time>
      </trkpt>
      <trkpt lat="43.23272" lon="3.08209">
        <ele>64.274079</ele>
        <time>2023-01-07T11:51:18.079Z</time>
      </trkpt>
      <trkpt lat="43.23271" lon="3.08222">
        <ele>64.834311</ele>
        <time>2023-01-07T11:51:23.081Z</time>
      </trkpt>
      <trkpt lat="43.2327" lon="3.08236">
        <ele>65.413641</ele>
        <time>2023-01-07T11:51:28.069Z</time>
      </trkpt>
      <trkpt lat="43.23269" lon="3.08251">
        <ele>66.016136</ele>
        <time>2023-01-07T11:51:33.075Z</time>
      </trkpt>
      <trkpt lat="43.23268" lon="3.08265">
        <ele>66.591378</ele>
        <time>2023-01-07T11:51:38.075Z</time>
      </trkpt>
      <trkpt lat="43.23266" lon="3.08279">
        <ele>67.185499</ele>
        <time>2023-01-07T11:51:43.071Z</time>
      </trkpt>
      <trkpt lat="43.23265" lon="3.08292">
        <ele>67.730803</ele>
        <time>2023-01-07T11:51:48.071Z</time>
      </trkpt>
      <trkpt lat="43.23264" lon="3.08306">
        <ele>67.692175</ele>
        <time>2023-01-07T11:51:53.062Z</time>
      </trkpt>
      <trkpt lat="43.23263" lon="3.08321">
        <ele>67.648631</ele>
        <time>2023-01-07T11:51:58.072Z</time>
      </trkpt>
      <trkpt lat="43.23262" lon="3.08334">
        <ele>67.612509</ele>
        <time>2023-01-07T11:52:02.082Z</time>
      </trkpt>
      <trkpt lat="43.2326" lon="3.08347">
        <ele>67.576787</ele>
        <time>2023-01-07T11:52:06.073Z</time>
      </trkpt>
      <trkpt lat="43.2326" lon="3.08361">
        <ele>67.536664</ele>
        <time>2023-01-07T11:52:10.070Z</time>
      </trkpt>
      <trkpt lat="43.23258" lon="3.08376">
        <ele>67.495619</ele>
        <time>2023-01-07T11:52:14.064Z</time>
      </trkpt>
      <trkpt lat="43.23258" lon="3.08389">
        <ele>67.456942</ele>
        <time>2023-01-07T11:52:18.066Z</time>
      </trkpt>
      <trkpt lat="43.23258" lon="3.08403">
        <ele>67.41985</ele>
        <time>2023-01-07T11:52:22.065Z</time>
      </trkpt>
      <trkpt lat="43.23257" lon="3.08416">
        <ele>67.383645</ele>
        <time>2023-01-07T11:52:26.075Z</time>
      </trkpt>
      <trkpt lat="43.23257" lon="3.08441">
        <ele>67.313576</ele>
        <time>2023-01-07T11:57:22.147Z</time>
      </trkpt>
      <trkpt lat="43.23256" lon="3.08455">
        <ele>67.271698</ele>
        <time>2023-01-07T11:57:26.090Z</time>
      </trkpt>
      <trkpt lat="43.23255" lon="3.08469">
        <ele>67.233304</ele>
        <time>2023-01-07T11:57:29.070Z</time>
      </trkpt>
      <trkpt lat="43.23254" lon="3.08483">
        <ele>67.194839</ele>
        <time>2023-01-07T11:57:32.101Z</time>
      </trkpt>
      <trkpt lat="43.23253" lon="3.08496">
        <ele>67.155972</ele>
        <time>2023-01-07T11:57:35.088Z</time>
      </trkpt>
      <trkpt lat="43.23252" lon="3.08511">
        <ele>67.115027</ele>
        <time>2023-01-07T11:57:38.066Z</time>
      </trkpt>
      <trkpt lat="43.23251" lon="3.08526">
        <ele>67.071975</ele>
        <time>2023-01-07T11:57:41.095Z</time>
      </trkpt>
      <trkpt lat="43.2325" lon="3.08542">
        <ele>67.027321</ele>
        <time>2023-01-07T11:57:44.073Z</time>
      </trkpt>
      <trkpt lat="43.2325" lon="3.08557">
        <ele>66.984673</ele>
        <time>2023-01-07T11:57:47.098Z</time>
      </trkpt>
      <trkpt lat="43.23249" lon="3.08571">
        <ele>66.942393</ele>
        <time>2023-01-07T11:57:50.085Z</time>
      </trkpt>
      <trkpt lat="43.23248" lon="3.08586">
        <ele>66.900219</ele>
        <time>2023-01-07T11:57:53.068Z</time>
      </trkpt>
      <trkpt lat="43.23246" lon="3.08601">
        <ele>66.85686</ele>
        <time>2023-01-07T11:57:56.090Z</time>
      </trkpt>
      <trkpt lat="43.23244" lon="3.08616">
        <ele>66.812563</ele>
        <time>2023-01-07T11:57:59.098Z</time>
      </trkpt>
      <trkpt lat="43.23241" lon="3.08631">
        <ele>66.768867</ele>
        <time>2023-01-07T11:58:02.096Z</time>
      </trkpt>
      <trkpt lat="43.23239" lon="3.08645">
        <ele>66.724998</ele>
        <time>2023-01-07T11:58:05.093Z</time>
      </trkpt>
      <trkpt lat="43.23236" lon="3.08661">
        <ele>66.679636</ele>
        <time>2023-01-07T11:58:08.095Z</time>
      </trkpt>
      <trkpt lat="43.23233" lon="3.08676">
        <ele>66.633539</ele>
        <time>2023-01-07T11:58:11.076Z</time>
      </trkpt>
      <trkpt lat="43.23229" lon="3.08692">
        <ele>66.586127</ele>
        <time>2023-01-07T11:58:14.066Z</time>
      </trkpt>
      <trkpt lat="43.23226" lon="3.08707">
        <ele>66.539549</ele>
        <time>2023-01-07T11:58:17.076Z</time>
      </trkpt>
      <trkpt lat="43.23223" lon="3.08723">
        <ele>66.492866</ele>
        <time>2023-01-07T11:58:20.094Z</time>
      </trkpt>
      <trkpt lat="43.2322" lon="3.08739">
        <ele>66.446769</ele>
        <time>2023-01-07T11:58:23.095Z</time>
      </trkpt>
      <trkpt lat="43.23217" lon="3.08754">
        <ele>66.401407</ele>
        <time>2023-01-07T11:58:26.093Z</time>
      </trkpt>
      <trkpt lat="43.23214" lon="3.08769">
        <ele>66.355939</ele>
        <time>2023-01-07T11:58:29.089Z</time>
      </trkpt>
      <trkpt lat="43.23211" lon="3.08783">
        <ele>66.268765</ele>
        <time>2023-01-07T11:58:32.081Z</time>
      </trkpt>
      <trkpt lat="43.23207" lon="3.08799">
        <ele>66.098641</ele>
        <time>2023-01-07T11:58:35.064Z</time>
      </trkpt>
      <trkpt lat="43.23204" lon="3.08815">
        <ele>65.919383</ele>
        <time>2023-01-07T11:58:38.080Z</time>
      </trkpt>
      <trkpt lat="43.232" lon="3.08831">
        <ele>65.734817</ele>
        <time>2023-01-07T11:58:41.074Z</time>
      </trkpt>
      <trkpt lat="43.23196" lon="3.08848">
        <ele>65.546232</ele>
        <time>2023-01-07T11:58:44.088Z</time>
      </trkpt>
      <trkpt lat="43.23193" lon="3.08865">
        <ele>65.358816</ele>
        <time>2023-01-07T11:58:47.070Z</time>
      </trkpt>
      <trkpt lat="43.23189" lon="3.08882">
        <ele>65.168945</ele>
        <time>2023-01-07T11:58:50.076Z</time>
      </trkpt>
      <trkpt lat="43.23185" lon="3.08899">
        <ele>64.982133</ele>
        <time>2023-01-07T11:58:53.080Z</time>
      </trkpt>
      <trkpt lat="43.23181" lon="3.08916">
        <ele>64.795909</ele>
        <time>2023-01-07T11:58:56.085Z</time>
      </trkpt>
      <trkpt lat="43.23178" lon="3.08934">
        <ele>64.596836</ele>
        <time>2023-01-07T11:58:59.089Z</time>
      </trkpt>
      <trkpt lat="43.23175" lon="3.08946">
        <ele>64.462558</ele>
        <time>2023-01-07T11:59:01.077Z</time>
      </trkpt>
      <trkpt lat="43.23172" lon="3.08963">
        <ele>64.276714</ele>
        <time>2023-01-07T11:59:04.090Z</time>
      </trkpt>
      <trkpt lat="43.23168" lon="3.08979">
        <ele>64.09049</ele>
        <time>2023-01-07T11:59:07.099Z</time>
      </trkpt>
      <trkpt lat="43.23164" lon="3.08997">
        <ele>63.894918</ele>
        <time>2023-01-07T11:59:10.093Z</time>
      </trkpt>
      <trkpt lat="43.23162" lon="3.09009">
        <ele>63.755527</ele>
        <time>2023-01-07T11:59:12.136Z</time>
      </trkpt>
      <trkpt lat="43.23158" lon="3.09027">
        <ele>63.715371</ele>
        <time>2023-01-07T11:59:15.082Z</time>
      </trkpt>
      <trkpt lat="43.23156" lon="3.09039">
        <ele>63.728777</ele>
        <time>2023-01-07T11:59:17.078Z</time>
      </trkpt>
      <trkpt lat="43.23153" lon="3.09051">
        <ele>63.742887</ele>
        <time>2023-01-07T11:59:19.096Z</time>
      </trkpt>
      <trkpt lat="43.2315" lon="3.09064">
        <ele>63.757454</ele>
        <time>2023-01-07T11:59:21.078Z</time>
      </trkpt>
      <trkpt lat="43.23148" lon="3.09077">
        <ele>63.771633</ele>
        <time>2023-01-07T11:59:23.071Z</time>
      </trkpt>
      <trkpt lat="43.23145" lon="3.09089">
        <ele>63.78548</ele>
        <time>2023-01-07T11:59:25.078Z</time>
      </trkpt>
      <trkpt lat="43.23142" lon="3.09106">
        <ele>63.804376</ele>
        <time>2023-01-07T11:59:28.096Z</time>
      </trkpt>
      <trkpt lat="43.23139" lon="3.09118">
        <ele>63.818486</ele>
        <time>2023-01-07T11:59:30.095Z</time>
      </trkpt>
      <trkpt lat="43.23137" lon="3.09131">
        <ele>63.8323</ele>
        <time>2023-01-07T11:59:32.097Z</time>
      </trkpt>
      <trkpt lat="43.23134" lon="3.09143">
        <ele>63.846058</ele>
        <time>2023-01-07T11:59:34.089Z</time>
      </trkpt>
      <trkpt lat="43.23132" lon="3.09155">
        <ele>63.85971</ele>
        <time>2023-01-07T11:59:36.093Z</time>
      </trkpt>
      <trkpt lat="43.23129" lon="3.09167">
        <ele>63.8733</ele>
        <time>2023-01-07T11:59:38.074Z</time>
      </trkpt>
      <trkpt lat="43.23126" lon="3.09179">
        <ele>63.887384</ele>
        <time>2023-01-07T11:59:40.091Z</time>
      </trkpt>
      <trkpt lat="43.23123" lon="3.09192">
        <ele>63.901494</ele>
        <time>2023-01-07T11:59:42.079Z</time>
      </trkpt>
      <trkpt lat="43.23121" lon="3.09204">
        <ele>63.915042</ele>
        <time>2023-01-07T11:59:44.098Z</time>
      </trkpt>
      <trkpt lat="43.23118" lon="3.09216">
        <ele>63.929152</ele>
        <time>2023-01-07T11:59:46.085Z</time>
      </trkpt>
      <trkpt lat="43.23114" lon="3.09234">
        <ele>63.948957</ele>
        <time>2023-01-07T11:59:49.088Z</time>
      </trkpt>
      <trkpt lat="43.2311" lon="3.09251">
        <ele>63.967882</ele>
        <time>2023-01-07T11:59:52.079Z</time>
      </trkpt>
      <trkpt lat="43.23106" lon="3.09263">
        <ele>63.90646</ele>
        <time>2023-01-07T11:59:54.065Z</time>
      </trkpt>
      <trkpt lat="43.23103" lon="3.09275">
        <ele>63.844818</ele>
        <time>2023-01-07T11:59:56.085Z</time>
      </trkpt>
      <trkpt lat="43.231" lon="3.09286">
        <ele>63.784328</ele>
        <time>2023-01-07T11:59:58.084Z</time>
      </trkpt>
      <trkpt lat="43.23094" lon="3.09303">
        <ele>63.692382</ele>
        <time>2023-01-07T12:00:01.085Z</time>
      </trkpt>
      <trkpt lat="43.23089" lon="3.09314">
        <ele>63.626949</ele>
        <time>2023-01-07T12:00:03.086Z</time>
      </trkpt>
      <trkpt lat="43.23084" lon="3.09326">
        <ele>63.561386</ele>
        <time>2023-01-07T12:00:05.078Z</time>
      </trkpt>
      <trkpt lat="43.23078" lon="3.09337">
        <ele>63.493325</ele>
        <time>2023-01-07T12:00:07.083Z</time>
      </trkpt>
      <trkpt lat="43.23072" lon="3.0935">
        <ele>63.421415</ele>
        <time>2023-01-07T12:00:10.080Z</time>
      </trkpt>
      <trkpt lat="43.23067" lon="3.09361">
        <ele>63.355255</ele>
        <time>2023-01-07T12:00:13.074Z</time>
      </trkpt>
      <trkpt lat="43.23058" lon="3.09372">
        <ele>63.272784</ele>
        <time>2023-01-07T12:00:16.078Z</time>
      </trkpt>
      <trkpt lat="43.23051" lon="3.09386">
        <ele>63.194425</ele>
        <time>2023-01-07T12:00:19.090Z</time>
      </trkpt>
      <trkpt lat="43.23044" lon="3.094">
        <ele>63.109637</ele>
        <time>2023-01-07T12:00:22.096Z</time>
      </trkpt>
      <trkpt lat="43.2304" lon="3.09415">
        <ele>63.031761</ele>
        <time>2023-01-07T12:00:25.096Z</time>
      </trkpt>
      <trkpt lat="43.23037" lon="3.0943">
        <ele>62.956236</ele>
        <time>2023-01-07T12:00:28.099Z</time>
      </trkpt>
      <trkpt lat="43.23037" lon="3.09445">
        <ele>62.882234</ele>
        <time>2023-01-07T12:00:31.079Z</time>
      </trkpt>
      <trkpt lat="43.23039" lon="3.0946">
        <ele>62.808625</ele>
        <time>2023-01-07T12:00:34.084Z</time>
      </trkpt>
      <trkpt lat="43.23044" lon="3.09473">
        <ele>62.858225</ele>
        <time>2023-01-07T12:00:37.085Z</time>
      </trkpt>
      <trkpt lat="43.23051" lon="3.09487">
        <ele>63.175831</ele>
        <time>2023-01-07T12:00:40.093Z</time>
      </trkpt>
      <trkpt lat="43.23057" lon="3.09501">
        <ele>63.494869</ele>
        <time>2023-01-07T12:00:43.097Z</time>
      </trkpt>
      <trkpt lat="43.23064" lon="3.09514">
        <ele>63.813547</ele>
        <time>2023-01-07T12:00:46.089Z</time>
      </trkpt>
      <trkpt lat="43.2307" lon="3.09528">
        <ele>64.11602</ele>
        <time>2023-01-07T12:00:49.095Z</time>
      </trkpt>
      <trkpt lat="43.23075" lon="3.09541">
        <ele>64.408422</ele>
        <time>2023-01-07T12:00:52.098Z</time>
      </trkpt>
      <trkpt lat="43.2308" lon="3.09554">
        <ele>64.686881</ele>
        <time>2023-01-07T12:00:55.090Z</time>
      </trkpt>
      <trkpt lat="43.23086" lon="3.09565">
        <ele>64.951404</ele>
        <time>2023-01-07T12:00:58.094Z</time>
      </trkpt>
      <trkpt lat="43.23091" lon="3.09576">
        <ele>65.209447</ele>
        <time>2023-01-07T12:01:01.093Z</time>
      </trkpt>
      <trkpt lat="43.23098" lon="3.09588">
        <ele>65.484585</ele>
        <time>2023-01-07T12:01:04.098Z</time>
      </trkpt>
      <trkpt lat="43.23104" lon="3.09598">
        <ele>65.756164</ele>
        <time>2023-01-07T12:01:07.095Z</time>
      </trkpt>
      <trkpt lat="43.23112" lon="3.09609">
        <ele>66.028821</ele>
        <time>2023-01-07T12:01:10.090Z</time>
      </trkpt>
      <trkpt lat="43.23119" lon="3.09619">
        <ele>66.30748</ele>
        <time>2023-01-07T12:01:13.089Z</time>
      </trkpt>
      <trkpt lat="43.23127" lon="3.0963">
        <ele>66.603121</ele>
        <time>2023-01-07T12:01:16.095Z</time>
      </trkpt>
      <trkpt lat="43.23135" lon="3.09641">
        <ele>66.901986</ele>
        <time>2023-01-07T12:01:19.084Z</time>
      </trkpt>
      <trkpt lat="43.23144" lon="3.09652">
        <ele>67.216202</ele>
        <time>2023-01-07T12:01:22.097Z</time>
      </trkpt>
      <trkpt lat="43.23152" lon="3.09664">
        <ele>67.532926</ele>
        <time>2023-01-07T12:01:25.097Z</time>
      </trkpt>
      <trkpt lat="43.2316" lon="3.09675">
        <ele>67.837661</ele>
        <time>2023-01-07T12:01:28.097Z</time>
      </trkpt>
      <trkpt lat="43.23169" lon="3.09686">
        <ele>68.135704</ele>
        <time>2023-01-07T12:01:31.098Z</time>
      </trkpt>
      <trkpt lat="43.23177" lon="3.09697">
        <ele>68.441795</ele>
        <time>2023-01-07T12:01:34.086Z</time>
      </trkpt>
      <trkpt lat="43.23185" lon="3.09708">
        <ele>68.733408</ele>
        <time>2023-01-07T12:01:37.085Z</time>
      </trkpt>
      <trkpt lat="43.23192" lon="3.09719">
        <ele>69.024875</ele>
        <time>2023-01-07T12:01:40.095Z</time>
      </trkpt>
      <trkpt lat="43.232" lon="3.09729">
        <ele>69.312737</ele>
        <time>2023-01-07T12:01:43.092Z</time>
      </trkpt>
      <trkpt lat="43.23208" lon="3.0974">
        <ele>69.598261</ele>
        <time>2023-01-07T12:01:46.097Z</time>
      </trkpt>
      <trkpt lat="43.23216" lon="3.0975">
        <ele>69.880097</ele>
        <time>2023-01-07T12:01:49.099Z</time>
      </trkpt>
      <trkpt lat="43.23223" lon="3.0976">
        <ele>70.140963</ele>
        <time>2023-01-07T12:01:52.098Z</time>
      </trkpt>
      <trkpt lat="43.2323" lon="3.09769">
        <ele>70.39967</ele>
        <time>2023-01-07T12:01:55.094Z</time>
      </trkpt>
      <trkpt lat="43.23238" lon="3.09778">
        <ele>70.676617</ele>
        <time>2023-01-07T12:01:58.089Z</time>
      </trkpt>
      <trkpt lat="43.23247" lon="3.09788">
        <ele>70.964932</ele>
        <time>2023-01-07T12:02:01.093Z</time>
      </trkpt>
      <trkpt lat="43.23255" lon="3.09797">
        <ele>71.248548</ele>
        <time>2023-01-07T12:02:04.080Z</time>
      </trkpt>
      <trkpt lat="43.23264" lon="3.09806">
        <ele>71.531255</ele>
        <time>2023-01-07T12:02:07.088Z</time>
      </trkpt>
      <trkpt lat="43.23272" lon="3.09815">
        <ele>71.808187</ele>
        <time>2023-01-07T12:02:10.093Z</time>
      </trkpt>
      <trkpt lat="43.2328" lon="3.09824">
        <ele>72.089177</ele>
        <time>2023-01-07T12:02:13.097Z</time>
      </trkpt>
      <trkpt lat="43.23289" lon="3.09833">
        <ele>72.242322</ele>
        <time>2023-01-07T12:02:16.091Z</time>
      </trkpt>
      <trkpt lat="43.23298" lon="3.09842">
        <ele>72.275584</ele>
        <time>2023-01-07T12:02:19.096Z</time>
      </trkpt>
      <trkpt lat="43.23306" lon="3.09851">
        <ele>72.307845</ele>
        <time>2023-01-07T12:02:22.096Z</time>
      </trkpt>
      <trkpt lat="43.23314" lon="3.0986">
        <ele>72.338828</ele>
        <time>2023-01-07T12:02:25.093Z</time>
      </trkpt>
      <trkpt lat="43.23322" lon="3.09868">
        <ele>72.370432</ele>
        <time>2023-01-07T12:02:28.098Z</time>
      </trkpt>
      <trkpt lat="43.2333" lon="3.09877">
        <ele>72.401654</ele>
        <time>2023-01-07T12:02:31.098Z</time>
      </trkpt>
      <trkpt lat="43.23338" lon="3.09886">
        <ele>72.433016</ele>
        <time>2023-01-07T12:02:34.093Z</time>
      </trkpt>
      <trkpt lat="43.23345" lon="3.09896">
        <ele>72.464753</ele>
        <time>2023-01-07T12:02:37.101Z</time>
      </trkpt>
      <trkpt lat="43.23353" lon="3.09905">
        <ele>72.495961</ele>
        <time>2023-01-07T12:02:40.081Z</time>
      </trkpt>
      <trkpt lat="43.2336" lon="3.09915">
        <ele>72.527916</ele>
        <time>2023-01-07T12:02:43.092Z</time>
      </trkpt>
      <trkpt lat="43.23367" lon="3.09925">
        <ele>72.559175</ele>
        <time>2023-01-07T12:02:46.093Z</time>
      </trkpt>
      <trkpt lat="43.23375" lon="3.09937">
        <ele>72.59323</ele>
        <time>2023-01-07T12:02:49.095Z</time>
      </trkpt>
      <trkpt lat="43.23382" lon="3.09947">
        <ele>72.626211</ele>
        <time>2023-01-07T12:02:52.093Z</time>
      </trkpt>
      <trkpt lat="43.23389" lon="3.09958">
        <ele>72.659191</ele>
        <time>2023-01-07T12:02:55.094Z</time>
      </trkpt>
      <trkpt lat="43.23397" lon="3.09969">
        <ele>72.691521</ele>
        <time>2023-01-07T12:02:58.097Z</time>
      </trkpt>
      <trkpt lat="43.23404" lon="3.09979">
        <ele>72.724174</ele>
        <time>2023-01-07T12:03:01.092Z</time>
      </trkpt>
      <trkpt lat="43.23411" lon="3.0999">
        <ele>72.757738</ele>
        <time>2023-01-07T12:03:04.099Z</time>
      </trkpt>
      <trkpt lat="43.23419" lon="3.10001">
        <ele>72.712298</ele>
        <time>2023-01-07T12:03:07.096Z</time>
      </trkpt>
      <trkpt lat="43.23427" lon="3.10012">
        <ele>72.555744</ele>
        <time>2023-01-07T12:03:10.081Z</time>
      </trkpt>
      <trkpt lat="43.23434" lon="3.10025">
        <ele>72.391247</ele>
        <time>2023-01-07T12:03:13.131Z</time>
      </trkpt>
      <trkpt lat="43.23441" lon="3.1004">
        <ele>72.214056</ele>
        <time>2023-01-07T12:03:16.098Z</time>
      </trkpt>
      <trkpt lat="43.23448" lon="3.10056">
        <ele>72.028543</ele>
        <time>2023-01-07T12:03:19.079Z</time>
      </trkpt>
      <trkpt lat="43.23453" lon="3.10068">
        <ele>71.889063</ele>
        <time>2023-01-07T12:03:21.081Z</time>
      </trkpt>
      <trkpt lat="43.23457" lon="3.1008">
        <ele>71.751352</ele>
        <time>2023-01-07T12:03:23.097Z</time>
      </trkpt>
      <trkpt lat="43.23461" lon="3.10092">
        <ele>71.615878</ele>
        <time>2023-01-07T12:03:25.097Z</time>
      </trkpt>
      <trkpt lat="43.23466" lon="3.10106">
        <ele>71.457049</ele>
        <time>2023-01-07T12:03:27.090Z</time>
      </trkpt>
      <trkpt lat="43.2347" lon="3.10121">
        <ele>71.301848</ele>
        <time>2023-01-07T12:03:29.090Z</time>
      </trkpt>
      <trkpt lat="43.23475" lon="3.10134">
        <ele>71.153255</ele>
        <time>2023-01-07T12:03:31.081Z</time>
      </trkpt>
      <trkpt lat="43.23479" lon="3.10148">
        <ele>71.00025</ele>
        <time>2023-01-07T12:03:33.070Z</time>
      </trkpt>
      <trkpt lat="43.23483" lon="3.10162">
        <ele>70.851686</ele>
        <time>2023-01-07T12:03:35.076Z</time>
      </trkpt>
      <trkpt lat="43.23487" lon="3.10176">
        <ele>70.702929</ele>
        <time>2023-01-07T12:03:37.095Z</time>
      </trkpt>
      <trkpt lat="43.23491" lon="3.10189">
        <ele>70.558573</ele>
        <time>2023-01-07T12:03:39.075Z</time>
      </trkpt>
      <trkpt lat="43.23495" lon="3.10202">
        <ele>70.414744</ele>
        <time>2023-01-07T12:03:41.096Z</time>
      </trkpt>
      <trkpt lat="43.23499" lon="3.10213">
        <ele>70.28933</ele>
        <time>2023-01-07T12:03:43.081Z</time>
      </trkpt>
      <trkpt lat="43.23502" lon="3.10225">
        <ele>70.154253</ele>
        <time>2023-01-07T12:03:45.089Z</time>
      </trkpt>
      <trkpt lat="43.23506" lon="3.10237">
        <ele>70.018463</ele>
        <time>2023-01-07T12:03:47.090Z</time>
      </trkpt>
      <trkpt lat="43.2351" lon="3.10255">
        <ele>69.816421</ele>
        <time>2023-01-07T12:03:50.081Z</time>
      </trkpt>
      <trkpt lat="43.23514" lon="3.10267">
        <ele>69.67282</ele>
        <time>2023-01-07T12:03:52.076Z</time>
      </trkpt>
      <trkpt lat="43.23518" lon="3.10279">
        <ele>69.528565</ele>
        <time>2023-01-07T12:03:54.097Z</time>
      </trkpt>
      <trkpt lat="43.23522" lon="3.10292">
        <ele>69.381565</ele>
        <time>2023-01-07T12:03:56.095Z</time>
      </trkpt>
      <trkpt lat="43.23526" lon="3.10304">
        <ele>69.236547</ele>
        <time>2023-01-07T12:03:58.097Z</time>
      </trkpt>
      <trkpt lat="43.2353" lon="3.10317">
        <ele>69.087344</ele>
        <time>2023-01-07T12:04:00.094Z</time>
      </trkpt>
      <trkpt lat="43.23535" lon="3.10329">
        <ele>68.933714</ele>
        <time>2023-01-07T12:04:02.095Z</time>
      </trkpt>
      <trkpt lat="43.23541" lon="3.10341">
        <ele>68.783234</ele>
        <time>2023-01-07T12:04:04.095Z</time>
      </trkpt>
      <trkpt lat="43.23547" lon="3.10353">
        <ele>68.63325</ele>
        <time>2023-01-07T12:04:06.093Z</time>
      </trkpt>
      <trkpt lat="43.23552" lon="3.10365">
        <ele>68.476136</ele>
        <time>2023-01-07T12:04:08.092Z</time>
      </trkpt>
      <trkpt lat="43.23558" lon="3.10378">
        <ele>68.316312</ele>
        <time>2023-01-07T12:04:10.093Z</time>
      </trkpt>
      <trkpt lat="43.23564" lon="3.1039">
        <ele>68.155444</ele>
        <time>2023-01-07T12:04:12.092Z</time>
      </trkpt>
      <trkpt lat="43.23569" lon="3.10403">
        <ele>68.000818</ele>
        <time>2023-01-07T12:04:14.093Z</time>
      </trkpt>
      <trkpt lat="43.23575" lon="3.10416">
        <ele>67.841544</ele>
        <time>2023-01-07T12:04:16.075Z</time>
      </trkpt>
      <trkpt lat="43.23581" lon="3.10429">
        <ele>67.675009</ele>
        <time>2023-01-07T12:04:18.092Z</time>
      </trkpt>
      <trkpt lat="43.23587" lon="3.10441">
        <ele>67.648784</ele>
        <time>2023-01-07T12:04:20.097Z</time>
      </trkpt>
      <trkpt lat="43.23592" lon="3.10452">
        <ele>67.655158</ele>
        <time>2023-01-07T12:04:22.097Z</time>
      </trkpt>
      <trkpt lat="43.23597" lon="3.10463">
        <ele>67.661244</ele>
        <time>2023-01-07T12:04:24.099Z</time>
      </trkpt>
      <trkpt lat="43.23603" lon="3.10475">
        <ele>67.667706</ele>
        <time>2023-01-07T12:04:26.078Z</time>
      </trkpt>
      <trkpt lat="43.23609" lon="3.10486">
        <ele>67.674384</ele>
        <time>2023-01-07T12:04:28.087Z</time>
      </trkpt>
      <trkpt lat="43.23614" lon="3.10498">
        <ele>67.680557</ele>
        <time>2023-01-07T12:04:30.073Z</time>
      </trkpt>
      <trkpt lat="43.23619" lon="3.10509">
        <ele>67.686964</ele>
        <time>2023-01-07T12:04:32.095Z</time>
      </trkpt>
      <trkpt lat="43.23624" lon="3.10521">
        <ele>67.693347</ele>
        <time>2023-01-07T12:04:34.068Z</time>
      </trkpt>
      <trkpt lat="43.2363" lon="3.10532">
        <ele>67.699844</ele>
        <time>2023-01-07T12:04:36.083Z</time>
      </trkpt>
      <trkpt lat="43.23637" lon="3.10548">
        <ele>67.708512</ele>
        <time>2023-01-07T12:04:39.096Z</time>
      </trkpt>
      <trkpt lat="43.23641" lon="3.10559">
        <ele>67.714361</ele>
        <time>2023-01-07T12:04:41.093Z</time>
      </trkpt>
      <trkpt lat="43.23646" lon="3.1057">
        <ele>67.72038</ele>
        <time>2023-01-07T12:04:43.097Z</time>
      </trkpt>
      <trkpt lat="43.23652" lon="3.10581">
        <ele>67.72683</ele>
        <time>2023-01-07T12:04:45.093Z</time>
      </trkpt>
      <trkpt lat="43.23657" lon="3.10592">
        <ele>67.73299</ele>
        <time>2023-01-07T12:04:47.091Z</time>
      </trkpt>
      <trkpt lat="43.23662" lon="3.10604">
        <ele>67.739537</ele>
        <time>2023-01-07T12:04:49.095Z</time>
      </trkpt>
      <trkpt lat="43.23667" lon="3.10615">
        <ele>67.745596</ele>
        <time>2023-01-07T12:04:51.098Z</time>
      </trkpt>
      <trkpt lat="43.23672" lon="3.10626">
        <ele>67.751559</ele>
        <time>2023-01-07T12:04:53.100Z</time>
      </trkpt>
      <trkpt lat="43.23679" lon="3.10641">
        <ele>67.771961</ele>
        <time>2023-01-07T12:04:56.094Z</time>
      </trkpt>
      <trkpt lat="43.23685" lon="3.10655">
        <ele>67.901917</ele>
        <time>2023-01-07T12:04:59.089Z</time>
      </trkpt>
      <trkpt lat="43.23691" lon="3.1067">
        <ele>68.032681</ele>
        <time>2023-01-07T12:05:02.094Z</time>
      </trkpt>
      <trkpt lat="43.23697" lon="3.10685">
        <ele>68.161817</ele>
        <time>2023-01-07T12:05:05.072Z</time>
      </trkpt>
      <trkpt lat="43.23702" lon="3.10701">
        <ele>68.293163</ele>
        <time>2023-01-07T12:05:08.089Z</time>
      </trkpt>
      <trkpt lat="43.23706" lon="3.10717">
        <ele>68.422143</ele>
        <time>2023-01-07T12:05:11.097Z</time>
      </trkpt>
      <trkpt lat="43.23709" lon="3.10731">
        <ele>68.538242</ele>
        <time>2023-01-07T12:05:14.073Z</time>
      </trkpt>
      <trkpt lat="43.23711" lon="3.10745">
        <ele>68.645689</ele>
        <time>2023-01-07T12:05:17.073Z</time>
      </trkpt>
      <trkpt lat="43.23711" lon="3.10759">
        <ele>68.75138</ele>
        <time>2023-01-07T12:05:20.094Z</time>
      </trkpt>
      <trkpt lat="43.23713" lon="3.10772">
        <ele>68.853198</ele>
        <time>2023-01-07T12:05:23.098Z</time>
      </trkpt>
      <trkpt lat="43.23714" lon="3.10785">
        <ele>68.95766</ele>
        <time>2023-01-07T12:05:26.093Z</time>
      </trkpt>
      <trkpt lat="43.23715" lon="3.10801">
        <ele>69.07962</ele>
        <time>2023-01-07T12:05:30.088Z</time>
      </trkpt>
      <trkpt lat="43.23716" lon="3.10816">
        <ele>69.195663</ele>
        <time>2023-01-07T12:05:34.092Z</time>
      </trkpt>
      <trkpt lat="43.23718" lon="3.10829">
        <ele>69.298048</ele>
        <time>2023-01-07T12:05:37.086Z</time>
      </trkpt>
      <trkpt lat="43.23722" lon="3.10841">
        <ele>69.397403</ele>
        <time>2023-01-07T12:05:40.099Z</time>
      </trkpt>
      <trkpt lat="43.23725" lon="3.10854">
        <ele>69.49861</ele>
        <time>2023-01-07T12:05:43.093Z</time>
      </trkpt>
      <trkpt lat="43.23728" lon="3.10867">
        <ele>69.60655</ele>
        <time>2023-01-07T12:05:46.093Z</time>
      </trkpt>
      <trkpt lat="43.23731" lon="3.10883">
        <ele>69.459337</ele>
        <time>2023-01-07T12:05:49.092Z</time>
      </trkpt>
      <trkpt lat="43.23736" lon="3.109">
        <ele>69.083404</ele>
        <time>2023-01-07T12:05:52.093Z</time>
      </trkpt>
      <trkpt lat="43.23739" lon="3.10913">
        <ele>68.818352</ele>
        <time>2023-01-07T12:05:54.076Z</time>
      </trkpt>
      <trkpt lat="43.23743" lon="3.10926">
        <ele>68.537144</ele>
        <time>2023-01-07T12:05:56.093Z</time>
      </trkpt>
      <trkpt lat="43.23748" lon="3.10939">
        <ele>68.233802</ele>
        <time>2023-01-07T12:05:58.096Z</time>
      </trkpt>
      <trkpt lat="43.23753" lon="3.10952">
        <ele>67.931797</ele>
        <time>2023-01-07T12:06:00.078Z</time>
      </trkpt>
      <trkpt lat="43.2376" lon="3.10965">
        <ele>67.622097</ele>
        <time>2023-01-07T12:06:02.103Z</time>
      </trkpt>
      <trkpt lat="43.23765" lon="3.10977">
        <ele>67.325196</ele>
        <time>2023-01-07T12:06:04.092Z</time>
      </trkpt>
      <trkpt lat="43.23771" lon="3.10988">
        <ele>67.066043</ele>
        <time>2023-01-07T12:06:06.089Z</time>
      </trkpt>
      <trkpt lat="43.23776" lon="3.11">
        <ele>66.780488</ele>
        <time>2023-01-07T12:06:08.086Z</time>
      </trkpt>
      <trkpt lat="43.23781" lon="3.1101">
        <ele>66.524806</ele>
        <time>2023-01-07T12:06:10.077Z</time>
      </trkpt>
      <trkpt lat="43.23786" lon="3.11022">
        <ele>66.245503</ele>
        <time>2023-01-07T12:06:12.093Z</time>
      </trkpt>
      <trkpt lat="43.23792" lon="3.11035">
        <ele>65.950296</ele>
        <time>2023-01-07T12:06:14.099Z</time>
      </trkpt>
      <trkpt lat="43.23798" lon="3.11046">
        <ele>65.660275</ele>
        <time>2023-01-07T12:06:16.091Z</time>
      </trkpt>
      <trkpt lat="43.23804" lon="3.11059">
        <ele>65.35849</ele>
        <time>2023-01-07T12:06:18.097Z</time>
      </trkpt>
      <trkpt lat="43.2381" lon="3.11071">
        <ele>65.063671</ele>
        <time>2023-01-07T12:06:20.098Z</time>
      </trkpt>
      <trkpt lat="43.23816" lon="3.11083">
        <ele>64.771982</ele>
        <time>2023-01-07T12:06:22.097Z</time>
      </trkpt>
      <trkpt lat="43.23822" lon="3.11096">
        <ele>64.548941</ele>
        <time>2023-01-07T12:06:24.093Z</time>
      </trkpt>
      <trkpt lat="43.23828" lon="3.11108">
        <ele>64.364853</ele>
        <time>2023-01-07T12:06:26.092Z</time>
      </trkpt>
      <trkpt lat="43.23833" lon="3.1112">
        <ele>64.182774</ele>
        <time>2023-01-07T12:06:28.080Z</time>
      </trkpt>
      <trkpt lat="43.23841" lon="3.11134">
        <ele>63.956903</ele>
        <time>2023-01-07T12:06:31.095Z</time>
      </trkpt>
      <trkpt lat="43.23848" lon="3.11146">
        <ele>63.764467</ele>
        <time>2023-01-07T12:06:34.097Z</time>
      </trkpt>
      <trkpt lat="43.23854" lon="3.11159">
        <ele>63.573005</ele>
        <time>2023-01-07T12:06:38.096Z</time>
      </trkpt>
      <trkpt lat="43.23864" lon="3.11164">
        <ele>63.386318</ele>
        <time>2023-01-07T12:06:42.097Z</time>
      </trkpt>
      <trkpt lat="43.23874" lon="3.11162">
        <ele>63.199408</ele>
        <time>2023-01-07T12:06:45.088Z</time>
      </trkpt>
      <trkpt lat="43.23885" lon="3.11164">
        <ele>63.01695</ele>
        <time>2023-01-07T12:06:48.098Z</time>
      </trkpt>
      <trkpt lat="43.23894" lon="3.11167">
        <ele>62.843441</ele>
        <time>2023-01-07T12:06:51.094Z</time>
      </trkpt>
      <trkpt lat="43.23903" lon="3.11175">
        <ele>62.656658</ele>
        <time>2023-01-07T12:06:55.084Z</time>
      </trkpt>
      <trkpt lat="43.23908" lon="3.11186">
        <ele>62.497453</ele>
        <time>2023-01-07T12:07:12.089Z</time>
      </trkpt>
      <trkpt lat="43.23898" lon="3.11194">
        <ele>62.300156</ele>
        <time>2023-01-07T12:18:55.148Z</time>
      </trkpt>
      <trkpt lat="43.23907" lon="3.1119">
        <ele>62.140589</ele>
        <time>2023-01-07T12:19:06.086Z</time>
      </trkpt>
      <trkpt lat="43.23909" lon="3.11176">
        <ele>61.95874</ele>
        <time>2023-01-07T12:19:11.079Z</time>
      </trkpt>
      <trkpt lat="43.2392" lon="3.1118">
        <ele>61.752947</ele>
        <time>2023-01-07T12:19:16.089Z</time>
      </trkpt>
      <trkpt lat="43.23927" lon="3.11191">
        <ele>61.576802</ele>
        <time>2023-01-07T12:19:19.074Z</time>
      </trkpt>
      <trkpt lat="43.23935" lon="3.11201">
        <ele>61.495642</ele>
        <time>2023-01-07T12:19:22.096Z</time>
      </trkpt>
      <trkpt lat="43.23944" lon="3.11213">
        <ele>61.42567</ele>
        <time>2023-01-07T12:19:25.071Z</time>
      </trkpt>
      <trkpt lat="43.23954" lon="3.11226">
        <ele>61.350079</ele>
        <time>2023-01-07T12:19:28.101Z</time>
      </trkpt>
      <trkpt lat="43.2396" lon="3.11236">
        <ele>61.298182</ele>
        <time>2023-01-07T12:19:30.090Z</time>
      </trkpt>
      <trkpt lat="43.23968" lon="3.11245">
        <ele>61.242319</ele>
        <time>2023-01-07T12:19:32.093Z</time>
      </trkpt>
      <trkpt lat="43.23974" lon="3.11254">
        <ele>61.192475</ele>
        <time>2023-01-07T12:19:34.088Z</time>
      </trkpt>
      <trkpt lat="43.23981" lon="3.11263">
        <ele>61.141359</ele>
        <time>2023-01-07T12:19:36.090Z</time>
      </trkpt>
      <trkpt lat="43.23988" lon="3.11272">
        <ele>61.087125</ele>
        <time>2023-01-07T12:19:38.098Z</time>
      </trkpt>
      <trkpt lat="43.23995" lon="3.11281">
        <ele>61.036031</ele>
        <time>2023-01-07T12:19:40.074Z</time>
      </trkpt>
      <trkpt lat="43.24003" lon="3.11292">
        <ele>60.973884</ele>
        <time>2023-01-07T12:19:43.093Z</time>
      </trkpt>
      <trkpt lat="43.24008" lon="3.11303">
        <ele>60.922826</ele>
        <time>2023-01-07T12:19:46.091Z</time>
      </trkpt>
      <trkpt lat="43.24006" lon="3.11316">
        <ele>60.870751</ele>
        <time>2023-01-07T12:19:49.094Z</time>
      </trkpt>
      <trkpt lat="43.23997" lon="3.11322">
        <ele>60.818167</ele>
        <time>2023-01-07T12:19:54.078Z</time>
      </trkpt>
      <trkpt lat="43.24008" lon="3.11314">
        <ele>60.753197</ele>
        <time>2023-01-07T12:20:25.079Z</time>
      </trkpt>
      <trkpt lat="43.24009" lon="3.11299">
        <ele>60.693414</ele>
        <time>2023-01-07T12:20:29.081Z</time>
      </trkpt>
      <trkpt lat="43.24003" lon="3.11289">
        <ele>60.64138</ele>
        <time>2023-01-07T12:20:32.079Z</time>
      </trkpt>
      <trkpt lat="43.23997" lon="3.1128">
        <ele>60.589518</ele>
        <time>2023-01-07T12:20:35.074Z</time>
      </trkpt>
      <trkpt lat="43.2399" lon="3.11271">
        <ele>60.607237</ele>
        <time>2023-01-07T12:20:38.093Z</time>
      </trkpt>
      <trkpt lat="43.23983" lon="3.11262">
        <ele>60.753747</ele>
        <time>2023-01-07T12:20:41.080Z</time>
      </trkpt>
      <trkpt lat="43.23975" lon="3.1125">
        <ele>60.934829</ele>
        <time>2023-01-07T12:20:45.097Z</time>
      </trkpt>
      <trkpt lat="43.23969" lon="3.11241">
        <ele>61.080206</ele>
        <time>2023-01-07T12:20:48.081Z</time>
      </trkpt>
      <trkpt lat="43.2396" lon="3.1123">
        <ele>61.264049</ele>
        <time>2023-01-07T12:20:52.097Z</time>
      </trkpt>
      <trkpt lat="43.23953" lon="3.11221">
        <ele>61.404788</ele>
        <time>2023-01-07T12:20:55.082Z</time>
      </trkpt>
      <trkpt lat="43.23947" lon="3.11212">
        <ele>61.543929</ele>
        <time>2023-01-07T12:20:58.087Z</time>
      </trkpt>
      <trkpt lat="43.23938" lon="3.11201">
        <ele>61.728576</ele>
        <time>2023-01-07T12:21:02.070Z</time>
      </trkpt>
      <trkpt lat="43.2393" lon="3.1119">
        <ele>61.905302</ele>
        <time>2023-01-07T12:21:06.083Z</time>
      </trkpt>
      <trkpt lat="43.23922" lon="3.11181">
        <ele>62.068366</ele>
        <time>2023-01-07T12:21:10.092Z</time>
      </trkpt>
      <trkpt lat="43.23913" lon="3.11172">
        <ele>62.236571</ele>
        <time>2023-01-07T12:21:14.093Z</time>
      </trkpt>
      <trkpt lat="43.23904" lon="3.11166">
        <ele>62.389867</ele>
        <time>2023-01-07T12:21:18.078Z</time>
      </trkpt>
      <trkpt lat="43.23895" lon="3.11162">
        <ele>62.543578</ele>
        <time>2023-01-07T12:21:22.076Z</time>
      </trkpt>
      <trkpt lat="43.23886" lon="3.11158">
        <ele>62.698543</ele>
        <time>2023-01-07T12:21:26.080Z</time>
      </trkpt>
      <trkpt lat="43.23877" lon="3.11152">
        <ele>62.848555</ele>
        <time>2023-01-07T12:21:31.093Z</time>
      </trkpt>
      <trkpt lat="43.2387" lon="3.11143">
        <ele>62.997686</ele>
        <time>2023-01-07T12:21:37.081Z</time>
      </trkpt>
      <trkpt lat="43.2386" lon="3.11138">
        <ele>63.159616</ele>
        <time>2023-01-07T12:21:42.074Z</time>
      </trkpt>
      <trkpt lat="43.23853" lon="3.11146">
        <ele>63.298748</ele>
        <time>2023-01-07T12:21:47.082Z</time>
      </trkpt>
      <trkpt lat="43.23857" lon="3.11158">
        <ele>63.357819</ele>
        <time>2023-01-07T12:21:52.083Z</time>
      </trkpt>
      <trkpt lat="43.23867" lon="3.11154">
        <ele>63.377019</ele>
        <time>2023-01-07T12:21:56.081Z</time>
      </trkpt>
      <trkpt lat="43.23868" lon="3.11138">
        <ele>63.398512</ele>
        <time>2023-01-07T12:22:00.079Z</time>
      </trkpt>
      <trkpt lat="43.23867" lon="3.11124">
        <ele>63.418383</ele>
        <time>2023-01-07T12:22:04.089Z</time>
      </trkpt>
      <trkpt lat="43.23868" lon="3.1111">
        <ele>63.436877</ele>
        <time>2023-01-07T12:22:08.078Z</time>
      </trkpt>
      <trkpt lat="43.23874" lon="3.11095">
        <ele>63.459734</ele>
        <time>2023-01-07T12:22:12.081Z</time>
      </trkpt>
      <trkpt lat="43.23879" lon="3.11083">
        <ele>63.479773</ele>
        <time>2023-01-07T12:22:15.082Z</time>
      </trkpt>
      <trkpt lat="43.23887" lon="3.11069">
        <ele>63.502959</ele>
        <time>2023-01-07T12:22:19.072Z</time>
      </trkpt>
      <trkpt lat="43.23893" lon="3.11056">
        <ele>63.52386</ele>
        <time>2023-01-07T12:22:22.081Z</time>
      </trkpt>
      <trkpt lat="43.239" lon="3.11043">
        <ele>63.546082</ele>
        <time>2023-01-07T12:22:25.087Z</time>
      </trkpt>
      <trkpt lat="43.23907" lon="3.1103">
        <ele>63.568076</ele>
        <time>2023-01-07T12:22:28.085Z</time>
      </trkpt>
      <trkpt lat="43.23915" lon="3.11018">
        <ele>63.589813</ele>
        <time>2023-01-07T12:22:31.094Z</time>
      </trkpt>
      <trkpt lat="43.23921" lon="3.11004">
        <ele>63.611077</ele>
        <time>2023-01-07T12:22:34.096Z</time>
      </trkpt>
      <trkpt lat="43.23928" lon="3.10993">
        <ele>63.631236</ele>
        <time>2023-01-07T12:22:37.096Z</time>
      </trkpt>
      <trkpt lat="43.23937" lon="3.10981">
        <ele>63.654421</ele>
        <time>2023-01-07T12:22:40.074Z</time>
      </trkpt>
      <trkpt lat="43.23944" lon="3.10966">
        <ele>63.677723</ele>
        <time>2023-01-07T12:22:43.090Z</time>
      </trkpt>
      <trkpt lat="43.23952" lon="3.10953">
        <ele>63.388728</ele>
        <time>2023-01-07T12:22:46.086Z</time>
      </trkpt>
      <trkpt lat="43.23958" lon="3.10943">
        <ele>63.164864</ele>
        <time>2023-01-07T12:22:48.088Z</time>
      </trkpt>
      <trkpt lat="43.23966" lon="3.1093">
        <ele>62.850559</ele>
        <time>2023-01-07T12:22:51.078Z</time>
      </trkpt>
      <trkpt lat="43.23975" lon="3.10917">
        <ele>62.544041</ele>
        <time>2023-01-07T12:22:54.074Z</time>
      </trkpt>
      <trkpt lat="43.23983" lon="3.10905">
        <ele>62.250059</ele>
        <time>2023-01-07T12:22:57.072Z</time>
      </trkpt>
      <trkpt lat="43.23992" lon="3.10893">
        <ele>61.962015</ele>
        <time>2023-01-07T12:23:00.087Z</time>
      </trkpt>
      <trkpt lat="43.23999" lon="3.10882">
        <ele>61.689196</ele>
        <time>2023-01-07T12:23:03.074Z</time>
      </trkpt>
      <trkpt lat="43.24008" lon="3.10874">
        <ele>61.436311</ele>
        <time>2023-01-07T12:23:07.089Z</time>
      </trkpt>
      <trkpt lat="43.24016" lon="3.10877">
        <ele>61.209653</ele>
        <time>2023-01-07T12:23:11.079Z</time>
      </trkpt>
      <trkpt lat="43.24024" lon="3.10887">
        <ele>60.955505</ele>
        <time>2023-01-07T12:23:15.076Z</time>
      </trkpt>
      <trkpt lat="43.24032" lon="3.10896">
        <ele>60.705398</ele>
        <time>2023-01-07T12:23:18.096Z</time>
      </trkpt>
      <trkpt lat="43.24042" lon="3.10907">
        <ele>60.402434</ele>
        <time>2023-01-07T12:23:21.087Z</time>
      </trkpt>
      <trkpt lat="43.24049" lon="3.10916">
        <ele>60.169006</ele>
        <time>2023-01-07T12:23:23.084Z</time>
      </trkpt>
      <trkpt lat="43.24054" lon="3.10927">
        <ele>59.935606</ele>
        <time>2023-01-07T12:23:25.070Z</time>
      </trkpt>
      <trkpt lat="43.24059" lon="3.10938">
        <ele>59.706111</ele>
        <time>2023-01-07T12:23:27.080Z</time>
      </trkpt>
      <trkpt lat="43.24065" lon="3.10949">
        <ele>59.471126</ele>
        <time>2023-01-07T12:23:29.090Z</time>
      </trkpt>
      <trkpt lat="43.2407" lon="3.10959">
        <ele>59.227575</ele>
        <time>2023-01-07T12:23:31.081Z</time>
      </trkpt>
      <trkpt lat="43.24076" lon="3.10969">
        <ele>58.94814</ele>
        <time>2023-01-07T12:23:33.082Z</time>
      </trkpt>
      <trkpt lat="43.24081" lon="3.1098">
        <ele>58.66164</ele>
        <time>2023-01-07T12:23:35.073Z</time>
      </trkpt>
      <trkpt lat="43.24086" lon="3.10991">
        <ele>58.373672</ele>
        <time>2023-01-07T12:23:37.092Z</time>
      </trkpt>
      <trkpt lat="43.24089" lon="3.11003">
        <ele>58.095807</ele>
        <time>2023-01-07T12:23:39.085Z</time>
      </trkpt>
      <trkpt lat="43.24093" lon="3.11015">
        <ele>57.80248</ele>
        <time>2023-01-07T12:23:41.093Z</time>
      </trkpt>
      <trkpt lat="43.241" lon="3.11026">
        <ele>57.480119</ele>
        <time>2023-01-07T12:23:43.079Z</time>
      </trkpt>
      <trkpt lat="43.24107" lon="3.11036">
        <ele>57.182197</ele>
        <time>2023-01-07T12:23:45.091Z</time>
      </trkpt>
      <trkpt lat="43.24114" lon="3.11045">
        <ele>56.88559</ele>
        <time>2023-01-07T12:23:47.095Z</time>
      </trkpt>
      <trkpt lat="43.24123" lon="3.11058">
        <ele>56.469546</ele>
        <time>2023-01-07T12:23:50.100Z</time>
      </trkpt>
      <trkpt lat="43.24131" lon="3.11066">
        <ele>56.177715</ele>
        <time>2023-01-07T12:23:52.083Z</time>
      </trkpt>
      <trkpt lat="43.24141" lon="3.11074">
        <ele>55.839577</ele>
        <time>2023-01-07T12:23:54.093Z</time>
      </trkpt>
      <trkpt lat="43.24147" lon="3.11084">
        <ele>55.54483</ele>
        <time>2023-01-07T12:23:56.085Z</time>
      </trkpt>
      <trkpt lat="43.24155" lon="3.11098">
        <ele>55.151212</ele>
        <time>2023-01-07T12:23:59.093Z</time>
      </trkpt>
      <trkpt lat="43.24159" lon="3.11114">
        <ele>54.786956</ele>
        <time>2023-01-07T12:24:02.077Z</time>
      </trkpt>
      <trkpt lat="43.24163" lon="3.1113">
        <ele>54.396743</ele>
        <time>2023-01-07T12:24:05.077Z</time>
      </trkpt>
      <trkpt lat="43.24167" lon="3.11148">
        <ele>53.988119</ele>
        <time>2023-01-07T12:24:08.081Z</time>
      </trkpt>
      <trkpt lat="43.24171" lon="3.11167">
        <ele>53.837279</ele>
        <time>2023-01-07T12:24:11.082Z</time>
      </trkpt>
      <trkpt lat="43.24174" lon="3.11184">
        <ele>53.831639</ele>
        <time>2023-01-07T12:24:14.072Z</time>
      </trkpt>
      <trkpt lat="43.24177" lon="3.11201">
        <ele>53.826173</ele>
        <time>2023-01-07T12:24:17.087Z</time>
      </trkpt>
      <trkpt lat="43.2418" lon="3.11216">
        <ele>53.821281</ele>
        <time>2023-01-07T12:24:20.095Z</time>
      </trkpt>
      <trkpt lat="43.24182" lon="3.1123">
        <ele>53.816756</ele>
        <time>2023-01-07T12:24:23.102Z</time>
      </trkpt>
      <trkpt lat="43.24185" lon="3.11243">
        <ele>53.812472</ele>
        <time>2023-01-07T12:24:26.077Z</time>
      </trkpt>
      <trkpt lat="43.24188" lon="3.11257">
        <ele>53.807926</ele>
        <time>2023-01-07T12:24:29.072Z</time>
      </trkpt>
      <trkpt lat="43.24192" lon="3.1127">
        <ele>53.803383</ele>
        <time>2023-01-07T12:24:32.066Z</time>
      </trkpt>
      <trkpt lat="43.24194" lon="3.11283">
        <ele>53.799184</ele>
        <time>2023-01-07T12:24:35.091Z</time>
      </trkpt>
      <trkpt lat="43.24203" lon="3.11288">
        <ele>53.795186</ele>
        <time>2023-01-07T12:24:38.083Z</time>
      </trkpt>
      <trkpt lat="43.24212" lon="3.11278">
        <ele>53.790022</ele>
        <time>2023-01-07T12:24:42.081Z</time>
      </trkpt>
      <trkpt lat="43.24218" lon="3.11265">
        <ele>53.785029</ele>
        <time>2023-01-07T12:24:45.075Z</time>
      </trkpt>
      <trkpt lat="43.24225" lon="3.11251">
        <ele>53.779739</ele>
        <time>2023-01-07T12:24:48.078Z</time>
      </trkpt>
      <trkpt lat="43.24233" lon="3.1124">
        <ele>53.774827</ele>
        <time>2023-01-07T12:24:51.073Z</time>
      </trkpt>
      <trkpt lat="43.24241" lon="3.11229">
        <ele>53.770131</ele>
        <time>2023-01-07T12:24:54.074Z</time>
      </trkpt>
      <trkpt lat="43.24247" lon="3.11219">
        <ele>53.765667</ele>
        <time>2023-01-07T12:24:57.071Z</time>
      </trkpt>
      <trkpt lat="43.24254" lon="3.1121">
        <ele>53.74624</ele>
        <time>2023-01-07T12:25:00.079Z</time>
      </trkpt>
      <trkpt lat="43.24263" lon="3.11202">
        <ele>53.699681</ele>
        <time>2023-01-07T12:25:03.075Z</time>
      </trkpt>
      <trkpt lat="43.24272" lon="3.11195">
        <ele>53.649767</ele>
        <time>2023-01-07T12:25:06.088Z</time>
      </trkpt>
      <trkpt lat="43.24282" lon="3.11188">
        <ele>53.599828</ele>
        <time>2023-01-07T12:25:09.073Z</time>
      </trkpt>
      <trkpt lat="43.24291" lon="3.11182">
        <ele>53.554421</ele>
        <time>2023-01-07T12:25:12.076Z</time>
      </trkpt>
      <trkpt lat="43.24277" lon="3.11187">
        <ele>53.486325</ele>
        <time>2023-01-07T12:26:13.081Z</time>
      </trkpt>
      <trkpt lat="43.24267" lon="3.11194">
        <ele>53.437983</ele>
        <time>2023-01-07T12:26:16.091Z</time>
      </trkpt>
      <trkpt lat="43.24258" lon="3.11202">
        <ele>53.387807</ele>
        <time>2023-01-07T12:26:20.081Z</time>
      </trkpt>
      <trkpt lat="43.24251" lon="3.11213">
        <ele>53.342495</ele>
        <time>2023-01-07T12:26:24.082Z</time>
      </trkpt>
      <trkpt lat="43.24254" lon="3.11228">
        <ele>53.292823</ele>
        <time>2023-01-07T12:26:28.070Z</time>
      </trkpt>
      <trkpt lat="43.2426" lon="3.11241">
        <ele>53.239184</ele>
        <time>2023-01-07T12:26:32.076Z</time>
      </trkpt>
      <trkpt lat="43.24266" lon="3.11253">
        <ele>53.19545</ele>
        <time>2023-01-07T12:26:35.083Z</time>
      </trkpt>
      <trkpt lat="43.2427" lon="3.11264">
        <ele>53.153388</ele>
        <time>2023-01-07T12:26:38.083Z</time>
      </trkpt>
      <trkpt lat="43.24275" lon="3.11279">
        <ele>53.099151</ele>
        <time>2023-01-07T12:26:42.082Z</time>
      </trkpt>
      <trkpt lat="43.2428" lon="3.11291">
        <ele>53.053431</ele>
        <time>2023-01-07T12:26:45.090Z</time>
      </trkpt>
      <trkpt lat="43.24286" lon="3.11304">
        <ele>53.003997</ele>
        <time>2023-01-07T12:26:48.079Z</time>
      </trkpt>
      <trkpt lat="43.24292" lon="3.11317">
        <ele>52.955374</ele>
        <time>2023-01-07T12:26:51.084Z</time>
      </trkpt>
      <trkpt lat="43.24299" lon="3.11329">
        <ele>53.038456</ele>
        <time>2023-01-07T12:26:54.079Z</time>
      </trkpt>
      <trkpt lat="43.24305" lon="3.11339">
        <ele>53.110384</ele>
        <time>2023-01-07T12:26:57.092Z</time>
      </trkpt>
      <trkpt lat="43.24311" lon="3.11352">
        <ele>53.199325</ele>
        <time>2023-01-07T12:27:01.087Z</time>
      </trkpt>
      <trkpt lat="43.24318" lon="3.11362">
        <ele>53.277069</ele>
        <time>2023-01-07T12:27:04.093Z</time>
      </trkpt>
      <trkpt lat="43.24325" lon="3.11372">
        <ele>53.352022</ele>
        <time>2023-01-07T12:27:07.078Z</time>
      </trkpt>
      <trkpt lat="43.2433" lon="3.11383">
        <ele>53.427619</ele>
        <time>2023-01-07T12:27:10.079Z</time>
      </trkpt>
      <trkpt lat="43.24332" lon="3.11395">
        <ele>53.496547</ele>
        <time>2023-01-07T12:27:13.074Z</time>
      </trkpt>
      <trkpt lat="43.24332" lon="3.11411">
        <ele>53.582613</ele>
        <time>2023-01-07T12:27:17.074Z</time>
      </trkpt>
      <trkpt lat="43.2433" lon="3.11426">
        <ele>53.67218</ele>
        <time>2023-01-07T12:27:21.071Z</time>
      </trkpt>
      <trkpt lat="43.24329" lon="3.11439">
        <ele>53.741858</ele>
        <time>2023-01-07T12:27:24.093Z</time>
      </trkpt>
      <trkpt lat="43.24329" lon="3.11452">
        <ele>53.815168</ele>
        <time>2023-01-07T12:27:27.073Z</time>
      </trkpt>
      <trkpt lat="43.2433" lon="3.11465">
        <ele>53.890326</ele>
        <time>2023-01-07T12:27:30.073Z</time>
      </trkpt>
      <trkpt lat="43.24331" lon="3.11479">
        <ele>53.968495</ele>
        <time>2023-01-07T12:27:33.086Z</time>
      </trkpt>
      <trkpt lat="43.24333" lon="3.11492">
        <ele>54.040903</ele>
        <time>2023-01-07T12:27:36.073Z</time>
      </trkpt>
      <trkpt lat="43.24334" lon="3.11506">
        <ele>54.119174</ele>
        <time>2023-01-07T12:27:39.079Z</time>
      </trkpt>
      <trkpt lat="43.24336" lon="3.1152">
        <ele>54.197654</ele>
        <time>2023-01-07T12:27:42.078Z</time>
      </trkpt>
      <trkpt lat="43.24339" lon="3.11533">
        <ele>54.277946</ele>
        <time>2023-01-07T12:27:45.079Z</time>
      </trkpt>
      <trkpt lat="43.24345" lon="3.11544">
        <ele>54.320703</ele>
        <time>2023-01-07T12:27:48.084Z</time>
      </trkpt>
      <trkpt lat="43.24347" lon="3.11558">
        <ele>54.264848</ele>
        <time>2023-01-07T12:27:52.078Z</time>
      </trkpt>
      <trkpt lat="43.24343" lon="3.11573">
        <ele>54.205936</ele>
        <time>2023-01-07T12:27:57.087Z</time>
      </trkpt>
      <trkpt lat="43.24337" lon="3.11583">
        <ele>54.153429</ele>
        <time>2023-01-07T12:28:01.088Z</time>
      </trkpt>
      <trkpt lat="43.2433" lon="3.11595">
        <ele>54.097625</ele>
        <time>2023-01-07T12:28:05.087Z</time>
      </trkpt>
      <trkpt lat="43.24324" lon="3.11606">
        <ele>54.038965</ele>
        <time>2023-01-07T12:28:09.069Z</time>
      </trkpt>
      <trkpt lat="43.24318" lon="3.11618">
        <ele>53.983765</ele>
        <time>2023-01-07T12:28:13.087Z</time>
      </trkpt>
      <trkpt lat="43.24311" lon="3.11631">
        <ele>53.922665</ele>
        <time>2023-01-07T12:28:17.078Z</time>
      </trkpt>
      <trkpt lat="43.24305" lon="3.11643">
        <ele>53.86644</ele>
        <time>2023-01-07T12:28:21.084Z</time>
      </trkpt>
      <trkpt lat="43.24303" lon="3.11659">
        <ele>53.804192</ele>
        <time>2023-01-07T12:28:25.081Z</time>
      </trkpt>
      <trkpt lat="43.24303" lon="3.11675">
        <ele>53.74286</ele>
        <time>2023-01-07T12:28:29.094Z</time>
      </trkpt>
      <trkpt lat="43.24305" lon="3.11689">
        <ele>53.688593</ele>
        <time>2023-01-07T12:28:33.090Z</time>
      </trkpt>
      <trkpt lat="43.24307" lon="3.11702">
        <ele>53.638366</ele>
        <time>2023-01-07T12:28:37.081Z</time>
      </trkpt>
      <trkpt lat="43.24309" lon="3.11715">
        <ele>53.587602</ele>
        <time>2023-01-07T12:28:41.094Z</time>
      </trkpt>
      <trkpt lat="43.2431" lon="3.11729">
        <ele>53.530781</ele>
        <time>2023-01-07T12:28:45.086Z</time>
      </trkpt>
      <trkpt lat="43.24312" lon="3.11745">
        <ele>53.467979</ele>
        <time>2023-01-07T12:28:49.074Z</time>
      </trkpt>
      <trkpt lat="43.24314" lon="3.11761">
        <ele>53.406217</ele>
        <time>2023-01-07T12:28:53.072Z</time>
      </trkpt>
      <trkpt lat="43.24315" lon="3.11777">
        <ele>53.363746</ele>
        <time>2023-01-07T12:28:57.083Z</time>
      </trkpt>
      <trkpt lat="43.24315" lon="3.11792">
        <ele>53.334625</ele>
        <time>2023-01-07T12:29:01.073Z</time>
      </trkpt>
      <trkpt lat="43.24317" lon="3.11805">
        <ele>53.310961</ele>
        <time>2023-01-07T12:29:04.088Z</time>
      </trkpt>
      <trkpt lat="43.24317" lon="3.11818">
        <ele>53.286736</ele>
        <time>2023-01-07T12:29:07.074Z</time>
      </trkpt>
      <trkpt lat="43.24319" lon="3.1183">
        <ele>53.263458</ele>
        <time>2023-01-07T12:29:10.092Z</time>
      </trkpt>
      <trkpt lat="43.24321" lon="3.11846">
        <ele>53.233155</ele>
        <time>2023-01-07T12:29:14.071Z</time>
      </trkpt>
      <trkpt lat="43.24323" lon="3.11858">
        <ele>53.210085</ele>
        <time>2023-01-07T12:29:17.069Z</time>
      </trkpt>
      <trkpt lat="43.24328" lon="3.11872">
        <ele>53.180016</ele>
        <time>2023-01-07T12:29:21.084Z</time>
      </trkpt>
      <trkpt lat="43.24332" lon="3.11885">
        <ele>53.154459</ele>
        <time>2023-01-07T12:29:24.075Z</time>
      </trkpt>
      <trkpt lat="43.24337" lon="3.11896">
        <ele>53.129252</ele>
        <time>2023-01-07T12:29:27.072Z</time>
      </trkpt>
      <trkpt lat="43.24341" lon="3.11907">
        <ele>53.105281</ele>
        <time>2023-01-07T12:29:30.071Z</time>
      </trkpt>
      <trkpt lat="43.24346" lon="3.11921">
        <ele>53.076839</ele>
        <time>2023-01-07T12:29:34.079Z</time>
      </trkpt>
      <trkpt lat="43.24351" lon="3.11936">
        <ele>53.046435</ele>
        <time>2023-01-07T12:29:38.084Z</time>
      </trkpt>
      <trkpt lat="43.24356" lon="3.1195">
        <ele>53.01637</ele>
        <time>2023-01-07T12:29:42.086Z</time>
      </trkpt>
      <trkpt lat="43.24361" lon="3.11961">
        <ele>52.992389</ele>
        <time>2023-01-07T12:29:45.083Z</time>
      </trkpt>
      <trkpt lat="43.24369" lon="3.11969">
        <ele>52.966908</ele>
        <time>2023-01-07T12:29:48.083Z</time>
      </trkpt>
      <trkpt lat="43.24377" lon="3.11976">
        <ele>52.943626</ele>
        <time>2023-01-07T12:29:51.079Z</time>
      </trkpt>
      <trkpt lat="43.24387" lon="3.11984">
        <ele>52.910353</ele>
        <time>2023-01-07T12:29:55.072Z</time>
      </trkpt>
      <trkpt lat="43.24395" lon="3.11996">
        <ele>52.860899</ele>
        <time>2023-01-07T12:29:59.084Z</time>
      </trkpt>
      <trkpt lat="43.244" lon="3.12006">
        <ele>52.82181</ele>
        <time>2023-01-07T12:30:02.074Z</time>
      </trkpt>
      <trkpt lat="43.24406" lon="3.12016">
        <ele>52.781228</ele>
        <time>2023-01-07T12:30:05.074Z</time>
      </trkpt>
      <trkpt lat="43.24412" lon="3.12029">
        <ele>52.733591</ele>
        <time>2023-01-07T12:30:09.080Z</time>
      </trkpt>
      <trkpt lat="43.24417" lon="3.12043">
        <ele>52.686665</ele>
        <time>2023-01-07T12:30:13.077Z</time>
      </trkpt>
      <trkpt lat="43.2442" lon="3.12056">
        <ele>52.644822</ele>
        <time>2023-01-07T12:30:16.090Z</time>
      </trkpt>
      <trkpt lat="43.24423" lon="3.12069">
        <ele>52.601725</ele>
        <time>2023-01-07T12:30:19.073Z</time>
      </trkpt>
      <trkpt lat="43.24426" lon="3.12082">
        <ele>52.557059</ele>
        <time>2023-01-07T12:30:23.082Z</time>
      </trkpt>
      <trkpt lat="43.24431" lon="3.12095">
        <ele>52.512374</ele>
        <time>2023-01-07T12:30:27.091Z</time>
      </trkpt>
      <trkpt lat="43.24435" lon="3.12107">
        <ele>52.471701</ele>
        <time>2023-01-07T12:30:31.093Z</time>
      </trkpt>
      <trkpt lat="43.24442" lon="3.12119">
        <ele>52.427408</ele>
        <time>2023-01-07T12:30:35.076Z</time>
      </trkpt>
      <trkpt lat="43.24446" lon="3.12132">
        <ele>52.382084</ele>
        <time>2023-01-07T12:30:39.083Z</time>
      </trkpt>
      <trkpt lat="43.24451" lon="3.12145">
        <ele>52.335397</ele>
        <time>2023-01-07T12:30:43.078Z</time>
      </trkpt>
      <trkpt lat="43.24457" lon="3.12159">
        <ele>52.286781</ele>
        <time>2023-01-07T12:30:47.078Z</time>
      </trkpt>
      <trkpt lat="43.24462" lon="3.12172">
        <ele>52.240179</ele>
        <time>2023-01-07T12:30:51.081Z</time>
      </trkpt>
      <trkpt lat="43.24466" lon="3.12184">
        <ele>52.197948</ele>
        <time>2023-01-07T12:30:55.079Z</time>
      </trkpt>
      <trkpt lat="43.24471" lon="3.12195">
        <ele>52.158077</ele>
        <time>2023-01-07T12:30:59.069Z</time>
      </trkpt>
      <trkpt lat="43.2448" lon="3.12206">
        <ele>52.223017</ele>
        <time>2023-01-07T12:31:03.075Z</time>
      </trkpt>
      <trkpt lat="43.24486" lon="3.12215">
        <ele>52.283471</ele>
        <time>2023-01-07T12:31:06.084Z</time>
      </trkpt>
      <trkpt lat="43.24494" lon="3.12224">
        <ele>52.352621</ele>
        <time>2023-01-07T12:31:10.074Z</time>
      </trkpt>
      <trkpt lat="43.24502" lon="3.12233">
        <ele>52.416234</ele>
        <time>2023-01-07T12:31:13.072Z</time>
      </trkpt>
      <trkpt lat="43.2451" lon="3.1224">
        <ele>52.477781</ele>
        <time>2023-01-07T12:31:16.072Z</time>
      </trkpt>
      <trkpt lat="43.24518" lon="3.12249">
        <ele>52.545058</ele>
        <time>2023-01-07T12:31:20.078Z</time>
      </trkpt>
      <trkpt lat="43.24528" lon="3.12258">
        <ele>52.621929</ele>
        <time>2023-01-07T12:31:24.079Z</time>
      </trkpt>
      <trkpt lat="43.24538" lon="3.12266">
        <ele>52.701085</ele>
        <time>2023-01-07T12:31:28.073Z</time>
      </trkpt>
      <trkpt lat="43.24546" lon="3.12272">
        <ele>52.761091</ele>
        <time>2023-01-07T12:31:31.087Z</time>
      </trkpt>
      <trkpt lat="43.24556" lon="3.12279">
        <ele>52.8299</ele>
        <time>2023-01-07T12:31:35.078Z</time>
      </trkpt>
      <trkpt lat="43.24563" lon="3.12288">
        <ele>52.893216</ele>
        <time>2023-01-07T12:31:38.080Z</time>
      </trkpt>
      <trkpt lat="43.24572" lon="3.12297">
        <ele>52.96476</ele>
        <time>2023-01-07T12:31:41.080Z</time>
      </trkpt>
      <trkpt lat="43.24581" lon="3.12306">
        <ele>53.039218</ele>
        <time>2023-01-07T12:31:44.088Z</time>
      </trkpt>
      <trkpt lat="43.24591" lon="3.12314">
        <ele>53.115347</ele>
        <time>2023-01-07T12:31:47.095Z</time>
      </trkpt>
      <trkpt lat="43.246" lon="3.12323">
        <ele>53.186084</ele>
        <time>2023-01-07T12:31:50.084Z</time>
      </trkpt>
      <trkpt lat="43.24608" lon="3.12331">
        <ele>53.249329</ele>
        <time>2023-01-07T12:31:53.077Z</time>
      </trkpt>
      <trkpt lat="43.24615" lon="3.12338">
        <ele>53.31089</ele>
        <time>2023-01-07T12:31:56.080Z</time>
      </trkpt>
      <trkpt lat="43.24623" lon="3.12347">
        <ele>53.385822</ele>
        <time>2023-01-07T12:31:59.087Z</time>
      </trkpt>
      <trkpt lat="43.24631" lon="3.12358">
        <ele>53.469209</ele>
        <time>2023-01-07T12:32:02.087Z</time>
      </trkpt>
      <trkpt lat="43.24636" lon="3.12371">
        <ele>53.555827</ele>
        <time>2023-01-07T12:32:05.094Z</time>
      </trkpt>
      <trkpt lat="43.24641" lon="3.12385">
        <ele>53.643806</ele>
        <time>2023-01-07T12:32:08.088Z</time>
      </trkpt>
      <trkpt lat="43.24646" lon="3.12399">
        <ele>53.73045</ele>
        <time>2023-01-07T12:32:11.086Z</time>
      </trkpt>
      <trkpt lat="43.2465" lon="3.12411">
        <ele>53.80548</ele>
        <time>2023-01-07T12:32:14.092Z</time>
      </trkpt>
      <trkpt lat="43.24654" lon="3.12424">
        <ele>53.881678</ele>
        <time>2023-01-07T12:32:18.097Z</time>
      </trkpt>
      <trkpt lat="43.24653" lon="3.1244">
        <ele>53.971433</ele>
        <time>2023-01-07T12:32:44.087Z</time>
      </trkpt>
      <trkpt lat="43.24655" lon="3.12454">
        <ele>54.053712</ele>
        <time>2023-01-07T12:32:50.097Z</time>
      </trkpt>
      <trkpt lat="43.24657" lon="3.12466">
        <ele>54.126284</ele>
        <time>2023-01-07T12:32:54.076Z</time>
      </trkpt>
      <trkpt lat="43.24659" lon="3.1248">
        <ele>54.20609</ele>
        <time>2023-01-07T12:32:58.081Z</time>
      </trkpt>
      <trkpt lat="43.2466" lon="3.12495">
        <ele>54.28587</ele>
        <time>2023-01-07T12:33:02.080Z</time>
      </trkpt>
      <trkpt lat="43.24662" lon="3.1251">
        <ele>54.372358</ele>
        <time>2023-01-07T12:33:06.078Z</time>
      </trkpt>
      <trkpt lat="43.24662" lon="3.12526">
        <ele>54.462625</ele>
        <time>2023-01-07T12:33:10.097Z</time>
      </trkpt>
      <trkpt lat="43.24662" lon="3.12542">
        <ele>54.554432</ele>
        <time>2023-01-07T12:33:14.094Z</time>
      </trkpt>
      <trkpt lat="43.24661" lon="3.12555">
        <ele>54.625541</ele>
        <time>2023-01-07T12:33:17.094Z</time>
      </trkpt>
      <trkpt lat="43.24659" lon="3.12571">
        <ele>54.714563</ele>
        <time>2023-01-07T12:33:21.088Z</time>
      </trkpt>
      <trkpt lat="43.24656" lon="3.12583">
        <ele>54.584751</ele>
        <time>2023-01-07T12:33:24.083Z</time>
      </trkpt>
      <trkpt lat="43.24652" lon="3.12595">
        <ele>54.447199</ele>
        <time>2023-01-07T12:33:27.080Z</time>
      </trkpt>
      <trkpt lat="43.24648" lon="3.12609">
        <ele>54.301753</ele>
        <time>2023-01-07T12:33:30.094Z</time>
      </trkpt>
      <trkpt lat="43.24644" lon="3.12622">
        <ele>54.155486</ele>
        <time>2023-01-07T12:33:33.065Z</time>
      </trkpt>
      <trkpt lat="43.2464" lon="3.12638">
        <ele>53.987607</ele>
        <time>2023-01-07T12:33:36.085Z</time>
      </trkpt>
      <trkpt lat="43.24637" lon="3.12654">
        <ele>53.819727</ele>
        <time>2023-01-07T12:33:39.078Z</time>
      </trkpt>
      <trkpt lat="43.24635" lon="3.12671">
        <ele>53.646821</ele>
        <time>2023-01-07T12:33:42.088Z</time>
      </trkpt>
      <trkpt lat="43.24636" lon="3.12688">
        <ele>53.473575</ele>
        <time>2023-01-07T12:33:45.074Z</time>
      </trkpt>
      <trkpt lat="43.24637" lon="3.12705">
        <ele>53.305378</ele>
        <time>2023-01-07T12:33:48.070Z</time>
      </trkpt>
      <trkpt lat="43.24637" lon="3.1272">
        <ele>53.147426</ele>
        <time>2023-01-07T12:33:51.089Z</time>
      </trkpt>
      <trkpt lat="43.24636" lon="3.12735">
        <ele>52.996189</ele>
        <time>2023-01-07T12:33:54.081Z</time>
      </trkpt>
      <trkpt lat="43.24637" lon="3.1275">
        <ele>52.843944</ele>
        <time>2023-01-07T12:33:57.096Z</time>
      </trkpt>
      <trkpt lat="43.24638" lon="3.12766">
        <ele>52.687101</ele>
        <time>2023-01-07T12:34:00.086Z</time>
      </trkpt>
      <trkpt lat="43.24637" lon="3.12782">
        <ele>52.525159</ele>
        <time>2023-01-07T12:34:03.083Z</time>
      </trkpt>
      <trkpt lat="43.24636" lon="3.12797">
        <ele>52.36447</ele>
        <time>2023-01-07T12:34:06.094Z</time>
      </trkpt>
      <trkpt lat="43.24635" lon="3.12812">
        <ele>52.216357</ele>
        <time>2023-01-07T12:34:09.099Z</time>
      </trkpt>
      <trkpt lat="43.24634" lon="3.12825">
        <ele>52.136725</ele>
        <time>2023-01-07T12:34:12.092Z</time>
      </trkpt>
      <trkpt lat="43.24633" lon="3.12841">
        <ele>52.038988</ele>
        <time>2023-01-07T12:34:15.085Z</time>
      </trkpt>
      <trkpt lat="43.24633" lon="3.12854">
        <ele>51.955264</ele>
        <time>2023-01-07T12:34:18.091Z</time>
      </trkpt>
      <trkpt lat="43.24632" lon="3.12868">
        <ele>51.870259</ele>
        <time>2023-01-07T12:34:21.085Z</time>
      </trkpt>
      <trkpt lat="43.24632" lon="3.12882">
        <ele>51.783615</ele>
        <time>2023-01-07T12:34:24.078Z</time>
      </trkpt>
      <trkpt lat="43.24632" lon="3.12896">
        <ele>51.698748</ele>
        <time>2023-01-07T12:34:27.091Z</time>
      </trkpt>
      <trkpt lat="43.24631" lon="3.1291">
        <ele>51.61222</ele>
        <time>2023-01-07T12:34:30.077Z</time>
      </trkpt>
      <trkpt lat="43.24629" lon="3.12924">
        <ele>51.524552</ele>
        <time>2023-01-07T12:34:33.075Z</time>
      </trkpt>
      <trkpt lat="43.24624" lon="3.12938">
        <ele>51.433538</ele>
        <time>2023-01-07T12:34:36.079Z</time>
      </trkpt>
      <trkpt lat="43.24618" lon="3.12951">
        <ele>51.336138</ele>
        <time>2023-01-07T12:34:39.081Z</time>
      </trkpt>
      <trkpt lat="43.24611" lon="3.12964">
        <ele>51.239776</ele>
        <time>2023-01-07T12:34:42.079Z</time>
      </trkpt>
      <trkpt lat="43.24604" lon="3.12975">
        <ele>51.146593</ele>
        <time>2023-01-07T12:34:45.085Z</time>
      </trkpt>
      <trkpt lat="43.24596" lon="3.12987">
        <ele>51.049457</ele>
        <time>2023-01-07T12:34:48.077Z</time>
      </trkpt>
      <trkpt lat="43.24588" lon="3.12998">
        <ele>50.951541</ele>
        <time>2023-01-07T12:34:51.087Z</time>
      </trkpt>
      <trkpt lat="43.24581" lon="3.1301">
        <ele>50.853731</ele>
        <time>2023-01-07T12:34:54.088Z</time>
      </trkpt>
      <trkpt lat="43.24574" lon="3.13023">
        <ele>50.756865</ele>
        <time>2023-01-07T12:34:57.080Z</time>
      </trkpt>
      <trkpt lat="43.24568" lon="3.13036">
        <ele>50.638915</ele>
        <time>2023-01-07T12:35:00.084Z</time>
      </trkpt>
      <trkpt lat="43.24562" lon="3.1305">
        <ele>50.481524</ele>
        <time>2023-01-07T12:35:03.072Z</time>
      </trkpt>
      <trkpt lat="43.24556" lon="3.13064">
        <ele>50.314911</ele>
        <time>2023-01-07T12:35:06.084Z</time>
      </trkpt>
      <trkpt lat="43.24553" lon="3.13078">
        <ele>50.16846</ele>
        <time>2023-01-07T12:35:09.086Z</time>
      </trkpt>
      <trkpt lat="43.2455" lon="3.13093">
        <ele>50.017964</ele>
        <time>2023-01-07T12:35:12.074Z</time>
      </trkpt>
      <trkpt lat="43.24547" lon="3.13106">
        <ele>49.877617</ele>
        <time>2023-01-07T12:35:15.087Z</time>
      </trkpt>
      <trkpt lat="43.24543" lon="3.13121">
        <ele>49.721202</ele>
        <time>2023-01-07T12:35:18.086Z</time>
      </trkpt>
      <trkpt lat="43.24539" lon="3.13136">
        <ele>49.55691</ele>
        <time>2023-01-07T12:35:21.071Z</time>
      </trkpt>
      <trkpt lat="43.24534" lon="3.13149">
        <ele>49.408507</ele>
        <time>2023-01-07T12:35:24.080Z</time>
      </trkpt>
      <trkpt lat="43.24527" lon="3.13161">
        <ele>49.260698</ele>
        <time>2023-01-07T12:35:27.088Z</time>
      </trkpt>
      <trkpt lat="43.2452" lon="3.13171">
        <ele>49.120685</ele>
        <time>2023-01-07T12:35:30.084Z</time>
      </trkpt>
      <trkpt lat="43.24514" lon="3.13182">
        <ele>48.979169</ele>
        <time>2023-01-07T12:35:33.079Z</time>
      </trkpt>
      <trkpt lat="43.24508" lon="3.13192">
        <ele>48.850673</ele>
        <time>2023-01-07T12:35:36.075Z</time>
      </trkpt>
      <trkpt lat="43.24503" lon="3.13204">
        <ele>48.717975</ele>
        <time>2023-01-07T12:35:39.084Z</time>
      </trkpt>
      <trkpt lat="43.24498" lon="3.13216">
        <ele>48.579562</ele>
        <time>2023-01-07T12:35:42.095Z</time>
      </trkpt>
      <trkpt lat="43.24495" lon="3.13228">
        <ele>48.444618</ele>
        <time>2023-01-07T12:35:45.078Z</time>
      </trkpt>
      <trkpt lat="43.24491" lon="3.13241">
        <ele>48.307951</ele>
        <time>2023-01-07T12:35:48.082Z</time>
      </trkpt>
      <trkpt lat="43.24489" lon="3.13255">
        <ele>48.187331</ele>
        <time>2023-01-07T12:35:51.085Z</time>
      </trkpt>
      <trkpt lat="43.24486" lon="3.13269">
        <ele>48.084461</ele>
        <time>2023-01-07T12:35:54.100Z</time>
      </trkpt>
      <trkpt lat="43.24483" lon="3.13283">
        <ele>47.979669</ele>
        <time>2023-01-07T12:35:57.092Z</time>
      </trkpt>
      <trkpt lat="43.2448" lon="3.13297">
        <ele>47.875221</ele>
        <time>2023-01-07T12:36:00.094Z</time>
      </trkpt>
      <trkpt lat="43.24478" lon="3.13311">
        <ele>47.774156</ele>
        <time>2023-01-07T12:36:03.096Z</time>
      </trkpt>
      <trkpt lat="43.24475" lon="3.13326">
        <ele>47.664062</ele>
        <time>2023-01-07T12:36:06.084Z</time>
      </trkpt>
      <trkpt lat="43.24474" lon="3.1334">
        <ele>47.56085</ele>
        <time>2023-01-07T12:36:09.101Z</time>
      </trkpt>
      <trkpt lat="43.24471" lon="3.13354">
        <ele>47.459728</ele>
        <time>2023-01-07T12:36:12.083Z</time>
      </trkpt>
      <trkpt lat="43.24468" lon="3.13369">
        <ele>47.351399</ele>
        <time>2023-01-07T12:36:15.100Z</time>
      </trkpt>
      <trkpt lat="43.24466" lon="3.13383">
        <ele>47.244789</ele>
        <time>2023-01-07T12:36:18.076Z</time>
      </trkpt>
      <trkpt lat="43.24463" lon="3.13397">
        <ele>47.140255</ele>
        <time>2023-01-07T12:36:21.084Z</time>
      </trkpt>
      <trkpt lat="43.2446" lon="3.13412">
        <ele>47.035054</ele>
        <time>2023-01-07T12:36:24.092Z</time>
      </trkpt>
      <trkpt lat="43.24458" lon="3.13427">
        <ele>46.925862</ele>
        <time>2023-01-07T12:36:27.076Z</time>
      </trkpt>
      <trkpt lat="43.24456" lon="3.13442">
        <ele>46.815613</ele>
        <time>2023-01-07T12:36:30.092Z</time>
      </trkpt>
      <trkpt lat="43.24456" lon="3.13458">
        <ele>46.702313</ele>
        <time>2023-01-07T12:36:33.086Z</time>
      </trkpt>
      <trkpt lat="43.24457" lon="3.13473">
        <ele>46.592065</ele>
        <time>2023-01-07T12:36:36.077Z</time>
      </trkpt>
      <trkpt lat="43.2446" lon="3.13488">
        <ele>46.485356</ele>
        <time>2023-01-07T12:36:39.088Z</time>
      </trkpt>
      <trkpt lat="43.24462" lon="3.13503">
        <ele>46.543621</ele>
        <time>2023-01-07T12:36:42.073Z</time>
      </trkpt>
      <trkpt lat="43.24464" lon="3.1352">
        <ele>46.622907</ele>
        <time>2023-01-07T12:36:45.091Z</time>
      </trkpt>
      <trkpt lat="43.24465" lon="3.13538">
        <ele>46.702489</ele>
        <time>2023-01-07T12:36:48.075Z</time>
      </trkpt>
      <trkpt lat="43.24467" lon="3.13554">
        <ele>46.779125</ele>
        <time>2023-01-07T12:36:51.086Z</time>
      </trkpt>
      <trkpt lat="43.24468" lon="3.13571">
        <ele>46.856962</ele>
        <time>2023-01-07T12:36:54.092Z</time>
      </trkpt>
      <trkpt lat="43.24468" lon="3.13589">
        <ele>46.937857</ele>
        <time>2023-01-07T12:36:57.098Z</time>
      </trkpt>
      <trkpt lat="43.24467" lon="3.13606">
        <ele>47.016965</ele>
        <time>2023-01-07T12:37:00.078Z</time>
      </trkpt>
      <trkpt lat="43.24467" lon="3.13623">
        <ele>47.097882</ele>
        <time>2023-01-07T12:37:03.092Z</time>
      </trkpt>
      <trkpt lat="43.24467" lon="3.13641">
        <ele>47.1783</ele>
        <time>2023-01-07T12:37:06.078Z</time>
      </trkpt>
      <trkpt lat="43.24468" lon="3.13658">
        <ele>47.255573</ele>
        <time>2023-01-07T12:37:09.095Z</time>
      </trkpt>
      <trkpt lat="43.24468" lon="3.13675">
        <ele>47.333672</ele>
        <time>2023-01-07T12:37:12.087Z</time>
      </trkpt>
      <trkpt lat="43.24467" lon="3.13692">
        <ele>47.411793</ele>
        <time>2023-01-07T12:37:15.075Z</time>
      </trkpt>
      <trkpt lat="43.24467" lon="3.13709">
        <ele>47.490851</ele>
        <time>2023-01-07T12:37:18.075Z</time>
      </trkpt>
      <trkpt lat="43.24467" lon="3.13726">
        <ele>47.569432</ele>
        <time>2023-01-07T12:37:21.096Z</time>
      </trkpt>
      <trkpt lat="43.24467" lon="3.13743">
        <ele>47.629594</ele>
        <time>2023-01-07T12:37:24.075Z</time>
      </trkpt>
      <trkpt lat="43.24467" lon="3.1376">
        <ele>47.669221</ele>
        <time>2023-01-07T12:37:27.096Z</time>
      </trkpt>
      <trkpt lat="43.24467" lon="3.13777">
        <ele>47.709115</ele>
        <time>2023-01-07T12:37:30.094Z</time>
      </trkpt>
      <trkpt lat="43.24467" lon="3.13794">
        <ele>47.749224</ele>
        <time>2023-01-07T12:37:33.083Z</time>
      </trkpt>
      <trkpt lat="43.24468" lon="3.13809">
        <ele>47.786458</ele>
        <time>2023-01-07T12:37:36.096Z</time>
      </trkpt>
      <trkpt lat="43.24468" lon="3.13823">
        <ele>47.819258</ele>
        <time>2023-01-07T12:37:39.080Z</time>
      </trkpt>
      <trkpt lat="43.24466" lon="3.13837">
        <ele>47.851457</ele>
        <time>2023-01-07T12:37:42.088Z</time>
      </trkpt>
      <trkpt lat="43.24461" lon="3.13848">
        <ele>47.883617</ele>
        <time>2023-01-07T12:37:45.073Z</time>
      </trkpt>
      <trkpt lat="43.24458" lon="3.13863">
        <ele>47.919994</ele>
        <time>2023-01-07T12:37:48.076Z</time>
      </trkpt>
      <trkpt lat="43.24455" lon="3.13878">
        <ele>47.957055</ele>
        <time>2023-01-07T12:37:51.093Z</time>
      </trkpt>
      <trkpt lat="43.24453" lon="3.13892">
        <ele>47.990769</ele>
        <time>2023-01-07T12:37:54.104Z</time>
      </trkpt>
      <trkpt lat="43.24449" lon="3.13907">
        <ele>48.027899</ele>
        <time>2023-01-07T12:37:57.071Z</time>
      </trkpt>
      <trkpt lat="43.24446" lon="3.13922">
        <ele>48.065475</ele>
        <time>2023-01-07T12:38:00.090Z</time>
      </trkpt>
      <trkpt lat="43.24443" lon="3.13937">
        <ele>48.101256</ele>
        <time>2023-01-07T12:38:03.095Z</time>
      </trkpt>
      <trkpt lat="43.2444" lon="3.13952">
        <ele>48.137551</ele>
        <time>2023-01-07T12:38:06.083Z</time>
      </trkpt>
      <trkpt lat="43.24437" lon="3.13967">
        <ele>48.173385</ele>
        <time>2023-01-07T12:38:09.090Z</time>
      </trkpt>
      <trkpt lat="43.24435" lon="3.13981">
        <ele>48.228391</ele>
        <time>2023-01-07T12:38:12.087Z</time>
      </trkpt>
      <trkpt lat="43.24433" lon="3.13995">
        <ele>48.316021</ele>
        <time>2023-01-07T12:38:15.081Z</time>
      </trkpt>
      <trkpt lat="43.24431" lon="3.1401">
        <ele>48.405488</ele>
        <time>2023-01-07T12:38:18.079Z</time>
      </trkpt>
      <trkpt lat="43.24429" lon="3.14026">
        <ele>48.498304</ele>
        <time>2023-01-07T12:38:21.097Z</time>
      </trkpt>
      <trkpt lat="43.24428" lon="3.14042">
        <ele>48.594637</ele>
        <time>2023-01-07T12:38:24.088Z</time>
      </trkpt>
      <trkpt lat="43.24426" lon="3.14058">
        <ele>48.693411</ele>
        <time>2023-01-07T12:38:27.107Z</time>
      </trkpt>
      <trkpt lat="43.24423" lon="3.14075">
        <ele>48.79097</ele>
        <time>2023-01-07T12:38:30.085Z</time>
      </trkpt>
      <trkpt lat="43.24421" lon="3.14091">
        <ele>48.891332</ele>
        <time>2023-01-07T12:38:33.102Z</time>
      </trkpt>
      <trkpt lat="43.24419" lon="3.14108">
        <ele>48.99271</ele>
        <time>2023-01-07T12:38:36.081Z</time>
      </trkpt>
      <trkpt lat="43.24416" lon="3.14125">
        <ele>49.092067</ele>
        <time>2023-01-07T12:38:39.091Z</time>
      </trkpt>
      <trkpt lat="43.24413" lon="3.14141">
        <ele>49.192325</ele>
        <time>2023-01-07T12:38:42.079Z</time>
      </trkpt>
      <trkpt lat="43.2441" lon="3.14158">
        <ele>49.295616</ele>
        <time>2023-01-07T12:38:45.088Z</time>
      </trkpt>
      <trkpt lat="43.24408" lon="3.14175">
        <ele>49.396871</ele>
        <time>2023-01-07T12:38:48.084Z</time>
      </trkpt>
      <trkpt lat="43.24405" lon="3.1419">
        <ele>49.489542</ele>
        <time>2023-01-07T12:38:51.086Z</time>
      </trkpt>
      <trkpt lat="43.24403" lon="3.14206">
        <ele>49.581794</ele>
        <time>2023-01-07T12:38:54.102Z</time>
      </trkpt>
      <trkpt lat="43.24401" lon="3.14222">
        <ele>49.653834</ele>
        <time>2023-01-07T12:38:57.101Z</time>
      </trkpt>
      <trkpt lat="43.24399" lon="3.14236">
        <ele>49.662174</ele>
        <time>2023-01-07T12:39:00.082Z</time>
      </trkpt>
      <trkpt lat="43.24398" lon="3.1425">
        <ele>49.670906</ele>
        <time>2023-01-07T12:39:03.083Z</time>
      </trkpt>
      <trkpt lat="43.24396" lon="3.14266">
        <ele>49.680069</ele>
        <time>2023-01-07T12:39:06.082Z</time>
      </trkpt>
      <trkpt lat="43.24393" lon="3.1428">
        <ele>49.688602</ele>
        <time>2023-01-07T12:39:09.086Z</time>
      </trkpt>
      <trkpt lat="43.2439" lon="3.14294">
        <ele>49.696985</ele>
        <time>2023-01-07T12:39:12.080Z</time>
      </trkpt>
      <trkpt lat="43.24387" lon="3.14309">
        <ele>49.706211</ele>
        <time>2023-01-07T12:39:15.092Z</time>
      </trkpt>
      <trkpt lat="43.24385" lon="3.14324">
        <ele>49.715447</ele>
        <time>2023-01-07T12:39:18.098Z</time>
      </trkpt>
      <trkpt lat="43.24381" lon="3.14339">
        <ele>49.724793</ele>
        <time>2023-01-07T12:39:21.087Z</time>
      </trkpt>
      <trkpt lat="43.24378" lon="3.14354">
        <ele>49.734019</ele>
        <time>2023-01-07T12:39:24.081Z</time>
      </trkpt>
      <trkpt lat="43.24374" lon="3.14369">
        <ele>49.743142</ele>
        <time>2023-01-07T12:39:27.083Z</time>
      </trkpt>
      <trkpt lat="43.2437" lon="3.14382">
        <ele>49.751108</ele>
        <time>2023-01-07T12:39:30.098Z</time>
      </trkpt>
      <trkpt lat="43.24366" lon="3.14394">
        <ele>49.758831</ele>
        <time>2023-01-07T12:39:33.084Z</time>
      </trkpt>
      <trkpt lat="43.24361" lon="3.14406">
        <ele>49.76739</ele>
        <time>2023-01-07T12:39:36.089Z</time>
      </trkpt>
      <trkpt lat="43.24355" lon="3.14419">
        <ele>49.776227</ele>
        <time>2023-01-07T12:39:39.084Z</time>
      </trkpt>
      <trkpt lat="43.24349" lon="3.14432">
        <ele>49.785271</ele>
        <time>2023-01-07T12:39:42.078Z</time>
      </trkpt>
      <trkpt lat="43.24343" lon="3.14445">
        <ele>49.794485</ele>
        <time>2023-01-07T12:39:45.094Z</time>
      </trkpt>
      <trkpt lat="43.24337" lon="3.14459">
        <ele>49.777092</ele>
        <time>2023-01-07T12:39:48.084Z</time>
      </trkpt>
      <trkpt lat="43.24331" lon="3.14473">
        <ele>49.755713</ele>
        <time>2023-01-07T12:39:51.077Z</time>
      </trkpt>
      <trkpt lat="43.24327" lon="3.14486">
        <ele>49.736356</ele>
        <time>2023-01-07T12:39:54.078Z</time>
      </trkpt>
      <trkpt lat="43.24323" lon="3.145">
        <ele>49.715566</ele>
        <time>2023-01-07T12:39:57.077Z</time>
      </trkpt>
      <trkpt lat="43.2432" lon="3.14516">
        <ele>49.693285</ele>
        <time>2023-01-07T12:40:00.080Z</time>
      </trkpt>
      <trkpt lat="43.24318" lon="3.14532">
        <ele>49.670187</ele>
        <time>2023-01-07T12:40:03.077Z</time>
      </trkpt>
      <trkpt lat="43.24315" lon="3.14548">
        <ele>49.647855</ele>
        <time>2023-01-07T12:40:06.082Z</time>
      </trkpt>
      <trkpt lat="43.24313" lon="3.14564">
        <ele>49.626325</ele>
        <time>2023-01-07T12:40:09.081Z</time>
      </trkpt>
      <trkpt lat="43.24309" lon="3.14578">
        <ele>49.605723</ele>
        <time>2023-01-07T12:40:12.092Z</time>
      </trkpt>
      <trkpt lat="43.24306" lon="3.1459">
        <ele>49.588475</ele>
        <time>2023-01-07T12:40:15.090Z</time>
      </trkpt>
      <trkpt lat="43.24303" lon="3.14602">
        <ele>49.57134</ele>
        <time>2023-01-07T12:40:18.082Z</time>
      </trkpt>
      <trkpt lat="43.24299" lon="3.14614">
        <ele>49.553513</ele>
        <time>2023-01-07T12:40:21.074Z</time>
      </trkpt>
      <trkpt lat="43.24295" lon="3.14628">
        <ele>49.53235</ele>
        <time>2023-01-07T12:40:25.088Z</time>
      </trkpt>
      <trkpt lat="43.24291" lon="3.14639">
        <ele>49.515449</ele>
        <time>2023-01-07T12:40:28.091Z</time>
      </trkpt>
      <trkpt lat="43.24285" lon="3.14651">
        <ele>49.496762</ele>
        <time>2023-01-07T12:40:31.100Z</time>
      </trkpt>
      <trkpt lat="43.24279" lon="3.14662">
        <ele>49.477119</ele>
        <time>2023-01-07T12:40:34.080Z</time>
      </trkpt>
      <trkpt lat="43.24272" lon="3.14673">
        <ele>49.456342</ele>
        <time>2023-01-07T12:40:37.081Z</time>
      </trkpt>
      <trkpt lat="43.24264" lon="3.14685">
        <ele>49.43161</ele>
        <time>2023-01-07T12:40:40.091Z</time>
      </trkpt>
      <trkpt lat="43.24257" lon="3.14697">
        <ele>49.405715</ele>
        <time>2023-01-07T12:40:43.083Z</time>
      </trkpt>
      <trkpt lat="43.2425" lon="3.1471">
        <ele>49.379815</ele>
        <time>2023-01-07T12:40:46.084Z</time>
      </trkpt>
      <trkpt lat="43.24243" lon="3.14722">
        <ele>49.355355</ele>
        <time>2023-01-07T12:40:49.086Z</time>
      </trkpt>
      <trkpt lat="43.24237" lon="3.14733">
        <ele>49.333373</ele>
        <time>2023-01-07T12:40:53.085Z</time>
      </trkpt>
      <trkpt lat="43.24228" lon="3.14744">
        <ele>49.305409</ele>
        <time>2023-01-07T12:41:01.091Z</time>
      </trkpt>
      <trkpt lat="43.2422" lon="3.14753">
        <ele>49.282782</ele>
        <time>2023-01-07T12:41:05.086Z</time>
      </trkpt>
      <trkpt lat="43.24212" lon="3.14759">
        <ele>49.262731</ele>
        <time>2023-01-07T12:41:09.079Z</time>
      </trkpt>
      <trkpt lat="43.24207" lon="3.14776">
        <ele>49.234136</ele>
        <time>2023-01-07T12:41:12.087Z</time>
      </trkpt>
      <trkpt lat="43.24202" lon="3.14787">
        <ele>49.213203</ele>
        <time>2023-01-07T12:41:15.079Z</time>
      </trkpt>
      <trkpt lat="43.24196" lon="3.14796">
        <ele>49.192509</ele>
        <time>2023-01-07T12:41:18.075Z</time>
      </trkpt>
      <trkpt lat="43.24189" lon="3.14806">
        <ele>49.171305</ele>
        <time>2023-01-07T12:41:21.086Z</time>
      </trkpt>
      <trkpt lat="43.24182" lon="3.14816">
        <ele>49.147329</ele>
        <time>2023-01-07T12:41:24.077Z</time>
      </trkpt>
      <trkpt lat="43.24174" lon="3.14826">
        <ele>49.124171</ele>
        <time>2023-01-07T12:41:27.077Z</time>
      </trkpt>
      <trkpt lat="43.24166" lon="3.14835">
        <ele>49.101393</ele>
        <time>2023-01-07T12:41:30.098Z</time>
      </trkpt>
      <trkpt lat="43.24159" lon="3.14845">
        <ele>49.078331</ele>
        <time>2023-01-07T12:41:33.089Z</time>
      </trkpt>
      <trkpt lat="43.24153" lon="3.14854">
        <ele>49.064339</ele>
        <time>2023-01-07T12:41:36.094Z</time>
      </trkpt>
      <trkpt lat="43.24145" lon="3.14865">
        <ele>49.166266</ele>
        <time>2023-01-07T12:41:40.095Z</time>
      </trkpt>
      <trkpt lat="43.24139" lon="3.14876">
        <ele>49.254154</ele>
        <time>2023-01-07T12:41:44.091Z</time>
      </trkpt>
      <trkpt lat="43.24146" lon="3.14889">
        <ele>49.359974</ele>
        <time>2023-01-07T12:41:49.080Z</time>
      </trkpt>
      <trkpt lat="43.24155" lon="3.14899">
        <ele>49.4585</ele>
        <time>2023-01-07T12:41:52.098Z</time>
      </trkpt>
      <trkpt lat="43.24163" lon="3.1491">
        <ele>49.567042</ele>
        <time>2023-01-07T12:41:55.092Z</time>
      </trkpt>
      <trkpt lat="43.24172" lon="3.1492">
        <ele>49.674085</ele>
        <time>2023-01-07T12:41:58.078Z</time>
      </trkpt>
      <trkpt lat="43.2418" lon="3.1493">
        <ele>49.76554</ele>
        <time>2023-01-07T12:42:01.083Z</time>
      </trkpt>
      <trkpt lat="43.24188" lon="3.14939">
        <ele>49.858489</ele>
        <time>2023-01-07T12:42:04.079Z</time>
      </trkpt>
      <trkpt lat="43.24196" lon="3.14949">
        <ele>49.955489</ele>
        <time>2023-01-07T12:42:07.081Z</time>
      </trkpt>
      <trkpt lat="43.24204" lon="3.14961">
        <ele>50.065246</ele>
        <time>2023-01-07T12:42:10.075Z</time>
      </trkpt>
      <trkpt lat="43.24213" lon="3.14971">
        <ele>50.17383</ele>
        <time>2023-01-07T12:42:13.077Z</time>
      </trkpt>
      <trkpt lat="43.24222" lon="3.14982">
        <ele>50.27971</ele>
        <time>2023-01-07T12:42:16.084Z</time>
      </trkpt>
      <trkpt lat="43.24232" lon="3.14993">
        <ele>50.390356</ele>
        <time>2023-01-07T12:42:19.076Z</time>
      </trkpt>
      <trkpt lat="43.24241" lon="3.15004">
        <ele>50.500008</ele>
        <time>2023-01-07T12:42:22.093Z</time>
      </trkpt>
      <trkpt lat="43.24249" lon="3.15016">
        <ele>50.610591</ele>
        <time>2023-01-07T12:42:25.084Z</time>
      </trkpt>
      <trkpt lat="43.24258" lon="3.15028">
        <ele>50.699228</ele>
        <time>2023-01-07T12:42:28.097Z</time>
      </trkpt>
      <trkpt lat="43.24267" lon="3.15038">
        <ele>50.746754</ele>
        <time>2023-01-07T12:42:31.098Z</time>
      </trkpt>
      <trkpt lat="43.24275" lon="3.15049">
        <ele>50.792574</ele>
        <time>2023-01-07T12:42:34.085Z</time>
      </trkpt>
      <trkpt lat="43.24284" lon="3.1506">
        <ele>50.83887</ele>
        <time>2023-01-07T12:42:37.087Z</time>
      </trkpt>
      <trkpt lat="43.24293" lon="3.15071">
        <ele>50.886623</ele>
        <time>2023-01-07T12:42:40.081Z</time>
      </trkpt>
      <trkpt lat="43.24302" lon="3.15083">
        <ele>50.935247</ele>
        <time>2023-01-07T12:42:43.089Z</time>
      </trkpt>
      <trkpt lat="43.24312" lon="3.15094">
        <ele>50.9843</ele>
        <time>2023-01-07T12:42:46.098Z</time>
      </trkpt>
      <trkpt lat="43.24321" lon="3.15105">
        <ele>51.033025</ele>
        <time>2023-01-07T12:42:49.080Z</time>
      </trkpt>
      <trkpt lat="43.2433" lon="3.15117">
        <ele>51.081456</ele>
        <time>2023-01-07T12:42:52.084Z</time>
      </trkpt>
      <trkpt lat="43.2434" lon="3.15128">
        <ele>51.13242</ele>
        <time>2023-01-07T12:42:55.098Z</time>
      </trkpt>
      <trkpt lat="43.24349" lon="3.15141">
        <ele>51.183874</ele>
        <time>2023-01-07T12:42:58.090Z</time>
      </trkpt>
      <trkpt lat="43.24358" lon="3.15154">
        <ele>51.235023</ele>
        <time>2023-01-07T12:43:01.088Z</time>
      </trkpt>
      <trkpt lat="43.24367" lon="3.15166">
        <ele>51.286798</ele>
        <time>2023-01-07T12:43:04.082Z</time>
      </trkpt>
      <trkpt lat="43.24374" lon="3.15182">
        <ele>51.339168</ele>
        <time>2023-01-07T12:43:07.087Z</time>
      </trkpt>
      <trkpt lat="43.24382" lon="3.15196">
        <ele>51.390319</ele>
        <time>2023-01-07T12:43:10.086Z</time>
      </trkpt>
      <trkpt lat="43.2439" lon="3.1521">
        <ele>51.280941</ele>
        <time>2023-01-07T12:43:13.080Z</time>
      </trkpt>
      <trkpt lat="43.24397" lon="3.15222">
        <ele>51.174253</ele>
        <time>2023-01-07T12:43:16.077Z</time>
      </trkpt>
      <trkpt lat="43.24404" lon="3.15233">
        <ele>51.079392</ele>
        <time>2023-01-07T12:43:19.076Z</time>
      </trkpt>
      <trkpt lat="43.2441" lon="3.15245">
        <ele>50.982435</ele>
        <time>2023-01-07T12:43:22.077Z</time>
      </trkpt>
      <trkpt lat="43.24416" lon="3.15255">
        <ele>50.893889</ele>
        <time>2023-01-07T12:43:25.079Z</time>
      </trkpt>
      <trkpt lat="43.24424" lon="3.15267">
        <ele>50.789695</ele>
        <time>2023-01-07T12:43:28.086Z</time>
      </trkpt>
      <trkpt lat="43.24431" lon="3.15279">
        <ele>50.680719</ele>
        <time>2023-01-07T12:43:31.084Z</time>
      </trkpt>
      <trkpt lat="43.24439" lon="3.15291">
        <ele>50.574909</ele>
        <time>2023-01-07T12:43:34.076Z</time>
      </trkpt>
      <trkpt lat="43.24445" lon="3.15304">
        <ele>50.474219</ele>
        <time>2023-01-07T12:43:37.074Z</time>
      </trkpt>
      <trkpt lat="43.24445" lon="3.15317">
        <ele>50.383806</ele>
        <time>2023-01-07T12:43:41.090Z</time>
      </trkpt>
      <trkpt lat="43.24437" lon="3.15326">
        <ele>50.289069</ele>
        <time>2023-01-07T12:43:44.093Z</time>
      </trkpt>
      <trkpt lat="43.24431" lon="3.15337">
        <ele>50.19397</ele>
        <time>2023-01-07T12:43:47.087Z</time>
      </trkpt>
      <trkpt lat="43.24423" lon="3.15346">
        <ele>50.104828</ele>
        <time>2023-01-07T12:43:50.090Z</time>
      </trkpt>
      <trkpt lat="43.24416" lon="3.15357">
        <ele>50.007766</ele>
        <time>2023-01-07T12:43:53.089Z</time>
      </trkpt>
      <trkpt lat="43.24409" lon="3.15369">
        <ele>49.904162</ele>
        <time>2023-01-07T12:43:56.088Z</time>
      </trkpt>
      <trkpt lat="43.24402" lon="3.15382">
        <ele>49.795892</ele>
        <time>2023-01-07T12:43:59.092Z</time>
      </trkpt>
      <trkpt lat="43.24397" lon="3.15397">
        <ele>49.707237</ele>
        <time>2023-01-07T12:44:02.096Z</time>
      </trkpt>
      <trkpt lat="43.24392" lon="3.15412">
        <ele>49.64319</ele>
        <time>2023-01-07T12:44:05.084Z</time>
      </trkpt>
      <trkpt lat="43.24391" lon="3.15428">
        <ele>49.577849</ele>
        <time>2023-01-07T12:44:08.084Z</time>
      </trkpt>
      <trkpt lat="43.2439" lon="3.15445">
        <ele>49.510697</ele>
        <time>2023-01-07T12:44:11.081Z</time>
      </trkpt>
      <trkpt lat="43.24388" lon="3.15462">
        <ele>49.442178</ele>
        <time>2023-01-07T12:44:14.091Z</time>
      </trkpt>
      <trkpt lat="43.24387" lon="3.1548">
        <ele>49.372536</ele>
        <time>2023-01-07T12:44:17.090Z</time>
      </trkpt>
      <trkpt lat="43.24386" lon="3.15498">
        <ele>49.301274</ele>
        <time>2023-01-07T12:44:20.099Z</time>
      </trkpt>
      <trkpt lat="43.24386" lon="3.15516">
        <ele>49.231522</ele>
        <time>2023-01-07T12:44:23.078Z</time>
      </trkpt>
      <trkpt lat="43.24384" lon="3.15533">
        <ele>49.162747</ele>
        <time>2023-01-07T12:44:26.080Z</time>
      </trkpt>
      <trkpt lat="43.24383" lon="3.15551">
        <ele>49.093154</ele>
        <time>2023-01-07T12:44:29.117Z</time>
      </trkpt>
      <trkpt lat="43.24382" lon="3.15569">
        <ele>49.022033</ele>
        <time>2023-01-07T12:44:32.115Z</time>
      </trkpt>
      <trkpt lat="43.24382" lon="3.15587">
        <ele>48.950322</ele>
        <time>2023-01-07T12:44:35.090Z</time>
      </trkpt>
      <trkpt lat="43.24383" lon="3.15605">
        <ele>48.879594</ele>
        <time>2023-01-07T12:44:38.079Z</time>
      </trkpt>
      <trkpt lat="43.24383" lon="3.15623">
        <ele>48.809021</ele>
        <time>2023-01-07T12:44:41.087Z</time>
      </trkpt>
      <trkpt lat="43.24384" lon="3.1564">
        <ele>48.781115</ele>
        <time>2023-01-07T12:44:44.090Z</time>
      </trkpt>
      <trkpt lat="43.24385" lon="3.15658">
        <ele>48.818343</ele>
        <time>2023-01-07T12:44:47.106Z</time>
      </trkpt>
      <trkpt lat="43.24385" lon="3.15675">
        <ele>48.855376</ele>
        <time>2023-01-07T12:44:50.097Z</time>
      </trkpt>
      <trkpt lat="43.24387" lon="3.15692">
        <ele>48.892882</ele>
        <time>2023-01-07T12:44:53.082Z</time>
      </trkpt>
      <trkpt lat="43.24387" lon="3.1571">
        <ele>48.931175</ele>
        <time>2023-01-07T12:44:56.084Z</time>
      </trkpt>
      <trkpt lat="43.24388" lon="3.15728">
        <ele>48.968766</ele>
        <time>2023-01-07T12:44:59.088Z</time>
      </trkpt>
      <trkpt lat="43.24389" lon="3.15746">
        <ele>49.006652</ele>
        <time>2023-01-07T12:45:02.084Z</time>
      </trkpt>
      <trkpt lat="43.24389" lon="3.15763">
        <ele>49.044464</ele>
        <time>2023-01-07T12:45:05.078Z</time>
      </trkpt>
      <trkpt lat="43.24389" lon="3.15781">
        <ele>49.082713</ele>
        <time>2023-01-07T12:45:08.094Z</time>
      </trkpt>
      <trkpt lat="43.2439" lon="3.15799">
        <ele>49.120108</ele>
        <time>2023-01-07T12:45:11.085Z</time>
      </trkpt>
      <trkpt lat="43.2439" lon="3.15817">
        <ele>49.158334</ele>
        <time>2023-01-07T12:45:14.103Z</time>
      </trkpt>
      <trkpt lat="43.2439" lon="3.15834">
        <ele>49.195924</ele>
        <time>2023-01-07T12:45:17.082Z</time>
      </trkpt>
      <trkpt lat="43.24391" lon="3.15849">
        <ele>49.228465</ele>
        <time>2023-01-07T12:45:20.093Z</time>
      </trkpt>
      <trkpt lat="43.24392" lon="3.15862">
        <ele>49.255923</ele>
        <time>2023-01-07T12:45:23.083Z</time>
      </trkpt>
      <trkpt lat="43.24392" lon="3.15876">
        <ele>49.28475</ele>
        <time>2023-01-07T12:45:26.084Z</time>
      </trkpt>
      <trkpt lat="43.24393" lon="3.1589">
        <ele>49.246115</ele>
        <time>2023-01-07T12:45:29.089Z</time>
      </trkpt>
      <trkpt lat="43.24396" lon="3.15906">
        <ele>49.174727</ele>
        <time>2023-01-07T12:45:32.096Z</time>
      </trkpt>
      <trkpt lat="43.244" lon="3.15921">
        <ele>49.101555</ele>
        <time>2023-01-07T12:45:35.099Z</time>
      </trkpt>
      <trkpt lat="43.24405" lon="3.15935">
        <ele>49.029875</ele>
        <time>2023-01-07T12:45:38.086Z</time>
      </trkpt>
      <trkpt lat="43.2441" lon="3.1595">
        <ele>48.95343</ele>
        <time>2023-01-07T12:45:41.076Z</time>
      </trkpt>
      <trkpt lat="43.24415" lon="3.15966">
        <ele>48.874401</ele>
        <time>2023-01-07T12:45:44.083Z</time>
      </trkpt>
      <trkpt lat="43.24419" lon="3.15982">
        <ele>48.796927</ele>
        <time>2023-01-07T12:45:47.088Z</time>
      </trkpt>
      <trkpt lat="43.24424" lon="3.15997">
        <ele>48.722403</ele>
        <time>2023-01-07T12:45:50.080Z</time>
      </trkpt>
      <trkpt lat="43.24428" lon="3.16013">
        <ele>48.646031</ele>
        <time>2023-01-07T12:45:53.078Z</time>
      </trkpt>
      <trkpt lat="43.24431" lon="3.16029">
        <ele>48.572137</ele>
        <time>2023-01-07T12:45:56.092Z</time>
      </trkpt>
      <trkpt lat="43.24432" lon="3.16043">
        <ele>48.506069</ele>
        <time>2023-01-07T12:45:59.097Z</time>
      </trkpt>
      <trkpt lat="43.24433" lon="3.16057">
        <ele>48.440979</ele>
        <time>2023-01-07T12:46:02.092Z</time>
      </trkpt>
      <trkpt lat="43.24435" lon="3.16072">
        <ele>48.375815</ele>
        <time>2023-01-07T12:46:05.081Z</time>
      </trkpt>
      <trkpt lat="43.24436" lon="3.16086">
        <ele>48.30741</ele>
        <time>2023-01-07T12:46:08.085Z</time>
      </trkpt>
      <trkpt lat="43.24438" lon="3.16101">
        <ele>48.238833</ele>
        <time>2023-01-07T12:46:11.082Z</time>
      </trkpt>
      <trkpt lat="43.24439" lon="3.16117">
        <ele>48.164589</ele>
        <time>2023-01-07T12:46:14.091Z</time>
      </trkpt>
      <trkpt lat="43.24441" lon="3.16134">
        <ele>48.078201</ele>
        <time>2023-01-07T12:46:17.093Z</time>
      </trkpt>
      <trkpt lat="43.24443" lon="3.1615">
        <ele>47.992102</ele>
        <time>2023-01-07T12:46:20.089Z</time>
      </trkpt>
      <trkpt lat="43.24444" lon="3.16166">
        <ele>47.910531</ele>
        <time>2023-01-07T12:46:23.083Z</time>
      </trkpt>
      <trkpt lat="43.24445" lon="3.16181">
        <ele>47.829602</ele>
        <time>2023-01-07T12:46:26.095Z</time>
      </trkpt>
      <trkpt lat="43.24447" lon="3.16196">
        <ele>47.749607</ele>
        <time>2023-01-07T12:46:29.099Z</time>
      </trkpt>
      <trkpt lat="43.24448" lon="3.16212">
        <ele>47.668991</ele>
        <time>2023-01-07T12:46:32.079Z</time>
      </trkpt>
      <trkpt lat="43.24449" lon="3.16228">
        <ele>47.585974</ele>
        <time>2023-01-07T12:46:35.086Z</time>
      </trkpt>
      <trkpt lat="43.2445" lon="3.16244">
        <ele>47.501398</ele>
        <time>2023-01-07T12:46:38.091Z</time>
      </trkpt>
      <trkpt lat="43.2445" lon="3.1626">
        <ele>47.415454</ele>
        <time>2023-01-07T12:46:41.087Z</time>
      </trkpt>
      <trkpt lat="43.24449" lon="3.16276">
        <ele>47.331398</ele>
        <time>2023-01-07T12:46:44.085Z</time>
      </trkpt>
      <trkpt lat="43.24448" lon="3.16292">
        <ele>47.248403</ele>
        <time>2023-01-07T12:46:47.084Z</time>
      </trkpt>
      <trkpt lat="43.24445" lon="3.16308">
        <ele>47.164363</ele>
        <time>2023-01-07T12:46:50.101Z</time>
      </trkpt>
      <trkpt lat="43.24442" lon="3.16323">
        <ele>47.081823</ele>
        <time>2023-01-07T12:46:53.100Z</time>
      </trkpt>
      <trkpt lat="43.24439" lon="3.16339">
        <ele>46.996088</ele>
        <time>2023-01-07T12:46:56.087Z</time>
      </trkpt>
      <trkpt lat="43.24436" lon="3.16355">
        <ele>46.908156</ele>
        <time>2023-01-07T12:46:59.092Z</time>
      </trkpt>
      <trkpt lat="43.24432" lon="3.16371">
        <ele>46.943236</ele>
        <time>2023-01-07T12:47:02.108Z</time>
      </trkpt>
      <trkpt lat="43.24428" lon="3.16387">
        <ele>47.022476</ele>
        <time>2023-01-07T12:47:05.092Z</time>
      </trkpt>
      <trkpt lat="43.24425" lon="3.16403">
        <ele>47.10175</ele>
        <time>2023-01-07T12:47:08.089Z</time>
      </trkpt>
      <trkpt lat="43.24423" lon="3.16416">
        <ele>47.171071</ele>
        <time>2023-01-07T12:47:11.086Z</time>
      </trkpt>
      <trkpt lat="43.24421" lon="3.16429">
        <ele>47.232489</ele>
        <time>2023-01-07T12:47:14.090Z</time>
      </trkpt>
      <trkpt lat="43.24418" lon="3.16442">
        <ele>47.301274</ele>
        <time>2023-01-07T12:47:18.081Z</time>
      </trkpt>
      <trkpt lat="43.24414" lon="3.16463">
        <ele>47.402833</ele>
        <time>2023-01-07T12:53:35.140Z</time>
      </trkpt>
      <trkpt lat="43.24412" lon="3.16475">
        <ele>47.465977</ele>
        <time>2023-01-07T12:53:39.082Z</time>
      </trkpt>
      <trkpt lat="43.2441" lon="3.16491">
        <ele>47.545456</ele>
        <time>2023-01-07T12:53:43.089Z</time>
      </trkpt>
      <trkpt lat="43.24409" lon="3.16505">
        <ele>47.611736</ele>
        <time>2023-01-07T12:53:46.093Z</time>
      </trkpt>
      <trkpt lat="43.24407" lon="3.16519">
        <ele>47.684015</ele>
        <time>2023-01-07T12:53:49.098Z</time>
      </trkpt>
      <trkpt lat="43.24405" lon="3.16534">
        <ele>47.75714</ele>
        <time>2023-01-07T12:53:52.088Z</time>
      </trkpt>
      <trkpt lat="43.24403" lon="3.16549">
        <ele>47.832468</ele>
        <time>2023-01-07T12:53:55.087Z</time>
      </trkpt>
      <trkpt lat="43.24401" lon="3.16564">
        <ele>47.905473</ele>
        <time>2023-01-07T12:53:58.082Z</time>
      </trkpt>
      <trkpt lat="43.24398" lon="3.16576">
        <ele>47.966147</ele>
        <time>2023-01-07T12:54:01.084Z</time>
      </trkpt>
      <trkpt lat="43.24395" lon="3.16588">
        <ele>48.029652</ele>
        <time>2023-01-07T12:54:04.085Z</time>
      </trkpt>
      <trkpt lat="43.24391" lon="3.16602">
        <ele>48.096281</ele>
        <time>2023-01-07T12:54:07.084Z</time>
      </trkpt>
      <trkpt lat="43.2439" lon="3.16618">
        <ele>48.145404</ele>
        <time>2023-01-07T12:54:10.089Z</time>
      </trkpt>
      <trkpt lat="43.24391" lon="3.16633">
        <ele>48.191302</ele>
        <time>2023-01-07T12:54:13.087Z</time>
      </trkpt>
      <trkpt lat="43.24391" lon="3.16645">
        <ele>48.229757</ele>
        <time>2023-01-07T12:54:16.081Z</time>
      </trkpt>
      <trkpt lat="43.24391" lon="3.16659">
        <ele>48.27097</ele>
        <time>2023-01-07T12:54:19.074Z</time>
      </trkpt>
      <trkpt lat="43.24391" lon="3.16673">
        <ele>48.31373</ele>
        <time>2023-01-07T12:54:22.081Z</time>
      </trkpt>
      <trkpt lat="43.24391" lon="3.16687">
        <ele>48.358336</ele>
        <time>2023-01-07T12:54:25.096Z</time>
      </trkpt>
      <trkpt lat="43.24391" lon="3.16702">
        <ele>48.402625</ele>
        <time>2023-01-07T12:54:28.085Z</time>
      </trkpt>
      <trkpt lat="43.2439" lon="3.16716">
        <ele>48.447769</ele>
        <time>2023-01-07T12:54:31.077Z</time>
      </trkpt>
      <trkpt lat="43.24389" lon="3.1673">
        <ele>48.490467</ele>
        <time>2023-01-07T12:54:34.085Z</time>
      </trkpt>
      <trkpt lat="43.24388" lon="3.16744">
        <ele>48.533658</ele>
        <time>2023-01-07T12:54:37.088Z</time>
      </trkpt>
      <trkpt lat="43.24388" lon="3.16757">
        <ele>48.572722</ele>
        <time>2023-01-07T12:54:40.079Z</time>
      </trkpt>
      <trkpt lat="43.24388" lon="3.16769">
        <ele>48.611792</ele>
        <time>2023-01-07T12:54:43.083Z</time>
      </trkpt>
      <trkpt lat="43.24388" lon="3.16782">
        <ele>48.652092</ele>
        <time>2023-01-07T12:54:46.091Z</time>
      </trkpt>
      <trkpt lat="43.24387" lon="3.16796">
        <ele>48.695095</ele>
        <time>2023-01-07T12:54:49.085Z</time>
      </trkpt>
      <trkpt lat="43.24385" lon="3.16809">
        <ele>48.733873</ele>
        <time>2023-01-07T12:54:52.081Z</time>
      </trkpt>
      <trkpt lat="43.24385" lon="3.16822">
        <ele>48.773278</ele>
        <time>2023-01-07T12:54:55.079Z</time>
      </trkpt>
      <trkpt lat="43.24384" lon="3.16836">
        <ele>48.816389</ele>
        <time>2023-01-07T12:54:58.089Z</time>
      </trkpt>
      <trkpt lat="43.24383" lon="3.1685">
        <ele>48.829035</ele>
        <time>2023-01-07T12:55:01.077Z</time>
      </trkpt>
      <trkpt lat="43.24383" lon="3.16865">
        <ele>48.781705</ele>
        <time>2023-01-07T12:55:04.094Z</time>
      </trkpt>
      <trkpt lat="43.24382" lon="3.16879">
        <ele>48.732355</ele>
        <time>2023-01-07T12:55:07.098Z</time>
      </trkpt>
      <trkpt lat="43.24382" lon="3.16893">
        <ele>48.686083</ele>
        <time>2023-01-07T12:55:10.086Z</time>
      </trkpt>
      <trkpt lat="43.24381" lon="3.16907">
        <ele>48.641306</ele>
        <time>2023-01-07T12:55:13.098Z</time>
      </trkpt>
      <trkpt lat="43.2438" lon="3.16921">
        <ele>48.593336</ele>
        <time>2023-01-07T12:55:16.081Z</time>
      </trkpt>
      <trkpt lat="43.24379" lon="3.16936">
        <ele>48.542297</ele>
        <time>2023-01-07T12:55:19.089Z</time>
      </trkpt>
      <trkpt lat="43.24377" lon="3.16952">
        <ele>48.490987</ele>
        <time>2023-01-07T12:55:22.079Z</time>
      </trkpt>
      <trkpt lat="43.24376" lon="3.16967">
        <ele>48.437445</ele>
        <time>2023-01-07T12:55:25.086Z</time>
      </trkpt>
      <trkpt lat="43.24374" lon="3.16983">
        <ele>48.385875</ele>
        <time>2023-01-07T12:55:28.091Z</time>
      </trkpt>
      <trkpt lat="43.24372" lon="3.16996">
        <ele>48.341517</ele>
        <time>2023-01-07T12:55:31.085Z</time>
      </trkpt>
      <trkpt lat="43.2437" lon="3.17009">
        <ele>48.295708</ele>
        <time>2023-01-07T12:55:34.078Z</time>
      </trkpt>
      <trkpt lat="43.24369" lon="3.17024">
        <ele>48.247353</ele>
        <time>2023-01-07T12:55:37.103Z</time>
      </trkpt>
      <trkpt lat="43.24368" lon="3.17039">
        <ele>48.19742</ele>
        <time>2023-01-07T12:55:40.098Z</time>
      </trkpt>
      <trkpt lat="43.24367" lon="3.17052">
        <ele>48.154103</ele>
        <time>2023-01-07T12:55:43.079Z</time>
      </trkpt>
      <trkpt lat="43.24366" lon="3.17065">
        <ele>48.110306</ele>
        <time>2023-01-07T12:55:46.084Z</time>
      </trkpt>
      <trkpt lat="43.24366" lon="3.17077">
        <ele>48.067595</ele>
        <time>2023-01-07T12:55:49.080Z</time>
      </trkpt>
      <trkpt lat="43.24369" lon="3.17092">
        <ele>48.025704</ele>
        <time>2023-01-07T12:55:53.072Z</time>
      </trkpt>
      <trkpt lat="43.24368" lon="3.17106">
        <ele>48.033008</ele>
        <time>2023-01-07T12:55:56.082Z</time>
      </trkpt>
      <trkpt lat="43.24369" lon="3.17121">
        <ele>48.04122</ele>
        <time>2023-01-07T12:55:59.079Z</time>
      </trkpt>
      <trkpt lat="43.2437" lon="3.17137">
        <ele>48.049768</ele>
        <time>2023-01-07T12:56:02.080Z</time>
      </trkpt>
      <trkpt lat="43.2437" lon="3.17154">
        <ele>48.058565</ele>
        <time>2023-01-07T12:56:05.077Z</time>
      </trkpt>
      <trkpt lat="43.24371" lon="3.1717">
        <ele>48.067385</ele>
        <time>2023-01-07T12:56:08.079Z</time>
      </trkpt>
      <trkpt lat="43.24372" lon="3.17188">
        <ele>48.076523</ele>
        <time>2023-01-07T12:56:11.080Z</time>
      </trkpt>
      <trkpt lat="43.24373" lon="3.17204">
        <ele>48.085077</ele>
        <time>2023-01-07T12:56:14.079Z</time>
      </trkpt>
      <trkpt lat="43.24374" lon="3.17219">
        <ele>48.093413</ele>
        <time>2023-01-07T12:56:17.088Z</time>
      </trkpt>
      <trkpt lat="43.24375" lon="3.17235">
        <ele>48.101689</ele>
        <time>2023-01-07T12:56:20.076Z</time>
      </trkpt>
      <trkpt lat="43.24377" lon="3.1725">
        <ele>48.110167</ele>
        <time>2023-01-07T12:56:23.089Z</time>
      </trkpt>
      <trkpt lat="43.2438" lon="3.17265">
        <ele>48.118312</ele>
        <time>2023-01-07T12:56:26.085Z</time>
      </trkpt>
      <trkpt lat="43.24382" lon="3.1728">
        <ele>48.126337</ele>
        <time>2023-01-07T12:56:29.092Z</time>
      </trkpt>
      <trkpt lat="43.24385" lon="3.17295">
        <ele>48.134623</ele>
        <time>2023-01-07T12:56:32.076Z</time>
      </trkpt>
      <trkpt lat="43.24388" lon="3.17309">
        <ele>48.142601</ele>
        <time>2023-01-07T12:56:35.098Z</time>
      </trkpt>
      <trkpt lat="43.24391" lon="3.17322">
        <ele>48.149786</ele>
        <time>2023-01-07T12:56:38.086Z</time>
      </trkpt>
      <trkpt lat="43.24394" lon="3.17336">
        <ele>48.161846</ele>
        <time>2023-01-07T12:56:41.089Z</time>
      </trkpt>
      <trkpt lat="43.24396" lon="3.17351">
        <ele>48.195818</ele>
        <time>2023-01-07T12:56:44.085Z</time>
      </trkpt>
      <trkpt lat="43.24398" lon="3.17367">
        <ele>48.229378</ele>
        <time>2023-01-07T12:56:47.108Z</time>
      </trkpt>
      <trkpt lat="43.244" lon="3.17382">
        <ele>48.262565</ele>
        <time>2023-01-07T12:56:50.095Z</time>
      </trkpt>
      <trkpt lat="43.24403" lon="3.17396">
        <ele>48.294792</ele>
        <time>2023-01-07T12:56:53.094Z</time>
      </trkpt>
      <trkpt lat="43.24405" lon="3.1741">
        <ele>48.326171</ele>
        <time>2023-01-07T12:56:56.087Z</time>
      </trkpt>
      <trkpt lat="43.24408" lon="3.17425">
        <ele>48.35846</ele>
        <time>2023-01-07T12:56:59.095Z</time>
      </trkpt>
      <trkpt lat="43.24409" lon="3.1744">
        <ele>48.392447</ele>
        <time>2023-01-07T12:57:02.097Z</time>
      </trkpt>
      <trkpt lat="43.24411" lon="3.17456">
        <ele>48.425442</ele>
        <time>2023-01-07T12:57:05.100Z</time>
      </trkpt>
      <trkpt lat="43.24413" lon="3.17471">
        <ele>48.458864</ele>
        <time>2023-01-07T12:57:08.089Z</time>
      </trkpt>
      <trkpt lat="43.24413" lon="3.17486">
        <ele>48.492248</ele>
        <time>2023-01-07T12:57:11.081Z</time>
      </trkpt>
      <trkpt lat="43.24414" lon="3.17501">
        <ele>48.524717</ele>
        <time>2023-01-07T12:57:14.086Z</time>
      </trkpt>
      <trkpt lat="43.24413" lon="3.17515">
        <ele>48.554609</ele>
        <time>2023-01-07T12:57:17.092Z</time>
      </trkpt>
      <trkpt lat="43.24411" lon="3.17529">
        <ele>48.58634</ele>
        <time>2023-01-07T12:57:21.099Z</time>
      </trkpt>
      <trkpt lat="43.24414" lon="3.17544">
        <ele>48.619308</ele>
        <time>2023-01-07T12:57:25.079Z</time>
      </trkpt>
      <trkpt lat="43.24422" lon="3.17552">
        <ele>48.648736</ele>
        <time>2023-01-07T12:57:28.077Z</time>
      </trkpt>
      <trkpt lat="43.24431" lon="3.17561">
        <ele>48.681661</ele>
        <time>2023-01-07T12:57:31.077Z</time>
      </trkpt>
      <trkpt lat="43.24439" lon="3.17573">
        <ele>48.683212</ele>
        <time>2023-01-07T12:57:34.081Z</time>
      </trkpt>
      <trkpt lat="43.24448" lon="3.17584">
        <ele>48.674121</ele>
        <time>2023-01-07T12:57:37.079Z</time>
      </trkpt>
      <trkpt lat="43.24456" lon="3.17595">
        <ele>48.665474</ele>
        <time>2023-01-07T12:57:40.087Z</time>
      </trkpt>
      <trkpt lat="43.24464" lon="3.17606">
        <ele>48.65668</ele>
        <time>2023-01-07T12:57:43.088Z</time>
      </trkpt>
      <trkpt lat="43.24473" lon="3.17617">
        <ele>48.647666</ele>
        <time>2023-01-07T12:57:46.072Z</time>
      </trkpt>
      <trkpt lat="43.24482" lon="3.17628">
        <ele>48.638103</ele>
        <time>2023-01-07T12:57:49.083Z</time>
      </trkpt>
      <trkpt lat="43.24493" lon="3.17638">
        <ele>48.628216</ele>
        <time>2023-01-07T12:57:52.083Z</time>
      </trkpt>
      <trkpt lat="43.24504" lon="3.17648">
        <ele>48.618329</ele>
        <time>2023-01-07T12:57:55.082Z</time>
      </trkpt>
      <trkpt lat="43.24514" lon="3.17656">
        <ele>48.608832</ele>
        <time>2023-01-07T12:57:58.091Z</time>
      </trkpt>
      <trkpt lat="43.24525" lon="3.17665">
        <ele>48.59938</ele>
        <time>2023-01-07T12:58:01.089Z</time>
      </trkpt>
      <trkpt lat="43.24536" lon="3.17673">
        <ele>48.590049</ele>
        <time>2023-01-07T12:58:04.092Z</time>
      </trkpt>
      <trkpt lat="43.24546" lon="3.17682">
        <ele>48.580654</ele>
        <time>2023-01-07T12:58:07.086Z</time>
      </trkpt>
      <trkpt lat="43.24558" lon="3.1769">
        <ele>48.570881</ele>
        <time>2023-01-07T12:58:10.098Z</time>
      </trkpt>
      <trkpt lat="43.24569" lon="3.17699">
        <ele>48.561015</ele>
        <time>2023-01-07T12:58:13.155Z</time>
      </trkpt>
      <trkpt lat="43.2458" lon="3.17706">
        <ele>48.548299</ele>
        <time>2023-01-07T12:58:16.095Z</time>
      </trkpt>
      <trkpt lat="43.24591" lon="3.17716">
        <ele>48.51586</ele>
        <time>2023-01-07T12:58:19.085Z</time>
      </trkpt>
      <trkpt lat="43.24601" lon="3.17724">
        <ele>48.484017</ele>
        <time>2023-01-07T12:58:22.097Z</time>
      </trkpt>
      <trkpt lat="43.24612" lon="3.17733">
        <ele>48.452105</ele>
        <time>2023-01-07T12:58:25.088Z</time>
      </trkpt>
      <trkpt lat="43.24622" lon="3.17741">
        <ele>48.419872</ele>
        <time>2023-01-07T12:58:28.080Z</time>
      </trkpt>
      <trkpt lat="43.24633" lon="3.17749">
        <ele>48.387866</ele>
        <time>2023-01-07T12:58:31.083Z</time>
      </trkpt>
      <trkpt lat="43.24643" lon="3.17757">
        <ele>48.356638</ele>
        <time>2023-01-07T12:58:34.080Z</time>
      </trkpt>
      <trkpt lat="43.24654" lon="3.17765">
        <ele>48.325693</ele>
        <time>2023-01-07T12:58:37.086Z</time>
      </trkpt>
      <trkpt lat="43.24664" lon="3.17773">
        <ele>48.294748</ele>
        <time>2023-01-07T12:58:40.084Z</time>
      </trkpt>
      <trkpt lat="43.24675" lon="3.17781">
        <ele>48.262792</ele>
        <time>2023-01-07T12:58:43.087Z</time>
      </trkpt>
      <trkpt lat="43.24685" lon="3.17789">
        <ele>48.231241</ele>
        <time>2023-01-07T12:58:46.085Z</time>
      </trkpt>
      <trkpt lat="43.24696" lon="3.17798">
        <ele>48.198363</ele>
        <time>2023-01-07T12:58:49.094Z</time>
      </trkpt>
      <trkpt lat="43.24707" lon="3.17806">
        <ele>48.165855</ele>
        <time>2023-01-07T12:58:52.087Z</time>
      </trkpt>
      <trkpt lat="43.24717" lon="3.17815">
        <ele>48.133689</ele>
        <time>2023-01-07T12:58:55.090Z</time>
      </trkpt>
      <trkpt lat="43.24728" lon="3.17824">
        <ele>48.101122</ele>
        <time>2023-01-07T12:58:58.093Z</time>
      </trkpt>
      <trkpt lat="43.24738" lon="3.17834">
        <ele>48.054832</ele>
        <time>2023-01-07T12:59:01.085Z</time>
      </trkpt>
      <trkpt lat="43.24747" lon="3.17846">
        <ele>47.989051</ele>
        <time>2023-01-07T12:59:04.095Z</time>
      </trkpt>
      <trkpt lat="43.24755" lon="3.17857">
        <ele>47.926459</ele>
        <time>2023-01-07T12:59:07.105Z</time>
      </trkpt>
      <trkpt lat="43.24763" lon="3.17867">
        <ele>47.870412</ele>
        <time>2023-01-07T12:59:10.088Z</time>
      </trkpt>
      <trkpt lat="43.2477" lon="3.17877">
        <ele>47.819867</ele>
        <time>2023-01-07T12:59:13.098Z</time>
      </trkpt>
      <trkpt lat="43.24777" lon="3.17888">
        <ele>47.761398</ele>
        <time>2023-01-07T12:59:17.100Z</time>
      </trkpt>
      <trkpt lat="43.24785" lon="3.17897">
        <ele>47.70963</ele>
        <time>2023-01-07T12:59:22.081Z</time>
      </trkpt>
      <trkpt lat="43.24793" lon="3.17906">
        <ele>47.654163</ele>
        <time>2023-01-07T12:59:26.092Z</time>
      </trkpt>
      <trkpt lat="43.248" lon="3.17914">
        <ele>47.606055</ele>
        <time>2023-01-07T12:59:29.081Z</time>
      </trkpt>
      <trkpt lat="43.24808" lon="3.17922">
        <ele>47.553334</ele>
        <time>2023-01-07T12:59:32.079Z</time>
      </trkpt>
      <trkpt lat="43.24816" lon="3.17931">
        <ele>47.498426</ele>
        <time>2023-01-07T12:59:35.080Z</time>
      </trkpt>
      <trkpt lat="43.24824" lon="3.17941">
        <ele>47.442379</ele>
        <time>2023-01-07T12:59:38.083Z</time>
      </trkpt>
      <trkpt lat="43.24831" lon="3.17951">
        <ele>47.389628</ele>
        <time>2023-01-07T12:59:41.080Z</time>
      </trkpt>
      <trkpt lat="43.24838" lon="3.17962">
        <ele>47.333078</ele>
        <time>2023-01-07T12:59:44.085Z</time>
      </trkpt>
      <trkpt lat="43.24844" lon="3.17972">
        <ele>47.281808</ele>
        <time>2023-01-07T12:59:47.094Z</time>
      </trkpt>
      <trkpt lat="43.24849" lon="3.17984">
        <ele>47.229916</ele>
        <time>2023-01-07T12:59:50.085Z</time>
      </trkpt>
      <trkpt lat="43.24857" lon="3.17995">
        <ele>47.172506</ele>
        <time>2023-01-07T12:59:53.083Z</time>
      </trkpt>
      <trkpt lat="43.24863" lon="3.18006">
        <ele>47.145174</ele>
        <time>2023-01-07T12:59:56.101Z</time>
      </trkpt>
      <trkpt lat="43.2487" lon="3.18018">
        <ele>47.192872</ele>
        <time>2023-01-07T12:59:59.102Z</time>
      </trkpt>
      <trkpt lat="43.24877" lon="3.1803">
        <ele>47.240797</ele>
        <time>2023-01-07T13:00:02.086Z</time>
      </trkpt>
      <trkpt lat="43.24884" lon="3.18043">
        <ele>47.29127</ele>
        <time>2023-01-07T13:00:05.099Z</time>
      </trkpt>
      <trkpt lat="43.24891" lon="3.18056">
        <ele>47.340744</ele>
        <time>2023-01-07T13:00:08.087Z</time>
      </trkpt>
      <trkpt lat="43.24898" lon="3.18069">
        <ele>47.39173</ele>
        <time>2023-01-07T13:00:11.086Z</time>
      </trkpt>
      <trkpt lat="43.24905" lon="3.18081">
        <ele>47.443638</ele>
        <time>2023-01-07T13:00:14.100Z</time>
      </trkpt>
      <trkpt lat="43.24912" lon="3.18095">
        <ele>47.49592</ele>
        <time>2023-01-07T13:00:17.091Z</time>
      </trkpt>
      <trkpt lat="43.24919" lon="3.18109">
        <ele>47.54881</ele>
        <time>2023-01-07T13:00:20.136Z</time>
      </trkpt>
      <trkpt lat="43.24924" lon="3.18124">
        <ele>47.601685</ele>
        <time>2023-01-07T13:00:23.097Z</time>
      </trkpt>
      <trkpt lat="43.24929" lon="3.18139">
        <ele>47.653788</ele>
        <time>2023-01-07T13:00:26.090Z</time>
      </trkpt>
      <trkpt lat="43.24935" lon="3.18155">
        <ele>47.708634</ele>
        <time>2023-01-07T13:00:29.094Z</time>
      </trkpt>
      <trkpt lat="43.24941" lon="3.1817">
        <ele>47.763198</ele>
        <time>2023-01-07T13:00:32.083Z</time>
      </trkpt>
      <trkpt lat="43.24946" lon="3.18186">
        <ele>47.81757</ele>
        <time>2023-01-07T13:00:35.085Z</time>
      </trkpt>
      <trkpt lat="43.24952" lon="3.18201">
        <ele>47.87133</ele>
        <time>2023-01-07T13:00:38.095Z</time>
      </trkpt>
      <trkpt lat="43.24957" lon="3.18216">
        <ele>47.901429</ele>
        <time>2023-01-07T13:00:41.088Z</time>
      </trkpt>
      <trkpt lat="43.24963" lon="3.18231">
        <ele>47.868394</ele>
        <time>2023-01-07T13:00:44.093Z</time>
      </trkpt>
      <trkpt lat="43.24968" lon="3.18247">
        <ele>47.833693</ele>
        <time>2023-01-07T13:00:47.080Z</time>
      </trkpt>
      <trkpt lat="43.24974" lon="3.18263">
        <ele>47.797911</ele>
        <time>2023-01-07T13:00:50.093Z</time>
      </trkpt>
      <trkpt lat="43.2498" lon="3.18279">
        <ele>47.761702</ele>
        <time>2023-01-07T13:00:53.081Z</time>
      </trkpt>
      <trkpt lat="43.24987" lon="3.18294">
        <ele>47.726313</ele>
        <time>2023-01-07T13:00:56.093Z</time>
      </trkpt>
      <trkpt lat="43.24993" lon="3.18309">
        <ele>47.693201</ele>
        <time>2023-01-07T13:00:59.090Z</time>
      </trkpt>
      <trkpt lat="43.24998" lon="3.18324">
        <ele>47.660112</ele>
        <time>2023-01-07T13:01:02.084Z</time>
      </trkpt>
      <trkpt lat="43.25004" lon="3.18338">
        <ele>47.628485</ele>
        <time>2023-01-07T13:01:05.081Z</time>
      </trkpt>
      <trkpt lat="43.25008" lon="3.18349">
        <ele>47.603663</ele>
        <time>2023-01-07T13:01:08.086Z</time>
      </trkpt>
      <trkpt lat="43.25012" lon="3.18363">
        <ele>47.573191</ele>
        <time>2023-01-07T13:01:12.080Z</time>
      </trkpt>
      <trkpt lat="43.25017" lon="3.18374">
        <ele>47.54828</ele>
        <time>2023-01-07T13:01:15.081Z</time>
      </trkpt>
      <trkpt lat="43.25022" lon="3.18386">
        <ele>47.52074</ele>
        <time>2023-01-07T13:01:18.091Z</time>
      </trkpt>
      <trkpt lat="43.25028" lon="3.18399">
        <ele>47.488474</ele>
        <time>2023-01-07T13:01:22.087Z</time>
      </trkpt>
      <trkpt lat="43.25033" lon="3.18412">
        <ele>47.46116</ele>
        <time>2023-01-07T13:01:26.082Z</time>
      </trkpt>
      <trkpt lat="43.25038" lon="3.18425">
        <ele>47.430444</ele>
        <time>2023-01-07T13:01:31.077Z</time>
      </trkpt>
      <trkpt lat="43.25042" lon="3.1844">
        <ele>47.409794</ele>
        <time>2023-01-07T13:01:36.084Z</time>
      </trkpt>
      <trkpt lat="43.25047" lon="3.18454">
        <ele>47.395401</ele>
        <time>2023-01-07T13:01:40.076Z</time>
      </trkpt>
      <trkpt lat="43.25052" lon="3.18468">
        <ele>47.380175</ele>
        <time>2023-01-07T13:01:44.084Z</time>
      </trkpt>
      <trkpt lat="43.25057" lon="3.18483">
        <ele>47.364641</ele>
        <time>2023-01-07T13:01:48.087Z</time>
      </trkpt>
      <trkpt lat="43.2506" lon="3.18495">
        <ele>47.352785</ele>
        <time>2023-01-07T13:01:51.082Z</time>
      </trkpt>
      <trkpt lat="43.25065" lon="3.18509">
        <ele>47.337788</ele>
        <time>2023-01-07T13:01:55.076Z</time>
      </trkpt>
      <trkpt lat="43.25069" lon="3.18522">
        <ele>47.32398</ele>
        <time>2023-01-07T13:01:59.088Z</time>
      </trkpt>
      <trkpt lat="43.25073" lon="3.18534">
        <ele>47.311574</ele>
        <time>2023-01-07T13:02:03.088Z</time>
      </trkpt>
      <trkpt lat="43.25077" lon="3.18549">
        <ele>47.297228</ele>
        <time>2023-01-07T13:02:07.084Z</time>
      </trkpt>
      <trkpt lat="43.2508" lon="3.1856">
        <ele>47.285379</ele>
        <time>2023-01-07T13:02:10.098Z</time>
      </trkpt>
      <trkpt lat="43.25082" lon="3.18573">
        <ele>47.273217</ele>
        <time>2023-01-07T13:02:13.095Z</time>
      </trkpt>
      <trkpt lat="43.25084" lon="3.18586">
        <ele>47.260378</ele>
        <time>2023-01-07T13:02:16.098Z</time>
      </trkpt>
      <trkpt lat="43.25087" lon="3.18602">
        <ele>47.244623</ele>
        <time>2023-01-07T13:02:20.094Z</time>
      </trkpt>
      <trkpt lat="43.2509" lon="3.18614">
        <ele>47.232262</ele>
        <time>2023-01-07T13:02:23.084Z</time>
      </trkpt>
      <trkpt lat="43.25093" lon="3.18627">
        <ele>47.219639</ele>
        <time>2023-01-07T13:02:26.087Z</time>
      </trkpt>
      <trkpt lat="43.25095" lon="3.1864">
        <ele>47.207078</ele>
        <time>2023-01-07T13:02:29.096Z</time>
      </trkpt>
      <trkpt lat="43.25098" lon="3.18656">
        <ele>47.191722</ele>
        <time>2023-01-07T13:02:33.096Z</time>
      </trkpt>
      <trkpt lat="43.251" lon="3.1867">
        <ele>47.148558</ele>
        <time>2023-01-07T13:02:37.088Z</time>
      </trkpt>
      <trkpt lat="43.25103" lon="3.18685">
        <ele>47.072316</ele>
        <time>2023-01-07T13:02:41.078Z</time>
      </trkpt>
      <trkpt lat="43.25105" lon="3.18701">
        <ele>46.993121</ele>
        <time>2023-01-07T13:02:45.083Z</time>
      </trkpt>
      <trkpt lat="43.25105" lon="3.18714">
        <ele>46.930338</ele>
        <time>2023-01-07T13:02:48.078Z</time>
      </trkpt>
      <trkpt lat="43.25105" lon="3.18729">
        <ele>46.862375</ele>
        <time>2023-01-07T13:02:51.080Z</time>
      </trkpt>
      <trkpt lat="43.25105" lon="3.18744">
        <ele>46.786678</ele>
        <time>2023-01-07T13:02:55.087Z</time>
      </trkpt>
      <trkpt lat="43.25105" lon="3.18759">
        <ele>46.714378</ele>
        <time>2023-01-07T13:02:59.082Z</time>
      </trkpt>
      <trkpt lat="43.25101" lon="3.18775">
        <ele>46.635794</ele>
        <time>2023-01-07T13:03:03.081Z</time>
      </trkpt>
      <trkpt lat="43.25096" lon="3.18785">
        <ele>46.57533</ele>
        <time>2023-01-07T13:03:06.089Z</time>
      </trkpt>
      <trkpt lat="43.2509" lon="3.18799">
        <ele>46.496831</ele>
        <time>2023-01-07T13:03:10.079Z</time>
      </trkpt>
      <trkpt lat="43.25083" lon="3.18808">
        <ele>46.435351</ele>
        <time>2023-01-07T13:03:13.097Z</time>
      </trkpt>
      <trkpt lat="43.25077" lon="3.18819">
        <ele>46.370616</ele>
        <time>2023-01-07T13:03:16.093Z</time>
      </trkpt>
      <trkpt lat="43.25071" lon="3.18828">
        <ele>46.311095</ele>
        <time>2023-01-07T13:03:19.082Z</time>
      </trkpt>
      <trkpt lat="43.25064" lon="3.1884">
        <ele>46.238489</ele>
        <time>2023-01-07T13:03:23.082Z</time>
      </trkpt>
      <trkpt lat="43.25059" lon="3.1885">
        <ele>46.178042</ele>
        <time>2023-01-07T13:03:26.077Z</time>
      </trkpt>
      <trkpt lat="43.25053" lon="3.1886">
        <ele>46.115694</ele>
        <time>2023-01-07T13:03:29.077Z</time>
      </trkpt>
      <trkpt lat="43.25048" lon="3.18872">
        <ele>46.046536</ele>
        <time>2023-01-07T13:03:32.092Z</time>
      </trkpt>
      <trkpt lat="43.25043" lon="3.18885">
        <ele>46.007602</ele>
        <time>2023-01-07T13:03:35.104Z</time>
      </trkpt>
      <trkpt lat="43.25039" lon="3.18897">
        <ele>46.056379</ele>
        <time>2023-01-07T13:03:38.081Z</time>
      </trkpt>
      <trkpt lat="43.25034" lon="3.18909">
        <ele>46.103453</ele>
        <time>2023-01-07T13:03:41.090Z</time>
      </trkpt>
      <trkpt lat="43.2503" lon="3.1892">
        <ele>46.147693</ele>
        <time>2023-01-07T13:03:44.090Z</time>
      </trkpt>
      <trkpt lat="43.25027" lon="3.18934">
        <ele>46.197519</ele>
        <time>2023-01-07T13:03:48.080Z</time>
      </trkpt>
      <trkpt lat="43.25023" lon="3.18949">
        <ele>46.254137</ele>
        <time>2023-01-07T13:03:52.083Z</time>
      </trkpt>
      <trkpt lat="43.25019" lon="3.18963">
        <ele>46.308365</ele>
        <time>2023-01-07T13:03:56.077Z</time>
      </trkpt>
      <trkpt lat="43.25013" lon="3.18976">
        <ele>46.362344</ele>
        <time>2023-01-07T13:04:01.081Z</time>
      </trkpt>
      <trkpt lat="43.25009" lon="3.18989">
        <ele>46.413458</ele>
        <time>2023-01-07T13:04:05.080Z</time>
      </trkpt>
      <trkpt lat="43.25007" lon="3.19004">
        <ele>46.468472</ele>
        <time>2023-01-07T13:04:09.094Z</time>
      </trkpt>
      <trkpt lat="43.25008" lon="3.19019">
        <ele>46.522124</ele>
        <time>2023-01-07T13:04:13.089Z</time>
      </trkpt>
      <trkpt lat="43.2501" lon="3.19035">
        <ele>46.577485</ele>
        <time>2023-01-07T13:04:17.097Z</time>
      </trkpt>
      <trkpt lat="43.2501" lon="3.1905">
        <ele>46.632421</ele>
        <time>2023-01-07T13:04:21.080Z</time>
      </trkpt>
      <trkpt lat="43.25011" lon="3.19063">
        <ele>46.676581</ele>
        <time>2023-01-07T13:04:24.079Z</time>
      </trkpt>
      <trkpt lat="43.25014" lon="3.19077">
        <ele>46.731539</ele>
        <time>2023-01-07T13:04:28.098Z</time>
      </trkpt>
      <trkpt lat="43.25016" lon="3.19093">
        <ele>46.78654</ele>
        <time>2023-01-07T13:04:32.088Z</time>
      </trkpt>
      <trkpt lat="43.25017" lon="3.19105">
        <ele>46.831807</ele>
        <time>2023-01-07T13:04:36.083Z</time>
      </trkpt>
      <trkpt lat="43.25018" lon="3.1912">
        <ele>46.854942</ele>
        <time>2023-01-07T13:04:41.080Z</time>
      </trkpt>
      <trkpt lat="43.2502" lon="3.19135">
        <ele>46.793705</ele>
        <time>2023-01-07T13:04:46.076Z</time>
      </trkpt>
      <trkpt lat="43.25021" lon="3.19151">
        <ele>46.726818</ele>
        <time>2023-01-07T13:04:50.104Z</time>
      </trkpt>
      <trkpt lat="43.25022" lon="3.19164">
        <ele>46.675656</ele>
        <time>2023-01-07T13:04:53.095Z</time>
      </trkpt>
      <trkpt lat="43.25023" lon="3.19178">
        <ele>46.618718</ele>
        <time>2023-01-07T13:04:57.087Z</time>
      </trkpt>
      <trkpt lat="43.25025" lon="3.19193">
        <ele>46.556189</ele>
        <time>2023-01-07T13:05:02.096Z</time>
      </trkpt>
      <trkpt lat="43.25025" lon="3.19207">
        <ele>46.500138</ele>
        <time>2023-01-07T13:05:06.085Z</time>
      </trkpt>
      <trkpt lat="43.25028" lon="3.19221">
        <ele>46.441747</ele>
        <time>2023-01-07T13:05:11.087Z</time>
      </trkpt>
      <trkpt lat="43.25028" lon="3.19235">
        <ele>46.381737</ele>
        <time>2023-01-07T13:05:16.096Z</time>
      </trkpt>
      <trkpt lat="43.25029" lon="3.19248">
        <ele>46.330218</ele>
        <time>2023-01-07T13:05:20.100Z</time>
      </trkpt>
      <trkpt lat="43.25028" lon="3.19262">
        <ele>46.273762</ele>
        <time>2023-01-07T13:05:24.092Z</time>
      </trkpt>
      <trkpt lat="43.25028" lon="3.19276">
        <ele>46.21736</ele>
        <time>2023-01-07T13:05:28.081Z</time>
      </trkpt>
      <trkpt lat="43.25029" lon="3.19291">
        <ele>46.157145</ele>
        <time>2023-01-07T13:05:33.080Z</time>
      </trkpt>
      <trkpt lat="43.25029" lon="3.19305">
        <ele>46.098289</ele>
        <time>2023-01-07T13:05:37.099Z</time>
      </trkpt>
      <trkpt lat="43.25027" lon="3.1932">
        <ele>46.035663</ele>
        <time>2023-01-07T13:05:41.077Z</time>
      </trkpt>
      <trkpt lat="43.25027" lon="3.19334">
        <ele>45.978876</ele>
        <time>2023-01-07T13:05:45.090Z</time>
      </trkpt>
      <trkpt lat="43.25028" lon="3.19349">
        <ele>45.921697</ele>
        <time>2023-01-07T13:05:49.095Z</time>
      </trkpt>
      <trkpt lat="43.25026" lon="3.19363">
        <ele>45.866125</ele>
        <time>2023-01-07T13:05:53.087Z</time>
      </trkpt>
      <trkpt lat="43.25024" lon="3.19378">
        <ele>45.832594</ele>
        <time>2023-01-07T13:05:58.081Z</time>
      </trkpt>
      <trkpt lat="43.25024" lon="3.19392">
        <ele>45.802111</ele>
        <time>2023-01-07T13:06:02.088Z</time>
      </trkpt>
      <trkpt lat="43.25024" lon="3.19407">
        <ele>45.768142</ele>
        <time>2023-01-07T13:06:06.083Z</time>
      </trkpt>
      <trkpt lat="43.25023" lon="3.19422">
        <ele>45.735561</ele>
        <time>2023-01-07T13:06:11.081Z</time>
      </trkpt>
      <trkpt lat="43.25021" lon="3.19438">
        <ele>45.702077</ele>
        <time>2023-01-07T13:06:16.082Z</time>
      </trkpt>
      <trkpt lat="43.2502" lon="3.19452">
        <ele>45.67055</ele>
        <time>2023-01-07T13:06:21.085Z</time>
      </trkpt>
      <trkpt lat="43.25019" lon="3.19467">
        <ele>45.63867</ele>
        <time>2023-01-07T13:06:25.094Z</time>
      </trkpt>
      <trkpt lat="43.25018" lon="3.1948">
        <ele>45.608935</ele>
        <time>2023-01-07T13:06:30.086Z</time>
      </trkpt>
      <trkpt lat="43.25018" lon="3.19494">
        <ele>45.577899</ele>
        <time>2023-01-07T13:06:36.096Z</time>
      </trkpt>
      <trkpt lat="43.25018" lon="3.19509">
        <ele>45.54698</ele>
        <time>2023-01-07T13:06:42.089Z</time>
      </trkpt>
      <trkpt lat="43.25031" lon="3.19514">
        <ele>45.50355</ele>
        <time>2023-01-07T13:08:25.083Z</time>
      </trkpt>
      <trkpt lat="43.25045" lon="3.19507">
        <ele>45.460207</ele>
        <time>2023-01-07T13:09:24.091Z</time>
      </trkpt>
      <trkpt lat="43.25055" lon="3.19501">
        <ele>45.426861</ele>
        <time>2023-01-07T13:09:45.087Z</time>
      </trkpt>
      <trkpt lat="43.25064" lon="3.195">
        <ele>45.399005</ele>
        <time>2023-01-07T13:09:55.082Z</time>
      </trkpt>
      <trkpt lat="43.25073" lon="3.19495">
        <ele>45.371548</ele>
        <time>2023-01-07T13:10:05.092Z</time>
      </trkpt>
      <trkpt lat="43.25082" lon="3.19494">
        <ele>45.343921</ele>
        <time>2023-01-07T13:10:14.091Z</time>
      </trkpt>
      <trkpt lat="43.25091" lon="3.19491">
        <ele>45.369809</ele>
        <time>2023-01-07T13:10:25.100Z</time>
      </trkpt>
      <trkpt lat="43.25103" lon="3.19488">
        <ele>45.464419</ele>
        <time>2023-01-07T13:10:53.101Z</time>
      </trkpt>
      <trkpt lat="43.25112" lon="3.19485">
        <ele>45.533961</ele>
        <time>2023-01-07T13:11:00.107Z</time>
      </trkpt>
      <trkpt lat="43.25121" lon="3.1948">
        <ele>45.603799</ele>
        <time>2023-01-07T13:11:09.089Z</time>
      </trkpt>
      <trkpt lat="43.2513" lon="3.19477">
        <ele>45.674933</ele>
        <time>2023-01-07T13:11:17.085Z</time>
      </trkpt>
      <trkpt lat="43.25141" lon="3.19473">
        <ele>45.764822</ele>
        <time>2023-01-07T13:11:39.089Z</time>
      </trkpt>
      <trkpt lat="43.25149" lon="3.19467">
        <ele>45.83333</ele>
        <time>2023-01-07T13:11:49.091Z</time>
      </trkpt>
      <trkpt lat="43.25157" lon="3.19459">
        <ele>45.906881</ele>
        <time>2023-01-07T13:12:01.086Z</time>
      </trkpt>
      <trkpt lat="43.25166" lon="3.1946">
        <ele>45.977628</ele>
        <time>2023-01-07T13:12:10.088Z</time>
      </trkpt>
      <trkpt lat="43.25181" lon="3.19463">
        <ele>46.090657</ele>
        <time>2023-01-07T13:12:42.081Z</time>
      </trkpt>
      <trkpt lat="43.2519" lon="3.19467">
        <ele>46.15977</ele>
        <time>2023-01-07T13:12:51.089Z</time>
      </trkpt>
      <trkpt lat="43.2518" lon="3.19464">
        <ele>46.234481</ele>
        <time>2023-01-07T13:14:21.081Z</time>
      </trkpt>
      <trkpt lat="43.2517" lon="3.19462">
        <ele>46.309085</ele>
        <time>2023-01-07T13:14:31.081Z</time>
      </trkpt>
      <trkpt lat="43.25161" lon="3.1946">
        <ele>46.379018</ele>
        <time>2023-01-07T13:14:40.093Z</time>
      </trkpt>
      <trkpt lat="43.25152" lon="3.19462">
        <ele>46.448304</ele>
        <time>2023-01-07T13:14:50.085Z</time>
      </trkpt>
      <trkpt lat="43.25146" lon="3.19471">
        <ele>46.517964</ele>
        <time>2023-01-07T13:14:59.091Z</time>
      </trkpt>
      <trkpt lat="43.25137" lon="3.19475">
        <ele>46.588134</ele>
        <time>2023-01-07T13:15:08.079Z</time>
      </trkpt>
      <trkpt lat="43.25127" lon="3.19477">
        <ele>46.662486</ele>
        <time>2023-01-07T13:15:17.083Z</time>
      </trkpt>
      <trkpt lat="43.25118" lon="3.1948">
        <ele>46.721894</ele>
        <time>2023-01-07T13:15:26.084Z</time>
      </trkpt>
      <trkpt lat="43.25109" lon="3.19484">
        <ele>46.77392</ele>
        <time>2023-01-07T13:15:37.095Z</time>
      </trkpt>
      <trkpt lat="43.251" lon="3.19488">
        <ele>46.824145</ele>
        <time>2023-01-07T13:15:46.086Z</time>
      </trkpt>
      <trkpt lat="43.25091" lon="3.19492">
        <ele>46.874225</ele>
        <time>2023-01-07T13:15:56.095Z</time>
      </trkpt>
      <trkpt lat="43.25081" lon="3.19494">
        <ele>46.924229</ele>
        <time>2023-01-07T13:16:05.102Z</time>
      </trkpt>
      <trkpt lat="43.25072" lon="3.19496">
        <ele>46.974808</ele>
        <time>2023-01-07T13:16:15.098Z</time>
      </trkpt>
      <trkpt lat="43.25064" lon="3.19502">
        <ele>47.022006</ele>
        <time>2023-01-07T13:16:24.081Z</time>
      </trkpt>
      <trkpt lat="43.25054" lon="3.19504">
        <ele>47.073041</ele>
        <time>2023-01-07T13:16:33.100Z</time>
      </trkpt>
      <trkpt lat="43.25046" lon="3.1951">
        <ele>47.122548</ele>
        <time>2023-01-07T13:16:43.079Z</time>
      </trkpt>
      <trkpt lat="43.2504" lon="3.19519">
        <ele>47.17185</ele>
        <time>2023-01-07T13:16:57.101Z</time>
      </trkpt>
      <trkpt lat="43.2503" lon="3.19515">
        <ele>47.224173</ele>
        <time>2023-01-07T13:17:11.084Z</time>
      </trkpt>
      <trkpt lat="43.25019" lon="3.19515">
        <ele>47.283718</ele>
        <time>2023-01-07T13:17:38.086Z</time>
      </trkpt>
      <trkpt lat="43.25015" lon="3.19527">
        <ele>47.331828</ele>
        <time>2023-01-07T13:18:29.083Z</time>
      </trkpt>
      <trkpt lat="43.25016" lon="3.1954">
        <ele>47.383039</ele>
        <time>2023-01-07T13:18:36.087Z</time>
      </trkpt>
      <trkpt lat="43.25015" lon="3.19554">
        <ele>47.435443</ele>
        <time>2023-01-07T13:18:41.088Z</time>
      </trkpt>
      <trkpt lat="43.25016" lon="3.19567">
        <ele>47.487251</ele>
        <time>2023-01-07T13:18:46.084Z</time>
      </trkpt>
      <trkpt lat="43.25018" lon="3.19581">
        <ele>47.541933</ele>
        <time>2023-01-07T13:18:51.086Z</time>
      </trkpt>
      <trkpt lat="43.25019" lon="3.19594">
        <ele>47.591392</ele>
        <time>2023-01-07T13:18:56.092Z</time>
      </trkpt>
      <trkpt lat="43.25016" lon="3.19582">
        <ele>47.639351</ele>
        <time>2023-01-07T13:20:15.080Z</time>
      </trkpt>
      <trkpt lat="43.25015" lon="3.19569">
        <ele>47.656064</ele>
        <time>2023-01-07T13:20:31.077Z</time>
      </trkpt>
      <trkpt lat="43.25014" lon="3.19556">
        <ele>47.668431</ele>
        <time>2023-01-07T13:20:36.082Z</time>
      </trkpt>
      <trkpt lat="43.25015" lon="3.19542">
        <ele>47.681687</ele>
        <time>2023-01-07T13:20:42.096Z</time>
      </trkpt>
      <trkpt lat="43.25015" lon="3.1953">
        <ele>47.69419</ele>
        <time>2023-01-07T13:20:47.090Z</time>
      </trkpt>
      <trkpt lat="43.25015" lon="3.19515">
        <ele>47.708072</ele>
        <time>2023-01-07T13:20:52.082Z</time>
      </trkpt>
      <trkpt lat="43.25017" lon="3.19501">
        <ele>47.722152</ele>
        <time>2023-01-07T13:20:56.085Z</time>
      </trkpt>
      <trkpt lat="43.25017" lon="3.19489">
        <ele>47.73457</ele>
        <time>2023-01-07T13:21:00.084Z</time>
      </trkpt>
      <trkpt lat="43.25019" lon="3.19476">
        <ele>47.747098</ele>
        <time>2023-01-07T13:21:05.098Z</time>
      </trkpt>
      <trkpt lat="43.25019" lon="3.19463">
        <ele>47.759409</ele>
        <time>2023-01-07T13:21:10.090Z</time>
      </trkpt>
      <trkpt lat="43.2502" lon="3.19451">
        <ele>47.771596</ele>
        <time>2023-01-07T13:21:14.086Z</time>
      </trkpt>
      <trkpt lat="43.25021" lon="3.19437">
        <ele>47.785508</ele>
        <time>2023-01-07T13:21:18.100Z</time>
      </trkpt>
      <trkpt lat="43.25022" lon="3.19423">
        <ele>47.799158</ele>
        <time>2023-01-07T13:21:22.081Z</time>
      </trkpt>
      <trkpt lat="43.25024" lon="3.19409">
        <ele>47.812615</ele>
        <time>2023-01-07T13:21:27.091Z</time>
      </trkpt>
      <trkpt lat="43.25026" lon="3.19397">
        <ele>47.825229</ele>
        <time>2023-01-07T13:21:31.078Z</time>
      </trkpt>
      <trkpt lat="43.25025" lon="3.19381">
        <ele>47.840213</ele>
        <time>2023-01-07T13:21:35.084Z</time>
      </trkpt>
      <trkpt lat="43.25025" lon="3.19366">
        <ele>47.85557</ele>
        <time>2023-01-07T13:21:39.088Z</time>
      </trkpt>
      <trkpt lat="43.25027" lon="3.19352">
        <ele>47.869339</ele>
        <time>2023-01-07T13:21:43.086Z</time>
      </trkpt>
      <trkpt lat="43.25027" lon="3.19339">
        <ele>47.881751</ele>
        <time>2023-01-07T13:21:47.087Z</time>
      </trkpt>
      <trkpt lat="43.25028" lon="3.19325">
        <ele>47.943762</ele>
        <time>2023-01-07T13:21:51.083Z</time>
      </trkpt>
      <trkpt lat="43.25028" lon="3.19309">
        <ele>48.032829</ele>
        <time>2023-01-07T13:21:55.101Z</time>
      </trkpt>
      <trkpt lat="43.25029" lon="3.19296">
        <ele>48.106944</ele>
        <time>2023-01-07T13:21:58.080Z</time>
      </trkpt>
      <trkpt lat="43.25029" lon="3.19283">
        <ele>48.177492</ele>
        <time>2023-01-07T13:22:01.085Z</time>
      </trkpt>
      <trkpt lat="43.25028" lon="3.19269">
        <ele>48.257642</ele>
        <time>2023-01-07T13:22:05.089Z</time>
      </trkpt>
      <trkpt lat="43.25029" lon="3.19256">
        <ele>48.32819</ele>
        <time>2023-01-07T13:22:09.078Z</time>
      </trkpt>
      <trkpt lat="43.25029" lon="3.19242">
        <ele>48.403858</ele>
        <time>2023-01-07T13:22:13.088Z</time>
      </trkpt>
      <trkpt lat="43.2503" lon="3.19227">
        <ele>48.488883</ele>
        <time>2023-01-07T13:22:18.093Z</time>
      </trkpt>
      <trkpt lat="43.25028" lon="3.19212">
        <ele>48.572869</ele>
        <time>2023-01-07T13:22:23.090Z</time>
      </trkpt>
      <trkpt lat="43.25025" lon="3.19199">
        <ele>48.649222</ele>
        <time>2023-01-07T13:22:27.087Z</time>
      </trkpt>
      <trkpt lat="43.25025" lon="3.19183">
        <ele>48.736023</ele>
        <time>2023-01-07T13:22:31.081Z</time>
      </trkpt>
      <trkpt lat="43.25023" lon="3.1917">
        <ele>48.808697</ele>
        <time>2023-01-07T13:22:34.081Z</time>
      </trkpt>
      <trkpt lat="43.25022" lon="3.19157">
        <ele>48.884414</ele>
        <time>2023-01-07T13:22:37.085Z</time>
      </trkpt>
      <trkpt lat="43.25022" lon="3.19144">
        <ele>48.955762</ele>
        <time>2023-01-07T13:22:40.087Z</time>
      </trkpt>
      <trkpt lat="43.25021" lon="3.1913">
        <ele>49.035545</ele>
        <time>2023-01-07T13:22:44.084Z</time>
      </trkpt>
      <trkpt lat="43.2502" lon="3.19116">
        <ele>49.114774</ele>
        <time>2023-01-07T13:22:48.092Z</time>
      </trkpt>
      <trkpt lat="43.25018" lon="3.19101">
        <ele>49.193805</ele>
        <time>2023-01-07T13:22:53.081Z</time>
      </trkpt>
      <trkpt lat="43.25017" lon="3.19086">
        <ele>49.252463</ele>
        <time>2023-01-07T13:22:57.084Z</time>
      </trkpt>
      <trkpt lat="43.25015" lon="3.19074">
        <ele>49.239925</ele>
        <time>2023-01-07T13:23:00.086Z</time>
      </trkpt>
      <trkpt lat="43.25012" lon="3.1906">
        <ele>49.225424</ele>
        <time>2023-01-07T13:23:04.096Z</time>
      </trkpt>
      <trkpt lat="43.25011" lon="3.19048">
        <ele>49.213032</ele>
        <time>2023-01-07T13:23:07.103Z</time>
      </trkpt>
      <trkpt lat="43.25009" lon="3.19035">
        <ele>49.199818</ele>
        <time>2023-01-07T13:23:10.084Z</time>
      </trkpt>
      <trkpt lat="43.25008" lon="3.19021">
        <ele>49.185663</ele>
        <time>2023-01-07T13:23:13.081Z</time>
      </trkpt>
      <trkpt lat="43.25008" lon="3.19007">
        <ele>49.171551</ele>
        <time>2023-01-07T13:23:16.086Z</time>
      </trkpt>
      <trkpt lat="43.25009" lon="3.18994">
        <ele>49.158659</ele>
        <time>2023-01-07T13:23:19.092Z</time>
      </trkpt>
      <trkpt lat="43.25013" lon="3.18979">
        <ele>49.14226</ele>
        <time>2023-01-07T13:23:23.074Z</time>
      </trkpt>
      <trkpt lat="43.25016" lon="3.18967">
        <ele>49.129095</ele>
        <time>2023-01-07T13:23:26.084Z</time>
      </trkpt>
      <trkpt lat="43.25019" lon="3.18954">
        <ele>49.115498</ele>
        <time>2023-01-07T13:23:29.095Z</time>
      </trkpt>
      <trkpt lat="43.25026" lon="3.1894">
        <ele>49.09891</ele>
        <time>2023-01-07T13:23:33.081Z</time>
      </trkpt>
      <trkpt lat="43.2503" lon="3.18929">
        <ele>49.085724</ele>
        <time>2023-01-07T13:23:36.100Z</time>
      </trkpt>
      <trkpt lat="43.25034" lon="3.18917">
        <ele>49.073052</ele>
        <time>2023-01-07T13:23:39.078Z</time>
      </trkpt>
      <trkpt lat="43.25036" lon="3.18905">
        <ele>49.060307</ele>
        <time>2023-01-07T13:23:42.080Z</time>
      </trkpt>
      <trkpt lat="43.25041" lon="3.1889">
        <ele>49.043792</ele>
        <time>2023-01-07T13:23:46.090Z</time>
      </trkpt>
      <trkpt lat="43.25045" lon="3.18878">
        <ele>49.030722</ele>
        <time>2023-01-07T13:23:49.085Z</time>
      </trkpt>
      <trkpt lat="43.25051" lon="3.18867">
        <ele>49.016378</ele>
        <time>2023-01-07T13:23:52.080Z</time>
      </trkpt>
      <trkpt lat="43.25058" lon="3.18855">
        <ele>49.024609</ele>
        <time>2023-01-07T13:23:55.077Z</time>
      </trkpt>
      <trkpt lat="43.25063" lon="3.18844">
        <ele>49.060898</ele>
        <time>2023-01-07T13:23:58.086Z</time>
      </trkpt>
      <trkpt lat="43.25069" lon="3.18833">
        <ele>49.101013</ele>
        <time>2023-01-07T13:24:01.085Z</time>
      </trkpt>
      <trkpt lat="43.25076" lon="3.18822">
        <ele>49.141609</ele>
        <time>2023-01-07T13:24:04.087Z</time>
      </trkpt>
      <trkpt lat="43.25082" lon="3.18811">
        <ele>49.184042</ele>
        <time>2023-01-07T13:24:07.087Z</time>
      </trkpt>
      <trkpt lat="43.25089" lon="3.18799">
        <ele>49.228383</ele>
        <time>2023-01-07T13:24:10.107Z</time>
      </trkpt>
      <trkpt lat="43.25096" lon="3.18788">
        <ele>49.268627</ele>
        <time>2023-01-07T13:24:13.091Z</time>
      </trkpt>
      <trkpt lat="43.25102" lon="3.18776">
        <ele>49.310129</ele>
        <time>2023-01-07T13:24:17.088Z</time>
      </trkpt>
      <trkpt lat="43.25105" lon="3.18763">
        <ele>49.34833</ele>
        <time>2023-01-07T13:24:21.088Z</time>
      </trkpt>
      <trkpt lat="43.25106" lon="3.18751">
        <ele>49.384118</ele>
        <time>2023-01-07T13:24:24.091Z</time>
      </trkpt>
      <trkpt lat="43.25106" lon="3.18737">
        <ele>49.424949</ele>
        <time>2023-01-07T13:24:27.081Z</time>
      </trkpt>
      <trkpt lat="43.25106" lon="3.18721">
        <ele>49.470298</ele>
        <time>2023-01-07T13:24:30.084Z</time>
      </trkpt>
      <trkpt lat="43.25106" lon="3.18705">
        <ele>49.514789</ele>
        <time>2023-01-07T13:24:33.081Z</time>
      </trkpt>
      <trkpt lat="43.25104" lon="3.1869">
        <ele>49.559335</ele>
        <time>2023-01-07T13:24:36.091Z</time>
      </trkpt>
      <trkpt lat="43.25102" lon="3.18674">
        <ele>49.60486</ele>
        <time>2023-01-07T13:24:39.083Z</time>
      </trkpt>
      <trkpt lat="43.251" lon="3.18659">
        <ele>49.648651</ele>
        <time>2023-01-07T13:24:42.088Z</time>
      </trkpt>
      <trkpt lat="43.25097" lon="3.18645">
        <ele>49.688854</ele>
        <time>2023-01-07T13:24:45.080Z</time>
      </trkpt>
      <trkpt lat="43.25095" lon="3.18633">
        <ele>49.746485</ele>
        <time>2023-01-07T13:24:48.088Z</time>
      </trkpt>
      <trkpt lat="43.25092" lon="3.18621">
        <ele>49.848896</ele>
        <time>2023-01-07T13:24:51.082Z</time>
      </trkpt>
      <trkpt lat="43.2509" lon="3.18607">
        <ele>49.957736</ele>
        <time>2023-01-07T13:24:54.081Z</time>
      </trkpt>
      <trkpt lat="43.25087" lon="3.18593">
        <ele>50.075358</ele>
        <time>2023-01-07T13:24:57.080Z</time>
      </trkpt>
      <trkpt lat="43.25084" lon="3.18579">
        <ele>50.195707</ele>
        <time>2023-01-07T13:25:00.085Z</time>
      </trkpt>
      <trkpt lat="43.25081" lon="3.18564">
        <ele>50.315744</ele>
        <time>2023-01-07T13:25:03.094Z</time>
      </trkpt>
      <trkpt lat="43.25078" lon="3.18549">
        <ele>50.437773</ele>
        <time>2023-01-07T13:25:06.104Z</time>
      </trkpt>
      <trkpt lat="43.25074" lon="3.18536">
        <ele>50.552922</ele>
        <time>2023-01-07T13:25:09.096Z</time>
      </trkpt>
      <trkpt lat="43.2507" lon="3.18522">
        <ele>50.669022</ele>
        <time>2023-01-07T13:25:12.093Z</time>
      </trkpt>
      <trkpt lat="43.25066" lon="3.18509">
        <ele>50.783598</ele>
        <time>2023-01-07T13:25:15.097Z</time>
      </trkpt>
      <trkpt lat="43.25062" lon="3.18496">
        <ele>50.891191</ele>
        <time>2023-01-07T13:25:18.095Z</time>
      </trkpt>
      <trkpt lat="43.25058" lon="3.18485">
        <ele>50.994555</ele>
        <time>2023-01-07T13:25:21.096Z</time>
      </trkpt>
      <trkpt lat="43.25054" lon="3.1847">
        <ele>51.118458</ele>
        <time>2023-01-07T13:25:25.093Z</time>
      </trkpt>
      <trkpt lat="43.25048" lon="3.18456">
        <ele>51.246396</ele>
        <time>2023-01-07T13:25:29.085Z</time>
      </trkpt>
      <trkpt lat="43.25044" lon="3.18445">
        <ele>51.348101</ele>
        <time>2023-01-07T13:25:32.095Z</time>
      </trkpt>
      <trkpt lat="43.25041" lon="3.18432">
        <ele>51.454461</ele>
        <time>2023-01-07T13:25:35.096Z</time>
      </trkpt>
      <trkpt lat="43.25036" lon="3.1842">
        <ele>51.562689</ele>
        <time>2023-01-07T13:25:38.080Z</time>
      </trkpt>
      <trkpt lat="43.25031" lon="3.18408">
        <ele>51.673404</ele>
        <time>2023-01-07T13:25:41.091Z</time>
      </trkpt>
      <trkpt lat="43.25026" lon="3.18396">
        <ele>51.546921</ele>
        <time>2023-01-07T13:25:44.091Z</time>
      </trkpt>
      <trkpt lat="43.25021" lon="3.18385">
        <ele>51.428072</ele>
        <time>2023-01-07T13:25:47.101Z</time>
      </trkpt>
      <trkpt lat="43.25016" lon="3.18372">
        <ele>51.291523</ele>
        <time>2023-01-07T13:25:51.094Z</time>
      </trkpt>
      <trkpt lat="43.25011" lon="3.1836">
        <ele>51.165837</ele>
        <time>2023-01-07T13:25:55.095Z</time>
      </trkpt>
      <trkpt lat="43.25008" lon="3.18347">
        <ele>51.036063</ele>
        <time>2023-01-07T13:25:59.093Z</time>
      </trkpt>
      <trkpt lat="43.25015" lon="3.18335">
        <ele>50.8934</ele>
        <time>2023-01-07T13:26:03.085Z</time>
      </trkpt>
      <trkpt lat="43.25024" lon="3.18326">
        <ele>50.753875</ele>
        <time>2023-01-07T13:26:06.094Z</time>
      </trkpt>
      <trkpt lat="43.25033" lon="3.18315">
        <ele>50.598712</ele>
        <time>2023-01-07T13:26:09.088Z</time>
      </trkpt>
      <trkpt lat="43.25043" lon="3.18304">
        <ele>50.440656</ele>
        <time>2023-01-07T13:26:12.093Z</time>
      </trkpt>
      <trkpt lat="43.25053" lon="3.18292">
        <ele>50.275967</ele>
        <time>2023-01-07T13:26:15.095Z</time>
      </trkpt>
      <trkpt lat="43.25063" lon="3.18281">
        <ele>50.113421</ele>
        <time>2023-01-07T13:26:18.108Z</time>
      </trkpt>
      <trkpt lat="43.25072" lon="3.18271">
        <ele>49.962664</ele>
        <time>2023-01-07T13:26:21.076Z</time>
      </trkpt>
      <trkpt lat="43.25081" lon="3.18262">
        <ele>49.822153</ele>
        <time>2023-01-07T13:26:24.096Z</time>
      </trkpt>
      <trkpt lat="43.2509" lon="3.18252">
        <ele>49.681067</ele>
        <time>2023-01-07T13:26:27.091Z</time>
      </trkpt>
      <trkpt lat="43.25099" lon="3.18244">
        <ele>49.538732</ele>
        <time>2023-01-07T13:26:31.086Z</time>
      </trkpt>
      <trkpt lat="43.25108" lon="3.18234">
        <ele>49.398465</ele>
        <time>2023-01-07T13:26:35.091Z</time>
      </trkpt>
      <trkpt lat="43.25117" lon="3.18224">
        <ele>49.35801</ele>
        <time>2023-01-07T13:26:39.077Z</time>
      </trkpt>
      <trkpt lat="43.25125" lon="3.18216">
        <ele>49.324312</ele>
        <time>2023-01-07T13:26:42.093Z</time>
      </trkpt>
      <trkpt lat="43.25134" lon="3.18207">
        <ele>49.288143</ele>
        <time>2023-01-07T13:26:45.083Z</time>
      </trkpt>
      <trkpt lat="43.25142" lon="3.18198">
        <ele>49.2496</ele>
        <time>2023-01-07T13:26:48.086Z</time>
      </trkpt>
      <trkpt lat="43.25151" lon="3.18188">
        <ele>49.209993</ele>
        <time>2023-01-07T13:26:51.082Z</time>
      </trkpt>
      <trkpt lat="43.2516" lon="3.18177">
        <ele>49.168482</ele>
        <time>2023-01-07T13:26:54.078Z</time>
      </trkpt>
      <trkpt lat="43.25169" lon="3.18167">
        <ele>49.130625</ele>
        <time>2023-01-07T13:26:57.102Z</time>
      </trkpt>
      <trkpt lat="43.25176" lon="3.18157">
        <ele>49.094016</ele>
        <time>2023-01-07T13:27:00.085Z</time>
      </trkpt>
      <trkpt lat="43.25183" lon="3.18147">
        <ele>49.060942</ele>
        <time>2023-01-07T13:27:03.095Z</time>
      </trkpt>
      <trkpt lat="43.25188" lon="3.18135">
        <ele>49.027441</ele>
        <time>2023-01-07T13:27:06.083Z</time>
      </trkpt>
      <trkpt lat="43.25193" lon="3.18124">
        <ele>48.99361</ele>
        <time>2023-01-07T13:27:09.098Z</time>
      </trkpt>
      <trkpt lat="43.252" lon="3.18113">
        <ele>48.956823</ele>
        <time>2023-01-07T13:27:12.094Z</time>
      </trkpt>
      <trkpt lat="43.25212" lon="3.18109">
        <ele>48.91635</ele>
        <time>2023-01-07T13:27:15.081Z</time>
      </trkpt>
      <trkpt lat="43.25224" lon="3.18108">
        <ele>48.874361</ele>
        <time>2023-01-07T13:27:18.086Z</time>
      </trkpt>
      <trkpt lat="43.25235" lon="3.18108">
        <ele>48.83657</ele>
        <time>2023-01-07T13:27:21.079Z</time>
      </trkpt>
      <trkpt lat="43.25246" lon="3.18107">
        <ele>48.799357</ele>
        <time>2023-01-07T13:27:24.085Z</time>
      </trkpt>
      <trkpt lat="43.25257" lon="3.18104">
        <ele>48.783242</ele>
        <time>2023-01-07T13:27:27.091Z</time>
      </trkpt>
      <trkpt lat="43.25269" lon="3.18103">
        <ele>48.785119</ele>
        <time>2023-01-07T13:27:30.082Z</time>
      </trkpt>
      <trkpt lat="43.25281" lon="3.181">
        <ele>48.787073</ele>
        <time>2023-01-07T13:27:33.090Z</time>
      </trkpt>
      <trkpt lat="43.25293" lon="3.18098">
        <ele>48.789085</ele>
        <time>2023-01-07T13:27:36.090Z</time>
      </trkpt>
      <trkpt lat="43.25305" lon="3.18097">
        <ele>48.790984</ele>
        <time>2023-01-07T13:27:39.092Z</time>
      </trkpt>
      <trkpt lat="43.25315" lon="3.18095">
        <ele>48.792656</ele>
        <time>2023-01-07T13:27:42.085Z</time>
      </trkpt>
      <trkpt lat="43.25326" lon="3.18092">
        <ele>48.794525</ele>
        <time>2023-01-07T13:27:46.080Z</time>
      </trkpt>
      <trkpt lat="43.25336" lon="3.1809">
        <ele>48.796057</ele>
        <time>2023-01-07T13:27:49.088Z</time>
      </trkpt>
      <trkpt lat="43.25346" lon="3.18088">
        <ele>48.797782</ele>
        <time>2023-01-07T13:27:52.095Z</time>
      </trkpt>
      <trkpt lat="43.25358" lon="3.18086">
        <ele>48.799717</ele>
        <time>2023-01-07T13:27:55.100Z</time>
      </trkpt>
      <trkpt lat="43.2537" lon="3.18084">
        <ele>48.80158</ele>
        <time>2023-01-07T13:27:58.089Z</time>
      </trkpt>
      <trkpt lat="43.25382" lon="3.18082">
        <ele>48.803535</ele>
        <time>2023-01-07T13:28:01.087Z</time>
      </trkpt>
      <trkpt lat="43.25393" lon="3.1808">
        <ele>48.80542</ele>
        <time>2023-01-07T13:28:04.086Z</time>
      </trkpt>
      <trkpt lat="43.25406" lon="3.18079">
        <ele>48.807457</ele>
        <time>2023-01-07T13:28:07.089Z</time>
      </trkpt>
      <trkpt lat="43.25415" lon="3.18077">
        <ele>48.808967</ele>
        <time>2023-01-07T13:28:10.085Z</time>
      </trkpt>
      <trkpt lat="43.25426" lon="3.18075">
        <ele>48.810749</ele>
        <time>2023-01-07T13:28:14.084Z</time>
      </trkpt>
      <trkpt lat="43.25436" lon="3.18074">
        <ele>49.026208</ele>
        <time>2023-01-07T13:28:17.083Z</time>
      </trkpt>
      <trkpt lat="43.25447" lon="3.18076">
        <ele>49.394152</ele>
        <time>2023-01-07T13:28:20.093Z</time>
      </trkpt>
      <trkpt lat="43.25457" lon="3.1808">
        <ele>49.731018</ele>
        <time>2023-01-07T13:28:23.095Z</time>
      </trkpt>
      <trkpt lat="43.25466" lon="3.18086">
        <ele>50.02873</ele>
        <time>2023-01-07T13:28:26.085Z</time>
      </trkpt>
      <trkpt lat="43.25475" lon="3.18092">
        <ele>50.355267</ele>
        <time>2023-01-07T13:28:30.083Z</time>
      </trkpt>
      <trkpt lat="43.25484" lon="3.181">
        <ele>50.71752</ele>
        <time>2023-01-07T13:28:34.093Z</time>
      </trkpt>
      <trkpt lat="43.25494" lon="3.18106">
        <ele>51.060376</ele>
        <time>2023-01-07T13:28:38.095Z</time>
      </trkpt>
      <trkpt lat="43.25503" lon="3.18112">
        <ele>51.375073</ele>
        <time>2023-01-07T13:28:42.107Z</time>
      </trkpt>
      <trkpt lat="43.25512" lon="3.18115">
        <ele>51.679739</ele>
        <time>2023-01-07T13:28:46.081Z</time>
      </trkpt>
      <trkpt lat="43.25523" lon="3.18116">
        <ele>52.029613</ele>
        <time>2023-01-07T13:28:51.088Z</time>
      </trkpt>
      <trkpt lat="43.25535" lon="3.18117">
        <ele>52.395479</ele>
        <time>2023-01-07T13:28:56.090Z</time>
      </trkpt>
      <trkpt lat="43.25545" lon="3.18119">
        <ele>52.742136</ele>
        <time>2023-01-07T13:29:01.099Z</time>
      </trkpt>
      <trkpt lat="43.25555" lon="3.1812">
        <ele>53.063764</ele>
        <time>2023-01-07T13:29:06.088Z</time>
      </trkpt>
      <trkpt lat="43.25565" lon="3.18122">
        <ele>53.390722</ele>
        <time>2023-01-07T13:29:11.102Z</time>
      </trkpt>
      <trkpt lat="43.25576" lon="3.18126">
        <ele>53.727588</ele>
        <time>2023-01-07T13:29:16.095Z</time>
      </trkpt>
      <trkpt lat="43.25585" lon="3.18128">
        <ele>54.042041</ele>
        <time>2023-01-07T13:29:21.083Z</time>
      </trkpt>
      <trkpt lat="43.25595" lon="3.18131">
        <ele>54.369515</ele>
        <time>2023-01-07T13:29:26.081Z</time>
      </trkpt>
      <trkpt lat="43.25605" lon="3.18134">
        <ele>54.598182</ele>
        <time>2023-01-07T13:29:30.088Z</time>
      </trkpt>
      <trkpt lat="43.25614" lon="3.18138">
        <ele>54.670756</ele>
        <time>2023-01-07T13:29:34.083Z</time>
      </trkpt>
      <trkpt lat="43.25623" lon="3.18143">
        <ele>54.742686</ele>
        <time>2023-01-07T13:29:38.088Z</time>
      </trkpt>
      <trkpt lat="43.2563" lon="3.18152">
        <ele>54.812303</ele>
        <time>2023-01-07T13:29:41.080Z</time>
      </trkpt>
      <trkpt lat="43.25638" lon="3.18162">
        <ele>54.893378</ele>
        <time>2023-01-07T13:29:44.085Z</time>
      </trkpt>
      <trkpt lat="43.25649" lon="3.18168">
        <ele>54.97766</ele>
        <time>2023-01-07T13:29:47.096Z</time>
      </trkpt>
      <trkpt lat="43.25661" lon="3.1817">
        <ele>55.070021</ele>
        <time>2023-01-07T13:29:50.084Z</time>
      </trkpt>
      <trkpt lat="43.25673" lon="3.18172">
        <ele>55.15694</ele>
        <time>2023-01-07T13:29:53.087Z</time>
      </trkpt>
      <trkpt lat="43.25683" lon="3.18175">
        <ele>55.234079</ele>
        <time>2023-01-07T13:29:56.083Z</time>
      </trkpt>
      <trkpt lat="43.25693" lon="3.18179">
        <ele>55.313507</ele>
        <time>2023-01-07T13:29:59.088Z</time>
      </trkpt>
      <trkpt lat="43.25704" lon="3.18183">
        <ele>55.396742</ele>
        <time>2023-01-07T13:30:02.082Z</time>
      </trkpt>
      <trkpt lat="43.25715" lon="3.18187">
        <ele>55.481577</ele>
        <time>2023-01-07T13:30:05.080Z</time>
      </trkpt>
      <trkpt lat="43.25725" lon="3.18189">
        <ele>55.554439</ele>
        <time>2023-01-07T13:30:08.080Z</time>
      </trkpt>
      <trkpt lat="43.25735" lon="3.18192">
        <ele>55.628548</ele>
        <time>2023-01-07T13:30:11.087Z</time>
      </trkpt>
      <trkpt lat="43.25745" lon="3.18195">
        <ele>55.703014</ele>
        <time>2023-01-07T13:30:14.092Z</time>
      </trkpt>
      <trkpt lat="43.25754" lon="3.18199">
        <ele>55.776629</ele>
        <time>2023-01-07T13:30:17.093Z</time>
      </trkpt>
      <trkpt lat="43.25763" lon="3.18202">
        <ele>55.847251</ele>
        <time>2023-01-07T13:30:20.088Z</time>
      </trkpt>
      <trkpt lat="43.25774" lon="3.18207">
        <ele>55.954776</ele>
        <time>2023-01-07T13:30:24.083Z</time>
      </trkpt>
      <trkpt lat="43.25785" lon="3.18209">
        <ele>56.099014</ele>
        <time>2023-01-07T13:30:28.096Z</time>
      </trkpt>
      <trkpt lat="43.25795" lon="3.18212">
        <ele>56.240739</ele>
        <time>2023-01-07T13:30:32.087Z</time>
      </trkpt>
      <trkpt lat="43.25805" lon="3.18215">
        <ele>56.388117</ele>
        <time>2023-01-07T13:30:36.079Z</time>
      </trkpt>
      <trkpt lat="43.25816" lon="3.18219">
        <ele>56.53331</ele>
        <time>2023-01-07T13:30:40.089Z</time>
      </trkpt>
      <trkpt lat="43.25826" lon="3.18222">
        <ele>56.678287</ele>
        <time>2023-01-07T13:30:44.100Z</time>
      </trkpt>
      <trkpt lat="43.25837" lon="3.18219">
        <ele>56.828436</ele>
        <time>2023-01-07T13:30:48.089Z</time>
      </trkpt>
      <trkpt lat="43.25847" lon="3.18213">
        <ele>56.975843</ele>
        <time>2023-01-07T13:30:52.106Z</time>
      </trkpt>
      <trkpt lat="43.25856" lon="3.18207">
        <ele>57.120774</ele>
        <time>2023-01-07T13:30:56.081Z</time>
      </trkpt>
      <trkpt lat="43.25865" lon="3.18202">
        <ele>57.255812</ele>
        <time>2023-01-07T13:31:00.081Z</time>
      </trkpt>
      <trkpt lat="43.25874" lon="3.18196">
        <ele>57.392453</ele>
        <time>2023-01-07T13:31:04.090Z</time>
      </trkpt>
      <trkpt lat="43.25885" lon="3.18188">
        <ele>57.554822</ele>
        <time>2023-01-07T13:31:08.095Z</time>
      </trkpt>
      <trkpt lat="43.25895" lon="3.18179">
        <ele>57.725517</ele>
        <time>2023-01-07T13:31:11.080Z</time>
      </trkpt>
      <trkpt lat="43.25906" lon="3.18168">
        <ele>57.907968</ele>
        <time>2023-01-07T13:31:14.091Z</time>
      </trkpt>
      <trkpt lat="43.25916" lon="3.18158">
        <ele>58.080702</ele>
        <time>2023-01-07T13:31:17.103Z</time>
      </trkpt>
      <trkpt lat="43.25927" lon="3.18148">
        <ele>58.255314</ele>
        <time>2023-01-07T13:31:20.092Z</time>
      </trkpt>
      <trkpt lat="43.25937" lon="3.18143">
        <ele>58.284113</ele>
        <time>2023-01-07T13:31:23.084Z</time>
      </trkpt>
      <trkpt lat="43.25947" lon="3.18138">
        <ele>57.971972</ele>
        <time>2023-01-07T13:31:27.096Z</time>
      </trkpt>
      <trkpt lat="43.25957" lon="3.18132">
        <ele>57.670821</ele>
        <time>2023-01-07T13:31:31.089Z</time>
      </trkpt>
      <trkpt lat="43.25967" lon="3.18124">
        <ele>57.358945</ele>
        <time>2023-01-07T13:31:35.086Z</time>
      </trkpt>
      <trkpt lat="43.25976" lon="3.18117">
        <ele>57.048745</ele>
        <time>2023-01-07T13:31:39.095Z</time>
      </trkpt>
      <trkpt lat="43.25986" lon="3.1811">
        <ele>56.73224</ele>
        <time>2023-01-07T13:31:43.091Z</time>
      </trkpt>
      <trkpt lat="43.25995" lon="3.18104">
        <ele>56.466882</ele>
        <time>2023-01-07T13:31:46.076Z</time>
      </trkpt>
      <trkpt lat="43.26003" lon="3.18097">
        <ele>56.201131</ele>
        <time>2023-01-07T13:31:49.091Z</time>
      </trkpt>
      <trkpt lat="43.26011" lon="3.18091">
        <ele>55.918903</ele>
        <time>2023-01-07T13:31:52.092Z</time>
      </trkpt>
      <trkpt lat="43.26022" lon="3.18086">
        <ele>55.602081</ele>
        <time>2023-01-07T13:31:56.094Z</time>
      </trkpt>
      <trkpt lat="43.26024" lon="3.18098">
        <ele>55.340899</ele>
        <time>2023-01-07T13:34:20.099Z</time>
      </trkpt>
      <trkpt lat="43.26019" lon="3.18111">
        <ele>55.030981</ele>
        <time>2023-01-07T13:34:24.094Z</time>
      </trkpt>
      <trkpt lat="43.26022" lon="3.18127">
        <ele>54.703089</ele>
        <time>2023-01-07T13:34:28.082Z</time>
      </trkpt>
      <trkpt lat="43.26029" lon="3.1814">
        <ele>54.368385</ele>
        <time>2023-01-07T13:34:32.091Z</time>
      </trkpt>
      <trkpt lat="43.26033" lon="3.18152">
        <ele>54.092855</ele>
        <time>2023-01-07T13:34:35.082Z</time>
      </trkpt>
      <trkpt lat="43.26034" lon="3.18166">
        <ele>53.815374</ele>
        <time>2023-01-07T13:34:38.089Z</time>
      </trkpt>
      <trkpt lat="43.26035" lon="3.18182">
        <ele>53.477789</ele>
        <time>2023-01-07T13:34:41.087Z</time>
      </trkpt>
      <trkpt lat="43.26036" lon="3.18195">
        <ele>53.227207</ele>
        <time>2023-01-07T13:34:43.103Z</time>
      </trkpt>
      <trkpt lat="43.26037" lon="3.18207">
        <ele>52.979632</ele>
        <time>2023-01-07T13:34:45.085Z</time>
      </trkpt>
      <trkpt lat="43.26038" lon="3.18222">
        <ele>52.694817</ele>
        <time>2023-01-07T13:34:47.093Z</time>
      </trkpt>
      <trkpt lat="43.26039" lon="3.18236">
        <ele>52.415571</ele>
        <time>2023-01-07T13:34:49.091Z</time>
      </trkpt>
      <trkpt lat="43.26039" lon="3.18251">
        <ele>52.128114</ele>
        <time>2023-01-07T13:34:51.103Z</time>
      </trkpt>
      <trkpt lat="43.26037" lon="3.18265">
        <ele>51.836621</ele>
        <time>2023-01-07T13:34:53.105Z</time>
      </trkpt>
      <trkpt lat="43.26035" lon="3.1828">
        <ele>51.549656</ele>
        <time>2023-01-07T13:34:55.100Z</time>
      </trkpt>
      <trkpt lat="43.26033" lon="3.18294">
        <ele>51.260174</ele>
        <time>2023-01-07T13:34:57.088Z</time>
      </trkpt>
      <trkpt lat="43.2603" lon="3.18307">
        <ele>50.993462</ele>
        <time>2023-01-07T13:34:59.095Z</time>
      </trkpt>
      <trkpt lat="43.26027" lon="3.1832">
        <ele>50.72461</ele>
        <time>2023-01-07T13:35:01.096Z</time>
      </trkpt>
      <trkpt lat="43.26025" lon="3.18333">
        <ele>50.465461</ele>
        <time>2023-01-07T13:35:03.099Z</time>
      </trkpt>
      <trkpt lat="43.26022" lon="3.18345">
        <ele>50.222772</ele>
        <time>2023-01-07T13:35:05.095Z</time>
      </trkpt>
      <trkpt lat="43.26019" lon="3.18362">
        <ele>49.876279</ele>
        <time>2023-01-07T13:35:08.103Z</time>
      </trkpt>
      <trkpt lat="43.26016" lon="3.18378">
        <ele>49.560821</ele>
        <time>2023-01-07T13:35:11.104Z</time>
      </trkpt>
      <trkpt lat="43.26015" lon="3.18393">
        <ele>49.264322</ele>
        <time>2023-01-07T13:35:14.090Z</time>
      </trkpt>
      <trkpt lat="43.26021" lon="3.18405">
        <ele>48.978734</ele>
        <time>2023-01-07T13:35:17.093Z</time>
      </trkpt>
      <trkpt lat="43.26029" lon="3.18414">
        <ele>48.70085</ele>
        <time>2023-01-07T13:35:20.105Z</time>
      </trkpt>
      <trkpt lat="43.26038" lon="3.18421">
        <ele>48.466581</ele>
        <time>2023-01-07T13:35:23.093Z</time>
      </trkpt>
      <trkpt lat="43.26046" lon="3.18429">
        <ele>48.451581</ele>
        <time>2023-01-07T13:35:26.102Z</time>
      </trkpt>
      <trkpt lat="43.26053" lon="3.18436">
        <ele>48.438048</ele>
        <time>2023-01-07T13:35:29.099Z</time>
      </trkpt>
      <trkpt lat="43.26063" lon="3.18446">
        <ele>48.420282</ele>
        <time>2023-01-07T13:35:33.092Z</time>
      </trkpt>
      <trkpt lat="43.26073" lon="3.18455">
        <ele>48.402823</ele>
        <time>2023-01-07T13:35:37.103Z</time>
      </trkpt>
      <trkpt lat="43.26081" lon="3.18463">
        <ele>48.387815</ele>
        <time>2023-01-07T13:35:41.098Z</time>
      </trkpt>
      <trkpt lat="43.26089" lon="3.1847">
        <ele>48.373288</ele>
        <time>2023-01-07T13:35:45.099Z</time>
      </trkpt>
      <trkpt lat="43.26098" lon="3.18478">
        <ele>48.357541</ele>
        <time>2023-01-07T13:35:49.093Z</time>
      </trkpt>
      <trkpt lat="43.26107" lon="3.18487">
        <ele>48.34039</ele>
        <time>2023-01-07T13:35:53.101Z</time>
      </trkpt>
      <trkpt lat="43.26115" lon="3.18494">
        <ele>48.326742</ele>
        <time>2023-01-07T13:35:56.101Z</time>
      </trkpt>
      <trkpt lat="43.26122" lon="3.18501">
        <ele>48.312776</ele>
        <time>2023-01-07T13:35:59.096Z</time>
      </trkpt>
      <trkpt lat="43.26131" lon="3.18509">
        <ele>48.29796</ele>
        <time>2023-01-07T13:36:02.103Z</time>
      </trkpt>
      <trkpt lat="43.26138" lon="3.18518">
        <ele>48.283145</ele>
        <time>2023-01-07T13:36:05.098Z</time>
      </trkpt>
      <trkpt lat="43.26146" lon="3.18526">
        <ele>48.268269</ele>
        <time>2023-01-07T13:36:08.096Z</time>
      </trkpt>
      <trkpt lat="43.26154" lon="3.18535">
        <ele>48.252932</ele>
        <time>2023-01-07T13:36:11.090Z</time>
      </trkpt>
      <trkpt lat="43.26162" lon="3.18543">
        <ele>48.23845</ele>
        <time>2023-01-07T13:36:14.104Z</time>
      </trkpt>
      <trkpt lat="43.2617" lon="3.18553">
        <ele>48.222492</ele>
        <time>2023-01-07T13:36:18.093Z</time>
      </trkpt>
      <trkpt lat="43.26178" lon="3.18562">
        <ele>48.206308</ele>
        <time>2023-01-07T13:36:22.087Z</time>
      </trkpt>
      <trkpt lat="43.26186" lon="3.1857">
        <ele>48.148629</ele>
        <time>2023-01-07T13:36:26.090Z</time>
      </trkpt>
      <trkpt lat="43.26195" lon="3.18578">
        <ele>48.048527</ele>
        <time>2023-01-07T13:36:31.087Z</time>
      </trkpt>
      <trkpt lat="43.26201" lon="3.18591">
        <ele>47.952271</ele>
        <time>2023-01-07T13:36:35.095Z</time>
      </trkpt>
      <trkpt lat="43.26207" lon="3.18602">
        <ele>47.85556</ele>
        <time>2023-01-07T13:36:39.098Z</time>
      </trkpt>
      <trkpt lat="43.26213" lon="3.18613">
        <ele>47.76893</ele>
        <time>2023-01-07T13:36:43.090Z</time>
      </trkpt>
      <trkpt lat="43.2622" lon="3.18623">
        <ele>47.674353</ele>
        <time>2023-01-07T13:36:48.088Z</time>
      </trkpt>
      <trkpt lat="43.26227" lon="3.18634">
        <ele>47.57896</ele>
        <time>2023-01-07T13:36:52.091Z</time>
      </trkpt>
      <trkpt lat="43.26234" lon="3.18645">
        <ele>47.479667</ele>
        <time>2023-01-07T13:36:56.083Z</time>
      </trkpt>
      <trkpt lat="43.2624" lon="3.18655">
        <ele>47.392785</ele>
        <time>2023-01-07T13:37:00.086Z</time>
      </trkpt>
      <trkpt lat="43.26247" lon="3.18664">
        <ele>47.303446</ele>
        <time>2023-01-07T13:37:04.094Z</time>
      </trkpt>
      <trkpt lat="43.26255" lon="3.18671">
        <ele>47.219926</ele>
        <time>2023-01-07T13:37:08.096Z</time>
      </trkpt>
      <trkpt lat="43.26264" lon="3.18679">
        <ele>47.118974</ele>
        <time>2023-01-07T13:37:12.095Z</time>
      </trkpt>
      <trkpt lat="43.26274" lon="3.18686">
        <ele>47.020876</ele>
        <time>2023-01-07T13:37:16.086Z</time>
      </trkpt>
      <trkpt lat="43.26281" lon="3.18695">
        <ele>46.932017</ele>
        <time>2023-01-07T13:37:22.093Z</time>
      </trkpt>
      <trkpt lat="43.26285" lon="3.18707">
        <ele>46.844073</ele>
        <time>2023-01-07T13:37:26.084Z</time>
      </trkpt>
      <trkpt lat="43.26287" lon="3.1872">
        <ele>46.758165</ele>
        <time>2023-01-07T13:37:30.093Z</time>
      </trkpt>
      <trkpt lat="43.26289" lon="3.18732">
        <ele>46.675898</ele>
        <time>2023-01-07T13:37:34.084Z</time>
      </trkpt>
      <trkpt lat="43.2629" lon="3.18746">
        <ele>46.583025</ele>
        <time>2023-01-07T13:37:38.092Z</time>
      </trkpt>
      <trkpt lat="43.26291" lon="3.18758">
        <ele>46.529676</ele>
        <time>2023-01-07T13:37:42.086Z</time>
      </trkpt>
      <trkpt lat="43.26293" lon="3.18772">
        <ele>46.483041</ele>
        <time>2023-01-07T13:37:47.094Z</time>
      </trkpt>
      <trkpt lat="43.26297" lon="3.18786">
        <ele>46.433574</ele>
        <time>2023-01-07T13:37:52.098Z</time>
      </trkpt>
      <trkpt lat="43.263" lon="3.18799">
        <ele>46.38793</ele>
        <time>2023-01-07T13:37:56.091Z</time>
      </trkpt>
      <trkpt lat="43.26302" lon="3.18814">
        <ele>46.338218</ele>
        <time>2023-01-07T13:38:00.092Z</time>
      </trkpt>
      <trkpt lat="43.26304" lon="3.18828">
        <ele>46.290698</ele>
        <time>2023-01-07T13:38:04.091Z</time>
      </trkpt>
      <trkpt lat="43.26305" lon="3.18844">
        <ele>46.239944</ele>
        <time>2023-01-07T13:38:08.092Z</time>
      </trkpt>
      <trkpt lat="43.26306" lon="3.18859">
        <ele>46.19017</ele>
        <time>2023-01-07T13:38:12.095Z</time>
      </trkpt>
      <trkpt lat="43.26306" lon="3.18871">
        <ele>46.148699</ele>
        <time>2023-01-07T13:38:16.102Z</time>
      </trkpt>
      <trkpt lat="43.26305" lon="3.18885">
        <ele>46.101952</ele>
        <time>2023-01-07T13:38:21.101Z</time>
      </trkpt>
      <trkpt lat="43.26303" lon="3.18901">
        <ele>46.050456</ele>
        <time>2023-01-07T13:38:26.101Z</time>
      </trkpt>
      <trkpt lat="43.26304" lon="3.18915">
        <ele>46.001535</ele>
        <time>2023-01-07T13:38:31.092Z</time>
      </trkpt>
      <trkpt lat="43.26309" lon="3.18927">
        <ele>45.956981</ele>
        <time>2023-01-07T13:38:35.092Z</time>
      </trkpt>
      <trkpt lat="43.26311" lon="3.1894">
        <ele>45.91278</ele>
        <time>2023-01-07T13:38:39.085Z</time>
      </trkpt>
      <trkpt lat="43.26315" lon="3.18954">
        <ele>45.865141</ele>
        <time>2023-01-07T13:38:44.081Z</time>
      </trkpt>
      <trkpt lat="43.2632" lon="3.18967">
        <ele>45.815521</ele>
        <time>2023-01-07T13:38:49.081Z</time>
      </trkpt>
      <trkpt lat="43.26324" lon="3.1898">
        <ele>45.769418</ele>
        <time>2023-01-07T13:38:54.098Z</time>
      </trkpt>
      <trkpt lat="43.26325" lon="3.18994">
        <ele>45.730112</ele>
        <time>2023-01-07T13:38:58.094Z</time>
      </trkpt>
      <trkpt lat="43.26326" lon="3.19007">
        <ele>45.700357</ele>
        <time>2023-01-07T13:39:03.093Z</time>
      </trkpt>
      <trkpt lat="43.26333" lon="3.19018">
        <ele>45.667424</ele>
        <time>2023-01-07T13:39:08.086Z</time>
      </trkpt>
      <trkpt lat="43.26338" lon="3.19029">
        <ele>45.638383</ele>
        <time>2023-01-07T13:39:12.092Z</time>
      </trkpt>
      <trkpt lat="43.26341" lon="3.19042">
        <ele>45.607027</ele>
        <time>2023-01-07T13:39:16.091Z</time>
      </trkpt>
      <trkpt lat="43.26343" lon="3.19057">
        <ele>45.571787</ele>
        <time>2023-01-07T13:39:20.094Z</time>
      </trkpt>
      <trkpt lat="43.26347" lon="3.19071">
        <ele>45.538717</ele>
        <time>2023-01-07T13:39:24.086Z</time>
      </trkpt>
      <trkpt lat="43.2635" lon="3.19083">
        <ele>45.508107</ele>
        <time>2023-01-07T13:39:28.089Z</time>
      </trkpt>
      <trkpt lat="43.26352" lon="3.19098">
        <ele>45.473538</ele>
        <time>2023-01-07T13:39:33.088Z</time>
      </trkpt>
      <trkpt lat="43.26353" lon="3.19113">
        <ele>45.440211</ele>
        <time>2023-01-07T13:39:38.095Z</time>
      </trkpt>
      <trkpt lat="43.2635" lon="3.19125">
        <ele>45.411844</ele>
        <time>2023-01-07T13:39:43.092Z</time>
      </trkpt>
      <trkpt lat="43.26345" lon="3.19136">
        <ele>45.382803</ele>
        <time>2023-01-07T13:39:49.095Z</time>
      </trkpt>
      <trkpt lat="43.2634" lon="3.19148">
        <ele>45.350517</ele>
        <time>2023-01-07T13:39:53.091Z</time>
      </trkpt>
      <trkpt lat="43.26336" lon="3.19162">
        <ele>45.315698</ele>
        <time>2023-01-07T13:39:57.093Z</time>
      </trkpt>
      <trkpt lat="43.26331" lon="3.19176">
        <ele>45.281136</ele>
        <time>2023-01-07T13:40:01.089Z</time>
      </trkpt>
      <trkpt lat="43.26326" lon="3.19188">
        <ele>45.248672</ele>
        <time>2023-01-07T13:40:05.083Z</time>
      </trkpt>
      <trkpt lat="43.2632" lon="3.192">
        <ele>45.215601</ele>
        <time>2023-01-07T13:40:09.083Z</time>
      </trkpt>
      <trkpt lat="43.26316" lon="3.19215">
        <ele>45.17424</ele>
        <time>2023-01-07T13:40:13.094Z</time>
      </trkpt>
      <trkpt lat="43.26312" lon="3.1923">
        <ele>45.07244</ele>
        <time>2023-01-07T13:40:17.100Z</time>
      </trkpt>
      <trkpt lat="43.2631" lon="3.19244">
        <ele>44.978042</ele>
        <time>2023-01-07T13:40:21.084Z</time>
      </trkpt>
      <trkpt lat="43.26306" lon="3.19258">
        <ele>44.88113</ele>
        <time>2023-01-07T13:40:26.095Z</time>
      </trkpt>
      <trkpt lat="43.263" lon="3.19269">
        <ele>44.793859</ele>
        <time>2023-01-07T13:40:30.083Z</time>
      </trkpt>
      <trkpt lat="43.26299" lon="3.19283">
        <ele>44.699066</ele>
        <time>2023-01-07T13:40:35.105Z</time>
      </trkpt>
      <trkpt lat="43.26298" lon="3.19296">
        <ele>44.61825</ele>
        <time>2023-01-07T13:40:39.092Z</time>
      </trkpt>
      <trkpt lat="43.26296" lon="3.19309">
        <ele>44.52645</ele>
        <time>2023-01-07T13:40:45.086Z</time>
      </trkpt>
      <trkpt lat="43.26294" lon="3.19322">
        <ele>44.443171</ele>
        <time>2023-01-07T13:40:49.084Z</time>
      </trkpt>
      <trkpt lat="43.26294" lon="3.19335">
        <ele>44.358599</ele>
        <time>2023-01-07T13:40:54.085Z</time>
      </trkpt>
      <trkpt lat="43.26296" lon="3.19349">
        <ele>44.266132</ele>
        <time>2023-01-07T13:40:59.088Z</time>
      </trkpt>
      <trkpt lat="43.26299" lon="3.19361">
        <ele>44.183222</ele>
        <time>2023-01-07T13:41:03.091Z</time>
      </trkpt>
      <trkpt lat="43.26302" lon="3.19373">
        <ele>44.100393</ele>
        <time>2023-01-07T13:41:07.084Z</time>
      </trkpt>
      <trkpt lat="43.26302" lon="3.19385">
        <ele>44.019109</ele>
        <time>2023-01-07T13:41:18.092Z</time>
      </trkpt>
      <trkpt lat="43.26304" lon="3.19398">
        <ele>43.932752</ele>
        <time>2023-01-07T13:41:37.084Z</time>
      </trkpt>
      <trkpt lat="43.26308" lon="3.1941">
        <ele>43.851442</ele>
        <time>2023-01-07T13:41:43.087Z</time>
      </trkpt>
      <trkpt lat="43.26312" lon="3.19423">
        <ele>43.760364</ele>
        <time>2023-01-07T13:41:57.089Z</time>
      </trkpt>
      <trkpt lat="43.26308" lon="3.19435">
        <ele>43.673134</ele>
        <time>2023-01-07T13:42:02.092Z</time>
      </trkpt>
      <trkpt lat="43.26306" lon="3.1945">
        <ele>43.577479</ele>
        <time>2023-01-07T13:42:07.086Z</time>
      </trkpt>
      <trkpt lat="43.26307" lon="3.19463">
        <ele>43.592227</ele>
        <time>2023-01-07T13:42:12.100Z</time>
      </trkpt>
      <trkpt lat="43.26308" lon="3.19477">
        <ele>43.607711</ele>
        <time>2023-01-07T13:42:18.085Z</time>
      </trkpt>
      <trkpt lat="43.26308" lon="3.19489">
        <ele>43.62163</ele>
        <time>2023-01-07T13:42:24.094Z</time>
      </trkpt>
      <trkpt lat="43.26307" lon="3.19507">
        <ele>43.641083</ele>
        <time>2023-01-07T13:44:10.097Z</time>
      </trkpt>
      <trkpt lat="43.26316" lon="3.1951">
        <ele>43.654798</ele>
        <time>2023-01-07T13:44:23.099Z</time>
      </trkpt>
      <trkpt lat="43.26319" lon="3.19522">
        <ele>43.668763</ele>
        <time>2023-01-07T13:44:31.086Z</time>
      </trkpt>
      <trkpt lat="43.26326" lon="3.1953">
        <ele>43.6825</ele>
        <time>2023-01-07T13:44:39.098Z</time>
      </trkpt>
      <trkpt lat="43.26334" lon="3.19538">
        <ele>43.697628</ele>
        <time>2023-01-07T13:44:53.100Z</time>
      </trkpt>
      <trkpt lat="43.26339" lon="3.19552">
        <ele>43.714302</ele>
        <time>2023-01-07T13:44:59.095Z</time>
      </trkpt>
      <trkpt lat="43.26345" lon="3.19564">
        <ele>43.730112</ele>
        <time>2023-01-07T13:45:04.102Z</time>
      </trkpt>
      <trkpt lat="43.26352" lon="3.19574">
        <ele>43.745405</ele>
        <time>2023-01-07T13:45:09.091Z</time>
      </trkpt>
      <trkpt lat="43.26359" lon="3.19585">
        <ele>43.761675</ele>
        <time>2023-01-07T13:45:14.104Z</time>
      </trkpt>
      <trkpt lat="43.26365" lon="3.19597">
        <ele>43.778276</ele>
        <time>2023-01-07T13:45:19.096Z</time>
      </trkpt>
      <trkpt lat="43.26371" lon="3.19608">
        <ele>43.793449</ele>
        <time>2023-01-07T13:45:24.099Z</time>
      </trkpt>
      <trkpt lat="43.26377" lon="3.1962">
        <ele>43.809158</ele>
        <time>2023-01-07T13:45:29.092Z</time>
      </trkpt>
      <trkpt lat="43.26383" lon="3.19631">
        <ele>43.824063</ele>
        <time>2023-01-07T13:45:34.081Z</time>
      </trkpt>
      <trkpt lat="43.26388" lon="3.19641">
        <ele>43.838255</ele>
        <time>2023-01-07T13:45:39.086Z</time>
      </trkpt>
      <trkpt lat="43.26395" lon="3.19652">
        <ele>43.913939</ele>
        <time>2023-01-07T13:45:44.081Z</time>
      </trkpt>
      <trkpt lat="43.26402" lon="3.19662">
        <ele>44.150651</ele>
        <time>2023-01-07T13:45:49.087Z</time>
      </trkpt>
      <trkpt lat="43.26408" lon="3.19672">
        <ele>44.378096</ele>
        <time>2023-01-07T13:45:54.082Z</time>
      </trkpt>
      <trkpt lat="43.26414" lon="3.19684">
        <ele>44.629117</ele>
        <time>2023-01-07T13:45:59.103Z</time>
      </trkpt>
      <trkpt lat="43.26421" lon="3.19696">
        <ele>44.88428</ele>
        <time>2023-01-07T13:46:04.101Z</time>
      </trkpt>
      <trkpt lat="43.26426" lon="3.19708">
        <ele>45.130219</ele>
        <time>2023-01-07T13:46:09.099Z</time>
      </trkpt>
      <trkpt lat="43.26433" lon="3.1972">
        <ele>45.389533</ele>
        <time>2023-01-07T13:46:15.102Z</time>
      </trkpt>
      <trkpt lat="43.26439" lon="3.1973">
        <ele>45.604562</ele>
        <time>2023-01-07T13:46:20.085Z</time>
      </trkpt>
      <trkpt lat="43.26442" lon="3.19755">
        <ele>46.039989</ele>
        <time>2023-01-07T13:46:50.090Z</time>
      </trkpt>
      <trkpt lat="43.26439" lon="3.19767">
        <ele>46.26739</ele>
        <time>2023-01-07T13:46:56.093Z</time>
      </trkpt>
      <trkpt lat="43.26443" lon="3.19779">
        <ele>46.493076</ele>
        <time>2023-01-07T13:47:02.089Z</time>
      </trkpt>
      <trkpt lat="43.26443" lon="3.19794">
        <ele>46.735051</ele>
        <time>2023-01-07T13:47:08.084Z</time>
      </trkpt>
      <trkpt lat="43.26443" lon="3.19776">
        <ele>47.043833</ele>
        <time>2023-01-07T13:47:33.090Z</time>
      </trkpt>
      <trkpt lat="43.26441" lon="3.19762">
        <ele>47.273438</ele>
        <time>2023-01-07T13:47:38.094Z</time>
      </trkpt>
      <trkpt lat="43.26441" lon="3.1975">
        <ele>47.489592</ele>
        <time>2023-01-07T13:47:43.105Z</time>
      </trkpt>
      <trkpt lat="43.26445" lon="3.19738">
        <ele>47.720311</ele>
        <time>2023-01-07T13:47:49.083Z</time>
      </trkpt>
      <trkpt lat="43.26456" lon="3.19734">
        <ele>47.970682</ele>
        <time>2023-01-07T13:48:56.084Z</time>
      </trkpt>
      <trkpt lat="43.26465" lon="3.1973">
        <ele>48.319498</ele>
        <time>2023-01-07T13:49:04.111Z</time>
      </trkpt>
      <trkpt lat="43.26474" lon="3.19726">
        <ele>48.764683</ele>
        <time>2023-01-07T13:49:13.091Z</time>
      </trkpt>
      <trkpt lat="43.26479" lon="3.19714">
        <ele>49.223061</ele>
        <time>2023-01-07T13:49:23.082Z</time>
      </trkpt>
      <trkpt lat="43.2648" lon="3.19701">
        <ele>49.679521</ele>
        <time>2023-01-07T13:49:34.098Z</time>
      </trkpt>
      <trkpt lat="43.2648" lon="3.19688">
        <ele>50.142367</ele>
        <time>2023-01-07T13:49:44.093Z</time>
      </trkpt>
      <trkpt lat="43.2648" lon="3.19675">
        <ele>50.585312</ele>
        <time>2023-01-07T13:49:53.100Z</time>
      </trkpt>
      <trkpt lat="43.26482" lon="3.19662">
        <ele>51.050993</ele>
        <time>2023-01-07T13:50:02.093Z</time>
      </trkpt>
      <trkpt lat="43.26482" lon="3.19649">
        <ele>51.499929</ele>
        <time>2023-01-07T13:50:12.095Z</time>
      </trkpt>
      <trkpt lat="43.26482" lon="3.19635">
        <ele>51.962775</ele>
        <time>2023-01-07T13:50:21.090Z</time>
      </trkpt>
      <trkpt lat="43.26481" lon="3.19622">
        <ele>52.417644</ele>
        <time>2023-01-07T13:50:30.089Z</time>
      </trkpt>
      <trkpt lat="43.26481" lon="3.19609">
        <ele>52.880612</ele>
        <time>2023-01-07T13:50:39.102Z</time>
      </trkpt>
      <trkpt lat="43.26484" lon="3.19597">
        <ele>53.318285</ele>
        <time>2023-01-07T13:50:47.100Z</time>
      </trkpt>
      <trkpt lat="43.26485" lon="3.19584">
        <ele>53.770242</ele>
        <time>2023-01-07T13:50:56.094Z</time>
      </trkpt>
      <trkpt lat="43.26485" lon="3.1957">
        <ele>54.236661</ele>
        <time>2023-01-07T13:51:06.090Z</time>
      </trkpt>
      <trkpt lat="43.26492" lon="3.1956">
        <ele>54.709155</ele>
        <time>2023-01-07T13:51:16.092Z</time>
      </trkpt>
      <trkpt lat="43.26501" lon="3.19557">
        <ele>55.146339</ele>
        <time>2023-01-07T13:51:26.078Z</time>
      </trkpt>
      <trkpt lat="43.2651" lon="3.19554">
        <ele>55.614022</ele>
        <time>2023-01-07T13:51:35.087Z</time>
      </trkpt>
      <trkpt lat="43.26519" lon="3.19551">
        <ele>56.0509</ele>
        <time>2023-01-07T13:51:44.099Z</time>
      </trkpt>
      <trkpt lat="43.26528" lon="3.19547">
        <ele>56.490494</ele>
        <time>2023-01-07T13:51:53.103Z</time>
      </trkpt>
      <trkpt lat="43.26537" lon="3.19543">
        <ele>56.628201</ele>
        <time>2023-01-07T13:52:02.095Z</time>
      </trkpt>
      <trkpt lat="43.26547" lon="3.19541">
        <ele>56.644798</ele>
        <time>2023-01-07T13:52:11.084Z</time>
      </trkpt>
      <trkpt lat="43.26557" lon="3.19537">
        <ele>56.661644</ele>
        <time>2023-01-07T13:52:20.099Z</time>
      </trkpt>
      <trkpt lat="43.26566" lon="3.19535">
        <ele>56.677765</ele>
        <time>2023-01-07T13:52:29.111Z</time>
      </trkpt>
      <trkpt lat="43.26564" lon="3.19523">
        <ele>56.693397</ele>
        <time>2023-01-07T13:53:05.096Z</time>
      </trkpt>
      <trkpt lat="43.26558" lon="3.19513">
        <ele>56.708576</ele>
        <time>2023-01-07T13:53:13.085Z</time>
      </trkpt>
      <trkpt lat="43.26553" lon="3.19502">
        <ele>56.724749</ele>
        <time>2023-01-07T13:53:24.093Z</time>
      </trkpt>
      <trkpt lat="43.26548" lon="3.1949">
        <ele>56.74166</ele>
        <time>2023-01-07T13:53:32.095Z</time>
      </trkpt>
      <trkpt lat="43.26542" lon="3.19478">
        <ele>56.758952</ele>
        <time>2023-01-07T13:53:40.085Z</time>
      </trkpt>
      <trkpt lat="43.26542" lon="3.19464">
        <ele>56.775714</ele>
        <time>2023-01-07T13:53:48.106Z</time>
      </trkpt>
      <trkpt lat="43.26535" lon="3.19455">
        <ele>56.791168</ele>
        <time>2023-01-07T13:53:57.090Z</time>
      </trkpt>
      <trkpt lat="43.26527" lon="3.1945">
        <ele>56.806795</ele>
        <time>2023-01-07T13:54:07.099Z</time>
      </trkpt>
      <trkpt lat="43.26517" lon="3.19449">
        <ele>56.823195</ele>
        <time>2023-01-07T13:54:51.095Z</time>
      </trkpt>
      <trkpt lat="43.26508" lon="3.19449">
        <ele>56.838435</ele>
        <time>2023-01-07T13:55:00.089Z</time>
      </trkpt>
      <trkpt lat="43.26498" lon="3.19451">
        <ele>56.854466</ele>
        <time>2023-01-07T13:55:08.092Z</time>
      </trkpt>
      <trkpt lat="43.26488" lon="3.19451">
        <ele>56.871032</ele>
        <time>2023-01-07T13:55:18.104Z</time>
      </trkpt>
      <trkpt lat="43.26479" lon="3.19448">
        <ele>56.887547</ele>
        <time>2023-01-07T13:55:27.102Z</time>
      </trkpt>
      <trkpt lat="43.26469" lon="3.1945">
        <ele>56.904183</ele>
        <time>2023-01-07T13:55:37.099Z</time>
      </trkpt>
      <trkpt lat="43.2646" lon="3.19452">
        <ele>56.904669</ele>
        <time>2023-01-07T13:55:50.096Z</time>
      </trkpt>
      <trkpt lat="43.26469" lon="3.19451">
        <ele>56.751703</ele>
        <time>2023-01-07T13:56:19.101Z</time>
      </trkpt>
      <trkpt lat="43.26477" lon="3.1946">
        <ele>56.589984</ele>
        <time>2023-01-07T13:56:32.104Z</time>
      </trkpt>
      <trkpt lat="43.26481" lon="3.19471">
        <ele>56.442499</ele>
        <time>2023-01-07T13:56:40.103Z</time>
      </trkpt>
      <trkpt lat="43.26485" lon="3.19483">
        <ele>56.2835</ele>
        <time>2023-01-07T13:56:49.089Z</time>
      </trkpt>
      <trkpt lat="43.2649" lon="3.19495">
        <ele>56.12414</ele>
        <time>2023-01-07T13:56:57.111Z</time>
      </trkpt>
      <trkpt lat="43.26493" lon="3.19508">
        <ele>55.964477</ele>
        <time>2023-01-07T13:57:05.106Z</time>
      </trkpt>
      <trkpt lat="43.26495" lon="3.1952">
        <ele>55.817643</ele>
        <time>2023-01-07T13:57:13.096Z</time>
      </trkpt>
      <trkpt lat="43.26499" lon="3.19532">
        <ele>55.663784</ele>
        <time>2023-01-07T13:57:21.094Z</time>
      </trkpt>
      <trkpt lat="43.26502" lon="3.19543">
        <ele>55.517952</ele>
        <time>2023-01-07T13:57:29.101Z</time>
      </trkpt>
      <trkpt lat="43.26516" lon="3.1955">
        <ele>55.273609</ele>
        <time>2023-01-07T13:58:15.103Z</time>
      </trkpt>
      <trkpt lat="43.26526" lon="3.19547">
        <ele>55.117213</ele>
        <time>2023-01-07T13:58:24.103Z</time>
      </trkpt>
      <trkpt lat="43.26535" lon="3.19543">
        <ele>54.962146</ele>
        <time>2023-01-07T13:58:33.091Z</time>
      </trkpt>
      <trkpt lat="43.26544" lon="3.1954">
        <ele>54.816009</ele>
        <time>2023-01-07T13:58:42.089Z</time>
      </trkpt>
      <trkpt lat="43.26553" lon="3.19537">
        <ele>54.664387</ele>
        <time>2023-01-07T13:58:51.097Z</time>
      </trkpt>
      <trkpt lat="43.26562" lon="3.19534">
        <ele>54.505733</ele>
        <time>2023-01-07T13:59:00.098Z</time>
      </trkpt>
      <trkpt lat="43.26554" lon="3.19538">
        <ele>54.357372</ele>
        <time>2023-01-07T14:07:19.101Z</time>
      </trkpt>
      <trkpt lat="43.26545" lon="3.1954">
        <ele>54.208675</ele>
        <time>2023-01-07T14:07:27.115Z</time>
      </trkpt>
      <trkpt lat="43.26535" lon="3.19544">
        <ele>54.045897</ele>
        <time>2023-01-07T14:07:35.118Z</time>
      </trkpt>
      <trkpt lat="43.26526" lon="3.19547">
        <ele>53.671682</ele>
        <time>2023-01-07T14:07:42.113Z</time>
      </trkpt>
      <trkpt lat="43.26517" lon="3.1955">
        <ele>53.186777</ele>
        <time>2023-01-07T14:07:51.117Z</time>
      </trkpt>
      <trkpt lat="43.26508" lon="3.19555">
        <ele>52.711403</ele>
        <time>2023-01-07T14:07:59.163Z</time>
      </trkpt>
      <trkpt lat="43.26498" lon="3.19557">
        <ele>52.212203</ele>
        <time>2023-01-07T14:08:07.117Z</time>
      </trkpt>
      <trkpt lat="43.26491" lon="3.19564">
        <ele>51.752846</ele>
        <time>2023-01-07T14:08:15.114Z</time>
      </trkpt>
      <trkpt lat="43.26486" lon="3.19575">
        <ele>51.287436</ele>
        <time>2023-01-07T14:08:22.095Z</time>
      </trkpt>
      <trkpt lat="43.26485" lon="3.19588">
        <ele>50.826047</ele>
        <time>2023-01-07T14:08:29.119Z</time>
      </trkpt>
      <trkpt lat="43.26482" lon="3.196">
        <ele>50.353723</ele>
        <time>2023-01-07T14:08:36.118Z</time>
      </trkpt>
      <trkpt lat="43.26483" lon="3.19612">
        <ele>49.887075</ele>
        <time>2023-01-07T14:08:46.113Z</time>
      </trkpt>
      <trkpt lat="43.26483" lon="3.19626">
        <ele>49.399093</ele>
        <time>2023-01-07T14:08:53.120Z</time>
      </trkpt>
      <trkpt lat="43.26483" lon="3.19639">
        <ele>48.916763</ele>
        <time>2023-01-07T14:09:00.181Z</time>
      </trkpt>
      <trkpt lat="43.26483" lon="3.19651">
        <ele>48.460799</ele>
        <time>2023-01-07T14:09:07.120Z</time>
      </trkpt>
      <trkpt lat="43.26482" lon="3.19665">
        <ele>47.957737</ele>
        <time>2023-01-07T14:09:14.116Z</time>
      </trkpt>
      <trkpt lat="43.26482" lon="3.19678">
        <ele>47.476434</ele>
        <time>2023-01-07T14:09:22.114Z</time>
      </trkpt>
      <trkpt lat="43.26481" lon="3.1969">
        <ele>47.020109</ele>
        <time>2023-01-07T14:09:29.121Z</time>
      </trkpt>
      <trkpt lat="43.2648" lon="3.19714">
        <ele>46.166748</ele>
        <time>2023-01-07T14:10:25.109Z</time>
      </trkpt>
      <trkpt lat="43.26475" lon="3.19725">
        <ele>45.687863</ele>
        <time>2023-01-07T14:10:34.086Z</time>
      </trkpt>
      <trkpt lat="43.26467" lon="3.1973">
        <ele>45.225105</ele>
        <time>2023-01-07T14:10:43.090Z</time>
      </trkpt>
      <trkpt lat="43.26458" lon="3.19735">
        <ele>44.918614</ele>
        <time>2023-01-07T14:10:50.103Z</time>
      </trkpt>
      <trkpt lat="43.26442" lon="3.19728">
        <ele>44.818432</ele>
        <time>2023-01-07T14:13:18.107Z</time>
      </trkpt>
      <trkpt lat="43.26433" lon="3.19718">
        <ele>44.754073</ele>
        <time>2023-01-07T14:13:28.115Z</time>
      </trkpt>
      <trkpt lat="43.26427" lon="3.19709">
        <ele>44.695673</ele>
        <time>2023-01-07T14:13:32.113Z</time>
      </trkpt>
      <trkpt lat="43.26422" lon="3.19696">
        <ele>44.633368</ele>
        <time>2023-01-07T14:13:36.108Z</time>
      </trkpt>
      <trkpt lat="43.26416" lon="3.19684">
        <ele>44.570022</ele>
        <time>2023-01-07T14:13:40.108Z</time>
      </trkpt>
      <trkpt lat="43.2641" lon="3.19673">
        <ele>44.509545</ele>
        <time>2023-01-07T14:13:44.116Z</time>
      </trkpt>
      <trkpt lat="43.26404" lon="3.19663">
        <ele>44.451121</ele>
        <time>2023-01-07T14:13:48.116Z</time>
      </trkpt>
      <trkpt lat="43.26398" lon="3.19653">
        <ele>44.396188</ele>
        <time>2023-01-07T14:13:52.108Z</time>
      </trkpt>
      <trkpt lat="43.26391" lon="3.19642">
        <ele>44.334271</ele>
        <time>2023-01-07T14:13:56.091Z</time>
      </trkpt>
      <trkpt lat="43.26385" lon="3.19631">
        <ele>44.272008</ele>
        <time>2023-01-07T14:14:00.095Z</time>
      </trkpt>
      <trkpt lat="43.26378" lon="3.19619">
        <ele>44.206544</ele>
        <time>2023-01-07T14:14:04.102Z</time>
      </trkpt>
      <trkpt lat="43.26372" lon="3.19608">
        <ele>44.143169</ele>
        <time>2023-01-07T14:14:08.084Z</time>
      </trkpt>
      <trkpt lat="43.26366" lon="3.19596">
        <ele>44.080884</ele>
        <time>2023-01-07T14:14:12.107Z</time>
      </trkpt>
      <trkpt lat="43.26359" lon="3.19585">
        <ele>44.018567</ele>
        <time>2023-01-07T14:14:16.109Z</time>
      </trkpt>
      <trkpt lat="43.26353" lon="3.19574">
        <ele>43.957341</ele>
        <time>2023-01-07T14:14:20.109Z</time>
      </trkpt>
      <trkpt lat="43.26347" lon="3.19563">
        <ele>43.897924</ele>
        <time>2023-01-07T14:14:24.107Z</time>
      </trkpt>
      <trkpt lat="43.26341" lon="3.19554">
        <ele>43.878166</ele>
        <time>2023-01-07T14:14:28.099Z</time>
      </trkpt>
      <trkpt lat="43.26335" lon="3.19544">
        <ele>43.922676</ele>
        <time>2023-01-07T14:14:32.118Z</time>
      </trkpt>
      <trkpt lat="43.26328" lon="3.19536">
        <ele>43.966771</ele>
        <time>2023-01-07T14:14:36.117Z</time>
      </trkpt>
      <trkpt lat="43.26322" lon="3.19527">
        <ele>44.009872</ele>
        <time>2023-01-07T14:14:41.115Z</time>
      </trkpt>
      <trkpt lat="43.26317" lon="3.19514">
        <ele>44.059966</ele>
        <time>2023-01-07T14:14:47.111Z</time>
      </trkpt>
      <trkpt lat="43.2631" lon="3.19504">
        <ele>44.10755</ele>
        <time>2023-01-07T14:14:52.106Z</time>
      </trkpt>
      <trkpt lat="43.26308" lon="3.19479">
        <ele>44.191382</ele>
        <time>2023-01-07T14:15:55.118Z</time>
      </trkpt>
      <trkpt lat="43.26308" lon="3.19467">
        <ele>44.235786</ele>
        <time>2023-01-07T14:16:00.101Z</time>
      </trkpt>
      <trkpt lat="43.26308" lon="3.19452">
        <ele>44.286024</ele>
        <time>2023-01-07T14:16:05.115Z</time>
      </trkpt>
      <trkpt lat="43.26308" lon="3.1944">
        <ele>44.329368</ele>
        <time>2023-01-07T14:16:09.115Z</time>
      </trkpt>
      <trkpt lat="43.26312" lon="3.19428">
        <ele>44.373367</ele>
        <time>2023-01-07T14:16:13.098Z</time>
      </trkpt>
      <trkpt lat="43.26313" lon="3.19414">
        <ele>44.421063</ele>
        <time>2023-01-07T14:16:18.105Z</time>
      </trkpt>
      <trkpt lat="43.26306" lon="3.19403">
        <ele>44.470675</ele>
        <time>2023-01-07T14:16:25.087Z</time>
      </trkpt>
      <trkpt lat="43.26304" lon="3.19389">
        <ele>44.520605</ele>
        <time>2023-01-07T14:16:31.100Z</time>
      </trkpt>
      <trkpt lat="43.26303" lon="3.19377">
        <ele>44.563634</ele>
        <time>2023-01-07T14:16:52.115Z</time>
      </trkpt>
      <trkpt lat="43.26299" lon="3.19365">
        <ele>44.608201</ele>
        <time>2023-01-07T14:16:57.116Z</time>
      </trkpt>
      <trkpt lat="43.26296" lon="3.19352">
        <ele>44.654167</ele>
        <time>2023-01-07T14:17:02.117Z</time>
      </trkpt>
      <trkpt lat="43.26295" lon="3.19337">
        <ele>44.707245</ele>
        <time>2023-01-07T14:17:07.112Z</time>
      </trkpt>
      <trkpt lat="43.26294" lon="3.19322">
        <ele>44.809993</ele>
        <time>2023-01-07T14:17:12.104Z</time>
      </trkpt>
      <trkpt lat="43.26296" lon="3.19309">
        <ele>44.917228</ele>
        <time>2023-01-07T14:17:17.117Z</time>
      </trkpt>
      <trkpt lat="43.263" lon="3.19295">
        <ele>45.030177</ele>
        <time>2023-01-07T14:17:22.116Z</time>
      </trkpt>
      <trkpt lat="43.26301" lon="3.19283">
        <ele>45.130464</ele>
        <time>2023-01-07T14:17:26.096Z</time>
      </trkpt>
      <trkpt lat="43.26303" lon="3.1927">
        <ele>45.23248</ele>
        <time>2023-01-07T14:17:30.104Z</time>
      </trkpt>
      <trkpt lat="43.26308" lon="3.19258">
        <ele>45.344625</ele>
        <time>2023-01-07T14:17:35.095Z</time>
      </trkpt>
      <trkpt lat="43.26313" lon="3.19246">
        <ele>45.452541</ele>
        <time>2023-01-07T14:17:41.102Z</time>
      </trkpt>
      <trkpt lat="43.26315" lon="3.19232">
        <ele>45.562296</ele>
        <time>2023-01-07T14:17:46.112Z</time>
      </trkpt>
      <trkpt lat="43.26316" lon="3.19218">
        <ele>45.675942</ele>
        <time>2023-01-07T14:18:30.100Z</time>
      </trkpt>
      <trkpt lat="43.26318" lon="3.19205">
        <ele>45.774709</ele>
        <time>2023-01-07T14:18:36.086Z</time>
      </trkpt>
      <trkpt lat="43.26324" lon="3.19194">
        <ele>45.87641</ele>
        <time>2023-01-07T14:18:40.096Z</time>
      </trkpt>
      <trkpt lat="43.26328" lon="3.19183">
        <ele>45.97865</ele>
        <time>2023-01-07T14:18:45.111Z</time>
      </trkpt>
      <trkpt lat="43.26333" lon="3.19172">
        <ele>46.081665</ele>
        <time>2023-01-07T14:18:50.103Z</time>
      </trkpt>
      <trkpt lat="43.26338" lon="3.19158">
        <ele>46.200853</ele>
        <time>2023-01-07T14:18:55.101Z</time>
      </trkpt>
      <trkpt lat="43.26343" lon="3.19146">
        <ele>46.311672</ele>
        <time>2023-01-07T14:19:00.110Z</time>
      </trkpt>
      <trkpt lat="43.26347" lon="3.19134">
        <ele>46.418396</ele>
        <time>2023-01-07T14:19:04.114Z</time>
      </trkpt>
      <trkpt lat="43.26351" lon="3.19123">
        <ele>46.516463</ele>
        <time>2023-01-07T14:19:09.107Z</time>
      </trkpt>
      <trkpt lat="43.26354" lon="3.19109">
        <ele>46.622312</ele>
        <time>2023-01-07T14:19:14.085Z</time>
      </trkpt>
      <trkpt lat="43.2635" lon="3.19094">
        <ele>46.655529</ele>
        <time>2023-01-07T14:19:19.086Z</time>
      </trkpt>
      <trkpt lat="43.26349" lon="3.1908">
        <ele>46.65199</ele>
        <time>2023-01-07T14:19:23.101Z</time>
      </trkpt>
      <trkpt lat="43.26344" lon="3.19065">
        <ele>46.648052</ele>
        <time>2023-01-07T14:19:27.101Z</time>
      </trkpt>
      <trkpt lat="43.26341" lon="3.19051">
        <ele>46.644406</ele>
        <time>2023-01-07T14:19:31.111Z</time>
      </trkpt>
      <trkpt lat="43.26339" lon="3.19036">
        <ele>46.640728</ele>
        <time>2023-01-07T14:19:35.110Z</time>
      </trkpt>
      <trkpt lat="43.26335" lon="3.1902">
        <ele>46.636777</ele>
        <time>2023-01-07T14:19:39.105Z</time>
      </trkpt>
      <trkpt lat="43.26331" lon="3.19009">
        <ele>46.633561</ele>
        <time>2023-01-07T14:19:43.103Z</time>
      </trkpt>
      <trkpt lat="43.26327" lon="3.18996">
        <ele>46.63025</ele>
        <time>2023-01-07T14:19:48.106Z</time>
      </trkpt>
      <trkpt lat="43.26326" lon="3.18982">
        <ele>46.626814</ele>
        <time>2023-01-07T14:19:53.103Z</time>
      </trkpt>
      <trkpt lat="43.26323" lon="3.18967">
        <ele>46.623027</ele>
        <time>2023-01-07T14:19:58.093Z</time>
      </trkpt>
      <trkpt lat="43.26318" lon="3.18956">
        <ele>46.619716</ele>
        <time>2023-01-07T14:20:02.098Z</time>
      </trkpt>
      <trkpt lat="43.26314" lon="3.18944">
        <ele>46.616525</ele>
        <time>2023-01-07T14:20:07.094Z</time>
      </trkpt>
      <trkpt lat="43.26312" lon="3.1893">
        <ele>46.613123</ele>
        <time>2023-01-07T14:20:12.091Z</time>
      </trkpt>
      <trkpt lat="43.26308" lon="3.18917">
        <ele>46.609622</ele>
        <time>2023-01-07T14:20:17.094Z</time>
      </trkpt>
      <trkpt lat="43.26305" lon="3.18905">
        <ele>46.606532</ele>
        <time>2023-01-07T14:20:21.104Z</time>
      </trkpt>
      <trkpt lat="43.26307" lon="3.18893">
        <ele>46.603495</ele>
        <time>2023-01-07T14:20:26.106Z</time>
      </trkpt>
      <trkpt lat="43.26309" lon="3.18879">
        <ele>46.599973</ele>
        <time>2023-01-07T14:20:32.104Z</time>
      </trkpt>
      <trkpt lat="43.26315" lon="3.1887">
        <ele>46.636958</ele>
        <time>2023-01-07T14:20:37.100Z</time>
      </trkpt>
      <trkpt lat="43.26321" lon="3.18859">
        <ele>46.739469</ele>
        <time>2023-01-07T14:20:42.117Z</time>
      </trkpt>
      <trkpt lat="43.26328" lon="3.18848">
        <ele>46.854419</ele>
        <time>2023-01-07T14:20:47.101Z</time>
      </trkpt>
      <trkpt lat="43.26336" lon="3.18838">
        <ele>46.973848</ele>
        <time>2023-01-07T14:20:52.085Z</time>
      </trkpt>
      <trkpt lat="43.26344" lon="3.18832">
        <ele>47.072266</ele>
        <time>2023-01-07T14:20:56.114Z</time>
      </trkpt>
      <trkpt lat="43.26351" lon="3.18823">
        <ele>47.173585</ele>
        <time>2023-01-07T14:21:00.112Z</time>
      </trkpt>
      <trkpt lat="43.26359" lon="3.18814">
        <ele>47.2888</ele>
        <time>2023-01-07T14:21:06.113Z</time>
      </trkpt>
      <trkpt lat="43.26368" lon="3.18807">
        <ele>47.39949</ele>
        <time>2023-01-07T14:21:11.097Z</time>
      </trkpt>
      <trkpt lat="43.26376" lon="3.18799">
        <ele>47.511841</ele>
        <time>2023-01-07T14:21:16.100Z</time>
      </trkpt>
      <trkpt lat="43.26385" lon="3.18792">
        <ele>47.621464</ele>
        <time>2023-01-07T14:21:21.100Z</time>
      </trkpt>
      <trkpt lat="43.26395" lon="3.18788">
        <ele>47.733231</ele>
        <time>2023-01-07T14:21:26.107Z</time>
      </trkpt>
      <trkpt lat="43.26405" lon="3.18784">
        <ele>47.843813</ele>
        <time>2023-01-07T14:21:31.099Z</time>
      </trkpt>
      <trkpt lat="43.26414" lon="3.18777">
        <ele>47.956449</ele>
        <time>2023-01-07T14:21:36.096Z</time>
      </trkpt>
      <trkpt lat="43.26421" lon="3.18769">
        <ele>48.05796</ele>
        <time>2023-01-07T14:21:40.094Z</time>
      </trkpt>
      <trkpt lat="43.26429" lon="3.18761">
        <ele>48.158812</ele>
        <time>2023-01-07T14:21:44.101Z</time>
      </trkpt>
      <trkpt lat="43.26437" lon="3.18752">
        <ele>48.277433</ele>
        <time>2023-01-07T14:21:49.099Z</time>
      </trkpt>
      <trkpt lat="43.26447" lon="3.18745">
        <ele>48.392718</ele>
        <time>2023-01-07T14:21:54.113Z</time>
      </trkpt>
      <trkpt lat="43.26456" lon="3.1874">
        <ele>48.497332</ele>
        <time>2023-01-07T14:21:59.106Z</time>
      </trkpt>
      <trkpt lat="43.26464" lon="3.18731">
        <ele>48.542385</ele>
        <time>2023-01-07T14:22:05.097Z</time>
      </trkpt>
      <trkpt lat="43.26464" lon="3.18717">
        <ele>48.540337</ele>
        <time>2023-01-07T14:22:11.103Z</time>
      </trkpt>
      <trkpt lat="43.26463" lon="3.18703">
        <ele>48.538307</ele>
        <time>2023-01-07T14:22:17.100Z</time>
      </trkpt>
      <trkpt lat="43.2646" lon="3.18688">
        <ele>48.536146</ele>
        <time>2023-01-07T14:22:24.095Z</time>
      </trkpt>
      <trkpt lat="43.26456" lon="3.18674">
        <ele>48.534128</ele>
        <time>2023-01-07T14:22:28.090Z</time>
      </trkpt>
      <trkpt lat="43.26454" lon="3.18661">
        <ele>48.532192</ele>
        <time>2023-01-07T14:22:31.100Z</time>
      </trkpt>
      <trkpt lat="43.26452" lon="3.18646">
        <ele>48.529999</ele>
        <time>2023-01-07T14:22:35.096Z</time>
      </trkpt>
      <trkpt lat="43.2645" lon="3.18634">
        <ele>48.528244</ele>
        <time>2023-01-07T14:22:39.108Z</time>
      </trkpt>
      <trkpt lat="43.26458" lon="3.18613">
        <ele>48.525062</ele>
        <time>2023-01-07T14:23:08.123Z</time>
      </trkpt>
      <trkpt lat="43.26466" lon="3.18604">
        <ele>48.522978</ele>
        <time>2023-01-07T14:23:14.114Z</time>
      </trkpt>
      <trkpt lat="43.2647" lon="3.18593">
        <ele>48.521198</ele>
        <time>2023-01-07T14:23:18.198Z</time>
      </trkpt>
      <trkpt lat="43.26475" lon="3.1858">
        <ele>48.519068</ele>
        <time>2023-01-07T14:23:23.109Z</time>
      </trkpt>
      <trkpt lat="43.26481" lon="3.18567">
        <ele>48.516914</ele>
        <time>2023-01-07T14:23:28.119Z</time>
      </trkpt>
      <trkpt lat="43.26486" lon="3.18554">
        <ele>48.514855</ele>
        <time>2023-01-07T14:23:33.116Z</time>
      </trkpt>
      <trkpt lat="43.2649" lon="3.18542">
        <ele>48.512934</ele>
        <time>2023-01-07T14:23:38.114Z</time>
      </trkpt>
      <trkpt lat="43.26495" lon="3.1853">
        <ele>48.511117</ele>
        <time>2023-01-07T14:23:43.114Z</time>
      </trkpt>
      <trkpt lat="43.265" lon="3.18518">
        <ele>48.509078</ele>
        <time>2023-01-07T14:23:48.120Z</time>
      </trkpt>
      <trkpt lat="43.26506" lon="3.18507">
        <ele>48.60574</ele>
        <time>2023-01-07T14:23:53.113Z</time>
      </trkpt>
      <trkpt lat="43.26512" lon="3.18494">
        <ele>48.734715</ele>
        <time>2023-01-07T14:23:58.112Z</time>
      </trkpt>
      <trkpt lat="43.26517" lon="3.18483">
        <ele>48.849967</ele>
        <time>2023-01-07T14:24:03.119Z</time>
      </trkpt>
      <trkpt lat="43.26518" lon="3.1847">
        <ele>48.96498</ele>
        <time>2023-01-07T14:24:07.163Z</time>
      </trkpt>
      <trkpt lat="43.26519" lon="3.18457">
        <ele>49.083919</ele>
        <time>2023-01-07T14:24:11.118Z</time>
      </trkpt>
      <trkpt lat="43.26521" lon="3.18443">
        <ele>49.207473</ele>
        <time>2023-01-07T14:24:15.117Z</time>
      </trkpt>
      <trkpt lat="43.26524" lon="3.1843">
        <ele>49.326118</ele>
        <time>2023-01-07T14:24:19.097Z</time>
      </trkpt>
      <trkpt lat="43.26527" lon="3.18418">
        <ele>49.438448</ele>
        <time>2023-01-07T14:24:23.116Z</time>
      </trkpt>
      <trkpt lat="43.2653" lon="3.18402">
        <ele>49.579086</ele>
        <time>2023-01-07T14:24:27.118Z</time>
      </trkpt>
      <trkpt lat="43.26531" lon="3.18389">
        <ele>49.695988</ele>
        <time>2023-01-07T14:24:30.101Z</time>
      </trkpt>
      <trkpt lat="43.26532" lon="3.18376">
        <ele>49.809585</ele>
        <time>2023-01-07T14:24:33.117Z</time>
      </trkpt>
      <trkpt lat="43.26532" lon="3.18361">
        <ele>49.939737</ele>
        <time>2023-01-07T14:24:37.096Z</time>
      </trkpt>
      <trkpt lat="43.26533" lon="3.18345">
        <ele>50.084269</ele>
        <time>2023-01-07T14:24:41.117Z</time>
      </trkpt>
      <trkpt lat="43.26534" lon="3.18333">
        <ele>50.194046</ele>
        <time>2023-01-07T14:24:44.116Z</time>
      </trkpt>
      <trkpt lat="43.26534" lon="3.18318">
        <ele>50.321523</ele>
        <time>2023-01-07T14:24:48.115Z</time>
      </trkpt>
      <trkpt lat="43.26534" lon="3.18303">
        <ele>50.458637</ele>
        <time>2023-01-07T14:24:52.116Z</time>
      </trkpt>
      <trkpt lat="43.26535" lon="3.18287">
        <ele>50.594166</ele>
        <time>2023-01-07T14:24:56.116Z</time>
      </trkpt>
      <trkpt lat="43.26535" lon="3.18274">
        <ele>50.790379</ele>
        <time>2023-01-07T14:25:00.120Z</time>
      </trkpt>
      <trkpt lat="43.26535" lon="3.18259">
        <ele>51.224758</ele>
        <time>2023-01-07T14:25:04.116Z</time>
      </trkpt>
      <trkpt lat="43.26536" lon="3.18243">
        <ele>51.69405</ele>
        <time>2023-01-07T14:25:08.116Z</time>
      </trkpt>
      <trkpt lat="43.26536" lon="3.1823">
        <ele>52.058428</ele>
        <time>2023-01-07T14:25:11.119Z</time>
      </trkpt>
      <trkpt lat="43.26537" lon="3.18215">
        <ele>52.511253</ele>
        <time>2023-01-07T14:25:15.115Z</time>
      </trkpt>
      <trkpt lat="43.26539" lon="3.18201">
        <ele>52.925269</ele>
        <time>2023-01-07T14:25:20.119Z</time>
      </trkpt>
      <trkpt lat="43.26547" lon="3.18186">
        <ele>53.478783</ele>
        <time>2023-01-07T14:26:02.094Z</time>
      </trkpt>
      <trkpt lat="43.26556" lon="3.18176">
        <ele>53.934538</ele>
        <time>2023-01-07T14:26:06.090Z</time>
      </trkpt>
      <trkpt lat="43.26566" lon="3.18167">
        <ele>54.396349</ele>
        <time>2023-01-07T14:26:10.090Z</time>
      </trkpt>
      <trkpt lat="43.26575" lon="3.18157">
        <ele>54.85315</ele>
        <time>2023-01-07T14:26:14.101Z</time>
      </trkpt>
      <trkpt lat="43.26584" lon="3.18147">
        <ele>55.32794</ele>
        <time>2023-01-07T14:26:18.096Z</time>
      </trkpt>
      <trkpt lat="43.26592" lon="3.18139">
        <ele>55.725263</ele>
        <time>2023-01-07T14:26:22.090Z</time>
      </trkpt>
      <trkpt lat="43.26601" lon="3.18132">
        <ele>56.116711</ele>
        <time>2023-01-07T14:26:26.098Z</time>
      </trkpt>
      <trkpt lat="43.26609" lon="3.18125">
        <ele>56.497515</ele>
        <time>2023-01-07T14:26:30.107Z</time>
      </trkpt>
      <trkpt lat="43.26617" lon="3.18117">
        <ele>56.911278</ele>
        <time>2023-01-07T14:26:35.094Z</time>
      </trkpt>
      <trkpt lat="43.26624" lon="3.18109">
        <ele>57.274456</ele>
        <time>2023-01-07T14:26:40.102Z</time>
      </trkpt>
      <trkpt lat="43.26633" lon="3.18101">
        <ele>57.683272</ele>
        <time>2023-01-07T14:26:46.090Z</time>
      </trkpt>
      <trkpt lat="43.26641" lon="3.18093">
        <ele>58.443591</ele>
        <time>2023-01-07T14:26:52.100Z</time>
      </trkpt>
      <trkpt lat="43.26649" lon="3.18083">
        <ele>59.454334</ele>
        <time>2023-01-07T14:26:58.097Z</time>
      </trkpt>
      <trkpt lat="43.26656" lon="3.18073">
        <ele>60.480158</ele>
        <time>2023-01-07T14:27:04.102Z</time>
      </trkpt>
      <trkpt lat="43.26663" lon="3.18064">
        <ele>61.374578</ele>
        <time>2023-01-07T14:27:09.095Z</time>
      </trkpt>
      <trkpt lat="43.26672" lon="3.18053">
        <ele>62.546224</ele>
        <time>2023-01-07T14:27:36.099Z</time>
      </trkpt>
      <trkpt lat="43.2668" lon="3.18044">
        <ele>63.507463</ele>
        <time>2023-01-07T14:27:48.096Z</time>
      </trkpt>
      <trkpt lat="43.26686" lon="3.18034">
        <ele>64.444877</ele>
        <time>2023-01-07T14:27:57.111Z</time>
      </trkpt>
      <trkpt lat="43.26692" lon="3.18024">
        <ele>65.344208</ele>
        <time>2023-01-07T14:28:07.101Z</time>
      </trkpt>
      <trkpt lat="43.26697" lon="3.18013">
        <ele>66.234206</ele>
        <time>2023-01-07T14:28:16.103Z</time>
      </trkpt>
      <trkpt lat="43.26703" lon="3.18004">
        <ele>67.128572</ele>
        <time>2023-01-07T14:28:24.091Z</time>
      </trkpt>
      <trkpt lat="43.26709" lon="3.17995">
        <ele>68.021584</ele>
        <time>2023-01-07T14:28:33.090Z</time>
      </trkpt>
      <trkpt lat="43.26715" lon="3.17985">
        <ele>68.922346</ele>
        <time>2023-01-07T14:28:42.101Z</time>
      </trkpt>
      <trkpt lat="43.26722" lon="3.17975">
        <ele>69.879155</ele>
        <time>2023-01-07T14:28:52.101Z</time>
      </trkpt>
      <trkpt lat="43.26729" lon="3.17966">
        <ele>70.787471</ele>
        <time>2023-01-07T14:29:02.101Z</time>
      </trkpt>
      <trkpt lat="43.26736" lon="3.17957">
        <ele>71.729242</ele>
        <time>2023-01-07T14:29:13.093Z</time>
      </trkpt>
      <trkpt lat="43.26742" lon="3.17947">
        <ele>72.635349</ele>
        <time>2023-01-07T14:29:23.098Z</time>
      </trkpt>
      <trkpt lat="43.26749" lon="3.17938">
        <ele>73.548087</ele>
        <time>2023-01-07T14:29:34.111Z</time>
      </trkpt>
      <trkpt lat="43.26753" lon="3.17927">
        <ele>74.436458</ele>
        <time>2023-01-07T14:29:45.095Z</time>
      </trkpt>
      <trkpt lat="43.26759" lon="3.17916">
        <ele>75.412118</ele>
        <time>2023-01-07T14:29:57.089Z</time>
      </trkpt>
      <trkpt lat="43.26763" lon="3.17905">
        <ele>76.515299</ele>
        <time>2023-01-07T14:30:08.109Z</time>
      </trkpt>
      <trkpt lat="43.26767" lon="3.17893">
        <ele>77.690175</ele>
        <time>2023-01-07T14:30:19.105Z</time>
      </trkpt>
      <trkpt lat="43.26775" lon="3.17879">
        <ele>79.266547</ele>
        <time>2023-01-07T14:30:45.097Z</time>
      </trkpt>
      <trkpt lat="43.2678" lon="3.17868">
        <ele>80.403186</ele>
        <time>2023-01-07T14:30:58.106Z</time>
      </trkpt>
      <trkpt lat="43.26785" lon="3.17858">
        <ele>81.520946</ele>
        <time>2023-01-07T14:31:09.100Z</time>
      </trkpt>
      <trkpt lat="43.2679" lon="3.17847">
        <ele>82.627531</ele>
        <time>2023-01-07T14:31:19.088Z</time>
      </trkpt>
      <trkpt lat="43.26794" lon="3.17835">
        <ele>83.782727</ele>
        <time>2023-01-07T14:31:31.089Z</time>
      </trkpt>
      <trkpt lat="43.26805" lon="3.17825">
        <ele>85.404008</ele>
        <time>2023-01-07T14:32:34.098Z</time>
      </trkpt>
      <trkpt lat="43.26827" lon="3.17836">
        <ele>88.201629</ele>
        <time>2023-01-07T14:35:21.100Z</time>
      </trkpt>
      <trkpt lat="43.26834" lon="3.17844">
        <ele>89.300274</ele>
        <time>2023-01-07T14:35:29.099Z</time>
      </trkpt>
      <trkpt lat="43.2684" lon="3.17855">
        <ele>90.511368</ele>
        <time>2023-01-07T14:35:38.105Z</time>
      </trkpt>
      <trkpt lat="43.26843" lon="3.17867">
        <ele>91.665012</ele>
        <time>2023-01-07T14:35:48.114Z</time>
      </trkpt>
      <trkpt lat="43.26844" lon="3.1788">
        <ele>92.796615</ele>
        <time>2023-01-07T14:35:58.107Z</time>
      </trkpt>
      <trkpt lat="43.26845" lon="3.17892">
        <ele>93.897348</ele>
        <time>2023-01-07T14:36:08.100Z</time>
      </trkpt>
      <trkpt lat="43.26843" lon="3.17906">
        <ele>95.08125</ele>
        <time>2023-01-07T14:36:17.093Z</time>
      </trkpt>
      <trkpt lat="43.26839" lon="3.17917">
        <ele>96.197629</ele>
        <time>2023-01-07T14:36:26.113Z</time>
      </trkpt>
      <trkpt lat="43.26835" lon="3.1793">
        <ele>97.266341</ele>
        <time>2023-01-07T14:36:35.092Z</time>
      </trkpt>
      <trkpt lat="43.26831" lon="3.17943">
        <ele>97.734269</ele>
        <time>2023-01-07T14:36:43.097Z</time>
      </trkpt>
      <trkpt lat="43.26827" lon="3.17969">
        <ele>98.637376</ele>
        <time>2023-01-07T14:37:19.087Z</time>
      </trkpt>
      <trkpt lat="43.26825" lon="3.17981">
        <ele>99.062194</ele>
        <time>2023-01-07T14:37:23.094Z</time>
      </trkpt>
      <trkpt lat="43.26824" lon="3.17994">
        <ele>99.489492</ele>
        <time>2023-01-07T14:37:27.093Z</time>
      </trkpt>
      <trkpt lat="43.26824" lon="3.18007">
        <ele>99.909921</ele>
        <time>2023-01-07T14:37:31.093Z</time>
      </trkpt>
      <trkpt lat="43.26823" lon="3.18019">
        <ele>100.332298</ele>
        <time>2023-01-07T14:37:35.088Z</time>
      </trkpt>
      <trkpt lat="43.2682" lon="3.18034">
        <ele>100.84544</ele>
        <time>2023-01-07T14:37:40.095Z</time>
      </trkpt>
      <trkpt lat="43.2682" lon="3.18046">
        <ele>101.259274</ele>
        <time>2023-01-07T14:37:44.090Z</time>
      </trkpt>
      <trkpt lat="43.2682" lon="3.18059">
        <ele>101.699873</ele>
        <time>2023-01-07T14:37:48.090Z</time>
      </trkpt>
      <trkpt lat="43.26823" lon="3.18074">
        <ele>102.209355</ele>
        <time>2023-01-07T14:37:53.095Z</time>
      </trkpt>
      <trkpt lat="43.26829" lon="3.18084">
        <ele>102.638853</ele>
        <time>2023-01-07T14:37:57.089Z</time>
      </trkpt>
      <trkpt lat="43.26836" lon="3.18094">
        <ele>103.08773</ele>
        <time>2023-01-07T14:38:01.097Z</time>
      </trkpt>
      <trkpt lat="43.26843" lon="3.18104">
        <ele>103.561509</ele>
        <time>2023-01-07T14:38:06.103Z</time>
      </trkpt>
      <trkpt lat="43.26851" lon="3.18109">
        <ele>103.996871</ele>
        <time>2023-01-07T14:38:17.098Z</time>
      </trkpt>
      <trkpt lat="43.26859" lon="3.18117">
        <ele>104.431325</ele>
        <time>2023-01-07T14:38:22.100Z</time>
      </trkpt>
      <trkpt lat="43.26867" lon="3.18126">
        <ele>104.916735</ele>
        <time>2023-01-07T14:38:27.097Z</time>
      </trkpt>
      <trkpt lat="43.26876" lon="3.18136">
        <ele>105.433643</ele>
        <time>2023-01-07T14:38:32.107Z</time>
      </trkpt>
      <trkpt lat="43.26883" lon="3.18144">
        <ele>105.336554</ele>
        <time>2023-01-07T14:38:36.112Z</time>
      </trkpt>
      <trkpt lat="43.26891" lon="3.18154">
        <ele>105.16625</ele>
        <time>2023-01-07T14:38:40.086Z</time>
      </trkpt>
      <trkpt lat="43.26899" lon="3.18164">
        <ele>105.00464</ele>
        <time>2023-01-07T14:38:44.096Z</time>
      </trkpt>
      <trkpt lat="43.26906" lon="3.18175">
        <ele>104.840978</ele>
        <time>2023-01-07T14:38:48.099Z</time>
      </trkpt>
      <trkpt lat="43.26913" lon="3.18185">
        <ele>104.684224</ele>
        <time>2023-01-07T14:38:51.094Z</time>
      </trkpt>
      <trkpt lat="43.2692" lon="3.18194">
        <ele>104.532917</ele>
        <time>2023-01-07T14:38:54.096Z</time>
      </trkpt>
      <trkpt lat="43.26927" lon="3.18204">
        <ele>104.378578</ele>
        <time>2023-01-07T14:38:57.094Z</time>
      </trkpt>
      <trkpt lat="43.26934" lon="3.18214">
        <ele>104.218354</ele>
        <time>2023-01-07T14:39:00.099Z</time>
      </trkpt>
      <trkpt lat="43.26942" lon="3.18224">
        <ele>104.055642</ele>
        <time>2023-01-07T14:39:03.094Z</time>
      </trkpt>
      <trkpt lat="43.26949" lon="3.18235">
        <ele>103.89354</ele>
        <time>2023-01-07T14:39:06.098Z</time>
      </trkpt>
      <trkpt lat="43.26957" lon="3.18244">
        <ele>103.733491</ele>
        <time>2023-01-07T14:39:09.092Z</time>
      </trkpt>
      <trkpt lat="43.26964" lon="3.18254">
        <ele>103.573442</ele>
        <time>2023-01-07T14:39:12.103Z</time>
      </trkpt>
      <trkpt lat="43.26973" lon="3.18263">
        <ele>103.408439</ele>
        <time>2023-01-07T14:39:15.098Z</time>
      </trkpt>
      <trkpt lat="43.2698" lon="3.18273">
        <ele>103.249934</ele>
        <time>2023-01-07T14:39:18.098Z</time>
      </trkpt>
      <trkpt lat="43.26989" lon="3.18283">
        <ele>103.077825</ele>
        <time>2023-01-07T14:39:22.103Z</time>
      </trkpt>
      <trkpt lat="43.26996" lon="3.18294">
        <ele>102.910565</ele>
        <time>2023-01-07T14:39:26.100Z</time>
      </trkpt>
      <trkpt lat="43.27003" lon="3.18302">
        <ele>102.770137</ele>
        <time>2023-01-07T14:39:29.103Z</time>
      </trkpt>
      <trkpt lat="43.27015" lon="3.18313">
        <ele>102.643866</ele>
        <time>2023-01-07T14:39:32.104Z</time>
      </trkpt>
      <trkpt lat="43.27023" lon="3.18318">
        <ele>102.592106</ele>
        <time>2023-01-07T14:39:34.091Z</time>
      </trkpt>
      <trkpt lat="43.27036" lon="3.18322">
        <ele>102.519236</ele>
        <time>2023-01-07T14:39:37.083Z</time>
      </trkpt>
      <trkpt lat="43.27045" lon="3.18324">
        <ele>102.464116</ele>
        <time>2023-01-07T14:39:40.091Z</time>
      </trkpt>
      <trkpt lat="43.27056" lon="3.18328">
        <ele>102.404307</ele>
        <time>2023-01-07T14:39:43.097Z</time>
      </trkpt>
      <trkpt lat="43.27067" lon="3.18335">
        <ele>102.332057</ele>
        <time>2023-01-07T14:39:46.099Z</time>
      </trkpt>
      <trkpt lat="43.27079" lon="3.18342">
        <ele>102.260972</ele>
        <time>2023-01-07T14:39:49.093Z</time>
      </trkpt>
      <trkpt lat="43.2709" lon="3.18348">
        <ele>102.194691</ele>
        <time>2023-01-07T14:39:52.098Z</time>
      </trkpt>
      <trkpt lat="43.27102" lon="3.18354">
        <ele>102.119223</ele>
        <time>2023-01-07T14:39:55.105Z</time>
      </trkpt>
      <trkpt lat="43.27113" lon="3.18356">
        <ele>102.060153</ele>
        <time>2023-01-07T14:39:57.106Z</time>
      </trkpt>
      <trkpt lat="43.27122" lon="3.18356">
        <ele>102.00477</ele>
        <time>2023-01-07T14:39:59.107Z</time>
      </trkpt>
      <trkpt lat="43.27132" lon="3.18354">
        <ele>101.952088</ele>
        <time>2023-01-07T14:40:01.104Z</time>
      </trkpt>
      <trkpt lat="43.27142" lon="3.18351">
        <ele>101.893145</ele>
        <time>2023-01-07T14:40:03.102Z</time>
      </trkpt>
      <trkpt lat="43.27151" lon="3.18345">
        <ele>101.838184</ele>
        <time>2023-01-07T14:40:05.115Z</time>
      </trkpt>
      <trkpt lat="43.27159" lon="3.18337">
        <ele>101.780187</ele>
        <time>2023-01-07T14:40:07.103Z</time>
      </trkpt>
      <trkpt lat="43.27169" lon="3.18329">
        <ele>101.716815</ele>
        <time>2023-01-07T14:40:09.091Z</time>
      </trkpt>
      <trkpt lat="43.27179" lon="3.18322">
        <ele>101.512038</ele>
        <time>2023-01-07T14:40:11.098Z</time>
      </trkpt>
      <trkpt lat="43.27189" lon="3.18315">
        <ele>101.132338</ele>
        <time>2023-01-07T14:40:13.091Z</time>
      </trkpt>
      <trkpt lat="43.272" lon="3.18309">
        <ele>100.766394</ele>
        <time>2023-01-07T14:40:15.102Z</time>
      </trkpt>
      <trkpt lat="43.2721" lon="3.18303">
        <ele>100.39442</ele>
        <time>2023-01-07T14:40:17.092Z</time>
      </trkpt>
      <trkpt lat="43.27221" lon="3.18297">
        <ele>100.016398</ele>
        <time>2023-01-07T14:40:19.098Z</time>
      </trkpt>
      <trkpt lat="43.27232" lon="3.18292">
        <ele>99.61888</ele>
        <time>2023-01-07T14:40:21.109Z</time>
      </trkpt>
      <trkpt lat="43.27243" lon="3.18286">
        <ele>99.240679</ele>
        <time>2023-01-07T14:40:23.096Z</time>
      </trkpt>
      <trkpt lat="43.27253" lon="3.18282">
        <ele>98.884148</ele>
        <time>2023-01-07T14:40:25.099Z</time>
      </trkpt>
      <trkpt lat="43.27264" lon="3.18276">
        <ele>98.521323</ele>
        <time>2023-01-07T14:40:27.107Z</time>
      </trkpt>
      <trkpt lat="43.27273" lon="3.18272">
        <ele>98.191851</ele>
        <time>2023-01-07T14:40:29.101Z</time>
      </trkpt>
      <trkpt lat="43.27286" lon="3.18266">
        <ele>97.75796</ele>
        <time>2023-01-07T14:40:32.101Z</time>
      </trkpt>
      <trkpt lat="43.27298" lon="3.1826">
        <ele>97.351111</ele>
        <time>2023-01-07T14:40:35.096Z</time>
      </trkpt>
      <trkpt lat="43.27308" lon="3.18255">
        <ele>96.983673</ele>
        <time>2023-01-07T14:40:38.112Z</time>
      </trkpt>
      <trkpt lat="43.27318" lon="3.18251">
        <ele>96.655754</ele>
        <time>2023-01-07T14:40:41.114Z</time>
      </trkpt>
      <trkpt lat="43.27327" lon="3.18248">
        <ele>96.354441</ele>
        <time>2023-01-07T14:40:44.107Z</time>
      </trkpt>
      <trkpt lat="43.27336" lon="3.18248">
        <ele>96.056712</ele>
        <time>2023-01-07T14:40:47.089Z</time>
      </trkpt>
      <trkpt lat="43.27347" lon="3.18252">
        <ele>95.549811</ele>
        <time>2023-01-07T14:40:50.099Z</time>
      </trkpt>
      <trkpt lat="43.27359" lon="3.18258">
        <ele>94.611775</ele>
        <time>2023-01-07T14:40:53.100Z</time>
      </trkpt>
      <trkpt lat="43.27367" lon="3.18261">
        <ele>93.937303</ele>
        <time>2023-01-07T14:40:55.115Z</time>
      </trkpt>
      <trkpt lat="43.27377" lon="3.18266">
        <ele>93.155473</ele>
        <time>2023-01-07T14:40:57.098Z</time>
      </trkpt>
      <trkpt lat="43.27388" lon="3.18271">
        <ele>92.305785</ele>
        <time>2023-01-07T14:40:59.108Z</time>
      </trkpt>
      <trkpt lat="43.27399" lon="3.18274">
        <ele>91.465804</ele>
        <time>2023-01-07T14:41:01.111Z</time>
      </trkpt>
      <trkpt lat="43.2741" lon="3.18277">
        <ele>90.682213</ele>
        <time>2023-01-07T14:41:03.095Z</time>
      </trkpt>
      <trkpt lat="43.2742" lon="3.18281">
        <ele>89.927815</ele>
        <time>2023-01-07T14:41:05.092Z</time>
      </trkpt>
      <trkpt lat="43.27432" lon="3.18285">
        <ele>89.002864</ele>
        <time>2023-01-07T14:41:08.104Z</time>
      </trkpt>
      <trkpt lat="43.27443" lon="3.18289">
        <ele>88.181151</ele>
        <time>2023-01-07T14:41:10.090Z</time>
      </trkpt>
      <trkpt lat="43.27451" lon="3.18293">
        <ele>87.483575</ele>
        <time>2023-01-07T14:41:12.099Z</time>
      </trkpt>
      <trkpt lat="43.2746" lon="3.18297">
        <ele>86.785998</ele>
        <time>2023-01-07T14:41:14.085Z</time>
      </trkpt>
      <trkpt lat="43.2747" lon="3.18301">
        <ele>86.055128</ele>
        <time>2023-01-07T14:41:16.090Z</time>
      </trkpt>
      <trkpt lat="43.2748" lon="3.18306">
        <ele>85.259649</ele>
        <time>2023-01-07T14:41:18.096Z</time>
      </trkpt>
      <trkpt lat="43.27491" lon="3.18312">
        <ele>84.361932</ele>
        <time>2023-01-07T14:41:20.096Z</time>
      </trkpt>
      <trkpt lat="43.27503" lon="3.18319">
        <ele>83.444495</ele>
        <time>2023-01-07T14:41:22.096Z</time>
      </trkpt>
      <trkpt lat="43.27515" lon="3.18324">
        <ele>82.495736</ele>
        <time>2023-01-07T14:41:24.092Z</time>
      </trkpt>
      <trkpt lat="43.27528" lon="3.18331">
        <ele>82.369914</ele>
        <time>2023-01-07T14:41:26.088Z</time>
      </trkpt>
      <trkpt lat="43.27541" lon="3.18336">
        <ele>82.246314</ele>
        <time>2023-01-07T14:41:28.091Z</time>
      </trkpt>
      <trkpt lat="43.27553" lon="3.18342">
        <ele>82.124088</ele>
        <time>2023-01-07T14:41:30.087Z</time>
      </trkpt>
      <trkpt lat="43.27565" lon="3.18348">
        <ele>82.005567</ele>
        <time>2023-01-07T14:41:32.105Z</time>
      </trkpt>
      <trkpt lat="43.27576" lon="3.18355">
        <ele>81.895296</ele>
        <time>2023-01-07T14:41:34.112Z</time>
      </trkpt>
      <trkpt lat="43.27587" lon="3.1836">
        <ele>81.79022</ele>
        <time>2023-01-07T14:41:36.091Z</time>
      </trkpt>
      <trkpt lat="43.27597" lon="3.18367">
        <ele>81.684721</ele>
        <time>2023-01-07T14:41:38.096Z</time>
      </trkpt>
      <trkpt lat="43.27606" lon="3.18371">
        <ele>81.599033</ele>
        <time>2023-01-07T14:41:40.104Z</time>
      </trkpt>
      <trkpt lat="43.27615" lon="3.18378">
        <ele>81.50774</ele>
        <time>2023-01-07T14:41:42.102Z</time>
      </trkpt>
      <trkpt lat="43.27624" lon="3.18383">
        <ele>81.419336</ele>
        <time>2023-01-07T14:41:44.096Z</time>
      </trkpt>
      <trkpt lat="43.27634" lon="3.18388">
        <ele>81.313697</ele>
        <time>2023-01-07T14:41:47.102Z</time>
      </trkpt>
      <trkpt lat="43.27645" lon="3.18394">
        <ele>81.206759</ele>
        <time>2023-01-07T14:41:50.095Z</time>
      </trkpt>
      <trkpt lat="43.27654" lon="3.18399">
        <ele>81.121322</ele>
        <time>2023-01-07T14:41:53.108Z</time>
      </trkpt>
      <trkpt lat="43.27662" lon="3.18403">
        <ele>81.03576</ele>
        <time>2023-01-07T14:41:56.103Z</time>
      </trkpt>
      <trkpt lat="43.27671" lon="3.18409">
        <ele>80.95015</ele>
        <time>2023-01-07T14:41:59.098Z</time>
      </trkpt>
      <trkpt lat="43.27679" lon="3.18416">
        <ele>80.859175</ele>
        <time>2023-01-07T14:42:03.104Z</time>
      </trkpt>
      <trkpt lat="43.27687" lon="3.18423">
        <ele>80.686771</ele>
        <time>2023-01-07T14:42:08.096Z</time>
      </trkpt>
      <trkpt lat="43.27694" lon="3.18433">
        <ele>80.491082</ele>
        <time>2023-01-07T14:42:14.092Z</time>
      </trkpt>
      <trkpt lat="43.27696" lon="3.18455">
        <ele>80.157882</ele>
        <time>2023-01-07T14:43:01.093Z</time>
      </trkpt>
      <trkpt lat="43.27702" lon="3.18466">
        <ele>79.963057</ele>
        <time>2023-01-07T14:43:05.090Z</time>
      </trkpt>
      <trkpt lat="43.27706" lon="3.18477">
        <ele>79.77093</ele>
        <time>2023-01-07T14:43:08.100Z</time>
      </trkpt>
      <trkpt lat="43.27709" lon="3.18491">
        <ele>79.55728</ele>
        <time>2023-01-07T14:43:11.092Z</time>
      </trkpt>
      <trkpt lat="43.27711" lon="3.18506">
        <ele>79.337619</ele>
        <time>2023-01-07T14:43:14.097Z</time>
      </trkpt>
      <trkpt lat="43.27712" lon="3.18521">
        <ele>79.11215</ele>
        <time>2023-01-07T14:43:17.089Z</time>
      </trkpt>
      <trkpt lat="43.27714" lon="3.18539">
        <ele>78.855994</ele>
        <time>2023-01-07T14:43:20.087Z</time>
      </trkpt>
      <trkpt lat="43.27715" lon="3.18551">
        <ele>78.66836</ele>
        <time>2023-01-07T14:43:22.094Z</time>
      </trkpt>
      <trkpt lat="43.27715" lon="3.18565">
        <ele>78.475421</ele>
        <time>2023-01-07T14:43:24.093Z</time>
      </trkpt>
      <trkpt lat="43.27716" lon="3.18578">
        <ele>78.280264</ele>
        <time>2023-01-07T14:43:26.098Z</time>
      </trkpt>
      <trkpt lat="43.27717" lon="3.18591">
        <ele>78.082189</ele>
        <time>2023-01-07T14:43:28.091Z</time>
      </trkpt>
      <trkpt lat="43.27718" lon="3.18605">
        <ele>77.881773</ele>
        <time>2023-01-07T14:43:30.096Z</time>
      </trkpt>
      <trkpt lat="43.27719" lon="3.18618">
        <ele>77.687369</ele>
        <time>2023-01-07T14:43:32.092Z</time>
      </trkpt>
      <trkpt lat="43.2772" lon="3.18631">
        <ele>77.488416</ele>
        <time>2023-01-07T14:43:34.096Z</time>
      </trkpt>
      <trkpt lat="43.27719" lon="3.18645">
        <ele>77.28702</ele>
        <time>2023-01-07T14:43:36.098Z</time>
      </trkpt>
      <trkpt lat="43.27719" lon="3.18659">
        <ele>77.081543</ele>
        <time>2023-01-07T14:43:38.089Z</time>
      </trkpt>
      <trkpt lat="43.27718" lon="3.18673">
        <ele>76.857746</ele>
        <time>2023-01-07T14:43:40.091Z</time>
      </trkpt>
      <trkpt lat="43.27717" lon="3.18686">
        <ele>76.641605</ele>
        <time>2023-01-07T14:43:42.098Z</time>
      </trkpt>
      <trkpt lat="43.27715" lon="3.18701">
        <ele>76.411159</ele>
        <time>2023-01-07T14:43:44.095Z</time>
      </trkpt>
      <trkpt lat="43.27713" lon="3.18714">
        <ele>76.192703</ele>
        <time>2023-01-07T14:43:46.091Z</time>
      </trkpt>
      <trkpt lat="43.27711" lon="3.18729">
        <ele>75.961049</ele>
        <time>2023-01-07T14:43:48.097Z</time>
      </trkpt>
      <trkpt lat="43.27708" lon="3.18744">
        <ele>75.720613</ele>
        <time>2023-01-07T14:43:50.096Z</time>
      </trkpt>
      <trkpt lat="43.27705" lon="3.18759">
        <ele>75.478249</ele>
        <time>2023-01-07T14:43:52.096Z</time>
      </trkpt>
      <trkpt lat="43.27702" lon="3.18774">
        <ele>75.220549</ele>
        <time>2023-01-07T14:43:54.104Z</time>
      </trkpt>
      <trkpt lat="43.27698" lon="3.18789">
        <ele>74.972188</ele>
        <time>2023-01-07T14:43:56.108Z</time>
      </trkpt>
      <trkpt lat="43.27695" lon="3.18805">
        <ele>74.719607</ele>
        <time>2023-01-07T14:43:58.110Z</time>
      </trkpt>
      <trkpt lat="43.27692" lon="3.18821">
        <ele>74.46342</ele>
        <time>2023-01-07T14:44:00.103Z</time>
      </trkpt>
      <trkpt lat="43.27688" lon="3.18836">
        <ele>74.20262</ele>
        <time>2023-01-07T14:44:02.096Z</time>
      </trkpt>
      <trkpt lat="43.27685" lon="3.18853">
        <ele>73.928324</ele>
        <time>2023-01-07T14:44:04.096Z</time>
      </trkpt>
      <trkpt lat="43.27681" lon="3.18869">
        <ele>73.661286</ele>
        <time>2023-01-07T14:44:06.099Z</time>
      </trkpt>
      <trkpt lat="43.27677" lon="3.18886">
        <ele>73.386989</ele>
        <time>2023-01-07T14:44:08.105Z</time>
      </trkpt>
      <trkpt lat="43.27674" lon="3.18901">
        <ele>73.125312</ele>
        <time>2023-01-07T14:44:10.105Z</time>
      </trkpt>
      <trkpt lat="43.2767" lon="3.18917">
        <ele>72.835616</ele>
        <time>2023-01-07T14:44:12.104Z</time>
      </trkpt>
      <trkpt lat="43.27666" lon="3.18935">
        <ele>72.522974</ele>
        <time>2023-01-07T14:44:14.096Z</time>
      </trkpt>
      <trkpt lat="43.27662" lon="3.18953">
        <ele>72.208242</ele>
        <time>2023-01-07T14:44:16.099Z</time>
      </trkpt>
      <trkpt lat="43.27659" lon="3.18969">
        <ele>71.914357</ele>
        <time>2023-01-07T14:44:18.095Z</time>
      </trkpt>
      <trkpt lat="43.27654" lon="3.18987">
        <ele>71.603325</ele>
        <time>2023-01-07T14:44:20.096Z</time>
      </trkpt>
      <trkpt lat="43.2765" lon="3.19004">
        <ele>71.28887</ele>
        <time>2023-01-07T14:44:22.095Z</time>
      </trkpt>
      <trkpt lat="43.27647" lon="3.19022">
        <ele>70.979677</ele>
        <time>2023-01-07T14:44:24.087Z</time>
      </trkpt>
      <trkpt lat="43.27643" lon="3.1904">
        <ele>70.661287</ele>
        <time>2023-01-07T14:44:26.088Z</time>
      </trkpt>
      <trkpt lat="43.27638" lon="3.19057">
        <ele>70.354329</ele>
        <time>2023-01-07T14:44:28.089Z</time>
      </trkpt>
      <trkpt lat="43.27634" lon="3.19075">
        <ele>70.038253</ele>
        <time>2023-01-07T14:44:30.098Z</time>
      </trkpt>
      <trkpt lat="43.2763" lon="3.19093">
        <ele>69.710138</ele>
        <time>2023-01-07T14:44:32.102Z</time>
      </trkpt>
      <trkpt lat="43.27626" lon="3.19111">
        <ele>69.389193</ele>
        <time>2023-01-07T14:44:34.098Z</time>
      </trkpt>
      <trkpt lat="43.27623" lon="3.19128">
        <ele>69.087845</ele>
        <time>2023-01-07T14:44:36.107Z</time>
      </trkpt>
      <trkpt lat="43.27619" lon="3.19145">
        <ele>68.770234</ele>
        <time>2023-01-07T14:44:38.102Z</time>
      </trkpt>
      <trkpt lat="43.27616" lon="3.19163">
        <ele>68.444399</ele>
        <time>2023-01-07T14:44:40.101Z</time>
      </trkpt>
      <trkpt lat="43.27612" lon="3.1918">
        <ele>68.128048</ele>
        <time>2023-01-07T14:44:42.106Z</time>
      </trkpt>
      <trkpt lat="43.2761" lon="3.19197">
        <ele>67.808757</ele>
        <time>2023-01-07T14:44:44.095Z</time>
      </trkpt>
      <trkpt lat="43.27607" lon="3.19216">
        <ele>67.47292</ele>
        <time>2023-01-07T14:44:46.105Z</time>
      </trkpt>
      <trkpt lat="43.27605" lon="3.19233">
        <ele>67.151253</ele>
        <time>2023-01-07T14:44:48.103Z</time>
      </trkpt>
      <trkpt lat="43.27604" lon="3.19252">
        <ele>66.820019</ele>
        <time>2023-01-07T14:44:50.093Z</time>
      </trkpt>
      <trkpt lat="43.27603" lon="3.1927">
        <ele>66.48763</ele>
        <time>2023-01-07T14:44:52.109Z</time>
      </trkpt>
      <trkpt lat="43.27602" lon="3.19289">
        <ele>66.152344</ele>
        <time>2023-01-07T14:44:54.097Z</time>
      </trkpt>
      <trkpt lat="43.27603" lon="3.19308">
        <ele>65.819066</ele>
        <time>2023-01-07T14:44:56.101Z</time>
      </trkpt>
      <trkpt lat="43.27602" lon="3.19327">
        <ele>65.47473</ele>
        <time>2023-01-07T14:44:58.098Z</time>
      </trkpt>
      <trkpt lat="43.27601" lon="3.19345">
        <ele>65.151274</ele>
        <time>2023-01-07T14:45:00.104Z</time>
      </trkpt>
      <trkpt lat="43.276" lon="3.19364">
        <ele>64.811737</ele>
        <time>2023-01-07T14:45:02.101Z</time>
      </trkpt>
      <trkpt lat="43.27599" lon="3.19384">
        <ele>64.590634</ele>
        <time>2023-01-07T14:45:04.102Z</time>
      </trkpt>
      <trkpt lat="43.27598" lon="3.19403">
        <ele>64.435941</ele>
        <time>2023-01-07T14:45:06.111Z</time>
      </trkpt>
      <trkpt lat="43.27598" lon="3.19421">
        <ele>64.287751</ele>
        <time>2023-01-07T14:45:08.097Z</time>
      </trkpt>
      <trkpt lat="43.27597" lon="3.19439">
        <ele>64.137691</ele>
        <time>2023-01-07T14:45:10.097Z</time>
      </trkpt>
      <trkpt lat="43.27597" lon="3.19458">
        <ele>63.985513</ele>
        <time>2023-01-07T14:45:12.105Z</time>
      </trkpt>
      <trkpt lat="43.27595" lon="3.19476">
        <ele>63.835783</ele>
        <time>2023-01-07T14:45:14.103Z</time>
      </trkpt>
      <trkpt lat="43.27596" lon="3.19494">
        <ele>63.685242</ele>
        <time>2023-01-07T14:45:16.097Z</time>
      </trkpt>
      <trkpt lat="43.27595" lon="3.19513">
        <ele>63.536235</ele>
        <time>2023-01-07T14:45:18.103Z</time>
      </trkpt>
      <trkpt lat="43.27594" lon="3.1953">
        <ele>63.392621</ele>
        <time>2023-01-07T14:45:20.108Z</time>
      </trkpt>
      <trkpt lat="43.27594" lon="3.19548">
        <ele>63.250225</ele>
        <time>2023-01-07T14:45:22.096Z</time>
      </trkpt>
      <trkpt lat="43.27592" lon="3.19564">
        <ele>63.113506</ele>
        <time>2023-01-07T14:45:24.106Z</time>
      </trkpt>
      <trkpt lat="43.2759" lon="3.1958">
        <ele>62.981093</ele>
        <time>2023-01-07T14:45:26.100Z</time>
      </trkpt>
      <trkpt lat="43.2759" lon="3.19595">
        <ele>62.86164</ele>
        <time>2023-01-07T14:45:28.100Z</time>
      </trkpt>
      <trkpt lat="43.2759" lon="3.19608">
        <ele>62.752822</ele>
        <time>2023-01-07T14:45:30.107Z</time>
      </trkpt>
      <trkpt lat="43.27589" lon="3.19621">
        <ele>62.678844</ele>
        <time>2023-01-07T14:45:32.095Z</time>
      </trkpt>
      <trkpt lat="43.27588" lon="3.19637">
        <ele>62.651198</ele>
        <time>2023-01-07T14:45:35.108Z</time>
      </trkpt>
      <trkpt lat="43.27589" lon="3.19653">
        <ele>62.622489</ele>
        <time>2023-01-07T14:45:38.107Z</time>
      </trkpt>
      <trkpt lat="43.27589" lon="3.19668">
        <ele>62.596154</ele>
        <time>2023-01-07T14:45:41.107Z</time>
      </trkpt>
      <trkpt lat="43.27589" lon="3.19681">
        <ele>62.57269</ele>
        <time>2023-01-07T14:45:44.111Z</time>
      </trkpt>
      <trkpt lat="43.27588" lon="3.19693">
        <ele>62.550416</ele>
        <time>2023-01-07T14:45:47.107Z</time>
      </trkpt>
      <trkpt lat="43.27587" lon="3.19707">
        <ele>62.525868</ele>
        <time>2023-01-07T14:45:50.106Z</time>
      </trkpt>
      <trkpt lat="43.27587" lon="3.19722">
        <ele>62.499213</ele>
        <time>2023-01-07T14:45:53.112Z</time>
      </trkpt>
      <trkpt lat="43.27586" lon="3.19737">
        <ele>62.472473</ele>
        <time>2023-01-07T14:45:56.092Z</time>
      </trkpt>
      <trkpt lat="43.27586" lon="3.19753">
        <ele>62.445073</ele>
        <time>2023-01-07T14:45:59.104Z</time>
      </trkpt>
      <trkpt lat="43.27585" lon="3.19768">
        <ele>62.417886</ele>
        <time>2023-01-07T14:46:02.108Z</time>
      </trkpt>
      <trkpt lat="43.27586" lon="3.19783">
        <ele>62.390515</ele>
        <time>2023-01-07T14:46:05.111Z</time>
      </trkpt>
      <trkpt lat="43.27585" lon="3.19799">
        <ele>62.361901</ele>
        <time>2023-01-07T14:46:08.091Z</time>
      </trkpt>
      <trkpt lat="43.27584" lon="3.19816">
        <ele>62.331885</ele>
        <time>2023-01-07T14:46:11.091Z</time>
      </trkpt>
      <trkpt lat="43.27583" lon="3.19832">
        <ele>62.303332</ele>
        <time>2023-01-07T14:46:14.096Z</time>
      </trkpt>
      <trkpt lat="43.27582" lon="3.19848">
        <ele>62.274602</ele>
        <time>2023-01-07T14:46:17.096Z</time>
      </trkpt>
      <trkpt lat="43.27581" lon="3.19865">
        <ele>62.269534</ele>
        <time>2023-01-07T14:46:20.109Z</time>
      </trkpt>
      <trkpt lat="43.2758" lon="3.19881">
        <ele>62.395961</ele>
        <time>2023-01-07T14:46:23.109Z</time>
      </trkpt>
      <trkpt lat="43.27579" lon="3.19898">
        <ele>62.526742</ele>
        <time>2023-01-07T14:46:26.089Z</time>
      </trkpt>
      <trkpt lat="43.27576" lon="3.19915">
        <ele>62.664878</ele>
        <time>2023-01-07T14:46:29.094Z</time>
      </trkpt>
      <trkpt lat="43.27573" lon="3.19933">
        <ele>62.80272</ele>
        <time>2023-01-07T14:46:32.095Z</time>
      </trkpt>
      <trkpt lat="43.27569" lon="3.1995">
        <ele>62.941134</ele>
        <time>2023-01-07T14:46:35.098Z</time>
      </trkpt>
      <trkpt lat="43.27565" lon="3.19967">
        <ele>63.079977</ele>
        <time>2023-01-07T14:46:38.093Z</time>
      </trkpt>
      <trkpt lat="43.27561" lon="3.19984">
        <ele>63.222091</ele>
        <time>2023-01-07T14:46:41.107Z</time>
      </trkpt>
      <trkpt lat="43.27558" lon="3.19996">
        <ele>63.317343</ele>
        <time>2023-01-07T14:46:43.105Z</time>
      </trkpt>
      <trkpt lat="43.27555" lon="3.20008">
        <ele>63.415866</ele>
        <time>2023-01-07T14:46:45.101Z</time>
      </trkpt>
      <trkpt lat="43.27552" lon="3.2002">
        <ele>63.516886</ele>
        <time>2023-01-07T14:46:47.107Z</time>
      </trkpt>
      <trkpt lat="43.27548" lon="3.20033">
        <ele>63.621178</ele>
        <time>2023-01-07T14:46:49.113Z</time>
      </trkpt>
      <trkpt lat="43.27545" lon="3.20046">
        <ele>63.728865</ele>
        <time>2023-01-07T14:46:51.097Z</time>
      </trkpt>
      <trkpt lat="43.27542" lon="3.2006">
        <ele>63.839003</ele>
        <time>2023-01-07T14:46:53.111Z</time>
      </trkpt>
      <trkpt lat="43.27539" lon="3.20073">
        <ele>63.946691</ele>
        <time>2023-01-07T14:46:55.097Z</time>
      </trkpt>
      <trkpt lat="43.27536" lon="3.20088">
        <ele>64.065177</ele>
        <time>2023-01-07T14:46:57.103Z</time>
      </trkpt>
      <trkpt lat="43.27533" lon="3.20102">
        <ele>64.157243</ele>
        <time>2023-01-07T14:46:59.102Z</time>
      </trkpt>
      <trkpt lat="43.27529" lon="3.20115">
        <ele>64.134531</ele>
        <time>2023-01-07T14:47:01.090Z</time>
      </trkpt>
      <trkpt lat="43.27525" lon="3.20129">
        <ele>64.111606</ele>
        <time>2023-01-07T14:47:03.107Z</time>
      </trkpt>
      <trkpt lat="43.27522" lon="3.20143">
        <ele>64.089812</ele>
        <time>2023-01-07T14:47:05.101Z</time>
      </trkpt>
      <trkpt lat="43.27519" lon="3.20157">
        <ele>64.066811</ele>
        <time>2023-01-07T14:47:07.104Z</time>
      </trkpt>
      <trkpt lat="43.27516" lon="3.2017">
        <ele>64.045434</ele>
        <time>2023-01-07T14:47:09.087Z</time>
      </trkpt>
      <trkpt lat="43.27513" lon="3.20183">
        <ele>64.023885</ele>
        <time>2023-01-07T14:47:11.098Z</time>
      </trkpt>
      <trkpt lat="43.2751" lon="3.20197">
        <ele>64.002152</ele>
        <time>2023-01-07T14:47:13.090Z</time>
      </trkpt>
      <trkpt lat="43.27506" lon="3.2021">
        <ele>63.97988</ele>
        <time>2023-01-07T14:47:15.104Z</time>
      </trkpt>
      <trkpt lat="43.27503" lon="3.20225">
        <ele>63.956156</ele>
        <time>2023-01-07T14:47:17.105Z</time>
      </trkpt>
      <trkpt lat="43.275" lon="3.20239">
        <ele>63.933857</ele>
        <time>2023-01-07T14:47:19.093Z</time>
      </trkpt>
      <trkpt lat="43.27497" lon="3.20253">
        <ele>63.911324</ele>
        <time>2023-01-07T14:47:21.095Z</time>
      </trkpt>
      <trkpt lat="43.27493" lon="3.20267">
        <ele>63.888097</ele>
        <time>2023-01-07T14:47:23.098Z</time>
      </trkpt>
      <trkpt lat="43.2749" lon="3.20281">
        <ele>63.865082</ele>
        <time>2023-01-07T14:47:25.098Z</time>
      </trkpt>
      <trkpt lat="43.27486" lon="3.20295">
        <ele>63.842301</ele>
        <time>2023-01-07T14:47:27.097Z</time>
      </trkpt>
      <trkpt lat="43.27482" lon="3.20309">
        <ele>63.819408</ele>
        <time>2023-01-07T14:47:29.100Z</time>
      </trkpt>
      <trkpt lat="43.27477" lon="3.20322">
        <ele>63.796533</ele>
        <time>2023-01-07T14:47:31.098Z</time>
      </trkpt>
      <trkpt lat="43.27472" lon="3.20334">
        <ele>63.773026</ele>
        <time>2023-01-07T14:47:33.098Z</time>
      </trkpt>
      <trkpt lat="43.27467" lon="3.20347">
        <ele>63.741141</ele>
        <time>2023-01-07T14:47:35.092Z</time>
      </trkpt>
      <trkpt lat="43.27462" lon="3.20359">
        <ele>63.710382</ele>
        <time>2023-01-07T14:47:37.092Z</time>
      </trkpt>
      <trkpt lat="43.27457" lon="3.2037">
        <ele>63.680744</ele>
        <time>2023-01-07T14:47:39.091Z</time>
      </trkpt>
      <trkpt lat="43.27452" lon="3.2038">
        <ele>63.652486</ele>
        <time>2023-01-07T14:47:41.090Z</time>
      </trkpt>
      <trkpt lat="43.27447" lon="3.20392">
        <ele>63.621956</ele>
        <time>2023-01-07T14:47:43.096Z</time>
      </trkpt>
      <trkpt lat="43.27442" lon="3.20403">
        <ele>63.592425</ele>
        <time>2023-01-07T14:47:45.097Z</time>
      </trkpt>
      <trkpt lat="43.27437" lon="3.20415">
        <ele>63.561124</ele>
        <time>2023-01-07T14:47:47.099Z</time>
      </trkpt>
      <trkpt lat="43.27431" lon="3.20427">
        <ele>63.52916</ele>
        <time>2023-01-07T14:47:49.098Z</time>
      </trkpt>
      <trkpt lat="43.27424" lon="3.20443">
        <ele>63.4871</ele>
        <time>2023-01-07T14:47:52.111Z</time>
      </trkpt>
      <trkpt lat="43.27419" lon="3.20455">
        <ele>63.457335</ele>
        <time>2023-01-07T14:47:54.098Z</time>
      </trkpt>
      <trkpt lat="43.27414" lon="3.20465">
        <ele>63.428534</ele>
        <time>2023-01-07T14:47:56.096Z</time>
      </trkpt>
      <trkpt lat="43.27408" lon="3.20476">
        <ele>63.398832</ele>
        <time>2023-01-07T14:47:58.094Z</time>
      </trkpt>
      <trkpt lat="43.27403" lon="3.20487">
        <ele>63.368598</ele>
        <time>2023-01-07T14:48:00.103Z</time>
      </trkpt>
      <trkpt lat="43.27397" lon="3.20503">
        <ele>63.329904</ele>
        <time>2023-01-07T14:48:03.108Z</time>
      </trkpt>
      <trkpt lat="43.27393" lon="3.20515">
        <ele>63.300478</ele>
        <time>2023-01-07T14:48:05.106Z</time>
      </trkpt>
      <trkpt lat="43.27387" lon="3.20532">
        <ele>63.259034</ele>
        <time>2023-01-07T14:48:08.098Z</time>
      </trkpt>
      <trkpt lat="43.27384" lon="3.20544">
        <ele>63.227969</ele>
        <time>2023-01-07T14:48:10.102Z</time>
      </trkpt>
      <trkpt lat="43.2738" lon="3.20558">
        <ele>63.208063</ele>
        <time>2023-01-07T14:48:12.106Z</time>
      </trkpt>
      <trkpt lat="43.27378" lon="3.2057">
        <ele>63.190917</ele>
        <time>2023-01-07T14:48:14.106Z</time>
      </trkpt>
      <trkpt lat="43.27375" lon="3.20583">
        <ele>63.172697</ele>
        <time>2023-01-07T14:48:16.100Z</time>
      </trkpt>
      <trkpt lat="43.27373" lon="3.20595">
        <ele>63.155251</ele>
        <time>2023-01-07T14:48:18.101Z</time>
      </trkpt>
      <trkpt lat="43.27371" lon="3.20609">
        <ele>63.136259</ele>
        <time>2023-01-07T14:48:20.102Z</time>
      </trkpt>
      <trkpt lat="43.27369" lon="3.20622">
        <ele>63.11744</ele>
        <time>2023-01-07T14:48:22.098Z</time>
      </trkpt>
      <trkpt lat="43.27367" lon="3.20636">
        <ele>63.097688</ele>
        <time>2023-01-07T14:48:24.097Z</time>
      </trkpt>
      <trkpt lat="43.27365" lon="3.20649">
        <ele>63.079951</ele>
        <time>2023-01-07T14:48:26.107Z</time>
      </trkpt>
      <trkpt lat="43.27363" lon="3.20663">
        <ele>63.061543</ele>
        <time>2023-01-07T14:48:28.110Z</time>
      </trkpt>
      <trkpt lat="43.27361" lon="3.20675">
        <ele>63.043788</ele>
        <time>2023-01-07T14:48:30.107Z</time>
      </trkpt>
      <trkpt lat="43.27359" lon="3.20688">
        <ele>63.026621</ele>
        <time>2023-01-07T14:48:32.093Z</time>
      </trkpt>
      <trkpt lat="43.27356" lon="3.20705">
        <ele>63.001796</ele>
        <time>2023-01-07T14:48:35.097Z</time>
      </trkpt>
      <trkpt lat="43.27354" lon="3.20718">
        <ele>62.984707</ele>
        <time>2023-01-07T14:48:37.092Z</time>
      </trkpt>
      <trkpt lat="43.27352" lon="3.2073">
        <ele>62.967659</ele>
        <time>2023-01-07T14:48:39.088Z</time>
      </trkpt>
      <trkpt lat="43.27351" lon="3.20743">
        <ele>62.950014</ele>
        <time>2023-01-07T14:48:41.107Z</time>
      </trkpt>
      <trkpt lat="43.27349" lon="3.20756">
        <ele>62.931907</ele>
        <time>2023-01-07T14:48:43.094Z</time>
      </trkpt>
      <trkpt lat="43.27347" lon="3.20768">
        <ele>62.915032</ele>
        <time>2023-01-07T14:48:45.097Z</time>
      </trkpt>
      <trkpt lat="43.27345" lon="3.20786">
        <ele>62.889778</ele>
        <time>2023-01-07T14:48:48.083Z</time>
      </trkpt>
      <trkpt lat="43.27344" lon="3.20799">
        <ele>62.81203</ele>
        <time>2023-01-07T14:48:50.088Z</time>
      </trkpt>
      <trkpt lat="43.27341" lon="3.20811">
        <ele>62.730563</ele>
        <time>2023-01-07T14:48:52.092Z</time>
      </trkpt>
      <trkpt lat="43.27339" lon="3.20824">
        <ele>62.6494</ele>
        <time>2023-01-07T14:48:54.088Z</time>
      </trkpt>
      <trkpt lat="43.27337" lon="3.20836">
        <ele>62.567834</ele>
        <time>2023-01-07T14:48:56.098Z</time>
      </trkpt>
      <trkpt lat="43.27334" lon="3.2085">
        <ele>62.479791</ele>
        <time>2023-01-07T14:48:58.092Z</time>
      </trkpt>
      <trkpt lat="43.27332" lon="3.20865">
        <ele>62.386485</ele>
        <time>2023-01-07T14:49:00.115Z</time>
      </trkpt>
      <trkpt lat="43.27328" lon="3.20878">
        <ele>62.298192</ele>
        <time>2023-01-07T14:49:02.095Z</time>
      </trkpt>
      <trkpt lat="43.27324" lon="3.2089">
        <ele>62.213304</ele>
        <time>2023-01-07T14:49:04.089Z</time>
      </trkpt>
      <trkpt lat="43.27319" lon="3.20903">
        <ele>62.124319</ele>
        <time>2023-01-07T14:49:06.103Z</time>
      </trkpt>
      <trkpt lat="43.27313" lon="3.20914">
        <ele>62.036707</ele>
        <time>2023-01-07T14:49:08.086Z</time>
      </trkpt>
      <trkpt lat="43.27308" lon="3.20927">
        <ele>61.94705</ele>
        <time>2023-01-07T14:49:10.088Z</time>
      </trkpt>
      <trkpt lat="43.27302" lon="3.20939">
        <ele>61.854895</ele>
        <time>2023-01-07T14:49:12.085Z</time>
      </trkpt>
      <trkpt lat="43.27296" lon="3.20951">
        <ele>61.764422</ele>
        <time>2023-01-07T14:49:14.090Z</time>
      </trkpt>
      <trkpt lat="43.2729" lon="3.20963">
        <ele>61.672485</ele>
        <time>2023-01-07T14:49:16.089Z</time>
      </trkpt>
      <trkpt lat="43.27283" lon="3.20974">
        <ele>61.579858</ele>
        <time>2023-01-07T14:49:18.094Z</time>
      </trkpt>
      <trkpt lat="43.27276" lon="3.20987">
        <ele>61.479287</ele>
        <time>2023-01-07T14:49:20.091Z</time>
      </trkpt>
      <trkpt lat="43.27268" lon="3.21">
        <ele>61.378082</ele>
        <time>2023-01-07T14:49:22.091Z</time>
      </trkpt>
      <trkpt lat="43.27261" lon="3.21012">
        <ele>61.241966</ele>
        <time>2023-01-07T14:49:24.129Z</time>
      </trkpt>
      <trkpt lat="43.27254" lon="3.21025">
        <ele>61.08839</ele>
        <time>2023-01-07T14:49:26.090Z</time>
      </trkpt>
      <trkpt lat="43.27246" lon="3.21037">
        <ele>60.926804</ele>
        <time>2023-01-07T14:49:28.083Z</time>
      </trkpt>
      <trkpt lat="43.27239" lon="3.2105">
        <ele>60.770265</ele>
        <time>2023-01-07T14:49:30.091Z</time>
      </trkpt>
      <trkpt lat="43.27231" lon="3.21063">
        <ele>60.604725</ele>
        <time>2023-01-07T14:49:32.088Z</time>
      </trkpt>
      <trkpt lat="43.27223" lon="3.21076">
        <ele>60.444743</ele>
        <time>2023-01-07T14:49:34.093Z</time>
      </trkpt>
      <trkpt lat="43.27216" lon="3.21089">
        <ele>60.281761</ele>
        <time>2023-01-07T14:49:36.085Z</time>
      </trkpt>
      <trkpt lat="43.27208" lon="3.21101">
        <ele>60.124397</ele>
        <time>2023-01-07T14:49:38.094Z</time>
      </trkpt>
      <trkpt lat="43.27202" lon="3.21112">
        <ele>59.982453</ele>
        <time>2023-01-07T14:49:40.097Z</time>
      </trkpt>
      <trkpt lat="43.27195" lon="3.21124">
        <ele>59.832911</ele>
        <time>2023-01-07T14:49:42.090Z</time>
      </trkpt>
      <trkpt lat="43.27188" lon="3.21136">
        <ele>59.687986</ele>
        <time>2023-01-07T14:49:44.091Z</time>
      </trkpt>
      <trkpt lat="43.27181" lon="3.21147">
        <ele>59.54678</ele>
        <time>2023-01-07T14:49:46.090Z</time>
      </trkpt>
      <trkpt lat="43.27174" lon="3.21159">
        <ele>59.397794</ele>
        <time>2023-01-07T14:49:48.092Z</time>
      </trkpt>
      <trkpt lat="43.27166" lon="3.21171">
        <ele>59.241112</ele>
        <time>2023-01-07T14:49:50.086Z</time>
      </trkpt>
      <trkpt lat="43.27159" lon="3.21184">
        <ele>59.075918</ele>
        <time>2023-01-07T14:49:52.096Z</time>
      </trkpt>
      <trkpt lat="43.27151" lon="3.21198">
        <ele>58.891881</ele>
        <time>2023-01-07T14:49:54.087Z</time>
      </trkpt>
      <trkpt lat="43.27144" lon="3.21211">
        <ele>58.627622</ele>
        <time>2023-01-07T14:49:56.090Z</time>
      </trkpt>
      <trkpt lat="43.27138" lon="3.21225">
        <ele>58.354731</ele>
        <time>2023-01-07T14:49:58.087Z</time>
      </trkpt>
      <trkpt lat="43.27133" lon="3.21238">
        <ele>58.099487</ele>
        <time>2023-01-07T14:50:00.100Z</time>
      </trkpt>
      <trkpt lat="43.27127" lon="3.21253">
        <ele>57.823315</ele>
        <time>2023-01-07T14:50:02.154Z</time>
      </trkpt>
      <trkpt lat="43.27123" lon="3.21267">
        <ele>57.560867</ele>
        <time>2023-01-07T14:50:04.085Z</time>
      </trkpt>
      <trkpt lat="43.27118" lon="3.21283">
        <ele>57.291099</ele>
        <time>2023-01-07T14:50:06.094Z</time>
      </trkpt>
      <trkpt lat="43.27114" lon="3.21297">
        <ele>57.027129</ele>
        <time>2023-01-07T14:50:08.087Z</time>
      </trkpt>
      <trkpt lat="43.2711" lon="3.21313">
        <ele>56.755047</ele>
        <time>2023-01-07T14:50:10.099Z</time>
      </trkpt>
      <trkpt lat="43.27106" lon="3.21328">
        <ele>56.485958</ele>
        <time>2023-01-07T14:50:12.088Z</time>
      </trkpt>
      <trkpt lat="43.27102" lon="3.21342">
        <ele>56.234862</ele>
        <time>2023-01-07T14:50:14.088Z</time>
      </trkpt>
      <trkpt lat="43.27098" lon="3.21356">
        <ele>55.987726</ele>
        <time>2023-01-07T14:50:16.087Z</time>
      </trkpt>
      <trkpt lat="43.27094" lon="3.21371">
        <ele>55.720231</ele>
        <time>2023-01-07T14:50:18.087Z</time>
      </trkpt>
      <trkpt lat="43.27091" lon="3.21385">
        <ele>55.474243</ele>
        <time>2023-01-07T14:50:20.094Z</time>
      </trkpt>
      <trkpt lat="43.27087" lon="3.21399">
        <ele>55.229995</ele>
        <time>2023-01-07T14:50:22.091Z</time>
      </trkpt>
      <trkpt lat="43.27084" lon="3.21412">
        <ele>55.009811</ele>
        <time>2023-01-07T14:50:24.112Z</time>
      </trkpt>
      <trkpt lat="43.2708" lon="3.21425">
        <ele>54.774997</ele>
        <time>2023-01-07T14:50:26.089Z</time>
      </trkpt>
      <trkpt lat="43.27077" lon="3.21438">
        <ele>54.550708</ele>
        <time>2023-01-07T14:50:28.090Z</time>
      </trkpt>
      <trkpt lat="43.27074" lon="3.2145">
        <ele>54.33905</ele>
        <time>2023-01-07T14:50:30.090Z</time>
      </trkpt>
      <trkpt lat="43.27071" lon="3.21462">
        <ele>54.122736</ele>
        <time>2023-01-07T14:50:32.103Z</time>
      </trkpt>
      <trkpt lat="43.27068" lon="3.21475">
        <ele>53.901579</ele>
        <time>2023-01-07T14:50:34.099Z</time>
      </trkpt>
      <trkpt lat="43.27064" lon="3.21488">
        <ele>53.675305</ele>
        <time>2023-01-07T14:50:36.095Z</time>
      </trkpt>
      <trkpt lat="43.27061" lon="3.21503">
        <ele>53.427451</ele>
        <time>2023-01-07T14:50:38.091Z</time>
      </trkpt>
      <trkpt lat="43.27057" lon="3.21516">
        <ele>53.189514</ele>
        <time>2023-01-07T14:50:40.093Z</time>
      </trkpt>
      <trkpt lat="43.27053" lon="3.21531">
        <ele>52.935406</ele>
        <time>2023-01-07T14:50:42.083Z</time>
      </trkpt>
      <trkpt lat="43.27049" lon="3.21545">
        <ele>52.679873</ele>
        <time>2023-01-07T14:50:44.089Z</time>
      </trkpt>
      <trkpt lat="43.27045" lon="3.2156">
        <ele>52.422045</ele>
        <time>2023-01-07T14:50:46.096Z</time>
      </trkpt>
      <trkpt lat="43.27042" lon="3.21574">
        <ele>52.190164</ele>
        <time>2023-01-07T14:50:48.104Z</time>
      </trkpt>
      <trkpt lat="43.27038" lon="3.21589">
        <ele>51.93077</ele>
        <time>2023-01-07T14:50:50.101Z</time>
      </trkpt>
      <trkpt lat="43.27034" lon="3.21603">
        <ele>51.679014</ele>
        <time>2023-01-07T14:50:52.098Z</time>
      </trkpt>
      <trkpt lat="43.2703" lon="3.21617">
        <ele>51.430414</ele>
        <time>2023-01-07T14:50:54.101Z</time>
      </trkpt>
      <trkpt lat="43.27026" lon="3.21631">
        <ele>51.184743</ele>
        <time>2023-01-07T14:50:56.090Z</time>
      </trkpt>
      <trkpt lat="43.27022" lon="3.21646">
        <ele>50.928454</ele>
        <time>2023-01-07T14:50:58.083Z</time>
      </trkpt>
      <trkpt lat="43.27018" lon="3.2166">
        <ele>50.80699</ele>
        <time>2023-01-07T14:51:00.094Z</time>
      </trkpt>
      <trkpt lat="43.27014" lon="3.21673">
        <ele>50.824879</ele>
        <time>2023-01-07T14:51:02.098Z</time>
      </trkpt>
      <trkpt lat="43.27008" lon="3.21685">
        <ele>50.842487</ele>
        <time>2023-01-07T14:51:04.097Z</time>
      </trkpt>
      <trkpt lat="43.27003" lon="3.21696">
        <ele>50.859285</ele>
        <time>2023-01-07T14:51:06.092Z</time>
      </trkpt>
      <trkpt lat="43.26999" lon="3.21709">
        <ele>50.875876</ele>
        <time>2023-01-07T14:51:08.099Z</time>
      </trkpt>
      <trkpt lat="43.26998" lon="3.21723">
        <ele>50.893623</ele>
        <time>2023-01-07T14:51:10.093Z</time>
      </trkpt>
      <trkpt lat="43.26997" lon="3.21737">
        <ele>50.910894</ele>
        <time>2023-01-07T14:51:12.092Z</time>
      </trkpt>
      <trkpt lat="43.26994" lon="3.2175">
        <ele>50.927842</ele>
        <time>2023-01-07T14:51:14.095Z</time>
      </trkpt>
      <trkpt lat="43.26991" lon="3.21763">
        <ele>50.944523</ele>
        <time>2023-01-07T14:51:16.091Z</time>
      </trkpt>
      <trkpt lat="43.26988" lon="3.21776">
        <ele>50.96154</ele>
        <time>2023-01-07T14:51:18.094Z</time>
      </trkpt>
      <trkpt lat="43.26984" lon="3.21789">
        <ele>50.97918</ele>
        <time>2023-01-07T14:51:20.094Z</time>
      </trkpt>
      <trkpt lat="43.2698" lon="3.21802">
        <ele>50.996424</ele>
        <time>2023-01-07T14:51:22.089Z</time>
      </trkpt>
      <trkpt lat="43.26977" lon="3.21815">
        <ele>51.013361</ele>
        <time>2023-01-07T14:51:24.089Z</time>
      </trkpt>
      <trkpt lat="43.26973" lon="3.21829">
        <ele>51.032455</ele>
        <time>2023-01-07T14:51:26.090Z</time>
      </trkpt>
      <trkpt lat="43.2697" lon="3.21842">
        <ele>51.049276</ele>
        <time>2023-01-07T14:51:28.090Z</time>
      </trkpt>
      <trkpt lat="43.26966" lon="3.21856">
        <ele>51.067617</ele>
        <time>2023-01-07T14:51:30.107Z</time>
      </trkpt>
      <trkpt lat="43.26964" lon="3.21868">
        <ele>51.084132</ele>
        <time>2023-01-07T14:51:32.111Z</time>
      </trkpt>
      <trkpt lat="43.26961" lon="3.2188">
        <ele>51.09961</ele>
        <time>2023-01-07T14:51:34.085Z</time>
      </trkpt>
      <trkpt lat="43.26958" lon="3.21892">
        <ele>50.951565</ele>
        <time>2023-01-07T14:51:36.086Z</time>
      </trkpt>
      <trkpt lat="43.26954" lon="3.21908">
        <ele>50.66622</ele>
        <time>2023-01-07T14:51:39.107Z</time>
      </trkpt>
      <trkpt lat="43.26949" lon="3.21924">
        <ele>50.372631</ele>
        <time>2023-01-07T14:51:42.088Z</time>
      </trkpt>
      <trkpt lat="43.26945" lon="3.21941">
        <ele>50.064351</ele>
        <time>2023-01-07T14:51:45.103Z</time>
      </trkpt>
      <trkpt lat="43.26943" lon="3.21953">
        <ele>49.847554</ele>
        <time>2023-01-07T14:51:47.098Z</time>
      </trkpt>
      <trkpt lat="43.2694" lon="3.21965">
        <ele>49.618855</ele>
        <time>2023-01-07T14:51:49.113Z</time>
      </trkpt>
      <trkpt lat="43.26937" lon="3.21983">
        <ele>49.30655</ele>
        <time>2023-01-07T14:51:52.100Z</time>
      </trkpt>
      <trkpt lat="43.26935" lon="3.21995">
        <ele>49.091841</ele>
        <time>2023-01-07T14:51:54.104Z</time>
      </trkpt>
      <trkpt lat="43.26932" lon="3.22013">
        <ele>48.773247</ele>
        <time>2023-01-07T14:51:57.106Z</time>
      </trkpt>
      <trkpt lat="43.2693" lon="3.22025">
        <ele>48.549169</ele>
        <time>2023-01-07T14:51:59.098Z</time>
      </trkpt>
      <trkpt lat="43.26927" lon="3.22043">
        <ele>48.23831</ele>
        <time>2023-01-07T14:52:02.087Z</time>
      </trkpt>
      <trkpt lat="43.26923" lon="3.22059">
        <ele>47.938568</ele>
        <time>2023-01-07T14:52:05.098Z</time>
      </trkpt>
      <trkpt lat="43.26921" lon="3.22075">
        <ele>47.656577</ele>
        <time>2023-01-07T14:52:08.090Z</time>
      </trkpt>
      <trkpt lat="43.26918" lon="3.22089">
        <ele>47.405249</ele>
        <time>2023-01-07T14:52:11.088Z</time>
      </trkpt>
      <trkpt lat="43.26914" lon="3.22102">
        <ele>47.167903</ele>
        <time>2023-01-07T14:52:14.091Z</time>
      </trkpt>
      <trkpt lat="43.26908" lon="3.22114">
        <ele>46.916891</ele>
        <time>2023-01-07T14:52:17.100Z</time>
      </trkpt>
      <trkpt lat="43.269" lon="3.22125">
        <ele>46.87908</ele>
        <time>2023-01-07T14:52:20.085Z</time>
      </trkpt>
      <trkpt lat="43.26893" lon="3.22136">
        <ele>46.968209</ele>
        <time>2023-01-07T14:52:23.097Z</time>
      </trkpt>
      <trkpt lat="43.26889" lon="3.2215">
        <ele>47.053865</ele>
        <time>2023-01-07T14:52:26.086Z</time>
      </trkpt>
      <trkpt lat="43.26888" lon="3.22165">
        <ele>47.142731</ele>
        <time>2023-01-07T14:52:29.115Z</time>
      </trkpt>
      <trkpt lat="43.2689" lon="3.22179">
        <ele>47.226775</ele>
        <time>2023-01-07T14:52:32.085Z</time>
      </trkpt>
      <trkpt lat="43.26893" lon="3.22191">
        <ele>47.302181</ele>
        <time>2023-01-07T14:52:35.098Z</time>
      </trkpt>
      <trkpt lat="43.26898" lon="3.22204">
        <ele>47.387002</ele>
        <time>2023-01-07T14:52:38.087Z</time>
      </trkpt>
      <trkpt lat="43.26904" lon="3.22218">
        <ele>47.478702</ele>
        <time>2023-01-07T14:52:41.098Z</time>
      </trkpt>
      <trkpt lat="43.26909" lon="3.22232">
        <ele>47.574817</ele>
        <time>2023-01-07T14:52:44.094Z</time>
      </trkpt>
      <trkpt lat="43.26915" lon="3.22244">
        <ele>47.660138</ele>
        <time>2023-01-07T14:52:47.093Z</time>
      </trkpt>
      <trkpt lat="43.2692" lon="3.22256">
        <ele>47.735694</ele>
        <time>2023-01-07T14:52:50.103Z</time>
      </trkpt>
      <trkpt lat="43.26924" lon="3.22268">
        <ele>47.816899</ele>
        <time>2023-01-07T14:52:54.095Z</time>
      </trkpt>
      <trkpt lat="43.26928" lon="3.2228">
        <ele>47.892934</ele>
        <time>2023-01-07T14:52:58.104Z</time>
      </trkpt>
      <trkpt lat="43.2693" lon="3.22292">
        <ele>47.965992</ele>
        <time>2023-01-07T14:53:02.095Z</time>
      </trkpt>
      <trkpt lat="43.26929" lon="3.22304">
        <ele>48.039631</ele>
        <time>2023-01-07T14:53:06.088Z</time>
      </trkpt>
      <trkpt lat="43.26928" lon="3.22319">
        <ele>48.124235</ele>
        <time>2023-01-07T14:53:10.098Z</time>
      </trkpt>
      <trkpt lat="43.26924" lon="3.22333">
        <ele>48.210627</ele>
        <time>2023-01-07T14:53:14.088Z</time>
      </trkpt>
      <trkpt lat="43.26919" lon="3.22344">
        <ele>48.339956</ele>
        <time>2023-01-07T14:53:18.097Z</time>
      </trkpt>
      <trkpt lat="43.26912" lon="3.22352">
        <ele>48.665827</ele>
        <time>2023-01-07T14:53:22.101Z</time>
      </trkpt>
      <trkpt lat="43.26903" lon="3.22359">
        <ele>49.007621</ele>
        <time>2023-01-07T14:53:26.084Z</time>
      </trkpt>
      <trkpt lat="43.2688" lon="3.22375">
        <ele>49.847515</ele>
        <time>2023-01-07T14:55:06.187Z</time>
      </trkpt>
      <trkpt lat="43.26876" lon="3.22392">
        <ele>50.279768</ele>
        <time>2023-01-07T14:55:09.089Z</time>
      </trkpt>
      <trkpt lat="43.26869" lon="3.22401">
        <ele>50.59444</ele>
        <time>2023-01-07T14:55:12.093Z</time>
      </trkpt>
      <trkpt lat="43.26863" lon="3.22411">
        <ele>50.906561</ele>
        <time>2023-01-07T14:55:17.107Z</time>
      </trkpt>
      <trkpt lat="43.26856" lon="3.22423">
        <ele>51.293777</ele>
        <time>2023-01-07T14:55:22.089Z</time>
      </trkpt>
      <trkpt lat="43.26855" lon="3.22436">
        <ele>51.617471</ele>
        <time>2023-01-07T14:55:26.095Z</time>
      </trkpt>
      <trkpt lat="43.26858" lon="3.22448">
        <ele>51.923485</ele>
        <time>2023-01-07T14:55:31.087Z</time>
      </trkpt>
      <trkpt lat="43.26863" lon="3.2246">
        <ele>52.2603</ele>
        <time>2023-01-07T14:55:36.106Z</time>
      </trkpt>
      <trkpt lat="43.26867" lon="3.22473">
        <ele>52.59751</ele>
        <time>2023-01-07T14:55:42.089Z</time>
      </trkpt>
      <trkpt lat="43.26872" lon="3.22484">
        <ele>52.910646</ele>
        <time>2023-01-07T14:55:47.103Z</time>
      </trkpt>
      <trkpt lat="43.26877" lon="3.22494">
        <ele>53.215642</ele>
        <time>2023-01-07T14:55:53.102Z</time>
      </trkpt>
      <trkpt lat="43.26882" lon="3.22506">
        <ele>53.546917</ele>
        <time>2023-01-07T14:55:59.092Z</time>
      </trkpt>
      <trkpt lat="43.26887" lon="3.22517">
        <ele>53.867818</ele>
        <time>2023-01-07T14:56:05.093Z</time>
      </trkpt>
      <trkpt lat="43.2689" lon="3.2253">
        <ele>54.176974</ele>
        <time>2023-01-07T14:56:11.099Z</time>
      </trkpt>
      <trkpt lat="43.26893" lon="3.22543">
        <ele>54.864006</ele>
        <time>2023-01-07T14:56:18.091Z</time>
      </trkpt>
      <trkpt lat="43.26899" lon="3.22554">
        <ele>55.604507</ele>
        <time>2023-01-07T14:56:24.093Z</time>
      </trkpt>
      <trkpt lat="43.26903" lon="3.22566">
        <ele>56.33158</ele>
        <time>2023-01-07T14:56:30.095Z</time>
      </trkpt>
      <trkpt lat="43.26907" lon="3.22579">
        <ele>57.103986</ele>
        <time>2023-01-07T14:56:37.110Z</time>
      </trkpt>
      <trkpt lat="43.26912" lon="3.22591">
        <ele>57.854248</ele>
        <time>2023-01-07T14:56:43.094Z</time>
      </trkpt>
      <trkpt lat="43.26915" lon="3.22604">
        <ele>58.61782</ele>
        <time>2023-01-07T14:56:49.096Z</time>
      </trkpt>
      <trkpt lat="43.26919" lon="3.22616">
        <ele>59.348072</ele>
        <time>2023-01-07T14:56:55.091Z</time>
      </trkpt>
      <trkpt lat="43.26925" lon="3.22628">
        <ele>60.119421</ele>
        <time>2023-01-07T14:57:01.095Z</time>
      </trkpt>
      <trkpt lat="43.26928" lon="3.2264">
        <ele>60.859699</ele>
        <time>2023-01-07T14:57:08.097Z</time>
      </trkpt>
      <trkpt lat="43.26932" lon="3.22653">
        <ele>61.600245</ele>
        <time>2023-01-07T14:57:15.090Z</time>
      </trkpt>
      <trkpt lat="43.26934" lon="3.22665">
        <ele>62.31113</ele>
        <time>2023-01-07T14:57:33.094Z</time>
      </trkpt>
      <trkpt lat="43.26938" lon="3.22677">
        <ele>63.032032</ele>
        <time>2023-01-07T14:57:50.105Z</time>
      </trkpt>
      <trkpt lat="43.2694" lon="3.2269">
        <ele>63.74083</ele>
        <time>2023-01-07T14:58:06.102Z</time>
      </trkpt>
      <trkpt lat="43.26939" lon="3.22703">
        <ele>64.474513</ele>
        <time>2023-01-07T14:58:37.101Z</time>
      </trkpt>
      <trkpt lat="43.26943" lon="3.22716">
        <ele>65.2106</ele>
        <time>2023-01-07T14:58:42.106Z</time>
      </trkpt>
      <trkpt lat="43.26943" lon="3.2273">
        <ele>65.982464</ele>
        <time>2023-01-07T14:58:47.089Z</time>
      </trkpt>
      <trkpt lat="43.26943" lon="3.22744">
        <ele>66.794556</ele>
        <time>2023-01-07T14:58:52.087Z</time>
      </trkpt>
      <trkpt lat="43.26941" lon="3.22757">
        <ele>67.500075</ele>
        <time>2023-01-07T14:58:57.094Z</time>
      </trkpt>
      <trkpt lat="43.2694" lon="3.22769">
        <ele>68.112009</ele>
        <time>2023-01-07T14:59:02.091Z</time>
      </trkpt>
      <trkpt lat="43.26939" lon="3.22783">
        <ele>68.715841</ele>
        <time>2023-01-07T14:59:08.102Z</time>
      </trkpt>
      <trkpt lat="43.26938" lon="3.22797">
        <ele>69.294593</ele>
        <time>2023-01-07T14:59:14.089Z</time>
      </trkpt>
      <trkpt lat="43.26936" lon="3.2281">
        <ele>69.873222</ele>
        <time>2023-01-07T14:59:20.095Z</time>
      </trkpt>
      <trkpt lat="43.26933" lon="3.22823">
        <ele>70.445719</ele>
        <time>2023-01-07T14:59:26.095Z</time>
      </trkpt>
      <trkpt lat="43.26929" lon="3.22835">
        <ele>71.03153</ele>
        <time>2023-01-07T14:59:32.107Z</time>
      </trkpt>
      <trkpt lat="43.26923" lon="3.22847">
        <ele>71.652447</ele>
        <time>2023-01-07T14:59:39.087Z</time>
      </trkpt>
      <trkpt lat="43.26923" lon="3.2286">
        <ele>72.205804</ele>
        <time>2023-01-07T14:59:44.109Z</time>
      </trkpt>
      <trkpt lat="43.26931" lon="3.22867">
        <ele>72.773411</ele>
        <time>2023-01-07T14:59:48.109Z</time>
      </trkpt>
      <trkpt lat="43.26938" lon="3.22876">
        <ele>73.333223</ele>
        <time>2023-01-07T14:59:52.097Z</time>
      </trkpt>
      <trkpt lat="43.26942" lon="3.2289">
        <ele>73.973225</ele>
        <time>2023-01-07T14:59:56.110Z</time>
      </trkpt>
      <trkpt lat="43.26942" lon="3.22903">
        <ele>74.505973</ele>
        <time>2023-01-07T14:59:59.103Z</time>
      </trkpt>
      <trkpt lat="43.26943" lon="3.22916">
        <ele>75.090931</ele>
        <time>2023-01-07T15:00:02.084Z</time>
      </trkpt>
      <trkpt lat="43.26944" lon="3.2293">
        <ele>75.675385</ele>
        <time>2023-01-07T15:00:05.083Z</time>
      </trkpt>
      <trkpt lat="43.26945" lon="3.22945">
        <ele>76.325423</ele>
        <time>2023-01-07T15:00:08.106Z</time>
      </trkpt>
      <trkpt lat="43.26946" lon="3.22961">
        <ele>77.012019</ele>
        <time>2023-01-07T15:00:11.090Z</time>
      </trkpt>
      <trkpt lat="43.26947" lon="3.22977">
        <ele>77.716972</ele>
        <time>2023-01-07T15:00:14.110Z</time>
      </trkpt>
      <trkpt lat="43.26948" lon="3.22993">
        <ele>78.391563</ele>
        <time>2023-01-07T15:00:17.109Z</time>
      </trkpt>
      <trkpt lat="43.26949" lon="3.2301">
        <ele>78.020925</ele>
        <time>2023-01-07T15:00:20.099Z</time>
      </trkpt>
      <trkpt lat="43.2695" lon="3.23026">
        <ele>77.585341</ele>
        <time>2023-01-07T15:00:23.094Z</time>
      </trkpt>
      <trkpt lat="43.26952" lon="3.23043">
        <ele>77.124203</ele>
        <time>2023-01-07T15:00:26.100Z</time>
      </trkpt>
      <trkpt lat="43.26953" lon="3.2306">
        <ele>76.658197</ele>
        <time>2023-01-07T15:00:29.106Z</time>
      </trkpt>
      <trkpt lat="43.26956" lon="3.23077">
        <ele>76.186798</ele>
        <time>2023-01-07T15:00:32.088Z</time>
      </trkpt>
      <trkpt lat="43.26957" lon="3.23094">
        <ele>75.708552</ele>
        <time>2023-01-07T15:00:35.103Z</time>
      </trkpt>
      <trkpt lat="43.26959" lon="3.23112">
        <ele>75.232414</ele>
        <time>2023-01-07T15:00:38.097Z</time>
      </trkpt>
      <trkpt lat="43.26963" lon="3.23128">
        <ele>74.77512</ele>
        <time>2023-01-07T15:00:41.115Z</time>
      </trkpt>
      <trkpt lat="43.26965" lon="3.23144">
        <ele>74.347551</ele>
        <time>2023-01-07T15:00:44.105Z</time>
      </trkpt>
      <trkpt lat="43.26966" lon="3.23157">
        <ele>73.971435</ele>
        <time>2023-01-07T15:00:47.088Z</time>
      </trkpt>
      <trkpt lat="43.26968" lon="3.2317">
        <ele>73.62469</ele>
        <time>2023-01-07T15:00:50.099Z</time>
      </trkpt>
      <trkpt lat="43.2697" lon="3.23183">
        <ele>73.253725</ele>
        <time>2023-01-07T15:00:53.108Z</time>
      </trkpt>
      <trkpt lat="43.26972" lon="3.23198">
        <ele>72.850813</ele>
        <time>2023-01-07T15:00:56.096Z</time>
      </trkpt>
      <trkpt lat="43.26974" lon="3.23214">
        <ele>72.418551</ele>
        <time>2023-01-07T15:00:59.104Z</time>
      </trkpt>
      <trkpt lat="43.26975" lon="3.2323">
        <ele>71.969103</ele>
        <time>2023-01-07T15:01:02.091Z</time>
      </trkpt>
      <trkpt lat="43.26975" lon="3.23247">
        <ele>71.837566</ele>
        <time>2023-01-07T15:01:05.092Z</time>
      </trkpt>
      <trkpt lat="43.26973" lon="3.23261">
        <ele>71.955886</ele>
        <time>2023-01-07T15:01:09.093Z</time>
      </trkpt>
      <trkpt lat="43.26973" lon="3.23274">
        <ele>72.070951</ele>
        <time>2023-01-07T15:01:12.092Z</time>
      </trkpt>
      <trkpt lat="43.26977" lon="3.23288">
        <ele>72.193506</ele>
        <time>2023-01-07T15:01:15.102Z</time>
      </trkpt>
      <trkpt lat="43.26987" lon="3.23293">
        <ele>72.317354</ele>
        <time>2023-01-07T15:01:18.099Z</time>
      </trkpt>
      <trkpt lat="43.26996" lon="3.23289">
        <ele>72.424144</ele>
        <time>2023-01-07T15:01:21.091Z</time>
      </trkpt>
      <trkpt lat="43.27002" lon="3.23277">
        <ele>72.543083</ele>
        <time>2023-01-07T15:01:25.100Z</time>
      </trkpt>
      <trkpt lat="43.27" lon="3.2329">
        <ele>72.652928</ele>
        <time>2023-01-07T15:01:35.106Z</time>
      </trkpt>
      <trkpt lat="43.26994" lon="3.23302">
        <ele>72.770134</ele>
        <time>2023-01-07T15:01:39.106Z</time>
      </trkpt>
      <trkpt lat="43.26992" lon="3.23315">
        <ele>72.885735</ele>
        <time>2023-01-07T15:01:43.097Z</time>
      </trkpt>
      <trkpt lat="43.26991" lon="3.23329">
        <ele>73.001697</ele>
        <time>2023-01-07T15:01:46.095Z</time>
      </trkpt>
      <trkpt lat="43.26994" lon="3.23345">
        <ele>73.138969</ele>
        <time>2023-01-07T15:01:49.092Z</time>
      </trkpt>
      <trkpt lat="43.26995" lon="3.23361">
        <ele>73.279009</ele>
        <time>2023-01-07T15:01:52.107Z</time>
      </trkpt>
      <trkpt lat="43.26997" lon="3.23378">
        <ele>73.42028</ele>
        <time>2023-01-07T15:01:55.105Z</time>
      </trkpt>
      <trkpt lat="43.26998" lon="3.23395">
        <ele>73.563367</ele>
        <time>2023-01-07T15:01:58.087Z</time>
      </trkpt>
      <trkpt lat="43.27" lon="3.2341">
        <ele>73.699059</ele>
        <time>2023-01-07T15:02:01.098Z</time>
      </trkpt>
      <trkpt lat="43.27001" lon="3.23423">
        <ele>73.806484</ele>
        <time>2023-01-07T15:02:04.103Z</time>
      </trkpt>
      <trkpt lat="43.27002" lon="3.23438">
        <ele>73.850663</ele>
        <time>2023-01-07T15:02:08.104Z</time>
      </trkpt>
      <trkpt lat="43.27004" lon="3.23453">
        <ele>73.851465</ele>
        <time>2023-01-07T15:02:12.088Z</time>
      </trkpt>
      <trkpt lat="43.27009" lon="3.23464">
        <ele>73.852194</ele>
        <time>2023-01-07T15:02:15.093Z</time>
      </trkpt>
      <trkpt lat="43.27019" lon="3.23473">
        <ele>73.853084</ele>
        <time>2023-01-07T15:02:18.091Z</time>
      </trkpt>
      <trkpt lat="43.27028" lon="3.23485">
        <ele>73.854034</ele>
        <time>2023-01-07T15:02:21.087Z</time>
      </trkpt>
      <trkpt lat="43.27036" lon="3.23497">
        <ele>73.854943</ele>
        <time>2023-01-07T15:02:24.099Z</time>
      </trkpt>
      <trkpt lat="43.27043" lon="3.23509">
        <ele>73.855762</ele>
        <time>2023-01-07T15:02:27.097Z</time>
      </trkpt>
      <trkpt lat="43.27047" lon="3.23521">
        <ele>73.856439</ele>
        <time>2023-01-07T15:02:30.091Z</time>
      </trkpt>
      <trkpt lat="43.2705" lon="3.23534">
        <ele>73.857167</ele>
        <time>2023-01-07T15:02:34.105Z</time>
      </trkpt>
      <trkpt lat="43.27055" lon="3.23547">
        <ele>73.857969</ele>
        <time>2023-01-07T15:02:38.096Z</time>
      </trkpt>
      <trkpt lat="43.27062" lon="3.23556">
        <ele>73.8587</ele>
        <time>2023-01-07T15:02:41.106Z</time>
      </trkpt>
      <trkpt lat="43.2707" lon="3.23567">
        <ele>73.859538</ele>
        <time>2023-01-07T15:02:44.094Z</time>
      </trkpt>
      <trkpt lat="43.2707" lon="3.23582">
        <ele>73.860367</ele>
        <time>2023-01-07T15:02:47.091Z</time>
      </trkpt>
      <trkpt lat="43.27067" lon="3.23597">
        <ele>73.861213</ele>
        <time>2023-01-07T15:02:50.101Z</time>
      </trkpt>
      <trkpt lat="43.27063" lon="3.23613">
        <ele>73.862115</ele>
        <time>2023-01-07T15:02:53.095Z</time>
      </trkpt>
      <trkpt lat="43.27058" lon="3.23626">
        <ele>73.862952</ele>
        <time>2023-01-07T15:02:56.081Z</time>
      </trkpt>
      <trkpt lat="43.2705" lon="3.23634">
        <ele>73.821966</ele>
        <time>2023-01-07T15:02:59.091Z</time>
      </trkpt>
      <trkpt lat="43.27043" lon="3.23642">
        <ele>73.627353</ele>
        <time>2023-01-07T15:03:03.106Z</time>
      </trkpt>
      <trkpt lat="43.27042" lon="3.23655">
        <ele>73.432937</ele>
        <time>2023-01-07T15:03:06.107Z</time>
      </trkpt>
      <trkpt lat="43.27042" lon="3.23668">
        <ele>73.225051</ele>
        <time>2023-01-07T15:03:09.090Z</time>
      </trkpt>
      <trkpt lat="43.27043" lon="3.23685">
        <ele>72.966861</ele>
        <time>2023-01-07T15:03:12.099Z</time>
      </trkpt>
      <trkpt lat="43.27042" lon="3.23701">
        <ele>72.70641</ele>
        <time>2023-01-07T15:03:15.097Z</time>
      </trkpt>
      <trkpt lat="43.27039" lon="3.23717">
        <ele>72.456469</ele>
        <time>2023-01-07T15:03:18.103Z</time>
      </trkpt>
      <trkpt lat="43.27035" lon="3.23732">
        <ele>72.211153</ele>
        <time>2023-01-07T15:03:21.104Z</time>
      </trkpt>
      <trkpt lat="43.27031" lon="3.23748">
        <ele>71.954913</ele>
        <time>2023-01-07T15:03:24.092Z</time>
      </trkpt>
      <trkpt lat="43.27028" lon="3.23764">
        <ele>71.689229</ele>
        <time>2023-01-07T15:03:27.091Z</time>
      </trkpt>
      <trkpt lat="43.27025" lon="3.23782">
        <ele>71.409672</ele>
        <time>2023-01-07T15:03:30.097Z</time>
      </trkpt>
      <trkpt lat="43.27022" lon="3.23794">
        <ele>71.214418</ele>
        <time>2023-01-07T15:03:32.094Z</time>
      </trkpt>
      <trkpt lat="43.27022" lon="3.23812">
        <ele>70.932363</ele>
        <time>2023-01-07T15:03:35.099Z</time>
      </trkpt>
      <trkpt lat="43.27022" lon="3.2383">
        <ele>70.6518</ele>
        <time>2023-01-07T15:03:38.093Z</time>
      </trkpt>
      <trkpt lat="43.27023" lon="3.23843">
        <ele>70.445724</ele>
        <time>2023-01-07T15:03:40.092Z</time>
      </trkpt>
      <trkpt lat="43.27025" lon="3.2386">
        <ele>70.175069</ele>
        <time>2023-01-07T15:03:43.101Z</time>
      </trkpt>
      <trkpt lat="43.27029" lon="3.23876">
        <ele>70.137008</ele>
        <time>2023-01-07T15:03:46.105Z</time>
      </trkpt>
      <trkpt lat="43.27031" lon="3.23892">
        <ele>70.356725</ele>
        <time>2023-01-07T15:03:49.107Z</time>
      </trkpt>
      <trkpt lat="43.27033" lon="3.23908">
        <ele>70.572248</ele>
        <time>2023-01-07T15:03:52.096Z</time>
      </trkpt>
      <trkpt lat="43.27036" lon="3.23923">
        <ele>70.780742</ele>
        <time>2023-01-07T15:03:55.091Z</time>
      </trkpt>
      <trkpt lat="43.27039" lon="3.23937">
        <ele>70.987433</ele>
        <time>2023-01-07T15:03:58.095Z</time>
      </trkpt>
      <trkpt lat="43.27042" lon="3.23952">
        <ele>71.204341</ele>
        <time>2023-01-07T15:04:01.105Z</time>
      </trkpt>
      <trkpt lat="43.27044" lon="3.23969">
        <ele>71.430398</ele>
        <time>2023-01-07T15:04:04.095Z</time>
      </trkpt>
      <trkpt lat="43.27046" lon="3.23986">
        <ele>71.664451</ele>
        <time>2023-01-07T15:04:07.095Z</time>
      </trkpt>
      <trkpt lat="43.27047" lon="3.24004">
        <ele>71.905959</ele>
        <time>2023-01-07T15:04:10.105Z</time>
      </trkpt>
      <trkpt lat="43.27048" lon="3.24021">
        <ele>72.14697</ele>
        <time>2023-01-07T15:04:13.095Z</time>
      </trkpt>
      <trkpt lat="43.2705" lon="3.24039">
        <ele>72.383716</ele>
        <time>2023-01-07T15:04:16.094Z</time>
      </trkpt>
      <trkpt lat="43.27053" lon="3.24056">
        <ele>72.624306</ele>
        <time>2023-01-07T15:04:19.110Z</time>
      </trkpt>
      <trkpt lat="43.27054" lon="3.24074">
        <ele>72.866009</ele>
        <time>2023-01-07T15:04:22.095Z</time>
      </trkpt>
      <trkpt lat="43.27056" lon="3.24092">
        <ele>73.112417</ele>
        <time>2023-01-07T15:04:25.100Z</time>
      </trkpt>
      <trkpt lat="43.27057" lon="3.24104">
        <ele>73.284108</ele>
        <time>2023-01-07T15:04:27.099Z</time>
      </trkpt>
      <trkpt lat="43.27059" lon="3.24116">
        <ele>73.339172</ele>
        <time>2023-01-07T15:04:29.089Z</time>
      </trkpt>
      <trkpt lat="43.27061" lon="3.2413">
        <ele>73.195139</ele>
        <time>2023-01-07T15:04:31.110Z</time>
      </trkpt>
      <trkpt lat="43.27061" lon="3.24143">
        <ele>73.060864</ele>
        <time>2023-01-07T15:04:33.089Z</time>
      </trkpt>
      <trkpt lat="43.27061" lon="3.24156">
        <ele>72.923441</ele>
        <time>2023-01-07T15:04:35.102Z</time>
      </trkpt>
      <trkpt lat="43.27061" lon="3.24172">
        <ele>72.744802</ele>
        <time>2023-01-07T15:04:38.091Z</time>
      </trkpt>
      <trkpt lat="43.2706" lon="3.24188">
        <ele>72.576708</ele>
        <time>2023-01-07T15:04:41.091Z</time>
      </trkpt>
      <trkpt lat="43.27059" lon="3.24206">
        <ele>72.391158</ele>
        <time>2023-01-07T15:04:44.092Z</time>
      </trkpt>
      <trkpt lat="43.27059" lon="3.24223">
        <ele>72.205716</ele>
        <time>2023-01-07T15:04:47.089Z</time>
      </trkpt>
      <trkpt lat="43.27059" lon="3.24241">
        <ele>72.01545</ele>
        <time>2023-01-07T15:04:50.090Z</time>
      </trkpt>
      <trkpt lat="43.27059" lon="3.24259">
        <ele>71.832375</ele>
        <time>2023-01-07T15:04:53.102Z</time>
      </trkpt>
      <trkpt lat="43.27058" lon="3.24275">
        <ele>71.6592</ele>
        <time>2023-01-07T15:04:56.094Z</time>
      </trkpt>
      <trkpt lat="43.27058" lon="3.24292">
        <ele>71.480507</ele>
        <time>2023-01-07T15:04:59.110Z</time>
      </trkpt>
      <trkpt lat="43.27057" lon="3.24308">
        <ele>71.307129</ele>
        <time>2023-01-07T15:05:02.097Z</time>
      </trkpt>
      <trkpt lat="43.27058" lon="3.24325">
        <ele>71.131637</ele>
        <time>2023-01-07T15:05:05.091Z</time>
      </trkpt>
      <trkpt lat="43.27058" lon="3.24342">
        <ele>70.954049</ele>
        <time>2023-01-07T15:05:08.089Z</time>
      </trkpt>
      <trkpt lat="43.27058" lon="3.24359">
        <ele>70.777671</ele>
        <time>2023-01-07T15:05:11.096Z</time>
      </trkpt>
      <trkpt lat="43.27058" lon="3.24375">
        <ele>70.724859</ele>
        <time>2023-01-07T15:05:14.096Z</time>
      </trkpt>
      <trkpt lat="43.27058" lon="3.24393">
        <ele>70.670167</ele>
        <time>2023-01-07T15:05:17.101Z</time>
      </trkpt>
      <trkpt lat="43.27059" lon="3.2441">
        <ele>70.615144</ele>
        <time>2023-01-07T15:05:20.102Z</time>
      </trkpt>
      <trkpt lat="43.2706" lon="3.24427">
        <ele>70.560309</ele>
        <time>2023-01-07T15:05:23.092Z</time>
      </trkpt>
      <trkpt lat="43.27061" lon="3.24445">
        <ele>70.50504</ele>
        <time>2023-01-07T15:05:26.101Z</time>
      </trkpt>
      <trkpt lat="43.27063" lon="3.24462">
        <ele>70.448996</ele>
        <time>2023-01-07T15:05:29.108Z</time>
      </trkpt>
      <trkpt lat="43.27064" lon="3.2448">
        <ele>70.392063</ele>
        <time>2023-01-07T15:05:32.114Z</time>
      </trkpt>
      <trkpt lat="43.27066" lon="3.24497">
        <ele>70.338005</ele>
        <time>2023-01-07T15:05:35.104Z</time>
      </trkpt>
      <trkpt lat="43.27067" lon="3.24514">
        <ele>70.283784</ele>
        <time>2023-01-07T15:05:38.107Z</time>
      </trkpt>
      <trkpt lat="43.27071" lon="3.2453">
        <ele>70.23039</ele>
        <time>2023-01-07T15:05:41.104Z</time>
      </trkpt>
      <trkpt lat="43.27074" lon="3.24548">
        <ele>70.173482</ele>
        <time>2023-01-07T15:05:44.095Z</time>
      </trkpt>
      <trkpt lat="43.27076" lon="3.24565">
        <ele>70.117383</ele>
        <time>2023-01-07T15:05:47.094Z</time>
      </trkpt>
      <trkpt lat="43.27076" lon="3.24583">
        <ele>70.063335</ele>
        <time>2023-01-07T15:05:50.097Z</time>
      </trkpt>
      <trkpt lat="43.27077" lon="3.246">
        <ele>70.007956</ele>
        <time>2023-01-07T15:05:53.093Z</time>
      </trkpt>
      <trkpt lat="43.27077" lon="3.24617">
        <ele>69.865746</ele>
        <time>2023-01-07T15:05:56.099Z</time>
      </trkpt>
      <trkpt lat="43.27077" lon="3.24635">
        <ele>69.694785</ele>
        <time>2023-01-07T15:05:59.106Z</time>
      </trkpt>
      <trkpt lat="43.27077" lon="3.24653">
        <ele>69.520903</ele>
        <time>2023-01-07T15:06:02.100Z</time>
      </trkpt>
      <trkpt lat="43.27077" lon="3.24671">
        <ele>69.349947</ele>
        <time>2023-01-07T15:06:05.110Z</time>
      </trkpt>
      <trkpt lat="43.27076" lon="3.24687">
        <ele>69.190379</ele>
        <time>2023-01-07T15:06:08.102Z</time>
      </trkpt>
      <trkpt lat="43.27076" lon="3.24703">
        <ele>69.041513</ele>
        <time>2023-01-07T15:06:11.095Z</time>
      </trkpt>
      <trkpt lat="43.27076" lon="3.24716">
        <ele>68.917365</ele>
        <time>2023-01-07T15:06:14.099Z</time>
      </trkpt>
      <trkpt lat="43.27075" lon="3.24729">
        <ele>68.784721</ele>
        <time>2023-01-07T15:06:17.098Z</time>
      </trkpt>
      <trkpt lat="43.27075" lon="3.24744">
        <ele>68.644344</ele>
        <time>2023-01-07T15:06:20.106Z</time>
      </trkpt>
      <trkpt lat="43.27075" lon="3.24758">
        <ele>68.508821</ele>
        <time>2023-01-07T15:06:23.097Z</time>
      </trkpt>
      <trkpt lat="43.27075" lon="3.24773">
        <ele>68.367638</ele>
        <time>2023-01-07T15:06:26.091Z</time>
      </trkpt>
      <trkpt lat="43.27076" lon="3.24789">
        <ele>68.213766</ele>
        <time>2023-01-07T15:06:29.094Z</time>
      </trkpt>
      <trkpt lat="43.27075" lon="3.24805">
        <ele>68.059821</ele>
        <time>2023-01-07T15:06:32.101Z</time>
      </trkpt>
      <trkpt lat="43.27075" lon="3.24822">
        <ele>67.897423</ele>
        <time>2023-01-07T15:06:35.096Z</time>
      </trkpt>
      <trkpt lat="43.27075" lon="3.24834">
        <ele>67.77615</ele>
        <time>2023-01-07T15:06:37.088Z</time>
      </trkpt>
      <trkpt lat="43.27075" lon="3.24847">
        <ele>67.655108</ele>
        <time>2023-01-07T15:06:39.092Z</time>
      </trkpt>
      <trkpt lat="43.27075" lon="3.2486">
        <ele>67.355688</ele>
        <time>2023-01-07T15:06:41.088Z</time>
      </trkpt>
      <trkpt lat="43.27075" lon="3.24878">
        <ele>66.888533</ele>
        <time>2023-01-07T15:06:44.101Z</time>
      </trkpt>
      <trkpt lat="43.27075" lon="3.24891">
        <ele>66.553071</ele>
        <time>2023-01-07T15:06:46.105Z</time>
      </trkpt>
      <trkpt lat="43.27076" lon="3.24904">
        <ele>66.209316</ele>
        <time>2023-01-07T15:06:48.096Z</time>
      </trkpt>
      <trkpt lat="43.27076" lon="3.24923">
        <ele>65.707859</ele>
        <time>2023-01-07T15:06:51.093Z</time>
      </trkpt>
      <trkpt lat="43.27076" lon="3.24935">
        <ele>65.375348</ele>
        <time>2023-01-07T15:06:53.102Z</time>
      </trkpt>
      <trkpt lat="43.27076" lon="3.24948">
        <ele>65.04266</ele>
        <time>2023-01-07T15:06:55.105Z</time>
      </trkpt>
      <trkpt lat="43.27076" lon="3.24961">
        <ele>64.699517</ele>
        <time>2023-01-07T15:06:57.097Z</time>
      </trkpt>
      <trkpt lat="43.27077" lon="3.24973">
        <ele>64.371003</ele>
        <time>2023-01-07T15:06:59.102Z</time>
      </trkpt>
      <trkpt lat="43.27077" lon="3.24987">
        <ele>64.017362</ele>
        <time>2023-01-07T15:07:01.104Z</time>
      </trkpt>
      <trkpt lat="43.27077" lon="3.25001">
        <ele>63.634711</ele>
        <time>2023-01-07T15:07:03.099Z</time>
      </trkpt>
      <trkpt lat="43.27077" lon="3.25015">
        <ele>63.273099</ele>
        <time>2023-01-07T15:07:05.101Z</time>
      </trkpt>
      <trkpt lat="43.27077" lon="3.2503">
        <ele>62.88238</ele>
        <time>2023-01-07T15:07:07.102Z</time>
      </trkpt>
      <trkpt lat="43.27078" lon="3.25043">
        <ele>62.522001</ele>
        <time>2023-01-07T15:07:09.105Z</time>
      </trkpt>
      <trkpt lat="43.27078" lon="3.25059">
        <ele>62.107429</ele>
        <time>2023-01-07T15:07:11.098Z</time>
      </trkpt>
      <trkpt lat="43.27077" lon="3.25073">
        <ele>61.740164</ele>
        <time>2023-01-07T15:07:13.103Z</time>
      </trkpt>
      <trkpt lat="43.27077" lon="3.25087">
        <ele>61.378462</ele>
        <time>2023-01-07T15:07:15.098Z</time>
      </trkpt>
      <trkpt lat="43.27076" lon="3.25101">
        <ele>61.083396</ele>
        <time>2023-01-07T15:07:17.092Z</time>
      </trkpt>
      <trkpt lat="43.27076" lon="3.25115">
        <ele>61.005985</ele>
        <time>2023-01-07T15:07:19.094Z</time>
      </trkpt>
      <trkpt lat="43.27076" lon="3.25129">
        <ele>60.931953</ele>
        <time>2023-01-07T15:07:21.093Z</time>
      </trkpt>
      <trkpt lat="43.27075" lon="3.25142">
        <ele>60.858781</ele>
        <time>2023-01-07T15:07:23.099Z</time>
      </trkpt>
      <trkpt lat="43.27075" lon="3.25155">
        <ele>60.786938</ele>
        <time>2023-01-07T15:07:25.089Z</time>
      </trkpt>
      <trkpt lat="43.27076" lon="3.25169">
        <ele>60.715036</ele>
        <time>2023-01-07T15:07:27.098Z</time>
      </trkpt>
      <trkpt lat="43.27075" lon="3.25182">
        <ele>60.642556</ele>
        <time>2023-01-07T15:07:29.108Z</time>
      </trkpt>
      <trkpt lat="43.27076" lon="3.25196">
        <ele>60.564601</ele>
        <time>2023-01-07T15:07:31.100Z</time>
      </trkpt>
      <trkpt lat="43.27076" lon="3.2521">
        <ele>60.490037</ele>
        <time>2023-01-07T15:07:33.091Z</time>
      </trkpt>
      <trkpt lat="43.27077" lon="3.25223">
        <ele>60.418967</ele>
        <time>2023-01-07T15:07:35.092Z</time>
      </trkpt>
      <trkpt lat="43.27077" lon="3.25237">
        <ele>60.341653</ele>
        <time>2023-01-07T15:07:37.089Z</time>
      </trkpt>
      <trkpt lat="43.27077" lon="3.25251">
        <ele>60.264912</ele>
        <time>2023-01-07T15:07:39.104Z</time>
      </trkpt>
      <trkpt lat="43.27077" lon="3.25265">
        <ele>60.191984</ele>
        <time>2023-01-07T15:07:41.090Z</time>
      </trkpt>
      <trkpt lat="43.27078" lon="3.25279">
        <ele>60.112353</ele>
        <time>2023-01-07T15:07:43.108Z</time>
      </trkpt>
      <trkpt lat="43.27077" lon="3.25293">
        <ele>60.035558</ele>
        <time>2023-01-07T15:07:45.105Z</time>
      </trkpt>
      <trkpt lat="43.27078" lon="3.25307">
        <ele>59.961447</ele>
        <time>2023-01-07T15:07:47.090Z</time>
      </trkpt>
      <trkpt lat="43.27078" lon="3.2532">
        <ele>59.892329</ele>
        <time>2023-01-07T15:07:49.097Z</time>
      </trkpt>
      <trkpt lat="43.27078" lon="3.25332">
        <ele>59.823013</ele>
        <time>2023-01-07T15:07:51.101Z</time>
      </trkpt>
      <trkpt lat="43.27079" lon="3.25348">
        <ele>59.766994</ele>
        <time>2023-01-07T15:07:53.101Z</time>
      </trkpt>
      <trkpt lat="43.27079" lon="3.25361">
        <ele>59.782329</ele>
        <time>2023-01-07T15:07:55.090Z</time>
      </trkpt>
      <trkpt lat="43.2708" lon="3.25375">
        <ele>59.797853</ele>
        <time>2023-01-07T15:07:57.098Z</time>
      </trkpt>
      <trkpt lat="43.27079" lon="3.25389">
        <ele>59.814149</ele>
        <time>2023-01-07T15:07:59.106Z</time>
      </trkpt>
      <trkpt lat="43.2708" lon="3.25403">
        <ele>59.829608</ele>
        <time>2023-01-07T15:08:01.090Z</time>
      </trkpt>
      <trkpt lat="43.2708" lon="3.25416">
        <ele>59.843948</ele>
        <time>2023-01-07T15:08:03.100Z</time>
      </trkpt>
      <trkpt lat="43.2708" lon="3.25429">
        <ele>59.85906</ele>
        <time>2023-01-07T15:08:05.100Z</time>
      </trkpt>
      <trkpt lat="43.27081" lon="3.25442">
        <ele>59.874085</ele>
        <time>2023-01-07T15:08:07.104Z</time>
      </trkpt>
      <trkpt lat="43.27081" lon="3.25456">
        <ele>59.889313</ele>
        <time>2023-01-07T15:08:09.083Z</time>
      </trkpt>
      <trkpt lat="43.27081" lon="3.25468">
        <ele>59.90341</ele>
        <time>2023-01-07T15:08:11.108Z</time>
      </trkpt>
      <trkpt lat="43.27081" lon="3.25482">
        <ele>59.918747</ele>
        <time>2023-01-07T15:08:13.090Z</time>
      </trkpt>
      <trkpt lat="43.27082" lon="3.25495">
        <ele>59.933471</ele>
        <time>2023-01-07T15:08:15.098Z</time>
      </trkpt>
      <trkpt lat="43.27082" lon="3.25509">
        <ele>59.949518</ele>
        <time>2023-01-07T15:08:17.094Z</time>
      </trkpt>
      <trkpt lat="43.27083" lon="3.25524">
        <ele>59.965757</ele>
        <time>2023-01-07T15:08:19.102Z</time>
      </trkpt>
      <trkpt lat="43.27083" lon="3.25536">
        <ele>59.98009</ele>
        <time>2023-01-07T15:08:21.098Z</time>
      </trkpt>
      <trkpt lat="43.27084" lon="3.25549">
        <ele>59.994141</ele>
        <time>2023-01-07T15:08:23.111Z</time>
      </trkpt>
      <trkpt lat="43.27084" lon="3.25563">
        <ele>60.010276</ele>
        <time>2023-01-07T15:08:25.104Z</time>
      </trkpt>
      <trkpt lat="43.27086" lon="3.25576">
        <ele>60.024808</ele>
        <time>2023-01-07T15:08:27.097Z</time>
      </trkpt>
      <trkpt lat="43.27088" lon="3.25594">
        <ele>60.044296</ele>
        <time>2023-01-07T15:08:30.094Z</time>
      </trkpt>
      <trkpt lat="43.27091" lon="3.2561">
        <ele>60.058309</ele>
        <time>2023-01-07T15:08:33.097Z</time>
      </trkpt>
      <trkpt lat="43.27094" lon="3.25625">
        <ele>60.070905</ele>
        <time>2023-01-07T15:08:36.093Z</time>
      </trkpt>
      <trkpt lat="43.27096" lon="3.25641">
        <ele>60.084303</ele>
        <time>2023-01-07T15:08:39.096Z</time>
      </trkpt>
      <trkpt lat="43.27099" lon="3.25658">
        <ele>60.098544</ele>
        <time>2023-01-07T15:08:42.099Z</time>
      </trkpt>
      <trkpt lat="43.27102" lon="3.25674">
        <ele>60.112507</ele>
        <time>2023-01-07T15:08:45.105Z</time>
      </trkpt>
      <trkpt lat="43.27106" lon="3.25691">
        <ele>60.127627</ele>
        <time>2023-01-07T15:08:48.106Z</time>
      </trkpt>
      <trkpt lat="43.2711" lon="3.25709">
        <ele>60.143096</ele>
        <time>2023-01-07T15:08:51.097Z</time>
      </trkpt>
      <trkpt lat="43.27113" lon="3.25726">
        <ele>60.157264</ele>
        <time>2023-01-07T15:08:54.099Z</time>
      </trkpt>
      <trkpt lat="43.27118" lon="3.25744">
        <ele>60.172808</ele>
        <time>2023-01-07T15:08:57.100Z</time>
      </trkpt>
      <trkpt lat="43.27121" lon="3.25757">
        <ele>60.184338</ele>
        <time>2023-01-07T15:08:59.088Z</time>
      </trkpt>
      <trkpt lat="43.27123" lon="3.2577">
        <ele>60.19549</ele>
        <time>2023-01-07T15:09:01.099Z</time>
      </trkpt>
      <trkpt lat="43.27127" lon="3.25788">
        <ele>60.210706</ele>
        <time>2023-01-07T15:09:04.098Z</time>
      </trkpt>
      <trkpt lat="43.27129" lon="3.258">
        <ele>60.221129</ele>
        <time>2023-01-07T15:09:06.101Z</time>
      </trkpt>
      <trkpt lat="43.27133" lon="3.25818">
        <ele>60.236458</ele>
        <time>2023-01-07T15:09:09.090Z</time>
      </trkpt>
      <trkpt lat="43.27136" lon="3.25829">
        <ele>60.249736</ele>
        <time>2023-01-07T15:09:11.086Z</time>
      </trkpt>
      <trkpt lat="43.2714" lon="3.25841">
        <ele>60.27847</ele>
        <time>2023-01-07T15:09:13.090Z</time>
      </trkpt>
      <trkpt lat="43.27146" lon="3.25857">
        <ele>60.318842</ele>
        <time>2023-01-07T15:09:16.090Z</time>
      </trkpt>
      <trkpt lat="43.27151" lon="3.25873">
        <ele>60.357572</ele>
        <time>2023-01-07T15:09:19.105Z</time>
      </trkpt>
      <trkpt lat="43.27156" lon="3.25888">
        <ele>60.396997</ele>
        <time>2023-01-07T15:09:22.105Z</time>
      </trkpt>
      <trkpt lat="43.27162" lon="3.25904">
        <ele>60.436969</ele>
        <time>2023-01-07T15:09:25.090Z</time>
      </trkpt>
      <trkpt lat="43.27166" lon="3.25916">
        <ele>60.466158</ele>
        <time>2023-01-07T15:09:27.176Z</time>
      </trkpt>
      <trkpt lat="43.27171" lon="3.25932">
        <ele>60.507495</ele>
        <time>2023-01-07T15:09:30.093Z</time>
      </trkpt>
      <trkpt lat="43.27175" lon="3.25947">
        <ele>60.543633</ele>
        <time>2023-01-07T15:09:33.091Z</time>
      </trkpt>
      <trkpt lat="43.2718" lon="3.25962">
        <ele>60.579873</ele>
        <time>2023-01-07T15:09:36.101Z</time>
      </trkpt>
      <trkpt lat="43.27186" lon="3.25975">
        <ele>60.614009</ele>
        <time>2023-01-07T15:09:39.090Z</time>
      </trkpt>
      <trkpt lat="43.27192" lon="3.2599">
        <ele>60.651833</ele>
        <time>2023-01-07T15:09:42.096Z</time>
      </trkpt>
      <trkpt lat="43.27198" lon="3.26004">
        <ele>60.690055</ele>
        <time>2023-01-07T15:09:45.100Z</time>
      </trkpt>
      <trkpt lat="43.27205" lon="3.26014">
        <ele>60.721527</ele>
        <time>2023-01-07T15:09:48.093Z</time>
      </trkpt>
      <trkpt lat="43.27214" lon="3.26022">
        <ele>60.754185</ele>
        <time>2023-01-07T15:09:52.096Z</time>
      </trkpt>
      <trkpt lat="43.27219" lon="3.26034">
        <ele>60.785856</ele>
        <time>2023-01-07T15:09:56.100Z</time>
      </trkpt>
      <trkpt lat="43.27219" lon="3.26048">
        <ele>60.78454</ele>
        <time>2023-01-07T15:09:59.105Z</time>
      </trkpt>
      <trkpt lat="43.27221" lon="3.26063">
        <ele>60.734332</ele>
        <time>2023-01-07T15:10:02.099Z</time>
      </trkpt>
      <trkpt lat="43.27225" lon="3.26077">
        <ele>60.683834</ele>
        <time>2023-01-07T15:10:05.095Z</time>
      </trkpt>
      <trkpt lat="43.2723" lon="3.26091">
        <ele>60.633099</ele>
        <time>2023-01-07T15:10:08.105Z</time>
      </trkpt>
      <trkpt lat="43.27235" lon="3.26104">
        <ele>60.583648</ele>
        <time>2023-01-07T15:10:11.112Z</time>
      </trkpt>
      <trkpt lat="43.27241" lon="3.26117">
        <ele>60.531726</ele>
        <time>2023-01-07T15:10:14.098Z</time>
      </trkpt>
      <trkpt lat="43.27246" lon="3.26131">
        <ele>60.480091</ele>
        <time>2023-01-07T15:10:17.091Z</time>
      </trkpt>
      <trkpt lat="43.27252" lon="3.26144">
        <ele>60.429715</ele>
        <time>2023-01-07T15:10:20.090Z</time>
      </trkpt>
      <trkpt lat="43.27257" lon="3.26157">
        <ele>60.378757</ele>
        <time>2023-01-07T15:10:23.093Z</time>
      </trkpt>
      <trkpt lat="43.27263" lon="3.2617">
        <ele>60.328107</ele>
        <time>2023-01-07T15:10:26.097Z</time>
      </trkpt>
      <trkpt lat="43.2727" lon="3.26183">
        <ele>60.274291</ele>
        <time>2023-01-07T15:10:29.095Z</time>
      </trkpt>
      <trkpt lat="43.27279" lon="3.26195">
        <ele>60.219222</ele>
        <time>2023-01-07T15:10:32.095Z</time>
      </trkpt>
      <trkpt lat="43.27288" lon="3.26207">
        <ele>60.163022</ele>
        <time>2023-01-07T15:10:35.096Z</time>
      </trkpt>
      <trkpt lat="43.27297" lon="3.26217">
        <ele>60.108219</ele>
        <time>2023-01-07T15:10:38.102Z</time>
      </trkpt>
      <trkpt lat="43.27306" lon="3.26226">
        <ele>60.056752</ele>
        <time>2023-01-07T15:10:41.089Z</time>
      </trkpt>
      <trkpt lat="43.27315" lon="3.26235">
        <ele>60.006649</ele>
        <time>2023-01-07T15:10:44.095Z</time>
      </trkpt>
      <trkpt lat="43.27325" lon="3.26244">
        <ele>60.123803</ele>
        <time>2023-01-07T15:10:47.096Z</time>
      </trkpt>
      <trkpt lat="43.27335" lon="3.26253">
        <ele>60.412252</ele>
        <time>2023-01-07T15:10:50.088Z</time>
      </trkpt>
      <trkpt lat="43.27347" lon="3.26261">
        <ele>60.703262</ele>
        <time>2023-01-07T15:10:53.102Z</time>
      </trkpt>
      <trkpt lat="43.27358" lon="3.26269">
        <ele>60.991763</ele>
        <time>2023-01-07T15:10:56.093Z</time>
      </trkpt>
      <trkpt lat="43.27369" lon="3.26276">
        <ele>61.271207</ele>
        <time>2023-01-07T15:10:59.101Z</time>
      </trkpt>
      <trkpt lat="43.27381" lon="3.26284">
        <ele>61.566555</ele>
        <time>2023-01-07T15:11:02.101Z</time>
      </trkpt>
      <trkpt lat="43.27392" lon="3.26292">
        <ele>61.852025</ele>
        <time>2023-01-07T15:11:05.109Z</time>
      </trkpt>
      <trkpt lat="43.27402" lon="3.26303">
        <ele>62.133913</ele>
        <time>2023-01-07T15:11:08.103Z</time>
      </trkpt>
      <trkpt lat="43.27412" lon="3.26314">
        <ele>62.430102</ele>
        <time>2023-01-07T15:11:11.109Z</time>
      </trkpt>
      <trkpt lat="43.27421" lon="3.26327">
        <ele>62.723547</ele>
        <time>2023-01-07T15:11:14.097Z</time>
      </trkpt>
      <trkpt lat="43.2743" lon="3.26338">
        <ele>63.011073</ele>
        <time>2023-01-07T15:11:17.095Z</time>
      </trkpt>
      <trkpt lat="43.2744" lon="3.26351">
        <ele>63.313291</ele>
        <time>2023-01-07T15:11:20.099Z</time>
      </trkpt>
      <trkpt lat="43.27449" lon="3.26364">
        <ele>63.607174</ele>
        <time>2023-01-07T15:11:23.100Z</time>
      </trkpt>
      <trkpt lat="43.27459" lon="3.26376">
        <ele>63.905318</ele>
        <time>2023-01-07T15:11:26.096Z</time>
      </trkpt>
      <trkpt lat="43.27468" lon="3.26389">
        <ele>64.030249</ele>
        <time>2023-01-07T15:11:29.086Z</time>
      </trkpt>
      <trkpt lat="43.27476" lon="3.264">
        <ele>63.957765</ele>
        <time>2023-01-07T15:11:32.099Z</time>
      </trkpt>
      <trkpt lat="43.27484" lon="3.26411">
        <ele>63.890116</ele>
        <time>2023-01-07T15:11:35.112Z</time>
      </trkpt>
      <trkpt lat="43.27491" lon="3.26423">
        <ele>63.826602</ele>
        <time>2023-01-07T15:11:38.105Z</time>
      </trkpt>
      <trkpt lat="43.27498" lon="3.26435">
        <ele>63.758938</ele>
        <time>2023-01-07T15:11:41.100Z</time>
      </trkpt>
      <trkpt lat="43.27504" lon="3.26449">
        <ele>63.686751</ele>
        <time>2023-01-07T15:11:44.105Z</time>
      </trkpt>
      <trkpt lat="43.27509" lon="3.26466">
        <ele>63.606511</ele>
        <time>2023-01-07T15:11:47.088Z</time>
      </trkpt>
      <trkpt lat="43.27512" lon="3.26478">
        <ele>63.550763</ele>
        <time>2023-01-07T15:11:49.101Z</time>
      </trkpt>
      <trkpt lat="43.27515" lon="3.26491">
        <ele>63.489305</ele>
        <time>2023-01-07T15:11:51.110Z</time>
      </trkpt>
      <trkpt lat="43.27517" lon="3.26509">
        <ele>63.410449</ele>
        <time>2023-01-07T15:11:54.088Z</time>
      </trkpt>
      <trkpt lat="43.27518" lon="3.26522">
        <ele>63.353076</ele>
        <time>2023-01-07T15:11:56.090Z</time>
      </trkpt>
      <trkpt lat="43.27518" lon="3.26539">
        <ele>63.279074</ele>
        <time>2023-01-07T15:11:59.088Z</time>
      </trkpt>
      <trkpt lat="43.27518" lon="3.26556">
        <ele>63.204962</ele>
        <time>2023-01-07T15:12:02.094Z</time>
      </trkpt>
      <trkpt lat="43.27516" lon="3.26571">
        <ele>63.139105</ele>
        <time>2023-01-07T15:12:05.090Z</time>
      </trkpt>
      <trkpt lat="43.27514" lon="3.26585">
        <ele>63.074257</ele>
        <time>2023-01-07T15:12:08.110Z</time>
      </trkpt>
      <trkpt lat="43.27513" lon="3.26601">
        <ele>63.00464</ele>
        <time>2023-01-07T15:12:11.092Z</time>
      </trkpt>
      <trkpt lat="43.27511" lon="3.26617">
        <ele>62.810095</ele>
        <time>2023-01-07T15:12:14.111Z</time>
      </trkpt>
      <trkpt lat="43.2751" lon="3.26633">
        <ele>62.576067</ele>
        <time>2023-01-07T15:12:17.098Z</time>
      </trkpt>
      <trkpt lat="43.27508" lon="3.26648">
        <ele>62.346764</ele>
        <time>2023-01-07T15:12:20.099Z</time>
      </trkpt>
      <trkpt lat="43.27506" lon="3.26663">
        <ele>62.113467</ele>
        <time>2023-01-07T15:12:23.089Z</time>
      </trkpt>
      <trkpt lat="43.27504" lon="3.26677">
        <ele>61.899708</ele>
        <time>2023-01-07T15:12:26.096Z</time>
      </trkpt>
      <trkpt lat="43.27503" lon="3.26691">
        <ele>61.69046</ele>
        <time>2023-01-07T15:12:29.091Z</time>
      </trkpt>
      <trkpt lat="43.27501" lon="3.26703">
        <ele>61.499737</ele>
        <time>2023-01-07T15:12:32.082Z</time>
      </trkpt>
      <trkpt lat="43.27501" lon="3.26716">
        <ele>61.301279</ele>
        <time>2023-01-07T15:12:35.100Z</time>
      </trkpt>
      <trkpt lat="43.27501" lon="3.26731">
        <ele>61.087731</ele>
        <time>2023-01-07T15:12:38.088Z</time>
      </trkpt>
      <trkpt lat="43.27502" lon="3.26744">
        <ele>60.879523</ele>
        <time>2023-01-07T15:12:41.097Z</time>
      </trkpt>
      <trkpt lat="43.27502" lon="3.26759">
        <ele>60.656343</ele>
        <time>2023-01-07T15:12:45.112Z</time>
      </trkpt>
      <trkpt lat="43.27505" lon="3.26772">
        <ele>60.455302</ele>
        <time>2023-01-07T15:12:50.105Z</time>
      </trkpt>
      <trkpt lat="43.27499" lon="3.26783">
        <ele>60.26212</ele>
        <time>2023-01-07T15:14:19.198Z</time>
      </trkpt>
      <trkpt lat="43.27491" lon="3.26788">
        <ele>60.066887</ele>
        <time>2023-01-07T15:14:24.106Z</time>
      </trkpt>
      <trkpt lat="43.27492" lon="3.26803">
        <ele>59.847011</ele>
        <time>2023-01-07T15:14:28.109Z</time>
      </trkpt>
      <trkpt lat="43.27496" lon="3.26816">
        <ele>59.64045</ele>
        <time>2023-01-07T15:14:31.087Z</time>
      </trkpt>
      <trkpt lat="43.275" lon="3.26832">
        <ele>59.3804</ele>
        <time>2023-01-07T15:14:34.102Z</time>
      </trkpt>
      <trkpt lat="43.27509" lon="3.26837">
        <ele>59.053834</ele>
        <time>2023-01-07T15:14:35.102Z</time>
      </trkpt>
      <trkpt lat="43.27514" lon="3.26849">
        <ele>58.583274</ele>
        <time>2023-01-07T15:14:37.105Z</time>
      </trkpt>
      <trkpt lat="43.27519" lon="3.2686">
        <ele>58.120496</ele>
        <time>2023-01-07T15:14:39.107Z</time>
      </trkpt>
      <trkpt lat="43.27525" lon="3.2687">
        <ele>57.65209</ele>
        <time>2023-01-07T15:14:41.101Z</time>
      </trkpt>
      <trkpt lat="43.27531" lon="3.26881">
        <ele>57.16937</ele>
        <time>2023-01-07T15:14:43.097Z</time>
      </trkpt>
      <trkpt lat="43.27536" lon="3.26892">
        <ele>56.712208</ele>
        <time>2023-01-07T15:14:45.111Z</time>
      </trkpt>
      <trkpt lat="43.27542" lon="3.26904">
        <ele>56.212194</ele>
        <time>2023-01-07T15:14:47.105Z</time>
      </trkpt>
      <trkpt lat="43.27548" lon="3.26916">
        <ele>55.680348</ele>
        <time>2023-01-07T15:14:49.103Z</time>
      </trkpt>
      <trkpt lat="43.27554" lon="3.26931">
        <ele>55.107543</ele>
        <time>2023-01-07T15:14:51.093Z</time>
      </trkpt>
      <trkpt lat="43.27559" lon="3.26943">
        <ele>54.585546</ele>
        <time>2023-01-07T15:14:53.110Z</time>
      </trkpt>
      <trkpt lat="43.27565" lon="3.26956">
        <ele>54.054414</ele>
        <time>2023-01-07T15:14:55.100Z</time>
      </trkpt>
      <trkpt lat="43.2757" lon="3.26968">
        <ele>53.574257</ele>
        <time>2023-01-07T15:14:57.085Z</time>
      </trkpt>
      <trkpt lat="43.27576" lon="3.26983">
        <ele>52.952342</ele>
        <time>2023-01-07T15:15:00.089Z</time>
      </trkpt>
      <trkpt lat="43.27583" lon="3.26997">
        <ele>52.381019</ele>
        <time>2023-01-07T15:15:03.101Z</time>
      </trkpt>
      <trkpt lat="43.27588" lon="3.27007">
        <ele>51.938076</ele>
        <time>2023-01-07T15:15:05.115Z</time>
      </trkpt>
      <trkpt lat="43.27594" lon="3.27017">
        <ele>51.465571</ele>
        <time>2023-01-07T15:15:07.102Z</time>
      </trkpt>
      <trkpt lat="43.27601" lon="3.27028">
        <ele>50.962372</ele>
        <time>2023-01-07T15:15:09.092Z</time>
      </trkpt>
      <trkpt lat="43.27609" lon="3.27037">
        <ele>50.515571</ele>
        <time>2023-01-07T15:15:11.098Z</time>
      </trkpt>
      <trkpt lat="43.27618" lon="3.27044">
        <ele>50.362641</ele>
        <time>2023-01-07T15:15:13.088Z</time>
      </trkpt>
      <trkpt lat="43.27626" lon="3.27051">
        <ele>50.227642</ele>
        <time>2023-01-07T15:15:15.094Z</time>
      </trkpt>
      <trkpt lat="43.27634" lon="3.27057">
        <ele>50.091677</ele>
        <time>2023-01-07T15:15:17.101Z</time>
      </trkpt>
      <trkpt lat="43.27646" lon="3.27064">
        <ele>49.904157</ele>
        <time>2023-01-07T15:15:20.104Z</time>
      </trkpt>
      <trkpt lat="43.27657" lon="3.27069">
        <ele>49.728728</ele>
        <time>2023-01-07T15:15:23.086Z</time>
      </trkpt>
      <trkpt lat="43.27668" lon="3.27073">
        <ele>49.56047</ele>
        <time>2023-01-07T15:15:26.105Z</time>
      </trkpt>
      <trkpt lat="43.27679" lon="3.27079">
        <ele>49.393782</ele>
        <time>2023-01-07T15:15:29.108Z</time>
      </trkpt>
      <trkpt lat="43.27689" lon="3.27082">
        <ele>49.240539</ele>
        <time>2023-01-07T15:15:32.108Z</time>
      </trkpt>
      <trkpt lat="43.27697" lon="3.27086">
        <ele>49.108583</ele>
        <time>2023-01-07T15:15:35.109Z</time>
      </trkpt>
      <trkpt lat="43.27707" lon="3.27092">
        <ele>48.958945</ele>
        <time>2023-01-07T15:15:38.107Z</time>
      </trkpt>
      <trkpt lat="43.27717" lon="3.27097">
        <ele>48.79116</ele>
        <time>2023-01-07T15:15:41.125Z</time>
      </trkpt>
      <trkpt lat="43.27729" lon="3.27102">
        <ele>48.618533</ele>
        <time>2023-01-07T15:15:44.102Z</time>
      </trkpt>
      <trkpt lat="43.27739" lon="3.27106">
        <ele>48.457311</ele>
        <time>2023-01-07T15:15:47.111Z</time>
      </trkpt>
      <trkpt lat="43.27748" lon="3.27111">
        <ele>48.315905</ele>
        <time>2023-01-07T15:15:50.098Z</time>
      </trkpt>
      <trkpt lat="43.27759" lon="3.27116">
        <ele>48.154083</ele>
        <time>2023-01-07T15:15:53.114Z</time>
      </trkpt>
      <trkpt lat="43.27769" lon="3.27121">
        <ele>47.989486</ele>
        <time>2023-01-07T15:15:56.106Z</time>
      </trkpt>
      <trkpt lat="43.27779" lon="3.27126">
        <ele>47.765797</ele>
        <time>2023-01-07T15:15:59.105Z</time>
      </trkpt>
      <trkpt lat="43.2779" lon="3.2713">
        <ele>47.436571</ele>
        <time>2023-01-07T15:16:02.090Z</time>
      </trkpt>
      <trkpt lat="43.278" lon="3.27136">
        <ele>47.128338</ele>
        <time>2023-01-07T15:16:05.089Z</time>
      </trkpt>
      <trkpt lat="43.27807" lon="3.27145">
        <ele>46.835725</ele>
        <time>2023-01-07T15:16:08.097Z</time>
      </trkpt>
      <trkpt lat="43.27816" lon="3.27155">
        <ele>46.524084</ele>
        <time>2023-01-07T15:16:11.100Z</time>
      </trkpt>
      <trkpt lat="43.27822" lon="3.2717">
        <ele>46.147094</ele>
        <time>2023-01-07T15:16:14.116Z</time>
      </trkpt>
      <trkpt lat="43.27822" lon="3.27188">
        <ele>45.76435</ele>
        <time>2023-01-07T15:16:17.105Z</time>
      </trkpt>
      <trkpt lat="43.27822" lon="3.27207">
        <ele>45.381345</ele>
        <time>2023-01-07T15:16:20.104Z</time>
      </trkpt>
      <trkpt lat="43.27822" lon="3.27225">
        <ele>45.000704</ele>
        <time>2023-01-07T15:16:23.095Z</time>
      </trkpt>
      <trkpt lat="43.27821" lon="3.27243">
        <ele>44.625036</ele>
        <time>2023-01-07T15:16:26.091Z</time>
      </trkpt>
      <trkpt lat="43.27818" lon="3.27259">
        <ele>44.271447</ele>
        <time>2023-01-07T15:16:29.110Z</time>
      </trkpt>
      <trkpt lat="43.27815" lon="3.27274">
        <ele>43.944468</ele>
        <time>2023-01-07T15:16:32.110Z</time>
      </trkpt>
      <trkpt lat="43.27812" lon="3.27291">
        <ele>43.581318</ele>
        <time>2023-01-07T15:16:35.111Z</time>
      </trkpt>
      <trkpt lat="43.27809" lon="3.27309">
        <ele>43.194246</ele>
        <time>2023-01-07T15:16:38.105Z</time>
      </trkpt>
      <trkpt lat="43.2781" lon="3.27326">
        <ele>42.82805</ele>
        <time>2023-01-07T15:16:41.104Z</time>
      </trkpt>
      <trkpt lat="43.27815" lon="3.27341">
        <ele>42.735099</ele>
        <time>2023-01-07T15:16:44.090Z</time>
      </trkpt>
      <trkpt lat="43.27825" lon="3.27353">
        <ele>42.777203</ele>
        <time>2023-01-07T15:16:47.107Z</time>
      </trkpt>
      <trkpt lat="43.27836" lon="3.2736">
        <ele>42.820192</ele>
        <time>2023-01-07T15:16:50.095Z</time>
      </trkpt>
      <trkpt lat="43.27848" lon="3.27366">
        <ele>42.862172</ele>
        <time>2023-01-07T15:16:53.100Z</time>
      </trkpt>
      <trkpt lat="43.2786" lon="3.2737">
        <ele>42.903418</ele>
        <time>2023-01-07T15:16:56.110Z</time>
      </trkpt>
      <trkpt lat="43.27873" lon="3.27375">
        <ele>42.945501</ele>
        <time>2023-01-07T15:16:59.114Z</time>
      </trkpt>
      <trkpt lat="43.27884" lon="3.2738">
        <ele>42.984985</ele>
        <time>2023-01-07T15:17:02.103Z</time>
      </trkpt>
      <trkpt lat="43.27895" lon="3.27387">
        <ele>43.023554</ele>
        <time>2023-01-07T15:17:05.097Z</time>
      </trkpt>
      <trkpt lat="43.27906" lon="3.27395">
        <ele>43.065143</ele>
        <time>2023-01-07T15:17:08.092Z</time>
      </trkpt>
      <trkpt lat="43.27914" lon="3.27401">
        <ele>43.095866</ele>
        <time>2023-01-07T15:17:10.098Z</time>
      </trkpt>
      <trkpt lat="43.27922" lon="3.27407">
        <ele>43.126923</ele>
        <time>2023-01-07T15:17:12.105Z</time>
      </trkpt>
      <trkpt lat="43.2793" lon="3.27414">
        <ele>43.157118</ele>
        <time>2023-01-07T15:17:14.103Z</time>
      </trkpt>
      <trkpt lat="43.27939" lon="3.27419">
        <ele>43.188577</ele>
        <time>2023-01-07T15:17:16.114Z</time>
      </trkpt>
      <trkpt lat="43.27946" lon="3.27425">
        <ele>43.218245</ele>
        <time>2023-01-07T15:17:18.110Z</time>
      </trkpt>
      <trkpt lat="43.27959" lon="3.27436">
        <ele>43.265862</ele>
        <time>2023-01-07T15:17:21.094Z</time>
      </trkpt>
      <trkpt lat="43.27967" lon="3.27443">
        <ele>43.299255</ele>
        <time>2023-01-07T15:17:23.089Z</time>
      </trkpt>
      <trkpt lat="43.27976" lon="3.2745">
        <ele>43.227589</ele>
        <time>2023-01-07T15:17:25.115Z</time>
      </trkpt>
      <trkpt lat="43.27984" lon="3.27457">
        <ele>43.147596</ele>
        <time>2023-01-07T15:17:27.101Z</time>
      </trkpt>
      <trkpt lat="43.27992" lon="3.27463">
        <ele>43.070583</ele>
        <time>2023-01-07T15:17:29.103Z</time>
      </trkpt>
      <trkpt lat="43.28" lon="3.2747">
        <ele>42.992115</ele>
        <time>2023-01-07T15:17:31.099Z</time>
      </trkpt>
      <trkpt lat="43.28008" lon="3.27476">
        <ele>42.913646</ele>
        <time>2023-01-07T15:17:33.105Z</time>
      </trkpt>
      <trkpt lat="43.28016" lon="3.27483">
        <ele>42.832926</ele>
        <time>2023-01-07T15:17:35.100Z</time>
      </trkpt>
      <trkpt lat="43.28025" lon="3.27488">
        <ele>42.753843</ele>
        <time>2023-01-07T15:17:37.107Z</time>
      </trkpt>
      <trkpt lat="43.28037" lon="3.275">
        <ele>42.628564</ele>
        <time>2023-01-07T15:17:40.107Z</time>
      </trkpt>
      <trkpt lat="43.28049" lon="3.2751">
        <ele>42.509189</ele>
        <time>2023-01-07T15:17:43.111Z</time>
      </trkpt>
      <trkpt lat="43.28058" lon="3.27518">
        <ele>42.424529</ele>
        <time>2023-01-07T15:17:45.097Z</time>
      </trkpt>
      <trkpt lat="43.2807" lon="3.27528">
        <ele>42.301842</ele>
        <time>2023-01-07T15:17:48.113Z</time>
      </trkpt>
      <trkpt lat="43.2808" lon="3.27536">
        <ele>42.207016</ele>
        <time>2023-01-07T15:17:50.114Z</time>
      </trkpt>
      <trkpt lat="43.28088" lon="3.27543">
        <ele>42.128596</ele>
        <time>2023-01-07T15:17:52.101Z</time>
      </trkpt>
      <trkpt lat="43.28096" lon="3.2755">
        <ele>42.049946</ele>
        <time>2023-01-07T15:17:54.093Z</time>
      </trkpt>
      <trkpt lat="43.28105" lon="3.2756">
        <ele>41.952516</ele>
        <time>2023-01-07T15:17:57.105Z</time>
      </trkpt>
      <trkpt lat="43.28111" lon="3.27569">
        <ele>41.874439</ele>
        <time>2023-01-07T15:18:00.111Z</time>
      </trkpt>
      <trkpt lat="43.2812" lon="3.27577">
        <ele>41.790557</ele>
        <time>2023-01-07T15:18:05.106Z</time>
      </trkpt>
      <trkpt lat="43.28129" lon="3.27586">
        <ele>41.803604</ele>
        <time>2023-01-07T15:18:09.085Z</time>
      </trkpt>
      <trkpt lat="43.28136" lon="3.27593">
        <ele>41.815216</ele>
        <time>2023-01-07T15:18:12.107Z</time>
      </trkpt>
      <trkpt lat="43.28143" lon="3.27601">
        <ele>41.826601</ele>
        <time>2023-01-07T15:18:15.105Z</time>
      </trkpt>
      <trkpt lat="43.28151" lon="3.2761">
        <ele>41.839542</ele>
        <time>2023-01-07T15:18:18.098Z</time>
      </trkpt>
      <trkpt lat="43.28159" lon="3.27619">
        <ele>41.852637</ele>
        <time>2023-01-07T15:18:21.082Z</time>
      </trkpt>
      <trkpt lat="43.28168" lon="3.27628">
        <ele>41.866053</ele>
        <time>2023-01-07T15:18:24.088Z</time>
      </trkpt>
      <trkpt lat="43.28177" lon="3.27638">
        <ele>41.879788</ele>
        <time>2023-01-07T15:18:27.097Z</time>
      </trkpt>
      <trkpt lat="43.28186" lon="3.27646">
        <ele>41.8935</ele>
        <time>2023-01-07T15:18:30.114Z</time>
      </trkpt>
      <trkpt lat="43.28193" lon="3.27654">
        <ele>41.905541</ele>
        <time>2023-01-07T15:18:33.104Z</time>
      </trkpt>
      <trkpt lat="43.28203" lon="3.27664">
        <ele>41.920591</ele>
        <time>2023-01-07T15:18:37.135Z</time>
      </trkpt>
      <trkpt lat="43.28211" lon="3.27672">
        <ele>41.932744</ele>
        <time>2023-01-07T15:18:40.107Z</time>
      </trkpt>
      <trkpt lat="43.28221" lon="3.27681">
        <ele>41.947486</ele>
        <time>2023-01-07T15:18:44.096Z</time>
      </trkpt>
      <trkpt lat="43.2823" lon="3.27689">
        <ele>41.961206</ele>
        <time>2023-01-07T15:18:48.098Z</time>
      </trkpt>
      <trkpt lat="43.28237" lon="3.27698">
        <ele>41.973013</ele>
        <time>2023-01-07T15:18:52.085Z</time>
      </trkpt>
      <trkpt lat="43.28245" lon="3.27708">
        <ele>41.986163</ele>
        <time>2023-01-07T15:18:56.107Z</time>
      </trkpt>
      <trkpt lat="43.28253" lon="3.27717">
        <ele>41.999047</ele>
        <time>2023-01-07T15:19:00.107Z</time>
      </trkpt>
      <trkpt lat="43.2826" lon="3.27728">
        <ele>42.01233</ele>
        <time>2023-01-07T15:19:04.116Z</time>
      </trkpt>
      <trkpt lat="43.28267" lon="3.27735">
        <ele>42.07032</ele>
        <time>2023-01-07T15:19:07.108Z</time>
      </trkpt>
      <trkpt lat="43.28275" lon="3.27742">
        <ele>42.13594</ele>
        <time>2023-01-07T15:19:10.097Z</time>
      </trkpt>
      <trkpt lat="43.28284" lon="3.27752">
        <ele>42.217945</ele>
        <time>2023-01-07T15:19:14.091Z</time>
      </trkpt>
      <trkpt lat="43.28293" lon="3.27762">
        <ele>42.298653</ele>
        <time>2023-01-07T15:19:18.098Z</time>
      </trkpt>
      <trkpt lat="43.283" lon="3.27773">
        <ele>42.368924</ele>
        <time>2023-01-07T15:19:22.115Z</time>
      </trkpt>
      <trkpt lat="43.28308" lon="3.27783">
        <ele>42.44734</ele>
        <time>2023-01-07T15:19:26.106Z</time>
      </trkpt>
      <trkpt lat="43.28317" lon="3.27792">
        <ele>42.526223</ele>
        <time>2023-01-07T15:19:30.096Z</time>
      </trkpt>
      <trkpt lat="43.28323" lon="3.27803">
        <ele>42.596807</ele>
        <time>2023-01-07T15:19:33.095Z</time>
      </trkpt>
      <trkpt lat="43.28335" lon="3.2781">
        <ele>42.686039</ele>
        <time>2023-01-07T15:19:37.085Z</time>
      </trkpt>
      <trkpt lat="43.28342" lon="3.27817">
        <ele>42.749615</ele>
        <time>2023-01-07T15:19:40.098Z</time>
      </trkpt>
      <trkpt lat="43.28355" lon="3.27821">
        <ele>42.839258</ele>
        <time>2023-01-07T15:19:43.103Z</time>
      </trkpt>
      <trkpt lat="43.28364" lon="3.2783">
        <ele>42.914948</ele>
        <time>2023-01-07T15:19:46.110Z</time>
      </trkpt>
      <trkpt lat="43.28372" lon="3.27838">
        <ele>42.985152</ele>
        <time>2023-01-07T15:19:49.102Z</time>
      </trkpt>
      <trkpt lat="43.2838" lon="3.27845">
        <ele>43.053057</ele>
        <time>2023-01-07T15:19:52.102Z</time>
      </trkpt>
      <trkpt lat="43.28389" lon="3.27853">
        <ele>43.130374</ele>
        <time>2023-01-07T15:19:55.104Z</time>
      </trkpt>
      <trkpt lat="43.28398" lon="3.2786">
        <ele>43.204425</ele>
        <time>2023-01-07T15:19:58.105Z</time>
      </trkpt>
      <trkpt lat="43.28409" lon="3.27867">
        <ele>43.287848</ele>
        <time>2023-01-07T15:20:02.103Z</time>
      </trkpt>
      <trkpt lat="43.2842" lon="3.27875">
        <ele>43.37183</ele>
        <time>2023-01-07T15:20:05.087Z</time>
      </trkpt>
      <trkpt lat="43.28429" lon="3.27885">
        <ele>43.456344</ele>
        <time>2023-01-07T15:20:08.087Z</time>
      </trkpt>
      <trkpt lat="43.28438" lon="3.27893">
        <ele>43.531783</ele>
        <time>2023-01-07T15:20:11.108Z</time>
      </trkpt>
      <trkpt lat="43.28443" lon="3.27906">
        <ele>43.607069</ele>
        <time>2023-01-07T15:20:15.084Z</time>
      </trkpt>
      <trkpt lat="43.2845" lon="3.2792">
        <ele>43.695502</ele>
        <time>2023-01-07T15:20:19.107Z</time>
      </trkpt>
      <trkpt lat="43.28455" lon="3.27931">
        <ele>43.761599</ele>
        <time>2023-01-07T15:20:22.101Z</time>
      </trkpt>
      <trkpt lat="43.28459" lon="3.27944">
        <ele>43.835404</ele>
        <time>2023-01-07T15:20:25.097Z</time>
      </trkpt>
      <trkpt lat="43.28453" lon="3.27958">
        <ele>43.921574</ele>
        <time>2023-01-07T15:20:28.096Z</time>
      </trkpt>
      <trkpt lat="43.28446" lon="3.2797">
        <ele>43.999834</ele>
        <time>2023-01-07T15:20:31.095Z</time>
      </trkpt>
      <trkpt lat="43.28439" lon="3.27982">
        <ele>44.082863</ele>
        <time>2023-01-07T15:20:35.086Z</time>
      </trkpt>
      <trkpt lat="43.28433" lon="3.27996">
        <ele>44.162683</ele>
        <time>2023-01-07T15:20:39.081Z</time>
      </trkpt>
      <trkpt lat="43.2843" lon="3.28008">
        <ele>44.22747</ele>
        <time>2023-01-07T15:20:42.105Z</time>
      </trkpt>
      <trkpt lat="43.28434" lon="3.28019">
        <ele>44.291993</ele>
        <time>2023-01-07T15:20:45.104Z</time>
      </trkpt>
      <trkpt lat="43.28442" lon="3.28028">
        <ele>44.367431</ele>
        <time>2023-01-07T15:20:48.086Z</time>
      </trkpt>
      <trkpt lat="43.28448" lon="3.2804">
        <ele>44.444198</ele>
        <time>2023-01-07T15:20:51.106Z</time>
      </trkpt>
      <trkpt lat="43.28455" lon="3.2805">
        <ele>44.515941</ele>
        <time>2023-01-07T15:20:54.105Z</time>
      </trkpt>
      <trkpt lat="43.28462" lon="3.28062">
        <ele>44.625802</ele>
        <time>2023-01-07T15:20:57.104Z</time>
      </trkpt>
      <trkpt lat="43.28469" lon="3.28074">
        <ele>44.74955</ele>
        <time>2023-01-07T15:21:00.113Z</time>
      </trkpt>
      <trkpt lat="43.28475" lon="3.28085">
        <ele>44.870578</ele>
        <time>2023-01-07T15:21:03.108Z</time>
      </trkpt>
      <trkpt lat="43.28481" lon="3.28096">
        <ele>44.9846</ele>
        <time>2023-01-07T15:21:06.104Z</time>
      </trkpt>
      <trkpt lat="43.28487" lon="3.28107">
        <ele>45.106178</ele>
        <time>2023-01-07T15:21:09.112Z</time>
      </trkpt>
      <trkpt lat="43.28494" lon="3.28119">
        <ele>45.234038</ele>
        <time>2023-01-07T15:21:13.092Z</time>
      </trkpt>
      <trkpt lat="43.28501" lon="3.28131">
        <ele>45.368208</ele>
        <time>2023-01-07T15:21:17.109Z</time>
      </trkpt>
      <trkpt lat="43.28509" lon="3.28143">
        <ele>45.50834</ele>
        <time>2023-01-07T15:21:21.100Z</time>
      </trkpt>
      <trkpt lat="43.28516" lon="3.28155">
        <ele>45.634051</ele>
        <time>2023-01-07T15:21:24.118Z</time>
      </trkpt>
      <trkpt lat="43.28522" lon="3.28167">
        <ele>45.758386</ele>
        <time>2023-01-07T15:21:27.110Z</time>
      </trkpt>
      <trkpt lat="43.28528" lon="3.28181">
        <ele>45.897141</ele>
        <time>2023-01-07T15:21:30.105Z</time>
      </trkpt>
      <trkpt lat="43.28531" lon="3.28197">
        <ele>46.038598</ele>
        <time>2023-01-07T15:21:33.112Z</time>
      </trkpt>
      <trkpt lat="43.28525" lon="3.28211">
        <ele>46.169719</ele>
        <time>2023-01-07T15:21:36.091Z</time>
      </trkpt>
      <trkpt lat="43.28516" lon="3.28221">
        <ele>46.30744</ele>
        <time>2023-01-07T15:21:39.109Z</time>
      </trkpt>
      <trkpt lat="43.28506" lon="3.2823">
        <ele>46.447903</ele>
        <time>2023-01-07T15:21:42.102Z</time>
      </trkpt>
      <trkpt lat="43.28496" lon="3.28238">
        <ele>46.586139</ele>
        <time>2023-01-07T15:21:45.096Z</time>
      </trkpt>
      <trkpt lat="43.28486" lon="3.28246">
        <ele>46.504242</ele>
        <time>2023-01-07T15:21:48.098Z</time>
      </trkpt>
      <trkpt lat="43.28477" lon="3.28253">
        <ele>46.23553</ele>
        <time>2023-01-07T15:21:51.102Z</time>
      </trkpt>
      <trkpt lat="43.28469" lon="3.28261">
        <ele>45.98977</ele>
        <time>2023-01-07T15:21:54.104Z</time>
      </trkpt>
      <trkpt lat="43.2846" lon="3.28268">
        <ele>45.722011</ele>
        <time>2023-01-07T15:21:58.098Z</time>
      </trkpt>
      <trkpt lat="43.2845" lon="3.28275">
        <ele>45.43514</ele>
        <time>2023-01-07T15:22:02.083Z</time>
      </trkpt>
      <trkpt lat="43.28441" lon="3.2828">
        <ele>45.195125</ele>
        <time>2023-01-07T15:22:05.107Z</time>
      </trkpt>
      <trkpt lat="43.28432" lon="3.28287">
        <ele>44.929576</ele>
        <time>2023-01-07T15:22:09.112Z</time>
      </trkpt>
      <trkpt lat="43.28422" lon="3.28296">
        <ele>44.625209</ele>
        <time>2023-01-07T15:22:13.107Z</time>
      </trkpt>
      <trkpt lat="43.28415" lon="3.28305">
        <ele>44.38502</ele>
        <time>2023-01-07T15:22:16.098Z</time>
      </trkpt>
      <trkpt lat="43.28407" lon="3.28313">
        <ele>44.143434</ele>
        <time>2023-01-07T15:22:19.083Z</time>
      </trkpt>
      <trkpt lat="43.28399" lon="3.28321">
        <ele>43.878815</ele>
        <time>2023-01-07T15:22:22.113Z</time>
      </trkpt>
      <trkpt lat="43.2839" lon="3.28332">
        <ele>43.580034</ele>
        <time>2023-01-07T15:22:25.097Z</time>
      </trkpt>
      <trkpt lat="43.28381" lon="3.28344">
        <ele>43.256847</ele>
        <time>2023-01-07T15:22:28.118Z</time>
      </trkpt>
      <trkpt lat="43.28371" lon="3.28355">
        <ele>42.937211</ele>
        <time>2023-01-07T15:22:31.092Z</time>
      </trkpt>
      <trkpt lat="43.28362" lon="3.28365">
        <ele>42.635192</ele>
        <time>2023-01-07T15:22:34.118Z</time>
      </trkpt>
      <trkpt lat="43.28353" lon="3.28375">
        <ele>42.337173</ele>
        <time>2023-01-07T15:22:37.084Z</time>
      </trkpt>
      <trkpt lat="43.28344" lon="3.28386">
        <ele>42.047611</ele>
        <time>2023-01-07T15:22:40.115Z</time>
      </trkpt>
      <trkpt lat="43.28336" lon="3.28396">
        <ele>41.754765</ele>
        <time>2023-01-07T15:22:43.105Z</time>
      </trkpt>
      <trkpt lat="43.28328" lon="3.28406">
        <ele>41.473581</ele>
        <time>2023-01-07T15:22:46.105Z</time>
      </trkpt>
      <trkpt lat="43.2832" lon="3.28412">
        <ele>41.209119</ele>
        <time>2023-01-07T15:22:49.099Z</time>
      </trkpt>
      <trkpt lat="43.28311" lon="3.2842">
        <ele>40.933503</ele>
        <time>2023-01-07T15:22:52.110Z</time>
      </trkpt>
      <trkpt lat="43.28305" lon="3.28432">
        <ele>40.639751</ele>
        <time>2023-01-07T15:22:55.101Z</time>
      </trkpt>
      <trkpt lat="43.28295" lon="3.28444">
        <ele>40.293486</ele>
        <time>2023-01-07T15:22:58.112Z</time>
      </trkpt>
      <trkpt lat="43.28286" lon="3.28456">
        <ele>39.941941</ele>
        <time>2023-01-07T15:23:01.103Z</time>
      </trkpt>
      <trkpt lat="43.28278" lon="3.28465">
        <ele>39.689256</ele>
        <time>2023-01-07T15:23:03.098Z</time>
      </trkpt>
      <trkpt lat="43.28271" lon="3.28474">
        <ele>39.426651</ele>
        <time>2023-01-07T15:23:05.117Z</time>
      </trkpt>
      <trkpt lat="43.28263" lon="3.28482">
        <ele>39.154352</ele>
        <time>2023-01-07T15:23:07.085Z</time>
      </trkpt>
      <trkpt lat="43.28255" lon="3.2849">
        <ele>38.89318</ele>
        <time>2023-01-07T15:23:09.094Z</time>
      </trkpt>
      <trkpt lat="43.28248" lon="3.28499">
        <ele>38.628613</ele>
        <time>2023-01-07T15:23:11.104Z</time>
      </trkpt>
      <trkpt lat="43.28241" lon="3.28508">
        <ele>38.381247</ele>
        <time>2023-01-07T15:23:13.107Z</time>
      </trkpt>
      <trkpt lat="43.28235" lon="3.28518">
        <ele>38.121181</ele>
        <time>2023-01-07T15:23:15.102Z</time>
      </trkpt>
      <trkpt lat="43.28228" lon="3.28527">
        <ele>37.861822</ele>
        <time>2023-01-07T15:23:17.094Z</time>
      </trkpt>
      <trkpt lat="43.28221" lon="3.28536">
        <ele>37.615147</ele>
        <time>2023-01-07T15:23:19.099Z</time>
      </trkpt>
      <trkpt lat="43.28212" lon="3.28548">
        <ele>37.274535</ele>
        <time>2023-01-07T15:23:22.094Z</time>
      </trkpt>
      <trkpt lat="43.28204" lon="3.28561">
        <ele>37.414281</ele>
        <time>2023-01-07T15:23:25.101Z</time>
      </trkpt>
      <trkpt lat="43.28195" lon="3.28573">
        <ele>37.573632</ele>
        <time>2023-01-07T15:23:28.090Z</time>
      </trkpt>
      <trkpt lat="43.28189" lon="3.28583">
        <ele>37.700111</ele>
        <time>2023-01-07T15:23:31.102Z</time>
      </trkpt>
      <trkpt lat="43.28181" lon="3.28596">
        <ele>37.855526</ele>
        <time>2023-01-07T15:23:35.107Z</time>
      </trkpt>
      <trkpt lat="43.28175" lon="3.28606">
        <ele>37.975829</ele>
        <time>2023-01-07T15:23:38.097Z</time>
      </trkpt>
      <trkpt lat="43.28169" lon="3.28618">
        <ele>38.121151</ele>
        <time>2023-01-07T15:23:42.103Z</time>
      </trkpt>
      <trkpt lat="43.28159" lon="3.28642">
        <ele>38.370153</ele>
        <time>2023-01-07T15:24:30.094Z</time>
      </trkpt>
      <trkpt lat="43.28155" lon="3.28656">
        <ele>38.517367</ele>
        <time>2023-01-07T15:24:33.107Z</time>
      </trkpt>
      <trkpt lat="43.28151" lon="3.28672">
        <ele>38.677004</ele>
        <time>2023-01-07T15:24:36.104Z</time>
      </trkpt>
      <trkpt lat="43.28146" lon="3.28686">
        <ele>38.824452</ele>
        <time>2023-01-07T15:24:39.106Z</time>
      </trkpt>
      <trkpt lat="43.28143" lon="3.28703">
        <ele>38.984354</ele>
        <time>2023-01-07T15:24:42.094Z</time>
      </trkpt>
      <trkpt lat="43.28139" lon="3.28718">
        <ele>39.13885</ele>
        <time>2023-01-07T15:24:45.089Z</time>
      </trkpt>
      <trkpt lat="43.28136" lon="3.28734">
        <ele>39.288761</ele>
        <time>2023-01-07T15:24:48.090Z</time>
      </trkpt>
      <trkpt lat="43.28133" lon="3.28749">
        <ele>39.440551</ele>
        <time>2023-01-07T15:24:51.089Z</time>
      </trkpt>
      <trkpt lat="43.2813" lon="3.28762">
        <ele>39.570566</ele>
        <time>2023-01-07T15:24:54.091Z</time>
      </trkpt>
      <trkpt lat="43.28126" lon="3.28776">
        <ele>39.468162</ele>
        <time>2023-01-07T15:24:57.109Z</time>
      </trkpt>
      <trkpt lat="43.28121" lon="3.2879">
        <ele>39.338838</ele>
        <time>2023-01-07T15:25:00.096Z</time>
      </trkpt>
      <trkpt lat="43.2812" lon="3.28804">
        <ele>39.214687</ele>
        <time>2023-01-07T15:25:03.096Z</time>
      </trkpt>
      <trkpt lat="43.28119" lon="3.28818">
        <ele>39.093272</ele>
        <time>2023-01-07T15:25:06.093Z</time>
      </trkpt>
      <trkpt lat="43.2812" lon="3.28834">
        <ele>38.960759</ele>
        <time>2023-01-07T15:25:09.094Z</time>
      </trkpt>
      <trkpt lat="43.2812" lon="3.28849">
        <ele>38.823902</ele>
        <time>2023-01-07T15:25:12.082Z</time>
      </trkpt>
      <trkpt lat="43.2812" lon="3.28866">
        <ele>38.68363</ele>
        <time>2023-01-07T15:25:15.085Z</time>
      </trkpt>
      <trkpt lat="43.28121" lon="3.28883">
        <ele>38.536877</ele>
        <time>2023-01-07T15:25:18.086Z</time>
      </trkpt>
      <trkpt lat="43.28122" lon="3.289">
        <ele>38.386783</ele>
        <time>2023-01-07T15:25:21.088Z</time>
      </trkpt>
      <trkpt lat="43.28123" lon="3.28918">
        <ele>38.233005</ele>
        <time>2023-01-07T15:25:24.086Z</time>
      </trkpt>
      <trkpt lat="43.28125" lon="3.28935">
        <ele>38.083806</ele>
        <time>2023-01-07T15:25:27.090Z</time>
      </trkpt>
      <trkpt lat="43.28127" lon="3.28953">
        <ele>37.930534</ele>
        <time>2023-01-07T15:25:30.090Z</time>
      </trkpt>
      <trkpt lat="43.28128" lon="3.28971">
        <ele>37.773061</ele>
        <time>2023-01-07T15:25:33.087Z</time>
      </trkpt>
      <trkpt lat="43.2813" lon="3.28989">
        <ele>37.61603</ele>
        <time>2023-01-07T15:25:36.091Z</time>
      </trkpt>
      <trkpt lat="43.28132" lon="3.29007">
        <ele>37.462704</ele>
        <time>2023-01-07T15:25:39.095Z</time>
      </trkpt>
      <trkpt lat="43.28133" lon="3.29024">
        <ele>37.64235</ele>
        <time>2023-01-07T15:25:42.090Z</time>
      </trkpt>
      <trkpt lat="43.28135" lon="3.29042">
        <ele>37.836043</ele>
        <time>2023-01-07T15:25:45.095Z</time>
      </trkpt>
      <trkpt lat="43.28136" lon="3.2906">
        <ele>38.026544</ele>
        <time>2023-01-07T15:25:48.094Z</time>
      </trkpt>
      <trkpt lat="43.28137" lon="3.29077">
        <ele>38.210359</ele>
        <time>2023-01-07T15:25:51.105Z</time>
      </trkpt>
      <trkpt lat="43.28139" lon="3.29094">
        <ele>38.396502</ele>
        <time>2023-01-07T15:25:54.096Z</time>
      </trkpt>
      <trkpt lat="43.28141" lon="3.29112">
        <ele>38.584164</ele>
        <time>2023-01-07T15:25:57.101Z</time>
      </trkpt>
      <trkpt lat="43.28143" lon="3.29129">
        <ele>38.771152</ele>
        <time>2023-01-07T15:26:00.095Z</time>
      </trkpt>
      <trkpt lat="43.28145" lon="3.29146">
        <ele>38.958139</ele>
        <time>2023-01-07T15:26:03.109Z</time>
      </trkpt>
      <trkpt lat="43.28146" lon="3.29164">
        <ele>39.152896</ele>
        <time>2023-01-07T15:26:06.103Z</time>
      </trkpt>
      <trkpt lat="43.28148" lon="3.29183">
        <ele>39.354291</ele>
        <time>2023-01-07T15:26:09.100Z</time>
      </trkpt>
      <trkpt lat="43.28149" lon="3.29201">
        <ele>39.550543</ele>
        <time>2023-01-07T15:26:12.102Z</time>
      </trkpt>
      <trkpt lat="43.28151" lon="3.29219">
        <ele>39.74546</ele>
        <time>2023-01-07T15:26:15.108Z</time>
      </trkpt>
      <trkpt lat="43.28153" lon="3.29237">
        <ele>39.939865</ele>
        <time>2023-01-07T15:26:18.085Z</time>
      </trkpt>
      <trkpt lat="43.28154" lon="3.2925">
        <ele>40.079417</ele>
        <time>2023-01-07T15:26:20.091Z</time>
      </trkpt>
      <trkpt lat="43.28156" lon="3.29263">
        <ele>40.059166</ele>
        <time>2023-01-07T15:26:22.091Z</time>
      </trkpt>
      <trkpt lat="43.28157" lon="3.29276">
        <ele>40.005344</ele>
        <time>2023-01-07T15:26:24.089Z</time>
      </trkpt>
      <trkpt lat="43.28159" lon="3.29289">
        <ele>39.953434</ele>
        <time>2023-01-07T15:26:26.105Z</time>
      </trkpt>
      <trkpt lat="43.28162" lon="3.29303">
        <ele>39.899769</ele>
        <time>2023-01-07T15:26:28.107Z</time>
      </trkpt>
      <trkpt lat="43.28164" lon="3.29316">
        <ele>39.84786</ele>
        <time>2023-01-07T15:26:30.099Z</time>
      </trkpt>
      <trkpt lat="43.28165" lon="3.2933">
        <ele>39.792787</ele>
        <time>2023-01-07T15:26:32.097Z</time>
      </trkpt>
      <trkpt lat="43.28166" lon="3.29343">
        <ele>39.739132</ele>
        <time>2023-01-07T15:26:34.098Z</time>
      </trkpt>
      <trkpt lat="43.28168" lon="3.29356">
        <ele>39.690029</ele>
        <time>2023-01-07T15:26:36.093Z</time>
      </trkpt>
      <trkpt lat="43.2817" lon="3.29373">
        <ele>39.62198</ele>
        <time>2023-01-07T15:26:39.087Z</time>
      </trkpt>
      <trkpt lat="43.28172" lon="3.29389">
        <ele>39.557599</ele>
        <time>2023-01-07T15:26:42.103Z</time>
      </trkpt>
      <trkpt lat="43.28174" lon="3.29406">
        <ele>39.491097</ele>
        <time>2023-01-07T15:26:45.091Z</time>
      </trkpt>
      <trkpt lat="43.28177" lon="3.29423">
        <ele>39.423517</ele>
        <time>2023-01-07T15:26:48.100Z</time>
      </trkpt>
      <trkpt lat="43.28179" lon="3.29435">
        <ele>39.372866</ele>
        <time>2023-01-07T15:26:50.098Z</time>
      </trkpt>
      <trkpt lat="43.28182" lon="3.29453">
        <ele>39.300575</ele>
        <time>2023-01-07T15:26:53.098Z</time>
      </trkpt>
      <trkpt lat="43.28183" lon="3.29467">
        <ele>39.245803</ele>
        <time>2023-01-07T15:26:55.097Z</time>
      </trkpt>
      <trkpt lat="43.28186" lon="3.2948">
        <ele>39.194802</ele>
        <time>2023-01-07T15:26:57.093Z</time>
      </trkpt>
      <trkpt lat="43.28188" lon="3.29493">
        <ele>39.142915</ele>
        <time>2023-01-07T15:26:59.106Z</time>
      </trkpt>
      <trkpt lat="43.2819" lon="3.29508">
        <ele>39.050783</ele>
        <time>2023-01-07T15:27:01.100Z</time>
      </trkpt>
      <trkpt lat="43.28191" lon="3.2952">
        <ele>38.967904</ele>
        <time>2023-01-07T15:27:03.098Z</time>
      </trkpt>
      <trkpt lat="43.28194" lon="3.29538">
        <ele>38.846622</ele>
        <time>2023-01-07T15:27:06.090Z</time>
      </trkpt>
      <trkpt lat="43.28196" lon="3.29551">
        <ele>38.765281</ele>
        <time>2023-01-07T15:27:08.092Z</time>
      </trkpt>
      <trkpt lat="43.28199" lon="3.29569">
        <ele>38.643369</ele>
        <time>2023-01-07T15:27:11.086Z</time>
      </trkpt>
      <trkpt lat="43.28202" lon="3.29586">
        <ele>38.529561</ele>
        <time>2023-01-07T15:27:14.097Z</time>
      </trkpt>
      <trkpt lat="43.28205" lon="3.29604">
        <ele>38.410661</ele>
        <time>2023-01-07T15:27:17.093Z</time>
      </trkpt>
      <trkpt lat="43.28207" lon="3.2962">
        <ele>38.300463</ele>
        <time>2023-01-07T15:27:20.096Z</time>
      </trkpt>
      <trkpt lat="43.28209" lon="3.29635">
        <ele>38.202074</ele>
        <time>2023-01-07T15:27:23.094Z</time>
      </trkpt>
      <trkpt lat="43.28211" lon="3.29649">
        <ele>38.10939</ele>
        <time>2023-01-07T15:27:26.102Z</time>
      </trkpt>
      <trkpt lat="43.28213" lon="3.29663">
        <ele>38.020761</ele>
        <time>2023-01-07T15:27:29.086Z</time>
      </trkpt>
      <trkpt lat="43.28214" lon="3.29676">
        <ele>37.935492</ele>
        <time>2023-01-07T15:27:32.091Z</time>
      </trkpt>
      <trkpt lat="43.28216" lon="3.2969">
        <ele>37.841883</ele>
        <time>2023-01-07T15:27:35.100Z</time>
      </trkpt>
      <trkpt lat="43.28218" lon="3.29705">
        <ele>37.741046</ele>
        <time>2023-01-07T15:27:38.101Z</time>
      </trkpt>
      <trkpt lat="43.2822" lon="3.29721">
        <ele>37.6353</ele>
        <time>2023-01-07T15:27:41.094Z</time>
      </trkpt>
      <trkpt lat="43.28221" lon="3.29738">
        <ele>37.528019</ele>
        <time>2023-01-07T15:27:44.100Z</time>
      </trkpt>
      <trkpt lat="43.28224" lon="3.29755">
        <ele>37.49812</ele>
        <time>2023-01-07T15:27:47.084Z</time>
      </trkpt>
      <trkpt lat="43.28226" lon="3.29771">
        <ele>37.469553</ele>
        <time>2023-01-07T15:27:50.094Z</time>
      </trkpt>
      <trkpt lat="43.28227" lon="3.29786">
        <ele>37.442998</ele>
        <time>2023-01-07T15:27:53.093Z</time>
      </trkpt>
      <trkpt lat="43.28229" lon="3.29801">
        <ele>37.416043</ele>
        <time>2023-01-07T15:27:56.101Z</time>
      </trkpt>
      <trkpt lat="43.2823" lon="3.29817">
        <ele>37.387869</ele>
        <time>2023-01-07T15:27:59.094Z</time>
      </trkpt>
      <trkpt lat="43.28232" lon="3.29833">
        <ele>37.359736</ele>
        <time>2023-01-07T15:28:02.091Z</time>
      </trkpt>
      <trkpt lat="43.28233" lon="3.29849">
        <ele>37.331586</ele>
        <time>2023-01-07T15:28:05.088Z</time>
      </trkpt>
      <trkpt lat="43.28234" lon="3.29865">
        <ele>37.302912</ele>
        <time>2023-01-07T15:28:08.084Z</time>
      </trkpt>
      <trkpt lat="43.28235" lon="3.29881">
        <ele>37.274311</ele>
        <time>2023-01-07T15:28:11.091Z</time>
      </trkpt>
      <trkpt lat="43.28235" lon="3.29897">
        <ele>37.245919</ele>
        <time>2023-01-07T15:28:14.095Z</time>
      </trkpt>
      <trkpt lat="43.28236" lon="3.29914">
        <ele>37.216268</ele>
        <time>2023-01-07T15:28:17.093Z</time>
      </trkpt>
      <trkpt lat="43.28236" lon="3.2993">
        <ele>37.188593</ele>
        <time>2023-01-07T15:28:20.086Z</time>
      </trkpt>
      <trkpt lat="43.28236" lon="3.29946">
        <ele>37.160388</ele>
        <time>2023-01-07T15:28:23.103Z</time>
      </trkpt>
      <trkpt lat="43.28237" lon="3.29964">
        <ele>37.130051</ele>
        <time>2023-01-07T15:28:26.096Z</time>
      </trkpt>
      <trkpt lat="43.28236" lon="3.2998">
        <ele>37.101483</ele>
        <time>2023-01-07T15:28:29.100Z</time>
      </trkpt>
      <trkpt lat="43.28237" lon="3.29996">
        <ele>36.949401</ele>
        <time>2023-01-07T15:28:32.087Z</time>
      </trkpt>
      <trkpt lat="43.28237" lon="3.30011">
        <ele>36.780138</ele>
        <time>2023-01-07T15:28:35.095Z</time>
      </trkpt>
      <trkpt lat="43.28238" lon="3.30027">
        <ele>36.59788</ele>
        <time>2023-01-07T15:28:38.091Z</time>
      </trkpt>
      <trkpt lat="43.28237" lon="3.30044">
        <ele>36.415124</ele>
        <time>2023-01-07T15:28:41.102Z</time>
      </trkpt>
      <trkpt lat="43.28236" lon="3.3006">
        <ele>36.228016</ele>
        <time>2023-01-07T15:28:44.088Z</time>
      </trkpt>
      <trkpt lat="43.28236" lon="3.30076">
        <ele>36.050249</ele>
        <time>2023-01-07T15:28:47.104Z</time>
      </trkpt>
      <trkpt lat="43.28237" lon="3.30092">
        <ele>35.87376</ele>
        <time>2023-01-07T15:28:50.100Z</time>
      </trkpt>
      <trkpt lat="43.28237" lon="3.30108">
        <ele>35.690352</ele>
        <time>2023-01-07T15:28:53.095Z</time>
      </trkpt>
      <trkpt lat="43.28238" lon="3.30126">
        <ele>35.496642</ele>
        <time>2023-01-07T15:28:56.093Z</time>
      </trkpt>
      <trkpt lat="43.28238" lon="3.30144">
        <ele>35.290926</ele>
        <time>2023-01-07T15:28:59.090Z</time>
      </trkpt>
      <trkpt lat="43.28239" lon="3.30161">
        <ele>35.100564</ele>
        <time>2023-01-07T15:29:02.091Z</time>
      </trkpt>
      <trkpt lat="43.2824" lon="3.30176">
        <ele>34.931856</ele>
        <time>2023-01-07T15:29:05.100Z</time>
      </trkpt>
      <trkpt lat="43.2824" lon="3.30191">
        <ele>34.767512</ele>
        <time>2023-01-07T15:29:08.096Z</time>
      </trkpt>
      <trkpt lat="43.2824" lon="3.30207">
        <ele>34.588529</ele>
        <time>2023-01-07T15:29:11.103Z</time>
      </trkpt>
      <trkpt lat="43.28241" lon="3.30223">
        <ele>34.410603</ele>
        <time>2023-01-07T15:29:14.096Z</time>
      </trkpt>
      <trkpt lat="43.2824" lon="3.3024">
        <ele>34.361156</ele>
        <time>2023-01-07T15:29:17.097Z</time>
      </trkpt>
      <trkpt lat="43.2824" lon="3.30257">
        <ele>34.407299</ele>
        <time>2023-01-07T15:29:20.088Z</time>
      </trkpt>
      <trkpt lat="43.2824" lon="3.30275">
        <ele>34.453954</ele>
        <time>2023-01-07T15:29:23.098Z</time>
      </trkpt>
      <trkpt lat="43.2824" lon="3.30292">
        <ele>34.499808</ele>
        <time>2023-01-07T15:29:26.104Z</time>
      </trkpt>
      <trkpt lat="43.2824" lon="3.3031">
        <ele>34.548066</ele>
        <time>2023-01-07T15:29:29.085Z</time>
      </trkpt>
      <trkpt lat="43.2824" lon="3.30322">
        <ele>34.581391</ele>
        <time>2023-01-07T15:29:31.104Z</time>
      </trkpt>
      <trkpt lat="43.2824" lon="3.3034">
        <ele>34.629133</ele>
        <time>2023-01-07T15:29:34.092Z</time>
      </trkpt>
      <trkpt lat="43.28239" lon="3.30357">
        <ele>34.674785</ele>
        <time>2023-01-07T15:29:37.090Z</time>
      </trkpt>
      <trkpt lat="43.28238" lon="3.30375">
        <ele>34.723176</ele>
        <time>2023-01-07T15:29:40.104Z</time>
      </trkpt>
      <trkpt lat="43.28238" lon="3.30393">
        <ele>34.77063</ele>
        <time>2023-01-07T15:29:43.096Z</time>
      </trkpt>
      <trkpt lat="43.28238" lon="3.3041">
        <ele>34.815973</ele>
        <time>2023-01-07T15:29:46.102Z</time>
      </trkpt>
      <trkpt lat="43.28237" lon="3.30427">
        <ele>34.861707</ele>
        <time>2023-01-07T15:29:49.104Z</time>
      </trkpt>
      <trkpt lat="43.28236" lon="3.30446">
        <ele>34.910603</ele>
        <time>2023-01-07T15:29:52.097Z</time>
      </trkpt>
      <trkpt lat="43.28235" lon="3.30464">
        <ele>34.958391</ele>
        <time>2023-01-07T15:29:55.099Z</time>
      </trkpt>
      <trkpt lat="43.28234" lon="3.3048">
        <ele>35.056784</ele>
        <time>2023-01-07T15:29:58.095Z</time>
      </trkpt>
      <trkpt lat="43.28233" lon="3.30496">
        <ele>35.31727</ele>
        <time>2023-01-07T15:30:01.092Z</time>
      </trkpt>
      <trkpt lat="43.28232" lon="3.30512">
        <ele>35.598326</ele>
        <time>2023-01-07T15:30:04.103Z</time>
      </trkpt>
      <trkpt lat="43.28231" lon="3.30528">
        <ele>35.871139</ele>
        <time>2023-01-07T15:30:07.102Z</time>
      </trkpt>
      <trkpt lat="43.28231" lon="3.30545">
        <ele>36.14537</ele>
        <time>2023-01-07T15:30:10.092Z</time>
      </trkpt>
      <trkpt lat="43.2823" lon="3.30562">
        <ele>36.430064</ele>
        <time>2023-01-07T15:30:13.083Z</time>
      </trkpt>
      <trkpt lat="43.28229" lon="3.30578">
        <ele>36.713973</ele>
        <time>2023-01-07T15:30:16.093Z</time>
      </trkpt>
      <trkpt lat="43.28228" lon="3.30595">
        <ele>37.001016</ele>
        <time>2023-01-07T15:30:19.084Z</time>
      </trkpt>
      <trkpt lat="43.28227" lon="3.30612">
        <ele>37.28601</ele>
        <time>2023-01-07T15:30:22.096Z</time>
      </trkpt>
      <trkpt lat="43.28226" lon="3.30629">
        <ele>37.563863</ele>
        <time>2023-01-07T15:30:25.086Z</time>
      </trkpt>
      <trkpt lat="43.28225" lon="3.30646">
        <ele>37.854946</ele>
        <time>2023-01-07T15:30:28.096Z</time>
      </trkpt>
      <trkpt lat="43.28224" lon="3.30663">
        <ele>38.148691</ele>
        <time>2023-01-07T15:30:31.087Z</time>
      </trkpt>
      <trkpt lat="43.28223" lon="3.3068">
        <ele>38.427819</ele>
        <time>2023-01-07T15:30:34.087Z</time>
      </trkpt>
      <trkpt lat="43.28221" lon="3.30696">
        <ele>38.697184</ele>
        <time>2023-01-07T15:30:37.086Z</time>
      </trkpt>
      <trkpt lat="43.28219" lon="3.30712">
        <ele>38.973535</ele>
        <time>2023-01-07T15:30:40.110Z</time>
      </trkpt>
      <trkpt lat="43.28217" lon="3.30728">
        <ele>39.185582</ele>
        <time>2023-01-07T15:30:43.091Z</time>
      </trkpt>
      <trkpt lat="43.28213" lon="3.30743">
        <ele>39.292057</ele>
        <time>2023-01-07T15:30:46.086Z</time>
      </trkpt>
      <trkpt lat="43.2821" lon="3.30759">
        <ele>39.404322</ele>
        <time>2023-01-07T15:30:49.084Z</time>
      </trkpt>
      <trkpt lat="43.28207" lon="3.30776">
        <ele>39.515301</ele>
        <time>2023-01-07T15:30:52.097Z</time>
      </trkpt>
      <trkpt lat="43.28204" lon="3.30792">
        <ele>39.626058</ele>
        <time>2023-01-07T15:30:55.091Z</time>
      </trkpt>
      <trkpt lat="43.282" lon="3.30808">
        <ele>39.737117</ele>
        <time>2023-01-07T15:30:58.100Z</time>
      </trkpt>
      <trkpt lat="43.28197" lon="3.30823">
        <ele>39.847308</ele>
        <time>2023-01-07T15:31:01.087Z</time>
      </trkpt>
      <trkpt lat="43.28192" lon="3.3084">
        <ele>39.965219</ele>
        <time>2023-01-07T15:31:04.099Z</time>
      </trkpt>
      <trkpt lat="43.28188" lon="3.30856">
        <ele>40.07846</ele>
        <time>2023-01-07T15:31:07.097Z</time>
      </trkpt>
      <trkpt lat="43.28184" lon="3.30872">
        <ele>40.188294</ele>
        <time>2023-01-07T15:31:10.093Z</time>
      </trkpt>
      <trkpt lat="43.2818" lon="3.30885">
        <ele>40.287598</ele>
        <time>2023-01-07T15:31:13.109Z</time>
      </trkpt>
      <trkpt lat="43.28175" lon="3.30901">
        <ele>40.396885</ele>
        <time>2023-01-07T15:31:16.105Z</time>
      </trkpt>
      <trkpt lat="43.2817" lon="3.30915">
        <ele>40.504795</ele>
        <time>2023-01-07T15:31:19.100Z</time>
      </trkpt>
      <trkpt lat="43.28165" lon="3.30931">
        <ele>40.618815</ele>
        <time>2023-01-07T15:31:22.096Z</time>
      </trkpt>
      <trkpt lat="43.28159" lon="3.30946">
        <ele>40.735212</ele>
        <time>2023-01-07T15:31:25.107Z</time>
      </trkpt>
      <trkpt lat="43.28153" lon="3.30961">
        <ele>40.775747</ele>
        <time>2023-01-07T15:31:28.112Z</time>
      </trkpt>
      <trkpt lat="43.28147" lon="3.30976">
        <ele>40.751544</ele>
        <time>2023-01-07T15:31:31.102Z</time>
      </trkpt>
      <trkpt lat="43.28141" lon="3.30991">
        <ele>40.727118</ele>
        <time>2023-01-07T15:31:34.092Z</time>
      </trkpt>
      <trkpt lat="43.28136" lon="3.31005">
        <ele>40.704387</ele>
        <time>2023-01-07T15:31:37.111Z</time>
      </trkpt>
      <trkpt lat="43.28132" lon="3.31017">
        <ele>40.684473</ele>
        <time>2023-01-07T15:31:40.105Z</time>
      </trkpt>
      <trkpt lat="43.28128" lon="3.31029">
        <ele>40.665463</ele>
        <time>2023-01-07T15:31:43.106Z</time>
      </trkpt>
      <trkpt lat="43.28122" lon="3.31041">
        <ele>40.644428</ele>
        <time>2023-01-07T15:31:46.100Z</time>
      </trkpt>
      <trkpt lat="43.28115" lon="3.31053">
        <ele>40.62224</ele>
        <time>2023-01-07T15:31:49.100Z</time>
      </trkpt>
      <trkpt lat="43.28108" lon="3.31066">
        <ele>40.599456</ele>
        <time>2023-01-07T15:31:52.095Z</time>
      </trkpt>
      <trkpt lat="43.28101" lon="3.31078">
        <ele>40.576784</ele>
        <time>2023-01-07T15:31:55.088Z</time>
      </trkpt>
      <trkpt lat="43.28093" lon="3.31089">
        <ele>40.553883</ele>
        <time>2023-01-07T15:31:58.104Z</time>
      </trkpt>
      <trkpt lat="43.28084" lon="3.31101">
        <ele>40.529954</ele>
        <time>2023-01-07T15:32:01.097Z</time>
      </trkpt>
      <trkpt lat="43.28075" lon="3.31114">
        <ele>40.504575</ele>
        <time>2023-01-07T15:32:04.099Z</time>
      </trkpt>
      <trkpt lat="43.28067" lon="3.31126">
        <ele>40.48044</ele>
        <time>2023-01-07T15:32:07.100Z</time>
      </trkpt>
      <trkpt lat="43.2806" lon="3.31138">
        <ele>40.457961</ele>
        <time>2023-01-07T15:32:10.085Z</time>
      </trkpt>
      <trkpt lat="43.28052" lon="3.31148">
        <ele>40.437484</ele>
        <time>2023-01-07T15:32:13.085Z</time>
      </trkpt>
      <trkpt lat="43.28046" lon="3.31158">
        <ele>40.414981</ele>
        <time>2023-01-07T15:32:16.098Z</time>
      </trkpt>
      <trkpt lat="43.2804" lon="3.31167">
        <ele>40.392944</ele>
        <time>2023-01-07T15:32:19.104Z</time>
      </trkpt>
      <trkpt lat="43.28033" lon="3.31177">
        <ele>40.367586</ele>
        <time>2023-01-07T15:32:23.096Z</time>
      </trkpt>
      <trkpt lat="43.28027" lon="3.31187">
        <ele>40.345586</ele>
        <time>2023-01-07T15:32:27.102Z</time>
      </trkpt>
      <trkpt lat="43.2802" lon="3.31197">
        <ele>40.319941</ele>
        <time>2023-01-07T15:32:31.087Z</time>
      </trkpt>
      <trkpt lat="43.28011" lon="3.31206">
        <ele>40.294821</ele>
        <time>2023-01-07T15:32:35.092Z</time>
      </trkpt>
      <trkpt lat="43.28004" lon="3.31216">
        <ele>40.269806</ele>
        <time>2023-01-07T15:32:40.096Z</time>
      </trkpt>
      <trkpt lat="43.27997" lon="3.31232">
        <ele>40.236125</ele>
        <time>2023-01-07T15:34:10.087Z</time>
      </trkpt>
      <trkpt lat="43.27996" lon="3.31245">
        <ele>40.213025</ele>
        <time>2023-01-07T15:34:15.095Z</time>
      </trkpt>
      <trkpt lat="43.27995" lon="3.31258">
        <ele>40.189622</ele>
        <time>2023-01-07T15:34:19.088Z</time>
      </trkpt>
      <trkpt lat="43.27992" lon="3.31273">
        <ele>40.161045</ele>
        <time>2023-01-07T15:34:23.086Z</time>
      </trkpt>
      <trkpt lat="43.27988" lon="3.31287">
        <ele>40.134889</ele>
        <time>2023-01-07T15:34:27.100Z</time>
      </trkpt>
      <trkpt lat="43.27984" lon="3.31298">
        <ele>40.112808</ele>
        <time>2023-01-07T15:34:30.101Z</time>
      </trkpt>
      <trkpt lat="43.2798" lon="3.3131">
        <ele>40.088958</ele>
        <time>2023-01-07T15:34:33.097Z</time>
      </trkpt>
      <trkpt lat="43.27975" lon="3.31322">
        <ele>40.064879</ele>
        <time>2023-01-07T15:34:36.099Z</time>
      </trkpt>
      <trkpt lat="43.27971" lon="3.31334">
        <ele>40.041463</ele>
        <time>2023-01-07T15:34:39.090Z</time>
      </trkpt>
      <trkpt lat="43.27966" lon="3.31345">
        <ele>40.018281</ele>
        <time>2023-01-07T15:34:42.095Z</time>
      </trkpt>
      <trkpt lat="43.27962" lon="3.31358">
        <ele>39.994173</ele>
        <time>2023-01-07T15:34:45.089Z</time>
      </trkpt>
      <trkpt lat="43.27958" lon="3.31371">
        <ele>40.183502</ele>
        <time>2023-01-07T15:34:48.090Z</time>
      </trkpt>
      <trkpt lat="43.27953" lon="3.31385">
        <ele>40.40282</ele>
        <time>2023-01-07T15:34:51.081Z</time>
      </trkpt>
      <trkpt lat="43.27948" lon="3.314">
        <ele>40.625618</ele>
        <time>2023-01-07T15:34:54.087Z</time>
      </trkpt>
      <trkpt lat="43.27943" lon="3.31414">
        <ele>40.841593</ele>
        <time>2023-01-07T15:34:57.100Z</time>
      </trkpt>
      <trkpt lat="43.27938" lon="3.31427">
        <ele>41.042195</ele>
        <time>2023-01-07T15:35:00.082Z</time>
      </trkpt>
      <trkpt lat="43.27934" lon="3.31439">
        <ele>41.236816</ele>
        <time>2023-01-07T15:35:03.084Z</time>
      </trkpt>
      <trkpt lat="43.2793" lon="3.31451">
        <ele>41.415846</ele>
        <time>2023-01-07T15:35:06.086Z</time>
      </trkpt>
      <trkpt lat="43.27939" lon="3.31445">
        <ele>41.608431</ele>
        <time>2023-01-07T15:35:46.087Z</time>
      </trkpt>
      <trkpt lat="43.27943" lon="3.31431">
        <ele>41.808506</ele>
        <time>2023-01-07T15:35:49.085Z</time>
      </trkpt>
      <trkpt lat="43.27947" lon="3.31417">
        <ele>42.01581</ele>
        <time>2023-01-07T15:35:52.094Z</time>
      </trkpt>
      <trkpt lat="43.27951" lon="3.31404">
        <ele>42.223034</ele>
        <time>2023-01-07T15:35:55.091Z</time>
      </trkpt>
      <trkpt lat="43.27957" lon="3.3139">
        <ele>42.440842</ele>
        <time>2023-01-07T15:35:58.090Z</time>
      </trkpt>
      <trkpt lat="43.27962" lon="3.31376">
        <ele>42.657226</ele>
        <time>2023-01-07T15:36:01.096Z</time>
      </trkpt>
      <trkpt lat="43.27967" lon="3.31362">
        <ele>42.876996</ele>
        <time>2023-01-07T15:36:04.102Z</time>
      </trkpt>
      <trkpt lat="43.27972" lon="3.31348">
        <ele>43.092627</ele>
        <time>2023-01-07T15:36:07.096Z</time>
      </trkpt>
      <trkpt lat="43.27976" lon="3.31334">
        <ele>43.310584</ele>
        <time>2023-01-07T15:36:10.100Z</time>
      </trkpt>
      <trkpt lat="43.27981" lon="3.31319">
        <ele>43.418588</ele>
        <time>2023-01-07T15:36:13.103Z</time>
      </trkpt>
      <trkpt lat="43.27986" lon="3.31306">
        <ele>43.371785</ele>
        <time>2023-01-07T15:36:16.086Z</time>
      </trkpt>
      <trkpt lat="43.27991" lon="3.31293">
        <ele>43.327719</ele>
        <time>2023-01-07T15:36:19.090Z</time>
      </trkpt>
      <trkpt lat="43.27995" lon="3.3128">
        <ele>43.281385</ele>
        <time>2023-01-07T15:36:22.087Z</time>
      </trkpt>
      <trkpt lat="43.27999" lon="3.31267">
        <ele>43.23785</ele>
        <time>2023-01-07T15:36:25.093Z</time>
      </trkpt>
      <trkpt lat="43.28003" lon="3.31255">
        <ele>43.19751</ele>
        <time>2023-01-07T15:36:28.099Z</time>
      </trkpt>
      <trkpt lat="43.28008" lon="3.31241">
        <ele>43.146596</ele>
        <time>2023-01-07T15:36:32.079Z</time>
      </trkpt>
      <trkpt lat="43.28014" lon="3.31229">
        <ele>43.101936</ele>
        <time>2023-01-07T15:36:36.102Z</time>
      </trkpt>
      <trkpt lat="43.28023" lon="3.31233">
        <ele>43.059921</ele>
        <time>2023-01-07T15:36:42.090Z</time>
      </trkpt>
      <trkpt lat="43.28021" lon="3.31247">
        <ele>43.01549</ele>
        <time>2023-01-07T15:36:45.087Z</time>
      </trkpt>
      <trkpt lat="43.28015" lon="3.31261">
        <ele>42.964707</ele>
        <time>2023-01-07T15:36:48.087Z</time>
      </trkpt>
      <trkpt lat="43.28009" lon="3.31272">
        <ele>42.922962</ele>
        <time>2023-01-07T15:36:51.087Z</time>
      </trkpt>
      <trkpt lat="43.28004" lon="3.31285">
        <ele>42.875963</ele>
        <time>2023-01-07T15:36:55.080Z</time>
      </trkpt>
      <trkpt lat="43.28" lon="3.31297">
        <ele>42.835285</ele>
        <time>2023-01-07T15:36:58.085Z</time>
      </trkpt>
      <trkpt lat="43.27996" lon="3.3131">
        <ele>42.791022</ele>
        <time>2023-01-07T15:37:01.090Z</time>
      </trkpt>
      <trkpt lat="43.27991" lon="3.31323">
        <ele>42.744402</ele>
        <time>2023-01-07T15:37:04.086Z</time>
      </trkpt>
      <trkpt lat="43.27987" lon="3.31336">
        <ele>42.699673</ele>
        <time>2023-01-07T15:37:07.086Z</time>
      </trkpt>
      <trkpt lat="43.27982" lon="3.31349">
        <ele>42.667192</ele>
        <time>2023-01-07T15:37:10.086Z</time>
      </trkpt>
      <trkpt lat="43.27977" lon="3.31362">
        <ele>42.677784</ele>
        <time>2023-01-07T15:37:13.087Z</time>
      </trkpt>
      <trkpt lat="43.27972" lon="3.31376">
        <ele>42.689196</ele>
        <time>2023-01-07T15:37:16.088Z</time>
      </trkpt>
      <trkpt lat="43.27967" lon="3.31391">
        <ele>42.701231</ele>
        <time>2023-01-07T15:37:19.089Z</time>
      </trkpt>
      <trkpt lat="43.27961" lon="3.31406">
        <ele>42.712942</ele>
        <time>2023-01-07T15:37:22.087Z</time>
      </trkpt>
      <trkpt lat="43.27956" lon="3.31421">
        <ele>42.725303</ele>
        <time>2023-01-07T15:37:25.090Z</time>
      </trkpt>
      <trkpt lat="43.27951" lon="3.31438">
        <ele>42.737839</ele>
        <time>2023-01-07T15:37:28.086Z</time>
      </trkpt>
      <trkpt lat="43.27949" lon="3.31455">
        <ele>42.750312</ele>
        <time>2023-01-07T15:37:31.089Z</time>
      </trkpt>
      <trkpt lat="43.27947" lon="3.31472">
        <ele>42.762653</ele>
        <time>2023-01-07T15:37:34.089Z</time>
      </trkpt>
      <trkpt lat="43.27951" lon="3.31485">
        <ele>42.772723</ele>
        <time>2023-01-07T15:37:37.088Z</time>
      </trkpt>
      <trkpt lat="43.27959" lon="3.31494">
        <ele>42.783472</ele>
        <time>2023-01-07T15:37:40.086Z</time>
      </trkpt>
      <trkpt lat="43.2797" lon="3.31499">
        <ele>42.794066</ele>
        <time>2023-01-07T15:37:43.089Z</time>
      </trkpt>
      <trkpt lat="43.27981" lon="3.31499">
        <ele>42.805437</ele>
        <time>2023-01-07T15:37:46.087Z</time>
      </trkpt>
      <trkpt lat="43.27993" lon="3.31502">
        <ele>42.817829</ele>
        <time>2023-01-07T15:37:49.089Z</time>
      </trkpt>
      <trkpt lat="43.28005" lon="3.31505">
        <ele>42.829697</ele>
        <time>2023-01-07T15:37:52.101Z</time>
      </trkpt>
      <trkpt lat="43.28016" lon="3.3151">
        <ele>42.840958</ele>
        <time>2023-01-07T15:37:55.098Z</time>
      </trkpt>
      <trkpt lat="43.28027" lon="3.3152">
        <ele>42.787792</ele>
        <time>2023-01-07T15:37:58.095Z</time>
      </trkpt>
      <trkpt lat="43.28035" lon="3.31532">
        <ele>42.727784</ele>
        <time>2023-01-07T15:38:01.091Z</time>
      </trkpt>
      <trkpt lat="43.28042" lon="3.31547">
        <ele>42.667066</ele>
        <time>2023-01-07T15:38:04.091Z</time>
      </trkpt>
      <trkpt lat="43.28043" lon="3.31565">
        <ele>42.604552</ele>
        <time>2023-01-07T15:38:07.095Z</time>
      </trkpt>
      <trkpt lat="43.28043" lon="3.31582">
        <ele>42.544847</ele>
        <time>2023-01-07T15:38:10.094Z</time>
      </trkpt>
      <trkpt lat="43.28043" lon="3.31599">
        <ele>42.484485</ele>
        <time>2023-01-07T15:38:13.096Z</time>
      </trkpt>
      <trkpt lat="43.28045" lon="3.31617">
        <ele>42.421995</ele>
        <time>2023-01-07T15:38:16.084Z</time>
      </trkpt>
      <trkpt lat="43.28046" lon="3.31633">
        <ele>42.363695</ele>
        <time>2023-01-07T15:38:19.100Z</time>
      </trkpt>
      <trkpt lat="43.28048" lon="3.31649">
        <ele>42.30972</ele>
        <time>2023-01-07T15:38:22.093Z</time>
      </trkpt>
      <trkpt lat="43.2805" lon="3.31663">
        <ele>42.260941</ele>
        <time>2023-01-07T15:38:25.084Z</time>
      </trkpt>
      <trkpt lat="43.28052" lon="3.31677">
        <ele>42.20985</ele>
        <time>2023-01-07T15:38:28.097Z</time>
      </trkpt>
      <trkpt lat="43.28053" lon="3.31693">
        <ele>42.152694</ele>
        <time>2023-01-07T15:38:31.090Z</time>
      </trkpt>
      <trkpt lat="43.28056" lon="3.3171">
        <ele>42.093213</ele>
        <time>2023-01-07T15:38:34.087Z</time>
      </trkpt>
      <trkpt lat="43.28059" lon="3.31727">
        <ele>42.033204</ele>
        <time>2023-01-07T15:38:37.085Z</time>
      </trkpt>
      <trkpt lat="43.2806" lon="3.31744">
        <ele>41.99273</ele>
        <time>2023-01-07T15:38:40.087Z</time>
      </trkpt>
      <trkpt lat="43.28063" lon="3.31762">
        <ele>42.07763</ele>
        <time>2023-01-07T15:38:43.091Z</time>
      </trkpt>
      <trkpt lat="43.28065" lon="3.31779">
        <ele>42.163026</ele>
        <time>2023-01-07T15:38:46.086Z</time>
      </trkpt>
      <trkpt lat="43.28065" lon="3.31792">
        <ele>42.222476</ele>
        <time>2023-01-07T15:38:48.090Z</time>
      </trkpt>
      <trkpt lat="43.28066" lon="3.31808">
        <ele>42.303762</ele>
        <time>2023-01-07T15:38:51.084Z</time>
      </trkpt>
      <trkpt lat="43.28066" lon="3.31824">
        <ele>42.377216</ele>
        <time>2023-01-07T15:38:54.103Z</time>
      </trkpt>
      <trkpt lat="43.28067" lon="3.31837">
        <ele>42.442019</ele>
        <time>2023-01-07T15:38:57.084Z</time>
      </trkpt>
      <trkpt lat="43.28067" lon="3.31854">
        <ele>42.520164</ele>
        <time>2023-01-07T15:39:01.099Z</time>
      </trkpt>
      <trkpt lat="43.28066" lon="3.31867">
        <ele>42.585922</ele>
        <time>2023-01-07T15:39:04.099Z</time>
      </trkpt>
      <trkpt lat="43.28062" lon="3.31881">
        <ele>42.657775</ele>
        <time>2023-01-07T15:39:07.099Z</time>
      </trkpt>
      <trkpt lat="43.28055" lon="3.31894">
        <ele>42.734906</ele>
        <time>2023-01-07T15:39:10.103Z</time>
      </trkpt>
      <trkpt lat="43.28047" lon="3.31907">
        <ele>42.81585</ele>
        <time>2023-01-07T15:39:13.088Z</time>
      </trkpt>
      <trkpt lat="43.28039" lon="3.31919">
        <ele>42.894654</ele>
        <time>2023-01-07T15:39:16.087Z</time>
      </trkpt>
      <trkpt lat="43.28032" lon="3.31929">
        <ele>42.963568</ele>
        <time>2023-01-07T15:39:19.091Z</time>
      </trkpt>
      <trkpt lat="43.28024" lon="3.31939">
        <ele>43.029173</ele>
        <time>2023-01-07T15:39:23.083Z</time>
      </trkpt>
      <trkpt lat="43.28033" lon="3.31923">
        <ele>43.122196</ele>
        <time>2023-01-07T15:40:22.084Z</time>
      </trkpt>
      <trkpt lat="43.28041" lon="3.31912">
        <ele>43.186666</ele>
        <time>2023-01-07T15:40:26.087Z</time>
      </trkpt>
      <trkpt lat="43.28049" lon="3.319">
        <ele>43.238076</ele>
        <time>2023-01-07T15:40:30.081Z</time>
      </trkpt>
      <trkpt lat="43.28056" lon="3.31889">
        <ele>43.283661</ele>
        <time>2023-01-07T15:40:34.085Z</time>
      </trkpt>
      <trkpt lat="43.28061" lon="3.31879">
        <ele>43.323729</ele>
        <time>2023-01-07T15:40:38.088Z</time>
      </trkpt>
      <trkpt lat="43.28065" lon="3.31866">
        <ele>43.368688</ele>
        <time>2023-01-07T15:40:44.084Z</time>
      </trkpt>
      <trkpt lat="43.28071" lon="3.31855">
        <ele>43.410717</ele>
        <time>2023-01-07T15:40:49.115Z</time>
      </trkpt>
      <trkpt lat="43.28068" lon="3.31868">
        <ele>43.452072</ele>
        <time>2023-01-07T15:41:24.091Z</time>
      </trkpt>
      <trkpt lat="43.28071" lon="3.31882">
        <ele>43.498587</ele>
        <time>2023-01-07T15:41:28.102Z</time>
      </trkpt>
      <trkpt lat="43.28075" lon="3.31896">
        <ele>43.545683</ele>
        <time>2023-01-07T15:41:32.085Z</time>
      </trkpt>
      <trkpt lat="43.28081" lon="3.3191">
        <ele>43.596012</ele>
        <time>2023-01-07T15:41:36.096Z</time>
      </trkpt>
      <trkpt lat="43.28086" lon="3.31924">
        <ele>43.643703</ele>
        <time>2023-01-07T15:41:40.085Z</time>
      </trkpt>
      <trkpt lat="43.28089" lon="3.31935">
        <ele>43.683661</ele>
        <time>2023-01-07T15:41:43.096Z</time>
      </trkpt>
      <trkpt lat="43.28094" lon="3.31946">
        <ele>43.722966</ele>
        <time>2023-01-07T15:41:46.086Z</time>
      </trkpt>
      <trkpt lat="43.28099" lon="3.31959">
        <ele>43.770092</ele>
        <time>2023-01-07T15:41:50.084Z</time>
      </trkpt>
      <trkpt lat="43.28102" lon="3.31972">
        <ele>43.814334</ele>
        <time>2023-01-07T15:41:55.096Z</time>
      </trkpt>
      <trkpt lat="43.28096" lon="3.3196">
        <ele>43.86118</ele>
        <time>2023-01-07T15:42:11.095Z</time>
      </trkpt>
      <trkpt lat="43.28091" lon="3.31948">
        <ele>43.903741</ele>
        <time>2023-01-07T15:42:15.093Z</time>
      </trkpt>
      <trkpt lat="43.28088" lon="3.31936">
        <ele>43.935395</ele>
        <time>2023-01-07T15:42:18.086Z</time>
      </trkpt>
      <trkpt lat="43.28085" lon="3.31923">
        <ele>43.837227</ele>
        <time>2023-01-07T15:42:21.084Z</time>
      </trkpt>
      <trkpt lat="43.28081" lon="3.31911">
        <ele>43.741381</ele>
        <time>2023-01-07T15:42:24.099Z</time>
      </trkpt>
      <trkpt lat="43.28075" lon="3.31897">
        <ele>43.628205</ele>
        <time>2023-01-07T15:42:28.085Z</time>
      </trkpt>
      <trkpt lat="43.28071" lon="3.31885">
        <ele>43.535412</ele>
        <time>2023-01-07T15:42:32.085Z</time>
      </trkpt>
      <trkpt lat="43.28069" lon="3.31873">
        <ele>43.441843</ele>
        <time>2023-01-07T15:42:36.086Z</time>
      </trkpt>
      <trkpt lat="43.28072" lon="3.31861">
        <ele>43.349062</ele>
        <time>2023-01-07T15:42:41.088Z</time>
      </trkpt>
      <trkpt lat="43.28081" lon="3.31868">
        <ele>43.241663</ele>
        <time>2023-01-07T15:42:47.088Z</time>
      </trkpt>
      <trkpt lat="43.28086" lon="3.31881">
        <ele>43.131414</ele>
        <time>2023-01-07T15:42:51.089Z</time>
      </trkpt>
      <trkpt lat="43.28091" lon="3.31893">
        <ele>43.039691</ele>
        <time>2023-01-07T15:42:54.089Z</time>
      </trkpt>
      <trkpt lat="43.28094" lon="3.31904">
        <ele>42.947471</ele>
        <time>2023-01-07T15:42:57.083Z</time>
      </trkpt>
      <trkpt lat="43.28099" lon="3.31916">
        <ele>42.855103</ele>
        <time>2023-01-07T15:43:00.086Z</time>
      </trkpt>
      <trkpt lat="43.28103" lon="3.31927">
        <ele>42.762531</ele>
        <time>2023-01-07T15:43:03.086Z</time>
      </trkpt>
      <trkpt lat="43.28108" lon="3.31939">
        <ele>42.66495</ele>
        <time>2023-01-07T15:43:06.084Z</time>
      </trkpt>
      <trkpt lat="43.28112" lon="3.31951">
        <ele>42.564523</ele>
        <time>2023-01-07T15:43:09.088Z</time>
      </trkpt>
      <trkpt lat="43.28116" lon="3.31963">
        <ele>42.469645</ele>
        <time>2023-01-07T15:43:12.095Z</time>
      </trkpt>
      <trkpt lat="43.28119" lon="3.31976">
        <ele>42.374405</ele>
        <time>2023-01-07T15:43:15.083Z</time>
      </trkpt>
      <trkpt lat="43.28124" lon="3.31987">
        <ele>42.281878</ele>
        <time>2023-01-07T15:43:18.088Z</time>
      </trkpt>
      <trkpt lat="43.28128" lon="3.31999">
        <ele>42.183649</ele>
        <time>2023-01-07T15:43:21.080Z</time>
      </trkpt>
      <trkpt lat="43.28133" lon="3.32011">
        <ele>41.93872</ele>
        <time>2023-01-07T15:43:24.104Z</time>
      </trkpt>
      <trkpt lat="43.28137" lon="3.32023">
        <ele>41.650621</ele>
        <time>2023-01-07T15:43:28.083Z</time>
      </trkpt>
      <trkpt lat="43.28143" lon="3.32035">
        <ele>41.317987</ele>
        <time>2023-01-07T15:43:33.093Z</time>
      </trkpt>
      <trkpt lat="43.28149" lon="3.32049">
        <ele>40.977233</ele>
        <time>2023-01-07T15:43:37.102Z</time>
      </trkpt>
      <trkpt lat="43.28153" lon="3.3206">
        <ele>40.699224</ele>
        <time>2023-01-07T15:43:40.085Z</time>
      </trkpt>
      <trkpt lat="43.28158" lon="3.32072">
        <ele>40.404801</ele>
        <time>2023-01-07T15:43:43.091Z</time>
      </trkpt>
      <trkpt lat="43.28163" lon="3.32085">
        <ele>40.07556</ele>
        <time>2023-01-07T15:43:46.086Z</time>
      </trkpt>
      <trkpt lat="43.28167" lon="3.32098">
        <ele>39.758202</ele>
        <time>2023-01-07T15:43:49.085Z</time>
      </trkpt>
      <trkpt lat="43.28172" lon="3.32111">
        <ele>39.443435</ele>
        <time>2023-01-07T15:43:52.086Z</time>
      </trkpt>
      <trkpt lat="43.28176" lon="3.32124">
        <ele>39.145145</ele>
        <time>2023-01-07T15:43:55.082Z</time>
      </trkpt>
      <trkpt lat="43.28181" lon="3.32135">
        <ele>38.843845</ele>
        <time>2023-01-07T15:43:58.088Z</time>
      </trkpt>
      <trkpt lat="43.28186" lon="3.32148">
        <ele>38.540789</ele>
        <time>2023-01-07T15:44:01.086Z</time>
      </trkpt>
      <trkpt lat="43.28192" lon="3.32162">
        <ele>38.183715</ele>
        <time>2023-01-07T15:44:05.086Z</time>
      </trkpt>
      <trkpt lat="43.28197" lon="3.32173">
        <ele>37.888344</ele>
        <time>2023-01-07T15:44:08.086Z</time>
      </trkpt>
      <trkpt lat="43.28202" lon="3.32185">
        <ele>37.577418</ele>
        <time>2023-01-07T15:44:11.086Z</time>
      </trkpt>
      <trkpt lat="43.28207" lon="3.32197">
        <ele>37.275148</ele>
        <time>2023-01-07T15:44:14.091Z</time>
      </trkpt>
      <trkpt lat="43.28211" lon="3.32212">
        <ele>36.917782</ele>
        <time>2023-01-07T15:44:18.093Z</time>
      </trkpt>
      <trkpt lat="43.28215" lon="3.32225">
        <ele>36.755503</ele>
        <time>2023-01-07T15:44:21.095Z</time>
      </trkpt>
      <trkpt lat="43.28219" lon="3.32237">
        <ele>36.818416</ele>
        <time>2023-01-07T15:44:24.088Z</time>
      </trkpt>
      <trkpt lat="43.28223" lon="3.32249">
        <ele>36.878017</ele>
        <time>2023-01-07T15:44:27.100Z</time>
      </trkpt>
      <trkpt lat="43.28228" lon="3.3226">
        <ele>36.94094</ele>
        <time>2023-01-07T15:44:30.085Z</time>
      </trkpt>
      <trkpt lat="43.28232" lon="3.32272">
        <ele>37.00546</ele>
        <time>2023-01-07T15:44:33.087Z</time>
      </trkpt>
      <trkpt lat="43.28238" lon="3.32285">
        <ele>37.076285</ele>
        <time>2023-01-07T15:44:37.090Z</time>
      </trkpt>
      <trkpt lat="43.28242" lon="3.32298">
        <ele>37.143058</ele>
        <time>2023-01-07T15:44:41.085Z</time>
      </trkpt>
      <trkpt lat="43.28246" lon="3.32312">
        <ele>37.21082</ele>
        <time>2023-01-07T15:44:45.094Z</time>
      </trkpt>
      <trkpt lat="43.28247" lon="3.32324">
        <ele>37.270514</ele>
        <time>2023-01-07T15:45:04.086Z</time>
      </trkpt>
      <trkpt lat="43.28253" lon="3.32336">
        <ele>37.335712</ele>
        <time>2023-01-07T15:45:08.087Z</time>
      </trkpt>
      <trkpt lat="43.28257" lon="3.32348">
        <ele>37.399835</ele>
        <time>2023-01-07T15:45:11.096Z</time>
      </trkpt>
      <trkpt lat="43.28262" lon="3.3236">
        <ele>37.463543</ele>
        <time>2023-01-07T15:45:14.093Z</time>
      </trkpt>
      <trkpt lat="43.28266" lon="3.32373">
        <ele>37.529215</ele>
        <time>2023-01-07T15:45:17.083Z</time>
      </trkpt>
      <trkpt lat="43.28272" lon="3.32385">
        <ele>37.598798</ele>
        <time>2023-01-07T15:45:20.097Z</time>
      </trkpt>
      <trkpt lat="43.28277" lon="3.32399">
        <ele>37.670972</ele>
        <time>2023-01-07T15:45:23.088Z</time>
      </trkpt>
      <trkpt lat="43.28282" lon="3.32412">
        <ele>37.739865</ele>
        <time>2023-01-07T15:45:26.092Z</time>
      </trkpt>
      <trkpt lat="43.28287" lon="3.32425">
        <ele>37.809468</ele>
        <time>2023-01-07T15:45:29.088Z</time>
      </trkpt>
      <trkpt lat="43.28292" lon="3.32438">
        <ele>37.878963</ele>
        <time>2023-01-07T15:45:32.087Z</time>
      </trkpt>
      <trkpt lat="43.28297" lon="3.32451">
        <ele>37.935236</ele>
        <time>2023-01-07T15:45:35.081Z</time>
      </trkpt>
      <trkpt lat="43.28303" lon="3.32464">
        <ele>37.991976</ele>
        <time>2023-01-07T15:45:38.087Z</time>
      </trkpt>
      <trkpt lat="43.28308" lon="3.32478">
        <ele>38.048024</ele>
        <time>2023-01-07T15:45:41.093Z</time>
      </trkpt>
      <trkpt lat="43.28313" lon="3.32491">
        <ele>38.102105</ele>
        <time>2023-01-07T15:45:44.084Z</time>
      </trkpt>
      <trkpt lat="43.28319" lon="3.32504">
        <ele>38.156198</ele>
        <time>2023-01-07T15:45:48.090Z</time>
      </trkpt>
      <trkpt lat="43.28323" lon="3.32518">
        <ele>38.209824</ele>
        <time>2023-01-07T15:45:52.086Z</time>
      </trkpt>
      <trkpt lat="43.28328" lon="3.32529">
        <ele>38.258764</ele>
        <time>2023-01-07T15:45:56.082Z</time>
      </trkpt>
      <trkpt lat="43.28331" lon="3.32543">
        <ele>38.312814</ele>
        <time>2023-01-07T15:46:00.087Z</time>
      </trkpt>
      <trkpt lat="43.28336" lon="3.32556">
        <ele>38.366461</ele>
        <time>2023-01-07T15:46:04.082Z</time>
      </trkpt>
      <trkpt lat="43.28341" lon="3.32567">
        <ele>38.41275</ele>
        <time>2023-01-07T15:46:07.084Z</time>
      </trkpt>
      <trkpt lat="43.28345" lon="3.32579">
        <ele>38.460861</ele>
        <time>2023-01-07T15:46:10.090Z</time>
      </trkpt>
      <trkpt lat="43.28348" lon="3.32591">
        <ele>38.509204</ele>
        <time>2023-01-07T15:46:13.091Z</time>
      </trkpt>
      <trkpt lat="43.28355" lon="3.32604">
        <ele>38.566377</ele>
        <time>2023-01-07T15:46:17.089Z</time>
      </trkpt>
      <trkpt lat="43.2836" lon="3.32616">
        <ele>38.616118</ele>
        <time>2023-01-07T15:46:20.084Z</time>
      </trkpt>
      <trkpt lat="43.28364" lon="3.32628">
        <ele>38.664417</ele>
        <time>2023-01-07T15:46:23.083Z</time>
      </trkpt>
      <trkpt lat="43.28368" lon="3.3264">
        <ele>38.71304</ele>
        <time>2023-01-07T15:46:26.086Z</time>
      </trkpt>
      <trkpt lat="43.28372" lon="3.32653">
        <ele>38.764987</ele>
        <time>2023-01-07T15:46:29.083Z</time>
      </trkpt>
      <trkpt lat="43.28377" lon="3.32665">
        <ele>38.77022</ele>
        <time>2023-01-07T15:46:32.093Z</time>
      </trkpt>
      <trkpt lat="43.28381" lon="3.32678">
        <ele>38.717131</ele>
        <time>2023-01-07T15:46:35.095Z</time>
      </trkpt>
      <trkpt lat="43.28386" lon="3.32691">
        <ele>38.660966</ele>
        <time>2023-01-07T15:46:38.089Z</time>
      </trkpt>
      <trkpt lat="43.28391" lon="3.32705">
        <ele>38.603545</ele>
        <time>2023-01-07T15:46:41.097Z</time>
      </trkpt>
      <trkpt lat="43.28396" lon="3.32717">
        <ele>38.55029</ele>
        <time>2023-01-07T15:46:44.090Z</time>
      </trkpt>
      <trkpt lat="43.28401" lon="3.32729">
        <ele>38.496446</ele>
        <time>2023-01-07T15:46:48.091Z</time>
      </trkpt>
      <trkpt lat="43.28405" lon="3.32741">
        <ele>38.448901</ele>
        <time>2023-01-07T15:46:53.084Z</time>
      </trkpt>
      <trkpt lat="43.28409" lon="3.32752">
        <ele>38.398859</ele>
        <time>2023-01-07T15:46:57.088Z</time>
      </trkpt>
      <trkpt lat="43.28414" lon="3.32766">
        <ele>38.340667</ele>
        <time>2023-01-07T15:47:01.088Z</time>
      </trkpt>
      <trkpt lat="43.28419" lon="3.32779">
        <ele>38.286414</ele>
        <time>2023-01-07T15:47:05.087Z</time>
      </trkpt>
      <trkpt lat="43.28424" lon="3.32792">
        <ele>38.232194</ele>
        <time>2023-01-07T15:47:09.093Z</time>
      </trkpt>
      <trkpt lat="43.28427" lon="3.32803">
        <ele>38.185637</ele>
        <time>2023-01-07T15:47:12.085Z</time>
      </trkpt>
      <trkpt lat="43.28432" lon="3.32814">
        <ele>38.138732</ele>
        <time>2023-01-07T15:47:15.085Z</time>
      </trkpt>
      <trkpt lat="43.28437" lon="3.32826">
        <ele>38.085631</ele>
        <time>2023-01-07T15:47:18.085Z</time>
      </trkpt>
      <trkpt lat="43.28442" lon="3.32838">
        <ele>38.034294</ele>
        <time>2023-01-07T15:47:21.097Z</time>
      </trkpt>
      <trkpt lat="43.28447" lon="3.3285">
        <ele>37.983131</ele>
        <time>2023-01-07T15:47:24.081Z</time>
      </trkpt>
      <trkpt lat="43.28451" lon="3.32863">
        <ele>37.930136</ele>
        <time>2023-01-07T15:47:27.089Z</time>
      </trkpt>
      <trkpt lat="43.28455" lon="3.32876">
        <ele>37.874093</ele>
        <time>2023-01-07T15:47:30.085Z</time>
      </trkpt>
      <trkpt lat="43.28461" lon="3.3289">
        <ele>37.984936</ele>
        <time>2023-01-07T15:47:33.096Z</time>
      </trkpt>
      <trkpt lat="43.28466" lon="3.32904">
        <ele>38.144995</ele>
        <time>2023-01-07T15:47:36.089Z</time>
      </trkpt>
      <trkpt lat="43.28471" lon="3.32918">
        <ele>38.302307</ele>
        <time>2023-01-07T15:47:39.086Z</time>
      </trkpt>
      <trkpt lat="43.28475" lon="3.32931">
        <ele>38.440365</ele>
        <time>2023-01-07T15:47:42.096Z</time>
      </trkpt>
      <trkpt lat="43.28479" lon="3.32942">
        <ele>38.572045</ele>
        <time>2023-01-07T15:47:45.095Z</time>
      </trkpt>
      <trkpt lat="43.28483" lon="3.32954">
        <ele>38.703642</ele>
        <time>2023-01-07T15:47:48.095Z</time>
      </trkpt>
      <trkpt lat="43.28488" lon="3.32967">
        <ele>38.859129</ele>
        <time>2023-01-07T15:47:52.107Z</time>
      </trkpt>
      <trkpt lat="43.28493" lon="3.3298">
        <ele>39.005435</ele>
        <time>2023-01-07T15:47:56.087Z</time>
      </trkpt>
      <trkpt lat="43.28496" lon="3.32991">
        <ele>39.131217</ele>
        <time>2023-01-07T15:47:59.100Z</time>
      </trkpt>
      <trkpt lat="43.28501" lon="3.33004">
        <ele>39.274986</ele>
        <time>2023-01-07T15:48:02.097Z</time>
      </trkpt>
      <trkpt lat="43.28506" lon="3.33016">
        <ele>39.413316</ele>
        <time>2023-01-07T15:48:05.094Z</time>
      </trkpt>
      <trkpt lat="43.2851" lon="3.33029">
        <ele>39.558697</ele>
        <time>2023-01-07T15:48:08.117Z</time>
      </trkpt>
      <trkpt lat="43.28515" lon="3.33042">
        <ele>39.706207</ele>
        <time>2023-01-07T15:48:11.086Z</time>
      </trkpt>
      <trkpt lat="43.28519" lon="3.33055">
        <ele>39.852857</ele>
        <time>2023-01-07T15:48:14.088Z</time>
      </trkpt>
      <trkpt lat="43.28524" lon="3.33068">
        <ele>40.004383</ele>
        <time>2023-01-07T15:48:17.088Z</time>
      </trkpt>
      <trkpt lat="43.28527" lon="3.3308">
        <ele>40.139259</ele>
        <time>2023-01-07T15:48:20.087Z</time>
      </trkpt>
      <trkpt lat="43.28533" lon="3.33095">
        <ele>40.305213</ele>
        <time>2023-01-07T15:48:24.088Z</time>
      </trkpt>
      <trkpt lat="43.28537" lon="3.33107">
        <ele>40.429398</ele>
        <time>2023-01-07T15:48:27.089Z</time>
      </trkpt>
      <trkpt lat="43.28542" lon="3.3312">
        <ele>40.536469</ele>
        <time>2023-01-07T15:48:30.086Z</time>
      </trkpt>
      <trkpt lat="43.28546" lon="3.33132">
        <ele>40.635048</ele>
        <time>2023-01-07T15:48:33.082Z</time>
      </trkpt>
      <trkpt lat="43.2855" lon="3.33143">
        <ele>40.727411</ele>
        <time>2023-01-07T15:48:36.084Z</time>
      </trkpt>
      <trkpt lat="43.28555" lon="3.33155">
        <ele>40.824657</ele>
        <time>2023-01-07T15:48:39.086Z</time>
      </trkpt>
      <trkpt lat="43.2856" lon="3.33169">
        <ele>40.939561</ele>
        <time>2023-01-07T15:48:43.096Z</time>
      </trkpt>
      <trkpt lat="43.28565" lon="3.33179">
        <ele>41.031279</ele>
        <time>2023-01-07T15:48:47.091Z</time>
      </trkpt>
      <trkpt lat="43.2857" lon="3.33194">
        <ele>41.150026</ele>
        <time>2023-01-07T15:48:52.096Z</time>
      </trkpt>
      <trkpt lat="43.28574" lon="3.33206">
        <ele>41.250713</ele>
        <time>2023-01-07T15:48:56.083Z</time>
      </trkpt>
      <trkpt lat="43.28578" lon="3.33218">
        <ele>41.349814</ele>
        <time>2023-01-07T15:49:00.102Z</time>
      </trkpt>
      <trkpt lat="43.28585" lon="3.33229">
        <ele>41.460995</ele>
        <time>2023-01-07T15:49:05.086Z</time>
      </trkpt>
      <trkpt lat="43.28595" lon="3.33234">
        <ele>41.561528</ele>
        <time>2023-01-07T15:49:09.090Z</time>
      </trkpt>
      <trkpt lat="43.28605" lon="3.33231">
        <ele>41.662404</ele>
        <time>2023-01-07T15:49:13.110Z</time>
      </trkpt>
      <trkpt lat="43.28615" lon="3.33231">
        <ele>41.770212</ele>
        <time>2023-01-07T15:49:17.087Z</time>
      </trkpt>
      <trkpt lat="43.28627" lon="3.33229">
        <ele>41.887866</ele>
        <time>2023-01-07T15:49:21.083Z</time>
      </trkpt>
      <trkpt lat="43.28638" lon="3.33227">
        <ele>42.000292</ele>
        <time>2023-01-07T15:49:25.082Z</time>
      </trkpt>
      <trkpt lat="43.28649" lon="3.33225">
        <ele>42.113143</ele>
        <time>2023-01-07T15:49:29.087Z</time>
      </trkpt>
      <trkpt lat="43.28658" lon="3.33223">
        <ele>42.207657</ele>
        <time>2023-01-07T15:49:32.086Z</time>
      </trkpt>
      <trkpt lat="43.28668" lon="3.33222">
        <ele>42.190099</ele>
        <time>2023-01-07T15:49:35.099Z</time>
      </trkpt>
      <trkpt lat="43.28677" lon="3.3322">
        <ele>42.168912</ele>
        <time>2023-01-07T15:49:38.091Z</time>
      </trkpt>
      <trkpt lat="43.28687" lon="3.33219">
        <ele>42.147566</ele>
        <time>2023-01-07T15:49:41.090Z</time>
      </trkpt>
      <trkpt lat="43.28698" lon="3.33217">
        <ele>42.125366</ele>
        <time>2023-01-07T15:49:44.087Z</time>
      </trkpt>
      <trkpt lat="43.28708" lon="3.33216">
        <ele>42.102953</ele>
        <time>2023-01-07T15:49:47.087Z</time>
      </trkpt>
      <trkpt lat="43.28718" lon="3.33215">
        <ele>42.080555</ele>
        <time>2023-01-07T15:49:50.084Z</time>
      </trkpt>
      <trkpt lat="43.28729" lon="3.33213">
        <ele>42.058322</ele>
        <time>2023-01-07T15:49:53.090Z</time>
      </trkpt>
      <trkpt lat="43.28738" lon="3.33212">
        <ele>42.037433</ele>
        <time>2023-01-07T15:49:56.083Z</time>
      </trkpt>
      <trkpt lat="43.2875" lon="3.3321">
        <ele>42.012125</ele>
        <time>2023-01-07T15:50:00.089Z</time>
      </trkpt>
      <trkpt lat="43.2876" lon="3.33208">
        <ele>41.990918</ele>
        <time>2023-01-07T15:50:03.087Z</time>
      </trkpt>
      <trkpt lat="43.2877" lon="3.33206">
        <ele>41.969456</ele>
        <time>2023-01-07T15:50:06.085Z</time>
      </trkpt>
      <trkpt lat="43.28781" lon="3.33205">
        <ele>41.945607</ele>
        <time>2023-01-07T15:50:10.087Z</time>
      </trkpt>
      <trkpt lat="43.28791" lon="3.33204">
        <ele>41.924932</ele>
        <time>2023-01-07T15:50:13.089Z</time>
      </trkpt>
      <trkpt lat="43.288" lon="3.33202">
        <ele>41.905486</ele>
        <time>2023-01-07T15:50:16.087Z</time>
      </trkpt>
      <trkpt lat="43.28809" lon="3.332">
        <ele>41.884679</ele>
        <time>2023-01-07T15:50:19.089Z</time>
      </trkpt>
      <trkpt lat="43.28819" lon="3.33198">
        <ele>41.86379</ele>
        <time>2023-01-07T15:50:22.081Z</time>
      </trkpt>
      <trkpt lat="43.28829" lon="3.33195">
        <ele>41.840787</ele>
        <time>2023-01-07T15:50:25.088Z</time>
      </trkpt>
      <trkpt lat="43.2884" lon="3.33194">
        <ele>41.839265</ele>
        <time>2023-01-07T15:50:28.085Z</time>
      </trkpt>
      <trkpt lat="43.2885" lon="3.33191">
        <ele>41.88578</ele>
        <time>2023-01-07T15:50:31.095Z</time>
      </trkpt>
      <trkpt lat="43.28861" lon="3.33187">
        <ele>41.934156</ele>
        <time>2023-01-07T15:50:34.086Z</time>
      </trkpt>
      <trkpt lat="43.28872" lon="3.33183">
        <ele>41.983533</ele>
        <time>2023-01-07T15:50:37.095Z</time>
      </trkpt>
      <trkpt lat="43.28884" lon="3.33178">
        <ele>42.035483</ele>
        <time>2023-01-07T15:50:40.084Z</time>
      </trkpt>
      <trkpt lat="43.28895" lon="3.33173">
        <ele>42.086826</ele>
        <time>2023-01-07T15:50:43.087Z</time>
      </trkpt>
      <trkpt lat="43.28906" lon="3.33168">
        <ele>42.136878</ele>
        <time>2023-01-07T15:50:46.095Z</time>
      </trkpt>
      <trkpt lat="43.28917" lon="3.33163">
        <ele>42.189046</ele>
        <time>2023-01-07T15:50:49.107Z</time>
      </trkpt>
      <trkpt lat="43.28929" lon="3.33158">
        <ele>42.240485</ele>
        <time>2023-01-07T15:50:52.084Z</time>
      </trkpt>
      <trkpt lat="43.28938" lon="3.33153">
        <ele>42.285</ele>
        <time>2023-01-07T15:50:55.099Z</time>
      </trkpt>
      <trkpt lat="43.28947" lon="3.33149">
        <ele>42.325129</ele>
        <time>2023-01-07T15:50:58.086Z</time>
      </trkpt>
      <trkpt lat="43.28958" lon="3.33145">
        <ele>42.375007</ele>
        <time>2023-01-07T15:51:02.083Z</time>
      </trkpt>
      <trkpt lat="43.28968" lon="3.33141">
        <ele>42.416836</ele>
        <time>2023-01-07T15:51:05.094Z</time>
      </trkpt>
      <trkpt lat="43.28978" lon="3.33137">
        <ele>42.464462</ele>
        <time>2023-01-07T15:51:08.089Z</time>
      </trkpt>
      <trkpt lat="43.28989" lon="3.33132">
        <ele>42.51387</ele>
        <time>2023-01-07T15:51:11.093Z</time>
      </trkpt>
      <trkpt lat="43.29" lon="3.33128">
        <ele>42.562359</ele>
        <time>2023-01-07T15:51:14.086Z</time>
      </trkpt>
      <trkpt lat="43.2901" lon="3.33123">
        <ele>42.623403</ele>
        <time>2023-01-07T15:51:17.089Z</time>
      </trkpt>
      <trkpt lat="43.29021" lon="3.33118">
        <ele>42.772654</ele>
        <time>2023-01-07T15:51:20.102Z</time>
      </trkpt>
      <trkpt lat="43.29032" lon="3.33115">
        <ele>42.925392</ele>
        <time>2023-01-07T15:51:23.089Z</time>
      </trkpt>
      <trkpt lat="43.29042" lon="3.33111">
        <ele>43.073823</ele>
        <time>2023-01-07T15:51:26.088Z</time>
      </trkpt>
      <trkpt lat="43.29052" lon="3.33107">
        <ele>43.203858</ele>
        <time>2023-01-07T15:51:29.090Z</time>
      </trkpt>
      <trkpt lat="43.2906" lon="3.33103">
        <ele>43.328369</ele>
        <time>2023-01-07T15:51:32.086Z</time>
      </trkpt>
      <trkpt lat="43.2907" lon="3.33098">
        <ele>43.460365</ele>
        <time>2023-01-07T15:51:35.088Z</time>
      </trkpt>
      <trkpt lat="43.2908" lon="3.33092">
        <ele>43.61439</ele>
        <time>2023-01-07T15:51:39.086Z</time>
      </trkpt>
      <trkpt lat="43.291" lon="3.33082">
        <ele>43.891574</ele>
        <time>2023-01-07T15:52:08.096Z</time>
      </trkpt>
      <trkpt lat="43.29109" lon="3.33076">
        <ele>44.027118</ele>
        <time>2023-01-07T15:52:11.084Z</time>
      </trkpt>
      <trkpt lat="43.29119" lon="3.33068">
        <ele>44.18505</ele>
        <time>2023-01-07T15:52:14.085Z</time>
      </trkpt>
      <trkpt lat="43.2913" lon="3.33062">
        <ele>44.342755</ele>
        <time>2023-01-07T15:52:17.088Z</time>
      </trkpt>
      <trkpt lat="43.2914" lon="3.33054">
        <ele>44.495769</ele>
        <time>2023-01-07T15:52:20.088Z</time>
      </trkpt>
      <trkpt lat="43.2915" lon="3.33047">
        <ele>44.648901</ele>
        <time>2023-01-07T15:52:23.087Z</time>
      </trkpt>
      <trkpt lat="43.2916" lon="3.3304">
        <ele>44.804111</ele>
        <time>2023-01-07T15:52:26.091Z</time>
      </trkpt>
      <trkpt lat="43.29171" lon="3.33033">
        <ele>44.962493</ele>
        <time>2023-01-07T15:52:29.095Z</time>
      </trkpt>
      <trkpt lat="43.2918" lon="3.33026">
        <ele>45.010221</ele>
        <time>2023-01-07T15:52:32.085Z</time>
      </trkpt>
      <trkpt lat="43.29189" lon="3.3302">
        <ele>44.997506</ele>
        <time>2023-01-07T15:52:35.096Z</time>
      </trkpt>
      <trkpt lat="43.29197" lon="3.33014">
        <ele>44.984773</ele>
        <time>2023-01-07T15:52:38.084Z</time>
      </trkpt>
      <trkpt lat="43.29206" lon="3.33006">
        <ele>44.970473</ele>
        <time>2023-01-07T15:52:41.086Z</time>
      </trkpt>
      <trkpt lat="43.29216" lon="3.32997">
        <ele>44.954827</ele>
        <time>2023-01-07T15:52:44.096Z</time>
      </trkpt>
      <trkpt lat="43.29226" lon="3.32988">
        <ele>44.938956</ele>
        <time>2023-01-07T15:52:47.100Z</time>
      </trkpt>
      <trkpt lat="43.29236" lon="3.32978">
        <ele>44.923414</ele>
        <time>2023-01-07T15:52:50.092Z</time>
      </trkpt>
      <trkpt lat="43.29245" lon="3.3297">
        <ele>44.908313</ele>
        <time>2023-01-07T15:52:53.094Z</time>
      </trkpt>
      <trkpt lat="43.29255" lon="3.32962">
        <ele>44.893185</ele>
        <time>2023-01-07T15:52:56.086Z</time>
      </trkpt>
      <trkpt lat="43.29263" lon="3.32954">
        <ele>44.880317</ele>
        <time>2023-01-07T15:52:59.089Z</time>
      </trkpt>
      <trkpt lat="43.2927" lon="3.32945">
        <ele>44.867823</ele>
        <time>2023-01-07T15:53:02.091Z</time>
      </trkpt>
      <trkpt lat="43.29277" lon="3.32936">
        <ele>44.854457</ele>
        <time>2023-01-07T15:53:05.099Z</time>
      </trkpt>
      <trkpt lat="43.29285" lon="3.32926">
        <ele>44.84067</ele>
        <time>2023-01-07T15:53:08.090Z</time>
      </trkpt>
      <trkpt lat="43.29293" lon="3.32915">
        <ele>44.825606</ele>
        <time>2023-01-07T15:53:11.092Z</time>
      </trkpt>
      <trkpt lat="43.29301" lon="3.32904">
        <ele>44.810713</ele>
        <time>2023-01-07T15:53:14.089Z</time>
      </trkpt>
      <trkpt lat="43.2931" lon="3.32892">
        <ele>44.794151</ele>
        <time>2023-01-07T15:53:17.087Z</time>
      </trkpt>
      <trkpt lat="43.29319" lon="3.3288">
        <ele>44.767789</ele>
        <time>2023-01-07T15:53:20.085Z</time>
      </trkpt>
      <trkpt lat="43.29327" lon="3.32867">
        <ele>44.706615</ele>
        <time>2023-01-07T15:53:23.090Z</time>
      </trkpt>
      <trkpt lat="43.29335" lon="3.32856">
        <ele>44.65057</ele>
        <time>2023-01-07T15:53:26.090Z</time>
      </trkpt>
      <trkpt lat="43.29342" lon="3.32845">
        <ele>44.598993</ele>
        <time>2023-01-07T15:53:29.089Z</time>
      </trkpt>
      <trkpt lat="43.29349" lon="3.32836">
        <ele>44.553002</ele>
        <time>2023-01-07T15:53:32.085Z</time>
      </trkpt>
      <trkpt lat="43.29355" lon="3.32826">
        <ele>44.503486</ele>
        <time>2023-01-07T15:53:35.089Z</time>
      </trkpt>
      <trkpt lat="43.29362" lon="3.32816">
        <ele>44.45311</ele>
        <time>2023-01-07T15:53:38.089Z</time>
      </trkpt>
      <trkpt lat="43.2937" lon="3.32804">
        <ele>44.396911</ele>
        <time>2023-01-07T15:53:42.095Z</time>
      </trkpt>
      <trkpt lat="43.29373" lon="3.32791">
        <ele>44.349797</ele>
        <time>2023-01-07T15:53:46.088Z</time>
      </trkpt>
      <trkpt lat="43.29375" lon="3.32779">
        <ele>44.303466</ele>
        <time>2023-01-07T15:53:51.092Z</time>
      </trkpt>
      <trkpt lat="43.29383" lon="3.32771">
        <ele>44.254616</ele>
        <time>2023-01-07T15:53:56.081Z</time>
      </trkpt>
      <trkpt lat="43.29392" lon="3.32767">
        <ele>44.208272</ele>
        <time>2023-01-07T15:54:01.093Z</time>
      </trkpt>
      <trkpt lat="43.29409" lon="3.3277">
        <ele>44.122917</ele>
        <time>2023-01-07T15:54:30.096Z</time>
      </trkpt>
      <trkpt lat="43.29419" lon="3.32771">
        <ele>44.076419</ele>
        <time>2023-01-07T15:54:34.094Z</time>
      </trkpt>
      <trkpt lat="43.29428" lon="3.32766">
        <ele>44.027337</ele>
        <time>2023-01-07T15:54:39.088Z</time>
      </trkpt>
      <trkpt lat="43.29437" lon="3.3276">
        <ele>43.978707</ele>
        <time>2023-01-07T15:54:45.085Z</time>
      </trkpt>
      <trkpt lat="43.29446" lon="3.32764">
        <ele>43.931197</ele>
        <time>2023-01-07T15:54:56.088Z</time>
      </trkpt>
      <trkpt lat="43.29454" lon="3.32771">
        <ele>43.898561</ele>
        <time>2023-01-07T15:55:00.089Z</time>
      </trkpt>
      <trkpt lat="43.29461" lon="3.32778">
        <ele>43.933532</ele>
        <time>2023-01-07T15:55:04.095Z</time>
      </trkpt>
      <trkpt lat="43.29471" lon="3.3277">
        <ele>43.974763</ele>
        <time>2023-01-07T15:55:09.084Z</time>
      </trkpt>
      <trkpt lat="43.29475" lon="3.32756">
        <ele>44.018311</ele>
        <time>2023-01-07T15:55:13.084Z</time>
      </trkpt>
      <trkpt lat="43.29479" lon="3.32743">
        <ele>44.056989</ele>
        <time>2023-01-07T15:55:16.090Z</time>
      </trkpt>
      <trkpt lat="43.29483" lon="3.32729">
        <ele>44.09651</ele>
        <time>2023-01-07T15:55:19.105Z</time>
      </trkpt>
      <trkpt lat="43.29487" lon="3.32717">
        <ele>44.133639</ele>
        <time>2023-01-07T15:55:22.089Z</time>
      </trkpt>
      <trkpt lat="43.2949" lon="3.32704">
        <ele>44.169608</ele>
        <time>2023-01-07T15:55:25.103Z</time>
      </trkpt>
      <trkpt lat="43.29493" lon="3.32691">
        <ele>44.208388</ele>
        <time>2023-01-07T15:55:28.092Z</time>
      </trkpt>
      <trkpt lat="43.29496" lon="3.32678">
        <ele>44.243758</ele>
        <time>2023-01-07T15:55:31.098Z</time>
      </trkpt>
      <trkpt lat="43.29499" lon="3.32666">
        <ele>44.280766</ele>
        <time>2023-01-07T15:55:34.090Z</time>
      </trkpt>
      <trkpt lat="43.29502" lon="3.32653">
        <ele>44.317185</ele>
        <time>2023-01-07T15:55:37.092Z</time>
      </trkpt>
      <trkpt lat="43.29506" lon="3.32639">
        <ele>44.356862</ele>
        <time>2023-01-07T15:55:40.094Z</time>
      </trkpt>
      <trkpt lat="43.29511" lon="3.32627">
        <ele>44.395362</ele>
        <time>2023-01-07T15:55:43.091Z</time>
      </trkpt>
      <trkpt lat="43.29516" lon="3.32615">
        <ele>44.434955</ele>
        <time>2023-01-07T15:55:46.091Z</time>
      </trkpt>
      <trkpt lat="43.29522" lon="3.32602">
        <ele>44.475728</ele>
        <time>2023-01-07T15:55:49.094Z</time>
      </trkpt>
      <trkpt lat="43.29528" lon="3.32589">
        <ele>44.516932</ele>
        <time>2023-01-07T15:55:52.089Z</time>
      </trkpt>
      <trkpt lat="43.29534" lon="3.32577">
        <ele>44.557832</ele>
        <time>2023-01-07T15:55:55.086Z</time>
      </trkpt>
      <trkpt lat="43.2954" lon="3.32564">
        <ele>44.519608</ele>
        <time>2023-01-07T15:55:58.084Z</time>
      </trkpt>
      <trkpt lat="43.29546" lon="3.32552">
        <ele>44.459806</ele>
        <time>2023-01-07T15:56:01.106Z</time>
      </trkpt>
      <trkpt lat="43.29551" lon="3.32539">
        <ele>44.399894</ele>
        <time>2023-01-07T15:56:04.087Z</time>
      </trkpt>
      <trkpt lat="43.29558" lon="3.32531">
        <ele>44.347378</ele>
        <time>2023-01-07T15:56:07.098Z</time>
      </trkpt>
      <trkpt lat="43.29567" lon="3.3253">
        <ele>44.294967</ele>
        <time>2023-01-07T15:56:10.087Z</time>
      </trkpt>
      <trkpt lat="43.29575" lon="3.32537">
        <ele>44.24181</ele>
        <time>2023-01-07T15:56:14.089Z</time>
      </trkpt>
      <trkpt lat="43.29585" lon="3.3254">
        <ele>44.181438</ele>
        <time>2023-01-07T15:56:18.084Z</time>
      </trkpt>
      <trkpt lat="43.29595" lon="3.32545">
        <ele>44.123713</ele>
        <time>2023-01-07T15:56:21.089Z</time>
      </trkpt>
      <trkpt lat="43.29605" lon="3.3255">
        <ele>44.063336</ele>
        <time>2023-01-07T15:56:24.088Z</time>
      </trkpt>
      <trkpt lat="43.29614" lon="3.32556">
        <ele>44.004116</ele>
        <time>2023-01-07T15:56:27.089Z</time>
      </trkpt>
      <trkpt lat="43.29623" lon="3.32561">
        <ele>43.950709</ele>
        <time>2023-01-07T15:56:30.106Z</time>
      </trkpt>
      <trkpt lat="43.29631" lon="3.32565">
        <ele>43.898965</ele>
        <time>2023-01-07T15:56:33.091Z</time>
      </trkpt>
      <trkpt lat="43.29641" lon="3.3257">
        <ele>43.841981</ele>
        <time>2023-01-07T15:56:36.094Z</time>
      </trkpt>
      <trkpt lat="43.2965" lon="3.32575">
        <ele>43.78273</ele>
        <time>2023-01-07T15:56:39.089Z</time>
      </trkpt>
      <trkpt lat="43.2966" lon="3.32582">
        <ele>43.720883</ele>
        <time>2023-01-07T15:56:42.081Z</time>
      </trkpt>
      <trkpt lat="43.2967" lon="3.32586">
        <ele>43.660342</ele>
        <time>2023-01-07T15:56:45.091Z</time>
      </trkpt>
      <trkpt lat="43.2968" lon="3.3259">
        <ele>43.602446</ele>
        <time>2023-01-07T15:56:48.093Z</time>
      </trkpt>
      <trkpt lat="43.29689" lon="3.32593">
        <ele>43.546625</ele>
        <time>2023-01-07T15:56:51.088Z</time>
      </trkpt>
      <trkpt lat="43.297" lon="3.32599">
        <ele>43.50127</ele>
        <time>2023-01-07T15:56:55.090Z</time>
      </trkpt>
      <trkpt lat="43.29711" lon="3.32604">
        <ele>43.455837</ele>
        <time>2023-01-07T15:56:59.097Z</time>
      </trkpt>
      <trkpt lat="43.29722" lon="3.32613">
        <ele>43.409249</ele>
        <time>2023-01-07T15:57:03.089Z</time>
      </trkpt>
      <trkpt lat="43.29729" lon="3.32622">
        <ele>43.368585</ele>
        <time>2023-01-07T15:57:06.095Z</time>
      </trkpt>
      <trkpt lat="43.29737" lon="3.32632">
        <ele>43.328015</ele>
        <time>2023-01-07T15:57:09.095Z</time>
      </trkpt>
      <trkpt lat="43.29746" lon="3.32643">
        <ele>43.281488</ele>
        <time>2023-01-07T15:57:12.091Z</time>
      </trkpt>
      <trkpt lat="43.29754" lon="3.32652">
        <ele>43.242117</ele>
        <time>2023-01-07T15:57:15.082Z</time>
      </trkpt>
      <trkpt lat="43.29762" lon="3.32661">
        <ele>43.203442</ele>
        <time>2023-01-07T15:57:18.090Z</time>
      </trkpt>
      <trkpt lat="43.29769" lon="3.3267">
        <ele>43.163629</ele>
        <time>2023-01-07T15:57:21.092Z</time>
      </trkpt>
      <trkpt lat="43.29777" lon="3.32681">
        <ele>43.119682</ele>
        <time>2023-01-07T15:57:24.094Z</time>
      </trkpt>
      <trkpt lat="43.29786" lon="3.32692">
        <ele>43.075407</ele>
        <time>2023-01-07T15:57:27.090Z</time>
      </trkpt>
      <trkpt lat="43.29794" lon="3.32702">
        <ele>43.031785</ele>
        <time>2023-01-07T15:57:30.089Z</time>
      </trkpt>
      <trkpt lat="43.29804" lon="3.32712">
        <ele>42.984742</ele>
        <time>2023-01-07T15:57:33.083Z</time>
      </trkpt>
      <trkpt lat="43.29813" lon="3.32724">
        <ele>42.936347</ele>
        <time>2023-01-07T15:57:36.090Z</time>
      </trkpt>
      <trkpt lat="43.29822" lon="3.32736">
        <ele>42.887872</ele>
        <time>2023-01-07T15:57:39.091Z</time>
      </trkpt>
      <trkpt lat="43.29829" lon="3.32745">
        <ele>42.852901</ele>
        <time>2023-01-07T15:57:41.095Z</time>
      </trkpt>
      <trkpt lat="43.29835" lon="3.32753">
        <ele>42.76448</ele>
        <time>2023-01-07T15:57:43.084Z</time>
      </trkpt>
      <trkpt lat="43.29845" lon="3.32765">
        <ele>42.62239</ele>
        <time>2023-01-07T15:57:46.081Z</time>
      </trkpt>
      <trkpt lat="43.29854" lon="3.32778">
        <ele>42.480713</ele>
        <time>2023-01-07T15:57:49.099Z</time>
      </trkpt>
      <trkpt lat="43.29864" lon="3.3279">
        <ele>42.341009</ele>
        <time>2023-01-07T15:57:52.091Z</time>
      </trkpt>
      <trkpt lat="43.29873" lon="3.32801">
        <ele>42.209003</ele>
        <time>2023-01-07T15:57:55.087Z</time>
      </trkpt>
      <trkpt lat="43.29882" lon="3.32812">
        <ele>42.079075</ele>
        <time>2023-01-07T15:57:58.095Z</time>
      </trkpt>
      <trkpt lat="43.29891" lon="3.32824">
        <ele>41.943334</ele>
        <time>2023-01-07T15:58:01.099Z</time>
      </trkpt>
      <trkpt lat="43.299" lon="3.32836">
        <ele>41.808258</ele>
        <time>2023-01-07T15:58:04.094Z</time>
      </trkpt>
      <trkpt lat="43.29909" lon="3.32848">
        <ele>41.669223</ele>
        <time>2023-01-07T15:58:07.100Z</time>
      </trkpt>
      <trkpt lat="43.29918" lon="3.32861">
        <ele>41.530756</ele>
        <time>2023-01-07T15:58:10.085Z</time>
      </trkpt>
      <trkpt lat="43.29926" lon="3.32874">
        <ele>41.393459</ele>
        <time>2023-01-07T15:58:13.083Z</time>
      </trkpt>
      <trkpt lat="43.29932" lon="3.32884">
        <ele>41.296141</ele>
        <time>2023-01-07T15:58:15.095Z</time>
      </trkpt>
      <trkpt lat="43.29939" lon="3.32898">
        <ele>41.157517</ele>
        <time>2023-01-07T15:58:18.087Z</time>
      </trkpt>
      <trkpt lat="43.29945" lon="3.32913">
        <ele>41.029919</ele>
        <time>2023-01-07T15:58:21.096Z</time>
      </trkpt>
      <trkpt lat="43.29949" lon="3.32925">
        <ele>40.922365</ele>
        <time>2023-01-07T15:58:24.101Z</time>
      </trkpt>
      <trkpt lat="43.29955" lon="3.32935">
        <ele>41.029047</ele>
        <time>2023-01-07T15:58:28.089Z</time>
      </trkpt>
      <trkpt lat="43.29964" lon="3.32951">
        <ele>41.255906</ele>
        <time>2023-01-07T15:59:18.104Z</time>
      </trkpt>
      <trkpt lat="43.29969" lon="3.32964">
        <ele>41.424155</ele>
        <time>2023-01-07T15:59:22.082Z</time>
      </trkpt>
      <trkpt lat="43.29976" lon="3.32976">
        <ele>41.596568</ele>
        <time>2023-01-07T15:59:26.083Z</time>
      </trkpt>
      <trkpt lat="43.29981" lon="3.3299">
        <ele>41.773016</ele>
        <time>2023-01-07T15:59:30.101Z</time>
      </trkpt>
      <trkpt lat="43.29984" lon="3.33002">
        <ele>41.918446</ele>
        <time>2023-01-07T15:59:33.094Z</time>
      </trkpt>
      <trkpt lat="43.29988" lon="3.33016">
        <ele>42.092222</ele>
        <time>2023-01-07T15:59:37.084Z</time>
      </trkpt>
      <trkpt lat="43.29994" lon="3.3303">
        <ele>42.271624</ele>
        <time>2023-01-07T15:59:41.096Z</time>
      </trkpt>
      <trkpt lat="43.29997" lon="3.33041">
        <ele>42.415856</ele>
        <time>2023-01-07T15:59:44.082Z</time>
      </trkpt>
      <trkpt lat="43.30002" lon="3.33054">
        <ele>42.574246</ele>
        <time>2023-01-07T15:59:47.101Z</time>
      </trkpt>
      <trkpt lat="43.30006" lon="3.33067">
        <ele>42.737417</ele>
        <time>2023-01-07T15:59:50.087Z</time>
      </trkpt>
      <trkpt lat="43.3001" lon="3.3308">
        <ele>42.89749</ele>
        <time>2023-01-07T15:59:53.092Z</time>
      </trkpt>
      <trkpt lat="43.30014" lon="3.33092">
        <ele>43.049704</ele>
        <time>2023-01-07T15:59:56.089Z</time>
      </trkpt>
      <trkpt lat="43.30021" lon="3.33105">
        <ele>43.229655</ele>
        <time>2023-01-07T16:00:00.091Z</time>
      </trkpt>
      <trkpt lat="43.30026" lon="3.3312">
        <ele>43.416447</ele>
        <time>2023-01-07T16:00:04.103Z</time>
      </trkpt>
      <trkpt lat="43.30032" lon="3.33134">
        <ele>43.601556</ele>
        <time>2023-01-07T16:00:08.097Z</time>
      </trkpt>
      <trkpt lat="43.30035" lon="3.33146">
        <ele>43.703877</ele>
        <time>2023-01-07T16:00:11.101Z</time>
      </trkpt>
      <trkpt lat="43.30037" lon="3.33162">
        <ele>43.663354</ele>
        <time>2023-01-07T16:00:15.092Z</time>
      </trkpt>
      <trkpt lat="43.30035" lon="3.33177">
        <ele>43.625642</ele>
        <time>2023-01-07T16:00:19.101Z</time>
      </trkpt>
      <trkpt lat="43.30034" lon="3.33192">
        <ele>43.588819</ele>
        <time>2023-01-07T16:00:24.092Z</time>
      </trkpt>
      <trkpt lat="43.30032" lon="3.33204">
        <ele>43.557089</ele>
        <time>2023-01-07T16:00:28.104Z</time>
      </trkpt>
      <trkpt lat="43.30032" lon="3.33217">
        <ele>43.526543</ele>
        <time>2023-01-07T16:00:32.096Z</time>
      </trkpt>
      <trkpt lat="43.30023" lon="3.33231">
        <ele>43.479667</ele>
        <time>2023-01-07T16:01:15.118Z</time>
      </trkpt>
      <trkpt lat="43.30011" lon="3.33234">
        <ele>43.440174</ele>
        <time>2023-01-07T16:01:19.095Z</time>
      </trkpt>
      <trkpt lat="43.30002" lon="3.33237">
        <ele>43.408348</ele>
        <time>2023-01-07T16:01:22.089Z</time>
      </trkpt>
      <trkpt lat="43.29991" lon="3.3324">
        <ele>43.369564</ele>
        <time>2023-01-07T16:01:26.096Z</time>
      </trkpt>
      <trkpt lat="43.29979" lon="3.33243">
        <ele>43.32803</ele>
        <time>2023-01-07T16:01:30.095Z</time>
      </trkpt>
      <trkpt lat="43.29968" lon="3.33246">
        <ele>43.291102</ele>
        <time>2023-01-07T16:01:33.103Z</time>
      </trkpt>
      <trkpt lat="43.29957" lon="3.33249">
        <ele>43.253938</ele>
        <time>2023-01-07T16:01:36.086Z</time>
      </trkpt>
      <trkpt lat="43.29945" lon="3.33254">
        <ele>43.212202</ele>
        <time>2023-01-07T16:01:39.098Z</time>
      </trkpt>
      <trkpt lat="43.29937" lon="3.33257">
        <ele>43.180613</ele>
        <time>2023-01-07T16:01:41.105Z</time>
      </trkpt>
      <trkpt lat="43.29927" lon="3.33262">
        <ele>43.146385</ele>
        <time>2023-01-07T16:01:43.093Z</time>
      </trkpt>
      <trkpt lat="43.29914" lon="3.33267">
        <ele>43.101853</ele>
        <time>2023-01-07T16:01:46.101Z</time>
      </trkpt>
      <trkpt lat="43.29905" lon="3.33273">
        <ele>43.043868</ele>
        <time>2023-01-07T16:01:48.096Z</time>
      </trkpt>
      <trkpt lat="43.29893" lon="3.33279">
        <ele>42.970879</ele>
        <time>2023-01-07T16:01:51.108Z</time>
      </trkpt>
      <trkpt lat="43.29881" lon="3.33286">
        <ele>42.892135</ele>
        <time>2023-01-07T16:01:54.105Z</time>
      </trkpt>
      <trkpt lat="43.29872" lon="3.33291">
        <ele>42.83707</ele>
        <time>2023-01-07T16:01:56.086Z</time>
      </trkpt>
      <trkpt lat="43.29862" lon="3.33296">
        <ele>42.779246</ele>
        <time>2023-01-07T16:01:58.084Z</time>
      </trkpt>
      <trkpt lat="43.29853" lon="3.333">
        <ele>42.722888</ele>
        <time>2023-01-07T16:02:00.104Z</time>
      </trkpt>
      <trkpt lat="43.29844" lon="3.33304">
        <ele>42.668844</ele>
        <time>2023-01-07T16:02:02.093Z</time>
      </trkpt>
      <trkpt lat="43.29834" lon="3.3331">
        <ele>42.609749</ele>
        <time>2023-01-07T16:02:04.091Z</time>
      </trkpt>
      <trkpt lat="43.29825" lon="3.33315">
        <ele>42.550711</ele>
        <time>2023-01-07T16:02:06.092Z</time>
      </trkpt>
      <trkpt lat="43.29816" lon="3.33319">
        <ele>42.497082</ele>
        <time>2023-01-07T16:02:08.092Z</time>
      </trkpt>
      <trkpt lat="43.29807" lon="3.33324">
        <ele>42.443162</ele>
        <time>2023-01-07T16:02:10.097Z</time>
      </trkpt>
      <trkpt lat="43.29798" lon="3.3333">
        <ele>42.387623</ele>
        <time>2023-01-07T16:02:12.098Z</time>
      </trkpt>
      <trkpt lat="43.29787" lon="3.33337">
        <ele>42.31349</ele>
        <time>2023-01-07T16:02:15.094Z</time>
      </trkpt>
      <trkpt lat="43.29778" lon="3.33341">
        <ele>42.261705</ele>
        <time>2023-01-07T16:02:17.100Z</time>
      </trkpt>
      <trkpt lat="43.2977" lon="3.33347">
        <ele>42.206841</ele>
        <time>2023-01-07T16:02:19.087Z</time>
      </trkpt>
      <trkpt lat="43.29761" lon="3.33354">
        <ele>42.15199</ele>
        <time>2023-01-07T16:02:21.086Z</time>
      </trkpt>
      <trkpt lat="43.29753" lon="3.33361">
        <ele>42.096649</ele>
        <time>2023-01-07T16:02:23.081Z</time>
      </trkpt>
      <trkpt lat="43.29745" lon="3.33367">
        <ele>42.124684</ele>
        <time>2023-01-07T16:02:25.083Z</time>
      </trkpt>
      <trkpt lat="43.29734" lon="3.33377">
        <ele>42.252907</ele>
        <time>2023-01-07T16:02:28.081Z</time>
      </trkpt>
      <trkpt lat="43.29724" lon="3.33385">
        <ele>42.373126</ele>
        <time>2023-01-07T16:02:31.094Z</time>
      </trkpt>
      <trkpt lat="43.29714" lon="3.33393">
        <ele>42.490652</ele>
        <time>2023-01-07T16:02:34.095Z</time>
      </trkpt>
      <trkpt lat="43.29704" lon="3.33404">
        <ele>42.61826</ele>
        <time>2023-01-07T16:02:37.088Z</time>
      </trkpt>
      <trkpt lat="43.29694" lon="3.33415">
        <ele>42.751264</ele>
        <time>2023-01-07T16:02:40.091Z</time>
      </trkpt>
      <trkpt lat="43.29687" lon="3.33423">
        <ele>42.842161</ele>
        <time>2023-01-07T16:02:42.088Z</time>
      </trkpt>
      <trkpt lat="43.2968" lon="3.33432">
        <ele>42.933521</ele>
        <time>2023-01-07T16:02:44.099Z</time>
      </trkpt>
      <trkpt lat="43.29676" lon="3.33444">
        <ele>43.030165</ele>
        <time>2023-01-07T16:02:46.083Z</time>
      </trkpt>
      <trkpt lat="43.2967" lon="3.33453">
        <ele>43.123359</ele>
        <time>2023-01-07T16:02:48.094Z</time>
      </trkpt>
      <trkpt lat="43.29664" lon="3.33464">
        <ele>43.217568</ele>
        <time>2023-01-07T16:02:50.093Z</time>
      </trkpt>
      <trkpt lat="43.2966" lon="3.33475">
        <ele>43.310404</ele>
        <time>2023-01-07T16:02:52.102Z</time>
      </trkpt>
      <trkpt lat="43.29654" lon="3.33486">
        <ele>43.406517</ele>
        <time>2023-01-07T16:02:54.089Z</time>
      </trkpt>
      <trkpt lat="43.2965" lon="3.33497">
        <ele>43.498343</ele>
        <time>2023-01-07T16:02:56.091Z</time>
      </trkpt>
      <trkpt lat="43.29645" lon="3.33508">
        <ele>43.592729</ele>
        <time>2023-01-07T16:02:58.094Z</time>
      </trkpt>
      <trkpt lat="43.29641" lon="3.3352">
        <ele>43.692111</ele>
        <time>2023-01-07T16:03:00.090Z</time>
      </trkpt>
      <trkpt lat="43.29636" lon="3.33532">
        <ele>43.790199</ele>
        <time>2023-01-07T16:03:02.097Z</time>
      </trkpt>
      <trkpt lat="43.29632" lon="3.33543">
        <ele>43.883412</ele>
        <time>2023-01-07T16:03:04.098Z</time>
      </trkpt>
      <trkpt lat="43.29629" lon="3.33555">
        <ele>43.964648</ele>
        <time>2023-01-07T16:03:06.100Z</time>
      </trkpt>
      <trkpt lat="43.29625" lon="3.33567">
        <ele>44.047646</ele>
        <time>2023-01-07T16:03:08.099Z</time>
      </trkpt>
      <trkpt lat="43.29622" lon="3.33579">
        <ele>44.129642</ele>
        <time>2023-01-07T16:03:10.095Z</time>
      </trkpt>
      <trkpt lat="43.29618" lon="3.33591">
        <ele>44.216283</ele>
        <time>2023-01-07T16:03:12.094Z</time>
      </trkpt>
      <trkpt lat="43.29615" lon="3.33604">
        <ele>44.304025</ele>
        <time>2023-01-07T16:03:14.098Z</time>
      </trkpt>
      <trkpt lat="43.29612" lon="3.33617">
        <ele>44.388786</ele>
        <time>2023-01-07T16:03:16.098Z</time>
      </trkpt>
      <trkpt lat="43.29609" lon="3.33629">
        <ele>44.471801</ele>
        <time>2023-01-07T16:03:18.093Z</time>
      </trkpt>
      <trkpt lat="43.29606" lon="3.33642">
        <ele>44.555074</ele>
        <time>2023-01-07T16:03:20.106Z</time>
      </trkpt>
      <trkpt lat="43.29604" lon="3.33654">
        <ele>44.639692</ele>
        <time>2023-01-07T16:03:22.093Z</time>
      </trkpt>
      <trkpt lat="43.29601" lon="3.33667">
        <ele>44.724878</ele>
        <time>2023-01-07T16:03:24.095Z</time>
      </trkpt>
      <trkpt lat="43.29599" lon="3.33681">
        <ele>44.816533</ele>
        <time>2023-01-07T16:03:26.099Z</time>
      </trkpt>
      <trkpt lat="43.29597" lon="3.33694">
        <ele>44.90336</ele>
        <time>2023-01-07T16:03:28.093Z</time>
      </trkpt>
      <trkpt lat="43.29595" lon="3.33708">
        <ele>44.990844</ele>
        <time>2023-01-07T16:03:30.105Z</time>
      </trkpt>
      <trkpt lat="43.29593" lon="3.33721">
        <ele>45.081557</ele>
        <time>2023-01-07T16:03:32.104Z</time>
      </trkpt>
      <trkpt lat="43.29592" lon="3.33735">
        <ele>45.16604</ele>
        <time>2023-01-07T16:03:34.099Z</time>
      </trkpt>
      <trkpt lat="43.29592" lon="3.33748">
        <ele>45.24944</ele>
        <time>2023-01-07T16:03:36.099Z</time>
      </trkpt>
      <trkpt lat="43.29592" lon="3.3376">
        <ele>45.329658</ele>
        <time>2023-01-07T16:03:38.096Z</time>
      </trkpt>
      <trkpt lat="43.2959" lon="3.33778">
        <ele>45.445813</ele>
        <time>2023-01-07T16:03:41.107Z</time>
      </trkpt>
      <trkpt lat="43.29587" lon="3.33791">
        <ele>45.414938</ele>
        <time>2023-01-07T16:03:43.100Z</time>
      </trkpt>
      <trkpt lat="43.29584" lon="3.33803">
        <ele>45.345596</ele>
        <time>2023-01-07T16:03:45.099Z</time>
      </trkpt>
      <trkpt lat="43.29582" lon="3.33815">
        <ele>45.279869</ele>
        <time>2023-01-07T16:03:47.092Z</time>
      </trkpt>
      <trkpt lat="43.29579" lon="3.33828">
        <ele>45.209727</ele>
        <time>2023-01-07T16:03:49.101Z</time>
      </trkpt>
      <trkpt lat="43.29578" lon="3.33841">
        <ele>45.141767</ele>
        <time>2023-01-07T16:03:51.103Z</time>
      </trkpt>
      <trkpt lat="43.29576" lon="3.33855">
        <ele>45.064755</ele>
        <time>2023-01-07T16:03:53.103Z</time>
      </trkpt>
      <trkpt lat="43.29574" lon="3.33868">
        <ele>44.993489</ele>
        <time>2023-01-07T16:03:55.096Z</time>
      </trkpt>
      <trkpt lat="43.29571" lon="3.3388">
        <ele>44.925153</ele>
        <time>2023-01-07T16:03:57.101Z</time>
      </trkpt>
      <trkpt lat="43.29569" lon="3.33893">
        <ele>44.853365</ele>
        <time>2023-01-07T16:03:59.086Z</time>
      </trkpt>
      <trkpt lat="43.29566" lon="3.33906">
        <ele>44.780804</ele>
        <time>2023-01-07T16:04:01.107Z</time>
      </trkpt>
      <trkpt lat="43.29562" lon="3.33924">
        <ele>44.684478</ele>
        <time>2023-01-07T16:04:04.086Z</time>
      </trkpt>
      <trkpt lat="43.29557" lon="3.3394">
        <ele>44.593471</ele>
        <time>2023-01-07T16:04:07.087Z</time>
      </trkpt>
      <trkpt lat="43.29555" lon="3.33952">
        <ele>44.527831</ele>
        <time>2023-01-07T16:04:09.095Z</time>
      </trkpt>
      <trkpt lat="43.29551" lon="3.33964">
        <ele>44.457606</ele>
        <time>2023-01-07T16:04:11.097Z</time>
      </trkpt>
      <trkpt lat="43.29547" lon="3.33976">
        <ele>44.386045</ele>
        <time>2023-01-07T16:04:13.094Z</time>
      </trkpt>
      <trkpt lat="43.29543" lon="3.33988">
        <ele>44.31459</ele>
        <time>2023-01-07T16:04:15.100Z</time>
      </trkpt>
      <trkpt lat="43.29539" lon="3.34">
        <ele>44.24568</ele>
        <time>2023-01-07T16:04:17.087Z</time>
      </trkpt>
      <trkpt lat="43.29534" lon="3.34012">
        <ele>44.1722</ele>
        <time>2023-01-07T16:04:19.098Z</time>
      </trkpt>
      <trkpt lat="43.2953" lon="3.34024">
        <ele>44.173793</ele>
        <time>2023-01-07T16:04:21.098Z</time>
      </trkpt>
      <trkpt lat="43.29525" lon="3.34035">
        <ele>44.194007</ele>
        <time>2023-01-07T16:04:23.105Z</time>
      </trkpt>
      <trkpt lat="43.2952" lon="3.34046">
        <ele>44.214797</ele>
        <time>2023-01-07T16:04:25.099Z</time>
      </trkpt>
      <trkpt lat="43.29516" lon="3.34058">
        <ele>44.235218</ele>
        <time>2023-01-07T16:04:27.102Z</time>
      </trkpt>
      <trkpt lat="43.29512" lon="3.34069">
        <ele>44.255678</ele>
        <time>2023-01-07T16:04:29.098Z</time>
      </trkpt>
      <trkpt lat="43.29507" lon="3.34081">
        <ele>44.277537</ele>
        <time>2023-01-07T16:04:31.085Z</time>
      </trkpt>
      <trkpt lat="43.29502" lon="3.34093">
        <ele>44.299043</ele>
        <time>2023-01-07T16:04:33.096Z</time>
      </trkpt>
      <trkpt lat="43.29497" lon="3.34105">
        <ele>44.321318</ele>
        <time>2023-01-07T16:04:35.098Z</time>
      </trkpt>
      <trkpt lat="43.29492" lon="3.34118">
        <ele>44.343593</ele>
        <time>2023-01-07T16:04:37.101Z</time>
      </trkpt>
      <trkpt lat="43.29488" lon="3.3413">
        <ele>44.36578</ele>
        <time>2023-01-07T16:04:39.100Z</time>
      </trkpt>
      <trkpt lat="43.29483" lon="3.34142">
        <ele>44.387286</ele>
        <time>2023-01-07T16:04:41.091Z</time>
      </trkpt>
      <trkpt lat="43.29479" lon="3.34153">
        <ele>44.407675</ele>
        <time>2023-01-07T16:04:43.105Z</time>
      </trkpt>
      <trkpt lat="43.29475" lon="3.34165">
        <ele>44.42824</ele>
        <time>2023-01-07T16:04:45.105Z</time>
      </trkpt>
      <trkpt lat="43.2947" lon="3.34177">
        <ele>44.449688</ele>
        <time>2023-01-07T16:04:47.089Z</time>
      </trkpt>
      <trkpt lat="43.29465" lon="3.34189">
        <ele>44.471493</ele>
        <time>2023-01-07T16:04:49.093Z</time>
      </trkpt>
      <trkpt lat="43.29461" lon="3.342">
        <ele>44.492615</ele>
        <time>2023-01-07T16:04:51.087Z</time>
      </trkpt>
      <trkpt lat="43.29454" lon="3.34218">
        <ele>44.523448</ele>
        <time>2023-01-07T16:04:54.089Z</time>
      </trkpt>
      <trkpt lat="43.2945" lon="3.3423">
        <ele>44.545441</ele>
        <time>2023-01-07T16:04:56.085Z</time>
      </trkpt>
      <trkpt lat="43.29446" lon="3.34242">
        <ele>44.509849</ele>
        <time>2023-01-07T16:04:58.085Z</time>
      </trkpt>
      <trkpt lat="43.29442" lon="3.34254">
        <ele>44.461085</ele>
        <time>2023-01-07T16:05:00.099Z</time>
      </trkpt>
      <trkpt lat="43.29437" lon="3.34265">
        <ele>44.409285</ele>
        <time>2023-01-07T16:05:02.092Z</time>
      </trkpt>
      <trkpt lat="43.29432" lon="3.34278">
        <ele>44.351678</ele>
        <time>2023-01-07T16:05:04.086Z</time>
      </trkpt>
      <trkpt lat="43.29427" lon="3.34289">
        <ele>44.298883</ele>
        <time>2023-01-07T16:05:06.091Z</time>
      </trkpt>
      <trkpt lat="43.29422" lon="3.343">
        <ele>44.248943</ele>
        <time>2023-01-07T16:05:08.085Z</time>
      </trkpt>
      <trkpt lat="43.29417" lon="3.34312">
        <ele>44.195722</ele>
        <time>2023-01-07T16:05:10.098Z</time>
      </trkpt>
      <trkpt lat="43.29412" lon="3.34324">
        <ele>44.141192</ele>
        <time>2023-01-07T16:05:12.085Z</time>
      </trkpt>
      <trkpt lat="43.29407" lon="3.34335">
        <ele>44.090343</ele>
        <time>2023-01-07T16:05:14.089Z</time>
      </trkpt>
      <trkpt lat="43.29402" lon="3.34347">
        <ele>44.034029</ele>
        <time>2023-01-07T16:05:16.104Z</time>
      </trkpt>
      <trkpt lat="43.29397" lon="3.34359">
        <ele>43.980208</ele>
        <time>2023-01-07T16:05:18.084Z</time>
      </trkpt>
      <trkpt lat="43.29392" lon="3.34371">
        <ele>43.924791</ele>
        <time>2023-01-07T16:05:20.100Z</time>
      </trkpt>
      <trkpt lat="43.29387" lon="3.34383">
        <ele>43.872349</ele>
        <time>2023-01-07T16:05:22.091Z</time>
      </trkpt>
      <trkpt lat="43.29382" lon="3.34394">
        <ele>43.820455</ele>
        <time>2023-01-07T16:05:24.088Z</time>
      </trkpt>
      <trkpt lat="43.29376" lon="3.34411">
        <ele>43.748032</ele>
        <time>2023-01-07T16:05:27.088Z</time>
      </trkpt>
      <trkpt lat="43.29371" lon="3.34422">
        <ele>43.698589</ele>
        <time>2023-01-07T16:05:29.091Z</time>
      </trkpt>
      <trkpt lat="43.29367" lon="3.34433">
        <ele>43.648299</ele>
        <time>2023-01-07T16:05:31.091Z</time>
      </trkpt>
      <trkpt lat="43.29362" lon="3.34445">
        <ele>43.593832</ele>
        <time>2023-01-07T16:05:33.089Z</time>
      </trkpt>
      <trkpt lat="43.29356" lon="3.34456">
        <ele>43.584416</ele>
        <time>2023-01-07T16:05:35.105Z</time>
      </trkpt>
      <trkpt lat="43.29351" lon="3.34467">
        <ele>43.589685</ele>
        <time>2023-01-07T16:05:37.087Z</time>
      </trkpt>
      <trkpt lat="43.29346" lon="3.34478">
        <ele>43.594982</ele>
        <time>2023-01-07T16:05:39.096Z</time>
      </trkpt>
      <trkpt lat="43.29341" lon="3.3449">
        <ele>43.600252</ele>
        <time>2023-01-07T16:05:41.087Z</time>
      </trkpt>
      <trkpt lat="43.29336" lon="3.34501">
        <ele>43.605301</ele>
        <time>2023-01-07T16:05:43.105Z</time>
      </trkpt>
      <trkpt lat="43.29331" lon="3.34512">
        <ele>43.610548</ele>
        <time>2023-01-07T16:05:45.101Z</time>
      </trkpt>
      <trkpt lat="43.29325" lon="3.34523">
        <ele>43.615723</ele>
        <time>2023-01-07T16:05:47.096Z</time>
      </trkpt>
      <trkpt lat="43.2932" lon="3.34534">
        <ele>43.62097</ele>
        <time>2023-01-07T16:05:49.103Z</time>
      </trkpt>
      <trkpt lat="43.29315" lon="3.34545">
        <ele>43.626014</ele>
        <time>2023-01-07T16:05:51.084Z</time>
      </trkpt>
      <trkpt lat="43.29311" lon="3.34556">
        <ele>43.63108</ele>
        <time>2023-01-07T16:05:53.107Z</time>
      </trkpt>
      <trkpt lat="43.29304" lon="3.34572">
        <ele>43.638386</ele>
        <time>2023-01-07T16:05:56.101Z</time>
      </trkpt>
      <trkpt lat="43.29299" lon="3.34583">
        <ele>43.643637</ele>
        <time>2023-01-07T16:05:58.089Z</time>
      </trkpt>
      <trkpt lat="43.29294" lon="3.34595">
        <ele>43.649132</ele>
        <time>2023-01-07T16:06:00.104Z</time>
      </trkpt>
      <trkpt lat="43.29289" lon="3.34606">
        <ele>43.65417</ele>
        <time>2023-01-07T16:06:02.092Z</time>
      </trkpt>
      <trkpt lat="43.29284" lon="3.34619">
        <ele>43.659782</ele>
        <time>2023-01-07T16:06:04.086Z</time>
      </trkpt>
      <trkpt lat="43.29279" lon="3.34631">
        <ele>43.665233</ele>
        <time>2023-01-07T16:06:07.084Z</time>
      </trkpt>
      <trkpt lat="43.29275" lon="3.34642">
        <ele>43.670185</ele>
        <time>2023-01-07T16:06:10.085Z</time>
      </trkpt>
      <trkpt lat="43.2927" lon="3.34653">
        <ele>43.675414</ele>
        <time>2023-01-07T16:06:13.083Z</time>
      </trkpt>
      <trkpt lat="43.29263" lon="3.34672">
        <ele>43.719871</ele>
        <time>2023-01-07T16:07:58.139Z</time>
      </trkpt>
      <trkpt lat="43.29259" lon="3.34683">
        <ele>43.756731</ele>
        <time>2023-01-07T16:08:01.096Z</time>
      </trkpt>
      <trkpt lat="43.29255" lon="3.34696">
        <ele>43.797331</ele>
        <time>2023-01-07T16:08:04.088Z</time>
      </trkpt>
      <trkpt lat="43.2925" lon="3.34708">
        <ele>43.838658</ele>
        <time>2023-01-07T16:08:07.095Z</time>
      </trkpt>
      <trkpt lat="43.29245" lon="3.34721">
        <ele>43.883415</ele>
        <time>2023-01-07T16:08:10.087Z</time>
      </trkpt>
      <trkpt lat="43.2924" lon="3.34736">
        <ele>43.931047</ele>
        <time>2023-01-07T16:08:13.090Z</time>
      </trkpt>
      <trkpt lat="43.29235" lon="3.34751">
        <ele>43.980688</ele>
        <time>2023-01-07T16:08:16.098Z</time>
      </trkpt>
      <trkpt lat="43.2923" lon="3.34764">
        <ele>44.025094</ele>
        <time>2023-01-07T16:08:19.094Z</time>
      </trkpt>
      <trkpt lat="43.29224" lon="3.34779">
        <ele>44.074677</ele>
        <time>2023-01-07T16:08:22.092Z</time>
      </trkpt>
      <trkpt lat="43.29219" lon="3.34794">
        <ele>44.125562</ele>
        <time>2023-01-07T16:08:25.109Z</time>
      </trkpt>
      <trkpt lat="43.29212" lon="3.34809">
        <ele>44.175926</ele>
        <time>2023-01-07T16:08:28.086Z</time>
      </trkpt>
      <trkpt lat="43.29206" lon="3.34824">
        <ele>44.22687</ele>
        <time>2023-01-07T16:08:31.095Z</time>
      </trkpt>
      <trkpt lat="43.29201" lon="3.3484">
        <ele>44.278478</ele>
        <time>2023-01-07T16:08:34.086Z</time>
      </trkpt>
      <trkpt lat="43.29196" lon="3.34856">
        <ele>44.330202</ele>
        <time>2023-01-07T16:08:37.092Z</time>
      </trkpt>
      <trkpt lat="43.2919" lon="3.34872">
        <ele>44.382867</ele>
        <time>2023-01-07T16:08:40.101Z</time>
      </trkpt>
      <trkpt lat="43.29183" lon="3.34888">
        <ele>44.43302</ele>
        <time>2023-01-07T16:08:43.087Z</time>
      </trkpt>
      <trkpt lat="43.29178" lon="3.34905">
        <ele>44.478537</ele>
        <time>2023-01-07T16:08:46.094Z</time>
      </trkpt>
      <trkpt lat="43.29172" lon="3.34921">
        <ele>44.524019</ele>
        <time>2023-01-07T16:08:49.091Z</time>
      </trkpt>
      <trkpt lat="43.29166" lon="3.34938">
        <ele>44.569581</ele>
        <time>2023-01-07T16:08:52.095Z</time>
      </trkpt>
      <trkpt lat="43.2916" lon="3.34953">
        <ele>44.614041</ele>
        <time>2023-01-07T16:08:55.094Z</time>
      </trkpt>
      <trkpt lat="43.29156" lon="3.34964">
        <ele>44.644808</ele>
        <time>2023-01-07T16:08:57.091Z</time>
      </trkpt>
      <trkpt lat="43.29151" lon="3.34975">
        <ele>44.675486</ele>
        <time>2023-01-07T16:08:59.094Z</time>
      </trkpt>
      <trkpt lat="43.29145" lon="3.34991">
        <ele>44.719852</ele>
        <time>2023-01-07T16:09:02.085Z</time>
      </trkpt>
      <trkpt lat="43.2914" lon="3.35007">
        <ele>44.763469</ele>
        <time>2023-01-07T16:09:05.091Z</time>
      </trkpt>
      <trkpt lat="43.29134" lon="3.35022">
        <ele>44.807613</ele>
        <time>2023-01-07T16:09:08.090Z</time>
      </trkpt>
      <trkpt lat="43.2913" lon="3.35034">
        <ele>44.838556</ele>
        <time>2023-01-07T16:09:10.093Z</time>
      </trkpt>
      <trkpt lat="43.29124" lon="3.3505">
        <ele>44.883587</ele>
        <time>2023-01-07T16:09:13.085Z</time>
      </trkpt>
      <trkpt lat="43.29118" lon="3.35066">
        <ele>44.928619</ele>
        <time>2023-01-07T16:09:16.099Z</time>
      </trkpt>
      <trkpt lat="43.29115" lon="3.35078">
        <ele>44.959805</ele>
        <time>2023-01-07T16:09:18.087Z</time>
      </trkpt>
      <trkpt lat="43.29111" lon="3.3509">
        <ele>44.991795</ele>
        <time>2023-01-07T16:09:20.099Z</time>
      </trkpt>
      <trkpt lat="43.29107" lon="3.35101">
        <ele>45.023479</ele>
        <time>2023-01-07T16:09:22.092Z</time>
      </trkpt>
      <trkpt lat="43.29103" lon="3.35114">
        <ele>45.058696</ele>
        <time>2023-01-07T16:09:24.103Z</time>
      </trkpt>
      <trkpt lat="43.291" lon="3.35127">
        <ele>45.093842</ele>
        <time>2023-01-07T16:09:26.102Z</time>
      </trkpt>
      <trkpt lat="43.29097" lon="3.35139">
        <ele>45.126352</ele>
        <time>2023-01-07T16:09:28.097Z</time>
      </trkpt>
      <trkpt lat="43.29092" lon="3.35156">
        <ele>45.172298</ele>
        <time>2023-01-07T16:09:31.094Z</time>
      </trkpt>
      <trkpt lat="43.29088" lon="3.35171">
        <ele>45.213561</ele>
        <time>2023-01-07T16:09:34.090Z</time>
      </trkpt>
      <trkpt lat="43.29084" lon="3.35188">
        <ele>45.258961</ele>
        <time>2023-01-07T16:09:37.100Z</time>
      </trkpt>
      <trkpt lat="43.29081" lon="3.35204">
        <ele>45.302794</ele>
        <time>2023-01-07T16:09:40.087Z</time>
      </trkpt>
      <trkpt lat="43.29078" lon="3.3522">
        <ele>45.34448</ele>
        <time>2023-01-07T16:09:43.087Z</time>
      </trkpt>
      <trkpt lat="43.29075" lon="3.35236">
        <ele>45.387157</ele>
        <time>2023-01-07T16:09:46.092Z</time>
      </trkpt>
      <trkpt lat="43.29073" lon="3.35254">
        <ele>45.432075</ele>
        <time>2023-01-07T16:09:49.091Z</time>
      </trkpt>
      <trkpt lat="43.29071" lon="3.35272">
        <ele>45.478362</ele>
        <time>2023-01-07T16:09:52.084Z</time>
      </trkpt>
      <trkpt lat="43.2907" lon="3.35285">
        <ele>45.513513</ele>
        <time>2023-01-07T16:09:54.088Z</time>
      </trkpt>
      <trkpt lat="43.29068" lon="3.35298">
        <ele>45.547419</ele>
        <time>2023-01-07T16:09:56.091Z</time>
      </trkpt>
      <trkpt lat="43.29066" lon="3.35312">
        <ele>45.582842</ele>
        <time>2023-01-07T16:09:58.093Z</time>
      </trkpt>
      <trkpt lat="43.29065" lon="3.35325">
        <ele>45.617056</ele>
        <time>2023-01-07T16:10:00.097Z</time>
      </trkpt>
      <trkpt lat="43.29063" lon="3.35344">
        <ele>45.676602</ele>
        <time>2023-01-07T16:10:03.093Z</time>
      </trkpt>
      <trkpt lat="43.29062" lon="3.3536">
        <ele>45.763966</ele>
        <time>2023-01-07T16:10:06.086Z</time>
      </trkpt>
      <trkpt lat="43.29062" lon="3.35374">
        <ele>45.841363</ele>
        <time>2023-01-07T16:10:09.094Z</time>
      </trkpt>
      <trkpt lat="43.2906" lon="3.35388">
        <ele>45.917862</ele>
        <time>2023-01-07T16:10:12.091Z</time>
      </trkpt>
      <trkpt lat="43.29059" lon="3.35401">
        <ele>45.990918</ele>
        <time>2023-01-07T16:10:15.088Z</time>
      </trkpt>
      <trkpt lat="43.29059" lon="3.35414">
        <ele>46.060159</ele>
        <time>2023-01-07T16:10:18.089Z</time>
      </trkpt>
      <trkpt lat="43.29058" lon="3.35427">
        <ele>46.129859</ele>
        <time>2023-01-07T16:10:21.096Z</time>
      </trkpt>
      <trkpt lat="43.29057" lon="3.3544">
        <ele>46.203813</ele>
        <time>2023-01-07T16:10:24.092Z</time>
      </trkpt>
      <trkpt lat="43.29058" lon="3.35456">
        <ele>46.291667</ele>
        <time>2023-01-07T16:10:28.089Z</time>
      </trkpt>
      <trkpt lat="43.29058" lon="3.35471">
        <ele>46.371154</ele>
        <time>2023-01-07T16:10:31.097Z</time>
      </trkpt>
      <trkpt lat="43.29057" lon="3.35487">
        <ele>46.456744</ele>
        <time>2023-01-07T16:10:34.105Z</time>
      </trkpt>
      <trkpt lat="43.29056" lon="3.35503">
        <ele>46.544236</ele>
        <time>2023-01-07T16:10:37.094Z</time>
      </trkpt>
      <trkpt lat="43.29055" lon="3.35519">
        <ele>46.63323</ele>
        <time>2023-01-07T16:10:40.100Z</time>
      </trkpt>
      <trkpt lat="43.29055" lon="3.35536">
        <ele>46.724296</ele>
        <time>2023-01-07T16:10:43.099Z</time>
      </trkpt>
      <trkpt lat="43.29054" lon="3.35553">
        <ele>46.818838</ele>
        <time>2023-01-07T16:10:46.101Z</time>
      </trkpt>
      <trkpt lat="43.29052" lon="3.3557">
        <ele>46.911524</ele>
        <time>2023-01-07T16:10:49.100Z</time>
      </trkpt>
      <trkpt lat="43.29051" lon="3.35587">
        <ele>46.997436</ele>
        <time>2023-01-07T16:10:52.092Z</time>
      </trkpt>
      <trkpt lat="43.2905" lon="3.35604">
        <ele>46.941341</ele>
        <time>2023-01-07T16:10:55.095Z</time>
      </trkpt>
      <trkpt lat="43.29049" lon="3.35622">
        <ele>46.882729</ele>
        <time>2023-01-07T16:10:58.084Z</time>
      </trkpt>
      <trkpt lat="43.29048" lon="3.35634">
        <ele>46.84205</ele>
        <time>2023-01-07T16:11:00.092Z</time>
      </trkpt>
      <trkpt lat="43.29048" lon="3.35647">
        <ele>46.799752</ele>
        <time>2023-01-07T16:11:02.087Z</time>
      </trkpt>
      <trkpt lat="43.29048" lon="3.35661">
        <ele>46.753519</ele>
        <time>2023-01-07T16:11:04.098Z</time>
      </trkpt>
      <trkpt lat="43.29048" lon="3.35676">
        <ele>46.704001</ele>
        <time>2023-01-07T16:11:06.095Z</time>
      </trkpt>
      <trkpt lat="43.29049" lon="3.3569">
        <ele>46.658745</ele>
        <time>2023-01-07T16:11:08.103Z</time>
      </trkpt>
      <trkpt lat="43.29049" lon="3.35704">
        <ele>46.613824</ele>
        <time>2023-01-07T16:11:10.104Z</time>
      </trkpt>
      <trkpt lat="43.29049" lon="3.35717">
        <ele>46.568848</ele>
        <time>2023-01-07T16:11:12.091Z</time>
      </trkpt>
      <trkpt lat="43.2905" lon="3.3573">
        <ele>46.528129</ele>
        <time>2023-01-07T16:11:14.084Z</time>
      </trkpt>
      <trkpt lat="43.2905" lon="3.35748">
        <ele>46.469329</ele>
        <time>2023-01-07T16:11:17.091Z</time>
      </trkpt>
      <trkpt lat="43.2905" lon="3.35765">
        <ele>46.412606</ele>
        <time>2023-01-07T16:11:20.097Z</time>
      </trkpt>
      <trkpt lat="43.2905" lon="3.35782">
        <ele>46.35621</ele>
        <time>2023-01-07T16:11:23.098Z</time>
      </trkpt>
      <trkpt lat="43.29051" lon="3.35799">
        <ele>46.301596</ele>
        <time>2023-01-07T16:11:26.088Z</time>
      </trkpt>
      <trkpt lat="43.29052" lon="3.35813">
        <ele>46.254244</ele>
        <time>2023-01-07T16:11:29.105Z</time>
      </trkpt>
      <trkpt lat="43.29053" lon="3.35827">
        <ele>46.210303</ele>
        <time>2023-01-07T16:11:32.096Z</time>
      </trkpt>
      <trkpt lat="43.29054" lon="3.3584">
        <ele>46.165746</ele>
        <time>2023-01-07T16:11:37.101Z</time>
      </trkpt>
      <trkpt lat="43.29055" lon="3.35855">
        <ele>46.118232</ele>
        <time>2023-01-07T16:11:42.087Z</time>
      </trkpt>
      <trkpt lat="43.29056" lon="3.3587">
        <ele>46.071264</ele>
        <time>2023-01-07T16:11:46.088Z</time>
      </trkpt>
      <trkpt lat="43.29057" lon="3.35886">
        <ele>46.018974</ele>
        <time>2023-01-07T16:11:50.090Z</time>
      </trkpt>
      <trkpt lat="43.29058" lon="3.359">
        <ele>45.972944</ele>
        <time>2023-01-07T16:11:53.097Z</time>
      </trkpt>
      <trkpt lat="43.29059" lon="3.35916">
        <ele>45.922589</ele>
        <time>2023-01-07T16:11:56.087Z</time>
      </trkpt>
      <trkpt lat="43.29059" lon="3.35932">
        <ele>45.87153</ele>
        <time>2023-01-07T16:11:59.105Z</time>
      </trkpt>
      <trkpt lat="43.29061" lon="3.35947">
        <ele>45.822864</ele>
        <time>2023-01-07T16:12:02.094Z</time>
      </trkpt>
      <trkpt lat="43.29062" lon="3.35961">
        <ele>45.775579</ele>
        <time>2023-01-07T16:12:05.099Z</time>
      </trkpt>
      <trkpt lat="43.29063" lon="3.35977">
        <ele>45.726463</ele>
        <time>2023-01-07T16:12:08.099Z</time>
      </trkpt>
      <trkpt lat="43.29064" lon="3.35992">
        <ele>45.676318</ele>
        <time>2023-01-07T16:12:11.096Z</time>
      </trkpt>
      <trkpt lat="43.29066" lon="3.36007">
        <ele>45.629604</ele>
        <time>2023-01-07T16:12:14.095Z</time>
      </trkpt>
      <trkpt lat="43.29068" lon="3.3602">
        <ele>45.584479</ele>
        <time>2023-01-07T16:12:17.105Z</time>
      </trkpt>
      <trkpt lat="43.2907" lon="3.36032">
        <ele>45.544374</ele>
        <time>2023-01-07T16:12:20.096Z</time>
      </trkpt>
      <trkpt lat="43.29072" lon="3.36049">
        <ele>45.490579</ele>
        <time>2023-01-07T16:12:24.099Z</time>
      </trkpt>
      <trkpt lat="43.29074" lon="3.36064">
        <ele>45.440375</ele>
        <time>2023-01-07T16:12:27.109Z</time>
      </trkpt>
      <trkpt lat="43.29076" lon="3.36083">
        <ele>45.363726</ele>
        <time>2023-01-07T16:12:30.103Z</time>
      </trkpt>
      <trkpt lat="43.29078" lon="3.36096">
        <ele>45.27673</ele>
        <time>2023-01-07T16:12:32.097Z</time>
      </trkpt>
      <trkpt lat="43.29078" lon="3.36111">
        <ele>45.176235</ele>
        <time>2023-01-07T16:12:35.101Z</time>
      </trkpt>
      <trkpt lat="43.29077" lon="3.36124">
        <ele>45.09204</ele>
        <time>2023-01-07T16:12:38.099Z</time>
      </trkpt>
      <trkpt lat="43.29075" lon="3.36138">
        <ele>44.992717</ele>
        <time>2023-01-07T16:12:43.087Z</time>
      </trkpt>
      <trkpt lat="43.29071" lon="3.36153">
        <ele>44.888844</ele>
        <time>2023-01-07T16:12:47.088Z</time>
      </trkpt>
      <trkpt lat="43.29065" lon="3.36166">
        <ele>44.782087</ele>
        <time>2023-01-07T16:12:50.092Z</time>
      </trkpt>
      <trkpt lat="43.29057" lon="3.36178">
        <ele>44.675325</ele>
        <time>2023-01-07T16:12:53.103Z</time>
      </trkpt>
      <trkpt lat="43.2905" lon="3.36186">
        <ele>44.593326</ele>
        <time>2023-01-07T16:12:55.098Z</time>
      </trkpt>
      <trkpt lat="43.29039" lon="3.36195">
        <ele>44.478719</ele>
        <time>2023-01-07T16:12:58.087Z</time>
      </trkpt>
      <trkpt lat="43.29028" lon="3.36201">
        <ele>44.374075</ele>
        <time>2023-01-07T16:13:01.086Z</time>
      </trkpt>
      <trkpt lat="43.29017" lon="3.36207">
        <ele>44.269059</ele>
        <time>2023-01-07T16:13:04.131Z</time>
      </trkpt>
      <trkpt lat="43.29007" lon="3.36211">
        <ele>44.167487</ele>
        <time>2023-01-07T16:13:07.093Z</time>
      </trkpt>
      <trkpt lat="43.28996" lon="3.36216">
        <ele>44.062033</ele>
        <time>2023-01-07T16:13:10.094Z</time>
      </trkpt>
      <trkpt lat="43.28984" lon="3.36221">
        <ele>43.952505</ele>
        <time>2023-01-07T16:13:13.084Z</time>
      </trkpt>
      <trkpt lat="43.28972" lon="3.36226">
        <ele>43.838163</ele>
        <time>2023-01-07T16:13:16.089Z</time>
      </trkpt>
      <trkpt lat="43.2896" lon="3.36229">
        <ele>43.774292</ele>
        <time>2023-01-07T16:13:19.104Z</time>
      </trkpt>
      <trkpt lat="43.28949" lon="3.36233">
        <ele>43.792886</ele>
        <time>2023-01-07T16:13:22.090Z</time>
      </trkpt>
      <trkpt lat="43.28938" lon="3.36237">
        <ele>43.810791</ele>
        <time>2023-01-07T16:13:25.086Z</time>
      </trkpt>
      <trkpt lat="43.28925" lon="3.36252">
        <ele>43.839664</ele>
        <time>2023-01-07T16:14:12.103Z</time>
      </trkpt>
      <trkpt lat="43.28926" lon="3.36266">
        <ele>43.856127</ele>
        <time>2023-01-07T16:14:17.093Z</time>
      </trkpt>
      <trkpt lat="43.28932" lon="3.36278">
        <ele>43.873733</ele>
        <time>2023-01-07T16:14:21.088Z</time>
      </trkpt>
      <trkpt lat="43.2894" lon="3.36286">
        <ele>43.889287</ele>
        <time>2023-01-07T16:14:24.086Z</time>
      </trkpt>
      <trkpt lat="43.28948" lon="3.36295">
        <ele>43.906235</ele>
        <time>2023-01-07T16:14:27.100Z</time>
      </trkpt>
      <trkpt lat="43.28958" lon="3.36309">
        <ele>43.929119</ele>
        <time>2023-01-07T16:14:30.099Z</time>
      </trkpt>
      <trkpt lat="43.28965" lon="3.36323">
        <ele>43.949781</ele>
        <time>2023-01-07T16:14:32.088Z</time>
      </trkpt>
      <trkpt lat="43.2897" lon="3.36335">
        <ele>43.966017</ele>
        <time>2023-01-07T16:14:34.094Z</time>
      </trkpt>
      <trkpt lat="43.28973" lon="3.36352">
        <ele>43.987181</ele>
        <time>2023-01-07T16:14:37.102Z</time>
      </trkpt>
      <trkpt lat="43.2897" lon="3.36369">
        <ele>44.006995</ele>
        <time>2023-01-07T16:14:40.091Z</time>
      </trkpt>
      <trkpt lat="43.28964" lon="3.36382">
        <ele>44.025294</ele>
        <time>2023-01-07T16:14:43.087Z</time>
      </trkpt>
      <trkpt lat="43.28958" lon="3.36394">
        <ele>44.042903</ele>
        <time>2023-01-07T16:14:46.083Z</time>
      </trkpt>
      <trkpt lat="43.28952" lon="3.36407">
        <ele>44.057708</ele>
        <time>2023-01-07T16:14:49.105Z</time>
      </trkpt>
      <trkpt lat="43.28946" lon="3.36421">
        <ele>44.041064</ele>
        <time>2023-01-07T16:14:52.088Z</time>
      </trkpt>
      <trkpt lat="43.2894" lon="3.36435">
        <ele>44.023852</ele>
        <time>2023-01-07T16:14:55.088Z</time>
      </trkpt>
      <trkpt lat="43.28934" lon="3.36448">
        <ele>44.00673</ele>
        <time>2023-01-07T16:14:58.095Z</time>
      </trkpt>
      <trkpt lat="43.28928" lon="3.36463">
        <ele>43.988562</ele>
        <time>2023-01-07T16:15:01.090Z</time>
      </trkpt>
      <trkpt lat="43.28922" lon="3.36478">
        <ele>43.970186</ele>
        <time>2023-01-07T16:15:04.102Z</time>
      </trkpt>
      <trkpt lat="43.28915" lon="3.36493">
        <ele>43.951249</ele>
        <time>2023-01-07T16:15:07.089Z</time>
      </trkpt>
      <trkpt lat="43.2891" lon="3.3651">
        <ele>43.932491</ele>
        <time>2023-01-07T16:15:10.098Z</time>
      </trkpt>
      <trkpt lat="43.28904" lon="3.36525">
        <ele>43.91391</ele>
        <time>2023-01-07T16:15:13.092Z</time>
      </trkpt>
      <trkpt lat="43.28898" lon="3.36541">
        <ele>43.895371</ele>
        <time>2023-01-07T16:15:16.093Z</time>
      </trkpt>
      <trkpt lat="43.28892" lon="3.36556">
        <ele>43.876504</ele>
        <time>2023-01-07T16:15:19.100Z</time>
      </trkpt>
      <trkpt lat="43.28888" lon="3.36567">
        <ele>43.863245</ele>
        <time>2023-01-07T16:15:21.098Z</time>
      </trkpt>
      <trkpt lat="43.28881" lon="3.36583">
        <ele>43.843738</ele>
        <time>2023-01-07T16:15:24.091Z</time>
      </trkpt>
      <trkpt lat="43.28876" lon="3.36594">
        <ele>43.830212</ele>
        <time>2023-01-07T16:15:26.096Z</time>
      </trkpt>
      <trkpt lat="43.2887" lon="3.3661">
        <ele>43.810989</ele>
        <time>2023-01-07T16:15:29.088Z</time>
      </trkpt>
      <trkpt lat="43.28862" lon="3.36623">
        <ele>43.799862</ele>
        <time>2023-01-07T16:15:32.102Z</time>
      </trkpt>
      <trkpt lat="43.28856" lon="3.3664">
        <ele>43.81377</ele>
        <time>2023-01-07T16:15:35.089Z</time>
      </trkpt>
      <trkpt lat="43.28853" lon="3.36652">
        <ele>43.822862</ele>
        <time>2023-01-07T16:15:37.096Z</time>
      </trkpt>
      <trkpt lat="43.28849" lon="3.36668">
        <ele>43.835178</ele>
        <time>2023-01-07T16:15:40.089Z</time>
      </trkpt>
      <trkpt lat="43.28844" lon="3.36683">
        <ele>43.847465</ele>
        <time>2023-01-07T16:15:43.103Z</time>
      </trkpt>
      <trkpt lat="43.2884" lon="3.36699">
        <ele>43.860292</ele>
        <time>2023-01-07T16:15:46.105Z</time>
      </trkpt>
      <trkpt lat="43.28836" lon="3.36716">
        <ele>43.872986</ele>
        <time>2023-01-07T16:15:49.109Z</time>
      </trkpt>
      <trkpt lat="43.28832" lon="3.36731">
        <ele>43.88516</ele>
        <time>2023-01-07T16:15:52.095Z</time>
      </trkpt>
      <trkpt lat="43.28829" lon="3.36748">
        <ele>43.897511</ele>
        <time>2023-01-07T16:15:55.087Z</time>
      </trkpt>
      <trkpt lat="43.28825" lon="3.36763">
        <ele>43.909542</ele>
        <time>2023-01-07T16:15:58.086Z</time>
      </trkpt>
      <trkpt lat="43.28821" lon="3.36779">
        <ele>43.921894</ele>
        <time>2023-01-07T16:16:01.099Z</time>
      </trkpt>
      <trkpt lat="43.28817" lon="3.36796">
        <ele>43.935211</ele>
        <time>2023-01-07T16:16:04.097Z</time>
      </trkpt>
      <trkpt lat="43.28813" lon="3.36813">
        <ele>43.948116</ele>
        <time>2023-01-07T16:16:07.090Z</time>
      </trkpt>
      <trkpt lat="43.28809" lon="3.36829">
        <ele>43.96086</ele>
        <time>2023-01-07T16:16:10.100Z</time>
      </trkpt>
      <trkpt lat="43.28805" lon="3.36846">
        <ele>43.973652</ele>
        <time>2023-01-07T16:16:13.090Z</time>
      </trkpt>
      <trkpt lat="43.28801" lon="3.36862">
        <ele>43.962168</ele>
        <time>2023-01-07T16:16:16.092Z</time>
      </trkpt>
      <trkpt lat="43.28797" lon="3.36878">
        <ele>43.93464</ele>
        <time>2023-01-07T16:16:19.090Z</time>
      </trkpt>
      <trkpt lat="43.28793" lon="3.36895">
        <ele>43.906961</ele>
        <time>2023-01-07T16:16:22.093Z</time>
      </trkpt>
      <trkpt lat="43.28788" lon="3.36911">
        <ele>43.878583</ele>
        <time>2023-01-07T16:16:25.101Z</time>
      </trkpt>
      <trkpt lat="43.28783" lon="3.36928">
        <ele>43.849677</ele>
        <time>2023-01-07T16:16:28.103Z</time>
      </trkpt>
      <trkpt lat="43.2878" lon="3.36945">
        <ele>43.821354</ele>
        <time>2023-01-07T16:16:31.089Z</time>
      </trkpt>
      <trkpt lat="43.28776" lon="3.36961">
        <ele>43.7933</ele>
        <time>2023-01-07T16:16:34.102Z</time>
      </trkpt>
      <trkpt lat="43.28774" lon="3.36974">
        <ele>43.773335</ele>
        <time>2023-01-07T16:16:36.099Z</time>
      </trkpt>
      <trkpt lat="43.28771" lon="3.36985">
        <ele>43.753382</ele>
        <time>2023-01-07T16:16:38.094Z</time>
      </trkpt>
      <trkpt lat="43.28768" lon="3.36998">
        <ele>43.73297</ele>
        <time>2023-01-07T16:16:40.089Z</time>
      </trkpt>
      <trkpt lat="43.28765" lon="3.3701">
        <ele>43.71273</ele>
        <time>2023-01-07T16:16:42.095Z</time>
      </trkpt>
      <trkpt lat="43.28761" lon="3.37027">
        <ele>43.683773</ele>
        <time>2023-01-07T16:16:45.104Z</time>
      </trkpt>
      <trkpt lat="43.28756" lon="3.37043">
        <ele>43.655329</ele>
        <time>2023-01-07T16:16:48.089Z</time>
      </trkpt>
      <trkpt lat="43.28753" lon="3.37055">
        <ele>43.635392</ele>
        <time>2023-01-07T16:16:50.094Z</time>
      </trkpt>
      <trkpt lat="43.28748" lon="3.37072">
        <ele>43.606569</ele>
        <time>2023-01-07T16:16:53.096Z</time>
      </trkpt>
      <trkpt lat="43.28743" lon="3.37087">
        <ele>43.583561</ele>
        <time>2023-01-07T16:16:56.098Z</time>
      </trkpt>
      <trkpt lat="43.28737" lon="3.37102">
        <ele>43.586085</ele>
        <time>2023-01-07T16:16:59.092Z</time>
      </trkpt>
      <trkpt lat="43.2873" lon="3.37117">
        <ele>43.588708</ele>
        <time>2023-01-07T16:17:02.088Z</time>
      </trkpt>
      <trkpt lat="43.28722" lon="3.37132">
        <ele>43.591376</ele>
        <time>2023-01-07T16:17:05.091Z</time>
      </trkpt>
      <trkpt lat="43.28715" lon="3.37146">
        <ele>43.594031</ele>
        <time>2023-01-07T16:17:08.091Z</time>
      </trkpt>
      <trkpt lat="43.28709" lon="3.37162">
        <ele>43.596697</ele>
        <time>2023-01-07T16:17:11.090Z</time>
      </trkpt>
      <trkpt lat="43.28708" lon="3.3718">
        <ele>43.599377</ele>
        <time>2023-01-07T16:17:14.103Z</time>
      </trkpt>
      <trkpt lat="43.28709" lon="3.37193">
        <ele>43.601359</ele>
        <time>2023-01-07T16:17:16.083Z</time>
      </trkpt>
      <trkpt lat="43.2871" lon="3.37205">
        <ele>43.603221</ele>
        <time>2023-01-07T16:17:18.103Z</time>
      </trkpt>
      <trkpt lat="43.2871" lon="3.37222">
        <ele>43.605665</ele>
        <time>2023-01-07T16:17:21.102Z</time>
      </trkpt>
      <trkpt lat="43.28707" lon="3.37235">
        <ele>43.607764</ele>
        <time>2023-01-07T16:17:24.105Z</time>
      </trkpt>
      <trkpt lat="43.28703" lon="3.37249">
        <ele>43.610066</ele>
        <time>2023-01-07T16:17:27.098Z</time>
      </trkpt>
      <trkpt lat="43.28695" lon="3.37263">
        <ele>43.612624</ele>
        <time>2023-01-07T16:17:30.096Z</time>
      </trkpt>
      <trkpt lat="43.28684" lon="3.37274">
        <ele>43.615484</ele>
        <time>2023-01-07T16:17:33.100Z</time>
      </trkpt>
      <trkpt lat="43.28676" lon="3.37281">
        <ele>43.61742</ele>
        <time>2023-01-07T16:17:35.094Z</time>
      </trkpt>
      <trkpt lat="43.28669" lon="3.37289">
        <ele>43.619314</ele>
        <time>2023-01-07T16:17:37.103Z</time>
      </trkpt>
      <trkpt lat="43.28661" lon="3.37296">
        <ele>43.795443</ele>
        <time>2023-01-07T16:17:39.104Z</time>
      </trkpt>
      <trkpt lat="43.2865" lon="3.37307">
        <ele>44.225801</ele>
        <time>2023-01-07T16:17:42.095Z</time>
      </trkpt>
      <trkpt lat="43.2864" lon="3.37318">
        <ele>44.643358</ele>
        <time>2023-01-07T16:17:45.095Z</time>
      </trkpt>
      <trkpt lat="43.28632" lon="3.37328">
        <ele>44.986438</ele>
        <time>2023-01-07T16:17:48.108Z</time>
      </trkpt>
      <trkpt lat="43.28625" lon="3.3734">
        <ele>45.354862</ele>
        <time>2023-01-07T16:17:52.096Z</time>
      </trkpt>
      <trkpt lat="43.28622" lon="3.37352">
        <ele>45.652562</ele>
        <time>2023-01-07T16:17:55.107Z</time>
      </trkpt>
      <trkpt lat="43.2862" lon="3.37367">
        <ele>46.021279</ele>
        <time>2023-01-07T16:17:59.099Z</time>
      </trkpt>
      <trkpt lat="43.28619" lon="3.37383">
        <ele>46.393606</ele>
        <time>2023-01-07T16:18:03.101Z</time>
      </trkpt>
      <trkpt lat="43.28619" lon="3.37396">
        <ele>46.701731</ele>
        <time>2023-01-07T16:18:08.100Z</time>
      </trkpt>
      <trkpt lat="43.2863" lon="3.37409">
        <ele>47.149471</ele>
        <time>2023-01-07T16:29:08.207Z</time>
      </trkpt>
      <trkpt lat="43.28636" lon="3.37419">
        <ele>47.443577</ele>
        <time>2023-01-07T16:29:14.107Z</time>
      </trkpt>
      <trkpt lat="43.28639" lon="3.37432">
        <ele>47.759018</ele>
        <time>2023-01-07T16:29:18.097Z</time>
      </trkpt>
      <trkpt lat="43.28645" lon="3.37444">
        <ele>48.126958</ele>
        <time>2023-01-07T16:29:22.088Z</time>
      </trkpt>
      <trkpt lat="43.28652" lon="3.37453">
        <ele>48.426477</ele>
        <time>2023-01-07T16:29:27.098Z</time>
      </trkpt>
      <trkpt lat="43.28663" lon="3.3746">
        <ele>48.803245</ele>
        <time>2023-01-07T16:30:01.121Z</time>
      </trkpt>
      <trkpt lat="43.2867" lon="3.37468">
        <ele>49.094748</ele>
        <time>2023-01-07T16:30:04.096Z</time>
      </trkpt>
      <trkpt lat="43.28678" lon="3.37476">
        <ele>49.414673</ele>
        <time>2023-01-07T16:30:07.092Z</time>
      </trkpt>
      <trkpt lat="43.28686" lon="3.37485">
        <ele>49.351382</ele>
        <time>2023-01-07T16:30:10.102Z</time>
      </trkpt>
      <trkpt lat="43.28694" lon="3.37496">
        <ele>49.276562</ele>
        <time>2023-01-07T16:30:14.095Z</time>
      </trkpt>
      <trkpt lat="43.28701" lon="3.37504">
        <ele>49.218126</ele>
        <time>2023-01-07T16:30:17.096Z</time>
      </trkpt>
      <trkpt lat="43.28708" lon="3.37515">
        <ele>49.150067</ele>
        <time>2023-01-07T16:30:20.102Z</time>
      </trkpt>
      <trkpt lat="43.28716" lon="3.37525">
        <ele>49.081388</ele>
        <time>2023-01-07T16:30:23.098Z</time>
      </trkpt>
      <trkpt lat="43.28724" lon="3.37533">
        <ele>49.017986</ele>
        <time>2023-01-07T16:30:26.097Z</time>
      </trkpt>
      <trkpt lat="43.28732" lon="3.3754">
        <ele>48.954587</ele>
        <time>2023-01-07T16:30:29.107Z</time>
      </trkpt>
      <trkpt lat="43.28744" lon="3.37549">
        <ele>48.871352</ele>
        <time>2023-01-07T16:30:33.092Z</time>
      </trkpt>
      <trkpt lat="43.28756" lon="3.37555">
        <ele>48.790487</ele>
        <time>2023-01-07T16:30:36.092Z</time>
      </trkpt>
      <trkpt lat="43.28766" lon="3.37561">
        <ele>48.718803</ele>
        <time>2023-01-07T16:30:39.099Z</time>
      </trkpt>
      <trkpt lat="43.28775" lon="3.3757">
        <ele>48.648824</ele>
        <time>2023-01-07T16:30:42.089Z</time>
      </trkpt>
      <trkpt lat="43.28783" lon="3.37581">
        <ele>48.574144</ele>
        <time>2023-01-07T16:30:45.101Z</time>
      </trkpt>
      <trkpt lat="43.28789" lon="3.37596">
        <ele>48.494097</ele>
        <time>2023-01-07T16:30:48.104Z</time>
      </trkpt>
      <trkpt lat="43.28795" lon="3.37612">
        <ele>48.408868</ele>
        <time>2023-01-07T16:30:51.108Z</time>
      </trkpt>
      <trkpt lat="43.28798" lon="3.37628">
        <ele>48.333896</ele>
        <time>2023-01-07T16:30:54.100Z</time>
      </trkpt>
      <trkpt lat="43.28799" lon="3.37643">
        <ele>48.267299</ele>
        <time>2023-01-07T16:30:57.089Z</time>
      </trkpt>
      <trkpt lat="43.28803" lon="3.37657">
        <ele>48.336761</ele>
        <time>2023-01-07T16:31:00.090Z</time>
      </trkpt>
      <trkpt lat="43.28806" lon="3.37673">
        <ele>48.41705</ele>
        <time>2023-01-07T16:31:03.092Z</time>
      </trkpt>
      <trkpt lat="43.2881" lon="3.37688">
        <ele>48.49548</ele>
        <time>2023-01-07T16:31:06.096Z</time>
      </trkpt>
      <trkpt lat="43.28813" lon="3.37704">
        <ele>48.577248</ele>
        <time>2023-01-07T16:31:09.096Z</time>
      </trkpt>
      <trkpt lat="43.28817" lon="3.3772">
        <ele>48.659485</ele>
        <time>2023-01-07T16:31:12.093Z</time>
      </trkpt>
      <trkpt lat="43.2882" lon="3.37736">
        <ele>48.742377</ele>
        <time>2023-01-07T16:31:15.104Z</time>
      </trkpt>
      <trkpt lat="43.28824" lon="3.37752">
        <ele>48.823542</ele>
        <time>2023-01-07T16:31:18.101Z</time>
      </trkpt>
      <trkpt lat="43.28827" lon="3.37768">
        <ele>48.90297</ele>
        <time>2023-01-07T16:31:21.089Z</time>
      </trkpt>
      <trkpt lat="43.28833" lon="3.37783">
        <ele>48.984299</ele>
        <time>2023-01-07T16:31:24.092Z</time>
      </trkpt>
      <trkpt lat="43.28837" lon="3.37798">
        <ele>49.065563</ele>
        <time>2023-01-07T16:31:27.100Z</time>
      </trkpt>
      <trkpt lat="43.28843" lon="3.37814">
        <ele>49.150585</ele>
        <time>2023-01-07T16:31:30.094Z</time>
      </trkpt>
      <trkpt lat="43.28848" lon="3.3783">
        <ele>49.233553</ele>
        <time>2023-01-07T16:31:33.099Z</time>
      </trkpt>
      <trkpt lat="43.28854" lon="3.37845">
        <ele>49.31887</ele>
        <time>2023-01-07T16:31:36.088Z</time>
      </trkpt>
      <trkpt lat="43.28859" lon="3.3786">
        <ele>49.400357</ele>
        <time>2023-01-07T16:31:39.091Z</time>
      </trkpt>
      <trkpt lat="43.28865" lon="3.37876">
        <ele>49.426873</ele>
        <time>2023-01-07T16:31:42.093Z</time>
      </trkpt>
      <trkpt lat="43.28873" lon="3.37888">
        <ele>49.227831</ele>
        <time>2023-01-07T16:31:45.090Z</time>
      </trkpt>
      <trkpt lat="43.2888" lon="3.37896">
        <ele>49.07035</ele>
        <time>2023-01-07T16:31:48.096Z</time>
      </trkpt>
      <trkpt lat="43.28889" lon="3.37904">
        <ele>48.886312</ele>
        <time>2023-01-07T16:31:51.092Z</time>
      </trkpt>
      <trkpt lat="43.28899" lon="3.37913">
        <ele>48.682314</ele>
        <time>2023-01-07T16:31:54.096Z</time>
      </trkpt>
      <trkpt lat="43.28909" lon="3.3792">
        <ele>48.490805</ele>
        <time>2023-01-07T16:31:57.097Z</time>
      </trkpt>
      <trkpt lat="43.28921" lon="3.37923">
        <ele>48.288339</ele>
        <time>2023-01-07T16:32:00.101Z</time>
      </trkpt>
      <trkpt lat="43.28932" lon="3.37928">
        <ele>48.086401</ele>
        <time>2023-01-07T16:32:03.087Z</time>
      </trkpt>
      <trkpt lat="43.28943" lon="3.37936">
        <ele>47.880746</ele>
        <time>2023-01-07T16:32:06.099Z</time>
      </trkpt>
      <trkpt lat="43.28953" lon="3.37946">
        <ele>47.671486</ele>
        <time>2023-01-07T16:32:09.096Z</time>
      </trkpt>
      <trkpt lat="43.28961" lon="3.37957">
        <ele>47.479926</ele>
        <time>2023-01-07T16:32:12.093Z</time>
      </trkpt>
      <trkpt lat="43.28965" lon="3.37971">
        <ele>47.282849</ele>
        <time>2023-01-07T16:32:15.098Z</time>
      </trkpt>
      <trkpt lat="43.28968" lon="3.37984">
        <ele>47.117179</ele>
        <time>2023-01-07T16:32:18.098Z</time>
      </trkpt>
      <trkpt lat="43.28973" lon="3.37997">
        <ele>46.943309</ele>
        <time>2023-01-07T16:32:21.099Z</time>
      </trkpt>
      <trkpt lat="43.28978" lon="3.38012">
        <ele>46.730948</ele>
        <time>2023-01-07T16:32:24.096Z</time>
      </trkpt>
      <trkpt lat="43.28985" lon="3.38029">
        <ele>46.500176</ele>
        <time>2023-01-07T16:32:27.098Z</time>
      </trkpt>
      <trkpt lat="43.28992" lon="3.38044">
        <ele>46.435214</ele>
        <time>2023-01-07T16:32:30.105Z</time>
      </trkpt>
      <trkpt lat="43.28998" lon="3.38055">
        <ele>46.457337</ele>
        <time>2023-01-07T16:32:32.100Z</time>
      </trkpt>
      <trkpt lat="43.29004" lon="3.38064">
        <ele>46.47918</ele>
        <time>2023-01-07T16:32:34.092Z</time>
      </trkpt>
      <trkpt lat="43.29012" lon="3.38078">
        <ele>46.508591</ele>
        <time>2023-01-07T16:32:37.093Z</time>
      </trkpt>
      <trkpt lat="43.29016" lon="3.38094">
        <ele>46.538698</ele>
        <time>2023-01-07T16:32:40.090Z</time>
      </trkpt>
      <trkpt lat="43.29018" lon="3.38107">
        <ele>46.560782</ele>
        <time>2023-01-07T16:32:42.093Z</time>
      </trkpt>
      <trkpt lat="43.2902" lon="3.38124">
        <ele>46.590386</ele>
        <time>2023-01-07T16:32:45.100Z</time>
      </trkpt>
      <trkpt lat="43.29021" lon="3.38142">
        <ele>46.619922</ele>
        <time>2023-01-07T16:32:48.090Z</time>
      </trkpt>
      <trkpt lat="43.29026" lon="3.38156">
        <ele>46.64584</ele>
        <time>2023-01-07T16:32:51.089Z</time>
      </trkpt>
      <trkpt lat="43.29037" lon="3.38162">
        <ele>46.67363</ele>
        <time>2023-01-07T16:32:54.096Z</time>
      </trkpt>
      <trkpt lat="43.29049" lon="3.3816">
        <ele>46.702067</ele>
        <time>2023-01-07T16:32:57.111Z</time>
      </trkpt>
      <trkpt lat="43.2906" lon="3.38155">
        <ele>46.728147</ele>
        <time>2023-01-07T16:33:00.097Z</time>
      </trkpt>
      <trkpt lat="43.29069" lon="3.38151">
        <ele>46.751074</ele>
        <time>2023-01-07T16:33:03.093Z</time>
      </trkpt>
      <trkpt lat="43.2908" lon="3.3815">
        <ele>46.777172</ele>
        <time>2023-01-07T16:33:06.103Z</time>
      </trkpt>
      <trkpt lat="43.2909" lon="3.38154">
        <ele>46.801963</ele>
        <time>2023-01-07T16:33:09.087Z</time>
      </trkpt>
      <trkpt lat="43.29094" lon="3.38169">
        <ele>46.828559</ele>
        <time>2023-01-07T16:33:12.105Z</time>
      </trkpt>
      <trkpt lat="43.29096" lon="3.38187">
        <ele>46.776493</ele>
        <time>2023-01-07T16:33:15.106Z</time>
      </trkpt>
      <trkpt lat="43.29096" lon="3.38199">
        <ele>46.723205</ele>
        <time>2023-01-07T16:33:17.109Z</time>
      </trkpt>
      <trkpt lat="43.29097" lon="3.38212">
        <ele>46.66879</ele>
        <time>2023-01-07T16:33:19.101Z</time>
      </trkpt>
      <trkpt lat="43.29097" lon="3.38225">
        <ele>46.612713</ele>
        <time>2023-01-07T16:33:21.097Z</time>
      </trkpt>
      <trkpt lat="43.29097" lon="3.38238">
        <ele>46.559176</ele>
        <time>2023-01-07T16:33:23.091Z</time>
      </trkpt>
      <trkpt lat="43.29097" lon="3.38251">
        <ele>46.502659</ele>
        <time>2023-01-07T16:33:25.098Z</time>
      </trkpt>
      <trkpt lat="43.29097" lon="3.38264">
        <ele>46.447439</ele>
        <time>2023-01-07T16:33:27.100Z</time>
      </trkpt>
      <trkpt lat="43.29098" lon="3.38276">
        <ele>46.393609</ele>
        <time>2023-01-07T16:33:29.106Z</time>
      </trkpt>
      <trkpt lat="43.29099" lon="3.38289">
        <ele>46.338804</ele>
        <time>2023-01-07T16:33:31.090Z</time>
      </trkpt>
      <trkpt lat="43.29099" lon="3.38303">
        <ele>46.280513</ele>
        <time>2023-01-07T16:33:33.101Z</time>
      </trkpt>
      <trkpt lat="43.291" lon="3.38315">
        <ele>46.225566</ele>
        <time>2023-01-07T16:33:35.096Z</time>
      </trkpt>
      <trkpt lat="43.29101" lon="3.38328">
        <ele>46.171797</ele>
        <time>2023-01-07T16:33:37.093Z</time>
      </trkpt>
      <trkpt lat="43.29101" lon="3.38341">
        <ele>46.116851</ele>
        <time>2023-01-07T16:33:39.090Z</time>
      </trkpt>
      <trkpt lat="43.29102" lon="3.38354">
        <ele>46.061125</ele>
        <time>2023-01-07T16:33:41.095Z</time>
      </trkpt>
      <trkpt lat="43.29102" lon="3.38366">
        <ele>46.006748</ele>
        <time>2023-01-07T16:33:43.100Z</time>
      </trkpt>
      <trkpt lat="43.29103" lon="3.38379">
        <ele>45.952304</ele>
        <time>2023-01-07T16:33:45.094Z</time>
      </trkpt>
      <trkpt lat="43.29103" lon="3.38392">
        <ele>45.897683</ele>
        <time>2023-01-07T16:33:47.096Z</time>
      </trkpt>
      <trkpt lat="43.29104" lon="3.38404">
        <ele>45.844172</ele>
        <time>2023-01-07T16:33:49.089Z</time>
      </trkpt>
      <trkpt lat="43.29104" lon="3.38417">
        <ele>45.78938</ele>
        <time>2023-01-07T16:33:51.098Z</time>
      </trkpt>
      <trkpt lat="43.29104" lon="3.3843">
        <ele>45.791212</ele>
        <time>2023-01-07T16:33:53.101Z</time>
      </trkpt>
      <trkpt lat="43.29106" lon="3.38442">
        <ele>45.808611</ele>
        <time>2023-01-07T16:33:55.107Z</time>
      </trkpt>
      <trkpt lat="43.29107" lon="3.3846">
        <ele>45.833485</ele>
        <time>2023-01-07T16:33:58.099Z</time>
      </trkpt>
      <trkpt lat="43.29108" lon="3.38473">
        <ele>45.851372</ele>
        <time>2023-01-07T16:34:00.100Z</time>
      </trkpt>
      <trkpt lat="43.29108" lon="3.38486">
        <ele>45.869058</ele>
        <time>2023-01-07T16:34:02.098Z</time>
      </trkpt>
      <trkpt lat="43.29108" lon="3.38499">
        <ele>45.887714</ele>
        <time>2023-01-07T16:34:04.108Z</time>
      </trkpt>
      <trkpt lat="43.29108" lon="3.38512">
        <ele>45.905691</ele>
        <time>2023-01-07T16:34:06.098Z</time>
      </trkpt>
      <trkpt lat="43.29109" lon="3.38525">
        <ele>45.923539</ele>
        <time>2023-01-07T16:34:08.088Z</time>
      </trkpt>
      <trkpt lat="43.29109" lon="3.38538">
        <ele>45.941639</ele>
        <time>2023-01-07T16:34:10.106Z</time>
      </trkpt>
      <trkpt lat="43.29109" lon="3.38551">
        <ele>45.959328</ele>
        <time>2023-01-07T16:34:12.097Z</time>
      </trkpt>
      <trkpt lat="43.29109" lon="3.38569">
        <ele>45.98489</ele>
        <time>2023-01-07T16:34:15.106Z</time>
      </trkpt>
      <trkpt lat="43.29109" lon="3.38587">
        <ele>46.008796</ele>
        <time>2023-01-07T16:34:18.105Z</time>
      </trkpt>
      <trkpt lat="43.2911" lon="3.38605">
        <ele>46.033666</ele>
        <time>2023-01-07T16:34:21.092Z</time>
      </trkpt>
      <trkpt lat="43.29109" lon="3.38617">
        <ele>46.05094</ele>
        <time>2023-01-07T16:34:23.114Z</time>
      </trkpt>
      <trkpt lat="43.29109" lon="3.3863">
        <ele>46.068512</ele>
        <time>2023-01-07T16:34:25.090Z</time>
      </trkpt>
      <trkpt lat="43.29108" lon="3.38643">
        <ele>46.086785</ele>
        <time>2023-01-07T16:34:27.091Z</time>
      </trkpt>
      <trkpt lat="43.29108" lon="3.38656">
        <ele>46.105177</ele>
        <time>2023-01-07T16:34:29.092Z</time>
      </trkpt>
      <trkpt lat="43.29107" lon="3.38669">
        <ele>46.122966</ele>
        <time>2023-01-07T16:34:31.090Z</time>
      </trkpt>
      <trkpt lat="43.29106" lon="3.38682">
        <ele>46.141273</ele>
        <time>2023-01-07T16:34:33.089Z</time>
      </trkpt>
      <trkpt lat="43.29106" lon="3.38695">
        <ele>46.159965</ele>
        <time>2023-01-07T16:34:35.093Z</time>
      </trkpt>
      <trkpt lat="43.29105" lon="3.38707">
        <ele>46.178369</ele>
        <time>2023-01-07T16:34:37.093Z</time>
      </trkpt>
      <trkpt lat="43.29104" lon="3.38724">
        <ele>46.202827</ele>
        <time>2023-01-07T16:34:40.090Z</time>
      </trkpt>
      <trkpt lat="43.29103" lon="3.38742">
        <ele>46.229336</ele>
        <time>2023-01-07T16:34:43.106Z</time>
      </trkpt>
      <trkpt lat="43.29102" lon="3.38755">
        <ele>46.247687</ele>
        <time>2023-01-07T16:34:45.094Z</time>
      </trkpt>
      <trkpt lat="43.29101" lon="3.38768">
        <ele>46.265894</ele>
        <time>2023-01-07T16:34:47.103Z</time>
      </trkpt>
      <trkpt lat="43.291" lon="3.3878">
        <ele>46.283842</ele>
        <time>2023-01-07T16:34:49.113Z</time>
      </trkpt>
      <trkpt lat="43.291" lon="3.38793">
        <ele>46.30226</ele>
        <time>2023-01-07T16:34:51.112Z</time>
      </trkpt>
      <trkpt lat="43.29098" lon="3.38805">
        <ele>46.320865</ele>
        <time>2023-01-07T16:34:53.104Z</time>
      </trkpt>
      <trkpt lat="43.29096" lon="3.38823">
        <ele>46.346082</ele>
        <time>2023-01-07T16:34:56.100Z</time>
      </trkpt>
      <trkpt lat="43.29095" lon="3.38835">
        <ele>46.363979</ele>
        <time>2023-01-07T16:34:58.115Z</time>
      </trkpt>
      <trkpt lat="43.29095" lon="3.38853">
        <ele>46.390358</ele>
        <time>2023-01-07T16:35:01.100Z</time>
      </trkpt>
      <trkpt lat="43.29093" lon="3.38871">
        <ele>46.416391</ele>
        <time>2023-01-07T16:35:04.104Z</time>
      </trkpt>
      <trkpt lat="43.29092" lon="3.38889">
        <ele>46.442424</ele>
        <time>2023-01-07T16:35:07.099Z</time>
      </trkpt>
      <trkpt lat="43.29091" lon="3.38902">
        <ele>46.460775</ele>
        <time>2023-01-07T16:35:09.100Z</time>
      </trkpt>
      <trkpt lat="43.29089" lon="3.3892">
        <ele>46.475916</ele>
        <time>2023-01-07T16:35:12.102Z</time>
      </trkpt>
      <trkpt lat="43.29088" lon="3.38937">
        <ele>46.474951</ele>
        <time>2023-01-07T16:35:15.097Z</time>
      </trkpt>
      <trkpt lat="43.29085" lon="3.38954">
        <ele>46.474014</ele>
        <time>2023-01-07T16:35:18.102Z</time>
      </trkpt>
      <trkpt lat="43.29085" lon="3.38971">
        <ele>46.473048</ele>
        <time>2023-01-07T16:35:21.102Z</time>
      </trkpt>
      <trkpt lat="43.29086" lon="3.3899">
        <ele>46.472042</ele>
        <time>2023-01-07T16:35:24.105Z</time>
      </trkpt>
      <trkpt lat="43.29088" lon="3.39002">
        <ele>46.471353</ele>
        <time>2023-01-07T16:35:26.101Z</time>
      </trkpt>
      <trkpt lat="43.29093" lon="3.39014">
        <ele>46.470601</ele>
        <time>2023-01-07T16:35:28.099Z</time>
      </trkpt>
      <trkpt lat="43.29099" lon="3.39025">
        <ele>46.469843</ele>
        <time>2023-01-07T16:35:30.112Z</time>
      </trkpt>
      <trkpt lat="43.29106" lon="3.39034">
        <ele>46.469104</ele>
        <time>2023-01-07T16:35:32.117Z</time>
      </trkpt>
      <trkpt lat="43.29113" lon="3.39043">
        <ele>46.46837</ele>
        <time>2023-01-07T16:35:34.096Z</time>
      </trkpt>
      <trkpt lat="43.2912" lon="3.39051">
        <ele>46.467669</ele>
        <time>2023-01-07T16:35:36.090Z</time>
      </trkpt>
      <trkpt lat="43.2913" lon="3.39063">
        <ele>46.466705</ele>
        <time>2023-01-07T16:35:39.092Z</time>
      </trkpt>
      <trkpt lat="43.29139" lon="3.39074">
        <ele>46.465823</ele>
        <time>2023-01-07T16:35:42.092Z</time>
      </trkpt>
      <trkpt lat="43.29147" lon="3.39082">
        <ele>46.465024</ele>
        <time>2023-01-07T16:35:45.093Z</time>
      </trkpt>
      <trkpt lat="43.29154" lon="3.39091">
        <ele>46.464337</ele>
        <time>2023-01-07T16:35:48.102Z</time>
      </trkpt>
      <trkpt lat="43.29153" lon="3.39104">
        <ele>46.463572</ele>
        <time>2023-01-07T16:35:52.100Z</time>
      </trkpt>
      <trkpt lat="43.29145" lon="3.39112">
        <ele>46.462864</ele>
        <time>2023-01-07T16:35:55.092Z</time>
      </trkpt>
      <trkpt lat="43.29136" lon="3.39118">
        <ele>46.446897</ele>
        <time>2023-01-07T16:35:58.090Z</time>
      </trkpt>
      <trkpt lat="43.29128" lon="3.39124">
        <ele>46.428926</ele>
        <time>2023-01-07T16:36:01.093Z</time>
      </trkpt>
      <trkpt lat="43.29122" lon="3.39135">
        <ele>46.410296</ele>
        <time>2023-01-07T16:36:04.100Z</time>
      </trkpt>
      <trkpt lat="43.29118" lon="3.39149">
        <ele>46.390947</ele>
        <time>2023-01-07T16:36:07.093Z</time>
      </trkpt>
      <trkpt lat="43.29115" lon="3.39164">
        <ele>46.369093</ele>
        <time>2023-01-07T16:36:10.100Z</time>
      </trkpt>
      <trkpt lat="43.29112" lon="3.39181">
        <ele>46.345573</ele>
        <time>2023-01-07T16:36:13.106Z</time>
      </trkpt>
      <trkpt lat="43.29109" lon="3.39198">
        <ele>46.321647</ele>
        <time>2023-01-07T16:36:16.104Z</time>
      </trkpt>
      <trkpt lat="43.29106" lon="3.39216">
        <ele>46.296814</ele>
        <time>2023-01-07T16:36:19.093Z</time>
      </trkpt>
      <trkpt lat="43.29103" lon="3.39234">
        <ele>46.27198</ele>
        <time>2023-01-07T16:36:22.103Z</time>
      </trkpt>
      <trkpt lat="43.29099" lon="3.39252">
        <ele>46.247007</ele>
        <time>2023-01-07T16:36:25.110Z</time>
      </trkpt>
      <trkpt lat="43.29095" lon="3.39269">
        <ele>46.222272</ele>
        <time>2023-01-07T16:36:28.103Z</time>
      </trkpt>
      <trkpt lat="43.29091" lon="3.39285">
        <ele>46.198974</ele>
        <time>2023-01-07T16:36:31.095Z</time>
      </trkpt>
      <trkpt lat="43.29086" lon="3.393">
        <ele>46.177322</ele>
        <time>2023-01-07T16:36:34.102Z</time>
      </trkpt>
      <trkpt lat="43.29081" lon="3.39315">
        <ele>46.153966</ele>
        <time>2023-01-07T16:36:37.111Z</time>
      </trkpt>
      <trkpt lat="43.29075" lon="3.39331">
        <ele>46.129999</ele>
        <time>2023-01-07T16:36:40.111Z</time>
      </trkpt>
      <trkpt lat="43.29069" lon="3.39345">
        <ele>46.187887</ele>
        <time>2023-01-07T16:36:43.092Z</time>
      </trkpt>
      <trkpt lat="43.29063" lon="3.39361">
        <ele>46.258146</ele>
        <time>2023-01-07T16:36:46.099Z</time>
      </trkpt>
      <trkpt lat="43.29055" lon="3.39375">
        <ele>46.331015</ele>
        <time>2023-01-07T16:36:49.108Z</time>
      </trkpt>
      <trkpt lat="43.29046" lon="3.39389">
        <ele>46.403469</ele>
        <time>2023-01-07T16:36:52.102Z</time>
      </trkpt>
      <trkpt lat="43.29037" lon="3.39402">
        <ele>46.477159</ele>
        <time>2023-01-07T16:36:55.108Z</time>
      </trkpt>
      <trkpt lat="43.29032" lon="3.39413">
        <ele>46.528127</ele>
        <time>2023-01-07T16:36:57.095Z</time>
      </trkpt>
      <trkpt lat="43.29026" lon="3.39428">
        <ele>46.594576</ele>
        <time>2023-01-07T16:37:00.118Z</time>
      </trkpt>
      <trkpt lat="43.29024" lon="3.39443">
        <ele>46.655073</ele>
        <time>2023-01-07T16:37:03.110Z</time>
      </trkpt>
      <trkpt lat="43.29026" lon="3.39459">
        <ele>46.720228</ele>
        <time>2023-01-07T16:37:06.102Z</time>
      </trkpt>
      <trkpt lat="43.29031" lon="3.39474">
        <ele>46.789411</ele>
        <time>2023-01-07T16:37:09.106Z</time>
      </trkpt>
      <trkpt lat="43.29038" lon="3.39489">
        <ele>46.858422</ele>
        <time>2023-01-07T16:37:12.102Z</time>
      </trkpt>
      <trkpt lat="43.29043" lon="3.39502">
        <ele>46.919489</ele>
        <time>2023-01-07T16:37:15.105Z</time>
      </trkpt>
      <trkpt lat="43.29048" lon="3.39516">
        <ele>46.982304</ele>
        <time>2023-01-07T16:37:18.097Z</time>
      </trkpt>
      <trkpt lat="43.29054" lon="3.3953">
        <ele>47.046985</ele>
        <time>2023-01-07T16:37:21.104Z</time>
      </trkpt>
      <trkpt lat="43.29058" lon="3.39545">
        <ele>47.108426</ele>
        <time>2023-01-07T16:37:24.101Z</time>
      </trkpt>
      <trkpt lat="43.29063" lon="3.39558">
        <ele>47.098845</ele>
        <time>2023-01-07T16:37:27.095Z</time>
      </trkpt>
      <trkpt lat="43.29069" lon="3.3957">
        <ele>47.077727</ele>
        <time>2023-01-07T16:37:30.099Z</time>
      </trkpt>
      <trkpt lat="43.29071" lon="3.39582">
        <ele>47.059229</ele>
        <time>2023-01-07T16:37:33.106Z</time>
      </trkpt>
      <trkpt lat="43.29073" lon="3.39595">
        <ele>47.040351</ele>
        <time>2023-01-07T16:37:36.100Z</time>
      </trkpt>
      <trkpt lat="43.29075" lon="3.3961">
        <ele>47.01677</ele>
        <time>2023-01-07T16:37:39.116Z</time>
      </trkpt>
      <trkpt lat="43.29076" lon="3.39627">
        <ele>46.992472</ele>
        <time>2023-01-07T16:37:42.101Z</time>
      </trkpt>
      <trkpt lat="43.29078" lon="3.39643">
        <ele>46.968191</ele>
        <time>2023-01-07T16:37:45.103Z</time>
      </trkpt>
      <trkpt lat="43.29078" lon="3.3966">
        <ele>46.942617</ele>
        <time>2023-01-07T16:37:48.108Z</time>
      </trkpt>
      <trkpt lat="43.29076" lon="3.39674">
        <ele>46.920324</ele>
        <time>2023-01-07T16:37:51.101Z</time>
      </trkpt>
      <trkpt lat="43.29075" lon="3.39688">
        <ele>46.899505</ele>
        <time>2023-01-07T16:37:54.103Z</time>
      </trkpt>
      <trkpt lat="43.29075" lon="3.39703">
        <ele>46.877506</ele>
        <time>2023-01-07T16:37:57.110Z</time>
      </trkpt>
      <trkpt lat="43.29078" lon="3.39717">
        <ele>46.856224</ele>
        <time>2023-01-07T16:38:00.099Z</time>
      </trkpt>
      <trkpt lat="43.29084" lon="3.39732">
        <ele>46.831142</ele>
        <time>2023-01-07T16:38:03.097Z</time>
      </trkpt>
      <trkpt lat="43.29088" lon="3.39748">
        <ele>46.804805</ele>
        <time>2023-01-07T16:38:06.103Z</time>
      </trkpt>
      <trkpt lat="43.29086" lon="3.39766">
        <ele>46.778359</ele>
        <time>2023-01-07T16:38:09.108Z</time>
      </trkpt>
      <trkpt lat="43.29083" lon="3.39781">
        <ele>46.754379</ele>
        <time>2023-01-07T16:38:12.101Z</time>
      </trkpt>
      <trkpt lat="43.29078" lon="3.39796">
        <ele>46.836005</ele>
        <time>2023-01-07T16:38:15.115Z</time>
      </trkpt>
      <trkpt lat="43.29074" lon="3.39812">
        <ele>46.947513</ele>
        <time>2023-01-07T16:38:18.105Z</time>
      </trkpt>
      <trkpt lat="43.29069" lon="3.39829">
        <ele>47.060208</ele>
        <time>2023-01-07T16:38:21.101Z</time>
      </trkpt>
      <trkpt lat="43.29069" lon="3.39844">
        <ele>47.160557</ele>
        <time>2023-01-07T16:38:24.093Z</time>
      </trkpt>
      <trkpt lat="43.29076" lon="3.39857">
        <ele>47.263942</ele>
        <time>2023-01-07T16:38:27.110Z</time>
      </trkpt>
      <trkpt lat="43.29087" lon="3.39866">
        <ele>47.376233</ele>
        <time>2023-01-07T16:38:30.096Z</time>
      </trkpt>
      <trkpt lat="43.29099" lon="3.39874">
        <ele>47.492644</ele>
        <time>2023-01-07T16:38:33.109Z</time>
      </trkpt>
      <trkpt lat="43.29108" lon="3.39877">
        <ele>47.575406</ele>
        <time>2023-01-07T16:38:35.107Z</time>
      </trkpt>
      <trkpt lat="43.29117" lon="3.39883">
        <ele>47.660054</ele>
        <time>2023-01-07T16:38:37.097Z</time>
      </trkpt>
      <trkpt lat="43.29125" lon="3.39888">
        <ele>47.741802</ele>
        <time>2023-01-07T16:38:39.112Z</time>
      </trkpt>
      <trkpt lat="43.29137" lon="3.39896">
        <ele>47.861212</ele>
        <time>2023-01-07T16:38:42.109Z</time>
      </trkpt>
      <trkpt lat="43.29147" lon="3.39902">
        <ele>47.954394</ele>
        <time>2023-01-07T16:38:44.098Z</time>
      </trkpt>
      <trkpt lat="43.29157" lon="3.39907">
        <ele>48.050346</ele>
        <time>2023-01-07T16:38:46.110Z</time>
      </trkpt>
      <trkpt lat="43.29167" lon="3.39913">
        <ele>48.140437</ele>
        <time>2023-01-07T16:38:48.105Z</time>
      </trkpt>
      <trkpt lat="43.29176" lon="3.39918">
        <ele>48.229637</ele>
        <time>2023-01-07T16:38:50.104Z</time>
      </trkpt>
      <trkpt lat="43.29186" lon="3.39923">
        <ele>48.321602</ele>
        <time>2023-01-07T16:38:52.090Z</time>
      </trkpt>
      <trkpt lat="43.29196" lon="3.39929">
        <ele>48.289777</ele>
        <time>2023-01-07T16:38:54.104Z</time>
      </trkpt>
      <trkpt lat="43.29205" lon="3.39934">
        <ele>48.239935</ele>
        <time>2023-01-07T16:38:56.093Z</time>
      </trkpt>
      <trkpt lat="43.29214" lon="3.3994">
        <ele>48.188402</ele>
        <time>2023-01-07T16:38:58.106Z</time>
      </trkpt>
      <trkpt lat="43.29224" lon="3.39946">
        <ele>48.137496</ele>
        <time>2023-01-07T16:39:00.118Z</time>
      </trkpt>
      <trkpt lat="43.29232" lon="3.39953">
        <ele>48.088957</ele>
        <time>2023-01-07T16:39:02.107Z</time>
      </trkpt>
      <trkpt lat="43.2924" lon="3.39961">
        <ele>48.039818</ele>
        <time>2023-01-07T16:39:04.089Z</time>
      </trkpt>
      <trkpt lat="43.29246" lon="3.3997">
        <ele>47.99374</ele>
        <time>2023-01-07T16:39:06.104Z</time>
      </trkpt>
      <trkpt lat="43.29253" lon="3.3998">
        <ele>47.946515</ele>
        <time>2023-01-07T16:39:08.105Z</time>
      </trkpt>
      <trkpt lat="43.29259" lon="3.39995">
        <ele>47.883437</ele>
        <time>2023-01-07T16:39:11.091Z</time>
      </trkpt>
      <trkpt lat="43.29263" lon="3.40012">
        <ele>47.819825</ele>
        <time>2023-01-07T16:39:14.103Z</time>
      </trkpt>
      <trkpt lat="43.29266" lon="3.40029">
        <ele>47.753759</ele>
        <time>2023-01-07T16:39:17.106Z</time>
      </trkpt>
      <trkpt lat="43.29266" lon="3.40042">
        <ele>47.706659</ele>
        <time>2023-01-07T16:39:19.103Z</time>
      </trkpt>
      <trkpt lat="43.29268" lon="3.40061">
        <ele>47.639501</ele>
        <time>2023-01-07T16:39:22.096Z</time>
      </trkpt>
      <trkpt lat="43.29267" lon="3.40074">
        <ele>47.592092</ele>
        <time>2023-01-07T16:39:24.112Z</time>
      </trkpt>
      <trkpt lat="43.29267" lon="3.40087">
        <ele>47.54616</ele>
        <time>2023-01-07T16:39:26.103Z</time>
      </trkpt>
      <trkpt lat="43.29268" lon="3.401">
        <ele>47.499152</ele>
        <time>2023-01-07T16:39:28.109Z</time>
      </trkpt>
      <trkpt lat="43.29268" lon="3.40113">
        <ele>47.452845</ele>
        <time>2023-01-07T16:39:30.108Z</time>
      </trkpt>
      <trkpt lat="43.29267" lon="3.40126">
        <ele>47.464546</ele>
        <time>2023-01-07T16:39:32.092Z</time>
      </trkpt>
      <trkpt lat="43.29267" lon="3.40145">
        <ele>47.508642</ele>
        <time>2023-01-07T16:39:35.109Z</time>
      </trkpt>
      <trkpt lat="43.29266" lon="3.40159">
        <ele>47.539798</ele>
        <time>2023-01-07T16:39:37.092Z</time>
      </trkpt>
      <trkpt lat="43.29265" lon="3.40172">
        <ele>47.569038</ele>
        <time>2023-01-07T16:39:39.099Z</time>
      </trkpt>
      <trkpt lat="43.29264" lon="3.40185">
        <ele>47.598362</ele>
        <time>2023-01-07T16:39:41.105Z</time>
      </trkpt>
      <trkpt lat="43.29262" lon="3.40199">
        <ele>47.63165</ele>
        <time>2023-01-07T16:39:43.100Z</time>
      </trkpt>
      <trkpt lat="43.29262" lon="3.40213">
        <ele>47.662068</ele>
        <time>2023-01-07T16:39:45.119Z</time>
      </trkpt>
      <trkpt lat="43.2926" lon="3.40226">
        <ele>47.692586</ele>
        <time>2023-01-07T16:39:47.105Z</time>
      </trkpt>
      <trkpt lat="43.29259" lon="3.40239">
        <ele>47.722887</ele>
        <time>2023-01-07T16:39:49.096Z</time>
      </trkpt>
      <trkpt lat="43.29257" lon="3.40253">
        <ele>47.75425</ele>
        <time>2023-01-07T16:39:51.094Z</time>
      </trkpt>
      <trkpt lat="43.29255" lon="3.40267">
        <ele>47.78548</ele>
        <time>2023-01-07T16:39:53.112Z</time>
      </trkpt>
      <trkpt lat="43.29254" lon="3.40281">
        <ele>47.817786</ele>
        <time>2023-01-07T16:39:55.108Z</time>
      </trkpt>
      <trkpt lat="43.29252" lon="3.40295">
        <ele>47.850892</ele>
        <time>2023-01-07T16:39:57.097Z</time>
      </trkpt>
      <trkpt lat="43.29252" lon="3.40309">
        <ele>47.881648</ele>
        <time>2023-01-07T16:39:59.103Z</time>
      </trkpt>
      <trkpt lat="43.29251" lon="3.40323">
        <ele>47.913783</ele>
        <time>2023-01-07T16:40:01.092Z</time>
      </trkpt>
      <trkpt lat="43.29252" lon="3.40337">
        <ele>47.944377</ele>
        <time>2023-01-07T16:40:03.100Z</time>
      </trkpt>
      <trkpt lat="43.29253" lon="3.40351">
        <ele>47.976596</ele>
        <time>2023-01-07T16:40:05.096Z</time>
      </trkpt>
      <trkpt lat="43.29254" lon="3.40365">
        <ele>47.997176</ele>
        <time>2023-01-07T16:40:07.096Z</time>
      </trkpt>
      <trkpt lat="43.29255" lon="3.40378">
        <ele>47.986142</ele>
        <time>2023-01-07T16:40:09.094Z</time>
      </trkpt>
      <trkpt lat="43.29256" lon="3.40392">
        <ele>47.974766</ele>
        <time>2023-01-07T16:40:11.101Z</time>
      </trkpt>
      <trkpt lat="43.29256" lon="3.40406">
        <ele>47.963487</ele>
        <time>2023-01-07T16:40:13.103Z</time>
      </trkpt>
      <trkpt lat="43.29254" lon="3.4042">
        <ele>47.952625</ele>
        <time>2023-01-07T16:40:15.109Z</time>
      </trkpt>
      <trkpt lat="43.29251" lon="3.40437">
        <ele>47.938348</ele>
        <time>2023-01-07T16:40:18.103Z</time>
      </trkpt>
      <trkpt lat="43.29249" lon="3.40451">
        <ele>47.927172</ele>
        <time>2023-01-07T16:40:21.100Z</time>
      </trkpt>
      <trkpt lat="43.29248" lon="3.40465">
        <ele>47.915804</ele>
        <time>2023-01-07T16:40:24.107Z</time>
      </trkpt>
      <trkpt lat="43.29249" lon="3.4048">
        <ele>47.9031</ele>
        <time>2023-01-07T16:40:27.110Z</time>
      </trkpt>
      <trkpt lat="43.29254" lon="3.40496">
        <ele>47.889186</ele>
        <time>2023-01-07T16:40:30.108Z</time>
      </trkpt>
      <trkpt lat="43.29266" lon="3.40506">
        <ele>47.874262</ele>
        <time>2023-01-07T16:40:33.096Z</time>
      </trkpt>
      <trkpt lat="43.29276" lon="3.405">
        <ele>47.862352</ele>
        <time>2023-01-07T16:40:34.091Z</time>
      </trkpt>
      <trkpt lat="43.29285" lon="3.405">
        <ele>47.851835</ele>
        <time>2023-01-07T16:40:36.095Z</time>
      </trkpt>
      <trkpt lat="43.29294" lon="3.40498">
        <ele>47.841758</ele>
        <time>2023-01-07T16:40:38.100Z</time>
      </trkpt>
      <trkpt lat="43.29303" lon="3.40496">
        <ele>47.831331</ele>
        <time>2023-01-07T16:40:40.098Z</time>
      </trkpt>
      <trkpt lat="43.29314" lon="3.40492">
        <ele>47.819608</ele>
        <time>2023-01-07T16:40:43.096Z</time>
      </trkpt>
      <trkpt lat="43.29326" lon="3.40503">
        <ele>47.803635</ele>
        <time>2023-01-07T16:41:22.098Z</time>
      </trkpt>
      <trkpt lat="43.29334" lon="3.40514">
        <ele>47.780639</ele>
        <time>2023-01-07T16:41:28.097Z</time>
      </trkpt>
      <trkpt lat="43.29335" lon="3.40527">
        <ele>47.759943</ele>
        <time>2023-01-07T16:41:31.108Z</time>
      </trkpt>
      <trkpt lat="43.29337" lon="3.4054">
        <ele>47.737426</ele>
        <time>2023-01-07T16:41:34.110Z</time>
      </trkpt>
      <trkpt lat="43.29339" lon="3.40556">
        <ele>47.711032</ele>
        <time>2023-01-07T16:41:37.105Z</time>
      </trkpt>
      <trkpt lat="43.2934" lon="3.40573">
        <ele>47.683073</ele>
        <time>2023-01-07T16:41:40.102Z</time>
      </trkpt>
      <trkpt lat="43.29342" lon="3.4059">
        <ele>47.655747</ele>
        <time>2023-01-07T16:41:43.105Z</time>
      </trkpt>
      <trkpt lat="43.29344" lon="3.40604">
        <ele>47.632636</ele>
        <time>2023-01-07T16:41:46.097Z</time>
      </trkpt>
      <trkpt lat="43.29347" lon="3.40616">
        <ele>47.611027</ele>
        <time>2023-01-07T16:41:49.102Z</time>
      </trkpt>
      <trkpt lat="43.29348" lon="3.40629">
        <ele>47.590681</ele>
        <time>2023-01-07T16:41:52.104Z</time>
      </trkpt>
      <trkpt lat="43.29345" lon="3.40641">
        <ele>47.569681</ele>
        <time>2023-01-07T16:41:55.110Z</time>
      </trkpt>
      <trkpt lat="43.29341" lon="3.40653">
        <ele>47.547689</ele>
        <time>2023-01-07T16:41:58.097Z</time>
      </trkpt>
      <trkpt lat="43.29339" lon="3.40668">
        <ele>47.523461</ele>
        <time>2023-01-07T16:42:01.095Z</time>
      </trkpt>
      <trkpt lat="43.29342" lon="3.40683">
        <ele>47.497708</ele>
        <time>2023-01-07T16:42:04.106Z</time>
      </trkpt>
      <trkpt lat="43.29345" lon="3.40697">
        <ele>47.474088</ele>
        <time>2023-01-07T16:42:08.098Z</time>
      </trkpt>
      <trkpt lat="43.29349" lon="3.40711">
        <ele>47.449409</ele>
        <time>2023-01-07T16:42:22.100Z</time>
      </trkpt>
      <trkpt lat="43.29358" lon="3.40723">
        <ele>47.421647</ele>
        <time>2023-01-07T16:42:26.100Z</time>
      </trkpt>
      <trkpt lat="43.29368" lon="3.40731">
        <ele>47.399867</ele>
        <time>2023-01-07T16:42:29.099Z</time>
      </trkpt>
      <trkpt lat="43.29379" lon="3.40738">
        <ele>47.422522</ele>
        <time>2023-01-07T16:42:32.099Z</time>
      </trkpt>
      <trkpt lat="43.29391" lon="3.40746">
        <ele>47.44562</ele>
        <time>2023-01-07T16:42:35.109Z</time>
      </trkpt>
      <trkpt lat="43.294" lon="3.40749">
        <ele>47.462655</ele>
        <time>2023-01-07T16:42:37.107Z</time>
      </trkpt>
      <trkpt lat="43.2941" lon="3.40758">
        <ele>47.484961</ele>
        <time>2023-01-07T16:42:40.098Z</time>
      </trkpt>
      <trkpt lat="43.2942" lon="3.40765">
        <ele>47.504728</ele>
        <time>2023-01-07T16:42:43.103Z</time>
      </trkpt>
      <trkpt lat="43.29427" lon="3.40773">
        <ele>47.521773</ele>
        <time>2023-01-07T16:42:46.100Z</time>
      </trkpt>
      <trkpt lat="43.29427" lon="3.40788">
        <ele>47.541011</ele>
        <time>2023-01-07T16:42:49.109Z</time>
      </trkpt>
      <trkpt lat="43.29423" lon="3.40805">
        <ele>47.564493</ele>
        <time>2023-01-07T16:42:52.095Z</time>
      </trkpt>
      <trkpt lat="43.29418" lon="3.40822">
        <ele>47.588641</ele>
        <time>2023-01-07T16:42:55.099Z</time>
      </trkpt>
      <trkpt lat="43.29412" lon="3.40838">
        <ele>47.612115</ele>
        <time>2023-01-07T16:42:58.108Z</time>
      </trkpt>
      <trkpt lat="43.29407" lon="3.40852">
        <ele>47.633423</ele>
        <time>2023-01-07T16:43:01.105Z</time>
      </trkpt>
      <trkpt lat="43.29403" lon="3.40866">
        <ele>47.653482</ele>
        <time>2023-01-07T16:43:04.106Z</time>
      </trkpt>
      <trkpt lat="43.29399" lon="3.40881">
        <ele>47.673665</ele>
        <time>2023-01-07T16:43:07.118Z</time>
      </trkpt>
      <trkpt lat="43.29393" lon="3.40896">
        <ele>47.696301</ele>
        <time>2023-01-07T16:43:10.097Z</time>
      </trkpt>
      <trkpt lat="43.29389" lon="3.40907">
        <ele>47.712465</ele>
        <time>2023-01-07T16:43:12.107Z</time>
      </trkpt>
      <trkpt lat="43.29384" lon="3.40924">
        <ele>47.701001</ele>
        <time>2023-01-07T16:43:15.103Z</time>
      </trkpt>
      <trkpt lat="43.29381" lon="3.40936">
        <ele>47.672717</ele>
        <time>2023-01-07T16:43:17.098Z</time>
      </trkpt>
      <trkpt lat="43.29377" lon="3.40948">
        <ele>47.644504</ele>
        <time>2023-01-07T16:43:19.111Z</time>
      </trkpt>
      <trkpt lat="43.29373" lon="3.40959">
        <ele>47.616124</ele>
        <time>2023-01-07T16:43:21.095Z</time>
      </trkpt>
      <trkpt lat="43.29369" lon="3.40971">
        <ele>47.587138</ele>
        <time>2023-01-07T16:43:23.118Z</time>
      </trkpt>
      <trkpt lat="43.29365" lon="3.40983">
        <ele>47.559008</ele>
        <time>2023-01-07T16:43:25.114Z</time>
      </trkpt>
      <trkpt lat="43.29361" lon="3.40994">
        <ele>47.529897</ele>
        <time>2023-01-07T16:43:27.101Z</time>
      </trkpt>
      <trkpt lat="43.29358" lon="3.41007">
        <ele>47.500771</ele>
        <time>2023-01-07T16:43:29.118Z</time>
      </trkpt>
      <trkpt lat="43.29355" lon="3.41019">
        <ele>47.471749</ele>
        <time>2023-01-07T16:43:31.109Z</time>
      </trkpt>
      <trkpt lat="43.29351" lon="3.41032">
        <ele>47.442002</ele>
        <time>2023-01-07T16:43:33.094Z</time>
      </trkpt>
      <trkpt lat="43.29348" lon="3.41044">
        <ele>47.412048</ele>
        <time>2023-01-07T16:43:35.096Z</time>
      </trkpt>
      <trkpt lat="43.29344" lon="3.41057">
        <ele>47.382723</ele>
        <time>2023-01-07T16:43:37.108Z</time>
      </trkpt>
      <trkpt lat="43.29341" lon="3.41069">
        <ele>47.352636</ele>
        <time>2023-01-07T16:43:39.107Z</time>
      </trkpt>
      <trkpt lat="43.29337" lon="3.41081">
        <ele>47.323205</ele>
        <time>2023-01-07T16:43:41.107Z</time>
      </trkpt>
      <trkpt lat="43.29333" lon="3.41093">
        <ele>47.294896</ele>
        <time>2023-01-07T16:43:43.092Z</time>
      </trkpt>
      <trkpt lat="43.29327" lon="3.41108">
        <ele>47.255955</ele>
        <time>2023-01-07T16:43:46.103Z</time>
      </trkpt>
      <trkpt lat="43.29321" lon="3.41123">
        <ele>47.218475</ele>
        <time>2023-01-07T16:43:49.101Z</time>
      </trkpt>
      <trkpt lat="43.29315" lon="3.41138">
        <ele>47.180394</ele>
        <time>2023-01-07T16:43:52.096Z</time>
      </trkpt>
      <trkpt lat="43.29311" lon="3.41153">
        <ele>47.247621</ele>
        <time>2023-01-07T16:43:55.094Z</time>
      </trkpt>
      <trkpt lat="43.29315" lon="3.41167">
        <ele>47.330774</ele>
        <time>2023-01-07T16:43:58.094Z</time>
      </trkpt>
      <trkpt lat="43.29325" lon="3.41176">
        <ele>47.424391</ele>
        <time>2023-01-07T16:44:01.101Z</time>
      </trkpt>
      <trkpt lat="43.29338" lon="3.41174">
        <ele>47.527541</ele>
        <time>2023-01-07T16:44:03.094Z</time>
      </trkpt>
      <trkpt lat="43.29351" lon="3.41178">
        <ele>47.626499</ele>
        <time>2023-01-07T16:44:06.091Z</time>
      </trkpt>
      <trkpt lat="43.29363" lon="3.41181">
        <ele>47.723219</ele>
        <time>2023-01-07T16:44:09.102Z</time>
      </trkpt>
      <trkpt lat="43.29376" lon="3.41184">
        <ele>47.82109</ele>
        <time>2023-01-07T16:44:12.091Z</time>
      </trkpt>
      <trkpt lat="43.29389" lon="3.41185">
        <ele>47.91597</ele>
        <time>2023-01-07T16:44:15.091Z</time>
      </trkpt>
      <trkpt lat="43.29402" lon="3.41187">
        <ele>48.018077</ele>
        <time>2023-01-07T16:44:18.089Z</time>
      </trkpt>
      <trkpt lat="43.29414" lon="3.41194">
        <ele>48.118584</ele>
        <time>2023-01-07T16:44:21.101Z</time>
      </trkpt>
      <trkpt lat="43.29418" lon="3.41214">
        <ele>48.232683</ele>
        <time>2023-01-07T16:44:24.101Z</time>
      </trkpt>
      <trkpt lat="43.29418" lon="3.41227">
        <ele>48.302589</ele>
        <time>2023-01-07T16:44:26.102Z</time>
      </trkpt>
      <trkpt lat="43.29418" lon="3.4124">
        <ele>48.375883</ele>
        <time>2023-01-07T16:44:28.093Z</time>
      </trkpt>
      <trkpt lat="43.29417" lon="3.41257">
        <ele>48.471189</ele>
        <time>2023-01-07T16:44:31.105Z</time>
      </trkpt>
      <trkpt lat="43.29414" lon="3.41275">
        <ele>48.540988</ele>
        <time>2023-01-07T16:44:34.095Z</time>
      </trkpt>
      <trkpt lat="43.29412" lon="3.41293">
        <ele>48.521656</ele>
        <time>2023-01-07T16:44:37.101Z</time>
      </trkpt>
      <trkpt lat="43.29412" lon="3.41311">
        <ele>48.503599</ele>
        <time>2023-01-07T16:44:40.097Z</time>
      </trkpt>
      <trkpt lat="43.29412" lon="3.41324">
        <ele>48.490748</ele>
        <time>2023-01-07T16:44:42.094Z</time>
      </trkpt>
      <trkpt lat="43.29411" lon="3.41336">
        <ele>48.477855</ele>
        <time>2023-01-07T16:44:44.100Z</time>
      </trkpt>
      <trkpt lat="43.2941" lon="3.41349">
        <ele>48.464872</ele>
        <time>2023-01-07T16:44:46.097Z</time>
      </trkpt>
      <trkpt lat="43.2941" lon="3.41362">
        <ele>48.451812</ele>
        <time>2023-01-07T16:44:48.103Z</time>
      </trkpt>
      <trkpt lat="43.2941" lon="3.41375">
        <ele>48.438558</ele>
        <time>2023-01-07T16:44:50.108Z</time>
      </trkpt>
      <trkpt lat="43.29408" lon="3.41387">
        <ele>48.425569</ele>
        <time>2023-01-07T16:44:52.102Z</time>
      </trkpt>
      <trkpt lat="43.29406" lon="3.414">
        <ele>48.411961</ele>
        <time>2023-01-07T16:44:54.104Z</time>
      </trkpt>
      <trkpt lat="43.29403" lon="3.41413">
        <ele>48.398376</ele>
        <time>2023-01-07T16:44:56.097Z</time>
      </trkpt>
      <trkpt lat="43.29399" lon="3.41426">
        <ele>48.384582</ele>
        <time>2023-01-07T16:44:58.095Z</time>
      </trkpt>
      <trkpt lat="43.29396" lon="3.41438">
        <ele>48.371498</ele>
        <time>2023-01-07T16:45:00.105Z</time>
      </trkpt>
      <trkpt lat="43.29393" lon="3.4145">
        <ele>48.357844</ele>
        <time>2023-01-07T16:45:02.106Z</time>
      </trkpt>
      <trkpt lat="43.29389" lon="3.41463">
        <ele>48.34398</ele>
        <time>2023-01-07T16:45:04.101Z</time>
      </trkpt>
      <trkpt lat="43.29386" lon="3.41475">
        <ele>48.331037</ele>
        <time>2023-01-07T16:45:06.105Z</time>
      </trkpt>
      <trkpt lat="43.29383" lon="3.41488">
        <ele>48.317049</ele>
        <time>2023-01-07T16:45:08.098Z</time>
      </trkpt>
      <trkpt lat="43.2938" lon="3.415">
        <ele>48.30366</ele>
        <time>2023-01-07T16:45:10.098Z</time>
      </trkpt>
      <trkpt lat="43.29377" lon="3.41518">
        <ele>48.283539</ele>
        <time>2023-01-07T16:45:13.101Z</time>
      </trkpt>
      <trkpt lat="43.29377" lon="3.41536">
        <ele>48.26199</ele>
        <time>2023-01-07T16:45:16.108Z</time>
      </trkpt>
      <trkpt lat="43.29379" lon="3.41548">
        <ele>48.246811</ele>
        <time>2023-01-07T16:45:18.095Z</time>
      </trkpt>
      <trkpt lat="43.29385" lon="3.41564">
        <ele>48.224961</ele>
        <time>2023-01-07T16:45:21.109Z</time>
      </trkpt>
      <trkpt lat="43.29391" lon="3.41575">
        <ele>48.208913</ele>
        <time>2023-01-07T16:45:23.093Z</time>
      </trkpt>
      <trkpt lat="43.29397" lon="3.41585">
        <ele>48.192706</ele>
        <time>2023-01-07T16:45:25.107Z</time>
      </trkpt>
      <trkpt lat="43.29404" lon="3.41595">
        <ele>48.175827</ele>
        <time>2023-01-07T16:45:27.104Z</time>
      </trkpt>
      <trkpt lat="43.2941" lon="3.41605">
        <ele>48.160128</ele>
        <time>2023-01-07T16:45:29.103Z</time>
      </trkpt>
      <trkpt lat="43.29417" lon="3.41614">
        <ele>48.144677</ele>
        <time>2023-01-07T16:45:31.098Z</time>
      </trkpt>
      <trkpt lat="43.29426" lon="3.41627">
        <ele>48.122834</ele>
        <time>2023-01-07T16:45:34.095Z</time>
      </trkpt>
      <trkpt lat="43.29432" lon="3.41642">
        <ele>48.102753</ele>
        <time>2023-01-07T16:45:37.092Z</time>
      </trkpt>
      <trkpt lat="43.29435" lon="3.41657">
        <ele>48.084135</ele>
        <time>2023-01-07T16:45:40.104Z</time>
      </trkpt>
      <trkpt lat="43.29436" lon="3.41672">
        <ele>48.065769</ele>
        <time>2023-01-07T16:45:43.103Z</time>
      </trkpt>
      <trkpt lat="43.29436" lon="3.41686">
        <ele>48.048701</ele>
        <time>2023-01-07T16:45:46.110Z</time>
      </trkpt>
      <trkpt lat="43.29435" lon="3.41699">
        <ele>48.032053</ele>
        <time>2023-01-07T16:45:49.108Z</time>
      </trkpt>
      <trkpt lat="43.29431" lon="3.41713">
        <ele>48.014412</ele>
        <time>2023-01-07T16:45:52.115Z</time>
      </trkpt>
      <trkpt lat="43.29424" lon="3.41725">
        <ele>47.995523</ele>
        <time>2023-01-07T16:45:55.095Z</time>
      </trkpt>
      <trkpt lat="43.2942" lon="3.41739">
        <ele>47.974032</ele>
        <time>2023-01-07T16:45:58.093Z</time>
      </trkpt>
      <trkpt lat="43.29423" lon="3.41753">
        <ele>47.952822</ele>
        <time>2023-01-07T16:46:01.092Z</time>
      </trkpt>
      <trkpt lat="43.29432" lon="3.4176">
        <ele>47.932631</ele>
        <time>2023-01-07T16:46:05.105Z</time>
      </trkpt>
      <trkpt lat="43.29438" lon="3.41748">
        <ele>47.910528</ele>
        <time>2023-01-07T16:46:09.107Z</time>
      </trkpt>
      <trkpt lat="43.29447" lon="3.41744">
        <ele>47.892704</ele>
        <time>2023-01-07T16:46:14.095Z</time>
      </trkpt>
      <trkpt lat="43.29458" lon="3.41745">
        <ele>47.871078</ele>
        <time>2023-01-07T16:46:18.107Z</time>
      </trkpt>
      <trkpt lat="43.2947" lon="3.41748">
        <ele>47.848522</ele>
        <time>2023-01-07T16:46:21.115Z</time>
      </trkpt>
      <trkpt lat="43.29481" lon="3.41753">
        <ele>47.825632</ele>
        <time>2023-01-07T16:46:24.099Z</time>
      </trkpt>
      <trkpt lat="43.29493" lon="3.41756">
        <ele>47.802366</ele>
        <time>2023-01-07T16:46:27.111Z</time>
      </trkpt>
      <trkpt lat="43.29505" lon="3.41759">
        <ele>47.777983</ele>
        <time>2023-01-07T16:46:30.100Z</time>
      </trkpt>
      <trkpt lat="43.29518" lon="3.41762">
        <ele>47.753054</ele>
        <time>2023-01-07T16:46:33.098Z</time>
      </trkpt>
      <trkpt lat="43.29531" lon="3.41766">
        <ele>47.727356</ele>
        <time>2023-01-07T16:46:36.100Z</time>
      </trkpt>
      <trkpt lat="43.2954" lon="3.41772">
        <ele>47.707955</ele>
        <time>2023-01-07T16:46:38.102Z</time>
      </trkpt>
      <trkpt lat="43.29548" lon="3.41775">
        <ele>47.690252</ele>
        <time>2023-01-07T16:46:40.095Z</time>
      </trkpt>
      <trkpt lat="43.29562" lon="3.41777">
        <ele>47.664154</ele>
        <time>2023-01-07T16:46:43.092Z</time>
      </trkpt>
      <trkpt lat="43.29571" lon="3.41778">
        <ele>47.645981</ele>
        <time>2023-01-07T16:46:45.094Z</time>
      </trkpt>
      <trkpt lat="43.29581" lon="3.41779">
        <ele>47.654287</ele>
        <time>2023-01-07T16:46:47.090Z</time>
      </trkpt>
      <trkpt lat="43.2959" lon="3.4178">
        <ele>47.664278</ele>
        <time>2023-01-07T16:46:49.095Z</time>
      </trkpt>
      <trkpt lat="43.29599" lon="3.4178">
        <ele>47.674261</ele>
        <time>2023-01-07T16:46:51.097Z</time>
      </trkpt>
      <trkpt lat="43.29612" lon="3.41781">
        <ele>47.688122</ele>
        <time>2023-01-07T16:46:54.101Z</time>
      </trkpt>
      <trkpt lat="43.29625" lon="3.41781">
        <ele>47.702072</ele>
        <time>2023-01-07T16:46:57.112Z</time>
      </trkpt>
      <trkpt lat="43.29638" lon="3.41781">
        <ele>47.716131</ele>
        <time>2023-01-07T16:47:00.106Z</time>
      </trkpt>
      <trkpt lat="43.29651" lon="3.41781">
        <ele>47.730299</ele>
        <time>2023-01-07T16:47:03.088Z</time>
      </trkpt>
      <trkpt lat="43.29665" lon="3.41782">
        <ele>47.744803</ele>
        <time>2023-01-07T16:47:06.116Z</time>
      </trkpt>
      <trkpt lat="43.29674" lon="3.41782">
        <ele>47.754569</ele>
        <time>2023-01-07T16:47:08.093Z</time>
      </trkpt>
      <trkpt lat="43.29683" lon="3.41782">
        <ele>47.764338</ele>
        <time>2023-01-07T16:47:10.093Z</time>
      </trkpt>
      <trkpt lat="43.29695" lon="3.41783">
        <ele>47.776896</ele>
        <time>2023-01-07T16:47:13.103Z</time>
      </trkpt>
      <trkpt lat="43.29705" lon="3.41782">
        <ele>47.788271</ele>
        <time>2023-01-07T16:47:16.099Z</time>
      </trkpt>
      <trkpt lat="43.29715" lon="3.41783">
        <ele>47.799009</ele>
        <time>2023-01-07T16:47:19.106Z</time>
      </trkpt>
      <trkpt lat="43.29725" lon="3.41782">
        <ele>47.809855</ele>
        <time>2023-01-07T16:47:22.095Z</time>
      </trkpt>
      <trkpt lat="43.29736" lon="3.41782">
        <ele>47.82166</ele>
        <time>2023-01-07T16:47:25.104Z</time>
      </trkpt>
      <trkpt lat="43.29747" lon="3.41781">
        <ele>47.83318</ele>
        <time>2023-01-07T16:47:28.091Z</time>
      </trkpt>
      <trkpt lat="43.29757" lon="3.41782">
        <ele>47.850391</ele>
        <time>2023-01-07T16:47:31.104Z</time>
      </trkpt>
      <trkpt lat="43.29768" lon="3.41782">
        <ele>47.874222</ele>
        <time>2023-01-07T16:47:34.100Z</time>
      </trkpt>
      <trkpt lat="43.29781" lon="3.41779">
        <ele>47.902011</ele>
        <time>2023-01-07T16:47:37.112Z</time>
      </trkpt>
      <trkpt lat="43.29794" lon="3.4178">
        <ele>47.929315</ele>
        <time>2023-01-07T16:47:40.098Z</time>
      </trkpt>
      <trkpt lat="43.29806" lon="3.41779">
        <ele>47.956852</ele>
        <time>2023-01-07T16:47:43.105Z</time>
      </trkpt>
      <trkpt lat="43.29815" lon="3.4178">
        <ele>47.97683</ele>
        <time>2023-01-07T16:47:45.099Z</time>
      </trkpt>
      <trkpt lat="43.29828" lon="3.41779">
        <ele>48.003943</ele>
        <time>2023-01-07T16:47:48.094Z</time>
      </trkpt>
      <trkpt lat="43.29841" lon="3.41779">
        <ele>48.031668</ele>
        <time>2023-01-07T16:47:51.110Z</time>
      </trkpt>
      <trkpt lat="43.29854" lon="3.41779">
        <ele>48.05961</ele>
        <time>2023-01-07T16:47:54.087Z</time>
      </trkpt>
      <trkpt lat="43.29867" lon="3.41779">
        <ele>48.088204</ele>
        <time>2023-01-07T16:47:57.112Z</time>
      </trkpt>
      <trkpt lat="43.2988" lon="3.41779">
        <ele>48.116148</ele>
        <time>2023-01-07T16:48:00.096Z</time>
      </trkpt>
      <trkpt lat="43.29894" lon="3.41779">
        <ele>48.146045</ele>
        <time>2023-01-07T16:48:03.101Z</time>
      </trkpt>
      <trkpt lat="43.29906" lon="3.41779">
        <ele>48.173128</ele>
        <time>2023-01-07T16:48:06.098Z</time>
      </trkpt>
      <trkpt lat="43.29919" lon="3.41778">
        <ele>48.200226</ele>
        <time>2023-01-07T16:48:09.093Z</time>
      </trkpt>
      <trkpt lat="43.29931" lon="3.41779">
        <ele>48.227677</ele>
        <time>2023-01-07T16:48:12.100Z</time>
      </trkpt>
      <trkpt lat="43.29943" lon="3.41778">
        <ele>48.237681</ele>
        <time>2023-01-07T16:48:15.099Z</time>
      </trkpt>
      <trkpt lat="43.29954" lon="3.41777">
        <ele>48.246747</ele>
        <time>2023-01-07T16:48:18.094Z</time>
      </trkpt>
      <trkpt lat="43.29965" lon="3.41781">
        <ele>48.25632</ele>
        <time>2023-01-07T16:48:21.100Z</time>
      </trkpt>
      <trkpt lat="43.29974" lon="3.41788">
        <ele>48.264527</ele>
        <time>2023-01-07T16:48:24.106Z</time>
      </trkpt>
      <trkpt lat="43.29983" lon="3.41787">
        <ele>48.272273</ele>
        <time>2023-01-07T16:48:27.104Z</time>
      </trkpt>
      <trkpt lat="43.29994" lon="3.41788">
        <ele>48.281436</ele>
        <time>2023-01-07T16:48:30.102Z</time>
      </trkpt>
      <trkpt lat="43.30005" lon="3.41789">
        <ele>48.291284</ele>
        <time>2023-01-07T16:48:33.094Z</time>
      </trkpt>
      <trkpt lat="43.30018" lon="3.41791">
        <ele>48.30162</ele>
        <time>2023-01-07T16:48:36.104Z</time>
      </trkpt>
      <trkpt lat="43.3003" lon="3.41794">
        <ele>48.312271</ele>
        <time>2023-01-07T16:48:39.104Z</time>
      </trkpt>
      <trkpt lat="43.30043" lon="3.41797">
        <ele>48.322857</ele>
        <time>2023-01-07T16:48:42.093Z</time>
      </trkpt>
      <trkpt lat="43.30055" lon="3.41799">
        <ele>48.333552</ele>
        <time>2023-01-07T16:48:45.105Z</time>
      </trkpt>
      <trkpt lat="43.30067" lon="3.41802">
        <ele>48.343814</ele>
        <time>2023-01-07T16:48:48.099Z</time>
      </trkpt>
      <trkpt lat="43.30078" lon="3.41804">
        <ele>48.353163</ele>
        <time>2023-01-07T16:48:51.107Z</time>
      </trkpt>
      <trkpt lat="43.30088" lon="3.41807">
        <ele>48.361601</ele>
        <time>2023-01-07T16:48:54.093Z</time>
      </trkpt>
      <trkpt lat="43.30099" lon="3.4181">
        <ele>48.371218</ele>
        <time>2023-01-07T16:48:57.105Z</time>
      </trkpt>
      <trkpt lat="43.30109" lon="3.4182">
        <ele>48.374756</ele>
        <time>2023-01-07T16:49:00.096Z</time>
      </trkpt>
      <trkpt lat="43.30114" lon="3.41835">
        <ele>48.361744</ele>
        <time>2023-01-07T16:49:03.100Z</time>
      </trkpt>
      <trkpt lat="43.3012" lon="3.4185">
        <ele>48.348274</ele>
        <time>2023-01-07T16:49:06.103Z</time>
      </trkpt>
      <trkpt lat="43.30128" lon="3.41864">
        <ele>48.335147</ele>
        <time>2023-01-07T16:49:09.098Z</time>
      </trkpt>
      <trkpt lat="43.30138" lon="3.41874">
        <ele>48.321868</ele>
        <time>2023-01-07T16:49:12.105Z</time>
      </trkpt>
      <trkpt lat="43.30149" lon="3.4188">
        <ele>48.308934</ele>
        <time>2023-01-07T16:49:15.099Z</time>
      </trkpt>
      <trkpt lat="43.3016" lon="3.41882">
        <ele>48.297293</ele>
        <time>2023-01-07T16:49:18.101Z</time>
      </trkpt>
      <trkpt lat="43.3017" lon="3.41882">
        <ele>48.286202</ele>
        <time>2023-01-07T16:49:21.121Z</time>
      </trkpt>
      <trkpt lat="43.30182" lon="3.41885">
        <ele>48.274104</ele>
        <time>2023-01-07T16:49:24.103Z</time>
      </trkpt>
      <trkpt lat="43.30189" lon="3.41894">
        <ele>48.263096</ele>
        <time>2023-01-07T16:49:27.107Z</time>
      </trkpt>
      <trkpt lat="43.30197" lon="3.41905">
        <ele>48.251253</ele>
        <time>2023-01-07T16:49:31.108Z</time>
      </trkpt>
      <trkpt lat="43.30202" lon="3.41918">
        <ele>48.240388</ele>
        <time>2023-01-07T16:49:37.105Z</time>
      </trkpt>
      <trkpt lat="43.302" lon="3.41933">
        <ele>48.228455</ele>
        <time>2023-01-07T16:49:40.105Z</time>
      </trkpt>
      <trkpt lat="43.30199" lon="3.41945">
        <ele>48.218759</ele>
        <time>2023-01-07T16:49:42.115Z</time>
      </trkpt>
      <trkpt lat="43.30198" lon="3.41959">
        <ele>48.20824</ele>
        <time>2023-01-07T16:49:44.104Z</time>
      </trkpt>
      <trkpt lat="43.30197" lon="3.41972">
        <ele>48.197488</ele>
        <time>2023-01-07T16:49:46.106Z</time>
      </trkpt>
      <trkpt lat="43.30196" lon="3.41986">
        <ele>48.187082</ele>
        <time>2023-01-07T16:49:48.113Z</time>
      </trkpt>
      <trkpt lat="43.30197" lon="3.41998">
        <ele>48.221366</ele>
        <time>2023-01-07T16:49:50.098Z</time>
      </trkpt>
      <trkpt lat="43.30199" lon="3.42011">
        <ele>48.259633</ele>
        <time>2023-01-07T16:49:52.117Z</time>
      </trkpt>
      <trkpt lat="43.30203" lon="3.42024">
        <ele>48.299272</ele>
        <time>2023-01-07T16:49:54.096Z</time>
      </trkpt>
      <trkpt lat="43.30209" lon="3.42035">
        <ele>48.339315</ele>
        <time>2023-01-07T16:49:56.090Z</time>
      </trkpt>
      <trkpt lat="43.30214" lon="3.42047">
        <ele>48.379004</ele>
        <time>2023-01-07T16:49:58.098Z</time>
      </trkpt>
      <trkpt lat="43.30217" lon="3.42059">
        <ele>48.415207</ele>
        <time>2023-01-07T16:50:00.100Z</time>
      </trkpt>
      <trkpt lat="43.30221" lon="3.42075">
        <ele>48.465267</ele>
        <time>2023-01-07T16:50:03.096Z</time>
      </trkpt>
      <trkpt lat="43.30224" lon="3.42092">
        <ele>48.515684</ele>
        <time>2023-01-07T16:50:06.098Z</time>
      </trkpt>
      <trkpt lat="43.30225" lon="3.42109">
        <ele>48.565936</ele>
        <time>2023-01-07T16:50:09.106Z</time>
      </trkpt>
      <trkpt lat="43.30227" lon="3.42127">
        <ele>48.617767</ele>
        <time>2023-01-07T16:50:12.108Z</time>
      </trkpt>
      <trkpt lat="43.30228" lon="3.42144">
        <ele>48.668366</ele>
        <time>2023-01-07T16:50:15.106Z</time>
      </trkpt>
      <trkpt lat="43.30229" lon="3.42161">
        <ele>48.717134</ele>
        <time>2023-01-07T16:50:18.107Z</time>
      </trkpt>
      <trkpt lat="43.3023" lon="3.42178">
        <ele>48.767376</ele>
        <time>2023-01-07T16:50:21.093Z</time>
      </trkpt>
      <trkpt lat="43.30231" lon="3.42196">
        <ele>48.818878</ele>
        <time>2023-01-07T16:50:24.099Z</time>
      </trkpt>
      <trkpt lat="43.30231" lon="3.42209">
        <ele>48.854884</ele>
        <time>2023-01-07T16:50:26.095Z</time>
      </trkpt>
      <trkpt lat="43.30232" lon="3.42221">
        <ele>48.892247</ele>
        <time>2023-01-07T16:50:28.093Z</time>
      </trkpt>
      <trkpt lat="43.30233" lon="3.42235">
        <ele>48.862572</ele>
        <time>2023-01-07T16:50:30.099Z</time>
      </trkpt>
      <trkpt lat="43.30234" lon="3.42247">
        <ele>48.812679</ele>
        <time>2023-01-07T16:50:32.110Z</time>
      </trkpt>
      <trkpt lat="43.30234" lon="3.42261">
        <ele>48.760447</ele>
        <time>2023-01-07T16:50:34.107Z</time>
      </trkpt>
      <trkpt lat="43.30235" lon="3.42274">
        <ele>48.706558</ele>
        <time>2023-01-07T16:50:36.097Z</time>
      </trkpt>
      <trkpt lat="43.30236" lon="3.42288">
        <ele>48.653936</ele>
        <time>2023-01-07T16:50:38.099Z</time>
      </trkpt>
      <trkpt lat="43.30237" lon="3.42302">
        <ele>48.598763</ele>
        <time>2023-01-07T16:50:40.096Z</time>
      </trkpt>
      <trkpt lat="43.30239" lon="3.42315">
        <ele>48.548179</ele>
        <time>2023-01-07T16:50:42.096Z</time>
      </trkpt>
      <trkpt lat="43.3024" lon="3.42328">
        <ele>48.496821</ele>
        <time>2023-01-07T16:50:44.096Z</time>
      </trkpt>
      <trkpt lat="43.30241" lon="3.42341">
        <ele>48.44424</ele>
        <time>2023-01-07T16:50:46.105Z</time>
      </trkpt>
      <trkpt lat="43.30242" lon="3.42354">
        <ele>48.391961</ele>
        <time>2023-01-07T16:50:48.105Z</time>
      </trkpt>
      <trkpt lat="43.30242" lon="3.42368">
        <ele>48.337428</ele>
        <time>2023-01-07T16:50:50.096Z</time>
      </trkpt>
      <trkpt lat="43.30243" lon="3.42382">
        <ele>48.28203</ele>
        <time>2023-01-07T16:50:52.099Z</time>
      </trkpt>
      <trkpt lat="43.30245" lon="3.42397">
        <ele>48.222519</ele>
        <time>2023-01-07T16:50:54.099Z</time>
      </trkpt>
      <trkpt lat="43.30246" lon="3.42413">
        <ele>48.161452</ele>
        <time>2023-01-07T16:50:56.093Z</time>
      </trkpt>
      <trkpt lat="43.30247" lon="3.42427">
        <ele>48.106489</ele>
        <time>2023-01-07T16:50:58.111Z</time>
      </trkpt>
      <trkpt lat="43.30247" lon="3.4244">
        <ele>48.055583</ele>
        <time>2023-01-07T16:51:00.104Z</time>
      </trkpt>
      <trkpt lat="43.30248" lon="3.42458">
        <ele>47.983279</ele>
        <time>2023-01-07T16:51:03.096Z</time>
      </trkpt>
      <trkpt lat="43.30248" lon="3.42471">
        <ele>47.93474</ele>
        <time>2023-01-07T16:51:05.110Z</time>
      </trkpt>
      <trkpt lat="43.3025" lon="3.42483">
        <ele>47.929773</ele>
        <time>2023-01-07T16:51:07.108Z</time>
      </trkpt>
      <trkpt lat="43.30251" lon="3.42496">
        <ele>47.924888</ele>
        <time>2023-01-07T16:51:09.104Z</time>
      </trkpt>
      <trkpt lat="43.30252" lon="3.42509">
        <ele>47.919782</ele>
        <time>2023-01-07T16:51:11.105Z</time>
      </trkpt>
      <trkpt lat="43.30253" lon="3.42522">
        <ele>47.914536</ele>
        <time>2023-01-07T16:51:13.094Z</time>
      </trkpt>
      <trkpt lat="43.30254" lon="3.42534">
        <ele>47.909609</ele>
        <time>2023-01-07T16:51:15.124Z</time>
      </trkpt>
      <trkpt lat="43.30256" lon="3.42547">
        <ele>47.90447</ele>
        <time>2023-01-07T16:51:17.106Z</time>
      </trkpt>
      <trkpt lat="43.30257" lon="3.4256">
        <ele>47.899468</ele>
        <time>2023-01-07T16:51:19.103Z</time>
      </trkpt>
      <trkpt lat="43.30257" lon="3.42573">
        <ele>47.894447</ele>
        <time>2023-01-07T16:51:21.089Z</time>
      </trkpt>
      <trkpt lat="43.30258" lon="3.42586">
        <ele>47.889226</ele>
        <time>2023-01-07T16:51:23.106Z</time>
      </trkpt>
      <trkpt lat="43.30259" lon="3.42599">
        <ele>47.884024</ele>
        <time>2023-01-07T16:51:25.098Z</time>
      </trkpt>
      <trkpt lat="43.3026" lon="3.42613">
        <ele>47.878676</ele>
        <time>2023-01-07T16:51:27.110Z</time>
      </trkpt>
      <trkpt lat="43.30261" lon="3.42626">
        <ele>47.873268</ele>
        <time>2023-01-07T16:51:29.113Z</time>
      </trkpt>
      <trkpt lat="43.30262" lon="3.4264">
        <ele>47.867759</ele>
        <time>2023-01-07T16:51:31.096Z</time>
      </trkpt>
      <trkpt lat="43.30263" lon="3.42655">
        <ele>47.862063</ele>
        <time>2023-01-07T16:51:33.097Z</time>
      </trkpt>
      <trkpt lat="43.30263" lon="3.42669">
        <ele>47.85661</ele>
        <time>2023-01-07T16:51:35.120Z</time>
      </trkpt>
      <trkpt lat="43.30264" lon="3.42682">
        <ele>47.851285</ele>
        <time>2023-01-07T16:51:37.099Z</time>
      </trkpt>
      <trkpt lat="43.30264" lon="3.42696">
        <ele>47.846068</ele>
        <time>2023-01-07T16:51:39.103Z</time>
      </trkpt>
      <trkpt lat="43.30266" lon="3.42709">
        <ele>47.840909</ele>
        <time>2023-01-07T16:51:41.119Z</time>
      </trkpt>
      <trkpt lat="43.30267" lon="3.42722">
        <ele>47.856964</ele>
        <time>2023-01-07T16:51:43.100Z</time>
      </trkpt>
      <trkpt lat="43.30268" lon="3.42735">
        <ele>47.904686</ele>
        <time>2023-01-07T16:51:45.100Z</time>
      </trkpt>
      <trkpt lat="43.30268" lon="3.42748">
        <ele>47.953327</ele>
        <time>2023-01-07T16:51:47.105Z</time>
      </trkpt>
      <trkpt lat="43.30269" lon="3.42762">
        <ele>48.005329</ele>
        <time>2023-01-07T16:51:49.115Z</time>
      </trkpt>
      <trkpt lat="43.30271" lon="3.42777">
        <ele>48.05854</ele>
        <time>2023-01-07T16:51:51.121Z</time>
      </trkpt>
      <trkpt lat="43.30272" lon="3.42793">
        <ele>48.115167</ele>
        <time>2023-01-07T16:51:53.112Z</time>
      </trkpt>
      <trkpt lat="43.30273" lon="3.42807">
        <ele>48.169379</ele>
        <time>2023-01-07T16:51:55.108Z</time>
      </trkpt>
      <trkpt lat="43.30274" lon="3.42821">
        <ele>48.219075</ele>
        <time>2023-01-07T16:51:57.107Z</time>
      </trkpt>
      <trkpt lat="43.30275" lon="3.42834">
        <ele>48.267025</ele>
        <time>2023-01-07T16:51:59.104Z</time>
      </trkpt>
      <trkpt lat="43.30276" lon="3.42852">
        <ele>48.331346</ele>
        <time>2023-01-07T16:52:02.114Z</time>
      </trkpt>
      <trkpt lat="43.30276" lon="3.42869">
        <ele>48.392286</ele>
        <time>2023-01-07T16:52:05.115Z</time>
      </trkpt>
      <trkpt lat="43.30276" lon="3.42887">
        <ele>48.457864</ele>
        <time>2023-01-07T16:52:08.107Z</time>
      </trkpt>
      <trkpt lat="43.30275" lon="3.429">
        <ele>48.507342</ele>
        <time>2023-01-07T16:52:10.101Z</time>
      </trkpt>
      <trkpt lat="43.30272" lon="3.42914">
        <ele>48.559694</ele>
        <time>2023-01-07T16:52:12.110Z</time>
      </trkpt>
      <trkpt lat="43.3027" lon="3.42928">
        <ele>48.610418</ele>
        <time>2023-01-07T16:52:14.101Z</time>
      </trkpt>
      <trkpt lat="43.30268" lon="3.42945">
        <ele>48.672229</ele>
        <time>2023-01-07T16:52:17.103Z</time>
      </trkpt>
      <trkpt lat="43.30268" lon="3.42961">
        <ele>48.729889</ele>
        <time>2023-01-07T16:52:20.101Z</time>
      </trkpt>
      <trkpt lat="43.30268" lon="3.42975">
        <ele>48.7204</ele>
        <time>2023-01-07T16:52:23.112Z</time>
      </trkpt>
      <trkpt lat="43.30269" lon="3.42988">
        <ele>48.707373</ele>
        <time>2023-01-07T16:52:26.103Z</time>
      </trkpt>
      <trkpt lat="43.3027" lon="3.43004">
        <ele>48.692314</ele>
        <time>2023-01-07T16:52:30.102Z</time>
      </trkpt>
      <trkpt lat="43.30269" lon="3.43018">
        <ele>48.67872</ele>
        <time>2023-01-07T16:52:33.110Z</time>
      </trkpt>
      <trkpt lat="43.30269" lon="3.43031">
        <ele>48.665774</ele>
        <time>2023-01-07T16:52:36.105Z</time>
      </trkpt>
      <trkpt lat="43.3027" lon="3.43044">
        <ele>48.652528</ele>
        <time>2023-01-07T16:52:40.100Z</time>
      </trkpt>
      <trkpt lat="43.30273" lon="3.43058">
        <ele>48.639016</ele>
        <time>2023-01-07T16:58:27.163Z</time>
      </trkpt>
      <trkpt lat="43.30264" lon="3.43071">
        <ele>48.622259</ele>
        <time>2023-01-07T16:59:37.128Z</time>
      </trkpt>
      <trkpt lat="43.30255" lon="3.43077">
        <ele>48.607577</ele>
        <time>2023-01-07T16:59:42.103Z</time>
      </trkpt>
      <trkpt lat="43.30245" lon="3.43083">
        <ele>48.593778</ele>
        <time>2023-01-07T16:59:46.101Z</time>
      </trkpt>
      <trkpt lat="43.30237" lon="3.43088">
        <ele>48.581292</ele>
        <time>2023-01-07T16:59:49.100Z</time>
      </trkpt>
      <trkpt lat="43.30227" lon="3.43094">
        <ele>48.567553</ele>
        <time>2023-01-07T16:59:52.105Z</time>
      </trkpt>
      <trkpt lat="43.30219" lon="3.43104">
        <ele>48.55288</ele>
        <time>2023-01-07T16:59:55.095Z</time>
      </trkpt>
      <trkpt lat="43.30212" lon="3.43115">
        <ele>48.538599</ele>
        <time>2023-01-07T16:59:58.107Z</time>
      </trkpt>
      <trkpt lat="43.30205" lon="3.43128">
        <ele>48.523161</ele>
        <time>2023-01-07T17:00:01.121Z</time>
      </trkpt>
      <trkpt lat="43.30197" lon="3.43141">
        <ele>48.506704</ele>
        <time>2023-01-07T17:00:04.100Z</time>
      </trkpt>
      <trkpt lat="43.30189" lon="3.43153">
        <ele>48.491048</ele>
        <time>2023-01-07T17:00:07.109Z</time>
      </trkpt>
      <trkpt lat="43.30183" lon="3.43167">
        <ele>48.474224</ele>
        <time>2023-01-07T17:00:10.101Z</time>
      </trkpt>
      <trkpt lat="43.30176" lon="3.43179">
        <ele>48.458492</ele>
        <time>2023-01-07T17:00:13.096Z</time>
      </trkpt>
      <trkpt lat="43.3017" lon="3.4319">
        <ele>48.444557</ele>
        <time>2023-01-07T17:00:16.109Z</time>
      </trkpt>
      <trkpt lat="43.30165" lon="3.43201">
        <ele>48.431039</ele>
        <time>2023-01-07T17:00:19.187Z</time>
      </trkpt>
      <trkpt lat="43.3016" lon="3.43211">
        <ele>48.418241</ele>
        <time>2023-01-07T17:00:22.112Z</time>
      </trkpt>
      <trkpt lat="43.30154" lon="3.43224">
        <ele>48.402254</ele>
        <time>2023-01-07T17:00:26.119Z</time>
      </trkpt>
      <trkpt lat="43.30149" lon="3.43235">
        <ele>48.389015</ele>
        <time>2023-01-07T17:00:29.112Z</time>
      </trkpt>
      <trkpt lat="43.30143" lon="3.43249">
        <ele>48.373225</ele>
        <time>2023-01-07T17:00:33.102Z</time>
      </trkpt>
      <trkpt lat="43.30137" lon="3.43262">
        <ele>48.356975</ele>
        <time>2023-01-07T17:00:37.110Z</time>
      </trkpt>
      <trkpt lat="43.30131" lon="3.43272">
        <ele>48.344303</ele>
        <time>2023-01-07T17:00:44.101Z</time>
      </trkpt>
      <trkpt lat="43.30127" lon="3.43285">
        <ele>48.329773</ele>
        <time>2023-01-07T17:01:05.101Z</time>
      </trkpt>
      <trkpt lat="43.30121" lon="3.43298">
        <ele>48.313622</ele>
        <time>2023-01-07T17:01:10.105Z</time>
      </trkpt>
      <trkpt lat="43.30115" lon="3.43309">
        <ele>48.299298</ele>
        <time>2023-01-07T17:01:14.104Z</time>
      </trkpt>
      <trkpt lat="43.30108" lon="3.43321">
        <ele>48.283813</ele>
        <time>2023-01-07T17:01:18.100Z</time>
      </trkpt>
      <trkpt lat="43.30102" lon="3.43331">
        <ele>48.270893</ele>
        <time>2023-01-07T17:01:21.104Z</time>
      </trkpt>
      <trkpt lat="43.30096" lon="3.43344">
        <ele>48.25458</ele>
        <time>2023-01-07T17:01:25.101Z</time>
      </trkpt>
      <trkpt lat="43.30089" lon="3.43355">
        <ele>48.239892</ele>
        <time>2023-01-07T17:01:28.106Z</time>
      </trkpt>
      <trkpt lat="43.30082" lon="3.43364">
        <ele>48.23985</ele>
        <time>2023-01-07T17:01:31.108Z</time>
      </trkpt>
      <trkpt lat="43.30076" lon="3.43375">
        <ele>48.240021</ele>
        <time>2023-01-07T17:01:34.107Z</time>
      </trkpt>
      <trkpt lat="43.30068" lon="3.43385">
        <ele>48.240196</ele>
        <time>2023-01-07T17:01:37.106Z</time>
      </trkpt>
      <trkpt lat="43.3006" lon="3.43395">
        <ele>48.240368</ele>
        <time>2023-01-07T17:01:40.107Z</time>
      </trkpt>
      <trkpt lat="43.30053" lon="3.43405">
        <ele>48.240542</ele>
        <time>2023-01-07T17:01:43.105Z</time>
      </trkpt>
      <trkpt lat="43.30045" lon="3.43415">
        <ele>48.240715</ele>
        <time>2023-01-07T17:01:46.097Z</time>
      </trkpt>
      <trkpt lat="43.30037" lon="3.43426">
        <ele>48.240897</ele>
        <time>2023-01-07T17:01:49.107Z</time>
      </trkpt>
      <trkpt lat="43.3003" lon="3.43438">
        <ele>48.241081</ele>
        <time>2023-01-07T17:01:52.106Z</time>
      </trkpt>
      <trkpt lat="43.30024" lon="3.43451">
        <ele>48.241273</ele>
        <time>2023-01-07T17:01:55.099Z</time>
      </trkpt>
      <trkpt lat="43.30016" lon="3.43464">
        <ele>48.241466</ele>
        <time>2023-01-07T17:01:58.094Z</time>
      </trkpt>
      <trkpt lat="43.30009" lon="3.43477">
        <ele>48.241662</ele>
        <time>2023-01-07T17:02:01.100Z</time>
      </trkpt>
      <trkpt lat="43.30001" lon="3.43491">
        <ele>48.241867</ele>
        <time>2023-01-07T17:02:04.098Z</time>
      </trkpt>
      <trkpt lat="43.29993" lon="3.43504">
        <ele>48.242076</ele>
        <time>2023-01-07T17:02:07.104Z</time>
      </trkpt>
      <trkpt lat="43.29985" lon="3.43517">
        <ele>48.242279</ele>
        <time>2023-01-07T17:02:10.109Z</time>
      </trkpt>
      <trkpt lat="43.29978" lon="3.43528">
        <ele>48.242451</ele>
        <time>2023-01-07T17:02:13.102Z</time>
      </trkpt>
      <trkpt lat="43.29972" lon="3.43537">
        <ele>48.242602</ele>
        <time>2023-01-07T17:02:16.101Z</time>
      </trkpt>
      <trkpt lat="43.29965" lon="3.43547">
        <ele>48.217682</ele>
        <time>2023-01-07T17:02:19.109Z</time>
      </trkpt>
      <trkpt lat="43.29958" lon="3.43557">
        <ele>48.181884</ele>
        <time>2023-01-07T17:02:22.098Z</time>
      </trkpt>
      <trkpt lat="43.2995" lon="3.43569">
        <ele>48.140702</ele>
        <time>2023-01-07T17:02:25.101Z</time>
      </trkpt>
      <trkpt lat="43.29942" lon="3.43581">
        <ele>48.098215</ele>
        <time>2023-01-07T17:02:28.091Z</time>
      </trkpt>
      <trkpt lat="43.29933" lon="3.43593">
        <ele>48.057853</ele>
        <time>2023-01-07T17:02:31.098Z</time>
      </trkpt>
      <trkpt lat="43.29927" lon="3.43605">
        <ele>48.019752</ele>
        <time>2023-01-07T17:02:34.108Z</time>
      </trkpt>
      <trkpt lat="43.29921" lon="3.43615">
        <ele>47.986156</ele>
        <time>2023-01-07T17:02:37.102Z</time>
      </trkpt>
      <trkpt lat="43.29914" lon="3.43625">
        <ele>47.951124</ele>
        <time>2023-01-07T17:02:40.105Z</time>
      </trkpt>
      <trkpt lat="43.29907" lon="3.43637">
        <ele>47.912081</ele>
        <time>2023-01-07T17:02:43.105Z</time>
      </trkpt>
      <trkpt lat="43.29899" lon="3.43649">
        <ele>47.872161</ele>
        <time>2023-01-07T17:02:46.096Z</time>
      </trkpt>
      <trkpt lat="43.29893" lon="3.43661">
        <ele>47.83488</ele>
        <time>2023-01-07T17:02:49.106Z</time>
      </trkpt>
      <trkpt lat="43.29886" lon="3.43674">
        <ele>47.792885</ele>
        <time>2023-01-07T17:02:52.113Z</time>
      </trkpt>
      <trkpt lat="43.29878" lon="3.43687">
        <ele>47.750005</ele>
        <time>2023-01-07T17:02:55.106Z</time>
      </trkpt>
      <trkpt lat="43.2987" lon="3.43699">
        <ele>47.708674</ele>
        <time>2023-01-07T17:02:58.108Z</time>
      </trkpt>
      <trkpt lat="43.29862" lon="3.43712">
        <ele>47.665472</ele>
        <time>2023-01-07T17:03:01.114Z</time>
      </trkpt>
      <trkpt lat="43.29854" lon="3.43725">
        <ele>47.62185</ele>
        <time>2023-01-07T17:03:04.106Z</time>
      </trkpt>
      <trkpt lat="43.29846" lon="3.43739">
        <ele>47.617113</ele>
        <time>2023-01-07T17:03:07.103Z</time>
      </trkpt>
      <trkpt lat="43.29839" lon="3.43748">
        <ele>47.617582</ele>
        <time>2023-01-07T17:03:09.111Z</time>
      </trkpt>
      <trkpt lat="43.29833" lon="3.43758">
        <ele>47.618057</ele>
        <time>2023-01-07T17:03:11.105Z</time>
      </trkpt>
      <trkpt lat="43.29827" lon="3.43767">
        <ele>47.618539</ele>
        <time>2023-01-07T17:03:13.106Z</time>
      </trkpt>
      <trkpt lat="43.29818" lon="3.4378">
        <ele>47.61921</ele>
        <time>2023-01-07T17:03:16.115Z</time>
      </trkpt>
      <trkpt lat="43.29809" lon="3.43792">
        <ele>47.619842</ele>
        <time>2023-01-07T17:03:19.117Z</time>
      </trkpt>
      <trkpt lat="43.298" lon="3.43803">
        <ele>47.620455</ele>
        <time>2023-01-07T17:03:22.121Z</time>
      </trkpt>
      <trkpt lat="43.29793" lon="3.43812">
        <ele>47.620984</ele>
        <time>2023-01-07T17:03:25.117Z</time>
      </trkpt>
      <trkpt lat="43.29783" lon="3.4382">
        <ele>47.621563</ele>
        <time>2023-01-07T17:03:29.117Z</time>
      </trkpt>
      <trkpt lat="43.29775" lon="3.43831">
        <ele>47.622117</ele>
        <time>2023-01-07T17:03:33.118Z</time>
      </trkpt>
      <trkpt lat="43.29773" lon="3.43847">
        <ele>47.622737</ele>
        <time>2023-01-07T17:03:37.103Z</time>
      </trkpt>
      <trkpt lat="43.29776" lon="3.43862">
        <ele>47.623329</ele>
        <time>2023-01-07T17:03:40.100Z</time>
      </trkpt>
      <trkpt lat="43.29783" lon="3.43876">
        <ele>47.623955</ele>
        <time>2023-01-07T17:03:43.099Z</time>
      </trkpt>
      <trkpt lat="43.29791" lon="3.43891">
        <ele>47.624632</ele>
        <time>2023-01-07T17:03:46.115Z</time>
      </trkpt>
      <trkpt lat="43.29796" lon="3.43907">
        <ele>47.625298</ele>
        <time>2023-01-07T17:03:49.108Z</time>
      </trkpt>
      <trkpt lat="43.29798" lon="3.43924">
        <ele>47.617801</ele>
        <time>2023-01-07T17:03:52.123Z</time>
      </trkpt>
      <trkpt lat="43.298" lon="3.43937">
        <ele>47.597567</ele>
        <time>2023-01-07T17:03:54.101Z</time>
      </trkpt>
      <trkpt lat="43.29803" lon="3.4395">
        <ele>47.576807</ele>
        <time>2023-01-07T17:03:56.112Z</time>
      </trkpt>
      <trkpt lat="43.29806" lon="3.43963">
        <ele>47.555734</ele>
        <time>2023-01-07T17:03:58.100Z</time>
      </trkpt>
      <trkpt lat="43.2981" lon="3.43975">
        <ele>47.535096</ele>
        <time>2023-01-07T17:04:00.107Z</time>
      </trkpt>
      <trkpt lat="43.29813" lon="3.43988">
        <ele>47.514091</ele>
        <time>2023-01-07T17:04:02.101Z</time>
      </trkpt>
      <trkpt lat="43.29818" lon="3.43999">
        <ele>47.494477</ele>
        <time>2023-01-07T17:04:04.106Z</time>
      </trkpt>
      <trkpt lat="43.29823" lon="3.44015">
        <ele>47.466416</ele>
        <time>2023-01-07T17:04:07.099Z</time>
      </trkpt>
      <trkpt lat="43.29829" lon="3.44032">
        <ele>47.437595</ele>
        <time>2023-01-07T17:04:10.108Z</time>
      </trkpt>
      <trkpt lat="43.29834" lon="3.44049">
        <ele>47.409485</ele>
        <time>2023-01-07T17:04:13.099Z</time>
      </trkpt>
      <trkpt lat="43.29836" lon="3.44061">
        <ele>47.389408</ele>
        <time>2023-01-07T17:04:15.104Z</time>
      </trkpt>
      <trkpt lat="43.2984" lon="3.44079">
        <ele>47.361108</ele>
        <time>2023-01-07T17:04:18.103Z</time>
      </trkpt>
      <trkpt lat="43.29843" lon="3.44095">
        <ele>47.334106</ele>
        <time>2023-01-07T17:04:21.109Z</time>
      </trkpt>
      <trkpt lat="43.29847" lon="3.44111">
        <ele>47.309025</ele>
        <time>2023-01-07T17:04:24.096Z</time>
      </trkpt>
      <trkpt lat="43.2985" lon="3.44125">
        <ele>47.285931</ele>
        <time>2023-01-07T17:04:27.115Z</time>
      </trkpt>
      <trkpt lat="43.29851" lon="3.44138">
        <ele>47.265353</ele>
        <time>2023-01-07T17:04:30.092Z</time>
      </trkpt>
      <trkpt lat="43.29853" lon="3.44153">
        <ele>47.243567</ele>
        <time>2023-01-07T17:04:33.102Z</time>
      </trkpt>
      <trkpt lat="43.29856" lon="3.44169">
        <ele>47.323618</ele>
        <time>2023-01-07T17:04:36.107Z</time>
      </trkpt>
      <trkpt lat="43.29858" lon="3.44185">
        <ele>47.407395</ele>
        <time>2023-01-07T17:04:39.097Z</time>
      </trkpt>
      <trkpt lat="43.29862" lon="3.44201">
        <ele>47.490217</ele>
        <time>2023-01-07T17:04:42.107Z</time>
      </trkpt>
      <trkpt lat="43.29868" lon="3.44215">
        <ele>47.570491</ele>
        <time>2023-01-07T17:04:45.108Z</time>
      </trkpt>
      <trkpt lat="43.29873" lon="3.44228">
        <ele>47.647391</ele>
        <time>2023-01-07T17:04:48.119Z</time>
      </trkpt>
      <trkpt lat="43.29877" lon="3.44239">
        <ele>47.709599</ele>
        <time>2023-01-07T17:04:51.117Z</time>
      </trkpt>
      <trkpt lat="43.29885" lon="3.44251">
        <ele>47.791209</ele>
        <time>2023-01-07T17:04:55.104Z</time>
      </trkpt>
      <trkpt lat="43.29893" lon="3.44257">
        <ele>47.858587</ele>
        <time>2023-01-07T17:04:58.091Z</time>
      </trkpt>
      <trkpt lat="43.29902" lon="3.44266">
        <ele>47.931374</ele>
        <time>2023-01-07T17:05:01.095Z</time>
      </trkpt>
      <trkpt lat="43.29908" lon="3.44281">
        <ele>48.016765</ele>
        <time>2023-01-07T17:05:04.108Z</time>
      </trkpt>
      <trkpt lat="43.29911" lon="3.44298">
        <ele>48.107525</ele>
        <time>2023-01-07T17:05:07.119Z</time>
      </trkpt>
      <trkpt lat="43.29913" lon="3.44311">
        <ele>48.171912</ele>
        <time>2023-01-07T17:05:09.104Z</time>
      </trkpt>
      <trkpt lat="43.29915" lon="3.44324">
        <ele>48.238147</ele>
        <time>2023-01-07T17:05:11.113Z</time>
      </trkpt>
      <trkpt lat="43.29919" lon="3.44335">
        <ele>48.301088</ele>
        <time>2023-01-07T17:05:13.098Z</time>
      </trkpt>
      <trkpt lat="43.29924" lon="3.44352">
        <ele>48.394267</ele>
        <time>2023-01-07T17:05:16.109Z</time>
      </trkpt>
      <trkpt lat="43.29927" lon="3.44364">
        <ele>48.457271</ele>
        <time>2023-01-07T17:05:18.102Z</time>
      </trkpt>
      <trkpt lat="43.2993" lon="3.44376">
        <ele>48.460368</ele>
        <time>2023-01-07T17:05:20.109Z</time>
      </trkpt>
      <trkpt lat="43.29933" lon="3.44388">
        <ele>48.423277</ele>
        <time>2023-01-07T17:05:22.115Z</time>
      </trkpt>
      <trkpt lat="43.29936" lon="3.444">
        <ele>48.385973</ele>
        <time>2023-01-07T17:05:24.121Z</time>
      </trkpt>
      <trkpt lat="43.29939" lon="3.44412">
        <ele>48.348525</ele>
        <time>2023-01-07T17:05:26.107Z</time>
      </trkpt>
      <trkpt lat="43.29945" lon="3.44429">
        <ele>48.292731</ele>
        <time>2023-01-07T17:05:29.114Z</time>
      </trkpt>
      <trkpt lat="43.29949" lon="3.4444">
        <ele>48.254166</ele>
        <time>2023-01-07T17:05:31.113Z</time>
      </trkpt>
      <trkpt lat="43.29953" lon="3.44452">
        <ele>48.216408</ele>
        <time>2023-01-07T17:05:33.100Z</time>
      </trkpt>
      <trkpt lat="43.29957" lon="3.44464">
        <ele>48.177039</ele>
        <time>2023-01-07T17:05:35.107Z</time>
      </trkpt>
      <trkpt lat="43.29962" lon="3.44475">
        <ele>48.140114</ele>
        <time>2023-01-07T17:05:37.096Z</time>
      </trkpt>
      <trkpt lat="43.29966" lon="3.44487">
        <ele>48.100745</ele>
        <time>2023-01-07T17:05:39.109Z</time>
      </trkpt>
      <trkpt lat="43.2997" lon="3.44498">
        <ele>48.062905</ele>
        <time>2023-01-07T17:05:41.109Z</time>
      </trkpt>
      <trkpt lat="43.29978" lon="3.44513">
        <ele>48.009922</ele>
        <time>2023-01-07T17:05:44.107Z</time>
      </trkpt>
      <trkpt lat="43.29985" lon="3.44528">
        <ele>47.956973</ele>
        <time>2023-01-07T17:05:47.112Z</time>
      </trkpt>
      <trkpt lat="43.2999" lon="3.44538">
        <ele>47.919604</ele>
        <time>2023-01-07T17:05:49.105Z</time>
      </trkpt>
      <trkpt lat="43.29996" lon="3.44548">
        <ele>47.882708</ele>
        <time>2023-01-07T17:05:51.116Z</time>
      </trkpt>
      <trkpt lat="43.30004" lon="3.44561">
        <ele>47.832109</ele>
        <time>2023-01-07T17:05:54.106Z</time>
      </trkpt>
      <trkpt lat="43.30012" lon="3.44575">
        <ele>47.778552</ele>
        <time>2023-01-07T17:05:57.112Z</time>
      </trkpt>
      <trkpt lat="43.3002" lon="3.44589">
        <ele>47.727053</ele>
        <time>2023-01-07T17:06:00.116Z</time>
      </trkpt>
      <trkpt lat="43.30028" lon="3.446">
        <ele>47.68071</ele>
        <time>2023-01-07T17:06:03.094Z</time>
      </trkpt>
      <trkpt lat="43.30036" lon="3.44611">
        <ele>47.634922</ele>
        <time>2023-01-07T17:06:06.110Z</time>
      </trkpt>
      <trkpt lat="43.30044" lon="3.44624">
        <ele>47.58783</ele>
        <time>2023-01-07T17:06:09.117Z</time>
      </trkpt>
      <trkpt lat="43.30051" lon="3.44637">
        <ele>47.540198</ele>
        <time>2023-01-07T17:06:12.106Z</time>
      </trkpt>
      <trkpt lat="43.30058" lon="3.44652">
        <ele>47.489776</ele>
        <time>2023-01-07T17:06:15.111Z</time>
      </trkpt>
      <trkpt lat="43.30062" lon="3.44668">
        <ele>47.439618</ele>
        <time>2023-01-07T17:06:18.108Z</time>
      </trkpt>
      <trkpt lat="43.30063" lon="3.44686">
        <ele>47.386335</ele>
        <time>2023-01-07T17:06:21.102Z</time>
      </trkpt>
      <trkpt lat="43.30065" lon="3.44699">
        <ele>47.349221</ele>
        <time>2023-01-07T17:06:23.111Z</time>
      </trkpt>
      <trkpt lat="43.30067" lon="3.44716">
        <ele>47.297682</ele>
        <time>2023-01-07T17:06:26.098Z</time>
      </trkpt>
      <trkpt lat="43.30069" lon="3.44732">
        <ele>47.250605</ele>
        <time>2023-01-07T17:06:29.110Z</time>
      </trkpt>
      <trkpt lat="43.30071" lon="3.44747">
        <ele>47.206541</ele>
        <time>2023-01-07T17:06:32.108Z</time>
      </trkpt>
      <trkpt lat="43.30074" lon="3.44762">
        <ele>47.161884</ele>
        <time>2023-01-07T17:06:35.115Z</time>
      </trkpt>
      <trkpt lat="43.30076" lon="3.44779">
        <ele>47.113525</ele>
        <time>2023-01-07T17:06:38.099Z</time>
      </trkpt>
      <trkpt lat="43.30078" lon="3.44795">
        <ele>47.065219</ele>
        <time>2023-01-07T17:06:41.107Z</time>
      </trkpt>
      <trkpt lat="43.30081" lon="3.44811">
        <ele>47.040611</ele>
        <time>2023-01-07T17:06:44.144Z</time>
      </trkpt>
      <trkpt lat="43.30082" lon="3.44824">
        <ele>47.055294</ele>
        <time>2023-01-07T17:06:46.096Z</time>
      </trkpt>
      <trkpt lat="43.30084" lon="3.44837">
        <ele>47.070726</ele>
        <time>2023-01-07T17:06:48.115Z</time>
      </trkpt>
      <trkpt lat="43.30087" lon="3.44855">
        <ele>47.090312</ele>
        <time>2023-01-07T17:06:51.097Z</time>
      </trkpt>
      <trkpt lat="43.30091" lon="3.44871">
        <ele>47.109876</ele>
        <time>2023-01-07T17:06:54.106Z</time>
      </trkpt>
      <trkpt lat="43.30093" lon="3.44885">
        <ele>47.125067</ele>
        <time>2023-01-07T17:06:56.100Z</time>
      </trkpt>
      <trkpt lat="43.30094" lon="3.44897">
        <ele>47.139444</ele>
        <time>2023-01-07T17:06:58.106Z</time>
      </trkpt>
      <trkpt lat="43.30096" lon="3.4491">
        <ele>47.153272</ele>
        <time>2023-01-07T17:07:00.108Z</time>
      </trkpt>
      <trkpt lat="43.30099" lon="3.44928">
        <ele>47.173988</ele>
        <time>2023-01-07T17:07:03.110Z</time>
      </trkpt>
      <trkpt lat="43.30101" lon="3.4494">
        <ele>47.187829</ele>
        <time>2023-01-07T17:07:05.099Z</time>
      </trkpt>
      <trkpt lat="43.30103" lon="3.44952">
        <ele>47.201671</ele>
        <time>2023-01-07T17:07:07.108Z</time>
      </trkpt>
      <trkpt lat="43.30108" lon="3.44969">
        <ele>47.222226</ele>
        <time>2023-01-07T17:07:10.095Z</time>
      </trkpt>
      <trkpt lat="43.30111" lon="3.44987">
        <ele>47.242619</ele>
        <time>2023-01-07T17:07:13.096Z</time>
      </trkpt>
      <trkpt lat="43.30115" lon="3.45004">
        <ele>47.262412</ele>
        <time>2023-01-07T17:07:16.098Z</time>
      </trkpt>
      <trkpt lat="43.30118" lon="3.45021">
        <ele>47.282362</ele>
        <time>2023-01-07T17:07:19.110Z</time>
      </trkpt>
      <trkpt lat="43.30121" lon="3.45038">
        <ele>47.301626</ele>
        <time>2023-01-07T17:07:22.097Z</time>
      </trkpt>
      <trkpt lat="43.30124" lon="3.45052">
        <ele>47.333165</ele>
        <time>2023-01-07T17:07:25.095Z</time>
      </trkpt>
      <trkpt lat="43.30126" lon="3.45064">
        <ele>47.374304</ele>
        <time>2023-01-07T17:07:28.099Z</time>
      </trkpt>
      <trkpt lat="43.3013" lon="3.4508">
        <ele>47.427428</ele>
        <time>2023-01-07T17:07:32.105Z</time>
      </trkpt>
      <trkpt lat="43.30133" lon="3.45094">
        <ele>47.4749</ele>
        <time>2023-01-07T17:07:35.105Z</time>
      </trkpt>
      <trkpt lat="43.30135" lon="3.45108">
        <ele>47.522676</ele>
        <time>2023-01-07T17:07:38.105Z</time>
      </trkpt>
      <trkpt lat="43.30137" lon="3.45123">
        <ele>47.571512</ele>
        <time>2023-01-07T17:07:41.095Z</time>
      </trkpt>
      <trkpt lat="43.3014" lon="3.45138">
        <ele>47.622016</ele>
        <time>2023-01-07T17:07:44.099Z</time>
      </trkpt>
      <trkpt lat="43.30143" lon="3.45155">
        <ele>47.67778</ele>
        <time>2023-01-07T17:07:47.119Z</time>
      </trkpt>
      <trkpt lat="43.30145" lon="3.45167">
        <ele>47.720084</ele>
        <time>2023-01-07T17:07:49.106Z</time>
      </trkpt>
      <trkpt lat="43.30149" lon="3.45185">
        <ele>47.777953</ele>
        <time>2023-01-07T17:07:52.101Z</time>
      </trkpt>
      <trkpt lat="43.3015" lon="3.45197">
        <ele>47.819111</ele>
        <time>2023-01-07T17:07:54.119Z</time>
      </trkpt>
      <trkpt lat="43.30154" lon="3.45214">
        <ele>47.876257</ele>
        <time>2023-01-07T17:07:57.127Z</time>
      </trkpt>
      <trkpt lat="43.30157" lon="3.45232">
        <ele>47.936145</ele>
        <time>2023-01-07T17:08:00.094Z</time>
      </trkpt>
      <trkpt lat="43.3016" lon="3.45244">
        <ele>47.976374</ele>
        <time>2023-01-07T17:08:02.122Z</time>
      </trkpt>
      <trkpt lat="43.30163" lon="3.4526">
        <ele>48.033256</ele>
        <time>2023-01-07T17:08:05.119Z</time>
      </trkpt>
      <trkpt lat="43.30167" lon="3.45275">
        <ele>48.083355</ele>
        <time>2023-01-07T17:08:08.103Z</time>
      </trkpt>
      <trkpt lat="43.30169" lon="3.45291">
        <ele>48.119669</ele>
        <time>2023-01-07T17:08:11.124Z</time>
      </trkpt>
      <trkpt lat="43.30174" lon="3.45306">
        <ele>48.135957</ele>
        <time>2023-01-07T17:08:14.121Z</time>
      </trkpt>
      <trkpt lat="43.30178" lon="3.4532">
        <ele>48.151705</ele>
        <time>2023-01-07T17:08:17.101Z</time>
      </trkpt>
      <trkpt lat="43.30182" lon="3.45333">
        <ele>48.165693</ele>
        <time>2023-01-07T17:08:20.104Z</time>
      </trkpt>
      <trkpt lat="43.30186" lon="3.45346">
        <ele>48.179629</ele>
        <time>2023-01-07T17:08:23.106Z</time>
      </trkpt>
      <trkpt lat="43.3019" lon="3.45359">
        <ele>48.193617</ele>
        <time>2023-01-07T17:08:26.104Z</time>
      </trkpt>
      <trkpt lat="43.30194" lon="3.45372">
        <ele>48.207751</ele>
        <time>2023-01-07T17:08:29.110Z</time>
      </trkpt>
      <trkpt lat="43.30198" lon="3.45384">
        <ele>48.220695</ele>
        <time>2023-01-07T17:08:32.112Z</time>
      </trkpt>
      <trkpt lat="43.30203" lon="3.45396">
        <ele>48.235026</ele>
        <time>2023-01-07T17:08:36.099Z</time>
      </trkpt>
      <trkpt lat="43.30208" lon="3.45408">
        <ele>48.248457</ele>
        <time>2023-01-07T17:08:39.112Z</time>
      </trkpt>
      <trkpt lat="43.30212" lon="3.45421">
        <ele>48.263326</ele>
        <time>2023-01-07T17:08:42.106Z</time>
      </trkpt>
      <trkpt lat="43.30216" lon="3.45434">
        <ele>48.276799</ele>
        <time>2023-01-07T17:08:45.099Z</time>
      </trkpt>
      <trkpt lat="43.30221" lon="3.45448">
        <ele>48.29278</ele>
        <time>2023-01-07T17:08:49.108Z</time>
      </trkpt>
      <trkpt lat="43.30224" lon="3.4546">
        <ele>48.305549</ele>
        <time>2023-01-07T17:08:53.107Z</time>
      </trkpt>
      <trkpt lat="43.30228" lon="3.45475">
        <ele>48.32127</ele>
        <time>2023-01-07T17:08:58.101Z</time>
      </trkpt>
      <trkpt lat="43.30236" lon="3.45487">
        <ele>48.337608</ele>
        <time>2023-01-07T17:09:02.105Z</time>
      </trkpt>
      <trkpt lat="43.30246" lon="3.45493">
        <ele>48.351861</ele>
        <time>2023-01-07T17:09:05.095Z</time>
      </trkpt>
      <trkpt lat="43.30256" lon="3.45498">
        <ele>48.350331</ele>
        <time>2023-01-07T17:09:08.111Z</time>
      </trkpt>
      <trkpt lat="43.30268" lon="3.45502">
        <ele>48.327822</ele>
        <time>2023-01-07T17:09:11.091Z</time>
      </trkpt>
      <trkpt lat="43.3028" lon="3.45507">
        <ele>48.304859</ele>
        <time>2023-01-07T17:09:14.099Z</time>
      </trkpt>
      <trkpt lat="43.30292" lon="3.45511">
        <ele>48.281396</ele>
        <time>2023-01-07T17:09:17.102Z</time>
      </trkpt>
      <trkpt lat="43.30303" lon="3.45517">
        <ele>48.258174</ele>
        <time>2023-01-07T17:09:20.097Z</time>
      </trkpt>
      <trkpt lat="43.30315" lon="3.45522">
        <ele>48.235176</ele>
        <time>2023-01-07T17:09:23.111Z</time>
      </trkpt>
      <trkpt lat="43.30326" lon="3.45529">
        <ele>48.211831</ele>
        <time>2023-01-07T17:09:26.102Z</time>
      </trkpt>
      <trkpt lat="43.30338" lon="3.45536">
        <ele>48.1885</ele>
        <time>2023-01-07T17:09:29.101Z</time>
      </trkpt>
      <trkpt lat="43.30349" lon="3.45543">
        <ele>48.165595</ele>
        <time>2023-01-07T17:09:32.100Z</time>
      </trkpt>
      <trkpt lat="43.3036" lon="3.45551">
        <ele>48.142023</ele>
        <time>2023-01-07T17:09:35.109Z</time>
      </trkpt>
      <trkpt lat="43.30371" lon="3.4556">
        <ele>48.117596</ele>
        <time>2023-01-07T17:09:38.106Z</time>
      </trkpt>
      <trkpt lat="43.30379" lon="3.45569">
        <ele>48.099345</ele>
        <time>2023-01-07T17:09:40.113Z</time>
      </trkpt>
      <trkpt lat="43.30386" lon="3.45576">
        <ele>48.081858</ele>
        <time>2023-01-07T17:09:42.145Z</time>
      </trkpt>
      <trkpt lat="43.30394" lon="3.45583">
        <ele>48.06445</ele>
        <time>2023-01-07T17:09:44.092Z</time>
      </trkpt>
      <trkpt lat="43.30405" lon="3.45594">
        <ele>48.039615</ele>
        <time>2023-01-07T17:09:47.100Z</time>
      </trkpt>
      <trkpt lat="43.30415" lon="3.45604">
        <ele>48.045857</ele>
        <time>2023-01-07T17:09:50.095Z</time>
      </trkpt>
      <trkpt lat="43.30423" lon="3.45611">
        <ele>48.100526</ele>
        <time>2023-01-07T17:09:52.108Z</time>
      </trkpt>
      <trkpt lat="43.3043" lon="3.4562">
        <ele>48.157252</ele>
        <time>2023-01-07T17:09:54.105Z</time>
      </trkpt>
      <trkpt lat="43.30437" lon="3.45629">
        <ele>48.211787</ele>
        <time>2023-01-07T17:09:56.097Z</time>
      </trkpt>
      <trkpt lat="43.30444" lon="3.45638">
        <ele>48.26822</ele>
        <time>2023-01-07T17:09:58.104Z</time>
      </trkpt>
      <trkpt lat="43.30451" lon="3.45647">
        <ele>48.325836</ele>
        <time>2023-01-07T17:10:00.107Z</time>
      </trkpt>
      <trkpt lat="43.30458" lon="3.45657">
        <ele>48.386728</ele>
        <time>2023-01-07T17:10:02.103Z</time>
      </trkpt>
      <trkpt lat="43.30464" lon="3.45667">
        <ele>48.443488</ele>
        <time>2023-01-07T17:10:04.096Z</time>
      </trkpt>
      <trkpt lat="43.3047" lon="3.45677">
        <ele>48.500354</ele>
        <time>2023-01-07T17:10:06.108Z</time>
      </trkpt>
      <trkpt lat="43.30476" lon="3.45687">
        <ele>48.556008</ele>
        <time>2023-01-07T17:10:08.099Z</time>
      </trkpt>
      <trkpt lat="43.30482" lon="3.45697">
        <ele>48.611114</ele>
        <time>2023-01-07T17:10:10.104Z</time>
      </trkpt>
      <trkpt lat="43.30488" lon="3.45706">
        <ele>48.664268</ele>
        <time>2023-01-07T17:10:12.108Z</time>
      </trkpt>
      <trkpt lat="43.30493" lon="3.45716">
        <ele>48.718518</ele>
        <time>2023-01-07T17:10:14.114Z</time>
      </trkpt>
      <trkpt lat="43.30499" lon="3.45726">
        <ele>48.774185</ele>
        <time>2023-01-07T17:10:16.096Z</time>
      </trkpt>
      <trkpt lat="43.30504" lon="3.45737">
        <ele>48.830213</ele>
        <time>2023-01-07T17:10:18.098Z</time>
      </trkpt>
      <trkpt lat="43.3051" lon="3.45747">
        <ele>48.885565</ele>
        <time>2023-01-07T17:10:20.105Z</time>
      </trkpt>
      <trkpt lat="43.30516" lon="3.45757">
        <ele>48.941597</ele>
        <time>2023-01-07T17:10:22.099Z</time>
      </trkpt>
      <trkpt lat="43.30522" lon="3.45767">
        <ele>48.997322</ele>
        <time>2023-01-07T17:10:24.105Z</time>
      </trkpt>
      <trkpt lat="43.30528" lon="3.45777">
        <ele>49.052629</ele>
        <time>2023-01-07T17:10:26.112Z</time>
      </trkpt>
      <trkpt lat="43.30533" lon="3.45787">
        <ele>49.095318</ele>
        <time>2023-01-07T17:10:28.106Z</time>
      </trkpt>
      <trkpt lat="43.30539" lon="3.45798">
        <ele>49.106159</ele>
        <time>2023-01-07T17:10:30.106Z</time>
      </trkpt>
      <trkpt lat="43.30546" lon="3.45809">
        <ele>49.117066</ele>
        <time>2023-01-07T17:10:32.094Z</time>
      </trkpt>
      <trkpt lat="43.30552" lon="3.4582">
        <ele>49.127907</ele>
        <time>2023-01-07T17:10:34.097Z</time>
      </trkpt>
      <trkpt lat="43.30558" lon="3.45832">
        <ele>49.139194</ele>
        <time>2023-01-07T17:10:36.109Z</time>
      </trkpt>
      <trkpt lat="43.30564" lon="3.45842">
        <ele>49.150017</ele>
        <time>2023-01-07T17:10:38.096Z</time>
      </trkpt>
      <trkpt lat="43.3057" lon="3.45853">
        <ele>49.161181</ele>
        <time>2023-01-07T17:10:40.097Z</time>
      </trkpt>
      <trkpt lat="43.30576" lon="3.45865">
        <ele>49.172411</ele>
        <time>2023-01-07T17:10:42.104Z</time>
      </trkpt>
      <trkpt lat="43.30582" lon="3.45876">
        <ele>49.183506</ele>
        <time>2023-01-07T17:10:44.106Z</time>
      </trkpt>
      <trkpt lat="43.30588" lon="3.45887">
        <ele>49.194159</ele>
        <time>2023-01-07T17:10:46.097Z</time>
      </trkpt>
      <trkpt lat="43.30594" lon="3.45898">
        <ele>49.205127</ele>
        <time>2023-01-07T17:10:48.111Z</time>
      </trkpt>
      <trkpt lat="43.30601" lon="3.4591">
        <ele>49.216224</ele>
        <time>2023-01-07T17:10:50.095Z</time>
      </trkpt>
      <trkpt lat="43.30607" lon="3.4592">
        <ele>49.226882</ele>
        <time>2023-01-07T17:10:52.110Z</time>
      </trkpt>
      <trkpt lat="43.30613" lon="3.45931">
        <ele>49.237977</ele>
        <time>2023-01-07T17:10:54.109Z</time>
      </trkpt>
      <trkpt lat="43.30619" lon="3.45942">
        <ele>49.248702</ele>
        <time>2023-01-07T17:10:56.108Z</time>
      </trkpt>
      <trkpt lat="43.30625" lon="3.45952">
        <ele>49.259193</ele>
        <time>2023-01-07T17:10:58.096Z</time>
      </trkpt>
      <trkpt lat="43.30632" lon="3.45963">
        <ele>49.270064</ele>
        <time>2023-01-07T17:11:00.108Z</time>
      </trkpt>
      <trkpt lat="43.30638" lon="3.45974">
        <ele>49.281109</ele>
        <time>2023-01-07T17:11:02.109Z</time>
      </trkpt>
      <trkpt lat="43.30644" lon="3.45984">
        <ele>49.274681</ele>
        <time>2023-01-07T17:11:04.104Z</time>
      </trkpt>
      <trkpt lat="43.30651" lon="3.45994">
        <ele>49.245505</ele>
        <time>2023-01-07T17:11:06.111Z</time>
      </trkpt>
      <trkpt lat="43.30657" lon="3.46004">
        <ele>49.216327</ele>
        <time>2023-01-07T17:11:08.101Z</time>
      </trkpt>
      <trkpt lat="43.30664" lon="3.46014">
        <ele>49.186512</ele>
        <time>2023-01-07T17:11:10.123Z</time>
      </trkpt>
      <trkpt lat="43.30671" lon="3.46024">
        <ele>49.155966</ele>
        <time>2023-01-07T17:11:12.103Z</time>
      </trkpt>
      <trkpt lat="43.30678" lon="3.46034">
        <ele>49.126516</ele>
        <time>2023-01-07T17:11:14.100Z</time>
      </trkpt>
      <trkpt lat="43.30684" lon="3.46044">
        <ele>49.098033</ele>
        <time>2023-01-07T17:11:16.102Z</time>
      </trkpt>
      <trkpt lat="43.30691" lon="3.46053">
        <ele>49.068858</ele>
        <time>2023-01-07T17:11:18.099Z</time>
      </trkpt>
      <trkpt lat="43.30696" lon="3.46063">
        <ele>49.041528</ele>
        <time>2023-01-07T17:11:20.109Z</time>
      </trkpt>
      <trkpt lat="43.30703" lon="3.46072">
        <ele>49.012979</ele>
        <time>2023-01-07T17:11:22.114Z</time>
      </trkpt>
      <trkpt lat="43.30709" lon="3.46081">
        <ele>48.98527</ele>
        <time>2023-01-07T17:11:24.107Z</time>
      </trkpt>
      <trkpt lat="43.30716" lon="3.46091">
        <ele>48.955293</ele>
        <time>2023-01-07T17:11:26.096Z</time>
      </trkpt>
      <trkpt lat="43.30722" lon="3.46101">
        <ele>48.928094</ele>
        <time>2023-01-07T17:11:28.107Z</time>
      </trkpt>
      <trkpt lat="43.30728" lon="3.4611">
        <ele>48.899811</ele>
        <time>2023-01-07T17:11:30.106Z</time>
      </trkpt>
      <trkpt lat="43.30734" lon="3.4612">
        <ele>48.871552</ele>
        <time>2023-01-07T17:11:32.110Z</time>
      </trkpt>
      <trkpt lat="43.30741" lon="3.4613">
        <ele>48.841275</ele>
        <time>2023-01-07T17:11:34.106Z</time>
      </trkpt>
      <trkpt lat="43.30748" lon="3.46141">
        <ele>48.810365</ele>
        <time>2023-01-07T17:11:36.100Z</time>
      </trkpt>
      <trkpt lat="43.30754" lon="3.46152">
        <ele>48.779766</ele>
        <time>2023-01-07T17:11:38.099Z</time>
      </trkpt>
      <trkpt lat="43.30762" lon="3.46161">
        <ele>48.748852</ele>
        <time>2023-01-07T17:11:40.100Z</time>
      </trkpt>
      <trkpt lat="43.30769" lon="3.46172">
        <ele>48.748607</ele>
        <time>2023-01-07T17:11:42.112Z</time>
      </trkpt>
      <trkpt lat="43.30776" lon="3.46182">
        <ele>48.752417</ele>
        <time>2023-01-07T17:11:44.101Z</time>
      </trkpt>
      <trkpt lat="43.30782" lon="3.46192">
        <ele>48.756257</ele>
        <time>2023-01-07T17:11:46.110Z</time>
      </trkpt>
      <trkpt lat="43.30789" lon="3.46202">
        <ele>48.759954</ele>
        <time>2023-01-07T17:11:48.105Z</time>
      </trkpt>
      <trkpt lat="43.30796" lon="3.46212">
        <ele>48.763712</ele>
        <time>2023-01-07T17:11:50.101Z</time>
      </trkpt>
      <trkpt lat="43.30802" lon="3.46222">
        <ele>48.767665</ele>
        <time>2023-01-07T17:11:52.110Z</time>
      </trkpt>
      <trkpt lat="43.30812" lon="3.46235">
        <ele>48.772719</ele>
        <time>2023-01-07T17:11:55.101Z</time>
      </trkpt>
      <trkpt lat="43.30818" lon="3.46246">
        <ele>48.776529</ele>
        <time>2023-01-07T17:11:57.107Z</time>
      </trkpt>
      <trkpt lat="43.30824" lon="3.46255">
        <ele>48.779976</ele>
        <time>2023-01-07T17:11:59.111Z</time>
      </trkpt>
      <trkpt lat="43.30832" lon="3.46268">
        <ele>48.78472</ele>
        <time>2023-01-07T17:12:02.105Z</time>
      </trkpt>
      <trkpt lat="43.30841" lon="3.46281">
        <ele>48.789581</ele>
        <time>2023-01-07T17:12:05.103Z</time>
      </trkpt>
      <trkpt lat="43.30847" lon="3.4629">
        <ele>48.793144</ele>
        <time>2023-01-07T17:12:07.099Z</time>
      </trkpt>
      <trkpt lat="43.30854" lon="3.46299">
        <ele>48.796735</ele>
        <time>2023-01-07T17:12:09.105Z</time>
      </trkpt>
      <trkpt lat="43.30861" lon="3.46308">
        <ele>48.80034</ele>
        <time>2023-01-07T17:12:11.105Z</time>
      </trkpt>
      <trkpt lat="43.30867" lon="3.46318">
        <ele>48.803979</ele>
        <time>2023-01-07T17:12:13.097Z</time>
      </trkpt>
      <trkpt lat="43.30874" lon="3.46327">
        <ele>48.807523</ele>
        <time>2023-01-07T17:12:15.117Z</time>
      </trkpt>
      <trkpt lat="43.3088" lon="3.46336">
        <ele>48.811075</ele>
        <time>2023-01-07T17:12:17.114Z</time>
      </trkpt>
      <trkpt lat="43.30887" lon="3.46344">
        <ele>48.816673</ele>
        <time>2023-01-07T17:12:19.116Z</time>
      </trkpt>
      <trkpt lat="43.30895" lon="3.46352">
        <ele>48.828782</ele>
        <time>2023-01-07T17:12:21.097Z</time>
      </trkpt>
      <trkpt lat="43.30903" lon="3.46359">
        <ele>48.840473</ele>
        <time>2023-01-07T17:12:23.098Z</time>
      </trkpt>
      <trkpt lat="43.30911" lon="3.46366">
        <ele>48.852803</ele>
        <time>2023-01-07T17:12:25.109Z</time>
      </trkpt>
      <trkpt lat="43.3092" lon="3.46372">
        <ele>48.86523</ele>
        <time>2023-01-07T17:12:27.101Z</time>
      </trkpt>
      <trkpt lat="43.30929" lon="3.46377">
        <ele>48.876999</ele>
        <time>2023-01-07T17:12:29.100Z</time>
      </trkpt>
      <trkpt lat="43.30938" lon="3.46382">
        <ele>48.88959</ele>
        <time>2023-01-07T17:12:31.111Z</time>
      </trkpt>
      <trkpt lat="43.30947" lon="3.46387">
        <ele>48.901074</ele>
        <time>2023-01-07T17:12:33.110Z</time>
      </trkpt>
      <trkpt lat="43.30956" lon="3.4639">
        <ele>48.912729</ele>
        <time>2023-01-07T17:12:35.103Z</time>
      </trkpt>
      <trkpt lat="43.30965" lon="3.46392">
        <ele>48.924752</ele>
        <time>2023-01-07T17:12:37.112Z</time>
      </trkpt>
      <trkpt lat="43.30974" lon="3.46394">
        <ele>48.936558</ele>
        <time>2023-01-07T17:12:39.099Z</time>
      </trkpt>
      <trkpt lat="43.30983" lon="3.46395">
        <ele>48.948202</ele>
        <time>2023-01-07T17:12:41.099Z</time>
      </trkpt>
      <trkpt lat="43.30992" lon="3.46397">
        <ele>48.959519</ele>
        <time>2023-01-07T17:12:43.100Z</time>
      </trkpt>
      <trkpt lat="43.31004" lon="3.464">
        <ele>48.974757</ele>
        <time>2023-01-07T17:12:46.095Z</time>
      </trkpt>
      <trkpt lat="43.31015" lon="3.46402">
        <ele>48.98866</ele>
        <time>2023-01-07T17:12:49.105Z</time>
      </trkpt>
      <trkpt lat="43.31026" lon="3.46405">
        <ele>49.002876</ele>
        <time>2023-01-07T17:12:52.110Z</time>
      </trkpt>
      <trkpt lat="43.31038" lon="3.46409">
        <ele>49.01869</ele>
        <time>2023-01-07T17:12:55.107Z</time>
      </trkpt>
      <trkpt lat="43.3105" lon="3.46414">
        <ele>49.034276</ele>
        <time>2023-01-07T17:12:58.096Z</time>
      </trkpt>
      <trkpt lat="43.31062" lon="3.4642">
        <ele>49.021862</ele>
        <time>2023-01-07T17:13:01.097Z</time>
      </trkpt>
      <trkpt lat="43.31073" lon="3.46427">
        <ele>48.990518</ele>
        <time>2023-01-07T17:13:04.095Z</time>
      </trkpt>
      <trkpt lat="43.31083" lon="3.46433">
        <ele>48.961992</ele>
        <time>2023-01-07T17:13:07.111Z</time>
      </trkpt>
      <trkpt lat="43.31094" lon="3.46439">
        <ele>48.931447</ele>
        <time>2023-01-07T17:13:10.114Z</time>
      </trkpt>
      <trkpt lat="43.31105" lon="3.46446">
        <ele>48.901907</ele>
        <time>2023-01-07T17:13:13.101Z</time>
      </trkpt>
      <trkpt lat="43.31112" lon="3.46454">
        <ele>48.877688</ele>
        <time>2023-01-07T17:13:16.111Z</time>
      </trkpt>
      <trkpt lat="43.31121" lon="3.46459">
        <ele>48.852618</ele>
        <time>2023-01-07T17:13:19.110Z</time>
      </trkpt>
      <trkpt lat="43.31131" lon="3.46461">
        <ele>48.827697</ele>
        <time>2023-01-07T17:13:22.124Z</time>
      </trkpt>
      <trkpt lat="43.31139" lon="3.46466">
        <ele>48.804324</ele>
        <time>2023-01-07T17:13:25.109Z</time>
      </trkpt>
      <trkpt lat="43.31148" lon="3.46472">
        <ele>48.780397</ele>
        <time>2023-01-07T17:13:28.108Z</time>
      </trkpt>
      <trkpt lat="43.31156" lon="3.46478">
        <ele>48.756644</ele>
        <time>2023-01-07T17:13:31.095Z</time>
      </trkpt>
      <trkpt lat="43.31167" lon="3.46485">
        <ele>48.725631</ele>
        <time>2023-01-07T17:13:35.097Z</time>
      </trkpt>
      <trkpt lat="43.31175" lon="3.4649">
        <ele>48.702105</ele>
        <time>2023-01-07T17:13:38.119Z</time>
      </trkpt>
      <trkpt lat="43.31184" lon="3.46497">
        <ele>48.67662</ele>
        <time>2023-01-07T17:13:41.096Z</time>
      </trkpt>
      <trkpt lat="43.31192" lon="3.46504">
        <ele>48.652021</ele>
        <time>2023-01-07T17:13:44.119Z</time>
      </trkpt>
      <trkpt lat="43.31202" lon="3.46512">
        <ele>48.622944</ele>
        <time>2023-01-07T17:13:48.101Z</time>
      </trkpt>
      <trkpt lat="43.31212" lon="3.4652">
        <ele>48.592584</ele>
        <time>2023-01-07T17:13:52.107Z</time>
      </trkpt>
      <trkpt lat="43.31221" lon="3.46527">
        <ele>48.635039</ele>
        <time>2023-01-07T17:13:55.109Z</time>
      </trkpt>
      <trkpt lat="43.31231" lon="3.46533">
        <ele>48.727709</ele>
        <time>2023-01-07T17:13:58.104Z</time>
      </trkpt>
      <trkpt lat="43.31241" lon="3.46542">
        <ele>48.829305</ele>
        <time>2023-01-07T17:14:01.112Z</time>
      </trkpt>
      <trkpt lat="43.3125" lon="3.46553">
        <ele>48.935003</ele>
        <time>2023-01-07T17:14:04.102Z</time>
      </trkpt>
      <trkpt lat="43.3126" lon="3.46563">
        <ele>49.04001</ele>
        <time>2023-01-07T17:14:07.108Z</time>
      </trkpt>
      <trkpt lat="43.31269" lon="3.46574">
        <ele>49.147819</ele>
        <time>2023-01-07T17:14:10.112Z</time>
      </trkpt>
      <trkpt lat="43.31279" lon="3.46585">
        <ele>49.257631</ele>
        <time>2023-01-07T17:14:13.115Z</time>
      </trkpt>
      <trkpt lat="43.31289" lon="3.46595">
        <ele>49.361741</ele>
        <time>2023-01-07T17:14:16.097Z</time>
      </trkpt>
      <trkpt lat="43.31299" lon="3.46605">
        <ele>49.471897</ele>
        <time>2023-01-07T17:14:19.108Z</time>
      </trkpt>
      <trkpt lat="43.31308" lon="3.46615">
        <ele>49.572147</ele>
        <time>2023-01-07T17:14:22.101Z</time>
      </trkpt>
      <trkpt lat="43.31316" lon="3.46622">
        <ele>49.654091</ele>
        <time>2023-01-07T17:14:25.122Z</time>
      </trkpt>
      <trkpt lat="43.31323" lon="3.46631">
        <ele>49.739432</ele>
        <time>2023-01-07T17:14:29.117Z</time>
      </trkpt>
      <trkpt lat="43.31333" lon="3.46639">
        <ele>49.833135</ele>
        <time>2023-01-07T17:14:33.107Z</time>
      </trkpt>
      <trkpt lat="43.31343" lon="3.46647">
        <ele>49.940938</ele>
        <time>2023-01-07T17:14:36.105Z</time>
      </trkpt>
      <trkpt lat="43.31354" lon="3.46658">
        <ele>50.055749</ele>
        <time>2023-01-07T17:14:39.107Z</time>
      </trkpt>
      <trkpt lat="43.31364" lon="3.46669">
        <ele>50.158899</ele>
        <time>2023-01-07T17:14:42.098Z</time>
      </trkpt>
      <trkpt lat="43.31373" lon="3.46678">
        <ele>50.238228</ele>
        <time>2023-01-07T17:14:45.109Z</time>
      </trkpt>
      <trkpt lat="43.31383" lon="3.46686">
        <ele>50.314336</ele>
        <time>2023-01-07T17:14:48.106Z</time>
      </trkpt>
      <trkpt lat="43.31392" lon="3.46695">
        <ele>50.389122</ele>
        <time>2023-01-07T17:14:51.105Z</time>
      </trkpt>
      <trkpt lat="43.31401" lon="3.46707">
        <ele>50.474376</ele>
        <time>2023-01-07T17:14:54.103Z</time>
      </trkpt>
      <trkpt lat="43.3141" lon="3.4672">
        <ele>50.561747</ele>
        <time>2023-01-07T17:14:57.111Z</time>
      </trkpt>
      <trkpt lat="43.31419" lon="3.46732">
        <ele>50.645028</ele>
        <time>2023-01-07T17:15:00.117Z</time>
      </trkpt>
      <trkpt lat="43.31428" lon="3.46743">
        <ele>50.725515</ele>
        <time>2023-01-07T17:15:03.114Z</time>
      </trkpt>
      <trkpt lat="43.31436" lon="3.46753">
        <ele>50.795669</ele>
        <time>2023-01-07T17:15:06.108Z</time>
      </trkpt>
      <trkpt lat="43.31444" lon="3.46762">
        <ele>50.863422</ele>
        <time>2023-01-07T17:15:09.106Z</time>
      </trkpt>
      <trkpt lat="43.31452" lon="3.46771">
        <ele>50.934078</ele>
        <time>2023-01-07T17:15:12.119Z</time>
      </trkpt>
      <trkpt lat="43.31461" lon="3.4678">
        <ele>51.005734</ele>
        <time>2023-01-07T17:15:15.121Z</time>
      </trkpt>
      <trkpt lat="43.31469" lon="3.46788">
        <ele>51.075496</ele>
        <time>2023-01-07T17:15:18.106Z</time>
      </trkpt>
      <trkpt lat="43.31477" lon="3.46797">
        <ele>51.146153</ele>
        <time>2023-01-07T17:15:21.112Z</time>
      </trkpt>
      <trkpt lat="43.31486" lon="3.46805">
        <ele>51.217492</ele>
        <time>2023-01-07T17:15:24.100Z</time>
      </trkpt>
      <trkpt lat="43.31494" lon="3.46814">
        <ele>51.283123</ele>
        <time>2023-01-07T17:15:27.117Z</time>
      </trkpt>
      <trkpt lat="43.315" lon="3.46822">
        <ele>51.343503</ele>
        <time>2023-01-07T17:15:38.096Z</time>
      </trkpt>
      <trkpt lat="43.31508" lon="3.46833">
        <ele>51.342851</ele>
        <time>2023-01-07T17:16:04.115Z</time>
      </trkpt>
      <trkpt lat="43.31514" lon="3.46846">
        <ele>51.340698</ele>
        <time>2023-01-07T17:16:09.109Z</time>
      </trkpt>
      <trkpt lat="43.31516" lon="3.46861">
        <ele>51.338543</ele>
        <time>2023-01-07T17:16:13.102Z</time>
      </trkpt>
      <trkpt lat="43.31512" lon="3.46876">
        <ele>51.336377</ele>
        <time>2023-01-07T17:16:17.110Z</time>
      </trkpt>
      <trkpt lat="43.31507" lon="3.46889">
        <ele>51.334263</ele>
        <time>2023-01-07T17:16:21.108Z</time>
      </trkpt>
      <trkpt lat="43.31502" lon="3.46902">
        <ele>51.332157</ele>
        <time>2023-01-07T17:16:25.101Z</time>
      </trkpt>
      <trkpt lat="43.31497" lon="3.46916">
        <ele>51.330098</ele>
        <time>2023-01-07T17:16:29.111Z</time>
      </trkpt>
      <trkpt lat="43.31492" lon="3.4693">
        <ele>51.327923</ele>
        <time>2023-01-07T17:16:33.104Z</time>
      </trkpt>
      <trkpt lat="43.31488" lon="3.46941">
        <ele>51.326123</ele>
        <time>2023-01-07T17:16:36.100Z</time>
      </trkpt>
      <trkpt lat="43.31483" lon="3.46953">
        <ele>51.324289</ele>
        <time>2023-01-07T17:16:39.107Z</time>
      </trkpt>
      <trkpt lat="43.31479" lon="3.46965">
        <ele>51.322343</ele>
        <time>2023-01-07T17:16:42.102Z</time>
      </trkpt>
      <trkpt lat="43.31475" lon="3.46979">
        <ele>51.320301</ele>
        <time>2023-01-07T17:16:45.110Z</time>
      </trkpt>
      <trkpt lat="43.31475" lon="3.46994">
        <ele>51.318171</ele>
        <time>2023-01-07T17:16:48.103Z</time>
      </trkpt>
      <trkpt lat="43.31479" lon="3.47006">
        <ele>51.31642</ele>
        <time>2023-01-07T17:16:50.101Z</time>
      </trkpt>
      <trkpt lat="43.31485" lon="3.47017">
        <ele>51.314573</ele>
        <time>2023-01-07T17:16:52.101Z</time>
      </trkpt>
      <trkpt lat="43.31492" lon="3.47028">
        <ele>51.312379</ele>
        <time>2023-01-07T17:16:54.107Z</time>
      </trkpt>
      <trkpt lat="43.31499" lon="3.4704">
        <ele>51.3148</ele>
        <time>2023-01-07T17:16:56.102Z</time>
      </trkpt>
      <trkpt lat="43.31506" lon="3.47051">
        <ele>51.430047</ele>
        <time>2023-01-07T17:16:58.101Z</time>
      </trkpt>
      <trkpt lat="43.31512" lon="3.47061">
        <ele>51.529402</ele>
        <time>2023-01-07T17:17:00.105Z</time>
      </trkpt>
      <trkpt lat="43.3152" lon="3.47073">
        <ele>51.649342</ele>
        <time>2023-01-07T17:17:03.099Z</time>
      </trkpt>
      <trkpt lat="43.31517" lon="3.47087">
        <ele>51.76577</ele>
        <time>2023-01-07T17:17:07.111Z</time>
      </trkpt>
      <trkpt lat="43.3151" lon="3.47099">
        <ele>51.88241</ele>
        <time>2023-01-07T17:17:13.104Z</time>
      </trkpt>
      <trkpt lat="43.31508" lon="3.47113">
        <ele>51.987892</ele>
        <time>2023-01-07T17:17:17.109Z</time>
      </trkpt>
      <trkpt lat="43.31508" lon="3.47129">
        <ele>52.109733</ele>
        <time>2023-01-07T17:17:21.107Z</time>
      </trkpt>
      <trkpt lat="43.31507" lon="3.47142">
        <ele>52.211967</ele>
        <time>2023-01-07T17:17:24.115Z</time>
      </trkpt>
      <trkpt lat="43.31498" lon="3.47153">
        <ele>52.337777</ele>
        <time>2023-01-07T17:17:28.113Z</time>
      </trkpt>
      <trkpt lat="43.3149" lon="3.47159">
        <ele>52.441061</ele>
        <time>2023-01-07T17:17:31.110Z</time>
      </trkpt>
      <trkpt lat="43.3148" lon="3.47168">
        <ele>52.566015</ele>
        <time>2023-01-07T17:17:35.099Z</time>
      </trkpt>
      <trkpt lat="43.31469" lon="3.47177">
        <ele>52.697574</ele>
        <time>2023-01-07T17:17:39.117Z</time>
      </trkpt>
      <trkpt lat="43.31461" lon="3.47186">
        <ele>52.807362</ele>
        <time>2023-01-07T17:17:42.110Z</time>
      </trkpt>
      <trkpt lat="43.31451" lon="3.47194">
        <ele>52.931686</ele>
        <time>2023-01-07T17:17:45.119Z</time>
      </trkpt>
      <trkpt lat="43.31441" lon="3.472">
        <ele>53.053778</ele>
        <time>2023-01-07T17:17:48.104Z</time>
      </trkpt>
      <trkpt lat="43.31429" lon="3.47203">
        <ele>53.175175</ele>
        <time>2023-01-07T17:17:51.105Z</time>
      </trkpt>
      <trkpt lat="43.31418" lon="3.47205">
        <ele>53.431295</ele>
        <time>2023-01-07T17:17:54.107Z</time>
      </trkpt>
      <trkpt lat="43.31405" lon="3.47209">
        <ele>53.801788</ele>
        <time>2023-01-07T17:17:57.106Z</time>
      </trkpt>
      <trkpt lat="43.31393" lon="3.47212">
        <ele>54.152426</ele>
        <time>2023-01-07T17:18:00.101Z</time>
      </trkpt>
      <trkpt lat="43.31381" lon="3.47215">
        <ele>54.486766</ele>
        <time>2023-01-07T17:18:03.098Z</time>
      </trkpt>
      <trkpt lat="43.31371" lon="3.47218">
        <ele>54.78411</ele>
        <time>2023-01-07T17:18:06.108Z</time>
      </trkpt>
      <trkpt lat="43.31361" lon="3.47218">
        <ele>55.064875</ele>
        <time>2023-01-07T17:18:09.107Z</time>
      </trkpt>
      <trkpt lat="43.31351" lon="3.47215">
        <ele>55.35475</ele>
        <time>2023-01-07T17:18:12.098Z</time>
      </trkpt>
      <trkpt lat="43.3134" lon="3.47218">
        <ele>55.68092</ele>
        <time>2023-01-07T17:18:16.096Z</time>
      </trkpt>
      <trkpt lat="43.31335" lon="3.47228">
        <ele>55.937922</ele>
        <time>2023-01-07T17:18:19.105Z</time>
      </trkpt>
      <trkpt lat="43.31329" lon="3.4724">
        <ele>56.221725</ele>
        <time>2023-01-07T17:18:22.099Z</time>
      </trkpt>
      <trkpt lat="43.31322" lon="3.4725">
        <ele>56.509582</ele>
        <time>2023-01-07T17:18:25.107Z</time>
      </trkpt>
      <trkpt lat="43.31317" lon="3.47262">
        <ele>56.808406</ele>
        <time>2023-01-07T17:18:28.101Z</time>
      </trkpt>
      <trkpt lat="43.31311" lon="3.47275">
        <ele>57.111325</ele>
        <time>2023-01-07T17:18:31.118Z</time>
      </trkpt>
      <trkpt lat="43.31306" lon="3.47289">
        <ele>57.433109</ele>
        <time>2023-01-07T17:18:34.112Z</time>
      </trkpt>
      <trkpt lat="43.31302" lon="3.47302">
        <ele>57.739432</ele>
        <time>2023-01-07T17:18:37.125Z</time>
      </trkpt>
      <trkpt lat="43.31297" lon="3.47316">
        <ele>58.056953</ele>
        <time>2023-01-07T17:18:40.109Z</time>
      </trkpt>
      <trkpt lat="43.31291" lon="3.47331">
        <ele>58.345098</ele>
        <time>2023-01-07T17:18:43.113Z</time>
      </trkpt>
      <trkpt lat="43.31287" lon="3.47342">
        <ele>58.439927</ele>
        <time>2023-01-07T17:18:45.114Z</time>
      </trkpt>
      <trkpt lat="43.31283" lon="3.47355">
        <ele>58.547177</ele>
        <time>2023-01-07T17:18:48.116Z</time>
      </trkpt>
      <trkpt lat="43.31277" lon="3.47368">
        <ele>58.662652</ele>
        <time>2023-01-07T17:18:51.103Z</time>
      </trkpt>
      <trkpt lat="43.31272" lon="3.47381">
        <ele>58.773517</ele>
        <time>2023-01-07T17:18:54.117Z</time>
      </trkpt>
      <trkpt lat="43.31267" lon="3.47395">
        <ele>58.888895</ele>
        <time>2023-01-07T17:18:57.125Z</time>
      </trkpt>
      <trkpt lat="43.31262" lon="3.47409">
        <ele>59.008004</ele>
        <time>2023-01-07T17:19:00.105Z</time>
      </trkpt>
      <trkpt lat="43.31256" lon="3.47424">
        <ele>59.136729</ele>
        <time>2023-01-07T17:19:03.111Z</time>
      </trkpt>
      <trkpt lat="43.31251" lon="3.47438">
        <ele>59.255807</ele>
        <time>2023-01-07T17:19:06.113Z</time>
      </trkpt>
      <trkpt lat="43.31245" lon="3.47452">
        <ele>59.374796</ele>
        <time>2023-01-07T17:19:09.106Z</time>
      </trkpt>
      <trkpt lat="43.31239" lon="3.47467">
        <ele>59.502335</ele>
        <time>2023-01-07T17:19:12.114Z</time>
      </trkpt>
      <trkpt lat="43.31234" lon="3.47482">
        <ele>59.628993</ele>
        <time>2023-01-07T17:19:15.100Z</time>
      </trkpt>
      <trkpt lat="43.31229" lon="3.47496">
        <ele>59.74551</ele>
        <time>2023-01-07T17:19:18.096Z</time>
      </trkpt>
      <trkpt lat="43.31224" lon="3.4751">
        <ele>59.865394</ele>
        <time>2023-01-07T17:19:21.108Z</time>
      </trkpt>
      <trkpt lat="43.31219" lon="3.47523">
        <ele>59.972209</ele>
        <time>2023-01-07T17:19:24.104Z</time>
      </trkpt>
      <trkpt lat="43.31214" lon="3.47537">
        <ele>60.091319</ele>
        <time>2023-01-07T17:19:27.110Z</time>
      </trkpt>
      <trkpt lat="43.31208" lon="3.4755">
        <ele>60.194334</ele>
        <time>2023-01-07T17:19:30.107Z</time>
      </trkpt>
      <trkpt lat="43.31202" lon="3.47564">
        <ele>60.251877</ele>
        <time>2023-01-07T17:19:33.102Z</time>
      </trkpt>
      <trkpt lat="43.31196" lon="3.47576">
        <ele>60.305618</ele>
        <time>2023-01-07T17:19:36.100Z</time>
      </trkpt>
      <trkpt lat="43.31191" lon="3.47589">
        <ele>60.357583</ele>
        <time>2023-01-07T17:19:39.112Z</time>
      </trkpt>
      <trkpt lat="43.31185" lon="3.47602">
        <ele>60.412306</ele>
        <time>2023-01-07T17:19:42.113Z</time>
      </trkpt>
      <trkpt lat="43.3118" lon="3.47614">
        <ele>60.466148</ele>
        <time>2023-01-07T17:19:45.102Z</time>
      </trkpt>
      <trkpt lat="43.31175" lon="3.47628">
        <ele>60.520917</ele>
        <time>2023-01-07T17:19:48.103Z</time>
      </trkpt>
      <trkpt lat="43.31169" lon="3.47641">
        <ele>60.578659</ele>
        <time>2023-01-07T17:19:51.113Z</time>
      </trkpt>
      <trkpt lat="43.31163" lon="3.47656">
        <ele>60.639342</ele>
        <time>2023-01-07T17:19:54.111Z</time>
      </trkpt>
      <trkpt lat="43.31157" lon="3.4767">
        <ele>60.700298</ele>
        <time>2023-01-07T17:19:57.118Z</time>
      </trkpt>
      <trkpt lat="43.31151" lon="3.47685">
        <ele>60.761253</ele>
        <time>2023-01-07T17:20:00.104Z</time>
      </trkpt>
      <trkpt lat="43.31145" lon="3.47697">
        <ele>60.81557</ele>
        <time>2023-01-07T17:20:03.106Z</time>
      </trkpt>
      <trkpt lat="43.31139" lon="3.47708">
        <ele>60.86575</ele>
        <time>2023-01-07T17:20:06.122Z</time>
      </trkpt>
      <trkpt lat="43.31131" lon="3.47719">
        <ele>60.920927</ele>
        <time>2023-01-07T17:20:09.094Z</time>
      </trkpt>
      <trkpt lat="43.31126" lon="3.47732">
        <ele>60.975888</ele>
        <time>2023-01-07T17:20:12.104Z</time>
      </trkpt>
      <trkpt lat="43.31124" lon="3.47746">
        <ele>61.02804</ele>
        <time>2023-01-07T17:20:15.103Z</time>
      </trkpt>
      <trkpt lat="43.31123" lon="3.4776">
        <ele>61.076619</ele>
        <time>2023-01-07T17:20:18.119Z</time>
      </trkpt>
      <trkpt lat="43.31123" lon="3.47776">
        <ele>61.05861</ele>
        <time>2023-01-07T17:20:22.108Z</time>
      </trkpt>
      <trkpt lat="43.31122" lon="3.47788">
        <ele>61.041953</ele>
        <time>2023-01-07T17:20:25.102Z</time>
      </trkpt>
      <trkpt lat="43.31121" lon="3.47802">
        <ele>61.024859</ele>
        <time>2023-01-07T17:20:28.108Z</time>
      </trkpt>
      <trkpt lat="43.31117" lon="3.47814">
        <ele>61.007497</ele>
        <time>2023-01-07T17:20:31.111Z</time>
      </trkpt>
      <trkpt lat="43.3111" lon="3.47823">
        <ele>60.990931</ele>
        <time>2023-01-07T17:20:34.106Z</time>
      </trkpt>
      <trkpt lat="43.31106" lon="3.47838">
        <ele>60.970175</ele>
        <time>2023-01-07T17:20:38.113Z</time>
      </trkpt>
      <trkpt lat="43.31109" lon="3.47851">
        <ele>60.95305</ele>
        <time>2023-01-07T17:20:41.107Z</time>
      </trkpt>
      <trkpt lat="43.3111" lon="3.47866">
        <ele>60.932781</ele>
        <time>2023-01-07T17:20:45.098Z</time>
      </trkpt>
      <trkpt lat="43.31108" lon="3.47879">
        <ele>60.916068</ele>
        <time>2023-01-07T17:20:48.116Z</time>
      </trkpt>
      <trkpt lat="43.31106" lon="3.47892">
        <ele>60.898313</ele>
        <time>2023-01-07T17:20:51.104Z</time>
      </trkpt>
      <trkpt lat="43.31103" lon="3.47906">
        <ele>60.8803</ele>
        <time>2023-01-07T17:20:54.111Z</time>
      </trkpt>
      <trkpt lat="43.31102" lon="3.47919">
        <ele>60.862861</ele>
        <time>2023-01-07T17:20:57.113Z</time>
      </trkpt>
      <trkpt lat="43.311" lon="3.47932">
        <ele>60.846341</ele>
        <time>2023-01-07T17:21:00.105Z</time>
      </trkpt>
      <trkpt lat="43.31098" lon="3.47946">
        <ele>60.827913</ele>
        <time>2023-01-07T17:21:03.109Z</time>
      </trkpt>
      <trkpt lat="43.31096" lon="3.47961">
        <ele>60.808763</ele>
        <time>2023-01-07T17:21:06.105Z</time>
      </trkpt>
      <trkpt lat="43.31094" lon="3.47976">
        <ele>60.789283</ele>
        <time>2023-01-07T17:21:09.106Z</time>
      </trkpt>
      <trkpt lat="43.31092" lon="3.47991">
        <ele>60.76944</ele>
        <time>2023-01-07T17:21:12.117Z</time>
      </trkpt>
      <trkpt lat="43.3109" lon="3.48006">
        <ele>60.844255</ele>
        <time>2023-01-07T17:21:15.108Z</time>
      </trkpt>
      <trkpt lat="43.31088" lon="3.48022">
        <ele>61.000479</ele>
        <time>2023-01-07T17:21:18.111Z</time>
      </trkpt>
      <trkpt lat="43.31086" lon="3.48036">
        <ele>61.139811</ele>
        <time>2023-01-07T17:21:21.117Z</time>
      </trkpt>
      <trkpt lat="43.31084" lon="3.48051">
        <ele>61.277452</ele>
        <time>2023-01-07T17:21:24.117Z</time>
      </trkpt>
      <trkpt lat="43.31083" lon="3.48067">
        <ele>61.430217</ele>
        <time>2023-01-07T17:21:28.119Z</time>
      </trkpt>
      <trkpt lat="43.3108" lon="3.48082">
        <ele>61.577921</ele>
        <time>2023-01-07T17:21:32.104Z</time>
      </trkpt>
      <trkpt lat="43.31078" lon="3.48094">
        <ele>61.699582</ele>
        <time>2023-01-07T17:21:38.119Z</time>
      </trkpt>
      <trkpt lat="43.31079" lon="3.48114">
        <ele>61.889701</ele>
        <time>2023-01-07T17:23:52.119Z</time>
      </trkpt>
      <trkpt lat="43.31077" lon="3.48129">
        <ele>62.040202</ele>
        <time>2023-01-07T17:23:56.097Z</time>
      </trkpt>
      <trkpt lat="43.31075" lon="3.48142">
        <ele>62.170033</ele>
        <time>2023-01-07T17:23:59.113Z</time>
      </trkpt>
      <trkpt lat="43.31073" lon="3.48157">
        <ele>62.310219</ele>
        <time>2023-01-07T17:24:02.098Z</time>
      </trkpt>
      <trkpt lat="43.31071" lon="3.48171">
        <ele>62.452064</ele>
        <time>2023-01-07T17:24:05.101Z</time>
      </trkpt>
      <trkpt lat="43.3107" lon="3.48186">
        <ele>62.591804</ele>
        <time>2023-01-07T17:24:08.101Z</time>
      </trkpt>
      <trkpt lat="43.31068" lon="3.482">
        <ele>62.733233</ele>
        <time>2023-01-07T17:24:11.111Z</time>
      </trkpt>
      <trkpt lat="43.31066" lon="3.48215">
        <ele>62.875079</ele>
        <time>2023-01-07T17:24:14.098Z</time>
      </trkpt>
      <trkpt lat="43.31064" lon="3.4823">
        <ele>63.019775</ele>
        <time>2023-01-07T17:24:17.117Z</time>
      </trkpt>
      <trkpt lat="43.31062" lon="3.48244">
        <ele>63.145431</ele>
        <time>2023-01-07T17:24:20.107Z</time>
      </trkpt>
      <trkpt lat="43.3106" lon="3.48259">
        <ele>63.219684</ele>
        <time>2023-01-07T17:24:23.117Z</time>
      </trkpt>
      <trkpt lat="43.31058" lon="3.48274">
        <ele>63.296636</ele>
        <time>2023-01-07T17:24:26.122Z</time>
      </trkpt>
      <trkpt lat="43.31056" lon="3.48289">
        <ele>63.373703</ele>
        <time>2023-01-07T17:24:29.109Z</time>
      </trkpt>
      <trkpt lat="43.31054" lon="3.48304">
        <ele>63.452375</ele>
        <time>2023-01-07T17:24:32.109Z</time>
      </trkpt>
      <trkpt lat="43.31052" lon="3.4832">
        <ele>63.532038</ele>
        <time>2023-01-07T17:24:35.109Z</time>
      </trkpt>
      <trkpt lat="43.31051" lon="3.48335">
        <ele>63.607501</ele>
        <time>2023-01-07T17:24:38.111Z</time>
      </trkpt>
      <trkpt lat="43.31049" lon="3.48349">
        <ele>63.681101</ele>
        <time>2023-01-07T17:24:41.109Z</time>
      </trkpt>
      <trkpt lat="43.31047" lon="3.48363">
        <ele>63.753841</ele>
        <time>2023-01-07T17:24:44.113Z</time>
      </trkpt>
      <trkpt lat="43.31044" lon="3.48379">
        <ele>63.832554</ele>
        <time>2023-01-07T17:24:47.121Z</time>
      </trkpt>
      <trkpt lat="43.31041" lon="3.48396">
        <ele>63.920553</ele>
        <time>2023-01-07T17:24:50.096Z</time>
      </trkpt>
      <trkpt lat="43.31036" lon="3.48412">
        <ele>64.011371</ele>
        <time>2023-01-07T17:24:53.114Z</time>
      </trkpt>
      <trkpt lat="43.31032" lon="3.48429">
        <ele>64.102183</ele>
        <time>2023-01-07T17:24:56.107Z</time>
      </trkpt>
      <trkpt lat="43.31029" lon="3.48442">
        <ele>64.165832</ele>
        <time>2023-01-07T17:24:58.113Z</time>
      </trkpt>
      <trkpt lat="43.31026" lon="3.48453">
        <ele>64.228259</ele>
        <time>2023-01-07T17:25:00.108Z</time>
      </trkpt>
      <trkpt lat="43.31021" lon="3.4847">
        <ele>64.318778</ele>
        <time>2023-01-07T17:25:03.121Z</time>
      </trkpt>
      <trkpt lat="43.31017" lon="3.48481">
        <ele>64.34685</ele>
        <time>2023-01-07T17:25:05.113Z</time>
      </trkpt>
      <trkpt lat="43.31014" lon="3.48493">
        <ele>64.196282</ele>
        <time>2023-01-07T17:25:07.110Z</time>
      </trkpt>
      <trkpt lat="43.3101" lon="3.48505">
        <ele>64.044308</ele>
        <time>2023-01-07T17:25:09.111Z</time>
      </trkpt>
      <trkpt lat="43.31006" lon="3.48518">
        <ele>63.889929</ele>
        <time>2023-01-07T17:25:11.110Z</time>
      </trkpt>
      <trkpt lat="43.31003" lon="3.4853">
        <ele>63.737091</ele>
        <time>2023-01-07T17:25:13.105Z</time>
      </trkpt>
      <trkpt lat="43.30999" lon="3.48541">
        <ele>63.592094</ele>
        <time>2023-01-07T17:25:15.115Z</time>
      </trkpt>
      <trkpt lat="43.30995" lon="3.48553">
        <ele>63.444576</ele>
        <time>2023-01-07T17:25:17.111Z</time>
      </trkpt>
      <trkpt lat="43.30991" lon="3.48565">
        <ele>63.292997</ele>
        <time>2023-01-07T17:25:19.103Z</time>
      </trkpt>
      <trkpt lat="43.30987" lon="3.48578">
        <ele>63.129784</ele>
        <time>2023-01-07T17:25:21.117Z</time>
      </trkpt>
      <trkpt lat="43.30984" lon="3.48591">
        <ele>62.968367</ele>
        <time>2023-01-07T17:25:23.118Z</time>
      </trkpt>
      <trkpt lat="43.3098" lon="3.48605">
        <ele>62.800987</ele>
        <time>2023-01-07T17:25:25.108Z</time>
      </trkpt>
      <trkpt lat="43.30974" lon="3.48618">
        <ele>62.628673</ele>
        <time>2023-01-07T17:25:27.115Z</time>
      </trkpt>
      <trkpt lat="43.30971" lon="3.4863">
        <ele>62.469885</ele>
        <time>2023-01-07T17:25:29.107Z</time>
      </trkpt>
      <trkpt lat="43.30966" lon="3.48643">
        <ele>62.308955</ele>
        <time>2023-01-07T17:25:31.108Z</time>
      </trkpt>
      <trkpt lat="43.30961" lon="3.48656">
        <ele>62.136399</ele>
        <time>2023-01-07T17:25:33.116Z</time>
      </trkpt>
      <trkpt lat="43.30958" lon="3.4867">
        <ele>61.968425</ele>
        <time>2023-01-07T17:25:35.105Z</time>
      </trkpt>
      <trkpt lat="43.30955" lon="3.48684">
        <ele>61.795219</ele>
        <time>2023-01-07T17:25:37.106Z</time>
      </trkpt>
      <trkpt lat="43.30951" lon="3.48699">
        <ele>61.607754</ele>
        <time>2023-01-07T17:25:39.112Z</time>
      </trkpt>
      <trkpt lat="43.30946" lon="3.48714">
        <ele>61.360234</ele>
        <time>2023-01-07T17:25:41.109Z</time>
      </trkpt>
      <trkpt lat="43.30942" lon="3.48728">
        <ele>61.071704</ele>
        <time>2023-01-07T17:25:43.108Z</time>
      </trkpt>
      <trkpt lat="43.30938" lon="3.48741">
        <ele>60.770861</ele>
        <time>2023-01-07T17:25:45.112Z</time>
      </trkpt>
      <trkpt lat="43.30934" lon="3.48755">
        <ele>60.486903</ele>
        <time>2023-01-07T17:25:47.112Z</time>
      </trkpt>
      <trkpt lat="43.30931" lon="3.48769">
        <ele>60.18611</ele>
        <time>2023-01-07T17:25:49.108Z</time>
      </trkpt>
      <trkpt lat="43.30927" lon="3.48783">
        <ele>59.896478</ele>
        <time>2023-01-07T17:25:51.103Z</time>
      </trkpt>
      <trkpt lat="43.30923" lon="3.48797">
        <ele>59.607023</ele>
        <time>2023-01-07T17:25:53.102Z</time>
      </trkpt>
      <trkpt lat="43.30919" lon="3.48811">
        <ele>59.313843</ele>
        <time>2023-01-07T17:25:55.102Z</time>
      </trkpt>
      <trkpt lat="43.30915" lon="3.48824">
        <ele>59.031518</ele>
        <time>2023-01-07T17:25:57.112Z</time>
      </trkpt>
      <trkpt lat="43.30912" lon="3.48837">
        <ele>58.756806</ele>
        <time>2023-01-07T17:25:59.116Z</time>
      </trkpt>
      <trkpt lat="43.30908" lon="3.48849">
        <ele>58.491147</ele>
        <time>2023-01-07T17:26:01.108Z</time>
      </trkpt>
      <trkpt lat="43.30903" lon="3.48866">
        <ele>58.130114</ele>
        <time>2023-01-07T17:26:04.108Z</time>
      </trkpt>
      <trkpt lat="43.30896" lon="3.4888">
        <ele>57.794816</ele>
        <time>2023-01-07T17:26:07.102Z</time>
      </trkpt>
      <trkpt lat="43.3089" lon="3.48897">
        <ele>57.430609</ele>
        <time>2023-01-07T17:26:10.112Z</time>
      </trkpt>
      <trkpt lat="43.30887" lon="3.48915">
        <ele>57.060121</ele>
        <time>2023-01-07T17:26:13.097Z</time>
      </trkpt>
      <trkpt lat="43.30883" lon="3.48927">
        <ele>56.799151</ele>
        <time>2023-01-07T17:26:15.097Z</time>
      </trkpt>
      <trkpt lat="43.30879" lon="3.48939">
        <ele>56.609039</ele>
        <time>2023-01-07T17:26:17.102Z</time>
      </trkpt>
      <trkpt lat="43.30875" lon="3.48951">
        <ele>56.539619</ele>
        <time>2023-01-07T17:26:19.098Z</time>
      </trkpt>
      <trkpt lat="43.30872" lon="3.48964">
        <ele>56.473498</ele>
        <time>2023-01-07T17:26:21.101Z</time>
      </trkpt>
      <trkpt lat="43.30869" lon="3.48977">
        <ele>56.402359</ele>
        <time>2023-01-07T17:26:23.108Z</time>
      </trkpt>
      <trkpt lat="43.30865" lon="3.4899">
        <ele>56.331662</ele>
        <time>2023-01-07T17:26:25.109Z</time>
      </trkpt>
      <trkpt lat="43.30862" lon="3.49004">
        <ele>56.257899</ele>
        <time>2023-01-07T17:26:27.113Z</time>
      </trkpt>
      <trkpt lat="43.30858" lon="3.49018">
        <ele>56.181022</ele>
        <time>2023-01-07T17:26:29.102Z</time>
      </trkpt>
      <trkpt lat="43.30854" lon="3.49031">
        <ele>56.106931</ele>
        <time>2023-01-07T17:26:31.127Z</time>
      </trkpt>
      <trkpt lat="43.30851" lon="3.49045">
        <ele>56.033636</ele>
        <time>2023-01-07T17:26:33.116Z</time>
      </trkpt>
      <trkpt lat="43.30846" lon="3.49058">
        <ele>55.960872</ele>
        <time>2023-01-07T17:26:35.107Z</time>
      </trkpt>
      <trkpt lat="43.30842" lon="3.49069">
        <ele>55.89342</ele>
        <time>2023-01-07T17:26:37.111Z</time>
      </trkpt>
      <trkpt lat="43.30837" lon="3.49081">
        <ele>55.827647</ele>
        <time>2023-01-07T17:26:39.109Z</time>
      </trkpt>
      <trkpt lat="43.30832" lon="3.49092">
        <ele>55.7606</ele>
        <time>2023-01-07T17:26:41.102Z</time>
      </trkpt>
      <trkpt lat="43.30828" lon="3.49103">
        <ele>55.696459</ele>
        <time>2023-01-07T17:26:43.105Z</time>
      </trkpt>
      <trkpt lat="43.30822" lon="3.49114">
        <ele>55.629216</ele>
        <time>2023-01-07T17:26:45.107Z</time>
      </trkpt>
      <trkpt lat="43.30818" lon="3.49125">
        <ele>55.566128</ele>
        <time>2023-01-07T17:26:47.098Z</time>
      </trkpt>
      <trkpt lat="43.3081" lon="3.49139">
        <ele>55.476692</ele>
        <time>2023-01-07T17:26:50.106Z</time>
      </trkpt>
      <trkpt lat="43.30802" lon="3.49151">
        <ele>55.39129</ele>
        <time>2023-01-07T17:26:53.105Z</time>
      </trkpt>
      <trkpt lat="43.30794" lon="3.49162">
        <ele>55.371062</ele>
        <time>2023-01-07T17:26:56.164Z</time>
      </trkpt>
      <trkpt lat="43.30784" lon="3.49169">
        <ele>55.369184</ele>
        <time>2023-01-07T17:26:59.103Z</time>
      </trkpt>
      <trkpt lat="43.30775" lon="3.49174">
        <ele>55.367449</ele>
        <time>2023-01-07T17:27:02.108Z</time>
      </trkpt>
      <trkpt lat="43.30768" lon="3.49183">
        <ele>55.365635</ele>
        <time>2023-01-07T17:27:05.113Z</time>
      </trkpt>
      <trkpt lat="43.30763" lon="3.49197">
        <ele>55.363585</ele>
        <time>2023-01-07T17:27:08.104Z</time>
      </trkpt>
      <trkpt lat="43.30761" lon="3.49214">
        <ele>55.361431</ele>
        <time>2023-01-07T17:27:11.107Z</time>
      </trkpt>
      <trkpt lat="43.30764" lon="3.49232">
        <ele>55.359019</ele>
        <time>2023-01-07T17:27:14.217Z</time>
      </trkpt>
      <trkpt lat="43.30773" lon="3.49241">
        <ele>55.356991</ele>
        <time>2023-01-07T17:27:16.102Z</time>
      </trkpt>
      <trkpt lat="43.30784" lon="3.49251">
        <ele>55.354675</ele>
        <time>2023-01-07T17:27:19.101Z</time>
      </trkpt>
      <trkpt lat="43.30791" lon="3.49259">
        <ele>55.352999</ele>
        <time>2023-01-07T17:27:21.106Z</time>
      </trkpt>
      <trkpt lat="43.30796" lon="3.49269">
        <ele>55.351298</ele>
        <time>2023-01-07T17:27:23.114Z</time>
      </trkpt>
      <trkpt lat="43.30799" lon="3.49282">
        <ele>55.349545</ele>
        <time>2023-01-07T17:27:25.125Z</time>
      </trkpt>
      <trkpt lat="43.308" lon="3.49297">
        <ele>55.347674</ele>
        <time>2023-01-07T17:27:27.120Z</time>
      </trkpt>
      <trkpt lat="43.30799" lon="3.49311">
        <ele>55.345829</ele>
        <time>2023-01-07T17:27:29.104Z</time>
      </trkpt>
      <trkpt lat="43.30798" lon="3.49323">
        <ele>55.34415</ele>
        <time>2023-01-07T17:27:31.102Z</time>
      </trkpt>
      <trkpt lat="43.30797" lon="3.49337">
        <ele>55.342347</ele>
        <time>2023-01-07T17:27:33.114Z</time>
      </trkpt>
      <trkpt lat="43.30795" lon="3.4935">
        <ele>55.340586</ele>
        <time>2023-01-07T17:27:35.125Z</time>
      </trkpt>
      <trkpt lat="43.30791" lon="3.49364">
        <ele>55.518726</ele>
        <time>2023-01-07T17:27:38.120Z</time>
      </trkpt>
      <trkpt lat="43.30787" lon="3.49377">
        <ele>55.69253</ele>
        <time>2023-01-07T17:27:42.112Z</time>
      </trkpt>
      <trkpt lat="43.30788" lon="3.4939">
        <ele>55.864727</ele>
        <time>2023-01-07T17:29:21.118Z</time>
      </trkpt>
      <trkpt lat="43.30784" lon="3.49404">
        <ele>56.052503</ele>
        <time>2023-01-07T17:29:25.100Z</time>
      </trkpt>
      <trkpt lat="43.30779" lon="3.49419">
        <ele>56.259866</ele>
        <time>2023-01-07T17:29:29.098Z</time>
      </trkpt>
      <trkpt lat="43.30775" lon="3.49434">
        <ele>56.463598</ele>
        <time>2023-01-07T17:29:33.119Z</time>
      </trkpt>
      <trkpt lat="43.30772" lon="3.49447">
        <ele>56.627495</ele>
        <time>2023-01-07T17:29:36.116Z</time>
      </trkpt>
      <trkpt lat="43.30769" lon="3.4946">
        <ele>56.798865</ele>
        <time>2023-01-07T17:29:39.119Z</time>
      </trkpt>
      <trkpt lat="43.30768" lon="3.49473">
        <ele>56.964462</ele>
        <time>2023-01-07T17:29:42.122Z</time>
      </trkpt>
      <trkpt lat="43.30768" lon="3.49493">
        <ele>57.220615</ele>
        <time>2023-01-07T17:29:46.096Z</time>
      </trkpt>
      <trkpt lat="43.30767" lon="3.49506">
        <ele>57.390699</ele>
        <time>2023-01-07T17:29:48.111Z</time>
      </trkpt>
      <trkpt lat="43.30763" lon="3.49518">
        <ele>57.553805</ele>
        <time>2023-01-07T17:29:51.106Z</time>
      </trkpt>
      <trkpt lat="43.30753" lon="3.49526">
        <ele>57.752857</ele>
        <time>2023-01-07T17:29:55.102Z</time>
      </trkpt>
      <trkpt lat="43.30746" lon="3.49535">
        <ele>57.915569</ele>
        <time>2023-01-07T17:29:58.102Z</time>
      </trkpt>
      <trkpt lat="43.30742" lon="3.49547">
        <ele>58.087066</ele>
        <time>2023-01-07T17:30:01.116Z</time>
      </trkpt>
      <trkpt lat="43.30742" lon="3.49561">
        <ele>58.266106</ele>
        <time>2023-01-07T17:30:04.108Z</time>
      </trkpt>
      <trkpt lat="43.30746" lon="3.49574">
        <ele>58.448277</ele>
        <time>2023-01-07T17:30:07.103Z</time>
      </trkpt>
      <trkpt lat="43.30753" lon="3.49585">
        <ele>58.583496</ele>
        <time>2023-01-07T17:30:10.111Z</time>
      </trkpt>
      <trkpt lat="43.30762" lon="3.49594">
        <ele>58.713201</ele>
        <time>2023-01-07T17:30:13.111Z</time>
      </trkpt>
      <trkpt lat="43.30767" lon="3.49605">
        <ele>58.827026</ele>
        <time>2023-01-07T17:30:16.104Z</time>
      </trkpt>
      <trkpt lat="43.30769" lon="3.49618">
        <ele>58.942443</ele>
        <time>2023-01-07T17:30:20.103Z</time>
      </trkpt>
      <trkpt lat="43.30768" lon="3.49633">
        <ele>59.073812</ele>
        <time>2023-01-07T17:30:25.107Z</time>
      </trkpt>
      <trkpt lat="43.3077" lon="3.49648">
        <ele>59.20749</ele>
        <time>2023-01-07T17:30:29.112Z</time>
      </trkpt>
      <trkpt lat="43.3077" lon="3.49662">
        <ele>59.329201</ele>
        <time>2023-01-07T17:30:33.106Z</time>
      </trkpt>
      <trkpt lat="43.3077" lon="3.49677">
        <ele>59.459641</ele>
        <time>2023-01-07T17:30:38.108Z</time>
      </trkpt>
      <trkpt lat="43.3077" lon="3.4969">
        <ele>59.571703</ele>
        <time>2023-01-07T17:30:42.104Z</time>
      </trkpt>
      <trkpt lat="43.30769" lon="3.49704">
        <ele>59.694398</ele>
        <time>2023-01-07T17:30:46.105Z</time>
      </trkpt>
      <trkpt lat="43.30769" lon="3.49719">
        <ele>59.821278</ele>
        <time>2023-01-07T17:30:50.105Z</time>
      </trkpt>
      <trkpt lat="43.30769" lon="3.49733">
        <ele>59.948982</ele>
        <time>2023-01-07T17:30:54.097Z</time>
      </trkpt>
      <trkpt lat="43.30768" lon="3.49749">
        <ele>60.082952</ele>
        <time>2023-01-07T17:30:58.101Z</time>
      </trkpt>
      <trkpt lat="43.30768" lon="3.49764">
        <ele>60.21413</ele>
        <time>2023-01-07T17:31:02.120Z</time>
      </trkpt>
      <trkpt lat="43.30768" lon="3.49779">
        <ele>60.341879</ele>
        <time>2023-01-07T17:31:06.115Z</time>
      </trkpt>
      <trkpt lat="43.30767" lon="3.49794">
        <ele>60.473317</ele>
        <time>2023-01-07T17:31:10.118Z</time>
      </trkpt>
      <trkpt lat="43.30767" lon="3.49808">
        <ele>60.599301</ele>
        <time>2023-01-07T17:31:14.114Z</time>
      </trkpt>
      <trkpt lat="43.30766" lon="3.49822">
        <ele>60.893172</ele>
        <time>2023-01-07T17:31:18.126Z</time>
      </trkpt>
      <trkpt lat="43.30765" lon="3.49835">
        <ele>61.221482</ele>
        <time>2023-01-07T17:31:22.113Z</time>
      </trkpt>
      <trkpt lat="43.30765" lon="3.49848">
        <ele>61.556643</ele>
        <time>2023-01-07T17:31:27.118Z</time>
      </trkpt>
      <trkpt lat="43.30765" lon="3.49863">
        <ele>61.933836</ele>
        <time>2023-01-07T17:31:32.109Z</time>
      </trkpt>
      <trkpt lat="43.30764" lon="3.49878">
        <ele>62.304217</ele>
        <time>2023-01-07T17:31:37.108Z</time>
      </trkpt>
      <trkpt lat="43.30764" lon="3.49892">
        <ele>62.646543</ele>
        <time>2023-01-07T17:31:42.104Z</time>
      </trkpt>
      <trkpt lat="43.30764" lon="3.49905">
        <ele>62.966615</ele>
        <time>2023-01-07T17:31:47.103Z</time>
      </trkpt>
      <trkpt lat="43.30764" lon="3.49919">
        <ele>63.314052</ele>
        <time>2023-01-07T17:31:53.112Z</time>
      </trkpt>
      <trkpt lat="43.30764" lon="3.49932">
        <ele>63.629551</ele>
        <time>2023-01-07T17:31:58.100Z</time>
      </trkpt>
      <trkpt lat="43.30764" lon="3.49946">
        <ele>63.986826</ele>
        <time>2023-01-07T17:32:04.114Z</time>
      </trkpt>
      <trkpt lat="43.30764" lon="3.49959">
        <ele>64.301864</ele>
        <time>2023-01-07T17:32:10.111Z</time>
      </trkpt>
      <trkpt lat="43.30763" lon="3.49971">
        <ele>64.606814</ele>
        <time>2023-01-07T17:32:15.120Z</time>
      </trkpt>
      <trkpt lat="43.30762" lon="3.49985">
        <ele>64.950832</ele>
        <time>2023-01-07T17:32:20.111Z</time>
      </trkpt>
      <trkpt lat="43.30761" lon="3.49998">
        <ele>65.281195</ele>
        <time>2023-01-07T17:32:25.101Z</time>
      </trkpt>
      <trkpt lat="43.30761" lon="3.50011">
        <ele>65.589263</ele>
        <time>2023-01-07T17:32:29.119Z</time>
      </trkpt>
      <trkpt lat="43.3076" lon="3.50026">
        <ele>65.981735</ele>
        <time>2023-01-07T17:32:34.113Z</time>
      </trkpt>
      <trkpt lat="43.3076" lon="3.5004">
        <ele>66.311816</ele>
        <time>2023-01-07T17:32:38.113Z</time>
      </trkpt>
      <trkpt lat="43.3076" lon="3.50053">
        <ele>66.639328</ele>
        <time>2023-01-07T17:32:42.109Z</time>
      </trkpt>
      <trkpt lat="43.30759" lon="3.50065">
        <ele>66.736491</ele>
        <time>2023-01-07T17:32:46.108Z</time>
      </trkpt>
      <trkpt lat="43.3076" lon="3.50079">
        <ele>66.709559</ele>
        <time>2023-01-07T17:32:50.110Z</time>
      </trkpt>
      <trkpt lat="43.3076" lon="3.50094">
        <ele>66.678799</ele>
        <time>2023-01-07T17:32:54.109Z</time>
      </trkpt>
      <trkpt lat="43.3076" lon="3.50108">
        <ele>66.650048</ele>
        <time>2023-01-07T17:32:58.117Z</time>
      </trkpt>
      <trkpt lat="43.30759" lon="3.50124">
        <ele>66.619269</ele>
        <time>2023-01-07T17:33:03.108Z</time>
      </trkpt>
      <trkpt lat="43.30756" lon="3.50137">
        <ele>66.590516</ele>
        <time>2023-01-07T17:33:08.125Z</time>
      </trkpt>
      <trkpt lat="43.30751" lon="3.50148">
        <ele>66.564641</ele>
        <time>2023-01-07T17:33:12.104Z</time>
      </trkpt>
      <trkpt lat="43.3075" lon="3.50162">
        <ele>66.536471</ele>
        <time>2023-01-07T17:33:16.104Z</time>
      </trkpt>
      <trkpt lat="43.30756" lon="3.50172">
        <ele>66.510304</ele>
        <time>2023-01-07T17:33:20.110Z</time>
      </trkpt>
      <trkpt lat="43.30757" lon="3.50187">
        <ele>66.480514</ele>
        <time>2023-01-07T17:33:25.125Z</time>
      </trkpt>
      <trkpt lat="43.30755" lon="3.50201">
        <ele>66.452385</ele>
        <time>2023-01-07T17:33:29.121Z</time>
      </trkpt>
      <trkpt lat="43.30754" lon="3.50217">
        <ele>66.420755</ele>
        <time>2023-01-07T17:33:33.114Z</time>
      </trkpt>
      <trkpt lat="43.30752" lon="3.50232">
        <ele>66.389012</ele>
        <time>2023-01-07T17:33:37.118Z</time>
      </trkpt>
      <trkpt lat="43.3075" lon="3.50245">
        <ele>66.363556</ele>
        <time>2023-01-07T17:33:40.127Z</time>
      </trkpt>
      <trkpt lat="43.30749" lon="3.50258">
        <ele>66.337344</ele>
        <time>2023-01-07T17:33:43.123Z</time>
      </trkpt>
      <trkpt lat="43.30747" lon="3.5027">
        <ele>66.312327</ele>
        <time>2023-01-07T17:33:46.121Z</time>
      </trkpt>
      <trkpt lat="43.30744" lon="3.50284">
        <ele>66.283094</ele>
        <time>2023-01-07T17:33:50.123Z</time>
      </trkpt>
      <trkpt lat="43.30742" lon="3.503">
        <ele>66.227371</ele>
        <time>2023-01-07T17:33:54.115Z</time>
      </trkpt>
      <trkpt lat="43.30742" lon="3.50313">
        <ele>66.103515</ele>
        <time>2023-01-07T17:33:57.118Z</time>
      </trkpt>
      <trkpt lat="43.30741" lon="3.50327">
        <ele>65.972905</ele>
        <time>2023-01-07T17:34:00.124Z</time>
      </trkpt>
      <trkpt lat="43.30741" lon="3.50341">
        <ele>65.831735</ele>
        <time>2023-01-07T17:34:03.107Z</time>
      </trkpt>
      <trkpt lat="43.3074" lon="3.50356">
        <ele>65.688511</ele>
        <time>2023-01-07T17:34:06.119Z</time>
      </trkpt>
      <trkpt lat="43.3074" lon="3.50369">
        <ele>65.558974</ele>
        <time>2023-01-07T17:34:09.119Z</time>
      </trkpt>
      <trkpt lat="43.30737" lon="3.50357">
        <ele>65.437211</ele>
        <time>2023-01-07T17:35:16.109Z</time>
      </trkpt>
      <trkpt lat="43.30738" lon="3.50344">
        <ele>65.308018</ele>
        <time>2023-01-07T17:35:21.110Z</time>
      </trkpt>
      <trkpt lat="43.30738" lon="3.50332">
        <ele>65.188088</ele>
        <time>2023-01-07T17:35:25.113Z</time>
      </trkpt>
      <trkpt lat="43.30738" lon="3.50319">
        <ele>65.064381</ele>
        <time>2023-01-07T17:35:29.120Z</time>
      </trkpt>
      <trkpt lat="43.30738" lon="3.50304">
        <ele>64.923305</ele>
        <time>2023-01-07T17:35:33.113Z</time>
      </trkpt>
      <trkpt lat="43.30739" lon="3.50292">
        <ele>64.802343</ele>
        <time>2023-01-07T17:35:37.119Z</time>
      </trkpt>
      <trkpt lat="43.30739" lon="3.50279">
        <ele>64.681207</ele>
        <time>2023-01-07T17:35:42.114Z</time>
      </trkpt>
      <trkpt lat="43.3074" lon="3.50265">
        <ele>64.543841</ele>
        <time>2023-01-07T17:35:47.101Z</time>
      </trkpt>
      <trkpt lat="43.30749" lon="3.50263">
        <ele>64.422289</ele>
        <time>2023-01-07T17:36:04.127Z</time>
      </trkpt>
      <trkpt lat="43.30751" lon="3.50276">
        <ele>64.28895</ele>
        <time>2023-01-07T17:36:45.121Z</time>
      </trkpt>
      <trkpt lat="43.30751" lon="3.50291">
        <ele>64.144975</ele>
        <time>2023-01-07T17:36:48.110Z</time>
      </trkpt>
      <trkpt lat="43.3075" lon="3.50307">
        <ele>63.986386</ele>
        <time>2023-01-07T17:36:51.105Z</time>
      </trkpt>
      <trkpt lat="43.30748" lon="3.50325">
        <ele>63.733654</ele>
        <time>2023-01-07T17:36:54.100Z</time>
      </trkpt>
      <trkpt lat="43.3075" lon="3.50338">
        <ele>63.364522</ele>
        <time>2023-01-07T17:36:56.107Z</time>
      </trkpt>
      <trkpt lat="43.30749" lon="3.50351">
        <ele>63.025562</ele>
        <time>2023-01-07T17:36:58.108Z</time>
      </trkpt>
      <trkpt lat="43.30749" lon="3.50364">
        <ele>62.683183</ele>
        <time>2023-01-07T17:37:00.109Z</time>
      </trkpt>
      <trkpt lat="43.30748" lon="3.50377">
        <ele>62.327327</ele>
        <time>2023-01-07T17:37:02.119Z</time>
      </trkpt>
      <trkpt lat="43.30748" lon="3.50391">
        <ele>61.961786</ele>
        <time>2023-01-07T17:37:04.103Z</time>
      </trkpt>
      <trkpt lat="43.30746" lon="3.50406">
        <ele>61.572019</ele>
        <time>2023-01-07T17:37:06.109Z</time>
      </trkpt>
      <trkpt lat="43.30746" lon="3.50421">
        <ele>61.177385</ele>
        <time>2023-01-07T17:37:08.112Z</time>
      </trkpt>
      <trkpt lat="43.30745" lon="3.50437">
        <ele>60.753763</ele>
        <time>2023-01-07T17:37:10.119Z</time>
      </trkpt>
      <trkpt lat="43.30745" lon="3.50453">
        <ele>60.322343</ele>
        <time>2023-01-07T17:37:12.106Z</time>
      </trkpt>
      <trkpt lat="43.30746" lon="3.50469">
        <ele>59.898722</ele>
        <time>2023-01-07T17:37:14.106Z</time>
      </trkpt>
      <trkpt lat="43.30746" lon="3.50485">
        <ele>59.461266</ele>
        <time>2023-01-07T17:37:16.108Z</time>
      </trkpt>
      <trkpt lat="43.30746" lon="3.50501">
        <ele>59.043015</ele>
        <time>2023-01-07T17:37:18.108Z</time>
      </trkpt>
      <trkpt lat="43.30747" lon="3.50518">
        <ele>58.606165</ele>
        <time>2023-01-07T17:37:20.114Z</time>
      </trkpt>
      <trkpt lat="43.30747" lon="3.50534">
        <ele>58.174361</ele>
        <time>2023-01-07T17:37:22.118Z</time>
      </trkpt>
      <trkpt lat="43.30748" lon="3.50551">
        <ele>57.729171</ele>
        <time>2023-01-07T17:37:24.109Z</time>
      </trkpt>
      <trkpt lat="43.30748" lon="3.50568">
        <ele>57.288075</ele>
        <time>2023-01-07T17:37:26.113Z</time>
      </trkpt>
      <trkpt lat="43.30748" lon="3.50585">
        <ele>56.838789</ele>
        <time>2023-01-07T17:37:28.112Z</time>
      </trkpt>
      <trkpt lat="43.30749" lon="3.50603">
        <ele>56.374044</ele>
        <time>2023-01-07T17:37:30.111Z</time>
      </trkpt>
      <trkpt lat="43.3075" lon="3.50621">
        <ele>55.914069</ele>
        <time>2023-01-07T17:37:32.107Z</time>
      </trkpt>
      <trkpt lat="43.30751" lon="3.50639">
        <ele>55.445298</ele>
        <time>2023-01-07T17:37:34.111Z</time>
      </trkpt>
      <trkpt lat="43.30752" lon="3.50657">
        <ele>54.968821</ele>
        <time>2023-01-07T17:37:36.104Z</time>
      </trkpt>
      <trkpt lat="43.30753" lon="3.50675">
        <ele>54.498549</ele>
        <time>2023-01-07T17:37:38.108Z</time>
      </trkpt>
      <trkpt lat="43.30754" lon="3.50694">
        <ele>54.013691</ele>
        <time>2023-01-07T17:37:40.114Z</time>
      </trkpt>
      <trkpt lat="43.30757" lon="3.50713">
        <ele>53.532753</ele>
        <time>2023-01-07T17:37:42.110Z</time>
      </trkpt>
      <trkpt lat="43.30759" lon="3.50731">
        <ele>53.05087</ele>
        <time>2023-01-07T17:37:44.104Z</time>
      </trkpt>
      <trkpt lat="43.3076" lon="3.50749">
        <ele>52.584331</ele>
        <time>2023-01-07T17:37:46.104Z</time>
      </trkpt>
      <trkpt lat="43.30761" lon="3.50767">
        <ele>52.12872</ele>
        <time>2023-01-07T17:37:48.107Z</time>
      </trkpt>
      <trkpt lat="43.30763" lon="3.50784">
        <ele>51.683375</ele>
        <time>2023-01-07T17:37:50.108Z</time>
      </trkpt>
      <trkpt lat="43.30765" lon="3.50801">
        <ele>51.242317</ele>
        <time>2023-01-07T17:37:52.105Z</time>
      </trkpt>
      <trkpt lat="43.30767" lon="3.50815">
        <ele>50.938119</ele>
        <time>2023-01-07T17:37:54.106Z</time>
      </trkpt>
      <trkpt lat="43.30769" lon="3.50829">
        <ele>50.890345</ele>
        <time>2023-01-07T17:37:56.116Z</time>
      </trkpt>
      <trkpt lat="43.30771" lon="3.50842">
        <ele>50.845674</ele>
        <time>2023-01-07T17:37:58.115Z</time>
      </trkpt>
      <trkpt lat="43.30772" lon="3.50855">
        <ele>50.801697</ele>
        <time>2023-01-07T17:38:00.104Z</time>
      </trkpt>
      <trkpt lat="43.30775" lon="3.50868">
        <ele>50.756043</ele>
        <time>2023-01-07T17:38:02.121Z</time>
      </trkpt>
      <trkpt lat="43.30777" lon="3.50881">
        <ele>50.712126</ele>
        <time>2023-01-07T17:38:04.115Z</time>
      </trkpt>
      <trkpt lat="43.30779" lon="3.50894">
        <ele>50.667898</ele>
        <time>2023-01-07T17:38:06.117Z</time>
      </trkpt>
      <trkpt lat="43.30781" lon="3.50908">
        <ele>50.621261</ele>
        <time>2023-01-07T17:38:08.111Z</time>
      </trkpt>
      <trkpt lat="43.30783" lon="3.5092">
        <ele>50.577344</ele>
        <time>2023-01-07T17:38:10.116Z</time>
      </trkpt>
      <trkpt lat="43.30786" lon="3.50934">
        <ele>50.530125</ele>
        <time>2023-01-07T17:38:12.108Z</time>
      </trkpt>
      <trkpt lat="43.30789" lon="3.50947">
        <ele>50.485474</ele>
        <time>2023-01-07T17:38:14.117Z</time>
      </trkpt>
      <trkpt lat="43.30791" lon="3.5096">
        <ele>50.440375</ele>
        <time>2023-01-07T17:38:16.110Z</time>
      </trkpt>
      <trkpt lat="43.30793" lon="3.50973">
        <ele>50.394843</ele>
        <time>2023-01-07T17:38:18.104Z</time>
      </trkpt>
      <trkpt lat="43.30796" lon="3.50985">
        <ele>50.351554</ele>
        <time>2023-01-07T17:38:20.114Z</time>
      </trkpt>
      <trkpt lat="43.30799" lon="3.51003">
        <ele>50.291517</ele>
        <time>2023-01-07T17:38:23.101Z</time>
      </trkpt>
      <trkpt lat="43.30802" lon="3.51019">
        <ele>50.234355</ele>
        <time>2023-01-07T17:38:26.119Z</time>
      </trkpt>
      <trkpt lat="43.30806" lon="3.51036">
        <ele>50.17501</ele>
        <time>2023-01-07T17:38:29.122Z</time>
      </trkpt>
      <trkpt lat="43.30808" lon="3.51048">
        <ele>50.133195</ele>
        <time>2023-01-07T17:38:31.121Z</time>
      </trkpt>
      <trkpt lat="43.30812" lon="3.5106">
        <ele>50.083338</ele>
        <time>2023-01-07T17:38:33.113Z</time>
      </trkpt>
      <trkpt lat="43.30816" lon="3.51078">
        <ele>50.004088</ele>
        <time>2023-01-07T17:38:36.115Z</time>
      </trkpt>
      <trkpt lat="43.30819" lon="3.5109">
        <ele>49.952454</ele>
        <time>2023-01-07T17:38:38.110Z</time>
      </trkpt>
      <trkpt lat="43.30823" lon="3.51107">
        <ele>49.875709</ele>
        <time>2023-01-07T17:38:41.108Z</time>
      </trkpt>
      <trkpt lat="43.30825" lon="3.5112">
        <ele>49.823252</ele>
        <time>2023-01-07T17:38:43.111Z</time>
      </trkpt>
      <trkpt lat="43.30829" lon="3.51137">
        <ele>49.747959</ele>
        <time>2023-01-07T17:38:46.110Z</time>
      </trkpt>
      <trkpt lat="43.30833" lon="3.51154">
        <ele>49.672655</ele>
        <time>2023-01-07T17:38:49.124Z</time>
      </trkpt>
      <trkpt lat="43.30836" lon="3.51166">
        <ele>49.61945</ele>
        <time>2023-01-07T17:38:51.121Z</time>
      </trkpt>
      <trkpt lat="43.30841" lon="3.51183">
        <ele>49.542181</ele>
        <time>2023-01-07T17:38:54.115Z</time>
      </trkpt>
      <trkpt lat="43.30844" lon="3.51195">
        <ele>49.490747</ele>
        <time>2023-01-07T17:38:56.122Z</time>
      </trkpt>
      <trkpt lat="43.30849" lon="3.51212">
        <ele>49.414665</ele>
        <time>2023-01-07T17:38:59.120Z</time>
      </trkpt>
      <trkpt lat="43.30854" lon="3.51229">
        <ele>49.338515</ele>
        <time>2023-01-07T17:39:02.124Z</time>
      </trkpt>
      <trkpt lat="43.30859" lon="3.51246">
        <ele>49.261811</ele>
        <time>2023-01-07T17:39:05.126Z</time>
      </trkpt>
      <trkpt lat="43.30864" lon="3.51263">
        <ele>49.186813</ele>
        <time>2023-01-07T17:39:08.119Z</time>
      </trkpt>
      <trkpt lat="43.30869" lon="3.51279">
        <ele>49.111274</ele>
        <time>2023-01-07T17:39:11.123Z</time>
      </trkpt>
      <trkpt lat="43.30875" lon="3.51296">
        <ele>49.128196</ele>
        <time>2023-01-07T17:39:14.131Z</time>
      </trkpt>
      <trkpt lat="43.30877" lon="3.51308">
        <ele>49.163278</ele>
        <time>2023-01-07T17:39:18.115Z</time>
      </trkpt>
      <trkpt lat="43.30879" lon="3.51322">
        <ele>49.200919</ele>
        <time>2023-01-07T17:39:24.111Z</time>
      </trkpt>
      <trkpt lat="43.30884" lon="3.51334">
        <ele>49.237481</ele>
        <time>2023-01-07T17:39:30.111Z</time>
      </trkpt>
      <trkpt lat="43.30889" lon="3.51348">
        <ele>49.28188</ele>
        <time>2023-01-07T17:39:35.105Z</time>
      </trkpt>
      <trkpt lat="43.30893" lon="3.51361">
        <ele>49.318138</ele>
        <time>2023-01-07T17:39:38.105Z</time>
      </trkpt>
      <trkpt lat="43.30897" lon="3.51374">
        <ele>49.356993</ele>
        <time>2023-01-07T17:39:41.112Z</time>
      </trkpt>
      <trkpt lat="43.30901" lon="3.51387">
        <ele>49.396994</ele>
        <time>2023-01-07T17:39:44.104Z</time>
      </trkpt>
      <trkpt lat="43.30906" lon="3.514">
        <ele>49.437554</ele>
        <time>2023-01-07T17:39:47.120Z</time>
      </trkpt>
      <trkpt lat="43.30911" lon="3.51414">
        <ele>49.478682</ele>
        <time>2023-01-07T17:39:50.109Z</time>
      </trkpt>
      <trkpt lat="43.30915" lon="3.51428">
        <ele>49.520576</ele>
        <time>2023-01-07T17:39:53.117Z</time>
      </trkpt>
      <trkpt lat="43.3092" lon="3.51442">
        <ele>49.562372</ele>
        <time>2023-01-07T17:39:56.111Z</time>
      </trkpt>
      <trkpt lat="43.30925" lon="3.51456">
        <ele>49.604665</ele>
        <time>2023-01-07T17:39:59.103Z</time>
      </trkpt>
      <trkpt lat="43.30929" lon="3.51471">
        <ele>49.647955</ele>
        <time>2023-01-07T17:40:02.106Z</time>
      </trkpt>
      <trkpt lat="43.30934" lon="3.51485">
        <ele>49.690995</ele>
        <time>2023-01-07T17:40:05.121Z</time>
      </trkpt>
      <trkpt lat="43.30938" lon="3.515">
        <ele>49.733138</ele>
        <time>2023-01-07T17:40:08.110Z</time>
      </trkpt>
      <trkpt lat="43.30943" lon="3.51513">
        <ele>49.758473</ele>
        <time>2023-01-07T17:40:11.116Z</time>
      </trkpt>
      <trkpt lat="43.30947" lon="3.51527">
        <ele>49.724772</ele>
        <time>2023-01-07T17:40:15.113Z</time>
      </trkpt>
      <trkpt lat="43.30951" lon="3.51541">
        <ele>49.690208</ele>
        <time>2023-01-07T17:40:19.105Z</time>
      </trkpt>
      <trkpt lat="43.30955" lon="3.51554">
        <ele>49.661069</ele>
        <time>2023-01-07T17:40:22.109Z</time>
      </trkpt>
      <trkpt lat="43.3096" lon="3.51567">
        <ele>49.629643</ele>
        <time>2023-01-07T17:40:25.100Z</time>
      </trkpt>
      <trkpt lat="43.30964" lon="3.5158">
        <ele>49.597017</ele>
        <time>2023-01-07T17:40:28.109Z</time>
      </trkpt>
      <trkpt lat="43.30968" lon="3.51594">
        <ele>49.563749</ele>
        <time>2023-01-07T17:40:31.110Z</time>
      </trkpt>
      <trkpt lat="43.30973" lon="3.51608">
        <ele>49.530281</ele>
        <time>2023-01-07T17:40:34.100Z</time>
      </trkpt>
      <trkpt lat="43.30977" lon="3.51623">
        <ele>49.496012</ele>
        <time>2023-01-07T17:40:37.104Z</time>
      </trkpt>
      <trkpt lat="43.30982" lon="3.51637">
        <ele>49.462061</ele>
        <time>2023-01-07T17:40:40.104Z</time>
      </trkpt>
      <trkpt lat="43.30986" lon="3.51651">
        <ele>49.428793</ele>
        <time>2023-01-07T17:40:43.111Z</time>
      </trkpt>
      <trkpt lat="43.30991" lon="3.51665">
        <ele>49.395245</ele>
        <time>2023-01-07T17:40:46.114Z</time>
      </trkpt>
      <trkpt lat="43.30995" lon="3.51679">
        <ele>49.362333</ele>
        <time>2023-01-07T17:40:49.111Z</time>
      </trkpt>
      <trkpt lat="43.30999" lon="3.51692">
        <ele>49.330309</ele>
        <time>2023-01-07T17:40:52.108Z</time>
      </trkpt>
      <trkpt lat="43.31003" lon="3.51705">
        <ele>49.299243</ele>
        <time>2023-01-07T17:40:55.105Z</time>
      </trkpt>
      <trkpt lat="43.31008" lon="3.51719">
        <ele>49.266375</ele>
        <time>2023-01-07T17:40:58.103Z</time>
      </trkpt>
      <trkpt lat="43.31012" lon="3.51733">
        <ele>49.232306</ele>
        <time>2023-01-07T17:41:01.102Z</time>
      </trkpt>
      <trkpt lat="43.31017" lon="3.51748">
        <ele>49.241994</ele>
        <time>2023-01-07T17:41:04.105Z</time>
      </trkpt>
      <trkpt lat="43.31021" lon="3.51762">
        <ele>49.265637</ele>
        <time>2023-01-07T17:41:07.102Z</time>
      </trkpt>
      <trkpt lat="43.31025" lon="3.51777">
        <ele>49.289721</ele>
        <time>2023-01-07T17:41:10.103Z</time>
      </trkpt>
      <trkpt lat="43.3103" lon="3.51791">
        <ele>49.314107</ele>
        <time>2023-01-07T17:41:13.114Z</time>
      </trkpt>
      <trkpt lat="43.31034" lon="3.51806">
        <ele>49.338774</ele>
        <time>2023-01-07T17:41:16.107Z</time>
      </trkpt>
      <trkpt lat="43.31039" lon="3.51821">
        <ele>49.362966</ele>
        <time>2023-01-07T17:41:19.105Z</time>
      </trkpt>
      <trkpt lat="43.31044" lon="3.51834">
        <ele>49.385636</ele>
        <time>2023-01-07T17:41:22.106Z</time>
      </trkpt>
      <trkpt lat="43.31049" lon="3.51848">
        <ele>49.40905</ele>
        <time>2023-01-07T17:41:25.103Z</time>
      </trkpt>
      <trkpt lat="43.31054" lon="3.51862">
        <ele>49.432954</ele>
        <time>2023-01-07T17:41:28.113Z</time>
      </trkpt>
      <trkpt lat="43.31059" lon="3.51875">
        <ele>49.455259</ele>
        <time>2023-01-07T17:41:31.105Z</time>
      </trkpt>
      <trkpt lat="43.31063" lon="3.51888">
        <ele>49.477336</ele>
        <time>2023-01-07T17:41:34.121Z</time>
      </trkpt>
      <trkpt lat="43.31068" lon="3.51902">
        <ele>49.500967</ele>
        <time>2023-01-07T17:41:37.104Z</time>
      </trkpt>
      <trkpt lat="43.31073" lon="3.51918">
        <ele>49.527157</ele>
        <time>2023-01-07T17:41:40.105Z</time>
      </trkpt>
      <trkpt lat="43.31078" lon="3.51933">
        <ele>49.552969</ele>
        <time>2023-01-07T17:41:43.110Z</time>
      </trkpt>
      <trkpt lat="43.31083" lon="3.51947">
        <ele>49.576434</ele>
        <time>2023-01-07T17:41:46.108Z</time>
      </trkpt>
      <trkpt lat="43.31087" lon="3.51962">
        <ele>49.60068</ele>
        <time>2023-01-07T17:41:49.118Z</time>
      </trkpt>
      <trkpt lat="43.31092" lon="3.51976">
        <ele>49.554475</ele>
        <time>2023-01-07T17:41:52.113Z</time>
      </trkpt>
      <trkpt lat="43.31096" lon="3.51991">
        <ele>49.507272</ele>
        <time>2023-01-07T17:41:55.119Z</time>
      </trkpt>
      <trkpt lat="43.31101" lon="3.52006">
        <ele>49.459749</ele>
        <time>2023-01-07T17:41:58.117Z</time>
      </trkpt>
      <trkpt lat="43.31105" lon="3.52021">
        <ele>49.410966</ele>
        <time>2023-01-07T17:42:01.118Z</time>
      </trkpt>
      <trkpt lat="43.3111" lon="3.52035">
        <ele>49.363054</ele>
        <time>2023-01-07T17:42:04.113Z</time>
      </trkpt>
      <trkpt lat="43.31114" lon="3.5205">
        <ele>49.315967</ele>
        <time>2023-01-07T17:42:07.124Z</time>
      </trkpt>
      <trkpt lat="43.31119" lon="3.52064">
        <ele>49.269196</ele>
        <time>2023-01-07T17:42:10.101Z</time>
      </trkpt>
      <trkpt lat="43.31123" lon="3.52079">
        <ele>49.222326</ele>
        <time>2023-01-07T17:42:13.109Z</time>
      </trkpt>
      <trkpt lat="43.31128" lon="3.52093">
        <ele>49.175077</ele>
        <time>2023-01-07T17:42:16.109Z</time>
      </trkpt>
      <trkpt lat="43.31133" lon="3.52108">
        <ele>49.127441</ele>
        <time>2023-01-07T17:42:19.101Z</time>
      </trkpt>
      <trkpt lat="43.31137" lon="3.52122">
        <ele>49.079585</ele>
        <time>2023-01-07T17:42:22.106Z</time>
      </trkpt>
      <trkpt lat="43.31142" lon="3.52137">
        <ele>49.031788</ele>
        <time>2023-01-07T17:42:25.111Z</time>
      </trkpt>
      <trkpt lat="43.31147" lon="3.52152">
        <ele>48.982891</ele>
        <time>2023-01-07T17:42:28.116Z</time>
      </trkpt>
      <trkpt lat="43.31151" lon="3.52167">
        <ele>48.933834</ele>
        <time>2023-01-07T17:42:31.125Z</time>
      </trkpt>
      <trkpt lat="43.31156" lon="3.52182">
        <ele>48.885265</ele>
        <time>2023-01-07T17:42:34.107Z</time>
      </trkpt>
      <trkpt lat="43.31161" lon="3.52197">
        <ele>48.798271</ele>
        <time>2023-01-07T17:42:37.110Z</time>
      </trkpt>
      <trkpt lat="43.31165" lon="3.52212">
        <ele>48.678843</ele>
        <time>2023-01-07T17:42:40.115Z</time>
      </trkpt>
      <trkpt lat="43.3117" lon="3.52225">
        <ele>48.568794</ele>
        <time>2023-01-07T17:42:43.125Z</time>
      </trkpt>
      <trkpt lat="43.31174" lon="3.52237">
        <ele>48.467737</ele>
        <time>2023-01-07T17:42:46.112Z</time>
      </trkpt>
      <trkpt lat="43.31178" lon="3.52251">
        <ele>48.357242</ele>
        <time>2023-01-07T17:42:49.112Z</time>
      </trkpt>
      <trkpt lat="43.31182" lon="3.52265">
        <ele>48.242839</ele>
        <time>2023-01-07T17:42:52.111Z</time>
      </trkpt>
      <trkpt lat="43.31187" lon="3.52279">
        <ele>48.131662</ele>
        <time>2023-01-07T17:42:55.108Z</time>
      </trkpt>
      <trkpt lat="43.31191" lon="3.5229">
        <ele>48.033504</ele>
        <time>2023-01-07T17:42:58.112Z</time>
      </trkpt>
      <trkpt lat="43.31194" lon="3.52303">
        <ele>47.934917</ele>
        <time>2023-01-07T17:43:01.109Z</time>
      </trkpt>
      <trkpt lat="43.31198" lon="3.52316">
        <ele>47.822981</ele>
        <time>2023-01-07T17:43:06.112Z</time>
      </trkpt>
      <trkpt lat="43.31203" lon="3.52332">
        <ele>47.698898</ele>
        <time>2023-01-07T17:43:10.114Z</time>
      </trkpt>
      <trkpt lat="43.31208" lon="3.52345">
        <ele>47.586755</ele>
        <time>2023-01-07T17:43:13.118Z</time>
      </trkpt>
      <trkpt lat="43.31212" lon="3.5236">
        <ele>47.467723</ele>
        <time>2023-01-07T17:43:16.116Z</time>
      </trkpt>
      <trkpt lat="43.31217" lon="3.52375">
        <ele>47.348853</ele>
        <time>2023-01-07T17:43:19.110Z</time>
      </trkpt>
      <trkpt lat="43.31222" lon="3.52389">
        <ele>47.227512</ele>
        <time>2023-01-07T17:43:22.118Z</time>
      </trkpt>
      <trkpt lat="43.31226" lon="3.52404">
        <ele>47.105486</ele>
        <time>2023-01-07T17:43:25.115Z</time>
      </trkpt>
      <trkpt lat="43.31231" lon="3.52419">
        <ele>47.01048</ele>
        <time>2023-01-07T17:43:28.131Z</time>
      </trkpt>
      <trkpt lat="43.31236" lon="3.52435">
        <ele>47.006598</ele>
        <time>2023-01-07T17:43:31.117Z</time>
      </trkpt>
      <trkpt lat="43.3124" lon="3.5245">
        <ele>47.002713</ele>
        <time>2023-01-07T17:43:34.112Z</time>
      </trkpt>
      <trkpt lat="43.31245" lon="3.52465">
        <ele>46.998913</ele>
        <time>2023-01-07T17:43:37.123Z</time>
      </trkpt>
      <trkpt lat="43.3125" lon="3.5248">
        <ele>46.995253</ele>
        <time>2023-01-07T17:43:40.124Z</time>
      </trkpt>
      <trkpt lat="43.31255" lon="3.52494">
        <ele>46.991574</ele>
        <time>2023-01-07T17:43:43.111Z</time>
      </trkpt>
      <trkpt lat="43.3126" lon="3.52508">
        <ele>46.987936</ele>
        <time>2023-01-07T17:43:46.123Z</time>
      </trkpt>
      <trkpt lat="43.31264" lon="3.52523">
        <ele>46.984212</ele>
        <time>2023-01-07T17:43:49.128Z</time>
      </trkpt>
      <trkpt lat="43.31269" lon="3.52538">
        <ele>46.980327</ele>
        <time>2023-01-07T17:43:52.118Z</time>
      </trkpt>
      <trkpt lat="43.31274" lon="3.52554">
        <ele>46.976348</ele>
        <time>2023-01-07T17:43:55.109Z</time>
      </trkpt>
      <trkpt lat="43.31279" lon="3.52569">
        <ele>46.972493</ele>
        <time>2023-01-07T17:43:58.121Z</time>
      </trkpt>
      <trkpt lat="43.31284" lon="3.52584">
        <ele>46.968706</ele>
        <time>2023-01-07T17:44:01.103Z</time>
      </trkpt>
      <trkpt lat="43.31288" lon="3.52599">
        <ele>46.964977</ele>
        <time>2023-01-07T17:44:04.114Z</time>
      </trkpt>
      <trkpt lat="43.31293" lon="3.52613">
        <ele>46.961432</ele>
        <time>2023-01-07T17:44:07.117Z</time>
      </trkpt>
      <trkpt lat="43.31297" lon="3.52627">
        <ele>46.957959</ele>
        <time>2023-01-07T17:44:10.111Z</time>
      </trkpt>
      <trkpt lat="43.31301" lon="3.52641">
        <ele>46.954444</ele>
        <time>2023-01-07T17:44:13.126Z</time>
      </trkpt>
      <trkpt lat="43.31306" lon="3.52655">
        <ele>47.035767</ele>
        <time>2023-01-07T17:44:16.123Z</time>
      </trkpt>
      <trkpt lat="43.3131" lon="3.5267">
        <ele>47.132035</ele>
        <time>2023-01-07T17:44:19.122Z</time>
      </trkpt>
      <trkpt lat="43.31314" lon="3.52686">
        <ele>47.226918</ele>
        <time>2023-01-07T17:44:22.123Z</time>
      </trkpt>
      <trkpt lat="43.31319" lon="3.52701">
        <ele>47.323854</ele>
        <time>2023-01-07T17:44:25.114Z</time>
      </trkpt>
      <trkpt lat="43.31324" lon="3.52716">
        <ele>47.420571</ele>
        <time>2023-01-07T17:44:28.113Z</time>
      </trkpt>
      <trkpt lat="43.31328" lon="3.52731">
        <ele>47.516586</ele>
        <time>2023-01-07T17:44:31.111Z</time>
      </trkpt>
      <trkpt lat="43.31333" lon="3.52746">
        <ele>47.613628</ele>
        <time>2023-01-07T17:44:34.110Z</time>
      </trkpt>
      <trkpt lat="43.31338" lon="3.52761">
        <ele>47.709807</ele>
        <time>2023-01-07T17:44:37.122Z</time>
      </trkpt>
      <trkpt lat="43.31343" lon="3.52776">
        <ele>47.806849</ele>
        <time>2023-01-07T17:44:40.125Z</time>
      </trkpt>
      <trkpt lat="43.31348" lon="3.52791">
        <ele>47.903355</ele>
        <time>2023-01-07T17:44:43.106Z</time>
      </trkpt>
      <trkpt lat="43.31353" lon="3.52807">
        <ele>48.00147</ele>
        <time>2023-01-07T17:44:46.123Z</time>
      </trkpt>
      <trkpt lat="43.31357" lon="3.52822">
        <ele>48.0967</ele>
        <time>2023-01-07T17:44:49.103Z</time>
      </trkpt>
      <trkpt lat="43.31362" lon="3.52836">
        <ele>48.19141</ele>
        <time>2023-01-07T17:44:52.108Z</time>
      </trkpt>
      <trkpt lat="43.31367" lon="3.52851">
        <ele>48.287971</ele>
        <time>2023-01-07T17:44:55.122Z</time>
      </trkpt>
      <trkpt lat="43.31371" lon="3.52867">
        <ele>48.382841</ele>
        <time>2023-01-07T17:44:58.099Z</time>
      </trkpt>
      <trkpt lat="43.31375" lon="3.52881">
        <ele>48.357562</ele>
        <time>2023-01-07T17:45:01.112Z</time>
      </trkpt>
      <trkpt lat="43.31379" lon="3.52895">
        <ele>48.295765</ele>
        <time>2023-01-07T17:45:04.120Z</time>
      </trkpt>
      <trkpt lat="43.31384" lon="3.52909">
        <ele>48.23465</ele>
        <time>2023-01-07T17:45:07.115Z</time>
      </trkpt>
      <trkpt lat="43.31388" lon="3.52922">
        <ele>48.178039</ele>
        <time>2023-01-07T17:45:10.116Z</time>
      </trkpt>
      <trkpt lat="43.31391" lon="3.52933">
        <ele>48.127245</ele>
        <time>2023-01-07T17:45:13.123Z</time>
      </trkpt>
      <trkpt lat="43.31395" lon="3.52946">
        <ele>48.073619</ele>
        <time>2023-01-07T17:45:17.105Z</time>
      </trkpt>
      <trkpt lat="43.31398" lon="3.52959">
        <ele>48.016583</ele>
        <time>2023-01-07T17:45:22.108Z</time>
      </trkpt>
      <trkpt lat="43.31402" lon="3.52971">
        <ele>47.964188</ele>
        <time>2023-01-07T17:45:26.108Z</time>
      </trkpt>
      <trkpt lat="43.31406" lon="3.52985">
        <ele>47.901743</ele>
        <time>2023-01-07T17:45:30.109Z</time>
      </trkpt>
      <trkpt lat="43.3141" lon="3.53">
        <ele>47.838446</ele>
        <time>2023-01-07T17:45:34.104Z</time>
      </trkpt>
      <trkpt lat="43.31414" lon="3.53013">
        <ele>47.780662</ele>
        <time>2023-01-07T17:45:38.104Z</time>
      </trkpt>
      <trkpt lat="43.31418" lon="3.53029">
        <ele>47.713977</ele>
        <time>2023-01-07T17:45:42.109Z</time>
      </trkpt>
      <trkpt lat="43.31422" lon="3.53041">
        <ele>47.66106</ele>
        <time>2023-01-07T17:45:45.112Z</time>
      </trkpt>
      <trkpt lat="43.31426" lon="3.53053">
        <ele>47.60699</ele>
        <time>2023-01-07T17:45:48.106Z</time>
      </trkpt>
      <trkpt lat="43.3143" lon="3.53066">
        <ele>47.552038</ele>
        <time>2023-01-07T17:45:51.105Z</time>
      </trkpt>
      <trkpt lat="43.31434" lon="3.53079">
        <ele>47.494914</ele>
        <time>2023-01-07T17:45:54.105Z</time>
      </trkpt>
      <trkpt lat="43.31438" lon="3.5309">
        <ele>47.443887</ele>
        <time>2023-01-07T17:45:57.105Z</time>
      </trkpt>
      <trkpt lat="43.31443" lon="3.53103">
        <ele>47.418681</ele>
        <time>2023-01-07T17:46:01.106Z</time>
      </trkpt>
      <trkpt lat="43.31445" lon="3.53115">
        <ele>47.444797</ele>
        <time>2023-01-07T17:46:06.106Z</time>
      </trkpt>
      <trkpt lat="43.31449" lon="3.53127">
        <ele>47.469904</ele>
        <time>2023-01-07T17:46:10.109Z</time>
      </trkpt>
      <trkpt lat="43.31453" lon="3.53139">
        <ele>47.497536</ele>
        <time>2023-01-07T17:46:15.117Z</time>
      </trkpt>
      <trkpt lat="43.31457" lon="3.53152">
        <ele>47.524183</ele>
        <time>2023-01-07T17:46:25.112Z</time>
      </trkpt>
      <trkpt lat="43.31461" lon="3.53164">
        <ele>47.55161</ele>
        <time>2023-01-07T17:46:31.115Z</time>
      </trkpt>
      <trkpt lat="43.31464" lon="3.53176">
        <ele>47.577159</ele>
        <time>2023-01-07T17:46:35.122Z</time>
      </trkpt>
      <trkpt lat="43.3147" lon="3.5319">
        <ele>47.609456</ele>
        <time>2023-01-07T17:46:39.111Z</time>
      </trkpt>
      <trkpt lat="43.31474" lon="3.53202">
        <ele>47.636108</ele>
        <time>2023-01-07T17:46:42.119Z</time>
      </trkpt>
      <trkpt lat="43.31478" lon="3.53215">
        <ele>47.663265</ele>
        <time>2023-01-07T17:46:45.118Z</time>
      </trkpt>
      <trkpt lat="43.31482" lon="3.53227">
        <ele>47.689552</ele>
        <time>2023-01-07T17:46:48.102Z</time>
      </trkpt>
      <trkpt lat="43.31485" lon="3.5324">
        <ele>47.716893</ele>
        <time>2023-01-07T17:46:51.116Z</time>
      </trkpt>
      <trkpt lat="43.3149" lon="3.53252">
        <ele>47.744453</ele>
        <time>2023-01-07T17:46:54.111Z</time>
      </trkpt>
      <trkpt lat="43.31493" lon="3.53265">
        <ele>47.771029</ele>
        <time>2023-01-07T17:46:57.114Z</time>
      </trkpt>
      <trkpt lat="43.31498" lon="3.5328">
        <ele>47.803322</ele>
        <time>2023-01-07T17:47:01.102Z</time>
      </trkpt>
      <trkpt lat="43.31502" lon="3.53295">
        <ele>47.836377</ele>
        <time>2023-01-07T17:47:05.106Z</time>
      </trkpt>
      <trkpt lat="43.31506" lon="3.53307">
        <ele>47.863168</ele>
        <time>2023-01-07T17:47:08.111Z</time>
      </trkpt>
      <trkpt lat="43.3151" lon="3.5332">
        <ele>47.890218</ele>
        <time>2023-01-07T17:47:11.110Z</time>
      </trkpt>
      <trkpt lat="43.31514" lon="3.53333">
        <ele>47.90406</ele>
        <time>2023-01-07T17:47:14.107Z</time>
      </trkpt>
      <trkpt lat="43.31517" lon="3.53345">
        <ele>47.907447</ele>
        <time>2023-01-07T17:47:17.114Z</time>
      </trkpt>
      <trkpt lat="43.31521" lon="3.53356">
        <ele>47.910689</ele>
        <time>2023-01-07T17:47:20.113Z</time>
      </trkpt>
      <trkpt lat="43.31525" lon="3.53369">
        <ele>47.91421</ele>
        <time>2023-01-07T17:47:23.104Z</time>
      </trkpt>
      <trkpt lat="43.31528" lon="3.53381">
        <ele>47.917662</ele>
        <time>2023-01-07T17:47:26.108Z</time>
      </trkpt>
      <trkpt lat="43.31532" lon="3.53393">
        <ele>47.920918</ele>
        <time>2023-01-07T17:47:29.104Z</time>
      </trkpt>
      <trkpt lat="43.31536" lon="3.53407">
        <ele>47.924806</ele>
        <time>2023-01-07T17:47:33.105Z</time>
      </trkpt>
      <trkpt lat="43.31537" lon="3.53419">
        <ele>47.928153</ele>
        <time>2023-01-07T17:47:46.114Z</time>
      </trkpt>
      <trkpt lat="43.31543" lon="3.5343">
        <ele>47.931707</ele>
        <time>2023-01-07T17:48:00.124Z</time>
      </trkpt>
      <trkpt lat="43.31546" lon="3.53442">
        <ele>47.935019</ele>
        <time>2023-01-07T17:48:07.109Z</time>
      </trkpt>
      <trkpt lat="43.3155" lon="3.53456">
        <ele>47.938688</ele>
        <time>2023-01-07T17:48:11.111Z</time>
      </trkpt>
      <trkpt lat="43.31554" lon="3.53468">
        <ele>47.942086</ele>
        <time>2023-01-07T17:48:15.113Z</time>
      </trkpt>
      <trkpt lat="43.31554" lon="3.5348">
        <ele>47.945391</ele>
        <time>2023-01-07T17:48:19.111Z</time>
      </trkpt>
      <trkpt lat="43.31551" lon="3.53495">
        <ele>47.949275</ele>
        <time>2023-01-07T17:48:24.112Z</time>
      </trkpt>
      <trkpt lat="43.31549" lon="3.53508">
        <ele>47.952672</ele>
        <time>2023-01-07T17:48:28.102Z</time>
      </trkpt>
      <trkpt lat="43.31548" lon="3.53521">
        <ele>47.956195</ele>
        <time>2023-01-07T17:48:32.114Z</time>
      </trkpt>
      <trkpt lat="43.31549" lon="3.53536">
        <ele>47.960058</ele>
        <time>2023-01-07T17:48:37.114Z</time>
      </trkpt>
      <trkpt lat="43.31558" lon="3.53539">
        <ele>47.963461</ele>
        <time>2023-01-07T17:48:42.107Z</time>
      </trkpt>
      <trkpt lat="43.31567" lon="3.53538">
        <ele>47.97565</ele>
        <time>2023-01-07T17:48:47.119Z</time>
      </trkpt>
      <trkpt lat="43.31576" lon="3.53547">
        <ele>48.050616</ele>
        <time>2023-01-07T17:48:52.108Z</time>
      </trkpt>
      <trkpt lat="43.31583" lon="3.53559">
        <ele>48.125775</ele>
        <time>2023-01-07T17:48:56.116Z</time>
      </trkpt>
      <trkpt lat="43.31588" lon="3.53575">
        <ele>48.207606</ele>
        <time>2023-01-07T17:49:00.106Z</time>
      </trkpt>
      <trkpt lat="43.31592" lon="3.53587">
        <ele>48.275645</ele>
        <time>2023-01-07T17:49:03.104Z</time>
      </trkpt>
      <trkpt lat="43.31596" lon="3.53601">
        <ele>48.346907</ele>
        <time>2023-01-07T17:49:06.115Z</time>
      </trkpt>
      <trkpt lat="43.31601" lon="3.53614">
        <ele>48.420365</ele>
        <time>2023-01-07T17:49:09.106Z</time>
      </trkpt>
      <trkpt lat="43.31605" lon="3.53628">
        <ele>48.495304</ele>
        <time>2023-01-07T17:49:12.106Z</time>
      </trkpt>
      <trkpt lat="43.3161" lon="3.53642">
        <ele>48.567622</ele>
        <time>2023-01-07T17:49:15.110Z</time>
      </trkpt>
      <trkpt lat="43.31614" lon="3.53655">
        <ele>48.63994</ele>
        <time>2023-01-07T17:49:18.110Z</time>
      </trkpt>
      <trkpt lat="43.31618" lon="3.5367">
        <ele>48.718043</ele>
        <time>2023-01-07T17:49:21.106Z</time>
      </trkpt>
      <trkpt lat="43.31622" lon="3.53685">
        <ele>48.796912</ele>
        <time>2023-01-07T17:49:24.109Z</time>
      </trkpt>
      <trkpt lat="43.31627" lon="3.53701">
        <ele>48.876858</ele>
        <time>2023-01-07T17:49:27.105Z</time>
      </trkpt>
      <trkpt lat="43.31632" lon="3.53716">
        <ele>48.958409</ele>
        <time>2023-01-07T17:49:30.112Z</time>
      </trkpt>
      <trkpt lat="43.31636" lon="3.53732">
        <ele>49.042765</ele>
        <time>2023-01-07T17:49:33.110Z</time>
      </trkpt>
      <trkpt lat="43.31641" lon="3.53748">
        <ele>49.126471</ele>
        <time>2023-01-07T17:49:36.112Z</time>
      </trkpt>
      <trkpt lat="43.31645" lon="3.53764">
        <ele>49.206335</ele>
        <time>2023-01-07T17:49:39.112Z</time>
      </trkpt>
      <trkpt lat="43.3165" lon="3.5378">
        <ele>49.284706</ele>
        <time>2023-01-07T17:49:42.113Z</time>
      </trkpt>
      <trkpt lat="43.31656" lon="3.53795">
        <ele>49.361438</ele>
        <time>2023-01-07T17:49:45.113Z</time>
      </trkpt>
      <trkpt lat="43.3166" lon="3.53811">
        <ele>49.438179</ele>
        <time>2023-01-07T17:49:48.106Z</time>
      </trkpt>
      <trkpt lat="43.31664" lon="3.53827">
        <ele>49.514286</ele>
        <time>2023-01-07T17:49:51.105Z</time>
      </trkpt>
      <trkpt lat="43.31669" lon="3.53843">
        <ele>49.592247</ele>
        <time>2023-01-07T17:49:54.121Z</time>
      </trkpt>
      <trkpt lat="43.31674" lon="3.53859">
        <ele>49.67096</ele>
        <time>2023-01-07T17:49:57.118Z</time>
      </trkpt>
      <trkpt lat="43.31679" lon="3.53875">
        <ele>49.749171</ele>
        <time>2023-01-07T17:50:00.112Z</time>
      </trkpt>
      <trkpt lat="43.31684" lon="3.53891">
        <ele>49.826885</ele>
        <time>2023-01-07T17:50:03.107Z</time>
      </trkpt>
      <trkpt lat="43.31689" lon="3.53907">
        <ele>49.903704</ele>
        <time>2023-01-07T17:50:06.114Z</time>
      </trkpt>
      <trkpt lat="43.31694" lon="3.53923">
        <ele>49.983966</ele>
        <time>2023-01-07T17:50:09.110Z</time>
      </trkpt>
      <trkpt lat="43.317" lon="3.5394">
        <ele>50.064888</ele>
        <time>2023-01-07T17:50:12.105Z</time>
      </trkpt>
      <trkpt lat="43.31705" lon="3.53956">
        <ele>50.142848</ele>
        <time>2023-01-07T17:50:15.117Z</time>
      </trkpt>
      <trkpt lat="43.31709" lon="3.53971">
        <ele>50.217602</ele>
        <time>2023-01-07T17:50:18.109Z</time>
      </trkpt>
      <trkpt lat="43.31715" lon="3.53986">
        <ele>50.269323</ele>
        <time>2023-01-07T17:50:21.124Z</time>
      </trkpt>
      <trkpt lat="43.3172" lon="3.54002">
        <ele>50.146933</ele>
        <time>2023-01-07T17:50:24.112Z</time>
      </trkpt>
      <trkpt lat="43.31725" lon="3.54018">
        <ele>50.020844</ele>
        <time>2023-01-07T17:50:27.123Z</time>
      </trkpt>
      <trkpt lat="43.31729" lon="3.5403">
        <ele>49.93379</ele>
        <time>2023-01-07T17:50:29.110Z</time>
      </trkpt>
      <trkpt lat="43.31732" lon="3.54041">
        <ele>49.844033</ele>
        <time>2023-01-07T17:50:31.127Z</time>
      </trkpt>
      <trkpt lat="43.31736" lon="3.54053">
        <ele>49.752384</ele>
        <time>2023-01-07T17:50:33.121Z</time>
      </trkpt>
      <trkpt lat="43.3174" lon="3.54065">
        <ele>49.6602</ele>
        <time>2023-01-07T17:50:35.116Z</time>
      </trkpt>
      <trkpt lat="43.31743" lon="3.54077">
        <ele>49.567462</ele>
        <time>2023-01-07T17:50:37.119Z</time>
      </trkpt>
      <trkpt lat="43.31747" lon="3.54089">
        <ele>49.474723</ele>
        <time>2023-01-07T17:50:39.111Z</time>
      </trkpt>
      <trkpt lat="43.31751" lon="3.54101">
        <ele>49.382899</ele>
        <time>2023-01-07T17:50:41.124Z</time>
      </trkpt>
      <trkpt lat="43.31755" lon="3.54113">
        <ele>49.290919</ele>
        <time>2023-01-07T17:50:43.103Z</time>
      </trkpt>
      <trkpt lat="43.3176" lon="3.54129">
        <ele>49.167034</ele>
        <time>2023-01-07T17:50:46.110Z</time>
      </trkpt>
      <trkpt lat="43.31764" lon="3.54145">
        <ele>49.045854</ele>
        <time>2023-01-07T17:50:49.118Z</time>
      </trkpt>
      <trkpt lat="43.31769" lon="3.54161">
        <ele>48.922817</ele>
        <time>2023-01-07T17:50:52.110Z</time>
      </trkpt>
      <trkpt lat="43.31774" lon="3.54178">
        <ele>48.796799</ele>
        <time>2023-01-07T17:50:55.117Z</time>
      </trkpt>
      <trkpt lat="43.31779" lon="3.54193">
        <ele>48.683347</ele>
        <time>2023-01-07T17:50:58.127Z</time>
      </trkpt>
      <trkpt lat="43.31783" lon="3.54207">
        <ele>48.572772</ele>
        <time>2023-01-07T17:51:01.123Z</time>
      </trkpt>
      <trkpt lat="43.31788" lon="3.54222">
        <ele>48.610582</ele>
        <time>2023-01-07T17:51:04.115Z</time>
      </trkpt>
      <trkpt lat="43.31793" lon="3.54237">
        <ele>48.720287</ele>
        <time>2023-01-07T17:51:07.126Z</time>
      </trkpt>
      <trkpt lat="43.31797" lon="3.54252">
        <ele>48.831675</ele>
        <time>2023-01-07T17:51:10.119Z</time>
      </trkpt>
      <trkpt lat="43.31802" lon="3.54267">
        <ele>48.941628</ele>
        <time>2023-01-07T17:51:13.109Z</time>
      </trkpt>
      <trkpt lat="43.31806" lon="3.54282">
        <ele>49.049563</ele>
        <time>2023-01-07T17:51:16.127Z</time>
      </trkpt>
      <trkpt lat="43.31811" lon="3.54296">
        <ele>49.152891</ele>
        <time>2023-01-07T17:51:19.117Z</time>
      </trkpt>
      <trkpt lat="43.31814" lon="3.54311">
        <ele>49.25544</ele>
        <time>2023-01-07T17:51:22.117Z</time>
      </trkpt>
      <trkpt lat="43.31819" lon="3.54324">
        <ele>49.356238</ele>
        <time>2023-01-07T17:51:25.137Z</time>
      </trkpt>
      <trkpt lat="43.31823" lon="3.54338">
        <ele>49.454051</ele>
        <time>2023-01-07T17:51:28.124Z</time>
      </trkpt>
      <trkpt lat="43.31827" lon="3.5435">
        <ele>49.543876</ele>
        <time>2023-01-07T17:51:31.115Z</time>
      </trkpt>
      <trkpt lat="43.31831" lon="3.54365">
        <ele>49.649573</ele>
        <time>2023-01-07T17:51:35.121Z</time>
      </trkpt>
      <trkpt lat="43.31835" lon="3.54377">
        <ele>49.736576</ele>
        <time>2023-01-07T17:51:39.117Z</time>
      </trkpt>
      <trkpt lat="43.31839" lon="3.5439">
        <ele>49.832576</ele>
        <time>2023-01-07T17:51:43.114Z</time>
      </trkpt>
      <trkpt lat="43.31843" lon="3.54403">
        <ele>49.926632</ele>
        <time>2023-01-07T17:51:47.125Z</time>
      </trkpt>
      <trkpt lat="43.31847" lon="3.54417">
        <ele>50.028632</ele>
        <time>2023-01-07T17:51:51.121Z</time>
      </trkpt>
      <trkpt lat="43.3185" lon="3.54429">
        <ele>50.113264</ele>
        <time>2023-01-07T17:51:54.113Z</time>
      </trkpt>
      <trkpt lat="43.31854" lon="3.54442">
        <ele>50.190645</ele>
        <time>2023-01-07T17:51:57.115Z</time>
      </trkpt>
      <trkpt lat="43.31858" lon="3.54455">
        <ele>50.180181</ele>
        <time>2023-01-07T17:52:00.106Z</time>
      </trkpt>
      <trkpt lat="43.31862" lon="3.54468">
        <ele>50.169688</ele>
        <time>2023-01-07T17:52:03.131Z</time>
      </trkpt>
      <trkpt lat="43.31865" lon="3.5448">
        <ele>50.160385</ele>
        <time>2023-01-07T17:52:06.132Z</time>
      </trkpt>
      <trkpt lat="43.31868" lon="3.54495">
        <ele>50.148583</ele>
        <time>2023-01-07T17:52:10.127Z</time>
      </trkpt>
      <trkpt lat="43.31871" lon="3.54508">
        <ele>50.138795</ele>
        <time>2023-01-07T17:52:13.121Z</time>
      </trkpt>
      <trkpt lat="43.31875" lon="3.5452">
        <ele>50.128859</ele>
        <time>2023-01-07T17:52:16.122Z</time>
      </trkpt>
      <trkpt lat="43.31878" lon="3.54533">
        <ele>50.118787</ele>
        <time>2023-01-07T17:52:19.118Z</time>
      </trkpt>
      <trkpt lat="43.31881" lon="3.54545">
        <ele>50.10938</ele>
        <time>2023-01-07T17:52:22.124Z</time>
      </trkpt>
      <trkpt lat="43.31886" lon="3.54558">
        <ele>50.098251</ele>
        <time>2023-01-07T17:52:26.112Z</time>
      </trkpt>
      <trkpt lat="43.31889" lon="3.54572">
        <ele>50.087556</ele>
        <time>2023-01-07T17:52:30.114Z</time>
      </trkpt>
      <trkpt lat="43.31892" lon="3.54586">
        <ele>50.077011</ele>
        <time>2023-01-07T17:52:34.114Z</time>
      </trkpt>
      <trkpt lat="43.3189" lon="3.54598">
        <ele>50.067692</ele>
        <time>2023-01-07T17:52:38.124Z</time>
      </trkpt>
      <trkpt lat="43.31887" lon="3.5461">
        <ele>50.058239</ele>
        <time>2023-01-07T17:52:44.126Z</time>
      </trkpt>
      <trkpt lat="43.31884" lon="3.54624">
        <ele>50.0474</ele>
        <time>2023-01-07T17:53:14.115Z</time>
      </trkpt>
      <trkpt lat="43.31888" lon="3.54639">
        <ele>50.036177</ele>
        <time>2023-01-07T17:53:20.115Z</time>
      </trkpt>
      <trkpt lat="43.31895" lon="3.54647">
        <ele>50.026423</ele>
        <time>2023-01-07T17:53:25.115Z</time>
      </trkpt>
      <trkpt lat="43.31906" lon="3.5465">
        <ele>50.01518</ele>
        <time>2023-01-07T17:53:30.110Z</time>
      </trkpt>
      <trkpt lat="43.31915" lon="3.54656">
        <ele>50.039334</ele>
        <time>2023-01-07T17:53:34.113Z</time>
      </trkpt>
      <trkpt lat="43.31921" lon="3.54667">
        <ele>50.133973</ele>
        <time>2023-01-07T17:53:38.117Z</time>
      </trkpt>
      <trkpt lat="43.31925" lon="3.54679">
        <ele>50.218085</ele>
        <time>2023-01-07T17:53:41.114Z</time>
      </trkpt>
      <trkpt lat="43.31929" lon="3.54691">
        <ele>50.305514</ele>
        <time>2023-01-07T17:53:44.113Z</time>
      </trkpt>
      <trkpt lat="43.31933" lon="3.54704">
        <ele>50.390568</ele>
        <time>2023-01-07T17:53:47.116Z</time>
      </trkpt>
      <trkpt lat="43.31937" lon="3.54715">
        <ele>50.471482</ele>
        <time>2023-01-07T17:53:50.107Z</time>
      </trkpt>
      <trkpt lat="43.31941" lon="3.54727">
        <ele>50.557129</ele>
        <time>2023-01-07T17:53:53.113Z</time>
      </trkpt>
      <trkpt lat="43.31944" lon="3.54741">
        <ele>50.650834</ele>
        <time>2023-01-07T17:53:56.114Z</time>
      </trkpt>
      <trkpt lat="43.31948" lon="3.54754">
        <ele>50.74584</ele>
        <time>2023-01-07T17:53:59.107Z</time>
      </trkpt>
      <trkpt lat="43.31952" lon="3.54768">
        <ele>50.840781</ele>
        <time>2023-01-07T17:54:02.113Z</time>
      </trkpt>
      <trkpt lat="43.31957" lon="3.54782">
        <ele>50.938967</ele>
        <time>2023-01-07T17:54:05.115Z</time>
      </trkpt>
      <trkpt lat="43.31961" lon="3.54796">
        <ele>51.038692</ele>
        <time>2023-01-07T17:54:08.104Z</time>
      </trkpt>
      <trkpt lat="43.31966" lon="3.5481">
        <ele>51.138185</ele>
        <time>2023-01-07T17:54:11.117Z</time>
      </trkpt>
      <trkpt lat="43.31971" lon="3.54824">
        <ele>51.23696</ele>
        <time>2023-01-07T17:54:14.115Z</time>
      </trkpt>
      <trkpt lat="43.31976" lon="3.54839">
        <ele>51.342012</ele>
        <time>2023-01-07T17:54:17.126Z</time>
      </trkpt>
      <trkpt lat="43.31981" lon="3.54855">
        <ele>51.454154</ele>
        <time>2023-01-07T17:54:20.111Z</time>
      </trkpt>
      <trkpt lat="43.31985" lon="3.54871">
        <ele>51.56704</ele>
        <time>2023-01-07T17:54:23.119Z</time>
      </trkpt>
      <trkpt lat="43.3199" lon="3.54886">
        <ele>51.534442</ele>
        <time>2023-01-07T17:54:26.109Z</time>
      </trkpt>
      <trkpt lat="43.31995" lon="3.54902">
        <ele>51.430364</ele>
        <time>2023-01-07T17:54:29.107Z</time>
      </trkpt>
      <trkpt lat="43.32" lon="3.54917">
        <ele>51.324611</ele>
        <time>2023-01-07T17:54:32.125Z</time>
      </trkpt>
      <trkpt lat="43.32004" lon="3.54932">
        <ele>51.219546</ele>
        <time>2023-01-07T17:54:35.119Z</time>
      </trkpt>
      <trkpt lat="43.32008" lon="3.54947">
        <ele>51.118178</ele>
        <time>2023-01-07T17:54:38.105Z</time>
      </trkpt>
      <trkpt lat="43.32012" lon="3.54961">
        <ele>51.023932</ele>
        <time>2023-01-07T17:54:41.125Z</time>
      </trkpt>
      <trkpt lat="43.32015" lon="3.54974">
        <ele>50.941922</ele>
        <time>2023-01-07T17:54:44.117Z</time>
      </trkpt>
      <trkpt lat="43.32018" lon="3.54989">
        <ele>50.842531</ele>
        <time>2023-01-07T17:54:48.105Z</time>
      </trkpt>
      <trkpt lat="43.32023" lon="3.55001">
        <ele>50.751988</ele>
        <time>2023-01-07T17:54:51.111Z</time>
      </trkpt>
      <trkpt lat="43.32028" lon="3.55014">
        <ele>50.662004</ele>
        <time>2023-01-07T17:54:54.111Z</time>
      </trkpt>
      <trkpt lat="43.32032" lon="3.55028">
        <ele>50.568195</ele>
        <time>2023-01-07T17:54:57.116Z</time>
      </trkpt>
      <trkpt lat="43.32036" lon="3.55041">
        <ele>50.476234</ele>
        <time>2023-01-07T17:55:00.229Z</time>
      </trkpt>
      <trkpt lat="43.3204" lon="3.55054">
        <ele>50.384381</ele>
        <time>2023-01-07T17:55:03.123Z</time>
      </trkpt>
      <trkpt lat="43.32045" lon="3.55067">
        <ele>50.29176</ele>
        <time>2023-01-07T17:55:06.126Z</time>
      </trkpt>
      <trkpt lat="43.3205" lon="3.5508">
        <ele>50.200662</ele>
        <time>2023-01-07T17:55:09.123Z</time>
      </trkpt>
      <trkpt lat="43.32055" lon="3.55093">
        <ele>50.108642</ele>
        <time>2023-01-07T17:55:12.114Z</time>
      </trkpt>
      <trkpt lat="43.32058" lon="3.55106">
        <ele>50.015436</ele>
        <time>2023-01-07T17:55:15.124Z</time>
      </trkpt>
      <trkpt lat="43.32062" lon="3.5512">
        <ele>49.907998</ele>
        <time>2023-01-07T17:55:18.104Z</time>
      </trkpt>
      <trkpt lat="43.32067" lon="3.55134">
        <ele>49.799712</ele>
        <time>2023-01-07T17:55:21.106Z</time>
      </trkpt>
      <trkpt lat="43.32071" lon="3.55147">
        <ele>49.696529</ele>
        <time>2023-01-07T17:55:24.114Z</time>
      </trkpt>
      <trkpt lat="43.32075" lon="3.5516">
        <ele>49.59666</ele>
        <time>2023-01-07T17:55:27.113Z</time>
      </trkpt>
      <trkpt lat="43.32079" lon="3.55172">
        <ele>49.501303</ele>
        <time>2023-01-07T17:55:30.111Z</time>
      </trkpt>
      <trkpt lat="43.32082" lon="3.55183">
        <ele>49.410441</ele>
        <time>2023-01-07T17:55:33.115Z</time>
      </trkpt>
      <trkpt lat="43.32087" lon="3.55197">
        <ele>49.299737</ele>
        <time>2023-01-07T17:55:37.117Z</time>
      </trkpt>
      <trkpt lat="43.32093" lon="3.5521">
        <ele>49.188552</ele>
        <time>2023-01-07T17:55:41.114Z</time>
      </trkpt>
      <trkpt lat="43.32097" lon="3.55224">
        <ele>49.076085</ele>
        <time>2023-01-07T17:55:45.117Z</time>
      </trkpt>
      <trkpt lat="43.32103" lon="3.55238">
        <ele>48.967946</ele>
        <time>2023-01-07T17:55:49.119Z</time>
      </trkpt>
      <trkpt lat="43.32106" lon="3.5525">
        <ele>48.873432</ele>
        <time>2023-01-07T17:55:53.129Z</time>
      </trkpt>
      <trkpt lat="43.32107" lon="3.55264">
        <ele>48.773468</ele>
        <time>2023-01-07T17:55:57.123Z</time>
      </trkpt>
      <trkpt lat="43.32104" lon="3.55276">
        <ele>48.675212</ele>
        <time>2023-01-07T17:56:00.110Z</time>
      </trkpt>
      <trkpt lat="43.32097" lon="3.55287">
        <ele>48.571097</ele>
        <time>2023-01-07T17:56:02.118Z</time>
      </trkpt>
      <trkpt lat="43.32091" lon="3.55297">
        <ele>48.479824</ele>
        <time>2023-01-07T17:56:04.121Z</time>
      </trkpt>
      <trkpt lat="43.32086" lon="3.55308">
        <ele>48.390781</ele>
        <time>2023-01-07T17:56:06.106Z</time>
      </trkpt>
      <trkpt lat="43.3208" lon="3.55318">
        <ele>48.294177</ele>
        <time>2023-01-07T17:56:09.109Z</time>
      </trkpt>
      <trkpt lat="43.32076" lon="3.55338">
        <ele>48.251619</ele>
        <time>2023-01-07T17:59:23.181Z</time>
      </trkpt>
      <trkpt lat="43.32088" lon="3.55342">
        <ele>48.251619</ele>
        <time>2023-01-07T17:59:59.122Z</time>
      </trkpt>
      <trkpt lat="43.32098" lon="3.55342">
        <ele>48.251619</ele>
        <time>2023-01-07T18:00:11.132Z</time>
      </trkpt>
      <trkpt lat="43.32106" lon="3.55346">
        <ele>48.251619</ele>
        <time>2023-01-07T18:00:26.111Z</time>
      </trkpt>
      <trkpt lat="43.32111" lon="3.55334">
        <ele>48.251619</ele>
        <time>2023-01-07T18:03:14.130Z</time>
      </trkpt>
      <trkpt lat="43.32106" lon="3.55323">
        <ele>48.251619</ele>
        <time>2023-01-07T18:03:28.118Z</time>
      </trkpt>
      <trkpt lat="43.32112" lon="3.55333">
        <ele>48.251619</ele>
        <time>2023-01-07T18:03:45.123Z</time>
      </trkpt>
      <trkpt lat="43.32107" lon="3.55343">
        <ele>48.251619</ele>
        <time>2023-01-07T18:03:57.126Z</time>
      </trkpt>
      <trkpt lat="43.32098" lon="3.5534">
        <ele>48.251619</ele>
        <time>2023-01-07T18:04:24.133Z</time>
      </trkpt>
      <trkpt lat="43.32101" lon="3.55328">
        <ele>48.251619</ele>
        <time>2023-01-07T18:04:43.109Z</time>
      </trkpt>
      <trkpt lat="43.32098" lon="3.5534">
        <ele>48.251619</ele>
        <time>2023-01-07T18:05:50.134Z</time>
      </trkpt>
      <trkpt lat="43.32107" lon="3.55344">
        <ele>48.251619</ele>
        <time>2023-01-07T18:06:02.133Z</time>
      </trkpt>
      <trkpt lat="43.32114" lon="3.55334">
        <ele>48.251619</ele>
        <time>2023-01-07T18:06:19.136Z</time>
      </trkpt>
      <trkpt lat="43.32108" lon="3.55328">
        <ele>48.251619</ele>
        <time>2023-01-07T18:07:03.210Z</time>
      </trkpt>
    </trkseg>
  </trk>
</gpx>